<?xml version="1.0" encoding="UTF-8"?>
<gpx version="1.1" creator="https://www.youtrack.es" xsi:schemaLocation="http://www.topografix.com/GPX/1/1 http://www.topografix.com/GPX/1/1/gpx.xsd http://www.garmin.com/xmlschemas/GpxExtensions/v3 http://www.garmin.com/xmlschemas/GpxExtensionsv3.xsd http://www.garmin.com/xmlschemas/TrackPointExtension/v1 http://www.garmin.com/xmlschemas/TrackPointExtensionv1.xsd" xmlns:gpxtpx="http://www.garmin.com/xmlschemas/TrackPointExtension/v1" xmlns:gpxx="http://www.garmin.com/xmlschemas/GpxExtensions/v3" xmlns:xsi="http://www.w3.org/2001/XMLSchema-instance">
  <metadata>
    <author>
      <name>Antonio Loureiro</name>
      <email id="loureiroscj" domain="gmail.com"/>
    </author>
    <link href="https://www.youtrack.es">
      <text>YouTrack.es</text>
    </link>
    <time>2026-05-08T00:13:20Z</time>
  </metadata>
  <trk>
    <src>https://www.youtrack.es</src>
    <link href="https://www.youtrack.es/ruta/27465-peregrinacao-a-pe-a-santiago-maio-2021--ok">
      <text>YouTrack.es</text>
    </link>
    <trkseg>
      <trkpt lat="41.1599510" lon="-8.5500810">
        <ele>120.5</ele>
        <time>2021-05-15T16:08:03Z</time>
      </trkpt>
      <trkpt lat="41.1599820" lon="-8.5500060">
        <ele>120.6</ele>
        <time>2021-05-15T16:08:04Z</time>
      </trkpt>
      <trkpt lat="41.1599510" lon="-8.5499620">
        <ele>120.6</ele>
        <time>2021-05-15T16:08:05Z</time>
      </trkpt>
      <trkpt lat="41.1599460" lon="-8.5499400">
        <ele>120.6</ele>
        <time>2021-05-15T16:08:06Z</time>
      </trkpt>
      <trkpt lat="41.1599530" lon="-8.5499320">
        <ele>120.6</ele>
        <time>2021-05-15T16:08:07Z</time>
      </trkpt>
      <trkpt lat="41.1599460" lon="-8.5499350">
        <ele>120.6</ele>
        <time>2021-05-15T16:08:08Z</time>
      </trkpt>
      <trkpt lat="41.1599480" lon="-8.5499460">
        <ele>120.6</ele>
        <time>2021-05-15T16:08:09Z</time>
      </trkpt>
      <trkpt lat="41.1599470" lon="-8.5499460">
        <ele>120.6</ele>
        <time>2021-05-15T16:08:10Z</time>
      </trkpt>
      <trkpt lat="41.1599470" lon="-8.5499440">
        <ele>120.6</ele>
        <time>2021-05-15T16:08:11Z</time>
      </trkpt>
      <trkpt lat="41.1599520" lon="-8.5499520">
        <ele>120.6</ele>
        <time>2021-05-15T16:08:12Z</time>
      </trkpt>
      <trkpt lat="41.1599510" lon="-8.5499500">
        <ele>120.6</ele>
        <time>2021-05-15T16:08:13Z</time>
      </trkpt>
      <trkpt lat="41.1599460" lon="-8.5499480">
        <ele>120.6</ele>
        <time>2021-05-15T16:08:14Z</time>
      </trkpt>
      <trkpt lat="41.1599460" lon="-8.5499490">
        <ele>120.6</ele>
        <time>2021-05-15T16:08:15Z</time>
      </trkpt>
      <trkpt lat="41.1599410" lon="-8.5499510">
        <ele>120.6</ele>
        <time>2021-05-15T16:08:16Z</time>
      </trkpt>
      <trkpt lat="41.1599410" lon="-8.5499510">
        <ele>120.6</ele>
        <time>2021-05-15T16:08:17Z</time>
      </trkpt>
      <trkpt lat="41.1599310" lon="-8.5499520">
        <ele>120.6</ele>
        <time>2021-05-15T16:08:18Z</time>
      </trkpt>
      <trkpt lat="41.1599300" lon="-8.5499520">
        <ele>120.6</ele>
        <time>2021-05-15T16:08:19Z</time>
      </trkpt>
      <trkpt lat="41.1599310" lon="-8.5499560">
        <ele>120.6</ele>
        <time>2021-05-15T16:08:20Z</time>
      </trkpt>
      <trkpt lat="41.1599320" lon="-8.5499550">
        <ele>120.6</ele>
        <time>2021-05-15T16:08:21Z</time>
      </trkpt>
      <trkpt lat="41.1599340" lon="-8.5499470">
        <ele>120.6</ele>
        <time>2021-05-15T16:08:22Z</time>
      </trkpt>
      <trkpt lat="41.1599340" lon="-8.5499480">
        <ele>120.6</ele>
        <time>2021-05-15T16:08:23Z</time>
      </trkpt>
      <trkpt lat="41.1599280" lon="-8.5499540">
        <ele>120.6</ele>
        <time>2021-05-15T16:08:24Z</time>
      </trkpt>
      <trkpt lat="41.1599270" lon="-8.5499570">
        <ele>120.6</ele>
        <time>2021-05-15T16:08:25Z</time>
      </trkpt>
      <trkpt lat="41.1599310" lon="-8.5499550">
        <ele>120.6</ele>
        <time>2021-05-15T16:08:26Z</time>
      </trkpt>
      <trkpt lat="41.1599280" lon="-8.5499530">
        <ele>120.6</ele>
        <time>2021-05-15T16:08:27Z</time>
      </trkpt>
      <trkpt lat="41.1599280" lon="-8.5499480">
        <ele>120.6</ele>
        <time>2021-05-15T16:08:28Z</time>
      </trkpt>
      <trkpt lat="41.1599250" lon="-8.5499420">
        <ele>120.6</ele>
        <time>2021-05-15T16:08:29Z</time>
      </trkpt>
      <trkpt lat="41.1599290" lon="-8.5499410">
        <ele>120.6</ele>
        <time>2021-05-15T16:08:30Z</time>
      </trkpt>
      <trkpt lat="41.1599310" lon="-8.5499400">
        <ele>120.6</ele>
        <time>2021-05-15T16:08:31Z</time>
      </trkpt>
      <trkpt lat="41.1599320" lon="-8.5499410">
        <ele>120.6</ele>
        <time>2021-05-15T16:08:32Z</time>
      </trkpt>
      <trkpt lat="41.1599310" lon="-8.5499450">
        <ele>120.6</ele>
        <time>2021-05-15T16:08:33Z</time>
      </trkpt>
      <trkpt lat="41.1599320" lon="-8.5499550">
        <ele>120.6</ele>
        <time>2021-05-15T16:08:34Z</time>
      </trkpt>
      <trkpt lat="41.1599340" lon="-8.5499550">
        <ele>120.6</ele>
        <time>2021-05-15T16:08:36Z</time>
      </trkpt>
      <trkpt lat="41.1599340" lon="-8.5499530">
        <ele>120.6</ele>
        <time>2021-05-15T16:08:37Z</time>
      </trkpt>
      <trkpt lat="41.1599340" lon="-8.5499520">
        <ele>120.6</ele>
        <time>2021-05-15T16:08:38Z</time>
      </trkpt>
      <trkpt lat="41.1599330" lon="-8.5499490">
        <ele>120.6</ele>
        <time>2021-05-15T16:08:39Z</time>
      </trkpt>
      <trkpt lat="41.1599320" lon="-8.5499450">
        <ele>120.7</ele>
        <time>2021-05-15T16:08:40Z</time>
      </trkpt>
      <trkpt lat="41.1599320" lon="-8.5499450">
        <ele>120.7</ele>
        <time>2021-05-15T16:08:41Z</time>
      </trkpt>
      <trkpt lat="41.1599340" lon="-8.5499450">
        <ele>120.7</ele>
        <time>2021-05-15T16:08:42Z</time>
      </trkpt>
      <trkpt lat="41.1599330" lon="-8.5499380">
        <ele>120.7</ele>
        <time>2021-05-15T16:08:43Z</time>
      </trkpt>
      <trkpt lat="41.1599260" lon="-8.5499360">
        <ele>120.7</ele>
        <time>2021-05-15T16:08:44Z</time>
      </trkpt>
      <trkpt lat="41.1599180" lon="-8.5499410">
        <ele>120.7</ele>
        <time>2021-05-15T16:08:45Z</time>
      </trkpt>
      <trkpt lat="41.1599170" lon="-8.5499460">
        <ele>120.7</ele>
        <time>2021-05-15T16:08:46Z</time>
      </trkpt>
      <trkpt lat="41.1599170" lon="-8.5499450">
        <ele>120.7</ele>
        <time>2021-05-15T16:08:47Z</time>
      </trkpt>
      <trkpt lat="41.1599160" lon="-8.5499450">
        <ele>120.7</ele>
        <time>2021-05-15T16:08:48Z</time>
      </trkpt>
      <trkpt lat="41.1599180" lon="-8.5499440">
        <ele>120.7</ele>
        <time>2021-05-15T16:08:49Z</time>
      </trkpt>
      <trkpt lat="41.1599210" lon="-8.5499430">
        <ele>120.7</ele>
        <time>2021-05-15T16:08:50Z</time>
      </trkpt>
      <trkpt lat="41.1599210" lon="-8.5499450">
        <ele>120.7</ele>
        <time>2021-05-15T16:08:51Z</time>
      </trkpt>
      <trkpt lat="41.1599180" lon="-8.5499470">
        <ele>120.7</ele>
        <time>2021-05-15T16:08:52Z</time>
      </trkpt>
      <trkpt lat="41.1599190" lon="-8.5499460">
        <ele>120.7</ele>
        <time>2021-05-15T16:08:53Z</time>
      </trkpt>
      <trkpt lat="41.1599230" lon="-8.5499480">
        <ele>120.7</ele>
        <time>2021-05-15T16:08:54Z</time>
      </trkpt>
      <trkpt lat="41.1599220" lon="-8.5499410">
        <ele>120.7</ele>
        <time>2021-05-15T16:08:55Z</time>
      </trkpt>
      <trkpt lat="41.1599240" lon="-8.5499390">
        <ele>120.7</ele>
        <time>2021-05-15T16:08:56Z</time>
      </trkpt>
      <trkpt lat="41.1599250" lon="-8.5499360">
        <ele>120.7</ele>
        <time>2021-05-15T16:08:57Z</time>
      </trkpt>
      <trkpt lat="41.1599270" lon="-8.5499390">
        <ele>120.7</ele>
        <time>2021-05-15T16:08:58Z</time>
      </trkpt>
      <trkpt lat="41.1599290" lon="-8.5499370">
        <ele>120.7</ele>
        <time>2021-05-15T16:08:59Z</time>
      </trkpt>
      <trkpt lat="41.1599310" lon="-8.5499340">
        <ele>120.7</ele>
        <time>2021-05-15T16:09:00Z</time>
      </trkpt>
      <trkpt lat="41.1599290" lon="-8.5499340">
        <ele>120.7</ele>
        <time>2021-05-15T16:09:01Z</time>
      </trkpt>
      <trkpt lat="41.1599300" lon="-8.5499350">
        <ele>120.7</ele>
        <time>2021-05-15T16:09:02Z</time>
      </trkpt>
      <trkpt lat="41.1599300" lon="-8.5499340">
        <ele>120.7</ele>
        <time>2021-05-15T16:09:03Z</time>
      </trkpt>
      <trkpt lat="41.1599310" lon="-8.5499340">
        <ele>120.7</ele>
        <time>2021-05-15T16:09:04Z</time>
      </trkpt>
      <trkpt lat="41.1599310" lon="-8.5499330">
        <ele>120.7</ele>
        <time>2021-05-15T16:09:05Z</time>
      </trkpt>
      <trkpt lat="41.1599300" lon="-8.5499350">
        <ele>120.7</ele>
        <time>2021-05-15T16:09:06Z</time>
      </trkpt>
      <trkpt lat="41.1599340" lon="-8.5499300">
        <ele>120.7</ele>
        <time>2021-05-15T16:09:07Z</time>
      </trkpt>
      <trkpt lat="41.1599340" lon="-8.5499290">
        <ele>120.7</ele>
        <time>2021-05-15T16:09:08Z</time>
      </trkpt>
      <trkpt lat="41.1599380" lon="-8.5499270">
        <ele>120.7</ele>
        <time>2021-05-15T16:09:09Z</time>
      </trkpt>
      <trkpt lat="41.1599400" lon="-8.5499240">
        <ele>120.7</ele>
        <time>2021-05-15T16:09:10Z</time>
      </trkpt>
      <trkpt lat="41.1599400" lon="-8.5499220">
        <ele>120.7</ele>
        <time>2021-05-15T16:09:11Z</time>
      </trkpt>
      <trkpt lat="41.1599400" lon="-8.5499220">
        <ele>120.7</ele>
        <time>2021-05-15T16:09:12Z</time>
      </trkpt>
      <trkpt lat="41.1599400" lon="-8.5499210">
        <ele>120.7</ele>
        <time>2021-05-15T16:09:13Z</time>
      </trkpt>
      <trkpt lat="41.1599400" lon="-8.5499210">
        <ele>120.7</ele>
        <time>2021-05-15T16:09:14Z</time>
      </trkpt>
      <trkpt lat="41.1599400" lon="-8.5499210">
        <ele>120.7</ele>
        <time>2021-05-15T16:09:15Z</time>
      </trkpt>
      <trkpt lat="41.1599390" lon="-8.5499220">
        <ele>120.7</ele>
        <time>2021-05-15T16:09:16Z</time>
      </trkpt>
      <trkpt lat="41.1599390" lon="-8.5499220">
        <ele>120.7</ele>
        <time>2021-05-15T16:09:17Z</time>
      </trkpt>
      <trkpt lat="41.1599380" lon="-8.5499230">
        <ele>120.7</ele>
        <time>2021-05-15T16:09:18Z</time>
      </trkpt>
      <trkpt lat="41.1599380" lon="-8.5499240">
        <ele>120.7</ele>
        <time>2021-05-15T16:09:19Z</time>
      </trkpt>
      <trkpt lat="41.1599380" lon="-8.5499250">
        <ele>120.7</ele>
        <time>2021-05-15T16:09:20Z</time>
      </trkpt>
      <trkpt lat="41.1599390" lon="-8.5499240">
        <ele>120.7</ele>
        <time>2021-05-15T16:09:21Z</time>
      </trkpt>
      <trkpt lat="41.1599370" lon="-8.5499240">
        <ele>120.7</ele>
        <time>2021-05-15T16:09:22Z</time>
      </trkpt>
      <trkpt lat="41.1599370" lon="-8.5499220">
        <ele>120.7</ele>
        <time>2021-05-15T16:09:23Z</time>
      </trkpt>
      <trkpt lat="41.1599380" lon="-8.5499220">
        <ele>120.7</ele>
        <time>2021-05-15T16:09:24Z</time>
      </trkpt>
      <trkpt lat="41.1599370" lon="-8.5499210">
        <ele>120.7</ele>
        <time>2021-05-15T16:09:25Z</time>
      </trkpt>
      <trkpt lat="41.1599400" lon="-8.5499170">
        <ele>120.7</ele>
        <time>2021-05-15T16:09:26Z</time>
      </trkpt>
      <trkpt lat="41.1599400" lon="-8.5499180">
        <ele>120.7</ele>
        <time>2021-05-15T16:09:27Z</time>
      </trkpt>
      <trkpt lat="41.1599390" lon="-8.5499170">
        <ele>120.7</ele>
        <time>2021-05-15T16:09:28Z</time>
      </trkpt>
      <trkpt lat="41.1599380" lon="-8.5499180">
        <ele>120.7</ele>
        <time>2021-05-15T16:09:29Z</time>
      </trkpt>
      <trkpt lat="41.1599360" lon="-8.5499180">
        <ele>120.7</ele>
        <time>2021-05-15T16:09:30Z</time>
      </trkpt>
      <trkpt lat="41.1599400" lon="-8.5499180">
        <ele>120.7</ele>
        <time>2021-05-15T16:09:31Z</time>
      </trkpt>
      <trkpt lat="41.1599440" lon="-8.5499100">
        <ele>120.7</ele>
        <time>2021-05-15T16:09:32Z</time>
      </trkpt>
      <trkpt lat="41.1599510" lon="-8.5499060">
        <ele>120.7</ele>
        <time>2021-05-15T16:09:33Z</time>
      </trkpt>
      <trkpt lat="41.1599570" lon="-8.5499080">
        <ele>120.7</ele>
        <time>2021-05-15T16:09:34Z</time>
      </trkpt>
      <trkpt lat="41.1599690" lon="-8.5499020">
        <ele>120.7</ele>
        <time>2021-05-15T16:09:35Z</time>
      </trkpt>
      <trkpt lat="41.1599740" lon="-8.5498990">
        <ele>120.7</ele>
        <time>2021-05-15T16:09:36Z</time>
      </trkpt>
      <trkpt lat="41.1599790" lon="-8.5498960">
        <ele>120.7</ele>
        <time>2021-05-15T16:09:37Z</time>
      </trkpt>
      <trkpt lat="41.1599860" lon="-8.5498930">
        <ele>120.7</ele>
        <time>2021-05-15T16:09:38Z</time>
      </trkpt>
      <trkpt lat="41.1599940" lon="-8.5498920">
        <ele>120.7</ele>
        <time>2021-05-15T16:09:39Z</time>
      </trkpt>
      <trkpt lat="41.1600020" lon="-8.5498890">
        <ele>120.7</ele>
        <time>2021-05-15T16:09:40Z</time>
      </trkpt>
      <trkpt lat="41.1600120" lon="-8.5498860">
        <ele>120.7</ele>
        <time>2021-05-15T16:09:41Z</time>
      </trkpt>
      <trkpt lat="41.1600220" lon="-8.5498840">
        <ele>120.7</ele>
        <time>2021-05-15T16:09:42Z</time>
      </trkpt>
      <trkpt lat="41.1600300" lon="-8.5498800">
        <ele>120.7</ele>
        <time>2021-05-15T16:09:43Z</time>
      </trkpt>
      <trkpt lat="41.1600610" lon="-8.5498800">
        <ele>120.7</ele>
        <time>2021-05-15T16:09:44Z</time>
      </trkpt>
      <trkpt lat="41.1600670" lon="-8.5498770">
        <ele>120.7</ele>
        <time>2021-05-15T16:09:45Z</time>
      </trkpt>
      <trkpt lat="41.1600870" lon="-8.5498750">
        <ele>120.7</ele>
        <time>2021-05-15T16:09:46Z</time>
      </trkpt>
      <trkpt lat="41.1600950" lon="-8.5498790">
        <ele>120.7</ele>
        <time>2021-05-15T16:09:47Z</time>
      </trkpt>
      <trkpt lat="41.1601040" lon="-8.5498830">
        <ele>120.7</ele>
        <time>2021-05-15T16:09:48Z</time>
      </trkpt>
      <trkpt lat="41.1601240" lon="-8.5498900">
        <ele>120.7</ele>
        <time>2021-05-15T16:09:49Z</time>
      </trkpt>
      <trkpt lat="41.1601320" lon="-8.5498940">
        <ele>120.8</ele>
        <time>2021-05-15T16:09:50Z</time>
      </trkpt>
      <trkpt lat="41.1601370" lon="-8.5498980">
        <ele>120.8</ele>
        <time>2021-05-15T16:09:51Z</time>
      </trkpt>
      <trkpt lat="41.1601360" lon="-8.5499190">
        <ele>120.8</ele>
        <time>2021-05-15T16:09:52Z</time>
      </trkpt>
      <trkpt lat="41.1601330" lon="-8.5499160">
        <ele>120.8</ele>
        <time>2021-05-15T16:09:53Z</time>
      </trkpt>
      <trkpt lat="41.1601310" lon="-8.5499170">
        <ele>120.8</ele>
        <time>2021-05-15T16:09:54Z</time>
      </trkpt>
      <trkpt lat="41.1601390" lon="-8.5499360">
        <ele>120.8</ele>
        <time>2021-05-15T16:09:55Z</time>
      </trkpt>
      <trkpt lat="41.1601440" lon="-8.5499340">
        <ele>120.8</ele>
        <time>2021-05-15T16:09:56Z</time>
      </trkpt>
      <trkpt lat="41.1601400" lon="-8.5499400">
        <ele>120.8</ele>
        <time>2021-05-15T16:09:57Z</time>
      </trkpt>
      <trkpt lat="41.1601330" lon="-8.5499420">
        <ele>120.8</ele>
        <time>2021-05-15T16:09:58Z</time>
      </trkpt>
      <trkpt lat="41.1601290" lon="-8.5499440">
        <ele>120.8</ele>
        <time>2021-05-15T16:09:59Z</time>
      </trkpt>
      <trkpt lat="41.1601270" lon="-8.5499450">
        <ele>120.8</ele>
        <time>2021-05-15T16:10:00Z</time>
      </trkpt>
      <trkpt lat="41.1601220" lon="-8.5499470">
        <ele>120.8</ele>
        <time>2021-05-15T16:10:01Z</time>
      </trkpt>
      <trkpt lat="41.1601200" lon="-8.5499450">
        <ele>120.8</ele>
        <time>2021-05-15T16:10:02Z</time>
      </trkpt>
      <trkpt lat="41.1601160" lon="-8.5499440">
        <ele>120.8</ele>
        <time>2021-05-15T16:10:03Z</time>
      </trkpt>
      <trkpt lat="41.1601080" lon="-8.5499380">
        <ele>120.8</ele>
        <time>2021-05-15T16:10:04Z</time>
      </trkpt>
      <trkpt lat="41.1601090" lon="-8.5499400">
        <ele>120.8</ele>
        <time>2021-05-15T16:10:05Z</time>
      </trkpt>
      <trkpt lat="41.1601110" lon="-8.5499430">
        <ele>120.8</ele>
        <time>2021-05-15T16:10:06Z</time>
      </trkpt>
      <trkpt lat="41.1601090" lon="-8.5499390">
        <ele>120.8</ele>
        <time>2021-05-15T16:10:07Z</time>
      </trkpt>
      <trkpt lat="41.1601090" lon="-8.5499410">
        <ele>120.8</ele>
        <time>2021-05-15T16:10:08Z</time>
      </trkpt>
      <trkpt lat="41.1601070" lon="-8.5499420">
        <ele>120.8</ele>
        <time>2021-05-15T16:10:09Z</time>
      </trkpt>
      <trkpt lat="41.1601070" lon="-8.5499440">
        <ele>120.8</ele>
        <time>2021-05-15T16:10:10Z</time>
      </trkpt>
      <trkpt lat="41.1601050" lon="-8.5499460">
        <ele>120.8</ele>
        <time>2021-05-15T16:10:11Z</time>
      </trkpt>
      <trkpt lat="41.1601080" lon="-8.5499500">
        <ele>120.8</ele>
        <time>2021-05-15T16:10:12Z</time>
      </trkpt>
      <trkpt lat="41.1601100" lon="-8.5499510">
        <ele>120.8</ele>
        <time>2021-05-15T16:10:13Z</time>
      </trkpt>
      <trkpt lat="41.1601170" lon="-8.5499550">
        <ele>120.8</ele>
        <time>2021-05-15T16:10:14Z</time>
      </trkpt>
      <trkpt lat="41.1601330" lon="-8.5499550">
        <ele>120.8</ele>
        <time>2021-05-15T16:10:15Z</time>
      </trkpt>
      <trkpt lat="41.1601540" lon="-8.5499580">
        <ele>120.8</ele>
        <time>2021-05-15T16:10:16Z</time>
      </trkpt>
      <trkpt lat="41.1601650" lon="-8.5499600">
        <ele>120.8</ele>
        <time>2021-05-15T16:10:17Z</time>
      </trkpt>
      <trkpt lat="41.1601750" lon="-8.5499630">
        <ele>120.8</ele>
        <time>2021-05-15T16:10:18Z</time>
      </trkpt>
      <trkpt lat="41.1601950" lon="-8.5499620">
        <ele>120.8</ele>
        <time>2021-05-15T16:10:19Z</time>
      </trkpt>
      <trkpt lat="41.1602040" lon="-8.5499610">
        <ele>120.8</ele>
        <time>2021-05-15T16:10:20Z</time>
      </trkpt>
      <trkpt lat="41.1602120" lon="-8.5499610">
        <ele>120.8</ele>
        <time>2021-05-15T16:10:21Z</time>
      </trkpt>
      <trkpt lat="41.1602300" lon="-8.5499680">
        <ele>120.8</ele>
        <time>2021-05-15T16:10:22Z</time>
      </trkpt>
      <trkpt lat="41.1602410" lon="-8.5499720">
        <ele>120.8</ele>
        <time>2021-05-15T16:10:23Z</time>
      </trkpt>
      <trkpt lat="41.1602510" lon="-8.5499750">
        <ele>120.8</ele>
        <time>2021-05-15T16:10:24Z</time>
      </trkpt>
      <trkpt lat="41.1602690" lon="-8.5499770">
        <ele>120.9</ele>
        <time>2021-05-15T16:10:25Z</time>
      </trkpt>
      <trkpt lat="41.1602780" lon="-8.5499840">
        <ele>120.9</ele>
        <time>2021-05-15T16:10:26Z</time>
      </trkpt>
      <trkpt lat="41.1603000" lon="-8.5499870">
        <ele>121.1</ele>
        <time>2021-05-15T16:10:27Z</time>
      </trkpt>
      <trkpt lat="41.1603150" lon="-8.5499900">
        <ele>121.3</ele>
        <time>2021-05-15T16:10:28Z</time>
      </trkpt>
      <trkpt lat="41.1603290" lon="-8.5499900">
        <ele>121.4</ele>
        <time>2021-05-15T16:10:29Z</time>
      </trkpt>
      <trkpt lat="41.1603360" lon="-8.5499880">
        <ele>121.4</ele>
        <time>2021-05-15T16:10:30Z</time>
      </trkpt>
      <trkpt lat="41.1603480" lon="-8.5499900">
        <ele>121.5</ele>
        <time>2021-05-15T16:10:31Z</time>
      </trkpt>
      <trkpt lat="41.1603630" lon="-8.5499920">
        <ele>121.7</ele>
        <time>2021-05-15T16:10:32Z</time>
      </trkpt>
      <trkpt lat="41.1603800" lon="-8.5499950">
        <ele>121.8</ele>
        <time>2021-05-15T16:10:33Z</time>
      </trkpt>
      <trkpt lat="41.1603910" lon="-8.5499980">
        <ele>121.9</ele>
        <time>2021-05-15T16:10:34Z</time>
      </trkpt>
      <trkpt lat="41.1604000" lon="-8.5499970">
        <ele>122.0</ele>
        <time>2021-05-15T16:10:35Z</time>
      </trkpt>
      <trkpt lat="41.1604130" lon="-8.5499970">
        <ele>122.1</ele>
        <time>2021-05-15T16:10:36Z</time>
      </trkpt>
      <trkpt lat="41.1604280" lon="-8.5499940">
        <ele>122.2</ele>
        <time>2021-05-15T16:10:37Z</time>
      </trkpt>
      <trkpt lat="41.1604420" lon="-8.5499990">
        <ele>122.4</ele>
        <time>2021-05-15T16:10:38Z</time>
      </trkpt>
      <trkpt lat="41.1604610" lon="-8.5500010">
        <ele>122.5</ele>
        <time>2021-05-15T16:10:39Z</time>
      </trkpt>
      <trkpt lat="41.1604740" lon="-8.5500020">
        <ele>122.6</ele>
        <time>2021-05-15T16:10:40Z</time>
      </trkpt>
      <trkpt lat="41.1604900" lon="-8.5500010">
        <ele>122.8</ele>
        <time>2021-05-15T16:10:41Z</time>
      </trkpt>
      <trkpt lat="41.1605040" lon="-8.5499980">
        <ele>122.9</ele>
        <time>2021-05-15T16:10:42Z</time>
      </trkpt>
      <trkpt lat="41.1605170" lon="-8.5499920">
        <ele>123.0</ele>
        <time>2021-05-15T16:10:43Z</time>
      </trkpt>
      <trkpt lat="41.1605300" lon="-8.5499810">
        <ele>123.1</ele>
        <time>2021-05-15T16:10:44Z</time>
      </trkpt>
      <trkpt lat="41.1605500" lon="-8.5499690">
        <ele>123.3</ele>
        <time>2021-05-15T16:10:45Z</time>
      </trkpt>
      <trkpt lat="41.1605580" lon="-8.5499620">
        <ele>123.4</ele>
        <time>2021-05-15T16:10:46Z</time>
      </trkpt>
      <trkpt lat="41.1605650" lon="-8.5499560">
        <ele>123.5</ele>
        <time>2021-05-15T16:10:47Z</time>
      </trkpt>
      <trkpt lat="41.1605700" lon="-8.5499460">
        <ele>123.6</ele>
        <time>2021-05-15T16:10:48Z</time>
      </trkpt>
      <trkpt lat="41.1605810" lon="-8.5499360">
        <ele>123.7</ele>
        <time>2021-05-15T16:10:49Z</time>
      </trkpt>
      <trkpt lat="41.1605890" lon="-8.5499300">
        <ele>123.7</ele>
        <time>2021-05-15T16:10:50Z</time>
      </trkpt>
      <trkpt lat="41.1606020" lon="-8.5499230">
        <ele>123.9</ele>
        <time>2021-05-15T16:10:51Z</time>
      </trkpt>
      <trkpt lat="41.1606140" lon="-8.5499100">
        <ele>124.0</ele>
        <time>2021-05-15T16:10:52Z</time>
      </trkpt>
      <trkpt lat="41.1606210" lon="-8.5499070">
        <ele>124.1</ele>
        <time>2021-05-15T16:10:53Z</time>
      </trkpt>
      <trkpt lat="41.1606360" lon="-8.5499030">
        <ele>124.2</ele>
        <time>2021-05-15T16:10:54Z</time>
      </trkpt>
      <trkpt lat="41.1606450" lon="-8.5498960">
        <ele>124.3</ele>
        <time>2021-05-15T16:10:55Z</time>
      </trkpt>
      <trkpt lat="41.1606540" lon="-8.5498980">
        <ele>124.7</ele>
        <time>2021-05-15T16:10:56Z</time>
      </trkpt>
      <trkpt lat="41.1606640" lon="-8.5499010">
        <ele>124.6</ele>
        <time>2021-05-15T16:10:57Z</time>
      </trkpt>
      <trkpt lat="41.1606760" lon="-8.5499170">
        <ele>124.6</ele>
        <time>2021-05-15T16:10:58Z</time>
      </trkpt>
      <trkpt lat="41.1606820" lon="-8.5499320">
        <ele>124.5</ele>
        <time>2021-05-15T16:10:59Z</time>
      </trkpt>
      <trkpt lat="41.1606830" lon="-8.5499540">
        <ele>124.5</ele>
        <time>2021-05-15T16:11:00Z</time>
      </trkpt>
      <trkpt lat="41.1606840" lon="-8.5499770">
        <ele>124.4</ele>
        <time>2021-05-15T16:11:01Z</time>
      </trkpt>
      <trkpt lat="41.1606860" lon="-8.5499950">
        <ele>124.4</ele>
        <time>2021-05-15T16:11:02Z</time>
      </trkpt>
      <trkpt lat="41.1606860" lon="-8.5500020">
        <ele>124.3</ele>
        <time>2021-05-15T16:11:03Z</time>
      </trkpt>
      <trkpt lat="41.1606850" lon="-8.5500100">
        <ele>124.3</ele>
        <time>2021-05-15T16:11:04Z</time>
      </trkpt>
      <trkpt lat="41.1606850" lon="-8.5500200">
        <ele>124.3</ele>
        <time>2021-05-15T16:11:05Z</time>
      </trkpt>
      <trkpt lat="41.1606840" lon="-8.5500380">
        <ele>124.2</ele>
        <time>2021-05-15T16:11:06Z</time>
      </trkpt>
      <trkpt lat="41.1606770" lon="-8.5500410">
        <ele>124.2</ele>
        <time>2021-05-15T16:11:07Z</time>
      </trkpt>
      <trkpt lat="41.1606770" lon="-8.5500600">
        <ele>124.1</ele>
        <time>2021-05-15T16:11:08Z</time>
      </trkpt>
      <trkpt lat="41.1606760" lon="-8.5500780">
        <ele>124.1</ele>
        <time>2021-05-15T16:11:09Z</time>
      </trkpt>
      <trkpt lat="41.1606850" lon="-8.5501070">
        <ele>123.9</ele>
        <time>2021-05-15T16:11:10Z</time>
      </trkpt>
      <trkpt lat="41.1606790" lon="-8.5501230">
        <ele>123.9</ele>
        <time>2021-05-15T16:11:11Z</time>
      </trkpt>
      <trkpt lat="41.1606840" lon="-8.5501540">
        <ele>123.7</ele>
        <time>2021-05-15T16:11:12Z</time>
      </trkpt>
      <trkpt lat="41.1606860" lon="-8.5501680">
        <ele>123.7</ele>
        <time>2021-05-15T16:11:13Z</time>
      </trkpt>
      <trkpt lat="41.1606870" lon="-8.5501820">
        <ele>123.6</ele>
        <time>2021-05-15T16:11:14Z</time>
      </trkpt>
      <trkpt lat="41.1606870" lon="-8.5501990">
        <ele>123.6</ele>
        <time>2021-05-15T16:11:15Z</time>
      </trkpt>
      <trkpt lat="41.1606820" lon="-8.5502180">
        <ele>123.5</ele>
        <time>2021-05-15T16:11:16Z</time>
      </trkpt>
      <trkpt lat="41.1606770" lon="-8.5502360">
        <ele>123.4</ele>
        <time>2021-05-15T16:11:17Z</time>
      </trkpt>
      <trkpt lat="41.1606740" lon="-8.5502540">
        <ele>123.3</ele>
        <time>2021-05-15T16:11:18Z</time>
      </trkpt>
      <trkpt lat="41.1606750" lon="-8.5502810">
        <ele>123.2</ele>
        <time>2021-05-15T16:11:19Z</time>
      </trkpt>
      <trkpt lat="41.1606740" lon="-8.5502930">
        <ele>123.1</ele>
        <time>2021-05-15T16:11:20Z</time>
      </trkpt>
      <trkpt lat="41.1606740" lon="-8.5503040">
        <ele>123.1</ele>
        <time>2021-05-15T16:11:21Z</time>
      </trkpt>
      <trkpt lat="41.1606740" lon="-8.5503200">
        <ele>123.0</ele>
        <time>2021-05-15T16:11:22Z</time>
      </trkpt>
      <trkpt lat="41.1606720" lon="-8.5503410">
        <ele>122.9</ele>
        <time>2021-05-15T16:11:23Z</time>
      </trkpt>
      <trkpt lat="41.1606730" lon="-8.5503610">
        <ele>122.8</ele>
        <time>2021-05-15T16:11:24Z</time>
      </trkpt>
      <trkpt lat="41.1606700" lon="-8.5503770">
        <ele>122.8</ele>
        <time>2021-05-15T16:11:25Z</time>
      </trkpt>
      <trkpt lat="41.1606730" lon="-8.5503910">
        <ele>122.7</ele>
        <time>2021-05-15T16:11:26Z</time>
      </trkpt>
      <trkpt lat="41.1606740" lon="-8.5504100">
        <ele>122.6</ele>
        <time>2021-05-15T16:11:27Z</time>
      </trkpt>
      <trkpt lat="41.1606710" lon="-8.5504240">
        <ele>122.5</ele>
        <time>2021-05-15T16:11:28Z</time>
      </trkpt>
      <trkpt lat="41.1606750" lon="-8.5504570">
        <ele>122.4</ele>
        <time>2021-05-15T16:11:29Z</time>
      </trkpt>
      <trkpt lat="41.1606750" lon="-8.5504710">
        <ele>122.3</ele>
        <time>2021-05-15T16:11:30Z</time>
      </trkpt>
      <trkpt lat="41.1606760" lon="-8.5504840">
        <ele>122.2</ele>
        <time>2021-05-15T16:11:31Z</time>
      </trkpt>
      <trkpt lat="41.1606720" lon="-8.5505030">
        <ele>122.1</ele>
        <time>2021-05-15T16:11:32Z</time>
      </trkpt>
      <trkpt lat="41.1606770" lon="-8.5505240">
        <ele>122.0</ele>
        <time>2021-05-15T16:11:33Z</time>
      </trkpt>
      <trkpt lat="41.1606790" lon="-8.5505380">
        <ele>121.9</ele>
        <time>2021-05-15T16:11:34Z</time>
      </trkpt>
      <trkpt lat="41.1606820" lon="-8.5505500">
        <ele>121.9</ele>
        <time>2021-05-15T16:11:35Z</time>
      </trkpt>
      <trkpt lat="41.1606830" lon="-8.5505680">
        <ele>121.8</ele>
        <time>2021-05-15T16:11:36Z</time>
      </trkpt>
      <trkpt lat="41.1606780" lon="-8.5505880">
        <ele>121.7</ele>
        <time>2021-05-15T16:11:37Z</time>
      </trkpt>
      <trkpt lat="41.1606730" lon="-8.5506080">
        <ele>121.6</ele>
        <time>2021-05-15T16:11:38Z</time>
      </trkpt>
      <trkpt lat="41.1606700" lon="-8.5506280">
        <ele>121.5</ele>
        <time>2021-05-15T16:11:39Z</time>
      </trkpt>
      <trkpt lat="41.1606770" lon="-8.5506530">
        <ele>121.3</ele>
        <time>2021-05-15T16:11:40Z</time>
      </trkpt>
      <trkpt lat="41.1606850" lon="-8.5506890">
        <ele>121.1</ele>
        <time>2021-05-15T16:11:41Z</time>
      </trkpt>
      <trkpt lat="41.1606860" lon="-8.5506990">
        <ele>121.1</ele>
        <time>2021-05-15T16:11:42Z</time>
      </trkpt>
      <trkpt lat="41.1606850" lon="-8.5507160">
        <ele>121.0</ele>
        <time>2021-05-15T16:11:43Z</time>
      </trkpt>
      <trkpt lat="41.1606810" lon="-8.5507320">
        <ele>120.9</ele>
        <time>2021-05-15T16:11:44Z</time>
      </trkpt>
      <trkpt lat="41.1606770" lon="-8.5507440">
        <ele>120.8</ele>
        <time>2021-05-15T16:11:45Z</time>
      </trkpt>
      <trkpt lat="41.1606780" lon="-8.5507720">
        <ele>120.6</ele>
        <time>2021-05-15T16:11:46Z</time>
      </trkpt>
      <trkpt lat="41.1606770" lon="-8.5507820">
        <ele>120.6</ele>
        <time>2021-05-15T16:11:47Z</time>
      </trkpt>
      <trkpt lat="41.1606760" lon="-8.5507930">
        <ele>120.5</ele>
        <time>2021-05-15T16:11:48Z</time>
      </trkpt>
      <trkpt lat="41.1606760" lon="-8.5508190">
        <ele>120.4</ele>
        <time>2021-05-15T16:11:49Z</time>
      </trkpt>
      <trkpt lat="41.1606770" lon="-8.5508370">
        <ele>120.3</ele>
        <time>2021-05-15T16:11:50Z</time>
      </trkpt>
      <trkpt lat="41.1606750" lon="-8.5508550">
        <ele>120.2</ele>
        <time>2021-05-15T16:11:51Z</time>
      </trkpt>
      <trkpt lat="41.1606800" lon="-8.5508710">
        <ele>120.1</ele>
        <time>2021-05-15T16:11:52Z</time>
      </trkpt>
      <trkpt lat="41.1606790" lon="-8.5508850">
        <ele>120.0</ele>
        <time>2021-05-15T16:11:53Z</time>
      </trkpt>
      <trkpt lat="41.1606760" lon="-8.5509010">
        <ele>119.9</ele>
        <time>2021-05-15T16:11:54Z</time>
      </trkpt>
      <trkpt lat="41.1606690" lon="-8.5509200">
        <ele>119.8</ele>
        <time>2021-05-15T16:11:55Z</time>
      </trkpt>
      <trkpt lat="41.1606670" lon="-8.5509430">
        <ele>119.6</ele>
        <time>2021-05-15T16:11:56Z</time>
      </trkpt>
      <trkpt lat="41.1606620" lon="-8.5509570">
        <ele>119.6</ele>
        <time>2021-05-15T16:11:57Z</time>
      </trkpt>
      <trkpt lat="41.1606570" lon="-8.5509760">
        <ele>119.4</ele>
        <time>2021-05-15T16:11:58Z</time>
      </trkpt>
      <trkpt lat="41.1606500" lon="-8.5509940">
        <ele>119.3</ele>
        <time>2021-05-15T16:11:59Z</time>
      </trkpt>
      <trkpt lat="41.1606400" lon="-8.5510170">
        <ele>119.2</ele>
        <time>2021-05-15T16:12:00Z</time>
      </trkpt>
      <trkpt lat="41.1606390" lon="-8.5510320">
        <ele>119.1</ele>
        <time>2021-05-15T16:12:01Z</time>
      </trkpt>
      <trkpt lat="41.1606330" lon="-8.5510500">
        <ele>118.9</ele>
        <time>2021-05-15T16:12:02Z</time>
      </trkpt>
      <trkpt lat="41.1606350" lon="-8.5510680">
        <ele>118.8</ele>
        <time>2021-05-15T16:12:03Z</time>
      </trkpt>
      <trkpt lat="41.1606310" lon="-8.5510980">
        <ele>118.6</ele>
        <time>2021-05-15T16:12:04Z</time>
      </trkpt>
      <trkpt lat="41.1606290" lon="-8.5511090">
        <ele>118.6</ele>
        <time>2021-05-15T16:12:05Z</time>
      </trkpt>
      <trkpt lat="41.1606270" lon="-8.5511190">
        <ele>118.5</ele>
        <time>2021-05-15T16:12:06Z</time>
      </trkpt>
      <trkpt lat="41.1606150" lon="-8.5511410">
        <ele>118.3</ele>
        <time>2021-05-15T16:12:07Z</time>
      </trkpt>
      <trkpt lat="41.1606080" lon="-8.5511500">
        <ele>118.2</ele>
        <time>2021-05-15T16:12:08Z</time>
      </trkpt>
      <trkpt lat="41.1606010" lon="-8.5511580">
        <ele>118.2</ele>
        <time>2021-05-15T16:12:09Z</time>
      </trkpt>
      <trkpt lat="41.1605950" lon="-8.5511690">
        <ele>118.1</ele>
        <time>2021-05-15T16:12:10Z</time>
      </trkpt>
      <trkpt lat="41.1605880" lon="-8.5511790">
        <ele>118.0</ele>
        <time>2021-05-15T16:12:11Z</time>
      </trkpt>
      <trkpt lat="41.1605850" lon="-8.5511910">
        <ele>117.9</ele>
        <time>2021-05-15T16:12:12Z</time>
      </trkpt>
      <trkpt lat="41.1605840" lon="-8.5511950">
        <ele>117.8</ele>
        <time>2021-05-15T16:12:13Z</time>
      </trkpt>
      <trkpt lat="41.1605810" lon="-8.5511950">
        <ele>117.8</ele>
        <time>2021-05-15T16:12:14Z</time>
      </trkpt>
      <trkpt lat="41.1605800" lon="-8.5511970">
        <ele>117.8</ele>
        <time>2021-05-15T16:12:15Z</time>
      </trkpt>
      <trkpt lat="41.1605870" lon="-8.5512000">
        <ele>117.7</ele>
        <time>2021-05-15T16:12:16Z</time>
      </trkpt>
      <trkpt lat="41.1605920" lon="-8.5512070">
        <ele>117.7</ele>
        <time>2021-05-15T16:12:17Z</time>
      </trkpt>
      <trkpt lat="41.1605920" lon="-8.5512170">
        <ele>117.6</ele>
        <time>2021-05-15T16:12:18Z</time>
      </trkpt>
      <trkpt lat="41.1605880" lon="-8.5512370">
        <ele>117.5</ele>
        <time>2021-05-15T16:12:19Z</time>
      </trkpt>
      <trkpt lat="41.1605850" lon="-8.5512520">
        <ele>117.3</ele>
        <time>2021-05-15T16:12:20Z</time>
      </trkpt>
      <trkpt lat="41.1605830" lon="-8.5512660">
        <ele>117.2</ele>
        <time>2021-05-15T16:12:21Z</time>
      </trkpt>
      <trkpt lat="41.1605770" lon="-8.5512770">
        <ele>117.2</ele>
        <time>2021-05-15T16:12:22Z</time>
      </trkpt>
      <trkpt lat="41.1605750" lon="-8.5512890">
        <ele>117.1</ele>
        <time>2021-05-15T16:12:23Z</time>
      </trkpt>
      <trkpt lat="41.1605660" lon="-8.5513120">
        <ele>116.9</ele>
        <time>2021-05-15T16:12:24Z</time>
      </trkpt>
      <trkpt lat="41.1605660" lon="-8.5513370">
        <ele>116.7</ele>
        <time>2021-05-15T16:12:25Z</time>
      </trkpt>
      <trkpt lat="41.1605590" lon="-8.5513520">
        <ele>116.6</ele>
        <time>2021-05-15T16:12:26Z</time>
      </trkpt>
      <trkpt lat="41.1605580" lon="-8.5513740">
        <ele>116.4</ele>
        <time>2021-05-15T16:12:27Z</time>
      </trkpt>
      <trkpt lat="41.1605490" lon="-8.5513820">
        <ele>116.3</ele>
        <time>2021-05-15T16:12:28Z</time>
      </trkpt>
      <trkpt lat="41.1605470" lon="-8.5513980">
        <ele>116.2</ele>
        <time>2021-05-15T16:12:29Z</time>
      </trkpt>
      <trkpt lat="41.1605520" lon="-8.5514090">
        <ele>116.1</ele>
        <time>2021-05-15T16:12:30Z</time>
      </trkpt>
      <trkpt lat="41.1605440" lon="-8.5514230">
        <ele>116.0</ele>
        <time>2021-05-15T16:12:31Z</time>
      </trkpt>
      <trkpt lat="41.1605390" lon="-8.5514430">
        <ele>115.8</ele>
        <time>2021-05-15T16:12:32Z</time>
      </trkpt>
      <trkpt lat="41.1605330" lon="-8.5514670">
        <ele>115.7</ele>
        <time>2021-05-15T16:12:33Z</time>
      </trkpt>
      <trkpt lat="41.1605320" lon="-8.5514840">
        <ele>115.5</ele>
        <time>2021-05-15T16:12:34Z</time>
      </trkpt>
      <trkpt lat="41.1605400" lon="-8.5515020">
        <ele>115.4</ele>
        <time>2021-05-15T16:12:35Z</time>
      </trkpt>
      <trkpt lat="41.1605380" lon="-8.5515210">
        <ele>115.2</ele>
        <time>2021-05-15T16:12:36Z</time>
      </trkpt>
      <trkpt lat="41.1605390" lon="-8.5515410">
        <ele>115.1</ele>
        <time>2021-05-15T16:12:37Z</time>
      </trkpt>
      <trkpt lat="41.1605360" lon="-8.5515610">
        <ele>114.9</ele>
        <time>2021-05-15T16:12:38Z</time>
      </trkpt>
      <trkpt lat="41.1605330" lon="-8.5515870">
        <ele>114.8</ele>
        <time>2021-05-15T16:12:39Z</time>
      </trkpt>
      <trkpt lat="41.1605290" lon="-8.5515980">
        <ele>114.7</ele>
        <time>2021-05-15T16:12:40Z</time>
      </trkpt>
      <trkpt lat="41.1605250" lon="-8.5516100">
        <ele>114.6</ele>
        <time>2021-05-15T16:12:41Z</time>
      </trkpt>
      <trkpt lat="41.1605200" lon="-8.5516280">
        <ele>114.4</ele>
        <time>2021-05-15T16:12:42Z</time>
      </trkpt>
      <trkpt lat="41.1605170" lon="-8.5516500">
        <ele>114.3</ele>
        <time>2021-05-15T16:12:43Z</time>
      </trkpt>
      <trkpt lat="41.1605120" lon="-8.5516670">
        <ele>114.1</ele>
        <time>2021-05-15T16:12:44Z</time>
      </trkpt>
      <trkpt lat="41.1605050" lon="-8.5516920">
        <ele>113.9</ele>
        <time>2021-05-15T16:12:45Z</time>
      </trkpt>
      <trkpt lat="41.1605010" lon="-8.5517140">
        <ele>113.8</ele>
        <time>2021-05-15T16:12:46Z</time>
      </trkpt>
      <trkpt lat="41.1605010" lon="-8.5517320">
        <ele>113.6</ele>
        <time>2021-05-15T16:12:47Z</time>
      </trkpt>
      <trkpt lat="41.1604960" lon="-8.5517480">
        <ele>113.5</ele>
        <time>2021-05-15T16:12:48Z</time>
      </trkpt>
      <trkpt lat="41.1604980" lon="-8.5517630">
        <ele>113.4</ele>
        <time>2021-05-15T16:12:49Z</time>
      </trkpt>
      <trkpt lat="41.1604970" lon="-8.5517780">
        <ele>113.3</ele>
        <time>2021-05-15T16:12:50Z</time>
      </trkpt>
      <trkpt lat="41.1604940" lon="-8.5518000">
        <ele>113.1</ele>
        <time>2021-05-15T16:12:51Z</time>
      </trkpt>
      <trkpt lat="41.1604920" lon="-8.5518210">
        <ele>112.9</ele>
        <time>2021-05-15T16:12:52Z</time>
      </trkpt>
      <trkpt lat="41.1604920" lon="-8.5518470">
        <ele>112.7</ele>
        <time>2021-05-15T16:12:53Z</time>
      </trkpt>
      <trkpt lat="41.1604930" lon="-8.5518590">
        <ele>112.7</ele>
        <time>2021-05-15T16:12:54Z</time>
      </trkpt>
      <trkpt lat="41.1604940" lon="-8.5518710">
        <ele>112.6</ele>
        <time>2021-05-15T16:12:55Z</time>
      </trkpt>
      <trkpt lat="41.1604880" lon="-8.5518880">
        <ele>112.4</ele>
        <time>2021-05-15T16:12:56Z</time>
      </trkpt>
      <trkpt lat="41.1604890" lon="-8.5519070">
        <ele>112.3</ele>
        <time>2021-05-15T16:12:57Z</time>
      </trkpt>
      <trkpt lat="41.1604960" lon="-8.5519350">
        <ele>112.1</ele>
        <time>2021-05-15T16:12:58Z</time>
      </trkpt>
      <trkpt lat="41.1604930" lon="-8.5519450">
        <ele>112.0</ele>
        <time>2021-05-15T16:12:59Z</time>
      </trkpt>
      <trkpt lat="41.1604900" lon="-8.5519550">
        <ele>111.9</ele>
        <time>2021-05-15T16:13:00Z</time>
      </trkpt>
      <trkpt lat="41.1604870" lon="-8.5519730">
        <ele>111.8</ele>
        <time>2021-05-15T16:13:01Z</time>
      </trkpt>
      <trkpt lat="41.1604910" lon="-8.5519920">
        <ele>111.6</ele>
        <time>2021-05-15T16:13:02Z</time>
      </trkpt>
      <trkpt lat="41.1604860" lon="-8.5520120">
        <ele>111.5</ele>
        <time>2021-05-15T16:13:03Z</time>
      </trkpt>
      <trkpt lat="41.1604840" lon="-8.5520320">
        <ele>111.3</ele>
        <time>2021-05-15T16:13:04Z</time>
      </trkpt>
      <trkpt lat="41.1604840" lon="-8.5520580">
        <ele>111.1</ele>
        <time>2021-05-15T16:13:05Z</time>
      </trkpt>
      <trkpt lat="41.1604820" lon="-8.5520690">
        <ele>111.1</ele>
        <time>2021-05-15T16:13:06Z</time>
      </trkpt>
      <trkpt lat="41.1604810" lon="-8.5520810">
        <ele>111.0</ele>
        <time>2021-05-15T16:13:07Z</time>
      </trkpt>
      <trkpt lat="41.1604790" lon="-8.5521020">
        <ele>110.8</ele>
        <time>2021-05-15T16:13:08Z</time>
      </trkpt>
      <trkpt lat="41.1604730" lon="-8.5521200">
        <ele>110.7</ele>
        <time>2021-05-15T16:13:09Z</time>
      </trkpt>
      <trkpt lat="41.1604690" lon="-8.5521400">
        <ele>110.5</ele>
        <time>2021-05-15T16:13:10Z</time>
      </trkpt>
      <trkpt lat="41.1604670" lon="-8.5521610">
        <ele>110.4</ele>
        <time>2021-05-15T16:13:11Z</time>
      </trkpt>
      <trkpt lat="41.1604670" lon="-8.5521750">
        <ele>110.3</ele>
        <time>2021-05-15T16:13:12Z</time>
      </trkpt>
      <trkpt lat="41.1604660" lon="-8.5521940">
        <ele>110.1</ele>
        <time>2021-05-15T16:13:13Z</time>
      </trkpt>
      <trkpt lat="41.1604630" lon="-8.5522060">
        <ele>110.0</ele>
        <time>2021-05-15T16:13:14Z</time>
      </trkpt>
      <trkpt lat="41.1604560" lon="-8.5522360">
        <ele>109.8</ele>
        <time>2021-05-15T16:13:15Z</time>
      </trkpt>
      <trkpt lat="41.1604540" lon="-8.5522500">
        <ele>109.7</ele>
        <time>2021-05-15T16:13:16Z</time>
      </trkpt>
      <trkpt lat="41.1604510" lon="-8.5522640">
        <ele>109.6</ele>
        <time>2021-05-15T16:13:17Z</time>
      </trkpt>
      <trkpt lat="41.1604480" lon="-8.5522760">
        <ele>109.5</ele>
        <time>2021-05-15T16:13:18Z</time>
      </trkpt>
      <trkpt lat="41.1604450" lon="-8.5523020">
        <ele>109.3</ele>
        <time>2021-05-15T16:13:19Z</time>
      </trkpt>
      <trkpt lat="41.1604370" lon="-8.5523160">
        <ele>109.2</ele>
        <time>2021-05-15T16:13:20Z</time>
      </trkpt>
      <trkpt lat="41.1604360" lon="-8.5523260">
        <ele>109.1</ele>
        <time>2021-05-15T16:13:21Z</time>
      </trkpt>
      <trkpt lat="41.1604320" lon="-8.5523360">
        <ele>109.0</ele>
        <time>2021-05-15T16:13:22Z</time>
      </trkpt>
      <trkpt lat="41.1604260" lon="-8.5523540">
        <ele>108.9</ele>
        <time>2021-05-15T16:13:23Z</time>
      </trkpt>
      <trkpt lat="41.1604180" lon="-8.5523680">
        <ele>108.7</ele>
        <time>2021-05-15T16:13:24Z</time>
      </trkpt>
      <trkpt lat="41.1604120" lon="-8.5523900">
        <ele>108.6</ele>
        <time>2021-05-15T16:13:25Z</time>
      </trkpt>
      <trkpt lat="41.1604100" lon="-8.5524020">
        <ele>108.5</ele>
        <time>2021-05-15T16:13:26Z</time>
      </trkpt>
      <trkpt lat="41.1604070" lon="-8.5524140">
        <ele>108.4</ele>
        <time>2021-05-15T16:13:27Z</time>
      </trkpt>
      <trkpt lat="41.1604010" lon="-8.5524290">
        <ele>108.2</ele>
        <time>2021-05-15T16:13:28Z</time>
      </trkpt>
      <trkpt lat="41.1603960" lon="-8.5524470">
        <ele>108.1</ele>
        <time>2021-05-15T16:13:29Z</time>
      </trkpt>
      <trkpt lat="41.1603890" lon="-8.5524690">
        <ele>107.9</ele>
        <time>2021-05-15T16:13:30Z</time>
      </trkpt>
      <trkpt lat="41.1603840" lon="-8.5524910">
        <ele>107.7</ele>
        <time>2021-05-15T16:13:31Z</time>
      </trkpt>
      <trkpt lat="41.1603810" lon="-8.5525120">
        <ele>107.5</ele>
        <time>2021-05-15T16:13:32Z</time>
      </trkpt>
      <trkpt lat="41.1603760" lon="-8.5525340">
        <ele>107.4</ele>
        <time>2021-05-15T16:13:33Z</time>
      </trkpt>
      <trkpt lat="41.1603670" lon="-8.5525520">
        <ele>107.2</ele>
        <time>2021-05-15T16:13:34Z</time>
      </trkpt>
      <trkpt lat="41.1603590" lon="-8.5525680">
        <ele>107.0</ele>
        <time>2021-05-15T16:13:35Z</time>
      </trkpt>
      <trkpt lat="41.1603510" lon="-8.5525810">
        <ele>106.9</ele>
        <time>2021-05-15T16:13:36Z</time>
      </trkpt>
      <trkpt lat="41.1603490" lon="-8.5525910">
        <ele>106.8</ele>
        <time>2021-05-15T16:13:37Z</time>
      </trkpt>
      <trkpt lat="41.1603460" lon="-8.5526090">
        <ele>106.7</ele>
        <time>2021-05-15T16:13:38Z</time>
      </trkpt>
      <trkpt lat="41.1603400" lon="-8.5526230">
        <ele>106.5</ele>
        <time>2021-05-15T16:13:39Z</time>
      </trkpt>
      <trkpt lat="41.1603290" lon="-8.5526470">
        <ele>106.3</ele>
        <time>2021-05-15T16:13:40Z</time>
      </trkpt>
      <trkpt lat="41.1603280" lon="-8.5526570">
        <ele>106.2</ele>
        <time>2021-05-15T16:13:41Z</time>
      </trkpt>
      <trkpt lat="41.1603250" lon="-8.5526750">
        <ele>106.1</ele>
        <time>2021-05-15T16:13:42Z</time>
      </trkpt>
      <trkpt lat="41.1603280" lon="-8.5526900">
        <ele>105.9</ele>
        <time>2021-05-15T16:13:43Z</time>
      </trkpt>
      <trkpt lat="41.1603160" lon="-8.5527100">
        <ele>105.7</ele>
        <time>2021-05-15T16:13:44Z</time>
      </trkpt>
      <trkpt lat="41.1603070" lon="-8.5527150">
        <ele>105.6</ele>
        <time>2021-05-15T16:13:45Z</time>
      </trkpt>
      <trkpt lat="41.1603000" lon="-8.5527250">
        <ele>105.5</ele>
        <time>2021-05-15T16:13:46Z</time>
      </trkpt>
      <trkpt lat="41.1602900" lon="-8.5527440">
        <ele>105.3</ele>
        <time>2021-05-15T16:13:47Z</time>
      </trkpt>
      <trkpt lat="41.1602870" lon="-8.5527630">
        <ele>105.2</ele>
        <time>2021-05-15T16:13:48Z</time>
      </trkpt>
      <trkpt lat="41.1602820" lon="-8.5527800">
        <ele>105.0</ele>
        <time>2021-05-15T16:13:49Z</time>
      </trkpt>
      <trkpt lat="41.1602710" lon="-8.5528050">
        <ele>104.8</ele>
        <time>2021-05-15T16:13:50Z</time>
      </trkpt>
      <trkpt lat="41.1602670" lon="-8.5528180">
        <ele>104.7</ele>
        <time>2021-05-15T16:13:51Z</time>
      </trkpt>
      <trkpt lat="41.1602590" lon="-8.5528400">
        <ele>104.5</ele>
        <time>2021-05-15T16:13:52Z</time>
      </trkpt>
      <trkpt lat="41.1602540" lon="-8.5528600">
        <ele>104.3</ele>
        <time>2021-05-15T16:13:53Z</time>
      </trkpt>
      <trkpt lat="41.1602480" lon="-8.5528820">
        <ele>104.1</ele>
        <time>2021-05-15T16:13:54Z</time>
      </trkpt>
      <trkpt lat="41.1602490" lon="-8.5529050">
        <ele>103.9</ele>
        <time>2021-05-15T16:13:55Z</time>
      </trkpt>
      <trkpt lat="41.1602410" lon="-8.5529230">
        <ele>103.7</ele>
        <time>2021-05-15T16:13:56Z</time>
      </trkpt>
      <trkpt lat="41.1602360" lon="-8.5529420">
        <ele>103.6</ele>
        <time>2021-05-15T16:13:57Z</time>
      </trkpt>
      <trkpt lat="41.1602290" lon="-8.5529680">
        <ele>103.4</ele>
        <time>2021-05-15T16:13:58Z</time>
      </trkpt>
      <trkpt lat="41.1602260" lon="-8.5529780">
        <ele>103.3</ele>
        <time>2021-05-15T16:13:59Z</time>
      </trkpt>
      <trkpt lat="41.1602230" lon="-8.5529890">
        <ele>103.2</ele>
        <time>2021-05-15T16:14:00Z</time>
      </trkpt>
      <trkpt lat="41.1602170" lon="-8.5530050">
        <ele>103.0</ele>
        <time>2021-05-15T16:14:01Z</time>
      </trkpt>
      <trkpt lat="41.1602140" lon="-8.5530180">
        <ele>102.9</ele>
        <time>2021-05-15T16:14:02Z</time>
      </trkpt>
      <trkpt lat="41.1602090" lon="-8.5530340">
        <ele>102.8</ele>
        <time>2021-05-15T16:14:03Z</time>
      </trkpt>
      <trkpt lat="41.1602050" lon="-8.5530420">
        <ele>102.7</ele>
        <time>2021-05-15T16:14:04Z</time>
      </trkpt>
      <trkpt lat="41.1602010" lon="-8.5530630">
        <ele>102.6</ele>
        <time>2021-05-15T16:14:05Z</time>
      </trkpt>
      <trkpt lat="41.1601980" lon="-8.5530780">
        <ele>102.4</ele>
        <time>2021-05-15T16:14:06Z</time>
      </trkpt>
      <trkpt lat="41.1601920" lon="-8.5531010">
        <ele>102.2</ele>
        <time>2021-05-15T16:14:07Z</time>
      </trkpt>
      <trkpt lat="41.1601910" lon="-8.5531140">
        <ele>102.1</ele>
        <time>2021-05-15T16:14:08Z</time>
      </trkpt>
      <trkpt lat="41.1601890" lon="-8.5531250">
        <ele>102.1</ele>
        <time>2021-05-15T16:14:09Z</time>
      </trkpt>
      <trkpt lat="41.1601820" lon="-8.5531460">
        <ele>101.9</ele>
        <time>2021-05-15T16:14:10Z</time>
      </trkpt>
      <trkpt lat="41.1601770" lon="-8.5531580">
        <ele>101.8</ele>
        <time>2021-05-15T16:14:11Z</time>
      </trkpt>
      <trkpt lat="41.1601720" lon="-8.5531780">
        <ele>101.6</ele>
        <time>2021-05-15T16:14:12Z</time>
      </trkpt>
      <trkpt lat="41.1601710" lon="-8.5531930">
        <ele>101.5</ele>
        <time>2021-05-15T16:14:13Z</time>
      </trkpt>
      <trkpt lat="41.1601670" lon="-8.5532100">
        <ele>101.4</ele>
        <time>2021-05-15T16:14:14Z</time>
      </trkpt>
      <trkpt lat="41.1601620" lon="-8.5532210">
        <ele>101.3</ele>
        <time>2021-05-15T16:14:15Z</time>
      </trkpt>
      <trkpt lat="41.1601560" lon="-8.5532280">
        <ele>101.2</ele>
        <time>2021-05-15T16:14:16Z</time>
      </trkpt>
      <trkpt lat="41.1601440" lon="-8.5532520">
        <ele>100.9</ele>
        <time>2021-05-15T16:14:17Z</time>
      </trkpt>
      <trkpt lat="41.1601400" lon="-8.5532650">
        <ele>100.8</ele>
        <time>2021-05-15T16:14:18Z</time>
      </trkpt>
      <trkpt lat="41.1601350" lon="-8.5532770">
        <ele>100.7</ele>
        <time>2021-05-15T16:14:19Z</time>
      </trkpt>
      <trkpt lat="41.1601310" lon="-8.5533030">
        <ele>100.5</ele>
        <time>2021-05-15T16:14:20Z</time>
      </trkpt>
      <trkpt lat="41.1601270" lon="-8.5533140">
        <ele>100.4</ele>
        <time>2021-05-15T16:14:21Z</time>
      </trkpt>
      <trkpt lat="41.1601240" lon="-8.5533260">
        <ele>100.3</ele>
        <time>2021-05-15T16:14:22Z</time>
      </trkpt>
      <trkpt lat="41.1601170" lon="-8.5533400">
        <ele>100.2</ele>
        <time>2021-05-15T16:14:23Z</time>
      </trkpt>
      <trkpt lat="41.1601140" lon="-8.5533610">
        <ele>100.0</ele>
        <time>2021-05-15T16:14:24Z</time>
      </trkpt>
      <trkpt lat="41.1601080" lon="-8.5533790">
        <ele>99.9</ele>
        <time>2021-05-15T16:14:25Z</time>
      </trkpt>
      <trkpt lat="41.1600990" lon="-8.5533930">
        <ele>99.8</ele>
        <time>2021-05-15T16:14:26Z</time>
      </trkpt>
      <trkpt lat="41.1600970" lon="-8.5534030">
        <ele>99.7</ele>
        <time>2021-05-15T16:14:27Z</time>
      </trkpt>
      <trkpt lat="41.1600880" lon="-8.5534190">
        <ele>99.5</ele>
        <time>2021-05-15T16:14:28Z</time>
      </trkpt>
      <trkpt lat="41.1600840" lon="-8.5534310">
        <ele>99.4</ele>
        <time>2021-05-15T16:14:29Z</time>
      </trkpt>
      <trkpt lat="41.1600850" lon="-8.5534420">
        <ele>99.3</ele>
        <time>2021-05-15T16:14:30Z</time>
      </trkpt>
      <trkpt lat="41.1600740" lon="-8.5534690">
        <ele>99.1</ele>
        <time>2021-05-15T16:14:31Z</time>
      </trkpt>
      <trkpt lat="41.1600720" lon="-8.5534990">
        <ele>98.9</ele>
        <time>2021-05-15T16:14:32Z</time>
      </trkpt>
      <trkpt lat="41.1600700" lon="-8.5535080">
        <ele>98.8</ele>
        <time>2021-05-15T16:14:33Z</time>
      </trkpt>
      <trkpt lat="41.1600690" lon="-8.5535180">
        <ele>98.8</ele>
        <time>2021-05-15T16:14:34Z</time>
      </trkpt>
      <trkpt lat="41.1600610" lon="-8.5535490">
        <ele>98.4</ele>
        <time>2021-05-15T16:14:35Z</time>
      </trkpt>
      <trkpt lat="41.1600610" lon="-8.5535630">
        <ele>98.3</ele>
        <time>2021-05-15T16:14:36Z</time>
      </trkpt>
      <trkpt lat="41.1600610" lon="-8.5535760">
        <ele>98.1</ele>
        <time>2021-05-15T16:14:37Z</time>
      </trkpt>
      <trkpt lat="41.1600580" lon="-8.5535940">
        <ele>98.0</ele>
        <time>2021-05-15T16:14:38Z</time>
      </trkpt>
      <trkpt lat="41.1600550" lon="-8.5536110">
        <ele>97.8</ele>
        <time>2021-05-15T16:14:39Z</time>
      </trkpt>
      <trkpt lat="41.1600510" lon="-8.5536410">
        <ele>97.5</ele>
        <time>2021-05-15T16:14:40Z</time>
      </trkpt>
      <trkpt lat="41.1600470" lon="-8.5536530">
        <ele>97.3</ele>
        <time>2021-05-15T16:14:41Z</time>
      </trkpt>
      <trkpt lat="41.1600420" lon="-8.5536650">
        <ele>97.2</ele>
        <time>2021-05-15T16:14:42Z</time>
      </trkpt>
      <trkpt lat="41.1600340" lon="-8.5536910">
        <ele>96.9</ele>
        <time>2021-05-15T16:14:43Z</time>
      </trkpt>
      <trkpt lat="41.1600330" lon="-8.5537020">
        <ele>96.8</ele>
        <time>2021-05-15T16:14:44Z</time>
      </trkpt>
      <trkpt lat="41.1600310" lon="-8.5537130">
        <ele>96.7</ele>
        <time>2021-05-15T16:14:45Z</time>
      </trkpt>
      <trkpt lat="41.1600210" lon="-8.5537240">
        <ele>96.5</ele>
        <time>2021-05-15T16:14:46Z</time>
      </trkpt>
      <trkpt lat="41.1600160" lon="-8.5537420">
        <ele>96.3</ele>
        <time>2021-05-15T16:14:47Z</time>
      </trkpt>
      <trkpt lat="41.1600060" lon="-8.5537640">
        <ele>96.1</ele>
        <time>2021-05-15T16:14:48Z</time>
      </trkpt>
      <trkpt lat="41.1599970" lon="-8.5537800">
        <ele>95.9</ele>
        <time>2021-05-15T16:14:49Z</time>
      </trkpt>
      <trkpt lat="41.1599840" lon="-8.5537900">
        <ele>95.7</ele>
        <time>2021-05-15T16:14:50Z</time>
      </trkpt>
      <trkpt lat="41.1599710" lon="-8.5538050">
        <ele>95.5</ele>
        <time>2021-05-15T16:14:51Z</time>
      </trkpt>
      <trkpt lat="41.1599630" lon="-8.5538210">
        <ele>95.3</ele>
        <time>2021-05-15T16:14:52Z</time>
      </trkpt>
      <trkpt lat="41.1599510" lon="-8.5538360">
        <ele>95.1</ele>
        <time>2021-05-15T16:14:53Z</time>
      </trkpt>
      <trkpt lat="41.1599400" lon="-8.5538580">
        <ele>94.8</ele>
        <time>2021-05-15T16:14:54Z</time>
      </trkpt>
      <trkpt lat="41.1599350" lon="-8.5538670">
        <ele>94.7</ele>
        <time>2021-05-15T16:14:55Z</time>
      </trkpt>
      <trkpt lat="41.1599300" lon="-8.5538770">
        <ele>94.6</ele>
        <time>2021-05-15T16:14:56Z</time>
      </trkpt>
      <trkpt lat="41.1599230" lon="-8.5538990">
        <ele>94.3</ele>
        <time>2021-05-15T16:14:57Z</time>
      </trkpt>
      <trkpt lat="41.1599170" lon="-8.5539100">
        <ele>94.2</ele>
        <time>2021-05-15T16:14:58Z</time>
      </trkpt>
      <trkpt lat="41.1599120" lon="-8.5539210">
        <ele>94.1</ele>
        <time>2021-05-15T16:14:59Z</time>
      </trkpt>
      <trkpt lat="41.1599080" lon="-8.5539390">
        <ele>93.9</ele>
        <time>2021-05-15T16:15:00Z</time>
      </trkpt>
      <trkpt lat="41.1599020" lon="-8.5539460">
        <ele>93.8</ele>
        <time>2021-05-15T16:15:01Z</time>
      </trkpt>
      <trkpt lat="41.1598990" lon="-8.5539580">
        <ele>93.7</ele>
        <time>2021-05-15T16:15:02Z</time>
      </trkpt>
      <trkpt lat="41.1598910" lon="-8.5539760">
        <ele>93.5</ele>
        <time>2021-05-15T16:15:03Z</time>
      </trkpt>
      <trkpt lat="41.1598850" lon="-8.5540000">
        <ele>93.2</ele>
        <time>2021-05-15T16:15:04Z</time>
      </trkpt>
      <trkpt lat="41.1598760" lon="-8.5540180">
        <ele>93.0</ele>
        <time>2021-05-15T16:15:05Z</time>
      </trkpt>
      <trkpt lat="41.1598700" lon="-8.5540300">
        <ele>92.9</ele>
        <time>2021-05-15T16:15:06Z</time>
      </trkpt>
      <trkpt lat="41.1598630" lon="-8.5540410">
        <ele>92.8</ele>
        <time>2021-05-15T16:15:07Z</time>
      </trkpt>
      <trkpt lat="41.1598570" lon="-8.5540590">
        <ele>92.6</ele>
        <time>2021-05-15T16:15:08Z</time>
      </trkpt>
      <trkpt lat="41.1598500" lon="-8.5540770">
        <ele>92.4</ele>
        <time>2021-05-15T16:15:09Z</time>
      </trkpt>
      <trkpt lat="41.1598430" lon="-8.5541100">
        <ele>92.1</ele>
        <time>2021-05-15T16:15:10Z</time>
      </trkpt>
      <trkpt lat="41.1598410" lon="-8.5541190">
        <ele>92.0</ele>
        <time>2021-05-15T16:15:11Z</time>
      </trkpt>
      <trkpt lat="41.1598390" lon="-8.5541290">
        <ele>91.9</ele>
        <time>2021-05-15T16:15:12Z</time>
      </trkpt>
      <trkpt lat="41.1598300" lon="-8.5541530">
        <ele>91.7</ele>
        <time>2021-05-15T16:15:13Z</time>
      </trkpt>
      <trkpt lat="41.1598280" lon="-8.5541650">
        <ele>91.6</ele>
        <time>2021-05-15T16:15:14Z</time>
      </trkpt>
      <trkpt lat="41.1598250" lon="-8.5541770">
        <ele>91.5</ele>
        <time>2021-05-15T16:15:15Z</time>
      </trkpt>
      <trkpt lat="41.1598180" lon="-8.5541880">
        <ele>91.4</ele>
        <time>2021-05-15T16:15:16Z</time>
      </trkpt>
      <trkpt lat="41.1598150" lon="-8.5542130">
        <ele>91.2</ele>
        <time>2021-05-15T16:15:17Z</time>
      </trkpt>
      <trkpt lat="41.1598040" lon="-8.5542280">
        <ele>91.0</ele>
        <time>2021-05-15T16:15:18Z</time>
      </trkpt>
      <trkpt lat="41.1597930" lon="-8.5542400">
        <ele>90.8</ele>
        <time>2021-05-15T16:15:19Z</time>
      </trkpt>
      <trkpt lat="41.1597870" lon="-8.5542670">
        <ele>90.6</ele>
        <time>2021-05-15T16:15:20Z</time>
      </trkpt>
      <trkpt lat="41.1597840" lon="-8.5542780">
        <ele>90.5</ele>
        <time>2021-05-15T16:15:21Z</time>
      </trkpt>
      <trkpt lat="41.1597810" lon="-8.5542900">
        <ele>90.4</ele>
        <time>2021-05-15T16:15:22Z</time>
      </trkpt>
      <trkpt lat="41.1597670" lon="-8.5543050">
        <ele>90.2</ele>
        <time>2021-05-15T16:15:23Z</time>
      </trkpt>
      <trkpt lat="41.1597670" lon="-8.5543260">
        <ele>90.0</ele>
        <time>2021-05-15T16:15:24Z</time>
      </trkpt>
      <trkpt lat="41.1597630" lon="-8.5543450">
        <ele>89.9</ele>
        <time>2021-05-15T16:15:25Z</time>
      </trkpt>
      <trkpt lat="41.1597600" lon="-8.5543640">
        <ele>89.7</ele>
        <time>2021-05-15T16:15:26Z</time>
      </trkpt>
      <trkpt lat="41.1597520" lon="-8.5543840">
        <ele>89.6</ele>
        <time>2021-05-15T16:15:27Z</time>
      </trkpt>
      <trkpt lat="41.1597470" lon="-8.5543980">
        <ele>89.4</ele>
        <time>2021-05-15T16:15:28Z</time>
      </trkpt>
      <trkpt lat="41.1597380" lon="-8.5544120">
        <ele>89.3</ele>
        <time>2021-05-15T16:15:29Z</time>
      </trkpt>
      <trkpt lat="41.1597360" lon="-8.5544270">
        <ele>89.2</ele>
        <time>2021-05-15T16:15:30Z</time>
      </trkpt>
      <trkpt lat="41.1597340" lon="-8.5544380">
        <ele>89.1</ele>
        <time>2021-05-15T16:15:31Z</time>
      </trkpt>
      <trkpt lat="41.1597300" lon="-8.5544520">
        <ele>89.0</ele>
        <time>2021-05-15T16:15:32Z</time>
      </trkpt>
      <trkpt lat="41.1597300" lon="-8.5544620">
        <ele>88.9</ele>
        <time>2021-05-15T16:15:33Z</time>
      </trkpt>
      <trkpt lat="41.1597280" lon="-8.5544800">
        <ele>88.8</ele>
        <time>2021-05-15T16:15:34Z</time>
      </trkpt>
      <trkpt lat="41.1597160" lon="-8.5544970">
        <ele>88.6</ele>
        <time>2021-05-15T16:15:35Z</time>
      </trkpt>
      <trkpt lat="41.1597120" lon="-8.5545150">
        <ele>88.4</ele>
        <time>2021-05-15T16:15:36Z</time>
      </trkpt>
      <trkpt lat="41.1597060" lon="-8.5545430">
        <ele>88.2</ele>
        <time>2021-05-15T16:15:37Z</time>
      </trkpt>
      <trkpt lat="41.1597050" lon="-8.5545460">
        <ele>88.2</ele>
        <time>2021-05-15T16:15:38Z</time>
      </trkpt>
      <trkpt lat="41.1597040" lon="-8.5545500">
        <ele>88.2</ele>
        <time>2021-05-15T16:15:39Z</time>
      </trkpt>
      <trkpt lat="41.1597040" lon="-8.5545530">
        <ele>88.1</ele>
        <time>2021-05-15T16:15:40Z</time>
      </trkpt>
      <trkpt lat="41.1597030" lon="-8.5545570">
        <ele>88.1</ele>
        <time>2021-05-15T16:15:41Z</time>
      </trkpt>
      <trkpt lat="41.1597020" lon="-8.5545600">
        <ele>88.1</ele>
        <time>2021-05-15T16:15:42Z</time>
      </trkpt>
      <trkpt lat="41.1597010" lon="-8.5545640">
        <ele>88.0</ele>
        <time>2021-05-15T16:15:43Z</time>
      </trkpt>
      <trkpt lat="41.1596950" lon="-8.5545800">
        <ele>87.9</ele>
        <time>2021-05-15T16:15:44Z</time>
      </trkpt>
      <trkpt lat="41.1596920" lon="-8.5545950">
        <ele>87.8</ele>
        <time>2021-05-15T16:15:45Z</time>
      </trkpt>
      <trkpt lat="41.1596890" lon="-8.5546030">
        <ele>87.8</ele>
        <time>2021-05-15T16:15:46Z</time>
      </trkpt>
      <trkpt lat="41.1596750" lon="-8.5546290">
        <ele>87.5</ele>
        <time>2021-05-15T16:15:47Z</time>
      </trkpt>
      <trkpt lat="41.1596710" lon="-8.5546370">
        <ele>87.5</ele>
        <time>2021-05-15T16:15:48Z</time>
      </trkpt>
      <trkpt lat="41.1596670" lon="-8.5546450">
        <ele>87.4</ele>
        <time>2021-05-15T16:15:49Z</time>
      </trkpt>
      <trkpt lat="41.1596610" lon="-8.5546550">
        <ele>87.3</ele>
        <time>2021-05-15T16:15:50Z</time>
      </trkpt>
      <trkpt lat="41.1596500" lon="-8.5546730">
        <ele>87.2</ele>
        <time>2021-05-15T16:15:51Z</time>
      </trkpt>
      <trkpt lat="41.1596430" lon="-8.5546860">
        <ele>87.0</ele>
        <time>2021-05-15T16:15:52Z</time>
      </trkpt>
      <trkpt lat="41.1596410" lon="-8.5546990">
        <ele>87.0</ele>
        <time>2021-05-15T16:15:53Z</time>
      </trkpt>
      <trkpt lat="41.1596340" lon="-8.5547070">
        <ele>86.9</ele>
        <time>2021-05-15T16:15:54Z</time>
      </trkpt>
      <trkpt lat="41.1596290" lon="-8.5547120">
        <ele>86.8</ele>
        <time>2021-05-15T16:15:55Z</time>
      </trkpt>
      <trkpt lat="41.1596180" lon="-8.5547250">
        <ele>86.7</ele>
        <time>2021-05-15T16:15:56Z</time>
      </trkpt>
      <trkpt lat="41.1596080" lon="-8.5547400">
        <ele>86.6</ele>
        <time>2021-05-15T16:15:57Z</time>
      </trkpt>
      <trkpt lat="41.1595920" lon="-8.5547570">
        <ele>86.4</ele>
        <time>2021-05-15T16:15:58Z</time>
      </trkpt>
      <trkpt lat="41.1595840" lon="-8.5547740">
        <ele>86.3</ele>
        <time>2021-05-15T16:15:59Z</time>
      </trkpt>
      <trkpt lat="41.1595650" lon="-8.5548000">
        <ele>86.1</ele>
        <time>2021-05-15T16:16:00Z</time>
      </trkpt>
      <trkpt lat="41.1595570" lon="-8.5548080">
        <ele>86.0</ele>
        <time>2021-05-15T16:16:01Z</time>
      </trkpt>
      <trkpt lat="41.1595440" lon="-8.5548310">
        <ele>85.9</ele>
        <time>2021-05-15T16:16:02Z</time>
      </trkpt>
      <trkpt lat="41.1595370" lon="-8.5548410">
        <ele>85.8</ele>
        <time>2021-05-15T16:16:03Z</time>
      </trkpt>
      <trkpt lat="41.1595310" lon="-8.5548500">
        <ele>85.8</ele>
        <time>2021-05-15T16:16:04Z</time>
      </trkpt>
      <trkpt lat="41.1595100" lon="-8.5548840">
        <ele>85.9</ele>
        <time>2021-05-15T16:16:05Z</time>
      </trkpt>
      <trkpt lat="41.1595030" lon="-8.5548910">
        <ele>85.9</ele>
        <time>2021-05-15T16:16:06Z</time>
      </trkpt>
      <trkpt lat="41.1594920" lon="-8.5549040">
        <ele>85.9</ele>
        <time>2021-05-15T16:16:07Z</time>
      </trkpt>
      <trkpt lat="41.1594860" lon="-8.5549260">
        <ele>85.9</ele>
        <time>2021-05-15T16:16:08Z</time>
      </trkpt>
      <trkpt lat="41.1594780" lon="-8.5549420">
        <ele>85.9</ele>
        <time>2021-05-15T16:16:09Z</time>
      </trkpt>
      <trkpt lat="41.1594700" lon="-8.5549610">
        <ele>85.9</ele>
        <time>2021-05-15T16:16:10Z</time>
      </trkpt>
      <trkpt lat="41.1594560" lon="-8.5549840">
        <ele>86.0</ele>
        <time>2021-05-15T16:16:11Z</time>
      </trkpt>
      <trkpt lat="41.1594520" lon="-8.5549930">
        <ele>86.0</ele>
        <time>2021-05-15T16:16:12Z</time>
      </trkpt>
      <trkpt lat="41.1594470" lon="-8.5550010">
        <ele>86.0</ele>
        <time>2021-05-15T16:16:13Z</time>
      </trkpt>
      <trkpt lat="41.1594400" lon="-8.5550180">
        <ele>86.0</ele>
        <time>2021-05-15T16:16:14Z</time>
      </trkpt>
      <trkpt lat="41.1594330" lon="-8.5550360">
        <ele>87.3</ele>
        <time>2021-05-15T16:16:15Z</time>
      </trkpt>
      <trkpt lat="41.1594190" lon="-8.5550660">
        <ele>88.2</ele>
        <time>2021-05-15T16:16:16Z</time>
      </trkpt>
      <trkpt lat="41.1594130" lon="-8.5550790">
        <ele>88.0</ele>
        <time>2021-05-15T16:16:17Z</time>
      </trkpt>
      <trkpt lat="41.1594080" lon="-8.5550910">
        <ele>87.8</ele>
        <time>2021-05-15T16:16:18Z</time>
      </trkpt>
      <trkpt lat="41.1593950" lon="-8.5550970">
        <ele>87.5</ele>
        <time>2021-05-15T16:16:19Z</time>
      </trkpt>
      <trkpt lat="41.1593850" lon="-8.5551020">
        <ele>87.3</ele>
        <time>2021-05-15T16:16:20Z</time>
      </trkpt>
      <trkpt lat="41.1593820" lon="-8.5551140">
        <ele>87.2</ele>
        <time>2021-05-15T16:16:21Z</time>
      </trkpt>
      <trkpt lat="41.1593710" lon="-8.5551390">
        <ele>86.7</ele>
        <time>2021-05-15T16:16:22Z</time>
      </trkpt>
      <trkpt lat="41.1593640" lon="-8.5551500">
        <ele>86.5</ele>
        <time>2021-05-15T16:16:23Z</time>
      </trkpt>
      <trkpt lat="41.1593500" lon="-8.5551870">
        <ele>86.0</ele>
        <time>2021-05-15T16:16:24Z</time>
      </trkpt>
      <trkpt lat="41.1593450" lon="-8.5551930">
        <ele>85.8</ele>
        <time>2021-05-15T16:16:25Z</time>
      </trkpt>
      <trkpt lat="41.1593380" lon="-8.5552310">
        <ele>85.3</ele>
        <time>2021-05-15T16:16:26Z</time>
      </trkpt>
      <trkpt lat="41.1593360" lon="-8.5552450">
        <ele>85.1</ele>
        <time>2021-05-15T16:16:27Z</time>
      </trkpt>
      <trkpt lat="41.1593290" lon="-8.5552680">
        <ele>84.7</ele>
        <time>2021-05-15T16:16:28Z</time>
      </trkpt>
      <trkpt lat="41.1593200" lon="-8.5552830">
        <ele>84.5</ele>
        <time>2021-05-15T16:16:29Z</time>
      </trkpt>
      <trkpt lat="41.1593070" lon="-8.5553070">
        <ele>84.4</ele>
        <time>2021-05-15T16:16:30Z</time>
      </trkpt>
      <trkpt lat="41.1593040" lon="-8.5553160">
        <ele>84.4</ele>
        <time>2021-05-15T16:16:31Z</time>
      </trkpt>
      <trkpt lat="41.1593000" lon="-8.5553240">
        <ele>84.3</ele>
        <time>2021-05-15T16:16:32Z</time>
      </trkpt>
      <trkpt lat="41.1592850" lon="-8.5553380">
        <ele>84.3</ele>
        <time>2021-05-15T16:16:33Z</time>
      </trkpt>
      <trkpt lat="41.1592730" lon="-8.5553450">
        <ele>84.3</ele>
        <time>2021-05-15T16:16:34Z</time>
      </trkpt>
      <trkpt lat="41.1592680" lon="-8.5553500">
        <ele>84.3</ele>
        <time>2021-05-15T16:16:35Z</time>
      </trkpt>
      <trkpt lat="41.1592630" lon="-8.5553640">
        <ele>84.2</ele>
        <time>2021-05-15T16:16:36Z</time>
      </trkpt>
      <trkpt lat="41.1592580" lon="-8.5553850">
        <ele>84.2</ele>
        <time>2021-05-15T16:16:37Z</time>
      </trkpt>
      <trkpt lat="41.1592550" lon="-8.5554060">
        <ele>84.2</ele>
        <time>2021-05-15T16:16:38Z</time>
      </trkpt>
      <trkpt lat="41.1592490" lon="-8.5554250">
        <ele>84.1</ele>
        <time>2021-05-15T16:16:39Z</time>
      </trkpt>
      <trkpt lat="41.1592430" lon="-8.5554590">
        <ele>84.1</ele>
        <time>2021-05-15T16:16:40Z</time>
      </trkpt>
      <trkpt lat="41.1592410" lon="-8.5554720">
        <ele>84.1</ele>
        <time>2021-05-15T16:16:41Z</time>
      </trkpt>
      <trkpt lat="41.1592380" lon="-8.5554840">
        <ele>84.1</ele>
        <time>2021-05-15T16:16:42Z</time>
      </trkpt>
      <trkpt lat="41.1592340" lon="-8.5555190">
        <ele>84.0</ele>
        <time>2021-05-15T16:16:43Z</time>
      </trkpt>
      <trkpt lat="41.1592360" lon="-8.5555330">
        <ele>84.0</ele>
        <time>2021-05-15T16:16:44Z</time>
      </trkpt>
      <trkpt lat="41.1592260" lon="-8.5555450">
        <ele>84.0</ele>
        <time>2021-05-15T16:16:45Z</time>
      </trkpt>
      <trkpt lat="41.1592230" lon="-8.5555610">
        <ele>84.0</ele>
        <time>2021-05-15T16:16:46Z</time>
      </trkpt>
      <trkpt lat="41.1592180" lon="-8.5555710">
        <ele>84.0</ele>
        <time>2021-05-15T16:16:47Z</time>
      </trkpt>
      <trkpt lat="41.1592000" lon="-8.5555890">
        <ele>84.0</ele>
        <time>2021-05-15T16:16:48Z</time>
      </trkpt>
      <trkpt lat="41.1591860" lon="-8.5555940">
        <ele>84.0</ele>
        <time>2021-05-15T16:16:49Z</time>
      </trkpt>
      <trkpt lat="41.1591810" lon="-8.5556120">
        <ele>84.0</ele>
        <time>2021-05-15T16:16:50Z</time>
      </trkpt>
      <trkpt lat="41.1591750" lon="-8.5556230">
        <ele>84.0</ele>
        <time>2021-05-15T16:16:51Z</time>
      </trkpt>
      <trkpt lat="41.1591690" lon="-8.5556330">
        <ele>84.0</ele>
        <time>2021-05-15T16:16:52Z</time>
      </trkpt>
      <trkpt lat="41.1591630" lon="-8.5556490">
        <ele>84.0</ele>
        <time>2021-05-15T16:16:53Z</time>
      </trkpt>
      <trkpt lat="41.1591530" lon="-8.5556670">
        <ele>84.0</ele>
        <time>2021-05-15T16:16:54Z</time>
      </trkpt>
      <trkpt lat="41.1591450" lon="-8.5556770">
        <ele>84.0</ele>
        <time>2021-05-15T16:16:55Z</time>
      </trkpt>
      <trkpt lat="41.1591290" lon="-8.5556960">
        <ele>84.0</ele>
        <time>2021-05-15T16:16:56Z</time>
      </trkpt>
      <trkpt lat="41.1591240" lon="-8.5557140">
        <ele>84.0</ele>
        <time>2021-05-15T16:16:57Z</time>
      </trkpt>
      <trkpt lat="41.1591200" lon="-8.5557400">
        <ele>83.9</ele>
        <time>2021-05-15T16:16:58Z</time>
      </trkpt>
      <trkpt lat="41.1591100" lon="-8.5557570">
        <ele>83.9</ele>
        <time>2021-05-15T16:16:59Z</time>
      </trkpt>
      <trkpt lat="41.1590980" lon="-8.5557720">
        <ele>83.9</ele>
        <time>2021-05-15T16:17:00Z</time>
      </trkpt>
      <trkpt lat="41.1590870" lon="-8.5557780">
        <ele>83.9</ele>
        <time>2021-05-15T16:17:01Z</time>
      </trkpt>
      <trkpt lat="41.1590750" lon="-8.5557940">
        <ele>83.9</ele>
        <time>2021-05-15T16:17:02Z</time>
      </trkpt>
      <trkpt lat="41.1590670" lon="-8.5558180">
        <ele>83.9</ele>
        <time>2021-05-15T16:17:03Z</time>
      </trkpt>
      <trkpt lat="41.1590600" lon="-8.5558260">
        <ele>83.9</ele>
        <time>2021-05-15T16:17:04Z</time>
      </trkpt>
      <trkpt lat="41.1590530" lon="-8.5558340">
        <ele>83.9</ele>
        <time>2021-05-15T16:17:05Z</time>
      </trkpt>
      <trkpt lat="41.1590410" lon="-8.5558470">
        <ele>83.9</ele>
        <time>2021-05-15T16:17:06Z</time>
      </trkpt>
      <trkpt lat="41.1590370" lon="-8.5558620">
        <ele>83.9</ele>
        <time>2021-05-15T16:17:07Z</time>
      </trkpt>
      <trkpt lat="41.1590270" lon="-8.5558800">
        <ele>83.9</ele>
        <time>2021-05-15T16:17:08Z</time>
      </trkpt>
      <trkpt lat="41.1590160" lon="-8.5558940">
        <ele>83.9</ele>
        <time>2021-05-15T16:17:09Z</time>
      </trkpt>
      <trkpt lat="41.1590010" lon="-8.5559150">
        <ele>83.9</ele>
        <time>2021-05-15T16:17:10Z</time>
      </trkpt>
      <trkpt lat="41.1589960" lon="-8.5559270">
        <ele>83.9</ele>
        <time>2021-05-15T16:17:11Z</time>
      </trkpt>
      <trkpt lat="41.1589920" lon="-8.5559390">
        <ele>83.9</ele>
        <time>2021-05-15T16:17:12Z</time>
      </trkpt>
      <trkpt lat="41.1589780" lon="-8.5559560">
        <ele>83.9</ele>
        <time>2021-05-15T16:17:13Z</time>
      </trkpt>
      <trkpt lat="41.1589730" lon="-8.5559660">
        <ele>83.9</ele>
        <time>2021-05-15T16:17:14Z</time>
      </trkpt>
      <trkpt lat="41.1589670" lon="-8.5559750">
        <ele>83.9</ele>
        <time>2021-05-15T16:17:15Z</time>
      </trkpt>
      <trkpt lat="41.1589540" lon="-8.5559920">
        <ele>83.9</ele>
        <time>2021-05-15T16:17:16Z</time>
      </trkpt>
      <trkpt lat="41.1589410" lon="-8.5560040">
        <ele>83.9</ele>
        <time>2021-05-15T16:17:17Z</time>
      </trkpt>
      <trkpt lat="41.1589290" lon="-8.5560270">
        <ele>83.9</ele>
        <time>2021-05-15T16:17:18Z</time>
      </trkpt>
      <trkpt lat="41.1589240" lon="-8.5560380">
        <ele>83.9</ele>
        <time>2021-05-15T16:17:19Z</time>
      </trkpt>
      <trkpt lat="41.1589200" lon="-8.5560490">
        <ele>83.9</ele>
        <time>2021-05-15T16:17:20Z</time>
      </trkpt>
      <trkpt lat="41.1589100" lon="-8.5560610">
        <ele>83.9</ele>
        <time>2021-05-15T16:17:21Z</time>
      </trkpt>
      <trkpt lat="41.1589000" lon="-8.5560760">
        <ele>83.9</ele>
        <time>2021-05-15T16:17:22Z</time>
      </trkpt>
      <trkpt lat="41.1588940" lon="-8.5560930">
        <ele>84.0</ele>
        <time>2021-05-15T16:17:23Z</time>
      </trkpt>
      <trkpt lat="41.1588840" lon="-8.5561100">
        <ele>84.0</ele>
        <time>2021-05-15T16:17:24Z</time>
      </trkpt>
      <trkpt lat="41.1588690" lon="-8.5561310">
        <ele>84.0</ele>
        <time>2021-05-15T16:17:25Z</time>
      </trkpt>
      <trkpt lat="41.1588640" lon="-8.5561420">
        <ele>84.0</ele>
        <time>2021-05-15T16:17:26Z</time>
      </trkpt>
      <trkpt lat="41.1588580" lon="-8.5561520">
        <ele>84.0</ele>
        <time>2021-05-15T16:17:27Z</time>
      </trkpt>
      <trkpt lat="41.1588520" lon="-8.5561700">
        <ele>84.0</ele>
        <time>2021-05-15T16:17:28Z</time>
      </trkpt>
      <trkpt lat="41.1588410" lon="-8.5561830">
        <ele>84.0</ele>
        <time>2021-05-15T16:17:29Z</time>
      </trkpt>
      <trkpt lat="41.1588260" lon="-8.5561990">
        <ele>84.0</ele>
        <time>2021-05-15T16:17:30Z</time>
      </trkpt>
      <trkpt lat="41.1588120" lon="-8.5562110">
        <ele>84.0</ele>
        <time>2021-05-15T16:17:31Z</time>
      </trkpt>
      <trkpt lat="41.1588060" lon="-8.5562280">
        <ele>84.0</ele>
        <time>2021-05-15T16:17:32Z</time>
      </trkpt>
      <trkpt lat="41.1587980" lon="-8.5562470">
        <ele>84.1</ele>
        <time>2021-05-15T16:17:33Z</time>
      </trkpt>
      <trkpt lat="41.1587940" lon="-8.5562600">
        <ele>84.1</ele>
        <time>2021-05-15T16:17:34Z</time>
      </trkpt>
      <trkpt lat="41.1587880" lon="-8.5562760">
        <ele>84.1</ele>
        <time>2021-05-15T16:17:35Z</time>
      </trkpt>
      <trkpt lat="41.1587800" lon="-8.5562880">
        <ele>84.1</ele>
        <time>2021-05-15T16:17:36Z</time>
      </trkpt>
      <trkpt lat="41.1587690" lon="-8.5563070">
        <ele>84.1</ele>
        <time>2021-05-15T16:17:37Z</time>
      </trkpt>
      <trkpt lat="41.1587640" lon="-8.5563180">
        <ele>84.1</ele>
        <time>2021-05-15T16:17:38Z</time>
      </trkpt>
      <trkpt lat="41.1587580" lon="-8.5563280">
        <ele>84.1</ele>
        <time>2021-05-15T16:17:39Z</time>
      </trkpt>
      <trkpt lat="41.1587450" lon="-8.5563500">
        <ele>84.1</ele>
        <time>2021-05-15T16:17:40Z</time>
      </trkpt>
      <trkpt lat="41.1587400" lon="-8.5563600">
        <ele>84.1</ele>
        <time>2021-05-15T16:17:41Z</time>
      </trkpt>
      <trkpt lat="41.1587360" lon="-8.5563690">
        <ele>84.1</ele>
        <time>2021-05-15T16:17:42Z</time>
      </trkpt>
      <trkpt lat="41.1587360" lon="-8.5563790">
        <ele>84.1</ele>
        <time>2021-05-15T16:17:43Z</time>
      </trkpt>
      <trkpt lat="41.1587300" lon="-8.5563960">
        <ele>84.2</ele>
        <time>2021-05-15T16:17:44Z</time>
      </trkpt>
      <trkpt lat="41.1587230" lon="-8.5564070">
        <ele>84.2</ele>
        <time>2021-05-15T16:17:45Z</time>
      </trkpt>
      <trkpt lat="41.1587080" lon="-8.5564210">
        <ele>84.2</ele>
        <time>2021-05-15T16:17:46Z</time>
      </trkpt>
      <trkpt lat="41.1587000" lon="-8.5564320">
        <ele>84.2</ele>
        <time>2021-05-15T16:17:47Z</time>
      </trkpt>
      <trkpt lat="41.1586930" lon="-8.5564380">
        <ele>84.2</ele>
        <time>2021-05-15T16:17:48Z</time>
      </trkpt>
      <trkpt lat="41.1586820" lon="-8.5564560">
        <ele>84.2</ele>
        <time>2021-05-15T16:17:49Z</time>
      </trkpt>
      <trkpt lat="41.1586780" lon="-8.5564630">
        <ele>84.2</ele>
        <time>2021-05-15T16:17:50Z</time>
      </trkpt>
      <trkpt lat="41.1586680" lon="-8.5564810">
        <ele>84.3</ele>
        <time>2021-05-15T16:17:51Z</time>
      </trkpt>
      <trkpt lat="41.1586610" lon="-8.5565010">
        <ele>84.3</ele>
        <time>2021-05-15T16:17:52Z</time>
      </trkpt>
      <trkpt lat="41.1586570" lon="-8.5565210">
        <ele>84.3</ele>
        <time>2021-05-15T16:17:53Z</time>
      </trkpt>
      <trkpt lat="41.1586510" lon="-8.5565350">
        <ele>84.3</ele>
        <time>2021-05-15T16:17:54Z</time>
      </trkpt>
      <trkpt lat="41.1586350" lon="-8.5565620">
        <ele>84.4</ele>
        <time>2021-05-15T16:17:55Z</time>
      </trkpt>
      <trkpt lat="41.1586290" lon="-8.5565740">
        <ele>84.4</ele>
        <time>2021-05-15T16:17:56Z</time>
      </trkpt>
      <trkpt lat="41.1586220" lon="-8.5565850">
        <ele>84.4</ele>
        <time>2021-05-15T16:17:57Z</time>
      </trkpt>
      <trkpt lat="41.1586130" lon="-8.5565950">
        <ele>84.4</ele>
        <time>2021-05-15T16:17:58Z</time>
      </trkpt>
      <trkpt lat="41.1586020" lon="-8.5566160">
        <ele>84.5</ele>
        <time>2021-05-15T16:17:59Z</time>
      </trkpt>
      <trkpt lat="41.1585940" lon="-8.5566330">
        <ele>84.5</ele>
        <time>2021-05-15T16:18:00Z</time>
      </trkpt>
      <trkpt lat="41.1585880" lon="-8.5566540">
        <ele>84.6</ele>
        <time>2021-05-15T16:18:01Z</time>
      </trkpt>
      <trkpt lat="41.1585800" lon="-8.5566780">
        <ele>84.6</ele>
        <time>2021-05-15T16:18:02Z</time>
      </trkpt>
      <trkpt lat="41.1585740" lon="-8.5566890">
        <ele>84.6</ele>
        <time>2021-05-15T16:18:03Z</time>
      </trkpt>
      <trkpt lat="41.1585690" lon="-8.5567000">
        <ele>84.6</ele>
        <time>2021-05-15T16:18:04Z</time>
      </trkpt>
      <trkpt lat="41.1585510" lon="-8.5567250">
        <ele>84.7</ele>
        <time>2021-05-15T16:18:05Z</time>
      </trkpt>
      <trkpt lat="41.1585390" lon="-8.5567340">
        <ele>84.7</ele>
        <time>2021-05-15T16:18:06Z</time>
      </trkpt>
      <trkpt lat="41.1585250" lon="-8.5567390">
        <ele>84.8</ele>
        <time>2021-05-15T16:18:07Z</time>
      </trkpt>
      <trkpt lat="41.1585140" lon="-8.5567530">
        <ele>84.8</ele>
        <time>2021-05-15T16:18:08Z</time>
      </trkpt>
      <trkpt lat="41.1585040" lon="-8.5567710">
        <ele>84.8</ele>
        <time>2021-05-15T16:18:09Z</time>
      </trkpt>
      <trkpt lat="41.1584970" lon="-8.5567900">
        <ele>84.9</ele>
        <time>2021-05-15T16:18:10Z</time>
      </trkpt>
      <trkpt lat="41.1584770" lon="-8.5568200">
        <ele>84.9</ele>
        <time>2021-05-15T16:18:11Z</time>
      </trkpt>
      <trkpt lat="41.1584720" lon="-8.5568310">
        <ele>85.0</ele>
        <time>2021-05-15T16:18:12Z</time>
      </trkpt>
      <trkpt lat="41.1584620" lon="-8.5568460">
        <ele>85.0</ele>
        <time>2021-05-15T16:18:13Z</time>
      </trkpt>
      <trkpt lat="41.1584550" lon="-8.5568680">
        <ele>85.0</ele>
        <time>2021-05-15T16:18:14Z</time>
      </trkpt>
      <trkpt lat="41.1584490" lon="-8.5568880">
        <ele>85.1</ele>
        <time>2021-05-15T16:18:15Z</time>
      </trkpt>
      <trkpt lat="41.1584350" lon="-8.5569040">
        <ele>85.1</ele>
        <time>2021-05-15T16:18:16Z</time>
      </trkpt>
      <trkpt lat="41.1584240" lon="-8.5569220">
        <ele>85.1</ele>
        <time>2021-05-15T16:18:17Z</time>
      </trkpt>
      <trkpt lat="41.1584100" lon="-8.5569370">
        <ele>85.2</ele>
        <time>2021-05-15T16:18:18Z</time>
      </trkpt>
      <trkpt lat="41.1584040" lon="-8.5569560">
        <ele>85.2</ele>
        <time>2021-05-15T16:18:19Z</time>
      </trkpt>
      <trkpt lat="41.1583930" lon="-8.5569710">
        <ele>85.2</ele>
        <time>2021-05-15T16:18:20Z</time>
      </trkpt>
      <trkpt lat="41.1583820" lon="-8.5569960">
        <ele>85.3</ele>
        <time>2021-05-15T16:18:21Z</time>
      </trkpt>
      <trkpt lat="41.1583790" lon="-8.5570060">
        <ele>85.3</ele>
        <time>2021-05-15T16:18:22Z</time>
      </trkpt>
      <trkpt lat="41.1583750" lon="-8.5570150">
        <ele>85.3</ele>
        <time>2021-05-15T16:18:23Z</time>
      </trkpt>
      <trkpt lat="41.1583630" lon="-8.5570220">
        <ele>85.3</ele>
        <time>2021-05-15T16:18:24Z</time>
      </trkpt>
      <trkpt lat="41.1583580" lon="-8.5570290">
        <ele>85.3</ele>
        <time>2021-05-15T16:18:25Z</time>
      </trkpt>
      <trkpt lat="41.1583530" lon="-8.5570500">
        <ele>85.4</ele>
        <time>2021-05-15T16:18:26Z</time>
      </trkpt>
      <trkpt lat="41.1583380" lon="-8.5570600">
        <ele>85.4</ele>
        <time>2021-05-15T16:18:27Z</time>
      </trkpt>
      <trkpt lat="41.1583370" lon="-8.5570730">
        <ele>85.4</ele>
        <time>2021-05-15T16:18:28Z</time>
      </trkpt>
      <trkpt lat="41.1583300" lon="-8.5570870">
        <ele>85.4</ele>
        <time>2021-05-15T16:18:29Z</time>
      </trkpt>
      <trkpt lat="41.1583200" lon="-8.5571100">
        <ele>85.4</ele>
        <time>2021-05-15T16:18:30Z</time>
      </trkpt>
      <trkpt lat="41.1583100" lon="-8.5571180">
        <ele>85.4</ele>
        <time>2021-05-15T16:18:31Z</time>
      </trkpt>
      <trkpt lat="41.1583010" lon="-8.5571270">
        <ele>85.4</ele>
        <time>2021-05-15T16:18:32Z</time>
      </trkpt>
      <trkpt lat="41.1582920" lon="-8.5571490">
        <ele>85.5</ele>
        <time>2021-05-15T16:18:33Z</time>
      </trkpt>
      <trkpt lat="41.1582860" lon="-8.5571610">
        <ele>85.5</ele>
        <time>2021-05-15T16:18:34Z</time>
      </trkpt>
      <trkpt lat="41.1582800" lon="-8.5571720">
        <ele>85.5</ele>
        <time>2021-05-15T16:18:35Z</time>
      </trkpt>
      <trkpt lat="41.1582750" lon="-8.5571920">
        <ele>85.5</ele>
        <time>2021-05-15T16:18:36Z</time>
      </trkpt>
      <trkpt lat="41.1582730" lon="-8.5572080">
        <ele>85.5</ele>
        <time>2021-05-15T16:18:37Z</time>
      </trkpt>
      <trkpt lat="41.1582620" lon="-8.5572320">
        <ele>85.5</ele>
        <time>2021-05-15T16:18:38Z</time>
      </trkpt>
      <trkpt lat="41.1582560" lon="-8.5572410">
        <ele>85.5</ele>
        <time>2021-05-15T16:18:39Z</time>
      </trkpt>
      <trkpt lat="41.1582500" lon="-8.5572500">
        <ele>85.6</ele>
        <time>2021-05-15T16:18:40Z</time>
      </trkpt>
      <trkpt lat="41.1582410" lon="-8.5572650">
        <ele>85.6</ele>
        <time>2021-05-15T16:18:41Z</time>
      </trkpt>
      <trkpt lat="41.1582330" lon="-8.5572800">
        <ele>85.6</ele>
        <time>2021-05-15T16:18:42Z</time>
      </trkpt>
      <trkpt lat="41.1582200" lon="-8.5573020">
        <ele>85.6</ele>
        <time>2021-05-15T16:18:43Z</time>
      </trkpt>
      <trkpt lat="41.1582130" lon="-8.5573110">
        <ele>85.6</ele>
        <time>2021-05-15T16:18:44Z</time>
      </trkpt>
      <trkpt lat="41.1582060" lon="-8.5573200">
        <ele>85.6</ele>
        <time>2021-05-15T16:18:45Z</time>
      </trkpt>
      <trkpt lat="41.1581890" lon="-8.5573490">
        <ele>85.6</ele>
        <time>2021-05-15T16:18:46Z</time>
      </trkpt>
      <trkpt lat="41.1581830" lon="-8.5573620">
        <ele>85.6</ele>
        <time>2021-05-15T16:18:47Z</time>
      </trkpt>
      <trkpt lat="41.1581760" lon="-8.5573750">
        <ele>85.6</ele>
        <time>2021-05-15T16:18:48Z</time>
      </trkpt>
      <trkpt lat="41.1581680" lon="-8.5573940">
        <ele>85.6</ele>
        <time>2021-05-15T16:18:49Z</time>
      </trkpt>
      <trkpt lat="41.1581680" lon="-8.5574130">
        <ele>85.6</ele>
        <time>2021-05-15T16:18:50Z</time>
      </trkpt>
      <trkpt lat="41.1581550" lon="-8.5574320">
        <ele>85.6</ele>
        <time>2021-05-15T16:18:51Z</time>
      </trkpt>
      <trkpt lat="41.1581440" lon="-8.5574480">
        <ele>85.6</ele>
        <time>2021-05-15T16:18:52Z</time>
      </trkpt>
      <trkpt lat="41.1581340" lon="-8.5574670">
        <ele>85.6</ele>
        <time>2021-05-15T16:18:53Z</time>
      </trkpt>
      <trkpt lat="41.1581290" lon="-8.5574860">
        <ele>85.6</ele>
        <time>2021-05-15T16:18:54Z</time>
      </trkpt>
      <trkpt lat="41.1581210" lon="-8.5575070">
        <ele>85.6</ele>
        <time>2021-05-15T16:18:55Z</time>
      </trkpt>
      <trkpt lat="41.1581110" lon="-8.5575210">
        <ele>85.6</ele>
        <time>2021-05-15T16:18:56Z</time>
      </trkpt>
      <trkpt lat="41.1581030" lon="-8.5575380">
        <ele>85.6</ele>
        <time>2021-05-15T16:18:57Z</time>
      </trkpt>
      <trkpt lat="41.1580940" lon="-8.5575510">
        <ele>85.6</ele>
        <time>2021-05-15T16:18:58Z</time>
      </trkpt>
      <trkpt lat="41.1580830" lon="-8.5575640">
        <ele>85.6</ele>
        <time>2021-05-15T16:18:59Z</time>
      </trkpt>
      <trkpt lat="41.1580760" lon="-8.5575770">
        <ele>85.6</ele>
        <time>2021-05-15T16:19:00Z</time>
      </trkpt>
      <trkpt lat="41.1580640" lon="-8.5575850">
        <ele>85.6</ele>
        <time>2021-05-15T16:19:01Z</time>
      </trkpt>
      <trkpt lat="41.1580570" lon="-8.5575950">
        <ele>85.6</ele>
        <time>2021-05-15T16:19:02Z</time>
      </trkpt>
      <trkpt lat="41.1580420" lon="-8.5576110">
        <ele>85.6</ele>
        <time>2021-05-15T16:19:03Z</time>
      </trkpt>
      <trkpt lat="41.1580410" lon="-8.5576250">
        <ele>85.6</ele>
        <time>2021-05-15T16:19:04Z</time>
      </trkpt>
      <trkpt lat="41.1580320" lon="-8.5576410">
        <ele>85.6</ele>
        <time>2021-05-15T16:19:05Z</time>
      </trkpt>
      <trkpt lat="41.1580230" lon="-8.5576530">
        <ele>85.6</ele>
        <time>2021-05-15T16:19:06Z</time>
      </trkpt>
      <trkpt lat="41.1580120" lon="-8.5576720">
        <ele>85.5</ele>
        <time>2021-05-15T16:19:07Z</time>
      </trkpt>
      <trkpt lat="41.1580060" lon="-8.5576820">
        <ele>85.5</ele>
        <time>2021-05-15T16:19:08Z</time>
      </trkpt>
      <trkpt lat="41.1579860" lon="-8.5577030">
        <ele>85.5</ele>
        <time>2021-05-15T16:19:09Z</time>
      </trkpt>
      <trkpt lat="41.1579780" lon="-8.5577110">
        <ele>85.4</ele>
        <time>2021-05-15T16:19:10Z</time>
      </trkpt>
      <trkpt lat="41.1579700" lon="-8.5577190">
        <ele>85.4</ele>
        <time>2021-05-15T16:19:11Z</time>
      </trkpt>
      <trkpt lat="41.1579650" lon="-8.5577310">
        <ele>85.4</ele>
        <time>2021-05-15T16:19:12Z</time>
      </trkpt>
      <trkpt lat="41.1579490" lon="-8.5577470">
        <ele>85.4</ele>
        <time>2021-05-15T16:19:13Z</time>
      </trkpt>
      <trkpt lat="41.1579400" lon="-8.5577620">
        <ele>85.3</ele>
        <time>2021-05-15T16:19:14Z</time>
      </trkpt>
      <trkpt lat="41.1579290" lon="-8.5577800">
        <ele>85.3</ele>
        <time>2021-05-15T16:19:15Z</time>
      </trkpt>
      <trkpt lat="41.1579160" lon="-8.5578040">
        <ele>85.3</ele>
        <time>2021-05-15T16:19:16Z</time>
      </trkpt>
      <trkpt lat="41.1579110" lon="-8.5578140">
        <ele>85.2</ele>
        <time>2021-05-15T16:19:17Z</time>
      </trkpt>
      <trkpt lat="41.1579060" lon="-8.5578230">
        <ele>85.2</ele>
        <time>2021-05-15T16:19:18Z</time>
      </trkpt>
      <trkpt lat="41.1578820" lon="-8.5578390">
        <ele>85.2</ele>
        <time>2021-05-15T16:19:19Z</time>
      </trkpt>
      <trkpt lat="41.1578730" lon="-8.5578440">
        <ele>85.1</ele>
        <time>2021-05-15T16:19:20Z</time>
      </trkpt>
      <trkpt lat="41.1578590" lon="-8.5578550">
        <ele>85.1</ele>
        <time>2021-05-15T16:19:21Z</time>
      </trkpt>
      <trkpt lat="41.1578450" lon="-8.5578760">
        <ele>85.1</ele>
        <time>2021-05-15T16:19:22Z</time>
      </trkpt>
      <trkpt lat="41.1578330" lon="-8.5578880">
        <ele>85.0</ele>
        <time>2021-05-15T16:19:23Z</time>
      </trkpt>
      <trkpt lat="41.1578190" lon="-8.5579030">
        <ele>85.0</ele>
        <time>2021-05-15T16:19:24Z</time>
      </trkpt>
      <trkpt lat="41.1577990" lon="-8.5579200">
        <ele>84.9</ele>
        <time>2021-05-15T16:19:25Z</time>
      </trkpt>
      <trkpt lat="41.1577930" lon="-8.5579280">
        <ele>84.9</ele>
        <time>2021-05-15T16:19:26Z</time>
      </trkpt>
      <trkpt lat="41.1577870" lon="-8.5579360">
        <ele>84.9</ele>
        <time>2021-05-15T16:19:27Z</time>
      </trkpt>
      <trkpt lat="41.1577720" lon="-8.5579450">
        <ele>84.8</ele>
        <time>2021-05-15T16:19:28Z</time>
      </trkpt>
      <trkpt lat="41.1577670" lon="-8.5579600">
        <ele>84.8</ele>
        <time>2021-05-15T16:19:29Z</time>
      </trkpt>
      <trkpt lat="41.1577470" lon="-8.5579760">
        <ele>84.7</ele>
        <time>2021-05-15T16:19:30Z</time>
      </trkpt>
      <trkpt lat="41.1577380" lon="-8.5579870">
        <ele>84.7</ele>
        <time>2021-05-15T16:19:31Z</time>
      </trkpt>
      <trkpt lat="41.1577220" lon="-8.5579930">
        <ele>84.6</ele>
        <time>2021-05-15T16:19:32Z</time>
      </trkpt>
      <trkpt lat="41.1577060" lon="-8.5580010">
        <ele>84.6</ele>
        <time>2021-05-15T16:19:33Z</time>
      </trkpt>
      <trkpt lat="41.1576960" lon="-8.5580160">
        <ele>84.5</ele>
        <time>2021-05-15T16:19:34Z</time>
      </trkpt>
      <trkpt lat="41.1576810" lon="-8.5580210">
        <ele>84.5</ele>
        <time>2021-05-15T16:19:35Z</time>
      </trkpt>
      <trkpt lat="41.1576690" lon="-8.5580340">
        <ele>84.4</ele>
        <time>2021-05-15T16:19:36Z</time>
      </trkpt>
      <trkpt lat="41.1576590" lon="-8.5580420">
        <ele>84.4</ele>
        <time>2021-05-15T16:19:37Z</time>
      </trkpt>
      <trkpt lat="41.1576500" lon="-8.5580460">
        <ele>84.4</ele>
        <time>2021-05-15T16:19:38Z</time>
      </trkpt>
      <trkpt lat="41.1576320" lon="-8.5580560">
        <ele>84.3</ele>
        <time>2021-05-15T16:19:39Z</time>
      </trkpt>
      <trkpt lat="41.1576240" lon="-8.5580620">
        <ele>84.3</ele>
        <time>2021-05-15T16:19:40Z</time>
      </trkpt>
      <trkpt lat="41.1576040" lon="-8.5580730">
        <ele>84.2</ele>
        <time>2021-05-15T16:19:41Z</time>
      </trkpt>
      <trkpt lat="41.1575940" lon="-8.5580920">
        <ele>84.2</ele>
        <time>2021-05-15T16:19:42Z</time>
      </trkpt>
      <trkpt lat="41.1575790" lon="-8.5580980">
        <ele>84.1</ele>
        <time>2021-05-15T16:19:43Z</time>
      </trkpt>
      <trkpt lat="41.1575760" lon="-8.5581080">
        <ele>84.1</ele>
        <time>2021-05-15T16:19:44Z</time>
      </trkpt>
      <trkpt lat="41.1575550" lon="-8.5581160">
        <ele>84.0</ele>
        <time>2021-05-15T16:19:45Z</time>
      </trkpt>
      <trkpt lat="41.1575330" lon="-8.5581260">
        <ele>83.9</ele>
        <time>2021-05-15T16:19:46Z</time>
      </trkpt>
      <trkpt lat="41.1575250" lon="-8.5581290">
        <ele>83.9</ele>
        <time>2021-05-15T16:19:47Z</time>
      </trkpt>
      <trkpt lat="41.1575160" lon="-8.5581320">
        <ele>83.9</ele>
        <time>2021-05-15T16:19:48Z</time>
      </trkpt>
      <trkpt lat="41.1575030" lon="-8.5581390">
        <ele>83.8</ele>
        <time>2021-05-15T16:19:49Z</time>
      </trkpt>
      <trkpt lat="41.1574910" lon="-8.5581510">
        <ele>83.8</ele>
        <time>2021-05-15T16:19:50Z</time>
      </trkpt>
      <trkpt lat="41.1574800" lon="-8.5581640">
        <ele>83.7</ele>
        <time>2021-05-15T16:19:51Z</time>
      </trkpt>
      <trkpt lat="41.1574630" lon="-8.5581700">
        <ele>83.7</ele>
        <time>2021-05-15T16:19:52Z</time>
      </trkpt>
      <trkpt lat="41.1574490" lon="-8.5581880">
        <ele>83.6</ele>
        <time>2021-05-15T16:19:53Z</time>
      </trkpt>
      <trkpt lat="41.1574410" lon="-8.5581950">
        <ele>83.6</ele>
        <time>2021-05-15T16:19:54Z</time>
      </trkpt>
      <trkpt lat="41.1574320" lon="-8.5582020">
        <ele>83.5</ele>
        <time>2021-05-15T16:19:55Z</time>
      </trkpt>
      <trkpt lat="41.1574080" lon="-8.5582240">
        <ele>83.4</ele>
        <time>2021-05-15T16:19:56Z</time>
      </trkpt>
      <trkpt lat="41.1573980" lon="-8.5582350">
        <ele>83.4</ele>
        <time>2021-05-15T16:19:57Z</time>
      </trkpt>
      <trkpt lat="41.1573810" lon="-8.5582420">
        <ele>83.3</ele>
        <time>2021-05-15T16:19:58Z</time>
      </trkpt>
      <trkpt lat="41.1573680" lon="-8.5582600">
        <ele>83.3</ele>
        <time>2021-05-15T16:19:59Z</time>
      </trkpt>
      <trkpt lat="41.1573560" lon="-8.5582740">
        <ele>83.2</ele>
        <time>2021-05-15T16:20:00Z</time>
      </trkpt>
      <trkpt lat="41.1573440" lon="-8.5582810">
        <ele>83.1</ele>
        <time>2021-05-15T16:20:01Z</time>
      </trkpt>
      <trkpt lat="41.1573290" lon="-8.5582820">
        <ele>83.0</ele>
        <time>2021-05-15T16:20:02Z</time>
      </trkpt>
      <trkpt lat="41.1573170" lon="-8.5582960">
        <ele>82.9</ele>
        <time>2021-05-15T16:20:03Z</time>
      </trkpt>
      <trkpt lat="41.1573090" lon="-8.5583020">
        <ele>82.9</ele>
        <time>2021-05-15T16:20:04Z</time>
      </trkpt>
      <trkpt lat="41.1572950" lon="-8.5583090">
        <ele>82.8</ele>
        <time>2021-05-15T16:20:05Z</time>
      </trkpt>
      <trkpt lat="41.1572860" lon="-8.5583160">
        <ele>82.7</ele>
        <time>2021-05-15T16:20:06Z</time>
      </trkpt>
      <trkpt lat="41.1572750" lon="-8.5583280">
        <ele>82.7</ele>
        <time>2021-05-15T16:20:07Z</time>
      </trkpt>
      <trkpt lat="41.1572640" lon="-8.5583380">
        <ele>82.6</ele>
        <time>2021-05-15T16:20:08Z</time>
      </trkpt>
      <trkpt lat="41.1572430" lon="-8.5583510">
        <ele>82.5</ele>
        <time>2021-05-15T16:20:09Z</time>
      </trkpt>
      <trkpt lat="41.1572340" lon="-8.5583550">
        <ele>82.4</ele>
        <time>2021-05-15T16:20:10Z</time>
      </trkpt>
      <trkpt lat="41.1572250" lon="-8.5583590">
        <ele>82.4</ele>
        <time>2021-05-15T16:20:11Z</time>
      </trkpt>
      <trkpt lat="41.1572070" lon="-8.5583660">
        <ele>82.3</ele>
        <time>2021-05-15T16:20:12Z</time>
      </trkpt>
      <trkpt lat="41.1571960" lon="-8.5583730">
        <ele>82.2</ele>
        <time>2021-05-15T16:20:13Z</time>
      </trkpt>
      <trkpt lat="41.1571860" lon="-8.5583800">
        <ele>82.1</ele>
        <time>2021-05-15T16:20:14Z</time>
      </trkpt>
      <trkpt lat="41.1571660" lon="-8.5584060">
        <ele>82.0</ele>
        <time>2021-05-15T16:20:15Z</time>
      </trkpt>
      <trkpt lat="41.1571580" lon="-8.5584120">
        <ele>81.9</ele>
        <time>2021-05-15T16:20:16Z</time>
      </trkpt>
      <trkpt lat="41.1571450" lon="-8.5584210">
        <ele>81.9</ele>
        <time>2021-05-15T16:20:17Z</time>
      </trkpt>
      <trkpt lat="41.1571310" lon="-8.5584280">
        <ele>81.8</ele>
        <time>2021-05-15T16:20:18Z</time>
      </trkpt>
      <trkpt lat="41.1571160" lon="-8.5584370">
        <ele>81.7</ele>
        <time>2021-05-15T16:20:19Z</time>
      </trkpt>
      <trkpt lat="41.1571050" lon="-8.5584490">
        <ele>81.7</ele>
        <time>2021-05-15T16:20:20Z</time>
      </trkpt>
      <trkpt lat="41.1570900" lon="-8.5584580">
        <ele>81.6</ele>
        <time>2021-05-15T16:20:21Z</time>
      </trkpt>
      <trkpt lat="41.1570790" lon="-8.5584730">
        <ele>81.6</ele>
        <time>2021-05-15T16:20:22Z</time>
      </trkpt>
      <trkpt lat="41.1570680" lon="-8.5584830">
        <ele>81.5</ele>
        <time>2021-05-15T16:20:23Z</time>
      </trkpt>
      <trkpt lat="41.1570550" lon="-8.5584870">
        <ele>81.4</ele>
        <time>2021-05-15T16:20:24Z</time>
      </trkpt>
      <trkpt lat="41.1570420" lon="-8.5585030">
        <ele>81.4</ele>
        <time>2021-05-15T16:20:25Z</time>
      </trkpt>
      <trkpt lat="41.1570280" lon="-8.5585100">
        <ele>81.3</ele>
        <time>2021-05-15T16:20:26Z</time>
      </trkpt>
      <trkpt lat="41.1570150" lon="-8.5585230">
        <ele>81.3</ele>
        <time>2021-05-15T16:20:27Z</time>
      </trkpt>
      <trkpt lat="41.1570020" lon="-8.5585310">
        <ele>81.2</ele>
        <time>2021-05-15T16:20:28Z</time>
      </trkpt>
      <trkpt lat="41.1569850" lon="-8.5585380">
        <ele>81.1</ele>
        <time>2021-05-15T16:20:29Z</time>
      </trkpt>
      <trkpt lat="41.1569730" lon="-8.5585470">
        <ele>81.1</ele>
        <time>2021-05-15T16:20:30Z</time>
      </trkpt>
      <trkpt lat="41.1569590" lon="-8.5585550">
        <ele>81.0</ele>
        <time>2021-05-15T16:20:31Z</time>
      </trkpt>
      <trkpt lat="41.1569440" lon="-8.5585600">
        <ele>81.0</ele>
        <time>2021-05-15T16:20:32Z</time>
      </trkpt>
      <trkpt lat="41.1569240" lon="-8.5585730">
        <ele>80.9</ele>
        <time>2021-05-15T16:20:33Z</time>
      </trkpt>
      <trkpt lat="41.1569150" lon="-8.5585790">
        <ele>80.8</ele>
        <time>2021-05-15T16:20:34Z</time>
      </trkpt>
      <trkpt lat="41.1569060" lon="-8.5585850">
        <ele>80.8</ele>
        <time>2021-05-15T16:20:35Z</time>
      </trkpt>
      <trkpt lat="41.1568910" lon="-8.5585960">
        <ele>80.7</ele>
        <time>2021-05-15T16:20:36Z</time>
      </trkpt>
      <trkpt lat="41.1568780" lon="-8.5586080">
        <ele>80.7</ele>
        <time>2021-05-15T16:20:37Z</time>
      </trkpt>
      <trkpt lat="41.1568630" lon="-8.5586170">
        <ele>80.6</ele>
        <time>2021-05-15T16:20:38Z</time>
      </trkpt>
      <trkpt lat="41.1568470" lon="-8.5586270">
        <ele>80.5</ele>
        <time>2021-05-15T16:20:39Z</time>
      </trkpt>
      <trkpt lat="41.1568330" lon="-8.5586370">
        <ele>80.5</ele>
        <time>2021-05-15T16:20:40Z</time>
      </trkpt>
      <trkpt lat="41.1568170" lon="-8.5586490">
        <ele>80.4</ele>
        <time>2021-05-15T16:20:41Z</time>
      </trkpt>
      <trkpt lat="41.1568030" lon="-8.5586540">
        <ele>80.4</ele>
        <time>2021-05-15T16:20:42Z</time>
      </trkpt>
      <trkpt lat="41.1567870" lon="-8.5586650">
        <ele>80.3</ele>
        <time>2021-05-15T16:20:43Z</time>
      </trkpt>
      <trkpt lat="41.1567740" lon="-8.5586720">
        <ele>80.3</ele>
        <time>2021-05-15T16:20:44Z</time>
      </trkpt>
      <trkpt lat="41.1567580" lon="-8.5586750">
        <ele>80.2</ele>
        <time>2021-05-15T16:20:45Z</time>
      </trkpt>
      <trkpt lat="41.1567460" lon="-8.5586830">
        <ele>80.2</ele>
        <time>2021-05-15T16:20:46Z</time>
      </trkpt>
      <trkpt lat="41.1567310" lon="-8.5586910">
        <ele>80.1</ele>
        <time>2021-05-15T16:20:47Z</time>
      </trkpt>
      <trkpt lat="41.1567180" lon="-8.5586990">
        <ele>80.1</ele>
        <time>2021-05-15T16:20:48Z</time>
      </trkpt>
      <trkpt lat="41.1567060" lon="-8.5587120">
        <ele>80.0</ele>
        <time>2021-05-15T16:20:49Z</time>
      </trkpt>
      <trkpt lat="41.1566910" lon="-8.5587250">
        <ele>80.0</ele>
        <time>2021-05-15T16:20:50Z</time>
      </trkpt>
      <trkpt lat="41.1566790" lon="-8.5587310">
        <ele>79.9</ele>
        <time>2021-05-15T16:20:51Z</time>
      </trkpt>
      <trkpt lat="41.1566570" lon="-8.5587220">
        <ele>79.9</ele>
        <time>2021-05-15T16:20:52Z</time>
      </trkpt>
      <trkpt lat="41.1566490" lon="-8.5587220">
        <ele>79.9</ele>
        <time>2021-05-15T16:20:53Z</time>
      </trkpt>
      <trkpt lat="41.1566410" lon="-8.5587230">
        <ele>79.9</ele>
        <time>2021-05-15T16:20:54Z</time>
      </trkpt>
      <trkpt lat="41.1566300" lon="-8.5587340">
        <ele>79.9</ele>
        <time>2021-05-15T16:20:55Z</time>
      </trkpt>
      <trkpt lat="41.1566170" lon="-8.5587400">
        <ele>79.8</ele>
        <time>2021-05-15T16:20:56Z</time>
      </trkpt>
      <trkpt lat="41.1565960" lon="-8.5587490">
        <ele>79.8</ele>
        <time>2021-05-15T16:20:57Z</time>
      </trkpt>
      <trkpt lat="41.1565880" lon="-8.5587530">
        <ele>79.8</ele>
        <time>2021-05-15T16:20:58Z</time>
      </trkpt>
      <trkpt lat="41.1565800" lon="-8.5587570">
        <ele>79.8</ele>
        <time>2021-05-15T16:20:59Z</time>
      </trkpt>
      <trkpt lat="41.1565680" lon="-8.5587630">
        <ele>79.8</ele>
        <time>2021-05-15T16:21:00Z</time>
      </trkpt>
      <trkpt lat="41.1565580" lon="-8.5587660">
        <ele>79.8</ele>
        <time>2021-05-15T16:21:01Z</time>
      </trkpt>
      <trkpt lat="41.1565470" lon="-8.5587670">
        <ele>79.7</ele>
        <time>2021-05-15T16:21:02Z</time>
      </trkpt>
      <trkpt lat="41.1565310" lon="-8.5587730">
        <ele>79.7</ele>
        <time>2021-05-15T16:21:03Z</time>
      </trkpt>
      <trkpt lat="41.1565210" lon="-8.5587800">
        <ele>79.7</ele>
        <time>2021-05-15T16:21:04Z</time>
      </trkpt>
      <trkpt lat="41.1565090" lon="-8.5587900">
        <ele>79.6</ele>
        <time>2021-05-15T16:21:05Z</time>
      </trkpt>
      <trkpt lat="41.1564950" lon="-8.5587910">
        <ele>79.6</ele>
        <time>2021-05-15T16:21:06Z</time>
      </trkpt>
      <trkpt lat="41.1564840" lon="-8.5588010">
        <ele>79.6</ele>
        <time>2021-05-15T16:21:07Z</time>
      </trkpt>
      <trkpt lat="41.1564700" lon="-8.5588070">
        <ele>79.5</ele>
        <time>2021-05-15T16:21:08Z</time>
      </trkpt>
      <trkpt lat="41.1564530" lon="-8.5588150">
        <ele>79.5</ele>
        <time>2021-05-15T16:21:09Z</time>
      </trkpt>
      <trkpt lat="41.1564440" lon="-8.5588270">
        <ele>79.5</ele>
        <time>2021-05-15T16:21:10Z</time>
      </trkpt>
      <trkpt lat="41.1564310" lon="-8.5588320">
        <ele>79.4</ele>
        <time>2021-05-15T16:21:11Z</time>
      </trkpt>
      <trkpt lat="41.1564150" lon="-8.5588410">
        <ele>79.4</ele>
        <time>2021-05-15T16:21:12Z</time>
      </trkpt>
      <trkpt lat="41.1563960" lon="-8.5588460">
        <ele>79.3</ele>
        <time>2021-05-15T16:21:13Z</time>
      </trkpt>
      <trkpt lat="41.1563820" lon="-8.5588530">
        <ele>79.3</ele>
        <time>2021-05-15T16:21:14Z</time>
      </trkpt>
      <trkpt lat="41.1563600" lon="-8.5588640">
        <ele>79.2</ele>
        <time>2021-05-15T16:21:15Z</time>
      </trkpt>
      <trkpt lat="41.1563520" lon="-8.5588670">
        <ele>79.2</ele>
        <time>2021-05-15T16:21:16Z</time>
      </trkpt>
      <trkpt lat="41.1563430" lon="-8.5588710">
        <ele>79.1</ele>
        <time>2021-05-15T16:21:17Z</time>
      </trkpt>
      <trkpt lat="41.1563330" lon="-8.5588840">
        <ele>79.1</ele>
        <time>2021-05-15T16:21:18Z</time>
      </trkpt>
      <trkpt lat="41.1563200" lon="-8.5588920">
        <ele>79.1</ele>
        <time>2021-05-15T16:21:19Z</time>
      </trkpt>
      <trkpt lat="41.1563060" lon="-8.5588920">
        <ele>79.0</ele>
        <time>2021-05-15T16:21:20Z</time>
      </trkpt>
      <trkpt lat="41.1562930" lon="-8.5588940">
        <ele>79.0</ele>
        <time>2021-05-15T16:21:21Z</time>
      </trkpt>
      <trkpt lat="41.1562720" lon="-8.5589100">
        <ele>78.9</ele>
        <time>2021-05-15T16:21:22Z</time>
      </trkpt>
      <trkpt lat="41.1562650" lon="-8.5589150">
        <ele>78.9</ele>
        <time>2021-05-15T16:21:23Z</time>
      </trkpt>
      <trkpt lat="41.1562570" lon="-8.5589210">
        <ele>78.8</ele>
        <time>2021-05-15T16:21:24Z</time>
      </trkpt>
      <trkpt lat="41.1562370" lon="-8.5589380">
        <ele>78.8</ele>
        <time>2021-05-15T16:21:25Z</time>
      </trkpt>
      <trkpt lat="41.1562280" lon="-8.5589420">
        <ele>78.7</ele>
        <time>2021-05-15T16:21:26Z</time>
      </trkpt>
      <trkpt lat="41.1562200" lon="-8.5589460">
        <ele>78.7</ele>
        <time>2021-05-15T16:21:27Z</time>
      </trkpt>
      <trkpt lat="41.1562060" lon="-8.5589470">
        <ele>78.7</ele>
        <time>2021-05-15T16:21:28Z</time>
      </trkpt>
      <trkpt lat="41.1561940" lon="-8.5589580">
        <ele>78.6</ele>
        <time>2021-05-15T16:21:29Z</time>
      </trkpt>
      <trkpt lat="41.1561800" lon="-8.5589640">
        <ele>78.5</ele>
        <time>2021-05-15T16:21:30Z</time>
      </trkpt>
      <trkpt lat="41.1561640" lon="-8.5589720">
        <ele>78.5</ele>
        <time>2021-05-15T16:21:31Z</time>
      </trkpt>
      <trkpt lat="41.1561510" lon="-8.5589760">
        <ele>78.4</ele>
        <time>2021-05-15T16:21:32Z</time>
      </trkpt>
      <trkpt lat="41.1561370" lon="-8.5589860">
        <ele>78.4</ele>
        <time>2021-05-15T16:21:33Z</time>
      </trkpt>
      <trkpt lat="41.1561220" lon="-8.5589900">
        <ele>78.3</ele>
        <time>2021-05-15T16:21:34Z</time>
      </trkpt>
      <trkpt lat="41.1561080" lon="-8.5590010">
        <ele>78.3</ele>
        <time>2021-05-15T16:21:35Z</time>
      </trkpt>
      <trkpt lat="41.1560930" lon="-8.5590050">
        <ele>78.2</ele>
        <time>2021-05-15T16:21:36Z</time>
      </trkpt>
      <trkpt lat="41.1560810" lon="-8.5590130">
        <ele>78.1</ele>
        <time>2021-05-15T16:21:37Z</time>
      </trkpt>
      <trkpt lat="41.1560630" lon="-8.5590130">
        <ele>78.1</ele>
        <time>2021-05-15T16:21:38Z</time>
      </trkpt>
      <trkpt lat="41.1560530" lon="-8.5590270">
        <ele>78.0</ele>
        <time>2021-05-15T16:21:39Z</time>
      </trkpt>
      <trkpt lat="41.1560400" lon="-8.5590370">
        <ele>77.9</ele>
        <time>2021-05-15T16:21:40Z</time>
      </trkpt>
      <trkpt lat="41.1560290" lon="-8.5590480">
        <ele>77.9</ele>
        <time>2021-05-15T16:21:41Z</time>
      </trkpt>
      <trkpt lat="41.1560130" lon="-8.5590570">
        <ele>77.8</ele>
        <time>2021-05-15T16:21:42Z</time>
      </trkpt>
      <trkpt lat="41.1559990" lon="-8.5590670">
        <ele>77.7</ele>
        <time>2021-05-15T16:21:43Z</time>
      </trkpt>
      <trkpt lat="41.1559840" lon="-8.5590730">
        <ele>77.7</ele>
        <time>2021-05-15T16:21:44Z</time>
      </trkpt>
      <trkpt lat="41.1559700" lon="-8.5590820">
        <ele>77.6</ele>
        <time>2021-05-15T16:21:45Z</time>
      </trkpt>
      <trkpt lat="41.1559590" lon="-8.5590960">
        <ele>77.4</ele>
        <time>2021-05-15T16:21:46Z</time>
      </trkpt>
      <trkpt lat="41.1559440" lon="-8.5590990">
        <ele>77.3</ele>
        <time>2021-05-15T16:21:47Z</time>
      </trkpt>
      <trkpt lat="41.1559290" lon="-8.5591100">
        <ele>77.2</ele>
        <time>2021-05-15T16:21:48Z</time>
      </trkpt>
      <trkpt lat="41.1559150" lon="-8.5591200">
        <ele>77.1</ele>
        <time>2021-05-15T16:21:49Z</time>
      </trkpt>
      <trkpt lat="41.1559000" lon="-8.5591310">
        <ele>77.0</ele>
        <time>2021-05-15T16:21:50Z</time>
      </trkpt>
      <trkpt lat="41.1558860" lon="-8.5591360">
        <ele>76.8</ele>
        <time>2021-05-15T16:21:51Z</time>
      </trkpt>
      <trkpt lat="41.1558740" lon="-8.5591430">
        <ele>76.7</ele>
        <time>2021-05-15T16:21:52Z</time>
      </trkpt>
      <trkpt lat="41.1558560" lon="-8.5591470">
        <ele>76.6</ele>
        <time>2021-05-15T16:21:53Z</time>
      </trkpt>
      <trkpt lat="41.1558440" lon="-8.5591560">
        <ele>76.4</ele>
        <time>2021-05-15T16:21:54Z</time>
      </trkpt>
      <trkpt lat="41.1558250" lon="-8.5591640">
        <ele>76.2</ele>
        <time>2021-05-15T16:21:55Z</time>
      </trkpt>
      <trkpt lat="41.1558160" lon="-8.5591700">
        <ele>76.1</ele>
        <time>2021-05-15T16:21:56Z</time>
      </trkpt>
      <trkpt lat="41.1558020" lon="-8.5591840">
        <ele>76.0</ele>
        <time>2021-05-15T16:21:57Z</time>
      </trkpt>
      <trkpt lat="41.1557920" lon="-8.5591900">
        <ele>75.9</ele>
        <time>2021-05-15T16:21:58Z</time>
      </trkpt>
      <trkpt lat="41.1557790" lon="-8.5592060">
        <ele>75.7</ele>
        <time>2021-05-15T16:21:59Z</time>
      </trkpt>
      <trkpt lat="41.1557630" lon="-8.5592140">
        <ele>75.5</ele>
        <time>2021-05-15T16:22:00Z</time>
      </trkpt>
      <trkpt lat="41.1557540" lon="-8.5592200">
        <ele>75.4</ele>
        <time>2021-05-15T16:22:01Z</time>
      </trkpt>
      <trkpt lat="41.1557460" lon="-8.5592270">
        <ele>75.4</ele>
        <time>2021-05-15T16:22:02Z</time>
      </trkpt>
      <trkpt lat="41.1557310" lon="-8.5592390">
        <ele>75.2</ele>
        <time>2021-05-15T16:22:03Z</time>
      </trkpt>
      <trkpt lat="41.1557180" lon="-8.5592410">
        <ele>75.1</ele>
        <time>2021-05-15T16:22:04Z</time>
      </trkpt>
      <trkpt lat="41.1556990" lon="-8.5592540">
        <ele>74.9</ele>
        <time>2021-05-15T16:22:05Z</time>
      </trkpt>
      <trkpt lat="41.1556930" lon="-8.5592610">
        <ele>74.8</ele>
        <time>2021-05-15T16:22:06Z</time>
      </trkpt>
      <trkpt lat="41.1556860" lon="-8.5592670">
        <ele>74.7</ele>
        <time>2021-05-15T16:22:07Z</time>
      </trkpt>
      <trkpt lat="41.1556750" lon="-8.5592740">
        <ele>74.6</ele>
        <time>2021-05-15T16:22:08Z</time>
      </trkpt>
      <trkpt lat="41.1556640" lon="-8.5592780">
        <ele>74.5</ele>
        <time>2021-05-15T16:22:09Z</time>
      </trkpt>
      <trkpt lat="41.1556570" lon="-8.5592930">
        <ele>74.3</ele>
        <time>2021-05-15T16:22:10Z</time>
      </trkpt>
      <trkpt lat="41.1556430" lon="-8.5592990">
        <ele>74.2</ele>
        <time>2021-05-15T16:22:11Z</time>
      </trkpt>
      <trkpt lat="41.1556360" lon="-8.5593090">
        <ele>74.1</ele>
        <time>2021-05-15T16:22:12Z</time>
      </trkpt>
      <trkpt lat="41.1556320" lon="-8.5593170">
        <ele>74.0</ele>
        <time>2021-05-15T16:22:13Z</time>
      </trkpt>
      <trkpt lat="41.1556250" lon="-8.5593290">
        <ele>73.9</ele>
        <time>2021-05-15T16:22:14Z</time>
      </trkpt>
      <trkpt lat="41.1556120" lon="-8.5593340">
        <ele>73.8</ele>
        <time>2021-05-15T16:22:15Z</time>
      </trkpt>
      <trkpt lat="41.1556030" lon="-8.5593430">
        <ele>73.7</ele>
        <time>2021-05-15T16:22:16Z</time>
      </trkpt>
      <trkpt lat="41.1555880" lon="-8.5593580">
        <ele>73.5</ele>
        <time>2021-05-15T16:22:17Z</time>
      </trkpt>
      <trkpt lat="41.1555730" lon="-8.5593610">
        <ele>73.4</ele>
        <time>2021-05-15T16:22:18Z</time>
      </trkpt>
      <trkpt lat="41.1555620" lon="-8.5593710">
        <ele>73.3</ele>
        <time>2021-05-15T16:22:19Z</time>
      </trkpt>
      <trkpt lat="41.1555510" lon="-8.5593830">
        <ele>73.2</ele>
        <time>2021-05-15T16:22:20Z</time>
      </trkpt>
      <trkpt lat="41.1555400" lon="-8.5593960">
        <ele>73.0</ele>
        <time>2021-05-15T16:22:21Z</time>
      </trkpt>
      <trkpt lat="41.1555250" lon="-8.5594060">
        <ele>72.9</ele>
        <time>2021-05-15T16:22:22Z</time>
      </trkpt>
      <trkpt lat="41.1555130" lon="-8.5594110">
        <ele>72.8</ele>
        <time>2021-05-15T16:22:23Z</time>
      </trkpt>
      <trkpt lat="41.1554990" lon="-8.5594220">
        <ele>72.6</ele>
        <time>2021-05-15T16:22:24Z</time>
      </trkpt>
      <trkpt lat="41.1554880" lon="-8.5594270">
        <ele>72.5</ele>
        <time>2021-05-15T16:22:25Z</time>
      </trkpt>
      <trkpt lat="41.1554780" lon="-8.5594450">
        <ele>72.4</ele>
        <time>2021-05-15T16:22:26Z</time>
      </trkpt>
      <trkpt lat="41.1554580" lon="-8.5594570">
        <ele>72.1</ele>
        <time>2021-05-15T16:22:27Z</time>
      </trkpt>
      <trkpt lat="41.1554490" lon="-8.5594630">
        <ele>72.0</ele>
        <time>2021-05-15T16:22:28Z</time>
      </trkpt>
      <trkpt lat="41.1554390" lon="-8.5594690">
        <ele>71.9</ele>
        <time>2021-05-15T16:22:29Z</time>
      </trkpt>
      <trkpt lat="41.1554260" lon="-8.5594780">
        <ele>71.8</ele>
        <time>2021-05-15T16:22:30Z</time>
      </trkpt>
      <trkpt lat="41.1554130" lon="-8.5594890">
        <ele>71.6</ele>
        <time>2021-05-15T16:22:31Z</time>
      </trkpt>
      <trkpt lat="41.1553990" lon="-8.5594920">
        <ele>71.5</ele>
        <time>2021-05-15T16:22:32Z</time>
      </trkpt>
      <trkpt lat="41.1553810" lon="-8.5594930">
        <ele>71.3</ele>
        <time>2021-05-15T16:22:33Z</time>
      </trkpt>
      <trkpt lat="41.1553670" lon="-8.5595020">
        <ele>71.1</ele>
        <time>2021-05-15T16:22:34Z</time>
      </trkpt>
      <trkpt lat="41.1553570" lon="-8.5594980">
        <ele>71.0</ele>
        <time>2021-05-15T16:22:35Z</time>
      </trkpt>
      <trkpt lat="41.1553520" lon="-8.5595080">
        <ele>71.0</ele>
        <time>2021-05-15T16:22:36Z</time>
      </trkpt>
      <trkpt lat="41.1553320" lon="-8.5595220">
        <ele>70.7</ele>
        <time>2021-05-15T16:22:37Z</time>
      </trkpt>
      <trkpt lat="41.1553200" lon="-8.5595330">
        <ele>70.6</ele>
        <time>2021-05-15T16:22:38Z</time>
      </trkpt>
      <trkpt lat="41.1552990" lon="-8.5595450">
        <ele>70.4</ele>
        <time>2021-05-15T16:22:39Z</time>
      </trkpt>
      <trkpt lat="41.1552920" lon="-8.5595500">
        <ele>70.3</ele>
        <time>2021-05-15T16:22:40Z</time>
      </trkpt>
      <trkpt lat="41.1552840" lon="-8.5595550">
        <ele>70.2</ele>
        <time>2021-05-15T16:22:41Z</time>
      </trkpt>
      <trkpt lat="41.1552750" lon="-8.5595740">
        <ele>70.1</ele>
        <time>2021-05-15T16:22:42Z</time>
      </trkpt>
      <trkpt lat="41.1552630" lon="-8.5595930">
        <ele>69.9</ele>
        <time>2021-05-15T16:22:43Z</time>
      </trkpt>
      <trkpt lat="41.1552490" lon="-8.5596040">
        <ele>69.8</ele>
        <time>2021-05-15T16:22:44Z</time>
      </trkpt>
      <trkpt lat="41.1552380" lon="-8.5596110">
        <ele>69.8</ele>
        <time>2021-05-15T16:22:45Z</time>
      </trkpt>
      <trkpt lat="41.1552290" lon="-8.5596270">
        <ele>69.8</ele>
        <time>2021-05-15T16:22:46Z</time>
      </trkpt>
      <trkpt lat="41.1552190" lon="-8.5596340">
        <ele>69.7</ele>
        <time>2021-05-15T16:22:47Z</time>
      </trkpt>
      <trkpt lat="41.1552120" lon="-8.5596350">
        <ele>69.7</ele>
        <time>2021-05-15T16:22:48Z</time>
      </trkpt>
      <trkpt lat="41.1552010" lon="-8.5596450">
        <ele>69.7</ele>
        <time>2021-05-15T16:22:49Z</time>
      </trkpt>
      <trkpt lat="41.1551850" lon="-8.5596580">
        <ele>69.7</ele>
        <time>2021-05-15T16:22:50Z</time>
      </trkpt>
      <trkpt lat="41.1551730" lon="-8.5596700">
        <ele>69.6</ele>
        <time>2021-05-15T16:22:51Z</time>
      </trkpt>
      <trkpt lat="41.1551660" lon="-8.5596880">
        <ele>69.6</ele>
        <time>2021-05-15T16:22:52Z</time>
      </trkpt>
      <trkpt lat="41.1551570" lon="-8.5597010">
        <ele>69.6</ele>
        <time>2021-05-15T16:22:53Z</time>
      </trkpt>
      <trkpt lat="41.1551440" lon="-8.5597170">
        <ele>69.6</ele>
        <time>2021-05-15T16:22:54Z</time>
      </trkpt>
      <trkpt lat="41.1551340" lon="-8.5597320">
        <ele>69.5</ele>
        <time>2021-05-15T16:22:55Z</time>
      </trkpt>
      <trkpt lat="41.1551190" lon="-8.5597430">
        <ele>69.5</ele>
        <time>2021-05-15T16:22:56Z</time>
      </trkpt>
      <trkpt lat="41.1551070" lon="-8.5597570">
        <ele>69.5</ele>
        <time>2021-05-15T16:22:57Z</time>
      </trkpt>
      <trkpt lat="41.1550960" lon="-8.5597700">
        <ele>69.4</ele>
        <time>2021-05-15T16:22:58Z</time>
      </trkpt>
      <trkpt lat="41.1550910" lon="-8.5597860">
        <ele>69.4</ele>
        <time>2021-05-15T16:22:59Z</time>
      </trkpt>
      <trkpt lat="41.1550800" lon="-8.5597920">
        <ele>69.4</ele>
        <time>2021-05-15T16:23:00Z</time>
      </trkpt>
      <trkpt lat="41.1550550" lon="-8.5598180">
        <ele>69.4</ele>
        <time>2021-05-15T16:23:01Z</time>
      </trkpt>
      <trkpt lat="41.1550430" lon="-8.5598290">
        <ele>69.3</ele>
        <time>2021-05-15T16:23:02Z</time>
      </trkpt>
      <trkpt lat="41.1550310" lon="-8.5598430">
        <ele>69.3</ele>
        <time>2021-05-15T16:23:03Z</time>
      </trkpt>
      <trkpt lat="41.1550210" lon="-8.5598580">
        <ele>69.3</ele>
        <time>2021-05-15T16:23:04Z</time>
      </trkpt>
      <trkpt lat="41.1550040" lon="-8.5598720">
        <ele>69.3</ele>
        <time>2021-05-15T16:23:05Z</time>
      </trkpt>
      <trkpt lat="41.1549950" lon="-8.5598800">
        <ele>69.3</ele>
        <time>2021-05-15T16:23:06Z</time>
      </trkpt>
      <trkpt lat="41.1549870" lon="-8.5598870">
        <ele>69.2</ele>
        <time>2021-05-15T16:23:07Z</time>
      </trkpt>
      <trkpt lat="41.1549780" lon="-8.5598990">
        <ele>69.2</ele>
        <time>2021-05-15T16:23:08Z</time>
      </trkpt>
      <trkpt lat="41.1549660" lon="-8.5599110">
        <ele>69.2</ele>
        <time>2021-05-15T16:23:09Z</time>
      </trkpt>
      <trkpt lat="41.1549520" lon="-8.5599290">
        <ele>69.2</ele>
        <time>2021-05-15T16:23:10Z</time>
      </trkpt>
      <trkpt lat="41.1549420" lon="-8.5599380">
        <ele>69.2</ele>
        <time>2021-05-15T16:23:11Z</time>
      </trkpt>
      <trkpt lat="41.1549320" lon="-8.5599460">
        <ele>69.1</ele>
        <time>2021-05-15T16:23:12Z</time>
      </trkpt>
      <trkpt lat="41.1549180" lon="-8.5599530">
        <ele>69.1</ele>
        <time>2021-05-15T16:23:13Z</time>
      </trkpt>
      <trkpt lat="41.1549060" lon="-8.5599670">
        <ele>69.1</ele>
        <time>2021-05-15T16:23:14Z</time>
      </trkpt>
      <trkpt lat="41.1548960" lon="-8.5599830">
        <ele>69.1</ele>
        <time>2021-05-15T16:23:16Z</time>
      </trkpt>
      <trkpt lat="41.1548870" lon="-8.5599950">
        <ele>69.1</ele>
        <time>2021-05-15T16:23:17Z</time>
      </trkpt>
      <trkpt lat="41.1548740" lon="-8.5600070">
        <ele>69.0</ele>
        <time>2021-05-15T16:23:18Z</time>
      </trkpt>
      <trkpt lat="41.1548610" lon="-8.5600200">
        <ele>69.0</ele>
        <time>2021-05-15T16:23:19Z</time>
      </trkpt>
      <trkpt lat="41.1548540" lon="-8.5600400">
        <ele>69.0</ele>
        <time>2021-05-15T16:23:20Z</time>
      </trkpt>
      <trkpt lat="41.1548450" lon="-8.5600540">
        <ele>69.0</ele>
        <time>2021-05-15T16:23:21Z</time>
      </trkpt>
      <trkpt lat="41.1548260" lon="-8.5600700">
        <ele>68.9</ele>
        <time>2021-05-15T16:23:22Z</time>
      </trkpt>
      <trkpt lat="41.1548190" lon="-8.5600750">
        <ele>68.9</ele>
        <time>2021-05-15T16:23:23Z</time>
      </trkpt>
      <trkpt lat="41.1548120" lon="-8.5600800">
        <ele>68.9</ele>
        <time>2021-05-15T16:23:24Z</time>
      </trkpt>
      <trkpt lat="41.1548050" lon="-8.5600860">
        <ele>68.9</ele>
        <time>2021-05-15T16:23:25Z</time>
      </trkpt>
      <trkpt lat="41.1547990" lon="-8.5600990">
        <ele>68.9</ele>
        <time>2021-05-15T16:23:26Z</time>
      </trkpt>
      <trkpt lat="41.1547870" lon="-8.5601130">
        <ele>68.9</ele>
        <time>2021-05-15T16:23:27Z</time>
      </trkpt>
      <trkpt lat="41.1547690" lon="-8.5601310">
        <ele>68.8</ele>
        <time>2021-05-15T16:23:28Z</time>
      </trkpt>
      <trkpt lat="41.1547630" lon="-8.5601360">
        <ele>68.8</ele>
        <time>2021-05-15T16:23:29Z</time>
      </trkpt>
      <trkpt lat="41.1547570" lon="-8.5601420">
        <ele>68.8</ele>
        <time>2021-05-15T16:23:30Z</time>
      </trkpt>
      <trkpt lat="41.1547490" lon="-8.5601580">
        <ele>68.8</ele>
        <time>2021-05-15T16:23:31Z</time>
      </trkpt>
      <trkpt lat="41.1547320" lon="-8.5601720">
        <ele>68.7</ele>
        <time>2021-05-15T16:23:32Z</time>
      </trkpt>
      <trkpt lat="41.1547260" lon="-8.5601880">
        <ele>68.7</ele>
        <time>2021-05-15T16:23:33Z</time>
      </trkpt>
      <trkpt lat="41.1547150" lon="-8.5602040">
        <ele>68.7</ele>
        <time>2021-05-15T16:23:34Z</time>
      </trkpt>
      <trkpt lat="41.1546960" lon="-8.5602230">
        <ele>68.7</ele>
        <time>2021-05-15T16:23:35Z</time>
      </trkpt>
      <trkpt lat="41.1546910" lon="-8.5602280">
        <ele>68.6</ele>
        <time>2021-05-15T16:23:36Z</time>
      </trkpt>
      <trkpt lat="41.1546850" lon="-8.5602330">
        <ele>68.6</ele>
        <time>2021-05-15T16:23:37Z</time>
      </trkpt>
      <trkpt lat="41.1546670" lon="-8.5602450">
        <ele>68.6</ele>
        <time>2021-05-15T16:23:38Z</time>
      </trkpt>
      <trkpt lat="41.1546580" lon="-8.5602530">
        <ele>68.6</ele>
        <time>2021-05-15T16:23:39Z</time>
      </trkpt>
      <trkpt lat="41.1546490" lon="-8.5602620">
        <ele>68.6</ele>
        <time>2021-05-15T16:23:40Z</time>
      </trkpt>
      <trkpt lat="41.1546370" lon="-8.5602650">
        <ele>68.5</ele>
        <time>2021-05-15T16:23:41Z</time>
      </trkpt>
      <trkpt lat="41.1546240" lon="-8.5602780">
        <ele>68.5</ele>
        <time>2021-05-15T16:23:42Z</time>
      </trkpt>
      <trkpt lat="41.1546120" lon="-8.5602900">
        <ele>68.5</ele>
        <time>2021-05-15T16:23:43Z</time>
      </trkpt>
      <trkpt lat="41.1545990" lon="-8.5602980">
        <ele>68.5</ele>
        <time>2021-05-15T16:23:44Z</time>
      </trkpt>
      <trkpt lat="41.1545860" lon="-8.5603140">
        <ele>68.4</ele>
        <time>2021-05-15T16:23:45Z</time>
      </trkpt>
      <trkpt lat="41.1545770" lon="-8.5603220">
        <ele>68.4</ele>
        <time>2021-05-15T16:23:46Z</time>
      </trkpt>
      <trkpt lat="41.1545690" lon="-8.5603310">
        <ele>68.4</ele>
        <time>2021-05-15T16:23:47Z</time>
      </trkpt>
      <trkpt lat="41.1545600" lon="-8.5603520">
        <ele>68.4</ele>
        <time>2021-05-15T16:23:48Z</time>
      </trkpt>
      <trkpt lat="41.1545510" lon="-8.5603600">
        <ele>68.4</ele>
        <time>2021-05-15T16:23:49Z</time>
      </trkpt>
      <trkpt lat="41.1545390" lon="-8.5603730">
        <ele>68.4</ele>
        <time>2021-05-15T16:23:50Z</time>
      </trkpt>
      <trkpt lat="41.1545260" lon="-8.5603860">
        <ele>68.3</ele>
        <time>2021-05-15T16:23:51Z</time>
      </trkpt>
      <trkpt lat="41.1545160" lon="-8.5604050">
        <ele>68.3</ele>
        <time>2021-05-15T16:23:52Z</time>
      </trkpt>
      <trkpt lat="41.1545070" lon="-8.5604190">
        <ele>68.3</ele>
        <time>2021-05-15T16:23:53Z</time>
      </trkpt>
      <trkpt lat="41.1544900" lon="-8.5604410">
        <ele>68.3</ele>
        <time>2021-05-15T16:23:54Z</time>
      </trkpt>
      <trkpt lat="41.1544830" lon="-8.5604490">
        <ele>68.3</ele>
        <time>2021-05-15T16:23:55Z</time>
      </trkpt>
      <trkpt lat="41.1544750" lon="-8.5604580">
        <ele>68.3</ele>
        <time>2021-05-15T16:23:56Z</time>
      </trkpt>
      <trkpt lat="41.1544690" lon="-8.5604650">
        <ele>68.3</ele>
        <time>2021-05-15T16:23:57Z</time>
      </trkpt>
      <trkpt lat="41.1544530" lon="-8.5604800">
        <ele>68.3</ele>
        <time>2021-05-15T16:23:58Z</time>
      </trkpt>
      <trkpt lat="41.1544450" lon="-8.5604880">
        <ele>68.2</ele>
        <time>2021-05-15T16:23:59Z</time>
      </trkpt>
      <trkpt lat="41.1544300" lon="-8.5605030">
        <ele>68.2</ele>
        <time>2021-05-15T16:24:00Z</time>
      </trkpt>
      <trkpt lat="41.1544140" lon="-8.5605180">
        <ele>68.2</ele>
        <time>2021-05-15T16:24:01Z</time>
      </trkpt>
      <trkpt lat="41.1544070" lon="-8.5605240">
        <ele>68.2</ele>
        <time>2021-05-15T16:24:02Z</time>
      </trkpt>
      <trkpt lat="41.1543900" lon="-8.5605380">
        <ele>68.2</ele>
        <time>2021-05-15T16:24:03Z</time>
      </trkpt>
      <trkpt lat="41.1543800" lon="-8.5605520">
        <ele>68.2</ele>
        <time>2021-05-15T16:24:04Z</time>
      </trkpt>
      <trkpt lat="41.1543640" lon="-8.5605650">
        <ele>68.2</ele>
        <time>2021-05-15T16:24:05Z</time>
      </trkpt>
      <trkpt lat="41.1543590" lon="-8.5605740">
        <ele>68.2</ele>
        <time>2021-05-15T16:24:06Z</time>
      </trkpt>
      <trkpt lat="41.1543450" lon="-8.5605880">
        <ele>68.2</ele>
        <time>2021-05-15T16:24:07Z</time>
      </trkpt>
      <trkpt lat="41.1543360" lon="-8.5606010">
        <ele>68.2</ele>
        <time>2021-05-15T16:24:08Z</time>
      </trkpt>
      <trkpt lat="41.1543200" lon="-8.5606200">
        <ele>68.2</ele>
        <time>2021-05-15T16:24:09Z</time>
      </trkpt>
      <trkpt lat="41.1543130" lon="-8.5606290">
        <ele>68.2</ele>
        <time>2021-05-15T16:24:10Z</time>
      </trkpt>
      <trkpt lat="41.1543060" lon="-8.5606380">
        <ele>68.2</ele>
        <time>2021-05-15T16:24:11Z</time>
      </trkpt>
      <trkpt lat="41.1542960" lon="-8.5606540">
        <ele>68.2</ele>
        <time>2021-05-15T16:24:12Z</time>
      </trkpt>
      <trkpt lat="41.1542820" lon="-8.5606640">
        <ele>68.2</ele>
        <time>2021-05-15T16:24:13Z</time>
      </trkpt>
      <trkpt lat="41.1542700" lon="-8.5606750">
        <ele>68.2</ele>
        <time>2021-05-15T16:24:14Z</time>
      </trkpt>
      <trkpt lat="41.1542570" lon="-8.5606910">
        <ele>68.2</ele>
        <time>2021-05-15T16:24:15Z</time>
      </trkpt>
      <trkpt lat="41.1542500" lon="-8.5607080">
        <ele>68.2</ele>
        <time>2021-05-15T16:24:16Z</time>
      </trkpt>
      <trkpt lat="41.1542300" lon="-8.5607160">
        <ele>68.2</ele>
        <time>2021-05-15T16:24:17Z</time>
      </trkpt>
      <trkpt lat="41.1542220" lon="-8.5607260">
        <ele>68.2</ele>
        <time>2021-05-15T16:24:18Z</time>
      </trkpt>
      <trkpt lat="41.1542050" lon="-8.5607400">
        <ele>68.2</ele>
        <time>2021-05-15T16:24:19Z</time>
      </trkpt>
      <trkpt lat="41.1541890" lon="-8.5607580">
        <ele>68.3</ele>
        <time>2021-05-15T16:24:20Z</time>
      </trkpt>
      <trkpt lat="41.1541840" lon="-8.5607670">
        <ele>68.3</ele>
        <time>2021-05-15T16:24:21Z</time>
      </trkpt>
      <trkpt lat="41.1541790" lon="-8.5607750">
        <ele>68.3</ele>
        <time>2021-05-15T16:24:22Z</time>
      </trkpt>
      <trkpt lat="41.1541670" lon="-8.5607930">
        <ele>68.3</ele>
        <time>2021-05-15T16:24:23Z</time>
      </trkpt>
      <trkpt lat="41.1541560" lon="-8.5608080">
        <ele>68.3</ele>
        <time>2021-05-15T16:24:24Z</time>
      </trkpt>
      <trkpt lat="41.1541380" lon="-8.5608170">
        <ele>68.3</ele>
        <time>2021-05-15T16:24:25Z</time>
      </trkpt>
      <trkpt lat="41.1541240" lon="-8.5608290">
        <ele>68.4</ele>
        <time>2021-05-15T16:24:26Z</time>
      </trkpt>
      <trkpt lat="41.1541120" lon="-8.5608400">
        <ele>68.4</ele>
        <time>2021-05-15T16:24:27Z</time>
      </trkpt>
      <trkpt lat="41.1541010" lon="-8.5608540">
        <ele>68.4</ele>
        <time>2021-05-15T16:24:28Z</time>
      </trkpt>
      <trkpt lat="41.1540850" lon="-8.5608750">
        <ele>68.3</ele>
        <time>2021-05-15T16:24:29Z</time>
      </trkpt>
      <trkpt lat="41.1540810" lon="-8.5608840">
        <ele>68.3</ele>
        <time>2021-05-15T16:24:30Z</time>
      </trkpt>
      <trkpt lat="41.1540780" lon="-8.5608930">
        <ele>68.3</ele>
        <time>2021-05-15T16:24:31Z</time>
      </trkpt>
      <trkpt lat="41.1540730" lon="-8.5609140">
        <ele>68.3</ele>
        <time>2021-05-15T16:24:32Z</time>
      </trkpt>
      <trkpt lat="41.1540690" lon="-8.5609240">
        <ele>68.3</ele>
        <time>2021-05-15T16:24:33Z</time>
      </trkpt>
      <trkpt lat="41.1540640" lon="-8.5609330">
        <ele>68.3</ele>
        <time>2021-05-15T16:24:34Z</time>
      </trkpt>
      <trkpt lat="41.1540600" lon="-8.5609430">
        <ele>68.3</ele>
        <time>2021-05-15T16:24:35Z</time>
      </trkpt>
      <trkpt lat="41.1540480" lon="-8.5609610">
        <ele>68.3</ele>
        <time>2021-05-15T16:24:36Z</time>
      </trkpt>
      <trkpt lat="41.1540370" lon="-8.5609770">
        <ele>68.3</ele>
        <time>2021-05-15T16:24:37Z</time>
      </trkpt>
      <trkpt lat="41.1540240" lon="-8.5609850">
        <ele>68.3</ele>
        <time>2021-05-15T16:24:38Z</time>
      </trkpt>
      <trkpt lat="41.1540150" lon="-8.5610000">
        <ele>68.3</ele>
        <time>2021-05-15T16:24:39Z</time>
      </trkpt>
      <trkpt lat="41.1540070" lon="-8.5610210">
        <ele>68.3</ele>
        <time>2021-05-15T16:24:40Z</time>
      </trkpt>
      <trkpt lat="41.1540050" lon="-8.5610380">
        <ele>68.3</ele>
        <time>2021-05-15T16:24:41Z</time>
      </trkpt>
      <trkpt lat="41.1539920" lon="-8.5610620">
        <ele>68.3</ele>
        <time>2021-05-15T16:24:42Z</time>
      </trkpt>
      <trkpt lat="41.1539890" lon="-8.5610710">
        <ele>68.3</ele>
        <time>2021-05-15T16:24:43Z</time>
      </trkpt>
      <trkpt lat="41.1539860" lon="-8.5610810">
        <ele>68.4</ele>
        <time>2021-05-15T16:24:44Z</time>
      </trkpt>
      <trkpt lat="41.1539770" lon="-8.5610950">
        <ele>68.4</ele>
        <time>2021-05-15T16:24:45Z</time>
      </trkpt>
      <trkpt lat="41.1539650" lon="-8.5611140">
        <ele>68.4</ele>
        <time>2021-05-15T16:24:46Z</time>
      </trkpt>
      <trkpt lat="41.1539560" lon="-8.5611340">
        <ele>68.4</ele>
        <time>2021-05-15T16:24:47Z</time>
      </trkpt>
      <trkpt lat="41.1539440" lon="-8.5611490">
        <ele>68.4</ele>
        <time>2021-05-15T16:24:48Z</time>
      </trkpt>
      <trkpt lat="41.1539340" lon="-8.5611650">
        <ele>68.5</ele>
        <time>2021-05-15T16:24:49Z</time>
      </trkpt>
      <trkpt lat="41.1539220" lon="-8.5611730">
        <ele>68.5</ele>
        <time>2021-05-15T16:24:50Z</time>
      </trkpt>
      <trkpt lat="41.1539090" lon="-8.5611870">
        <ele>68.5</ele>
        <time>2021-05-15T16:24:51Z</time>
      </trkpt>
      <trkpt lat="41.1539010" lon="-8.5612080">
        <ele>68.5</ele>
        <time>2021-05-15T16:24:52Z</time>
      </trkpt>
      <trkpt lat="41.1538900" lon="-8.5612160">
        <ele>68.5</ele>
        <time>2021-05-15T16:24:53Z</time>
      </trkpt>
      <trkpt lat="41.1538800" lon="-8.5612220">
        <ele>68.5</ele>
        <time>2021-05-15T16:24:54Z</time>
      </trkpt>
      <trkpt lat="41.1538710" lon="-8.5612310">
        <ele>68.6</ele>
        <time>2021-05-15T16:24:55Z</time>
      </trkpt>
      <trkpt lat="41.1538660" lon="-8.5612440">
        <ele>68.6</ele>
        <time>2021-05-15T16:24:56Z</time>
      </trkpt>
      <trkpt lat="41.1538530" lon="-8.5612610">
        <ele>68.6</ele>
        <time>2021-05-15T16:24:57Z</time>
      </trkpt>
      <trkpt lat="41.1538440" lon="-8.5612700">
        <ele>68.6</ele>
        <time>2021-05-15T16:24:58Z</time>
      </trkpt>
      <trkpt lat="41.1538410" lon="-8.5612790">
        <ele>68.6</ele>
        <time>2021-05-15T16:24:59Z</time>
      </trkpt>
      <trkpt lat="41.1538310" lon="-8.5612890">
        <ele>68.6</ele>
        <time>2021-05-15T16:25:00Z</time>
      </trkpt>
      <trkpt lat="41.1538180" lon="-8.5613100">
        <ele>68.7</ele>
        <time>2021-05-15T16:25:01Z</time>
      </trkpt>
      <trkpt lat="41.1538140" lon="-8.5613200">
        <ele>68.7</ele>
        <time>2021-05-15T16:25:02Z</time>
      </trkpt>
      <trkpt lat="41.1538110" lon="-8.5613300">
        <ele>68.8</ele>
        <time>2021-05-15T16:25:03Z</time>
      </trkpt>
      <trkpt lat="41.1537940" lon="-8.5613480">
        <ele>68.9</ele>
        <time>2021-05-15T16:25:04Z</time>
      </trkpt>
      <trkpt lat="41.1537870" lon="-8.5613650">
        <ele>68.9</ele>
        <time>2021-05-15T16:25:05Z</time>
      </trkpt>
      <trkpt lat="41.1537780" lon="-8.5613790">
        <ele>69.0</ele>
        <time>2021-05-15T16:25:06Z</time>
      </trkpt>
      <trkpt lat="41.1537750" lon="-8.5613990">
        <ele>69.0</ele>
        <time>2021-05-15T16:25:07Z</time>
      </trkpt>
      <trkpt lat="41.1537670" lon="-8.5614150">
        <ele>69.1</ele>
        <time>2021-05-15T16:25:08Z</time>
      </trkpt>
      <trkpt lat="41.1537600" lon="-8.5614280">
        <ele>69.1</ele>
        <time>2021-05-15T16:25:09Z</time>
      </trkpt>
      <trkpt lat="41.1537530" lon="-8.5614350">
        <ele>69.2</ele>
        <time>2021-05-15T16:25:10Z</time>
      </trkpt>
      <trkpt lat="41.1537500" lon="-8.5614460">
        <ele>69.2</ele>
        <time>2021-05-15T16:25:11Z</time>
      </trkpt>
      <trkpt lat="41.1537400" lon="-8.5614560">
        <ele>69.3</ele>
        <time>2021-05-15T16:25:12Z</time>
      </trkpt>
      <trkpt lat="41.1537310" lon="-8.5614700">
        <ele>69.4</ele>
        <time>2021-05-15T16:25:13Z</time>
      </trkpt>
      <trkpt lat="41.1537240" lon="-8.5614880">
        <ele>69.4</ele>
        <time>2021-05-15T16:25:14Z</time>
      </trkpt>
      <trkpt lat="41.1537130" lon="-8.5614980">
        <ele>69.5</ele>
        <time>2021-05-15T16:25:15Z</time>
      </trkpt>
      <trkpt lat="41.1536960" lon="-8.5615350">
        <ele>69.7</ele>
        <time>2021-05-15T16:25:16Z</time>
      </trkpt>
      <trkpt lat="41.1536860" lon="-8.5615570">
        <ele>69.8</ele>
        <time>2021-05-15T16:25:17Z</time>
      </trkpt>
      <trkpt lat="41.1536810" lon="-8.5615680">
        <ele>69.9</ele>
        <time>2021-05-15T16:25:18Z</time>
      </trkpt>
      <trkpt lat="41.1536770" lon="-8.5615780">
        <ele>69.9</ele>
        <time>2021-05-15T16:25:19Z</time>
      </trkpt>
      <trkpt lat="41.1536710" lon="-8.5615870">
        <ele>70.0</ele>
        <time>2021-05-15T16:25:20Z</time>
      </trkpt>
      <trkpt lat="41.1536640" lon="-8.5615980">
        <ele>70.0</ele>
        <time>2021-05-15T16:25:21Z</time>
      </trkpt>
      <trkpt lat="41.1536590" lon="-8.5616110">
        <ele>70.1</ele>
        <time>2021-05-15T16:25:22Z</time>
      </trkpt>
      <trkpt lat="41.1536530" lon="-8.5616260">
        <ele>70.2</ele>
        <time>2021-05-15T16:25:23Z</time>
      </trkpt>
      <trkpt lat="41.1536480" lon="-8.5616390">
        <ele>70.2</ele>
        <time>2021-05-15T16:25:24Z</time>
      </trkpt>
      <trkpt lat="41.1536410" lon="-8.5616470">
        <ele>70.3</ele>
        <time>2021-05-15T16:25:25Z</time>
      </trkpt>
      <trkpt lat="41.1536260" lon="-8.5616830">
        <ele>70.5</ele>
        <time>2021-05-15T16:25:27Z</time>
      </trkpt>
      <trkpt lat="41.1536210" lon="-8.5617120">
        <ele>70.6</ele>
        <time>2021-05-15T16:25:28Z</time>
      </trkpt>
      <trkpt lat="41.1536140" lon="-8.5617200">
        <ele>70.6</ele>
        <time>2021-05-15T16:25:29Z</time>
      </trkpt>
      <trkpt lat="41.1536050" lon="-8.5617310">
        <ele>70.7</ele>
        <time>2021-05-15T16:25:30Z</time>
      </trkpt>
      <trkpt lat="41.1535870" lon="-8.5617670">
        <ele>70.9</ele>
        <time>2021-05-15T16:25:32Z</time>
      </trkpt>
      <trkpt lat="41.1535820" lon="-8.5617840">
        <ele>71.0</ele>
        <time>2021-05-15T16:25:33Z</time>
      </trkpt>
      <trkpt lat="41.1535720" lon="-8.5617930">
        <ele>71.0</ele>
        <time>2021-05-15T16:25:34Z</time>
      </trkpt>
      <trkpt lat="41.1535690" lon="-8.5618150">
        <ele>71.1</ele>
        <time>2021-05-15T16:25:36Z</time>
      </trkpt>
      <trkpt lat="41.1535630" lon="-8.5618360">
        <ele>71.2</ele>
        <time>2021-05-15T16:25:37Z</time>
      </trkpt>
      <trkpt lat="41.1535540" lon="-8.5618530">
        <ele>71.3</ele>
        <time>2021-05-15T16:25:38Z</time>
      </trkpt>
      <trkpt lat="41.1535360" lon="-8.5618650">
        <ele>71.3</ele>
        <time>2021-05-15T16:25:39Z</time>
      </trkpt>
      <trkpt lat="41.1535290" lon="-8.5618720">
        <ele>71.4</ele>
        <time>2021-05-15T16:25:40Z</time>
      </trkpt>
      <trkpt lat="41.1535220" lon="-8.5618780">
        <ele>71.4</ele>
        <time>2021-05-15T16:25:41Z</time>
      </trkpt>
      <trkpt lat="41.1535070" lon="-8.5619000">
        <ele>71.5</ele>
        <time>2021-05-15T16:25:42Z</time>
      </trkpt>
      <trkpt lat="41.1535010" lon="-8.5619100">
        <ele>71.6</ele>
        <time>2021-05-15T16:25:43Z</time>
      </trkpt>
      <trkpt lat="41.1534960" lon="-8.5619190">
        <ele>71.6</ele>
        <time>2021-05-15T16:25:44Z</time>
      </trkpt>
      <trkpt lat="41.1534890" lon="-8.5619360">
        <ele>71.7</ele>
        <time>2021-05-15T16:25:45Z</time>
      </trkpt>
      <trkpt lat="41.1534840" lon="-8.5619520">
        <ele>71.7</ele>
        <time>2021-05-15T16:25:46Z</time>
      </trkpt>
      <trkpt lat="41.1534670" lon="-8.5619720">
        <ele>71.8</ele>
        <time>2021-05-15T16:25:47Z</time>
      </trkpt>
      <trkpt lat="41.1534610" lon="-8.5619790">
        <ele>71.8</ele>
        <time>2021-05-15T16:25:48Z</time>
      </trkpt>
      <trkpt lat="41.1534560" lon="-8.5619850">
        <ele>71.9</ele>
        <time>2021-05-15T16:25:49Z</time>
      </trkpt>
      <trkpt lat="41.1534430" lon="-8.5620010">
        <ele>71.9</ele>
        <time>2021-05-15T16:25:50Z</time>
      </trkpt>
      <trkpt lat="41.1534260" lon="-8.5620080">
        <ele>72.0</ele>
        <time>2021-05-15T16:25:51Z</time>
      </trkpt>
      <trkpt lat="41.1534080" lon="-8.5620280">
        <ele>72.1</ele>
        <time>2021-05-15T16:25:52Z</time>
      </trkpt>
      <trkpt lat="41.1534040" lon="-8.5620350">
        <ele>72.2</ele>
        <time>2021-05-15T16:25:53Z</time>
      </trkpt>
      <trkpt lat="41.1533990" lon="-8.5620420">
        <ele>72.2</ele>
        <time>2021-05-15T16:25:54Z</time>
      </trkpt>
      <trkpt lat="41.1533810" lon="-8.5620810">
        <ele>72.4</ele>
        <time>2021-05-15T16:25:55Z</time>
      </trkpt>
      <trkpt lat="41.1533770" lon="-8.5620890">
        <ele>72.4</ele>
        <time>2021-05-15T16:25:56Z</time>
      </trkpt>
      <trkpt lat="41.1533600" lon="-8.5621120">
        <ele>72.6</ele>
        <time>2021-05-15T16:25:57Z</time>
      </trkpt>
      <trkpt lat="41.1533520" lon="-8.5621230">
        <ele>72.6</ele>
        <time>2021-05-15T16:25:58Z</time>
      </trkpt>
      <trkpt lat="41.1533450" lon="-8.5621330">
        <ele>72.7</ele>
        <time>2021-05-15T16:25:59Z</time>
      </trkpt>
      <trkpt lat="41.1533210" lon="-8.5621530">
        <ele>72.9</ele>
        <time>2021-05-15T16:26:00Z</time>
      </trkpt>
      <trkpt lat="41.1533120" lon="-8.5621590">
        <ele>73.0</ele>
        <time>2021-05-15T16:26:01Z</time>
      </trkpt>
      <trkpt lat="41.1533050" lon="-8.5621760">
        <ele>73.1</ele>
        <time>2021-05-15T16:26:02Z</time>
      </trkpt>
      <trkpt lat="41.1532940" lon="-8.5621920">
        <ele>73.2</ele>
        <time>2021-05-15T16:26:03Z</time>
      </trkpt>
      <trkpt lat="41.1532890" lon="-8.5622040">
        <ele>73.3</ele>
        <time>2021-05-15T16:26:04Z</time>
      </trkpt>
      <trkpt lat="41.1532780" lon="-8.5622120">
        <ele>73.3</ele>
        <time>2021-05-15T16:26:05Z</time>
      </trkpt>
      <trkpt lat="41.1532720" lon="-8.5622280">
        <ele>73.5</ele>
        <time>2021-05-15T16:26:06Z</time>
      </trkpt>
      <trkpt lat="41.1532670" lon="-8.5622530">
        <ele>73.6</ele>
        <time>2021-05-15T16:26:07Z</time>
      </trkpt>
      <trkpt lat="41.1532550" lon="-8.5622590">
        <ele>73.7</ele>
        <time>2021-05-15T16:26:08Z</time>
      </trkpt>
      <trkpt lat="41.1532420" lon="-8.5622730">
        <ele>73.9</ele>
        <time>2021-05-15T16:26:09Z</time>
      </trkpt>
      <trkpt lat="41.1532330" lon="-8.5622900">
        <ele>74.0</ele>
        <time>2021-05-15T16:26:10Z</time>
      </trkpt>
      <trkpt lat="41.1532190" lon="-8.5623060">
        <ele>74.2</ele>
        <time>2021-05-15T16:26:11Z</time>
      </trkpt>
      <trkpt lat="41.1532100" lon="-8.5623210">
        <ele>74.3</ele>
        <time>2021-05-15T16:26:12Z</time>
      </trkpt>
      <trkpt lat="41.1531940" lon="-8.5623340">
        <ele>74.4</ele>
        <time>2021-05-15T16:26:13Z</time>
      </trkpt>
      <trkpt lat="41.1531940" lon="-8.5623470">
        <ele>74.5</ele>
        <time>2021-05-15T16:26:14Z</time>
      </trkpt>
      <trkpt lat="41.1531810" lon="-8.5623480">
        <ele>74.6</ele>
        <time>2021-05-15T16:26:15Z</time>
      </trkpt>
      <trkpt lat="41.1531750" lon="-8.5623680">
        <ele>74.8</ele>
        <time>2021-05-15T16:26:16Z</time>
      </trkpt>
      <trkpt lat="41.1531710" lon="-8.5623890">
        <ele>74.9</ele>
        <time>2021-05-15T16:26:17Z</time>
      </trkpt>
      <trkpt lat="41.1531630" lon="-8.5624110">
        <ele>75.1</ele>
        <time>2021-05-15T16:26:18Z</time>
      </trkpt>
      <trkpt lat="41.1531580" lon="-8.5624270">
        <ele>75.2</ele>
        <time>2021-05-15T16:26:19Z</time>
      </trkpt>
      <trkpt lat="41.1531510" lon="-8.5624470">
        <ele>75.3</ele>
        <time>2021-05-15T16:26:20Z</time>
      </trkpt>
      <trkpt lat="41.1531410" lon="-8.5624570">
        <ele>75.4</ele>
        <time>2021-05-15T16:26:21Z</time>
      </trkpt>
      <trkpt lat="41.1531320" lon="-8.5624760">
        <ele>75.6</ele>
        <time>2021-05-15T16:26:22Z</time>
      </trkpt>
      <trkpt lat="41.1531230" lon="-8.5624820">
        <ele>75.6</ele>
        <time>2021-05-15T16:26:23Z</time>
      </trkpt>
      <trkpt lat="41.1531130" lon="-8.5624890">
        <ele>75.7</ele>
        <time>2021-05-15T16:26:24Z</time>
      </trkpt>
      <trkpt lat="41.1530990" lon="-8.5625000">
        <ele>75.9</ele>
        <time>2021-05-15T16:26:25Z</time>
      </trkpt>
      <trkpt lat="41.1530890" lon="-8.5625130">
        <ele>76.0</ele>
        <time>2021-05-15T16:26:26Z</time>
      </trkpt>
      <trkpt lat="41.1530790" lon="-8.5625260">
        <ele>76.1</ele>
        <time>2021-05-15T16:26:27Z</time>
      </trkpt>
      <trkpt lat="41.1530710" lon="-8.5625410">
        <ele>76.2</ele>
        <time>2021-05-15T16:26:28Z</time>
      </trkpt>
      <trkpt lat="41.1530620" lon="-8.5625510">
        <ele>76.3</ele>
        <time>2021-05-15T16:26:29Z</time>
      </trkpt>
      <trkpt lat="41.1530570" lon="-8.5625660">
        <ele>76.4</ele>
        <time>2021-05-15T16:26:30Z</time>
      </trkpt>
      <trkpt lat="41.1530480" lon="-8.5625770">
        <ele>76.4</ele>
        <time>2021-05-15T16:26:31Z</time>
      </trkpt>
      <trkpt lat="41.1530330" lon="-8.5625970">
        <ele>76.6</ele>
        <time>2021-05-15T16:26:32Z</time>
      </trkpt>
      <trkpt lat="41.1530270" lon="-8.5626050">
        <ele>76.6</ele>
        <time>2021-05-15T16:26:33Z</time>
      </trkpt>
      <trkpt lat="41.1530210" lon="-8.5626140">
        <ele>76.7</ele>
        <time>2021-05-15T16:26:34Z</time>
      </trkpt>
      <trkpt lat="41.1530090" lon="-8.5626360">
        <ele>76.8</ele>
        <time>2021-05-15T16:26:35Z</time>
      </trkpt>
      <trkpt lat="41.1530020" lon="-8.5626440">
        <ele>76.8</ele>
        <time>2021-05-15T16:26:36Z</time>
      </trkpt>
      <trkpt lat="41.1529960" lon="-8.5626520">
        <ele>76.8</ele>
        <time>2021-05-15T16:26:37Z</time>
      </trkpt>
      <trkpt lat="41.1529770" lon="-8.5626660">
        <ele>76.9</ele>
        <time>2021-05-15T16:26:38Z</time>
      </trkpt>
      <trkpt lat="41.1529660" lon="-8.5626780">
        <ele>76.9</ele>
        <time>2021-05-15T16:26:39Z</time>
      </trkpt>
      <trkpt lat="41.1529510" lon="-8.5627000">
        <ele>77.0</ele>
        <time>2021-05-15T16:26:40Z</time>
      </trkpt>
      <trkpt lat="41.1529440" lon="-8.5627060">
        <ele>77.0</ele>
        <time>2021-05-15T16:26:41Z</time>
      </trkpt>
      <trkpt lat="41.1529380" lon="-8.5627130">
        <ele>77.0</ele>
        <time>2021-05-15T16:26:42Z</time>
      </trkpt>
      <trkpt lat="41.1529220" lon="-8.5627320">
        <ele>77.1</ele>
        <time>2021-05-15T16:26:43Z</time>
      </trkpt>
      <trkpt lat="41.1529170" lon="-8.5627390">
        <ele>77.1</ele>
        <time>2021-05-15T16:26:44Z</time>
      </trkpt>
      <trkpt lat="41.1529120" lon="-8.5627470">
        <ele>77.1</ele>
        <time>2021-05-15T16:26:45Z</time>
      </trkpt>
      <trkpt lat="41.1528920" lon="-8.5627620">
        <ele>77.0</ele>
        <time>2021-05-15T16:26:46Z</time>
      </trkpt>
      <trkpt lat="41.1528850" lon="-8.5627680">
        <ele>77.0</ele>
        <time>2021-05-15T16:26:47Z</time>
      </trkpt>
      <trkpt lat="41.1528740" lon="-8.5627850">
        <ele>77.0</ele>
        <time>2021-05-15T16:26:48Z</time>
      </trkpt>
      <trkpt lat="41.1528680" lon="-8.5627980">
        <ele>77.0</ele>
        <time>2021-05-15T16:26:49Z</time>
      </trkpt>
      <trkpt lat="41.1528570" lon="-8.5628150">
        <ele>77.0</ele>
        <time>2021-05-15T16:26:50Z</time>
      </trkpt>
      <trkpt lat="41.1528490" lon="-8.5628350">
        <ele>76.9</ele>
        <time>2021-05-15T16:26:51Z</time>
      </trkpt>
      <trkpt lat="41.1528400" lon="-8.5628430">
        <ele>76.9</ele>
        <time>2021-05-15T16:26:52Z</time>
      </trkpt>
      <trkpt lat="41.1528200" lon="-8.5628510">
        <ele>76.9</ele>
        <time>2021-05-15T16:26:53Z</time>
      </trkpt>
      <trkpt lat="41.1528010" lon="-8.5628650">
        <ele>76.8</ele>
        <time>2021-05-15T16:26:54Z</time>
      </trkpt>
      <trkpt lat="41.1527960" lon="-8.5628760">
        <ele>76.8</ele>
        <time>2021-05-15T16:26:55Z</time>
      </trkpt>
      <trkpt lat="41.1527900" lon="-8.5628860">
        <ele>76.8</ele>
        <time>2021-05-15T16:26:56Z</time>
      </trkpt>
      <trkpt lat="41.1527680" lon="-8.5629110">
        <ele>76.7</ele>
        <time>2021-05-15T16:26:57Z</time>
      </trkpt>
      <trkpt lat="41.1527620" lon="-8.5629170">
        <ele>76.7</ele>
        <time>2021-05-15T16:26:58Z</time>
      </trkpt>
      <trkpt lat="41.1527530" lon="-8.5629370">
        <ele>76.7</ele>
        <time>2021-05-15T16:26:59Z</time>
      </trkpt>
      <trkpt lat="41.1527380" lon="-8.5629500">
        <ele>76.6</ele>
        <time>2021-05-15T16:27:00Z</time>
      </trkpt>
      <trkpt lat="41.1527150" lon="-8.5629780">
        <ele>76.5</ele>
        <time>2021-05-15T16:27:01Z</time>
      </trkpt>
      <trkpt lat="41.1527110" lon="-8.5629830">
        <ele>76.5</ele>
        <time>2021-05-15T16:27:02Z</time>
      </trkpt>
      <trkpt lat="41.1527050" lon="-8.5630010">
        <ele>76.5</ele>
        <time>2021-05-15T16:27:04Z</time>
      </trkpt>
      <trkpt lat="41.1526860" lon="-8.5630210">
        <ele>76.4</ele>
        <time>2021-05-15T16:27:05Z</time>
      </trkpt>
      <trkpt lat="41.1526820" lon="-8.5630380">
        <ele>76.4</ele>
        <time>2021-05-15T16:27:06Z</time>
      </trkpt>
      <trkpt lat="41.1526750" lon="-8.5630490">
        <ele>76.4</ele>
        <time>2021-05-15T16:27:07Z</time>
      </trkpt>
      <trkpt lat="41.1526650" lon="-8.5630700">
        <ele>76.3</ele>
        <time>2021-05-15T16:27:08Z</time>
      </trkpt>
      <trkpt lat="41.1526550" lon="-8.5630800">
        <ele>76.3</ele>
        <time>2021-05-15T16:27:10Z</time>
      </trkpt>
      <trkpt lat="41.1526420" lon="-8.5630950">
        <ele>76.2</ele>
        <time>2021-05-15T16:27:11Z</time>
      </trkpt>
      <trkpt lat="41.1526330" lon="-8.5631120">
        <ele>76.2</ele>
        <time>2021-05-15T16:27:12Z</time>
      </trkpt>
      <trkpt lat="41.1526130" lon="-8.5631380">
        <ele>76.0</ele>
        <time>2021-05-15T16:27:13Z</time>
      </trkpt>
      <trkpt lat="41.1526030" lon="-8.5631500">
        <ele>76.0</ele>
        <time>2021-05-15T16:27:14Z</time>
      </trkpt>
      <trkpt lat="41.1525960" lon="-8.5631700">
        <ele>75.9</ele>
        <time>2021-05-15T16:27:15Z</time>
      </trkpt>
      <trkpt lat="41.1525820" lon="-8.5631760">
        <ele>75.9</ele>
        <time>2021-05-15T16:27:16Z</time>
      </trkpt>
      <trkpt lat="41.1525720" lon="-8.5631870">
        <ele>75.8</ele>
        <time>2021-05-15T16:27:17Z</time>
      </trkpt>
      <trkpt lat="41.1525590" lon="-8.5632080">
        <ele>75.7</ele>
        <time>2021-05-15T16:27:18Z</time>
      </trkpt>
      <trkpt lat="41.1525470" lon="-8.5632230">
        <ele>75.6</ele>
        <time>2021-05-15T16:27:19Z</time>
      </trkpt>
      <trkpt lat="41.1525400" lon="-8.5632370">
        <ele>75.6</ele>
        <time>2021-05-15T16:27:20Z</time>
      </trkpt>
      <trkpt lat="41.1525320" lon="-8.5632470">
        <ele>75.5</ele>
        <time>2021-05-15T16:27:21Z</time>
      </trkpt>
      <trkpt lat="41.1525180" lon="-8.5632500">
        <ele>75.5</ele>
        <time>2021-05-15T16:27:22Z</time>
      </trkpt>
      <trkpt lat="41.1525090" lon="-8.5632680">
        <ele>75.4</ele>
        <time>2021-05-15T16:27:23Z</time>
      </trkpt>
      <trkpt lat="41.1524930" lon="-8.5632740">
        <ele>75.3</ele>
        <time>2021-05-15T16:27:24Z</time>
      </trkpt>
      <trkpt lat="41.1524780" lon="-8.5632900">
        <ele>75.3</ele>
        <time>2021-05-15T16:27:25Z</time>
      </trkpt>
      <trkpt lat="41.1524640" lon="-8.5632940">
        <ele>75.2</ele>
        <time>2021-05-15T16:27:26Z</time>
      </trkpt>
      <trkpt lat="41.1524510" lon="-8.5633140">
        <ele>75.1</ele>
        <time>2021-05-15T16:27:27Z</time>
      </trkpt>
      <trkpt lat="41.1524390" lon="-8.5633280">
        <ele>75.1</ele>
        <time>2021-05-15T16:27:28Z</time>
      </trkpt>
      <trkpt lat="41.1524290" lon="-8.5633410">
        <ele>75.0</ele>
        <time>2021-05-15T16:27:29Z</time>
      </trkpt>
      <trkpt lat="41.1524140" lon="-8.5633510">
        <ele>74.9</ele>
        <time>2021-05-15T16:27:30Z</time>
      </trkpt>
      <trkpt lat="41.1524000" lon="-8.5633660">
        <ele>74.9</ele>
        <time>2021-05-15T16:27:31Z</time>
      </trkpt>
      <trkpt lat="41.1523850" lon="-8.5633780">
        <ele>74.8</ele>
        <time>2021-05-15T16:27:32Z</time>
      </trkpt>
      <trkpt lat="41.1523760" lon="-8.5634000">
        <ele>74.7</ele>
        <time>2021-05-15T16:27:33Z</time>
      </trkpt>
      <trkpt lat="41.1523680" lon="-8.5634180">
        <ele>74.7</ele>
        <time>2021-05-15T16:27:34Z</time>
      </trkpt>
      <trkpt lat="41.1523550" lon="-8.5634300">
        <ele>74.6</ele>
        <time>2021-05-15T16:27:35Z</time>
      </trkpt>
      <trkpt lat="41.1523410" lon="-8.5634400">
        <ele>74.5</ele>
        <time>2021-05-15T16:27:36Z</time>
      </trkpt>
      <trkpt lat="41.1523290" lon="-8.5634580">
        <ele>74.5</ele>
        <time>2021-05-15T16:27:37Z</time>
      </trkpt>
      <trkpt lat="41.1523150" lon="-8.5634660">
        <ele>74.4</ele>
        <time>2021-05-15T16:27:38Z</time>
      </trkpt>
      <trkpt lat="41.1523090" lon="-8.5634850">
        <ele>74.3</ele>
        <time>2021-05-15T16:27:39Z</time>
      </trkpt>
      <trkpt lat="41.1523030" lon="-8.5634990">
        <ele>74.3</ele>
        <time>2021-05-15T16:27:40Z</time>
      </trkpt>
      <trkpt lat="41.1522900" lon="-8.5635040">
        <ele>74.2</ele>
        <time>2021-05-15T16:27:41Z</time>
      </trkpt>
      <trkpt lat="41.1522840" lon="-8.5635110">
        <ele>74.1</ele>
        <time>2021-05-15T16:27:42Z</time>
      </trkpt>
      <trkpt lat="41.1522790" lon="-8.5635230">
        <ele>74.1</ele>
        <time>2021-05-15T16:27:43Z</time>
      </trkpt>
      <trkpt lat="41.1522680" lon="-8.5635350">
        <ele>74.0</ele>
        <time>2021-05-15T16:27:44Z</time>
      </trkpt>
      <trkpt lat="41.1522630" lon="-8.5635540">
        <ele>73.9</ele>
        <time>2021-05-15T16:27:45Z</time>
      </trkpt>
      <trkpt lat="41.1522480" lon="-8.5635670">
        <ele>73.9</ele>
        <time>2021-05-15T16:27:46Z</time>
      </trkpt>
      <trkpt lat="41.1522400" lon="-8.5635730">
        <ele>73.9</ele>
        <time>2021-05-15T16:27:47Z</time>
      </trkpt>
      <trkpt lat="41.1522260" lon="-8.5635870">
        <ele>73.8</ele>
        <time>2021-05-15T16:27:48Z</time>
      </trkpt>
      <trkpt lat="41.1522170" lon="-8.5636010">
        <ele>73.8</ele>
        <time>2021-05-15T16:27:49Z</time>
      </trkpt>
      <trkpt lat="41.1522020" lon="-8.5636140">
        <ele>73.7</ele>
        <time>2021-05-15T16:27:50Z</time>
      </trkpt>
      <trkpt lat="41.1521950" lon="-8.5636240">
        <ele>73.7</ele>
        <time>2021-05-15T16:27:51Z</time>
      </trkpt>
      <trkpt lat="41.1521880" lon="-8.5636330">
        <ele>73.6</ele>
        <time>2021-05-15T16:27:52Z</time>
      </trkpt>
      <trkpt lat="41.1521830" lon="-8.5636380">
        <ele>73.6</ele>
        <time>2021-05-15T16:27:53Z</time>
      </trkpt>
      <trkpt lat="41.1521720" lon="-8.5636540">
        <ele>73.5</ele>
        <time>2021-05-15T16:27:54Z</time>
      </trkpt>
      <trkpt lat="41.1521650" lon="-8.5636660">
        <ele>73.4</ele>
        <time>2021-05-15T16:27:55Z</time>
      </trkpt>
      <trkpt lat="41.1521570" lon="-8.5636820">
        <ele>73.3</ele>
        <time>2021-05-15T16:27:56Z</time>
      </trkpt>
      <trkpt lat="41.1521400" lon="-8.5636990">
        <ele>73.2</ele>
        <time>2021-05-15T16:27:58Z</time>
      </trkpt>
      <trkpt lat="41.1521330" lon="-8.5637090">
        <ele>73.1</ele>
        <time>2021-05-15T16:27:59Z</time>
      </trkpt>
      <trkpt lat="41.1521270" lon="-8.5637330">
        <ele>72.9</ele>
        <time>2021-05-15T16:28:00Z</time>
      </trkpt>
      <trkpt lat="41.1521130" lon="-8.5637400">
        <ele>72.8</ele>
        <time>2021-05-15T16:28:01Z</time>
      </trkpt>
      <trkpt lat="41.1521150" lon="-8.5637540">
        <ele>72.7</ele>
        <time>2021-05-15T16:28:02Z</time>
      </trkpt>
      <trkpt lat="41.1520990" lon="-8.5637610">
        <ele>72.5</ele>
        <time>2021-05-15T16:28:03Z</time>
      </trkpt>
      <trkpt lat="41.1520800" lon="-8.5637700">
        <ele>72.3</ele>
        <time>2021-05-15T16:28:04Z</time>
      </trkpt>
      <trkpt lat="41.1520680" lon="-8.5637840">
        <ele>72.2</ele>
        <time>2021-05-15T16:28:05Z</time>
      </trkpt>
      <trkpt lat="41.1520500" lon="-8.5638030">
        <ele>71.9</ele>
        <time>2021-05-15T16:28:06Z</time>
      </trkpt>
      <trkpt lat="41.1520440" lon="-8.5638070">
        <ele>71.8</ele>
        <time>2021-05-15T16:28:07Z</time>
      </trkpt>
      <trkpt lat="41.1520370" lon="-8.5638110">
        <ele>71.7</ele>
        <time>2021-05-15T16:28:08Z</time>
      </trkpt>
      <trkpt lat="41.1520270" lon="-8.5638200">
        <ele>71.6</ele>
        <time>2021-05-15T16:28:09Z</time>
      </trkpt>
      <trkpt lat="41.1520070" lon="-8.5638310">
        <ele>71.4</ele>
        <time>2021-05-15T16:28:10Z</time>
      </trkpt>
      <trkpt lat="41.1519990" lon="-8.5638410">
        <ele>71.2</ele>
        <time>2021-05-15T16:28:11Z</time>
      </trkpt>
      <trkpt lat="41.1519900" lon="-8.5638580">
        <ele>71.1</ele>
        <time>2021-05-15T16:28:12Z</time>
      </trkpt>
      <trkpt lat="41.1519840" lon="-8.5638680">
        <ele>71.0</ele>
        <time>2021-05-15T16:28:13Z</time>
      </trkpt>
      <trkpt lat="41.1519540" lon="-8.5638910">
        <ele>70.6</ele>
        <time>2021-05-15T16:28:14Z</time>
      </trkpt>
      <trkpt lat="41.1519460" lon="-8.5638990">
        <ele>70.5</ele>
        <time>2021-05-15T16:28:15Z</time>
      </trkpt>
      <trkpt lat="41.1519330" lon="-8.5639110">
        <ele>70.3</ele>
        <time>2021-05-15T16:28:16Z</time>
      </trkpt>
      <trkpt lat="41.1519200" lon="-8.5639190">
        <ele>70.2</ele>
        <time>2021-05-15T16:28:17Z</time>
      </trkpt>
      <trkpt lat="41.1519020" lon="-8.5639400">
        <ele>70.0</ele>
        <time>2021-05-15T16:28:18Z</time>
      </trkpt>
      <trkpt lat="41.1518940" lon="-8.5639440">
        <ele>69.9</ele>
        <time>2021-05-15T16:28:19Z</time>
      </trkpt>
      <trkpt lat="41.1518870" lon="-8.5639490">
        <ele>69.9</ele>
        <time>2021-05-15T16:28:20Z</time>
      </trkpt>
      <trkpt lat="41.1518750" lon="-8.5639670">
        <ele>69.7</ele>
        <time>2021-05-15T16:28:21Z</time>
      </trkpt>
      <trkpt lat="41.1518680" lon="-8.5639850">
        <ele>69.6</ele>
        <time>2021-05-15T16:28:22Z</time>
      </trkpt>
      <trkpt lat="41.1518600" lon="-8.5640020">
        <ele>69.5</ele>
        <time>2021-05-15T16:28:23Z</time>
      </trkpt>
      <trkpt lat="41.1518470" lon="-8.5640160">
        <ele>69.3</ele>
        <time>2021-05-15T16:28:24Z</time>
      </trkpt>
      <trkpt lat="41.1518390" lon="-8.5640360">
        <ele>69.2</ele>
        <time>2021-05-15T16:28:25Z</time>
      </trkpt>
      <trkpt lat="41.1518310" lon="-8.5640580">
        <ele>69.0</ele>
        <time>2021-05-15T16:28:26Z</time>
      </trkpt>
      <trkpt lat="41.1518260" lon="-8.5640760">
        <ele>68.9</ele>
        <time>2021-05-15T16:28:27Z</time>
      </trkpt>
      <trkpt lat="41.1518270" lon="-8.5641030">
        <ele>68.6</ele>
        <time>2021-05-15T16:28:28Z</time>
      </trkpt>
      <trkpt lat="41.1518170" lon="-8.5641160">
        <ele>68.4</ele>
        <time>2021-05-15T16:28:29Z</time>
      </trkpt>
      <trkpt lat="41.1518070" lon="-8.5641340">
        <ele>68.2</ele>
        <time>2021-05-15T16:28:30Z</time>
      </trkpt>
      <trkpt lat="41.1518030" lon="-8.5641500">
        <ele>68.0</ele>
        <time>2021-05-15T16:28:31Z</time>
      </trkpt>
      <trkpt lat="41.1517840" lon="-8.5641530">
        <ele>67.7</ele>
        <time>2021-05-15T16:28:32Z</time>
      </trkpt>
      <trkpt lat="41.1517730" lon="-8.5641690">
        <ele>67.5</ele>
        <time>2021-05-15T16:28:33Z</time>
      </trkpt>
      <trkpt lat="41.1517650" lon="-8.5641860">
        <ele>67.2</ele>
        <time>2021-05-15T16:28:34Z</time>
      </trkpt>
      <trkpt lat="41.1517620" lon="-8.5642060">
        <ele>67.0</ele>
        <time>2021-05-15T16:28:35Z</time>
      </trkpt>
      <trkpt lat="41.1517580" lon="-8.5642160">
        <ele>66.9</ele>
        <time>2021-05-15T16:28:36Z</time>
      </trkpt>
      <trkpt lat="41.1517540" lon="-8.5642250">
        <ele>66.7</ele>
        <time>2021-05-15T16:28:37Z</time>
      </trkpt>
      <trkpt lat="41.1517500" lon="-8.5642350">
        <ele>66.6</ele>
        <time>2021-05-15T16:28:38Z</time>
      </trkpt>
      <trkpt lat="41.1517420" lon="-8.5642570">
        <ele>66.3</ele>
        <time>2021-05-15T16:28:39Z</time>
      </trkpt>
      <trkpt lat="41.1517350" lon="-8.5642700">
        <ele>66.2</ele>
        <time>2021-05-15T16:28:40Z</time>
      </trkpt>
      <trkpt lat="41.1517280" lon="-8.5642920">
        <ele>65.9</ele>
        <time>2021-05-15T16:28:41Z</time>
      </trkpt>
      <trkpt lat="41.1517240" lon="-8.5643050">
        <ele>65.7</ele>
        <time>2021-05-15T16:28:42Z</time>
      </trkpt>
      <trkpt lat="41.1517150" lon="-8.5643190">
        <ele>65.5</ele>
        <time>2021-05-15T16:28:43Z</time>
      </trkpt>
      <trkpt lat="41.1517040" lon="-8.5643360">
        <ele>65.3</ele>
        <time>2021-05-15T16:28:44Z</time>
      </trkpt>
      <trkpt lat="41.1516990" lon="-8.5643530">
        <ele>65.1</ele>
        <time>2021-05-15T16:28:45Z</time>
      </trkpt>
      <trkpt lat="41.1516860" lon="-8.5643670">
        <ele>64.8</ele>
        <time>2021-05-15T16:28:46Z</time>
      </trkpt>
      <trkpt lat="41.1516700" lon="-8.5643890">
        <ele>64.5</ele>
        <time>2021-05-15T16:28:47Z</time>
      </trkpt>
      <trkpt lat="41.1516640" lon="-8.5643960">
        <ele>64.3</ele>
        <time>2021-05-15T16:28:48Z</time>
      </trkpt>
      <trkpt lat="41.1516580" lon="-8.5644030">
        <ele>64.2</ele>
        <time>2021-05-15T16:28:49Z</time>
      </trkpt>
      <trkpt lat="41.1516480" lon="-8.5644210">
        <ele>63.9</ele>
        <time>2021-05-15T16:28:50Z</time>
      </trkpt>
      <trkpt lat="41.1516400" lon="-8.5644390">
        <ele>63.7</ele>
        <time>2021-05-15T16:28:51Z</time>
      </trkpt>
      <trkpt lat="41.1516380" lon="-8.5644510">
        <ele>63.5</ele>
        <time>2021-05-15T16:28:52Z</time>
      </trkpt>
      <trkpt lat="41.1516250" lon="-8.5644750">
        <ele>63.2</ele>
        <time>2021-05-15T16:28:53Z</time>
      </trkpt>
      <trkpt lat="41.1516210" lon="-8.5644930">
        <ele>62.9</ele>
        <time>2021-05-15T16:28:54Z</time>
      </trkpt>
      <trkpt lat="41.1516130" lon="-8.5645030">
        <ele>62.8</ele>
        <time>2021-05-15T16:28:55Z</time>
      </trkpt>
      <trkpt lat="41.1516100" lon="-8.5645160">
        <ele>62.6</ele>
        <time>2021-05-15T16:28:56Z</time>
      </trkpt>
      <trkpt lat="41.1516060" lon="-8.5645490">
        <ele>62.2</ele>
        <time>2021-05-15T16:28:57Z</time>
      </trkpt>
      <trkpt lat="41.1516060" lon="-8.5645560">
        <ele>62.1</ele>
        <time>2021-05-15T16:28:58Z</time>
      </trkpt>
      <trkpt lat="41.1516070" lon="-8.5645640">
        <ele>62.0</ele>
        <time>2021-05-15T16:28:59Z</time>
      </trkpt>
      <trkpt lat="41.1516090" lon="-8.5645880">
        <ele>61.7</ele>
        <time>2021-05-15T16:29:00Z</time>
      </trkpt>
      <trkpt lat="41.1516100" lon="-8.5646110">
        <ele>61.3</ele>
        <time>2021-05-15T16:29:01Z</time>
      </trkpt>
      <trkpt lat="41.1516160" lon="-8.5646340">
        <ele>61.2</ele>
        <time>2021-05-15T16:29:02Z</time>
      </trkpt>
      <trkpt lat="41.1516180" lon="-8.5646470">
        <ele>61.2</ele>
        <time>2021-05-15T16:29:03Z</time>
      </trkpt>
      <trkpt lat="41.1516200" lon="-8.5646750">
        <ele>61.1</ele>
        <time>2021-05-15T16:29:04Z</time>
      </trkpt>
      <trkpt lat="41.1516240" lon="-8.5646920">
        <ele>61.0</ele>
        <time>2021-05-15T16:29:05Z</time>
      </trkpt>
      <trkpt lat="41.1516290" lon="-8.5647130">
        <ele>61.0</ele>
        <time>2021-05-15T16:29:06Z</time>
      </trkpt>
      <trkpt lat="41.1516350" lon="-8.5647500">
        <ele>60.8</ele>
        <time>2021-05-15T16:29:07Z</time>
      </trkpt>
      <trkpt lat="41.1516380" lon="-8.5647710">
        <ele>60.7</ele>
        <time>2021-05-15T16:29:08Z</time>
      </trkpt>
      <trkpt lat="41.1516450" lon="-8.5647920">
        <ele>60.6</ele>
        <time>2021-05-15T16:29:09Z</time>
      </trkpt>
      <trkpt lat="41.1516450" lon="-8.5648150">
        <ele>60.6</ele>
        <time>2021-05-15T16:29:10Z</time>
      </trkpt>
      <trkpt lat="41.1516330" lon="-8.5648340">
        <ele>60.5</ele>
        <time>2021-05-15T16:29:11Z</time>
      </trkpt>
      <trkpt lat="41.1516330" lon="-8.5648520">
        <ele>60.4</ele>
        <time>2021-05-15T16:29:12Z</time>
      </trkpt>
      <trkpt lat="41.1516230" lon="-8.5648860">
        <ele>60.2</ele>
        <time>2021-05-15T16:29:13Z</time>
      </trkpt>
      <trkpt lat="41.1516210" lon="-8.5649010">
        <ele>60.2</ele>
        <time>2021-05-15T16:29:14Z</time>
      </trkpt>
      <trkpt lat="41.1516120" lon="-8.5649220">
        <ele>60.1</ele>
        <time>2021-05-15T16:29:15Z</time>
      </trkpt>
      <trkpt lat="41.1516130" lon="-8.5649460">
        <ele>59.9</ele>
        <time>2021-05-15T16:29:16Z</time>
      </trkpt>
      <trkpt lat="41.1516070" lon="-8.5649680">
        <ele>59.8</ele>
        <time>2021-05-15T16:29:17Z</time>
      </trkpt>
      <trkpt lat="41.1516000" lon="-8.5649880">
        <ele>59.7</ele>
        <time>2021-05-15T16:29:18Z</time>
      </trkpt>
      <trkpt lat="41.1515970" lon="-8.5650070">
        <ele>59.6</ele>
        <time>2021-05-15T16:29:19Z</time>
      </trkpt>
      <trkpt lat="41.1515960" lon="-8.5650300">
        <ele>59.5</ele>
        <time>2021-05-15T16:29:20Z</time>
      </trkpt>
      <trkpt lat="41.1515940" lon="-8.5650430">
        <ele>59.4</ele>
        <time>2021-05-15T16:29:21Z</time>
      </trkpt>
      <trkpt lat="41.1515870" lon="-8.5650660">
        <ele>59.3</ele>
        <time>2021-05-15T16:29:22Z</time>
      </trkpt>
      <trkpt lat="41.1515870" lon="-8.5650830">
        <ele>59.2</ele>
        <time>2021-05-15T16:29:23Z</time>
      </trkpt>
      <trkpt lat="41.1515900" lon="-8.5651080">
        <ele>59.0</ele>
        <time>2021-05-15T16:29:24Z</time>
      </trkpt>
      <trkpt lat="41.1515910" lon="-8.5651270">
        <ele>58.9</ele>
        <time>2021-05-15T16:29:25Z</time>
      </trkpt>
      <trkpt lat="41.1515850" lon="-8.5651540">
        <ele>58.7</ele>
        <time>2021-05-15T16:29:26Z</time>
      </trkpt>
      <trkpt lat="41.1515830" lon="-8.5651710">
        <ele>58.6</ele>
        <time>2021-05-15T16:29:27Z</time>
      </trkpt>
      <trkpt lat="41.1515740" lon="-8.5651880">
        <ele>58.5</ele>
        <time>2021-05-15T16:29:28Z</time>
      </trkpt>
      <trkpt lat="41.1515680" lon="-8.5652250">
        <ele>58.2</ele>
        <time>2021-05-15T16:29:29Z</time>
      </trkpt>
      <trkpt lat="41.1515650" lon="-8.5652370">
        <ele>58.2</ele>
        <time>2021-05-15T16:29:30Z</time>
      </trkpt>
      <trkpt lat="41.1515640" lon="-8.5652640">
        <ele>58.0</ele>
        <time>2021-05-15T16:29:31Z</time>
      </trkpt>
      <trkpt lat="41.1515620" lon="-8.5652740">
        <ele>57.9</ele>
        <time>2021-05-15T16:29:32Z</time>
      </trkpt>
      <trkpt lat="41.1515660" lon="-8.5652940">
        <ele>57.8</ele>
        <time>2021-05-15T16:29:33Z</time>
      </trkpt>
      <trkpt lat="41.1515760" lon="-8.5653160">
        <ele>57.7</ele>
        <time>2021-05-15T16:29:34Z</time>
      </trkpt>
      <trkpt lat="41.1515660" lon="-8.5653300">
        <ele>57.6</ele>
        <time>2021-05-15T16:29:35Z</time>
      </trkpt>
      <trkpt lat="41.1515670" lon="-8.5653520">
        <ele>57.5</ele>
        <time>2021-05-15T16:29:36Z</time>
      </trkpt>
      <trkpt lat="41.1515670" lon="-8.5653840">
        <ele>57.3</ele>
        <time>2021-05-15T16:29:37Z</time>
      </trkpt>
      <trkpt lat="41.1515680" lon="-8.5653950">
        <ele>57.2</ele>
        <time>2021-05-15T16:29:38Z</time>
      </trkpt>
      <trkpt lat="41.1515690" lon="-8.5654060">
        <ele>57.2</ele>
        <time>2021-05-15T16:29:39Z</time>
      </trkpt>
      <trkpt lat="41.1515750" lon="-8.5654310">
        <ele>57.1</ele>
        <time>2021-05-15T16:29:40Z</time>
      </trkpt>
      <trkpt lat="41.1515820" lon="-8.5654480">
        <ele>57.0</ele>
        <time>2021-05-15T16:29:41Z</time>
      </trkpt>
      <trkpt lat="41.1515810" lon="-8.5654650">
        <ele>56.9</ele>
        <time>2021-05-15T16:29:42Z</time>
      </trkpt>
      <trkpt lat="41.1515830" lon="-8.5654920">
        <ele>56.8</ele>
        <time>2021-05-15T16:29:43Z</time>
      </trkpt>
      <trkpt lat="41.1515860" lon="-8.5655150">
        <ele>56.7</ele>
        <time>2021-05-15T16:29:44Z</time>
      </trkpt>
      <trkpt lat="41.1515890" lon="-8.5655330">
        <ele>56.7</ele>
        <time>2021-05-15T16:29:45Z</time>
      </trkpt>
      <trkpt lat="41.1515930" lon="-8.5655540">
        <ele>56.6</ele>
        <time>2021-05-15T16:29:46Z</time>
      </trkpt>
      <trkpt lat="41.1515910" lon="-8.5655730">
        <ele>56.5</ele>
        <time>2021-05-15T16:29:47Z</time>
      </trkpt>
      <trkpt lat="41.1515920" lon="-8.5655970">
        <ele>56.5</ele>
        <time>2021-05-15T16:29:49Z</time>
      </trkpt>
      <trkpt lat="41.1515870" lon="-8.5656080">
        <ele>56.4</ele>
        <time>2021-05-15T16:29:50Z</time>
      </trkpt>
      <trkpt lat="41.1515880" lon="-8.5656380">
        <ele>56.4</ele>
        <time>2021-05-15T16:29:51Z</time>
      </trkpt>
      <trkpt lat="41.1515890" lon="-8.5656510">
        <ele>56.3</ele>
        <time>2021-05-15T16:29:52Z</time>
      </trkpt>
      <trkpt lat="41.1515890" lon="-8.5656640">
        <ele>56.3</ele>
        <time>2021-05-15T16:29:53Z</time>
      </trkpt>
      <trkpt lat="41.1515840" lon="-8.5656870">
        <ele>56.3</ele>
        <time>2021-05-15T16:29:54Z</time>
      </trkpt>
      <trkpt lat="41.1515810" lon="-8.5657000">
        <ele>56.2</ele>
        <time>2021-05-15T16:29:55Z</time>
      </trkpt>
      <trkpt lat="41.1515780" lon="-8.5657120">
        <ele>56.2</ele>
        <time>2021-05-15T16:29:56Z</time>
      </trkpt>
      <trkpt lat="41.1515820" lon="-8.5657330">
        <ele>56.2</ele>
        <time>2021-05-15T16:29:57Z</time>
      </trkpt>
      <trkpt lat="41.1515730" lon="-8.5657540">
        <ele>56.1</ele>
        <time>2021-05-15T16:29:58Z</time>
      </trkpt>
      <trkpt lat="41.1515720" lon="-8.5657830">
        <ele>56.1</ele>
        <time>2021-05-15T16:29:59Z</time>
      </trkpt>
      <trkpt lat="41.1515710" lon="-8.5658000">
        <ele>56.1</ele>
        <time>2021-05-15T16:30:00Z</time>
      </trkpt>
      <trkpt lat="41.1515690" lon="-8.5658280">
        <ele>56.1</ele>
        <time>2021-05-15T16:30:01Z</time>
      </trkpt>
      <trkpt lat="41.1515670" lon="-8.5658380">
        <ele>56.1</ele>
        <time>2021-05-15T16:30:02Z</time>
      </trkpt>
      <trkpt lat="41.1515640" lon="-8.5658490">
        <ele>56.1</ele>
        <time>2021-05-15T16:30:03Z</time>
      </trkpt>
      <trkpt lat="41.1515690" lon="-8.5658710">
        <ele>56.1</ele>
        <time>2021-05-15T16:30:04Z</time>
      </trkpt>
      <trkpt lat="41.1515670" lon="-8.5658880">
        <ele>56.1</ele>
        <time>2021-05-15T16:30:05Z</time>
      </trkpt>
      <trkpt lat="41.1515680" lon="-8.5659050">
        <ele>56.1</ele>
        <time>2021-05-15T16:30:06Z</time>
      </trkpt>
      <trkpt lat="41.1515710" lon="-8.5659290">
        <ele>56.1</ele>
        <time>2021-05-15T16:30:07Z</time>
      </trkpt>
      <trkpt lat="41.1515680" lon="-8.5659720">
        <ele>56.1</ele>
        <time>2021-05-15T16:30:08Z</time>
      </trkpt>
      <trkpt lat="41.1515680" lon="-8.5659850">
        <ele>56.1</ele>
        <time>2021-05-15T16:30:09Z</time>
      </trkpt>
      <trkpt lat="41.1515690" lon="-8.5660030">
        <ele>56.1</ele>
        <time>2021-05-15T16:30:10Z</time>
      </trkpt>
      <trkpt lat="41.1515740" lon="-8.5660320">
        <ele>56.1</ele>
        <time>2021-05-15T16:30:11Z</time>
      </trkpt>
      <trkpt lat="41.1515710" lon="-8.5660530">
        <ele>56.1</ele>
        <time>2021-05-15T16:30:12Z</time>
      </trkpt>
      <trkpt lat="41.1515630" lon="-8.5660750">
        <ele>56.1</ele>
        <time>2021-05-15T16:30:13Z</time>
      </trkpt>
      <trkpt lat="41.1515660" lon="-8.5660840">
        <ele>56.1</ele>
        <time>2021-05-15T16:30:14Z</time>
      </trkpt>
      <trkpt lat="41.1515680" lon="-8.5660970">
        <ele>56.1</ele>
        <time>2021-05-15T16:30:15Z</time>
      </trkpt>
      <trkpt lat="41.1515700" lon="-8.5661200">
        <ele>56.1</ele>
        <time>2021-05-15T16:30:16Z</time>
      </trkpt>
      <trkpt lat="41.1515680" lon="-8.5661300">
        <ele>56.1</ele>
        <time>2021-05-15T16:30:17Z</time>
      </trkpt>
      <trkpt lat="41.1515720" lon="-8.5661580">
        <ele>56.2</ele>
        <time>2021-05-15T16:30:18Z</time>
      </trkpt>
      <trkpt lat="41.1515770" lon="-8.5661780">
        <ele>56.2</ele>
        <time>2021-05-15T16:30:19Z</time>
      </trkpt>
      <trkpt lat="41.1515730" lon="-8.5661950">
        <ele>56.2</ele>
        <time>2021-05-15T16:30:20Z</time>
      </trkpt>
      <trkpt lat="41.1515780" lon="-8.5662190">
        <ele>56.2</ele>
        <time>2021-05-15T16:30:21Z</time>
      </trkpt>
      <trkpt lat="41.1515770" lon="-8.5662430">
        <ele>56.2</ele>
        <time>2021-05-15T16:30:22Z</time>
      </trkpt>
      <trkpt lat="41.1515800" lon="-8.5662600">
        <ele>56.2</ele>
        <time>2021-05-15T16:30:23Z</time>
      </trkpt>
      <trkpt lat="41.1515840" lon="-8.5662830">
        <ele>56.3</ele>
        <time>2021-05-15T16:30:24Z</time>
      </trkpt>
      <trkpt lat="41.1515850" lon="-8.5663090">
        <ele>56.3</ele>
        <time>2021-05-15T16:30:25Z</time>
      </trkpt>
      <trkpt lat="41.1515870" lon="-8.5663200">
        <ele>56.3</ele>
        <time>2021-05-15T16:30:26Z</time>
      </trkpt>
      <trkpt lat="41.1515880" lon="-8.5663320">
        <ele>56.3</ele>
        <time>2021-05-15T16:30:27Z</time>
      </trkpt>
      <trkpt lat="41.1515850" lon="-8.5663590">
        <ele>56.3</ele>
        <time>2021-05-15T16:30:28Z</time>
      </trkpt>
      <trkpt lat="41.1515830" lon="-8.5663710">
        <ele>56.2</ele>
        <time>2021-05-15T16:30:29Z</time>
      </trkpt>
      <trkpt lat="41.1515810" lon="-8.5663840">
        <ele>56.2</ele>
        <time>2021-05-15T16:30:30Z</time>
      </trkpt>
      <trkpt lat="41.1515780" lon="-8.5664060">
        <ele>56.2</ele>
        <time>2021-05-15T16:30:31Z</time>
      </trkpt>
      <trkpt lat="41.1515770" lon="-8.5664270">
        <ele>56.1</ele>
        <time>2021-05-15T16:30:32Z</time>
      </trkpt>
      <trkpt lat="41.1515760" lon="-8.5664490">
        <ele>56.1</ele>
        <time>2021-05-15T16:30:33Z</time>
      </trkpt>
      <trkpt lat="41.1515770" lon="-8.5664640">
        <ele>56.1</ele>
        <time>2021-05-15T16:30:34Z</time>
      </trkpt>
      <trkpt lat="41.1515760" lon="-8.5664790">
        <ele>56.0</ele>
        <time>2021-05-15T16:30:35Z</time>
      </trkpt>
      <trkpt lat="41.1515750" lon="-8.5664900">
        <ele>56.0</ele>
        <time>2021-05-15T16:30:36Z</time>
      </trkpt>
      <trkpt lat="41.1515710" lon="-8.5665100">
        <ele>56.0</ele>
        <time>2021-05-15T16:30:37Z</time>
      </trkpt>
      <trkpt lat="41.1515670" lon="-8.5665230">
        <ele>55.9</ele>
        <time>2021-05-15T16:30:38Z</time>
      </trkpt>
      <trkpt lat="41.1515670" lon="-8.5665500">
        <ele>55.9</ele>
        <time>2021-05-15T16:30:39Z</time>
      </trkpt>
      <trkpt lat="41.1515650" lon="-8.5665720">
        <ele>55.8</ele>
        <time>2021-05-15T16:30:40Z</time>
      </trkpt>
      <trkpt lat="41.1515630" lon="-8.5665890">
        <ele>55.8</ele>
        <time>2021-05-15T16:30:41Z</time>
      </trkpt>
      <trkpt lat="41.1515650" lon="-8.5666100">
        <ele>55.8</ele>
        <time>2021-05-15T16:30:42Z</time>
      </trkpt>
      <trkpt lat="41.1515570" lon="-8.5666290">
        <ele>55.7</ele>
        <time>2021-05-15T16:30:43Z</time>
      </trkpt>
      <trkpt lat="41.1515540" lon="-8.5666470">
        <ele>55.7</ele>
        <time>2021-05-15T16:30:44Z</time>
      </trkpt>
      <trkpt lat="41.1515490" lon="-8.5666650">
        <ele>55.7</ele>
        <time>2021-05-15T16:30:45Z</time>
      </trkpt>
      <trkpt lat="41.1515490" lon="-8.5666980">
        <ele>55.6</ele>
        <time>2021-05-15T16:30:46Z</time>
      </trkpt>
      <trkpt lat="41.1515490" lon="-8.5667110">
        <ele>55.6</ele>
        <time>2021-05-15T16:30:47Z</time>
      </trkpt>
      <trkpt lat="41.1515490" lon="-8.5667250">
        <ele>55.6</ele>
        <time>2021-05-15T16:30:48Z</time>
      </trkpt>
      <trkpt lat="41.1515460" lon="-8.5667470">
        <ele>55.5</ele>
        <time>2021-05-15T16:30:49Z</time>
      </trkpt>
      <trkpt lat="41.1515400" lon="-8.5667640">
        <ele>55.5</ele>
        <time>2021-05-15T16:30:50Z</time>
      </trkpt>
      <trkpt lat="41.1515390" lon="-8.5667910">
        <ele>55.5</ele>
        <time>2021-05-15T16:30:51Z</time>
      </trkpt>
      <trkpt lat="41.1515370" lon="-8.5668020">
        <ele>55.5</ele>
        <time>2021-05-15T16:30:52Z</time>
      </trkpt>
      <trkpt lat="41.1515360" lon="-8.5668130">
        <ele>55.5</ele>
        <time>2021-05-15T16:30:53Z</time>
      </trkpt>
      <trkpt lat="41.1515310" lon="-8.5668500">
        <ele>55.4</ele>
        <time>2021-05-15T16:30:54Z</time>
      </trkpt>
      <trkpt lat="41.1515320" lon="-8.5668620">
        <ele>55.4</ele>
        <time>2021-05-15T16:30:55Z</time>
      </trkpt>
      <trkpt lat="41.1515280" lon="-8.5668920">
        <ele>55.3</ele>
        <time>2021-05-15T16:30:56Z</time>
      </trkpt>
      <trkpt lat="41.1515250" lon="-8.5669050">
        <ele>55.3</ele>
        <time>2021-05-15T16:30:57Z</time>
      </trkpt>
      <trkpt lat="41.1515230" lon="-8.5669170">
        <ele>55.3</ele>
        <time>2021-05-15T16:30:58Z</time>
      </trkpt>
      <trkpt lat="41.1515240" lon="-8.5669390">
        <ele>55.3</ele>
        <time>2021-05-15T16:30:59Z</time>
      </trkpt>
      <trkpt lat="41.1515290" lon="-8.5669600">
        <ele>55.2</ele>
        <time>2021-05-15T16:31:00Z</time>
      </trkpt>
      <trkpt lat="41.1515270" lon="-8.5669800">
        <ele>55.2</ele>
        <time>2021-05-15T16:31:01Z</time>
      </trkpt>
      <trkpt lat="41.1515270" lon="-8.5670000">
        <ele>55.2</ele>
        <time>2021-05-15T16:31:02Z</time>
      </trkpt>
      <trkpt lat="41.1515270" lon="-8.5670220">
        <ele>55.2</ele>
        <time>2021-05-15T16:31:03Z</time>
      </trkpt>
      <trkpt lat="41.1515260" lon="-8.5670390">
        <ele>55.1</ele>
        <time>2021-05-15T16:31:04Z</time>
      </trkpt>
      <trkpt lat="41.1515250" lon="-8.5670570">
        <ele>55.1</ele>
        <time>2021-05-15T16:31:05Z</time>
      </trkpt>
      <trkpt lat="41.1515260" lon="-8.5670770">
        <ele>55.1</ele>
        <time>2021-05-15T16:31:06Z</time>
      </trkpt>
      <trkpt lat="41.1515220" lon="-8.5670960">
        <ele>55.0</ele>
        <time>2021-05-15T16:31:07Z</time>
      </trkpt>
      <trkpt lat="41.1515260" lon="-8.5671180">
        <ele>55.0</ele>
        <time>2021-05-15T16:31:08Z</time>
      </trkpt>
      <trkpt lat="41.1515220" lon="-8.5671330">
        <ele>55.0</ele>
        <time>2021-05-15T16:31:09Z</time>
      </trkpt>
      <trkpt lat="41.1515240" lon="-8.5671570">
        <ele>55.0</ele>
        <time>2021-05-15T16:31:10Z</time>
      </trkpt>
      <trkpt lat="41.1515270" lon="-8.5671790">
        <ele>54.9</ele>
        <time>2021-05-15T16:31:11Z</time>
      </trkpt>
      <trkpt lat="41.1515270" lon="-8.5671950">
        <ele>54.9</ele>
        <time>2021-05-15T16:31:12Z</time>
      </trkpt>
      <trkpt lat="41.1515260" lon="-8.5672350">
        <ele>54.9</ele>
        <time>2021-05-15T16:31:13Z</time>
      </trkpt>
      <trkpt lat="41.1515290" lon="-8.5672490">
        <ele>54.9</ele>
        <time>2021-05-15T16:31:14Z</time>
      </trkpt>
      <trkpt lat="41.1515290" lon="-8.5672580">
        <ele>54.8</ele>
        <time>2021-05-15T16:31:15Z</time>
      </trkpt>
      <trkpt lat="41.1515290" lon="-8.5672770">
        <ele>54.8</ele>
        <time>2021-05-15T16:31:16Z</time>
      </trkpt>
      <trkpt lat="41.1515180" lon="-8.5672910">
        <ele>54.8</ele>
        <time>2021-05-15T16:31:17Z</time>
      </trkpt>
      <trkpt lat="41.1515160" lon="-8.5673090">
        <ele>54.8</ele>
        <time>2021-05-15T16:31:18Z</time>
      </trkpt>
      <trkpt lat="41.1515130" lon="-8.5673270">
        <ele>54.8</ele>
        <time>2021-05-15T16:31:19Z</time>
      </trkpt>
      <trkpt lat="41.1515170" lon="-8.5673420">
        <ele>54.7</ele>
        <time>2021-05-15T16:31:20Z</time>
      </trkpt>
      <trkpt lat="41.1515200" lon="-8.5673540">
        <ele>54.7</ele>
        <time>2021-05-15T16:31:21Z</time>
      </trkpt>
      <trkpt lat="41.1515170" lon="-8.5673880">
        <ele>54.7</ele>
        <time>2021-05-15T16:31:22Z</time>
      </trkpt>
      <trkpt lat="41.1515170" lon="-8.5674010">
        <ele>54.7</ele>
        <time>2021-05-15T16:31:23Z</time>
      </trkpt>
      <trkpt lat="41.1515170" lon="-8.5674140">
        <ele>54.7</ele>
        <time>2021-05-15T16:31:24Z</time>
      </trkpt>
      <trkpt lat="41.1515220" lon="-8.5674430">
        <ele>54.6</ele>
        <time>2021-05-15T16:31:25Z</time>
      </trkpt>
      <trkpt lat="41.1515220" lon="-8.5674550">
        <ele>54.6</ele>
        <time>2021-05-15T16:31:26Z</time>
      </trkpt>
      <trkpt lat="41.1515220" lon="-8.5674670">
        <ele>54.6</ele>
        <time>2021-05-15T16:31:27Z</time>
      </trkpt>
      <trkpt lat="41.1515230" lon="-8.5674960">
        <ele>54.5</ele>
        <time>2021-05-15T16:31:28Z</time>
      </trkpt>
      <trkpt lat="41.1515240" lon="-8.5675060">
        <ele>54.5</ele>
        <time>2021-05-15T16:31:29Z</time>
      </trkpt>
      <trkpt lat="41.1515260" lon="-8.5675170">
        <ele>54.5</ele>
        <time>2021-05-15T16:31:30Z</time>
      </trkpt>
      <trkpt lat="41.1515360" lon="-8.5675530">
        <ele>54.4</ele>
        <time>2021-05-15T16:31:31Z</time>
      </trkpt>
      <trkpt lat="41.1515390" lon="-8.5675680">
        <ele>54.4</ele>
        <time>2021-05-15T16:31:32Z</time>
      </trkpt>
      <trkpt lat="41.1515420" lon="-8.5676040">
        <ele>54.3</ele>
        <time>2021-05-15T16:31:33Z</time>
      </trkpt>
      <trkpt lat="41.1515420" lon="-8.5676170">
        <ele>54.3</ele>
        <time>2021-05-15T16:31:34Z</time>
      </trkpt>
      <trkpt lat="41.1515480" lon="-8.5676460">
        <ele>54.2</ele>
        <time>2021-05-15T16:31:35Z</time>
      </trkpt>
      <trkpt lat="41.1515490" lon="-8.5676560">
        <ele>54.2</ele>
        <time>2021-05-15T16:31:36Z</time>
      </trkpt>
      <trkpt lat="41.1515510" lon="-8.5676670">
        <ele>54.2</ele>
        <time>2021-05-15T16:31:37Z</time>
      </trkpt>
      <trkpt lat="41.1515410" lon="-8.5676860">
        <ele>54.1</ele>
        <time>2021-05-15T16:31:38Z</time>
      </trkpt>
      <trkpt lat="41.1515490" lon="-8.5677040">
        <ele>54.1</ele>
        <time>2021-05-15T16:31:39Z</time>
      </trkpt>
      <trkpt lat="41.1515480" lon="-8.5677320">
        <ele>54.0</ele>
        <time>2021-05-15T16:31:41Z</time>
      </trkpt>
      <trkpt lat="41.1515460" lon="-8.5677440">
        <ele>54.0</ele>
        <time>2021-05-15T16:31:42Z</time>
      </trkpt>
      <trkpt lat="41.1515440" lon="-8.5677560">
        <ele>54.0</ele>
        <time>2021-05-15T16:31:43Z</time>
      </trkpt>
      <trkpt lat="41.1515350" lon="-8.5677770">
        <ele>53.9</ele>
        <time>2021-05-15T16:31:44Z</time>
      </trkpt>
      <trkpt lat="41.1515420" lon="-8.5678030">
        <ele>53.8</ele>
        <time>2021-05-15T16:31:45Z</time>
      </trkpt>
      <trkpt lat="41.1515440" lon="-8.5678220">
        <ele>53.8</ele>
        <time>2021-05-15T16:31:46Z</time>
      </trkpt>
      <trkpt lat="41.1515430" lon="-8.5678430">
        <ele>53.7</ele>
        <time>2021-05-15T16:31:47Z</time>
      </trkpt>
      <trkpt lat="41.1515400" lon="-8.5678670">
        <ele>53.7</ele>
        <time>2021-05-15T16:31:48Z</time>
      </trkpt>
      <trkpt lat="41.1515360" lon="-8.5678870">
        <ele>53.6</ele>
        <time>2021-05-15T16:31:49Z</time>
      </trkpt>
      <trkpt lat="41.1515400" lon="-8.5679060">
        <ele>53.5</ele>
        <time>2021-05-15T16:31:50Z</time>
      </trkpt>
      <trkpt lat="41.1515400" lon="-8.5679290">
        <ele>53.5</ele>
        <time>2021-05-15T16:31:51Z</time>
      </trkpt>
      <trkpt lat="41.1515500" lon="-8.5679510">
        <ele>53.4</ele>
        <time>2021-05-15T16:31:52Z</time>
      </trkpt>
      <trkpt lat="41.1515490" lon="-8.5679680">
        <ele>53.4</ele>
        <time>2021-05-15T16:31:53Z</time>
      </trkpt>
      <trkpt lat="41.1515520" lon="-8.5679890">
        <ele>53.3</ele>
        <time>2021-05-15T16:31:54Z</time>
      </trkpt>
      <trkpt lat="41.1515550" lon="-8.5680120">
        <ele>53.2</ele>
        <time>2021-05-15T16:31:55Z</time>
      </trkpt>
      <trkpt lat="41.1515560" lon="-8.5680430">
        <ele>53.1</ele>
        <time>2021-05-15T16:31:56Z</time>
      </trkpt>
      <trkpt lat="41.1515590" lon="-8.5680540">
        <ele>53.1</ele>
        <time>2021-05-15T16:31:57Z</time>
      </trkpt>
      <trkpt lat="41.1515610" lon="-8.5680640">
        <ele>53.0</ele>
        <time>2021-05-15T16:31:58Z</time>
      </trkpt>
      <trkpt lat="41.1515660" lon="-8.5680790">
        <ele>53.0</ele>
        <time>2021-05-15T16:31:59Z</time>
      </trkpt>
      <trkpt lat="41.1515630" lon="-8.5680950">
        <ele>52.9</ele>
        <time>2021-05-15T16:32:00Z</time>
      </trkpt>
      <trkpt lat="41.1515690" lon="-8.5681070">
        <ele>52.8</ele>
        <time>2021-05-15T16:32:01Z</time>
      </trkpt>
      <trkpt lat="41.1515840" lon="-8.5681390">
        <ele>52.7</ele>
        <time>2021-05-15T16:32:02Z</time>
      </trkpt>
      <trkpt lat="41.1515860" lon="-8.5681520">
        <ele>52.6</ele>
        <time>2021-05-15T16:32:03Z</time>
      </trkpt>
      <trkpt lat="41.1515970" lon="-8.5681640">
        <ele>52.6</ele>
        <time>2021-05-15T16:32:04Z</time>
      </trkpt>
      <trkpt lat="41.1516030" lon="-8.5681830">
        <ele>52.5</ele>
        <time>2021-05-15T16:32:05Z</time>
      </trkpt>
      <trkpt lat="41.1516030" lon="-8.5682080">
        <ele>52.3</ele>
        <time>2021-05-15T16:32:06Z</time>
      </trkpt>
      <trkpt lat="41.1515990" lon="-8.5682220">
        <ele>52.3</ele>
        <time>2021-05-15T16:32:07Z</time>
      </trkpt>
      <trkpt lat="41.1515960" lon="-8.5682370">
        <ele>52.2</ele>
        <time>2021-05-15T16:32:08Z</time>
      </trkpt>
      <trkpt lat="41.1515990" lon="-8.5682560">
        <ele>52.1</ele>
        <time>2021-05-15T16:32:09Z</time>
      </trkpt>
      <trkpt lat="41.1516020" lon="-8.5682760">
        <ele>52.0</ele>
        <time>2021-05-15T16:32:10Z</time>
      </trkpt>
      <trkpt lat="41.1516000" lon="-8.5683040">
        <ele>51.8</ele>
        <time>2021-05-15T16:32:11Z</time>
      </trkpt>
      <trkpt lat="41.1515970" lon="-8.5683160">
        <ele>51.8</ele>
        <time>2021-05-15T16:32:12Z</time>
      </trkpt>
      <trkpt lat="41.1515950" lon="-8.5683280">
        <ele>51.7</ele>
        <time>2021-05-15T16:32:13Z</time>
      </trkpt>
      <trkpt lat="41.1515980" lon="-8.5683380">
        <ele>51.6</ele>
        <time>2021-05-15T16:32:14Z</time>
      </trkpt>
      <trkpt lat="41.1516010" lon="-8.5683510">
        <ele>51.5</ele>
        <time>2021-05-15T16:32:15Z</time>
      </trkpt>
      <trkpt lat="41.1516040" lon="-8.5683660">
        <ele>51.4</ele>
        <time>2021-05-15T16:32:16Z</time>
      </trkpt>
      <trkpt lat="41.1516170" lon="-8.5683870">
        <ele>51.3</ele>
        <time>2021-05-15T16:32:17Z</time>
      </trkpt>
      <trkpt lat="41.1516190" lon="-8.5684000">
        <ele>51.2</ele>
        <time>2021-05-15T16:32:18Z</time>
      </trkpt>
      <trkpt lat="41.1516210" lon="-8.5684120">
        <ele>51.1</ele>
        <time>2021-05-15T16:32:19Z</time>
      </trkpt>
      <trkpt lat="41.1516210" lon="-8.5684370">
        <ele>51.0</ele>
        <time>2021-05-15T16:32:20Z</time>
      </trkpt>
      <trkpt lat="41.1516250" lon="-8.5684590">
        <ele>51.0</ele>
        <time>2021-05-15T16:32:21Z</time>
      </trkpt>
      <trkpt lat="41.1516200" lon="-8.5684780">
        <ele>51.0</ele>
        <time>2021-05-15T16:32:22Z</time>
      </trkpt>
      <trkpt lat="41.1516110" lon="-8.5684970">
        <ele>51.0</ele>
        <time>2021-05-15T16:32:23Z</time>
      </trkpt>
      <trkpt lat="41.1516010" lon="-8.5685260">
        <ele>50.9</ele>
        <time>2021-05-15T16:32:24Z</time>
      </trkpt>
      <trkpt lat="41.1515990" lon="-8.5685370">
        <ele>50.8</ele>
        <time>2021-05-15T16:32:25Z</time>
      </trkpt>
      <trkpt lat="41.1515960" lon="-8.5685470">
        <ele>50.7</ele>
        <time>2021-05-15T16:32:26Z</time>
      </trkpt>
      <trkpt lat="41.1516030" lon="-8.5685610">
        <ele>50.6</ele>
        <time>2021-05-15T16:32:27Z</time>
      </trkpt>
      <trkpt lat="41.1515950" lon="-8.5685840">
        <ele>50.4</ele>
        <time>2021-05-15T16:32:28Z</time>
      </trkpt>
      <trkpt lat="41.1515860" lon="-8.5686140">
        <ele>50.2</ele>
        <time>2021-05-15T16:32:29Z</time>
      </trkpt>
      <trkpt lat="41.1515810" lon="-8.5686220">
        <ele>50.2</ele>
        <time>2021-05-15T16:32:30Z</time>
      </trkpt>
      <trkpt lat="41.1515770" lon="-8.5686300">
        <ele>50.1</ele>
        <time>2021-05-15T16:32:31Z</time>
      </trkpt>
      <trkpt lat="41.1515680" lon="-8.5686430">
        <ele>50.0</ele>
        <time>2021-05-15T16:32:32Z</time>
      </trkpt>
      <trkpt lat="41.1515540" lon="-8.5686660">
        <ele>49.8</ele>
        <time>2021-05-15T16:32:33Z</time>
      </trkpt>
      <trkpt lat="41.1515470" lon="-8.5686760">
        <ele>49.7</ele>
        <time>2021-05-15T16:32:34Z</time>
      </trkpt>
      <trkpt lat="41.1515280" lon="-8.5686880">
        <ele>49.5</ele>
        <time>2021-05-15T16:32:35Z</time>
      </trkpt>
      <trkpt lat="41.1515230" lon="-8.5687070">
        <ele>49.4</ele>
        <time>2021-05-15T16:32:36Z</time>
      </trkpt>
      <trkpt lat="41.1515150" lon="-8.5687310">
        <ele>49.2</ele>
        <time>2021-05-15T16:32:37Z</time>
      </trkpt>
      <trkpt lat="41.1515060" lon="-8.5687520">
        <ele>49.1</ele>
        <time>2021-05-15T16:32:38Z</time>
      </trkpt>
      <trkpt lat="41.1514970" lon="-8.5687700">
        <ele>48.9</ele>
        <time>2021-05-15T16:32:39Z</time>
      </trkpt>
      <trkpt lat="41.1514910" lon="-8.5687880">
        <ele>48.8</ele>
        <time>2021-05-15T16:32:40Z</time>
      </trkpt>
      <trkpt lat="41.1514910" lon="-8.5688050">
        <ele>48.7</ele>
        <time>2021-05-15T16:32:41Z</time>
      </trkpt>
      <trkpt lat="41.1514820" lon="-8.5688330">
        <ele>48.5</ele>
        <time>2021-05-15T16:32:42Z</time>
      </trkpt>
      <trkpt lat="41.1514780" lon="-8.5688460">
        <ele>48.4</ele>
        <time>2021-05-15T16:32:43Z</time>
      </trkpt>
      <trkpt lat="41.1514750" lon="-8.5688580">
        <ele>48.3</ele>
        <time>2021-05-15T16:32:44Z</time>
      </trkpt>
      <trkpt lat="41.1514630" lon="-8.5688670">
        <ele>48.2</ele>
        <time>2021-05-15T16:32:45Z</time>
      </trkpt>
      <trkpt lat="41.1514560" lon="-8.5688890">
        <ele>48.1</ele>
        <time>2021-05-15T16:32:46Z</time>
      </trkpt>
      <trkpt lat="41.1514440" lon="-8.5689030">
        <ele>47.9</ele>
        <time>2021-05-15T16:32:47Z</time>
      </trkpt>
      <trkpt lat="41.1514390" lon="-8.5689240">
        <ele>47.8</ele>
        <time>2021-05-15T16:32:48Z</time>
      </trkpt>
      <trkpt lat="41.1514280" lon="-8.5689370">
        <ele>47.6</ele>
        <time>2021-05-15T16:32:49Z</time>
      </trkpt>
      <trkpt lat="41.1514210" lon="-8.5689600">
        <ele>47.5</ele>
        <time>2021-05-15T16:32:50Z</time>
      </trkpt>
      <trkpt lat="41.1514090" lon="-8.5689850">
        <ele>47.2</ele>
        <time>2021-05-15T16:32:51Z</time>
      </trkpt>
      <trkpt lat="41.1514030" lon="-8.5689970">
        <ele>47.2</ele>
        <time>2021-05-15T16:32:52Z</time>
      </trkpt>
      <trkpt lat="41.1513970" lon="-8.5690090">
        <ele>47.1</ele>
        <time>2021-05-15T16:32:53Z</time>
      </trkpt>
      <trkpt lat="41.1513730" lon="-8.5690340">
        <ele>46.8</ele>
        <time>2021-05-15T16:32:54Z</time>
      </trkpt>
      <trkpt lat="41.1513650" lon="-8.5690400">
        <ele>46.7</ele>
        <time>2021-05-15T16:32:55Z</time>
      </trkpt>
      <trkpt lat="41.1513550" lon="-8.5690580">
        <ele>46.5</ele>
        <time>2021-05-15T16:32:56Z</time>
      </trkpt>
      <trkpt lat="41.1513480" lon="-8.5690770">
        <ele>46.4</ele>
        <time>2021-05-15T16:32:57Z</time>
      </trkpt>
      <trkpt lat="41.1513330" lon="-8.5690980">
        <ele>46.2</ele>
        <time>2021-05-15T16:32:58Z</time>
      </trkpt>
      <trkpt lat="41.1513280" lon="-8.5691070">
        <ele>46.1</ele>
        <time>2021-05-15T16:32:59Z</time>
      </trkpt>
      <trkpt lat="41.1513220" lon="-8.5691160">
        <ele>46.1</ele>
        <time>2021-05-15T16:33:00Z</time>
      </trkpt>
      <trkpt lat="41.1513110" lon="-8.5691310">
        <ele>45.9</ele>
        <time>2021-05-15T16:33:01Z</time>
      </trkpt>
      <trkpt lat="41.1512980" lon="-8.5691500">
        <ele>45.8</ele>
        <time>2021-05-15T16:33:02Z</time>
      </trkpt>
      <trkpt lat="41.1512870" lon="-8.5691620">
        <ele>46.3</ele>
        <time>2021-05-15T16:33:03Z</time>
      </trkpt>
      <trkpt lat="41.1512760" lon="-8.5691740">
        <ele>46.7</ele>
        <time>2021-05-15T16:33:04Z</time>
      </trkpt>
      <trkpt lat="41.1512660" lon="-8.5691780">
        <ele>47.0</ele>
        <time>2021-05-15T16:33:05Z</time>
      </trkpt>
      <trkpt lat="41.1512450" lon="-8.5691870">
        <ele>47.7</ele>
        <time>2021-05-15T16:33:06Z</time>
      </trkpt>
      <trkpt lat="41.1512350" lon="-8.5691950">
        <ele>48.0</ele>
        <time>2021-05-15T16:33:07Z</time>
      </trkpt>
      <trkpt lat="41.1512190" lon="-8.5692010">
        <ele>47.9</ele>
        <time>2021-05-15T16:33:08Z</time>
      </trkpt>
      <trkpt lat="41.1512070" lon="-8.5692110">
        <ele>47.8</ele>
        <time>2021-05-15T16:33:09Z</time>
      </trkpt>
      <trkpt lat="41.1511890" lon="-8.5692210">
        <ele>47.6</ele>
        <time>2021-05-15T16:33:10Z</time>
      </trkpt>
      <trkpt lat="41.1511770" lon="-8.5692260">
        <ele>47.5</ele>
        <time>2021-05-15T16:33:11Z</time>
      </trkpt>
      <trkpt lat="41.1511630" lon="-8.5692320">
        <ele>47.4</ele>
        <time>2021-05-15T16:33:12Z</time>
      </trkpt>
      <trkpt lat="41.1511520" lon="-8.5692560">
        <ele>47.2</ele>
        <time>2021-05-15T16:33:13Z</time>
      </trkpt>
      <trkpt lat="41.1511400" lon="-8.5692590">
        <ele>47.1</ele>
        <time>2021-05-15T16:33:14Z</time>
      </trkpt>
      <trkpt lat="41.1511250" lon="-8.5692680">
        <ele>47.0</ele>
        <time>2021-05-15T16:33:15Z</time>
      </trkpt>
      <trkpt lat="41.1511110" lon="-8.5692770">
        <ele>46.9</ele>
        <time>2021-05-15T16:33:16Z</time>
      </trkpt>
      <trkpt lat="41.1510840" lon="-8.5692880">
        <ele>46.7</ele>
        <time>2021-05-15T16:33:17Z</time>
      </trkpt>
      <trkpt lat="41.1510730" lon="-8.5692920">
        <ele>46.6</ele>
        <time>2021-05-15T16:33:18Z</time>
      </trkpt>
      <trkpt lat="41.1510620" lon="-8.5693080">
        <ele>46.5</ele>
        <time>2021-05-15T16:33:19Z</time>
      </trkpt>
      <trkpt lat="41.1510470" lon="-8.5693190">
        <ele>46.4</ele>
        <time>2021-05-15T16:33:20Z</time>
      </trkpt>
      <trkpt lat="41.1510330" lon="-8.5693350">
        <ele>46.2</ele>
        <time>2021-05-15T16:33:21Z</time>
      </trkpt>
      <trkpt lat="41.1510200" lon="-8.5693480">
        <ele>46.1</ele>
        <time>2021-05-15T16:33:22Z</time>
      </trkpt>
      <trkpt lat="41.1510090" lon="-8.5693620">
        <ele>46.0</ele>
        <time>2021-05-15T16:33:23Z</time>
      </trkpt>
      <trkpt lat="41.1509990" lon="-8.5693710">
        <ele>45.9</ele>
        <time>2021-05-15T16:33:24Z</time>
      </trkpt>
      <trkpt lat="41.1509880" lon="-8.5693780">
        <ele>45.8</ele>
        <time>2021-05-15T16:33:25Z</time>
      </trkpt>
      <trkpt lat="41.1509740" lon="-8.5693940">
        <ele>45.7</ele>
        <time>2021-05-15T16:33:26Z</time>
      </trkpt>
      <trkpt lat="41.1509640" lon="-8.5694020">
        <ele>45.6</ele>
        <time>2021-05-15T16:33:27Z</time>
      </trkpt>
      <trkpt lat="41.1509480" lon="-8.5694130">
        <ele>45.5</ele>
        <time>2021-05-15T16:33:28Z</time>
      </trkpt>
      <trkpt lat="41.1509360" lon="-8.5694260">
        <ele>45.4</ele>
        <time>2021-05-15T16:33:29Z</time>
      </trkpt>
      <trkpt lat="41.1509260" lon="-8.5694490">
        <ele>45.2</ele>
        <time>2021-05-15T16:33:30Z</time>
      </trkpt>
      <trkpt lat="41.1509170" lon="-8.5694590">
        <ele>45.2</ele>
        <time>2021-05-15T16:33:31Z</time>
      </trkpt>
      <trkpt lat="41.1509060" lon="-8.5694690">
        <ele>45.1</ele>
        <time>2021-05-15T16:33:32Z</time>
      </trkpt>
      <trkpt lat="41.1508890" lon="-8.5694820">
        <ele>44.9</ele>
        <time>2021-05-15T16:33:33Z</time>
      </trkpt>
      <trkpt lat="41.1508690" lon="-8.5694940">
        <ele>44.8</ele>
        <time>2021-05-15T16:33:34Z</time>
      </trkpt>
      <trkpt lat="41.1508550" lon="-8.5695050">
        <ele>44.7</ele>
        <time>2021-05-15T16:33:35Z</time>
      </trkpt>
      <trkpt lat="41.1508380" lon="-8.5695170">
        <ele>44.6</ele>
        <time>2021-05-15T16:33:36Z</time>
      </trkpt>
      <trkpt lat="41.1508260" lon="-8.5695340">
        <ele>44.4</ele>
        <time>2021-05-15T16:33:37Z</time>
      </trkpt>
      <trkpt lat="41.1508140" lon="-8.5695490">
        <ele>44.3</ele>
        <time>2021-05-15T16:33:38Z</time>
      </trkpt>
      <trkpt lat="41.1508030" lon="-8.5695600">
        <ele>44.3</ele>
        <time>2021-05-15T16:33:39Z</time>
      </trkpt>
      <trkpt lat="41.1507960" lon="-8.5695750">
        <ele>44.2</ele>
        <time>2021-05-15T16:33:40Z</time>
      </trkpt>
      <trkpt lat="41.1507890" lon="-8.5695830">
        <ele>44.1</ele>
        <time>2021-05-15T16:33:41Z</time>
      </trkpt>
      <trkpt lat="41.1507790" lon="-8.5695940">
        <ele>44.0</ele>
        <time>2021-05-15T16:33:42Z</time>
      </trkpt>
      <trkpt lat="41.1507690" lon="-8.5696150">
        <ele>43.9</ele>
        <time>2021-05-15T16:33:43Z</time>
      </trkpt>
      <trkpt lat="41.1507640" lon="-8.5696330">
        <ele>43.8</ele>
        <time>2021-05-15T16:33:44Z</time>
      </trkpt>
      <trkpt lat="41.1507540" lon="-8.5696470">
        <ele>43.7</ele>
        <time>2021-05-15T16:33:45Z</time>
      </trkpt>
      <trkpt lat="41.1507500" lon="-8.5696650">
        <ele>43.6</ele>
        <time>2021-05-15T16:33:46Z</time>
      </trkpt>
      <trkpt lat="41.1507350" lon="-8.5696800">
        <ele>43.4</ele>
        <time>2021-05-15T16:33:47Z</time>
      </trkpt>
      <trkpt lat="41.1507240" lon="-8.5696860">
        <ele>43.4</ele>
        <time>2021-05-15T16:33:48Z</time>
      </trkpt>
      <trkpt lat="41.1507110" lon="-8.5696980">
        <ele>43.2</ele>
        <time>2021-05-15T16:33:49Z</time>
      </trkpt>
      <trkpt lat="41.1507060" lon="-8.5697080">
        <ele>43.2</ele>
        <time>2021-05-15T16:33:50Z</time>
      </trkpt>
      <trkpt lat="41.1506970" lon="-8.5697280">
        <ele>43.0</ele>
        <time>2021-05-15T16:33:51Z</time>
      </trkpt>
      <trkpt lat="41.1506870" lon="-8.5697360">
        <ele>43.0</ele>
        <time>2021-05-15T16:33:52Z</time>
      </trkpt>
      <trkpt lat="41.1506730" lon="-8.5697620">
        <ele>42.8</ele>
        <time>2021-05-15T16:33:53Z</time>
      </trkpt>
      <trkpt lat="41.1506720" lon="-8.5697730">
        <ele>42.7</ele>
        <time>2021-05-15T16:33:54Z</time>
      </trkpt>
      <trkpt lat="41.1506720" lon="-8.5697840">
        <ele>42.6</ele>
        <time>2021-05-15T16:33:55Z</time>
      </trkpt>
      <trkpt lat="41.1506470" lon="-8.5698080">
        <ele>42.4</ele>
        <time>2021-05-15T16:33:56Z</time>
      </trkpt>
      <trkpt lat="41.1506400" lon="-8.5698170">
        <ele>42.3</ele>
        <time>2021-05-15T16:33:57Z</time>
      </trkpt>
      <trkpt lat="41.1506280" lon="-8.5698260">
        <ele>42.2</ele>
        <time>2021-05-15T16:33:58Z</time>
      </trkpt>
      <trkpt lat="41.1506150" lon="-8.5698420">
        <ele>42.0</ele>
        <time>2021-05-15T16:33:59Z</time>
      </trkpt>
      <trkpt lat="41.1506040" lon="-8.5698640">
        <ele>41.8</ele>
        <time>2021-05-15T16:34:00Z</time>
      </trkpt>
      <trkpt lat="41.1505960" lon="-8.5698700">
        <ele>41.7</ele>
        <time>2021-05-15T16:34:01Z</time>
      </trkpt>
      <trkpt lat="41.1505890" lon="-8.5698750">
        <ele>41.7</ele>
        <time>2021-05-15T16:34:02Z</time>
      </trkpt>
      <trkpt lat="41.1505710" lon="-8.5699000">
        <ele>41.4</ele>
        <time>2021-05-15T16:34:03Z</time>
      </trkpt>
      <trkpt lat="41.1505650" lon="-8.5699100">
        <ele>41.3</ele>
        <time>2021-05-15T16:34:04Z</time>
      </trkpt>
      <trkpt lat="41.1505600" lon="-8.5699190">
        <ele>41.3</ele>
        <time>2021-05-15T16:34:05Z</time>
      </trkpt>
      <trkpt lat="41.1505440" lon="-8.5699390">
        <ele>41.1</ele>
        <time>2021-05-15T16:34:06Z</time>
      </trkpt>
      <trkpt lat="41.1505370" lon="-8.5699450">
        <ele>41.0</ele>
        <time>2021-05-15T16:34:07Z</time>
      </trkpt>
      <trkpt lat="41.1505310" lon="-8.5699500">
        <ele>40.9</ele>
        <time>2021-05-15T16:34:08Z</time>
      </trkpt>
      <trkpt lat="41.1505180" lon="-8.5699660">
        <ele>40.7</ele>
        <time>2021-05-15T16:34:09Z</time>
      </trkpt>
      <trkpt lat="41.1505020" lon="-8.5699750">
        <ele>40.5</ele>
        <time>2021-05-15T16:34:10Z</time>
      </trkpt>
      <trkpt lat="41.1504960" lon="-8.5699870">
        <ele>40.4</ele>
        <time>2021-05-15T16:34:11Z</time>
      </trkpt>
      <trkpt lat="41.1504800" lon="-8.5700050">
        <ele>40.2</ele>
        <time>2021-05-15T16:34:12Z</time>
      </trkpt>
      <trkpt lat="41.1504690" lon="-8.5700200">
        <ele>40.1</ele>
        <time>2021-05-15T16:34:13Z</time>
      </trkpt>
      <trkpt lat="41.1504600" lon="-8.5700360">
        <ele>39.9</ele>
        <time>2021-05-15T16:34:14Z</time>
      </trkpt>
      <trkpt lat="41.1504550" lon="-8.5700530">
        <ele>39.8</ele>
        <time>2021-05-15T16:34:15Z</time>
      </trkpt>
      <trkpt lat="41.1504330" lon="-8.5700630">
        <ele>39.6</ele>
        <time>2021-05-15T16:34:16Z</time>
      </trkpt>
      <trkpt lat="41.1504250" lon="-8.5700850">
        <ele>39.4</ele>
        <time>2021-05-15T16:34:17Z</time>
      </trkpt>
      <trkpt lat="41.1504120" lon="-8.5700990">
        <ele>39.2</ele>
        <time>2021-05-15T16:34:18Z</time>
      </trkpt>
      <trkpt lat="41.1503950" lon="-8.5701270">
        <ele>39.0</ele>
        <time>2021-05-15T16:34:19Z</time>
      </trkpt>
      <trkpt lat="41.1503910" lon="-8.5701390">
        <ele>38.9</ele>
        <time>2021-05-15T16:34:20Z</time>
      </trkpt>
      <trkpt lat="41.1503740" lon="-8.5701510">
        <ele>38.7</ele>
        <time>2021-05-15T16:34:21Z</time>
      </trkpt>
      <trkpt lat="41.1503650" lon="-8.5701700">
        <ele>38.5</ele>
        <time>2021-05-15T16:34:22Z</time>
      </trkpt>
      <trkpt lat="41.1503520" lon="-8.5701830">
        <ele>38.4</ele>
        <time>2021-05-15T16:34:23Z</time>
      </trkpt>
      <trkpt lat="41.1503420" lon="-8.5701890">
        <ele>38.3</ele>
        <time>2021-05-15T16:34:24Z</time>
      </trkpt>
      <trkpt lat="41.1503270" lon="-8.5702110">
        <ele>38.1</ele>
        <time>2021-05-15T16:34:25Z</time>
      </trkpt>
      <trkpt lat="41.1503210" lon="-8.5702220">
        <ele>38.0</ele>
        <time>2021-05-15T16:34:26Z</time>
      </trkpt>
      <trkpt lat="41.1503150" lon="-8.5702320">
        <ele>37.9</ele>
        <time>2021-05-15T16:34:27Z</time>
      </trkpt>
      <trkpt lat="41.1502970" lon="-8.5702460">
        <ele>37.7</ele>
        <time>2021-05-15T16:34:28Z</time>
      </trkpt>
      <trkpt lat="41.1502920" lon="-8.5702550">
        <ele>37.6</ele>
        <time>2021-05-15T16:34:29Z</time>
      </trkpt>
      <trkpt lat="41.1502870" lon="-8.5702650">
        <ele>37.5</ele>
        <time>2021-05-15T16:34:30Z</time>
      </trkpt>
      <trkpt lat="41.1502710" lon="-8.5702860">
        <ele>37.3</ele>
        <time>2021-05-15T16:34:31Z</time>
      </trkpt>
      <trkpt lat="41.1502640" lon="-8.5702920">
        <ele>37.3</ele>
        <time>2021-05-15T16:34:32Z</time>
      </trkpt>
      <trkpt lat="41.1502570" lon="-8.5702990">
        <ele>37.2</ele>
        <time>2021-05-15T16:34:33Z</time>
      </trkpt>
      <trkpt lat="41.1502420" lon="-8.5703090">
        <ele>37.0</ele>
        <time>2021-05-15T16:34:34Z</time>
      </trkpt>
      <trkpt lat="41.1502330" lon="-8.5703150">
        <ele>36.9</ele>
        <time>2021-05-15T16:34:35Z</time>
      </trkpt>
      <trkpt lat="41.1502180" lon="-8.5703340">
        <ele>36.7</ele>
        <time>2021-05-15T16:34:36Z</time>
      </trkpt>
      <trkpt lat="41.1502120" lon="-8.5703420">
        <ele>36.7</ele>
        <time>2021-05-15T16:34:37Z</time>
      </trkpt>
      <trkpt lat="41.1502050" lon="-8.5703510">
        <ele>36.6</ele>
        <time>2021-05-15T16:34:38Z</time>
      </trkpt>
      <trkpt lat="41.1501880" lon="-8.5703620">
        <ele>36.4</ele>
        <time>2021-05-15T16:34:39Z</time>
      </trkpt>
      <trkpt lat="41.1501790" lon="-8.5703770">
        <ele>36.3</ele>
        <time>2021-05-15T16:34:40Z</time>
      </trkpt>
      <trkpt lat="41.1501700" lon="-8.5703800">
        <ele>36.2</ele>
        <time>2021-05-15T16:34:41Z</time>
      </trkpt>
      <trkpt lat="41.1501570" lon="-8.5703960">
        <ele>36.0</ele>
        <time>2021-05-15T16:34:42Z</time>
      </trkpt>
      <trkpt lat="41.1501510" lon="-8.5704020">
        <ele>36.0</ele>
        <time>2021-05-15T16:34:43Z</time>
      </trkpt>
      <trkpt lat="41.1501390" lon="-8.5704260">
        <ele>35.8</ele>
        <time>2021-05-15T16:34:44Z</time>
      </trkpt>
      <trkpt lat="41.1501270" lon="-8.5704280">
        <ele>35.6</ele>
        <time>2021-05-15T16:34:45Z</time>
      </trkpt>
      <trkpt lat="41.1501180" lon="-8.5704430">
        <ele>35.5</ele>
        <time>2021-05-15T16:34:46Z</time>
      </trkpt>
      <trkpt lat="41.1501120" lon="-8.5704500">
        <ele>35.4</ele>
        <time>2021-05-15T16:34:47Z</time>
      </trkpt>
      <trkpt lat="41.1501050" lon="-8.5704560">
        <ele>35.4</ele>
        <time>2021-05-15T16:34:48Z</time>
      </trkpt>
      <trkpt lat="41.1500990" lon="-8.5704630">
        <ele>35.3</ele>
        <time>2021-05-15T16:34:49Z</time>
      </trkpt>
      <trkpt lat="41.1500920" lon="-8.5704760">
        <ele>35.2</ele>
        <time>2021-05-15T16:34:51Z</time>
      </trkpt>
      <trkpt lat="41.1500770" lon="-8.5704930">
        <ele>35.2</ele>
        <time>2021-05-15T16:34:52Z</time>
      </trkpt>
      <trkpt lat="41.1500580" lon="-8.5705240">
        <ele>35.0</ele>
        <time>2021-05-15T16:34:53Z</time>
      </trkpt>
      <trkpt lat="41.1500520" lon="-8.5705340">
        <ele>35.0</ele>
        <time>2021-05-15T16:34:54Z</time>
      </trkpt>
      <trkpt lat="41.1500400" lon="-8.5705490">
        <ele>34.9</ele>
        <time>2021-05-15T16:34:55Z</time>
      </trkpt>
      <trkpt lat="41.1500320" lon="-8.5705700">
        <ele>34.8</ele>
        <time>2021-05-15T16:34:56Z</time>
      </trkpt>
      <trkpt lat="41.1500180" lon="-8.5705840">
        <ele>34.7</ele>
        <time>2021-05-15T16:34:57Z</time>
      </trkpt>
      <trkpt lat="41.1500100" lon="-8.5705930">
        <ele>34.6</ele>
        <time>2021-05-15T16:34:58Z</time>
      </trkpt>
      <trkpt lat="41.1500000" lon="-8.5706090">
        <ele>34.6</ele>
        <time>2021-05-15T16:34:59Z</time>
      </trkpt>
      <trkpt lat="41.1499940" lon="-8.5706240">
        <ele>34.5</ele>
        <time>2021-05-15T16:35:00Z</time>
      </trkpt>
      <trkpt lat="41.1499810" lon="-8.5706450">
        <ele>34.4</ele>
        <time>2021-05-15T16:35:01Z</time>
      </trkpt>
      <trkpt lat="41.1499700" lon="-8.5706570">
        <ele>34.3</ele>
        <time>2021-05-15T16:35:02Z</time>
      </trkpt>
      <trkpt lat="41.1499590" lon="-8.5706750">
        <ele>34.2</ele>
        <time>2021-05-15T16:35:03Z</time>
      </trkpt>
      <trkpt lat="41.1499560" lon="-8.5706950">
        <ele>34.1</ele>
        <time>2021-05-15T16:35:04Z</time>
      </trkpt>
      <trkpt lat="41.1499430" lon="-8.5707070">
        <ele>34.0</ele>
        <time>2021-05-15T16:35:05Z</time>
      </trkpt>
      <trkpt lat="41.1499360" lon="-8.5707280">
        <ele>33.9</ele>
        <time>2021-05-15T16:35:06Z</time>
      </trkpt>
      <trkpt lat="41.1499280" lon="-8.5707350">
        <ele>33.9</ele>
        <time>2021-05-15T16:35:07Z</time>
      </trkpt>
      <trkpt lat="41.1499130" lon="-8.5707570">
        <ele>33.8</ele>
        <time>2021-05-15T16:35:08Z</time>
      </trkpt>
      <trkpt lat="41.1499040" lon="-8.5707720">
        <ele>33.7</ele>
        <time>2021-05-15T16:35:09Z</time>
      </trkpt>
      <trkpt lat="41.1498980" lon="-8.5707890">
        <ele>33.7</ele>
        <time>2021-05-15T16:35:10Z</time>
      </trkpt>
      <trkpt lat="41.1498820" lon="-8.5708020">
        <ele>33.6</ele>
        <time>2021-05-15T16:35:11Z</time>
      </trkpt>
      <trkpt lat="41.1498730" lon="-8.5708180">
        <ele>33.6</ele>
        <time>2021-05-15T16:35:12Z</time>
      </trkpt>
      <trkpt lat="41.1498600" lon="-8.5708310">
        <ele>33.5</ele>
        <time>2021-05-15T16:35:13Z</time>
      </trkpt>
      <trkpt lat="41.1498520" lon="-8.5708450">
        <ele>33.5</ele>
        <time>2021-05-15T16:35:14Z</time>
      </trkpt>
      <trkpt lat="41.1498420" lon="-8.5708570">
        <ele>33.5</ele>
        <time>2021-05-15T16:35:15Z</time>
      </trkpt>
      <trkpt lat="41.1498340" lon="-8.5708780">
        <ele>33.5</ele>
        <time>2021-05-15T16:35:16Z</time>
      </trkpt>
      <trkpt lat="41.1498280" lon="-8.5708950">
        <ele>33.5</ele>
        <time>2021-05-15T16:35:17Z</time>
      </trkpt>
      <trkpt lat="41.1498220" lon="-8.5709110">
        <ele>33.4</ele>
        <time>2021-05-15T16:35:18Z</time>
      </trkpt>
      <trkpt lat="41.1498000" lon="-8.5709220">
        <ele>33.4</ele>
        <time>2021-05-15T16:35:19Z</time>
      </trkpt>
      <trkpt lat="41.1497930" lon="-8.5709300">
        <ele>33.4</ele>
        <time>2021-05-15T16:35:20Z</time>
      </trkpt>
      <trkpt lat="41.1497850" lon="-8.5709370">
        <ele>33.4</ele>
        <time>2021-05-15T16:35:21Z</time>
      </trkpt>
      <trkpt lat="41.1497750" lon="-8.5709480">
        <ele>33.4</ele>
        <time>2021-05-15T16:35:22Z</time>
      </trkpt>
      <trkpt lat="41.1497630" lon="-8.5709620">
        <ele>33.3</ele>
        <time>2021-05-15T16:35:23Z</time>
      </trkpt>
      <trkpt lat="41.1497530" lon="-8.5709770">
        <ele>33.3</ele>
        <time>2021-05-15T16:35:24Z</time>
      </trkpt>
      <trkpt lat="41.1497290" lon="-8.5710190">
        <ele>33.3</ele>
        <time>2021-05-15T16:35:25Z</time>
      </trkpt>
      <trkpt lat="41.1497190" lon="-8.5710340">
        <ele>33.2</ele>
        <time>2021-05-15T16:35:26Z</time>
      </trkpt>
      <trkpt lat="41.1497060" lon="-8.5710510">
        <ele>33.2</ele>
        <time>2021-05-15T16:35:27Z</time>
      </trkpt>
      <trkpt lat="41.1496940" lon="-8.5710650">
        <ele>33.2</ele>
        <time>2021-05-15T16:35:28Z</time>
      </trkpt>
      <trkpt lat="41.1496800" lon="-8.5710810">
        <ele>33.2</ele>
        <time>2021-05-15T16:35:29Z</time>
      </trkpt>
      <trkpt lat="41.1496660" lon="-8.5710920">
        <ele>33.1</ele>
        <time>2021-05-15T16:35:30Z</time>
      </trkpt>
      <trkpt lat="41.1496500" lon="-8.5711020">
        <ele>33.1</ele>
        <time>2021-05-15T16:35:31Z</time>
      </trkpt>
      <trkpt lat="41.1496390" lon="-8.5711140">
        <ele>33.1</ele>
        <time>2021-05-15T16:35:32Z</time>
      </trkpt>
      <trkpt lat="41.1496280" lon="-8.5711240">
        <ele>33.1</ele>
        <time>2021-05-15T16:35:33Z</time>
      </trkpt>
      <trkpt lat="41.1496160" lon="-8.5711360">
        <ele>33.0</ele>
        <time>2021-05-15T16:35:34Z</time>
      </trkpt>
      <trkpt lat="41.1496030" lon="-8.5711500">
        <ele>33.0</ele>
        <time>2021-05-15T16:35:35Z</time>
      </trkpt>
      <trkpt lat="41.1495940" lon="-8.5711630">
        <ele>33.0</ele>
        <time>2021-05-15T16:35:36Z</time>
      </trkpt>
      <trkpt lat="41.1495800" lon="-8.5711860">
        <ele>32.9</ele>
        <time>2021-05-15T16:35:37Z</time>
      </trkpt>
      <trkpt lat="41.1495710" lon="-8.5711940">
        <ele>32.9</ele>
        <time>2021-05-15T16:35:38Z</time>
      </trkpt>
      <trkpt lat="41.1495610" lon="-8.5712030">
        <ele>32.9</ele>
        <time>2021-05-15T16:35:39Z</time>
      </trkpt>
      <trkpt lat="41.1495510" lon="-8.5712140">
        <ele>32.9</ele>
        <time>2021-05-15T16:35:40Z</time>
      </trkpt>
      <trkpt lat="41.1495390" lon="-8.5712280">
        <ele>32.8</ele>
        <time>2021-05-15T16:35:41Z</time>
      </trkpt>
      <trkpt lat="41.1495170" lon="-8.5712420">
        <ele>32.8</ele>
        <time>2021-05-15T16:35:42Z</time>
      </trkpt>
      <trkpt lat="41.1495090" lon="-8.5712500">
        <ele>32.8</ele>
        <time>2021-05-15T16:35:43Z</time>
      </trkpt>
      <trkpt lat="41.1495000" lon="-8.5712570">
        <ele>32.8</ele>
        <time>2021-05-15T16:35:44Z</time>
      </trkpt>
      <trkpt lat="41.1494870" lon="-8.5712810">
        <ele>32.8</ele>
        <time>2021-05-15T16:35:45Z</time>
      </trkpt>
      <trkpt lat="41.1494790" lon="-8.5712910">
        <ele>32.7</ele>
        <time>2021-05-15T16:35:46Z</time>
      </trkpt>
      <trkpt lat="41.1494720" lon="-8.5713010">
        <ele>32.7</ele>
        <time>2021-05-15T16:35:47Z</time>
      </trkpt>
      <trkpt lat="41.1494590" lon="-8.5713190">
        <ele>32.7</ele>
        <time>2021-05-15T16:35:48Z</time>
      </trkpt>
      <trkpt lat="41.1494470" lon="-8.5713230">
        <ele>32.7</ele>
        <time>2021-05-15T16:35:49Z</time>
      </trkpt>
      <trkpt lat="41.1494280" lon="-8.5713290">
        <ele>32.7</ele>
        <time>2021-05-15T16:35:50Z</time>
      </trkpt>
      <trkpt lat="41.1494150" lon="-8.5713420">
        <ele>32.8</ele>
        <time>2021-05-15T16:35:51Z</time>
      </trkpt>
      <trkpt lat="41.1494050" lon="-8.5713570">
        <ele>32.8</ele>
        <time>2021-05-15T16:35:52Z</time>
      </trkpt>
      <trkpt lat="41.1493980" lon="-8.5713730">
        <ele>32.9</ele>
        <time>2021-05-15T16:35:53Z</time>
      </trkpt>
      <trkpt lat="41.1493780" lon="-8.5713850">
        <ele>33.0</ele>
        <time>2021-05-15T16:35:54Z</time>
      </trkpt>
      <trkpt lat="41.1493710" lon="-8.5713890">
        <ele>33.1</ele>
        <time>2021-05-15T16:35:55Z</time>
      </trkpt>
      <trkpt lat="41.1493630" lon="-8.5713940">
        <ele>33.1</ele>
        <time>2021-05-15T16:35:56Z</time>
      </trkpt>
      <trkpt lat="41.1493500" lon="-8.5714020">
        <ele>33.2</ele>
        <time>2021-05-15T16:35:57Z</time>
      </trkpt>
      <trkpt lat="41.1493390" lon="-8.5714190">
        <ele>33.3</ele>
        <time>2021-05-15T16:35:58Z</time>
      </trkpt>
      <trkpt lat="41.1493210" lon="-8.5714410">
        <ele>33.4</ele>
        <time>2021-05-15T16:35:59Z</time>
      </trkpt>
      <trkpt lat="41.1493150" lon="-8.5714470">
        <ele>33.4</ele>
        <time>2021-05-15T16:36:00Z</time>
      </trkpt>
      <trkpt lat="41.1493090" lon="-8.5714540">
        <ele>33.5</ele>
        <time>2021-05-15T16:36:01Z</time>
      </trkpt>
      <trkpt lat="41.1492850" lon="-8.5714770">
        <ele>33.6</ele>
        <time>2021-05-15T16:36:02Z</time>
      </trkpt>
      <trkpt lat="41.1492780" lon="-8.5714840">
        <ele>33.7</ele>
        <time>2021-05-15T16:36:03Z</time>
      </trkpt>
      <trkpt lat="41.1492670" lon="-8.5714990">
        <ele>33.8</ele>
        <time>2021-05-15T16:36:04Z</time>
      </trkpt>
      <trkpt lat="41.1492570" lon="-8.5715190">
        <ele>33.9</ele>
        <time>2021-05-15T16:36:05Z</time>
      </trkpt>
      <trkpt lat="41.1492460" lon="-8.5715290">
        <ele>33.9</ele>
        <time>2021-05-15T16:36:06Z</time>
      </trkpt>
      <trkpt lat="41.1492430" lon="-8.5715410">
        <ele>34.0</ele>
        <time>2021-05-15T16:36:07Z</time>
      </trkpt>
      <trkpt lat="41.1492330" lon="-8.5715450">
        <ele>34.0</ele>
        <time>2021-05-15T16:36:08Z</time>
      </trkpt>
      <trkpt lat="41.1492260" lon="-8.5715660">
        <ele>34.1</ele>
        <time>2021-05-15T16:36:09Z</time>
      </trkpt>
      <trkpt lat="41.1492190" lon="-8.5715760">
        <ele>34.2</ele>
        <time>2021-05-15T16:36:10Z</time>
      </trkpt>
      <trkpt lat="41.1492040" lon="-8.5715840">
        <ele>34.3</ele>
        <time>2021-05-15T16:36:11Z</time>
      </trkpt>
      <trkpt lat="41.1491940" lon="-8.5716010">
        <ele>34.4</ele>
        <time>2021-05-15T16:36:12Z</time>
      </trkpt>
      <trkpt lat="41.1491840" lon="-8.5716200">
        <ele>34.4</ele>
        <time>2021-05-15T16:36:13Z</time>
      </trkpt>
      <trkpt lat="41.1491730" lon="-8.5716380">
        <ele>34.5</ele>
        <time>2021-05-15T16:36:14Z</time>
      </trkpt>
      <trkpt lat="41.1491630" lon="-8.5716520">
        <ele>34.6</ele>
        <time>2021-05-15T16:36:15Z</time>
      </trkpt>
      <trkpt lat="41.1491510" lon="-8.5716630">
        <ele>34.7</ele>
        <time>2021-05-15T16:36:16Z</time>
      </trkpt>
      <trkpt lat="41.1491440" lon="-8.5716810">
        <ele>34.8</ele>
        <time>2021-05-15T16:36:17Z</time>
      </trkpt>
      <trkpt lat="41.1491380" lon="-8.5716940">
        <ele>34.8</ele>
        <time>2021-05-15T16:36:18Z</time>
      </trkpt>
      <trkpt lat="41.1491310" lon="-8.5717140">
        <ele>34.9</ele>
        <time>2021-05-15T16:36:19Z</time>
      </trkpt>
      <trkpt lat="41.1491220" lon="-8.5717260">
        <ele>34.9</ele>
        <time>2021-05-15T16:36:20Z</time>
      </trkpt>
      <trkpt lat="41.1491100" lon="-8.5717450">
        <ele>35.0</ele>
        <time>2021-05-15T16:36:21Z</time>
      </trkpt>
      <trkpt lat="41.1491000" lon="-8.5717580">
        <ele>35.1</ele>
        <time>2021-05-15T16:36:22Z</time>
      </trkpt>
      <trkpt lat="41.1490900" lon="-8.5717760">
        <ele>35.2</ele>
        <time>2021-05-15T16:36:23Z</time>
      </trkpt>
      <trkpt lat="41.1490860" lon="-8.5717840">
        <ele>35.2</ele>
        <time>2021-05-15T16:36:24Z</time>
      </trkpt>
      <trkpt lat="41.1490800" lon="-8.5718030">
        <ele>35.3</ele>
        <time>2021-05-15T16:36:26Z</time>
      </trkpt>
      <trkpt lat="41.1490710" lon="-8.5718140">
        <ele>35.3</ele>
        <time>2021-05-15T16:36:27Z</time>
      </trkpt>
      <trkpt lat="41.1490610" lon="-8.5718370">
        <ele>35.4</ele>
        <time>2021-05-15T16:36:28Z</time>
      </trkpt>
      <trkpt lat="41.1490550" lon="-8.5718530">
        <ele>35.5</ele>
        <time>2021-05-15T16:36:29Z</time>
      </trkpt>
      <trkpt lat="41.1490500" lon="-8.5718560">
        <ele>35.5</ele>
        <time>2021-05-15T16:36:30Z</time>
      </trkpt>
      <trkpt lat="41.1490460" lon="-8.5718660">
        <ele>35.5</ele>
        <time>2021-05-15T16:36:31Z</time>
      </trkpt>
      <trkpt lat="41.1490420" lon="-8.5718750">
        <ele>35.5</ele>
        <time>2021-05-15T16:36:32Z</time>
      </trkpt>
      <trkpt lat="41.1490350" lon="-8.5718960">
        <ele>35.5</ele>
        <time>2021-05-15T16:36:33Z</time>
      </trkpt>
      <trkpt lat="41.1490280" lon="-8.5719180">
        <ele>35.5</ele>
        <time>2021-05-15T16:36:34Z</time>
      </trkpt>
      <trkpt lat="41.1490230" lon="-8.5719360">
        <ele>35.5</ele>
        <time>2021-05-15T16:36:35Z</time>
      </trkpt>
      <trkpt lat="41.1490200" lon="-8.5719540">
        <ele>35.5</ele>
        <time>2021-05-15T16:36:36Z</time>
      </trkpt>
      <trkpt lat="41.1490190" lon="-8.5719740">
        <ele>35.6</ele>
        <time>2021-05-15T16:36:37Z</time>
      </trkpt>
      <trkpt lat="41.1490240" lon="-8.5719840">
        <ele>35.6</ele>
        <time>2021-05-15T16:36:38Z</time>
      </trkpt>
      <trkpt lat="41.1490190" lon="-8.5719970">
        <ele>35.6</ele>
        <time>2021-05-15T16:36:39Z</time>
      </trkpt>
      <trkpt lat="41.1490160" lon="-8.5720150">
        <ele>35.6</ele>
        <time>2021-05-15T16:36:40Z</time>
      </trkpt>
      <trkpt lat="41.1490100" lon="-8.5720350">
        <ele>35.6</ele>
        <time>2021-05-15T16:36:41Z</time>
      </trkpt>
      <trkpt lat="41.1490010" lon="-8.5720570">
        <ele>35.6</ele>
        <time>2021-05-15T16:36:42Z</time>
      </trkpt>
      <trkpt lat="41.1490010" lon="-8.5720720">
        <ele>35.6</ele>
        <time>2021-05-15T16:36:43Z</time>
      </trkpt>
      <trkpt lat="41.1489930" lon="-8.5720940">
        <ele>35.6</ele>
        <time>2021-05-15T16:36:44Z</time>
      </trkpt>
      <trkpt lat="41.1489970" lon="-8.5721140">
        <ele>35.6</ele>
        <time>2021-05-15T16:36:45Z</time>
      </trkpt>
      <trkpt lat="41.1489960" lon="-8.5721350">
        <ele>35.6</ele>
        <time>2021-05-15T16:36:46Z</time>
      </trkpt>
      <trkpt lat="41.1489920" lon="-8.5721500">
        <ele>35.6</ele>
        <time>2021-05-15T16:36:47Z</time>
      </trkpt>
      <trkpt lat="41.1489860" lon="-8.5721690">
        <ele>35.6</ele>
        <time>2021-05-15T16:36:48Z</time>
      </trkpt>
      <trkpt lat="41.1489780" lon="-8.5721890">
        <ele>35.6</ele>
        <time>2021-05-15T16:36:49Z</time>
      </trkpt>
      <trkpt lat="41.1489700" lon="-8.5722060">
        <ele>35.6</ele>
        <time>2021-05-15T16:36:50Z</time>
      </trkpt>
      <trkpt lat="41.1489650" lon="-8.5722220">
        <ele>35.6</ele>
        <time>2021-05-15T16:36:51Z</time>
      </trkpt>
      <trkpt lat="41.1489590" lon="-8.5722420">
        <ele>35.6</ele>
        <time>2021-05-15T16:36:52Z</time>
      </trkpt>
      <trkpt lat="41.1489510" lon="-8.5722630">
        <ele>35.6</ele>
        <time>2021-05-15T16:36:53Z</time>
      </trkpt>
      <trkpt lat="41.1489470" lon="-8.5722800">
        <ele>35.6</ele>
        <time>2021-05-15T16:36:54Z</time>
      </trkpt>
      <trkpt lat="41.1489370" lon="-8.5722950">
        <ele>35.5</ele>
        <time>2021-05-15T16:36:55Z</time>
      </trkpt>
      <trkpt lat="41.1489370" lon="-8.5723150">
        <ele>35.5</ele>
        <time>2021-05-15T16:36:56Z</time>
      </trkpt>
      <trkpt lat="41.1489310" lon="-8.5723330">
        <ele>35.5</ele>
        <time>2021-05-15T16:36:57Z</time>
      </trkpt>
      <trkpt lat="41.1489210" lon="-8.5723540">
        <ele>35.5</ele>
        <time>2021-05-15T16:36:58Z</time>
      </trkpt>
      <trkpt lat="41.1489120" lon="-8.5723620">
        <ele>35.5</ele>
        <time>2021-05-15T16:36:59Z</time>
      </trkpt>
      <trkpt lat="41.1489060" lon="-8.5723820">
        <ele>35.5</ele>
        <time>2021-05-15T16:37:00Z</time>
      </trkpt>
      <trkpt lat="41.1488980" lon="-8.5723980">
        <ele>35.5</ele>
        <time>2021-05-15T16:37:01Z</time>
      </trkpt>
      <trkpt lat="41.1488900" lon="-8.5724210">
        <ele>35.5</ele>
        <time>2021-05-15T16:37:02Z</time>
      </trkpt>
      <trkpt lat="41.1488890" lon="-8.5724360">
        <ele>35.5</ele>
        <time>2021-05-15T16:37:03Z</time>
      </trkpt>
      <trkpt lat="41.1488830" lon="-8.5724550">
        <ele>35.5</ele>
        <time>2021-05-15T16:37:04Z</time>
      </trkpt>
      <trkpt lat="41.1488760" lon="-8.5724740">
        <ele>35.5</ele>
        <time>2021-05-15T16:37:05Z</time>
      </trkpt>
      <trkpt lat="41.1488600" lon="-8.5724970">
        <ele>35.5</ele>
        <time>2021-05-15T16:37:06Z</time>
      </trkpt>
      <trkpt lat="41.1488550" lon="-8.5725090">
        <ele>35.5</ele>
        <time>2021-05-15T16:37:07Z</time>
      </trkpt>
      <trkpt lat="41.1488490" lon="-8.5725210">
        <ele>35.5</ele>
        <time>2021-05-15T16:37:08Z</time>
      </trkpt>
      <trkpt lat="41.1488390" lon="-8.5725370">
        <ele>35.5</ele>
        <time>2021-05-15T16:37:09Z</time>
      </trkpt>
      <trkpt lat="41.1488290" lon="-8.5725510">
        <ele>35.6</ele>
        <time>2021-05-15T16:37:10Z</time>
      </trkpt>
      <trkpt lat="41.1488180" lon="-8.5725620">
        <ele>35.6</ele>
        <time>2021-05-15T16:37:11Z</time>
      </trkpt>
      <trkpt lat="41.1488080" lon="-8.5725760">
        <ele>35.6</ele>
        <time>2021-05-15T16:37:12Z</time>
      </trkpt>
      <trkpt lat="41.1487970" lon="-8.5725920">
        <ele>35.6</ele>
        <time>2021-05-15T16:37:13Z</time>
      </trkpt>
      <trkpt lat="41.1487880" lon="-8.5726050">
        <ele>35.6</ele>
        <time>2021-05-15T16:37:14Z</time>
      </trkpt>
      <trkpt lat="41.1487730" lon="-8.5726240">
        <ele>35.6</ele>
        <time>2021-05-15T16:37:15Z</time>
      </trkpt>
      <trkpt lat="41.1487660" lon="-8.5726340">
        <ele>35.6</ele>
        <time>2021-05-15T16:37:16Z</time>
      </trkpt>
      <trkpt lat="41.1487600" lon="-8.5726440">
        <ele>35.6</ele>
        <time>2021-05-15T16:37:17Z</time>
      </trkpt>
      <trkpt lat="41.1487500" lon="-8.5726590">
        <ele>35.7</ele>
        <time>2021-05-15T16:37:18Z</time>
      </trkpt>
      <trkpt lat="41.1487340" lon="-8.5726690">
        <ele>35.7</ele>
        <time>2021-05-15T16:37:19Z</time>
      </trkpt>
      <trkpt lat="41.1487280" lon="-8.5726740">
        <ele>35.8</ele>
        <time>2021-05-15T16:37:20Z</time>
      </trkpt>
      <trkpt lat="41.1487160" lon="-8.5726870">
        <ele>35.8</ele>
        <time>2021-05-15T16:37:21Z</time>
      </trkpt>
      <trkpt lat="41.1487050" lon="-8.5726980">
        <ele>35.9</ele>
        <time>2021-05-15T16:37:22Z</time>
      </trkpt>
      <trkpt lat="41.1486960" lon="-8.5727030">
        <ele>35.9</ele>
        <time>2021-05-15T16:37:23Z</time>
      </trkpt>
      <trkpt lat="41.1486930" lon="-8.5727160">
        <ele>36.0</ele>
        <time>2021-05-15T16:37:24Z</time>
      </trkpt>
      <trkpt lat="41.1486790" lon="-8.5727290">
        <ele>36.0</ele>
        <time>2021-05-15T16:37:25Z</time>
      </trkpt>
      <trkpt lat="41.1486700" lon="-8.5727340">
        <ele>36.1</ele>
        <time>2021-05-15T16:37:26Z</time>
      </trkpt>
      <trkpt lat="41.1486550" lon="-8.5727460">
        <ele>36.2</ele>
        <time>2021-05-15T16:37:27Z</time>
      </trkpt>
      <trkpt lat="41.1486450" lon="-8.5727540">
        <ele>36.2</ele>
        <time>2021-05-15T16:37:28Z</time>
      </trkpt>
      <trkpt lat="41.1486270" lon="-8.5727580">
        <ele>36.3</ele>
        <time>2021-05-15T16:37:29Z</time>
      </trkpt>
      <trkpt lat="41.1486140" lon="-8.5727690">
        <ele>36.3</ele>
        <time>2021-05-15T16:37:30Z</time>
      </trkpt>
      <trkpt lat="41.1485890" lon="-8.5727770">
        <ele>36.5</ele>
        <time>2021-05-15T16:37:31Z</time>
      </trkpt>
      <trkpt lat="41.1485710" lon="-8.5727920">
        <ele>36.6</ele>
        <time>2021-05-15T16:37:32Z</time>
      </trkpt>
      <trkpt lat="41.1485590" lon="-8.5728010">
        <ele>36.6</ele>
        <time>2021-05-15T16:37:33Z</time>
      </trkpt>
      <trkpt lat="41.1485430" lon="-8.5728160">
        <ele>36.7</ele>
        <time>2021-05-15T16:37:34Z</time>
      </trkpt>
      <trkpt lat="41.1485230" lon="-8.5728280">
        <ele>36.8</ele>
        <time>2021-05-15T16:37:35Z</time>
      </trkpt>
      <trkpt lat="41.1485120" lon="-8.5728350">
        <ele>36.8</ele>
        <time>2021-05-15T16:37:36Z</time>
      </trkpt>
      <trkpt lat="41.1485010" lon="-8.5728430">
        <ele>36.9</ele>
        <time>2021-05-15T16:37:37Z</time>
      </trkpt>
      <trkpt lat="41.1484930" lon="-8.5728470">
        <ele>36.9</ele>
        <time>2021-05-15T16:37:38Z</time>
      </trkpt>
      <trkpt lat="41.1484730" lon="-8.5728530">
        <ele>37.0</ele>
        <time>2021-05-15T16:37:39Z</time>
      </trkpt>
      <trkpt lat="41.1484560" lon="-8.5728700">
        <ele>37.1</ele>
        <time>2021-05-15T16:37:40Z</time>
      </trkpt>
      <trkpt lat="41.1484490" lon="-8.5728670">
        <ele>37.2</ele>
        <time>2021-05-15T16:37:41Z</time>
      </trkpt>
      <trkpt lat="41.1484400" lon="-8.5728670">
        <ele>37.2</ele>
        <time>2021-05-15T16:37:42Z</time>
      </trkpt>
      <trkpt lat="41.1484230" lon="-8.5728730">
        <ele>37.3</ele>
        <time>2021-05-15T16:37:43Z</time>
      </trkpt>
      <trkpt lat="41.1484110" lon="-8.5728850">
        <ele>37.4</ele>
        <time>2021-05-15T16:37:44Z</time>
      </trkpt>
      <trkpt lat="41.1483890" lon="-8.5728980">
        <ele>37.5</ele>
        <time>2021-05-15T16:37:45Z</time>
      </trkpt>
      <trkpt lat="41.1483790" lon="-8.5729040">
        <ele>37.5</ele>
        <time>2021-05-15T16:37:46Z</time>
      </trkpt>
      <trkpt lat="41.1483680" lon="-8.5729110">
        <ele>37.6</ele>
        <time>2021-05-15T16:37:47Z</time>
      </trkpt>
      <trkpt lat="41.1483620" lon="-8.5729230">
        <ele>37.6</ele>
        <time>2021-05-15T16:37:48Z</time>
      </trkpt>
      <trkpt lat="41.1483410" lon="-8.5729300">
        <ele>37.7</ele>
        <time>2021-05-15T16:37:49Z</time>
      </trkpt>
      <trkpt lat="41.1483240" lon="-8.5729470">
        <ele>37.8</ele>
        <time>2021-05-15T16:37:50Z</time>
      </trkpt>
      <trkpt lat="41.1483160" lon="-8.5729530">
        <ele>37.9</ele>
        <time>2021-05-15T16:37:51Z</time>
      </trkpt>
      <trkpt lat="41.1483090" lon="-8.5729600">
        <ele>37.9</ele>
        <time>2021-05-15T16:37:52Z</time>
      </trkpt>
      <trkpt lat="41.1482940" lon="-8.5729680">
        <ele>38.0</ele>
        <time>2021-05-15T16:37:53Z</time>
      </trkpt>
      <trkpt lat="41.1482860" lon="-8.5729790">
        <ele>38.0</ele>
        <time>2021-05-15T16:37:54Z</time>
      </trkpt>
      <trkpt lat="41.1482600" lon="-8.5730040">
        <ele>38.1</ele>
        <time>2021-05-15T16:37:55Z</time>
      </trkpt>
      <trkpt lat="41.1482530" lon="-8.5730090">
        <ele>38.1</ele>
        <time>2021-05-15T16:37:56Z</time>
      </trkpt>
      <trkpt lat="41.1482380" lon="-8.5730190">
        <ele>38.1</ele>
        <time>2021-05-15T16:37:57Z</time>
      </trkpt>
      <trkpt lat="41.1482260" lon="-8.5730370">
        <ele>38.2</ele>
        <time>2021-05-15T16:37:58Z</time>
      </trkpt>
      <trkpt lat="41.1482140" lon="-8.5730490">
        <ele>38.2</ele>
        <time>2021-05-15T16:37:59Z</time>
      </trkpt>
      <trkpt lat="41.1482000" lon="-8.5730600">
        <ele>38.2</ele>
        <time>2021-05-15T16:38:00Z</time>
      </trkpt>
      <trkpt lat="41.1481780" lon="-8.5730750">
        <ele>38.2</ele>
        <time>2021-05-15T16:38:01Z</time>
      </trkpt>
      <trkpt lat="41.1481690" lon="-8.5730820">
        <ele>38.2</ele>
        <time>2021-05-15T16:38:02Z</time>
      </trkpt>
      <trkpt lat="41.1481590" lon="-8.5730880">
        <ele>38.2</ele>
        <time>2021-05-15T16:38:03Z</time>
      </trkpt>
      <trkpt lat="41.1481350" lon="-8.5731010">
        <ele>38.1</ele>
        <time>2021-05-15T16:38:04Z</time>
      </trkpt>
      <trkpt lat="41.1481250" lon="-8.5731070">
        <ele>38.1</ele>
        <time>2021-05-15T16:38:05Z</time>
      </trkpt>
      <trkpt lat="41.1481110" lon="-8.5731120">
        <ele>38.0</ele>
        <time>2021-05-15T16:38:06Z</time>
      </trkpt>
      <trkpt lat="41.1480950" lon="-8.5731210">
        <ele>38.0</ele>
        <time>2021-05-15T16:38:07Z</time>
      </trkpt>
      <trkpt lat="41.1480810" lon="-8.5731320">
        <ele>37.9</ele>
        <time>2021-05-15T16:38:08Z</time>
      </trkpt>
      <trkpt lat="41.1480650" lon="-8.5731330">
        <ele>37.9</ele>
        <time>2021-05-15T16:38:09Z</time>
      </trkpt>
      <trkpt lat="41.1480560" lon="-8.5731480">
        <ele>37.8</ele>
        <time>2021-05-15T16:38:10Z</time>
      </trkpt>
      <trkpt lat="41.1480440" lon="-8.5731530">
        <ele>37.7</ele>
        <time>2021-05-15T16:38:11Z</time>
      </trkpt>
      <trkpt lat="41.1480340" lon="-8.5731540">
        <ele>37.7</ele>
        <time>2021-05-15T16:38:12Z</time>
      </trkpt>
      <trkpt lat="41.1480150" lon="-8.5731560">
        <ele>37.6</ele>
        <time>2021-05-15T16:38:13Z</time>
      </trkpt>
      <trkpt lat="41.1480070" lon="-8.5731670">
        <ele>37.7</ele>
        <time>2021-05-15T16:38:14Z</time>
      </trkpt>
      <trkpt lat="41.1479940" lon="-8.5731820">
        <ele>37.7</ele>
        <time>2021-05-15T16:38:15Z</time>
      </trkpt>
      <trkpt lat="41.1479850" lon="-8.5731880">
        <ele>37.8</ele>
        <time>2021-05-15T16:38:16Z</time>
      </trkpt>
      <trkpt lat="41.1479580" lon="-8.5731990">
        <ele>37.9</ele>
        <time>2021-05-15T16:38:17Z</time>
      </trkpt>
      <trkpt lat="41.1479490" lon="-8.5732040">
        <ele>37.9</ele>
        <time>2021-05-15T16:38:18Z</time>
      </trkpt>
      <trkpt lat="41.1479360" lon="-8.5732120">
        <ele>37.9</ele>
        <time>2021-05-15T16:38:19Z</time>
      </trkpt>
      <trkpt lat="41.1479250" lon="-8.5732180">
        <ele>38.0</ele>
        <time>2021-05-15T16:38:20Z</time>
      </trkpt>
      <trkpt lat="41.1479170" lon="-8.5732260">
        <ele>38.0</ele>
        <time>2021-05-15T16:38:21Z</time>
      </trkpt>
      <trkpt lat="41.1479070" lon="-8.5732380">
        <ele>38.0</ele>
        <time>2021-05-15T16:38:22Z</time>
      </trkpt>
      <trkpt lat="41.1478940" lon="-8.5732500">
        <ele>38.0</ele>
        <time>2021-05-15T16:38:23Z</time>
      </trkpt>
      <trkpt lat="41.1478680" lon="-8.5732680">
        <ele>38.1</ele>
        <time>2021-05-15T16:38:24Z</time>
      </trkpt>
      <trkpt lat="41.1478600" lon="-8.5732710">
        <ele>38.1</ele>
        <time>2021-05-15T16:38:25Z</time>
      </trkpt>
      <trkpt lat="41.1478500" lon="-8.5732940">
        <ele>38.1</ele>
        <time>2021-05-15T16:38:26Z</time>
      </trkpt>
      <trkpt lat="41.1478390" lon="-8.5732990">
        <ele>38.1</ele>
        <time>2021-05-15T16:38:27Z</time>
      </trkpt>
      <trkpt lat="41.1478280" lon="-8.5733120">
        <ele>38.1</ele>
        <time>2021-05-15T16:38:28Z</time>
      </trkpt>
      <trkpt lat="41.1478160" lon="-8.5733210">
        <ele>38.2</ele>
        <time>2021-05-15T16:38:29Z</time>
      </trkpt>
      <trkpt lat="41.1477840" lon="-8.5733310">
        <ele>38.3</ele>
        <time>2021-05-15T16:38:30Z</time>
      </trkpt>
      <trkpt lat="41.1477770" lon="-8.5733370">
        <ele>38.3</ele>
        <time>2021-05-15T16:38:31Z</time>
      </trkpt>
      <trkpt lat="41.1477550" lon="-8.5733590">
        <ele>38.4</ele>
        <time>2021-05-15T16:38:32Z</time>
      </trkpt>
      <trkpt lat="41.1477490" lon="-8.5733680">
        <ele>38.5</ele>
        <time>2021-05-15T16:38:33Z</time>
      </trkpt>
      <trkpt lat="41.1477240" lon="-8.5733860">
        <ele>38.6</ele>
        <time>2021-05-15T16:38:34Z</time>
      </trkpt>
      <trkpt lat="41.1477150" lon="-8.5733930">
        <ele>38.6</ele>
        <time>2021-05-15T16:38:35Z</time>
      </trkpt>
      <trkpt lat="41.1477020" lon="-8.5734030">
        <ele>38.6</ele>
        <time>2021-05-15T16:38:36Z</time>
      </trkpt>
      <trkpt lat="41.1476880" lon="-8.5734100">
        <ele>38.7</ele>
        <time>2021-05-15T16:38:37Z</time>
      </trkpt>
      <trkpt lat="41.1476740" lon="-8.5734130">
        <ele>38.7</ele>
        <time>2021-05-15T16:38:38Z</time>
      </trkpt>
      <trkpt lat="41.1476660" lon="-8.5734230">
        <ele>38.8</ele>
        <time>2021-05-15T16:38:39Z</time>
      </trkpt>
      <trkpt lat="41.1476380" lon="-8.5734360">
        <ele>38.9</ele>
        <time>2021-05-15T16:38:41Z</time>
      </trkpt>
      <trkpt lat="41.1476220" lon="-8.5734410">
        <ele>39.0</ele>
        <time>2021-05-15T16:38:42Z</time>
      </trkpt>
      <trkpt lat="41.1476120" lon="-8.5734510">
        <ele>39.0</ele>
        <time>2021-05-15T16:38:43Z</time>
      </trkpt>
      <trkpt lat="41.1476010" lon="-8.5734580">
        <ele>39.0</ele>
        <time>2021-05-15T16:38:44Z</time>
      </trkpt>
      <trkpt lat="41.1475880" lon="-8.5734590">
        <ele>39.1</ele>
        <time>2021-05-15T16:38:45Z</time>
      </trkpt>
      <trkpt lat="41.1475670" lon="-8.5734670">
        <ele>39.2</ele>
        <time>2021-05-15T16:38:46Z</time>
      </trkpt>
      <trkpt lat="41.1475580" lon="-8.5734690">
        <ele>39.2</ele>
        <time>2021-05-15T16:38:47Z</time>
      </trkpt>
      <trkpt lat="41.1475480" lon="-8.5734720">
        <ele>39.2</ele>
        <time>2021-05-15T16:38:48Z</time>
      </trkpt>
      <trkpt lat="41.1475310" lon="-8.5734860">
        <ele>39.2</ele>
        <time>2021-05-15T16:38:50Z</time>
      </trkpt>
      <trkpt lat="41.1475220" lon="-8.5734920">
        <ele>39.0</ele>
        <time>2021-05-15T16:38:51Z</time>
      </trkpt>
      <trkpt lat="41.1475140" lon="-8.5734990">
        <ele>38.9</ele>
        <time>2021-05-15T16:38:52Z</time>
      </trkpt>
      <trkpt lat="41.1475020" lon="-8.5735110">
        <ele>38.6</ele>
        <time>2021-05-15T16:38:53Z</time>
      </trkpt>
      <trkpt lat="41.1474860" lon="-8.5735210">
        <ele>38.3</ele>
        <time>2021-05-15T16:38:54Z</time>
      </trkpt>
      <trkpt lat="41.1474670" lon="-8.5735300">
        <ele>37.9</ele>
        <time>2021-05-15T16:38:55Z</time>
      </trkpt>
      <trkpt lat="41.1474570" lon="-8.5735340">
        <ele>37.8</ele>
        <time>2021-05-15T16:38:56Z</time>
      </trkpt>
      <trkpt lat="41.1474480" lon="-8.5735370">
        <ele>37.6</ele>
        <time>2021-05-15T16:38:57Z</time>
      </trkpt>
      <trkpt lat="41.1474310" lon="-8.5735340">
        <ele>37.3</ele>
        <time>2021-05-15T16:38:58Z</time>
      </trkpt>
      <trkpt lat="41.1474160" lon="-8.5735400">
        <ele>37.0</ele>
        <time>2021-05-15T16:38:59Z</time>
      </trkpt>
      <trkpt lat="41.1473980" lon="-8.5735350">
        <ele>36.7</ele>
        <time>2021-05-15T16:39:00Z</time>
      </trkpt>
      <trkpt lat="41.1473860" lon="-8.5735380">
        <ele>36.5</ele>
        <time>2021-05-15T16:39:01Z</time>
      </trkpt>
      <trkpt lat="41.1473730" lon="-8.5735350">
        <ele>36.2</ele>
        <time>2021-05-15T16:39:02Z</time>
      </trkpt>
      <trkpt lat="41.1473560" lon="-8.5735250">
        <ele>35.9</ele>
        <time>2021-05-15T16:39:03Z</time>
      </trkpt>
      <trkpt lat="41.1473450" lon="-8.5735090">
        <ele>35.6</ele>
        <time>2021-05-15T16:39:04Z</time>
      </trkpt>
      <trkpt lat="41.1473260" lon="-8.5735000">
        <ele>35.2</ele>
        <time>2021-05-15T16:39:05Z</time>
      </trkpt>
      <trkpt lat="41.1473070" lon="-8.5734990">
        <ele>34.8</ele>
        <time>2021-05-15T16:39:06Z</time>
      </trkpt>
      <trkpt lat="41.1472980" lon="-8.5734980">
        <ele>34.6</ele>
        <time>2021-05-15T16:39:07Z</time>
      </trkpt>
      <trkpt lat="41.1472870" lon="-8.5734990">
        <ele>34.4</ele>
        <time>2021-05-15T16:39:08Z</time>
      </trkpt>
      <trkpt lat="41.1472810" lon="-8.5735030">
        <ele>34.3</ele>
        <time>2021-05-15T16:39:09Z</time>
      </trkpt>
      <trkpt lat="41.1472690" lon="-8.5735070">
        <ele>34.0</ele>
        <time>2021-05-15T16:39:10Z</time>
      </trkpt>
      <trkpt lat="41.1472560" lon="-8.5734980">
        <ele>33.7</ele>
        <time>2021-05-15T16:39:11Z</time>
      </trkpt>
      <trkpt lat="41.1472400" lon="-8.5734820">
        <ele>33.3</ele>
        <time>2021-05-15T16:39:12Z</time>
      </trkpt>
      <trkpt lat="41.1472230" lon="-8.5734720">
        <ele>33.0</ele>
        <time>2021-05-15T16:39:13Z</time>
      </trkpt>
      <trkpt lat="41.1472070" lon="-8.5734680">
        <ele>32.6</ele>
        <time>2021-05-15T16:39:14Z</time>
      </trkpt>
      <trkpt lat="41.1471940" lon="-8.5734560">
        <ele>32.3</ele>
        <time>2021-05-15T16:39:15Z</time>
      </trkpt>
      <trkpt lat="41.1471810" lon="-8.5734550">
        <ele>32.1</ele>
        <time>2021-05-15T16:39:16Z</time>
      </trkpt>
      <trkpt lat="41.1471580" lon="-8.5734470">
        <ele>31.6</ele>
        <time>2021-05-15T16:39:17Z</time>
      </trkpt>
      <trkpt lat="41.1471490" lon="-8.5734420">
        <ele>31.4</ele>
        <time>2021-05-15T16:39:18Z</time>
      </trkpt>
      <trkpt lat="41.1471400" lon="-8.5734370">
        <ele>31.2</ele>
        <time>2021-05-15T16:39:19Z</time>
      </trkpt>
      <trkpt lat="41.1471250" lon="-8.5734310">
        <ele>30.8</ele>
        <time>2021-05-15T16:39:20Z</time>
      </trkpt>
      <trkpt lat="41.1471130" lon="-8.5734270">
        <ele>30.6</ele>
        <time>2021-05-15T16:39:21Z</time>
      </trkpt>
      <trkpt lat="41.1471010" lon="-8.5734290">
        <ele>30.6</ele>
        <time>2021-05-15T16:39:22Z</time>
      </trkpt>
      <trkpt lat="41.1470780" lon="-8.5734240">
        <ele>30.6</ele>
        <time>2021-05-15T16:39:23Z</time>
      </trkpt>
      <trkpt lat="41.1470610" lon="-8.5734240">
        <ele>30.6</ele>
        <time>2021-05-15T16:39:24Z</time>
      </trkpt>
      <trkpt lat="41.1470460" lon="-8.5734300">
        <ele>30.6</ele>
        <time>2021-05-15T16:39:25Z</time>
      </trkpt>
      <trkpt lat="41.1470290" lon="-8.5734340">
        <ele>30.6</ele>
        <time>2021-05-15T16:39:26Z</time>
      </trkpt>
      <trkpt lat="41.1470110" lon="-8.5734360">
        <ele>30.6</ele>
        <time>2021-05-15T16:39:27Z</time>
      </trkpt>
      <trkpt lat="41.1469920" lon="-8.5734430">
        <ele>30.6</ele>
        <time>2021-05-15T16:39:28Z</time>
      </trkpt>
      <trkpt lat="41.1469840" lon="-8.5734470">
        <ele>30.5</ele>
        <time>2021-05-15T16:39:29Z</time>
      </trkpt>
      <trkpt lat="41.1469750" lon="-8.5734520">
        <ele>30.5</ele>
        <time>2021-05-15T16:39:30Z</time>
      </trkpt>
      <trkpt lat="41.1469620" lon="-8.5734550">
        <ele>30.5</ele>
        <time>2021-05-15T16:39:31Z</time>
      </trkpt>
      <trkpt lat="41.1469520" lon="-8.5734610">
        <ele>30.5</ele>
        <time>2021-05-15T16:39:32Z</time>
      </trkpt>
      <trkpt lat="41.1469460" lon="-8.5734670">
        <ele>30.5</ele>
        <time>2021-05-15T16:39:33Z</time>
      </trkpt>
      <trkpt lat="41.1469310" lon="-8.5734780">
        <ele>30.5</ele>
        <time>2021-05-15T16:39:34Z</time>
      </trkpt>
      <trkpt lat="41.1469230" lon="-8.5734930">
        <ele>30.5</ele>
        <time>2021-05-15T16:39:35Z</time>
      </trkpt>
      <trkpt lat="41.1468970" lon="-8.5735160">
        <ele>30.5</ele>
        <time>2021-05-15T16:39:36Z</time>
      </trkpt>
      <trkpt lat="41.1468830" lon="-8.5735270">
        <ele>30.5</ele>
        <time>2021-05-15T16:39:37Z</time>
      </trkpt>
      <trkpt lat="41.1468760" lon="-8.5735460">
        <ele>30.4</ele>
        <time>2021-05-15T16:39:38Z</time>
      </trkpt>
      <trkpt lat="41.1468620" lon="-8.5735570">
        <ele>30.4</ele>
        <time>2021-05-15T16:39:39Z</time>
      </trkpt>
      <trkpt lat="41.1468490" lon="-8.5735680">
        <ele>30.4</ele>
        <time>2021-05-15T16:39:40Z</time>
      </trkpt>
      <trkpt lat="41.1468470" lon="-8.5735830">
        <ele>30.4</ele>
        <time>2021-05-15T16:39:41Z</time>
      </trkpt>
      <trkpt lat="41.1468400" lon="-8.5735950">
        <ele>30.4</ele>
        <time>2021-05-15T16:39:42Z</time>
      </trkpt>
      <trkpt lat="41.1468320" lon="-8.5736020">
        <ele>30.4</ele>
        <time>2021-05-15T16:39:43Z</time>
      </trkpt>
      <trkpt lat="41.1468160" lon="-8.5736170">
        <ele>30.4</ele>
        <time>2021-05-15T16:39:44Z</time>
      </trkpt>
      <trkpt lat="41.1468010" lon="-8.5736250">
        <ele>30.4</ele>
        <time>2021-05-15T16:39:45Z</time>
      </trkpt>
      <trkpt lat="41.1467910" lon="-8.5736320">
        <ele>30.4</ele>
        <time>2021-05-15T16:39:46Z</time>
      </trkpt>
      <trkpt lat="41.1467810" lon="-8.5736380">
        <ele>30.4</ele>
        <time>2021-05-15T16:39:47Z</time>
      </trkpt>
      <trkpt lat="41.1467710" lon="-8.5736440">
        <ele>30.4</ele>
        <time>2021-05-15T16:39:48Z</time>
      </trkpt>
      <trkpt lat="41.1467530" lon="-8.5736500">
        <ele>30.5</ele>
        <time>2021-05-15T16:39:49Z</time>
      </trkpt>
      <trkpt lat="41.1467360" lon="-8.5736500">
        <ele>30.6</ele>
        <time>2021-05-15T16:39:50Z</time>
      </trkpt>
      <trkpt lat="41.1467220" lon="-8.5736510">
        <ele>30.7</ele>
        <time>2021-05-15T16:39:51Z</time>
      </trkpt>
      <trkpt lat="41.1467080" lon="-8.5736580">
        <ele>30.7</ele>
        <time>2021-05-15T16:39:52Z</time>
      </trkpt>
      <trkpt lat="41.1466890" lon="-8.5736600">
        <ele>30.8</ele>
        <time>2021-05-15T16:39:53Z</time>
      </trkpt>
      <trkpt lat="41.1466790" lon="-8.5736600">
        <ele>30.8</ele>
        <time>2021-05-15T16:39:54Z</time>
      </trkpt>
      <trkpt lat="41.1466700" lon="-8.5736610">
        <ele>30.9</ele>
        <time>2021-05-15T16:39:55Z</time>
      </trkpt>
      <trkpt lat="41.1466510" lon="-8.5736560">
        <ele>30.9</ele>
        <time>2021-05-15T16:39:56Z</time>
      </trkpt>
      <trkpt lat="41.1466350" lon="-8.5736570">
        <ele>30.9</ele>
        <time>2021-05-15T16:39:57Z</time>
      </trkpt>
      <trkpt lat="41.1466150" lon="-8.5736550">
        <ele>31.0</ele>
        <time>2021-05-15T16:39:58Z</time>
      </trkpt>
      <trkpt lat="41.1466010" lon="-8.5736530">
        <ele>31.0</ele>
        <time>2021-05-15T16:39:59Z</time>
      </trkpt>
      <trkpt lat="41.1465810" lon="-8.5736560">
        <ele>30.9</ele>
        <time>2021-05-15T16:40:00Z</time>
      </trkpt>
      <trkpt lat="41.1465710" lon="-8.5736550">
        <ele>30.9</ele>
        <time>2021-05-15T16:40:01Z</time>
      </trkpt>
      <trkpt lat="41.1465610" lon="-8.5736540">
        <ele>30.9</ele>
        <time>2021-05-15T16:40:02Z</time>
      </trkpt>
      <trkpt lat="41.1465350" lon="-8.5736550">
        <ele>30.9</ele>
        <time>2021-05-15T16:40:03Z</time>
      </trkpt>
      <trkpt lat="41.1465240" lon="-8.5736590">
        <ele>30.9</ele>
        <time>2021-05-15T16:40:04Z</time>
      </trkpt>
      <trkpt lat="41.1465140" lon="-8.5736510">
        <ele>30.9</ele>
        <time>2021-05-15T16:40:05Z</time>
      </trkpt>
      <trkpt lat="41.1464980" lon="-8.5736420">
        <ele>30.8</ele>
        <time>2021-05-15T16:40:06Z</time>
      </trkpt>
      <trkpt lat="41.1464810" lon="-8.5736410">
        <ele>30.8</ele>
        <time>2021-05-15T16:40:07Z</time>
      </trkpt>
      <trkpt lat="41.1464670" lon="-8.5736310">
        <ele>30.8</ele>
        <time>2021-05-15T16:40:08Z</time>
      </trkpt>
      <trkpt lat="41.1464520" lon="-8.5736250">
        <ele>30.8</ele>
        <time>2021-05-15T16:40:09Z</time>
      </trkpt>
      <trkpt lat="41.1464380" lon="-8.5736200">
        <ele>30.7</ele>
        <time>2021-05-15T16:40:10Z</time>
      </trkpt>
      <trkpt lat="41.1464250" lon="-8.5736220">
        <ele>30.7</ele>
        <time>2021-05-15T16:40:11Z</time>
      </trkpt>
      <trkpt lat="41.1464090" lon="-8.5736260">
        <ele>30.7</ele>
        <time>2021-05-15T16:40:12Z</time>
      </trkpt>
      <trkpt lat="41.1463960" lon="-8.5736280">
        <ele>30.6</ele>
        <time>2021-05-15T16:40:13Z</time>
      </trkpt>
      <trkpt lat="41.1463850" lon="-8.5736240">
        <ele>30.6</ele>
        <time>2021-05-15T16:40:14Z</time>
      </trkpt>
      <trkpt lat="41.1463740" lon="-8.5736240">
        <ele>30.6</ele>
        <time>2021-05-15T16:40:15Z</time>
      </trkpt>
      <trkpt lat="41.1463590" lon="-8.5736200">
        <ele>30.5</ele>
        <time>2021-05-15T16:40:16Z</time>
      </trkpt>
      <trkpt lat="41.1463440" lon="-8.5736230">
        <ele>30.5</ele>
        <time>2021-05-15T16:40:17Z</time>
      </trkpt>
      <trkpt lat="41.1463250" lon="-8.5736240">
        <ele>30.4</ele>
        <time>2021-05-15T16:40:18Z</time>
      </trkpt>
      <trkpt lat="41.1463080" lon="-8.5736240">
        <ele>30.4</ele>
        <time>2021-05-15T16:40:19Z</time>
      </trkpt>
      <trkpt lat="41.1462940" lon="-8.5736190">
        <ele>30.3</ele>
        <time>2021-05-15T16:40:20Z</time>
      </trkpt>
      <trkpt lat="41.1462770" lon="-8.5736180">
        <ele>30.2</ele>
        <time>2021-05-15T16:40:21Z</time>
      </trkpt>
      <trkpt lat="41.1462650" lon="-8.5736160">
        <ele>30.2</ele>
        <time>2021-05-15T16:40:22Z</time>
      </trkpt>
      <trkpt lat="41.1462510" lon="-8.5736160">
        <ele>30.1</ele>
        <time>2021-05-15T16:40:23Z</time>
      </trkpt>
      <trkpt lat="41.1462430" lon="-8.5736160">
        <ele>30.0</ele>
        <time>2021-05-15T16:40:24Z</time>
      </trkpt>
      <trkpt lat="41.1462230" lon="-8.5736120">
        <ele>29.9</ele>
        <time>2021-05-15T16:40:25Z</time>
      </trkpt>
      <trkpt lat="41.1462120" lon="-8.5736170">
        <ele>29.8</ele>
        <time>2021-05-15T16:40:26Z</time>
      </trkpt>
      <trkpt lat="41.1462020" lon="-8.5736210">
        <ele>29.7</ele>
        <time>2021-05-15T16:40:27Z</time>
      </trkpt>
      <trkpt lat="41.1461880" lon="-8.5736290">
        <ele>29.5</ele>
        <time>2021-05-15T16:40:28Z</time>
      </trkpt>
      <trkpt lat="41.1461750" lon="-8.5736300">
        <ele>29.4</ele>
        <time>2021-05-15T16:40:29Z</time>
      </trkpt>
      <trkpt lat="41.1461520" lon="-8.5736280">
        <ele>29.0</ele>
        <time>2021-05-15T16:40:30Z</time>
      </trkpt>
      <trkpt lat="41.1461430" lon="-8.5736290">
        <ele>28.9</ele>
        <time>2021-05-15T16:40:31Z</time>
      </trkpt>
      <trkpt lat="41.1461350" lon="-8.5736290">
        <ele>28.8</ele>
        <time>2021-05-15T16:40:32Z</time>
      </trkpt>
      <trkpt lat="41.1461190" lon="-8.5736410">
        <ele>28.6</ele>
        <time>2021-05-15T16:40:33Z</time>
      </trkpt>
      <trkpt lat="41.1461110" lon="-8.5736510">
        <ele>28.4</ele>
        <time>2021-05-15T16:40:34Z</time>
      </trkpt>
      <trkpt lat="41.1460820" lon="-8.5736610">
        <ele>28.0</ele>
        <time>2021-05-15T16:40:35Z</time>
      </trkpt>
      <trkpt lat="41.1460750" lon="-8.5736610">
        <ele>27.9</ele>
        <time>2021-05-15T16:40:36Z</time>
      </trkpt>
      <trkpt lat="41.1460650" lon="-8.5736660">
        <ele>27.8</ele>
        <time>2021-05-15T16:40:37Z</time>
      </trkpt>
      <trkpt lat="41.1460480" lon="-8.5736770">
        <ele>27.5</ele>
        <time>2021-05-15T16:40:38Z</time>
      </trkpt>
      <trkpt lat="41.1460370" lon="-8.5736790">
        <ele>27.4</ele>
        <time>2021-05-15T16:40:39Z</time>
      </trkpt>
      <trkpt lat="41.1460280" lon="-8.5736860">
        <ele>27.3</ele>
        <time>2021-05-15T16:40:40Z</time>
      </trkpt>
      <trkpt lat="41.1460200" lon="-8.5736920">
        <ele>27.2</ele>
        <time>2021-05-15T16:40:41Z</time>
      </trkpt>
      <trkpt lat="41.1460110" lon="-8.5736990">
        <ele>27.1</ele>
        <time>2021-05-15T16:40:42Z</time>
      </trkpt>
      <trkpt lat="41.1459910" lon="-8.5737090">
        <ele>26.9</ele>
        <time>2021-05-15T16:40:43Z</time>
      </trkpt>
      <trkpt lat="41.1459830" lon="-8.5737140">
        <ele>26.8</ele>
        <time>2021-05-15T16:40:44Z</time>
      </trkpt>
      <trkpt lat="41.1459750" lon="-8.5737190">
        <ele>26.7</ele>
        <time>2021-05-15T16:40:45Z</time>
      </trkpt>
      <trkpt lat="41.1459650" lon="-8.5737230">
        <ele>26.6</ele>
        <time>2021-05-15T16:40:46Z</time>
      </trkpt>
      <trkpt lat="41.1459580" lon="-8.5737330">
        <ele>26.5</ele>
        <time>2021-05-15T16:40:47Z</time>
      </trkpt>
      <trkpt lat="41.1459490" lon="-8.5737360">
        <ele>26.4</ele>
        <time>2021-05-15T16:40:48Z</time>
      </trkpt>
      <trkpt lat="41.1459380" lon="-8.5737440">
        <ele>26.3</ele>
        <time>2021-05-15T16:40:49Z</time>
      </trkpt>
      <trkpt lat="41.1459280" lon="-8.5737490">
        <ele>26.2</ele>
        <time>2021-05-15T16:40:50Z</time>
      </trkpt>
      <trkpt lat="41.1459190" lon="-8.5737530">
        <ele>26.1</ele>
        <time>2021-05-15T16:40:51Z</time>
      </trkpt>
      <trkpt lat="41.1459090" lon="-8.5737570">
        <ele>26.0</ele>
        <time>2021-05-15T16:40:52Z</time>
      </trkpt>
      <trkpt lat="41.1458880" lon="-8.5737660">
        <ele>25.7</ele>
        <time>2021-05-15T16:40:53Z</time>
      </trkpt>
      <trkpt lat="41.1458800" lon="-8.5737660">
        <ele>25.7</ele>
        <time>2021-05-15T16:40:54Z</time>
      </trkpt>
      <trkpt lat="41.1458720" lon="-8.5737670">
        <ele>25.6</ele>
        <time>2021-05-15T16:40:55Z</time>
      </trkpt>
      <trkpt lat="41.1458620" lon="-8.5737720">
        <ele>25.5</ele>
        <time>2021-05-15T16:40:56Z</time>
      </trkpt>
      <trkpt lat="41.1458540" lon="-8.5737780">
        <ele>25.4</ele>
        <time>2021-05-15T16:40:57Z</time>
      </trkpt>
      <trkpt lat="41.1458440" lon="-8.5737830">
        <ele>25.3</ele>
        <time>2021-05-15T16:40:58Z</time>
      </trkpt>
      <trkpt lat="41.1458340" lon="-8.5737970">
        <ele>25.0</ele>
        <time>2021-05-15T16:40:59Z</time>
      </trkpt>
      <trkpt lat="41.1458300" lon="-8.5738100">
        <ele>24.8</ele>
        <time>2021-05-15T16:41:00Z</time>
      </trkpt>
      <trkpt lat="41.1458090" lon="-8.5738420">
        <ele>24.4</ele>
        <time>2021-05-15T16:41:02Z</time>
      </trkpt>
      <trkpt lat="41.1457970" lon="-8.5738610">
        <ele>24.1</ele>
        <time>2021-05-15T16:41:03Z</time>
      </trkpt>
      <trkpt lat="41.1457940" lon="-8.5738690">
        <ele>24.0</ele>
        <time>2021-05-15T16:41:04Z</time>
      </trkpt>
      <trkpt lat="41.1457910" lon="-8.5738860">
        <ele>23.8</ele>
        <time>2021-05-15T16:41:06Z</time>
      </trkpt>
      <trkpt lat="41.1457890" lon="-8.5738980">
        <ele>23.6</ele>
        <time>2021-05-15T16:41:07Z</time>
      </trkpt>
      <trkpt lat="41.1457830" lon="-8.5739120">
        <ele>23.5</ele>
        <time>2021-05-15T16:41:08Z</time>
      </trkpt>
      <trkpt lat="41.1457770" lon="-8.5739400">
        <ele>23.1</ele>
        <time>2021-05-15T16:41:09Z</time>
      </trkpt>
      <trkpt lat="41.1457760" lon="-8.5739550">
        <ele>22.9</ele>
        <time>2021-05-15T16:41:10Z</time>
      </trkpt>
      <trkpt lat="41.1457750" lon="-8.5739690">
        <ele>22.7</ele>
        <time>2021-05-15T16:41:11Z</time>
      </trkpt>
      <trkpt lat="41.1457720" lon="-8.5739820">
        <ele>22.5</ele>
        <time>2021-05-15T16:41:12Z</time>
      </trkpt>
      <trkpt lat="41.1457650" lon="-8.5739930">
        <ele>22.3</ele>
        <time>2021-05-15T16:41:13Z</time>
      </trkpt>
      <trkpt lat="41.1457540" lon="-8.5739980">
        <ele>22.1</ele>
        <time>2021-05-15T16:41:14Z</time>
      </trkpt>
      <trkpt lat="41.1457460" lon="-8.5740120">
        <ele>21.9</ele>
        <time>2021-05-15T16:41:15Z</time>
      </trkpt>
      <trkpt lat="41.1457390" lon="-8.5740230">
        <ele>21.7</ele>
        <time>2021-05-15T16:41:16Z</time>
      </trkpt>
      <trkpt lat="41.1457330" lon="-8.5740310">
        <ele>21.6</ele>
        <time>2021-05-15T16:41:17Z</time>
      </trkpt>
      <trkpt lat="41.1457260" lon="-8.5740430">
        <ele>21.4</ele>
        <time>2021-05-15T16:41:18Z</time>
      </trkpt>
      <trkpt lat="41.1457180" lon="-8.5740550">
        <ele>21.2</ele>
        <time>2021-05-15T16:41:19Z</time>
      </trkpt>
      <trkpt lat="41.1457080" lon="-8.5740730">
        <ele>20.9</ele>
        <time>2021-05-15T16:41:20Z</time>
      </trkpt>
      <trkpt lat="41.1456980" lon="-8.5740870">
        <ele>20.7</ele>
        <time>2021-05-15T16:41:21Z</time>
      </trkpt>
      <trkpt lat="41.1456890" lon="-8.5740940">
        <ele>20.5</ele>
        <time>2021-05-15T16:41:22Z</time>
      </trkpt>
      <trkpt lat="41.1456850" lon="-8.5741080">
        <ele>20.4</ele>
        <time>2021-05-15T16:41:23Z</time>
      </trkpt>
      <trkpt lat="41.1456770" lon="-8.5741240">
        <ele>20.2</ele>
        <time>2021-05-15T16:41:24Z</time>
      </trkpt>
      <trkpt lat="41.1456670" lon="-8.5741370">
        <ele>20.0</ele>
        <time>2021-05-15T16:41:25Z</time>
      </trkpt>
      <trkpt lat="41.1456620" lon="-8.5741440">
        <ele>19.9</ele>
        <time>2021-05-15T16:41:26Z</time>
      </trkpt>
      <trkpt lat="41.1456510" lon="-8.5741580">
        <ele>19.8</ele>
        <time>2021-05-15T16:41:27Z</time>
      </trkpt>
      <trkpt lat="41.1456410" lon="-8.5741800">
        <ele>19.7</ele>
        <time>2021-05-15T16:41:28Z</time>
      </trkpt>
      <trkpt lat="41.1456360" lon="-8.5741900">
        <ele>19.6</ele>
        <time>2021-05-15T16:41:29Z</time>
      </trkpt>
      <trkpt lat="41.1456310" lon="-8.5742000">
        <ele>19.5</ele>
        <time>2021-05-15T16:41:30Z</time>
      </trkpt>
      <trkpt lat="41.1456110" lon="-8.5742320">
        <ele>19.5</ele>
        <time>2021-05-15T16:41:31Z</time>
      </trkpt>
      <trkpt lat="41.1456040" lon="-8.5742440">
        <ele>19.4</ele>
        <time>2021-05-15T16:41:32Z</time>
      </trkpt>
      <trkpt lat="41.1455970" lon="-8.5742620">
        <ele>19.5</ele>
        <time>2021-05-15T16:41:33Z</time>
      </trkpt>
      <trkpt lat="41.1455850" lon="-8.5742750">
        <ele>19.5</ele>
        <time>2021-05-15T16:41:34Z</time>
      </trkpt>
      <trkpt lat="41.1455750" lon="-8.5742930">
        <ele>19.6</ele>
        <time>2021-05-15T16:41:35Z</time>
      </trkpt>
      <trkpt lat="41.1455690" lon="-8.5743050">
        <ele>19.7</ele>
        <time>2021-05-15T16:41:36Z</time>
      </trkpt>
      <trkpt lat="41.1455640" lon="-8.5743170">
        <ele>19.7</ele>
        <time>2021-05-15T16:41:37Z</time>
      </trkpt>
      <trkpt lat="41.1455500" lon="-8.5743510">
        <ele>20.0</ele>
        <time>2021-05-15T16:41:38Z</time>
      </trkpt>
      <trkpt lat="41.1455490" lon="-8.5743610">
        <ele>20.0</ele>
        <time>2021-05-15T16:41:39Z</time>
      </trkpt>
      <trkpt lat="41.1455300" lon="-8.5743890">
        <ele>20.3</ele>
        <time>2021-05-15T16:41:40Z</time>
      </trkpt>
      <trkpt lat="41.1455250" lon="-8.5743990">
        <ele>20.4</ele>
        <time>2021-05-15T16:41:41Z</time>
      </trkpt>
      <trkpt lat="41.1455120" lon="-8.5744230">
        <ele>20.6</ele>
        <time>2021-05-15T16:41:42Z</time>
      </trkpt>
      <trkpt lat="41.1455000" lon="-8.5744500">
        <ele>20.9</ele>
        <time>2021-05-15T16:41:43Z</time>
      </trkpt>
      <trkpt lat="41.1454910" lon="-8.5744780">
        <ele>21.2</ele>
        <time>2021-05-15T16:41:44Z</time>
      </trkpt>
      <trkpt lat="41.1454880" lon="-8.5744890">
        <ele>21.2</ele>
        <time>2021-05-15T16:41:45Z</time>
      </trkpt>
      <trkpt lat="41.1454800" lon="-8.5745000">
        <ele>21.4</ele>
        <time>2021-05-15T16:41:46Z</time>
      </trkpt>
      <trkpt lat="41.1454760" lon="-8.5745070">
        <ele>21.4</ele>
        <time>2021-05-15T16:41:47Z</time>
      </trkpt>
      <trkpt lat="41.1454680" lon="-8.5745170">
        <ele>21.6</ele>
        <time>2021-05-15T16:41:48Z</time>
      </trkpt>
      <trkpt lat="41.1454490" lon="-8.5745450">
        <ele>21.4</ele>
        <time>2021-05-15T16:41:49Z</time>
      </trkpt>
      <trkpt lat="41.1454400" lon="-8.5745560">
        <ele>21.3</ele>
        <time>2021-05-15T16:41:50Z</time>
      </trkpt>
      <trkpt lat="41.1454320" lon="-8.5745730">
        <ele>21.1</ele>
        <time>2021-05-15T16:41:51Z</time>
      </trkpt>
      <trkpt lat="41.1454240" lon="-8.5745850">
        <ele>20.9</ele>
        <time>2021-05-15T16:41:52Z</time>
      </trkpt>
      <trkpt lat="41.1454210" lon="-8.5746040">
        <ele>20.8</ele>
        <time>2021-05-15T16:41:53Z</time>
      </trkpt>
      <trkpt lat="41.1454140" lon="-8.5746200">
        <ele>20.6</ele>
        <time>2021-05-15T16:41:54Z</time>
      </trkpt>
      <trkpt lat="41.1454030" lon="-8.5746450">
        <ele>20.3</ele>
        <time>2021-05-15T16:41:55Z</time>
      </trkpt>
      <trkpt lat="41.1453980" lon="-8.5746570">
        <ele>20.2</ele>
        <time>2021-05-15T16:41:56Z</time>
      </trkpt>
      <trkpt lat="41.1453940" lon="-8.5746680">
        <ele>20.1</ele>
        <time>2021-05-15T16:41:57Z</time>
      </trkpt>
      <trkpt lat="41.1453810" lon="-8.5746760">
        <ele>20.0</ele>
        <time>2021-05-15T16:41:58Z</time>
      </trkpt>
      <trkpt lat="41.1453710" lon="-8.5746880">
        <ele>19.8</ele>
        <time>2021-05-15T16:41:59Z</time>
      </trkpt>
      <trkpt lat="41.1453580" lon="-8.5747100">
        <ele>19.6</ele>
        <time>2021-05-15T16:42:00Z</time>
      </trkpt>
      <trkpt lat="41.1453550" lon="-8.5747220">
        <ele>19.5</ele>
        <time>2021-05-15T16:42:01Z</time>
      </trkpt>
      <trkpt lat="41.1453520" lon="-8.5747330">
        <ele>19.4</ele>
        <time>2021-05-15T16:42:02Z</time>
      </trkpt>
      <trkpt lat="41.1453420" lon="-8.5747490">
        <ele>19.3</ele>
        <time>2021-05-15T16:42:03Z</time>
      </trkpt>
      <trkpt lat="41.1453370" lon="-8.5747670">
        <ele>19.1</ele>
        <time>2021-05-15T16:42:04Z</time>
      </trkpt>
      <trkpt lat="41.1453230" lon="-8.5747880">
        <ele>18.9</ele>
        <time>2021-05-15T16:42:05Z</time>
      </trkpt>
      <trkpt lat="41.1453170" lon="-8.5747990">
        <ele>18.8</ele>
        <time>2021-05-15T16:42:06Z</time>
      </trkpt>
      <trkpt lat="41.1453110" lon="-8.5748110">
        <ele>18.7</ele>
        <time>2021-05-15T16:42:07Z</time>
      </trkpt>
      <trkpt lat="41.1453030" lon="-8.5748240">
        <ele>18.6</ele>
        <time>2021-05-15T16:42:08Z</time>
      </trkpt>
      <trkpt lat="41.1452940" lon="-8.5748440">
        <ele>18.4</ele>
        <time>2021-05-15T16:42:09Z</time>
      </trkpt>
      <trkpt lat="41.1452850" lon="-8.5748650">
        <ele>18.3</ele>
        <time>2021-05-15T16:42:10Z</time>
      </trkpt>
      <trkpt lat="41.1452810" lon="-8.5748880">
        <ele>18.1</ele>
        <time>2021-05-15T16:42:11Z</time>
      </trkpt>
      <trkpt lat="41.1452690" lon="-8.5749050">
        <ele>17.9</ele>
        <time>2021-05-15T16:42:12Z</time>
      </trkpt>
      <trkpt lat="41.1452610" lon="-8.5749240">
        <ele>17.8</ele>
        <time>2021-05-15T16:42:13Z</time>
      </trkpt>
      <trkpt lat="41.1452420" lon="-8.5749560">
        <ele>17.5</ele>
        <time>2021-05-15T16:42:14Z</time>
      </trkpt>
      <trkpt lat="41.1452360" lon="-8.5749660">
        <ele>17.4</ele>
        <time>2021-05-15T16:42:15Z</time>
      </trkpt>
      <trkpt lat="41.1452250" lon="-8.5749820">
        <ele>17.3</ele>
        <time>2021-05-15T16:42:16Z</time>
      </trkpt>
      <trkpt lat="41.1452100" lon="-8.5749930">
        <ele>17.1</ele>
        <time>2021-05-15T16:42:17Z</time>
      </trkpt>
      <trkpt lat="41.1452030" lon="-8.5750120">
        <ele>17.0</ele>
        <time>2021-05-15T16:42:18Z</time>
      </trkpt>
      <trkpt lat="41.1451920" lon="-8.5750240">
        <ele>16.9</ele>
        <time>2021-05-15T16:42:19Z</time>
      </trkpt>
      <trkpt lat="41.1451840" lon="-8.5750440">
        <ele>16.7</ele>
        <time>2021-05-15T16:42:20Z</time>
      </trkpt>
      <trkpt lat="41.1451790" lon="-8.5750570">
        <ele>16.7</ele>
        <time>2021-05-15T16:42:21Z</time>
      </trkpt>
      <trkpt lat="41.1451750" lon="-8.5750690">
        <ele>16.6</ele>
        <time>2021-05-15T16:42:22Z</time>
      </trkpt>
      <trkpt lat="41.1451630" lon="-8.5750880">
        <ele>16.4</ele>
        <time>2021-05-15T16:42:23Z</time>
      </trkpt>
      <trkpt lat="41.1451560" lon="-8.5751060">
        <ele>16.3</ele>
        <time>2021-05-15T16:42:24Z</time>
      </trkpt>
      <trkpt lat="41.1451450" lon="-8.5751110">
        <ele>16.3</ele>
        <time>2021-05-15T16:42:25Z</time>
      </trkpt>
      <trkpt lat="41.1451410" lon="-8.5751190">
        <ele>16.2</ele>
        <time>2021-05-15T16:42:26Z</time>
      </trkpt>
      <trkpt lat="41.1451350" lon="-8.5751340">
        <ele>16.1</ele>
        <time>2021-05-15T16:42:27Z</time>
      </trkpt>
      <trkpt lat="41.1451280" lon="-8.5751500">
        <ele>16.0</ele>
        <time>2021-05-15T16:42:28Z</time>
      </trkpt>
      <trkpt lat="41.1451230" lon="-8.5751670">
        <ele>15.9</ele>
        <time>2021-05-15T16:42:29Z</time>
      </trkpt>
      <trkpt lat="41.1451150" lon="-8.5751790">
        <ele>15.9</ele>
        <time>2021-05-15T16:42:30Z</time>
      </trkpt>
      <trkpt lat="41.1451100" lon="-8.5752020">
        <ele>15.8</ele>
        <time>2021-05-15T16:42:31Z</time>
      </trkpt>
      <trkpt lat="41.1451010" lon="-8.5752260">
        <ele>15.7</ele>
        <time>2021-05-15T16:42:32Z</time>
      </trkpt>
      <trkpt lat="41.1450990" lon="-8.5752350">
        <ele>15.6</ele>
        <time>2021-05-15T16:42:33Z</time>
      </trkpt>
      <trkpt lat="41.1450960" lon="-8.5752430">
        <ele>15.6</ele>
        <time>2021-05-15T16:42:34Z</time>
      </trkpt>
      <trkpt lat="41.1450930" lon="-8.5752520">
        <ele>15.6</ele>
        <time>2021-05-15T16:42:35Z</time>
      </trkpt>
      <trkpt lat="41.1450880" lon="-8.5752650">
        <ele>15.5</ele>
        <time>2021-05-15T16:42:36Z</time>
      </trkpt>
      <trkpt lat="41.1450790" lon="-8.5752780">
        <ele>15.5</ele>
        <time>2021-05-15T16:42:37Z</time>
      </trkpt>
      <trkpt lat="41.1450710" lon="-8.5752900">
        <ele>15.4</ele>
        <time>2021-05-15T16:42:38Z</time>
      </trkpt>
      <trkpt lat="41.1450640" lon="-8.5753030">
        <ele>15.4</ele>
        <time>2021-05-15T16:42:39Z</time>
      </trkpt>
      <trkpt lat="41.1450580" lon="-8.5753210">
        <ele>15.3</ele>
        <time>2021-05-15T16:42:40Z</time>
      </trkpt>
      <trkpt lat="41.1450550" lon="-8.5753350">
        <ele>15.3</ele>
        <time>2021-05-15T16:42:41Z</time>
      </trkpt>
      <trkpt lat="41.1450500" lon="-8.5753550">
        <ele>15.3</ele>
        <time>2021-05-15T16:42:43Z</time>
      </trkpt>
      <trkpt lat="41.1450450" lon="-8.5753660">
        <ele>15.2</ele>
        <time>2021-05-15T16:42:44Z</time>
      </trkpt>
      <trkpt lat="41.1450420" lon="-8.5753770">
        <ele>15.2</ele>
        <time>2021-05-15T16:42:45Z</time>
      </trkpt>
      <trkpt lat="41.1450400" lon="-8.5753960">
        <ele>15.2</ele>
        <time>2021-05-15T16:42:46Z</time>
      </trkpt>
      <trkpt lat="41.1450340" lon="-8.5754090">
        <ele>15.1</ele>
        <time>2021-05-15T16:42:47Z</time>
      </trkpt>
      <trkpt lat="41.1450210" lon="-8.5754270">
        <ele>15.1</ele>
        <time>2021-05-15T16:42:48Z</time>
      </trkpt>
      <trkpt lat="41.1450140" lon="-8.5754400">
        <ele>15.0</ele>
        <time>2021-05-15T16:42:49Z</time>
      </trkpt>
      <trkpt lat="41.1450050" lon="-8.5754650">
        <ele>14.9</ele>
        <time>2021-05-15T16:42:50Z</time>
      </trkpt>
      <trkpt lat="41.1450010" lon="-8.5754780">
        <ele>14.9</ele>
        <time>2021-05-15T16:42:51Z</time>
      </trkpt>
      <trkpt lat="41.1449980" lon="-8.5754900">
        <ele>14.8</ele>
        <time>2021-05-15T16:42:52Z</time>
      </trkpt>
      <trkpt lat="41.1449950" lon="-8.5755100">
        <ele>14.8</ele>
        <time>2021-05-15T16:42:53Z</time>
      </trkpt>
      <trkpt lat="41.1449900" lon="-8.5755210">
        <ele>14.7</ele>
        <time>2021-05-15T16:42:54Z</time>
      </trkpt>
      <trkpt lat="41.1449840" lon="-8.5755270">
        <ele>14.7</ele>
        <time>2021-05-15T16:42:55Z</time>
      </trkpt>
      <trkpt lat="41.1449770" lon="-8.5755470">
        <ele>14.6</ele>
        <time>2021-05-15T16:42:56Z</time>
      </trkpt>
      <trkpt lat="41.1449750" lon="-8.5755650">
        <ele>14.5</ele>
        <time>2021-05-15T16:42:57Z</time>
      </trkpt>
      <trkpt lat="41.1449640" lon="-8.5756000">
        <ele>14.4</ele>
        <time>2021-05-15T16:42:58Z</time>
      </trkpt>
      <trkpt lat="41.1449610" lon="-8.5756150">
        <ele>14.3</ele>
        <time>2021-05-15T16:42:59Z</time>
      </trkpt>
      <trkpt lat="41.1449580" lon="-8.5756370">
        <ele>14.3</ele>
        <time>2021-05-15T16:43:00Z</time>
      </trkpt>
      <trkpt lat="41.1449510" lon="-8.5756570">
        <ele>14.5</ele>
        <time>2021-05-15T16:43:01Z</time>
      </trkpt>
      <trkpt lat="41.1449440" lon="-8.5756790">
        <ele>14.8</ele>
        <time>2021-05-15T16:43:02Z</time>
      </trkpt>
      <trkpt lat="41.1449390" lon="-8.5756990">
        <ele>15.0</ele>
        <time>2021-05-15T16:43:03Z</time>
      </trkpt>
      <trkpt lat="41.1449320" lon="-8.5757190">
        <ele>15.3</ele>
        <time>2021-05-15T16:43:04Z</time>
      </trkpt>
      <trkpt lat="41.1449230" lon="-8.5757370">
        <ele>15.5</ele>
        <time>2021-05-15T16:43:05Z</time>
      </trkpt>
      <trkpt lat="41.1449140" lon="-8.5757580">
        <ele>15.8</ele>
        <time>2021-05-15T16:43:06Z</time>
      </trkpt>
      <trkpt lat="41.1449060" lon="-8.5757690">
        <ele>16.0</ele>
        <time>2021-05-15T16:43:07Z</time>
      </trkpt>
      <trkpt lat="41.1449000" lon="-8.5757970">
        <ele>16.3</ele>
        <time>2021-05-15T16:43:08Z</time>
      </trkpt>
      <trkpt lat="41.1448950" lon="-8.5758100">
        <ele>16.4</ele>
        <time>2021-05-15T16:43:09Z</time>
      </trkpt>
      <trkpt lat="41.1448890" lon="-8.5758240">
        <ele>16.6</ele>
        <time>2021-05-15T16:43:10Z</time>
      </trkpt>
      <trkpt lat="41.1448850" lon="-8.5758390">
        <ele>16.8</ele>
        <time>2021-05-15T16:43:11Z</time>
      </trkpt>
      <trkpt lat="41.1448770" lon="-8.5758570">
        <ele>17.0</ele>
        <time>2021-05-15T16:43:12Z</time>
      </trkpt>
      <trkpt lat="41.1448710" lon="-8.5758750">
        <ele>17.0</ele>
        <time>2021-05-15T16:43:13Z</time>
      </trkpt>
      <trkpt lat="41.1448660" lon="-8.5758950">
        <ele>17.0</ele>
        <time>2021-05-15T16:43:14Z</time>
      </trkpt>
      <trkpt lat="41.1448600" lon="-8.5759120">
        <ele>16.9</ele>
        <time>2021-05-15T16:43:15Z</time>
      </trkpt>
      <trkpt lat="41.1448600" lon="-8.5759330">
        <ele>16.8</ele>
        <time>2021-05-15T16:43:16Z</time>
      </trkpt>
      <trkpt lat="41.1448480" lon="-8.5759460">
        <ele>16.7</ele>
        <time>2021-05-15T16:43:17Z</time>
      </trkpt>
      <trkpt lat="41.1448530" lon="-8.5759610">
        <ele>16.7</ele>
        <time>2021-05-15T16:43:18Z</time>
      </trkpt>
      <trkpt lat="41.1448480" lon="-8.5759780">
        <ele>16.6</ele>
        <time>2021-05-15T16:43:19Z</time>
      </trkpt>
      <trkpt lat="41.1448450" lon="-8.5759940">
        <ele>16.6</ele>
        <time>2021-05-15T16:43:20Z</time>
      </trkpt>
      <trkpt lat="41.1448450" lon="-8.5760160">
        <ele>16.5</ele>
        <time>2021-05-15T16:43:21Z</time>
      </trkpt>
      <trkpt lat="41.1448440" lon="-8.5760390">
        <ele>16.4</ele>
        <time>2021-05-15T16:43:22Z</time>
      </trkpt>
      <trkpt lat="41.1448420" lon="-8.5760610">
        <ele>16.3</ele>
        <time>2021-05-15T16:43:23Z</time>
      </trkpt>
      <trkpt lat="41.1448430" lon="-8.5760810">
        <ele>16.3</ele>
        <time>2021-05-15T16:43:24Z</time>
      </trkpt>
      <trkpt lat="41.1448390" lon="-8.5761020">
        <ele>16.2</ele>
        <time>2021-05-15T16:43:25Z</time>
      </trkpt>
      <trkpt lat="41.1448300" lon="-8.5761200">
        <ele>16.1</ele>
        <time>2021-05-15T16:43:26Z</time>
      </trkpt>
      <trkpt lat="41.1448230" lon="-8.5761410">
        <ele>16.1</ele>
        <time>2021-05-15T16:43:27Z</time>
      </trkpt>
      <trkpt lat="41.1448160" lon="-8.5761590">
        <ele>16.0</ele>
        <time>2021-05-15T16:43:28Z</time>
      </trkpt>
      <trkpt lat="41.1448110" lon="-8.5761810">
        <ele>15.9</ele>
        <time>2021-05-15T16:43:29Z</time>
      </trkpt>
      <trkpt lat="41.1448060" lon="-8.5762020">
        <ele>15.8</ele>
        <time>2021-05-15T16:43:30Z</time>
      </trkpt>
      <trkpt lat="41.1448050" lon="-8.5762240">
        <ele>15.7</ele>
        <time>2021-05-15T16:43:31Z</time>
      </trkpt>
      <trkpt lat="41.1447980" lon="-8.5762400">
        <ele>15.7</ele>
        <time>2021-05-15T16:43:32Z</time>
      </trkpt>
      <trkpt lat="41.1447960" lon="-8.5762600">
        <ele>15.6</ele>
        <time>2021-05-15T16:43:33Z</time>
      </trkpt>
      <trkpt lat="41.1447890" lon="-8.5762760">
        <ele>15.5</ele>
        <time>2021-05-15T16:43:34Z</time>
      </trkpt>
      <trkpt lat="41.1447900" lon="-8.5762930">
        <ele>15.5</ele>
        <time>2021-05-15T16:43:35Z</time>
      </trkpt>
      <trkpt lat="41.1447810" lon="-8.5762970">
        <ele>15.4</ele>
        <time>2021-05-15T16:43:36Z</time>
      </trkpt>
      <trkpt lat="41.1447790" lon="-8.5763100">
        <ele>15.4</ele>
        <time>2021-05-15T16:43:37Z</time>
      </trkpt>
      <trkpt lat="41.1447660" lon="-8.5763190">
        <ele>15.3</ele>
        <time>2021-05-15T16:43:38Z</time>
      </trkpt>
      <trkpt lat="41.1447630" lon="-8.5763350">
        <ele>15.2</ele>
        <time>2021-05-15T16:43:39Z</time>
      </trkpt>
      <trkpt lat="41.1447580" lon="-8.5763560">
        <ele>15.1</ele>
        <time>2021-05-15T16:43:40Z</time>
      </trkpt>
      <trkpt lat="41.1447560" lon="-8.5763720">
        <ele>15.1</ele>
        <time>2021-05-15T16:43:41Z</time>
      </trkpt>
      <trkpt lat="41.1447520" lon="-8.5763900">
        <ele>15.0</ele>
        <time>2021-05-15T16:43:42Z</time>
      </trkpt>
      <trkpt lat="41.1447510" lon="-8.5764090">
        <ele>14.9</ele>
        <time>2021-05-15T16:43:43Z</time>
      </trkpt>
      <trkpt lat="41.1447410" lon="-8.5764370">
        <ele>14.8</ele>
        <time>2021-05-15T16:43:44Z</time>
      </trkpt>
      <trkpt lat="41.1447360" lon="-8.5764460">
        <ele>14.8</ele>
        <time>2021-05-15T16:43:45Z</time>
      </trkpt>
      <trkpt lat="41.1447310" lon="-8.5764550">
        <ele>14.7</ele>
        <time>2021-05-15T16:43:46Z</time>
      </trkpt>
      <trkpt lat="41.1447190" lon="-8.5764740">
        <ele>14.6</ele>
        <time>2021-05-15T16:43:47Z</time>
      </trkpt>
      <trkpt lat="41.1447170" lon="-8.5764920">
        <ele>14.6</ele>
        <time>2021-05-15T16:43:48Z</time>
      </trkpt>
      <trkpt lat="41.1447040" lon="-8.5765310">
        <ele>14.4</ele>
        <time>2021-05-15T16:43:49Z</time>
      </trkpt>
      <trkpt lat="41.1447020" lon="-8.5765440">
        <ele>14.4</ele>
        <time>2021-05-15T16:43:50Z</time>
      </trkpt>
      <trkpt lat="41.1446920" lon="-8.5765730">
        <ele>14.3</ele>
        <time>2021-05-15T16:43:51Z</time>
      </trkpt>
      <trkpt lat="41.1446920" lon="-8.5765850">
        <ele>14.2</ele>
        <time>2021-05-15T16:43:52Z</time>
      </trkpt>
      <trkpt lat="41.1446910" lon="-8.5765970">
        <ele>14.2</ele>
        <time>2021-05-15T16:43:53Z</time>
      </trkpt>
      <trkpt lat="41.1446830" lon="-8.5766240">
        <ele>14.1</ele>
        <time>2021-05-15T16:43:54Z</time>
      </trkpt>
      <trkpt lat="41.1446800" lon="-8.5766430">
        <ele>14.0</ele>
        <time>2021-05-15T16:43:55Z</time>
      </trkpt>
      <trkpt lat="41.1446680" lon="-8.5766670">
        <ele>13.9</ele>
        <time>2021-05-15T16:43:56Z</time>
      </trkpt>
      <trkpt lat="41.1446630" lon="-8.5766830">
        <ele>13.8</ele>
        <time>2021-05-15T16:43:57Z</time>
      </trkpt>
      <trkpt lat="41.1446440" lon="-8.5767090">
        <ele>13.7</ele>
        <time>2021-05-15T16:43:58Z</time>
      </trkpt>
      <trkpt lat="41.1446380" lon="-8.5767190">
        <ele>13.6</ele>
        <time>2021-05-15T16:43:59Z</time>
      </trkpt>
      <trkpt lat="41.1446320" lon="-8.5767350">
        <ele>13.5</ele>
        <time>2021-05-15T16:44:00Z</time>
      </trkpt>
      <trkpt lat="41.1446180" lon="-8.5767410">
        <ele>13.5</ele>
        <time>2021-05-15T16:44:01Z</time>
      </trkpt>
      <trkpt lat="41.1446170" lon="-8.5767520">
        <ele>13.4</ele>
        <time>2021-05-15T16:44:02Z</time>
      </trkpt>
      <trkpt lat="41.1445980" lon="-8.5767650">
        <ele>13.3</ele>
        <time>2021-05-15T16:44:03Z</time>
      </trkpt>
      <trkpt lat="41.1445890" lon="-8.5767760">
        <ele>13.2</ele>
        <time>2021-05-15T16:44:04Z</time>
      </trkpt>
      <trkpt lat="41.1445790" lon="-8.5767860">
        <ele>13.2</ele>
        <time>2021-05-15T16:44:05Z</time>
      </trkpt>
      <trkpt lat="41.1445680" lon="-8.5767930">
        <ele>13.1</ele>
        <time>2021-05-15T16:44:06Z</time>
      </trkpt>
      <trkpt lat="41.1445580" lon="-8.5767990">
        <ele>13.1</ele>
        <time>2021-05-15T16:44:07Z</time>
      </trkpt>
      <trkpt lat="41.1445500" lon="-8.5768070">
        <ele>13.0</ele>
        <time>2021-05-15T16:44:08Z</time>
      </trkpt>
      <trkpt lat="41.1445330" lon="-8.5768230">
        <ele>12.9</ele>
        <time>2021-05-15T16:44:09Z</time>
      </trkpt>
      <trkpt lat="41.1445250" lon="-8.5768310">
        <ele>12.8</ele>
        <time>2021-05-15T16:44:10Z</time>
      </trkpt>
      <trkpt lat="41.1445150" lon="-8.5768320">
        <ele>12.8</ele>
        <time>2021-05-15T16:44:11Z</time>
      </trkpt>
      <trkpt lat="41.1445040" lon="-8.5768360">
        <ele>12.7</ele>
        <time>2021-05-15T16:44:12Z</time>
      </trkpt>
      <trkpt lat="41.1444950" lon="-8.5768470">
        <ele>12.7</ele>
        <time>2021-05-15T16:44:13Z</time>
      </trkpt>
      <trkpt lat="41.1444880" lon="-8.5768580">
        <ele>12.1</ele>
        <time>2021-05-15T16:44:14Z</time>
      </trkpt>
      <trkpt lat="41.1444890" lon="-8.5768690">
        <ele>12.1</ele>
        <time>2021-05-15T16:44:15Z</time>
      </trkpt>
      <trkpt lat="41.1444910" lon="-8.5768790">
        <ele>12.1</ele>
        <time>2021-05-15T16:44:16Z</time>
      </trkpt>
      <trkpt lat="41.1444920" lon="-8.5768900">
        <ele>12.1</ele>
        <time>2021-05-15T16:44:17Z</time>
      </trkpt>
      <trkpt lat="41.1444930" lon="-8.5769000">
        <ele>12.1</ele>
        <time>2021-05-15T16:44:18Z</time>
      </trkpt>
      <trkpt lat="41.1445100" lon="-8.5769300">
        <ele>12.0</ele>
        <time>2021-05-15T16:44:19Z</time>
      </trkpt>
      <trkpt lat="41.1445170" lon="-8.5769420">
        <ele>12.0</ele>
        <time>2021-05-15T16:44:20Z</time>
      </trkpt>
      <trkpt lat="41.1445260" lon="-8.5769560">
        <ele>12.0</ele>
        <time>2021-05-15T16:44:21Z</time>
      </trkpt>
      <trkpt lat="41.1445400" lon="-8.5769630">
        <ele>12.0</ele>
        <time>2021-05-15T16:44:22Z</time>
      </trkpt>
      <trkpt lat="41.1445460" lon="-8.5769750">
        <ele>12.0</ele>
        <time>2021-05-15T16:44:23Z</time>
      </trkpt>
      <trkpt lat="41.1445480" lon="-8.5769910">
        <ele>12.0</ele>
        <time>2021-05-15T16:44:24Z</time>
      </trkpt>
      <trkpt lat="41.1445510" lon="-8.5770040">
        <ele>12.0</ele>
        <time>2021-05-15T16:44:25Z</time>
      </trkpt>
      <trkpt lat="41.1445570" lon="-8.5770180">
        <ele>12.0</ele>
        <time>2021-05-15T16:44:26Z</time>
      </trkpt>
      <trkpt lat="41.1445630" lon="-8.5770330">
        <ele>12.0</ele>
        <time>2021-05-15T16:44:27Z</time>
      </trkpt>
      <trkpt lat="41.1445660" lon="-8.5770460">
        <ele>12.0</ele>
        <time>2021-05-15T16:44:28Z</time>
      </trkpt>
      <trkpt lat="41.1445780" lon="-8.5770710">
        <ele>11.9</ele>
        <time>2021-05-15T16:44:29Z</time>
      </trkpt>
      <trkpt lat="41.1445850" lon="-8.5770870">
        <ele>11.9</ele>
        <time>2021-05-15T16:44:30Z</time>
      </trkpt>
      <trkpt lat="41.1445950" lon="-8.5771210">
        <ele>11.9</ele>
        <time>2021-05-15T16:44:31Z</time>
      </trkpt>
      <trkpt lat="41.1446010" lon="-8.5771310">
        <ele>11.9</ele>
        <time>2021-05-15T16:44:32Z</time>
      </trkpt>
      <trkpt lat="41.1446080" lon="-8.5771410">
        <ele>11.9</ele>
        <time>2021-05-15T16:44:33Z</time>
      </trkpt>
      <trkpt lat="41.1446100" lon="-8.5771590">
        <ele>11.9</ele>
        <time>2021-05-15T16:44:34Z</time>
      </trkpt>
      <trkpt lat="41.1446240" lon="-8.5771750">
        <ele>11.9</ele>
        <time>2021-05-15T16:44:35Z</time>
      </trkpt>
      <trkpt lat="41.1446270" lon="-8.5772040">
        <ele>11.8</ele>
        <time>2021-05-15T16:44:36Z</time>
      </trkpt>
      <trkpt lat="41.1446280" lon="-8.5772140">
        <ele>11.8</ele>
        <time>2021-05-15T16:44:37Z</time>
      </trkpt>
      <trkpt lat="41.1446290" lon="-8.5772240">
        <ele>11.8</ele>
        <time>2021-05-15T16:44:38Z</time>
      </trkpt>
      <trkpt lat="41.1446430" lon="-8.5772400">
        <ele>11.8</ele>
        <time>2021-05-15T16:44:39Z</time>
      </trkpt>
      <trkpt lat="41.1446550" lon="-8.5772500">
        <ele>11.8</ele>
        <time>2021-05-15T16:44:40Z</time>
      </trkpt>
      <trkpt lat="41.1446620" lon="-8.5772630">
        <ele>11.8</ele>
        <time>2021-05-15T16:44:41Z</time>
      </trkpt>
      <trkpt lat="41.1446710" lon="-8.5772790">
        <ele>11.8</ele>
        <time>2021-05-15T16:44:42Z</time>
      </trkpt>
      <trkpt lat="41.1446820" lon="-8.5772970">
        <ele>11.8</ele>
        <time>2021-05-15T16:44:43Z</time>
      </trkpt>
      <trkpt lat="41.1446830" lon="-8.5773120">
        <ele>11.8</ele>
        <time>2021-05-15T16:44:44Z</time>
      </trkpt>
      <trkpt lat="41.1446920" lon="-8.5773240">
        <ele>11.8</ele>
        <time>2021-05-15T16:44:45Z</time>
      </trkpt>
      <trkpt lat="41.1447040" lon="-8.5773460">
        <ele>11.8</ele>
        <time>2021-05-15T16:44:46Z</time>
      </trkpt>
      <trkpt lat="41.1447050" lon="-8.5773620">
        <ele>11.8</ele>
        <time>2021-05-15T16:44:47Z</time>
      </trkpt>
      <trkpt lat="41.1446910" lon="-8.5773780">
        <ele>11.8</ele>
        <time>2021-05-15T16:44:48Z</time>
      </trkpt>
      <trkpt lat="41.1446760" lon="-8.5773900">
        <ele>11.7</ele>
        <time>2021-05-15T16:44:49Z</time>
      </trkpt>
      <trkpt lat="41.1446690" lon="-8.5773990">
        <ele>11.7</ele>
        <time>2021-05-15T16:44:50Z</time>
      </trkpt>
      <trkpt lat="41.1446620" lon="-8.5774080">
        <ele>11.7</ele>
        <time>2021-05-15T16:44:51Z</time>
      </trkpt>
      <trkpt lat="41.1446530" lon="-8.5774200">
        <ele>11.7</ele>
        <time>2021-05-15T16:44:52Z</time>
      </trkpt>
      <trkpt lat="41.1446440" lon="-8.5774300">
        <ele>11.6</ele>
        <time>2021-05-15T16:44:53Z</time>
      </trkpt>
      <trkpt lat="41.1446370" lon="-8.5774350">
        <ele>11.6</ele>
        <time>2021-05-15T16:44:54Z</time>
      </trkpt>
      <trkpt lat="41.1446220" lon="-8.5774460">
        <ele>11.6</ele>
        <time>2021-05-15T16:44:55Z</time>
      </trkpt>
      <trkpt lat="41.1446120" lon="-8.5774560">
        <ele>11.6</ele>
        <time>2021-05-15T16:44:56Z</time>
      </trkpt>
      <trkpt lat="41.1446020" lon="-8.5774650">
        <ele>11.6</ele>
        <time>2021-05-15T16:44:57Z</time>
      </trkpt>
      <trkpt lat="41.1445920" lon="-8.5774700">
        <ele>11.6</ele>
        <time>2021-05-15T16:44:58Z</time>
      </trkpt>
      <trkpt lat="41.1445800" lon="-8.5774780">
        <ele>11.6</ele>
        <time>2021-05-15T16:44:59Z</time>
      </trkpt>
      <trkpt lat="41.1445690" lon="-8.5774840">
        <ele>11.6</ele>
        <time>2021-05-15T16:45:00Z</time>
      </trkpt>
      <trkpt lat="41.1445510" lon="-8.5774990">
        <ele>11.6</ele>
        <time>2021-05-15T16:45:01Z</time>
      </trkpt>
      <trkpt lat="41.1445440" lon="-8.5775040">
        <ele>11.6</ele>
        <time>2021-05-15T16:45:02Z</time>
      </trkpt>
      <trkpt lat="41.1445370" lon="-8.5775100">
        <ele>11.6</ele>
        <time>2021-05-15T16:45:03Z</time>
      </trkpt>
      <trkpt lat="41.1445260" lon="-8.5775210">
        <ele>11.6</ele>
        <time>2021-05-15T16:45:04Z</time>
      </trkpt>
      <trkpt lat="41.1445200" lon="-8.5775410">
        <ele>11.6</ele>
        <time>2021-05-15T16:45:05Z</time>
      </trkpt>
      <trkpt lat="41.1445140" lon="-8.5775500">
        <ele>11.5</ele>
        <time>2021-05-15T16:45:06Z</time>
      </trkpt>
      <trkpt lat="41.1445050" lon="-8.5775710">
        <ele>11.5</ele>
        <time>2021-05-15T16:45:07Z</time>
      </trkpt>
      <trkpt lat="41.1445080" lon="-8.5776010">
        <ele>11.5</ele>
        <time>2021-05-15T16:45:08Z</time>
      </trkpt>
      <trkpt lat="41.1445090" lon="-8.5776110">
        <ele>11.5</ele>
        <time>2021-05-15T16:45:09Z</time>
      </trkpt>
      <trkpt lat="41.1445100" lon="-8.5776220">
        <ele>11.5</ele>
        <time>2021-05-15T16:45:10Z</time>
      </trkpt>
      <trkpt lat="41.1445140" lon="-8.5776510">
        <ele>11.5</ele>
        <time>2021-05-15T16:45:11Z</time>
      </trkpt>
      <trkpt lat="41.1445160" lon="-8.5776700">
        <ele>11.5</ele>
        <time>2021-05-15T16:45:12Z</time>
      </trkpt>
      <trkpt lat="41.1445240" lon="-8.5776990">
        <ele>11.5</ele>
        <time>2021-05-15T16:45:13Z</time>
      </trkpt>
      <trkpt lat="41.1445260" lon="-8.5777130">
        <ele>11.5</ele>
        <time>2021-05-15T16:45:14Z</time>
      </trkpt>
      <trkpt lat="41.1445290" lon="-8.5777260">
        <ele>11.5</ele>
        <time>2021-05-15T16:45:15Z</time>
      </trkpt>
      <trkpt lat="41.1445330" lon="-8.5777570">
        <ele>11.5</ele>
        <time>2021-05-15T16:45:16Z</time>
      </trkpt>
      <trkpt lat="41.1445340" lon="-8.5777680">
        <ele>11.5</ele>
        <time>2021-05-15T16:45:17Z</time>
      </trkpt>
      <trkpt lat="41.1445360" lon="-8.5777800">
        <ele>11.5</ele>
        <time>2021-05-15T16:45:18Z</time>
      </trkpt>
      <trkpt lat="41.1445390" lon="-8.5778100">
        <ele>11.4</ele>
        <time>2021-05-15T16:45:19Z</time>
      </trkpt>
      <trkpt lat="41.1445390" lon="-8.5778210">
        <ele>11.4</ele>
        <time>2021-05-15T16:45:20Z</time>
      </trkpt>
      <trkpt lat="41.1445400" lon="-8.5778310">
        <ele>11.4</ele>
        <time>2021-05-15T16:45:21Z</time>
      </trkpt>
      <trkpt lat="41.1445400" lon="-8.5778530">
        <ele>11.4</ele>
        <time>2021-05-15T16:45:22Z</time>
      </trkpt>
      <trkpt lat="41.1445390" lon="-8.5778710">
        <ele>11.4</ele>
        <time>2021-05-15T16:45:23Z</time>
      </trkpt>
      <trkpt lat="41.1445400" lon="-8.5778940">
        <ele>11.4</ele>
        <time>2021-05-15T16:45:24Z</time>
      </trkpt>
      <trkpt lat="41.1445420" lon="-8.5779080">
        <ele>11.4</ele>
        <time>2021-05-15T16:45:25Z</time>
      </trkpt>
      <trkpt lat="41.1445430" lon="-8.5779220">
        <ele>11.4</ele>
        <time>2021-05-15T16:45:26Z</time>
      </trkpt>
      <trkpt lat="41.1445410" lon="-8.5779470">
        <ele>11.3</ele>
        <time>2021-05-15T16:45:27Z</time>
      </trkpt>
      <trkpt lat="41.1445440" lon="-8.5779680">
        <ele>11.3</ele>
        <time>2021-05-15T16:45:28Z</time>
      </trkpt>
      <trkpt lat="41.1445470" lon="-8.5779890">
        <ele>11.3</ele>
        <time>2021-05-15T16:45:29Z</time>
      </trkpt>
      <trkpt lat="41.1445420" lon="-8.5780090">
        <ele>11.3</ele>
        <time>2021-05-15T16:45:30Z</time>
      </trkpt>
      <trkpt lat="41.1445490" lon="-8.5780320">
        <ele>11.3</ele>
        <time>2021-05-15T16:45:31Z</time>
      </trkpt>
      <trkpt lat="41.1445460" lon="-8.5780500">
        <ele>11.3</ele>
        <time>2021-05-15T16:45:32Z</time>
      </trkpt>
      <trkpt lat="41.1445490" lon="-8.5780690">
        <ele>11.3</ele>
        <time>2021-05-15T16:45:33Z</time>
      </trkpt>
      <trkpt lat="41.1445550" lon="-8.5780880">
        <ele>11.3</ele>
        <time>2021-05-15T16:45:34Z</time>
      </trkpt>
      <trkpt lat="41.1445440" lon="-8.5781050">
        <ele>11.3</ele>
        <time>2021-05-15T16:45:35Z</time>
      </trkpt>
      <trkpt lat="41.1445360" lon="-8.5781200">
        <ele>11.3</ele>
        <time>2021-05-15T16:45:36Z</time>
      </trkpt>
      <trkpt lat="41.1445340" lon="-8.5781300">
        <ele>11.3</ele>
        <time>2021-05-15T16:45:37Z</time>
      </trkpt>
      <trkpt lat="41.1445290" lon="-8.5781470">
        <ele>11.2</ele>
        <time>2021-05-15T16:45:38Z</time>
      </trkpt>
      <trkpt lat="41.1445250" lon="-8.5781650">
        <ele>11.2</ele>
        <time>2021-05-15T16:45:39Z</time>
      </trkpt>
      <trkpt lat="41.1445170" lon="-8.5781840">
        <ele>11.2</ele>
        <time>2021-05-15T16:45:40Z</time>
      </trkpt>
      <trkpt lat="41.1445090" lon="-8.5782060">
        <ele>11.2</ele>
        <time>2021-05-15T16:45:41Z</time>
      </trkpt>
      <trkpt lat="41.1445000" lon="-8.5782230">
        <ele>11.2</ele>
        <time>2021-05-15T16:45:42Z</time>
      </trkpt>
      <trkpt lat="41.1444960" lon="-8.5782660">
        <ele>11.2</ele>
        <time>2021-05-15T16:45:44Z</time>
      </trkpt>
      <trkpt lat="41.1444930" lon="-8.5782930">
        <ele>11.2</ele>
        <time>2021-05-15T16:45:45Z</time>
      </trkpt>
      <trkpt lat="41.1444830" lon="-8.5783220">
        <ele>11.2</ele>
        <time>2021-05-15T16:45:46Z</time>
      </trkpt>
      <trkpt lat="41.1444790" lon="-8.5783360">
        <ele>11.2</ele>
        <time>2021-05-15T16:45:48Z</time>
      </trkpt>
      <trkpt lat="41.1444760" lon="-8.5783500">
        <ele>11.2</ele>
        <time>2021-05-15T16:45:49Z</time>
      </trkpt>
      <trkpt lat="41.1444720" lon="-8.5783640">
        <ele>11.2</ele>
        <time>2021-05-15T16:45:50Z</time>
      </trkpt>
      <trkpt lat="41.1444690" lon="-8.5783780">
        <ele>11.2</ele>
        <time>2021-05-15T16:45:51Z</time>
      </trkpt>
      <trkpt lat="41.1444670" lon="-8.5784010">
        <ele>11.1</ele>
        <time>2021-05-15T16:45:52Z</time>
      </trkpt>
      <trkpt lat="41.1444640" lon="-8.5784180">
        <ele>11.1</ele>
        <time>2021-05-15T16:45:53Z</time>
      </trkpt>
      <trkpt lat="41.1444580" lon="-8.5784520">
        <ele>11.1</ele>
        <time>2021-05-15T16:45:54Z</time>
      </trkpt>
      <trkpt lat="41.1444550" lon="-8.5784700">
        <ele>11.1</ele>
        <time>2021-05-15T16:45:55Z</time>
      </trkpt>
      <trkpt lat="41.1444510" lon="-8.5785000">
        <ele>11.1</ele>
        <time>2021-05-15T16:45:56Z</time>
      </trkpt>
      <trkpt lat="41.1444470" lon="-8.5785120">
        <ele>11.1</ele>
        <time>2021-05-15T16:45:57Z</time>
      </trkpt>
      <trkpt lat="41.1444420" lon="-8.5785240">
        <ele>11.1</ele>
        <time>2021-05-15T16:45:58Z</time>
      </trkpt>
      <trkpt lat="41.1444420" lon="-8.5785380">
        <ele>11.1</ele>
        <time>2021-05-15T16:45:59Z</time>
      </trkpt>
      <trkpt lat="41.1444330" lon="-8.5785610">
        <ele>11.1</ele>
        <time>2021-05-15T16:46:00Z</time>
      </trkpt>
      <trkpt lat="41.1444270" lon="-8.5785730">
        <ele>11.1</ele>
        <time>2021-05-15T16:46:01Z</time>
      </trkpt>
      <trkpt lat="41.1444260" lon="-8.5785980">
        <ele>11.1</ele>
        <time>2021-05-15T16:46:02Z</time>
      </trkpt>
      <trkpt lat="41.1444110" lon="-8.5786230">
        <ele>11.1</ele>
        <time>2021-05-15T16:46:03Z</time>
      </trkpt>
      <trkpt lat="41.1444060" lon="-8.5786330">
        <ele>11.1</ele>
        <time>2021-05-15T16:46:04Z</time>
      </trkpt>
      <trkpt lat="41.1444000" lon="-8.5786440">
        <ele>11.1</ele>
        <time>2021-05-15T16:46:05Z</time>
      </trkpt>
      <trkpt lat="41.1443950" lon="-8.5786640">
        <ele>11.1</ele>
        <time>2021-05-15T16:46:06Z</time>
      </trkpt>
      <trkpt lat="41.1443940" lon="-8.5786730">
        <ele>11.1</ele>
        <time>2021-05-15T16:46:07Z</time>
      </trkpt>
      <trkpt lat="41.1443920" lon="-8.5786820">
        <ele>11.1</ele>
        <time>2021-05-15T16:46:08Z</time>
      </trkpt>
      <trkpt lat="41.1443900" lon="-8.5786910">
        <ele>11.1</ele>
        <time>2021-05-15T16:46:09Z</time>
      </trkpt>
      <trkpt lat="41.1443860" lon="-8.5787310">
        <ele>11.1</ele>
        <time>2021-05-15T16:46:10Z</time>
      </trkpt>
      <trkpt lat="41.1443860" lon="-8.5787440">
        <ele>11.1</ele>
        <time>2021-05-15T16:46:11Z</time>
      </trkpt>
      <trkpt lat="41.1443870" lon="-8.5787800">
        <ele>11.1</ele>
        <time>2021-05-15T16:46:12Z</time>
      </trkpt>
      <trkpt lat="41.1443870" lon="-8.5787920">
        <ele>11.1</ele>
        <time>2021-05-15T16:46:13Z</time>
      </trkpt>
      <trkpt lat="41.1443780" lon="-8.5788180">
        <ele>11.1</ele>
        <time>2021-05-15T16:46:14Z</time>
      </trkpt>
      <trkpt lat="41.1443710" lon="-8.5788240">
        <ele>11.1</ele>
        <time>2021-05-15T16:46:15Z</time>
      </trkpt>
      <trkpt lat="41.1443650" lon="-8.5788310">
        <ele>11.1</ele>
        <time>2021-05-15T16:46:16Z</time>
      </trkpt>
      <trkpt lat="41.1443540" lon="-8.5788540">
        <ele>11.1</ele>
        <time>2021-05-15T16:46:17Z</time>
      </trkpt>
      <trkpt lat="41.1443490" lon="-8.5788630">
        <ele>11.1</ele>
        <time>2021-05-15T16:46:18Z</time>
      </trkpt>
      <trkpt lat="41.1443430" lon="-8.5788710">
        <ele>11.1</ele>
        <time>2021-05-15T16:46:19Z</time>
      </trkpt>
      <trkpt lat="41.1443390" lon="-8.5788860">
        <ele>11.1</ele>
        <time>2021-05-15T16:46:20Z</time>
      </trkpt>
      <trkpt lat="41.1443320" lon="-8.5788950">
        <ele>11.1</ele>
        <time>2021-05-15T16:46:21Z</time>
      </trkpt>
      <trkpt lat="41.1443270" lon="-8.5789050">
        <ele>11.1</ele>
        <time>2021-05-15T16:46:22Z</time>
      </trkpt>
      <trkpt lat="41.1443130" lon="-8.5789240">
        <ele>11.1</ele>
        <time>2021-05-15T16:46:23Z</time>
      </trkpt>
      <trkpt lat="41.1443080" lon="-8.5789320">
        <ele>11.1</ele>
        <time>2021-05-15T16:46:24Z</time>
      </trkpt>
      <trkpt lat="41.1442980" lon="-8.5789530">
        <ele>11.1</ele>
        <time>2021-05-15T16:46:25Z</time>
      </trkpt>
      <trkpt lat="41.1442850" lon="-8.5789640">
        <ele>11.1</ele>
        <time>2021-05-15T16:46:26Z</time>
      </trkpt>
      <trkpt lat="41.1442700" lon="-8.5789990">
        <ele>11.1</ele>
        <time>2021-05-15T16:46:27Z</time>
      </trkpt>
      <trkpt lat="41.1442650" lon="-8.5790090">
        <ele>11.1</ele>
        <time>2021-05-15T16:46:28Z</time>
      </trkpt>
      <trkpt lat="41.1442540" lon="-8.5790420">
        <ele>11.1</ele>
        <time>2021-05-15T16:46:29Z</time>
      </trkpt>
      <trkpt lat="41.1442500" lon="-8.5790530">
        <ele>11.1</ele>
        <time>2021-05-15T16:46:30Z</time>
      </trkpt>
      <trkpt lat="41.1442420" lon="-8.5790760">
        <ele>11.1</ele>
        <time>2021-05-15T16:46:31Z</time>
      </trkpt>
      <trkpt lat="41.1442270" lon="-8.5790890">
        <ele>11.1</ele>
        <time>2021-05-15T16:46:32Z</time>
      </trkpt>
      <trkpt lat="41.1442210" lon="-8.5791110">
        <ele>11.1</ele>
        <time>2021-05-15T16:46:33Z</time>
      </trkpt>
      <trkpt lat="41.1442140" lon="-8.5791270">
        <ele>11.1</ele>
        <time>2021-05-15T16:46:34Z</time>
      </trkpt>
      <trkpt lat="41.1442040" lon="-8.5791510">
        <ele>11.1</ele>
        <time>2021-05-15T16:46:35Z</time>
      </trkpt>
      <trkpt lat="41.1441980" lon="-8.5791610">
        <ele>11.1</ele>
        <time>2021-05-15T16:46:36Z</time>
      </trkpt>
      <trkpt lat="41.1441930" lon="-8.5791710">
        <ele>11.1</ele>
        <time>2021-05-15T16:46:37Z</time>
      </trkpt>
      <trkpt lat="41.1441860" lon="-8.5791940">
        <ele>11.1</ele>
        <time>2021-05-15T16:46:38Z</time>
      </trkpt>
      <trkpt lat="41.1441760" lon="-8.5792110">
        <ele>11.1</ele>
        <time>2021-05-15T16:46:39Z</time>
      </trkpt>
      <trkpt lat="41.1441650" lon="-8.5792320">
        <ele>11.1</ele>
        <time>2021-05-15T16:46:40Z</time>
      </trkpt>
      <trkpt lat="41.1441610" lon="-8.5792470">
        <ele>11.1</ele>
        <time>2021-05-15T16:46:41Z</time>
      </trkpt>
      <trkpt lat="41.1441510" lon="-8.5792650">
        <ele>11.1</ele>
        <time>2021-05-15T16:46:42Z</time>
      </trkpt>
      <trkpt lat="41.1441440" lon="-8.5792790">
        <ele>11.1</ele>
        <time>2021-05-15T16:46:43Z</time>
      </trkpt>
      <trkpt lat="41.1441320" lon="-8.5792990">
        <ele>11.1</ele>
        <time>2021-05-15T16:46:44Z</time>
      </trkpt>
      <trkpt lat="41.1441260" lon="-8.5793150">
        <ele>11.1</ele>
        <time>2021-05-15T16:46:45Z</time>
      </trkpt>
      <trkpt lat="41.1441160" lon="-8.5793310">
        <ele>11.1</ele>
        <time>2021-05-15T16:46:46Z</time>
      </trkpt>
      <trkpt lat="41.1441060" lon="-8.5793470">
        <ele>11.1</ele>
        <time>2021-05-15T16:46:47Z</time>
      </trkpt>
      <trkpt lat="41.1440950" lon="-8.5793660">
        <ele>11.1</ele>
        <time>2021-05-15T16:46:48Z</time>
      </trkpt>
      <trkpt lat="41.1440910" lon="-8.5793880">
        <ele>11.1</ele>
        <time>2021-05-15T16:46:49Z</time>
      </trkpt>
      <trkpt lat="41.1440860" lon="-8.5794040">
        <ele>11.1</ele>
        <time>2021-05-15T16:46:50Z</time>
      </trkpt>
      <trkpt lat="41.1440790" lon="-8.5794220">
        <ele>11.0</ele>
        <time>2021-05-15T16:46:51Z</time>
      </trkpt>
      <trkpt lat="41.1440760" lon="-8.5794460">
        <ele>11.0</ele>
        <time>2021-05-15T16:46:52Z</time>
      </trkpt>
      <trkpt lat="41.1440650" lon="-8.5794600">
        <ele>11.0</ele>
        <time>2021-05-15T16:46:53Z</time>
      </trkpt>
      <trkpt lat="41.1440610" lon="-8.5794770">
        <ele>11.0</ele>
        <time>2021-05-15T16:46:54Z</time>
      </trkpt>
      <trkpt lat="41.1440520" lon="-8.5794960">
        <ele>11.0</ele>
        <time>2021-05-15T16:46:55Z</time>
      </trkpt>
      <trkpt lat="41.1440410" lon="-8.5795050">
        <ele>11.0</ele>
        <time>2021-05-15T16:46:56Z</time>
      </trkpt>
      <trkpt lat="41.1440340" lon="-8.5795240">
        <ele>11.0</ele>
        <time>2021-05-15T16:46:57Z</time>
      </trkpt>
      <trkpt lat="41.1440250" lon="-8.5795410">
        <ele>11.0</ele>
        <time>2021-05-15T16:46:58Z</time>
      </trkpt>
      <trkpt lat="41.1440180" lon="-8.5795570">
        <ele>11.0</ele>
        <time>2021-05-15T16:46:59Z</time>
      </trkpt>
      <trkpt lat="41.1440080" lon="-8.5795740">
        <ele>11.0</ele>
        <time>2021-05-15T16:47:00Z</time>
      </trkpt>
      <trkpt lat="41.1440020" lon="-8.5795900">
        <ele>11.0</ele>
        <time>2021-05-15T16:47:01Z</time>
      </trkpt>
      <trkpt lat="41.1439950" lon="-8.5796100">
        <ele>11.0</ele>
        <time>2021-05-15T16:47:02Z</time>
      </trkpt>
      <trkpt lat="41.1439880" lon="-8.5796300">
        <ele>11.0</ele>
        <time>2021-05-15T16:47:03Z</time>
      </trkpt>
      <trkpt lat="41.1439790" lon="-8.5796580">
        <ele>11.0</ele>
        <time>2021-05-15T16:47:04Z</time>
      </trkpt>
      <trkpt lat="41.1439750" lon="-8.5796700">
        <ele>11.0</ele>
        <time>2021-05-15T16:47:05Z</time>
      </trkpt>
      <trkpt lat="41.1439710" lon="-8.5796820">
        <ele>11.0</ele>
        <time>2021-05-15T16:47:06Z</time>
      </trkpt>
      <trkpt lat="41.1439640" lon="-8.5796980">
        <ele>11.1</ele>
        <time>2021-05-15T16:47:07Z</time>
      </trkpt>
      <trkpt lat="41.1439550" lon="-8.5797150">
        <ele>11.1</ele>
        <time>2021-05-15T16:47:08Z</time>
      </trkpt>
      <trkpt lat="41.1439480" lon="-8.5797340">
        <ele>11.1</ele>
        <time>2021-05-15T16:47:09Z</time>
      </trkpt>
      <trkpt lat="41.1439390" lon="-8.5797500">
        <ele>11.1</ele>
        <time>2021-05-15T16:47:10Z</time>
      </trkpt>
      <trkpt lat="41.1439300" lon="-8.5797670">
        <ele>11.1</ele>
        <time>2021-05-15T16:47:11Z</time>
      </trkpt>
      <trkpt lat="41.1439210" lon="-8.5797810">
        <ele>11.1</ele>
        <time>2021-05-15T16:47:12Z</time>
      </trkpt>
      <trkpt lat="41.1439100" lon="-8.5797970">
        <ele>11.1</ele>
        <time>2021-05-15T16:47:13Z</time>
      </trkpt>
      <trkpt lat="41.1439020" lon="-8.5798140">
        <ele>11.1</ele>
        <time>2021-05-15T16:47:14Z</time>
      </trkpt>
      <trkpt lat="41.1438940" lon="-8.5798340">
        <ele>11.1</ele>
        <time>2021-05-15T16:47:15Z</time>
      </trkpt>
      <trkpt lat="41.1438860" lon="-8.5798440">
        <ele>11.1</ele>
        <time>2021-05-15T16:47:16Z</time>
      </trkpt>
      <trkpt lat="41.1438750" lon="-8.5798590">
        <ele>11.1</ele>
        <time>2021-05-15T16:47:17Z</time>
      </trkpt>
      <trkpt lat="41.1438680" lon="-8.5798750">
        <ele>11.1</ele>
        <time>2021-05-15T16:47:18Z</time>
      </trkpt>
      <trkpt lat="41.1438580" lon="-8.5798940">
        <ele>11.1</ele>
        <time>2021-05-15T16:47:19Z</time>
      </trkpt>
      <trkpt lat="41.1438510" lon="-8.5799070">
        <ele>11.1</ele>
        <time>2021-05-15T16:47:20Z</time>
      </trkpt>
      <trkpt lat="41.1438440" lon="-8.5799270">
        <ele>11.1</ele>
        <time>2021-05-15T16:47:21Z</time>
      </trkpt>
      <trkpt lat="41.1438390" lon="-8.5799450">
        <ele>11.1</ele>
        <time>2021-05-15T16:47:22Z</time>
      </trkpt>
      <trkpt lat="41.1438290" lon="-8.5799600">
        <ele>11.1</ele>
        <time>2021-05-15T16:47:23Z</time>
      </trkpt>
      <trkpt lat="41.1438220" lon="-8.5799740">
        <ele>11.1</ele>
        <time>2021-05-15T16:47:24Z</time>
      </trkpt>
      <trkpt lat="41.1438100" lon="-8.5800040">
        <ele>11.1</ele>
        <time>2021-05-15T16:47:25Z</time>
      </trkpt>
      <trkpt lat="41.1438080" lon="-8.5800140">
        <ele>11.1</ele>
        <time>2021-05-15T16:47:26Z</time>
      </trkpt>
      <trkpt lat="41.1438060" lon="-8.5800250">
        <ele>11.1</ele>
        <time>2021-05-15T16:47:27Z</time>
      </trkpt>
      <trkpt lat="41.1438020" lon="-8.5800370">
        <ele>11.1</ele>
        <time>2021-05-15T16:47:28Z</time>
      </trkpt>
      <trkpt lat="41.1437920" lon="-8.5800560">
        <ele>11.1</ele>
        <time>2021-05-15T16:47:29Z</time>
      </trkpt>
      <trkpt lat="41.1437880" lon="-8.5800690">
        <ele>11.1</ele>
        <time>2021-05-15T16:47:30Z</time>
      </trkpt>
      <trkpt lat="41.1437800" lon="-8.5800850">
        <ele>11.1</ele>
        <time>2021-05-15T16:47:31Z</time>
      </trkpt>
      <trkpt lat="41.1437740" lon="-8.5800960">
        <ele>11.1</ele>
        <time>2021-05-15T16:47:32Z</time>
      </trkpt>
      <trkpt lat="41.1437670" lon="-8.5801240">
        <ele>11.1</ele>
        <time>2021-05-15T16:47:33Z</time>
      </trkpt>
      <trkpt lat="41.1437650" lon="-8.5801360">
        <ele>11.1</ele>
        <time>2021-05-15T16:47:34Z</time>
      </trkpt>
      <trkpt lat="41.1437620" lon="-8.5801480">
        <ele>11.1</ele>
        <time>2021-05-15T16:47:35Z</time>
      </trkpt>
      <trkpt lat="41.1437520" lon="-8.5801730">
        <ele>11.1</ele>
        <time>2021-05-15T16:47:36Z</time>
      </trkpt>
      <trkpt lat="41.1437490" lon="-8.5801860">
        <ele>11.1</ele>
        <time>2021-05-15T16:47:38Z</time>
      </trkpt>
      <trkpt lat="41.1437450" lon="-8.5801980">
        <ele>11.1</ele>
        <time>2021-05-15T16:47:39Z</time>
      </trkpt>
      <trkpt lat="41.1437440" lon="-8.5802180">
        <ele>11.1</ele>
        <time>2021-05-15T16:47:40Z</time>
      </trkpt>
      <trkpt lat="41.1437430" lon="-8.5802380">
        <ele>11.1</ele>
        <time>2021-05-15T16:47:41Z</time>
      </trkpt>
      <trkpt lat="41.1437390" lon="-8.5802570">
        <ele>11.1</ele>
        <time>2021-05-15T16:47:42Z</time>
      </trkpt>
      <trkpt lat="41.1437340" lon="-8.5802770">
        <ele>11.1</ele>
        <time>2021-05-15T16:47:43Z</time>
      </trkpt>
      <trkpt lat="41.1437270" lon="-8.5803000">
        <ele>11.1</ele>
        <time>2021-05-15T16:47:44Z</time>
      </trkpt>
      <trkpt lat="41.1437230" lon="-8.5803130">
        <ele>11.1</ele>
        <time>2021-05-15T16:47:45Z</time>
      </trkpt>
      <trkpt lat="41.1437190" lon="-8.5803260">
        <ele>11.1</ele>
        <time>2021-05-15T16:47:46Z</time>
      </trkpt>
      <trkpt lat="41.1437180" lon="-8.5803570">
        <ele>11.1</ele>
        <time>2021-05-15T16:47:47Z</time>
      </trkpt>
      <trkpt lat="41.1437160" lon="-8.5803710">
        <ele>11.1</ele>
        <time>2021-05-15T16:47:48Z</time>
      </trkpt>
      <trkpt lat="41.1437140" lon="-8.5803860">
        <ele>11.1</ele>
        <time>2021-05-15T16:47:49Z</time>
      </trkpt>
      <trkpt lat="41.1437190" lon="-8.5804040">
        <ele>11.1</ele>
        <time>2021-05-15T16:47:50Z</time>
      </trkpt>
      <trkpt lat="41.1437200" lon="-8.5804270">
        <ele>11.2</ele>
        <time>2021-05-15T16:47:51Z</time>
      </trkpt>
      <trkpt lat="41.1437180" lon="-8.5804460">
        <ele>11.2</ele>
        <time>2021-05-15T16:47:52Z</time>
      </trkpt>
      <trkpt lat="41.1437180" lon="-8.5804710">
        <ele>11.2</ele>
        <time>2021-05-15T16:47:53Z</time>
      </trkpt>
      <trkpt lat="41.1437100" lon="-8.5804930">
        <ele>11.2</ele>
        <time>2021-05-15T16:47:54Z</time>
      </trkpt>
      <trkpt lat="41.1437090" lon="-8.5805060">
        <ele>11.2</ele>
        <time>2021-05-15T16:47:55Z</time>
      </trkpt>
      <trkpt lat="41.1437070" lon="-8.5805180">
        <ele>11.2</ele>
        <time>2021-05-15T16:47:56Z</time>
      </trkpt>
      <trkpt lat="41.1437120" lon="-8.5805460">
        <ele>11.3</ele>
        <time>2021-05-15T16:47:57Z</time>
      </trkpt>
      <trkpt lat="41.1437080" lon="-8.5805620">
        <ele>11.3</ele>
        <time>2021-05-15T16:47:58Z</time>
      </trkpt>
      <trkpt lat="41.1437080" lon="-8.5805820">
        <ele>11.3</ele>
        <time>2021-05-15T16:47:59Z</time>
      </trkpt>
      <trkpt lat="41.1437060" lon="-8.5805900">
        <ele>11.3</ele>
        <time>2021-05-15T16:48:00Z</time>
      </trkpt>
      <trkpt lat="41.1437070" lon="-8.5806320">
        <ele>11.3</ele>
        <time>2021-05-15T16:48:01Z</time>
      </trkpt>
      <trkpt lat="41.1437090" lon="-8.5806520">
        <ele>11.3</ele>
        <time>2021-05-15T16:48:02Z</time>
      </trkpt>
      <trkpt lat="41.1437050" lon="-8.5806720">
        <ele>11.3</ele>
        <time>2021-05-15T16:48:03Z</time>
      </trkpt>
      <trkpt lat="41.1437050" lon="-8.5806870">
        <ele>11.3</ele>
        <time>2021-05-15T16:48:04Z</time>
      </trkpt>
      <trkpt lat="41.1437020" lon="-8.5807070">
        <ele>11.3</ele>
        <time>2021-05-15T16:48:05Z</time>
      </trkpt>
      <trkpt lat="41.1437110" lon="-8.5807280">
        <ele>11.3</ele>
        <time>2021-05-15T16:48:06Z</time>
      </trkpt>
      <trkpt lat="41.1437070" lon="-8.5807420">
        <ele>11.3</ele>
        <time>2021-05-15T16:48:07Z</time>
      </trkpt>
      <trkpt lat="41.1437110" lon="-8.5807590">
        <ele>11.3</ele>
        <time>2021-05-15T16:48:08Z</time>
      </trkpt>
      <trkpt lat="41.1437140" lon="-8.5807740">
        <ele>11.3</ele>
        <time>2021-05-15T16:48:09Z</time>
      </trkpt>
      <trkpt lat="41.1437140" lon="-8.5807950">
        <ele>11.3</ele>
        <time>2021-05-15T16:48:10Z</time>
      </trkpt>
      <trkpt lat="41.1437160" lon="-8.5808220">
        <ele>11.2</ele>
        <time>2021-05-15T16:48:11Z</time>
      </trkpt>
      <trkpt lat="41.1437150" lon="-8.5808420">
        <ele>11.2</ele>
        <time>2021-05-15T16:48:12Z</time>
      </trkpt>
      <trkpt lat="41.1437130" lon="-8.5808620">
        <ele>11.2</ele>
        <time>2021-05-15T16:48:13Z</time>
      </trkpt>
      <trkpt lat="41.1437180" lon="-8.5808830">
        <ele>11.2</ele>
        <time>2021-05-15T16:48:14Z</time>
      </trkpt>
      <trkpt lat="41.1437130" lon="-8.5808990">
        <ele>11.2</ele>
        <time>2021-05-15T16:48:15Z</time>
      </trkpt>
      <trkpt lat="41.1437080" lon="-8.5809280">
        <ele>11.2</ele>
        <time>2021-05-15T16:48:16Z</time>
      </trkpt>
      <trkpt lat="41.1437060" lon="-8.5809410">
        <ele>11.2</ele>
        <time>2021-05-15T16:48:17Z</time>
      </trkpt>
      <trkpt lat="41.1437050" lon="-8.5809530">
        <ele>11.2</ele>
        <time>2021-05-15T16:48:18Z</time>
      </trkpt>
      <trkpt lat="41.1437100" lon="-8.5809740">
        <ele>11.2</ele>
        <time>2021-05-15T16:48:19Z</time>
      </trkpt>
      <trkpt lat="41.1437090" lon="-8.5809920">
        <ele>11.2</ele>
        <time>2021-05-15T16:48:20Z</time>
      </trkpt>
      <trkpt lat="41.1437110" lon="-8.5810070">
        <ele>11.2</ele>
        <time>2021-05-15T16:48:21Z</time>
      </trkpt>
      <trkpt lat="41.1437060" lon="-8.5810300">
        <ele>11.2</ele>
        <time>2021-05-15T16:48:22Z</time>
      </trkpt>
      <trkpt lat="41.1437080" lon="-8.5810540">
        <ele>11.2</ele>
        <time>2021-05-15T16:48:23Z</time>
      </trkpt>
      <trkpt lat="41.1437010" lon="-8.5810720">
        <ele>11.2</ele>
        <time>2021-05-15T16:48:24Z</time>
      </trkpt>
      <trkpt lat="41.1437030" lon="-8.5810930">
        <ele>11.2</ele>
        <time>2021-05-15T16:48:25Z</time>
      </trkpt>
      <trkpt lat="41.1436980" lon="-8.5811120">
        <ele>11.2</ele>
        <time>2021-05-15T16:48:26Z</time>
      </trkpt>
      <trkpt lat="41.1436990" lon="-8.5811320">
        <ele>11.2</ele>
        <time>2021-05-15T16:48:27Z</time>
      </trkpt>
      <trkpt lat="41.1436990" lon="-8.5811570">
        <ele>11.2</ele>
        <time>2021-05-15T16:48:28Z</time>
      </trkpt>
      <trkpt lat="41.1437000" lon="-8.5811720">
        <ele>11.2</ele>
        <time>2021-05-15T16:48:29Z</time>
      </trkpt>
      <trkpt lat="41.1437020" lon="-8.5811940">
        <ele>11.2</ele>
        <time>2021-05-15T16:48:30Z</time>
      </trkpt>
      <trkpt lat="41.1437000" lon="-8.5812210">
        <ele>11.2</ele>
        <time>2021-05-15T16:48:31Z</time>
      </trkpt>
      <trkpt lat="41.1437020" lon="-8.5812330">
        <ele>11.2</ele>
        <time>2021-05-15T16:48:32Z</time>
      </trkpt>
      <trkpt lat="41.1437030" lon="-8.5812450">
        <ele>11.2</ele>
        <time>2021-05-15T16:48:33Z</time>
      </trkpt>
      <trkpt lat="41.1437040" lon="-8.5812630">
        <ele>11.2</ele>
        <time>2021-05-15T16:48:34Z</time>
      </trkpt>
      <trkpt lat="41.1437100" lon="-8.5812850">
        <ele>11.2</ele>
        <time>2021-05-15T16:48:35Z</time>
      </trkpt>
      <trkpt lat="41.1437110" lon="-8.5813070">
        <ele>11.2</ele>
        <time>2021-05-15T16:48:36Z</time>
      </trkpt>
      <trkpt lat="41.1437090" lon="-8.5813270">
        <ele>11.2</ele>
        <time>2021-05-15T16:48:37Z</time>
      </trkpt>
      <trkpt lat="41.1437050" lon="-8.5813470">
        <ele>11.2</ele>
        <time>2021-05-15T16:48:38Z</time>
      </trkpt>
      <trkpt lat="41.1437080" lon="-8.5813640">
        <ele>11.2</ele>
        <time>2021-05-15T16:48:39Z</time>
      </trkpt>
      <trkpt lat="41.1437090" lon="-8.5813830">
        <ele>11.2</ele>
        <time>2021-05-15T16:48:40Z</time>
      </trkpt>
      <trkpt lat="41.1437150" lon="-8.5814060">
        <ele>11.2</ele>
        <time>2021-05-15T16:48:41Z</time>
      </trkpt>
      <trkpt lat="41.1437110" lon="-8.5814220">
        <ele>11.2</ele>
        <time>2021-05-15T16:48:42Z</time>
      </trkpt>
      <trkpt lat="41.1437150" lon="-8.5814450">
        <ele>11.2</ele>
        <time>2021-05-15T16:48:43Z</time>
      </trkpt>
      <trkpt lat="41.1437120" lon="-8.5814730">
        <ele>11.2</ele>
        <time>2021-05-15T16:48:44Z</time>
      </trkpt>
      <trkpt lat="41.1437110" lon="-8.5814850">
        <ele>11.2</ele>
        <time>2021-05-15T16:48:45Z</time>
      </trkpt>
      <trkpt lat="41.1437110" lon="-8.5814980">
        <ele>11.2</ele>
        <time>2021-05-15T16:48:46Z</time>
      </trkpt>
      <trkpt lat="41.1437110" lon="-8.5815190">
        <ele>11.2</ele>
        <time>2021-05-15T16:48:47Z</time>
      </trkpt>
      <trkpt lat="41.1437160" lon="-8.5815390">
        <ele>11.2</ele>
        <time>2021-05-15T16:48:48Z</time>
      </trkpt>
      <trkpt lat="41.1437180" lon="-8.5815550">
        <ele>11.2</ele>
        <time>2021-05-15T16:48:49Z</time>
      </trkpt>
      <trkpt lat="41.1437190" lon="-8.5815800">
        <ele>11.2</ele>
        <time>2021-05-15T16:48:50Z</time>
      </trkpt>
      <trkpt lat="41.1437200" lon="-8.5815960">
        <ele>11.2</ele>
        <time>2021-05-15T16:48:51Z</time>
      </trkpt>
      <trkpt lat="41.1437220" lon="-8.5816190">
        <ele>11.2</ele>
        <time>2021-05-15T16:48:52Z</time>
      </trkpt>
      <trkpt lat="41.1437220" lon="-8.5816390">
        <ele>11.2</ele>
        <time>2021-05-15T16:48:53Z</time>
      </trkpt>
      <trkpt lat="41.1437230" lon="-8.5816600">
        <ele>11.2</ele>
        <time>2021-05-15T16:48:54Z</time>
      </trkpt>
      <trkpt lat="41.1437250" lon="-8.5816800">
        <ele>11.2</ele>
        <time>2021-05-15T16:48:55Z</time>
      </trkpt>
      <trkpt lat="41.1437270" lon="-8.5817020">
        <ele>11.2</ele>
        <time>2021-05-15T16:48:56Z</time>
      </trkpt>
      <trkpt lat="41.1437220" lon="-8.5817170">
        <ele>11.2</ele>
        <time>2021-05-15T16:48:57Z</time>
      </trkpt>
      <trkpt lat="41.1437270" lon="-8.5817400">
        <ele>11.2</ele>
        <time>2021-05-15T16:48:58Z</time>
      </trkpt>
      <trkpt lat="41.1437220" lon="-8.5817670">
        <ele>11.2</ele>
        <time>2021-05-15T16:48:59Z</time>
      </trkpt>
      <trkpt lat="41.1437220" lon="-8.5817780">
        <ele>11.2</ele>
        <time>2021-05-15T16:49:00Z</time>
      </trkpt>
      <trkpt lat="41.1437210" lon="-8.5817890">
        <ele>11.1</ele>
        <time>2021-05-15T16:49:01Z</time>
      </trkpt>
      <trkpt lat="41.1437230" lon="-8.5818070">
        <ele>11.1</ele>
        <time>2021-05-15T16:49:02Z</time>
      </trkpt>
      <trkpt lat="41.1437240" lon="-8.5818280">
        <ele>11.1</ele>
        <time>2021-05-15T16:49:03Z</time>
      </trkpt>
      <trkpt lat="41.1437230" lon="-8.5818480">
        <ele>11.1</ele>
        <time>2021-05-15T16:49:04Z</time>
      </trkpt>
      <trkpt lat="41.1437250" lon="-8.5818670">
        <ele>11.1</ele>
        <time>2021-05-15T16:49:05Z</time>
      </trkpt>
      <trkpt lat="41.1437280" lon="-8.5818900">
        <ele>11.1</ele>
        <time>2021-05-15T16:49:06Z</time>
      </trkpt>
      <trkpt lat="41.1437300" lon="-8.5819080">
        <ele>11.1</ele>
        <time>2021-05-15T16:49:07Z</time>
      </trkpt>
      <trkpt lat="41.1437350" lon="-8.5819290">
        <ele>11.1</ele>
        <time>2021-05-15T16:49:08Z</time>
      </trkpt>
      <trkpt lat="41.1437340" lon="-8.5819480">
        <ele>11.1</ele>
        <time>2021-05-15T16:49:09Z</time>
      </trkpt>
      <trkpt lat="41.1437330" lon="-8.5819680">
        <ele>11.1</ele>
        <time>2021-05-15T16:49:10Z</time>
      </trkpt>
      <trkpt lat="41.1437350" lon="-8.5819870">
        <ele>11.1</ele>
        <time>2021-05-15T16:49:11Z</time>
      </trkpt>
      <trkpt lat="41.1437350" lon="-8.5820020">
        <ele>11.1</ele>
        <time>2021-05-15T16:49:12Z</time>
      </trkpt>
      <trkpt lat="41.1437370" lon="-8.5820250">
        <ele>11.1</ele>
        <time>2021-05-15T16:49:13Z</time>
      </trkpt>
      <trkpt lat="41.1437360" lon="-8.5820430">
        <ele>11.1</ele>
        <time>2021-05-15T16:49:14Z</time>
      </trkpt>
      <trkpt lat="41.1437450" lon="-8.5820630">
        <ele>11.1</ele>
        <time>2021-05-15T16:49:15Z</time>
      </trkpt>
      <trkpt lat="41.1437440" lon="-8.5820920">
        <ele>11.1</ele>
        <time>2021-05-15T16:49:16Z</time>
      </trkpt>
      <trkpt lat="41.1437460" lon="-8.5821050">
        <ele>11.1</ele>
        <time>2021-05-15T16:49:17Z</time>
      </trkpt>
      <trkpt lat="41.1437470" lon="-8.5821180">
        <ele>11.1</ele>
        <time>2021-05-15T16:49:18Z</time>
      </trkpt>
      <trkpt lat="41.1437470" lon="-8.5821380">
        <ele>11.1</ele>
        <time>2021-05-15T16:49:19Z</time>
      </trkpt>
      <trkpt lat="41.1437500" lon="-8.5821570">
        <ele>11.1</ele>
        <time>2021-05-15T16:49:20Z</time>
      </trkpt>
      <trkpt lat="41.1437510" lon="-8.5821740">
        <ele>11.1</ele>
        <time>2021-05-15T16:49:21Z</time>
      </trkpt>
      <trkpt lat="41.1437540" lon="-8.5821970">
        <ele>11.0</ele>
        <time>2021-05-15T16:49:22Z</time>
      </trkpt>
      <trkpt lat="41.1437540" lon="-8.5822260">
        <ele>11.0</ele>
        <time>2021-05-15T16:49:23Z</time>
      </trkpt>
      <trkpt lat="41.1437550" lon="-8.5822390">
        <ele>11.0</ele>
        <time>2021-05-15T16:49:24Z</time>
      </trkpt>
      <trkpt lat="41.1437550" lon="-8.5822520">
        <ele>11.0</ele>
        <time>2021-05-15T16:49:25Z</time>
      </trkpt>
      <trkpt lat="41.1437530" lon="-8.5822670">
        <ele>11.0</ele>
        <time>2021-05-15T16:49:26Z</time>
      </trkpt>
      <trkpt lat="41.1437540" lon="-8.5822890">
        <ele>11.0</ele>
        <time>2021-05-15T16:49:27Z</time>
      </trkpt>
      <trkpt lat="41.1437500" lon="-8.5823070">
        <ele>11.0</ele>
        <time>2021-05-15T16:49:28Z</time>
      </trkpt>
      <trkpt lat="41.1437520" lon="-8.5823250">
        <ele>11.0</ele>
        <time>2021-05-15T16:49:29Z</time>
      </trkpt>
      <trkpt lat="41.1437530" lon="-8.5823450">
        <ele>11.0</ele>
        <time>2021-05-15T16:49:30Z</time>
      </trkpt>
      <trkpt lat="41.1437500" lon="-8.5823650">
        <ele>11.0</ele>
        <time>2021-05-15T16:49:31Z</time>
      </trkpt>
      <trkpt lat="41.1437530" lon="-8.5823860">
        <ele>11.0</ele>
        <time>2021-05-15T16:49:32Z</time>
      </trkpt>
      <trkpt lat="41.1437490" lon="-8.5824020">
        <ele>11.0</ele>
        <time>2021-05-15T16:49:33Z</time>
      </trkpt>
      <trkpt lat="41.1437460" lon="-8.5824240">
        <ele>11.0</ele>
        <time>2021-05-15T16:49:34Z</time>
      </trkpt>
      <trkpt lat="41.1437410" lon="-8.5824390">
        <ele>11.0</ele>
        <time>2021-05-15T16:49:35Z</time>
      </trkpt>
      <trkpt lat="41.1437420" lon="-8.5824610">
        <ele>11.0</ele>
        <time>2021-05-15T16:49:36Z</time>
      </trkpt>
      <trkpt lat="41.1437410" lon="-8.5824780">
        <ele>11.0</ele>
        <time>2021-05-15T16:49:37Z</time>
      </trkpt>
      <trkpt lat="41.1437440" lon="-8.5825030">
        <ele>11.0</ele>
        <time>2021-05-15T16:49:38Z</time>
      </trkpt>
      <trkpt lat="41.1437420" lon="-8.5825190">
        <ele>11.0</ele>
        <time>2021-05-15T16:49:39Z</time>
      </trkpt>
      <trkpt lat="41.1437380" lon="-8.5825360">
        <ele>10.9</ele>
        <time>2021-05-15T16:49:40Z</time>
      </trkpt>
      <trkpt lat="41.1437390" lon="-8.5825560">
        <ele>10.9</ele>
        <time>2021-05-15T16:49:41Z</time>
      </trkpt>
      <trkpt lat="41.1437350" lon="-8.5825730">
        <ele>10.9</ele>
        <time>2021-05-15T16:49:42Z</time>
      </trkpt>
      <trkpt lat="41.1437320" lon="-8.5825930">
        <ele>10.9</ele>
        <time>2021-05-15T16:49:43Z</time>
      </trkpt>
      <trkpt lat="41.1437340" lon="-8.5826240">
        <ele>10.9</ele>
        <time>2021-05-15T16:49:44Z</time>
      </trkpt>
      <trkpt lat="41.1437320" lon="-8.5826360">
        <ele>10.9</ele>
        <time>2021-05-15T16:49:45Z</time>
      </trkpt>
      <trkpt lat="41.1437300" lon="-8.5826490">
        <ele>10.9</ele>
        <time>2021-05-15T16:49:46Z</time>
      </trkpt>
      <trkpt lat="41.1437270" lon="-8.5826700">
        <ele>10.8</ele>
        <time>2021-05-15T16:49:47Z</time>
      </trkpt>
      <trkpt lat="41.1437250" lon="-8.5826890">
        <ele>10.8</ele>
        <time>2021-05-15T16:49:48Z</time>
      </trkpt>
      <trkpt lat="41.1437260" lon="-8.5827080">
        <ele>10.8</ele>
        <time>2021-05-15T16:49:49Z</time>
      </trkpt>
      <trkpt lat="41.1437240" lon="-8.5827320">
        <ele>10.8</ele>
        <time>2021-05-15T16:49:50Z</time>
      </trkpt>
      <trkpt lat="41.1437210" lon="-8.5827610">
        <ele>10.8</ele>
        <time>2021-05-15T16:49:51Z</time>
      </trkpt>
      <trkpt lat="41.1437190" lon="-8.5827730">
        <ele>10.8</ele>
        <time>2021-05-15T16:49:52Z</time>
      </trkpt>
      <trkpt lat="41.1437180" lon="-8.5827850">
        <ele>10.8</ele>
        <time>2021-05-15T16:49:53Z</time>
      </trkpt>
      <trkpt lat="41.1437160" lon="-8.5828070">
        <ele>10.8</ele>
        <time>2021-05-15T16:49:55Z</time>
      </trkpt>
      <trkpt lat="41.1437120" lon="-8.5828260">
        <ele>10.8</ele>
        <time>2021-05-15T16:49:56Z</time>
      </trkpt>
      <trkpt lat="41.1437080" lon="-8.5828420">
        <ele>10.8</ele>
        <time>2021-05-15T16:49:57Z</time>
      </trkpt>
      <trkpt lat="41.1437070" lon="-8.5828630">
        <ele>10.8</ele>
        <time>2021-05-15T16:49:58Z</time>
      </trkpt>
      <trkpt lat="41.1437070" lon="-8.5828810">
        <ele>10.8</ele>
        <time>2021-05-15T16:49:59Z</time>
      </trkpt>
      <trkpt lat="41.1437070" lon="-8.5829000">
        <ele>10.8</ele>
        <time>2021-05-15T16:50:00Z</time>
      </trkpt>
      <trkpt lat="41.1437020" lon="-8.5829280">
        <ele>10.8</ele>
        <time>2021-05-15T16:50:01Z</time>
      </trkpt>
      <trkpt lat="41.1436990" lon="-8.5829390">
        <ele>10.8</ele>
        <time>2021-05-15T16:50:02Z</time>
      </trkpt>
      <trkpt lat="41.1436960" lon="-8.5829510">
        <ele>10.8</ele>
        <time>2021-05-15T16:50:03Z</time>
      </trkpt>
      <trkpt lat="41.1436990" lon="-8.5829720">
        <ele>10.9</ele>
        <time>2021-05-15T16:50:04Z</time>
      </trkpt>
      <trkpt lat="41.1436940" lon="-8.5829890">
        <ele>10.9</ele>
        <time>2021-05-15T16:50:05Z</time>
      </trkpt>
      <trkpt lat="41.1436920" lon="-8.5830060">
        <ele>10.9</ele>
        <time>2021-05-15T16:50:06Z</time>
      </trkpt>
      <trkpt lat="41.1436910" lon="-8.5830440">
        <ele>10.9</ele>
        <time>2021-05-15T16:50:07Z</time>
      </trkpt>
      <trkpt lat="41.1436930" lon="-8.5830650">
        <ele>10.9</ele>
        <time>2021-05-15T16:50:08Z</time>
      </trkpt>
      <trkpt lat="41.1436920" lon="-8.5830940">
        <ele>10.9</ele>
        <time>2021-05-15T16:50:09Z</time>
      </trkpt>
      <trkpt lat="41.1436930" lon="-8.5831050">
        <ele>10.9</ele>
        <time>2021-05-15T16:50:10Z</time>
      </trkpt>
      <trkpt lat="41.1436930" lon="-8.5831150">
        <ele>10.9</ele>
        <time>2021-05-15T16:50:11Z</time>
      </trkpt>
      <trkpt lat="41.1436900" lon="-8.5831390">
        <ele>10.9</ele>
        <time>2021-05-15T16:50:12Z</time>
      </trkpt>
      <trkpt lat="41.1436910" lon="-8.5831570">
        <ele>10.9</ele>
        <time>2021-05-15T16:50:13Z</time>
      </trkpt>
      <trkpt lat="41.1436910" lon="-8.5831770">
        <ele>10.9</ele>
        <time>2021-05-15T16:50:14Z</time>
      </trkpt>
      <trkpt lat="41.1436880" lon="-8.5831970">
        <ele>10.9</ele>
        <time>2021-05-15T16:50:15Z</time>
      </trkpt>
      <trkpt lat="41.1436840" lon="-8.5832160">
        <ele>10.9</ele>
        <time>2021-05-15T16:50:16Z</time>
      </trkpt>
      <trkpt lat="41.1436760" lon="-8.5832320">
        <ele>10.9</ele>
        <time>2021-05-15T16:50:17Z</time>
      </trkpt>
      <trkpt lat="41.1436740" lon="-8.5832490">
        <ele>10.9</ele>
        <time>2021-05-15T16:50:18Z</time>
      </trkpt>
      <trkpt lat="41.1436720" lon="-8.5832740">
        <ele>10.9</ele>
        <time>2021-05-15T16:50:19Z</time>
      </trkpt>
      <trkpt lat="41.1436680" lon="-8.5832890">
        <ele>10.9</ele>
        <time>2021-05-15T16:50:20Z</time>
      </trkpt>
      <trkpt lat="41.1436650" lon="-8.5833090">
        <ele>10.9</ele>
        <time>2021-05-15T16:50:21Z</time>
      </trkpt>
      <trkpt lat="41.1436600" lon="-8.5833370">
        <ele>10.9</ele>
        <time>2021-05-15T16:50:22Z</time>
      </trkpt>
      <trkpt lat="41.1436600" lon="-8.5833480">
        <ele>10.9</ele>
        <time>2021-05-15T16:50:23Z</time>
      </trkpt>
      <trkpt lat="41.1436590" lon="-8.5833600">
        <ele>10.9</ele>
        <time>2021-05-15T16:50:24Z</time>
      </trkpt>
      <trkpt lat="41.1436610" lon="-8.5833800">
        <ele>11.0</ele>
        <time>2021-05-15T16:50:25Z</time>
      </trkpt>
      <trkpt lat="41.1436570" lon="-8.5833990">
        <ele>11.0</ele>
        <time>2021-05-15T16:50:26Z</time>
      </trkpt>
      <trkpt lat="41.1436510" lon="-8.5834160">
        <ele>11.0</ele>
        <time>2021-05-15T16:50:27Z</time>
      </trkpt>
      <trkpt lat="41.1436530" lon="-8.5834350">
        <ele>11.0</ele>
        <time>2021-05-15T16:50:28Z</time>
      </trkpt>
      <trkpt lat="41.1436480" lon="-8.5834550">
        <ele>11.0</ele>
        <time>2021-05-15T16:50:29Z</time>
      </trkpt>
      <trkpt lat="41.1436480" lon="-8.5834760">
        <ele>11.0</ele>
        <time>2021-05-15T16:50:30Z</time>
      </trkpt>
      <trkpt lat="41.1436460" lon="-8.5834960">
        <ele>11.0</ele>
        <time>2021-05-15T16:50:31Z</time>
      </trkpt>
      <trkpt lat="41.1436440" lon="-8.5835150">
        <ele>11.0</ele>
        <time>2021-05-15T16:50:32Z</time>
      </trkpt>
      <trkpt lat="41.1436410" lon="-8.5835360">
        <ele>11.0</ele>
        <time>2021-05-15T16:50:33Z</time>
      </trkpt>
      <trkpt lat="41.1436420" lon="-8.5835550">
        <ele>11.0</ele>
        <time>2021-05-15T16:50:34Z</time>
      </trkpt>
      <trkpt lat="41.1436430" lon="-8.5835790">
        <ele>11.0</ele>
        <time>2021-05-15T16:50:35Z</time>
      </trkpt>
      <trkpt lat="41.1436390" lon="-8.5835960">
        <ele>11.0</ele>
        <time>2021-05-15T16:50:36Z</time>
      </trkpt>
      <trkpt lat="41.1436320" lon="-8.5836130">
        <ele>11.0</ele>
        <time>2021-05-15T16:50:37Z</time>
      </trkpt>
      <trkpt lat="41.1436270" lon="-8.5836340">
        <ele>11.0</ele>
        <time>2021-05-15T16:50:38Z</time>
      </trkpt>
      <trkpt lat="41.1436260" lon="-8.5836540">
        <ele>11.0</ele>
        <time>2021-05-15T16:50:39Z</time>
      </trkpt>
      <trkpt lat="41.1436290" lon="-8.5836780">
        <ele>11.0</ele>
        <time>2021-05-15T16:50:40Z</time>
      </trkpt>
      <trkpt lat="41.1436250" lon="-8.5837080">
        <ele>11.0</ele>
        <time>2021-05-15T16:50:41Z</time>
      </trkpt>
      <trkpt lat="41.1436230" lon="-8.5837190">
        <ele>11.0</ele>
        <time>2021-05-15T16:50:42Z</time>
      </trkpt>
      <trkpt lat="41.1436210" lon="-8.5837310">
        <ele>11.0</ele>
        <time>2021-05-15T16:50:43Z</time>
      </trkpt>
      <trkpt lat="41.1436200" lon="-8.5837570">
        <ele>11.0</ele>
        <time>2021-05-15T16:50:44Z</time>
      </trkpt>
      <trkpt lat="41.1436190" lon="-8.5837700">
        <ele>11.0</ele>
        <time>2021-05-15T16:50:45Z</time>
      </trkpt>
      <trkpt lat="41.1436190" lon="-8.5837820">
        <ele>11.0</ele>
        <time>2021-05-15T16:50:46Z</time>
      </trkpt>
      <trkpt lat="41.1436160" lon="-8.5838030">
        <ele>11.0</ele>
        <time>2021-05-15T16:50:47Z</time>
      </trkpt>
      <trkpt lat="41.1436080" lon="-8.5838260">
        <ele>11.0</ele>
        <time>2021-05-15T16:50:48Z</time>
      </trkpt>
      <trkpt lat="41.1436120" lon="-8.5838450">
        <ele>11.0</ele>
        <time>2021-05-15T16:50:49Z</time>
      </trkpt>
      <trkpt lat="41.1436080" lon="-8.5838640">
        <ele>11.0</ele>
        <time>2021-05-15T16:50:50Z</time>
      </trkpt>
      <trkpt lat="41.1436150" lon="-8.5838830">
        <ele>11.0</ele>
        <time>2021-05-15T16:50:51Z</time>
      </trkpt>
      <trkpt lat="41.1436130" lon="-8.5838990">
        <ele>11.0</ele>
        <time>2021-05-15T16:50:52Z</time>
      </trkpt>
      <trkpt lat="41.1436120" lon="-8.5839270">
        <ele>11.0</ele>
        <time>2021-05-15T16:50:53Z</time>
      </trkpt>
      <trkpt lat="41.1436090" lon="-8.5839390">
        <ele>11.0</ele>
        <time>2021-05-15T16:50:54Z</time>
      </trkpt>
      <trkpt lat="41.1436060" lon="-8.5839510">
        <ele>11.0</ele>
        <time>2021-05-15T16:50:55Z</time>
      </trkpt>
      <trkpt lat="41.1436000" lon="-8.5839690">
        <ele>11.0</ele>
        <time>2021-05-15T16:50:56Z</time>
      </trkpt>
      <trkpt lat="41.1435980" lon="-8.5839910">
        <ele>11.0</ele>
        <time>2021-05-15T16:50:57Z</time>
      </trkpt>
      <trkpt lat="41.1435940" lon="-8.5840080">
        <ele>11.0</ele>
        <time>2021-05-15T16:50:58Z</time>
      </trkpt>
      <trkpt lat="41.1435900" lon="-8.5840280">
        <ele>11.0</ele>
        <time>2021-05-15T16:50:59Z</time>
      </trkpt>
      <trkpt lat="41.1435860" lon="-8.5840490">
        <ele>11.0</ele>
        <time>2021-05-15T16:51:00Z</time>
      </trkpt>
      <trkpt lat="41.1435840" lon="-8.5840710">
        <ele>11.0</ele>
        <time>2021-05-15T16:51:01Z</time>
      </trkpt>
      <trkpt lat="41.1435830" lon="-8.5840910">
        <ele>11.0</ele>
        <time>2021-05-15T16:51:02Z</time>
      </trkpt>
      <trkpt lat="41.1435800" lon="-8.5841120">
        <ele>11.0</ele>
        <time>2021-05-15T16:51:03Z</time>
      </trkpt>
      <trkpt lat="41.1435790" lon="-8.5841330">
        <ele>11.0</ele>
        <time>2021-05-15T16:51:04Z</time>
      </trkpt>
      <trkpt lat="41.1435750" lon="-8.5841500">
        <ele>11.0</ele>
        <time>2021-05-15T16:51:05Z</time>
      </trkpt>
      <trkpt lat="41.1435800" lon="-8.5841720">
        <ele>11.0</ele>
        <time>2021-05-15T16:51:06Z</time>
      </trkpt>
      <trkpt lat="41.1435830" lon="-8.5841920">
        <ele>11.0</ele>
        <time>2021-05-15T16:51:07Z</time>
      </trkpt>
      <trkpt lat="41.1435830" lon="-8.5842130">
        <ele>11.0</ele>
        <time>2021-05-15T16:51:08Z</time>
      </trkpt>
      <trkpt lat="41.1435820" lon="-8.5842310">
        <ele>11.0</ele>
        <time>2021-05-15T16:51:09Z</time>
      </trkpt>
      <trkpt lat="41.1435810" lon="-8.5842510">
        <ele>11.0</ele>
        <time>2021-05-15T16:51:10Z</time>
      </trkpt>
      <trkpt lat="41.1435760" lon="-8.5842690">
        <ele>11.0</ele>
        <time>2021-05-15T16:51:11Z</time>
      </trkpt>
      <trkpt lat="41.1435770" lon="-8.5842910">
        <ele>11.0</ele>
        <time>2021-05-15T16:51:12Z</time>
      </trkpt>
      <trkpt lat="41.1435810" lon="-8.5843080">
        <ele>11.0</ele>
        <time>2021-05-15T16:51:13Z</time>
      </trkpt>
      <trkpt lat="41.1435820" lon="-8.5843270">
        <ele>11.0</ele>
        <time>2021-05-15T16:51:14Z</time>
      </trkpt>
      <trkpt lat="41.1435750" lon="-8.5843440">
        <ele>11.0</ele>
        <time>2021-05-15T16:51:15Z</time>
      </trkpt>
      <trkpt lat="41.1435700" lon="-8.5843640">
        <ele>11.0</ele>
        <time>2021-05-15T16:51:16Z</time>
      </trkpt>
      <trkpt lat="41.1435710" lon="-8.5843850">
        <ele>11.0</ele>
        <time>2021-05-15T16:51:17Z</time>
      </trkpt>
      <trkpt lat="41.1435770" lon="-8.5844050">
        <ele>11.0</ele>
        <time>2021-05-15T16:51:18Z</time>
      </trkpt>
      <trkpt lat="41.1435790" lon="-8.5844240">
        <ele>11.0</ele>
        <time>2021-05-15T16:51:19Z</time>
      </trkpt>
      <trkpt lat="41.1435860" lon="-8.5844420">
        <ele>11.0</ele>
        <time>2021-05-15T16:51:20Z</time>
      </trkpt>
      <trkpt lat="41.1435840" lon="-8.5844650">
        <ele>11.0</ele>
        <time>2021-05-15T16:51:21Z</time>
      </trkpt>
      <trkpt lat="41.1435880" lon="-8.5844840">
        <ele>11.0</ele>
        <time>2021-05-15T16:51:22Z</time>
      </trkpt>
      <trkpt lat="41.1435890" lon="-8.5845010">
        <ele>11.0</ele>
        <time>2021-05-15T16:51:23Z</time>
      </trkpt>
      <trkpt lat="41.1435900" lon="-8.5845210">
        <ele>11.0</ele>
        <time>2021-05-15T16:51:24Z</time>
      </trkpt>
      <trkpt lat="41.1435860" lon="-8.5845390">
        <ele>11.0</ele>
        <time>2021-05-15T16:51:25Z</time>
      </trkpt>
      <trkpt lat="41.1435860" lon="-8.5845540">
        <ele>11.0</ele>
        <time>2021-05-15T16:51:26Z</time>
      </trkpt>
      <trkpt lat="41.1435850" lon="-8.5845740">
        <ele>11.1</ele>
        <time>2021-05-15T16:51:27Z</time>
      </trkpt>
      <trkpt lat="41.1435860" lon="-8.5845930">
        <ele>11.1</ele>
        <time>2021-05-15T16:51:28Z</time>
      </trkpt>
      <trkpt lat="41.1435850" lon="-8.5846120">
        <ele>11.1</ele>
        <time>2021-05-15T16:51:29Z</time>
      </trkpt>
      <trkpt lat="41.1435860" lon="-8.5846380">
        <ele>11.1</ele>
        <time>2021-05-15T16:51:30Z</time>
      </trkpt>
      <trkpt lat="41.1435870" lon="-8.5846500">
        <ele>11.1</ele>
        <time>2021-05-15T16:51:31Z</time>
      </trkpt>
      <trkpt lat="41.1435870" lon="-8.5846630">
        <ele>11.1</ele>
        <time>2021-05-15T16:51:32Z</time>
      </trkpt>
      <trkpt lat="41.1435890" lon="-8.5846900">
        <ele>11.1</ele>
        <time>2021-05-15T16:51:33Z</time>
      </trkpt>
      <trkpt lat="41.1435900" lon="-8.5847010">
        <ele>11.1</ele>
        <time>2021-05-15T16:51:34Z</time>
      </trkpt>
      <trkpt lat="41.1435900" lon="-8.5847130">
        <ele>11.1</ele>
        <time>2021-05-15T16:51:35Z</time>
      </trkpt>
      <trkpt lat="41.1435940" lon="-8.5847360">
        <ele>11.1</ele>
        <time>2021-05-15T16:51:36Z</time>
      </trkpt>
      <trkpt lat="41.1435950" lon="-8.5847590">
        <ele>11.1</ele>
        <time>2021-05-15T16:51:37Z</time>
      </trkpt>
      <trkpt lat="41.1436040" lon="-8.5847780">
        <ele>11.1</ele>
        <time>2021-05-15T16:51:38Z</time>
      </trkpt>
      <trkpt lat="41.1436010" lon="-8.5847940">
        <ele>11.1</ele>
        <time>2021-05-15T16:51:39Z</time>
      </trkpt>
      <trkpt lat="41.1435960" lon="-8.5848150">
        <ele>11.1</ele>
        <time>2021-05-15T16:51:40Z</time>
      </trkpt>
      <trkpt lat="41.1435980" lon="-8.5848370">
        <ele>11.1</ele>
        <time>2021-05-15T16:51:41Z</time>
      </trkpt>
      <trkpt lat="41.1435960" lon="-8.5848590">
        <ele>11.1</ele>
        <time>2021-05-15T16:51:42Z</time>
      </trkpt>
      <trkpt lat="41.1435930" lon="-8.5848800">
        <ele>11.1</ele>
        <time>2021-05-15T16:51:43Z</time>
      </trkpt>
      <trkpt lat="41.1435920" lon="-8.5848990">
        <ele>11.1</ele>
        <time>2021-05-15T16:51:44Z</time>
      </trkpt>
      <trkpt lat="41.1435940" lon="-8.5849190">
        <ele>11.1</ele>
        <time>2021-05-15T16:51:45Z</time>
      </trkpt>
      <trkpt lat="41.1435930" lon="-8.5849400">
        <ele>11.1</ele>
        <time>2021-05-15T16:51:46Z</time>
      </trkpt>
      <trkpt lat="41.1435970" lon="-8.5849610">
        <ele>11.1</ele>
        <time>2021-05-15T16:51:47Z</time>
      </trkpt>
      <trkpt lat="41.1436020" lon="-8.5849800">
        <ele>11.1</ele>
        <time>2021-05-15T16:51:48Z</time>
      </trkpt>
      <trkpt lat="41.1435950" lon="-8.5850010">
        <ele>11.2</ele>
        <time>2021-05-15T16:51:49Z</time>
      </trkpt>
      <trkpt lat="41.1435920" lon="-8.5850290">
        <ele>11.2</ele>
        <time>2021-05-15T16:51:50Z</time>
      </trkpt>
      <trkpt lat="41.1435920" lon="-8.5850410">
        <ele>11.2</ele>
        <time>2021-05-15T16:51:51Z</time>
      </trkpt>
      <trkpt lat="41.1435920" lon="-8.5850540">
        <ele>11.2</ele>
        <time>2021-05-15T16:51:52Z</time>
      </trkpt>
      <trkpt lat="41.1435910" lon="-8.5850820">
        <ele>11.2</ele>
        <time>2021-05-15T16:51:53Z</time>
      </trkpt>
      <trkpt lat="41.1435870" lon="-8.5851010">
        <ele>11.2</ele>
        <time>2021-05-15T16:51:54Z</time>
      </trkpt>
      <trkpt lat="41.1435920" lon="-8.5851220">
        <ele>11.2</ele>
        <time>2021-05-15T16:51:55Z</time>
      </trkpt>
      <trkpt lat="41.1435920" lon="-8.5851380">
        <ele>11.2</ele>
        <time>2021-05-15T16:51:56Z</time>
      </trkpt>
      <trkpt lat="41.1435830" lon="-8.5851550">
        <ele>11.2</ele>
        <time>2021-05-15T16:51:57Z</time>
      </trkpt>
      <trkpt lat="41.1435840" lon="-8.5851770">
        <ele>11.2</ele>
        <time>2021-05-15T16:51:58Z</time>
      </trkpt>
      <trkpt lat="41.1435850" lon="-8.5852060">
        <ele>11.2</ele>
        <time>2021-05-15T16:51:59Z</time>
      </trkpt>
      <trkpt lat="41.1435840" lon="-8.5852170">
        <ele>11.2</ele>
        <time>2021-05-15T16:52:00Z</time>
      </trkpt>
      <trkpt lat="41.1435830" lon="-8.5852290">
        <ele>11.2</ele>
        <time>2021-05-15T16:52:01Z</time>
      </trkpt>
      <trkpt lat="41.1435830" lon="-8.5852620">
        <ele>11.2</ele>
        <time>2021-05-15T16:52:02Z</time>
      </trkpt>
      <trkpt lat="41.1435830" lon="-8.5852770">
        <ele>11.2</ele>
        <time>2021-05-15T16:52:04Z</time>
      </trkpt>
      <trkpt lat="41.1435820" lon="-8.5852930">
        <ele>11.2</ele>
        <time>2021-05-15T16:52:05Z</time>
      </trkpt>
      <trkpt lat="41.1435820" lon="-8.5853080">
        <ele>11.2</ele>
        <time>2021-05-15T16:52:06Z</time>
      </trkpt>
      <trkpt lat="41.1435820" lon="-8.5853230">
        <ele>11.2</ele>
        <time>2021-05-15T16:52:07Z</time>
      </trkpt>
      <trkpt lat="41.1435790" lon="-8.5853360">
        <ele>11.2</ele>
        <time>2021-05-15T16:52:08Z</time>
      </trkpt>
      <trkpt lat="41.1435790" lon="-8.5853640">
        <ele>11.2</ele>
        <time>2021-05-15T16:52:09Z</time>
      </trkpt>
      <trkpt lat="41.1435770" lon="-8.5853790">
        <ele>11.2</ele>
        <time>2021-05-15T16:52:10Z</time>
      </trkpt>
      <trkpt lat="41.1435790" lon="-8.5854000">
        <ele>11.2</ele>
        <time>2021-05-15T16:52:11Z</time>
      </trkpt>
      <trkpt lat="41.1435710" lon="-8.5854180">
        <ele>11.2</ele>
        <time>2021-05-15T16:52:12Z</time>
      </trkpt>
      <trkpt lat="41.1435660" lon="-8.5854580">
        <ele>11.2</ele>
        <time>2021-05-15T16:52:13Z</time>
      </trkpt>
      <trkpt lat="41.1435630" lon="-8.5854770">
        <ele>11.2</ele>
        <time>2021-05-15T16:52:14Z</time>
      </trkpt>
      <trkpt lat="41.1435600" lon="-8.5854930">
        <ele>11.2</ele>
        <time>2021-05-15T16:52:15Z</time>
      </trkpt>
      <trkpt lat="41.1435510" lon="-8.5855100">
        <ele>11.2</ele>
        <time>2021-05-15T16:52:16Z</time>
      </trkpt>
      <trkpt lat="41.1435460" lon="-8.5855350">
        <ele>11.2</ele>
        <time>2021-05-15T16:52:17Z</time>
      </trkpt>
      <trkpt lat="41.1435420" lon="-8.5855470">
        <ele>11.2</ele>
        <time>2021-05-15T16:52:18Z</time>
      </trkpt>
      <trkpt lat="41.1435380" lon="-8.5855580">
        <ele>11.2</ele>
        <time>2021-05-15T16:52:19Z</time>
      </trkpt>
      <trkpt lat="41.1435400" lon="-8.5855780">
        <ele>11.2</ele>
        <time>2021-05-15T16:52:20Z</time>
      </trkpt>
      <trkpt lat="41.1435310" lon="-8.5855980">
        <ele>11.2</ele>
        <time>2021-05-15T16:52:21Z</time>
      </trkpt>
      <trkpt lat="41.1435330" lon="-8.5856200">
        <ele>11.2</ele>
        <time>2021-05-15T16:52:22Z</time>
      </trkpt>
      <trkpt lat="41.1435370" lon="-8.5856410">
        <ele>11.2</ele>
        <time>2021-05-15T16:52:23Z</time>
      </trkpt>
      <trkpt lat="41.1435290" lon="-8.5856590">
        <ele>11.2</ele>
        <time>2021-05-15T16:52:24Z</time>
      </trkpt>
      <trkpt lat="41.1435240" lon="-8.5856800">
        <ele>11.2</ele>
        <time>2021-05-15T16:52:25Z</time>
      </trkpt>
      <trkpt lat="41.1435140" lon="-8.5856960">
        <ele>11.2</ele>
        <time>2021-05-15T16:52:26Z</time>
      </trkpt>
      <trkpt lat="41.1435090" lon="-8.5857150">
        <ele>11.2</ele>
        <time>2021-05-15T16:52:27Z</time>
      </trkpt>
      <trkpt lat="41.1435010" lon="-8.5857320">
        <ele>11.2</ele>
        <time>2021-05-15T16:52:28Z</time>
      </trkpt>
      <trkpt lat="41.1434970" lon="-8.5857520">
        <ele>11.2</ele>
        <time>2021-05-15T16:52:29Z</time>
      </trkpt>
      <trkpt lat="41.1434890" lon="-8.5857700">
        <ele>11.2</ele>
        <time>2021-05-15T16:52:30Z</time>
      </trkpt>
      <trkpt lat="41.1434870" lon="-8.5857920">
        <ele>11.2</ele>
        <time>2021-05-15T16:52:31Z</time>
      </trkpt>
      <trkpt lat="41.1434770" lon="-8.5858090">
        <ele>11.2</ele>
        <time>2021-05-15T16:52:32Z</time>
      </trkpt>
      <trkpt lat="41.1434680" lon="-8.5858230">
        <ele>11.2</ele>
        <time>2021-05-15T16:52:33Z</time>
      </trkpt>
      <trkpt lat="41.1434600" lon="-8.5858390">
        <ele>11.2</ele>
        <time>2021-05-15T16:52:34Z</time>
      </trkpt>
      <trkpt lat="41.1434580" lon="-8.5858570">
        <ele>11.2</ele>
        <time>2021-05-15T16:52:35Z</time>
      </trkpt>
      <trkpt lat="41.1434560" lon="-8.5858800">
        <ele>11.2</ele>
        <time>2021-05-15T16:52:36Z</time>
      </trkpt>
      <trkpt lat="41.1434510" lon="-8.5859020">
        <ele>11.2</ele>
        <time>2021-05-15T16:52:37Z</time>
      </trkpt>
      <trkpt lat="41.1434480" lon="-8.5859190">
        <ele>11.2</ele>
        <time>2021-05-15T16:52:38Z</time>
      </trkpt>
      <trkpt lat="41.1434400" lon="-8.5859380">
        <ele>11.2</ele>
        <time>2021-05-15T16:52:39Z</time>
      </trkpt>
      <trkpt lat="41.1434350" lon="-8.5859540">
        <ele>11.2</ele>
        <time>2021-05-15T16:52:40Z</time>
      </trkpt>
      <trkpt lat="41.1434290" lon="-8.5859740">
        <ele>11.2</ele>
        <time>2021-05-15T16:52:41Z</time>
      </trkpt>
      <trkpt lat="41.1434250" lon="-8.5859900">
        <ele>11.2</ele>
        <time>2021-05-15T16:52:42Z</time>
      </trkpt>
      <trkpt lat="41.1434180" lon="-8.5860080">
        <ele>11.2</ele>
        <time>2021-05-15T16:52:43Z</time>
      </trkpt>
      <trkpt lat="41.1434100" lon="-8.5860260">
        <ele>11.2</ele>
        <time>2021-05-15T16:52:44Z</time>
      </trkpt>
      <trkpt lat="41.1434020" lon="-8.5860440">
        <ele>11.2</ele>
        <time>2021-05-15T16:52:45Z</time>
      </trkpt>
      <trkpt lat="41.1433940" lon="-8.5860610">
        <ele>11.2</ele>
        <time>2021-05-15T16:52:46Z</time>
      </trkpt>
      <trkpt lat="41.1433870" lon="-8.5860830">
        <ele>11.2</ele>
        <time>2021-05-15T16:52:47Z</time>
      </trkpt>
      <trkpt lat="41.1433800" lon="-8.5861000">
        <ele>11.2</ele>
        <time>2021-05-15T16:52:48Z</time>
      </trkpt>
      <trkpt lat="41.1433790" lon="-8.5861200">
        <ele>11.2</ele>
        <time>2021-05-15T16:52:49Z</time>
      </trkpt>
      <trkpt lat="41.1433710" lon="-8.5861370">
        <ele>11.2</ele>
        <time>2021-05-15T16:52:50Z</time>
      </trkpt>
      <trkpt lat="41.1433610" lon="-8.5861560">
        <ele>11.2</ele>
        <time>2021-05-15T16:52:51Z</time>
      </trkpt>
      <trkpt lat="41.1433530" lon="-8.5861810">
        <ele>11.2</ele>
        <time>2021-05-15T16:52:52Z</time>
      </trkpt>
      <trkpt lat="41.1433480" lon="-8.5861930">
        <ele>11.2</ele>
        <time>2021-05-15T16:52:53Z</time>
      </trkpt>
      <trkpt lat="41.1433430" lon="-8.5862040">
        <ele>11.2</ele>
        <time>2021-05-15T16:52:54Z</time>
      </trkpt>
      <trkpt lat="41.1433360" lon="-8.5862260">
        <ele>11.2</ele>
        <time>2021-05-15T16:52:55Z</time>
      </trkpt>
      <trkpt lat="41.1433240" lon="-8.5862380">
        <ele>11.2</ele>
        <time>2021-05-15T16:52:56Z</time>
      </trkpt>
      <trkpt lat="41.1433180" lon="-8.5862530">
        <ele>11.2</ele>
        <time>2021-05-15T16:52:57Z</time>
      </trkpt>
      <trkpt lat="41.1433090" lon="-8.5862690">
        <ele>11.2</ele>
        <time>2021-05-15T16:52:58Z</time>
      </trkpt>
      <trkpt lat="41.1433050" lon="-8.5862870">
        <ele>11.2</ele>
        <time>2021-05-15T16:52:59Z</time>
      </trkpt>
      <trkpt lat="41.1432940" lon="-8.5863020">
        <ele>11.2</ele>
        <time>2021-05-15T16:53:00Z</time>
      </trkpt>
      <trkpt lat="41.1432920" lon="-8.5863200">
        <ele>11.2</ele>
        <time>2021-05-15T16:53:01Z</time>
      </trkpt>
      <trkpt lat="41.1432850" lon="-8.5863340">
        <ele>11.2</ele>
        <time>2021-05-15T16:53:02Z</time>
      </trkpt>
      <trkpt lat="41.1432780" lon="-8.5863440">
        <ele>11.2</ele>
        <time>2021-05-15T16:53:03Z</time>
      </trkpt>
      <trkpt lat="41.1432710" lon="-8.5863600">
        <ele>11.2</ele>
        <time>2021-05-15T16:53:04Z</time>
      </trkpt>
      <trkpt lat="41.1432570" lon="-8.5863800">
        <ele>11.3</ele>
        <time>2021-05-15T16:53:05Z</time>
      </trkpt>
      <trkpt lat="41.1432450" lon="-8.5863940">
        <ele>11.3</ele>
        <time>2021-05-15T16:53:06Z</time>
      </trkpt>
      <trkpt lat="41.1432350" lon="-8.5864110">
        <ele>11.3</ele>
        <time>2021-05-15T16:53:07Z</time>
      </trkpt>
      <trkpt lat="41.1432250" lon="-8.5864270">
        <ele>11.3</ele>
        <time>2021-05-15T16:53:08Z</time>
      </trkpt>
      <trkpt lat="41.1432140" lon="-8.5864450">
        <ele>11.3</ele>
        <time>2021-05-15T16:53:09Z</time>
      </trkpt>
      <trkpt lat="41.1432040" lon="-8.5864670">
        <ele>11.3</ele>
        <time>2021-05-15T16:53:10Z</time>
      </trkpt>
      <trkpt lat="41.1431990" lon="-8.5864830">
        <ele>11.3</ele>
        <time>2021-05-15T16:53:11Z</time>
      </trkpt>
      <trkpt lat="41.1431910" lon="-8.5864930">
        <ele>11.3</ele>
        <time>2021-05-15T16:53:12Z</time>
      </trkpt>
      <trkpt lat="41.1431890" lon="-8.5865040">
        <ele>11.3</ele>
        <time>2021-05-15T16:53:13Z</time>
      </trkpt>
      <trkpt lat="41.1431820" lon="-8.5865190">
        <ele>11.3</ele>
        <time>2021-05-15T16:53:14Z</time>
      </trkpt>
      <trkpt lat="41.1431730" lon="-8.5865330">
        <ele>11.3</ele>
        <time>2021-05-15T16:53:15Z</time>
      </trkpt>
      <trkpt lat="41.1431660" lon="-8.5865500">
        <ele>11.3</ele>
        <time>2021-05-15T16:53:16Z</time>
      </trkpt>
      <trkpt lat="41.1431530" lon="-8.5865720">
        <ele>11.3</ele>
        <time>2021-05-15T16:53:17Z</time>
      </trkpt>
      <trkpt lat="41.1431480" lon="-8.5865800">
        <ele>11.3</ele>
        <time>2021-05-15T16:53:18Z</time>
      </trkpt>
      <trkpt lat="41.1431430" lon="-8.5865880">
        <ele>11.3</ele>
        <time>2021-05-15T16:53:19Z</time>
      </trkpt>
      <trkpt lat="41.1431310" lon="-8.5865990">
        <ele>11.3</ele>
        <time>2021-05-15T16:53:20Z</time>
      </trkpt>
      <trkpt lat="41.1431250" lon="-8.5866170">
        <ele>11.3</ele>
        <time>2021-05-15T16:53:21Z</time>
      </trkpt>
      <trkpt lat="41.1431160" lon="-8.5866330">
        <ele>11.3</ele>
        <time>2021-05-15T16:53:22Z</time>
      </trkpt>
      <trkpt lat="41.1431040" lon="-8.5866470">
        <ele>11.3</ele>
        <time>2021-05-15T16:53:23Z</time>
      </trkpt>
      <trkpt lat="41.1430920" lon="-8.5866580">
        <ele>11.3</ele>
        <time>2021-05-15T16:53:24Z</time>
      </trkpt>
      <trkpt lat="41.1430830" lon="-8.5866760">
        <ele>11.3</ele>
        <time>2021-05-15T16:53:25Z</time>
      </trkpt>
      <trkpt lat="41.1430750" lon="-8.5866870">
        <ele>11.3</ele>
        <time>2021-05-15T16:53:26Z</time>
      </trkpt>
      <trkpt lat="41.1430670" lon="-8.5866990">
        <ele>11.3</ele>
        <time>2021-05-15T16:53:27Z</time>
      </trkpt>
      <trkpt lat="41.1430650" lon="-8.5867170">
        <ele>11.3</ele>
        <time>2021-05-15T16:53:28Z</time>
      </trkpt>
      <trkpt lat="41.1430590" lon="-8.5867390">
        <ele>11.3</ele>
        <time>2021-05-15T16:53:29Z</time>
      </trkpt>
      <trkpt lat="41.1430490" lon="-8.5867530">
        <ele>11.3</ele>
        <time>2021-05-15T16:53:30Z</time>
      </trkpt>
      <trkpt lat="41.1430400" lon="-8.5867730">
        <ele>11.3</ele>
        <time>2021-05-15T16:53:31Z</time>
      </trkpt>
      <trkpt lat="41.1430320" lon="-8.5867830">
        <ele>11.3</ele>
        <time>2021-05-15T16:53:32Z</time>
      </trkpt>
      <trkpt lat="41.1430130" lon="-8.5868090">
        <ele>11.3</ele>
        <time>2021-05-15T16:53:33Z</time>
      </trkpt>
      <trkpt lat="41.1430070" lon="-8.5868190">
        <ele>11.3</ele>
        <time>2021-05-15T16:53:34Z</time>
      </trkpt>
      <trkpt lat="41.1429990" lon="-8.5868410">
        <ele>11.3</ele>
        <time>2021-05-15T16:53:35Z</time>
      </trkpt>
      <trkpt lat="41.1429880" lon="-8.5868540">
        <ele>11.3</ele>
        <time>2021-05-15T16:53:36Z</time>
      </trkpt>
      <trkpt lat="41.1429690" lon="-8.5868690">
        <ele>11.3</ele>
        <time>2021-05-15T16:53:37Z</time>
      </trkpt>
      <trkpt lat="41.1429610" lon="-8.5868780">
        <ele>11.3</ele>
        <time>2021-05-15T16:53:38Z</time>
      </trkpt>
      <trkpt lat="41.1429540" lon="-8.5868860">
        <ele>11.3</ele>
        <time>2021-05-15T16:53:39Z</time>
      </trkpt>
      <trkpt lat="41.1429390" lon="-8.5869000">
        <ele>11.3</ele>
        <time>2021-05-15T16:53:40Z</time>
      </trkpt>
      <trkpt lat="41.1429260" lon="-8.5869100">
        <ele>11.3</ele>
        <time>2021-05-15T16:53:41Z</time>
      </trkpt>
      <trkpt lat="41.1429120" lon="-8.5869200">
        <ele>11.3</ele>
        <time>2021-05-15T16:53:42Z</time>
      </trkpt>
      <trkpt lat="41.1428990" lon="-8.5869300">
        <ele>11.3</ele>
        <time>2021-05-15T16:53:43Z</time>
      </trkpt>
      <trkpt lat="41.1428860" lon="-8.5869430">
        <ele>11.3</ele>
        <time>2021-05-15T16:53:44Z</time>
      </trkpt>
      <trkpt lat="41.1428690" lon="-8.5869520">
        <ele>11.3</ele>
        <time>2021-05-15T16:53:45Z</time>
      </trkpt>
      <trkpt lat="41.1428580" lon="-8.5869690">
        <ele>11.3</ele>
        <time>2021-05-15T16:53:46Z</time>
      </trkpt>
      <trkpt lat="41.1428430" lon="-8.5869770">
        <ele>11.3</ele>
        <time>2021-05-15T16:53:47Z</time>
      </trkpt>
      <trkpt lat="41.1428310" lon="-8.5869930">
        <ele>11.3</ele>
        <time>2021-05-15T16:53:48Z</time>
      </trkpt>
      <trkpt lat="41.1428160" lon="-8.5870050">
        <ele>11.3</ele>
        <time>2021-05-15T16:53:49Z</time>
      </trkpt>
      <trkpt lat="41.1428020" lon="-8.5870180">
        <ele>11.3</ele>
        <time>2021-05-15T16:53:50Z</time>
      </trkpt>
      <trkpt lat="41.1427890" lon="-8.5870320">
        <ele>11.3</ele>
        <time>2021-05-15T16:53:51Z</time>
      </trkpt>
      <trkpt lat="41.1427760" lon="-8.5870480">
        <ele>11.3</ele>
        <time>2021-05-15T16:53:52Z</time>
      </trkpt>
      <trkpt lat="41.1427580" lon="-8.5870530">
        <ele>11.3</ele>
        <time>2021-05-15T16:53:53Z</time>
      </trkpt>
      <trkpt lat="41.1427460" lon="-8.5870680">
        <ele>11.3</ele>
        <time>2021-05-15T16:53:54Z</time>
      </trkpt>
      <trkpt lat="41.1427300" lon="-8.5870840">
        <ele>11.3</ele>
        <time>2021-05-15T16:53:56Z</time>
      </trkpt>
      <trkpt lat="41.1427060" lon="-8.5871010">
        <ele>11.3</ele>
        <time>2021-05-15T16:53:57Z</time>
      </trkpt>
      <trkpt lat="41.1426990" lon="-8.5871100">
        <ele>11.3</ele>
        <time>2021-05-15T16:53:58Z</time>
      </trkpt>
      <trkpt lat="41.1426850" lon="-8.5871210">
        <ele>11.3</ele>
        <time>2021-05-15T16:53:59Z</time>
      </trkpt>
      <trkpt lat="41.1426730" lon="-8.5871300">
        <ele>11.3</ele>
        <time>2021-05-15T16:54:00Z</time>
      </trkpt>
      <trkpt lat="41.1426570" lon="-8.5871410">
        <ele>11.3</ele>
        <time>2021-05-15T16:54:01Z</time>
      </trkpt>
      <trkpt lat="41.1426480" lon="-8.5871520">
        <ele>11.3</ele>
        <time>2021-05-15T16:54:02Z</time>
      </trkpt>
      <trkpt lat="41.1426350" lon="-8.5871710">
        <ele>11.3</ele>
        <time>2021-05-15T16:54:03Z</time>
      </trkpt>
      <trkpt lat="41.1426250" lon="-8.5871820">
        <ele>11.3</ele>
        <time>2021-05-15T16:54:04Z</time>
      </trkpt>
      <trkpt lat="41.1426110" lon="-8.5871860">
        <ele>11.3</ele>
        <time>2021-05-15T16:54:05Z</time>
      </trkpt>
      <trkpt lat="41.1425950" lon="-8.5871950">
        <ele>11.3</ele>
        <time>2021-05-15T16:54:06Z</time>
      </trkpt>
      <trkpt lat="41.1425820" lon="-8.5872050">
        <ele>11.3</ele>
        <time>2021-05-15T16:54:07Z</time>
      </trkpt>
      <trkpt lat="41.1425720" lon="-8.5872180">
        <ele>11.3</ele>
        <time>2021-05-15T16:54:08Z</time>
      </trkpt>
      <trkpt lat="41.1425600" lon="-8.5872320">
        <ele>11.3</ele>
        <time>2021-05-15T16:54:09Z</time>
      </trkpt>
      <trkpt lat="41.1425500" lon="-8.5872430">
        <ele>11.3</ele>
        <time>2021-05-15T16:54:10Z</time>
      </trkpt>
      <trkpt lat="41.1425360" lon="-8.5872490">
        <ele>11.3</ele>
        <time>2021-05-15T16:54:11Z</time>
      </trkpt>
      <trkpt lat="41.1425230" lon="-8.5872590">
        <ele>11.3</ele>
        <time>2021-05-15T16:54:12Z</time>
      </trkpt>
      <trkpt lat="41.1425110" lon="-8.5872710">
        <ele>11.3</ele>
        <time>2021-05-15T16:54:13Z</time>
      </trkpt>
      <trkpt lat="41.1424970" lon="-8.5872780">
        <ele>11.3</ele>
        <time>2021-05-15T16:54:14Z</time>
      </trkpt>
      <trkpt lat="41.1424860" lon="-8.5872880">
        <ele>11.3</ele>
        <time>2021-05-15T16:54:15Z</time>
      </trkpt>
      <trkpt lat="41.1424710" lon="-8.5872930">
        <ele>11.3</ele>
        <time>2021-05-15T16:54:16Z</time>
      </trkpt>
      <trkpt lat="41.1424610" lon="-8.5873070">
        <ele>11.3</ele>
        <time>2021-05-15T16:54:17Z</time>
      </trkpt>
      <trkpt lat="41.1424490" lon="-8.5873190">
        <ele>11.3</ele>
        <time>2021-05-15T16:54:18Z</time>
      </trkpt>
      <trkpt lat="41.1424260" lon="-8.5873410">
        <ele>11.3</ele>
        <time>2021-05-15T16:54:19Z</time>
      </trkpt>
      <trkpt lat="41.1424130" lon="-8.5873460">
        <ele>11.3</ele>
        <time>2021-05-15T16:54:20Z</time>
      </trkpt>
      <trkpt lat="41.1424040" lon="-8.5873540">
        <ele>11.3</ele>
        <time>2021-05-15T16:54:21Z</time>
      </trkpt>
      <trkpt lat="41.1423960" lon="-8.5873610">
        <ele>11.3</ele>
        <time>2021-05-15T16:54:22Z</time>
      </trkpt>
      <trkpt lat="41.1423830" lon="-8.5873660">
        <ele>11.4</ele>
        <time>2021-05-15T16:54:23Z</time>
      </trkpt>
      <trkpt lat="41.1423700" lon="-8.5873810">
        <ele>11.4</ele>
        <time>2021-05-15T16:54:24Z</time>
      </trkpt>
      <trkpt lat="41.1423550" lon="-8.5874000">
        <ele>11.4</ele>
        <time>2021-05-15T16:54:25Z</time>
      </trkpt>
      <trkpt lat="41.1423480" lon="-8.5874060">
        <ele>11.4</ele>
        <time>2021-05-15T16:54:26Z</time>
      </trkpt>
      <trkpt lat="41.1423410" lon="-8.5874110">
        <ele>11.4</ele>
        <time>2021-05-15T16:54:27Z</time>
      </trkpt>
      <trkpt lat="41.1423280" lon="-8.5874160">
        <ele>11.4</ele>
        <time>2021-05-15T16:54:28Z</time>
      </trkpt>
      <trkpt lat="41.1423160" lon="-8.5874240">
        <ele>11.4</ele>
        <time>2021-05-15T16:54:29Z</time>
      </trkpt>
      <trkpt lat="41.1423070" lon="-8.5874290">
        <ele>11.4</ele>
        <time>2021-05-15T16:54:30Z</time>
      </trkpt>
      <trkpt lat="41.1422890" lon="-8.5874390">
        <ele>11.4</ele>
        <time>2021-05-15T16:54:31Z</time>
      </trkpt>
      <trkpt lat="41.1422820" lon="-8.5874480">
        <ele>11.4</ele>
        <time>2021-05-15T16:54:32Z</time>
      </trkpt>
      <trkpt lat="41.1422660" lon="-8.5874670">
        <ele>11.4</ele>
        <time>2021-05-15T16:54:33Z</time>
      </trkpt>
      <trkpt lat="41.1422590" lon="-8.5874740">
        <ele>11.4</ele>
        <time>2021-05-15T16:54:34Z</time>
      </trkpt>
      <trkpt lat="41.1422520" lon="-8.5874810">
        <ele>11.4</ele>
        <time>2021-05-15T16:54:35Z</time>
      </trkpt>
      <trkpt lat="41.1422410" lon="-8.5874860">
        <ele>11.4</ele>
        <time>2021-05-15T16:54:36Z</time>
      </trkpt>
      <trkpt lat="41.1422280" lon="-8.5874990">
        <ele>11.4</ele>
        <time>2021-05-15T16:54:37Z</time>
      </trkpt>
      <trkpt lat="41.1422180" lon="-8.5875100">
        <ele>11.4</ele>
        <time>2021-05-15T16:54:38Z</time>
      </trkpt>
      <trkpt lat="41.1422040" lon="-8.5875170">
        <ele>11.4</ele>
        <time>2021-05-15T16:54:39Z</time>
      </trkpt>
      <trkpt lat="41.1421860" lon="-8.5875230">
        <ele>11.4</ele>
        <time>2021-05-15T16:54:40Z</time>
      </trkpt>
      <trkpt lat="41.1421780" lon="-8.5875310">
        <ele>11.4</ele>
        <time>2021-05-15T16:54:41Z</time>
      </trkpt>
      <trkpt lat="41.1421690" lon="-8.5875380">
        <ele>11.4</ele>
        <time>2021-05-15T16:54:42Z</time>
      </trkpt>
      <trkpt lat="41.1421540" lon="-8.5875500">
        <ele>11.4</ele>
        <time>2021-05-15T16:54:43Z</time>
      </trkpt>
      <trkpt lat="41.1421420" lon="-8.5875660">
        <ele>11.4</ele>
        <time>2021-05-15T16:54:44Z</time>
      </trkpt>
      <trkpt lat="41.1421280" lon="-8.5875770">
        <ele>11.4</ele>
        <time>2021-05-15T16:54:45Z</time>
      </trkpt>
      <trkpt lat="41.1421160" lon="-8.5875910">
        <ele>11.4</ele>
        <time>2021-05-15T16:54:46Z</time>
      </trkpt>
      <trkpt lat="41.1421030" lon="-8.5876020">
        <ele>11.4</ele>
        <time>2021-05-15T16:54:47Z</time>
      </trkpt>
      <trkpt lat="41.1420890" lon="-8.5876170">
        <ele>11.4</ele>
        <time>2021-05-15T16:54:48Z</time>
      </trkpt>
      <trkpt lat="41.1420740" lon="-8.5876250">
        <ele>11.4</ele>
        <time>2021-05-15T16:54:49Z</time>
      </trkpt>
      <trkpt lat="41.1420590" lon="-8.5876340">
        <ele>11.4</ele>
        <time>2021-05-15T16:54:50Z</time>
      </trkpt>
      <trkpt lat="41.1420460" lon="-8.5876460">
        <ele>11.4</ele>
        <time>2021-05-15T16:54:51Z</time>
      </trkpt>
      <trkpt lat="41.1420360" lon="-8.5876620">
        <ele>11.4</ele>
        <time>2021-05-15T16:54:52Z</time>
      </trkpt>
      <trkpt lat="41.1420240" lon="-8.5876700">
        <ele>11.4</ele>
        <time>2021-05-15T16:54:53Z</time>
      </trkpt>
      <trkpt lat="41.1420090" lon="-8.5876780">
        <ele>11.4</ele>
        <time>2021-05-15T16:54:54Z</time>
      </trkpt>
      <trkpt lat="41.1419980" lon="-8.5876890">
        <ele>11.4</ele>
        <time>2021-05-15T16:54:55Z</time>
      </trkpt>
      <trkpt lat="41.1419840" lon="-8.5876960">
        <ele>11.4</ele>
        <time>2021-05-15T16:54:56Z</time>
      </trkpt>
      <trkpt lat="41.1419650" lon="-8.5877110">
        <ele>11.4</ele>
        <time>2021-05-15T16:54:57Z</time>
      </trkpt>
      <trkpt lat="41.1419560" lon="-8.5877170">
        <ele>11.4</ele>
        <time>2021-05-15T16:54:58Z</time>
      </trkpt>
      <trkpt lat="41.1419470" lon="-8.5877240">
        <ele>11.4</ele>
        <time>2021-05-15T16:54:59Z</time>
      </trkpt>
      <trkpt lat="41.1419380" lon="-8.5877390">
        <ele>11.4</ele>
        <time>2021-05-15T16:55:00Z</time>
      </trkpt>
      <trkpt lat="41.1419260" lon="-8.5877580">
        <ele>11.4</ele>
        <time>2021-05-15T16:55:01Z</time>
      </trkpt>
      <trkpt lat="41.1419110" lon="-8.5877630">
        <ele>11.4</ele>
        <time>2021-05-15T16:55:02Z</time>
      </trkpt>
      <trkpt lat="41.1419010" lon="-8.5877740">
        <ele>11.4</ele>
        <time>2021-05-15T16:55:03Z</time>
      </trkpt>
      <trkpt lat="41.1418900" lon="-8.5877840">
        <ele>11.4</ele>
        <time>2021-05-15T16:55:04Z</time>
      </trkpt>
      <trkpt lat="41.1418770" lon="-8.5877960">
        <ele>11.4</ele>
        <time>2021-05-15T16:55:05Z</time>
      </trkpt>
      <trkpt lat="41.1418590" lon="-8.5878120">
        <ele>11.4</ele>
        <time>2021-05-15T16:55:06Z</time>
      </trkpt>
      <trkpt lat="41.1418510" lon="-8.5878190">
        <ele>11.4</ele>
        <time>2021-05-15T16:55:07Z</time>
      </trkpt>
      <trkpt lat="41.1418430" lon="-8.5878270">
        <ele>11.4</ele>
        <time>2021-05-15T16:55:08Z</time>
      </trkpt>
      <trkpt lat="41.1418300" lon="-8.5878390">
        <ele>11.4</ele>
        <time>2021-05-15T16:55:09Z</time>
      </trkpt>
      <trkpt lat="41.1418190" lon="-8.5878510">
        <ele>11.4</ele>
        <time>2021-05-15T16:55:10Z</time>
      </trkpt>
      <trkpt lat="41.1418070" lon="-8.5878620">
        <ele>11.4</ele>
        <time>2021-05-15T16:55:11Z</time>
      </trkpt>
      <trkpt lat="41.1417970" lon="-8.5878760">
        <ele>11.4</ele>
        <time>2021-05-15T16:55:12Z</time>
      </trkpt>
      <trkpt lat="41.1417760" lon="-8.5878920">
        <ele>11.4</ele>
        <time>2021-05-15T16:55:13Z</time>
      </trkpt>
      <trkpt lat="41.1417690" lon="-8.5879010">
        <ele>11.4</ele>
        <time>2021-05-15T16:55:14Z</time>
      </trkpt>
      <trkpt lat="41.1417610" lon="-8.5879110">
        <ele>11.4</ele>
        <time>2021-05-15T16:55:15Z</time>
      </trkpt>
      <trkpt lat="41.1417530" lon="-8.5879250">
        <ele>11.4</ele>
        <time>2021-05-15T16:55:16Z</time>
      </trkpt>
      <trkpt lat="41.1417420" lon="-8.5879370">
        <ele>11.4</ele>
        <time>2021-05-15T16:55:17Z</time>
      </trkpt>
      <trkpt lat="41.1417340" lon="-8.5879520">
        <ele>11.4</ele>
        <time>2021-05-15T16:55:18Z</time>
      </trkpt>
      <trkpt lat="41.1417180" lon="-8.5879610">
        <ele>11.4</ele>
        <time>2021-05-15T16:55:19Z</time>
      </trkpt>
      <trkpt lat="41.1417010" lon="-8.5879800">
        <ele>11.4</ele>
        <time>2021-05-15T16:55:20Z</time>
      </trkpt>
      <trkpt lat="41.1416930" lon="-8.5879890">
        <ele>11.4</ele>
        <time>2021-05-15T16:55:21Z</time>
      </trkpt>
      <trkpt lat="41.1416860" lon="-8.5879980">
        <ele>11.4</ele>
        <time>2021-05-15T16:55:22Z</time>
      </trkpt>
      <trkpt lat="41.1416760" lon="-8.5880110">
        <ele>11.4</ele>
        <time>2021-05-15T16:55:23Z</time>
      </trkpt>
      <trkpt lat="41.1416660" lon="-8.5880270">
        <ele>11.4</ele>
        <time>2021-05-15T16:55:24Z</time>
      </trkpt>
      <trkpt lat="41.1416550" lon="-8.5880400">
        <ele>11.4</ele>
        <time>2021-05-15T16:55:25Z</time>
      </trkpt>
      <trkpt lat="41.1416440" lon="-8.5880500">
        <ele>11.4</ele>
        <time>2021-05-15T16:55:26Z</time>
      </trkpt>
      <trkpt lat="41.1416340" lon="-8.5880610">
        <ele>11.4</ele>
        <time>2021-05-15T16:55:27Z</time>
      </trkpt>
      <trkpt lat="41.1416200" lon="-8.5880750">
        <ele>11.4</ele>
        <time>2021-05-15T16:55:28Z</time>
      </trkpt>
      <trkpt lat="41.1416120" lon="-8.5880880">
        <ele>11.4</ele>
        <time>2021-05-15T16:55:29Z</time>
      </trkpt>
      <trkpt lat="41.1415990" lon="-8.5881020">
        <ele>11.4</ele>
        <time>2021-05-15T16:55:30Z</time>
      </trkpt>
      <trkpt lat="41.1415880" lon="-8.5881150">
        <ele>11.4</ele>
        <time>2021-05-15T16:55:31Z</time>
      </trkpt>
      <trkpt lat="41.1415780" lon="-8.5881290">
        <ele>11.4</ele>
        <time>2021-05-15T16:55:32Z</time>
      </trkpt>
      <trkpt lat="41.1415630" lon="-8.5881520">
        <ele>11.4</ele>
        <time>2021-05-15T16:55:33Z</time>
      </trkpt>
      <trkpt lat="41.1415580" lon="-8.5881580">
        <ele>11.4</ele>
        <time>2021-05-15T16:55:34Z</time>
      </trkpt>
      <trkpt lat="41.1415520" lon="-8.5881640">
        <ele>11.4</ele>
        <time>2021-05-15T16:55:35Z</time>
      </trkpt>
      <trkpt lat="41.1415380" lon="-8.5881830">
        <ele>11.4</ele>
        <time>2021-05-15T16:55:36Z</time>
      </trkpt>
      <trkpt lat="41.1415330" lon="-8.5881910">
        <ele>11.4</ele>
        <time>2021-05-15T16:55:37Z</time>
      </trkpt>
      <trkpt lat="41.1415270" lon="-8.5882000">
        <ele>11.4</ele>
        <time>2021-05-15T16:55:38Z</time>
      </trkpt>
      <trkpt lat="41.1415100" lon="-8.5882170">
        <ele>11.3</ele>
        <time>2021-05-15T16:55:39Z</time>
      </trkpt>
      <trkpt lat="41.1415040" lon="-8.5882260">
        <ele>11.3</ele>
        <time>2021-05-15T16:55:40Z</time>
      </trkpt>
      <trkpt lat="41.1414970" lon="-8.5882350">
        <ele>11.3</ele>
        <time>2021-05-15T16:55:41Z</time>
      </trkpt>
      <trkpt lat="41.1414880" lon="-8.5882500">
        <ele>11.3</ele>
        <time>2021-05-15T16:55:42Z</time>
      </trkpt>
      <trkpt lat="41.1414790" lon="-8.5882610">
        <ele>11.3</ele>
        <time>2021-05-15T16:55:43Z</time>
      </trkpt>
      <trkpt lat="41.1414610" lon="-8.5882910">
        <ele>11.2</ele>
        <time>2021-05-15T16:55:45Z</time>
      </trkpt>
      <trkpt lat="41.1414520" lon="-8.5883060">
        <ele>11.2</ele>
        <time>2021-05-15T16:55:46Z</time>
      </trkpt>
      <trkpt lat="41.1414300" lon="-8.5883300">
        <ele>11.2</ele>
        <time>2021-05-15T16:55:48Z</time>
      </trkpt>
      <trkpt lat="41.1414260" lon="-8.5883480">
        <ele>11.2</ele>
        <time>2021-05-15T16:55:49Z</time>
      </trkpt>
      <trkpt lat="41.1414240" lon="-8.5883660">
        <ele>11.2</ele>
        <time>2021-05-15T16:55:51Z</time>
      </trkpt>
      <trkpt lat="41.1414100" lon="-8.5883820">
        <ele>11.2</ele>
        <time>2021-05-15T16:55:52Z</time>
      </trkpt>
      <trkpt lat="41.1414030" lon="-8.5883930">
        <ele>11.2</ele>
        <time>2021-05-15T16:55:53Z</time>
      </trkpt>
      <trkpt lat="41.1413860" lon="-8.5884120">
        <ele>11.2</ele>
        <time>2021-05-15T16:55:54Z</time>
      </trkpt>
      <trkpt lat="41.1413800" lon="-8.5884190">
        <ele>11.2</ele>
        <time>2021-05-15T16:55:55Z</time>
      </trkpt>
      <trkpt lat="41.1413730" lon="-8.5884260">
        <ele>11.2</ele>
        <time>2021-05-15T16:55:56Z</time>
      </trkpt>
      <trkpt lat="41.1413640" lon="-8.5884410">
        <ele>11.2</ele>
        <time>2021-05-15T16:55:57Z</time>
      </trkpt>
      <trkpt lat="41.1413480" lon="-8.5884540">
        <ele>11.1</ele>
        <time>2021-05-15T16:55:58Z</time>
      </trkpt>
      <trkpt lat="41.1413380" lon="-8.5884740">
        <ele>11.1</ele>
        <time>2021-05-15T16:55:59Z</time>
      </trkpt>
      <trkpt lat="41.1413300" lon="-8.5884920">
        <ele>11.1</ele>
        <time>2021-05-15T16:56:00Z</time>
      </trkpt>
      <trkpt lat="41.1413190" lon="-8.5885060">
        <ele>11.1</ele>
        <time>2021-05-15T16:56:01Z</time>
      </trkpt>
      <trkpt lat="41.1413070" lon="-8.5885150">
        <ele>11.1</ele>
        <time>2021-05-15T16:56:02Z</time>
      </trkpt>
      <trkpt lat="41.1412980" lon="-8.5885310">
        <ele>11.1</ele>
        <time>2021-05-15T16:56:03Z</time>
      </trkpt>
      <trkpt lat="41.1412900" lon="-8.5885460">
        <ele>11.1</ele>
        <time>2021-05-15T16:56:04Z</time>
      </trkpt>
      <trkpt lat="41.1412780" lon="-8.5885610">
        <ele>11.1</ele>
        <time>2021-05-15T16:56:05Z</time>
      </trkpt>
      <trkpt lat="41.1412660" lon="-8.5885760">
        <ele>11.1</ele>
        <time>2021-05-15T16:56:06Z</time>
      </trkpt>
      <trkpt lat="41.1412570" lon="-8.5885870">
        <ele>11.1</ele>
        <time>2021-05-15T16:56:07Z</time>
      </trkpt>
      <trkpt lat="41.1412450" lon="-8.5886040">
        <ele>11.1</ele>
        <time>2021-05-15T16:56:08Z</time>
      </trkpt>
      <trkpt lat="41.1412360" lon="-8.5886170">
        <ele>11.1</ele>
        <time>2021-05-15T16:56:09Z</time>
      </trkpt>
      <trkpt lat="41.1412250" lon="-8.5886310">
        <ele>11.1</ele>
        <time>2021-05-15T16:56:10Z</time>
      </trkpt>
      <trkpt lat="41.1412100" lon="-8.5886380">
        <ele>11.1</ele>
        <time>2021-05-15T16:56:11Z</time>
      </trkpt>
      <trkpt lat="41.1412050" lon="-8.5886600">
        <ele>11.1</ele>
        <time>2021-05-15T16:56:12Z</time>
      </trkpt>
      <trkpt lat="41.1411900" lon="-8.5886790">
        <ele>11.1</ele>
        <time>2021-05-15T16:56:13Z</time>
      </trkpt>
      <trkpt lat="41.1411840" lon="-8.5886880">
        <ele>11.1</ele>
        <time>2021-05-15T16:56:14Z</time>
      </trkpt>
      <trkpt lat="41.1411780" lon="-8.5886980">
        <ele>11.1</ele>
        <time>2021-05-15T16:56:15Z</time>
      </trkpt>
      <trkpt lat="41.1411640" lon="-8.5887060">
        <ele>11.2</ele>
        <time>2021-05-15T16:56:16Z</time>
      </trkpt>
      <trkpt lat="41.1411530" lon="-8.5887180">
        <ele>11.2</ele>
        <time>2021-05-15T16:56:17Z</time>
      </trkpt>
      <trkpt lat="41.1411380" lon="-8.5887270">
        <ele>11.2</ele>
        <time>2021-05-15T16:56:18Z</time>
      </trkpt>
      <trkpt lat="41.1411290" lon="-8.5887420">
        <ele>11.2</ele>
        <time>2021-05-15T16:56:19Z</time>
      </trkpt>
      <trkpt lat="41.1411200" lon="-8.5887560">
        <ele>11.2</ele>
        <time>2021-05-15T16:56:20Z</time>
      </trkpt>
      <trkpt lat="41.1411060" lon="-8.5887650">
        <ele>11.2</ele>
        <time>2021-05-15T16:56:21Z</time>
      </trkpt>
      <trkpt lat="41.1410980" lon="-8.5887800">
        <ele>11.2</ele>
        <time>2021-05-15T16:56:22Z</time>
      </trkpt>
      <trkpt lat="41.1410880" lon="-8.5887950">
        <ele>11.2</ele>
        <time>2021-05-15T16:56:23Z</time>
      </trkpt>
      <trkpt lat="41.1410800" lon="-8.5888110">
        <ele>11.2</ele>
        <time>2021-05-15T16:56:24Z</time>
      </trkpt>
      <trkpt lat="41.1410620" lon="-8.5888360">
        <ele>11.2</ele>
        <time>2021-05-15T16:56:25Z</time>
      </trkpt>
      <trkpt lat="41.1410480" lon="-8.5888500">
        <ele>11.2</ele>
        <time>2021-05-15T16:56:26Z</time>
      </trkpt>
      <trkpt lat="41.1410410" lon="-8.5888680">
        <ele>11.2</ele>
        <time>2021-05-15T16:56:27Z</time>
      </trkpt>
      <trkpt lat="41.1410340" lon="-8.5888850">
        <ele>11.2</ele>
        <time>2021-05-15T16:56:28Z</time>
      </trkpt>
      <trkpt lat="41.1410290" lon="-8.5889050">
        <ele>11.2</ele>
        <time>2021-05-15T16:56:29Z</time>
      </trkpt>
      <trkpt lat="41.1410170" lon="-8.5889170">
        <ele>11.2</ele>
        <time>2021-05-15T16:56:30Z</time>
      </trkpt>
      <trkpt lat="41.1410050" lon="-8.5889410">
        <ele>11.2</ele>
        <time>2021-05-15T16:56:31Z</time>
      </trkpt>
      <trkpt lat="41.1410000" lon="-8.5889510">
        <ele>11.2</ele>
        <time>2021-05-15T16:56:32Z</time>
      </trkpt>
      <trkpt lat="41.1409960" lon="-8.5889600">
        <ele>11.2</ele>
        <time>2021-05-15T16:56:33Z</time>
      </trkpt>
      <trkpt lat="41.1409800" lon="-8.5889810">
        <ele>11.2</ele>
        <time>2021-05-15T16:56:34Z</time>
      </trkpt>
      <trkpt lat="41.1409720" lon="-8.5889870">
        <ele>11.2</ele>
        <time>2021-05-15T16:56:35Z</time>
      </trkpt>
      <trkpt lat="41.1409630" lon="-8.5889940">
        <ele>11.2</ele>
        <time>2021-05-15T16:56:36Z</time>
      </trkpt>
      <trkpt lat="41.1409510" lon="-8.5890060">
        <ele>11.2</ele>
        <time>2021-05-15T16:56:37Z</time>
      </trkpt>
      <trkpt lat="41.1409430" lon="-8.5890280">
        <ele>11.2</ele>
        <time>2021-05-15T16:56:38Z</time>
      </trkpt>
      <trkpt lat="41.1409300" lon="-8.5890380">
        <ele>11.2</ele>
        <time>2021-05-15T16:56:39Z</time>
      </trkpt>
      <trkpt lat="41.1409240" lon="-8.5890540">
        <ele>11.2</ele>
        <time>2021-05-15T16:56:40Z</time>
      </trkpt>
      <trkpt lat="41.1409130" lon="-8.5890670">
        <ele>11.2</ele>
        <time>2021-05-15T16:56:41Z</time>
      </trkpt>
      <trkpt lat="41.1409020" lon="-8.5890820">
        <ele>11.2</ele>
        <time>2021-05-15T16:56:42Z</time>
      </trkpt>
      <trkpt lat="41.1408970" lon="-8.5891020">
        <ele>11.2</ele>
        <time>2021-05-15T16:56:43Z</time>
      </trkpt>
      <trkpt lat="41.1408840" lon="-8.5891150">
        <ele>11.2</ele>
        <time>2021-05-15T16:56:44Z</time>
      </trkpt>
      <trkpt lat="41.1408680" lon="-8.5891340">
        <ele>11.2</ele>
        <time>2021-05-15T16:56:45Z</time>
      </trkpt>
      <trkpt lat="41.1408620" lon="-8.5891400">
        <ele>11.2</ele>
        <time>2021-05-15T16:56:46Z</time>
      </trkpt>
      <trkpt lat="41.1408550" lon="-8.5891470">
        <ele>11.2</ele>
        <time>2021-05-15T16:56:47Z</time>
      </trkpt>
      <trkpt lat="41.1408410" lon="-8.5891590">
        <ele>11.2</ele>
        <time>2021-05-15T16:56:48Z</time>
      </trkpt>
      <trkpt lat="41.1408350" lon="-8.5891740">
        <ele>11.2</ele>
        <time>2021-05-15T16:56:49Z</time>
      </trkpt>
      <trkpt lat="41.1408240" lon="-8.5892000">
        <ele>11.2</ele>
        <time>2021-05-15T16:56:50Z</time>
      </trkpt>
      <trkpt lat="41.1408170" lon="-8.5892100">
        <ele>11.2</ele>
        <time>2021-05-15T16:56:51Z</time>
      </trkpt>
      <trkpt lat="41.1408110" lon="-8.5892210">
        <ele>11.2</ele>
        <time>2021-05-15T16:56:52Z</time>
      </trkpt>
      <trkpt lat="41.1407960" lon="-8.5892420">
        <ele>11.2</ele>
        <time>2021-05-15T16:56:53Z</time>
      </trkpt>
      <trkpt lat="41.1407890" lon="-8.5892520">
        <ele>11.2</ele>
        <time>2021-05-15T16:56:54Z</time>
      </trkpt>
      <trkpt lat="41.1407830" lon="-8.5892630">
        <ele>11.2</ele>
        <time>2021-05-15T16:56:55Z</time>
      </trkpt>
      <trkpt lat="41.1407690" lon="-8.5892770">
        <ele>11.2</ele>
        <time>2021-05-15T16:56:56Z</time>
      </trkpt>
      <trkpt lat="41.1407610" lon="-8.5892930">
        <ele>11.2</ele>
        <time>2021-05-15T16:56:57Z</time>
      </trkpt>
      <trkpt lat="41.1407530" lon="-8.5893120">
        <ele>11.2</ele>
        <time>2021-05-15T16:56:58Z</time>
      </trkpt>
      <trkpt lat="41.1407420" lon="-8.5893270">
        <ele>11.3</ele>
        <time>2021-05-15T16:56:59Z</time>
      </trkpt>
      <trkpt lat="41.1407230" lon="-8.5893440">
        <ele>11.3</ele>
        <time>2021-05-15T16:57:00Z</time>
      </trkpt>
      <trkpt lat="41.1407180" lon="-8.5893530">
        <ele>11.3</ele>
        <time>2021-05-15T16:57:01Z</time>
      </trkpt>
      <trkpt lat="41.1407120" lon="-8.5893620">
        <ele>11.3</ele>
        <time>2021-05-15T16:57:02Z</time>
      </trkpt>
      <trkpt lat="41.1407060" lon="-8.5893750">
        <ele>11.3</ele>
        <time>2021-05-15T16:57:03Z</time>
      </trkpt>
      <trkpt lat="41.1406950" lon="-8.5893940">
        <ele>11.3</ele>
        <time>2021-05-15T16:57:04Z</time>
      </trkpt>
      <trkpt lat="41.1406860" lon="-8.5894110">
        <ele>11.3</ele>
        <time>2021-05-15T16:57:05Z</time>
      </trkpt>
      <trkpt lat="41.1406710" lon="-8.5894220">
        <ele>11.3</ele>
        <time>2021-05-15T16:57:06Z</time>
      </trkpt>
      <trkpt lat="41.1406610" lon="-8.5894360">
        <ele>11.3</ele>
        <time>2021-05-15T16:57:07Z</time>
      </trkpt>
      <trkpt lat="41.1406490" lon="-8.5894510">
        <ele>11.3</ele>
        <time>2021-05-15T16:57:08Z</time>
      </trkpt>
      <trkpt lat="41.1406380" lon="-8.5894610">
        <ele>11.3</ele>
        <time>2021-05-15T16:57:09Z</time>
      </trkpt>
      <trkpt lat="41.1406270" lon="-8.5894800">
        <ele>11.3</ele>
        <time>2021-05-15T16:57:10Z</time>
      </trkpt>
      <trkpt lat="41.1406160" lon="-8.5894910">
        <ele>11.3</ele>
        <time>2021-05-15T16:57:11Z</time>
      </trkpt>
      <trkpt lat="41.1406070" lon="-8.5895080">
        <ele>11.3</ele>
        <time>2021-05-15T16:57:12Z</time>
      </trkpt>
      <trkpt lat="41.1405940" lon="-8.5895170">
        <ele>11.3</ele>
        <time>2021-05-15T16:57:13Z</time>
      </trkpt>
      <trkpt lat="41.1405870" lon="-8.5895330">
        <ele>11.3</ele>
        <time>2021-05-15T16:57:14Z</time>
      </trkpt>
      <trkpt lat="41.1405780" lon="-8.5895460">
        <ele>11.3</ele>
        <time>2021-05-15T16:57:15Z</time>
      </trkpt>
      <trkpt lat="41.1405690" lon="-8.5895610">
        <ele>11.3</ele>
        <time>2021-05-15T16:57:16Z</time>
      </trkpt>
      <trkpt lat="41.1405570" lon="-8.5895840">
        <ele>11.3</ele>
        <time>2021-05-15T16:57:17Z</time>
      </trkpt>
      <trkpt lat="41.1405520" lon="-8.5895920">
        <ele>11.3</ele>
        <time>2021-05-15T16:57:18Z</time>
      </trkpt>
      <trkpt lat="41.1405460" lon="-8.5896000">
        <ele>11.3</ele>
        <time>2021-05-15T16:57:19Z</time>
      </trkpt>
      <trkpt lat="41.1405340" lon="-8.5896190">
        <ele>11.3</ele>
        <time>2021-05-15T16:57:20Z</time>
      </trkpt>
      <trkpt lat="41.1405280" lon="-8.5896290">
        <ele>11.3</ele>
        <time>2021-05-15T16:57:21Z</time>
      </trkpt>
      <trkpt lat="41.1405220" lon="-8.5896400">
        <ele>11.3</ele>
        <time>2021-05-15T16:57:22Z</time>
      </trkpt>
      <trkpt lat="41.1405090" lon="-8.5896610">
        <ele>11.3</ele>
        <time>2021-05-15T16:57:23Z</time>
      </trkpt>
      <trkpt lat="41.1405040" lon="-8.5896710">
        <ele>11.3</ele>
        <time>2021-05-15T16:57:24Z</time>
      </trkpt>
      <trkpt lat="41.1405000" lon="-8.5896820">
        <ele>11.3</ele>
        <time>2021-05-15T16:57:25Z</time>
      </trkpt>
      <trkpt lat="41.1404940" lon="-8.5897000">
        <ele>11.3</ele>
        <time>2021-05-15T16:57:26Z</time>
      </trkpt>
      <trkpt lat="41.1404820" lon="-8.5897110">
        <ele>11.3</ele>
        <time>2021-05-15T16:57:27Z</time>
      </trkpt>
      <trkpt lat="41.1404760" lon="-8.5897250">
        <ele>11.3</ele>
        <time>2021-05-15T16:57:28Z</time>
      </trkpt>
      <trkpt lat="41.1404660" lon="-8.5897400">
        <ele>11.3</ele>
        <time>2021-05-15T16:57:29Z</time>
      </trkpt>
      <trkpt lat="41.1404630" lon="-8.5897590">
        <ele>11.3</ele>
        <time>2021-05-15T16:57:30Z</time>
      </trkpt>
      <trkpt lat="41.1404560" lon="-8.5897790">
        <ele>11.3</ele>
        <time>2021-05-15T16:57:31Z</time>
      </trkpt>
      <trkpt lat="41.1404450" lon="-8.5898020">
        <ele>11.3</ele>
        <time>2021-05-15T16:57:32Z</time>
      </trkpt>
      <trkpt lat="41.1404400" lon="-8.5898140">
        <ele>11.3</ele>
        <time>2021-05-15T16:57:33Z</time>
      </trkpt>
      <trkpt lat="41.1404350" lon="-8.5898270">
        <ele>11.3</ele>
        <time>2021-05-15T16:57:34Z</time>
      </trkpt>
      <trkpt lat="41.1404310" lon="-8.5898490">
        <ele>11.3</ele>
        <time>2021-05-15T16:57:35Z</time>
      </trkpt>
      <trkpt lat="41.1404220" lon="-8.5898650">
        <ele>11.3</ele>
        <time>2021-05-15T16:57:36Z</time>
      </trkpt>
      <trkpt lat="41.1404180" lon="-8.5898940">
        <ele>11.3</ele>
        <time>2021-05-15T16:57:37Z</time>
      </trkpt>
      <trkpt lat="41.1404130" lon="-8.5899040">
        <ele>11.3</ele>
        <time>2021-05-15T16:57:38Z</time>
      </trkpt>
      <trkpt lat="41.1404090" lon="-8.5899130">
        <ele>11.3</ele>
        <time>2021-05-15T16:57:39Z</time>
      </trkpt>
      <trkpt lat="41.1404040" lon="-8.5899270">
        <ele>11.3</ele>
        <time>2021-05-15T16:57:40Z</time>
      </trkpt>
      <trkpt lat="41.1403930" lon="-8.5899520">
        <ele>11.2</ele>
        <time>2021-05-15T16:57:41Z</time>
      </trkpt>
      <trkpt lat="41.1403920" lon="-8.5899740">
        <ele>11.2</ele>
        <time>2021-05-15T16:57:42Z</time>
      </trkpt>
      <trkpt lat="41.1403860" lon="-8.5899960">
        <ele>11.2</ele>
        <time>2021-05-15T16:57:43Z</time>
      </trkpt>
      <trkpt lat="41.1403870" lon="-8.5900160">
        <ele>11.2</ele>
        <time>2021-05-15T16:57:44Z</time>
      </trkpt>
      <trkpt lat="41.1403760" lon="-8.5900310">
        <ele>11.2</ele>
        <time>2021-05-15T16:57:45Z</time>
      </trkpt>
      <trkpt lat="41.1403710" lon="-8.5900470">
        <ele>11.2</ele>
        <time>2021-05-15T16:57:46Z</time>
      </trkpt>
      <trkpt lat="41.1403630" lon="-8.5900640">
        <ele>11.3</ele>
        <time>2021-05-15T16:57:47Z</time>
      </trkpt>
      <trkpt lat="41.1403530" lon="-8.5900780">
        <ele>11.3</ele>
        <time>2021-05-15T16:57:48Z</time>
      </trkpt>
      <trkpt lat="41.1403450" lon="-8.5900990">
        <ele>11.3</ele>
        <time>2021-05-15T16:57:49Z</time>
      </trkpt>
      <trkpt lat="41.1403350" lon="-8.5901180">
        <ele>11.3</ele>
        <time>2021-05-15T16:57:50Z</time>
      </trkpt>
      <trkpt lat="41.1403330" lon="-8.5901410">
        <ele>11.3</ele>
        <time>2021-05-15T16:57:51Z</time>
      </trkpt>
      <trkpt lat="41.1403270" lon="-8.5901610">
        <ele>11.3</ele>
        <time>2021-05-15T16:57:52Z</time>
      </trkpt>
      <trkpt lat="41.1403190" lon="-8.5901800">
        <ele>11.3</ele>
        <time>2021-05-15T16:57:53Z</time>
      </trkpt>
      <trkpt lat="41.1403100" lon="-8.5901970">
        <ele>11.3</ele>
        <time>2021-05-15T16:57:54Z</time>
      </trkpt>
      <trkpt lat="41.1403070" lon="-8.5902160">
        <ele>11.3</ele>
        <time>2021-05-15T16:57:55Z</time>
      </trkpt>
      <trkpt lat="41.1402950" lon="-8.5902300">
        <ele>11.3</ele>
        <time>2021-05-15T16:57:56Z</time>
      </trkpt>
      <trkpt lat="41.1402890" lon="-8.5902480">
        <ele>11.3</ele>
        <time>2021-05-15T16:57:57Z</time>
      </trkpt>
      <trkpt lat="41.1402880" lon="-8.5902720">
        <ele>11.3</ele>
        <time>2021-05-15T16:57:58Z</time>
      </trkpt>
      <trkpt lat="41.1402860" lon="-8.5902920">
        <ele>11.3</ele>
        <time>2021-05-15T16:57:59Z</time>
      </trkpt>
      <trkpt lat="41.1402830" lon="-8.5903200">
        <ele>11.3</ele>
        <time>2021-05-15T16:58:00Z</time>
      </trkpt>
      <trkpt lat="41.1402820" lon="-8.5903310">
        <ele>11.3</ele>
        <time>2021-05-15T16:58:01Z</time>
      </trkpt>
      <trkpt lat="41.1402800" lon="-8.5903410">
        <ele>11.3</ele>
        <time>2021-05-15T16:58:02Z</time>
      </trkpt>
      <trkpt lat="41.1402750" lon="-8.5903610">
        <ele>11.3</ele>
        <time>2021-05-15T16:58:03Z</time>
      </trkpt>
      <trkpt lat="41.1402670" lon="-8.5903780">
        <ele>11.3</ele>
        <time>2021-05-15T16:58:04Z</time>
      </trkpt>
      <trkpt lat="41.1402630" lon="-8.5903970">
        <ele>11.3</ele>
        <time>2021-05-15T16:58:05Z</time>
      </trkpt>
      <trkpt lat="41.1402620" lon="-8.5904180">
        <ele>11.3</ele>
        <time>2021-05-15T16:58:06Z</time>
      </trkpt>
      <trkpt lat="41.1402630" lon="-8.5904420">
        <ele>11.3</ele>
        <time>2021-05-15T16:58:07Z</time>
      </trkpt>
      <trkpt lat="41.1402600" lon="-8.5904560">
        <ele>11.3</ele>
        <time>2021-05-15T16:58:08Z</time>
      </trkpt>
      <trkpt lat="41.1402540" lon="-8.5904840">
        <ele>11.3</ele>
        <time>2021-05-15T16:58:09Z</time>
      </trkpt>
      <trkpt lat="41.1402520" lon="-8.5904940">
        <ele>11.3</ele>
        <time>2021-05-15T16:58:10Z</time>
      </trkpt>
      <trkpt lat="41.1402490" lon="-8.5905040">
        <ele>11.3</ele>
        <time>2021-05-15T16:58:11Z</time>
      </trkpt>
      <trkpt lat="41.1402420" lon="-8.5905290">
        <ele>11.3</ele>
        <time>2021-05-15T16:58:12Z</time>
      </trkpt>
      <trkpt lat="41.1402420" lon="-8.5905400">
        <ele>11.3</ele>
        <time>2021-05-15T16:58:13Z</time>
      </trkpt>
      <trkpt lat="41.1402410" lon="-8.5905520">
        <ele>11.3</ele>
        <time>2021-05-15T16:58:14Z</time>
      </trkpt>
      <trkpt lat="41.1402420" lon="-8.5905630">
        <ele>11.3</ele>
        <time>2021-05-15T16:58:15Z</time>
      </trkpt>
      <trkpt lat="41.1402390" lon="-8.5905790">
        <ele>11.3</ele>
        <time>2021-05-15T16:58:16Z</time>
      </trkpt>
      <trkpt lat="41.1402360" lon="-8.5905970">
        <ele>11.3</ele>
        <time>2021-05-15T16:58:17Z</time>
      </trkpt>
      <trkpt lat="41.1402270" lon="-8.5906280">
        <ele>11.3</ele>
        <time>2021-05-15T16:58:19Z</time>
      </trkpt>
      <trkpt lat="41.1402260" lon="-8.5906410">
        <ele>11.3</ele>
        <time>2021-05-15T16:58:20Z</time>
      </trkpt>
      <trkpt lat="41.1402230" lon="-8.5906580">
        <ele>11.3</ele>
        <time>2021-05-15T16:58:22Z</time>
      </trkpt>
      <trkpt lat="41.1402260" lon="-8.5906800">
        <ele>11.3</ele>
        <time>2021-05-15T16:58:23Z</time>
      </trkpt>
      <trkpt lat="41.1402240" lon="-8.5906970">
        <ele>11.3</ele>
        <time>2021-05-15T16:58:24Z</time>
      </trkpt>
      <trkpt lat="41.1402240" lon="-8.5907170">
        <ele>11.3</ele>
        <time>2021-05-15T16:58:25Z</time>
      </trkpt>
      <trkpt lat="41.1402180" lon="-8.5907430">
        <ele>11.3</ele>
        <time>2021-05-15T16:58:26Z</time>
      </trkpt>
      <trkpt lat="41.1402140" lon="-8.5907550">
        <ele>11.3</ele>
        <time>2021-05-15T16:58:27Z</time>
      </trkpt>
      <trkpt lat="41.1402100" lon="-8.5907660">
        <ele>11.3</ele>
        <time>2021-05-15T16:58:28Z</time>
      </trkpt>
      <trkpt lat="41.1402090" lon="-8.5907880">
        <ele>11.3</ele>
        <time>2021-05-15T16:58:29Z</time>
      </trkpt>
      <trkpt lat="41.1402040" lon="-8.5908050">
        <ele>11.3</ele>
        <time>2021-05-15T16:58:30Z</time>
      </trkpt>
      <trkpt lat="41.1402000" lon="-8.5908450">
        <ele>11.3</ele>
        <time>2021-05-15T16:58:31Z</time>
      </trkpt>
      <trkpt lat="41.1401960" lon="-8.5908610">
        <ele>11.3</ele>
        <time>2021-05-15T16:58:32Z</time>
      </trkpt>
      <trkpt lat="41.1401970" lon="-8.5908820">
        <ele>11.3</ele>
        <time>2021-05-15T16:58:33Z</time>
      </trkpt>
      <trkpt lat="41.1401990" lon="-8.5909070">
        <ele>11.2</ele>
        <time>2021-05-15T16:58:34Z</time>
      </trkpt>
      <trkpt lat="41.1401980" lon="-8.5909280">
        <ele>11.2</ele>
        <time>2021-05-15T16:58:35Z</time>
      </trkpt>
      <trkpt lat="41.1402000" lon="-8.5909470">
        <ele>11.2</ele>
        <time>2021-05-15T16:58:36Z</time>
      </trkpt>
      <trkpt lat="41.1402040" lon="-8.5909650">
        <ele>11.2</ele>
        <time>2021-05-15T16:58:37Z</time>
      </trkpt>
      <trkpt lat="41.1402030" lon="-8.5909860">
        <ele>11.2</ele>
        <time>2021-05-15T16:58:38Z</time>
      </trkpt>
      <trkpt lat="41.1401990" lon="-8.5910080">
        <ele>11.2</ele>
        <time>2021-05-15T16:58:39Z</time>
      </trkpt>
      <trkpt lat="41.1401980" lon="-8.5910280">
        <ele>11.2</ele>
        <time>2021-05-15T16:58:40Z</time>
      </trkpt>
      <trkpt lat="41.1401980" lon="-8.5910470">
        <ele>11.2</ele>
        <time>2021-05-15T16:58:41Z</time>
      </trkpt>
      <trkpt lat="41.1402000" lon="-8.5910760">
        <ele>11.2</ele>
        <time>2021-05-15T16:58:42Z</time>
      </trkpt>
      <trkpt lat="41.1402000" lon="-8.5910910">
        <ele>11.2</ele>
        <time>2021-05-15T16:58:43Z</time>
      </trkpt>
      <trkpt lat="41.1402010" lon="-8.5911050">
        <ele>11.2</ele>
        <time>2021-05-15T16:58:44Z</time>
      </trkpt>
      <trkpt lat="41.1401990" lon="-8.5911290">
        <ele>11.2</ele>
        <time>2021-05-15T16:58:45Z</time>
      </trkpt>
      <trkpt lat="41.1401930" lon="-8.5911450">
        <ele>11.2</ele>
        <time>2021-05-15T16:58:46Z</time>
      </trkpt>
      <trkpt lat="41.1401930" lon="-8.5911600">
        <ele>11.2</ele>
        <time>2021-05-15T16:58:47Z</time>
      </trkpt>
      <trkpt lat="41.1401930" lon="-8.5911750">
        <ele>11.2</ele>
        <time>2021-05-15T16:58:48Z</time>
      </trkpt>
      <trkpt lat="41.1401860" lon="-8.5911870">
        <ele>11.2</ele>
        <time>2021-05-15T16:58:49Z</time>
      </trkpt>
      <trkpt lat="41.1401860" lon="-8.5912180">
        <ele>11.2</ele>
        <time>2021-05-15T16:58:50Z</time>
      </trkpt>
      <trkpt lat="41.1401860" lon="-8.5912260">
        <ele>11.2</ele>
        <time>2021-05-15T16:58:51Z</time>
      </trkpt>
      <trkpt lat="41.1401860" lon="-8.5912350">
        <ele>11.2</ele>
        <time>2021-05-15T16:58:52Z</time>
      </trkpt>
      <trkpt lat="41.1401820" lon="-8.5912500">
        <ele>11.2</ele>
        <time>2021-05-15T16:58:53Z</time>
      </trkpt>
      <trkpt lat="41.1401760" lon="-8.5912600">
        <ele>11.2</ele>
        <time>2021-05-15T16:58:54Z</time>
      </trkpt>
      <trkpt lat="41.1401710" lon="-8.5912770">
        <ele>11.2</ele>
        <time>2021-05-15T16:58:55Z</time>
      </trkpt>
      <trkpt lat="41.1401670" lon="-8.5912900">
        <ele>11.2</ele>
        <time>2021-05-15T16:58:56Z</time>
      </trkpt>
      <trkpt lat="41.1401660" lon="-8.5913080">
        <ele>11.2</ele>
        <time>2021-05-15T16:58:57Z</time>
      </trkpt>
      <trkpt lat="41.1401630" lon="-8.5913220">
        <ele>11.2</ele>
        <time>2021-05-15T16:58:58Z</time>
      </trkpt>
      <trkpt lat="41.1401640" lon="-8.5913470">
        <ele>11.2</ele>
        <time>2021-05-15T16:58:59Z</time>
      </trkpt>
      <trkpt lat="41.1401600" lon="-8.5913620">
        <ele>11.2</ele>
        <time>2021-05-15T16:59:00Z</time>
      </trkpt>
      <trkpt lat="41.1401580" lon="-8.5913860">
        <ele>11.2</ele>
        <time>2021-05-15T16:59:01Z</time>
      </trkpt>
      <trkpt lat="41.1401530" lon="-8.5914020">
        <ele>11.2</ele>
        <time>2021-05-15T16:59:02Z</time>
      </trkpt>
      <trkpt lat="41.1401510" lon="-8.5914310">
        <ele>11.2</ele>
        <time>2021-05-15T16:59:03Z</time>
      </trkpt>
      <trkpt lat="41.1401510" lon="-8.5914420">
        <ele>11.2</ele>
        <time>2021-05-15T16:59:04Z</time>
      </trkpt>
      <trkpt lat="41.1401500" lon="-8.5914540">
        <ele>11.2</ele>
        <time>2021-05-15T16:59:05Z</time>
      </trkpt>
      <trkpt lat="41.1401460" lon="-8.5914720">
        <ele>11.2</ele>
        <time>2021-05-15T16:59:06Z</time>
      </trkpt>
      <trkpt lat="41.1401420" lon="-8.5914920">
        <ele>11.2</ele>
        <time>2021-05-15T16:59:07Z</time>
      </trkpt>
      <trkpt lat="41.1401380" lon="-8.5915220">
        <ele>11.2</ele>
        <time>2021-05-15T16:59:08Z</time>
      </trkpt>
      <trkpt lat="41.1401350" lon="-8.5915320">
        <ele>11.2</ele>
        <time>2021-05-15T16:59:09Z</time>
      </trkpt>
      <trkpt lat="41.1401330" lon="-8.5915420">
        <ele>11.2</ele>
        <time>2021-05-15T16:59:10Z</time>
      </trkpt>
      <trkpt lat="41.1401230" lon="-8.5915590">
        <ele>11.2</ele>
        <time>2021-05-15T16:59:11Z</time>
      </trkpt>
      <trkpt lat="41.1401240" lon="-8.5915790">
        <ele>11.2</ele>
        <time>2021-05-15T16:59:12Z</time>
      </trkpt>
      <trkpt lat="41.1401210" lon="-8.5915910">
        <ele>11.2</ele>
        <time>2021-05-15T16:59:13Z</time>
      </trkpt>
      <trkpt lat="41.1401240" lon="-8.5916090">
        <ele>11.2</ele>
        <time>2021-05-15T16:59:14Z</time>
      </trkpt>
      <trkpt lat="41.1401200" lon="-8.5916250">
        <ele>11.2</ele>
        <time>2021-05-15T16:59:15Z</time>
      </trkpt>
      <trkpt lat="41.1401190" lon="-8.5916380">
        <ele>11.2</ele>
        <time>2021-05-15T16:59:16Z</time>
      </trkpt>
      <trkpt lat="41.1401210" lon="-8.5916570">
        <ele>11.2</ele>
        <time>2021-05-15T16:59:17Z</time>
      </trkpt>
      <trkpt lat="41.1401200" lon="-8.5916710">
        <ele>11.2</ele>
        <time>2021-05-15T16:59:18Z</time>
      </trkpt>
      <trkpt lat="41.1401190" lon="-8.5916950">
        <ele>11.2</ele>
        <time>2021-05-15T16:59:19Z</time>
      </trkpt>
      <trkpt lat="41.1401210" lon="-8.5917190">
        <ele>11.2</ele>
        <time>2021-05-15T16:59:20Z</time>
      </trkpt>
      <trkpt lat="41.1401230" lon="-8.5917380">
        <ele>11.2</ele>
        <time>2021-05-15T16:59:21Z</time>
      </trkpt>
      <trkpt lat="41.1401170" lon="-8.5917570">
        <ele>11.2</ele>
        <time>2021-05-15T16:59:22Z</time>
      </trkpt>
      <trkpt lat="41.1401200" lon="-8.5917770">
        <ele>11.2</ele>
        <time>2021-05-15T16:59:23Z</time>
      </trkpt>
      <trkpt lat="41.1401170" lon="-8.5917970">
        <ele>11.2</ele>
        <time>2021-05-15T16:59:24Z</time>
      </trkpt>
      <trkpt lat="41.1401150" lon="-8.5918170">
        <ele>11.2</ele>
        <time>2021-05-15T16:59:25Z</time>
      </trkpt>
      <trkpt lat="41.1401120" lon="-8.5918360">
        <ele>11.2</ele>
        <time>2021-05-15T16:59:26Z</time>
      </trkpt>
      <trkpt lat="41.1401100" lon="-8.5918660">
        <ele>11.2</ele>
        <time>2021-05-15T16:59:27Z</time>
      </trkpt>
      <trkpt lat="41.1401090" lon="-8.5918790">
        <ele>11.2</ele>
        <time>2021-05-15T16:59:28Z</time>
      </trkpt>
      <trkpt lat="41.1401090" lon="-8.5918920">
        <ele>11.2</ele>
        <time>2021-05-15T16:59:29Z</time>
      </trkpt>
      <trkpt lat="41.1401070" lon="-8.5919230">
        <ele>11.2</ele>
        <time>2021-05-15T16:59:30Z</time>
      </trkpt>
      <trkpt lat="41.1401080" lon="-8.5919350">
        <ele>11.2</ele>
        <time>2021-05-15T16:59:31Z</time>
      </trkpt>
      <trkpt lat="41.1401080" lon="-8.5919460">
        <ele>11.2</ele>
        <time>2021-05-15T16:59:32Z</time>
      </trkpt>
      <trkpt lat="41.1401030" lon="-8.5919740">
        <ele>11.2</ele>
        <time>2021-05-15T16:59:33Z</time>
      </trkpt>
      <trkpt lat="41.1401020" lon="-8.5919870">
        <ele>11.2</ele>
        <time>2021-05-15T16:59:34Z</time>
      </trkpt>
      <trkpt lat="41.1401000" lon="-8.5919990">
        <ele>11.2</ele>
        <time>2021-05-15T16:59:35Z</time>
      </trkpt>
      <trkpt lat="41.1400970" lon="-8.5920160">
        <ele>11.2</ele>
        <time>2021-05-15T16:59:36Z</time>
      </trkpt>
      <trkpt lat="41.1400970" lon="-8.5920380">
        <ele>11.2</ele>
        <time>2021-05-15T16:59:37Z</time>
      </trkpt>
      <trkpt lat="41.1400970" lon="-8.5920580">
        <ele>11.2</ele>
        <time>2021-05-15T16:59:38Z</time>
      </trkpt>
      <trkpt lat="41.1400950" lon="-8.5920750">
        <ele>11.2</ele>
        <time>2021-05-15T16:59:39Z</time>
      </trkpt>
      <trkpt lat="41.1400940" lon="-8.5920940">
        <ele>11.2</ele>
        <time>2021-05-15T16:59:40Z</time>
      </trkpt>
      <trkpt lat="41.1400970" lon="-8.5921160">
        <ele>11.2</ele>
        <time>2021-05-15T16:59:41Z</time>
      </trkpt>
      <trkpt lat="41.1400950" lon="-8.5921460">
        <ele>11.2</ele>
        <time>2021-05-15T16:59:42Z</time>
      </trkpt>
      <trkpt lat="41.1400940" lon="-8.5921580">
        <ele>11.2</ele>
        <time>2021-05-15T16:59:43Z</time>
      </trkpt>
      <trkpt lat="41.1400930" lon="-8.5921690">
        <ele>11.2</ele>
        <time>2021-05-15T16:59:44Z</time>
      </trkpt>
      <trkpt lat="41.1400970" lon="-8.5921880">
        <ele>11.2</ele>
        <time>2021-05-15T16:59:45Z</time>
      </trkpt>
      <trkpt lat="41.1400940" lon="-8.5922070">
        <ele>11.2</ele>
        <time>2021-05-15T16:59:46Z</time>
      </trkpt>
      <trkpt lat="41.1400960" lon="-8.5922260">
        <ele>11.2</ele>
        <time>2021-05-15T16:59:47Z</time>
      </trkpt>
      <trkpt lat="41.1400940" lon="-8.5922390">
        <ele>11.2</ele>
        <time>2021-05-15T16:59:48Z</time>
      </trkpt>
      <trkpt lat="41.1400980" lon="-8.5922510">
        <ele>11.2</ele>
        <time>2021-05-15T16:59:49Z</time>
      </trkpt>
      <trkpt lat="41.1400930" lon="-8.5922770">
        <ele>11.2</ele>
        <time>2021-05-15T16:59:50Z</time>
      </trkpt>
      <trkpt lat="41.1400920" lon="-8.5922880">
        <ele>11.2</ele>
        <time>2021-05-15T16:59:51Z</time>
      </trkpt>
      <trkpt lat="41.1400900" lon="-8.5922990">
        <ele>11.2</ele>
        <time>2021-05-15T16:59:52Z</time>
      </trkpt>
      <trkpt lat="41.1400900" lon="-8.5923280">
        <ele>11.2</ele>
        <time>2021-05-15T16:59:53Z</time>
      </trkpt>
      <trkpt lat="41.1400870" lon="-8.5923400">
        <ele>11.2</ele>
        <time>2021-05-15T16:59:54Z</time>
      </trkpt>
      <trkpt lat="41.1400850" lon="-8.5923520">
        <ele>11.2</ele>
        <time>2021-05-15T16:59:55Z</time>
      </trkpt>
      <trkpt lat="41.1400840" lon="-8.5923650">
        <ele>11.2</ele>
        <time>2021-05-15T16:59:56Z</time>
      </trkpt>
      <trkpt lat="41.1400830" lon="-8.5923800">
        <ele>11.2</ele>
        <time>2021-05-15T16:59:57Z</time>
      </trkpt>
      <trkpt lat="41.1400870" lon="-8.5923950">
        <ele>11.2</ele>
        <time>2021-05-15T16:59:58Z</time>
      </trkpt>
      <trkpt lat="41.1400830" lon="-8.5924130">
        <ele>11.2</ele>
        <time>2021-05-15T16:59:59Z</time>
      </trkpt>
      <trkpt lat="41.1400790" lon="-8.5924330">
        <ele>11.2</ele>
        <time>2021-05-15T17:00:00Z</time>
      </trkpt>
      <trkpt lat="41.1400740" lon="-8.5924570">
        <ele>11.2</ele>
        <time>2021-05-15T17:00:01Z</time>
      </trkpt>
      <trkpt lat="41.1400720" lon="-8.5924690">
        <ele>11.2</ele>
        <time>2021-05-15T17:00:02Z</time>
      </trkpt>
      <trkpt lat="41.1400710" lon="-8.5924810">
        <ele>11.2</ele>
        <time>2021-05-15T17:00:03Z</time>
      </trkpt>
      <trkpt lat="41.1400630" lon="-8.5925050">
        <ele>11.2</ele>
        <time>2021-05-15T17:00:04Z</time>
      </trkpt>
      <trkpt lat="41.1400660" lon="-8.5925240">
        <ele>11.2</ele>
        <time>2021-05-15T17:00:05Z</time>
      </trkpt>
      <trkpt lat="41.1400630" lon="-8.5925440">
        <ele>11.2</ele>
        <time>2021-05-15T17:00:06Z</time>
      </trkpt>
      <trkpt lat="41.1400610" lon="-8.5925630">
        <ele>11.2</ele>
        <time>2021-05-15T17:00:07Z</time>
      </trkpt>
      <trkpt lat="41.1400680" lon="-8.5925810">
        <ele>11.3</ele>
        <time>2021-05-15T17:00:08Z</time>
      </trkpt>
      <trkpt lat="41.1400670" lon="-8.5926030">
        <ele>11.3</ele>
        <time>2021-05-15T17:00:09Z</time>
      </trkpt>
      <trkpt lat="41.1400670" lon="-8.5926230">
        <ele>11.3</ele>
        <time>2021-05-15T17:00:10Z</time>
      </trkpt>
      <trkpt lat="41.1400640" lon="-8.5926450">
        <ele>11.3</ele>
        <time>2021-05-15T17:00:11Z</time>
      </trkpt>
      <trkpt lat="41.1400680" lon="-8.5926650">
        <ele>11.3</ele>
        <time>2021-05-15T17:00:12Z</time>
      </trkpt>
      <trkpt lat="41.1400690" lon="-8.5926840">
        <ele>11.3</ele>
        <time>2021-05-15T17:00:13Z</time>
      </trkpt>
      <trkpt lat="41.1400690" lon="-8.5927030">
        <ele>11.3</ele>
        <time>2021-05-15T17:00:14Z</time>
      </trkpt>
      <trkpt lat="41.1400700" lon="-8.5927260">
        <ele>11.3</ele>
        <time>2021-05-15T17:00:15Z</time>
      </trkpt>
      <trkpt lat="41.1400640" lon="-8.5927550">
        <ele>11.3</ele>
        <time>2021-05-15T17:00:16Z</time>
      </trkpt>
      <trkpt lat="41.1400620" lon="-8.5927660">
        <ele>11.3</ele>
        <time>2021-05-15T17:00:17Z</time>
      </trkpt>
      <trkpt lat="41.1400610" lon="-8.5927770">
        <ele>11.3</ele>
        <time>2021-05-15T17:00:18Z</time>
      </trkpt>
      <trkpt lat="41.1400490" lon="-8.5928090">
        <ele>11.3</ele>
        <time>2021-05-15T17:00:20Z</time>
      </trkpt>
      <trkpt lat="41.1400440" lon="-8.5928250">
        <ele>11.3</ele>
        <time>2021-05-15T17:00:21Z</time>
      </trkpt>
      <trkpt lat="41.1400410" lon="-8.5928440">
        <ele>11.3</ele>
        <time>2021-05-15T17:00:23Z</time>
      </trkpt>
      <trkpt lat="41.1400430" lon="-8.5928640">
        <ele>11.3</ele>
        <time>2021-05-15T17:00:24Z</time>
      </trkpt>
      <trkpt lat="41.1400430" lon="-8.5928820">
        <ele>11.3</ele>
        <time>2021-05-15T17:00:25Z</time>
      </trkpt>
      <trkpt lat="41.1400350" lon="-8.5928980">
        <ele>11.3</ele>
        <time>2021-05-15T17:00:26Z</time>
      </trkpt>
      <trkpt lat="41.1400370" lon="-8.5929240">
        <ele>11.3</ele>
        <time>2021-05-15T17:00:27Z</time>
      </trkpt>
      <trkpt lat="41.1400400" lon="-8.5929460">
        <ele>11.3</ele>
        <time>2021-05-15T17:00:28Z</time>
      </trkpt>
      <trkpt lat="41.1400350" lon="-8.5929660">
        <ele>11.3</ele>
        <time>2021-05-15T17:00:29Z</time>
      </trkpt>
      <trkpt lat="41.1400350" lon="-8.5929880">
        <ele>11.4</ele>
        <time>2021-05-15T17:00:30Z</time>
      </trkpt>
      <trkpt lat="41.1400270" lon="-8.5930050">
        <ele>11.4</ele>
        <time>2021-05-15T17:00:31Z</time>
      </trkpt>
      <trkpt lat="41.1400290" lon="-8.5930250">
        <ele>11.4</ele>
        <time>2021-05-15T17:00:32Z</time>
      </trkpt>
      <trkpt lat="41.1400260" lon="-8.5930460">
        <ele>11.4</ele>
        <time>2021-05-15T17:00:33Z</time>
      </trkpt>
      <trkpt lat="41.1400190" lon="-8.5930740">
        <ele>11.4</ele>
        <time>2021-05-15T17:00:34Z</time>
      </trkpt>
      <trkpt lat="41.1400150" lon="-8.5930840">
        <ele>11.4</ele>
        <time>2021-05-15T17:00:35Z</time>
      </trkpt>
      <trkpt lat="41.1400100" lon="-8.5930950">
        <ele>11.4</ele>
        <time>2021-05-15T17:00:36Z</time>
      </trkpt>
      <trkpt lat="41.1400090" lon="-8.5931370">
        <ele>11.4</ele>
        <time>2021-05-15T17:00:37Z</time>
      </trkpt>
      <trkpt lat="41.1400060" lon="-8.5931680">
        <ele>11.4</ele>
        <time>2021-05-15T17:00:38Z</time>
      </trkpt>
      <trkpt lat="41.1400040" lon="-8.5931810">
        <ele>11.4</ele>
        <time>2021-05-15T17:00:39Z</time>
      </trkpt>
      <trkpt lat="41.1400020" lon="-8.5931950">
        <ele>11.4</ele>
        <time>2021-05-15T17:00:40Z</time>
      </trkpt>
      <trkpt lat="41.1399990" lon="-8.5932140">
        <ele>11.4</ele>
        <time>2021-05-15T17:00:41Z</time>
      </trkpt>
      <trkpt lat="41.1399950" lon="-8.5932310">
        <ele>11.4</ele>
        <time>2021-05-15T17:00:42Z</time>
      </trkpt>
      <trkpt lat="41.1399970" lon="-8.5932600">
        <ele>11.4</ele>
        <time>2021-05-15T17:00:43Z</time>
      </trkpt>
      <trkpt lat="41.1399970" lon="-8.5932720">
        <ele>11.4</ele>
        <time>2021-05-15T17:00:44Z</time>
      </trkpt>
      <trkpt lat="41.1399970" lon="-8.5932830">
        <ele>11.4</ele>
        <time>2021-05-15T17:00:45Z</time>
      </trkpt>
      <trkpt lat="41.1399990" lon="-8.5932980">
        <ele>11.4</ele>
        <time>2021-05-15T17:00:46Z</time>
      </trkpt>
      <trkpt lat="41.1399980" lon="-8.5933290">
        <ele>11.4</ele>
        <time>2021-05-15T17:00:47Z</time>
      </trkpt>
      <trkpt lat="41.1399920" lon="-8.5933490">
        <ele>11.4</ele>
        <time>2021-05-15T17:00:48Z</time>
      </trkpt>
      <trkpt lat="41.1399890" lon="-8.5933700">
        <ele>11.4</ele>
        <time>2021-05-15T17:00:49Z</time>
      </trkpt>
      <trkpt lat="41.1399890" lon="-8.5933910">
        <ele>11.4</ele>
        <time>2021-05-15T17:00:50Z</time>
      </trkpt>
      <trkpt lat="41.1399840" lon="-8.5934110">
        <ele>11.4</ele>
        <time>2021-05-15T17:00:51Z</time>
      </trkpt>
      <trkpt lat="41.1399830" lon="-8.5934360">
        <ele>11.4</ele>
        <time>2021-05-15T17:00:52Z</time>
      </trkpt>
      <trkpt lat="41.1399800" lon="-8.5934480">
        <ele>11.4</ele>
        <time>2021-05-15T17:00:53Z</time>
      </trkpt>
      <trkpt lat="41.1399780" lon="-8.5934610">
        <ele>11.4</ele>
        <time>2021-05-15T17:00:54Z</time>
      </trkpt>
      <trkpt lat="41.1399740" lon="-8.5934780">
        <ele>11.4</ele>
        <time>2021-05-15T17:00:55Z</time>
      </trkpt>
      <trkpt lat="41.1399680" lon="-8.5934990">
        <ele>11.4</ele>
        <time>2021-05-15T17:00:56Z</time>
      </trkpt>
      <trkpt lat="41.1399650" lon="-8.5935160">
        <ele>11.4</ele>
        <time>2021-05-15T17:00:57Z</time>
      </trkpt>
      <trkpt lat="41.1399630" lon="-8.5935390">
        <ele>11.4</ele>
        <time>2021-05-15T17:00:58Z</time>
      </trkpt>
      <trkpt lat="41.1399630" lon="-8.5935590">
        <ele>11.4</ele>
        <time>2021-05-15T17:00:59Z</time>
      </trkpt>
      <trkpt lat="41.1399630" lon="-8.5935820">
        <ele>11.4</ele>
        <time>2021-05-15T17:01:00Z</time>
      </trkpt>
      <trkpt lat="41.1399630" lon="-8.5935980">
        <ele>11.4</ele>
        <time>2021-05-15T17:01:01Z</time>
      </trkpt>
      <trkpt lat="41.1399620" lon="-8.5936200">
        <ele>11.4</ele>
        <time>2021-05-15T17:01:02Z</time>
      </trkpt>
      <trkpt lat="41.1399600" lon="-8.5936390">
        <ele>11.4</ele>
        <time>2021-05-15T17:01:03Z</time>
      </trkpt>
      <trkpt lat="41.1399550" lon="-8.5936580">
        <ele>11.4</ele>
        <time>2021-05-15T17:01:04Z</time>
      </trkpt>
      <trkpt lat="41.1399490" lon="-8.5936760">
        <ele>11.3</ele>
        <time>2021-05-15T17:01:05Z</time>
      </trkpt>
      <trkpt lat="41.1399440" lon="-8.5936960">
        <ele>11.3</ele>
        <time>2021-05-15T17:01:06Z</time>
      </trkpt>
      <trkpt lat="41.1399490" lon="-8.5937190">
        <ele>11.3</ele>
        <time>2021-05-15T17:01:07Z</time>
      </trkpt>
      <trkpt lat="41.1399420" lon="-8.5937340">
        <ele>11.3</ele>
        <time>2021-05-15T17:01:08Z</time>
      </trkpt>
      <trkpt lat="41.1399500" lon="-8.5937560">
        <ele>11.3</ele>
        <time>2021-05-15T17:01:09Z</time>
      </trkpt>
      <trkpt lat="41.1399430" lon="-8.5937770">
        <ele>11.3</ele>
        <time>2021-05-15T17:01:10Z</time>
      </trkpt>
      <trkpt lat="41.1399420" lon="-8.5938060">
        <ele>11.3</ele>
        <time>2021-05-15T17:01:11Z</time>
      </trkpt>
      <trkpt lat="41.1399380" lon="-8.5938180">
        <ele>11.3</ele>
        <time>2021-05-15T17:01:12Z</time>
      </trkpt>
      <trkpt lat="41.1399350" lon="-8.5938300">
        <ele>11.3</ele>
        <time>2021-05-15T17:01:13Z</time>
      </trkpt>
      <trkpt lat="41.1399340" lon="-8.5938560">
        <ele>11.3</ele>
        <time>2021-05-15T17:01:14Z</time>
      </trkpt>
      <trkpt lat="41.1399350" lon="-8.5938670">
        <ele>11.3</ele>
        <time>2021-05-15T17:01:15Z</time>
      </trkpt>
      <trkpt lat="41.1399350" lon="-8.5938790">
        <ele>11.3</ele>
        <time>2021-05-15T17:01:16Z</time>
      </trkpt>
      <trkpt lat="41.1399290" lon="-8.5938950">
        <ele>11.3</ele>
        <time>2021-05-15T17:01:17Z</time>
      </trkpt>
      <trkpt lat="41.1399300" lon="-8.5939150">
        <ele>11.3</ele>
        <time>2021-05-15T17:01:18Z</time>
      </trkpt>
      <trkpt lat="41.1399270" lon="-8.5939320">
        <ele>11.3</ele>
        <time>2021-05-15T17:01:19Z</time>
      </trkpt>
      <trkpt lat="41.1399270" lon="-8.5939500">
        <ele>11.3</ele>
        <time>2021-05-15T17:01:20Z</time>
      </trkpt>
      <trkpt lat="41.1399240" lon="-8.5939610">
        <ele>11.3</ele>
        <time>2021-05-15T17:01:21Z</time>
      </trkpt>
      <trkpt lat="41.1399250" lon="-8.5939860">
        <ele>11.3</ele>
        <time>2021-05-15T17:01:22Z</time>
      </trkpt>
      <trkpt lat="41.1399230" lon="-8.5940030">
        <ele>11.3</ele>
        <time>2021-05-15T17:01:23Z</time>
      </trkpt>
      <trkpt lat="41.1399190" lon="-8.5940220">
        <ele>11.3</ele>
        <time>2021-05-15T17:01:24Z</time>
      </trkpt>
      <trkpt lat="41.1399190" lon="-8.5940430">
        <ele>11.3</ele>
        <time>2021-05-15T17:01:25Z</time>
      </trkpt>
      <trkpt lat="41.1399160" lon="-8.5940610">
        <ele>11.3</ele>
        <time>2021-05-15T17:01:26Z</time>
      </trkpt>
      <trkpt lat="41.1399120" lon="-8.5940870">
        <ele>11.3</ele>
        <time>2021-05-15T17:01:27Z</time>
      </trkpt>
      <trkpt lat="41.1399100" lon="-8.5941060">
        <ele>11.3</ele>
        <time>2021-05-15T17:01:28Z</time>
      </trkpt>
      <trkpt lat="41.1399110" lon="-8.5941270">
        <ele>11.3</ele>
        <time>2021-05-15T17:01:29Z</time>
      </trkpt>
      <trkpt lat="41.1399070" lon="-8.5941500">
        <ele>11.3</ele>
        <time>2021-05-15T17:01:30Z</time>
      </trkpt>
      <trkpt lat="41.1399040" lon="-8.5941670">
        <ele>11.3</ele>
        <time>2021-05-15T17:01:31Z</time>
      </trkpt>
      <trkpt lat="41.1399070" lon="-8.5941810">
        <ele>11.3</ele>
        <time>2021-05-15T17:01:32Z</time>
      </trkpt>
      <trkpt lat="41.1399060" lon="-8.5941940">
        <ele>11.3</ele>
        <time>2021-05-15T17:01:33Z</time>
      </trkpt>
      <trkpt lat="41.1399010" lon="-8.5942150">
        <ele>11.3</ele>
        <time>2021-05-15T17:01:34Z</time>
      </trkpt>
      <trkpt lat="41.1399040" lon="-8.5942330">
        <ele>11.3</ele>
        <time>2021-05-15T17:01:35Z</time>
      </trkpt>
      <trkpt lat="41.1399020" lon="-8.5942550">
        <ele>11.3</ele>
        <time>2021-05-15T17:01:36Z</time>
      </trkpt>
      <trkpt lat="41.1398970" lon="-8.5942690">
        <ele>11.3</ele>
        <time>2021-05-15T17:01:37Z</time>
      </trkpt>
      <trkpt lat="41.1399010" lon="-8.5942850">
        <ele>11.3</ele>
        <time>2021-05-15T17:01:38Z</time>
      </trkpt>
      <trkpt lat="41.1398990" lon="-8.5943010">
        <ele>11.3</ele>
        <time>2021-05-15T17:01:39Z</time>
      </trkpt>
      <trkpt lat="41.1398980" lon="-8.5943160">
        <ele>11.3</ele>
        <time>2021-05-15T17:01:40Z</time>
      </trkpt>
      <trkpt lat="41.1398950" lon="-8.5943420">
        <ele>11.3</ele>
        <time>2021-05-15T17:01:41Z</time>
      </trkpt>
      <trkpt lat="41.1398920" lon="-8.5943570">
        <ele>11.3</ele>
        <time>2021-05-15T17:01:42Z</time>
      </trkpt>
      <trkpt lat="41.1398950" lon="-8.5943720">
        <ele>11.3</ele>
        <time>2021-05-15T17:01:43Z</time>
      </trkpt>
      <trkpt lat="41.1399000" lon="-8.5943880">
        <ele>11.3</ele>
        <time>2021-05-15T17:01:44Z</time>
      </trkpt>
      <trkpt lat="41.1398930" lon="-8.5944050">
        <ele>11.3</ele>
        <time>2021-05-15T17:01:45Z</time>
      </trkpt>
      <trkpt lat="41.1398920" lon="-8.5944280">
        <ele>11.3</ele>
        <time>2021-05-15T17:01:46Z</time>
      </trkpt>
      <trkpt lat="41.1398890" lon="-8.5944550">
        <ele>11.3</ele>
        <time>2021-05-15T17:01:47Z</time>
      </trkpt>
      <trkpt lat="41.1398870" lon="-8.5944650">
        <ele>11.3</ele>
        <time>2021-05-15T17:01:48Z</time>
      </trkpt>
      <trkpt lat="41.1398850" lon="-8.5944760">
        <ele>11.3</ele>
        <time>2021-05-15T17:01:49Z</time>
      </trkpt>
      <trkpt lat="41.1398890" lon="-8.5944880">
        <ele>11.3</ele>
        <time>2021-05-15T17:01:50Z</time>
      </trkpt>
      <trkpt lat="41.1398820" lon="-8.5945120">
        <ele>11.3</ele>
        <time>2021-05-15T17:01:51Z</time>
      </trkpt>
      <trkpt lat="41.1398850" lon="-8.5945360">
        <ele>11.3</ele>
        <time>2021-05-15T17:01:52Z</time>
      </trkpt>
      <trkpt lat="41.1398910" lon="-8.5945550">
        <ele>11.3</ele>
        <time>2021-05-15T17:01:53Z</time>
      </trkpt>
      <trkpt lat="41.1398900" lon="-8.5945770">
        <ele>11.3</ele>
        <time>2021-05-15T17:01:54Z</time>
      </trkpt>
      <trkpt lat="41.1398890" lon="-8.5945990">
        <ele>11.3</ele>
        <time>2021-05-15T17:01:55Z</time>
      </trkpt>
      <trkpt lat="41.1398910" lon="-8.5946190">
        <ele>11.3</ele>
        <time>2021-05-15T17:01:56Z</time>
      </trkpt>
      <trkpt lat="41.1398840" lon="-8.5946370">
        <ele>11.3</ele>
        <time>2021-05-15T17:01:57Z</time>
      </trkpt>
      <trkpt lat="41.1398870" lon="-8.5946670">
        <ele>11.3</ele>
        <time>2021-05-15T17:01:58Z</time>
      </trkpt>
      <trkpt lat="41.1398890" lon="-8.5946780">
        <ele>11.3</ele>
        <time>2021-05-15T17:01:59Z</time>
      </trkpt>
      <trkpt lat="41.1398900" lon="-8.5946880">
        <ele>11.3</ele>
        <time>2021-05-15T17:02:00Z</time>
      </trkpt>
      <trkpt lat="41.1398940" lon="-8.5947080">
        <ele>11.3</ele>
        <time>2021-05-15T17:02:01Z</time>
      </trkpt>
      <trkpt lat="41.1398920" lon="-8.5947230">
        <ele>11.4</ele>
        <time>2021-05-15T17:02:02Z</time>
      </trkpt>
      <trkpt lat="41.1398920" lon="-8.5947360">
        <ele>11.4</ele>
        <time>2021-05-15T17:02:03Z</time>
      </trkpt>
      <trkpt lat="41.1398920" lon="-8.5947590">
        <ele>11.4</ele>
        <time>2021-05-15T17:02:04Z</time>
      </trkpt>
      <trkpt lat="41.1398930" lon="-8.5947750">
        <ele>11.4</ele>
        <time>2021-05-15T17:02:05Z</time>
      </trkpt>
      <trkpt lat="41.1398940" lon="-8.5948020">
        <ele>11.4</ele>
        <time>2021-05-15T17:02:06Z</time>
      </trkpt>
      <trkpt lat="41.1398950" lon="-8.5948150">
        <ele>11.4</ele>
        <time>2021-05-15T17:02:07Z</time>
      </trkpt>
      <trkpt lat="41.1398960" lon="-8.5948280">
        <ele>11.4</ele>
        <time>2021-05-15T17:02:08Z</time>
      </trkpt>
      <trkpt lat="41.1398950" lon="-8.5948550">
        <ele>11.4</ele>
        <time>2021-05-15T17:02:09Z</time>
      </trkpt>
      <trkpt lat="41.1398950" lon="-8.5948680">
        <ele>11.4</ele>
        <time>2021-05-15T17:02:10Z</time>
      </trkpt>
      <trkpt lat="41.1398950" lon="-8.5948800">
        <ele>11.4</ele>
        <time>2021-05-15T17:02:11Z</time>
      </trkpt>
      <trkpt lat="41.1398990" lon="-8.5948990">
        <ele>11.4</ele>
        <time>2021-05-15T17:02:12Z</time>
      </trkpt>
      <trkpt lat="41.1399000" lon="-8.5949170">
        <ele>11.3</ele>
        <time>2021-05-15T17:02:13Z</time>
      </trkpt>
      <trkpt lat="41.1399010" lon="-8.5949420">
        <ele>11.3</ele>
        <time>2021-05-15T17:02:14Z</time>
      </trkpt>
      <trkpt lat="41.1399060" lon="-8.5949610">
        <ele>11.3</ele>
        <time>2021-05-15T17:02:15Z</time>
      </trkpt>
      <trkpt lat="41.1399070" lon="-8.5949820">
        <ele>11.3</ele>
        <time>2021-05-15T17:02:16Z</time>
      </trkpt>
      <trkpt lat="41.1399120" lon="-8.5950020">
        <ele>11.3</ele>
        <time>2021-05-15T17:02:17Z</time>
      </trkpt>
      <trkpt lat="41.1399180" lon="-8.5950230">
        <ele>11.3</ele>
        <time>2021-05-15T17:02:18Z</time>
      </trkpt>
      <trkpt lat="41.1399230" lon="-8.5950430">
        <ele>11.3</ele>
        <time>2021-05-15T17:02:19Z</time>
      </trkpt>
      <trkpt lat="41.1399220" lon="-8.5950690">
        <ele>11.3</ele>
        <time>2021-05-15T17:02:20Z</time>
      </trkpt>
      <trkpt lat="41.1399230" lon="-8.5950880">
        <ele>11.3</ele>
        <time>2021-05-15T17:02:21Z</time>
      </trkpt>
      <trkpt lat="41.1399300" lon="-8.5951070">
        <ele>11.3</ele>
        <time>2021-05-15T17:02:22Z</time>
      </trkpt>
      <trkpt lat="41.1399340" lon="-8.5951290">
        <ele>11.3</ele>
        <time>2021-05-15T17:02:23Z</time>
      </trkpt>
      <trkpt lat="41.1399410" lon="-8.5951500">
        <ele>11.3</ele>
        <time>2021-05-15T17:02:24Z</time>
      </trkpt>
      <trkpt lat="41.1399470" lon="-8.5951690">
        <ele>11.3</ele>
        <time>2021-05-15T17:02:25Z</time>
      </trkpt>
      <trkpt lat="41.1399510" lon="-8.5951890">
        <ele>11.3</ele>
        <time>2021-05-15T17:02:26Z</time>
      </trkpt>
      <trkpt lat="41.1399550" lon="-8.5952100">
        <ele>11.3</ele>
        <time>2021-05-15T17:02:27Z</time>
      </trkpt>
      <trkpt lat="41.1399500" lon="-8.5952330">
        <ele>11.3</ele>
        <time>2021-05-15T17:02:28Z</time>
      </trkpt>
      <trkpt lat="41.1399600" lon="-8.5952530">
        <ele>11.3</ele>
        <time>2021-05-15T17:02:29Z</time>
      </trkpt>
      <trkpt lat="41.1399630" lon="-8.5952700">
        <ele>11.3</ele>
        <time>2021-05-15T17:02:30Z</time>
      </trkpt>
      <trkpt lat="41.1399660" lon="-8.5952900">
        <ele>11.3</ele>
        <time>2021-05-15T17:02:31Z</time>
      </trkpt>
      <trkpt lat="41.1399710" lon="-8.5953070">
        <ele>11.3</ele>
        <time>2021-05-15T17:02:32Z</time>
      </trkpt>
      <trkpt lat="41.1399730" lon="-8.5953210">
        <ele>11.3</ele>
        <time>2021-05-15T17:02:33Z</time>
      </trkpt>
      <trkpt lat="41.1399740" lon="-8.5953360">
        <ele>11.3</ele>
        <time>2021-05-15T17:02:34Z</time>
      </trkpt>
      <trkpt lat="41.1399820" lon="-8.5953640">
        <ele>11.3</ele>
        <time>2021-05-15T17:02:35Z</time>
      </trkpt>
      <trkpt lat="41.1399860" lon="-8.5953750">
        <ele>11.3</ele>
        <time>2021-05-15T17:02:36Z</time>
      </trkpt>
      <trkpt lat="41.1399900" lon="-8.5953860">
        <ele>11.3</ele>
        <time>2021-05-15T17:02:37Z</time>
      </trkpt>
      <trkpt lat="41.1399930" lon="-8.5954070">
        <ele>11.3</ele>
        <time>2021-05-15T17:02:38Z</time>
      </trkpt>
      <trkpt lat="41.1400000" lon="-8.5954290">
        <ele>11.3</ele>
        <time>2021-05-15T17:02:39Z</time>
      </trkpt>
      <trkpt lat="41.1400040" lon="-8.5954510">
        <ele>11.3</ele>
        <time>2021-05-15T17:02:40Z</time>
      </trkpt>
      <trkpt lat="41.1400140" lon="-8.5954670">
        <ele>11.3</ele>
        <time>2021-05-15T17:02:42Z</time>
      </trkpt>
      <trkpt lat="41.1400270" lon="-8.5955040">
        <ele>11.3</ele>
        <time>2021-05-15T17:02:43Z</time>
      </trkpt>
      <trkpt lat="41.1400370" lon="-8.5955250">
        <ele>11.3</ele>
        <time>2021-05-15T17:02:44Z</time>
      </trkpt>
      <trkpt lat="41.1400460" lon="-8.5955410">
        <ele>11.3</ele>
        <time>2021-05-15T17:02:45Z</time>
      </trkpt>
      <trkpt lat="41.1400590" lon="-8.5955540">
        <ele>11.3</ele>
        <time>2021-05-15T17:02:46Z</time>
      </trkpt>
      <trkpt lat="41.1400670" lon="-8.5955680">
        <ele>11.3</ele>
        <time>2021-05-15T17:02:47Z</time>
      </trkpt>
      <trkpt lat="41.1400740" lon="-8.5955780">
        <ele>11.3</ele>
        <time>2021-05-15T17:02:48Z</time>
      </trkpt>
      <trkpt lat="41.1400810" lon="-8.5955880">
        <ele>11.3</ele>
        <time>2021-05-15T17:02:49Z</time>
      </trkpt>
      <trkpt lat="41.1400840" lon="-8.5956030">
        <ele>11.3</ele>
        <time>2021-05-15T17:02:50Z</time>
      </trkpt>
      <trkpt lat="41.1400910" lon="-8.5956220">
        <ele>11.2</ele>
        <time>2021-05-15T17:02:51Z</time>
      </trkpt>
      <trkpt lat="41.1400980" lon="-8.5956420">
        <ele>11.2</ele>
        <time>2021-05-15T17:02:52Z</time>
      </trkpt>
      <trkpt lat="41.1401040" lon="-8.5956650">
        <ele>11.2</ele>
        <time>2021-05-15T17:02:53Z</time>
      </trkpt>
      <trkpt lat="41.1401120" lon="-8.5956810">
        <ele>11.2</ele>
        <time>2021-05-15T17:02:54Z</time>
      </trkpt>
      <trkpt lat="41.1401210" lon="-8.5956980">
        <ele>11.2</ele>
        <time>2021-05-15T17:02:55Z</time>
      </trkpt>
      <trkpt lat="41.1401330" lon="-8.5957130">
        <ele>11.2</ele>
        <time>2021-05-15T17:02:56Z</time>
      </trkpt>
      <trkpt lat="41.1401450" lon="-8.5957400">
        <ele>11.2</ele>
        <time>2021-05-15T17:02:57Z</time>
      </trkpt>
      <trkpt lat="41.1401520" lon="-8.5957520">
        <ele>11.2</ele>
        <time>2021-05-15T17:02:58Z</time>
      </trkpt>
      <trkpt lat="41.1401600" lon="-8.5957650">
        <ele>11.2</ele>
        <time>2021-05-15T17:02:59Z</time>
      </trkpt>
      <trkpt lat="41.1401700" lon="-8.5957880">
        <ele>11.2</ele>
        <time>2021-05-15T17:03:00Z</time>
      </trkpt>
      <trkpt lat="41.1401780" lon="-8.5958060">
        <ele>11.2</ele>
        <time>2021-05-15T17:03:01Z</time>
      </trkpt>
      <trkpt lat="41.1401850" lon="-8.5958240">
        <ele>11.2</ele>
        <time>2021-05-15T17:03:02Z</time>
      </trkpt>
      <trkpt lat="41.1401910" lon="-8.5958390">
        <ele>11.2</ele>
        <time>2021-05-15T17:03:03Z</time>
      </trkpt>
      <trkpt lat="41.1402050" lon="-8.5958540">
        <ele>11.2</ele>
        <time>2021-05-15T17:03:04Z</time>
      </trkpt>
      <trkpt lat="41.1402120" lon="-8.5958700">
        <ele>11.2</ele>
        <time>2021-05-15T17:03:05Z</time>
      </trkpt>
      <trkpt lat="41.1402170" lon="-8.5958980">
        <ele>11.2</ele>
        <time>2021-05-15T17:03:06Z</time>
      </trkpt>
      <trkpt lat="41.1402230" lon="-8.5959120">
        <ele>11.2</ele>
        <time>2021-05-15T17:03:07Z</time>
      </trkpt>
      <trkpt lat="41.1402280" lon="-8.5959260">
        <ele>11.2</ele>
        <time>2021-05-15T17:03:08Z</time>
      </trkpt>
      <trkpt lat="41.1402400" lon="-8.5959500">
        <ele>11.2</ele>
        <time>2021-05-15T17:03:09Z</time>
      </trkpt>
      <trkpt lat="41.1402450" lon="-8.5959600">
        <ele>11.2</ele>
        <time>2021-05-15T17:03:10Z</time>
      </trkpt>
      <trkpt lat="41.1402490" lon="-8.5959700">
        <ele>11.2</ele>
        <time>2021-05-15T17:03:11Z</time>
      </trkpt>
      <trkpt lat="41.1402570" lon="-8.5959970">
        <ele>11.2</ele>
        <time>2021-05-15T17:03:12Z</time>
      </trkpt>
      <trkpt lat="41.1402580" lon="-8.5960080">
        <ele>11.2</ele>
        <time>2021-05-15T17:03:13Z</time>
      </trkpt>
      <trkpt lat="41.1402600" lon="-8.5960190">
        <ele>11.2</ele>
        <time>2021-05-15T17:03:14Z</time>
      </trkpt>
      <trkpt lat="41.1402740" lon="-8.5960420">
        <ele>11.2</ele>
        <time>2021-05-15T17:03:15Z</time>
      </trkpt>
      <trkpt lat="41.1402790" lon="-8.5960510">
        <ele>11.2</ele>
        <time>2021-05-15T17:03:16Z</time>
      </trkpt>
      <trkpt lat="41.1402840" lon="-8.5960610">
        <ele>11.2</ele>
        <time>2021-05-15T17:03:17Z</time>
      </trkpt>
      <trkpt lat="41.1402940" lon="-8.5960720">
        <ele>11.2</ele>
        <time>2021-05-15T17:03:18Z</time>
      </trkpt>
      <trkpt lat="41.1403070" lon="-8.5960940">
        <ele>11.2</ele>
        <time>2021-05-15T17:03:19Z</time>
      </trkpt>
      <trkpt lat="41.1403150" lon="-8.5961110">
        <ele>11.2</ele>
        <time>2021-05-15T17:03:20Z</time>
      </trkpt>
      <trkpt lat="41.1403210" lon="-8.5961270">
        <ele>11.2</ele>
        <time>2021-05-15T17:03:21Z</time>
      </trkpt>
      <trkpt lat="41.1403400" lon="-8.5961530">
        <ele>11.2</ele>
        <time>2021-05-15T17:03:22Z</time>
      </trkpt>
      <trkpt lat="41.1403460" lon="-8.5961620">
        <ele>11.2</ele>
        <time>2021-05-15T17:03:23Z</time>
      </trkpt>
      <trkpt lat="41.1403570" lon="-8.5961770">
        <ele>11.2</ele>
        <time>2021-05-15T17:03:24Z</time>
      </trkpt>
      <trkpt lat="41.1403600" lon="-8.5961980">
        <ele>11.2</ele>
        <time>2021-05-15T17:03:25Z</time>
      </trkpt>
      <trkpt lat="41.1403690" lon="-8.5962080">
        <ele>11.2</ele>
        <time>2021-05-15T17:03:26Z</time>
      </trkpt>
      <trkpt lat="41.1403830" lon="-8.5962210">
        <ele>11.2</ele>
        <time>2021-05-15T17:03:27Z</time>
      </trkpt>
      <trkpt lat="41.1403950" lon="-8.5962410">
        <ele>11.2</ele>
        <time>2021-05-15T17:03:28Z</time>
      </trkpt>
      <trkpt lat="41.1404020" lon="-8.5962510">
        <ele>11.2</ele>
        <time>2021-05-15T17:03:29Z</time>
      </trkpt>
      <trkpt lat="41.1404080" lon="-8.5962620">
        <ele>11.2</ele>
        <time>2021-05-15T17:03:30Z</time>
      </trkpt>
      <trkpt lat="41.1404280" lon="-8.5962860">
        <ele>11.2</ele>
        <time>2021-05-15T17:03:31Z</time>
      </trkpt>
      <trkpt lat="41.1404380" lon="-8.5962940">
        <ele>11.2</ele>
        <time>2021-05-15T17:03:32Z</time>
      </trkpt>
      <trkpt lat="41.1404540" lon="-8.5963260">
        <ele>11.2</ele>
        <time>2021-05-15T17:03:33Z</time>
      </trkpt>
      <trkpt lat="41.1404610" lon="-8.5963350">
        <ele>11.2</ele>
        <time>2021-05-15T17:03:34Z</time>
      </trkpt>
      <trkpt lat="41.1404690" lon="-8.5963520">
        <ele>11.2</ele>
        <time>2021-05-15T17:03:35Z</time>
      </trkpt>
      <trkpt lat="41.1404760" lon="-8.5963700">
        <ele>11.2</ele>
        <time>2021-05-15T17:03:36Z</time>
      </trkpt>
      <trkpt lat="41.1404840" lon="-8.5963810">
        <ele>11.2</ele>
        <time>2021-05-15T17:03:37Z</time>
      </trkpt>
      <trkpt lat="41.1404840" lon="-8.5963960">
        <ele>11.2</ele>
        <time>2021-05-15T17:03:38Z</time>
      </trkpt>
      <trkpt lat="41.1404900" lon="-8.5964100">
        <ele>11.2</ele>
        <time>2021-05-15T17:03:39Z</time>
      </trkpt>
      <trkpt lat="41.1404960" lon="-8.5964360">
        <ele>11.2</ele>
        <time>2021-05-15T17:03:40Z</time>
      </trkpt>
      <trkpt lat="41.1404980" lon="-8.5964460">
        <ele>11.2</ele>
        <time>2021-05-15T17:03:41Z</time>
      </trkpt>
      <trkpt lat="41.1405010" lon="-8.5964570">
        <ele>11.2</ele>
        <time>2021-05-15T17:03:42Z</time>
      </trkpt>
      <trkpt lat="41.1405090" lon="-8.5964710">
        <ele>11.2</ele>
        <time>2021-05-15T17:03:43Z</time>
      </trkpt>
      <trkpt lat="41.1405130" lon="-8.5964960">
        <ele>11.2</ele>
        <time>2021-05-15T17:03:44Z</time>
      </trkpt>
      <trkpt lat="41.1405190" lon="-8.5965100">
        <ele>11.2</ele>
        <time>2021-05-15T17:03:45Z</time>
      </trkpt>
      <trkpt lat="41.1405270" lon="-8.5965300">
        <ele>11.2</ele>
        <time>2021-05-15T17:03:46Z</time>
      </trkpt>
      <trkpt lat="41.1405310" lon="-8.5965410">
        <ele>11.2</ele>
        <time>2021-05-15T17:03:47Z</time>
      </trkpt>
      <trkpt lat="41.1405450" lon="-8.5965640">
        <ele>11.2</ele>
        <time>2021-05-15T17:03:48Z</time>
      </trkpt>
      <trkpt lat="41.1405520" lon="-8.5965790">
        <ele>11.2</ele>
        <time>2021-05-15T17:03:49Z</time>
      </trkpt>
      <trkpt lat="41.1405620" lon="-8.5965990">
        <ele>11.2</ele>
        <time>2021-05-15T17:03:50Z</time>
      </trkpt>
      <trkpt lat="41.1405750" lon="-8.5966120">
        <ele>11.2</ele>
        <time>2021-05-15T17:03:51Z</time>
      </trkpt>
      <trkpt lat="41.1405860" lon="-8.5966280">
        <ele>11.2</ele>
        <time>2021-05-15T17:03:52Z</time>
      </trkpt>
      <trkpt lat="41.1405950" lon="-8.5966410">
        <ele>11.2</ele>
        <time>2021-05-15T17:03:53Z</time>
      </trkpt>
      <trkpt lat="41.1406050" lon="-8.5966560">
        <ele>11.2</ele>
        <time>2021-05-15T17:03:54Z</time>
      </trkpt>
      <trkpt lat="41.1406050" lon="-8.5966790">
        <ele>11.2</ele>
        <time>2021-05-15T17:03:55Z</time>
      </trkpt>
      <trkpt lat="41.1406040" lon="-8.5966940">
        <ele>11.2</ele>
        <time>2021-05-15T17:03:56Z</time>
      </trkpt>
      <trkpt lat="41.1406100" lon="-8.5967190">
        <ele>11.2</ele>
        <time>2021-05-15T17:03:57Z</time>
      </trkpt>
      <trkpt lat="41.1406130" lon="-8.5967300">
        <ele>11.2</ele>
        <time>2021-05-15T17:03:58Z</time>
      </trkpt>
      <trkpt lat="41.1406150" lon="-8.5967400">
        <ele>11.2</ele>
        <time>2021-05-15T17:03:59Z</time>
      </trkpt>
      <trkpt lat="41.1406260" lon="-8.5967620">
        <ele>11.2</ele>
        <time>2021-05-15T17:04:00Z</time>
      </trkpt>
      <trkpt lat="41.1406320" lon="-8.5967730">
        <ele>11.2</ele>
        <time>2021-05-15T17:04:01Z</time>
      </trkpt>
      <trkpt lat="41.1406380" lon="-8.5967840">
        <ele>11.2</ele>
        <time>2021-05-15T17:04:02Z</time>
      </trkpt>
      <trkpt lat="41.1406430" lon="-8.5968130">
        <ele>11.2</ele>
        <time>2021-05-15T17:04:03Z</time>
      </trkpt>
      <trkpt lat="41.1406460" lon="-8.5968230">
        <ele>11.2</ele>
        <time>2021-05-15T17:04:04Z</time>
      </trkpt>
      <trkpt lat="41.1406500" lon="-8.5968320">
        <ele>11.2</ele>
        <time>2021-05-15T17:04:05Z</time>
      </trkpt>
      <trkpt lat="41.1406640" lon="-8.5968540">
        <ele>11.2</ele>
        <time>2021-05-15T17:04:06Z</time>
      </trkpt>
      <trkpt lat="41.1406700" lon="-8.5968670">
        <ele>11.2</ele>
        <time>2021-05-15T17:04:07Z</time>
      </trkpt>
      <trkpt lat="41.1406770" lon="-8.5968800">
        <ele>11.2</ele>
        <time>2021-05-15T17:04:08Z</time>
      </trkpt>
      <trkpt lat="41.1406820" lon="-8.5968990">
        <ele>11.2</ele>
        <time>2021-05-15T17:04:09Z</time>
      </trkpt>
      <trkpt lat="41.1406950" lon="-8.5969170">
        <ele>11.2</ele>
        <time>2021-05-15T17:04:10Z</time>
      </trkpt>
      <trkpt lat="41.1407040" lon="-8.5969320">
        <ele>11.2</ele>
        <time>2021-05-15T17:04:11Z</time>
      </trkpt>
      <trkpt lat="41.1407120" lon="-8.5969500">
        <ele>11.2</ele>
        <time>2021-05-15T17:04:12Z</time>
      </trkpt>
      <trkpt lat="41.1407190" lon="-8.5969670">
        <ele>11.2</ele>
        <time>2021-05-15T17:04:13Z</time>
      </trkpt>
      <trkpt lat="41.1407270" lon="-8.5969850">
        <ele>11.2</ele>
        <time>2021-05-15T17:04:14Z</time>
      </trkpt>
      <trkpt lat="41.1407310" lon="-8.5969970">
        <ele>11.2</ele>
        <time>2021-05-15T17:04:15Z</time>
      </trkpt>
      <trkpt lat="41.1407420" lon="-8.5970220">
        <ele>11.2</ele>
        <time>2021-05-15T17:04:16Z</time>
      </trkpt>
      <trkpt lat="41.1407490" lon="-8.5970380">
        <ele>11.2</ele>
        <time>2021-05-15T17:04:17Z</time>
      </trkpt>
      <trkpt lat="41.1407510" lon="-8.5970520">
        <ele>11.2</ele>
        <time>2021-05-15T17:04:18Z</time>
      </trkpt>
      <trkpt lat="41.1407570" lon="-8.5970620">
        <ele>11.2</ele>
        <time>2021-05-15T17:04:19Z</time>
      </trkpt>
      <trkpt lat="41.1407630" lon="-8.5970780">
        <ele>11.2</ele>
        <time>2021-05-15T17:04:20Z</time>
      </trkpt>
      <trkpt lat="41.1407660" lon="-8.5970960">
        <ele>11.2</ele>
        <time>2021-05-15T17:04:21Z</time>
      </trkpt>
      <trkpt lat="41.1407750" lon="-8.5971170">
        <ele>11.2</ele>
        <time>2021-05-15T17:04:22Z</time>
      </trkpt>
      <trkpt lat="41.1407790" lon="-8.5971290">
        <ele>11.2</ele>
        <time>2021-05-15T17:04:23Z</time>
      </trkpt>
      <trkpt lat="41.1407830" lon="-8.5971420">
        <ele>11.2</ele>
        <time>2021-05-15T17:04:24Z</time>
      </trkpt>
      <trkpt lat="41.1407900" lon="-8.5971510">
        <ele>11.2</ele>
        <time>2021-05-15T17:04:25Z</time>
      </trkpt>
      <trkpt lat="41.1407990" lon="-8.5971650">
        <ele>11.2</ele>
        <time>2021-05-15T17:04:26Z</time>
      </trkpt>
      <trkpt lat="41.1408040" lon="-8.5971780">
        <ele>11.2</ele>
        <time>2021-05-15T17:04:27Z</time>
      </trkpt>
      <trkpt lat="41.1408150" lon="-8.5971960">
        <ele>11.2</ele>
        <time>2021-05-15T17:04:29Z</time>
      </trkpt>
      <trkpt lat="41.1408290" lon="-8.5972120">
        <ele>11.2</ele>
        <time>2021-05-15T17:04:30Z</time>
      </trkpt>
      <trkpt lat="41.1408360" lon="-8.5972280">
        <ele>11.2</ele>
        <time>2021-05-15T17:04:31Z</time>
      </trkpt>
      <trkpt lat="41.1408430" lon="-8.5972470">
        <ele>11.2</ele>
        <time>2021-05-15T17:04:32Z</time>
      </trkpt>
      <trkpt lat="41.1408510" lon="-8.5972660">
        <ele>11.2</ele>
        <time>2021-05-15T17:04:33Z</time>
      </trkpt>
      <trkpt lat="41.1408570" lon="-8.5972830">
        <ele>11.2</ele>
        <time>2021-05-15T17:04:34Z</time>
      </trkpt>
      <trkpt lat="41.1408680" lon="-8.5973080">
        <ele>11.2</ele>
        <time>2021-05-15T17:04:35Z</time>
      </trkpt>
      <trkpt lat="41.1408730" lon="-8.5973180">
        <ele>11.2</ele>
        <time>2021-05-15T17:04:36Z</time>
      </trkpt>
      <trkpt lat="41.1408780" lon="-8.5973290">
        <ele>11.2</ele>
        <time>2021-05-15T17:04:37Z</time>
      </trkpt>
      <trkpt lat="41.1408890" lon="-8.5973560">
        <ele>11.2</ele>
        <time>2021-05-15T17:04:38Z</time>
      </trkpt>
      <trkpt lat="41.1408930" lon="-8.5973690">
        <ele>11.2</ele>
        <time>2021-05-15T17:04:39Z</time>
      </trkpt>
      <trkpt lat="41.1408970" lon="-8.5973820">
        <ele>11.2</ele>
        <time>2021-05-15T17:04:40Z</time>
      </trkpt>
      <trkpt lat="41.1409030" lon="-8.5973970">
        <ele>11.2</ele>
        <time>2021-05-15T17:04:41Z</time>
      </trkpt>
      <trkpt lat="41.1409180" lon="-8.5974190">
        <ele>11.2</ele>
        <time>2021-05-15T17:04:42Z</time>
      </trkpt>
      <trkpt lat="41.1409180" lon="-8.5974360">
        <ele>11.2</ele>
        <time>2021-05-15T17:04:43Z</time>
      </trkpt>
      <trkpt lat="41.1409240" lon="-8.5974580">
        <ele>11.2</ele>
        <time>2021-05-15T17:04:44Z</time>
      </trkpt>
      <trkpt lat="41.1409400" lon="-8.5974720">
        <ele>11.2</ele>
        <time>2021-05-15T17:04:45Z</time>
      </trkpt>
      <trkpt lat="41.1409500" lon="-8.5974820">
        <ele>11.2</ele>
        <time>2021-05-15T17:04:46Z</time>
      </trkpt>
      <trkpt lat="41.1409510" lon="-8.5974950">
        <ele>11.2</ele>
        <time>2021-05-15T17:04:47Z</time>
      </trkpt>
      <trkpt lat="41.1409600" lon="-8.5975180">
        <ele>11.2</ele>
        <time>2021-05-15T17:04:48Z</time>
      </trkpt>
      <trkpt lat="41.1409750" lon="-8.5975520">
        <ele>11.2</ele>
        <time>2021-05-15T17:04:49Z</time>
      </trkpt>
      <trkpt lat="41.1409860" lon="-8.5975790">
        <ele>11.2</ele>
        <time>2021-05-15T17:04:50Z</time>
      </trkpt>
      <trkpt lat="41.1409910" lon="-8.5975890">
        <ele>11.2</ele>
        <time>2021-05-15T17:04:51Z</time>
      </trkpt>
      <trkpt lat="41.1409950" lon="-8.5975990">
        <ele>11.2</ele>
        <time>2021-05-15T17:04:52Z</time>
      </trkpt>
      <trkpt lat="41.1410040" lon="-8.5976200">
        <ele>11.2</ele>
        <time>2021-05-15T17:04:53Z</time>
      </trkpt>
      <trkpt lat="41.1410100" lon="-8.5976360">
        <ele>11.2</ele>
        <time>2021-05-15T17:04:54Z</time>
      </trkpt>
      <trkpt lat="41.1410220" lon="-8.5976530">
        <ele>11.2</ele>
        <time>2021-05-15T17:04:55Z</time>
      </trkpt>
      <trkpt lat="41.1410280" lon="-8.5976670">
        <ele>11.2</ele>
        <time>2021-05-15T17:04:56Z</time>
      </trkpt>
      <trkpt lat="41.1410340" lon="-8.5976840">
        <ele>11.2</ele>
        <time>2021-05-15T17:04:57Z</time>
      </trkpt>
      <trkpt lat="41.1410380" lon="-8.5977020">
        <ele>11.2</ele>
        <time>2021-05-15T17:04:58Z</time>
      </trkpt>
      <trkpt lat="41.1410470" lon="-8.5977180">
        <ele>11.2</ele>
        <time>2021-05-15T17:04:59Z</time>
      </trkpt>
      <trkpt lat="41.1410520" lon="-8.5977370">
        <ele>11.2</ele>
        <time>2021-05-15T17:05:00Z</time>
      </trkpt>
      <trkpt lat="41.1410650" lon="-8.5977510">
        <ele>11.2</ele>
        <time>2021-05-15T17:05:01Z</time>
      </trkpt>
      <trkpt lat="41.1410710" lon="-8.5977660">
        <ele>11.2</ele>
        <time>2021-05-15T17:05:02Z</time>
      </trkpt>
      <trkpt lat="41.1410780" lon="-8.5977820">
        <ele>11.2</ele>
        <time>2021-05-15T17:05:03Z</time>
      </trkpt>
      <trkpt lat="41.1410950" lon="-8.5978000">
        <ele>11.2</ele>
        <time>2021-05-15T17:05:04Z</time>
      </trkpt>
      <trkpt lat="41.1411040" lon="-8.5978170">
        <ele>11.2</ele>
        <time>2021-05-15T17:05:05Z</time>
      </trkpt>
      <trkpt lat="41.1411170" lon="-8.5978320">
        <ele>11.2</ele>
        <time>2021-05-15T17:05:06Z</time>
      </trkpt>
      <trkpt lat="41.1411230" lon="-8.5978450">
        <ele>11.2</ele>
        <time>2021-05-15T17:05:07Z</time>
      </trkpt>
      <trkpt lat="41.1411330" lon="-8.5978660">
        <ele>11.2</ele>
        <time>2021-05-15T17:05:08Z</time>
      </trkpt>
      <trkpt lat="41.1411370" lon="-8.5978840">
        <ele>11.2</ele>
        <time>2021-05-15T17:05:09Z</time>
      </trkpt>
      <trkpt lat="41.1411480" lon="-8.5978960">
        <ele>11.2</ele>
        <time>2021-05-15T17:05:10Z</time>
      </trkpt>
      <trkpt lat="41.1411510" lon="-8.5979150">
        <ele>11.2</ele>
        <time>2021-05-15T17:05:11Z</time>
      </trkpt>
      <trkpt lat="41.1411570" lon="-8.5979300">
        <ele>11.2</ele>
        <time>2021-05-15T17:05:12Z</time>
      </trkpt>
      <trkpt lat="41.1411690" lon="-8.5979480">
        <ele>11.2</ele>
        <time>2021-05-15T17:05:13Z</time>
      </trkpt>
      <trkpt lat="41.1411790" lon="-8.5979640">
        <ele>11.2</ele>
        <time>2021-05-15T17:05:14Z</time>
      </trkpt>
      <trkpt lat="41.1411880" lon="-8.5979860">
        <ele>11.2</ele>
        <time>2021-05-15T17:05:15Z</time>
      </trkpt>
      <trkpt lat="41.1411920" lon="-8.5979970">
        <ele>11.2</ele>
        <time>2021-05-15T17:05:16Z</time>
      </trkpt>
      <trkpt lat="41.1411960" lon="-8.5980080">
        <ele>11.2</ele>
        <time>2021-05-15T17:05:17Z</time>
      </trkpt>
      <trkpt lat="41.1412010" lon="-8.5980210">
        <ele>11.2</ele>
        <time>2021-05-15T17:05:18Z</time>
      </trkpt>
      <trkpt lat="41.1412150" lon="-8.5980370">
        <ele>11.2</ele>
        <time>2021-05-15T17:05:19Z</time>
      </trkpt>
      <trkpt lat="41.1412240" lon="-8.5980620">
        <ele>11.2</ele>
        <time>2021-05-15T17:05:20Z</time>
      </trkpt>
      <trkpt lat="41.1412260" lon="-8.5980740">
        <ele>11.2</ele>
        <time>2021-05-15T17:05:21Z</time>
      </trkpt>
      <trkpt lat="41.1412290" lon="-8.5980850">
        <ele>11.2</ele>
        <time>2021-05-15T17:05:22Z</time>
      </trkpt>
      <trkpt lat="41.1412500" lon="-8.5981120">
        <ele>11.2</ele>
        <time>2021-05-15T17:05:23Z</time>
      </trkpt>
      <trkpt lat="41.1412530" lon="-8.5981240">
        <ele>11.2</ele>
        <time>2021-05-15T17:05:24Z</time>
      </trkpt>
      <trkpt lat="41.1412590" lon="-8.5981380">
        <ele>11.2</ele>
        <time>2021-05-15T17:05:25Z</time>
      </trkpt>
      <trkpt lat="41.1412680" lon="-8.5981550">
        <ele>11.2</ele>
        <time>2021-05-15T17:05:26Z</time>
      </trkpt>
      <trkpt lat="41.1412810" lon="-8.5981670">
        <ele>11.2</ele>
        <time>2021-05-15T17:05:27Z</time>
      </trkpt>
      <trkpt lat="41.1412920" lon="-8.5981790">
        <ele>11.2</ele>
        <time>2021-05-15T17:05:28Z</time>
      </trkpt>
      <trkpt lat="41.1412960" lon="-8.5981950">
        <ele>11.2</ele>
        <time>2021-05-15T17:05:29Z</time>
      </trkpt>
      <trkpt lat="41.1413030" lon="-8.5982200">
        <ele>11.2</ele>
        <time>2021-05-15T17:05:30Z</time>
      </trkpt>
      <trkpt lat="41.1413110" lon="-8.5982460">
        <ele>11.2</ele>
        <time>2021-05-15T17:05:31Z</time>
      </trkpt>
      <trkpt lat="41.1413160" lon="-8.5982580">
        <ele>11.2</ele>
        <time>2021-05-15T17:05:32Z</time>
      </trkpt>
      <trkpt lat="41.1413200" lon="-8.5982700">
        <ele>11.2</ele>
        <time>2021-05-15T17:05:33Z</time>
      </trkpt>
      <trkpt lat="41.1413320" lon="-8.5982980">
        <ele>11.1</ele>
        <time>2021-05-15T17:05:34Z</time>
      </trkpt>
      <trkpt lat="41.1413370" lon="-8.5983090">
        <ele>11.1</ele>
        <time>2021-05-15T17:05:35Z</time>
      </trkpt>
      <trkpt lat="41.1413410" lon="-8.5983200">
        <ele>11.1</ele>
        <time>2021-05-15T17:05:36Z</time>
      </trkpt>
      <trkpt lat="41.1413480" lon="-8.5983450">
        <ele>11.1</ele>
        <time>2021-05-15T17:05:37Z</time>
      </trkpt>
      <trkpt lat="41.1413500" lon="-8.5983560">
        <ele>11.1</ele>
        <time>2021-05-15T17:05:38Z</time>
      </trkpt>
      <trkpt lat="41.1413530" lon="-8.5983680">
        <ele>11.1</ele>
        <time>2021-05-15T17:05:39Z</time>
      </trkpt>
      <trkpt lat="41.1413620" lon="-8.5983940">
        <ele>11.1</ele>
        <time>2021-05-15T17:05:40Z</time>
      </trkpt>
      <trkpt lat="41.1413680" lon="-8.5984020">
        <ele>11.1</ele>
        <time>2021-05-15T17:05:41Z</time>
      </trkpt>
      <trkpt lat="41.1413730" lon="-8.5984110">
        <ele>11.1</ele>
        <time>2021-05-15T17:05:42Z</time>
      </trkpt>
      <trkpt lat="41.1413860" lon="-8.5984350">
        <ele>11.1</ele>
        <time>2021-05-15T17:05:43Z</time>
      </trkpt>
      <trkpt lat="41.1413890" lon="-8.5984460">
        <ele>11.1</ele>
        <time>2021-05-15T17:05:44Z</time>
      </trkpt>
      <trkpt lat="41.1413930" lon="-8.5984580">
        <ele>11.1</ele>
        <time>2021-05-15T17:05:45Z</time>
      </trkpt>
      <trkpt lat="41.1414030" lon="-8.5984720">
        <ele>11.1</ele>
        <time>2021-05-15T17:05:46Z</time>
      </trkpt>
      <trkpt lat="41.1414120" lon="-8.5984890">
        <ele>11.1</ele>
        <time>2021-05-15T17:05:47Z</time>
      </trkpt>
      <trkpt lat="41.1414220" lon="-8.5985100">
        <ele>11.1</ele>
        <time>2021-05-15T17:05:48Z</time>
      </trkpt>
      <trkpt lat="41.1414320" lon="-8.5985290">
        <ele>11.1</ele>
        <time>2021-05-15T17:05:49Z</time>
      </trkpt>
      <trkpt lat="41.1414430" lon="-8.5985470">
        <ele>11.1</ele>
        <time>2021-05-15T17:05:50Z</time>
      </trkpt>
      <trkpt lat="41.1414470" lon="-8.5985640">
        <ele>11.1</ele>
        <time>2021-05-15T17:05:51Z</time>
      </trkpt>
      <trkpt lat="41.1414550" lon="-8.5985790">
        <ele>11.1</ele>
        <time>2021-05-15T17:05:52Z</time>
      </trkpt>
      <trkpt lat="41.1414600" lon="-8.5985890">
        <ele>11.1</ele>
        <time>2021-05-15T17:05:53Z</time>
      </trkpt>
      <trkpt lat="41.1414690" lon="-8.5986020">
        <ele>11.1</ele>
        <time>2021-05-15T17:05:54Z</time>
      </trkpt>
      <trkpt lat="41.1414780" lon="-8.5986180">
        <ele>11.1</ele>
        <time>2021-05-15T17:05:55Z</time>
      </trkpt>
      <trkpt lat="41.1414840" lon="-8.5986350">
        <ele>11.1</ele>
        <time>2021-05-15T17:05:56Z</time>
      </trkpt>
      <trkpt lat="41.1414940" lon="-8.5986550">
        <ele>11.1</ele>
        <time>2021-05-15T17:05:57Z</time>
      </trkpt>
      <trkpt lat="41.1414950" lon="-8.5986680">
        <ele>11.1</ele>
        <time>2021-05-15T17:05:58Z</time>
      </trkpt>
      <trkpt lat="41.1415100" lon="-8.5986880">
        <ele>11.1</ele>
        <time>2021-05-15T17:05:59Z</time>
      </trkpt>
      <trkpt lat="41.1415100" lon="-8.5987060">
        <ele>11.1</ele>
        <time>2021-05-15T17:06:00Z</time>
      </trkpt>
      <trkpt lat="41.1415240" lon="-8.5987290">
        <ele>11.1</ele>
        <time>2021-05-15T17:06:01Z</time>
      </trkpt>
      <trkpt lat="41.1415270" lon="-8.5987390">
        <ele>11.1</ele>
        <time>2021-05-15T17:06:02Z</time>
      </trkpt>
      <trkpt lat="41.1415310" lon="-8.5987490">
        <ele>11.1</ele>
        <time>2021-05-15T17:06:03Z</time>
      </trkpt>
      <trkpt lat="41.1415360" lon="-8.5987750">
        <ele>11.1</ele>
        <time>2021-05-15T17:06:04Z</time>
      </trkpt>
      <trkpt lat="41.1415410" lon="-8.5987900">
        <ele>11.1</ele>
        <time>2021-05-15T17:06:05Z</time>
      </trkpt>
      <trkpt lat="41.1415450" lon="-8.5988040">
        <ele>11.1</ele>
        <time>2021-05-15T17:06:06Z</time>
      </trkpt>
      <trkpt lat="41.1415510" lon="-8.5988220">
        <ele>11.1</ele>
        <time>2021-05-15T17:06:07Z</time>
      </trkpt>
      <trkpt lat="41.1415610" lon="-8.5988340">
        <ele>11.1</ele>
        <time>2021-05-15T17:06:08Z</time>
      </trkpt>
      <trkpt lat="41.1415650" lon="-8.5988480">
        <ele>11.1</ele>
        <time>2021-05-15T17:06:09Z</time>
      </trkpt>
      <trkpt lat="41.1415760" lon="-8.5988680">
        <ele>11.1</ele>
        <time>2021-05-15T17:06:10Z</time>
      </trkpt>
      <trkpt lat="41.1415860" lon="-8.5988790">
        <ele>11.1</ele>
        <time>2021-05-15T17:06:11Z</time>
      </trkpt>
      <trkpt lat="41.1415950" lon="-8.5988970">
        <ele>11.1</ele>
        <time>2021-05-15T17:06:12Z</time>
      </trkpt>
      <trkpt lat="41.1416040" lon="-8.5989290">
        <ele>11.1</ele>
        <time>2021-05-15T17:06:13Z</time>
      </trkpt>
      <trkpt lat="41.1416080" lon="-8.5989400">
        <ele>11.1</ele>
        <time>2021-05-15T17:06:14Z</time>
      </trkpt>
      <trkpt lat="41.1416120" lon="-8.5989520">
        <ele>11.1</ele>
        <time>2021-05-15T17:06:15Z</time>
      </trkpt>
      <trkpt lat="41.1416190" lon="-8.5989660">
        <ele>11.1</ele>
        <time>2021-05-15T17:06:16Z</time>
      </trkpt>
      <trkpt lat="41.1416250" lon="-8.5989750">
        <ele>11.1</ele>
        <time>2021-05-15T17:06:17Z</time>
      </trkpt>
      <trkpt lat="41.1416300" lon="-8.5989940">
        <ele>11.1</ele>
        <time>2021-05-15T17:06:18Z</time>
      </trkpt>
      <trkpt lat="41.1416360" lon="-8.5990040">
        <ele>11.1</ele>
        <time>2021-05-15T17:06:19Z</time>
      </trkpt>
      <trkpt lat="41.1416470" lon="-8.5990270">
        <ele>11.1</ele>
        <time>2021-05-15T17:06:20Z</time>
      </trkpt>
      <trkpt lat="41.1416600" lon="-8.5990480">
        <ele>11.1</ele>
        <time>2021-05-15T17:06:21Z</time>
      </trkpt>
      <trkpt lat="41.1416640" lon="-8.5990670">
        <ele>11.1</ele>
        <time>2021-05-15T17:06:22Z</time>
      </trkpt>
      <trkpt lat="41.1416700" lon="-8.5990850">
        <ele>11.1</ele>
        <time>2021-05-15T17:06:23Z</time>
      </trkpt>
      <trkpt lat="41.1416800" lon="-8.5991010">
        <ele>11.1</ele>
        <time>2021-05-15T17:06:24Z</time>
      </trkpt>
      <trkpt lat="41.1416920" lon="-8.5991180">
        <ele>11.1</ele>
        <time>2021-05-15T17:06:25Z</time>
      </trkpt>
      <trkpt lat="41.1417010" lon="-8.5991360">
        <ele>11.1</ele>
        <time>2021-05-15T17:06:26Z</time>
      </trkpt>
      <trkpt lat="41.1417080" lon="-8.5991550">
        <ele>11.1</ele>
        <time>2021-05-15T17:06:27Z</time>
      </trkpt>
      <trkpt lat="41.1417160" lon="-8.5991740">
        <ele>11.1</ele>
        <time>2021-05-15T17:06:28Z</time>
      </trkpt>
      <trkpt lat="41.1417170" lon="-8.5992040">
        <ele>11.1</ele>
        <time>2021-05-15T17:06:29Z</time>
      </trkpt>
      <trkpt lat="41.1417170" lon="-8.5992140">
        <ele>11.1</ele>
        <time>2021-05-15T17:06:31Z</time>
      </trkpt>
      <trkpt lat="41.1417170" lon="-8.5992250">
        <ele>11.1</ele>
        <time>2021-05-15T17:06:32Z</time>
      </trkpt>
      <trkpt lat="41.1417320" lon="-8.5992390">
        <ele>11.1</ele>
        <time>2021-05-15T17:06:33Z</time>
      </trkpt>
      <trkpt lat="41.1417400" lon="-8.5992470">
        <ele>11.1</ele>
        <time>2021-05-15T17:06:34Z</time>
      </trkpt>
      <trkpt lat="41.1417480" lon="-8.5992560">
        <ele>11.1</ele>
        <time>2021-05-15T17:06:35Z</time>
      </trkpt>
      <trkpt lat="41.1417580" lon="-8.5992800">
        <ele>11.1</ele>
        <time>2021-05-15T17:06:36Z</time>
      </trkpt>
      <trkpt lat="41.1417620" lon="-8.5992930">
        <ele>11.1</ele>
        <time>2021-05-15T17:06:37Z</time>
      </trkpt>
      <trkpt lat="41.1417660" lon="-8.5993060">
        <ele>11.1</ele>
        <time>2021-05-15T17:06:38Z</time>
      </trkpt>
      <trkpt lat="41.1417660" lon="-8.5993190">
        <ele>11.1</ele>
        <time>2021-05-15T17:06:39Z</time>
      </trkpt>
      <trkpt lat="41.1417680" lon="-8.5993300">
        <ele>11.1</ele>
        <time>2021-05-15T17:06:40Z</time>
      </trkpt>
      <trkpt lat="41.1417720" lon="-8.5993490">
        <ele>11.1</ele>
        <time>2021-05-15T17:06:41Z</time>
      </trkpt>
      <trkpt lat="41.1417720" lon="-8.5993770">
        <ele>11.1</ele>
        <time>2021-05-15T17:06:42Z</time>
      </trkpt>
      <trkpt lat="41.1417720" lon="-8.5993890">
        <ele>11.1</ele>
        <time>2021-05-15T17:06:43Z</time>
      </trkpt>
      <trkpt lat="41.1417720" lon="-8.5994010">
        <ele>11.1</ele>
        <time>2021-05-15T17:06:44Z</time>
      </trkpt>
      <trkpt lat="41.1417820" lon="-8.5994270">
        <ele>11.1</ele>
        <time>2021-05-15T17:06:45Z</time>
      </trkpt>
      <trkpt lat="41.1417840" lon="-8.5994360">
        <ele>11.1</ele>
        <time>2021-05-15T17:06:46Z</time>
      </trkpt>
      <trkpt lat="41.1417870" lon="-8.5994460">
        <ele>11.1</ele>
        <time>2021-05-15T17:06:47Z</time>
      </trkpt>
      <trkpt lat="41.1417990" lon="-8.5994690">
        <ele>11.1</ele>
        <time>2021-05-15T17:06:48Z</time>
      </trkpt>
      <trkpt lat="41.1418010" lon="-8.5994810">
        <ele>11.1</ele>
        <time>2021-05-15T17:06:49Z</time>
      </trkpt>
      <trkpt lat="41.1418040" lon="-8.5994930">
        <ele>11.1</ele>
        <time>2021-05-15T17:06:50Z</time>
      </trkpt>
      <trkpt lat="41.1418080" lon="-8.5995070">
        <ele>11.1</ele>
        <time>2021-05-15T17:06:51Z</time>
      </trkpt>
      <trkpt lat="41.1418150" lon="-8.5995310">
        <ele>11.1</ele>
        <time>2021-05-15T17:06:52Z</time>
      </trkpt>
      <trkpt lat="41.1418310" lon="-8.5995570">
        <ele>11.1</ele>
        <time>2021-05-15T17:06:53Z</time>
      </trkpt>
      <trkpt lat="41.1418370" lon="-8.5995740">
        <ele>11.1</ele>
        <time>2021-05-15T17:06:54Z</time>
      </trkpt>
      <trkpt lat="41.1418440" lon="-8.5995900">
        <ele>11.1</ele>
        <time>2021-05-15T17:06:55Z</time>
      </trkpt>
      <trkpt lat="41.1418530" lon="-8.5996130">
        <ele>11.1</ele>
        <time>2021-05-15T17:06:56Z</time>
      </trkpt>
      <trkpt lat="41.1418530" lon="-8.5996230">
        <ele>11.1</ele>
        <time>2021-05-15T17:06:57Z</time>
      </trkpt>
      <trkpt lat="41.1418590" lon="-8.5996570">
        <ele>11.2</ele>
        <time>2021-05-15T17:06:58Z</time>
      </trkpt>
      <trkpt lat="41.1418620" lon="-8.5996660">
        <ele>11.2</ele>
        <time>2021-05-15T17:06:59Z</time>
      </trkpt>
      <trkpt lat="41.1418660" lon="-8.5996740">
        <ele>11.2</ele>
        <time>2021-05-15T17:07:00Z</time>
      </trkpt>
      <trkpt lat="41.1418690" lon="-8.5996990">
        <ele>11.2</ele>
        <time>2021-05-15T17:07:01Z</time>
      </trkpt>
      <trkpt lat="41.1418710" lon="-8.5997180">
        <ele>11.2</ele>
        <time>2021-05-15T17:07:02Z</time>
      </trkpt>
      <trkpt lat="41.1418660" lon="-8.5997190">
        <ele>11.2</ele>
        <time>2021-05-15T17:07:03Z</time>
      </trkpt>
      <trkpt lat="41.1418690" lon="-8.5997320">
        <ele>11.2</ele>
        <time>2021-05-15T17:07:04Z</time>
      </trkpt>
      <trkpt lat="41.1418720" lon="-8.5997560">
        <ele>11.2</ele>
        <time>2021-05-15T17:07:05Z</time>
      </trkpt>
      <trkpt lat="41.1418800" lon="-8.5997840">
        <ele>11.2</ele>
        <time>2021-05-15T17:07:06Z</time>
      </trkpt>
      <trkpt lat="41.1418810" lon="-8.5998030">
        <ele>11.2</ele>
        <time>2021-05-15T17:07:07Z</time>
      </trkpt>
      <trkpt lat="41.1418870" lon="-8.5998220">
        <ele>11.2</ele>
        <time>2021-05-15T17:07:08Z</time>
      </trkpt>
      <trkpt lat="41.1418960" lon="-8.5998420">
        <ele>11.2</ele>
        <time>2021-05-15T17:07:09Z</time>
      </trkpt>
      <trkpt lat="41.1419010" lon="-8.5998650">
        <ele>11.3</ele>
        <time>2021-05-15T17:07:10Z</time>
      </trkpt>
      <trkpt lat="41.1419060" lon="-8.5998760">
        <ele>11.3</ele>
        <time>2021-05-15T17:07:11Z</time>
      </trkpt>
      <trkpt lat="41.1419120" lon="-8.5998870">
        <ele>11.3</ele>
        <time>2021-05-15T17:07:12Z</time>
      </trkpt>
      <trkpt lat="41.1419170" lon="-8.5998990">
        <ele>11.3</ele>
        <time>2021-05-15T17:07:13Z</time>
      </trkpt>
      <trkpt lat="41.1419230" lon="-8.5999140">
        <ele>11.3</ele>
        <time>2021-05-15T17:07:14Z</time>
      </trkpt>
      <trkpt lat="41.1419260" lon="-8.5999290">
        <ele>11.3</ele>
        <time>2021-05-15T17:07:15Z</time>
      </trkpt>
      <trkpt lat="41.1419270" lon="-8.5999450">
        <ele>11.3</ele>
        <time>2021-05-15T17:07:16Z</time>
      </trkpt>
      <trkpt lat="41.1419320" lon="-8.5999660">
        <ele>11.3</ele>
        <time>2021-05-15T17:07:17Z</time>
      </trkpt>
      <trkpt lat="41.1419320" lon="-8.5999880">
        <ele>11.3</ele>
        <time>2021-05-15T17:07:18Z</time>
      </trkpt>
      <trkpt lat="41.1419380" lon="-8.6000030">
        <ele>11.3</ele>
        <time>2021-05-15T17:07:19Z</time>
      </trkpt>
      <trkpt lat="41.1419400" lon="-8.6000190">
        <ele>11.3</ele>
        <time>2021-05-15T17:07:20Z</time>
      </trkpt>
      <trkpt lat="41.1419410" lon="-8.6000350">
        <ele>11.3</ele>
        <time>2021-05-15T17:07:21Z</time>
      </trkpt>
      <trkpt lat="41.1419460" lon="-8.6000490">
        <ele>11.3</ele>
        <time>2021-05-15T17:07:22Z</time>
      </trkpt>
      <trkpt lat="41.1419520" lon="-8.6000600">
        <ele>11.3</ele>
        <time>2021-05-15T17:07:23Z</time>
      </trkpt>
      <trkpt lat="41.1419580" lon="-8.6000730">
        <ele>11.3</ele>
        <time>2021-05-15T17:07:24Z</time>
      </trkpt>
      <trkpt lat="41.1419680" lon="-8.6000840">
        <ele>11.3</ele>
        <time>2021-05-15T17:07:25Z</time>
      </trkpt>
      <trkpt lat="41.1419760" lon="-8.6001120">
        <ele>11.3</ele>
        <time>2021-05-15T17:07:26Z</time>
      </trkpt>
      <trkpt lat="41.1419810" lon="-8.6001220">
        <ele>11.3</ele>
        <time>2021-05-15T17:07:27Z</time>
      </trkpt>
      <trkpt lat="41.1419870" lon="-8.6001330">
        <ele>11.3</ele>
        <time>2021-05-15T17:07:28Z</time>
      </trkpt>
      <trkpt lat="41.1419910" lon="-8.6001450">
        <ele>11.3</ele>
        <time>2021-05-15T17:07:29Z</time>
      </trkpt>
      <trkpt lat="41.1419980" lon="-8.6001590">
        <ele>11.3</ele>
        <time>2021-05-15T17:07:30Z</time>
      </trkpt>
      <trkpt lat="41.1420040" lon="-8.6001690">
        <ele>11.3</ele>
        <time>2021-05-15T17:07:31Z</time>
      </trkpt>
      <trkpt lat="41.1420100" lon="-8.6001800">
        <ele>11.3</ele>
        <time>2021-05-15T17:07:32Z</time>
      </trkpt>
      <trkpt lat="41.1420150" lon="-8.6001950">
        <ele>11.3</ele>
        <time>2021-05-15T17:07:33Z</time>
      </trkpt>
      <trkpt lat="41.1420200" lon="-8.6002120">
        <ele>11.3</ele>
        <time>2021-05-15T17:07:34Z</time>
      </trkpt>
      <trkpt lat="41.1420240" lon="-8.6002290">
        <ele>11.4</ele>
        <time>2021-05-15T17:07:35Z</time>
      </trkpt>
      <trkpt lat="41.1420320" lon="-8.6002410">
        <ele>11.4</ele>
        <time>2021-05-15T17:07:36Z</time>
      </trkpt>
      <trkpt lat="41.1420350" lon="-8.6002500">
        <ele>11.4</ele>
        <time>2021-05-15T17:07:37Z</time>
      </trkpt>
      <trkpt lat="41.1420410" lon="-8.6002760">
        <ele>11.4</ele>
        <time>2021-05-15T17:07:38Z</time>
      </trkpt>
      <trkpt lat="41.1420410" lon="-8.6002880">
        <ele>11.4</ele>
        <time>2021-05-15T17:07:39Z</time>
      </trkpt>
      <trkpt lat="41.1420410" lon="-8.6003010">
        <ele>11.4</ele>
        <time>2021-05-15T17:07:40Z</time>
      </trkpt>
      <trkpt lat="41.1420410" lon="-8.6003410">
        <ele>11.5</ele>
        <time>2021-05-15T17:07:41Z</time>
      </trkpt>
      <trkpt lat="41.1420410" lon="-8.6003550">
        <ele>11.5</ele>
        <time>2021-05-15T17:07:42Z</time>
      </trkpt>
      <trkpt lat="41.1420340" lon="-8.6003880">
        <ele>11.5</ele>
        <time>2021-05-15T17:07:43Z</time>
      </trkpt>
      <trkpt lat="41.1420320" lon="-8.6004020">
        <ele>11.5</ele>
        <time>2021-05-15T17:07:44Z</time>
      </trkpt>
      <trkpt lat="41.1420270" lon="-8.6004280">
        <ele>11.5</ele>
        <time>2021-05-15T17:07:45Z</time>
      </trkpt>
      <trkpt lat="41.1420210" lon="-8.6004460">
        <ele>11.5</ele>
        <time>2021-05-15T17:07:46Z</time>
      </trkpt>
      <trkpt lat="41.1420200" lon="-8.6004710">
        <ele>11.6</ele>
        <time>2021-05-15T17:07:47Z</time>
      </trkpt>
      <trkpt lat="41.1420220" lon="-8.6004910">
        <ele>11.6</ele>
        <time>2021-05-15T17:07:48Z</time>
      </trkpt>
      <trkpt lat="41.1420250" lon="-8.6005060">
        <ele>11.6</ele>
        <time>2021-05-15T17:07:49Z</time>
      </trkpt>
      <trkpt lat="41.1420230" lon="-8.6005290">
        <ele>11.6</ele>
        <time>2021-05-15T17:07:50Z</time>
      </trkpt>
      <trkpt lat="41.1420190" lon="-8.6005480">
        <ele>11.6</ele>
        <time>2021-05-15T17:07:51Z</time>
      </trkpt>
      <trkpt lat="41.1420190" lon="-8.6005660">
        <ele>11.7</ele>
        <time>2021-05-15T17:07:52Z</time>
      </trkpt>
      <trkpt lat="41.1420220" lon="-8.6005830">
        <ele>11.7</ele>
        <time>2021-05-15T17:07:53Z</time>
      </trkpt>
      <trkpt lat="41.1420240" lon="-8.6006100">
        <ele>11.7</ele>
        <time>2021-05-15T17:07:54Z</time>
      </trkpt>
      <trkpt lat="41.1420210" lon="-8.6006400">
        <ele>11.7</ele>
        <time>2021-05-15T17:07:55Z</time>
      </trkpt>
      <trkpt lat="41.1420190" lon="-8.6006550">
        <ele>11.7</ele>
        <time>2021-05-15T17:07:56Z</time>
      </trkpt>
      <trkpt lat="41.1420180" lon="-8.6006700">
        <ele>11.7</ele>
        <time>2021-05-15T17:07:57Z</time>
      </trkpt>
      <trkpt lat="41.1420240" lon="-8.6006860">
        <ele>11.8</ele>
        <time>2021-05-15T17:07:58Z</time>
      </trkpt>
      <trkpt lat="41.1420280" lon="-8.6007000">
        <ele>11.8</ele>
        <time>2021-05-15T17:07:59Z</time>
      </trkpt>
      <trkpt lat="41.1420330" lon="-8.6007130">
        <ele>11.8</ele>
        <time>2021-05-15T17:08:00Z</time>
      </trkpt>
      <trkpt lat="41.1420310" lon="-8.6007420">
        <ele>11.8</ele>
        <time>2021-05-15T17:08:01Z</time>
      </trkpt>
      <trkpt lat="41.1420320" lon="-8.6007550">
        <ele>11.8</ele>
        <time>2021-05-15T17:08:02Z</time>
      </trkpt>
      <trkpt lat="41.1420330" lon="-8.6007680">
        <ele>11.8</ele>
        <time>2021-05-15T17:08:03Z</time>
      </trkpt>
      <trkpt lat="41.1420350" lon="-8.6008010">
        <ele>11.9</ele>
        <time>2021-05-15T17:08:04Z</time>
      </trkpt>
      <trkpt lat="41.1420350" lon="-8.6008120">
        <ele>11.9</ele>
        <time>2021-05-15T17:08:05Z</time>
      </trkpt>
      <trkpt lat="41.1420350" lon="-8.6008220">
        <ele>11.9</ele>
        <time>2021-05-15T17:08:06Z</time>
      </trkpt>
      <trkpt lat="41.1420350" lon="-8.6008460">
        <ele>11.9</ele>
        <time>2021-05-15T17:08:07Z</time>
      </trkpt>
      <trkpt lat="41.1420340" lon="-8.6008650">
        <ele>11.9</ele>
        <time>2021-05-15T17:08:08Z</time>
      </trkpt>
      <trkpt lat="41.1420390" lon="-8.6008810">
        <ele>11.9</ele>
        <time>2021-05-15T17:08:09Z</time>
      </trkpt>
      <trkpt lat="41.1420380" lon="-8.6008890">
        <ele>11.9</ele>
        <time>2021-05-15T17:08:10Z</time>
      </trkpt>
      <trkpt lat="41.1420450" lon="-8.6009060">
        <ele>12.0</ele>
        <time>2021-05-15T17:08:11Z</time>
      </trkpt>
      <trkpt lat="41.1420480" lon="-8.6009240">
        <ele>12.0</ele>
        <time>2021-05-15T17:08:12Z</time>
      </trkpt>
      <trkpt lat="41.1420370" lon="-8.6009450">
        <ele>12.0</ele>
        <time>2021-05-15T17:08:13Z</time>
      </trkpt>
      <trkpt lat="41.1420410" lon="-8.6009770">
        <ele>12.0</ele>
        <time>2021-05-15T17:08:14Z</time>
      </trkpt>
      <trkpt lat="41.1420410" lon="-8.6009890">
        <ele>12.0</ele>
        <time>2021-05-15T17:08:15Z</time>
      </trkpt>
      <trkpt lat="41.1420410" lon="-8.6010010">
        <ele>12.0</ele>
        <time>2021-05-15T17:08:16Z</time>
      </trkpt>
      <trkpt lat="41.1420350" lon="-8.6010250">
        <ele>12.1</ele>
        <time>2021-05-15T17:08:17Z</time>
      </trkpt>
      <trkpt lat="41.1420420" lon="-8.6010370">
        <ele>12.1</ele>
        <time>2021-05-15T17:08:18Z</time>
      </trkpt>
      <trkpt lat="41.1420410" lon="-8.6010610">
        <ele>12.1</ele>
        <time>2021-05-15T17:08:19Z</time>
      </trkpt>
      <trkpt lat="41.1420410" lon="-8.6010790">
        <ele>12.1</ele>
        <time>2021-05-15T17:08:20Z</time>
      </trkpt>
      <trkpt lat="41.1420470" lon="-8.6011130">
        <ele>12.1</ele>
        <time>2021-05-15T17:08:21Z</time>
      </trkpt>
      <trkpt lat="41.1420490" lon="-8.6011280">
        <ele>12.2</ele>
        <time>2021-05-15T17:08:22Z</time>
      </trkpt>
      <trkpt lat="41.1420500" lon="-8.6011430">
        <ele>12.2</ele>
        <time>2021-05-15T17:08:23Z</time>
      </trkpt>
      <trkpt lat="41.1420560" lon="-8.6011740">
        <ele>12.2</ele>
        <time>2021-05-15T17:08:24Z</time>
      </trkpt>
      <trkpt lat="41.1420570" lon="-8.6011850">
        <ele>12.2</ele>
        <time>2021-05-15T17:08:25Z</time>
      </trkpt>
      <trkpt lat="41.1420590" lon="-8.6011960">
        <ele>12.2</ele>
        <time>2021-05-15T17:08:26Z</time>
      </trkpt>
      <trkpt lat="41.1420530" lon="-8.6012260">
        <ele>12.2</ele>
        <time>2021-05-15T17:08:27Z</time>
      </trkpt>
      <trkpt lat="41.1420550" lon="-8.6012380">
        <ele>12.2</ele>
        <time>2021-05-15T17:08:28Z</time>
      </trkpt>
      <trkpt lat="41.1420570" lon="-8.6012500">
        <ele>12.2</ele>
        <time>2021-05-15T17:08:29Z</time>
      </trkpt>
      <trkpt lat="41.1420510" lon="-8.6012830">
        <ele>12.3</ele>
        <time>2021-05-15T17:08:30Z</time>
      </trkpt>
      <trkpt lat="41.1420490" lon="-8.6012980">
        <ele>12.3</ele>
        <time>2021-05-15T17:08:31Z</time>
      </trkpt>
      <trkpt lat="41.1420500" lon="-8.6013200">
        <ele>12.3</ele>
        <time>2021-05-15T17:08:32Z</time>
      </trkpt>
      <trkpt lat="41.1420480" lon="-8.6013390">
        <ele>12.3</ele>
        <time>2021-05-15T17:08:33Z</time>
      </trkpt>
      <trkpt lat="41.1420500" lon="-8.6013660">
        <ele>12.3</ele>
        <time>2021-05-15T17:08:34Z</time>
      </trkpt>
      <trkpt lat="41.1420510" lon="-8.6013770">
        <ele>12.3</ele>
        <time>2021-05-15T17:08:35Z</time>
      </trkpt>
      <trkpt lat="41.1420520" lon="-8.6013870">
        <ele>12.3</ele>
        <time>2021-05-15T17:08:36Z</time>
      </trkpt>
      <trkpt lat="41.1420530" lon="-8.6014110">
        <ele>12.4</ele>
        <time>2021-05-15T17:08:37Z</time>
      </trkpt>
      <trkpt lat="41.1420540" lon="-8.6014280">
        <ele>12.4</ele>
        <time>2021-05-15T17:08:38Z</time>
      </trkpt>
      <trkpt lat="41.1420580" lon="-8.6014490">
        <ele>12.4</ele>
        <time>2021-05-15T17:08:39Z</time>
      </trkpt>
      <trkpt lat="41.1420550" lon="-8.6014570">
        <ele>12.4</ele>
        <time>2021-05-15T17:08:40Z</time>
      </trkpt>
      <trkpt lat="41.1420470" lon="-8.6014740">
        <ele>12.4</ele>
        <time>2021-05-15T17:08:41Z</time>
      </trkpt>
      <trkpt lat="41.1420500" lon="-8.6014930">
        <ele>12.4</ele>
        <time>2021-05-15T17:08:42Z</time>
      </trkpt>
      <trkpt lat="41.1420380" lon="-8.6015110">
        <ele>12.5</ele>
        <time>2021-05-15T17:08:43Z</time>
      </trkpt>
      <trkpt lat="41.1420320" lon="-8.6015390">
        <ele>12.5</ele>
        <time>2021-05-15T17:08:44Z</time>
      </trkpt>
      <trkpt lat="41.1420300" lon="-8.6015510">
        <ele>12.5</ele>
        <time>2021-05-15T17:08:45Z</time>
      </trkpt>
      <trkpt lat="41.1420280" lon="-8.6015640">
        <ele>12.5</ele>
        <time>2021-05-15T17:08:46Z</time>
      </trkpt>
      <trkpt lat="41.1420220" lon="-8.6015920">
        <ele>12.5</ele>
        <time>2021-05-15T17:08:47Z</time>
      </trkpt>
      <trkpt lat="41.1420200" lon="-8.6016040">
        <ele>12.5</ele>
        <time>2021-05-15T17:08:48Z</time>
      </trkpt>
      <trkpt lat="41.1420170" lon="-8.6016160">
        <ele>12.5</ele>
        <time>2021-05-15T17:08:49Z</time>
      </trkpt>
      <trkpt lat="41.1420090" lon="-8.6016300">
        <ele>12.6</ele>
        <time>2021-05-15T17:08:50Z</time>
      </trkpt>
      <trkpt lat="41.1420080" lon="-8.6016420">
        <ele>12.6</ele>
        <time>2021-05-15T17:08:51Z</time>
      </trkpt>
      <trkpt lat="41.1420050" lon="-8.6016610">
        <ele>12.6</ele>
        <time>2021-05-15T17:08:52Z</time>
      </trkpt>
      <trkpt lat="41.1420000" lon="-8.6016870">
        <ele>12.6</ele>
        <time>2021-05-15T17:08:53Z</time>
      </trkpt>
      <trkpt lat="41.1419980" lon="-8.6016990">
        <ele>12.6</ele>
        <time>2021-05-15T17:08:54Z</time>
      </trkpt>
      <trkpt lat="41.1419950" lon="-8.6017100">
        <ele>12.6</ele>
        <time>2021-05-15T17:08:55Z</time>
      </trkpt>
      <trkpt lat="41.1419920" lon="-8.6017250">
        <ele>12.6</ele>
        <time>2021-05-15T17:08:56Z</time>
      </trkpt>
      <trkpt lat="41.1419890" lon="-8.6017470">
        <ele>12.7</ele>
        <time>2021-05-15T17:08:57Z</time>
      </trkpt>
      <trkpt lat="41.1419890" lon="-8.6017630">
        <ele>12.7</ele>
        <time>2021-05-15T17:08:58Z</time>
      </trkpt>
      <trkpt lat="41.1419890" lon="-8.6017840">
        <ele>12.7</ele>
        <time>2021-05-15T17:08:59Z</time>
      </trkpt>
      <trkpt lat="41.1419890" lon="-8.6017970">
        <ele>12.7</ele>
        <time>2021-05-15T17:09:00Z</time>
      </trkpt>
      <trkpt lat="41.1419860" lon="-8.6018170">
        <ele>12.7</ele>
        <time>2021-05-15T17:09:01Z</time>
      </trkpt>
      <trkpt lat="41.1419850" lon="-8.6018300">
        <ele>12.7</ele>
        <time>2021-05-15T17:09:02Z</time>
      </trkpt>
      <trkpt lat="41.1419810" lon="-8.6018630">
        <ele>12.8</ele>
        <time>2021-05-15T17:09:03Z</time>
      </trkpt>
      <trkpt lat="41.1419770" lon="-8.6018760">
        <ele>12.8</ele>
        <time>2021-05-15T17:09:04Z</time>
      </trkpt>
      <trkpt lat="41.1419740" lon="-8.6018900">
        <ele>12.8</ele>
        <time>2021-05-15T17:09:05Z</time>
      </trkpt>
      <trkpt lat="41.1419700" lon="-8.6019080">
        <ele>12.8</ele>
        <time>2021-05-15T17:09:06Z</time>
      </trkpt>
      <trkpt lat="41.1419700" lon="-8.6019260">
        <ele>12.8</ele>
        <time>2021-05-15T17:09:07Z</time>
      </trkpt>
      <trkpt lat="41.1419650" lon="-8.6019570">
        <ele>12.8</ele>
        <time>2021-05-15T17:09:08Z</time>
      </trkpt>
      <trkpt lat="41.1419680" lon="-8.6019700">
        <ele>12.8</ele>
        <time>2021-05-15T17:09:09Z</time>
      </trkpt>
      <trkpt lat="41.1419700" lon="-8.6019820">
        <ele>12.9</ele>
        <time>2021-05-15T17:09:10Z</time>
      </trkpt>
      <trkpt lat="41.1419630" lon="-8.6020010">
        <ele>12.9</ele>
        <time>2021-05-15T17:09:11Z</time>
      </trkpt>
      <trkpt lat="41.1419590" lon="-8.6020150">
        <ele>12.9</ele>
        <time>2021-05-15T17:09:12Z</time>
      </trkpt>
      <trkpt lat="41.1419530" lon="-8.6020340">
        <ele>12.9</ele>
        <time>2021-05-15T17:09:13Z</time>
      </trkpt>
      <trkpt lat="41.1419480" lon="-8.6020550">
        <ele>12.9</ele>
        <time>2021-05-15T17:09:14Z</time>
      </trkpt>
      <trkpt lat="41.1419420" lon="-8.6020750">
        <ele>12.9</ele>
        <time>2021-05-15T17:09:15Z</time>
      </trkpt>
      <trkpt lat="41.1419450" lon="-8.6020970">
        <ele>13.0</ele>
        <time>2021-05-15T17:09:16Z</time>
      </trkpt>
      <trkpt lat="41.1419390" lon="-8.6021270">
        <ele>13.0</ele>
        <time>2021-05-15T17:09:17Z</time>
      </trkpt>
      <trkpt lat="41.1419370" lon="-8.6021360">
        <ele>13.0</ele>
        <time>2021-05-15T17:09:18Z</time>
      </trkpt>
      <trkpt lat="41.1419350" lon="-8.6021460">
        <ele>13.0</ele>
        <time>2021-05-15T17:09:19Z</time>
      </trkpt>
      <trkpt lat="41.1419340" lon="-8.6021730">
        <ele>13.0</ele>
        <time>2021-05-15T17:09:20Z</time>
      </trkpt>
      <trkpt lat="41.1419330" lon="-8.6021850">
        <ele>13.0</ele>
        <time>2021-05-15T17:09:21Z</time>
      </trkpt>
      <trkpt lat="41.1419330" lon="-8.6021960">
        <ele>13.0</ele>
        <time>2021-05-15T17:09:22Z</time>
      </trkpt>
      <trkpt lat="41.1419270" lon="-8.6022150">
        <ele>13.0</ele>
        <time>2021-05-15T17:09:23Z</time>
      </trkpt>
      <trkpt lat="41.1419200" lon="-8.6022320">
        <ele>13.1</ele>
        <time>2021-05-15T17:09:24Z</time>
      </trkpt>
      <trkpt lat="41.1419170" lon="-8.6022620">
        <ele>13.1</ele>
        <time>2021-05-15T17:09:25Z</time>
      </trkpt>
      <trkpt lat="41.1419160" lon="-8.6022730">
        <ele>13.1</ele>
        <time>2021-05-15T17:09:26Z</time>
      </trkpt>
      <trkpt lat="41.1419160" lon="-8.6022830">
        <ele>13.1</ele>
        <time>2021-05-15T17:09:27Z</time>
      </trkpt>
      <trkpt lat="41.1419120" lon="-8.6022990">
        <ele>13.1</ele>
        <time>2021-05-15T17:09:28Z</time>
      </trkpt>
      <trkpt lat="41.1419070" lon="-8.6023190">
        <ele>13.1</ele>
        <time>2021-05-15T17:09:29Z</time>
      </trkpt>
      <trkpt lat="41.1419030" lon="-8.6023310">
        <ele>13.1</ele>
        <time>2021-05-15T17:09:30Z</time>
      </trkpt>
      <trkpt lat="41.1419030" lon="-8.6023510">
        <ele>13.1</ele>
        <time>2021-05-15T17:09:31Z</time>
      </trkpt>
      <trkpt lat="41.1418990" lon="-8.6023630">
        <ele>13.2</ele>
        <time>2021-05-15T17:09:32Z</time>
      </trkpt>
      <trkpt lat="41.1418980" lon="-8.6023990">
        <ele>13.2</ele>
        <time>2021-05-15T17:09:33Z</time>
      </trkpt>
      <trkpt lat="41.1418970" lon="-8.6024100">
        <ele>13.2</ele>
        <time>2021-05-15T17:09:34Z</time>
      </trkpt>
      <trkpt lat="41.1418950" lon="-8.6024220">
        <ele>13.2</ele>
        <time>2021-05-15T17:09:35Z</time>
      </trkpt>
      <trkpt lat="41.1418920" lon="-8.6024590">
        <ele>13.2</ele>
        <time>2021-05-15T17:09:36Z</time>
      </trkpt>
      <trkpt lat="41.1418900" lon="-8.6024730">
        <ele>13.2</ele>
        <time>2021-05-15T17:09:37Z</time>
      </trkpt>
      <trkpt lat="41.1418830" lon="-8.6024930">
        <ele>13.3</ele>
        <time>2021-05-15T17:09:38Z</time>
      </trkpt>
      <trkpt lat="41.1418820" lon="-8.6025150">
        <ele>13.3</ele>
        <time>2021-05-15T17:09:39Z</time>
      </trkpt>
      <trkpt lat="41.1418720" lon="-8.6025320">
        <ele>13.3</ele>
        <time>2021-05-15T17:09:40Z</time>
      </trkpt>
      <trkpt lat="41.1418710" lon="-8.6025470">
        <ele>13.3</ele>
        <time>2021-05-15T17:09:41Z</time>
      </trkpt>
      <trkpt lat="41.1418740" lon="-8.6025610">
        <ele>13.3</ele>
        <time>2021-05-15T17:09:42Z</time>
      </trkpt>
      <trkpt lat="41.1418730" lon="-8.6025820">
        <ele>13.3</ele>
        <time>2021-05-15T17:09:43Z</time>
      </trkpt>
      <trkpt lat="41.1418710" lon="-8.6026020">
        <ele>13.3</ele>
        <time>2021-05-15T17:09:44Z</time>
      </trkpt>
      <trkpt lat="41.1418660" lon="-8.6026360">
        <ele>13.4</ele>
        <time>2021-05-15T17:09:45Z</time>
      </trkpt>
      <trkpt lat="41.1418650" lon="-8.6026470">
        <ele>13.4</ele>
        <time>2021-05-15T17:09:46Z</time>
      </trkpt>
      <trkpt lat="41.1418630" lon="-8.6026590">
        <ele>13.4</ele>
        <time>2021-05-15T17:09:47Z</time>
      </trkpt>
      <trkpt lat="41.1418620" lon="-8.6026880">
        <ele>13.4</ele>
        <time>2021-05-15T17:09:48Z</time>
      </trkpt>
      <trkpt lat="41.1418620" lon="-8.6026990">
        <ele>13.4</ele>
        <time>2021-05-15T17:09:49Z</time>
      </trkpt>
      <trkpt lat="41.1418610" lon="-8.6027110">
        <ele>13.4</ele>
        <time>2021-05-15T17:09:50Z</time>
      </trkpt>
      <trkpt lat="41.1418530" lon="-8.6027380">
        <ele>13.4</ele>
        <time>2021-05-15T17:09:51Z</time>
      </trkpt>
      <trkpt lat="41.1418510" lon="-8.6027490">
        <ele>13.4</ele>
        <time>2021-05-15T17:09:52Z</time>
      </trkpt>
      <trkpt lat="41.1418490" lon="-8.6027600">
        <ele>13.5</ele>
        <time>2021-05-15T17:09:53Z</time>
      </trkpt>
      <trkpt lat="41.1418490" lon="-8.6027750">
        <ele>13.5</ele>
        <time>2021-05-15T17:09:54Z</time>
      </trkpt>
      <trkpt lat="41.1418480" lon="-8.6028050">
        <ele>13.5</ele>
        <time>2021-05-15T17:09:55Z</time>
      </trkpt>
      <trkpt lat="41.1418490" lon="-8.6028250">
        <ele>13.5</ele>
        <time>2021-05-15T17:09:56Z</time>
      </trkpt>
      <trkpt lat="41.1418460" lon="-8.6028470">
        <ele>13.5</ele>
        <time>2021-05-15T17:09:57Z</time>
      </trkpt>
      <trkpt lat="41.1418430" lon="-8.6028650">
        <ele>13.5</ele>
        <time>2021-05-15T17:09:58Z</time>
      </trkpt>
      <trkpt lat="41.1418430" lon="-8.6028860">
        <ele>13.5</ele>
        <time>2021-05-15T17:09:59Z</time>
      </trkpt>
      <trkpt lat="41.1418410" lon="-8.6029080">
        <ele>13.5</ele>
        <time>2021-05-15T17:10:00Z</time>
      </trkpt>
      <trkpt lat="41.1418360" lon="-8.6029250">
        <ele>13.6</ele>
        <time>2021-05-15T17:10:01Z</time>
      </trkpt>
      <trkpt lat="41.1418330" lon="-8.6029430">
        <ele>13.6</ele>
        <time>2021-05-15T17:10:02Z</time>
      </trkpt>
      <trkpt lat="41.1418320" lon="-8.6029600">
        <ele>13.6</ele>
        <time>2021-05-15T17:10:03Z</time>
      </trkpt>
      <trkpt lat="41.1418280" lon="-8.6029790">
        <ele>13.6</ele>
        <time>2021-05-15T17:10:04Z</time>
      </trkpt>
      <trkpt lat="41.1418230" lon="-8.6029990">
        <ele>13.6</ele>
        <time>2021-05-15T17:10:05Z</time>
      </trkpt>
      <trkpt lat="41.1418200" lon="-8.6030300">
        <ele>13.6</ele>
        <time>2021-05-15T17:10:06Z</time>
      </trkpt>
      <trkpt lat="41.1418200" lon="-8.6030400">
        <ele>13.6</ele>
        <time>2021-05-15T17:10:07Z</time>
      </trkpt>
      <trkpt lat="41.1418190" lon="-8.6030510">
        <ele>13.6</ele>
        <time>2021-05-15T17:10:08Z</time>
      </trkpt>
      <trkpt lat="41.1418100" lon="-8.6030670">
        <ele>13.7</ele>
        <time>2021-05-15T17:10:09Z</time>
      </trkpt>
      <trkpt lat="41.1418150" lon="-8.6030910">
        <ele>13.7</ele>
        <time>2021-05-15T17:10:10Z</time>
      </trkpt>
      <trkpt lat="41.1418150" lon="-8.6031110">
        <ele>13.7</ele>
        <time>2021-05-15T17:10:11Z</time>
      </trkpt>
      <trkpt lat="41.1418170" lon="-8.6031360">
        <ele>13.7</ele>
        <time>2021-05-15T17:10:12Z</time>
      </trkpt>
      <trkpt lat="41.1418110" lon="-8.6031560">
        <ele>13.7</ele>
        <time>2021-05-15T17:10:13Z</time>
      </trkpt>
      <trkpt lat="41.1418080" lon="-8.6031790">
        <ele>13.7</ele>
        <time>2021-05-15T17:10:14Z</time>
      </trkpt>
      <trkpt lat="41.1418030" lon="-8.6032110">
        <ele>13.8</ele>
        <time>2021-05-15T17:10:15Z</time>
      </trkpt>
      <trkpt lat="41.1418030" lon="-8.6032240">
        <ele>13.8</ele>
        <time>2021-05-15T17:10:16Z</time>
      </trkpt>
      <trkpt lat="41.1418020" lon="-8.6032370">
        <ele>13.8</ele>
        <time>2021-05-15T17:10:17Z</time>
      </trkpt>
      <trkpt lat="41.1417970" lon="-8.6032530">
        <ele>13.8</ele>
        <time>2021-05-15T17:10:18Z</time>
      </trkpt>
      <trkpt lat="41.1417990" lon="-8.6032670">
        <ele>13.8</ele>
        <time>2021-05-15T17:10:19Z</time>
      </trkpt>
      <trkpt lat="41.1418000" lon="-8.6032820">
        <ele>13.8</ele>
        <time>2021-05-15T17:10:20Z</time>
      </trkpt>
      <trkpt lat="41.1417950" lon="-8.6033070">
        <ele>13.8</ele>
        <time>2021-05-15T17:10:21Z</time>
      </trkpt>
      <trkpt lat="41.1417920" lon="-8.6033210">
        <ele>13.8</ele>
        <time>2021-05-15T17:10:22Z</time>
      </trkpt>
      <trkpt lat="41.1417900" lon="-8.6033340">
        <ele>13.8</ele>
        <time>2021-05-15T17:10:23Z</time>
      </trkpt>
      <trkpt lat="41.1417850" lon="-8.6033560">
        <ele>13.9</ele>
        <time>2021-05-15T17:10:24Z</time>
      </trkpt>
      <trkpt lat="41.1417830" lon="-8.6033720">
        <ele>13.9</ele>
        <time>2021-05-15T17:10:25Z</time>
      </trkpt>
      <trkpt lat="41.1417880" lon="-8.6033920">
        <ele>13.9</ele>
        <time>2021-05-15T17:10:26Z</time>
      </trkpt>
      <trkpt lat="41.1417850" lon="-8.6034080">
        <ele>13.9</ele>
        <time>2021-05-15T17:10:27Z</time>
      </trkpt>
      <trkpt lat="41.1417840" lon="-8.6034220">
        <ele>13.9</ele>
        <time>2021-05-15T17:10:28Z</time>
      </trkpt>
      <trkpt lat="41.1417800" lon="-8.6034390">
        <ele>13.9</ele>
        <time>2021-05-15T17:10:29Z</time>
      </trkpt>
      <trkpt lat="41.1417780" lon="-8.6034480">
        <ele>13.9</ele>
        <time>2021-05-15T17:10:30Z</time>
      </trkpt>
      <trkpt lat="41.1417760" lon="-8.6034710">
        <ele>13.9</ele>
        <time>2021-05-15T17:10:31Z</time>
      </trkpt>
      <trkpt lat="41.1417730" lon="-8.6034910">
        <ele>14.0</ele>
        <time>2021-05-15T17:10:32Z</time>
      </trkpt>
      <trkpt lat="41.1417660" lon="-8.6035160">
        <ele>14.0</ele>
        <time>2021-05-15T17:10:33Z</time>
      </trkpt>
      <trkpt lat="41.1417640" lon="-8.6035290">
        <ele>14.0</ele>
        <time>2021-05-15T17:10:34Z</time>
      </trkpt>
      <trkpt lat="41.1417610" lon="-8.6035410">
        <ele>14.0</ele>
        <time>2021-05-15T17:10:35Z</time>
      </trkpt>
      <trkpt lat="41.1417600" lon="-8.6035600">
        <ele>14.0</ele>
        <time>2021-05-15T17:10:36Z</time>
      </trkpt>
      <trkpt lat="41.1417590" lon="-8.6035780">
        <ele>14.0</ele>
        <time>2021-05-15T17:10:37Z</time>
      </trkpt>
      <trkpt lat="41.1417560" lon="-8.6035960">
        <ele>14.0</ele>
        <time>2021-05-15T17:10:38Z</time>
      </trkpt>
      <trkpt lat="41.1417570" lon="-8.6036150">
        <ele>14.0</ele>
        <time>2021-05-15T17:10:39Z</time>
      </trkpt>
      <trkpt lat="41.1417530" lon="-8.6036310">
        <ele>14.0</ele>
        <time>2021-05-15T17:10:40Z</time>
      </trkpt>
      <trkpt lat="41.1417480" lon="-8.6036550">
        <ele>14.1</ele>
        <time>2021-05-15T17:10:41Z</time>
      </trkpt>
      <trkpt lat="41.1417480" lon="-8.6036770">
        <ele>14.1</ele>
        <time>2021-05-15T17:10:42Z</time>
      </trkpt>
      <trkpt lat="41.1417470" lon="-8.6037010">
        <ele>14.1</ele>
        <time>2021-05-15T17:10:43Z</time>
      </trkpt>
      <trkpt lat="41.1417460" lon="-8.6037150">
        <ele>14.1</ele>
        <time>2021-05-15T17:10:44Z</time>
      </trkpt>
      <trkpt lat="41.1417450" lon="-8.6037290">
        <ele>14.1</ele>
        <time>2021-05-15T17:10:45Z</time>
      </trkpt>
      <trkpt lat="41.1417430" lon="-8.6037440">
        <ele>14.1</ele>
        <time>2021-05-15T17:10:46Z</time>
      </trkpt>
      <trkpt lat="41.1417470" lon="-8.6037660">
        <ele>14.1</ele>
        <time>2021-05-15T17:10:47Z</time>
      </trkpt>
      <trkpt lat="41.1417440" lon="-8.6037870">
        <ele>14.1</ele>
        <time>2021-05-15T17:10:48Z</time>
      </trkpt>
      <trkpt lat="41.1417400" lon="-8.6038160">
        <ele>14.1</ele>
        <time>2021-05-15T17:10:49Z</time>
      </trkpt>
      <trkpt lat="41.1417370" lon="-8.6038270">
        <ele>14.1</ele>
        <time>2021-05-15T17:10:50Z</time>
      </trkpt>
      <trkpt lat="41.1417350" lon="-8.6038380">
        <ele>14.1</ele>
        <time>2021-05-15T17:10:51Z</time>
      </trkpt>
      <trkpt lat="41.1417310" lon="-8.6038550">
        <ele>14.1</ele>
        <time>2021-05-15T17:10:52Z</time>
      </trkpt>
      <trkpt lat="41.1417300" lon="-8.6038780">
        <ele>14.1</ele>
        <time>2021-05-15T17:10:53Z</time>
      </trkpt>
      <trkpt lat="41.1417290" lon="-8.6038970">
        <ele>14.1</ele>
        <time>2021-05-15T17:10:54Z</time>
      </trkpt>
      <trkpt lat="41.1417290" lon="-8.6039170">
        <ele>14.1</ele>
        <time>2021-05-15T17:10:55Z</time>
      </trkpt>
      <trkpt lat="41.1417290" lon="-8.6039370">
        <ele>14.1</ele>
        <time>2021-05-15T17:10:56Z</time>
      </trkpt>
      <trkpt lat="41.1417310" lon="-8.6039530">
        <ele>14.1</ele>
        <time>2021-05-15T17:10:57Z</time>
      </trkpt>
      <trkpt lat="41.1417380" lon="-8.6039710">
        <ele>14.1</ele>
        <time>2021-05-15T17:10:58Z</time>
      </trkpt>
      <trkpt lat="41.1417410" lon="-8.6039890">
        <ele>14.1</ele>
        <time>2021-05-15T17:10:59Z</time>
      </trkpt>
      <trkpt lat="41.1417380" lon="-8.6040120">
        <ele>14.1</ele>
        <time>2021-05-15T17:11:00Z</time>
      </trkpt>
      <trkpt lat="41.1417350" lon="-8.6040280">
        <ele>14.1</ele>
        <time>2021-05-15T17:11:01Z</time>
      </trkpt>
      <trkpt lat="41.1417360" lon="-8.6040440">
        <ele>14.1</ele>
        <time>2021-05-15T17:11:02Z</time>
      </trkpt>
      <trkpt lat="41.1417380" lon="-8.6040660">
        <ele>14.1</ele>
        <time>2021-05-15T17:11:03Z</time>
      </trkpt>
      <trkpt lat="41.1417360" lon="-8.6040920">
        <ele>14.1</ele>
        <time>2021-05-15T17:11:04Z</time>
      </trkpt>
      <trkpt lat="41.1417390" lon="-8.6041060">
        <ele>14.1</ele>
        <time>2021-05-15T17:11:05Z</time>
      </trkpt>
      <trkpt lat="41.1417340" lon="-8.6041240">
        <ele>14.1</ele>
        <time>2021-05-15T17:11:06Z</time>
      </trkpt>
      <trkpt lat="41.1417330" lon="-8.6041440">
        <ele>14.1</ele>
        <time>2021-05-15T17:11:07Z</time>
      </trkpt>
      <trkpt lat="41.1417330" lon="-8.6041740">
        <ele>14.1</ele>
        <time>2021-05-15T17:11:08Z</time>
      </trkpt>
      <trkpt lat="41.1417340" lon="-8.6041860">
        <ele>14.1</ele>
        <time>2021-05-15T17:11:09Z</time>
      </trkpt>
      <trkpt lat="41.1417340" lon="-8.6041980">
        <ele>14.1</ele>
        <time>2021-05-15T17:11:10Z</time>
      </trkpt>
      <trkpt lat="41.1417420" lon="-8.6042230">
        <ele>14.1</ele>
        <time>2021-05-15T17:11:11Z</time>
      </trkpt>
      <trkpt lat="41.1417420" lon="-8.6042360">
        <ele>14.1</ele>
        <time>2021-05-15T17:11:12Z</time>
      </trkpt>
      <trkpt lat="41.1417430" lon="-8.6042490">
        <ele>14.1</ele>
        <time>2021-05-15T17:11:13Z</time>
      </trkpt>
      <trkpt lat="41.1417440" lon="-8.6042800">
        <ele>14.1</ele>
        <time>2021-05-15T17:11:14Z</time>
      </trkpt>
      <trkpt lat="41.1417440" lon="-8.6042920">
        <ele>14.1</ele>
        <time>2021-05-15T17:11:15Z</time>
      </trkpt>
      <trkpt lat="41.1417450" lon="-8.6043050">
        <ele>14.1</ele>
        <time>2021-05-15T17:11:16Z</time>
      </trkpt>
      <trkpt lat="41.1417520" lon="-8.6043300">
        <ele>14.1</ele>
        <time>2021-05-15T17:11:17Z</time>
      </trkpt>
      <trkpt lat="41.1417550" lon="-8.6043440">
        <ele>14.1</ele>
        <time>2021-05-15T17:11:18Z</time>
      </trkpt>
      <trkpt lat="41.1417570" lon="-8.6043740">
        <ele>14.1</ele>
        <time>2021-05-15T17:11:19Z</time>
      </trkpt>
      <trkpt lat="41.1417590" lon="-8.6043850">
        <ele>14.1</ele>
        <time>2021-05-15T17:11:20Z</time>
      </trkpt>
      <trkpt lat="41.1417610" lon="-8.6043950">
        <ele>14.1</ele>
        <time>2021-05-15T17:11:21Z</time>
      </trkpt>
      <trkpt lat="41.1417590" lon="-8.6044090">
        <ele>14.1</ele>
        <time>2021-05-15T17:11:22Z</time>
      </trkpt>
      <trkpt lat="41.1417580" lon="-8.6044330">
        <ele>14.1</ele>
        <time>2021-05-15T17:11:23Z</time>
      </trkpt>
      <trkpt lat="41.1417610" lon="-8.6044480">
        <ele>14.1</ele>
        <time>2021-05-15T17:11:24Z</time>
      </trkpt>
      <trkpt lat="41.1417680" lon="-8.6044660">
        <ele>14.1</ele>
        <time>2021-05-15T17:11:25Z</time>
      </trkpt>
      <trkpt lat="41.1417680" lon="-8.6044890">
        <ele>14.1</ele>
        <time>2021-05-15T17:11:26Z</time>
      </trkpt>
      <trkpt lat="41.1417710" lon="-8.6045040">
        <ele>14.1</ele>
        <time>2021-05-15T17:11:27Z</time>
      </trkpt>
      <trkpt lat="41.1417740" lon="-8.6045220">
        <ele>14.1</ele>
        <time>2021-05-15T17:11:28Z</time>
      </trkpt>
      <trkpt lat="41.1417770" lon="-8.6045350">
        <ele>14.1</ele>
        <time>2021-05-15T17:11:29Z</time>
      </trkpt>
      <trkpt lat="41.1417780" lon="-8.6045490">
        <ele>14.1</ele>
        <time>2021-05-15T17:11:30Z</time>
      </trkpt>
      <trkpt lat="41.1417810" lon="-8.6045720">
        <ele>14.1</ele>
        <time>2021-05-15T17:11:31Z</time>
      </trkpt>
      <trkpt lat="41.1417830" lon="-8.6045870">
        <ele>14.1</ele>
        <time>2021-05-15T17:11:32Z</time>
      </trkpt>
      <trkpt lat="41.1417850" lon="-8.6046150">
        <ele>14.0</ele>
        <time>2021-05-15T17:11:33Z</time>
      </trkpt>
      <trkpt lat="41.1417880" lon="-8.6046250">
        <ele>14.0</ele>
        <time>2021-05-15T17:11:34Z</time>
      </trkpt>
      <trkpt lat="41.1417900" lon="-8.6046360">
        <ele>14.0</ele>
        <time>2021-05-15T17:11:35Z</time>
      </trkpt>
      <trkpt lat="41.1417940" lon="-8.6046580">
        <ele>14.0</ele>
        <time>2021-05-15T17:11:36Z</time>
      </trkpt>
      <trkpt lat="41.1417980" lon="-8.6046750">
        <ele>14.0</ele>
        <time>2021-05-15T17:11:37Z</time>
      </trkpt>
      <trkpt lat="41.1417960" lon="-8.6046930">
        <ele>14.0</ele>
        <time>2021-05-15T17:11:38Z</time>
      </trkpt>
      <trkpt lat="41.1417940" lon="-8.6047160">
        <ele>14.0</ele>
        <time>2021-05-15T17:11:39Z</time>
      </trkpt>
      <trkpt lat="41.1418000" lon="-8.6047310">
        <ele>14.0</ele>
        <time>2021-05-15T17:11:40Z</time>
      </trkpt>
      <trkpt lat="41.1418010" lon="-8.6047510">
        <ele>14.0</ele>
        <time>2021-05-15T17:11:41Z</time>
      </trkpt>
      <trkpt lat="41.1418000" lon="-8.6047810">
        <ele>14.0</ele>
        <time>2021-05-15T17:11:42Z</time>
      </trkpt>
      <trkpt lat="41.1417990" lon="-8.6047970">
        <ele>14.0</ele>
        <time>2021-05-15T17:11:43Z</time>
      </trkpt>
      <trkpt lat="41.1417990" lon="-8.6048140">
        <ele>14.0</ele>
        <time>2021-05-15T17:11:44Z</time>
      </trkpt>
      <trkpt lat="41.1418060" lon="-8.6048370">
        <ele>14.0</ele>
        <time>2021-05-15T17:11:45Z</time>
      </trkpt>
      <trkpt lat="41.1418090" lon="-8.6048590">
        <ele>14.0</ele>
        <time>2021-05-15T17:11:46Z</time>
      </trkpt>
      <trkpt lat="41.1418050" lon="-8.6048800">
        <ele>14.0</ele>
        <time>2021-05-15T17:11:47Z</time>
      </trkpt>
      <trkpt lat="41.1418060" lon="-8.6049050">
        <ele>14.0</ele>
        <time>2021-05-15T17:11:48Z</time>
      </trkpt>
      <trkpt lat="41.1418030" lon="-8.6049210">
        <ele>14.0</ele>
        <time>2021-05-15T17:11:49Z</time>
      </trkpt>
      <trkpt lat="41.1417990" lon="-8.6049390">
        <ele>14.0</ele>
        <time>2021-05-15T17:11:50Z</time>
      </trkpt>
      <trkpt lat="41.1418020" lon="-8.6049510">
        <ele>14.0</ele>
        <time>2021-05-15T17:11:51Z</time>
      </trkpt>
      <trkpt lat="41.1417960" lon="-8.6049690">
        <ele>14.0</ele>
        <time>2021-05-15T17:11:52Z</time>
      </trkpt>
      <trkpt lat="41.1417940" lon="-8.6049900">
        <ele>14.0</ele>
        <time>2021-05-15T17:11:53Z</time>
      </trkpt>
      <trkpt lat="41.1417960" lon="-8.6050040">
        <ele>14.0</ele>
        <time>2021-05-15T17:11:54Z</time>
      </trkpt>
      <trkpt lat="41.1417950" lon="-8.6050320">
        <ele>14.0</ele>
        <time>2021-05-15T17:11:55Z</time>
      </trkpt>
      <trkpt lat="41.1417960" lon="-8.6050540">
        <ele>14.0</ele>
        <time>2021-05-15T17:11:56Z</time>
      </trkpt>
      <trkpt lat="41.1417940" lon="-8.6050740">
        <ele>14.0</ele>
        <time>2021-05-15T17:11:57Z</time>
      </trkpt>
      <trkpt lat="41.1417960" lon="-8.6050930">
        <ele>14.0</ele>
        <time>2021-05-15T17:11:58Z</time>
      </trkpt>
      <trkpt lat="41.1417960" lon="-8.6051110">
        <ele>14.0</ele>
        <time>2021-05-15T17:11:59Z</time>
      </trkpt>
      <trkpt lat="41.1417950" lon="-8.6051270">
        <ele>14.0</ele>
        <time>2021-05-15T17:12:00Z</time>
      </trkpt>
      <trkpt lat="41.1417920" lon="-8.6051490">
        <ele>14.0</ele>
        <time>2021-05-15T17:12:01Z</time>
      </trkpt>
      <trkpt lat="41.1417900" lon="-8.6051770">
        <ele>14.0</ele>
        <time>2021-05-15T17:12:02Z</time>
      </trkpt>
      <trkpt lat="41.1417860" lon="-8.6051880">
        <ele>14.0</ele>
        <time>2021-05-15T17:12:03Z</time>
      </trkpt>
      <trkpt lat="41.1417830" lon="-8.6051990">
        <ele>14.0</ele>
        <time>2021-05-15T17:12:04Z</time>
      </trkpt>
      <trkpt lat="41.1417750" lon="-8.6052230">
        <ele>14.0</ele>
        <time>2021-05-15T17:12:05Z</time>
      </trkpt>
      <trkpt lat="41.1417730" lon="-8.6052380">
        <ele>14.0</ele>
        <time>2021-05-15T17:12:06Z</time>
      </trkpt>
      <trkpt lat="41.1417670" lon="-8.6052730">
        <ele>14.1</ele>
        <time>2021-05-15T17:12:07Z</time>
      </trkpt>
      <trkpt lat="41.1417630" lon="-8.6052830">
        <ele>14.1</ele>
        <time>2021-05-15T17:12:08Z</time>
      </trkpt>
      <trkpt lat="41.1417600" lon="-8.6052940">
        <ele>14.1</ele>
        <time>2021-05-15T17:12:09Z</time>
      </trkpt>
      <trkpt lat="41.1417590" lon="-8.6053150">
        <ele>14.1</ele>
        <time>2021-05-15T17:12:10Z</time>
      </trkpt>
      <trkpt lat="41.1417520" lon="-8.6053310">
        <ele>14.1</ele>
        <time>2021-05-15T17:12:11Z</time>
      </trkpt>
      <trkpt lat="41.1417520" lon="-8.6053470">
        <ele>14.1</ele>
        <time>2021-05-15T17:12:12Z</time>
      </trkpt>
      <trkpt lat="41.1417460" lon="-8.6053660">
        <ele>14.1</ele>
        <time>2021-05-15T17:12:13Z</time>
      </trkpt>
      <trkpt lat="41.1417430" lon="-8.6053950">
        <ele>14.1</ele>
        <time>2021-05-15T17:12:14Z</time>
      </trkpt>
      <trkpt lat="41.1417400" lon="-8.6054060">
        <ele>14.1</ele>
        <time>2021-05-15T17:12:15Z</time>
      </trkpt>
      <trkpt lat="41.1417380" lon="-8.6054170">
        <ele>14.1</ele>
        <time>2021-05-15T17:12:16Z</time>
      </trkpt>
      <trkpt lat="41.1417330" lon="-8.6054360">
        <ele>14.1</ele>
        <time>2021-05-15T17:12:17Z</time>
      </trkpt>
      <trkpt lat="41.1417340" lon="-8.6054580">
        <ele>14.1</ele>
        <time>2021-05-15T17:12:18Z</time>
      </trkpt>
      <trkpt lat="41.1417340" lon="-8.6054770">
        <ele>14.1</ele>
        <time>2021-05-15T17:12:19Z</time>
      </trkpt>
      <trkpt lat="41.1417300" lon="-8.6054990">
        <ele>14.1</ele>
        <time>2021-05-15T17:12:20Z</time>
      </trkpt>
      <trkpt lat="41.1417260" lon="-8.6055130">
        <ele>14.1</ele>
        <time>2021-05-15T17:12:21Z</time>
      </trkpt>
      <trkpt lat="41.1417230" lon="-8.6055320">
        <ele>14.1</ele>
        <time>2021-05-15T17:12:22Z</time>
      </trkpt>
      <trkpt lat="41.1417220" lon="-8.6055460">
        <ele>14.1</ele>
        <time>2021-05-15T17:12:23Z</time>
      </trkpt>
      <trkpt lat="41.1417160" lon="-8.6055720">
        <ele>14.1</ele>
        <time>2021-05-15T17:12:24Z</time>
      </trkpt>
      <trkpt lat="41.1417130" lon="-8.6055860">
        <ele>14.1</ele>
        <time>2021-05-15T17:12:25Z</time>
      </trkpt>
      <trkpt lat="41.1417100" lon="-8.6055990">
        <ele>14.1</ele>
        <time>2021-05-15T17:12:26Z</time>
      </trkpt>
      <trkpt lat="41.1417020" lon="-8.6056190">
        <ele>14.1</ele>
        <time>2021-05-15T17:12:27Z</time>
      </trkpt>
      <trkpt lat="41.1417000" lon="-8.6056410">
        <ele>14.1</ele>
        <time>2021-05-15T17:12:28Z</time>
      </trkpt>
      <trkpt lat="41.1416910" lon="-8.6056580">
        <ele>14.1</ele>
        <time>2021-05-15T17:12:29Z</time>
      </trkpt>
      <trkpt lat="41.1416930" lon="-8.6056880">
        <ele>14.1</ele>
        <time>2021-05-15T17:12:30Z</time>
      </trkpt>
      <trkpt lat="41.1416890" lon="-8.6057050">
        <ele>14.1</ele>
        <time>2021-05-15T17:12:31Z</time>
      </trkpt>
      <trkpt lat="41.1416830" lon="-8.6057230">
        <ele>14.1</ele>
        <time>2021-05-15T17:12:32Z</time>
      </trkpt>
      <trkpt lat="41.1416800" lon="-8.6057320">
        <ele>14.1</ele>
        <time>2021-05-15T17:12:33Z</time>
      </trkpt>
      <trkpt lat="41.1416760" lon="-8.6057450">
        <ele>14.1</ele>
        <time>2021-05-15T17:12:34Z</time>
      </trkpt>
      <trkpt lat="41.1416730" lon="-8.6057660">
        <ele>14.1</ele>
        <time>2021-05-15T17:12:35Z</time>
      </trkpt>
      <trkpt lat="41.1416670" lon="-8.6057820">
        <ele>14.1</ele>
        <time>2021-05-15T17:12:36Z</time>
      </trkpt>
      <trkpt lat="41.1416670" lon="-8.6058070">
        <ele>14.1</ele>
        <time>2021-05-15T17:12:37Z</time>
      </trkpt>
      <trkpt lat="41.1416590" lon="-8.6058300">
        <ele>14.2</ele>
        <time>2021-05-15T17:12:38Z</time>
      </trkpt>
      <trkpt lat="41.1416500" lon="-8.6058520">
        <ele>14.2</ele>
        <time>2021-05-15T17:12:40Z</time>
      </trkpt>
      <trkpt lat="41.1416440" lon="-8.6058680">
        <ele>14.2</ele>
        <time>2021-05-15T17:12:41Z</time>
      </trkpt>
      <trkpt lat="41.1416400" lon="-8.6058860">
        <ele>14.2</ele>
        <time>2021-05-15T17:12:42Z</time>
      </trkpt>
      <trkpt lat="41.1416350" lon="-8.6059100">
        <ele>14.2</ele>
        <time>2021-05-15T17:12:43Z</time>
      </trkpt>
      <trkpt lat="41.1416300" lon="-8.6059230">
        <ele>14.2</ele>
        <time>2021-05-15T17:12:44Z</time>
      </trkpt>
      <trkpt lat="41.1416260" lon="-8.6059370">
        <ele>14.2</ele>
        <time>2021-05-15T17:12:45Z</time>
      </trkpt>
      <trkpt lat="41.1416200" lon="-8.6059560">
        <ele>14.2</ele>
        <time>2021-05-15T17:12:46Z</time>
      </trkpt>
      <trkpt lat="41.1416160" lon="-8.6059770">
        <ele>14.2</ele>
        <time>2021-05-15T17:12:47Z</time>
      </trkpt>
      <trkpt lat="41.1416130" lon="-8.6059950">
        <ele>14.2</ele>
        <time>2021-05-15T17:12:48Z</time>
      </trkpt>
      <trkpt lat="41.1416090" lon="-8.6060140">
        <ele>14.2</ele>
        <time>2021-05-15T17:12:49Z</time>
      </trkpt>
      <trkpt lat="41.1416040" lon="-8.6060310">
        <ele>14.2</ele>
        <time>2021-05-15T17:12:50Z</time>
      </trkpt>
      <trkpt lat="41.1416030" lon="-8.6060510">
        <ele>14.2</ele>
        <time>2021-05-15T17:12:51Z</time>
      </trkpt>
      <trkpt lat="41.1415950" lon="-8.6060810">
        <ele>14.2</ele>
        <time>2021-05-15T17:12:52Z</time>
      </trkpt>
      <trkpt lat="41.1415930" lon="-8.6060930">
        <ele>14.2</ele>
        <time>2021-05-15T17:12:53Z</time>
      </trkpt>
      <trkpt lat="41.1415920" lon="-8.6061040">
        <ele>14.2</ele>
        <time>2021-05-15T17:12:54Z</time>
      </trkpt>
      <trkpt lat="41.1415850" lon="-8.6061330">
        <ele>14.2</ele>
        <time>2021-05-15T17:12:55Z</time>
      </trkpt>
      <trkpt lat="41.1415830" lon="-8.6061450">
        <ele>14.2</ele>
        <time>2021-05-15T17:12:56Z</time>
      </trkpt>
      <trkpt lat="41.1415820" lon="-8.6061570">
        <ele>14.2</ele>
        <time>2021-05-15T17:12:57Z</time>
      </trkpt>
      <trkpt lat="41.1415770" lon="-8.6061780">
        <ele>14.2</ele>
        <time>2021-05-15T17:12:58Z</time>
      </trkpt>
      <trkpt lat="41.1415750" lon="-8.6061960">
        <ele>14.2</ele>
        <time>2021-05-15T17:12:59Z</time>
      </trkpt>
      <trkpt lat="41.1415700" lon="-8.6062150">
        <ele>14.2</ele>
        <time>2021-05-15T17:13:00Z</time>
      </trkpt>
      <trkpt lat="41.1415670" lon="-8.6062350">
        <ele>14.2</ele>
        <time>2021-05-15T17:13:01Z</time>
      </trkpt>
      <trkpt lat="41.1415590" lon="-8.6062540">
        <ele>14.2</ele>
        <time>2021-05-15T17:13:02Z</time>
      </trkpt>
      <trkpt lat="41.1415560" lon="-8.6062710">
        <ele>14.2</ele>
        <time>2021-05-15T17:13:03Z</time>
      </trkpt>
      <trkpt lat="41.1415530" lon="-8.6062960">
        <ele>14.2</ele>
        <time>2021-05-15T17:13:04Z</time>
      </trkpt>
      <trkpt lat="41.1415490" lon="-8.6063060">
        <ele>14.2</ele>
        <time>2021-05-15T17:13:05Z</time>
      </trkpt>
      <trkpt lat="41.1415460" lon="-8.6063170">
        <ele>14.2</ele>
        <time>2021-05-15T17:13:06Z</time>
      </trkpt>
      <trkpt lat="41.1415400" lon="-8.6063370">
        <ele>14.2</ele>
        <time>2021-05-15T17:13:07Z</time>
      </trkpt>
      <trkpt lat="41.1415360" lon="-8.6063500">
        <ele>14.2</ele>
        <time>2021-05-15T17:13:08Z</time>
      </trkpt>
      <trkpt lat="41.1415320" lon="-8.6063640">
        <ele>14.2</ele>
        <time>2021-05-15T17:13:09Z</time>
      </trkpt>
      <trkpt lat="41.1415250" lon="-8.6063930">
        <ele>14.2</ele>
        <time>2021-05-15T17:13:10Z</time>
      </trkpt>
      <trkpt lat="41.1415250" lon="-8.6064060">
        <ele>14.2</ele>
        <time>2021-05-15T17:13:11Z</time>
      </trkpt>
      <trkpt lat="41.1415240" lon="-8.6064180">
        <ele>14.2</ele>
        <time>2021-05-15T17:13:12Z</time>
      </trkpt>
      <trkpt lat="41.1415140" lon="-8.6064600">
        <ele>14.2</ele>
        <time>2021-05-15T17:13:13Z</time>
      </trkpt>
      <trkpt lat="41.1415110" lon="-8.6064690">
        <ele>14.2</ele>
        <time>2021-05-15T17:13:14Z</time>
      </trkpt>
      <trkpt lat="41.1415080" lon="-8.6064870">
        <ele>14.2</ele>
        <time>2021-05-15T17:13:15Z</time>
      </trkpt>
      <trkpt lat="41.1415040" lon="-8.6065080">
        <ele>14.2</ele>
        <time>2021-05-15T17:13:16Z</time>
      </trkpt>
      <trkpt lat="41.1414960" lon="-8.6065270">
        <ele>14.2</ele>
        <time>2021-05-15T17:13:17Z</time>
      </trkpt>
      <trkpt lat="41.1414840" lon="-8.6065370">
        <ele>14.2</ele>
        <time>2021-05-15T17:13:18Z</time>
      </trkpt>
      <trkpt lat="41.1414810" lon="-8.6065580">
        <ele>14.2</ele>
        <time>2021-05-15T17:13:19Z</time>
      </trkpt>
      <trkpt lat="41.1414870" lon="-8.6065770">
        <ele>14.2</ele>
        <time>2021-05-15T17:13:20Z</time>
      </trkpt>
      <trkpt lat="41.1414800" lon="-8.6065990">
        <ele>14.2</ele>
        <time>2021-05-15T17:13:21Z</time>
      </trkpt>
      <trkpt lat="41.1414740" lon="-8.6066150">
        <ele>14.2</ele>
        <time>2021-05-15T17:13:22Z</time>
      </trkpt>
      <trkpt lat="41.1414720" lon="-8.6066520">
        <ele>14.2</ele>
        <time>2021-05-15T17:13:23Z</time>
      </trkpt>
      <trkpt lat="41.1414700" lon="-8.6066640">
        <ele>14.2</ele>
        <time>2021-05-15T17:13:24Z</time>
      </trkpt>
      <trkpt lat="41.1414610" lon="-8.6066920">
        <ele>14.2</ele>
        <time>2021-05-15T17:13:25Z</time>
      </trkpt>
      <trkpt lat="41.1414600" lon="-8.6067040">
        <ele>14.2</ele>
        <time>2021-05-15T17:13:26Z</time>
      </trkpt>
      <trkpt lat="41.1414580" lon="-8.6067150">
        <ele>14.2</ele>
        <time>2021-05-15T17:13:27Z</time>
      </trkpt>
      <trkpt lat="41.1414500" lon="-8.6067400">
        <ele>14.2</ele>
        <time>2021-05-15T17:13:28Z</time>
      </trkpt>
      <trkpt lat="41.1414470" lon="-8.6067510">
        <ele>14.2</ele>
        <time>2021-05-15T17:13:29Z</time>
      </trkpt>
      <trkpt lat="41.1414450" lon="-8.6067630">
        <ele>14.2</ele>
        <time>2021-05-15T17:13:30Z</time>
      </trkpt>
      <trkpt lat="41.1414400" lon="-8.6067800">
        <ele>14.2</ele>
        <time>2021-05-15T17:13:31Z</time>
      </trkpt>
      <trkpt lat="41.1414390" lon="-8.6067990">
        <ele>14.2</ele>
        <time>2021-05-15T17:13:32Z</time>
      </trkpt>
      <trkpt lat="41.1414280" lon="-8.6068210">
        <ele>14.2</ele>
        <time>2021-05-15T17:13:33Z</time>
      </trkpt>
      <trkpt lat="41.1414220" lon="-8.6068390">
        <ele>14.2</ele>
        <time>2021-05-15T17:13:34Z</time>
      </trkpt>
      <trkpt lat="41.1414220" lon="-8.6068650">
        <ele>14.2</ele>
        <time>2021-05-15T17:13:35Z</time>
      </trkpt>
      <trkpt lat="41.1414160" lon="-8.6068790">
        <ele>14.2</ele>
        <time>2021-05-15T17:13:36Z</time>
      </trkpt>
      <trkpt lat="41.1414070" lon="-8.6068960">
        <ele>14.2</ele>
        <time>2021-05-15T17:13:37Z</time>
      </trkpt>
      <trkpt lat="41.1414040" lon="-8.6069140">
        <ele>14.2</ele>
        <time>2021-05-15T17:13:38Z</time>
      </trkpt>
      <trkpt lat="41.1414010" lon="-8.6069280">
        <ele>14.2</ele>
        <time>2021-05-15T17:13:39Z</time>
      </trkpt>
      <trkpt lat="41.1413950" lon="-8.6069370">
        <ele>14.2</ele>
        <time>2021-05-15T17:13:40Z</time>
      </trkpt>
      <trkpt lat="41.1413940" lon="-8.6069530">
        <ele>14.2</ele>
        <time>2021-05-15T17:13:41Z</time>
      </trkpt>
      <trkpt lat="41.1413840" lon="-8.6069790">
        <ele>14.2</ele>
        <time>2021-05-15T17:13:42Z</time>
      </trkpt>
      <trkpt lat="41.1413810" lon="-8.6069900">
        <ele>14.3</ele>
        <time>2021-05-15T17:13:43Z</time>
      </trkpt>
      <trkpt lat="41.1413790" lon="-8.6070010">
        <ele>14.3</ele>
        <time>2021-05-15T17:13:44Z</time>
      </trkpt>
      <trkpt lat="41.1413740" lon="-8.6070160">
        <ele>14.3</ele>
        <time>2021-05-15T17:13:45Z</time>
      </trkpt>
      <trkpt lat="41.1413680" lon="-8.6070380">
        <ele>14.3</ele>
        <time>2021-05-15T17:13:46Z</time>
      </trkpt>
      <trkpt lat="41.1413640" lon="-8.6070640">
        <ele>14.3</ele>
        <time>2021-05-15T17:13:47Z</time>
      </trkpt>
      <trkpt lat="41.1413620" lon="-8.6070760">
        <ele>14.3</ele>
        <time>2021-05-15T17:13:48Z</time>
      </trkpt>
      <trkpt lat="41.1413610" lon="-8.6070880">
        <ele>14.3</ele>
        <time>2021-05-15T17:13:49Z</time>
      </trkpt>
      <trkpt lat="41.1413570" lon="-8.6071120">
        <ele>14.3</ele>
        <time>2021-05-15T17:13:50Z</time>
      </trkpt>
      <trkpt lat="41.1413530" lon="-8.6071330">
        <ele>14.3</ele>
        <time>2021-05-15T17:13:51Z</time>
      </trkpt>
      <trkpt lat="41.1413510" lon="-8.6071510">
        <ele>14.3</ele>
        <time>2021-05-15T17:13:52Z</time>
      </trkpt>
      <trkpt lat="41.1413470" lon="-8.6071720">
        <ele>14.3</ele>
        <time>2021-05-15T17:13:53Z</time>
      </trkpt>
      <trkpt lat="41.1413380" lon="-8.6071860">
        <ele>14.3</ele>
        <time>2021-05-15T17:13:54Z</time>
      </trkpt>
      <trkpt lat="41.1413370" lon="-8.6072130">
        <ele>14.3</ele>
        <time>2021-05-15T17:13:55Z</time>
      </trkpt>
      <trkpt lat="41.1413330" lon="-8.6072310">
        <ele>14.3</ele>
        <time>2021-05-15T17:13:56Z</time>
      </trkpt>
      <trkpt lat="41.1413340" lon="-8.6072490">
        <ele>14.3</ele>
        <time>2021-05-15T17:13:57Z</time>
      </trkpt>
      <trkpt lat="41.1413260" lon="-8.6072680">
        <ele>14.3</ele>
        <time>2021-05-15T17:13:58Z</time>
      </trkpt>
      <trkpt lat="41.1413280" lon="-8.6072910">
        <ele>14.3</ele>
        <time>2021-05-15T17:13:59Z</time>
      </trkpt>
      <trkpt lat="41.1413210" lon="-8.6073130">
        <ele>14.3</ele>
        <time>2021-05-15T17:14:00Z</time>
      </trkpt>
      <trkpt lat="41.1413140" lon="-8.6073300">
        <ele>14.3</ele>
        <time>2021-05-15T17:14:01Z</time>
      </trkpt>
      <trkpt lat="41.1413100" lon="-8.6073500">
        <ele>14.3</ele>
        <time>2021-05-15T17:14:02Z</time>
      </trkpt>
      <trkpt lat="41.1413020" lon="-8.6073680">
        <ele>14.3</ele>
        <time>2021-05-15T17:14:03Z</time>
      </trkpt>
      <trkpt lat="41.1413030" lon="-8.6073910">
        <ele>14.3</ele>
        <time>2021-05-15T17:14:04Z</time>
      </trkpt>
      <trkpt lat="41.1412950" lon="-8.6074090">
        <ele>14.3</ele>
        <time>2021-05-15T17:14:05Z</time>
      </trkpt>
      <trkpt lat="41.1412930" lon="-8.6074230">
        <ele>14.3</ele>
        <time>2021-05-15T17:14:06Z</time>
      </trkpt>
      <trkpt lat="41.1412860" lon="-8.6074430">
        <ele>14.4</ele>
        <time>2021-05-15T17:14:07Z</time>
      </trkpt>
      <trkpt lat="41.1412820" lon="-8.6074580">
        <ele>14.4</ele>
        <time>2021-05-15T17:14:08Z</time>
      </trkpt>
      <trkpt lat="41.1412770" lon="-8.6074800">
        <ele>14.4</ele>
        <time>2021-05-15T17:14:09Z</time>
      </trkpt>
      <trkpt lat="41.1412730" lon="-8.6074970">
        <ele>14.4</ele>
        <time>2021-05-15T17:14:10Z</time>
      </trkpt>
      <trkpt lat="41.1412700" lon="-8.6075150">
        <ele>14.4</ele>
        <time>2021-05-15T17:14:11Z</time>
      </trkpt>
      <trkpt lat="41.1412630" lon="-8.6075250">
        <ele>14.4</ele>
        <time>2021-05-15T17:14:12Z</time>
      </trkpt>
      <trkpt lat="41.1412580" lon="-8.6075450">
        <ele>14.4</ele>
        <time>2021-05-15T17:14:13Z</time>
      </trkpt>
      <trkpt lat="41.1412570" lon="-8.6075580">
        <ele>14.4</ele>
        <time>2021-05-15T17:14:14Z</time>
      </trkpt>
      <trkpt lat="41.1412520" lon="-8.6075870">
        <ele>14.4</ele>
        <time>2021-05-15T17:14:16Z</time>
      </trkpt>
      <trkpt lat="41.1412490" lon="-8.6076000">
        <ele>14.4</ele>
        <time>2021-05-15T17:14:17Z</time>
      </trkpt>
      <trkpt lat="41.1412460" lon="-8.6076200">
        <ele>14.4</ele>
        <time>2021-05-15T17:14:18Z</time>
      </trkpt>
      <trkpt lat="41.1412410" lon="-8.6076370">
        <ele>14.4</ele>
        <time>2021-05-15T17:14:19Z</time>
      </trkpt>
      <trkpt lat="41.1412390" lon="-8.6076570">
        <ele>14.4</ele>
        <time>2021-05-15T17:14:20Z</time>
      </trkpt>
      <trkpt lat="41.1412330" lon="-8.6076750">
        <ele>14.4</ele>
        <time>2021-05-15T17:14:21Z</time>
      </trkpt>
      <trkpt lat="41.1412330" lon="-8.6077060">
        <ele>14.4</ele>
        <time>2021-05-15T17:14:22Z</time>
      </trkpt>
      <trkpt lat="41.1412290" lon="-8.6077180">
        <ele>14.4</ele>
        <time>2021-05-15T17:14:23Z</time>
      </trkpt>
      <trkpt lat="41.1412260" lon="-8.6077300">
        <ele>14.4</ele>
        <time>2021-05-15T17:14:24Z</time>
      </trkpt>
      <trkpt lat="41.1412190" lon="-8.6077500">
        <ele>14.4</ele>
        <time>2021-05-15T17:14:25Z</time>
      </trkpt>
      <trkpt lat="41.1412130" lon="-8.6077650">
        <ele>14.4</ele>
        <time>2021-05-15T17:14:26Z</time>
      </trkpt>
      <trkpt lat="41.1412030" lon="-8.6077860">
        <ele>14.4</ele>
        <time>2021-05-15T17:14:27Z</time>
      </trkpt>
      <trkpt lat="41.1411980" lon="-8.6078040">
        <ele>14.4</ele>
        <time>2021-05-15T17:14:28Z</time>
      </trkpt>
      <trkpt lat="41.1411910" lon="-8.6078240">
        <ele>14.4</ele>
        <time>2021-05-15T17:14:29Z</time>
      </trkpt>
      <trkpt lat="41.1411860" lon="-8.6078380">
        <ele>14.4</ele>
        <time>2021-05-15T17:14:30Z</time>
      </trkpt>
      <trkpt lat="41.1411840" lon="-8.6078640">
        <ele>14.4</ele>
        <time>2021-05-15T17:14:31Z</time>
      </trkpt>
      <trkpt lat="41.1411780" lon="-8.6078760">
        <ele>14.3</ele>
        <time>2021-05-15T17:14:32Z</time>
      </trkpt>
      <trkpt lat="41.1411790" lon="-8.6079080">
        <ele>14.3</ele>
        <time>2021-05-15T17:14:33Z</time>
      </trkpt>
      <trkpt lat="41.1411770" lon="-8.6079200">
        <ele>14.3</ele>
        <time>2021-05-15T17:14:34Z</time>
      </trkpt>
      <trkpt lat="41.1411740" lon="-8.6079320">
        <ele>14.3</ele>
        <time>2021-05-15T17:14:35Z</time>
      </trkpt>
      <trkpt lat="41.1411670" lon="-8.6079440">
        <ele>14.3</ele>
        <time>2021-05-15T17:14:36Z</time>
      </trkpt>
      <trkpt lat="41.1411630" lon="-8.6079570">
        <ele>14.3</ele>
        <time>2021-05-15T17:14:37Z</time>
      </trkpt>
      <trkpt lat="41.1411600" lon="-8.6079730">
        <ele>14.3</ele>
        <time>2021-05-15T17:14:38Z</time>
      </trkpt>
      <trkpt lat="41.1411530" lon="-8.6079910">
        <ele>14.3</ele>
        <time>2021-05-15T17:14:39Z</time>
      </trkpt>
      <trkpt lat="41.1411470" lon="-8.6080120">
        <ele>14.3</ele>
        <time>2021-05-15T17:14:40Z</time>
      </trkpt>
      <trkpt lat="41.1411420" lon="-8.6080320">
        <ele>14.3</ele>
        <time>2021-05-15T17:14:41Z</time>
      </trkpt>
      <trkpt lat="41.1411350" lon="-8.6080510">
        <ele>14.3</ele>
        <time>2021-05-15T17:14:42Z</time>
      </trkpt>
      <trkpt lat="41.1411320" lon="-8.6080700">
        <ele>14.3</ele>
        <time>2021-05-15T17:14:43Z</time>
      </trkpt>
      <trkpt lat="41.1411240" lon="-8.6080860">
        <ele>14.3</ele>
        <time>2021-05-15T17:14:44Z</time>
      </trkpt>
      <trkpt lat="41.1411280" lon="-8.6081060">
        <ele>14.3</ele>
        <time>2021-05-15T17:14:45Z</time>
      </trkpt>
      <trkpt lat="41.1411180" lon="-8.6081250">
        <ele>14.3</ele>
        <time>2021-05-15T17:14:46Z</time>
      </trkpt>
      <trkpt lat="41.1411160" lon="-8.6081430">
        <ele>14.3</ele>
        <time>2021-05-15T17:14:47Z</time>
      </trkpt>
      <trkpt lat="41.1411110" lon="-8.6081610">
        <ele>14.3</ele>
        <time>2021-05-15T17:14:48Z</time>
      </trkpt>
      <trkpt lat="41.1411030" lon="-8.6081780">
        <ele>14.3</ele>
        <time>2021-05-15T17:14:49Z</time>
      </trkpt>
      <trkpt lat="41.1411000" lon="-8.6081950">
        <ele>14.4</ele>
        <time>2021-05-15T17:14:50Z</time>
      </trkpt>
      <trkpt lat="41.1410940" lon="-8.6082100">
        <ele>14.4</ele>
        <time>2021-05-15T17:14:51Z</time>
      </trkpt>
      <trkpt lat="41.1410850" lon="-8.6082320">
        <ele>14.4</ele>
        <time>2021-05-15T17:14:52Z</time>
      </trkpt>
      <trkpt lat="41.1410830" lon="-8.6082500">
        <ele>14.4</ele>
        <time>2021-05-15T17:14:53Z</time>
      </trkpt>
      <trkpt lat="41.1410790" lon="-8.6082690">
        <ele>14.4</ele>
        <time>2021-05-15T17:14:54Z</time>
      </trkpt>
      <trkpt lat="41.1410750" lon="-8.6082870">
        <ele>14.4</ele>
        <time>2021-05-15T17:14:55Z</time>
      </trkpt>
      <trkpt lat="41.1410720" lon="-8.6083080">
        <ele>14.4</ele>
        <time>2021-05-15T17:14:56Z</time>
      </trkpt>
      <trkpt lat="41.1410680" lon="-8.6083330">
        <ele>14.4</ele>
        <time>2021-05-15T17:14:57Z</time>
      </trkpt>
      <trkpt lat="41.1410650" lon="-8.6083450">
        <ele>14.4</ele>
        <time>2021-05-15T17:14:58Z</time>
      </trkpt>
      <trkpt lat="41.1410610" lon="-8.6083560">
        <ele>14.4</ele>
        <time>2021-05-15T17:14:59Z</time>
      </trkpt>
      <trkpt lat="41.1410590" lon="-8.6083760">
        <ele>14.4</ele>
        <time>2021-05-15T17:15:00Z</time>
      </trkpt>
      <trkpt lat="41.1410540" lon="-8.6083950">
        <ele>14.4</ele>
        <time>2021-05-15T17:15:01Z</time>
      </trkpt>
      <trkpt lat="41.1410490" lon="-8.6084150">
        <ele>14.4</ele>
        <time>2021-05-15T17:15:02Z</time>
      </trkpt>
      <trkpt lat="41.1410430" lon="-8.6084240">
        <ele>14.4</ele>
        <time>2021-05-15T17:15:03Z</time>
      </trkpt>
      <trkpt lat="41.1410360" lon="-8.6084320">
        <ele>14.4</ele>
        <time>2021-05-15T17:15:04Z</time>
      </trkpt>
      <trkpt lat="41.1410330" lon="-8.6084470">
        <ele>14.4</ele>
        <time>2021-05-15T17:15:05Z</time>
      </trkpt>
      <trkpt lat="41.1410290" lon="-8.6084670">
        <ele>14.4</ele>
        <time>2021-05-15T17:15:06Z</time>
      </trkpt>
      <trkpt lat="41.1410210" lon="-8.6084890">
        <ele>14.4</ele>
        <time>2021-05-15T17:15:07Z</time>
      </trkpt>
      <trkpt lat="41.1410230" lon="-8.6085020">
        <ele>14.4</ele>
        <time>2021-05-15T17:15:08Z</time>
      </trkpt>
      <trkpt lat="41.1410140" lon="-8.6085220">
        <ele>14.4</ele>
        <time>2021-05-15T17:15:09Z</time>
      </trkpt>
      <trkpt lat="41.1410110" lon="-8.6085440">
        <ele>14.4</ele>
        <time>2021-05-15T17:15:10Z</time>
      </trkpt>
      <trkpt lat="41.1410080" lon="-8.6085690">
        <ele>14.4</ele>
        <time>2021-05-15T17:15:11Z</time>
      </trkpt>
      <trkpt lat="41.1410050" lon="-8.6085810">
        <ele>14.4</ele>
        <time>2021-05-15T17:15:12Z</time>
      </trkpt>
      <trkpt lat="41.1410010" lon="-8.6085930">
        <ele>14.4</ele>
        <time>2021-05-15T17:15:13Z</time>
      </trkpt>
      <trkpt lat="41.1409940" lon="-8.6086100">
        <ele>14.4</ele>
        <time>2021-05-15T17:15:14Z</time>
      </trkpt>
      <trkpt lat="41.1409890" lon="-8.6086260">
        <ele>14.4</ele>
        <time>2021-05-15T17:15:15Z</time>
      </trkpt>
      <trkpt lat="41.1409890" lon="-8.6086420">
        <ele>14.4</ele>
        <time>2021-05-15T17:15:16Z</time>
      </trkpt>
      <trkpt lat="41.1409840" lon="-8.6086640">
        <ele>14.4</ele>
        <time>2021-05-15T17:15:17Z</time>
      </trkpt>
      <trkpt lat="41.1409800" lon="-8.6086840">
        <ele>14.4</ele>
        <time>2021-05-15T17:15:18Z</time>
      </trkpt>
      <trkpt lat="41.1409730" lon="-8.6087220">
        <ele>14.4</ele>
        <time>2021-05-15T17:15:19Z</time>
      </trkpt>
      <trkpt lat="41.1409720" lon="-8.6087400">
        <ele>14.4</ele>
        <time>2021-05-15T17:15:20Z</time>
      </trkpt>
      <trkpt lat="41.1409660" lon="-8.6087570">
        <ele>14.4</ele>
        <time>2021-05-15T17:15:21Z</time>
      </trkpt>
      <trkpt lat="41.1409630" lon="-8.6087790">
        <ele>14.4</ele>
        <time>2021-05-15T17:15:22Z</time>
      </trkpt>
      <trkpt lat="41.1409560" lon="-8.6087990">
        <ele>14.5</ele>
        <time>2021-05-15T17:15:23Z</time>
      </trkpt>
      <trkpt lat="41.1409560" lon="-8.6088140">
        <ele>14.5</ele>
        <time>2021-05-15T17:15:24Z</time>
      </trkpt>
      <trkpt lat="41.1409520" lon="-8.6088330">
        <ele>14.5</ele>
        <time>2021-05-15T17:15:25Z</time>
      </trkpt>
      <trkpt lat="41.1409460" lon="-8.6088580">
        <ele>14.5</ele>
        <time>2021-05-15T17:15:26Z</time>
      </trkpt>
      <trkpt lat="41.1409380" lon="-8.6088730">
        <ele>14.5</ele>
        <time>2021-05-15T17:15:27Z</time>
      </trkpt>
      <trkpt lat="41.1409350" lon="-8.6088990">
        <ele>14.5</ele>
        <time>2021-05-15T17:15:28Z</time>
      </trkpt>
      <trkpt lat="41.1409380" lon="-8.6089080">
        <ele>14.5</ele>
        <time>2021-05-15T17:15:29Z</time>
      </trkpt>
      <trkpt lat="41.1409370" lon="-8.6089380">
        <ele>14.5</ele>
        <time>2021-05-15T17:15:30Z</time>
      </trkpt>
      <trkpt lat="41.1409320" lon="-8.6089630">
        <ele>14.5</ele>
        <time>2021-05-15T17:15:31Z</time>
      </trkpt>
      <trkpt lat="41.1409300" lon="-8.6089770">
        <ele>14.5</ele>
        <time>2021-05-15T17:15:32Z</time>
      </trkpt>
      <trkpt lat="41.1409290" lon="-8.6089900">
        <ele>14.5</ele>
        <time>2021-05-15T17:15:33Z</time>
      </trkpt>
      <trkpt lat="41.1409250" lon="-8.6090240">
        <ele>14.4</ele>
        <time>2021-05-15T17:15:34Z</time>
      </trkpt>
      <trkpt lat="41.1409220" lon="-8.6090350">
        <ele>14.4</ele>
        <time>2021-05-15T17:15:35Z</time>
      </trkpt>
      <trkpt lat="41.1409200" lon="-8.6090450">
        <ele>14.4</ele>
        <time>2021-05-15T17:15:36Z</time>
      </trkpt>
      <trkpt lat="41.1409120" lon="-8.6090640">
        <ele>14.4</ele>
        <time>2021-05-15T17:15:37Z</time>
      </trkpt>
      <trkpt lat="41.1409140" lon="-8.6090850">
        <ele>14.4</ele>
        <time>2021-05-15T17:15:38Z</time>
      </trkpt>
      <trkpt lat="41.1409100" lon="-8.6091100">
        <ele>14.4</ele>
        <time>2021-05-15T17:15:39Z</time>
      </trkpt>
      <trkpt lat="41.1409030" lon="-8.6091300">
        <ele>14.4</ele>
        <time>2021-05-15T17:15:40Z</time>
      </trkpt>
      <trkpt lat="41.1408990" lon="-8.6091480">
        <ele>14.4</ele>
        <time>2021-05-15T17:15:41Z</time>
      </trkpt>
      <trkpt lat="41.1408940" lon="-8.6091720">
        <ele>14.4</ele>
        <time>2021-05-15T17:15:42Z</time>
      </trkpt>
      <trkpt lat="41.1408910" lon="-8.6091840">
        <ele>14.4</ele>
        <time>2021-05-15T17:15:43Z</time>
      </trkpt>
      <trkpt lat="41.1408870" lon="-8.6092070">
        <ele>14.4</ele>
        <time>2021-05-15T17:15:44Z</time>
      </trkpt>
      <trkpt lat="41.1408800" lon="-8.6092200">
        <ele>14.4</ele>
        <time>2021-05-15T17:15:45Z</time>
      </trkpt>
      <trkpt lat="41.1408720" lon="-8.6092420">
        <ele>14.5</ele>
        <time>2021-05-15T17:15:46Z</time>
      </trkpt>
      <trkpt lat="41.1408620" lon="-8.6092690">
        <ele>14.5</ele>
        <time>2021-05-15T17:15:47Z</time>
      </trkpt>
      <trkpt lat="41.1408570" lon="-8.6092810">
        <ele>14.5</ele>
        <time>2021-05-15T17:15:48Z</time>
      </trkpt>
      <trkpt lat="41.1408530" lon="-8.6092920">
        <ele>14.5</ele>
        <time>2021-05-15T17:15:49Z</time>
      </trkpt>
      <trkpt lat="41.1408490" lon="-8.6093090">
        <ele>14.5</ele>
        <time>2021-05-15T17:15:50Z</time>
      </trkpt>
      <trkpt lat="41.1408410" lon="-8.6093340">
        <ele>14.5</ele>
        <time>2021-05-15T17:15:51Z</time>
      </trkpt>
      <trkpt lat="41.1408420" lon="-8.6093470">
        <ele>14.5</ele>
        <time>2021-05-15T17:15:52Z</time>
      </trkpt>
      <trkpt lat="41.1408370" lon="-8.6093720">
        <ele>14.5</ele>
        <time>2021-05-15T17:15:53Z</time>
      </trkpt>
      <trkpt lat="41.1408260" lon="-8.6093760">
        <ele>14.5</ele>
        <time>2021-05-15T17:15:54Z</time>
      </trkpt>
      <trkpt lat="41.1408210" lon="-8.6094000">
        <ele>14.5</ele>
        <time>2021-05-15T17:15:55Z</time>
      </trkpt>
      <trkpt lat="41.1408150" lon="-8.6094090">
        <ele>14.5</ele>
        <time>2021-05-15T17:15:56Z</time>
      </trkpt>
      <trkpt lat="41.1408210" lon="-8.6094270">
        <ele>14.5</ele>
        <time>2021-05-15T17:15:57Z</time>
      </trkpt>
      <trkpt lat="41.1408290" lon="-8.6094330">
        <ele>14.5</ele>
        <time>2021-05-15T17:15:58Z</time>
      </trkpt>
      <trkpt lat="41.1408360" lon="-8.6094380">
        <ele>14.5</ele>
        <time>2021-05-15T17:15:59Z</time>
      </trkpt>
      <trkpt lat="41.1408430" lon="-8.6094440">
        <ele>14.5</ele>
        <time>2021-05-15T17:16:00Z</time>
      </trkpt>
      <trkpt lat="41.1408540" lon="-8.6094490">
        <ele>14.6</ele>
        <time>2021-05-15T17:16:01Z</time>
      </trkpt>
      <trkpt lat="41.1408650" lon="-8.6094610">
        <ele>14.6</ele>
        <time>2021-05-15T17:16:02Z</time>
      </trkpt>
      <trkpt lat="41.1408770" lon="-8.6094840">
        <ele>14.6</ele>
        <time>2021-05-15T17:16:04Z</time>
      </trkpt>
      <trkpt lat="41.1408750" lon="-8.6094980">
        <ele>14.6</ele>
        <time>2021-05-15T17:16:06Z</time>
      </trkpt>
      <trkpt lat="41.1408770" lon="-8.6095160">
        <ele>14.6</ele>
        <time>2021-05-15T17:16:07Z</time>
      </trkpt>
      <trkpt lat="41.1408840" lon="-8.6095340">
        <ele>14.6</ele>
        <time>2021-05-15T17:16:08Z</time>
      </trkpt>
      <trkpt lat="41.1408820" lon="-8.6095510">
        <ele>14.6</ele>
        <time>2021-05-15T17:16:09Z</time>
      </trkpt>
      <trkpt lat="41.1408780" lon="-8.6095700">
        <ele>14.6</ele>
        <time>2021-05-15T17:16:10Z</time>
      </trkpt>
      <trkpt lat="41.1408840" lon="-8.6095880">
        <ele>14.6</ele>
        <time>2021-05-15T17:16:11Z</time>
      </trkpt>
      <trkpt lat="41.1408850" lon="-8.6096150">
        <ele>14.7</ele>
        <time>2021-05-15T17:16:12Z</time>
      </trkpt>
      <trkpt lat="41.1408860" lon="-8.6096280">
        <ele>14.7</ele>
        <time>2021-05-15T17:16:13Z</time>
      </trkpt>
      <trkpt lat="41.1408880" lon="-8.6096400">
        <ele>14.7</ele>
        <time>2021-05-15T17:16:14Z</time>
      </trkpt>
      <trkpt lat="41.1408870" lon="-8.6096530">
        <ele>14.7</ele>
        <time>2021-05-15T17:16:15Z</time>
      </trkpt>
      <trkpt lat="41.1408890" lon="-8.6096710">
        <ele>14.7</ele>
        <time>2021-05-15T17:16:16Z</time>
      </trkpt>
      <trkpt lat="41.1408880" lon="-8.6096800">
        <ele>14.7</ele>
        <time>2021-05-15T17:16:17Z</time>
      </trkpt>
      <trkpt lat="41.1408890" lon="-8.6097010">
        <ele>14.7</ele>
        <time>2021-05-15T17:16:18Z</time>
      </trkpt>
      <trkpt lat="41.1408970" lon="-8.6097210">
        <ele>14.7</ele>
        <time>2021-05-15T17:16:19Z</time>
      </trkpt>
      <trkpt lat="41.1408900" lon="-8.6097440">
        <ele>14.8</ele>
        <time>2021-05-15T17:16:20Z</time>
      </trkpt>
      <trkpt lat="41.1408950" lon="-8.6097660">
        <ele>14.8</ele>
        <time>2021-05-15T17:16:21Z</time>
      </trkpt>
      <trkpt lat="41.1409040" lon="-8.6097830">
        <ele>14.8</ele>
        <time>2021-05-15T17:16:22Z</time>
      </trkpt>
      <trkpt lat="41.1409060" lon="-8.6098040">
        <ele>14.8</ele>
        <time>2021-05-15T17:16:23Z</time>
      </trkpt>
      <trkpt lat="41.1409120" lon="-8.6098360">
        <ele>14.8</ele>
        <time>2021-05-15T17:16:24Z</time>
      </trkpt>
      <trkpt lat="41.1409130" lon="-8.6098500">
        <ele>14.8</ele>
        <time>2021-05-15T17:16:25Z</time>
      </trkpt>
      <trkpt lat="41.1409130" lon="-8.6098650">
        <ele>14.8</ele>
        <time>2021-05-15T17:16:26Z</time>
      </trkpt>
      <trkpt lat="41.1409140" lon="-8.6098910">
        <ele>14.9</ele>
        <time>2021-05-15T17:16:27Z</time>
      </trkpt>
      <trkpt lat="41.1409150" lon="-8.6099030">
        <ele>14.9</ele>
        <time>2021-05-15T17:16:28Z</time>
      </trkpt>
      <trkpt lat="41.1409160" lon="-8.6099150">
        <ele>14.9</ele>
        <time>2021-05-15T17:16:29Z</time>
      </trkpt>
      <trkpt lat="41.1409190" lon="-8.6099320">
        <ele>14.9</ele>
        <time>2021-05-15T17:16:30Z</time>
      </trkpt>
      <trkpt lat="41.1409300" lon="-8.6099500">
        <ele>14.9</ele>
        <time>2021-05-15T17:16:31Z</time>
      </trkpt>
      <trkpt lat="41.1409380" lon="-8.6099660">
        <ele>14.9</ele>
        <time>2021-05-15T17:16:32Z</time>
      </trkpt>
      <trkpt lat="41.1409440" lon="-8.6099860">
        <ele>14.9</ele>
        <time>2021-05-15T17:16:33Z</time>
      </trkpt>
      <trkpt lat="41.1409530" lon="-8.6100130">
        <ele>15.0</ele>
        <time>2021-05-15T17:16:34Z</time>
      </trkpt>
      <trkpt lat="41.1409560" lon="-8.6100260">
        <ele>15.0</ele>
        <time>2021-05-15T17:16:35Z</time>
      </trkpt>
      <trkpt lat="41.1409590" lon="-8.6100380">
        <ele>15.0</ele>
        <time>2021-05-15T17:16:36Z</time>
      </trkpt>
      <trkpt lat="41.1409640" lon="-8.6100560">
        <ele>15.0</ele>
        <time>2021-05-15T17:16:37Z</time>
      </trkpt>
      <trkpt lat="41.1409720" lon="-8.6100770">
        <ele>15.0</ele>
        <time>2021-05-15T17:16:38Z</time>
      </trkpt>
      <trkpt lat="41.1409770" lon="-8.6101020">
        <ele>15.0</ele>
        <time>2021-05-15T17:16:39Z</time>
      </trkpt>
      <trkpt lat="41.1409810" lon="-8.6101210">
        <ele>15.0</ele>
        <time>2021-05-15T17:16:40Z</time>
      </trkpt>
      <trkpt lat="41.1409900" lon="-8.6101430">
        <ele>15.0</ele>
        <time>2021-05-15T17:16:41Z</time>
      </trkpt>
      <trkpt lat="41.1409910" lon="-8.6101600">
        <ele>15.1</ele>
        <time>2021-05-15T17:16:42Z</time>
      </trkpt>
      <trkpt lat="41.1410030" lon="-8.6101930">
        <ele>15.1</ele>
        <time>2021-05-15T17:16:43Z</time>
      </trkpt>
      <trkpt lat="41.1410050" lon="-8.6102050">
        <ele>15.1</ele>
        <time>2021-05-15T17:16:44Z</time>
      </trkpt>
      <trkpt lat="41.1410080" lon="-8.6102310">
        <ele>15.1</ele>
        <time>2021-05-15T17:16:45Z</time>
      </trkpt>
      <trkpt lat="41.1410130" lon="-8.6102510">
        <ele>15.2</ele>
        <time>2021-05-15T17:16:46Z</time>
      </trkpt>
      <trkpt lat="41.1410240" lon="-8.6102650">
        <ele>15.2</ele>
        <time>2021-05-15T17:16:47Z</time>
      </trkpt>
      <trkpt lat="41.1410260" lon="-8.6102690">
        <ele>15.2</ele>
        <time>2021-05-15T17:16:48Z</time>
      </trkpt>
      <trkpt lat="41.1410300" lon="-8.6102780">
        <ele>15.2</ele>
        <time>2021-05-15T17:16:49Z</time>
      </trkpt>
      <trkpt lat="41.1410360" lon="-8.6102870">
        <ele>15.2</ele>
        <time>2021-05-15T17:16:50Z</time>
      </trkpt>
      <trkpt lat="41.1410480" lon="-8.6103010">
        <ele>15.2</ele>
        <time>2021-05-15T17:16:51Z</time>
      </trkpt>
      <trkpt lat="41.1410540" lon="-8.6103250">
        <ele>15.2</ele>
        <time>2021-05-15T17:16:52Z</time>
      </trkpt>
      <trkpt lat="41.1410670" lon="-8.6103370">
        <ele>15.3</ele>
        <time>2021-05-15T17:16:53Z</time>
      </trkpt>
      <trkpt lat="41.1410820" lon="-8.6103460">
        <ele>15.3</ele>
        <time>2021-05-15T17:16:54Z</time>
      </trkpt>
      <trkpt lat="41.1410870" lon="-8.6103630">
        <ele>15.3</ele>
        <time>2021-05-15T17:16:55Z</time>
      </trkpt>
      <trkpt lat="41.1411000" lon="-8.6103780">
        <ele>15.3</ele>
        <time>2021-05-15T17:16:56Z</time>
      </trkpt>
      <trkpt lat="41.1411090" lon="-8.6103930">
        <ele>15.4</ele>
        <time>2021-05-15T17:16:57Z</time>
      </trkpt>
      <trkpt lat="41.1411270" lon="-8.6103990">
        <ele>15.4</ele>
        <time>2021-05-15T17:16:58Z</time>
      </trkpt>
      <trkpt lat="41.1411330" lon="-8.6104160">
        <ele>15.4</ele>
        <time>2021-05-15T17:16:59Z</time>
      </trkpt>
      <trkpt lat="41.1411470" lon="-8.6104240">
        <ele>15.4</ele>
        <time>2021-05-15T17:17:00Z</time>
      </trkpt>
      <trkpt lat="41.1411520" lon="-8.6104430">
        <ele>15.5</ele>
        <time>2021-05-15T17:17:01Z</time>
      </trkpt>
      <trkpt lat="41.1411590" lon="-8.6104600">
        <ele>15.5</ele>
        <time>2021-05-15T17:17:02Z</time>
      </trkpt>
      <trkpt lat="41.1411670" lon="-8.6104790">
        <ele>15.5</ele>
        <time>2021-05-15T17:17:03Z</time>
      </trkpt>
      <trkpt lat="41.1411800" lon="-8.6104870">
        <ele>15.5</ele>
        <time>2021-05-15T17:17:04Z</time>
      </trkpt>
      <trkpt lat="41.1411900" lon="-8.6105010">
        <ele>15.6</ele>
        <time>2021-05-15T17:17:05Z</time>
      </trkpt>
      <trkpt lat="41.1411950" lon="-8.6105220">
        <ele>15.6</ele>
        <time>2021-05-15T17:17:06Z</time>
      </trkpt>
      <trkpt lat="41.1412060" lon="-8.6105370">
        <ele>15.6</ele>
        <time>2021-05-15T17:17:07Z</time>
      </trkpt>
      <trkpt lat="41.1412130" lon="-8.6105540">
        <ele>15.7</ele>
        <time>2021-05-15T17:17:08Z</time>
      </trkpt>
      <trkpt lat="41.1412220" lon="-8.6105630">
        <ele>15.7</ele>
        <time>2021-05-15T17:17:09Z</time>
      </trkpt>
      <trkpt lat="41.1412300" lon="-8.6105850">
        <ele>15.7</ele>
        <time>2021-05-15T17:17:10Z</time>
      </trkpt>
      <trkpt lat="41.1412390" lon="-8.6106070">
        <ele>15.7</ele>
        <time>2021-05-15T17:17:11Z</time>
      </trkpt>
      <trkpt lat="41.1412430" lon="-8.6106210">
        <ele>15.8</ele>
        <time>2021-05-15T17:17:12Z</time>
      </trkpt>
      <trkpt lat="41.1412480" lon="-8.6106360">
        <ele>15.8</ele>
        <time>2021-05-15T17:17:13Z</time>
      </trkpt>
      <trkpt lat="41.1412530" lon="-8.6106490">
        <ele>15.8</ele>
        <time>2021-05-15T17:17:14Z</time>
      </trkpt>
      <trkpt lat="41.1412550" lon="-8.6106550">
        <ele>15.8</ele>
        <time>2021-05-15T17:17:15Z</time>
      </trkpt>
      <trkpt lat="41.1412580" lon="-8.6106580">
        <ele>15.8</ele>
        <time>2021-05-15T17:17:16Z</time>
      </trkpt>
      <trkpt lat="41.1412570" lon="-8.6106620">
        <ele>15.8</ele>
        <time>2021-05-15T17:17:17Z</time>
      </trkpt>
      <trkpt lat="41.1412570" lon="-8.6106640">
        <ele>15.8</ele>
        <time>2021-05-15T17:17:18Z</time>
      </trkpt>
      <trkpt lat="41.1412620" lon="-8.6106660">
        <ele>15.8</ele>
        <time>2021-05-15T17:17:19Z</time>
      </trkpt>
      <trkpt lat="41.1412640" lon="-8.6106720">
        <ele>15.8</ele>
        <time>2021-05-15T17:17:20Z</time>
      </trkpt>
      <trkpt lat="41.1412680" lon="-8.6106730">
        <ele>15.9</ele>
        <time>2021-05-15T17:17:21Z</time>
      </trkpt>
      <trkpt lat="41.1412760" lon="-8.6106700">
        <ele>15.9</ele>
        <time>2021-05-15T17:17:22Z</time>
      </trkpt>
      <trkpt lat="41.1412770" lon="-8.6106710">
        <ele>15.9</ele>
        <time>2021-05-15T17:17:23Z</time>
      </trkpt>
      <trkpt lat="41.1412940" lon="-8.6106840">
        <ele>15.9</ele>
        <time>2021-05-15T17:17:24Z</time>
      </trkpt>
      <trkpt lat="41.1413050" lon="-8.6106850">
        <ele>15.9</ele>
        <time>2021-05-15T17:17:25Z</time>
      </trkpt>
      <trkpt lat="41.1413060" lon="-8.6107030">
        <ele>16.0</ele>
        <time>2021-05-15T17:17:26Z</time>
      </trkpt>
      <trkpt lat="41.1413070" lon="-8.6107100">
        <ele>16.0</ele>
        <time>2021-05-15T17:17:27Z</time>
      </trkpt>
      <trkpt lat="41.1413050" lon="-8.6107140">
        <ele>16.0</ele>
        <time>2021-05-15T17:17:28Z</time>
      </trkpt>
      <trkpt lat="41.1413080" lon="-8.6107240">
        <ele>16.0</ele>
        <time>2021-05-15T17:17:29Z</time>
      </trkpt>
      <trkpt lat="41.1413110" lon="-8.6107310">
        <ele>16.0</ele>
        <time>2021-05-15T17:17:30Z</time>
      </trkpt>
      <trkpt lat="41.1413130" lon="-8.6107390">
        <ele>16.0</ele>
        <time>2021-05-15T17:17:31Z</time>
      </trkpt>
      <trkpt lat="41.1413180" lon="-8.6107530">
        <ele>16.0</ele>
        <time>2021-05-15T17:17:32Z</time>
      </trkpt>
      <trkpt lat="41.1413210" lon="-8.6107600">
        <ele>16.0</ele>
        <time>2021-05-15T17:17:33Z</time>
      </trkpt>
      <trkpt lat="41.1413270" lon="-8.6107700">
        <ele>16.1</ele>
        <time>2021-05-15T17:17:34Z</time>
      </trkpt>
      <trkpt lat="41.1413360" lon="-8.6107910">
        <ele>16.1</ele>
        <time>2021-05-15T17:17:35Z</time>
      </trkpt>
      <trkpt lat="41.1413400" lon="-8.6108050">
        <ele>16.1</ele>
        <time>2021-05-15T17:17:36Z</time>
      </trkpt>
      <trkpt lat="41.1413470" lon="-8.6108160">
        <ele>16.1</ele>
        <time>2021-05-15T17:17:37Z</time>
      </trkpt>
      <trkpt lat="41.1413490" lon="-8.6108220">
        <ele>16.1</ele>
        <time>2021-05-15T17:17:38Z</time>
      </trkpt>
      <trkpt lat="41.1413510" lon="-8.6108330">
        <ele>16.2</ele>
        <time>2021-05-15T17:17:39Z</time>
      </trkpt>
      <trkpt lat="41.1413550" lon="-8.6108400">
        <ele>16.2</ele>
        <time>2021-05-15T17:17:40Z</time>
      </trkpt>
      <trkpt lat="41.1413580" lon="-8.6108400">
        <ele>16.2</ele>
        <time>2021-05-15T17:17:42Z</time>
      </trkpt>
      <trkpt lat="41.1413590" lon="-8.6108460">
        <ele>16.2</ele>
        <time>2021-05-15T17:17:43Z</time>
      </trkpt>
      <trkpt lat="41.1413650" lon="-8.6108550">
        <ele>16.2</ele>
        <time>2021-05-15T17:17:44Z</time>
      </trkpt>
      <trkpt lat="41.1413720" lon="-8.6108630">
        <ele>16.3</ele>
        <time>2021-05-15T17:17:45Z</time>
      </trkpt>
      <trkpt lat="41.1413800" lon="-8.6108750">
        <ele>16.3</ele>
        <time>2021-05-15T17:17:46Z</time>
      </trkpt>
      <trkpt lat="41.1413870" lon="-8.6108860">
        <ele>16.3</ele>
        <time>2021-05-15T17:17:47Z</time>
      </trkpt>
      <trkpt lat="41.1413860" lon="-8.6108900">
        <ele>16.3</ele>
        <time>2021-05-15T17:17:48Z</time>
      </trkpt>
      <trkpt lat="41.1413860" lon="-8.6108900">
        <ele>16.3</ele>
        <time>2021-05-15T17:17:58Z</time>
      </trkpt>
      <trkpt lat="41.1413860" lon="-8.6108900">
        <ele>16.3</ele>
        <time>2021-05-15T17:18:07Z</time>
      </trkpt>
      <trkpt lat="41.1413860" lon="-8.6108900">
        <ele>16.3</ele>
        <time>2021-05-15T17:18:11Z</time>
      </trkpt>
      <trkpt lat="41.1413860" lon="-8.6108900">
        <ele>16.3</ele>
        <time>2021-05-15T17:18:16Z</time>
      </trkpt>
      <trkpt lat="41.1415020" lon="-8.6129370">
        <ele>19.8</ele>
        <time>2021-05-15T17:18:18Z</time>
      </trkpt>
      <trkpt lat="41.1414810" lon="-8.6129880">
        <ele>19.8</ele>
        <time>2021-05-15T17:18:25Z</time>
      </trkpt>
      <trkpt lat="41.1414790" lon="-8.6130090">
        <ele>19.9</ele>
        <time>2021-05-15T17:18:31Z</time>
      </trkpt>
      <trkpt lat="41.1414760" lon="-8.6130300">
        <ele>19.9</ele>
        <time>2021-05-15T17:18:38Z</time>
      </trkpt>
      <trkpt lat="41.1414740" lon="-8.6130500">
        <ele>19.9</ele>
        <time>2021-05-15T17:18:44Z</time>
      </trkpt>
      <trkpt lat="41.1414710" lon="-8.6130710">
        <ele>19.9</ele>
        <time>2021-05-15T17:18:50Z</time>
      </trkpt>
      <trkpt lat="41.1414690" lon="-8.6130920">
        <ele>19.9</ele>
        <time>2021-05-15T17:18:57Z</time>
      </trkpt>
      <trkpt lat="41.1414660" lon="-8.6131130">
        <ele>19.9</ele>
        <time>2021-05-15T17:19:03Z</time>
      </trkpt>
      <trkpt lat="41.1414630" lon="-8.6131340">
        <ele>19.9</ele>
        <time>2021-05-15T17:19:10Z</time>
      </trkpt>
      <trkpt lat="41.1414610" lon="-8.6131550">
        <ele>19.9</ele>
        <time>2021-05-15T17:19:16Z</time>
      </trkpt>
      <trkpt lat="41.1414580" lon="-8.6131750">
        <ele>19.9</ele>
        <time>2021-05-15T17:19:23Z</time>
      </trkpt>
      <trkpt lat="41.1414560" lon="-8.6131960">
        <ele>19.9</ele>
        <time>2021-05-15T17:19:29Z</time>
      </trkpt>
      <trkpt lat="41.1414530" lon="-8.6132170">
        <ele>19.9</ele>
        <time>2021-05-15T17:19:30Z</time>
      </trkpt>
      <trkpt lat="41.1414650" lon="-8.6131540">
        <ele>19.9</ele>
        <time>2021-05-15T17:19:31Z</time>
      </trkpt>
      <trkpt lat="41.1414780" lon="-8.6131480">
        <ele>19.9</ele>
        <time>2021-05-15T17:19:32Z</time>
      </trkpt>
      <trkpt lat="41.1414900" lon="-8.6131430">
        <ele>19.9</ele>
        <time>2021-05-15T17:19:33Z</time>
      </trkpt>
      <trkpt lat="41.1415020" lon="-8.6131380">
        <ele>19.9</ele>
        <time>2021-05-15T17:19:34Z</time>
      </trkpt>
      <trkpt lat="41.1415140" lon="-8.6131330">
        <ele>19.9</ele>
        <time>2021-05-15T17:19:35Z</time>
      </trkpt>
      <trkpt lat="41.1415260" lon="-8.6131280">
        <ele>19.9</ele>
        <time>2021-05-15T17:19:36Z</time>
      </trkpt>
      <trkpt lat="41.1415390" lon="-8.6131240">
        <ele>19.9</ele>
        <time>2021-05-15T17:19:37Z</time>
      </trkpt>
      <trkpt lat="41.1415510" lon="-8.6131190">
        <ele>19.9</ele>
        <time>2021-05-15T17:19:38Z</time>
      </trkpt>
      <trkpt lat="41.1415630" lon="-8.6131140">
        <ele>19.9</ele>
        <time>2021-05-15T17:19:39Z</time>
      </trkpt>
      <trkpt lat="41.1415750" lon="-8.6131090">
        <ele>19.9</ele>
        <time>2021-05-15T17:19:40Z</time>
      </trkpt>
      <trkpt lat="41.1415870" lon="-8.6131040">
        <ele>19.9</ele>
        <time>2021-05-15T17:19:41Z</time>
      </trkpt>
      <trkpt lat="41.1415990" lon="-8.6130990">
        <ele>19.9</ele>
        <time>2021-05-15T17:19:42Z</time>
      </trkpt>
      <trkpt lat="41.1415810" lon="-8.6131110">
        <ele>19.9</ele>
        <time>2021-05-15T17:19:43Z</time>
      </trkpt>
      <trkpt lat="41.1415740" lon="-8.6131160">
        <ele>19.9</ele>
        <time>2021-05-15T17:19:44Z</time>
      </trkpt>
      <trkpt lat="41.1415830" lon="-8.6130800">
        <ele>19.9</ele>
        <time>2021-05-15T17:19:45Z</time>
      </trkpt>
      <trkpt lat="41.1415920" lon="-8.6130640">
        <ele>19.9</ele>
        <time>2021-05-15T17:19:46Z</time>
      </trkpt>
      <trkpt lat="41.1416040" lon="-8.6130570">
        <ele>19.9</ele>
        <time>2021-05-15T17:19:47Z</time>
      </trkpt>
      <trkpt lat="41.1416130" lon="-8.6130520">
        <ele>19.9</ele>
        <time>2021-05-15T17:19:48Z</time>
      </trkpt>
      <trkpt lat="41.1416110" lon="-8.6130560">
        <ele>20.7</ele>
        <time>2021-05-15T17:19:49Z</time>
      </trkpt>
      <trkpt lat="41.1416160" lon="-8.6130530">
        <ele>20.8</ele>
        <time>2021-05-15T17:19:50Z</time>
      </trkpt>
      <trkpt lat="41.1416100" lon="-8.6130530">
        <ele>20.9</ele>
        <time>2021-05-15T17:19:51Z</time>
      </trkpt>
      <trkpt lat="41.1416180" lon="-8.6130550">
        <ele>21.0</ele>
        <time>2021-05-15T17:19:52Z</time>
      </trkpt>
      <trkpt lat="41.1416240" lon="-8.6130590">
        <ele>21.0</ele>
        <time>2021-05-15T17:19:53Z</time>
      </trkpt>
      <trkpt lat="41.1416150" lon="-8.6130630">
        <ele>21.2</ele>
        <time>2021-05-15T17:19:54Z</time>
      </trkpt>
      <trkpt lat="41.1416090" lon="-8.6130610">
        <ele>21.2</ele>
        <time>2021-05-15T17:19:55Z</time>
      </trkpt>
      <trkpt lat="41.1416040" lon="-8.6130710">
        <ele>21.3</ele>
        <time>2021-05-15T17:19:56Z</time>
      </trkpt>
      <trkpt lat="41.1416040" lon="-8.6130720">
        <ele>21.3</ele>
        <time>2021-05-15T17:19:57Z</time>
      </trkpt>
      <trkpt lat="41.1416060" lon="-8.6130790">
        <ele>21.4</ele>
        <time>2021-05-15T17:19:58Z</time>
      </trkpt>
      <trkpt lat="41.1416100" lon="-8.6130720">
        <ele>21.5</ele>
        <time>2021-05-15T17:19:59Z</time>
      </trkpt>
      <trkpt lat="41.1415930" lon="-8.6130760">
        <ele>21.7</ele>
        <time>2021-05-15T17:20:00Z</time>
      </trkpt>
      <trkpt lat="41.1415940" lon="-8.6130680">
        <ele>21.8</ele>
        <time>2021-05-15T17:20:01Z</time>
      </trkpt>
      <trkpt lat="41.1415940" lon="-8.6130610">
        <ele>21.8</ele>
        <time>2021-05-15T17:20:02Z</time>
      </trkpt>
      <trkpt lat="41.1415990" lon="-8.6130580">
        <ele>21.9</ele>
        <time>2021-05-15T17:20:03Z</time>
      </trkpt>
      <trkpt lat="41.1415960" lon="-8.6130620">
        <ele>22.0</ele>
        <time>2021-05-15T17:20:04Z</time>
      </trkpt>
      <trkpt lat="41.1415940" lon="-8.6130690">
        <ele>22.0</ele>
        <time>2021-05-15T17:20:05Z</time>
      </trkpt>
      <trkpt lat="41.1415930" lon="-8.6130720">
        <ele>22.1</ele>
        <time>2021-05-15T17:20:06Z</time>
      </trkpt>
      <trkpt lat="41.1415950" lon="-8.6130710">
        <ele>22.1</ele>
        <time>2021-05-15T17:20:07Z</time>
      </trkpt>
      <trkpt lat="41.1415980" lon="-8.6130630">
        <ele>22.2</ele>
        <time>2021-05-15T17:20:08Z</time>
      </trkpt>
      <trkpt lat="41.1415990" lon="-8.6130620">
        <ele>22.2</ele>
        <time>2021-05-15T17:20:09Z</time>
      </trkpt>
      <trkpt lat="41.1416010" lon="-8.6130630">
        <ele>22.2</ele>
        <time>2021-05-15T17:20:10Z</time>
      </trkpt>
      <trkpt lat="41.1415980" lon="-8.6130690">
        <ele>22.3</ele>
        <time>2021-05-15T17:20:11Z</time>
      </trkpt>
      <trkpt lat="41.1416030" lon="-8.6130700">
        <ele>22.3</ele>
        <time>2021-05-15T17:20:12Z</time>
      </trkpt>
      <trkpt lat="41.1416030" lon="-8.6130580">
        <ele>22.4</ele>
        <time>2021-05-15T17:20:13Z</time>
      </trkpt>
      <trkpt lat="41.1416120" lon="-8.6130540">
        <ele>22.6</ele>
        <time>2021-05-15T17:20:14Z</time>
      </trkpt>
      <trkpt lat="41.1416170" lon="-8.6130480">
        <ele>22.6</ele>
        <time>2021-05-15T17:20:15Z</time>
      </trkpt>
      <trkpt lat="41.1416170" lon="-8.6130450">
        <ele>22.7</ele>
        <time>2021-05-15T17:20:16Z</time>
      </trkpt>
      <trkpt lat="41.1416230" lon="-8.6130360">
        <ele>22.8</ele>
        <time>2021-05-15T17:20:17Z</time>
      </trkpt>
      <trkpt lat="41.1416230" lon="-8.6130250">
        <ele>22.9</ele>
        <time>2021-05-15T17:20:18Z</time>
      </trkpt>
      <trkpt lat="41.1416230" lon="-8.6130260">
        <ele>22.9</ele>
        <time>2021-05-15T17:20:19Z</time>
      </trkpt>
      <trkpt lat="41.1416250" lon="-8.6130270">
        <ele>22.9</ele>
        <time>2021-05-15T17:20:20Z</time>
      </trkpt>
      <trkpt lat="41.1416330" lon="-8.6130220">
        <ele>23.0</ele>
        <time>2021-05-15T17:20:21Z</time>
      </trkpt>
      <trkpt lat="41.1416430" lon="-8.6130280">
        <ele>23.1</ele>
        <time>2021-05-15T17:20:22Z</time>
      </trkpt>
      <trkpt lat="41.1416490" lon="-8.6130170">
        <ele>23.3</ele>
        <time>2021-05-15T17:20:23Z</time>
      </trkpt>
      <trkpt lat="41.1416630" lon="-8.6130140">
        <ele>23.5</ele>
        <time>2021-05-15T17:20:24Z</time>
      </trkpt>
      <trkpt lat="41.1416690" lon="-8.6130190">
        <ele>23.5</ele>
        <time>2021-05-15T17:20:25Z</time>
      </trkpt>
      <trkpt lat="41.1416680" lon="-8.6130170">
        <ele>23.6</ele>
        <time>2021-05-15T17:20:26Z</time>
      </trkpt>
      <trkpt lat="41.1416670" lon="-8.6130200">
        <ele>23.6</ele>
        <time>2021-05-15T17:20:27Z</time>
      </trkpt>
      <trkpt lat="41.1416720" lon="-8.6130190">
        <ele>23.7</ele>
        <time>2021-05-15T17:20:28Z</time>
      </trkpt>
      <trkpt lat="41.1416780" lon="-8.6130240">
        <ele>23.7</ele>
        <time>2021-05-15T17:20:29Z</time>
      </trkpt>
      <trkpt lat="41.1416870" lon="-8.6130330">
        <ele>23.9</ele>
        <time>2021-05-15T17:20:30Z</time>
      </trkpt>
      <trkpt lat="41.1417030" lon="-8.6130310">
        <ele>24.1</ele>
        <time>2021-05-15T17:20:31Z</time>
      </trkpt>
      <trkpt lat="41.1417100" lon="-8.6130490">
        <ele>24.3</ele>
        <time>2021-05-15T17:20:32Z</time>
      </trkpt>
      <trkpt lat="41.1417160" lon="-8.6130610">
        <ele>24.4</ele>
        <time>2021-05-15T17:20:33Z</time>
      </trkpt>
      <trkpt lat="41.1417220" lon="-8.6130720">
        <ele>24.5</ele>
        <time>2021-05-15T17:20:34Z</time>
      </trkpt>
      <trkpt lat="41.1417290" lon="-8.6130890">
        <ele>24.7</ele>
        <time>2021-05-15T17:20:35Z</time>
      </trkpt>
      <trkpt lat="41.1417390" lon="-8.6131130">
        <ele>25.0</ele>
        <time>2021-05-15T17:20:36Z</time>
      </trkpt>
      <trkpt lat="41.1417480" lon="-8.6131170">
        <ele>25.1</ele>
        <time>2021-05-15T17:20:37Z</time>
      </trkpt>
      <trkpt lat="41.1417590" lon="-8.6131290">
        <ele>25.3</ele>
        <time>2021-05-15T17:20:38Z</time>
      </trkpt>
      <trkpt lat="41.1417670" lon="-8.6131320">
        <ele>25.4</ele>
        <time>2021-05-15T17:20:39Z</time>
      </trkpt>
      <trkpt lat="41.1417850" lon="-8.6131600">
        <ele>25.7</ele>
        <time>2021-05-15T17:20:40Z</time>
      </trkpt>
      <trkpt lat="41.1417940" lon="-8.6131870">
        <ele>26.0</ele>
        <time>2021-05-15T17:20:41Z</time>
      </trkpt>
      <trkpt lat="41.1417970" lon="-8.6132050">
        <ele>26.1</ele>
        <time>2021-05-15T17:20:42Z</time>
      </trkpt>
      <trkpt lat="41.1418030" lon="-8.6132350">
        <ele>26.4</ele>
        <time>2021-05-15T17:20:43Z</time>
      </trkpt>
      <trkpt lat="41.1418190" lon="-8.6132320">
        <ele>26.6</ele>
        <time>2021-05-15T17:20:44Z</time>
      </trkpt>
      <trkpt lat="41.1418380" lon="-8.6132380">
        <ele>26.8</ele>
        <time>2021-05-15T17:20:45Z</time>
      </trkpt>
      <trkpt lat="41.1418450" lon="-8.6132430">
        <ele>26.9</ele>
        <time>2021-05-15T17:20:46Z</time>
      </trkpt>
      <trkpt lat="41.1418530" lon="-8.6132480">
        <ele>27.0</ele>
        <time>2021-05-15T17:20:47Z</time>
      </trkpt>
      <trkpt lat="41.1418680" lon="-8.6132630">
        <ele>27.2</ele>
        <time>2021-05-15T17:20:48Z</time>
      </trkpt>
      <trkpt lat="41.1418730" lon="-8.6132730">
        <ele>27.3</ele>
        <time>2021-05-15T17:20:49Z</time>
      </trkpt>
      <trkpt lat="41.1418790" lon="-8.6132840">
        <ele>27.4</ele>
        <time>2021-05-15T17:20:50Z</time>
      </trkpt>
      <trkpt lat="41.1418810" lon="-8.6132900">
        <ele>27.4</ele>
        <time>2021-05-15T17:20:51Z</time>
      </trkpt>
      <trkpt lat="41.1418850" lon="-8.6132930">
        <ele>27.5</ele>
        <time>2021-05-15T17:20:52Z</time>
      </trkpt>
      <trkpt lat="41.1418900" lon="-8.6132970">
        <ele>27.5</ele>
        <time>2021-05-15T17:20:53Z</time>
      </trkpt>
      <trkpt lat="41.1418990" lon="-8.6133060">
        <ele>27.6</ele>
        <time>2021-05-15T17:20:54Z</time>
      </trkpt>
      <trkpt lat="41.1419020" lon="-8.6133210">
        <ele>27.8</ele>
        <time>2021-05-15T17:20:55Z</time>
      </trkpt>
      <trkpt lat="41.1419180" lon="-8.6133340">
        <ele>28.0</ele>
        <time>2021-05-15T17:20:56Z</time>
      </trkpt>
      <trkpt lat="41.1419280" lon="-8.6133420">
        <ele>28.1</ele>
        <time>2021-05-15T17:20:57Z</time>
      </trkpt>
      <trkpt lat="41.1419330" lon="-8.6133560">
        <ele>28.2</ele>
        <time>2021-05-15T17:20:58Z</time>
      </trkpt>
      <trkpt lat="41.1419550" lon="-8.6133530">
        <ele>28.4</ele>
        <time>2021-05-15T17:20:59Z</time>
      </trkpt>
      <trkpt lat="41.1419760" lon="-8.6133620">
        <ele>28.6</ele>
        <time>2021-05-15T17:21:00Z</time>
      </trkpt>
      <trkpt lat="41.1419840" lon="-8.6133660">
        <ele>28.7</ele>
        <time>2021-05-15T17:21:01Z</time>
      </trkpt>
      <trkpt lat="41.1419920" lon="-8.6133710">
        <ele>28.8</ele>
        <time>2021-05-15T17:21:02Z</time>
      </trkpt>
      <trkpt lat="41.1420200" lon="-8.6133770">
        <ele>29.1</ele>
        <time>2021-05-15T17:21:03Z</time>
      </trkpt>
      <trkpt lat="41.1420300" lon="-8.6133760">
        <ele>29.2</ele>
        <time>2021-05-15T17:21:04Z</time>
      </trkpt>
      <trkpt lat="41.1420400" lon="-8.6133810">
        <ele>29.3</ele>
        <time>2021-05-15T17:21:05Z</time>
      </trkpt>
      <trkpt lat="41.1420480" lon="-8.6133880">
        <ele>29.4</ele>
        <time>2021-05-15T17:21:06Z</time>
      </trkpt>
      <trkpt lat="41.1420490" lon="-8.6133980">
        <ele>29.4</ele>
        <time>2021-05-15T17:21:07Z</time>
      </trkpt>
      <trkpt lat="41.1420610" lon="-8.6134010">
        <ele>29.6</ele>
        <time>2021-05-15T17:21:08Z</time>
      </trkpt>
      <trkpt lat="41.1420700" lon="-8.6134220">
        <ele>29.7</ele>
        <time>2021-05-15T17:21:09Z</time>
      </trkpt>
      <trkpt lat="41.1420730" lon="-8.6134320">
        <ele>29.8</ele>
        <time>2021-05-15T17:21:10Z</time>
      </trkpt>
      <trkpt lat="41.1420750" lon="-8.6134410">
        <ele>29.9</ele>
        <time>2021-05-15T17:21:11Z</time>
      </trkpt>
      <trkpt lat="41.1420770" lon="-8.6134510">
        <ele>30.0</ele>
        <time>2021-05-15T17:21:12Z</time>
      </trkpt>
      <trkpt lat="41.1420910" lon="-8.6134550">
        <ele>30.1</ele>
        <time>2021-05-15T17:21:13Z</time>
      </trkpt>
      <trkpt lat="41.1421100" lon="-8.6134450">
        <ele>30.3</ele>
        <time>2021-05-15T17:21:14Z</time>
      </trkpt>
      <trkpt lat="41.1421400" lon="-8.6134110">
        <ele>30.7</ele>
        <time>2021-05-15T17:21:15Z</time>
      </trkpt>
      <trkpt lat="41.1421700" lon="-8.6133780">
        <ele>31.1</ele>
        <time>2021-05-15T17:21:16Z</time>
      </trkpt>
      <trkpt lat="41.1422000" lon="-8.6133220">
        <ele>31.6</ele>
        <time>2021-05-15T17:21:17Z</time>
      </trkpt>
      <trkpt lat="41.1422230" lon="-8.6132970">
        <ele>31.9</ele>
        <time>2021-05-15T17:21:18Z</time>
      </trkpt>
      <trkpt lat="41.1422370" lon="-8.6133300">
        <ele>32.2</ele>
        <time>2021-05-15T17:21:19Z</time>
      </trkpt>
      <trkpt lat="41.1422340" lon="-8.6133720">
        <ele>32.5</ele>
        <time>2021-05-15T17:21:20Z</time>
      </trkpt>
      <trkpt lat="41.1422340" lon="-8.6133880">
        <ele>32.6</ele>
        <time>2021-05-15T17:21:21Z</time>
      </trkpt>
      <trkpt lat="41.1422420" lon="-8.6133980">
        <ele>32.7</ele>
        <time>2021-05-15T17:21:22Z</time>
      </trkpt>
      <trkpt lat="41.1422490" lon="-8.6134190">
        <ele>32.9</ele>
        <time>2021-05-15T17:21:23Z</time>
      </trkpt>
      <trkpt lat="41.1422510" lon="-8.6134480">
        <ele>33.1</ele>
        <time>2021-05-15T17:21:24Z</time>
      </trkpt>
      <trkpt lat="41.1422550" lon="-8.6134660">
        <ele>33.3</ele>
        <time>2021-05-15T17:21:25Z</time>
      </trkpt>
      <trkpt lat="41.1422590" lon="-8.6134840">
        <ele>33.4</ele>
        <time>2021-05-15T17:21:26Z</time>
      </trkpt>
      <trkpt lat="41.1422650" lon="-8.6135260">
        <ele>33.8</ele>
        <time>2021-05-15T17:21:27Z</time>
      </trkpt>
      <trkpt lat="41.1422680" lon="-8.6135720">
        <ele>34.1</ele>
        <time>2021-05-15T17:21:28Z</time>
      </trkpt>
      <trkpt lat="41.1422720" lon="-8.6136010">
        <ele>34.4</ele>
        <time>2021-05-15T17:21:29Z</time>
      </trkpt>
      <trkpt lat="41.1422700" lon="-8.6136060">
        <ele>34.4</ele>
        <time>2021-05-15T17:21:30Z</time>
      </trkpt>
      <trkpt lat="41.1422740" lon="-8.6136140">
        <ele>34.5</ele>
        <time>2021-05-15T17:21:31Z</time>
      </trkpt>
      <trkpt lat="41.1423010" lon="-8.6136050">
        <ele>34.8</ele>
        <time>2021-05-15T17:21:32Z</time>
      </trkpt>
      <trkpt lat="41.1423180" lon="-8.6135950">
        <ele>35.0</ele>
        <time>2021-05-15T17:21:33Z</time>
      </trkpt>
      <trkpt lat="41.1423570" lon="-8.6135730">
        <ele>35.5</ele>
        <time>2021-05-15T17:21:34Z</time>
      </trkpt>
      <trkpt lat="41.1423890" lon="-8.6135630">
        <ele>35.8</ele>
        <time>2021-05-15T17:21:35Z</time>
      </trkpt>
      <trkpt lat="41.1424000" lon="-8.6135670">
        <ele>36.0</ele>
        <time>2021-05-15T17:21:36Z</time>
      </trkpt>
      <trkpt lat="41.1424180" lon="-8.6135410">
        <ele>36.3</ele>
        <time>2021-05-15T17:21:37Z</time>
      </trkpt>
      <trkpt lat="41.1424540" lon="-8.6135470">
        <ele>36.7</ele>
        <time>2021-05-15T17:21:38Z</time>
      </trkpt>
      <trkpt lat="41.1424680" lon="-8.6135450">
        <ele>36.9</ele>
        <time>2021-05-15T17:21:39Z</time>
      </trkpt>
      <trkpt lat="41.1425090" lon="-8.6135230">
        <ele>37.4</ele>
        <time>2021-05-15T17:21:40Z</time>
      </trkpt>
      <trkpt lat="41.1425100" lon="-8.6135130">
        <ele>37.5</ele>
        <time>2021-05-15T17:21:41Z</time>
      </trkpt>
      <trkpt lat="41.1425190" lon="-8.6134980">
        <ele>37.6</ele>
        <time>2021-05-15T17:21:42Z</time>
      </trkpt>
      <trkpt lat="41.1425120" lon="-8.6134940">
        <ele>37.7</ele>
        <time>2021-05-15T17:21:43Z</time>
      </trkpt>
      <trkpt lat="41.1425260" lon="-8.6135190">
        <ele>38.0</ele>
        <time>2021-05-15T17:21:44Z</time>
      </trkpt>
      <trkpt lat="41.1425400" lon="-8.6135250">
        <ele>38.1</ele>
        <time>2021-05-15T17:21:45Z</time>
      </trkpt>
      <trkpt lat="41.1425510" lon="-8.6135100">
        <ele>38.3</ele>
        <time>2021-05-15T17:21:46Z</time>
      </trkpt>
      <trkpt lat="41.1425580" lon="-8.6135080">
        <ele>38.4</ele>
        <time>2021-05-15T17:21:47Z</time>
      </trkpt>
      <trkpt lat="41.1425680" lon="-8.6135300">
        <ele>38.6</ele>
        <time>2021-05-15T17:21:48Z</time>
      </trkpt>
      <trkpt lat="41.1425790" lon="-8.6135320">
        <ele>38.7</ele>
        <time>2021-05-15T17:21:49Z</time>
      </trkpt>
      <trkpt lat="41.1425840" lon="-8.6135530">
        <ele>38.9</ele>
        <time>2021-05-15T17:21:50Z</time>
      </trkpt>
      <trkpt lat="41.1425950" lon="-8.6135570">
        <ele>39.0</ele>
        <time>2021-05-15T17:21:51Z</time>
      </trkpt>
      <trkpt lat="41.1426050" lon="-8.6135620">
        <ele>39.1</ele>
        <time>2021-05-15T17:21:52Z</time>
      </trkpt>
      <trkpt lat="41.1426140" lon="-8.6135690">
        <ele>39.2</ele>
        <time>2021-05-15T17:21:53Z</time>
      </trkpt>
      <trkpt lat="41.1426170" lon="-8.6135910">
        <ele>39.4</ele>
        <time>2021-05-15T17:21:54Z</time>
      </trkpt>
      <trkpt lat="41.1426310" lon="-8.6136260">
        <ele>39.7</ele>
        <time>2021-05-15T17:21:55Z</time>
      </trkpt>
      <trkpt lat="41.1426400" lon="-8.6136320">
        <ele>39.8</ele>
        <time>2021-05-15T17:21:56Z</time>
      </trkpt>
      <trkpt lat="41.1426480" lon="-8.6136380">
        <ele>39.9</ele>
        <time>2021-05-15T17:21:57Z</time>
      </trkpt>
      <trkpt lat="41.1426560" lon="-8.6136440">
        <ele>40.0</ele>
        <time>2021-05-15T17:21:58Z</time>
      </trkpt>
      <trkpt lat="41.1426660" lon="-8.6136730">
        <ele>40.4</ele>
        <time>2021-05-15T17:21:59Z</time>
      </trkpt>
      <trkpt lat="41.1426680" lon="-8.6136950">
        <ele>40.5</ele>
        <time>2021-05-15T17:22:00Z</time>
      </trkpt>
      <trkpt lat="41.1426740" lon="-8.6137020">
        <ele>40.6</ele>
        <time>2021-05-15T17:22:01Z</time>
      </trkpt>
      <trkpt lat="41.1426800" lon="-8.6137040">
        <ele>40.6</ele>
        <time>2021-05-15T17:22:02Z</time>
      </trkpt>
      <trkpt lat="41.1426860" lon="-8.6137050">
        <ele>40.6</ele>
        <time>2021-05-15T17:22:03Z</time>
      </trkpt>
      <trkpt lat="41.1426910" lon="-8.6137060">
        <ele>40.7</ele>
        <time>2021-05-15T17:22:04Z</time>
      </trkpt>
      <trkpt lat="41.1426970" lon="-8.6137080">
        <ele>40.7</ele>
        <time>2021-05-15T17:22:05Z</time>
      </trkpt>
      <trkpt lat="41.1427030" lon="-8.6137090">
        <ele>40.7</ele>
        <time>2021-05-15T17:22:06Z</time>
      </trkpt>
      <trkpt lat="41.1427060" lon="-8.6137030">
        <ele>40.8</ele>
        <time>2021-05-15T17:22:07Z</time>
      </trkpt>
      <trkpt lat="41.1427110" lon="-8.6136830">
        <ele>41.0</ele>
        <time>2021-05-15T17:22:08Z</time>
      </trkpt>
      <trkpt lat="41.1427180" lon="-8.6136700">
        <ele>41.2</ele>
        <time>2021-05-15T17:22:09Z</time>
      </trkpt>
      <trkpt lat="41.1427360" lon="-8.6136470">
        <ele>41.5</ele>
        <time>2021-05-15T17:22:10Z</time>
      </trkpt>
      <trkpt lat="41.1427390" lon="-8.6136430">
        <ele>41.6</ele>
        <time>2021-05-15T17:22:11Z</time>
      </trkpt>
      <trkpt lat="41.1427500" lon="-8.6136310">
        <ele>41.8</ele>
        <time>2021-05-15T17:22:12Z</time>
      </trkpt>
      <trkpt lat="41.1427500" lon="-8.6136060">
        <ele>42.1</ele>
        <time>2021-05-15T17:22:13Z</time>
      </trkpt>
      <trkpt lat="41.1427550" lon="-8.6135850">
        <ele>42.3</ele>
        <time>2021-05-15T17:22:14Z</time>
      </trkpt>
      <trkpt lat="41.1427590" lon="-8.6135750">
        <ele>42.4</ele>
        <time>2021-05-15T17:22:15Z</time>
      </trkpt>
      <trkpt lat="41.1427630" lon="-8.6135640">
        <ele>42.6</ele>
        <time>2021-05-15T17:22:16Z</time>
      </trkpt>
      <trkpt lat="41.1427670" lon="-8.6135540">
        <ele>42.7</ele>
        <time>2021-05-15T17:22:17Z</time>
      </trkpt>
      <trkpt lat="41.1427860" lon="-8.6135130">
        <ele>43.2</ele>
        <time>2021-05-15T17:22:18Z</time>
      </trkpt>
      <trkpt lat="41.1427930" lon="-8.6134940">
        <ele>43.4</ele>
        <time>2021-05-15T17:22:19Z</time>
      </trkpt>
      <trkpt lat="41.1427930" lon="-8.6134820">
        <ele>44.6</ele>
        <time>2021-05-15T17:22:20Z</time>
      </trkpt>
      <trkpt lat="41.1427890" lon="-8.6134830">
        <ele>44.7</ele>
        <time>2021-05-15T17:22:21Z</time>
      </trkpt>
      <trkpt lat="41.1427840" lon="-8.6134830">
        <ele>44.7</ele>
        <time>2021-05-15T17:22:22Z</time>
      </trkpt>
      <trkpt lat="41.1427800" lon="-8.6134840">
        <ele>44.8</ele>
        <time>2021-05-15T17:22:23Z</time>
      </trkpt>
      <trkpt lat="41.1427750" lon="-8.6134840">
        <ele>44.8</ele>
        <time>2021-05-15T17:22:24Z</time>
      </trkpt>
      <trkpt lat="41.1427710" lon="-8.6134850">
        <ele>44.9</ele>
        <time>2021-05-15T17:22:25Z</time>
      </trkpt>
      <trkpt lat="41.1427660" lon="-8.6134850">
        <ele>44.9</ele>
        <time>2021-05-15T17:22:26Z</time>
      </trkpt>
      <trkpt lat="41.1427620" lon="-8.6134860">
        <ele>45.0</ele>
        <time>2021-05-15T17:22:27Z</time>
      </trkpt>
      <trkpt lat="41.1427570" lon="-8.6134860">
        <ele>45.0</ele>
        <time>2021-05-15T17:22:28Z</time>
      </trkpt>
      <trkpt lat="41.1427530" lon="-8.6134870">
        <ele>45.1</ele>
        <time>2021-05-15T17:22:29Z</time>
      </trkpt>
      <trkpt lat="41.1427480" lon="-8.6134870">
        <ele>45.1</ele>
        <time>2021-05-15T17:22:30Z</time>
      </trkpt>
      <trkpt lat="41.1427440" lon="-8.6134880">
        <ele>45.2</ele>
        <time>2021-05-15T17:22:31Z</time>
      </trkpt>
      <trkpt lat="41.1427390" lon="-8.6134880">
        <ele>45.2</ele>
        <time>2021-05-15T17:22:32Z</time>
      </trkpt>
      <trkpt lat="41.1427350" lon="-8.6134890">
        <ele>45.3</ele>
        <time>2021-05-15T17:22:33Z</time>
      </trkpt>
      <trkpt lat="41.1427300" lon="-8.6134890">
        <ele>45.3</ele>
        <time>2021-05-15T17:22:34Z</time>
      </trkpt>
      <trkpt lat="41.1426990" lon="-8.6134780">
        <ele>45.6</ele>
        <time>2021-05-15T17:22:35Z</time>
      </trkpt>
      <trkpt lat="41.1426910" lon="-8.6134740">
        <ele>45.7</ele>
        <time>2021-05-15T17:22:36Z</time>
      </trkpt>
      <trkpt lat="41.1426930" lon="-8.6134400">
        <ele>46.0</ele>
        <time>2021-05-15T17:22:37Z</time>
      </trkpt>
      <trkpt lat="41.1426830" lon="-8.6134120">
        <ele>46.2</ele>
        <time>2021-05-15T17:22:38Z</time>
      </trkpt>
      <trkpt lat="41.1426940" lon="-8.6134020">
        <ele>46.4</ele>
        <time>2021-05-15T17:22:39Z</time>
      </trkpt>
      <trkpt lat="41.1427020" lon="-8.6133760">
        <ele>46.6</ele>
        <time>2021-05-15T17:22:40Z</time>
      </trkpt>
      <trkpt lat="41.1427080" lon="-8.6133570">
        <ele>46.8</ele>
        <time>2021-05-15T17:22:41Z</time>
      </trkpt>
      <trkpt lat="41.1427130" lon="-8.6133390">
        <ele>46.9</ele>
        <time>2021-05-15T17:22:42Z</time>
      </trkpt>
      <trkpt lat="41.1427180" lon="-8.6133200">
        <ele>47.1</ele>
        <time>2021-05-15T17:22:43Z</time>
      </trkpt>
      <trkpt lat="41.1427120" lon="-8.6133410">
        <ele>47.3</ele>
        <time>2021-05-15T17:22:44Z</time>
      </trkpt>
      <trkpt lat="41.1427070" lon="-8.6133430">
        <ele>47.3</ele>
        <time>2021-05-15T17:22:45Z</time>
      </trkpt>
      <trkpt lat="41.1426990" lon="-8.6133470">
        <ele>47.4</ele>
        <time>2021-05-15T17:22:46Z</time>
      </trkpt>
      <trkpt lat="41.1427010" lon="-8.6133330">
        <ele>47.5</ele>
        <time>2021-05-15T17:22:47Z</time>
      </trkpt>
      <trkpt lat="41.1426900" lon="-8.6133230">
        <ele>47.6</ele>
        <time>2021-05-15T17:22:48Z</time>
      </trkpt>
      <trkpt lat="41.1426770" lon="-8.6133390">
        <ele>47.8</ele>
        <time>2021-05-15T17:22:49Z</time>
      </trkpt>
      <trkpt lat="41.1426690" lon="-8.6133380">
        <ele>47.9</ele>
        <time>2021-05-15T17:22:50Z</time>
      </trkpt>
      <trkpt lat="41.1426820" lon="-8.6133010">
        <ele>48.2</ele>
        <time>2021-05-15T17:22:51Z</time>
      </trkpt>
      <trkpt lat="41.1426830" lon="-8.6132870">
        <ele>48.3</ele>
        <time>2021-05-15T17:22:52Z</time>
      </trkpt>
      <trkpt lat="41.1426730" lon="-8.6132960">
        <ele>48.4</ele>
        <time>2021-05-15T17:22:53Z</time>
      </trkpt>
      <trkpt lat="41.1426640" lon="-8.6133010">
        <ele>48.5</ele>
        <time>2021-05-15T17:22:54Z</time>
      </trkpt>
      <trkpt lat="41.1426590" lon="-8.6133040">
        <ele>48.6</ele>
        <time>2021-05-15T17:22:55Z</time>
      </trkpt>
      <trkpt lat="41.1426500" lon="-8.6132980">
        <ele>48.7</ele>
        <time>2021-05-15T17:22:56Z</time>
      </trkpt>
      <trkpt lat="41.1426340" lon="-8.6132920">
        <ele>48.8</ele>
        <time>2021-05-15T17:22:57Z</time>
      </trkpt>
      <trkpt lat="41.1426400" lon="-8.6132610">
        <ele>49.1</ele>
        <time>2021-05-15T17:22:58Z</time>
      </trkpt>
      <trkpt lat="41.1426170" lon="-8.6132830">
        <ele>49.3</ele>
        <time>2021-05-15T17:22:59Z</time>
      </trkpt>
      <trkpt lat="41.1426020" lon="-8.6132900">
        <ele>49.5</ele>
        <time>2021-05-15T17:23:00Z</time>
      </trkpt>
      <trkpt lat="41.1426030" lon="-8.6132780">
        <ele>49.5</ele>
        <time>2021-05-15T17:23:01Z</time>
      </trkpt>
      <trkpt lat="41.1425940" lon="-8.6132910">
        <ele>49.7</ele>
        <time>2021-05-15T17:23:02Z</time>
      </trkpt>
      <trkpt lat="41.1425850" lon="-8.6132960">
        <ele>49.7</ele>
        <time>2021-05-15T17:23:03Z</time>
      </trkpt>
      <trkpt lat="41.1425520" lon="-8.6133250">
        <ele>50.1</ele>
        <time>2021-05-15T17:23:04Z</time>
      </trkpt>
      <trkpt lat="41.1425330" lon="-8.6133420">
        <ele>50.3</ele>
        <time>2021-05-15T17:23:05Z</time>
      </trkpt>
      <trkpt lat="41.1425150" lon="-8.6133540">
        <ele>50.5</ele>
        <time>2021-05-15T17:23:06Z</time>
      </trkpt>
      <trkpt lat="41.1425160" lon="-8.6133230">
        <ele>50.7</ele>
        <time>2021-05-15T17:23:07Z</time>
      </trkpt>
      <trkpt lat="41.1425060" lon="-8.6133330">
        <ele>50.8</ele>
        <time>2021-05-15T17:23:08Z</time>
      </trkpt>
      <trkpt lat="41.1425010" lon="-8.6133070">
        <ele>51.0</ele>
        <time>2021-05-15T17:23:09Z</time>
      </trkpt>
      <trkpt lat="41.1425010" lon="-8.6132940">
        <ele>51.0</ele>
        <time>2021-05-15T17:23:10Z</time>
      </trkpt>
      <trkpt lat="41.1425020" lon="-8.6132800">
        <ele>51.1</ele>
        <time>2021-05-15T17:23:11Z</time>
      </trkpt>
      <trkpt lat="41.1425040" lon="-8.6132600">
        <ele>51.3</ele>
        <time>2021-05-15T17:23:12Z</time>
      </trkpt>
      <trkpt lat="41.1425070" lon="-8.6132440">
        <ele>51.4</ele>
        <time>2021-05-15T17:23:13Z</time>
      </trkpt>
      <trkpt lat="41.1425190" lon="-8.6131750">
        <ele>53.1</ele>
        <time>2021-05-15T17:23:14Z</time>
      </trkpt>
      <trkpt lat="41.1425130" lon="-8.6131380">
        <ele>53.5</ele>
        <time>2021-05-15T17:23:15Z</time>
      </trkpt>
      <trkpt lat="41.1425190" lon="-8.6131160">
        <ele>53.7</ele>
        <time>2021-05-15T17:23:16Z</time>
      </trkpt>
      <trkpt lat="41.1425170" lon="-8.6130990">
        <ele>53.9</ele>
        <time>2021-05-15T17:23:17Z</time>
      </trkpt>
      <trkpt lat="41.1425160" lon="-8.6130830">
        <ele>54.1</ele>
        <time>2021-05-15T17:23:18Z</time>
      </trkpt>
      <trkpt lat="41.1425080" lon="-8.6130420">
        <ele>55.1</ele>
        <time>2021-05-15T17:23:19Z</time>
      </trkpt>
      <trkpt lat="41.1425070" lon="-8.6130300">
        <ele>55.1</ele>
        <time>2021-05-15T17:23:20Z</time>
      </trkpt>
      <trkpt lat="41.1425020" lon="-8.6130180">
        <ele>55.1</ele>
        <time>2021-05-15T17:23:21Z</time>
      </trkpt>
      <trkpt lat="41.1424970" lon="-8.6130160">
        <ele>55.1</ele>
        <time>2021-05-15T17:23:22Z</time>
      </trkpt>
      <trkpt lat="41.1424860" lon="-8.6130250">
        <ele>55.1</ele>
        <time>2021-05-15T17:23:23Z</time>
      </trkpt>
      <trkpt lat="41.1424830" lon="-8.6130270">
        <ele>55.1</ele>
        <time>2021-05-15T17:23:24Z</time>
      </trkpt>
      <trkpt lat="41.1424910" lon="-8.6130280">
        <ele>55.1</ele>
        <time>2021-05-15T17:23:25Z</time>
      </trkpt>
      <trkpt lat="41.1424860" lon="-8.6130410">
        <ele>55.1</ele>
        <time>2021-05-15T17:23:26Z</time>
      </trkpt>
      <trkpt lat="41.1424870" lon="-8.6130600">
        <ele>55.1</ele>
        <time>2021-05-15T17:23:27Z</time>
      </trkpt>
      <trkpt lat="41.1424970" lon="-8.6130700">
        <ele>55.1</ele>
        <time>2021-05-15T17:23:28Z</time>
      </trkpt>
      <trkpt lat="41.1425050" lon="-8.6130680">
        <ele>55.1</ele>
        <time>2021-05-15T17:23:29Z</time>
      </trkpt>
      <trkpt lat="41.1425140" lon="-8.6130660">
        <ele>55.1</ele>
        <time>2021-05-15T17:23:30Z</time>
      </trkpt>
      <trkpt lat="41.1425220" lon="-8.6130640">
        <ele>55.1</ele>
        <time>2021-05-15T17:23:31Z</time>
      </trkpt>
      <trkpt lat="41.1425310" lon="-8.6130620">
        <ele>55.1</ele>
        <time>2021-05-15T17:23:32Z</time>
      </trkpt>
      <trkpt lat="41.1425390" lon="-8.6130600">
        <ele>55.1</ele>
        <time>2021-05-15T17:23:33Z</time>
      </trkpt>
      <trkpt lat="41.1425480" lon="-8.6130580">
        <ele>55.1</ele>
        <time>2021-05-15T17:23:34Z</time>
      </trkpt>
      <trkpt lat="41.1425560" lon="-8.6130560">
        <ele>55.1</ele>
        <time>2021-05-15T17:23:35Z</time>
      </trkpt>
      <trkpt lat="41.1425650" lon="-8.6130540">
        <ele>55.1</ele>
        <time>2021-05-15T17:23:36Z</time>
      </trkpt>
      <trkpt lat="41.1425730" lon="-8.6130520">
        <ele>55.1</ele>
        <time>2021-05-15T17:23:37Z</time>
      </trkpt>
      <trkpt lat="41.1425820" lon="-8.6130500">
        <ele>55.1</ele>
        <time>2021-05-15T17:23:39Z</time>
      </trkpt>
      <trkpt lat="41.1425900" lon="-8.6130480">
        <ele>55.1</ele>
        <time>2021-05-15T17:23:40Z</time>
      </trkpt>
      <trkpt lat="41.1425990" lon="-8.6130460">
        <ele>55.2</ele>
        <time>2021-05-15T17:23:41Z</time>
      </trkpt>
      <trkpt lat="41.1426070" lon="-8.6130440">
        <ele>55.5</ele>
        <time>2021-05-15T17:23:42Z</time>
      </trkpt>
      <trkpt lat="41.1426160" lon="-8.6130420">
        <ele>55.8</ele>
        <time>2021-05-15T17:23:43Z</time>
      </trkpt>
      <trkpt lat="41.1426250" lon="-8.6130400">
        <ele>56.1</ele>
        <time>2021-05-15T17:23:44Z</time>
      </trkpt>
      <trkpt lat="41.1426330" lon="-8.6130380">
        <ele>56.4</ele>
        <time>2021-05-15T17:23:45Z</time>
      </trkpt>
      <trkpt lat="41.1426420" lon="-8.6130360">
        <ele>56.7</ele>
        <time>2021-05-15T17:23:46Z</time>
      </trkpt>
      <trkpt lat="41.1426500" lon="-8.6130340">
        <ele>57.0</ele>
        <time>2021-05-15T17:23:47Z</time>
      </trkpt>
      <trkpt lat="41.1426590" lon="-8.6130320">
        <ele>57.3</ele>
        <time>2021-05-15T17:23:48Z</time>
      </trkpt>
      <trkpt lat="41.1426670" lon="-8.6130300">
        <ele>57.6</ele>
        <time>2021-05-15T17:23:49Z</time>
      </trkpt>
      <trkpt lat="41.1426760" lon="-8.6130280">
        <ele>57.9</ele>
        <time>2021-05-15T17:23:50Z</time>
      </trkpt>
      <trkpt lat="41.1426840" lon="-8.6130260">
        <ele>58.2</ele>
        <time>2021-05-15T17:23:51Z</time>
      </trkpt>
      <trkpt lat="41.1426930" lon="-8.6130240">
        <ele>58.5</ele>
        <time>2021-05-15T17:23:52Z</time>
      </trkpt>
      <trkpt lat="41.1427010" lon="-8.6130220">
        <ele>58.8</ele>
        <time>2021-05-15T17:23:53Z</time>
      </trkpt>
      <trkpt lat="41.1427100" lon="-8.6130200">
        <ele>59.2</ele>
        <time>2021-05-15T17:23:54Z</time>
      </trkpt>
      <trkpt lat="41.1427180" lon="-8.6130180">
        <ele>59.4</ele>
        <time>2021-05-15T17:23:55Z</time>
      </trkpt>
      <trkpt lat="41.1427270" lon="-8.6130160">
        <ele>60.0</ele>
        <time>2021-05-15T17:23:56Z</time>
      </trkpt>
      <trkpt lat="41.1427350" lon="-8.6130140">
        <ele>60.1</ele>
        <time>2021-05-15T17:23:57Z</time>
      </trkpt>
      <trkpt lat="41.1427440" lon="-8.6130120">
        <ele>60.1</ele>
        <time>2021-05-15T17:23:58Z</time>
      </trkpt>
      <trkpt lat="41.1427460" lon="-8.6130230">
        <ele>60.1</ele>
        <time>2021-05-15T17:23:59Z</time>
      </trkpt>
      <trkpt lat="41.1427460" lon="-8.6130250">
        <ele>60.1</ele>
        <time>2021-05-15T17:24:00Z</time>
      </trkpt>
      <trkpt lat="41.1427490" lon="-8.6130260">
        <ele>60.1</ele>
        <time>2021-05-15T17:24:01Z</time>
      </trkpt>
      <trkpt lat="41.1427620" lon="-8.6130430">
        <ele>60.1</ele>
        <time>2021-05-15T17:24:02Z</time>
      </trkpt>
      <trkpt lat="41.1427700" lon="-8.6130420">
        <ele>60.1</ele>
        <time>2021-05-15T17:24:03Z</time>
      </trkpt>
      <trkpt lat="41.1427740" lon="-8.6130460">
        <ele>60.1</ele>
        <time>2021-05-15T17:24:04Z</time>
      </trkpt>
      <trkpt lat="41.1427700" lon="-8.6130430">
        <ele>60.1</ele>
        <time>2021-05-15T17:24:05Z</time>
      </trkpt>
      <trkpt lat="41.1427790" lon="-8.6130210">
        <ele>60.3</ele>
        <time>2021-05-15T17:24:06Z</time>
      </trkpt>
      <trkpt lat="41.1427860" lon="-8.6130120">
        <ele>60.6</ele>
        <time>2021-05-15T17:24:07Z</time>
      </trkpt>
      <trkpt lat="41.1427920" lon="-8.6130010">
        <ele>60.8</ele>
        <time>2021-05-15T17:24:08Z</time>
      </trkpt>
      <trkpt lat="41.1428010" lon="-8.6129940">
        <ele>61.1</ele>
        <time>2021-05-15T17:24:09Z</time>
      </trkpt>
      <trkpt lat="41.1428070" lon="-8.6129950">
        <ele>61.2</ele>
        <time>2021-05-15T17:24:10Z</time>
      </trkpt>
      <trkpt lat="41.1428060" lon="-8.6129800">
        <ele>61.5</ele>
        <time>2021-05-15T17:24:11Z</time>
      </trkpt>
      <trkpt lat="41.1428120" lon="-8.6129610">
        <ele>61.9</ele>
        <time>2021-05-15T17:24:12Z</time>
      </trkpt>
      <trkpt lat="41.1428160" lon="-8.6129490">
        <ele>62.2</ele>
        <time>2021-05-15T17:24:13Z</time>
      </trkpt>
      <trkpt lat="41.1428240" lon="-8.6129470">
        <ele>62.4</ele>
        <time>2021-05-15T17:24:14Z</time>
      </trkpt>
      <trkpt lat="41.1428280" lon="-8.6129400">
        <ele>62.6</ele>
        <time>2021-05-15T17:24:15Z</time>
      </trkpt>
      <trkpt lat="41.1428330" lon="-8.6129260">
        <ele>62.9</ele>
        <time>2021-05-15T17:24:16Z</time>
      </trkpt>
      <trkpt lat="41.1428350" lon="-8.6129140">
        <ele>63.1</ele>
        <time>2021-05-15T17:24:17Z</time>
      </trkpt>
      <trkpt lat="41.1428430" lon="-8.6129010">
        <ele>63.4</ele>
        <time>2021-05-15T17:24:18Z</time>
      </trkpt>
      <trkpt lat="41.1428490" lon="-8.6128990">
        <ele>63.6</ele>
        <time>2021-05-15T17:24:19Z</time>
      </trkpt>
      <trkpt lat="41.1428550" lon="-8.6128960">
        <ele>63.8</ele>
        <time>2021-05-15T17:24:20Z</time>
      </trkpt>
      <trkpt lat="41.1428610" lon="-8.6128940">
        <ele>63.9</ele>
        <time>2021-05-15T17:24:21Z</time>
      </trkpt>
      <trkpt lat="41.1428670" lon="-8.6128910">
        <ele>64.1</ele>
        <time>2021-05-15T17:24:22Z</time>
      </trkpt>
      <trkpt lat="41.1428730" lon="-8.6128890">
        <ele>64.3</ele>
        <time>2021-05-15T17:24:23Z</time>
      </trkpt>
      <trkpt lat="41.1428750" lon="-8.6128830">
        <ele>64.4</ele>
        <time>2021-05-15T17:24:24Z</time>
      </trkpt>
      <trkpt lat="41.1428820" lon="-8.6128800">
        <ele>64.6</ele>
        <time>2021-05-15T17:24:25Z</time>
      </trkpt>
      <trkpt lat="41.1428950" lon="-8.6128710">
        <ele>65.0</ele>
        <time>2021-05-15T17:24:26Z</time>
      </trkpt>
      <trkpt lat="41.1429040" lon="-8.6128620">
        <ele>65.3</ele>
        <time>2021-05-15T17:24:27Z</time>
      </trkpt>
      <trkpt lat="41.1429080" lon="-8.6128580">
        <ele>65.4</ele>
        <time>2021-05-15T17:24:28Z</time>
      </trkpt>
      <trkpt lat="41.1429160" lon="-8.6128490">
        <ele>65.7</ele>
        <time>2021-05-15T17:24:29Z</time>
      </trkpt>
      <trkpt lat="41.1429160" lon="-8.6128500">
        <ele>65.7</ele>
        <time>2021-05-15T17:24:30Z</time>
      </trkpt>
      <trkpt lat="41.1429190" lon="-8.6128460">
        <ele>65.8</ele>
        <time>2021-05-15T17:24:31Z</time>
      </trkpt>
      <trkpt lat="41.1429140" lon="-8.6128280">
        <ele>66.2</ele>
        <time>2021-05-15T17:24:32Z</time>
      </trkpt>
      <trkpt lat="41.1429010" lon="-8.6128090">
        <ele>66.7</ele>
        <time>2021-05-15T17:24:33Z</time>
      </trkpt>
      <trkpt lat="41.1428990" lon="-8.6128060">
        <ele>66.9</ele>
        <time>2021-05-15T17:24:34Z</time>
      </trkpt>
      <trkpt lat="41.1429070" lon="-8.6128070">
        <ele>67.0</ele>
        <time>2021-05-15T17:24:35Z</time>
      </trkpt>
      <trkpt lat="41.1429100" lon="-8.6127980">
        <ele>67.1</ele>
        <time>2021-05-15T17:24:36Z</time>
      </trkpt>
      <trkpt lat="41.1429210" lon="-8.6128010">
        <ele>67.2</ele>
        <time>2021-05-15T17:24:37Z</time>
      </trkpt>
      <trkpt lat="41.1429330" lon="-8.6128060">
        <ele>67.3</ele>
        <time>2021-05-15T17:24:38Z</time>
      </trkpt>
      <trkpt lat="41.1429390" lon="-8.6128020">
        <ele>67.3</ele>
        <time>2021-05-15T17:24:39Z</time>
      </trkpt>
      <trkpt lat="41.1429390" lon="-8.6128080">
        <ele>67.4</ele>
        <time>2021-05-15T17:24:40Z</time>
      </trkpt>
      <trkpt lat="41.1429380" lon="-8.6128130">
        <ele>67.4</ele>
        <time>2021-05-15T17:24:41Z</time>
      </trkpt>
      <trkpt lat="41.1429370" lon="-8.6128180">
        <ele>67.4</ele>
        <time>2021-05-15T17:24:42Z</time>
      </trkpt>
      <trkpt lat="41.1429370" lon="-8.6128230">
        <ele>67.5</ele>
        <time>2021-05-15T17:24:43Z</time>
      </trkpt>
      <trkpt lat="41.1429360" lon="-8.6128290">
        <ele>67.5</ele>
        <time>2021-05-15T17:24:44Z</time>
      </trkpt>
      <trkpt lat="41.1429360" lon="-8.6128340">
        <ele>67.5</ele>
        <time>2021-05-15T17:24:45Z</time>
      </trkpt>
      <trkpt lat="41.1429350" lon="-8.6128390">
        <ele>67.6</ele>
        <time>2021-05-15T17:24:46Z</time>
      </trkpt>
      <trkpt lat="41.1429340" lon="-8.6128440">
        <ele>67.6</ele>
        <time>2021-05-15T17:24:47Z</time>
      </trkpt>
      <trkpt lat="41.1429340" lon="-8.6128500">
        <ele>67.7</ele>
        <time>2021-05-15T17:24:48Z</time>
      </trkpt>
      <trkpt lat="41.1429330" lon="-8.6128550">
        <ele>67.7</ele>
        <time>2021-05-15T17:24:49Z</time>
      </trkpt>
      <trkpt lat="41.1429280" lon="-8.6128580">
        <ele>67.7</ele>
        <time>2021-05-15T17:24:50Z</time>
      </trkpt>
      <trkpt lat="41.1429260" lon="-8.6128590">
        <ele>67.8</ele>
        <time>2021-05-15T17:24:51Z</time>
      </trkpt>
      <trkpt lat="41.1429270" lon="-8.6128600">
        <ele>67.8</ele>
        <time>2021-05-15T17:24:52Z</time>
      </trkpt>
      <trkpt lat="41.1429260" lon="-8.6128620">
        <ele>67.8</ele>
        <time>2021-05-15T17:24:53Z</time>
      </trkpt>
      <trkpt lat="41.1429230" lon="-8.6128730">
        <ele>67.9</ele>
        <time>2021-05-15T17:24:54Z</time>
      </trkpt>
      <trkpt lat="41.1429200" lon="-8.6128750">
        <ele>67.9</ele>
        <time>2021-05-15T17:24:55Z</time>
      </trkpt>
      <trkpt lat="41.1428980" lon="-8.6128610">
        <ele>68.1</ele>
        <time>2021-05-15T17:24:56Z</time>
      </trkpt>
      <trkpt lat="41.1428860" lon="-8.6128440">
        <ele>68.3</ele>
        <time>2021-05-15T17:24:57Z</time>
      </trkpt>
      <trkpt lat="41.1428820" lon="-8.6128380">
        <ele>68.3</ele>
        <time>2021-05-15T17:24:58Z</time>
      </trkpt>
      <trkpt lat="41.1428790" lon="-8.6128310">
        <ele>68.4</ele>
        <time>2021-05-15T17:24:59Z</time>
      </trkpt>
      <trkpt lat="41.1428760" lon="-8.6128250">
        <ele>68.4</ele>
        <time>2021-05-15T17:25:00Z</time>
      </trkpt>
      <trkpt lat="41.1428720" lon="-8.6128190">
        <ele>68.5</ele>
        <time>2021-05-15T17:25:01Z</time>
      </trkpt>
      <trkpt lat="41.1428690" lon="-8.6128130">
        <ele>68.5</ele>
        <time>2021-05-15T17:25:02Z</time>
      </trkpt>
      <trkpt lat="41.1428670" lon="-8.6127930">
        <ele>68.6</ele>
        <time>2021-05-15T17:25:03Z</time>
      </trkpt>
      <trkpt lat="41.1428590" lon="-8.6127850">
        <ele>68.7</ele>
        <time>2021-05-15T17:25:04Z</time>
      </trkpt>
      <trkpt lat="41.1428550" lon="-8.6127810">
        <ele>68.8</ele>
        <time>2021-05-15T17:25:06Z</time>
      </trkpt>
      <trkpt lat="41.1428500" lon="-8.6127760">
        <ele>68.8</ele>
        <time>2021-05-15T17:25:07Z</time>
      </trkpt>
      <trkpt lat="41.1428360" lon="-8.6127770">
        <ele>68.9</ele>
        <time>2021-05-15T17:25:08Z</time>
      </trkpt>
      <trkpt lat="41.1428190" lon="-8.6127740">
        <ele>69.1</ele>
        <time>2021-05-15T17:25:09Z</time>
      </trkpt>
      <trkpt lat="41.1427990" lon="-8.6127640">
        <ele>69.2</ele>
        <time>2021-05-15T17:25:10Z</time>
      </trkpt>
      <trkpt lat="41.1427890" lon="-8.6127610">
        <ele>69.3</ele>
        <time>2021-05-15T17:25:11Z</time>
      </trkpt>
      <trkpt lat="41.1427780" lon="-8.6127570">
        <ele>69.4</ele>
        <time>2021-05-15T17:25:12Z</time>
      </trkpt>
      <trkpt lat="41.1427680" lon="-8.6127540">
        <ele>69.5</ele>
        <time>2021-05-15T17:25:13Z</time>
      </trkpt>
      <trkpt lat="41.1427570" lon="-8.6127500">
        <ele>69.6</ele>
        <time>2021-05-15T17:25:14Z</time>
      </trkpt>
      <trkpt lat="41.1427420" lon="-8.6127460">
        <ele>69.7</ele>
        <time>2021-05-15T17:25:15Z</time>
      </trkpt>
      <trkpt lat="41.1427260" lon="-8.6127550">
        <ele>69.9</ele>
        <time>2021-05-15T17:25:16Z</time>
      </trkpt>
      <trkpt lat="41.1427150" lon="-8.6127500">
        <ele>70.0</ele>
        <time>2021-05-15T17:25:17Z</time>
      </trkpt>
      <trkpt lat="41.1427060" lon="-8.6127490">
        <ele>70.0</ele>
        <time>2021-05-15T17:25:18Z</time>
      </trkpt>
      <trkpt lat="41.1426960" lon="-8.6127480">
        <ele>70.1</ele>
        <time>2021-05-15T17:25:19Z</time>
      </trkpt>
      <trkpt lat="41.1426870" lon="-8.6127470">
        <ele>70.2</ele>
        <time>2021-05-15T17:25:20Z</time>
      </trkpt>
      <trkpt lat="41.1426690" lon="-8.6127440">
        <ele>70.3</ele>
        <time>2021-05-15T17:25:21Z</time>
      </trkpt>
      <trkpt lat="41.1426610" lon="-8.6127400">
        <ele>70.4</ele>
        <time>2021-05-15T17:25:22Z</time>
      </trkpt>
      <trkpt lat="41.1426530" lon="-8.6127360">
        <ele>70.5</ele>
        <time>2021-05-15T17:25:23Z</time>
      </trkpt>
      <trkpt lat="41.1426400" lon="-8.6127270">
        <ele>70.6</ele>
        <time>2021-05-15T17:25:24Z</time>
      </trkpt>
      <trkpt lat="41.1426290" lon="-8.6127160">
        <ele>70.7</ele>
        <time>2021-05-15T17:25:25Z</time>
      </trkpt>
      <trkpt lat="41.1426190" lon="-8.6127100">
        <ele>70.8</ele>
        <time>2021-05-15T17:25:26Z</time>
      </trkpt>
      <trkpt lat="41.1426180" lon="-8.6126950">
        <ele>70.9</ele>
        <time>2021-05-15T17:25:27Z</time>
      </trkpt>
      <trkpt lat="41.1426010" lon="-8.6126950">
        <ele>71.1</ele>
        <time>2021-05-15T17:25:28Z</time>
      </trkpt>
      <trkpt lat="41.1425840" lon="-8.6126790">
        <ele>71.2</ele>
        <time>2021-05-15T17:25:29Z</time>
      </trkpt>
      <trkpt lat="41.1425720" lon="-8.6126620">
        <ele>71.4</ele>
        <time>2021-05-15T17:25:30Z</time>
      </trkpt>
      <trkpt lat="41.1425600" lon="-8.6126360">
        <ele>71.6</ele>
        <time>2021-05-15T17:25:31Z</time>
      </trkpt>
      <trkpt lat="41.1425550" lon="-8.6126200">
        <ele>71.7</ele>
        <time>2021-05-15T17:25:32Z</time>
      </trkpt>
      <trkpt lat="41.1425450" lon="-8.6126040">
        <ele>71.9</ele>
        <time>2021-05-15T17:25:33Z</time>
      </trkpt>
      <trkpt lat="41.1425390" lon="-8.6125940">
        <ele>72.0</ele>
        <time>2021-05-15T17:25:34Z</time>
      </trkpt>
      <trkpt lat="41.1425340" lon="-8.6125830">
        <ele>72.0</ele>
        <time>2021-05-15T17:25:35Z</time>
      </trkpt>
      <trkpt lat="41.1425280" lon="-8.6125730">
        <ele>72.1</ele>
        <time>2021-05-15T17:25:36Z</time>
      </trkpt>
      <trkpt lat="41.1425160" lon="-8.6125620">
        <ele>72.4</ele>
        <time>2021-05-15T17:25:37Z</time>
      </trkpt>
      <trkpt lat="41.1425060" lon="-8.6125360">
        <ele>72.5</ele>
        <time>2021-05-15T17:25:38Z</time>
      </trkpt>
      <trkpt lat="41.1424990" lon="-8.6125400">
        <ele>72.6</ele>
        <time>2021-05-15T17:25:39Z</time>
      </trkpt>
      <trkpt lat="41.1425000" lon="-8.6125320">
        <ele>72.6</ele>
        <time>2021-05-15T17:25:40Z</time>
      </trkpt>
      <trkpt lat="41.1424940" lon="-8.6125230">
        <ele>72.7</ele>
        <time>2021-05-15T17:25:41Z</time>
      </trkpt>
      <trkpt lat="41.1424910" lon="-8.6125140">
        <ele>72.8</ele>
        <time>2021-05-15T17:25:42Z</time>
      </trkpt>
      <trkpt lat="41.1424920" lon="-8.6125120">
        <ele>72.8</ele>
        <time>2021-05-15T17:25:43Z</time>
      </trkpt>
      <trkpt lat="41.1424880" lon="-8.6124980">
        <ele>72.8</ele>
        <time>2021-05-15T17:25:44Z</time>
      </trkpt>
      <trkpt lat="41.1424920" lon="-8.6124980">
        <ele>72.9</ele>
        <time>2021-05-15T17:25:45Z</time>
      </trkpt>
      <trkpt lat="41.1424860" lon="-8.6124820">
        <ele>73.0</ele>
        <time>2021-05-15T17:25:46Z</time>
      </trkpt>
      <trkpt lat="41.1424830" lon="-8.6124570">
        <ele>73.1</ele>
        <time>2021-05-15T17:25:47Z</time>
      </trkpt>
      <trkpt lat="41.1424830" lon="-8.6124420">
        <ele>73.2</ele>
        <time>2021-05-15T17:25:48Z</time>
      </trkpt>
      <trkpt lat="41.1424830" lon="-8.6124310">
        <ele>73.3</ele>
        <time>2021-05-15T17:25:49Z</time>
      </trkpt>
      <trkpt lat="41.1424910" lon="-8.6124200">
        <ele>73.3</ele>
        <time>2021-05-15T17:25:50Z</time>
      </trkpt>
      <trkpt lat="41.1424980" lon="-8.6124050">
        <ele>73.4</ele>
        <time>2021-05-15T17:25:51Z</time>
      </trkpt>
      <trkpt lat="41.1425030" lon="-8.6124000">
        <ele>73.5</ele>
        <time>2021-05-15T17:25:52Z</time>
      </trkpt>
      <trkpt lat="41.1425090" lon="-8.6123950">
        <ele>73.5</ele>
        <time>2021-05-15T17:25:53Z</time>
      </trkpt>
      <trkpt lat="41.1425140" lon="-8.6123900">
        <ele>73.6</ele>
        <time>2021-05-15T17:25:54Z</time>
      </trkpt>
      <trkpt lat="41.1425200" lon="-8.6123850">
        <ele>73.6</ele>
        <time>2021-05-15T17:25:55Z</time>
      </trkpt>
      <trkpt lat="41.1425270" lon="-8.6123770">
        <ele>73.7</ele>
        <time>2021-05-15T17:25:56Z</time>
      </trkpt>
      <trkpt lat="41.1425360" lon="-8.6123550">
        <ele>73.8</ele>
        <time>2021-05-15T17:25:57Z</time>
      </trkpt>
      <trkpt lat="41.1425400" lon="-8.6123460">
        <ele>73.8</ele>
        <time>2021-05-15T17:25:58Z</time>
      </trkpt>
      <trkpt lat="41.1425440" lon="-8.6123190">
        <ele>74.0</ele>
        <time>2021-05-15T17:25:59Z</time>
      </trkpt>
      <trkpt lat="41.1425560" lon="-8.6123060">
        <ele>74.1</ele>
        <time>2021-05-15T17:26:00Z</time>
      </trkpt>
      <trkpt lat="41.1425630" lon="-8.6123000">
        <ele>74.7</ele>
        <time>2021-05-15T17:26:01Z</time>
      </trkpt>
      <trkpt lat="41.1425690" lon="-8.6122930">
        <ele>74.7</ele>
        <time>2021-05-15T17:26:02Z</time>
      </trkpt>
      <trkpt lat="41.1425750" lon="-8.6122860">
        <ele>74.7</ele>
        <time>2021-05-15T17:26:03Z</time>
      </trkpt>
      <trkpt lat="41.1425890" lon="-8.6122740">
        <ele>74.7</ele>
        <time>2021-05-15T17:26:04Z</time>
      </trkpt>
      <trkpt lat="41.1425990" lon="-8.6122680">
        <ele>74.7</ele>
        <time>2021-05-15T17:26:05Z</time>
      </trkpt>
      <trkpt lat="41.1426040" lon="-8.6122620">
        <ele>74.7</ele>
        <time>2021-05-15T17:26:06Z</time>
      </trkpt>
      <trkpt lat="41.1426090" lon="-8.6122490">
        <ele>74.7</ele>
        <time>2021-05-15T17:26:07Z</time>
      </trkpt>
      <trkpt lat="41.1426120" lon="-8.6122390">
        <ele>75.6</ele>
        <time>2021-05-15T17:26:08Z</time>
      </trkpt>
      <trkpt lat="41.1426150" lon="-8.6122330">
        <ele>75.7</ele>
        <time>2021-05-15T17:26:09Z</time>
      </trkpt>
      <trkpt lat="41.1426190" lon="-8.6122270">
        <ele>75.7</ele>
        <time>2021-05-15T17:26:10Z</time>
      </trkpt>
      <trkpt lat="41.1426260" lon="-8.6122150">
        <ele>75.8</ele>
        <time>2021-05-15T17:26:11Z</time>
      </trkpt>
      <trkpt lat="41.1426280" lon="-8.6122010">
        <ele>75.9</ele>
        <time>2021-05-15T17:26:12Z</time>
      </trkpt>
      <trkpt lat="41.1426310" lon="-8.6121780">
        <ele>76.1</ele>
        <time>2021-05-15T17:26:13Z</time>
      </trkpt>
      <trkpt lat="41.1426310" lon="-8.6121650">
        <ele>76.2</ele>
        <time>2021-05-15T17:26:14Z</time>
      </trkpt>
      <trkpt lat="41.1426330" lon="-8.6121650">
        <ele>76.2</ele>
        <time>2021-05-15T17:26:15Z</time>
      </trkpt>
      <trkpt lat="41.1426440" lon="-8.6121510">
        <ele>76.4</ele>
        <time>2021-05-15T17:26:16Z</time>
      </trkpt>
      <trkpt lat="41.1426460" lon="-8.6121410">
        <ele>76.5</ele>
        <time>2021-05-15T17:26:17Z</time>
      </trkpt>
      <trkpt lat="41.1426540" lon="-8.6121340">
        <ele>76.6</ele>
        <time>2021-05-15T17:26:18Z</time>
      </trkpt>
      <trkpt lat="41.1426590" lon="-8.6121140">
        <ele>76.8</ele>
        <time>2021-05-15T17:26:19Z</time>
      </trkpt>
      <trkpt lat="41.1426600" lon="-8.6120960">
        <ele>76.9</ele>
        <time>2021-05-15T17:26:20Z</time>
      </trkpt>
      <trkpt lat="41.1426660" lon="-8.6120890">
        <ele>77.0</ele>
        <time>2021-05-15T17:26:21Z</time>
      </trkpt>
      <trkpt lat="41.1426720" lon="-8.6120750">
        <ele>77.1</ele>
        <time>2021-05-15T17:26:22Z</time>
      </trkpt>
      <trkpt lat="41.1426750" lon="-8.6120560">
        <ele>77.2</ele>
        <time>2021-05-15T17:26:23Z</time>
      </trkpt>
      <trkpt lat="41.1426740" lon="-8.6120300">
        <ele>77.3</ele>
        <time>2021-05-15T17:26:24Z</time>
      </trkpt>
      <trkpt lat="41.1426730" lon="-8.6120170">
        <ele>77.4</ele>
        <time>2021-05-15T17:26:25Z</time>
      </trkpt>
      <trkpt lat="41.1426720" lon="-8.6120040">
        <ele>77.5</ele>
        <time>2021-05-15T17:26:26Z</time>
      </trkpt>
      <trkpt lat="41.1426710" lon="-8.6119930">
        <ele>77.5</ele>
        <time>2021-05-15T17:26:27Z</time>
      </trkpt>
      <trkpt lat="41.1426690" lon="-8.6119820">
        <ele>77.6</ele>
        <time>2021-05-15T17:26:28Z</time>
      </trkpt>
      <trkpt lat="41.1426680" lon="-8.6119700">
        <ele>77.7</ele>
        <time>2021-05-15T17:26:29Z</time>
      </trkpt>
      <trkpt lat="41.1426660" lon="-8.6119590">
        <ele>77.7</ele>
        <time>2021-05-15T17:26:30Z</time>
      </trkpt>
      <trkpt lat="41.1426650" lon="-8.6119470">
        <ele>77.8</ele>
        <time>2021-05-15T17:26:31Z</time>
      </trkpt>
      <trkpt lat="41.1426620" lon="-8.6119250">
        <ele>77.9</ele>
        <time>2021-05-15T17:26:32Z</time>
      </trkpt>
      <trkpt lat="41.1426640" lon="-8.6119040">
        <ele>78.1</ele>
        <time>2021-05-15T17:26:33Z</time>
      </trkpt>
      <trkpt lat="41.1426640" lon="-8.6118880">
        <ele>78.1</ele>
        <time>2021-05-15T17:26:34Z</time>
      </trkpt>
      <trkpt lat="41.1426720" lon="-8.6118830">
        <ele>78.2</ele>
        <time>2021-05-15T17:26:35Z</time>
      </trkpt>
      <trkpt lat="41.1426750" lon="-8.6118770">
        <ele>78.2</ele>
        <time>2021-05-15T17:26:36Z</time>
      </trkpt>
      <trkpt lat="41.1426800" lon="-8.6118680">
        <ele>78.3</ele>
        <time>2021-05-15T17:26:37Z</time>
      </trkpt>
      <trkpt lat="41.1426880" lon="-8.6118430">
        <ele>78.4</ele>
        <time>2021-05-15T17:26:38Z</time>
      </trkpt>
      <trkpt lat="41.1426850" lon="-8.6118410">
        <ele>78.4</ele>
        <time>2021-05-15T17:26:39Z</time>
      </trkpt>
      <trkpt lat="41.1426850" lon="-8.6118240">
        <ele>78.4</ele>
        <time>2021-05-15T17:26:40Z</time>
      </trkpt>
      <trkpt lat="41.1427000" lon="-8.6118260">
        <ele>78.4</ele>
        <time>2021-05-15T17:26:41Z</time>
      </trkpt>
      <trkpt lat="41.1427070" lon="-8.6118310">
        <ele>78.5</ele>
        <time>2021-05-15T17:26:42Z</time>
      </trkpt>
      <trkpt lat="41.1427150" lon="-8.6118370">
        <ele>78.5</ele>
        <time>2021-05-15T17:26:43Z</time>
      </trkpt>
      <trkpt lat="41.1427220" lon="-8.6118420">
        <ele>78.5</ele>
        <time>2021-05-15T17:26:44Z</time>
      </trkpt>
      <trkpt lat="41.1427330" lon="-8.6118480">
        <ele>78.5</ele>
        <time>2021-05-15T17:26:45Z</time>
      </trkpt>
      <trkpt lat="41.1427440" lon="-8.6118540">
        <ele>78.5</ele>
        <time>2021-05-15T17:26:46Z</time>
      </trkpt>
      <trkpt lat="41.1427480" lon="-8.6118620">
        <ele>78.5</ele>
        <time>2021-05-15T17:26:47Z</time>
      </trkpt>
      <trkpt lat="41.1427510" lon="-8.6118600">
        <ele>78.5</ele>
        <time>2021-05-15T17:26:48Z</time>
      </trkpt>
      <trkpt lat="41.1427570" lon="-8.6118600">
        <ele>78.5</ele>
        <time>2021-05-15T17:26:49Z</time>
      </trkpt>
      <trkpt lat="41.1427650" lon="-8.6118620">
        <ele>78.5</ele>
        <time>2021-05-15T17:26:50Z</time>
      </trkpt>
      <trkpt lat="41.1427700" lon="-8.6118700">
        <ele>78.5</ele>
        <time>2021-05-15T17:26:51Z</time>
      </trkpt>
      <trkpt lat="41.1427740" lon="-8.6118690">
        <ele>78.5</ele>
        <time>2021-05-15T17:26:52Z</time>
      </trkpt>
      <trkpt lat="41.1427740" lon="-8.6118730">
        <ele>78.5</ele>
        <time>2021-05-15T17:26:53Z</time>
      </trkpt>
      <trkpt lat="41.1427740" lon="-8.6118770">
        <ele>78.5</ele>
        <time>2021-05-15T17:26:54Z</time>
      </trkpt>
      <trkpt lat="41.1427710" lon="-8.6118760">
        <ele>78.5</ele>
        <time>2021-05-15T17:26:56Z</time>
      </trkpt>
      <trkpt lat="41.1427710" lon="-8.6118740">
        <ele>78.5</ele>
        <time>2021-05-15T17:26:57Z</time>
      </trkpt>
      <trkpt lat="41.1427700" lon="-8.6118750">
        <ele>78.5</ele>
        <time>2021-05-15T17:26:58Z</time>
      </trkpt>
      <trkpt lat="41.1427710" lon="-8.6118770">
        <ele>78.5</ele>
        <time>2021-05-15T17:26:59Z</time>
      </trkpt>
      <trkpt lat="41.1427730" lon="-8.6118780">
        <ele>78.5</ele>
        <time>2021-05-15T17:27:00Z</time>
      </trkpt>
      <trkpt lat="41.1427760" lon="-8.6118790">
        <ele>78.5</ele>
        <time>2021-05-15T17:27:01Z</time>
      </trkpt>
      <trkpt lat="41.1427810" lon="-8.6118830">
        <ele>78.5</ele>
        <time>2021-05-15T17:27:02Z</time>
      </trkpt>
      <trkpt lat="41.1427820" lon="-8.6118800">
        <ele>78.5</ele>
        <time>2021-05-15T17:27:03Z</time>
      </trkpt>
      <trkpt lat="41.1427830" lon="-8.6118790">
        <ele>78.5</ele>
        <time>2021-05-15T17:27:04Z</time>
      </trkpt>
      <trkpt lat="41.1427810" lon="-8.6118800">
        <ele>78.5</ele>
        <time>2021-05-15T17:27:05Z</time>
      </trkpt>
      <trkpt lat="41.1427820" lon="-8.6118830">
        <ele>78.5</ele>
        <time>2021-05-15T17:27:06Z</time>
      </trkpt>
      <trkpt lat="41.1427830" lon="-8.6118840">
        <ele>78.5</ele>
        <time>2021-05-15T17:27:07Z</time>
      </trkpt>
      <trkpt lat="41.1427840" lon="-8.6118840">
        <ele>78.5</ele>
        <time>2021-05-15T17:27:08Z</time>
      </trkpt>
      <trkpt lat="41.1427830" lon="-8.6118840">
        <ele>78.5</ele>
        <time>2021-05-15T17:27:09Z</time>
      </trkpt>
      <trkpt lat="41.1427830" lon="-8.6118870">
        <ele>78.5</ele>
        <time>2021-05-15T17:27:10Z</time>
      </trkpt>
      <trkpt lat="41.1427820" lon="-8.6118900">
        <ele>78.5</ele>
        <time>2021-05-15T17:27:11Z</time>
      </trkpt>
      <trkpt lat="41.1427820" lon="-8.6118950">
        <ele>78.5</ele>
        <time>2021-05-15T17:27:12Z</time>
      </trkpt>
      <trkpt lat="41.1427820" lon="-8.6118970">
        <ele>78.5</ele>
        <time>2021-05-15T17:27:13Z</time>
      </trkpt>
      <trkpt lat="41.1427810" lon="-8.6118980">
        <ele>78.5</ele>
        <time>2021-05-15T17:27:14Z</time>
      </trkpt>
      <trkpt lat="41.1427790" lon="-8.6118990">
        <ele>78.5</ele>
        <time>2021-05-15T17:27:15Z</time>
      </trkpt>
      <trkpt lat="41.1427800" lon="-8.6118950">
        <ele>78.5</ele>
        <time>2021-05-15T17:27:16Z</time>
      </trkpt>
      <trkpt lat="41.1427820" lon="-8.6118820">
        <ele>78.5</ele>
        <time>2021-05-15T17:27:17Z</time>
      </trkpt>
      <trkpt lat="41.1427850" lon="-8.6118780">
        <ele>78.5</ele>
        <time>2021-05-15T17:27:18Z</time>
      </trkpt>
      <trkpt lat="41.1427860" lon="-8.6118650">
        <ele>78.5</ele>
        <time>2021-05-15T17:27:19Z</time>
      </trkpt>
      <trkpt lat="41.1427850" lon="-8.6118610">
        <ele>78.5</ele>
        <time>2021-05-15T17:27:20Z</time>
      </trkpt>
      <trkpt lat="41.1427840" lon="-8.6118640">
        <ele>78.5</ele>
        <time>2021-05-15T17:27:21Z</time>
      </trkpt>
      <trkpt lat="41.1427770" lon="-8.6118540">
        <ele>78.5</ele>
        <time>2021-05-15T17:27:22Z</time>
      </trkpt>
      <trkpt lat="41.1427730" lon="-8.6118540">
        <ele>78.5</ele>
        <time>2021-05-15T17:27:23Z</time>
      </trkpt>
      <trkpt lat="41.1427700" lon="-8.6118540">
        <ele>78.5</ele>
        <time>2021-05-15T17:27:24Z</time>
      </trkpt>
      <trkpt lat="41.1427670" lon="-8.6118570">
        <ele>78.5</ele>
        <time>2021-05-15T17:27:25Z</time>
      </trkpt>
      <trkpt lat="41.1427620" lon="-8.6118660">
        <ele>78.5</ele>
        <time>2021-05-15T17:27:26Z</time>
      </trkpt>
      <trkpt lat="41.1427630" lon="-8.6118670">
        <ele>78.5</ele>
        <time>2021-05-15T17:27:27Z</time>
      </trkpt>
      <trkpt lat="41.1427680" lon="-8.6118670">
        <ele>78.5</ele>
        <time>2021-05-15T17:27:28Z</time>
      </trkpt>
      <trkpt lat="41.1427740" lon="-8.6118620">
        <ele>78.5</ele>
        <time>2021-05-15T17:27:29Z</time>
      </trkpt>
      <trkpt lat="41.1427700" lon="-8.6118690">
        <ele>78.5</ele>
        <time>2021-05-15T17:27:30Z</time>
      </trkpt>
      <trkpt lat="41.1427790" lon="-8.6118600">
        <ele>78.5</ele>
        <time>2021-05-15T17:27:31Z</time>
      </trkpt>
      <trkpt lat="41.1427810" lon="-8.6118610">
        <ele>78.5</ele>
        <time>2021-05-15T17:27:32Z</time>
      </trkpt>
      <trkpt lat="41.1427830" lon="-8.6118560">
        <ele>78.5</ele>
        <time>2021-05-15T17:27:33Z</time>
      </trkpt>
      <trkpt lat="41.1427830" lon="-8.6118560">
        <ele>78.5</ele>
        <time>2021-05-15T17:27:34Z</time>
      </trkpt>
      <trkpt lat="41.1427840" lon="-8.6118560">
        <ele>78.5</ele>
        <time>2021-05-15T17:27:35Z</time>
      </trkpt>
      <trkpt lat="41.1427840" lon="-8.6118580">
        <ele>78.5</ele>
        <time>2021-05-15T17:27:36Z</time>
      </trkpt>
      <trkpt lat="41.1427820" lon="-8.6118590">
        <ele>78.5</ele>
        <time>2021-05-15T17:27:37Z</time>
      </trkpt>
      <trkpt lat="41.1427840" lon="-8.6118610">
        <ele>78.5</ele>
        <time>2021-05-15T17:27:38Z</time>
      </trkpt>
      <trkpt lat="41.1427890" lon="-8.6118610">
        <ele>78.6</ele>
        <time>2021-05-15T17:27:39Z</time>
      </trkpt>
      <trkpt lat="41.1427870" lon="-8.6118660">
        <ele>78.6</ele>
        <time>2021-05-15T17:27:40Z</time>
      </trkpt>
      <trkpt lat="41.1427840" lon="-8.6118700">
        <ele>78.6</ele>
        <time>2021-05-15T17:27:41Z</time>
      </trkpt>
      <trkpt lat="41.1427800" lon="-8.6118730">
        <ele>78.6</ele>
        <time>2021-05-15T17:27:42Z</time>
      </trkpt>
      <trkpt lat="41.1427810" lon="-8.6118730">
        <ele>78.6</ele>
        <time>2021-05-15T17:27:43Z</time>
      </trkpt>
      <trkpt lat="41.1427840" lon="-8.6118650">
        <ele>78.6</ele>
        <time>2021-05-15T17:27:44Z</time>
      </trkpt>
      <trkpt lat="41.1427860" lon="-8.6118600">
        <ele>78.6</ele>
        <time>2021-05-15T17:27:45Z</time>
      </trkpt>
      <trkpt lat="41.1427840" lon="-8.6118610">
        <ele>78.6</ele>
        <time>2021-05-15T17:27:46Z</time>
      </trkpt>
      <trkpt lat="41.1427870" lon="-8.6118550">
        <ele>78.6</ele>
        <time>2021-05-15T17:27:47Z</time>
      </trkpt>
      <trkpt lat="41.1427880" lon="-8.6118570">
        <ele>78.6</ele>
        <time>2021-05-15T17:27:48Z</time>
      </trkpt>
      <trkpt lat="41.1427910" lon="-8.6118530">
        <ele>78.6</ele>
        <time>2021-05-15T17:27:49Z</time>
      </trkpt>
      <trkpt lat="41.1427910" lon="-8.6118560">
        <ele>78.6</ele>
        <time>2021-05-15T17:27:50Z</time>
      </trkpt>
      <trkpt lat="41.1427910" lon="-8.6118580">
        <ele>78.6</ele>
        <time>2021-05-15T17:27:51Z</time>
      </trkpt>
      <trkpt lat="41.1427860" lon="-8.6118690">
        <ele>78.6</ele>
        <time>2021-05-15T17:27:52Z</time>
      </trkpt>
      <trkpt lat="41.1427830" lon="-8.6118750">
        <ele>78.6</ele>
        <time>2021-05-15T17:27:53Z</time>
      </trkpt>
      <trkpt lat="41.1427770" lon="-8.6118760">
        <ele>78.6</ele>
        <time>2021-05-15T17:27:54Z</time>
      </trkpt>
      <trkpt lat="41.1427750" lon="-8.6118740">
        <ele>78.6</ele>
        <time>2021-05-15T17:27:55Z</time>
      </trkpt>
      <trkpt lat="41.1427750" lon="-8.6118760">
        <ele>78.6</ele>
        <time>2021-05-15T17:27:56Z</time>
      </trkpt>
      <trkpt lat="41.1427750" lon="-8.6118760">
        <ele>78.6</ele>
        <time>2021-05-15T17:27:57Z</time>
      </trkpt>
      <trkpt lat="41.1427750" lon="-8.6118760">
        <ele>78.6</ele>
        <time>2021-05-15T17:27:58Z</time>
      </trkpt>
      <trkpt lat="41.1427630" lon="-8.6118670">
        <ele>78.6</ele>
        <time>2021-05-15T17:27:59Z</time>
      </trkpt>
      <trkpt lat="41.1427640" lon="-8.6118600">
        <ele>78.6</ele>
        <time>2021-05-15T17:28:00Z</time>
      </trkpt>
      <trkpt lat="41.1427630" lon="-8.6118660">
        <ele>78.6</ele>
        <time>2021-05-15T17:28:01Z</time>
      </trkpt>
      <trkpt lat="41.1427640" lon="-8.6118710">
        <ele>78.6</ele>
        <time>2021-05-15T17:28:02Z</time>
      </trkpt>
      <trkpt lat="41.1427610" lon="-8.6118730">
        <ele>78.6</ele>
        <time>2021-05-15T17:28:03Z</time>
      </trkpt>
      <trkpt lat="41.1427600" lon="-8.6118770">
        <ele>78.6</ele>
        <time>2021-05-15T17:28:04Z</time>
      </trkpt>
      <trkpt lat="41.1427610" lon="-8.6118790">
        <ele>78.6</ele>
        <time>2021-05-15T17:28:05Z</time>
      </trkpt>
      <trkpt lat="41.1427620" lon="-8.6118810">
        <ele>78.6</ele>
        <time>2021-05-15T17:28:06Z</time>
      </trkpt>
      <trkpt lat="41.1427610" lon="-8.6118870">
        <ele>78.6</ele>
        <time>2021-05-15T17:28:07Z</time>
      </trkpt>
      <trkpt lat="41.1427600" lon="-8.6118930">
        <ele>78.6</ele>
        <time>2021-05-15T17:28:08Z</time>
      </trkpt>
      <trkpt lat="41.1427580" lon="-8.6118910">
        <ele>78.6</ele>
        <time>2021-05-15T17:28:09Z</time>
      </trkpt>
      <trkpt lat="41.1427590" lon="-8.6118980">
        <ele>78.6</ele>
        <time>2021-05-15T17:28:10Z</time>
      </trkpt>
      <trkpt lat="41.1427600" lon="-8.6119010">
        <ele>78.6</ele>
        <time>2021-05-15T17:28:11Z</time>
      </trkpt>
      <trkpt lat="41.1427600" lon="-8.6119000">
        <ele>78.6</ele>
        <time>2021-05-15T17:28:12Z</time>
      </trkpt>
      <trkpt lat="41.1427650" lon="-8.6119010">
        <ele>78.6</ele>
        <time>2021-05-15T17:28:13Z</time>
      </trkpt>
      <trkpt lat="41.1427640" lon="-8.6119020">
        <ele>78.6</ele>
        <time>2021-05-15T17:28:14Z</time>
      </trkpt>
      <trkpt lat="41.1427640" lon="-8.6119060">
        <ele>78.6</ele>
        <time>2021-05-15T17:28:15Z</time>
      </trkpt>
      <trkpt lat="41.1427650" lon="-8.6119070">
        <ele>78.6</ele>
        <time>2021-05-15T17:28:16Z</time>
      </trkpt>
      <trkpt lat="41.1427650" lon="-8.6119120">
        <ele>78.6</ele>
        <time>2021-05-15T17:28:17Z</time>
      </trkpt>
      <trkpt lat="41.1427650" lon="-8.6119110">
        <ele>78.6</ele>
        <time>2021-05-15T17:28:18Z</time>
      </trkpt>
      <trkpt lat="41.1427640" lon="-8.6119130">
        <ele>78.6</ele>
        <time>2021-05-15T17:28:19Z</time>
      </trkpt>
      <trkpt lat="41.1427660" lon="-8.6119120">
        <ele>78.6</ele>
        <time>2021-05-15T17:28:20Z</time>
      </trkpt>
      <trkpt lat="41.1427660" lon="-8.6119140">
        <ele>78.6</ele>
        <time>2021-05-15T17:28:21Z</time>
      </trkpt>
      <trkpt lat="41.1427660" lon="-8.6119130">
        <ele>78.6</ele>
        <time>2021-05-15T17:28:22Z</time>
      </trkpt>
      <trkpt lat="41.1427650" lon="-8.6119170">
        <ele>78.6</ele>
        <time>2021-05-15T17:28:23Z</time>
      </trkpt>
      <trkpt lat="41.1427610" lon="-8.6119200">
        <ele>78.6</ele>
        <time>2021-05-15T17:28:24Z</time>
      </trkpt>
      <trkpt lat="41.1427620" lon="-8.6119240">
        <ele>78.6</ele>
        <time>2021-05-15T17:28:25Z</time>
      </trkpt>
      <trkpt lat="41.1427640" lon="-8.6119220">
        <ele>78.6</ele>
        <time>2021-05-15T17:28:26Z</time>
      </trkpt>
      <trkpt lat="41.1427650" lon="-8.6119240">
        <ele>78.6</ele>
        <time>2021-05-15T17:28:27Z</time>
      </trkpt>
      <trkpt lat="41.1427660" lon="-8.6119220">
        <ele>78.6</ele>
        <time>2021-05-15T17:28:28Z</time>
      </trkpt>
      <trkpt lat="41.1427670" lon="-8.6119230">
        <ele>78.6</ele>
        <time>2021-05-15T17:28:29Z</time>
      </trkpt>
      <trkpt lat="41.1427680" lon="-8.6119210">
        <ele>78.6</ele>
        <time>2021-05-15T17:28:30Z</time>
      </trkpt>
      <trkpt lat="41.1427660" lon="-8.6119230">
        <ele>78.6</ele>
        <time>2021-05-15T17:28:31Z</time>
      </trkpt>
      <trkpt lat="41.1427620" lon="-8.6119280">
        <ele>78.6</ele>
        <time>2021-05-15T17:28:32Z</time>
      </trkpt>
      <trkpt lat="41.1427610" lon="-8.6119250">
        <ele>78.6</ele>
        <time>2021-05-15T17:28:33Z</time>
      </trkpt>
      <trkpt lat="41.1427620" lon="-8.6119230">
        <ele>78.6</ele>
        <time>2021-05-15T17:28:34Z</time>
      </trkpt>
      <trkpt lat="41.1427600" lon="-8.6119250">
        <ele>78.6</ele>
        <time>2021-05-15T17:28:35Z</time>
      </trkpt>
      <trkpt lat="41.1427580" lon="-8.6119270">
        <ele>78.6</ele>
        <time>2021-05-15T17:28:36Z</time>
      </trkpt>
      <trkpt lat="41.1427570" lon="-8.6119240">
        <ele>78.6</ele>
        <time>2021-05-15T17:28:37Z</time>
      </trkpt>
      <trkpt lat="41.1427570" lon="-8.6119250">
        <ele>78.6</ele>
        <time>2021-05-15T17:28:38Z</time>
      </trkpt>
      <trkpt lat="41.1427540" lon="-8.6119030">
        <ele>78.6</ele>
        <time>2021-05-15T17:28:39Z</time>
      </trkpt>
      <trkpt lat="41.1427570" lon="-8.6118960">
        <ele>78.6</ele>
        <time>2021-05-15T17:28:40Z</time>
      </trkpt>
      <trkpt lat="41.1427550" lon="-8.6118880">
        <ele>78.6</ele>
        <time>2021-05-15T17:28:41Z</time>
      </trkpt>
      <trkpt lat="41.1427570" lon="-8.6118910">
        <ele>78.6</ele>
        <time>2021-05-15T17:28:42Z</time>
      </trkpt>
      <trkpt lat="41.1427580" lon="-8.6118910">
        <ele>78.6</ele>
        <time>2021-05-15T17:28:43Z</time>
      </trkpt>
      <trkpt lat="41.1427580" lon="-8.6118900">
        <ele>78.6</ele>
        <time>2021-05-15T17:28:44Z</time>
      </trkpt>
      <trkpt lat="41.1427600" lon="-8.6118900">
        <ele>78.6</ele>
        <time>2021-05-15T17:28:45Z</time>
      </trkpt>
      <trkpt lat="41.1427610" lon="-8.6118890">
        <ele>78.6</ele>
        <time>2021-05-15T17:28:46Z</time>
      </trkpt>
      <trkpt lat="41.1427590" lon="-8.6118890">
        <ele>78.6</ele>
        <time>2021-05-15T17:28:47Z</time>
      </trkpt>
      <trkpt lat="41.1427620" lon="-8.6118880">
        <ele>78.6</ele>
        <time>2021-05-15T17:28:48Z</time>
      </trkpt>
      <trkpt lat="41.1427620" lon="-8.6118870">
        <ele>78.6</ele>
        <time>2021-05-15T17:28:49Z</time>
      </trkpt>
      <trkpt lat="41.1427620" lon="-8.6118870">
        <ele>78.6</ele>
        <time>2021-05-15T17:28:50Z</time>
      </trkpt>
      <trkpt lat="41.1427630" lon="-8.6118840">
        <ele>78.6</ele>
        <time>2021-05-15T17:28:51Z</time>
      </trkpt>
      <trkpt lat="41.1427650" lon="-8.6118800">
        <ele>78.6</ele>
        <time>2021-05-15T17:28:52Z</time>
      </trkpt>
      <trkpt lat="41.1427650" lon="-8.6118780">
        <ele>78.6</ele>
        <time>2021-05-15T17:28:53Z</time>
      </trkpt>
      <trkpt lat="41.1427650" lon="-8.6118780">
        <ele>78.6</ele>
        <time>2021-05-15T17:28:54Z</time>
      </trkpt>
      <trkpt lat="41.1427640" lon="-8.6118800">
        <ele>78.6</ele>
        <time>2021-05-15T17:28:55Z</time>
      </trkpt>
      <trkpt lat="41.1427640" lon="-8.6118810">
        <ele>78.6</ele>
        <time>2021-05-15T17:28:56Z</time>
      </trkpt>
      <trkpt lat="41.1427650" lon="-8.6118820">
        <ele>78.7</ele>
        <time>2021-05-15T17:28:57Z</time>
      </trkpt>
      <trkpt lat="41.1427670" lon="-8.6118840">
        <ele>78.7</ele>
        <time>2021-05-15T17:28:58Z</time>
      </trkpt>
      <trkpt lat="41.1427690" lon="-8.6118840">
        <ele>78.7</ele>
        <time>2021-05-15T17:28:59Z</time>
      </trkpt>
      <trkpt lat="41.1427690" lon="-8.6118830">
        <ele>78.7</ele>
        <time>2021-05-15T17:29:00Z</time>
      </trkpt>
      <trkpt lat="41.1427710" lon="-8.6118840">
        <ele>78.7</ele>
        <time>2021-05-15T17:29:01Z</time>
      </trkpt>
      <trkpt lat="41.1427680" lon="-8.6118880">
        <ele>78.7</ele>
        <time>2021-05-15T17:29:02Z</time>
      </trkpt>
      <trkpt lat="41.1427730" lon="-8.6118880">
        <ele>78.7</ele>
        <time>2021-05-15T17:29:03Z</time>
      </trkpt>
      <trkpt lat="41.1427650" lon="-8.6118860">
        <ele>78.7</ele>
        <time>2021-05-15T17:29:04Z</time>
      </trkpt>
      <trkpt lat="41.1427690" lon="-8.6118880">
        <ele>78.7</ele>
        <time>2021-05-15T17:29:05Z</time>
      </trkpt>
      <trkpt lat="41.1427720" lon="-8.6118910">
        <ele>78.7</ele>
        <time>2021-05-15T17:29:06Z</time>
      </trkpt>
      <trkpt lat="41.1427720" lon="-8.6118890">
        <ele>78.7</ele>
        <time>2021-05-15T17:29:07Z</time>
      </trkpt>
      <trkpt lat="41.1427720" lon="-8.6118880">
        <ele>78.7</ele>
        <time>2021-05-15T17:29:08Z</time>
      </trkpt>
      <trkpt lat="41.1427720" lon="-8.6118880">
        <ele>78.7</ele>
        <time>2021-05-15T17:29:09Z</time>
      </trkpt>
      <trkpt lat="41.1427740" lon="-8.6118880">
        <ele>78.7</ele>
        <time>2021-05-15T17:29:10Z</time>
      </trkpt>
      <trkpt lat="41.1427730" lon="-8.6118860">
        <ele>78.7</ele>
        <time>2021-05-15T17:29:11Z</time>
      </trkpt>
      <trkpt lat="41.1427720" lon="-8.6118840">
        <ele>78.7</ele>
        <time>2021-05-15T17:29:12Z</time>
      </trkpt>
      <trkpt lat="41.1427750" lon="-8.6118830">
        <ele>78.7</ele>
        <time>2021-05-15T17:29:13Z</time>
      </trkpt>
      <trkpt lat="41.1427770" lon="-8.6118830">
        <ele>78.7</ele>
        <time>2021-05-15T17:29:14Z</time>
      </trkpt>
      <trkpt lat="41.1427790" lon="-8.6118840">
        <ele>78.7</ele>
        <time>2021-05-15T17:29:15Z</time>
      </trkpt>
      <trkpt lat="41.1427830" lon="-8.6118850">
        <ele>78.7</ele>
        <time>2021-05-15T17:29:16Z</time>
      </trkpt>
      <trkpt lat="41.1427840" lon="-8.6118850">
        <ele>78.7</ele>
        <time>2021-05-15T17:29:17Z</time>
      </trkpt>
      <trkpt lat="41.1427830" lon="-8.6118830">
        <ele>78.7</ele>
        <time>2021-05-15T17:29:18Z</time>
      </trkpt>
      <trkpt lat="41.1427830" lon="-8.6118820">
        <ele>78.7</ele>
        <time>2021-05-15T17:29:19Z</time>
      </trkpt>
      <trkpt lat="41.1427830" lon="-8.6118810">
        <ele>78.7</ele>
        <time>2021-05-15T17:29:20Z</time>
      </trkpt>
      <trkpt lat="41.1427820" lon="-8.6118800">
        <ele>78.7</ele>
        <time>2021-05-15T17:29:21Z</time>
      </trkpt>
      <trkpt lat="41.1427820" lon="-8.6118780">
        <ele>78.7</ele>
        <time>2021-05-15T17:29:22Z</time>
      </trkpt>
      <trkpt lat="41.1427810" lon="-8.6118770">
        <ele>78.7</ele>
        <time>2021-05-15T17:29:23Z</time>
      </trkpt>
      <trkpt lat="41.1427810" lon="-8.6118760">
        <ele>78.7</ele>
        <time>2021-05-15T17:29:24Z</time>
      </trkpt>
      <trkpt lat="41.1427810" lon="-8.6118750">
        <ele>78.7</ele>
        <time>2021-05-15T17:29:25Z</time>
      </trkpt>
      <trkpt lat="41.1427800" lon="-8.6118730">
        <ele>78.7</ele>
        <time>2021-05-15T17:29:26Z</time>
      </trkpt>
      <trkpt lat="41.1427800" lon="-8.6118720">
        <ele>78.7</ele>
        <time>2021-05-15T17:29:27Z</time>
      </trkpt>
      <trkpt lat="41.1427800" lon="-8.6118710">
        <ele>78.7</ele>
        <time>2021-05-15T17:29:28Z</time>
      </trkpt>
      <trkpt lat="41.1427790" lon="-8.6118700">
        <ele>78.7</ele>
        <time>2021-05-15T17:29:29Z</time>
      </trkpt>
      <trkpt lat="41.1427790" lon="-8.6118680">
        <ele>78.7</ele>
        <time>2021-05-15T17:29:30Z</time>
      </trkpt>
      <trkpt lat="41.1427790" lon="-8.6118670">
        <ele>78.7</ele>
        <time>2021-05-15T17:29:31Z</time>
      </trkpt>
      <trkpt lat="41.1427780" lon="-8.6118660">
        <ele>78.7</ele>
        <time>2021-05-15T17:29:32Z</time>
      </trkpt>
      <trkpt lat="41.1427780" lon="-8.6118650">
        <ele>78.7</ele>
        <time>2021-05-15T17:29:33Z</time>
      </trkpt>
      <trkpt lat="41.1427780" lon="-8.6118630">
        <ele>78.7</ele>
        <time>2021-05-15T17:29:34Z</time>
      </trkpt>
      <trkpt lat="41.1427770" lon="-8.6118620">
        <ele>78.7</ele>
        <time>2021-05-15T17:29:35Z</time>
      </trkpt>
      <trkpt lat="41.1427770" lon="-8.6118610">
        <ele>78.7</ele>
        <time>2021-05-15T17:29:36Z</time>
      </trkpt>
      <trkpt lat="41.1427760" lon="-8.6118600">
        <ele>78.7</ele>
        <time>2021-05-15T17:29:37Z</time>
      </trkpt>
      <trkpt lat="41.1427760" lon="-8.6118580">
        <ele>78.7</ele>
        <time>2021-05-15T17:29:38Z</time>
      </trkpt>
      <trkpt lat="41.1427760" lon="-8.6118570">
        <ele>78.7</ele>
        <time>2021-05-15T17:29:39Z</time>
      </trkpt>
      <trkpt lat="41.1427750" lon="-8.6118560">
        <ele>78.7</ele>
        <time>2021-05-15T17:29:40Z</time>
      </trkpt>
      <trkpt lat="41.1427750" lon="-8.6118550">
        <ele>78.7</ele>
        <time>2021-05-15T17:29:41Z</time>
      </trkpt>
      <trkpt lat="41.1427750" lon="-8.6118530">
        <ele>78.7</ele>
        <time>2021-05-15T17:29:42Z</time>
      </trkpt>
      <trkpt lat="41.1427740" lon="-8.6118520">
        <ele>78.7</ele>
        <time>2021-05-15T17:29:43Z</time>
      </trkpt>
      <trkpt lat="41.1427740" lon="-8.6118510">
        <ele>78.7</ele>
        <time>2021-05-15T17:29:44Z</time>
      </trkpt>
      <trkpt lat="41.1427740" lon="-8.6118500">
        <ele>78.7</ele>
        <time>2021-05-15T17:29:45Z</time>
      </trkpt>
      <trkpt lat="41.1427730" lon="-8.6118480">
        <ele>78.7</ele>
        <time>2021-05-15T17:29:46Z</time>
      </trkpt>
      <trkpt lat="41.1427730" lon="-8.6118470">
        <ele>78.7</ele>
        <time>2021-05-15T17:29:47Z</time>
      </trkpt>
      <trkpt lat="41.1427730" lon="-8.6118460">
        <ele>78.7</ele>
        <time>2021-05-15T17:29:48Z</time>
      </trkpt>
      <trkpt lat="41.1427720" lon="-8.6118450">
        <ele>78.7</ele>
        <time>2021-05-15T17:29:49Z</time>
      </trkpt>
      <trkpt lat="41.1427720" lon="-8.6118430">
        <ele>78.7</ele>
        <time>2021-05-15T17:29:50Z</time>
      </trkpt>
      <trkpt lat="41.1427710" lon="-8.6118420">
        <ele>78.7</ele>
        <time>2021-05-15T17:29:51Z</time>
      </trkpt>
      <trkpt lat="41.1427710" lon="-8.6118410">
        <ele>78.7</ele>
        <time>2021-05-15T17:29:52Z</time>
      </trkpt>
      <trkpt lat="41.1427710" lon="-8.6118400">
        <ele>78.7</ele>
        <time>2021-05-15T17:29:53Z</time>
      </trkpt>
      <trkpt lat="41.1427700" lon="-8.6118380">
        <ele>78.7</ele>
        <time>2021-05-15T17:29:54Z</time>
      </trkpt>
      <trkpt lat="41.1427700" lon="-8.6118370">
        <ele>78.7</ele>
        <time>2021-05-15T17:29:55Z</time>
      </trkpt>
      <trkpt lat="41.1427700" lon="-8.6118360">
        <ele>78.7</ele>
        <time>2021-05-15T17:29:56Z</time>
      </trkpt>
      <trkpt lat="41.1427690" lon="-8.6118350">
        <ele>78.7</ele>
        <time>2021-05-15T17:29:58Z</time>
      </trkpt>
      <trkpt lat="41.1427690" lon="-8.6118330">
        <ele>78.7</ele>
        <time>2021-05-15T17:29:59Z</time>
      </trkpt>
      <trkpt lat="41.1427690" lon="-8.6118320">
        <ele>78.7</ele>
        <time>2021-05-15T17:30:00Z</time>
      </trkpt>
      <trkpt lat="41.1427680" lon="-8.6118310">
        <ele>78.7</ele>
        <time>2021-05-15T17:30:01Z</time>
      </trkpt>
      <trkpt lat="41.1427680" lon="-8.6118300">
        <ele>78.7</ele>
        <time>2021-05-15T17:30:02Z</time>
      </trkpt>
      <trkpt lat="41.1427680" lon="-8.6118280">
        <ele>78.7</ele>
        <time>2021-05-15T17:30:03Z</time>
      </trkpt>
      <trkpt lat="41.1427670" lon="-8.6118270">
        <ele>78.7</ele>
        <time>2021-05-15T17:30:04Z</time>
      </trkpt>
      <trkpt lat="41.1427670" lon="-8.6118260">
        <ele>78.7</ele>
        <time>2021-05-15T17:30:05Z</time>
      </trkpt>
      <trkpt lat="41.1427660" lon="-8.6118250">
        <ele>78.7</ele>
        <time>2021-05-15T17:30:06Z</time>
      </trkpt>
      <trkpt lat="41.1427660" lon="-8.6118230">
        <ele>78.7</ele>
        <time>2021-05-15T17:30:07Z</time>
      </trkpt>
      <trkpt lat="41.1427660" lon="-8.6118220">
        <ele>78.7</ele>
        <time>2021-05-15T17:30:08Z</time>
      </trkpt>
      <trkpt lat="41.1427650" lon="-8.6118210">
        <ele>78.7</ele>
        <time>2021-05-15T17:30:09Z</time>
      </trkpt>
      <trkpt lat="41.1427650" lon="-8.6118200">
        <ele>78.7</ele>
        <time>2021-05-15T17:30:10Z</time>
      </trkpt>
      <trkpt lat="41.1427650" lon="-8.6118180">
        <ele>78.7</ele>
        <time>2021-05-15T17:30:11Z</time>
      </trkpt>
      <trkpt lat="41.1427640" lon="-8.6118170">
        <ele>78.7</ele>
        <time>2021-05-15T17:30:12Z</time>
      </trkpt>
      <trkpt lat="41.1427640" lon="-8.6118160">
        <ele>78.7</ele>
        <time>2021-05-15T17:30:13Z</time>
      </trkpt>
      <trkpt lat="41.1427640" lon="-8.6118150">
        <ele>78.7</ele>
        <time>2021-05-15T17:30:14Z</time>
      </trkpt>
      <trkpt lat="41.1427630" lon="-8.6118130">
        <ele>78.7</ele>
        <time>2021-05-15T17:30:15Z</time>
      </trkpt>
      <trkpt lat="41.1427630" lon="-8.6118120">
        <ele>78.7</ele>
        <time>2021-05-15T17:30:16Z</time>
      </trkpt>
      <trkpt lat="41.1427630" lon="-8.6118110">
        <ele>78.7</ele>
        <time>2021-05-15T17:30:17Z</time>
      </trkpt>
      <trkpt lat="41.1427620" lon="-8.6118100">
        <ele>78.7</ele>
        <time>2021-05-15T17:30:18Z</time>
      </trkpt>
      <trkpt lat="41.1427620" lon="-8.6118080">
        <ele>78.7</ele>
        <time>2021-05-15T17:30:19Z</time>
      </trkpt>
      <trkpt lat="41.1427610" lon="-8.6118070">
        <ele>78.7</ele>
        <time>2021-05-15T17:30:20Z</time>
      </trkpt>
      <trkpt lat="41.1427610" lon="-8.6118060">
        <ele>78.7</ele>
        <time>2021-05-15T17:30:21Z</time>
      </trkpt>
      <trkpt lat="41.1427610" lon="-8.6118050">
        <ele>78.7</ele>
        <time>2021-05-15T17:30:22Z</time>
      </trkpt>
      <trkpt lat="41.1427600" lon="-8.6118030">
        <ele>78.7</ele>
        <time>2021-05-15T17:30:23Z</time>
      </trkpt>
      <trkpt lat="41.1427600" lon="-8.6118020">
        <ele>78.7</ele>
        <time>2021-05-15T17:30:24Z</time>
      </trkpt>
      <trkpt lat="41.1427600" lon="-8.6118010">
        <ele>78.7</ele>
        <time>2021-05-15T17:30:25Z</time>
      </trkpt>
      <trkpt lat="41.1427590" lon="-8.6118000">
        <ele>78.7</ele>
        <time>2021-05-15T17:30:26Z</time>
      </trkpt>
      <trkpt lat="41.1427590" lon="-8.6117980">
        <ele>78.7</ele>
        <time>2021-05-15T17:30:27Z</time>
      </trkpt>
      <trkpt lat="41.1427590" lon="-8.6117970">
        <ele>78.7</ele>
        <time>2021-05-15T17:30:28Z</time>
      </trkpt>
      <trkpt lat="41.1427580" lon="-8.6117960">
        <ele>78.7</ele>
        <time>2021-05-15T17:30:29Z</time>
      </trkpt>
      <trkpt lat="41.1427580" lon="-8.6117950">
        <ele>78.7</ele>
        <time>2021-05-15T17:30:30Z</time>
      </trkpt>
      <trkpt lat="41.1427580" lon="-8.6117930">
        <ele>78.7</ele>
        <time>2021-05-15T17:30:31Z</time>
      </trkpt>
      <trkpt lat="41.1427570" lon="-8.6117920">
        <ele>78.7</ele>
        <time>2021-05-15T17:30:32Z</time>
      </trkpt>
      <trkpt lat="41.1427570" lon="-8.6117910">
        <ele>78.7</ele>
        <time>2021-05-15T17:30:33Z</time>
      </trkpt>
      <trkpt lat="41.1427560" lon="-8.6117900">
        <ele>78.7</ele>
        <time>2021-05-15T17:30:34Z</time>
      </trkpt>
      <trkpt lat="41.1427560" lon="-8.6117880">
        <ele>78.7</ele>
        <time>2021-05-15T17:30:35Z</time>
      </trkpt>
      <trkpt lat="41.1427560" lon="-8.6117870">
        <ele>78.7</ele>
        <time>2021-05-15T17:30:36Z</time>
      </trkpt>
      <trkpt lat="41.1427550" lon="-8.6117860">
        <ele>78.7</ele>
        <time>2021-05-15T17:30:37Z</time>
      </trkpt>
      <trkpt lat="41.1427550" lon="-8.6117850">
        <ele>78.7</ele>
        <time>2021-05-15T17:30:38Z</time>
      </trkpt>
      <trkpt lat="41.1427550" lon="-8.6117830">
        <ele>78.7</ele>
        <time>2021-05-15T17:30:39Z</time>
      </trkpt>
      <trkpt lat="41.1427540" lon="-8.6117820">
        <ele>78.7</ele>
        <time>2021-05-15T17:30:40Z</time>
      </trkpt>
      <trkpt lat="41.1427540" lon="-8.6117810">
        <ele>78.7</ele>
        <time>2021-05-15T17:30:41Z</time>
      </trkpt>
      <trkpt lat="41.1427540" lon="-8.6117800">
        <ele>78.7</ele>
        <time>2021-05-15T17:30:42Z</time>
      </trkpt>
      <trkpt lat="41.1427530" lon="-8.6117780">
        <ele>78.7</ele>
        <time>2021-05-15T17:30:43Z</time>
      </trkpt>
      <trkpt lat="41.1427530" lon="-8.6117770">
        <ele>78.7</ele>
        <time>2021-05-15T17:30:44Z</time>
      </trkpt>
      <trkpt lat="41.1427530" lon="-8.6117760">
        <ele>78.7</ele>
        <time>2021-05-15T17:30:45Z</time>
      </trkpt>
      <trkpt lat="41.1427520" lon="-8.6117750">
        <ele>78.7</ele>
        <time>2021-05-15T17:30:46Z</time>
      </trkpt>
      <trkpt lat="41.1427520" lon="-8.6117730">
        <ele>78.7</ele>
        <time>2021-05-15T17:30:47Z</time>
      </trkpt>
      <trkpt lat="41.1427510" lon="-8.6117720">
        <ele>78.7</ele>
        <time>2021-05-15T17:30:48Z</time>
      </trkpt>
      <trkpt lat="41.1427510" lon="-8.6117710">
        <ele>78.7</ele>
        <time>2021-05-15T17:30:49Z</time>
      </trkpt>
      <trkpt lat="41.1427510" lon="-8.6117700">
        <ele>78.7</ele>
        <time>2021-05-15T17:30:50Z</time>
      </trkpt>
      <trkpt lat="41.1427500" lon="-8.6117680">
        <ele>78.7</ele>
        <time>2021-05-15T17:30:51Z</time>
      </trkpt>
      <trkpt lat="41.1427500" lon="-8.6117670">
        <ele>78.7</ele>
        <time>2021-05-15T17:30:52Z</time>
      </trkpt>
      <trkpt lat="41.1427500" lon="-8.6117660">
        <ele>78.7</ele>
        <time>2021-05-15T17:30:53Z</time>
      </trkpt>
      <trkpt lat="41.1427490" lon="-8.6117650">
        <ele>78.8</ele>
        <time>2021-05-15T17:30:54Z</time>
      </trkpt>
      <trkpt lat="41.1427490" lon="-8.6117630">
        <ele>78.8</ele>
        <time>2021-05-15T17:30:55Z</time>
      </trkpt>
      <trkpt lat="41.1427490" lon="-8.6117620">
        <ele>78.8</ele>
        <time>2021-05-15T17:30:56Z</time>
      </trkpt>
      <trkpt lat="41.1427480" lon="-8.6117610">
        <ele>78.8</ele>
        <time>2021-05-15T17:30:57Z</time>
      </trkpt>
      <trkpt lat="41.1427480" lon="-8.6117600">
        <ele>78.8</ele>
        <time>2021-05-15T17:30:58Z</time>
      </trkpt>
      <trkpt lat="41.1427480" lon="-8.6117580">
        <ele>78.8</ele>
        <time>2021-05-15T17:30:59Z</time>
      </trkpt>
      <trkpt lat="41.1427470" lon="-8.6117570">
        <ele>78.8</ele>
        <time>2021-05-15T17:31:00Z</time>
      </trkpt>
      <trkpt lat="41.1427470" lon="-8.6117560">
        <ele>78.8</ele>
        <time>2021-05-15T17:31:01Z</time>
      </trkpt>
      <trkpt lat="41.1427460" lon="-8.6117550">
        <ele>78.8</ele>
        <time>2021-05-15T17:31:02Z</time>
      </trkpt>
      <trkpt lat="41.1427460" lon="-8.6117530">
        <ele>78.8</ele>
        <time>2021-05-15T17:31:03Z</time>
      </trkpt>
      <trkpt lat="41.1427460" lon="-8.6117520">
        <ele>78.8</ele>
        <time>2021-05-15T17:31:04Z</time>
      </trkpt>
      <trkpt lat="41.1427450" lon="-8.6117510">
        <ele>78.8</ele>
        <time>2021-05-15T17:31:05Z</time>
      </trkpt>
      <trkpt lat="41.1427450" lon="-8.6117500">
        <ele>78.8</ele>
        <time>2021-05-15T17:31:06Z</time>
      </trkpt>
      <trkpt lat="41.1427450" lon="-8.6117480">
        <ele>78.8</ele>
        <time>2021-05-15T17:31:07Z</time>
      </trkpt>
      <trkpt lat="41.1427440" lon="-8.6117470">
        <ele>78.8</ele>
        <time>2021-05-15T17:31:08Z</time>
      </trkpt>
      <trkpt lat="41.1427440" lon="-8.6117460">
        <ele>78.8</ele>
        <time>2021-05-15T17:31:09Z</time>
      </trkpt>
      <trkpt lat="41.1427440" lon="-8.6117450">
        <ele>78.8</ele>
        <time>2021-05-15T17:31:10Z</time>
      </trkpt>
      <trkpt lat="41.1427430" lon="-8.6117430">
        <ele>78.8</ele>
        <time>2021-05-15T17:31:11Z</time>
      </trkpt>
      <trkpt lat="41.1427430" lon="-8.6117420">
        <ele>78.8</ele>
        <time>2021-05-15T17:31:12Z</time>
      </trkpt>
      <trkpt lat="41.1427430" lon="-8.6117410">
        <ele>78.8</ele>
        <time>2021-05-15T17:31:13Z</time>
      </trkpt>
      <trkpt lat="41.1427420" lon="-8.6117400">
        <ele>78.8</ele>
        <time>2021-05-15T17:31:14Z</time>
      </trkpt>
      <trkpt lat="41.1427420" lon="-8.6117380">
        <ele>78.8</ele>
        <time>2021-05-15T17:31:15Z</time>
      </trkpt>
      <trkpt lat="41.1427410" lon="-8.6117370">
        <ele>78.8</ele>
        <time>2021-05-15T17:31:16Z</time>
      </trkpt>
      <trkpt lat="41.1427410" lon="-8.6117360">
        <ele>78.8</ele>
        <time>2021-05-15T17:31:17Z</time>
      </trkpt>
      <trkpt lat="41.1427410" lon="-8.6117350">
        <ele>78.8</ele>
        <time>2021-05-15T17:31:18Z</time>
      </trkpt>
      <trkpt lat="41.1427400" lon="-8.6117330">
        <ele>78.8</ele>
        <time>2021-05-15T17:31:19Z</time>
      </trkpt>
      <trkpt lat="41.1427400" lon="-8.6117320">
        <ele>78.8</ele>
        <time>2021-05-15T17:31:20Z</time>
      </trkpt>
      <trkpt lat="41.1427400" lon="-8.6117310">
        <ele>78.8</ele>
        <time>2021-05-15T17:31:21Z</time>
      </trkpt>
      <trkpt lat="41.1427390" lon="-8.6117300">
        <ele>78.8</ele>
        <time>2021-05-15T17:31:22Z</time>
      </trkpt>
      <trkpt lat="41.1427390" lon="-8.6117280">
        <ele>78.8</ele>
        <time>2021-05-15T17:31:23Z</time>
      </trkpt>
      <trkpt lat="41.1427390" lon="-8.6117270">
        <ele>78.8</ele>
        <time>2021-05-15T17:31:24Z</time>
      </trkpt>
      <trkpt lat="41.1427380" lon="-8.6117260">
        <ele>78.8</ele>
        <time>2021-05-15T17:31:25Z</time>
      </trkpt>
      <trkpt lat="41.1427380" lon="-8.6117250">
        <ele>78.8</ele>
        <time>2021-05-15T17:31:26Z</time>
      </trkpt>
      <trkpt lat="41.1427380" lon="-8.6117230">
        <ele>78.8</ele>
        <time>2021-05-15T17:31:27Z</time>
      </trkpt>
      <trkpt lat="41.1427370" lon="-8.6117220">
        <ele>78.8</ele>
        <time>2021-05-15T17:31:28Z</time>
      </trkpt>
      <trkpt lat="41.1427370" lon="-8.6117210">
        <ele>78.8</ele>
        <time>2021-05-15T17:31:29Z</time>
      </trkpt>
      <trkpt lat="41.1427360" lon="-8.6117200">
        <ele>78.8</ele>
        <time>2021-05-15T17:31:30Z</time>
      </trkpt>
      <trkpt lat="41.1427360" lon="-8.6117180">
        <ele>78.8</ele>
        <time>2021-05-15T17:31:31Z</time>
      </trkpt>
      <trkpt lat="41.1427360" lon="-8.6117170">
        <ele>78.8</ele>
        <time>2021-05-15T17:31:32Z</time>
      </trkpt>
      <trkpt lat="41.1427350" lon="-8.6117160">
        <ele>78.8</ele>
        <time>2021-05-15T17:31:33Z</time>
      </trkpt>
      <trkpt lat="41.1427350" lon="-8.6117150">
        <ele>78.8</ele>
        <time>2021-05-15T17:31:34Z</time>
      </trkpt>
      <trkpt lat="41.1427350" lon="-8.6117130">
        <ele>78.8</ele>
        <time>2021-05-15T17:31:35Z</time>
      </trkpt>
      <trkpt lat="41.1427340" lon="-8.6117120">
        <ele>78.8</ele>
        <time>2021-05-15T17:31:36Z</time>
      </trkpt>
      <trkpt lat="41.1427340" lon="-8.6117110">
        <ele>78.8</ele>
        <time>2021-05-15T17:31:37Z</time>
      </trkpt>
      <trkpt lat="41.1427340" lon="-8.6117100">
        <ele>78.8</ele>
        <time>2021-05-15T17:31:38Z</time>
      </trkpt>
      <trkpt lat="41.1427330" lon="-8.6117080">
        <ele>78.8</ele>
        <time>2021-05-15T17:31:39Z</time>
      </trkpt>
      <trkpt lat="41.1427330" lon="-8.6117070">
        <ele>78.8</ele>
        <time>2021-05-15T17:31:40Z</time>
      </trkpt>
      <trkpt lat="41.1427330" lon="-8.6117060">
        <ele>78.8</ele>
        <time>2021-05-15T17:31:41Z</time>
      </trkpt>
      <trkpt lat="41.1427320" lon="-8.6117050">
        <ele>78.8</ele>
        <time>2021-05-15T17:31:43Z</time>
      </trkpt>
      <trkpt lat="41.1427320" lon="-8.6117030">
        <ele>78.8</ele>
        <time>2021-05-15T17:31:44Z</time>
      </trkpt>
      <trkpt lat="41.1427310" lon="-8.6117020">
        <ele>78.8</ele>
        <time>2021-05-15T17:31:45Z</time>
      </trkpt>
      <trkpt lat="41.1427310" lon="-8.6117010">
        <ele>78.8</ele>
        <time>2021-05-15T17:31:46Z</time>
      </trkpt>
      <trkpt lat="41.1427310" lon="-8.6117000">
        <ele>78.8</ele>
        <time>2021-05-15T17:31:47Z</time>
      </trkpt>
      <trkpt lat="41.1427300" lon="-8.6116980">
        <ele>78.8</ele>
        <time>2021-05-15T17:31:48Z</time>
      </trkpt>
      <trkpt lat="41.1427300" lon="-8.6116970">
        <ele>78.8</ele>
        <time>2021-05-15T17:31:49Z</time>
      </trkpt>
      <trkpt lat="41.1427380" lon="-8.6116900">
        <ele>78.8</ele>
        <time>2021-05-15T17:31:50Z</time>
      </trkpt>
      <trkpt lat="41.1427450" lon="-8.6116870">
        <ele>78.8</ele>
        <time>2021-05-15T17:31:51Z</time>
      </trkpt>
      <trkpt lat="41.1427510" lon="-8.6116840">
        <ele>78.8</ele>
        <time>2021-05-15T17:31:52Z</time>
      </trkpt>
      <trkpt lat="41.1427580" lon="-8.6116810">
        <ele>78.8</ele>
        <time>2021-05-15T17:31:53Z</time>
      </trkpt>
      <trkpt lat="41.1427650" lon="-8.6116780">
        <ele>78.8</ele>
        <time>2021-05-15T17:31:54Z</time>
      </trkpt>
      <trkpt lat="41.1427720" lon="-8.6116820">
        <ele>78.8</ele>
        <time>2021-05-15T17:31:55Z</time>
      </trkpt>
      <trkpt lat="41.1427820" lon="-8.6116650">
        <ele>78.8</ele>
        <time>2021-05-15T17:31:56Z</time>
      </trkpt>
      <trkpt lat="41.1427830" lon="-8.6116630">
        <ele>78.8</ele>
        <time>2021-05-15T17:31:57Z</time>
      </trkpt>
      <trkpt lat="41.1427870" lon="-8.6116590">
        <ele>78.8</ele>
        <time>2021-05-15T17:31:58Z</time>
      </trkpt>
      <trkpt lat="41.1427890" lon="-8.6116510">
        <ele>79.1</ele>
        <time>2021-05-15T17:31:59Z</time>
      </trkpt>
      <trkpt lat="41.1428030" lon="-8.6116130">
        <ele>79.1</ele>
        <time>2021-05-15T17:32:00Z</time>
      </trkpt>
      <trkpt lat="41.1428060" lon="-8.6116050">
        <ele>79.1</ele>
        <time>2021-05-15T17:32:01Z</time>
      </trkpt>
      <trkpt lat="41.1428020" lon="-8.6116020">
        <ele>79.1</ele>
        <time>2021-05-15T17:32:02Z</time>
      </trkpt>
      <trkpt lat="41.1427950" lon="-8.6115900">
        <ele>79.1</ele>
        <time>2021-05-15T17:32:03Z</time>
      </trkpt>
      <trkpt lat="41.1427950" lon="-8.6115900">
        <ele>79.1</ele>
        <time>2021-05-15T17:32:04Z</time>
      </trkpt>
      <trkpt lat="41.1427920" lon="-8.6115940">
        <ele>79.1</ele>
        <time>2021-05-15T17:32:05Z</time>
      </trkpt>
      <trkpt lat="41.1427940" lon="-8.6115910">
        <ele>79.1</ele>
        <time>2021-05-15T17:32:06Z</time>
      </trkpt>
      <trkpt lat="41.1427970" lon="-8.6115880">
        <ele>79.1</ele>
        <time>2021-05-15T17:32:07Z</time>
      </trkpt>
      <trkpt lat="41.1427950" lon="-8.6116000">
        <ele>79.1</ele>
        <time>2021-05-15T17:32:08Z</time>
      </trkpt>
      <trkpt lat="41.1427950" lon="-8.6115990">
        <ele>79.1</ele>
        <time>2021-05-15T17:32:09Z</time>
      </trkpt>
      <trkpt lat="41.1427950" lon="-8.6115990">
        <ele>79.1</ele>
        <time>2021-05-15T17:32:10Z</time>
      </trkpt>
      <trkpt lat="41.1428000" lon="-8.6116140">
        <ele>79.1</ele>
        <time>2021-05-15T17:32:11Z</time>
      </trkpt>
      <trkpt lat="41.1428010" lon="-8.6116130">
        <ele>79.1</ele>
        <time>2021-05-15T17:32:12Z</time>
      </trkpt>
      <trkpt lat="41.1428020" lon="-8.6116240">
        <ele>79.1</ele>
        <time>2021-05-15T17:32:13Z</time>
      </trkpt>
      <trkpt lat="41.1428010" lon="-8.6116260">
        <ele>79.1</ele>
        <time>2021-05-15T17:32:14Z</time>
      </trkpt>
      <trkpt lat="41.1427990" lon="-8.6116190">
        <ele>79.1</ele>
        <time>2021-05-15T17:32:15Z</time>
      </trkpt>
      <trkpt lat="41.1427960" lon="-8.6116170">
        <ele>79.1</ele>
        <time>2021-05-15T17:32:16Z</time>
      </trkpt>
      <trkpt lat="41.1427960" lon="-8.6116170">
        <ele>79.1</ele>
        <time>2021-05-15T17:32:17Z</time>
      </trkpt>
      <trkpt lat="41.1427960" lon="-8.6116170">
        <ele>79.1</ele>
        <time>2021-05-15T17:32:18Z</time>
      </trkpt>
      <trkpt lat="41.1427960" lon="-8.6115860">
        <ele>79.1</ele>
        <time>2021-05-15T17:32:19Z</time>
      </trkpt>
      <trkpt lat="41.1427900" lon="-8.6115760">
        <ele>79.1</ele>
        <time>2021-05-15T17:32:20Z</time>
      </trkpt>
      <trkpt lat="41.1427910" lon="-8.6115720">
        <ele>79.1</ele>
        <time>2021-05-15T17:32:21Z</time>
      </trkpt>
      <trkpt lat="41.1427920" lon="-8.6115710">
        <ele>79.1</ele>
        <time>2021-05-15T17:32:22Z</time>
      </trkpt>
      <trkpt lat="41.1427930" lon="-8.6115630">
        <ele>79.1</ele>
        <time>2021-05-15T17:32:23Z</time>
      </trkpt>
      <trkpt lat="41.1427950" lon="-8.6115610">
        <ele>79.1</ele>
        <time>2021-05-15T17:32:24Z</time>
      </trkpt>
      <trkpt lat="41.1427950" lon="-8.6115750">
        <ele>79.1</ele>
        <time>2021-05-15T17:32:25Z</time>
      </trkpt>
      <trkpt lat="41.1427930" lon="-8.6115710">
        <ele>79.1</ele>
        <time>2021-05-15T17:32:26Z</time>
      </trkpt>
      <trkpt lat="41.1427920" lon="-8.6115820">
        <ele>79.1</ele>
        <time>2021-05-15T17:32:27Z</time>
      </trkpt>
      <trkpt lat="41.1427840" lon="-8.6115820">
        <ele>79.1</ele>
        <time>2021-05-15T17:32:28Z</time>
      </trkpt>
      <trkpt lat="41.1427880" lon="-8.6115620">
        <ele>79.1</ele>
        <time>2021-05-15T17:32:29Z</time>
      </trkpt>
      <trkpt lat="41.1427880" lon="-8.6115580">
        <ele>79.1</ele>
        <time>2021-05-15T17:32:30Z</time>
      </trkpt>
      <trkpt lat="41.1427980" lon="-8.6115450">
        <ele>79.1</ele>
        <time>2021-05-15T17:32:31Z</time>
      </trkpt>
      <trkpt lat="41.1428020" lon="-8.6115440">
        <ele>79.1</ele>
        <time>2021-05-15T17:32:32Z</time>
      </trkpt>
      <trkpt lat="41.1427950" lon="-8.6115500">
        <ele>79.1</ele>
        <time>2021-05-15T17:32:33Z</time>
      </trkpt>
      <trkpt lat="41.1427920" lon="-8.6115700">
        <ele>79.1</ele>
        <time>2021-05-15T17:32:34Z</time>
      </trkpt>
      <trkpt lat="41.1427900" lon="-8.6115820">
        <ele>79.1</ele>
        <time>2021-05-15T17:32:35Z</time>
      </trkpt>
      <trkpt lat="41.1427820" lon="-8.6115850">
        <ele>79.1</ele>
        <time>2021-05-15T17:32:36Z</time>
      </trkpt>
      <trkpt lat="41.1427820" lon="-8.6115850">
        <ele>79.1</ele>
        <time>2021-05-15T17:32:37Z</time>
      </trkpt>
      <trkpt lat="41.1427880" lon="-8.6115830">
        <ele>79.1</ele>
        <time>2021-05-15T17:32:39Z</time>
      </trkpt>
      <trkpt lat="41.1427890" lon="-8.6115890">
        <ele>79.1</ele>
        <time>2021-05-15T17:32:40Z</time>
      </trkpt>
      <trkpt lat="41.1427880" lon="-8.6116070">
        <ele>79.1</ele>
        <time>2021-05-15T17:32:41Z</time>
      </trkpt>
      <trkpt lat="41.1427880" lon="-8.6116060">
        <ele>79.1</ele>
        <time>2021-05-15T17:32:42Z</time>
      </trkpt>
      <trkpt lat="41.1427880" lon="-8.6116060">
        <ele>79.1</ele>
        <time>2021-05-15T17:32:43Z</time>
      </trkpt>
      <trkpt lat="41.1427950" lon="-8.6115830">
        <ele>79.1</ele>
        <time>2021-05-15T17:32:44Z</time>
      </trkpt>
      <trkpt lat="41.1427950" lon="-8.6115880">
        <ele>79.1</ele>
        <time>2021-05-15T17:32:45Z</time>
      </trkpt>
      <trkpt lat="41.1427910" lon="-8.6115720">
        <ele>79.1</ele>
        <time>2021-05-15T17:32:46Z</time>
      </trkpt>
      <trkpt lat="41.1427860" lon="-8.6115850">
        <ele>79.1</ele>
        <time>2021-05-15T17:32:47Z</time>
      </trkpt>
      <trkpt lat="41.1427910" lon="-8.6115630">
        <ele>79.1</ele>
        <time>2021-05-15T17:32:48Z</time>
      </trkpt>
      <trkpt lat="41.1427860" lon="-8.6115630">
        <ele>79.1</ele>
        <time>2021-05-15T17:32:49Z</time>
      </trkpt>
      <trkpt lat="41.1427860" lon="-8.6115650">
        <ele>79.1</ele>
        <time>2021-05-15T17:32:50Z</time>
      </trkpt>
      <trkpt lat="41.1427940" lon="-8.6115370">
        <ele>79.1</ele>
        <time>2021-05-15T17:32:51Z</time>
      </trkpt>
      <trkpt lat="41.1427920" lon="-8.6115590">
        <ele>79.1</ele>
        <time>2021-05-15T17:32:52Z</time>
      </trkpt>
      <trkpt lat="41.1427960" lon="-8.6115640">
        <ele>79.1</ele>
        <time>2021-05-15T17:32:53Z</time>
      </trkpt>
      <trkpt lat="41.1428000" lon="-8.6115680">
        <ele>79.1</ele>
        <time>2021-05-15T17:32:54Z</time>
      </trkpt>
      <trkpt lat="41.1428030" lon="-8.6115730">
        <ele>79.1</ele>
        <time>2021-05-15T17:32:55Z</time>
      </trkpt>
      <trkpt lat="41.1428070" lon="-8.6115780">
        <ele>79.1</ele>
        <time>2021-05-15T17:32:56Z</time>
      </trkpt>
      <trkpt lat="41.1428110" lon="-8.6115830">
        <ele>79.1</ele>
        <time>2021-05-15T17:32:57Z</time>
      </trkpt>
      <trkpt lat="41.1428110" lon="-8.6115820">
        <ele>79.1</ele>
        <time>2021-05-15T17:32:58Z</time>
      </trkpt>
      <trkpt lat="41.1428110" lon="-8.6115820">
        <ele>79.1</ele>
        <time>2021-05-15T17:32:59Z</time>
      </trkpt>
      <trkpt lat="41.1428110" lon="-8.6115820">
        <ele>79.1</ele>
        <time>2021-05-15T17:33:00Z</time>
      </trkpt>
      <trkpt lat="41.1428310" lon="-8.6115750">
        <ele>79.1</ele>
        <time>2021-05-15T17:33:01Z</time>
      </trkpt>
      <trkpt lat="41.1428310" lon="-8.6115750">
        <ele>79.1</ele>
        <time>2021-05-15T17:33:02Z</time>
      </trkpt>
      <trkpt lat="41.1428380" lon="-8.6115600">
        <ele>79.1</ele>
        <time>2021-05-15T17:33:03Z</time>
      </trkpt>
      <trkpt lat="41.1428440" lon="-8.6115510">
        <ele>79.0</ele>
        <time>2021-05-15T17:33:04Z</time>
      </trkpt>
      <trkpt lat="41.1428500" lon="-8.6115420">
        <ele>79.0</ele>
        <time>2021-05-15T17:33:05Z</time>
      </trkpt>
      <trkpt lat="41.1428550" lon="-8.6115330">
        <ele>79.0</ele>
        <time>2021-05-15T17:33:06Z</time>
      </trkpt>
      <trkpt lat="41.1428610" lon="-8.6115240">
        <ele>79.0</ele>
        <time>2021-05-15T17:33:07Z</time>
      </trkpt>
      <trkpt lat="41.1428670" lon="-8.6115150">
        <ele>79.0</ele>
        <time>2021-05-15T17:33:08Z</time>
      </trkpt>
      <trkpt lat="41.1428670" lon="-8.6115140">
        <ele>79.0</ele>
        <time>2021-05-15T17:33:09Z</time>
      </trkpt>
      <trkpt lat="41.1428760" lon="-8.6115280">
        <ele>79.0</ele>
        <time>2021-05-15T17:33:10Z</time>
      </trkpt>
      <trkpt lat="41.1428790" lon="-8.6115360">
        <ele>79.0</ele>
        <time>2021-05-15T17:33:11Z</time>
      </trkpt>
      <trkpt lat="41.1428790" lon="-8.6115260">
        <ele>79.0</ele>
        <time>2021-05-15T17:33:12Z</time>
      </trkpt>
      <trkpt lat="41.1428800" lon="-8.6115210">
        <ele>79.0</ele>
        <time>2021-05-15T17:33:13Z</time>
      </trkpt>
      <trkpt lat="41.1428830" lon="-8.6115300">
        <ele>79.0</ele>
        <time>2021-05-15T17:33:14Z</time>
      </trkpt>
      <trkpt lat="41.1428800" lon="-8.6115300">
        <ele>79.0</ele>
        <time>2021-05-15T17:33:15Z</time>
      </trkpt>
      <trkpt lat="41.1428800" lon="-8.6115180">
        <ele>79.0</ele>
        <time>2021-05-15T17:33:16Z</time>
      </trkpt>
      <trkpt lat="41.1428820" lon="-8.6115310">
        <ele>79.0</ele>
        <time>2021-05-15T17:33:17Z</time>
      </trkpt>
      <trkpt lat="41.1428810" lon="-8.6115330">
        <ele>79.0</ele>
        <time>2021-05-15T17:33:18Z</time>
      </trkpt>
      <trkpt lat="41.1428810" lon="-8.6115320">
        <ele>79.0</ele>
        <time>2021-05-15T17:33:19Z</time>
      </trkpt>
      <trkpt lat="41.1428840" lon="-8.6115310">
        <ele>79.0</ele>
        <time>2021-05-15T17:33:20Z</time>
      </trkpt>
      <trkpt lat="41.1428860" lon="-8.6115190">
        <ele>79.1</ele>
        <time>2021-05-15T17:33:21Z</time>
      </trkpt>
      <trkpt lat="41.1428840" lon="-8.6115130">
        <ele>79.1</ele>
        <time>2021-05-15T17:33:22Z</time>
      </trkpt>
      <trkpt lat="41.1428730" lon="-8.6115240">
        <ele>79.1</ele>
        <time>2021-05-15T17:33:23Z</time>
      </trkpt>
      <trkpt lat="41.1428720" lon="-8.6115270">
        <ele>79.1</ele>
        <time>2021-05-15T17:33:24Z</time>
      </trkpt>
      <trkpt lat="41.1428670" lon="-8.6115310">
        <ele>79.1</ele>
        <time>2021-05-15T17:33:25Z</time>
      </trkpt>
      <trkpt lat="41.1428570" lon="-8.6115450">
        <ele>79.1</ele>
        <time>2021-05-15T17:33:26Z</time>
      </trkpt>
      <trkpt lat="41.1428510" lon="-8.6115570">
        <ele>79.1</ele>
        <time>2021-05-15T17:33:27Z</time>
      </trkpt>
      <trkpt lat="41.1428500" lon="-8.6115680">
        <ele>79.1</ele>
        <time>2021-05-15T17:33:28Z</time>
      </trkpt>
      <trkpt lat="41.1428490" lon="-8.6115960">
        <ele>79.1</ele>
        <time>2021-05-15T17:33:29Z</time>
      </trkpt>
      <trkpt lat="41.1428470" lon="-8.6115930">
        <ele>79.1</ele>
        <time>2021-05-15T17:33:30Z</time>
      </trkpt>
      <trkpt lat="41.1428400" lon="-8.6115990">
        <ele>79.1</ele>
        <time>2021-05-15T17:33:31Z</time>
      </trkpt>
      <trkpt lat="41.1428350" lon="-8.6116000">
        <ele>79.1</ele>
        <time>2021-05-15T17:33:32Z</time>
      </trkpt>
      <trkpt lat="41.1428370" lon="-8.6116110">
        <ele>79.1</ele>
        <time>2021-05-15T17:33:33Z</time>
      </trkpt>
      <trkpt lat="41.1428420" lon="-8.6116180">
        <ele>79.1</ele>
        <time>2021-05-15T17:33:34Z</time>
      </trkpt>
      <trkpt lat="41.1428370" lon="-8.6116120">
        <ele>79.1</ele>
        <time>2021-05-15T17:33:35Z</time>
      </trkpt>
      <trkpt lat="41.1428280" lon="-8.6116160">
        <ele>79.1</ele>
        <time>2021-05-15T17:33:36Z</time>
      </trkpt>
      <trkpt lat="41.1428280" lon="-8.6116190">
        <ele>79.1</ele>
        <time>2021-05-15T17:33:37Z</time>
      </trkpt>
      <trkpt lat="41.1428280" lon="-8.6116190">
        <ele>79.1</ele>
        <time>2021-05-15T17:33:38Z</time>
      </trkpt>
      <trkpt lat="41.1428280" lon="-8.6116190">
        <ele>79.1</ele>
        <time>2021-05-15T17:33:39Z</time>
      </trkpt>
      <trkpt lat="41.1428280" lon="-8.6116190">
        <ele>79.1</ele>
        <time>2021-05-15T17:33:40Z</time>
      </trkpt>
      <trkpt lat="41.1428280" lon="-8.6116190">
        <ele>79.1</ele>
        <time>2021-05-15T17:33:41Z</time>
      </trkpt>
      <trkpt lat="41.1428150" lon="-8.6116380">
        <ele>79.1</ele>
        <time>2021-05-15T17:33:42Z</time>
      </trkpt>
      <trkpt lat="41.1428180" lon="-8.6116320">
        <ele>79.1</ele>
        <time>2021-05-15T17:33:43Z</time>
      </trkpt>
      <trkpt lat="41.1428190" lon="-8.6116320">
        <ele>79.1</ele>
        <time>2021-05-15T17:33:44Z</time>
      </trkpt>
      <trkpt lat="41.1428200" lon="-8.6116320">
        <ele>79.1</ele>
        <time>2021-05-15T17:33:45Z</time>
      </trkpt>
      <trkpt lat="41.1428200" lon="-8.6116320">
        <ele>79.1</ele>
        <time>2021-05-15T17:33:46Z</time>
      </trkpt>
      <trkpt lat="41.1428200" lon="-8.6116320">
        <ele>79.1</ele>
        <time>2021-05-15T17:33:47Z</time>
      </trkpt>
      <trkpt lat="41.1428140" lon="-8.6116070">
        <ele>79.2</ele>
        <time>2021-05-15T17:33:48Z</time>
      </trkpt>
      <trkpt lat="41.1428080" lon="-8.6116210">
        <ele>79.2</ele>
        <time>2021-05-15T17:33:49Z</time>
      </trkpt>
      <trkpt lat="41.1428140" lon="-8.6116210">
        <ele>79.2</ele>
        <time>2021-05-15T17:33:50Z</time>
      </trkpt>
      <trkpt lat="41.1428130" lon="-8.6116220">
        <ele>79.2</ele>
        <time>2021-05-15T17:33:51Z</time>
      </trkpt>
      <trkpt lat="41.1428190" lon="-8.6116220">
        <ele>79.2</ele>
        <time>2021-05-15T17:33:52Z</time>
      </trkpt>
      <trkpt lat="41.1428280" lon="-8.6116230">
        <ele>79.2</ele>
        <time>2021-05-15T17:33:53Z</time>
      </trkpt>
      <trkpt lat="41.1428330" lon="-8.6116180">
        <ele>79.2</ele>
        <time>2021-05-15T17:33:54Z</time>
      </trkpt>
      <trkpt lat="41.1428420" lon="-8.6116090">
        <ele>79.2</ele>
        <time>2021-05-15T17:33:55Z</time>
      </trkpt>
      <trkpt lat="41.1428490" lon="-8.6116190">
        <ele>79.2</ele>
        <time>2021-05-15T17:33:56Z</time>
      </trkpt>
      <trkpt lat="41.1428480" lon="-8.6116260">
        <ele>79.2</ele>
        <time>2021-05-15T17:33:57Z</time>
      </trkpt>
      <trkpt lat="41.1428550" lon="-8.6116310">
        <ele>79.2</ele>
        <time>2021-05-15T17:33:58Z</time>
      </trkpt>
      <trkpt lat="41.1428740" lon="-8.6116240">
        <ele>79.2</ele>
        <time>2021-05-15T17:33:59Z</time>
      </trkpt>
      <trkpt lat="41.1428800" lon="-8.6116300">
        <ele>79.2</ele>
        <time>2021-05-15T17:34:00Z</time>
      </trkpt>
      <trkpt lat="41.1428840" lon="-8.6116300">
        <ele>79.2</ele>
        <time>2021-05-15T17:34:01Z</time>
      </trkpt>
      <trkpt lat="41.1428910" lon="-8.6116240">
        <ele>79.2</ele>
        <time>2021-05-15T17:34:02Z</time>
      </trkpt>
      <trkpt lat="41.1428990" lon="-8.6116090">
        <ele>79.2</ele>
        <time>2021-05-15T17:34:03Z</time>
      </trkpt>
      <trkpt lat="41.1429040" lon="-8.6116000">
        <ele>79.2</ele>
        <time>2021-05-15T17:34:04Z</time>
      </trkpt>
      <trkpt lat="41.1429120" lon="-8.6115900">
        <ele>79.2</ele>
        <time>2021-05-15T17:34:05Z</time>
      </trkpt>
      <trkpt lat="41.1429210" lon="-8.6115810">
        <ele>79.2</ele>
        <time>2021-05-15T17:34:06Z</time>
      </trkpt>
      <trkpt lat="41.1429260" lon="-8.6115720">
        <ele>79.2</ele>
        <time>2021-05-15T17:34:07Z</time>
      </trkpt>
      <trkpt lat="41.1429360" lon="-8.6115650">
        <ele>79.3</ele>
        <time>2021-05-15T17:34:08Z</time>
      </trkpt>
      <trkpt lat="41.1429440" lon="-8.6115640">
        <ele>79.3</ele>
        <time>2021-05-15T17:34:09Z</time>
      </trkpt>
      <trkpt lat="41.1429530" lon="-8.6115620">
        <ele>79.3</ele>
        <time>2021-05-15T17:34:10Z</time>
      </trkpt>
      <trkpt lat="41.1429610" lon="-8.6115610">
        <ele>79.3</ele>
        <time>2021-05-15T17:34:11Z</time>
      </trkpt>
      <trkpt lat="41.1429800" lon="-8.6115600">
        <ele>79.3</ele>
        <time>2021-05-15T17:34:12Z</time>
      </trkpt>
      <trkpt lat="41.1429860" lon="-8.6115560">
        <ele>79.3</ele>
        <time>2021-05-15T17:34:13Z</time>
      </trkpt>
      <trkpt lat="41.1429920" lon="-8.6115530">
        <ele>79.3</ele>
        <time>2021-05-15T17:34:14Z</time>
      </trkpt>
      <trkpt lat="41.1429980" lon="-8.6115490">
        <ele>79.3</ele>
        <time>2021-05-15T17:34:15Z</time>
      </trkpt>
      <trkpt lat="41.1430060" lon="-8.6115480">
        <ele>79.3</ele>
        <time>2021-05-15T17:34:16Z</time>
      </trkpt>
      <trkpt lat="41.1430180" lon="-8.6115410">
        <ele>79.3</ele>
        <time>2021-05-15T17:34:17Z</time>
      </trkpt>
      <trkpt lat="41.1430200" lon="-8.6115370">
        <ele>79.3</ele>
        <time>2021-05-15T17:34:18Z</time>
      </trkpt>
      <trkpt lat="41.1430310" lon="-8.6115310">
        <ele>79.5</ele>
        <time>2021-05-15T17:34:19Z</time>
      </trkpt>
      <trkpt lat="41.1430470" lon="-8.6115220">
        <ele>79.5</ele>
        <time>2021-05-15T17:34:20Z</time>
      </trkpt>
      <trkpt lat="41.1430540" lon="-8.6115140">
        <ele>79.4</ele>
        <time>2021-05-15T17:34:21Z</time>
      </trkpt>
      <trkpt lat="41.1430630" lon="-8.6115120">
        <ele>79.2</ele>
        <time>2021-05-15T17:34:22Z</time>
      </trkpt>
      <trkpt lat="41.1430630" lon="-8.6115100">
        <ele>79.2</ele>
        <time>2021-05-15T17:34:23Z</time>
      </trkpt>
      <trkpt lat="41.1430650" lon="-8.6115070">
        <ele>79.2</ele>
        <time>2021-05-15T17:34:24Z</time>
      </trkpt>
      <trkpt lat="41.1430610" lon="-8.6114940">
        <ele>79.0</ele>
        <time>2021-05-15T17:34:25Z</time>
      </trkpt>
      <trkpt lat="41.1430630" lon="-8.6114870">
        <ele>79.0</ele>
        <time>2021-05-15T17:34:26Z</time>
      </trkpt>
      <trkpt lat="41.1430690" lon="-8.6114900">
        <ele>78.9</ele>
        <time>2021-05-15T17:34:27Z</time>
      </trkpt>
      <trkpt lat="41.1430720" lon="-8.6114860">
        <ele>78.8</ele>
        <time>2021-05-15T17:34:28Z</time>
      </trkpt>
      <trkpt lat="41.1430730" lon="-8.6114880">
        <ele>78.8</ele>
        <time>2021-05-15T17:34:29Z</time>
      </trkpt>
      <trkpt lat="41.1430700" lon="-8.6114910">
        <ele>78.7</ele>
        <time>2021-05-15T17:34:30Z</time>
      </trkpt>
      <trkpt lat="41.1430780" lon="-8.6114900">
        <ele>78.6</ele>
        <time>2021-05-15T17:34:31Z</time>
      </trkpt>
      <trkpt lat="41.1430770" lon="-8.6114850">
        <ele>78.5</ele>
        <time>2021-05-15T17:34:32Z</time>
      </trkpt>
      <trkpt lat="41.1430770" lon="-8.6114790">
        <ele>78.5</ele>
        <time>2021-05-15T17:34:33Z</time>
      </trkpt>
      <trkpt lat="41.1430690" lon="-8.6114810">
        <ele>78.4</ele>
        <time>2021-05-15T17:34:34Z</time>
      </trkpt>
      <trkpt lat="41.1430630" lon="-8.6114820">
        <ele>78.3</ele>
        <time>2021-05-15T17:34:35Z</time>
      </trkpt>
      <trkpt lat="41.1430560" lon="-8.6114830">
        <ele>78.2</ele>
        <time>2021-05-15T17:34:36Z</time>
      </trkpt>
      <trkpt lat="41.1430500" lon="-8.6114840">
        <ele>78.1</ele>
        <time>2021-05-15T17:34:37Z</time>
      </trkpt>
      <trkpt lat="41.1430440" lon="-8.6114860">
        <ele>78.0</ele>
        <time>2021-05-15T17:34:38Z</time>
      </trkpt>
      <trkpt lat="41.1430380" lon="-8.6114870">
        <ele>77.9</ele>
        <time>2021-05-15T17:34:39Z</time>
      </trkpt>
      <trkpt lat="41.1430320" lon="-8.6114880">
        <ele>77.8</ele>
        <time>2021-05-15T17:34:40Z</time>
      </trkpt>
      <trkpt lat="41.1430250" lon="-8.6114890">
        <ele>77.7</ele>
        <time>2021-05-15T17:34:41Z</time>
      </trkpt>
      <trkpt lat="41.1430190" lon="-8.6114900">
        <ele>77.6</ele>
        <time>2021-05-15T17:34:42Z</time>
      </trkpt>
      <trkpt lat="41.1430130" lon="-8.6114910">
        <ele>77.5</ele>
        <time>2021-05-15T17:34:43Z</time>
      </trkpt>
      <trkpt lat="41.1430140" lon="-8.6114780">
        <ele>77.3</ele>
        <time>2021-05-15T17:34:44Z</time>
      </trkpt>
      <trkpt lat="41.1430250" lon="-8.6114580">
        <ele>77.0</ele>
        <time>2021-05-15T17:34:45Z</time>
      </trkpt>
      <trkpt lat="41.1430440" lon="-8.6114500">
        <ele>76.7</ele>
        <time>2021-05-15T17:34:46Z</time>
      </trkpt>
      <trkpt lat="41.1430550" lon="-8.6114440">
        <ele>76.5</ele>
        <time>2021-05-15T17:34:47Z</time>
      </trkpt>
      <trkpt lat="41.1430660" lon="-8.6114380">
        <ele>76.3</ele>
        <time>2021-05-15T17:34:48Z</time>
      </trkpt>
      <trkpt lat="41.1430770" lon="-8.6114320">
        <ele>76.1</ele>
        <time>2021-05-15T17:34:49Z</time>
      </trkpt>
      <trkpt lat="41.1430910" lon="-8.6114290">
        <ele>75.8</ele>
        <time>2021-05-15T17:34:50Z</time>
      </trkpt>
      <trkpt lat="41.1431030" lon="-8.6114160">
        <ele>75.5</ele>
        <time>2021-05-15T17:34:51Z</time>
      </trkpt>
      <trkpt lat="41.1431130" lon="-8.6114010">
        <ele>75.2</ele>
        <time>2021-05-15T17:34:52Z</time>
      </trkpt>
      <trkpt lat="41.1431200" lon="-8.6113900">
        <ele>75.0</ele>
        <time>2021-05-15T17:34:53Z</time>
      </trkpt>
      <trkpt lat="41.1431250" lon="-8.6113780">
        <ele>74.8</ele>
        <time>2021-05-15T17:34:54Z</time>
      </trkpt>
      <trkpt lat="41.1431260" lon="-8.6113700">
        <ele>74.6</ele>
        <time>2021-05-15T17:34:55Z</time>
      </trkpt>
      <trkpt lat="41.1431250" lon="-8.6113650">
        <ele>74.6</ele>
        <time>2021-05-15T17:34:56Z</time>
      </trkpt>
      <trkpt lat="41.1431320" lon="-8.6113570">
        <ele>74.4</ele>
        <time>2021-05-15T17:34:57Z</time>
      </trkpt>
      <trkpt lat="41.1431330" lon="-8.6113500">
        <ele>74.3</ele>
        <time>2021-05-15T17:34:58Z</time>
      </trkpt>
      <trkpt lat="41.1431330" lon="-8.6113350">
        <ele>74.1</ele>
        <time>2021-05-15T17:34:59Z</time>
      </trkpt>
      <trkpt lat="41.1431470" lon="-8.6113140">
        <ele>73.6</ele>
        <time>2021-05-15T17:35:00Z</time>
      </trkpt>
      <trkpt lat="41.1431480" lon="-8.6113050">
        <ele>73.5</ele>
        <time>2021-05-15T17:35:01Z</time>
      </trkpt>
      <trkpt lat="41.1431540" lon="-8.6112960">
        <ele>73.3</ele>
        <time>2021-05-15T17:35:02Z</time>
      </trkpt>
      <trkpt lat="41.1431620" lon="-8.6112940">
        <ele>73.2</ele>
        <time>2021-05-15T17:35:03Z</time>
      </trkpt>
      <trkpt lat="41.1431680" lon="-8.6112890">
        <ele>73.0</ele>
        <time>2021-05-15T17:35:04Z</time>
      </trkpt>
      <trkpt lat="41.1431630" lon="-8.6112740">
        <ele>72.8</ele>
        <time>2021-05-15T17:35:05Z</time>
      </trkpt>
      <trkpt lat="41.1431680" lon="-8.6112690">
        <ele>72.7</ele>
        <time>2021-05-15T17:35:06Z</time>
      </trkpt>
      <trkpt lat="41.1431690" lon="-8.6112580">
        <ele>72.5</ele>
        <time>2021-05-15T17:35:07Z</time>
      </trkpt>
      <trkpt lat="41.1431740" lon="-8.6112530">
        <ele>72.4</ele>
        <time>2021-05-15T17:35:08Z</time>
      </trkpt>
      <trkpt lat="41.1431790" lon="-8.6112420">
        <ele>72.2</ele>
        <time>2021-05-15T17:35:09Z</time>
      </trkpt>
      <trkpt lat="41.1431890" lon="-8.6112240">
        <ele>71.9</ele>
        <time>2021-05-15T17:35:10Z</time>
      </trkpt>
      <trkpt lat="41.1431900" lon="-8.6112160">
        <ele>71.7</ele>
        <time>2021-05-15T17:35:11Z</time>
      </trkpt>
      <trkpt lat="41.1431920" lon="-8.6112090">
        <ele>68.9</ele>
        <time>2021-05-15T17:35:12Z</time>
      </trkpt>
      <trkpt lat="41.1431930" lon="-8.6112010">
        <ele>68.9</ele>
        <time>2021-05-15T17:35:13Z</time>
      </trkpt>
      <trkpt lat="41.1431950" lon="-8.6111930">
        <ele>68.9</ele>
        <time>2021-05-15T17:35:14Z</time>
      </trkpt>
      <trkpt lat="41.1431860" lon="-8.6111860">
        <ele>68.9</ele>
        <time>2021-05-15T17:35:15Z</time>
      </trkpt>
      <trkpt lat="41.1431970" lon="-8.6111860">
        <ele>68.9</ele>
        <time>2021-05-15T17:35:16Z</time>
      </trkpt>
      <trkpt lat="41.1432140" lon="-8.6111830">
        <ele>68.9</ele>
        <time>2021-05-15T17:35:17Z</time>
      </trkpt>
      <trkpt lat="41.1432260" lon="-8.6111800">
        <ele>68.9</ele>
        <time>2021-05-15T17:35:18Z</time>
      </trkpt>
      <trkpt lat="41.1432470" lon="-8.6111700">
        <ele>68.9</ele>
        <time>2021-05-15T17:35:19Z</time>
      </trkpt>
      <trkpt lat="41.1432440" lon="-8.6111720">
        <ele>68.9</ele>
        <time>2021-05-15T17:35:20Z</time>
      </trkpt>
      <trkpt lat="41.1432430" lon="-8.6111700">
        <ele>68.9</ele>
        <time>2021-05-15T17:35:21Z</time>
      </trkpt>
      <trkpt lat="41.1432400" lon="-8.6111810">
        <ele>68.9</ele>
        <time>2021-05-15T17:35:22Z</time>
      </trkpt>
      <trkpt lat="41.1432400" lon="-8.6111850">
        <ele>68.9</ele>
        <time>2021-05-15T17:35:23Z</time>
      </trkpt>
      <trkpt lat="41.1432350" lon="-8.6111920">
        <ele>68.9</ele>
        <time>2021-05-15T17:35:24Z</time>
      </trkpt>
      <trkpt lat="41.1432330" lon="-8.6112050">
        <ele>68.9</ele>
        <time>2021-05-15T17:35:25Z</time>
      </trkpt>
      <trkpt lat="41.1432310" lon="-8.6112190">
        <ele>68.9</ele>
        <time>2021-05-15T17:35:26Z</time>
      </trkpt>
      <trkpt lat="41.1432260" lon="-8.6112310">
        <ele>68.9</ele>
        <time>2021-05-15T17:35:27Z</time>
      </trkpt>
      <trkpt lat="41.1432190" lon="-8.6112350">
        <ele>68.9</ele>
        <time>2021-05-15T17:35:28Z</time>
      </trkpt>
      <trkpt lat="41.1432180" lon="-8.6112310">
        <ele>68.9</ele>
        <time>2021-05-15T17:35:29Z</time>
      </trkpt>
      <trkpt lat="41.1432170" lon="-8.6112330">
        <ele>68.9</ele>
        <time>2021-05-15T17:35:30Z</time>
      </trkpt>
      <trkpt lat="41.1432180" lon="-8.6112370">
        <ele>68.9</ele>
        <time>2021-05-15T17:35:31Z</time>
      </trkpt>
      <trkpt lat="41.1432170" lon="-8.6112370">
        <ele>68.9</ele>
        <time>2021-05-15T17:35:32Z</time>
      </trkpt>
      <trkpt lat="41.1432100" lon="-8.6112370">
        <ele>68.9</ele>
        <time>2021-05-15T17:35:33Z</time>
      </trkpt>
      <trkpt lat="41.1432050" lon="-8.6112410">
        <ele>68.9</ele>
        <time>2021-05-15T17:35:34Z</time>
      </trkpt>
      <trkpt lat="41.1432050" lon="-8.6112410">
        <ele>68.9</ele>
        <time>2021-05-15T17:35:35Z</time>
      </trkpt>
      <trkpt lat="41.1431950" lon="-8.6112760">
        <ele>68.9</ele>
        <time>2021-05-15T17:35:36Z</time>
      </trkpt>
      <trkpt lat="41.1431970" lon="-8.6112820">
        <ele>68.9</ele>
        <time>2021-05-15T17:35:37Z</time>
      </trkpt>
      <trkpt lat="41.1432040" lon="-8.6112780">
        <ele>68.9</ele>
        <time>2021-05-15T17:35:38Z</time>
      </trkpt>
      <trkpt lat="41.1432060" lon="-8.6112740">
        <ele>68.9</ele>
        <time>2021-05-15T17:35:39Z</time>
      </trkpt>
      <trkpt lat="41.1432050" lon="-8.6112750">
        <ele>68.9</ele>
        <time>2021-05-15T17:35:40Z</time>
      </trkpt>
      <trkpt lat="41.1432070" lon="-8.6112800">
        <ele>68.9</ele>
        <time>2021-05-15T17:35:41Z</time>
      </trkpt>
      <trkpt lat="41.1432050" lon="-8.6112880">
        <ele>68.9</ele>
        <time>2021-05-15T17:35:42Z</time>
      </trkpt>
      <trkpt lat="41.1432060" lon="-8.6112940">
        <ele>68.9</ele>
        <time>2021-05-15T17:35:43Z</time>
      </trkpt>
      <trkpt lat="41.1432080" lon="-8.6112840">
        <ele>68.9</ele>
        <time>2021-05-15T17:35:44Z</time>
      </trkpt>
      <trkpt lat="41.1432070" lon="-8.6112820">
        <ele>68.9</ele>
        <time>2021-05-15T17:35:45Z</time>
      </trkpt>
      <trkpt lat="41.1432040" lon="-8.6112760">
        <ele>68.9</ele>
        <time>2021-05-15T17:35:46Z</time>
      </trkpt>
      <trkpt lat="41.1432080" lon="-8.6112690">
        <ele>68.9</ele>
        <time>2021-05-15T17:35:47Z</time>
      </trkpt>
      <trkpt lat="41.1432000" lon="-8.6112820">
        <ele>68.9</ele>
        <time>2021-05-15T17:35:48Z</time>
      </trkpt>
      <trkpt lat="41.1431950" lon="-8.6112950">
        <ele>68.9</ele>
        <time>2021-05-15T17:35:49Z</time>
      </trkpt>
      <trkpt lat="41.1432000" lon="-8.6113060">
        <ele>68.9</ele>
        <time>2021-05-15T17:35:50Z</time>
      </trkpt>
      <trkpt lat="41.1432010" lon="-8.6113230">
        <ele>68.9</ele>
        <time>2021-05-15T17:35:51Z</time>
      </trkpt>
      <trkpt lat="41.1432010" lon="-8.6113340">
        <ele>65.5</ele>
        <time>2021-05-15T17:35:52Z</time>
      </trkpt>
      <trkpt lat="41.1431950" lon="-8.6113530">
        <ele>65.4</ele>
        <time>2021-05-15T17:35:53Z</time>
      </trkpt>
      <trkpt lat="41.1431970" lon="-8.6113670">
        <ele>65.2</ele>
        <time>2021-05-15T17:35:54Z</time>
      </trkpt>
      <trkpt lat="41.1432070" lon="-8.6114100">
        <ele>64.8</ele>
        <time>2021-05-15T17:35:55Z</time>
      </trkpt>
      <trkpt lat="41.1432080" lon="-8.6114370">
        <ele>64.6</ele>
        <time>2021-05-15T17:35:56Z</time>
      </trkpt>
      <trkpt lat="41.1432020" lon="-8.6114560">
        <ele>64.4</ele>
        <time>2021-05-15T17:35:57Z</time>
      </trkpt>
      <trkpt lat="41.1432010" lon="-8.6114670">
        <ele>64.3</ele>
        <time>2021-05-15T17:35:58Z</time>
      </trkpt>
      <trkpt lat="41.1432130" lon="-8.6114780">
        <ele>64.2</ele>
        <time>2021-05-15T17:35:59Z</time>
      </trkpt>
      <trkpt lat="41.1432230" lon="-8.6114850">
        <ele>64.0</ele>
        <time>2021-05-15T17:36:00Z</time>
      </trkpt>
      <trkpt lat="41.1432470" lon="-8.6114980">
        <ele>63.7</ele>
        <time>2021-05-15T17:36:01Z</time>
      </trkpt>
      <trkpt lat="41.1432650" lon="-8.6115090">
        <ele>63.5</ele>
        <time>2021-05-15T17:36:02Z</time>
      </trkpt>
      <trkpt lat="41.1432980" lon="-8.6115230">
        <ele>63.3</ele>
        <time>2021-05-15T17:36:03Z</time>
      </trkpt>
      <trkpt lat="41.1433160" lon="-8.6115340">
        <ele>63.1</ele>
        <time>2021-05-15T17:36:04Z</time>
      </trkpt>
      <trkpt lat="41.1433260" lon="-8.6115540">
        <ele>62.9</ele>
        <time>2021-05-15T17:36:05Z</time>
      </trkpt>
      <trkpt lat="41.1433320" lon="-8.6115750">
        <ele>62.7</ele>
        <time>2021-05-15T17:36:06Z</time>
      </trkpt>
      <trkpt lat="41.1433400" lon="-8.6115970">
        <ele>62.5</ele>
        <time>2021-05-15T17:36:07Z</time>
      </trkpt>
      <trkpt lat="41.1433530" lon="-8.6116110">
        <ele>62.4</ele>
        <time>2021-05-15T17:36:08Z</time>
      </trkpt>
      <trkpt lat="41.1433630" lon="-8.6116270">
        <ele>62.2</ele>
        <time>2021-05-15T17:36:09Z</time>
      </trkpt>
      <trkpt lat="41.1433760" lon="-8.6116410">
        <ele>62.0</ele>
        <time>2021-05-15T17:36:10Z</time>
      </trkpt>
      <trkpt lat="41.1433860" lon="-8.6116530">
        <ele>61.9</ele>
        <time>2021-05-15T17:36:11Z</time>
      </trkpt>
      <trkpt lat="41.1433940" lon="-8.6116720">
        <ele>61.7</ele>
        <time>2021-05-15T17:36:12Z</time>
      </trkpt>
      <trkpt lat="41.1434000" lon="-8.6116850">
        <ele>61.5</ele>
        <time>2021-05-15T17:36:13Z</time>
      </trkpt>
      <trkpt lat="41.1434070" lon="-8.6116970">
        <ele>61.4</ele>
        <time>2021-05-15T17:36:14Z</time>
      </trkpt>
      <trkpt lat="41.1434140" lon="-8.6117100">
        <ele>61.2</ele>
        <time>2021-05-15T17:36:15Z</time>
      </trkpt>
      <trkpt lat="41.1434320" lon="-8.6117190">
        <ele>61.0</ele>
        <time>2021-05-15T17:36:16Z</time>
      </trkpt>
      <trkpt lat="41.1434420" lon="-8.6117310">
        <ele>60.8</ele>
        <time>2021-05-15T17:36:17Z</time>
      </trkpt>
      <trkpt lat="41.1434600" lon="-8.6117470">
        <ele>60.6</ele>
        <time>2021-05-15T17:36:18Z</time>
      </trkpt>
      <trkpt lat="41.1434710" lon="-8.6117660">
        <ele>60.4</ele>
        <time>2021-05-15T17:36:19Z</time>
      </trkpt>
      <trkpt lat="41.1434680" lon="-8.6117930">
        <ele>60.1</ele>
        <time>2021-05-15T17:36:20Z</time>
      </trkpt>
      <trkpt lat="41.1434620" lon="-8.6118310">
        <ele>59.8</ele>
        <time>2021-05-15T17:36:21Z</time>
      </trkpt>
      <trkpt lat="41.1434620" lon="-8.6118420">
        <ele>59.7</ele>
        <time>2021-05-15T17:36:22Z</time>
      </trkpt>
      <trkpt lat="41.1434610" lon="-8.6118740">
        <ele>59.4</ele>
        <time>2021-05-15T17:36:23Z</time>
      </trkpt>
      <trkpt lat="41.1434540" lon="-8.6118870">
        <ele>59.2</ele>
        <time>2021-05-15T17:36:24Z</time>
      </trkpt>
      <trkpt lat="41.1434450" lon="-8.6118970">
        <ele>59.1</ele>
        <time>2021-05-15T17:36:25Z</time>
      </trkpt>
      <trkpt lat="41.1434470" lon="-8.6119080">
        <ele>59.0</ele>
        <time>2021-05-15T17:36:26Z</time>
      </trkpt>
      <trkpt lat="41.1434550" lon="-8.6119260">
        <ele>58.8</ele>
        <time>2021-05-15T17:36:27Z</time>
      </trkpt>
      <trkpt lat="41.1434780" lon="-8.6119290">
        <ele>58.6</ele>
        <time>2021-05-15T17:36:28Z</time>
      </trkpt>
      <trkpt lat="41.1434830" lon="-8.6119170">
        <ele>58.4</ele>
        <time>2021-05-15T17:36:29Z</time>
      </trkpt>
      <trkpt lat="41.1434830" lon="-8.6119140">
        <ele>58.4</ele>
        <time>2021-05-15T17:36:30Z</time>
      </trkpt>
      <trkpt lat="41.1434920" lon="-8.6119190">
        <ele>58.2</ele>
        <time>2021-05-15T17:36:31Z</time>
      </trkpt>
      <trkpt lat="41.1435060" lon="-8.6119330">
        <ele>58.1</ele>
        <time>2021-05-15T17:36:32Z</time>
      </trkpt>
      <trkpt lat="41.1435150" lon="-8.6119350">
        <ele>58.1</ele>
        <time>2021-05-15T17:36:33Z</time>
      </trkpt>
      <trkpt lat="41.1435330" lon="-8.6119500">
        <ele>58.0</ele>
        <time>2021-05-15T17:36:34Z</time>
      </trkpt>
      <trkpt lat="41.1435410" lon="-8.6119560">
        <ele>58.0</ele>
        <time>2021-05-15T17:36:35Z</time>
      </trkpt>
      <trkpt lat="41.1435500" lon="-8.6119610">
        <ele>58.0</ele>
        <time>2021-05-15T17:36:36Z</time>
      </trkpt>
      <trkpt lat="41.1435640" lon="-8.6119650">
        <ele>58.0</ele>
        <time>2021-05-15T17:36:37Z</time>
      </trkpt>
      <trkpt lat="41.1435710" lon="-8.6119670">
        <ele>58.0</ele>
        <time>2021-05-15T17:36:38Z</time>
      </trkpt>
      <trkpt lat="41.1435760" lon="-8.6119710">
        <ele>57.9</ele>
        <time>2021-05-15T17:36:39Z</time>
      </trkpt>
      <trkpt lat="41.1435780" lon="-8.6119800">
        <ele>57.9</ele>
        <time>2021-05-15T17:36:40Z</time>
      </trkpt>
      <trkpt lat="41.1435920" lon="-8.6120140">
        <ele>57.7</ele>
        <time>2021-05-15T17:36:41Z</time>
      </trkpt>
      <trkpt lat="41.1436050" lon="-8.6120270">
        <ele>57.5</ele>
        <time>2021-05-15T17:36:42Z</time>
      </trkpt>
      <trkpt lat="41.1436170" lon="-8.6120400">
        <ele>57.4</ele>
        <time>2021-05-15T17:36:43Z</time>
      </trkpt>
      <trkpt lat="41.1436400" lon="-8.6120580">
        <ele>57.1</ele>
        <time>2021-05-15T17:36:44Z</time>
      </trkpt>
      <trkpt lat="41.1436540" lon="-8.6120890">
        <ele>56.8</ele>
        <time>2021-05-15T17:36:45Z</time>
      </trkpt>
      <trkpt lat="41.1436600" lon="-8.6120950">
        <ele>56.7</ele>
        <time>2021-05-15T17:36:46Z</time>
      </trkpt>
      <trkpt lat="41.1436790" lon="-8.6121120">
        <ele>56.5</ele>
        <time>2021-05-15T17:36:47Z</time>
      </trkpt>
      <trkpt lat="41.1436820" lon="-8.6121260">
        <ele>56.4</ele>
        <time>2021-05-15T17:36:48Z</time>
      </trkpt>
      <trkpt lat="41.1436850" lon="-8.6121390">
        <ele>56.3</ele>
        <time>2021-05-15T17:36:49Z</time>
      </trkpt>
      <trkpt lat="41.1436940" lon="-8.6121540">
        <ele>56.1</ele>
        <time>2021-05-15T17:36:50Z</time>
      </trkpt>
      <trkpt lat="41.1436970" lon="-8.6121730">
        <ele>56.0</ele>
        <time>2021-05-15T17:36:51Z</time>
      </trkpt>
      <trkpt lat="41.1437270" lon="-8.6121680">
        <ele>55.6</ele>
        <time>2021-05-15T17:36:52Z</time>
      </trkpt>
      <trkpt lat="41.1437320" lon="-8.6121640">
        <ele>55.6</ele>
        <time>2021-05-15T17:36:53Z</time>
      </trkpt>
      <trkpt lat="41.1437370" lon="-8.6121590">
        <ele>55.5</ele>
        <time>2021-05-15T17:36:54Z</time>
      </trkpt>
      <trkpt lat="41.1437420" lon="-8.6121550">
        <ele>55.4</ele>
        <time>2021-05-15T17:36:55Z</time>
      </trkpt>
      <trkpt lat="41.1437470" lon="-8.6121510">
        <ele>55.4</ele>
        <time>2021-05-15T17:36:56Z</time>
      </trkpt>
      <trkpt lat="41.1437730" lon="-8.6121510">
        <ele>55.1</ele>
        <time>2021-05-15T17:36:57Z</time>
      </trkpt>
      <trkpt lat="41.1437880" lon="-8.6121530">
        <ele>54.9</ele>
        <time>2021-05-15T17:36:58Z</time>
      </trkpt>
      <trkpt lat="41.1438020" lon="-8.6121540">
        <ele>54.8</ele>
        <time>2021-05-15T17:36:59Z</time>
      </trkpt>
      <trkpt lat="41.1438160" lon="-8.6121750">
        <ele>54.7</ele>
        <time>2021-05-15T17:37:00Z</time>
      </trkpt>
      <trkpt lat="41.1438240" lon="-8.6121920">
        <ele>54.6</ele>
        <time>2021-05-15T17:37:01Z</time>
      </trkpt>
      <trkpt lat="41.1438320" lon="-8.6122080">
        <ele>54.5</ele>
        <time>2021-05-15T17:37:02Z</time>
      </trkpt>
      <trkpt lat="41.1438510" lon="-8.6122410">
        <ele>54.3</ele>
        <time>2021-05-15T17:37:03Z</time>
      </trkpt>
      <trkpt lat="41.1438580" lon="-8.6122510">
        <ele>54.2</ele>
        <time>2021-05-15T17:37:04Z</time>
      </trkpt>
      <trkpt lat="41.1438670" lon="-8.6122650">
        <ele>54.1</ele>
        <time>2021-05-15T17:37:05Z</time>
      </trkpt>
      <trkpt lat="41.1438730" lon="-8.6122710">
        <ele>54.0</ele>
        <time>2021-05-15T17:37:06Z</time>
      </trkpt>
      <trkpt lat="41.1438890" lon="-8.6122730">
        <ele>53.9</ele>
        <time>2021-05-15T17:37:07Z</time>
      </trkpt>
      <trkpt lat="41.1439000" lon="-8.6122870">
        <ele>53.8</ele>
        <time>2021-05-15T17:37:08Z</time>
      </trkpt>
      <trkpt lat="41.1439210" lon="-8.6122560">
        <ele>53.5</ele>
        <time>2021-05-15T17:37:09Z</time>
      </trkpt>
      <trkpt lat="41.1439470" lon="-8.6122480">
        <ele>53.3</ele>
        <time>2021-05-15T17:37:10Z</time>
      </trkpt>
      <trkpt lat="41.1439570" lon="-8.6122470">
        <ele>53.2</ele>
        <time>2021-05-15T17:37:11Z</time>
      </trkpt>
      <trkpt lat="41.1439900" lon="-8.6122160">
        <ele>52.9</ele>
        <time>2021-05-15T17:37:12Z</time>
      </trkpt>
      <trkpt lat="41.1440160" lon="-8.6121990">
        <ele>52.7</ele>
        <time>2021-05-15T17:37:13Z</time>
      </trkpt>
      <trkpt lat="41.1440270" lon="-8.6121910">
        <ele>52.6</ele>
        <time>2021-05-15T17:37:14Z</time>
      </trkpt>
      <trkpt lat="41.1440500" lon="-8.6121820">
        <ele>52.4</ele>
        <time>2021-05-15T17:37:15Z</time>
      </trkpt>
      <trkpt lat="41.1440600" lon="-8.6121810">
        <ele>52.3</ele>
        <time>2021-05-15T17:37:16Z</time>
      </trkpt>
      <trkpt lat="41.1440690" lon="-8.6121790">
        <ele>52.2</ele>
        <time>2021-05-15T17:37:17Z</time>
      </trkpt>
      <trkpt lat="41.1440790" lon="-8.6121770">
        <ele>52.1</ele>
        <time>2021-05-15T17:37:18Z</time>
      </trkpt>
      <trkpt lat="41.1441160" lon="-8.6121640">
        <ele>51.8</ele>
        <time>2021-05-15T17:37:19Z</time>
      </trkpt>
      <trkpt lat="41.1441270" lon="-8.6121650">
        <ele>51.7</ele>
        <time>2021-05-15T17:37:20Z</time>
      </trkpt>
      <trkpt lat="41.1441650" lon="-8.6121580">
        <ele>51.4</ele>
        <time>2021-05-15T17:37:21Z</time>
      </trkpt>
      <trkpt lat="41.1442050" lon="-8.6121520">
        <ele>51.1</ele>
        <time>2021-05-15T17:37:22Z</time>
      </trkpt>
      <trkpt lat="41.1442170" lon="-8.6121430">
        <ele>51.0</ele>
        <time>2021-05-15T17:37:23Z</time>
      </trkpt>
      <trkpt lat="41.1442310" lon="-8.6121310">
        <ele>50.8</ele>
        <time>2021-05-15T17:37:24Z</time>
      </trkpt>
      <trkpt lat="41.1442460" lon="-8.6121400">
        <ele>50.7</ele>
        <time>2021-05-15T17:37:25Z</time>
      </trkpt>
      <trkpt lat="41.1442480" lon="-8.6121510">
        <ele>50.6</ele>
        <time>2021-05-15T17:37:26Z</time>
      </trkpt>
      <trkpt lat="41.1442510" lon="-8.6121630">
        <ele>50.7</ele>
        <time>2021-05-15T17:37:27Z</time>
      </trkpt>
      <trkpt lat="41.1442530" lon="-8.6121740">
        <ele>50.8</ele>
        <time>2021-05-15T17:37:28Z</time>
      </trkpt>
      <trkpt lat="41.1442540" lon="-8.6121860">
        <ele>50.8</ele>
        <time>2021-05-15T17:37:29Z</time>
      </trkpt>
      <trkpt lat="41.1442570" lon="-8.6121820">
        <ele>50.8</ele>
        <time>2021-05-15T17:37:30Z</time>
      </trkpt>
      <trkpt lat="41.1442610" lon="-8.6121870">
        <ele>50.9</ele>
        <time>2021-05-15T17:37:31Z</time>
      </trkpt>
      <trkpt lat="41.1442630" lon="-8.6121810">
        <ele>50.9</ele>
        <time>2021-05-15T17:37:32Z</time>
      </trkpt>
      <trkpt lat="41.1442590" lon="-8.6121740">
        <ele>51.0</ele>
        <time>2021-05-15T17:37:33Z</time>
      </trkpt>
      <trkpt lat="41.1442630" lon="-8.6121480">
        <ele>51.1</ele>
        <time>2021-05-15T17:37:34Z</time>
      </trkpt>
      <trkpt lat="41.1442630" lon="-8.6121350">
        <ele>51.1</ele>
        <time>2021-05-15T17:37:35Z</time>
      </trkpt>
      <trkpt lat="41.1442730" lon="-8.6121290">
        <ele>51.2</ele>
        <time>2021-05-15T17:37:36Z</time>
      </trkpt>
      <trkpt lat="41.1442780" lon="-8.6121400">
        <ele>51.3</ele>
        <time>2021-05-15T17:37:37Z</time>
      </trkpt>
      <trkpt lat="41.1442830" lon="-8.6121390">
        <ele>51.3</ele>
        <time>2021-05-15T17:37:38Z</time>
      </trkpt>
      <trkpt lat="41.1442880" lon="-8.6121430">
        <ele>51.4</ele>
        <time>2021-05-15T17:37:39Z</time>
      </trkpt>
      <trkpt lat="41.1442960" lon="-8.6121500">
        <ele>51.4</ele>
        <time>2021-05-15T17:37:40Z</time>
      </trkpt>
      <trkpt lat="41.1443020" lon="-8.6121500">
        <ele>51.5</ele>
        <time>2021-05-15T17:37:41Z</time>
      </trkpt>
      <trkpt lat="41.1443070" lon="-8.6121570">
        <ele>51.5</ele>
        <time>2021-05-15T17:37:42Z</time>
      </trkpt>
      <trkpt lat="41.1443190" lon="-8.6121650">
        <ele>51.6</ele>
        <time>2021-05-15T17:37:43Z</time>
      </trkpt>
      <trkpt lat="41.1443220" lon="-8.6121710">
        <ele>51.6</ele>
        <time>2021-05-15T17:37:44Z</time>
      </trkpt>
      <trkpt lat="41.1443470" lon="-8.6121800">
        <ele>51.8</ele>
        <time>2021-05-15T17:37:45Z</time>
      </trkpt>
      <trkpt lat="41.1443610" lon="-8.6121870">
        <ele>52.0</ele>
        <time>2021-05-15T17:37:46Z</time>
      </trkpt>
      <trkpt lat="41.1443910" lon="-8.6122010">
        <ele>52.2</ele>
        <time>2021-05-15T17:37:47Z</time>
      </trkpt>
      <trkpt lat="41.1444040" lon="-8.6122060">
        <ele>52.3</ele>
        <time>2021-05-15T17:37:48Z</time>
      </trkpt>
      <trkpt lat="41.1444210" lon="-8.6122270">
        <ele>52.5</ele>
        <time>2021-05-15T17:37:49Z</time>
      </trkpt>
      <trkpt lat="41.1444230" lon="-8.6122380">
        <ele>52.6</ele>
        <time>2021-05-15T17:37:50Z</time>
      </trkpt>
      <trkpt lat="41.1444260" lon="-8.6122490">
        <ele>52.7</ele>
        <time>2021-05-15T17:37:51Z</time>
      </trkpt>
      <trkpt lat="41.1444350" lon="-8.6122560">
        <ele>52.8</ele>
        <time>2021-05-15T17:37:52Z</time>
      </trkpt>
      <trkpt lat="41.1444480" lon="-8.6122690">
        <ele>53.0</ele>
        <time>2021-05-15T17:37:53Z</time>
      </trkpt>
      <trkpt lat="41.1444600" lon="-8.6122830">
        <ele>53.1</ele>
        <time>2021-05-15T17:37:54Z</time>
      </trkpt>
      <trkpt lat="41.1444720" lon="-8.6122990">
        <ele>53.3</ele>
        <time>2021-05-15T17:37:55Z</time>
      </trkpt>
      <trkpt lat="41.1444870" lon="-8.6123160">
        <ele>53.5</ele>
        <time>2021-05-15T17:37:56Z</time>
      </trkpt>
      <trkpt lat="41.1444990" lon="-8.6123180">
        <ele>53.6</ele>
        <time>2021-05-15T17:37:57Z</time>
      </trkpt>
      <trkpt lat="41.1445120" lon="-8.6123190">
        <ele>53.8</ele>
        <time>2021-05-15T17:37:58Z</time>
      </trkpt>
      <trkpt lat="41.1445100" lon="-8.6123210">
        <ele>53.8</ele>
        <time>2021-05-15T17:37:59Z</time>
      </trkpt>
      <trkpt lat="41.1445210" lon="-8.6123350">
        <ele>54.0</ele>
        <time>2021-05-15T17:38:00Z</time>
      </trkpt>
      <trkpt lat="41.1445350" lon="-8.6123480">
        <ele>54.1</ele>
        <time>2021-05-15T17:38:01Z</time>
      </trkpt>
      <trkpt lat="41.1445440" lon="-8.6123460">
        <ele>54.2</ele>
        <time>2021-05-15T17:38:02Z</time>
      </trkpt>
      <trkpt lat="41.1445630" lon="-8.6123460">
        <ele>54.4</ele>
        <time>2021-05-15T17:38:03Z</time>
      </trkpt>
      <trkpt lat="41.1445800" lon="-8.6123560">
        <ele>54.6</ele>
        <time>2021-05-15T17:38:04Z</time>
      </trkpt>
      <trkpt lat="41.1445930" lon="-8.6123450">
        <ele>54.8</ele>
        <time>2021-05-15T17:38:05Z</time>
      </trkpt>
      <trkpt lat="41.1445940" lon="-8.6123380">
        <ele>54.8</ele>
        <time>2021-05-15T17:38:06Z</time>
      </trkpt>
      <trkpt lat="41.1446000" lon="-8.6123390">
        <ele>54.9</ele>
        <time>2021-05-15T17:38:07Z</time>
      </trkpt>
      <trkpt lat="41.1446060" lon="-8.6123360">
        <ele>55.0</ele>
        <time>2021-05-15T17:38:08Z</time>
      </trkpt>
      <trkpt lat="41.1446040" lon="-8.6123310">
        <ele>55.0</ele>
        <time>2021-05-15T17:38:09Z</time>
      </trkpt>
      <trkpt lat="41.1446100" lon="-8.6123350">
        <ele>55.1</ele>
        <time>2021-05-15T17:38:10Z</time>
      </trkpt>
      <trkpt lat="41.1446210" lon="-8.6123430">
        <ele>55.2</ele>
        <time>2021-05-15T17:38:11Z</time>
      </trkpt>
      <trkpt lat="41.1446550" lon="-8.6123590">
        <ele>55.7</ele>
        <time>2021-05-15T17:38:12Z</time>
      </trkpt>
      <trkpt lat="41.1446650" lon="-8.6123620">
        <ele>55.8</ele>
        <time>2021-05-15T17:38:13Z</time>
      </trkpt>
      <trkpt lat="41.1446850" lon="-8.6123630">
        <ele>56.0</ele>
        <time>2021-05-15T17:38:14Z</time>
      </trkpt>
      <trkpt lat="41.1446950" lon="-8.6123650">
        <ele>56.1</ele>
        <time>2021-05-15T17:38:15Z</time>
      </trkpt>
      <trkpt lat="41.1447050" lon="-8.6123660">
        <ele>56.3</ele>
        <time>2021-05-15T17:38:16Z</time>
      </trkpt>
      <trkpt lat="41.1447220" lon="-8.6123580">
        <ele>56.5</ele>
        <time>2021-05-15T17:38:17Z</time>
      </trkpt>
      <trkpt lat="41.1447310" lon="-8.6123520">
        <ele>56.6</ele>
        <time>2021-05-15T17:38:18Z</time>
      </trkpt>
      <trkpt lat="41.1447550" lon="-8.6123730">
        <ele>56.9</ele>
        <time>2021-05-15T17:38:19Z</time>
      </trkpt>
      <trkpt lat="41.1447840" lon="-8.6124110">
        <ele>57.4</ele>
        <time>2021-05-15T17:38:20Z</time>
      </trkpt>
      <trkpt lat="41.1447950" lon="-8.6124270">
        <ele>57.6</ele>
        <time>2021-05-15T17:38:21Z</time>
      </trkpt>
      <trkpt lat="41.1448090" lon="-8.6124250">
        <ele>57.8</ele>
        <time>2021-05-15T17:38:22Z</time>
      </trkpt>
      <trkpt lat="41.1448260" lon="-8.6124290">
        <ele>58.0</ele>
        <time>2021-05-15T17:38:23Z</time>
      </trkpt>
      <trkpt lat="41.1448470" lon="-8.6124440">
        <ele>58.3</ele>
        <time>2021-05-15T17:38:24Z</time>
      </trkpt>
      <trkpt lat="41.1448490" lon="-8.6124550">
        <ele>58.4</ele>
        <time>2021-05-15T17:38:25Z</time>
      </trkpt>
      <trkpt lat="41.1448520" lon="-8.6124670">
        <ele>58.5</ele>
        <time>2021-05-15T17:38:26Z</time>
      </trkpt>
      <trkpt lat="41.1448480" lon="-8.6124710">
        <ele>58.6</ele>
        <time>2021-05-15T17:38:27Z</time>
      </trkpt>
      <trkpt lat="41.1448490" lon="-8.6124770">
        <ele>58.6</ele>
        <time>2021-05-15T17:38:28Z</time>
      </trkpt>
      <trkpt lat="41.1448680" lon="-8.6124950">
        <ele>58.9</ele>
        <time>2021-05-15T17:38:29Z</time>
      </trkpt>
      <trkpt lat="41.1448800" lon="-8.6124910">
        <ele>59.1</ele>
        <time>2021-05-15T17:38:30Z</time>
      </trkpt>
      <trkpt lat="41.1448920" lon="-8.6124950">
        <ele>59.2</ele>
        <time>2021-05-15T17:38:31Z</time>
      </trkpt>
      <trkpt lat="41.1449140" lon="-8.6124920">
        <ele>59.4</ele>
        <time>2021-05-15T17:38:32Z</time>
      </trkpt>
      <trkpt lat="41.1449170" lon="-8.6124920">
        <ele>59.5</ele>
        <time>2021-05-15T17:38:33Z</time>
      </trkpt>
      <trkpt lat="41.1449280" lon="-8.6124820">
        <ele>59.6</ele>
        <time>2021-05-15T17:38:34Z</time>
      </trkpt>
      <trkpt lat="41.1449420" lon="-8.6124840">
        <ele>59.8</ele>
        <time>2021-05-15T17:38:35Z</time>
      </trkpt>
      <trkpt lat="41.1449530" lon="-8.6124790">
        <ele>59.9</ele>
        <time>2021-05-15T17:38:36Z</time>
      </trkpt>
      <trkpt lat="41.1449570" lon="-8.6124790">
        <ele>60.0</ele>
        <time>2021-05-15T17:38:37Z</time>
      </trkpt>
      <trkpt lat="41.1449720" lon="-8.6124680">
        <ele>60.1</ele>
        <time>2021-05-15T17:38:38Z</time>
      </trkpt>
      <trkpt lat="41.1449870" lon="-8.6124700">
        <ele>60.3</ele>
        <time>2021-05-15T17:38:39Z</time>
      </trkpt>
      <trkpt lat="41.1449920" lon="-8.6124640">
        <ele>60.4</ele>
        <time>2021-05-15T17:38:40Z</time>
      </trkpt>
      <trkpt lat="41.1450070" lon="-8.6124620">
        <ele>60.5</ele>
        <time>2021-05-15T17:38:41Z</time>
      </trkpt>
      <trkpt lat="41.1450270" lon="-8.6124510">
        <ele>60.8</ele>
        <time>2021-05-15T17:38:42Z</time>
      </trkpt>
      <trkpt lat="41.1450350" lon="-8.6124440">
        <ele>60.9</ele>
        <time>2021-05-15T17:38:43Z</time>
      </trkpt>
      <trkpt lat="41.1450390" lon="-8.6124540">
        <ele>60.9</ele>
        <time>2021-05-15T17:38:44Z</time>
      </trkpt>
      <trkpt lat="41.1450510" lon="-8.6124460">
        <ele>61.0</ele>
        <time>2021-05-15T17:38:45Z</time>
      </trkpt>
      <trkpt lat="41.1450640" lon="-8.6124490">
        <ele>61.1</ele>
        <time>2021-05-15T17:38:46Z</time>
      </trkpt>
      <trkpt lat="41.1450750" lon="-8.6124640">
        <ele>61.2</ele>
        <time>2021-05-15T17:38:47Z</time>
      </trkpt>
      <trkpt lat="41.1450810" lon="-8.6124640">
        <ele>61.3</ele>
        <time>2021-05-15T17:38:48Z</time>
      </trkpt>
      <trkpt lat="41.1450820" lon="-8.6124670">
        <ele>61.3</ele>
        <time>2021-05-15T17:38:49Z</time>
      </trkpt>
      <trkpt lat="41.1450890" lon="-8.6124620">
        <ele>61.4</ele>
        <time>2021-05-15T17:38:50Z</time>
      </trkpt>
      <trkpt lat="41.1450840" lon="-8.6124650">
        <ele>61.4</ele>
        <time>2021-05-15T17:38:51Z</time>
      </trkpt>
      <trkpt lat="41.1450890" lon="-8.6124690">
        <ele>61.5</ele>
        <time>2021-05-15T17:38:52Z</time>
      </trkpt>
      <trkpt lat="41.1450970" lon="-8.6124750">
        <ele>61.6</ele>
        <time>2021-05-15T17:38:53Z</time>
      </trkpt>
      <trkpt lat="41.1451030" lon="-8.6124790">
        <ele>61.6</ele>
        <time>2021-05-15T17:38:54Z</time>
      </trkpt>
      <trkpt lat="41.1451100" lon="-8.6124820">
        <ele>61.7</ele>
        <time>2021-05-15T17:38:55Z</time>
      </trkpt>
      <trkpt lat="41.1451160" lon="-8.6124860">
        <ele>61.7</ele>
        <time>2021-05-15T17:38:56Z</time>
      </trkpt>
      <trkpt lat="41.1451220" lon="-8.6124890">
        <ele>61.8</ele>
        <time>2021-05-15T17:38:57Z</time>
      </trkpt>
      <trkpt lat="41.1451300" lon="-8.6125030">
        <ele>61.9</ele>
        <time>2021-05-15T17:38:58Z</time>
      </trkpt>
      <trkpt lat="41.1451340" lon="-8.6125210">
        <ele>62.1</ele>
        <time>2021-05-15T17:38:59Z</time>
      </trkpt>
      <trkpt lat="41.1451490" lon="-8.6125160">
        <ele>62.2</ele>
        <time>2021-05-15T17:39:00Z</time>
      </trkpt>
      <trkpt lat="41.1451720" lon="-8.6125120">
        <ele>62.4</ele>
        <time>2021-05-15T17:39:01Z</time>
      </trkpt>
      <trkpt lat="41.1451790" lon="-8.6125100">
        <ele>62.5</ele>
        <time>2021-05-15T17:39:02Z</time>
      </trkpt>
      <trkpt lat="41.1451860" lon="-8.6125070">
        <ele>62.5</ele>
        <time>2021-05-15T17:39:03Z</time>
      </trkpt>
      <trkpt lat="41.1451940" lon="-8.6125280">
        <ele>62.7</ele>
        <time>2021-05-15T17:39:04Z</time>
      </trkpt>
      <trkpt lat="41.1452050" lon="-8.6125310">
        <ele>62.8</ele>
        <time>2021-05-15T17:39:05Z</time>
      </trkpt>
      <trkpt lat="41.1452170" lon="-8.6125350">
        <ele>62.9</ele>
        <time>2021-05-15T17:39:06Z</time>
      </trkpt>
      <trkpt lat="41.1452290" lon="-8.6125740">
        <ele>63.2</ele>
        <time>2021-05-15T17:39:07Z</time>
      </trkpt>
      <trkpt lat="41.1452480" lon="-8.6125590">
        <ele>63.4</ele>
        <time>2021-05-15T17:39:08Z</time>
      </trkpt>
      <trkpt lat="41.1452640" lon="-8.6125390">
        <ele>63.6</ele>
        <time>2021-05-15T17:39:09Z</time>
      </trkpt>
      <trkpt lat="41.1452530" lon="-8.6125790">
        <ele>63.9</ele>
        <time>2021-05-15T17:39:10Z</time>
      </trkpt>
      <trkpt lat="41.1452380" lon="-8.6126080">
        <ele>64.1</ele>
        <time>2021-05-15T17:39:11Z</time>
      </trkpt>
      <trkpt lat="41.1452220" lon="-8.6126380">
        <ele>64.4</ele>
        <time>2021-05-15T17:39:12Z</time>
      </trkpt>
      <trkpt lat="41.1452450" lon="-8.6126130">
        <ele>64.7</ele>
        <time>2021-05-15T17:39:13Z</time>
      </trkpt>
      <trkpt lat="41.1452500" lon="-8.6126180">
        <ele>64.7</ele>
        <time>2021-05-15T17:39:14Z</time>
      </trkpt>
      <trkpt lat="41.1452720" lon="-8.6126240">
        <ele>64.9</ele>
        <time>2021-05-15T17:39:15Z</time>
      </trkpt>
      <trkpt lat="41.1452800" lon="-8.6126260">
        <ele>65.0</ele>
        <time>2021-05-15T17:39:16Z</time>
      </trkpt>
      <trkpt lat="41.1453030" lon="-8.6126310">
        <ele>65.2</ele>
        <time>2021-05-15T17:39:17Z</time>
      </trkpt>
      <trkpt lat="41.1453170" lon="-8.6126700">
        <ele>65.5</ele>
        <time>2021-05-15T17:39:18Z</time>
      </trkpt>
      <trkpt lat="41.1453200" lon="-8.6126650">
        <ele>65.5</ele>
        <time>2021-05-15T17:39:19Z</time>
      </trkpt>
      <trkpt lat="41.1453250" lon="-8.6126850">
        <ele>65.7</ele>
        <time>2021-05-15T17:39:20Z</time>
      </trkpt>
      <trkpt lat="41.1453470" lon="-8.6126930">
        <ele>65.9</ele>
        <time>2021-05-15T17:39:21Z</time>
      </trkpt>
      <trkpt lat="41.1453530" lon="-8.6127040">
        <ele>66.0</ele>
        <time>2021-05-15T17:39:22Z</time>
      </trkpt>
      <trkpt lat="41.1453560" lon="-8.6127150">
        <ele>66.0</ele>
        <time>2021-05-15T17:39:23Z</time>
      </trkpt>
      <trkpt lat="41.1453580" lon="-8.6127270">
        <ele>66.1</ele>
        <time>2021-05-15T17:39:24Z</time>
      </trkpt>
      <trkpt lat="41.1453610" lon="-8.6127380">
        <ele>66.2</ele>
        <time>2021-05-15T17:39:25Z</time>
      </trkpt>
      <trkpt lat="41.1453700" lon="-8.6127560">
        <ele>66.3</ele>
        <time>2021-05-15T17:39:26Z</time>
      </trkpt>
      <trkpt lat="41.1453660" lon="-8.6127740">
        <ele>66.5</ele>
        <time>2021-05-15T17:39:27Z</time>
      </trkpt>
      <trkpt lat="41.1453670" lon="-8.6128090">
        <ele>66.7</ele>
        <time>2021-05-15T17:39:28Z</time>
      </trkpt>
      <trkpt lat="41.1453570" lon="-8.6128290">
        <ele>66.9</ele>
        <time>2021-05-15T17:39:29Z</time>
      </trkpt>
      <trkpt lat="41.1453350" lon="-8.6128490">
        <ele>67.1</ele>
        <time>2021-05-15T17:39:30Z</time>
      </trkpt>
      <trkpt lat="41.1453410" lon="-8.6128680">
        <ele>67.2</ele>
        <time>2021-05-15T17:39:31Z</time>
      </trkpt>
      <trkpt lat="41.1453440" lon="-8.6128770">
        <ele>67.3</ele>
        <time>2021-05-15T17:39:32Z</time>
      </trkpt>
      <trkpt lat="41.1453630" lon="-8.6128780">
        <ele>67.5</ele>
        <time>2021-05-15T17:39:33Z</time>
      </trkpt>
      <trkpt lat="41.1453000" lon="-8.6128910">
        <ele>68.1</ele>
        <time>2021-05-15T17:39:34Z</time>
      </trkpt>
      <trkpt lat="41.1452370" lon="-8.6129140">
        <ele>70.1</ele>
        <time>2021-05-15T17:39:35Z</time>
      </trkpt>
      <trkpt lat="41.1451990" lon="-8.6129450">
        <ele>70.5</ele>
        <time>2021-05-15T17:39:36Z</time>
      </trkpt>
      <trkpt lat="41.1451790" lon="-8.6129730">
        <ele>70.8</ele>
        <time>2021-05-15T17:39:37Z</time>
      </trkpt>
      <trkpt lat="41.1452140" lon="-8.6129720">
        <ele>71.2</ele>
        <time>2021-05-15T17:39:38Z</time>
      </trkpt>
      <trkpt lat="41.1452370" lon="-8.6129560">
        <ele>71.4</ele>
        <time>2021-05-15T17:39:39Z</time>
      </trkpt>
      <trkpt lat="41.1452330" lon="-8.6129600">
        <ele>71.5</ele>
        <time>2021-05-15T17:39:40Z</time>
      </trkpt>
      <trkpt lat="41.1452330" lon="-8.6129710">
        <ele>71.6</ele>
        <time>2021-05-15T17:39:41Z</time>
      </trkpt>
      <trkpt lat="41.1452340" lon="-8.6129830">
        <ele>71.6</ele>
        <time>2021-05-15T17:39:42Z</time>
      </trkpt>
      <trkpt lat="41.1452340" lon="-8.6129950">
        <ele>71.7</ele>
        <time>2021-05-15T17:39:43Z</time>
      </trkpt>
      <trkpt lat="41.1452350" lon="-8.6130060">
        <ele>71.8</ele>
        <time>2021-05-15T17:39:44Z</time>
      </trkpt>
      <trkpt lat="41.1452350" lon="-8.6130180">
        <ele>71.9</ele>
        <time>2021-05-15T17:39:45Z</time>
      </trkpt>
      <trkpt lat="41.1452710" lon="-8.6130490">
        <ele>72.3</ele>
        <time>2021-05-15T17:39:46Z</time>
      </trkpt>
      <trkpt lat="41.1452820" lon="-8.6130640">
        <ele>72.5</ele>
        <time>2021-05-15T17:39:47Z</time>
      </trkpt>
      <trkpt lat="41.1452940" lon="-8.6130760">
        <ele>72.6</ele>
        <time>2021-05-15T17:39:48Z</time>
      </trkpt>
      <trkpt lat="41.1453100" lon="-8.6130940">
        <ele>72.8</ele>
        <time>2021-05-15T17:39:49Z</time>
      </trkpt>
      <trkpt lat="41.1453180" lon="-8.6131010">
        <ele>72.9</ele>
        <time>2021-05-15T17:39:50Z</time>
      </trkpt>
      <trkpt lat="41.1453330" lon="-8.6131140">
        <ele>73.1</ele>
        <time>2021-05-15T17:39:51Z</time>
      </trkpt>
      <trkpt lat="41.1453360" lon="-8.6131290">
        <ele>73.2</ele>
        <time>2021-05-15T17:39:52Z</time>
      </trkpt>
      <trkpt lat="41.1453350" lon="-8.6131420">
        <ele>73.3</ele>
        <time>2021-05-15T17:39:53Z</time>
      </trkpt>
      <trkpt lat="41.1453230" lon="-8.6131550">
        <ele>73.4</ele>
        <time>2021-05-15T17:39:54Z</time>
      </trkpt>
      <trkpt lat="41.1453220" lon="-8.6131710">
        <ele>73.5</ele>
        <time>2021-05-15T17:39:55Z</time>
      </trkpt>
      <trkpt lat="41.1453170" lon="-8.6131800">
        <ele>73.6</ele>
        <time>2021-05-15T17:39:56Z</time>
      </trkpt>
      <trkpt lat="41.1453110" lon="-8.6131880">
        <ele>73.6</ele>
        <time>2021-05-15T17:39:57Z</time>
      </trkpt>
      <trkpt lat="41.1453060" lon="-8.6131970">
        <ele>73.7</ele>
        <time>2021-05-15T17:39:58Z</time>
      </trkpt>
      <trkpt lat="41.1453060" lon="-8.6132260">
        <ele>73.9</ele>
        <time>2021-05-15T17:39:59Z</time>
      </trkpt>
      <trkpt lat="41.1453020" lon="-8.6132410">
        <ele>74.0</ele>
        <time>2021-05-15T17:40:00Z</time>
      </trkpt>
      <trkpt lat="41.1452980" lon="-8.6132550">
        <ele>74.1</ele>
        <time>2021-05-15T17:40:01Z</time>
      </trkpt>
      <trkpt lat="41.1452920" lon="-8.6132710">
        <ele>74.2</ele>
        <time>2021-05-15T17:40:02Z</time>
      </trkpt>
      <trkpt lat="41.1452900" lon="-8.6132900">
        <ele>74.3</ele>
        <time>2021-05-15T17:40:03Z</time>
      </trkpt>
      <trkpt lat="41.1452900" lon="-8.6133030">
        <ele>74.4</ele>
        <time>2021-05-15T17:40:04Z</time>
      </trkpt>
      <trkpt lat="41.1452870" lon="-8.6133170">
        <ele>74.5</ele>
        <time>2021-05-15T17:40:05Z</time>
      </trkpt>
      <trkpt lat="41.1452880" lon="-8.6133310">
        <ele>74.6</ele>
        <time>2021-05-15T17:40:06Z</time>
      </trkpt>
      <trkpt lat="41.1452900" lon="-8.6133460">
        <ele>74.7</ele>
        <time>2021-05-15T17:40:07Z</time>
      </trkpt>
      <trkpt lat="41.1452900" lon="-8.6133680">
        <ele>74.8</ele>
        <time>2021-05-15T17:40:08Z</time>
      </trkpt>
      <trkpt lat="41.1452920" lon="-8.6133710">
        <ele>74.8</ele>
        <time>2021-05-15T17:40:09Z</time>
      </trkpt>
      <trkpt lat="41.1452890" lon="-8.6133730">
        <ele>74.8</ele>
        <time>2021-05-15T17:40:10Z</time>
      </trkpt>
      <trkpt lat="41.1452930" lon="-8.6133820">
        <ele>74.8</ele>
        <time>2021-05-15T17:40:11Z</time>
      </trkpt>
      <trkpt lat="41.1452910" lon="-8.6133920">
        <ele>74.8</ele>
        <time>2021-05-15T17:40:12Z</time>
      </trkpt>
      <trkpt lat="41.1452890" lon="-8.6134050">
        <ele>74.8</ele>
        <time>2021-05-15T17:40:13Z</time>
      </trkpt>
      <trkpt lat="41.1452900" lon="-8.6134110">
        <ele>74.9</ele>
        <time>2021-05-15T17:40:14Z</time>
      </trkpt>
      <trkpt lat="41.1452910" lon="-8.6134140">
        <ele>74.9</ele>
        <time>2021-05-15T17:40:15Z</time>
      </trkpt>
      <trkpt lat="41.1452910" lon="-8.6134130">
        <ele>74.9</ele>
        <time>2021-05-15T17:40:16Z</time>
      </trkpt>
      <trkpt lat="41.1452900" lon="-8.6134230">
        <ele>74.9</ele>
        <time>2021-05-15T17:40:17Z</time>
      </trkpt>
      <trkpt lat="41.1452880" lon="-8.6134350">
        <ele>74.9</ele>
        <time>2021-05-15T17:40:18Z</time>
      </trkpt>
      <trkpt lat="41.1452780" lon="-8.6134480">
        <ele>74.9</ele>
        <time>2021-05-15T17:40:19Z</time>
      </trkpt>
      <trkpt lat="41.1452760" lon="-8.6134640">
        <ele>75.0</ele>
        <time>2021-05-15T17:40:20Z</time>
      </trkpt>
      <trkpt lat="41.1452790" lon="-8.6134770">
        <ele>75.0</ele>
        <time>2021-05-15T17:40:21Z</time>
      </trkpt>
      <trkpt lat="41.1452740" lon="-8.6134890">
        <ele>75.0</ele>
        <time>2021-05-15T17:40:22Z</time>
      </trkpt>
      <trkpt lat="41.1452720" lon="-8.6135030">
        <ele>75.0</ele>
        <time>2021-05-15T17:40:23Z</time>
      </trkpt>
      <trkpt lat="41.1452730" lon="-8.6135140">
        <ele>75.0</ele>
        <time>2021-05-15T17:40:24Z</time>
      </trkpt>
      <trkpt lat="41.1452690" lon="-8.6135270">
        <ele>75.0</ele>
        <time>2021-05-15T17:40:25Z</time>
      </trkpt>
      <trkpt lat="41.1452640" lon="-8.6135490">
        <ele>75.1</ele>
        <time>2021-05-15T17:40:26Z</time>
      </trkpt>
      <trkpt lat="41.1452590" lon="-8.6135600">
        <ele>75.1</ele>
        <time>2021-05-15T17:40:27Z</time>
      </trkpt>
      <trkpt lat="41.1452540" lon="-8.6135720">
        <ele>75.1</ele>
        <time>2021-05-15T17:40:28Z</time>
      </trkpt>
      <trkpt lat="41.1452580" lon="-8.6135850">
        <ele>75.1</ele>
        <time>2021-05-15T17:40:29Z</time>
      </trkpt>
      <trkpt lat="41.1452540" lon="-8.6135930">
        <ele>75.1</ele>
        <time>2021-05-15T17:40:30Z</time>
      </trkpt>
      <trkpt lat="41.1452490" lon="-8.6136060">
        <ele>75.2</ele>
        <time>2021-05-15T17:40:31Z</time>
      </trkpt>
      <trkpt lat="41.1452440" lon="-8.6135960">
        <ele>75.3</ele>
        <time>2021-05-15T17:40:32Z</time>
      </trkpt>
      <trkpt lat="41.1452390" lon="-8.6135960">
        <ele>75.4</ele>
        <time>2021-05-15T17:40:33Z</time>
      </trkpt>
      <trkpt lat="41.1452350" lon="-8.6136070">
        <ele>75.5</ele>
        <time>2021-05-15T17:40:34Z</time>
      </trkpt>
      <trkpt lat="41.1452350" lon="-8.6136210">
        <ele>75.6</ele>
        <time>2021-05-15T17:40:35Z</time>
      </trkpt>
      <trkpt lat="41.1452370" lon="-8.6136370">
        <ele>75.8</ele>
        <time>2021-05-15T17:40:36Z</time>
      </trkpt>
      <trkpt lat="41.1452310" lon="-8.6136480">
        <ele>75.9</ele>
        <time>2021-05-15T17:40:37Z</time>
      </trkpt>
      <trkpt lat="41.1452300" lon="-8.6136610">
        <ele>76.0</ele>
        <time>2021-05-15T17:40:38Z</time>
      </trkpt>
      <trkpt lat="41.1452310" lon="-8.6136760">
        <ele>76.1</ele>
        <time>2021-05-15T17:40:39Z</time>
      </trkpt>
      <trkpt lat="41.1452200" lon="-8.6136810">
        <ele>76.3</ele>
        <time>2021-05-15T17:40:40Z</time>
      </trkpt>
      <trkpt lat="41.1452110" lon="-8.6137080">
        <ele>76.5</ele>
        <time>2021-05-15T17:40:41Z</time>
      </trkpt>
      <trkpt lat="41.1452100" lon="-8.6137240">
        <ele>76.7</ele>
        <time>2021-05-15T17:40:42Z</time>
      </trkpt>
      <trkpt lat="41.1451950" lon="-8.6137420">
        <ele>76.9</ele>
        <time>2021-05-15T17:40:43Z</time>
      </trkpt>
      <trkpt lat="41.1451940" lon="-8.6137600">
        <ele>77.0</ele>
        <time>2021-05-15T17:40:44Z</time>
      </trkpt>
      <trkpt lat="41.1451930" lon="-8.6137740">
        <ele>77.2</ele>
        <time>2021-05-15T17:40:45Z</time>
      </trkpt>
      <trkpt lat="41.1451870" lon="-8.6137860">
        <ele>77.3</ele>
        <time>2021-05-15T17:40:46Z</time>
      </trkpt>
      <trkpt lat="41.1451790" lon="-8.6137920">
        <ele>77.4</ele>
        <time>2021-05-15T17:40:47Z</time>
      </trkpt>
      <trkpt lat="41.1451780" lon="-8.6138050">
        <ele>77.5</ele>
        <time>2021-05-15T17:40:48Z</time>
      </trkpt>
      <trkpt lat="41.1451800" lon="-8.6138340">
        <ele>77.7</ele>
        <time>2021-05-15T17:40:49Z</time>
      </trkpt>
      <trkpt lat="41.1451690" lon="-8.6138440">
        <ele>77.9</ele>
        <time>2021-05-15T17:40:50Z</time>
      </trkpt>
      <trkpt lat="41.1451600" lon="-8.6138600">
        <ele>78.0</ele>
        <time>2021-05-15T17:40:51Z</time>
      </trkpt>
      <trkpt lat="41.1451480" lon="-8.6138710">
        <ele>78.2</ele>
        <time>2021-05-15T17:40:52Z</time>
      </trkpt>
      <trkpt lat="41.1451320" lon="-8.6138900">
        <ele>78.4</ele>
        <time>2021-05-15T17:40:53Z</time>
      </trkpt>
      <trkpt lat="41.1451110" lon="-8.6139100">
        <ele>78.7</ele>
        <time>2021-05-15T17:40:54Z</time>
      </trkpt>
      <trkpt lat="41.1451000" lon="-8.6139200">
        <ele>78.8</ele>
        <time>2021-05-15T17:40:55Z</time>
      </trkpt>
      <trkpt lat="41.1450810" lon="-8.6139320">
        <ele>79.0</ele>
        <time>2021-05-15T17:40:56Z</time>
      </trkpt>
      <trkpt lat="41.1450740" lon="-8.6139370">
        <ele>79.1</ele>
        <time>2021-05-15T17:40:57Z</time>
      </trkpt>
      <trkpt lat="41.1450610" lon="-8.6139560">
        <ele>79.3</ele>
        <time>2021-05-15T17:40:58Z</time>
      </trkpt>
      <trkpt lat="41.1450460" lon="-8.6139580">
        <ele>79.4</ele>
        <time>2021-05-15T17:40:59Z</time>
      </trkpt>
      <trkpt lat="41.1450250" lon="-8.6139770">
        <ele>79.7</ele>
        <time>2021-05-15T17:41:00Z</time>
      </trkpt>
      <trkpt lat="41.1450150" lon="-8.6139840">
        <ele>79.8</ele>
        <time>2021-05-15T17:41:01Z</time>
      </trkpt>
      <trkpt lat="41.1450120" lon="-8.6139950">
        <ele>79.8</ele>
        <time>2021-05-15T17:41:02Z</time>
      </trkpt>
      <trkpt lat="41.1450080" lon="-8.6140090">
        <ele>79.9</ele>
        <time>2021-05-15T17:41:03Z</time>
      </trkpt>
      <trkpt lat="41.1449990" lon="-8.6140070">
        <ele>80.0</ele>
        <time>2021-05-15T17:41:04Z</time>
      </trkpt>
      <trkpt lat="41.1449930" lon="-8.6140180">
        <ele>80.1</ele>
        <time>2021-05-15T17:41:05Z</time>
      </trkpt>
      <trkpt lat="41.1449960" lon="-8.6140290">
        <ele>80.2</ele>
        <time>2021-05-15T17:41:06Z</time>
      </trkpt>
      <trkpt lat="41.1450100" lon="-8.6140370">
        <ele>80.3</ele>
        <time>2021-05-15T17:41:07Z</time>
      </trkpt>
      <trkpt lat="41.1450100" lon="-8.6140490">
        <ele>80.4</ele>
        <time>2021-05-15T17:41:08Z</time>
      </trkpt>
      <trkpt lat="41.1450120" lon="-8.6140400">
        <ele>80.4</ele>
        <time>2021-05-15T17:41:09Z</time>
      </trkpt>
      <trkpt lat="41.1450170" lon="-8.6140530">
        <ele>80.5</ele>
        <time>2021-05-15T17:41:10Z</time>
      </trkpt>
      <trkpt lat="41.1450240" lon="-8.6140710">
        <ele>80.6</ele>
        <time>2021-05-15T17:41:11Z</time>
      </trkpt>
      <trkpt lat="41.1450280" lon="-8.6140750">
        <ele>80.7</ele>
        <time>2021-05-15T17:41:12Z</time>
      </trkpt>
      <trkpt lat="41.1450180" lon="-8.6140790">
        <ele>80.8</ele>
        <time>2021-05-15T17:41:13Z</time>
      </trkpt>
      <trkpt lat="41.1450150" lon="-8.6140910">
        <ele>80.8</ele>
        <time>2021-05-15T17:41:14Z</time>
      </trkpt>
      <trkpt lat="41.1450150" lon="-8.6141100">
        <ele>80.9</ele>
        <time>2021-05-15T17:41:15Z</time>
      </trkpt>
      <trkpt lat="41.1450170" lon="-8.6141260">
        <ele>81.0</ele>
        <time>2021-05-15T17:41:16Z</time>
      </trkpt>
      <trkpt lat="41.1450170" lon="-8.6141540">
        <ele>81.2</ele>
        <time>2021-05-15T17:41:17Z</time>
      </trkpt>
      <trkpt lat="41.1450200" lon="-8.6141860">
        <ele>81.4</ele>
        <time>2021-05-15T17:41:18Z</time>
      </trkpt>
      <trkpt lat="41.1450200" lon="-8.6142010">
        <ele>81.4</ele>
        <time>2021-05-15T17:41:19Z</time>
      </trkpt>
      <trkpt lat="41.1450190" lon="-8.6142160">
        <ele>81.5</ele>
        <time>2021-05-15T17:41:20Z</time>
      </trkpt>
      <trkpt lat="41.1450300" lon="-8.6142370">
        <ele>81.6</ele>
        <time>2021-05-15T17:41:21Z</time>
      </trkpt>
      <trkpt lat="41.1450280" lon="-8.6142440">
        <ele>81.6</ele>
        <time>2021-05-15T17:41:22Z</time>
      </trkpt>
      <trkpt lat="41.1450280" lon="-8.6142510">
        <ele>81.7</ele>
        <time>2021-05-15T17:41:23Z</time>
      </trkpt>
      <trkpt lat="41.1450200" lon="-8.6142690">
        <ele>81.8</ele>
        <time>2021-05-15T17:41:24Z</time>
      </trkpt>
      <trkpt lat="41.1450180" lon="-8.6142790">
        <ele>81.8</ele>
        <time>2021-05-15T17:41:25Z</time>
      </trkpt>
      <trkpt lat="41.1450160" lon="-8.6142900">
        <ele>81.9</ele>
        <time>2021-05-15T17:41:26Z</time>
      </trkpt>
      <trkpt lat="41.1450140" lon="-8.6143000">
        <ele>81.9</ele>
        <time>2021-05-15T17:41:27Z</time>
      </trkpt>
      <trkpt lat="41.1450080" lon="-8.6143190">
        <ele>82.0</ele>
        <time>2021-05-15T17:41:28Z</time>
      </trkpt>
      <trkpt lat="41.1450040" lon="-8.6143260">
        <ele>82.0</ele>
        <time>2021-05-15T17:41:29Z</time>
      </trkpt>
      <trkpt lat="41.1450040" lon="-8.6143380">
        <ele>82.1</ele>
        <time>2021-05-15T17:41:30Z</time>
      </trkpt>
      <trkpt lat="41.1450030" lon="-8.6143490">
        <ele>82.1</ele>
        <time>2021-05-15T17:41:31Z</time>
      </trkpt>
      <trkpt lat="41.1449990" lon="-8.6143560">
        <ele>82.1</ele>
        <time>2021-05-15T17:41:32Z</time>
      </trkpt>
      <trkpt lat="41.1449930" lon="-8.6143610">
        <ele>82.2</ele>
        <time>2021-05-15T17:41:33Z</time>
      </trkpt>
      <trkpt lat="41.1449850" lon="-8.6143750">
        <ele>82.2</ele>
        <time>2021-05-15T17:41:34Z</time>
      </trkpt>
      <trkpt lat="41.1449740" lon="-8.6143930">
        <ele>82.3</ele>
        <time>2021-05-15T17:41:35Z</time>
      </trkpt>
      <trkpt lat="41.1449770" lon="-8.6144000">
        <ele>82.4</ele>
        <time>2021-05-15T17:41:36Z</time>
      </trkpt>
      <trkpt lat="41.1449760" lon="-8.6144170">
        <ele>82.4</ele>
        <time>2021-05-15T17:41:37Z</time>
      </trkpt>
      <trkpt lat="41.1449720" lon="-8.6144350">
        <ele>82.5</ele>
        <time>2021-05-15T17:41:38Z</time>
      </trkpt>
      <trkpt lat="41.1449720" lon="-8.6144460">
        <ele>82.5</ele>
        <time>2021-05-15T17:41:39Z</time>
      </trkpt>
      <trkpt lat="41.1449610" lon="-8.6144590">
        <ele>82.6</ele>
        <time>2021-05-15T17:41:40Z</time>
      </trkpt>
      <trkpt lat="41.1449600" lon="-8.6144730">
        <ele>82.7</ele>
        <time>2021-05-15T17:41:41Z</time>
      </trkpt>
      <trkpt lat="41.1449540" lon="-8.6144980">
        <ele>82.7</ele>
        <time>2021-05-15T17:41:42Z</time>
      </trkpt>
      <trkpt lat="41.1449510" lon="-8.6145240">
        <ele>82.8</ele>
        <time>2021-05-15T17:41:43Z</time>
      </trkpt>
      <trkpt lat="41.1449420" lon="-8.6145380">
        <ele>82.9</ele>
        <time>2021-05-15T17:41:44Z</time>
      </trkpt>
      <trkpt lat="41.1449330" lon="-8.6145480">
        <ele>83.0</ele>
        <time>2021-05-15T17:41:45Z</time>
      </trkpt>
      <trkpt lat="41.1449270" lon="-8.6145540">
        <ele>83.0</ele>
        <time>2021-05-15T17:41:46Z</time>
      </trkpt>
      <trkpt lat="41.1449300" lon="-8.6145590">
        <ele>83.0</ele>
        <time>2021-05-15T17:41:47Z</time>
      </trkpt>
      <trkpt lat="41.1449230" lon="-8.6145730">
        <ele>83.1</ele>
        <time>2021-05-15T17:41:48Z</time>
      </trkpt>
      <trkpt lat="41.1449220" lon="-8.6145830">
        <ele>83.1</ele>
        <time>2021-05-15T17:41:49Z</time>
      </trkpt>
      <trkpt lat="41.1449220" lon="-8.6146020">
        <ele>83.2</ele>
        <time>2021-05-15T17:41:50Z</time>
      </trkpt>
      <trkpt lat="41.1449170" lon="-8.6146160">
        <ele>83.2</ele>
        <time>2021-05-15T17:41:51Z</time>
      </trkpt>
      <trkpt lat="41.1449050" lon="-8.6146430">
        <ele>83.3</ele>
        <time>2021-05-15T17:41:52Z</time>
      </trkpt>
      <trkpt lat="41.1448960" lon="-8.6146550">
        <ele>83.4</ele>
        <time>2021-05-15T17:41:53Z</time>
      </trkpt>
      <trkpt lat="41.1448860" lon="-8.6146670">
        <ele>83.4</ele>
        <time>2021-05-15T17:41:54Z</time>
      </trkpt>
      <trkpt lat="41.1448680" lon="-8.6146950">
        <ele>83.6</ele>
        <time>2021-05-15T17:41:55Z</time>
      </trkpt>
      <trkpt lat="41.1448630" lon="-8.6147050">
        <ele>83.6</ele>
        <time>2021-05-15T17:41:56Z</time>
      </trkpt>
      <trkpt lat="41.1448530" lon="-8.6147190">
        <ele>83.7</ele>
        <time>2021-05-15T17:41:57Z</time>
      </trkpt>
      <trkpt lat="41.1448530" lon="-8.6147290">
        <ele>83.7</ele>
        <time>2021-05-15T17:41:58Z</time>
      </trkpt>
      <trkpt lat="41.1448470" lon="-8.6147420">
        <ele>83.8</ele>
        <time>2021-05-15T17:41:59Z</time>
      </trkpt>
      <trkpt lat="41.1448550" lon="-8.6147520">
        <ele>83.8</ele>
        <time>2021-05-15T17:42:00Z</time>
      </trkpt>
      <trkpt lat="41.1448600" lon="-8.6147790">
        <ele>83.9</ele>
        <time>2021-05-15T17:42:01Z</time>
      </trkpt>
      <trkpt lat="41.1448480" lon="-8.6148130">
        <ele>84.1</ele>
        <time>2021-05-15T17:42:02Z</time>
      </trkpt>
      <trkpt lat="41.1448400" lon="-8.6148220">
        <ele>84.1</ele>
        <time>2021-05-15T17:42:03Z</time>
      </trkpt>
      <trkpt lat="41.1448460" lon="-8.6148490">
        <ele>84.2</ele>
        <time>2021-05-15T17:42:04Z</time>
      </trkpt>
      <trkpt lat="41.1448490" lon="-8.6148630">
        <ele>84.3</ele>
        <time>2021-05-15T17:42:05Z</time>
      </trkpt>
      <trkpt lat="41.1448510" lon="-8.6148780">
        <ele>84.4</ele>
        <time>2021-05-15T17:42:06Z</time>
      </trkpt>
      <trkpt lat="41.1448550" lon="-8.6149080">
        <ele>84.5</ele>
        <time>2021-05-15T17:42:07Z</time>
      </trkpt>
      <trkpt lat="41.1448550" lon="-8.6149190">
        <ele>84.6</ele>
        <time>2021-05-15T17:42:08Z</time>
      </trkpt>
      <trkpt lat="41.1448560" lon="-8.6149300">
        <ele>84.6</ele>
        <time>2021-05-15T17:42:09Z</time>
      </trkpt>
      <trkpt lat="41.1448620" lon="-8.6149610">
        <ele>84.7</ele>
        <time>2021-05-15T17:42:10Z</time>
      </trkpt>
      <trkpt lat="41.1448620" lon="-8.6149710">
        <ele>84.8</ele>
        <time>2021-05-15T17:42:11Z</time>
      </trkpt>
      <trkpt lat="41.1448630" lon="-8.6149820">
        <ele>84.8</ele>
        <time>2021-05-15T17:42:12Z</time>
      </trkpt>
      <trkpt lat="41.1448680" lon="-8.6150110">
        <ele>85.0</ele>
        <time>2021-05-15T17:42:13Z</time>
      </trkpt>
      <trkpt lat="41.1448700" lon="-8.6150210">
        <ele>85.1</ele>
        <time>2021-05-15T17:42:14Z</time>
      </trkpt>
      <trkpt lat="41.1448720" lon="-8.6150300">
        <ele>85.1</ele>
        <time>2021-05-15T17:42:15Z</time>
      </trkpt>
      <trkpt lat="41.1448730" lon="-8.6150520">
        <ele>85.3</ele>
        <time>2021-05-15T17:42:16Z</time>
      </trkpt>
      <trkpt lat="41.1448730" lon="-8.6150640">
        <ele>85.4</ele>
        <time>2021-05-15T17:42:17Z</time>
      </trkpt>
      <trkpt lat="41.1448660" lon="-8.6150770">
        <ele>85.5</ele>
        <time>2021-05-15T17:42:18Z</time>
      </trkpt>
      <trkpt lat="41.1448570" lon="-8.6150990">
        <ele>85.7</ele>
        <time>2021-05-15T17:42:19Z</time>
      </trkpt>
      <trkpt lat="41.1448630" lon="-8.6151180">
        <ele>85.8</ele>
        <time>2021-05-15T17:42:20Z</time>
      </trkpt>
      <trkpt lat="41.1448620" lon="-8.6151330">
        <ele>85.9</ele>
        <time>2021-05-15T17:42:21Z</time>
      </trkpt>
      <trkpt lat="41.1448590" lon="-8.6151480">
        <ele>86.0</ele>
        <time>2021-05-15T17:42:22Z</time>
      </trkpt>
      <trkpt lat="41.1448570" lon="-8.6151650">
        <ele>86.1</ele>
        <time>2021-05-15T17:42:23Z</time>
      </trkpt>
      <trkpt lat="41.1448630" lon="-8.6151830">
        <ele>86.3</ele>
        <time>2021-05-15T17:42:24Z</time>
      </trkpt>
      <trkpt lat="41.1448700" lon="-8.6152040">
        <ele>86.4</ele>
        <time>2021-05-15T17:42:25Z</time>
      </trkpt>
      <trkpt lat="41.1448780" lon="-8.6152300">
        <ele>86.6</ele>
        <time>2021-05-15T17:42:26Z</time>
      </trkpt>
      <trkpt lat="41.1448810" lon="-8.6152410">
        <ele>86.6</ele>
        <time>2021-05-15T17:42:27Z</time>
      </trkpt>
      <trkpt lat="41.1448830" lon="-8.6152520">
        <ele>86.7</ele>
        <time>2021-05-15T17:42:28Z</time>
      </trkpt>
      <trkpt lat="41.1448690" lon="-8.6152850">
        <ele>86.9</ele>
        <time>2021-05-15T17:42:29Z</time>
      </trkpt>
      <trkpt lat="41.1449020" lon="-8.6152910">
        <ele>87.2</ele>
        <time>2021-05-15T17:42:30Z</time>
      </trkpt>
      <trkpt lat="41.1449040" lon="-8.6153100">
        <ele>87.3</ele>
        <time>2021-05-15T17:42:31Z</time>
      </trkpt>
      <trkpt lat="41.1449090" lon="-8.6153270">
        <ele>87.4</ele>
        <time>2021-05-15T17:42:32Z</time>
      </trkpt>
      <trkpt lat="41.1449110" lon="-8.6153590">
        <ele>87.5</ele>
        <time>2021-05-15T17:42:33Z</time>
      </trkpt>
      <trkpt lat="41.1449140" lon="-8.6153710">
        <ele>87.6</ele>
        <time>2021-05-15T17:42:34Z</time>
      </trkpt>
      <trkpt lat="41.1449180" lon="-8.6153830">
        <ele>87.6</ele>
        <time>2021-05-15T17:42:35Z</time>
      </trkpt>
      <trkpt lat="41.1449280" lon="-8.6154100">
        <ele>87.8</ele>
        <time>2021-05-15T17:42:36Z</time>
      </trkpt>
      <trkpt lat="41.1449320" lon="-8.6154190">
        <ele>87.8</ele>
        <time>2021-05-15T17:42:37Z</time>
      </trkpt>
      <trkpt lat="41.1449350" lon="-8.6154270">
        <ele>87.9</ele>
        <time>2021-05-15T17:42:38Z</time>
      </trkpt>
      <trkpt lat="41.1449460" lon="-8.6154400">
        <ele>88.3</ele>
        <time>2021-05-15T17:42:39Z</time>
      </trkpt>
      <trkpt lat="41.1449610" lon="-8.6154410">
        <ele>88.3</ele>
        <time>2021-05-15T17:42:40Z</time>
      </trkpt>
      <trkpt lat="41.1449720" lon="-8.6154530">
        <ele>88.4</ele>
        <time>2021-05-15T17:42:41Z</time>
      </trkpt>
      <trkpt lat="41.1449800" lon="-8.6154680">
        <ele>88.4</ele>
        <time>2021-05-15T17:42:42Z</time>
      </trkpt>
      <trkpt lat="41.1450010" lon="-8.6154690">
        <ele>88.5</ele>
        <time>2021-05-15T17:42:43Z</time>
      </trkpt>
      <trkpt lat="41.1450130" lon="-8.6154760">
        <ele>88.5</ele>
        <time>2021-05-15T17:42:44Z</time>
      </trkpt>
      <trkpt lat="41.1450290" lon="-8.6154820">
        <ele>88.5</ele>
        <time>2021-05-15T17:42:46Z</time>
      </trkpt>
      <trkpt lat="41.1450570" lon="-8.6154830">
        <ele>88.6</ele>
        <time>2021-05-15T17:42:47Z</time>
      </trkpt>
      <trkpt lat="41.1450830" lon="-8.6154860">
        <ele>88.6</ele>
        <time>2021-05-15T17:42:49Z</time>
      </trkpt>
      <trkpt lat="41.1450940" lon="-8.6154910">
        <ele>88.7</ele>
        <time>2021-05-15T17:42:50Z</time>
      </trkpt>
      <trkpt lat="41.1451040" lon="-8.6154950">
        <ele>88.7</ele>
        <time>2021-05-15T17:42:51Z</time>
      </trkpt>
      <trkpt lat="41.1451150" lon="-8.6155000">
        <ele>88.7</ele>
        <time>2021-05-15T17:42:52Z</time>
      </trkpt>
      <trkpt lat="41.1451280" lon="-8.6155050">
        <ele>88.7</ele>
        <time>2021-05-15T17:42:53Z</time>
      </trkpt>
      <trkpt lat="41.1451410" lon="-8.6155050">
        <ele>88.8</ele>
        <time>2021-05-15T17:42:54Z</time>
      </trkpt>
      <trkpt lat="41.1451490" lon="-8.6155110">
        <ele>88.8</ele>
        <time>2021-05-15T17:42:55Z</time>
      </trkpt>
      <trkpt lat="41.1451560" lon="-8.6155150">
        <ele>88.8</ele>
        <time>2021-05-15T17:42:56Z</time>
      </trkpt>
      <trkpt lat="41.1451620" lon="-8.6155190">
        <ele>88.8</ele>
        <time>2021-05-15T17:42:57Z</time>
      </trkpt>
      <trkpt lat="41.1451780" lon="-8.6155280">
        <ele>88.8</ele>
        <time>2021-05-15T17:42:58Z</time>
      </trkpt>
      <trkpt lat="41.1451950" lon="-8.6155360">
        <ele>88.8</ele>
        <time>2021-05-15T17:42:59Z</time>
      </trkpt>
      <trkpt lat="41.1452050" lon="-8.6155410">
        <ele>88.9</ele>
        <time>2021-05-15T17:43:00Z</time>
      </trkpt>
      <trkpt lat="41.1452160" lon="-8.6155460">
        <ele>88.9</ele>
        <time>2021-05-15T17:43:01Z</time>
      </trkpt>
      <trkpt lat="41.1452280" lon="-8.6155600">
        <ele>88.9</ele>
        <time>2021-05-15T17:43:02Z</time>
      </trkpt>
      <trkpt lat="41.1452360" lon="-8.6155630">
        <ele>88.9</ele>
        <time>2021-05-15T17:43:03Z</time>
      </trkpt>
      <trkpt lat="41.1452430" lon="-8.6155670">
        <ele>88.9</ele>
        <time>2021-05-15T17:43:04Z</time>
      </trkpt>
      <trkpt lat="41.1452500" lon="-8.6155700">
        <ele>88.9</ele>
        <time>2021-05-15T17:43:05Z</time>
      </trkpt>
      <trkpt lat="41.1452630" lon="-8.6155760">
        <ele>89.0</ele>
        <time>2021-05-15T17:43:06Z</time>
      </trkpt>
      <trkpt lat="41.1452760" lon="-8.6155850">
        <ele>89.0</ele>
        <time>2021-05-15T17:43:07Z</time>
      </trkpt>
      <trkpt lat="41.1452860" lon="-8.6155880">
        <ele>89.0</ele>
        <time>2021-05-15T17:43:08Z</time>
      </trkpt>
      <trkpt lat="41.1452950" lon="-8.6156020">
        <ele>89.0</ele>
        <time>2021-05-15T17:43:09Z</time>
      </trkpt>
      <trkpt lat="41.1452960" lon="-8.6156080">
        <ele>89.0</ele>
        <time>2021-05-15T17:43:10Z</time>
      </trkpt>
      <trkpt lat="41.1453020" lon="-8.6156100">
        <ele>89.0</ele>
        <time>2021-05-15T17:43:11Z</time>
      </trkpt>
      <trkpt lat="41.1453110" lon="-8.6156170">
        <ele>89.0</ele>
        <time>2021-05-15T17:43:12Z</time>
      </trkpt>
      <trkpt lat="41.1453230" lon="-8.6156240">
        <ele>89.1</ele>
        <time>2021-05-15T17:43:13Z</time>
      </trkpt>
      <trkpt lat="41.1453220" lon="-8.6156290">
        <ele>89.1</ele>
        <time>2021-05-15T17:43:14Z</time>
      </trkpt>
      <trkpt lat="41.1453280" lon="-8.6156300">
        <ele>89.1</ele>
        <time>2021-05-15T17:43:15Z</time>
      </trkpt>
      <trkpt lat="41.1453380" lon="-8.6156330">
        <ele>89.1</ele>
        <time>2021-05-15T17:43:16Z</time>
      </trkpt>
      <trkpt lat="41.1453400" lon="-8.6156290">
        <ele>89.1</ele>
        <time>2021-05-15T17:43:17Z</time>
      </trkpt>
      <trkpt lat="41.1453450" lon="-8.6156300">
        <ele>89.1</ele>
        <time>2021-05-15T17:43:18Z</time>
      </trkpt>
      <trkpt lat="41.1453530" lon="-8.6156290">
        <ele>89.1</ele>
        <time>2021-05-15T17:43:19Z</time>
      </trkpt>
      <trkpt lat="41.1453560" lon="-8.6156290">
        <ele>89.1</ele>
        <time>2021-05-15T17:43:20Z</time>
      </trkpt>
      <trkpt lat="41.1453590" lon="-8.6156310">
        <ele>89.1</ele>
        <time>2021-05-15T17:43:21Z</time>
      </trkpt>
      <trkpt lat="41.1453670" lon="-8.6156340">
        <ele>89.1</ele>
        <time>2021-05-15T17:43:22Z</time>
      </trkpt>
      <trkpt lat="41.1453540" lon="-8.6156380">
        <ele>89.1</ele>
        <time>2021-05-15T17:43:23Z</time>
      </trkpt>
      <trkpt lat="41.1453570" lon="-8.6156430">
        <ele>89.1</ele>
        <time>2021-05-15T17:43:24Z</time>
      </trkpt>
      <trkpt lat="41.1453580" lon="-8.6156390">
        <ele>89.1</ele>
        <time>2021-05-15T17:43:25Z</time>
      </trkpt>
      <trkpt lat="41.1453600" lon="-8.6156340">
        <ele>89.1</ele>
        <time>2021-05-15T17:43:26Z</time>
      </trkpt>
      <trkpt lat="41.1453610" lon="-8.6156340">
        <ele>89.1</ele>
        <time>2021-05-15T17:43:27Z</time>
      </trkpt>
      <trkpt lat="41.1453620" lon="-8.6156320">
        <ele>89.1</ele>
        <time>2021-05-15T17:43:28Z</time>
      </trkpt>
      <trkpt lat="41.1453660" lon="-8.6156360">
        <ele>89.1</ele>
        <time>2021-05-15T17:43:29Z</time>
      </trkpt>
      <trkpt lat="41.1453640" lon="-8.6156360">
        <ele>89.1</ele>
        <time>2021-05-15T17:43:30Z</time>
      </trkpt>
      <trkpt lat="41.1453660" lon="-8.6156350">
        <ele>89.1</ele>
        <time>2021-05-15T17:43:31Z</time>
      </trkpt>
      <trkpt lat="41.1453700" lon="-8.6156330">
        <ele>89.0</ele>
        <time>2021-05-15T17:43:32Z</time>
      </trkpt>
      <trkpt lat="41.1453700" lon="-8.6156350">
        <ele>89.0</ele>
        <time>2021-05-15T17:43:33Z</time>
      </trkpt>
      <trkpt lat="41.1453740" lon="-8.6156360">
        <ele>89.0</ele>
        <time>2021-05-15T17:43:34Z</time>
      </trkpt>
      <trkpt lat="41.1453760" lon="-8.6156410">
        <ele>89.0</ele>
        <time>2021-05-15T17:43:35Z</time>
      </trkpt>
      <trkpt lat="41.1453740" lon="-8.6156410">
        <ele>89.0</ele>
        <time>2021-05-15T17:43:36Z</time>
      </trkpt>
      <trkpt lat="41.1453670" lon="-8.6156410">
        <ele>89.0</ele>
        <time>2021-05-15T17:43:37Z</time>
      </trkpt>
      <trkpt lat="41.1453650" lon="-8.6156390">
        <ele>89.0</ele>
        <time>2021-05-15T17:43:38Z</time>
      </trkpt>
      <trkpt lat="41.1453650" lon="-8.6156330">
        <ele>89.0</ele>
        <time>2021-05-15T17:43:39Z</time>
      </trkpt>
      <trkpt lat="41.1453650" lon="-8.6156310">
        <ele>89.0</ele>
        <time>2021-05-15T17:43:40Z</time>
      </trkpt>
      <trkpt lat="41.1453600" lon="-8.6156320">
        <ele>89.0</ele>
        <time>2021-05-15T17:43:41Z</time>
      </trkpt>
      <trkpt lat="41.1453580" lon="-8.6156230">
        <ele>89.0</ele>
        <time>2021-05-15T17:43:42Z</time>
      </trkpt>
      <trkpt lat="41.1453580" lon="-8.6156180">
        <ele>89.0</ele>
        <time>2021-05-15T17:43:43Z</time>
      </trkpt>
      <trkpt lat="41.1453580" lon="-8.6156150">
        <ele>89.0</ele>
        <time>2021-05-15T17:43:44Z</time>
      </trkpt>
      <trkpt lat="41.1453550" lon="-8.6156170">
        <ele>89.0</ele>
        <time>2021-05-15T17:43:45Z</time>
      </trkpt>
      <trkpt lat="41.1453660" lon="-8.6156230">
        <ele>89.0</ele>
        <time>2021-05-15T17:43:46Z</time>
      </trkpt>
      <trkpt lat="41.1453720" lon="-8.6156310">
        <ele>89.0</ele>
        <time>2021-05-15T17:43:47Z</time>
      </trkpt>
      <trkpt lat="41.1453780" lon="-8.6156340">
        <ele>89.0</ele>
        <time>2021-05-15T17:43:48Z</time>
      </trkpt>
      <trkpt lat="41.1453830" lon="-8.6156380">
        <ele>89.0</ele>
        <time>2021-05-15T17:43:49Z</time>
      </trkpt>
      <trkpt lat="41.1453850" lon="-8.6156390">
        <ele>89.0</ele>
        <time>2021-05-15T17:43:50Z</time>
      </trkpt>
      <trkpt lat="41.1453870" lon="-8.6156420">
        <ele>89.0</ele>
        <time>2021-05-15T17:43:51Z</time>
      </trkpt>
      <trkpt lat="41.1453860" lon="-8.6156440">
        <ele>89.0</ele>
        <time>2021-05-15T17:43:52Z</time>
      </trkpt>
      <trkpt lat="41.1453830" lon="-8.6156450">
        <ele>89.0</ele>
        <time>2021-05-15T17:43:53Z</time>
      </trkpt>
      <trkpt lat="41.1453810" lon="-8.6156440">
        <ele>89.0</ele>
        <time>2021-05-15T17:43:54Z</time>
      </trkpt>
      <trkpt lat="41.1453800" lon="-8.6156360">
        <ele>89.0</ele>
        <time>2021-05-15T17:43:55Z</time>
      </trkpt>
      <trkpt lat="41.1453760" lon="-8.6156400">
        <ele>89.0</ele>
        <time>2021-05-15T17:43:56Z</time>
      </trkpt>
      <trkpt lat="41.1453760" lon="-8.6156430">
        <ele>89.0</ele>
        <time>2021-05-15T17:43:57Z</time>
      </trkpt>
      <trkpt lat="41.1453740" lon="-8.6156410">
        <ele>89.0</ele>
        <time>2021-05-15T17:43:58Z</time>
      </trkpt>
      <trkpt lat="41.1453730" lon="-8.6156400">
        <ele>89.0</ele>
        <time>2021-05-15T17:43:59Z</time>
      </trkpt>
      <trkpt lat="41.1453750" lon="-8.6156460">
        <ele>89.0</ele>
        <time>2021-05-15T17:44:00Z</time>
      </trkpt>
      <trkpt lat="41.1453750" lon="-8.6156500">
        <ele>89.0</ele>
        <time>2021-05-15T17:44:01Z</time>
      </trkpt>
      <trkpt lat="41.1453740" lon="-8.6156490">
        <ele>89.0</ele>
        <time>2021-05-15T17:44:02Z</time>
      </trkpt>
      <trkpt lat="41.1453760" lon="-8.6156520">
        <ele>89.0</ele>
        <time>2021-05-15T17:44:03Z</time>
      </trkpt>
      <trkpt lat="41.1453760" lon="-8.6156500">
        <ele>89.0</ele>
        <time>2021-05-15T17:44:04Z</time>
      </trkpt>
      <trkpt lat="41.1453770" lon="-8.6156500">
        <ele>88.9</ele>
        <time>2021-05-15T17:44:05Z</time>
      </trkpt>
      <trkpt lat="41.1453740" lon="-8.6156490">
        <ele>88.9</ele>
        <time>2021-05-15T17:44:06Z</time>
      </trkpt>
      <trkpt lat="41.1453730" lon="-8.6156460">
        <ele>88.9</ele>
        <time>2021-05-15T17:44:07Z</time>
      </trkpt>
      <trkpt lat="41.1453670" lon="-8.6156320">
        <ele>88.9</ele>
        <time>2021-05-15T17:44:08Z</time>
      </trkpt>
      <trkpt lat="41.1453610" lon="-8.6156190">
        <ele>88.9</ele>
        <time>2021-05-15T17:44:09Z</time>
      </trkpt>
      <trkpt lat="41.1453610" lon="-8.6156230">
        <ele>88.9</ele>
        <time>2021-05-15T17:44:10Z</time>
      </trkpt>
      <trkpt lat="41.1453610" lon="-8.6156250">
        <ele>88.9</ele>
        <time>2021-05-15T17:44:11Z</time>
      </trkpt>
      <trkpt lat="41.1453610" lon="-8.6156280">
        <ele>88.9</ele>
        <time>2021-05-15T17:44:12Z</time>
      </trkpt>
      <trkpt lat="41.1453620" lon="-8.6156340">
        <ele>88.9</ele>
        <time>2021-05-15T17:44:13Z</time>
      </trkpt>
      <trkpt lat="41.1453630" lon="-8.6156330">
        <ele>88.9</ele>
        <time>2021-05-15T17:44:14Z</time>
      </trkpt>
      <trkpt lat="41.1453640" lon="-8.6156350">
        <ele>88.9</ele>
        <time>2021-05-15T17:44:15Z</time>
      </trkpt>
      <trkpt lat="41.1453620" lon="-8.6156350">
        <ele>88.9</ele>
        <time>2021-05-15T17:44:16Z</time>
      </trkpt>
      <trkpt lat="41.1453610" lon="-8.6156360">
        <ele>88.9</ele>
        <time>2021-05-15T17:44:17Z</time>
      </trkpt>
      <trkpt lat="41.1453620" lon="-8.6156370">
        <ele>88.9</ele>
        <time>2021-05-15T17:44:18Z</time>
      </trkpt>
      <trkpt lat="41.1453650" lon="-8.6156440">
        <ele>88.9</ele>
        <time>2021-05-15T17:44:19Z</time>
      </trkpt>
      <trkpt lat="41.1453670" lon="-8.6156430">
        <ele>88.9</ele>
        <time>2021-05-15T17:44:20Z</time>
      </trkpt>
      <trkpt lat="41.1453660" lon="-8.6156400">
        <ele>88.9</ele>
        <time>2021-05-15T17:44:21Z</time>
      </trkpt>
      <trkpt lat="41.1453650" lon="-8.6156350">
        <ele>88.9</ele>
        <time>2021-05-15T17:44:22Z</time>
      </trkpt>
      <trkpt lat="41.1453680" lon="-8.6156360">
        <ele>88.9</ele>
        <time>2021-05-15T17:44:23Z</time>
      </trkpt>
      <trkpt lat="41.1453650" lon="-8.6156360">
        <ele>88.9</ele>
        <time>2021-05-15T17:44:24Z</time>
      </trkpt>
      <trkpt lat="41.1453650" lon="-8.6156360">
        <ele>88.9</ele>
        <time>2021-05-15T17:44:25Z</time>
      </trkpt>
      <trkpt lat="41.1453640" lon="-8.6156360">
        <ele>88.9</ele>
        <time>2021-05-15T17:44:26Z</time>
      </trkpt>
      <trkpt lat="41.1453640" lon="-8.6156360">
        <ele>88.9</ele>
        <time>2021-05-15T17:44:27Z</time>
      </trkpt>
      <trkpt lat="41.1453640" lon="-8.6156380">
        <ele>88.9</ele>
        <time>2021-05-15T17:44:28Z</time>
      </trkpt>
      <trkpt lat="41.1453610" lon="-8.6156330">
        <ele>88.9</ele>
        <time>2021-05-15T17:44:29Z</time>
      </trkpt>
      <trkpt lat="41.1453630" lon="-8.6156330">
        <ele>88.9</ele>
        <time>2021-05-15T17:44:30Z</time>
      </trkpt>
      <trkpt lat="41.1453600" lon="-8.6156290">
        <ele>88.9</ele>
        <time>2021-05-15T17:44:31Z</time>
      </trkpt>
      <trkpt lat="41.1453640" lon="-8.6156300">
        <ele>88.9</ele>
        <time>2021-05-15T17:44:32Z</time>
      </trkpt>
      <trkpt lat="41.1453670" lon="-8.6156280">
        <ele>88.9</ele>
        <time>2021-05-15T17:44:33Z</time>
      </trkpt>
      <trkpt lat="41.1453690" lon="-8.6156300">
        <ele>88.8</ele>
        <time>2021-05-15T17:44:34Z</time>
      </trkpt>
      <trkpt lat="41.1453720" lon="-8.6156330">
        <ele>88.8</ele>
        <time>2021-05-15T17:44:35Z</time>
      </trkpt>
      <trkpt lat="41.1453730" lon="-8.6156340">
        <ele>88.8</ele>
        <time>2021-05-15T17:44:36Z</time>
      </trkpt>
      <trkpt lat="41.1453770" lon="-8.6156310">
        <ele>88.8</ele>
        <time>2021-05-15T17:44:37Z</time>
      </trkpt>
      <trkpt lat="41.1453770" lon="-8.6156280">
        <ele>88.8</ele>
        <time>2021-05-15T17:44:38Z</time>
      </trkpt>
      <trkpt lat="41.1453750" lon="-8.6156250">
        <ele>88.8</ele>
        <time>2021-05-15T17:44:39Z</time>
      </trkpt>
      <trkpt lat="41.1453720" lon="-8.6156290">
        <ele>88.8</ele>
        <time>2021-05-15T17:44:40Z</time>
      </trkpt>
      <trkpt lat="41.1453720" lon="-8.6156280">
        <ele>88.8</ele>
        <time>2021-05-15T17:44:41Z</time>
      </trkpt>
      <trkpt lat="41.1453700" lon="-8.6156210">
        <ele>88.8</ele>
        <time>2021-05-15T17:44:42Z</time>
      </trkpt>
      <trkpt lat="41.1453710" lon="-8.6156210">
        <ele>88.8</ele>
        <time>2021-05-15T17:44:43Z</time>
      </trkpt>
      <trkpt lat="41.1453720" lon="-8.6156230">
        <ele>88.8</ele>
        <time>2021-05-15T17:44:44Z</time>
      </trkpt>
      <trkpt lat="41.1453740" lon="-8.6156220">
        <ele>88.8</ele>
        <time>2021-05-15T17:44:45Z</time>
      </trkpt>
      <trkpt lat="41.1453720" lon="-8.6156200">
        <ele>88.8</ele>
        <time>2021-05-15T17:44:46Z</time>
      </trkpt>
      <trkpt lat="41.1453720" lon="-8.6156200">
        <ele>88.8</ele>
        <time>2021-05-15T17:44:47Z</time>
      </trkpt>
      <trkpt lat="41.1453720" lon="-8.6156260">
        <ele>88.8</ele>
        <time>2021-05-15T17:44:48Z</time>
      </trkpt>
      <trkpt lat="41.1453780" lon="-8.6156300">
        <ele>88.8</ele>
        <time>2021-05-15T17:44:49Z</time>
      </trkpt>
      <trkpt lat="41.1453860" lon="-8.6156350">
        <ele>88.8</ele>
        <time>2021-05-15T17:44:50Z</time>
      </trkpt>
      <trkpt lat="41.1453930" lon="-8.6156380">
        <ele>88.8</ele>
        <time>2021-05-15T17:44:51Z</time>
      </trkpt>
      <trkpt lat="41.1454000" lon="-8.6156390">
        <ele>88.8</ele>
        <time>2021-05-15T17:44:52Z</time>
      </trkpt>
      <trkpt lat="41.1454070" lon="-8.6156400">
        <ele>88.8</ele>
        <time>2021-05-15T17:44:53Z</time>
      </trkpt>
      <trkpt lat="41.1454150" lon="-8.6156450">
        <ele>88.8</ele>
        <time>2021-05-15T17:44:54Z</time>
      </trkpt>
      <trkpt lat="41.1454300" lon="-8.6156540">
        <ele>88.8</ele>
        <time>2021-05-15T17:44:55Z</time>
      </trkpt>
      <trkpt lat="41.1454390" lon="-8.6156630">
        <ele>88.8</ele>
        <time>2021-05-15T17:44:56Z</time>
      </trkpt>
      <trkpt lat="41.1454470" lon="-8.6156640">
        <ele>88.8</ele>
        <time>2021-05-15T17:44:57Z</time>
      </trkpt>
      <trkpt lat="41.1454550" lon="-8.6156700">
        <ele>88.9</ele>
        <time>2021-05-15T17:44:58Z</time>
      </trkpt>
      <trkpt lat="41.1454620" lon="-8.6156750">
        <ele>88.9</ele>
        <time>2021-05-15T17:44:59Z</time>
      </trkpt>
      <trkpt lat="41.1454610" lon="-8.6156730">
        <ele>88.9</ele>
        <time>2021-05-15T17:45:00Z</time>
      </trkpt>
      <trkpt lat="41.1454610" lon="-8.6156790">
        <ele>88.9</ele>
        <time>2021-05-15T17:45:01Z</time>
      </trkpt>
      <trkpt lat="41.1454630" lon="-8.6156810">
        <ele>88.9</ele>
        <time>2021-05-15T17:45:02Z</time>
      </trkpt>
      <trkpt lat="41.1454630" lon="-8.6156810">
        <ele>88.9</ele>
        <time>2021-05-15T17:45:03Z</time>
      </trkpt>
      <trkpt lat="41.1454710" lon="-8.6156940">
        <ele>88.9</ele>
        <time>2021-05-15T17:45:04Z</time>
      </trkpt>
      <trkpt lat="41.1454720" lon="-8.6156950">
        <ele>88.9</ele>
        <time>2021-05-15T17:45:05Z</time>
      </trkpt>
      <trkpt lat="41.1454730" lon="-8.6156930">
        <ele>88.9</ele>
        <time>2021-05-15T17:45:06Z</time>
      </trkpt>
      <trkpt lat="41.1454770" lon="-8.6156880">
        <ele>89.0</ele>
        <time>2021-05-15T17:45:07Z</time>
      </trkpt>
      <trkpt lat="41.1454800" lon="-8.6156870">
        <ele>89.0</ele>
        <time>2021-05-15T17:45:08Z</time>
      </trkpt>
      <trkpt lat="41.1454810" lon="-8.6156860">
        <ele>89.0</ele>
        <time>2021-05-15T17:45:09Z</time>
      </trkpt>
      <trkpt lat="41.1454780" lon="-8.6156800">
        <ele>89.0</ele>
        <time>2021-05-15T17:45:10Z</time>
      </trkpt>
      <trkpt lat="41.1454820" lon="-8.6156900">
        <ele>89.0</ele>
        <time>2021-05-15T17:45:11Z</time>
      </trkpt>
      <trkpt lat="41.1454920" lon="-8.6157000">
        <ele>89.0</ele>
        <time>2021-05-15T17:45:12Z</time>
      </trkpt>
      <trkpt lat="41.1454980" lon="-8.6157070">
        <ele>89.0</ele>
        <time>2021-05-15T17:45:13Z</time>
      </trkpt>
      <trkpt lat="41.1455040" lon="-8.6157110">
        <ele>89.0</ele>
        <time>2021-05-15T17:45:14Z</time>
      </trkpt>
      <trkpt lat="41.1455060" lon="-8.6157130">
        <ele>89.0</ele>
        <time>2021-05-15T17:45:15Z</time>
      </trkpt>
      <trkpt lat="41.1455080" lon="-8.6157160">
        <ele>89.0</ele>
        <time>2021-05-15T17:45:16Z</time>
      </trkpt>
      <trkpt lat="41.1455090" lon="-8.6157230">
        <ele>89.0</ele>
        <time>2021-05-15T17:45:17Z</time>
      </trkpt>
      <trkpt lat="41.1455090" lon="-8.6157230">
        <ele>89.0</ele>
        <time>2021-05-15T17:45:18Z</time>
      </trkpt>
      <trkpt lat="41.1455160" lon="-8.6157480">
        <ele>89.0</ele>
        <time>2021-05-15T17:45:19Z</time>
      </trkpt>
      <trkpt lat="41.1455160" lon="-8.6157480">
        <ele>89.0</ele>
        <time>2021-05-15T17:45:20Z</time>
      </trkpt>
      <trkpt lat="41.1455120" lon="-8.6157530">
        <ele>89.0</ele>
        <time>2021-05-15T17:45:21Z</time>
      </trkpt>
      <trkpt lat="41.1455120" lon="-8.6157500">
        <ele>89.0</ele>
        <time>2021-05-15T17:45:22Z</time>
      </trkpt>
      <trkpt lat="41.1455150" lon="-8.6157370">
        <ele>89.1</ele>
        <time>2021-05-15T17:45:23Z</time>
      </trkpt>
      <trkpt lat="41.1455180" lon="-8.6157310">
        <ele>89.1</ele>
        <time>2021-05-15T17:45:24Z</time>
      </trkpt>
      <trkpt lat="41.1455190" lon="-8.6157190">
        <ele>89.1</ele>
        <time>2021-05-15T17:45:25Z</time>
      </trkpt>
      <trkpt lat="41.1455210" lon="-8.6157110">
        <ele>89.1</ele>
        <time>2021-05-15T17:45:26Z</time>
      </trkpt>
      <trkpt lat="41.1455240" lon="-8.6156820">
        <ele>89.2</ele>
        <time>2021-05-15T17:45:27Z</time>
      </trkpt>
      <trkpt lat="41.1455240" lon="-8.6156660">
        <ele>89.2</ele>
        <time>2021-05-15T17:45:28Z</time>
      </trkpt>
      <trkpt lat="41.1455250" lon="-8.6156510">
        <ele>89.3</ele>
        <time>2021-05-15T17:45:29Z</time>
      </trkpt>
      <trkpt lat="41.1455240" lon="-8.6156540">
        <ele>89.3</ele>
        <time>2021-05-15T17:45:30Z</time>
      </trkpt>
      <trkpt lat="41.1455220" lon="-8.6156500">
        <ele>89.3</ele>
        <time>2021-05-15T17:45:31Z</time>
      </trkpt>
      <trkpt lat="41.1455230" lon="-8.6156490">
        <ele>89.3</ele>
        <time>2021-05-15T17:45:32Z</time>
      </trkpt>
      <trkpt lat="41.1455210" lon="-8.6156470">
        <ele>89.3</ele>
        <time>2021-05-15T17:45:33Z</time>
      </trkpt>
      <trkpt lat="41.1455150" lon="-8.6156430">
        <ele>89.3</ele>
        <time>2021-05-15T17:45:34Z</time>
      </trkpt>
      <trkpt lat="41.1455150" lon="-8.6156450">
        <ele>89.3</ele>
        <time>2021-05-15T17:45:35Z</time>
      </trkpt>
      <trkpt lat="41.1455150" lon="-8.6156480">
        <ele>89.3</ele>
        <time>2021-05-15T17:45:36Z</time>
      </trkpt>
      <trkpt lat="41.1455100" lon="-8.6156450">
        <ele>89.3</ele>
        <time>2021-05-15T17:45:37Z</time>
      </trkpt>
      <trkpt lat="41.1455090" lon="-8.6156390">
        <ele>89.4</ele>
        <time>2021-05-15T17:45:38Z</time>
      </trkpt>
      <trkpt lat="41.1455050" lon="-8.6156340">
        <ele>89.4</ele>
        <time>2021-05-15T17:45:39Z</time>
      </trkpt>
      <trkpt lat="41.1455020" lon="-8.6156210">
        <ele>89.4</ele>
        <time>2021-05-15T17:45:40Z</time>
      </trkpt>
      <trkpt lat="41.1455010" lon="-8.6156200">
        <ele>89.4</ele>
        <time>2021-05-15T17:45:41Z</time>
      </trkpt>
      <trkpt lat="41.1455040" lon="-8.6156260">
        <ele>89.4</ele>
        <time>2021-05-15T17:45:42Z</time>
      </trkpt>
      <trkpt lat="41.1455070" lon="-8.6156250">
        <ele>89.4</ele>
        <time>2021-05-15T17:45:43Z</time>
      </trkpt>
      <trkpt lat="41.1455140" lon="-8.6156110">
        <ele>89.5</ele>
        <time>2021-05-15T17:45:44Z</time>
      </trkpt>
      <trkpt lat="41.1455130" lon="-8.6156090">
        <ele>89.5</ele>
        <time>2021-05-15T17:45:45Z</time>
      </trkpt>
      <trkpt lat="41.1455100" lon="-8.6156040">
        <ele>89.5</ele>
        <time>2021-05-15T17:45:46Z</time>
      </trkpt>
      <trkpt lat="41.1455120" lon="-8.6156020">
        <ele>89.5</ele>
        <time>2021-05-15T17:45:47Z</time>
      </trkpt>
      <trkpt lat="41.1455110" lon="-8.6156000">
        <ele>89.5</ele>
        <time>2021-05-15T17:45:48Z</time>
      </trkpt>
      <trkpt lat="41.1455100" lon="-8.6156020">
        <ele>89.5</ele>
        <time>2021-05-15T17:45:49Z</time>
      </trkpt>
      <trkpt lat="41.1455080" lon="-8.6156050">
        <ele>89.5</ele>
        <time>2021-05-15T17:45:50Z</time>
      </trkpt>
      <trkpt lat="41.1455070" lon="-8.6156050">
        <ele>89.5</ele>
        <time>2021-05-15T17:45:51Z</time>
      </trkpt>
      <trkpt lat="41.1455070" lon="-8.6156030">
        <ele>89.5</ele>
        <time>2021-05-15T17:45:52Z</time>
      </trkpt>
      <trkpt lat="41.1455120" lon="-8.6155820">
        <ele>89.6</ele>
        <time>2021-05-15T17:45:53Z</time>
      </trkpt>
      <trkpt lat="41.1455150" lon="-8.6155510">
        <ele>89.7</ele>
        <time>2021-05-15T17:45:54Z</time>
      </trkpt>
      <trkpt lat="41.1455170" lon="-8.6155440">
        <ele>89.7</ele>
        <time>2021-05-15T17:45:55Z</time>
      </trkpt>
      <trkpt lat="41.1455220" lon="-8.6155340">
        <ele>89.7</ele>
        <time>2021-05-15T17:45:56Z</time>
      </trkpt>
      <trkpt lat="41.1455240" lon="-8.6155330">
        <ele>89.7</ele>
        <time>2021-05-15T17:45:57Z</time>
      </trkpt>
      <trkpt lat="41.1455260" lon="-8.6155280">
        <ele>89.7</ele>
        <time>2021-05-15T17:45:58Z</time>
      </trkpt>
      <trkpt lat="41.1455240" lon="-8.6155240">
        <ele>89.7</ele>
        <time>2021-05-15T17:45:59Z</time>
      </trkpt>
      <trkpt lat="41.1455210" lon="-8.6155090">
        <ele>89.7</ele>
        <time>2021-05-15T17:46:00Z</time>
      </trkpt>
      <trkpt lat="41.1455230" lon="-8.6155050">
        <ele>89.7</ele>
        <time>2021-05-15T17:46:01Z</time>
      </trkpt>
      <trkpt lat="41.1455260" lon="-8.6155060">
        <ele>89.7</ele>
        <time>2021-05-15T17:46:02Z</time>
      </trkpt>
      <trkpt lat="41.1455280" lon="-8.6155040">
        <ele>89.7</ele>
        <time>2021-05-15T17:46:03Z</time>
      </trkpt>
      <trkpt lat="41.1455340" lon="-8.6155090">
        <ele>89.7</ele>
        <time>2021-05-15T17:46:04Z</time>
      </trkpt>
      <trkpt lat="41.1455370" lon="-8.6155150">
        <ele>89.7</ele>
        <time>2021-05-15T17:46:05Z</time>
      </trkpt>
      <trkpt lat="41.1455380" lon="-8.6155160">
        <ele>89.7</ele>
        <time>2021-05-15T17:46:06Z</time>
      </trkpt>
      <trkpt lat="41.1455440" lon="-8.6155170">
        <ele>89.7</ele>
        <time>2021-05-15T17:46:07Z</time>
      </trkpt>
      <trkpt lat="41.1455440" lon="-8.6155160">
        <ele>89.7</ele>
        <time>2021-05-15T17:46:08Z</time>
      </trkpt>
      <trkpt lat="41.1455440" lon="-8.6155160">
        <ele>89.7</ele>
        <time>2021-05-15T17:46:09Z</time>
      </trkpt>
      <trkpt lat="41.1455530" lon="-8.6155170">
        <ele>89.7</ele>
        <time>2021-05-15T17:46:10Z</time>
      </trkpt>
      <trkpt lat="41.1455370" lon="-8.6155110">
        <ele>89.7</ele>
        <time>2021-05-15T17:46:11Z</time>
      </trkpt>
      <trkpt lat="41.1455340" lon="-8.6155080">
        <ele>89.7</ele>
        <time>2021-05-15T17:46:12Z</time>
      </trkpt>
      <trkpt lat="41.1455290" lon="-8.6155050">
        <ele>89.7</ele>
        <time>2021-05-15T17:46:13Z</time>
      </trkpt>
      <trkpt lat="41.1455240" lon="-8.6155030">
        <ele>89.7</ele>
        <time>2021-05-15T17:46:14Z</time>
      </trkpt>
      <trkpt lat="41.1455200" lon="-8.6155000">
        <ele>89.7</ele>
        <time>2021-05-15T17:46:15Z</time>
      </trkpt>
      <trkpt lat="41.1455150" lon="-8.6154940">
        <ele>89.7</ele>
        <time>2021-05-15T17:46:16Z</time>
      </trkpt>
      <trkpt lat="41.1455120" lon="-8.6154920">
        <ele>89.7</ele>
        <time>2021-05-15T17:46:17Z</time>
      </trkpt>
      <trkpt lat="41.1455120" lon="-8.6154930">
        <ele>89.7</ele>
        <time>2021-05-15T17:46:18Z</time>
      </trkpt>
      <trkpt lat="41.1455060" lon="-8.6154920">
        <ele>89.7</ele>
        <time>2021-05-15T17:46:19Z</time>
      </trkpt>
      <trkpt lat="41.1455050" lon="-8.6154890">
        <ele>89.7</ele>
        <time>2021-05-15T17:46:20Z</time>
      </trkpt>
      <trkpt lat="41.1455000" lon="-8.6154900">
        <ele>89.7</ele>
        <time>2021-05-15T17:46:21Z</time>
      </trkpt>
      <trkpt lat="41.1454960" lon="-8.6154860">
        <ele>89.7</ele>
        <time>2021-05-15T17:46:22Z</time>
      </trkpt>
      <trkpt lat="41.1454960" lon="-8.6154880">
        <ele>89.7</ele>
        <time>2021-05-15T17:46:23Z</time>
      </trkpt>
      <trkpt lat="41.1454940" lon="-8.6154850">
        <ele>89.7</ele>
        <time>2021-05-15T17:46:24Z</time>
      </trkpt>
      <trkpt lat="41.1454930" lon="-8.6154890">
        <ele>89.7</ele>
        <time>2021-05-15T17:46:25Z</time>
      </trkpt>
      <trkpt lat="41.1454910" lon="-8.6154920">
        <ele>89.7</ele>
        <time>2021-05-15T17:46:26Z</time>
      </trkpt>
      <trkpt lat="41.1454950" lon="-8.6154950">
        <ele>89.7</ele>
        <time>2021-05-15T17:46:27Z</time>
      </trkpt>
      <trkpt lat="41.1455020" lon="-8.6154970">
        <ele>89.7</ele>
        <time>2021-05-15T17:46:28Z</time>
      </trkpt>
      <trkpt lat="41.1455060" lon="-8.6155000">
        <ele>89.7</ele>
        <time>2021-05-15T17:46:29Z</time>
      </trkpt>
      <trkpt lat="41.1455100" lon="-8.6155010">
        <ele>89.7</ele>
        <time>2021-05-15T17:46:30Z</time>
      </trkpt>
      <trkpt lat="41.1455110" lon="-8.6155040">
        <ele>89.7</ele>
        <time>2021-05-15T17:46:31Z</time>
      </trkpt>
      <trkpt lat="41.1455140" lon="-8.6155070">
        <ele>89.7</ele>
        <time>2021-05-15T17:46:32Z</time>
      </trkpt>
      <trkpt lat="41.1455190" lon="-8.6155080">
        <ele>89.7</ele>
        <time>2021-05-15T17:46:33Z</time>
      </trkpt>
      <trkpt lat="41.1455230" lon="-8.6155100">
        <ele>89.7</ele>
        <time>2021-05-15T17:46:34Z</time>
      </trkpt>
      <trkpt lat="41.1455220" lon="-8.6155070">
        <ele>89.7</ele>
        <time>2021-05-15T17:46:35Z</time>
      </trkpt>
      <trkpt lat="41.1455170" lon="-8.6155020">
        <ele>89.7</ele>
        <time>2021-05-15T17:46:36Z</time>
      </trkpt>
      <trkpt lat="41.1455150" lon="-8.6155000">
        <ele>89.7</ele>
        <time>2021-05-15T17:46:37Z</time>
      </trkpt>
      <trkpt lat="41.1455130" lon="-8.6155050">
        <ele>89.7</ele>
        <time>2021-05-15T17:46:38Z</time>
      </trkpt>
      <trkpt lat="41.1455130" lon="-8.6155100">
        <ele>89.7</ele>
        <time>2021-05-15T17:46:39Z</time>
      </trkpt>
      <trkpt lat="41.1455120" lon="-8.6155100">
        <ele>89.7</ele>
        <time>2021-05-15T17:46:40Z</time>
      </trkpt>
      <trkpt lat="41.1455090" lon="-8.6155120">
        <ele>89.7</ele>
        <time>2021-05-15T17:46:41Z</time>
      </trkpt>
      <trkpt lat="41.1455070" lon="-8.6155150">
        <ele>89.7</ele>
        <time>2021-05-15T17:46:42Z</time>
      </trkpt>
      <trkpt lat="41.1455110" lon="-8.6155120">
        <ele>89.7</ele>
        <time>2021-05-15T17:46:43Z</time>
      </trkpt>
      <trkpt lat="41.1455070" lon="-8.6155080">
        <ele>89.7</ele>
        <time>2021-05-15T17:46:44Z</time>
      </trkpt>
      <trkpt lat="41.1455060" lon="-8.6155050">
        <ele>89.7</ele>
        <time>2021-05-15T17:46:45Z</time>
      </trkpt>
      <trkpt lat="41.1455090" lon="-8.6155070">
        <ele>89.7</ele>
        <time>2021-05-15T17:46:46Z</time>
      </trkpt>
      <trkpt lat="41.1455130" lon="-8.6155100">
        <ele>89.7</ele>
        <time>2021-05-15T17:46:47Z</time>
      </trkpt>
      <trkpt lat="41.1455170" lon="-8.6155150">
        <ele>89.7</ele>
        <time>2021-05-15T17:46:48Z</time>
      </trkpt>
      <trkpt lat="41.1455170" lon="-8.6155150">
        <ele>89.7</ele>
        <time>2021-05-15T17:46:49Z</time>
      </trkpt>
      <trkpt lat="41.1455210" lon="-8.6155170">
        <ele>89.7</ele>
        <time>2021-05-15T17:46:50Z</time>
      </trkpt>
      <trkpt lat="41.1455220" lon="-8.6155120">
        <ele>89.7</ele>
        <time>2021-05-15T17:46:51Z</time>
      </trkpt>
      <trkpt lat="41.1455270" lon="-8.6155150">
        <ele>89.7</ele>
        <time>2021-05-15T17:46:52Z</time>
      </trkpt>
      <trkpt lat="41.1455250" lon="-8.6155150">
        <ele>89.7</ele>
        <time>2021-05-15T17:46:53Z</time>
      </trkpt>
      <trkpt lat="41.1455230" lon="-8.6155130">
        <ele>89.7</ele>
        <time>2021-05-15T17:46:54Z</time>
      </trkpt>
      <trkpt lat="41.1455220" lon="-8.6155160">
        <ele>89.7</ele>
        <time>2021-05-15T17:46:55Z</time>
      </trkpt>
      <trkpt lat="41.1455220" lon="-8.6155150">
        <ele>89.7</ele>
        <time>2021-05-15T17:46:56Z</time>
      </trkpt>
      <trkpt lat="41.1455160" lon="-8.6155150">
        <ele>89.7</ele>
        <time>2021-05-15T17:46:57Z</time>
      </trkpt>
      <trkpt lat="41.1455130" lon="-8.6155160">
        <ele>89.7</ele>
        <time>2021-05-15T17:46:58Z</time>
      </trkpt>
      <trkpt lat="41.1455100" lon="-8.6155210">
        <ele>89.7</ele>
        <time>2021-05-15T17:46:59Z</time>
      </trkpt>
      <trkpt lat="41.1455060" lon="-8.6155250">
        <ele>89.7</ele>
        <time>2021-05-15T17:47:00Z</time>
      </trkpt>
      <trkpt lat="41.1455080" lon="-8.6155340">
        <ele>89.7</ele>
        <time>2021-05-15T17:47:01Z</time>
      </trkpt>
      <trkpt lat="41.1455130" lon="-8.6155360">
        <ele>89.7</ele>
        <time>2021-05-15T17:47:02Z</time>
      </trkpt>
      <trkpt lat="41.1455100" lon="-8.6155280">
        <ele>89.7</ele>
        <time>2021-05-15T17:47:03Z</time>
      </trkpt>
      <trkpt lat="41.1455130" lon="-8.6155320">
        <ele>89.7</ele>
        <time>2021-05-15T17:47:04Z</time>
      </trkpt>
      <trkpt lat="41.1455160" lon="-8.6155300">
        <ele>89.7</ele>
        <time>2021-05-15T17:47:05Z</time>
      </trkpt>
      <trkpt lat="41.1455180" lon="-8.6155270">
        <ele>89.7</ele>
        <time>2021-05-15T17:47:06Z</time>
      </trkpt>
      <trkpt lat="41.1455200" lon="-8.6155270">
        <ele>89.7</ele>
        <time>2021-05-15T17:47:07Z</time>
      </trkpt>
      <trkpt lat="41.1455200" lon="-8.6155240">
        <ele>89.7</ele>
        <time>2021-05-15T17:47:08Z</time>
      </trkpt>
      <trkpt lat="41.1455200" lon="-8.6155190">
        <ele>89.7</ele>
        <time>2021-05-15T17:47:09Z</time>
      </trkpt>
      <trkpt lat="41.1455200" lon="-8.6155190">
        <ele>89.7</ele>
        <time>2021-05-15T17:47:10Z</time>
      </trkpt>
      <trkpt lat="41.1455240" lon="-8.6155110">
        <ele>89.7</ele>
        <time>2021-05-15T17:47:11Z</time>
      </trkpt>
      <trkpt lat="41.1455140" lon="-8.6154940">
        <ele>89.7</ele>
        <time>2021-05-15T17:47:12Z</time>
      </trkpt>
      <trkpt lat="41.1455060" lon="-8.6154910">
        <ele>89.7</ele>
        <time>2021-05-15T17:47:13Z</time>
      </trkpt>
      <trkpt lat="41.1455070" lon="-8.6154920">
        <ele>89.7</ele>
        <time>2021-05-15T17:47:14Z</time>
      </trkpt>
      <trkpt lat="41.1454950" lon="-8.6154840">
        <ele>89.7</ele>
        <time>2021-05-15T17:47:15Z</time>
      </trkpt>
      <trkpt lat="41.1454910" lon="-8.6154850">
        <ele>89.7</ele>
        <time>2021-05-15T17:47:16Z</time>
      </trkpt>
      <trkpt lat="41.1454900" lon="-8.6154850">
        <ele>89.7</ele>
        <time>2021-05-15T17:47:17Z</time>
      </trkpt>
      <trkpt lat="41.1454840" lon="-8.6154840">
        <ele>89.7</ele>
        <time>2021-05-15T17:47:18Z</time>
      </trkpt>
      <trkpt lat="41.1454840" lon="-8.6154750">
        <ele>89.7</ele>
        <time>2021-05-15T17:47:19Z</time>
      </trkpt>
      <trkpt lat="41.1454890" lon="-8.6154780">
        <ele>89.7</ele>
        <time>2021-05-15T17:47:20Z</time>
      </trkpt>
      <trkpt lat="41.1454870" lon="-8.6154720">
        <ele>89.7</ele>
        <time>2021-05-15T17:47:21Z</time>
      </trkpt>
      <trkpt lat="41.1454930" lon="-8.6154740">
        <ele>89.7</ele>
        <time>2021-05-15T17:47:22Z</time>
      </trkpt>
      <trkpt lat="41.1454960" lon="-8.6154750">
        <ele>89.7</ele>
        <time>2021-05-15T17:47:23Z</time>
      </trkpt>
      <trkpt lat="41.1455100" lon="-8.6154810">
        <ele>89.7</ele>
        <time>2021-05-15T17:47:24Z</time>
      </trkpt>
      <trkpt lat="41.1455250" lon="-8.6154900">
        <ele>89.7</ele>
        <time>2021-05-15T17:47:25Z</time>
      </trkpt>
      <trkpt lat="41.1455380" lon="-8.6154990">
        <ele>89.7</ele>
        <time>2021-05-15T17:47:26Z</time>
      </trkpt>
      <trkpt lat="41.1455350" lon="-8.6155280">
        <ele>89.7</ele>
        <time>2021-05-15T17:47:27Z</time>
      </trkpt>
      <trkpt lat="41.1455400" lon="-8.6155380">
        <ele>89.7</ele>
        <time>2021-05-15T17:47:28Z</time>
      </trkpt>
      <trkpt lat="41.1455440" lon="-8.6155550">
        <ele>89.7</ele>
        <time>2021-05-15T17:47:29Z</time>
      </trkpt>
      <trkpt lat="41.1455500" lon="-8.6155720">
        <ele>89.7</ele>
        <time>2021-05-15T17:47:30Z</time>
      </trkpt>
      <trkpt lat="41.1455610" lon="-8.6155750">
        <ele>89.7</ele>
        <time>2021-05-15T17:47:31Z</time>
      </trkpt>
      <trkpt lat="41.1455770" lon="-8.6155930">
        <ele>89.7</ele>
        <time>2021-05-15T17:47:32Z</time>
      </trkpt>
      <trkpt lat="41.1455900" lon="-8.6156020">
        <ele>89.6</ele>
        <time>2021-05-15T17:47:33Z</time>
      </trkpt>
      <trkpt lat="41.1455990" lon="-8.6156190">
        <ele>89.5</ele>
        <time>2021-05-15T17:47:34Z</time>
      </trkpt>
      <trkpt lat="41.1456070" lon="-8.6156270">
        <ele>89.5</ele>
        <time>2021-05-15T17:47:35Z</time>
      </trkpt>
      <trkpt lat="41.1456120" lon="-8.6156420">
        <ele>89.4</ele>
        <time>2021-05-15T17:47:36Z</time>
      </trkpt>
      <trkpt lat="41.1456220" lon="-8.6156530">
        <ele>89.3</ele>
        <time>2021-05-15T17:47:37Z</time>
      </trkpt>
      <trkpt lat="41.1456370" lon="-8.6156620">
        <ele>89.3</ele>
        <time>2021-05-15T17:47:38Z</time>
      </trkpt>
      <trkpt lat="41.1456490" lon="-8.6156760">
        <ele>89.3</ele>
        <time>2021-05-15T17:47:39Z</time>
      </trkpt>
      <trkpt lat="41.1456770" lon="-8.6157030">
        <ele>89.1</ele>
        <time>2021-05-15T17:47:40Z</time>
      </trkpt>
      <trkpt lat="41.1456830" lon="-8.6157090">
        <ele>89.1</ele>
        <time>2021-05-15T17:47:41Z</time>
      </trkpt>
      <trkpt lat="41.1456970" lon="-8.6157180">
        <ele>89.0</ele>
        <time>2021-05-15T17:47:42Z</time>
      </trkpt>
      <trkpt lat="41.1457090" lon="-8.6157270">
        <ele>89.0</ele>
        <time>2021-05-15T17:47:43Z</time>
      </trkpt>
      <trkpt lat="41.1457360" lon="-8.6157530">
        <ele>88.9</ele>
        <time>2021-05-15T17:47:44Z</time>
      </trkpt>
      <trkpt lat="41.1457440" lon="-8.6157620">
        <ele>88.9</ele>
        <time>2021-05-15T17:47:45Z</time>
      </trkpt>
      <trkpt lat="41.1457720" lon="-8.6157960">
        <ele>88.8</ele>
        <time>2021-05-15T17:47:46Z</time>
      </trkpt>
      <trkpt lat="41.1457820" lon="-8.6158080">
        <ele>88.7</ele>
        <time>2021-05-15T17:47:47Z</time>
      </trkpt>
      <trkpt lat="41.1458090" lon="-8.6158360">
        <ele>88.6</ele>
        <time>2021-05-15T17:47:48Z</time>
      </trkpt>
      <trkpt lat="41.1458170" lon="-8.6158450">
        <ele>88.6</ele>
        <time>2021-05-15T17:47:49Z</time>
      </trkpt>
      <trkpt lat="41.1458420" lon="-8.6158680">
        <ele>88.5</ele>
        <time>2021-05-15T17:47:50Z</time>
      </trkpt>
      <trkpt lat="41.1458520" lon="-8.6158790">
        <ele>88.5</ele>
        <time>2021-05-15T17:47:51Z</time>
      </trkpt>
      <trkpt lat="41.1458660" lon="-8.6158880">
        <ele>88.5</ele>
        <time>2021-05-15T17:47:52Z</time>
      </trkpt>
      <trkpt lat="41.1458780" lon="-8.6158990">
        <ele>88.4</ele>
        <time>2021-05-15T17:47:53Z</time>
      </trkpt>
      <trkpt lat="41.1459200" lon="-8.6159070">
        <ele>88.3</ele>
        <time>2021-05-15T17:47:54Z</time>
      </trkpt>
      <trkpt lat="41.1459330" lon="-8.6159300">
        <ele>88.2</ele>
        <time>2021-05-15T17:47:55Z</time>
      </trkpt>
      <trkpt lat="41.1459380" lon="-8.6159420">
        <ele>88.2</ele>
        <time>2021-05-15T17:47:56Z</time>
      </trkpt>
      <trkpt lat="41.1459550" lon="-8.6159570">
        <ele>88.2</ele>
        <time>2021-05-15T17:47:57Z</time>
      </trkpt>
      <trkpt lat="41.1459550" lon="-8.6159750">
        <ele>88.2</ele>
        <time>2021-05-15T17:47:58Z</time>
      </trkpt>
      <trkpt lat="41.1459650" lon="-8.6159960">
        <ele>88.2</ele>
        <time>2021-05-15T17:47:59Z</time>
      </trkpt>
      <trkpt lat="41.1459720" lon="-8.6160140">
        <ele>87.9</ele>
        <time>2021-05-15T17:48:00Z</time>
      </trkpt>
      <trkpt lat="41.1459840" lon="-8.6160430">
        <ele>87.9</ele>
        <time>2021-05-15T17:48:01Z</time>
      </trkpt>
      <trkpt lat="41.1459880" lon="-8.6160550">
        <ele>87.9</ele>
        <time>2021-05-15T17:48:02Z</time>
      </trkpt>
      <trkpt lat="41.1459910" lon="-8.6160660">
        <ele>87.9</ele>
        <time>2021-05-15T17:48:03Z</time>
      </trkpt>
      <trkpt lat="41.1460110" lon="-8.6160770">
        <ele>87.9</ele>
        <time>2021-05-15T17:48:04Z</time>
      </trkpt>
      <trkpt lat="41.1460180" lon="-8.6160810">
        <ele>87.8</ele>
        <time>2021-05-15T17:48:05Z</time>
      </trkpt>
      <trkpt lat="41.1460250" lon="-8.6160860">
        <ele>87.8</ele>
        <time>2021-05-15T17:48:06Z</time>
      </trkpt>
      <trkpt lat="41.1460330" lon="-8.6161050">
        <ele>87.8</ele>
        <time>2021-05-15T17:48:07Z</time>
      </trkpt>
      <trkpt lat="41.1460440" lon="-8.6161220">
        <ele>87.8</ele>
        <time>2021-05-15T17:48:08Z</time>
      </trkpt>
      <trkpt lat="41.1460500" lon="-8.6161510">
        <ele>87.7</ele>
        <time>2021-05-15T17:48:09Z</time>
      </trkpt>
      <trkpt lat="41.1460540" lon="-8.6161600">
        <ele>87.7</ele>
        <time>2021-05-15T17:48:10Z</time>
      </trkpt>
      <trkpt lat="41.1460580" lon="-8.6161680">
        <ele>87.7</ele>
        <time>2021-05-15T17:48:11Z</time>
      </trkpt>
      <trkpt lat="41.1460640" lon="-8.6161740">
        <ele>88.5</ele>
        <time>2021-05-15T17:48:12Z</time>
      </trkpt>
      <trkpt lat="41.1460780" lon="-8.6161820">
        <ele>88.5</ele>
        <time>2021-05-15T17:48:13Z</time>
      </trkpt>
      <trkpt lat="41.1460860" lon="-8.6161960">
        <ele>88.5</ele>
        <time>2021-05-15T17:48:14Z</time>
      </trkpt>
      <trkpt lat="41.1461040" lon="-8.6162100">
        <ele>88.5</ele>
        <time>2021-05-15T17:48:15Z</time>
      </trkpt>
      <trkpt lat="41.1461100" lon="-8.6162180">
        <ele>88.5</ele>
        <time>2021-05-15T17:48:16Z</time>
      </trkpt>
      <trkpt lat="41.1461170" lon="-8.6162250">
        <ele>88.5</ele>
        <time>2021-05-15T17:48:17Z</time>
      </trkpt>
      <trkpt lat="41.1461340" lon="-8.6162370">
        <ele>88.5</ele>
        <time>2021-05-15T17:48:18Z</time>
      </trkpt>
      <trkpt lat="41.1461400" lon="-8.6162410">
        <ele>88.6</ele>
        <time>2021-05-15T17:48:19Z</time>
      </trkpt>
      <trkpt lat="41.1461460" lon="-8.6162460">
        <ele>88.6</ele>
        <time>2021-05-15T17:48:20Z</time>
      </trkpt>
      <trkpt lat="41.1461520" lon="-8.6162510">
        <ele>88.6</ele>
        <time>2021-05-15T17:48:21Z</time>
      </trkpt>
      <trkpt lat="41.1461700" lon="-8.6162620">
        <ele>88.6</ele>
        <time>2021-05-15T17:48:22Z</time>
      </trkpt>
      <trkpt lat="41.1461830" lon="-8.6162590">
        <ele>88.6</ele>
        <time>2021-05-15T17:48:23Z</time>
      </trkpt>
      <trkpt lat="41.1462050" lon="-8.6162670">
        <ele>88.7</ele>
        <time>2021-05-15T17:48:24Z</time>
      </trkpt>
      <trkpt lat="41.1462120" lon="-8.6162710">
        <ele>88.7</ele>
        <time>2021-05-15T17:48:25Z</time>
      </trkpt>
      <trkpt lat="41.1462200" lon="-8.6162750">
        <ele>88.7</ele>
        <time>2021-05-15T17:48:26Z</time>
      </trkpt>
      <trkpt lat="41.1462350" lon="-8.6162770">
        <ele>88.7</ele>
        <time>2021-05-15T17:48:27Z</time>
      </trkpt>
      <trkpt lat="41.1462510" lon="-8.6162740">
        <ele>88.7</ele>
        <time>2021-05-15T17:48:28Z</time>
      </trkpt>
      <trkpt lat="41.1462790" lon="-8.6162570">
        <ele>88.8</ele>
        <time>2021-05-15T17:48:29Z</time>
      </trkpt>
      <trkpt lat="41.1462870" lon="-8.6162550">
        <ele>88.8</ele>
        <time>2021-05-15T17:48:30Z</time>
      </trkpt>
      <trkpt lat="41.1463040" lon="-8.6162480">
        <ele>88.8</ele>
        <time>2021-05-15T17:48:31Z</time>
      </trkpt>
      <trkpt lat="41.1463180" lon="-8.6162490">
        <ele>88.8</ele>
        <time>2021-05-15T17:48:32Z</time>
      </trkpt>
      <trkpt lat="41.1463340" lon="-8.6162510">
        <ele>88.9</ele>
        <time>2021-05-15T17:48:33Z</time>
      </trkpt>
      <trkpt lat="41.1463420" lon="-8.6162590">
        <ele>88.9</ele>
        <time>2021-05-15T17:48:34Z</time>
      </trkpt>
      <trkpt lat="41.1463510" lon="-8.6162520">
        <ele>88.9</ele>
        <time>2021-05-15T17:48:35Z</time>
      </trkpt>
      <trkpt lat="41.1463660" lon="-8.6162510">
        <ele>88.9</ele>
        <time>2021-05-15T17:48:36Z</time>
      </trkpt>
      <trkpt lat="41.1463830" lon="-8.6162480">
        <ele>88.9</ele>
        <time>2021-05-15T17:48:37Z</time>
      </trkpt>
      <trkpt lat="41.1463980" lon="-8.6162470">
        <ele>89.0</ele>
        <time>2021-05-15T17:48:38Z</time>
      </trkpt>
      <trkpt lat="41.1464170" lon="-8.6162410">
        <ele>89.0</ele>
        <time>2021-05-15T17:48:39Z</time>
      </trkpt>
      <trkpt lat="41.1464310" lon="-8.6162360">
        <ele>89.0</ele>
        <time>2021-05-15T17:48:40Z</time>
      </trkpt>
      <trkpt lat="41.1464450" lon="-8.6162320">
        <ele>89.1</ele>
        <time>2021-05-15T17:48:41Z</time>
      </trkpt>
      <trkpt lat="41.1464610" lon="-8.6162250">
        <ele>89.1</ele>
        <time>2021-05-15T17:48:42Z</time>
      </trkpt>
      <trkpt lat="41.1464730" lon="-8.6162220">
        <ele>89.1</ele>
        <time>2021-05-15T17:48:43Z</time>
      </trkpt>
      <trkpt lat="41.1464840" lon="-8.6162200">
        <ele>89.2</ele>
        <time>2021-05-15T17:48:44Z</time>
      </trkpt>
      <trkpt lat="41.1464910" lon="-8.6162210">
        <ele>89.2</ele>
        <time>2021-05-15T17:48:45Z</time>
      </trkpt>
      <trkpt lat="41.1465000" lon="-8.6162230">
        <ele>89.2</ele>
        <time>2021-05-15T17:48:46Z</time>
      </trkpt>
      <trkpt lat="41.1465190" lon="-8.6162100">
        <ele>89.2</ele>
        <time>2021-05-15T17:48:47Z</time>
      </trkpt>
      <trkpt lat="41.1465300" lon="-8.6162080">
        <ele>89.3</ele>
        <time>2021-05-15T17:48:48Z</time>
      </trkpt>
      <trkpt lat="41.1465400" lon="-8.6162100">
        <ele>89.3</ele>
        <time>2021-05-15T17:48:49Z</time>
      </trkpt>
      <trkpt lat="41.1465530" lon="-8.6162050">
        <ele>89.3</ele>
        <time>2021-05-15T17:48:50Z</time>
      </trkpt>
      <trkpt lat="41.1465610" lon="-8.6162060">
        <ele>89.3</ele>
        <time>2021-05-15T17:48:51Z</time>
      </trkpt>
      <trkpt lat="41.1465770" lon="-8.6162040">
        <ele>89.4</ele>
        <time>2021-05-15T17:48:52Z</time>
      </trkpt>
      <trkpt lat="41.1465920" lon="-8.6162030">
        <ele>89.4</ele>
        <time>2021-05-15T17:48:53Z</time>
      </trkpt>
      <trkpt lat="41.1466210" lon="-8.6161920">
        <ele>89.5</ele>
        <time>2021-05-15T17:48:54Z</time>
      </trkpt>
      <trkpt lat="41.1466280" lon="-8.6161900">
        <ele>89.5</ele>
        <time>2021-05-15T17:48:55Z</time>
      </trkpt>
      <trkpt lat="41.1466340" lon="-8.6161910">
        <ele>89.5</ele>
        <time>2021-05-15T17:48:56Z</time>
      </trkpt>
      <trkpt lat="41.1466390" lon="-8.6161890">
        <ele>89.5</ele>
        <time>2021-05-15T17:48:57Z</time>
      </trkpt>
      <trkpt lat="41.1466530" lon="-8.6161910">
        <ele>89.5</ele>
        <time>2021-05-15T17:48:58Z</time>
      </trkpt>
      <trkpt lat="41.1466630" lon="-8.6161910">
        <ele>89.6</ele>
        <time>2021-05-15T17:48:59Z</time>
      </trkpt>
      <trkpt lat="41.1466940" lon="-8.6161820">
        <ele>89.6</ele>
        <time>2021-05-15T17:49:00Z</time>
      </trkpt>
      <trkpt lat="41.1467040" lon="-8.6161840">
        <ele>89.7</ele>
        <time>2021-05-15T17:49:01Z</time>
      </trkpt>
      <trkpt lat="41.1467200" lon="-8.6161770">
        <ele>89.7</ele>
        <time>2021-05-15T17:49:02Z</time>
      </trkpt>
      <trkpt lat="41.1467350" lon="-8.6161890">
        <ele>89.7</ele>
        <time>2021-05-15T17:49:03Z</time>
      </trkpt>
      <trkpt lat="41.1467670" lon="-8.6161880">
        <ele>89.8</ele>
        <time>2021-05-15T17:49:04Z</time>
      </trkpt>
      <trkpt lat="41.1467730" lon="-8.6161890">
        <ele>89.8</ele>
        <time>2021-05-15T17:49:05Z</time>
      </trkpt>
      <trkpt lat="41.1467870" lon="-8.6161910">
        <ele>89.8</ele>
        <time>2021-05-15T17:49:06Z</time>
      </trkpt>
      <trkpt lat="41.1468050" lon="-8.6161900">
        <ele>89.9</ele>
        <time>2021-05-15T17:49:07Z</time>
      </trkpt>
      <trkpt lat="41.1468230" lon="-8.6161920">
        <ele>89.9</ele>
        <time>2021-05-15T17:49:08Z</time>
      </trkpt>
      <trkpt lat="41.1468400" lon="-8.6161890">
        <ele>90.0</ele>
        <time>2021-05-15T17:49:09Z</time>
      </trkpt>
      <trkpt lat="41.1468700" lon="-8.6161890">
        <ele>90.0</ele>
        <time>2021-05-15T17:49:10Z</time>
      </trkpt>
      <trkpt lat="41.1468820" lon="-8.6161900">
        <ele>90.0</ele>
        <time>2021-05-15T17:49:11Z</time>
      </trkpt>
      <trkpt lat="41.1469080" lon="-8.6161790">
        <ele>90.1</ele>
        <time>2021-05-15T17:49:12Z</time>
      </trkpt>
      <trkpt lat="41.1469210" lon="-8.6161680">
        <ele>90.1</ele>
        <time>2021-05-15T17:49:13Z</time>
      </trkpt>
      <trkpt lat="41.1469380" lon="-8.6161580">
        <ele>90.2</ele>
        <time>2021-05-15T17:49:14Z</time>
      </trkpt>
      <trkpt lat="41.1469680" lon="-8.6161420">
        <ele>90.2</ele>
        <time>2021-05-15T17:49:15Z</time>
      </trkpt>
      <trkpt lat="41.1469830" lon="-8.6161370">
        <ele>90.3</ele>
        <time>2021-05-15T17:49:16Z</time>
      </trkpt>
      <trkpt lat="41.1469970" lon="-8.6161320">
        <ele>90.3</ele>
        <time>2021-05-15T17:49:17Z</time>
      </trkpt>
      <trkpt lat="41.1470130" lon="-8.6161230">
        <ele>90.3</ele>
        <time>2021-05-15T17:49:18Z</time>
      </trkpt>
      <trkpt lat="41.1470430" lon="-8.6161140">
        <ele>90.4</ele>
        <time>2021-05-15T17:49:19Z</time>
      </trkpt>
      <trkpt lat="41.1470510" lon="-8.6161130">
        <ele>90.4</ele>
        <time>2021-05-15T17:49:20Z</time>
      </trkpt>
      <trkpt lat="41.1470680" lon="-8.6161110">
        <ele>90.4</ele>
        <time>2021-05-15T17:49:21Z</time>
      </trkpt>
      <trkpt lat="41.1470790" lon="-8.6161110">
        <ele>90.4</ele>
        <time>2021-05-15T17:49:22Z</time>
      </trkpt>
      <trkpt lat="41.1470970" lon="-8.6161000">
        <ele>90.5</ele>
        <time>2021-05-15T17:49:23Z</time>
      </trkpt>
      <trkpt lat="41.1471050" lon="-8.6160900">
        <ele>90.5</ele>
        <time>2021-05-15T17:49:24Z</time>
      </trkpt>
      <trkpt lat="41.1471190" lon="-8.6160860">
        <ele>90.5</ele>
        <time>2021-05-15T17:49:25Z</time>
      </trkpt>
      <trkpt lat="41.1471320" lon="-8.6160850">
        <ele>90.6</ele>
        <time>2021-05-15T17:49:26Z</time>
      </trkpt>
      <trkpt lat="41.1471470" lon="-8.6160790">
        <ele>90.6</ele>
        <time>2021-05-15T17:49:27Z</time>
      </trkpt>
      <trkpt lat="41.1471630" lon="-8.6160760">
        <ele>90.7</ele>
        <time>2021-05-15T17:49:28Z</time>
      </trkpt>
      <trkpt lat="41.1471780" lon="-8.6160730">
        <ele>90.7</ele>
        <time>2021-05-15T17:49:29Z</time>
      </trkpt>
      <trkpt lat="41.1471890" lon="-8.6160660">
        <ele>90.7</ele>
        <time>2021-05-15T17:49:30Z</time>
      </trkpt>
      <trkpt lat="41.1472000" lon="-8.6160600">
        <ele>90.8</ele>
        <time>2021-05-15T17:49:31Z</time>
      </trkpt>
      <trkpt lat="41.1472150" lon="-8.6160450">
        <ele>90.8</ele>
        <time>2021-05-15T17:49:32Z</time>
      </trkpt>
      <trkpt lat="41.1472250" lon="-8.6160360">
        <ele>90.9</ele>
        <time>2021-05-15T17:49:33Z</time>
      </trkpt>
      <trkpt lat="41.1472340" lon="-8.6160280">
        <ele>90.9</ele>
        <time>2021-05-15T17:49:34Z</time>
      </trkpt>
      <trkpt lat="41.1472420" lon="-8.6160160">
        <ele>90.9</ele>
        <time>2021-05-15T17:49:35Z</time>
      </trkpt>
      <trkpt lat="41.1472550" lon="-8.6160030">
        <ele>91.0</ele>
        <time>2021-05-15T17:49:36Z</time>
      </trkpt>
      <trkpt lat="41.1472610" lon="-8.6159970">
        <ele>91.0</ele>
        <time>2021-05-15T17:49:37Z</time>
      </trkpt>
      <trkpt lat="41.1472670" lon="-8.6159940">
        <ele>91.1</ele>
        <time>2021-05-15T17:49:38Z</time>
      </trkpt>
      <trkpt lat="41.1472750" lon="-8.6159920">
        <ele>91.1</ele>
        <time>2021-05-15T17:49:39Z</time>
      </trkpt>
      <trkpt lat="41.1472890" lon="-8.6159970">
        <ele>91.1</ele>
        <time>2021-05-15T17:49:40Z</time>
      </trkpt>
      <trkpt lat="41.1472980" lon="-8.6160000">
        <ele>91.2</ele>
        <time>2021-05-15T17:49:41Z</time>
      </trkpt>
      <trkpt lat="41.1473110" lon="-8.6159980">
        <ele>91.2</ele>
        <time>2021-05-15T17:49:42Z</time>
      </trkpt>
      <trkpt lat="41.1473200" lon="-8.6159910">
        <ele>91.2</ele>
        <time>2021-05-15T17:49:43Z</time>
      </trkpt>
      <trkpt lat="41.1473240" lon="-8.6159950">
        <ele>91.2</ele>
        <time>2021-05-15T17:49:44Z</time>
      </trkpt>
      <trkpt lat="41.1473340" lon="-8.6159950">
        <ele>91.2</ele>
        <time>2021-05-15T17:49:45Z</time>
      </trkpt>
      <trkpt lat="41.1473400" lon="-8.6160000">
        <ele>91.2</ele>
        <time>2021-05-15T17:49:46Z</time>
      </trkpt>
      <trkpt lat="41.1473430" lon="-8.6160020">
        <ele>91.2</ele>
        <time>2021-05-15T17:49:47Z</time>
      </trkpt>
      <trkpt lat="41.1473490" lon="-8.6160050">
        <ele>91.2</ele>
        <time>2021-05-15T17:49:48Z</time>
      </trkpt>
      <trkpt lat="41.1473540" lon="-8.6160140">
        <ele>91.2</ele>
        <time>2021-05-15T17:49:49Z</time>
      </trkpt>
      <trkpt lat="41.1473610" lon="-8.6160220">
        <ele>91.2</ele>
        <time>2021-05-15T17:49:50Z</time>
      </trkpt>
      <trkpt lat="41.1473640" lon="-8.6160270">
        <ele>91.3</ele>
        <time>2021-05-15T17:49:51Z</time>
      </trkpt>
      <trkpt lat="41.1473700" lon="-8.6160330">
        <ele>91.3</ele>
        <time>2021-05-15T17:49:52Z</time>
      </trkpt>
      <trkpt lat="41.1473850" lon="-8.6160410">
        <ele>91.3</ele>
        <time>2021-05-15T17:49:53Z</time>
      </trkpt>
      <trkpt lat="41.1474030" lon="-8.6160500">
        <ele>91.3</ele>
        <time>2021-05-15T17:49:54Z</time>
      </trkpt>
      <trkpt lat="41.1474190" lon="-8.6160530">
        <ele>91.3</ele>
        <time>2021-05-15T17:49:55Z</time>
      </trkpt>
      <trkpt lat="41.1474370" lon="-8.6160580">
        <ele>91.3</ele>
        <time>2021-05-15T17:49:56Z</time>
      </trkpt>
      <trkpt lat="41.1474530" lon="-8.6160670">
        <ele>91.3</ele>
        <time>2021-05-15T17:49:57Z</time>
      </trkpt>
      <trkpt lat="41.1474610" lon="-8.6160820">
        <ele>91.3</ele>
        <time>2021-05-15T17:49:58Z</time>
      </trkpt>
      <trkpt lat="41.1474760" lon="-8.6160850">
        <ele>91.3</ele>
        <time>2021-05-15T17:49:59Z</time>
      </trkpt>
      <trkpt lat="41.1474950" lon="-8.6160960">
        <ele>91.3</ele>
        <time>2021-05-15T17:50:01Z</time>
      </trkpt>
      <trkpt lat="41.1475110" lon="-8.6160990">
        <ele>91.3</ele>
        <time>2021-05-15T17:50:02Z</time>
      </trkpt>
      <trkpt lat="41.1475230" lon="-8.6161060">
        <ele>91.3</ele>
        <time>2021-05-15T17:50:03Z</time>
      </trkpt>
      <trkpt lat="41.1475310" lon="-8.6161110">
        <ele>91.3</ele>
        <time>2021-05-15T17:50:04Z</time>
      </trkpt>
      <trkpt lat="41.1475390" lon="-8.6161100">
        <ele>91.3</ele>
        <time>2021-05-15T17:50:05Z</time>
      </trkpt>
      <trkpt lat="41.1475440" lon="-8.6161150">
        <ele>91.3</ele>
        <time>2021-05-15T17:50:06Z</time>
      </trkpt>
      <trkpt lat="41.1475540" lon="-8.6161240">
        <ele>91.3</ele>
        <time>2021-05-15T17:50:07Z</time>
      </trkpt>
      <trkpt lat="41.1475650" lon="-8.6161270">
        <ele>91.3</ele>
        <time>2021-05-15T17:50:08Z</time>
      </trkpt>
      <trkpt lat="41.1475830" lon="-8.6161260">
        <ele>91.3</ele>
        <time>2021-05-15T17:50:09Z</time>
      </trkpt>
      <trkpt lat="41.1476030" lon="-8.6161320">
        <ele>91.3</ele>
        <time>2021-05-15T17:50:10Z</time>
      </trkpt>
      <trkpt lat="41.1476120" lon="-8.6161360">
        <ele>91.3</ele>
        <time>2021-05-15T17:50:11Z</time>
      </trkpt>
      <trkpt lat="41.1476220" lon="-8.6161410">
        <ele>91.3</ele>
        <time>2021-05-15T17:50:12Z</time>
      </trkpt>
      <trkpt lat="41.1476410" lon="-8.6161440">
        <ele>91.3</ele>
        <time>2021-05-15T17:50:13Z</time>
      </trkpt>
      <trkpt lat="41.1476530" lon="-8.6161420">
        <ele>91.3</ele>
        <time>2021-05-15T17:50:14Z</time>
      </trkpt>
      <trkpt lat="41.1476810" lon="-8.6161430">
        <ele>91.3</ele>
        <time>2021-05-15T17:50:15Z</time>
      </trkpt>
      <trkpt lat="41.1476880" lon="-8.6161430">
        <ele>91.3</ele>
        <time>2021-05-15T17:50:16Z</time>
      </trkpt>
      <trkpt lat="41.1476960" lon="-8.6161440">
        <ele>91.3</ele>
        <time>2021-05-15T17:50:17Z</time>
      </trkpt>
      <trkpt lat="41.1477060" lon="-8.6161420">
        <ele>91.3</ele>
        <time>2021-05-15T17:50:18Z</time>
      </trkpt>
      <trkpt lat="41.1477270" lon="-8.6161400">
        <ele>91.3</ele>
        <time>2021-05-15T17:50:19Z</time>
      </trkpt>
      <trkpt lat="41.1477350" lon="-8.6161330">
        <ele>91.3</ele>
        <time>2021-05-15T17:50:20Z</time>
      </trkpt>
      <trkpt lat="41.1477500" lon="-8.6161250">
        <ele>91.3</ele>
        <time>2021-05-15T17:50:21Z</time>
      </trkpt>
      <trkpt lat="41.1477540" lon="-8.6161260">
        <ele>91.3</ele>
        <time>2021-05-15T17:50:22Z</time>
      </trkpt>
      <trkpt lat="41.1477610" lon="-8.6161300">
        <ele>91.3</ele>
        <time>2021-05-15T17:50:23Z</time>
      </trkpt>
      <trkpt lat="41.1477710" lon="-8.6161400">
        <ele>91.3</ele>
        <time>2021-05-15T17:50:24Z</time>
      </trkpt>
      <trkpt lat="41.1477820" lon="-8.6161440">
        <ele>91.3</ele>
        <time>2021-05-15T17:50:25Z</time>
      </trkpt>
      <trkpt lat="41.1477990" lon="-8.6161410">
        <ele>91.3</ele>
        <time>2021-05-15T17:50:26Z</time>
      </trkpt>
      <trkpt lat="41.1478100" lon="-8.6161360">
        <ele>91.4</ele>
        <time>2021-05-15T17:50:27Z</time>
      </trkpt>
      <trkpt lat="41.1478300" lon="-8.6161240">
        <ele>91.4</ele>
        <time>2021-05-15T17:50:28Z</time>
      </trkpt>
      <trkpt lat="41.1478350" lon="-8.6161200">
        <ele>91.4</ele>
        <time>2021-05-15T17:50:29Z</time>
      </trkpt>
      <trkpt lat="41.1478390" lon="-8.6161160">
        <ele>91.4</ele>
        <time>2021-05-15T17:50:30Z</time>
      </trkpt>
      <trkpt lat="41.1478430" lon="-8.6161120">
        <ele>91.4</ele>
        <time>2021-05-15T17:50:31Z</time>
      </trkpt>
      <trkpt lat="41.1478740" lon="-8.6161070">
        <ele>91.4</ele>
        <time>2021-05-15T17:50:32Z</time>
      </trkpt>
      <trkpt lat="41.1478790" lon="-8.6161020">
        <ele>91.4</ele>
        <time>2021-05-15T17:50:33Z</time>
      </trkpt>
      <trkpt lat="41.1478910" lon="-8.6160930">
        <ele>91.4</ele>
        <time>2021-05-15T17:50:34Z</time>
      </trkpt>
      <trkpt lat="41.1479060" lon="-8.6160880">
        <ele>91.4</ele>
        <time>2021-05-15T17:50:35Z</time>
      </trkpt>
      <trkpt lat="41.1479210" lon="-8.6160690">
        <ele>91.4</ele>
        <time>2021-05-15T17:50:36Z</time>
      </trkpt>
      <trkpt lat="41.1479350" lon="-8.6160720">
        <ele>91.4</ele>
        <time>2021-05-15T17:50:37Z</time>
      </trkpt>
      <trkpt lat="41.1479440" lon="-8.6160670">
        <ele>91.4</ele>
        <time>2021-05-15T17:50:38Z</time>
      </trkpt>
      <trkpt lat="41.1479560" lon="-8.6160620">
        <ele>91.4</ele>
        <time>2021-05-15T17:50:39Z</time>
      </trkpt>
      <trkpt lat="41.1479630" lon="-8.6160550">
        <ele>91.5</ele>
        <time>2021-05-15T17:50:40Z</time>
      </trkpt>
      <trkpt lat="41.1479800" lon="-8.6160370">
        <ele>91.5</ele>
        <time>2021-05-15T17:50:41Z</time>
      </trkpt>
      <trkpt lat="41.1479890" lon="-8.6160370">
        <ele>91.5</ele>
        <time>2021-05-15T17:50:42Z</time>
      </trkpt>
      <trkpt lat="41.1479980" lon="-8.6160380">
        <ele>91.5</ele>
        <time>2021-05-15T17:50:43Z</time>
      </trkpt>
      <trkpt lat="41.1480060" lon="-8.6160260">
        <ele>91.5</ele>
        <time>2021-05-15T17:50:44Z</time>
      </trkpt>
      <trkpt lat="41.1480100" lon="-8.6160180">
        <ele>91.5</ele>
        <time>2021-05-15T17:50:45Z</time>
      </trkpt>
      <trkpt lat="41.1480200" lon="-8.6160060">
        <ele>91.5</ele>
        <time>2021-05-15T17:50:46Z</time>
      </trkpt>
      <trkpt lat="41.1480380" lon="-8.6159840">
        <ele>91.5</ele>
        <time>2021-05-15T17:50:47Z</time>
      </trkpt>
      <trkpt lat="41.1480450" lon="-8.6159830">
        <ele>91.5</ele>
        <time>2021-05-15T17:50:48Z</time>
      </trkpt>
      <trkpt lat="41.1480530" lon="-8.6159810">
        <ele>91.5</ele>
        <time>2021-05-15T17:50:49Z</time>
      </trkpt>
      <trkpt lat="41.1480670" lon="-8.6159840">
        <ele>91.6</ele>
        <time>2021-05-15T17:50:50Z</time>
      </trkpt>
      <trkpt lat="41.1480800" lon="-8.6159820">
        <ele>91.6</ele>
        <time>2021-05-15T17:50:51Z</time>
      </trkpt>
      <trkpt lat="41.1480930" lon="-8.6159820">
        <ele>91.6</ele>
        <time>2021-05-15T17:50:52Z</time>
      </trkpt>
      <trkpt lat="41.1481080" lon="-8.6159800">
        <ele>91.6</ele>
        <time>2021-05-15T17:50:53Z</time>
      </trkpt>
      <trkpt lat="41.1481170" lon="-8.6159930">
        <ele>91.6</ele>
        <time>2021-05-15T17:50:54Z</time>
      </trkpt>
      <trkpt lat="41.1481310" lon="-8.6159880">
        <ele>91.6</ele>
        <time>2021-05-15T17:50:55Z</time>
      </trkpt>
      <trkpt lat="41.1481390" lon="-8.6160000">
        <ele>91.6</ele>
        <time>2021-05-15T17:50:56Z</time>
      </trkpt>
      <trkpt lat="41.1481500" lon="-8.6159960">
        <ele>91.6</ele>
        <time>2021-05-15T17:50:57Z</time>
      </trkpt>
      <trkpt lat="41.1481740" lon="-8.6160010">
        <ele>91.6</ele>
        <time>2021-05-15T17:50:58Z</time>
      </trkpt>
      <trkpt lat="41.1482040" lon="-8.6160100">
        <ele>91.7</ele>
        <time>2021-05-15T17:50:59Z</time>
      </trkpt>
      <trkpt lat="41.1482140" lon="-8.6160160">
        <ele>91.7</ele>
        <time>2021-05-15T17:51:00Z</time>
      </trkpt>
      <trkpt lat="41.1482280" lon="-8.6160270">
        <ele>91.7</ele>
        <time>2021-05-15T17:51:01Z</time>
      </trkpt>
      <trkpt lat="41.1482420" lon="-8.6160240">
        <ele>91.7</ele>
        <time>2021-05-15T17:51:02Z</time>
      </trkpt>
      <trkpt lat="41.1482640" lon="-8.6159870">
        <ele>91.7</ele>
        <time>2021-05-15T17:51:03Z</time>
      </trkpt>
      <trkpt lat="41.1482730" lon="-8.6159750">
        <ele>91.7</ele>
        <time>2021-05-15T17:51:04Z</time>
      </trkpt>
      <trkpt lat="41.1482990" lon="-8.6159540">
        <ele>91.8</ele>
        <time>2021-05-15T17:51:05Z</time>
      </trkpt>
      <trkpt lat="41.1483070" lon="-8.6159450">
        <ele>91.8</ele>
        <time>2021-05-15T17:51:06Z</time>
      </trkpt>
      <trkpt lat="41.1483220" lon="-8.6159550">
        <ele>91.8</ele>
        <time>2021-05-15T17:51:07Z</time>
      </trkpt>
      <trkpt lat="41.1483280" lon="-8.6159490">
        <ele>91.8</ele>
        <time>2021-05-15T17:51:08Z</time>
      </trkpt>
      <trkpt lat="41.1483380" lon="-8.6159420">
        <ele>91.9</ele>
        <time>2021-05-15T17:51:09Z</time>
      </trkpt>
      <trkpt lat="41.1483650" lon="-8.6159370">
        <ele>91.9</ele>
        <time>2021-05-15T17:51:10Z</time>
      </trkpt>
      <trkpt lat="41.1483750" lon="-8.6159380">
        <ele>91.9</ele>
        <time>2021-05-15T17:51:11Z</time>
      </trkpt>
      <trkpt lat="41.1483850" lon="-8.6159400">
        <ele>91.9</ele>
        <time>2021-05-15T17:51:12Z</time>
      </trkpt>
      <trkpt lat="41.1483910" lon="-8.6159390">
        <ele>91.9</ele>
        <time>2021-05-15T17:51:13Z</time>
      </trkpt>
      <trkpt lat="41.1484010" lon="-8.6159430">
        <ele>91.9</ele>
        <time>2021-05-15T17:51:14Z</time>
      </trkpt>
      <trkpt lat="41.1484180" lon="-8.6159380">
        <ele>92.0</ele>
        <time>2021-05-15T17:51:15Z</time>
      </trkpt>
      <trkpt lat="41.1484340" lon="-8.6159480">
        <ele>92.0</ele>
        <time>2021-05-15T17:51:16Z</time>
      </trkpt>
      <trkpt lat="41.1484450" lon="-8.6159610">
        <ele>92.0</ele>
        <time>2021-05-15T17:51:17Z</time>
      </trkpt>
      <trkpt lat="41.1484610" lon="-8.6159750">
        <ele>92.1</ele>
        <time>2021-05-15T17:51:18Z</time>
      </trkpt>
      <trkpt lat="41.1484780" lon="-8.6159770">
        <ele>92.1</ele>
        <time>2021-05-15T17:51:19Z</time>
      </trkpt>
      <trkpt lat="41.1484960" lon="-8.6159910">
        <ele>92.1</ele>
        <time>2021-05-15T17:51:20Z</time>
      </trkpt>
      <trkpt lat="41.1485030" lon="-8.6159960">
        <ele>92.1</ele>
        <time>2021-05-15T17:51:21Z</time>
      </trkpt>
      <trkpt lat="41.1485110" lon="-8.6160010">
        <ele>92.2</ele>
        <time>2021-05-15T17:51:22Z</time>
      </trkpt>
      <trkpt lat="41.1485190" lon="-8.6160160">
        <ele>92.2</ele>
        <time>2021-05-15T17:51:23Z</time>
      </trkpt>
      <trkpt lat="41.1485300" lon="-8.6160350">
        <ele>92.2</ele>
        <time>2021-05-15T17:51:24Z</time>
      </trkpt>
      <trkpt lat="41.1485550" lon="-8.6160400">
        <ele>92.3</ele>
        <time>2021-05-15T17:51:25Z</time>
      </trkpt>
      <trkpt lat="41.1485640" lon="-8.6160440">
        <ele>92.3</ele>
        <time>2021-05-15T17:51:26Z</time>
      </trkpt>
      <trkpt lat="41.1485720" lon="-8.6160490">
        <ele>92.3</ele>
        <time>2021-05-15T17:51:27Z</time>
      </trkpt>
      <trkpt lat="41.1486070" lon="-8.6160710">
        <ele>92.4</ele>
        <time>2021-05-15T17:51:28Z</time>
      </trkpt>
      <trkpt lat="41.1486200" lon="-8.6160780">
        <ele>92.4</ele>
        <time>2021-05-15T17:51:29Z</time>
      </trkpt>
      <trkpt lat="41.1486470" lon="-8.6160930">
        <ele>92.5</ele>
        <time>2021-05-15T17:51:30Z</time>
      </trkpt>
      <trkpt lat="41.1486520" lon="-8.6160960">
        <ele>92.5</ele>
        <time>2021-05-15T17:51:31Z</time>
      </trkpt>
      <trkpt lat="41.1486560" lon="-8.6160990">
        <ele>92.5</ele>
        <time>2021-05-15T17:51:32Z</time>
      </trkpt>
      <trkpt lat="41.1486750" lon="-8.6161120">
        <ele>92.5</ele>
        <time>2021-05-15T17:51:33Z</time>
      </trkpt>
      <trkpt lat="41.1486910" lon="-8.6161120">
        <ele>92.6</ele>
        <time>2021-05-15T17:51:34Z</time>
      </trkpt>
      <trkpt lat="41.1487020" lon="-8.6161210">
        <ele>92.6</ele>
        <time>2021-05-15T17:51:35Z</time>
      </trkpt>
      <trkpt lat="41.1487240" lon="-8.6161240">
        <ele>92.6</ele>
        <time>2021-05-15T17:51:36Z</time>
      </trkpt>
      <trkpt lat="41.1487500" lon="-8.6161370">
        <ele>92.7</ele>
        <time>2021-05-15T17:51:37Z</time>
      </trkpt>
      <trkpt lat="41.1487610" lon="-8.6161450">
        <ele>92.7</ele>
        <time>2021-05-15T17:51:38Z</time>
      </trkpt>
      <trkpt lat="41.1487710" lon="-8.6161540">
        <ele>92.7</ele>
        <time>2021-05-15T17:51:39Z</time>
      </trkpt>
      <trkpt lat="41.1487810" lon="-8.6161720">
        <ele>92.7</ele>
        <time>2021-05-15T17:51:40Z</time>
      </trkpt>
      <trkpt lat="41.1487950" lon="-8.6161740">
        <ele>92.8</ele>
        <time>2021-05-15T17:51:41Z</time>
      </trkpt>
      <trkpt lat="41.1488100" lon="-8.6161880">
        <ele>92.8</ele>
        <time>2021-05-15T17:51:42Z</time>
      </trkpt>
      <trkpt lat="41.1488200" lon="-8.6161950">
        <ele>92.8</ele>
        <time>2021-05-15T17:51:43Z</time>
      </trkpt>
      <trkpt lat="41.1488300" lon="-8.6162020">
        <ele>92.8</ele>
        <time>2021-05-15T17:51:44Z</time>
      </trkpt>
      <trkpt lat="41.1488380" lon="-8.6162210">
        <ele>92.8</ele>
        <time>2021-05-15T17:51:45Z</time>
      </trkpt>
      <trkpt lat="41.1488520" lon="-8.6162270">
        <ele>92.8</ele>
        <time>2021-05-15T17:51:46Z</time>
      </trkpt>
      <trkpt lat="41.1488590" lon="-8.6162370">
        <ele>92.9</ele>
        <time>2021-05-15T17:51:47Z</time>
      </trkpt>
      <trkpt lat="41.1488670" lon="-8.6162460">
        <ele>92.9</ele>
        <time>2021-05-15T17:51:48Z</time>
      </trkpt>
      <trkpt lat="41.1488770" lon="-8.6162560">
        <ele>92.9</ele>
        <time>2021-05-15T17:51:49Z</time>
      </trkpt>
      <trkpt lat="41.1488840" lon="-8.6162640">
        <ele>92.9</ele>
        <time>2021-05-15T17:51:50Z</time>
      </trkpt>
      <trkpt lat="41.1489010" lon="-8.6162650">
        <ele>92.9</ele>
        <time>2021-05-15T17:51:51Z</time>
      </trkpt>
      <trkpt lat="41.1489110" lon="-8.6162680">
        <ele>92.9</ele>
        <time>2021-05-15T17:51:52Z</time>
      </trkpt>
      <trkpt lat="41.1489340" lon="-8.6162770">
        <ele>92.9</ele>
        <time>2021-05-15T17:51:53Z</time>
      </trkpt>
      <trkpt lat="41.1489420" lon="-8.6162850">
        <ele>93.0</ele>
        <time>2021-05-15T17:51:54Z</time>
      </trkpt>
      <trkpt lat="41.1489500" lon="-8.6162930">
        <ele>93.0</ele>
        <time>2021-05-15T17:51:55Z</time>
      </trkpt>
      <trkpt lat="41.1489660" lon="-8.6163110">
        <ele>93.0</ele>
        <time>2021-05-15T17:51:56Z</time>
      </trkpt>
      <trkpt lat="41.1489750" lon="-8.6163190">
        <ele>93.0</ele>
        <time>2021-05-15T17:51:57Z</time>
      </trkpt>
      <trkpt lat="41.1489830" lon="-8.6163270">
        <ele>93.0</ele>
        <time>2021-05-15T17:51:58Z</time>
      </trkpt>
      <trkpt lat="41.1490000" lon="-8.6163430">
        <ele>93.0</ele>
        <time>2021-05-15T17:51:59Z</time>
      </trkpt>
      <trkpt lat="41.1490050" lon="-8.6163510">
        <ele>93.0</ele>
        <time>2021-05-15T17:52:00Z</time>
      </trkpt>
      <trkpt lat="41.1490110" lon="-8.6163600">
        <ele>93.0</ele>
        <time>2021-05-15T17:52:01Z</time>
      </trkpt>
      <trkpt lat="41.1490220" lon="-8.6163680">
        <ele>93.0</ele>
        <time>2021-05-15T17:52:02Z</time>
      </trkpt>
      <trkpt lat="41.1490360" lon="-8.6163750">
        <ele>93.0</ele>
        <time>2021-05-15T17:52:03Z</time>
      </trkpt>
      <trkpt lat="41.1490590" lon="-8.6163810">
        <ele>93.0</ele>
        <time>2021-05-15T17:52:04Z</time>
      </trkpt>
      <trkpt lat="41.1490680" lon="-8.6163860">
        <ele>93.1</ele>
        <time>2021-05-15T17:52:05Z</time>
      </trkpt>
      <trkpt lat="41.1490780" lon="-8.6163900">
        <ele>93.1</ele>
        <time>2021-05-15T17:52:06Z</time>
      </trkpt>
      <trkpt lat="41.1490920" lon="-8.6163880">
        <ele>93.1</ele>
        <time>2021-05-15T17:52:07Z</time>
      </trkpt>
      <trkpt lat="41.1491050" lon="-8.6163940">
        <ele>93.1</ele>
        <time>2021-05-15T17:52:08Z</time>
      </trkpt>
      <trkpt lat="41.1491260" lon="-8.6163990">
        <ele>93.1</ele>
        <time>2021-05-15T17:52:09Z</time>
      </trkpt>
      <trkpt lat="41.1491360" lon="-8.6164010">
        <ele>93.1</ele>
        <time>2021-05-15T17:52:10Z</time>
      </trkpt>
      <trkpt lat="41.1491460" lon="-8.6164020">
        <ele>93.1</ele>
        <time>2021-05-15T17:52:11Z</time>
      </trkpt>
      <trkpt lat="41.1491530" lon="-8.6163990">
        <ele>93.1</ele>
        <time>2021-05-15T17:52:12Z</time>
      </trkpt>
      <trkpt lat="41.1491670" lon="-8.6164000">
        <ele>93.1</ele>
        <time>2021-05-15T17:52:13Z</time>
      </trkpt>
      <trkpt lat="41.1491810" lon="-8.6164110">
        <ele>93.1</ele>
        <time>2021-05-15T17:52:14Z</time>
      </trkpt>
      <trkpt lat="41.1491870" lon="-8.6164190">
        <ele>93.1</ele>
        <time>2021-05-15T17:52:15Z</time>
      </trkpt>
      <trkpt lat="41.1491960" lon="-8.6164250">
        <ele>93.1</ele>
        <time>2021-05-15T17:52:16Z</time>
      </trkpt>
      <trkpt lat="41.1492100" lon="-8.6164300">
        <ele>93.1</ele>
        <time>2021-05-15T17:52:17Z</time>
      </trkpt>
      <trkpt lat="41.1492260" lon="-8.6164450">
        <ele>93.1</ele>
        <time>2021-05-15T17:52:18Z</time>
      </trkpt>
      <trkpt lat="41.1492430" lon="-8.6164470">
        <ele>93.1</ele>
        <time>2021-05-15T17:52:19Z</time>
      </trkpt>
      <trkpt lat="41.1492510" lon="-8.6164420">
        <ele>93.1</ele>
        <time>2021-05-15T17:52:20Z</time>
      </trkpt>
      <trkpt lat="41.1492720" lon="-8.6164330">
        <ele>93.1</ele>
        <time>2021-05-15T17:52:21Z</time>
      </trkpt>
      <trkpt lat="41.1493020" lon="-8.6164350">
        <ele>93.1</ele>
        <time>2021-05-15T17:52:22Z</time>
      </trkpt>
      <trkpt lat="41.1493110" lon="-8.6164360">
        <ele>93.1</ele>
        <time>2021-05-15T17:52:23Z</time>
      </trkpt>
      <trkpt lat="41.1493170" lon="-8.6164390">
        <ele>93.1</ele>
        <time>2021-05-15T17:52:24Z</time>
      </trkpt>
      <trkpt lat="41.1493230" lon="-8.6164430">
        <ele>93.1</ele>
        <time>2021-05-15T17:52:25Z</time>
      </trkpt>
      <trkpt lat="41.1493340" lon="-8.6164480">
        <ele>93.1</ele>
        <time>2021-05-15T17:52:26Z</time>
      </trkpt>
      <trkpt lat="41.1493400" lon="-8.6164530">
        <ele>93.0</ele>
        <time>2021-05-15T17:52:27Z</time>
      </trkpt>
      <trkpt lat="41.1493530" lon="-8.6164530">
        <ele>93.0</ele>
        <time>2021-05-15T17:52:28Z</time>
      </trkpt>
      <trkpt lat="41.1493670" lon="-8.6164540">
        <ele>93.0</ele>
        <time>2021-05-15T17:52:29Z</time>
      </trkpt>
      <trkpt lat="41.1493740" lon="-8.6164580">
        <ele>93.0</ele>
        <time>2021-05-15T17:52:30Z</time>
      </trkpt>
      <trkpt lat="41.1493840" lon="-8.6164560">
        <ele>93.0</ele>
        <time>2021-05-15T17:52:31Z</time>
      </trkpt>
      <trkpt lat="41.1493900" lon="-8.6164510">
        <ele>93.0</ele>
        <time>2021-05-15T17:52:32Z</time>
      </trkpt>
      <trkpt lat="41.1494030" lon="-8.6164580">
        <ele>93.0</ele>
        <time>2021-05-15T17:52:33Z</time>
      </trkpt>
      <trkpt lat="41.1494190" lon="-8.6164580">
        <ele>92.9</ele>
        <time>2021-05-15T17:52:34Z</time>
      </trkpt>
      <trkpt lat="41.1494220" lon="-8.6164590">
        <ele>92.9</ele>
        <time>2021-05-15T17:52:35Z</time>
      </trkpt>
      <trkpt lat="41.1494330" lon="-8.6164550">
        <ele>92.9</ele>
        <time>2021-05-15T17:52:36Z</time>
      </trkpt>
      <trkpt lat="41.1494540" lon="-8.6164650">
        <ele>92.9</ele>
        <time>2021-05-15T17:52:37Z</time>
      </trkpt>
      <trkpt lat="41.1494630" lon="-8.6164660">
        <ele>92.9</ele>
        <time>2021-05-15T17:52:38Z</time>
      </trkpt>
      <trkpt lat="41.1494730" lon="-8.6164680">
        <ele>92.9</ele>
        <time>2021-05-15T17:52:39Z</time>
      </trkpt>
      <trkpt lat="41.1494860" lon="-8.6164810">
        <ele>92.9</ele>
        <time>2021-05-15T17:52:40Z</time>
      </trkpt>
      <trkpt lat="41.1495030" lon="-8.6164830">
        <ele>92.8</ele>
        <time>2021-05-15T17:52:41Z</time>
      </trkpt>
      <trkpt lat="41.1495300" lon="-8.6164900">
        <ele>92.8</ele>
        <time>2021-05-15T17:52:42Z</time>
      </trkpt>
      <trkpt lat="41.1495380" lon="-8.6164960">
        <ele>92.8</ele>
        <time>2021-05-15T17:52:43Z</time>
      </trkpt>
      <trkpt lat="41.1495540" lon="-8.6165190">
        <ele>92.8</ele>
        <time>2021-05-15T17:52:44Z</time>
      </trkpt>
      <trkpt lat="41.1495620" lon="-8.6165260">
        <ele>92.8</ele>
        <time>2021-05-15T17:52:45Z</time>
      </trkpt>
      <trkpt lat="41.1495770" lon="-8.6165290">
        <ele>92.7</ele>
        <time>2021-05-15T17:52:46Z</time>
      </trkpt>
      <trkpt lat="41.1495870" lon="-8.6165300">
        <ele>92.7</ele>
        <time>2021-05-15T17:52:47Z</time>
      </trkpt>
      <trkpt lat="41.1495930" lon="-8.6165450">
        <ele>92.7</ele>
        <time>2021-05-15T17:52:48Z</time>
      </trkpt>
      <trkpt lat="41.1496020" lon="-8.6165660">
        <ele>92.6</ele>
        <time>2021-05-15T17:52:49Z</time>
      </trkpt>
      <trkpt lat="41.1496130" lon="-8.6165780">
        <ele>92.6</ele>
        <time>2021-05-15T17:52:50Z</time>
      </trkpt>
      <trkpt lat="41.1496200" lon="-8.6165890">
        <ele>92.6</ele>
        <time>2021-05-15T17:52:51Z</time>
      </trkpt>
      <trkpt lat="41.1496310" lon="-8.6166110">
        <ele>92.6</ele>
        <time>2021-05-15T17:52:52Z</time>
      </trkpt>
      <trkpt lat="41.1496350" lon="-8.6166280">
        <ele>92.5</ele>
        <time>2021-05-15T17:52:53Z</time>
      </trkpt>
      <trkpt lat="41.1496430" lon="-8.6166350">
        <ele>92.5</ele>
        <time>2021-05-15T17:52:54Z</time>
      </trkpt>
      <trkpt lat="41.1496500" lon="-8.6166430">
        <ele>92.5</ele>
        <time>2021-05-15T17:52:55Z</time>
      </trkpt>
      <trkpt lat="41.1496650" lon="-8.6166610">
        <ele>92.4</ele>
        <time>2021-05-15T17:52:56Z</time>
      </trkpt>
      <trkpt lat="41.1496710" lon="-8.6166680">
        <ele>92.4</ele>
        <time>2021-05-15T17:52:57Z</time>
      </trkpt>
      <trkpt lat="41.1496780" lon="-8.6166740">
        <ele>92.4</ele>
        <time>2021-05-15T17:52:58Z</time>
      </trkpt>
      <trkpt lat="41.1496930" lon="-8.6166880">
        <ele>92.4</ele>
        <time>2021-05-15T17:52:59Z</time>
      </trkpt>
      <trkpt lat="41.1497010" lon="-8.6166960">
        <ele>92.4</ele>
        <time>2021-05-15T17:53:00Z</time>
      </trkpt>
      <trkpt lat="41.1497080" lon="-8.6167030">
        <ele>92.3</ele>
        <time>2021-05-15T17:53:01Z</time>
      </trkpt>
      <trkpt lat="41.1497140" lon="-8.6167150">
        <ele>92.3</ele>
        <time>2021-05-15T17:53:02Z</time>
      </trkpt>
      <trkpt lat="41.1497230" lon="-8.6167290">
        <ele>92.3</ele>
        <time>2021-05-15T17:53:03Z</time>
      </trkpt>
      <trkpt lat="41.1497300" lon="-8.6167390">
        <ele>92.3</ele>
        <time>2021-05-15T17:53:04Z</time>
      </trkpt>
      <trkpt lat="41.1497490" lon="-8.6167430">
        <ele>92.2</ele>
        <time>2021-05-15T17:53:05Z</time>
      </trkpt>
      <trkpt lat="41.1497580" lon="-8.6167440">
        <ele>92.2</ele>
        <time>2021-05-15T17:53:06Z</time>
      </trkpt>
      <trkpt lat="41.1497670" lon="-8.6167440">
        <ele>92.2</ele>
        <time>2021-05-15T17:53:07Z</time>
      </trkpt>
      <trkpt lat="41.1497780" lon="-8.6167510">
        <ele>92.2</ele>
        <time>2021-05-15T17:53:08Z</time>
      </trkpt>
      <trkpt lat="41.1497860" lon="-8.6167530">
        <ele>92.2</ele>
        <time>2021-05-15T17:53:09Z</time>
      </trkpt>
      <trkpt lat="41.1497950" lon="-8.6167520">
        <ele>92.2</ele>
        <time>2021-05-15T17:53:10Z</time>
      </trkpt>
      <trkpt lat="41.1498220" lon="-8.6167640">
        <ele>92.1</ele>
        <time>2021-05-15T17:53:11Z</time>
      </trkpt>
      <trkpt lat="41.1498540" lon="-8.6167730">
        <ele>92.1</ele>
        <time>2021-05-15T17:53:12Z</time>
      </trkpt>
      <trkpt lat="41.1498620" lon="-8.6167780">
        <ele>92.0</ele>
        <time>2021-05-15T17:53:13Z</time>
      </trkpt>
      <trkpt lat="41.1499000" lon="-8.6167940">
        <ele>92.0</ele>
        <time>2021-05-15T17:53:14Z</time>
      </trkpt>
      <trkpt lat="41.1499150" lon="-8.6167990">
        <ele>92.0</ele>
        <time>2021-05-15T17:53:15Z</time>
      </trkpt>
      <trkpt lat="41.1499240" lon="-8.6168010">
        <ele>91.9</ele>
        <time>2021-05-15T17:53:16Z</time>
      </trkpt>
      <trkpt lat="41.1499300" lon="-8.6167990">
        <ele>91.9</ele>
        <time>2021-05-15T17:53:17Z</time>
      </trkpt>
      <trkpt lat="41.1499400" lon="-8.6167960">
        <ele>91.9</ele>
        <time>2021-05-15T17:53:18Z</time>
      </trkpt>
      <trkpt lat="41.1499420" lon="-8.6167930">
        <ele>91.9</ele>
        <time>2021-05-15T17:53:19Z</time>
      </trkpt>
      <trkpt lat="41.1499530" lon="-8.6167880">
        <ele>91.9</ele>
        <time>2021-05-15T17:53:20Z</time>
      </trkpt>
      <trkpt lat="41.1499690" lon="-8.6167840">
        <ele>91.9</ele>
        <time>2021-05-15T17:53:21Z</time>
      </trkpt>
      <trkpt lat="41.1499970" lon="-8.6167770">
        <ele>91.9</ele>
        <time>2021-05-15T17:53:22Z</time>
      </trkpt>
      <trkpt lat="41.1500130" lon="-8.6167790">
        <ele>91.8</ele>
        <time>2021-05-15T17:53:23Z</time>
      </trkpt>
      <trkpt lat="41.1500060" lon="-8.6167820">
        <ele>91.8</ele>
        <time>2021-05-15T17:53:24Z</time>
      </trkpt>
      <trkpt lat="41.1500180" lon="-8.6167910">
        <ele>91.8</ele>
        <time>2021-05-15T17:53:25Z</time>
      </trkpt>
      <trkpt lat="41.1500290" lon="-8.6168000">
        <ele>91.8</ele>
        <time>2021-05-15T17:53:26Z</time>
      </trkpt>
      <trkpt lat="41.1500450" lon="-8.6168280">
        <ele>91.8</ele>
        <time>2021-05-15T17:53:27Z</time>
      </trkpt>
      <trkpt lat="41.1500560" lon="-8.6168440">
        <ele>91.8</ele>
        <time>2021-05-15T17:53:28Z</time>
      </trkpt>
      <trkpt lat="41.1500740" lon="-8.6168630">
        <ele>91.8</ele>
        <time>2021-05-15T17:53:29Z</time>
      </trkpt>
      <trkpt lat="41.1500840" lon="-8.6168670">
        <ele>91.8</ele>
        <time>2021-05-15T17:53:30Z</time>
      </trkpt>
      <trkpt lat="41.1500930" lon="-8.6168710">
        <ele>91.8</ele>
        <time>2021-05-15T17:53:31Z</time>
      </trkpt>
      <trkpt lat="41.1501110" lon="-8.6168710">
        <ele>91.7</ele>
        <time>2021-05-15T17:53:32Z</time>
      </trkpt>
      <trkpt lat="41.1501190" lon="-8.6168740">
        <ele>91.7</ele>
        <time>2021-05-15T17:53:33Z</time>
      </trkpt>
      <trkpt lat="41.1501190" lon="-8.6168860">
        <ele>91.7</ele>
        <time>2021-05-15T17:53:34Z</time>
      </trkpt>
      <trkpt lat="41.1501320" lon="-8.6168860">
        <ele>91.7</ele>
        <time>2021-05-15T17:53:35Z</time>
      </trkpt>
      <trkpt lat="41.1501410" lon="-8.6168950">
        <ele>91.7</ele>
        <time>2021-05-15T17:53:36Z</time>
      </trkpt>
      <trkpt lat="41.1501560" lon="-8.6169040">
        <ele>91.7</ele>
        <time>2021-05-15T17:53:37Z</time>
      </trkpt>
      <trkpt lat="41.1501630" lon="-8.6169080">
        <ele>91.7</ele>
        <time>2021-05-15T17:53:38Z</time>
      </trkpt>
      <trkpt lat="41.1501700" lon="-8.6169120">
        <ele>91.7</ele>
        <time>2021-05-15T17:53:39Z</time>
      </trkpt>
      <trkpt lat="41.1501770" lon="-8.6169160">
        <ele>91.7</ele>
        <time>2021-05-15T17:53:40Z</time>
      </trkpt>
      <trkpt lat="41.1501900" lon="-8.6169240">
        <ele>91.7</ele>
        <time>2021-05-15T17:53:41Z</time>
      </trkpt>
      <trkpt lat="41.1502050" lon="-8.6169240">
        <ele>91.7</ele>
        <time>2021-05-15T17:53:42Z</time>
      </trkpt>
      <trkpt lat="41.1502240" lon="-8.6169370">
        <ele>91.7</ele>
        <time>2021-05-15T17:53:43Z</time>
      </trkpt>
      <trkpt lat="41.1502320" lon="-8.6169470">
        <ele>91.7</ele>
        <time>2021-05-15T17:53:44Z</time>
      </trkpt>
      <trkpt lat="41.1502390" lon="-8.6169580">
        <ele>91.7</ele>
        <time>2021-05-15T17:53:45Z</time>
      </trkpt>
      <trkpt lat="41.1502560" lon="-8.6169710">
        <ele>91.7</ele>
        <time>2021-05-15T17:53:46Z</time>
      </trkpt>
      <trkpt lat="41.1502640" lon="-8.6169760">
        <ele>91.7</ele>
        <time>2021-05-15T17:53:47Z</time>
      </trkpt>
      <trkpt lat="41.1502720" lon="-8.6169810">
        <ele>91.7</ele>
        <time>2021-05-15T17:53:48Z</time>
      </trkpt>
      <trkpt lat="41.1502730" lon="-8.6169910">
        <ele>91.8</ele>
        <time>2021-05-15T17:53:49Z</time>
      </trkpt>
      <trkpt lat="41.1502730" lon="-8.6170010">
        <ele>91.8</ele>
        <time>2021-05-15T17:53:50Z</time>
      </trkpt>
      <trkpt lat="41.1502790" lon="-8.6170090">
        <ele>91.8</ele>
        <time>2021-05-15T17:53:51Z</time>
      </trkpt>
      <trkpt lat="41.1502890" lon="-8.6170210">
        <ele>91.8</ele>
        <time>2021-05-15T17:53:52Z</time>
      </trkpt>
      <trkpt lat="41.1502950" lon="-8.6170300">
        <ele>91.8</ele>
        <time>2021-05-15T17:53:53Z</time>
      </trkpt>
      <trkpt lat="41.1503000" lon="-8.6170410">
        <ele>91.8</ele>
        <time>2021-05-15T17:53:54Z</time>
      </trkpt>
      <trkpt lat="41.1503090" lon="-8.6170570">
        <ele>91.8</ele>
        <time>2021-05-15T17:53:55Z</time>
      </trkpt>
      <trkpt lat="41.1503270" lon="-8.6170640">
        <ele>91.8</ele>
        <time>2021-05-15T17:53:56Z</time>
      </trkpt>
      <trkpt lat="41.1503410" lon="-8.6170670">
        <ele>91.8</ele>
        <time>2021-05-15T17:53:57Z</time>
      </trkpt>
      <trkpt lat="41.1503570" lon="-8.6170830">
        <ele>91.8</ele>
        <time>2021-05-15T17:53:58Z</time>
      </trkpt>
      <trkpt lat="41.1503680" lon="-8.6170900">
        <ele>91.8</ele>
        <time>2021-05-15T17:53:59Z</time>
      </trkpt>
      <trkpt lat="41.1503800" lon="-8.6170950">
        <ele>91.8</ele>
        <time>2021-05-15T17:54:00Z</time>
      </trkpt>
      <trkpt lat="41.1503970" lon="-8.6170990">
        <ele>91.8</ele>
        <time>2021-05-15T17:54:01Z</time>
      </trkpt>
      <trkpt lat="41.1504050" lon="-8.6171000">
        <ele>91.8</ele>
        <time>2021-05-15T17:54:02Z</time>
      </trkpt>
      <trkpt lat="41.1504130" lon="-8.6171070">
        <ele>91.8</ele>
        <time>2021-05-15T17:54:03Z</time>
      </trkpt>
      <trkpt lat="41.1504250" lon="-8.6171090">
        <ele>91.8</ele>
        <time>2021-05-15T17:54:04Z</time>
      </trkpt>
      <trkpt lat="41.1504400" lon="-8.6171230">
        <ele>91.8</ele>
        <time>2021-05-15T17:54:05Z</time>
      </trkpt>
      <trkpt lat="41.1504490" lon="-8.6171260">
        <ele>91.8</ele>
        <time>2021-05-15T17:54:06Z</time>
      </trkpt>
      <trkpt lat="41.1504590" lon="-8.6171300">
        <ele>91.8</ele>
        <time>2021-05-15T17:54:07Z</time>
      </trkpt>
      <trkpt lat="41.1504780" lon="-8.6171310">
        <ele>91.8</ele>
        <time>2021-05-15T17:54:08Z</time>
      </trkpt>
      <trkpt lat="41.1504930" lon="-8.6171290">
        <ele>91.8</ele>
        <time>2021-05-15T17:54:09Z</time>
      </trkpt>
      <trkpt lat="41.1505100" lon="-8.6171330">
        <ele>91.8</ele>
        <time>2021-05-15T17:54:10Z</time>
      </trkpt>
      <trkpt lat="41.1505240" lon="-8.6171400">
        <ele>91.8</ele>
        <time>2021-05-15T17:54:11Z</time>
      </trkpt>
      <trkpt lat="41.1505340" lon="-8.6171430">
        <ele>91.8</ele>
        <time>2021-05-15T17:54:12Z</time>
      </trkpt>
      <trkpt lat="41.1505500" lon="-8.6171530">
        <ele>91.8</ele>
        <time>2021-05-15T17:54:13Z</time>
      </trkpt>
      <trkpt lat="41.1505700" lon="-8.6171690">
        <ele>91.8</ele>
        <time>2021-05-15T17:54:14Z</time>
      </trkpt>
      <trkpt lat="41.1505760" lon="-8.6171750">
        <ele>91.8</ele>
        <time>2021-05-15T17:54:15Z</time>
      </trkpt>
      <trkpt lat="41.1505830" lon="-8.6171800">
        <ele>91.8</ele>
        <time>2021-05-15T17:54:16Z</time>
      </trkpt>
      <trkpt lat="41.1505920" lon="-8.6171880">
        <ele>91.8</ele>
        <time>2021-05-15T17:54:17Z</time>
      </trkpt>
      <trkpt lat="41.1506110" lon="-8.6171880">
        <ele>91.8</ele>
        <time>2021-05-15T17:54:18Z</time>
      </trkpt>
      <trkpt lat="41.1506210" lon="-8.6171960">
        <ele>91.8</ele>
        <time>2021-05-15T17:54:19Z</time>
      </trkpt>
      <trkpt lat="41.1506300" lon="-8.6171950">
        <ele>91.8</ele>
        <time>2021-05-15T17:54:20Z</time>
      </trkpt>
      <trkpt lat="41.1506390" lon="-8.6171990">
        <ele>91.8</ele>
        <time>2021-05-15T17:54:21Z</time>
      </trkpt>
      <trkpt lat="41.1506570" lon="-8.6172180">
        <ele>91.8</ele>
        <time>2021-05-15T17:54:22Z</time>
      </trkpt>
      <trkpt lat="41.1506660" lon="-8.6172180">
        <ele>91.8</ele>
        <time>2021-05-15T17:54:23Z</time>
      </trkpt>
      <trkpt lat="41.1506740" lon="-8.6172190">
        <ele>91.8</ele>
        <time>2021-05-15T17:54:24Z</time>
      </trkpt>
      <trkpt lat="41.1506910" lon="-8.6172330">
        <ele>91.8</ele>
        <time>2021-05-15T17:54:25Z</time>
      </trkpt>
      <trkpt lat="41.1507000" lon="-8.6172350">
        <ele>91.8</ele>
        <time>2021-05-15T17:54:26Z</time>
      </trkpt>
      <trkpt lat="41.1507080" lon="-8.6172380">
        <ele>91.8</ele>
        <time>2021-05-15T17:54:27Z</time>
      </trkpt>
      <trkpt lat="41.1507320" lon="-8.6172450">
        <ele>91.8</ele>
        <time>2021-05-15T17:54:28Z</time>
      </trkpt>
      <trkpt lat="41.1507400" lon="-8.6172460">
        <ele>91.8</ele>
        <time>2021-05-15T17:54:29Z</time>
      </trkpt>
      <trkpt lat="41.1507490" lon="-8.6172480">
        <ele>91.8</ele>
        <time>2021-05-15T17:54:30Z</time>
      </trkpt>
      <trkpt lat="41.1507680" lon="-8.6172580">
        <ele>91.8</ele>
        <time>2021-05-15T17:54:31Z</time>
      </trkpt>
      <trkpt lat="41.1507770" lon="-8.6172620">
        <ele>91.8</ele>
        <time>2021-05-15T17:54:32Z</time>
      </trkpt>
      <trkpt lat="41.1507860" lon="-8.6172670">
        <ele>91.8</ele>
        <time>2021-05-15T17:54:33Z</time>
      </trkpt>
      <trkpt lat="41.1508080" lon="-8.6172730">
        <ele>91.8</ele>
        <time>2021-05-15T17:54:34Z</time>
      </trkpt>
      <trkpt lat="41.1508150" lon="-8.6172710">
        <ele>91.8</ele>
        <time>2021-05-15T17:54:35Z</time>
      </trkpt>
      <trkpt lat="41.1508220" lon="-8.6172700">
        <ele>91.7</ele>
        <time>2021-05-15T17:54:36Z</time>
      </trkpt>
      <trkpt lat="41.1508310" lon="-8.6172720">
        <ele>91.7</ele>
        <time>2021-05-15T17:54:37Z</time>
      </trkpt>
      <trkpt lat="41.1508300" lon="-8.6172770">
        <ele>91.7</ele>
        <time>2021-05-15T17:54:38Z</time>
      </trkpt>
      <trkpt lat="41.1508330" lon="-8.6172800">
        <ele>91.7</ele>
        <time>2021-05-15T17:54:39Z</time>
      </trkpt>
      <trkpt lat="41.1508470" lon="-8.6172860">
        <ele>91.7</ele>
        <time>2021-05-15T17:54:40Z</time>
      </trkpt>
      <trkpt lat="41.1508570" lon="-8.6172850">
        <ele>91.7</ele>
        <time>2021-05-15T17:54:41Z</time>
      </trkpt>
      <trkpt lat="41.1508740" lon="-8.6172870">
        <ele>91.7</ele>
        <time>2021-05-15T17:54:42Z</time>
      </trkpt>
      <trkpt lat="41.1508860" lon="-8.6172900">
        <ele>91.7</ele>
        <time>2021-05-15T17:54:43Z</time>
      </trkpt>
      <trkpt lat="41.1508990" lon="-8.6173100">
        <ele>91.7</ele>
        <time>2021-05-15T17:54:44Z</time>
      </trkpt>
      <trkpt lat="41.1509150" lon="-8.6173080">
        <ele>91.6</ele>
        <time>2021-05-15T17:54:45Z</time>
      </trkpt>
      <trkpt lat="41.1509300" lon="-8.6173120">
        <ele>91.6</ele>
        <time>2021-05-15T17:54:46Z</time>
      </trkpt>
      <trkpt lat="41.1509490" lon="-8.6173230">
        <ele>91.6</ele>
        <time>2021-05-15T17:54:47Z</time>
      </trkpt>
      <trkpt lat="41.1509630" lon="-8.6173300">
        <ele>91.6</ele>
        <time>2021-05-15T17:54:48Z</time>
      </trkpt>
      <trkpt lat="41.1509760" lon="-8.6173310">
        <ele>91.6</ele>
        <time>2021-05-15T17:54:49Z</time>
      </trkpt>
      <trkpt lat="41.1509880" lon="-8.6173280">
        <ele>91.6</ele>
        <time>2021-05-15T17:54:50Z</time>
      </trkpt>
      <trkpt lat="41.1509970" lon="-8.6173390">
        <ele>91.5</ele>
        <time>2021-05-15T17:54:51Z</time>
      </trkpt>
      <trkpt lat="41.1510030" lon="-8.6173390">
        <ele>91.5</ele>
        <time>2021-05-15T17:54:52Z</time>
      </trkpt>
      <trkpt lat="41.1510070" lon="-8.6173480">
        <ele>91.5</ele>
        <time>2021-05-15T17:54:53Z</time>
      </trkpt>
      <trkpt lat="41.1510040" lon="-8.6173530">
        <ele>91.5</ele>
        <time>2021-05-15T17:54:54Z</time>
      </trkpt>
      <trkpt lat="41.1510070" lon="-8.6173600">
        <ele>91.5</ele>
        <time>2021-05-15T17:54:55Z</time>
      </trkpt>
      <trkpt lat="41.1510110" lon="-8.6173580">
        <ele>91.5</ele>
        <time>2021-05-15T17:54:56Z</time>
      </trkpt>
      <trkpt lat="41.1510200" lon="-8.6173640">
        <ele>91.5</ele>
        <time>2021-05-15T17:54:57Z</time>
      </trkpt>
      <trkpt lat="41.1510200" lon="-8.6173960">
        <ele>91.5</ele>
        <time>2021-05-15T17:54:58Z</time>
      </trkpt>
      <trkpt lat="41.1510140" lon="-8.6174030">
        <ele>91.5</ele>
        <time>2021-05-15T17:54:59Z</time>
      </trkpt>
      <trkpt lat="41.1510120" lon="-8.6174080">
        <ele>91.5</ele>
        <time>2021-05-15T17:55:00Z</time>
      </trkpt>
      <trkpt lat="41.1510110" lon="-8.6174380">
        <ele>91.4</ele>
        <time>2021-05-15T17:55:01Z</time>
      </trkpt>
      <trkpt lat="41.1510120" lon="-8.6174400">
        <ele>91.4</ele>
        <time>2021-05-15T17:55:02Z</time>
      </trkpt>
      <trkpt lat="41.1510120" lon="-8.6174400">
        <ele>91.4</ele>
        <time>2021-05-15T17:55:03Z</time>
      </trkpt>
      <trkpt lat="41.1510130" lon="-8.6174400">
        <ele>91.4</ele>
        <time>2021-05-15T17:55:04Z</time>
      </trkpt>
      <trkpt lat="41.1511000" lon="-8.6173730">
        <ele>91.3</ele>
        <time>2021-05-15T17:55:05Z</time>
      </trkpt>
      <trkpt lat="41.1511050" lon="-8.6173760">
        <ele>91.3</ele>
        <time>2021-05-15T17:55:06Z</time>
      </trkpt>
      <trkpt lat="41.1506010" lon="-8.6171040">
        <ele>91.5</ele>
        <time>2021-05-15T17:55:36Z</time>
      </trkpt>
      <trkpt lat="41.1505960" lon="-8.6171020">
        <ele>91.5</ele>
        <time>2021-05-15T17:55:43Z</time>
      </trkpt>
      <trkpt lat="41.1505240" lon="-8.6170670">
        <ele>91.5</ele>
        <time>2021-05-15T17:55:49Z</time>
      </trkpt>
      <trkpt lat="41.1509010" lon="-8.6172360">
        <ele>91.6</ele>
        <time>2021-05-15T17:55:51Z</time>
      </trkpt>
      <trkpt lat="41.1508340" lon="-8.6172140">
        <ele>91.6</ele>
        <time>2021-05-15T17:55:58Z</time>
      </trkpt>
      <trkpt lat="41.1505730" lon="-8.6170850">
        <ele>91.7</ele>
        <time>2021-05-15T17:56:05Z</time>
      </trkpt>
      <trkpt lat="41.1508430" lon="-8.6171960">
        <ele>91.7</ele>
        <time>2021-05-15T17:56:07Z</time>
      </trkpt>
      <trkpt lat="41.1505620" lon="-8.6170700">
        <ele>91.8</ele>
        <time>2021-05-15T17:56:13Z</time>
      </trkpt>
      <trkpt lat="41.1504450" lon="-8.6170200">
        <ele>91.8</ele>
        <time>2021-05-15T17:56:20Z</time>
      </trkpt>
      <trkpt lat="41.1505080" lon="-8.6170580">
        <ele>91.8</ele>
        <time>2021-05-15T17:56:26Z</time>
      </trkpt>
      <trkpt lat="41.1508460" lon="-8.6172050">
        <ele>91.9</ele>
        <time>2021-05-15T17:56:28Z</time>
      </trkpt>
      <trkpt lat="41.1508100" lon="-8.6172040">
        <ele>91.8</ele>
        <time>2021-05-15T17:56:35Z</time>
      </trkpt>
      <trkpt lat="41.1506510" lon="-8.6171330">
        <ele>91.8</ele>
        <time>2021-05-15T17:56:41Z</time>
      </trkpt>
      <trkpt lat="41.1504850" lon="-8.6168710">
        <ele>91.8</ele>
        <time>2021-05-15T17:56:48Z</time>
      </trkpt>
      <trkpt lat="41.1509170" lon="-8.6171300">
        <ele>91.7</ele>
        <time>2021-05-15T17:56:50Z</time>
      </trkpt>
      <trkpt lat="41.1507450" lon="-8.6170080">
        <ele>91.8</ele>
        <time>2021-05-15T17:56:56Z</time>
      </trkpt>
      <trkpt lat="41.1509010" lon="-8.6171580">
        <ele>91.8</ele>
        <time>2021-05-15T17:56:58Z</time>
      </trkpt>
      <trkpt lat="41.1505500" lon="-8.6170150">
        <ele>91.8</ele>
        <time>2021-05-15T17:57:05Z</time>
      </trkpt>
      <trkpt lat="41.1508840" lon="-8.6171760">
        <ele>91.7</ele>
        <time>2021-05-15T17:57:06Z</time>
      </trkpt>
      <trkpt lat="41.1504510" lon="-8.6169920">
        <ele>91.8</ele>
        <time>2021-05-15T17:57:13Z</time>
      </trkpt>
      <trkpt lat="41.1508070" lon="-8.6171470">
        <ele>91.8</ele>
        <time>2021-05-15T17:57:15Z</time>
      </trkpt>
      <trkpt lat="41.1505130" lon="-8.6170340">
        <ele>91.8</ele>
        <time>2021-05-15T17:57:21Z</time>
      </trkpt>
      <trkpt lat="41.1507840" lon="-8.6171490">
        <ele>91.8</ele>
        <time>2021-05-15T17:57:23Z</time>
      </trkpt>
      <trkpt lat="41.1503380" lon="-8.6169490">
        <ele>91.8</ele>
        <time>2021-05-15T17:57:30Z</time>
      </trkpt>
      <trkpt lat="41.1508210" lon="-8.6171560">
        <ele>91.7</ele>
        <time>2021-05-15T17:57:32Z</time>
      </trkpt>
      <trkpt lat="41.1501780" lon="-8.6168460">
        <ele>91.7</ele>
        <time>2021-05-15T17:57:39Z</time>
      </trkpt>
      <trkpt lat="41.1509760" lon="-8.6172250">
        <ele>91.6</ele>
        <time>2021-05-15T17:57:40Z</time>
      </trkpt>
      <trkpt lat="41.1511810" lon="-8.6173340">
        <ele>91.3</ele>
        <time>2021-05-15T17:57:49Z</time>
      </trkpt>
      <trkpt lat="41.1504230" lon="-8.6169930">
        <ele>91.8</ele>
        <time>2021-05-15T17:57:55Z</time>
      </trkpt>
      <trkpt lat="41.1508330" lon="-8.6171710">
        <ele>91.9</ele>
        <time>2021-05-15T17:57:57Z</time>
      </trkpt>
      <trkpt lat="41.1505980" lon="-8.6170930">
        <ele>91.8</ele>
        <time>2021-05-15T17:58:03Z</time>
      </trkpt>
      <trkpt lat="41.1510460" lon="-8.6172540">
        <ele>91.5</ele>
        <time>2021-05-15T17:58:05Z</time>
      </trkpt>
      <trkpt lat="41.1510390" lon="-8.6172440">
        <ele>91.5</ele>
        <time>2021-05-15T17:58:27Z</time>
      </trkpt>
      <trkpt lat="41.1504600" lon="-8.6170110">
        <ele>91.8</ele>
        <time>2021-05-15T17:58:34Z</time>
      </trkpt>
      <trkpt lat="41.1508470" lon="-8.6171800">
        <ele>91.8</ele>
        <time>2021-05-15T17:58:35Z</time>
      </trkpt>
      <trkpt lat="41.1505090" lon="-8.6170480">
        <ele>91.7</ele>
        <time>2021-05-15T17:58:42Z</time>
      </trkpt>
      <trkpt lat="41.1505460" lon="-8.6170580">
        <ele>91.7</ele>
        <time>2021-05-15T17:58:51Z</time>
      </trkpt>
      <trkpt lat="41.1502360" lon="-8.6168980">
        <ele>91.7</ele>
        <time>2021-05-15T17:58:58Z</time>
      </trkpt>
      <trkpt lat="41.1508070" lon="-8.6172080">
        <ele>91.9</ele>
        <time>2021-05-15T17:58:59Z</time>
      </trkpt>
      <trkpt lat="41.1507800" lon="-8.6171950">
        <ele>91.8</ele>
        <time>2021-05-15T17:59:09Z</time>
      </trkpt>
      <trkpt lat="41.1504030" lon="-8.6169960">
        <ele>91.8</ele>
        <time>2021-05-15T17:59:16Z</time>
      </trkpt>
      <trkpt lat="41.1506760" lon="-8.6171290">
        <ele>91.8</ele>
        <time>2021-05-15T17:59:17Z</time>
      </trkpt>
      <trkpt lat="41.1508050" lon="-8.6171060">
        <ele>91.8</ele>
        <time>2021-05-15T17:59:25Z</time>
      </trkpt>
      <trkpt lat="41.1505170" lon="-8.6170250">
        <ele>91.8</ele>
        <time>2021-05-15T17:59:31Z</time>
      </trkpt>
      <trkpt lat="41.1508170" lon="-8.6171890">
        <ele>91.7</ele>
        <time>2021-05-15T17:59:33Z</time>
      </trkpt>
      <trkpt lat="41.1506390" lon="-8.6171320">
        <ele>91.8</ele>
        <time>2021-05-15T17:59:40Z</time>
      </trkpt>
      <trkpt lat="41.1499740" lon="-8.6168010">
        <ele>91.7</ele>
        <time>2021-05-15T17:59:48Z</time>
      </trkpt>
      <trkpt lat="41.1509600" lon="-8.6172300">
        <ele>91.6</ele>
        <time>2021-05-15T17:59:50Z</time>
      </trkpt>
      <trkpt lat="41.1507920" lon="-8.6172000">
        <ele>91.8</ele>
        <time>2021-05-15T17:59:56Z</time>
      </trkpt>
      <trkpt lat="41.1507520" lon="-8.6170930">
        <ele>91.8</ele>
        <time>2021-05-15T18:00:03Z</time>
      </trkpt>
      <trkpt lat="41.1505420" lon="-8.6170400">
        <ele>91.8</ele>
        <time>2021-05-15T18:00:10Z</time>
      </trkpt>
      <trkpt lat="41.1508360" lon="-8.6171850">
        <ele>91.9</ele>
        <time>2021-05-15T18:00:12Z</time>
      </trkpt>
      <trkpt lat="41.1503200" lon="-8.6169380">
        <ele>91.7</ele>
        <time>2021-05-15T18:00:41Z</time>
      </trkpt>
      <trkpt lat="41.1499570" lon="-8.6167550">
        <ele>91.9</ele>
        <time>2021-05-15T18:00:42Z</time>
      </trkpt>
      <trkpt lat="41.1504070" lon="-8.6170040">
        <ele>91.8</ele>
        <time>2021-05-15T18:01:15Z</time>
      </trkpt>
      <trkpt lat="41.1508460" lon="-8.6172080">
        <ele>91.7</ele>
        <time>2021-05-15T18:01:17Z</time>
      </trkpt>
      <trkpt lat="41.1507440" lon="-8.6171680">
        <ele>91.7</ele>
        <time>2021-05-15T18:01:24Z</time>
      </trkpt>
      <trkpt lat="41.1509680" lon="-8.6172930">
        <ele>91.5</ele>
        <time>2021-05-15T18:01:36Z</time>
      </trkpt>
      <trkpt lat="41.1508230" lon="-8.6172160">
        <ele>91.4</ele>
        <time>2021-05-15T18:01:43Z</time>
      </trkpt>
      <trkpt lat="41.1510790" lon="-8.6173570">
        <ele>91.3</ele>
        <time>2021-05-15T18:01:50Z</time>
      </trkpt>
      <trkpt lat="41.1511960" lon="-8.6174220">
        <ele>91.2</ele>
        <time>2021-05-15T18:01:56Z</time>
      </trkpt>
      <trkpt lat="41.1510510" lon="-8.6173420">
        <ele>91.1</ele>
        <time>2021-05-15T18:02:01Z</time>
      </trkpt>
      <trkpt lat="41.1511070" lon="-8.6173650">
        <ele>91.1</ele>
        <time>2021-05-15T18:02:03Z</time>
      </trkpt>
      <trkpt lat="41.1511490" lon="-8.6174640">
        <ele>91.1</ele>
        <time>2021-05-15T18:02:04Z</time>
      </trkpt>
      <trkpt lat="41.1511690" lon="-8.6175170">
        <ele>91.1</ele>
        <time>2021-05-15T18:02:05Z</time>
      </trkpt>
      <trkpt lat="41.1511900" lon="-8.6175460">
        <ele>91.0</ele>
        <time>2021-05-15T18:02:06Z</time>
      </trkpt>
      <trkpt lat="41.1512010" lon="-8.6175630">
        <ele>91.0</ele>
        <time>2021-05-15T18:02:07Z</time>
      </trkpt>
      <trkpt lat="41.1512090" lon="-8.6175810">
        <ele>91.0</ele>
        <time>2021-05-15T18:02:08Z</time>
      </trkpt>
      <trkpt lat="41.1512150" lon="-8.6175800">
        <ele>91.0</ele>
        <time>2021-05-15T18:02:09Z</time>
      </trkpt>
      <trkpt lat="41.1512220" lon="-8.6175820">
        <ele>91.0</ele>
        <time>2021-05-15T18:02:10Z</time>
      </trkpt>
      <trkpt lat="41.1512330" lon="-8.6175940">
        <ele>91.0</ele>
        <time>2021-05-15T18:02:11Z</time>
      </trkpt>
      <trkpt lat="41.1512390" lon="-8.6176040">
        <ele>91.0</ele>
        <time>2021-05-15T18:02:12Z</time>
      </trkpt>
      <trkpt lat="41.1512450" lon="-8.6176150">
        <ele>91.0</ele>
        <time>2021-05-15T18:02:13Z</time>
      </trkpt>
      <trkpt lat="41.1512610" lon="-8.6176220">
        <ele>91.0</ele>
        <time>2021-05-15T18:02:14Z</time>
      </trkpt>
      <trkpt lat="41.1512680" lon="-8.6176250">
        <ele>91.0</ele>
        <time>2021-05-15T18:02:15Z</time>
      </trkpt>
      <trkpt lat="41.1512760" lon="-8.6176280">
        <ele>91.0</ele>
        <time>2021-05-15T18:02:16Z</time>
      </trkpt>
      <trkpt lat="41.1512850" lon="-8.6176200">
        <ele>91.0</ele>
        <time>2021-05-15T18:02:17Z</time>
      </trkpt>
      <trkpt lat="41.1512990" lon="-8.6176150">
        <ele>91.0</ele>
        <time>2021-05-15T18:02:18Z</time>
      </trkpt>
      <trkpt lat="41.1513080" lon="-8.6176210">
        <ele>91.0</ele>
        <time>2021-05-15T18:02:19Z</time>
      </trkpt>
      <trkpt lat="41.1513290" lon="-8.6176270">
        <ele>91.0</ele>
        <time>2021-05-15T18:02:20Z</time>
      </trkpt>
      <trkpt lat="41.1513590" lon="-8.6176300">
        <ele>91.0</ele>
        <time>2021-05-15T18:02:21Z</time>
      </trkpt>
      <trkpt lat="41.1513720" lon="-8.6176280">
        <ele>91.0</ele>
        <time>2021-05-15T18:02:22Z</time>
      </trkpt>
      <trkpt lat="41.1513870" lon="-8.6176280">
        <ele>91.0</ele>
        <time>2021-05-15T18:02:23Z</time>
      </trkpt>
      <trkpt lat="41.1514060" lon="-8.6176330">
        <ele>91.0</ele>
        <time>2021-05-15T18:02:24Z</time>
      </trkpt>
      <trkpt lat="41.1514500" lon="-8.6176170">
        <ele>90.9</ele>
        <time>2021-05-15T18:02:25Z</time>
      </trkpt>
      <trkpt lat="41.1514710" lon="-8.6176150">
        <ele>90.9</ele>
        <time>2021-05-15T18:02:26Z</time>
      </trkpt>
      <trkpt lat="41.1514920" lon="-8.6176060">
        <ele>90.9</ele>
        <time>2021-05-15T18:02:27Z</time>
      </trkpt>
      <trkpt lat="41.1515020" lon="-8.6176140">
        <ele>90.9</ele>
        <time>2021-05-15T18:02:28Z</time>
      </trkpt>
      <trkpt lat="41.1515130" lon="-8.6176180">
        <ele>90.9</ele>
        <time>2021-05-15T18:02:29Z</time>
      </trkpt>
      <trkpt lat="41.1515290" lon="-8.6176240">
        <ele>90.9</ele>
        <time>2021-05-15T18:02:30Z</time>
      </trkpt>
      <trkpt lat="41.1515360" lon="-8.6176310">
        <ele>90.9</ele>
        <time>2021-05-15T18:02:31Z</time>
      </trkpt>
      <trkpt lat="41.1515410" lon="-8.6176410">
        <ele>90.9</ele>
        <time>2021-05-15T18:02:32Z</time>
      </trkpt>
      <trkpt lat="41.1515390" lon="-8.6176450">
        <ele>90.9</ele>
        <time>2021-05-15T18:02:33Z</time>
      </trkpt>
      <trkpt lat="41.1515350" lon="-8.6176560">
        <ele>90.9</ele>
        <time>2021-05-15T18:02:34Z</time>
      </trkpt>
      <trkpt lat="41.1515320" lon="-8.6176590">
        <ele>90.9</ele>
        <time>2021-05-15T18:02:35Z</time>
      </trkpt>
      <trkpt lat="41.1515290" lon="-8.6176620">
        <ele>90.9</ele>
        <time>2021-05-15T18:02:36Z</time>
      </trkpt>
      <trkpt lat="41.1515240" lon="-8.6176730">
        <ele>90.9</ele>
        <time>2021-05-15T18:02:37Z</time>
      </trkpt>
      <trkpt lat="41.1515200" lon="-8.6176840">
        <ele>90.9</ele>
        <time>2021-05-15T18:02:38Z</time>
      </trkpt>
      <trkpt lat="41.1515130" lon="-8.6176910">
        <ele>90.9</ele>
        <time>2021-05-15T18:02:39Z</time>
      </trkpt>
      <trkpt lat="41.1514930" lon="-8.6177150">
        <ele>90.9</ele>
        <time>2021-05-15T18:02:40Z</time>
      </trkpt>
      <trkpt lat="41.1514910" lon="-8.6177160">
        <ele>90.9</ele>
        <time>2021-05-15T18:02:41Z</time>
      </trkpt>
      <trkpt lat="41.1514880" lon="-8.6177200">
        <ele>90.9</ele>
        <time>2021-05-15T18:02:42Z</time>
      </trkpt>
      <trkpt lat="41.1514860" lon="-8.6177250">
        <ele>90.9</ele>
        <time>2021-05-15T18:02:43Z</time>
      </trkpt>
      <trkpt lat="41.1514830" lon="-8.6177270">
        <ele>90.9</ele>
        <time>2021-05-15T18:02:44Z</time>
      </trkpt>
      <trkpt lat="41.1514800" lon="-8.6177310">
        <ele>90.9</ele>
        <time>2021-05-15T18:02:45Z</time>
      </trkpt>
      <trkpt lat="41.1514760" lon="-8.6177340">
        <ele>90.9</ele>
        <time>2021-05-15T18:02:46Z</time>
      </trkpt>
      <trkpt lat="41.1514750" lon="-8.6177370">
        <ele>90.9</ele>
        <time>2021-05-15T18:02:47Z</time>
      </trkpt>
      <trkpt lat="41.1514780" lon="-8.6177370">
        <ele>90.9</ele>
        <time>2021-05-15T18:02:48Z</time>
      </trkpt>
      <trkpt lat="41.1514780" lon="-8.6177430">
        <ele>90.9</ele>
        <time>2021-05-15T18:02:49Z</time>
      </trkpt>
      <trkpt lat="41.1514800" lon="-8.6177430">
        <ele>90.9</ele>
        <time>2021-05-15T18:02:50Z</time>
      </trkpt>
      <trkpt lat="41.1514770" lon="-8.6177460">
        <ele>90.9</ele>
        <time>2021-05-15T18:02:51Z</time>
      </trkpt>
      <trkpt lat="41.1514780" lon="-8.6177470">
        <ele>90.9</ele>
        <time>2021-05-15T18:02:52Z</time>
      </trkpt>
      <trkpt lat="41.1514770" lon="-8.6177490">
        <ele>90.9</ele>
        <time>2021-05-15T18:02:53Z</time>
      </trkpt>
      <trkpt lat="41.1514850" lon="-8.6177490">
        <ele>90.9</ele>
        <time>2021-05-15T18:02:54Z</time>
      </trkpt>
      <trkpt lat="41.1514910" lon="-8.6177480">
        <ele>90.9</ele>
        <time>2021-05-15T18:02:55Z</time>
      </trkpt>
      <trkpt lat="41.1514980" lon="-8.6177470">
        <ele>90.9</ele>
        <time>2021-05-15T18:02:56Z</time>
      </trkpt>
      <trkpt lat="41.1515040" lon="-8.6177460">
        <ele>90.9</ele>
        <time>2021-05-15T18:02:57Z</time>
      </trkpt>
      <trkpt lat="41.1515100" lon="-8.6177450">
        <ele>90.9</ele>
        <time>2021-05-15T18:02:58Z</time>
      </trkpt>
      <trkpt lat="41.1515160" lon="-8.6177440">
        <ele>90.9</ele>
        <time>2021-05-15T18:02:59Z</time>
      </trkpt>
      <trkpt lat="41.1515360" lon="-8.6177480">
        <ele>90.9</ele>
        <time>2021-05-15T18:03:00Z</time>
      </trkpt>
      <trkpt lat="41.1515480" lon="-8.6177420">
        <ele>90.9</ele>
        <time>2021-05-15T18:03:01Z</time>
      </trkpt>
      <trkpt lat="41.1515570" lon="-8.6177420">
        <ele>90.9</ele>
        <time>2021-05-15T18:03:02Z</time>
      </trkpt>
      <trkpt lat="41.1515700" lon="-8.6177450">
        <ele>90.9</ele>
        <time>2021-05-15T18:03:03Z</time>
      </trkpt>
      <trkpt lat="41.1515770" lon="-8.6177480">
        <ele>90.9</ele>
        <time>2021-05-15T18:03:04Z</time>
      </trkpt>
      <trkpt lat="41.1516060" lon="-8.6177600">
        <ele>90.9</ele>
        <time>2021-05-15T18:03:05Z</time>
      </trkpt>
      <trkpt lat="41.1516180" lon="-8.6177640">
        <ele>90.9</ele>
        <time>2021-05-15T18:03:06Z</time>
      </trkpt>
      <trkpt lat="41.1516310" lon="-8.6177710">
        <ele>90.9</ele>
        <time>2021-05-15T18:03:07Z</time>
      </trkpt>
      <trkpt lat="41.1516470" lon="-8.6177710">
        <ele>90.9</ele>
        <time>2021-05-15T18:03:08Z</time>
      </trkpt>
      <trkpt lat="41.1516680" lon="-8.6177680">
        <ele>90.9</ele>
        <time>2021-05-15T18:03:09Z</time>
      </trkpt>
      <trkpt lat="41.1516770" lon="-8.6177730">
        <ele>90.9</ele>
        <time>2021-05-15T18:03:10Z</time>
      </trkpt>
      <trkpt lat="41.1516860" lon="-8.6177770">
        <ele>90.9</ele>
        <time>2021-05-15T18:03:11Z</time>
      </trkpt>
      <trkpt lat="41.1516990" lon="-8.6177780">
        <ele>90.9</ele>
        <time>2021-05-15T18:03:12Z</time>
      </trkpt>
      <trkpt lat="41.1517200" lon="-8.6177880">
        <ele>90.9</ele>
        <time>2021-05-15T18:03:13Z</time>
      </trkpt>
      <trkpt lat="41.1517530" lon="-8.6177880">
        <ele>90.9</ele>
        <time>2021-05-15T18:03:14Z</time>
      </trkpt>
      <trkpt lat="41.1517610" lon="-8.6177910">
        <ele>90.9</ele>
        <time>2021-05-15T18:03:15Z</time>
      </trkpt>
      <trkpt lat="41.1517920" lon="-8.6178040">
        <ele>90.9</ele>
        <time>2021-05-15T18:03:16Z</time>
      </trkpt>
      <trkpt lat="41.1518010" lon="-8.6178080">
        <ele>90.9</ele>
        <time>2021-05-15T18:03:17Z</time>
      </trkpt>
      <trkpt lat="41.1518310" lon="-8.6178130">
        <ele>90.9</ele>
        <time>2021-05-15T18:03:18Z</time>
      </trkpt>
      <trkpt lat="41.1518570" lon="-8.6178220">
        <ele>90.9</ele>
        <time>2021-05-15T18:03:19Z</time>
      </trkpt>
      <trkpt lat="41.1518680" lon="-8.6178230">
        <ele>90.9</ele>
        <time>2021-05-15T18:03:20Z</time>
      </trkpt>
      <trkpt lat="41.1518960" lon="-8.6178450">
        <ele>90.9</ele>
        <time>2021-05-15T18:03:21Z</time>
      </trkpt>
      <trkpt lat="41.1519030" lon="-8.6178540">
        <ele>90.9</ele>
        <time>2021-05-15T18:03:22Z</time>
      </trkpt>
      <trkpt lat="41.1519230" lon="-8.6178600">
        <ele>90.9</ele>
        <time>2021-05-15T18:03:23Z</time>
      </trkpt>
      <trkpt lat="41.1519330" lon="-8.6178630">
        <ele>91.0</ele>
        <time>2021-05-15T18:03:24Z</time>
      </trkpt>
      <trkpt lat="41.1519440" lon="-8.6178670">
        <ele>91.0</ele>
        <time>2021-05-15T18:03:25Z</time>
      </trkpt>
      <trkpt lat="41.1519770" lon="-8.6178740">
        <ele>91.0</ele>
        <time>2021-05-15T18:03:26Z</time>
      </trkpt>
      <trkpt lat="41.1519890" lon="-8.6178810">
        <ele>91.0</ele>
        <time>2021-05-15T18:03:27Z</time>
      </trkpt>
      <trkpt lat="41.1520170" lon="-8.6178820">
        <ele>91.0</ele>
        <time>2021-05-15T18:03:28Z</time>
      </trkpt>
      <trkpt lat="41.1520250" lon="-8.6178850">
        <ele>91.0</ele>
        <time>2021-05-15T18:03:29Z</time>
      </trkpt>
      <trkpt lat="41.1520310" lon="-8.6178890">
        <ele>91.1</ele>
        <time>2021-05-15T18:03:30Z</time>
      </trkpt>
      <trkpt lat="41.1520560" lon="-8.6178900">
        <ele>91.1</ele>
        <time>2021-05-15T18:03:31Z</time>
      </trkpt>
      <trkpt lat="41.1520850" lon="-8.6179040">
        <ele>91.1</ele>
        <time>2021-05-15T18:03:32Z</time>
      </trkpt>
      <trkpt lat="41.1520970" lon="-8.6179030">
        <ele>91.1</ele>
        <time>2021-05-15T18:03:33Z</time>
      </trkpt>
      <trkpt lat="41.1521050" lon="-8.6178990">
        <ele>91.2</ele>
        <time>2021-05-15T18:03:34Z</time>
      </trkpt>
      <trkpt lat="41.1521150" lon="-8.6179060">
        <ele>91.2</ele>
        <time>2021-05-15T18:03:35Z</time>
      </trkpt>
      <trkpt lat="41.1521110" lon="-8.6179020">
        <ele>91.2</ele>
        <time>2021-05-15T18:03:36Z</time>
      </trkpt>
      <trkpt lat="41.1521150" lon="-8.6179050">
        <ele>91.2</ele>
        <time>2021-05-15T18:03:37Z</time>
      </trkpt>
      <trkpt lat="41.1521220" lon="-8.6179080">
        <ele>91.2</ele>
        <time>2021-05-15T18:03:38Z</time>
      </trkpt>
      <trkpt lat="41.1521280" lon="-8.6179210">
        <ele>91.2</ele>
        <time>2021-05-15T18:03:39Z</time>
      </trkpt>
      <trkpt lat="41.1521330" lon="-8.6179170">
        <ele>91.2</ele>
        <time>2021-05-15T18:03:40Z</time>
      </trkpt>
      <trkpt lat="41.1521380" lon="-8.6179210">
        <ele>91.2</ele>
        <time>2021-05-15T18:03:41Z</time>
      </trkpt>
      <trkpt lat="41.1521490" lon="-8.6179230">
        <ele>91.2</ele>
        <time>2021-05-15T18:03:42Z</time>
      </trkpt>
      <trkpt lat="41.1521480" lon="-8.6179360">
        <ele>91.3</ele>
        <time>2021-05-15T18:03:43Z</time>
      </trkpt>
      <trkpt lat="41.1521510" lon="-8.6179470">
        <ele>91.3</ele>
        <time>2021-05-15T18:03:44Z</time>
      </trkpt>
      <trkpt lat="41.1521500" lon="-8.6179600">
        <ele>91.3</ele>
        <time>2021-05-15T18:03:45Z</time>
      </trkpt>
      <trkpt lat="41.1521530" lon="-8.6179600">
        <ele>91.3</ele>
        <time>2021-05-15T18:03:46Z</time>
      </trkpt>
      <trkpt lat="41.1521590" lon="-8.6179630">
        <ele>91.3</ele>
        <time>2021-05-15T18:03:47Z</time>
      </trkpt>
      <trkpt lat="41.1521640" lon="-8.6179640">
        <ele>91.3</ele>
        <time>2021-05-15T18:03:48Z</time>
      </trkpt>
      <trkpt lat="41.1521730" lon="-8.6179650">
        <ele>91.3</ele>
        <time>2021-05-15T18:03:49Z</time>
      </trkpt>
      <trkpt lat="41.1521780" lon="-8.6179660">
        <ele>91.3</ele>
        <time>2021-05-15T18:03:50Z</time>
      </trkpt>
      <trkpt lat="41.1521910" lon="-8.6179660">
        <ele>91.3</ele>
        <time>2021-05-15T18:03:51Z</time>
      </trkpt>
      <trkpt lat="41.1522050" lon="-8.6179720">
        <ele>91.4</ele>
        <time>2021-05-15T18:03:52Z</time>
      </trkpt>
      <trkpt lat="41.1522130" lon="-8.6179920">
        <ele>91.4</ele>
        <time>2021-05-15T18:03:53Z</time>
      </trkpt>
      <trkpt lat="41.1522110" lon="-8.6180100">
        <ele>91.4</ele>
        <time>2021-05-15T18:03:54Z</time>
      </trkpt>
      <trkpt lat="41.1522090" lon="-8.6180290">
        <ele>91.4</ele>
        <time>2021-05-15T18:03:55Z</time>
      </trkpt>
      <trkpt lat="41.1522060" lon="-8.6180720">
        <ele>91.4</ele>
        <time>2021-05-15T18:03:56Z</time>
      </trkpt>
      <trkpt lat="41.1522090" lon="-8.6180820">
        <ele>91.4</ele>
        <time>2021-05-15T18:03:57Z</time>
      </trkpt>
      <trkpt lat="41.1522210" lon="-8.6180990">
        <ele>91.4</ele>
        <time>2021-05-15T18:03:58Z</time>
      </trkpt>
      <trkpt lat="41.1522230" lon="-8.6181060">
        <ele>91.4</ele>
        <time>2021-05-15T18:03:59Z</time>
      </trkpt>
      <trkpt lat="41.1522250" lon="-8.6181150">
        <ele>91.4</ele>
        <time>2021-05-15T18:04:00Z</time>
      </trkpt>
      <trkpt lat="41.1522270" lon="-8.6181470">
        <ele>91.3</ele>
        <time>2021-05-15T18:04:01Z</time>
      </trkpt>
      <trkpt lat="41.1522290" lon="-8.6181640">
        <ele>91.3</ele>
        <time>2021-05-15T18:04:02Z</time>
      </trkpt>
      <trkpt lat="41.1522300" lon="-8.6181800">
        <ele>91.3</ele>
        <time>2021-05-15T18:04:03Z</time>
      </trkpt>
      <trkpt lat="41.1522290" lon="-8.6182180">
        <ele>91.3</ele>
        <time>2021-05-15T18:04:04Z</time>
      </trkpt>
      <trkpt lat="41.1522300" lon="-8.6182340">
        <ele>91.2</ele>
        <time>2021-05-15T18:04:05Z</time>
      </trkpt>
      <trkpt lat="41.1522330" lon="-8.6182550">
        <ele>91.2</ele>
        <time>2021-05-15T18:04:06Z</time>
      </trkpt>
      <trkpt lat="41.1522320" lon="-8.6182600">
        <ele>91.2</ele>
        <time>2021-05-15T18:04:07Z</time>
      </trkpt>
      <trkpt lat="41.1522380" lon="-8.6182790">
        <ele>91.2</ele>
        <time>2021-05-15T18:04:08Z</time>
      </trkpt>
      <trkpt lat="41.1522420" lon="-8.6183200">
        <ele>91.1</ele>
        <time>2021-05-15T18:04:09Z</time>
      </trkpt>
      <trkpt lat="41.1522470" lon="-8.6183300">
        <ele>91.1</ele>
        <time>2021-05-15T18:04:10Z</time>
      </trkpt>
      <trkpt lat="41.1522510" lon="-8.6183660">
        <ele>91.1</ele>
        <time>2021-05-15T18:04:11Z</time>
      </trkpt>
      <trkpt lat="41.1522510" lon="-8.6183840">
        <ele>91.1</ele>
        <time>2021-05-15T18:04:12Z</time>
      </trkpt>
      <trkpt lat="41.1522500" lon="-8.6184250">
        <ele>91.0</ele>
        <time>2021-05-15T18:04:13Z</time>
      </trkpt>
      <trkpt lat="41.1522480" lon="-8.6184350">
        <ele>91.0</ele>
        <time>2021-05-15T18:04:14Z</time>
      </trkpt>
      <trkpt lat="41.1522570" lon="-8.6184540">
        <ele>91.0</ele>
        <time>2021-05-15T18:04:15Z</time>
      </trkpt>
      <trkpt lat="41.1522680" lon="-8.6184750">
        <ele>91.0</ele>
        <time>2021-05-15T18:04:16Z</time>
      </trkpt>
      <trkpt lat="41.1522720" lon="-8.6185000">
        <ele>90.9</ele>
        <time>2021-05-15T18:04:17Z</time>
      </trkpt>
      <trkpt lat="41.1522660" lon="-8.6185100">
        <ele>90.9</ele>
        <time>2021-05-15T18:04:18Z</time>
      </trkpt>
      <trkpt lat="41.1522680" lon="-8.6185260">
        <ele>90.9</ele>
        <time>2021-05-15T18:04:19Z</time>
      </trkpt>
      <trkpt lat="41.1522550" lon="-8.6185520">
        <ele>90.9</ele>
        <time>2021-05-15T18:04:20Z</time>
      </trkpt>
      <trkpt lat="41.1522560" lon="-8.6185660">
        <ele>90.9</ele>
        <time>2021-05-15T18:04:21Z</time>
      </trkpt>
      <trkpt lat="41.1522530" lon="-8.6185890">
        <ele>90.8</ele>
        <time>2021-05-15T18:04:22Z</time>
      </trkpt>
      <trkpt lat="41.1522630" lon="-8.6186120">
        <ele>90.8</ele>
        <time>2021-05-15T18:04:23Z</time>
      </trkpt>
      <trkpt lat="41.1522620" lon="-8.6186280">
        <ele>90.8</ele>
        <time>2021-05-15T18:04:24Z</time>
      </trkpt>
      <trkpt lat="41.1522610" lon="-8.6186430">
        <ele>90.8</ele>
        <time>2021-05-15T18:04:25Z</time>
      </trkpt>
      <trkpt lat="41.1522720" lon="-8.6186560">
        <ele>90.8</ele>
        <time>2021-05-15T18:04:26Z</time>
      </trkpt>
      <trkpt lat="41.1522780" lon="-8.6186730">
        <ele>90.8</ele>
        <time>2021-05-15T18:04:27Z</time>
      </trkpt>
      <trkpt lat="41.1522860" lon="-8.6186860">
        <ele>90.8</ele>
        <time>2021-05-15T18:04:28Z</time>
      </trkpt>
      <trkpt lat="41.1522950" lon="-8.6187020">
        <ele>90.7</ele>
        <time>2021-05-15T18:04:29Z</time>
      </trkpt>
      <trkpt lat="41.1522910" lon="-8.6187240">
        <ele>90.7</ele>
        <time>2021-05-15T18:04:30Z</time>
      </trkpt>
      <trkpt lat="41.1522910" lon="-8.6187440">
        <ele>90.7</ele>
        <time>2021-05-15T18:04:31Z</time>
      </trkpt>
      <trkpt lat="41.1523010" lon="-8.6187780">
        <ele>90.7</ele>
        <time>2021-05-15T18:04:32Z</time>
      </trkpt>
      <trkpt lat="41.1523040" lon="-8.6187920">
        <ele>90.7</ele>
        <time>2021-05-15T18:04:33Z</time>
      </trkpt>
      <trkpt lat="41.1523060" lon="-8.6188070">
        <ele>90.7</ele>
        <time>2021-05-15T18:04:34Z</time>
      </trkpt>
      <trkpt lat="41.1523160" lon="-8.6188360">
        <ele>90.6</ele>
        <time>2021-05-15T18:04:35Z</time>
      </trkpt>
      <trkpt lat="41.1523180" lon="-8.6188510">
        <ele>90.6</ele>
        <time>2021-05-15T18:04:36Z</time>
      </trkpt>
      <trkpt lat="41.1523200" lon="-8.6188660">
        <ele>90.6</ele>
        <time>2021-05-15T18:04:37Z</time>
      </trkpt>
      <trkpt lat="41.1523270" lon="-8.6188870">
        <ele>90.6</ele>
        <time>2021-05-15T18:04:38Z</time>
      </trkpt>
      <trkpt lat="41.1523270" lon="-8.6189040">
        <ele>90.6</ele>
        <time>2021-05-15T18:04:39Z</time>
      </trkpt>
      <trkpt lat="41.1523370" lon="-8.6189240">
        <ele>90.6</ele>
        <time>2021-05-15T18:04:40Z</time>
      </trkpt>
      <trkpt lat="41.1523380" lon="-8.6189400">
        <ele>90.5</ele>
        <time>2021-05-15T18:04:41Z</time>
      </trkpt>
      <trkpt lat="41.1523430" lon="-8.6189540">
        <ele>90.5</ele>
        <time>2021-05-15T18:04:42Z</time>
      </trkpt>
      <trkpt lat="41.1523390" lon="-8.6189760">
        <ele>90.5</ele>
        <time>2021-05-15T18:04:43Z</time>
      </trkpt>
      <trkpt lat="41.1523380" lon="-8.6190040">
        <ele>90.5</ele>
        <time>2021-05-15T18:04:44Z</time>
      </trkpt>
      <trkpt lat="41.1523410" lon="-8.6190180">
        <ele>90.5</ele>
        <time>2021-05-15T18:04:45Z</time>
      </trkpt>
      <trkpt lat="41.1523430" lon="-8.6190320">
        <ele>90.5</ele>
        <time>2021-05-15T18:04:46Z</time>
      </trkpt>
      <trkpt lat="41.1523430" lon="-8.6190720">
        <ele>90.4</ele>
        <time>2021-05-15T18:04:47Z</time>
      </trkpt>
      <trkpt lat="41.1523390" lon="-8.6190830">
        <ele>90.4</ele>
        <time>2021-05-15T18:04:48Z</time>
      </trkpt>
      <trkpt lat="41.1523400" lon="-8.6191030">
        <ele>90.4</ele>
        <time>2021-05-15T18:04:49Z</time>
      </trkpt>
      <trkpt lat="41.1523420" lon="-8.6191220">
        <ele>90.4</ele>
        <time>2021-05-15T18:04:50Z</time>
      </trkpt>
      <trkpt lat="41.1523510" lon="-8.6191340">
        <ele>90.4</ele>
        <time>2021-05-15T18:04:51Z</time>
      </trkpt>
      <trkpt lat="41.1523630" lon="-8.6191510">
        <ele>90.4</ele>
        <time>2021-05-15T18:04:52Z</time>
      </trkpt>
      <trkpt lat="41.1523670" lon="-8.6191930">
        <ele>90.4</ele>
        <time>2021-05-15T18:04:53Z</time>
      </trkpt>
      <trkpt lat="41.1523680" lon="-8.6192010">
        <ele>90.4</ele>
        <time>2021-05-15T18:04:54Z</time>
      </trkpt>
      <trkpt lat="41.1523690" lon="-8.6192290">
        <ele>90.3</ele>
        <time>2021-05-15T18:04:55Z</time>
      </trkpt>
      <trkpt lat="41.1523790" lon="-8.6192410">
        <ele>90.3</ele>
        <time>2021-05-15T18:04:56Z</time>
      </trkpt>
      <trkpt lat="41.1523800" lon="-8.6192570">
        <ele>90.3</ele>
        <time>2021-05-15T18:04:57Z</time>
      </trkpt>
      <trkpt lat="41.1523880" lon="-8.6192710">
        <ele>90.3</ele>
        <time>2021-05-15T18:04:58Z</time>
      </trkpt>
      <trkpt lat="41.1523890" lon="-8.6192800">
        <ele>90.3</ele>
        <time>2021-05-15T18:04:59Z</time>
      </trkpt>
      <trkpt lat="41.1523930" lon="-8.6193000">
        <ele>90.3</ele>
        <time>2021-05-15T18:05:00Z</time>
      </trkpt>
      <trkpt lat="41.1523990" lon="-8.6193150">
        <ele>90.2</ele>
        <time>2021-05-15T18:05:01Z</time>
      </trkpt>
      <trkpt lat="41.1523990" lon="-8.6193250">
        <ele>90.2</ele>
        <time>2021-05-15T18:05:02Z</time>
      </trkpt>
      <trkpt lat="41.1523960" lon="-8.6193340">
        <ele>90.2</ele>
        <time>2021-05-15T18:05:03Z</time>
      </trkpt>
      <trkpt lat="41.1524030" lon="-8.6193490">
        <ele>90.2</ele>
        <time>2021-05-15T18:05:04Z</time>
      </trkpt>
      <trkpt lat="41.1524080" lon="-8.6193580">
        <ele>90.2</ele>
        <time>2021-05-15T18:05:05Z</time>
      </trkpt>
      <trkpt lat="41.1524140" lon="-8.6193570">
        <ele>90.1</ele>
        <time>2021-05-15T18:05:06Z</time>
      </trkpt>
      <trkpt lat="41.1524140" lon="-8.6193570">
        <ele>90.1</ele>
        <time>2021-05-15T18:05:07Z</time>
      </trkpt>
      <trkpt lat="41.1524100" lon="-8.6193690">
        <ele>90.1</ele>
        <time>2021-05-15T18:05:08Z</time>
      </trkpt>
      <trkpt lat="41.1524210" lon="-8.6193930">
        <ele>90.1</ele>
        <time>2021-05-15T18:05:09Z</time>
      </trkpt>
      <trkpt lat="41.1524290" lon="-8.6194170">
        <ele>90.0</ele>
        <time>2021-05-15T18:05:10Z</time>
      </trkpt>
      <trkpt lat="41.1524300" lon="-8.6194330">
        <ele>90.0</ele>
        <time>2021-05-15T18:05:11Z</time>
      </trkpt>
      <trkpt lat="41.1524280" lon="-8.6194530">
        <ele>90.0</ele>
        <time>2021-05-15T18:05:12Z</time>
      </trkpt>
      <trkpt lat="41.1524300" lon="-8.6194740">
        <ele>89.9</ele>
        <time>2021-05-15T18:05:13Z</time>
      </trkpt>
      <trkpt lat="41.1524390" lon="-8.6194960">
        <ele>89.9</ele>
        <time>2021-05-15T18:05:14Z</time>
      </trkpt>
      <trkpt lat="41.1524430" lon="-8.6195120">
        <ele>89.9</ele>
        <time>2021-05-15T18:05:15Z</time>
      </trkpt>
      <trkpt lat="41.1524340" lon="-8.6195450">
        <ele>89.8</ele>
        <time>2021-05-15T18:05:16Z</time>
      </trkpt>
      <trkpt lat="41.1524310" lon="-8.6195570">
        <ele>89.8</ele>
        <time>2021-05-15T18:05:17Z</time>
      </trkpt>
      <trkpt lat="41.1524250" lon="-8.6195770">
        <ele>89.8</ele>
        <time>2021-05-15T18:05:18Z</time>
      </trkpt>
      <trkpt lat="41.1524280" lon="-8.6196050">
        <ele>89.7</ele>
        <time>2021-05-15T18:05:19Z</time>
      </trkpt>
      <trkpt lat="41.1524310" lon="-8.6196110">
        <ele>89.7</ele>
        <time>2021-05-15T18:05:20Z</time>
      </trkpt>
      <trkpt lat="41.1524310" lon="-8.6196290">
        <ele>89.7</ele>
        <time>2021-05-15T18:05:21Z</time>
      </trkpt>
      <trkpt lat="41.1524310" lon="-8.6196490">
        <ele>89.7</ele>
        <time>2021-05-15T18:05:22Z</time>
      </trkpt>
      <trkpt lat="41.1524300" lon="-8.6196790">
        <ele>89.6</ele>
        <time>2021-05-15T18:05:23Z</time>
      </trkpt>
      <trkpt lat="41.1524310" lon="-8.6196900">
        <ele>89.6</ele>
        <time>2021-05-15T18:05:24Z</time>
      </trkpt>
      <trkpt lat="41.1524310" lon="-8.6197000">
        <ele>89.6</ele>
        <time>2021-05-15T18:05:25Z</time>
      </trkpt>
      <trkpt lat="41.1524310" lon="-8.6197230">
        <ele>89.5</ele>
        <time>2021-05-15T18:05:26Z</time>
      </trkpt>
      <trkpt lat="41.1524290" lon="-8.6197450">
        <ele>89.5</ele>
        <time>2021-05-15T18:05:27Z</time>
      </trkpt>
      <trkpt lat="41.1524290" lon="-8.6197810">
        <ele>89.4</ele>
        <time>2021-05-15T18:05:28Z</time>
      </trkpt>
      <trkpt lat="41.1524280" lon="-8.6197950">
        <ele>89.4</ele>
        <time>2021-05-15T18:05:29Z</time>
      </trkpt>
      <trkpt lat="41.1524300" lon="-8.6198200">
        <ele>89.4</ele>
        <time>2021-05-15T18:05:30Z</time>
      </trkpt>
      <trkpt lat="41.1524270" lon="-8.6198340">
        <ele>89.3</ele>
        <time>2021-05-15T18:05:31Z</time>
      </trkpt>
      <trkpt lat="41.1524360" lon="-8.6198500">
        <ele>89.3</ele>
        <time>2021-05-15T18:05:32Z</time>
      </trkpt>
      <trkpt lat="41.1524300" lon="-8.6198670">
        <ele>89.3</ele>
        <time>2021-05-15T18:05:33Z</time>
      </trkpt>
      <trkpt lat="41.1524290" lon="-8.6198800">
        <ele>89.2</ele>
        <time>2021-05-15T18:05:34Z</time>
      </trkpt>
      <trkpt lat="41.1524240" lon="-8.6199000">
        <ele>89.2</ele>
        <time>2021-05-15T18:05:35Z</time>
      </trkpt>
      <trkpt lat="41.1524320" lon="-8.6199100">
        <ele>89.2</ele>
        <time>2021-05-15T18:05:36Z</time>
      </trkpt>
      <trkpt lat="41.1524310" lon="-8.6199230">
        <ele>89.1</ele>
        <time>2021-05-15T18:05:37Z</time>
      </trkpt>
      <trkpt lat="41.1524350" lon="-8.6199410">
        <ele>89.1</ele>
        <time>2021-05-15T18:05:38Z</time>
      </trkpt>
      <trkpt lat="41.1524320" lon="-8.6199670">
        <ele>89.0</ele>
        <time>2021-05-15T18:05:39Z</time>
      </trkpt>
      <trkpt lat="41.1524360" lon="-8.6199790">
        <ele>89.0</ele>
        <time>2021-05-15T18:05:40Z</time>
      </trkpt>
      <trkpt lat="41.1524390" lon="-8.6200030">
        <ele>88.9</ele>
        <time>2021-05-15T18:05:41Z</time>
      </trkpt>
      <trkpt lat="41.1524430" lon="-8.6200250">
        <ele>88.8</ele>
        <time>2021-05-15T18:05:42Z</time>
      </trkpt>
      <trkpt lat="41.1524480" lon="-8.6200450">
        <ele>88.8</ele>
        <time>2021-05-15T18:05:43Z</time>
      </trkpt>
      <trkpt lat="41.1524540" lon="-8.6200710">
        <ele>88.7</ele>
        <time>2021-05-15T18:05:44Z</time>
      </trkpt>
      <trkpt lat="41.1524470" lon="-8.6200900">
        <ele>88.6</ele>
        <time>2021-05-15T18:05:45Z</time>
      </trkpt>
      <trkpt lat="41.1524500" lon="-8.6201130">
        <ele>88.5</ele>
        <time>2021-05-15T18:05:46Z</time>
      </trkpt>
      <trkpt lat="41.1524560" lon="-8.6201340">
        <ele>88.4</ele>
        <time>2021-05-15T18:05:47Z</time>
      </trkpt>
      <trkpt lat="41.1524510" lon="-8.6201600">
        <ele>88.3</ele>
        <time>2021-05-15T18:05:48Z</time>
      </trkpt>
      <trkpt lat="41.1524580" lon="-8.6201760">
        <ele>88.3</ele>
        <time>2021-05-15T18:05:49Z</time>
      </trkpt>
      <trkpt lat="41.1524640" lon="-8.6201830">
        <ele>88.2</ele>
        <time>2021-05-15T18:05:50Z</time>
      </trkpt>
      <trkpt lat="41.1524620" lon="-8.6202040">
        <ele>88.1</ele>
        <time>2021-05-15T18:05:51Z</time>
      </trkpt>
      <trkpt lat="41.1524680" lon="-8.6202200">
        <ele>88.1</ele>
        <time>2021-05-15T18:05:52Z</time>
      </trkpt>
      <trkpt lat="41.1524730" lon="-8.6202430">
        <ele>88.0</ele>
        <time>2021-05-15T18:05:53Z</time>
      </trkpt>
      <trkpt lat="41.1524810" lon="-8.6202610">
        <ele>87.9</ele>
        <time>2021-05-15T18:05:54Z</time>
      </trkpt>
      <trkpt lat="41.1524850" lon="-8.6202770">
        <ele>87.8</ele>
        <time>2021-05-15T18:05:55Z</time>
      </trkpt>
      <trkpt lat="41.1524880" lon="-8.6202940">
        <ele>87.7</ele>
        <time>2021-05-15T18:05:56Z</time>
      </trkpt>
      <trkpt lat="41.1524880" lon="-8.6203090">
        <ele>87.7</ele>
        <time>2021-05-15T18:05:57Z</time>
      </trkpt>
      <trkpt lat="41.1524950" lon="-8.6203300">
        <ele>87.6</ele>
        <time>2021-05-15T18:05:58Z</time>
      </trkpt>
      <trkpt lat="41.1525020" lon="-8.6203460">
        <ele>87.5</ele>
        <time>2021-05-15T18:05:59Z</time>
      </trkpt>
      <trkpt lat="41.1524980" lon="-8.6203530">
        <ele>87.4</ele>
        <time>2021-05-15T18:06:00Z</time>
      </trkpt>
      <trkpt lat="41.1524950" lon="-8.6203560">
        <ele>87.4</ele>
        <time>2021-05-15T18:06:01Z</time>
      </trkpt>
      <trkpt lat="41.1524920" lon="-8.6203800">
        <ele>87.3</ele>
        <time>2021-05-15T18:06:02Z</time>
      </trkpt>
      <trkpt lat="41.1524960" lon="-8.6204000">
        <ele>87.2</ele>
        <time>2021-05-15T18:06:03Z</time>
      </trkpt>
      <trkpt lat="41.1525060" lon="-8.6204200">
        <ele>87.1</ele>
        <time>2021-05-15T18:06:04Z</time>
      </trkpt>
      <trkpt lat="41.1525090" lon="-8.6204340">
        <ele>87.0</ele>
        <time>2021-05-15T18:06:05Z</time>
      </trkpt>
      <trkpt lat="41.1525160" lon="-8.6204560">
        <ele>86.9</ele>
        <time>2021-05-15T18:06:06Z</time>
      </trkpt>
      <trkpt lat="41.1525250" lon="-8.6204820">
        <ele>86.8</ele>
        <time>2021-05-15T18:06:07Z</time>
      </trkpt>
      <trkpt lat="41.1525240" lon="-8.6204970">
        <ele>86.7</ele>
        <time>2021-05-15T18:06:08Z</time>
      </trkpt>
      <trkpt lat="41.1525220" lon="-8.6205420">
        <ele>86.5</ele>
        <time>2021-05-15T18:06:09Z</time>
      </trkpt>
      <trkpt lat="41.1525200" lon="-8.6205590">
        <ele>86.5</ele>
        <time>2021-05-15T18:06:10Z</time>
      </trkpt>
      <trkpt lat="41.1525290" lon="-8.6205860">
        <ele>86.4</ele>
        <time>2021-05-15T18:06:11Z</time>
      </trkpt>
      <trkpt lat="41.1525210" lon="-8.6205980">
        <ele>86.3</ele>
        <time>2021-05-15T18:06:12Z</time>
      </trkpt>
      <trkpt lat="41.1525320" lon="-8.6206240">
        <ele>86.2</ele>
        <time>2021-05-15T18:06:13Z</time>
      </trkpt>
      <trkpt lat="41.1525300" lon="-8.6206410">
        <ele>86.1</ele>
        <time>2021-05-15T18:06:14Z</time>
      </trkpt>
      <trkpt lat="41.1525370" lon="-8.6206600">
        <ele>86.1</ele>
        <time>2021-05-15T18:06:15Z</time>
      </trkpt>
      <trkpt lat="41.1525480" lon="-8.6206750">
        <ele>86.0</ele>
        <time>2021-05-15T18:06:16Z</time>
      </trkpt>
      <trkpt lat="41.1525580" lon="-8.6206960">
        <ele>85.9</ele>
        <time>2021-05-15T18:06:17Z</time>
      </trkpt>
      <trkpt lat="41.1525610" lon="-8.6207120">
        <ele>85.9</ele>
        <time>2021-05-15T18:06:18Z</time>
      </trkpt>
      <trkpt lat="41.1525750" lon="-8.6207470">
        <ele>85.7</ele>
        <time>2021-05-15T18:06:19Z</time>
      </trkpt>
      <trkpt lat="41.1525770" lon="-8.6207580">
        <ele>85.7</ele>
        <time>2021-05-15T18:06:20Z</time>
      </trkpt>
      <trkpt lat="41.1525900" lon="-8.6207910">
        <ele>85.5</ele>
        <time>2021-05-15T18:06:21Z</time>
      </trkpt>
      <trkpt lat="41.1525930" lon="-8.6208040">
        <ele>85.5</ele>
        <time>2021-05-15T18:06:22Z</time>
      </trkpt>
      <trkpt lat="41.1526020" lon="-8.6208190">
        <ele>85.4</ele>
        <time>2021-05-15T18:06:23Z</time>
      </trkpt>
      <trkpt lat="41.1526120" lon="-8.6208390">
        <ele>85.3</ele>
        <time>2021-05-15T18:06:24Z</time>
      </trkpt>
      <trkpt lat="41.1526160" lon="-8.6208650">
        <ele>85.1</ele>
        <time>2021-05-15T18:06:25Z</time>
      </trkpt>
      <trkpt lat="41.1526280" lon="-8.6208780">
        <ele>85.0</ele>
        <time>2021-05-15T18:06:26Z</time>
      </trkpt>
      <trkpt lat="41.1526400" lon="-8.6208910">
        <ele>84.9</ele>
        <time>2021-05-15T18:06:27Z</time>
      </trkpt>
      <trkpt lat="41.1526470" lon="-8.6209080">
        <ele>84.8</ele>
        <time>2021-05-15T18:06:28Z</time>
      </trkpt>
      <trkpt lat="41.1526460" lon="-8.6209270">
        <ele>84.7</ele>
        <time>2021-05-15T18:06:29Z</time>
      </trkpt>
      <trkpt lat="41.1526430" lon="-8.6209380">
        <ele>84.7</ele>
        <time>2021-05-15T18:06:30Z</time>
      </trkpt>
      <trkpt lat="41.1526400" lon="-8.6209480">
        <ele>84.6</ele>
        <time>2021-05-15T18:06:31Z</time>
      </trkpt>
      <trkpt lat="41.1526370" lon="-8.6209580">
        <ele>84.5</ele>
        <time>2021-05-15T18:06:32Z</time>
      </trkpt>
      <trkpt lat="41.1526290" lon="-8.6209710">
        <ele>84.5</ele>
        <time>2021-05-15T18:06:33Z</time>
      </trkpt>
      <trkpt lat="41.1526230" lon="-8.6209890">
        <ele>84.3</ele>
        <time>2021-05-15T18:06:34Z</time>
      </trkpt>
      <trkpt lat="41.1526230" lon="-8.6210050">
        <ele>84.2</ele>
        <time>2021-05-15T18:06:35Z</time>
      </trkpt>
      <trkpt lat="41.1526200" lon="-8.6210100">
        <ele>84.2</ele>
        <time>2021-05-15T18:06:36Z</time>
      </trkpt>
      <trkpt lat="41.1526200" lon="-8.6210120">
        <ele>84.2</ele>
        <time>2021-05-15T18:06:37Z</time>
      </trkpt>
      <trkpt lat="41.1526200" lon="-8.6210360">
        <ele>84.1</ele>
        <time>2021-05-15T18:06:38Z</time>
      </trkpt>
      <trkpt lat="41.1526210" lon="-8.6210490">
        <ele>84.0</ele>
        <time>2021-05-15T18:06:39Z</time>
      </trkpt>
      <trkpt lat="41.1526280" lon="-8.6210700">
        <ele>83.8</ele>
        <time>2021-05-15T18:06:40Z</time>
      </trkpt>
      <trkpt lat="41.1526240" lon="-8.6210830">
        <ele>83.8</ele>
        <time>2021-05-15T18:06:41Z</time>
      </trkpt>
      <trkpt lat="41.1526280" lon="-8.6211000">
        <ele>83.6</ele>
        <time>2021-05-15T18:06:42Z</time>
      </trkpt>
      <trkpt lat="41.1526260" lon="-8.6211160">
        <ele>83.5</ele>
        <time>2021-05-15T18:06:43Z</time>
      </trkpt>
      <trkpt lat="41.1526260" lon="-8.6211370">
        <ele>83.4</ele>
        <time>2021-05-15T18:06:44Z</time>
      </trkpt>
      <trkpt lat="41.1526230" lon="-8.6211550">
        <ele>83.3</ele>
        <time>2021-05-15T18:06:45Z</time>
      </trkpt>
      <trkpt lat="41.1526230" lon="-8.6211680">
        <ele>83.2</ele>
        <time>2021-05-15T18:06:46Z</time>
      </trkpt>
      <trkpt lat="41.1526210" lon="-8.6211910">
        <ele>83.1</ele>
        <time>2021-05-15T18:06:47Z</time>
      </trkpt>
      <trkpt lat="41.1526270" lon="-8.6212340">
        <ele>82.8</ele>
        <time>2021-05-15T18:06:48Z</time>
      </trkpt>
      <trkpt lat="41.1526250" lon="-8.6212430">
        <ele>82.7</ele>
        <time>2021-05-15T18:06:49Z</time>
      </trkpt>
      <trkpt lat="41.1526230" lon="-8.6212650">
        <ele>82.6</ele>
        <time>2021-05-15T18:06:50Z</time>
      </trkpt>
      <trkpt lat="41.1526230" lon="-8.6212860">
        <ele>82.5</ele>
        <time>2021-05-15T18:06:51Z</time>
      </trkpt>
      <trkpt lat="41.1526220" lon="-8.6213050">
        <ele>82.3</ele>
        <time>2021-05-15T18:06:52Z</time>
      </trkpt>
      <trkpt lat="41.1526260" lon="-8.6213240">
        <ele>82.2</ele>
        <time>2021-05-15T18:06:53Z</time>
      </trkpt>
      <trkpt lat="41.1526260" lon="-8.6213360">
        <ele>82.1</ele>
        <time>2021-05-15T18:06:54Z</time>
      </trkpt>
      <trkpt lat="41.1526260" lon="-8.6213690">
        <ele>81.9</ele>
        <time>2021-05-15T18:06:55Z</time>
      </trkpt>
      <trkpt lat="41.1526230" lon="-8.6213900">
        <ele>81.8</ele>
        <time>2021-05-15T18:06:56Z</time>
      </trkpt>
      <trkpt lat="41.1526190" lon="-8.6213990">
        <ele>81.7</ele>
        <time>2021-05-15T18:06:57Z</time>
      </trkpt>
      <trkpt lat="41.1526180" lon="-8.6214160">
        <ele>81.6</ele>
        <time>2021-05-15T18:06:58Z</time>
      </trkpt>
      <trkpt lat="41.1526270" lon="-8.6214160">
        <ele>81.6</ele>
        <time>2021-05-15T18:06:59Z</time>
      </trkpt>
      <trkpt lat="41.1526340" lon="-8.6214450">
        <ele>81.4</ele>
        <time>2021-05-15T18:07:00Z</time>
      </trkpt>
      <trkpt lat="41.1526580" lon="-8.6214740">
        <ele>81.1</ele>
        <time>2021-05-15T18:07:01Z</time>
      </trkpt>
      <trkpt lat="41.1526640" lon="-8.6214920">
        <ele>81.0</ele>
        <time>2021-05-15T18:07:02Z</time>
      </trkpt>
      <trkpt lat="41.1526820" lon="-8.6215110">
        <ele>80.9</ele>
        <time>2021-05-15T18:07:03Z</time>
      </trkpt>
      <trkpt lat="41.1526870" lon="-8.6215210">
        <ele>80.8</ele>
        <time>2021-05-15T18:07:04Z</time>
      </trkpt>
      <trkpt lat="41.1526930" lon="-8.6215350">
        <ele>80.7</ele>
        <time>2021-05-15T18:07:05Z</time>
      </trkpt>
      <trkpt lat="41.1526920" lon="-8.6215390">
        <ele>80.7</ele>
        <time>2021-05-15T18:07:06Z</time>
      </trkpt>
      <trkpt lat="41.1527030" lon="-8.6215640">
        <ele>80.5</ele>
        <time>2021-05-15T18:07:07Z</time>
      </trkpt>
      <trkpt lat="41.1527080" lon="-8.6215780">
        <ele>80.4</ele>
        <time>2021-05-15T18:07:08Z</time>
      </trkpt>
      <trkpt lat="41.1527090" lon="-8.6216000">
        <ele>80.3</ele>
        <time>2021-05-15T18:07:09Z</time>
      </trkpt>
      <trkpt lat="41.1527140" lon="-8.6216340">
        <ele>80.1</ele>
        <time>2021-05-15T18:07:10Z</time>
      </trkpt>
      <trkpt lat="41.1527180" lon="-8.6216460">
        <ele>80.0</ele>
        <time>2021-05-15T18:07:11Z</time>
      </trkpt>
      <trkpt lat="41.1527380" lon="-8.6216750">
        <ele>79.8</ele>
        <time>2021-05-15T18:07:12Z</time>
      </trkpt>
      <trkpt lat="41.1527460" lon="-8.6216850">
        <ele>79.8</ele>
        <time>2021-05-15T18:07:13Z</time>
      </trkpt>
      <trkpt lat="41.1527690" lon="-8.6217050">
        <ele>79.6</ele>
        <time>2021-05-15T18:07:14Z</time>
      </trkpt>
      <trkpt lat="41.1527790" lon="-8.6217120">
        <ele>79.5</ele>
        <time>2021-05-15T18:07:15Z</time>
      </trkpt>
      <trkpt lat="41.1527990" lon="-8.6217340">
        <ele>79.3</ele>
        <time>2021-05-15T18:07:16Z</time>
      </trkpt>
      <trkpt lat="41.1528050" lon="-8.6217450">
        <ele>79.2</ele>
        <time>2021-05-15T18:07:17Z</time>
      </trkpt>
      <trkpt lat="41.1528120" lon="-8.6217550">
        <ele>79.2</ele>
        <time>2021-05-15T18:07:18Z</time>
      </trkpt>
      <trkpt lat="41.1528290" lon="-8.6217760">
        <ele>79.0</ele>
        <time>2021-05-15T18:07:19Z</time>
      </trkpt>
      <trkpt lat="41.1528330" lon="-8.6217880">
        <ele>78.9</ele>
        <time>2021-05-15T18:07:20Z</time>
      </trkpt>
      <trkpt lat="41.1528360" lon="-8.6217990">
        <ele>78.9</ele>
        <time>2021-05-15T18:07:21Z</time>
      </trkpt>
      <trkpt lat="41.1528450" lon="-8.6218260">
        <ele>78.8</ele>
        <time>2021-05-15T18:07:22Z</time>
      </trkpt>
      <trkpt lat="41.1528480" lon="-8.6218370">
        <ele>78.7</ele>
        <time>2021-05-15T18:07:23Z</time>
      </trkpt>
      <trkpt lat="41.1528500" lon="-8.6218490">
        <ele>78.6</ele>
        <time>2021-05-15T18:07:24Z</time>
      </trkpt>
      <trkpt lat="41.1528530" lon="-8.6218830">
        <ele>78.5</ele>
        <time>2021-05-15T18:07:25Z</time>
      </trkpt>
      <trkpt lat="41.1528540" lon="-8.6218930">
        <ele>78.4</ele>
        <time>2021-05-15T18:07:26Z</time>
      </trkpt>
      <trkpt lat="41.1528560" lon="-8.6219030">
        <ele>78.4</ele>
        <time>2021-05-15T18:07:27Z</time>
      </trkpt>
      <trkpt lat="41.1528540" lon="-8.6219200">
        <ele>78.3</ele>
        <time>2021-05-15T18:07:28Z</time>
      </trkpt>
      <trkpt lat="41.1528550" lon="-8.6219420">
        <ele>78.2</ele>
        <time>2021-05-15T18:07:29Z</time>
      </trkpt>
      <trkpt lat="41.1528590" lon="-8.6219650">
        <ele>78.1</ele>
        <time>2021-05-15T18:07:30Z</time>
      </trkpt>
      <trkpt lat="41.1528590" lon="-8.6219890">
        <ele>78.0</ele>
        <time>2021-05-15T18:07:31Z</time>
      </trkpt>
      <trkpt lat="41.1528610" lon="-8.6220160">
        <ele>77.9</ele>
        <time>2021-05-15T18:07:32Z</time>
      </trkpt>
      <trkpt lat="41.1528540" lon="-8.6220300">
        <ele>77.8</ele>
        <time>2021-05-15T18:07:33Z</time>
      </trkpt>
      <trkpt lat="41.1528580" lon="-8.6220690">
        <ele>77.6</ele>
        <time>2021-05-15T18:07:34Z</time>
      </trkpt>
      <trkpt lat="41.1528610" lon="-8.6220820">
        <ele>77.5</ele>
        <time>2021-05-15T18:07:35Z</time>
      </trkpt>
      <trkpt lat="41.1528610" lon="-8.6221030">
        <ele>77.5</ele>
        <time>2021-05-15T18:07:36Z</time>
      </trkpt>
      <trkpt lat="41.1528580" lon="-8.6221060">
        <ele>77.4</ele>
        <time>2021-05-15T18:07:37Z</time>
      </trkpt>
      <trkpt lat="41.1528630" lon="-8.6221300">
        <ele>77.3</ele>
        <time>2021-05-15T18:07:38Z</time>
      </trkpt>
      <trkpt lat="41.1528640" lon="-8.6221430">
        <ele>77.3</ele>
        <time>2021-05-15T18:07:39Z</time>
      </trkpt>
      <trkpt lat="41.1528640" lon="-8.6221530">
        <ele>77.2</ele>
        <time>2021-05-15T18:07:40Z</time>
      </trkpt>
      <trkpt lat="41.1528610" lon="-8.6221690">
        <ele>77.2</ele>
        <time>2021-05-15T18:07:41Z</time>
      </trkpt>
      <trkpt lat="41.1528600" lon="-8.6221880">
        <ele>77.1</ele>
        <time>2021-05-15T18:07:42Z</time>
      </trkpt>
      <trkpt lat="41.1528550" lon="-8.6222080">
        <ele>77.0</ele>
        <time>2021-05-15T18:07:43Z</time>
      </trkpt>
      <trkpt lat="41.1528500" lon="-8.6222300">
        <ele>76.9</ele>
        <time>2021-05-15T18:07:44Z</time>
      </trkpt>
      <trkpt lat="41.1528410" lon="-8.6222530">
        <ele>76.8</ele>
        <time>2021-05-15T18:07:45Z</time>
      </trkpt>
      <trkpt lat="41.1528340" lon="-8.6222630">
        <ele>76.7</ele>
        <time>2021-05-15T18:07:46Z</time>
      </trkpt>
      <trkpt lat="41.1528280" lon="-8.6222740">
        <ele>76.6</ele>
        <time>2021-05-15T18:07:47Z</time>
      </trkpt>
      <trkpt lat="41.1528220" lon="-8.6222930">
        <ele>76.6</ele>
        <time>2021-05-15T18:07:48Z</time>
      </trkpt>
      <trkpt lat="41.1528140" lon="-8.6223080">
        <ele>76.5</ele>
        <time>2021-05-15T18:07:49Z</time>
      </trkpt>
      <trkpt lat="41.1528120" lon="-8.6223280">
        <ele>76.4</ele>
        <time>2021-05-15T18:07:50Z</time>
      </trkpt>
      <trkpt lat="41.1528080" lon="-8.6223440">
        <ele>76.3</ele>
        <time>2021-05-15T18:07:51Z</time>
      </trkpt>
      <trkpt lat="41.1527980" lon="-8.6223710">
        <ele>76.2</ele>
        <time>2021-05-15T18:07:52Z</time>
      </trkpt>
      <trkpt lat="41.1527930" lon="-8.6223820">
        <ele>76.1</ele>
        <time>2021-05-15T18:07:53Z</time>
      </trkpt>
      <trkpt lat="41.1528030" lon="-8.6224050">
        <ele>76.0</ele>
        <time>2021-05-15T18:07:54Z</time>
      </trkpt>
      <trkpt lat="41.1528060" lon="-8.6224190">
        <ele>75.9</ele>
        <time>2021-05-15T18:07:55Z</time>
      </trkpt>
      <trkpt lat="41.1528100" lon="-8.6224320">
        <ele>75.9</ele>
        <time>2021-05-15T18:07:56Z</time>
      </trkpt>
      <trkpt lat="41.1528140" lon="-8.6224490">
        <ele>75.8</ele>
        <time>2021-05-15T18:07:57Z</time>
      </trkpt>
      <trkpt lat="41.1528180" lon="-8.6224640">
        <ele>75.7</ele>
        <time>2021-05-15T18:07:58Z</time>
      </trkpt>
      <trkpt lat="41.1528220" lon="-8.6224640">
        <ele>75.7</ele>
        <time>2021-05-15T18:07:59Z</time>
      </trkpt>
      <trkpt lat="41.1528250" lon="-8.6224870">
        <ele>75.6</ele>
        <time>2021-05-15T18:08:00Z</time>
      </trkpt>
      <trkpt lat="41.1528200" lon="-8.6225080">
        <ele>75.5</ele>
        <time>2021-05-15T18:08:01Z</time>
      </trkpt>
      <trkpt lat="41.1528220" lon="-8.6225280">
        <ele>75.4</ele>
        <time>2021-05-15T18:08:02Z</time>
      </trkpt>
      <trkpt lat="41.1528210" lon="-8.6225360">
        <ele>75.4</ele>
        <time>2021-05-15T18:08:03Z</time>
      </trkpt>
      <trkpt lat="41.1528200" lon="-8.6225500">
        <ele>75.3</ele>
        <time>2021-05-15T18:08:04Z</time>
      </trkpt>
      <trkpt lat="41.1528100" lon="-8.6225690">
        <ele>75.2</ele>
        <time>2021-05-15T18:08:05Z</time>
      </trkpt>
      <trkpt lat="41.1528070" lon="-8.6225830">
        <ele>75.2</ele>
        <time>2021-05-15T18:08:06Z</time>
      </trkpt>
      <trkpt lat="41.1528030" lon="-8.6226080">
        <ele>75.1</ele>
        <time>2021-05-15T18:08:07Z</time>
      </trkpt>
      <trkpt lat="41.1527990" lon="-8.6226230">
        <ele>75.0</ele>
        <time>2021-05-15T18:08:08Z</time>
      </trkpt>
      <trkpt lat="41.1527960" lon="-8.6226410">
        <ele>74.9</ele>
        <time>2021-05-15T18:08:09Z</time>
      </trkpt>
      <trkpt lat="41.1527900" lon="-8.6226510">
        <ele>74.9</ele>
        <time>2021-05-15T18:08:10Z</time>
      </trkpt>
      <trkpt lat="41.1527910" lon="-8.6226680">
        <ele>74.8</ele>
        <time>2021-05-15T18:08:11Z</time>
      </trkpt>
      <trkpt lat="41.1527930" lon="-8.6226810">
        <ele>74.7</ele>
        <time>2021-05-15T18:08:12Z</time>
      </trkpt>
      <trkpt lat="41.1527990" lon="-8.6226980">
        <ele>74.6</ele>
        <time>2021-05-15T18:08:13Z</time>
      </trkpt>
      <trkpt lat="41.1528050" lon="-8.6227000">
        <ele>74.6</ele>
        <time>2021-05-15T18:08:14Z</time>
      </trkpt>
      <trkpt lat="41.1527980" lon="-8.6227280">
        <ele>74.5</ele>
        <time>2021-05-15T18:08:15Z</time>
      </trkpt>
      <trkpt lat="41.1527910" lon="-8.6227390">
        <ele>74.4</ele>
        <time>2021-05-15T18:08:16Z</time>
      </trkpt>
      <trkpt lat="41.1528050" lon="-8.6227600">
        <ele>74.3</ele>
        <time>2021-05-15T18:08:17Z</time>
      </trkpt>
      <trkpt lat="41.1528130" lon="-8.6227710">
        <ele>74.3</ele>
        <time>2021-05-15T18:08:18Z</time>
      </trkpt>
      <trkpt lat="41.1528220" lon="-8.6227820">
        <ele>74.2</ele>
        <time>2021-05-15T18:08:19Z</time>
      </trkpt>
      <trkpt lat="41.1528330" lon="-8.6227940">
        <ele>74.1</ele>
        <time>2021-05-15T18:08:20Z</time>
      </trkpt>
      <trkpt lat="41.1528280" lon="-8.6228150">
        <ele>74.0</ele>
        <time>2021-05-15T18:08:21Z</time>
      </trkpt>
      <trkpt lat="41.1528390" lon="-8.6228240">
        <ele>73.9</ele>
        <time>2021-05-15T18:08:22Z</time>
      </trkpt>
      <trkpt lat="41.1528430" lon="-8.6228450">
        <ele>73.9</ele>
        <time>2021-05-15T18:08:23Z</time>
      </trkpt>
      <trkpt lat="41.1528410" lon="-8.6228540">
        <ele>73.8</ele>
        <time>2021-05-15T18:08:24Z</time>
      </trkpt>
      <trkpt lat="41.1528400" lon="-8.6228670">
        <ele>73.8</ele>
        <time>2021-05-15T18:08:25Z</time>
      </trkpt>
      <trkpt lat="41.1528290" lon="-8.6228910">
        <ele>73.7</ele>
        <time>2021-05-15T18:08:26Z</time>
      </trkpt>
      <trkpt lat="41.1528260" lon="-8.6228980">
        <ele>73.6</ele>
        <time>2021-05-15T18:08:27Z</time>
      </trkpt>
      <trkpt lat="41.1528240" lon="-8.6229050">
        <ele>73.6</ele>
        <time>2021-05-15T18:08:28Z</time>
      </trkpt>
      <trkpt lat="41.1528210" lon="-8.6229120">
        <ele>73.6</ele>
        <time>2021-05-15T18:08:29Z</time>
      </trkpt>
      <trkpt lat="41.1528140" lon="-8.6229320">
        <ele>73.5</ele>
        <time>2021-05-15T18:08:30Z</time>
      </trkpt>
      <trkpt lat="41.1528040" lon="-8.6229530">
        <ele>73.4</ele>
        <time>2021-05-15T18:08:31Z</time>
      </trkpt>
      <trkpt lat="41.1528120" lon="-8.6229750">
        <ele>73.4</ele>
        <time>2021-05-15T18:08:32Z</time>
      </trkpt>
      <trkpt lat="41.1528100" lon="-8.6229990">
        <ele>73.3</ele>
        <time>2021-05-15T18:08:33Z</time>
      </trkpt>
      <trkpt lat="41.1528060" lon="-8.6230430">
        <ele>73.1</ele>
        <time>2021-05-15T18:08:34Z</time>
      </trkpt>
      <trkpt lat="41.1528030" lon="-8.6230540">
        <ele>73.1</ele>
        <time>2021-05-15T18:08:35Z</time>
      </trkpt>
      <trkpt lat="41.1527930" lon="-8.6230940">
        <ele>73.0</ele>
        <time>2021-05-15T18:08:36Z</time>
      </trkpt>
      <trkpt lat="41.1527870" lon="-8.6231090">
        <ele>72.9</ele>
        <time>2021-05-15T18:08:37Z</time>
      </trkpt>
      <trkpt lat="41.1527820" lon="-8.6231450">
        <ele>72.8</ele>
        <time>2021-05-15T18:08:38Z</time>
      </trkpt>
      <trkpt lat="41.1527910" lon="-8.6231870">
        <ele>72.6</ele>
        <time>2021-05-15T18:08:39Z</time>
      </trkpt>
      <trkpt lat="41.1527900" lon="-8.6231970">
        <ele>72.6</ele>
        <time>2021-05-15T18:08:40Z</time>
      </trkpt>
      <trkpt lat="41.1527870" lon="-8.6232160">
        <ele>72.5</ele>
        <time>2021-05-15T18:08:41Z</time>
      </trkpt>
      <trkpt lat="41.1527910" lon="-8.6232350">
        <ele>72.5</ele>
        <time>2021-05-15T18:08:42Z</time>
      </trkpt>
      <trkpt lat="41.1527980" lon="-8.6232510">
        <ele>72.4</ele>
        <time>2021-05-15T18:08:43Z</time>
      </trkpt>
      <trkpt lat="41.1528040" lon="-8.6232720">
        <ele>72.3</ele>
        <time>2021-05-15T18:08:44Z</time>
      </trkpt>
      <trkpt lat="41.1528100" lon="-8.6232920">
        <ele>72.3</ele>
        <time>2021-05-15T18:08:45Z</time>
      </trkpt>
      <trkpt lat="41.1528090" lon="-8.6233110">
        <ele>72.2</ele>
        <time>2021-05-15T18:08:46Z</time>
      </trkpt>
      <trkpt lat="41.1528110" lon="-8.6233320">
        <ele>72.1</ele>
        <time>2021-05-15T18:08:47Z</time>
      </trkpt>
      <trkpt lat="41.1528110" lon="-8.6233540">
        <ele>72.1</ele>
        <time>2021-05-15T18:08:48Z</time>
      </trkpt>
      <trkpt lat="41.1528130" lon="-8.6233700">
        <ele>72.0</ele>
        <time>2021-05-15T18:08:49Z</time>
      </trkpt>
      <trkpt lat="41.1528190" lon="-8.6233850">
        <ele>72.0</ele>
        <time>2021-05-15T18:08:50Z</time>
      </trkpt>
      <trkpt lat="41.1528140" lon="-8.6233990">
        <ele>71.9</ele>
        <time>2021-05-15T18:08:51Z</time>
      </trkpt>
      <trkpt lat="41.1528200" lon="-8.6234170">
        <ele>71.9</ele>
        <time>2021-05-15T18:08:52Z</time>
      </trkpt>
      <trkpt lat="41.1528260" lon="-8.6234390">
        <ele>71.8</ele>
        <time>2021-05-15T18:08:53Z</time>
      </trkpt>
      <trkpt lat="41.1528210" lon="-8.6234680">
        <ele>71.7</ele>
        <time>2021-05-15T18:08:54Z</time>
      </trkpt>
      <trkpt lat="41.1528190" lon="-8.6234780">
        <ele>71.7</ele>
        <time>2021-05-15T18:08:55Z</time>
      </trkpt>
      <trkpt lat="41.1528170" lon="-8.6234880">
        <ele>71.7</ele>
        <time>2021-05-15T18:08:56Z</time>
      </trkpt>
      <trkpt lat="41.1528180" lon="-8.6234970">
        <ele>71.6</ele>
        <time>2021-05-15T18:08:57Z</time>
      </trkpt>
      <trkpt lat="41.1528190" lon="-8.6235130">
        <ele>71.6</ele>
        <time>2021-05-15T18:08:58Z</time>
      </trkpt>
      <trkpt lat="41.1528160" lon="-8.6235310">
        <ele>71.5</ele>
        <time>2021-05-15T18:08:59Z</time>
      </trkpt>
      <trkpt lat="41.1528190" lon="-8.6235540">
        <ele>71.5</ele>
        <time>2021-05-15T18:09:00Z</time>
      </trkpt>
      <trkpt lat="41.1528240" lon="-8.6235680">
        <ele>71.4</ele>
        <time>2021-05-15T18:09:01Z</time>
      </trkpt>
      <trkpt lat="41.1528280" lon="-8.6235830">
        <ele>71.4</ele>
        <time>2021-05-15T18:09:02Z</time>
      </trkpt>
      <trkpt lat="41.1528320" lon="-8.6236020">
        <ele>71.4</ele>
        <time>2021-05-15T18:09:03Z</time>
      </trkpt>
      <trkpt lat="41.1528340" lon="-8.6236160">
        <ele>71.3</ele>
        <time>2021-05-15T18:09:04Z</time>
      </trkpt>
      <trkpt lat="41.1528370" lon="-8.6236300">
        <ele>71.3</ele>
        <time>2021-05-15T18:09:05Z</time>
      </trkpt>
      <trkpt lat="41.1528310" lon="-8.6236540">
        <ele>71.2</ele>
        <time>2021-05-15T18:09:06Z</time>
      </trkpt>
      <trkpt lat="41.1528270" lon="-8.6236660">
        <ele>71.2</ele>
        <time>2021-05-15T18:09:07Z</time>
      </trkpt>
      <trkpt lat="41.1528230" lon="-8.6236770">
        <ele>71.2</ele>
        <time>2021-05-15T18:09:08Z</time>
      </trkpt>
      <trkpt lat="41.1528250" lon="-8.6237010">
        <ele>71.1</ele>
        <time>2021-05-15T18:09:09Z</time>
      </trkpt>
      <trkpt lat="41.1528250" lon="-8.6237150">
        <ele>71.1</ele>
        <time>2021-05-15T18:09:10Z</time>
      </trkpt>
      <trkpt lat="41.1528260" lon="-8.6237300">
        <ele>71.1</ele>
        <time>2021-05-15T18:09:11Z</time>
      </trkpt>
      <trkpt lat="41.1528260" lon="-8.6237420">
        <ele>71.0</ele>
        <time>2021-05-15T18:09:12Z</time>
      </trkpt>
      <trkpt lat="41.1528240" lon="-8.6237680">
        <ele>71.0</ele>
        <time>2021-05-15T18:09:13Z</time>
      </trkpt>
      <trkpt lat="41.1528210" lon="-8.6237950">
        <ele>70.9</ele>
        <time>2021-05-15T18:09:14Z</time>
      </trkpt>
      <trkpt lat="41.1528160" lon="-8.6238110">
        <ele>70.9</ele>
        <time>2021-05-15T18:09:15Z</time>
      </trkpt>
      <trkpt lat="41.1528120" lon="-8.6238420">
        <ele>70.8</ele>
        <time>2021-05-15T18:09:16Z</time>
      </trkpt>
      <trkpt lat="41.1528130" lon="-8.6238500">
        <ele>70.8</ele>
        <time>2021-05-15T18:09:17Z</time>
      </trkpt>
      <trkpt lat="41.1528200" lon="-8.6238740">
        <ele>70.8</ele>
        <time>2021-05-15T18:09:18Z</time>
      </trkpt>
      <trkpt lat="41.1528210" lon="-8.6238860">
        <ele>70.8</ele>
        <time>2021-05-15T18:09:19Z</time>
      </trkpt>
      <trkpt lat="41.1528230" lon="-8.6238980">
        <ele>70.7</ele>
        <time>2021-05-15T18:09:20Z</time>
      </trkpt>
      <trkpt lat="41.1528090" lon="-8.6239410">
        <ele>70.7</ele>
        <time>2021-05-15T18:09:21Z</time>
      </trkpt>
      <trkpt lat="41.1528040" lon="-8.6239540">
        <ele>70.6</ele>
        <time>2021-05-15T18:09:22Z</time>
      </trkpt>
      <trkpt lat="41.1527840" lon="-8.6239840">
        <ele>70.6</ele>
        <time>2021-05-15T18:09:23Z</time>
      </trkpt>
      <trkpt lat="41.1527820" lon="-8.6239920">
        <ele>70.5</ele>
        <time>2021-05-15T18:09:24Z</time>
      </trkpt>
      <trkpt lat="41.1527710" lon="-8.6240190">
        <ele>70.5</ele>
        <time>2021-05-15T18:09:25Z</time>
      </trkpt>
      <trkpt lat="41.1527800" lon="-8.6240290">
        <ele>70.5</ele>
        <time>2021-05-15T18:09:26Z</time>
      </trkpt>
      <trkpt lat="41.1527960" lon="-8.6240340">
        <ele>70.4</ele>
        <time>2021-05-15T18:09:27Z</time>
      </trkpt>
      <trkpt lat="41.1527970" lon="-8.6240470">
        <ele>70.4</ele>
        <time>2021-05-15T18:09:28Z</time>
      </trkpt>
      <trkpt lat="41.1528030" lon="-8.6240660">
        <ele>70.4</ele>
        <time>2021-05-15T18:09:29Z</time>
      </trkpt>
      <trkpt lat="41.1528130" lon="-8.6240910">
        <ele>70.4</ele>
        <time>2021-05-15T18:09:30Z</time>
      </trkpt>
      <trkpt lat="41.1528190" lon="-8.6241010">
        <ele>70.4</ele>
        <time>2021-05-15T18:09:31Z</time>
      </trkpt>
      <trkpt lat="41.1528240" lon="-8.6241120">
        <ele>70.3</ele>
        <time>2021-05-15T18:09:32Z</time>
      </trkpt>
      <trkpt lat="41.1528290" lon="-8.6241280">
        <ele>70.3</ele>
        <time>2021-05-15T18:09:33Z</time>
      </trkpt>
      <trkpt lat="41.1528300" lon="-8.6241400">
        <ele>70.2</ele>
        <time>2021-05-15T18:09:34Z</time>
      </trkpt>
      <trkpt lat="41.1528320" lon="-8.6241500">
        <ele>70.2</ele>
        <time>2021-05-15T18:09:35Z</time>
      </trkpt>
      <trkpt lat="41.1528280" lon="-8.6241660">
        <ele>70.2</ele>
        <time>2021-05-15T18:09:36Z</time>
      </trkpt>
      <trkpt lat="41.1528340" lon="-8.6241840">
        <ele>70.2</ele>
        <time>2021-05-15T18:09:37Z</time>
      </trkpt>
      <trkpt lat="41.1528370" lon="-8.6241950">
        <ele>70.2</ele>
        <time>2021-05-15T18:09:38Z</time>
      </trkpt>
      <trkpt lat="41.1528320" lon="-8.6242210">
        <ele>70.2</ele>
        <time>2021-05-15T18:09:39Z</time>
      </trkpt>
      <trkpt lat="41.1528260" lon="-8.6242400">
        <ele>70.2</ele>
        <time>2021-05-15T18:09:40Z</time>
      </trkpt>
      <trkpt lat="41.1528260" lon="-8.6242480">
        <ele>70.1</ele>
        <time>2021-05-15T18:09:41Z</time>
      </trkpt>
      <trkpt lat="41.1528220" lon="-8.6242630">
        <ele>70.1</ele>
        <time>2021-05-15T18:09:42Z</time>
      </trkpt>
      <trkpt lat="41.1528230" lon="-8.6242790">
        <ele>70.1</ele>
        <time>2021-05-15T18:09:43Z</time>
      </trkpt>
      <trkpt lat="41.1528200" lon="-8.6242960">
        <ele>70.1</ele>
        <time>2021-05-15T18:09:44Z</time>
      </trkpt>
      <trkpt lat="41.1528170" lon="-8.6243140">
        <ele>70.1</ele>
        <time>2021-05-15T18:09:45Z</time>
      </trkpt>
      <trkpt lat="41.1528010" lon="-8.6243520">
        <ele>70.1</ele>
        <time>2021-05-15T18:09:46Z</time>
      </trkpt>
      <trkpt lat="41.1527980" lon="-8.6243610">
        <ele>70.0</ele>
        <time>2021-05-15T18:09:47Z</time>
      </trkpt>
      <trkpt lat="41.1527940" lon="-8.6243870">
        <ele>70.0</ele>
        <time>2021-05-15T18:09:48Z</time>
      </trkpt>
      <trkpt lat="41.1527930" lon="-8.6243990">
        <ele>70.0</ele>
        <time>2021-05-15T18:09:49Z</time>
      </trkpt>
      <trkpt lat="41.1527910" lon="-8.6244110">
        <ele>70.0</ele>
        <time>2021-05-15T18:09:50Z</time>
      </trkpt>
      <trkpt lat="41.1527820" lon="-8.6244490">
        <ele>70.0</ele>
        <time>2021-05-15T18:09:51Z</time>
      </trkpt>
      <trkpt lat="41.1527800" lon="-8.6244610">
        <ele>70.0</ele>
        <time>2021-05-15T18:09:52Z</time>
      </trkpt>
      <trkpt lat="41.1527720" lon="-8.6244790">
        <ele>69.9</ele>
        <time>2021-05-15T18:09:53Z</time>
      </trkpt>
      <trkpt lat="41.1527670" lon="-8.6244930">
        <ele>69.9</ele>
        <time>2021-05-15T18:09:54Z</time>
      </trkpt>
      <trkpt lat="41.1527570" lon="-8.6244980">
        <ele>69.9</ele>
        <time>2021-05-15T18:09:55Z</time>
      </trkpt>
      <trkpt lat="41.1527420" lon="-8.6245120">
        <ele>69.9</ele>
        <time>2021-05-15T18:09:56Z</time>
      </trkpt>
      <trkpt lat="41.1527400" lon="-8.6245280">
        <ele>69.9</ele>
        <time>2021-05-15T18:09:57Z</time>
      </trkpt>
      <trkpt lat="41.1527380" lon="-8.6245340">
        <ele>69.9</ele>
        <time>2021-05-15T18:09:58Z</time>
      </trkpt>
      <trkpt lat="41.1527490" lon="-8.6245540">
        <ele>69.8</ele>
        <time>2021-05-15T18:09:59Z</time>
      </trkpt>
      <trkpt lat="41.1527440" lon="-8.6245720">
        <ele>69.8</ele>
        <time>2021-05-15T18:10:00Z</time>
      </trkpt>
      <trkpt lat="41.1527410" lon="-8.6245900">
        <ele>69.8</ele>
        <time>2021-05-15T18:10:01Z</time>
      </trkpt>
      <trkpt lat="41.1527360" lon="-8.6246100">
        <ele>69.8</ele>
        <time>2021-05-15T18:10:02Z</time>
      </trkpt>
      <trkpt lat="41.1527270" lon="-8.6246290">
        <ele>69.7</ele>
        <time>2021-05-15T18:10:03Z</time>
      </trkpt>
      <trkpt lat="41.1527150" lon="-8.6246410">
        <ele>69.7</ele>
        <time>2021-05-15T18:10:04Z</time>
      </trkpt>
      <trkpt lat="41.1527100" lon="-8.6246590">
        <ele>69.7</ele>
        <time>2021-05-15T18:10:05Z</time>
      </trkpt>
      <trkpt lat="41.1527010" lon="-8.6246830">
        <ele>69.7</ele>
        <time>2021-05-15T18:10:06Z</time>
      </trkpt>
      <trkpt lat="41.1526960" lon="-8.6246940">
        <ele>69.7</ele>
        <time>2021-05-15T18:10:07Z</time>
      </trkpt>
      <trkpt lat="41.1526920" lon="-8.6247050">
        <ele>69.6</ele>
        <time>2021-05-15T18:10:08Z</time>
      </trkpt>
      <trkpt lat="41.1526790" lon="-8.6247250">
        <ele>69.6</ele>
        <time>2021-05-15T18:10:09Z</time>
      </trkpt>
      <trkpt lat="41.1526720" lon="-8.6247350">
        <ele>69.6</ele>
        <time>2021-05-15T18:10:10Z</time>
      </trkpt>
      <trkpt lat="41.1526660" lon="-8.6247460">
        <ele>69.6</ele>
        <time>2021-05-15T18:10:11Z</time>
      </trkpt>
      <trkpt lat="41.1526620" lon="-8.6247560">
        <ele>69.6</ele>
        <time>2021-05-15T18:10:12Z</time>
      </trkpt>
      <trkpt lat="41.1526670" lon="-8.6247700">
        <ele>69.5</ele>
        <time>2021-05-15T18:10:13Z</time>
      </trkpt>
      <trkpt lat="41.1526550" lon="-8.6247870">
        <ele>69.5</ele>
        <time>2021-05-15T18:10:14Z</time>
      </trkpt>
      <trkpt lat="41.1526380" lon="-8.6248220">
        <ele>69.5</ele>
        <time>2021-05-15T18:10:15Z</time>
      </trkpt>
      <trkpt lat="41.1526310" lon="-8.6248320">
        <ele>69.4</ele>
        <time>2021-05-15T18:10:16Z</time>
      </trkpt>
      <trkpt lat="41.1526090" lon="-8.6248560">
        <ele>69.4</ele>
        <time>2021-05-15T18:10:17Z</time>
      </trkpt>
      <trkpt lat="41.1526030" lon="-8.6248640">
        <ele>69.4</ele>
        <time>2021-05-15T18:10:18Z</time>
      </trkpt>
      <trkpt lat="41.1525910" lon="-8.6248890">
        <ele>69.3</ele>
        <time>2021-05-15T18:10:19Z</time>
      </trkpt>
      <trkpt lat="41.1525870" lon="-8.6248990">
        <ele>69.3</ele>
        <time>2021-05-15T18:10:20Z</time>
      </trkpt>
      <trkpt lat="41.1525820" lon="-8.6249090">
        <ele>69.3</ele>
        <time>2021-05-15T18:10:21Z</time>
      </trkpt>
      <trkpt lat="41.1525790" lon="-8.6249220">
        <ele>69.3</ele>
        <time>2021-05-15T18:10:22Z</time>
      </trkpt>
      <trkpt lat="41.1525780" lon="-8.6249360">
        <ele>69.3</ele>
        <time>2021-05-15T18:10:23Z</time>
      </trkpt>
      <trkpt lat="41.1525740" lon="-8.6249480">
        <ele>69.3</ele>
        <time>2021-05-15T18:10:24Z</time>
      </trkpt>
      <trkpt lat="41.1525760" lon="-8.6249770">
        <ele>69.2</ele>
        <time>2021-05-15T18:10:25Z</time>
      </trkpt>
      <trkpt lat="41.1525760" lon="-8.6249900">
        <ele>69.2</ele>
        <time>2021-05-15T18:10:26Z</time>
      </trkpt>
      <trkpt lat="41.1525760" lon="-8.6250020">
        <ele>69.2</ele>
        <time>2021-05-15T18:10:27Z</time>
      </trkpt>
      <trkpt lat="41.1525910" lon="-8.6250250">
        <ele>69.2</ele>
        <time>2021-05-15T18:10:28Z</time>
      </trkpt>
      <trkpt lat="41.1525820" lon="-8.6250470">
        <ele>69.1</ele>
        <time>2021-05-15T18:10:29Z</time>
      </trkpt>
      <trkpt lat="41.1525830" lon="-8.6250790">
        <ele>69.1</ele>
        <time>2021-05-15T18:10:30Z</time>
      </trkpt>
      <trkpt lat="41.1525810" lon="-8.6250950">
        <ele>69.1</ele>
        <time>2021-05-15T18:10:31Z</time>
      </trkpt>
      <trkpt lat="41.1525800" lon="-8.6251110">
        <ele>69.1</ele>
        <time>2021-05-15T18:10:32Z</time>
      </trkpt>
      <trkpt lat="41.1525740" lon="-8.6251280">
        <ele>69.1</ele>
        <time>2021-05-15T18:10:33Z</time>
      </trkpt>
      <trkpt lat="41.1525640" lon="-8.6251410">
        <ele>69.0</ele>
        <time>2021-05-15T18:10:34Z</time>
      </trkpt>
      <trkpt lat="41.1525620" lon="-8.6251560">
        <ele>69.0</ele>
        <time>2021-05-15T18:10:35Z</time>
      </trkpt>
      <trkpt lat="41.1525560" lon="-8.6251770">
        <ele>69.0</ele>
        <time>2021-05-15T18:10:36Z</time>
      </trkpt>
      <trkpt lat="41.1525530" lon="-8.6252010">
        <ele>69.0</ele>
        <time>2021-05-15T18:10:37Z</time>
      </trkpt>
      <trkpt lat="41.1525500" lon="-8.6252130">
        <ele>68.9</ele>
        <time>2021-05-15T18:10:38Z</time>
      </trkpt>
      <trkpt lat="41.1525480" lon="-8.6252260">
        <ele>68.9</ele>
        <time>2021-05-15T18:10:39Z</time>
      </trkpt>
      <trkpt lat="41.1525520" lon="-8.6252420">
        <ele>68.9</ele>
        <time>2021-05-15T18:10:40Z</time>
      </trkpt>
      <trkpt lat="41.1525520" lon="-8.6252590">
        <ele>68.9</ele>
        <time>2021-05-15T18:10:41Z</time>
      </trkpt>
      <trkpt lat="41.1525540" lon="-8.6252720">
        <ele>68.9</ele>
        <time>2021-05-15T18:10:42Z</time>
      </trkpt>
      <trkpt lat="41.1525430" lon="-8.6253070">
        <ele>68.8</ele>
        <time>2021-05-15T18:10:43Z</time>
      </trkpt>
      <trkpt lat="41.1525430" lon="-8.6253270">
        <ele>68.8</ele>
        <time>2021-05-15T18:10:44Z</time>
      </trkpt>
      <trkpt lat="41.1525340" lon="-8.6253510">
        <ele>68.7</ele>
        <time>2021-05-15T18:10:45Z</time>
      </trkpt>
      <trkpt lat="41.1525250" lon="-8.6253840">
        <ele>68.7</ele>
        <time>2021-05-15T18:10:46Z</time>
      </trkpt>
      <trkpt lat="41.1525210" lon="-8.6254050">
        <ele>68.7</ele>
        <time>2021-05-15T18:10:47Z</time>
      </trkpt>
      <trkpt lat="41.1525130" lon="-8.6254390">
        <ele>68.6</ele>
        <time>2021-05-15T18:10:48Z</time>
      </trkpt>
      <trkpt lat="41.1525060" lon="-8.6254610">
        <ele>68.6</ele>
        <time>2021-05-15T18:10:49Z</time>
      </trkpt>
      <trkpt lat="41.1525030" lon="-8.6254750">
        <ele>68.6</ele>
        <time>2021-05-15T18:10:50Z</time>
      </trkpt>
      <trkpt lat="41.1525000" lon="-8.6254860">
        <ele>68.6</ele>
        <time>2021-05-15T18:10:51Z</time>
      </trkpt>
      <trkpt lat="41.1524840" lon="-8.6255060">
        <ele>68.6</ele>
        <time>2021-05-15T18:10:52Z</time>
      </trkpt>
      <trkpt lat="41.1524820" lon="-8.6255250">
        <ele>68.5</ele>
        <time>2021-05-15T18:10:53Z</time>
      </trkpt>
      <trkpt lat="41.1524790" lon="-8.6255420">
        <ele>68.5</ele>
        <time>2021-05-15T18:10:54Z</time>
      </trkpt>
      <trkpt lat="41.1524700" lon="-8.6255570">
        <ele>68.5</ele>
        <time>2021-05-15T18:10:55Z</time>
      </trkpt>
      <trkpt lat="41.1524660" lon="-8.6255700">
        <ele>68.5</ele>
        <time>2021-05-15T18:10:56Z</time>
      </trkpt>
      <trkpt lat="41.1524660" lon="-8.6255770">
        <ele>68.5</ele>
        <time>2021-05-15T18:10:57Z</time>
      </trkpt>
      <trkpt lat="41.1524540" lon="-8.6255860">
        <ele>68.4</ele>
        <time>2021-05-15T18:10:58Z</time>
      </trkpt>
      <trkpt lat="41.1524470" lon="-8.6256060">
        <ele>68.4</ele>
        <time>2021-05-15T18:10:59Z</time>
      </trkpt>
      <trkpt lat="41.1524480" lon="-8.6256160">
        <ele>68.4</ele>
        <time>2021-05-15T18:11:00Z</time>
      </trkpt>
      <trkpt lat="41.1524460" lon="-8.6256280">
        <ele>68.4</ele>
        <time>2021-05-15T18:11:01Z</time>
      </trkpt>
      <trkpt lat="41.1524430" lon="-8.6256450">
        <ele>68.4</ele>
        <time>2021-05-15T18:11:02Z</time>
      </trkpt>
      <trkpt lat="41.1524440" lon="-8.6256570">
        <ele>68.3</ele>
        <time>2021-05-15T18:11:03Z</time>
      </trkpt>
      <trkpt lat="41.1524390" lon="-8.6256700">
        <ele>68.3</ele>
        <time>2021-05-15T18:11:04Z</time>
      </trkpt>
      <trkpt lat="41.1524380" lon="-8.6256930">
        <ele>68.3</ele>
        <time>2021-05-15T18:11:05Z</time>
      </trkpt>
      <trkpt lat="41.1524300" lon="-8.6257110">
        <ele>68.3</ele>
        <time>2021-05-15T18:11:06Z</time>
      </trkpt>
      <trkpt lat="41.1524250" lon="-8.6257180">
        <ele>68.2</ele>
        <time>2021-05-15T18:11:07Z</time>
      </trkpt>
      <trkpt lat="41.1524190" lon="-8.6257290">
        <ele>68.2</ele>
        <time>2021-05-15T18:11:08Z</time>
      </trkpt>
      <trkpt lat="41.1524130" lon="-8.6257530">
        <ele>68.2</ele>
        <time>2021-05-15T18:11:09Z</time>
      </trkpt>
      <trkpt lat="41.1524110" lon="-8.6257700">
        <ele>68.2</ele>
        <time>2021-05-15T18:11:10Z</time>
      </trkpt>
      <trkpt lat="41.1523990" lon="-8.6257850">
        <ele>68.1</ele>
        <time>2021-05-15T18:11:11Z</time>
      </trkpt>
      <trkpt lat="41.1523910" lon="-8.6257960">
        <ele>68.1</ele>
        <time>2021-05-15T18:11:12Z</time>
      </trkpt>
      <trkpt lat="41.1523840" lon="-8.6258080">
        <ele>68.1</ele>
        <time>2021-05-15T18:11:13Z</time>
      </trkpt>
      <trkpt lat="41.1523650" lon="-8.6258130">
        <ele>68.1</ele>
        <time>2021-05-15T18:11:14Z</time>
      </trkpt>
      <trkpt lat="41.1523600" lon="-8.6258300">
        <ele>68.1</ele>
        <time>2021-05-15T18:11:15Z</time>
      </trkpt>
      <trkpt lat="41.1523490" lon="-8.6258470">
        <ele>68.0</ele>
        <time>2021-05-15T18:11:16Z</time>
      </trkpt>
      <trkpt lat="41.1523430" lon="-8.6258620">
        <ele>68.0</ele>
        <time>2021-05-15T18:11:17Z</time>
      </trkpt>
      <trkpt lat="41.1523420" lon="-8.6259000">
        <ele>68.0</ele>
        <time>2021-05-15T18:11:18Z</time>
      </trkpt>
      <trkpt lat="41.1523410" lon="-8.6259120">
        <ele>68.0</ele>
        <time>2021-05-15T18:11:19Z</time>
      </trkpt>
      <trkpt lat="41.1523480" lon="-8.6259150">
        <ele>67.9</ele>
        <time>2021-05-15T18:11:20Z</time>
      </trkpt>
      <trkpt lat="41.1523420" lon="-8.6259300">
        <ele>67.9</ele>
        <time>2021-05-15T18:11:21Z</time>
      </trkpt>
      <trkpt lat="41.1523520" lon="-8.6259510">
        <ele>67.9</ele>
        <time>2021-05-15T18:11:22Z</time>
      </trkpt>
      <trkpt lat="41.1523760" lon="-8.6259680">
        <ele>67.9</ele>
        <time>2021-05-15T18:11:23Z</time>
      </trkpt>
      <trkpt lat="41.1523820" lon="-8.6259830">
        <ele>67.9</ele>
        <time>2021-05-15T18:11:24Z</time>
      </trkpt>
      <trkpt lat="41.1524060" lon="-8.6259980">
        <ele>67.9</ele>
        <time>2021-05-15T18:11:25Z</time>
      </trkpt>
      <trkpt lat="41.1524140" lon="-8.6260060">
        <ele>68.0</ele>
        <time>2021-05-15T18:11:26Z</time>
      </trkpt>
      <trkpt lat="41.1524330" lon="-8.6260120">
        <ele>68.0</ele>
        <time>2021-05-15T18:11:27Z</time>
      </trkpt>
      <trkpt lat="41.1524470" lon="-8.6260260">
        <ele>68.1</ele>
        <time>2021-05-15T18:11:28Z</time>
      </trkpt>
      <trkpt lat="41.1524690" lon="-8.6260390">
        <ele>68.1</ele>
        <time>2021-05-15T18:11:29Z</time>
      </trkpt>
      <trkpt lat="41.1524740" lon="-8.6260450">
        <ele>68.2</ele>
        <time>2021-05-15T18:11:30Z</time>
      </trkpt>
      <trkpt lat="41.1524800" lon="-8.6260510">
        <ele>68.2</ele>
        <time>2021-05-15T18:11:31Z</time>
      </trkpt>
      <trkpt lat="41.1525020" lon="-8.6260560">
        <ele>68.3</ele>
        <time>2021-05-15T18:11:32Z</time>
      </trkpt>
      <trkpt lat="41.1525090" lon="-8.6260600">
        <ele>68.3</ele>
        <time>2021-05-15T18:11:33Z</time>
      </trkpt>
      <trkpt lat="41.1525400" lon="-8.6260720">
        <ele>68.4</ele>
        <time>2021-05-15T18:11:34Z</time>
      </trkpt>
      <trkpt lat="41.1525480" lon="-8.6260760">
        <ele>68.4</ele>
        <time>2021-05-15T18:11:35Z</time>
      </trkpt>
      <trkpt lat="41.1525610" lon="-8.6260870">
        <ele>68.5</ele>
        <time>2021-05-15T18:11:36Z</time>
      </trkpt>
      <trkpt lat="41.1525730" lon="-8.6260930">
        <ele>68.5</ele>
        <time>2021-05-15T18:11:37Z</time>
      </trkpt>
      <trkpt lat="41.1525930" lon="-8.6261040">
        <ele>68.6</ele>
        <time>2021-05-15T18:11:38Z</time>
      </trkpt>
      <trkpt lat="41.1526020" lon="-8.6261060">
        <ele>68.6</ele>
        <time>2021-05-15T18:11:39Z</time>
      </trkpt>
      <trkpt lat="41.1526110" lon="-8.6261080">
        <ele>68.7</ele>
        <time>2021-05-15T18:11:40Z</time>
      </trkpt>
      <trkpt lat="41.1526280" lon="-8.6261150">
        <ele>68.7</ele>
        <time>2021-05-15T18:11:41Z</time>
      </trkpt>
      <trkpt lat="41.1526350" lon="-8.6261260">
        <ele>68.8</ele>
        <time>2021-05-15T18:11:42Z</time>
      </trkpt>
      <trkpt lat="41.1526390" lon="-8.6261310">
        <ele>68.8</ele>
        <time>2021-05-15T18:11:43Z</time>
      </trkpt>
      <trkpt lat="41.1526590" lon="-8.6261370">
        <ele>68.9</ele>
        <time>2021-05-15T18:11:44Z</time>
      </trkpt>
      <trkpt lat="41.1526690" lon="-8.6261440">
        <ele>68.9</ele>
        <time>2021-05-15T18:11:45Z</time>
      </trkpt>
      <trkpt lat="41.1526860" lon="-8.6261500">
        <ele>68.8</ele>
        <time>2021-05-15T18:11:46Z</time>
      </trkpt>
      <trkpt lat="41.1526980" lon="-8.6261530">
        <ele>68.8</ele>
        <time>2021-05-15T18:11:47Z</time>
      </trkpt>
      <trkpt lat="41.1527110" lon="-8.6261610">
        <ele>68.8</ele>
        <time>2021-05-15T18:11:48Z</time>
      </trkpt>
      <trkpt lat="41.1527250" lon="-8.6261600">
        <ele>68.8</ele>
        <time>2021-05-15T18:11:49Z</time>
      </trkpt>
      <trkpt lat="41.1527360" lon="-8.6261610">
        <ele>68.8</ele>
        <time>2021-05-15T18:11:50Z</time>
      </trkpt>
      <trkpt lat="41.1527430" lon="-8.6261630">
        <ele>68.8</ele>
        <time>2021-05-15T18:11:51Z</time>
      </trkpt>
      <trkpt lat="41.1527400" lon="-8.6261670">
        <ele>68.8</ele>
        <time>2021-05-15T18:11:52Z</time>
      </trkpt>
      <trkpt lat="41.1527410" lon="-8.6261710">
        <ele>68.8</ele>
        <time>2021-05-15T18:11:53Z</time>
      </trkpt>
      <trkpt lat="41.1527540" lon="-8.6261870">
        <ele>68.8</ele>
        <time>2021-05-15T18:11:54Z</time>
      </trkpt>
      <trkpt lat="41.1527610" lon="-8.6262040">
        <ele>68.8</ele>
        <time>2021-05-15T18:11:55Z</time>
      </trkpt>
      <trkpt lat="41.1527600" lon="-8.6262320">
        <ele>68.8</ele>
        <time>2021-05-15T18:11:56Z</time>
      </trkpt>
      <trkpt lat="41.1527630" lon="-8.6262600">
        <ele>68.8</ele>
        <time>2021-05-15T18:11:57Z</time>
      </trkpt>
      <trkpt lat="41.1527640" lon="-8.6262720">
        <ele>68.8</ele>
        <time>2021-05-15T18:11:58Z</time>
      </trkpt>
      <trkpt lat="41.1527660" lon="-8.6262850">
        <ele>68.8</ele>
        <time>2021-05-15T18:11:59Z</time>
      </trkpt>
      <trkpt lat="41.1527690" lon="-8.6263040">
        <ele>68.7</ele>
        <time>2021-05-15T18:12:00Z</time>
      </trkpt>
      <trkpt lat="41.1527680" lon="-8.6263180">
        <ele>68.7</ele>
        <time>2021-05-15T18:12:01Z</time>
      </trkpt>
      <trkpt lat="41.1527710" lon="-8.6263220">
        <ele>68.7</ele>
        <time>2021-05-15T18:12:02Z</time>
      </trkpt>
      <trkpt lat="41.1527670" lon="-8.6263510">
        <ele>68.7</ele>
        <time>2021-05-15T18:12:03Z</time>
      </trkpt>
      <trkpt lat="41.1527640" lon="-8.6263620">
        <ele>68.7</ele>
        <time>2021-05-15T18:12:04Z</time>
      </trkpt>
      <trkpt lat="41.1527620" lon="-8.6263730">
        <ele>68.7</ele>
        <time>2021-05-15T18:12:05Z</time>
      </trkpt>
      <trkpt lat="41.1527600" lon="-8.6263740">
        <ele>68.7</ele>
        <time>2021-05-15T18:12:06Z</time>
      </trkpt>
      <trkpt lat="41.1527570" lon="-8.6263740">
        <ele>68.7</ele>
        <time>2021-05-15T18:12:07Z</time>
      </trkpt>
      <trkpt lat="41.1527550" lon="-8.6263850">
        <ele>68.7</ele>
        <time>2021-05-15T18:12:08Z</time>
      </trkpt>
      <trkpt lat="41.1527470" lon="-8.6263980">
        <ele>68.7</ele>
        <time>2021-05-15T18:12:09Z</time>
      </trkpt>
      <trkpt lat="41.1527410" lon="-8.6264080">
        <ele>68.7</ele>
        <time>2021-05-15T18:12:10Z</time>
      </trkpt>
      <trkpt lat="41.1527320" lon="-8.6264180">
        <ele>68.7</ele>
        <time>2021-05-15T18:12:11Z</time>
      </trkpt>
      <trkpt lat="41.1527290" lon="-8.6264310">
        <ele>68.7</ele>
        <time>2021-05-15T18:12:12Z</time>
      </trkpt>
      <trkpt lat="41.1527280" lon="-8.6264520">
        <ele>68.7</ele>
        <time>2021-05-15T18:12:13Z</time>
      </trkpt>
      <trkpt lat="41.1527300" lon="-8.6264570">
        <ele>68.7</ele>
        <time>2021-05-15T18:12:14Z</time>
      </trkpt>
      <trkpt lat="41.1527330" lon="-8.6264670">
        <ele>68.6</ele>
        <time>2021-05-15T18:12:15Z</time>
      </trkpt>
      <trkpt lat="41.1527320" lon="-8.6264860">
        <ele>68.6</ele>
        <time>2021-05-15T18:12:16Z</time>
      </trkpt>
      <trkpt lat="41.1527350" lon="-8.6264960">
        <ele>68.6</ele>
        <time>2021-05-15T18:12:17Z</time>
      </trkpt>
      <trkpt lat="41.1527360" lon="-8.6264930">
        <ele>68.6</ele>
        <time>2021-05-15T18:12:18Z</time>
      </trkpt>
      <trkpt lat="41.1527280" lon="-8.6265040">
        <ele>68.6</ele>
        <time>2021-05-15T18:12:19Z</time>
      </trkpt>
      <trkpt lat="41.1527200" lon="-8.6265130">
        <ele>68.6</ele>
        <time>2021-05-15T18:12:20Z</time>
      </trkpt>
      <trkpt lat="41.1527150" lon="-8.6265250">
        <ele>68.6</ele>
        <time>2021-05-15T18:12:21Z</time>
      </trkpt>
      <trkpt lat="41.1527030" lon="-8.6265490">
        <ele>68.6</ele>
        <time>2021-05-15T18:12:22Z</time>
      </trkpt>
      <trkpt lat="41.1526990" lon="-8.6265600">
        <ele>68.6</ele>
        <time>2021-05-15T18:12:23Z</time>
      </trkpt>
      <trkpt lat="41.1526960" lon="-8.6265710">
        <ele>68.6</ele>
        <time>2021-05-15T18:12:24Z</time>
      </trkpt>
      <trkpt lat="41.1526910" lon="-8.6265930">
        <ele>68.6</ele>
        <time>2021-05-15T18:12:25Z</time>
      </trkpt>
      <trkpt lat="41.1526870" lon="-8.6266180">
        <ele>68.6</ele>
        <time>2021-05-15T18:12:26Z</time>
      </trkpt>
      <trkpt lat="41.1526780" lon="-8.6266530">
        <ele>68.5</ele>
        <time>2021-05-15T18:12:27Z</time>
      </trkpt>
      <trkpt lat="41.1526710" lon="-8.6266620">
        <ele>68.5</ele>
        <time>2021-05-15T18:12:28Z</time>
      </trkpt>
      <trkpt lat="41.1526620" lon="-8.6266760">
        <ele>68.5</ele>
        <time>2021-05-15T18:12:29Z</time>
      </trkpt>
      <trkpt lat="41.1526500" lon="-8.6266880">
        <ele>68.5</ele>
        <time>2021-05-15T18:12:30Z</time>
      </trkpt>
      <trkpt lat="41.1526260" lon="-8.6267140">
        <ele>68.5</ele>
        <time>2021-05-15T18:12:31Z</time>
      </trkpt>
      <trkpt lat="41.1526370" lon="-8.6267700">
        <ele>68.5</ele>
        <time>2021-05-15T18:12:32Z</time>
      </trkpt>
      <trkpt lat="41.1526190" lon="-8.6268010">
        <ele>68.5</ele>
        <time>2021-05-15T18:12:33Z</time>
      </trkpt>
      <trkpt lat="41.1526130" lon="-8.6268080">
        <ele>68.5</ele>
        <time>2021-05-15T18:12:34Z</time>
      </trkpt>
      <trkpt lat="41.1526030" lon="-8.6268260">
        <ele>68.5</ele>
        <time>2021-05-15T18:12:35Z</time>
      </trkpt>
      <trkpt lat="41.1525890" lon="-8.6268290">
        <ele>68.5</ele>
        <time>2021-05-15T18:12:36Z</time>
      </trkpt>
      <trkpt lat="41.1525710" lon="-8.6268680">
        <ele>68.4</ele>
        <time>2021-05-15T18:12:37Z</time>
      </trkpt>
      <trkpt lat="41.1525650" lon="-8.6268870">
        <ele>68.4</ele>
        <time>2021-05-15T18:12:38Z</time>
      </trkpt>
      <trkpt lat="41.1525530" lon="-8.6269080">
        <ele>68.4</ele>
        <time>2021-05-15T18:12:39Z</time>
      </trkpt>
      <trkpt lat="41.1525470" lon="-8.6269200">
        <ele>68.4</ele>
        <time>2021-05-15T18:12:40Z</time>
      </trkpt>
      <trkpt lat="41.1525230" lon="-8.6269430">
        <ele>68.4</ele>
        <time>2021-05-15T18:12:41Z</time>
      </trkpt>
      <trkpt lat="41.1525120" lon="-8.6269540">
        <ele>68.4</ele>
        <time>2021-05-15T18:12:42Z</time>
      </trkpt>
      <trkpt lat="41.1525110" lon="-8.6269770">
        <ele>68.4</ele>
        <time>2021-05-15T18:12:43Z</time>
      </trkpt>
      <trkpt lat="41.1525070" lon="-8.6269910">
        <ele>68.4</ele>
        <time>2021-05-15T18:12:44Z</time>
      </trkpt>
      <trkpt lat="41.1525030" lon="-8.6270060">
        <ele>68.4</ele>
        <time>2021-05-15T18:12:45Z</time>
      </trkpt>
      <trkpt lat="41.1524940" lon="-8.6270510">
        <ele>68.4</ele>
        <time>2021-05-15T18:12:46Z</time>
      </trkpt>
      <trkpt lat="41.1524910" lon="-8.6270610">
        <ele>68.4</ele>
        <time>2021-05-15T18:12:47Z</time>
      </trkpt>
      <trkpt lat="41.1524890" lon="-8.6270840">
        <ele>68.4</ele>
        <time>2021-05-15T18:12:48Z</time>
      </trkpt>
      <trkpt lat="41.1524860" lon="-8.6270950">
        <ele>68.4</ele>
        <time>2021-05-15T18:12:49Z</time>
      </trkpt>
      <trkpt lat="41.1524820" lon="-8.6271060">
        <ele>68.4</ele>
        <time>2021-05-15T18:12:50Z</time>
      </trkpt>
      <trkpt lat="41.1524780" lon="-8.6271170">
        <ele>68.4</ele>
        <time>2021-05-15T18:12:51Z</time>
      </trkpt>
      <trkpt lat="41.1524720" lon="-8.6271290">
        <ele>68.4</ele>
        <time>2021-05-15T18:12:52Z</time>
      </trkpt>
      <trkpt lat="41.1524610" lon="-8.6271520">
        <ele>68.4</ele>
        <time>2021-05-15T18:12:53Z</time>
      </trkpt>
      <trkpt lat="41.1524500" lon="-8.6271830">
        <ele>68.4</ele>
        <time>2021-05-15T18:12:54Z</time>
      </trkpt>
      <trkpt lat="41.1524410" lon="-8.6271960">
        <ele>68.4</ele>
        <time>2021-05-15T18:12:55Z</time>
      </trkpt>
      <trkpt lat="41.1524370" lon="-8.6272180">
        <ele>68.5</ele>
        <time>2021-05-15T18:12:56Z</time>
      </trkpt>
      <trkpt lat="41.1524320" lon="-8.6272330">
        <ele>68.5</ele>
        <time>2021-05-15T18:12:57Z</time>
      </trkpt>
      <trkpt lat="41.1524180" lon="-8.6272690">
        <ele>68.6</ele>
        <time>2021-05-15T18:12:58Z</time>
      </trkpt>
      <trkpt lat="41.1524120" lon="-8.6272820">
        <ele>68.6</ele>
        <time>2021-05-15T18:12:59Z</time>
      </trkpt>
      <trkpt lat="41.1524090" lon="-8.6273000">
        <ele>68.6</ele>
        <time>2021-05-15T18:13:00Z</time>
      </trkpt>
      <trkpt lat="41.1524040" lon="-8.6273210">
        <ele>68.7</ele>
        <time>2021-05-15T18:13:01Z</time>
      </trkpt>
      <trkpt lat="41.1523980" lon="-8.6273640">
        <ele>68.7</ele>
        <time>2021-05-15T18:13:02Z</time>
      </trkpt>
      <trkpt lat="41.1523940" lon="-8.6273760">
        <ele>68.8</ele>
        <time>2021-05-15T18:13:03Z</time>
      </trkpt>
      <trkpt lat="41.1523840" lon="-8.6273980">
        <ele>68.8</ele>
        <time>2021-05-15T18:13:04Z</time>
      </trkpt>
      <trkpt lat="41.1523810" lon="-8.6274170">
        <ele>68.8</ele>
        <time>2021-05-15T18:13:05Z</time>
      </trkpt>
      <trkpt lat="41.1523680" lon="-8.6274380">
        <ele>68.9</ele>
        <time>2021-05-15T18:13:06Z</time>
      </trkpt>
      <trkpt lat="41.1523680" lon="-8.6274580">
        <ele>68.9</ele>
        <time>2021-05-15T18:13:07Z</time>
      </trkpt>
      <trkpt lat="41.1523660" lon="-8.6274830">
        <ele>69.0</ele>
        <time>2021-05-15T18:13:08Z</time>
      </trkpt>
      <trkpt lat="41.1523550" lon="-8.6274970">
        <ele>69.0</ele>
        <time>2021-05-15T18:13:09Z</time>
      </trkpt>
      <trkpt lat="41.1523480" lon="-8.6275180">
        <ele>69.0</ele>
        <time>2021-05-15T18:13:10Z</time>
      </trkpt>
      <trkpt lat="41.1523520" lon="-8.6275350">
        <ele>69.1</ele>
        <time>2021-05-15T18:13:11Z</time>
      </trkpt>
      <trkpt lat="41.1523440" lon="-8.6275490">
        <ele>69.1</ele>
        <time>2021-05-15T18:13:12Z</time>
      </trkpt>
      <trkpt lat="41.1523380" lon="-8.6275680">
        <ele>69.1</ele>
        <time>2021-05-15T18:13:13Z</time>
      </trkpt>
      <trkpt lat="41.1523370" lon="-8.6275970">
        <ele>69.2</ele>
        <time>2021-05-15T18:13:14Z</time>
      </trkpt>
      <trkpt lat="41.1523390" lon="-8.6276120">
        <ele>69.2</ele>
        <time>2021-05-15T18:13:15Z</time>
      </trkpt>
      <trkpt lat="41.1523420" lon="-8.6276270">
        <ele>69.2</ele>
        <time>2021-05-15T18:13:16Z</time>
      </trkpt>
      <trkpt lat="41.1523460" lon="-8.6276650">
        <ele>69.3</ele>
        <time>2021-05-15T18:13:17Z</time>
      </trkpt>
      <trkpt lat="41.1523460" lon="-8.6276760">
        <ele>69.3</ele>
        <time>2021-05-15T18:13:18Z</time>
      </trkpt>
      <trkpt lat="41.1523460" lon="-8.6276970">
        <ele>69.3</ele>
        <time>2021-05-15T18:13:19Z</time>
      </trkpt>
      <trkpt lat="41.1523460" lon="-8.6277170">
        <ele>69.4</ele>
        <time>2021-05-15T18:13:20Z</time>
      </trkpt>
      <trkpt lat="41.1523530" lon="-8.6277420">
        <ele>69.4</ele>
        <time>2021-05-15T18:13:21Z</time>
      </trkpt>
      <trkpt lat="41.1523510" lon="-8.6277650">
        <ele>69.4</ele>
        <time>2021-05-15T18:13:22Z</time>
      </trkpt>
      <trkpt lat="41.1523560" lon="-8.6277820">
        <ele>69.5</ele>
        <time>2021-05-15T18:13:23Z</time>
      </trkpt>
      <trkpt lat="41.1523700" lon="-8.6277940">
        <ele>69.5</ele>
        <time>2021-05-15T18:13:24Z</time>
      </trkpt>
      <trkpt lat="41.1523780" lon="-8.6278260">
        <ele>69.6</ele>
        <time>2021-05-15T18:13:25Z</time>
      </trkpt>
      <trkpt lat="41.1523800" lon="-8.6278390">
        <ele>69.6</ele>
        <time>2021-05-15T18:13:26Z</time>
      </trkpt>
      <trkpt lat="41.1523830" lon="-8.6278510">
        <ele>69.6</ele>
        <time>2021-05-15T18:13:27Z</time>
      </trkpt>
      <trkpt lat="41.1523930" lon="-8.6278870">
        <ele>69.7</ele>
        <time>2021-05-15T18:13:28Z</time>
      </trkpt>
      <trkpt lat="41.1523940" lon="-8.6278970">
        <ele>69.7</ele>
        <time>2021-05-15T18:13:29Z</time>
      </trkpt>
      <trkpt lat="41.1523930" lon="-8.6279360">
        <ele>69.8</ele>
        <time>2021-05-15T18:13:30Z</time>
      </trkpt>
      <trkpt lat="41.1523920" lon="-8.6279500">
        <ele>69.8</ele>
        <time>2021-05-15T18:13:31Z</time>
      </trkpt>
      <trkpt lat="41.1523970" lon="-8.6279760">
        <ele>69.9</ele>
        <time>2021-05-15T18:13:32Z</time>
      </trkpt>
      <trkpt lat="41.1524000" lon="-8.6279870">
        <ele>69.9</ele>
        <time>2021-05-15T18:13:33Z</time>
      </trkpt>
      <trkpt lat="41.1524040" lon="-8.6280100">
        <ele>69.9</ele>
        <time>2021-05-15T18:13:34Z</time>
      </trkpt>
      <trkpt lat="41.1524090" lon="-8.6280240">
        <ele>70.0</ele>
        <time>2021-05-15T18:13:35Z</time>
      </trkpt>
      <trkpt lat="41.1524050" lon="-8.6280430">
        <ele>70.0</ele>
        <time>2021-05-15T18:13:36Z</time>
      </trkpt>
      <trkpt lat="41.1524120" lon="-8.6280650">
        <ele>70.0</ele>
        <time>2021-05-15T18:13:37Z</time>
      </trkpt>
      <trkpt lat="41.1524150" lon="-8.6280860">
        <ele>70.1</ele>
        <time>2021-05-15T18:13:38Z</time>
      </trkpt>
      <trkpt lat="41.1524140" lon="-8.6280980">
        <ele>70.1</ele>
        <time>2021-05-15T18:13:39Z</time>
      </trkpt>
      <trkpt lat="41.1524160" lon="-8.6281080">
        <ele>70.1</ele>
        <time>2021-05-15T18:13:40Z</time>
      </trkpt>
      <trkpt lat="41.1524120" lon="-8.6281200">
        <ele>70.1</ele>
        <time>2021-05-15T18:13:41Z</time>
      </trkpt>
      <trkpt lat="41.1524190" lon="-8.6281370">
        <ele>70.2</ele>
        <time>2021-05-15T18:13:42Z</time>
      </trkpt>
      <trkpt lat="41.1524180" lon="-8.6281510">
        <ele>70.2</ele>
        <time>2021-05-15T18:13:43Z</time>
      </trkpt>
      <trkpt lat="41.1524160" lon="-8.6281710">
        <ele>70.2</ele>
        <time>2021-05-15T18:13:44Z</time>
      </trkpt>
      <trkpt lat="41.1524190" lon="-8.6281840">
        <ele>70.2</ele>
        <time>2021-05-15T18:13:45Z</time>
      </trkpt>
      <trkpt lat="41.1524200" lon="-8.6281990">
        <ele>70.3</ele>
        <time>2021-05-15T18:13:46Z</time>
      </trkpt>
      <trkpt lat="41.1524180" lon="-8.6282190">
        <ele>70.3</ele>
        <time>2021-05-15T18:13:47Z</time>
      </trkpt>
      <trkpt lat="41.1524230" lon="-8.6282270">
        <ele>70.3</ele>
        <time>2021-05-15T18:13:48Z</time>
      </trkpt>
      <trkpt lat="41.1524180" lon="-8.6282410">
        <ele>70.3</ele>
        <time>2021-05-15T18:13:49Z</time>
      </trkpt>
      <trkpt lat="41.1524230" lon="-8.6282740">
        <ele>70.4</ele>
        <time>2021-05-15T18:13:50Z</time>
      </trkpt>
      <trkpt lat="41.1524230" lon="-8.6282880">
        <ele>70.4</ele>
        <time>2021-05-15T18:13:51Z</time>
      </trkpt>
      <trkpt lat="41.1524240" lon="-8.6283030">
        <ele>70.4</ele>
        <time>2021-05-15T18:13:52Z</time>
      </trkpt>
      <trkpt lat="41.1524200" lon="-8.6283170">
        <ele>70.4</ele>
        <time>2021-05-15T18:13:53Z</time>
      </trkpt>
      <trkpt lat="41.1524230" lon="-8.6283320">
        <ele>70.5</ele>
        <time>2021-05-15T18:13:54Z</time>
      </trkpt>
      <trkpt lat="41.1524190" lon="-8.6283470">
        <ele>70.5</ele>
        <time>2021-05-15T18:13:55Z</time>
      </trkpt>
      <trkpt lat="41.1524170" lon="-8.6283770">
        <ele>70.5</ele>
        <time>2021-05-15T18:13:56Z</time>
      </trkpt>
      <trkpt lat="41.1524170" lon="-8.6283870">
        <ele>70.5</ele>
        <time>2021-05-15T18:13:57Z</time>
      </trkpt>
      <trkpt lat="41.1524170" lon="-8.6283970">
        <ele>70.5</ele>
        <time>2021-05-15T18:13:58Z</time>
      </trkpt>
      <trkpt lat="41.1524140" lon="-8.6284180">
        <ele>70.6</ele>
        <time>2021-05-15T18:13:59Z</time>
      </trkpt>
      <trkpt lat="41.1524160" lon="-8.6284430">
        <ele>70.6</ele>
        <time>2021-05-15T18:14:00Z</time>
      </trkpt>
      <trkpt lat="41.1524260" lon="-8.6284730">
        <ele>70.6</ele>
        <time>2021-05-15T18:14:01Z</time>
      </trkpt>
      <trkpt lat="41.1524290" lon="-8.6284870">
        <ele>70.6</ele>
        <time>2021-05-15T18:14:02Z</time>
      </trkpt>
      <trkpt lat="41.1524330" lon="-8.6285000">
        <ele>70.7</ele>
        <time>2021-05-15T18:14:03Z</time>
      </trkpt>
      <trkpt lat="41.1524340" lon="-8.6285340">
        <ele>70.7</ele>
        <time>2021-05-15T18:14:04Z</time>
      </trkpt>
      <trkpt lat="41.1524360" lon="-8.6285490">
        <ele>70.7</ele>
        <time>2021-05-15T18:14:05Z</time>
      </trkpt>
      <trkpt lat="41.1524390" lon="-8.6285680">
        <ele>70.7</ele>
        <time>2021-05-15T18:14:06Z</time>
      </trkpt>
      <trkpt lat="41.1524510" lon="-8.6285890">
        <ele>70.7</ele>
        <time>2021-05-15T18:14:07Z</time>
      </trkpt>
      <trkpt lat="41.1524600" lon="-8.6286230">
        <ele>70.7</ele>
        <time>2021-05-15T18:14:08Z</time>
      </trkpt>
      <trkpt lat="41.1524600" lon="-8.6286370">
        <ele>70.7</ele>
        <time>2021-05-15T18:14:09Z</time>
      </trkpt>
      <trkpt lat="41.1524860" lon="-8.6286560">
        <ele>70.7</ele>
        <time>2021-05-15T18:14:10Z</time>
      </trkpt>
      <trkpt lat="41.1524940" lon="-8.6286660">
        <ele>70.7</ele>
        <time>2021-05-15T18:14:11Z</time>
      </trkpt>
      <trkpt lat="41.1525050" lon="-8.6286720">
        <ele>70.7</ele>
        <time>2021-05-15T18:14:12Z</time>
      </trkpt>
      <trkpt lat="41.1525140" lon="-8.6286930">
        <ele>70.7</ele>
        <time>2021-05-15T18:14:13Z</time>
      </trkpt>
      <trkpt lat="41.1525300" lon="-8.6287060">
        <ele>70.7</ele>
        <time>2021-05-15T18:14:14Z</time>
      </trkpt>
      <trkpt lat="41.1525410" lon="-8.6287230">
        <ele>70.7</ele>
        <time>2021-05-15T18:14:15Z</time>
      </trkpt>
      <trkpt lat="41.1525520" lon="-8.6287390">
        <ele>70.7</ele>
        <time>2021-05-15T18:14:16Z</time>
      </trkpt>
      <trkpt lat="41.1525650" lon="-8.6287560">
        <ele>70.8</ele>
        <time>2021-05-15T18:14:17Z</time>
      </trkpt>
      <trkpt lat="41.1525660" lon="-8.6287820">
        <ele>70.8</ele>
        <time>2021-05-15T18:14:18Z</time>
      </trkpt>
      <trkpt lat="41.1525660" lon="-8.6287930">
        <ele>70.9</ele>
        <time>2021-05-15T18:14:19Z</time>
      </trkpt>
      <trkpt lat="41.1525670" lon="-8.6288040">
        <ele>70.9</ele>
        <time>2021-05-15T18:14:20Z</time>
      </trkpt>
      <trkpt lat="41.1525650" lon="-8.6288140">
        <ele>70.9</ele>
        <time>2021-05-15T18:14:21Z</time>
      </trkpt>
      <trkpt lat="41.1525720" lon="-8.6288400">
        <ele>71.0</ele>
        <time>2021-05-15T18:14:22Z</time>
      </trkpt>
      <trkpt lat="41.1525810" lon="-8.6288670">
        <ele>71.1</ele>
        <time>2021-05-15T18:14:23Z</time>
      </trkpt>
      <trkpt lat="41.1525830" lon="-8.6288760">
        <ele>71.1</ele>
        <time>2021-05-15T18:14:24Z</time>
      </trkpt>
      <trkpt lat="41.1525840" lon="-8.6288860">
        <ele>71.2</ele>
        <time>2021-05-15T18:14:25Z</time>
      </trkpt>
      <trkpt lat="41.1525870" lon="-8.6288990">
        <ele>71.2</ele>
        <time>2021-05-15T18:14:26Z</time>
      </trkpt>
      <trkpt lat="41.1525860" lon="-8.6289180">
        <ele>71.3</ele>
        <time>2021-05-15T18:14:27Z</time>
      </trkpt>
      <trkpt lat="41.1525840" lon="-8.6289330">
        <ele>71.3</ele>
        <time>2021-05-15T18:14:28Z</time>
      </trkpt>
      <trkpt lat="41.1525880" lon="-8.6289650">
        <ele>71.4</ele>
        <time>2021-05-15T18:14:29Z</time>
      </trkpt>
      <trkpt lat="41.1525920" lon="-8.6289780">
        <ele>71.5</ele>
        <time>2021-05-15T18:14:30Z</time>
      </trkpt>
      <trkpt lat="41.1525900" lon="-8.6289910">
        <ele>71.5</ele>
        <time>2021-05-15T18:14:31Z</time>
      </trkpt>
      <trkpt lat="41.1525920" lon="-8.6290030">
        <ele>71.6</ele>
        <time>2021-05-15T18:14:32Z</time>
      </trkpt>
      <trkpt lat="41.1525900" lon="-8.6290250">
        <ele>71.6</ele>
        <time>2021-05-15T18:14:33Z</time>
      </trkpt>
      <trkpt lat="41.1525880" lon="-8.6290350">
        <ele>71.7</ele>
        <time>2021-05-15T18:14:34Z</time>
      </trkpt>
      <trkpt lat="41.1525850" lon="-8.6290600">
        <ele>71.8</ele>
        <time>2021-05-15T18:14:35Z</time>
      </trkpt>
      <trkpt lat="41.1525810" lon="-8.6290690">
        <ele>71.8</ele>
        <time>2021-05-15T18:14:36Z</time>
      </trkpt>
      <trkpt lat="41.1525790" lon="-8.6290740">
        <ele>71.8</ele>
        <time>2021-05-15T18:14:37Z</time>
      </trkpt>
      <trkpt lat="41.1525770" lon="-8.6290960">
        <ele>71.9</ele>
        <time>2021-05-15T18:14:38Z</time>
      </trkpt>
      <trkpt lat="41.1525780" lon="-8.6291110">
        <ele>71.9</ele>
        <time>2021-05-15T18:14:39Z</time>
      </trkpt>
      <trkpt lat="41.1525730" lon="-8.6291430">
        <ele>72.0</ele>
        <time>2021-05-15T18:14:40Z</time>
      </trkpt>
      <trkpt lat="41.1525730" lon="-8.6291530">
        <ele>72.1</ele>
        <time>2021-05-15T18:14:41Z</time>
      </trkpt>
      <trkpt lat="41.1525720" lon="-8.6291630">
        <ele>72.1</ele>
        <time>2021-05-15T18:14:42Z</time>
      </trkpt>
      <trkpt lat="41.1525630" lon="-8.6292070">
        <ele>72.3</ele>
        <time>2021-05-15T18:14:43Z</time>
      </trkpt>
      <trkpt lat="41.1525620" lon="-8.6292240">
        <ele>72.4</ele>
        <time>2021-05-15T18:14:44Z</time>
      </trkpt>
      <trkpt lat="41.1525660" lon="-8.6292400">
        <ele>72.4</ele>
        <time>2021-05-15T18:14:45Z</time>
      </trkpt>
      <trkpt lat="41.1525730" lon="-8.6292650">
        <ele>72.5</ele>
        <time>2021-05-15T18:14:46Z</time>
      </trkpt>
      <trkpt lat="41.1525780" lon="-8.6292880">
        <ele>72.7</ele>
        <time>2021-05-15T18:14:47Z</time>
      </trkpt>
      <trkpt lat="41.1525770" lon="-8.6293030">
        <ele>72.7</ele>
        <time>2021-05-15T18:14:48Z</time>
      </trkpt>
      <trkpt lat="41.1525930" lon="-8.6293330">
        <ele>72.9</ele>
        <time>2021-05-15T18:14:49Z</time>
      </trkpt>
      <trkpt lat="41.1525980" lon="-8.6293450">
        <ele>73.0</ele>
        <time>2021-05-15T18:14:50Z</time>
      </trkpt>
      <trkpt lat="41.1526070" lon="-8.6293780">
        <ele>73.1</ele>
        <time>2021-05-15T18:14:51Z</time>
      </trkpt>
      <trkpt lat="41.1526110" lon="-8.6293900">
        <ele>73.2</ele>
        <time>2021-05-15T18:14:52Z</time>
      </trkpt>
      <trkpt lat="41.1526070" lon="-8.6294200">
        <ele>73.4</ele>
        <time>2021-05-15T18:14:53Z</time>
      </trkpt>
      <trkpt lat="41.1526080" lon="-8.6294350">
        <ele>73.4</ele>
        <time>2021-05-15T18:14:54Z</time>
      </trkpt>
      <trkpt lat="41.1526100" lon="-8.6294490">
        <ele>73.5</ele>
        <time>2021-05-15T18:14:55Z</time>
      </trkpt>
      <trkpt lat="41.1526140" lon="-8.6294570">
        <ele>73.6</ele>
        <time>2021-05-15T18:14:56Z</time>
      </trkpt>
      <trkpt lat="41.1526170" lon="-8.6294670">
        <ele>73.6</ele>
        <time>2021-05-15T18:14:57Z</time>
      </trkpt>
      <trkpt lat="41.1526200" lon="-8.6294770">
        <ele>73.7</ele>
        <time>2021-05-15T18:14:58Z</time>
      </trkpt>
      <trkpt lat="41.1526230" lon="-8.6294870">
        <ele>73.7</ele>
        <time>2021-05-15T18:14:59Z</time>
      </trkpt>
      <trkpt lat="41.1526260" lon="-8.6294970">
        <ele>73.8</ele>
        <time>2021-05-15T18:15:00Z</time>
      </trkpt>
      <trkpt lat="41.1526160" lon="-8.6295360">
        <ele>74.0</ele>
        <time>2021-05-15T18:15:01Z</time>
      </trkpt>
      <trkpt lat="41.1526150" lon="-8.6295510">
        <ele>74.1</ele>
        <time>2021-05-15T18:15:02Z</time>
      </trkpt>
      <trkpt lat="41.1526080" lon="-8.6295870">
        <ele>74.3</ele>
        <time>2021-05-15T18:15:03Z</time>
      </trkpt>
      <trkpt lat="41.1526060" lon="-8.6296020">
        <ele>74.4</ele>
        <time>2021-05-15T18:15:04Z</time>
      </trkpt>
      <trkpt lat="41.1526040" lon="-8.6296470">
        <ele>74.7</ele>
        <time>2021-05-15T18:15:05Z</time>
      </trkpt>
      <trkpt lat="41.1525990" lon="-8.6296590">
        <ele>74.8</ele>
        <time>2021-05-15T18:15:06Z</time>
      </trkpt>
      <trkpt lat="41.1525960" lon="-8.6296780">
        <ele>74.9</ele>
        <time>2021-05-15T18:15:07Z</time>
      </trkpt>
      <trkpt lat="41.1525990" lon="-8.6297060">
        <ele>75.1</ele>
        <time>2021-05-15T18:15:08Z</time>
      </trkpt>
      <trkpt lat="41.1526020" lon="-8.6297320">
        <ele>75.3</ele>
        <time>2021-05-15T18:15:09Z</time>
      </trkpt>
      <trkpt lat="41.1526040" lon="-8.6297450">
        <ele>75.4</ele>
        <time>2021-05-15T18:15:10Z</time>
      </trkpt>
      <trkpt lat="41.1526070" lon="-8.6297570">
        <ele>75.5</ele>
        <time>2021-05-15T18:15:11Z</time>
      </trkpt>
      <trkpt lat="41.1526090" lon="-8.6297910">
        <ele>75.7</ele>
        <time>2021-05-15T18:15:12Z</time>
      </trkpt>
      <trkpt lat="41.1526090" lon="-8.6298000">
        <ele>75.8</ele>
        <time>2021-05-15T18:15:13Z</time>
      </trkpt>
      <trkpt lat="41.1526090" lon="-8.6298090">
        <ele>75.8</ele>
        <time>2021-05-15T18:15:14Z</time>
      </trkpt>
      <trkpt lat="41.1526100" lon="-8.6298460">
        <ele>76.1</ele>
        <time>2021-05-15T18:15:15Z</time>
      </trkpt>
      <trkpt lat="41.1526080" lon="-8.6298590">
        <ele>76.1</ele>
        <time>2021-05-15T18:15:16Z</time>
      </trkpt>
      <trkpt lat="41.1526090" lon="-8.6298900">
        <ele>76.3</ele>
        <time>2021-05-15T18:15:17Z</time>
      </trkpt>
      <trkpt lat="41.1526070" lon="-8.6299040">
        <ele>76.4</ele>
        <time>2021-05-15T18:15:18Z</time>
      </trkpt>
      <trkpt lat="41.1526040" lon="-8.6299170">
        <ele>76.5</ele>
        <time>2021-05-15T18:15:19Z</time>
      </trkpt>
      <trkpt lat="41.1525980" lon="-8.6299450">
        <ele>76.7</ele>
        <time>2021-05-15T18:15:20Z</time>
      </trkpt>
      <trkpt lat="41.1525960" lon="-8.6299600">
        <ele>76.8</ele>
        <time>2021-05-15T18:15:21Z</time>
      </trkpt>
      <trkpt lat="41.1525940" lon="-8.6299750">
        <ele>76.9</ele>
        <time>2021-05-15T18:15:22Z</time>
      </trkpt>
      <trkpt lat="41.1525740" lon="-8.6300060">
        <ele>77.2</ele>
        <time>2021-05-15T18:15:23Z</time>
      </trkpt>
      <trkpt lat="41.1525700" lon="-8.6300180">
        <ele>77.2</ele>
        <time>2021-05-15T18:15:24Z</time>
      </trkpt>
      <trkpt lat="41.1525520" lon="-8.6300580">
        <ele>77.5</ele>
        <time>2021-05-15T18:15:25Z</time>
      </trkpt>
      <trkpt lat="41.1525450" lon="-8.6300690">
        <ele>77.6</ele>
        <time>2021-05-15T18:15:26Z</time>
      </trkpt>
      <trkpt lat="41.1525350" lon="-8.6301050">
        <ele>77.8</ele>
        <time>2021-05-15T18:15:27Z</time>
      </trkpt>
      <trkpt lat="41.1525320" lon="-8.6301160">
        <ele>77.9</ele>
        <time>2021-05-15T18:15:28Z</time>
      </trkpt>
      <trkpt lat="41.1525300" lon="-8.6301260">
        <ele>78.0</ele>
        <time>2021-05-15T18:15:29Z</time>
      </trkpt>
      <trkpt lat="41.1525190" lon="-8.6301580">
        <ele>78.1</ele>
        <time>2021-05-15T18:15:30Z</time>
      </trkpt>
      <trkpt lat="41.1525110" lon="-8.6301690">
        <ele>78.2</ele>
        <time>2021-05-15T18:15:31Z</time>
      </trkpt>
      <trkpt lat="41.1525100" lon="-8.6301900">
        <ele>78.3</ele>
        <time>2021-05-15T18:15:32Z</time>
      </trkpt>
      <trkpt lat="41.1525080" lon="-8.6302050">
        <ele>78.4</ele>
        <time>2021-05-15T18:15:33Z</time>
      </trkpt>
      <trkpt lat="41.1525060" lon="-8.6302190">
        <ele>78.4</ele>
        <time>2021-05-15T18:15:34Z</time>
      </trkpt>
      <trkpt lat="41.1525140" lon="-8.6302240">
        <ele>78.5</ele>
        <time>2021-05-15T18:15:35Z</time>
      </trkpt>
      <trkpt lat="41.1525280" lon="-8.6302460">
        <ele>78.6</ele>
        <time>2021-05-15T18:15:36Z</time>
      </trkpt>
      <trkpt lat="41.1525310" lon="-8.6302510">
        <ele>78.7</ele>
        <time>2021-05-15T18:15:37Z</time>
      </trkpt>
      <trkpt lat="41.1525340" lon="-8.6302760">
        <ele>78.8</ele>
        <time>2021-05-15T18:15:38Z</time>
      </trkpt>
      <trkpt lat="41.1525270" lon="-8.6302910">
        <ele>78.9</ele>
        <time>2021-05-15T18:15:39Z</time>
      </trkpt>
      <trkpt lat="41.1525270" lon="-8.6303190">
        <ele>79.0</ele>
        <time>2021-05-15T18:15:40Z</time>
      </trkpt>
      <trkpt lat="41.1525210" lon="-8.6303350">
        <ele>79.1</ele>
        <time>2021-05-15T18:15:41Z</time>
      </trkpt>
      <trkpt lat="41.1525170" lon="-8.6303620">
        <ele>79.2</ele>
        <time>2021-05-15T18:15:42Z</time>
      </trkpt>
      <trkpt lat="41.1525170" lon="-8.6303760">
        <ele>79.3</ele>
        <time>2021-05-15T18:15:43Z</time>
      </trkpt>
      <trkpt lat="41.1525170" lon="-8.6303900">
        <ele>79.3</ele>
        <time>2021-05-15T18:15:44Z</time>
      </trkpt>
      <trkpt lat="41.1525070" lon="-8.6304350">
        <ele>79.6</ele>
        <time>2021-05-15T18:15:45Z</time>
      </trkpt>
      <trkpt lat="41.1525020" lon="-8.6304450">
        <ele>79.6</ele>
        <time>2021-05-15T18:15:46Z</time>
      </trkpt>
      <trkpt lat="41.1524980" lon="-8.6304750">
        <ele>79.7</ele>
        <time>2021-05-15T18:15:47Z</time>
      </trkpt>
      <trkpt lat="41.1524980" lon="-8.6304880">
        <ele>79.8</ele>
        <time>2021-05-15T18:15:48Z</time>
      </trkpt>
      <trkpt lat="41.1525020" lon="-8.6305040">
        <ele>79.9</ele>
        <time>2021-05-15T18:15:49Z</time>
      </trkpt>
      <trkpt lat="41.1525010" lon="-8.6305230">
        <ele>79.9</ele>
        <time>2021-05-15T18:15:50Z</time>
      </trkpt>
      <trkpt lat="41.1525050" lon="-8.6305310">
        <ele>80.0</ele>
        <time>2021-05-15T18:15:51Z</time>
      </trkpt>
      <trkpt lat="41.1525070" lon="-8.6305480">
        <ele>80.1</ele>
        <time>2021-05-15T18:15:52Z</time>
      </trkpt>
      <trkpt lat="41.1525090" lon="-8.6305620">
        <ele>80.1</ele>
        <time>2021-05-15T18:15:53Z</time>
      </trkpt>
      <trkpt lat="41.1525090" lon="-8.6305690">
        <ele>80.1</ele>
        <time>2021-05-15T18:15:54Z</time>
      </trkpt>
      <trkpt lat="41.1525190" lon="-8.6305830">
        <ele>80.2</ele>
        <time>2021-05-15T18:15:55Z</time>
      </trkpt>
      <trkpt lat="41.1525230" lon="-8.6306010">
        <ele>80.3</ele>
        <time>2021-05-15T18:15:56Z</time>
      </trkpt>
      <trkpt lat="41.1525300" lon="-8.6306180">
        <ele>80.4</ele>
        <time>2021-05-15T18:15:57Z</time>
      </trkpt>
      <trkpt lat="41.1525450" lon="-8.6306270">
        <ele>80.4</ele>
        <time>2021-05-15T18:15:58Z</time>
      </trkpt>
      <trkpt lat="41.1525650" lon="-8.6306330">
        <ele>80.4</ele>
        <time>2021-05-15T18:15:59Z</time>
      </trkpt>
      <trkpt lat="41.1525710" lon="-8.6306510">
        <ele>80.4</ele>
        <time>2021-05-15T18:16:00Z</time>
      </trkpt>
      <trkpt lat="41.1525870" lon="-8.6306580">
        <ele>80.4</ele>
        <time>2021-05-15T18:16:01Z</time>
      </trkpt>
      <trkpt lat="41.1525970" lon="-8.6306720">
        <ele>80.4</ele>
        <time>2021-05-15T18:16:02Z</time>
      </trkpt>
      <trkpt lat="41.1526140" lon="-8.6306890">
        <ele>80.5</ele>
        <time>2021-05-15T18:16:03Z</time>
      </trkpt>
      <trkpt lat="41.1526130" lon="-8.6306970">
        <ele>80.5</ele>
        <time>2021-05-15T18:16:04Z</time>
      </trkpt>
      <trkpt lat="41.1526160" lon="-8.6307040">
        <ele>80.5</ele>
        <time>2021-05-15T18:16:05Z</time>
      </trkpt>
      <trkpt lat="41.1526180" lon="-8.6307120">
        <ele>80.5</ele>
        <time>2021-05-15T18:16:06Z</time>
      </trkpt>
      <trkpt lat="41.1526230" lon="-8.6307270">
        <ele>80.5</ele>
        <time>2021-05-15T18:16:07Z</time>
      </trkpt>
      <trkpt lat="41.1526230" lon="-8.6307350">
        <ele>80.5</ele>
        <time>2021-05-15T18:16:08Z</time>
      </trkpt>
      <trkpt lat="41.1526220" lon="-8.6307430">
        <ele>80.5</ele>
        <time>2021-05-15T18:16:09Z</time>
      </trkpt>
      <trkpt lat="41.1526160" lon="-8.6307500">
        <ele>80.5</ele>
        <time>2021-05-15T18:16:10Z</time>
      </trkpt>
      <trkpt lat="41.1526150" lon="-8.6307660">
        <ele>80.5</ele>
        <time>2021-05-15T18:16:11Z</time>
      </trkpt>
      <trkpt lat="41.1526090" lon="-8.6307850">
        <ele>80.5</ele>
        <time>2021-05-15T18:16:12Z</time>
      </trkpt>
      <trkpt lat="41.1526050" lon="-8.6308140">
        <ele>80.5</ele>
        <time>2021-05-15T18:16:13Z</time>
      </trkpt>
      <trkpt lat="41.1526020" lon="-8.6308250">
        <ele>80.5</ele>
        <time>2021-05-15T18:16:14Z</time>
      </trkpt>
      <trkpt lat="41.1525980" lon="-8.6308350">
        <ele>80.5</ele>
        <time>2021-05-15T18:16:15Z</time>
      </trkpt>
      <trkpt lat="41.1525910" lon="-8.6308590">
        <ele>80.5</ele>
        <time>2021-05-15T18:16:16Z</time>
      </trkpt>
      <trkpt lat="41.1525890" lon="-8.6308700">
        <ele>80.5</ele>
        <time>2021-05-15T18:16:17Z</time>
      </trkpt>
      <trkpt lat="41.1525860" lon="-8.6308820">
        <ele>80.5</ele>
        <time>2021-05-15T18:16:18Z</time>
      </trkpt>
      <trkpt lat="41.1525750" lon="-8.6309000">
        <ele>80.5</ele>
        <time>2021-05-15T18:16:19Z</time>
      </trkpt>
      <trkpt lat="41.1525680" lon="-8.6309170">
        <ele>80.5</ele>
        <time>2021-05-15T18:16:20Z</time>
      </trkpt>
      <trkpt lat="41.1525620" lon="-8.6309310">
        <ele>80.5</ele>
        <time>2021-05-15T18:16:21Z</time>
      </trkpt>
      <trkpt lat="41.1525560" lon="-8.6309490">
        <ele>80.5</ele>
        <time>2021-05-15T18:16:22Z</time>
      </trkpt>
      <trkpt lat="41.1525550" lon="-8.6309580">
        <ele>80.5</ele>
        <time>2021-05-15T18:16:23Z</time>
      </trkpt>
      <trkpt lat="41.1525490" lon="-8.6310000">
        <ele>80.5</ele>
        <time>2021-05-15T18:16:24Z</time>
      </trkpt>
      <trkpt lat="41.1525480" lon="-8.6310090">
        <ele>80.5</ele>
        <time>2021-05-15T18:16:25Z</time>
      </trkpt>
      <trkpt lat="41.1525500" lon="-8.6310370">
        <ele>80.5</ele>
        <time>2021-05-15T18:16:26Z</time>
      </trkpt>
      <trkpt lat="41.1525500" lon="-8.6310480">
        <ele>80.5</ele>
        <time>2021-05-15T18:16:27Z</time>
      </trkpt>
      <trkpt lat="41.1525510" lon="-8.6310600">
        <ele>80.5</ele>
        <time>2021-05-15T18:16:28Z</time>
      </trkpt>
      <trkpt lat="41.1525510" lon="-8.6310710">
        <ele>80.5</ele>
        <time>2021-05-15T18:16:29Z</time>
      </trkpt>
      <trkpt lat="41.1525540" lon="-8.6310910">
        <ele>80.5</ele>
        <time>2021-05-15T18:16:30Z</time>
      </trkpt>
      <trkpt lat="41.1525590" lon="-8.6311080">
        <ele>80.5</ele>
        <time>2021-05-15T18:16:31Z</time>
      </trkpt>
      <trkpt lat="41.1525610" lon="-8.6311340">
        <ele>80.5</ele>
        <time>2021-05-15T18:16:32Z</time>
      </trkpt>
      <trkpt lat="41.1525620" lon="-8.6311470">
        <ele>80.5</ele>
        <time>2021-05-15T18:16:33Z</time>
      </trkpt>
      <trkpt lat="41.1525640" lon="-8.6311610">
        <ele>80.5</ele>
        <time>2021-05-15T18:16:34Z</time>
      </trkpt>
      <trkpt lat="41.1525690" lon="-8.6311930">
        <ele>80.5</ele>
        <time>2021-05-15T18:16:35Z</time>
      </trkpt>
      <trkpt lat="41.1525690" lon="-8.6312030">
        <ele>80.5</ele>
        <time>2021-05-15T18:16:36Z</time>
      </trkpt>
      <trkpt lat="41.1525700" lon="-8.6312130">
        <ele>80.5</ele>
        <time>2021-05-15T18:16:37Z</time>
      </trkpt>
      <trkpt lat="41.1525740" lon="-8.6312360">
        <ele>80.5</ele>
        <time>2021-05-15T18:16:38Z</time>
      </trkpt>
      <trkpt lat="41.1525770" lon="-8.6312520">
        <ele>80.5</ele>
        <time>2021-05-15T18:16:39Z</time>
      </trkpt>
      <trkpt lat="41.1525770" lon="-8.6312760">
        <ele>80.5</ele>
        <time>2021-05-15T18:16:40Z</time>
      </trkpt>
      <trkpt lat="41.1525820" lon="-8.6312970">
        <ele>80.5</ele>
        <time>2021-05-15T18:16:41Z</time>
      </trkpt>
      <trkpt lat="41.1525820" lon="-8.6313370">
        <ele>80.5</ele>
        <time>2021-05-15T18:16:42Z</time>
      </trkpt>
      <trkpt lat="41.1525810" lon="-8.6313500">
        <ele>80.5</ele>
        <time>2021-05-15T18:16:43Z</time>
      </trkpt>
      <trkpt lat="41.1525930" lon="-8.6313910">
        <ele>80.5</ele>
        <time>2021-05-15T18:16:44Z</time>
      </trkpt>
      <trkpt lat="41.1525930" lon="-8.6314030">
        <ele>80.5</ele>
        <time>2021-05-15T18:16:45Z</time>
      </trkpt>
      <trkpt lat="41.1525960" lon="-8.6314180">
        <ele>80.5</ele>
        <time>2021-05-15T18:16:46Z</time>
      </trkpt>
      <trkpt lat="41.1525950" lon="-8.6314490">
        <ele>80.5</ele>
        <time>2021-05-15T18:16:47Z</time>
      </trkpt>
      <trkpt lat="41.1525960" lon="-8.6314640">
        <ele>80.5</ele>
        <time>2021-05-15T18:16:48Z</time>
      </trkpt>
      <trkpt lat="41.1526020" lon="-8.6314910">
        <ele>80.5</ele>
        <time>2021-05-15T18:16:49Z</time>
      </trkpt>
      <trkpt lat="41.1526050" lon="-8.6315040">
        <ele>80.5</ele>
        <time>2021-05-15T18:16:50Z</time>
      </trkpt>
      <trkpt lat="41.1526100" lon="-8.6315260">
        <ele>80.5</ele>
        <time>2021-05-15T18:16:51Z</time>
      </trkpt>
      <trkpt lat="41.1526060" lon="-8.6315360">
        <ele>80.5</ele>
        <time>2021-05-15T18:16:52Z</time>
      </trkpt>
      <trkpt lat="41.1526090" lon="-8.6315560">
        <ele>80.5</ele>
        <time>2021-05-15T18:16:53Z</time>
      </trkpt>
      <trkpt lat="41.1526110" lon="-8.6315680">
        <ele>80.5</ele>
        <time>2021-05-15T18:16:54Z</time>
      </trkpt>
      <trkpt lat="41.1526110" lon="-8.6315860">
        <ele>80.5</ele>
        <time>2021-05-15T18:16:55Z</time>
      </trkpt>
      <trkpt lat="41.1526120" lon="-8.6316100">
        <ele>80.5</ele>
        <time>2021-05-15T18:16:56Z</time>
      </trkpt>
      <trkpt lat="41.1526110" lon="-8.6316340">
        <ele>80.5</ele>
        <time>2021-05-15T18:16:57Z</time>
      </trkpt>
      <trkpt lat="41.1526140" lon="-8.6316470">
        <ele>80.5</ele>
        <time>2021-05-15T18:16:58Z</time>
      </trkpt>
      <trkpt lat="41.1526190" lon="-8.6316670">
        <ele>80.6</ele>
        <time>2021-05-15T18:16:59Z</time>
      </trkpt>
      <trkpt lat="41.1526160" lon="-8.6316850">
        <ele>80.6</ele>
        <time>2021-05-15T18:17:00Z</time>
      </trkpt>
      <trkpt lat="41.1526210" lon="-8.6317080">
        <ele>80.6</ele>
        <time>2021-05-15T18:17:01Z</time>
      </trkpt>
      <trkpt lat="41.1526240" lon="-8.6317280">
        <ele>80.6</ele>
        <time>2021-05-15T18:17:02Z</time>
      </trkpt>
      <trkpt lat="41.1526060" lon="-8.6317630">
        <ele>80.6</ele>
        <time>2021-05-15T18:17:03Z</time>
      </trkpt>
      <trkpt lat="41.1526020" lon="-8.6317870">
        <ele>80.6</ele>
        <time>2021-05-15T18:17:04Z</time>
      </trkpt>
      <trkpt lat="41.1526000" lon="-8.6318030">
        <ele>80.6</ele>
        <time>2021-05-15T18:17:05Z</time>
      </trkpt>
      <trkpt lat="41.1526070" lon="-8.6318210">
        <ele>80.6</ele>
        <time>2021-05-15T18:17:06Z</time>
      </trkpt>
      <trkpt lat="41.1526190" lon="-8.6318400">
        <ele>80.6</ele>
        <time>2021-05-15T18:17:07Z</time>
      </trkpt>
      <trkpt lat="41.1526290" lon="-8.6318500">
        <ele>80.6</ele>
        <time>2021-05-15T18:17:08Z</time>
      </trkpt>
      <trkpt lat="41.1526450" lon="-8.6318610">
        <ele>80.6</ele>
        <time>2021-05-15T18:17:09Z</time>
      </trkpt>
      <trkpt lat="41.1526500" lon="-8.6318860">
        <ele>80.6</ele>
        <time>2021-05-15T18:17:10Z</time>
      </trkpt>
      <trkpt lat="41.1526510" lon="-8.6318980">
        <ele>80.6</ele>
        <time>2021-05-15T18:17:11Z</time>
      </trkpt>
      <trkpt lat="41.1526530" lon="-8.6319100">
        <ele>80.6</ele>
        <time>2021-05-15T18:17:12Z</time>
      </trkpt>
      <trkpt lat="41.1526560" lon="-8.6319230">
        <ele>80.6</ele>
        <time>2021-05-15T18:17:13Z</time>
      </trkpt>
      <trkpt lat="41.1526630" lon="-8.6319350">
        <ele>80.6</ele>
        <time>2021-05-15T18:17:14Z</time>
      </trkpt>
      <trkpt lat="41.1526660" lon="-8.6319550">
        <ele>80.6</ele>
        <time>2021-05-15T18:17:15Z</time>
      </trkpt>
      <trkpt lat="41.1526750" lon="-8.6319740">
        <ele>80.6</ele>
        <time>2021-05-15T18:17:16Z</time>
      </trkpt>
      <trkpt lat="41.1526800" lon="-8.6319880">
        <ele>80.6</ele>
        <time>2021-05-15T18:17:17Z</time>
      </trkpt>
      <trkpt lat="41.1526850" lon="-8.6319970">
        <ele>80.6</ele>
        <time>2021-05-15T18:17:18Z</time>
      </trkpt>
      <trkpt lat="41.1526930" lon="-8.6320090">
        <ele>80.6</ele>
        <time>2021-05-15T18:17:19Z</time>
      </trkpt>
      <trkpt lat="41.1526970" lon="-8.6320210">
        <ele>80.6</ele>
        <time>2021-05-15T18:17:20Z</time>
      </trkpt>
      <trkpt lat="41.1527030" lon="-8.6320390">
        <ele>80.6</ele>
        <time>2021-05-15T18:17:21Z</time>
      </trkpt>
      <trkpt lat="41.1527060" lon="-8.6320570">
        <ele>80.6</ele>
        <time>2021-05-15T18:17:22Z</time>
      </trkpt>
      <trkpt lat="41.1527060" lon="-8.6320730">
        <ele>80.6</ele>
        <time>2021-05-15T18:17:23Z</time>
      </trkpt>
      <trkpt lat="41.1527140" lon="-8.6320810">
        <ele>80.5</ele>
        <time>2021-05-15T18:17:24Z</time>
      </trkpt>
      <trkpt lat="41.1527210" lon="-8.6320990">
        <ele>80.5</ele>
        <time>2021-05-15T18:17:25Z</time>
      </trkpt>
      <trkpt lat="41.1527260" lon="-8.6321130">
        <ele>80.5</ele>
        <time>2021-05-15T18:17:26Z</time>
      </trkpt>
      <trkpt lat="41.1527350" lon="-8.6321320">
        <ele>80.5</ele>
        <time>2021-05-15T18:17:27Z</time>
      </trkpt>
      <trkpt lat="41.1527490" lon="-8.6321570">
        <ele>80.5</ele>
        <time>2021-05-15T18:17:28Z</time>
      </trkpt>
      <trkpt lat="41.1527540" lon="-8.6321670">
        <ele>80.5</ele>
        <time>2021-05-15T18:17:29Z</time>
      </trkpt>
      <trkpt lat="41.1527600" lon="-8.6321780">
        <ele>80.5</ele>
        <time>2021-05-15T18:17:30Z</time>
      </trkpt>
      <trkpt lat="41.1527730" lon="-8.6321910">
        <ele>80.4</ele>
        <time>2021-05-15T18:17:31Z</time>
      </trkpt>
      <trkpt lat="41.1527830" lon="-8.6322050">
        <ele>80.4</ele>
        <time>2021-05-15T18:17:32Z</time>
      </trkpt>
      <trkpt lat="41.1527910" lon="-8.6322180">
        <ele>80.3</ele>
        <time>2021-05-15T18:17:33Z</time>
      </trkpt>
      <trkpt lat="41.1527910" lon="-8.6322300">
        <ele>80.3</ele>
        <time>2021-05-15T18:17:34Z</time>
      </trkpt>
      <trkpt lat="41.1527910" lon="-8.6322360">
        <ele>80.3</ele>
        <time>2021-05-15T18:17:35Z</time>
      </trkpt>
      <trkpt lat="41.1527820" lon="-8.6322460">
        <ele>80.2</ele>
        <time>2021-05-15T18:17:36Z</time>
      </trkpt>
      <trkpt lat="41.1527790" lon="-8.6322740">
        <ele>80.1</ele>
        <time>2021-05-15T18:17:37Z</time>
      </trkpt>
      <trkpt lat="41.1527750" lon="-8.6322830">
        <ele>80.1</ele>
        <time>2021-05-15T18:17:38Z</time>
      </trkpt>
      <trkpt lat="41.1527720" lon="-8.6322930">
        <ele>80.1</ele>
        <time>2021-05-15T18:17:39Z</time>
      </trkpt>
      <trkpt lat="41.1527650" lon="-8.6323230">
        <ele>80.0</ele>
        <time>2021-05-15T18:17:40Z</time>
      </trkpt>
      <trkpt lat="41.1527620" lon="-8.6323330">
        <ele>80.0</ele>
        <time>2021-05-15T18:17:41Z</time>
      </trkpt>
      <trkpt lat="41.1527580" lon="-8.6323440">
        <ele>79.9</ele>
        <time>2021-05-15T18:17:42Z</time>
      </trkpt>
      <trkpt lat="41.1527580" lon="-8.6323560">
        <ele>79.9</ele>
        <time>2021-05-15T18:17:43Z</time>
      </trkpt>
      <trkpt lat="41.1527520" lon="-8.6323800">
        <ele>79.8</ele>
        <time>2021-05-15T18:17:44Z</time>
      </trkpt>
      <trkpt lat="41.1527530" lon="-8.6323930">
        <ele>79.8</ele>
        <time>2021-05-15T18:17:45Z</time>
      </trkpt>
      <trkpt lat="41.1527560" lon="-8.6324000">
        <ele>79.8</ele>
        <time>2021-05-15T18:17:46Z</time>
      </trkpt>
      <trkpt lat="41.1527540" lon="-8.6324190">
        <ele>79.7</ele>
        <time>2021-05-15T18:17:47Z</time>
      </trkpt>
      <trkpt lat="41.1527530" lon="-8.6324380">
        <ele>79.7</ele>
        <time>2021-05-15T18:17:48Z</time>
      </trkpt>
      <trkpt lat="41.1527560" lon="-8.6324490">
        <ele>79.7</ele>
        <time>2021-05-15T18:17:49Z</time>
      </trkpt>
      <trkpt lat="41.1527570" lon="-8.6324650">
        <ele>79.6</ele>
        <time>2021-05-15T18:17:50Z</time>
      </trkpt>
      <trkpt lat="41.1527590" lon="-8.6324960">
        <ele>79.6</ele>
        <time>2021-05-15T18:17:51Z</time>
      </trkpt>
      <trkpt lat="41.1527610" lon="-8.6325060">
        <ele>79.6</ele>
        <time>2021-05-15T18:17:52Z</time>
      </trkpt>
      <trkpt lat="41.1527640" lon="-8.6325160">
        <ele>79.5</ele>
        <time>2021-05-15T18:17:53Z</time>
      </trkpt>
      <trkpt lat="41.1527700" lon="-8.6325200">
        <ele>79.5</ele>
        <time>2021-05-15T18:17:54Z</time>
      </trkpt>
      <trkpt lat="41.1527750" lon="-8.6325270">
        <ele>79.5</ele>
        <time>2021-05-15T18:17:55Z</time>
      </trkpt>
      <trkpt lat="41.1527810" lon="-8.6325330">
        <ele>79.5</ele>
        <time>2021-05-15T18:17:56Z</time>
      </trkpt>
      <trkpt lat="41.1527860" lon="-8.6325400">
        <ele>79.5</ele>
        <time>2021-05-15T18:17:57Z</time>
      </trkpt>
      <trkpt lat="41.1527920" lon="-8.6325460">
        <ele>79.4</ele>
        <time>2021-05-15T18:17:58Z</time>
      </trkpt>
      <trkpt lat="41.1528060" lon="-8.6325520">
        <ele>79.4</ele>
        <time>2021-05-15T18:17:59Z</time>
      </trkpt>
      <trkpt lat="41.1528130" lon="-8.6325600">
        <ele>79.4</ele>
        <time>2021-05-15T18:18:00Z</time>
      </trkpt>
      <trkpt lat="41.1528190" lon="-8.6325670">
        <ele>79.4</ele>
        <time>2021-05-15T18:18:01Z</time>
      </trkpt>
      <trkpt lat="41.1528260" lon="-8.6325750">
        <ele>79.3</ele>
        <time>2021-05-15T18:18:02Z</time>
      </trkpt>
      <trkpt lat="41.1528370" lon="-8.6325960">
        <ele>79.3</ele>
        <time>2021-05-15T18:18:03Z</time>
      </trkpt>
      <trkpt lat="41.1528400" lon="-8.6326080">
        <ele>79.2</ele>
        <time>2021-05-15T18:18:04Z</time>
      </trkpt>
      <trkpt lat="41.1528440" lon="-8.6326200">
        <ele>79.2</ele>
        <time>2021-05-15T18:18:05Z</time>
      </trkpt>
      <trkpt lat="41.1528430" lon="-8.6326470">
        <ele>79.2</ele>
        <time>2021-05-15T18:18:06Z</time>
      </trkpt>
      <trkpt lat="41.1528400" lon="-8.6326570">
        <ele>79.1</ele>
        <time>2021-05-15T18:18:07Z</time>
      </trkpt>
      <trkpt lat="41.1528380" lon="-8.6326670">
        <ele>79.1</ele>
        <time>2021-05-15T18:18:08Z</time>
      </trkpt>
      <trkpt lat="41.1528350" lon="-8.6326770">
        <ele>79.1</ele>
        <time>2021-05-15T18:18:09Z</time>
      </trkpt>
      <trkpt lat="41.1528290" lon="-8.6326930">
        <ele>79.0</ele>
        <time>2021-05-15T18:18:10Z</time>
      </trkpt>
      <trkpt lat="41.1528310" lon="-8.6327210">
        <ele>79.0</ele>
        <time>2021-05-15T18:18:11Z</time>
      </trkpt>
      <trkpt lat="41.1528280" lon="-8.6327400">
        <ele>78.9</ele>
        <time>2021-05-15T18:18:12Z</time>
      </trkpt>
      <trkpt lat="41.1528230" lon="-8.6327590">
        <ele>78.9</ele>
        <time>2021-05-15T18:18:13Z</time>
      </trkpt>
      <trkpt lat="41.1528270" lon="-8.6327950">
        <ele>78.8</ele>
        <time>2021-05-15T18:18:14Z</time>
      </trkpt>
      <trkpt lat="41.1528240" lon="-8.6328110">
        <ele>78.8</ele>
        <time>2021-05-15T18:18:15Z</time>
      </trkpt>
      <trkpt lat="41.1528040" lon="-8.6328520">
        <ele>78.6</ele>
        <time>2021-05-15T18:18:16Z</time>
      </trkpt>
      <trkpt lat="41.1527940" lon="-8.6328650">
        <ele>78.6</ele>
        <time>2021-05-15T18:18:17Z</time>
      </trkpt>
      <trkpt lat="41.1527670" lon="-8.6329000">
        <ele>78.3</ele>
        <time>2021-05-15T18:18:18Z</time>
      </trkpt>
      <trkpt lat="41.1527590" lon="-8.6329140">
        <ele>78.3</ele>
        <time>2021-05-15T18:18:19Z</time>
      </trkpt>
      <trkpt lat="41.1527490" lon="-8.6329340">
        <ele>78.2</ele>
        <time>2021-05-15T18:18:20Z</time>
      </trkpt>
      <trkpt lat="41.1527470" lon="-8.6329510">
        <ele>78.1</ele>
        <time>2021-05-15T18:18:21Z</time>
      </trkpt>
      <trkpt lat="41.1527310" lon="-8.6329890">
        <ele>78.0</ele>
        <time>2021-05-15T18:18:22Z</time>
      </trkpt>
      <trkpt lat="41.1527190" lon="-8.6330030">
        <ele>78.0</ele>
        <time>2021-05-15T18:18:23Z</time>
      </trkpt>
      <trkpt lat="41.1526970" lon="-8.6330390">
        <ele>77.8</ele>
        <time>2021-05-15T18:18:24Z</time>
      </trkpt>
      <trkpt lat="41.1526910" lon="-8.6330530">
        <ele>77.8</ele>
        <time>2021-05-15T18:18:25Z</time>
      </trkpt>
      <trkpt lat="41.1526880" lon="-8.6330800">
        <ele>77.7</ele>
        <time>2021-05-15T18:18:26Z</time>
      </trkpt>
      <trkpt lat="41.1526870" lon="-8.6330930">
        <ele>77.6</ele>
        <time>2021-05-15T18:18:27Z</time>
      </trkpt>
      <trkpt lat="41.1526850" lon="-8.6331060">
        <ele>77.6</ele>
        <time>2021-05-15T18:18:28Z</time>
      </trkpt>
      <trkpt lat="41.1526890" lon="-8.6331300">
        <ele>77.5</ele>
        <time>2021-05-15T18:18:29Z</time>
      </trkpt>
      <trkpt lat="41.1526940" lon="-8.6331410">
        <ele>77.5</ele>
        <time>2021-05-15T18:18:30Z</time>
      </trkpt>
      <trkpt lat="41.1526980" lon="-8.6331510">
        <ele>77.4</ele>
        <time>2021-05-15T18:18:31Z</time>
      </trkpt>
      <trkpt lat="41.1527030" lon="-8.6331540">
        <ele>77.4</ele>
        <time>2021-05-15T18:18:32Z</time>
      </trkpt>
      <trkpt lat="41.1526960" lon="-8.6331600">
        <ele>77.4</ele>
        <time>2021-05-15T18:18:33Z</time>
      </trkpt>
      <trkpt lat="41.1527050" lon="-8.6331920">
        <ele>77.3</ele>
        <time>2021-05-15T18:18:34Z</time>
      </trkpt>
      <trkpt lat="41.1527030" lon="-8.6332080">
        <ele>77.2</ele>
        <time>2021-05-15T18:18:35Z</time>
      </trkpt>
      <trkpt lat="41.1526970" lon="-8.6332300">
        <ele>77.1</ele>
        <time>2021-05-15T18:18:36Z</time>
      </trkpt>
      <trkpt lat="41.1527020" lon="-8.6332550">
        <ele>77.0</ele>
        <time>2021-05-15T18:18:37Z</time>
      </trkpt>
      <trkpt lat="41.1527070" lon="-8.6332730">
        <ele>77.0</ele>
        <time>2021-05-15T18:18:38Z</time>
      </trkpt>
      <trkpt lat="41.1527070" lon="-8.6332950">
        <ele>76.9</ele>
        <time>2021-05-15T18:18:39Z</time>
      </trkpt>
      <trkpt lat="41.1527100" lon="-8.6333040">
        <ele>76.9</ele>
        <time>2021-05-15T18:18:40Z</time>
      </trkpt>
      <trkpt lat="41.1527110" lon="-8.6333210">
        <ele>76.8</ele>
        <time>2021-05-15T18:18:41Z</time>
      </trkpt>
      <trkpt lat="41.1527120" lon="-8.6333510">
        <ele>76.7</ele>
        <time>2021-05-15T18:18:42Z</time>
      </trkpt>
      <trkpt lat="41.1527110" lon="-8.6333640">
        <ele>76.7</ele>
        <time>2021-05-15T18:18:43Z</time>
      </trkpt>
      <trkpt lat="41.1527110" lon="-8.6333770">
        <ele>76.6</ele>
        <time>2021-05-15T18:18:44Z</time>
      </trkpt>
      <trkpt lat="41.1527080" lon="-8.6333890">
        <ele>76.6</ele>
        <time>2021-05-15T18:18:45Z</time>
      </trkpt>
      <trkpt lat="41.1527070" lon="-8.6334130">
        <ele>76.5</ele>
        <time>2021-05-15T18:18:46Z</time>
      </trkpt>
      <trkpt lat="41.1527030" lon="-8.6334220">
        <ele>76.5</ele>
        <time>2021-05-15T18:18:47Z</time>
      </trkpt>
      <trkpt lat="41.1527020" lon="-8.6334350">
        <ele>76.4</ele>
        <time>2021-05-15T18:18:48Z</time>
      </trkpt>
      <trkpt lat="41.1527020" lon="-8.6334540">
        <ele>76.4</ele>
        <time>2021-05-15T18:18:49Z</time>
      </trkpt>
      <trkpt lat="41.1527010" lon="-8.6334760">
        <ele>76.3</ele>
        <time>2021-05-15T18:18:50Z</time>
      </trkpt>
      <trkpt lat="41.1527010" lon="-8.6334960">
        <ele>76.3</ele>
        <time>2021-05-15T18:18:51Z</time>
      </trkpt>
      <trkpt lat="41.1526940" lon="-8.6335010">
        <ele>76.2</ele>
        <time>2021-05-15T18:18:52Z</time>
      </trkpt>
      <trkpt lat="41.1526950" lon="-8.6335240">
        <ele>76.2</ele>
        <time>2021-05-15T18:18:53Z</time>
      </trkpt>
      <trkpt lat="41.1526960" lon="-8.6335410">
        <ele>76.2</ele>
        <time>2021-05-15T18:18:54Z</time>
      </trkpt>
      <trkpt lat="41.1527000" lon="-8.6335560">
        <ele>76.1</ele>
        <time>2021-05-15T18:18:55Z</time>
      </trkpt>
      <trkpt lat="41.1526980" lon="-8.6335650">
        <ele>76.1</ele>
        <time>2021-05-15T18:18:56Z</time>
      </trkpt>
      <trkpt lat="41.1526980" lon="-8.6335850">
        <ele>76.1</ele>
        <time>2021-05-15T18:18:57Z</time>
      </trkpt>
      <trkpt lat="41.1527010" lon="-8.6336150">
        <ele>76.0</ele>
        <time>2021-05-15T18:18:58Z</time>
      </trkpt>
      <trkpt lat="41.1527040" lon="-8.6336260">
        <ele>76.0</ele>
        <time>2021-05-15T18:18:59Z</time>
      </trkpt>
      <trkpt lat="41.1527060" lon="-8.6336370">
        <ele>76.0</ele>
        <time>2021-05-15T18:19:00Z</time>
      </trkpt>
      <trkpt lat="41.1527090" lon="-8.6336660">
        <ele>75.9</ele>
        <time>2021-05-15T18:19:01Z</time>
      </trkpt>
      <trkpt lat="41.1527170" lon="-8.6336750">
        <ele>75.9</ele>
        <time>2021-05-15T18:19:02Z</time>
      </trkpt>
      <trkpt lat="41.1527120" lon="-8.6336840">
        <ele>75.9</ele>
        <time>2021-05-15T18:19:03Z</time>
      </trkpt>
      <trkpt lat="41.1527070" lon="-8.6337000">
        <ele>75.9</ele>
        <time>2021-05-15T18:19:04Z</time>
      </trkpt>
      <trkpt lat="41.1527130" lon="-8.6337180">
        <ele>75.8</ele>
        <time>2021-05-15T18:19:05Z</time>
      </trkpt>
      <trkpt lat="41.1527120" lon="-8.6337360">
        <ele>75.8</ele>
        <time>2021-05-15T18:19:06Z</time>
      </trkpt>
      <trkpt lat="41.1527140" lon="-8.6337600">
        <ele>75.8</ele>
        <time>2021-05-15T18:19:07Z</time>
      </trkpt>
      <trkpt lat="41.1527200" lon="-8.6337760">
        <ele>75.8</ele>
        <time>2021-05-15T18:19:08Z</time>
      </trkpt>
      <trkpt lat="41.1527320" lon="-8.6337930">
        <ele>75.7</ele>
        <time>2021-05-15T18:19:09Z</time>
      </trkpt>
      <trkpt lat="41.1527350" lon="-8.6338150">
        <ele>75.7</ele>
        <time>2021-05-15T18:19:10Z</time>
      </trkpt>
      <trkpt lat="41.1527350" lon="-8.6338330">
        <ele>75.7</ele>
        <time>2021-05-15T18:19:11Z</time>
      </trkpt>
      <trkpt lat="41.1527380" lon="-8.6338540">
        <ele>75.7</ele>
        <time>2021-05-15T18:19:12Z</time>
      </trkpt>
      <trkpt lat="41.1527350" lon="-8.6338630">
        <ele>75.7</ele>
        <time>2021-05-15T18:19:13Z</time>
      </trkpt>
      <trkpt lat="41.1527380" lon="-8.6338810">
        <ele>75.6</ele>
        <time>2021-05-15T18:19:14Z</time>
      </trkpt>
      <trkpt lat="41.1527360" lon="-8.6339000">
        <ele>75.6</ele>
        <time>2021-05-15T18:19:15Z</time>
      </trkpt>
      <trkpt lat="41.1527340" lon="-8.6339210">
        <ele>75.6</ele>
        <time>2021-05-15T18:19:16Z</time>
      </trkpt>
      <trkpt lat="41.1527370" lon="-8.6339460">
        <ele>75.6</ele>
        <time>2021-05-15T18:19:17Z</time>
      </trkpt>
      <trkpt lat="41.1527400" lon="-8.6339580">
        <ele>75.6</ele>
        <time>2021-05-15T18:19:18Z</time>
      </trkpt>
      <trkpt lat="41.1527420" lon="-8.6339690">
        <ele>75.6</ele>
        <time>2021-05-15T18:19:19Z</time>
      </trkpt>
      <trkpt lat="41.1527390" lon="-8.6339870">
        <ele>75.5</ele>
        <time>2021-05-15T18:19:20Z</time>
      </trkpt>
      <trkpt lat="41.1527370" lon="-8.6340010">
        <ele>75.5</ele>
        <time>2021-05-15T18:19:21Z</time>
      </trkpt>
      <trkpt lat="41.1527350" lon="-8.6340140">
        <ele>75.5</ele>
        <time>2021-05-15T18:19:22Z</time>
      </trkpt>
      <trkpt lat="41.1527190" lon="-8.6340460">
        <ele>75.5</ele>
        <time>2021-05-15T18:19:23Z</time>
      </trkpt>
      <trkpt lat="41.1527060" lon="-8.6340550">
        <ele>75.5</ele>
        <time>2021-05-15T18:19:24Z</time>
      </trkpt>
      <trkpt lat="41.1526770" lon="-8.6340860">
        <ele>75.4</ele>
        <time>2021-05-15T18:19:25Z</time>
      </trkpt>
      <trkpt lat="41.1526700" lon="-8.6340980">
        <ele>75.4</ele>
        <time>2021-05-15T18:19:26Z</time>
      </trkpt>
      <trkpt lat="41.1526550" lon="-8.6341330">
        <ele>75.4</ele>
        <time>2021-05-15T18:19:27Z</time>
      </trkpt>
      <trkpt lat="41.1526510" lon="-8.6341450">
        <ele>75.4</ele>
        <time>2021-05-15T18:19:28Z</time>
      </trkpt>
      <trkpt lat="41.1526340" lon="-8.6341790">
        <ele>75.4</ele>
        <time>2021-05-15T18:19:29Z</time>
      </trkpt>
      <trkpt lat="41.1526310" lon="-8.6341880">
        <ele>75.4</ele>
        <time>2021-05-15T18:19:30Z</time>
      </trkpt>
      <trkpt lat="41.1526250" lon="-8.6342060">
        <ele>75.4</ele>
        <time>2021-05-15T18:19:31Z</time>
      </trkpt>
      <trkpt lat="41.1526230" lon="-8.6342270">
        <ele>75.3</ele>
        <time>2021-05-15T18:19:32Z</time>
      </trkpt>
      <trkpt lat="41.1526210" lon="-8.6342390">
        <ele>75.3</ele>
        <time>2021-05-15T18:19:33Z</time>
      </trkpt>
      <trkpt lat="41.1526190" lon="-8.6342610">
        <ele>75.3</ele>
        <time>2021-05-15T18:19:34Z</time>
      </trkpt>
      <trkpt lat="41.1526190" lon="-8.6342650">
        <ele>75.3</ele>
        <time>2021-05-15T18:19:35Z</time>
      </trkpt>
      <trkpt lat="41.1526160" lon="-8.6342820">
        <ele>75.3</ele>
        <time>2021-05-15T18:19:36Z</time>
      </trkpt>
      <trkpt lat="41.1526120" lon="-8.6343030">
        <ele>75.3</ele>
        <time>2021-05-15T18:19:37Z</time>
      </trkpt>
      <trkpt lat="41.1526090" lon="-8.6343260">
        <ele>75.3</ele>
        <time>2021-05-15T18:19:38Z</time>
      </trkpt>
      <trkpt lat="41.1526050" lon="-8.6343460">
        <ele>75.3</ele>
        <time>2021-05-15T18:19:39Z</time>
      </trkpt>
      <trkpt lat="41.1526030" lon="-8.6343730">
        <ele>75.2</ele>
        <time>2021-05-15T18:19:40Z</time>
      </trkpt>
      <trkpt lat="41.1526030" lon="-8.6343860">
        <ele>75.2</ele>
        <time>2021-05-15T18:19:41Z</time>
      </trkpt>
      <trkpt lat="41.1526030" lon="-8.6343990">
        <ele>75.2</ele>
        <time>2021-05-15T18:19:42Z</time>
      </trkpt>
      <trkpt lat="41.1526040" lon="-8.6344240">
        <ele>75.2</ele>
        <time>2021-05-15T18:19:43Z</time>
      </trkpt>
      <trkpt lat="41.1526040" lon="-8.6344330">
        <ele>75.2</ele>
        <time>2021-05-15T18:19:44Z</time>
      </trkpt>
      <trkpt lat="41.1526030" lon="-8.6344410">
        <ele>75.2</ele>
        <time>2021-05-15T18:19:45Z</time>
      </trkpt>
      <trkpt lat="41.1526030" lon="-8.6344500">
        <ele>75.2</ele>
        <time>2021-05-15T18:19:46Z</time>
      </trkpt>
      <trkpt lat="41.1526010" lon="-8.6344660">
        <ele>75.2</ele>
        <time>2021-05-15T18:19:47Z</time>
      </trkpt>
      <trkpt lat="41.1526010" lon="-8.6344830">
        <ele>75.2</ele>
        <time>2021-05-15T18:19:48Z</time>
      </trkpt>
      <trkpt lat="41.1526000" lon="-8.6344940">
        <ele>75.2</ele>
        <time>2021-05-15T18:19:49Z</time>
      </trkpt>
      <trkpt lat="41.1526040" lon="-8.6345130">
        <ele>75.2</ele>
        <time>2021-05-15T18:19:50Z</time>
      </trkpt>
      <trkpt lat="41.1526000" lon="-8.6345310">
        <ele>75.2</ele>
        <time>2021-05-15T18:19:51Z</time>
      </trkpt>
      <trkpt lat="41.1525990" lon="-8.6345520">
        <ele>75.1</ele>
        <time>2021-05-15T18:19:52Z</time>
      </trkpt>
      <trkpt lat="41.1526000" lon="-8.6345680">
        <ele>75.1</ele>
        <time>2021-05-15T18:19:53Z</time>
      </trkpt>
      <trkpt lat="41.1525980" lon="-8.6345860">
        <ele>75.1</ele>
        <time>2021-05-15T18:19:54Z</time>
      </trkpt>
      <trkpt lat="41.1525980" lon="-8.6345970">
        <ele>75.1</ele>
        <time>2021-05-15T18:19:55Z</time>
      </trkpt>
      <trkpt lat="41.1526020" lon="-8.6346070">
        <ele>75.1</ele>
        <time>2021-05-15T18:19:56Z</time>
      </trkpt>
      <trkpt lat="41.1525950" lon="-8.6346170">
        <ele>75.1</ele>
        <time>2021-05-15T18:19:57Z</time>
      </trkpt>
      <trkpt lat="41.1525910" lon="-8.6346350">
        <ele>75.1</ele>
        <time>2021-05-15T18:19:58Z</time>
      </trkpt>
      <trkpt lat="41.1525930" lon="-8.6346500">
        <ele>75.1</ele>
        <time>2021-05-15T18:19:59Z</time>
      </trkpt>
      <trkpt lat="41.1525900" lon="-8.6346660">
        <ele>75.1</ele>
        <time>2021-05-15T18:20:00Z</time>
      </trkpt>
      <trkpt lat="41.1525890" lon="-8.6346900">
        <ele>75.1</ele>
        <time>2021-05-15T18:20:01Z</time>
      </trkpt>
      <trkpt lat="41.1525890" lon="-8.6347080">
        <ele>75.1</ele>
        <time>2021-05-15T18:20:02Z</time>
      </trkpt>
      <trkpt lat="41.1525900" lon="-8.6347260">
        <ele>75.1</ele>
        <time>2021-05-15T18:20:03Z</time>
      </trkpt>
      <trkpt lat="41.1525870" lon="-8.6347410">
        <ele>75.1</ele>
        <time>2021-05-15T18:20:04Z</time>
      </trkpt>
      <trkpt lat="41.1525750" lon="-8.6347560">
        <ele>75.1</ele>
        <time>2021-05-15T18:20:05Z</time>
      </trkpt>
      <trkpt lat="41.1525660" lon="-8.6347790">
        <ele>75.1</ele>
        <time>2021-05-15T18:20:06Z</time>
      </trkpt>
      <trkpt lat="41.1525600" lon="-8.6347900">
        <ele>75.1</ele>
        <time>2021-05-15T18:20:07Z</time>
      </trkpt>
      <trkpt lat="41.1525540" lon="-8.6348000">
        <ele>75.1</ele>
        <time>2021-05-15T18:20:08Z</time>
      </trkpt>
      <trkpt lat="41.1525470" lon="-8.6348150">
        <ele>75.1</ele>
        <time>2021-05-15T18:20:09Z</time>
      </trkpt>
      <trkpt lat="41.1525480" lon="-8.6348320">
        <ele>75.1</ele>
        <time>2021-05-15T18:20:10Z</time>
      </trkpt>
      <trkpt lat="41.1525430" lon="-8.6348420">
        <ele>75.1</ele>
        <time>2021-05-15T18:20:11Z</time>
      </trkpt>
      <trkpt lat="41.1525340" lon="-8.6348570">
        <ele>75.1</ele>
        <time>2021-05-15T18:20:12Z</time>
      </trkpt>
      <trkpt lat="41.1525250" lon="-8.6348770">
        <ele>75.1</ele>
        <time>2021-05-15T18:20:13Z</time>
      </trkpt>
      <trkpt lat="41.1525160" lon="-8.6349000">
        <ele>75.1</ele>
        <time>2021-05-15T18:20:14Z</time>
      </trkpt>
      <trkpt lat="41.1525130" lon="-8.6349170">
        <ele>75.1</ele>
        <time>2021-05-15T18:20:15Z</time>
      </trkpt>
      <trkpt lat="41.1525050" lon="-8.6349500">
        <ele>75.1</ele>
        <time>2021-05-15T18:20:16Z</time>
      </trkpt>
      <trkpt lat="41.1524990" lon="-8.6349620">
        <ele>75.1</ele>
        <time>2021-05-15T18:20:17Z</time>
      </trkpt>
      <trkpt lat="41.1524940" lon="-8.6349740">
        <ele>75.1</ele>
        <time>2021-05-15T18:20:18Z</time>
      </trkpt>
      <trkpt lat="41.1524900" lon="-8.6350040">
        <ele>75.1</ele>
        <time>2021-05-15T18:20:19Z</time>
      </trkpt>
      <trkpt lat="41.1524890" lon="-8.6350160">
        <ele>75.1</ele>
        <time>2021-05-15T18:20:20Z</time>
      </trkpt>
      <trkpt lat="41.1524900" lon="-8.6350340">
        <ele>75.1</ele>
        <time>2021-05-15T18:20:21Z</time>
      </trkpt>
      <trkpt lat="41.1524890" lon="-8.6350470">
        <ele>75.1</ele>
        <time>2021-05-15T18:20:22Z</time>
      </trkpt>
      <trkpt lat="41.1524930" lon="-8.6350630">
        <ele>75.1</ele>
        <time>2021-05-15T18:20:23Z</time>
      </trkpt>
      <trkpt lat="41.1524900" lon="-8.6350900">
        <ele>75.1</ele>
        <time>2021-05-15T18:20:24Z</time>
      </trkpt>
      <trkpt lat="41.1524830" lon="-8.6351080">
        <ele>75.2</ele>
        <time>2021-05-15T18:20:25Z</time>
      </trkpt>
      <trkpt lat="41.1524800" lon="-8.6351300">
        <ele>75.2</ele>
        <time>2021-05-15T18:20:26Z</time>
      </trkpt>
      <trkpt lat="41.1524710" lon="-8.6351410">
        <ele>75.2</ele>
        <time>2021-05-15T18:20:27Z</time>
      </trkpt>
      <trkpt lat="41.1524690" lon="-8.6351590">
        <ele>75.2</ele>
        <time>2021-05-15T18:20:28Z</time>
      </trkpt>
      <trkpt lat="41.1524670" lon="-8.6351690">
        <ele>75.2</ele>
        <time>2021-05-15T18:20:29Z</time>
      </trkpt>
      <trkpt lat="41.1524630" lon="-8.6351880">
        <ele>75.2</ele>
        <time>2021-05-15T18:20:30Z</time>
      </trkpt>
      <trkpt lat="41.1524660" lon="-8.6352010">
        <ele>75.2</ele>
        <time>2021-05-15T18:20:31Z</time>
      </trkpt>
      <trkpt lat="41.1524690" lon="-8.6352250">
        <ele>75.2</ele>
        <time>2021-05-15T18:20:32Z</time>
      </trkpt>
      <trkpt lat="41.1524660" lon="-8.6352490">
        <ele>75.2</ele>
        <time>2021-05-15T18:20:33Z</time>
      </trkpt>
      <trkpt lat="41.1524680" lon="-8.6352730">
        <ele>75.2</ele>
        <time>2021-05-15T18:20:34Z</time>
      </trkpt>
      <trkpt lat="41.1524710" lon="-8.6352990">
        <ele>75.2</ele>
        <time>2021-05-15T18:20:35Z</time>
      </trkpt>
      <trkpt lat="41.1524680" lon="-8.6353140">
        <ele>75.2</ele>
        <time>2021-05-15T18:20:36Z</time>
      </trkpt>
      <trkpt lat="41.1524660" lon="-8.6353290">
        <ele>75.3</ele>
        <time>2021-05-15T18:20:37Z</time>
      </trkpt>
      <trkpt lat="41.1524690" lon="-8.6353590">
        <ele>75.3</ele>
        <time>2021-05-15T18:20:38Z</time>
      </trkpt>
      <trkpt lat="41.1524680" lon="-8.6353710">
        <ele>75.3</ele>
        <time>2021-05-15T18:20:39Z</time>
      </trkpt>
      <trkpt lat="41.1524680" lon="-8.6353840">
        <ele>75.3</ele>
        <time>2021-05-15T18:20:40Z</time>
      </trkpt>
      <trkpt lat="41.1524720" lon="-8.6354170">
        <ele>75.3</ele>
        <time>2021-05-15T18:20:41Z</time>
      </trkpt>
      <trkpt lat="41.1524760" lon="-8.6354350">
        <ele>75.3</ele>
        <time>2021-05-15T18:20:42Z</time>
      </trkpt>
      <trkpt lat="41.1524820" lon="-8.6354550">
        <ele>75.4</ele>
        <time>2021-05-15T18:20:43Z</time>
      </trkpt>
      <trkpt lat="41.1524920" lon="-8.6354710">
        <ele>75.4</ele>
        <time>2021-05-15T18:20:44Z</time>
      </trkpt>
      <trkpt lat="41.1525070" lon="-8.6354930">
        <ele>75.4</ele>
        <time>2021-05-15T18:20:45Z</time>
      </trkpt>
      <trkpt lat="41.1525100" lon="-8.6355110">
        <ele>75.4</ele>
        <time>2021-05-15T18:20:46Z</time>
      </trkpt>
      <trkpt lat="41.1525170" lon="-8.6355250">
        <ele>75.4</ele>
        <time>2021-05-15T18:20:47Z</time>
      </trkpt>
      <trkpt lat="41.1525270" lon="-8.6355530">
        <ele>75.5</ele>
        <time>2021-05-15T18:20:48Z</time>
      </trkpt>
      <trkpt lat="41.1525360" lon="-8.6355770">
        <ele>75.5</ele>
        <time>2021-05-15T18:20:49Z</time>
      </trkpt>
      <trkpt lat="41.1525390" lon="-8.6355890">
        <ele>75.5</ele>
        <time>2021-05-15T18:20:50Z</time>
      </trkpt>
      <trkpt lat="41.1525420" lon="-8.6356000">
        <ele>75.5</ele>
        <time>2021-05-15T18:20:51Z</time>
      </trkpt>
      <trkpt lat="41.1525470" lon="-8.6356260">
        <ele>75.6</ele>
        <time>2021-05-15T18:20:52Z</time>
      </trkpt>
      <trkpt lat="41.1525470" lon="-8.6356420">
        <ele>75.6</ele>
        <time>2021-05-15T18:20:53Z</time>
      </trkpt>
      <trkpt lat="41.1525480" lon="-8.6356570">
        <ele>75.6</ele>
        <time>2021-05-15T18:20:54Z</time>
      </trkpt>
      <trkpt lat="41.1525450" lon="-8.6356840">
        <ele>75.6</ele>
        <time>2021-05-15T18:20:55Z</time>
      </trkpt>
      <trkpt lat="41.1525460" lon="-8.6356950">
        <ele>75.7</ele>
        <time>2021-05-15T18:20:56Z</time>
      </trkpt>
      <trkpt lat="41.1525470" lon="-8.6357050">
        <ele>75.7</ele>
        <time>2021-05-15T18:20:57Z</time>
      </trkpt>
      <trkpt lat="41.1525530" lon="-8.6357290">
        <ele>75.7</ele>
        <time>2021-05-15T18:20:58Z</time>
      </trkpt>
      <trkpt lat="41.1525620" lon="-8.6357460">
        <ele>75.7</ele>
        <time>2021-05-15T18:20:59Z</time>
      </trkpt>
      <trkpt lat="41.1525690" lon="-8.6357600">
        <ele>75.7</ele>
        <time>2021-05-15T18:21:00Z</time>
      </trkpt>
      <trkpt lat="41.1525760" lon="-8.6357780">
        <ele>75.8</ele>
        <time>2021-05-15T18:21:01Z</time>
      </trkpt>
      <trkpt lat="41.1525870" lon="-8.6358200">
        <ele>75.8</ele>
        <time>2021-05-15T18:21:02Z</time>
      </trkpt>
      <trkpt lat="41.1525860" lon="-8.6358290">
        <ele>75.8</ele>
        <time>2021-05-15T18:21:03Z</time>
      </trkpt>
      <trkpt lat="41.1525820" lon="-8.6358490">
        <ele>75.9</ele>
        <time>2021-05-15T18:21:04Z</time>
      </trkpt>
      <trkpt lat="41.1525710" lon="-8.6358670">
        <ele>75.9</ele>
        <time>2021-05-15T18:21:05Z</time>
      </trkpt>
      <trkpt lat="41.1525720" lon="-8.6358860">
        <ele>75.9</ele>
        <time>2021-05-15T18:21:06Z</time>
      </trkpt>
      <trkpt lat="41.1525710" lon="-8.6359100">
        <ele>76.0</ele>
        <time>2021-05-15T18:21:07Z</time>
      </trkpt>
      <trkpt lat="41.1525690" lon="-8.6359260">
        <ele>76.0</ele>
        <time>2021-05-15T18:21:08Z</time>
      </trkpt>
      <trkpt lat="41.1525630" lon="-8.6359420">
        <ele>76.0</ele>
        <time>2021-05-15T18:21:09Z</time>
      </trkpt>
      <trkpt lat="41.1525630" lon="-8.6359550">
        <ele>76.0</ele>
        <time>2021-05-15T18:21:10Z</time>
      </trkpt>
      <trkpt lat="41.1525640" lon="-8.6359840">
        <ele>76.1</ele>
        <time>2021-05-15T18:21:11Z</time>
      </trkpt>
      <trkpt lat="41.1525660" lon="-8.6359950">
        <ele>76.1</ele>
        <time>2021-05-15T18:21:12Z</time>
      </trkpt>
      <trkpt lat="41.1525680" lon="-8.6360070">
        <ele>76.1</ele>
        <time>2021-05-15T18:21:13Z</time>
      </trkpt>
      <trkpt lat="41.1525710" lon="-8.6360250">
        <ele>76.1</ele>
        <time>2021-05-15T18:21:14Z</time>
      </trkpt>
      <trkpt lat="41.1525690" lon="-8.6360400">
        <ele>76.1</ele>
        <time>2021-05-15T18:21:15Z</time>
      </trkpt>
      <trkpt lat="41.1525750" lon="-8.6360520">
        <ele>76.2</ele>
        <time>2021-05-15T18:21:16Z</time>
      </trkpt>
      <trkpt lat="41.1525730" lon="-8.6360710">
        <ele>76.2</ele>
        <time>2021-05-15T18:21:17Z</time>
      </trkpt>
      <trkpt lat="41.1525820" lon="-8.6360910">
        <ele>76.2</ele>
        <time>2021-05-15T18:21:18Z</time>
      </trkpt>
      <trkpt lat="41.1525900" lon="-8.6361070">
        <ele>76.3</ele>
        <time>2021-05-15T18:21:19Z</time>
      </trkpt>
      <trkpt lat="41.1525920" lon="-8.6361260">
        <ele>76.3</ele>
        <time>2021-05-15T18:21:20Z</time>
      </trkpt>
      <trkpt lat="41.1525970" lon="-8.6361390">
        <ele>76.3</ele>
        <time>2021-05-15T18:21:21Z</time>
      </trkpt>
      <trkpt lat="41.1526040" lon="-8.6361560">
        <ele>76.3</ele>
        <time>2021-05-15T18:21:22Z</time>
      </trkpt>
      <trkpt lat="41.1526080" lon="-8.6361690">
        <ele>76.4</ele>
        <time>2021-05-15T18:21:23Z</time>
      </trkpt>
      <trkpt lat="41.1526170" lon="-8.6361830">
        <ele>76.4</ele>
        <time>2021-05-15T18:21:24Z</time>
      </trkpt>
      <trkpt lat="41.1526170" lon="-8.6362030">
        <ele>76.4</ele>
        <time>2021-05-15T18:21:25Z</time>
      </trkpt>
      <trkpt lat="41.1526270" lon="-8.6362230">
        <ele>76.5</ele>
        <time>2021-05-15T18:21:26Z</time>
      </trkpt>
      <trkpt lat="41.1526330" lon="-8.6362330">
        <ele>76.5</ele>
        <time>2021-05-15T18:21:27Z</time>
      </trkpt>
      <trkpt lat="41.1526340" lon="-8.6362590">
        <ele>76.6</ele>
        <time>2021-05-15T18:21:28Z</time>
      </trkpt>
      <trkpt lat="41.1526370" lon="-8.6362710">
        <ele>76.6</ele>
        <time>2021-05-15T18:21:29Z</time>
      </trkpt>
      <trkpt lat="41.1526410" lon="-8.6362820">
        <ele>76.6</ele>
        <time>2021-05-15T18:21:30Z</time>
      </trkpt>
      <trkpt lat="41.1526430" lon="-8.6363110">
        <ele>76.7</ele>
        <time>2021-05-15T18:21:31Z</time>
      </trkpt>
      <trkpt lat="41.1526450" lon="-8.6363230">
        <ele>76.7</ele>
        <time>2021-05-15T18:21:32Z</time>
      </trkpt>
      <trkpt lat="41.1526470" lon="-8.6363350">
        <ele>76.7</ele>
        <time>2021-05-15T18:21:33Z</time>
      </trkpt>
      <trkpt lat="41.1526460" lon="-8.6363450">
        <ele>76.7</ele>
        <time>2021-05-15T18:21:34Z</time>
      </trkpt>
      <trkpt lat="41.1526490" lon="-8.6363580">
        <ele>76.7</ele>
        <time>2021-05-15T18:21:35Z</time>
      </trkpt>
      <trkpt lat="41.1526460" lon="-8.6363760">
        <ele>76.8</ele>
        <time>2021-05-15T18:21:36Z</time>
      </trkpt>
      <trkpt lat="41.1526470" lon="-8.6363930">
        <ele>76.8</ele>
        <time>2021-05-15T18:21:37Z</time>
      </trkpt>
      <trkpt lat="41.1526520" lon="-8.6364140">
        <ele>76.8</ele>
        <time>2021-05-15T18:21:38Z</time>
      </trkpt>
      <trkpt lat="41.1526520" lon="-8.6364300">
        <ele>76.9</ele>
        <time>2021-05-15T18:21:39Z</time>
      </trkpt>
      <trkpt lat="41.1526560" lon="-8.6364520">
        <ele>76.9</ele>
        <time>2021-05-15T18:21:40Z</time>
      </trkpt>
      <trkpt lat="41.1526550" lon="-8.6364780">
        <ele>77.0</ele>
        <time>2021-05-15T18:21:41Z</time>
      </trkpt>
      <trkpt lat="41.1526540" lon="-8.6364920">
        <ele>77.0</ele>
        <time>2021-05-15T18:21:42Z</time>
      </trkpt>
      <trkpt lat="41.1526540" lon="-8.6365050">
        <ele>77.0</ele>
        <time>2021-05-15T18:21:43Z</time>
      </trkpt>
      <trkpt lat="41.1526570" lon="-8.6365250">
        <ele>77.0</ele>
        <time>2021-05-15T18:21:44Z</time>
      </trkpt>
      <trkpt lat="41.1526610" lon="-8.6365470">
        <ele>77.1</ele>
        <time>2021-05-15T18:21:45Z</time>
      </trkpt>
      <trkpt lat="41.1526650" lon="-8.6365750">
        <ele>77.1</ele>
        <time>2021-05-15T18:21:46Z</time>
      </trkpt>
      <trkpt lat="41.1526680" lon="-8.6365860">
        <ele>77.1</ele>
        <time>2021-05-15T18:21:47Z</time>
      </trkpt>
      <trkpt lat="41.1526720" lon="-8.6365970">
        <ele>77.1</ele>
        <time>2021-05-15T18:21:48Z</time>
      </trkpt>
      <trkpt lat="41.1526770" lon="-8.6366240">
        <ele>77.2</ele>
        <time>2021-05-15T18:21:49Z</time>
      </trkpt>
      <trkpt lat="41.1526790" lon="-8.6366360">
        <ele>77.2</ele>
        <time>2021-05-15T18:21:50Z</time>
      </trkpt>
      <trkpt lat="41.1526820" lon="-8.6366480">
        <ele>77.2</ele>
        <time>2021-05-15T18:21:51Z</time>
      </trkpt>
      <trkpt lat="41.1526880" lon="-8.6366660">
        <ele>77.3</ele>
        <time>2021-05-15T18:21:52Z</time>
      </trkpt>
      <trkpt lat="41.1526960" lon="-8.6366870">
        <ele>77.3</ele>
        <time>2021-05-15T18:21:53Z</time>
      </trkpt>
      <trkpt lat="41.1526980" lon="-8.6367020">
        <ele>77.3</ele>
        <time>2021-05-15T18:21:54Z</time>
      </trkpt>
      <trkpt lat="41.1527060" lon="-8.6367170">
        <ele>77.3</ele>
        <time>2021-05-15T18:21:55Z</time>
      </trkpt>
      <trkpt lat="41.1527090" lon="-8.6367230">
        <ele>77.3</ele>
        <time>2021-05-15T18:21:56Z</time>
      </trkpt>
      <trkpt lat="41.1527090" lon="-8.6367330">
        <ele>77.4</ele>
        <time>2021-05-15T18:21:57Z</time>
      </trkpt>
      <trkpt lat="41.1527140" lon="-8.6367670">
        <ele>77.4</ele>
        <time>2021-05-15T18:21:58Z</time>
      </trkpt>
      <trkpt lat="41.1527110" lon="-8.6367870">
        <ele>77.4</ele>
        <time>2021-05-15T18:21:59Z</time>
      </trkpt>
      <trkpt lat="41.1527140" lon="-8.6368100">
        <ele>77.5</ele>
        <time>2021-05-15T18:22:00Z</time>
      </trkpt>
      <trkpt lat="41.1527210" lon="-8.6368360">
        <ele>77.5</ele>
        <time>2021-05-15T18:22:01Z</time>
      </trkpt>
      <trkpt lat="41.1527220" lon="-8.6368470">
        <ele>77.5</ele>
        <time>2021-05-15T18:22:02Z</time>
      </trkpt>
      <trkpt lat="41.1527230" lon="-8.6368580">
        <ele>77.5</ele>
        <time>2021-05-15T18:22:03Z</time>
      </trkpt>
      <trkpt lat="41.1527300" lon="-8.6368830">
        <ele>77.5</ele>
        <time>2021-05-15T18:22:04Z</time>
      </trkpt>
      <trkpt lat="41.1527310" lon="-8.6368940">
        <ele>77.5</ele>
        <time>2021-05-15T18:22:05Z</time>
      </trkpt>
      <trkpt lat="41.1527310" lon="-8.6369060">
        <ele>77.6</ele>
        <time>2021-05-15T18:22:06Z</time>
      </trkpt>
      <trkpt lat="41.1527390" lon="-8.6369230">
        <ele>77.6</ele>
        <time>2021-05-15T18:22:07Z</time>
      </trkpt>
      <trkpt lat="41.1527430" lon="-8.6369350">
        <ele>77.6</ele>
        <time>2021-05-15T18:22:08Z</time>
      </trkpt>
      <trkpt lat="41.1527440" lon="-8.6369500">
        <ele>77.6</ele>
        <time>2021-05-15T18:22:09Z</time>
      </trkpt>
      <trkpt lat="41.1527500" lon="-8.6369740">
        <ele>77.6</ele>
        <time>2021-05-15T18:22:10Z</time>
      </trkpt>
      <trkpt lat="41.1527520" lon="-8.6369930">
        <ele>77.6</ele>
        <time>2021-05-15T18:22:11Z</time>
      </trkpt>
      <trkpt lat="41.1527580" lon="-8.6370110">
        <ele>77.7</ele>
        <time>2021-05-15T18:22:12Z</time>
      </trkpt>
      <trkpt lat="41.1527660" lon="-8.6370360">
        <ele>77.7</ele>
        <time>2021-05-15T18:22:13Z</time>
      </trkpt>
      <trkpt lat="41.1527700" lon="-8.6370480">
        <ele>77.7</ele>
        <time>2021-05-15T18:22:14Z</time>
      </trkpt>
      <trkpt lat="41.1527820" lon="-8.6370720">
        <ele>77.7</ele>
        <time>2021-05-15T18:22:15Z</time>
      </trkpt>
      <trkpt lat="41.1527930" lon="-8.6370910">
        <ele>77.7</ele>
        <time>2021-05-15T18:22:16Z</time>
      </trkpt>
      <trkpt lat="41.1528000" lon="-8.6371040">
        <ele>77.7</ele>
        <time>2021-05-15T18:22:17Z</time>
      </trkpt>
      <trkpt lat="41.1528100" lon="-8.6371210">
        <ele>77.8</ele>
        <time>2021-05-15T18:22:18Z</time>
      </trkpt>
      <trkpt lat="41.1528140" lon="-8.6371420">
        <ele>77.8</ele>
        <time>2021-05-15T18:22:19Z</time>
      </trkpt>
      <trkpt lat="41.1528160" lon="-8.6371640">
        <ele>77.8</ele>
        <time>2021-05-15T18:22:20Z</time>
      </trkpt>
      <trkpt lat="41.1528180" lon="-8.6371840">
        <ele>77.8</ele>
        <time>2021-05-15T18:22:21Z</time>
      </trkpt>
      <trkpt lat="41.1528240" lon="-8.6372050">
        <ele>77.8</ele>
        <time>2021-05-15T18:22:22Z</time>
      </trkpt>
      <trkpt lat="41.1528310" lon="-8.6372210">
        <ele>77.8</ele>
        <time>2021-05-15T18:22:23Z</time>
      </trkpt>
      <trkpt lat="41.1528400" lon="-8.6372280">
        <ele>77.8</ele>
        <time>2021-05-15T18:22:24Z</time>
      </trkpt>
      <trkpt lat="41.1528440" lon="-8.6372420">
        <ele>77.8</ele>
        <time>2021-05-15T18:22:25Z</time>
      </trkpt>
      <trkpt lat="41.1528430" lon="-8.6372630">
        <ele>77.8</ele>
        <time>2021-05-15T18:22:26Z</time>
      </trkpt>
      <trkpt lat="41.1528520" lon="-8.6372790">
        <ele>77.8</ele>
        <time>2021-05-15T18:22:27Z</time>
      </trkpt>
      <trkpt lat="41.1528600" lon="-8.6373000">
        <ele>77.8</ele>
        <time>2021-05-15T18:22:28Z</time>
      </trkpt>
      <trkpt lat="41.1528640" lon="-8.6373140">
        <ele>77.8</ele>
        <time>2021-05-15T18:22:29Z</time>
      </trkpt>
      <trkpt lat="41.1528720" lon="-8.6373320">
        <ele>77.8</ele>
        <time>2021-05-15T18:22:30Z</time>
      </trkpt>
      <trkpt lat="41.1528820" lon="-8.6373530">
        <ele>77.8</ele>
        <time>2021-05-15T18:22:31Z</time>
      </trkpt>
      <trkpt lat="41.1528830" lon="-8.6373650">
        <ele>77.8</ele>
        <time>2021-05-15T18:22:32Z</time>
      </trkpt>
      <trkpt lat="41.1528890" lon="-8.6373810">
        <ele>77.8</ele>
        <time>2021-05-15T18:22:33Z</time>
      </trkpt>
      <trkpt lat="41.1528940" lon="-8.6374050">
        <ele>77.8</ele>
        <time>2021-05-15T18:22:34Z</time>
      </trkpt>
      <trkpt lat="41.1528980" lon="-8.6374320">
        <ele>77.7</ele>
        <time>2021-05-15T18:22:35Z</time>
      </trkpt>
      <trkpt lat="41.1529000" lon="-8.6374440">
        <ele>77.7</ele>
        <time>2021-05-15T18:22:36Z</time>
      </trkpt>
      <trkpt lat="41.1529020" lon="-8.6374570">
        <ele>77.7</ele>
        <time>2021-05-15T18:22:37Z</time>
      </trkpt>
      <trkpt lat="41.1529070" lon="-8.6374690">
        <ele>77.7</ele>
        <time>2021-05-15T18:22:38Z</time>
      </trkpt>
      <trkpt lat="41.1529220" lon="-8.6374830">
        <ele>77.7</ele>
        <time>2021-05-15T18:22:39Z</time>
      </trkpt>
      <trkpt lat="41.1529340" lon="-8.6375100">
        <ele>77.7</ele>
        <time>2021-05-15T18:22:40Z</time>
      </trkpt>
      <trkpt lat="41.1529370" lon="-8.6375230">
        <ele>77.7</ele>
        <time>2021-05-15T18:22:41Z</time>
      </trkpt>
      <trkpt lat="41.1529410" lon="-8.6375360">
        <ele>77.7</ele>
        <time>2021-05-15T18:22:42Z</time>
      </trkpt>
      <trkpt lat="41.1529390" lon="-8.6375510">
        <ele>77.7</ele>
        <time>2021-05-15T18:22:43Z</time>
      </trkpt>
      <trkpt lat="41.1529440" lon="-8.6375710">
        <ele>77.7</ele>
        <time>2021-05-15T18:22:44Z</time>
      </trkpt>
      <trkpt lat="41.1529410" lon="-8.6375970">
        <ele>77.7</ele>
        <time>2021-05-15T18:22:45Z</time>
      </trkpt>
      <trkpt lat="41.1529420" lon="-8.6376110">
        <ele>77.7</ele>
        <time>2021-05-15T18:22:46Z</time>
      </trkpt>
      <trkpt lat="41.1529420" lon="-8.6376250">
        <ele>77.7</ele>
        <time>2021-05-15T18:22:47Z</time>
      </trkpt>
      <trkpt lat="41.1529480" lon="-8.6376510">
        <ele>77.7</ele>
        <time>2021-05-15T18:22:48Z</time>
      </trkpt>
      <trkpt lat="41.1529540" lon="-8.6376640">
        <ele>77.7</ele>
        <time>2021-05-15T18:22:49Z</time>
      </trkpt>
      <trkpt lat="41.1529600" lon="-8.6376770">
        <ele>77.7</ele>
        <time>2021-05-15T18:22:50Z</time>
      </trkpt>
      <trkpt lat="41.1529660" lon="-8.6376930">
        <ele>77.7</ele>
        <time>2021-05-15T18:22:51Z</time>
      </trkpt>
      <trkpt lat="41.1529740" lon="-8.6377170">
        <ele>77.6</ele>
        <time>2021-05-15T18:22:52Z</time>
      </trkpt>
      <trkpt lat="41.1529740" lon="-8.6377300">
        <ele>77.6</ele>
        <time>2021-05-15T18:22:53Z</time>
      </trkpt>
      <trkpt lat="41.1529740" lon="-8.6377530">
        <ele>77.6</ele>
        <time>2021-05-15T18:22:54Z</time>
      </trkpt>
      <trkpt lat="41.1529770" lon="-8.6377720">
        <ele>77.6</ele>
        <time>2021-05-15T18:22:55Z</time>
      </trkpt>
      <trkpt lat="41.1529720" lon="-8.6377950">
        <ele>77.6</ele>
        <time>2021-05-15T18:22:56Z</time>
      </trkpt>
      <trkpt lat="41.1529900" lon="-8.6378140">
        <ele>77.6</ele>
        <time>2021-05-15T18:22:57Z</time>
      </trkpt>
      <trkpt lat="41.1529920" lon="-8.6378280">
        <ele>77.6</ele>
        <time>2021-05-15T18:22:58Z</time>
      </trkpt>
      <trkpt lat="41.1529930" lon="-8.6378510">
        <ele>77.6</ele>
        <time>2021-05-15T18:22:59Z</time>
      </trkpt>
      <trkpt lat="41.1530040" lon="-8.6378650">
        <ele>77.6</ele>
        <time>2021-05-15T18:23:00Z</time>
      </trkpt>
      <trkpt lat="41.1530150" lon="-8.6378810">
        <ele>77.6</ele>
        <time>2021-05-15T18:23:01Z</time>
      </trkpt>
      <trkpt lat="41.1530210" lon="-8.6379040">
        <ele>77.6</ele>
        <time>2021-05-15T18:23:02Z</time>
      </trkpt>
      <trkpt lat="41.1530210" lon="-8.6379290">
        <ele>77.6</ele>
        <time>2021-05-15T18:23:03Z</time>
      </trkpt>
      <trkpt lat="41.1530230" lon="-8.6379420">
        <ele>77.6</ele>
        <time>2021-05-15T18:23:04Z</time>
      </trkpt>
      <trkpt lat="41.1530240" lon="-8.6379560">
        <ele>77.5</ele>
        <time>2021-05-15T18:23:05Z</time>
      </trkpt>
      <trkpt lat="41.1530290" lon="-8.6379780">
        <ele>77.5</ele>
        <time>2021-05-15T18:23:06Z</time>
      </trkpt>
      <trkpt lat="41.1530390" lon="-8.6379990">
        <ele>77.5</ele>
        <time>2021-05-15T18:23:07Z</time>
      </trkpt>
      <trkpt lat="41.1530400" lon="-8.6380150">
        <ele>77.5</ele>
        <time>2021-05-15T18:23:08Z</time>
      </trkpt>
      <trkpt lat="41.1530480" lon="-8.6380330">
        <ele>77.5</ele>
        <time>2021-05-15T18:23:09Z</time>
      </trkpt>
      <trkpt lat="41.1530460" lon="-8.6380390">
        <ele>77.5</ele>
        <time>2021-05-15T18:23:10Z</time>
      </trkpt>
      <trkpt lat="41.1530510" lon="-8.6380640">
        <ele>77.5</ele>
        <time>2021-05-15T18:23:11Z</time>
      </trkpt>
      <trkpt lat="41.1530570" lon="-8.6380780">
        <ele>77.5</ele>
        <time>2021-05-15T18:23:12Z</time>
      </trkpt>
      <trkpt lat="41.1530620" lon="-8.6380910">
        <ele>77.5</ele>
        <time>2021-05-15T18:23:13Z</time>
      </trkpt>
      <trkpt lat="41.1530700" lon="-8.6381180">
        <ele>77.5</ele>
        <time>2021-05-15T18:23:14Z</time>
      </trkpt>
      <trkpt lat="41.1530720" lon="-8.6381280">
        <ele>77.5</ele>
        <time>2021-05-15T18:23:15Z</time>
      </trkpt>
      <trkpt lat="41.1530740" lon="-8.6381390">
        <ele>77.5</ele>
        <time>2021-05-15T18:23:16Z</time>
      </trkpt>
      <trkpt lat="41.1530790" lon="-8.6381580">
        <ele>77.5</ele>
        <time>2021-05-15T18:23:17Z</time>
      </trkpt>
      <trkpt lat="41.1530830" lon="-8.6381630">
        <ele>77.4</ele>
        <time>2021-05-15T18:23:18Z</time>
      </trkpt>
      <trkpt lat="41.1530830" lon="-8.6381840">
        <ele>77.4</ele>
        <time>2021-05-15T18:23:19Z</time>
      </trkpt>
      <trkpt lat="41.1530760" lon="-8.6381900">
        <ele>77.4</ele>
        <time>2021-05-15T18:23:20Z</time>
      </trkpt>
      <trkpt lat="41.1530840" lon="-8.6382110">
        <ele>77.4</ele>
        <time>2021-05-15T18:23:21Z</time>
      </trkpt>
      <trkpt lat="41.1530940" lon="-8.6382260">
        <ele>77.4</ele>
        <time>2021-05-15T18:23:22Z</time>
      </trkpt>
      <trkpt lat="41.1530990" lon="-8.6382420">
        <ele>77.4</ele>
        <time>2021-05-15T18:23:23Z</time>
      </trkpt>
      <trkpt lat="41.1531010" lon="-8.6382680">
        <ele>77.4</ele>
        <time>2021-05-15T18:23:24Z</time>
      </trkpt>
      <trkpt lat="41.1531010" lon="-8.6382750">
        <ele>77.4</ele>
        <time>2021-05-15T18:23:25Z</time>
      </trkpt>
      <trkpt lat="41.1531020" lon="-8.6382860">
        <ele>77.4</ele>
        <time>2021-05-15T18:23:26Z</time>
      </trkpt>
      <trkpt lat="41.1531130" lon="-8.6383050">
        <ele>77.4</ele>
        <time>2021-05-15T18:23:27Z</time>
      </trkpt>
      <trkpt lat="41.1531190" lon="-8.6383250">
        <ele>77.4</ele>
        <time>2021-05-15T18:23:28Z</time>
      </trkpt>
      <trkpt lat="41.1531260" lon="-8.6383380">
        <ele>77.3</ele>
        <time>2021-05-15T18:23:29Z</time>
      </trkpt>
      <trkpt lat="41.1531380" lon="-8.6383590">
        <ele>77.3</ele>
        <time>2021-05-15T18:23:30Z</time>
      </trkpt>
      <trkpt lat="41.1531450" lon="-8.6383770">
        <ele>77.3</ele>
        <time>2021-05-15T18:23:31Z</time>
      </trkpt>
      <trkpt lat="41.1531550" lon="-8.6384070">
        <ele>77.3</ele>
        <time>2021-05-15T18:23:32Z</time>
      </trkpt>
      <trkpt lat="41.1531580" lon="-8.6384210">
        <ele>77.3</ele>
        <time>2021-05-15T18:23:33Z</time>
      </trkpt>
      <trkpt lat="41.1531610" lon="-8.6384340">
        <ele>77.3</ele>
        <time>2021-05-15T18:23:34Z</time>
      </trkpt>
      <trkpt lat="41.1531650" lon="-8.6384490">
        <ele>77.3</ele>
        <time>2021-05-15T18:23:35Z</time>
      </trkpt>
      <trkpt lat="41.1531500" lon="-8.6384700">
        <ele>77.3</ele>
        <time>2021-05-15T18:23:36Z</time>
      </trkpt>
      <trkpt lat="41.1531550" lon="-8.6384900">
        <ele>77.3</ele>
        <time>2021-05-15T18:23:37Z</time>
      </trkpt>
      <trkpt lat="41.1531570" lon="-8.6385050">
        <ele>77.3</ele>
        <time>2021-05-15T18:23:38Z</time>
      </trkpt>
      <trkpt lat="41.1531580" lon="-8.6385200">
        <ele>77.2</ele>
        <time>2021-05-15T18:23:39Z</time>
      </trkpt>
      <trkpt lat="41.1531580" lon="-8.6385470">
        <ele>77.2</ele>
        <time>2021-05-15T18:23:40Z</time>
      </trkpt>
      <trkpt lat="41.1531610" lon="-8.6385680">
        <ele>77.2</ele>
        <time>2021-05-15T18:23:41Z</time>
      </trkpt>
      <trkpt lat="41.1531730" lon="-8.6385810">
        <ele>77.2</ele>
        <time>2021-05-15T18:23:42Z</time>
      </trkpt>
      <trkpt lat="41.1531760" lon="-8.6386000">
        <ele>77.2</ele>
        <time>2021-05-15T18:23:43Z</time>
      </trkpt>
      <trkpt lat="41.1531750" lon="-8.6386260">
        <ele>77.2</ele>
        <time>2021-05-15T18:23:44Z</time>
      </trkpt>
      <trkpt lat="41.1531840" lon="-8.6386650">
        <ele>77.2</ele>
        <time>2021-05-15T18:23:45Z</time>
      </trkpt>
      <trkpt lat="41.1531880" lon="-8.6386770">
        <ele>77.2</ele>
        <time>2021-05-15T18:23:46Z</time>
      </trkpt>
      <trkpt lat="41.1531940" lon="-8.6387120">
        <ele>77.2</ele>
        <time>2021-05-15T18:23:47Z</time>
      </trkpt>
      <trkpt lat="41.1531930" lon="-8.6387250">
        <ele>77.2</ele>
        <time>2021-05-15T18:23:48Z</time>
      </trkpt>
      <trkpt lat="41.1531970" lon="-8.6387500">
        <ele>77.2</ele>
        <time>2021-05-15T18:23:49Z</time>
      </trkpt>
      <trkpt lat="41.1532000" lon="-8.6387620">
        <ele>77.2</ele>
        <time>2021-05-15T18:23:50Z</time>
      </trkpt>
      <trkpt lat="41.1532020" lon="-8.6387990">
        <ele>77.2</ele>
        <time>2021-05-15T18:23:51Z</time>
      </trkpt>
      <trkpt lat="41.1532040" lon="-8.6388100">
        <ele>77.2</ele>
        <time>2021-05-15T18:23:52Z</time>
      </trkpt>
      <trkpt lat="41.1532070" lon="-8.6388210">
        <ele>77.2</ele>
        <time>2021-05-15T18:23:53Z</time>
      </trkpt>
      <trkpt lat="41.1532080" lon="-8.6388320">
        <ele>77.2</ele>
        <time>2021-05-15T18:23:54Z</time>
      </trkpt>
      <trkpt lat="41.1532100" lon="-8.6388460">
        <ele>77.2</ele>
        <time>2021-05-15T18:23:55Z</time>
      </trkpt>
      <trkpt lat="41.1532160" lon="-8.6388620">
        <ele>77.2</ele>
        <time>2021-05-15T18:23:56Z</time>
      </trkpt>
      <trkpt lat="41.1532180" lon="-8.6388750">
        <ele>77.2</ele>
        <time>2021-05-15T18:23:57Z</time>
      </trkpt>
      <trkpt lat="41.1532210" lon="-8.6388920">
        <ele>77.2</ele>
        <time>2021-05-15T18:23:58Z</time>
      </trkpt>
      <trkpt lat="41.1532250" lon="-8.6389090">
        <ele>77.1</ele>
        <time>2021-05-15T18:23:59Z</time>
      </trkpt>
      <trkpt lat="41.1532230" lon="-8.6389170">
        <ele>77.1</ele>
        <time>2021-05-15T18:24:00Z</time>
      </trkpt>
      <trkpt lat="41.1532200" lon="-8.6389310">
        <ele>77.1</ele>
        <time>2021-05-15T18:24:01Z</time>
      </trkpt>
      <trkpt lat="41.1532240" lon="-8.6389510">
        <ele>77.1</ele>
        <time>2021-05-15T18:24:02Z</time>
      </trkpt>
      <trkpt lat="41.1532320" lon="-8.6389760">
        <ele>77.1</ele>
        <time>2021-05-15T18:24:03Z</time>
      </trkpt>
      <trkpt lat="41.1532340" lon="-8.6389880">
        <ele>77.1</ele>
        <time>2021-05-15T18:24:04Z</time>
      </trkpt>
      <trkpt lat="41.1532360" lon="-8.6389990">
        <ele>77.1</ele>
        <time>2021-05-15T18:24:05Z</time>
      </trkpt>
      <trkpt lat="41.1532360" lon="-8.6390240">
        <ele>77.1</ele>
        <time>2021-05-15T18:24:06Z</time>
      </trkpt>
      <trkpt lat="41.1532360" lon="-8.6390420">
        <ele>77.1</ele>
        <time>2021-05-15T18:24:07Z</time>
      </trkpt>
      <trkpt lat="41.1532390" lon="-8.6390620">
        <ele>77.1</ele>
        <time>2021-05-15T18:24:08Z</time>
      </trkpt>
      <trkpt lat="41.1532440" lon="-8.6390830">
        <ele>77.1</ele>
        <time>2021-05-15T18:24:09Z</time>
      </trkpt>
      <trkpt lat="41.1532460" lon="-8.6391040">
        <ele>77.1</ele>
        <time>2021-05-15T18:24:10Z</time>
      </trkpt>
      <trkpt lat="41.1532510" lon="-8.6391230">
        <ele>77.1</ele>
        <time>2021-05-15T18:24:11Z</time>
      </trkpt>
      <trkpt lat="41.1532500" lon="-8.6391430">
        <ele>77.1</ele>
        <time>2021-05-15T18:24:12Z</time>
      </trkpt>
      <trkpt lat="41.1532490" lon="-8.6391590">
        <ele>77.1</ele>
        <time>2021-05-15T18:24:13Z</time>
      </trkpt>
      <trkpt lat="41.1532490" lon="-8.6391740">
        <ele>77.1</ele>
        <time>2021-05-15T18:24:14Z</time>
      </trkpt>
      <trkpt lat="41.1532490" lon="-8.6391900">
        <ele>77.1</ele>
        <time>2021-05-15T18:24:15Z</time>
      </trkpt>
      <trkpt lat="41.1532460" lon="-8.6392090">
        <ele>77.1</ele>
        <time>2021-05-15T18:24:16Z</time>
      </trkpt>
      <trkpt lat="41.1532480" lon="-8.6392190">
        <ele>77.1</ele>
        <time>2021-05-15T18:24:17Z</time>
      </trkpt>
      <trkpt lat="41.1532540" lon="-8.6392560">
        <ele>77.1</ele>
        <time>2021-05-15T18:24:18Z</time>
      </trkpt>
      <trkpt lat="41.1532540" lon="-8.6392690">
        <ele>77.1</ele>
        <time>2021-05-15T18:24:19Z</time>
      </trkpt>
      <trkpt lat="41.1532560" lon="-8.6392890">
        <ele>77.1</ele>
        <time>2021-05-15T18:24:20Z</time>
      </trkpt>
      <trkpt lat="41.1532640" lon="-8.6393040">
        <ele>77.1</ele>
        <time>2021-05-15T18:24:21Z</time>
      </trkpt>
      <trkpt lat="41.1532680" lon="-8.6393220">
        <ele>77.0</ele>
        <time>2021-05-15T18:24:22Z</time>
      </trkpt>
      <trkpt lat="41.1532770" lon="-8.6393460">
        <ele>77.0</ele>
        <time>2021-05-15T18:24:23Z</time>
      </trkpt>
      <trkpt lat="41.1532860" lon="-8.6393670">
        <ele>77.0</ele>
        <time>2021-05-15T18:24:24Z</time>
      </trkpt>
      <trkpt lat="41.1532900" lon="-8.6393790">
        <ele>77.0</ele>
        <time>2021-05-15T18:24:25Z</time>
      </trkpt>
      <trkpt lat="41.1532940" lon="-8.6393900">
        <ele>77.0</ele>
        <time>2021-05-15T18:24:26Z</time>
      </trkpt>
      <trkpt lat="41.1532980" lon="-8.6394130">
        <ele>77.0</ele>
        <time>2021-05-15T18:24:27Z</time>
      </trkpt>
      <trkpt lat="41.1533060" lon="-8.6394260">
        <ele>77.0</ele>
        <time>2021-05-15T18:24:28Z</time>
      </trkpt>
      <trkpt lat="41.1533120" lon="-8.6394450">
        <ele>77.0</ele>
        <time>2021-05-15T18:24:29Z</time>
      </trkpt>
      <trkpt lat="41.1533130" lon="-8.6394560">
        <ele>77.0</ele>
        <time>2021-05-15T18:24:30Z</time>
      </trkpt>
      <trkpt lat="41.1533170" lon="-8.6394700">
        <ele>77.0</ele>
        <time>2021-05-15T18:24:31Z</time>
      </trkpt>
      <trkpt lat="41.1533190" lon="-8.6394920">
        <ele>77.0</ele>
        <time>2021-05-15T18:24:32Z</time>
      </trkpt>
      <trkpt lat="41.1533240" lon="-8.6395100">
        <ele>77.0</ele>
        <time>2021-05-15T18:24:33Z</time>
      </trkpt>
      <trkpt lat="41.1533290" lon="-8.6395260">
        <ele>77.0</ele>
        <time>2021-05-15T18:24:34Z</time>
      </trkpt>
      <trkpt lat="41.1533340" lon="-8.6395430">
        <ele>77.0</ele>
        <time>2021-05-15T18:24:35Z</time>
      </trkpt>
      <trkpt lat="41.1533440" lon="-8.6395640">
        <ele>77.0</ele>
        <time>2021-05-15T18:24:36Z</time>
      </trkpt>
      <trkpt lat="41.1533440" lon="-8.6395830">
        <ele>77.0</ele>
        <time>2021-05-15T18:24:37Z</time>
      </trkpt>
      <trkpt lat="41.1533510" lon="-8.6396090">
        <ele>77.0</ele>
        <time>2021-05-15T18:24:38Z</time>
      </trkpt>
      <trkpt lat="41.1533520" lon="-8.6396230">
        <ele>77.0</ele>
        <time>2021-05-15T18:24:39Z</time>
      </trkpt>
      <trkpt lat="41.1533540" lon="-8.6396370">
        <ele>77.0</ele>
        <time>2021-05-15T18:24:40Z</time>
      </trkpt>
      <trkpt lat="41.1533550" lon="-8.6396510">
        <ele>77.0</ele>
        <time>2021-05-15T18:24:41Z</time>
      </trkpt>
      <trkpt lat="41.1533650" lon="-8.6396690">
        <ele>76.9</ele>
        <time>2021-05-15T18:24:42Z</time>
      </trkpt>
      <trkpt lat="41.1533650" lon="-8.6396820">
        <ele>76.9</ele>
        <time>2021-05-15T18:24:43Z</time>
      </trkpt>
      <trkpt lat="41.1533740" lon="-8.6397060">
        <ele>76.9</ele>
        <time>2021-05-15T18:24:44Z</time>
      </trkpt>
      <trkpt lat="41.1533760" lon="-8.6397250">
        <ele>76.9</ele>
        <time>2021-05-15T18:24:45Z</time>
      </trkpt>
      <trkpt lat="41.1533780" lon="-8.6397390">
        <ele>76.9</ele>
        <time>2021-05-15T18:24:46Z</time>
      </trkpt>
      <trkpt lat="41.1533760" lon="-8.6397530">
        <ele>76.9</ele>
        <time>2021-05-15T18:24:47Z</time>
      </trkpt>
      <trkpt lat="41.1533790" lon="-8.6397730">
        <ele>76.9</ele>
        <time>2021-05-15T18:24:48Z</time>
      </trkpt>
      <trkpt lat="41.1533830" lon="-8.6397840">
        <ele>76.9</ele>
        <time>2021-05-15T18:24:49Z</time>
      </trkpt>
      <trkpt lat="41.1533840" lon="-8.6397960">
        <ele>76.9</ele>
        <time>2021-05-15T18:24:50Z</time>
      </trkpt>
      <trkpt lat="41.1533890" lon="-8.6398070">
        <ele>76.9</ele>
        <time>2021-05-15T18:24:51Z</time>
      </trkpt>
      <trkpt lat="41.1533980" lon="-8.6398310">
        <ele>76.9</ele>
        <time>2021-05-15T18:24:52Z</time>
      </trkpt>
      <trkpt lat="41.1534030" lon="-8.6398410">
        <ele>76.9</ele>
        <time>2021-05-15T18:24:53Z</time>
      </trkpt>
      <trkpt lat="41.1534080" lon="-8.6398510">
        <ele>76.9</ele>
        <time>2021-05-15T18:24:54Z</time>
      </trkpt>
      <trkpt lat="41.1534090" lon="-8.6398720">
        <ele>76.9</ele>
        <time>2021-05-15T18:24:55Z</time>
      </trkpt>
      <trkpt lat="41.1534130" lon="-8.6398890">
        <ele>76.8</ele>
        <time>2021-05-15T18:24:56Z</time>
      </trkpt>
      <trkpt lat="41.1534170" lon="-8.6399110">
        <ele>76.8</ele>
        <time>2021-05-15T18:24:57Z</time>
      </trkpt>
      <trkpt lat="41.1534250" lon="-8.6399290">
        <ele>76.8</ele>
        <time>2021-05-15T18:24:58Z</time>
      </trkpt>
      <trkpt lat="41.1534260" lon="-8.6399590">
        <ele>76.8</ele>
        <time>2021-05-15T18:24:59Z</time>
      </trkpt>
      <trkpt lat="41.1534280" lon="-8.6399750">
        <ele>76.8</ele>
        <time>2021-05-15T18:25:00Z</time>
      </trkpt>
      <trkpt lat="41.1534380" lon="-8.6399960">
        <ele>76.8</ele>
        <time>2021-05-15T18:25:01Z</time>
      </trkpt>
      <trkpt lat="41.1534430" lon="-8.6400070">
        <ele>76.8</ele>
        <time>2021-05-15T18:25:02Z</time>
      </trkpt>
      <trkpt lat="41.1534470" lon="-8.6400170">
        <ele>76.8</ele>
        <time>2021-05-15T18:25:03Z</time>
      </trkpt>
      <trkpt lat="41.1534570" lon="-8.6400300">
        <ele>76.8</ele>
        <time>2021-05-15T18:25:04Z</time>
      </trkpt>
      <trkpt lat="41.1534680" lon="-8.6400430">
        <ele>76.8</ele>
        <time>2021-05-15T18:25:05Z</time>
      </trkpt>
      <trkpt lat="41.1534720" lon="-8.6400580">
        <ele>76.8</ele>
        <time>2021-05-15T18:25:06Z</time>
      </trkpt>
      <trkpt lat="41.1534700" lon="-8.6400810">
        <ele>76.8</ele>
        <time>2021-05-15T18:25:07Z</time>
      </trkpt>
      <trkpt lat="41.1534770" lon="-8.6400920">
        <ele>76.8</ele>
        <time>2021-05-15T18:25:08Z</time>
      </trkpt>
      <trkpt lat="41.1534860" lon="-8.6401110">
        <ele>76.8</ele>
        <time>2021-05-15T18:25:09Z</time>
      </trkpt>
      <trkpt lat="41.1534890" lon="-8.6401350">
        <ele>76.8</ele>
        <time>2021-05-15T18:25:10Z</time>
      </trkpt>
      <trkpt lat="41.1534940" lon="-8.6401450">
        <ele>76.8</ele>
        <time>2021-05-15T18:25:11Z</time>
      </trkpt>
      <trkpt lat="41.1535020" lon="-8.6401630">
        <ele>76.7</ele>
        <time>2021-05-15T18:25:12Z</time>
      </trkpt>
      <trkpt lat="41.1535100" lon="-8.6401790">
        <ele>76.7</ele>
        <time>2021-05-15T18:25:13Z</time>
      </trkpt>
      <trkpt lat="41.1535150" lon="-8.6402090">
        <ele>76.7</ele>
        <time>2021-05-15T18:25:14Z</time>
      </trkpt>
      <trkpt lat="41.1535180" lon="-8.6402200">
        <ele>76.7</ele>
        <time>2021-05-15T18:25:15Z</time>
      </trkpt>
      <trkpt lat="41.1535210" lon="-8.6402310">
        <ele>76.7</ele>
        <time>2021-05-15T18:25:16Z</time>
      </trkpt>
      <trkpt lat="41.1535280" lon="-8.6402570">
        <ele>76.7</ele>
        <time>2021-05-15T18:25:17Z</time>
      </trkpt>
      <trkpt lat="41.1535330" lon="-8.6402690">
        <ele>76.7</ele>
        <time>2021-05-15T18:25:18Z</time>
      </trkpt>
      <trkpt lat="41.1535350" lon="-8.6402850">
        <ele>76.7</ele>
        <time>2021-05-15T18:25:19Z</time>
      </trkpt>
      <trkpt lat="41.1535350" lon="-8.6403000">
        <ele>76.7</ele>
        <time>2021-05-15T18:25:20Z</time>
      </trkpt>
      <trkpt lat="41.1535350" lon="-8.6403150">
        <ele>76.7</ele>
        <time>2021-05-15T18:25:21Z</time>
      </trkpt>
      <trkpt lat="41.1535400" lon="-8.6403390">
        <ele>76.7</ele>
        <time>2021-05-15T18:25:22Z</time>
      </trkpt>
      <trkpt lat="41.1535390" lon="-8.6403540">
        <ele>76.7</ele>
        <time>2021-05-15T18:25:23Z</time>
      </trkpt>
      <trkpt lat="41.1535440" lon="-8.6403680">
        <ele>76.7</ele>
        <time>2021-05-15T18:25:24Z</time>
      </trkpt>
      <trkpt lat="41.1535440" lon="-8.6403810">
        <ele>76.7</ele>
        <time>2021-05-15T18:25:25Z</time>
      </trkpt>
      <trkpt lat="41.1535500" lon="-8.6403900">
        <ele>76.7</ele>
        <time>2021-05-15T18:25:26Z</time>
      </trkpt>
      <trkpt lat="41.1535530" lon="-8.6404220">
        <ele>76.6</ele>
        <time>2021-05-15T18:25:27Z</time>
      </trkpt>
      <trkpt lat="41.1535540" lon="-8.6404330">
        <ele>76.6</ele>
        <time>2021-05-15T18:25:28Z</time>
      </trkpt>
      <trkpt lat="41.1535550" lon="-8.6404450">
        <ele>76.6</ele>
        <time>2021-05-15T18:25:29Z</time>
      </trkpt>
      <trkpt lat="41.1535600" lon="-8.6404660">
        <ele>76.6</ele>
        <time>2021-05-15T18:25:30Z</time>
      </trkpt>
      <trkpt lat="41.1535620" lon="-8.6404840">
        <ele>76.6</ele>
        <time>2021-05-15T18:25:31Z</time>
      </trkpt>
      <trkpt lat="41.1535720" lon="-8.6405170">
        <ele>76.6</ele>
        <time>2021-05-15T18:25:32Z</time>
      </trkpt>
      <trkpt lat="41.1535730" lon="-8.6405290">
        <ele>76.6</ele>
        <time>2021-05-15T18:25:33Z</time>
      </trkpt>
      <trkpt lat="41.1535750" lon="-8.6405410">
        <ele>76.6</ele>
        <time>2021-05-15T18:25:34Z</time>
      </trkpt>
      <trkpt lat="41.1535770" lon="-8.6405710">
        <ele>76.6</ele>
        <time>2021-05-15T18:25:35Z</time>
      </trkpt>
      <trkpt lat="41.1535790" lon="-8.6405800">
        <ele>76.6</ele>
        <time>2021-05-15T18:25:36Z</time>
      </trkpt>
      <trkpt lat="41.1535800" lon="-8.6405900">
        <ele>76.6</ele>
        <time>2021-05-15T18:25:37Z</time>
      </trkpt>
      <trkpt lat="41.1535920" lon="-8.6406200">
        <ele>76.6</ele>
        <time>2021-05-15T18:25:38Z</time>
      </trkpt>
      <trkpt lat="41.1535950" lon="-8.6406350">
        <ele>76.6</ele>
        <time>2021-05-15T18:25:39Z</time>
      </trkpt>
      <trkpt lat="41.1535980" lon="-8.6406500">
        <ele>76.6</ele>
        <time>2021-05-15T18:25:40Z</time>
      </trkpt>
      <trkpt lat="41.1536100" lon="-8.6406690">
        <ele>76.6</ele>
        <time>2021-05-15T18:25:41Z</time>
      </trkpt>
      <trkpt lat="41.1536230" lon="-8.6406860">
        <ele>76.5</ele>
        <time>2021-05-15T18:25:42Z</time>
      </trkpt>
      <trkpt lat="41.1536290" lon="-8.6407060">
        <ele>76.5</ele>
        <time>2021-05-15T18:25:43Z</time>
      </trkpt>
      <trkpt lat="41.1536320" lon="-8.6407190">
        <ele>76.5</ele>
        <time>2021-05-15T18:25:44Z</time>
      </trkpt>
      <trkpt lat="41.1536360" lon="-8.6407330">
        <ele>76.5</ele>
        <time>2021-05-15T18:25:45Z</time>
      </trkpt>
      <trkpt lat="41.1536400" lon="-8.6407480">
        <ele>76.5</ele>
        <time>2021-05-15T18:25:46Z</time>
      </trkpt>
      <trkpt lat="41.1536390" lon="-8.6407650">
        <ele>76.5</ele>
        <time>2021-05-15T18:25:47Z</time>
      </trkpt>
      <trkpt lat="41.1536430" lon="-8.6407890">
        <ele>76.5</ele>
        <time>2021-05-15T18:25:48Z</time>
      </trkpt>
      <trkpt lat="41.1536500" lon="-8.6408000">
        <ele>76.5</ele>
        <time>2021-05-15T18:25:49Z</time>
      </trkpt>
      <trkpt lat="41.1536540" lon="-8.6408100">
        <ele>76.5</ele>
        <time>2021-05-15T18:25:50Z</time>
      </trkpt>
      <trkpt lat="41.1536580" lon="-8.6408280">
        <ele>76.5</ele>
        <time>2021-05-15T18:25:51Z</time>
      </trkpt>
      <trkpt lat="41.1536640" lon="-8.6408450">
        <ele>76.5</ele>
        <time>2021-05-15T18:25:52Z</time>
      </trkpt>
      <trkpt lat="41.1536680" lon="-8.6408630">
        <ele>76.5</ele>
        <time>2021-05-15T18:25:53Z</time>
      </trkpt>
      <trkpt lat="41.1536750" lon="-8.6408720">
        <ele>76.5</ele>
        <time>2021-05-15T18:25:54Z</time>
      </trkpt>
      <trkpt lat="41.1536840" lon="-8.6408820">
        <ele>76.5</ele>
        <time>2021-05-15T18:25:55Z</time>
      </trkpt>
      <trkpt lat="41.1536890" lon="-8.6408960">
        <ele>76.5</ele>
        <time>2021-05-15T18:25:56Z</time>
      </trkpt>
      <trkpt lat="41.1536910" lon="-8.6409200">
        <ele>76.5</ele>
        <time>2021-05-15T18:25:57Z</time>
      </trkpt>
      <trkpt lat="41.1537000" lon="-8.6409380">
        <ele>76.5</ele>
        <time>2021-05-15T18:25:58Z</time>
      </trkpt>
      <trkpt lat="41.1537070" lon="-8.6409610">
        <ele>76.5</ele>
        <time>2021-05-15T18:25:59Z</time>
      </trkpt>
      <trkpt lat="41.1537090" lon="-8.6409730">
        <ele>76.4</ele>
        <time>2021-05-15T18:26:00Z</time>
      </trkpt>
      <trkpt lat="41.1537110" lon="-8.6409840">
        <ele>76.4</ele>
        <time>2021-05-15T18:26:01Z</time>
      </trkpt>
      <trkpt lat="41.1537130" lon="-8.6409960">
        <ele>76.4</ele>
        <time>2021-05-15T18:26:02Z</time>
      </trkpt>
      <trkpt lat="41.1537190" lon="-8.6410130">
        <ele>76.4</ele>
        <time>2021-05-15T18:26:03Z</time>
      </trkpt>
      <trkpt lat="41.1537330" lon="-8.6410310">
        <ele>76.4</ele>
        <time>2021-05-15T18:26:04Z</time>
      </trkpt>
      <trkpt lat="41.1537420" lon="-8.6410330">
        <ele>76.4</ele>
        <time>2021-05-15T18:26:05Z</time>
      </trkpt>
      <trkpt lat="41.1537430" lon="-8.6410480">
        <ele>76.4</ele>
        <time>2021-05-15T18:26:06Z</time>
      </trkpt>
      <trkpt lat="41.1537500" lon="-8.6410600">
        <ele>76.4</ele>
        <time>2021-05-15T18:26:07Z</time>
      </trkpt>
      <trkpt lat="41.1537530" lon="-8.6410860">
        <ele>76.4</ele>
        <time>2021-05-15T18:26:08Z</time>
      </trkpt>
      <trkpt lat="41.1537570" lon="-8.6410960">
        <ele>76.4</ele>
        <time>2021-05-15T18:26:09Z</time>
      </trkpt>
      <trkpt lat="41.1537620" lon="-8.6411070">
        <ele>76.4</ele>
        <time>2021-05-15T18:26:10Z</time>
      </trkpt>
      <trkpt lat="41.1537710" lon="-8.6411290">
        <ele>76.4</ele>
        <time>2021-05-15T18:26:11Z</time>
      </trkpt>
      <trkpt lat="41.1537800" lon="-8.6411480">
        <ele>76.4</ele>
        <time>2021-05-15T18:26:12Z</time>
      </trkpt>
      <trkpt lat="41.1537900" lon="-8.6411670">
        <ele>76.4</ele>
        <time>2021-05-15T18:26:13Z</time>
      </trkpt>
      <trkpt lat="41.1537990" lon="-8.6411780">
        <ele>76.4</ele>
        <time>2021-05-15T18:26:14Z</time>
      </trkpt>
      <trkpt lat="41.1538090" lon="-8.6411980">
        <ele>76.3</ele>
        <time>2021-05-15T18:26:15Z</time>
      </trkpt>
      <trkpt lat="41.1538070" lon="-8.6412140">
        <ele>76.3</ele>
        <time>2021-05-15T18:26:16Z</time>
      </trkpt>
      <trkpt lat="41.1538110" lon="-8.6412360">
        <ele>76.3</ele>
        <time>2021-05-15T18:26:17Z</time>
      </trkpt>
      <trkpt lat="41.1538190" lon="-8.6412590">
        <ele>76.3</ele>
        <time>2021-05-15T18:26:18Z</time>
      </trkpt>
      <trkpt lat="41.1538170" lon="-8.6412730">
        <ele>76.3</ele>
        <time>2021-05-15T18:26:19Z</time>
      </trkpt>
      <trkpt lat="41.1538160" lon="-8.6413040">
        <ele>76.3</ele>
        <time>2021-05-15T18:26:20Z</time>
      </trkpt>
      <trkpt lat="41.1538100" lon="-8.6413190">
        <ele>76.3</ele>
        <time>2021-05-15T18:26:21Z</time>
      </trkpt>
      <trkpt lat="41.1538190" lon="-8.6413460">
        <ele>76.3</ele>
        <time>2021-05-15T18:26:22Z</time>
      </trkpt>
      <trkpt lat="41.1538170" lon="-8.6413740">
        <ele>76.3</ele>
        <time>2021-05-15T18:26:23Z</time>
      </trkpt>
      <trkpt lat="41.1538180" lon="-8.6413860">
        <ele>76.3</ele>
        <time>2021-05-15T18:26:24Z</time>
      </trkpt>
      <trkpt lat="41.1538190" lon="-8.6413990">
        <ele>76.3</ele>
        <time>2021-05-15T18:26:25Z</time>
      </trkpt>
      <trkpt lat="41.1538250" lon="-8.6414100">
        <ele>76.3</ele>
        <time>2021-05-15T18:26:26Z</time>
      </trkpt>
      <trkpt lat="41.1538240" lon="-8.6414250">
        <ele>76.3</ele>
        <time>2021-05-15T18:26:27Z</time>
      </trkpt>
      <trkpt lat="41.1538320" lon="-8.6414410">
        <ele>76.2</ele>
        <time>2021-05-15T18:26:28Z</time>
      </trkpt>
      <trkpt lat="41.1538390" lon="-8.6414600">
        <ele>76.2</ele>
        <time>2021-05-15T18:26:29Z</time>
      </trkpt>
      <trkpt lat="41.1538460" lon="-8.6414740">
        <ele>76.2</ele>
        <time>2021-05-15T18:26:30Z</time>
      </trkpt>
      <trkpt lat="41.1538550" lon="-8.6414980">
        <ele>76.2</ele>
        <time>2021-05-15T18:26:31Z</time>
      </trkpt>
      <trkpt lat="41.1538590" lon="-8.6415100">
        <ele>76.2</ele>
        <time>2021-05-15T18:26:32Z</time>
      </trkpt>
      <trkpt lat="41.1538630" lon="-8.6415230">
        <ele>76.2</ele>
        <time>2021-05-15T18:26:33Z</time>
      </trkpt>
      <trkpt lat="41.1538610" lon="-8.6415500">
        <ele>76.2</ele>
        <time>2021-05-15T18:26:34Z</time>
      </trkpt>
      <trkpt lat="41.1538690" lon="-8.6415610">
        <ele>76.2</ele>
        <time>2021-05-15T18:26:35Z</time>
      </trkpt>
      <trkpt lat="41.1538810" lon="-8.6415900">
        <ele>76.2</ele>
        <time>2021-05-15T18:26:36Z</time>
      </trkpt>
      <trkpt lat="41.1538840" lon="-8.6416020">
        <ele>76.2</ele>
        <time>2021-05-15T18:26:37Z</time>
      </trkpt>
      <trkpt lat="41.1538880" lon="-8.6416130">
        <ele>76.2</ele>
        <time>2021-05-15T18:26:38Z</time>
      </trkpt>
      <trkpt lat="41.1538930" lon="-8.6416230">
        <ele>76.2</ele>
        <time>2021-05-15T18:26:39Z</time>
      </trkpt>
      <trkpt lat="41.1538990" lon="-8.6416390">
        <ele>76.1</ele>
        <time>2021-05-15T18:26:40Z</time>
      </trkpt>
      <trkpt lat="41.1539000" lon="-8.6416530">
        <ele>76.1</ele>
        <time>2021-05-15T18:26:41Z</time>
      </trkpt>
      <trkpt lat="41.1539090" lon="-8.6416810">
        <ele>76.1</ele>
        <time>2021-05-15T18:26:42Z</time>
      </trkpt>
      <trkpt lat="41.1539110" lon="-8.6416920">
        <ele>76.1</ele>
        <time>2021-05-15T18:26:43Z</time>
      </trkpt>
      <trkpt lat="41.1539130" lon="-8.6417040">
        <ele>76.1</ele>
        <time>2021-05-15T18:26:44Z</time>
      </trkpt>
      <trkpt lat="41.1539210" lon="-8.6417340">
        <ele>76.1</ele>
        <time>2021-05-15T18:26:45Z</time>
      </trkpt>
      <trkpt lat="41.1539230" lon="-8.6417430">
        <ele>76.1</ele>
        <time>2021-05-15T18:26:46Z</time>
      </trkpt>
      <trkpt lat="41.1539260" lon="-8.6417530">
        <ele>76.1</ele>
        <time>2021-05-15T18:26:47Z</time>
      </trkpt>
      <trkpt lat="41.1539280" lon="-8.6417740">
        <ele>76.1</ele>
        <time>2021-05-15T18:26:48Z</time>
      </trkpt>
      <trkpt lat="41.1539290" lon="-8.6417910">
        <ele>76.0</ele>
        <time>2021-05-15T18:26:49Z</time>
      </trkpt>
      <trkpt lat="41.1539390" lon="-8.6418050">
        <ele>76.0</ele>
        <time>2021-05-15T18:26:50Z</time>
      </trkpt>
      <trkpt lat="41.1539460" lon="-8.6418250">
        <ele>76.0</ele>
        <time>2021-05-15T18:26:51Z</time>
      </trkpt>
      <trkpt lat="41.1539530" lon="-8.6418400">
        <ele>76.0</ele>
        <time>2021-05-15T18:26:52Z</time>
      </trkpt>
      <trkpt lat="41.1539640" lon="-8.6418560">
        <ele>76.0</ele>
        <time>2021-05-15T18:26:53Z</time>
      </trkpt>
      <trkpt lat="41.1539690" lon="-8.6418780">
        <ele>76.0</ele>
        <time>2021-05-15T18:26:54Z</time>
      </trkpt>
      <trkpt lat="41.1539750" lon="-8.6419000">
        <ele>75.9</ele>
        <time>2021-05-15T18:26:55Z</time>
      </trkpt>
      <trkpt lat="41.1539880" lon="-8.6419200">
        <ele>75.9</ele>
        <time>2021-05-15T18:26:56Z</time>
      </trkpt>
      <trkpt lat="41.1539940" lon="-8.6419290">
        <ele>75.9</ele>
        <time>2021-05-15T18:26:57Z</time>
      </trkpt>
      <trkpt lat="41.1539990" lon="-8.6419390">
        <ele>75.9</ele>
        <time>2021-05-15T18:26:58Z</time>
      </trkpt>
      <trkpt lat="41.1540090" lon="-8.6419570">
        <ele>75.9</ele>
        <time>2021-05-15T18:26:59Z</time>
      </trkpt>
      <trkpt lat="41.1540160" lon="-8.6419700">
        <ele>75.8</ele>
        <time>2021-05-15T18:27:00Z</time>
      </trkpt>
      <trkpt lat="41.1540260" lon="-8.6419810">
        <ele>75.8</ele>
        <time>2021-05-15T18:27:01Z</time>
      </trkpt>
      <trkpt lat="41.1540370" lon="-8.6419990">
        <ele>75.8</ele>
        <time>2021-05-15T18:27:02Z</time>
      </trkpt>
      <trkpt lat="41.1540510" lon="-8.6420260">
        <ele>75.7</ele>
        <time>2021-05-15T18:27:03Z</time>
      </trkpt>
      <trkpt lat="41.1540560" lon="-8.6420330">
        <ele>75.7</ele>
        <time>2021-05-15T18:27:04Z</time>
      </trkpt>
      <trkpt lat="41.1540600" lon="-8.6420390">
        <ele>75.7</ele>
        <time>2021-05-15T18:27:05Z</time>
      </trkpt>
      <trkpt lat="41.1540710" lon="-8.6420620">
        <ele>75.7</ele>
        <time>2021-05-15T18:27:06Z</time>
      </trkpt>
      <trkpt lat="41.1540790" lon="-8.6420700">
        <ele>75.7</ele>
        <time>2021-05-15T18:27:07Z</time>
      </trkpt>
      <trkpt lat="41.1540870" lon="-8.6420790">
        <ele>75.6</ele>
        <time>2021-05-15T18:27:08Z</time>
      </trkpt>
      <trkpt lat="41.1540950" lon="-8.6420910">
        <ele>75.6</ele>
        <time>2021-05-15T18:27:09Z</time>
      </trkpt>
      <trkpt lat="41.1540970" lon="-8.6421130">
        <ele>75.6</ele>
        <time>2021-05-15T18:27:10Z</time>
      </trkpt>
      <trkpt lat="41.1540950" lon="-8.6421290">
        <ele>75.6</ele>
        <time>2021-05-15T18:27:11Z</time>
      </trkpt>
      <trkpt lat="41.1541010" lon="-8.6421520">
        <ele>75.5</ele>
        <time>2021-05-15T18:27:12Z</time>
      </trkpt>
      <trkpt lat="41.1541000" lon="-8.6421670">
        <ele>75.5</ele>
        <time>2021-05-15T18:27:13Z</time>
      </trkpt>
      <trkpt lat="41.1541110" lon="-8.6421860">
        <ele>75.5</ele>
        <time>2021-05-15T18:27:14Z</time>
      </trkpt>
      <trkpt lat="41.1541190" lon="-8.6422030">
        <ele>75.4</ele>
        <time>2021-05-15T18:27:15Z</time>
      </trkpt>
      <trkpt lat="41.1541180" lon="-8.6422270">
        <ele>75.4</ele>
        <time>2021-05-15T18:27:16Z</time>
      </trkpt>
      <trkpt lat="41.1541260" lon="-8.6422540">
        <ele>75.3</ele>
        <time>2021-05-15T18:27:17Z</time>
      </trkpt>
      <trkpt lat="41.1541290" lon="-8.6422680">
        <ele>75.3</ele>
        <time>2021-05-15T18:27:18Z</time>
      </trkpt>
      <trkpt lat="41.1541320" lon="-8.6422810">
        <ele>75.3</ele>
        <time>2021-05-15T18:27:19Z</time>
      </trkpt>
      <trkpt lat="41.1541460" lon="-8.6423010">
        <ele>75.3</ele>
        <time>2021-05-15T18:27:20Z</time>
      </trkpt>
      <trkpt lat="41.1541480" lon="-8.6423160">
        <ele>75.2</ele>
        <time>2021-05-15T18:27:21Z</time>
      </trkpt>
      <trkpt lat="41.1541490" lon="-8.6423320">
        <ele>75.2</ele>
        <time>2021-05-15T18:27:22Z</time>
      </trkpt>
      <trkpt lat="41.1541560" lon="-8.6423440">
        <ele>75.2</ele>
        <time>2021-05-15T18:27:23Z</time>
      </trkpt>
      <trkpt lat="41.1541590" lon="-8.6423670">
        <ele>75.1</ele>
        <time>2021-05-15T18:27:24Z</time>
      </trkpt>
      <trkpt lat="41.1541690" lon="-8.6424030">
        <ele>75.0</ele>
        <time>2021-05-15T18:27:25Z</time>
      </trkpt>
      <trkpt lat="41.1541740" lon="-8.6424130">
        <ele>75.0</ele>
        <time>2021-05-15T18:27:26Z</time>
      </trkpt>
      <trkpt lat="41.1541770" lon="-8.6424280">
        <ele>75.0</ele>
        <time>2021-05-15T18:27:27Z</time>
      </trkpt>
      <trkpt lat="41.1541840" lon="-8.6424490">
        <ele>74.9</ele>
        <time>2021-05-15T18:27:28Z</time>
      </trkpt>
      <trkpt lat="41.1541850" lon="-8.6424610">
        <ele>74.9</ele>
        <time>2021-05-15T18:27:29Z</time>
      </trkpt>
      <trkpt lat="41.1541860" lon="-8.6424860">
        <ele>74.9</ele>
        <time>2021-05-15T18:27:30Z</time>
      </trkpt>
      <trkpt lat="41.1541870" lon="-8.6424990">
        <ele>74.8</ele>
        <time>2021-05-15T18:27:31Z</time>
      </trkpt>
      <trkpt lat="41.1541940" lon="-8.6425130">
        <ele>74.8</ele>
        <time>2021-05-15T18:27:32Z</time>
      </trkpt>
      <trkpt lat="41.1541930" lon="-8.6425280">
        <ele>74.8</ele>
        <time>2021-05-15T18:27:33Z</time>
      </trkpt>
      <trkpt lat="41.1541950" lon="-8.6425460">
        <ele>74.7</ele>
        <time>2021-05-15T18:27:34Z</time>
      </trkpt>
      <trkpt lat="41.1541990" lon="-8.6425600">
        <ele>74.7</ele>
        <time>2021-05-15T18:27:35Z</time>
      </trkpt>
      <trkpt lat="41.1542030" lon="-8.6425720">
        <ele>74.6</ele>
        <time>2021-05-15T18:27:36Z</time>
      </trkpt>
      <trkpt lat="41.1542040" lon="-8.6425850">
        <ele>74.6</ele>
        <time>2021-05-15T18:27:37Z</time>
      </trkpt>
      <trkpt lat="41.1542110" lon="-8.6426060">
        <ele>74.5</ele>
        <time>2021-05-15T18:27:38Z</time>
      </trkpt>
      <trkpt lat="41.1542150" lon="-8.6426180">
        <ele>74.5</ele>
        <time>2021-05-15T18:27:39Z</time>
      </trkpt>
      <trkpt lat="41.1542180" lon="-8.6426350">
        <ele>74.5</ele>
        <time>2021-05-15T18:27:40Z</time>
      </trkpt>
      <trkpt lat="41.1542220" lon="-8.6426470">
        <ele>74.4</ele>
        <time>2021-05-15T18:27:41Z</time>
      </trkpt>
      <trkpt lat="41.1542310" lon="-8.6426690">
        <ele>74.4</ele>
        <time>2021-05-15T18:27:42Z</time>
      </trkpt>
      <trkpt lat="41.1542400" lon="-8.6426890">
        <ele>74.3</ele>
        <time>2021-05-15T18:27:43Z</time>
      </trkpt>
      <trkpt lat="41.1542470" lon="-8.6427110">
        <ele>74.2</ele>
        <time>2021-05-15T18:27:44Z</time>
      </trkpt>
      <trkpt lat="41.1542530" lon="-8.6427220">
        <ele>74.2</ele>
        <time>2021-05-15T18:27:45Z</time>
      </trkpt>
      <trkpt lat="41.1542600" lon="-8.6427320">
        <ele>74.2</ele>
        <time>2021-05-15T18:27:46Z</time>
      </trkpt>
      <trkpt lat="41.1542730" lon="-8.6427540">
        <ele>74.1</ele>
        <time>2021-05-15T18:27:47Z</time>
      </trkpt>
      <trkpt lat="41.1542750" lon="-8.6427660">
        <ele>74.1</ele>
        <time>2021-05-15T18:27:48Z</time>
      </trkpt>
      <trkpt lat="41.1542810" lon="-8.6427990">
        <ele>74.0</ele>
        <time>2021-05-15T18:27:49Z</time>
      </trkpt>
      <trkpt lat="41.1542830" lon="-8.6428090">
        <ele>74.0</ele>
        <time>2021-05-15T18:27:50Z</time>
      </trkpt>
      <trkpt lat="41.1542860" lon="-8.6428200">
        <ele>73.9</ele>
        <time>2021-05-15T18:27:51Z</time>
      </trkpt>
      <trkpt lat="41.1542830" lon="-8.6428440">
        <ele>73.9</ele>
        <time>2021-05-15T18:27:52Z</time>
      </trkpt>
      <trkpt lat="41.1542780" lon="-8.6428590">
        <ele>73.8</ele>
        <time>2021-05-15T18:27:53Z</time>
      </trkpt>
      <trkpt lat="41.1542860" lon="-8.6428750">
        <ele>73.8</ele>
        <time>2021-05-15T18:27:54Z</time>
      </trkpt>
      <trkpt lat="41.1542870" lon="-8.6428940">
        <ele>73.7</ele>
        <time>2021-05-15T18:27:55Z</time>
      </trkpt>
      <trkpt lat="41.1542830" lon="-8.6429160">
        <ele>73.6</ele>
        <time>2021-05-15T18:27:56Z</time>
      </trkpt>
      <trkpt lat="41.1542850" lon="-8.6429300">
        <ele>73.6</ele>
        <time>2021-05-15T18:27:57Z</time>
      </trkpt>
      <trkpt lat="41.1542880" lon="-8.6429430">
        <ele>73.5</ele>
        <time>2021-05-15T18:27:58Z</time>
      </trkpt>
      <trkpt lat="41.1542900" lon="-8.6429540">
        <ele>73.5</ele>
        <time>2021-05-15T18:27:59Z</time>
      </trkpt>
      <trkpt lat="41.1542970" lon="-8.6429720">
        <ele>73.4</ele>
        <time>2021-05-15T18:28:00Z</time>
      </trkpt>
      <trkpt lat="41.1543010" lon="-8.6429840">
        <ele>73.4</ele>
        <time>2021-05-15T18:28:01Z</time>
      </trkpt>
      <trkpt lat="41.1543140" lon="-8.6430100">
        <ele>73.3</ele>
        <time>2021-05-15T18:28:02Z</time>
      </trkpt>
      <trkpt lat="41.1543120" lon="-8.6430240">
        <ele>73.3</ele>
        <time>2021-05-15T18:28:03Z</time>
      </trkpt>
      <trkpt lat="41.1543210" lon="-8.6430620">
        <ele>73.1</ele>
        <time>2021-05-15T18:28:04Z</time>
      </trkpt>
      <trkpt lat="41.1543220" lon="-8.6430750">
        <ele>73.1</ele>
        <time>2021-05-15T18:28:05Z</time>
      </trkpt>
      <trkpt lat="41.1543240" lon="-8.6430960">
        <ele>73.0</ele>
        <time>2021-05-15T18:28:06Z</time>
      </trkpt>
      <trkpt lat="41.1543320" lon="-8.6431110">
        <ele>72.9</ele>
        <time>2021-05-15T18:28:07Z</time>
      </trkpt>
      <trkpt lat="41.1543370" lon="-8.6431350">
        <ele>72.8</ele>
        <time>2021-05-15T18:28:08Z</time>
      </trkpt>
      <trkpt lat="41.1543420" lon="-8.6431500">
        <ele>72.8</ele>
        <time>2021-05-15T18:28:09Z</time>
      </trkpt>
      <trkpt lat="41.1543460" lon="-8.6431640">
        <ele>72.7</ele>
        <time>2021-05-15T18:28:10Z</time>
      </trkpt>
      <trkpt lat="41.1543350" lon="-8.6431810">
        <ele>72.6</ele>
        <time>2021-05-15T18:28:11Z</time>
      </trkpt>
      <trkpt lat="41.1543420" lon="-8.6431990">
        <ele>72.6</ele>
        <time>2021-05-15T18:28:12Z</time>
      </trkpt>
      <trkpt lat="41.1543540" lon="-8.6431970">
        <ele>72.5</ele>
        <time>2021-05-15T18:28:13Z</time>
      </trkpt>
      <trkpt lat="41.1543570" lon="-8.6432110">
        <ele>72.4</ele>
        <time>2021-05-15T18:28:14Z</time>
      </trkpt>
      <trkpt lat="41.1543610" lon="-8.6432280">
        <ele>72.3</ele>
        <time>2021-05-15T18:28:15Z</time>
      </trkpt>
      <trkpt lat="41.1543580" lon="-8.6432410">
        <ele>72.3</ele>
        <time>2021-05-15T18:28:16Z</time>
      </trkpt>
      <trkpt lat="41.1543630" lon="-8.6432570">
        <ele>72.2</ele>
        <time>2021-05-15T18:28:17Z</time>
      </trkpt>
      <trkpt lat="41.1543770" lon="-8.6432800">
        <ele>72.1</ele>
        <time>2021-05-15T18:28:18Z</time>
      </trkpt>
      <trkpt lat="41.1543790" lon="-8.6432910">
        <ele>72.0</ele>
        <time>2021-05-15T18:28:19Z</time>
      </trkpt>
      <trkpt lat="41.1543820" lon="-8.6433030">
        <ele>72.0</ele>
        <time>2021-05-15T18:28:20Z</time>
      </trkpt>
      <trkpt lat="41.1543990" lon="-8.6433220">
        <ele>71.8</ele>
        <time>2021-05-15T18:28:21Z</time>
      </trkpt>
      <trkpt lat="41.1544060" lon="-8.6433310">
        <ele>71.8</ele>
        <time>2021-05-15T18:28:22Z</time>
      </trkpt>
      <trkpt lat="41.1544130" lon="-8.6433410">
        <ele>71.7</ele>
        <time>2021-05-15T18:28:23Z</time>
      </trkpt>
      <trkpt lat="41.1544120" lon="-8.6433470">
        <ele>71.7</ele>
        <time>2021-05-15T18:28:24Z</time>
      </trkpt>
      <trkpt lat="41.1544220" lon="-8.6433670">
        <ele>71.5</ele>
        <time>2021-05-15T18:28:25Z</time>
      </trkpt>
      <trkpt lat="41.1544280" lon="-8.6433760">
        <ele>71.5</ele>
        <time>2021-05-15T18:28:26Z</time>
      </trkpt>
      <trkpt lat="41.1544380" lon="-8.6434030">
        <ele>71.3</ele>
        <time>2021-05-15T18:28:27Z</time>
      </trkpt>
      <trkpt lat="41.1544430" lon="-8.6434180">
        <ele>71.3</ele>
        <time>2021-05-15T18:28:28Z</time>
      </trkpt>
      <trkpt lat="41.1544360" lon="-8.6434340">
        <ele>71.2</ele>
        <time>2021-05-15T18:28:29Z</time>
      </trkpt>
      <trkpt lat="41.1544440" lon="-8.6434490">
        <ele>71.1</ele>
        <time>2021-05-15T18:28:30Z</time>
      </trkpt>
      <trkpt lat="41.1544500" lon="-8.6434630">
        <ele>71.0</ele>
        <time>2021-05-15T18:28:31Z</time>
      </trkpt>
      <trkpt lat="41.1544630" lon="-8.6434920">
        <ele>70.8</ele>
        <time>2021-05-15T18:28:32Z</time>
      </trkpt>
      <trkpt lat="41.1544650" lon="-8.6435020">
        <ele>70.8</ele>
        <time>2021-05-15T18:28:33Z</time>
      </trkpt>
      <trkpt lat="41.1544660" lon="-8.6435110">
        <ele>70.7</ele>
        <time>2021-05-15T18:28:34Z</time>
      </trkpt>
      <trkpt lat="41.1544730" lon="-8.6435410">
        <ele>70.6</ele>
        <time>2021-05-15T18:28:35Z</time>
      </trkpt>
      <trkpt lat="41.1544740" lon="-8.6435520">
        <ele>70.5</ele>
        <time>2021-05-15T18:28:36Z</time>
      </trkpt>
      <trkpt lat="41.1544750" lon="-8.6435620">
        <ele>70.5</ele>
        <time>2021-05-15T18:28:37Z</time>
      </trkpt>
      <trkpt lat="41.1544860" lon="-8.6435760">
        <ele>70.4</ele>
        <time>2021-05-15T18:28:38Z</time>
      </trkpt>
      <trkpt lat="41.1544960" lon="-8.6435930">
        <ele>70.3</ele>
        <time>2021-05-15T18:28:39Z</time>
      </trkpt>
      <trkpt lat="41.1544900" lon="-8.6436100">
        <ele>70.2</ele>
        <time>2021-05-15T18:28:40Z</time>
      </trkpt>
      <trkpt lat="41.1544970" lon="-8.6436320">
        <ele>70.0</ele>
        <time>2021-05-15T18:28:41Z</time>
      </trkpt>
      <trkpt lat="41.1545070" lon="-8.6436660">
        <ele>69.9</ele>
        <time>2021-05-15T18:28:42Z</time>
      </trkpt>
      <trkpt lat="41.1545060" lon="-8.6436800">
        <ele>69.8</ele>
        <time>2021-05-15T18:28:43Z</time>
      </trkpt>
      <trkpt lat="41.1545030" lon="-8.6437030">
        <ele>69.7</ele>
        <time>2021-05-15T18:28:44Z</time>
      </trkpt>
      <trkpt lat="41.1545060" lon="-8.6437200">
        <ele>69.6</ele>
        <time>2021-05-15T18:28:45Z</time>
      </trkpt>
      <trkpt lat="41.1545080" lon="-8.6437360">
        <ele>69.5</ele>
        <time>2021-05-15T18:28:46Z</time>
      </trkpt>
      <trkpt lat="41.1545090" lon="-8.6437420">
        <ele>69.4</ele>
        <time>2021-05-15T18:28:47Z</time>
      </trkpt>
      <trkpt lat="41.1545200" lon="-8.6437600">
        <ele>69.3</ele>
        <time>2021-05-15T18:28:48Z</time>
      </trkpt>
      <trkpt lat="41.1545410" lon="-8.6437920">
        <ele>69.1</ele>
        <time>2021-05-15T18:28:49Z</time>
      </trkpt>
      <trkpt lat="41.1545430" lon="-8.6438070">
        <ele>69.0</ele>
        <time>2021-05-15T18:28:50Z</time>
      </trkpt>
      <trkpt lat="41.1545480" lon="-8.6438370">
        <ele>68.8</ele>
        <time>2021-05-15T18:28:51Z</time>
      </trkpt>
      <trkpt lat="41.1545510" lon="-8.6438520">
        <ele>68.7</ele>
        <time>2021-05-15T18:28:52Z</time>
      </trkpt>
      <trkpt lat="41.1545590" lon="-8.6438690">
        <ele>68.5</ele>
        <time>2021-05-15T18:28:53Z</time>
      </trkpt>
      <trkpt lat="41.1545560" lon="-8.6438820">
        <ele>68.4</ele>
        <time>2021-05-15T18:28:54Z</time>
      </trkpt>
      <trkpt lat="41.1545580" lon="-8.6438920">
        <ele>68.4</ele>
        <time>2021-05-15T18:28:55Z</time>
      </trkpt>
      <trkpt lat="41.1545620" lon="-8.6439160">
        <ele>68.2</ele>
        <time>2021-05-15T18:28:56Z</time>
      </trkpt>
      <trkpt lat="41.1545630" lon="-8.6439280">
        <ele>68.1</ele>
        <time>2021-05-15T18:28:57Z</time>
      </trkpt>
      <trkpt lat="41.1545650" lon="-8.6439410">
        <ele>68.0</ele>
        <time>2021-05-15T18:28:58Z</time>
      </trkpt>
      <trkpt lat="41.1545600" lon="-8.6439680">
        <ele>67.9</ele>
        <time>2021-05-15T18:28:59Z</time>
      </trkpt>
      <trkpt lat="41.1545580" lon="-8.6439810">
        <ele>67.8</ele>
        <time>2021-05-15T18:29:00Z</time>
      </trkpt>
      <trkpt lat="41.1545550" lon="-8.6439930">
        <ele>67.7</ele>
        <time>2021-05-15T18:29:01Z</time>
      </trkpt>
      <trkpt lat="41.1545530" lon="-8.6440090">
        <ele>67.6</ele>
        <time>2021-05-15T18:29:02Z</time>
      </trkpt>
      <trkpt lat="41.1545470" lon="-8.6440280">
        <ele>67.5</ele>
        <time>2021-05-15T18:29:03Z</time>
      </trkpt>
      <trkpt lat="41.1545440" lon="-8.6440400">
        <ele>67.4</ele>
        <time>2021-05-15T18:29:04Z</time>
      </trkpt>
      <trkpt lat="41.1545400" lon="-8.6440610">
        <ele>67.2</ele>
        <time>2021-05-15T18:29:05Z</time>
      </trkpt>
      <trkpt lat="41.1545430" lon="-8.6440740">
        <ele>67.2</ele>
        <time>2021-05-15T18:29:06Z</time>
      </trkpt>
      <trkpt lat="41.1545460" lon="-8.6440860">
        <ele>67.1</ele>
        <time>2021-05-15T18:29:07Z</time>
      </trkpt>
      <trkpt lat="41.1545480" lon="-8.6440980">
        <ele>67.0</ele>
        <time>2021-05-15T18:29:08Z</time>
      </trkpt>
      <trkpt lat="41.1545430" lon="-8.6441130">
        <ele>66.9</ele>
        <time>2021-05-15T18:29:09Z</time>
      </trkpt>
      <trkpt lat="41.1545430" lon="-8.6441290">
        <ele>66.8</ele>
        <time>2021-05-15T18:29:10Z</time>
      </trkpt>
      <trkpt lat="41.1545430" lon="-8.6441350">
        <ele>66.7</ele>
        <time>2021-05-15T18:29:11Z</time>
      </trkpt>
      <trkpt lat="41.1545470" lon="-8.6441450">
        <ele>66.7</ele>
        <time>2021-05-15T18:29:12Z</time>
      </trkpt>
      <trkpt lat="41.1545560" lon="-8.6441450">
        <ele>66.6</ele>
        <time>2021-05-15T18:29:13Z</time>
      </trkpt>
      <trkpt lat="41.1545530" lon="-8.6441550">
        <ele>66.5</ele>
        <time>2021-05-15T18:29:14Z</time>
      </trkpt>
      <trkpt lat="41.1545480" lon="-8.6441830">
        <ele>66.3</ele>
        <time>2021-05-15T18:29:15Z</time>
      </trkpt>
      <trkpt lat="41.1545500" lon="-8.6441940">
        <ele>66.2</ele>
        <time>2021-05-15T18:29:16Z</time>
      </trkpt>
      <trkpt lat="41.1545510" lon="-8.6442040">
        <ele>66.2</ele>
        <time>2021-05-15T18:29:17Z</time>
      </trkpt>
      <trkpt lat="41.1545470" lon="-8.6442270">
        <ele>66.0</ele>
        <time>2021-05-15T18:29:18Z</time>
      </trkpt>
      <trkpt lat="41.1545500" lon="-8.6442430">
        <ele>65.9</ele>
        <time>2021-05-15T18:29:19Z</time>
      </trkpt>
      <trkpt lat="41.1545570" lon="-8.6442760">
        <ele>65.7</ele>
        <time>2021-05-15T18:29:20Z</time>
      </trkpt>
      <trkpt lat="41.1545590" lon="-8.6442900">
        <ele>65.6</ele>
        <time>2021-05-15T18:29:21Z</time>
      </trkpt>
      <trkpt lat="41.1545590" lon="-8.6443170">
        <ele>65.4</ele>
        <time>2021-05-15T18:29:22Z</time>
      </trkpt>
      <trkpt lat="41.1545590" lon="-8.6443300">
        <ele>65.3</ele>
        <time>2021-05-15T18:29:23Z</time>
      </trkpt>
      <trkpt lat="41.1545590" lon="-8.6443420">
        <ele>65.2</ele>
        <time>2021-05-15T18:29:24Z</time>
      </trkpt>
      <trkpt lat="41.1545560" lon="-8.6443610">
        <ele>65.1</ele>
        <time>2021-05-15T18:29:25Z</time>
      </trkpt>
      <trkpt lat="41.1545550" lon="-8.6443840">
        <ele>64.9</ele>
        <time>2021-05-15T18:29:26Z</time>
      </trkpt>
      <trkpt lat="41.1545550" lon="-8.6444190">
        <ele>64.7</ele>
        <time>2021-05-15T18:29:27Z</time>
      </trkpt>
      <trkpt lat="41.1545510" lon="-8.6444350">
        <ele>64.6</ele>
        <time>2021-05-15T18:29:28Z</time>
      </trkpt>
      <trkpt lat="41.1545440" lon="-8.6444760">
        <ele>64.3</ele>
        <time>2021-05-15T18:29:29Z</time>
      </trkpt>
      <trkpt lat="41.1545390" lon="-8.6445040">
        <ele>64.1</ele>
        <time>2021-05-15T18:29:30Z</time>
      </trkpt>
      <trkpt lat="41.1545410" lon="-8.6445230">
        <ele>64.0</ele>
        <time>2021-05-15T18:29:31Z</time>
      </trkpt>
      <trkpt lat="41.1545420" lon="-8.6445530">
        <ele>63.8</ele>
        <time>2021-05-15T18:29:32Z</time>
      </trkpt>
      <trkpt lat="41.1545420" lon="-8.6445640">
        <ele>63.7</ele>
        <time>2021-05-15T18:29:33Z</time>
      </trkpt>
      <trkpt lat="41.1545410" lon="-8.6445740">
        <ele>63.7</ele>
        <time>2021-05-15T18:29:34Z</time>
      </trkpt>
      <trkpt lat="41.1545430" lon="-8.6445920">
        <ele>63.6</ele>
        <time>2021-05-15T18:29:35Z</time>
      </trkpt>
      <trkpt lat="41.1545460" lon="-8.6446050">
        <ele>63.5</ele>
        <time>2021-05-15T18:29:36Z</time>
      </trkpt>
      <trkpt lat="41.1545470" lon="-8.6446180">
        <ele>63.4</ele>
        <time>2021-05-15T18:29:37Z</time>
      </trkpt>
      <trkpt lat="41.1545500" lon="-8.6446490">
        <ele>63.2</ele>
        <time>2021-05-15T18:29:38Z</time>
      </trkpt>
      <trkpt lat="41.1545500" lon="-8.6446610">
        <ele>63.1</ele>
        <time>2021-05-15T18:29:39Z</time>
      </trkpt>
      <trkpt lat="41.1545510" lon="-8.6446730">
        <ele>63.1</ele>
        <time>2021-05-15T18:29:40Z</time>
      </trkpt>
      <trkpt lat="41.1545520" lon="-8.6447050">
        <ele>62.9</ele>
        <time>2021-05-15T18:29:41Z</time>
      </trkpt>
      <trkpt lat="41.1545500" lon="-8.6447200">
        <ele>62.8</ele>
        <time>2021-05-15T18:29:42Z</time>
      </trkpt>
      <trkpt lat="41.1545480" lon="-8.6447350">
        <ele>62.7</ele>
        <time>2021-05-15T18:29:43Z</time>
      </trkpt>
      <trkpt lat="41.1545500" lon="-8.6447500">
        <ele>62.6</ele>
        <time>2021-05-15T18:29:44Z</time>
      </trkpt>
      <trkpt lat="41.1545470" lon="-8.6447570">
        <ele>62.5</ele>
        <time>2021-05-15T18:29:45Z</time>
      </trkpt>
      <trkpt lat="41.1545440" lon="-8.6447630">
        <ele>62.5</ele>
        <time>2021-05-15T18:29:46Z</time>
      </trkpt>
      <trkpt lat="41.1545430" lon="-8.6447730">
        <ele>62.4</ele>
        <time>2021-05-15T18:29:47Z</time>
      </trkpt>
      <trkpt lat="41.1545410" lon="-8.6447870">
        <ele>62.3</ele>
        <time>2021-05-15T18:29:48Z</time>
      </trkpt>
      <trkpt lat="41.1545490" lon="-8.6447920">
        <ele>62.3</ele>
        <time>2021-05-15T18:29:49Z</time>
      </trkpt>
      <trkpt lat="41.1545500" lon="-8.6448060">
        <ele>62.2</ele>
        <time>2021-05-15T18:29:50Z</time>
      </trkpt>
      <trkpt lat="41.1545550" lon="-8.6448140">
        <ele>62.1</ele>
        <time>2021-05-15T18:29:51Z</time>
      </trkpt>
      <trkpt lat="41.1545550" lon="-8.6448220">
        <ele>62.1</ele>
        <time>2021-05-15T18:29:52Z</time>
      </trkpt>
      <trkpt lat="41.1545490" lon="-8.6448420">
        <ele>61.9</ele>
        <time>2021-05-15T18:29:53Z</time>
      </trkpt>
      <trkpt lat="41.1545470" lon="-8.6448560">
        <ele>61.9</ele>
        <time>2021-05-15T18:29:54Z</time>
      </trkpt>
      <trkpt lat="41.1545480" lon="-8.6448710">
        <ele>61.8</ele>
        <time>2021-05-15T18:29:55Z</time>
      </trkpt>
      <trkpt lat="41.1545490" lon="-8.6448870">
        <ele>61.7</ele>
        <time>2021-05-15T18:29:56Z</time>
      </trkpt>
      <trkpt lat="41.1545520" lon="-8.6449000">
        <ele>61.6</ele>
        <time>2021-05-15T18:29:57Z</time>
      </trkpt>
      <trkpt lat="41.1545560" lon="-8.6449150">
        <ele>61.5</ele>
        <time>2021-05-15T18:29:58Z</time>
      </trkpt>
      <trkpt lat="41.1545580" lon="-8.6449230">
        <ele>61.4</ele>
        <time>2021-05-15T18:29:59Z</time>
      </trkpt>
      <trkpt lat="41.1545470" lon="-8.6449260">
        <ele>61.4</ele>
        <time>2021-05-15T18:30:00Z</time>
      </trkpt>
      <trkpt lat="41.1545340" lon="-8.6449300">
        <ele>61.2</ele>
        <time>2021-05-15T18:30:01Z</time>
      </trkpt>
      <trkpt lat="41.1545050" lon="-8.6449490">
        <ele>61.0</ele>
        <time>2021-05-15T18:30:02Z</time>
      </trkpt>
      <trkpt lat="41.1544960" lon="-8.6449540">
        <ele>60.9</ele>
        <time>2021-05-15T18:30:03Z</time>
      </trkpt>
      <trkpt lat="41.1544600" lon="-8.6449800">
        <ele>60.6</ele>
        <time>2021-05-15T18:30:04Z</time>
      </trkpt>
      <trkpt lat="41.1544400" lon="-8.6449950">
        <ele>60.5</ele>
        <time>2021-05-15T18:30:05Z</time>
      </trkpt>
      <trkpt lat="41.1544020" lon="-8.6450180">
        <ele>60.2</ele>
        <time>2021-05-15T18:30:06Z</time>
      </trkpt>
      <trkpt lat="41.1543700" lon="-8.6450540">
        <ele>59.9</ele>
        <time>2021-05-15T18:30:07Z</time>
      </trkpt>
      <trkpt lat="41.1543580" lon="-8.6450700">
        <ele>59.8</ele>
        <time>2021-05-15T18:30:08Z</time>
      </trkpt>
      <trkpt lat="41.1543360" lon="-8.6451080">
        <ele>59.6</ele>
        <time>2021-05-15T18:30:09Z</time>
      </trkpt>
      <trkpt lat="41.1543150" lon="-8.6451600">
        <ele>59.4</ele>
        <time>2021-05-15T18:30:10Z</time>
      </trkpt>
      <trkpt lat="41.1543070" lon="-8.6452100">
        <ele>59.1</ele>
        <time>2021-05-15T18:30:11Z</time>
      </trkpt>
      <trkpt lat="41.1542890" lon="-8.6452480">
        <ele>58.9</ele>
        <time>2021-05-15T18:30:12Z</time>
      </trkpt>
      <trkpt lat="41.1542920" lon="-8.6453050">
        <ele>58.7</ele>
        <time>2021-05-15T18:30:13Z</time>
      </trkpt>
      <trkpt lat="41.1543190" lon="-8.6453400">
        <ele>58.5</ele>
        <time>2021-05-15T18:30:14Z</time>
      </trkpt>
      <trkpt lat="41.1543470" lon="-8.6453810">
        <ele>58.3</ele>
        <time>2021-05-15T18:30:15Z</time>
      </trkpt>
      <trkpt lat="41.1543570" lon="-8.6453840">
        <ele>58.2</ele>
        <time>2021-05-15T18:30:16Z</time>
      </trkpt>
      <trkpt lat="41.1543700" lon="-8.6454060">
        <ele>58.1</ele>
        <time>2021-05-15T18:30:17Z</time>
      </trkpt>
      <trkpt lat="41.1543670" lon="-8.6454130">
        <ele>58.1</ele>
        <time>2021-05-15T18:30:18Z</time>
      </trkpt>
      <trkpt lat="41.1543710" lon="-8.6454350">
        <ele>58.0</ele>
        <time>2021-05-15T18:30:19Z</time>
      </trkpt>
      <trkpt lat="41.1543740" lon="-8.6454530">
        <ele>57.9</ele>
        <time>2021-05-15T18:30:20Z</time>
      </trkpt>
      <trkpt lat="41.1543790" lon="-8.6454650">
        <ele>57.9</ele>
        <time>2021-05-15T18:30:21Z</time>
      </trkpt>
      <trkpt lat="41.1543900" lon="-8.6454880">
        <ele>57.8</ele>
        <time>2021-05-15T18:30:22Z</time>
      </trkpt>
      <trkpt lat="41.1543960" lon="-8.6455060">
        <ele>57.7</ele>
        <time>2021-05-15T18:30:23Z</time>
      </trkpt>
      <trkpt lat="41.1543990" lon="-8.6455120">
        <ele>57.7</ele>
        <time>2021-05-15T18:30:24Z</time>
      </trkpt>
      <trkpt lat="41.1543930" lon="-8.6455220">
        <ele>57.7</ele>
        <time>2021-05-15T18:30:25Z</time>
      </trkpt>
      <trkpt lat="41.1543910" lon="-8.6455350">
        <ele>57.7</ele>
        <time>2021-05-15T18:30:26Z</time>
      </trkpt>
      <trkpt lat="41.1543860" lon="-8.6455690">
        <ele>57.6</ele>
        <time>2021-05-15T18:30:27Z</time>
      </trkpt>
      <trkpt lat="41.1543890" lon="-8.6455870">
        <ele>57.6</ele>
        <time>2021-05-15T18:30:28Z</time>
      </trkpt>
      <trkpt lat="41.1543860" lon="-8.6455990">
        <ele>57.6</ele>
        <time>2021-05-15T18:30:29Z</time>
      </trkpt>
      <trkpt lat="41.1543850" lon="-8.6456000">
        <ele>57.6</ele>
        <time>2021-05-15T18:30:30Z</time>
      </trkpt>
      <trkpt lat="41.1543750" lon="-8.6456260">
        <ele>57.5</ele>
        <time>2021-05-15T18:30:31Z</time>
      </trkpt>
      <trkpt lat="41.1543490" lon="-8.6456480">
        <ele>57.5</ele>
        <time>2021-05-15T18:30:32Z</time>
      </trkpt>
      <trkpt lat="41.1543350" lon="-8.6456570">
        <ele>57.4</ele>
        <time>2021-05-15T18:30:33Z</time>
      </trkpt>
      <trkpt lat="41.1543140" lon="-8.6456830">
        <ele>57.4</ele>
        <time>2021-05-15T18:30:34Z</time>
      </trkpt>
      <trkpt lat="41.1542860" lon="-8.6456930">
        <ele>57.3</ele>
        <time>2021-05-15T18:30:35Z</time>
      </trkpt>
      <trkpt lat="41.1542810" lon="-8.6457090">
        <ele>57.3</ele>
        <time>2021-05-15T18:30:36Z</time>
      </trkpt>
      <trkpt lat="41.1542760" lon="-8.6457310">
        <ele>57.3</ele>
        <time>2021-05-15T18:30:37Z</time>
      </trkpt>
      <trkpt lat="41.1542750" lon="-8.6457460">
        <ele>57.2</ele>
        <time>2021-05-15T18:30:38Z</time>
      </trkpt>
      <trkpt lat="41.1542700" lon="-8.6457730">
        <ele>57.2</ele>
        <time>2021-05-15T18:30:39Z</time>
      </trkpt>
      <trkpt lat="41.1542650" lon="-8.6457760">
        <ele>57.2</ele>
        <time>2021-05-15T18:30:40Z</time>
      </trkpt>
      <trkpt lat="41.1542640" lon="-8.6457910">
        <ele>57.2</ele>
        <time>2021-05-15T18:30:41Z</time>
      </trkpt>
      <trkpt lat="41.1542610" lon="-8.6458180">
        <ele>57.1</ele>
        <time>2021-05-15T18:30:42Z</time>
      </trkpt>
      <trkpt lat="41.1542590" lon="-8.6458310">
        <ele>57.1</ele>
        <time>2021-05-15T18:30:43Z</time>
      </trkpt>
      <trkpt lat="41.1542580" lon="-8.6458430">
        <ele>57.1</ele>
        <time>2021-05-15T18:30:44Z</time>
      </trkpt>
      <trkpt lat="41.1542480" lon="-8.6458550">
        <ele>57.0</ele>
        <time>2021-05-15T18:30:45Z</time>
      </trkpt>
      <trkpt lat="41.1542470" lon="-8.6458710">
        <ele>57.0</ele>
        <time>2021-05-15T18:30:46Z</time>
      </trkpt>
      <trkpt lat="41.1542490" lon="-8.6458850">
        <ele>57.0</ele>
        <time>2021-05-15T18:30:47Z</time>
      </trkpt>
      <trkpt lat="41.1542570" lon="-8.6458880">
        <ele>57.0</ele>
        <time>2021-05-15T18:30:48Z</time>
      </trkpt>
      <trkpt lat="41.1542560" lon="-8.6458980">
        <ele>57.0</ele>
        <time>2021-05-15T18:30:49Z</time>
      </trkpt>
      <trkpt lat="41.1542630" lon="-8.6459030">
        <ele>56.9</ele>
        <time>2021-05-15T18:30:50Z</time>
      </trkpt>
      <trkpt lat="41.1542720" lon="-8.6458970">
        <ele>56.9</ele>
        <time>2021-05-15T18:30:51Z</time>
      </trkpt>
      <trkpt lat="41.1542830" lon="-8.6458920">
        <ele>56.9</ele>
        <time>2021-05-15T18:30:52Z</time>
      </trkpt>
      <trkpt lat="41.1542930" lon="-8.6458820">
        <ele>56.9</ele>
        <time>2021-05-15T18:30:53Z</time>
      </trkpt>
      <trkpt lat="41.1542980" lon="-8.6458710">
        <ele>56.8</ele>
        <time>2021-05-15T18:30:54Z</time>
      </trkpt>
      <trkpt lat="41.1543060" lon="-8.6458670">
        <ele>56.8</ele>
        <time>2021-05-15T18:30:55Z</time>
      </trkpt>
      <trkpt lat="41.1543300" lon="-8.6458670">
        <ele>56.8</ele>
        <time>2021-05-15T18:30:56Z</time>
      </trkpt>
      <trkpt lat="41.1543480" lon="-8.6458680">
        <ele>56.7</ele>
        <time>2021-05-15T18:30:57Z</time>
      </trkpt>
      <trkpt lat="41.1543560" lon="-8.6458660">
        <ele>56.7</ele>
        <time>2021-05-15T18:30:58Z</time>
      </trkpt>
      <trkpt lat="41.1543600" lon="-8.6458640">
        <ele>56.7</ele>
        <time>2021-05-15T18:30:59Z</time>
      </trkpt>
      <trkpt lat="41.1543650" lon="-8.6458630">
        <ele>56.7</ele>
        <time>2021-05-15T18:31:00Z</time>
      </trkpt>
      <trkpt lat="41.1543690" lon="-8.6458610">
        <ele>56.7</ele>
        <time>2021-05-15T18:31:01Z</time>
      </trkpt>
      <trkpt lat="41.1543740" lon="-8.6458590">
        <ele>56.7</ele>
        <time>2021-05-15T18:31:02Z</time>
      </trkpt>
      <trkpt lat="41.1543780" lon="-8.6458570">
        <ele>56.7</ele>
        <time>2021-05-15T18:31:03Z</time>
      </trkpt>
      <trkpt lat="41.1543830" lon="-8.6458560">
        <ele>56.6</ele>
        <time>2021-05-15T18:31:04Z</time>
      </trkpt>
      <trkpt lat="41.1543870" lon="-8.6458540">
        <ele>56.6</ele>
        <time>2021-05-15T18:31:05Z</time>
      </trkpt>
      <trkpt lat="41.1543920" lon="-8.6458520">
        <ele>56.6</ele>
        <time>2021-05-15T18:31:06Z</time>
      </trkpt>
      <trkpt lat="41.1543980" lon="-8.6458530">
        <ele>56.6</ele>
        <time>2021-05-15T18:31:07Z</time>
      </trkpt>
      <trkpt lat="41.1544020" lon="-8.6458520">
        <ele>56.6</ele>
        <time>2021-05-15T18:31:08Z</time>
      </trkpt>
      <trkpt lat="41.1544060" lon="-8.6458520">
        <ele>56.6</ele>
        <time>2021-05-15T18:31:09Z</time>
      </trkpt>
      <trkpt lat="41.1544100" lon="-8.6458510">
        <ele>56.6</ele>
        <time>2021-05-15T18:31:10Z</time>
      </trkpt>
      <trkpt lat="41.1544130" lon="-8.6458510">
        <ele>56.6</ele>
        <time>2021-05-15T18:31:11Z</time>
      </trkpt>
      <trkpt lat="41.1544170" lon="-8.6458500">
        <ele>56.6</ele>
        <time>2021-05-15T18:31:12Z</time>
      </trkpt>
      <trkpt lat="41.1544210" lon="-8.6458500">
        <ele>56.6</ele>
        <time>2021-05-15T18:31:13Z</time>
      </trkpt>
      <trkpt lat="41.1544250" lon="-8.6458490">
        <ele>56.5</ele>
        <time>2021-05-15T18:31:14Z</time>
      </trkpt>
      <trkpt lat="41.1544290" lon="-8.6458490">
        <ele>56.5</ele>
        <time>2021-05-15T18:31:15Z</time>
      </trkpt>
      <trkpt lat="41.1544300" lon="-8.6458480">
        <ele>56.5</ele>
        <time>2021-05-15T18:31:16Z</time>
      </trkpt>
      <trkpt lat="41.1544340" lon="-8.6458470">
        <ele>56.5</ele>
        <time>2021-05-15T18:31:17Z</time>
      </trkpt>
      <trkpt lat="41.1544380" lon="-8.6458450">
        <ele>56.5</ele>
        <time>2021-05-15T18:31:18Z</time>
      </trkpt>
      <trkpt lat="41.1544420" lon="-8.6458470">
        <ele>56.5</ele>
        <time>2021-05-15T18:31:19Z</time>
      </trkpt>
      <trkpt lat="41.1544440" lon="-8.6458460">
        <ele>56.5</ele>
        <time>2021-05-15T18:31:20Z</time>
      </trkpt>
      <trkpt lat="41.1544500" lon="-8.6458460">
        <ele>56.5</ele>
        <time>2021-05-15T18:31:21Z</time>
      </trkpt>
      <trkpt lat="41.1544500" lon="-8.6458460">
        <ele>56.5</ele>
        <time>2021-05-15T18:31:22Z</time>
      </trkpt>
      <trkpt lat="41.1544560" lon="-8.6458520">
        <ele>56.5</ele>
        <time>2021-05-15T18:31:23Z</time>
      </trkpt>
      <trkpt lat="41.1544600" lon="-8.6458630">
        <ele>56.4</ele>
        <time>2021-05-15T18:31:24Z</time>
      </trkpt>
      <trkpt lat="41.1544580" lon="-8.6458640">
        <ele>56.4</ele>
        <time>2021-05-15T18:31:25Z</time>
      </trkpt>
      <trkpt lat="41.1544580" lon="-8.6458940">
        <ele>56.4</ele>
        <time>2021-05-15T18:31:26Z</time>
      </trkpt>
      <trkpt lat="41.1544490" lon="-8.6459090">
        <ele>56.4</ele>
        <time>2021-05-15T18:31:27Z</time>
      </trkpt>
      <trkpt lat="41.1544550" lon="-8.6459390">
        <ele>56.3</ele>
        <time>2021-05-15T18:31:28Z</time>
      </trkpt>
      <trkpt lat="41.1544460" lon="-8.6459520">
        <ele>56.3</ele>
        <time>2021-05-15T18:31:29Z</time>
      </trkpt>
      <trkpt lat="41.1544440" lon="-8.6459810">
        <ele>56.2</ele>
        <time>2021-05-15T18:31:30Z</time>
      </trkpt>
      <trkpt lat="41.1544390" lon="-8.6460020">
        <ele>56.2</ele>
        <time>2021-05-15T18:31:31Z</time>
      </trkpt>
      <trkpt lat="41.1544340" lon="-8.6460190">
        <ele>56.2</ele>
        <time>2021-05-15T18:31:32Z</time>
      </trkpt>
      <trkpt lat="41.1544290" lon="-8.6460370">
        <ele>56.1</ele>
        <time>2021-05-15T18:31:33Z</time>
      </trkpt>
      <trkpt lat="41.1544240" lon="-8.6460560">
        <ele>56.1</ele>
        <time>2021-05-15T18:31:34Z</time>
      </trkpt>
      <trkpt lat="41.1544180" lon="-8.6460750">
        <ele>56.0</ele>
        <time>2021-05-15T18:31:35Z</time>
      </trkpt>
      <trkpt lat="41.1544110" lon="-8.6460760">
        <ele>56.0</ele>
        <time>2021-05-15T18:31:36Z</time>
      </trkpt>
      <trkpt lat="41.1544130" lon="-8.6460990">
        <ele>55.9</ele>
        <time>2021-05-15T18:31:37Z</time>
      </trkpt>
      <trkpt lat="41.1544050" lon="-8.6461170">
        <ele>55.9</ele>
        <time>2021-05-15T18:31:38Z</time>
      </trkpt>
      <trkpt lat="41.1543950" lon="-8.6461390">
        <ele>55.8</ele>
        <time>2021-05-15T18:31:39Z</time>
      </trkpt>
      <trkpt lat="41.1543850" lon="-8.6461580">
        <ele>55.8</ele>
        <time>2021-05-15T18:31:40Z</time>
      </trkpt>
      <trkpt lat="41.1543740" lon="-8.6461650">
        <ele>55.7</ele>
        <time>2021-05-15T18:31:41Z</time>
      </trkpt>
      <trkpt lat="41.1543640" lon="-8.6461710">
        <ele>55.7</ele>
        <time>2021-05-15T18:31:42Z</time>
      </trkpt>
      <trkpt lat="41.1543640" lon="-8.6461940">
        <ele>55.7</ele>
        <time>2021-05-15T18:31:43Z</time>
      </trkpt>
      <trkpt lat="41.1543590" lon="-8.6462190">
        <ele>55.6</ele>
        <time>2021-05-15T18:31:44Z</time>
      </trkpt>
      <trkpt lat="41.1543470" lon="-8.6462580">
        <ele>55.5</ele>
        <time>2021-05-15T18:31:45Z</time>
      </trkpt>
      <trkpt lat="41.1543430" lon="-8.6462710">
        <ele>55.5</ele>
        <time>2021-05-15T18:31:46Z</time>
      </trkpt>
      <trkpt lat="41.1543350" lon="-8.6462810">
        <ele>55.4</ele>
        <time>2021-05-15T18:31:47Z</time>
      </trkpt>
      <trkpt lat="41.1543310" lon="-8.6462970">
        <ele>55.4</ele>
        <time>2021-05-15T18:31:48Z</time>
      </trkpt>
      <trkpt lat="41.1543290" lon="-8.6463140">
        <ele>55.4</ele>
        <time>2021-05-15T18:31:49Z</time>
      </trkpt>
      <trkpt lat="41.1543360" lon="-8.6463380">
        <ele>55.3</ele>
        <time>2021-05-15T18:31:50Z</time>
      </trkpt>
      <trkpt lat="41.1543340" lon="-8.6463560">
        <ele>55.3</ele>
        <time>2021-05-15T18:31:51Z</time>
      </trkpt>
      <trkpt lat="41.1543300" lon="-8.6463680">
        <ele>55.2</ele>
        <time>2021-05-15T18:31:52Z</time>
      </trkpt>
      <trkpt lat="41.1543310" lon="-8.6463880">
        <ele>55.2</ele>
        <time>2021-05-15T18:31:53Z</time>
      </trkpt>
      <trkpt lat="41.1543280" lon="-8.6464030">
        <ele>55.2</ele>
        <time>2021-05-15T18:31:54Z</time>
      </trkpt>
      <trkpt lat="41.1543240" lon="-8.6464230">
        <ele>55.1</ele>
        <time>2021-05-15T18:31:55Z</time>
      </trkpt>
      <trkpt lat="41.1543160" lon="-8.6464380">
        <ele>55.1</ele>
        <time>2021-05-15T18:31:56Z</time>
      </trkpt>
      <trkpt lat="41.1543090" lon="-8.6464610">
        <ele>55.0</ele>
        <time>2021-05-15T18:31:57Z</time>
      </trkpt>
      <trkpt lat="41.1542980" lon="-8.6464740">
        <ele>55.0</ele>
        <time>2021-05-15T18:31:58Z</time>
      </trkpt>
      <trkpt lat="41.1542870" lon="-8.6465080">
        <ele>54.9</ele>
        <time>2021-05-15T18:31:59Z</time>
      </trkpt>
      <trkpt lat="41.1542880" lon="-8.6465210">
        <ele>54.9</ele>
        <time>2021-05-15T18:32:00Z</time>
      </trkpt>
      <trkpt lat="41.1542830" lon="-8.6465430">
        <ele>54.8</ele>
        <time>2021-05-15T18:32:01Z</time>
      </trkpt>
      <trkpt lat="41.1542780" lon="-8.6465610">
        <ele>54.8</ele>
        <time>2021-05-15T18:32:02Z</time>
      </trkpt>
      <trkpt lat="41.1542770" lon="-8.6465600">
        <ele>54.8</ele>
        <time>2021-05-15T18:32:03Z</time>
      </trkpt>
      <trkpt lat="41.1542710" lon="-8.6465740">
        <ele>54.7</ele>
        <time>2021-05-15T18:32:04Z</time>
      </trkpt>
      <trkpt lat="41.1542710" lon="-8.6465970">
        <ele>54.7</ele>
        <time>2021-05-15T18:32:05Z</time>
      </trkpt>
      <trkpt lat="41.1542750" lon="-8.6466120">
        <ele>54.7</ele>
        <time>2021-05-15T18:32:06Z</time>
      </trkpt>
      <trkpt lat="41.1542680" lon="-8.6466370">
        <ele>54.6</ele>
        <time>2021-05-15T18:32:07Z</time>
      </trkpt>
      <trkpt lat="41.1542630" lon="-8.6466490">
        <ele>54.6</ele>
        <time>2021-05-15T18:32:08Z</time>
      </trkpt>
      <trkpt lat="41.1542560" lon="-8.6466630">
        <ele>54.5</ele>
        <time>2021-05-15T18:32:09Z</time>
      </trkpt>
      <trkpt lat="41.1542570" lon="-8.6466780">
        <ele>54.5</ele>
        <time>2021-05-15T18:32:10Z</time>
      </trkpt>
      <trkpt lat="41.1542510" lon="-8.6466860">
        <ele>54.5</ele>
        <time>2021-05-15T18:32:11Z</time>
      </trkpt>
      <trkpt lat="41.1542470" lon="-8.6467000">
        <ele>54.5</ele>
        <time>2021-05-15T18:32:12Z</time>
      </trkpt>
      <trkpt lat="41.1542470" lon="-8.6466960">
        <ele>54.4</ele>
        <time>2021-05-15T18:32:13Z</time>
      </trkpt>
      <trkpt lat="41.1542460" lon="-8.6466990">
        <ele>54.4</ele>
        <time>2021-05-15T18:32:14Z</time>
      </trkpt>
      <trkpt lat="41.1542470" lon="-8.6467190">
        <ele>54.4</ele>
        <time>2021-05-15T18:32:15Z</time>
      </trkpt>
      <trkpt lat="41.1542460" lon="-8.6467310">
        <ele>54.4</ele>
        <time>2021-05-15T18:32:16Z</time>
      </trkpt>
      <trkpt lat="41.1542390" lon="-8.6467420">
        <ele>54.4</ele>
        <time>2021-05-15T18:32:17Z</time>
      </trkpt>
      <trkpt lat="41.1542320" lon="-8.6467540">
        <ele>54.3</ele>
        <time>2021-05-15T18:32:18Z</time>
      </trkpt>
      <trkpt lat="41.1542250" lon="-8.6467650">
        <ele>54.3</ele>
        <time>2021-05-15T18:32:19Z</time>
      </trkpt>
      <trkpt lat="41.1542140" lon="-8.6467870">
        <ele>54.3</ele>
        <time>2021-05-15T18:32:20Z</time>
      </trkpt>
      <trkpt lat="41.1542040" lon="-8.6467920">
        <ele>54.2</ele>
        <time>2021-05-15T18:32:21Z</time>
      </trkpt>
      <trkpt lat="41.1541970" lon="-8.6468160">
        <ele>54.2</ele>
        <time>2021-05-15T18:32:22Z</time>
      </trkpt>
      <trkpt lat="41.1541910" lon="-8.6468350">
        <ele>54.2</ele>
        <time>2021-05-15T18:32:23Z</time>
      </trkpt>
      <trkpt lat="41.1541830" lon="-8.6468720">
        <ele>54.1</ele>
        <time>2021-05-15T18:32:24Z</time>
      </trkpt>
      <trkpt lat="41.1541830" lon="-8.6468840">
        <ele>54.1</ele>
        <time>2021-05-15T18:32:25Z</time>
      </trkpt>
      <trkpt lat="41.1541730" lon="-8.6469220">
        <ele>54.0</ele>
        <time>2021-05-15T18:32:26Z</time>
      </trkpt>
      <trkpt lat="41.1541650" lon="-8.6469320">
        <ele>54.0</ele>
        <time>2021-05-15T18:32:27Z</time>
      </trkpt>
      <trkpt lat="41.1541580" lon="-8.6469730">
        <ele>53.9</ele>
        <time>2021-05-15T18:32:28Z</time>
      </trkpt>
      <trkpt lat="41.1541550" lon="-8.6469860">
        <ele>53.9</ele>
        <time>2021-05-15T18:32:29Z</time>
      </trkpt>
      <trkpt lat="41.1541310" lon="-8.6470150">
        <ele>53.9</ele>
        <time>2021-05-15T18:32:30Z</time>
      </trkpt>
      <trkpt lat="41.1541280" lon="-8.6470240">
        <ele>53.8</ele>
        <time>2021-05-15T18:32:31Z</time>
      </trkpt>
      <trkpt lat="41.1541230" lon="-8.6470610">
        <ele>53.8</ele>
        <time>2021-05-15T18:32:32Z</time>
      </trkpt>
      <trkpt lat="41.1541230" lon="-8.6470730">
        <ele>53.8</ele>
        <time>2021-05-15T18:32:33Z</time>
      </trkpt>
      <trkpt lat="41.1541220" lon="-8.6470960">
        <ele>53.8</ele>
        <time>2021-05-15T18:32:34Z</time>
      </trkpt>
      <trkpt lat="41.1541230" lon="-8.6471130">
        <ele>53.8</ele>
        <time>2021-05-15T18:32:35Z</time>
      </trkpt>
      <trkpt lat="41.1541250" lon="-8.6471290">
        <ele>53.8</ele>
        <time>2021-05-15T18:32:36Z</time>
      </trkpt>
      <trkpt lat="41.1541260" lon="-8.6471670">
        <ele>53.7</ele>
        <time>2021-05-15T18:32:37Z</time>
      </trkpt>
      <trkpt lat="41.1541300" lon="-8.6471790">
        <ele>53.7</ele>
        <time>2021-05-15T18:32:38Z</time>
      </trkpt>
      <trkpt lat="41.1541250" lon="-8.6472150">
        <ele>53.7</ele>
        <time>2021-05-15T18:32:39Z</time>
      </trkpt>
      <trkpt lat="41.1541200" lon="-8.6472350">
        <ele>53.7</ele>
        <time>2021-05-15T18:32:40Z</time>
      </trkpt>
      <trkpt lat="41.1541170" lon="-8.6472340">
        <ele>53.7</ele>
        <time>2021-05-15T18:32:41Z</time>
      </trkpt>
      <trkpt lat="41.1541190" lon="-8.6472510">
        <ele>53.7</ele>
        <time>2021-05-15T18:32:42Z</time>
      </trkpt>
      <trkpt lat="41.1541230" lon="-8.6472730">
        <ele>53.7</ele>
        <time>2021-05-15T18:32:43Z</time>
      </trkpt>
      <trkpt lat="41.1541180" lon="-8.6472980">
        <ele>53.7</ele>
        <time>2021-05-15T18:32:44Z</time>
      </trkpt>
      <trkpt lat="41.1541170" lon="-8.6473200">
        <ele>53.7</ele>
        <time>2021-05-15T18:32:45Z</time>
      </trkpt>
      <trkpt lat="41.1540960" lon="-8.6473470">
        <ele>53.7</ele>
        <time>2021-05-15T18:32:46Z</time>
      </trkpt>
      <trkpt lat="41.1540860" lon="-8.6473650">
        <ele>53.7</ele>
        <time>2021-05-15T18:32:47Z</time>
      </trkpt>
      <trkpt lat="41.1540820" lon="-8.6473870">
        <ele>53.7</ele>
        <time>2021-05-15T18:32:48Z</time>
      </trkpt>
      <trkpt lat="41.1540810" lon="-8.6474000">
        <ele>53.7</ele>
        <time>2021-05-15T18:32:49Z</time>
      </trkpt>
      <trkpt lat="41.1540760" lon="-8.6474300">
        <ele>53.7</ele>
        <time>2021-05-15T18:32:50Z</time>
      </trkpt>
      <trkpt lat="41.1540690" lon="-8.6474430">
        <ele>53.7</ele>
        <time>2021-05-15T18:32:51Z</time>
      </trkpt>
      <trkpt lat="41.1540630" lon="-8.6474560">
        <ele>53.7</ele>
        <time>2021-05-15T18:32:52Z</time>
      </trkpt>
      <trkpt lat="41.1540550" lon="-8.6474880">
        <ele>53.7</ele>
        <time>2021-05-15T18:32:53Z</time>
      </trkpt>
      <trkpt lat="41.1540510" lon="-8.6475010">
        <ele>53.7</ele>
        <time>2021-05-15T18:32:54Z</time>
      </trkpt>
      <trkpt lat="41.1540480" lon="-8.6475140">
        <ele>53.7</ele>
        <time>2021-05-15T18:32:55Z</time>
      </trkpt>
      <trkpt lat="41.1540500" lon="-8.6475340">
        <ele>53.7</ele>
        <time>2021-05-15T18:32:56Z</time>
      </trkpt>
      <trkpt lat="41.1540530" lon="-8.6475610">
        <ele>53.7</ele>
        <time>2021-05-15T18:32:57Z</time>
      </trkpt>
      <trkpt lat="41.1540560" lon="-8.6476040">
        <ele>53.7</ele>
        <time>2021-05-15T18:32:58Z</time>
      </trkpt>
      <trkpt lat="41.1540570" lon="-8.6476150">
        <ele>53.7</ele>
        <time>2021-05-15T18:32:59Z</time>
      </trkpt>
      <trkpt lat="41.1540610" lon="-8.6476580">
        <ele>53.8</ele>
        <time>2021-05-15T18:33:00Z</time>
      </trkpt>
      <trkpt lat="41.1540620" lon="-8.6476740">
        <ele>53.8</ele>
        <time>2021-05-15T18:33:01Z</time>
      </trkpt>
      <trkpt lat="41.1540640" lon="-8.6477050">
        <ele>53.8</ele>
        <time>2021-05-15T18:33:02Z</time>
      </trkpt>
      <trkpt lat="41.1540650" lon="-8.6477150">
        <ele>53.8</ele>
        <time>2021-05-15T18:33:03Z</time>
      </trkpt>
      <trkpt lat="41.1540670" lon="-8.6477260">
        <ele>53.8</ele>
        <time>2021-05-15T18:33:04Z</time>
      </trkpt>
      <trkpt lat="41.1540740" lon="-8.6477520">
        <ele>53.8</ele>
        <time>2021-05-15T18:33:05Z</time>
      </trkpt>
      <trkpt lat="41.1540840" lon="-8.6477610">
        <ele>53.8</ele>
        <time>2021-05-15T18:33:06Z</time>
      </trkpt>
      <trkpt lat="41.1540850" lon="-8.6478030">
        <ele>53.9</ele>
        <time>2021-05-15T18:33:07Z</time>
      </trkpt>
      <trkpt lat="41.1540830" lon="-8.6478150">
        <ele>53.9</ele>
        <time>2021-05-15T18:33:08Z</time>
      </trkpt>
      <trkpt lat="41.1540790" lon="-8.6478430">
        <ele>53.9</ele>
        <time>2021-05-15T18:33:09Z</time>
      </trkpt>
      <trkpt lat="41.1540790" lon="-8.6478610">
        <ele>53.9</ele>
        <time>2021-05-15T18:33:10Z</time>
      </trkpt>
      <trkpt lat="41.1540780" lon="-8.6478790">
        <ele>53.9</ele>
        <time>2021-05-15T18:33:11Z</time>
      </trkpt>
      <trkpt lat="41.1540810" lon="-8.6478980">
        <ele>53.9</ele>
        <time>2021-05-15T18:33:12Z</time>
      </trkpt>
      <trkpt lat="41.1540840" lon="-8.6479170">
        <ele>53.9</ele>
        <time>2021-05-15T18:33:13Z</time>
      </trkpt>
      <trkpt lat="41.1540910" lon="-8.6479520">
        <ele>54.0</ele>
        <time>2021-05-15T18:33:14Z</time>
      </trkpt>
      <trkpt lat="41.1540920" lon="-8.6479670">
        <ele>54.0</ele>
        <time>2021-05-15T18:33:15Z</time>
      </trkpt>
      <trkpt lat="41.1540850" lon="-8.6480110">
        <ele>54.0</ele>
        <time>2021-05-15T18:33:16Z</time>
      </trkpt>
      <trkpt lat="41.1540850" lon="-8.6480280">
        <ele>54.0</ele>
        <time>2021-05-15T18:33:17Z</time>
      </trkpt>
      <trkpt lat="41.1540800" lon="-8.6480400">
        <ele>54.0</ele>
        <time>2021-05-15T18:33:18Z</time>
      </trkpt>
      <trkpt lat="41.1540930" lon="-8.6480440">
        <ele>54.0</ele>
        <time>2021-05-15T18:33:19Z</time>
      </trkpt>
      <trkpt lat="41.1541080" lon="-8.6480530">
        <ele>54.0</ele>
        <time>2021-05-15T18:33:20Z</time>
      </trkpt>
      <trkpt lat="41.1541500" lon="-8.6480630">
        <ele>54.1</ele>
        <time>2021-05-15T18:33:21Z</time>
      </trkpt>
      <trkpt lat="41.1541700" lon="-8.6480620">
        <ele>54.1</ele>
        <time>2021-05-15T18:33:22Z</time>
      </trkpt>
      <trkpt lat="41.1541950" lon="-8.6480790">
        <ele>54.1</ele>
        <time>2021-05-15T18:33:23Z</time>
      </trkpt>
      <trkpt lat="41.1542010" lon="-8.6480860">
        <ele>54.1</ele>
        <time>2021-05-15T18:33:24Z</time>
      </trkpt>
      <trkpt lat="41.1542180" lon="-8.6481000">
        <ele>54.1</ele>
        <time>2021-05-15T18:33:25Z</time>
      </trkpt>
      <trkpt lat="41.1542300" lon="-8.6481050">
        <ele>54.1</ele>
        <time>2021-05-15T18:33:26Z</time>
      </trkpt>
      <trkpt lat="41.1542410" lon="-8.6481090">
        <ele>54.1</ele>
        <time>2021-05-15T18:33:27Z</time>
      </trkpt>
      <trkpt lat="41.1542540" lon="-8.6481150">
        <ele>54.1</ele>
        <time>2021-05-15T18:33:28Z</time>
      </trkpt>
      <trkpt lat="41.1542670" lon="-8.6481180">
        <ele>54.0</ele>
        <time>2021-05-15T18:33:29Z</time>
      </trkpt>
      <trkpt lat="41.1542870" lon="-8.6481270">
        <ele>54.0</ele>
        <time>2021-05-15T18:33:30Z</time>
      </trkpt>
      <trkpt lat="41.1542990" lon="-8.6481190">
        <ele>53.9</ele>
        <time>2021-05-15T18:33:31Z</time>
      </trkpt>
      <trkpt lat="41.1543270" lon="-8.6481150">
        <ele>53.9</ele>
        <time>2021-05-15T18:33:32Z</time>
      </trkpt>
      <trkpt lat="41.1543380" lon="-8.6481140">
        <ele>53.8</ele>
        <time>2021-05-15T18:33:33Z</time>
      </trkpt>
      <trkpt lat="41.1543480" lon="-8.6481120">
        <ele>53.8</ele>
        <time>2021-05-15T18:33:34Z</time>
      </trkpt>
      <trkpt lat="41.1543760" lon="-8.6481030">
        <ele>53.7</ele>
        <time>2021-05-15T18:33:35Z</time>
      </trkpt>
      <trkpt lat="41.1543840" lon="-8.6480990">
        <ele>53.7</ele>
        <time>2021-05-15T18:33:36Z</time>
      </trkpt>
      <trkpt lat="41.1544180" lon="-8.6480770">
        <ele>53.6</ele>
        <time>2021-05-15T18:33:37Z</time>
      </trkpt>
      <trkpt lat="41.1544270" lon="-8.6480690">
        <ele>53.5</ele>
        <time>2021-05-15T18:33:38Z</time>
      </trkpt>
      <trkpt lat="41.1544450" lon="-8.6480630">
        <ele>53.5</ele>
        <time>2021-05-15T18:33:39Z</time>
      </trkpt>
      <trkpt lat="41.1544600" lon="-8.6480670">
        <ele>53.5</ele>
        <time>2021-05-15T18:33:40Z</time>
      </trkpt>
      <trkpt lat="41.1544820" lon="-8.6480660">
        <ele>53.5</ele>
        <time>2021-05-15T18:33:41Z</time>
      </trkpt>
      <trkpt lat="41.1544950" lon="-8.6480650">
        <ele>53.5</ele>
        <time>2021-05-15T18:33:42Z</time>
      </trkpt>
      <trkpt lat="41.1545080" lon="-8.6480750">
        <ele>53.5</ele>
        <time>2021-05-15T18:33:43Z</time>
      </trkpt>
      <trkpt lat="41.1545230" lon="-8.6480850">
        <ele>53.5</ele>
        <time>2021-05-15T18:33:44Z</time>
      </trkpt>
      <trkpt lat="41.1545360" lon="-8.6480920">
        <ele>53.5</ele>
        <time>2021-05-15T18:33:45Z</time>
      </trkpt>
      <trkpt lat="41.1545530" lon="-8.6480970">
        <ele>53.5</ele>
        <time>2021-05-15T18:33:46Z</time>
      </trkpt>
      <trkpt lat="41.1545720" lon="-8.6480880">
        <ele>53.5</ele>
        <time>2021-05-15T18:33:47Z</time>
      </trkpt>
      <trkpt lat="41.1545820" lon="-8.6480860">
        <ele>53.5</ele>
        <time>2021-05-15T18:33:48Z</time>
      </trkpt>
      <trkpt lat="41.1545910" lon="-8.6480830">
        <ele>53.5</ele>
        <time>2021-05-15T18:33:49Z</time>
      </trkpt>
      <trkpt lat="41.1546140" lon="-8.6480760">
        <ele>53.5</ele>
        <time>2021-05-15T18:33:50Z</time>
      </trkpt>
      <trkpt lat="41.1546220" lon="-8.6480730">
        <ele>53.5</ele>
        <time>2021-05-15T18:33:51Z</time>
      </trkpt>
      <trkpt lat="41.1546310" lon="-8.6480710">
        <ele>53.5</ele>
        <time>2021-05-15T18:33:52Z</time>
      </trkpt>
      <trkpt lat="41.1546530" lon="-8.6480500">
        <ele>53.5</ele>
        <time>2021-05-15T18:33:53Z</time>
      </trkpt>
      <trkpt lat="41.1546630" lon="-8.6480450">
        <ele>53.5</ele>
        <time>2021-05-15T18:33:54Z</time>
      </trkpt>
      <trkpt lat="41.1546740" lon="-8.6480320">
        <ele>53.6</ele>
        <time>2021-05-15T18:33:55Z</time>
      </trkpt>
      <trkpt lat="41.1546860" lon="-8.6480240">
        <ele>53.6</ele>
        <time>2021-05-15T18:33:56Z</time>
      </trkpt>
      <trkpt lat="41.1546950" lon="-8.6480140">
        <ele>53.6</ele>
        <time>2021-05-15T18:33:57Z</time>
      </trkpt>
      <trkpt lat="41.1547070" lon="-8.6479990">
        <ele>53.6</ele>
        <time>2021-05-15T18:33:58Z</time>
      </trkpt>
      <trkpt lat="41.1547310" lon="-8.6479790">
        <ele>53.7</ele>
        <time>2021-05-15T18:33:59Z</time>
      </trkpt>
      <trkpt lat="41.1547380" lon="-8.6479730">
        <ele>53.7</ele>
        <time>2021-05-15T18:34:00Z</time>
      </trkpt>
      <trkpt lat="41.1547520" lon="-8.6479650">
        <ele>53.7</ele>
        <time>2021-05-15T18:34:01Z</time>
      </trkpt>
      <trkpt lat="41.1547630" lon="-8.6479570">
        <ele>53.7</ele>
        <time>2021-05-15T18:34:02Z</time>
      </trkpt>
      <trkpt lat="41.1547760" lon="-8.6479500">
        <ele>53.7</ele>
        <time>2021-05-15T18:34:03Z</time>
      </trkpt>
      <trkpt lat="41.1547940" lon="-8.6479420">
        <ele>53.8</ele>
        <time>2021-05-15T18:34:04Z</time>
      </trkpt>
      <trkpt lat="41.1548230" lon="-8.6479250">
        <ele>53.8</ele>
        <time>2021-05-15T18:34:05Z</time>
      </trkpt>
      <trkpt lat="41.1548280" lon="-8.6479180">
        <ele>53.8</ele>
        <time>2021-05-15T18:34:06Z</time>
      </trkpt>
      <trkpt lat="41.1548390" lon="-8.6479010">
        <ele>53.9</ele>
        <time>2021-05-15T18:34:07Z</time>
      </trkpt>
      <trkpt lat="41.1548520" lon="-8.6478990">
        <ele>53.9</ele>
        <time>2021-05-15T18:34:08Z</time>
      </trkpt>
      <trkpt lat="41.1548640" lon="-8.6478930">
        <ele>53.9</ele>
        <time>2021-05-15T18:34:09Z</time>
      </trkpt>
      <trkpt lat="41.1548810" lon="-8.6478950">
        <ele>54.0</ele>
        <time>2021-05-15T18:34:10Z</time>
      </trkpt>
      <trkpt lat="41.1548970" lon="-8.6479100">
        <ele>54.0</ele>
        <time>2021-05-15T18:34:11Z</time>
      </trkpt>
      <trkpt lat="41.1549090" lon="-8.6479190">
        <ele>54.1</ele>
        <time>2021-05-15T18:34:12Z</time>
      </trkpt>
      <trkpt lat="41.1549220" lon="-8.6479330">
        <ele>54.1</ele>
        <time>2021-05-15T18:34:13Z</time>
      </trkpt>
      <trkpt lat="41.1549370" lon="-8.6479410">
        <ele>54.1</ele>
        <time>2021-05-15T18:34:14Z</time>
      </trkpt>
      <trkpt lat="41.1549460" lon="-8.6479470">
        <ele>54.1</ele>
        <time>2021-05-15T18:34:15Z</time>
      </trkpt>
      <trkpt lat="41.1549540" lon="-8.6479500">
        <ele>54.1</ele>
        <time>2021-05-15T18:34:16Z</time>
      </trkpt>
      <trkpt lat="41.1549670" lon="-8.6479530">
        <ele>54.3</ele>
        <time>2021-05-15T18:34:17Z</time>
      </trkpt>
      <trkpt lat="41.1549840" lon="-8.6479620">
        <ele>54.4</ele>
        <time>2021-05-15T18:34:18Z</time>
      </trkpt>
      <trkpt lat="41.1550010" lon="-8.6479680">
        <ele>54.4</ele>
        <time>2021-05-15T18:34:19Z</time>
      </trkpt>
      <trkpt lat="41.1550310" lon="-8.6479780">
        <ele>54.5</ele>
        <time>2021-05-15T18:34:20Z</time>
      </trkpt>
      <trkpt lat="41.1550380" lon="-8.6479800">
        <ele>54.5</ele>
        <time>2021-05-15T18:34:21Z</time>
      </trkpt>
      <trkpt lat="41.1550610" lon="-8.6479810">
        <ele>54.6</ele>
        <time>2021-05-15T18:34:22Z</time>
      </trkpt>
      <trkpt lat="41.1550680" lon="-8.6479820">
        <ele>54.6</ele>
        <time>2021-05-15T18:34:23Z</time>
      </trkpt>
      <trkpt lat="41.1550750" lon="-8.6479830">
        <ele>54.6</ele>
        <time>2021-05-15T18:34:24Z</time>
      </trkpt>
      <trkpt lat="41.1551010" lon="-8.6479890">
        <ele>54.7</ele>
        <time>2021-05-15T18:34:25Z</time>
      </trkpt>
      <trkpt lat="41.1551130" lon="-8.6479930">
        <ele>54.7</ele>
        <time>2021-05-15T18:34:26Z</time>
      </trkpt>
      <trkpt lat="41.1551230" lon="-8.6480140">
        <ele>54.8</ele>
        <time>2021-05-15T18:34:27Z</time>
      </trkpt>
      <trkpt lat="41.1551310" lon="-8.6480210">
        <ele>54.8</ele>
        <time>2021-05-15T18:34:28Z</time>
      </trkpt>
      <trkpt lat="41.1551400" lon="-8.6480280">
        <ele>54.8</ele>
        <time>2021-05-15T18:34:29Z</time>
      </trkpt>
      <trkpt lat="41.1551660" lon="-8.6480360">
        <ele>54.9</ele>
        <time>2021-05-15T18:34:30Z</time>
      </trkpt>
      <trkpt lat="41.1551750" lon="-8.6480360">
        <ele>54.9</ele>
        <time>2021-05-15T18:34:31Z</time>
      </trkpt>
      <trkpt lat="41.1551840" lon="-8.6480350">
        <ele>55.0</ele>
        <time>2021-05-15T18:34:32Z</time>
      </trkpt>
      <trkpt lat="41.1552000" lon="-8.6480360">
        <ele>55.0</ele>
        <time>2021-05-15T18:34:33Z</time>
      </trkpt>
      <trkpt lat="41.1552170" lon="-8.6480320">
        <ele>55.0</ele>
        <time>2021-05-15T18:34:34Z</time>
      </trkpt>
      <trkpt lat="41.1552340" lon="-8.6480360">
        <ele>55.1</ele>
        <time>2021-05-15T18:34:35Z</time>
      </trkpt>
      <trkpt lat="41.1552460" lon="-8.6480380">
        <ele>55.1</ele>
        <time>2021-05-15T18:34:36Z</time>
      </trkpt>
      <trkpt lat="41.1552590" lon="-8.6480390">
        <ele>55.1</ele>
        <time>2021-05-15T18:34:37Z</time>
      </trkpt>
      <trkpt lat="41.1552820" lon="-8.6480410">
        <ele>55.2</ele>
        <time>2021-05-15T18:34:38Z</time>
      </trkpt>
      <trkpt lat="41.1552920" lon="-8.6480410">
        <ele>55.2</ele>
        <time>2021-05-15T18:34:39Z</time>
      </trkpt>
      <trkpt lat="41.1553030" lon="-8.6480410">
        <ele>55.2</ele>
        <time>2021-05-15T18:34:40Z</time>
      </trkpt>
      <trkpt lat="41.1553200" lon="-8.6480570">
        <ele>55.3</ele>
        <time>2021-05-15T18:34:41Z</time>
      </trkpt>
      <trkpt lat="41.1553260" lon="-8.6480640">
        <ele>55.3</ele>
        <time>2021-05-15T18:34:42Z</time>
      </trkpt>
      <trkpt lat="41.1553330" lon="-8.6480700">
        <ele>55.3</ele>
        <time>2021-05-15T18:34:43Z</time>
      </trkpt>
      <trkpt lat="41.1553380" lon="-8.6480840">
        <ele>55.3</ele>
        <time>2021-05-15T18:34:44Z</time>
      </trkpt>
      <trkpt lat="41.1553580" lon="-8.6481030">
        <ele>55.3</ele>
        <time>2021-05-15T18:34:45Z</time>
      </trkpt>
      <trkpt lat="41.1553730" lon="-8.6480950">
        <ele>55.4</ele>
        <time>2021-05-15T18:34:46Z</time>
      </trkpt>
      <trkpt lat="41.1553900" lon="-8.6480970">
        <ele>55.4</ele>
        <time>2021-05-15T18:34:47Z</time>
      </trkpt>
      <trkpt lat="41.1554080" lon="-8.6481020">
        <ele>55.4</ele>
        <time>2021-05-15T18:34:48Z</time>
      </trkpt>
      <trkpt lat="41.1554190" lon="-8.6481170">
        <ele>55.4</ele>
        <time>2021-05-15T18:34:49Z</time>
      </trkpt>
      <trkpt lat="41.1554430" lon="-8.6481450">
        <ele>55.5</ele>
        <time>2021-05-15T18:34:50Z</time>
      </trkpt>
      <trkpt lat="41.1554490" lon="-8.6481550">
        <ele>55.5</ele>
        <time>2021-05-15T18:34:51Z</time>
      </trkpt>
      <trkpt lat="41.1554730" lon="-8.6481790">
        <ele>55.5</ele>
        <time>2021-05-15T18:34:52Z</time>
      </trkpt>
      <trkpt lat="41.1554980" lon="-8.6481990">
        <ele>55.5</ele>
        <time>2021-05-15T18:34:53Z</time>
      </trkpt>
      <trkpt lat="41.1555060" lon="-8.6482100">
        <ele>55.5</ele>
        <time>2021-05-15T18:34:54Z</time>
      </trkpt>
      <trkpt lat="41.1555220" lon="-8.6482470">
        <ele>55.5</ele>
        <time>2021-05-15T18:34:55Z</time>
      </trkpt>
      <trkpt lat="41.1555250" lon="-8.6482610">
        <ele>55.5</ele>
        <time>2021-05-15T18:34:56Z</time>
      </trkpt>
      <trkpt lat="41.1555380" lon="-8.6482830">
        <ele>55.5</ele>
        <time>2021-05-15T18:34:57Z</time>
      </trkpt>
      <trkpt lat="41.1555530" lon="-8.6482920">
        <ele>55.5</ele>
        <time>2021-05-15T18:34:58Z</time>
      </trkpt>
      <trkpt lat="41.1555720" lon="-8.6483230">
        <ele>55.5</ele>
        <time>2021-05-15T18:34:59Z</time>
      </trkpt>
      <trkpt lat="41.1555810" lon="-8.6483380">
        <ele>55.5</ele>
        <time>2021-05-15T18:35:00Z</time>
      </trkpt>
      <trkpt lat="41.1555950" lon="-8.6483570">
        <ele>55.5</ele>
        <time>2021-05-15T18:35:01Z</time>
      </trkpt>
      <trkpt lat="41.1556020" lon="-8.6483710">
        <ele>55.5</ele>
        <time>2021-05-15T18:35:02Z</time>
      </trkpt>
      <trkpt lat="41.1556080" lon="-8.6483850">
        <ele>55.5</ele>
        <time>2021-05-15T18:35:03Z</time>
      </trkpt>
      <trkpt lat="41.1556290" lon="-8.6484270">
        <ele>55.5</ele>
        <time>2021-05-15T18:35:04Z</time>
      </trkpt>
      <trkpt lat="41.1556360" lon="-8.6484430">
        <ele>55.4</ele>
        <time>2021-05-15T18:35:05Z</time>
      </trkpt>
      <trkpt lat="41.1556670" lon="-8.6484660">
        <ele>55.4</ele>
        <time>2021-05-15T18:35:06Z</time>
      </trkpt>
      <trkpt lat="41.1556770" lon="-8.6484680">
        <ele>55.4</ele>
        <time>2021-05-15T18:35:07Z</time>
      </trkpt>
      <trkpt lat="41.1557020" lon="-8.6484790">
        <ele>55.3</ele>
        <time>2021-05-15T18:35:08Z</time>
      </trkpt>
      <trkpt lat="41.1557080" lon="-8.6484820">
        <ele>55.3</ele>
        <time>2021-05-15T18:35:09Z</time>
      </trkpt>
      <trkpt lat="41.1557150" lon="-8.6484860">
        <ele>55.3</ele>
        <time>2021-05-15T18:35:10Z</time>
      </trkpt>
      <trkpt lat="41.1557300" lon="-8.6484840">
        <ele>55.3</ele>
        <time>2021-05-15T18:35:11Z</time>
      </trkpt>
      <trkpt lat="41.1557330" lon="-8.6484990">
        <ele>55.3</ele>
        <time>2021-05-15T18:35:12Z</time>
      </trkpt>
      <trkpt lat="41.1557440" lon="-8.6485030">
        <ele>55.3</ele>
        <time>2021-05-15T18:35:13Z</time>
      </trkpt>
      <trkpt lat="41.1557750" lon="-8.6485050">
        <ele>55.2</ele>
        <time>2021-05-15T18:35:14Z</time>
      </trkpt>
      <trkpt lat="41.1557820" lon="-8.6485080">
        <ele>55.2</ele>
        <time>2021-05-15T18:35:15Z</time>
      </trkpt>
      <trkpt lat="41.1558020" lon="-8.6485140">
        <ele>55.2</ele>
        <time>2021-05-15T18:35:16Z</time>
      </trkpt>
      <trkpt lat="41.1558100" lon="-8.6485130">
        <ele>55.2</ele>
        <time>2021-05-15T18:35:17Z</time>
      </trkpt>
      <trkpt lat="41.1558190" lon="-8.6485120">
        <ele>55.1</ele>
        <time>2021-05-15T18:35:18Z</time>
      </trkpt>
      <trkpt lat="41.1558340" lon="-8.6485110">
        <ele>55.1</ele>
        <time>2021-05-15T18:35:19Z</time>
      </trkpt>
      <trkpt lat="41.1558410" lon="-8.6485110">
        <ele>55.1</ele>
        <time>2021-05-15T18:35:20Z</time>
      </trkpt>
      <trkpt lat="41.1558520" lon="-8.6485110">
        <ele>55.1</ele>
        <time>2021-05-15T18:35:21Z</time>
      </trkpt>
      <trkpt lat="41.1558660" lon="-8.6485110">
        <ele>55.0</ele>
        <time>2021-05-15T18:35:22Z</time>
      </trkpt>
      <trkpt lat="41.1558770" lon="-8.6485130">
        <ele>55.0</ele>
        <time>2021-05-15T18:35:23Z</time>
      </trkpt>
      <trkpt lat="41.1558830" lon="-8.6485240">
        <ele>55.0</ele>
        <time>2021-05-15T18:35:24Z</time>
      </trkpt>
      <trkpt lat="41.1558940" lon="-8.6485420">
        <ele>55.0</ele>
        <time>2021-05-15T18:35:25Z</time>
      </trkpt>
      <trkpt lat="41.1559030" lon="-8.6485510">
        <ele>55.0</ele>
        <time>2021-05-15T18:35:26Z</time>
      </trkpt>
      <trkpt lat="41.1559120" lon="-8.6485600">
        <ele>54.9</ele>
        <time>2021-05-15T18:35:27Z</time>
      </trkpt>
      <trkpt lat="41.1559320" lon="-8.6485670">
        <ele>54.9</ele>
        <time>2021-05-15T18:35:28Z</time>
      </trkpt>
      <trkpt lat="41.1559400" lon="-8.6485700">
        <ele>54.9</ele>
        <time>2021-05-15T18:35:29Z</time>
      </trkpt>
      <trkpt lat="41.1559490" lon="-8.6485730">
        <ele>54.9</ele>
        <time>2021-05-15T18:35:30Z</time>
      </trkpt>
      <trkpt lat="41.1559550" lon="-8.6485760">
        <ele>54.8</ele>
        <time>2021-05-15T18:35:31Z</time>
      </trkpt>
      <trkpt lat="41.1559570" lon="-8.6485850">
        <ele>54.8</ele>
        <time>2021-05-15T18:35:32Z</time>
      </trkpt>
      <trkpt lat="41.1559620" lon="-8.6486040">
        <ele>54.8</ele>
        <time>2021-05-15T18:35:33Z</time>
      </trkpt>
      <trkpt lat="41.1559540" lon="-8.6486140">
        <ele>54.8</ele>
        <time>2021-05-15T18:35:34Z</time>
      </trkpt>
      <trkpt lat="41.1559590" lon="-8.6486260">
        <ele>54.7</ele>
        <time>2021-05-15T18:35:35Z</time>
      </trkpt>
      <trkpt lat="41.1559700" lon="-8.6486320">
        <ele>54.7</ele>
        <time>2021-05-15T18:35:36Z</time>
      </trkpt>
      <trkpt lat="41.1559830" lon="-8.6486360">
        <ele>54.7</ele>
        <time>2021-05-15T18:35:37Z</time>
      </trkpt>
      <trkpt lat="41.1559910" lon="-8.6486320">
        <ele>54.6</ele>
        <time>2021-05-15T18:35:38Z</time>
      </trkpt>
      <trkpt lat="41.1560040" lon="-8.6486330">
        <ele>54.6</ele>
        <time>2021-05-15T18:35:39Z</time>
      </trkpt>
      <trkpt lat="41.1560110" lon="-8.6486270">
        <ele>54.6</ele>
        <time>2021-05-15T18:35:40Z</time>
      </trkpt>
      <trkpt lat="41.1560250" lon="-8.6486210">
        <ele>54.5</ele>
        <time>2021-05-15T18:35:41Z</time>
      </trkpt>
      <trkpt lat="41.1560370" lon="-8.6486110">
        <ele>54.5</ele>
        <time>2021-05-15T18:35:42Z</time>
      </trkpt>
      <trkpt lat="41.1560590" lon="-8.6485980">
        <ele>54.4</ele>
        <time>2021-05-15T18:35:43Z</time>
      </trkpt>
      <trkpt lat="41.1560670" lon="-8.6485880">
        <ele>54.3</ele>
        <time>2021-05-15T18:35:44Z</time>
      </trkpt>
      <trkpt lat="41.1560740" lon="-8.6485770">
        <ele>54.3</ele>
        <time>2021-05-15T18:35:45Z</time>
      </trkpt>
      <trkpt lat="41.1561010" lon="-8.6485660">
        <ele>54.1</ele>
        <time>2021-05-15T18:35:46Z</time>
      </trkpt>
      <trkpt lat="41.1561150" lon="-8.6485640">
        <ele>54.1</ele>
        <time>2021-05-15T18:35:47Z</time>
      </trkpt>
      <trkpt lat="41.1561440" lon="-8.6485530">
        <ele>53.9</ele>
        <time>2021-05-15T18:35:48Z</time>
      </trkpt>
      <trkpt lat="41.1561560" lon="-8.6485520">
        <ele>53.9</ele>
        <time>2021-05-15T18:35:49Z</time>
      </trkpt>
      <trkpt lat="41.1561730" lon="-8.6485450">
        <ele>53.8</ele>
        <time>2021-05-15T18:35:50Z</time>
      </trkpt>
      <trkpt lat="41.1561900" lon="-8.6485440">
        <ele>53.7</ele>
        <time>2021-05-15T18:35:51Z</time>
      </trkpt>
      <trkpt lat="41.1562140" lon="-8.6485370">
        <ele>53.5</ele>
        <time>2021-05-15T18:35:52Z</time>
      </trkpt>
      <trkpt lat="41.1562220" lon="-8.6485320">
        <ele>53.5</ele>
        <time>2021-05-15T18:35:53Z</time>
      </trkpt>
      <trkpt lat="41.1562290" lon="-8.6485260">
        <ele>53.5</ele>
        <time>2021-05-15T18:35:54Z</time>
      </trkpt>
      <trkpt lat="41.1562420" lon="-8.6485160">
        <ele>53.4</ele>
        <time>2021-05-15T18:35:55Z</time>
      </trkpt>
      <trkpt lat="41.1562460" lon="-8.6485120">
        <ele>53.3</ele>
        <time>2021-05-15T18:35:56Z</time>
      </trkpt>
      <trkpt lat="41.1562620" lon="-8.6485080">
        <ele>53.3</ele>
        <time>2021-05-15T18:35:57Z</time>
      </trkpt>
      <trkpt lat="41.1562680" lon="-8.6485000">
        <ele>53.2</ele>
        <time>2021-05-15T18:35:58Z</time>
      </trkpt>
      <trkpt lat="41.1562820" lon="-8.6484950">
        <ele>53.1</ele>
        <time>2021-05-15T18:35:59Z</time>
      </trkpt>
      <trkpt lat="41.1562970" lon="-8.6484970">
        <ele>53.1</ele>
        <time>2021-05-15T18:36:00Z</time>
      </trkpt>
      <trkpt lat="41.1563060" lon="-8.6485000">
        <ele>53.0</ele>
        <time>2021-05-15T18:36:01Z</time>
      </trkpt>
      <trkpt lat="41.1563130" lon="-8.6485070">
        <ele>53.0</ele>
        <time>2021-05-15T18:36:02Z</time>
      </trkpt>
      <trkpt lat="41.1563230" lon="-8.6485090">
        <ele>52.9</ele>
        <time>2021-05-15T18:36:03Z</time>
      </trkpt>
      <trkpt lat="41.1563400" lon="-8.6485160">
        <ele>52.8</ele>
        <time>2021-05-15T18:36:04Z</time>
      </trkpt>
      <trkpt lat="41.1563500" lon="-8.6485180">
        <ele>52.8</ele>
        <time>2021-05-15T18:36:05Z</time>
      </trkpt>
      <trkpt lat="41.1563740" lon="-8.6485220">
        <ele>52.6</ele>
        <time>2021-05-15T18:36:06Z</time>
      </trkpt>
      <trkpt lat="41.1563830" lon="-8.6485220">
        <ele>52.6</ele>
        <time>2021-05-15T18:36:07Z</time>
      </trkpt>
      <trkpt lat="41.1563910" lon="-8.6485210">
        <ele>52.6</ele>
        <time>2021-05-15T18:36:08Z</time>
      </trkpt>
      <trkpt lat="41.1564080" lon="-8.6485050">
        <ele>52.4</ele>
        <time>2021-05-15T18:36:09Z</time>
      </trkpt>
      <trkpt lat="41.1564150" lon="-8.6484990">
        <ele>52.4</ele>
        <time>2021-05-15T18:36:10Z</time>
      </trkpt>
      <trkpt lat="41.1564210" lon="-8.6484920">
        <ele>52.4</ele>
        <time>2021-05-15T18:36:11Z</time>
      </trkpt>
      <trkpt lat="41.1564410" lon="-8.6484850">
        <ele>52.3</ele>
        <time>2021-05-15T18:36:12Z</time>
      </trkpt>
      <trkpt lat="41.1564550" lon="-8.6484860">
        <ele>52.2</ele>
        <time>2021-05-15T18:36:13Z</time>
      </trkpt>
      <trkpt lat="41.1564640" lon="-8.6484760">
        <ele>52.1</ele>
        <time>2021-05-15T18:36:14Z</time>
      </trkpt>
      <trkpt lat="41.1564820" lon="-8.6484710">
        <ele>52.1</ele>
        <time>2021-05-15T18:36:15Z</time>
      </trkpt>
      <trkpt lat="41.1564990" lon="-8.6484390">
        <ele>51.9</ele>
        <time>2021-05-15T18:36:16Z</time>
      </trkpt>
      <trkpt lat="41.1565030" lon="-8.6484280">
        <ele>51.9</ele>
        <time>2021-05-15T18:36:17Z</time>
      </trkpt>
      <trkpt lat="41.1565200" lon="-8.6484310">
        <ele>51.8</ele>
        <time>2021-05-15T18:36:18Z</time>
      </trkpt>
      <trkpt lat="41.1565360" lon="-8.6484330">
        <ele>51.7</ele>
        <time>2021-05-15T18:36:19Z</time>
      </trkpt>
      <trkpt lat="41.1565520" lon="-8.6484220">
        <ele>51.6</ele>
        <time>2021-05-15T18:36:20Z</time>
      </trkpt>
      <trkpt lat="41.1565670" lon="-8.6484130">
        <ele>51.6</ele>
        <time>2021-05-15T18:36:21Z</time>
      </trkpt>
      <trkpt lat="41.1566020" lon="-8.6484050">
        <ele>51.4</ele>
        <time>2021-05-15T18:36:22Z</time>
      </trkpt>
      <trkpt lat="41.1566090" lon="-8.6484040">
        <ele>51.4</ele>
        <time>2021-05-15T18:36:23Z</time>
      </trkpt>
      <trkpt lat="41.1566330" lon="-8.6484070">
        <ele>51.3</ele>
        <time>2021-05-15T18:36:24Z</time>
      </trkpt>
      <trkpt lat="41.1566530" lon="-8.6483990">
        <ele>51.2</ele>
        <time>2021-05-15T18:36:25Z</time>
      </trkpt>
      <trkpt lat="41.1566670" lon="-8.6484110">
        <ele>51.2</ele>
        <time>2021-05-15T18:36:26Z</time>
      </trkpt>
      <trkpt lat="41.1566800" lon="-8.6484260">
        <ele>51.1</ele>
        <time>2021-05-15T18:36:27Z</time>
      </trkpt>
      <trkpt lat="41.1566940" lon="-8.6484190">
        <ele>51.1</ele>
        <time>2021-05-15T18:36:28Z</time>
      </trkpt>
      <trkpt lat="41.1567150" lon="-8.6484300">
        <ele>51.0</ele>
        <time>2021-05-15T18:36:29Z</time>
      </trkpt>
      <trkpt lat="41.1567240" lon="-8.6484360">
        <ele>51.0</ele>
        <time>2021-05-15T18:36:30Z</time>
      </trkpt>
      <trkpt lat="41.1567330" lon="-8.6484410">
        <ele>51.0</ele>
        <time>2021-05-15T18:36:31Z</time>
      </trkpt>
      <trkpt lat="41.1567580" lon="-8.6484660">
        <ele>50.9</ele>
        <time>2021-05-15T18:36:32Z</time>
      </trkpt>
      <trkpt lat="41.1567810" lon="-8.6484720">
        <ele>50.8</ele>
        <time>2021-05-15T18:36:33Z</time>
      </trkpt>
      <trkpt lat="41.1567910" lon="-8.6484750">
        <ele>50.8</ele>
        <time>2021-05-15T18:36:34Z</time>
      </trkpt>
      <trkpt lat="41.1568000" lon="-8.6484770">
        <ele>50.8</ele>
        <time>2021-05-15T18:36:35Z</time>
      </trkpt>
      <trkpt lat="41.1568260" lon="-8.6484920">
        <ele>50.7</ele>
        <time>2021-05-15T18:36:36Z</time>
      </trkpt>
      <trkpt lat="41.1568340" lon="-8.6484990">
        <ele>50.7</ele>
        <time>2021-05-15T18:36:37Z</time>
      </trkpt>
      <trkpt lat="41.1568430" lon="-8.6485080">
        <ele>50.7</ele>
        <time>2021-05-15T18:36:38Z</time>
      </trkpt>
      <trkpt lat="41.1568590" lon="-8.6485150">
        <ele>50.7</ele>
        <time>2021-05-15T18:36:39Z</time>
      </trkpt>
      <trkpt lat="41.1568960" lon="-8.6485280">
        <ele>50.6</ele>
        <time>2021-05-15T18:36:40Z</time>
      </trkpt>
      <trkpt lat="41.1569120" lon="-8.6485380">
        <ele>50.6</ele>
        <time>2021-05-15T18:36:41Z</time>
      </trkpt>
      <trkpt lat="41.1569340" lon="-8.6485740">
        <ele>50.6</ele>
        <time>2021-05-15T18:36:42Z</time>
      </trkpt>
      <trkpt lat="41.1569410" lon="-8.6485830">
        <ele>50.6</ele>
        <time>2021-05-15T18:36:43Z</time>
      </trkpt>
      <trkpt lat="41.1569630" lon="-8.6486080">
        <ele>50.6</ele>
        <time>2021-05-15T18:36:44Z</time>
      </trkpt>
      <trkpt lat="41.1569760" lon="-8.6486190">
        <ele>50.6</ele>
        <time>2021-05-15T18:36:45Z</time>
      </trkpt>
      <trkpt lat="41.1570100" lon="-8.6486480">
        <ele>50.6</ele>
        <time>2021-05-15T18:36:46Z</time>
      </trkpt>
      <trkpt lat="41.1570230" lon="-8.6486650">
        <ele>50.6</ele>
        <time>2021-05-15T18:36:47Z</time>
      </trkpt>
      <trkpt lat="41.1570320" lon="-8.6486810">
        <ele>50.6</ele>
        <time>2021-05-15T18:36:48Z</time>
      </trkpt>
      <trkpt lat="41.1570540" lon="-8.6486880">
        <ele>50.6</ele>
        <time>2021-05-15T18:36:49Z</time>
      </trkpt>
      <trkpt lat="41.1570610" lon="-8.6487040">
        <ele>50.6</ele>
        <time>2021-05-15T18:36:50Z</time>
      </trkpt>
      <trkpt lat="41.1570710" lon="-8.6487140">
        <ele>50.6</ele>
        <time>2021-05-15T18:36:51Z</time>
      </trkpt>
      <trkpt lat="41.1570840" lon="-8.6487290">
        <ele>50.6</ele>
        <time>2021-05-15T18:36:52Z</time>
      </trkpt>
      <trkpt lat="41.1571060" lon="-8.6487560">
        <ele>50.6</ele>
        <time>2021-05-15T18:36:53Z</time>
      </trkpt>
      <trkpt lat="41.1571120" lon="-8.6487620">
        <ele>50.6</ele>
        <time>2021-05-15T18:36:54Z</time>
      </trkpt>
      <trkpt lat="41.1571340" lon="-8.6487880">
        <ele>50.6</ele>
        <time>2021-05-15T18:36:55Z</time>
      </trkpt>
      <trkpt lat="41.1571400" lon="-8.6487960">
        <ele>50.6</ele>
        <time>2021-05-15T18:36:56Z</time>
      </trkpt>
      <trkpt lat="41.1571470" lon="-8.6488040">
        <ele>50.6</ele>
        <time>2021-05-15T18:36:57Z</time>
      </trkpt>
      <trkpt lat="41.1571670" lon="-8.6488220">
        <ele>50.6</ele>
        <time>2021-05-15T18:36:58Z</time>
      </trkpt>
      <trkpt lat="41.1571770" lon="-8.6488330">
        <ele>50.6</ele>
        <time>2021-05-15T18:36:59Z</time>
      </trkpt>
      <trkpt lat="41.1572030" lon="-8.6488510">
        <ele>50.7</ele>
        <time>2021-05-15T18:37:00Z</time>
      </trkpt>
      <trkpt lat="41.1572130" lon="-8.6488580">
        <ele>50.7</ele>
        <time>2021-05-15T18:37:01Z</time>
      </trkpt>
      <trkpt lat="41.1572330" lon="-8.6488720">
        <ele>50.7</ele>
        <time>2021-05-15T18:37:02Z</time>
      </trkpt>
      <trkpt lat="41.1572390" lon="-8.6488810">
        <ele>50.7</ele>
        <time>2021-05-15T18:37:03Z</time>
      </trkpt>
      <trkpt lat="41.1572670" lon="-8.6489010">
        <ele>50.7</ele>
        <time>2021-05-15T18:37:04Z</time>
      </trkpt>
      <trkpt lat="41.1572730" lon="-8.6489090">
        <ele>50.7</ele>
        <time>2021-05-15T18:37:05Z</time>
      </trkpt>
      <trkpt lat="41.1572800" lon="-8.6489180">
        <ele>50.7</ele>
        <time>2021-05-15T18:37:06Z</time>
      </trkpt>
      <trkpt lat="41.1573050" lon="-8.6489320">
        <ele>50.7</ele>
        <time>2021-05-15T18:37:07Z</time>
      </trkpt>
      <trkpt lat="41.1573160" lon="-8.6489370">
        <ele>50.7</ele>
        <time>2021-05-15T18:37:08Z</time>
      </trkpt>
      <trkpt lat="41.1573260" lon="-8.6489440">
        <ele>50.7</ele>
        <time>2021-05-15T18:37:09Z</time>
      </trkpt>
      <trkpt lat="41.1573290" lon="-8.6489560">
        <ele>50.7</ele>
        <time>2021-05-15T18:37:10Z</time>
      </trkpt>
      <trkpt lat="41.1573330" lon="-8.6489730">
        <ele>50.8</ele>
        <time>2021-05-15T18:37:11Z</time>
      </trkpt>
      <trkpt lat="41.1573460" lon="-8.6489780">
        <ele>50.8</ele>
        <time>2021-05-15T18:37:12Z</time>
      </trkpt>
      <trkpt lat="41.1573590" lon="-8.6489800">
        <ele>50.8</ele>
        <time>2021-05-15T18:37:13Z</time>
      </trkpt>
      <trkpt lat="41.1573640" lon="-8.6489850">
        <ele>50.8</ele>
        <time>2021-05-15T18:37:14Z</time>
      </trkpt>
      <trkpt lat="41.1573690" lon="-8.6489940">
        <ele>50.8</ele>
        <time>2021-05-15T18:37:15Z</time>
      </trkpt>
      <trkpt lat="41.1573930" lon="-8.6490090">
        <ele>50.8</ele>
        <time>2021-05-15T18:37:16Z</time>
      </trkpt>
      <trkpt lat="41.1574150" lon="-8.6490250">
        <ele>50.8</ele>
        <time>2021-05-15T18:37:17Z</time>
      </trkpt>
      <trkpt lat="41.1574270" lon="-8.6490330">
        <ele>50.8</ele>
        <time>2021-05-15T18:37:18Z</time>
      </trkpt>
      <trkpt lat="41.1574410" lon="-8.6490400">
        <ele>50.8</ele>
        <time>2021-05-15T18:37:19Z</time>
      </trkpt>
      <trkpt lat="41.1574610" lon="-8.6490500">
        <ele>50.9</ele>
        <time>2021-05-15T18:37:20Z</time>
      </trkpt>
      <trkpt lat="41.1574710" lon="-8.6490590">
        <ele>50.9</ele>
        <time>2021-05-15T18:37:21Z</time>
      </trkpt>
      <trkpt lat="41.1574740" lon="-8.6490600">
        <ele>50.9</ele>
        <time>2021-05-15T18:37:22Z</time>
      </trkpt>
      <trkpt lat="41.1574800" lon="-8.6490680">
        <ele>50.9</ele>
        <time>2021-05-15T18:37:23Z</time>
      </trkpt>
      <trkpt lat="41.1574860" lon="-8.6490760">
        <ele>50.9</ele>
        <time>2021-05-15T18:37:24Z</time>
      </trkpt>
      <trkpt lat="41.1575000" lon="-8.6490900">
        <ele>50.9</ele>
        <time>2021-05-15T18:37:25Z</time>
      </trkpt>
      <trkpt lat="41.1575070" lon="-8.6490980">
        <ele>50.9</ele>
        <time>2021-05-15T18:37:26Z</time>
      </trkpt>
      <trkpt lat="41.1575140" lon="-8.6491070">
        <ele>51.0</ele>
        <time>2021-05-15T18:37:27Z</time>
      </trkpt>
      <trkpt lat="41.1575160" lon="-8.6491170">
        <ele>51.0</ele>
        <time>2021-05-15T18:37:28Z</time>
      </trkpt>
      <trkpt lat="41.1575180" lon="-8.6491340">
        <ele>51.0</ele>
        <time>2021-05-15T18:37:29Z</time>
      </trkpt>
      <trkpt lat="41.1575260" lon="-8.6491450">
        <ele>51.0</ele>
        <time>2021-05-15T18:37:30Z</time>
      </trkpt>
      <trkpt lat="41.1575310" lon="-8.6491580">
        <ele>51.0</ele>
        <time>2021-05-15T18:37:31Z</time>
      </trkpt>
      <trkpt lat="41.1575420" lon="-8.6491660">
        <ele>51.0</ele>
        <time>2021-05-15T18:37:32Z</time>
      </trkpt>
      <trkpt lat="41.1575470" lon="-8.6491720">
        <ele>51.1</ele>
        <time>2021-05-15T18:37:33Z</time>
      </trkpt>
      <trkpt lat="41.1575650" lon="-8.6491940">
        <ele>51.1</ele>
        <time>2021-05-15T18:37:34Z</time>
      </trkpt>
      <trkpt lat="41.1575720" lon="-8.6492010">
        <ele>51.1</ele>
        <time>2021-05-15T18:37:35Z</time>
      </trkpt>
      <trkpt lat="41.1575830" lon="-8.6492180">
        <ele>51.1</ele>
        <time>2021-05-15T18:37:36Z</time>
      </trkpt>
      <trkpt lat="41.1575900" lon="-8.6492280">
        <ele>51.1</ele>
        <time>2021-05-15T18:37:37Z</time>
      </trkpt>
      <trkpt lat="41.1576090" lon="-8.6492380">
        <ele>51.1</ele>
        <time>2021-05-15T18:37:38Z</time>
      </trkpt>
      <trkpt lat="41.1576190" lon="-8.6492370">
        <ele>51.1</ele>
        <time>2021-05-15T18:37:39Z</time>
      </trkpt>
      <trkpt lat="41.1576320" lon="-8.6492420">
        <ele>51.2</ele>
        <time>2021-05-15T18:37:40Z</time>
      </trkpt>
      <trkpt lat="41.1576530" lon="-8.6492480">
        <ele>51.2</ele>
        <time>2021-05-15T18:37:41Z</time>
      </trkpt>
      <trkpt lat="41.1576640" lon="-8.6492380">
        <ele>51.2</ele>
        <time>2021-05-15T18:37:42Z</time>
      </trkpt>
      <trkpt lat="41.1576820" lon="-8.6492370">
        <ele>51.2</ele>
        <time>2021-05-15T18:37:43Z</time>
      </trkpt>
      <trkpt lat="41.1576950" lon="-8.6492410">
        <ele>51.2</ele>
        <time>2021-05-15T18:37:44Z</time>
      </trkpt>
      <trkpt lat="41.1576970" lon="-8.6492520">
        <ele>51.2</ele>
        <time>2021-05-15T18:37:45Z</time>
      </trkpt>
      <trkpt lat="41.1577050" lon="-8.6492560">
        <ele>51.2</ele>
        <time>2021-05-15T18:37:46Z</time>
      </trkpt>
      <trkpt lat="41.1577260" lon="-8.6492660">
        <ele>51.2</ele>
        <time>2021-05-15T18:37:47Z</time>
      </trkpt>
      <trkpt lat="41.1577380" lon="-8.6492740">
        <ele>51.3</ele>
        <time>2021-05-15T18:37:48Z</time>
      </trkpt>
      <trkpt lat="41.1577500" lon="-8.6492830">
        <ele>51.3</ele>
        <time>2021-05-15T18:37:49Z</time>
      </trkpt>
      <trkpt lat="41.1577660" lon="-8.6492890">
        <ele>51.3</ele>
        <time>2021-05-15T18:37:50Z</time>
      </trkpt>
      <trkpt lat="41.1577810" lon="-8.6493060">
        <ele>51.3</ele>
        <time>2021-05-15T18:37:51Z</time>
      </trkpt>
      <trkpt lat="41.1577970" lon="-8.6493170">
        <ele>51.3</ele>
        <time>2021-05-15T18:37:52Z</time>
      </trkpt>
      <trkpt lat="41.1578110" lon="-8.6493300">
        <ele>51.4</ele>
        <time>2021-05-15T18:37:53Z</time>
      </trkpt>
      <trkpt lat="41.1578290" lon="-8.6493330">
        <ele>51.4</ele>
        <time>2021-05-15T18:37:54Z</time>
      </trkpt>
      <trkpt lat="41.1578460" lon="-8.6493370">
        <ele>51.4</ele>
        <time>2021-05-15T18:37:55Z</time>
      </trkpt>
      <trkpt lat="41.1578650" lon="-8.6493690">
        <ele>51.4</ele>
        <time>2021-05-15T18:37:56Z</time>
      </trkpt>
      <trkpt lat="41.1578730" lon="-8.6493740">
        <ele>51.5</ele>
        <time>2021-05-15T18:37:57Z</time>
      </trkpt>
      <trkpt lat="41.1578900" lon="-8.6493820">
        <ele>51.5</ele>
        <time>2021-05-15T18:37:58Z</time>
      </trkpt>
      <trkpt lat="41.1579010" lon="-8.6493930">
        <ele>51.5</ele>
        <time>2021-05-15T18:37:59Z</time>
      </trkpt>
      <trkpt lat="41.1579160" lon="-8.6493940">
        <ele>51.5</ele>
        <time>2021-05-15T18:38:00Z</time>
      </trkpt>
      <trkpt lat="41.1579250" lon="-8.6493930">
        <ele>51.5</ele>
        <time>2021-05-15T18:38:01Z</time>
      </trkpt>
      <trkpt lat="41.1579350" lon="-8.6494100">
        <ele>51.5</ele>
        <time>2021-05-15T18:38:02Z</time>
      </trkpt>
      <trkpt lat="41.1579410" lon="-8.6494310">
        <ele>51.6</ele>
        <time>2021-05-15T18:38:03Z</time>
      </trkpt>
      <trkpt lat="41.1579550" lon="-8.6494410">
        <ele>51.6</ele>
        <time>2021-05-15T18:38:04Z</time>
      </trkpt>
      <trkpt lat="41.1579740" lon="-8.6494600">
        <ele>51.6</ele>
        <time>2021-05-15T18:38:05Z</time>
      </trkpt>
      <trkpt lat="41.1579820" lon="-8.6494690">
        <ele>51.6</ele>
        <time>2021-05-15T18:38:06Z</time>
      </trkpt>
      <trkpt lat="41.1579890" lon="-8.6494780">
        <ele>51.6</ele>
        <time>2021-05-15T18:38:07Z</time>
      </trkpt>
      <trkpt lat="41.1579930" lon="-8.6494920">
        <ele>51.6</ele>
        <time>2021-05-15T18:38:08Z</time>
      </trkpt>
      <trkpt lat="41.1580010" lon="-8.6494990">
        <ele>51.6</ele>
        <time>2021-05-15T18:38:09Z</time>
      </trkpt>
      <trkpt lat="41.1580120" lon="-8.6495100">
        <ele>51.7</ele>
        <time>2021-05-15T18:38:10Z</time>
      </trkpt>
      <trkpt lat="41.1580210" lon="-8.6495240">
        <ele>51.7</ele>
        <time>2021-05-15T18:38:11Z</time>
      </trkpt>
      <trkpt lat="41.1580300" lon="-8.6495280">
        <ele>51.7</ele>
        <time>2021-05-15T18:38:12Z</time>
      </trkpt>
      <trkpt lat="41.1580390" lon="-8.6495380">
        <ele>51.7</ele>
        <time>2021-05-15T18:38:13Z</time>
      </trkpt>
      <trkpt lat="41.1580550" lon="-8.6495580">
        <ele>51.7</ele>
        <time>2021-05-15T18:38:14Z</time>
      </trkpt>
      <trkpt lat="41.1580700" lon="-8.6495580">
        <ele>51.7</ele>
        <time>2021-05-15T18:38:15Z</time>
      </trkpt>
      <trkpt lat="41.1580880" lon="-8.6495610">
        <ele>51.7</ele>
        <time>2021-05-15T18:38:16Z</time>
      </trkpt>
      <trkpt lat="41.1581030" lon="-8.6495670">
        <ele>51.8</ele>
        <time>2021-05-15T18:38:17Z</time>
      </trkpt>
      <trkpt lat="41.1581190" lon="-8.6495730">
        <ele>51.8</ele>
        <time>2021-05-15T18:38:18Z</time>
      </trkpt>
      <trkpt lat="41.1581350" lon="-8.6495900">
        <ele>51.8</ele>
        <time>2021-05-15T18:38:19Z</time>
      </trkpt>
      <trkpt lat="41.1581460" lon="-8.6495980">
        <ele>51.8</ele>
        <time>2021-05-15T18:38:20Z</time>
      </trkpt>
      <trkpt lat="41.1581590" lon="-8.6496150">
        <ele>51.8</ele>
        <time>2021-05-15T18:38:21Z</time>
      </trkpt>
      <trkpt lat="41.1581650" lon="-8.6496130">
        <ele>51.8</ele>
        <time>2021-05-15T18:38:22Z</time>
      </trkpt>
      <trkpt lat="41.1581750" lon="-8.6496220">
        <ele>51.8</ele>
        <time>2021-05-15T18:38:23Z</time>
      </trkpt>
      <trkpt lat="41.1581910" lon="-8.6496260">
        <ele>52.0</ele>
        <time>2021-05-15T18:38:24Z</time>
      </trkpt>
      <trkpt lat="41.1582120" lon="-8.6496300">
        <ele>52.0</ele>
        <time>2021-05-15T18:38:25Z</time>
      </trkpt>
      <trkpt lat="41.1582200" lon="-8.6496330">
        <ele>52.0</ele>
        <time>2021-05-15T18:38:26Z</time>
      </trkpt>
      <trkpt lat="41.1582280" lon="-8.6496370">
        <ele>52.0</ele>
        <time>2021-05-15T18:38:27Z</time>
      </trkpt>
      <trkpt lat="41.1582430" lon="-8.6496430">
        <ele>52.0</ele>
        <time>2021-05-15T18:38:28Z</time>
      </trkpt>
      <trkpt lat="41.1582580" lon="-8.6496440">
        <ele>52.0</ele>
        <time>2021-05-15T18:38:29Z</time>
      </trkpt>
      <trkpt lat="41.1582740" lon="-8.6496580">
        <ele>52.1</ele>
        <time>2021-05-15T18:38:30Z</time>
      </trkpt>
      <trkpt lat="41.1582850" lon="-8.6496630">
        <ele>52.1</ele>
        <time>2021-05-15T18:38:31Z</time>
      </trkpt>
      <trkpt lat="41.1582990" lon="-8.6496610">
        <ele>52.1</ele>
        <time>2021-05-15T18:38:32Z</time>
      </trkpt>
      <trkpt lat="41.1583170" lon="-8.6496580">
        <ele>52.1</ele>
        <time>2021-05-15T18:38:33Z</time>
      </trkpt>
      <trkpt lat="41.1583240" lon="-8.6496580">
        <ele>52.1</ele>
        <time>2021-05-15T18:38:34Z</time>
      </trkpt>
      <trkpt lat="41.1583360" lon="-8.6496630">
        <ele>52.1</ele>
        <time>2021-05-15T18:38:35Z</time>
      </trkpt>
      <trkpt lat="41.1583530" lon="-8.6496590">
        <ele>52.1</ele>
        <time>2021-05-15T18:38:36Z</time>
      </trkpt>
      <trkpt lat="41.1583660" lon="-8.6496660">
        <ele>52.1</ele>
        <time>2021-05-15T18:38:37Z</time>
      </trkpt>
      <trkpt lat="41.1583880" lon="-8.6496650">
        <ele>52.2</ele>
        <time>2021-05-15T18:38:38Z</time>
      </trkpt>
      <trkpt lat="41.1584040" lon="-8.6496650">
        <ele>52.3</ele>
        <time>2021-05-15T18:38:39Z</time>
      </trkpt>
      <trkpt lat="41.1584190" lon="-8.6496630">
        <ele>52.3</ele>
        <time>2021-05-15T18:38:40Z</time>
      </trkpt>
      <trkpt lat="41.1584430" lon="-8.6496640">
        <ele>52.3</ele>
        <time>2021-05-15T18:38:41Z</time>
      </trkpt>
      <trkpt lat="41.1584540" lon="-8.6496640">
        <ele>52.3</ele>
        <time>2021-05-15T18:38:42Z</time>
      </trkpt>
      <trkpt lat="41.1584730" lon="-8.6496670">
        <ele>52.4</ele>
        <time>2021-05-15T18:38:43Z</time>
      </trkpt>
      <trkpt lat="41.1584900" lon="-8.6496680">
        <ele>52.4</ele>
        <time>2021-05-15T18:38:44Z</time>
      </trkpt>
      <trkpt lat="41.1585040" lon="-8.6496640">
        <ele>52.4</ele>
        <time>2021-05-15T18:38:45Z</time>
      </trkpt>
      <trkpt lat="41.1585180" lon="-8.6496580">
        <ele>52.5</ele>
        <time>2021-05-15T18:38:46Z</time>
      </trkpt>
      <trkpt lat="41.1585440" lon="-8.6496620">
        <ele>52.5</ele>
        <time>2021-05-15T18:38:47Z</time>
      </trkpt>
      <trkpt lat="41.1585560" lon="-8.6496650">
        <ele>52.6</ele>
        <time>2021-05-15T18:38:48Z</time>
      </trkpt>
      <trkpt lat="41.1585680" lon="-8.6496690">
        <ele>52.6</ele>
        <time>2021-05-15T18:38:49Z</time>
      </trkpt>
      <trkpt lat="41.1585920" lon="-8.6496690">
        <ele>52.7</ele>
        <time>2021-05-15T18:38:50Z</time>
      </trkpt>
      <trkpt lat="41.1586000" lon="-8.6496640">
        <ele>52.7</ele>
        <time>2021-05-15T18:38:51Z</time>
      </trkpt>
      <trkpt lat="41.1586090" lon="-8.6496590">
        <ele>52.7</ele>
        <time>2021-05-15T18:38:52Z</time>
      </trkpt>
      <trkpt lat="41.1586220" lon="-8.6496590">
        <ele>52.8</ele>
        <time>2021-05-15T18:38:53Z</time>
      </trkpt>
      <trkpt lat="41.1586380" lon="-8.6496690">
        <ele>52.9</ele>
        <time>2021-05-15T18:38:54Z</time>
      </trkpt>
      <trkpt lat="41.1586660" lon="-8.6496670">
        <ele>53.0</ele>
        <time>2021-05-15T18:38:55Z</time>
      </trkpt>
      <trkpt lat="41.1586760" lon="-8.6496630">
        <ele>53.0</ele>
        <time>2021-05-15T18:38:56Z</time>
      </trkpt>
      <trkpt lat="41.1586880" lon="-8.6496690">
        <ele>53.1</ele>
        <time>2021-05-15T18:38:57Z</time>
      </trkpt>
      <trkpt lat="41.1587070" lon="-8.6496740">
        <ele>53.2</ele>
        <time>2021-05-15T18:38:58Z</time>
      </trkpt>
      <trkpt lat="41.1587260" lon="-8.6496710">
        <ele>53.3</ele>
        <time>2021-05-15T18:38:59Z</time>
      </trkpt>
      <trkpt lat="41.1587410" lon="-8.6496800">
        <ele>53.4</ele>
        <time>2021-05-15T18:39:00Z</time>
      </trkpt>
      <trkpt lat="41.1587660" lon="-8.6496810">
        <ele>53.5</ele>
        <time>2021-05-15T18:39:01Z</time>
      </trkpt>
      <trkpt lat="41.1587760" lon="-8.6496800">
        <ele>53.6</ele>
        <time>2021-05-15T18:39:02Z</time>
      </trkpt>
      <trkpt lat="41.1587860" lon="-8.6496780">
        <ele>53.6</ele>
        <time>2021-05-15T18:39:03Z</time>
      </trkpt>
      <trkpt lat="41.1588000" lon="-8.6496770">
        <ele>53.7</ele>
        <time>2021-05-15T18:39:04Z</time>
      </trkpt>
      <trkpt lat="41.1588140" lon="-8.6496780">
        <ele>53.8</ele>
        <time>2021-05-15T18:39:05Z</time>
      </trkpt>
      <trkpt lat="41.1588300" lon="-8.6496910">
        <ele>54.0</ele>
        <time>2021-05-15T18:39:06Z</time>
      </trkpt>
      <trkpt lat="41.1588400" lon="-8.6496950">
        <ele>54.0</ele>
        <time>2021-05-15T18:39:07Z</time>
      </trkpt>
      <trkpt lat="41.1588710" lon="-8.6497070">
        <ele>54.3</ele>
        <time>2021-05-15T18:39:08Z</time>
      </trkpt>
      <trkpt lat="41.1588810" lon="-8.6497110">
        <ele>54.3</ele>
        <time>2021-05-15T18:39:09Z</time>
      </trkpt>
      <trkpt lat="41.1588980" lon="-8.6497140">
        <ele>54.5</ele>
        <time>2021-05-15T18:39:10Z</time>
      </trkpt>
      <trkpt lat="41.1589100" lon="-8.6497140">
        <ele>54.6</ele>
        <time>2021-05-15T18:39:11Z</time>
      </trkpt>
      <trkpt lat="41.1589250" lon="-8.6497110">
        <ele>54.7</ele>
        <time>2021-05-15T18:39:12Z</time>
      </trkpt>
      <trkpt lat="41.1589410" lon="-8.6497120">
        <ele>54.8</ele>
        <time>2021-05-15T18:39:13Z</time>
      </trkpt>
      <trkpt lat="41.1589620" lon="-8.6497200">
        <ele>55.0</ele>
        <time>2021-05-15T18:39:14Z</time>
      </trkpt>
      <trkpt lat="41.1589710" lon="-8.6497200">
        <ele>55.1</ele>
        <time>2021-05-15T18:39:15Z</time>
      </trkpt>
      <trkpt lat="41.1589810" lon="-8.6497200">
        <ele>55.2</ele>
        <time>2021-05-15T18:39:16Z</time>
      </trkpt>
      <trkpt lat="41.1589900" lon="-8.6497170">
        <ele>55.3</ele>
        <time>2021-05-15T18:39:17Z</time>
      </trkpt>
      <trkpt lat="41.1590040" lon="-8.6497220">
        <ele>55.4</ele>
        <time>2021-05-15T18:39:18Z</time>
      </trkpt>
      <trkpt lat="41.1590170" lon="-8.6497210">
        <ele>55.5</ele>
        <time>2021-05-15T18:39:19Z</time>
      </trkpt>
      <trkpt lat="41.1590340" lon="-8.6497340">
        <ele>55.7</ele>
        <time>2021-05-15T18:39:20Z</time>
      </trkpt>
      <trkpt lat="41.1590470" lon="-8.6497360">
        <ele>55.8</ele>
        <time>2021-05-15T18:39:21Z</time>
      </trkpt>
      <trkpt lat="41.1590630" lon="-8.6497390">
        <ele>55.9</ele>
        <time>2021-05-15T18:39:22Z</time>
      </trkpt>
      <trkpt lat="41.1590760" lon="-8.6497410">
        <ele>56.1</ele>
        <time>2021-05-15T18:39:23Z</time>
      </trkpt>
      <trkpt lat="41.1590910" lon="-8.6497390">
        <ele>56.2</ele>
        <time>2021-05-15T18:39:24Z</time>
      </trkpt>
      <trkpt lat="41.1591040" lon="-8.6497350">
        <ele>56.3</ele>
        <time>2021-05-15T18:39:25Z</time>
      </trkpt>
      <trkpt lat="41.1591200" lon="-8.6497460">
        <ele>56.5</ele>
        <time>2021-05-15T18:39:26Z</time>
      </trkpt>
      <trkpt lat="41.1591320" lon="-8.6497460">
        <ele>56.6</ele>
        <time>2021-05-15T18:39:27Z</time>
      </trkpt>
      <trkpt lat="41.1591580" lon="-8.6497570">
        <ele>56.8</ele>
        <time>2021-05-15T18:39:28Z</time>
      </trkpt>
      <trkpt lat="41.1591640" lon="-8.6497600">
        <ele>56.9</ele>
        <time>2021-05-15T18:39:29Z</time>
      </trkpt>
      <trkpt lat="41.1591700" lon="-8.6497640">
        <ele>57.0</ele>
        <time>2021-05-15T18:39:30Z</time>
      </trkpt>
      <trkpt lat="41.1591920" lon="-8.6497630">
        <ele>57.2</ele>
        <time>2021-05-15T18:39:31Z</time>
      </trkpt>
      <trkpt lat="41.1591970" lon="-8.6497640">
        <ele>57.2</ele>
        <time>2021-05-15T18:39:32Z</time>
      </trkpt>
      <trkpt lat="41.1592090" lon="-8.6497680">
        <ele>57.3</ele>
        <time>2021-05-15T18:39:33Z</time>
      </trkpt>
      <trkpt lat="41.1592260" lon="-8.6497660">
        <ele>57.5</ele>
        <time>2021-05-15T18:39:34Z</time>
      </trkpt>
      <trkpt lat="41.1592530" lon="-8.6497790">
        <ele>57.7</ele>
        <time>2021-05-15T18:39:35Z</time>
      </trkpt>
      <trkpt lat="41.1592600" lon="-8.6497810">
        <ele>57.8</ele>
        <time>2021-05-15T18:39:36Z</time>
      </trkpt>
      <trkpt lat="41.1592670" lon="-8.6497840">
        <ele>57.8</ele>
        <time>2021-05-15T18:39:37Z</time>
      </trkpt>
      <trkpt lat="41.1592810" lon="-8.6497900">
        <ele>57.9</ele>
        <time>2021-05-15T18:39:38Z</time>
      </trkpt>
      <trkpt lat="41.1592940" lon="-8.6497970">
        <ele>58.1</ele>
        <time>2021-05-15T18:39:39Z</time>
      </trkpt>
      <trkpt lat="41.1593180" lon="-8.6497980">
        <ele>58.3</ele>
        <time>2021-05-15T18:39:40Z</time>
      </trkpt>
      <trkpt lat="41.1593240" lon="-8.6498040">
        <ele>58.3</ele>
        <time>2021-05-15T18:39:41Z</time>
      </trkpt>
      <trkpt lat="41.1593460" lon="-8.6498110">
        <ele>58.5</ele>
        <time>2021-05-15T18:39:42Z</time>
      </trkpt>
      <trkpt lat="41.1593570" lon="-8.6498120">
        <ele>58.6</ele>
        <time>2021-05-15T18:39:43Z</time>
      </trkpt>
      <trkpt lat="41.1593670" lon="-8.6498130">
        <ele>58.6</ele>
        <time>2021-05-15T18:39:44Z</time>
      </trkpt>
      <trkpt lat="41.1593930" lon="-8.6498290">
        <ele>58.8</ele>
        <time>2021-05-15T18:39:45Z</time>
      </trkpt>
      <trkpt lat="41.1594020" lon="-8.6498330">
        <ele>58.9</ele>
        <time>2021-05-15T18:39:46Z</time>
      </trkpt>
      <trkpt lat="41.1594150" lon="-8.6498580">
        <ele>59.0</ele>
        <time>2021-05-15T18:39:47Z</time>
      </trkpt>
      <trkpt lat="41.1594240" lon="-8.6498600">
        <ele>59.1</ele>
        <time>2021-05-15T18:39:48Z</time>
      </trkpt>
      <trkpt lat="41.1594340" lon="-8.6498620">
        <ele>59.1</ele>
        <time>2021-05-15T18:39:49Z</time>
      </trkpt>
      <trkpt lat="41.1594450" lon="-8.6498680">
        <ele>59.2</ele>
        <time>2021-05-15T18:39:50Z</time>
      </trkpt>
      <trkpt lat="41.1594600" lon="-8.6498800">
        <ele>59.2</ele>
        <time>2021-05-15T18:39:51Z</time>
      </trkpt>
      <trkpt lat="41.1594700" lon="-8.6498890">
        <ele>59.3</ele>
        <time>2021-05-15T18:39:52Z</time>
      </trkpt>
      <trkpt lat="41.1594910" lon="-8.6498990">
        <ele>59.4</ele>
        <time>2021-05-15T18:39:53Z</time>
      </trkpt>
      <trkpt lat="41.1595040" lon="-8.6498960">
        <ele>59.4</ele>
        <time>2021-05-15T18:39:54Z</time>
      </trkpt>
      <trkpt lat="41.1595130" lon="-8.6499020">
        <ele>59.5</ele>
        <time>2021-05-15T18:39:55Z</time>
      </trkpt>
      <trkpt lat="41.1595220" lon="-8.6499070">
        <ele>59.5</ele>
        <time>2021-05-15T18:39:56Z</time>
      </trkpt>
      <trkpt lat="41.1595310" lon="-8.6499130">
        <ele>59.5</ele>
        <time>2021-05-15T18:39:57Z</time>
      </trkpt>
      <trkpt lat="41.1595440" lon="-8.6499270">
        <ele>59.6</ele>
        <time>2021-05-15T18:39:58Z</time>
      </trkpt>
      <trkpt lat="41.1595560" lon="-8.6499310">
        <ele>59.6</ele>
        <time>2021-05-15T18:39:59Z</time>
      </trkpt>
      <trkpt lat="41.1595650" lon="-8.6499440">
        <ele>59.7</ele>
        <time>2021-05-15T18:40:00Z</time>
      </trkpt>
      <trkpt lat="41.1595820" lon="-8.6499570">
        <ele>59.7</ele>
        <time>2021-05-15T18:40:01Z</time>
      </trkpt>
      <trkpt lat="41.1596030" lon="-8.6499800">
        <ele>59.8</ele>
        <time>2021-05-15T18:40:02Z</time>
      </trkpt>
      <trkpt lat="41.1596110" lon="-8.6499860">
        <ele>59.8</ele>
        <time>2021-05-15T18:40:03Z</time>
      </trkpt>
      <trkpt lat="41.1596180" lon="-8.6499930">
        <ele>59.8</ele>
        <time>2021-05-15T18:40:04Z</time>
      </trkpt>
      <trkpt lat="41.1596290" lon="-8.6499990">
        <ele>59.8</ele>
        <time>2021-05-15T18:40:05Z</time>
      </trkpt>
      <trkpt lat="41.1596370" lon="-8.6500070">
        <ele>59.8</ele>
        <time>2021-05-15T18:40:06Z</time>
      </trkpt>
      <trkpt lat="41.1596490" lon="-8.6500130">
        <ele>59.8</ele>
        <time>2021-05-15T18:40:07Z</time>
      </trkpt>
      <trkpt lat="41.1596790" lon="-8.6500280">
        <ele>59.9</ele>
        <time>2021-05-15T18:40:08Z</time>
      </trkpt>
      <trkpt lat="41.1596870" lon="-8.6500290">
        <ele>59.9</ele>
        <time>2021-05-15T18:40:09Z</time>
      </trkpt>
      <trkpt lat="41.1596980" lon="-8.6500410">
        <ele>59.9</ele>
        <time>2021-05-15T18:40:10Z</time>
      </trkpt>
      <trkpt lat="41.1597140" lon="-8.6500390">
        <ele>59.9</ele>
        <time>2021-05-15T18:40:11Z</time>
      </trkpt>
      <trkpt lat="41.1597240" lon="-8.6500490">
        <ele>59.9</ele>
        <time>2021-05-15T18:40:12Z</time>
      </trkpt>
      <trkpt lat="41.1597450" lon="-8.6500590">
        <ele>59.9</ele>
        <time>2021-05-15T18:40:13Z</time>
      </trkpt>
      <trkpt lat="41.1597530" lon="-8.6500690">
        <ele>59.9</ele>
        <time>2021-05-15T18:40:14Z</time>
      </trkpt>
      <trkpt lat="41.1597580" lon="-8.6500740">
        <ele>59.9</ele>
        <time>2021-05-15T18:40:15Z</time>
      </trkpt>
      <trkpt lat="41.1597700" lon="-8.6500820">
        <ele>59.9</ele>
        <time>2021-05-15T18:40:16Z</time>
      </trkpt>
      <trkpt lat="41.1597910" lon="-8.6501040">
        <ele>59.9</ele>
        <time>2021-05-15T18:40:17Z</time>
      </trkpt>
      <trkpt lat="41.1597990" lon="-8.6501170">
        <ele>59.9</ele>
        <time>2021-05-15T18:40:18Z</time>
      </trkpt>
      <trkpt lat="41.1598210" lon="-8.6501470">
        <ele>59.9</ele>
        <time>2021-05-15T18:40:19Z</time>
      </trkpt>
      <trkpt lat="41.1598260" lon="-8.6501590">
        <ele>59.9</ele>
        <time>2021-05-15T18:40:20Z</time>
      </trkpt>
      <trkpt lat="41.1598360" lon="-8.6501780">
        <ele>59.9</ele>
        <time>2021-05-15T18:40:21Z</time>
      </trkpt>
      <trkpt lat="41.1598520" lon="-8.6501910">
        <ele>59.9</ele>
        <time>2021-05-15T18:40:22Z</time>
      </trkpt>
      <trkpt lat="41.1598610" lon="-8.6502020">
        <ele>59.9</ele>
        <time>2021-05-15T18:40:23Z</time>
      </trkpt>
      <trkpt lat="41.1598740" lon="-8.6502100">
        <ele>59.9</ele>
        <time>2021-05-15T18:40:24Z</time>
      </trkpt>
      <trkpt lat="41.1598880" lon="-8.6502120">
        <ele>59.9</ele>
        <time>2021-05-15T18:40:25Z</time>
      </trkpt>
      <trkpt lat="41.1599050" lon="-8.6502150">
        <ele>59.9</ele>
        <time>2021-05-15T18:40:26Z</time>
      </trkpt>
      <trkpt lat="41.1599330" lon="-8.6502380">
        <ele>60.0</ele>
        <time>2021-05-15T18:40:27Z</time>
      </trkpt>
      <trkpt lat="41.1599390" lon="-8.6502440">
        <ele>60.0</ele>
        <time>2021-05-15T18:40:28Z</time>
      </trkpt>
      <trkpt lat="41.1599530" lon="-8.6502540">
        <ele>60.0</ele>
        <time>2021-05-15T18:40:29Z</time>
      </trkpt>
      <trkpt lat="41.1599620" lon="-8.6502630">
        <ele>60.0</ele>
        <time>2021-05-15T18:40:30Z</time>
      </trkpt>
      <trkpt lat="41.1599800" lon="-8.6502670">
        <ele>60.0</ele>
        <time>2021-05-15T18:40:31Z</time>
      </trkpt>
      <trkpt lat="41.1599900" lon="-8.6502720">
        <ele>60.0</ele>
        <time>2021-05-15T18:40:32Z</time>
      </trkpt>
      <trkpt lat="41.1600000" lon="-8.6502760">
        <ele>60.0</ele>
        <time>2021-05-15T18:40:33Z</time>
      </trkpt>
      <trkpt lat="41.1600100" lon="-8.6502810">
        <ele>60.0</ele>
        <time>2021-05-15T18:40:34Z</time>
      </trkpt>
      <trkpt lat="41.1600250" lon="-8.6502920">
        <ele>60.0</ele>
        <time>2021-05-15T18:40:35Z</time>
      </trkpt>
      <trkpt lat="41.1600360" lon="-8.6503000">
        <ele>60.0</ele>
        <time>2021-05-15T18:40:36Z</time>
      </trkpt>
      <trkpt lat="41.1600550" lon="-8.6503120">
        <ele>60.0</ele>
        <time>2021-05-15T18:40:37Z</time>
      </trkpt>
      <trkpt lat="41.1600650" lon="-8.6503210">
        <ele>60.0</ele>
        <time>2021-05-15T18:40:38Z</time>
      </trkpt>
      <trkpt lat="41.1600790" lon="-8.6503230">
        <ele>60.0</ele>
        <time>2021-05-15T18:40:39Z</time>
      </trkpt>
      <trkpt lat="41.1600830" lon="-8.6503230">
        <ele>60.0</ele>
        <time>2021-05-15T18:40:40Z</time>
      </trkpt>
      <trkpt lat="41.1600960" lon="-8.6503190">
        <ele>60.0</ele>
        <time>2021-05-15T18:40:41Z</time>
      </trkpt>
      <trkpt lat="41.1601050" lon="-8.6503210">
        <ele>60.0</ele>
        <time>2021-05-15T18:40:42Z</time>
      </trkpt>
      <trkpt lat="41.1601230" lon="-8.6503300">
        <ele>60.0</ele>
        <time>2021-05-15T18:40:43Z</time>
      </trkpt>
      <trkpt lat="41.1601290" lon="-8.6503320">
        <ele>60.0</ele>
        <time>2021-05-15T18:40:44Z</time>
      </trkpt>
      <trkpt lat="41.1601460" lon="-8.6503370">
        <ele>60.0</ele>
        <time>2021-05-15T18:40:45Z</time>
      </trkpt>
      <trkpt lat="41.1601530" lon="-8.6503400">
        <ele>60.0</ele>
        <time>2021-05-15T18:40:46Z</time>
      </trkpt>
      <trkpt lat="41.1601800" lon="-8.6503480">
        <ele>60.0</ele>
        <time>2021-05-15T18:40:47Z</time>
      </trkpt>
      <trkpt lat="41.1601900" lon="-8.6503480">
        <ele>60.0</ele>
        <time>2021-05-15T18:40:48Z</time>
      </trkpt>
      <trkpt lat="41.1602100" lon="-8.6503490">
        <ele>60.0</ele>
        <time>2021-05-15T18:40:49Z</time>
      </trkpt>
      <trkpt lat="41.1602220" lon="-8.6503490">
        <ele>60.0</ele>
        <time>2021-05-15T18:40:50Z</time>
      </trkpt>
      <trkpt lat="41.1602330" lon="-8.6503480">
        <ele>60.0</ele>
        <time>2021-05-15T18:40:51Z</time>
      </trkpt>
      <trkpt lat="41.1602490" lon="-8.6503560">
        <ele>60.0</ele>
        <time>2021-05-15T18:40:52Z</time>
      </trkpt>
      <trkpt lat="41.1602610" lon="-8.6503710">
        <ele>60.0</ele>
        <time>2021-05-15T18:40:53Z</time>
      </trkpt>
      <trkpt lat="41.1602690" lon="-8.6503730">
        <ele>60.0</ele>
        <time>2021-05-15T18:40:54Z</time>
      </trkpt>
      <trkpt lat="41.1602790" lon="-8.6503660">
        <ele>60.0</ele>
        <time>2021-05-15T18:40:55Z</time>
      </trkpt>
      <trkpt lat="41.1602930" lon="-8.6503690">
        <ele>60.0</ele>
        <time>2021-05-15T18:40:56Z</time>
      </trkpt>
      <trkpt lat="41.1603030" lon="-8.6503750">
        <ele>60.0</ele>
        <time>2021-05-15T18:40:57Z</time>
      </trkpt>
      <trkpt lat="41.1603200" lon="-8.6503770">
        <ele>60.1</ele>
        <time>2021-05-15T18:40:58Z</time>
      </trkpt>
      <trkpt lat="41.1603370" lon="-8.6503790">
        <ele>60.1</ele>
        <time>2021-05-15T18:40:59Z</time>
      </trkpt>
      <trkpt lat="41.1603460" lon="-8.6503750">
        <ele>60.1</ele>
        <time>2021-05-15T18:41:00Z</time>
      </trkpt>
      <trkpt lat="41.1603530" lon="-8.6503830">
        <ele>60.1</ele>
        <time>2021-05-15T18:41:01Z</time>
      </trkpt>
      <trkpt lat="41.1603810" lon="-8.6503950">
        <ele>60.1</ele>
        <time>2021-05-15T18:41:02Z</time>
      </trkpt>
      <trkpt lat="41.1603900" lon="-8.6504000">
        <ele>60.1</ele>
        <time>2021-05-15T18:41:03Z</time>
      </trkpt>
      <trkpt lat="41.1604100" lon="-8.6503950">
        <ele>60.1</ele>
        <time>2021-05-15T18:41:04Z</time>
      </trkpt>
      <trkpt lat="41.1604180" lon="-8.6503980">
        <ele>60.1</ele>
        <time>2021-05-15T18:41:05Z</time>
      </trkpt>
      <trkpt lat="41.1604320" lon="-8.6504050">
        <ele>60.1</ele>
        <time>2021-05-15T18:41:06Z</time>
      </trkpt>
      <trkpt lat="41.1604500" lon="-8.6504080">
        <ele>60.2</ele>
        <time>2021-05-15T18:41:07Z</time>
      </trkpt>
      <trkpt lat="41.1604780" lon="-8.6504130">
        <ele>60.2</ele>
        <time>2021-05-15T18:41:08Z</time>
      </trkpt>
      <trkpt lat="41.1604870" lon="-8.6504120">
        <ele>60.2</ele>
        <time>2021-05-15T18:41:09Z</time>
      </trkpt>
      <trkpt lat="41.1604960" lon="-8.6504110">
        <ele>60.2</ele>
        <time>2021-05-15T18:41:10Z</time>
      </trkpt>
      <trkpt lat="41.1605120" lon="-8.6504060">
        <ele>60.2</ele>
        <time>2021-05-15T18:41:11Z</time>
      </trkpt>
      <trkpt lat="41.1605320" lon="-8.6504060">
        <ele>60.2</ele>
        <time>2021-05-15T18:41:12Z</time>
      </trkpt>
      <trkpt lat="41.1605470" lon="-8.6504040">
        <ele>60.3</ele>
        <time>2021-05-15T18:41:13Z</time>
      </trkpt>
      <trkpt lat="41.1605640" lon="-8.6504100">
        <ele>60.3</ele>
        <time>2021-05-15T18:41:14Z</time>
      </trkpt>
      <trkpt lat="41.1605800" lon="-8.6504120">
        <ele>60.3</ele>
        <time>2021-05-15T18:41:15Z</time>
      </trkpt>
      <trkpt lat="41.1605920" lon="-8.6504260">
        <ele>60.3</ele>
        <time>2021-05-15T18:41:16Z</time>
      </trkpt>
      <trkpt lat="41.1606030" lon="-8.6504400">
        <ele>60.4</ele>
        <time>2021-05-15T18:41:17Z</time>
      </trkpt>
      <trkpt lat="41.1606080" lon="-8.6504560">
        <ele>60.4</ele>
        <time>2021-05-15T18:41:18Z</time>
      </trkpt>
      <trkpt lat="41.1606290" lon="-8.6504730">
        <ele>60.4</ele>
        <time>2021-05-15T18:41:19Z</time>
      </trkpt>
      <trkpt lat="41.1606370" lon="-8.6504720">
        <ele>60.4</ele>
        <time>2021-05-15T18:41:20Z</time>
      </trkpt>
      <trkpt lat="41.1606460" lon="-8.6504700">
        <ele>60.4</ele>
        <time>2021-05-15T18:41:21Z</time>
      </trkpt>
      <trkpt lat="41.1606730" lon="-8.6504800">
        <ele>60.5</ele>
        <time>2021-05-15T18:41:22Z</time>
      </trkpt>
      <trkpt lat="41.1606850" lon="-8.6504850">
        <ele>60.5</ele>
        <time>2021-05-15T18:41:23Z</time>
      </trkpt>
      <trkpt lat="41.1607020" lon="-8.6504800">
        <ele>60.5</ele>
        <time>2021-05-15T18:41:24Z</time>
      </trkpt>
      <trkpt lat="41.1607190" lon="-8.6504800">
        <ele>60.6</ele>
        <time>2021-05-15T18:41:25Z</time>
      </trkpt>
      <trkpt lat="41.1607310" lon="-8.6504780">
        <ele>60.6</ele>
        <time>2021-05-15T18:41:26Z</time>
      </trkpt>
      <trkpt lat="41.1607460" lon="-8.6504830">
        <ele>60.6</ele>
        <time>2021-05-15T18:41:27Z</time>
      </trkpt>
      <trkpt lat="41.1607580" lon="-8.6504720">
        <ele>60.6</ele>
        <time>2021-05-15T18:41:28Z</time>
      </trkpt>
      <trkpt lat="41.1607790" lon="-8.6504670">
        <ele>60.7</ele>
        <time>2021-05-15T18:41:29Z</time>
      </trkpt>
      <trkpt lat="41.1607930" lon="-8.6504660">
        <ele>60.7</ele>
        <time>2021-05-15T18:41:30Z</time>
      </trkpt>
      <trkpt lat="41.1608100" lon="-8.6504660">
        <ele>60.7</ele>
        <time>2021-05-15T18:41:31Z</time>
      </trkpt>
      <trkpt lat="41.1608400" lon="-8.6504620">
        <ele>60.8</ele>
        <time>2021-05-15T18:41:32Z</time>
      </trkpt>
      <trkpt lat="41.1608480" lon="-8.6504610">
        <ele>60.8</ele>
        <time>2021-05-15T18:41:33Z</time>
      </trkpt>
      <trkpt lat="41.1608610" lon="-8.6504640">
        <ele>60.8</ele>
        <time>2021-05-15T18:41:34Z</time>
      </trkpt>
      <trkpt lat="41.1608770" lon="-8.6504600">
        <ele>60.8</ele>
        <time>2021-05-15T18:41:35Z</time>
      </trkpt>
      <trkpt lat="41.1608890" lon="-8.6504500">
        <ele>60.8</ele>
        <time>2021-05-15T18:41:36Z</time>
      </trkpt>
      <trkpt lat="41.1609100" lon="-8.6504530">
        <ele>60.9</ele>
        <time>2021-05-15T18:41:37Z</time>
      </trkpt>
      <trkpt lat="41.1609270" lon="-8.6504480">
        <ele>60.9</ele>
        <time>2021-05-15T18:41:38Z</time>
      </trkpt>
      <trkpt lat="41.1609360" lon="-8.6504380">
        <ele>60.9</ele>
        <time>2021-05-15T18:41:39Z</time>
      </trkpt>
      <trkpt lat="41.1609690" lon="-8.6504360">
        <ele>60.9</ele>
        <time>2021-05-15T18:41:40Z</time>
      </trkpt>
      <trkpt lat="41.1609770" lon="-8.6504360">
        <ele>61.0</ele>
        <time>2021-05-15T18:41:41Z</time>
      </trkpt>
      <trkpt lat="41.1610100" lon="-8.6504330">
        <ele>61.0</ele>
        <time>2021-05-15T18:41:42Z</time>
      </trkpt>
      <trkpt lat="41.1610230" lon="-8.6504290">
        <ele>61.0</ele>
        <time>2021-05-15T18:41:43Z</time>
      </trkpt>
      <trkpt lat="41.1610350" lon="-8.6504240">
        <ele>61.1</ele>
        <time>2021-05-15T18:41:44Z</time>
      </trkpt>
      <trkpt lat="41.1610480" lon="-8.6504200">
        <ele>61.1</ele>
        <time>2021-05-15T18:41:45Z</time>
      </trkpt>
      <trkpt lat="41.1610610" lon="-8.6504080">
        <ele>61.1</ele>
        <time>2021-05-15T18:41:46Z</time>
      </trkpt>
      <trkpt lat="41.1610670" lon="-8.6504040">
        <ele>61.1</ele>
        <time>2021-05-15T18:41:47Z</time>
      </trkpt>
      <trkpt lat="41.1610800" lon="-8.6504010">
        <ele>61.2</ele>
        <time>2021-05-15T18:41:48Z</time>
      </trkpt>
      <trkpt lat="41.1610960" lon="-8.6504030">
        <ele>61.2</ele>
        <time>2021-05-15T18:41:49Z</time>
      </trkpt>
      <trkpt lat="41.1611040" lon="-8.6504030">
        <ele>61.2</ele>
        <time>2021-05-15T18:41:50Z</time>
      </trkpt>
      <trkpt lat="41.1611110" lon="-8.6504030">
        <ele>61.2</ele>
        <time>2021-05-15T18:41:51Z</time>
      </trkpt>
      <trkpt lat="41.1611190" lon="-8.6504030">
        <ele>61.3</ele>
        <time>2021-05-15T18:41:52Z</time>
      </trkpt>
      <trkpt lat="41.1611260" lon="-8.6504030">
        <ele>61.3</ele>
        <time>2021-05-15T18:41:53Z</time>
      </trkpt>
      <trkpt lat="41.1611340" lon="-8.6504030">
        <ele>61.3</ele>
        <time>2021-05-15T18:41:54Z</time>
      </trkpt>
      <trkpt lat="41.1611430" lon="-8.6504050">
        <ele>61.3</ele>
        <time>2021-05-15T18:41:55Z</time>
      </trkpt>
      <trkpt lat="41.1611650" lon="-8.6504140">
        <ele>61.4</ele>
        <time>2021-05-15T18:41:56Z</time>
      </trkpt>
      <trkpt lat="41.1611800" lon="-8.6504130">
        <ele>61.4</ele>
        <time>2021-05-15T18:41:57Z</time>
      </trkpt>
      <trkpt lat="41.1611930" lon="-8.6504070">
        <ele>61.4</ele>
        <time>2021-05-15T18:41:58Z</time>
      </trkpt>
      <trkpt lat="41.1612210" lon="-8.6504050">
        <ele>61.5</ele>
        <time>2021-05-15T18:41:59Z</time>
      </trkpt>
      <trkpt lat="41.1612250" lon="-8.6503980">
        <ele>61.5</ele>
        <time>2021-05-15T18:42:00Z</time>
      </trkpt>
      <trkpt lat="41.1612380" lon="-8.6503920">
        <ele>61.5</ele>
        <time>2021-05-15T18:42:01Z</time>
      </trkpt>
      <trkpt lat="41.1612540" lon="-8.6503900">
        <ele>61.6</ele>
        <time>2021-05-15T18:42:02Z</time>
      </trkpt>
      <trkpt lat="41.1612890" lon="-8.6504090">
        <ele>61.7</ele>
        <time>2021-05-15T18:42:03Z</time>
      </trkpt>
      <trkpt lat="41.1613010" lon="-8.6504190">
        <ele>61.7</ele>
        <time>2021-05-15T18:42:04Z</time>
      </trkpt>
      <trkpt lat="41.1613050" lon="-8.6504350">
        <ele>61.7</ele>
        <time>2021-05-15T18:42:05Z</time>
      </trkpt>
      <trkpt lat="41.1613190" lon="-8.6504500">
        <ele>61.7</ele>
        <time>2021-05-15T18:42:06Z</time>
      </trkpt>
      <trkpt lat="41.1613430" lon="-8.6504740">
        <ele>61.9</ele>
        <time>2021-05-15T18:42:07Z</time>
      </trkpt>
      <trkpt lat="41.1613490" lon="-8.6504870">
        <ele>61.9</ele>
        <time>2021-05-15T18:42:08Z</time>
      </trkpt>
      <trkpt lat="41.1613670" lon="-8.6505050">
        <ele>62.0</ele>
        <time>2021-05-15T18:42:09Z</time>
      </trkpt>
      <trkpt lat="41.1613690" lon="-8.6505160">
        <ele>62.0</ele>
        <time>2021-05-15T18:42:10Z</time>
      </trkpt>
      <trkpt lat="41.1613710" lon="-8.6505270">
        <ele>62.0</ele>
        <time>2021-05-15T18:42:11Z</time>
      </trkpt>
      <trkpt lat="41.1613810" lon="-8.6505490">
        <ele>62.0</ele>
        <time>2021-05-15T18:42:12Z</time>
      </trkpt>
      <trkpt lat="41.1613940" lon="-8.6505610">
        <ele>62.0</ele>
        <time>2021-05-15T18:42:13Z</time>
      </trkpt>
      <trkpt lat="41.1614130" lon="-8.6505850">
        <ele>62.0</ele>
        <time>2021-05-15T18:42:14Z</time>
      </trkpt>
      <trkpt lat="41.1614220" lon="-8.6505920">
        <ele>62.0</ele>
        <time>2021-05-15T18:42:15Z</time>
      </trkpt>
      <trkpt lat="41.1614440" lon="-8.6506220">
        <ele>62.1</ele>
        <time>2021-05-15T18:42:16Z</time>
      </trkpt>
      <trkpt lat="41.1614500" lon="-8.6506310">
        <ele>62.1</ele>
        <time>2021-05-15T18:42:17Z</time>
      </trkpt>
      <trkpt lat="41.1614720" lon="-8.6506590">
        <ele>62.1</ele>
        <time>2021-05-15T18:42:18Z</time>
      </trkpt>
      <trkpt lat="41.1614770" lon="-8.6506680">
        <ele>62.1</ele>
        <time>2021-05-15T18:42:19Z</time>
      </trkpt>
      <trkpt lat="41.1615040" lon="-8.6506820">
        <ele>62.1</ele>
        <time>2021-05-15T18:42:20Z</time>
      </trkpt>
      <trkpt lat="41.1615220" lon="-8.6507020">
        <ele>62.2</ele>
        <time>2021-05-15T18:42:21Z</time>
      </trkpt>
      <trkpt lat="41.1615240" lon="-8.6507120">
        <ele>62.2</ele>
        <time>2021-05-15T18:42:22Z</time>
      </trkpt>
      <trkpt lat="41.1615270" lon="-8.6507230">
        <ele>62.2</ele>
        <time>2021-05-15T18:42:23Z</time>
      </trkpt>
      <trkpt lat="41.1615460" lon="-8.6507470">
        <ele>62.2</ele>
        <time>2021-05-15T18:42:24Z</time>
      </trkpt>
      <trkpt lat="41.1615530" lon="-8.6507570">
        <ele>62.2</ele>
        <time>2021-05-15T18:42:25Z</time>
      </trkpt>
      <trkpt lat="41.1615770" lon="-8.6507900">
        <ele>62.2</ele>
        <time>2021-05-15T18:42:26Z</time>
      </trkpt>
      <trkpt lat="41.1615860" lon="-8.6507960">
        <ele>62.3</ele>
        <time>2021-05-15T18:42:27Z</time>
      </trkpt>
      <trkpt lat="41.1616030" lon="-8.6508380">
        <ele>62.3</ele>
        <time>2021-05-15T18:42:28Z</time>
      </trkpt>
      <trkpt lat="41.1616100" lon="-8.6508530">
        <ele>62.3</ele>
        <time>2021-05-15T18:42:29Z</time>
      </trkpt>
      <trkpt lat="41.1616220" lon="-8.6508730">
        <ele>62.3</ele>
        <time>2021-05-15T18:42:30Z</time>
      </trkpt>
      <trkpt lat="41.1616240" lon="-8.6508870">
        <ele>62.3</ele>
        <time>2021-05-15T18:42:31Z</time>
      </trkpt>
      <trkpt lat="41.1616330" lon="-8.6509130">
        <ele>62.3</ele>
        <time>2021-05-15T18:42:32Z</time>
      </trkpt>
      <trkpt lat="41.1616340" lon="-8.6509240">
        <ele>62.3</ele>
        <time>2021-05-15T18:42:33Z</time>
      </trkpt>
      <trkpt lat="41.1616340" lon="-8.6509360">
        <ele>62.3</ele>
        <time>2021-05-15T18:42:34Z</time>
      </trkpt>
      <trkpt lat="41.1616300" lon="-8.6509470">
        <ele>62.3</ele>
        <time>2021-05-15T18:42:35Z</time>
      </trkpt>
      <trkpt lat="41.1616360" lon="-8.6509580">
        <ele>62.4</ele>
        <time>2021-05-15T18:42:36Z</time>
      </trkpt>
      <trkpt lat="41.1616390" lon="-8.6509750">
        <ele>62.4</ele>
        <time>2021-05-15T18:42:37Z</time>
      </trkpt>
      <trkpt lat="41.1616400" lon="-8.6509830">
        <ele>62.4</ele>
        <time>2021-05-15T18:42:38Z</time>
      </trkpt>
      <trkpt lat="41.1616350" lon="-8.6510000">
        <ele>62.4</ele>
        <time>2021-05-15T18:42:39Z</time>
      </trkpt>
      <trkpt lat="41.1616270" lon="-8.6510140">
        <ele>62.4</ele>
        <time>2021-05-15T18:42:40Z</time>
      </trkpt>
      <trkpt lat="41.1616250" lon="-8.6510170">
        <ele>62.4</ele>
        <time>2021-05-15T18:42:41Z</time>
      </trkpt>
      <trkpt lat="41.1616240" lon="-8.6510370">
        <ele>62.4</ele>
        <time>2021-05-15T18:42:42Z</time>
      </trkpt>
      <trkpt lat="41.1616210" lon="-8.6510580">
        <ele>62.4</ele>
        <time>2021-05-15T18:42:43Z</time>
      </trkpt>
      <trkpt lat="41.1616200" lon="-8.6510730">
        <ele>62.4</ele>
        <time>2021-05-15T18:42:44Z</time>
      </trkpt>
      <trkpt lat="41.1616190" lon="-8.6510960">
        <ele>62.4</ele>
        <time>2021-05-15T18:42:45Z</time>
      </trkpt>
      <trkpt lat="41.1616220" lon="-8.6511110">
        <ele>62.4</ele>
        <time>2021-05-15T18:42:46Z</time>
      </trkpt>
      <trkpt lat="41.1616210" lon="-8.6511280">
        <ele>62.4</ele>
        <time>2021-05-15T18:42:47Z</time>
      </trkpt>
      <trkpt lat="41.1616220" lon="-8.6511280">
        <ele>62.4</ele>
        <time>2021-05-15T18:42:48Z</time>
      </trkpt>
      <trkpt lat="41.1616300" lon="-8.6511370">
        <ele>62.4</ele>
        <time>2021-05-15T18:42:49Z</time>
      </trkpt>
      <trkpt lat="41.1616320" lon="-8.6511590">
        <ele>62.5</ele>
        <time>2021-05-15T18:42:50Z</time>
      </trkpt>
      <trkpt lat="41.1616360" lon="-8.6511830">
        <ele>62.5</ele>
        <time>2021-05-15T18:42:51Z</time>
      </trkpt>
      <trkpt lat="41.1616390" lon="-8.6512060">
        <ele>62.5</ele>
        <time>2021-05-15T18:42:52Z</time>
      </trkpt>
      <trkpt lat="41.1616450" lon="-8.6512260">
        <ele>62.5</ele>
        <time>2021-05-15T18:42:53Z</time>
      </trkpt>
      <trkpt lat="41.1616650" lon="-8.6512560">
        <ele>62.5</ele>
        <time>2021-05-15T18:42:54Z</time>
      </trkpt>
      <trkpt lat="41.1616700" lon="-8.6512640">
        <ele>62.5</ele>
        <time>2021-05-15T18:42:55Z</time>
      </trkpt>
      <trkpt lat="41.1616880" lon="-8.6512970">
        <ele>62.5</ele>
        <time>2021-05-15T18:42:56Z</time>
      </trkpt>
      <trkpt lat="41.1616890" lon="-8.6513060">
        <ele>62.5</ele>
        <time>2021-05-15T18:42:57Z</time>
      </trkpt>
      <trkpt lat="41.1617050" lon="-8.6513350">
        <ele>62.5</ele>
        <time>2021-05-15T18:42:58Z</time>
      </trkpt>
      <trkpt lat="41.1617120" lon="-8.6513790">
        <ele>62.5</ele>
        <time>2021-05-15T18:42:59Z</time>
      </trkpt>
      <trkpt lat="41.1617180" lon="-8.6513940">
        <ele>62.6</ele>
        <time>2021-05-15T18:43:00Z</time>
      </trkpt>
      <trkpt lat="41.1617040" lon="-8.6514270">
        <ele>62.6</ele>
        <time>2021-05-15T18:43:01Z</time>
      </trkpt>
      <trkpt lat="41.1616660" lon="-8.6514440">
        <ele>62.6</ele>
        <time>2021-05-15T18:43:02Z</time>
      </trkpt>
      <trkpt lat="41.1616480" lon="-8.6514800">
        <ele>62.6</ele>
        <time>2021-05-15T18:43:03Z</time>
      </trkpt>
      <trkpt lat="41.1616460" lon="-8.6514930">
        <ele>62.6</ele>
        <time>2021-05-15T18:43:04Z</time>
      </trkpt>
      <trkpt lat="41.1616460" lon="-8.6515370">
        <ele>62.6</ele>
        <time>2021-05-15T18:43:05Z</time>
      </trkpt>
      <trkpt lat="41.1616450" lon="-8.6515480">
        <ele>62.6</ele>
        <time>2021-05-15T18:43:06Z</time>
      </trkpt>
      <trkpt lat="41.1616310" lon="-8.6515670">
        <ele>62.6</ele>
        <time>2021-05-15T18:43:07Z</time>
      </trkpt>
      <trkpt lat="41.1616270" lon="-8.6515850">
        <ele>62.6</ele>
        <time>2021-05-15T18:43:08Z</time>
      </trkpt>
      <trkpt lat="41.1616280" lon="-8.6516090">
        <ele>62.6</ele>
        <time>2021-05-15T18:43:09Z</time>
      </trkpt>
      <trkpt lat="41.1616290" lon="-8.6516170">
        <ele>62.6</ele>
        <time>2021-05-15T18:43:10Z</time>
      </trkpt>
      <trkpt lat="41.1616290" lon="-8.6516260">
        <ele>62.6</ele>
        <time>2021-05-15T18:43:11Z</time>
      </trkpt>
      <trkpt lat="41.1616290" lon="-8.6516340">
        <ele>62.6</ele>
        <time>2021-05-15T18:43:12Z</time>
      </trkpt>
      <trkpt lat="41.1616280" lon="-8.6516690">
        <ele>62.6</ele>
        <time>2021-05-15T18:43:13Z</time>
      </trkpt>
      <trkpt lat="41.1616290" lon="-8.6516830">
        <ele>62.6</ele>
        <time>2021-05-15T18:43:14Z</time>
      </trkpt>
      <trkpt lat="41.1616290" lon="-8.6516980">
        <ele>62.7</ele>
        <time>2021-05-15T18:43:15Z</time>
      </trkpt>
      <trkpt lat="41.1616330" lon="-8.6517130">
        <ele>62.7</ele>
        <time>2021-05-15T18:43:16Z</time>
      </trkpt>
      <trkpt lat="41.1616360" lon="-8.6517270">
        <ele>62.7</ele>
        <time>2021-05-15T18:43:17Z</time>
      </trkpt>
      <trkpt lat="41.1616420" lon="-8.6517430">
        <ele>62.7</ele>
        <time>2021-05-15T18:43:18Z</time>
      </trkpt>
      <trkpt lat="41.1616400" lon="-8.6517660">
        <ele>62.7</ele>
        <time>2021-05-15T18:43:19Z</time>
      </trkpt>
      <trkpt lat="41.1616370" lon="-8.6517850">
        <ele>62.7</ele>
        <time>2021-05-15T18:43:20Z</time>
      </trkpt>
      <trkpt lat="41.1616430" lon="-8.6518120">
        <ele>62.7</ele>
        <time>2021-05-15T18:43:21Z</time>
      </trkpt>
      <trkpt lat="41.1616470" lon="-8.6518230">
        <ele>62.7</ele>
        <time>2021-05-15T18:43:22Z</time>
      </trkpt>
      <trkpt lat="41.1616500" lon="-8.6518340">
        <ele>62.7</ele>
        <time>2021-05-15T18:43:23Z</time>
      </trkpt>
      <trkpt lat="41.1616630" lon="-8.6518520">
        <ele>62.7</ele>
        <time>2021-05-15T18:43:24Z</time>
      </trkpt>
      <trkpt lat="41.1616640" lon="-8.6518650">
        <ele>62.7</ele>
        <time>2021-05-15T18:43:25Z</time>
      </trkpt>
      <trkpt lat="41.1616720" lon="-8.6518870">
        <ele>62.8</ele>
        <time>2021-05-15T18:43:26Z</time>
      </trkpt>
      <trkpt lat="41.1616760" lon="-8.6519040">
        <ele>62.8</ele>
        <time>2021-05-15T18:43:27Z</time>
      </trkpt>
      <trkpt lat="41.1616840" lon="-8.6519270">
        <ele>62.8</ele>
        <time>2021-05-15T18:43:28Z</time>
      </trkpt>
      <trkpt lat="41.1616920" lon="-8.6519340">
        <ele>62.8</ele>
        <time>2021-05-15T18:43:29Z</time>
      </trkpt>
      <trkpt lat="41.1616890" lon="-8.6519610">
        <ele>62.8</ele>
        <time>2021-05-15T18:43:30Z</time>
      </trkpt>
      <trkpt lat="41.1617000" lon="-8.6519810">
        <ele>62.8</ele>
        <time>2021-05-15T18:43:31Z</time>
      </trkpt>
      <trkpt lat="41.1617010" lon="-8.6519990">
        <ele>62.8</ele>
        <time>2021-05-15T18:43:32Z</time>
      </trkpt>
      <trkpt lat="41.1617050" lon="-8.6520180">
        <ele>62.8</ele>
        <time>2021-05-15T18:43:33Z</time>
      </trkpt>
      <trkpt lat="41.1617160" lon="-8.6520380">
        <ele>62.8</ele>
        <time>2021-05-15T18:43:34Z</time>
      </trkpt>
      <trkpt lat="41.1617240" lon="-8.6520440">
        <ele>62.8</ele>
        <time>2021-05-15T18:43:35Z</time>
      </trkpt>
      <trkpt lat="41.1617340" lon="-8.6520560">
        <ele>62.8</ele>
        <time>2021-05-15T18:43:36Z</time>
      </trkpt>
      <trkpt lat="41.1617380" lon="-8.6520610">
        <ele>62.8</ele>
        <time>2021-05-15T18:43:37Z</time>
      </trkpt>
      <trkpt lat="41.1617370" lon="-8.6520510">
        <ele>62.8</ele>
        <time>2021-05-15T18:43:38Z</time>
      </trkpt>
      <trkpt lat="41.1617350" lon="-8.6520550">
        <ele>62.8</ele>
        <time>2021-05-15T18:43:39Z</time>
      </trkpt>
      <trkpt lat="41.1617350" lon="-8.6520550">
        <ele>62.8</ele>
        <time>2021-05-15T18:43:40Z</time>
      </trkpt>
      <trkpt lat="41.1617320" lon="-8.6520520">
        <ele>62.8</ele>
        <time>2021-05-15T18:43:41Z</time>
      </trkpt>
      <trkpt lat="41.1617350" lon="-8.6520530">
        <ele>62.8</ele>
        <time>2021-05-15T18:43:42Z</time>
      </trkpt>
      <trkpt lat="41.1617390" lon="-8.6520500">
        <ele>62.8</ele>
        <time>2021-05-15T18:43:43Z</time>
      </trkpt>
      <trkpt lat="41.1617400" lon="-8.6520520">
        <ele>62.8</ele>
        <time>2021-05-15T18:43:44Z</time>
      </trkpt>
      <trkpt lat="41.1617370" lon="-8.6520510">
        <ele>62.8</ele>
        <time>2021-05-15T18:43:45Z</time>
      </trkpt>
      <trkpt lat="41.1617330" lon="-8.6520510">
        <ele>62.8</ele>
        <time>2021-05-15T18:43:46Z</time>
      </trkpt>
      <trkpt lat="41.1617340" lon="-8.6520490">
        <ele>62.8</ele>
        <time>2021-05-15T18:43:47Z</time>
      </trkpt>
      <trkpt lat="41.1617250" lon="-8.6520470">
        <ele>62.8</ele>
        <time>2021-05-15T18:43:48Z</time>
      </trkpt>
      <trkpt lat="41.1617180" lon="-8.6520500">
        <ele>62.8</ele>
        <time>2021-05-15T18:43:49Z</time>
      </trkpt>
      <trkpt lat="41.1617230" lon="-8.6520510">
        <ele>62.8</ele>
        <time>2021-05-15T18:43:50Z</time>
      </trkpt>
      <trkpt lat="41.1617230" lon="-8.6520470">
        <ele>62.8</ele>
        <time>2021-05-15T18:43:51Z</time>
      </trkpt>
      <trkpt lat="41.1617290" lon="-8.6520460">
        <ele>62.8</ele>
        <time>2021-05-15T18:43:52Z</time>
      </trkpt>
      <trkpt lat="41.1617300" lon="-8.6520520">
        <ele>62.8</ele>
        <time>2021-05-15T18:43:53Z</time>
      </trkpt>
      <trkpt lat="41.1617320" lon="-8.6520540">
        <ele>62.8</ele>
        <time>2021-05-15T18:43:54Z</time>
      </trkpt>
      <trkpt lat="41.1617310" lon="-8.6520550">
        <ele>62.8</ele>
        <time>2021-05-15T18:43:55Z</time>
      </trkpt>
      <trkpt lat="41.1617370" lon="-8.6520550">
        <ele>62.8</ele>
        <time>2021-05-15T18:43:56Z</time>
      </trkpt>
      <trkpt lat="41.1617380" lon="-8.6520560">
        <ele>62.8</ele>
        <time>2021-05-15T18:43:57Z</time>
      </trkpt>
      <trkpt lat="41.1617410" lon="-8.6520590">
        <ele>62.8</ele>
        <time>2021-05-15T18:43:58Z</time>
      </trkpt>
      <trkpt lat="41.1617430" lon="-8.6520570">
        <ele>62.8</ele>
        <time>2021-05-15T18:43:59Z</time>
      </trkpt>
      <trkpt lat="41.1617490" lon="-8.6520550">
        <ele>62.8</ele>
        <time>2021-05-15T18:44:00Z</time>
      </trkpt>
      <trkpt lat="41.1617500" lon="-8.6520580">
        <ele>62.8</ele>
        <time>2021-05-15T18:44:01Z</time>
      </trkpt>
      <trkpt lat="41.1617580" lon="-8.6520540">
        <ele>62.8</ele>
        <time>2021-05-15T18:44:02Z</time>
      </trkpt>
      <trkpt lat="41.1617640" lon="-8.6520520">
        <ele>62.8</ele>
        <time>2021-05-15T18:44:03Z</time>
      </trkpt>
      <trkpt lat="41.1617690" lon="-8.6520500">
        <ele>62.8</ele>
        <time>2021-05-15T18:44:04Z</time>
      </trkpt>
      <trkpt lat="41.1617750" lon="-8.6520470">
        <ele>62.8</ele>
        <time>2021-05-15T18:44:05Z</time>
      </trkpt>
      <trkpt lat="41.1617800" lon="-8.6520450">
        <ele>62.8</ele>
        <time>2021-05-15T18:44:06Z</time>
      </trkpt>
      <trkpt lat="41.1617860" lon="-8.6520430">
        <ele>62.8</ele>
        <time>2021-05-15T18:44:07Z</time>
      </trkpt>
      <trkpt lat="41.1617910" lon="-8.6520410">
        <ele>62.8</ele>
        <time>2021-05-15T18:44:08Z</time>
      </trkpt>
      <trkpt lat="41.1618000" lon="-8.6520360">
        <ele>62.8</ele>
        <time>2021-05-15T18:44:09Z</time>
      </trkpt>
      <trkpt lat="41.1618190" lon="-8.6520300">
        <ele>62.8</ele>
        <time>2021-05-15T18:44:10Z</time>
      </trkpt>
      <trkpt lat="41.1618280" lon="-8.6520280">
        <ele>62.8</ele>
        <time>2021-05-15T18:44:11Z</time>
      </trkpt>
      <trkpt lat="41.1618420" lon="-8.6520260">
        <ele>62.8</ele>
        <time>2021-05-15T18:44:12Z</time>
      </trkpt>
      <trkpt lat="41.1618540" lon="-8.6520250">
        <ele>62.8</ele>
        <time>2021-05-15T18:44:13Z</time>
      </trkpt>
      <trkpt lat="41.1618610" lon="-8.6520220">
        <ele>62.8</ele>
        <time>2021-05-15T18:44:14Z</time>
      </trkpt>
      <trkpt lat="41.1618690" lon="-8.6520190">
        <ele>62.8</ele>
        <time>2021-05-15T18:44:15Z</time>
      </trkpt>
      <trkpt lat="41.1618770" lon="-8.6520190">
        <ele>62.8</ele>
        <time>2021-05-15T18:44:16Z</time>
      </trkpt>
      <trkpt lat="41.1618870" lon="-8.6520170">
        <ele>62.8</ele>
        <time>2021-05-15T18:44:17Z</time>
      </trkpt>
      <trkpt lat="41.1618960" lon="-8.6520160">
        <ele>62.8</ele>
        <time>2021-05-15T18:44:18Z</time>
      </trkpt>
      <trkpt lat="41.1616990" lon="-8.6520410">
        <ele>62.1</ele>
        <time>2021-05-16T05:21:01Z</time>
      </trkpt>
      <trkpt lat="41.1618050" lon="-8.6520600">
        <ele>61.9</ele>
        <time>2021-05-16T05:21:02Z</time>
      </trkpt>
      <trkpt lat="41.1618140" lon="-8.6520830">
        <ele>62.0</ele>
        <time>2021-05-16T05:21:03Z</time>
      </trkpt>
      <trkpt lat="41.1618390" lon="-8.6521140">
        <ele>61.9</ele>
        <time>2021-05-16T05:21:04Z</time>
      </trkpt>
      <trkpt lat="41.1618490" lon="-8.6521440">
        <ele>62.0</ele>
        <time>2021-05-16T05:21:05Z</time>
      </trkpt>
      <trkpt lat="41.1618350" lon="-8.6521670">
        <ele>62.1</ele>
        <time>2021-05-16T05:21:06Z</time>
      </trkpt>
      <trkpt lat="41.1618080" lon="-8.6521230">
        <ele>62.1</ele>
        <time>2021-05-16T05:21:07Z</time>
      </trkpt>
      <trkpt lat="41.1617940" lon="-8.6521040">
        <ele>62.0</ele>
        <time>2021-05-16T05:21:08Z</time>
      </trkpt>
      <trkpt lat="41.1617830" lon="-8.6520940">
        <ele>62.1</ele>
        <time>2021-05-16T05:21:09Z</time>
      </trkpt>
      <trkpt lat="41.1617600" lon="-8.6521100">
        <ele>62.1</ele>
        <time>2021-05-16T05:21:10Z</time>
      </trkpt>
      <trkpt lat="41.1617600" lon="-8.6521100">
        <ele>62.1</ele>
        <time>2021-05-16T05:21:11Z</time>
      </trkpt>
      <trkpt lat="41.1617460" lon="-8.6521250">
        <ele>62.2</ele>
        <time>2021-05-16T05:21:12Z</time>
      </trkpt>
      <trkpt lat="41.1617280" lon="-8.6521260">
        <ele>62.2</ele>
        <time>2021-05-16T05:21:13Z</time>
      </trkpt>
      <trkpt lat="41.1617150" lon="-8.6521250">
        <ele>62.3</ele>
        <time>2021-05-16T05:21:14Z</time>
      </trkpt>
      <trkpt lat="41.1617110" lon="-8.6521220">
        <ele>62.3</ele>
        <time>2021-05-16T05:21:15Z</time>
      </trkpt>
      <trkpt lat="41.1616900" lon="-8.6521200">
        <ele>62.4</ele>
        <time>2021-05-16T05:21:16Z</time>
      </trkpt>
      <trkpt lat="41.1616660" lon="-8.6521400">
        <ele>62.4</ele>
        <time>2021-05-16T05:21:17Z</time>
      </trkpt>
      <trkpt lat="41.1616520" lon="-8.6521500">
        <ele>62.4</ele>
        <time>2021-05-16T05:21:18Z</time>
      </trkpt>
      <trkpt lat="41.1616550" lon="-8.6521590">
        <ele>62.4</ele>
        <time>2021-05-16T05:21:19Z</time>
      </trkpt>
      <trkpt lat="41.1616500" lon="-8.6521590">
        <ele>62.4</ele>
        <time>2021-05-16T05:21:20Z</time>
      </trkpt>
      <trkpt lat="41.1616400" lon="-8.6521630">
        <ele>62.5</ele>
        <time>2021-05-16T05:21:21Z</time>
      </trkpt>
      <trkpt lat="41.1616500" lon="-8.6521640">
        <ele>62.5</ele>
        <time>2021-05-16T05:21:23Z</time>
      </trkpt>
      <trkpt lat="41.1615290" lon="-8.6522210">
        <ele>62.9</ele>
        <time>2021-05-16T05:21:31Z</time>
      </trkpt>
      <trkpt lat="41.1615540" lon="-8.6521550">
        <ele>62.6</ele>
        <time>2021-05-16T05:21:32Z</time>
      </trkpt>
      <trkpt lat="41.1615580" lon="-8.6521540">
        <ele>62.6</ele>
        <time>2021-05-16T05:21:33Z</time>
      </trkpt>
      <trkpt lat="41.1615620" lon="-8.6521530">
        <ele>62.6</ele>
        <time>2021-05-16T05:21:34Z</time>
      </trkpt>
      <trkpt lat="41.1615650" lon="-8.6521530">
        <ele>62.5</ele>
        <time>2021-05-16T05:21:35Z</time>
      </trkpt>
      <trkpt lat="41.1615690" lon="-8.6521520">
        <ele>62.5</ele>
        <time>2021-05-16T05:21:36Z</time>
      </trkpt>
      <trkpt lat="41.1615730" lon="-8.6521510">
        <ele>62.5</ele>
        <time>2021-05-16T05:21:37Z</time>
      </trkpt>
      <trkpt lat="41.1615770" lon="-8.6521500">
        <ele>62.5</ele>
        <time>2021-05-16T05:21:38Z</time>
      </trkpt>
      <trkpt lat="41.1615810" lon="-8.6521490">
        <ele>62.5</ele>
        <time>2021-05-16T05:21:39Z</time>
      </trkpt>
      <trkpt lat="41.1615850" lon="-8.6521480">
        <ele>62.5</ele>
        <time>2021-05-16T05:21:40Z</time>
      </trkpt>
      <trkpt lat="41.1615890" lon="-8.6521470">
        <ele>62.5</ele>
        <time>2021-05-16T05:21:41Z</time>
      </trkpt>
      <trkpt lat="41.1615920" lon="-8.6521470">
        <ele>62.5</ele>
        <time>2021-05-16T05:21:42Z</time>
      </trkpt>
      <trkpt lat="41.1615960" lon="-8.6521460">
        <ele>62.5</ele>
        <time>2021-05-16T05:21:43Z</time>
      </trkpt>
      <trkpt lat="41.1616000" lon="-8.6521450">
        <ele>62.5</ele>
        <time>2021-05-16T05:21:44Z</time>
      </trkpt>
      <trkpt lat="41.1616040" lon="-8.6521440">
        <ele>62.5</ele>
        <time>2021-05-16T05:21:45Z</time>
      </trkpt>
      <trkpt lat="41.1615830" lon="-8.6521360">
        <ele>62.5</ele>
        <time>2021-05-16T05:21:46Z</time>
      </trkpt>
      <trkpt lat="41.1615730" lon="-8.6521320">
        <ele>62.5</ele>
        <time>2021-05-16T05:21:47Z</time>
      </trkpt>
      <trkpt lat="41.1615630" lon="-8.6521290">
        <ele>62.6</ele>
        <time>2021-05-16T05:21:48Z</time>
      </trkpt>
      <trkpt lat="41.1615520" lon="-8.6521260">
        <ele>62.6</ele>
        <time>2021-05-16T05:21:49Z</time>
      </trkpt>
      <trkpt lat="41.1615420" lon="-8.6521230">
        <ele>62.6</ele>
        <time>2021-05-16T05:21:50Z</time>
      </trkpt>
      <trkpt lat="41.1615320" lon="-8.6521190">
        <ele>62.5</ele>
        <time>2021-05-16T05:21:51Z</time>
      </trkpt>
      <trkpt lat="41.1615220" lon="-8.6521160">
        <ele>62.5</ele>
        <time>2021-05-16T05:21:52Z</time>
      </trkpt>
      <trkpt lat="41.1615120" lon="-8.6521130">
        <ele>62.5</ele>
        <time>2021-05-16T05:21:53Z</time>
      </trkpt>
      <trkpt lat="41.1615020" lon="-8.6521100">
        <ele>62.5</ele>
        <time>2021-05-16T05:21:54Z</time>
      </trkpt>
      <trkpt lat="41.1614920" lon="-8.6521060">
        <ele>62.6</ele>
        <time>2021-05-16T05:21:55Z</time>
      </trkpt>
      <trkpt lat="41.1614810" lon="-8.6521030">
        <ele>62.6</ele>
        <time>2021-05-16T05:21:56Z</time>
      </trkpt>
      <trkpt lat="41.1614710" lon="-8.6521000">
        <ele>62.6</ele>
        <time>2021-05-16T05:21:57Z</time>
      </trkpt>
      <trkpt lat="41.1614610" lon="-8.6520970">
        <ele>62.6</ele>
        <time>2021-05-16T05:21:58Z</time>
      </trkpt>
      <trkpt lat="41.1614510" lon="-8.6520930">
        <ele>62.6</ele>
        <time>2021-05-16T05:21:59Z</time>
      </trkpt>
      <trkpt lat="41.1614410" lon="-8.6520900">
        <ele>62.6</ele>
        <time>2021-05-16T05:22:00Z</time>
      </trkpt>
      <trkpt lat="41.1614310" lon="-8.6520870">
        <ele>62.7</ele>
        <time>2021-05-16T05:22:01Z</time>
      </trkpt>
      <trkpt lat="41.1614210" lon="-8.6520830">
        <ele>62.7</ele>
        <time>2021-05-16T05:22:02Z</time>
      </trkpt>
      <trkpt lat="41.1614100" lon="-8.6520800">
        <ele>62.7</ele>
        <time>2021-05-16T05:22:03Z</time>
      </trkpt>
      <trkpt lat="41.1614000" lon="-8.6520770">
        <ele>62.7</ele>
        <time>2021-05-16T05:22:04Z</time>
      </trkpt>
      <trkpt lat="41.1613900" lon="-8.6520740">
        <ele>62.6</ele>
        <time>2021-05-16T05:22:05Z</time>
      </trkpt>
      <trkpt lat="41.1613800" lon="-8.6520700">
        <ele>62.6</ele>
        <time>2021-05-16T05:22:06Z</time>
      </trkpt>
      <trkpt lat="41.1613700" lon="-8.6520670">
        <ele>62.7</ele>
        <time>2021-05-16T05:22:07Z</time>
      </trkpt>
      <trkpt lat="41.1613600" lon="-8.6520640">
        <ele>62.7</ele>
        <time>2021-05-16T05:22:08Z</time>
      </trkpt>
      <trkpt lat="41.1613490" lon="-8.6520610">
        <ele>62.7</ele>
        <time>2021-05-16T05:22:09Z</time>
      </trkpt>
      <trkpt lat="41.1613390" lon="-8.6520570">
        <ele>62.7</ele>
        <time>2021-05-16T05:22:10Z</time>
      </trkpt>
      <trkpt lat="41.1613290" lon="-8.6520540">
        <ele>62.7</ele>
        <time>2021-05-16T05:22:20Z</time>
      </trkpt>
      <trkpt lat="41.1613190" lon="-8.6520510">
        <ele>62.7</ele>
        <time>2021-05-16T05:22:21Z</time>
      </trkpt>
      <trkpt lat="41.1613090" lon="-8.6520480">
        <ele>62.7</ele>
        <time>2021-05-16T05:22:22Z</time>
      </trkpt>
      <trkpt lat="41.1612990" lon="-8.6520440">
        <ele>62.8</ele>
        <time>2021-05-16T05:22:23Z</time>
      </trkpt>
      <trkpt lat="41.1612890" lon="-8.6520410">
        <ele>62.8</ele>
        <time>2021-05-16T05:22:24Z</time>
      </trkpt>
      <trkpt lat="41.1612780" lon="-8.6520380">
        <ele>62.8</ele>
        <time>2021-05-16T05:22:25Z</time>
      </trkpt>
      <trkpt lat="41.1612680" lon="-8.6520350">
        <ele>62.8</ele>
        <time>2021-05-16T05:22:26Z</time>
      </trkpt>
      <trkpt lat="41.1612580" lon="-8.6520310">
        <ele>62.7</ele>
        <time>2021-05-16T05:22:27Z</time>
      </trkpt>
      <trkpt lat="41.1612480" lon="-8.6520280">
        <ele>62.7</ele>
        <time>2021-05-16T05:22:28Z</time>
      </trkpt>
      <trkpt lat="41.1612900" lon="-8.6519950">
        <ele>62.7</ele>
        <time>2021-05-16T05:22:29Z</time>
      </trkpt>
      <trkpt lat="41.1612910" lon="-8.6519860">
        <ele>62.5</ele>
        <time>2021-05-16T05:22:30Z</time>
      </trkpt>
      <trkpt lat="41.1612930" lon="-8.6519770">
        <ele>62.5</ele>
        <time>2021-05-16T05:22:31Z</time>
      </trkpt>
      <trkpt lat="41.1612940" lon="-8.6519680">
        <ele>62.5</ele>
        <time>2021-05-16T05:22:32Z</time>
      </trkpt>
      <trkpt lat="41.1612960" lon="-8.6519590">
        <ele>62.5</ele>
        <time>2021-05-16T05:22:33Z</time>
      </trkpt>
      <trkpt lat="41.1612970" lon="-8.6519500">
        <ele>62.5</ele>
        <time>2021-05-16T05:22:34Z</time>
      </trkpt>
      <trkpt lat="41.1612990" lon="-8.6519410">
        <ele>62.4</ele>
        <time>2021-05-16T05:22:35Z</time>
      </trkpt>
      <trkpt lat="41.1613010" lon="-8.6519320">
        <ele>62.4</ele>
        <time>2021-05-16T05:22:36Z</time>
      </trkpt>
      <trkpt lat="41.1613020" lon="-8.6519230">
        <ele>62.4</ele>
        <time>2021-05-16T05:22:37Z</time>
      </trkpt>
      <trkpt lat="41.1613040" lon="-8.6519140">
        <ele>62.4</ele>
        <time>2021-05-16T05:22:39Z</time>
      </trkpt>
      <trkpt lat="41.1613050" lon="-8.6519050">
        <ele>62.3</ele>
        <time>2021-05-16T05:22:40Z</time>
      </trkpt>
      <trkpt lat="41.1613070" lon="-8.6518960">
        <ele>62.2</ele>
        <time>2021-05-16T05:22:41Z</time>
      </trkpt>
      <trkpt lat="41.1613080" lon="-8.6518870">
        <ele>62.2</ele>
        <time>2021-05-16T05:22:47Z</time>
      </trkpt>
      <trkpt lat="41.1613100" lon="-8.6518780">
        <ele>62.2</ele>
        <time>2021-05-16T05:22:48Z</time>
      </trkpt>
      <trkpt lat="41.1614910" lon="-8.6520770">
        <ele>62.6</ele>
        <time>2021-05-16T05:22:49Z</time>
      </trkpt>
      <trkpt lat="41.1615220" lon="-8.6520950">
        <ele>62.5</ele>
        <time>2021-05-16T05:22:50Z</time>
      </trkpt>
      <trkpt lat="41.1615350" lon="-8.6520780">
        <ele>62.5</ele>
        <time>2021-05-16T05:22:51Z</time>
      </trkpt>
      <trkpt lat="41.1615360" lon="-8.6520890">
        <ele>62.5</ele>
        <time>2021-05-16T05:22:52Z</time>
      </trkpt>
      <trkpt lat="41.1615330" lon="-8.6520850">
        <ele>62.5</ele>
        <time>2021-05-16T05:22:53Z</time>
      </trkpt>
      <trkpt lat="41.1615340" lon="-8.6520830">
        <ele>62.5</ele>
        <time>2021-05-16T05:22:54Z</time>
      </trkpt>
      <trkpt lat="41.1615460" lon="-8.6520770">
        <ele>62.5</ele>
        <time>2021-05-16T05:22:55Z</time>
      </trkpt>
      <trkpt lat="41.1615240" lon="-8.6520980">
        <ele>62.5</ele>
        <time>2021-05-16T05:22:56Z</time>
      </trkpt>
      <trkpt lat="41.1615140" lon="-8.6521120">
        <ele>62.5</ele>
        <time>2021-05-16T05:22:57Z</time>
      </trkpt>
      <trkpt lat="41.1615200" lon="-8.6521120">
        <ele>62.5</ele>
        <time>2021-05-16T05:22:58Z</time>
      </trkpt>
      <trkpt lat="41.1615210" lon="-8.6521190">
        <ele>62.5</ele>
        <time>2021-05-16T05:22:59Z</time>
      </trkpt>
      <trkpt lat="41.1615210" lon="-8.6521300">
        <ele>62.6</ele>
        <time>2021-05-16T05:23:00Z</time>
      </trkpt>
      <trkpt lat="41.1615250" lon="-8.6521430">
        <ele>62.6</ele>
        <time>2021-05-16T05:23:01Z</time>
      </trkpt>
      <trkpt lat="41.1615310" lon="-8.6521400">
        <ele>62.6</ele>
        <time>2021-05-16T05:23:02Z</time>
      </trkpt>
      <trkpt lat="41.1615390" lon="-8.6521350">
        <ele>62.6</ele>
        <time>2021-05-16T05:23:03Z</time>
      </trkpt>
      <trkpt lat="41.1615490" lon="-8.6521380">
        <ele>62.6</ele>
        <time>2021-05-16T05:23:04Z</time>
      </trkpt>
      <trkpt lat="41.1615580" lon="-8.6521420">
        <ele>62.6</ele>
        <time>2021-05-16T05:23:05Z</time>
      </trkpt>
      <trkpt lat="41.1615670" lon="-8.6521460">
        <ele>62.5</ele>
        <time>2021-05-16T05:23:06Z</time>
      </trkpt>
      <trkpt lat="41.1615770" lon="-8.6521490">
        <ele>62.5</ele>
        <time>2021-05-16T05:23:07Z</time>
      </trkpt>
      <trkpt lat="41.1615860" lon="-8.6521530">
        <ele>62.5</ele>
        <time>2021-05-16T05:23:08Z</time>
      </trkpt>
      <trkpt lat="41.1615950" lon="-8.6521570">
        <ele>62.5</ele>
        <time>2021-05-16T05:23:09Z</time>
      </trkpt>
      <trkpt lat="41.1616050" lon="-8.6521600">
        <ele>62.5</ele>
        <time>2021-05-16T05:23:10Z</time>
      </trkpt>
      <trkpt lat="41.1616140" lon="-8.6521640">
        <ele>62.6</ele>
        <time>2021-05-16T05:23:11Z</time>
      </trkpt>
      <trkpt lat="41.1616130" lon="-8.6521640">
        <ele>62.6</ele>
        <time>2021-05-16T05:23:12Z</time>
      </trkpt>
      <trkpt lat="41.1615900" lon="-8.6521510">
        <ele>62.5</ele>
        <time>2021-05-16T05:23:13Z</time>
      </trkpt>
      <trkpt lat="41.1615880" lon="-8.6521480">
        <ele>62.5</ele>
        <time>2021-05-16T05:23:14Z</time>
      </trkpt>
      <trkpt lat="41.1615850" lon="-8.6521560">
        <ele>62.5</ele>
        <time>2021-05-16T05:23:15Z</time>
      </trkpt>
      <trkpt lat="41.1615840" lon="-8.6521570">
        <ele>62.5</ele>
        <time>2021-05-16T05:23:16Z</time>
      </trkpt>
      <trkpt lat="41.1615840" lon="-8.6521570">
        <ele>62.5</ele>
        <time>2021-05-16T05:23:17Z</time>
      </trkpt>
      <trkpt lat="41.1615860" lon="-8.6521660">
        <ele>62.6</ele>
        <time>2021-05-16T05:23:18Z</time>
      </trkpt>
      <trkpt lat="41.1615830" lon="-8.6521700">
        <ele>62.6</ele>
        <time>2021-05-16T05:23:19Z</time>
      </trkpt>
      <trkpt lat="41.1615810" lon="-8.6521900">
        <ele>62.6</ele>
        <time>2021-05-16T05:23:20Z</time>
      </trkpt>
      <trkpt lat="41.1615720" lon="-8.6521960">
        <ele>62.6</ele>
        <time>2021-05-16T05:23:21Z</time>
      </trkpt>
      <trkpt lat="41.1615710" lon="-8.6522030">
        <ele>62.6</ele>
        <time>2021-05-16T05:23:22Z</time>
      </trkpt>
      <trkpt lat="41.1615710" lon="-8.6522140">
        <ele>62.8</ele>
        <time>2021-05-16T05:23:23Z</time>
      </trkpt>
      <trkpt lat="41.1615670" lon="-8.6521900">
        <ele>62.6</ele>
        <time>2021-05-16T05:23:24Z</time>
      </trkpt>
      <trkpt lat="41.1615560" lon="-8.6522020">
        <ele>62.7</ele>
        <time>2021-05-16T05:23:25Z</time>
      </trkpt>
      <trkpt lat="41.1615590" lon="-8.6522140">
        <ele>62.8</ele>
        <time>2021-05-16T05:23:26Z</time>
      </trkpt>
      <trkpt lat="41.1615760" lon="-8.6522080">
        <ele>62.8</ele>
        <time>2021-05-16T05:23:27Z</time>
      </trkpt>
      <trkpt lat="41.1615860" lon="-8.6521990">
        <ele>62.6</ele>
        <time>2021-05-16T05:23:28Z</time>
      </trkpt>
      <trkpt lat="41.1615950" lon="-8.6521900">
        <ele>62.6</ele>
        <time>2021-05-16T05:23:29Z</time>
      </trkpt>
      <trkpt lat="41.1615930" lon="-8.6522040">
        <ele>62.6</ele>
        <time>2021-05-16T05:23:30Z</time>
      </trkpt>
      <trkpt lat="41.1615870" lon="-8.6522160">
        <ele>62.8</ele>
        <time>2021-05-16T05:23:31Z</time>
      </trkpt>
      <trkpt lat="41.1615800" lon="-8.6522280">
        <ele>62.8</ele>
        <time>2021-05-16T05:23:32Z</time>
      </trkpt>
      <trkpt lat="41.1615730" lon="-8.6522400">
        <ele>62.8</ele>
        <time>2021-05-16T05:23:33Z</time>
      </trkpt>
      <trkpt lat="41.1615750" lon="-8.6522410">
        <ele>62.8</ele>
        <time>2021-05-16T05:23:34Z</time>
      </trkpt>
      <trkpt lat="41.1615650" lon="-8.6522390">
        <ele>62.8</ele>
        <time>2021-05-16T05:23:35Z</time>
      </trkpt>
      <trkpt lat="41.1615570" lon="-8.6522380">
        <ele>62.8</ele>
        <time>2021-05-16T05:23:36Z</time>
      </trkpt>
      <trkpt lat="41.1615580" lon="-8.6522380">
        <ele>62.8</ele>
        <time>2021-05-16T05:23:37Z</time>
      </trkpt>
      <trkpt lat="41.1615640" lon="-8.6522360">
        <ele>62.8</ele>
        <time>2021-05-16T05:23:38Z</time>
      </trkpt>
      <trkpt lat="41.1615570" lon="-8.6522340">
        <ele>62.8</ele>
        <time>2021-05-16T05:23:39Z</time>
      </trkpt>
      <trkpt lat="41.1615570" lon="-8.6522340">
        <ele>62.8</ele>
        <time>2021-05-16T05:23:40Z</time>
      </trkpt>
      <trkpt lat="41.1615430" lon="-8.6522400">
        <ele>62.8</ele>
        <time>2021-05-16T05:23:41Z</time>
      </trkpt>
      <trkpt lat="41.1615570" lon="-8.6522310">
        <ele>62.8</ele>
        <time>2021-05-16T05:23:42Z</time>
      </trkpt>
      <trkpt lat="41.1615710" lon="-8.6522220">
        <ele>62.8</ele>
        <time>2021-05-16T05:23:43Z</time>
      </trkpt>
      <trkpt lat="41.1615840" lon="-8.6522140">
        <ele>62.8</ele>
        <time>2021-05-16T05:23:44Z</time>
      </trkpt>
      <trkpt lat="41.1615980" lon="-8.6522050">
        <ele>62.6</ele>
        <time>2021-05-16T05:23:45Z</time>
      </trkpt>
      <trkpt lat="41.1616120" lon="-8.6521970">
        <ele>62.6</ele>
        <time>2021-05-16T05:23:46Z</time>
      </trkpt>
      <trkpt lat="41.1616070" lon="-8.6522000">
        <ele>62.6</ele>
        <time>2021-05-16T05:23:47Z</time>
      </trkpt>
      <trkpt lat="41.1616020" lon="-8.6522040">
        <ele>62.6</ele>
        <time>2021-05-16T05:23:48Z</time>
      </trkpt>
      <trkpt lat="41.1616030" lon="-8.6522040">
        <ele>62.6</ele>
        <time>2021-05-16T05:23:49Z</time>
      </trkpt>
      <trkpt lat="41.1615800" lon="-8.6522160">
        <ele>62.8</ele>
        <time>2021-05-16T05:23:50Z</time>
      </trkpt>
      <trkpt lat="41.1616130" lon="-8.6521940">
        <ele>62.6</ele>
        <time>2021-05-16T05:23:51Z</time>
      </trkpt>
      <trkpt lat="41.1616420" lon="-8.6521740">
        <ele>62.5</ele>
        <time>2021-05-16T05:23:52Z</time>
      </trkpt>
      <trkpt lat="41.1616290" lon="-8.6521940">
        <ele>62.6</ele>
        <time>2021-05-16T05:23:53Z</time>
      </trkpt>
      <trkpt lat="41.1616160" lon="-8.6521990">
        <ele>62.6</ele>
        <time>2021-05-16T05:23:54Z</time>
      </trkpt>
      <trkpt lat="41.1616120" lon="-8.6521930">
        <ele>62.6</ele>
        <time>2021-05-16T05:23:55Z</time>
      </trkpt>
      <trkpt lat="41.1616090" lon="-8.6521840">
        <ele>62.6</ele>
        <time>2021-05-16T05:23:56Z</time>
      </trkpt>
      <trkpt lat="41.1616070" lon="-8.6521760">
        <ele>62.6</ele>
        <time>2021-05-16T05:23:57Z</time>
      </trkpt>
      <trkpt lat="41.1616050" lon="-8.6521680">
        <ele>62.6</ele>
        <time>2021-05-16T05:23:58Z</time>
      </trkpt>
      <trkpt lat="41.1616020" lon="-8.6521590">
        <ele>62.5</ele>
        <time>2021-05-16T05:23:59Z</time>
      </trkpt>
      <trkpt lat="41.1616000" lon="-8.6521510">
        <ele>62.5</ele>
        <time>2021-05-16T05:24:00Z</time>
      </trkpt>
      <trkpt lat="41.1615920" lon="-8.6521500">
        <ele>62.5</ele>
        <time>2021-05-16T05:24:01Z</time>
      </trkpt>
      <trkpt lat="41.1615830" lon="-8.6521490">
        <ele>62.5</ele>
        <time>2021-05-16T05:24:02Z</time>
      </trkpt>
      <trkpt lat="41.1615750" lon="-8.6521480">
        <ele>62.5</ele>
        <time>2021-05-16T05:24:03Z</time>
      </trkpt>
      <trkpt lat="41.1615660" lon="-8.6521470">
        <ele>62.5</ele>
        <time>2021-05-16T05:24:04Z</time>
      </trkpt>
      <trkpt lat="41.1615580" lon="-8.6521460">
        <ele>62.6</ele>
        <time>2021-05-16T05:24:05Z</time>
      </trkpt>
      <trkpt lat="41.1615620" lon="-8.6521440">
        <ele>62.6</ele>
        <time>2021-05-16T05:24:06Z</time>
      </trkpt>
      <trkpt lat="41.1615700" lon="-8.6521380">
        <ele>62.5</ele>
        <time>2021-05-16T05:24:07Z</time>
      </trkpt>
      <trkpt lat="41.1615780" lon="-8.6521330">
        <ele>62.5</ele>
        <time>2021-05-16T05:24:08Z</time>
      </trkpt>
      <trkpt lat="41.1615860" lon="-8.6521280">
        <ele>62.5</ele>
        <time>2021-05-16T05:24:09Z</time>
      </trkpt>
      <trkpt lat="41.1615940" lon="-8.6521220">
        <ele>62.5</ele>
        <time>2021-05-16T05:24:10Z</time>
      </trkpt>
      <trkpt lat="41.1616020" lon="-8.6521170">
        <ele>62.4</ele>
        <time>2021-05-16T05:24:11Z</time>
      </trkpt>
      <trkpt lat="41.1615980" lon="-8.6521180">
        <ele>62.4</ele>
        <time>2021-05-16T05:24:12Z</time>
      </trkpt>
      <trkpt lat="41.1615940" lon="-8.6521190">
        <ele>62.4</ele>
        <time>2021-05-16T05:24:13Z</time>
      </trkpt>
      <trkpt lat="41.1615890" lon="-8.6521210">
        <ele>62.5</ele>
        <time>2021-05-16T05:24:14Z</time>
      </trkpt>
      <trkpt lat="41.1615840" lon="-8.6521230">
        <ele>62.5</ele>
        <time>2021-05-16T05:24:15Z</time>
      </trkpt>
      <trkpt lat="41.1615790" lon="-8.6521240">
        <ele>62.5</ele>
        <time>2021-05-16T05:24:16Z</time>
      </trkpt>
      <trkpt lat="41.1615750" lon="-8.6521260">
        <ele>62.5</ele>
        <time>2021-05-16T05:24:17Z</time>
      </trkpt>
      <trkpt lat="41.1615700" lon="-8.6521270">
        <ele>62.5</ele>
        <time>2021-05-16T05:24:18Z</time>
      </trkpt>
      <trkpt lat="41.1615650" lon="-8.6521290">
        <ele>62.5</ele>
        <time>2021-05-16T05:24:19Z</time>
      </trkpt>
      <trkpt lat="41.1615650" lon="-8.6521290">
        <ele>62.5</ele>
        <time>2021-05-16T05:24:20Z</time>
      </trkpt>
      <trkpt lat="41.1615350" lon="-8.6521430">
        <ele>62.6</ele>
        <time>2021-05-16T05:24:21Z</time>
      </trkpt>
      <trkpt lat="41.1615940" lon="-8.6521150">
        <ele>62.4</ele>
        <time>2021-05-16T05:24:22Z</time>
      </trkpt>
      <trkpt lat="41.1615860" lon="-8.6521160">
        <ele>62.4</ele>
        <time>2021-05-16T05:24:23Z</time>
      </trkpt>
      <trkpt lat="41.1615850" lon="-8.6521180">
        <ele>62.4</ele>
        <time>2021-05-16T05:24:24Z</time>
      </trkpt>
      <trkpt lat="41.1615690" lon="-8.6521180">
        <ele>62.4</ele>
        <time>2021-05-16T05:24:25Z</time>
      </trkpt>
      <trkpt lat="41.1615600" lon="-8.6521280">
        <ele>62.6</ele>
        <time>2021-05-16T05:24:26Z</time>
      </trkpt>
      <trkpt lat="41.1615880" lon="-8.6521140">
        <ele>62.4</ele>
        <time>2021-05-16T05:24:27Z</time>
      </trkpt>
      <trkpt lat="41.1616150" lon="-8.6521010">
        <ele>62.4</ele>
        <time>2021-05-16T05:24:28Z</time>
      </trkpt>
      <trkpt lat="41.1616130" lon="-8.6521020">
        <ele>62.4</ele>
        <time>2021-05-16T05:24:29Z</time>
      </trkpt>
      <trkpt lat="41.1616110" lon="-8.6521010">
        <ele>62.4</ele>
        <time>2021-05-16T05:24:30Z</time>
      </trkpt>
      <trkpt lat="41.1616190" lon="-8.6520920">
        <ele>62.4</ele>
        <time>2021-05-16T05:24:31Z</time>
      </trkpt>
      <trkpt lat="41.1616250" lon="-8.6520860">
        <ele>62.4</ele>
        <time>2021-05-16T05:24:32Z</time>
      </trkpt>
      <trkpt lat="41.1616040" lon="-8.6520900">
        <ele>62.4</ele>
        <time>2021-05-16T05:24:33Z</time>
      </trkpt>
      <trkpt lat="41.1616300" lon="-8.6520780">
        <ele>62.3</ele>
        <time>2021-05-16T05:24:34Z</time>
      </trkpt>
      <trkpt lat="41.1616230" lon="-8.6520880">
        <ele>62.4</ele>
        <time>2021-05-16T05:24:35Z</time>
      </trkpt>
      <trkpt lat="41.1616120" lon="-8.6520840">
        <ele>62.4</ele>
        <time>2021-05-16T05:24:36Z</time>
      </trkpt>
      <trkpt lat="41.1616000" lon="-8.6520910">
        <ele>62.4</ele>
        <time>2021-05-16T05:24:37Z</time>
      </trkpt>
      <trkpt lat="41.1615990" lon="-8.6520920">
        <ele>62.4</ele>
        <time>2021-05-16T05:24:38Z</time>
      </trkpt>
      <trkpt lat="41.1616040" lon="-8.6520910">
        <ele>62.4</ele>
        <time>2021-05-16T05:24:39Z</time>
      </trkpt>
      <trkpt lat="41.1616370" lon="-8.6520710">
        <ele>62.2</ele>
        <time>2021-05-16T05:24:40Z</time>
      </trkpt>
      <trkpt lat="41.1616340" lon="-8.6520750">
        <ele>62.2</ele>
        <time>2021-05-16T05:24:41Z</time>
      </trkpt>
      <trkpt lat="41.1616490" lon="-8.6520640">
        <ele>62.2</ele>
        <time>2021-05-16T05:24:42Z</time>
      </trkpt>
      <trkpt lat="41.1616510" lon="-8.6520630">
        <ele>62.2</ele>
        <time>2021-05-16T05:24:43Z</time>
      </trkpt>
      <trkpt lat="41.1616570" lon="-8.6520580">
        <ele>62.2</ele>
        <time>2021-05-16T05:24:44Z</time>
      </trkpt>
      <trkpt lat="41.1616660" lon="-8.6520590">
        <ele>62.2</ele>
        <time>2021-05-16T05:24:45Z</time>
      </trkpt>
      <trkpt lat="41.1616460" lon="-8.6520590">
        <ele>62.2</ele>
        <time>2021-05-16T05:24:46Z</time>
      </trkpt>
      <trkpt lat="41.1616380" lon="-8.6520610">
        <ele>62.2</ele>
        <time>2021-05-16T05:24:47Z</time>
      </trkpt>
      <trkpt lat="41.1616350" lon="-8.6520630">
        <ele>62.2</ele>
        <time>2021-05-16T05:24:48Z</time>
      </trkpt>
      <trkpt lat="41.1616330" lon="-8.6520380">
        <ele>62.2</ele>
        <time>2021-05-16T05:24:49Z</time>
      </trkpt>
      <trkpt lat="41.1616280" lon="-8.6520530">
        <ele>62.3</ele>
        <time>2021-05-16T05:24:50Z</time>
      </trkpt>
      <trkpt lat="41.1616170" lon="-8.6520460">
        <ele>62.3</ele>
        <time>2021-05-16T05:24:51Z</time>
      </trkpt>
      <trkpt lat="41.1616350" lon="-8.6520550">
        <ele>62.2</ele>
        <time>2021-05-16T05:24:52Z</time>
      </trkpt>
      <trkpt lat="41.1616240" lon="-8.6520740">
        <ele>62.3</ele>
        <time>2021-05-16T05:24:53Z</time>
      </trkpt>
      <trkpt lat="41.1616090" lon="-8.6520800">
        <ele>62.4</ele>
        <time>2021-05-16T05:24:54Z</time>
      </trkpt>
      <trkpt lat="41.1616110" lon="-8.6521280">
        <ele>62.5</ele>
        <time>2021-05-16T05:24:55Z</time>
      </trkpt>
      <trkpt lat="41.1616330" lon="-8.6521140">
        <ele>62.3</ele>
        <time>2021-05-16T05:24:56Z</time>
      </trkpt>
      <trkpt lat="41.1616490" lon="-8.6520810">
        <ele>62.3</ele>
        <time>2021-05-16T05:24:57Z</time>
      </trkpt>
      <trkpt lat="41.1616640" lon="-8.6520480">
        <ele>62.2</ele>
        <time>2021-05-16T05:24:58Z</time>
      </trkpt>
      <trkpt lat="41.1616470" lon="-8.6520380">
        <ele>62.2</ele>
        <time>2021-05-16T05:24:59Z</time>
      </trkpt>
      <trkpt lat="41.1616420" lon="-8.6520560">
        <ele>62.2</ele>
        <time>2021-05-16T05:25:00Z</time>
      </trkpt>
      <trkpt lat="41.1616420" lon="-8.6520160">
        <ele>62.1</ele>
        <time>2021-05-16T05:25:01Z</time>
      </trkpt>
      <trkpt lat="41.1616440" lon="-8.6519960">
        <ele>62.1</ele>
        <time>2021-05-16T05:25:02Z</time>
      </trkpt>
      <trkpt lat="41.1616370" lon="-8.6520110">
        <ele>62.1</ele>
        <time>2021-05-16T05:25:03Z</time>
      </trkpt>
      <trkpt lat="41.1616710" lon="-8.6520010">
        <ele>62.1</ele>
        <time>2021-05-16T05:25:04Z</time>
      </trkpt>
      <trkpt lat="41.1616710" lon="-8.6520020">
        <ele>62.1</ele>
        <time>2021-05-16T05:25:05Z</time>
      </trkpt>
      <trkpt lat="41.1616680" lon="-8.6519900">
        <ele>62.0</ele>
        <time>2021-05-16T05:25:06Z</time>
      </trkpt>
      <trkpt lat="41.1616740" lon="-8.6519790">
        <ele>62.0</ele>
        <time>2021-05-16T05:25:07Z</time>
      </trkpt>
      <trkpt lat="41.1616780" lon="-8.6519830">
        <ele>62.0</ele>
        <time>2021-05-16T05:25:08Z</time>
      </trkpt>
      <trkpt lat="41.1616850" lon="-8.6519780">
        <ele>62.0</ele>
        <time>2021-05-16T05:25:09Z</time>
      </trkpt>
      <trkpt lat="41.1616780" lon="-8.6519570">
        <ele>62.0</ele>
        <time>2021-05-16T05:25:10Z</time>
      </trkpt>
      <trkpt lat="41.1617000" lon="-8.6519310">
        <ele>61.8</ele>
        <time>2021-05-16T05:25:11Z</time>
      </trkpt>
      <trkpt lat="41.1617040" lon="-8.6519530">
        <ele>61.9</ele>
        <time>2021-05-16T05:25:12Z</time>
      </trkpt>
      <trkpt lat="41.1617020" lon="-8.6519790">
        <ele>61.9</ele>
        <time>2021-05-16T05:25:13Z</time>
      </trkpt>
      <trkpt lat="41.1617000" lon="-8.6520060">
        <ele>62.0</ele>
        <time>2021-05-16T05:25:14Z</time>
      </trkpt>
      <trkpt lat="41.1616980" lon="-8.6520320">
        <ele>62.0</ele>
        <time>2021-05-16T05:25:15Z</time>
      </trkpt>
      <trkpt lat="41.1616800" lon="-8.6520240">
        <ele>62.1</ele>
        <time>2021-05-16T05:25:16Z</time>
      </trkpt>
      <trkpt lat="41.1616730" lon="-8.6520260">
        <ele>62.1</ele>
        <time>2021-05-16T05:25:17Z</time>
      </trkpt>
      <trkpt lat="41.1616700" lon="-8.6520240">
        <ele>62.1</ele>
        <time>2021-05-16T05:25:18Z</time>
      </trkpt>
      <trkpt lat="41.1616670" lon="-8.6520120">
        <ele>62.1</ele>
        <time>2021-05-16T05:25:19Z</time>
      </trkpt>
      <trkpt lat="41.1616900" lon="-8.6520110">
        <ele>62.1</ele>
        <time>2021-05-16T05:25:20Z</time>
      </trkpt>
      <trkpt lat="41.1616870" lon="-8.6520140">
        <ele>62.1</ele>
        <time>2021-05-16T05:25:21Z</time>
      </trkpt>
      <trkpt lat="41.1616840" lon="-8.6520190">
        <ele>62.1</ele>
        <time>2021-05-16T05:25:22Z</time>
      </trkpt>
      <trkpt lat="41.1616860" lon="-8.6520110">
        <ele>62.1</ele>
        <time>2021-05-16T05:25:23Z</time>
      </trkpt>
      <trkpt lat="41.1616730" lon="-8.6520320">
        <ele>62.1</ele>
        <time>2021-05-16T05:25:24Z</time>
      </trkpt>
      <trkpt lat="41.1616680" lon="-8.6520430">
        <ele>62.2</ele>
        <time>2021-05-16T05:25:25Z</time>
      </trkpt>
      <trkpt lat="41.1616650" lon="-8.6520520">
        <ele>62.2</ele>
        <time>2021-05-16T05:25:26Z</time>
      </trkpt>
      <trkpt lat="41.1616630" lon="-8.6520580">
        <ele>62.2</ele>
        <time>2021-05-16T05:25:27Z</time>
      </trkpt>
      <trkpt lat="41.1616630" lon="-8.6520580">
        <ele>62.2</ele>
        <time>2021-05-16T05:25:28Z</time>
      </trkpt>
      <trkpt lat="41.1616600" lon="-8.6520690">
        <ele>62.2</ele>
        <time>2021-05-16T05:25:29Z</time>
      </trkpt>
      <trkpt lat="41.1616580" lon="-8.6520730">
        <ele>62.2</ele>
        <time>2021-05-16T05:25:30Z</time>
      </trkpt>
      <trkpt lat="41.1616560" lon="-8.6520780">
        <ele>62.3</ele>
        <time>2021-05-16T05:25:31Z</time>
      </trkpt>
      <trkpt lat="41.1616650" lon="-8.6521050">
        <ele>62.3</ele>
        <time>2021-05-16T05:25:32Z</time>
      </trkpt>
      <trkpt lat="41.1616620" lon="-8.6521130">
        <ele>62.3</ele>
        <time>2021-05-16T05:25:33Z</time>
      </trkpt>
      <trkpt lat="41.1616570" lon="-8.6521220">
        <ele>62.4</ele>
        <time>2021-05-16T05:25:34Z</time>
      </trkpt>
      <trkpt lat="41.1616530" lon="-8.6521260">
        <ele>62.4</ele>
        <time>2021-05-16T05:25:35Z</time>
      </trkpt>
      <trkpt lat="41.1616290" lon="-8.6521090">
        <ele>62.4</ele>
        <time>2021-05-16T05:25:36Z</time>
      </trkpt>
      <trkpt lat="41.1615890" lon="-8.6520800">
        <ele>62.4</ele>
        <time>2021-05-16T05:25:37Z</time>
      </trkpt>
      <trkpt lat="41.1615430" lon="-8.6520620">
        <ele>62.4</ele>
        <time>2021-05-16T05:25:38Z</time>
      </trkpt>
      <trkpt lat="41.1615220" lon="-8.6520980">
        <ele>62.5</ele>
        <time>2021-05-16T05:25:39Z</time>
      </trkpt>
      <trkpt lat="41.1614930" lon="-8.6521420">
        <ele>62.7</ele>
        <time>2021-05-16T05:25:40Z</time>
      </trkpt>
      <trkpt lat="41.1614550" lon="-8.6521640">
        <ele>62.8</ele>
        <time>2021-05-16T05:25:41Z</time>
      </trkpt>
      <trkpt lat="41.1614180" lon="-8.6522200">
        <ele>63.0</ele>
        <time>2021-05-16T05:25:42Z</time>
      </trkpt>
      <trkpt lat="41.1614520" lon="-8.6521740">
        <ele>62.8</ele>
        <time>2021-05-16T05:25:43Z</time>
      </trkpt>
      <trkpt lat="41.1614760" lon="-8.6521270">
        <ele>62.7</ele>
        <time>2021-05-16T05:25:44Z</time>
      </trkpt>
      <trkpt lat="41.1615130" lon="-8.6520860">
        <ele>62.5</ele>
        <time>2021-05-16T05:25:45Z</time>
      </trkpt>
      <trkpt lat="41.1615310" lon="-8.6520790">
        <ele>62.5</ele>
        <time>2021-05-16T05:25:46Z</time>
      </trkpt>
      <trkpt lat="41.1615490" lon="-8.6520710">
        <ele>62.4</ele>
        <time>2021-05-16T05:25:47Z</time>
      </trkpt>
      <trkpt lat="41.1615670" lon="-8.6520640">
        <ele>62.3</ele>
        <time>2021-05-16T05:25:48Z</time>
      </trkpt>
      <trkpt lat="41.1615680" lon="-8.6520680">
        <ele>62.3</ele>
        <time>2021-05-16T05:25:49Z</time>
      </trkpt>
      <trkpt lat="41.1615770" lon="-8.6520810">
        <ele>62.4</ele>
        <time>2021-05-16T05:25:50Z</time>
      </trkpt>
      <trkpt lat="41.1615800" lon="-8.6520840">
        <ele>62.4</ele>
        <time>2021-05-16T05:25:51Z</time>
      </trkpt>
      <trkpt lat="41.1615910" lon="-8.6520870">
        <ele>62.4</ele>
        <time>2021-05-16T05:25:52Z</time>
      </trkpt>
      <trkpt lat="41.1615970" lon="-8.6520900">
        <ele>62.4</ele>
        <time>2021-05-16T05:25:53Z</time>
      </trkpt>
      <trkpt lat="41.1616160" lon="-8.6520900">
        <ele>62.4</ele>
        <time>2021-05-16T05:25:54Z</time>
      </trkpt>
      <trkpt lat="41.1615980" lon="-8.6520940">
        <ele>62.4</ele>
        <time>2021-05-16T05:25:55Z</time>
      </trkpt>
      <trkpt lat="41.1615920" lon="-8.6520960">
        <ele>62.4</ele>
        <time>2021-05-16T05:25:56Z</time>
      </trkpt>
      <trkpt lat="41.1616140" lon="-8.6520860">
        <ele>62.4</ele>
        <time>2021-05-16T05:25:57Z</time>
      </trkpt>
      <trkpt lat="41.1616030" lon="-8.6520880">
        <ele>62.4</ele>
        <time>2021-05-16T05:25:58Z</time>
      </trkpt>
      <trkpt lat="41.1616110" lon="-8.6520760">
        <ele>62.3</ele>
        <time>2021-05-16T05:25:59Z</time>
      </trkpt>
      <trkpt lat="41.1616130" lon="-8.6520830">
        <ele>62.4</ele>
        <time>2021-05-16T05:26:00Z</time>
      </trkpt>
      <trkpt lat="41.1616190" lon="-8.6520930">
        <ele>62.4</ele>
        <time>2021-05-16T05:26:01Z</time>
      </trkpt>
      <trkpt lat="41.1616280" lon="-8.6521090">
        <ele>62.4</ele>
        <time>2021-05-16T05:26:02Z</time>
      </trkpt>
      <trkpt lat="41.1616370" lon="-8.6521220">
        <ele>62.4</ele>
        <time>2021-05-16T05:26:03Z</time>
      </trkpt>
      <trkpt lat="41.1616450" lon="-8.6521410">
        <ele>62.4</ele>
        <time>2021-05-16T05:26:04Z</time>
      </trkpt>
      <trkpt lat="41.1616570" lon="-8.6521520">
        <ele>62.4</ele>
        <time>2021-05-16T05:26:05Z</time>
      </trkpt>
      <trkpt lat="41.1616810" lon="-8.6521690">
        <ele>62.5</ele>
        <time>2021-05-16T05:26:06Z</time>
      </trkpt>
      <trkpt lat="41.1616890" lon="-8.6521920">
        <ele>62.5</ele>
        <time>2021-05-16T05:26:07Z</time>
      </trkpt>
      <trkpt lat="41.1616950" lon="-8.6522020">
        <ele>62.4</ele>
        <time>2021-05-16T05:26:08Z</time>
      </trkpt>
      <trkpt lat="41.1617000" lon="-8.6522120">
        <ele>62.5</ele>
        <time>2021-05-16T05:26:09Z</time>
      </trkpt>
      <trkpt lat="41.1617030" lon="-8.6522270">
        <ele>62.5</ele>
        <time>2021-05-16T05:26:10Z</time>
      </trkpt>
      <trkpt lat="41.1617120" lon="-8.6522510">
        <ele>62.6</ele>
        <time>2021-05-16T05:26:11Z</time>
      </trkpt>
      <trkpt lat="41.1617220" lon="-8.6522580">
        <ele>62.6</ele>
        <time>2021-05-16T05:26:12Z</time>
      </trkpt>
      <trkpt lat="41.1617310" lon="-8.6522700">
        <ele>62.5</ele>
        <time>2021-05-16T05:26:13Z</time>
      </trkpt>
      <trkpt lat="41.1617370" lon="-8.6522860">
        <ele>62.5</ele>
        <time>2021-05-16T05:26:14Z</time>
      </trkpt>
      <trkpt lat="41.1617450" lon="-8.6523170">
        <ele>62.6</ele>
        <time>2021-05-16T05:26:15Z</time>
      </trkpt>
      <trkpt lat="41.1617480" lon="-8.6523320">
        <ele>62.6</ele>
        <time>2021-05-16T05:26:16Z</time>
      </trkpt>
      <trkpt lat="41.1617510" lon="-8.6523460">
        <ele>62.6</ele>
        <time>2021-05-16T05:26:17Z</time>
      </trkpt>
      <trkpt lat="41.1617500" lon="-8.6523610">
        <ele>62.6</ele>
        <time>2021-05-16T05:26:18Z</time>
      </trkpt>
      <trkpt lat="41.1617570" lon="-8.6523790">
        <ele>62.6</ele>
        <time>2021-05-16T05:26:19Z</time>
      </trkpt>
      <trkpt lat="41.1617600" lon="-8.6523920">
        <ele>62.6</ele>
        <time>2021-05-16T05:26:20Z</time>
      </trkpt>
      <trkpt lat="41.1617670" lon="-8.6524040">
        <ele>62.6</ele>
        <time>2021-05-16T05:26:21Z</time>
      </trkpt>
      <trkpt lat="41.1617750" lon="-8.6524140">
        <ele>62.6</ele>
        <time>2021-05-16T05:26:22Z</time>
      </trkpt>
      <trkpt lat="41.1617780" lon="-8.6524300">
        <ele>62.6</ele>
        <time>2021-05-16T05:26:23Z</time>
      </trkpt>
      <trkpt lat="41.1617830" lon="-8.6524440">
        <ele>62.6</ele>
        <time>2021-05-16T05:26:24Z</time>
      </trkpt>
      <trkpt lat="41.1617890" lon="-8.6524670">
        <ele>62.7</ele>
        <time>2021-05-16T05:26:25Z</time>
      </trkpt>
      <trkpt lat="41.1617850" lon="-8.6524770">
        <ele>62.7</ele>
        <time>2021-05-16T05:26:26Z</time>
      </trkpt>
      <trkpt lat="41.1617960" lon="-8.6525020">
        <ele>62.7</ele>
        <time>2021-05-16T05:26:27Z</time>
      </trkpt>
      <trkpt lat="41.1617960" lon="-8.6525160">
        <ele>62.7</ele>
        <time>2021-05-16T05:26:28Z</time>
      </trkpt>
      <trkpt lat="41.1617970" lon="-8.6525300">
        <ele>62.7</ele>
        <time>2021-05-16T05:26:29Z</time>
      </trkpt>
      <trkpt lat="41.1617960" lon="-8.6525500">
        <ele>62.7</ele>
        <time>2021-05-16T05:26:30Z</time>
      </trkpt>
      <trkpt lat="41.1617940" lon="-8.6525550">
        <ele>62.7</ele>
        <time>2021-05-16T05:26:31Z</time>
      </trkpt>
      <trkpt lat="41.1617970" lon="-8.6525700">
        <ele>62.7</ele>
        <time>2021-05-16T05:26:32Z</time>
      </trkpt>
      <trkpt lat="41.1618030" lon="-8.6525890">
        <ele>62.7</ele>
        <time>2021-05-16T05:26:33Z</time>
      </trkpt>
      <trkpt lat="41.1618030" lon="-8.6526190">
        <ele>62.7</ele>
        <time>2021-05-16T05:26:34Z</time>
      </trkpt>
      <trkpt lat="41.1618030" lon="-8.6526310">
        <ele>62.7</ele>
        <time>2021-05-16T05:26:35Z</time>
      </trkpt>
      <trkpt lat="41.1618030" lon="-8.6526420">
        <ele>62.7</ele>
        <time>2021-05-16T05:26:36Z</time>
      </trkpt>
      <trkpt lat="41.1618040" lon="-8.6526520">
        <ele>62.7</ele>
        <time>2021-05-16T05:26:37Z</time>
      </trkpt>
      <trkpt lat="41.1618100" lon="-8.6526540">
        <ele>62.7</ele>
        <time>2021-05-16T05:26:38Z</time>
      </trkpt>
      <trkpt lat="41.1618170" lon="-8.6526560">
        <ele>62.7</ele>
        <time>2021-05-16T05:26:39Z</time>
      </trkpt>
      <trkpt lat="41.1618240" lon="-8.6526590">
        <ele>62.7</ele>
        <time>2021-05-16T05:26:40Z</time>
      </trkpt>
      <trkpt lat="41.1618300" lon="-8.6526610">
        <ele>62.7</ele>
        <time>2021-05-16T05:26:41Z</time>
      </trkpt>
      <trkpt lat="41.1618370" lon="-8.6526630">
        <ele>62.7</ele>
        <time>2021-05-16T05:26:42Z</time>
      </trkpt>
      <trkpt lat="41.1618450" lon="-8.6526620">
        <ele>62.7</ele>
        <time>2021-05-16T05:26:43Z</time>
      </trkpt>
      <trkpt lat="41.1618440" lon="-8.6526630">
        <ele>62.7</ele>
        <time>2021-05-16T05:26:44Z</time>
      </trkpt>
      <trkpt lat="41.1618560" lon="-8.6526670">
        <ele>62.8</ele>
        <time>2021-05-16T05:26:45Z</time>
      </trkpt>
      <trkpt lat="41.1618720" lon="-8.6526630">
        <ele>62.8</ele>
        <time>2021-05-16T05:26:46Z</time>
      </trkpt>
      <trkpt lat="41.1618820" lon="-8.6526670">
        <ele>62.8</ele>
        <time>2021-05-16T05:26:47Z</time>
      </trkpt>
      <trkpt lat="41.1618870" lon="-8.6526640">
        <ele>62.8</ele>
        <time>2021-05-16T05:26:48Z</time>
      </trkpt>
      <trkpt lat="41.1619000" lon="-8.6526670">
        <ele>62.8</ele>
        <time>2021-05-16T05:26:49Z</time>
      </trkpt>
      <trkpt lat="41.1619050" lon="-8.6526710">
        <ele>62.8</ele>
        <time>2021-05-16T05:26:50Z</time>
      </trkpt>
      <trkpt lat="41.1619170" lon="-8.6526790">
        <ele>62.8</ele>
        <time>2021-05-16T05:26:51Z</time>
      </trkpt>
      <trkpt lat="41.1619260" lon="-8.6526860">
        <ele>62.8</ele>
        <time>2021-05-16T05:26:52Z</time>
      </trkpt>
      <trkpt lat="41.1619430" lon="-8.6526960">
        <ele>62.8</ele>
        <time>2021-05-16T05:26:53Z</time>
      </trkpt>
      <trkpt lat="41.1619530" lon="-8.6527050">
        <ele>62.8</ele>
        <time>2021-05-16T05:26:54Z</time>
      </trkpt>
      <trkpt lat="41.1619630" lon="-8.6527190">
        <ele>62.8</ele>
        <time>2021-05-16T05:26:55Z</time>
      </trkpt>
      <trkpt lat="41.1619700" lon="-8.6527250">
        <ele>62.8</ele>
        <time>2021-05-16T05:26:56Z</time>
      </trkpt>
      <trkpt lat="41.1619760" lon="-8.6527410">
        <ele>62.8</ele>
        <time>2021-05-16T05:26:57Z</time>
      </trkpt>
      <trkpt lat="41.1619810" lon="-8.6527450">
        <ele>62.8</ele>
        <time>2021-05-16T05:26:58Z</time>
      </trkpt>
      <trkpt lat="41.1619960" lon="-8.6527640">
        <ele>62.8</ele>
        <time>2021-05-16T05:26:59Z</time>
      </trkpt>
      <trkpt lat="41.1619990" lon="-8.6527780">
        <ele>62.8</ele>
        <time>2021-05-16T05:27:00Z</time>
      </trkpt>
      <trkpt lat="41.1620010" lon="-8.6527940">
        <ele>62.8</ele>
        <time>2021-05-16T05:27:01Z</time>
      </trkpt>
      <trkpt lat="41.1620030" lon="-8.6528000">
        <ele>62.8</ele>
        <time>2021-05-16T05:27:02Z</time>
      </trkpt>
      <trkpt lat="41.1620070" lon="-8.6528240">
        <ele>62.8</ele>
        <time>2021-05-16T05:27:03Z</time>
      </trkpt>
      <trkpt lat="41.1620090" lon="-8.6528370">
        <ele>62.8</ele>
        <time>2021-05-16T05:27:04Z</time>
      </trkpt>
      <trkpt lat="41.1620110" lon="-8.6528520">
        <ele>62.8</ele>
        <time>2021-05-16T05:27:05Z</time>
      </trkpt>
      <trkpt lat="41.1620160" lon="-8.6528690">
        <ele>62.8</ele>
        <time>2021-05-16T05:27:06Z</time>
      </trkpt>
      <trkpt lat="41.1620290" lon="-8.6528960">
        <ele>62.9</ele>
        <time>2021-05-16T05:27:07Z</time>
      </trkpt>
      <trkpt lat="41.1620350" lon="-8.6529070">
        <ele>62.9</ele>
        <time>2021-05-16T05:27:08Z</time>
      </trkpt>
      <trkpt lat="41.1620400" lon="-8.6529190">
        <ele>62.9</ele>
        <time>2021-05-16T05:27:09Z</time>
      </trkpt>
      <trkpt lat="41.1620380" lon="-8.6529380">
        <ele>62.9</ele>
        <time>2021-05-16T05:27:10Z</time>
      </trkpt>
      <trkpt lat="41.1620420" lon="-8.6529630">
        <ele>62.9</ele>
        <time>2021-05-16T05:27:11Z</time>
      </trkpt>
      <trkpt lat="41.1620420" lon="-8.6529880">
        <ele>62.9</ele>
        <time>2021-05-16T05:27:12Z</time>
      </trkpt>
      <trkpt lat="41.1620540" lon="-8.6529970">
        <ele>62.9</ele>
        <time>2021-05-16T05:27:13Z</time>
      </trkpt>
      <trkpt lat="41.1620520" lon="-8.6530010">
        <ele>62.9</ele>
        <time>2021-05-16T05:27:14Z</time>
      </trkpt>
      <trkpt lat="41.1620650" lon="-8.6530080">
        <ele>62.9</ele>
        <time>2021-05-16T05:27:15Z</time>
      </trkpt>
      <trkpt lat="41.1620660" lon="-8.6530310">
        <ele>62.9</ele>
        <time>2021-05-16T05:27:16Z</time>
      </trkpt>
      <trkpt lat="41.1620770" lon="-8.6530620">
        <ele>62.9</ele>
        <time>2021-05-16T05:27:17Z</time>
      </trkpt>
      <trkpt lat="41.1620750" lon="-8.6530730">
        <ele>62.9</ele>
        <time>2021-05-16T05:27:18Z</time>
      </trkpt>
      <trkpt lat="41.1620770" lon="-8.6531100">
        <ele>62.9</ele>
        <time>2021-05-16T05:27:19Z</time>
      </trkpt>
      <trkpt lat="41.1620790" lon="-8.6531230">
        <ele>62.9</ele>
        <time>2021-05-16T05:27:20Z</time>
      </trkpt>
      <trkpt lat="41.1620920" lon="-8.6531400">
        <ele>62.9</ele>
        <time>2021-05-16T05:27:21Z</time>
      </trkpt>
      <trkpt lat="41.1620960" lon="-8.6531600">
        <ele>62.9</ele>
        <time>2021-05-16T05:27:22Z</time>
      </trkpt>
      <trkpt lat="41.1621040" lon="-8.6531870">
        <ele>63.0</ele>
        <time>2021-05-16T05:27:23Z</time>
      </trkpt>
      <trkpt lat="41.1621070" lon="-8.6532030">
        <ele>63.0</ele>
        <time>2021-05-16T05:27:24Z</time>
      </trkpt>
      <trkpt lat="41.1621110" lon="-8.6532230">
        <ele>63.0</ele>
        <time>2021-05-16T05:27:25Z</time>
      </trkpt>
      <trkpt lat="41.1621140" lon="-8.6532450">
        <ele>63.0</ele>
        <time>2021-05-16T05:27:26Z</time>
      </trkpt>
      <trkpt lat="41.1621250" lon="-8.6532710">
        <ele>63.0</ele>
        <time>2021-05-16T05:27:27Z</time>
      </trkpt>
      <trkpt lat="41.1621240" lon="-8.6532850">
        <ele>63.0</ele>
        <time>2021-05-16T05:27:28Z</time>
      </trkpt>
      <trkpt lat="41.1621240" lon="-8.6532990">
        <ele>63.0</ele>
        <time>2021-05-16T05:27:29Z</time>
      </trkpt>
      <trkpt lat="41.1621300" lon="-8.6533130">
        <ele>63.0</ele>
        <time>2021-05-16T05:27:30Z</time>
      </trkpt>
      <trkpt lat="41.1621350" lon="-8.6533320">
        <ele>63.0</ele>
        <time>2021-05-16T05:27:31Z</time>
      </trkpt>
      <trkpt lat="41.1621300" lon="-8.6533420">
        <ele>63.0</ele>
        <time>2021-05-16T05:27:32Z</time>
      </trkpt>
      <trkpt lat="41.1621330" lon="-8.6533650">
        <ele>63.0</ele>
        <time>2021-05-16T05:27:33Z</time>
      </trkpt>
      <trkpt lat="41.1621440" lon="-8.6533790">
        <ele>63.0</ele>
        <time>2021-05-16T05:27:34Z</time>
      </trkpt>
      <trkpt lat="41.1621470" lon="-8.6533970">
        <ele>63.0</ele>
        <time>2021-05-16T05:27:35Z</time>
      </trkpt>
      <trkpt lat="41.1621530" lon="-8.6534170">
        <ele>63.1</ele>
        <time>2021-05-16T05:27:36Z</time>
      </trkpt>
      <trkpt lat="41.1621640" lon="-8.6534530">
        <ele>63.1</ele>
        <time>2021-05-16T05:27:37Z</time>
      </trkpt>
      <trkpt lat="41.1621700" lon="-8.6534650">
        <ele>63.1</ele>
        <time>2021-05-16T05:27:38Z</time>
      </trkpt>
      <trkpt lat="41.1621690" lon="-8.6534760">
        <ele>63.1</ele>
        <time>2021-05-16T05:27:39Z</time>
      </trkpt>
      <trkpt lat="41.1621770" lon="-8.6535040">
        <ele>63.1</ele>
        <time>2021-05-16T05:27:40Z</time>
      </trkpt>
      <trkpt lat="41.1621740" lon="-8.6535210">
        <ele>63.1</ele>
        <time>2021-05-16T05:27:41Z</time>
      </trkpt>
      <trkpt lat="41.1621790" lon="-8.6535370">
        <ele>63.1</ele>
        <time>2021-05-16T05:27:42Z</time>
      </trkpt>
      <trkpt lat="41.1621820" lon="-8.6535450">
        <ele>63.1</ele>
        <time>2021-05-16T05:27:43Z</time>
      </trkpt>
      <trkpt lat="41.1621850" lon="-8.6535750">
        <ele>63.1</ele>
        <time>2021-05-16T05:27:44Z</time>
      </trkpt>
      <trkpt lat="41.1621860" lon="-8.6535860">
        <ele>63.1</ele>
        <time>2021-05-16T05:27:45Z</time>
      </trkpt>
      <trkpt lat="41.1621860" lon="-8.6535980">
        <ele>63.1</ele>
        <time>2021-05-16T05:27:46Z</time>
      </trkpt>
      <trkpt lat="41.1621900" lon="-8.6536170">
        <ele>63.1</ele>
        <time>2021-05-16T05:27:47Z</time>
      </trkpt>
      <trkpt lat="41.1621970" lon="-8.6536300">
        <ele>63.1</ele>
        <time>2021-05-16T05:27:48Z</time>
      </trkpt>
      <trkpt lat="41.1622000" lon="-8.6536480">
        <ele>63.2</ele>
        <time>2021-05-16T05:27:49Z</time>
      </trkpt>
      <trkpt lat="41.1621930" lon="-8.6536620">
        <ele>63.2</ele>
        <time>2021-05-16T05:27:50Z</time>
      </trkpt>
      <trkpt lat="41.1621970" lon="-8.6536680">
        <ele>63.2</ele>
        <time>2021-05-16T05:27:51Z</time>
      </trkpt>
      <trkpt lat="41.1622040" lon="-8.6536870">
        <ele>63.2</ele>
        <time>2021-05-16T05:27:52Z</time>
      </trkpt>
      <trkpt lat="41.1622050" lon="-8.6537140">
        <ele>63.2</ele>
        <time>2021-05-16T05:27:53Z</time>
      </trkpt>
      <trkpt lat="41.1622070" lon="-8.6537580">
        <ele>63.2</ele>
        <time>2021-05-16T05:27:54Z</time>
      </trkpt>
      <trkpt lat="41.1622060" lon="-8.6537690">
        <ele>63.2</ele>
        <time>2021-05-16T05:27:55Z</time>
      </trkpt>
      <trkpt lat="41.1622070" lon="-8.6538050">
        <ele>63.2</ele>
        <time>2021-05-16T05:27:56Z</time>
      </trkpt>
      <trkpt lat="41.1622050" lon="-8.6538170">
        <ele>63.2</ele>
        <time>2021-05-16T05:27:57Z</time>
      </trkpt>
      <trkpt lat="41.1622110" lon="-8.6538370">
        <ele>63.2</ele>
        <time>2021-05-16T05:27:58Z</time>
      </trkpt>
      <trkpt lat="41.1622140" lon="-8.6538560">
        <ele>63.2</ele>
        <time>2021-05-16T05:27:59Z</time>
      </trkpt>
      <trkpt lat="41.1622130" lon="-8.6538730">
        <ele>63.3</ele>
        <time>2021-05-16T05:28:00Z</time>
      </trkpt>
      <trkpt lat="41.1622130" lon="-8.6538810">
        <ele>63.3</ele>
        <time>2021-05-16T05:28:01Z</time>
      </trkpt>
      <trkpt lat="41.1622070" lon="-8.6538910">
        <ele>63.3</ele>
        <time>2021-05-16T05:28:02Z</time>
      </trkpt>
      <trkpt lat="41.1622050" lon="-8.6539060">
        <ele>63.3</ele>
        <time>2021-05-16T05:28:03Z</time>
      </trkpt>
      <trkpt lat="41.1621990" lon="-8.6539200">
        <ele>63.3</ele>
        <time>2021-05-16T05:28:04Z</time>
      </trkpt>
      <trkpt lat="41.1621990" lon="-8.6539350">
        <ele>63.3</ele>
        <time>2021-05-16T05:28:05Z</time>
      </trkpt>
      <trkpt lat="41.1621990" lon="-8.6539640">
        <ele>63.3</ele>
        <time>2021-05-16T05:28:06Z</time>
      </trkpt>
      <trkpt lat="41.1622000" lon="-8.6539760">
        <ele>63.3</ele>
        <time>2021-05-16T05:28:07Z</time>
      </trkpt>
      <trkpt lat="41.1622010" lon="-8.6539880">
        <ele>63.3</ele>
        <time>2021-05-16T05:28:08Z</time>
      </trkpt>
      <trkpt lat="41.1622080" lon="-8.6540160">
        <ele>63.3</ele>
        <time>2021-05-16T05:28:09Z</time>
      </trkpt>
      <trkpt lat="41.1622090" lon="-8.6540330">
        <ele>63.3</ele>
        <time>2021-05-16T05:28:10Z</time>
      </trkpt>
      <trkpt lat="41.1622090" lon="-8.6540490">
        <ele>63.4</ele>
        <time>2021-05-16T05:28:11Z</time>
      </trkpt>
      <trkpt lat="41.1622110" lon="-8.6540750">
        <ele>63.4</ele>
        <time>2021-05-16T05:28:12Z</time>
      </trkpt>
      <trkpt lat="41.1622120" lon="-8.6540890">
        <ele>63.4</ele>
        <time>2021-05-16T05:28:13Z</time>
      </trkpt>
      <trkpt lat="41.1622120" lon="-8.6541030">
        <ele>63.4</ele>
        <time>2021-05-16T05:28:14Z</time>
      </trkpt>
      <trkpt lat="41.1622220" lon="-8.6541180">
        <ele>63.4</ele>
        <time>2021-05-16T05:28:15Z</time>
      </trkpt>
      <trkpt lat="41.1622250" lon="-8.6541350">
        <ele>63.4</ele>
        <time>2021-05-16T05:28:16Z</time>
      </trkpt>
      <trkpt lat="41.1622290" lon="-8.6541510">
        <ele>63.4</ele>
        <time>2021-05-16T05:28:17Z</time>
      </trkpt>
      <trkpt lat="41.1622270" lon="-8.6541600">
        <ele>63.4</ele>
        <time>2021-05-16T05:28:18Z</time>
      </trkpt>
      <trkpt lat="41.1622240" lon="-8.6541720">
        <ele>63.4</ele>
        <time>2021-05-16T05:28:19Z</time>
      </trkpt>
      <trkpt lat="41.1622220" lon="-8.6541960">
        <ele>63.4</ele>
        <time>2021-05-16T05:28:20Z</time>
      </trkpt>
      <trkpt lat="41.1622300" lon="-8.6542350">
        <ele>63.4</ele>
        <time>2021-05-16T05:28:21Z</time>
      </trkpt>
      <trkpt lat="41.1622300" lon="-8.6542440">
        <ele>63.4</ele>
        <time>2021-05-16T05:28:22Z</time>
      </trkpt>
      <trkpt lat="41.1622320" lon="-8.6542860">
        <ele>63.4</ele>
        <time>2021-05-16T05:28:23Z</time>
      </trkpt>
      <trkpt lat="41.1622330" lon="-8.6542950">
        <ele>63.4</ele>
        <time>2021-05-16T05:28:24Z</time>
      </trkpt>
      <trkpt lat="41.1622410" lon="-8.6543150">
        <ele>63.4</ele>
        <time>2021-05-16T05:28:25Z</time>
      </trkpt>
      <trkpt lat="41.1622400" lon="-8.6543320">
        <ele>63.4</ele>
        <time>2021-05-16T05:28:26Z</time>
      </trkpt>
      <trkpt lat="41.1622440" lon="-8.6543420">
        <ele>63.4</ele>
        <time>2021-05-16T05:28:27Z</time>
      </trkpt>
      <trkpt lat="41.1622520" lon="-8.6543460">
        <ele>63.4</ele>
        <time>2021-05-16T05:28:28Z</time>
      </trkpt>
      <trkpt lat="41.1622540" lon="-8.6543690">
        <ele>63.4</ele>
        <time>2021-05-16T05:28:29Z</time>
      </trkpt>
      <trkpt lat="41.1622610" lon="-8.6543860">
        <ele>63.4</ele>
        <time>2021-05-16T05:28:30Z</time>
      </trkpt>
      <trkpt lat="41.1622610" lon="-8.6544060">
        <ele>63.4</ele>
        <time>2021-05-16T05:28:31Z</time>
      </trkpt>
      <trkpt lat="41.1622620" lon="-8.6544290">
        <ele>63.4</ele>
        <time>2021-05-16T05:28:32Z</time>
      </trkpt>
      <trkpt lat="41.1622630" lon="-8.6544430">
        <ele>63.4</ele>
        <time>2021-05-16T05:28:33Z</time>
      </trkpt>
      <trkpt lat="41.1622640" lon="-8.6544560">
        <ele>63.4</ele>
        <time>2021-05-16T05:28:34Z</time>
      </trkpt>
      <trkpt lat="41.1622720" lon="-8.6544770">
        <ele>63.4</ele>
        <time>2021-05-16T05:28:35Z</time>
      </trkpt>
      <trkpt lat="41.1622760" lon="-8.6544890">
        <ele>63.4</ele>
        <time>2021-05-16T05:28:36Z</time>
      </trkpt>
      <trkpt lat="41.1622790" lon="-8.6545010">
        <ele>63.4</ele>
        <time>2021-05-16T05:28:37Z</time>
      </trkpt>
      <trkpt lat="41.1622880" lon="-8.6545380">
        <ele>63.4</ele>
        <time>2021-05-16T05:28:38Z</time>
      </trkpt>
      <trkpt lat="41.1622900" lon="-8.6545490">
        <ele>63.4</ele>
        <time>2021-05-16T05:28:39Z</time>
      </trkpt>
      <trkpt lat="41.1622900" lon="-8.6545770">
        <ele>63.4</ele>
        <time>2021-05-16T05:28:40Z</time>
      </trkpt>
      <trkpt lat="41.1622940" lon="-8.6545910">
        <ele>63.5</ele>
        <time>2021-05-16T05:28:41Z</time>
      </trkpt>
      <trkpt lat="41.1622970" lon="-8.6546060">
        <ele>63.5</ele>
        <time>2021-05-16T05:28:42Z</time>
      </trkpt>
      <trkpt lat="41.1622950" lon="-8.6546330">
        <ele>63.5</ele>
        <time>2021-05-16T05:28:43Z</time>
      </trkpt>
      <trkpt lat="41.1622990" lon="-8.6546460">
        <ele>63.5</ele>
        <time>2021-05-16T05:28:44Z</time>
      </trkpt>
      <trkpt lat="41.1623020" lon="-8.6546660">
        <ele>63.5</ele>
        <time>2021-05-16T05:28:45Z</time>
      </trkpt>
      <trkpt lat="41.1623050" lon="-8.6546850">
        <ele>63.5</ele>
        <time>2021-05-16T05:28:46Z</time>
      </trkpt>
      <trkpt lat="41.1623140" lon="-8.6547030">
        <ele>63.5</ele>
        <time>2021-05-16T05:28:47Z</time>
      </trkpt>
      <trkpt lat="41.1623150" lon="-8.6547250">
        <ele>63.5</ele>
        <time>2021-05-16T05:28:48Z</time>
      </trkpt>
      <trkpt lat="41.1623200" lon="-8.6547400">
        <ele>63.5</ele>
        <time>2021-05-16T05:28:49Z</time>
      </trkpt>
      <trkpt lat="41.1623270" lon="-8.6547610">
        <ele>63.5</ele>
        <time>2021-05-16T05:28:50Z</time>
      </trkpt>
      <trkpt lat="41.1623240" lon="-8.6547910">
        <ele>63.5</ele>
        <time>2021-05-16T05:28:51Z</time>
      </trkpt>
      <trkpt lat="41.1623260" lon="-8.6548050">
        <ele>63.6</ele>
        <time>2021-05-16T05:28:52Z</time>
      </trkpt>
      <trkpt lat="41.1623270" lon="-8.6548180">
        <ele>63.6</ele>
        <time>2021-05-16T05:28:53Z</time>
      </trkpt>
      <trkpt lat="41.1623330" lon="-8.6548340">
        <ele>63.6</ele>
        <time>2021-05-16T05:28:54Z</time>
      </trkpt>
      <trkpt lat="41.1623360" lon="-8.6548500">
        <ele>63.6</ele>
        <time>2021-05-16T05:28:55Z</time>
      </trkpt>
      <trkpt lat="41.1623310" lon="-8.6548610">
        <ele>63.6</ele>
        <time>2021-05-16T05:28:56Z</time>
      </trkpt>
      <trkpt lat="41.1623330" lon="-8.6548880">
        <ele>63.6</ele>
        <time>2021-05-16T05:28:57Z</time>
      </trkpt>
      <trkpt lat="41.1623400" lon="-8.6549070">
        <ele>63.6</ele>
        <time>2021-05-16T05:28:58Z</time>
      </trkpt>
      <trkpt lat="41.1623500" lon="-8.6549250">
        <ele>63.6</ele>
        <time>2021-05-16T05:28:59Z</time>
      </trkpt>
      <trkpt lat="41.1623550" lon="-8.6549480">
        <ele>63.6</ele>
        <time>2021-05-16T05:29:00Z</time>
      </trkpt>
      <trkpt lat="41.1623590" lon="-8.6549740">
        <ele>63.6</ele>
        <time>2021-05-16T05:29:01Z</time>
      </trkpt>
      <trkpt lat="41.1623600" lon="-8.6549860">
        <ele>63.6</ele>
        <time>2021-05-16T05:29:02Z</time>
      </trkpt>
      <trkpt lat="41.1623610" lon="-8.6549990">
        <ele>63.6</ele>
        <time>2021-05-16T05:29:03Z</time>
      </trkpt>
      <trkpt lat="41.1623680" lon="-8.6550390">
        <ele>63.7</ele>
        <time>2021-05-16T05:29:04Z</time>
      </trkpt>
      <trkpt lat="41.1623710" lon="-8.6550540">
        <ele>63.7</ele>
        <time>2021-05-16T05:29:05Z</time>
      </trkpt>
      <trkpt lat="41.1623740" lon="-8.6550780">
        <ele>63.7</ele>
        <time>2021-05-16T05:29:06Z</time>
      </trkpt>
      <trkpt lat="41.1623800" lon="-8.6551000">
        <ele>63.7</ele>
        <time>2021-05-16T05:29:07Z</time>
      </trkpt>
      <trkpt lat="41.1623830" lon="-8.6551410">
        <ele>63.7</ele>
        <time>2021-05-16T05:29:08Z</time>
      </trkpt>
      <trkpt lat="41.1623800" lon="-8.6551530">
        <ele>63.7</ele>
        <time>2021-05-16T05:29:09Z</time>
      </trkpt>
      <trkpt lat="41.1623910" lon="-8.6551680">
        <ele>63.7</ele>
        <time>2021-05-16T05:29:10Z</time>
      </trkpt>
      <trkpt lat="41.1623880" lon="-8.6551880">
        <ele>63.7</ele>
        <time>2021-05-16T05:29:11Z</time>
      </trkpt>
      <trkpt lat="41.1623850" lon="-8.6551960">
        <ele>63.7</ele>
        <time>2021-05-16T05:29:12Z</time>
      </trkpt>
      <trkpt lat="41.1623880" lon="-8.6552240">
        <ele>63.7</ele>
        <time>2021-05-16T05:29:13Z</time>
      </trkpt>
      <trkpt lat="41.1623940" lon="-8.6552370">
        <ele>63.7</ele>
        <time>2021-05-16T05:29:14Z</time>
      </trkpt>
      <trkpt lat="41.1623960" lon="-8.6552660">
        <ele>63.7</ele>
        <time>2021-05-16T05:29:15Z</time>
      </trkpt>
      <trkpt lat="41.1623980" lon="-8.6552740">
        <ele>63.7</ele>
        <time>2021-05-16T05:29:16Z</time>
      </trkpt>
      <trkpt lat="41.1624020" lon="-8.6552810">
        <ele>63.7</ele>
        <time>2021-05-16T05:29:17Z</time>
      </trkpt>
      <trkpt lat="41.1624060" lon="-8.6553100">
        <ele>63.7</ele>
        <time>2021-05-16T05:29:18Z</time>
      </trkpt>
      <trkpt lat="41.1624090" lon="-8.6553290">
        <ele>63.7</ele>
        <time>2021-05-16T05:29:19Z</time>
      </trkpt>
      <trkpt lat="41.1624130" lon="-8.6553380">
        <ele>63.7</ele>
        <time>2021-05-16T05:29:20Z</time>
      </trkpt>
      <trkpt lat="41.1624180" lon="-8.6553520">
        <ele>63.7</ele>
        <time>2021-05-16T05:29:21Z</time>
      </trkpt>
      <trkpt lat="41.1624200" lon="-8.6553730">
        <ele>63.7</ele>
        <time>2021-05-16T05:29:22Z</time>
      </trkpt>
      <trkpt lat="41.1624230" lon="-8.6553860">
        <ele>63.7</ele>
        <time>2021-05-16T05:29:23Z</time>
      </trkpt>
      <trkpt lat="41.1624250" lon="-8.6553980">
        <ele>63.7</ele>
        <time>2021-05-16T05:29:24Z</time>
      </trkpt>
      <trkpt lat="41.1624280" lon="-8.6554110">
        <ele>63.7</ele>
        <time>2021-05-16T05:29:25Z</time>
      </trkpt>
      <trkpt lat="41.1624310" lon="-8.6554320">
        <ele>63.7</ele>
        <time>2021-05-16T05:29:26Z</time>
      </trkpt>
      <trkpt lat="41.1624350" lon="-8.6554460">
        <ele>63.7</ele>
        <time>2021-05-16T05:29:27Z</time>
      </trkpt>
      <trkpt lat="41.1624380" lon="-8.6554590">
        <ele>63.7</ele>
        <time>2021-05-16T05:29:28Z</time>
      </trkpt>
      <trkpt lat="41.1624360" lon="-8.6554750">
        <ele>63.7</ele>
        <time>2021-05-16T05:29:29Z</time>
      </trkpt>
      <trkpt lat="41.1624420" lon="-8.6554970">
        <ele>63.7</ele>
        <time>2021-05-16T05:29:30Z</time>
      </trkpt>
      <trkpt lat="41.1624470" lon="-8.6555110">
        <ele>63.7</ele>
        <time>2021-05-16T05:29:31Z</time>
      </trkpt>
      <trkpt lat="41.1624440" lon="-8.6555200">
        <ele>63.7</ele>
        <time>2021-05-16T05:29:32Z</time>
      </trkpt>
      <trkpt lat="41.1624380" lon="-8.6555410">
        <ele>63.7</ele>
        <time>2021-05-16T05:29:33Z</time>
      </trkpt>
      <trkpt lat="41.1624400" lon="-8.6555610">
        <ele>63.7</ele>
        <time>2021-05-16T05:29:34Z</time>
      </trkpt>
      <trkpt lat="41.1624390" lon="-8.6555830">
        <ele>63.7</ele>
        <time>2021-05-16T05:29:35Z</time>
      </trkpt>
      <trkpt lat="41.1624360" lon="-8.6556040">
        <ele>63.7</ele>
        <time>2021-05-16T05:29:36Z</time>
      </trkpt>
      <trkpt lat="41.1624420" lon="-8.6556240">
        <ele>63.6</ele>
        <time>2021-05-16T05:29:37Z</time>
      </trkpt>
      <trkpt lat="41.1624490" lon="-8.6556550">
        <ele>63.6</ele>
        <time>2021-05-16T05:29:38Z</time>
      </trkpt>
      <trkpt lat="41.1624540" lon="-8.6556660">
        <ele>63.6</ele>
        <time>2021-05-16T05:29:39Z</time>
      </trkpt>
      <trkpt lat="41.1624560" lon="-8.6556870">
        <ele>63.6</ele>
        <time>2021-05-16T05:29:40Z</time>
      </trkpt>
      <trkpt lat="41.1624550" lon="-8.6557030">
        <ele>63.6</ele>
        <time>2021-05-16T05:29:41Z</time>
      </trkpt>
      <trkpt lat="41.1624540" lon="-8.6557170">
        <ele>63.6</ele>
        <time>2021-05-16T05:29:42Z</time>
      </trkpt>
      <trkpt lat="41.1624580" lon="-8.6557390">
        <ele>63.6</ele>
        <time>2021-05-16T05:29:43Z</time>
      </trkpt>
      <trkpt lat="41.1624640" lon="-8.6557580">
        <ele>63.6</ele>
        <time>2021-05-16T05:29:44Z</time>
      </trkpt>
      <trkpt lat="41.1624710" lon="-8.6557810">
        <ele>63.6</ele>
        <time>2021-05-16T05:29:45Z</time>
      </trkpt>
      <trkpt lat="41.1624690" lon="-8.6558030">
        <ele>63.6</ele>
        <time>2021-05-16T05:29:46Z</time>
      </trkpt>
      <trkpt lat="41.1624750" lon="-8.6558250">
        <ele>63.6</ele>
        <time>2021-05-16T05:29:47Z</time>
      </trkpt>
      <trkpt lat="41.1624780" lon="-8.6558420">
        <ele>63.6</ele>
        <time>2021-05-16T05:29:48Z</time>
      </trkpt>
      <trkpt lat="41.1624960" lon="-8.6558600">
        <ele>63.6</ele>
        <time>2021-05-16T05:29:49Z</time>
      </trkpt>
      <trkpt lat="41.1625130" lon="-8.6558910">
        <ele>63.6</ele>
        <time>2021-05-16T05:29:50Z</time>
      </trkpt>
      <trkpt lat="41.1625140" lon="-8.6559030">
        <ele>63.6</ele>
        <time>2021-05-16T05:29:51Z</time>
      </trkpt>
      <trkpt lat="41.1625220" lon="-8.6559380">
        <ele>63.6</ele>
        <time>2021-05-16T05:29:52Z</time>
      </trkpt>
      <trkpt lat="41.1625170" lon="-8.6559730">
        <ele>63.6</ele>
        <time>2021-05-16T05:29:53Z</time>
      </trkpt>
      <trkpt lat="41.1625210" lon="-8.6559860">
        <ele>63.6</ele>
        <time>2021-05-16T05:29:54Z</time>
      </trkpt>
      <trkpt lat="41.1625220" lon="-8.6559950">
        <ele>63.6</ele>
        <time>2021-05-16T05:29:55Z</time>
      </trkpt>
      <trkpt lat="41.1625180" lon="-8.6560100">
        <ele>63.6</ele>
        <time>2021-05-16T05:29:56Z</time>
      </trkpt>
      <trkpt lat="41.1625110" lon="-8.6560330">
        <ele>63.6</ele>
        <time>2021-05-16T05:29:57Z</time>
      </trkpt>
      <trkpt lat="41.1625070" lon="-8.6560550">
        <ele>63.6</ele>
        <time>2021-05-16T05:29:58Z</time>
      </trkpt>
      <trkpt lat="41.1625110" lon="-8.6560840">
        <ele>63.6</ele>
        <time>2021-05-16T05:29:59Z</time>
      </trkpt>
      <trkpt lat="41.1625140" lon="-8.6560960">
        <ele>63.6</ele>
        <time>2021-05-16T05:30:00Z</time>
      </trkpt>
      <trkpt lat="41.1625170" lon="-8.6561070">
        <ele>63.6</ele>
        <time>2021-05-16T05:30:01Z</time>
      </trkpt>
      <trkpt lat="41.1625230" lon="-8.6561300">
        <ele>63.6</ele>
        <time>2021-05-16T05:30:02Z</time>
      </trkpt>
      <trkpt lat="41.1625280" lon="-8.6561430">
        <ele>63.6</ele>
        <time>2021-05-16T05:30:03Z</time>
      </trkpt>
      <trkpt lat="41.1625330" lon="-8.6561570">
        <ele>63.6</ele>
        <time>2021-05-16T05:30:04Z</time>
      </trkpt>
      <trkpt lat="41.1625390" lon="-8.6561690">
        <ele>63.6</ele>
        <time>2021-05-16T05:30:05Z</time>
      </trkpt>
      <trkpt lat="41.1625440" lon="-8.6561990">
        <ele>63.6</ele>
        <time>2021-05-16T05:30:06Z</time>
      </trkpt>
      <trkpt lat="41.1625490" lon="-8.6562230">
        <ele>63.6</ele>
        <time>2021-05-16T05:30:07Z</time>
      </trkpt>
      <trkpt lat="41.1625520" lon="-8.6562370">
        <ele>63.6</ele>
        <time>2021-05-16T05:30:08Z</time>
      </trkpt>
      <trkpt lat="41.1625550" lon="-8.6562510">
        <ele>63.6</ele>
        <time>2021-05-16T05:30:09Z</time>
      </trkpt>
      <trkpt lat="41.1625550" lon="-8.6562720">
        <ele>63.6</ele>
        <time>2021-05-16T05:30:10Z</time>
      </trkpt>
      <trkpt lat="41.1625510" lon="-8.6562970">
        <ele>63.6</ele>
        <time>2021-05-16T05:30:11Z</time>
      </trkpt>
      <trkpt lat="41.1625520" lon="-8.6563130">
        <ele>63.6</ele>
        <time>2021-05-16T05:30:12Z</time>
      </trkpt>
      <trkpt lat="41.1625510" lon="-8.6563360">
        <ele>63.5</ele>
        <time>2021-05-16T05:30:13Z</time>
      </trkpt>
      <trkpt lat="41.1625570" lon="-8.6563590">
        <ele>63.5</ele>
        <time>2021-05-16T05:30:14Z</time>
      </trkpt>
      <trkpt lat="41.1625620" lon="-8.6563720">
        <ele>63.5</ele>
        <time>2021-05-16T05:30:15Z</time>
      </trkpt>
      <trkpt lat="41.1625670" lon="-8.6563860">
        <ele>63.5</ele>
        <time>2021-05-16T05:30:16Z</time>
      </trkpt>
      <trkpt lat="41.1625720" lon="-8.6564110">
        <ele>63.5</ele>
        <time>2021-05-16T05:30:17Z</time>
      </trkpt>
      <trkpt lat="41.1625740" lon="-8.6564250">
        <ele>63.5</ele>
        <time>2021-05-16T05:30:18Z</time>
      </trkpt>
      <trkpt lat="41.1625770" lon="-8.6564380">
        <ele>63.5</ele>
        <time>2021-05-16T05:30:19Z</time>
      </trkpt>
      <trkpt lat="41.1625820" lon="-8.6564580">
        <ele>63.5</ele>
        <time>2021-05-16T05:30:20Z</time>
      </trkpt>
      <trkpt lat="41.1625830" lon="-8.6564780">
        <ele>63.5</ele>
        <time>2021-05-16T05:30:21Z</time>
      </trkpt>
      <trkpt lat="41.1625850" lon="-8.6564950">
        <ele>63.5</ele>
        <time>2021-05-16T05:30:22Z</time>
      </trkpt>
      <trkpt lat="41.1625920" lon="-8.6565140">
        <ele>63.5</ele>
        <time>2021-05-16T05:30:23Z</time>
      </trkpt>
      <trkpt lat="41.1625910" lon="-8.6565400">
        <ele>63.4</ele>
        <time>2021-05-16T05:30:24Z</time>
      </trkpt>
      <trkpt lat="41.1625930" lon="-8.6565560">
        <ele>63.4</ele>
        <time>2021-05-16T05:30:25Z</time>
      </trkpt>
      <trkpt lat="41.1625960" lon="-8.6565710">
        <ele>63.4</ele>
        <time>2021-05-16T05:30:26Z</time>
      </trkpt>
      <trkpt lat="41.1625910" lon="-8.6565850">
        <ele>63.4</ele>
        <time>2021-05-16T05:30:27Z</time>
      </trkpt>
      <trkpt lat="41.1625920" lon="-8.6565970">
        <ele>63.4</ele>
        <time>2021-05-16T05:30:28Z</time>
      </trkpt>
      <trkpt lat="41.1625920" lon="-8.6566150">
        <ele>63.4</ele>
        <time>2021-05-16T05:30:29Z</time>
      </trkpt>
      <trkpt lat="41.1625980" lon="-8.6566410">
        <ele>63.4</ele>
        <time>2021-05-16T05:30:30Z</time>
      </trkpt>
      <trkpt lat="41.1626060" lon="-8.6566580">
        <ele>63.4</ele>
        <time>2021-05-16T05:30:31Z</time>
      </trkpt>
      <trkpt lat="41.1626060" lon="-8.6566790">
        <ele>63.4</ele>
        <time>2021-05-16T05:30:32Z</time>
      </trkpt>
      <trkpt lat="41.1626090" lon="-8.6566970">
        <ele>63.4</ele>
        <time>2021-05-16T05:30:33Z</time>
      </trkpt>
      <trkpt lat="41.1626070" lon="-8.6567190">
        <ele>63.4</ele>
        <time>2021-05-16T05:30:34Z</time>
      </trkpt>
      <trkpt lat="41.1626070" lon="-8.6567340">
        <ele>63.4</ele>
        <time>2021-05-16T05:30:35Z</time>
      </trkpt>
      <trkpt lat="41.1626070" lon="-8.6567490">
        <ele>63.4</ele>
        <time>2021-05-16T05:30:36Z</time>
      </trkpt>
      <trkpt lat="41.1626150" lon="-8.6567690">
        <ele>63.4</ele>
        <time>2021-05-16T05:30:37Z</time>
      </trkpt>
      <trkpt lat="41.1626180" lon="-8.6567870">
        <ele>63.4</ele>
        <time>2021-05-16T05:30:38Z</time>
      </trkpt>
      <trkpt lat="41.1626450" lon="-8.6568150">
        <ele>63.3</ele>
        <time>2021-05-16T05:30:39Z</time>
      </trkpt>
      <trkpt lat="41.1626610" lon="-8.6568180">
        <ele>63.3</ele>
        <time>2021-05-16T05:30:40Z</time>
      </trkpt>
      <trkpt lat="41.1626720" lon="-8.6568400">
        <ele>63.3</ele>
        <time>2021-05-16T05:30:41Z</time>
      </trkpt>
      <trkpt lat="41.1626770" lon="-8.6568580">
        <ele>63.3</ele>
        <time>2021-05-16T05:30:42Z</time>
      </trkpt>
      <trkpt lat="41.1626890" lon="-8.6568770">
        <ele>63.3</ele>
        <time>2021-05-16T05:30:43Z</time>
      </trkpt>
      <trkpt lat="41.1626910" lon="-8.6568910">
        <ele>63.3</ele>
        <time>2021-05-16T05:30:44Z</time>
      </trkpt>
      <trkpt lat="41.1627010" lon="-8.6569320">
        <ele>63.3</ele>
        <time>2021-05-16T05:30:45Z</time>
      </trkpt>
      <trkpt lat="41.1627010" lon="-8.6569450">
        <ele>63.3</ele>
        <time>2021-05-16T05:30:46Z</time>
      </trkpt>
      <trkpt lat="41.1626990" lon="-8.6569660">
        <ele>63.2</ele>
        <time>2021-05-16T05:30:47Z</time>
      </trkpt>
      <trkpt lat="41.1626980" lon="-8.6569890">
        <ele>63.2</ele>
        <time>2021-05-16T05:30:48Z</time>
      </trkpt>
      <trkpt lat="41.1626990" lon="-8.6570140">
        <ele>63.2</ele>
        <time>2021-05-16T05:30:49Z</time>
      </trkpt>
      <trkpt lat="41.1627080" lon="-8.6570330">
        <ele>63.2</ele>
        <time>2021-05-16T05:30:50Z</time>
      </trkpt>
      <trkpt lat="41.1627140" lon="-8.6570490">
        <ele>63.2</ele>
        <time>2021-05-16T05:30:51Z</time>
      </trkpt>
      <trkpt lat="41.1627130" lon="-8.6570750">
        <ele>63.2</ele>
        <time>2021-05-16T05:30:52Z</time>
      </trkpt>
      <trkpt lat="41.1627220" lon="-8.6570970">
        <ele>63.1</ele>
        <time>2021-05-16T05:30:53Z</time>
      </trkpt>
      <trkpt lat="41.1627170" lon="-8.6571150">
        <ele>63.1</ele>
        <time>2021-05-16T05:30:54Z</time>
      </trkpt>
      <trkpt lat="41.1627200" lon="-8.6571320">
        <ele>63.1</ele>
        <time>2021-05-16T05:30:55Z</time>
      </trkpt>
      <trkpt lat="41.1627170" lon="-8.6571590">
        <ele>63.1</ele>
        <time>2021-05-16T05:30:56Z</time>
      </trkpt>
      <trkpt lat="41.1627230" lon="-8.6571720">
        <ele>63.1</ele>
        <time>2021-05-16T05:30:57Z</time>
      </trkpt>
      <trkpt lat="41.1627210" lon="-8.6571980">
        <ele>63.1</ele>
        <time>2021-05-16T05:30:58Z</time>
      </trkpt>
      <trkpt lat="41.1627190" lon="-8.6572040">
        <ele>63.1</ele>
        <time>2021-05-16T05:30:59Z</time>
      </trkpt>
      <trkpt lat="41.1627190" lon="-8.6572190">
        <ele>63.1</ele>
        <time>2021-05-16T05:31:00Z</time>
      </trkpt>
      <trkpt lat="41.1627150" lon="-8.6572340">
        <ele>63.1</ele>
        <time>2021-05-16T05:31:01Z</time>
      </trkpt>
      <trkpt lat="41.1627160" lon="-8.6572650">
        <ele>63.0</ele>
        <time>2021-05-16T05:31:02Z</time>
      </trkpt>
      <trkpt lat="41.1627150" lon="-8.6572740">
        <ele>63.0</ele>
        <time>2021-05-16T05:31:03Z</time>
      </trkpt>
      <trkpt lat="41.1627130" lon="-8.6572840">
        <ele>63.0</ele>
        <time>2021-05-16T05:31:04Z</time>
      </trkpt>
      <trkpt lat="41.1627070" lon="-8.6573260">
        <ele>63.0</ele>
        <time>2021-05-16T05:31:05Z</time>
      </trkpt>
      <trkpt lat="41.1627060" lon="-8.6573370">
        <ele>63.0</ele>
        <time>2021-05-16T05:31:06Z</time>
      </trkpt>
      <trkpt lat="41.1627050" lon="-8.6573500">
        <ele>63.0</ele>
        <time>2021-05-16T05:31:07Z</time>
      </trkpt>
      <trkpt lat="41.1626980" lon="-8.6573590">
        <ele>63.0</ele>
        <time>2021-05-16T05:31:08Z</time>
      </trkpt>
      <trkpt lat="41.1626930" lon="-8.6573770">
        <ele>63.0</ele>
        <time>2021-05-16T05:31:09Z</time>
      </trkpt>
      <trkpt lat="41.1626930" lon="-8.6573900">
        <ele>63.0</ele>
        <time>2021-05-16T05:31:10Z</time>
      </trkpt>
      <trkpt lat="41.1626950" lon="-8.6574110">
        <ele>63.0</ele>
        <time>2021-05-16T05:31:11Z</time>
      </trkpt>
      <trkpt lat="41.1626970" lon="-8.6574230">
        <ele>63.0</ele>
        <time>2021-05-16T05:31:12Z</time>
      </trkpt>
      <trkpt lat="41.1626980" lon="-8.6574340">
        <ele>63.0</ele>
        <time>2021-05-16T05:31:13Z</time>
      </trkpt>
      <trkpt lat="41.1627020" lon="-8.6574590">
        <ele>62.9</ele>
        <time>2021-05-16T05:31:14Z</time>
      </trkpt>
      <trkpt lat="41.1626990" lon="-8.6574740">
        <ele>62.9</ele>
        <time>2021-05-16T05:31:15Z</time>
      </trkpt>
      <trkpt lat="41.1627080" lon="-8.6574970">
        <ele>62.9</ele>
        <time>2021-05-16T05:31:16Z</time>
      </trkpt>
      <trkpt lat="41.1627140" lon="-8.6575120">
        <ele>62.9</ele>
        <time>2021-05-16T05:31:17Z</time>
      </trkpt>
      <trkpt lat="41.1627150" lon="-8.6575230">
        <ele>62.9</ele>
        <time>2021-05-16T05:31:18Z</time>
      </trkpt>
      <trkpt lat="41.1627170" lon="-8.6575390">
        <ele>62.9</ele>
        <time>2021-05-16T05:31:19Z</time>
      </trkpt>
      <trkpt lat="41.1627120" lon="-8.6575570">
        <ele>62.9</ele>
        <time>2021-05-16T05:31:20Z</time>
      </trkpt>
      <trkpt lat="41.1627060" lon="-8.6575770">
        <ele>62.9</ele>
        <time>2021-05-16T05:31:21Z</time>
      </trkpt>
      <trkpt lat="41.1627090" lon="-8.6576030">
        <ele>62.8</ele>
        <time>2021-05-16T05:31:22Z</time>
      </trkpt>
      <trkpt lat="41.1627110" lon="-8.6576140">
        <ele>62.8</ele>
        <time>2021-05-16T05:31:23Z</time>
      </trkpt>
      <trkpt lat="41.1627140" lon="-8.6576250">
        <ele>62.8</ele>
        <time>2021-05-16T05:31:24Z</time>
      </trkpt>
      <trkpt lat="41.1627220" lon="-8.6576620">
        <ele>62.8</ele>
        <time>2021-05-16T05:31:25Z</time>
      </trkpt>
      <trkpt lat="41.1627220" lon="-8.6576730">
        <ele>62.8</ele>
        <time>2021-05-16T05:31:26Z</time>
      </trkpt>
      <trkpt lat="41.1627300" lon="-8.6577030">
        <ele>62.8</ele>
        <time>2021-05-16T05:31:27Z</time>
      </trkpt>
      <trkpt lat="41.1627430" lon="-8.6577110">
        <ele>62.7</ele>
        <time>2021-05-16T05:31:28Z</time>
      </trkpt>
      <trkpt lat="41.1627560" lon="-8.6577460">
        <ele>62.7</ele>
        <time>2021-05-16T05:31:29Z</time>
      </trkpt>
      <trkpt lat="41.1627580" lon="-8.6577550">
        <ele>62.7</ele>
        <time>2021-05-16T05:31:30Z</time>
      </trkpt>
      <trkpt lat="41.1627710" lon="-8.6577850">
        <ele>62.7</ele>
        <time>2021-05-16T05:31:31Z</time>
      </trkpt>
      <trkpt lat="41.1627760" lon="-8.6577940">
        <ele>62.7</ele>
        <time>2021-05-16T05:31:32Z</time>
      </trkpt>
      <trkpt lat="41.1627810" lon="-8.6578040">
        <ele>62.7</ele>
        <time>2021-05-16T05:31:33Z</time>
      </trkpt>
      <trkpt lat="41.1627790" lon="-8.6578310">
        <ele>62.6</ele>
        <time>2021-05-16T05:31:34Z</time>
      </trkpt>
      <trkpt lat="41.1627800" lon="-8.6578450">
        <ele>62.6</ele>
        <time>2021-05-16T05:31:35Z</time>
      </trkpt>
      <trkpt lat="41.1627780" lon="-8.6578850">
        <ele>62.6</ele>
        <time>2021-05-16T05:31:36Z</time>
      </trkpt>
      <trkpt lat="41.1627750" lon="-8.6578980">
        <ele>62.6</ele>
        <time>2021-05-16T05:31:37Z</time>
      </trkpt>
      <trkpt lat="41.1627610" lon="-8.6579300">
        <ele>62.6</ele>
        <time>2021-05-16T05:31:38Z</time>
      </trkpt>
      <trkpt lat="41.1627480" lon="-8.6579650">
        <ele>62.5</ele>
        <time>2021-05-16T05:31:39Z</time>
      </trkpt>
      <trkpt lat="41.1627460" lon="-8.6579840">
        <ele>62.5</ele>
        <time>2021-05-16T05:31:40Z</time>
      </trkpt>
      <trkpt lat="41.1627520" lon="-8.6580070">
        <ele>62.5</ele>
        <time>2021-05-16T05:31:41Z</time>
      </trkpt>
      <trkpt lat="41.1627660" lon="-8.6580270">
        <ele>62.5</ele>
        <time>2021-05-16T05:31:42Z</time>
      </trkpt>
      <trkpt lat="41.1627700" lon="-8.6580360">
        <ele>62.5</ele>
        <time>2021-05-16T05:31:43Z</time>
      </trkpt>
      <trkpt lat="41.1627750" lon="-8.6580450">
        <ele>62.5</ele>
        <time>2021-05-16T05:31:44Z</time>
      </trkpt>
      <trkpt lat="41.1627800" lon="-8.6580660">
        <ele>62.5</ele>
        <time>2021-05-16T05:31:45Z</time>
      </trkpt>
      <trkpt lat="41.1627890" lon="-8.6580780">
        <ele>62.4</ele>
        <time>2021-05-16T05:31:46Z</time>
      </trkpt>
      <trkpt lat="41.1627920" lon="-8.6581160">
        <ele>62.4</ele>
        <time>2021-05-16T05:31:47Z</time>
      </trkpt>
      <trkpt lat="41.1627900" lon="-8.6581270">
        <ele>62.4</ele>
        <time>2021-05-16T05:31:48Z</time>
      </trkpt>
      <trkpt lat="41.1627890" lon="-8.6581460">
        <ele>62.4</ele>
        <time>2021-05-16T05:31:49Z</time>
      </trkpt>
      <trkpt lat="41.1627890" lon="-8.6581670">
        <ele>62.4</ele>
        <time>2021-05-16T05:31:50Z</time>
      </trkpt>
      <trkpt lat="41.1627970" lon="-8.6581990">
        <ele>62.3</ele>
        <time>2021-05-16T05:31:51Z</time>
      </trkpt>
      <trkpt lat="41.1627920" lon="-8.6582130">
        <ele>62.3</ele>
        <time>2021-05-16T05:31:52Z</time>
      </trkpt>
      <trkpt lat="41.1627850" lon="-8.6582380">
        <ele>62.3</ele>
        <time>2021-05-16T05:31:53Z</time>
      </trkpt>
      <trkpt lat="41.1627900" lon="-8.6582530">
        <ele>62.3</ele>
        <time>2021-05-16T05:31:54Z</time>
      </trkpt>
      <trkpt lat="41.1627770" lon="-8.6582850">
        <ele>62.2</ele>
        <time>2021-05-16T05:31:55Z</time>
      </trkpt>
      <trkpt lat="41.1627680" lon="-8.6583010">
        <ele>62.2</ele>
        <time>2021-05-16T05:31:56Z</time>
      </trkpt>
      <trkpt lat="41.1627620" lon="-8.6583340">
        <ele>62.2</ele>
        <time>2021-05-16T05:31:57Z</time>
      </trkpt>
      <trkpt lat="41.1627630" lon="-8.6583450">
        <ele>62.1</ele>
        <time>2021-05-16T05:31:58Z</time>
      </trkpt>
      <trkpt lat="41.1627640" lon="-8.6583560">
        <ele>62.1</ele>
        <time>2021-05-16T05:31:59Z</time>
      </trkpt>
      <trkpt lat="41.1627780" lon="-8.6583790">
        <ele>62.1</ele>
        <time>2021-05-16T05:32:00Z</time>
      </trkpt>
      <trkpt lat="41.1627860" lon="-8.6583910">
        <ele>62.1</ele>
        <time>2021-05-16T05:32:01Z</time>
      </trkpt>
      <trkpt lat="41.1627930" lon="-8.6584120">
        <ele>62.0</ele>
        <time>2021-05-16T05:32:02Z</time>
      </trkpt>
      <trkpt lat="41.1627990" lon="-8.6584220">
        <ele>62.0</ele>
        <time>2021-05-16T05:32:03Z</time>
      </trkpt>
      <trkpt lat="41.1628060" lon="-8.6584330">
        <ele>62.0</ele>
        <time>2021-05-16T05:32:04Z</time>
      </trkpt>
      <trkpt lat="41.1628150" lon="-8.6584480">
        <ele>61.9</ele>
        <time>2021-05-16T05:32:05Z</time>
      </trkpt>
      <trkpt lat="41.1628190" lon="-8.6584690">
        <ele>61.9</ele>
        <time>2021-05-16T05:32:06Z</time>
      </trkpt>
      <trkpt lat="41.1628250" lon="-8.6584770">
        <ele>61.9</ele>
        <time>2021-05-16T05:32:07Z</time>
      </trkpt>
      <trkpt lat="41.1628370" lon="-8.6585010">
        <ele>61.8</ele>
        <time>2021-05-16T05:32:08Z</time>
      </trkpt>
      <trkpt lat="41.1628340" lon="-8.6585010">
        <ele>61.8</ele>
        <time>2021-05-16T05:32:09Z</time>
      </trkpt>
      <trkpt lat="41.1628370" lon="-8.6585220">
        <ele>61.8</ele>
        <time>2021-05-16T05:32:10Z</time>
      </trkpt>
      <trkpt lat="41.1628410" lon="-8.6585380">
        <ele>61.8</ele>
        <time>2021-05-16T05:32:11Z</time>
      </trkpt>
      <trkpt lat="41.1628460" lon="-8.6585540">
        <ele>61.7</ele>
        <time>2021-05-16T05:32:12Z</time>
      </trkpt>
      <trkpt lat="41.1628490" lon="-8.6585810">
        <ele>61.7</ele>
        <time>2021-05-16T05:32:13Z</time>
      </trkpt>
      <trkpt lat="41.1628500" lon="-8.6585940">
        <ele>61.7</ele>
        <time>2021-05-16T05:32:14Z</time>
      </trkpt>
      <trkpt lat="41.1628550" lon="-8.6586150">
        <ele>61.6</ele>
        <time>2021-05-16T05:32:15Z</time>
      </trkpt>
      <trkpt lat="41.1628560" lon="-8.6586280">
        <ele>61.6</ele>
        <time>2021-05-16T05:32:16Z</time>
      </trkpt>
      <trkpt lat="41.1628610" lon="-8.6586500">
        <ele>61.5</ele>
        <time>2021-05-16T05:32:17Z</time>
      </trkpt>
      <trkpt lat="41.1628580" lon="-8.6586700">
        <ele>61.5</ele>
        <time>2021-05-16T05:32:18Z</time>
      </trkpt>
      <trkpt lat="41.1628620" lon="-8.6586980">
        <ele>61.4</ele>
        <time>2021-05-16T05:32:19Z</time>
      </trkpt>
      <trkpt lat="41.1628610" lon="-8.6587140">
        <ele>61.4</ele>
        <time>2021-05-16T05:32:20Z</time>
      </trkpt>
      <trkpt lat="41.1628550" lon="-8.6587220">
        <ele>61.4</ele>
        <time>2021-05-16T05:32:21Z</time>
      </trkpt>
      <trkpt lat="41.1628620" lon="-8.6587410">
        <ele>61.3</ele>
        <time>2021-05-16T05:32:22Z</time>
      </trkpt>
      <trkpt lat="41.1628700" lon="-8.6587510">
        <ele>61.3</ele>
        <time>2021-05-16T05:32:23Z</time>
      </trkpt>
      <trkpt lat="41.1628760" lon="-8.6587730">
        <ele>61.2</ele>
        <time>2021-05-16T05:32:24Z</time>
      </trkpt>
      <trkpt lat="41.1628830" lon="-8.6587820">
        <ele>61.2</ele>
        <time>2021-05-16T05:32:25Z</time>
      </trkpt>
      <trkpt lat="41.1628890" lon="-8.6588100">
        <ele>61.1</ele>
        <time>2021-05-16T05:32:26Z</time>
      </trkpt>
      <trkpt lat="41.1628900" lon="-8.6588240">
        <ele>61.1</ele>
        <time>2021-05-16T05:32:27Z</time>
      </trkpt>
      <trkpt lat="41.1628920" lon="-8.6588380">
        <ele>61.0</ele>
        <time>2021-05-16T05:32:28Z</time>
      </trkpt>
      <trkpt lat="41.1629020" lon="-8.6588610">
        <ele>61.0</ele>
        <time>2021-05-16T05:32:29Z</time>
      </trkpt>
      <trkpt lat="41.1629080" lon="-8.6588740">
        <ele>60.9</ele>
        <time>2021-05-16T05:32:30Z</time>
      </trkpt>
      <trkpt lat="41.1629090" lon="-8.6588940">
        <ele>60.9</ele>
        <time>2021-05-16T05:32:31Z</time>
      </trkpt>
      <trkpt lat="41.1629180" lon="-8.6589110">
        <ele>60.8</ele>
        <time>2021-05-16T05:32:32Z</time>
      </trkpt>
      <trkpt lat="41.1629290" lon="-8.6589280">
        <ele>60.8</ele>
        <time>2021-05-16T05:32:33Z</time>
      </trkpt>
      <trkpt lat="41.1629300" lon="-8.6589470">
        <ele>60.7</ele>
        <time>2021-05-16T05:32:34Z</time>
      </trkpt>
      <trkpt lat="41.1629340" lon="-8.6589740">
        <ele>60.6</ele>
        <time>2021-05-16T05:32:35Z</time>
      </trkpt>
      <trkpt lat="41.1629380" lon="-8.6589900">
        <ele>60.6</ele>
        <time>2021-05-16T05:32:36Z</time>
      </trkpt>
      <trkpt lat="41.1629460" lon="-8.6590180">
        <ele>60.5</ele>
        <time>2021-05-16T05:32:37Z</time>
      </trkpt>
      <trkpt lat="41.1629480" lon="-8.6590310">
        <ele>60.5</ele>
        <time>2021-05-16T05:32:38Z</time>
      </trkpt>
      <trkpt lat="41.1629490" lon="-8.6590450">
        <ele>60.4</ele>
        <time>2021-05-16T05:32:39Z</time>
      </trkpt>
      <trkpt lat="41.1629600" lon="-8.6590630">
        <ele>60.4</ele>
        <time>2021-05-16T05:32:40Z</time>
      </trkpt>
      <trkpt lat="41.1629620" lon="-8.6590790">
        <ele>60.3</ele>
        <time>2021-05-16T05:32:41Z</time>
      </trkpt>
      <trkpt lat="41.1629590" lon="-8.6590900">
        <ele>60.3</ele>
        <time>2021-05-16T05:32:42Z</time>
      </trkpt>
      <trkpt lat="41.1629640" lon="-8.6591020">
        <ele>60.3</ele>
        <time>2021-05-16T05:32:43Z</time>
      </trkpt>
      <trkpt lat="41.1629740" lon="-8.6591230">
        <ele>60.2</ele>
        <time>2021-05-16T05:32:44Z</time>
      </trkpt>
      <trkpt lat="41.1629840" lon="-8.6591360">
        <ele>60.1</ele>
        <time>2021-05-16T05:32:45Z</time>
      </trkpt>
      <trkpt lat="41.1629940" lon="-8.6591510">
        <ele>60.1</ele>
        <time>2021-05-16T05:32:46Z</time>
      </trkpt>
      <trkpt lat="41.1630010" lon="-8.6591680">
        <ele>60.0</ele>
        <time>2021-05-16T05:32:47Z</time>
      </trkpt>
      <trkpt lat="41.1630110" lon="-8.6591840">
        <ele>59.9</ele>
        <time>2021-05-16T05:32:48Z</time>
      </trkpt>
      <trkpt lat="41.1630210" lon="-8.6592080">
        <ele>59.8</ele>
        <time>2021-05-16T05:32:49Z</time>
      </trkpt>
      <trkpt lat="41.1630260" lon="-8.6592180">
        <ele>59.8</ele>
        <time>2021-05-16T05:32:50Z</time>
      </trkpt>
      <trkpt lat="41.1630320" lon="-8.6592280">
        <ele>59.7</ele>
        <time>2021-05-16T05:32:51Z</time>
      </trkpt>
      <trkpt lat="41.1630380" lon="-8.6592430">
        <ele>59.7</ele>
        <time>2021-05-16T05:32:52Z</time>
      </trkpt>
      <trkpt lat="41.1630490" lon="-8.6592670">
        <ele>59.6</ele>
        <time>2021-05-16T05:32:53Z</time>
      </trkpt>
      <trkpt lat="41.1630500" lon="-8.6592850">
        <ele>59.5</ele>
        <time>2021-05-16T05:32:54Z</time>
      </trkpt>
      <trkpt lat="41.1630430" lon="-8.6593020">
        <ele>59.4</ele>
        <time>2021-05-16T05:32:55Z</time>
      </trkpt>
      <trkpt lat="41.1630460" lon="-8.6593330">
        <ele>59.3</ele>
        <time>2021-05-16T05:32:56Z</time>
      </trkpt>
      <trkpt lat="41.1630500" lon="-8.6593470">
        <ele>59.3</ele>
        <time>2021-05-16T05:32:57Z</time>
      </trkpt>
      <trkpt lat="41.1630490" lon="-8.6593810">
        <ele>59.1</ele>
        <time>2021-05-16T05:32:58Z</time>
      </trkpt>
      <trkpt lat="41.1630500" lon="-8.6593920">
        <ele>59.1</ele>
        <time>2021-05-16T05:32:59Z</time>
      </trkpt>
      <trkpt lat="41.1630510" lon="-8.6594020">
        <ele>59.0</ele>
        <time>2021-05-16T05:33:00Z</time>
      </trkpt>
      <trkpt lat="41.1630710" lon="-8.6594390">
        <ele>58.9</ele>
        <time>2021-05-16T05:33:01Z</time>
      </trkpt>
      <trkpt lat="41.1630790" lon="-8.6594480">
        <ele>58.8</ele>
        <time>2021-05-16T05:33:02Z</time>
      </trkpt>
      <trkpt lat="41.1631030" lon="-8.6594910">
        <ele>58.7</ele>
        <time>2021-05-16T05:33:03Z</time>
      </trkpt>
      <trkpt lat="41.1631080" lon="-8.6595130">
        <ele>58.6</ele>
        <time>2021-05-16T05:33:04Z</time>
      </trkpt>
      <trkpt lat="41.1631150" lon="-8.6595330">
        <ele>58.5</ele>
        <time>2021-05-16T05:33:05Z</time>
      </trkpt>
      <trkpt lat="41.1631230" lon="-8.6595560">
        <ele>58.4</ele>
        <time>2021-05-16T05:33:06Z</time>
      </trkpt>
      <trkpt lat="41.1631340" lon="-8.6595740">
        <ele>58.4</ele>
        <time>2021-05-16T05:33:07Z</time>
      </trkpt>
      <trkpt lat="41.1631410" lon="-8.6595860">
        <ele>58.3</ele>
        <time>2021-05-16T05:33:08Z</time>
      </trkpt>
      <trkpt lat="41.1631410" lon="-8.6596000">
        <ele>58.3</ele>
        <time>2021-05-16T05:33:09Z</time>
      </trkpt>
      <trkpt lat="41.1631450" lon="-8.6596140">
        <ele>58.2</ele>
        <time>2021-05-16T05:33:10Z</time>
      </trkpt>
      <trkpt lat="41.1631450" lon="-8.6596230">
        <ele>58.2</ele>
        <time>2021-05-16T05:33:11Z</time>
      </trkpt>
      <trkpt lat="41.1631470" lon="-8.6596490">
        <ele>58.1</ele>
        <time>2021-05-16T05:33:12Z</time>
      </trkpt>
      <trkpt lat="41.1631490" lon="-8.6596610">
        <ele>58.1</ele>
        <time>2021-05-16T05:33:13Z</time>
      </trkpt>
      <trkpt lat="41.1631500" lon="-8.6596740">
        <ele>58.0</ele>
        <time>2021-05-16T05:33:14Z</time>
      </trkpt>
      <trkpt lat="41.1631480" lon="-8.6596880">
        <ele>58.0</ele>
        <time>2021-05-16T05:33:15Z</time>
      </trkpt>
      <trkpt lat="41.1631470" lon="-8.6597110">
        <ele>57.9</ele>
        <time>2021-05-16T05:33:16Z</time>
      </trkpt>
      <trkpt lat="41.1631430" lon="-8.6597070">
        <ele>57.9</ele>
        <time>2021-05-16T05:33:17Z</time>
      </trkpt>
      <trkpt lat="41.1631420" lon="-8.6597200">
        <ele>57.8</ele>
        <time>2021-05-16T05:33:18Z</time>
      </trkpt>
      <trkpt lat="41.1631450" lon="-8.6597340">
        <ele>57.8</ele>
        <time>2021-05-16T05:33:19Z</time>
      </trkpt>
      <trkpt lat="41.1631470" lon="-8.6597540">
        <ele>57.7</ele>
        <time>2021-05-16T05:33:20Z</time>
      </trkpt>
      <trkpt lat="41.1631530" lon="-8.6597710">
        <ele>57.7</ele>
        <time>2021-05-16T05:33:21Z</time>
      </trkpt>
      <trkpt lat="41.1631460" lon="-8.6597910">
        <ele>57.6</ele>
        <time>2021-05-16T05:33:22Z</time>
      </trkpt>
      <trkpt lat="41.1631520" lon="-8.6598200">
        <ele>57.5</ele>
        <time>2021-05-16T05:33:23Z</time>
      </trkpt>
      <trkpt lat="41.1631470" lon="-8.6598360">
        <ele>57.4</ele>
        <time>2021-05-16T05:33:24Z</time>
      </trkpt>
      <trkpt lat="41.1631570" lon="-8.6598610">
        <ele>57.3</ele>
        <time>2021-05-16T05:33:25Z</time>
      </trkpt>
      <trkpt lat="41.1631690" lon="-8.6598730">
        <ele>57.3</ele>
        <time>2021-05-16T05:33:26Z</time>
      </trkpt>
      <trkpt lat="41.1631810" lon="-8.6598840">
        <ele>57.2</ele>
        <time>2021-05-16T05:33:27Z</time>
      </trkpt>
      <trkpt lat="41.1631970" lon="-8.6599140">
        <ele>57.1</ele>
        <time>2021-05-16T05:33:28Z</time>
      </trkpt>
      <trkpt lat="41.1632180" lon="-8.6599420">
        <ele>57.0</ele>
        <time>2021-05-16T05:33:29Z</time>
      </trkpt>
      <trkpt lat="41.1632190" lon="-8.6599620">
        <ele>56.9</ele>
        <time>2021-05-16T05:33:30Z</time>
      </trkpt>
      <trkpt lat="41.1632250" lon="-8.6600020">
        <ele>56.8</ele>
        <time>2021-05-16T05:33:31Z</time>
      </trkpt>
      <trkpt lat="41.1632260" lon="-8.6600190">
        <ele>56.7</ele>
        <time>2021-05-16T05:33:32Z</time>
      </trkpt>
      <trkpt lat="41.1632270" lon="-8.6600440">
        <ele>56.6</ele>
        <time>2021-05-16T05:33:33Z</time>
      </trkpt>
      <trkpt lat="41.1632240" lon="-8.6600610">
        <ele>56.6</ele>
        <time>2021-05-16T05:33:34Z</time>
      </trkpt>
      <trkpt lat="41.1632220" lon="-8.6600880">
        <ele>56.5</ele>
        <time>2021-05-16T05:33:35Z</time>
      </trkpt>
      <trkpt lat="41.1632230" lon="-8.6600990">
        <ele>56.5</ele>
        <time>2021-05-16T05:33:36Z</time>
      </trkpt>
      <trkpt lat="41.1632240" lon="-8.6601110">
        <ele>56.4</ele>
        <time>2021-05-16T05:33:37Z</time>
      </trkpt>
      <trkpt lat="41.1632260" lon="-8.6601220">
        <ele>56.4</ele>
        <time>2021-05-16T05:33:38Z</time>
      </trkpt>
      <trkpt lat="41.1632290" lon="-8.6601310">
        <ele>56.4</ele>
        <time>2021-05-16T05:33:39Z</time>
      </trkpt>
      <trkpt lat="41.1632340" lon="-8.6601530">
        <ele>56.3</ele>
        <time>2021-05-16T05:33:40Z</time>
      </trkpt>
      <trkpt lat="41.1632290" lon="-8.6601660">
        <ele>56.2</ele>
        <time>2021-05-16T05:33:41Z</time>
      </trkpt>
      <trkpt lat="41.1632310" lon="-8.6601840">
        <ele>56.2</ele>
        <time>2021-05-16T05:33:42Z</time>
      </trkpt>
      <trkpt lat="41.1632430" lon="-8.6601960">
        <ele>56.1</ele>
        <time>2021-05-16T05:33:43Z</time>
      </trkpt>
      <trkpt lat="41.1632560" lon="-8.6602380">
        <ele>56.0</ele>
        <time>2021-05-16T05:33:44Z</time>
      </trkpt>
      <trkpt lat="41.1632590" lon="-8.6602520">
        <ele>55.9</ele>
        <time>2021-05-16T05:33:45Z</time>
      </trkpt>
      <trkpt lat="41.1632620" lon="-8.6602730">
        <ele>55.8</ele>
        <time>2021-05-16T05:33:46Z</time>
      </trkpt>
      <trkpt lat="41.1632630" lon="-8.6602970">
        <ele>55.8</ele>
        <time>2021-05-16T05:33:47Z</time>
      </trkpt>
      <trkpt lat="41.1632680" lon="-8.6603110">
        <ele>55.7</ele>
        <time>2021-05-16T05:33:48Z</time>
      </trkpt>
      <trkpt lat="41.1632700" lon="-8.6603300">
        <ele>55.7</ele>
        <time>2021-05-16T05:33:49Z</time>
      </trkpt>
      <trkpt lat="41.1632730" lon="-8.6603410">
        <ele>55.6</ele>
        <time>2021-05-16T05:33:50Z</time>
      </trkpt>
      <trkpt lat="41.1632730" lon="-8.6603650">
        <ele>55.5</ele>
        <time>2021-05-16T05:33:51Z</time>
      </trkpt>
      <trkpt lat="41.1632720" lon="-8.6603880">
        <ele>55.5</ele>
        <time>2021-05-16T05:33:52Z</time>
      </trkpt>
      <trkpt lat="41.1632800" lon="-8.6604160">
        <ele>55.4</ele>
        <time>2021-05-16T05:33:53Z</time>
      </trkpt>
      <trkpt lat="41.1632790" lon="-8.6604300">
        <ele>55.3</ele>
        <time>2021-05-16T05:33:54Z</time>
      </trkpt>
      <trkpt lat="41.1632790" lon="-8.6604430">
        <ele>55.3</ele>
        <time>2021-05-16T05:33:55Z</time>
      </trkpt>
      <trkpt lat="41.1632830" lon="-8.6604640">
        <ele>55.2</ele>
        <time>2021-05-16T05:33:56Z</time>
      </trkpt>
      <trkpt lat="41.1632930" lon="-8.6604810">
        <ele>55.1</ele>
        <time>2021-05-16T05:33:57Z</time>
      </trkpt>
      <trkpt lat="41.1632970" lon="-8.6605110">
        <ele>55.0</ele>
        <time>2021-05-16T05:33:58Z</time>
      </trkpt>
      <trkpt lat="41.1632980" lon="-8.6605250">
        <ele>55.0</ele>
        <time>2021-05-16T05:33:59Z</time>
      </trkpt>
      <trkpt lat="41.1632990" lon="-8.6605400">
        <ele>54.9</ele>
        <time>2021-05-16T05:34:00Z</time>
      </trkpt>
      <trkpt lat="41.1633010" lon="-8.6605680">
        <ele>54.8</ele>
        <time>2021-05-16T05:34:01Z</time>
      </trkpt>
      <trkpt lat="41.1633020" lon="-8.6605800">
        <ele>54.8</ele>
        <time>2021-05-16T05:34:02Z</time>
      </trkpt>
      <trkpt lat="41.1633020" lon="-8.6605910">
        <ele>54.8</ele>
        <time>2021-05-16T05:34:03Z</time>
      </trkpt>
      <trkpt lat="41.1633080" lon="-8.6606060">
        <ele>54.7</ele>
        <time>2021-05-16T05:34:04Z</time>
      </trkpt>
      <trkpt lat="41.1633120" lon="-8.6606270">
        <ele>54.6</ele>
        <time>2021-05-16T05:34:05Z</time>
      </trkpt>
      <trkpt lat="41.1633120" lon="-8.6606360">
        <ele>54.6</ele>
        <time>2021-05-16T05:34:06Z</time>
      </trkpt>
      <trkpt lat="41.1633090" lon="-8.6606490">
        <ele>54.6</ele>
        <time>2021-05-16T05:34:07Z</time>
      </trkpt>
      <trkpt lat="41.1633090" lon="-8.6606730">
        <ele>54.5</ele>
        <time>2021-05-16T05:34:08Z</time>
      </trkpt>
      <trkpt lat="41.1633100" lon="-8.6606890">
        <ele>54.4</ele>
        <time>2021-05-16T05:34:09Z</time>
      </trkpt>
      <trkpt lat="41.1633120" lon="-8.6607150">
        <ele>54.4</ele>
        <time>2021-05-16T05:34:10Z</time>
      </trkpt>
      <trkpt lat="41.1633080" lon="-8.6607380">
        <ele>54.3</ele>
        <time>2021-05-16T05:34:11Z</time>
      </trkpt>
      <trkpt lat="41.1633160" lon="-8.6607570">
        <ele>54.2</ele>
        <time>2021-05-16T05:34:12Z</time>
      </trkpt>
      <trkpt lat="41.1633240" lon="-8.6607830">
        <ele>54.1</ele>
        <time>2021-05-16T05:34:13Z</time>
      </trkpt>
      <trkpt lat="41.1633270" lon="-8.6607940">
        <ele>54.1</ele>
        <time>2021-05-16T05:34:14Z</time>
      </trkpt>
      <trkpt lat="41.1633290" lon="-8.6608060">
        <ele>54.1</ele>
        <time>2021-05-16T05:34:15Z</time>
      </trkpt>
      <trkpt lat="41.1633340" lon="-8.6608180">
        <ele>54.0</ele>
        <time>2021-05-16T05:34:16Z</time>
      </trkpt>
      <trkpt lat="41.1633390" lon="-8.6608420">
        <ele>53.9</ele>
        <time>2021-05-16T05:34:17Z</time>
      </trkpt>
      <trkpt lat="41.1633500" lon="-8.6608740">
        <ele>53.8</ele>
        <time>2021-05-16T05:34:18Z</time>
      </trkpt>
      <trkpt lat="41.1633540" lon="-8.6608860">
        <ele>53.8</ele>
        <time>2021-05-16T05:34:19Z</time>
      </trkpt>
      <trkpt lat="41.1633480" lon="-8.6609100">
        <ele>53.7</ele>
        <time>2021-05-16T05:34:20Z</time>
      </trkpt>
      <trkpt lat="41.1633510" lon="-8.6609240">
        <ele>53.6</ele>
        <time>2021-05-16T05:34:21Z</time>
      </trkpt>
      <trkpt lat="41.1633540" lon="-8.6609370">
        <ele>53.6</ele>
        <time>2021-05-16T05:34:22Z</time>
      </trkpt>
      <trkpt lat="41.1633580" lon="-8.6609550">
        <ele>53.5</ele>
        <time>2021-05-16T05:34:23Z</time>
      </trkpt>
      <trkpt lat="41.1633610" lon="-8.6609750">
        <ele>53.5</ele>
        <time>2021-05-16T05:34:24Z</time>
      </trkpt>
      <trkpt lat="41.1633680" lon="-8.6610170">
        <ele>53.3</ele>
        <time>2021-05-16T05:34:25Z</time>
      </trkpt>
      <trkpt lat="41.1633680" lon="-8.6610310">
        <ele>53.3</ele>
        <time>2021-05-16T05:34:26Z</time>
      </trkpt>
      <trkpt lat="41.1633660" lon="-8.6610560">
        <ele>53.2</ele>
        <time>2021-05-16T05:34:27Z</time>
      </trkpt>
      <trkpt lat="41.1633680" lon="-8.6610720">
        <ele>53.1</ele>
        <time>2021-05-16T05:34:28Z</time>
      </trkpt>
      <trkpt lat="41.1633790" lon="-8.6610920">
        <ele>53.1</ele>
        <time>2021-05-16T05:34:29Z</time>
      </trkpt>
      <trkpt lat="41.1633870" lon="-8.6611050">
        <ele>53.0</ele>
        <time>2021-05-16T05:34:30Z</time>
      </trkpt>
      <trkpt lat="41.1633970" lon="-8.6611280">
        <ele>52.9</ele>
        <time>2021-05-16T05:34:31Z</time>
      </trkpt>
      <trkpt lat="41.1633970" lon="-8.6611430">
        <ele>52.9</ele>
        <time>2021-05-16T05:34:32Z</time>
      </trkpt>
      <trkpt lat="41.1634040" lon="-8.6611630">
        <ele>52.8</ele>
        <time>2021-05-16T05:34:33Z</time>
      </trkpt>
      <trkpt lat="41.1634040" lon="-8.6611840">
        <ele>52.7</ele>
        <time>2021-05-16T05:34:34Z</time>
      </trkpt>
      <trkpt lat="41.1634150" lon="-8.6612110">
        <ele>52.6</ele>
        <time>2021-05-16T05:34:35Z</time>
      </trkpt>
      <trkpt lat="41.1634180" lon="-8.6612230">
        <ele>52.6</ele>
        <time>2021-05-16T05:34:36Z</time>
      </trkpt>
      <trkpt lat="41.1634210" lon="-8.6612350">
        <ele>52.6</ele>
        <time>2021-05-16T05:34:37Z</time>
      </trkpt>
      <trkpt lat="41.1634190" lon="-8.6612540">
        <ele>52.5</ele>
        <time>2021-05-16T05:34:38Z</time>
      </trkpt>
      <trkpt lat="41.1634290" lon="-8.6612760">
        <ele>52.4</ele>
        <time>2021-05-16T05:34:39Z</time>
      </trkpt>
      <trkpt lat="41.1634340" lon="-8.6612880">
        <ele>52.4</ele>
        <time>2021-05-16T05:34:40Z</time>
      </trkpt>
      <trkpt lat="41.1634460" lon="-8.6613070">
        <ele>52.3</ele>
        <time>2021-05-16T05:34:41Z</time>
      </trkpt>
      <trkpt lat="41.1634340" lon="-8.6613220">
        <ele>52.2</ele>
        <time>2021-05-16T05:34:42Z</time>
      </trkpt>
      <trkpt lat="41.1634360" lon="-8.6613440">
        <ele>52.2</ele>
        <time>2021-05-16T05:34:43Z</time>
      </trkpt>
      <trkpt lat="41.1634410" lon="-8.6613610">
        <ele>52.1</ele>
        <time>2021-05-16T05:34:44Z</time>
      </trkpt>
      <trkpt lat="41.1634420" lon="-8.6613800">
        <ele>52.0</ele>
        <time>2021-05-16T05:34:45Z</time>
      </trkpt>
      <trkpt lat="41.1634440" lon="-8.6613950">
        <ele>52.0</ele>
        <time>2021-05-16T05:34:46Z</time>
      </trkpt>
      <trkpt lat="41.1634410" lon="-8.6614090">
        <ele>51.9</ele>
        <time>2021-05-16T05:34:47Z</time>
      </trkpt>
      <trkpt lat="41.1634530" lon="-8.6614240">
        <ele>51.9</ele>
        <time>2021-05-16T05:34:48Z</time>
      </trkpt>
      <trkpt lat="41.1634530" lon="-8.6614570">
        <ele>51.8</ele>
        <time>2021-05-16T05:34:49Z</time>
      </trkpt>
      <trkpt lat="41.1634560" lon="-8.6614670">
        <ele>51.7</ele>
        <time>2021-05-16T05:34:50Z</time>
      </trkpt>
      <trkpt lat="41.1634600" lon="-8.6614770">
        <ele>51.7</ele>
        <time>2021-05-16T05:34:51Z</time>
      </trkpt>
      <trkpt lat="41.1634610" lon="-8.6614900">
        <ele>51.6</ele>
        <time>2021-05-16T05:34:52Z</time>
      </trkpt>
      <trkpt lat="41.1634630" lon="-8.6615130">
        <ele>51.6</ele>
        <time>2021-05-16T05:34:53Z</time>
      </trkpt>
      <trkpt lat="41.1634790" lon="-8.6615410">
        <ele>51.5</ele>
        <time>2021-05-16T05:34:54Z</time>
      </trkpt>
      <trkpt lat="41.1634810" lon="-8.6615560">
        <ele>51.4</ele>
        <time>2021-05-16T05:34:55Z</time>
      </trkpt>
      <trkpt lat="41.1634800" lon="-8.6615740">
        <ele>51.3</ele>
        <time>2021-05-16T05:34:56Z</time>
      </trkpt>
      <trkpt lat="41.1634920" lon="-8.6615930">
        <ele>51.3</ele>
        <time>2021-05-16T05:34:57Z</time>
      </trkpt>
      <trkpt lat="41.1635010" lon="-8.6616160">
        <ele>51.2</ele>
        <time>2021-05-16T05:34:58Z</time>
      </trkpt>
      <trkpt lat="41.1634990" lon="-8.6616310">
        <ele>51.1</ele>
        <time>2021-05-16T05:34:59Z</time>
      </trkpt>
      <trkpt lat="41.1634990" lon="-8.6616380">
        <ele>51.1</ele>
        <time>2021-05-16T05:35:00Z</time>
      </trkpt>
      <trkpt lat="41.1635010" lon="-8.6616430">
        <ele>51.1</ele>
        <time>2021-05-16T05:35:01Z</time>
      </trkpt>
      <trkpt lat="41.1634990" lon="-8.6616750">
        <ele>51.0</ele>
        <time>2021-05-16T05:35:02Z</time>
      </trkpt>
      <trkpt lat="41.1634990" lon="-8.6616970">
        <ele>50.9</ele>
        <time>2021-05-16T05:35:03Z</time>
      </trkpt>
      <trkpt lat="41.1635090" lon="-8.6617100">
        <ele>50.8</ele>
        <time>2021-05-16T05:35:04Z</time>
      </trkpt>
      <trkpt lat="41.1635070" lon="-8.6617500">
        <ele>50.7</ele>
        <time>2021-05-16T05:35:05Z</time>
      </trkpt>
      <trkpt lat="41.1635050" lon="-8.6617610">
        <ele>50.7</ele>
        <time>2021-05-16T05:35:06Z</time>
      </trkpt>
      <trkpt lat="41.1635040" lon="-8.6617720">
        <ele>50.6</ele>
        <time>2021-05-16T05:35:07Z</time>
      </trkpt>
      <trkpt lat="41.1635000" lon="-8.6617900">
        <ele>50.6</ele>
        <time>2021-05-16T05:35:08Z</time>
      </trkpt>
      <trkpt lat="41.1635060" lon="-8.6617880">
        <ele>50.6</ele>
        <time>2021-05-16T05:35:09Z</time>
      </trkpt>
      <trkpt lat="41.1635020" lon="-8.6618010">
        <ele>50.5</ele>
        <time>2021-05-16T05:35:10Z</time>
      </trkpt>
      <trkpt lat="41.1635050" lon="-8.6618160">
        <ele>50.5</ele>
        <time>2021-05-16T05:35:11Z</time>
      </trkpt>
      <trkpt lat="41.1635090" lon="-8.6618530">
        <ele>50.4</ele>
        <time>2021-05-16T05:35:12Z</time>
      </trkpt>
      <trkpt lat="41.1635110" lon="-8.6618720">
        <ele>50.3</ele>
        <time>2021-05-16T05:35:13Z</time>
      </trkpt>
      <trkpt lat="41.1635190" lon="-8.6618950">
        <ele>50.2</ele>
        <time>2021-05-16T05:35:14Z</time>
      </trkpt>
      <trkpt lat="41.1635120" lon="-8.6619180">
        <ele>50.1</ele>
        <time>2021-05-16T05:35:15Z</time>
      </trkpt>
      <trkpt lat="41.1635060" lon="-8.6619320">
        <ele>50.1</ele>
        <time>2021-05-16T05:35:16Z</time>
      </trkpt>
      <trkpt lat="41.1634980" lon="-8.6619550">
        <ele>50.0</ele>
        <time>2021-05-16T05:35:17Z</time>
      </trkpt>
      <trkpt lat="41.1634930" lon="-8.6619860">
        <ele>49.9</ele>
        <time>2021-05-16T05:35:18Z</time>
      </trkpt>
      <trkpt lat="41.1634930" lon="-8.6619990">
        <ele>49.9</ele>
        <time>2021-05-16T05:35:19Z</time>
      </trkpt>
      <trkpt lat="41.1634920" lon="-8.6620120">
        <ele>49.8</ele>
        <time>2021-05-16T05:35:20Z</time>
      </trkpt>
      <trkpt lat="41.1634900" lon="-8.6620320">
        <ele>49.8</ele>
        <time>2021-05-16T05:35:21Z</time>
      </trkpt>
      <trkpt lat="41.1634940" lon="-8.6620580">
        <ele>49.7</ele>
        <time>2021-05-16T05:35:22Z</time>
      </trkpt>
      <trkpt lat="41.1634920" lon="-8.6620660">
        <ele>49.7</ele>
        <time>2021-05-16T05:35:23Z</time>
      </trkpt>
      <trkpt lat="41.1634910" lon="-8.6620820">
        <ele>49.6</ele>
        <time>2021-05-16T05:35:24Z</time>
      </trkpt>
      <trkpt lat="41.1634910" lon="-8.6621030">
        <ele>49.5</ele>
        <time>2021-05-16T05:35:25Z</time>
      </trkpt>
      <trkpt lat="41.1634900" lon="-8.6621080">
        <ele>49.5</ele>
        <time>2021-05-16T05:35:26Z</time>
      </trkpt>
      <trkpt lat="41.1634890" lon="-8.6621270">
        <ele>49.5</ele>
        <time>2021-05-16T05:35:27Z</time>
      </trkpt>
      <trkpt lat="41.1634890" lon="-8.6621420">
        <ele>49.4</ele>
        <time>2021-05-16T05:35:28Z</time>
      </trkpt>
      <trkpt lat="41.1634800" lon="-8.6621530">
        <ele>49.4</ele>
        <time>2021-05-16T05:35:29Z</time>
      </trkpt>
      <trkpt lat="41.1634750" lon="-8.6621710">
        <ele>49.3</ele>
        <time>2021-05-16T05:35:30Z</time>
      </trkpt>
      <trkpt lat="41.1634840" lon="-8.6621800">
        <ele>49.2</ele>
        <time>2021-05-16T05:35:31Z</time>
      </trkpt>
      <trkpt lat="41.1635130" lon="-8.6622170">
        <ele>49.1</ele>
        <time>2021-05-16T05:35:32Z</time>
      </trkpt>
      <trkpt lat="41.1635260" lon="-8.6622320">
        <ele>49.0</ele>
        <time>2021-05-16T05:35:33Z</time>
      </trkpt>
      <trkpt lat="41.1635470" lon="-8.6622550">
        <ele>48.9</ele>
        <time>2021-05-16T05:35:34Z</time>
      </trkpt>
      <trkpt lat="41.1635550" lon="-8.6622700">
        <ele>48.9</ele>
        <time>2021-05-16T05:35:35Z</time>
      </trkpt>
      <trkpt lat="41.1635740" lon="-8.6623040">
        <ele>48.8</ele>
        <time>2021-05-16T05:35:36Z</time>
      </trkpt>
      <trkpt lat="41.1635770" lon="-8.6623120">
        <ele>48.8</ele>
        <time>2021-05-16T05:35:37Z</time>
      </trkpt>
      <trkpt lat="41.1635820" lon="-8.6623270">
        <ele>48.7</ele>
        <time>2021-05-16T05:35:38Z</time>
      </trkpt>
      <trkpt lat="41.1635920" lon="-8.6623500">
        <ele>48.7</ele>
        <time>2021-05-16T05:35:39Z</time>
      </trkpt>
      <trkpt lat="41.1635990" lon="-8.6623720">
        <ele>48.6</ele>
        <time>2021-05-16T05:35:40Z</time>
      </trkpt>
      <trkpt lat="41.1635970" lon="-8.6623920">
        <ele>48.6</ele>
        <time>2021-05-16T05:35:41Z</time>
      </trkpt>
      <trkpt lat="41.1636070" lon="-8.6624160">
        <ele>48.5</ele>
        <time>2021-05-16T05:35:42Z</time>
      </trkpt>
      <trkpt lat="41.1636140" lon="-8.6624270">
        <ele>48.5</ele>
        <time>2021-05-16T05:35:43Z</time>
      </trkpt>
      <trkpt lat="41.1636220" lon="-8.6624370">
        <ele>48.5</ele>
        <time>2021-05-16T05:35:44Z</time>
      </trkpt>
      <trkpt lat="41.1636260" lon="-8.6624440">
        <ele>48.4</ele>
        <time>2021-05-16T05:35:45Z</time>
      </trkpt>
      <trkpt lat="41.1636330" lon="-8.6624820">
        <ele>48.4</ele>
        <time>2021-05-16T05:35:46Z</time>
      </trkpt>
      <trkpt lat="41.1636370" lon="-8.6625090">
        <ele>48.3</ele>
        <time>2021-05-16T05:35:47Z</time>
      </trkpt>
      <trkpt lat="41.1636370" lon="-8.6625250">
        <ele>48.3</ele>
        <time>2021-05-16T05:35:48Z</time>
      </trkpt>
      <trkpt lat="41.1636380" lon="-8.6625410">
        <ele>48.2</ele>
        <time>2021-05-16T05:35:49Z</time>
      </trkpt>
      <trkpt lat="41.1636480" lon="-8.6625650">
        <ele>48.2</ele>
        <time>2021-05-16T05:35:50Z</time>
      </trkpt>
      <trkpt lat="41.1636520" lon="-8.6625740">
        <ele>48.1</ele>
        <time>2021-05-16T05:35:51Z</time>
      </trkpt>
      <trkpt lat="41.1636570" lon="-8.6626070">
        <ele>48.0</ele>
        <time>2021-05-16T05:35:52Z</time>
      </trkpt>
      <trkpt lat="41.1636570" lon="-8.6626190">
        <ele>48.0</ele>
        <time>2021-05-16T05:35:53Z</time>
      </trkpt>
      <trkpt lat="41.1636580" lon="-8.6626320">
        <ele>48.0</ele>
        <time>2021-05-16T05:35:54Z</time>
      </trkpt>
      <trkpt lat="41.1636660" lon="-8.6626650">
        <ele>47.9</ele>
        <time>2021-05-16T05:35:55Z</time>
      </trkpt>
      <trkpt lat="41.1636680" lon="-8.6626800">
        <ele>47.9</ele>
        <time>2021-05-16T05:35:56Z</time>
      </trkpt>
      <trkpt lat="41.1636700" lon="-8.6626950">
        <ele>47.9</ele>
        <time>2021-05-16T05:35:57Z</time>
      </trkpt>
      <trkpt lat="41.1636790" lon="-8.6627210">
        <ele>47.8</ele>
        <time>2021-05-16T05:35:58Z</time>
      </trkpt>
      <trkpt lat="41.1636850" lon="-8.6627280">
        <ele>47.8</ele>
        <time>2021-05-16T05:35:59Z</time>
      </trkpt>
      <trkpt lat="41.1636840" lon="-8.6627340">
        <ele>47.8</ele>
        <time>2021-05-16T05:36:00Z</time>
      </trkpt>
      <trkpt lat="41.1637010" lon="-8.6627450">
        <ele>47.7</ele>
        <time>2021-05-16T05:36:01Z</time>
      </trkpt>
      <trkpt lat="41.1637050" lon="-8.6627520">
        <ele>47.4</ele>
        <time>2021-05-16T05:36:02Z</time>
      </trkpt>
      <trkpt lat="41.1637140" lon="-8.6627920">
        <ele>47.4</ele>
        <time>2021-05-16T05:36:03Z</time>
      </trkpt>
      <trkpt lat="41.1637160" lon="-8.6628020">
        <ele>47.4</ele>
        <time>2021-05-16T05:36:04Z</time>
      </trkpt>
      <trkpt lat="41.1637240" lon="-8.6628300">
        <ele>47.3</ele>
        <time>2021-05-16T05:36:05Z</time>
      </trkpt>
      <trkpt lat="41.1637260" lon="-8.6628420">
        <ele>47.3</ele>
        <time>2021-05-16T05:36:06Z</time>
      </trkpt>
      <trkpt lat="41.1637300" lon="-8.6628830">
        <ele>47.3</ele>
        <time>2021-05-16T05:36:07Z</time>
      </trkpt>
      <trkpt lat="41.1637290" lon="-8.6628920">
        <ele>47.3</ele>
        <time>2021-05-16T05:36:08Z</time>
      </trkpt>
      <trkpt lat="41.1637370" lon="-8.6628960">
        <ele>47.2</ele>
        <time>2021-05-16T05:36:09Z</time>
      </trkpt>
      <trkpt lat="41.1637410" lon="-8.6629020">
        <ele>47.2</ele>
        <time>2021-05-16T05:36:10Z</time>
      </trkpt>
      <trkpt lat="41.1637430" lon="-8.6629100">
        <ele>47.2</ele>
        <time>2021-05-16T05:36:11Z</time>
      </trkpt>
      <trkpt lat="41.1637480" lon="-8.6629120">
        <ele>47.2</ele>
        <time>2021-05-16T05:36:12Z</time>
      </trkpt>
      <trkpt lat="41.1637520" lon="-8.6629040">
        <ele>47.2</ele>
        <time>2021-05-16T05:36:13Z</time>
      </trkpt>
      <trkpt lat="41.1637630" lon="-8.6628960">
        <ele>47.2</ele>
        <time>2021-05-16T05:36:14Z</time>
      </trkpt>
      <trkpt lat="41.1637840" lon="-8.6628950">
        <ele>47.2</ele>
        <time>2021-05-16T05:36:15Z</time>
      </trkpt>
      <trkpt lat="41.1637890" lon="-8.6628840">
        <ele>47.2</ele>
        <time>2021-05-16T05:36:16Z</time>
      </trkpt>
      <trkpt lat="41.1638090" lon="-8.6628790">
        <ele>47.1</ele>
        <time>2021-05-16T05:36:17Z</time>
      </trkpt>
      <trkpt lat="41.1638190" lon="-8.6628680">
        <ele>47.1</ele>
        <time>2021-05-16T05:36:18Z</time>
      </trkpt>
      <trkpt lat="41.1638440" lon="-8.6628700">
        <ele>47.1</ele>
        <time>2021-05-16T05:36:19Z</time>
      </trkpt>
      <trkpt lat="41.1638540" lon="-8.6628740">
        <ele>47.1</ele>
        <time>2021-05-16T05:36:20Z</time>
      </trkpt>
      <trkpt lat="41.1638640" lon="-8.6628790">
        <ele>46.7</ele>
        <time>2021-05-16T05:36:21Z</time>
      </trkpt>
      <trkpt lat="41.1638750" lon="-8.6628780">
        <ele>46.7</ele>
        <time>2021-05-16T05:36:22Z</time>
      </trkpt>
      <trkpt lat="41.1638830" lon="-8.6628760">
        <ele>46.6</ele>
        <time>2021-05-16T05:36:23Z</time>
      </trkpt>
      <trkpt lat="41.1638970" lon="-8.6628740">
        <ele>46.6</ele>
        <time>2021-05-16T05:36:24Z</time>
      </trkpt>
      <trkpt lat="41.1639060" lon="-8.6628770">
        <ele>46.6</ele>
        <time>2021-05-16T05:36:25Z</time>
      </trkpt>
      <trkpt lat="41.1639250" lon="-8.6629010">
        <ele>46.5</ele>
        <time>2021-05-16T05:36:26Z</time>
      </trkpt>
      <trkpt lat="41.1639420" lon="-8.6629180">
        <ele>46.4</ele>
        <time>2021-05-16T05:36:27Z</time>
      </trkpt>
      <trkpt lat="41.1639510" lon="-8.6629330">
        <ele>46.4</ele>
        <time>2021-05-16T05:36:28Z</time>
      </trkpt>
      <trkpt lat="41.1639710" lon="-8.6629610">
        <ele>46.3</ele>
        <time>2021-05-16T05:36:29Z</time>
      </trkpt>
      <trkpt lat="41.1639840" lon="-8.6629950">
        <ele>46.2</ele>
        <time>2021-05-16T05:36:30Z</time>
      </trkpt>
      <trkpt lat="41.1640140" lon="-8.6630130">
        <ele>46.1</ele>
        <time>2021-05-16T05:36:31Z</time>
      </trkpt>
      <trkpt lat="41.1640290" lon="-8.6630530">
        <ele>46.0</ele>
        <time>2021-05-16T05:36:32Z</time>
      </trkpt>
      <trkpt lat="41.1640350" lon="-8.6630740">
        <ele>46.0</ele>
        <time>2021-05-16T05:36:33Z</time>
      </trkpt>
      <trkpt lat="41.1640530" lon="-8.6631050">
        <ele>45.9</ele>
        <time>2021-05-16T05:36:34Z</time>
      </trkpt>
      <trkpt lat="41.1640580" lon="-8.6631230">
        <ele>45.9</ele>
        <time>2021-05-16T05:36:35Z</time>
      </trkpt>
      <trkpt lat="41.1640830" lon="-8.6631450">
        <ele>45.9</ele>
        <time>2021-05-16T05:36:36Z</time>
      </trkpt>
      <trkpt lat="41.1640890" lon="-8.6631510">
        <ele>45.9</ele>
        <time>2021-05-16T05:36:37Z</time>
      </trkpt>
      <trkpt lat="41.1641010" lon="-8.6631870">
        <ele>45.9</ele>
        <time>2021-05-16T05:36:38Z</time>
      </trkpt>
      <trkpt lat="41.1641040" lon="-8.6632000">
        <ele>45.8</ele>
        <time>2021-05-16T05:36:39Z</time>
      </trkpt>
      <trkpt lat="41.1641180" lon="-8.6632190">
        <ele>45.8</ele>
        <time>2021-05-16T05:36:41Z</time>
      </trkpt>
      <trkpt lat="41.1641210" lon="-8.6632340">
        <ele>45.8</ele>
        <time>2021-05-16T05:36:42Z</time>
      </trkpt>
      <trkpt lat="41.1641320" lon="-8.6632540">
        <ele>45.8</ele>
        <time>2021-05-16T05:36:43Z</time>
      </trkpt>
      <trkpt lat="41.1641380" lon="-8.6632660">
        <ele>45.8</ele>
        <time>2021-05-16T05:36:44Z</time>
      </trkpt>
      <trkpt lat="41.1641540" lon="-8.6632850">
        <ele>45.9</ele>
        <time>2021-05-16T05:36:45Z</time>
      </trkpt>
      <trkpt lat="41.1641620" lon="-8.6632920">
        <ele>45.9</ele>
        <time>2021-05-16T05:36:46Z</time>
      </trkpt>
      <trkpt lat="41.1641700" lon="-8.6632990">
        <ele>45.9</ele>
        <time>2021-05-16T05:36:47Z</time>
      </trkpt>
      <trkpt lat="41.1641720" lon="-8.6633000">
        <ele>45.9</ele>
        <time>2021-05-16T05:36:48Z</time>
      </trkpt>
      <trkpt lat="41.1641780" lon="-8.6633010">
        <ele>45.9</ele>
        <time>2021-05-16T05:36:49Z</time>
      </trkpt>
      <trkpt lat="41.1641850" lon="-8.6632990">
        <ele>45.9</ele>
        <time>2021-05-16T05:36:50Z</time>
      </trkpt>
      <trkpt lat="41.1641910" lon="-8.6632960">
        <ele>45.9</ele>
        <time>2021-05-16T05:36:51Z</time>
      </trkpt>
      <trkpt lat="41.1641980" lon="-8.6633010">
        <ele>45.9</ele>
        <time>2021-05-16T05:36:52Z</time>
      </trkpt>
      <trkpt lat="41.1642070" lon="-8.6633130">
        <ele>45.9</ele>
        <time>2021-05-16T05:36:53Z</time>
      </trkpt>
      <trkpt lat="41.1642140" lon="-8.6633170">
        <ele>46.0</ele>
        <time>2021-05-16T05:36:54Z</time>
      </trkpt>
      <trkpt lat="41.1642240" lon="-8.6633200">
        <ele>46.0</ele>
        <time>2021-05-16T05:36:55Z</time>
      </trkpt>
      <trkpt lat="41.1642380" lon="-8.6633310">
        <ele>46.0</ele>
        <time>2021-05-16T05:36:56Z</time>
      </trkpt>
      <trkpt lat="41.1642400" lon="-8.6633380">
        <ele>46.0</ele>
        <time>2021-05-16T05:36:57Z</time>
      </trkpt>
      <trkpt lat="41.1642510" lon="-8.6633420">
        <ele>46.0</ele>
        <time>2021-05-16T05:36:58Z</time>
      </trkpt>
      <trkpt lat="41.1642700" lon="-8.6633550">
        <ele>46.1</ele>
        <time>2021-05-16T05:36:59Z</time>
      </trkpt>
      <trkpt lat="41.1642810" lon="-8.6633620">
        <ele>46.1</ele>
        <time>2021-05-16T05:37:00Z</time>
      </trkpt>
      <trkpt lat="41.1642910" lon="-8.6633680">
        <ele>46.2</ele>
        <time>2021-05-16T05:37:01Z</time>
      </trkpt>
      <trkpt lat="41.1643090" lon="-8.6633800">
        <ele>46.2</ele>
        <time>2021-05-16T05:37:02Z</time>
      </trkpt>
      <trkpt lat="41.1643160" lon="-8.6633870">
        <ele>46.2</ele>
        <time>2021-05-16T05:37:03Z</time>
      </trkpt>
      <trkpt lat="41.1643230" lon="-8.6633940">
        <ele>46.3</ele>
        <time>2021-05-16T05:37:04Z</time>
      </trkpt>
      <trkpt lat="41.1643320" lon="-8.6633960">
        <ele>46.3</ele>
        <time>2021-05-16T05:37:05Z</time>
      </trkpt>
      <trkpt lat="41.1643520" lon="-8.6634070">
        <ele>46.4</ele>
        <time>2021-05-16T05:37:06Z</time>
      </trkpt>
      <trkpt lat="41.1643590" lon="-8.6634050">
        <ele>46.4</ele>
        <time>2021-05-16T05:37:07Z</time>
      </trkpt>
      <trkpt lat="41.1643660" lon="-8.6634080">
        <ele>46.4</ele>
        <time>2021-05-16T05:37:08Z</time>
      </trkpt>
      <trkpt lat="41.1643850" lon="-8.6634150">
        <ele>46.5</ele>
        <time>2021-05-16T05:37:09Z</time>
      </trkpt>
      <trkpt lat="41.1644010" lon="-8.6634190">
        <ele>46.5</ele>
        <time>2021-05-16T05:37:10Z</time>
      </trkpt>
      <trkpt lat="41.1644200" lon="-8.6634260">
        <ele>46.6</ele>
        <time>2021-05-16T05:37:11Z</time>
      </trkpt>
      <trkpt lat="41.1644300" lon="-8.6634230">
        <ele>46.7</ele>
        <time>2021-05-16T05:37:12Z</time>
      </trkpt>
      <trkpt lat="41.1644430" lon="-8.6634340">
        <ele>46.7</ele>
        <time>2021-05-16T05:37:13Z</time>
      </trkpt>
      <trkpt lat="41.1644490" lon="-8.6634380">
        <ele>46.7</ele>
        <time>2021-05-16T05:37:14Z</time>
      </trkpt>
      <trkpt lat="41.1644660" lon="-8.6634380">
        <ele>46.8</ele>
        <time>2021-05-16T05:37:15Z</time>
      </trkpt>
      <trkpt lat="41.1644780" lon="-8.6634440">
        <ele>46.9</ele>
        <time>2021-05-16T05:37:16Z</time>
      </trkpt>
      <trkpt lat="41.1644960" lon="-8.6634560">
        <ele>47.0</ele>
        <time>2021-05-16T05:37:17Z</time>
      </trkpt>
      <trkpt lat="41.1645050" lon="-8.6634570">
        <ele>47.0</ele>
        <time>2021-05-16T05:37:18Z</time>
      </trkpt>
      <trkpt lat="41.1645170" lon="-8.6634600">
        <ele>47.0</ele>
        <time>2021-05-16T05:37:19Z</time>
      </trkpt>
      <trkpt lat="41.1645300" lon="-8.6634700">
        <ele>47.1</ele>
        <time>2021-05-16T05:37:20Z</time>
      </trkpt>
      <trkpt lat="41.1645400" lon="-8.6634700">
        <ele>47.2</ele>
        <time>2021-05-16T05:37:21Z</time>
      </trkpt>
      <trkpt lat="41.1645510" lon="-8.6634720">
        <ele>47.2</ele>
        <time>2021-05-16T05:37:22Z</time>
      </trkpt>
      <trkpt lat="41.1645630" lon="-8.6634780">
        <ele>47.3</ele>
        <time>2021-05-16T05:37:23Z</time>
      </trkpt>
      <trkpt lat="41.1645810" lon="-8.6634930">
        <ele>47.4</ele>
        <time>2021-05-16T05:37:24Z</time>
      </trkpt>
      <trkpt lat="41.1645930" lon="-8.6635030">
        <ele>47.5</ele>
        <time>2021-05-16T05:37:25Z</time>
      </trkpt>
      <trkpt lat="41.1646000" lon="-8.6635130">
        <ele>47.5</ele>
        <time>2021-05-16T05:37:26Z</time>
      </trkpt>
      <trkpt lat="41.1646220" lon="-8.6635260">
        <ele>47.6</ele>
        <time>2021-05-16T05:37:27Z</time>
      </trkpt>
      <trkpt lat="41.1646390" lon="-8.6635290">
        <ele>47.7</ele>
        <time>2021-05-16T05:37:28Z</time>
      </trkpt>
      <trkpt lat="41.1646520" lon="-8.6635350">
        <ele>47.8</ele>
        <time>2021-05-16T05:37:29Z</time>
      </trkpt>
      <trkpt lat="41.1646640" lon="-8.6635420">
        <ele>47.9</ele>
        <time>2021-05-16T05:37:30Z</time>
      </trkpt>
      <trkpt lat="41.1646770" lon="-8.6635540">
        <ele>48.0</ele>
        <time>2021-05-16T05:37:31Z</time>
      </trkpt>
      <trkpt lat="41.1646860" lon="-8.6635640">
        <ele>48.0</ele>
        <time>2021-05-16T05:37:32Z</time>
      </trkpt>
      <trkpt lat="41.1647050" lon="-8.6635720">
        <ele>48.2</ele>
        <time>2021-05-16T05:37:33Z</time>
      </trkpt>
      <trkpt lat="41.1647120" lon="-8.6635810">
        <ele>48.2</ele>
        <time>2021-05-16T05:37:34Z</time>
      </trkpt>
      <trkpt lat="41.1647200" lon="-8.6635900">
        <ele>48.3</ele>
        <time>2021-05-16T05:37:35Z</time>
      </trkpt>
      <trkpt lat="41.1647330" lon="-8.6635980">
        <ele>48.3</ele>
        <time>2021-05-16T05:37:36Z</time>
      </trkpt>
      <trkpt lat="41.1647510" lon="-8.6636060">
        <ele>48.5</ele>
        <time>2021-05-16T05:37:37Z</time>
      </trkpt>
      <trkpt lat="41.1647720" lon="-8.6636140">
        <ele>48.6</ele>
        <time>2021-05-16T05:37:38Z</time>
      </trkpt>
      <trkpt lat="41.1647780" lon="-8.6636250">
        <ele>48.6</ele>
        <time>2021-05-16T05:37:39Z</time>
      </trkpt>
      <trkpt lat="41.1647950" lon="-8.6636390">
        <ele>48.8</ele>
        <time>2021-05-16T05:37:40Z</time>
      </trkpt>
      <trkpt lat="41.1648050" lon="-8.6636470">
        <ele>48.8</ele>
        <time>2021-05-16T05:37:41Z</time>
      </trkpt>
      <trkpt lat="41.1648240" lon="-8.6636410">
        <ele>48.9</ele>
        <time>2021-05-16T05:37:42Z</time>
      </trkpt>
      <trkpt lat="41.1648400" lon="-8.6636420">
        <ele>49.0</ele>
        <time>2021-05-16T05:37:43Z</time>
      </trkpt>
      <trkpt lat="41.1648600" lon="-8.6636430">
        <ele>49.1</ele>
        <time>2021-05-16T05:37:44Z</time>
      </trkpt>
      <trkpt lat="41.1648690" lon="-8.6636480">
        <ele>49.2</ele>
        <time>2021-05-16T05:37:45Z</time>
      </trkpt>
      <trkpt lat="41.1648770" lon="-8.6636520">
        <ele>49.2</ele>
        <time>2021-05-16T05:37:46Z</time>
      </trkpt>
      <trkpt lat="41.1648870" lon="-8.6636610">
        <ele>49.3</ele>
        <time>2021-05-16T05:37:47Z</time>
      </trkpt>
      <trkpt lat="41.1648960" lon="-8.6636690">
        <ele>49.4</ele>
        <time>2021-05-16T05:37:48Z</time>
      </trkpt>
      <trkpt lat="41.1649040" lon="-8.6636810">
        <ele>49.4</ele>
        <time>2021-05-16T05:37:49Z</time>
      </trkpt>
      <trkpt lat="41.1649260" lon="-8.6637110">
        <ele>49.6</ele>
        <time>2021-05-16T05:37:50Z</time>
      </trkpt>
      <trkpt lat="41.1649370" lon="-8.6637180">
        <ele>49.6</ele>
        <time>2021-05-16T05:37:51Z</time>
      </trkpt>
      <trkpt lat="41.1649520" lon="-8.6637320">
        <ele>49.7</ele>
        <time>2021-05-16T05:37:52Z</time>
      </trkpt>
      <trkpt lat="41.1649640" lon="-8.6637360">
        <ele>49.8</ele>
        <time>2021-05-16T05:37:53Z</time>
      </trkpt>
      <trkpt lat="41.1649810" lon="-8.6637400">
        <ele>49.9</ele>
        <time>2021-05-16T05:37:54Z</time>
      </trkpt>
      <trkpt lat="41.1650090" lon="-8.6637550">
        <ele>50.1</ele>
        <time>2021-05-16T05:37:55Z</time>
      </trkpt>
      <trkpt lat="41.1650180" lon="-8.6637560">
        <ele>50.1</ele>
        <time>2021-05-16T05:37:56Z</time>
      </trkpt>
      <trkpt lat="41.1650280" lon="-8.6637600">
        <ele>50.2</ele>
        <time>2021-05-16T05:37:57Z</time>
      </trkpt>
      <trkpt lat="41.1650430" lon="-8.6637710">
        <ele>50.2</ele>
        <time>2021-05-16T05:37:58Z</time>
      </trkpt>
      <trkpt lat="41.1650560" lon="-8.6637790">
        <ele>50.3</ele>
        <time>2021-05-16T05:37:59Z</time>
      </trkpt>
      <trkpt lat="41.1650700" lon="-8.6637860">
        <ele>50.4</ele>
        <time>2021-05-16T05:38:00Z</time>
      </trkpt>
      <trkpt lat="41.1650810" lon="-8.6637940">
        <ele>50.5</ele>
        <time>2021-05-16T05:38:01Z</time>
      </trkpt>
      <trkpt lat="41.1651000" lon="-8.6638050">
        <ele>50.6</ele>
        <time>2021-05-16T05:38:02Z</time>
      </trkpt>
      <trkpt lat="41.1651100" lon="-8.6638000">
        <ele>50.6</ele>
        <time>2021-05-16T05:38:03Z</time>
      </trkpt>
      <trkpt lat="41.1651310" lon="-8.6638030">
        <ele>50.8</ele>
        <time>2021-05-16T05:38:04Z</time>
      </trkpt>
      <trkpt lat="41.1651470" lon="-8.6638170">
        <ele>50.9</ele>
        <time>2021-05-16T05:38:05Z</time>
      </trkpt>
      <trkpt lat="41.1651570" lon="-8.6638210">
        <ele>50.9</ele>
        <time>2021-05-16T05:38:06Z</time>
      </trkpt>
      <trkpt lat="41.1651670" lon="-8.6638260">
        <ele>51.0</ele>
        <time>2021-05-16T05:38:07Z</time>
      </trkpt>
      <trkpt lat="41.1651760" lon="-8.6638350">
        <ele>51.0</ele>
        <time>2021-05-16T05:38:08Z</time>
      </trkpt>
      <trkpt lat="41.1651840" lon="-8.6638360">
        <ele>51.1</ele>
        <time>2021-05-16T05:38:09Z</time>
      </trkpt>
      <trkpt lat="41.1651920" lon="-8.6638420">
        <ele>51.1</ele>
        <time>2021-05-16T05:38:10Z</time>
      </trkpt>
      <trkpt lat="41.1652190" lon="-8.6638660">
        <ele>51.3</ele>
        <time>2021-05-16T05:38:11Z</time>
      </trkpt>
      <trkpt lat="41.1652280" lon="-8.6638750">
        <ele>51.4</ele>
        <time>2021-05-16T05:38:12Z</time>
      </trkpt>
      <trkpt lat="41.1652520" lon="-8.6638970">
        <ele>51.6</ele>
        <time>2021-05-16T05:38:13Z</time>
      </trkpt>
      <trkpt lat="41.1652580" lon="-8.6639050">
        <ele>51.6</ele>
        <time>2021-05-16T05:38:14Z</time>
      </trkpt>
      <trkpt lat="41.1652840" lon="-8.6639210">
        <ele>51.8</ele>
        <time>2021-05-16T05:38:15Z</time>
      </trkpt>
      <trkpt lat="41.1652960" lon="-8.6639280">
        <ele>51.9</ele>
        <time>2021-05-16T05:38:16Z</time>
      </trkpt>
      <trkpt lat="41.1653030" lon="-8.6639500">
        <ele>52.0</ele>
        <time>2021-05-16T05:38:17Z</time>
      </trkpt>
      <trkpt lat="41.1653100" lon="-8.6639610">
        <ele>52.1</ele>
        <time>2021-05-16T05:38:18Z</time>
      </trkpt>
      <trkpt lat="41.1653170" lon="-8.6639720">
        <ele>52.1</ele>
        <time>2021-05-16T05:38:19Z</time>
      </trkpt>
      <trkpt lat="41.1653280" lon="-8.6639810">
        <ele>52.2</ele>
        <time>2021-05-16T05:38:20Z</time>
      </trkpt>
      <trkpt lat="41.1653400" lon="-8.6639970">
        <ele>52.3</ele>
        <time>2021-05-16T05:38:21Z</time>
      </trkpt>
      <trkpt lat="41.1653620" lon="-8.6640280">
        <ele>52.5</ele>
        <time>2021-05-16T05:38:22Z</time>
      </trkpt>
      <trkpt lat="41.1653670" lon="-8.6640400">
        <ele>52.6</ele>
        <time>2021-05-16T05:38:23Z</time>
      </trkpt>
      <trkpt lat="41.1653830" lon="-8.6640650">
        <ele>52.8</ele>
        <time>2021-05-16T05:38:24Z</time>
      </trkpt>
      <trkpt lat="41.1653850" lon="-8.6640730">
        <ele>52.8</ele>
        <time>2021-05-16T05:38:25Z</time>
      </trkpt>
      <trkpt lat="41.1654030" lon="-8.6641060">
        <ele>53.0</ele>
        <time>2021-05-16T05:38:26Z</time>
      </trkpt>
      <trkpt lat="41.1654080" lon="-8.6641190">
        <ele>53.1</ele>
        <time>2021-05-16T05:38:27Z</time>
      </trkpt>
      <trkpt lat="41.1654210" lon="-8.6641370">
        <ele>53.2</ele>
        <time>2021-05-16T05:38:28Z</time>
      </trkpt>
      <trkpt lat="41.1654300" lon="-8.6641560">
        <ele>53.3</ele>
        <time>2021-05-16T05:38:29Z</time>
      </trkpt>
      <trkpt lat="41.1654460" lon="-8.6641850">
        <ele>53.5</ele>
        <time>2021-05-16T05:38:30Z</time>
      </trkpt>
      <trkpt lat="41.1654530" lon="-8.6642030">
        <ele>53.6</ele>
        <time>2021-05-16T05:38:31Z</time>
      </trkpt>
      <trkpt lat="41.1654580" lon="-8.6642180">
        <ele>53.6</ele>
        <time>2021-05-16T05:38:32Z</time>
      </trkpt>
      <trkpt lat="41.1654640" lon="-8.6642320">
        <ele>53.7</ele>
        <time>2021-05-16T05:38:33Z</time>
      </trkpt>
      <trkpt lat="41.1654770" lon="-8.6642540">
        <ele>53.8</ele>
        <time>2021-05-16T05:38:34Z</time>
      </trkpt>
      <trkpt lat="41.1654820" lon="-8.6642700">
        <ele>53.9</ele>
        <time>2021-05-16T05:38:35Z</time>
      </trkpt>
      <trkpt lat="41.1654890" lon="-8.6642850">
        <ele>54.0</ele>
        <time>2021-05-16T05:38:36Z</time>
      </trkpt>
      <trkpt lat="41.1654960" lon="-8.6643070">
        <ele>54.1</ele>
        <time>2021-05-16T05:38:37Z</time>
      </trkpt>
      <trkpt lat="41.1655100" lon="-8.6643220">
        <ele>54.2</ele>
        <time>2021-05-16T05:38:38Z</time>
      </trkpt>
      <trkpt lat="41.1655170" lon="-8.6643330">
        <ele>54.2</ele>
        <time>2021-05-16T05:38:39Z</time>
      </trkpt>
      <trkpt lat="41.1655310" lon="-8.6643530">
        <ele>54.4</ele>
        <time>2021-05-16T05:38:40Z</time>
      </trkpt>
      <trkpt lat="41.1655440" lon="-8.6643620">
        <ele>54.4</ele>
        <time>2021-05-16T05:38:41Z</time>
      </trkpt>
      <trkpt lat="41.1655530" lon="-8.6643830">
        <ele>54.5</ele>
        <time>2021-05-16T05:38:42Z</time>
      </trkpt>
      <trkpt lat="41.1655640" lon="-8.6643950">
        <ele>54.6</ele>
        <time>2021-05-16T05:38:43Z</time>
      </trkpt>
      <trkpt lat="41.1655780" lon="-8.6644090">
        <ele>54.7</ele>
        <time>2021-05-16T05:38:44Z</time>
      </trkpt>
      <trkpt lat="41.1655840" lon="-8.6644300">
        <ele>54.8</ele>
        <time>2021-05-16T05:38:45Z</time>
      </trkpt>
      <trkpt lat="41.1656030" lon="-8.6644550">
        <ele>54.9</ele>
        <time>2021-05-16T05:38:46Z</time>
      </trkpt>
      <trkpt lat="41.1656050" lon="-8.6644640">
        <ele>55.0</ele>
        <time>2021-05-16T05:38:47Z</time>
      </trkpt>
      <trkpt lat="41.1656080" lon="-8.6644730">
        <ele>55.0</ele>
        <time>2021-05-16T05:38:48Z</time>
      </trkpt>
      <trkpt lat="41.1656170" lon="-8.6644820">
        <ele>55.1</ele>
        <time>2021-05-16T05:38:49Z</time>
      </trkpt>
      <trkpt lat="41.1656140" lon="-8.6645080">
        <ele>55.2</ele>
        <time>2021-05-16T05:38:50Z</time>
      </trkpt>
      <trkpt lat="41.1656170" lon="-8.6645300">
        <ele>55.3</ele>
        <time>2021-05-16T05:38:51Z</time>
      </trkpt>
      <trkpt lat="41.1656190" lon="-8.6645370">
        <ele>55.3</ele>
        <time>2021-05-16T05:38:52Z</time>
      </trkpt>
      <trkpt lat="41.1656270" lon="-8.6645460">
        <ele>55.3</ele>
        <time>2021-05-16T05:38:53Z</time>
      </trkpt>
      <trkpt lat="41.1656330" lon="-8.6645650">
        <ele>55.4</ele>
        <time>2021-05-16T05:38:54Z</time>
      </trkpt>
      <trkpt lat="41.1656400" lon="-8.6645760">
        <ele>55.5</ele>
        <time>2021-05-16T05:38:55Z</time>
      </trkpt>
      <trkpt lat="41.1656460" lon="-8.6645880">
        <ele>55.5</ele>
        <time>2021-05-16T05:38:56Z</time>
      </trkpt>
      <trkpt lat="41.1656670" lon="-8.6646190">
        <ele>55.7</ele>
        <time>2021-05-16T05:38:57Z</time>
      </trkpt>
      <trkpt lat="41.1656700" lon="-8.6646300">
        <ele>55.7</ele>
        <time>2021-05-16T05:38:58Z</time>
      </trkpt>
      <trkpt lat="41.1656850" lon="-8.6646630">
        <ele>55.8</ele>
        <time>2021-05-16T05:38:59Z</time>
      </trkpt>
      <trkpt lat="41.1656900" lon="-8.6646740">
        <ele>55.9</ele>
        <time>2021-05-16T05:39:00Z</time>
      </trkpt>
      <trkpt lat="41.1657000" lon="-8.6646980">
        <ele>56.0</ele>
        <time>2021-05-16T05:39:01Z</time>
      </trkpt>
      <trkpt lat="41.1657040" lon="-8.6647140">
        <ele>56.0</ele>
        <time>2021-05-16T05:39:02Z</time>
      </trkpt>
      <trkpt lat="41.1657140" lon="-8.6647310">
        <ele>56.1</ele>
        <time>2021-05-16T05:39:03Z</time>
      </trkpt>
      <trkpt lat="41.1657240" lon="-8.6647440">
        <ele>56.2</ele>
        <time>2021-05-16T05:39:04Z</time>
      </trkpt>
      <trkpt lat="41.1657270" lon="-8.6647670">
        <ele>56.2</ele>
        <time>2021-05-16T05:39:05Z</time>
      </trkpt>
      <trkpt lat="41.1657370" lon="-8.6647780">
        <ele>56.3</ele>
        <time>2021-05-16T05:39:06Z</time>
      </trkpt>
      <trkpt lat="41.1657460" lon="-8.6647910">
        <ele>56.4</ele>
        <time>2021-05-16T05:39:07Z</time>
      </trkpt>
      <trkpt lat="41.1657500" lon="-8.6648050">
        <ele>56.4</ele>
        <time>2021-05-16T05:39:08Z</time>
      </trkpt>
      <trkpt lat="41.1657540" lon="-8.6648260">
        <ele>56.5</ele>
        <time>2021-05-16T05:39:10Z</time>
      </trkpt>
      <trkpt lat="41.1657750" lon="-8.6648540">
        <ele>56.6</ele>
        <time>2021-05-16T05:39:11Z</time>
      </trkpt>
      <trkpt lat="41.1657850" lon="-8.6648670">
        <ele>56.7</ele>
        <time>2021-05-16T05:39:12Z</time>
      </trkpt>
      <trkpt lat="41.1657920" lon="-8.6648820">
        <ele>56.7</ele>
        <time>2021-05-16T05:39:13Z</time>
      </trkpt>
      <trkpt lat="41.1658040" lon="-8.6648940">
        <ele>56.8</ele>
        <time>2021-05-16T05:39:14Z</time>
      </trkpt>
      <trkpt lat="41.1658080" lon="-8.6649190">
        <ele>56.9</ele>
        <time>2021-05-16T05:39:15Z</time>
      </trkpt>
      <trkpt lat="41.1658090" lon="-8.6649310">
        <ele>56.9</ele>
        <time>2021-05-16T05:39:16Z</time>
      </trkpt>
      <trkpt lat="41.1658100" lon="-8.6649440">
        <ele>57.0</ele>
        <time>2021-05-16T05:39:17Z</time>
      </trkpt>
      <trkpt lat="41.1658150" lon="-8.6649570">
        <ele>57.0</ele>
        <time>2021-05-16T05:39:18Z</time>
      </trkpt>
      <trkpt lat="41.1658230" lon="-8.6649670">
        <ele>57.1</ele>
        <time>2021-05-16T05:39:19Z</time>
      </trkpt>
      <trkpt lat="41.1658320" lon="-8.6649750">
        <ele>57.1</ele>
        <time>2021-05-16T05:39:20Z</time>
      </trkpt>
      <trkpt lat="41.1658370" lon="-8.6649820">
        <ele>57.1</ele>
        <time>2021-05-16T05:39:21Z</time>
      </trkpt>
      <trkpt lat="41.1658450" lon="-8.6649920">
        <ele>57.2</ele>
        <time>2021-05-16T05:39:22Z</time>
      </trkpt>
      <trkpt lat="41.1658490" lon="-8.6650090">
        <ele>57.2</ele>
        <time>2021-05-16T05:39:23Z</time>
      </trkpt>
      <trkpt lat="41.1658670" lon="-8.6650290">
        <ele>57.3</ele>
        <time>2021-05-16T05:39:24Z</time>
      </trkpt>
      <trkpt lat="41.1658650" lon="-8.6650400">
        <ele>57.4</ele>
        <time>2021-05-16T05:39:25Z</time>
      </trkpt>
      <trkpt lat="41.1658770" lon="-8.6650580">
        <ele>57.4</ele>
        <time>2021-05-16T05:39:26Z</time>
      </trkpt>
      <trkpt lat="41.1658840" lon="-8.6650740">
        <ele>57.5</ele>
        <time>2021-05-16T05:39:27Z</time>
      </trkpt>
      <trkpt lat="41.1658980" lon="-8.6650950">
        <ele>57.6</ele>
        <time>2021-05-16T05:39:28Z</time>
      </trkpt>
      <trkpt lat="41.1659030" lon="-8.6651030">
        <ele>57.6</ele>
        <time>2021-05-16T05:39:29Z</time>
      </trkpt>
      <trkpt lat="41.1659080" lon="-8.6651120">
        <ele>57.7</ele>
        <time>2021-05-16T05:39:30Z</time>
      </trkpt>
      <trkpt lat="41.1659130" lon="-8.6651200">
        <ele>57.7</ele>
        <time>2021-05-16T05:39:31Z</time>
      </trkpt>
      <trkpt lat="41.1659310" lon="-8.6651360">
        <ele>57.8</ele>
        <time>2021-05-16T05:39:32Z</time>
      </trkpt>
      <trkpt lat="41.1659400" lon="-8.6651420">
        <ele>57.8</ele>
        <time>2021-05-16T05:39:33Z</time>
      </trkpt>
      <trkpt lat="41.1659500" lon="-8.6651480">
        <ele>57.9</ele>
        <time>2021-05-16T05:39:34Z</time>
      </trkpt>
      <trkpt lat="41.1659580" lon="-8.6651650">
        <ele>57.9</ele>
        <time>2021-05-16T05:39:35Z</time>
      </trkpt>
      <trkpt lat="41.1659570" lon="-8.6651750">
        <ele>57.9</ele>
        <time>2021-05-16T05:39:36Z</time>
      </trkpt>
      <trkpt lat="41.1659590" lon="-8.6651830">
        <ele>58.0</ele>
        <time>2021-05-16T05:39:37Z</time>
      </trkpt>
      <trkpt lat="41.1659650" lon="-8.6651990">
        <ele>58.0</ele>
        <time>2021-05-16T05:39:38Z</time>
      </trkpt>
      <trkpt lat="41.1659730" lon="-8.6652150">
        <ele>58.1</ele>
        <time>2021-05-16T05:39:39Z</time>
      </trkpt>
      <trkpt lat="41.1659980" lon="-8.6652450">
        <ele>58.2</ele>
        <time>2021-05-16T05:39:40Z</time>
      </trkpt>
      <trkpt lat="41.1660080" lon="-8.6652570">
        <ele>58.2</ele>
        <time>2021-05-16T05:39:41Z</time>
      </trkpt>
      <trkpt lat="41.1660150" lon="-8.6652660">
        <ele>58.2</ele>
        <time>2021-05-16T05:39:42Z</time>
      </trkpt>
      <trkpt lat="41.1660230" lon="-8.6652810">
        <ele>58.2</ele>
        <time>2021-05-16T05:39:43Z</time>
      </trkpt>
      <trkpt lat="41.1660280" lon="-8.6652930">
        <ele>58.2</ele>
        <time>2021-05-16T05:39:44Z</time>
      </trkpt>
      <trkpt lat="41.1660510" lon="-8.6653140">
        <ele>58.2</ele>
        <time>2021-05-16T05:39:45Z</time>
      </trkpt>
      <trkpt lat="41.1660610" lon="-8.6653200">
        <ele>58.2</ele>
        <time>2021-05-16T05:39:46Z</time>
      </trkpt>
      <trkpt lat="41.1660840" lon="-8.6653380">
        <ele>58.2</ele>
        <time>2021-05-16T05:39:47Z</time>
      </trkpt>
      <trkpt lat="41.1660890" lon="-8.6653480">
        <ele>58.2</ele>
        <time>2021-05-16T05:39:48Z</time>
      </trkpt>
      <trkpt lat="41.1660950" lon="-8.6653570">
        <ele>58.3</ele>
        <time>2021-05-16T05:39:49Z</time>
      </trkpt>
      <trkpt lat="41.1661070" lon="-8.6653740">
        <ele>58.3</ele>
        <time>2021-05-16T05:39:50Z</time>
      </trkpt>
      <trkpt lat="41.1661170" lon="-8.6653820">
        <ele>58.3</ele>
        <time>2021-05-16T05:39:51Z</time>
      </trkpt>
      <trkpt lat="41.1661310" lon="-8.6653990">
        <ele>58.3</ele>
        <time>2021-05-16T05:39:52Z</time>
      </trkpt>
      <trkpt lat="41.1661370" lon="-8.6654130">
        <ele>58.3</ele>
        <time>2021-05-16T05:39:53Z</time>
      </trkpt>
      <trkpt lat="41.1661520" lon="-8.6654360">
        <ele>58.3</ele>
        <time>2021-05-16T05:39:54Z</time>
      </trkpt>
      <trkpt lat="41.1661570" lon="-8.6654440">
        <ele>58.3</ele>
        <time>2021-05-16T05:39:55Z</time>
      </trkpt>
      <trkpt lat="41.1661630" lon="-8.6654510">
        <ele>58.3</ele>
        <time>2021-05-16T05:39:56Z</time>
      </trkpt>
      <trkpt lat="41.1661720" lon="-8.6654680">
        <ele>58.3</ele>
        <time>2021-05-16T05:39:57Z</time>
      </trkpt>
      <trkpt lat="41.1662010" lon="-8.6655080">
        <ele>58.3</ele>
        <time>2021-05-16T05:39:58Z</time>
      </trkpt>
      <trkpt lat="41.1662080" lon="-8.6655250">
        <ele>58.3</ele>
        <time>2021-05-16T05:39:59Z</time>
      </trkpt>
      <trkpt lat="41.1662150" lon="-8.6655380">
        <ele>58.3</ele>
        <time>2021-05-16T05:40:00Z</time>
      </trkpt>
      <trkpt lat="41.1662270" lon="-8.6655540">
        <ele>58.3</ele>
        <time>2021-05-16T05:40:01Z</time>
      </trkpt>
      <trkpt lat="41.1662510" lon="-8.6655760">
        <ele>58.4</ele>
        <time>2021-05-16T05:40:02Z</time>
      </trkpt>
      <trkpt lat="41.1662580" lon="-8.6655800">
        <ele>58.4</ele>
        <time>2021-05-16T05:40:03Z</time>
      </trkpt>
      <trkpt lat="41.1662630" lon="-8.6655950">
        <ele>58.4</ele>
        <time>2021-05-16T05:40:04Z</time>
      </trkpt>
      <trkpt lat="41.1662730" lon="-8.6656070">
        <ele>58.4</ele>
        <time>2021-05-16T05:40:05Z</time>
      </trkpt>
      <trkpt lat="41.1662780" lon="-8.6656100">
        <ele>58.4</ele>
        <time>2021-05-16T05:40:06Z</time>
      </trkpt>
      <trkpt lat="41.1662970" lon="-8.6656330">
        <ele>58.4</ele>
        <time>2021-05-16T05:40:07Z</time>
      </trkpt>
      <trkpt lat="41.1663030" lon="-8.6656380">
        <ele>58.4</ele>
        <time>2021-05-16T05:40:08Z</time>
      </trkpt>
      <trkpt lat="41.1663090" lon="-8.6656440">
        <ele>58.4</ele>
        <time>2021-05-16T05:40:09Z</time>
      </trkpt>
      <trkpt lat="41.1663340" lon="-8.6656620">
        <ele>58.5</ele>
        <time>2021-05-16T05:40:10Z</time>
      </trkpt>
      <trkpt lat="41.1663440" lon="-8.6656730">
        <ele>58.5</ele>
        <time>2021-05-16T05:40:11Z</time>
      </trkpt>
      <trkpt lat="41.1663630" lon="-8.6656860">
        <ele>58.5</ele>
        <time>2021-05-16T05:40:12Z</time>
      </trkpt>
      <trkpt lat="41.1663700" lon="-8.6656940">
        <ele>58.5</ele>
        <time>2021-05-16T05:40:13Z</time>
      </trkpt>
      <trkpt lat="41.1663760" lon="-8.6657010">
        <ele>58.5</ele>
        <time>2021-05-16T05:40:14Z</time>
      </trkpt>
      <trkpt lat="41.1663890" lon="-8.6657270">
        <ele>58.5</ele>
        <time>2021-05-16T05:40:15Z</time>
      </trkpt>
      <trkpt lat="41.1663950" lon="-8.6657340">
        <ele>58.5</ele>
        <time>2021-05-16T05:40:16Z</time>
      </trkpt>
      <trkpt lat="41.1664000" lon="-8.6657410">
        <ele>58.6</ele>
        <time>2021-05-16T05:40:17Z</time>
      </trkpt>
      <trkpt lat="41.1664050" lon="-8.6657480">
        <ele>58.6</ele>
        <time>2021-05-16T05:40:18Z</time>
      </trkpt>
      <trkpt lat="41.1664110" lon="-8.6657640">
        <ele>58.6</ele>
        <time>2021-05-16T05:40:19Z</time>
      </trkpt>
      <trkpt lat="41.1664200" lon="-8.6657780">
        <ele>58.6</ele>
        <time>2021-05-16T05:40:20Z</time>
      </trkpt>
      <trkpt lat="41.1664310" lon="-8.6657950">
        <ele>58.6</ele>
        <time>2021-05-16T05:40:21Z</time>
      </trkpt>
      <trkpt lat="41.1664330" lon="-8.6658020">
        <ele>58.6</ele>
        <time>2021-05-16T05:40:22Z</time>
      </trkpt>
      <trkpt lat="41.1664390" lon="-8.6658180">
        <ele>58.6</ele>
        <time>2021-05-16T05:40:23Z</time>
      </trkpt>
      <trkpt lat="41.1664470" lon="-8.6658390">
        <ele>58.6</ele>
        <time>2021-05-16T05:40:24Z</time>
      </trkpt>
      <trkpt lat="41.1664520" lon="-8.6658460">
        <ele>58.7</ele>
        <time>2021-05-16T05:40:25Z</time>
      </trkpt>
      <trkpt lat="41.1664600" lon="-8.6658540">
        <ele>58.7</ele>
        <time>2021-05-16T05:40:26Z</time>
      </trkpt>
      <trkpt lat="41.1664740" lon="-8.6658700">
        <ele>58.7</ele>
        <time>2021-05-16T05:40:27Z</time>
      </trkpt>
      <trkpt lat="41.1664820" lon="-8.6658860">
        <ele>58.7</ele>
        <time>2021-05-16T05:40:28Z</time>
      </trkpt>
      <trkpt lat="41.1665020" lon="-8.6659040">
        <ele>58.7</ele>
        <time>2021-05-16T05:40:29Z</time>
      </trkpt>
      <trkpt lat="41.1665060" lon="-8.6659110">
        <ele>58.7</ele>
        <time>2021-05-16T05:40:30Z</time>
      </trkpt>
      <trkpt lat="41.1665110" lon="-8.6659170">
        <ele>58.7</ele>
        <time>2021-05-16T05:40:31Z</time>
      </trkpt>
      <trkpt lat="41.1665270" lon="-8.6659350">
        <ele>58.7</ele>
        <time>2021-05-16T05:40:32Z</time>
      </trkpt>
      <trkpt lat="41.1665350" lon="-8.6659420">
        <ele>58.8</ele>
        <time>2021-05-16T05:40:33Z</time>
      </trkpt>
      <trkpt lat="41.1665430" lon="-8.6659490">
        <ele>58.8</ele>
        <time>2021-05-16T05:40:34Z</time>
      </trkpt>
      <trkpt lat="41.1665690" lon="-8.6659710">
        <ele>58.8</ele>
        <time>2021-05-16T05:40:35Z</time>
      </trkpt>
      <trkpt lat="41.1665920" lon="-8.6659960">
        <ele>58.8</ele>
        <time>2021-05-16T05:40:36Z</time>
      </trkpt>
      <trkpt lat="41.1665980" lon="-8.6660040">
        <ele>58.8</ele>
        <time>2021-05-16T05:40:37Z</time>
      </trkpt>
      <trkpt lat="41.1666050" lon="-8.6660270">
        <ele>58.8</ele>
        <time>2021-05-16T05:40:38Z</time>
      </trkpt>
      <trkpt lat="41.1666110" lon="-8.6660390">
        <ele>58.8</ele>
        <time>2021-05-16T05:40:39Z</time>
      </trkpt>
      <trkpt lat="41.1666180" lon="-8.6660520">
        <ele>58.8</ele>
        <time>2021-05-16T05:40:40Z</time>
      </trkpt>
      <trkpt lat="41.1666300" lon="-8.6660580">
        <ele>58.8</ele>
        <time>2021-05-16T05:40:41Z</time>
      </trkpt>
      <trkpt lat="41.1666250" lon="-8.6660750">
        <ele>58.8</ele>
        <time>2021-05-16T05:40:42Z</time>
      </trkpt>
      <trkpt lat="41.1666300" lon="-8.6660850">
        <ele>58.8</ele>
        <time>2021-05-16T05:40:43Z</time>
      </trkpt>
      <trkpt lat="41.1666260" lon="-8.6660840">
        <ele>58.8</ele>
        <time>2021-05-16T05:40:44Z</time>
      </trkpt>
      <trkpt lat="41.1666210" lon="-8.6660880">
        <ele>58.8</ele>
        <time>2021-05-16T05:40:45Z</time>
      </trkpt>
      <trkpt lat="41.1666320" lon="-8.6660900">
        <ele>58.8</ele>
        <time>2021-05-16T05:40:46Z</time>
      </trkpt>
      <trkpt lat="41.1666380" lon="-8.6660930">
        <ele>58.8</ele>
        <time>2021-05-16T05:40:47Z</time>
      </trkpt>
      <trkpt lat="41.1666570" lon="-8.6661040">
        <ele>58.8</ele>
        <time>2021-05-16T05:40:48Z</time>
      </trkpt>
      <trkpt lat="41.1666520" lon="-8.6661120">
        <ele>58.8</ele>
        <time>2021-05-16T05:40:49Z</time>
      </trkpt>
      <trkpt lat="41.1666590" lon="-8.6661090">
        <ele>58.8</ele>
        <time>2021-05-16T05:40:50Z</time>
      </trkpt>
      <trkpt lat="41.1666710" lon="-8.6661160">
        <ele>58.8</ele>
        <time>2021-05-16T05:40:51Z</time>
      </trkpt>
      <trkpt lat="41.1666870" lon="-8.6661300">
        <ele>58.8</ele>
        <time>2021-05-16T05:40:52Z</time>
      </trkpt>
      <trkpt lat="41.1666890" lon="-8.6661380">
        <ele>58.8</ele>
        <time>2021-05-16T05:40:53Z</time>
      </trkpt>
      <trkpt lat="41.1666940" lon="-8.6661450">
        <ele>58.8</ele>
        <time>2021-05-16T05:40:54Z</time>
      </trkpt>
      <trkpt lat="41.1667020" lon="-8.6661550">
        <ele>58.8</ele>
        <time>2021-05-16T05:40:55Z</time>
      </trkpt>
      <trkpt lat="41.1667030" lon="-8.6661600">
        <ele>58.8</ele>
        <time>2021-05-16T05:40:56Z</time>
      </trkpt>
      <trkpt lat="41.1667220" lon="-8.6661890">
        <ele>58.8</ele>
        <time>2021-05-16T05:40:57Z</time>
      </trkpt>
      <trkpt lat="41.1667280" lon="-8.6661990">
        <ele>58.8</ele>
        <time>2021-05-16T05:40:58Z</time>
      </trkpt>
      <trkpt lat="41.1667340" lon="-8.6662100">
        <ele>58.8</ele>
        <time>2021-05-16T05:40:59Z</time>
      </trkpt>
      <trkpt lat="41.1667460" lon="-8.6662220">
        <ele>58.8</ele>
        <time>2021-05-16T05:41:00Z</time>
      </trkpt>
      <trkpt lat="41.1667580" lon="-8.6662370">
        <ele>58.8</ele>
        <time>2021-05-16T05:41:01Z</time>
      </trkpt>
      <trkpt lat="41.1667600" lon="-8.6662390">
        <ele>58.8</ele>
        <time>2021-05-16T05:41:02Z</time>
      </trkpt>
      <trkpt lat="41.1667710" lon="-8.6662500">
        <ele>58.8</ele>
        <time>2021-05-16T05:41:03Z</time>
      </trkpt>
      <trkpt lat="41.1667820" lon="-8.6662650">
        <ele>58.7</ele>
        <time>2021-05-16T05:41:04Z</time>
      </trkpt>
      <trkpt lat="41.1667980" lon="-8.6662780">
        <ele>58.7</ele>
        <time>2021-05-16T05:41:05Z</time>
      </trkpt>
      <trkpt lat="41.1667970" lon="-8.6662890">
        <ele>58.7</ele>
        <time>2021-05-16T05:41:06Z</time>
      </trkpt>
      <trkpt lat="41.1667990" lon="-8.6662950">
        <ele>58.7</ele>
        <time>2021-05-16T05:41:07Z</time>
      </trkpt>
      <trkpt lat="41.1668190" lon="-8.6663170">
        <ele>58.7</ele>
        <time>2021-05-16T05:41:08Z</time>
      </trkpt>
      <trkpt lat="41.1668310" lon="-8.6663180">
        <ele>58.7</ele>
        <time>2021-05-16T05:41:09Z</time>
      </trkpt>
      <trkpt lat="41.1668460" lon="-8.6663330">
        <ele>58.7</ele>
        <time>2021-05-16T05:41:10Z</time>
      </trkpt>
      <trkpt lat="41.1668590" lon="-8.6663410">
        <ele>58.7</ele>
        <time>2021-05-16T05:41:11Z</time>
      </trkpt>
      <trkpt lat="41.1668610" lon="-8.6663460">
        <ele>58.7</ele>
        <time>2021-05-16T05:41:12Z</time>
      </trkpt>
      <trkpt lat="41.1668770" lon="-8.6663610">
        <ele>58.6</ele>
        <time>2021-05-16T05:41:13Z</time>
      </trkpt>
      <trkpt lat="41.1668820" lon="-8.6663690">
        <ele>58.6</ele>
        <time>2021-05-16T05:41:14Z</time>
      </trkpt>
      <trkpt lat="41.1668810" lon="-8.6663860">
        <ele>58.6</ele>
        <time>2021-05-16T05:41:16Z</time>
      </trkpt>
      <trkpt lat="41.1668900" lon="-8.6663970">
        <ele>58.6</ele>
        <time>2021-05-16T05:41:17Z</time>
      </trkpt>
      <trkpt lat="41.1668960" lon="-8.6664100">
        <ele>58.6</ele>
        <time>2021-05-16T05:41:18Z</time>
      </trkpt>
      <trkpt lat="41.1669080" lon="-8.6664210">
        <ele>58.6</ele>
        <time>2021-05-16T05:41:19Z</time>
      </trkpt>
      <trkpt lat="41.1669160" lon="-8.6664290">
        <ele>58.5</ele>
        <time>2021-05-16T05:41:20Z</time>
      </trkpt>
      <trkpt lat="41.1669220" lon="-8.6664440">
        <ele>58.5</ele>
        <time>2021-05-16T05:41:21Z</time>
      </trkpt>
      <trkpt lat="41.1669340" lon="-8.6664530">
        <ele>58.5</ele>
        <time>2021-05-16T05:41:22Z</time>
      </trkpt>
      <trkpt lat="41.1669470" lon="-8.6664590">
        <ele>58.5</ele>
        <time>2021-05-16T05:41:23Z</time>
      </trkpt>
      <trkpt lat="41.1669590" lon="-8.6664800">
        <ele>58.5</ele>
        <time>2021-05-16T05:41:24Z</time>
      </trkpt>
      <trkpt lat="41.1669640" lon="-8.6665010">
        <ele>58.4</ele>
        <time>2021-05-16T05:41:25Z</time>
      </trkpt>
      <trkpt lat="41.1669740" lon="-8.6665250">
        <ele>58.4</ele>
        <time>2021-05-16T05:41:26Z</time>
      </trkpt>
      <trkpt lat="41.1669840" lon="-8.6665350">
        <ele>58.4</ele>
        <time>2021-05-16T05:41:27Z</time>
      </trkpt>
      <trkpt lat="41.1669940" lon="-8.6665470">
        <ele>58.4</ele>
        <time>2021-05-16T05:41:28Z</time>
      </trkpt>
      <trkpt lat="41.1670040" lon="-8.6665670">
        <ele>58.3</ele>
        <time>2021-05-16T05:41:29Z</time>
      </trkpt>
      <trkpt lat="41.1670110" lon="-8.6665770">
        <ele>58.3</ele>
        <time>2021-05-16T05:41:30Z</time>
      </trkpt>
      <trkpt lat="41.1670160" lon="-8.6665850">
        <ele>58.3</ele>
        <time>2021-05-16T05:41:31Z</time>
      </trkpt>
      <trkpt lat="41.1670280" lon="-8.6665960">
        <ele>58.3</ele>
        <time>2021-05-16T05:41:32Z</time>
      </trkpt>
      <trkpt lat="41.1670410" lon="-8.6666210">
        <ele>58.3</ele>
        <time>2021-05-16T05:41:33Z</time>
      </trkpt>
      <trkpt lat="41.1670480" lon="-8.6666320">
        <ele>58.2</ele>
        <time>2021-05-16T05:41:34Z</time>
      </trkpt>
      <trkpt lat="41.1670550" lon="-8.6666440">
        <ele>58.2</ele>
        <time>2021-05-16T05:41:35Z</time>
      </trkpt>
      <trkpt lat="41.1670810" lon="-8.6666710">
        <ele>58.1</ele>
        <time>2021-05-16T05:41:36Z</time>
      </trkpt>
      <trkpt lat="41.1670870" lon="-8.6666770">
        <ele>58.1</ele>
        <time>2021-05-16T05:41:37Z</time>
      </trkpt>
      <trkpt lat="41.1670990" lon="-8.6666780">
        <ele>58.1</ele>
        <time>2021-05-16T05:41:38Z</time>
      </trkpt>
      <trkpt lat="41.1671140" lon="-8.6666960">
        <ele>58.1</ele>
        <time>2021-05-16T05:41:39Z</time>
      </trkpt>
      <trkpt lat="41.1671400" lon="-8.6667110">
        <ele>58.0</ele>
        <time>2021-05-16T05:41:40Z</time>
      </trkpt>
      <trkpt lat="41.1671530" lon="-8.6667190">
        <ele>58.0</ele>
        <time>2021-05-16T05:41:41Z</time>
      </trkpt>
      <trkpt lat="41.1671640" lon="-8.6667310">
        <ele>57.9</ele>
        <time>2021-05-16T05:41:42Z</time>
      </trkpt>
      <trkpt lat="41.1671840" lon="-8.6667330">
        <ele>57.9</ele>
        <time>2021-05-16T05:41:43Z</time>
      </trkpt>
      <trkpt lat="41.1671910" lon="-8.6667450">
        <ele>57.9</ele>
        <time>2021-05-16T05:41:44Z</time>
      </trkpt>
      <trkpt lat="41.1672060" lon="-8.6667600">
        <ele>57.8</ele>
        <time>2021-05-16T05:41:45Z</time>
      </trkpt>
      <trkpt lat="41.1672250" lon="-8.6667870">
        <ele>57.8</ele>
        <time>2021-05-16T05:41:46Z</time>
      </trkpt>
      <trkpt lat="41.1672360" lon="-8.6667980">
        <ele>57.7</ele>
        <time>2021-05-16T05:41:47Z</time>
      </trkpt>
      <trkpt lat="41.1672400" lon="-8.6668160">
        <ele>57.7</ele>
        <time>2021-05-16T05:41:48Z</time>
      </trkpt>
      <trkpt lat="41.1672520" lon="-8.6668270">
        <ele>57.7</ele>
        <time>2021-05-16T05:41:49Z</time>
      </trkpt>
      <trkpt lat="41.1672660" lon="-8.6668420">
        <ele>57.6</ele>
        <time>2021-05-16T05:41:50Z</time>
      </trkpt>
      <trkpt lat="41.1672760" lon="-8.6668490">
        <ele>57.6</ele>
        <time>2021-05-16T05:41:51Z</time>
      </trkpt>
      <trkpt lat="41.1672850" lon="-8.6668560">
        <ele>57.6</ele>
        <time>2021-05-16T05:41:52Z</time>
      </trkpt>
      <trkpt lat="41.1673020" lon="-8.6668790">
        <ele>57.5</ele>
        <time>2021-05-16T05:41:53Z</time>
      </trkpt>
      <trkpt lat="41.1673120" lon="-8.6668870">
        <ele>57.5</ele>
        <time>2021-05-16T05:41:54Z</time>
      </trkpt>
      <trkpt lat="41.1673350" lon="-8.6669070">
        <ele>57.4</ele>
        <time>2021-05-16T05:41:55Z</time>
      </trkpt>
      <trkpt lat="41.1673600" lon="-8.6669260">
        <ele>57.3</ele>
        <time>2021-05-16T05:41:56Z</time>
      </trkpt>
      <trkpt lat="41.1673680" lon="-8.6669320">
        <ele>57.3</ele>
        <time>2021-05-16T05:41:57Z</time>
      </trkpt>
      <trkpt lat="41.1673780" lon="-8.6669390">
        <ele>57.3</ele>
        <time>2021-05-16T05:41:58Z</time>
      </trkpt>
      <trkpt lat="41.1673960" lon="-8.6669470">
        <ele>57.2</ele>
        <time>2021-05-16T05:41:59Z</time>
      </trkpt>
      <trkpt lat="41.1674010" lon="-8.6669530">
        <ele>57.2</ele>
        <time>2021-05-16T05:42:00Z</time>
      </trkpt>
      <trkpt lat="41.1674100" lon="-8.6669660">
        <ele>57.2</ele>
        <time>2021-05-16T05:42:01Z</time>
      </trkpt>
      <trkpt lat="41.1674290" lon="-8.6669620">
        <ele>57.1</ele>
        <time>2021-05-16T05:42:02Z</time>
      </trkpt>
      <trkpt lat="41.1674400" lon="-8.6669760">
        <ele>57.1</ele>
        <time>2021-05-16T05:42:03Z</time>
      </trkpt>
      <trkpt lat="41.1674600" lon="-8.6670010">
        <ele>57.0</ele>
        <time>2021-05-16T05:42:04Z</time>
      </trkpt>
      <trkpt lat="41.1674780" lon="-8.6670230">
        <ele>56.9</ele>
        <time>2021-05-16T05:42:05Z</time>
      </trkpt>
      <trkpt lat="41.1674820" lon="-8.6670290">
        <ele>56.9</ele>
        <time>2021-05-16T05:42:06Z</time>
      </trkpt>
      <trkpt lat="41.1674940" lon="-8.6670490">
        <ele>56.8</ele>
        <time>2021-05-16T05:42:07Z</time>
      </trkpt>
      <trkpt lat="41.1675050" lon="-8.6670600">
        <ele>56.8</ele>
        <time>2021-05-16T05:42:08Z</time>
      </trkpt>
      <trkpt lat="41.1675150" lon="-8.6670660">
        <ele>56.8</ele>
        <time>2021-05-16T05:42:09Z</time>
      </trkpt>
      <trkpt lat="41.1675260" lon="-8.6670820">
        <ele>56.7</ele>
        <time>2021-05-16T05:42:10Z</time>
      </trkpt>
      <trkpt lat="41.1675310" lon="-8.6670930">
        <ele>56.7</ele>
        <time>2021-05-16T05:42:11Z</time>
      </trkpt>
      <trkpt lat="41.1675440" lon="-8.6671250">
        <ele>56.6</ele>
        <time>2021-05-16T05:42:12Z</time>
      </trkpt>
      <trkpt lat="41.1675490" lon="-8.6671360">
        <ele>56.6</ele>
        <time>2021-05-16T05:42:13Z</time>
      </trkpt>
      <trkpt lat="41.1675510" lon="-8.6671610">
        <ele>56.5</ele>
        <time>2021-05-16T05:42:14Z</time>
      </trkpt>
      <trkpt lat="41.1675560" lon="-8.6671740">
        <ele>56.5</ele>
        <time>2021-05-16T05:42:15Z</time>
      </trkpt>
      <trkpt lat="41.1675640" lon="-8.6671840">
        <ele>56.5</ele>
        <time>2021-05-16T05:42:16Z</time>
      </trkpt>
      <trkpt lat="41.1675740" lon="-8.6672000">
        <ele>56.4</ele>
        <time>2021-05-16T05:42:17Z</time>
      </trkpt>
      <trkpt lat="41.1675750" lon="-8.6672100">
        <ele>56.4</ele>
        <time>2021-05-16T05:42:18Z</time>
      </trkpt>
      <trkpt lat="41.1675910" lon="-8.6672220">
        <ele>56.4</ele>
        <time>2021-05-16T05:42:19Z</time>
      </trkpt>
      <trkpt lat="41.1675980" lon="-8.6672310">
        <ele>56.3</ele>
        <time>2021-05-16T05:42:20Z</time>
      </trkpt>
      <trkpt lat="41.1675990" lon="-8.6672440">
        <ele>56.3</ele>
        <time>2021-05-16T05:42:21Z</time>
      </trkpt>
      <trkpt lat="41.1676200" lon="-8.6672550">
        <ele>56.3</ele>
        <time>2021-05-16T05:42:22Z</time>
      </trkpt>
      <trkpt lat="41.1676330" lon="-8.6672730">
        <ele>56.2</ele>
        <time>2021-05-16T05:42:23Z</time>
      </trkpt>
      <trkpt lat="41.1676380" lon="-8.6672850">
        <ele>56.2</ele>
        <time>2021-05-16T05:42:24Z</time>
      </trkpt>
      <trkpt lat="41.1676440" lon="-8.6672960">
        <ele>56.2</ele>
        <time>2021-05-16T05:42:25Z</time>
      </trkpt>
      <trkpt lat="41.1676620" lon="-8.6673210">
        <ele>56.1</ele>
        <time>2021-05-16T05:42:26Z</time>
      </trkpt>
      <trkpt lat="41.1676660" lon="-8.6673270">
        <ele>56.1</ele>
        <time>2021-05-16T05:42:27Z</time>
      </trkpt>
      <trkpt lat="41.1676710" lon="-8.6673330">
        <ele>56.1</ele>
        <time>2021-05-16T05:42:28Z</time>
      </trkpt>
      <trkpt lat="41.1676930" lon="-8.6673470">
        <ele>56.0</ele>
        <time>2021-05-16T05:42:29Z</time>
      </trkpt>
      <trkpt lat="41.1677020" lon="-8.6673550">
        <ele>56.0</ele>
        <time>2021-05-16T05:42:30Z</time>
      </trkpt>
      <trkpt lat="41.1677110" lon="-8.6673620">
        <ele>56.0</ele>
        <time>2021-05-16T05:42:31Z</time>
      </trkpt>
      <trkpt lat="41.1677140" lon="-8.6673780">
        <ele>56.0</ele>
        <time>2021-05-16T05:42:32Z</time>
      </trkpt>
      <trkpt lat="41.1677280" lon="-8.6673970">
        <ele>55.9</ele>
        <time>2021-05-16T05:42:33Z</time>
      </trkpt>
      <trkpt lat="41.1677370" lon="-8.6674090">
        <ele>55.9</ele>
        <time>2021-05-16T05:42:34Z</time>
      </trkpt>
      <trkpt lat="41.1677540" lon="-8.6674170">
        <ele>55.8</ele>
        <time>2021-05-16T05:42:35Z</time>
      </trkpt>
      <trkpt lat="41.1677680" lon="-8.6674300">
        <ele>55.8</ele>
        <time>2021-05-16T05:42:36Z</time>
      </trkpt>
      <trkpt lat="41.1677800" lon="-8.6674450">
        <ele>55.8</ele>
        <time>2021-05-16T05:42:37Z</time>
      </trkpt>
      <trkpt lat="41.1677950" lon="-8.6674510">
        <ele>55.7</ele>
        <time>2021-05-16T05:42:38Z</time>
      </trkpt>
      <trkpt lat="41.1678060" lon="-8.6674610">
        <ele>55.7</ele>
        <time>2021-05-16T05:42:39Z</time>
      </trkpt>
      <trkpt lat="41.1678350" lon="-8.6674800">
        <ele>55.5</ele>
        <time>2021-05-16T05:42:40Z</time>
      </trkpt>
      <trkpt lat="41.1678430" lon="-8.6674850">
        <ele>55.5</ele>
        <time>2021-05-16T05:42:41Z</time>
      </trkpt>
      <trkpt lat="41.1678570" lon="-8.6675010">
        <ele>55.4</ele>
        <time>2021-05-16T05:42:42Z</time>
      </trkpt>
      <trkpt lat="41.1678680" lon="-8.6675130">
        <ele>55.4</ele>
        <time>2021-05-16T05:42:43Z</time>
      </trkpt>
      <trkpt lat="41.1678820" lon="-8.6675350">
        <ele>55.3</ele>
        <time>2021-05-16T05:42:44Z</time>
      </trkpt>
      <trkpt lat="41.1678890" lon="-8.6675430">
        <ele>55.3</ele>
        <time>2021-05-16T05:42:45Z</time>
      </trkpt>
      <trkpt lat="41.1678950" lon="-8.6675520">
        <ele>55.2</ele>
        <time>2021-05-16T05:42:46Z</time>
      </trkpt>
      <trkpt lat="41.1678990" lon="-8.6675560">
        <ele>55.2</ele>
        <time>2021-05-16T05:42:47Z</time>
      </trkpt>
      <trkpt lat="41.1679150" lon="-8.6675650">
        <ele>55.1</ele>
        <time>2021-05-16T05:42:48Z</time>
      </trkpt>
      <trkpt lat="41.1679210" lon="-8.6675800">
        <ele>55.1</ele>
        <time>2021-05-16T05:42:49Z</time>
      </trkpt>
      <trkpt lat="41.1679280" lon="-8.6675990">
        <ele>55.0</ele>
        <time>2021-05-16T05:42:50Z</time>
      </trkpt>
      <trkpt lat="41.1679390" lon="-8.6676140">
        <ele>55.0</ele>
        <time>2021-05-16T05:42:51Z</time>
      </trkpt>
      <trkpt lat="41.1679450" lon="-8.6676160">
        <ele>54.9</ele>
        <time>2021-05-16T05:42:52Z</time>
      </trkpt>
      <trkpt lat="41.1679580" lon="-8.6676290">
        <ele>54.9</ele>
        <time>2021-05-16T05:42:53Z</time>
      </trkpt>
      <trkpt lat="41.1679610" lon="-8.6676400">
        <ele>54.9</ele>
        <time>2021-05-16T05:42:54Z</time>
      </trkpt>
      <trkpt lat="41.1679700" lon="-8.6676520">
        <ele>54.8</ele>
        <time>2021-05-16T05:42:55Z</time>
      </trkpt>
      <trkpt lat="41.1679790" lon="-8.6676690">
        <ele>54.8</ele>
        <time>2021-05-16T05:42:56Z</time>
      </trkpt>
      <trkpt lat="41.1679870" lon="-8.6676820">
        <ele>54.7</ele>
        <time>2021-05-16T05:42:57Z</time>
      </trkpt>
      <trkpt lat="41.1679950" lon="-8.6676900">
        <ele>54.7</ele>
        <time>2021-05-16T05:42:58Z</time>
      </trkpt>
      <trkpt lat="41.1679980" lon="-8.6676980">
        <ele>54.7</ele>
        <time>2021-05-16T05:42:59Z</time>
      </trkpt>
      <trkpt lat="41.1680090" lon="-8.6677060">
        <ele>54.6</ele>
        <time>2021-05-16T05:43:00Z</time>
      </trkpt>
      <trkpt lat="41.1680210" lon="-8.6677120">
        <ele>54.6</ele>
        <time>2021-05-16T05:43:01Z</time>
      </trkpt>
      <trkpt lat="41.1680270" lon="-8.6677170">
        <ele>54.5</ele>
        <time>2021-05-16T05:43:02Z</time>
      </trkpt>
      <trkpt lat="41.1680460" lon="-8.6677280">
        <ele>54.5</ele>
        <time>2021-05-16T05:43:03Z</time>
      </trkpt>
      <trkpt lat="41.1680540" lon="-8.6677370">
        <ele>54.4</ele>
        <time>2021-05-16T05:43:04Z</time>
      </trkpt>
      <trkpt lat="41.1680610" lon="-8.6677450">
        <ele>54.4</ele>
        <time>2021-05-16T05:43:05Z</time>
      </trkpt>
      <trkpt lat="41.1680770" lon="-8.6677530">
        <ele>54.4</ele>
        <time>2021-05-16T05:43:06Z</time>
      </trkpt>
      <trkpt lat="41.1680840" lon="-8.6677560">
        <ele>54.3</ele>
        <time>2021-05-16T05:43:07Z</time>
      </trkpt>
      <trkpt lat="41.1680980" lon="-8.6677710">
        <ele>54.3</ele>
        <time>2021-05-16T05:43:09Z</time>
      </trkpt>
      <trkpt lat="41.1681180" lon="-8.6678020">
        <ele>54.2</ele>
        <time>2021-05-16T05:43:10Z</time>
      </trkpt>
      <trkpt lat="41.1681240" lon="-8.6678100">
        <ele>54.1</ele>
        <time>2021-05-16T05:43:11Z</time>
      </trkpt>
      <trkpt lat="41.1681320" lon="-8.6678170">
        <ele>54.1</ele>
        <time>2021-05-16T05:43:12Z</time>
      </trkpt>
      <trkpt lat="41.1681320" lon="-8.6678260">
        <ele>54.1</ele>
        <time>2021-05-16T05:43:13Z</time>
      </trkpt>
      <trkpt lat="41.1681440" lon="-8.6678460">
        <ele>54.0</ele>
        <time>2021-05-16T05:43:14Z</time>
      </trkpt>
      <trkpt lat="41.1681550" lon="-8.6678590">
        <ele>54.0</ele>
        <time>2021-05-16T05:43:15Z</time>
      </trkpt>
      <trkpt lat="41.1681620" lon="-8.6678710">
        <ele>53.9</ele>
        <time>2021-05-16T05:43:16Z</time>
      </trkpt>
      <trkpt lat="41.1681700" lon="-8.6678820">
        <ele>53.9</ele>
        <time>2021-05-16T05:43:17Z</time>
      </trkpt>
      <trkpt lat="41.1681770" lon="-8.6678960">
        <ele>53.8</ele>
        <time>2021-05-16T05:43:18Z</time>
      </trkpt>
      <trkpt lat="41.1681840" lon="-8.6679050">
        <ele>53.8</ele>
        <time>2021-05-16T05:43:19Z</time>
      </trkpt>
      <trkpt lat="41.1681960" lon="-8.6679140">
        <ele>53.7</ele>
        <time>2021-05-16T05:43:20Z</time>
      </trkpt>
      <trkpt lat="41.1682040" lon="-8.6679190">
        <ele>53.7</ele>
        <time>2021-05-16T05:43:21Z</time>
      </trkpt>
      <trkpt lat="41.1682210" lon="-8.6679380">
        <ele>53.6</ele>
        <time>2021-05-16T05:43:22Z</time>
      </trkpt>
      <trkpt lat="41.1682480" lon="-8.6679470">
        <ele>53.5</ele>
        <time>2021-05-16T05:43:23Z</time>
      </trkpt>
      <trkpt lat="41.1682590" lon="-8.6679490">
        <ele>53.5</ele>
        <time>2021-05-16T05:43:24Z</time>
      </trkpt>
      <trkpt lat="41.1682690" lon="-8.6679510">
        <ele>53.4</ele>
        <time>2021-05-16T05:43:25Z</time>
      </trkpt>
      <trkpt lat="41.1682860" lon="-8.6679570">
        <ele>53.3</ele>
        <time>2021-05-16T05:43:26Z</time>
      </trkpt>
      <trkpt lat="41.1682970" lon="-8.6679650">
        <ele>53.3</ele>
        <time>2021-05-16T05:43:27Z</time>
      </trkpt>
      <trkpt lat="41.1683110" lon="-8.6679800">
        <ele>53.2</ele>
        <time>2021-05-16T05:43:28Z</time>
      </trkpt>
      <trkpt lat="41.1683180" lon="-8.6679920">
        <ele>53.2</ele>
        <time>2021-05-16T05:43:29Z</time>
      </trkpt>
      <trkpt lat="41.1683350" lon="-8.6680070">
        <ele>53.1</ele>
        <time>2021-05-16T05:43:30Z</time>
      </trkpt>
      <trkpt lat="41.1683450" lon="-8.6680130">
        <ele>53.1</ele>
        <time>2021-05-16T05:43:31Z</time>
      </trkpt>
      <trkpt lat="41.1683540" lon="-8.6680190">
        <ele>53.0</ele>
        <time>2021-05-16T05:43:32Z</time>
      </trkpt>
      <trkpt lat="41.1683760" lon="-8.6680320">
        <ele>52.9</ele>
        <time>2021-05-16T05:43:33Z</time>
      </trkpt>
      <trkpt lat="41.1683820" lon="-8.6680320">
        <ele>52.9</ele>
        <time>2021-05-16T05:43:34Z</time>
      </trkpt>
      <trkpt lat="41.1683850" lon="-8.6680510">
        <ele>52.9</ele>
        <time>2021-05-16T05:43:35Z</time>
      </trkpt>
      <trkpt lat="41.1683960" lon="-8.6680640">
        <ele>52.8</ele>
        <time>2021-05-16T05:43:36Z</time>
      </trkpt>
      <trkpt lat="41.1684100" lon="-8.6680760">
        <ele>52.7</ele>
        <time>2021-05-16T05:43:37Z</time>
      </trkpt>
      <trkpt lat="41.1684190" lon="-8.6680900">
        <ele>52.7</ele>
        <time>2021-05-16T05:43:38Z</time>
      </trkpt>
      <trkpt lat="41.1684450" lon="-8.6681040">
        <ele>52.6</ele>
        <time>2021-05-16T05:43:39Z</time>
      </trkpt>
      <trkpt lat="41.1684560" lon="-8.6681120">
        <ele>52.5</ele>
        <time>2021-05-16T05:43:40Z</time>
      </trkpt>
      <trkpt lat="41.1684650" lon="-8.6681190">
        <ele>52.5</ele>
        <time>2021-05-16T05:43:41Z</time>
      </trkpt>
      <trkpt lat="41.1684650" lon="-8.6681180">
        <ele>52.5</ele>
        <time>2021-05-16T05:43:42Z</time>
      </trkpt>
      <trkpt lat="41.1684790" lon="-8.6681370">
        <ele>52.4</ele>
        <time>2021-05-16T05:43:43Z</time>
      </trkpt>
      <trkpt lat="41.1684890" lon="-8.6681430">
        <ele>52.4</ele>
        <time>2021-05-16T05:43:44Z</time>
      </trkpt>
      <trkpt lat="41.1685050" lon="-8.6681480">
        <ele>52.3</ele>
        <time>2021-05-16T05:43:45Z</time>
      </trkpt>
      <trkpt lat="41.1685190" lon="-8.6681540">
        <ele>52.2</ele>
        <time>2021-05-16T05:43:46Z</time>
      </trkpt>
      <trkpt lat="41.1685240" lon="-8.6681620">
        <ele>52.2</ele>
        <time>2021-05-16T05:43:47Z</time>
      </trkpt>
      <trkpt lat="41.1685340" lon="-8.6681690">
        <ele>52.2</ele>
        <time>2021-05-16T05:43:48Z</time>
      </trkpt>
      <trkpt lat="41.1685500" lon="-8.6681860">
        <ele>52.1</ele>
        <time>2021-05-16T05:43:49Z</time>
      </trkpt>
      <trkpt lat="41.1685590" lon="-8.6681980">
        <ele>52.0</ele>
        <time>2021-05-16T05:43:50Z</time>
      </trkpt>
      <trkpt lat="41.1685710" lon="-8.6682170">
        <ele>52.0</ele>
        <time>2021-05-16T05:43:51Z</time>
      </trkpt>
      <trkpt lat="41.1685780" lon="-8.6682320">
        <ele>51.9</ele>
        <time>2021-05-16T05:43:52Z</time>
      </trkpt>
      <trkpt lat="41.1685950" lon="-8.6682610">
        <ele>51.8</ele>
        <time>2021-05-16T05:43:53Z</time>
      </trkpt>
      <trkpt lat="41.1686010" lon="-8.6682700">
        <ele>51.8</ele>
        <time>2021-05-16T05:43:54Z</time>
      </trkpt>
      <trkpt lat="41.1686160" lon="-8.6683030">
        <ele>51.7</ele>
        <time>2021-05-16T05:43:55Z</time>
      </trkpt>
      <trkpt lat="41.1686220" lon="-8.6683150">
        <ele>51.6</ele>
        <time>2021-05-16T05:43:56Z</time>
      </trkpt>
      <trkpt lat="41.1686320" lon="-8.6683280">
        <ele>51.6</ele>
        <time>2021-05-16T05:43:57Z</time>
      </trkpt>
      <trkpt lat="41.1686460" lon="-8.6683450">
        <ele>51.5</ele>
        <time>2021-05-16T05:43:58Z</time>
      </trkpt>
      <trkpt lat="41.1686600" lon="-8.6683450">
        <ele>51.5</ele>
        <time>2021-05-16T05:43:59Z</time>
      </trkpt>
      <trkpt lat="41.1686810" lon="-8.6683560">
        <ele>51.4</ele>
        <time>2021-05-16T05:44:00Z</time>
      </trkpt>
      <trkpt lat="41.1686880" lon="-8.6683700">
        <ele>51.3</ele>
        <time>2021-05-16T05:44:01Z</time>
      </trkpt>
      <trkpt lat="41.1687040" lon="-8.6683820">
        <ele>51.3</ele>
        <time>2021-05-16T05:44:02Z</time>
      </trkpt>
      <trkpt lat="41.1687220" lon="-8.6684120">
        <ele>51.2</ele>
        <time>2021-05-16T05:44:03Z</time>
      </trkpt>
      <trkpt lat="41.1687340" lon="-8.6684270">
        <ele>51.1</ele>
        <time>2021-05-16T05:44:04Z</time>
      </trkpt>
      <trkpt lat="41.1687360" lon="-8.6684460">
        <ele>51.1</ele>
        <time>2021-05-16T05:44:05Z</time>
      </trkpt>
      <trkpt lat="41.1687510" lon="-8.6684630">
        <ele>51.0</ele>
        <time>2021-05-16T05:44:06Z</time>
      </trkpt>
      <trkpt lat="41.1687550" lon="-8.6684790">
        <ele>50.9</ele>
        <time>2021-05-16T05:44:07Z</time>
      </trkpt>
      <trkpt lat="41.1687660" lon="-8.6684940">
        <ele>50.8</ele>
        <time>2021-05-16T05:44:08Z</time>
      </trkpt>
      <trkpt lat="41.1687780" lon="-8.6685070">
        <ele>50.7</ele>
        <time>2021-05-16T05:44:09Z</time>
      </trkpt>
      <trkpt lat="41.1688000" lon="-8.6685460">
        <ele>50.5</ele>
        <time>2021-05-16T05:44:10Z</time>
      </trkpt>
      <trkpt lat="41.1688120" lon="-8.6685620">
        <ele>50.4</ele>
        <time>2021-05-16T05:44:11Z</time>
      </trkpt>
      <trkpt lat="41.1688230" lon="-8.6685730">
        <ele>50.4</ele>
        <time>2021-05-16T05:44:12Z</time>
      </trkpt>
      <trkpt lat="41.1688380" lon="-8.6685770">
        <ele>50.3</ele>
        <time>2021-05-16T05:44:13Z</time>
      </trkpt>
      <trkpt lat="41.1688520" lon="-8.6685790">
        <ele>50.2</ele>
        <time>2021-05-16T05:44:14Z</time>
      </trkpt>
      <trkpt lat="41.1688640" lon="-8.6685830">
        <ele>50.1</ele>
        <time>2021-05-16T05:44:15Z</time>
      </trkpt>
      <trkpt lat="41.1688730" lon="-8.6685920">
        <ele>50.1</ele>
        <time>2021-05-16T05:44:16Z</time>
      </trkpt>
      <trkpt lat="41.1688940" lon="-8.6686070">
        <ele>50.0</ele>
        <time>2021-05-16T05:44:17Z</time>
      </trkpt>
      <trkpt lat="41.1688980" lon="-8.6686150">
        <ele>49.9</ele>
        <time>2021-05-16T05:44:18Z</time>
      </trkpt>
      <trkpt lat="41.1689030" lon="-8.6686220">
        <ele>49.9</ele>
        <time>2021-05-16T05:44:19Z</time>
      </trkpt>
      <trkpt lat="41.1689210" lon="-8.6686510">
        <ele>49.7</ele>
        <time>2021-05-16T05:44:20Z</time>
      </trkpt>
      <trkpt lat="41.1689270" lon="-8.6686630">
        <ele>49.6</ele>
        <time>2021-05-16T05:44:21Z</time>
      </trkpt>
      <trkpt lat="41.1689390" lon="-8.6686750">
        <ele>49.6</ele>
        <time>2021-05-16T05:44:22Z</time>
      </trkpt>
      <trkpt lat="41.1689530" lon="-8.6686890">
        <ele>49.5</ele>
        <time>2021-05-16T05:44:23Z</time>
      </trkpt>
      <trkpt lat="41.1689680" lon="-8.6686930">
        <ele>49.4</ele>
        <time>2021-05-16T05:44:24Z</time>
      </trkpt>
      <trkpt lat="41.1689790" lon="-8.6687090">
        <ele>49.3</ele>
        <time>2021-05-16T05:44:25Z</time>
      </trkpt>
      <trkpt lat="41.1689940" lon="-8.6687280">
        <ele>49.2</ele>
        <time>2021-05-16T05:44:26Z</time>
      </trkpt>
      <trkpt lat="41.1690010" lon="-8.6687380">
        <ele>49.1</ele>
        <time>2021-05-16T05:44:27Z</time>
      </trkpt>
      <trkpt lat="41.1690080" lon="-8.6687490">
        <ele>49.0</ele>
        <time>2021-05-16T05:44:28Z</time>
      </trkpt>
      <trkpt lat="41.1690180" lon="-8.6687630">
        <ele>48.9</ele>
        <time>2021-05-16T05:44:29Z</time>
      </trkpt>
      <trkpt lat="41.1690300" lon="-8.6687780">
        <ele>48.9</ele>
        <time>2021-05-16T05:44:30Z</time>
      </trkpt>
      <trkpt lat="41.1690380" lon="-8.6687940">
        <ele>48.8</ele>
        <time>2021-05-16T05:44:31Z</time>
      </trkpt>
      <trkpt lat="41.1690440" lon="-8.6688150">
        <ele>48.7</ele>
        <time>2021-05-16T05:44:32Z</time>
      </trkpt>
      <trkpt lat="41.1690410" lon="-8.6688200">
        <ele>48.6</ele>
        <time>2021-05-16T05:44:33Z</time>
      </trkpt>
      <trkpt lat="41.1690480" lon="-8.6688310">
        <ele>48.6</ele>
        <time>2021-05-16T05:44:34Z</time>
      </trkpt>
      <trkpt lat="41.1690610" lon="-8.6688530">
        <ele>48.5</ele>
        <time>2021-05-16T05:44:35Z</time>
      </trkpt>
      <trkpt lat="41.1690670" lon="-8.6688680">
        <ele>48.4</ele>
        <time>2021-05-16T05:44:36Z</time>
      </trkpt>
      <trkpt lat="41.1690790" lon="-8.6688880">
        <ele>48.3</ele>
        <time>2021-05-16T05:44:37Z</time>
      </trkpt>
      <trkpt lat="41.1690920" lon="-8.6689190">
        <ele>48.1</ele>
        <time>2021-05-16T05:44:38Z</time>
      </trkpt>
      <trkpt lat="41.1690990" lon="-8.6689310">
        <ele>48.1</ele>
        <time>2021-05-16T05:44:39Z</time>
      </trkpt>
      <trkpt lat="41.1691050" lon="-8.6689500">
        <ele>48.0</ele>
        <time>2021-05-16T05:44:40Z</time>
      </trkpt>
      <trkpt lat="41.1691150" lon="-8.6689700">
        <ele>47.9</ele>
        <time>2021-05-16T05:44:41Z</time>
      </trkpt>
      <trkpt lat="41.1691090" lon="-8.6689950">
        <ele>47.8</ele>
        <time>2021-05-16T05:44:42Z</time>
      </trkpt>
      <trkpt lat="41.1691190" lon="-8.6690070">
        <ele>47.7</ele>
        <time>2021-05-16T05:44:43Z</time>
      </trkpt>
      <trkpt lat="41.1691250" lon="-8.6690500">
        <ele>47.5</ele>
        <time>2021-05-16T05:44:44Z</time>
      </trkpt>
      <trkpt lat="41.1691270" lon="-8.6690630">
        <ele>47.5</ele>
        <time>2021-05-16T05:44:45Z</time>
      </trkpt>
      <trkpt lat="41.1691360" lon="-8.6690820">
        <ele>47.4</ele>
        <time>2021-05-16T05:44:46Z</time>
      </trkpt>
      <trkpt lat="41.1691510" lon="-8.6690950">
        <ele>47.3</ele>
        <time>2021-05-16T05:44:47Z</time>
      </trkpt>
      <trkpt lat="41.1691680" lon="-8.6691150">
        <ele>47.2</ele>
        <time>2021-05-16T05:44:48Z</time>
      </trkpt>
      <trkpt lat="41.1691760" lon="-8.6691250">
        <ele>47.1</ele>
        <time>2021-05-16T05:44:49Z</time>
      </trkpt>
      <trkpt lat="41.1691840" lon="-8.6691350">
        <ele>47.1</ele>
        <time>2021-05-16T05:44:50Z</time>
      </trkpt>
      <trkpt lat="41.1691940" lon="-8.6691540">
        <ele>47.0</ele>
        <time>2021-05-16T05:44:51Z</time>
      </trkpt>
      <trkpt lat="41.1692010" lon="-8.6691710">
        <ele>46.9</ele>
        <time>2021-05-16T05:44:52Z</time>
      </trkpt>
      <trkpt lat="41.1692160" lon="-8.6691860">
        <ele>46.8</ele>
        <time>2021-05-16T05:44:53Z</time>
      </trkpt>
      <trkpt lat="41.1692250" lon="-8.6691920">
        <ele>46.8</ele>
        <time>2021-05-16T05:44:54Z</time>
      </trkpt>
      <trkpt lat="41.1692270" lon="-8.6692130">
        <ele>46.7</ele>
        <time>2021-05-16T05:44:55Z</time>
      </trkpt>
      <trkpt lat="41.1692310" lon="-8.6692310">
        <ele>46.6</ele>
        <time>2021-05-16T05:44:56Z</time>
      </trkpt>
      <trkpt lat="41.1692420" lon="-8.6692520">
        <ele>46.5</ele>
        <time>2021-05-16T05:44:57Z</time>
      </trkpt>
      <trkpt lat="41.1692510" lon="-8.6692620">
        <ele>46.5</ele>
        <time>2021-05-16T05:44:58Z</time>
      </trkpt>
      <trkpt lat="41.1692480" lon="-8.6692850">
        <ele>46.4</ele>
        <time>2021-05-16T05:44:59Z</time>
      </trkpt>
      <trkpt lat="41.1692550" lon="-8.6692930">
        <ele>46.4</ele>
        <time>2021-05-16T05:45:00Z</time>
      </trkpt>
      <trkpt lat="41.1692510" lon="-8.6693050">
        <ele>46.3</ele>
        <time>2021-05-16T05:45:01Z</time>
      </trkpt>
      <trkpt lat="41.1692680" lon="-8.6693280">
        <ele>46.2</ele>
        <time>2021-05-16T05:45:02Z</time>
      </trkpt>
      <trkpt lat="41.1692710" lon="-8.6693400">
        <ele>46.2</ele>
        <time>2021-05-16T05:45:03Z</time>
      </trkpt>
      <trkpt lat="41.1692730" lon="-8.6693530">
        <ele>46.1</ele>
        <time>2021-05-16T05:45:04Z</time>
      </trkpt>
      <trkpt lat="41.1692790" lon="-8.6693650">
        <ele>46.1</ele>
        <time>2021-05-16T05:45:05Z</time>
      </trkpt>
      <trkpt lat="41.1692940" lon="-8.6693870">
        <ele>45.9</ele>
        <time>2021-05-16T05:45:06Z</time>
      </trkpt>
      <trkpt lat="41.1693130" lon="-8.6694000">
        <ele>45.8</ele>
        <time>2021-05-16T05:45:07Z</time>
      </trkpt>
      <trkpt lat="41.1693210" lon="-8.6694040">
        <ele>45.8</ele>
        <time>2021-05-16T05:45:08Z</time>
      </trkpt>
      <trkpt lat="41.1693280" lon="-8.6694090">
        <ele>45.8</ele>
        <time>2021-05-16T05:45:09Z</time>
      </trkpt>
      <trkpt lat="41.1693260" lon="-8.6694380">
        <ele>45.7</ele>
        <time>2021-05-16T05:45:10Z</time>
      </trkpt>
      <trkpt lat="41.1693320" lon="-8.6694550">
        <ele>45.6</ele>
        <time>2021-05-16T05:45:11Z</time>
      </trkpt>
      <trkpt lat="41.1693380" lon="-8.6694730">
        <ele>45.5</ele>
        <time>2021-05-16T05:45:12Z</time>
      </trkpt>
      <trkpt lat="41.1693430" lon="-8.6694850">
        <ele>45.5</ele>
        <time>2021-05-16T05:45:13Z</time>
      </trkpt>
      <trkpt lat="41.1693360" lon="-8.6694930">
        <ele>45.4</ele>
        <time>2021-05-16T05:45:14Z</time>
      </trkpt>
      <trkpt lat="41.1693420" lon="-8.6695070">
        <ele>45.4</ele>
        <time>2021-05-16T05:45:15Z</time>
      </trkpt>
      <trkpt lat="41.1693450" lon="-8.6695140">
        <ele>45.3</ele>
        <time>2021-05-16T05:45:16Z</time>
      </trkpt>
      <trkpt lat="41.1693550" lon="-8.6695280">
        <ele>45.3</ele>
        <time>2021-05-16T05:45:17Z</time>
      </trkpt>
      <trkpt lat="41.1693710" lon="-8.6695350">
        <ele>45.2</ele>
        <time>2021-05-16T05:45:18Z</time>
      </trkpt>
      <trkpt lat="41.1693790" lon="-8.6695350">
        <ele>45.1</ele>
        <time>2021-05-16T05:45:19Z</time>
      </trkpt>
      <trkpt lat="41.1693860" lon="-8.6695350">
        <ele>45.1</ele>
        <time>2021-05-16T05:45:20Z</time>
      </trkpt>
      <trkpt lat="41.1693940" lon="-8.6695350">
        <ele>45.0</ele>
        <time>2021-05-16T05:45:21Z</time>
      </trkpt>
      <trkpt lat="41.1694070" lon="-8.6695390">
        <ele>45.0</ele>
        <time>2021-05-16T05:45:22Z</time>
      </trkpt>
      <trkpt lat="41.1694240" lon="-8.6695490">
        <ele>44.9</ele>
        <time>2021-05-16T05:45:23Z</time>
      </trkpt>
      <trkpt lat="41.1694310" lon="-8.6695570">
        <ele>44.8</ele>
        <time>2021-05-16T05:45:24Z</time>
      </trkpt>
      <trkpt lat="41.1694470" lon="-8.6695780">
        <ele>44.7</ele>
        <time>2021-05-16T05:45:25Z</time>
      </trkpt>
      <trkpt lat="41.1694550" lon="-8.6695910">
        <ele>44.6</ele>
        <time>2021-05-16T05:45:26Z</time>
      </trkpt>
      <trkpt lat="41.1694700" lon="-8.6696060">
        <ele>44.5</ele>
        <time>2021-05-16T05:45:27Z</time>
      </trkpt>
      <trkpt lat="41.1694740" lon="-8.6696060">
        <ele>44.5</ele>
        <time>2021-05-16T05:45:28Z</time>
      </trkpt>
      <trkpt lat="41.1694850" lon="-8.6696130">
        <ele>44.4</ele>
        <time>2021-05-16T05:45:29Z</time>
      </trkpt>
      <trkpt lat="41.1694950" lon="-8.6696240">
        <ele>44.3</ele>
        <time>2021-05-16T05:45:30Z</time>
      </trkpt>
      <trkpt lat="41.1695160" lon="-8.6696450">
        <ele>44.2</ele>
        <time>2021-05-16T05:45:31Z</time>
      </trkpt>
      <trkpt lat="41.1695190" lon="-8.6696560">
        <ele>44.1</ele>
        <time>2021-05-16T05:45:32Z</time>
      </trkpt>
      <trkpt lat="41.1695230" lon="-8.6696670">
        <ele>44.1</ele>
        <time>2021-05-16T05:45:33Z</time>
      </trkpt>
      <trkpt lat="41.1695200" lon="-8.6696820">
        <ele>44.0</ele>
        <time>2021-05-16T05:45:34Z</time>
      </trkpt>
      <trkpt lat="41.1695420" lon="-8.6696930">
        <ele>43.9</ele>
        <time>2021-05-16T05:45:35Z</time>
      </trkpt>
      <trkpt lat="41.1695610" lon="-8.6696980">
        <ele>43.8</ele>
        <time>2021-05-16T05:45:37Z</time>
      </trkpt>
      <trkpt lat="41.1695700" lon="-8.6697100">
        <ele>43.7</ele>
        <time>2021-05-16T05:45:38Z</time>
      </trkpt>
      <trkpt lat="41.1695670" lon="-8.6697110">
        <ele>43.6</ele>
        <time>2021-05-16T05:45:39Z</time>
      </trkpt>
      <trkpt lat="41.1695800" lon="-8.6697310">
        <ele>43.5</ele>
        <time>2021-05-16T05:45:40Z</time>
      </trkpt>
      <trkpt lat="41.1695930" lon="-8.6697440">
        <ele>43.4</ele>
        <time>2021-05-16T05:45:41Z</time>
      </trkpt>
      <trkpt lat="41.1696110" lon="-8.6697570">
        <ele>43.3</ele>
        <time>2021-05-16T05:45:42Z</time>
      </trkpt>
      <trkpt lat="41.1696170" lon="-8.6697650">
        <ele>43.2</ele>
        <time>2021-05-16T05:45:43Z</time>
      </trkpt>
      <trkpt lat="41.1696230" lon="-8.6697740">
        <ele>43.2</ele>
        <time>2021-05-16T05:45:44Z</time>
      </trkpt>
      <trkpt lat="41.1696470" lon="-8.6697850">
        <ele>43.0</ele>
        <time>2021-05-16T05:45:45Z</time>
      </trkpt>
      <trkpt lat="41.1696570" lon="-8.6697930">
        <ele>42.9</ele>
        <time>2021-05-16T05:45:46Z</time>
      </trkpt>
      <trkpt lat="41.1696670" lon="-8.6698000">
        <ele>42.8</ele>
        <time>2021-05-16T05:45:47Z</time>
      </trkpt>
      <trkpt lat="41.1696790" lon="-8.6698120">
        <ele>42.7</ele>
        <time>2021-05-16T05:45:48Z</time>
      </trkpt>
      <trkpt lat="41.1696910" lon="-8.6698230">
        <ele>42.6</ele>
        <time>2021-05-16T05:45:49Z</time>
      </trkpt>
      <trkpt lat="41.1697140" lon="-8.6698420">
        <ele>42.4</ele>
        <time>2021-05-16T05:45:50Z</time>
      </trkpt>
      <trkpt lat="41.1697200" lon="-8.6698470">
        <ele>42.4</ele>
        <time>2021-05-16T05:45:51Z</time>
      </trkpt>
      <trkpt lat="41.1697270" lon="-8.6698530">
        <ele>42.3</ele>
        <time>2021-05-16T05:45:52Z</time>
      </trkpt>
      <trkpt lat="41.1697350" lon="-8.6698610">
        <ele>42.2</ele>
        <time>2021-05-16T05:45:53Z</time>
      </trkpt>
      <trkpt lat="41.1697450" lon="-8.6698830">
        <ele>42.1</ele>
        <time>2021-05-16T05:45:54Z</time>
      </trkpt>
      <trkpt lat="41.1697560" lon="-8.6699090">
        <ele>41.9</ele>
        <time>2021-05-16T05:45:55Z</time>
      </trkpt>
      <trkpt lat="41.1697580" lon="-8.6699260">
        <ele>41.8</ele>
        <time>2021-05-16T05:45:56Z</time>
      </trkpt>
      <trkpt lat="41.1697670" lon="-8.6699490">
        <ele>41.6</ele>
        <time>2021-05-16T05:45:57Z</time>
      </trkpt>
      <trkpt lat="41.1697740" lon="-8.6699660">
        <ele>41.5</ele>
        <time>2021-05-16T05:45:58Z</time>
      </trkpt>
      <trkpt lat="41.1697870" lon="-8.6699790">
        <ele>41.4</ele>
        <time>2021-05-16T05:45:59Z</time>
      </trkpt>
      <trkpt lat="41.1697950" lon="-8.6699930">
        <ele>41.3</ele>
        <time>2021-05-16T05:46:00Z</time>
      </trkpt>
      <trkpt lat="41.1698220" lon="-8.6700080">
        <ele>41.0</ele>
        <time>2021-05-16T05:46:01Z</time>
      </trkpt>
      <trkpt lat="41.1698300" lon="-8.6700150">
        <ele>40.9</ele>
        <time>2021-05-16T05:46:02Z</time>
      </trkpt>
      <trkpt lat="41.1698390" lon="-8.6700210">
        <ele>40.9</ele>
        <time>2021-05-16T05:46:03Z</time>
      </trkpt>
      <trkpt lat="41.1698390" lon="-8.6700390">
        <ele>40.7</ele>
        <time>2021-05-16T05:46:04Z</time>
      </trkpt>
      <trkpt lat="41.1698360" lon="-8.6700680">
        <ele>40.5</ele>
        <time>2021-05-16T05:46:05Z</time>
      </trkpt>
      <trkpt lat="41.1698450" lon="-8.6701070">
        <ele>40.3</ele>
        <time>2021-05-16T05:46:06Z</time>
      </trkpt>
      <trkpt lat="41.1698540" lon="-8.6701180">
        <ele>40.2</ele>
        <time>2021-05-16T05:46:07Z</time>
      </trkpt>
      <trkpt lat="41.1698740" lon="-8.6701500">
        <ele>39.9</ele>
        <time>2021-05-16T05:46:08Z</time>
      </trkpt>
      <trkpt lat="41.1698790" lon="-8.6701580">
        <ele>39.9</ele>
        <time>2021-05-16T05:46:09Z</time>
      </trkpt>
      <trkpt lat="41.1698950" lon="-8.6701750">
        <ele>39.7</ele>
        <time>2021-05-16T05:46:10Z</time>
      </trkpt>
      <trkpt lat="41.1698990" lon="-8.6701850">
        <ele>39.6</ele>
        <time>2021-05-16T05:46:11Z</time>
      </trkpt>
      <trkpt lat="41.1699040" lon="-8.6701940">
        <ele>39.6</ele>
        <time>2021-05-16T05:46:12Z</time>
      </trkpt>
      <trkpt lat="41.1699210" lon="-8.6701990">
        <ele>39.4</ele>
        <time>2021-05-16T05:46:13Z</time>
      </trkpt>
      <trkpt lat="41.1699320" lon="-8.6702180">
        <ele>39.3</ele>
        <time>2021-05-16T05:46:14Z</time>
      </trkpt>
      <trkpt lat="41.1699300" lon="-8.6702340">
        <ele>39.2</ele>
        <time>2021-05-16T05:46:15Z</time>
      </trkpt>
      <trkpt lat="41.1699370" lon="-8.6702800">
        <ele>38.9</ele>
        <time>2021-05-16T05:46:16Z</time>
      </trkpt>
      <trkpt lat="41.1699440" lon="-8.6703080">
        <ele>38.7</ele>
        <time>2021-05-16T05:46:17Z</time>
      </trkpt>
      <trkpt lat="41.1699560" lon="-8.6703150">
        <ele>38.6</ele>
        <time>2021-05-16T05:46:18Z</time>
      </trkpt>
      <trkpt lat="41.1699640" lon="-8.6703390">
        <ele>38.5</ele>
        <time>2021-05-16T05:46:19Z</time>
      </trkpt>
      <trkpt lat="41.1699810" lon="-8.6703730">
        <ele>38.3</ele>
        <time>2021-05-16T05:46:20Z</time>
      </trkpt>
      <trkpt lat="41.1699930" lon="-8.6703890">
        <ele>38.2</ele>
        <time>2021-05-16T05:46:21Z</time>
      </trkpt>
      <trkpt lat="41.1699920" lon="-8.6703950">
        <ele>38.2</ele>
        <time>2021-05-16T05:46:22Z</time>
      </trkpt>
      <trkpt lat="41.1700110" lon="-8.6704040">
        <ele>38.1</ele>
        <time>2021-05-16T05:46:23Z</time>
      </trkpt>
      <trkpt lat="41.1700230" lon="-8.6704140">
        <ele>38.1</ele>
        <time>2021-05-16T05:46:24Z</time>
      </trkpt>
      <trkpt lat="41.1700350" lon="-8.6704210">
        <ele>38.0</ele>
        <time>2021-05-16T05:46:25Z</time>
      </trkpt>
      <trkpt lat="41.1700410" lon="-8.6704320">
        <ele>37.9</ele>
        <time>2021-05-16T05:46:26Z</time>
      </trkpt>
      <trkpt lat="41.1700450" lon="-8.6704400">
        <ele>37.9</ele>
        <time>2021-05-16T05:46:27Z</time>
      </trkpt>
      <trkpt lat="41.1700530" lon="-8.6704420">
        <ele>37.9</ele>
        <time>2021-05-16T05:46:28Z</time>
      </trkpt>
      <trkpt lat="41.1700560" lon="-8.6704460">
        <ele>37.9</ele>
        <time>2021-05-16T05:46:29Z</time>
      </trkpt>
      <trkpt lat="41.1700620" lon="-8.6704550">
        <ele>37.8</ele>
        <time>2021-05-16T05:46:30Z</time>
      </trkpt>
      <trkpt lat="41.1700630" lon="-8.6704640">
        <ele>37.8</ele>
        <time>2021-05-16T05:46:31Z</time>
      </trkpt>
      <trkpt lat="41.1700670" lon="-8.6704690">
        <ele>37.8</ele>
        <time>2021-05-16T05:46:32Z</time>
      </trkpt>
      <trkpt lat="41.1700840" lon="-8.6704790">
        <ele>37.7</ele>
        <time>2021-05-16T05:46:33Z</time>
      </trkpt>
      <trkpt lat="41.1700920" lon="-8.6704830">
        <ele>37.6</ele>
        <time>2021-05-16T05:46:34Z</time>
      </trkpt>
      <trkpt lat="41.1701010" lon="-8.6704880">
        <ele>37.6</ele>
        <time>2021-05-16T05:46:35Z</time>
      </trkpt>
      <trkpt lat="41.1701160" lon="-8.6705000">
        <ele>37.5</ele>
        <time>2021-05-16T05:46:36Z</time>
      </trkpt>
      <trkpt lat="41.1701190" lon="-8.6705120">
        <ele>37.5</ele>
        <time>2021-05-16T05:46:37Z</time>
      </trkpt>
      <trkpt lat="41.1701260" lon="-8.6705170">
        <ele>37.4</ele>
        <time>2021-05-16T05:46:38Z</time>
      </trkpt>
      <trkpt lat="41.1701270" lon="-8.6705100">
        <ele>37.4</ele>
        <time>2021-05-16T05:46:39Z</time>
      </trkpt>
      <trkpt lat="41.1701360" lon="-8.6705200">
        <ele>37.3</ele>
        <time>2021-05-16T05:46:40Z</time>
      </trkpt>
      <trkpt lat="41.1701470" lon="-8.6705360">
        <ele>37.3</ele>
        <time>2021-05-16T05:46:41Z</time>
      </trkpt>
      <trkpt lat="41.1701540" lon="-8.6705410">
        <ele>37.2</ele>
        <time>2021-05-16T05:46:42Z</time>
      </trkpt>
      <trkpt lat="41.1701800" lon="-8.6705610">
        <ele>37.1</ele>
        <time>2021-05-16T05:46:43Z</time>
      </trkpt>
      <trkpt lat="41.1701870" lon="-8.6705670">
        <ele>37.1</ele>
        <time>2021-05-16T05:46:44Z</time>
      </trkpt>
      <trkpt lat="41.1702050" lon="-8.6705660">
        <ele>37.0</ele>
        <time>2021-05-16T05:46:45Z</time>
      </trkpt>
      <trkpt lat="41.1702170" lon="-8.6705810">
        <ele>36.9</ele>
        <time>2021-05-16T05:46:46Z</time>
      </trkpt>
      <trkpt lat="41.1702270" lon="-8.6705880">
        <ele>36.8</ele>
        <time>2021-05-16T05:46:47Z</time>
      </trkpt>
      <trkpt lat="41.1702340" lon="-8.6705950">
        <ele>36.8</ele>
        <time>2021-05-16T05:46:48Z</time>
      </trkpt>
      <trkpt lat="41.1702440" lon="-8.6706010">
        <ele>36.8</ele>
        <time>2021-05-16T05:46:49Z</time>
      </trkpt>
      <trkpt lat="41.1702550" lon="-8.6706180">
        <ele>36.7</ele>
        <time>2021-05-16T05:46:50Z</time>
      </trkpt>
      <trkpt lat="41.1702600" lon="-8.6706260">
        <ele>36.6</ele>
        <time>2021-05-16T05:46:51Z</time>
      </trkpt>
      <trkpt lat="41.1702700" lon="-8.6706360">
        <ele>36.6</ele>
        <time>2021-05-16T05:46:52Z</time>
      </trkpt>
      <trkpt lat="41.1702830" lon="-8.6706460">
        <ele>36.5</ele>
        <time>2021-05-16T05:46:53Z</time>
      </trkpt>
      <trkpt lat="41.1702960" lon="-8.6706560">
        <ele>36.4</ele>
        <time>2021-05-16T05:46:54Z</time>
      </trkpt>
      <trkpt lat="41.1703030" lon="-8.6706670">
        <ele>36.4</ele>
        <time>2021-05-16T05:46:55Z</time>
      </trkpt>
      <trkpt lat="41.1703090" lon="-8.6706690">
        <ele>36.4</ele>
        <time>2021-05-16T05:46:56Z</time>
      </trkpt>
      <trkpt lat="41.1703240" lon="-8.6706820">
        <ele>36.3</ele>
        <time>2021-05-16T05:46:57Z</time>
      </trkpt>
      <trkpt lat="41.1703360" lon="-8.6706900">
        <ele>36.2</ele>
        <time>2021-05-16T05:46:58Z</time>
      </trkpt>
      <trkpt lat="41.1703510" lon="-8.6707010">
        <ele>36.2</ele>
        <time>2021-05-16T05:46:59Z</time>
      </trkpt>
      <trkpt lat="41.1703570" lon="-8.6707020">
        <ele>36.1</ele>
        <time>2021-05-16T05:47:00Z</time>
      </trkpt>
      <trkpt lat="41.1703740" lon="-8.6707030">
        <ele>36.1</ele>
        <time>2021-05-16T05:47:01Z</time>
      </trkpt>
      <trkpt lat="41.1703780" lon="-8.6707050">
        <ele>36.0</ele>
        <time>2021-05-16T05:47:02Z</time>
      </trkpt>
      <trkpt lat="41.1703820" lon="-8.6707050">
        <ele>36.0</ele>
        <time>2021-05-16T05:47:03Z</time>
      </trkpt>
      <trkpt lat="41.1703860" lon="-8.6707140">
        <ele>36.0</ele>
        <time>2021-05-16T05:47:04Z</time>
      </trkpt>
      <trkpt lat="41.1703880" lon="-8.6707210">
        <ele>36.0</ele>
        <time>2021-05-16T05:47:05Z</time>
      </trkpt>
      <trkpt lat="41.1703910" lon="-8.6707280">
        <ele>35.9</ele>
        <time>2021-05-16T05:47:06Z</time>
      </trkpt>
      <trkpt lat="41.1703930" lon="-8.6707350">
        <ele>35.9</ele>
        <time>2021-05-16T05:47:07Z</time>
      </trkpt>
      <trkpt lat="41.1703960" lon="-8.6707420">
        <ele>35.9</ele>
        <time>2021-05-16T05:47:08Z</time>
      </trkpt>
      <trkpt lat="41.1703980" lon="-8.6707490">
        <ele>35.9</ele>
        <time>2021-05-16T05:47:09Z</time>
      </trkpt>
      <trkpt lat="41.1703980" lon="-8.6707530">
        <ele>35.8</ele>
        <time>2021-05-16T05:47:10Z</time>
      </trkpt>
      <trkpt lat="41.1703970" lon="-8.6707580">
        <ele>35.8</ele>
        <time>2021-05-16T05:47:11Z</time>
      </trkpt>
      <trkpt lat="41.1703920" lon="-8.6707630">
        <ele>35.8</ele>
        <time>2021-05-16T05:47:12Z</time>
      </trkpt>
      <trkpt lat="41.1703890" lon="-8.6707610">
        <ele>35.8</ele>
        <time>2021-05-16T05:47:13Z</time>
      </trkpt>
      <trkpt lat="41.1703890" lon="-8.6707610">
        <ele>35.8</ele>
        <time>2021-05-16T05:47:14Z</time>
      </trkpt>
      <trkpt lat="41.1703990" lon="-8.6707890">
        <ele>35.7</ele>
        <time>2021-05-16T05:47:15Z</time>
      </trkpt>
      <trkpt lat="41.1704000" lon="-8.6707900">
        <ele>35.7</ele>
        <time>2021-05-16T05:47:16Z</time>
      </trkpt>
      <trkpt lat="41.1703980" lon="-8.6707890">
        <ele>35.7</ele>
        <time>2021-05-16T05:47:17Z</time>
      </trkpt>
      <trkpt lat="41.1704020" lon="-8.6707890">
        <ele>35.7</ele>
        <time>2021-05-16T05:47:18Z</time>
      </trkpt>
      <trkpt lat="41.1704020" lon="-8.6707870">
        <ele>35.7</ele>
        <time>2021-05-16T05:47:19Z</time>
      </trkpt>
      <trkpt lat="41.1703950" lon="-8.6707830">
        <ele>35.6</ele>
        <time>2021-05-16T05:47:20Z</time>
      </trkpt>
      <trkpt lat="41.1703940" lon="-8.6707780">
        <ele>35.6</ele>
        <time>2021-05-16T05:47:21Z</time>
      </trkpt>
      <trkpt lat="41.1703930" lon="-8.6707770">
        <ele>35.6</ele>
        <time>2021-05-16T05:47:22Z</time>
      </trkpt>
      <trkpt lat="41.1703990" lon="-8.6707820">
        <ele>35.6</ele>
        <time>2021-05-16T05:47:23Z</time>
      </trkpt>
      <trkpt lat="41.1704040" lon="-8.6707870">
        <ele>35.6</ele>
        <time>2021-05-16T05:47:24Z</time>
      </trkpt>
      <trkpt lat="41.1704110" lon="-8.6707830">
        <ele>35.5</ele>
        <time>2021-05-16T05:47:25Z</time>
      </trkpt>
      <trkpt lat="41.1704090" lon="-8.6707650">
        <ele>35.5</ele>
        <time>2021-05-16T05:47:26Z</time>
      </trkpt>
      <trkpt lat="41.1704130" lon="-8.6707640">
        <ele>35.5</ele>
        <time>2021-05-16T05:47:27Z</time>
      </trkpt>
      <trkpt lat="41.1704130" lon="-8.6707630">
        <ele>35.5</ele>
        <time>2021-05-16T05:47:28Z</time>
      </trkpt>
      <trkpt lat="41.1704150" lon="-8.6707660">
        <ele>35.5</ele>
        <time>2021-05-16T05:47:29Z</time>
      </trkpt>
      <trkpt lat="41.1704170" lon="-8.6707640">
        <ele>35.5</ele>
        <time>2021-05-16T05:47:30Z</time>
      </trkpt>
      <trkpt lat="41.1704200" lon="-8.6707660">
        <ele>35.4</ele>
        <time>2021-05-16T05:47:31Z</time>
      </trkpt>
      <trkpt lat="41.1704200" lon="-8.6707660">
        <ele>35.4</ele>
        <time>2021-05-16T05:47:32Z</time>
      </trkpt>
      <trkpt lat="41.1704200" lon="-8.6707660">
        <ele>35.4</ele>
        <time>2021-05-16T05:47:33Z</time>
      </trkpt>
      <trkpt lat="41.1704310" lon="-8.6707550">
        <ele>35.4</ele>
        <time>2021-05-16T05:47:35Z</time>
      </trkpt>
      <trkpt lat="41.1704430" lon="-8.6707470">
        <ele>35.4</ele>
        <time>2021-05-16T05:47:36Z</time>
      </trkpt>
      <trkpt lat="41.1704460" lon="-8.6707450">
        <ele>35.3</ele>
        <time>2021-05-16T05:47:37Z</time>
      </trkpt>
      <trkpt lat="41.1704470" lon="-8.6707400">
        <ele>35.3</ele>
        <time>2021-05-16T05:47:38Z</time>
      </trkpt>
      <trkpt lat="41.1704490" lon="-8.6707360">
        <ele>35.3</ele>
        <time>2021-05-16T05:47:39Z</time>
      </trkpt>
      <trkpt lat="41.1704500" lon="-8.6707350">
        <ele>35.3</ele>
        <time>2021-05-16T05:47:40Z</time>
      </trkpt>
      <trkpt lat="41.1704540" lon="-8.6707250">
        <ele>35.3</ele>
        <time>2021-05-16T05:47:41Z</time>
      </trkpt>
      <trkpt lat="41.1704550" lon="-8.6707250">
        <ele>35.3</ele>
        <time>2021-05-16T05:47:42Z</time>
      </trkpt>
      <trkpt lat="41.1704550" lon="-8.6707230">
        <ele>35.3</ele>
        <time>2021-05-16T05:47:43Z</time>
      </trkpt>
      <trkpt lat="41.1704550" lon="-8.6707250">
        <ele>35.3</ele>
        <time>2021-05-16T05:47:44Z</time>
      </trkpt>
      <trkpt lat="41.1704540" lon="-8.6707300">
        <ele>35.3</ele>
        <time>2021-05-16T05:47:45Z</time>
      </trkpt>
      <trkpt lat="41.1704540" lon="-8.6707300">
        <ele>35.3</ele>
        <time>2021-05-16T05:47:46Z</time>
      </trkpt>
      <trkpt lat="41.1704530" lon="-8.6707290">
        <ele>35.3</ele>
        <time>2021-05-16T05:47:47Z</time>
      </trkpt>
      <trkpt lat="41.1704530" lon="-8.6707290">
        <ele>35.3</ele>
        <time>2021-05-16T05:47:48Z</time>
      </trkpt>
      <trkpt lat="41.1704390" lon="-8.6707310">
        <ele>35.2</ele>
        <time>2021-05-16T05:47:49Z</time>
      </trkpt>
      <trkpt lat="41.1704380" lon="-8.6707330">
        <ele>35.2</ele>
        <time>2021-05-16T05:47:50Z</time>
      </trkpt>
      <trkpt lat="41.1704380" lon="-8.6707320">
        <ele>35.2</ele>
        <time>2021-05-16T05:47:51Z</time>
      </trkpt>
      <trkpt lat="41.1704380" lon="-8.6707320">
        <ele>35.2</ele>
        <time>2021-05-16T05:47:52Z</time>
      </trkpt>
      <trkpt lat="41.1704320" lon="-8.6707370">
        <ele>35.2</ele>
        <time>2021-05-16T05:47:53Z</time>
      </trkpt>
      <trkpt lat="41.1704290" lon="-8.6707420">
        <ele>35.2</ele>
        <time>2021-05-16T05:47:54Z</time>
      </trkpt>
      <trkpt lat="41.1704290" lon="-8.6707420">
        <ele>35.2</ele>
        <time>2021-05-16T05:47:55Z</time>
      </trkpt>
      <trkpt lat="41.1704290" lon="-8.6707420">
        <ele>35.2</ele>
        <time>2021-05-16T05:47:56Z</time>
      </trkpt>
      <trkpt lat="41.1704280" lon="-8.6707490">
        <ele>35.1</ele>
        <time>2021-05-16T05:47:57Z</time>
      </trkpt>
      <trkpt lat="41.1704410" lon="-8.6707630">
        <ele>35.1</ele>
        <time>2021-05-16T05:47:58Z</time>
      </trkpt>
      <trkpt lat="41.1704480" lon="-8.6707680">
        <ele>35.1</ele>
        <time>2021-05-16T05:47:59Z</time>
      </trkpt>
      <trkpt lat="41.1704520" lon="-8.6707730">
        <ele>35.1</ele>
        <time>2021-05-16T05:48:00Z</time>
      </trkpt>
      <trkpt lat="41.1704650" lon="-8.6707860">
        <ele>35.0</ele>
        <time>2021-05-16T05:48:01Z</time>
      </trkpt>
      <trkpt lat="41.1704730" lon="-8.6707940">
        <ele>35.0</ele>
        <time>2021-05-16T05:48:02Z</time>
      </trkpt>
      <trkpt lat="41.1704860" lon="-8.6708040">
        <ele>34.9</ele>
        <time>2021-05-16T05:48:03Z</time>
      </trkpt>
      <trkpt lat="41.1704920" lon="-8.6708110">
        <ele>34.9</ele>
        <time>2021-05-16T05:48:04Z</time>
      </trkpt>
      <trkpt lat="41.1705020" lon="-8.6708240">
        <ele>34.9</ele>
        <time>2021-05-16T05:48:05Z</time>
      </trkpt>
      <trkpt lat="41.1705150" lon="-8.6708360">
        <ele>34.8</ele>
        <time>2021-05-16T05:48:06Z</time>
      </trkpt>
      <trkpt lat="41.1705190" lon="-8.6708410">
        <ele>34.8</ele>
        <time>2021-05-16T05:48:07Z</time>
      </trkpt>
      <trkpt lat="41.1705270" lon="-8.6708470">
        <ele>34.8</ele>
        <time>2021-05-16T05:48:08Z</time>
      </trkpt>
      <trkpt lat="41.1705370" lon="-8.6708650">
        <ele>34.8</ele>
        <time>2021-05-16T05:48:09Z</time>
      </trkpt>
      <trkpt lat="41.1705610" lon="-8.6708900">
        <ele>34.7</ele>
        <time>2021-05-16T05:48:10Z</time>
      </trkpt>
      <trkpt lat="41.1705720" lon="-8.6709050">
        <ele>34.7</ele>
        <time>2021-05-16T05:48:11Z</time>
      </trkpt>
      <trkpt lat="41.1705870" lon="-8.6709170">
        <ele>34.6</ele>
        <time>2021-05-16T05:48:12Z</time>
      </trkpt>
      <trkpt lat="41.1705970" lon="-8.6709320">
        <ele>34.6</ele>
        <time>2021-05-16T05:48:13Z</time>
      </trkpt>
      <trkpt lat="41.1706110" lon="-8.6709450">
        <ele>34.6</ele>
        <time>2021-05-16T05:48:14Z</time>
      </trkpt>
      <trkpt lat="41.1706270" lon="-8.6709510">
        <ele>34.6</ele>
        <time>2021-05-16T05:48:15Z</time>
      </trkpt>
      <trkpt lat="41.1706410" lon="-8.6709670">
        <ele>34.5</ele>
        <time>2021-05-16T05:48:16Z</time>
      </trkpt>
      <trkpt lat="41.1706550" lon="-8.6709740">
        <ele>34.5</ele>
        <time>2021-05-16T05:48:17Z</time>
      </trkpt>
      <trkpt lat="41.1706720" lon="-8.6709810">
        <ele>34.5</ele>
        <time>2021-05-16T05:48:18Z</time>
      </trkpt>
      <trkpt lat="41.1706890" lon="-8.6709850">
        <ele>34.5</ele>
        <time>2021-05-16T05:48:19Z</time>
      </trkpt>
      <trkpt lat="41.1707050" lon="-8.6710020">
        <ele>34.5</ele>
        <time>2021-05-16T05:48:20Z</time>
      </trkpt>
      <trkpt lat="41.1707170" lon="-8.6710190">
        <ele>34.5</ele>
        <time>2021-05-16T05:48:21Z</time>
      </trkpt>
      <trkpt lat="41.1707480" lon="-8.6710450">
        <ele>34.5</ele>
        <time>2021-05-16T05:48:22Z</time>
      </trkpt>
      <trkpt lat="41.1707610" lon="-8.6710610">
        <ele>34.5</ele>
        <time>2021-05-16T05:48:23Z</time>
      </trkpt>
      <trkpt lat="41.1707760" lon="-8.6710700">
        <ele>34.5</ele>
        <time>2021-05-16T05:48:24Z</time>
      </trkpt>
      <trkpt lat="41.1707870" lon="-8.6710880">
        <ele>34.5</ele>
        <time>2021-05-16T05:48:25Z</time>
      </trkpt>
      <trkpt lat="41.1707970" lon="-8.6711010">
        <ele>34.5</ele>
        <time>2021-05-16T05:48:26Z</time>
      </trkpt>
      <trkpt lat="41.1708100" lon="-8.6711160">
        <ele>34.5</ele>
        <time>2021-05-16T05:48:27Z</time>
      </trkpt>
      <trkpt lat="41.1708220" lon="-8.6711280">
        <ele>34.5</ele>
        <time>2021-05-16T05:48:28Z</time>
      </trkpt>
      <trkpt lat="41.1708300" lon="-8.6711440">
        <ele>34.5</ele>
        <time>2021-05-16T05:48:29Z</time>
      </trkpt>
      <trkpt lat="41.1708370" lon="-8.6711640">
        <ele>34.5</ele>
        <time>2021-05-16T05:48:30Z</time>
      </trkpt>
      <trkpt lat="41.1708490" lon="-8.6711780">
        <ele>34.5</ele>
        <time>2021-05-16T05:48:31Z</time>
      </trkpt>
      <trkpt lat="41.1708620" lon="-8.6711930">
        <ele>34.5</ele>
        <time>2021-05-16T05:48:32Z</time>
      </trkpt>
      <trkpt lat="41.1708700" lon="-8.6712080">
        <ele>34.5</ele>
        <time>2021-05-16T05:48:33Z</time>
      </trkpt>
      <trkpt lat="41.1708760" lon="-8.6712280">
        <ele>34.5</ele>
        <time>2021-05-16T05:48:34Z</time>
      </trkpt>
      <trkpt lat="41.1708810" lon="-8.6712460">
        <ele>34.5</ele>
        <time>2021-05-16T05:48:35Z</time>
      </trkpt>
      <trkpt lat="41.1708880" lon="-8.6712590">
        <ele>34.5</ele>
        <time>2021-05-16T05:48:36Z</time>
      </trkpt>
      <trkpt lat="41.1709020" lon="-8.6712730">
        <ele>34.5</ele>
        <time>2021-05-16T05:48:37Z</time>
      </trkpt>
      <trkpt lat="41.1709090" lon="-8.6712910">
        <ele>34.5</ele>
        <time>2021-05-16T05:48:38Z</time>
      </trkpt>
      <trkpt lat="41.1709120" lon="-8.6713110">
        <ele>34.5</ele>
        <time>2021-05-16T05:48:39Z</time>
      </trkpt>
      <trkpt lat="41.1709140" lon="-8.6713310">
        <ele>34.5</ele>
        <time>2021-05-16T05:48:40Z</time>
      </trkpt>
      <trkpt lat="41.1709080" lon="-8.6713530">
        <ele>34.5</ele>
        <time>2021-05-16T05:48:41Z</time>
      </trkpt>
      <trkpt lat="41.1709050" lon="-8.6713730">
        <ele>34.5</ele>
        <time>2021-05-16T05:48:42Z</time>
      </trkpt>
      <trkpt lat="41.1709030" lon="-8.6713900">
        <ele>34.5</ele>
        <time>2021-05-16T05:48:43Z</time>
      </trkpt>
      <trkpt lat="41.1709030" lon="-8.6714190">
        <ele>34.5</ele>
        <time>2021-05-16T05:48:44Z</time>
      </trkpt>
      <trkpt lat="41.1709010" lon="-8.6714300">
        <ele>34.5</ele>
        <time>2021-05-16T05:48:45Z</time>
      </trkpt>
      <trkpt lat="41.1709000" lon="-8.6714410">
        <ele>34.5</ele>
        <time>2021-05-16T05:48:46Z</time>
      </trkpt>
      <trkpt lat="41.1708990" lon="-8.6714460">
        <ele>34.5</ele>
        <time>2021-05-16T05:48:47Z</time>
      </trkpt>
      <trkpt lat="41.1708960" lon="-8.6714390">
        <ele>34.5</ele>
        <time>2021-05-16T05:48:48Z</time>
      </trkpt>
      <trkpt lat="41.1708920" lon="-8.6714330">
        <ele>34.5</ele>
        <time>2021-05-16T05:48:49Z</time>
      </trkpt>
      <trkpt lat="41.1708890" lon="-8.6714270">
        <ele>34.5</ele>
        <time>2021-05-16T05:48:50Z</time>
      </trkpt>
      <trkpt lat="41.1708860" lon="-8.6714210">
        <ele>34.5</ele>
        <time>2021-05-16T05:48:51Z</time>
      </trkpt>
      <trkpt lat="41.1708830" lon="-8.6714140">
        <ele>34.5</ele>
        <time>2021-05-16T05:48:52Z</time>
      </trkpt>
      <trkpt lat="41.1708790" lon="-8.6714080">
        <ele>34.6</ele>
        <time>2021-05-16T05:48:53Z</time>
      </trkpt>
      <trkpt lat="41.1708760" lon="-8.6714020">
        <ele>34.6</ele>
        <time>2021-05-16T05:48:54Z</time>
      </trkpt>
      <trkpt lat="41.1708680" lon="-8.6713920">
        <ele>34.6</ele>
        <time>2021-05-16T05:48:55Z</time>
      </trkpt>
      <trkpt lat="41.1708560" lon="-8.6713910">
        <ele>34.6</ele>
        <time>2021-05-16T05:48:56Z</time>
      </trkpt>
      <trkpt lat="41.1708440" lon="-8.6713850">
        <ele>34.6</ele>
        <time>2021-05-16T05:48:57Z</time>
      </trkpt>
      <trkpt lat="41.1708360" lon="-8.6713870">
        <ele>34.6</ele>
        <time>2021-05-16T05:48:58Z</time>
      </trkpt>
      <trkpt lat="41.1708270" lon="-8.6713880">
        <ele>34.6</ele>
        <time>2021-05-16T05:48:59Z</time>
      </trkpt>
      <trkpt lat="41.1708200" lon="-8.6713910">
        <ele>34.6</ele>
        <time>2021-05-16T05:49:00Z</time>
      </trkpt>
      <trkpt lat="41.1708150" lon="-8.6713880">
        <ele>34.6</ele>
        <time>2021-05-16T05:49:01Z</time>
      </trkpt>
      <trkpt lat="41.1708080" lon="-8.6713860">
        <ele>34.6</ele>
        <time>2021-05-16T05:49:02Z</time>
      </trkpt>
      <trkpt lat="41.1708000" lon="-8.6713880">
        <ele>34.6</ele>
        <time>2021-05-16T05:49:03Z</time>
      </trkpt>
      <trkpt lat="41.1707940" lon="-8.6713840">
        <ele>34.6</ele>
        <time>2021-05-16T05:49:04Z</time>
      </trkpt>
      <trkpt lat="41.1707960" lon="-8.6713830">
        <ele>34.6</ele>
        <time>2021-05-16T05:49:05Z</time>
      </trkpt>
      <trkpt lat="41.1707980" lon="-8.6713820">
        <ele>34.6</ele>
        <time>2021-05-16T05:49:06Z</time>
      </trkpt>
      <trkpt lat="41.1707920" lon="-8.6713850">
        <ele>34.6</ele>
        <time>2021-05-16T05:49:07Z</time>
      </trkpt>
      <trkpt lat="41.1707860" lon="-8.6713830">
        <ele>34.6</ele>
        <time>2021-05-16T05:49:08Z</time>
      </trkpt>
      <trkpt lat="41.1707860" lon="-8.6713830">
        <ele>34.6</ele>
        <time>2021-05-16T05:49:09Z</time>
      </trkpt>
      <trkpt lat="41.1707880" lon="-8.6713790">
        <ele>34.6</ele>
        <time>2021-05-16T05:49:10Z</time>
      </trkpt>
      <trkpt lat="41.1707980" lon="-8.6713740">
        <ele>34.6</ele>
        <time>2021-05-16T05:49:11Z</time>
      </trkpt>
      <trkpt lat="41.1708040" lon="-8.6713650">
        <ele>34.6</ele>
        <time>2021-05-16T05:49:12Z</time>
      </trkpt>
      <trkpt lat="41.1708050" lon="-8.6713590">
        <ele>34.6</ele>
        <time>2021-05-16T05:49:13Z</time>
      </trkpt>
      <trkpt lat="41.1708060" lon="-8.6713430">
        <ele>34.6</ele>
        <time>2021-05-16T05:49:14Z</time>
      </trkpt>
      <trkpt lat="41.1708050" lon="-8.6713280">
        <ele>34.6</ele>
        <time>2021-05-16T05:49:15Z</time>
      </trkpt>
      <trkpt lat="41.1708050" lon="-8.6713200">
        <ele>34.6</ele>
        <time>2021-05-16T05:49:16Z</time>
      </trkpt>
      <trkpt lat="41.1708070" lon="-8.6713160">
        <ele>34.6</ele>
        <time>2021-05-16T05:49:17Z</time>
      </trkpt>
      <trkpt lat="41.1708080" lon="-8.6713100">
        <ele>34.6</ele>
        <time>2021-05-16T05:49:18Z</time>
      </trkpt>
      <trkpt lat="41.1708070" lon="-8.6713050">
        <ele>34.6</ele>
        <time>2021-05-16T05:49:19Z</time>
      </trkpt>
      <trkpt lat="41.1708080" lon="-8.6712970">
        <ele>34.6</ele>
        <time>2021-05-16T05:49:20Z</time>
      </trkpt>
      <trkpt lat="41.1708080" lon="-8.6712920">
        <ele>34.6</ele>
        <time>2021-05-16T05:49:21Z</time>
      </trkpt>
      <trkpt lat="41.1708090" lon="-8.6712810">
        <ele>34.6</ele>
        <time>2021-05-16T05:49:22Z</time>
      </trkpt>
      <trkpt lat="41.1708110" lon="-8.6712770">
        <ele>34.6</ele>
        <time>2021-05-16T05:49:23Z</time>
      </trkpt>
      <trkpt lat="41.1708130" lon="-8.6712740">
        <ele>34.6</ele>
        <time>2021-05-16T05:49:24Z</time>
      </trkpt>
      <trkpt lat="41.1708120" lon="-8.6712670">
        <ele>34.6</ele>
        <time>2021-05-16T05:49:25Z</time>
      </trkpt>
      <trkpt lat="41.1708120" lon="-8.6712690">
        <ele>34.6</ele>
        <time>2021-05-16T05:49:26Z</time>
      </trkpt>
      <trkpt lat="41.1708110" lon="-8.6712690">
        <ele>34.6</ele>
        <time>2021-05-16T05:49:27Z</time>
      </trkpt>
      <trkpt lat="41.1708150" lon="-8.6712760">
        <ele>34.6</ele>
        <time>2021-05-16T05:49:28Z</time>
      </trkpt>
      <trkpt lat="41.1708150" lon="-8.6712890">
        <ele>34.6</ele>
        <time>2021-05-16T05:49:29Z</time>
      </trkpt>
      <trkpt lat="41.1708140" lon="-8.6712980">
        <ele>34.6</ele>
        <time>2021-05-16T05:49:30Z</time>
      </trkpt>
      <trkpt lat="41.1708140" lon="-8.6712950">
        <ele>34.6</ele>
        <time>2021-05-16T05:49:31Z</time>
      </trkpt>
      <trkpt lat="41.1708160" lon="-8.6712860">
        <ele>34.6</ele>
        <time>2021-05-16T05:49:32Z</time>
      </trkpt>
      <trkpt lat="41.1708170" lon="-8.6712810">
        <ele>34.6</ele>
        <time>2021-05-16T05:49:33Z</time>
      </trkpt>
      <trkpt lat="41.1708140" lon="-8.6712770">
        <ele>34.6</ele>
        <time>2021-05-16T05:49:34Z</time>
      </trkpt>
      <trkpt lat="41.1708130" lon="-8.6712770">
        <ele>34.6</ele>
        <time>2021-05-16T05:49:35Z</time>
      </trkpt>
      <trkpt lat="41.1708120" lon="-8.6712730">
        <ele>34.6</ele>
        <time>2021-05-16T05:49:36Z</time>
      </trkpt>
      <trkpt lat="41.1708120" lon="-8.6712730">
        <ele>34.6</ele>
        <time>2021-05-16T05:49:37Z</time>
      </trkpt>
      <trkpt lat="41.1708120" lon="-8.6712740">
        <ele>34.6</ele>
        <time>2021-05-16T05:49:38Z</time>
      </trkpt>
      <trkpt lat="41.1708110" lon="-8.6712760">
        <ele>34.6</ele>
        <time>2021-05-16T05:49:39Z</time>
      </trkpt>
      <trkpt lat="41.1708120" lon="-8.6712740">
        <ele>34.6</ele>
        <time>2021-05-16T05:49:40Z</time>
      </trkpt>
      <trkpt lat="41.1708110" lon="-8.6712780">
        <ele>34.6</ele>
        <time>2021-05-16T05:49:41Z</time>
      </trkpt>
      <trkpt lat="41.1708120" lon="-8.6712830">
        <ele>34.6</ele>
        <time>2021-05-16T05:49:42Z</time>
      </trkpt>
      <trkpt lat="41.1708120" lon="-8.6712830">
        <ele>34.6</ele>
        <time>2021-05-16T05:49:43Z</time>
      </trkpt>
      <trkpt lat="41.1708130" lon="-8.6712880">
        <ele>34.6</ele>
        <time>2021-05-16T05:49:44Z</time>
      </trkpt>
      <trkpt lat="41.1708120" lon="-8.6712910">
        <ele>34.6</ele>
        <time>2021-05-16T05:49:45Z</time>
      </trkpt>
      <trkpt lat="41.1708120" lon="-8.6712900">
        <ele>34.6</ele>
        <time>2021-05-16T05:49:46Z</time>
      </trkpt>
      <trkpt lat="41.1708120" lon="-8.6712940">
        <ele>34.6</ele>
        <time>2021-05-16T05:49:47Z</time>
      </trkpt>
      <trkpt lat="41.1708120" lon="-8.6712920">
        <ele>34.6</ele>
        <time>2021-05-16T05:49:48Z</time>
      </trkpt>
      <trkpt lat="41.1708120" lon="-8.6712930">
        <ele>34.6</ele>
        <time>2021-05-16T05:49:49Z</time>
      </trkpt>
      <trkpt lat="41.1708110" lon="-8.6712950">
        <ele>34.6</ele>
        <time>2021-05-16T05:49:50Z</time>
      </trkpt>
      <trkpt lat="41.1708100" lon="-8.6713060">
        <ele>34.6</ele>
        <time>2021-05-16T05:49:51Z</time>
      </trkpt>
      <trkpt lat="41.1708120" lon="-8.6713110">
        <ele>34.6</ele>
        <time>2021-05-16T05:49:52Z</time>
      </trkpt>
      <trkpt lat="41.1708120" lon="-8.6713120">
        <ele>34.6</ele>
        <time>2021-05-16T05:49:53Z</time>
      </trkpt>
      <trkpt lat="41.1708120" lon="-8.6713130">
        <ele>34.6</ele>
        <time>2021-05-16T05:49:54Z</time>
      </trkpt>
      <trkpt lat="41.1708120" lon="-8.6713170">
        <ele>34.6</ele>
        <time>2021-05-16T05:49:55Z</time>
      </trkpt>
      <trkpt lat="41.1708120" lon="-8.6713180">
        <ele>34.6</ele>
        <time>2021-05-16T05:49:56Z</time>
      </trkpt>
      <trkpt lat="41.1708080" lon="-8.6713230">
        <ele>34.6</ele>
        <time>2021-05-16T05:49:58Z</time>
      </trkpt>
      <trkpt lat="41.1708070" lon="-8.6713260">
        <ele>34.6</ele>
        <time>2021-05-16T05:49:59Z</time>
      </trkpt>
      <trkpt lat="41.1708040" lon="-8.6713280">
        <ele>34.6</ele>
        <time>2021-05-16T05:50:00Z</time>
      </trkpt>
      <trkpt lat="41.1708020" lon="-8.6713320">
        <ele>34.6</ele>
        <time>2021-05-16T05:50:01Z</time>
      </trkpt>
      <trkpt lat="41.1708000" lon="-8.6713360">
        <ele>34.6</ele>
        <time>2021-05-16T05:50:02Z</time>
      </trkpt>
      <trkpt lat="41.1707960" lon="-8.6713360">
        <ele>34.6</ele>
        <time>2021-05-16T05:50:03Z</time>
      </trkpt>
      <trkpt lat="41.1707970" lon="-8.6713370">
        <ele>34.6</ele>
        <time>2021-05-16T05:50:04Z</time>
      </trkpt>
      <trkpt lat="41.1707980" lon="-8.6713350">
        <ele>34.6</ele>
        <time>2021-05-16T05:50:05Z</time>
      </trkpt>
      <trkpt lat="41.1707980" lon="-8.6713340">
        <ele>34.6</ele>
        <time>2021-05-16T05:50:06Z</time>
      </trkpt>
      <trkpt lat="41.1707990" lon="-8.6713330">
        <ele>34.6</ele>
        <time>2021-05-16T05:50:07Z</time>
      </trkpt>
      <trkpt lat="41.1708000" lon="-8.6713300">
        <ele>34.6</ele>
        <time>2021-05-16T05:50:08Z</time>
      </trkpt>
      <trkpt lat="41.1707990" lon="-8.6713270">
        <ele>34.6</ele>
        <time>2021-05-16T05:50:09Z</time>
      </trkpt>
      <trkpt lat="41.1707980" lon="-8.6713240">
        <ele>34.6</ele>
        <time>2021-05-16T05:50:10Z</time>
      </trkpt>
      <trkpt lat="41.1707940" lon="-8.6713230">
        <ele>34.6</ele>
        <time>2021-05-16T05:50:11Z</time>
      </trkpt>
      <trkpt lat="41.1707900" lon="-8.6713270">
        <ele>34.6</ele>
        <time>2021-05-16T05:50:12Z</time>
      </trkpt>
      <trkpt lat="41.1707880" lon="-8.6713260">
        <ele>34.6</ele>
        <time>2021-05-16T05:50:13Z</time>
      </trkpt>
      <trkpt lat="41.1707900" lon="-8.6713220">
        <ele>34.6</ele>
        <time>2021-05-16T05:50:14Z</time>
      </trkpt>
      <trkpt lat="41.1707920" lon="-8.6713210">
        <ele>34.6</ele>
        <time>2021-05-16T05:50:15Z</time>
      </trkpt>
      <trkpt lat="41.1707890" lon="-8.6713250">
        <ele>34.6</ele>
        <time>2021-05-16T05:50:16Z</time>
      </trkpt>
      <trkpt lat="41.1707870" lon="-8.6713290">
        <ele>34.6</ele>
        <time>2021-05-16T05:50:17Z</time>
      </trkpt>
      <trkpt lat="41.1707870" lon="-8.6713310">
        <ele>34.6</ele>
        <time>2021-05-16T05:50:18Z</time>
      </trkpt>
      <trkpt lat="41.1707860" lon="-8.6713310">
        <ele>34.6</ele>
        <time>2021-05-16T05:50:19Z</time>
      </trkpt>
      <trkpt lat="41.1707850" lon="-8.6713360">
        <ele>34.6</ele>
        <time>2021-05-16T05:50:20Z</time>
      </trkpt>
      <trkpt lat="41.1707830" lon="-8.6713370">
        <ele>34.6</ele>
        <time>2021-05-16T05:50:21Z</time>
      </trkpt>
      <trkpt lat="41.1707810" lon="-8.6713410">
        <ele>34.6</ele>
        <time>2021-05-16T05:50:22Z</time>
      </trkpt>
      <trkpt lat="41.1707820" lon="-8.6713420">
        <ele>34.6</ele>
        <time>2021-05-16T05:50:23Z</time>
      </trkpt>
      <trkpt lat="41.1707810" lon="-8.6713410">
        <ele>34.6</ele>
        <time>2021-05-16T05:50:24Z</time>
      </trkpt>
      <trkpt lat="41.1707780" lon="-8.6713380">
        <ele>34.6</ele>
        <time>2021-05-16T05:50:25Z</time>
      </trkpt>
      <trkpt lat="41.1707760" lon="-8.6713350">
        <ele>34.6</ele>
        <time>2021-05-16T05:50:26Z</time>
      </trkpt>
      <trkpt lat="41.1707720" lon="-8.6713350">
        <ele>34.6</ele>
        <time>2021-05-16T05:50:27Z</time>
      </trkpt>
      <trkpt lat="41.1707720" lon="-8.6713330">
        <ele>34.6</ele>
        <time>2021-05-16T05:50:28Z</time>
      </trkpt>
      <trkpt lat="41.1707700" lon="-8.6713320">
        <ele>34.6</ele>
        <time>2021-05-16T05:50:29Z</time>
      </trkpt>
      <trkpt lat="41.1707690" lon="-8.6713320">
        <ele>34.6</ele>
        <time>2021-05-16T05:50:30Z</time>
      </trkpt>
      <trkpt lat="41.1707700" lon="-8.6713350">
        <ele>34.6</ele>
        <time>2021-05-16T05:50:31Z</time>
      </trkpt>
      <trkpt lat="41.1707740" lon="-8.6713320">
        <ele>34.6</ele>
        <time>2021-05-16T05:50:32Z</time>
      </trkpt>
      <trkpt lat="41.1707770" lon="-8.6713280">
        <ele>34.6</ele>
        <time>2021-05-16T05:50:33Z</time>
      </trkpt>
      <trkpt lat="41.1707770" lon="-8.6713290">
        <ele>34.6</ele>
        <time>2021-05-16T05:50:34Z</time>
      </trkpt>
      <trkpt lat="41.1707750" lon="-8.6713310">
        <ele>34.6</ele>
        <time>2021-05-16T05:50:35Z</time>
      </trkpt>
      <trkpt lat="41.1707800" lon="-8.6713290">
        <ele>34.6</ele>
        <time>2021-05-16T05:50:36Z</time>
      </trkpt>
      <trkpt lat="41.1707880" lon="-8.6713230">
        <ele>34.6</ele>
        <time>2021-05-16T05:50:37Z</time>
      </trkpt>
      <trkpt lat="41.1707970" lon="-8.6713210">
        <ele>34.6</ele>
        <time>2021-05-16T05:50:38Z</time>
      </trkpt>
      <trkpt lat="41.1707990" lon="-8.6713150">
        <ele>34.6</ele>
        <time>2021-05-16T05:50:39Z</time>
      </trkpt>
      <trkpt lat="41.1708020" lon="-8.6713070">
        <ele>34.6</ele>
        <time>2021-05-16T05:50:40Z</time>
      </trkpt>
      <trkpt lat="41.1708030" lon="-8.6713020">
        <ele>34.6</ele>
        <time>2021-05-16T05:50:41Z</time>
      </trkpt>
      <trkpt lat="41.1708030" lon="-8.6712920">
        <ele>34.6</ele>
        <time>2021-05-16T05:50:42Z</time>
      </trkpt>
      <trkpt lat="41.1708030" lon="-8.6712810">
        <ele>34.6</ele>
        <time>2021-05-16T05:50:43Z</time>
      </trkpt>
      <trkpt lat="41.1708030" lon="-8.6712720">
        <ele>34.6</ele>
        <time>2021-05-16T05:50:44Z</time>
      </trkpt>
      <trkpt lat="41.1708030" lon="-8.6712690">
        <ele>34.6</ele>
        <time>2021-05-16T05:50:45Z</time>
      </trkpt>
      <trkpt lat="41.1708030" lon="-8.6712690">
        <ele>34.6</ele>
        <time>2021-05-16T05:50:46Z</time>
      </trkpt>
      <trkpt lat="41.1708000" lon="-8.6712710">
        <ele>34.6</ele>
        <time>2021-05-16T05:50:47Z</time>
      </trkpt>
      <trkpt lat="41.1707940" lon="-8.6712760">
        <ele>34.6</ele>
        <time>2021-05-16T05:50:48Z</time>
      </trkpt>
      <trkpt lat="41.1707940" lon="-8.6712750">
        <ele>34.6</ele>
        <time>2021-05-16T05:50:49Z</time>
      </trkpt>
      <trkpt lat="41.1707930" lon="-8.6712750">
        <ele>34.6</ele>
        <time>2021-05-16T05:50:50Z</time>
      </trkpt>
      <trkpt lat="41.1707930" lon="-8.6712810">
        <ele>34.6</ele>
        <time>2021-05-16T05:50:51Z</time>
      </trkpt>
      <trkpt lat="41.1707930" lon="-8.6712830">
        <ele>34.6</ele>
        <time>2021-05-16T05:50:52Z</time>
      </trkpt>
      <trkpt lat="41.1707960" lon="-8.6712840">
        <ele>34.6</ele>
        <time>2021-05-16T05:50:53Z</time>
      </trkpt>
      <trkpt lat="41.1707960" lon="-8.6712900">
        <ele>34.6</ele>
        <time>2021-05-16T05:50:54Z</time>
      </trkpt>
      <trkpt lat="41.1707980" lon="-8.6712900">
        <ele>34.6</ele>
        <time>2021-05-16T05:50:55Z</time>
      </trkpt>
      <trkpt lat="41.1708020" lon="-8.6712930">
        <ele>34.6</ele>
        <time>2021-05-16T05:50:56Z</time>
      </trkpt>
      <trkpt lat="41.1708030" lon="-8.6712880">
        <ele>34.6</ele>
        <time>2021-05-16T05:50:57Z</time>
      </trkpt>
      <trkpt lat="41.1708020" lon="-8.6712930">
        <ele>34.6</ele>
        <time>2021-05-16T05:50:58Z</time>
      </trkpt>
      <trkpt lat="41.1708000" lon="-8.6712940">
        <ele>34.6</ele>
        <time>2021-05-16T05:50:59Z</time>
      </trkpt>
      <trkpt lat="41.1708010" lon="-8.6712890">
        <ele>34.6</ele>
        <time>2021-05-16T05:51:00Z</time>
      </trkpt>
      <trkpt lat="41.1708020" lon="-8.6712850">
        <ele>34.6</ele>
        <time>2021-05-16T05:51:01Z</time>
      </trkpt>
      <trkpt lat="41.1708030" lon="-8.6712830">
        <ele>34.6</ele>
        <time>2021-05-16T05:51:02Z</time>
      </trkpt>
      <trkpt lat="41.1708050" lon="-8.6712790">
        <ele>34.6</ele>
        <time>2021-05-16T05:51:03Z</time>
      </trkpt>
      <trkpt lat="41.1708070" lon="-8.6712760">
        <ele>34.6</ele>
        <time>2021-05-16T05:51:04Z</time>
      </trkpt>
      <trkpt lat="41.1708080" lon="-8.6712750">
        <ele>34.6</ele>
        <time>2021-05-16T05:51:05Z</time>
      </trkpt>
      <trkpt lat="41.1708080" lon="-8.6712740">
        <ele>34.6</ele>
        <time>2021-05-16T05:51:06Z</time>
      </trkpt>
      <trkpt lat="41.1708090" lon="-8.6712700">
        <ele>34.6</ele>
        <time>2021-05-16T05:51:07Z</time>
      </trkpt>
      <trkpt lat="41.1708110" lon="-8.6712660">
        <ele>34.6</ele>
        <time>2021-05-16T05:51:08Z</time>
      </trkpt>
      <trkpt lat="41.1708150" lon="-8.6712630">
        <ele>34.6</ele>
        <time>2021-05-16T05:51:09Z</time>
      </trkpt>
      <trkpt lat="41.1708210" lon="-8.6712640">
        <ele>34.6</ele>
        <time>2021-05-16T05:51:10Z</time>
      </trkpt>
      <trkpt lat="41.1708250" lon="-8.6712690">
        <ele>34.6</ele>
        <time>2021-05-16T05:51:11Z</time>
      </trkpt>
      <trkpt lat="41.1708250" lon="-8.6712710">
        <ele>34.6</ele>
        <time>2021-05-16T05:51:12Z</time>
      </trkpt>
      <trkpt lat="41.1708240" lon="-8.6712740">
        <ele>34.6</ele>
        <time>2021-05-16T05:51:13Z</time>
      </trkpt>
      <trkpt lat="41.1708250" lon="-8.6712780">
        <ele>34.6</ele>
        <time>2021-05-16T05:51:14Z</time>
      </trkpt>
      <trkpt lat="41.1708300" lon="-8.6712860">
        <ele>34.6</ele>
        <time>2021-05-16T05:51:15Z</time>
      </trkpt>
      <trkpt lat="41.1708310" lon="-8.6712900">
        <ele>34.6</ele>
        <time>2021-05-16T05:51:16Z</time>
      </trkpt>
      <trkpt lat="41.1708350" lon="-8.6712890">
        <ele>34.6</ele>
        <time>2021-05-16T05:51:17Z</time>
      </trkpt>
      <trkpt lat="41.1708420" lon="-8.6712960">
        <ele>34.6</ele>
        <time>2021-05-16T05:51:18Z</time>
      </trkpt>
      <trkpt lat="41.1708470" lon="-8.6713000">
        <ele>34.6</ele>
        <time>2021-05-16T05:51:19Z</time>
      </trkpt>
      <trkpt lat="41.1708490" lon="-8.6712990">
        <ele>34.6</ele>
        <time>2021-05-16T05:51:20Z</time>
      </trkpt>
      <trkpt lat="41.1708500" lon="-8.6712990">
        <ele>34.6</ele>
        <time>2021-05-16T05:51:21Z</time>
      </trkpt>
      <trkpt lat="41.1708520" lon="-8.6712980">
        <ele>34.6</ele>
        <time>2021-05-16T05:51:22Z</time>
      </trkpt>
      <trkpt lat="41.1708530" lon="-8.6712970">
        <ele>34.6</ele>
        <time>2021-05-16T05:51:23Z</time>
      </trkpt>
      <trkpt lat="41.1708550" lon="-8.6712960">
        <ele>34.6</ele>
        <time>2021-05-16T05:51:24Z</time>
      </trkpt>
      <trkpt lat="41.1708560" lon="-8.6712950">
        <ele>34.7</ele>
        <time>2021-05-16T05:51:25Z</time>
      </trkpt>
      <trkpt lat="41.1708580" lon="-8.6712940">
        <ele>34.7</ele>
        <time>2021-05-16T05:51:26Z</time>
      </trkpt>
      <trkpt lat="41.1708590" lon="-8.6712940">
        <ele>34.7</ele>
        <time>2021-05-16T05:51:27Z</time>
      </trkpt>
      <trkpt lat="41.1708610" lon="-8.6712930">
        <ele>34.7</ele>
        <time>2021-05-16T05:51:28Z</time>
      </trkpt>
      <trkpt lat="41.1708620" lon="-8.6712920">
        <ele>34.7</ele>
        <time>2021-05-16T05:51:29Z</time>
      </trkpt>
      <trkpt lat="41.1708640" lon="-8.6712910">
        <ele>34.7</ele>
        <time>2021-05-16T05:51:30Z</time>
      </trkpt>
      <trkpt lat="41.1708650" lon="-8.6712900">
        <ele>34.7</ele>
        <time>2021-05-16T05:51:31Z</time>
      </trkpt>
      <trkpt lat="41.1708670" lon="-8.6712890">
        <ele>34.7</ele>
        <time>2021-05-16T05:51:32Z</time>
      </trkpt>
      <trkpt lat="41.1708680" lon="-8.6712890">
        <ele>34.7</ele>
        <time>2021-05-16T05:51:33Z</time>
      </trkpt>
      <trkpt lat="41.1708700" lon="-8.6712880">
        <ele>34.7</ele>
        <time>2021-05-16T05:51:34Z</time>
      </trkpt>
      <trkpt lat="41.1708710" lon="-8.6712870">
        <ele>34.7</ele>
        <time>2021-05-16T05:51:35Z</time>
      </trkpt>
      <trkpt lat="41.1708730" lon="-8.6712860">
        <ele>34.7</ele>
        <time>2021-05-16T05:51:36Z</time>
      </trkpt>
      <trkpt lat="41.1708740" lon="-8.6712850">
        <ele>34.7</ele>
        <time>2021-05-16T05:51:38Z</time>
      </trkpt>
      <trkpt lat="41.1708760" lon="-8.6712840">
        <ele>34.7</ele>
        <time>2021-05-16T05:51:39Z</time>
      </trkpt>
      <trkpt lat="41.1708770" lon="-8.6712840">
        <ele>34.7</ele>
        <time>2021-05-16T05:51:40Z</time>
      </trkpt>
      <trkpt lat="41.1708790" lon="-8.6712830">
        <ele>34.7</ele>
        <time>2021-05-16T05:51:41Z</time>
      </trkpt>
      <trkpt lat="41.1708800" lon="-8.6712820">
        <ele>34.7</ele>
        <time>2021-05-16T05:51:42Z</time>
      </trkpt>
      <trkpt lat="41.1708870" lon="-8.6712910">
        <ele>34.7</ele>
        <time>2021-05-16T05:51:43Z</time>
      </trkpt>
      <trkpt lat="41.1708910" lon="-8.6712940">
        <ele>34.7</ele>
        <time>2021-05-16T05:51:44Z</time>
      </trkpt>
      <trkpt lat="41.1709010" lon="-8.6713080">
        <ele>34.7</ele>
        <time>2021-05-16T05:51:45Z</time>
      </trkpt>
      <trkpt lat="41.1709300" lon="-8.6713390">
        <ele>34.7</ele>
        <time>2021-05-16T05:51:46Z</time>
      </trkpt>
      <trkpt lat="41.1709380" lon="-8.6713520">
        <ele>34.7</ele>
        <time>2021-05-16T05:51:47Z</time>
      </trkpt>
      <trkpt lat="41.1709540" lon="-8.6713850">
        <ele>34.7</ele>
        <time>2021-05-16T05:51:48Z</time>
      </trkpt>
      <trkpt lat="41.1709580" lon="-8.6713970">
        <ele>34.7</ele>
        <time>2021-05-16T05:51:49Z</time>
      </trkpt>
      <trkpt lat="41.1709650" lon="-8.6714140">
        <ele>34.7</ele>
        <time>2021-05-16T05:51:50Z</time>
      </trkpt>
      <trkpt lat="41.1709780" lon="-8.6714340">
        <ele>34.7</ele>
        <time>2021-05-16T05:51:51Z</time>
      </trkpt>
      <trkpt lat="41.1709790" lon="-8.6714470">
        <ele>34.7</ele>
        <time>2021-05-16T05:51:52Z</time>
      </trkpt>
      <trkpt lat="41.1709910" lon="-8.6714680">
        <ele>34.7</ele>
        <time>2021-05-16T05:51:53Z</time>
      </trkpt>
      <trkpt lat="41.1710080" lon="-8.6714970">
        <ele>34.8</ele>
        <time>2021-05-16T05:51:54Z</time>
      </trkpt>
      <trkpt lat="41.1710140" lon="-8.6715080">
        <ele>34.8</ele>
        <time>2021-05-16T05:51:55Z</time>
      </trkpt>
      <trkpt lat="41.1710260" lon="-8.6715210">
        <ele>34.8</ele>
        <time>2021-05-16T05:51:56Z</time>
      </trkpt>
      <trkpt lat="41.1710290" lon="-8.6715380">
        <ele>34.8</ele>
        <time>2021-05-16T05:51:57Z</time>
      </trkpt>
      <trkpt lat="41.1710410" lon="-8.6715540">
        <ele>34.9</ele>
        <time>2021-05-16T05:51:58Z</time>
      </trkpt>
      <trkpt lat="41.1710500" lon="-8.6715710">
        <ele>34.9</ele>
        <time>2021-05-16T05:51:59Z</time>
      </trkpt>
      <trkpt lat="41.1710590" lon="-8.6716080">
        <ele>35.0</ele>
        <time>2021-05-16T05:52:00Z</time>
      </trkpt>
      <trkpt lat="41.1710640" lon="-8.6716180">
        <ele>35.0</ele>
        <time>2021-05-16T05:52:01Z</time>
      </trkpt>
      <trkpt lat="41.1710760" lon="-8.6716380">
        <ele>35.0</ele>
        <time>2021-05-16T05:52:02Z</time>
      </trkpt>
      <trkpt lat="41.1710910" lon="-8.6716480">
        <ele>35.1</ele>
        <time>2021-05-16T05:52:03Z</time>
      </trkpt>
      <trkpt lat="41.1711070" lon="-8.6716630">
        <ele>35.1</ele>
        <time>2021-05-16T05:52:04Z</time>
      </trkpt>
      <trkpt lat="41.1711190" lon="-8.6716790">
        <ele>35.2</ele>
        <time>2021-05-16T05:52:05Z</time>
      </trkpt>
      <trkpt lat="41.1711310" lon="-8.6716920">
        <ele>35.2</ele>
        <time>2021-05-16T05:52:06Z</time>
      </trkpt>
      <trkpt lat="41.1711440" lon="-8.6717050">
        <ele>35.3</ele>
        <time>2021-05-16T05:52:07Z</time>
      </trkpt>
      <trkpt lat="41.1711680" lon="-8.6717250">
        <ele>35.3</ele>
        <time>2021-05-16T05:52:08Z</time>
      </trkpt>
      <trkpt lat="41.1711730" lon="-8.6717370">
        <ele>35.4</ele>
        <time>2021-05-16T05:52:09Z</time>
      </trkpt>
      <trkpt lat="41.1711860" lon="-8.6717480">
        <ele>35.4</ele>
        <time>2021-05-16T05:52:10Z</time>
      </trkpt>
      <trkpt lat="41.1711950" lon="-8.6717700">
        <ele>35.5</ele>
        <time>2021-05-16T05:52:11Z</time>
      </trkpt>
      <trkpt lat="41.1712110" lon="-8.6717810">
        <ele>35.5</ele>
        <time>2021-05-16T05:52:12Z</time>
      </trkpt>
      <trkpt lat="41.1712210" lon="-8.6717960">
        <ele>35.6</ele>
        <time>2021-05-16T05:52:13Z</time>
      </trkpt>
      <trkpt lat="41.1712410" lon="-8.6718040">
        <ele>35.6</ele>
        <time>2021-05-16T05:52:14Z</time>
      </trkpt>
      <trkpt lat="41.1712510" lon="-8.6718230">
        <ele>35.7</ele>
        <time>2021-05-16T05:52:15Z</time>
      </trkpt>
      <trkpt lat="41.1712620" lon="-8.6718310">
        <ele>35.7</ele>
        <time>2021-05-16T05:52:16Z</time>
      </trkpt>
      <trkpt lat="41.1712700" lon="-8.6718500">
        <ele>35.8</ele>
        <time>2021-05-16T05:52:17Z</time>
      </trkpt>
      <trkpt lat="41.1712800" lon="-8.6718690">
        <ele>35.8</ele>
        <time>2021-05-16T05:52:18Z</time>
      </trkpt>
      <trkpt lat="41.1712890" lon="-8.6718840">
        <ele>35.9</ele>
        <time>2021-05-16T05:52:19Z</time>
      </trkpt>
      <trkpt lat="41.1712970" lon="-8.6718960">
        <ele>36.0</ele>
        <time>2021-05-16T05:52:20Z</time>
      </trkpt>
      <trkpt lat="41.1713090" lon="-8.6719090">
        <ele>36.0</ele>
        <time>2021-05-16T05:52:21Z</time>
      </trkpt>
      <trkpt lat="41.1713140" lon="-8.6719260">
        <ele>36.1</ele>
        <time>2021-05-16T05:52:22Z</time>
      </trkpt>
      <trkpt lat="41.1713220" lon="-8.6719420">
        <ele>36.1</ele>
        <time>2021-05-16T05:52:23Z</time>
      </trkpt>
      <trkpt lat="41.1713320" lon="-8.6719560">
        <ele>36.2</ele>
        <time>2021-05-16T05:52:24Z</time>
      </trkpt>
      <trkpt lat="41.1713350" lon="-8.6719760">
        <ele>36.3</ele>
        <time>2021-05-16T05:52:25Z</time>
      </trkpt>
      <trkpt lat="41.1713530" lon="-8.6719940">
        <ele>36.4</ele>
        <time>2021-05-16T05:52:26Z</time>
      </trkpt>
      <trkpt lat="41.1713590" lon="-8.6720010">
        <ele>36.4</ele>
        <time>2021-05-16T05:52:27Z</time>
      </trkpt>
      <trkpt lat="41.1713650" lon="-8.6720090">
        <ele>36.4</ele>
        <time>2021-05-16T05:52:28Z</time>
      </trkpt>
      <trkpt lat="41.1713760" lon="-8.6720170">
        <ele>36.5</ele>
        <time>2021-05-16T05:52:29Z</time>
      </trkpt>
      <trkpt lat="41.1713880" lon="-8.6720300">
        <ele>36.6</ele>
        <time>2021-05-16T05:52:30Z</time>
      </trkpt>
      <trkpt lat="41.1713990" lon="-8.6720430">
        <ele>36.6</ele>
        <time>2021-05-16T05:52:31Z</time>
      </trkpt>
      <trkpt lat="41.1714070" lon="-8.6720610">
        <ele>36.7</ele>
        <time>2021-05-16T05:52:32Z</time>
      </trkpt>
      <trkpt lat="41.1714190" lon="-8.6720900">
        <ele>36.8</ele>
        <time>2021-05-16T05:52:33Z</time>
      </trkpt>
      <trkpt lat="41.1714250" lon="-8.6721090">
        <ele>36.9</ele>
        <time>2021-05-16T05:52:34Z</time>
      </trkpt>
      <trkpt lat="41.1714340" lon="-8.6721210">
        <ele>36.9</ele>
        <time>2021-05-16T05:52:35Z</time>
      </trkpt>
      <trkpt lat="41.1714430" lon="-8.6721460">
        <ele>37.0</ele>
        <time>2021-05-16T05:52:36Z</time>
      </trkpt>
      <trkpt lat="41.1714560" lon="-8.6721610">
        <ele>37.1</ele>
        <time>2021-05-16T05:52:37Z</time>
      </trkpt>
      <trkpt lat="41.1714680" lon="-8.6721700">
        <ele>37.2</ele>
        <time>2021-05-16T05:52:38Z</time>
      </trkpt>
      <trkpt lat="41.1714740" lon="-8.6721830">
        <ele>37.2</ele>
        <time>2021-05-16T05:52:39Z</time>
      </trkpt>
      <trkpt lat="41.1714850" lon="-8.6722010">
        <ele>37.3</ele>
        <time>2021-05-16T05:52:40Z</time>
      </trkpt>
      <trkpt lat="41.1714850" lon="-8.6722150">
        <ele>37.4</ele>
        <time>2021-05-16T05:52:41Z</time>
      </trkpt>
      <trkpt lat="41.1714940" lon="-8.6722330">
        <ele>37.4</ele>
        <time>2021-05-16T05:52:42Z</time>
      </trkpt>
      <trkpt lat="41.1714920" lon="-8.6722450">
        <ele>37.5</ele>
        <time>2021-05-16T05:52:43Z</time>
      </trkpt>
      <trkpt lat="41.1714970" lon="-8.6722610">
        <ele>37.5</ele>
        <time>2021-05-16T05:52:44Z</time>
      </trkpt>
      <trkpt lat="41.1715010" lon="-8.6722790">
        <ele>37.6</ele>
        <time>2021-05-16T05:52:45Z</time>
      </trkpt>
      <trkpt lat="41.1715150" lon="-8.6723030">
        <ele>37.7</ele>
        <time>2021-05-16T05:52:46Z</time>
      </trkpt>
      <trkpt lat="41.1715180" lon="-8.6723170">
        <ele>37.8</ele>
        <time>2021-05-16T05:52:47Z</time>
      </trkpt>
      <trkpt lat="41.1715220" lon="-8.6723310">
        <ele>37.8</ele>
        <time>2021-05-16T05:52:48Z</time>
      </trkpt>
      <trkpt lat="41.1715240" lon="-8.6723430">
        <ele>37.9</ele>
        <time>2021-05-16T05:52:49Z</time>
      </trkpt>
      <trkpt lat="41.1715230" lon="-8.6723600">
        <ele>37.9</ele>
        <time>2021-05-16T05:52:50Z</time>
      </trkpt>
      <trkpt lat="41.1715320" lon="-8.6723730">
        <ele>38.0</ele>
        <time>2021-05-16T05:52:51Z</time>
      </trkpt>
      <trkpt lat="41.1715440" lon="-8.6723930">
        <ele>38.1</ele>
        <time>2021-05-16T05:52:52Z</time>
      </trkpt>
      <trkpt lat="41.1715530" lon="-8.6724070">
        <ele>38.1</ele>
        <time>2021-05-16T05:52:53Z</time>
      </trkpt>
      <trkpt lat="41.1715580" lon="-8.6724230">
        <ele>38.2</ele>
        <time>2021-05-16T05:52:54Z</time>
      </trkpt>
      <trkpt lat="41.1715620" lon="-8.6724410">
        <ele>38.3</ele>
        <time>2021-05-16T05:52:55Z</time>
      </trkpt>
      <trkpt lat="41.1715620" lon="-8.6724500">
        <ele>38.3</ele>
        <time>2021-05-16T05:52:56Z</time>
      </trkpt>
      <trkpt lat="41.1715670" lon="-8.6724700">
        <ele>38.4</ele>
        <time>2021-05-16T05:52:57Z</time>
      </trkpt>
      <trkpt lat="41.1715770" lon="-8.6724880">
        <ele>38.4</ele>
        <time>2021-05-16T05:52:58Z</time>
      </trkpt>
      <trkpt lat="41.1715840" lon="-8.6725070">
        <ele>38.5</ele>
        <time>2021-05-16T05:52:59Z</time>
      </trkpt>
      <trkpt lat="41.1715900" lon="-8.6725250">
        <ele>38.6</ele>
        <time>2021-05-16T05:53:00Z</time>
      </trkpt>
      <trkpt lat="41.1715950" lon="-8.6725410">
        <ele>38.6</ele>
        <time>2021-05-16T05:53:01Z</time>
      </trkpt>
      <trkpt lat="41.1716080" lon="-8.6725560">
        <ele>38.7</ele>
        <time>2021-05-16T05:53:02Z</time>
      </trkpt>
      <trkpt lat="41.1716180" lon="-8.6725730">
        <ele>38.8</ele>
        <time>2021-05-16T05:53:03Z</time>
      </trkpt>
      <trkpt lat="41.1716200" lon="-8.6725900">
        <ele>38.9</ele>
        <time>2021-05-16T05:53:04Z</time>
      </trkpt>
      <trkpt lat="41.1716260" lon="-8.6726010">
        <ele>38.9</ele>
        <time>2021-05-16T05:53:05Z</time>
      </trkpt>
      <trkpt lat="41.1716320" lon="-8.6726130">
        <ele>38.9</ele>
        <time>2021-05-16T05:53:06Z</time>
      </trkpt>
      <trkpt lat="41.1716350" lon="-8.6726280">
        <ele>39.0</ele>
        <time>2021-05-16T05:53:07Z</time>
      </trkpt>
      <trkpt lat="41.1716480" lon="-8.6726450">
        <ele>39.1</ele>
        <time>2021-05-16T05:53:08Z</time>
      </trkpt>
      <trkpt lat="41.1716560" lon="-8.6726540">
        <ele>39.1</ele>
        <time>2021-05-16T05:53:09Z</time>
      </trkpt>
      <trkpt lat="41.1716650" lon="-8.6726770">
        <ele>39.2</ele>
        <time>2021-05-16T05:53:10Z</time>
      </trkpt>
      <trkpt lat="41.1716770" lon="-8.6726920">
        <ele>39.3</ele>
        <time>2021-05-16T05:53:11Z</time>
      </trkpt>
      <trkpt lat="41.1716890" lon="-8.6727030">
        <ele>39.3</ele>
        <time>2021-05-16T05:53:12Z</time>
      </trkpt>
      <trkpt lat="41.1716990" lon="-8.6727210">
        <ele>39.4</ele>
        <time>2021-05-16T05:53:13Z</time>
      </trkpt>
      <trkpt lat="41.1717110" lon="-8.6727390">
        <ele>39.5</ele>
        <time>2021-05-16T05:53:14Z</time>
      </trkpt>
      <trkpt lat="41.1717220" lon="-8.6727530">
        <ele>39.6</ele>
        <time>2021-05-16T05:53:15Z</time>
      </trkpt>
      <trkpt lat="41.1717330" lon="-8.6727720">
        <ele>39.6</ele>
        <time>2021-05-16T05:53:16Z</time>
      </trkpt>
      <trkpt lat="41.1717440" lon="-8.6727900">
        <ele>39.7</ele>
        <time>2021-05-16T05:53:17Z</time>
      </trkpt>
      <trkpt lat="41.1717550" lon="-8.6728050">
        <ele>39.8</ele>
        <time>2021-05-16T05:53:18Z</time>
      </trkpt>
      <trkpt lat="41.1717640" lon="-8.6728220">
        <ele>39.8</ele>
        <time>2021-05-16T05:53:19Z</time>
      </trkpt>
      <trkpt lat="41.1717720" lon="-8.6728420">
        <ele>39.9</ele>
        <time>2021-05-16T05:53:20Z</time>
      </trkpt>
      <trkpt lat="41.1717860" lon="-8.6728520">
        <ele>40.0</ele>
        <time>2021-05-16T05:53:21Z</time>
      </trkpt>
      <trkpt lat="41.1718080" lon="-8.6728550">
        <ele>40.1</ele>
        <time>2021-05-16T05:53:22Z</time>
      </trkpt>
      <trkpt lat="41.1718160" lon="-8.6728660">
        <ele>40.1</ele>
        <time>2021-05-16T05:53:23Z</time>
      </trkpt>
      <trkpt lat="41.1718240" lon="-8.6728770">
        <ele>40.2</ele>
        <time>2021-05-16T05:53:24Z</time>
      </trkpt>
      <trkpt lat="41.1718450" lon="-8.6728990">
        <ele>40.2</ele>
        <time>2021-05-16T05:53:25Z</time>
      </trkpt>
      <trkpt lat="41.1718530" lon="-8.6729060">
        <ele>40.3</ele>
        <time>2021-05-16T05:53:26Z</time>
      </trkpt>
      <trkpt lat="41.1718600" lon="-8.6729140">
        <ele>40.3</ele>
        <time>2021-05-16T05:53:27Z</time>
      </trkpt>
      <trkpt lat="41.1718740" lon="-8.6729380">
        <ele>40.4</ele>
        <time>2021-05-16T05:53:29Z</time>
      </trkpt>
      <trkpt lat="41.1718830" lon="-8.6729430">
        <ele>40.4</ele>
        <time>2021-05-16T05:53:30Z</time>
      </trkpt>
      <trkpt lat="41.1718930" lon="-8.6729480">
        <ele>40.5</ele>
        <time>2021-05-16T05:53:31Z</time>
      </trkpt>
      <trkpt lat="41.1719050" lon="-8.6729700">
        <ele>40.5</ele>
        <time>2021-05-16T05:53:32Z</time>
      </trkpt>
      <trkpt lat="41.1719120" lon="-8.6729800">
        <ele>40.5</ele>
        <time>2021-05-16T05:53:33Z</time>
      </trkpt>
      <trkpt lat="41.1719190" lon="-8.6729900">
        <ele>40.6</ele>
        <time>2021-05-16T05:53:34Z</time>
      </trkpt>
      <trkpt lat="41.1719290" lon="-8.6730050">
        <ele>40.6</ele>
        <time>2021-05-16T05:53:35Z</time>
      </trkpt>
      <trkpt lat="41.1719440" lon="-8.6730090">
        <ele>40.6</ele>
        <time>2021-05-16T05:53:36Z</time>
      </trkpt>
      <trkpt lat="41.1719560" lon="-8.6730230">
        <ele>40.7</ele>
        <time>2021-05-16T05:53:37Z</time>
      </trkpt>
      <trkpt lat="41.1719660" lon="-8.6730340">
        <ele>40.7</ele>
        <time>2021-05-16T05:53:38Z</time>
      </trkpt>
      <trkpt lat="41.1719900" lon="-8.6730510">
        <ele>40.7</ele>
        <time>2021-05-16T05:53:39Z</time>
      </trkpt>
      <trkpt lat="41.1719980" lon="-8.6730580">
        <ele>40.7</ele>
        <time>2021-05-16T05:53:40Z</time>
      </trkpt>
      <trkpt lat="41.1720060" lon="-8.6730710">
        <ele>40.7</ele>
        <time>2021-05-16T05:53:41Z</time>
      </trkpt>
      <trkpt lat="41.1720130" lon="-8.6730790">
        <ele>40.7</ele>
        <time>2021-05-16T05:53:42Z</time>
      </trkpt>
      <trkpt lat="41.1720170" lon="-8.6730870">
        <ele>40.7</ele>
        <time>2021-05-16T05:53:43Z</time>
      </trkpt>
      <trkpt lat="41.1720280" lon="-8.6731000">
        <ele>40.7</ele>
        <time>2021-05-16T05:53:44Z</time>
      </trkpt>
      <trkpt lat="41.1720400" lon="-8.6731170">
        <ele>40.8</ele>
        <time>2021-05-16T05:53:45Z</time>
      </trkpt>
      <trkpt lat="41.1720470" lon="-8.6731310">
        <ele>40.8</ele>
        <time>2021-05-16T05:53:46Z</time>
      </trkpt>
      <trkpt lat="41.1720580" lon="-8.6731450">
        <ele>40.8</ele>
        <time>2021-05-16T05:53:47Z</time>
      </trkpt>
      <trkpt lat="41.1720680" lon="-8.6731530">
        <ele>40.8</ele>
        <time>2021-05-16T05:53:48Z</time>
      </trkpt>
      <trkpt lat="41.1720820" lon="-8.6731700">
        <ele>40.7</ele>
        <time>2021-05-16T05:53:49Z</time>
      </trkpt>
      <trkpt lat="41.1720900" lon="-8.6731830">
        <ele>40.7</ele>
        <time>2021-05-16T05:53:50Z</time>
      </trkpt>
      <trkpt lat="41.1721050" lon="-8.6732000">
        <ele>40.7</ele>
        <time>2021-05-16T05:53:51Z</time>
      </trkpt>
      <trkpt lat="41.1721150" lon="-8.6732100">
        <ele>40.7</ele>
        <time>2021-05-16T05:53:52Z</time>
      </trkpt>
      <trkpt lat="41.1721330" lon="-8.6732230">
        <ele>40.7</ele>
        <time>2021-05-16T05:53:53Z</time>
      </trkpt>
      <trkpt lat="41.1721430" lon="-8.6732390">
        <ele>40.7</ele>
        <time>2021-05-16T05:53:54Z</time>
      </trkpt>
      <trkpt lat="41.1721540" lon="-8.6732530">
        <ele>40.7</ele>
        <time>2021-05-16T05:53:55Z</time>
      </trkpt>
      <trkpt lat="41.1721690" lon="-8.6732630">
        <ele>40.6</ele>
        <time>2021-05-16T05:53:56Z</time>
      </trkpt>
      <trkpt lat="41.1721770" lon="-8.6732830">
        <ele>40.6</ele>
        <time>2021-05-16T05:53:57Z</time>
      </trkpt>
      <trkpt lat="41.1721900" lon="-8.6733040">
        <ele>40.5</ele>
        <time>2021-05-16T05:53:58Z</time>
      </trkpt>
      <trkpt lat="41.1721940" lon="-8.6733140">
        <ele>40.5</ele>
        <time>2021-05-16T05:53:59Z</time>
      </trkpt>
      <trkpt lat="41.1721990" lon="-8.6733240">
        <ele>40.5</ele>
        <time>2021-05-16T05:54:00Z</time>
      </trkpt>
      <trkpt lat="41.1722000" lon="-8.6733420">
        <ele>40.4</ele>
        <time>2021-05-16T05:54:01Z</time>
      </trkpt>
      <trkpt lat="41.1722040" lon="-8.6733630">
        <ele>40.4</ele>
        <time>2021-05-16T05:54:02Z</time>
      </trkpt>
      <trkpt lat="41.1722140" lon="-8.6733690">
        <ele>40.4</ele>
        <time>2021-05-16T05:54:03Z</time>
      </trkpt>
      <trkpt lat="41.1722220" lon="-8.6733850">
        <ele>40.3</ele>
        <time>2021-05-16T05:54:04Z</time>
      </trkpt>
      <trkpt lat="41.1722280" lon="-8.6733970">
        <ele>40.3</ele>
        <time>2021-05-16T05:54:05Z</time>
      </trkpt>
      <trkpt lat="41.1722400" lon="-8.6734130">
        <ele>40.2</ele>
        <time>2021-05-16T05:54:06Z</time>
      </trkpt>
      <trkpt lat="41.1722530" lon="-8.6734290">
        <ele>40.1</ele>
        <time>2021-05-16T05:54:07Z</time>
      </trkpt>
      <trkpt lat="41.1722640" lon="-8.6734420">
        <ele>40.1</ele>
        <time>2021-05-16T05:54:08Z</time>
      </trkpt>
      <trkpt lat="41.1722720" lon="-8.6734620">
        <ele>40.0</ele>
        <time>2021-05-16T05:54:09Z</time>
      </trkpt>
      <trkpt lat="41.1722900" lon="-8.6734800">
        <ele>39.9</ele>
        <time>2021-05-16T05:54:10Z</time>
      </trkpt>
      <trkpt lat="41.1722950" lon="-8.6734910">
        <ele>39.8</ele>
        <time>2021-05-16T05:54:11Z</time>
      </trkpt>
      <trkpt lat="41.1722990" lon="-8.6735020">
        <ele>39.8</ele>
        <time>2021-05-16T05:54:12Z</time>
      </trkpt>
      <trkpt lat="41.1723060" lon="-8.6735170">
        <ele>39.7</ele>
        <time>2021-05-16T05:54:13Z</time>
      </trkpt>
      <trkpt lat="41.1723150" lon="-8.6735320">
        <ele>39.7</ele>
        <time>2021-05-16T05:54:14Z</time>
      </trkpt>
      <trkpt lat="41.1723240" lon="-8.6735520">
        <ele>39.6</ele>
        <time>2021-05-16T05:54:15Z</time>
      </trkpt>
      <trkpt lat="41.1723290" lon="-8.6735620">
        <ele>39.5</ele>
        <time>2021-05-16T05:54:16Z</time>
      </trkpt>
      <trkpt lat="41.1723350" lon="-8.6735730">
        <ele>39.5</ele>
        <time>2021-05-16T05:54:17Z</time>
      </trkpt>
      <trkpt lat="41.1723450" lon="-8.6735880">
        <ele>39.4</ele>
        <time>2021-05-16T05:54:18Z</time>
      </trkpt>
      <trkpt lat="41.1723580" lon="-8.6736070">
        <ele>39.3</ele>
        <time>2021-05-16T05:54:19Z</time>
      </trkpt>
      <trkpt lat="41.1723660" lon="-8.6736110">
        <ele>39.3</ele>
        <time>2021-05-16T05:54:20Z</time>
      </trkpt>
      <trkpt lat="41.1723860" lon="-8.6736290">
        <ele>39.2</ele>
        <time>2021-05-16T05:54:21Z</time>
      </trkpt>
      <trkpt lat="41.1724060" lon="-8.6736480">
        <ele>39.0</ele>
        <time>2021-05-16T05:54:22Z</time>
      </trkpt>
      <trkpt lat="41.1724160" lon="-8.6736520">
        <ele>39.0</ele>
        <time>2021-05-16T05:54:23Z</time>
      </trkpt>
      <trkpt lat="41.1724270" lon="-8.6736570">
        <ele>38.9</ele>
        <time>2021-05-16T05:54:24Z</time>
      </trkpt>
      <trkpt lat="41.1724380" lon="-8.6736840">
        <ele>38.8</ele>
        <time>2021-05-16T05:54:25Z</time>
      </trkpt>
      <trkpt lat="41.1724440" lon="-8.6736950">
        <ele>38.7</ele>
        <time>2021-05-16T05:54:26Z</time>
      </trkpt>
      <trkpt lat="41.1724510" lon="-8.6737070">
        <ele>38.7</ele>
        <time>2021-05-16T05:54:27Z</time>
      </trkpt>
      <trkpt lat="41.1724670" lon="-8.6737240">
        <ele>38.6</ele>
        <time>2021-05-16T05:54:28Z</time>
      </trkpt>
      <trkpt lat="41.1724750" lon="-8.6737330">
        <ele>38.5</ele>
        <time>2021-05-16T05:54:29Z</time>
      </trkpt>
      <trkpt lat="41.1724840" lon="-8.6737420">
        <ele>38.5</ele>
        <time>2021-05-16T05:54:30Z</time>
      </trkpt>
      <trkpt lat="41.1724930" lon="-8.6737630">
        <ele>38.4</ele>
        <time>2021-05-16T05:54:31Z</time>
      </trkpt>
      <trkpt lat="41.1724970" lon="-8.6737790">
        <ele>38.3</ele>
        <time>2021-05-16T05:54:32Z</time>
      </trkpt>
      <trkpt lat="41.1725090" lon="-8.6737920">
        <ele>38.2</ele>
        <time>2021-05-16T05:54:33Z</time>
      </trkpt>
      <trkpt lat="41.1725220" lon="-8.6738020">
        <ele>38.2</ele>
        <time>2021-05-16T05:54:34Z</time>
      </trkpt>
      <trkpt lat="41.1725310" lon="-8.6738250">
        <ele>38.1</ele>
        <time>2021-05-16T05:54:35Z</time>
      </trkpt>
      <trkpt lat="41.1725360" lon="-8.6738340">
        <ele>38.0</ele>
        <time>2021-05-16T05:54:36Z</time>
      </trkpt>
      <trkpt lat="41.1725420" lon="-8.6738430">
        <ele>38.0</ele>
        <time>2021-05-16T05:54:37Z</time>
      </trkpt>
      <trkpt lat="41.1725540" lon="-8.6738600">
        <ele>37.9</ele>
        <time>2021-05-16T05:54:38Z</time>
      </trkpt>
      <trkpt lat="41.1725660" lon="-8.6738770">
        <ele>37.8</ele>
        <time>2021-05-16T05:54:39Z</time>
      </trkpt>
      <trkpt lat="41.1725840" lon="-8.6739050">
        <ele>37.7</ele>
        <time>2021-05-16T05:54:40Z</time>
      </trkpt>
      <trkpt lat="41.1725930" lon="-8.6739170">
        <ele>37.6</ele>
        <time>2021-05-16T05:54:41Z</time>
      </trkpt>
      <trkpt lat="41.1726020" lon="-8.6739340">
        <ele>37.5</ele>
        <time>2021-05-16T05:54:42Z</time>
      </trkpt>
      <trkpt lat="41.1726160" lon="-8.6739450">
        <ele>37.4</ele>
        <time>2021-05-16T05:54:43Z</time>
      </trkpt>
      <trkpt lat="41.1726260" lon="-8.6739510">
        <ele>37.4</ele>
        <time>2021-05-16T05:54:44Z</time>
      </trkpt>
      <trkpt lat="41.1726470" lon="-8.6739790">
        <ele>37.2</ele>
        <time>2021-05-16T05:54:45Z</time>
      </trkpt>
      <trkpt lat="41.1726570" lon="-8.6739880">
        <ele>37.2</ele>
        <time>2021-05-16T05:54:46Z</time>
      </trkpt>
      <trkpt lat="41.1726660" lon="-8.6739960">
        <ele>37.1</ele>
        <time>2021-05-16T05:54:47Z</time>
      </trkpt>
      <trkpt lat="41.1726750" lon="-8.6740040">
        <ele>37.1</ele>
        <time>2021-05-16T05:54:48Z</time>
      </trkpt>
      <trkpt lat="41.1726890" lon="-8.6740170">
        <ele>37.0</ele>
        <time>2021-05-16T05:54:49Z</time>
      </trkpt>
      <trkpt lat="41.1727060" lon="-8.6740320">
        <ele>36.9</ele>
        <time>2021-05-16T05:54:50Z</time>
      </trkpt>
      <trkpt lat="41.1727150" lon="-8.6740380">
        <ele>36.9</ele>
        <time>2021-05-16T05:54:51Z</time>
      </trkpt>
      <trkpt lat="41.1727230" lon="-8.6740440">
        <ele>36.9</ele>
        <time>2021-05-16T05:54:52Z</time>
      </trkpt>
      <trkpt lat="41.1727330" lon="-8.6740550">
        <ele>36.8</ele>
        <time>2021-05-16T05:54:53Z</time>
      </trkpt>
      <trkpt lat="41.1727450" lon="-8.6740660">
        <ele>36.8</ele>
        <time>2021-05-16T05:54:54Z</time>
      </trkpt>
      <trkpt lat="41.1727620" lon="-8.6740850">
        <ele>36.7</ele>
        <time>2021-05-16T05:54:55Z</time>
      </trkpt>
      <trkpt lat="41.1727700" lon="-8.6740930">
        <ele>36.7</ele>
        <time>2021-05-16T05:54:56Z</time>
      </trkpt>
      <trkpt lat="41.1727790" lon="-8.6741020">
        <ele>36.6</ele>
        <time>2021-05-16T05:54:57Z</time>
      </trkpt>
      <trkpt lat="41.1727880" lon="-8.6741120">
        <ele>36.6</ele>
        <time>2021-05-16T05:54:58Z</time>
      </trkpt>
      <trkpt lat="41.1727950" lon="-8.6741260">
        <ele>36.5</ele>
        <time>2021-05-16T05:54:59Z</time>
      </trkpt>
      <trkpt lat="41.1727990" lon="-8.6741410">
        <ele>36.5</ele>
        <time>2021-05-16T05:55:00Z</time>
      </trkpt>
      <trkpt lat="41.1728160" lon="-8.6741770">
        <ele>36.4</ele>
        <time>2021-05-16T05:55:01Z</time>
      </trkpt>
      <trkpt lat="41.1728170" lon="-8.6741890">
        <ele>36.5</ele>
        <time>2021-05-16T05:55:02Z</time>
      </trkpt>
      <trkpt lat="41.1728240" lon="-8.6742130">
        <ele>36.5</ele>
        <time>2021-05-16T05:55:03Z</time>
      </trkpt>
      <trkpt lat="41.1728320" lon="-8.6742310">
        <ele>36.5</ele>
        <time>2021-05-16T05:55:04Z</time>
      </trkpt>
      <trkpt lat="41.1728400" lon="-8.6742540">
        <ele>36.6</ele>
        <time>2021-05-16T05:55:05Z</time>
      </trkpt>
      <trkpt lat="41.1728450" lon="-8.6742730">
        <ele>36.6</ele>
        <time>2021-05-16T05:55:06Z</time>
      </trkpt>
      <trkpt lat="41.1728560" lon="-8.6742870">
        <ele>36.7</ele>
        <time>2021-05-16T05:55:07Z</time>
      </trkpt>
      <trkpt lat="41.1728660" lon="-8.6743010">
        <ele>36.7</ele>
        <time>2021-05-16T05:55:08Z</time>
      </trkpt>
      <trkpt lat="41.1728770" lon="-8.6743200">
        <ele>36.7</ele>
        <time>2021-05-16T05:55:09Z</time>
      </trkpt>
      <trkpt lat="41.1728910" lon="-8.6743310">
        <ele>36.8</ele>
        <time>2021-05-16T05:55:10Z</time>
      </trkpt>
      <trkpt lat="41.1729060" lon="-8.6743340">
        <ele>36.8</ele>
        <time>2021-05-16T05:55:11Z</time>
      </trkpt>
      <trkpt lat="41.1729200" lon="-8.6743470">
        <ele>36.8</ele>
        <time>2021-05-16T05:55:12Z</time>
      </trkpt>
      <trkpt lat="41.1729290" lon="-8.6743560">
        <ele>36.7</ele>
        <time>2021-05-16T05:55:13Z</time>
      </trkpt>
      <trkpt lat="41.1729430" lon="-8.6743670">
        <ele>36.6</ele>
        <time>2021-05-16T05:55:14Z</time>
      </trkpt>
      <trkpt lat="41.1729550" lon="-8.6743770">
        <ele>36.5</ele>
        <time>2021-05-16T05:55:15Z</time>
      </trkpt>
      <trkpt lat="41.1729680" lon="-8.6743900">
        <ele>36.4</ele>
        <time>2021-05-16T05:55:16Z</time>
      </trkpt>
      <trkpt lat="41.1729770" lon="-8.6744020">
        <ele>36.3</ele>
        <time>2021-05-16T05:55:17Z</time>
      </trkpt>
      <trkpt lat="41.1729870" lon="-8.6744160">
        <ele>36.3</ele>
        <time>2021-05-16T05:55:18Z</time>
      </trkpt>
      <trkpt lat="41.1730000" lon="-8.6744280">
        <ele>36.2</ele>
        <time>2021-05-16T05:55:19Z</time>
      </trkpt>
      <trkpt lat="41.1730060" lon="-8.6744340">
        <ele>36.1</ele>
        <time>2021-05-16T05:55:20Z</time>
      </trkpt>
      <trkpt lat="41.1730120" lon="-8.6744410">
        <ele>36.1</ele>
        <time>2021-05-16T05:55:21Z</time>
      </trkpt>
      <trkpt lat="41.1730180" lon="-8.6744470">
        <ele>36.0</ele>
        <time>2021-05-16T05:55:22Z</time>
      </trkpt>
      <trkpt lat="41.1730240" lon="-8.6744550">
        <ele>36.0</ele>
        <time>2021-05-16T05:55:23Z</time>
      </trkpt>
      <trkpt lat="41.1730320" lon="-8.6744650">
        <ele>35.9</ele>
        <time>2021-05-16T05:55:24Z</time>
      </trkpt>
      <trkpt lat="41.1730420" lon="-8.6744810">
        <ele>35.8</ele>
        <time>2021-05-16T05:55:25Z</time>
      </trkpt>
      <trkpt lat="41.1730430" lon="-8.6744740">
        <ele>35.8</ele>
        <time>2021-05-16T05:55:26Z</time>
      </trkpt>
      <trkpt lat="41.1730560" lon="-8.6744930">
        <ele>35.7</ele>
        <time>2021-05-16T05:55:27Z</time>
      </trkpt>
      <trkpt lat="41.1730580" lon="-8.6745020">
        <ele>35.6</ele>
        <time>2021-05-16T05:55:28Z</time>
      </trkpt>
      <trkpt lat="41.1730660" lon="-8.6745120">
        <ele>35.5</ele>
        <time>2021-05-16T05:55:30Z</time>
      </trkpt>
      <trkpt lat="41.1730650" lon="-8.6745180">
        <ele>35.5</ele>
        <time>2021-05-16T05:55:31Z</time>
      </trkpt>
      <trkpt lat="41.1730740" lon="-8.6745340">
        <ele>35.4</ele>
        <time>2021-05-16T05:55:32Z</time>
      </trkpt>
      <trkpt lat="41.1730880" lon="-8.6745510">
        <ele>35.3</ele>
        <time>2021-05-16T05:55:33Z</time>
      </trkpt>
      <trkpt lat="41.1731050" lon="-8.6745730">
        <ele>35.1</ele>
        <time>2021-05-16T05:55:34Z</time>
      </trkpt>
      <trkpt lat="41.1731130" lon="-8.6745810">
        <ele>35.1</ele>
        <time>2021-05-16T05:55:35Z</time>
      </trkpt>
      <trkpt lat="41.1731210" lon="-8.6745880">
        <ele>35.0</ele>
        <time>2021-05-16T05:55:36Z</time>
      </trkpt>
      <trkpt lat="41.1731450" lon="-8.6746060">
        <ele>34.9</ele>
        <time>2021-05-16T05:55:37Z</time>
      </trkpt>
      <trkpt lat="41.1731510" lon="-8.6746100">
        <ele>34.8</ele>
        <time>2021-05-16T05:55:38Z</time>
      </trkpt>
      <trkpt lat="41.1731580" lon="-8.6746140">
        <ele>34.8</ele>
        <time>2021-05-16T05:55:39Z</time>
      </trkpt>
      <trkpt lat="41.1731650" lon="-8.6746170">
        <ele>34.7</ele>
        <time>2021-05-16T05:55:40Z</time>
      </trkpt>
      <trkpt lat="41.1731840" lon="-8.6746410">
        <ele>34.5</ele>
        <time>2021-05-16T05:55:41Z</time>
      </trkpt>
      <trkpt lat="41.1731920" lon="-8.6746490">
        <ele>34.5</ele>
        <time>2021-05-16T05:55:42Z</time>
      </trkpt>
      <trkpt lat="41.1731990" lon="-8.6746570">
        <ele>34.4</ele>
        <time>2021-05-16T05:55:43Z</time>
      </trkpt>
      <trkpt lat="41.1732080" lon="-8.6746610">
        <ele>34.4</ele>
        <time>2021-05-16T05:55:44Z</time>
      </trkpt>
      <trkpt lat="41.1732280" lon="-8.6746730">
        <ele>34.2</ele>
        <time>2021-05-16T05:55:45Z</time>
      </trkpt>
      <trkpt lat="41.1732370" lon="-8.6746790">
        <ele>34.2</ele>
        <time>2021-05-16T05:55:46Z</time>
      </trkpt>
      <trkpt lat="41.1732470" lon="-8.6746860">
        <ele>34.1</ele>
        <time>2021-05-16T05:55:47Z</time>
      </trkpt>
      <trkpt lat="41.1732600" lon="-8.6746960">
        <ele>34.0</ele>
        <time>2021-05-16T05:55:48Z</time>
      </trkpt>
      <trkpt lat="41.1732730" lon="-8.6747110">
        <ele>33.9</ele>
        <time>2021-05-16T05:55:49Z</time>
      </trkpt>
      <trkpt lat="41.1732870" lon="-8.6747200">
        <ele>33.8</ele>
        <time>2021-05-16T05:55:50Z</time>
      </trkpt>
      <trkpt lat="41.1733020" lon="-8.6747370">
        <ele>33.7</ele>
        <time>2021-05-16T05:55:51Z</time>
      </trkpt>
      <trkpt lat="41.1733110" lon="-8.6747460">
        <ele>33.6</ele>
        <time>2021-05-16T05:55:52Z</time>
      </trkpt>
      <trkpt lat="41.1733300" lon="-8.6747590">
        <ele>33.5</ele>
        <time>2021-05-16T05:55:53Z</time>
      </trkpt>
      <trkpt lat="41.1733340" lon="-8.6747640">
        <ele>33.4</ele>
        <time>2021-05-16T05:55:54Z</time>
      </trkpt>
      <trkpt lat="41.1733460" lon="-8.6747740">
        <ele>33.3</ele>
        <time>2021-05-16T05:55:55Z</time>
      </trkpt>
      <trkpt lat="41.1733570" lon="-8.6747810">
        <ele>33.3</ele>
        <time>2021-05-16T05:55:56Z</time>
      </trkpt>
      <trkpt lat="41.1733760" lon="-8.6747930">
        <ele>33.1</ele>
        <time>2021-05-16T05:55:57Z</time>
      </trkpt>
      <trkpt lat="41.1733850" lon="-8.6747930">
        <ele>33.1</ele>
        <time>2021-05-16T05:55:58Z</time>
      </trkpt>
      <trkpt lat="41.1734110" lon="-8.6748140">
        <ele>32.9</ele>
        <time>2021-05-16T05:55:59Z</time>
      </trkpt>
      <trkpt lat="41.1734180" lon="-8.6748200">
        <ele>32.8</ele>
        <time>2021-05-16T05:56:00Z</time>
      </trkpt>
      <trkpt lat="41.1734370" lon="-8.6748450">
        <ele>32.6</ele>
        <time>2021-05-16T05:56:01Z</time>
      </trkpt>
      <trkpt lat="41.1734410" lon="-8.6748540">
        <ele>32.6</ele>
        <time>2021-05-16T05:56:02Z</time>
      </trkpt>
      <trkpt lat="41.1734450" lon="-8.6748630">
        <ele>32.5</ele>
        <time>2021-05-16T05:56:03Z</time>
      </trkpt>
      <trkpt lat="41.1734580" lon="-8.6748850">
        <ele>32.4</ele>
        <time>2021-05-16T05:56:04Z</time>
      </trkpt>
      <trkpt lat="41.1734670" lon="-8.6748900">
        <ele>32.4</ele>
        <time>2021-05-16T05:56:05Z</time>
      </trkpt>
      <trkpt lat="41.1734760" lon="-8.6748960">
        <ele>32.3</ele>
        <time>2021-05-16T05:56:06Z</time>
      </trkpt>
      <trkpt lat="41.1735030" lon="-8.6749190">
        <ele>32.1</ele>
        <time>2021-05-16T05:56:07Z</time>
      </trkpt>
      <trkpt lat="41.1735090" lon="-8.6749250">
        <ele>32.1</ele>
        <time>2021-05-16T05:56:08Z</time>
      </trkpt>
      <trkpt lat="41.1735230" lon="-8.6749380">
        <ele>32.0</ele>
        <time>2021-05-16T05:56:09Z</time>
      </trkpt>
      <trkpt lat="41.1735360" lon="-8.6749460">
        <ele>31.9</ele>
        <time>2021-05-16T05:56:10Z</time>
      </trkpt>
      <trkpt lat="41.1735640" lon="-8.6749650">
        <ele>31.7</ele>
        <time>2021-05-16T05:56:11Z</time>
      </trkpt>
      <trkpt lat="41.1735690" lon="-8.6749710">
        <ele>31.7</ele>
        <time>2021-05-16T05:56:12Z</time>
      </trkpt>
      <trkpt lat="41.1735750" lon="-8.6749840">
        <ele>31.6</ele>
        <time>2021-05-16T05:56:13Z</time>
      </trkpt>
      <trkpt lat="41.1735860" lon="-8.6749980">
        <ele>31.6</ele>
        <time>2021-05-16T05:56:14Z</time>
      </trkpt>
      <trkpt lat="41.1736010" lon="-8.6750030">
        <ele>31.5</ele>
        <time>2021-05-16T05:56:15Z</time>
      </trkpt>
      <trkpt lat="41.1736110" lon="-8.6750180">
        <ele>31.4</ele>
        <time>2021-05-16T05:56:16Z</time>
      </trkpt>
      <trkpt lat="41.1736240" lon="-8.6750260">
        <ele>31.3</ele>
        <time>2021-05-16T05:56:17Z</time>
      </trkpt>
      <trkpt lat="41.1736350" lon="-8.6750410">
        <ele>31.3</ele>
        <time>2021-05-16T05:56:18Z</time>
      </trkpt>
      <trkpt lat="41.1736380" lon="-8.6750470">
        <ele>31.2</ele>
        <time>2021-05-16T05:56:19Z</time>
      </trkpt>
      <trkpt lat="41.1736480" lon="-8.6750700">
        <ele>31.1</ele>
        <time>2021-05-16T05:56:20Z</time>
      </trkpt>
      <trkpt lat="41.1736500" lon="-8.6750770">
        <ele>31.1</ele>
        <time>2021-05-16T05:56:21Z</time>
      </trkpt>
      <trkpt lat="41.1736650" lon="-8.6750890">
        <ele>31.0</ele>
        <time>2021-05-16T05:56:22Z</time>
      </trkpt>
      <trkpt lat="41.1736740" lon="-8.6750950">
        <ele>31.0</ele>
        <time>2021-05-16T05:56:23Z</time>
      </trkpt>
      <trkpt lat="41.1736820" lon="-8.6751010">
        <ele>30.9</ele>
        <time>2021-05-16T05:56:24Z</time>
      </trkpt>
      <trkpt lat="41.1737000" lon="-8.6751150">
        <ele>30.8</ele>
        <time>2021-05-16T05:56:25Z</time>
      </trkpt>
      <trkpt lat="41.1737080" lon="-8.6751230">
        <ele>30.8</ele>
        <time>2021-05-16T05:56:26Z</time>
      </trkpt>
      <trkpt lat="41.1737280" lon="-8.6751410">
        <ele>30.6</ele>
        <time>2021-05-16T05:56:27Z</time>
      </trkpt>
      <trkpt lat="41.1737350" lon="-8.6751490">
        <ele>30.6</ele>
        <time>2021-05-16T05:56:28Z</time>
      </trkpt>
      <trkpt lat="41.1737430" lon="-8.6751570">
        <ele>30.5</ele>
        <time>2021-05-16T05:56:29Z</time>
      </trkpt>
      <trkpt lat="41.1737610" lon="-8.6751680">
        <ele>30.4</ele>
        <time>2021-05-16T05:56:30Z</time>
      </trkpt>
      <trkpt lat="41.1737710" lon="-8.6751750">
        <ele>30.4</ele>
        <time>2021-05-16T05:56:31Z</time>
      </trkpt>
      <trkpt lat="41.1737810" lon="-8.6751810">
        <ele>30.3</ele>
        <time>2021-05-16T05:56:32Z</time>
      </trkpt>
      <trkpt lat="41.1737980" lon="-8.6751980">
        <ele>30.2</ele>
        <time>2021-05-16T05:56:33Z</time>
      </trkpt>
      <trkpt lat="41.1738060" lon="-8.6752040">
        <ele>30.1</ele>
        <time>2021-05-16T05:56:34Z</time>
      </trkpt>
      <trkpt lat="41.1738150" lon="-8.6752100">
        <ele>30.1</ele>
        <time>2021-05-16T05:56:35Z</time>
      </trkpt>
      <trkpt lat="41.1738250" lon="-8.6752330">
        <ele>29.9</ele>
        <time>2021-05-16T05:56:36Z</time>
      </trkpt>
      <trkpt lat="41.1738280" lon="-8.6752440">
        <ele>29.9</ele>
        <time>2021-05-16T05:56:37Z</time>
      </trkpt>
      <trkpt lat="41.1738320" lon="-8.6752540">
        <ele>29.8</ele>
        <time>2021-05-16T05:56:38Z</time>
      </trkpt>
      <trkpt lat="41.1738440" lon="-8.6752660">
        <ele>29.8</ele>
        <time>2021-05-16T05:56:39Z</time>
      </trkpt>
      <trkpt lat="41.1738590" lon="-8.6752790">
        <ele>29.7</ele>
        <time>2021-05-16T05:56:40Z</time>
      </trkpt>
      <trkpt lat="41.1738690" lon="-8.6752890">
        <ele>29.6</ele>
        <time>2021-05-16T05:56:41Z</time>
      </trkpt>
      <trkpt lat="41.1738820" lon="-8.6753040">
        <ele>29.5</ele>
        <time>2021-05-16T05:56:42Z</time>
      </trkpt>
      <trkpt lat="41.1738880" lon="-8.6753080">
        <ele>29.5</ele>
        <time>2021-05-16T05:56:43Z</time>
      </trkpt>
      <trkpt lat="41.1739010" lon="-8.6753150">
        <ele>29.4</ele>
        <time>2021-05-16T05:56:44Z</time>
      </trkpt>
      <trkpt lat="41.1739110" lon="-8.6753190">
        <ele>29.4</ele>
        <time>2021-05-16T05:56:45Z</time>
      </trkpt>
      <trkpt lat="41.1739310" lon="-8.6753350">
        <ele>29.4</ele>
        <time>2021-05-16T05:56:46Z</time>
      </trkpt>
      <trkpt lat="41.1739380" lon="-8.6753400">
        <ele>29.4</ele>
        <time>2021-05-16T05:56:47Z</time>
      </trkpt>
      <trkpt lat="41.1739570" lon="-8.6753510">
        <ele>29.3</ele>
        <time>2021-05-16T05:56:48Z</time>
      </trkpt>
      <trkpt lat="41.1739660" lon="-8.6753520">
        <ele>29.3</ele>
        <time>2021-05-16T05:56:49Z</time>
      </trkpt>
      <trkpt lat="41.1739740" lon="-8.6753540">
        <ele>29.3</ele>
        <time>2021-05-16T05:56:50Z</time>
      </trkpt>
      <trkpt lat="41.1739810" lon="-8.6753580">
        <ele>29.3</ele>
        <time>2021-05-16T05:56:51Z</time>
      </trkpt>
      <trkpt lat="41.1739970" lon="-8.6753670">
        <ele>29.2</ele>
        <time>2021-05-16T05:56:52Z</time>
      </trkpt>
      <trkpt lat="41.1740030" lon="-8.6753640">
        <ele>29.2</ele>
        <time>2021-05-16T05:56:53Z</time>
      </trkpt>
      <trkpt lat="41.1740350" lon="-8.6753740">
        <ele>29.1</ele>
        <time>2021-05-16T05:56:54Z</time>
      </trkpt>
      <trkpt lat="41.1740440" lon="-8.6753790">
        <ele>29.0</ele>
        <time>2021-05-16T05:56:55Z</time>
      </trkpt>
      <trkpt lat="41.1740610" lon="-8.6753950">
        <ele>28.9</ele>
        <time>2021-05-16T05:56:56Z</time>
      </trkpt>
      <trkpt lat="41.1740720" lon="-8.6754030">
        <ele>28.9</ele>
        <time>2021-05-16T05:56:57Z</time>
      </trkpt>
      <trkpt lat="41.1740930" lon="-8.6754160">
        <ele>28.7</ele>
        <time>2021-05-16T05:56:58Z</time>
      </trkpt>
      <trkpt lat="41.1740990" lon="-8.6754160">
        <ele>28.7</ele>
        <time>2021-05-16T05:56:59Z</time>
      </trkpt>
      <trkpt lat="41.1741160" lon="-8.6754190">
        <ele>28.6</ele>
        <time>2021-05-16T05:57:00Z</time>
      </trkpt>
      <trkpt lat="41.1741340" lon="-8.6754250">
        <ele>28.5</ele>
        <time>2021-05-16T05:57:01Z</time>
      </trkpt>
      <trkpt lat="41.1741430" lon="-8.6754340">
        <ele>28.5</ele>
        <time>2021-05-16T05:57:02Z</time>
      </trkpt>
      <trkpt lat="41.1741610" lon="-8.6754400">
        <ele>28.4</ele>
        <time>2021-05-16T05:57:03Z</time>
      </trkpt>
      <trkpt lat="41.1741760" lon="-8.6754490">
        <ele>28.3</ele>
        <time>2021-05-16T05:57:04Z</time>
      </trkpt>
      <trkpt lat="41.1741900" lon="-8.6754500">
        <ele>28.2</ele>
        <time>2021-05-16T05:57:05Z</time>
      </trkpt>
      <trkpt lat="41.1742080" lon="-8.6754570">
        <ele>28.1</ele>
        <time>2021-05-16T05:57:06Z</time>
      </trkpt>
      <trkpt lat="41.1742220" lon="-8.6754610">
        <ele>28.0</ele>
        <time>2021-05-16T05:57:07Z</time>
      </trkpt>
      <trkpt lat="41.1742310" lon="-8.6754540">
        <ele>28.0</ele>
        <time>2021-05-16T05:57:08Z</time>
      </trkpt>
      <trkpt lat="41.1742490" lon="-8.6754530">
        <ele>27.9</ele>
        <time>2021-05-16T05:57:09Z</time>
      </trkpt>
      <trkpt lat="41.1742720" lon="-8.6754600">
        <ele>27.7</ele>
        <time>2021-05-16T05:57:10Z</time>
      </trkpt>
      <trkpt lat="41.1742840" lon="-8.6754590">
        <ele>27.7</ele>
        <time>2021-05-16T05:57:11Z</time>
      </trkpt>
      <trkpt lat="41.1742950" lon="-8.6754590">
        <ele>27.6</ele>
        <time>2021-05-16T05:57:12Z</time>
      </trkpt>
      <trkpt lat="41.1743080" lon="-8.6754600">
        <ele>27.5</ele>
        <time>2021-05-16T05:57:13Z</time>
      </trkpt>
      <trkpt lat="41.1743210" lon="-8.6754650">
        <ele>27.5</ele>
        <time>2021-05-16T05:57:14Z</time>
      </trkpt>
      <trkpt lat="41.1743260" lon="-8.6754690">
        <ele>27.4</ele>
        <time>2021-05-16T05:57:15Z</time>
      </trkpt>
      <trkpt lat="41.1743420" lon="-8.6754720">
        <ele>27.3</ele>
        <time>2021-05-16T05:57:16Z</time>
      </trkpt>
      <trkpt lat="41.1743550" lon="-8.6754690">
        <ele>27.3</ele>
        <time>2021-05-16T05:57:17Z</time>
      </trkpt>
      <trkpt lat="41.1743690" lon="-8.6754660">
        <ele>27.2</ele>
        <time>2021-05-16T05:57:18Z</time>
      </trkpt>
      <trkpt lat="41.1743870" lon="-8.6754610">
        <ele>27.1</ele>
        <time>2021-05-16T05:57:19Z</time>
      </trkpt>
      <trkpt lat="41.1743980" lon="-8.6754630">
        <ele>27.0</ele>
        <time>2021-05-16T05:57:20Z</time>
      </trkpt>
      <trkpt lat="41.1744090" lon="-8.6754640">
        <ele>27.0</ele>
        <time>2021-05-16T05:57:21Z</time>
      </trkpt>
      <trkpt lat="41.1744340" lon="-8.6754550">
        <ele>26.7</ele>
        <time>2021-05-16T05:57:22Z</time>
      </trkpt>
      <trkpt lat="41.1744430" lon="-8.6754550">
        <ele>26.6</ele>
        <time>2021-05-16T05:57:23Z</time>
      </trkpt>
      <trkpt lat="41.1744510" lon="-8.6754550">
        <ele>26.5</ele>
        <time>2021-05-16T05:57:24Z</time>
      </trkpt>
      <trkpt lat="41.1744590" lon="-8.6754580">
        <ele>26.4</ele>
        <time>2021-05-16T05:57:25Z</time>
      </trkpt>
      <trkpt lat="41.1744790" lon="-8.6754610">
        <ele>26.1</ele>
        <time>2021-05-16T05:57:26Z</time>
      </trkpt>
      <trkpt lat="41.1744940" lon="-8.6754610">
        <ele>25.9</ele>
        <time>2021-05-16T05:57:27Z</time>
      </trkpt>
      <trkpt lat="41.1745100" lon="-8.6754660">
        <ele>25.7</ele>
        <time>2021-05-16T05:57:28Z</time>
      </trkpt>
      <trkpt lat="41.1745250" lon="-8.6754680">
        <ele>25.5</ele>
        <time>2021-05-16T05:57:29Z</time>
      </trkpt>
      <trkpt lat="41.1745410" lon="-8.6754720">
        <ele>25.3</ele>
        <time>2021-05-16T05:57:30Z</time>
      </trkpt>
      <trkpt lat="41.1745570" lon="-8.6754880">
        <ele>25.0</ele>
        <time>2021-05-16T05:57:31Z</time>
      </trkpt>
      <trkpt lat="41.1745730" lon="-8.6754870">
        <ele>24.8</ele>
        <time>2021-05-16T05:57:32Z</time>
      </trkpt>
      <trkpt lat="41.1745870" lon="-8.6754900">
        <ele>24.6</ele>
        <time>2021-05-16T05:57:33Z</time>
      </trkpt>
      <trkpt lat="41.1746020" lon="-8.6754990">
        <ele>24.4</ele>
        <time>2021-05-16T05:57:34Z</time>
      </trkpt>
      <trkpt lat="41.1746190" lon="-8.6755050">
        <ele>24.2</ele>
        <time>2021-05-16T05:57:35Z</time>
      </trkpt>
      <trkpt lat="41.1746330" lon="-8.6755060">
        <ele>24.0</ele>
        <time>2021-05-16T05:57:36Z</time>
      </trkpt>
      <trkpt lat="41.1746580" lon="-8.6755080">
        <ele>23.7</ele>
        <time>2021-05-16T05:57:37Z</time>
      </trkpt>
      <trkpt lat="41.1746680" lon="-8.6755080">
        <ele>23.7</ele>
        <time>2021-05-16T05:57:38Z</time>
      </trkpt>
      <trkpt lat="41.1746770" lon="-8.6755070">
        <ele>23.6</ele>
        <time>2021-05-16T05:57:39Z</time>
      </trkpt>
      <trkpt lat="41.1746940" lon="-8.6755070">
        <ele>23.6</ele>
        <time>2021-05-16T05:57:40Z</time>
      </trkpt>
      <trkpt lat="41.1747050" lon="-8.6755050">
        <ele>23.5</ele>
        <time>2021-05-16T05:57:41Z</time>
      </trkpt>
      <trkpt lat="41.1747200" lon="-8.6755100">
        <ele>23.4</ele>
        <time>2021-05-16T05:57:43Z</time>
      </trkpt>
      <trkpt lat="41.1747380" lon="-8.6755050">
        <ele>23.1</ele>
        <time>2021-05-16T05:57:44Z</time>
      </trkpt>
      <trkpt lat="41.1747610" lon="-8.6755000">
        <ele>22.9</ele>
        <time>2021-05-16T05:57:45Z</time>
      </trkpt>
      <trkpt lat="41.1747690" lon="-8.6755000">
        <ele>22.8</ele>
        <time>2021-05-16T05:57:46Z</time>
      </trkpt>
      <trkpt lat="41.1747760" lon="-8.6755000">
        <ele>22.7</ele>
        <time>2021-05-16T05:57:47Z</time>
      </trkpt>
      <trkpt lat="41.1747880" lon="-8.6754990">
        <ele>22.6</ele>
        <time>2021-05-16T05:57:48Z</time>
      </trkpt>
      <trkpt lat="41.1747940" lon="-8.6754970">
        <ele>22.5</ele>
        <time>2021-05-16T05:57:49Z</time>
      </trkpt>
      <trkpt lat="41.1747990" lon="-8.6754890">
        <ele>22.4</ele>
        <time>2021-05-16T05:57:50Z</time>
      </trkpt>
      <trkpt lat="41.1748100" lon="-8.6754920">
        <ele>22.3</ele>
        <time>2021-05-16T05:57:51Z</time>
      </trkpt>
      <trkpt lat="41.1748240" lon="-8.6754850">
        <ele>22.1</ele>
        <time>2021-05-16T05:57:52Z</time>
      </trkpt>
      <trkpt lat="41.1748400" lon="-8.6754880">
        <ele>21.9</ele>
        <time>2021-05-16T05:57:53Z</time>
      </trkpt>
      <trkpt lat="41.1748620" lon="-8.6754960">
        <ele>21.7</ele>
        <time>2021-05-16T05:57:54Z</time>
      </trkpt>
      <trkpt lat="41.1748690" lon="-8.6755000">
        <ele>21.6</ele>
        <time>2021-05-16T05:57:55Z</time>
      </trkpt>
      <trkpt lat="41.1748750" lon="-8.6755030">
        <ele>21.5</ele>
        <time>2021-05-16T05:57:56Z</time>
      </trkpt>
      <trkpt lat="41.1748970" lon="-8.6754990">
        <ele>21.2</ele>
        <time>2021-05-16T05:57:57Z</time>
      </trkpt>
      <trkpt lat="41.1749110" lon="-8.6755030">
        <ele>21.1</ele>
        <time>2021-05-16T05:57:58Z</time>
      </trkpt>
      <trkpt lat="41.1749240" lon="-8.6755080">
        <ele>20.9</ele>
        <time>2021-05-16T05:57:59Z</time>
      </trkpt>
      <trkpt lat="41.1749380" lon="-8.6755200">
        <ele>20.8</ele>
        <time>2021-05-16T05:58:00Z</time>
      </trkpt>
      <trkpt lat="41.1749650" lon="-8.6755440">
        <ele>20.5</ele>
        <time>2021-05-16T05:58:01Z</time>
      </trkpt>
      <trkpt lat="41.1749710" lon="-8.6755530">
        <ele>20.4</ele>
        <time>2021-05-16T05:58:02Z</time>
      </trkpt>
      <trkpt lat="41.1749870" lon="-8.6755590">
        <ele>20.3</ele>
        <time>2021-05-16T05:58:03Z</time>
      </trkpt>
      <trkpt lat="41.1750010" lon="-8.6755720">
        <ele>20.1</ele>
        <time>2021-05-16T05:58:04Z</time>
      </trkpt>
      <trkpt lat="41.1750100" lon="-8.6755840">
        <ele>20.0</ele>
        <time>2021-05-16T05:58:05Z</time>
      </trkpt>
      <trkpt lat="41.1750200" lon="-8.6756010">
        <ele>19.9</ele>
        <time>2021-05-16T05:58:06Z</time>
      </trkpt>
      <trkpt lat="41.1750300" lon="-8.6756180">
        <ele>19.8</ele>
        <time>2021-05-16T05:58:07Z</time>
      </trkpt>
      <trkpt lat="41.1750460" lon="-8.6756330">
        <ele>19.7</ele>
        <time>2021-05-16T05:58:08Z</time>
      </trkpt>
      <trkpt lat="41.1750610" lon="-8.6756470">
        <ele>19.6</ele>
        <time>2021-05-16T05:58:09Z</time>
      </trkpt>
      <trkpt lat="41.1750760" lon="-8.6756600">
        <ele>19.6</ele>
        <time>2021-05-16T05:58:10Z</time>
      </trkpt>
      <trkpt lat="41.1751030" lon="-8.6756750">
        <ele>19.7</ele>
        <time>2021-05-16T05:58:11Z</time>
      </trkpt>
      <trkpt lat="41.1751100" lon="-8.6756800">
        <ele>19.8</ele>
        <time>2021-05-16T05:58:12Z</time>
      </trkpt>
      <trkpt lat="41.1751250" lon="-8.6756890">
        <ele>19.8</ele>
        <time>2021-05-16T05:58:13Z</time>
      </trkpt>
      <trkpt lat="41.1751380" lon="-8.6757040">
        <ele>19.7</ele>
        <time>2021-05-16T05:58:14Z</time>
      </trkpt>
      <trkpt lat="41.1751520" lon="-8.6757170">
        <ele>19.7</ele>
        <time>2021-05-16T05:58:15Z</time>
      </trkpt>
      <trkpt lat="41.1751660" lon="-8.6757300">
        <ele>19.7</ele>
        <time>2021-05-16T05:58:16Z</time>
      </trkpt>
      <trkpt lat="41.1751820" lon="-8.6757390">
        <ele>19.7</ele>
        <time>2021-05-16T05:58:17Z</time>
      </trkpt>
      <trkpt lat="41.1751980" lon="-8.6757440">
        <ele>19.7</ele>
        <time>2021-05-16T05:58:18Z</time>
      </trkpt>
      <trkpt lat="41.1752120" lon="-8.6757510">
        <ele>19.7</ele>
        <time>2021-05-16T05:58:19Z</time>
      </trkpt>
      <trkpt lat="41.1752260" lon="-8.6757560">
        <ele>19.7</ele>
        <time>2021-05-16T05:58:20Z</time>
      </trkpt>
      <trkpt lat="41.1752410" lon="-8.6757580">
        <ele>19.7</ele>
        <time>2021-05-16T05:58:21Z</time>
      </trkpt>
      <trkpt lat="41.1752560" lon="-8.6757660">
        <ele>19.7</ele>
        <time>2021-05-16T05:58:22Z</time>
      </trkpt>
      <trkpt lat="41.1752730" lon="-8.6757650">
        <ele>19.7</ele>
        <time>2021-05-16T05:58:23Z</time>
      </trkpt>
      <trkpt lat="41.1752890" lon="-8.6757610">
        <ele>19.7</ele>
        <time>2021-05-16T05:58:24Z</time>
      </trkpt>
      <trkpt lat="41.1753110" lon="-8.6757620">
        <ele>19.7</ele>
        <time>2021-05-16T05:58:25Z</time>
      </trkpt>
      <trkpt lat="41.1753190" lon="-8.6757620">
        <ele>19.7</ele>
        <time>2021-05-16T05:58:26Z</time>
      </trkpt>
      <trkpt lat="41.1753270" lon="-8.6757630">
        <ele>19.7</ele>
        <time>2021-05-16T05:58:27Z</time>
      </trkpt>
      <trkpt lat="41.1753360" lon="-8.6757620">
        <ele>19.7</ele>
        <time>2021-05-16T05:58:28Z</time>
      </trkpt>
      <trkpt lat="41.1753470" lon="-8.6757600">
        <ele>19.7</ele>
        <time>2021-05-16T05:58:29Z</time>
      </trkpt>
      <trkpt lat="41.1753580" lon="-8.6757610">
        <ele>19.8</ele>
        <time>2021-05-16T05:58:30Z</time>
      </trkpt>
      <trkpt lat="41.1753700" lon="-8.6757780">
        <ele>19.8</ele>
        <time>2021-05-16T05:58:31Z</time>
      </trkpt>
      <trkpt lat="41.1753760" lon="-8.6757860">
        <ele>19.8</ele>
        <time>2021-05-16T05:58:32Z</time>
      </trkpt>
      <trkpt lat="41.1753810" lon="-8.6757950">
        <ele>19.8</ele>
        <time>2021-05-16T05:58:33Z</time>
      </trkpt>
      <trkpt lat="41.1753870" lon="-8.6758040">
        <ele>19.8</ele>
        <time>2021-05-16T05:58:34Z</time>
      </trkpt>
      <trkpt lat="41.1754000" lon="-8.6758230">
        <ele>19.8</ele>
        <time>2021-05-16T05:58:35Z</time>
      </trkpt>
      <trkpt lat="41.1754130" lon="-8.6758350">
        <ele>19.8</ele>
        <time>2021-05-16T05:58:36Z</time>
      </trkpt>
      <trkpt lat="41.1754280" lon="-8.6758410">
        <ele>19.9</ele>
        <time>2021-05-16T05:58:37Z</time>
      </trkpt>
      <trkpt lat="41.1754380" lon="-8.6758540">
        <ele>19.9</ele>
        <time>2021-05-16T05:58:38Z</time>
      </trkpt>
      <trkpt lat="41.1754550" lon="-8.6758650">
        <ele>19.9</ele>
        <time>2021-05-16T05:58:39Z</time>
      </trkpt>
      <trkpt lat="41.1754620" lon="-8.6758740">
        <ele>19.9</ele>
        <time>2021-05-16T05:58:40Z</time>
      </trkpt>
      <trkpt lat="41.1754700" lon="-8.6758820">
        <ele>19.9</ele>
        <time>2021-05-16T05:58:41Z</time>
      </trkpt>
      <trkpt lat="41.1754830" lon="-8.6758980">
        <ele>20.0</ele>
        <time>2021-05-16T05:58:42Z</time>
      </trkpt>
      <trkpt lat="41.1754980" lon="-8.6759060">
        <ele>20.0</ele>
        <time>2021-05-16T05:58:43Z</time>
      </trkpt>
      <trkpt lat="41.1755170" lon="-8.6759180">
        <ele>20.0</ele>
        <time>2021-05-16T05:58:44Z</time>
      </trkpt>
      <trkpt lat="41.1755260" lon="-8.6759240">
        <ele>20.0</ele>
        <time>2021-05-16T05:58:45Z</time>
      </trkpt>
      <trkpt lat="41.1755340" lon="-8.6759290">
        <ele>20.0</ele>
        <time>2021-05-16T05:58:46Z</time>
      </trkpt>
      <trkpt lat="41.1755500" lon="-8.6759340">
        <ele>20.1</ele>
        <time>2021-05-16T05:58:47Z</time>
      </trkpt>
      <trkpt lat="41.1755600" lon="-8.6759400">
        <ele>20.1</ele>
        <time>2021-05-16T05:58:48Z</time>
      </trkpt>
      <trkpt lat="41.1755820" lon="-8.6759480">
        <ele>20.1</ele>
        <time>2021-05-16T05:58:49Z</time>
      </trkpt>
      <trkpt lat="41.1755900" lon="-8.6759510">
        <ele>20.1</ele>
        <time>2021-05-16T05:58:50Z</time>
      </trkpt>
      <trkpt lat="41.1755990" lon="-8.6759550">
        <ele>20.1</ele>
        <time>2021-05-16T05:58:51Z</time>
      </trkpt>
      <trkpt lat="41.1756250" lon="-8.6759700">
        <ele>20.1</ele>
        <time>2021-05-16T05:58:52Z</time>
      </trkpt>
      <trkpt lat="41.1756460" lon="-8.6759870">
        <ele>20.1</ele>
        <time>2021-05-16T05:58:53Z</time>
      </trkpt>
      <trkpt lat="41.1756540" lon="-8.6759910">
        <ele>20.1</ele>
        <time>2021-05-16T05:58:54Z</time>
      </trkpt>
      <trkpt lat="41.1756630" lon="-8.6759960">
        <ele>20.1</ele>
        <time>2021-05-16T05:58:55Z</time>
      </trkpt>
      <trkpt lat="41.1756750" lon="-8.6760130">
        <ele>20.1</ele>
        <time>2021-05-16T05:58:56Z</time>
      </trkpt>
      <trkpt lat="41.1756880" lon="-8.6760190">
        <ele>20.2</ele>
        <time>2021-05-16T05:58:57Z</time>
      </trkpt>
      <trkpt lat="41.1757010" lon="-8.6760280">
        <ele>20.2</ele>
        <time>2021-05-16T05:58:58Z</time>
      </trkpt>
      <trkpt lat="41.1757160" lon="-8.6760270">
        <ele>20.2</ele>
        <time>2021-05-16T05:58:59Z</time>
      </trkpt>
      <trkpt lat="41.1757320" lon="-8.6760280">
        <ele>20.2</ele>
        <time>2021-05-16T05:59:00Z</time>
      </trkpt>
      <trkpt lat="41.1757460" lon="-8.6760330">
        <ele>20.2</ele>
        <time>2021-05-16T05:59:01Z</time>
      </trkpt>
      <trkpt lat="41.1757660" lon="-8.6760460">
        <ele>20.2</ele>
        <time>2021-05-16T05:59:02Z</time>
      </trkpt>
      <trkpt lat="41.1757740" lon="-8.6760520">
        <ele>20.2</ele>
        <time>2021-05-16T05:59:03Z</time>
      </trkpt>
      <trkpt lat="41.1757820" lon="-8.6760570">
        <ele>20.2</ele>
        <time>2021-05-16T05:59:04Z</time>
      </trkpt>
      <trkpt lat="41.1757980" lon="-8.6760640">
        <ele>20.3</ele>
        <time>2021-05-16T05:59:05Z</time>
      </trkpt>
      <trkpt lat="41.1758110" lon="-8.6760700">
        <ele>20.3</ele>
        <time>2021-05-16T05:59:06Z</time>
      </trkpt>
      <trkpt lat="41.1758230" lon="-8.6760780">
        <ele>20.3</ele>
        <time>2021-05-16T05:59:07Z</time>
      </trkpt>
      <trkpt lat="41.1758360" lon="-8.6760860">
        <ele>20.3</ele>
        <time>2021-05-16T05:59:08Z</time>
      </trkpt>
      <trkpt lat="41.1758580" lon="-8.6760940">
        <ele>20.3</ele>
        <time>2021-05-16T05:59:09Z</time>
      </trkpt>
      <trkpt lat="41.1758670" lon="-8.6760980">
        <ele>20.6</ele>
        <time>2021-05-16T05:59:10Z</time>
      </trkpt>
      <trkpt lat="41.1758750" lon="-8.6761030">
        <ele>20.6</ele>
        <time>2021-05-16T05:59:11Z</time>
      </trkpt>
      <trkpt lat="41.1758870" lon="-8.6761120">
        <ele>20.6</ele>
        <time>2021-05-16T05:59:12Z</time>
      </trkpt>
      <trkpt lat="41.1759000" lon="-8.6761200">
        <ele>20.6</ele>
        <time>2021-05-16T05:59:13Z</time>
      </trkpt>
      <trkpt lat="41.1759180" lon="-8.6761240">
        <ele>20.6</ele>
        <time>2021-05-16T05:59:14Z</time>
      </trkpt>
      <trkpt lat="41.1759310" lon="-8.6761250">
        <ele>20.6</ele>
        <time>2021-05-16T05:59:15Z</time>
      </trkpt>
      <trkpt lat="41.1759450" lon="-8.6761390">
        <ele>20.6</ele>
        <time>2021-05-16T05:59:16Z</time>
      </trkpt>
      <trkpt lat="41.1759580" lon="-8.6761400">
        <ele>20.6</ele>
        <time>2021-05-16T05:59:17Z</time>
      </trkpt>
      <trkpt lat="41.1759710" lon="-8.6761430">
        <ele>20.6</ele>
        <time>2021-05-16T05:59:18Z</time>
      </trkpt>
      <trkpt lat="41.1759840" lon="-8.6761550">
        <ele>20.6</ele>
        <time>2021-05-16T05:59:19Z</time>
      </trkpt>
      <trkpt lat="41.1759990" lon="-8.6761590">
        <ele>20.6</ele>
        <time>2021-05-16T05:59:20Z</time>
      </trkpt>
      <trkpt lat="41.1760100" lon="-8.6761730">
        <ele>20.6</ele>
        <time>2021-05-16T05:59:21Z</time>
      </trkpt>
      <trkpt lat="41.1760200" lon="-8.6761850">
        <ele>20.6</ele>
        <time>2021-05-16T05:59:22Z</time>
      </trkpt>
      <trkpt lat="41.1760320" lon="-8.6761970">
        <ele>20.8</ele>
        <time>2021-05-16T05:59:23Z</time>
      </trkpt>
      <trkpt lat="41.1760470" lon="-8.6762050">
        <ele>20.9</ele>
        <time>2021-05-16T05:59:24Z</time>
      </trkpt>
      <trkpt lat="41.1760590" lon="-8.6762150">
        <ele>20.9</ele>
        <time>2021-05-16T05:59:25Z</time>
      </trkpt>
      <trkpt lat="41.1760710" lon="-8.6762260">
        <ele>20.9</ele>
        <time>2021-05-16T05:59:26Z</time>
      </trkpt>
      <trkpt lat="41.1760880" lon="-8.6762290">
        <ele>21.0</ele>
        <time>2021-05-16T05:59:27Z</time>
      </trkpt>
      <trkpt lat="41.1761020" lon="-8.6762430">
        <ele>21.0</ele>
        <time>2021-05-16T05:59:28Z</time>
      </trkpt>
      <trkpt lat="41.1761130" lon="-8.6762470">
        <ele>21.0</ele>
        <time>2021-05-16T05:59:29Z</time>
      </trkpt>
      <trkpt lat="41.1761260" lon="-8.6762580">
        <ele>21.1</ele>
        <time>2021-05-16T05:59:30Z</time>
      </trkpt>
      <trkpt lat="41.1761390" lon="-8.6762660">
        <ele>21.1</ele>
        <time>2021-05-16T05:59:31Z</time>
      </trkpt>
      <trkpt lat="41.1761530" lon="-8.6762770">
        <ele>21.1</ele>
        <time>2021-05-16T05:59:32Z</time>
      </trkpt>
      <trkpt lat="41.1761660" lon="-8.6762840">
        <ele>21.2</ele>
        <time>2021-05-16T05:59:33Z</time>
      </trkpt>
      <trkpt lat="41.1761810" lon="-8.6762890">
        <ele>21.2</ele>
        <time>2021-05-16T05:59:34Z</time>
      </trkpt>
      <trkpt lat="41.1761950" lon="-8.6762960">
        <ele>21.2</ele>
        <time>2021-05-16T05:59:35Z</time>
      </trkpt>
      <trkpt lat="41.1762080" lon="-8.6762990">
        <ele>21.3</ele>
        <time>2021-05-16T05:59:36Z</time>
      </trkpt>
      <trkpt lat="41.1762200" lon="-8.6763100">
        <ele>21.3</ele>
        <time>2021-05-16T05:59:37Z</time>
      </trkpt>
      <trkpt lat="41.1762350" lon="-8.6763160">
        <ele>21.3</ele>
        <time>2021-05-16T05:59:38Z</time>
      </trkpt>
      <trkpt lat="41.1762470" lon="-8.6763260">
        <ele>21.4</ele>
        <time>2021-05-16T05:59:39Z</time>
      </trkpt>
      <trkpt lat="41.1762620" lon="-8.6763310">
        <ele>21.4</ele>
        <time>2021-05-16T05:59:40Z</time>
      </trkpt>
      <trkpt lat="41.1762780" lon="-8.6763390">
        <ele>21.5</ele>
        <time>2021-05-16T05:59:41Z</time>
      </trkpt>
      <trkpt lat="41.1762930" lon="-8.6763480">
        <ele>21.5</ele>
        <time>2021-05-16T05:59:42Z</time>
      </trkpt>
      <trkpt lat="41.1763050" lon="-8.6763520">
        <ele>21.5</ele>
        <time>2021-05-16T05:59:43Z</time>
      </trkpt>
      <trkpt lat="41.1763190" lon="-8.6763570">
        <ele>21.6</ele>
        <time>2021-05-16T05:59:44Z</time>
      </trkpt>
      <trkpt lat="41.1763330" lon="-8.6763710">
        <ele>21.6</ele>
        <time>2021-05-16T05:59:45Z</time>
      </trkpt>
      <trkpt lat="41.1763490" lon="-8.6763700">
        <ele>21.6</ele>
        <time>2021-05-16T05:59:46Z</time>
      </trkpt>
      <trkpt lat="41.1763610" lon="-8.6763840">
        <ele>21.7</ele>
        <time>2021-05-16T05:59:47Z</time>
      </trkpt>
      <trkpt lat="41.1763740" lon="-8.6763910">
        <ele>21.7</ele>
        <time>2021-05-16T05:59:48Z</time>
      </trkpt>
      <trkpt lat="41.1763870" lon="-8.6764030">
        <ele>21.8</ele>
        <time>2021-05-16T05:59:49Z</time>
      </trkpt>
      <trkpt lat="41.1763960" lon="-8.6764230">
        <ele>21.8</ele>
        <time>2021-05-16T05:59:50Z</time>
      </trkpt>
      <trkpt lat="41.1764100" lon="-8.6764280">
        <ele>21.8</ele>
        <time>2021-05-16T05:59:51Z</time>
      </trkpt>
      <trkpt lat="41.1764190" lon="-8.6764480">
        <ele>21.9</ele>
        <time>2021-05-16T05:59:52Z</time>
      </trkpt>
      <trkpt lat="41.1764280" lon="-8.6764630">
        <ele>21.9</ele>
        <time>2021-05-16T05:59:53Z</time>
      </trkpt>
      <trkpt lat="41.1764490" lon="-8.6764730">
        <ele>22.0</ele>
        <time>2021-05-16T05:59:54Z</time>
      </trkpt>
      <trkpt lat="41.1764580" lon="-8.6764780">
        <ele>22.0</ele>
        <time>2021-05-16T05:59:56Z</time>
      </trkpt>
      <trkpt lat="41.1764660" lon="-8.6764830">
        <ele>22.0</ele>
        <time>2021-05-16T05:59:57Z</time>
      </trkpt>
      <trkpt lat="41.1764730" lon="-8.6764980">
        <ele>22.0</ele>
        <time>2021-05-16T05:59:58Z</time>
      </trkpt>
      <trkpt lat="41.1764830" lon="-8.6765140">
        <ele>22.1</ele>
        <time>2021-05-16T05:59:59Z</time>
      </trkpt>
      <trkpt lat="41.1764950" lon="-8.6765250">
        <ele>22.1</ele>
        <time>2021-05-16T06:00:00Z</time>
      </trkpt>
      <trkpt lat="41.1765060" lon="-8.6765380">
        <ele>22.1</ele>
        <time>2021-05-16T06:00:01Z</time>
      </trkpt>
      <trkpt lat="41.1765190" lon="-8.6765530">
        <ele>22.2</ele>
        <time>2021-05-16T06:00:02Z</time>
      </trkpt>
      <trkpt lat="41.1765280" lon="-8.6765690">
        <ele>22.2</ele>
        <time>2021-05-16T06:00:03Z</time>
      </trkpt>
      <trkpt lat="41.1765440" lon="-8.6765870">
        <ele>22.3</ele>
        <time>2021-05-16T06:00:04Z</time>
      </trkpt>
      <trkpt lat="41.1765490" lon="-8.6765970">
        <ele>22.3</ele>
        <time>2021-05-16T06:00:05Z</time>
      </trkpt>
      <trkpt lat="41.1765540" lon="-8.6766060">
        <ele>22.3</ele>
        <time>2021-05-16T06:00:06Z</time>
      </trkpt>
      <trkpt lat="41.1765680" lon="-8.6766210">
        <ele>22.4</ele>
        <time>2021-05-16T06:00:07Z</time>
      </trkpt>
      <trkpt lat="41.1765770" lon="-8.6766280">
        <ele>22.4</ele>
        <time>2021-05-16T06:00:08Z</time>
      </trkpt>
      <trkpt lat="41.1765860" lon="-8.6766360">
        <ele>22.4</ele>
        <time>2021-05-16T06:00:09Z</time>
      </trkpt>
      <trkpt lat="41.1766020" lon="-8.6766420">
        <ele>22.4</ele>
        <time>2021-05-16T06:00:10Z</time>
      </trkpt>
      <trkpt lat="41.1766100" lon="-8.6766490">
        <ele>22.5</ele>
        <time>2021-05-16T06:00:11Z</time>
      </trkpt>
      <trkpt lat="41.1766190" lon="-8.6766560">
        <ele>22.5</ele>
        <time>2021-05-16T06:00:12Z</time>
      </trkpt>
      <trkpt lat="41.1766350" lon="-8.6766660">
        <ele>22.6</ele>
        <time>2021-05-16T06:00:13Z</time>
      </trkpt>
      <trkpt lat="41.1766470" lon="-8.6766730">
        <ele>22.6</ele>
        <time>2021-05-16T06:00:14Z</time>
      </trkpt>
      <trkpt lat="41.1766610" lon="-8.6766770">
        <ele>22.6</ele>
        <time>2021-05-16T06:00:15Z</time>
      </trkpt>
      <trkpt lat="41.1766790" lon="-8.6766740">
        <ele>22.7</ele>
        <time>2021-05-16T06:00:16Z</time>
      </trkpt>
      <trkpt lat="41.1766930" lon="-8.6766780">
        <ele>22.7</ele>
        <time>2021-05-16T06:00:17Z</time>
      </trkpt>
      <trkpt lat="41.1767060" lon="-8.6766850">
        <ele>22.8</ele>
        <time>2021-05-16T06:00:18Z</time>
      </trkpt>
      <trkpt lat="41.1767200" lon="-8.6766900">
        <ele>22.8</ele>
        <time>2021-05-16T06:00:19Z</time>
      </trkpt>
      <trkpt lat="41.1767350" lon="-8.6766910">
        <ele>22.9</ele>
        <time>2021-05-16T06:00:20Z</time>
      </trkpt>
      <trkpt lat="41.1767520" lon="-8.6766970">
        <ele>23.0</ele>
        <time>2021-05-16T06:00:21Z</time>
      </trkpt>
      <trkpt lat="41.1767660" lon="-8.6766920">
        <ele>23.0</ele>
        <time>2021-05-16T06:00:22Z</time>
      </trkpt>
      <trkpt lat="41.1767880" lon="-8.6767040">
        <ele>23.1</ele>
        <time>2021-05-16T06:00:23Z</time>
      </trkpt>
      <trkpt lat="41.1767970" lon="-8.6767070">
        <ele>23.1</ele>
        <time>2021-05-16T06:00:24Z</time>
      </trkpt>
      <trkpt lat="41.1768060" lon="-8.6767110">
        <ele>23.2</ele>
        <time>2021-05-16T06:00:25Z</time>
      </trkpt>
      <trkpt lat="41.1768260" lon="-8.6767170">
        <ele>23.2</ele>
        <time>2021-05-16T06:00:26Z</time>
      </trkpt>
      <trkpt lat="41.1768350" lon="-8.6767210">
        <ele>23.3</ele>
        <time>2021-05-16T06:00:27Z</time>
      </trkpt>
      <trkpt lat="41.1768440" lon="-8.6767260">
        <ele>23.3</ele>
        <time>2021-05-16T06:00:28Z</time>
      </trkpt>
      <trkpt lat="41.1768550" lon="-8.6767300">
        <ele>23.4</ele>
        <time>2021-05-16T06:00:29Z</time>
      </trkpt>
      <trkpt lat="41.1768710" lon="-8.6767390">
        <ele>23.4</ele>
        <time>2021-05-16T06:00:30Z</time>
      </trkpt>
      <trkpt lat="41.1768850" lon="-8.6767560">
        <ele>23.5</ele>
        <time>2021-05-16T06:00:31Z</time>
      </trkpt>
      <trkpt lat="41.1768920" lon="-8.6767640">
        <ele>23.5</ele>
        <time>2021-05-16T06:00:32Z</time>
      </trkpt>
      <trkpt lat="41.1768980" lon="-8.6767720">
        <ele>23.6</ele>
        <time>2021-05-16T06:00:33Z</time>
      </trkpt>
      <trkpt lat="41.1769150" lon="-8.6767790">
        <ele>23.6</ele>
        <time>2021-05-16T06:00:34Z</time>
      </trkpt>
      <trkpt lat="41.1769310" lon="-8.6767890">
        <ele>23.7</ele>
        <time>2021-05-16T06:00:35Z</time>
      </trkpt>
      <trkpt lat="41.1769430" lon="-8.6767940">
        <ele>23.7</ele>
        <time>2021-05-16T06:00:36Z</time>
      </trkpt>
      <trkpt lat="41.1769470" lon="-8.6768060">
        <ele>23.8</ele>
        <time>2021-05-16T06:00:37Z</time>
      </trkpt>
      <trkpt lat="41.1769600" lon="-8.6768100">
        <ele>23.8</ele>
        <time>2021-05-16T06:00:38Z</time>
      </trkpt>
      <trkpt lat="41.1769750" lon="-8.6768200">
        <ele>23.9</ele>
        <time>2021-05-16T06:00:39Z</time>
      </trkpt>
      <trkpt lat="41.1769860" lon="-8.6768200">
        <ele>23.9</ele>
        <time>2021-05-16T06:00:40Z</time>
      </trkpt>
      <trkpt lat="41.1770030" lon="-8.6768290">
        <ele>24.0</ele>
        <time>2021-05-16T06:00:41Z</time>
      </trkpt>
      <trkpt lat="41.1770090" lon="-8.6768340">
        <ele>24.0</ele>
        <time>2021-05-16T06:00:42Z</time>
      </trkpt>
      <trkpt lat="41.1770200" lon="-8.6768340">
        <ele>24.1</ele>
        <time>2021-05-16T06:00:43Z</time>
      </trkpt>
      <trkpt lat="41.1770440" lon="-8.6768570">
        <ele>24.2</ele>
        <time>2021-05-16T06:00:44Z</time>
      </trkpt>
      <trkpt lat="41.1770520" lon="-8.6768630">
        <ele>24.2</ele>
        <time>2021-05-16T06:00:45Z</time>
      </trkpt>
      <trkpt lat="41.1770790" lon="-8.6768800">
        <ele>24.4</ele>
        <time>2021-05-16T06:00:46Z</time>
      </trkpt>
      <trkpt lat="41.1770880" lon="-8.6768850">
        <ele>24.4</ele>
        <time>2021-05-16T06:00:47Z</time>
      </trkpt>
      <trkpt lat="41.1771060" lon="-8.6768860">
        <ele>24.5</ele>
        <time>2021-05-16T06:00:48Z</time>
      </trkpt>
      <trkpt lat="41.1771200" lon="-8.6769030">
        <ele>24.6</ele>
        <time>2021-05-16T06:00:49Z</time>
      </trkpt>
      <trkpt lat="41.1771370" lon="-8.6769120">
        <ele>24.7</ele>
        <time>2021-05-16T06:00:50Z</time>
      </trkpt>
      <trkpt lat="41.1771550" lon="-8.6769090">
        <ele>24.7</ele>
        <time>2021-05-16T06:00:51Z</time>
      </trkpt>
      <trkpt lat="41.1771780" lon="-8.6769290">
        <ele>24.8</ele>
        <time>2021-05-16T06:00:52Z</time>
      </trkpt>
      <trkpt lat="41.1771860" lon="-8.6769330">
        <ele>24.9</ele>
        <time>2021-05-16T06:00:53Z</time>
      </trkpt>
      <trkpt lat="41.1772000" lon="-8.6769500">
        <ele>25.0</ele>
        <time>2021-05-16T06:00:54Z</time>
      </trkpt>
      <trkpt lat="41.1772140" lon="-8.6769560">
        <ele>25.0</ele>
        <time>2021-05-16T06:00:55Z</time>
      </trkpt>
      <trkpt lat="41.1772300" lon="-8.6769630">
        <ele>25.1</ele>
        <time>2021-05-16T06:00:56Z</time>
      </trkpt>
      <trkpt lat="41.1772430" lon="-8.6769760">
        <ele>25.1</ele>
        <time>2021-05-16T06:00:57Z</time>
      </trkpt>
      <trkpt lat="41.1772710" lon="-8.6770000">
        <ele>25.3</ele>
        <time>2021-05-16T06:00:58Z</time>
      </trkpt>
      <trkpt lat="41.1772880" lon="-8.6770060">
        <ele>25.3</ele>
        <time>2021-05-16T06:00:59Z</time>
      </trkpt>
      <trkpt lat="41.1773030" lon="-8.6770100">
        <ele>25.4</ele>
        <time>2021-05-16T06:01:00Z</time>
      </trkpt>
      <trkpt lat="41.1773160" lon="-8.6770260">
        <ele>25.4</ele>
        <time>2021-05-16T06:01:01Z</time>
      </trkpt>
      <trkpt lat="41.1773300" lon="-8.6770320">
        <ele>25.5</ele>
        <time>2021-05-16T06:01:02Z</time>
      </trkpt>
      <trkpt lat="41.1773470" lon="-8.6770370">
        <ele>25.5</ele>
        <time>2021-05-16T06:01:03Z</time>
      </trkpt>
      <trkpt lat="41.1773610" lon="-8.6770440">
        <ele>25.6</ele>
        <time>2021-05-16T06:01:04Z</time>
      </trkpt>
      <trkpt lat="41.1773760" lon="-8.6770530">
        <ele>25.6</ele>
        <time>2021-05-16T06:01:05Z</time>
      </trkpt>
      <trkpt lat="41.1773880" lon="-8.6770610">
        <ele>25.6</ele>
        <time>2021-05-16T06:01:06Z</time>
      </trkpt>
      <trkpt lat="41.1774010" lon="-8.6770750">
        <ele>25.7</ele>
        <time>2021-05-16T06:01:07Z</time>
      </trkpt>
      <trkpt lat="41.1774130" lon="-8.6770910">
        <ele>25.7</ele>
        <time>2021-05-16T06:01:08Z</time>
      </trkpt>
      <trkpt lat="41.1774220" lon="-8.6771070">
        <ele>25.7</ele>
        <time>2021-05-16T06:01:09Z</time>
      </trkpt>
      <trkpt lat="41.1774380" lon="-8.6771180">
        <ele>25.8</ele>
        <time>2021-05-16T06:01:10Z</time>
      </trkpt>
      <trkpt lat="41.1774540" lon="-8.6771260">
        <ele>25.7</ele>
        <time>2021-05-16T06:01:11Z</time>
      </trkpt>
      <trkpt lat="41.1774700" lon="-8.6771280">
        <ele>25.7</ele>
        <time>2021-05-16T06:01:12Z</time>
      </trkpt>
      <trkpt lat="41.1774860" lon="-8.6771350">
        <ele>25.7</ele>
        <time>2021-05-16T06:01:13Z</time>
      </trkpt>
      <trkpt lat="41.1774980" lon="-8.6771470">
        <ele>25.7</ele>
        <time>2021-05-16T06:01:14Z</time>
      </trkpt>
      <trkpt lat="41.1775130" lon="-8.6771540">
        <ele>25.7</ele>
        <time>2021-05-16T06:01:15Z</time>
      </trkpt>
      <trkpt lat="41.1775280" lon="-8.6771630">
        <ele>25.7</ele>
        <time>2021-05-16T06:01:16Z</time>
      </trkpt>
      <trkpt lat="41.1775460" lon="-8.6771660">
        <ele>25.7</ele>
        <time>2021-05-16T06:01:17Z</time>
      </trkpt>
      <trkpt lat="41.1775630" lon="-8.6771760">
        <ele>25.6</ele>
        <time>2021-05-16T06:01:18Z</time>
      </trkpt>
      <trkpt lat="41.1775770" lon="-8.6771830">
        <ele>25.6</ele>
        <time>2021-05-16T06:01:19Z</time>
      </trkpt>
      <trkpt lat="41.1775900" lon="-8.6771870">
        <ele>25.6</ele>
        <time>2021-05-16T06:01:20Z</time>
      </trkpt>
      <trkpt lat="41.1776020" lon="-8.6771940">
        <ele>25.6</ele>
        <time>2021-05-16T06:01:21Z</time>
      </trkpt>
      <trkpt lat="41.1776170" lon="-8.6772040">
        <ele>25.5</ele>
        <time>2021-05-16T06:01:22Z</time>
      </trkpt>
      <trkpt lat="41.1776320" lon="-8.6772050">
        <ele>25.5</ele>
        <time>2021-05-16T06:01:23Z</time>
      </trkpt>
      <trkpt lat="41.1776460" lon="-8.6772150">
        <ele>25.5</ele>
        <time>2021-05-16T06:01:24Z</time>
      </trkpt>
      <trkpt lat="41.1776600" lon="-8.6772220">
        <ele>25.5</ele>
        <time>2021-05-16T06:01:25Z</time>
      </trkpt>
      <trkpt lat="41.1776740" lon="-8.6772200">
        <ele>25.4</ele>
        <time>2021-05-16T06:01:26Z</time>
      </trkpt>
      <trkpt lat="41.1776870" lon="-8.6772300">
        <ele>25.4</ele>
        <time>2021-05-16T06:01:27Z</time>
      </trkpt>
      <trkpt lat="41.1777010" lon="-8.6772390">
        <ele>25.4</ele>
        <time>2021-05-16T06:01:28Z</time>
      </trkpt>
      <trkpt lat="41.1777170" lon="-8.6772380">
        <ele>25.3</ele>
        <time>2021-05-16T06:01:29Z</time>
      </trkpt>
      <trkpt lat="41.1777240" lon="-8.6772390">
        <ele>25.3</ele>
        <time>2021-05-16T06:01:30Z</time>
      </trkpt>
      <trkpt lat="41.1777320" lon="-8.6772410">
        <ele>25.3</ele>
        <time>2021-05-16T06:01:31Z</time>
      </trkpt>
      <trkpt lat="41.1777390" lon="-8.6772430">
        <ele>25.3</ele>
        <time>2021-05-16T06:01:32Z</time>
      </trkpt>
      <trkpt lat="41.1777490" lon="-8.6772450">
        <ele>25.3</ele>
        <time>2021-05-16T06:01:33Z</time>
      </trkpt>
      <trkpt lat="41.1777580" lon="-8.6772520">
        <ele>25.3</ele>
        <time>2021-05-16T06:01:34Z</time>
      </trkpt>
      <trkpt lat="41.1777740" lon="-8.6772500">
        <ele>25.2</ele>
        <time>2021-05-16T06:01:35Z</time>
      </trkpt>
      <trkpt lat="41.1777870" lon="-8.6772570">
        <ele>25.2</ele>
        <time>2021-05-16T06:01:36Z</time>
      </trkpt>
      <trkpt lat="41.1778000" lon="-8.6772710">
        <ele>25.2</ele>
        <time>2021-05-16T06:01:37Z</time>
      </trkpt>
      <trkpt lat="41.1778170" lon="-8.6772870">
        <ele>25.1</ele>
        <time>2021-05-16T06:01:38Z</time>
      </trkpt>
      <trkpt lat="41.1778250" lon="-8.6772900">
        <ele>25.1</ele>
        <time>2021-05-16T06:01:39Z</time>
      </trkpt>
      <trkpt lat="41.1778340" lon="-8.6772940">
        <ele>25.1</ele>
        <time>2021-05-16T06:01:40Z</time>
      </trkpt>
      <trkpt lat="41.1778470" lon="-8.6773020">
        <ele>25.1</ele>
        <time>2021-05-16T06:01:41Z</time>
      </trkpt>
      <trkpt lat="41.1778610" lon="-8.6773160">
        <ele>25.0</ele>
        <time>2021-05-16T06:01:42Z</time>
      </trkpt>
      <trkpt lat="41.1778750" lon="-8.6773320">
        <ele>25.0</ele>
        <time>2021-05-16T06:01:43Z</time>
      </trkpt>
      <trkpt lat="41.1778840" lon="-8.6773420">
        <ele>25.0</ele>
        <time>2021-05-16T06:01:44Z</time>
      </trkpt>
      <trkpt lat="41.1778940" lon="-8.6773510">
        <ele>24.9</ele>
        <time>2021-05-16T06:01:45Z</time>
      </trkpt>
      <trkpt lat="41.1779090" lon="-8.6773620">
        <ele>24.9</ele>
        <time>2021-05-16T06:01:46Z</time>
      </trkpt>
      <trkpt lat="41.1779220" lon="-8.6773730">
        <ele>24.9</ele>
        <time>2021-05-16T06:01:47Z</time>
      </trkpt>
      <trkpt lat="41.1779360" lon="-8.6773900">
        <ele>24.9</ele>
        <time>2021-05-16T06:01:48Z</time>
      </trkpt>
      <trkpt lat="41.1779540" lon="-8.6774070">
        <ele>24.8</ele>
        <time>2021-05-16T06:01:49Z</time>
      </trkpt>
      <trkpt lat="41.1779590" lon="-8.6774140">
        <ele>24.8</ele>
        <time>2021-05-16T06:01:50Z</time>
      </trkpt>
      <trkpt lat="41.1779650" lon="-8.6774210">
        <ele>24.8</ele>
        <time>2021-05-16T06:01:51Z</time>
      </trkpt>
      <trkpt lat="41.1779820" lon="-8.6774390">
        <ele>24.7</ele>
        <time>2021-05-16T06:01:52Z</time>
      </trkpt>
      <trkpt lat="41.1779920" lon="-8.6774490">
        <ele>24.7</ele>
        <time>2021-05-16T06:01:53Z</time>
      </trkpt>
      <trkpt lat="41.1780030" lon="-8.6774600">
        <ele>24.7</ele>
        <time>2021-05-16T06:01:54Z</time>
      </trkpt>
      <trkpt lat="41.1780120" lon="-8.6774700">
        <ele>24.7</ele>
        <time>2021-05-16T06:01:55Z</time>
      </trkpt>
      <trkpt lat="41.1780210" lon="-8.6774850">
        <ele>24.6</ele>
        <time>2021-05-16T06:01:56Z</time>
      </trkpt>
      <trkpt lat="41.1780330" lon="-8.6774840">
        <ele>24.6</ele>
        <time>2021-05-16T06:01:57Z</time>
      </trkpt>
      <trkpt lat="41.1780560" lon="-8.6775120">
        <ele>24.6</ele>
        <time>2021-05-16T06:01:58Z</time>
      </trkpt>
      <trkpt lat="41.1780650" lon="-8.6775250">
        <ele>24.5</ele>
        <time>2021-05-16T06:02:00Z</time>
      </trkpt>
      <trkpt lat="41.1780750" lon="-8.6775380">
        <ele>24.5</ele>
        <time>2021-05-16T06:02:01Z</time>
      </trkpt>
      <trkpt lat="41.1780840" lon="-8.6775510">
        <ele>24.5</ele>
        <time>2021-05-16T06:02:02Z</time>
      </trkpt>
      <trkpt lat="41.1781020" lon="-8.6775640">
        <ele>24.4</ele>
        <time>2021-05-16T06:02:03Z</time>
      </trkpt>
      <trkpt lat="41.1781080" lon="-8.6775680">
        <ele>24.4</ele>
        <time>2021-05-16T06:02:04Z</time>
      </trkpt>
      <trkpt lat="41.1781290" lon="-8.6775840">
        <ele>24.4</ele>
        <time>2021-05-16T06:02:05Z</time>
      </trkpt>
      <trkpt lat="41.1781370" lon="-8.6775880">
        <ele>24.3</ele>
        <time>2021-05-16T06:02:06Z</time>
      </trkpt>
      <trkpt lat="41.1781530" lon="-8.6776090">
        <ele>24.3</ele>
        <time>2021-05-16T06:02:07Z</time>
      </trkpt>
      <trkpt lat="41.1781600" lon="-8.6776170">
        <ele>24.3</ele>
        <time>2021-05-16T06:02:08Z</time>
      </trkpt>
      <trkpt lat="41.1781730" lon="-8.6776350">
        <ele>24.2</ele>
        <time>2021-05-16T06:02:09Z</time>
      </trkpt>
      <trkpt lat="41.1781850" lon="-8.6776450">
        <ele>24.2</ele>
        <time>2021-05-16T06:02:10Z</time>
      </trkpt>
      <trkpt lat="41.1781970" lon="-8.6776730">
        <ele>24.1</ele>
        <time>2021-05-16T06:02:11Z</time>
      </trkpt>
      <trkpt lat="41.1782000" lon="-8.6776810">
        <ele>24.1</ele>
        <time>2021-05-16T06:02:12Z</time>
      </trkpt>
      <trkpt lat="41.1782040" lon="-8.6776900">
        <ele>24.1</ele>
        <time>2021-05-16T06:02:13Z</time>
      </trkpt>
      <trkpt lat="41.1782200" lon="-8.6777080">
        <ele>24.0</ele>
        <time>2021-05-16T06:02:14Z</time>
      </trkpt>
      <trkpt lat="41.1782290" lon="-8.6777200">
        <ele>24.0</ele>
        <time>2021-05-16T06:02:15Z</time>
      </trkpt>
      <trkpt lat="41.1782510" lon="-8.6777360">
        <ele>24.0</ele>
        <time>2021-05-16T06:02:16Z</time>
      </trkpt>
      <trkpt lat="41.1782570" lon="-8.6777410">
        <ele>23.9</ele>
        <time>2021-05-16T06:02:17Z</time>
      </trkpt>
      <trkpt lat="41.1782620" lon="-8.6777460">
        <ele>23.9</ele>
        <time>2021-05-16T06:02:18Z</time>
      </trkpt>
      <trkpt lat="41.1782730" lon="-8.6777540">
        <ele>23.9</ele>
        <time>2021-05-16T06:02:19Z</time>
      </trkpt>
      <trkpt lat="41.1782810" lon="-8.6777570">
        <ele>23.9</ele>
        <time>2021-05-16T06:02:20Z</time>
      </trkpt>
      <trkpt lat="41.1782900" lon="-8.6777610">
        <ele>23.9</ele>
        <time>2021-05-16T06:02:21Z</time>
      </trkpt>
      <trkpt lat="41.1782980" lon="-8.6777650">
        <ele>23.9</ele>
        <time>2021-05-16T06:02:22Z</time>
      </trkpt>
      <trkpt lat="41.1783140" lon="-8.6777800">
        <ele>23.8</ele>
        <time>2021-05-16T06:02:23Z</time>
      </trkpt>
      <trkpt lat="41.1783240" lon="-8.6777880">
        <ele>23.8</ele>
        <time>2021-05-16T06:02:24Z</time>
      </trkpt>
      <trkpt lat="41.1783340" lon="-8.6777950">
        <ele>23.8</ele>
        <time>2021-05-16T06:02:25Z</time>
      </trkpt>
      <trkpt lat="41.1783600" lon="-8.6778190">
        <ele>23.7</ele>
        <time>2021-05-16T06:02:26Z</time>
      </trkpt>
      <trkpt lat="41.1783690" lon="-8.6778280">
        <ele>23.7</ele>
        <time>2021-05-16T06:02:27Z</time>
      </trkpt>
      <trkpt lat="41.1783960" lon="-8.6778420">
        <ele>23.7</ele>
        <time>2021-05-16T06:02:28Z</time>
      </trkpt>
      <trkpt lat="41.1784060" lon="-8.6778470">
        <ele>23.7</ele>
        <time>2021-05-16T06:02:29Z</time>
      </trkpt>
      <trkpt lat="41.1784330" lon="-8.6778650">
        <ele>23.6</ele>
        <time>2021-05-16T06:02:30Z</time>
      </trkpt>
      <trkpt lat="41.1784400" lon="-8.6778740">
        <ele>23.6</ele>
        <time>2021-05-16T06:02:31Z</time>
      </trkpt>
      <trkpt lat="41.1784540" lon="-8.6778940">
        <ele>23.6</ele>
        <time>2021-05-16T06:02:32Z</time>
      </trkpt>
      <trkpt lat="41.1784670" lon="-8.6779060">
        <ele>23.5</ele>
        <time>2021-05-16T06:02:33Z</time>
      </trkpt>
      <trkpt lat="41.1784820" lon="-8.6779130">
        <ele>23.5</ele>
        <time>2021-05-16T06:02:34Z</time>
      </trkpt>
      <trkpt lat="41.1784930" lon="-8.6779260">
        <ele>23.5</ele>
        <time>2021-05-16T06:02:35Z</time>
      </trkpt>
      <trkpt lat="41.1785100" lon="-8.6779440">
        <ele>23.4</ele>
        <time>2021-05-16T06:02:36Z</time>
      </trkpt>
      <trkpt lat="41.1785170" lon="-8.6779550">
        <ele>23.4</ele>
        <time>2021-05-16T06:02:37Z</time>
      </trkpt>
      <trkpt lat="41.1785230" lon="-8.6779650">
        <ele>23.4</ele>
        <time>2021-05-16T06:02:38Z</time>
      </trkpt>
      <trkpt lat="41.1785260" lon="-8.6779670">
        <ele>23.4</ele>
        <time>2021-05-16T06:02:39Z</time>
      </trkpt>
      <trkpt lat="41.1785430" lon="-8.6779810">
        <ele>23.4</ele>
        <time>2021-05-16T06:02:40Z</time>
      </trkpt>
      <trkpt lat="41.1785530" lon="-8.6779820">
        <ele>23.4</ele>
        <time>2021-05-16T06:02:41Z</time>
      </trkpt>
      <trkpt lat="41.1785690" lon="-8.6779950">
        <ele>23.3</ele>
        <time>2021-05-16T06:02:42Z</time>
      </trkpt>
      <trkpt lat="41.1785810" lon="-8.6780050">
        <ele>23.3</ele>
        <time>2021-05-16T06:02:43Z</time>
      </trkpt>
      <trkpt lat="41.1785900" lon="-8.6780250">
        <ele>23.3</ele>
        <time>2021-05-16T06:02:44Z</time>
      </trkpt>
      <trkpt lat="41.1786050" lon="-8.6780400">
        <ele>23.3</ele>
        <time>2021-05-16T06:02:45Z</time>
      </trkpt>
      <trkpt lat="41.1786220" lon="-8.6780590">
        <ele>23.3</ele>
        <time>2021-05-16T06:02:46Z</time>
      </trkpt>
      <trkpt lat="41.1786280" lon="-8.6780680">
        <ele>23.2</ele>
        <time>2021-05-16T06:02:47Z</time>
      </trkpt>
      <trkpt lat="41.1786340" lon="-8.6780780">
        <ele>23.2</ele>
        <time>2021-05-16T06:02:48Z</time>
      </trkpt>
      <trkpt lat="41.1786440" lon="-8.6780870">
        <ele>23.2</ele>
        <time>2021-05-16T06:02:49Z</time>
      </trkpt>
      <trkpt lat="41.1786530" lon="-8.6781040">
        <ele>23.2</ele>
        <time>2021-05-16T06:02:50Z</time>
      </trkpt>
      <trkpt lat="41.1786570" lon="-8.6781110">
        <ele>23.2</ele>
        <time>2021-05-16T06:02:51Z</time>
      </trkpt>
      <trkpt lat="41.1786650" lon="-8.6781300">
        <ele>23.2</ele>
        <time>2021-05-16T06:02:52Z</time>
      </trkpt>
      <trkpt lat="41.1786660" lon="-8.6781360">
        <ele>23.2</ele>
        <time>2021-05-16T06:02:53Z</time>
      </trkpt>
      <trkpt lat="41.1786810" lon="-8.6781550">
        <ele>23.1</ele>
        <time>2021-05-16T06:02:54Z</time>
      </trkpt>
      <trkpt lat="41.1786870" lon="-8.6781660">
        <ele>23.1</ele>
        <time>2021-05-16T06:02:55Z</time>
      </trkpt>
      <trkpt lat="41.1786930" lon="-8.6781770">
        <ele>23.1</ele>
        <time>2021-05-16T06:02:56Z</time>
      </trkpt>
      <trkpt lat="41.1787120" lon="-8.6781840">
        <ele>23.1</ele>
        <time>2021-05-16T06:02:57Z</time>
      </trkpt>
      <trkpt lat="41.1787230" lon="-8.6781900">
        <ele>23.0</ele>
        <time>2021-05-16T06:02:58Z</time>
      </trkpt>
      <trkpt lat="41.1787380" lon="-8.6781980">
        <ele>23.0</ele>
        <time>2021-05-16T06:02:59Z</time>
      </trkpt>
      <trkpt lat="41.1787490" lon="-8.6782090">
        <ele>23.0</ele>
        <time>2021-05-16T06:03:00Z</time>
      </trkpt>
      <trkpt lat="41.1787660" lon="-8.6782220">
        <ele>22.9</ele>
        <time>2021-05-16T06:03:01Z</time>
      </trkpt>
      <trkpt lat="41.1787760" lon="-8.6782280">
        <ele>22.9</ele>
        <time>2021-05-16T06:03:02Z</time>
      </trkpt>
      <trkpt lat="41.1787850" lon="-8.6782350">
        <ele>22.9</ele>
        <time>2021-05-16T06:03:03Z</time>
      </trkpt>
      <trkpt lat="41.1788070" lon="-8.6782630">
        <ele>22.8</ele>
        <time>2021-05-16T06:03:04Z</time>
      </trkpt>
      <trkpt lat="41.1788210" lon="-8.6782680">
        <ele>22.8</ele>
        <time>2021-05-16T06:03:05Z</time>
      </trkpt>
      <trkpt lat="41.1788370" lon="-8.6782750">
        <ele>22.8</ele>
        <time>2021-05-16T06:03:06Z</time>
      </trkpt>
      <trkpt lat="41.1788500" lon="-8.6782870">
        <ele>22.8</ele>
        <time>2021-05-16T06:03:07Z</time>
      </trkpt>
      <trkpt lat="41.1788650" lon="-8.6782940">
        <ele>22.7</ele>
        <time>2021-05-16T06:03:08Z</time>
      </trkpt>
      <trkpt lat="41.1788890" lon="-8.6783130">
        <ele>22.7</ele>
        <time>2021-05-16T06:03:09Z</time>
      </trkpt>
      <trkpt lat="41.1788980" lon="-8.6783200">
        <ele>22.7</ele>
        <time>2021-05-16T06:03:10Z</time>
      </trkpt>
      <trkpt lat="41.1789100" lon="-8.6783320">
        <ele>22.7</ele>
        <time>2021-05-16T06:03:11Z</time>
      </trkpt>
      <trkpt lat="41.1789180" lon="-8.6783450">
        <ele>22.7</ele>
        <time>2021-05-16T06:03:12Z</time>
      </trkpt>
      <trkpt lat="41.1789360" lon="-8.6783640">
        <ele>22.6</ele>
        <time>2021-05-16T06:03:13Z</time>
      </trkpt>
      <trkpt lat="41.1789460" lon="-8.6783740">
        <ele>22.6</ele>
        <time>2021-05-16T06:03:14Z</time>
      </trkpt>
      <trkpt lat="41.1789590" lon="-8.6783890">
        <ele>22.6</ele>
        <time>2021-05-16T06:03:15Z</time>
      </trkpt>
      <trkpt lat="41.1789700" lon="-8.6783950">
        <ele>22.6</ele>
        <time>2021-05-16T06:03:16Z</time>
      </trkpt>
      <trkpt lat="41.1789830" lon="-8.6784150">
        <ele>22.5</ele>
        <time>2021-05-16T06:03:17Z</time>
      </trkpt>
      <trkpt lat="41.1789920" lon="-8.6784290">
        <ele>22.5</ele>
        <time>2021-05-16T06:03:18Z</time>
      </trkpt>
      <trkpt lat="41.1790040" lon="-8.6784510">
        <ele>22.5</ele>
        <time>2021-05-16T06:03:19Z</time>
      </trkpt>
      <trkpt lat="41.1790090" lon="-8.6784600">
        <ele>22.5</ele>
        <time>2021-05-16T06:03:20Z</time>
      </trkpt>
      <trkpt lat="41.1790140" lon="-8.6784680">
        <ele>22.5</ele>
        <time>2021-05-16T06:03:21Z</time>
      </trkpt>
      <trkpt lat="41.1790280" lon="-8.6784870">
        <ele>22.5</ele>
        <time>2021-05-16T06:03:22Z</time>
      </trkpt>
      <trkpt lat="41.1790350" lon="-8.6785030">
        <ele>22.5</ele>
        <time>2021-05-16T06:03:23Z</time>
      </trkpt>
      <trkpt lat="41.1790420" lon="-8.6785220">
        <ele>22.5</ele>
        <time>2021-05-16T06:03:24Z</time>
      </trkpt>
      <trkpt lat="41.1790470" lon="-8.6785380">
        <ele>22.5</ele>
        <time>2021-05-16T06:03:25Z</time>
      </trkpt>
      <trkpt lat="41.1790570" lon="-8.6785450">
        <ele>22.4</ele>
        <time>2021-05-16T06:03:26Z</time>
      </trkpt>
      <trkpt lat="41.1790660" lon="-8.6785570">
        <ele>22.4</ele>
        <time>2021-05-16T06:03:27Z</time>
      </trkpt>
      <trkpt lat="41.1790690" lon="-8.6785680">
        <ele>22.4</ele>
        <time>2021-05-16T06:03:28Z</time>
      </trkpt>
      <trkpt lat="41.1790820" lon="-8.6785820">
        <ele>22.4</ele>
        <time>2021-05-16T06:03:29Z</time>
      </trkpt>
      <trkpt lat="41.1790910" lon="-8.6785910">
        <ele>22.4</ele>
        <time>2021-05-16T06:03:30Z</time>
      </trkpt>
      <trkpt lat="41.1790960" lon="-8.6786030">
        <ele>22.4</ele>
        <time>2021-05-16T06:03:31Z</time>
      </trkpt>
      <trkpt lat="41.1791090" lon="-8.6786220">
        <ele>22.4</ele>
        <time>2021-05-16T06:03:32Z</time>
      </trkpt>
      <trkpt lat="41.1791160" lon="-8.6786340">
        <ele>22.4</ele>
        <time>2021-05-16T06:03:33Z</time>
      </trkpt>
      <trkpt lat="41.1791150" lon="-8.6786350">
        <ele>22.4</ele>
        <time>2021-05-16T06:03:34Z</time>
      </trkpt>
      <trkpt lat="41.1791330" lon="-8.6786450">
        <ele>22.4</ele>
        <time>2021-05-16T06:03:35Z</time>
      </trkpt>
      <trkpt lat="41.1791350" lon="-8.6786520">
        <ele>22.4</ele>
        <time>2021-05-16T06:03:36Z</time>
      </trkpt>
      <trkpt lat="41.1791460" lon="-8.6786630">
        <ele>22.4</ele>
        <time>2021-05-16T06:03:37Z</time>
      </trkpt>
      <trkpt lat="41.1791570" lon="-8.6786770">
        <ele>22.4</ele>
        <time>2021-05-16T06:03:38Z</time>
      </trkpt>
      <trkpt lat="41.1791680" lon="-8.6786890">
        <ele>22.4</ele>
        <time>2021-05-16T06:03:39Z</time>
      </trkpt>
      <trkpt lat="41.1791770" lon="-8.6787050">
        <ele>22.4</ele>
        <time>2021-05-16T06:03:40Z</time>
      </trkpt>
      <trkpt lat="41.1791890" lon="-8.6787170">
        <ele>22.4</ele>
        <time>2021-05-16T06:03:41Z</time>
      </trkpt>
      <trkpt lat="41.1791990" lon="-8.6787310">
        <ele>22.3</ele>
        <time>2021-05-16T06:03:42Z</time>
      </trkpt>
      <trkpt lat="41.1792170" lon="-8.6787370">
        <ele>22.2</ele>
        <time>2021-05-16T06:03:43Z</time>
      </trkpt>
      <trkpt lat="41.1792230" lon="-8.6787480">
        <ele>22.2</ele>
        <time>2021-05-16T06:03:44Z</time>
      </trkpt>
      <trkpt lat="41.1792350" lon="-8.6787530">
        <ele>22.1</ele>
        <time>2021-05-16T06:03:45Z</time>
      </trkpt>
      <trkpt lat="41.1792530" lon="-8.6787600">
        <ele>22.0</ele>
        <time>2021-05-16T06:03:46Z</time>
      </trkpt>
      <trkpt lat="41.1792570" lon="-8.6787780">
        <ele>22.0</ele>
        <time>2021-05-16T06:03:47Z</time>
      </trkpt>
      <trkpt lat="41.1792720" lon="-8.6787870">
        <ele>21.9</ele>
        <time>2021-05-16T06:03:48Z</time>
      </trkpt>
      <trkpt lat="41.1792840" lon="-8.6788000">
        <ele>21.8</ele>
        <time>2021-05-16T06:03:49Z</time>
      </trkpt>
      <trkpt lat="41.1792960" lon="-8.6788120">
        <ele>21.8</ele>
        <time>2021-05-16T06:03:50Z</time>
      </trkpt>
      <trkpt lat="41.1793020" lon="-8.6788180">
        <ele>21.8</ele>
        <time>2021-05-16T06:03:51Z</time>
      </trkpt>
      <trkpt lat="41.1793240" lon="-8.6788210">
        <ele>21.7</ele>
        <time>2021-05-16T06:03:52Z</time>
      </trkpt>
      <trkpt lat="41.1793310" lon="-8.6788220">
        <ele>21.7</ele>
        <time>2021-05-16T06:03:53Z</time>
      </trkpt>
      <trkpt lat="41.1793460" lon="-8.6788310">
        <ele>21.7</ele>
        <time>2021-05-16T06:03:54Z</time>
      </trkpt>
      <trkpt lat="41.1793550" lon="-8.6788420">
        <ele>21.6</ele>
        <time>2021-05-16T06:03:55Z</time>
      </trkpt>
      <trkpt lat="41.1793760" lon="-8.6788540">
        <ele>21.6</ele>
        <time>2021-05-16T06:03:56Z</time>
      </trkpt>
      <trkpt lat="41.1793850" lon="-8.6788640">
        <ele>21.6</ele>
        <time>2021-05-16T06:03:57Z</time>
      </trkpt>
      <trkpt lat="41.1793900" lon="-8.6788700">
        <ele>21.5</ele>
        <time>2021-05-16T06:03:59Z</time>
      </trkpt>
      <trkpt lat="41.1794080" lon="-8.6788840">
        <ele>21.5</ele>
        <time>2021-05-16T06:04:00Z</time>
      </trkpt>
      <trkpt lat="41.1794230" lon="-8.6788950">
        <ele>21.5</ele>
        <time>2021-05-16T06:04:01Z</time>
      </trkpt>
      <trkpt lat="41.1794340" lon="-8.6788970">
        <ele>21.4</ele>
        <time>2021-05-16T06:04:02Z</time>
      </trkpt>
      <trkpt lat="41.1794450" lon="-8.6789000">
        <ele>21.4</ele>
        <time>2021-05-16T06:04:03Z</time>
      </trkpt>
      <trkpt lat="41.1794560" lon="-8.6789100">
        <ele>21.4</ele>
        <time>2021-05-16T06:04:04Z</time>
      </trkpt>
      <trkpt lat="41.1794730" lon="-8.6789190">
        <ele>21.3</ele>
        <time>2021-05-16T06:04:05Z</time>
      </trkpt>
      <trkpt lat="41.1794830" lon="-8.6789300">
        <ele>21.3</ele>
        <time>2021-05-16T06:04:06Z</time>
      </trkpt>
      <trkpt lat="41.1795000" lon="-8.6789470">
        <ele>21.2</ele>
        <time>2021-05-16T06:04:07Z</time>
      </trkpt>
      <trkpt lat="41.1795090" lon="-8.6789500">
        <ele>21.2</ele>
        <time>2021-05-16T06:04:08Z</time>
      </trkpt>
      <trkpt lat="41.1795140" lon="-8.6789530">
        <ele>21.2</ele>
        <time>2021-05-16T06:04:09Z</time>
      </trkpt>
      <trkpt lat="41.1795160" lon="-8.6789680">
        <ele>21.2</ele>
        <time>2021-05-16T06:04:10Z</time>
      </trkpt>
      <trkpt lat="41.1795200" lon="-8.6789830">
        <ele>21.2</ele>
        <time>2021-05-16T06:04:11Z</time>
      </trkpt>
      <trkpt lat="41.1795290" lon="-8.6789970">
        <ele>21.1</ele>
        <time>2021-05-16T06:04:12Z</time>
      </trkpt>
      <trkpt lat="41.1795390" lon="-8.6790100">
        <ele>21.1</ele>
        <time>2021-05-16T06:04:13Z</time>
      </trkpt>
      <trkpt lat="41.1795540" lon="-8.6790200">
        <ele>21.1</ele>
        <time>2021-05-16T06:04:14Z</time>
      </trkpt>
      <trkpt lat="41.1795620" lon="-8.6790280">
        <ele>21.0</ele>
        <time>2021-05-16T06:04:15Z</time>
      </trkpt>
      <trkpt lat="41.1795700" lon="-8.6790360">
        <ele>21.0</ele>
        <time>2021-05-16T06:04:16Z</time>
      </trkpt>
      <trkpt lat="41.1795800" lon="-8.6790500">
        <ele>21.0</ele>
        <time>2021-05-16T06:04:17Z</time>
      </trkpt>
      <trkpt lat="41.1795710" lon="-8.6790550">
        <ele>20.9</ele>
        <time>2021-05-16T06:04:18Z</time>
      </trkpt>
      <trkpt lat="41.1795910" lon="-8.6790660">
        <ele>20.9</ele>
        <time>2021-05-16T06:04:19Z</time>
      </trkpt>
      <trkpt lat="41.1796010" lon="-8.6790740">
        <ele>20.9</ele>
        <time>2021-05-16T06:04:20Z</time>
      </trkpt>
      <trkpt lat="41.1796180" lon="-8.6790890">
        <ele>20.8</ele>
        <time>2021-05-16T06:04:21Z</time>
      </trkpt>
      <trkpt lat="41.1796320" lon="-8.6791040">
        <ele>20.8</ele>
        <time>2021-05-16T06:04:22Z</time>
      </trkpt>
      <trkpt lat="41.1796470" lon="-8.6791150">
        <ele>20.8</ele>
        <time>2021-05-16T06:04:23Z</time>
      </trkpt>
      <trkpt lat="41.1796580" lon="-8.6791310">
        <ele>20.7</ele>
        <time>2021-05-16T06:04:24Z</time>
      </trkpt>
      <trkpt lat="41.1796680" lon="-8.6791450">
        <ele>20.7</ele>
        <time>2021-05-16T06:04:25Z</time>
      </trkpt>
      <trkpt lat="41.1796840" lon="-8.6791580">
        <ele>20.7</ele>
        <time>2021-05-16T06:04:26Z</time>
      </trkpt>
      <trkpt lat="41.1796980" lon="-8.6791700">
        <ele>20.7</ele>
        <time>2021-05-16T06:04:27Z</time>
      </trkpt>
      <trkpt lat="41.1797190" lon="-8.6792030">
        <ele>20.6</ele>
        <time>2021-05-16T06:04:28Z</time>
      </trkpt>
      <trkpt lat="41.1797250" lon="-8.6792140">
        <ele>20.6</ele>
        <time>2021-05-16T06:04:29Z</time>
      </trkpt>
      <trkpt lat="41.1797400" lon="-8.6792420">
        <ele>20.6</ele>
        <time>2021-05-16T06:04:30Z</time>
      </trkpt>
      <trkpt lat="41.1797460" lon="-8.6792540">
        <ele>20.6</ele>
        <time>2021-05-16T06:04:31Z</time>
      </trkpt>
      <trkpt lat="41.1797670" lon="-8.6792850">
        <ele>20.6</ele>
        <time>2021-05-16T06:04:32Z</time>
      </trkpt>
      <trkpt lat="41.1797720" lon="-8.6792940">
        <ele>20.6</ele>
        <time>2021-05-16T06:04:33Z</time>
      </trkpt>
      <trkpt lat="41.1797950" lon="-8.6793170">
        <ele>20.6</ele>
        <time>2021-05-16T06:04:34Z</time>
      </trkpt>
      <trkpt lat="41.1798030" lon="-8.6793250">
        <ele>20.5</ele>
        <time>2021-05-16T06:04:35Z</time>
      </trkpt>
      <trkpt lat="41.1798150" lon="-8.6793360">
        <ele>20.5</ele>
        <time>2021-05-16T06:04:36Z</time>
      </trkpt>
      <trkpt lat="41.1798260" lon="-8.6793500">
        <ele>20.5</ele>
        <time>2021-05-16T06:04:37Z</time>
      </trkpt>
      <trkpt lat="41.1798390" lon="-8.6793710">
        <ele>20.5</ele>
        <time>2021-05-16T06:04:38Z</time>
      </trkpt>
      <trkpt lat="41.1798530" lon="-8.6793810">
        <ele>20.5</ele>
        <time>2021-05-16T06:04:39Z</time>
      </trkpt>
      <trkpt lat="41.1798630" lon="-8.6794010">
        <ele>20.5</ele>
        <time>2021-05-16T06:04:40Z</time>
      </trkpt>
      <trkpt lat="41.1798700" lon="-8.6794110">
        <ele>20.5</ele>
        <time>2021-05-16T06:04:41Z</time>
      </trkpt>
      <trkpt lat="41.1798760" lon="-8.6794200">
        <ele>20.5</ele>
        <time>2021-05-16T06:04:42Z</time>
      </trkpt>
      <trkpt lat="41.1798910" lon="-8.6794280">
        <ele>20.5</ele>
        <time>2021-05-16T06:04:43Z</time>
      </trkpt>
      <trkpt lat="41.1799020" lon="-8.6794360">
        <ele>20.5</ele>
        <time>2021-05-16T06:04:44Z</time>
      </trkpt>
      <trkpt lat="41.1799150" lon="-8.6794520">
        <ele>20.5</ele>
        <time>2021-05-16T06:04:45Z</time>
      </trkpt>
      <trkpt lat="41.1799260" lon="-8.6794690">
        <ele>20.5</ele>
        <time>2021-05-16T06:04:46Z</time>
      </trkpt>
      <trkpt lat="41.1799310" lon="-8.6794660">
        <ele>20.5</ele>
        <time>2021-05-16T06:04:47Z</time>
      </trkpt>
      <trkpt lat="41.1799370" lon="-8.6794860">
        <ele>20.5</ele>
        <time>2021-05-16T06:04:48Z</time>
      </trkpt>
      <trkpt lat="41.1799440" lon="-8.6795000">
        <ele>20.5</ele>
        <time>2021-05-16T06:04:49Z</time>
      </trkpt>
      <trkpt lat="41.1799520" lon="-8.6795150">
        <ele>20.6</ele>
        <time>2021-05-16T06:04:50Z</time>
      </trkpt>
      <trkpt lat="41.1799490" lon="-8.6795380">
        <ele>20.6</ele>
        <time>2021-05-16T06:04:51Z</time>
      </trkpt>
      <trkpt lat="41.1799540" lon="-8.6795640">
        <ele>20.6</ele>
        <time>2021-05-16T06:04:52Z</time>
      </trkpt>
      <trkpt lat="41.1799580" lon="-8.6795740">
        <ele>20.6</ele>
        <time>2021-05-16T06:04:53Z</time>
      </trkpt>
      <trkpt lat="41.1799620" lon="-8.6795840">
        <ele>20.6</ele>
        <time>2021-05-16T06:04:54Z</time>
      </trkpt>
      <trkpt lat="41.1799700" lon="-8.6796020">
        <ele>20.6</ele>
        <time>2021-05-16T06:04:55Z</time>
      </trkpt>
      <trkpt lat="41.1799820" lon="-8.6796100">
        <ele>20.6</ele>
        <time>2021-05-16T06:04:56Z</time>
      </trkpt>
      <trkpt lat="41.1799980" lon="-8.6796250">
        <ele>20.6</ele>
        <time>2021-05-16T06:04:57Z</time>
      </trkpt>
      <trkpt lat="41.1800130" lon="-8.6796360">
        <ele>20.6</ele>
        <time>2021-05-16T06:04:58Z</time>
      </trkpt>
      <trkpt lat="41.1800210" lon="-8.6796460">
        <ele>20.6</ele>
        <time>2021-05-16T06:04:59Z</time>
      </trkpt>
      <trkpt lat="41.1800400" lon="-8.6796570">
        <ele>20.6</ele>
        <time>2021-05-16T06:05:00Z</time>
      </trkpt>
      <trkpt lat="41.1800680" lon="-8.6796780">
        <ele>20.6</ele>
        <time>2021-05-16T06:05:01Z</time>
      </trkpt>
      <trkpt lat="41.1800780" lon="-8.6796910">
        <ele>20.6</ele>
        <time>2021-05-16T06:05:02Z</time>
      </trkpt>
      <trkpt lat="41.1801020" lon="-8.6797140">
        <ele>20.7</ele>
        <time>2021-05-16T06:05:03Z</time>
      </trkpt>
      <trkpt lat="41.1801130" lon="-8.6797260">
        <ele>20.7</ele>
        <time>2021-05-16T06:05:04Z</time>
      </trkpt>
      <trkpt lat="41.1801290" lon="-8.6797300">
        <ele>20.7</ele>
        <time>2021-05-16T06:05:05Z</time>
      </trkpt>
      <trkpt lat="41.1801450" lon="-8.6797410">
        <ele>20.7</ele>
        <time>2021-05-16T06:05:06Z</time>
      </trkpt>
      <trkpt lat="41.1801690" lon="-8.6797610">
        <ele>20.7</ele>
        <time>2021-05-16T06:05:07Z</time>
      </trkpt>
      <trkpt lat="41.1801780" lon="-8.6797710">
        <ele>20.8</ele>
        <time>2021-05-16T06:05:08Z</time>
      </trkpt>
      <trkpt lat="41.1801890" lon="-8.6797960">
        <ele>20.8</ele>
        <time>2021-05-16T06:05:09Z</time>
      </trkpt>
      <trkpt lat="41.1802090" lon="-8.6798260">
        <ele>20.8</ele>
        <time>2021-05-16T06:05:10Z</time>
      </trkpt>
      <trkpt lat="41.1802130" lon="-8.6798370">
        <ele>20.8</ele>
        <time>2021-05-16T06:05:11Z</time>
      </trkpt>
      <trkpt lat="41.1802280" lon="-8.6798540">
        <ele>20.9</ele>
        <time>2021-05-16T06:05:12Z</time>
      </trkpt>
      <trkpt lat="41.1802320" lon="-8.6798760">
        <ele>20.9</ele>
        <time>2021-05-16T06:05:13Z</time>
      </trkpt>
      <trkpt lat="41.1802440" lon="-8.6798870">
        <ele>20.9</ele>
        <time>2021-05-16T06:05:14Z</time>
      </trkpt>
      <trkpt lat="41.1802490" lon="-8.6799070">
        <ele>20.9</ele>
        <time>2021-05-16T06:05:15Z</time>
      </trkpt>
      <trkpt lat="41.1802530" lon="-8.6799240">
        <ele>21.0</ele>
        <time>2021-05-16T06:05:16Z</time>
      </trkpt>
      <trkpt lat="41.1802560" lon="-8.6799360">
        <ele>21.0</ele>
        <time>2021-05-16T06:05:17Z</time>
      </trkpt>
      <trkpt lat="41.1802570" lon="-8.6799520">
        <ele>21.0</ele>
        <time>2021-05-16T06:05:18Z</time>
      </trkpt>
      <trkpt lat="41.1802520" lon="-8.6799890">
        <ele>21.0</ele>
        <time>2021-05-16T06:05:19Z</time>
      </trkpt>
      <trkpt lat="41.1802540" lon="-8.6800140">
        <ele>21.1</ele>
        <time>2021-05-16T06:05:20Z</time>
      </trkpt>
      <trkpt lat="41.1802520" lon="-8.6800330">
        <ele>21.1</ele>
        <time>2021-05-16T06:05:21Z</time>
      </trkpt>
      <trkpt lat="41.1802480" lon="-8.6800520">
        <ele>21.1</ele>
        <time>2021-05-16T06:05:22Z</time>
      </trkpt>
      <trkpt lat="41.1802630" lon="-8.6800740">
        <ele>21.2</ele>
        <time>2021-05-16T06:05:23Z</time>
      </trkpt>
      <trkpt lat="41.1802610" lon="-8.6800790">
        <ele>21.2</ele>
        <time>2021-05-16T06:05:24Z</time>
      </trkpt>
      <trkpt lat="41.1802620" lon="-8.6800840">
        <ele>21.2</ele>
        <time>2021-05-16T06:05:25Z</time>
      </trkpt>
      <trkpt lat="41.1802650" lon="-8.6801000">
        <ele>21.2</ele>
        <time>2021-05-16T06:05:26Z</time>
      </trkpt>
      <trkpt lat="41.1802720" lon="-8.6801150">
        <ele>21.2</ele>
        <time>2021-05-16T06:05:27Z</time>
      </trkpt>
      <trkpt lat="41.1802830" lon="-8.6801280">
        <ele>21.2</ele>
        <time>2021-05-16T06:05:28Z</time>
      </trkpt>
      <trkpt lat="41.1802900" lon="-8.6801440">
        <ele>21.3</ele>
        <time>2021-05-16T06:05:29Z</time>
      </trkpt>
      <trkpt lat="41.1803060" lon="-8.6801660">
        <ele>21.3</ele>
        <time>2021-05-16T06:05:30Z</time>
      </trkpt>
      <trkpt lat="41.1803140" lon="-8.6801770">
        <ele>21.3</ele>
        <time>2021-05-16T06:05:31Z</time>
      </trkpt>
      <trkpt lat="41.1803220" lon="-8.6801880">
        <ele>21.3</ele>
        <time>2021-05-16T06:05:32Z</time>
      </trkpt>
      <trkpt lat="41.1803350" lon="-8.6802140">
        <ele>21.4</ele>
        <time>2021-05-16T06:05:33Z</time>
      </trkpt>
      <trkpt lat="41.1803380" lon="-8.6802260">
        <ele>21.4</ele>
        <time>2021-05-16T06:05:34Z</time>
      </trkpt>
      <trkpt lat="41.1803410" lon="-8.6802380">
        <ele>21.4</ele>
        <time>2021-05-16T06:05:35Z</time>
      </trkpt>
      <trkpt lat="41.1803510" lon="-8.6802690">
        <ele>21.4</ele>
        <time>2021-05-16T06:05:36Z</time>
      </trkpt>
      <trkpt lat="41.1803540" lon="-8.6802840">
        <ele>21.5</ele>
        <time>2021-05-16T06:05:37Z</time>
      </trkpt>
      <trkpt lat="41.1803580" lon="-8.6802980">
        <ele>21.5</ele>
        <time>2021-05-16T06:05:38Z</time>
      </trkpt>
      <trkpt lat="41.1803640" lon="-8.6803110">
        <ele>21.5</ele>
        <time>2021-05-16T06:05:39Z</time>
      </trkpt>
      <trkpt lat="41.1803670" lon="-8.6803350">
        <ele>21.5</ele>
        <time>2021-05-16T06:05:40Z</time>
      </trkpt>
      <trkpt lat="41.1803740" lon="-8.6803700">
        <ele>21.5</ele>
        <time>2021-05-16T06:05:41Z</time>
      </trkpt>
      <trkpt lat="41.1803750" lon="-8.6803840">
        <ele>21.6</ele>
        <time>2021-05-16T06:05:42Z</time>
      </trkpt>
      <trkpt lat="41.1803810" lon="-8.6804090">
        <ele>21.6</ele>
        <time>2021-05-16T06:05:43Z</time>
      </trkpt>
      <trkpt lat="41.1803900" lon="-8.6804240">
        <ele>21.6</ele>
        <time>2021-05-16T06:05:44Z</time>
      </trkpt>
      <trkpt lat="41.1803870" lon="-8.6804320">
        <ele>21.6</ele>
        <time>2021-05-16T06:05:45Z</time>
      </trkpt>
      <trkpt lat="41.1803860" lon="-8.6804500">
        <ele>21.6</ele>
        <time>2021-05-16T06:05:46Z</time>
      </trkpt>
      <trkpt lat="41.1803910" lon="-8.6804660">
        <ele>21.6</ele>
        <time>2021-05-16T06:05:47Z</time>
      </trkpt>
      <trkpt lat="41.1803890" lon="-8.6804740">
        <ele>21.7</ele>
        <time>2021-05-16T06:05:48Z</time>
      </trkpt>
      <trkpt lat="41.1803890" lon="-8.6804770">
        <ele>21.7</ele>
        <time>2021-05-16T06:05:49Z</time>
      </trkpt>
      <trkpt lat="41.1803880" lon="-8.6804810">
        <ele>21.7</ele>
        <time>2021-05-16T06:05:50Z</time>
      </trkpt>
      <trkpt lat="41.1803880" lon="-8.6804940">
        <ele>21.7</ele>
        <time>2021-05-16T06:05:51Z</time>
      </trkpt>
      <trkpt lat="41.1803920" lon="-8.6805120">
        <ele>21.7</ele>
        <time>2021-05-16T06:05:52Z</time>
      </trkpt>
      <trkpt lat="41.1803960" lon="-8.6805350">
        <ele>21.7</ele>
        <time>2021-05-16T06:05:53Z</time>
      </trkpt>
      <trkpt lat="41.1803960" lon="-8.6805580">
        <ele>21.7</ele>
        <time>2021-05-16T06:05:54Z</time>
      </trkpt>
      <trkpt lat="41.1803900" lon="-8.6805800">
        <ele>21.8</ele>
        <time>2021-05-16T06:05:55Z</time>
      </trkpt>
      <trkpt lat="41.1803930" lon="-8.6805940">
        <ele>21.8</ele>
        <time>2021-05-16T06:05:56Z</time>
      </trkpt>
      <trkpt lat="41.1803990" lon="-8.6806130">
        <ele>21.8</ele>
        <time>2021-05-16T06:05:57Z</time>
      </trkpt>
      <trkpt lat="41.1803990" lon="-8.6806290">
        <ele>21.8</ele>
        <time>2021-05-16T06:05:58Z</time>
      </trkpt>
      <trkpt lat="41.1804050" lon="-8.6806550">
        <ele>21.9</ele>
        <time>2021-05-16T06:05:59Z</time>
      </trkpt>
      <trkpt lat="41.1804070" lon="-8.6806720">
        <ele>21.9</ele>
        <time>2021-05-16T06:06:00Z</time>
      </trkpt>
      <trkpt lat="41.1804090" lon="-8.6806880">
        <ele>21.9</ele>
        <time>2021-05-16T06:06:01Z</time>
      </trkpt>
      <trkpt lat="41.1804120" lon="-8.6807090">
        <ele>21.9</ele>
        <time>2021-05-16T06:06:02Z</time>
      </trkpt>
      <trkpt lat="41.1804110" lon="-8.6807240">
        <ele>21.9</ele>
        <time>2021-05-16T06:06:03Z</time>
      </trkpt>
      <trkpt lat="41.1804110" lon="-8.6807390">
        <ele>22.0</ele>
        <time>2021-05-16T06:06:04Z</time>
      </trkpt>
      <trkpt lat="41.1804130" lon="-8.6807530">
        <ele>22.0</ele>
        <time>2021-05-16T06:06:05Z</time>
      </trkpt>
      <trkpt lat="41.1804130" lon="-8.6807650">
        <ele>22.0</ele>
        <time>2021-05-16T06:06:06Z</time>
      </trkpt>
      <trkpt lat="41.1804190" lon="-8.6807930">
        <ele>22.0</ele>
        <time>2021-05-16T06:06:07Z</time>
      </trkpt>
      <trkpt lat="41.1804240" lon="-8.6808100">
        <ele>22.1</ele>
        <time>2021-05-16T06:06:08Z</time>
      </trkpt>
      <trkpt lat="41.1804320" lon="-8.6808490">
        <ele>22.1</ele>
        <time>2021-05-16T06:06:09Z</time>
      </trkpt>
      <trkpt lat="41.1804380" lon="-8.6808590">
        <ele>22.1</ele>
        <time>2021-05-16T06:06:10Z</time>
      </trkpt>
      <trkpt lat="41.1804570" lon="-8.6808910">
        <ele>22.1</ele>
        <time>2021-05-16T06:06:11Z</time>
      </trkpt>
      <trkpt lat="41.1804600" lon="-8.6809020">
        <ele>22.1</ele>
        <time>2021-05-16T06:06:12Z</time>
      </trkpt>
      <trkpt lat="41.1804700" lon="-8.6809220">
        <ele>22.1</ele>
        <time>2021-05-16T06:06:14Z</time>
      </trkpt>
      <trkpt lat="41.1804610" lon="-8.6809390">
        <ele>22.2</ele>
        <time>2021-05-16T06:06:15Z</time>
      </trkpt>
      <trkpt lat="41.1804670" lon="-8.6809530">
        <ele>22.3</ele>
        <time>2021-05-16T06:06:16Z</time>
      </trkpt>
      <trkpt lat="41.1804580" lon="-8.6809630">
        <ele>22.3</ele>
        <time>2021-05-16T06:06:17Z</time>
      </trkpt>
      <trkpt lat="41.1804520" lon="-8.6809800">
        <ele>22.3</ele>
        <time>2021-05-16T06:06:18Z</time>
      </trkpt>
      <trkpt lat="41.1804320" lon="-8.6810090">
        <ele>22.3</ele>
        <time>2021-05-16T06:06:19Z</time>
      </trkpt>
      <trkpt lat="41.1804240" lon="-8.6810190">
        <ele>22.3</ele>
        <time>2021-05-16T06:06:20Z</time>
      </trkpt>
      <trkpt lat="41.1804060" lon="-8.6810340">
        <ele>22.3</ele>
        <time>2021-05-16T06:06:21Z</time>
      </trkpt>
      <trkpt lat="41.1804020" lon="-8.6810550">
        <ele>22.3</ele>
        <time>2021-05-16T06:06:22Z</time>
      </trkpt>
      <trkpt lat="41.1804000" lon="-8.6810750">
        <ele>22.3</ele>
        <time>2021-05-16T06:06:23Z</time>
      </trkpt>
      <trkpt lat="41.1804030" lon="-8.6810950">
        <ele>22.4</ele>
        <time>2021-05-16T06:06:24Z</time>
      </trkpt>
      <trkpt lat="41.1804170" lon="-8.6811190">
        <ele>22.4</ele>
        <time>2021-05-16T06:06:25Z</time>
      </trkpt>
      <trkpt lat="41.1804230" lon="-8.6811350">
        <ele>22.4</ele>
        <time>2021-05-16T06:06:26Z</time>
      </trkpt>
      <trkpt lat="41.1804370" lon="-8.6811580">
        <ele>22.4</ele>
        <time>2021-05-16T06:06:27Z</time>
      </trkpt>
      <trkpt lat="41.1804410" lon="-8.6811740">
        <ele>22.4</ele>
        <time>2021-05-16T06:06:28Z</time>
      </trkpt>
      <trkpt lat="41.1804500" lon="-8.6812160">
        <ele>22.4</ele>
        <time>2021-05-16T06:06:29Z</time>
      </trkpt>
      <trkpt lat="41.1804500" lon="-8.6812250">
        <ele>22.4</ele>
        <time>2021-05-16T06:06:30Z</time>
      </trkpt>
      <trkpt lat="41.1804640" lon="-8.6812610">
        <ele>22.5</ele>
        <time>2021-05-16T06:06:31Z</time>
      </trkpt>
      <trkpt lat="41.1804660" lon="-8.6812680">
        <ele>22.5</ele>
        <time>2021-05-16T06:06:32Z</time>
      </trkpt>
      <trkpt lat="41.1804610" lon="-8.6812870">
        <ele>22.5</ele>
        <time>2021-05-16T06:06:33Z</time>
      </trkpt>
      <trkpt lat="41.1804730" lon="-8.6813110">
        <ele>22.5</ele>
        <time>2021-05-16T06:06:34Z</time>
      </trkpt>
      <trkpt lat="41.1804890" lon="-8.6813380">
        <ele>22.5</ele>
        <time>2021-05-16T06:06:35Z</time>
      </trkpt>
      <trkpt lat="41.1804880" lon="-8.6813540">
        <ele>22.5</ele>
        <time>2021-05-16T06:06:36Z</time>
      </trkpt>
      <trkpt lat="41.1804930" lon="-8.6813760">
        <ele>22.5</ele>
        <time>2021-05-16T06:06:37Z</time>
      </trkpt>
      <trkpt lat="41.1804940" lon="-8.6813890">
        <ele>22.5</ele>
        <time>2021-05-16T06:06:38Z</time>
      </trkpt>
      <trkpt lat="41.1804960" lon="-8.6814030">
        <ele>22.5</ele>
        <time>2021-05-16T06:06:39Z</time>
      </trkpt>
      <trkpt lat="41.1804900" lon="-8.6814250">
        <ele>22.5</ele>
        <time>2021-05-16T06:06:40Z</time>
      </trkpt>
      <trkpt lat="41.1804970" lon="-8.6814430">
        <ele>22.6</ele>
        <time>2021-05-16T06:06:41Z</time>
      </trkpt>
      <trkpt lat="41.1805000" lon="-8.6814730">
        <ele>22.6</ele>
        <time>2021-05-16T06:06:42Z</time>
      </trkpt>
      <trkpt lat="41.1804990" lon="-8.6814830">
        <ele>22.6</ele>
        <time>2021-05-16T06:06:43Z</time>
      </trkpt>
      <trkpt lat="41.1804970" lon="-8.6814940">
        <ele>22.6</ele>
        <time>2021-05-16T06:06:44Z</time>
      </trkpt>
      <trkpt lat="41.1804910" lon="-8.6815210">
        <ele>22.6</ele>
        <time>2021-05-16T06:06:45Z</time>
      </trkpt>
      <trkpt lat="41.1804910" lon="-8.6815330">
        <ele>22.6</ele>
        <time>2021-05-16T06:06:46Z</time>
      </trkpt>
      <trkpt lat="41.1804900" lon="-8.6815460">
        <ele>22.6</ele>
        <time>2021-05-16T06:06:47Z</time>
      </trkpt>
      <trkpt lat="41.1804880" lon="-8.6815560">
        <ele>22.6</ele>
        <time>2021-05-16T06:06:48Z</time>
      </trkpt>
      <trkpt lat="41.1804970" lon="-8.6815850">
        <ele>22.6</ele>
        <time>2021-05-16T06:06:49Z</time>
      </trkpt>
      <trkpt lat="41.1805020" lon="-8.6815980">
        <ele>22.6</ele>
        <time>2021-05-16T06:06:50Z</time>
      </trkpt>
      <trkpt lat="41.1805130" lon="-8.6816210">
        <ele>22.6</ele>
        <time>2021-05-16T06:06:51Z</time>
      </trkpt>
      <trkpt lat="41.1805360" lon="-8.6816500">
        <ele>22.7</ele>
        <time>2021-05-16T06:06:52Z</time>
      </trkpt>
      <trkpt lat="41.1805530" lon="-8.6816830">
        <ele>22.7</ele>
        <time>2021-05-16T06:06:53Z</time>
      </trkpt>
      <trkpt lat="41.1805590" lon="-8.6816960">
        <ele>22.7</ele>
        <time>2021-05-16T06:06:54Z</time>
      </trkpt>
      <trkpt lat="41.1805710" lon="-8.6817320">
        <ele>22.7</ele>
        <time>2021-05-16T06:06:55Z</time>
      </trkpt>
      <trkpt lat="41.1805790" lon="-8.6817450">
        <ele>22.8</ele>
        <time>2021-05-16T06:06:56Z</time>
      </trkpt>
      <trkpt lat="41.1806000" lon="-8.6817790">
        <ele>22.8</ele>
        <time>2021-05-16T06:06:57Z</time>
      </trkpt>
      <trkpt lat="41.1806050" lon="-8.6817900">
        <ele>22.8</ele>
        <time>2021-05-16T06:06:58Z</time>
      </trkpt>
      <trkpt lat="41.1806310" lon="-8.6818050">
        <ele>22.8</ele>
        <time>2021-05-16T06:06:59Z</time>
      </trkpt>
      <trkpt lat="41.1806400" lon="-8.6818080">
        <ele>22.8</ele>
        <time>2021-05-16T06:07:00Z</time>
      </trkpt>
      <trkpt lat="41.1806670" lon="-8.6818050">
        <ele>22.8</ele>
        <time>2021-05-16T06:07:01Z</time>
      </trkpt>
      <trkpt lat="41.1806770" lon="-8.6818040">
        <ele>22.8</ele>
        <time>2021-05-16T06:07:02Z</time>
      </trkpt>
      <trkpt lat="41.1806880" lon="-8.6818040">
        <ele>22.8</ele>
        <time>2021-05-16T06:07:03Z</time>
      </trkpt>
      <trkpt lat="41.1807150" lon="-8.6818130">
        <ele>22.8</ele>
        <time>2021-05-16T06:07:04Z</time>
      </trkpt>
      <trkpt lat="41.1807240" lon="-8.6818170">
        <ele>22.8</ele>
        <time>2021-05-16T06:07:05Z</time>
      </trkpt>
      <trkpt lat="41.1807510" lon="-8.6818240">
        <ele>22.8</ele>
        <time>2021-05-16T06:07:06Z</time>
      </trkpt>
      <trkpt lat="41.1807600" lon="-8.6818280">
        <ele>22.8</ele>
        <time>2021-05-16T06:07:07Z</time>
      </trkpt>
      <trkpt lat="41.1807790" lon="-8.6818420">
        <ele>22.8</ele>
        <time>2021-05-16T06:07:08Z</time>
      </trkpt>
      <trkpt lat="41.1807870" lon="-8.6818590">
        <ele>22.8</ele>
        <time>2021-05-16T06:07:09Z</time>
      </trkpt>
      <trkpt lat="41.1807980" lon="-8.6818730">
        <ele>22.8</ele>
        <time>2021-05-16T06:07:10Z</time>
      </trkpt>
      <trkpt lat="41.1808080" lon="-8.6818810">
        <ele>22.8</ele>
        <time>2021-05-16T06:07:11Z</time>
      </trkpt>
      <trkpt lat="41.1808120" lon="-8.6818940">
        <ele>22.8</ele>
        <time>2021-05-16T06:07:12Z</time>
      </trkpt>
      <trkpt lat="41.1808240" lon="-8.6819200">
        <ele>22.8</ele>
        <time>2021-05-16T06:07:13Z</time>
      </trkpt>
      <trkpt lat="41.1808280" lon="-8.6819280">
        <ele>22.8</ele>
        <time>2021-05-16T06:07:14Z</time>
      </trkpt>
      <trkpt lat="41.1808330" lon="-8.6819360">
        <ele>22.8</ele>
        <time>2021-05-16T06:07:15Z</time>
      </trkpt>
      <trkpt lat="41.1808470" lon="-8.6819610">
        <ele>22.8</ele>
        <time>2021-05-16T06:07:16Z</time>
      </trkpt>
      <trkpt lat="41.1808560" lon="-8.6819730">
        <ele>22.8</ele>
        <time>2021-05-16T06:07:17Z</time>
      </trkpt>
      <trkpt lat="41.1808610" lon="-8.6819880">
        <ele>22.8</ele>
        <time>2021-05-16T06:07:18Z</time>
      </trkpt>
      <trkpt lat="41.1808690" lon="-8.6820130">
        <ele>22.8</ele>
        <time>2021-05-16T06:07:19Z</time>
      </trkpt>
      <trkpt lat="41.1808730" lon="-8.6820370">
        <ele>22.9</ele>
        <time>2021-05-16T06:07:20Z</time>
      </trkpt>
      <trkpt lat="41.1808710" lon="-8.6820600">
        <ele>22.9</ele>
        <time>2021-05-16T06:07:21Z</time>
      </trkpt>
      <trkpt lat="41.1808730" lon="-8.6820890">
        <ele>22.9</ele>
        <time>2021-05-16T06:07:22Z</time>
      </trkpt>
      <trkpt lat="41.1808830" lon="-8.6821060">
        <ele>22.9</ele>
        <time>2021-05-16T06:07:23Z</time>
      </trkpt>
      <trkpt lat="41.1808930" lon="-8.6821240">
        <ele>23.0</ele>
        <time>2021-05-16T06:07:24Z</time>
      </trkpt>
      <trkpt lat="41.1808890" lon="-8.6821410">
        <ele>23.0</ele>
        <time>2021-05-16T06:07:25Z</time>
      </trkpt>
      <trkpt lat="41.1808940" lon="-8.6821570">
        <ele>23.0</ele>
        <time>2021-05-16T06:07:26Z</time>
      </trkpt>
      <trkpt lat="41.1808940" lon="-8.6821830">
        <ele>23.0</ele>
        <time>2021-05-16T06:07:27Z</time>
      </trkpt>
      <trkpt lat="41.1809040" lon="-8.6822180">
        <ele>23.1</ele>
        <time>2021-05-16T06:07:28Z</time>
      </trkpt>
      <trkpt lat="41.1809060" lon="-8.6822320">
        <ele>23.1</ele>
        <time>2021-05-16T06:07:29Z</time>
      </trkpt>
      <trkpt lat="41.1809100" lon="-8.6822470">
        <ele>23.1</ele>
        <time>2021-05-16T06:07:30Z</time>
      </trkpt>
      <trkpt lat="41.1809220" lon="-8.6822690">
        <ele>23.2</ele>
        <time>2021-05-16T06:07:31Z</time>
      </trkpt>
      <trkpt lat="41.1809310" lon="-8.6822660">
        <ele>23.2</ele>
        <time>2021-05-16T06:07:32Z</time>
      </trkpt>
      <trkpt lat="41.1809450" lon="-8.6822610">
        <ele>23.2</ele>
        <time>2021-05-16T06:07:33Z</time>
      </trkpt>
      <trkpt lat="41.1809550" lon="-8.6822550">
        <ele>23.2</ele>
        <time>2021-05-16T06:07:34Z</time>
      </trkpt>
      <trkpt lat="41.1809640" lon="-8.6822600">
        <ele>23.2</ele>
        <time>2021-05-16T06:07:35Z</time>
      </trkpt>
      <trkpt lat="41.1809690" lon="-8.6822630">
        <ele>23.2</ele>
        <time>2021-05-16T06:07:36Z</time>
      </trkpt>
      <trkpt lat="41.1809800" lon="-8.6822780">
        <ele>23.2</ele>
        <time>2021-05-16T06:07:37Z</time>
      </trkpt>
      <trkpt lat="41.1809900" lon="-8.6822760">
        <ele>23.3</ele>
        <time>2021-05-16T06:07:38Z</time>
      </trkpt>
      <trkpt lat="41.1809920" lon="-8.6822840">
        <ele>23.3</ele>
        <time>2021-05-16T06:07:39Z</time>
      </trkpt>
      <trkpt lat="41.1809980" lon="-8.6822950">
        <ele>23.3</ele>
        <time>2021-05-16T06:07:40Z</time>
      </trkpt>
      <trkpt lat="41.1810050" lon="-8.6823080">
        <ele>23.3</ele>
        <time>2021-05-16T06:07:41Z</time>
      </trkpt>
      <trkpt lat="41.1810210" lon="-8.6823300">
        <ele>23.3</ele>
        <time>2021-05-16T06:07:42Z</time>
      </trkpt>
      <trkpt lat="41.1810260" lon="-8.6823430">
        <ele>23.3</ele>
        <time>2021-05-16T06:07:43Z</time>
      </trkpt>
      <trkpt lat="41.1810300" lon="-8.6823610">
        <ele>23.3</ele>
        <time>2021-05-16T06:07:44Z</time>
      </trkpt>
      <trkpt lat="41.1810360" lon="-8.6823820">
        <ele>23.4</ele>
        <time>2021-05-16T06:07:45Z</time>
      </trkpt>
      <trkpt lat="41.1810370" lon="-8.6823970">
        <ele>23.4</ele>
        <time>2021-05-16T06:07:46Z</time>
      </trkpt>
      <trkpt lat="41.1810460" lon="-8.6824200">
        <ele>23.4</ele>
        <time>2021-05-16T06:07:47Z</time>
      </trkpt>
      <trkpt lat="41.1810520" lon="-8.6824370">
        <ele>23.4</ele>
        <time>2021-05-16T06:07:48Z</time>
      </trkpt>
      <trkpt lat="41.1810580" lon="-8.6824490">
        <ele>23.4</ele>
        <time>2021-05-16T06:07:49Z</time>
      </trkpt>
      <trkpt lat="41.1810660" lon="-8.6824560">
        <ele>23.4</ele>
        <time>2021-05-16T06:07:50Z</time>
      </trkpt>
      <trkpt lat="41.1810790" lon="-8.6824610">
        <ele>23.4</ele>
        <time>2021-05-16T06:07:51Z</time>
      </trkpt>
      <trkpt lat="41.1810910" lon="-8.6824660">
        <ele>23.5</ele>
        <time>2021-05-16T06:07:52Z</time>
      </trkpt>
      <trkpt lat="41.1811000" lon="-8.6824620">
        <ele>23.5</ele>
        <time>2021-05-16T06:07:53Z</time>
      </trkpt>
      <trkpt lat="41.1811070" lon="-8.6824820">
        <ele>23.5</ele>
        <time>2021-05-16T06:07:54Z</time>
      </trkpt>
      <trkpt lat="41.1811050" lon="-8.6824970">
        <ele>23.5</ele>
        <time>2021-05-16T06:07:55Z</time>
      </trkpt>
      <trkpt lat="41.1811040" lon="-8.6825110">
        <ele>23.5</ele>
        <time>2021-05-16T06:07:56Z</time>
      </trkpt>
      <trkpt lat="41.1810940" lon="-8.6825350">
        <ele>23.5</ele>
        <time>2021-05-16T06:07:57Z</time>
      </trkpt>
      <trkpt lat="41.1810980" lon="-8.6825370">
        <ele>23.5</ele>
        <time>2021-05-16T06:07:58Z</time>
      </trkpt>
      <trkpt lat="41.1811050" lon="-8.6825430">
        <ele>23.5</ele>
        <time>2021-05-16T06:07:59Z</time>
      </trkpt>
      <trkpt lat="41.1811020" lon="-8.6825470">
        <ele>23.5</ele>
        <time>2021-05-16T06:08:00Z</time>
      </trkpt>
      <trkpt lat="41.1811200" lon="-8.6825600">
        <ele>23.6</ele>
        <time>2021-05-16T06:08:01Z</time>
      </trkpt>
      <trkpt lat="41.1811300" lon="-8.6825670">
        <ele>23.6</ele>
        <time>2021-05-16T06:08:02Z</time>
      </trkpt>
      <trkpt lat="41.1811410" lon="-8.6825730">
        <ele>23.6</ele>
        <time>2021-05-16T06:08:03Z</time>
      </trkpt>
      <trkpt lat="41.1811460" lon="-8.6825860">
        <ele>23.6</ele>
        <time>2021-05-16T06:08:04Z</time>
      </trkpt>
      <trkpt lat="41.1811650" lon="-8.6825910">
        <ele>23.6</ele>
        <time>2021-05-16T06:08:05Z</time>
      </trkpt>
      <trkpt lat="41.1811930" lon="-8.6825920">
        <ele>23.6</ele>
        <time>2021-05-16T06:08:06Z</time>
      </trkpt>
      <trkpt lat="41.1811970" lon="-8.6825970">
        <ele>23.6</ele>
        <time>2021-05-16T06:08:07Z</time>
      </trkpt>
      <trkpt lat="41.1812010" lon="-8.6826010">
        <ele>23.6</ele>
        <time>2021-05-16T06:08:08Z</time>
      </trkpt>
      <trkpt lat="41.1812190" lon="-8.6826020">
        <ele>23.6</ele>
        <time>2021-05-16T06:08:09Z</time>
      </trkpt>
      <trkpt lat="41.1812360" lon="-8.6826140">
        <ele>23.7</ele>
        <time>2021-05-16T06:08:10Z</time>
      </trkpt>
      <trkpt lat="41.1812570" lon="-8.6826090">
        <ele>23.7</ele>
        <time>2021-05-16T06:08:11Z</time>
      </trkpt>
      <trkpt lat="41.1812770" lon="-8.6826140">
        <ele>23.7</ele>
        <time>2021-05-16T06:08:13Z</time>
      </trkpt>
      <trkpt lat="41.1813010" lon="-8.6826430">
        <ele>23.7</ele>
        <time>2021-05-16T06:08:14Z</time>
      </trkpt>
      <trkpt lat="41.1813050" lon="-8.6826620">
        <ele>23.7</ele>
        <time>2021-05-16T06:08:15Z</time>
      </trkpt>
      <trkpt lat="41.1813100" lon="-8.6826820">
        <ele>23.8</ele>
        <time>2021-05-16T06:08:16Z</time>
      </trkpt>
      <trkpt lat="41.1813170" lon="-8.6826970">
        <ele>23.8</ele>
        <time>2021-05-16T06:08:17Z</time>
      </trkpt>
      <trkpt lat="41.1813260" lon="-8.6827180">
        <ele>23.8</ele>
        <time>2021-05-16T06:08:18Z</time>
      </trkpt>
      <trkpt lat="41.1813370" lon="-8.6827270">
        <ele>23.8</ele>
        <time>2021-05-16T06:08:19Z</time>
      </trkpt>
      <trkpt lat="41.1813360" lon="-8.6827460">
        <ele>23.8</ele>
        <time>2021-05-16T06:08:20Z</time>
      </trkpt>
      <trkpt lat="41.1813450" lon="-8.6827660">
        <ele>23.8</ele>
        <time>2021-05-16T06:08:21Z</time>
      </trkpt>
      <trkpt lat="41.1813560" lon="-8.6827780">
        <ele>23.8</ele>
        <time>2021-05-16T06:08:22Z</time>
      </trkpt>
      <trkpt lat="41.1813640" lon="-8.6827800">
        <ele>23.8</ele>
        <time>2021-05-16T06:08:23Z</time>
      </trkpt>
      <trkpt lat="41.1813690" lon="-8.6827960">
        <ele>23.9</ele>
        <time>2021-05-16T06:08:24Z</time>
      </trkpt>
      <trkpt lat="41.1813790" lon="-8.6828030">
        <ele>23.9</ele>
        <time>2021-05-16T06:08:25Z</time>
      </trkpt>
      <trkpt lat="41.1813880" lon="-8.6828050">
        <ele>23.9</ele>
        <time>2021-05-16T06:08:26Z</time>
      </trkpt>
      <trkpt lat="41.1814000" lon="-8.6828110">
        <ele>23.9</ele>
        <time>2021-05-16T06:08:27Z</time>
      </trkpt>
      <trkpt lat="41.1813990" lon="-8.6828210">
        <ele>23.9</ele>
        <time>2021-05-16T06:08:28Z</time>
      </trkpt>
      <trkpt lat="41.1814080" lon="-8.6828140">
        <ele>23.9</ele>
        <time>2021-05-16T06:08:29Z</time>
      </trkpt>
      <trkpt lat="41.1814230" lon="-8.6828150">
        <ele>23.9</ele>
        <time>2021-05-16T06:08:30Z</time>
      </trkpt>
      <trkpt lat="41.1814330" lon="-8.6828230">
        <ele>23.9</ele>
        <time>2021-05-16T06:08:31Z</time>
      </trkpt>
      <trkpt lat="41.1814390" lon="-8.6828240">
        <ele>23.9</ele>
        <time>2021-05-16T06:08:32Z</time>
      </trkpt>
      <trkpt lat="41.1814430" lon="-8.6828250">
        <ele>23.9</ele>
        <time>2021-05-16T06:08:33Z</time>
      </trkpt>
      <trkpt lat="41.1814620" lon="-8.6828110">
        <ele>24.0</ele>
        <time>2021-05-16T06:08:34Z</time>
      </trkpt>
      <trkpt lat="41.1814760" lon="-8.6827980">
        <ele>24.0</ele>
        <time>2021-05-16T06:08:35Z</time>
      </trkpt>
      <trkpt lat="41.1814900" lon="-8.6827900">
        <ele>24.0</ele>
        <time>2021-05-16T06:08:36Z</time>
      </trkpt>
      <trkpt lat="41.1815150" lon="-8.6827710">
        <ele>24.0</ele>
        <time>2021-05-16T06:08:37Z</time>
      </trkpt>
      <trkpt lat="41.1815290" lon="-8.6827600">
        <ele>24.0</ele>
        <time>2021-05-16T06:08:38Z</time>
      </trkpt>
      <trkpt lat="41.1815420" lon="-8.6827390">
        <ele>24.0</ele>
        <time>2021-05-16T06:08:39Z</time>
      </trkpt>
      <trkpt lat="41.1815560" lon="-8.6827210">
        <ele>24.1</ele>
        <time>2021-05-16T06:08:40Z</time>
      </trkpt>
      <trkpt lat="41.1815710" lon="-8.6827240">
        <ele>24.1</ele>
        <time>2021-05-16T06:08:41Z</time>
      </trkpt>
      <trkpt lat="41.1815870" lon="-8.6827140">
        <ele>24.1</ele>
        <time>2021-05-16T06:08:42Z</time>
      </trkpt>
      <trkpt lat="41.1815970" lon="-8.6827090">
        <ele>24.1</ele>
        <time>2021-05-16T06:08:43Z</time>
      </trkpt>
      <trkpt lat="41.1816190" lon="-8.6826940">
        <ele>24.1</ele>
        <time>2021-05-16T06:08:44Z</time>
      </trkpt>
      <trkpt lat="41.1816260" lon="-8.6826910">
        <ele>24.1</ele>
        <time>2021-05-16T06:08:45Z</time>
      </trkpt>
      <trkpt lat="41.1816340" lon="-8.6826890">
        <ele>24.1</ele>
        <time>2021-05-16T06:08:46Z</time>
      </trkpt>
      <trkpt lat="41.1816360" lon="-8.6826880">
        <ele>24.1</ele>
        <time>2021-05-16T06:08:47Z</time>
      </trkpt>
      <trkpt lat="41.1816480" lon="-8.6826790">
        <ele>24.2</ele>
        <time>2021-05-16T06:08:48Z</time>
      </trkpt>
      <trkpt lat="41.1816580" lon="-8.6826690">
        <ele>24.2</ele>
        <time>2021-05-16T06:08:49Z</time>
      </trkpt>
      <trkpt lat="41.1816820" lon="-8.6826540">
        <ele>24.2</ele>
        <time>2021-05-16T06:08:50Z</time>
      </trkpt>
      <trkpt lat="41.1816950" lon="-8.6826440">
        <ele>24.2</ele>
        <time>2021-05-16T06:08:51Z</time>
      </trkpt>
      <trkpt lat="41.1817060" lon="-8.6826410">
        <ele>24.2</ele>
        <time>2021-05-16T06:08:52Z</time>
      </trkpt>
      <trkpt lat="41.1817250" lon="-8.6826330">
        <ele>24.2</ele>
        <time>2021-05-16T06:08:53Z</time>
      </trkpt>
      <trkpt lat="41.1817550" lon="-8.6826090">
        <ele>24.3</ele>
        <time>2021-05-16T06:08:54Z</time>
      </trkpt>
      <trkpt lat="41.1817620" lon="-8.6826020">
        <ele>24.3</ele>
        <time>2021-05-16T06:08:55Z</time>
      </trkpt>
      <trkpt lat="41.1817760" lon="-8.6826000">
        <ele>24.3</ele>
        <time>2021-05-16T06:08:56Z</time>
      </trkpt>
      <trkpt lat="41.1817840" lon="-8.6826000">
        <ele>24.3</ele>
        <time>2021-05-16T06:08:57Z</time>
      </trkpt>
      <trkpt lat="41.1817920" lon="-8.6826000">
        <ele>24.3</ele>
        <time>2021-05-16T06:08:58Z</time>
      </trkpt>
      <trkpt lat="41.1818000" lon="-8.6826000">
        <ele>24.3</ele>
        <time>2021-05-16T06:08:59Z</time>
      </trkpt>
      <trkpt lat="41.1817880" lon="-8.6826300">
        <ele>24.3</ele>
        <time>2021-05-16T06:09:00Z</time>
      </trkpt>
      <trkpt lat="41.1817970" lon="-8.6826250">
        <ele>24.3</ele>
        <time>2021-05-16T06:09:01Z</time>
      </trkpt>
      <trkpt lat="41.1818040" lon="-8.6826400">
        <ele>24.4</ele>
        <time>2021-05-16T06:09:02Z</time>
      </trkpt>
      <trkpt lat="41.1818100" lon="-8.6826610">
        <ele>24.4</ele>
        <time>2021-05-16T06:09:03Z</time>
      </trkpt>
      <trkpt lat="41.1818210" lon="-8.6826790">
        <ele>24.4</ele>
        <time>2021-05-16T06:09:04Z</time>
      </trkpt>
      <trkpt lat="41.1818290" lon="-8.6826960">
        <ele>24.4</ele>
        <time>2021-05-16T06:09:05Z</time>
      </trkpt>
      <trkpt lat="41.1818410" lon="-8.6827030">
        <ele>24.4</ele>
        <time>2021-05-16T06:09:06Z</time>
      </trkpt>
      <trkpt lat="41.1818710" lon="-8.6827400">
        <ele>24.5</ele>
        <time>2021-05-16T06:09:07Z</time>
      </trkpt>
      <trkpt lat="41.1819050" lon="-8.6827740">
        <ele>24.5</ele>
        <time>2021-05-16T06:09:08Z</time>
      </trkpt>
      <trkpt lat="41.1819370" lon="-8.6827990">
        <ele>24.6</ele>
        <time>2021-05-16T06:09:09Z</time>
      </trkpt>
      <trkpt lat="41.1819690" lon="-8.6828280">
        <ele>24.6</ele>
        <time>2021-05-16T06:09:10Z</time>
      </trkpt>
      <trkpt lat="41.1819790" lon="-8.6828390">
        <ele>24.6</ele>
        <time>2021-05-16T06:09:11Z</time>
      </trkpt>
      <trkpt lat="41.1820180" lon="-8.6828890">
        <ele>24.7</ele>
        <time>2021-05-16T06:09:12Z</time>
      </trkpt>
      <trkpt lat="41.1820360" lon="-8.6829170">
        <ele>24.7</ele>
        <time>2021-05-16T06:09:13Z</time>
      </trkpt>
      <trkpt lat="41.1820560" lon="-8.6829640">
        <ele>24.8</ele>
        <time>2021-05-16T06:09:14Z</time>
      </trkpt>
      <trkpt lat="41.1820780" lon="-8.6829990">
        <ele>24.8</ele>
        <time>2021-05-16T06:09:15Z</time>
      </trkpt>
      <trkpt lat="41.1820820" lon="-8.6830070">
        <ele>24.9</ele>
        <time>2021-05-16T06:09:16Z</time>
      </trkpt>
      <trkpt lat="41.1821040" lon="-8.6830400">
        <ele>24.9</ele>
        <time>2021-05-16T06:09:17Z</time>
      </trkpt>
      <trkpt lat="41.1821310" lon="-8.6830730">
        <ele>24.9</ele>
        <time>2021-05-16T06:09:18Z</time>
      </trkpt>
      <trkpt lat="41.1821340" lon="-8.6830840">
        <ele>25.0</ele>
        <time>2021-05-16T06:09:19Z</time>
      </trkpt>
      <trkpt lat="41.1821410" lon="-8.6830820">
        <ele>25.0</ele>
        <time>2021-05-16T06:09:20Z</time>
      </trkpt>
      <trkpt lat="41.1821530" lon="-8.6830910">
        <ele>25.0</ele>
        <time>2021-05-16T06:09:21Z</time>
      </trkpt>
      <trkpt lat="41.1821720" lon="-8.6831070">
        <ele>25.7</ele>
        <time>2021-05-16T06:09:22Z</time>
      </trkpt>
      <trkpt lat="41.1821890" lon="-8.6831200">
        <ele>25.7</ele>
        <time>2021-05-16T06:09:23Z</time>
      </trkpt>
      <trkpt lat="41.1822030" lon="-8.6831280">
        <ele>25.7</ele>
        <time>2021-05-16T06:09:24Z</time>
      </trkpt>
      <trkpt lat="41.1822130" lon="-8.6831310">
        <ele>25.7</ele>
        <time>2021-05-16T06:09:25Z</time>
      </trkpt>
      <trkpt lat="41.1822220" lon="-8.6831350">
        <ele>25.7</ele>
        <time>2021-05-16T06:09:26Z</time>
      </trkpt>
      <trkpt lat="41.1822310" lon="-8.6831390">
        <ele>25.7</ele>
        <time>2021-05-16T06:09:27Z</time>
      </trkpt>
      <trkpt lat="41.1822440" lon="-8.6831460">
        <ele>25.7</ele>
        <time>2021-05-16T06:09:28Z</time>
      </trkpt>
      <trkpt lat="41.1822570" lon="-8.6831500">
        <ele>25.7</ele>
        <time>2021-05-16T06:09:29Z</time>
      </trkpt>
      <trkpt lat="41.1822800" lon="-8.6831640">
        <ele>25.8</ele>
        <time>2021-05-16T06:09:30Z</time>
      </trkpt>
      <trkpt lat="41.1822900" lon="-8.6831670">
        <ele>25.8</ele>
        <time>2021-05-16T06:09:31Z</time>
      </trkpt>
      <trkpt lat="41.1823160" lon="-8.6831780">
        <ele>25.8</ele>
        <time>2021-05-16T06:09:32Z</time>
      </trkpt>
      <trkpt lat="41.1823260" lon="-8.6831840">
        <ele>25.8</ele>
        <time>2021-05-16T06:09:33Z</time>
      </trkpt>
      <trkpt lat="41.1823420" lon="-8.6831950">
        <ele>25.8</ele>
        <time>2021-05-16T06:09:34Z</time>
      </trkpt>
      <trkpt lat="41.1823520" lon="-8.6831990">
        <ele>25.8</ele>
        <time>2021-05-16T06:09:35Z</time>
      </trkpt>
      <trkpt lat="41.1823610" lon="-8.6831990">
        <ele>25.8</ele>
        <time>2021-05-16T06:09:36Z</time>
      </trkpt>
      <trkpt lat="41.1823810" lon="-8.6832080">
        <ele>25.8</ele>
        <time>2021-05-16T06:09:37Z</time>
      </trkpt>
      <trkpt lat="41.1824000" lon="-8.6832160">
        <ele>25.8</ele>
        <time>2021-05-16T06:09:38Z</time>
      </trkpt>
      <trkpt lat="41.1824150" lon="-8.6832240">
        <ele>25.8</ele>
        <time>2021-05-16T06:09:39Z</time>
      </trkpt>
      <trkpt lat="41.1824310" lon="-8.6832300">
        <ele>25.8</ele>
        <time>2021-05-16T06:09:40Z</time>
      </trkpt>
      <trkpt lat="41.1824440" lon="-8.6832390">
        <ele>25.9</ele>
        <time>2021-05-16T06:09:41Z</time>
      </trkpt>
      <trkpt lat="41.1824520" lon="-8.6832450">
        <ele>25.9</ele>
        <time>2021-05-16T06:09:42Z</time>
      </trkpt>
      <trkpt lat="41.1824520" lon="-8.6832490">
        <ele>25.9</ele>
        <time>2021-05-16T06:09:43Z</time>
      </trkpt>
      <trkpt lat="41.1824670" lon="-8.6832630">
        <ele>25.9</ele>
        <time>2021-05-16T06:09:44Z</time>
      </trkpt>
      <trkpt lat="41.1824930" lon="-8.6832780">
        <ele>25.9</ele>
        <time>2021-05-16T06:09:45Z</time>
      </trkpt>
      <trkpt lat="41.1825020" lon="-8.6832860">
        <ele>25.9</ele>
        <time>2021-05-16T06:09:46Z</time>
      </trkpt>
      <trkpt lat="41.1825310" lon="-8.6833070">
        <ele>25.9</ele>
        <time>2021-05-16T06:09:47Z</time>
      </trkpt>
      <trkpt lat="41.1825390" lon="-8.6833130">
        <ele>25.9</ele>
        <time>2021-05-16T06:09:48Z</time>
      </trkpt>
      <trkpt lat="41.1825470" lon="-8.6833150">
        <ele>25.9</ele>
        <time>2021-05-16T06:09:49Z</time>
      </trkpt>
      <trkpt lat="41.1825590" lon="-8.6833260">
        <ele>25.9</ele>
        <time>2021-05-16T06:09:50Z</time>
      </trkpt>
      <trkpt lat="41.1825640" lon="-8.6833310">
        <ele>25.9</ele>
        <time>2021-05-16T06:09:51Z</time>
      </trkpt>
      <trkpt lat="41.1825850" lon="-8.6833450">
        <ele>25.9</ele>
        <time>2021-05-16T06:09:52Z</time>
      </trkpt>
      <trkpt lat="41.1825920" lon="-8.6833480">
        <ele>25.9</ele>
        <time>2021-05-16T06:09:53Z</time>
      </trkpt>
      <trkpt lat="41.1826140" lon="-8.6833650">
        <ele>26.0</ele>
        <time>2021-05-16T06:09:54Z</time>
      </trkpt>
      <trkpt lat="41.1826200" lon="-8.6833750">
        <ele>26.0</ele>
        <time>2021-05-16T06:09:55Z</time>
      </trkpt>
      <trkpt lat="41.1826270" lon="-8.6833850">
        <ele>26.0</ele>
        <time>2021-05-16T06:09:56Z</time>
      </trkpt>
      <trkpt lat="41.1826390" lon="-8.6833950">
        <ele>26.0</ele>
        <time>2021-05-16T06:09:57Z</time>
      </trkpt>
      <trkpt lat="41.1826530" lon="-8.6834040">
        <ele>26.0</ele>
        <time>2021-05-16T06:09:58Z</time>
      </trkpt>
      <trkpt lat="41.1826620" lon="-8.6834040">
        <ele>26.0</ele>
        <time>2021-05-16T06:09:59Z</time>
      </trkpt>
      <trkpt lat="41.1826690" lon="-8.6834110">
        <ele>26.0</ele>
        <time>2021-05-16T06:10:00Z</time>
      </trkpt>
      <trkpt lat="41.1826780" lon="-8.6834210">
        <ele>26.0</ele>
        <time>2021-05-16T06:10:01Z</time>
      </trkpt>
      <trkpt lat="41.1826900" lon="-8.6834280">
        <ele>26.0</ele>
        <time>2021-05-16T06:10:02Z</time>
      </trkpt>
      <trkpt lat="41.1827040" lon="-8.6834380">
        <ele>26.1</ele>
        <time>2021-05-16T06:10:03Z</time>
      </trkpt>
      <trkpt lat="41.1827270" lon="-8.6834570">
        <ele>26.1</ele>
        <time>2021-05-16T06:10:04Z</time>
      </trkpt>
      <trkpt lat="41.1827400" lon="-8.6834720">
        <ele>26.1</ele>
        <time>2021-05-16T06:10:05Z</time>
      </trkpt>
      <trkpt lat="41.1827560" lon="-8.6834830">
        <ele>26.1</ele>
        <time>2021-05-16T06:10:06Z</time>
      </trkpt>
      <trkpt lat="41.1827800" lon="-8.6835010">
        <ele>26.1</ele>
        <time>2021-05-16T06:10:07Z</time>
      </trkpt>
      <trkpt lat="41.1827890" lon="-8.6835060">
        <ele>26.1</ele>
        <time>2021-05-16T06:10:09Z</time>
      </trkpt>
      <trkpt lat="41.1827990" lon="-8.6835110">
        <ele>26.1</ele>
        <time>2021-05-16T06:10:10Z</time>
      </trkpt>
      <trkpt lat="41.1828080" lon="-8.6835160">
        <ele>26.1</ele>
        <time>2021-05-16T06:10:11Z</time>
      </trkpt>
      <trkpt lat="41.1828180" lon="-8.6835210">
        <ele>26.2</ele>
        <time>2021-05-16T06:10:12Z</time>
      </trkpt>
      <trkpt lat="41.1828320" lon="-8.6835310">
        <ele>26.2</ele>
        <time>2021-05-16T06:10:13Z</time>
      </trkpt>
      <trkpt lat="41.1828490" lon="-8.6835380">
        <ele>26.2</ele>
        <time>2021-05-16T06:10:14Z</time>
      </trkpt>
      <trkpt lat="41.1828590" lon="-8.6835530">
        <ele>26.2</ele>
        <time>2021-05-16T06:10:15Z</time>
      </trkpt>
      <trkpt lat="41.1828590" lon="-8.6835540">
        <ele>26.2</ele>
        <time>2021-05-16T06:10:16Z</time>
      </trkpt>
      <trkpt lat="41.1828710" lon="-8.6835590">
        <ele>26.2</ele>
        <time>2021-05-16T06:10:17Z</time>
      </trkpt>
      <trkpt lat="41.1828850" lon="-8.6835630">
        <ele>26.2</ele>
        <time>2021-05-16T06:10:18Z</time>
      </trkpt>
      <trkpt lat="41.1829030" lon="-8.6835780">
        <ele>26.3</ele>
        <time>2021-05-16T06:10:19Z</time>
      </trkpt>
      <trkpt lat="41.1829090" lon="-8.6835800">
        <ele>26.3</ele>
        <time>2021-05-16T06:10:20Z</time>
      </trkpt>
      <trkpt lat="41.1829120" lon="-8.6835870">
        <ele>26.3</ele>
        <time>2021-05-16T06:10:21Z</time>
      </trkpt>
      <trkpt lat="41.1829250" lon="-8.6835890">
        <ele>26.3</ele>
        <time>2021-05-16T06:10:22Z</time>
      </trkpt>
      <trkpt lat="41.1829310" lon="-8.6835900">
        <ele>26.3</ele>
        <time>2021-05-16T06:10:23Z</time>
      </trkpt>
      <trkpt lat="41.1829480" lon="-8.6835930">
        <ele>26.3</ele>
        <time>2021-05-16T06:10:24Z</time>
      </trkpt>
      <trkpt lat="41.1829590" lon="-8.6835980">
        <ele>26.3</ele>
        <time>2021-05-16T06:10:25Z</time>
      </trkpt>
      <trkpt lat="41.1829690" lon="-8.6836020">
        <ele>26.3</ele>
        <time>2021-05-16T06:10:26Z</time>
      </trkpt>
      <trkpt lat="41.1829830" lon="-8.6836110">
        <ele>26.3</ele>
        <time>2021-05-16T06:10:27Z</time>
      </trkpt>
      <trkpt lat="41.1829940" lon="-8.6836200">
        <ele>26.3</ele>
        <time>2021-05-16T06:10:28Z</time>
      </trkpt>
      <trkpt lat="41.1830020" lon="-8.6836300">
        <ele>26.4</ele>
        <time>2021-05-16T06:10:29Z</time>
      </trkpt>
      <trkpt lat="41.1830220" lon="-8.6836330">
        <ele>26.4</ele>
        <time>2021-05-16T06:10:30Z</time>
      </trkpt>
      <trkpt lat="41.1830370" lon="-8.6836360">
        <ele>26.4</ele>
        <time>2021-05-16T06:10:31Z</time>
      </trkpt>
      <trkpt lat="41.1830450" lon="-8.6836410">
        <ele>26.4</ele>
        <time>2021-05-16T06:10:32Z</time>
      </trkpt>
      <trkpt lat="41.1830560" lon="-8.6836470">
        <ele>26.4</ele>
        <time>2021-05-16T06:10:33Z</time>
      </trkpt>
      <trkpt lat="41.1830750" lon="-8.6836570">
        <ele>26.4</ele>
        <time>2021-05-16T06:10:34Z</time>
      </trkpt>
      <trkpt lat="41.1830900" lon="-8.6836590">
        <ele>26.4</ele>
        <time>2021-05-16T06:10:35Z</time>
      </trkpt>
      <trkpt lat="41.1831010" lon="-8.6836590">
        <ele>26.4</ele>
        <time>2021-05-16T06:10:36Z</time>
      </trkpt>
      <trkpt lat="41.1831060" lon="-8.6836630">
        <ele>26.4</ele>
        <time>2021-05-16T06:10:37Z</time>
      </trkpt>
      <trkpt lat="41.1831190" lon="-8.6836720">
        <ele>26.4</ele>
        <time>2021-05-16T06:10:38Z</time>
      </trkpt>
      <trkpt lat="41.1831310" lon="-8.6836740">
        <ele>26.5</ele>
        <time>2021-05-16T06:10:39Z</time>
      </trkpt>
      <trkpt lat="41.1831390" lon="-8.6836780">
        <ele>26.5</ele>
        <time>2021-05-16T06:10:40Z</time>
      </trkpt>
      <trkpt lat="41.1831520" lon="-8.6836830">
        <ele>26.5</ele>
        <time>2021-05-16T06:10:41Z</time>
      </trkpt>
      <trkpt lat="41.1831680" lon="-8.6836890">
        <ele>26.5</ele>
        <time>2021-05-16T06:10:42Z</time>
      </trkpt>
      <trkpt lat="41.1831790" lon="-8.6837000">
        <ele>26.5</ele>
        <time>2021-05-16T06:10:43Z</time>
      </trkpt>
      <trkpt lat="41.1831920" lon="-8.6837050">
        <ele>26.5</ele>
        <time>2021-05-16T06:10:44Z</time>
      </trkpt>
      <trkpt lat="41.1832110" lon="-8.6837090">
        <ele>26.5</ele>
        <time>2021-05-16T06:10:45Z</time>
      </trkpt>
      <trkpt lat="41.1832330" lon="-8.6837160">
        <ele>26.5</ele>
        <time>2021-05-16T06:10:46Z</time>
      </trkpt>
      <trkpt lat="41.1832420" lon="-8.6837210">
        <ele>26.5</ele>
        <time>2021-05-16T06:10:47Z</time>
      </trkpt>
      <trkpt lat="41.1832520" lon="-8.6837260">
        <ele>26.5</ele>
        <time>2021-05-16T06:10:48Z</time>
      </trkpt>
      <trkpt lat="41.1832640" lon="-8.6837280">
        <ele>26.5</ele>
        <time>2021-05-16T06:10:49Z</time>
      </trkpt>
      <trkpt lat="41.1832680" lon="-8.6837290">
        <ele>26.6</ele>
        <time>2021-05-16T06:10:50Z</time>
      </trkpt>
      <trkpt lat="41.1832820" lon="-8.6837350">
        <ele>26.6</ele>
        <time>2021-05-16T06:10:51Z</time>
      </trkpt>
      <trkpt lat="41.1833020" lon="-8.6837400">
        <ele>26.6</ele>
        <time>2021-05-16T06:10:52Z</time>
      </trkpt>
      <trkpt lat="41.1833110" lon="-8.6837380">
        <ele>26.6</ele>
        <time>2021-05-16T06:10:53Z</time>
      </trkpt>
      <trkpt lat="41.1833190" lon="-8.6837370">
        <ele>26.6</ele>
        <time>2021-05-16T06:10:54Z</time>
      </trkpt>
      <trkpt lat="41.1833440" lon="-8.6837600">
        <ele>26.6</ele>
        <time>2021-05-16T06:10:55Z</time>
      </trkpt>
      <trkpt lat="41.1833490" lon="-8.6837660">
        <ele>26.6</ele>
        <time>2021-05-16T06:10:56Z</time>
      </trkpt>
      <trkpt lat="41.1833640" lon="-8.6837750">
        <ele>26.6</ele>
        <time>2021-05-16T06:10:57Z</time>
      </trkpt>
      <trkpt lat="41.1833800" lon="-8.6837740">
        <ele>26.7</ele>
        <time>2021-05-16T06:10:58Z</time>
      </trkpt>
      <trkpt lat="41.1834010" lon="-8.6837740">
        <ele>26.7</ele>
        <time>2021-05-16T06:10:59Z</time>
      </trkpt>
      <trkpt lat="41.1834140" lon="-8.6837820">
        <ele>26.7</ele>
        <time>2021-05-16T06:11:00Z</time>
      </trkpt>
      <trkpt lat="41.1834440" lon="-8.6838020">
        <ele>26.7</ele>
        <time>2021-05-16T06:11:01Z</time>
      </trkpt>
      <trkpt lat="41.1834570" lon="-8.6838110">
        <ele>26.7</ele>
        <time>2021-05-16T06:11:02Z</time>
      </trkpt>
      <trkpt lat="41.1834800" lon="-8.6838180">
        <ele>26.7</ele>
        <time>2021-05-16T06:11:03Z</time>
      </trkpt>
      <trkpt lat="41.1834830" lon="-8.6838240">
        <ele>26.7</ele>
        <time>2021-05-16T06:11:04Z</time>
      </trkpt>
      <trkpt lat="41.1835120" lon="-8.6838390">
        <ele>26.6</ele>
        <time>2021-05-16T06:11:05Z</time>
      </trkpt>
      <trkpt lat="41.1835460" lon="-8.6838600">
        <ele>26.5</ele>
        <time>2021-05-16T06:11:06Z</time>
      </trkpt>
      <trkpt lat="41.1835560" lon="-8.6838690">
        <ele>26.5</ele>
        <time>2021-05-16T06:11:07Z</time>
      </trkpt>
      <trkpt lat="41.1835780" lon="-8.6839020">
        <ele>26.5</ele>
        <time>2021-05-16T06:11:08Z</time>
      </trkpt>
      <trkpt lat="41.1835880" lon="-8.6839100">
        <ele>26.5</ele>
        <time>2021-05-16T06:11:09Z</time>
      </trkpt>
      <trkpt lat="41.1835950" lon="-8.6839210">
        <ele>26.5</ele>
        <time>2021-05-16T06:11:10Z</time>
      </trkpt>
      <trkpt lat="41.1836080" lon="-8.6839190">
        <ele>26.4</ele>
        <time>2021-05-16T06:11:11Z</time>
      </trkpt>
      <trkpt lat="41.1836110" lon="-8.6839230">
        <ele>26.4</ele>
        <time>2021-05-16T06:11:12Z</time>
      </trkpt>
      <trkpt lat="41.1836200" lon="-8.6839250">
        <ele>26.4</ele>
        <time>2021-05-16T06:11:13Z</time>
      </trkpt>
      <trkpt lat="41.1836390" lon="-8.6839370">
        <ele>26.4</ele>
        <time>2021-05-16T06:11:14Z</time>
      </trkpt>
      <trkpt lat="41.1836470" lon="-8.6839430">
        <ele>26.4</ele>
        <time>2021-05-16T06:11:15Z</time>
      </trkpt>
      <trkpt lat="41.1836560" lon="-8.6839480">
        <ele>26.4</ele>
        <time>2021-05-16T06:11:16Z</time>
      </trkpt>
      <trkpt lat="41.1836620" lon="-8.6839550">
        <ele>26.4</ele>
        <time>2021-05-16T06:11:17Z</time>
      </trkpt>
      <trkpt lat="41.1836690" lon="-8.6839570">
        <ele>26.4</ele>
        <time>2021-05-16T06:11:18Z</time>
      </trkpt>
      <trkpt lat="41.1836840" lon="-8.6839580">
        <ele>26.5</ele>
        <time>2021-05-16T06:11:19Z</time>
      </trkpt>
      <trkpt lat="41.1837000" lon="-8.6839630">
        <ele>26.5</ele>
        <time>2021-05-16T06:11:20Z</time>
      </trkpt>
      <trkpt lat="41.1837110" lon="-8.6839670">
        <ele>26.6</ele>
        <time>2021-05-16T06:11:21Z</time>
      </trkpt>
      <trkpt lat="41.1837340" lon="-8.6839720">
        <ele>26.6</ele>
        <time>2021-05-16T06:11:22Z</time>
      </trkpt>
      <trkpt lat="41.1837430" lon="-8.6839760">
        <ele>26.6</ele>
        <time>2021-05-16T06:11:23Z</time>
      </trkpt>
      <trkpt lat="41.1837510" lon="-8.6839810">
        <ele>26.6</ele>
        <time>2021-05-16T06:11:24Z</time>
      </trkpt>
      <trkpt lat="41.1837590" lon="-8.6839890">
        <ele>26.6</ele>
        <time>2021-05-16T06:11:25Z</time>
      </trkpt>
      <trkpt lat="41.1837700" lon="-8.6840020">
        <ele>26.6</ele>
        <time>2021-05-16T06:11:26Z</time>
      </trkpt>
      <trkpt lat="41.1837820" lon="-8.6840050">
        <ele>26.6</ele>
        <time>2021-05-16T06:11:27Z</time>
      </trkpt>
      <trkpt lat="41.1838050" lon="-8.6840080">
        <ele>26.6</ele>
        <time>2021-05-16T06:11:28Z</time>
      </trkpt>
      <trkpt lat="41.1838100" lon="-8.6840150">
        <ele>26.5</ele>
        <time>2021-05-16T06:11:29Z</time>
      </trkpt>
      <trkpt lat="41.1838170" lon="-8.6840140">
        <ele>26.5</ele>
        <time>2021-05-16T06:11:30Z</time>
      </trkpt>
      <trkpt lat="41.1838360" lon="-8.6840240">
        <ele>26.5</ele>
        <time>2021-05-16T06:11:31Z</time>
      </trkpt>
      <trkpt lat="41.1838460" lon="-8.6840250">
        <ele>26.5</ele>
        <time>2021-05-16T06:11:32Z</time>
      </trkpt>
      <trkpt lat="41.1838680" lon="-8.6840290">
        <ele>26.5</ele>
        <time>2021-05-16T06:11:33Z</time>
      </trkpt>
      <trkpt lat="41.1838880" lon="-8.6840270">
        <ele>26.5</ele>
        <time>2021-05-16T06:11:34Z</time>
      </trkpt>
      <trkpt lat="41.1839000" lon="-8.6840310">
        <ele>26.5</ele>
        <time>2021-05-16T06:11:35Z</time>
      </trkpt>
      <trkpt lat="41.1839320" lon="-8.6840360">
        <ele>26.5</ele>
        <time>2021-05-16T06:11:36Z</time>
      </trkpt>
      <trkpt lat="41.1839410" lon="-8.6840380">
        <ele>26.5</ele>
        <time>2021-05-16T06:11:37Z</time>
      </trkpt>
      <trkpt lat="41.1839690" lon="-8.6840400">
        <ele>26.4</ele>
        <time>2021-05-16T06:11:38Z</time>
      </trkpt>
      <trkpt lat="41.1839770" lon="-8.6840430">
        <ele>26.4</ele>
        <time>2021-05-16T06:11:39Z</time>
      </trkpt>
      <trkpt lat="41.1839850" lon="-8.6840390">
        <ele>26.4</ele>
        <time>2021-05-16T06:11:40Z</time>
      </trkpt>
      <trkpt lat="41.1839910" lon="-8.6840370">
        <ele>26.4</ele>
        <time>2021-05-16T06:11:41Z</time>
      </trkpt>
      <trkpt lat="41.1840060" lon="-8.6840350">
        <ele>26.4</ele>
        <time>2021-05-16T06:11:42Z</time>
      </trkpt>
      <trkpt lat="41.1840270" lon="-8.6840360">
        <ele>26.4</ele>
        <time>2021-05-16T06:11:43Z</time>
      </trkpt>
      <trkpt lat="41.1840360" lon="-8.6840410">
        <ele>26.4</ele>
        <time>2021-05-16T06:11:44Z</time>
      </trkpt>
      <trkpt lat="41.1840450" lon="-8.6840450">
        <ele>26.4</ele>
        <time>2021-05-16T06:11:45Z</time>
      </trkpt>
      <trkpt lat="41.1840690" lon="-8.6840700">
        <ele>26.4</ele>
        <time>2021-05-16T06:11:46Z</time>
      </trkpt>
      <trkpt lat="41.1840780" lon="-8.6840800">
        <ele>26.3</ele>
        <time>2021-05-16T06:11:47Z</time>
      </trkpt>
      <trkpt lat="41.1841080" lon="-8.6840990">
        <ele>26.3</ele>
        <time>2021-05-16T06:11:48Z</time>
      </trkpt>
      <trkpt lat="41.1841200" lon="-8.6841080">
        <ele>26.2</ele>
        <time>2021-05-16T06:11:49Z</time>
      </trkpt>
      <trkpt lat="41.1841320" lon="-8.6841160">
        <ele>26.2</ele>
        <time>2021-05-16T06:11:50Z</time>
      </trkpt>
      <trkpt lat="41.1841540" lon="-8.6841550">
        <ele>26.1</ele>
        <time>2021-05-16T06:11:51Z</time>
      </trkpt>
      <trkpt lat="41.1841640" lon="-8.6841670">
        <ele>26.1</ele>
        <time>2021-05-16T06:11:52Z</time>
      </trkpt>
      <trkpt lat="41.1841830" lon="-8.6841960">
        <ele>26.0</ele>
        <time>2021-05-16T06:11:53Z</time>
      </trkpt>
      <trkpt lat="41.1841900" lon="-8.6842030">
        <ele>26.0</ele>
        <time>2021-05-16T06:11:54Z</time>
      </trkpt>
      <trkpt lat="41.1842070" lon="-8.6842070">
        <ele>26.0</ele>
        <time>2021-05-16T06:11:55Z</time>
      </trkpt>
      <trkpt lat="41.1842220" lon="-8.6842160">
        <ele>26.0</ele>
        <time>2021-05-16T06:11:56Z</time>
      </trkpt>
      <trkpt lat="41.1842350" lon="-8.6842300">
        <ele>26.0</ele>
        <time>2021-05-16T06:11:57Z</time>
      </trkpt>
      <trkpt lat="41.1842430" lon="-8.6842440">
        <ele>26.0</ele>
        <time>2021-05-16T06:11:58Z</time>
      </trkpt>
      <trkpt lat="41.1842510" lon="-8.6842500">
        <ele>26.0</ele>
        <time>2021-05-16T06:11:59Z</time>
      </trkpt>
      <trkpt lat="41.1842620" lon="-8.6842660">
        <ele>25.9</ele>
        <time>2021-05-16T06:12:00Z</time>
      </trkpt>
      <trkpt lat="41.1842690" lon="-8.6842700">
        <ele>25.9</ele>
        <time>2021-05-16T06:12:01Z</time>
      </trkpt>
      <trkpt lat="41.1842830" lon="-8.6842840">
        <ele>25.9</ele>
        <time>2021-05-16T06:12:02Z</time>
      </trkpt>
      <trkpt lat="41.1842920" lon="-8.6843020">
        <ele>25.9</ele>
        <time>2021-05-16T06:12:03Z</time>
      </trkpt>
      <trkpt lat="41.1843100" lon="-8.6843150">
        <ele>25.9</ele>
        <time>2021-05-16T06:12:04Z</time>
      </trkpt>
      <trkpt lat="41.1843170" lon="-8.6843200">
        <ele>25.9</ele>
        <time>2021-05-16T06:12:05Z</time>
      </trkpt>
      <trkpt lat="41.1843240" lon="-8.6843250">
        <ele>25.9</ele>
        <time>2021-05-16T06:12:06Z</time>
      </trkpt>
      <trkpt lat="41.1843290" lon="-8.6843290">
        <ele>25.9</ele>
        <time>2021-05-16T06:12:07Z</time>
      </trkpt>
      <trkpt lat="41.1843380" lon="-8.6843470">
        <ele>25.8</ele>
        <time>2021-05-16T06:12:08Z</time>
      </trkpt>
      <trkpt lat="41.1843510" lon="-8.6843580">
        <ele>25.8</ele>
        <time>2021-05-16T06:12:09Z</time>
      </trkpt>
      <trkpt lat="41.1843600" lon="-8.6843700">
        <ele>25.8</ele>
        <time>2021-05-16T06:12:10Z</time>
      </trkpt>
      <trkpt lat="41.1843720" lon="-8.6843930">
        <ele>25.8</ele>
        <time>2021-05-16T06:12:11Z</time>
      </trkpt>
      <trkpt lat="41.1843880" lon="-8.6844190">
        <ele>25.7</ele>
        <time>2021-05-16T06:12:12Z</time>
      </trkpt>
      <trkpt lat="41.1843960" lon="-8.6844270">
        <ele>25.7</ele>
        <time>2021-05-16T06:12:13Z</time>
      </trkpt>
      <trkpt lat="41.1844030" lon="-8.6844340">
        <ele>25.7</ele>
        <time>2021-05-16T06:12:14Z</time>
      </trkpt>
      <trkpt lat="41.1844160" lon="-8.6844470">
        <ele>25.7</ele>
        <time>2021-05-16T06:12:15Z</time>
      </trkpt>
      <trkpt lat="41.1844340" lon="-8.6844610">
        <ele>25.6</ele>
        <time>2021-05-16T06:12:17Z</time>
      </trkpt>
      <trkpt lat="41.1844420" lon="-8.6844620">
        <ele>25.6</ele>
        <time>2021-05-16T06:12:18Z</time>
      </trkpt>
      <trkpt lat="41.1844480" lon="-8.6844740">
        <ele>25.6</ele>
        <time>2021-05-16T06:12:19Z</time>
      </trkpt>
      <trkpt lat="41.1844590" lon="-8.6844860">
        <ele>25.6</ele>
        <time>2021-05-16T06:12:20Z</time>
      </trkpt>
      <trkpt lat="41.1844850" lon="-8.6845140">
        <ele>25.6</ele>
        <time>2021-05-16T06:12:21Z</time>
      </trkpt>
      <trkpt lat="41.1844920" lon="-8.6845200">
        <ele>25.6</ele>
        <time>2021-05-16T06:12:22Z</time>
      </trkpt>
      <trkpt lat="41.1845080" lon="-8.6845270">
        <ele>25.5</ele>
        <time>2021-05-16T06:12:23Z</time>
      </trkpt>
      <trkpt lat="41.1845230" lon="-8.6845350">
        <ele>25.5</ele>
        <time>2021-05-16T06:12:24Z</time>
      </trkpt>
      <trkpt lat="41.1845350" lon="-8.6845470">
        <ele>25.5</ele>
        <time>2021-05-16T06:12:25Z</time>
      </trkpt>
      <trkpt lat="41.1845470" lon="-8.6845550">
        <ele>25.5</ele>
        <time>2021-05-16T06:12:26Z</time>
      </trkpt>
      <trkpt lat="41.1845550" lon="-8.6845810">
        <ele>25.5</ele>
        <time>2021-05-16T06:12:27Z</time>
      </trkpt>
      <trkpt lat="41.1845500" lon="-8.6845980">
        <ele>25.4</ele>
        <time>2021-05-16T06:12:28Z</time>
      </trkpt>
      <trkpt lat="41.1845550" lon="-8.6846200">
        <ele>25.4</ele>
        <time>2021-05-16T06:12:29Z</time>
      </trkpt>
      <trkpt lat="41.1845580" lon="-8.6846390">
        <ele>25.4</ele>
        <time>2021-05-16T06:12:30Z</time>
      </trkpt>
      <trkpt lat="41.1845630" lon="-8.6846450">
        <ele>25.4</ele>
        <time>2021-05-16T06:12:31Z</time>
      </trkpt>
      <trkpt lat="41.1845670" lon="-8.6846600">
        <ele>25.4</ele>
        <time>2021-05-16T06:12:32Z</time>
      </trkpt>
      <trkpt lat="41.1845700" lon="-8.6846750">
        <ele>25.4</ele>
        <time>2021-05-16T06:12:33Z</time>
      </trkpt>
      <trkpt lat="41.1845670" lon="-8.6846890">
        <ele>25.4</ele>
        <time>2021-05-16T06:12:34Z</time>
      </trkpt>
      <trkpt lat="41.1845660" lon="-8.6846970">
        <ele>25.4</ele>
        <time>2021-05-16T06:12:35Z</time>
      </trkpt>
      <trkpt lat="41.1845700" lon="-8.6847220">
        <ele>27.0</ele>
        <time>2021-05-16T06:12:36Z</time>
      </trkpt>
      <trkpt lat="41.1845770" lon="-8.6847430">
        <ele>27.0</ele>
        <time>2021-05-16T06:12:37Z</time>
      </trkpt>
      <trkpt lat="41.1845820" lon="-8.6847520">
        <ele>26.9</ele>
        <time>2021-05-16T06:12:38Z</time>
      </trkpt>
      <trkpt lat="41.1845860" lon="-8.6847620">
        <ele>26.9</ele>
        <time>2021-05-16T06:12:39Z</time>
      </trkpt>
      <trkpt lat="41.1845900" lon="-8.6847710">
        <ele>26.9</ele>
        <time>2021-05-16T06:12:40Z</time>
      </trkpt>
      <trkpt lat="41.1846000" lon="-8.6847810">
        <ele>26.9</ele>
        <time>2021-05-16T06:12:41Z</time>
      </trkpt>
      <trkpt lat="41.1846110" lon="-8.6847960">
        <ele>26.8</ele>
        <time>2021-05-16T06:12:42Z</time>
      </trkpt>
      <trkpt lat="41.1846380" lon="-8.6848120">
        <ele>26.7</ele>
        <time>2021-05-16T06:12:43Z</time>
      </trkpt>
      <trkpt lat="41.1846440" lon="-8.6848190">
        <ele>26.7</ele>
        <time>2021-05-16T06:12:44Z</time>
      </trkpt>
      <trkpt lat="41.1846570" lon="-8.6848300">
        <ele>26.6</ele>
        <time>2021-05-16T06:12:45Z</time>
      </trkpt>
      <trkpt lat="41.1846690" lon="-8.6848370">
        <ele>26.6</ele>
        <time>2021-05-16T06:12:46Z</time>
      </trkpt>
      <trkpt lat="41.1846860" lon="-8.6848520">
        <ele>26.5</ele>
        <time>2021-05-16T06:12:47Z</time>
      </trkpt>
      <trkpt lat="41.1846950" lon="-8.6848520">
        <ele>26.5</ele>
        <time>2021-05-16T06:12:48Z</time>
      </trkpt>
      <trkpt lat="41.1847110" lon="-8.6848630">
        <ele>26.5</ele>
        <time>2021-05-16T06:12:49Z</time>
      </trkpt>
      <trkpt lat="41.1847230" lon="-8.6848710">
        <ele>26.4</ele>
        <time>2021-05-16T06:12:50Z</time>
      </trkpt>
      <trkpt lat="41.1847400" lon="-8.6848910">
        <ele>26.3</ele>
        <time>2021-05-16T06:12:51Z</time>
      </trkpt>
      <trkpt lat="41.1847550" lon="-8.6848950">
        <ele>26.3</ele>
        <time>2021-05-16T06:12:52Z</time>
      </trkpt>
      <trkpt lat="41.1847710" lon="-8.6849070">
        <ele>26.2</ele>
        <time>2021-05-16T06:12:53Z</time>
      </trkpt>
      <trkpt lat="41.1847810" lon="-8.6849150">
        <ele>26.2</ele>
        <time>2021-05-16T06:12:54Z</time>
      </trkpt>
      <trkpt lat="41.1847900" lon="-8.6849230">
        <ele>26.2</ele>
        <time>2021-05-16T06:12:55Z</time>
      </trkpt>
      <trkpt lat="41.1848040" lon="-8.6849460">
        <ele>26.1</ele>
        <time>2021-05-16T06:12:56Z</time>
      </trkpt>
      <trkpt lat="41.1848120" lon="-8.6849570">
        <ele>26.1</ele>
        <time>2021-05-16T06:12:57Z</time>
      </trkpt>
      <trkpt lat="41.1848210" lon="-8.6849690">
        <ele>26.0</ele>
        <time>2021-05-16T06:12:58Z</time>
      </trkpt>
      <trkpt lat="41.1848380" lon="-8.6849870">
        <ele>25.9</ele>
        <time>2021-05-16T06:12:59Z</time>
      </trkpt>
      <trkpt lat="41.1848510" lon="-8.6849890">
        <ele>25.9</ele>
        <time>2021-05-16T06:13:00Z</time>
      </trkpt>
      <trkpt lat="41.1848570" lon="-8.6850120">
        <ele>25.8</ele>
        <time>2021-05-16T06:13:01Z</time>
      </trkpt>
      <trkpt lat="41.1848650" lon="-8.6850260">
        <ele>25.8</ele>
        <time>2021-05-16T06:13:02Z</time>
      </trkpt>
      <trkpt lat="41.1848660" lon="-8.6850530">
        <ele>25.7</ele>
        <time>2021-05-16T06:13:03Z</time>
      </trkpt>
      <trkpt lat="41.1848780" lon="-8.6850690">
        <ele>25.6</ele>
        <time>2021-05-16T06:13:04Z</time>
      </trkpt>
      <trkpt lat="41.1849020" lon="-8.6850900">
        <ele>25.4</ele>
        <time>2021-05-16T06:13:05Z</time>
      </trkpt>
      <trkpt lat="41.1849070" lon="-8.6850970">
        <ele>25.4</ele>
        <time>2021-05-16T06:13:06Z</time>
      </trkpt>
      <trkpt lat="41.1849140" lon="-8.6851170">
        <ele>25.3</ele>
        <time>2021-05-16T06:13:07Z</time>
      </trkpt>
      <trkpt lat="41.1849180" lon="-8.6851410">
        <ele>25.2</ele>
        <time>2021-05-16T06:13:08Z</time>
      </trkpt>
      <trkpt lat="41.1849320" lon="-8.6851620">
        <ele>25.1</ele>
        <time>2021-05-16T06:13:09Z</time>
      </trkpt>
      <trkpt lat="41.1849390" lon="-8.6851700">
        <ele>25.0</ele>
        <time>2021-05-16T06:13:10Z</time>
      </trkpt>
      <trkpt lat="41.1849470" lon="-8.6851790">
        <ele>24.9</ele>
        <time>2021-05-16T06:13:11Z</time>
      </trkpt>
      <trkpt lat="41.1849630" lon="-8.6851850">
        <ele>24.9</ele>
        <time>2021-05-16T06:13:12Z</time>
      </trkpt>
      <trkpt lat="41.1849730" lon="-8.6851970">
        <ele>24.8</ele>
        <time>2021-05-16T06:13:13Z</time>
      </trkpt>
      <trkpt lat="41.1849850" lon="-8.6852110">
        <ele>24.7</ele>
        <time>2021-05-16T06:13:14Z</time>
      </trkpt>
      <trkpt lat="41.1849990" lon="-8.6852150">
        <ele>24.6</ele>
        <time>2021-05-16T06:13:15Z</time>
      </trkpt>
      <trkpt lat="41.1850120" lon="-8.6852190">
        <ele>24.5</ele>
        <time>2021-05-16T06:13:16Z</time>
      </trkpt>
      <trkpt lat="41.1850300" lon="-8.6852380">
        <ele>24.4</ele>
        <time>2021-05-16T06:13:17Z</time>
      </trkpt>
      <trkpt lat="41.1850370" lon="-8.6852440">
        <ele>24.4</ele>
        <time>2021-05-16T06:13:18Z</time>
      </trkpt>
      <trkpt lat="41.1850440" lon="-8.6852500">
        <ele>24.3</ele>
        <time>2021-05-16T06:13:19Z</time>
      </trkpt>
      <trkpt lat="41.1850690" lon="-8.6852580">
        <ele>24.2</ele>
        <time>2021-05-16T06:13:20Z</time>
      </trkpt>
      <trkpt lat="41.1850780" lon="-8.6852660">
        <ele>24.2</ele>
        <time>2021-05-16T06:13:21Z</time>
      </trkpt>
      <trkpt lat="41.1850870" lon="-8.6852740">
        <ele>24.1</ele>
        <time>2021-05-16T06:13:22Z</time>
      </trkpt>
      <trkpt lat="41.1851040" lon="-8.6852960">
        <ele>24.0</ele>
        <time>2021-05-16T06:13:23Z</time>
      </trkpt>
      <trkpt lat="41.1851120" lon="-8.6853040">
        <ele>24.0</ele>
        <time>2021-05-16T06:13:24Z</time>
      </trkpt>
      <trkpt lat="41.1851170" lon="-8.6853140">
        <ele>24.0</ele>
        <time>2021-05-16T06:13:25Z</time>
      </trkpt>
      <trkpt lat="41.1851280" lon="-8.6853250">
        <ele>23.9</ele>
        <time>2021-05-16T06:13:26Z</time>
      </trkpt>
      <trkpt lat="41.1851380" lon="-8.6853350">
        <ele>23.9</ele>
        <time>2021-05-16T06:13:27Z</time>
      </trkpt>
      <trkpt lat="41.1851540" lon="-8.6853490">
        <ele>23.8</ele>
        <time>2021-05-16T06:13:28Z</time>
      </trkpt>
      <trkpt lat="41.1851690" lon="-8.6853770">
        <ele>23.7</ele>
        <time>2021-05-16T06:13:29Z</time>
      </trkpt>
      <trkpt lat="41.1851760" lon="-8.6853830">
        <ele>23.7</ele>
        <time>2021-05-16T06:13:30Z</time>
      </trkpt>
      <trkpt lat="41.1851830" lon="-8.6853890">
        <ele>23.7</ele>
        <time>2021-05-16T06:13:31Z</time>
      </trkpt>
      <trkpt lat="41.1852030" lon="-8.6853990">
        <ele>23.6</ele>
        <time>2021-05-16T06:13:32Z</time>
      </trkpt>
      <trkpt lat="41.1852120" lon="-8.6854100">
        <ele>23.6</ele>
        <time>2021-05-16T06:13:33Z</time>
      </trkpt>
      <trkpt lat="41.1852230" lon="-8.6854430">
        <ele>23.5</ele>
        <time>2021-05-16T06:13:34Z</time>
      </trkpt>
      <trkpt lat="41.1852270" lon="-8.6854550">
        <ele>23.5</ele>
        <time>2021-05-16T06:13:35Z</time>
      </trkpt>
      <trkpt lat="41.1852300" lon="-8.6854670">
        <ele>23.4</ele>
        <time>2021-05-16T06:13:36Z</time>
      </trkpt>
      <trkpt lat="41.1852390" lon="-8.6854860">
        <ele>23.4</ele>
        <time>2021-05-16T06:13:37Z</time>
      </trkpt>
      <trkpt lat="41.1852440" lon="-8.6854960">
        <ele>23.4</ele>
        <time>2021-05-16T06:13:38Z</time>
      </trkpt>
      <trkpt lat="41.1852540" lon="-8.6855280">
        <ele>23.3</ele>
        <time>2021-05-16T06:13:39Z</time>
      </trkpt>
      <trkpt lat="41.1852600" lon="-8.6855420">
        <ele>23.3</ele>
        <time>2021-05-16T06:13:40Z</time>
      </trkpt>
      <trkpt lat="41.1852690" lon="-8.6855530">
        <ele>23.2</ele>
        <time>2021-05-16T06:13:41Z</time>
      </trkpt>
      <trkpt lat="41.1852860" lon="-8.6855730">
        <ele>23.2</ele>
        <time>2021-05-16T06:13:42Z</time>
      </trkpt>
      <trkpt lat="41.1853150" lon="-8.6855850">
        <ele>23.1</ele>
        <time>2021-05-16T06:13:43Z</time>
      </trkpt>
      <trkpt lat="41.1853230" lon="-8.6855900">
        <ele>23.0</ele>
        <time>2021-05-16T06:13:44Z</time>
      </trkpt>
      <trkpt lat="41.1853310" lon="-8.6856110">
        <ele>23.0</ele>
        <time>2021-05-16T06:13:45Z</time>
      </trkpt>
      <trkpt lat="41.1853450" lon="-8.6856230">
        <ele>22.9</ele>
        <time>2021-05-16T06:13:46Z</time>
      </trkpt>
      <trkpt lat="41.1853590" lon="-8.6856340">
        <ele>22.9</ele>
        <time>2021-05-16T06:13:47Z</time>
      </trkpt>
      <trkpt lat="41.1853690" lon="-8.6856460">
        <ele>22.8</ele>
        <time>2021-05-16T06:13:48Z</time>
      </trkpt>
      <trkpt lat="41.1853780" lon="-8.6856440">
        <ele>22.8</ele>
        <time>2021-05-16T06:13:49Z</time>
      </trkpt>
      <trkpt lat="41.1853880" lon="-8.6856480">
        <ele>22.7</ele>
        <time>2021-05-16T06:13:50Z</time>
      </trkpt>
      <trkpt lat="41.1853960" lon="-8.6856500">
        <ele>22.7</ele>
        <time>2021-05-16T06:13:51Z</time>
      </trkpt>
      <trkpt lat="41.1854110" lon="-8.6856630">
        <ele>22.7</ele>
        <time>2021-05-16T06:13:52Z</time>
      </trkpt>
      <trkpt lat="41.1854240" lon="-8.6856760">
        <ele>22.6</ele>
        <time>2021-05-16T06:13:53Z</time>
      </trkpt>
      <trkpt lat="41.1854400" lon="-8.6856820">
        <ele>22.5</ele>
        <time>2021-05-16T06:13:54Z</time>
      </trkpt>
      <trkpt lat="41.1854500" lon="-8.6856880">
        <ele>22.5</ele>
        <time>2021-05-16T06:13:55Z</time>
      </trkpt>
      <trkpt lat="41.1854600" lon="-8.6856930">
        <ele>22.5</ele>
        <time>2021-05-16T06:13:56Z</time>
      </trkpt>
      <trkpt lat="41.1854770" lon="-8.6857040">
        <ele>22.4</ele>
        <time>2021-05-16T06:13:57Z</time>
      </trkpt>
      <trkpt lat="41.1854820" lon="-8.6857180">
        <ele>22.3</ele>
        <time>2021-05-16T06:13:58Z</time>
      </trkpt>
      <trkpt lat="41.1854920" lon="-8.6857370">
        <ele>22.3</ele>
        <time>2021-05-16T06:13:59Z</time>
      </trkpt>
      <trkpt lat="41.1854930" lon="-8.6857620">
        <ele>22.2</ele>
        <time>2021-05-16T06:14:00Z</time>
      </trkpt>
      <trkpt lat="41.1855120" lon="-8.6857780">
        <ele>22.1</ele>
        <time>2021-05-16T06:14:01Z</time>
      </trkpt>
      <trkpt lat="41.1855170" lon="-8.6857880">
        <ele>22.0</ele>
        <time>2021-05-16T06:14:02Z</time>
      </trkpt>
      <trkpt lat="41.1855220" lon="-8.6857990">
        <ele>22.0</ele>
        <time>2021-05-16T06:14:03Z</time>
      </trkpt>
      <trkpt lat="41.1855480" lon="-8.6858070">
        <ele>21.9</ele>
        <time>2021-05-16T06:14:04Z</time>
      </trkpt>
      <trkpt lat="41.1855610" lon="-8.6858110">
        <ele>21.8</ele>
        <time>2021-05-16T06:14:06Z</time>
      </trkpt>
      <trkpt lat="41.1855730" lon="-8.6858160">
        <ele>21.7</ele>
        <time>2021-05-16T06:14:07Z</time>
      </trkpt>
      <trkpt lat="41.1855850" lon="-8.6858200">
        <ele>21.7</ele>
        <time>2021-05-16T06:14:08Z</time>
      </trkpt>
      <trkpt lat="41.1855980" lon="-8.6858300">
        <ele>21.6</ele>
        <time>2021-05-16T06:14:09Z</time>
      </trkpt>
      <trkpt lat="41.1856130" lon="-8.6858380">
        <ele>21.5</ele>
        <time>2021-05-16T06:14:10Z</time>
      </trkpt>
      <trkpt lat="41.1856360" lon="-8.6858620">
        <ele>21.4</ele>
        <time>2021-05-16T06:14:11Z</time>
      </trkpt>
      <trkpt lat="41.1856450" lon="-8.6858700">
        <ele>21.3</ele>
        <time>2021-05-16T06:14:12Z</time>
      </trkpt>
      <trkpt lat="41.1856560" lon="-8.6858770">
        <ele>21.3</ele>
        <time>2021-05-16T06:14:13Z</time>
      </trkpt>
      <trkpt lat="41.1856710" lon="-8.6858930">
        <ele>21.2</ele>
        <time>2021-05-16T06:14:14Z</time>
      </trkpt>
      <trkpt lat="41.1856860" lon="-8.6858980">
        <ele>21.1</ele>
        <time>2021-05-16T06:14:15Z</time>
      </trkpt>
      <trkpt lat="41.1856990" lon="-8.6859150">
        <ele>21.1</ele>
        <time>2021-05-16T06:14:16Z</time>
      </trkpt>
      <trkpt lat="41.1857050" lon="-8.6859220">
        <ele>21.0</ele>
        <time>2021-05-16T06:14:17Z</time>
      </trkpt>
      <trkpt lat="41.1857240" lon="-8.6859280">
        <ele>21.0</ele>
        <time>2021-05-16T06:14:18Z</time>
      </trkpt>
      <trkpt lat="41.1857310" lon="-8.6859410">
        <ele>20.9</ele>
        <time>2021-05-16T06:14:19Z</time>
      </trkpt>
      <trkpt lat="41.1857510" lon="-8.6859570">
        <ele>20.9</ele>
        <time>2021-05-16T06:14:20Z</time>
      </trkpt>
      <trkpt lat="41.1857560" lon="-8.6859760">
        <ele>20.8</ele>
        <time>2021-05-16T06:14:21Z</time>
      </trkpt>
      <trkpt lat="41.1857660" lon="-8.6859930">
        <ele>20.8</ele>
        <time>2021-05-16T06:14:22Z</time>
      </trkpt>
      <trkpt lat="41.1857720" lon="-8.6860100">
        <ele>20.8</ele>
        <time>2021-05-16T06:14:23Z</time>
      </trkpt>
      <trkpt lat="41.1857820" lon="-8.6860150">
        <ele>20.8</ele>
        <time>2021-05-16T06:14:24Z</time>
      </trkpt>
      <trkpt lat="41.1857890" lon="-8.6860280">
        <ele>20.7</ele>
        <time>2021-05-16T06:14:25Z</time>
      </trkpt>
      <trkpt lat="41.1857950" lon="-8.6860530">
        <ele>20.7</ele>
        <time>2021-05-16T06:14:26Z</time>
      </trkpt>
      <trkpt lat="41.1857980" lon="-8.6860630">
        <ele>20.7</ele>
        <time>2021-05-16T06:14:27Z</time>
      </trkpt>
      <trkpt lat="41.1858050" lon="-8.6860760">
        <ele>20.7</ele>
        <time>2021-05-16T06:14:28Z</time>
      </trkpt>
      <trkpt lat="41.1858130" lon="-8.6860950">
        <ele>20.7</ele>
        <time>2021-05-16T06:14:29Z</time>
      </trkpt>
      <trkpt lat="41.1858240" lon="-8.6861210">
        <ele>20.7</ele>
        <time>2021-05-16T06:14:30Z</time>
      </trkpt>
      <trkpt lat="41.1858330" lon="-8.6861270">
        <ele>20.7</ele>
        <time>2021-05-16T06:14:31Z</time>
      </trkpt>
      <trkpt lat="41.1858520" lon="-8.6861450">
        <ele>20.7</ele>
        <time>2021-05-16T06:14:32Z</time>
      </trkpt>
      <trkpt lat="41.1858580" lon="-8.6861520">
        <ele>20.7</ele>
        <time>2021-05-16T06:14:33Z</time>
      </trkpt>
      <trkpt lat="41.1858650" lon="-8.6861580">
        <ele>20.6</ele>
        <time>2021-05-16T06:14:34Z</time>
      </trkpt>
      <trkpt lat="41.1858700" lon="-8.6861660">
        <ele>20.6</ele>
        <time>2021-05-16T06:14:35Z</time>
      </trkpt>
      <trkpt lat="41.1858810" lon="-8.6861770">
        <ele>20.6</ele>
        <time>2021-05-16T06:14:36Z</time>
      </trkpt>
      <trkpt lat="41.1858870" lon="-8.6861850">
        <ele>20.6</ele>
        <time>2021-05-16T06:14:37Z</time>
      </trkpt>
      <trkpt lat="41.1859190" lon="-8.6862080">
        <ele>20.6</ele>
        <time>2021-05-16T06:14:38Z</time>
      </trkpt>
      <trkpt lat="41.1859280" lon="-8.6862150">
        <ele>20.6</ele>
        <time>2021-05-16T06:14:39Z</time>
      </trkpt>
      <trkpt lat="41.1859420" lon="-8.6862260">
        <ele>20.6</ele>
        <time>2021-05-16T06:14:40Z</time>
      </trkpt>
      <trkpt lat="41.1859560" lon="-8.6862340">
        <ele>20.6</ele>
        <time>2021-05-16T06:14:41Z</time>
      </trkpt>
      <trkpt lat="41.1859810" lon="-8.6862530">
        <ele>20.5</ele>
        <time>2021-05-16T06:14:42Z</time>
      </trkpt>
      <trkpt lat="41.1859890" lon="-8.6862590">
        <ele>20.5</ele>
        <time>2021-05-16T06:14:43Z</time>
      </trkpt>
      <trkpt lat="41.1860040" lon="-8.6862640">
        <ele>20.4</ele>
        <time>2021-05-16T06:14:44Z</time>
      </trkpt>
      <trkpt lat="41.1860170" lon="-8.6862750">
        <ele>20.4</ele>
        <time>2021-05-16T06:14:45Z</time>
      </trkpt>
      <trkpt lat="41.1860300" lon="-8.6862840">
        <ele>20.4</ele>
        <time>2021-05-16T06:14:46Z</time>
      </trkpt>
      <trkpt lat="41.1860410" lon="-8.6862970">
        <ele>20.3</ele>
        <time>2021-05-16T06:14:47Z</time>
      </trkpt>
      <trkpt lat="41.1860510" lon="-8.6863100">
        <ele>20.3</ele>
        <time>2021-05-16T06:14:48Z</time>
      </trkpt>
      <trkpt lat="41.1860630" lon="-8.6863210">
        <ele>20.2</ele>
        <time>2021-05-16T06:14:49Z</time>
      </trkpt>
      <trkpt lat="41.1860750" lon="-8.6863360">
        <ele>20.2</ele>
        <time>2021-05-16T06:14:50Z</time>
      </trkpt>
      <trkpt lat="41.1860810" lon="-8.6863400">
        <ele>20.2</ele>
        <time>2021-05-16T06:14:51Z</time>
      </trkpt>
      <trkpt lat="41.1860910" lon="-8.6863440">
        <ele>20.1</ele>
        <time>2021-05-16T06:14:52Z</time>
      </trkpt>
      <trkpt lat="41.1861190" lon="-8.6863600">
        <ele>20.1</ele>
        <time>2021-05-16T06:14:53Z</time>
      </trkpt>
      <trkpt lat="41.1861240" lon="-8.6863660">
        <ele>20.0</ele>
        <time>2021-05-16T06:14:54Z</time>
      </trkpt>
      <trkpt lat="41.1861320" lon="-8.6863720">
        <ele>20.0</ele>
        <time>2021-05-16T06:14:55Z</time>
      </trkpt>
      <trkpt lat="41.1861380" lon="-8.6863790">
        <ele>20.0</ele>
        <time>2021-05-16T06:14:56Z</time>
      </trkpt>
      <trkpt lat="41.1861470" lon="-8.6863880">
        <ele>20.0</ele>
        <time>2021-05-16T06:14:57Z</time>
      </trkpt>
      <trkpt lat="41.1861610" lon="-8.6863990">
        <ele>20.0</ele>
        <time>2021-05-16T06:14:58Z</time>
      </trkpt>
      <trkpt lat="41.1861630" lon="-8.6864060">
        <ele>19.9</ele>
        <time>2021-05-16T06:14:59Z</time>
      </trkpt>
      <trkpt lat="41.1861740" lon="-8.6864160">
        <ele>19.9</ele>
        <time>2021-05-16T06:15:00Z</time>
      </trkpt>
      <trkpt lat="41.1861880" lon="-8.6864260">
        <ele>19.9</ele>
        <time>2021-05-16T06:15:01Z</time>
      </trkpt>
      <trkpt lat="41.1862010" lon="-8.6864350">
        <ele>19.9</ele>
        <time>2021-05-16T06:15:02Z</time>
      </trkpt>
      <trkpt lat="41.1862180" lon="-8.6864440">
        <ele>19.9</ele>
        <time>2021-05-16T06:15:03Z</time>
      </trkpt>
      <trkpt lat="41.1862260" lon="-8.6864570">
        <ele>19.8</ele>
        <time>2021-05-16T06:15:04Z</time>
      </trkpt>
      <trkpt lat="41.1862430" lon="-8.6864730">
        <ele>19.8</ele>
        <time>2021-05-16T06:15:05Z</time>
      </trkpt>
      <trkpt lat="41.1862510" lon="-8.6864780">
        <ele>19.8</ele>
        <time>2021-05-16T06:15:06Z</time>
      </trkpt>
      <trkpt lat="41.1862580" lon="-8.6864840">
        <ele>19.8</ele>
        <time>2021-05-16T06:15:07Z</time>
      </trkpt>
      <trkpt lat="41.1862660" lon="-8.6864880">
        <ele>19.8</ele>
        <time>2021-05-16T06:15:08Z</time>
      </trkpt>
      <trkpt lat="41.1862820" lon="-8.6865040">
        <ele>19.8</ele>
        <time>2021-05-16T06:15:09Z</time>
      </trkpt>
      <trkpt lat="41.1862990" lon="-8.6865190">
        <ele>19.7</ele>
        <time>2021-05-16T06:15:10Z</time>
      </trkpt>
      <trkpt lat="41.1863100" lon="-8.6865290">
        <ele>19.7</ele>
        <time>2021-05-16T06:15:11Z</time>
      </trkpt>
      <trkpt lat="41.1863200" lon="-8.6865380">
        <ele>19.7</ele>
        <time>2021-05-16T06:15:12Z</time>
      </trkpt>
      <trkpt lat="41.1863380" lon="-8.6865440">
        <ele>19.7</ele>
        <time>2021-05-16T06:15:13Z</time>
      </trkpt>
      <trkpt lat="41.1863470" lon="-8.6865500">
        <ele>19.7</ele>
        <time>2021-05-16T06:15:14Z</time>
      </trkpt>
      <trkpt lat="41.1863550" lon="-8.6865560">
        <ele>19.7</ele>
        <time>2021-05-16T06:15:15Z</time>
      </trkpt>
      <trkpt lat="41.1863620" lon="-8.6865650">
        <ele>19.6</ele>
        <time>2021-05-16T06:15:16Z</time>
      </trkpt>
      <trkpt lat="41.1863680" lon="-8.6865730">
        <ele>19.6</ele>
        <time>2021-05-16T06:15:17Z</time>
      </trkpt>
      <trkpt lat="41.1863750" lon="-8.6865800">
        <ele>19.6</ele>
        <time>2021-05-16T06:15:18Z</time>
      </trkpt>
      <trkpt lat="41.1863810" lon="-8.6865880">
        <ele>19.6</ele>
        <time>2021-05-16T06:15:19Z</time>
      </trkpt>
      <trkpt lat="41.1863920" lon="-8.6865970">
        <ele>19.6</ele>
        <time>2021-05-16T06:15:20Z</time>
      </trkpt>
      <trkpt lat="41.1863970" lon="-8.6866040">
        <ele>19.5</ele>
        <time>2021-05-16T06:15:21Z</time>
      </trkpt>
      <trkpt lat="41.1864020" lon="-8.6866140">
        <ele>19.5</ele>
        <time>2021-05-16T06:15:22Z</time>
      </trkpt>
      <trkpt lat="41.1864030" lon="-8.6866240">
        <ele>19.5</ele>
        <time>2021-05-16T06:15:23Z</time>
      </trkpt>
      <trkpt lat="41.1864130" lon="-8.6866380">
        <ele>19.5</ele>
        <time>2021-05-16T06:15:24Z</time>
      </trkpt>
      <trkpt lat="41.1864200" lon="-8.6866460">
        <ele>19.4</ele>
        <time>2021-05-16T06:15:25Z</time>
      </trkpt>
      <trkpt lat="41.1864320" lon="-8.6866580">
        <ele>19.4</ele>
        <time>2021-05-16T06:15:26Z</time>
      </trkpt>
      <trkpt lat="41.1864400" lon="-8.6866710">
        <ele>19.4</ele>
        <time>2021-05-16T06:15:27Z</time>
      </trkpt>
      <trkpt lat="41.1864550" lon="-8.6866820">
        <ele>19.4</ele>
        <time>2021-05-16T06:15:28Z</time>
      </trkpt>
      <trkpt lat="41.1864700" lon="-8.6866960">
        <ele>19.3</ele>
        <time>2021-05-16T06:15:29Z</time>
      </trkpt>
      <trkpt lat="41.1864920" lon="-8.6867110">
        <ele>19.3</ele>
        <time>2021-05-16T06:15:30Z</time>
      </trkpt>
      <trkpt lat="41.1864980" lon="-8.6867160">
        <ele>19.3</ele>
        <time>2021-05-16T06:15:31Z</time>
      </trkpt>
      <trkpt lat="41.1865050" lon="-8.6867220">
        <ele>19.3</ele>
        <time>2021-05-16T06:15:32Z</time>
      </trkpt>
      <trkpt lat="41.1865150" lon="-8.6867260">
        <ele>19.3</ele>
        <time>2021-05-16T06:15:33Z</time>
      </trkpt>
      <trkpt lat="41.1865320" lon="-8.6867380">
        <ele>19.2</ele>
        <time>2021-05-16T06:15:34Z</time>
      </trkpt>
      <trkpt lat="41.1865440" lon="-8.6867430">
        <ele>19.2</ele>
        <time>2021-05-16T06:15:35Z</time>
      </trkpt>
      <trkpt lat="41.1865460" lon="-8.6867500">
        <ele>19.2</ele>
        <time>2021-05-16T06:15:36Z</time>
      </trkpt>
      <trkpt lat="41.1865550" lon="-8.6867670">
        <ele>19.2</ele>
        <time>2021-05-16T06:15:37Z</time>
      </trkpt>
      <trkpt lat="41.1865640" lon="-8.6867750">
        <ele>19.2</ele>
        <time>2021-05-16T06:15:38Z</time>
      </trkpt>
      <trkpt lat="41.1865660" lon="-8.6867770">
        <ele>19.2</ele>
        <time>2021-05-16T06:15:39Z</time>
      </trkpt>
      <trkpt lat="41.1865850" lon="-8.6867780">
        <ele>19.1</ele>
        <time>2021-05-16T06:15:40Z</time>
      </trkpt>
      <trkpt lat="41.1865940" lon="-8.6867720">
        <ele>19.1</ele>
        <time>2021-05-16T06:15:41Z</time>
      </trkpt>
      <trkpt lat="41.1866070" lon="-8.6867780">
        <ele>19.1</ele>
        <time>2021-05-16T06:15:42Z</time>
      </trkpt>
      <trkpt lat="41.1866100" lon="-8.6867720">
        <ele>19.1</ele>
        <time>2021-05-16T06:15:43Z</time>
      </trkpt>
      <trkpt lat="41.1866100" lon="-8.6867720">
        <ele>19.1</ele>
        <time>2021-05-16T06:15:44Z</time>
      </trkpt>
      <trkpt lat="41.1866130" lon="-8.6867680">
        <ele>19.1</ele>
        <time>2021-05-16T06:15:45Z</time>
      </trkpt>
      <trkpt lat="41.1866170" lon="-8.6867730">
        <ele>19.1</ele>
        <time>2021-05-16T06:15:46Z</time>
      </trkpt>
      <trkpt lat="41.1866200" lon="-8.6867770">
        <ele>19.1</ele>
        <time>2021-05-16T06:15:47Z</time>
      </trkpt>
      <trkpt lat="41.1866250" lon="-8.6867760">
        <ele>19.1</ele>
        <time>2021-05-16T06:15:48Z</time>
      </trkpt>
      <trkpt lat="41.1866280" lon="-8.6867750">
        <ele>19.1</ele>
        <time>2021-05-16T06:15:49Z</time>
      </trkpt>
      <trkpt lat="41.1866290" lon="-8.6867730">
        <ele>19.1</ele>
        <time>2021-05-16T06:15:50Z</time>
      </trkpt>
      <trkpt lat="41.1866360" lon="-8.6867740">
        <ele>19.0</ele>
        <time>2021-05-16T06:15:51Z</time>
      </trkpt>
      <trkpt lat="41.1866440" lon="-8.6867730">
        <ele>19.0</ele>
        <time>2021-05-16T06:15:52Z</time>
      </trkpt>
      <trkpt lat="41.1866470" lon="-8.6867750">
        <ele>19.0</ele>
        <time>2021-05-16T06:15:53Z</time>
      </trkpt>
      <trkpt lat="41.1866490" lon="-8.6867770">
        <ele>19.0</ele>
        <time>2021-05-16T06:15:54Z</time>
      </trkpt>
      <trkpt lat="41.1866510" lon="-8.6867800">
        <ele>19.0</ele>
        <time>2021-05-16T06:15:55Z</time>
      </trkpt>
      <trkpt lat="41.1866520" lon="-8.6867830">
        <ele>19.0</ele>
        <time>2021-05-16T06:15:56Z</time>
      </trkpt>
      <trkpt lat="41.1866540" lon="-8.6867860">
        <ele>19.0</ele>
        <time>2021-05-16T06:15:57Z</time>
      </trkpt>
      <trkpt lat="41.1866560" lon="-8.6867880">
        <ele>19.0</ele>
        <time>2021-05-16T06:15:58Z</time>
      </trkpt>
      <trkpt lat="41.1866580" lon="-8.6867910">
        <ele>19.0</ele>
        <time>2021-05-16T06:15:59Z</time>
      </trkpt>
      <trkpt lat="41.1866600" lon="-8.6867940">
        <ele>19.0</ele>
        <time>2021-05-16T06:16:00Z</time>
      </trkpt>
      <trkpt lat="41.1866620" lon="-8.6867960">
        <ele>19.0</ele>
        <time>2021-05-16T06:16:01Z</time>
      </trkpt>
      <trkpt lat="41.1866640" lon="-8.6867990">
        <ele>19.0</ele>
        <time>2021-05-16T06:16:02Z</time>
      </trkpt>
      <trkpt lat="41.1866650" lon="-8.6868020">
        <ele>19.0</ele>
        <time>2021-05-16T06:16:03Z</time>
      </trkpt>
      <trkpt lat="41.1866670" lon="-8.6868050">
        <ele>19.0</ele>
        <time>2021-05-16T06:16:04Z</time>
      </trkpt>
      <trkpt lat="41.1866690" lon="-8.6868070">
        <ele>19.0</ele>
        <time>2021-05-16T06:16:05Z</time>
      </trkpt>
      <trkpt lat="41.1866710" lon="-8.6868100">
        <ele>19.0</ele>
        <time>2021-05-16T06:16:06Z</time>
      </trkpt>
      <trkpt lat="41.1866750" lon="-8.6868130">
        <ele>19.0</ele>
        <time>2021-05-16T06:16:07Z</time>
      </trkpt>
      <trkpt lat="41.1866750" lon="-8.6868170">
        <ele>19.0</ele>
        <time>2021-05-16T06:16:08Z</time>
      </trkpt>
      <trkpt lat="41.1866760" lon="-8.6868210">
        <ele>19.0</ele>
        <time>2021-05-16T06:16:09Z</time>
      </trkpt>
      <trkpt lat="41.1866760" lon="-8.6868240">
        <ele>19.0</ele>
        <time>2021-05-16T06:16:10Z</time>
      </trkpt>
      <trkpt lat="41.1866770" lon="-8.6868280">
        <ele>19.0</ele>
        <time>2021-05-16T06:16:11Z</time>
      </trkpt>
      <trkpt lat="41.1866770" lon="-8.6868320">
        <ele>19.0</ele>
        <time>2021-05-16T06:16:12Z</time>
      </trkpt>
      <trkpt lat="41.1866780" lon="-8.6868360">
        <ele>19.0</ele>
        <time>2021-05-16T06:16:14Z</time>
      </trkpt>
      <trkpt lat="41.1866790" lon="-8.6868400">
        <ele>19.0</ele>
        <time>2021-05-16T06:16:15Z</time>
      </trkpt>
      <trkpt lat="41.1866790" lon="-8.6868440">
        <ele>19.0</ele>
        <time>2021-05-16T06:16:16Z</time>
      </trkpt>
      <trkpt lat="41.1866800" lon="-8.6868480">
        <ele>19.0</ele>
        <time>2021-05-16T06:16:17Z</time>
      </trkpt>
      <trkpt lat="41.1866800" lon="-8.6868510">
        <ele>19.0</ele>
        <time>2021-05-16T06:16:18Z</time>
      </trkpt>
      <trkpt lat="41.1866810" lon="-8.6868550">
        <ele>19.0</ele>
        <time>2021-05-16T06:16:19Z</time>
      </trkpt>
      <trkpt lat="41.1866810" lon="-8.6868590">
        <ele>19.0</ele>
        <time>2021-05-16T06:16:20Z</time>
      </trkpt>
      <trkpt lat="41.1866820" lon="-8.6868630">
        <ele>19.0</ele>
        <time>2021-05-16T06:16:21Z</time>
      </trkpt>
      <trkpt lat="41.1866880" lon="-8.6868960">
        <ele>19.0</ele>
        <time>2021-05-16T06:16:22Z</time>
      </trkpt>
      <trkpt lat="41.1866880" lon="-8.6869030">
        <ele>19.0</ele>
        <time>2021-05-16T06:16:23Z</time>
      </trkpt>
      <trkpt lat="41.1866880" lon="-8.6869110">
        <ele>19.0</ele>
        <time>2021-05-16T06:16:24Z</time>
      </trkpt>
      <trkpt lat="41.1866960" lon="-8.6869430">
        <ele>19.0</ele>
        <time>2021-05-16T06:16:25Z</time>
      </trkpt>
      <trkpt lat="41.1867000" lon="-8.6869560">
        <ele>18.9</ele>
        <time>2021-05-16T06:16:26Z</time>
      </trkpt>
      <trkpt lat="41.1867040" lon="-8.6869690">
        <ele>18.9</ele>
        <time>2021-05-16T06:16:27Z</time>
      </trkpt>
      <trkpt lat="41.1867100" lon="-8.6869950">
        <ele>18.9</ele>
        <time>2021-05-16T06:16:28Z</time>
      </trkpt>
      <trkpt lat="41.1867110" lon="-8.6870080">
        <ele>18.9</ele>
        <time>2021-05-16T06:16:29Z</time>
      </trkpt>
      <trkpt lat="41.1867110" lon="-8.6870200">
        <ele>18.9</ele>
        <time>2021-05-16T06:16:30Z</time>
      </trkpt>
      <trkpt lat="41.1867140" lon="-8.6870530">
        <ele>18.9</ele>
        <time>2021-05-16T06:16:31Z</time>
      </trkpt>
      <trkpt lat="41.1867150" lon="-8.6870650">
        <ele>18.9</ele>
        <time>2021-05-16T06:16:32Z</time>
      </trkpt>
      <trkpt lat="41.1867170" lon="-8.6870770">
        <ele>18.9</ele>
        <time>2021-05-16T06:16:33Z</time>
      </trkpt>
      <trkpt lat="41.1867370" lon="-8.6871040">
        <ele>18.9</ele>
        <time>2021-05-16T06:16:34Z</time>
      </trkpt>
      <trkpt lat="41.1867440" lon="-8.6871180">
        <ele>18.9</ele>
        <time>2021-05-16T06:16:35Z</time>
      </trkpt>
      <trkpt lat="41.1867420" lon="-8.6871210">
        <ele>18.9</ele>
        <time>2021-05-16T06:16:36Z</time>
      </trkpt>
      <trkpt lat="41.1867420" lon="-8.6871370">
        <ele>18.9</ele>
        <time>2021-05-16T06:16:37Z</time>
      </trkpt>
      <trkpt lat="41.1867430" lon="-8.6871610">
        <ele>18.9</ele>
        <time>2021-05-16T06:16:38Z</time>
      </trkpt>
      <trkpt lat="41.1867410" lon="-8.6871740">
        <ele>18.9</ele>
        <time>2021-05-16T06:16:39Z</time>
      </trkpt>
      <trkpt lat="41.1867340" lon="-8.6871910">
        <ele>18.9</ele>
        <time>2021-05-16T06:16:40Z</time>
      </trkpt>
      <trkpt lat="41.1867300" lon="-8.6872060">
        <ele>18.9</ele>
        <time>2021-05-16T06:16:41Z</time>
      </trkpt>
      <trkpt lat="41.1867340" lon="-8.6872220">
        <ele>18.9</ele>
        <time>2021-05-16T06:16:42Z</time>
      </trkpt>
      <trkpt lat="41.1867380" lon="-8.6872410">
        <ele>18.9</ele>
        <time>2021-05-16T06:16:43Z</time>
      </trkpt>
      <trkpt lat="41.1867410" lon="-8.6872710">
        <ele>18.9</ele>
        <time>2021-05-16T06:16:44Z</time>
      </trkpt>
      <trkpt lat="41.1867430" lon="-8.6872840">
        <ele>18.9</ele>
        <time>2021-05-16T06:16:45Z</time>
      </trkpt>
      <trkpt lat="41.1867450" lon="-8.6872970">
        <ele>18.9</ele>
        <time>2021-05-16T06:16:46Z</time>
      </trkpt>
      <trkpt lat="41.1867500" lon="-8.6873130">
        <ele>18.9</ele>
        <time>2021-05-16T06:16:47Z</time>
      </trkpt>
      <trkpt lat="41.1867430" lon="-8.6873170">
        <ele>18.9</ele>
        <time>2021-05-16T06:16:48Z</time>
      </trkpt>
      <trkpt lat="41.1867470" lon="-8.6873230">
        <ele>18.9</ele>
        <time>2021-05-16T06:16:49Z</time>
      </trkpt>
      <trkpt lat="41.1867460" lon="-8.6873300">
        <ele>18.9</ele>
        <time>2021-05-16T06:16:50Z</time>
      </trkpt>
      <trkpt lat="41.1867440" lon="-8.6873370">
        <ele>18.9</ele>
        <time>2021-05-16T06:16:51Z</time>
      </trkpt>
      <trkpt lat="41.1867400" lon="-8.6873490">
        <ele>18.9</ele>
        <time>2021-05-16T06:16:52Z</time>
      </trkpt>
      <trkpt lat="41.1867380" lon="-8.6873670">
        <ele>18.9</ele>
        <time>2021-05-16T06:16:53Z</time>
      </trkpt>
      <trkpt lat="41.1867330" lon="-8.6873700">
        <ele>18.9</ele>
        <time>2021-05-16T06:16:54Z</time>
      </trkpt>
      <trkpt lat="41.1867340" lon="-8.6873580">
        <ele>18.9</ele>
        <time>2021-05-16T06:16:55Z</time>
      </trkpt>
      <trkpt lat="41.1867330" lon="-8.6873590">
        <ele>18.9</ele>
        <time>2021-05-16T06:16:56Z</time>
      </trkpt>
      <trkpt lat="41.1867340" lon="-8.6873620">
        <ele>18.9</ele>
        <time>2021-05-16T06:16:57Z</time>
      </trkpt>
      <trkpt lat="41.1867320" lon="-8.6873630">
        <ele>18.8</ele>
        <time>2021-05-16T06:16:58Z</time>
      </trkpt>
      <trkpt lat="41.1867300" lon="-8.6873650">
        <ele>18.8</ele>
        <time>2021-05-16T06:16:59Z</time>
      </trkpt>
      <trkpt lat="41.1867310" lon="-8.6873680">
        <ele>18.8</ele>
        <time>2021-05-16T06:17:00Z</time>
      </trkpt>
      <trkpt lat="41.1867320" lon="-8.6873710">
        <ele>18.8</ele>
        <time>2021-05-16T06:17:01Z</time>
      </trkpt>
      <trkpt lat="41.1867330" lon="-8.6873680">
        <ele>18.8</ele>
        <time>2021-05-16T06:17:02Z</time>
      </trkpt>
      <trkpt lat="41.1867340" lon="-8.6873670">
        <ele>18.8</ele>
        <time>2021-05-16T06:17:03Z</time>
      </trkpt>
      <trkpt lat="41.1867310" lon="-8.6873640">
        <ele>18.8</ele>
        <time>2021-05-16T06:17:04Z</time>
      </trkpt>
      <trkpt lat="41.1867320" lon="-8.6873650">
        <ele>18.8</ele>
        <time>2021-05-16T06:17:05Z</time>
      </trkpt>
      <trkpt lat="41.1867350" lon="-8.6873690">
        <ele>18.8</ele>
        <time>2021-05-16T06:17:06Z</time>
      </trkpt>
      <trkpt lat="41.1867320" lon="-8.6873700">
        <ele>18.8</ele>
        <time>2021-05-16T06:17:07Z</time>
      </trkpt>
      <trkpt lat="41.1867290" lon="-8.6873740">
        <ele>18.8</ele>
        <time>2021-05-16T06:17:08Z</time>
      </trkpt>
      <trkpt lat="41.1867230" lon="-8.6873750">
        <ele>18.8</ele>
        <time>2021-05-16T06:17:09Z</time>
      </trkpt>
      <trkpt lat="41.1867180" lon="-8.6873720">
        <ele>18.8</ele>
        <time>2021-05-16T06:17:10Z</time>
      </trkpt>
      <trkpt lat="41.1867170" lon="-8.6873740">
        <ele>18.8</ele>
        <time>2021-05-16T06:17:11Z</time>
      </trkpt>
      <trkpt lat="41.1867160" lon="-8.6873740">
        <ele>18.8</ele>
        <time>2021-05-16T06:17:12Z</time>
      </trkpt>
      <trkpt lat="41.1867090" lon="-8.6873640">
        <ele>18.8</ele>
        <time>2021-05-16T06:17:13Z</time>
      </trkpt>
      <trkpt lat="41.1867090" lon="-8.6873640">
        <ele>18.8</ele>
        <time>2021-05-16T06:17:14Z</time>
      </trkpt>
      <trkpt lat="41.1867090" lon="-8.6873640">
        <ele>18.8</ele>
        <time>2021-05-16T06:17:15Z</time>
      </trkpt>
      <trkpt lat="41.1866990" lon="-8.6873590">
        <ele>18.8</ele>
        <time>2021-05-16T06:17:16Z</time>
      </trkpt>
      <trkpt lat="41.1866980" lon="-8.6873590">
        <ele>18.8</ele>
        <time>2021-05-16T06:17:17Z</time>
      </trkpt>
      <trkpt lat="41.1867010" lon="-8.6873620">
        <ele>18.8</ele>
        <time>2021-05-16T06:17:18Z</time>
      </trkpt>
      <trkpt lat="41.1866980" lon="-8.6873620">
        <ele>18.8</ele>
        <time>2021-05-16T06:17:19Z</time>
      </trkpt>
      <trkpt lat="41.1867010" lon="-8.6873640">
        <ele>18.8</ele>
        <time>2021-05-16T06:17:20Z</time>
      </trkpt>
      <trkpt lat="41.1867030" lon="-8.6873660">
        <ele>18.8</ele>
        <time>2021-05-16T06:17:21Z</time>
      </trkpt>
      <trkpt lat="41.1867000" lon="-8.6873680">
        <ele>18.8</ele>
        <time>2021-05-16T06:17:22Z</time>
      </trkpt>
      <trkpt lat="41.1866950" lon="-8.6873650">
        <ele>18.8</ele>
        <time>2021-05-16T06:17:23Z</time>
      </trkpt>
      <trkpt lat="41.1866980" lon="-8.6873660">
        <ele>18.8</ele>
        <time>2021-05-16T06:17:24Z</time>
      </trkpt>
      <trkpt lat="41.1866980" lon="-8.6873640">
        <ele>18.8</ele>
        <time>2021-05-16T06:17:25Z</time>
      </trkpt>
      <trkpt lat="41.1867030" lon="-8.6873670">
        <ele>18.8</ele>
        <time>2021-05-16T06:17:26Z</time>
      </trkpt>
      <trkpt lat="41.1867020" lon="-8.6873640">
        <ele>18.8</ele>
        <time>2021-05-16T06:17:27Z</time>
      </trkpt>
      <trkpt lat="41.1867050" lon="-8.6873630">
        <ele>18.8</ele>
        <time>2021-05-16T06:17:28Z</time>
      </trkpt>
      <trkpt lat="41.1866960" lon="-8.6873640">
        <ele>18.8</ele>
        <time>2021-05-16T06:17:29Z</time>
      </trkpt>
      <trkpt lat="41.1866820" lon="-8.6873750">
        <ele>18.8</ele>
        <time>2021-05-16T06:17:30Z</time>
      </trkpt>
      <trkpt lat="41.1866780" lon="-8.6873960">
        <ele>18.8</ele>
        <time>2021-05-16T06:17:31Z</time>
      </trkpt>
      <trkpt lat="41.1866540" lon="-8.6874140">
        <ele>18.8</ele>
        <time>2021-05-16T06:17:32Z</time>
      </trkpt>
      <trkpt lat="41.1866470" lon="-8.6874200">
        <ele>18.8</ele>
        <time>2021-05-16T06:17:33Z</time>
      </trkpt>
      <trkpt lat="41.1866330" lon="-8.6874300">
        <ele>18.8</ele>
        <time>2021-05-16T06:17:34Z</time>
      </trkpt>
      <trkpt lat="41.1866240" lon="-8.6874470">
        <ele>18.8</ele>
        <time>2021-05-16T06:17:35Z</time>
      </trkpt>
      <trkpt lat="41.1866340" lon="-8.6874720">
        <ele>18.8</ele>
        <time>2021-05-16T06:17:36Z</time>
      </trkpt>
      <trkpt lat="41.1866320" lon="-8.6874910">
        <ele>18.8</ele>
        <time>2021-05-16T06:17:37Z</time>
      </trkpt>
      <trkpt lat="41.1866300" lon="-8.6875070">
        <ele>18.7</ele>
        <time>2021-05-16T06:17:38Z</time>
      </trkpt>
      <trkpt lat="41.1866260" lon="-8.6875310">
        <ele>18.7</ele>
        <time>2021-05-16T06:17:39Z</time>
      </trkpt>
      <trkpt lat="41.1866200" lon="-8.6875610">
        <ele>18.7</ele>
        <time>2021-05-16T06:17:40Z</time>
      </trkpt>
      <trkpt lat="41.1866180" lon="-8.6875770">
        <ele>18.7</ele>
        <time>2021-05-16T06:17:41Z</time>
      </trkpt>
      <trkpt lat="41.1866150" lon="-8.6875920">
        <ele>18.7</ele>
        <time>2021-05-16T06:17:42Z</time>
      </trkpt>
      <trkpt lat="41.1866090" lon="-8.6876080">
        <ele>18.6</ele>
        <time>2021-05-16T06:17:43Z</time>
      </trkpt>
      <trkpt lat="41.1866070" lon="-8.6876300">
        <ele>18.6</ele>
        <time>2021-05-16T06:17:44Z</time>
      </trkpt>
      <trkpt lat="41.1866060" lon="-8.6876700">
        <ele>18.5</ele>
        <time>2021-05-16T06:17:45Z</time>
      </trkpt>
      <trkpt lat="41.1866110" lon="-8.6876900">
        <ele>18.5</ele>
        <time>2021-05-16T06:17:46Z</time>
      </trkpt>
      <trkpt lat="41.1866200" lon="-8.6877250">
        <ele>18.4</ele>
        <time>2021-05-16T06:17:47Z</time>
      </trkpt>
      <trkpt lat="41.1866240" lon="-8.6877350">
        <ele>18.4</ele>
        <time>2021-05-16T06:17:48Z</time>
      </trkpt>
      <trkpt lat="41.1866280" lon="-8.6877500">
        <ele>18.4</ele>
        <time>2021-05-16T06:17:49Z</time>
      </trkpt>
      <trkpt lat="41.1866230" lon="-8.6877610">
        <ele>18.4</ele>
        <time>2021-05-16T06:17:50Z</time>
      </trkpt>
      <trkpt lat="41.1866150" lon="-8.6877760">
        <ele>18.3</ele>
        <time>2021-05-16T06:17:51Z</time>
      </trkpt>
      <trkpt lat="41.1866220" lon="-8.6877870">
        <ele>18.3</ele>
        <time>2021-05-16T06:17:52Z</time>
      </trkpt>
      <trkpt lat="41.1866310" lon="-8.6878100">
        <ele>18.3</ele>
        <time>2021-05-16T06:17:53Z</time>
      </trkpt>
      <trkpt lat="41.1866300" lon="-8.6878320">
        <ele>18.2</ele>
        <time>2021-05-16T06:17:54Z</time>
      </trkpt>
      <trkpt lat="41.1866320" lon="-8.6878520">
        <ele>18.2</ele>
        <time>2021-05-16T06:17:55Z</time>
      </trkpt>
      <trkpt lat="41.1866370" lon="-8.6878770">
        <ele>18.1</ele>
        <time>2021-05-16T06:17:56Z</time>
      </trkpt>
      <trkpt lat="41.1866350" lon="-8.6878930">
        <ele>18.1</ele>
        <time>2021-05-16T06:17:57Z</time>
      </trkpt>
      <trkpt lat="41.1866410" lon="-8.6879350">
        <ele>18.0</ele>
        <time>2021-05-16T06:17:58Z</time>
      </trkpt>
      <trkpt lat="41.1866420" lon="-8.6879430">
        <ele>18.0</ele>
        <time>2021-05-16T06:17:59Z</time>
      </trkpt>
      <trkpt lat="41.1866470" lon="-8.6879660">
        <ele>17.9</ele>
        <time>2021-05-16T06:18:00Z</time>
      </trkpt>
      <trkpt lat="41.1866470" lon="-8.6879880">
        <ele>17.8</ele>
        <time>2021-05-16T06:18:01Z</time>
      </trkpt>
      <trkpt lat="41.1866560" lon="-8.6880170">
        <ele>17.7</ele>
        <time>2021-05-16T06:18:02Z</time>
      </trkpt>
      <trkpt lat="41.1866570" lon="-8.6880300">
        <ele>17.7</ele>
        <time>2021-05-16T06:18:03Z</time>
      </trkpt>
      <trkpt lat="41.1866590" lon="-8.6880430">
        <ele>17.6</ele>
        <time>2021-05-16T06:18:04Z</time>
      </trkpt>
      <trkpt lat="41.1866580" lon="-8.6880630">
        <ele>17.6</ele>
        <time>2021-05-16T06:18:05Z</time>
      </trkpt>
      <trkpt lat="41.1866610" lon="-8.6880780">
        <ele>17.5</ele>
        <time>2021-05-16T06:18:06Z</time>
      </trkpt>
      <trkpt lat="41.1866620" lon="-8.6881060">
        <ele>17.4</ele>
        <time>2021-05-16T06:18:07Z</time>
      </trkpt>
      <trkpt lat="41.1866670" lon="-8.6881190">
        <ele>17.4</ele>
        <time>2021-05-16T06:18:08Z</time>
      </trkpt>
      <trkpt lat="41.1866790" lon="-8.6881560">
        <ele>17.2</ele>
        <time>2021-05-16T06:18:09Z</time>
      </trkpt>
      <trkpt lat="41.1866830" lon="-8.6881700">
        <ele>17.2</ele>
        <time>2021-05-16T06:18:10Z</time>
      </trkpt>
      <trkpt lat="41.1866810" lon="-8.6881900">
        <ele>17.1</ele>
        <time>2021-05-16T06:18:11Z</time>
      </trkpt>
      <trkpt lat="41.1866810" lon="-8.6882100">
        <ele>17.0</ele>
        <time>2021-05-16T06:18:12Z</time>
      </trkpt>
      <trkpt lat="41.1866860" lon="-8.6882250">
        <ele>16.9</ele>
        <time>2021-05-16T06:18:13Z</time>
      </trkpt>
      <trkpt lat="41.1866870" lon="-8.6882460">
        <ele>16.8</ele>
        <time>2021-05-16T06:18:14Z</time>
      </trkpt>
      <trkpt lat="41.1866880" lon="-8.6882590">
        <ele>16.8</ele>
        <time>2021-05-16T06:18:15Z</time>
      </trkpt>
      <trkpt lat="41.1867010" lon="-8.6882820">
        <ele>16.7</ele>
        <time>2021-05-16T06:18:16Z</time>
      </trkpt>
      <trkpt lat="41.1867030" lon="-8.6882990">
        <ele>16.6</ele>
        <time>2021-05-16T06:18:17Z</time>
      </trkpt>
      <trkpt lat="41.1867080" lon="-8.6883220">
        <ele>16.5</ele>
        <time>2021-05-16T06:18:18Z</time>
      </trkpt>
      <trkpt lat="41.1867030" lon="-8.6883230">
        <ele>16.5</ele>
        <time>2021-05-16T06:18:19Z</time>
      </trkpt>
      <trkpt lat="41.1866940" lon="-8.6883330">
        <ele>16.4</ele>
        <time>2021-05-16T06:18:20Z</time>
      </trkpt>
      <trkpt lat="41.1866940" lon="-8.6883590">
        <ele>16.3</ele>
        <time>2021-05-16T06:18:21Z</time>
      </trkpt>
      <trkpt lat="41.1866850" lon="-8.6883960">
        <ele>16.2</ele>
        <time>2021-05-16T06:18:22Z</time>
      </trkpt>
      <trkpt lat="41.1866770" lon="-8.6884030">
        <ele>16.1</ele>
        <time>2021-05-16T06:18:23Z</time>
      </trkpt>
      <trkpt lat="41.1866760" lon="-8.6884230">
        <ele>16.0</ele>
        <time>2021-05-16T06:18:24Z</time>
      </trkpt>
      <trkpt lat="41.1866680" lon="-8.6884420">
        <ele>15.9</ele>
        <time>2021-05-16T06:18:25Z</time>
      </trkpt>
      <trkpt lat="41.1866660" lon="-8.6884520">
        <ele>15.9</ele>
        <time>2021-05-16T06:18:26Z</time>
      </trkpt>
      <trkpt lat="41.1866680" lon="-8.6884660">
        <ele>15.8</ele>
        <time>2021-05-16T06:18:27Z</time>
      </trkpt>
      <trkpt lat="41.1866650" lon="-8.6884800">
        <ele>15.8</ele>
        <time>2021-05-16T06:18:28Z</time>
      </trkpt>
      <trkpt lat="41.1866520" lon="-8.6885070">
        <ele>15.7</ele>
        <time>2021-05-16T06:18:29Z</time>
      </trkpt>
      <trkpt lat="41.1866470" lon="-8.6885150">
        <ele>15.7</ele>
        <time>2021-05-16T06:18:30Z</time>
      </trkpt>
      <trkpt lat="41.1866420" lon="-8.6885230">
        <ele>15.7</ele>
        <time>2021-05-16T06:18:31Z</time>
      </trkpt>
      <trkpt lat="41.1866350" lon="-8.6885480">
        <ele>15.6</ele>
        <time>2021-05-16T06:18:32Z</time>
      </trkpt>
      <trkpt lat="41.1866300" lon="-8.6885580">
        <ele>15.6</ele>
        <time>2021-05-16T06:18:33Z</time>
      </trkpt>
      <trkpt lat="41.1866260" lon="-8.6885870">
        <ele>15.5</ele>
        <time>2021-05-16T06:18:34Z</time>
      </trkpt>
      <trkpt lat="41.1866250" lon="-8.6885960">
        <ele>15.5</ele>
        <time>2021-05-16T06:18:35Z</time>
      </trkpt>
      <trkpt lat="41.1866230" lon="-8.6886050">
        <ele>15.4</ele>
        <time>2021-05-16T06:18:36Z</time>
      </trkpt>
      <trkpt lat="41.1866180" lon="-8.6886260">
        <ele>15.4</ele>
        <time>2021-05-16T06:18:37Z</time>
      </trkpt>
      <trkpt lat="41.1866120" lon="-8.6886460">
        <ele>15.4</ele>
        <time>2021-05-16T06:18:38Z</time>
      </trkpt>
      <trkpt lat="41.1866000" lon="-8.6886660">
        <ele>15.3</ele>
        <time>2021-05-16T06:18:39Z</time>
      </trkpt>
      <trkpt lat="41.1866000" lon="-8.6886800">
        <ele>15.3</ele>
        <time>2021-05-16T06:18:40Z</time>
      </trkpt>
      <trkpt lat="41.1866000" lon="-8.6886930">
        <ele>15.3</ele>
        <time>2021-05-16T06:18:41Z</time>
      </trkpt>
      <trkpt lat="41.1865870" lon="-8.6887260">
        <ele>15.2</ele>
        <time>2021-05-16T06:18:42Z</time>
      </trkpt>
      <trkpt lat="41.1865790" lon="-8.6887400">
        <ele>15.2</ele>
        <time>2021-05-16T06:18:43Z</time>
      </trkpt>
      <trkpt lat="41.1865640" lon="-8.6887540">
        <ele>15.2</ele>
        <time>2021-05-16T06:18:44Z</time>
      </trkpt>
      <trkpt lat="41.1865610" lon="-8.6887710">
        <ele>15.1</ele>
        <time>2021-05-16T06:18:45Z</time>
      </trkpt>
      <trkpt lat="41.1865430" lon="-8.6887990">
        <ele>15.1</ele>
        <time>2021-05-16T06:18:46Z</time>
      </trkpt>
      <trkpt lat="41.1865470" lon="-8.6888130">
        <ele>15.1</ele>
        <time>2021-05-16T06:18:47Z</time>
      </trkpt>
      <trkpt lat="41.1865320" lon="-8.6888370">
        <ele>15.1</ele>
        <time>2021-05-16T06:18:48Z</time>
      </trkpt>
      <trkpt lat="41.1865300" lon="-8.6888590">
        <ele>15.1</ele>
        <time>2021-05-16T06:18:49Z</time>
      </trkpt>
      <trkpt lat="41.1865220" lon="-8.6888720">
        <ele>15.1</ele>
        <time>2021-05-16T06:18:50Z</time>
      </trkpt>
      <trkpt lat="41.1865150" lon="-8.6888840">
        <ele>15.1</ele>
        <time>2021-05-16T06:18:51Z</time>
      </trkpt>
      <trkpt lat="41.1865140" lon="-8.6888830">
        <ele>15.1</ele>
        <time>2021-05-16T06:18:52Z</time>
      </trkpt>
      <trkpt lat="41.1865150" lon="-8.6888980">
        <ele>15.1</ele>
        <time>2021-05-16T06:18:53Z</time>
      </trkpt>
      <trkpt lat="41.1865140" lon="-8.6889210">
        <ele>15.1</ele>
        <time>2021-05-16T06:18:54Z</time>
      </trkpt>
      <trkpt lat="41.1865100" lon="-8.6889540">
        <ele>15.1</ele>
        <time>2021-05-16T06:18:55Z</time>
      </trkpt>
      <trkpt lat="41.1865080" lon="-8.6889700">
        <ele>15.1</ele>
        <time>2021-05-16T06:18:56Z</time>
      </trkpt>
      <trkpt lat="41.1865020" lon="-8.6889880">
        <ele>15.1</ele>
        <time>2021-05-16T06:18:57Z</time>
      </trkpt>
      <trkpt lat="41.1864980" lon="-8.6890010">
        <ele>15.2</ele>
        <time>2021-05-16T06:18:58Z</time>
      </trkpt>
      <trkpt lat="41.1864950" lon="-8.6890150">
        <ele>15.2</ele>
        <time>2021-05-16T06:18:59Z</time>
      </trkpt>
      <trkpt lat="41.1864910" lon="-8.6890280">
        <ele>15.2</ele>
        <time>2021-05-16T06:19:00Z</time>
      </trkpt>
      <trkpt lat="41.1864860" lon="-8.6890450">
        <ele>15.2</ele>
        <time>2021-05-16T06:19:01Z</time>
      </trkpt>
      <trkpt lat="41.1864930" lon="-8.6890710">
        <ele>15.1</ele>
        <time>2021-05-16T06:19:02Z</time>
      </trkpt>
      <trkpt lat="41.1865050" lon="-8.6890870">
        <ele>15.1</ele>
        <time>2021-05-16T06:19:03Z</time>
      </trkpt>
      <trkpt lat="41.1864950" lon="-8.6890980">
        <ele>15.1</ele>
        <time>2021-05-16T06:19:04Z</time>
      </trkpt>
      <trkpt lat="41.1865050" lon="-8.6891040">
        <ele>15.0</ele>
        <time>2021-05-16T06:19:05Z</time>
      </trkpt>
      <trkpt lat="41.1865100" lon="-8.6891230">
        <ele>15.0</ele>
        <time>2021-05-16T06:19:06Z</time>
      </trkpt>
      <trkpt lat="41.1865170" lon="-8.6891350">
        <ele>15.0</ele>
        <time>2021-05-16T06:19:07Z</time>
      </trkpt>
      <trkpt lat="41.1865230" lon="-8.6891460">
        <ele>15.0</ele>
        <time>2021-05-16T06:19:08Z</time>
      </trkpt>
      <trkpt lat="41.1865320" lon="-8.6891350">
        <ele>15.0</ele>
        <time>2021-05-16T06:19:09Z</time>
      </trkpt>
      <trkpt lat="41.1865440" lon="-8.6891450">
        <ele>14.9</ele>
        <time>2021-05-16T06:19:10Z</time>
      </trkpt>
      <trkpt lat="41.1865590" lon="-8.6891470">
        <ele>14.9</ele>
        <time>2021-05-16T06:19:11Z</time>
      </trkpt>
      <trkpt lat="41.1865860" lon="-8.6891560">
        <ele>14.9</ele>
        <time>2021-05-16T06:19:12Z</time>
      </trkpt>
      <trkpt lat="41.1865950" lon="-8.6891650">
        <ele>14.8</ele>
        <time>2021-05-16T06:19:14Z</time>
      </trkpt>
      <trkpt lat="41.1866030" lon="-8.6891750">
        <ele>14.8</ele>
        <time>2021-05-16T06:19:15Z</time>
      </trkpt>
      <trkpt lat="41.1866120" lon="-8.6891840">
        <ele>14.8</ele>
        <time>2021-05-16T06:19:16Z</time>
      </trkpt>
      <trkpt lat="41.1866210" lon="-8.6891930">
        <ele>14.8</ele>
        <time>2021-05-16T06:19:17Z</time>
      </trkpt>
      <trkpt lat="41.1866120" lon="-8.6892130">
        <ele>14.8</ele>
        <time>2021-05-16T06:19:18Z</time>
      </trkpt>
      <trkpt lat="41.1866130" lon="-8.6892370">
        <ele>14.8</ele>
        <time>2021-05-16T06:19:19Z</time>
      </trkpt>
      <trkpt lat="41.1866240" lon="-8.6892820">
        <ele>14.7</ele>
        <time>2021-05-16T06:19:20Z</time>
      </trkpt>
      <trkpt lat="41.1866290" lon="-8.6892970">
        <ele>14.7</ele>
        <time>2021-05-16T06:19:21Z</time>
      </trkpt>
      <trkpt lat="41.1866380" lon="-8.6893330">
        <ele>14.7</ele>
        <time>2021-05-16T06:19:22Z</time>
      </trkpt>
      <trkpt lat="41.1866420" lon="-8.6893490">
        <ele>14.7</ele>
        <time>2021-05-16T06:19:23Z</time>
      </trkpt>
      <trkpt lat="41.1866350" lon="-8.6893720">
        <ele>14.7</ele>
        <time>2021-05-16T06:19:24Z</time>
      </trkpt>
      <trkpt lat="41.1866310" lon="-8.6893900">
        <ele>14.7</ele>
        <time>2021-05-16T06:19:25Z</time>
      </trkpt>
      <trkpt lat="41.1866310" lon="-8.6894150">
        <ele>14.7</ele>
        <time>2021-05-16T06:19:26Z</time>
      </trkpt>
      <trkpt lat="41.1866360" lon="-8.6894350">
        <ele>14.7</ele>
        <time>2021-05-16T06:19:27Z</time>
      </trkpt>
      <trkpt lat="41.1866550" lon="-8.6894400">
        <ele>14.7</ele>
        <time>2021-05-16T06:19:28Z</time>
      </trkpt>
      <trkpt lat="41.1866420" lon="-8.6894710">
        <ele>14.8</ele>
        <time>2021-05-16T06:19:29Z</time>
      </trkpt>
      <trkpt lat="41.1866500" lon="-8.6895080">
        <ele>14.8</ele>
        <time>2021-05-16T06:19:30Z</time>
      </trkpt>
      <trkpt lat="41.1866500" lon="-8.6895180">
        <ele>14.8</ele>
        <time>2021-05-16T06:19:31Z</time>
      </trkpt>
      <trkpt lat="41.1866570" lon="-8.6895510">
        <ele>14.9</ele>
        <time>2021-05-16T06:19:32Z</time>
      </trkpt>
      <trkpt lat="41.1866590" lon="-8.6895660">
        <ele>14.9</ele>
        <time>2021-05-16T06:19:33Z</time>
      </trkpt>
      <trkpt lat="41.1866600" lon="-8.6895990">
        <ele>15.0</ele>
        <time>2021-05-16T06:19:34Z</time>
      </trkpt>
      <trkpt lat="41.1866580" lon="-8.6896080">
        <ele>15.0</ele>
        <time>2021-05-16T06:19:35Z</time>
      </trkpt>
      <trkpt lat="41.1866570" lon="-8.6896180">
        <ele>15.0</ele>
        <time>2021-05-16T06:19:36Z</time>
      </trkpt>
      <trkpt lat="41.1866550" lon="-8.6896320">
        <ele>15.0</ele>
        <time>2021-05-16T06:19:37Z</time>
      </trkpt>
      <trkpt lat="41.1866600" lon="-8.6896580">
        <ele>15.1</ele>
        <time>2021-05-16T06:19:38Z</time>
      </trkpt>
      <trkpt lat="41.1866590" lon="-8.6896770">
        <ele>15.1</ele>
        <time>2021-05-16T06:19:39Z</time>
      </trkpt>
      <trkpt lat="41.1866620" lon="-8.6896960">
        <ele>15.1</ele>
        <time>2021-05-16T06:19:40Z</time>
      </trkpt>
      <trkpt lat="41.1866470" lon="-8.6897170">
        <ele>15.2</ele>
        <time>2021-05-16T06:19:41Z</time>
      </trkpt>
      <trkpt lat="41.1866400" lon="-8.6897260">
        <ele>15.2</ele>
        <time>2021-05-16T06:19:42Z</time>
      </trkpt>
      <trkpt lat="41.1866330" lon="-8.6897350">
        <ele>15.2</ele>
        <time>2021-05-16T06:19:43Z</time>
      </trkpt>
      <trkpt lat="41.1866260" lon="-8.6897590">
        <ele>15.3</ele>
        <time>2021-05-16T06:19:44Z</time>
      </trkpt>
      <trkpt lat="41.1866250" lon="-8.6897740">
        <ele>15.3</ele>
        <time>2021-05-16T06:19:45Z</time>
      </trkpt>
      <trkpt lat="41.1866200" lon="-8.6897940">
        <ele>15.3</ele>
        <time>2021-05-16T06:19:46Z</time>
      </trkpt>
      <trkpt lat="41.1866100" lon="-8.6898090">
        <ele>15.4</ele>
        <time>2021-05-16T06:19:47Z</time>
      </trkpt>
      <trkpt lat="41.1866150" lon="-8.6898240">
        <ele>15.4</ele>
        <time>2021-05-16T06:19:48Z</time>
      </trkpt>
      <trkpt lat="41.1866140" lon="-8.6898350">
        <ele>15.4</ele>
        <time>2021-05-16T06:19:49Z</time>
      </trkpt>
      <trkpt lat="41.1866140" lon="-8.6898520">
        <ele>15.4</ele>
        <time>2021-05-16T06:19:50Z</time>
      </trkpt>
      <trkpt lat="41.1866220" lon="-8.6898700">
        <ele>15.4</ele>
        <time>2021-05-16T06:19:51Z</time>
      </trkpt>
      <trkpt lat="41.1866430" lon="-8.6898800">
        <ele>15.2</ele>
        <time>2021-05-16T06:19:52Z</time>
      </trkpt>
      <trkpt lat="41.1866470" lon="-8.6898930">
        <ele>15.1</ele>
        <time>2021-05-16T06:19:53Z</time>
      </trkpt>
      <trkpt lat="41.1866530" lon="-8.6899020">
        <ele>15.0</ele>
        <time>2021-05-16T06:19:54Z</time>
      </trkpt>
      <trkpt lat="41.1866600" lon="-8.6899100">
        <ele>15.0</ele>
        <time>2021-05-16T06:19:55Z</time>
      </trkpt>
      <trkpt lat="41.1866660" lon="-8.6899190">
        <ele>14.9</ele>
        <time>2021-05-16T06:19:56Z</time>
      </trkpt>
      <trkpt lat="41.1866800" lon="-8.6899220">
        <ele>14.8</ele>
        <time>2021-05-16T06:19:57Z</time>
      </trkpt>
      <trkpt lat="41.1866910" lon="-8.6899350">
        <ele>14.7</ele>
        <time>2021-05-16T06:19:58Z</time>
      </trkpt>
      <trkpt lat="41.1866930" lon="-8.6899350">
        <ele>14.6</ele>
        <time>2021-05-16T06:19:59Z</time>
      </trkpt>
      <trkpt lat="41.1867060" lon="-8.6899450">
        <ele>14.5</ele>
        <time>2021-05-16T06:20:00Z</time>
      </trkpt>
      <trkpt lat="41.1867150" lon="-8.6899530">
        <ele>14.4</ele>
        <time>2021-05-16T06:20:01Z</time>
      </trkpt>
      <trkpt lat="41.1867210" lon="-8.6899610">
        <ele>14.4</ele>
        <time>2021-05-16T06:20:02Z</time>
      </trkpt>
      <trkpt lat="41.1867280" lon="-8.6899630">
        <ele>14.3</ele>
        <time>2021-05-16T06:20:03Z</time>
      </trkpt>
      <trkpt lat="41.1867410" lon="-8.6899640">
        <ele>14.2</ele>
        <time>2021-05-16T06:20:04Z</time>
      </trkpt>
      <trkpt lat="41.1867570" lon="-8.6899840">
        <ele>14.1</ele>
        <time>2021-05-16T06:20:05Z</time>
      </trkpt>
      <trkpt lat="41.1867680" lon="-8.6899930">
        <ele>13.9</ele>
        <time>2021-05-16T06:20:06Z</time>
      </trkpt>
      <trkpt lat="41.1867860" lon="-8.6900130">
        <ele>13.8</ele>
        <time>2021-05-16T06:20:07Z</time>
      </trkpt>
      <trkpt lat="41.1867920" lon="-8.6900210">
        <ele>13.7</ele>
        <time>2021-05-16T06:20:08Z</time>
      </trkpt>
      <trkpt lat="41.1867980" lon="-8.6900280">
        <ele>13.6</ele>
        <time>2021-05-16T06:20:09Z</time>
      </trkpt>
      <trkpt lat="41.1868060" lon="-8.6900330">
        <ele>13.6</ele>
        <time>2021-05-16T06:20:10Z</time>
      </trkpt>
      <trkpt lat="41.1868310" lon="-8.6900470">
        <ele>13.4</ele>
        <time>2021-05-16T06:20:11Z</time>
      </trkpt>
      <trkpt lat="41.1868460" lon="-8.6900590">
        <ele>13.2</ele>
        <time>2021-05-16T06:20:12Z</time>
      </trkpt>
      <trkpt lat="41.1868610" lon="-8.6900690">
        <ele>13.1</ele>
        <time>2021-05-16T06:20:13Z</time>
      </trkpt>
      <trkpt lat="41.1868750" lon="-8.6900780">
        <ele>13.0</ele>
        <time>2021-05-16T06:20:14Z</time>
      </trkpt>
      <trkpt lat="41.1868880" lon="-8.6900890">
        <ele>12.8</ele>
        <time>2021-05-16T06:20:15Z</time>
      </trkpt>
      <trkpt lat="41.1869080" lon="-8.6900970">
        <ele>12.7</ele>
        <time>2021-05-16T06:20:16Z</time>
      </trkpt>
      <trkpt lat="41.1869270" lon="-8.6901060">
        <ele>12.5</ele>
        <time>2021-05-16T06:20:17Z</time>
      </trkpt>
      <trkpt lat="41.1869430" lon="-8.6900970">
        <ele>12.4</ele>
        <time>2021-05-16T06:20:18Z</time>
      </trkpt>
      <trkpt lat="41.1869580" lon="-8.6901120">
        <ele>12.3</ele>
        <time>2021-05-16T06:20:19Z</time>
      </trkpt>
      <trkpt lat="41.1869680" lon="-8.6901200">
        <ele>12.2</ele>
        <time>2021-05-16T06:20:20Z</time>
      </trkpt>
      <trkpt lat="41.1869800" lon="-8.6901300">
        <ele>12.1</ele>
        <time>2021-05-16T06:20:21Z</time>
      </trkpt>
      <trkpt lat="41.1869910" lon="-8.6901400">
        <ele>12.0</ele>
        <time>2021-05-16T06:20:22Z</time>
      </trkpt>
      <trkpt lat="41.1870060" lon="-8.6901550">
        <ele>11.8</ele>
        <time>2021-05-16T06:20:23Z</time>
      </trkpt>
      <trkpt lat="41.1870130" lon="-8.6901600">
        <ele>11.8</ele>
        <time>2021-05-16T06:20:24Z</time>
      </trkpt>
      <trkpt lat="41.1870190" lon="-8.6901660">
        <ele>11.7</ele>
        <time>2021-05-16T06:20:25Z</time>
      </trkpt>
      <trkpt lat="41.1870250" lon="-8.6901720">
        <ele>11.7</ele>
        <time>2021-05-16T06:20:26Z</time>
      </trkpt>
      <trkpt lat="41.1870400" lon="-8.6901810">
        <ele>11.5</ele>
        <time>2021-05-16T06:20:27Z</time>
      </trkpt>
      <trkpt lat="41.1870510" lon="-8.6901810">
        <ele>11.5</ele>
        <time>2021-05-16T06:20:28Z</time>
      </trkpt>
      <trkpt lat="41.1870610" lon="-8.6901800">
        <ele>11.4</ele>
        <time>2021-05-16T06:20:29Z</time>
      </trkpt>
      <trkpt lat="41.1870740" lon="-8.6901890">
        <ele>11.3</ele>
        <time>2021-05-16T06:20:30Z</time>
      </trkpt>
      <trkpt lat="41.1870860" lon="-8.6901930">
        <ele>11.2</ele>
        <time>2021-05-16T06:20:31Z</time>
      </trkpt>
      <trkpt lat="41.1870940" lon="-8.6902000">
        <ele>11.2</ele>
        <time>2021-05-16T06:20:32Z</time>
      </trkpt>
      <trkpt lat="41.1871000" lon="-8.6902050">
        <ele>11.1</ele>
        <time>2021-05-16T06:20:33Z</time>
      </trkpt>
      <trkpt lat="41.1871140" lon="-8.6902210">
        <ele>11.0</ele>
        <time>2021-05-16T06:20:34Z</time>
      </trkpt>
      <trkpt lat="41.1871340" lon="-8.6902370">
        <ele>10.8</ele>
        <time>2021-05-16T06:20:35Z</time>
      </trkpt>
      <trkpt lat="41.1871420" lon="-8.6902420">
        <ele>10.8</ele>
        <time>2021-05-16T06:20:36Z</time>
      </trkpt>
      <trkpt lat="41.1871500" lon="-8.6902480">
        <ele>10.7</ele>
        <time>2021-05-16T06:20:37Z</time>
      </trkpt>
      <trkpt lat="41.1871580" lon="-8.6902620">
        <ele>10.6</ele>
        <time>2021-05-16T06:20:38Z</time>
      </trkpt>
      <trkpt lat="41.1871690" lon="-8.6902740">
        <ele>10.5</ele>
        <time>2021-05-16T06:20:39Z</time>
      </trkpt>
      <trkpt lat="41.1871820" lon="-8.6902860">
        <ele>10.4</ele>
        <time>2021-05-16T06:20:40Z</time>
      </trkpt>
      <trkpt lat="41.1871890" lon="-8.6903010">
        <ele>10.4</ele>
        <time>2021-05-16T06:20:41Z</time>
      </trkpt>
      <trkpt lat="41.1871990" lon="-8.6903420">
        <ele>10.2</ele>
        <time>2021-05-16T06:20:42Z</time>
      </trkpt>
      <trkpt lat="41.1872030" lon="-8.6903550">
        <ele>10.1</ele>
        <time>2021-05-16T06:20:43Z</time>
      </trkpt>
      <trkpt lat="41.1872220" lon="-8.6903710">
        <ele>10.0</ele>
        <time>2021-05-16T06:20:44Z</time>
      </trkpt>
      <trkpt lat="41.1872360" lon="-8.6903670">
        <ele>9.9</ele>
        <time>2021-05-16T06:20:45Z</time>
      </trkpt>
      <trkpt lat="41.1872630" lon="-8.6903830">
        <ele>9.7</ele>
        <time>2021-05-16T06:20:46Z</time>
      </trkpt>
      <trkpt lat="41.1872700" lon="-8.6903890">
        <ele>9.6</ele>
        <time>2021-05-16T06:20:47Z</time>
      </trkpt>
      <trkpt lat="41.1872810" lon="-8.6903960">
        <ele>9.6</ele>
        <time>2021-05-16T06:20:48Z</time>
      </trkpt>
      <trkpt lat="41.1872940" lon="-8.6904080">
        <ele>9.5</ele>
        <time>2021-05-16T06:20:49Z</time>
      </trkpt>
      <trkpt lat="41.1873080" lon="-8.6904180">
        <ele>9.4</ele>
        <time>2021-05-16T06:20:50Z</time>
      </trkpt>
      <trkpt lat="41.1873250" lon="-8.6904250">
        <ele>9.3</ele>
        <time>2021-05-16T06:20:51Z</time>
      </trkpt>
      <trkpt lat="41.1873410" lon="-8.6904460">
        <ele>9.1</ele>
        <time>2021-05-16T06:20:52Z</time>
      </trkpt>
      <trkpt lat="41.1873470" lon="-8.6904600">
        <ele>9.1</ele>
        <time>2021-05-16T06:20:53Z</time>
      </trkpt>
      <trkpt lat="41.1873540" lon="-8.6904730">
        <ele>9.0</ele>
        <time>2021-05-16T06:20:54Z</time>
      </trkpt>
      <trkpt lat="41.1873620" lon="-8.6904850">
        <ele>8.9</ele>
        <time>2021-05-16T06:20:55Z</time>
      </trkpt>
      <trkpt lat="41.1873750" lon="-8.6905020">
        <ele>8.8</ele>
        <time>2021-05-16T06:20:56Z</time>
      </trkpt>
      <trkpt lat="41.1873850" lon="-8.6905140">
        <ele>8.7</ele>
        <time>2021-05-16T06:20:57Z</time>
      </trkpt>
      <trkpt lat="41.1874000" lon="-8.6905210">
        <ele>8.6</ele>
        <time>2021-05-16T06:20:58Z</time>
      </trkpt>
      <trkpt lat="41.1874220" lon="-8.6905350">
        <ele>8.5</ele>
        <time>2021-05-16T06:20:59Z</time>
      </trkpt>
      <trkpt lat="41.1874300" lon="-8.6905440">
        <ele>8.4</ele>
        <time>2021-05-16T06:21:00Z</time>
      </trkpt>
      <trkpt lat="41.1874390" lon="-8.6905530">
        <ele>8.4</ele>
        <time>2021-05-16T06:21:01Z</time>
      </trkpt>
      <trkpt lat="41.1874470" lon="-8.6905610">
        <ele>8.3</ele>
        <time>2021-05-16T06:21:02Z</time>
      </trkpt>
      <trkpt lat="41.1874660" lon="-8.6905800">
        <ele>8.2</ele>
        <time>2021-05-16T06:21:03Z</time>
      </trkpt>
      <trkpt lat="41.1874770" lon="-8.6905820">
        <ele>8.1</ele>
        <time>2021-05-16T06:21:04Z</time>
      </trkpt>
      <trkpt lat="41.1874930" lon="-8.6905940">
        <ele>8.0</ele>
        <time>2021-05-16T06:21:05Z</time>
      </trkpt>
      <trkpt lat="41.1874930" lon="-8.6905990">
        <ele>8.0</ele>
        <time>2021-05-16T06:21:06Z</time>
      </trkpt>
      <trkpt lat="41.1875040" lon="-8.6906120">
        <ele>8.0</ele>
        <time>2021-05-16T06:21:07Z</time>
      </trkpt>
      <trkpt lat="41.1875130" lon="-8.6906270">
        <ele>7.9</ele>
        <time>2021-05-16T06:21:08Z</time>
      </trkpt>
      <trkpt lat="41.1875240" lon="-8.6906490">
        <ele>7.8</ele>
        <time>2021-05-16T06:21:09Z</time>
      </trkpt>
      <trkpt lat="41.1875340" lon="-8.6906620">
        <ele>7.7</ele>
        <time>2021-05-16T06:21:10Z</time>
      </trkpt>
      <trkpt lat="41.1875450" lon="-8.6906760">
        <ele>7.7</ele>
        <time>2021-05-16T06:21:11Z</time>
      </trkpt>
      <trkpt lat="41.1875630" lon="-8.6906870">
        <ele>7.6</ele>
        <time>2021-05-16T06:21:12Z</time>
      </trkpt>
      <trkpt lat="41.1875690" lon="-8.6906960">
        <ele>7.5</ele>
        <time>2021-05-16T06:21:13Z</time>
      </trkpt>
      <trkpt lat="41.1875750" lon="-8.6907040">
        <ele>7.5</ele>
        <time>2021-05-16T06:21:14Z</time>
      </trkpt>
      <trkpt lat="41.1875930" lon="-8.6907240">
        <ele>7.6</ele>
        <time>2021-05-16T06:21:15Z</time>
      </trkpt>
      <trkpt lat="41.1876020" lon="-8.6907320">
        <ele>7.6</ele>
        <time>2021-05-16T06:21:16Z</time>
      </trkpt>
      <trkpt lat="41.1876100" lon="-8.6907390">
        <ele>7.7</ele>
        <time>2021-05-16T06:21:17Z</time>
      </trkpt>
      <trkpt lat="41.1876270" lon="-8.6907410">
        <ele>7.7</ele>
        <time>2021-05-16T06:21:18Z</time>
      </trkpt>
      <trkpt lat="41.1876250" lon="-8.6907380">
        <ele>7.7</ele>
        <time>2021-05-16T06:21:20Z</time>
      </trkpt>
      <trkpt lat="41.1876230" lon="-8.6907340">
        <ele>7.8</ele>
        <time>2021-05-16T06:21:21Z</time>
      </trkpt>
      <trkpt lat="41.1876210" lon="-8.6907310">
        <ele>7.8</ele>
        <time>2021-05-16T06:21:22Z</time>
      </trkpt>
      <trkpt lat="41.1876200" lon="-8.6907270">
        <ele>7.8</ele>
        <time>2021-05-16T06:21:23Z</time>
      </trkpt>
      <trkpt lat="41.1876180" lon="-8.6907240">
        <ele>7.8</ele>
        <time>2021-05-16T06:21:24Z</time>
      </trkpt>
      <trkpt lat="41.1876160" lon="-8.6907200">
        <ele>7.8</ele>
        <time>2021-05-16T06:21:25Z</time>
      </trkpt>
      <trkpt lat="41.1876140" lon="-8.6907170">
        <ele>7.8</ele>
        <time>2021-05-16T06:21:26Z</time>
      </trkpt>
      <trkpt lat="41.1876120" lon="-8.6907130">
        <ele>7.8</ele>
        <time>2021-05-16T06:21:27Z</time>
      </trkpt>
      <trkpt lat="41.1875870" lon="-8.6906870">
        <ele>8.0</ele>
        <time>2021-05-16T06:21:28Z</time>
      </trkpt>
      <trkpt lat="41.1875800" lon="-8.6906830">
        <ele>8.0</ele>
        <time>2021-05-16T06:21:29Z</time>
      </trkpt>
      <trkpt lat="41.1875670" lon="-8.6906700">
        <ele>8.1</ele>
        <time>2021-05-16T06:21:30Z</time>
      </trkpt>
      <trkpt lat="41.1875530" lon="-8.6906650">
        <ele>8.2</ele>
        <time>2021-05-16T06:21:31Z</time>
      </trkpt>
      <trkpt lat="41.1875450" lon="-8.6906490">
        <ele>8.2</ele>
        <time>2021-05-16T06:21:32Z</time>
      </trkpt>
      <trkpt lat="41.1875310" lon="-8.6906410">
        <ele>8.3</ele>
        <time>2021-05-16T06:21:33Z</time>
      </trkpt>
      <trkpt lat="41.1875170" lon="-8.6906250">
        <ele>8.4</ele>
        <time>2021-05-16T06:21:34Z</time>
      </trkpt>
      <trkpt lat="41.1875030" lon="-8.6906190">
        <ele>8.5</ele>
        <time>2021-05-16T06:21:35Z</time>
      </trkpt>
      <trkpt lat="41.1874890" lon="-8.6906090">
        <ele>8.6</ele>
        <time>2021-05-16T06:21:36Z</time>
      </trkpt>
      <trkpt lat="41.1874750" lon="-8.6905940">
        <ele>8.6</ele>
        <time>2021-05-16T06:21:37Z</time>
      </trkpt>
      <trkpt lat="41.1874570" lon="-8.6905870">
        <ele>8.7</ele>
        <time>2021-05-16T06:21:38Z</time>
      </trkpt>
      <trkpt lat="41.1874430" lon="-8.6905710">
        <ele>8.8</ele>
        <time>2021-05-16T06:21:39Z</time>
      </trkpt>
      <trkpt lat="41.1874300" lon="-8.6905670">
        <ele>8.9</ele>
        <time>2021-05-16T06:21:40Z</time>
      </trkpt>
      <trkpt lat="41.1874170" lon="-8.6905570">
        <ele>9.0</ele>
        <time>2021-05-16T06:21:41Z</time>
      </trkpt>
      <trkpt lat="41.1874010" lon="-8.6905420">
        <ele>9.1</ele>
        <time>2021-05-16T06:21:42Z</time>
      </trkpt>
      <trkpt lat="41.1873930" lon="-8.6905350">
        <ele>9.2</ele>
        <time>2021-05-16T06:21:43Z</time>
      </trkpt>
      <trkpt lat="41.1873850" lon="-8.6905290">
        <ele>9.2</ele>
        <time>2021-05-16T06:21:44Z</time>
      </trkpt>
      <trkpt lat="41.1873730" lon="-8.6905250">
        <ele>9.3</ele>
        <time>2021-05-16T06:21:45Z</time>
      </trkpt>
      <trkpt lat="41.1873580" lon="-8.6905150">
        <ele>9.4</ele>
        <time>2021-05-16T06:21:46Z</time>
      </trkpt>
      <trkpt lat="41.1873400" lon="-8.6904980">
        <ele>9.5</ele>
        <time>2021-05-16T06:21:47Z</time>
      </trkpt>
      <trkpt lat="41.1873330" lon="-8.6904910">
        <ele>9.5</ele>
        <time>2021-05-16T06:21:48Z</time>
      </trkpt>
      <trkpt lat="41.1873250" lon="-8.6904850">
        <ele>9.6</ele>
        <time>2021-05-16T06:21:49Z</time>
      </trkpt>
      <trkpt lat="41.1873030" lon="-8.6904680">
        <ele>9.7</ele>
        <time>2021-05-16T06:21:50Z</time>
      </trkpt>
      <trkpt lat="41.1872940" lon="-8.6904610">
        <ele>9.8</ele>
        <time>2021-05-16T06:21:51Z</time>
      </trkpt>
      <trkpt lat="41.1872860" lon="-8.6904550">
        <ele>9.8</ele>
        <time>2021-05-16T06:21:52Z</time>
      </trkpt>
      <trkpt lat="41.1872680" lon="-8.6904370">
        <ele>10.0</ele>
        <time>2021-05-16T06:21:53Z</time>
      </trkpt>
      <trkpt lat="41.1872640" lon="-8.6904270">
        <ele>10.0</ele>
        <time>2021-05-16T06:21:54Z</time>
      </trkpt>
      <trkpt lat="41.1872600" lon="-8.6904170">
        <ele>10.1</ele>
        <time>2021-05-16T06:21:55Z</time>
      </trkpt>
      <trkpt lat="41.1872460" lon="-8.6904020">
        <ele>10.2</ele>
        <time>2021-05-16T06:21:56Z</time>
      </trkpt>
      <trkpt lat="41.1872370" lon="-8.6903920">
        <ele>10.2</ele>
        <time>2021-05-16T06:21:57Z</time>
      </trkpt>
      <trkpt lat="41.1872050" lon="-8.6903670">
        <ele>10.4</ele>
        <time>2021-05-16T06:21:58Z</time>
      </trkpt>
      <trkpt lat="41.1871940" lon="-8.6903610">
        <ele>10.5</ele>
        <time>2021-05-16T06:21:59Z</time>
      </trkpt>
      <trkpt lat="41.1871830" lon="-8.6903490">
        <ele>10.6</ele>
        <time>2021-05-16T06:22:00Z</time>
      </trkpt>
      <trkpt lat="41.1871690" lon="-8.6903410">
        <ele>10.7</ele>
        <time>2021-05-16T06:22:01Z</time>
      </trkpt>
      <trkpt lat="41.1871480" lon="-8.6903290">
        <ele>10.8</ele>
        <time>2021-05-16T06:22:02Z</time>
      </trkpt>
      <trkpt lat="41.1871420" lon="-8.6903220">
        <ele>10.9</ele>
        <time>2021-05-16T06:22:03Z</time>
      </trkpt>
      <trkpt lat="41.1871350" lon="-8.6903150">
        <ele>10.9</ele>
        <time>2021-05-16T06:22:04Z</time>
      </trkpt>
      <trkpt lat="41.1871220" lon="-8.6903040">
        <ele>11.0</ele>
        <time>2021-05-16T06:22:05Z</time>
      </trkpt>
      <trkpt lat="41.1871110" lon="-8.6902960">
        <ele>11.1</ele>
        <time>2021-05-16T06:22:06Z</time>
      </trkpt>
      <trkpt lat="41.1870980" lon="-8.6902850">
        <ele>11.2</ele>
        <time>2021-05-16T06:22:07Z</time>
      </trkpt>
      <trkpt lat="41.1870850" lon="-8.6902740">
        <ele>11.3</ele>
        <time>2021-05-16T06:22:08Z</time>
      </trkpt>
      <trkpt lat="41.1870650" lon="-8.6902620">
        <ele>11.4</ele>
        <time>2021-05-16T06:22:09Z</time>
      </trkpt>
      <trkpt lat="41.1870590" lon="-8.6902540">
        <ele>11.5</ele>
        <time>2021-05-16T06:22:10Z</time>
      </trkpt>
      <trkpt lat="41.1870520" lon="-8.6902450">
        <ele>11.5</ele>
        <time>2021-05-16T06:22:11Z</time>
      </trkpt>
      <trkpt lat="41.1870390" lon="-8.6902210">
        <ele>11.7</ele>
        <time>2021-05-16T06:22:12Z</time>
      </trkpt>
      <trkpt lat="41.1870320" lon="-8.6902100">
        <ele>11.7</ele>
        <time>2021-05-16T06:22:13Z</time>
      </trkpt>
      <trkpt lat="41.1870250" lon="-8.6902000">
        <ele>11.8</ele>
        <time>2021-05-16T06:22:14Z</time>
      </trkpt>
      <trkpt lat="41.1870140" lon="-8.6901780">
        <ele>11.9</ele>
        <time>2021-05-16T06:22:15Z</time>
      </trkpt>
      <trkpt lat="41.1870050" lon="-8.6901660">
        <ele>12.0</ele>
        <time>2021-05-16T06:22:16Z</time>
      </trkpt>
      <trkpt lat="41.1869940" lon="-8.6901540">
        <ele>12.1</ele>
        <time>2021-05-16T06:22:17Z</time>
      </trkpt>
      <trkpt lat="41.1869820" lon="-8.6901450">
        <ele>12.2</ele>
        <time>2021-05-16T06:22:18Z</time>
      </trkpt>
      <trkpt lat="41.1869730" lon="-8.6901280">
        <ele>12.3</ele>
        <time>2021-05-16T06:22:19Z</time>
      </trkpt>
      <trkpt lat="41.1869640" lon="-8.6901170">
        <ele>12.4</ele>
        <time>2021-05-16T06:22:20Z</time>
      </trkpt>
      <trkpt lat="41.1869500" lon="-8.6901090">
        <ele>12.5</ele>
        <time>2021-05-16T06:22:21Z</time>
      </trkpt>
      <trkpt lat="41.1869330" lon="-8.6901080">
        <ele>12.6</ele>
        <time>2021-05-16T06:22:22Z</time>
      </trkpt>
      <trkpt lat="41.1869060" lon="-8.6900910">
        <ele>12.8</ele>
        <time>2021-05-16T06:22:23Z</time>
      </trkpt>
      <trkpt lat="41.1868990" lon="-8.6900870">
        <ele>12.9</ele>
        <time>2021-05-16T06:22:24Z</time>
      </trkpt>
      <trkpt lat="41.1868920" lon="-8.6900840">
        <ele>13.0</ele>
        <time>2021-05-16T06:22:25Z</time>
      </trkpt>
      <trkpt lat="41.1868790" lon="-8.6900780">
        <ele>13.1</ele>
        <time>2021-05-16T06:22:26Z</time>
      </trkpt>
      <trkpt lat="41.1868690" lon="-8.6900680">
        <ele>13.1</ele>
        <time>2021-05-16T06:22:27Z</time>
      </trkpt>
      <trkpt lat="41.1868570" lon="-8.6900580">
        <ele>13.2</ele>
        <time>2021-05-16T06:22:28Z</time>
      </trkpt>
      <trkpt lat="41.1868390" lon="-8.6900480">
        <ele>13.4</ele>
        <time>2021-05-16T06:22:29Z</time>
      </trkpt>
      <trkpt lat="41.1868280" lon="-8.6900400">
        <ele>13.5</ele>
        <time>2021-05-16T06:22:30Z</time>
      </trkpt>
      <trkpt lat="41.1868120" lon="-8.6900290">
        <ele>13.6</ele>
        <time>2021-05-16T06:22:31Z</time>
      </trkpt>
      <trkpt lat="41.1867980" lon="-8.6900170">
        <ele>13.7</ele>
        <time>2021-05-16T06:22:32Z</time>
      </trkpt>
      <trkpt lat="41.1867860" lon="-8.6900080">
        <ele>13.8</ele>
        <time>2021-05-16T06:22:33Z</time>
      </trkpt>
      <trkpt lat="41.1867640" lon="-8.6899960">
        <ele>14.0</ele>
        <time>2021-05-16T06:22:34Z</time>
      </trkpt>
      <trkpt lat="41.1867570" lon="-8.6899900">
        <ele>14.0</ele>
        <time>2021-05-16T06:22:35Z</time>
      </trkpt>
      <trkpt lat="41.1867490" lon="-8.6899830">
        <ele>14.1</ele>
        <time>2021-05-16T06:22:36Z</time>
      </trkpt>
      <trkpt lat="41.1867420" lon="-8.6899800">
        <ele>14.2</ele>
        <time>2021-05-16T06:22:37Z</time>
      </trkpt>
      <trkpt lat="41.1867270" lon="-8.6899730">
        <ele>14.3</ele>
        <time>2021-05-16T06:22:38Z</time>
      </trkpt>
      <trkpt lat="41.1867160" lon="-8.6899660">
        <ele>14.4</ele>
        <time>2021-05-16T06:22:39Z</time>
      </trkpt>
      <trkpt lat="41.1867040" lon="-8.6899640">
        <ele>14.5</ele>
        <time>2021-05-16T06:22:40Z</time>
      </trkpt>
      <trkpt lat="41.1866880" lon="-8.6899590">
        <ele>14.6</ele>
        <time>2021-05-16T06:22:41Z</time>
      </trkpt>
      <trkpt lat="41.1866740" lon="-8.6899600">
        <ele>14.7</ele>
        <time>2021-05-16T06:22:42Z</time>
      </trkpt>
      <trkpt lat="41.1866670" lon="-8.6899500">
        <ele>14.7</ele>
        <time>2021-05-16T06:22:43Z</time>
      </trkpt>
      <trkpt lat="41.1866570" lon="-8.6899550">
        <ele>14.8</ele>
        <time>2021-05-16T06:22:44Z</time>
      </trkpt>
      <trkpt lat="41.1866350" lon="-8.6899580">
        <ele>15.4</ele>
        <time>2021-05-16T06:22:45Z</time>
      </trkpt>
      <trkpt lat="41.1866230" lon="-8.6899600">
        <ele>15.4</ele>
        <time>2021-05-16T06:22:46Z</time>
      </trkpt>
      <trkpt lat="41.1866120" lon="-8.6899620">
        <ele>15.4</ele>
        <time>2021-05-16T06:22:47Z</time>
      </trkpt>
      <trkpt lat="41.1866030" lon="-8.6899700">
        <ele>15.3</ele>
        <time>2021-05-16T06:22:48Z</time>
      </trkpt>
      <trkpt lat="41.1866060" lon="-8.6899890">
        <ele>15.3</ele>
        <time>2021-05-16T06:22:49Z</time>
      </trkpt>
      <trkpt lat="41.1865990" lon="-8.6900040">
        <ele>15.3</ele>
        <time>2021-05-16T06:22:50Z</time>
      </trkpt>
      <trkpt lat="41.1866050" lon="-8.6900220">
        <ele>15.3</ele>
        <time>2021-05-16T06:22:51Z</time>
      </trkpt>
      <trkpt lat="41.1866100" lon="-8.6900400">
        <ele>15.2</ele>
        <time>2021-05-16T06:22:52Z</time>
      </trkpt>
      <trkpt lat="41.1866110" lon="-8.6900750">
        <ele>15.2</ele>
        <time>2021-05-16T06:22:53Z</time>
      </trkpt>
      <trkpt lat="41.1866150" lon="-8.6900900">
        <ele>15.1</ele>
        <time>2021-05-16T06:22:54Z</time>
      </trkpt>
      <trkpt lat="41.1866160" lon="-8.6901060">
        <ele>15.1</ele>
        <time>2021-05-16T06:22:55Z</time>
      </trkpt>
      <trkpt lat="41.1866120" lon="-8.6901210">
        <ele>15.1</ele>
        <time>2021-05-16T06:22:56Z</time>
      </trkpt>
      <trkpt lat="41.1866130" lon="-8.6901340">
        <ele>15.0</ele>
        <time>2021-05-16T06:22:57Z</time>
      </trkpt>
      <trkpt lat="41.1866070" lon="-8.6901710">
        <ele>15.0</ele>
        <time>2021-05-16T06:22:58Z</time>
      </trkpt>
      <trkpt lat="41.1866030" lon="-8.6901830">
        <ele>14.9</ele>
        <time>2021-05-16T06:22:59Z</time>
      </trkpt>
      <trkpt lat="41.1866030" lon="-8.6902060">
        <ele>14.9</ele>
        <time>2021-05-16T06:23:00Z</time>
      </trkpt>
      <trkpt lat="41.1865990" lon="-8.6902210">
        <ele>14.9</ele>
        <time>2021-05-16T06:23:01Z</time>
      </trkpt>
      <trkpt lat="41.1865990" lon="-8.6902480">
        <ele>14.8</ele>
        <time>2021-05-16T06:23:02Z</time>
      </trkpt>
      <trkpt lat="41.1866000" lon="-8.6902590">
        <ele>14.8</ele>
        <time>2021-05-16T06:23:03Z</time>
      </trkpt>
      <trkpt lat="41.1866020" lon="-8.6902700">
        <ele>14.8</ele>
        <time>2021-05-16T06:23:04Z</time>
      </trkpt>
      <trkpt lat="41.1866010" lon="-8.6902990">
        <ele>14.7</ele>
        <time>2021-05-16T06:23:05Z</time>
      </trkpt>
      <trkpt lat="41.1866010" lon="-8.6903140">
        <ele>14.7</ele>
        <time>2021-05-16T06:23:06Z</time>
      </trkpt>
      <trkpt lat="41.1866010" lon="-8.6903280">
        <ele>14.7</ele>
        <time>2021-05-16T06:23:07Z</time>
      </trkpt>
      <trkpt lat="41.1866020" lon="-8.6903450">
        <ele>14.7</ele>
        <time>2021-05-16T06:23:08Z</time>
      </trkpt>
      <trkpt lat="41.1866040" lon="-8.6903650">
        <ele>14.6</ele>
        <time>2021-05-16T06:23:09Z</time>
      </trkpt>
      <trkpt lat="41.1866100" lon="-8.6903780">
        <ele>14.6</ele>
        <time>2021-05-16T06:23:10Z</time>
      </trkpt>
      <trkpt lat="41.1866060" lon="-8.6903940">
        <ele>14.6</ele>
        <time>2021-05-16T06:23:11Z</time>
      </trkpt>
      <trkpt lat="41.1866070" lon="-8.6904090">
        <ele>14.6</ele>
        <time>2021-05-16T06:23:12Z</time>
      </trkpt>
      <trkpt lat="41.1866030" lon="-8.6904530">
        <ele>14.5</ele>
        <time>2021-05-16T06:23:13Z</time>
      </trkpt>
      <trkpt lat="41.1866010" lon="-8.6904630">
        <ele>14.5</ele>
        <time>2021-05-16T06:23:14Z</time>
      </trkpt>
      <trkpt lat="41.1865940" lon="-8.6904820">
        <ele>14.5</ele>
        <time>2021-05-16T06:23:15Z</time>
      </trkpt>
      <trkpt lat="41.1865910" lon="-8.6904950">
        <ele>14.4</ele>
        <time>2021-05-16T06:23:17Z</time>
      </trkpt>
      <trkpt lat="41.1865890" lon="-8.6905080">
        <ele>14.4</ele>
        <time>2021-05-16T06:23:18Z</time>
      </trkpt>
      <trkpt lat="41.1865870" lon="-8.6905310">
        <ele>14.4</ele>
        <time>2021-05-16T06:23:19Z</time>
      </trkpt>
      <trkpt lat="41.1865820" lon="-8.6905430">
        <ele>14.4</ele>
        <time>2021-05-16T06:23:20Z</time>
      </trkpt>
      <trkpt lat="41.1865860" lon="-8.6905830">
        <ele>14.3</ele>
        <time>2021-05-16T06:23:21Z</time>
      </trkpt>
      <trkpt lat="41.1865910" lon="-8.6905920">
        <ele>14.3</ele>
        <time>2021-05-16T06:23:22Z</time>
      </trkpt>
      <trkpt lat="41.1865860" lon="-8.6906110">
        <ele>14.3</ele>
        <time>2021-05-16T06:23:23Z</time>
      </trkpt>
      <trkpt lat="41.1865820" lon="-8.6906320">
        <ele>14.3</ele>
        <time>2021-05-16T06:23:24Z</time>
      </trkpt>
      <trkpt lat="41.1865770" lon="-8.6906690">
        <ele>14.2</ele>
        <time>2021-05-16T06:23:25Z</time>
      </trkpt>
      <trkpt lat="41.1865800" lon="-8.6906840">
        <ele>14.2</ele>
        <time>2021-05-16T06:23:26Z</time>
      </trkpt>
      <trkpt lat="41.1865800" lon="-8.6907030">
        <ele>14.2</ele>
        <time>2021-05-16T06:23:27Z</time>
      </trkpt>
      <trkpt lat="41.1865770" lon="-8.6907260">
        <ele>14.2</ele>
        <time>2021-05-16T06:23:28Z</time>
      </trkpt>
      <trkpt lat="41.1865810" lon="-8.6907550">
        <ele>14.1</ele>
        <time>2021-05-16T06:23:29Z</time>
      </trkpt>
      <trkpt lat="41.1865850" lon="-8.6907640">
        <ele>14.1</ele>
        <time>2021-05-16T06:23:30Z</time>
      </trkpt>
      <trkpt lat="41.1865880" lon="-8.6907720">
        <ele>14.1</ele>
        <time>2021-05-16T06:23:31Z</time>
      </trkpt>
      <trkpt lat="41.1865890" lon="-8.6907810">
        <ele>14.1</ele>
        <time>2021-05-16T06:23:32Z</time>
      </trkpt>
      <trkpt lat="41.1865780" lon="-8.6908110">
        <ele>14.1</ele>
        <time>2021-05-16T06:23:33Z</time>
      </trkpt>
      <trkpt lat="41.1865810" lon="-8.6908390">
        <ele>14.0</ele>
        <time>2021-05-16T06:23:34Z</time>
      </trkpt>
      <trkpt lat="41.1865790" lon="-8.6908490">
        <ele>14.0</ele>
        <time>2021-05-16T06:23:35Z</time>
      </trkpt>
      <trkpt lat="41.1865770" lon="-8.6908600">
        <ele>14.0</ele>
        <time>2021-05-16T06:23:36Z</time>
      </trkpt>
      <trkpt lat="41.1865820" lon="-8.6908910">
        <ele>14.0</ele>
        <time>2021-05-16T06:23:37Z</time>
      </trkpt>
      <trkpt lat="41.1865790" lon="-8.6909050">
        <ele>14.0</ele>
        <time>2021-05-16T06:23:38Z</time>
      </trkpt>
      <trkpt lat="41.1865760" lon="-8.6909180">
        <ele>13.9</ele>
        <time>2021-05-16T06:23:39Z</time>
      </trkpt>
      <trkpt lat="41.1865690" lon="-8.6909420">
        <ele>13.9</ele>
        <time>2021-05-16T06:23:40Z</time>
      </trkpt>
      <trkpt lat="41.1865660" lon="-8.6909550">
        <ele>13.9</ele>
        <time>2021-05-16T06:23:41Z</time>
      </trkpt>
      <trkpt lat="41.1865640" lon="-8.6909670">
        <ele>13.9</ele>
        <time>2021-05-16T06:23:42Z</time>
      </trkpt>
      <trkpt lat="41.1865590" lon="-8.6909780">
        <ele>13.9</ele>
        <time>2021-05-16T06:23:43Z</time>
      </trkpt>
      <trkpt lat="41.1865650" lon="-8.6909950">
        <ele>13.9</ele>
        <time>2021-05-16T06:23:44Z</time>
      </trkpt>
      <trkpt lat="41.1865650" lon="-8.6910010">
        <ele>13.9</ele>
        <time>2021-05-16T06:23:45Z</time>
      </trkpt>
      <trkpt lat="41.1865630" lon="-8.6910140">
        <ele>13.9</ele>
        <time>2021-05-16T06:23:46Z</time>
      </trkpt>
      <trkpt lat="41.1865600" lon="-8.6910240">
        <ele>13.9</ele>
        <time>2021-05-16T06:23:47Z</time>
      </trkpt>
      <trkpt lat="41.1865590" lon="-8.6910260">
        <ele>13.9</ele>
        <time>2021-05-16T06:23:48Z</time>
      </trkpt>
      <trkpt lat="41.1865620" lon="-8.6910210">
        <ele>13.9</ele>
        <time>2021-05-16T06:23:49Z</time>
      </trkpt>
      <trkpt lat="41.1865620" lon="-8.6910170">
        <ele>13.9</ele>
        <time>2021-05-16T06:23:50Z</time>
      </trkpt>
      <trkpt lat="41.1865620" lon="-8.6910130">
        <ele>13.9</ele>
        <time>2021-05-16T06:23:51Z</time>
      </trkpt>
      <trkpt lat="41.1865620" lon="-8.6910150">
        <ele>13.9</ele>
        <time>2021-05-16T06:23:52Z</time>
      </trkpt>
      <trkpt lat="41.1865640" lon="-8.6910170">
        <ele>13.9</ele>
        <time>2021-05-16T06:23:53Z</time>
      </trkpt>
      <trkpt lat="41.1865640" lon="-8.6910170">
        <ele>13.9</ele>
        <time>2021-05-16T06:23:54Z</time>
      </trkpt>
      <trkpt lat="41.1865630" lon="-8.6910160">
        <ele>13.9</ele>
        <time>2021-05-16T06:23:55Z</time>
      </trkpt>
      <trkpt lat="41.1865630" lon="-8.6910150">
        <ele>13.9</ele>
        <time>2021-05-16T06:23:56Z</time>
      </trkpt>
      <trkpt lat="41.1865640" lon="-8.6910100">
        <ele>13.8</ele>
        <time>2021-05-16T06:23:57Z</time>
      </trkpt>
      <trkpt lat="41.1865680" lon="-8.6910020">
        <ele>13.8</ele>
        <time>2021-05-16T06:23:58Z</time>
      </trkpt>
      <trkpt lat="41.1865680" lon="-8.6909970">
        <ele>13.8</ele>
        <time>2021-05-16T06:23:59Z</time>
      </trkpt>
      <trkpt lat="41.1865700" lon="-8.6909950">
        <ele>13.8</ele>
        <time>2021-05-16T06:24:00Z</time>
      </trkpt>
      <trkpt lat="41.1865680" lon="-8.6909980">
        <ele>13.8</ele>
        <time>2021-05-16T06:24:01Z</time>
      </trkpt>
      <trkpt lat="41.1865670" lon="-8.6910060">
        <ele>13.8</ele>
        <time>2021-05-16T06:24:02Z</time>
      </trkpt>
      <trkpt lat="41.1865730" lon="-8.6910200">
        <ele>13.8</ele>
        <time>2021-05-16T06:24:03Z</time>
      </trkpt>
      <trkpt lat="41.1865910" lon="-8.6910250">
        <ele>13.8</ele>
        <time>2021-05-16T06:24:04Z</time>
      </trkpt>
      <trkpt lat="41.1865970" lon="-8.6910320">
        <ele>13.8</ele>
        <time>2021-05-16T06:24:05Z</time>
      </trkpt>
      <trkpt lat="41.1866100" lon="-8.6910450">
        <ele>13.8</ele>
        <time>2021-05-16T06:24:06Z</time>
      </trkpt>
      <trkpt lat="41.1866070" lon="-8.6910660">
        <ele>13.7</ele>
        <time>2021-05-16T06:24:07Z</time>
      </trkpt>
      <trkpt lat="41.1866150" lon="-8.6910750">
        <ele>13.7</ele>
        <time>2021-05-16T06:24:08Z</time>
      </trkpt>
      <trkpt lat="41.1866280" lon="-8.6910920">
        <ele>13.7</ele>
        <time>2021-05-16T06:24:09Z</time>
      </trkpt>
      <trkpt lat="41.1866520" lon="-8.6911120">
        <ele>13.6</ele>
        <time>2021-05-16T06:24:10Z</time>
      </trkpt>
      <trkpt lat="41.1866610" lon="-8.6911340">
        <ele>13.6</ele>
        <time>2021-05-16T06:24:11Z</time>
      </trkpt>
      <trkpt lat="41.1866690" lon="-8.6911420">
        <ele>13.6</ele>
        <time>2021-05-16T06:24:12Z</time>
      </trkpt>
      <trkpt lat="41.1866780" lon="-8.6911510">
        <ele>13.6</ele>
        <time>2021-05-16T06:24:13Z</time>
      </trkpt>
      <trkpt lat="41.1866900" lon="-8.6911690">
        <ele>13.5</ele>
        <time>2021-05-16T06:24:14Z</time>
      </trkpt>
      <trkpt lat="41.1866970" lon="-8.6911830">
        <ele>13.5</ele>
        <time>2021-05-16T06:24:15Z</time>
      </trkpt>
      <trkpt lat="41.1867090" lon="-8.6912100">
        <ele>13.5</ele>
        <time>2021-05-16T06:24:16Z</time>
      </trkpt>
      <trkpt lat="41.1867140" lon="-8.6912170">
        <ele>13.4</ele>
        <time>2021-05-16T06:24:17Z</time>
      </trkpt>
      <trkpt lat="41.1867350" lon="-8.6912420">
        <ele>13.4</ele>
        <time>2021-05-16T06:24:18Z</time>
      </trkpt>
      <trkpt lat="41.1867480" lon="-8.6912560">
        <ele>13.4</ele>
        <time>2021-05-16T06:24:19Z</time>
      </trkpt>
      <trkpt lat="41.1867530" lon="-8.6912630">
        <ele>13.4</ele>
        <time>2021-05-16T06:24:20Z</time>
      </trkpt>
      <trkpt lat="41.1867590" lon="-8.6912710">
        <ele>13.3</ele>
        <time>2021-05-16T06:24:21Z</time>
      </trkpt>
      <trkpt lat="41.1867640" lon="-8.6912790">
        <ele>13.3</ele>
        <time>2021-05-16T06:24:22Z</time>
      </trkpt>
      <trkpt lat="41.1867800" lon="-8.6912970">
        <ele>13.3</ele>
        <time>2021-05-16T06:24:23Z</time>
      </trkpt>
      <trkpt lat="41.1867880" lon="-8.6913070">
        <ele>13.3</ele>
        <time>2021-05-16T06:24:24Z</time>
      </trkpt>
      <trkpt lat="41.1867970" lon="-8.6913180">
        <ele>13.3</ele>
        <time>2021-05-16T06:24:25Z</time>
      </trkpt>
      <trkpt lat="41.1868040" lon="-8.6913270">
        <ele>13.3</ele>
        <time>2021-05-16T06:24:26Z</time>
      </trkpt>
      <trkpt lat="41.1868170" lon="-8.6913380">
        <ele>13.2</ele>
        <time>2021-05-16T06:24:27Z</time>
      </trkpt>
      <trkpt lat="41.1868190" lon="-8.6913410">
        <ele>13.2</ele>
        <time>2021-05-16T06:24:28Z</time>
      </trkpt>
      <trkpt lat="41.1868340" lon="-8.6913590">
        <ele>13.2</ele>
        <time>2021-05-16T06:24:29Z</time>
      </trkpt>
      <trkpt lat="41.1868410" lon="-8.6913680">
        <ele>13.2</ele>
        <time>2021-05-16T06:24:30Z</time>
      </trkpt>
      <trkpt lat="41.1868480" lon="-8.6913770">
        <ele>13.2</ele>
        <time>2021-05-16T06:24:31Z</time>
      </trkpt>
      <trkpt lat="41.1868710" lon="-8.6914000">
        <ele>13.2</ele>
        <time>2021-05-16T06:24:32Z</time>
      </trkpt>
      <trkpt lat="41.1868810" lon="-8.6914090">
        <ele>13.2</ele>
        <time>2021-05-16T06:24:33Z</time>
      </trkpt>
      <trkpt lat="41.1868920" lon="-8.6914180">
        <ele>13.2</ele>
        <time>2021-05-16T06:24:34Z</time>
      </trkpt>
      <trkpt lat="41.1869030" lon="-8.6914290">
        <ele>13.2</ele>
        <time>2021-05-16T06:24:35Z</time>
      </trkpt>
      <trkpt lat="41.1869190" lon="-8.6914440">
        <ele>13.1</ele>
        <time>2021-05-16T06:24:36Z</time>
      </trkpt>
      <trkpt lat="41.1869280" lon="-8.6914520">
        <ele>13.1</ele>
        <time>2021-05-16T06:24:37Z</time>
      </trkpt>
      <trkpt lat="41.1869430" lon="-8.6914640">
        <ele>13.1</ele>
        <time>2021-05-16T06:24:38Z</time>
      </trkpt>
      <trkpt lat="41.1869540" lon="-8.6914730">
        <ele>13.1</ele>
        <time>2021-05-16T06:24:39Z</time>
      </trkpt>
      <trkpt lat="41.1869630" lon="-8.6914870">
        <ele>13.1</ele>
        <time>2021-05-16T06:24:40Z</time>
      </trkpt>
      <trkpt lat="41.1869620" lon="-8.6915030">
        <ele>13.1</ele>
        <time>2021-05-16T06:24:41Z</time>
      </trkpt>
      <trkpt lat="41.1869800" lon="-8.6915330">
        <ele>13.1</ele>
        <time>2021-05-16T06:24:42Z</time>
      </trkpt>
      <trkpt lat="41.1869840" lon="-8.6915440">
        <ele>13.1</ele>
        <time>2021-05-16T06:24:43Z</time>
      </trkpt>
      <trkpt lat="41.1869800" lon="-8.6915590">
        <ele>13.1</ele>
        <time>2021-05-16T06:24:44Z</time>
      </trkpt>
      <trkpt lat="41.1869870" lon="-8.6915710">
        <ele>13.1</ele>
        <time>2021-05-16T06:24:45Z</time>
      </trkpt>
      <trkpt lat="41.1870010" lon="-8.6915860">
        <ele>13.1</ele>
        <time>2021-05-16T06:24:46Z</time>
      </trkpt>
      <trkpt lat="41.1870060" lon="-8.6916120">
        <ele>13.1</ele>
        <time>2021-05-16T06:24:47Z</time>
      </trkpt>
      <trkpt lat="41.1870090" lon="-8.6916240">
        <ele>13.1</ele>
        <time>2021-05-16T06:24:48Z</time>
      </trkpt>
      <trkpt lat="41.1870110" lon="-8.6916360">
        <ele>13.1</ele>
        <time>2021-05-16T06:24:49Z</time>
      </trkpt>
      <trkpt lat="41.1870110" lon="-8.6916680">
        <ele>13.1</ele>
        <time>2021-05-16T06:24:50Z</time>
      </trkpt>
      <trkpt lat="41.1870050" lon="-8.6916810">
        <ele>13.1</ele>
        <time>2021-05-16T06:24:51Z</time>
      </trkpt>
      <trkpt lat="41.1870080" lon="-8.6916940">
        <ele>13.1</ele>
        <time>2021-05-16T06:24:52Z</time>
      </trkpt>
      <trkpt lat="41.1870120" lon="-8.6917020">
        <ele>13.1</ele>
        <time>2021-05-16T06:24:53Z</time>
      </trkpt>
      <trkpt lat="41.1870170" lon="-8.6917100">
        <ele>13.1</ele>
        <time>2021-05-16T06:24:54Z</time>
      </trkpt>
      <trkpt lat="41.1870210" lon="-8.6917180">
        <ele>13.1</ele>
        <time>2021-05-16T06:24:55Z</time>
      </trkpt>
      <trkpt lat="41.1870260" lon="-8.6917260">
        <ele>13.1</ele>
        <time>2021-05-16T06:24:56Z</time>
      </trkpt>
      <trkpt lat="41.1870350" lon="-8.6917490">
        <ele>13.1</ele>
        <time>2021-05-16T06:24:57Z</time>
      </trkpt>
      <trkpt lat="41.1870330" lon="-8.6917660">
        <ele>13.1</ele>
        <time>2021-05-16T06:24:58Z</time>
      </trkpt>
      <trkpt lat="41.1870400" lon="-8.6917770">
        <ele>13.1</ele>
        <time>2021-05-16T06:24:59Z</time>
      </trkpt>
      <trkpt lat="41.1870450" lon="-8.6917950">
        <ele>11.6</ele>
        <time>2021-05-16T06:25:00Z</time>
      </trkpt>
      <trkpt lat="41.1870480" lon="-8.6918100">
        <ele>12.2</ele>
        <time>2021-05-16T06:25:01Z</time>
      </trkpt>
      <trkpt lat="41.1870650" lon="-8.6918430">
        <ele>12.3</ele>
        <time>2021-05-16T06:25:02Z</time>
      </trkpt>
      <trkpt lat="41.1870680" lon="-8.6918520">
        <ele>12.3</ele>
        <time>2021-05-16T06:25:03Z</time>
      </trkpt>
      <trkpt lat="41.1870720" lon="-8.6918720">
        <ele>12.3</ele>
        <time>2021-05-16T06:25:04Z</time>
      </trkpt>
      <trkpt lat="41.1870750" lon="-8.6918920">
        <ele>12.3</ele>
        <time>2021-05-16T06:25:05Z</time>
      </trkpt>
      <trkpt lat="41.1870770" lon="-8.6919110">
        <ele>12.4</ele>
        <time>2021-05-16T06:25:06Z</time>
      </trkpt>
      <trkpt lat="41.1870800" lon="-8.6919300">
        <ele>12.4</ele>
        <time>2021-05-16T06:25:07Z</time>
      </trkpt>
      <trkpt lat="41.1870890" lon="-8.6919460">
        <ele>12.4</ele>
        <time>2021-05-16T06:25:08Z</time>
      </trkpt>
      <trkpt lat="41.1870930" lon="-8.6919640">
        <ele>12.6</ele>
        <time>2021-05-16T06:25:09Z</time>
      </trkpt>
      <trkpt lat="41.1870990" lon="-8.6919740">
        <ele>12.6</ele>
        <time>2021-05-16T06:25:10Z</time>
      </trkpt>
      <trkpt lat="41.1871090" lon="-8.6919980">
        <ele>12.6</ele>
        <time>2021-05-16T06:25:12Z</time>
      </trkpt>
      <trkpt lat="41.1871180" lon="-8.6920190">
        <ele>12.7</ele>
        <time>2021-05-16T06:25:13Z</time>
      </trkpt>
      <trkpt lat="41.1871290" lon="-8.6920320">
        <ele>12.7</ele>
        <time>2021-05-16T06:25:14Z</time>
      </trkpt>
      <trkpt lat="41.1871410" lon="-8.6920470">
        <ele>12.7</ele>
        <time>2021-05-16T06:25:15Z</time>
      </trkpt>
      <trkpt lat="41.1871500" lon="-8.6920640">
        <ele>12.7</ele>
        <time>2021-05-16T06:25:16Z</time>
      </trkpt>
      <trkpt lat="41.1871610" lon="-8.6920740">
        <ele>12.7</ele>
        <time>2021-05-16T06:25:17Z</time>
      </trkpt>
      <trkpt lat="41.1871710" lon="-8.6920880">
        <ele>12.7</ele>
        <time>2021-05-16T06:25:18Z</time>
      </trkpt>
      <trkpt lat="41.1871830" lon="-8.6921010">
        <ele>12.7</ele>
        <time>2021-05-16T06:25:19Z</time>
      </trkpt>
      <trkpt lat="41.1871930" lon="-8.6921230">
        <ele>12.8</ele>
        <time>2021-05-16T06:25:20Z</time>
      </trkpt>
      <trkpt lat="41.1872030" lon="-8.6921350">
        <ele>12.8</ele>
        <time>2021-05-16T06:25:21Z</time>
      </trkpt>
      <trkpt lat="41.1872140" lon="-8.6921500">
        <ele>12.8</ele>
        <time>2021-05-16T06:25:22Z</time>
      </trkpt>
      <trkpt lat="41.1872300" lon="-8.6921540">
        <ele>12.8</ele>
        <time>2021-05-16T06:25:23Z</time>
      </trkpt>
      <trkpt lat="41.1872380" lon="-8.6921740">
        <ele>12.8</ele>
        <time>2021-05-16T06:25:24Z</time>
      </trkpt>
      <trkpt lat="41.1872500" lon="-8.6921860">
        <ele>12.9</ele>
        <time>2021-05-16T06:25:25Z</time>
      </trkpt>
      <trkpt lat="41.1872590" lon="-8.6922050">
        <ele>12.9</ele>
        <time>2021-05-16T06:25:26Z</time>
      </trkpt>
      <trkpt lat="41.1872660" lon="-8.6922270">
        <ele>12.9</ele>
        <time>2021-05-16T06:25:27Z</time>
      </trkpt>
      <trkpt lat="41.1872630" lon="-8.6922500">
        <ele>12.9</ele>
        <time>2021-05-16T06:25:28Z</time>
      </trkpt>
      <trkpt lat="41.1872680" lon="-8.6922680">
        <ele>13.0</ele>
        <time>2021-05-16T06:25:29Z</time>
      </trkpt>
      <trkpt lat="41.1872710" lon="-8.6922870">
        <ele>13.0</ele>
        <time>2021-05-16T06:25:30Z</time>
      </trkpt>
      <trkpt lat="41.1872750" lon="-8.6923080">
        <ele>13.0</ele>
        <time>2021-05-16T06:25:31Z</time>
      </trkpt>
      <trkpt lat="41.1872760" lon="-8.6923290">
        <ele>13.0</ele>
        <time>2021-05-16T06:25:32Z</time>
      </trkpt>
      <trkpt lat="41.1872820" lon="-8.6923470">
        <ele>13.1</ele>
        <time>2021-05-16T06:25:33Z</time>
      </trkpt>
      <trkpt lat="41.1872830" lon="-8.6923650">
        <ele>13.1</ele>
        <time>2021-05-16T06:25:34Z</time>
      </trkpt>
      <trkpt lat="41.1872940" lon="-8.6923920">
        <ele>13.1</ele>
        <time>2021-05-16T06:25:35Z</time>
      </trkpt>
      <trkpt lat="41.1872980" lon="-8.6924020">
        <ele>13.1</ele>
        <time>2021-05-16T06:25:36Z</time>
      </trkpt>
      <trkpt lat="41.1873010" lon="-8.6924120">
        <ele>13.1</ele>
        <time>2021-05-16T06:25:37Z</time>
      </trkpt>
      <trkpt lat="41.1873070" lon="-8.6924290">
        <ele>13.2</ele>
        <time>2021-05-16T06:25:38Z</time>
      </trkpt>
      <trkpt lat="41.1873100" lon="-8.6924460">
        <ele>13.2</ele>
        <time>2021-05-16T06:25:39Z</time>
      </trkpt>
      <trkpt lat="41.1873210" lon="-8.6924700">
        <ele>13.2</ele>
        <time>2021-05-16T06:25:40Z</time>
      </trkpt>
      <trkpt lat="41.1873270" lon="-8.6924800">
        <ele>13.2</ele>
        <time>2021-05-16T06:25:41Z</time>
      </trkpt>
      <trkpt lat="41.1873330" lon="-8.6924890">
        <ele>13.3</ele>
        <time>2021-05-16T06:25:42Z</time>
      </trkpt>
      <trkpt lat="41.1873470" lon="-8.6925140">
        <ele>13.3</ele>
        <time>2021-05-16T06:25:43Z</time>
      </trkpt>
      <trkpt lat="41.1873520" lon="-8.6925240">
        <ele>13.3</ele>
        <time>2021-05-16T06:25:44Z</time>
      </trkpt>
      <trkpt lat="41.1873570" lon="-8.6925350">
        <ele>13.3</ele>
        <time>2021-05-16T06:25:45Z</time>
      </trkpt>
      <trkpt lat="41.1873650" lon="-8.6925520">
        <ele>13.4</ele>
        <time>2021-05-16T06:25:46Z</time>
      </trkpt>
      <trkpt lat="41.1873670" lon="-8.6925660">
        <ele>13.4</ele>
        <time>2021-05-16T06:25:47Z</time>
      </trkpt>
      <trkpt lat="41.1873710" lon="-8.6925630">
        <ele>13.4</ele>
        <time>2021-05-16T06:25:48Z</time>
      </trkpt>
      <trkpt lat="41.1873720" lon="-8.6925710">
        <ele>13.4</ele>
        <time>2021-05-16T06:25:49Z</time>
      </trkpt>
      <trkpt lat="41.1873750" lon="-8.6925760">
        <ele>13.4</ele>
        <time>2021-05-16T06:25:50Z</time>
      </trkpt>
      <trkpt lat="41.1873910" lon="-8.6925910">
        <ele>13.5</ele>
        <time>2021-05-16T06:25:51Z</time>
      </trkpt>
      <trkpt lat="41.1873960" lon="-8.6926020">
        <ele>13.5</ele>
        <time>2021-05-16T06:25:52Z</time>
      </trkpt>
      <trkpt lat="41.1874010" lon="-8.6926170">
        <ele>13.5</ele>
        <time>2021-05-16T06:25:53Z</time>
      </trkpt>
      <trkpt lat="41.1874080" lon="-8.6926260">
        <ele>13.5</ele>
        <time>2021-05-16T06:25:54Z</time>
      </trkpt>
      <trkpt lat="41.1874180" lon="-8.6926370">
        <ele>13.5</ele>
        <time>2021-05-16T06:25:55Z</time>
      </trkpt>
      <trkpt lat="41.1874240" lon="-8.6926540">
        <ele>13.6</ele>
        <time>2021-05-16T06:25:56Z</time>
      </trkpt>
      <trkpt lat="41.1874260" lon="-8.6926590">
        <ele>13.6</ele>
        <time>2021-05-16T06:25:57Z</time>
      </trkpt>
      <trkpt lat="41.1874380" lon="-8.6926740">
        <ele>13.6</ele>
        <time>2021-05-16T06:25:58Z</time>
      </trkpt>
      <trkpt lat="41.1874450" lon="-8.6926710">
        <ele>13.6</ele>
        <time>2021-05-16T06:25:59Z</time>
      </trkpt>
      <trkpt lat="41.1874540" lon="-8.6926870">
        <ele>13.6</ele>
        <time>2021-05-16T06:26:00Z</time>
      </trkpt>
      <trkpt lat="41.1874600" lon="-8.6926970">
        <ele>13.6</ele>
        <time>2021-05-16T06:26:01Z</time>
      </trkpt>
      <trkpt lat="41.1874670" lon="-8.6927110">
        <ele>13.6</ele>
        <time>2021-05-16T06:26:02Z</time>
      </trkpt>
      <trkpt lat="41.1874710" lon="-8.6927300">
        <ele>13.7</ele>
        <time>2021-05-16T06:26:03Z</time>
      </trkpt>
      <trkpt lat="41.1874820" lon="-8.6927450">
        <ele>13.7</ele>
        <time>2021-05-16T06:26:04Z</time>
      </trkpt>
      <trkpt lat="41.1874850" lon="-8.6927580">
        <ele>13.7</ele>
        <time>2021-05-16T06:26:05Z</time>
      </trkpt>
      <trkpt lat="41.1874880" lon="-8.6927670">
        <ele>13.7</ele>
        <time>2021-05-16T06:26:06Z</time>
      </trkpt>
      <trkpt lat="41.1875130" lon="-8.6927940">
        <ele>13.7</ele>
        <time>2021-05-16T06:26:07Z</time>
      </trkpt>
      <trkpt lat="41.1875210" lon="-8.6928020">
        <ele>13.7</ele>
        <time>2021-05-16T06:26:08Z</time>
      </trkpt>
      <trkpt lat="41.1875300" lon="-8.6928110">
        <ele>13.7</ele>
        <time>2021-05-16T06:26:09Z</time>
      </trkpt>
      <trkpt lat="41.1875480" lon="-8.6928270">
        <ele>13.8</ele>
        <time>2021-05-16T06:26:10Z</time>
      </trkpt>
      <trkpt lat="41.1875490" lon="-8.6928370">
        <ele>13.8</ele>
        <time>2021-05-16T06:26:11Z</time>
      </trkpt>
      <trkpt lat="41.1875560" lon="-8.6928440">
        <ele>13.8</ele>
        <time>2021-05-16T06:26:12Z</time>
      </trkpt>
      <trkpt lat="41.1875680" lon="-8.6928600">
        <ele>13.8</ele>
        <time>2021-05-16T06:26:13Z</time>
      </trkpt>
      <trkpt lat="41.1875740" lon="-8.6928720">
        <ele>13.8</ele>
        <time>2021-05-16T06:26:14Z</time>
      </trkpt>
      <trkpt lat="41.1875820" lon="-8.6928890">
        <ele>13.8</ele>
        <time>2021-05-16T06:26:15Z</time>
      </trkpt>
      <trkpt lat="41.1875950" lon="-8.6929110">
        <ele>13.8</ele>
        <time>2021-05-16T06:26:16Z</time>
      </trkpt>
      <trkpt lat="41.1876090" lon="-8.6929310">
        <ele>13.9</ele>
        <time>2021-05-16T06:26:17Z</time>
      </trkpt>
      <trkpt lat="41.1876150" lon="-8.6929400">
        <ele>13.9</ele>
        <time>2021-05-16T06:26:18Z</time>
      </trkpt>
      <trkpt lat="41.1876220" lon="-8.6929490">
        <ele>13.9</ele>
        <time>2021-05-16T06:26:19Z</time>
      </trkpt>
      <trkpt lat="41.1876350" lon="-8.6929770">
        <ele>13.9</ele>
        <time>2021-05-16T06:26:20Z</time>
      </trkpt>
      <trkpt lat="41.1876410" lon="-8.6929880">
        <ele>13.9</ele>
        <time>2021-05-16T06:26:21Z</time>
      </trkpt>
      <trkpt lat="41.1876480" lon="-8.6930000">
        <ele>13.9</ele>
        <time>2021-05-16T06:26:22Z</time>
      </trkpt>
      <trkpt lat="41.1876560" lon="-8.6930150">
        <ele>13.9</ele>
        <time>2021-05-16T06:26:23Z</time>
      </trkpt>
      <trkpt lat="41.1876640" lon="-8.6930310">
        <ele>14.0</ele>
        <time>2021-05-16T06:26:24Z</time>
      </trkpt>
      <trkpt lat="41.1876680" lon="-8.6930420">
        <ele>14.0</ele>
        <time>2021-05-16T06:26:25Z</time>
      </trkpt>
      <trkpt lat="41.1876740" lon="-8.6930630">
        <ele>14.0</ele>
        <time>2021-05-16T06:26:26Z</time>
      </trkpt>
      <trkpt lat="41.1876800" lon="-8.6930690">
        <ele>14.0</ele>
        <time>2021-05-16T06:26:27Z</time>
      </trkpt>
      <trkpt lat="41.1876910" lon="-8.6930850">
        <ele>14.0</ele>
        <time>2021-05-16T06:26:28Z</time>
      </trkpt>
      <trkpt lat="41.1876970" lon="-8.6931020">
        <ele>14.0</ele>
        <time>2021-05-16T06:26:29Z</time>
      </trkpt>
      <trkpt lat="41.1877080" lon="-8.6931300">
        <ele>14.1</ele>
        <time>2021-05-16T06:26:30Z</time>
      </trkpt>
      <trkpt lat="41.1877110" lon="-8.6931400">
        <ele>14.1</ele>
        <time>2021-05-16T06:26:31Z</time>
      </trkpt>
      <trkpt lat="41.1877150" lon="-8.6931490">
        <ele>14.1</ele>
        <time>2021-05-16T06:26:32Z</time>
      </trkpt>
      <trkpt lat="41.1877250" lon="-8.6931620">
        <ele>14.1</ele>
        <time>2021-05-16T06:26:33Z</time>
      </trkpt>
      <trkpt lat="41.1877380" lon="-8.6931790">
        <ele>14.2</ele>
        <time>2021-05-16T06:26:34Z</time>
      </trkpt>
      <trkpt lat="41.1877450" lon="-8.6931890">
        <ele>14.2</ele>
        <time>2021-05-16T06:26:35Z</time>
      </trkpt>
      <trkpt lat="41.1877530" lon="-8.6932050">
        <ele>14.2</ele>
        <time>2021-05-16T06:26:36Z</time>
      </trkpt>
      <trkpt lat="41.1877590" lon="-8.6932160">
        <ele>14.2</ele>
        <time>2021-05-16T06:26:37Z</time>
      </trkpt>
      <trkpt lat="41.1877740" lon="-8.6932380">
        <ele>14.3</ele>
        <time>2021-05-16T06:26:38Z</time>
      </trkpt>
      <trkpt lat="41.1877780" lon="-8.6932490">
        <ele>14.3</ele>
        <time>2021-05-16T06:26:39Z</time>
      </trkpt>
      <trkpt lat="41.1877810" lon="-8.6932590">
        <ele>14.3</ele>
        <time>2021-05-16T06:26:40Z</time>
      </trkpt>
      <trkpt lat="41.1878000" lon="-8.6932720">
        <ele>14.4</ele>
        <time>2021-05-16T06:26:41Z</time>
      </trkpt>
      <trkpt lat="41.1878050" lon="-8.6932810">
        <ele>14.4</ele>
        <time>2021-05-16T06:26:43Z</time>
      </trkpt>
      <trkpt lat="41.1878110" lon="-8.6932900">
        <ele>14.4</ele>
        <time>2021-05-16T06:26:44Z</time>
      </trkpt>
      <trkpt lat="41.1878140" lon="-8.6933040">
        <ele>14.4</ele>
        <time>2021-05-16T06:26:45Z</time>
      </trkpt>
      <trkpt lat="41.1878290" lon="-8.6933180">
        <ele>14.5</ele>
        <time>2021-05-16T06:26:46Z</time>
      </trkpt>
      <trkpt lat="41.1878450" lon="-8.6933380">
        <ele>14.5</ele>
        <time>2021-05-16T06:26:47Z</time>
      </trkpt>
      <trkpt lat="41.1878520" lon="-8.6933480">
        <ele>14.5</ele>
        <time>2021-05-16T06:26:48Z</time>
      </trkpt>
      <trkpt lat="41.1878580" lon="-8.6933570">
        <ele>14.5</ele>
        <time>2021-05-16T06:26:49Z</time>
      </trkpt>
      <trkpt lat="41.1878750" lon="-8.6933760">
        <ele>14.6</ele>
        <time>2021-05-16T06:26:50Z</time>
      </trkpt>
      <trkpt lat="41.1878840" lon="-8.6933870">
        <ele>14.6</ele>
        <time>2021-05-16T06:26:51Z</time>
      </trkpt>
      <trkpt lat="41.1878920" lon="-8.6933970">
        <ele>14.7</ele>
        <time>2021-05-16T06:26:52Z</time>
      </trkpt>
      <trkpt lat="41.1879070" lon="-8.6934140">
        <ele>14.7</ele>
        <time>2021-05-16T06:26:53Z</time>
      </trkpt>
      <trkpt lat="41.1879130" lon="-8.6934260">
        <ele>14.7</ele>
        <time>2021-05-16T06:26:54Z</time>
      </trkpt>
      <trkpt lat="41.1879320" lon="-8.6934450">
        <ele>14.8</ele>
        <time>2021-05-16T06:26:55Z</time>
      </trkpt>
      <trkpt lat="41.1879380" lon="-8.6934510">
        <ele>14.8</ele>
        <time>2021-05-16T06:26:56Z</time>
      </trkpt>
      <trkpt lat="41.1879440" lon="-8.6934580">
        <ele>14.8</ele>
        <time>2021-05-16T06:26:57Z</time>
      </trkpt>
      <trkpt lat="41.1879520" lon="-8.6934700">
        <ele>14.8</ele>
        <time>2021-05-16T06:26:58Z</time>
      </trkpt>
      <trkpt lat="41.1879650" lon="-8.6934870">
        <ele>14.9</ele>
        <time>2021-05-16T06:26:59Z</time>
      </trkpt>
      <trkpt lat="41.1879760" lon="-8.6935010">
        <ele>14.9</ele>
        <time>2021-05-16T06:27:00Z</time>
      </trkpt>
      <trkpt lat="41.1879890" lon="-8.6935160">
        <ele>14.9</ele>
        <time>2021-05-16T06:27:01Z</time>
      </trkpt>
      <trkpt lat="41.1880010" lon="-8.6935290">
        <ele>15.0</ele>
        <time>2021-05-16T06:27:02Z</time>
      </trkpt>
      <trkpt lat="41.1880160" lon="-8.6935390">
        <ele>15.0</ele>
        <time>2021-05-16T06:27:03Z</time>
      </trkpt>
      <trkpt lat="41.1880210" lon="-8.6935530">
        <ele>15.0</ele>
        <time>2021-05-16T06:27:04Z</time>
      </trkpt>
      <trkpt lat="41.1880310" lon="-8.6935690">
        <ele>15.1</ele>
        <time>2021-05-16T06:27:05Z</time>
      </trkpt>
      <trkpt lat="41.1880390" lon="-8.6935750">
        <ele>15.1</ele>
        <time>2021-05-16T06:27:06Z</time>
      </trkpt>
      <trkpt lat="41.1880520" lon="-8.6935890">
        <ele>15.1</ele>
        <time>2021-05-16T06:27:07Z</time>
      </trkpt>
      <trkpt lat="41.1880570" lon="-8.6935990">
        <ele>15.2</ele>
        <time>2021-05-16T06:27:08Z</time>
      </trkpt>
      <trkpt lat="41.1880740" lon="-8.6936170">
        <ele>15.2</ele>
        <time>2021-05-16T06:27:09Z</time>
      </trkpt>
      <trkpt lat="41.1880800" lon="-8.6936250">
        <ele>15.2</ele>
        <time>2021-05-16T06:27:10Z</time>
      </trkpt>
      <trkpt lat="41.1880970" lon="-8.6936450">
        <ele>15.3</ele>
        <time>2021-05-16T06:27:11Z</time>
      </trkpt>
      <trkpt lat="41.1881030" lon="-8.6936520">
        <ele>15.3</ele>
        <time>2021-05-16T06:27:12Z</time>
      </trkpt>
      <trkpt lat="41.1881090" lon="-8.6936590">
        <ele>15.3</ele>
        <time>2021-05-16T06:27:13Z</time>
      </trkpt>
      <trkpt lat="41.1881210" lon="-8.6936720">
        <ele>15.4</ele>
        <time>2021-05-16T06:27:14Z</time>
      </trkpt>
      <trkpt lat="41.1881270" lon="-8.6936880">
        <ele>15.4</ele>
        <time>2021-05-16T06:27:15Z</time>
      </trkpt>
      <trkpt lat="41.1881420" lon="-8.6937080">
        <ele>15.5</ele>
        <time>2021-05-16T06:27:16Z</time>
      </trkpt>
      <trkpt lat="41.1881440" lon="-8.6937170">
        <ele>15.5</ele>
        <time>2021-05-16T06:27:17Z</time>
      </trkpt>
      <trkpt lat="41.1881580" lon="-8.6937260">
        <ele>15.6</ele>
        <time>2021-05-16T06:27:18Z</time>
      </trkpt>
      <trkpt lat="41.1881650" lon="-8.6937410">
        <ele>15.6</ele>
        <time>2021-05-16T06:27:19Z</time>
      </trkpt>
      <trkpt lat="41.1881760" lon="-8.6937540">
        <ele>15.7</ele>
        <time>2021-05-16T06:27:20Z</time>
      </trkpt>
      <trkpt lat="41.1881870" lon="-8.6937660">
        <ele>15.7</ele>
        <time>2021-05-16T06:27:21Z</time>
      </trkpt>
      <trkpt lat="41.1882020" lon="-8.6937830">
        <ele>15.8</ele>
        <time>2021-05-16T06:27:22Z</time>
      </trkpt>
      <trkpt lat="41.1882100" lon="-8.6937900">
        <ele>15.8</ele>
        <time>2021-05-16T06:27:23Z</time>
      </trkpt>
      <trkpt lat="41.1882190" lon="-8.6937960">
        <ele>15.9</ele>
        <time>2021-05-16T06:27:24Z</time>
      </trkpt>
      <trkpt lat="41.1882300" lon="-8.6938070">
        <ele>16.0</ele>
        <time>2021-05-16T06:27:25Z</time>
      </trkpt>
      <trkpt lat="41.1882430" lon="-8.6938180">
        <ele>16.0</ele>
        <time>2021-05-16T06:27:26Z</time>
      </trkpt>
      <trkpt lat="41.1882530" lon="-8.6938320">
        <ele>16.1</ele>
        <time>2021-05-16T06:27:27Z</time>
      </trkpt>
      <trkpt lat="41.1882570" lon="-8.6938390">
        <ele>16.1</ele>
        <time>2021-05-16T06:27:28Z</time>
      </trkpt>
      <trkpt lat="41.1882660" lon="-8.6938520">
        <ele>16.2</ele>
        <time>2021-05-16T06:27:29Z</time>
      </trkpt>
      <trkpt lat="41.1882810" lon="-8.6938660">
        <ele>16.3</ele>
        <time>2021-05-16T06:27:30Z</time>
      </trkpt>
      <trkpt lat="41.1882900" lon="-8.6938730">
        <ele>16.4</ele>
        <time>2021-05-16T06:27:31Z</time>
      </trkpt>
      <trkpt lat="41.1882980" lon="-8.6938810">
        <ele>16.4</ele>
        <time>2021-05-16T06:27:32Z</time>
      </trkpt>
      <trkpt lat="41.1883080" lon="-8.6938900">
        <ele>16.5</ele>
        <time>2021-05-16T06:27:33Z</time>
      </trkpt>
      <trkpt lat="41.1883210" lon="-8.6939050">
        <ele>16.6</ele>
        <time>2021-05-16T06:27:34Z</time>
      </trkpt>
      <trkpt lat="41.1883430" lon="-8.6939200">
        <ele>16.7</ele>
        <time>2021-05-16T06:27:35Z</time>
      </trkpt>
      <trkpt lat="41.1883480" lon="-8.6939250">
        <ele>16.8</ele>
        <time>2021-05-16T06:27:36Z</time>
      </trkpt>
      <trkpt lat="41.1883540" lon="-8.6939290">
        <ele>16.8</ele>
        <time>2021-05-16T06:27:37Z</time>
      </trkpt>
      <trkpt lat="41.1883670" lon="-8.6939450">
        <ele>16.9</ele>
        <time>2021-05-16T06:27:38Z</time>
      </trkpt>
      <trkpt lat="41.1883730" lon="-8.6939610">
        <ele>17.0</ele>
        <time>2021-05-16T06:27:39Z</time>
      </trkpt>
      <trkpt lat="41.1883800" lon="-8.6939860">
        <ele>17.1</ele>
        <time>2021-05-16T06:27:40Z</time>
      </trkpt>
      <trkpt lat="41.1883890" lon="-8.6939910">
        <ele>17.1</ele>
        <time>2021-05-16T06:27:41Z</time>
      </trkpt>
      <trkpt lat="41.1884030" lon="-8.6940170">
        <ele>17.3</ele>
        <time>2021-05-16T06:27:42Z</time>
      </trkpt>
      <trkpt lat="41.1884080" lon="-8.6940250">
        <ele>17.3</ele>
        <time>2021-05-16T06:27:43Z</time>
      </trkpt>
      <trkpt lat="41.1884140" lon="-8.6940340">
        <ele>17.4</ele>
        <time>2021-05-16T06:27:44Z</time>
      </trkpt>
      <trkpt lat="41.1884220" lon="-8.6940470">
        <ele>17.4</ele>
        <time>2021-05-16T06:27:45Z</time>
      </trkpt>
      <trkpt lat="41.1884370" lon="-8.6940630">
        <ele>17.5</ele>
        <time>2021-05-16T06:27:46Z</time>
      </trkpt>
      <trkpt lat="41.1884450" lon="-8.6940750">
        <ele>17.6</ele>
        <time>2021-05-16T06:27:47Z</time>
      </trkpt>
      <trkpt lat="41.1884560" lon="-8.6940930">
        <ele>17.7</ele>
        <time>2021-05-16T06:27:48Z</time>
      </trkpt>
      <trkpt lat="41.1884640" lon="-8.6940980">
        <ele>17.7</ele>
        <time>2021-05-16T06:27:49Z</time>
      </trkpt>
      <trkpt lat="41.1884720" lon="-8.6941100">
        <ele>17.7</ele>
        <time>2021-05-16T06:27:50Z</time>
      </trkpt>
      <trkpt lat="41.1884800" lon="-8.6941180">
        <ele>17.8</ele>
        <time>2021-05-16T06:27:51Z</time>
      </trkpt>
      <trkpt lat="41.1884900" lon="-8.6941310">
        <ele>17.8</ele>
        <time>2021-05-16T06:27:52Z</time>
      </trkpt>
      <trkpt lat="41.1885020" lon="-8.6941420">
        <ele>17.9</ele>
        <time>2021-05-16T06:27:53Z</time>
      </trkpt>
      <trkpt lat="41.1885170" lon="-8.6941600">
        <ele>18.0</ele>
        <time>2021-05-16T06:27:54Z</time>
      </trkpt>
      <trkpt lat="41.1885230" lon="-8.6941700">
        <ele>18.0</ele>
        <time>2021-05-16T06:27:55Z</time>
      </trkpt>
      <trkpt lat="41.1885440" lon="-8.6941880">
        <ele>18.1</ele>
        <time>2021-05-16T06:27:56Z</time>
      </trkpt>
      <trkpt lat="41.1885510" lon="-8.6941960">
        <ele>18.1</ele>
        <time>2021-05-16T06:27:57Z</time>
      </trkpt>
      <trkpt lat="41.1885580" lon="-8.6942030">
        <ele>18.1</ele>
        <time>2021-05-16T06:27:58Z</time>
      </trkpt>
      <trkpt lat="41.1885660" lon="-8.6942070">
        <ele>18.1</ele>
        <time>2021-05-16T06:27:59Z</time>
      </trkpt>
      <trkpt lat="41.1885860" lon="-8.6942250">
        <ele>18.2</ele>
        <time>2021-05-16T06:28:00Z</time>
      </trkpt>
      <trkpt lat="41.1885950" lon="-8.6942360">
        <ele>18.2</ele>
        <time>2021-05-16T06:28:01Z</time>
      </trkpt>
      <trkpt lat="41.1886000" lon="-8.6942450">
        <ele>18.2</ele>
        <time>2021-05-16T06:28:02Z</time>
      </trkpt>
      <trkpt lat="41.1886060" lon="-8.6942540">
        <ele>18.2</ele>
        <time>2021-05-16T06:28:03Z</time>
      </trkpt>
      <trkpt lat="41.1886110" lon="-8.6942630">
        <ele>18.2</ele>
        <time>2021-05-16T06:28:04Z</time>
      </trkpt>
      <trkpt lat="41.1886170" lon="-8.6942750">
        <ele>18.2</ele>
        <time>2021-05-16T06:28:05Z</time>
      </trkpt>
      <trkpt lat="41.1886230" lon="-8.6942870">
        <ele>18.2</ele>
        <time>2021-05-16T06:28:06Z</time>
      </trkpt>
      <trkpt lat="41.1886330" lon="-8.6942980">
        <ele>18.2</ele>
        <time>2021-05-16T06:28:07Z</time>
      </trkpt>
      <trkpt lat="41.1886430" lon="-8.6943090">
        <ele>18.3</ele>
        <time>2021-05-16T06:28:08Z</time>
      </trkpt>
      <trkpt lat="41.1886570" lon="-8.6943270">
        <ele>18.3</ele>
        <time>2021-05-16T06:28:09Z</time>
      </trkpt>
      <trkpt lat="41.1886680" lon="-8.6943450">
        <ele>18.3</ele>
        <time>2021-05-16T06:28:10Z</time>
      </trkpt>
      <trkpt lat="41.1886740" lon="-8.6943550">
        <ele>18.3</ele>
        <time>2021-05-16T06:28:11Z</time>
      </trkpt>
      <trkpt lat="41.1886790" lon="-8.6943660">
        <ele>18.3</ele>
        <time>2021-05-16T06:28:12Z</time>
      </trkpt>
      <trkpt lat="41.1886890" lon="-8.6943820">
        <ele>18.3</ele>
        <time>2021-05-16T06:28:13Z</time>
      </trkpt>
      <trkpt lat="41.1886960" lon="-8.6943940">
        <ele>18.3</ele>
        <time>2021-05-16T06:28:14Z</time>
      </trkpt>
      <trkpt lat="41.1887030" lon="-8.6944060">
        <ele>18.3</ele>
        <time>2021-05-16T06:28:15Z</time>
      </trkpt>
      <trkpt lat="41.1887130" lon="-8.6944200">
        <ele>18.3</ele>
        <time>2021-05-16T06:28:16Z</time>
      </trkpt>
      <trkpt lat="41.1887250" lon="-8.6944330">
        <ele>18.2</ele>
        <time>2021-05-16T06:28:17Z</time>
      </trkpt>
      <trkpt lat="41.1887420" lon="-8.6944510">
        <ele>18.2</ele>
        <time>2021-05-16T06:28:18Z</time>
      </trkpt>
      <trkpt lat="41.1887480" lon="-8.6944600">
        <ele>18.2</ele>
        <time>2021-05-16T06:28:19Z</time>
      </trkpt>
      <trkpt lat="41.1887540" lon="-8.6944680">
        <ele>18.2</ele>
        <time>2021-05-16T06:28:20Z</time>
      </trkpt>
      <trkpt lat="41.1887630" lon="-8.6944750">
        <ele>18.2</ele>
        <time>2021-05-16T06:28:21Z</time>
      </trkpt>
      <trkpt lat="41.1887690" lon="-8.6944880">
        <ele>18.2</ele>
        <time>2021-05-16T06:28:22Z</time>
      </trkpt>
      <trkpt lat="41.1887790" lon="-8.6944990">
        <ele>18.2</ele>
        <time>2021-05-16T06:28:23Z</time>
      </trkpt>
      <trkpt lat="41.1887990" lon="-8.6945230">
        <ele>18.1</ele>
        <time>2021-05-16T06:28:24Z</time>
      </trkpt>
      <trkpt lat="41.1888070" lon="-8.6945310">
        <ele>18.1</ele>
        <time>2021-05-16T06:28:25Z</time>
      </trkpt>
      <trkpt lat="41.1888160" lon="-8.6945410">
        <ele>18.1</ele>
        <time>2021-05-16T06:28:26Z</time>
      </trkpt>
      <trkpt lat="41.1888310" lon="-8.6945530">
        <ele>18.0</ele>
        <time>2021-05-16T06:28:27Z</time>
      </trkpt>
      <trkpt lat="41.1888400" lon="-8.6945570">
        <ele>18.0</ele>
        <time>2021-05-16T06:28:28Z</time>
      </trkpt>
      <trkpt lat="41.1888540" lon="-8.6945740">
        <ele>17.9</ele>
        <time>2021-05-16T06:28:29Z</time>
      </trkpt>
      <trkpt lat="41.1888630" lon="-8.6945840">
        <ele>17.9</ele>
        <time>2021-05-16T06:28:30Z</time>
      </trkpt>
      <trkpt lat="41.1888790" lon="-8.6946010">
        <ele>17.8</ele>
        <time>2021-05-16T06:28:31Z</time>
      </trkpt>
      <trkpt lat="41.1888900" lon="-8.6946010">
        <ele>17.8</ele>
        <time>2021-05-16T06:28:32Z</time>
      </trkpt>
      <trkpt lat="41.1889070" lon="-8.6946190">
        <ele>17.7</ele>
        <time>2021-05-16T06:28:33Z</time>
      </trkpt>
      <trkpt lat="41.1889100" lon="-8.6946230">
        <ele>17.7</ele>
        <time>2021-05-16T06:28:34Z</time>
      </trkpt>
      <trkpt lat="41.1889190" lon="-8.6946360">
        <ele>17.6</ele>
        <time>2021-05-16T06:28:35Z</time>
      </trkpt>
      <trkpt lat="41.1889280" lon="-8.6946480">
        <ele>17.6</ele>
        <time>2021-05-16T06:28:36Z</time>
      </trkpt>
      <trkpt lat="41.1889380" lon="-8.6946730">
        <ele>17.5</ele>
        <time>2021-05-16T06:28:37Z</time>
      </trkpt>
      <trkpt lat="41.1889470" lon="-8.6946790">
        <ele>17.4</ele>
        <time>2021-05-16T06:28:38Z</time>
      </trkpt>
      <trkpt lat="41.1889690" lon="-8.6946990">
        <ele>17.3</ele>
        <time>2021-05-16T06:28:39Z</time>
      </trkpt>
      <trkpt lat="41.1889780" lon="-8.6947110">
        <ele>17.2</ele>
        <time>2021-05-16T06:28:40Z</time>
      </trkpt>
      <trkpt lat="41.1889880" lon="-8.6947220">
        <ele>17.1</ele>
        <time>2021-05-16T06:28:41Z</time>
      </trkpt>
      <trkpt lat="41.1890030" lon="-8.6947330">
        <ele>17.1</ele>
        <time>2021-05-16T06:28:42Z</time>
      </trkpt>
      <trkpt lat="41.1890120" lon="-8.6947400">
        <ele>17.0</ele>
        <time>2021-05-16T06:28:43Z</time>
      </trkpt>
      <trkpt lat="41.1890200" lon="-8.6947460">
        <ele>17.0</ele>
        <time>2021-05-16T06:28:44Z</time>
      </trkpt>
      <trkpt lat="41.1890330" lon="-8.6947660">
        <ele>16.9</ele>
        <time>2021-05-16T06:28:45Z</time>
      </trkpt>
      <trkpt lat="41.1890370" lon="-8.6947780">
        <ele>16.8</ele>
        <time>2021-05-16T06:28:46Z</time>
      </trkpt>
      <trkpt lat="41.1890550" lon="-8.6947980">
        <ele>16.7</ele>
        <time>2021-05-16T06:28:47Z</time>
      </trkpt>
      <trkpt lat="41.1890580" lon="-8.6948070">
        <ele>16.7</ele>
        <time>2021-05-16T06:28:48Z</time>
      </trkpt>
      <trkpt lat="41.1890620" lon="-8.6948160">
        <ele>16.6</ele>
        <time>2021-05-16T06:28:49Z</time>
      </trkpt>
      <trkpt lat="41.1890710" lon="-8.6948230">
        <ele>16.6</ele>
        <time>2021-05-16T06:28:50Z</time>
      </trkpt>
      <trkpt lat="41.1890850" lon="-8.6948320">
        <ele>16.5</ele>
        <time>2021-05-16T06:28:51Z</time>
      </trkpt>
      <trkpt lat="41.1890890" lon="-8.6948370">
        <ele>16.5</ele>
        <time>2021-05-16T06:28:52Z</time>
      </trkpt>
      <trkpt lat="41.1891110" lon="-8.6948650">
        <ele>16.3</ele>
        <time>2021-05-16T06:28:53Z</time>
      </trkpt>
      <trkpt lat="41.1891150" lon="-8.6948720">
        <ele>16.3</ele>
        <time>2021-05-16T06:28:54Z</time>
      </trkpt>
      <trkpt lat="41.1891310" lon="-8.6948910">
        <ele>16.2</ele>
        <time>2021-05-16T06:28:55Z</time>
      </trkpt>
      <trkpt lat="41.1891370" lon="-8.6948980">
        <ele>16.2</ele>
        <time>2021-05-16T06:28:56Z</time>
      </trkpt>
      <trkpt lat="41.1891440" lon="-8.6949040">
        <ele>16.2</ele>
        <time>2021-05-16T06:28:57Z</time>
      </trkpt>
      <trkpt lat="41.1891510" lon="-8.6949080">
        <ele>16.1</ele>
        <time>2021-05-16T06:28:58Z</time>
      </trkpt>
      <trkpt lat="41.1891630" lon="-8.6949320">
        <ele>16.1</ele>
        <time>2021-05-16T06:28:59Z</time>
      </trkpt>
      <trkpt lat="41.1891720" lon="-8.6949450">
        <ele>16.0</ele>
        <time>2021-05-16T06:29:00Z</time>
      </trkpt>
      <trkpt lat="41.1891900" lon="-8.6949590">
        <ele>16.0</ele>
        <time>2021-05-16T06:29:01Z</time>
      </trkpt>
      <trkpt lat="41.1892050" lon="-8.6949780">
        <ele>15.9</ele>
        <time>2021-05-16T06:29:02Z</time>
      </trkpt>
      <trkpt lat="41.1892090" lon="-8.6949870">
        <ele>15.9</ele>
        <time>2021-05-16T06:29:03Z</time>
      </trkpt>
      <trkpt lat="41.1892140" lon="-8.6949960">
        <ele>15.8</ele>
        <time>2021-05-16T06:29:04Z</time>
      </trkpt>
      <trkpt lat="41.1892280" lon="-8.6950170">
        <ele>15.8</ele>
        <time>2021-05-16T06:29:05Z</time>
      </trkpt>
      <trkpt lat="41.1892320" lon="-8.6950260">
        <ele>15.8</ele>
        <time>2021-05-16T06:29:06Z</time>
      </trkpt>
      <trkpt lat="41.1892370" lon="-8.6950360">
        <ele>15.7</ele>
        <time>2021-05-16T06:29:07Z</time>
      </trkpt>
      <trkpt lat="41.1892510" lon="-8.6950530">
        <ele>15.7</ele>
        <time>2021-05-16T06:29:08Z</time>
      </trkpt>
      <trkpt lat="41.1892590" lon="-8.6950610">
        <ele>15.7</ele>
        <time>2021-05-16T06:29:09Z</time>
      </trkpt>
      <trkpt lat="41.1892660" lon="-8.6950680">
        <ele>15.7</ele>
        <time>2021-05-16T06:29:10Z</time>
      </trkpt>
      <trkpt lat="41.1892760" lon="-8.6950770">
        <ele>15.6</ele>
        <time>2021-05-16T06:29:11Z</time>
      </trkpt>
      <trkpt lat="41.1892880" lon="-8.6950910">
        <ele>15.6</ele>
        <time>2021-05-16T06:29:12Z</time>
      </trkpt>
      <trkpt lat="41.1892970" lon="-8.6950910">
        <ele>15.6</ele>
        <time>2021-05-16T06:29:13Z</time>
      </trkpt>
      <trkpt lat="41.1893050" lon="-8.6950930">
        <ele>15.5</ele>
        <time>2021-05-16T06:29:14Z</time>
      </trkpt>
      <trkpt lat="41.1893120" lon="-8.6950950">
        <ele>15.5</ele>
        <time>2021-05-16T06:29:15Z</time>
      </trkpt>
      <trkpt lat="41.1893200" lon="-8.6950970">
        <ele>15.5</ele>
        <time>2021-05-16T06:29:16Z</time>
      </trkpt>
      <trkpt lat="41.1893270" lon="-8.6950990">
        <ele>15.5</ele>
        <time>2021-05-16T06:29:17Z</time>
      </trkpt>
      <trkpt lat="41.1893340" lon="-8.6951060">
        <ele>15.5</ele>
        <time>2021-05-16T06:29:18Z</time>
      </trkpt>
      <trkpt lat="41.1893410" lon="-8.6951150">
        <ele>15.4</ele>
        <time>2021-05-16T06:29:19Z</time>
      </trkpt>
      <trkpt lat="41.1893440" lon="-8.6951230">
        <ele>15.4</ele>
        <time>2021-05-16T06:29:20Z</time>
      </trkpt>
      <trkpt lat="41.1893490" lon="-8.6951340">
        <ele>15.4</ele>
        <time>2021-05-16T06:29:21Z</time>
      </trkpt>
      <trkpt lat="41.1893530" lon="-8.6951350">
        <ele>15.4</ele>
        <time>2021-05-16T06:29:22Z</time>
      </trkpt>
      <trkpt lat="41.1893600" lon="-8.6951450">
        <ele>15.4</ele>
        <time>2021-05-16T06:29:23Z</time>
      </trkpt>
      <trkpt lat="41.1893660" lon="-8.6951480">
        <ele>15.4</ele>
        <time>2021-05-16T06:29:24Z</time>
      </trkpt>
      <trkpt lat="41.1893710" lon="-8.6951520">
        <ele>15.4</ele>
        <time>2021-05-16T06:29:25Z</time>
      </trkpt>
      <trkpt lat="41.1893740" lon="-8.6951540">
        <ele>15.3</ele>
        <time>2021-05-16T06:29:26Z</time>
      </trkpt>
      <trkpt lat="41.1893760" lon="-8.6951550">
        <ele>15.3</ele>
        <time>2021-05-16T06:29:27Z</time>
      </trkpt>
      <trkpt lat="41.1893790" lon="-8.6951560">
        <ele>15.3</ele>
        <time>2021-05-16T06:29:28Z</time>
      </trkpt>
      <trkpt lat="41.1893790" lon="-8.6951560">
        <ele>15.3</ele>
        <time>2021-05-16T06:29:29Z</time>
      </trkpt>
      <trkpt lat="41.1893910" lon="-8.6951600">
        <ele>15.3</ele>
        <time>2021-05-16T06:29:30Z</time>
      </trkpt>
      <trkpt lat="41.1893950" lon="-8.6951600">
        <ele>15.3</ele>
        <time>2021-05-16T06:29:31Z</time>
      </trkpt>
      <trkpt lat="41.1894020" lon="-8.6951720">
        <ele>15.3</ele>
        <time>2021-05-16T06:29:32Z</time>
      </trkpt>
      <trkpt lat="41.1894060" lon="-8.6951790">
        <ele>15.3</ele>
        <time>2021-05-16T06:29:33Z</time>
      </trkpt>
      <trkpt lat="41.1894190" lon="-8.6951920">
        <ele>15.2</ele>
        <time>2021-05-16T06:29:34Z</time>
      </trkpt>
      <trkpt lat="41.1894280" lon="-8.6952030">
        <ele>15.2</ele>
        <time>2021-05-16T06:29:35Z</time>
      </trkpt>
      <trkpt lat="41.1894310" lon="-8.6952080">
        <ele>15.2</ele>
        <time>2021-05-16T06:29:36Z</time>
      </trkpt>
      <trkpt lat="41.1894350" lon="-8.6952150">
        <ele>15.2</ele>
        <time>2021-05-16T06:29:37Z</time>
      </trkpt>
      <trkpt lat="41.1894490" lon="-8.6952310">
        <ele>15.1</ele>
        <time>2021-05-16T06:29:38Z</time>
      </trkpt>
      <trkpt lat="41.1894640" lon="-8.6952500">
        <ele>15.1</ele>
        <time>2021-05-16T06:29:39Z</time>
      </trkpt>
      <trkpt lat="41.1894720" lon="-8.6952570">
        <ele>15.1</ele>
        <time>2021-05-16T06:29:40Z</time>
      </trkpt>
      <trkpt lat="41.1894800" lon="-8.6952650">
        <ele>15.1</ele>
        <time>2021-05-16T06:29:41Z</time>
      </trkpt>
      <trkpt lat="41.1894880" lon="-8.6952690">
        <ele>15.0</ele>
        <time>2021-05-16T06:29:42Z</time>
      </trkpt>
      <trkpt lat="41.1894960" lon="-8.6952840">
        <ele>15.0</ele>
        <time>2021-05-16T06:29:43Z</time>
      </trkpt>
      <trkpt lat="41.1895020" lon="-8.6952880">
        <ele>15.0</ele>
        <time>2021-05-16T06:29:44Z</time>
      </trkpt>
      <trkpt lat="41.1895230" lon="-8.6953080">
        <ele>15.0</ele>
        <time>2021-05-16T06:29:45Z</time>
      </trkpt>
      <trkpt lat="41.1895280" lon="-8.6953160">
        <ele>14.9</ele>
        <time>2021-05-16T06:29:46Z</time>
      </trkpt>
      <trkpt lat="41.1895340" lon="-8.6953230">
        <ele>14.9</ele>
        <time>2021-05-16T06:29:47Z</time>
      </trkpt>
      <trkpt lat="41.1895400" lon="-8.6953310">
        <ele>14.9</ele>
        <time>2021-05-16T06:29:48Z</time>
      </trkpt>
      <trkpt lat="41.1895500" lon="-8.6953400">
        <ele>14.9</ele>
        <time>2021-05-16T06:29:49Z</time>
      </trkpt>
      <trkpt lat="41.1895590" lon="-8.6953480">
        <ele>14.9</ele>
        <time>2021-05-16T06:29:50Z</time>
      </trkpt>
      <trkpt lat="41.1895680" lon="-8.6953600">
        <ele>14.8</ele>
        <time>2021-05-16T06:29:51Z</time>
      </trkpt>
      <trkpt lat="41.1895740" lon="-8.6953690">
        <ele>14.8</ele>
        <time>2021-05-16T06:29:52Z</time>
      </trkpt>
      <trkpt lat="41.1895830" lon="-8.6953770">
        <ele>14.8</ele>
        <time>2021-05-16T06:29:53Z</time>
      </trkpt>
      <trkpt lat="41.1895950" lon="-8.6953900">
        <ele>14.8</ele>
        <time>2021-05-16T06:29:54Z</time>
      </trkpt>
      <trkpt lat="41.1896070" lon="-8.6954060">
        <ele>14.7</ele>
        <time>2021-05-16T06:29:55Z</time>
      </trkpt>
      <trkpt lat="41.1896180" lon="-8.6954170">
        <ele>14.7</ele>
        <time>2021-05-16T06:29:56Z</time>
      </trkpt>
      <trkpt lat="41.1896230" lon="-8.6954250">
        <ele>14.7</ele>
        <time>2021-05-16T06:29:57Z</time>
      </trkpt>
      <trkpt lat="41.1896290" lon="-8.6954330">
        <ele>14.7</ele>
        <time>2021-05-16T06:29:58Z</time>
      </trkpt>
      <trkpt lat="41.1896500" lon="-8.6954600">
        <ele>14.7</ele>
        <time>2021-05-16T06:29:59Z</time>
      </trkpt>
      <trkpt lat="41.1896570" lon="-8.6954660">
        <ele>14.6</ele>
        <time>2021-05-16T06:30:00Z</time>
      </trkpt>
      <trkpt lat="41.1896670" lon="-8.6954760">
        <ele>14.6</ele>
        <time>2021-05-16T06:30:01Z</time>
      </trkpt>
      <trkpt lat="41.1896820" lon="-8.6954850">
        <ele>14.6</ele>
        <time>2021-05-16T06:30:02Z</time>
      </trkpt>
      <trkpt lat="41.1896930" lon="-8.6954960">
        <ele>14.6</ele>
        <time>2021-05-16T06:30:03Z</time>
      </trkpt>
      <trkpt lat="41.1897100" lon="-8.6955090">
        <ele>14.5</ele>
        <time>2021-05-16T06:30:04Z</time>
      </trkpt>
      <trkpt lat="41.1897280" lon="-8.6955240">
        <ele>14.5</ele>
        <time>2021-05-16T06:30:05Z</time>
      </trkpt>
      <trkpt lat="41.1897340" lon="-8.6955320">
        <ele>14.5</ele>
        <time>2021-05-16T06:30:06Z</time>
      </trkpt>
      <trkpt lat="41.1897400" lon="-8.6955390">
        <ele>14.5</ele>
        <time>2021-05-16T06:30:07Z</time>
      </trkpt>
      <trkpt lat="41.1897560" lon="-8.6955510">
        <ele>14.5</ele>
        <time>2021-05-16T06:30:08Z</time>
      </trkpt>
      <trkpt lat="41.1897640" lon="-8.6955570">
        <ele>14.5</ele>
        <time>2021-05-16T06:30:09Z</time>
      </trkpt>
      <trkpt lat="41.1897860" lon="-8.6955740">
        <ele>14.4</ele>
        <time>2021-05-16T06:30:10Z</time>
      </trkpt>
      <trkpt lat="41.1897960" lon="-8.6955840">
        <ele>14.4</ele>
        <time>2021-05-16T06:30:11Z</time>
      </trkpt>
      <trkpt lat="41.1898050" lon="-8.6955940">
        <ele>14.4</ele>
        <time>2021-05-16T06:30:12Z</time>
      </trkpt>
      <trkpt lat="41.1898120" lon="-8.6956010">
        <ele>14.4</ele>
        <time>2021-05-16T06:30:13Z</time>
      </trkpt>
      <trkpt lat="41.1898200" lon="-8.6956150">
        <ele>14.3</ele>
        <time>2021-05-16T06:30:14Z</time>
      </trkpt>
      <trkpt lat="41.1898300" lon="-8.6956170">
        <ele>14.3</ele>
        <time>2021-05-16T06:30:15Z</time>
      </trkpt>
      <trkpt lat="41.1898390" lon="-8.6956290">
        <ele>14.3</ele>
        <time>2021-05-16T06:30:16Z</time>
      </trkpt>
      <trkpt lat="41.1898540" lon="-8.6956410">
        <ele>14.3</ele>
        <time>2021-05-16T06:30:17Z</time>
      </trkpt>
      <trkpt lat="41.1898670" lon="-8.6956500">
        <ele>14.3</ele>
        <time>2021-05-16T06:30:18Z</time>
      </trkpt>
      <trkpt lat="41.1898810" lon="-8.6956630">
        <ele>14.2</ele>
        <time>2021-05-16T06:30:19Z</time>
      </trkpt>
      <trkpt lat="41.1898910" lon="-8.6956750">
        <ele>14.2</ele>
        <time>2021-05-16T06:30:20Z</time>
      </trkpt>
      <trkpt lat="41.1899020" lon="-8.6956870">
        <ele>14.2</ele>
        <time>2021-05-16T06:30:21Z</time>
      </trkpt>
      <trkpt lat="41.1899120" lon="-8.6956970">
        <ele>14.2</ele>
        <time>2021-05-16T06:30:22Z</time>
      </trkpt>
      <trkpt lat="41.1899250" lon="-8.6957090">
        <ele>14.2</ele>
        <time>2021-05-16T06:30:23Z</time>
      </trkpt>
      <trkpt lat="41.1899360" lon="-8.6957220">
        <ele>14.1</ele>
        <time>2021-05-16T06:30:24Z</time>
      </trkpt>
      <trkpt lat="41.1899440" lon="-8.6957340">
        <ele>14.1</ele>
        <time>2021-05-16T06:30:25Z</time>
      </trkpt>
      <trkpt lat="41.1899620" lon="-8.6957590">
        <ele>14.1</ele>
        <time>2021-05-16T06:30:26Z</time>
      </trkpt>
      <trkpt lat="41.1899700" lon="-8.6957660">
        <ele>14.1</ele>
        <time>2021-05-16T06:30:27Z</time>
      </trkpt>
      <trkpt lat="41.1899780" lon="-8.6957730">
        <ele>14.1</ele>
        <time>2021-05-16T06:30:28Z</time>
      </trkpt>
      <trkpt lat="41.1899840" lon="-8.6957800">
        <ele>14.1</ele>
        <time>2021-05-16T06:30:29Z</time>
      </trkpt>
      <trkpt lat="41.1899950" lon="-8.6957900">
        <ele>14.0</ele>
        <time>2021-05-16T06:30:30Z</time>
      </trkpt>
      <trkpt lat="41.1900070" lon="-8.6957960">
        <ele>14.0</ele>
        <time>2021-05-16T06:30:31Z</time>
      </trkpt>
      <trkpt lat="41.1900170" lon="-8.6958040">
        <ele>14.0</ele>
        <time>2021-05-16T06:30:32Z</time>
      </trkpt>
      <trkpt lat="41.1900290" lon="-8.6958130">
        <ele>14.0</ele>
        <time>2021-05-16T06:30:33Z</time>
      </trkpt>
      <trkpt lat="41.1900370" lon="-8.6958220">
        <ele>14.0</ele>
        <time>2021-05-16T06:30:34Z</time>
      </trkpt>
      <trkpt lat="41.1900420" lon="-8.6958300">
        <ele>14.0</ele>
        <time>2021-05-16T06:30:35Z</time>
      </trkpt>
      <trkpt lat="41.1900570" lon="-8.6958430">
        <ele>14.0</ele>
        <time>2021-05-16T06:30:36Z</time>
      </trkpt>
      <trkpt lat="41.1900660" lon="-8.6958520">
        <ele>14.0</ele>
        <time>2021-05-16T06:30:37Z</time>
      </trkpt>
      <trkpt lat="41.1900830" lon="-8.6958670">
        <ele>14.0</ele>
        <time>2021-05-16T06:30:38Z</time>
      </trkpt>
      <trkpt lat="41.1900920" lon="-8.6958720">
        <ele>14.0</ele>
        <time>2021-05-16T06:30:39Z</time>
      </trkpt>
      <trkpt lat="41.1901000" lon="-8.6958770">
        <ele>14.0</ele>
        <time>2021-05-16T06:30:40Z</time>
      </trkpt>
      <trkpt lat="41.1901110" lon="-8.6958880">
        <ele>14.0</ele>
        <time>2021-05-16T06:30:41Z</time>
      </trkpt>
      <trkpt lat="41.1901280" lon="-8.6958990">
        <ele>13.9</ele>
        <time>2021-05-16T06:30:42Z</time>
      </trkpt>
      <trkpt lat="41.1901440" lon="-8.6959120">
        <ele>13.9</ele>
        <time>2021-05-16T06:30:43Z</time>
      </trkpt>
      <trkpt lat="41.1901520" lon="-8.6959180">
        <ele>13.9</ele>
        <time>2021-05-16T06:30:44Z</time>
      </trkpt>
      <trkpt lat="41.1901730" lon="-8.6959360">
        <ele>13.9</ele>
        <time>2021-05-16T06:30:45Z</time>
      </trkpt>
      <trkpt lat="41.1901820" lon="-8.6959420">
        <ele>13.9</ele>
        <time>2021-05-16T06:30:46Z</time>
      </trkpt>
      <trkpt lat="41.1901910" lon="-8.6959510">
        <ele>13.9</ele>
        <time>2021-05-16T06:30:47Z</time>
      </trkpt>
      <trkpt lat="41.1902070" lon="-8.6959720">
        <ele>13.9</ele>
        <time>2021-05-16T06:30:48Z</time>
      </trkpt>
      <trkpt lat="41.1902210" lon="-8.6959760">
        <ele>13.9</ele>
        <time>2021-05-16T06:30:49Z</time>
      </trkpt>
      <trkpt lat="41.1902330" lon="-8.6959850">
        <ele>13.9</ele>
        <time>2021-05-16T06:30:50Z</time>
      </trkpt>
      <trkpt lat="41.1902500" lon="-8.6959980">
        <ele>13.9</ele>
        <time>2021-05-16T06:30:51Z</time>
      </trkpt>
      <trkpt lat="41.1902580" lon="-8.6960050">
        <ele>13.8</ele>
        <time>2021-05-16T06:30:52Z</time>
      </trkpt>
      <trkpt lat="41.1902660" lon="-8.6960110">
        <ele>13.8</ele>
        <time>2021-05-16T06:30:53Z</time>
      </trkpt>
      <trkpt lat="41.1902690" lon="-8.6960160">
        <ele>13.8</ele>
        <time>2021-05-16T06:30:54Z</time>
      </trkpt>
      <trkpt lat="41.1902880" lon="-8.6960340">
        <ele>13.8</ele>
        <time>2021-05-16T06:30:55Z</time>
      </trkpt>
      <trkpt lat="41.1903080" lon="-8.6960530">
        <ele>13.8</ele>
        <time>2021-05-16T06:30:56Z</time>
      </trkpt>
      <trkpt lat="41.1903170" lon="-8.6960600">
        <ele>13.8</ele>
        <time>2021-05-16T06:30:57Z</time>
      </trkpt>
      <trkpt lat="41.1903250" lon="-8.6960680">
        <ele>13.8</ele>
        <time>2021-05-16T06:30:58Z</time>
      </trkpt>
      <trkpt lat="41.1903470" lon="-8.6960850">
        <ele>13.8</ele>
        <time>2021-05-16T06:30:59Z</time>
      </trkpt>
      <trkpt lat="41.1903540" lon="-8.6960890">
        <ele>13.8</ele>
        <time>2021-05-16T06:31:00Z</time>
      </trkpt>
      <trkpt lat="41.1903620" lon="-8.6960930">
        <ele>13.8</ele>
        <time>2021-05-16T06:31:01Z</time>
      </trkpt>
      <trkpt lat="41.1903740" lon="-8.6961030">
        <ele>13.8</ele>
        <time>2021-05-16T06:31:02Z</time>
      </trkpt>
      <trkpt lat="41.1903940" lon="-8.6961140">
        <ele>13.8</ele>
        <time>2021-05-16T06:31:03Z</time>
      </trkpt>
      <trkpt lat="41.1904160" lon="-8.6961280">
        <ele>13.8</ele>
        <time>2021-05-16T06:31:04Z</time>
      </trkpt>
      <trkpt lat="41.1904270" lon="-8.6961360">
        <ele>13.8</ele>
        <time>2021-05-16T06:31:05Z</time>
      </trkpt>
      <trkpt lat="41.1904380" lon="-8.6961430">
        <ele>13.8</ele>
        <time>2021-05-16T06:31:06Z</time>
      </trkpt>
      <trkpt lat="41.1904500" lon="-8.6961550">
        <ele>13.8</ele>
        <time>2021-05-16T06:31:07Z</time>
      </trkpt>
      <trkpt lat="41.1904580" lon="-8.6961640">
        <ele>13.8</ele>
        <time>2021-05-16T06:31:08Z</time>
      </trkpt>
      <trkpt lat="41.1904650" lon="-8.6961720">
        <ele>13.8</ele>
        <time>2021-05-16T06:31:09Z</time>
      </trkpt>
      <trkpt lat="41.1904850" lon="-8.6961860">
        <ele>13.8</ele>
        <time>2021-05-16T06:31:10Z</time>
      </trkpt>
      <trkpt lat="41.1904960" lon="-8.6961930">
        <ele>13.8</ele>
        <time>2021-05-16T06:31:11Z</time>
      </trkpt>
      <trkpt lat="41.1905110" lon="-8.6962070">
        <ele>13.8</ele>
        <time>2021-05-16T06:31:12Z</time>
      </trkpt>
      <trkpt lat="41.1905250" lon="-8.6962170">
        <ele>13.7</ele>
        <time>2021-05-16T06:31:13Z</time>
      </trkpt>
      <trkpt lat="41.1905380" lon="-8.6962250">
        <ele>13.7</ele>
        <time>2021-05-16T06:31:14Z</time>
      </trkpt>
      <trkpt lat="41.1905530" lon="-8.6962370">
        <ele>13.8</ele>
        <time>2021-05-16T06:31:15Z</time>
      </trkpt>
      <trkpt lat="41.1905700" lon="-8.6962530">
        <ele>13.8</ele>
        <time>2021-05-16T06:31:16Z</time>
      </trkpt>
      <trkpt lat="41.1905770" lon="-8.6962660">
        <ele>13.9</ele>
        <time>2021-05-16T06:31:17Z</time>
      </trkpt>
      <trkpt lat="41.1905830" lon="-8.6962780">
        <ele>13.9</ele>
        <time>2021-05-16T06:31:18Z</time>
      </trkpt>
      <trkpt lat="41.1905870" lon="-8.6962910">
        <ele>13.9</ele>
        <time>2021-05-16T06:31:19Z</time>
      </trkpt>
      <trkpt lat="41.1905930" lon="-8.6963190">
        <ele>13.9</ele>
        <time>2021-05-16T06:31:20Z</time>
      </trkpt>
      <trkpt lat="41.1905880" lon="-8.6963340">
        <ele>13.9</ele>
        <time>2021-05-16T06:31:21Z</time>
      </trkpt>
      <trkpt lat="41.1905890" lon="-8.6963550">
        <ele>14.0</ele>
        <time>2021-05-16T06:31:22Z</time>
      </trkpt>
      <trkpt lat="41.1905950" lon="-8.6963920">
        <ele>14.0</ele>
        <time>2021-05-16T06:31:23Z</time>
      </trkpt>
      <trkpt lat="41.1905960" lon="-8.6964030">
        <ele>14.0</ele>
        <time>2021-05-16T06:31:24Z</time>
      </trkpt>
      <trkpt lat="41.1906040" lon="-8.6964380">
        <ele>14.0</ele>
        <time>2021-05-16T06:31:25Z</time>
      </trkpt>
      <trkpt lat="41.1906050" lon="-8.6964520">
        <ele>14.0</ele>
        <time>2021-05-16T06:31:26Z</time>
      </trkpt>
      <trkpt lat="41.1906110" lon="-8.6964710">
        <ele>14.0</ele>
        <time>2021-05-16T06:31:27Z</time>
      </trkpt>
      <trkpt lat="41.1906180" lon="-8.6964910">
        <ele>14.0</ele>
        <time>2021-05-16T06:31:28Z</time>
      </trkpt>
      <trkpt lat="41.1906280" lon="-8.6964980">
        <ele>14.0</ele>
        <time>2021-05-16T06:31:29Z</time>
      </trkpt>
      <trkpt lat="41.1906390" lon="-8.6965180">
        <ele>14.0</ele>
        <time>2021-05-16T06:31:30Z</time>
      </trkpt>
      <trkpt lat="41.1906350" lon="-8.6965190">
        <ele>14.0</ele>
        <time>2021-05-16T06:31:31Z</time>
      </trkpt>
      <trkpt lat="41.1906390" lon="-8.6965130">
        <ele>14.0</ele>
        <time>2021-05-16T06:31:32Z</time>
      </trkpt>
      <trkpt lat="41.1906480" lon="-8.6965160">
        <ele>14.0</ele>
        <time>2021-05-16T06:31:33Z</time>
      </trkpt>
      <trkpt lat="41.1906590" lon="-8.6965190">
        <ele>14.0</ele>
        <time>2021-05-16T06:31:34Z</time>
      </trkpt>
      <trkpt lat="41.1906700" lon="-8.6965270">
        <ele>14.0</ele>
        <time>2021-05-16T06:31:35Z</time>
      </trkpt>
      <trkpt lat="41.1906890" lon="-8.6965430">
        <ele>14.1</ele>
        <time>2021-05-16T06:31:36Z</time>
      </trkpt>
      <trkpt lat="41.1906970" lon="-8.6965490">
        <ele>14.1</ele>
        <time>2021-05-16T06:31:37Z</time>
      </trkpt>
      <trkpt lat="41.1907040" lon="-8.6965550">
        <ele>14.1</ele>
        <time>2021-05-16T06:31:38Z</time>
      </trkpt>
      <trkpt lat="41.1907180" lon="-8.6965720">
        <ele>14.1</ele>
        <time>2021-05-16T06:31:39Z</time>
      </trkpt>
      <trkpt lat="41.1907240" lon="-8.6965830">
        <ele>14.1</ele>
        <time>2021-05-16T06:31:40Z</time>
      </trkpt>
      <trkpt lat="41.1907290" lon="-8.6965930">
        <ele>14.1</ele>
        <time>2021-05-16T06:31:41Z</time>
      </trkpt>
      <trkpt lat="41.1907450" lon="-8.6966110">
        <ele>14.1</ele>
        <time>2021-05-16T06:31:42Z</time>
      </trkpt>
      <trkpt lat="41.1907510" lon="-8.6966230">
        <ele>14.1</ele>
        <time>2021-05-16T06:31:43Z</time>
      </trkpt>
      <trkpt lat="41.1907560" lon="-8.6966370">
        <ele>14.1</ele>
        <time>2021-05-16T06:31:44Z</time>
      </trkpt>
      <trkpt lat="41.1907520" lon="-8.6966480">
        <ele>14.1</ele>
        <time>2021-05-16T06:31:45Z</time>
      </trkpt>
      <trkpt lat="41.1907470" lon="-8.6966700">
        <ele>14.2</ele>
        <time>2021-05-16T06:31:46Z</time>
      </trkpt>
      <trkpt lat="41.1907490" lon="-8.6966830">
        <ele>14.2</ele>
        <time>2021-05-16T06:31:47Z</time>
      </trkpt>
      <trkpt lat="41.1907460" lon="-8.6966900">
        <ele>14.2</ele>
        <time>2021-05-16T06:31:48Z</time>
      </trkpt>
      <trkpt lat="41.1907450" lon="-8.6967060">
        <ele>14.2</ele>
        <time>2021-05-16T06:31:49Z</time>
      </trkpt>
      <trkpt lat="41.1907450" lon="-8.6967350">
        <ele>14.2</ele>
        <time>2021-05-16T06:31:50Z</time>
      </trkpt>
      <trkpt lat="41.1907470" lon="-8.6967470">
        <ele>14.2</ele>
        <time>2021-05-16T06:31:51Z</time>
      </trkpt>
      <trkpt lat="41.1907480" lon="-8.6967600">
        <ele>14.2</ele>
        <time>2021-05-16T06:31:52Z</time>
      </trkpt>
      <trkpt lat="41.1907500" lon="-8.6967810">
        <ele>14.3</ele>
        <time>2021-05-16T06:31:53Z</time>
      </trkpt>
      <trkpt lat="41.1907550" lon="-8.6967980">
        <ele>14.3</ele>
        <time>2021-05-16T06:31:54Z</time>
      </trkpt>
      <trkpt lat="41.1907570" lon="-8.6968100">
        <ele>14.3</ele>
        <time>2021-05-16T06:31:55Z</time>
      </trkpt>
      <trkpt lat="41.1907610" lon="-8.6968320">
        <ele>14.3</ele>
        <time>2021-05-16T06:31:56Z</time>
      </trkpt>
      <trkpt lat="41.1907650" lon="-8.6968410">
        <ele>14.3</ele>
        <time>2021-05-16T06:31:57Z</time>
      </trkpt>
      <trkpt lat="41.1907680" lon="-8.6968620">
        <ele>14.3</ele>
        <time>2021-05-16T06:31:58Z</time>
      </trkpt>
      <trkpt lat="41.1907760" lon="-8.6968860">
        <ele>14.3</ele>
        <time>2021-05-16T06:31:59Z</time>
      </trkpt>
      <trkpt lat="41.1907800" lon="-8.6969060">
        <ele>14.4</ele>
        <time>2021-05-16T06:32:00Z</time>
      </trkpt>
      <trkpt lat="41.1907830" lon="-8.6969300">
        <ele>14.4</ele>
        <time>2021-05-16T06:32:01Z</time>
      </trkpt>
      <trkpt lat="41.1907850" lon="-8.6969720">
        <ele>14.4</ele>
        <time>2021-05-16T06:32:02Z</time>
      </trkpt>
      <trkpt lat="41.1907850" lon="-8.6969870">
        <ele>14.4</ele>
        <time>2021-05-16T06:32:03Z</time>
      </trkpt>
      <trkpt lat="41.1907900" lon="-8.6970210">
        <ele>14.5</ele>
        <time>2021-05-16T06:32:04Z</time>
      </trkpt>
      <trkpt lat="41.1907920" lon="-8.6970350">
        <ele>14.5</ele>
        <time>2021-05-16T06:32:05Z</time>
      </trkpt>
      <trkpt lat="41.1907900" lon="-8.6970750">
        <ele>14.5</ele>
        <time>2021-05-16T06:32:06Z</time>
      </trkpt>
      <trkpt lat="41.1907900" lon="-8.6970850">
        <ele>14.5</ele>
        <time>2021-05-16T06:32:07Z</time>
      </trkpt>
      <trkpt lat="41.1908050" lon="-8.6971010">
        <ele>14.5</ele>
        <time>2021-05-16T06:32:08Z</time>
      </trkpt>
      <trkpt lat="41.1907960" lon="-8.6971270">
        <ele>14.6</ele>
        <time>2021-05-16T06:32:09Z</time>
      </trkpt>
      <trkpt lat="41.1907850" lon="-8.6971510">
        <ele>14.6</ele>
        <time>2021-05-16T06:32:10Z</time>
      </trkpt>
      <trkpt lat="41.1907820" lon="-8.6971610">
        <ele>14.6</ele>
        <time>2021-05-16T06:32:11Z</time>
      </trkpt>
      <trkpt lat="41.1907780" lon="-8.6971700">
        <ele>14.6</ele>
        <time>2021-05-16T06:32:12Z</time>
      </trkpt>
      <trkpt lat="41.1907670" lon="-8.6972010">
        <ele>14.6</ele>
        <time>2021-05-16T06:32:13Z</time>
      </trkpt>
      <trkpt lat="41.1907610" lon="-8.6972130">
        <ele>14.7</ele>
        <time>2021-05-16T06:32:14Z</time>
      </trkpt>
      <trkpt lat="41.1907560" lon="-8.6972310">
        <ele>14.7</ele>
        <time>2021-05-16T06:32:15Z</time>
      </trkpt>
      <trkpt lat="41.1907460" lon="-8.6972500">
        <ele>14.7</ele>
        <time>2021-05-16T06:32:16Z</time>
      </trkpt>
      <trkpt lat="41.1907460" lon="-8.6972760">
        <ele>14.7</ele>
        <time>2021-05-16T06:32:17Z</time>
      </trkpt>
      <trkpt lat="41.1907390" lon="-8.6972880">
        <ele>14.7</ele>
        <time>2021-05-16T06:32:18Z</time>
      </trkpt>
      <trkpt lat="41.1907400" lon="-8.6973100">
        <ele>14.7</ele>
        <time>2021-05-16T06:32:19Z</time>
      </trkpt>
      <trkpt lat="41.1907320" lon="-8.6973260">
        <ele>14.8</ele>
        <time>2021-05-16T06:32:20Z</time>
      </trkpt>
      <trkpt lat="41.1907360" lon="-8.6973490">
        <ele>14.8</ele>
        <time>2021-05-16T06:32:21Z</time>
      </trkpt>
      <trkpt lat="41.1907280" lon="-8.6973630">
        <ele>14.8</ele>
        <time>2021-05-16T06:32:22Z</time>
      </trkpt>
      <trkpt lat="41.1907140" lon="-8.6973790">
        <ele>14.8</ele>
        <time>2021-05-16T06:32:23Z</time>
      </trkpt>
      <trkpt lat="41.1907080" lon="-8.6973880">
        <ele>14.8</ele>
        <time>2021-05-16T06:32:24Z</time>
      </trkpt>
      <trkpt lat="41.1906950" lon="-8.6974010">
        <ele>14.9</ele>
        <time>2021-05-16T06:32:25Z</time>
      </trkpt>
      <trkpt lat="41.1906940" lon="-8.6974210">
        <ele>14.9</ele>
        <time>2021-05-16T06:32:26Z</time>
      </trkpt>
      <trkpt lat="41.1906850" lon="-8.6974270">
        <ele>14.9</ele>
        <time>2021-05-16T06:32:27Z</time>
      </trkpt>
      <trkpt lat="41.1906840" lon="-8.6974400">
        <ele>14.9</ele>
        <time>2021-05-16T06:32:28Z</time>
      </trkpt>
      <trkpt lat="41.1906770" lon="-8.6974590">
        <ele>14.9</ele>
        <time>2021-05-16T06:32:29Z</time>
      </trkpt>
      <trkpt lat="41.1906740" lon="-8.6974860">
        <ele>15.0</ele>
        <time>2021-05-16T06:32:30Z</time>
      </trkpt>
      <trkpt lat="41.1906660" lon="-8.6975010">
        <ele>15.0</ele>
        <time>2021-05-16T06:32:31Z</time>
      </trkpt>
      <trkpt lat="41.1906540" lon="-8.6975250">
        <ele>15.0</ele>
        <time>2021-05-16T06:32:32Z</time>
      </trkpt>
      <trkpt lat="41.1906510" lon="-8.6975370">
        <ele>15.1</ele>
        <time>2021-05-16T06:32:33Z</time>
      </trkpt>
      <trkpt lat="41.1906480" lon="-8.6975480">
        <ele>15.1</ele>
        <time>2021-05-16T06:32:34Z</time>
      </trkpt>
      <trkpt lat="41.1906470" lon="-8.6975730">
        <ele>15.1</ele>
        <time>2021-05-16T06:32:35Z</time>
      </trkpt>
      <trkpt lat="41.1906450" lon="-8.6975930">
        <ele>15.1</ele>
        <time>2021-05-16T06:32:36Z</time>
      </trkpt>
      <trkpt lat="41.1906410" lon="-8.6976120">
        <ele>15.2</ele>
        <time>2021-05-16T06:32:37Z</time>
      </trkpt>
      <trkpt lat="41.1906370" lon="-8.6976310">
        <ele>15.2</ele>
        <time>2021-05-16T06:32:38Z</time>
      </trkpt>
      <trkpt lat="41.1906330" lon="-8.6976400">
        <ele>15.2</ele>
        <time>2021-05-16T06:32:39Z</time>
      </trkpt>
      <trkpt lat="41.1906300" lon="-8.6976680">
        <ele>15.2</ele>
        <time>2021-05-16T06:32:40Z</time>
      </trkpt>
      <trkpt lat="41.1906200" lon="-8.6976910">
        <ele>15.3</ele>
        <time>2021-05-16T06:32:41Z</time>
      </trkpt>
      <trkpt lat="41.1906160" lon="-8.6977040">
        <ele>15.3</ele>
        <time>2021-05-16T06:32:42Z</time>
      </trkpt>
      <trkpt lat="41.1906120" lon="-8.6977160">
        <ele>15.3</ele>
        <time>2021-05-16T06:32:43Z</time>
      </trkpt>
      <trkpt lat="41.1906030" lon="-8.6977330">
        <ele>15.3</ele>
        <time>2021-05-16T06:32:44Z</time>
      </trkpt>
      <trkpt lat="41.1906000" lon="-8.6977520">
        <ele>15.4</ele>
        <time>2021-05-16T06:32:45Z</time>
      </trkpt>
      <trkpt lat="41.1905950" lon="-8.6977800">
        <ele>15.4</ele>
        <time>2021-05-16T06:32:46Z</time>
      </trkpt>
      <trkpt lat="41.1905970" lon="-8.6977900">
        <ele>15.4</ele>
        <time>2021-05-16T06:32:47Z</time>
      </trkpt>
      <trkpt lat="41.1906000" lon="-8.6978000">
        <ele>15.4</ele>
        <time>2021-05-16T06:32:48Z</time>
      </trkpt>
      <trkpt lat="41.1906000" lon="-8.6978200">
        <ele>15.4</ele>
        <time>2021-05-16T06:32:49Z</time>
      </trkpt>
      <trkpt lat="41.1906010" lon="-8.6978470">
        <ele>15.5</ele>
        <time>2021-05-16T06:32:50Z</time>
      </trkpt>
      <trkpt lat="41.1906000" lon="-8.6978630">
        <ele>15.5</ele>
        <time>2021-05-16T06:32:51Z</time>
      </trkpt>
      <trkpt lat="41.1905980" lon="-8.6978770">
        <ele>15.5</ele>
        <time>2021-05-16T06:32:52Z</time>
      </trkpt>
      <trkpt lat="41.1905950" lon="-8.6978840">
        <ele>15.5</ele>
        <time>2021-05-16T06:32:53Z</time>
      </trkpt>
      <trkpt lat="41.1906010" lon="-8.6979210">
        <ele>15.6</ele>
        <time>2021-05-16T06:32:54Z</time>
      </trkpt>
      <trkpt lat="41.1906000" lon="-8.6979300">
        <ele>15.6</ele>
        <time>2021-05-16T06:32:55Z</time>
      </trkpt>
      <trkpt lat="41.1905980" lon="-8.6979400">
        <ele>15.6</ele>
        <time>2021-05-16T06:32:56Z</time>
      </trkpt>
      <trkpt lat="41.1906120" lon="-8.6979710">
        <ele>15.6</ele>
        <time>2021-05-16T06:32:57Z</time>
      </trkpt>
      <trkpt lat="41.1906210" lon="-8.6979830">
        <ele>15.6</ele>
        <time>2021-05-16T06:32:58Z</time>
      </trkpt>
      <trkpt lat="41.1906240" lon="-8.6979940">
        <ele>15.6</ele>
        <time>2021-05-16T06:32:59Z</time>
      </trkpt>
      <trkpt lat="41.1906310" lon="-8.6980210">
        <ele>15.7</ele>
        <time>2021-05-16T06:33:00Z</time>
      </trkpt>
      <trkpt lat="41.1906420" lon="-8.6980460">
        <ele>15.7</ele>
        <time>2021-05-16T06:33:01Z</time>
      </trkpt>
      <trkpt lat="41.1906420" lon="-8.6980580">
        <ele>15.7</ele>
        <time>2021-05-16T06:33:02Z</time>
      </trkpt>
      <trkpt lat="41.1906420" lon="-8.6980700">
        <ele>15.7</ele>
        <time>2021-05-16T06:33:03Z</time>
      </trkpt>
      <trkpt lat="41.1906480" lon="-8.6981110">
        <ele>15.7</ele>
        <time>2021-05-16T06:33:04Z</time>
      </trkpt>
      <trkpt lat="41.1906520" lon="-8.6981240">
        <ele>15.8</ele>
        <time>2021-05-16T06:33:05Z</time>
      </trkpt>
      <trkpt lat="41.1906560" lon="-8.6981360">
        <ele>15.8</ele>
        <time>2021-05-16T06:33:06Z</time>
      </trkpt>
      <trkpt lat="41.1906590" lon="-8.6981510">
        <ele>15.8</ele>
        <time>2021-05-16T06:33:07Z</time>
      </trkpt>
      <trkpt lat="41.1906610" lon="-8.6981670">
        <ele>15.8</ele>
        <time>2021-05-16T06:33:08Z</time>
      </trkpt>
      <trkpt lat="41.1906670" lon="-8.6981930">
        <ele>15.8</ele>
        <time>2021-05-16T06:33:09Z</time>
      </trkpt>
      <trkpt lat="41.1906730" lon="-8.6982100">
        <ele>15.8</ele>
        <time>2021-05-16T06:33:10Z</time>
      </trkpt>
      <trkpt lat="41.1906770" lon="-8.6982270">
        <ele>15.8</ele>
        <time>2021-05-16T06:33:11Z</time>
      </trkpt>
      <trkpt lat="41.1906810" lon="-8.6982360">
        <ele>15.8</ele>
        <time>2021-05-16T06:33:12Z</time>
      </trkpt>
      <trkpt lat="41.1906860" lon="-8.6982530">
        <ele>15.9</ele>
        <time>2021-05-16T06:33:13Z</time>
      </trkpt>
      <trkpt lat="41.1906850" lon="-8.6982820">
        <ele>15.9</ele>
        <time>2021-05-16T06:33:14Z</time>
      </trkpt>
      <trkpt lat="41.1906850" lon="-8.6982920">
        <ele>15.9</ele>
        <time>2021-05-16T06:33:15Z</time>
      </trkpt>
      <trkpt lat="41.1906860" lon="-8.6983030">
        <ele>15.9</ele>
        <time>2021-05-16T06:33:16Z</time>
      </trkpt>
      <trkpt lat="41.1906950" lon="-8.6983320">
        <ele>15.9</ele>
        <time>2021-05-16T06:33:17Z</time>
      </trkpt>
      <trkpt lat="41.1906990" lon="-8.6983430">
        <ele>15.9</ele>
        <time>2021-05-16T06:33:18Z</time>
      </trkpt>
      <trkpt lat="41.1907030" lon="-8.6983550">
        <ele>15.9</ele>
        <time>2021-05-16T06:33:19Z</time>
      </trkpt>
      <trkpt lat="41.1907080" lon="-8.6983670">
        <ele>15.9</ele>
        <time>2021-05-16T06:33:20Z</time>
      </trkpt>
      <trkpt lat="41.1907040" lon="-8.6983760">
        <ele>15.9</ele>
        <time>2021-05-16T06:33:21Z</time>
      </trkpt>
      <trkpt lat="41.1907010" lon="-8.6983870">
        <ele>15.9</ele>
        <time>2021-05-16T06:33:22Z</time>
      </trkpt>
      <trkpt lat="41.1907090" lon="-8.6983990">
        <ele>16.0</ele>
        <time>2021-05-16T06:33:23Z</time>
      </trkpt>
      <trkpt lat="41.1907250" lon="-8.6984320">
        <ele>16.0</ele>
        <time>2021-05-16T06:33:24Z</time>
      </trkpt>
      <trkpt lat="41.1907270" lon="-8.6984420">
        <ele>16.0</ele>
        <time>2021-05-16T06:33:25Z</time>
      </trkpt>
      <trkpt lat="41.1907340" lon="-8.6984680">
        <ele>16.0</ele>
        <time>2021-05-16T06:33:26Z</time>
      </trkpt>
      <trkpt lat="41.1907350" lon="-8.6984800">
        <ele>16.0</ele>
        <time>2021-05-16T06:33:27Z</time>
      </trkpt>
      <trkpt lat="41.1907360" lon="-8.6984920">
        <ele>16.0</ele>
        <time>2021-05-16T06:33:28Z</time>
      </trkpt>
      <trkpt lat="41.1907350" lon="-8.6985090">
        <ele>16.0</ele>
        <time>2021-05-16T06:33:29Z</time>
      </trkpt>
      <trkpt lat="41.1907450" lon="-8.6985280">
        <ele>16.0</ele>
        <time>2021-05-16T06:33:30Z</time>
      </trkpt>
      <trkpt lat="41.1907450" lon="-8.6985520">
        <ele>16.1</ele>
        <time>2021-05-16T06:33:31Z</time>
      </trkpt>
      <trkpt lat="41.1907370" lon="-8.6985660">
        <ele>16.1</ele>
        <time>2021-05-16T06:33:32Z</time>
      </trkpt>
      <trkpt lat="41.1907350" lon="-8.6985760">
        <ele>16.1</ele>
        <time>2021-05-16T06:33:33Z</time>
      </trkpt>
      <trkpt lat="41.1907200" lon="-8.6986010">
        <ele>16.1</ele>
        <time>2021-05-16T06:33:34Z</time>
      </trkpt>
      <trkpt lat="41.1907050" lon="-8.6986360">
        <ele>16.1</ele>
        <time>2021-05-16T06:33:35Z</time>
      </trkpt>
      <trkpt lat="41.1906980" lon="-8.6986490">
        <ele>16.1</ele>
        <time>2021-05-16T06:33:36Z</time>
      </trkpt>
      <trkpt lat="41.1906800" lon="-8.6986900">
        <ele>16.2</ele>
        <time>2021-05-16T06:33:37Z</time>
      </trkpt>
      <trkpt lat="41.1906700" lon="-8.6987260">
        <ele>16.2</ele>
        <time>2021-05-16T06:33:38Z</time>
      </trkpt>
      <trkpt lat="41.1906500" lon="-8.6987520">
        <ele>16.2</ele>
        <time>2021-05-16T06:33:39Z</time>
      </trkpt>
      <trkpt lat="41.1906410" lon="-8.6987630">
        <ele>16.3</ele>
        <time>2021-05-16T06:33:40Z</time>
      </trkpt>
      <trkpt lat="41.1906400" lon="-8.6987840">
        <ele>16.3</ele>
        <time>2021-05-16T06:33:41Z</time>
      </trkpt>
      <trkpt lat="41.1906350" lon="-8.6988070">
        <ele>16.3</ele>
        <time>2021-05-16T06:33:42Z</time>
      </trkpt>
      <trkpt lat="41.1906310" lon="-8.6988310">
        <ele>16.3</ele>
        <time>2021-05-16T06:33:43Z</time>
      </trkpt>
      <trkpt lat="41.1906210" lon="-8.6988490">
        <ele>16.3</ele>
        <time>2021-05-16T06:33:44Z</time>
      </trkpt>
      <trkpt lat="41.1906190" lon="-8.6988710">
        <ele>16.4</ele>
        <time>2021-05-16T06:33:45Z</time>
      </trkpt>
      <trkpt lat="41.1906170" lon="-8.6988840">
        <ele>16.4</ele>
        <time>2021-05-16T06:33:46Z</time>
      </trkpt>
      <trkpt lat="41.1906050" lon="-8.6989140">
        <ele>16.4</ele>
        <time>2021-05-16T06:33:47Z</time>
      </trkpt>
      <trkpt lat="41.1905920" lon="-8.6989210">
        <ele>16.4</ele>
        <time>2021-05-16T06:33:48Z</time>
      </trkpt>
      <trkpt lat="41.1905890" lon="-8.6989350">
        <ele>16.4</ele>
        <time>2021-05-16T06:33:49Z</time>
      </trkpt>
      <trkpt lat="41.1905870" lon="-8.6989480">
        <ele>16.4</ele>
        <time>2021-05-16T06:33:50Z</time>
      </trkpt>
      <trkpt lat="41.1905840" lon="-8.6989620">
        <ele>16.4</ele>
        <time>2021-05-16T06:33:51Z</time>
      </trkpt>
      <trkpt lat="41.1905750" lon="-8.6989790">
        <ele>16.4</ele>
        <time>2021-05-16T06:33:52Z</time>
      </trkpt>
      <trkpt lat="41.1905710" lon="-8.6989950">
        <ele>16.5</ele>
        <time>2021-05-16T06:33:53Z</time>
      </trkpt>
      <trkpt lat="41.1905640" lon="-8.6989930">
        <ele>16.5</ele>
        <time>2021-05-16T06:33:54Z</time>
      </trkpt>
      <trkpt lat="41.1905670" lon="-8.6990070">
        <ele>16.5</ele>
        <time>2021-05-16T06:33:55Z</time>
      </trkpt>
      <trkpt lat="41.1905750" lon="-8.6990360">
        <ele>16.5</ele>
        <time>2021-05-16T06:33:56Z</time>
      </trkpt>
      <trkpt lat="41.1905690" lon="-8.6990580">
        <ele>16.5</ele>
        <time>2021-05-16T06:33:57Z</time>
      </trkpt>
      <trkpt lat="41.1905660" lon="-8.6990650">
        <ele>16.5</ele>
        <time>2021-05-16T06:33:58Z</time>
      </trkpt>
      <trkpt lat="41.1905620" lon="-8.6990730">
        <ele>16.5</ele>
        <time>2021-05-16T06:33:59Z</time>
      </trkpt>
      <trkpt lat="41.1905590" lon="-8.6990800">
        <ele>16.5</ele>
        <time>2021-05-16T06:34:00Z</time>
      </trkpt>
      <trkpt lat="41.1905510" lon="-8.6991070">
        <ele>16.6</ele>
        <time>2021-05-16T06:34:01Z</time>
      </trkpt>
      <trkpt lat="41.1905460" lon="-8.6991250">
        <ele>16.6</ele>
        <time>2021-05-16T06:34:02Z</time>
      </trkpt>
      <trkpt lat="41.1905430" lon="-8.6991370">
        <ele>16.6</ele>
        <time>2021-05-16T06:34:03Z</time>
      </trkpt>
      <trkpt lat="41.1905400" lon="-8.6991510">
        <ele>16.6</ele>
        <time>2021-05-16T06:34:04Z</time>
      </trkpt>
      <trkpt lat="41.1905420" lon="-8.6991670">
        <ele>16.6</ele>
        <time>2021-05-16T06:34:05Z</time>
      </trkpt>
      <trkpt lat="41.1905450" lon="-8.6991920">
        <ele>16.6</ele>
        <time>2021-05-16T06:34:06Z</time>
      </trkpt>
      <trkpt lat="41.1905440" lon="-8.6992040">
        <ele>16.6</ele>
        <time>2021-05-16T06:34:07Z</time>
      </trkpt>
      <trkpt lat="41.1905460" lon="-8.6992210">
        <ele>16.6</ele>
        <time>2021-05-16T06:34:08Z</time>
      </trkpt>
      <trkpt lat="41.1905470" lon="-8.6992350">
        <ele>16.7</ele>
        <time>2021-05-16T06:34:09Z</time>
      </trkpt>
      <trkpt lat="41.1905500" lon="-8.6992470">
        <ele>16.7</ele>
        <time>2021-05-16T06:34:10Z</time>
      </trkpt>
      <trkpt lat="41.1905570" lon="-8.6992840">
        <ele>16.7</ele>
        <time>2021-05-16T06:34:11Z</time>
      </trkpt>
      <trkpt lat="41.1905550" lon="-8.6992940">
        <ele>16.7</ele>
        <time>2021-05-16T06:34:12Z</time>
      </trkpt>
      <trkpt lat="41.1905540" lon="-8.6993030">
        <ele>16.7</ele>
        <time>2021-05-16T06:34:13Z</time>
      </trkpt>
      <trkpt lat="41.1905550" lon="-8.6993260">
        <ele>16.7</ele>
        <time>2021-05-16T06:34:14Z</time>
      </trkpt>
      <trkpt lat="41.1905430" lon="-8.6993390">
        <ele>16.7</ele>
        <time>2021-05-16T06:34:15Z</time>
      </trkpt>
      <trkpt lat="41.1905490" lon="-8.6993640">
        <ele>16.7</ele>
        <time>2021-05-16T06:34:16Z</time>
      </trkpt>
      <trkpt lat="41.1905450" lon="-8.6993780">
        <ele>16.7</ele>
        <time>2021-05-16T06:34:17Z</time>
      </trkpt>
      <trkpt lat="41.1905480" lon="-8.6994060">
        <ele>16.8</ele>
        <time>2021-05-16T06:34:18Z</time>
      </trkpt>
      <trkpt lat="41.1905490" lon="-8.6994180">
        <ele>16.8</ele>
        <time>2021-05-16T06:34:19Z</time>
      </trkpt>
      <trkpt lat="41.1905510" lon="-8.6994290">
        <ele>16.8</ele>
        <time>2021-05-16T06:34:20Z</time>
      </trkpt>
      <trkpt lat="41.1905590" lon="-8.6994560">
        <ele>16.8</ele>
        <time>2021-05-16T06:34:21Z</time>
      </trkpt>
      <trkpt lat="41.1905620" lon="-8.6994650">
        <ele>16.8</ele>
        <time>2021-05-16T06:34:22Z</time>
      </trkpt>
      <trkpt lat="41.1905650" lon="-8.6994750">
        <ele>16.8</ele>
        <time>2021-05-16T06:34:23Z</time>
      </trkpt>
      <trkpt lat="41.1905710" lon="-8.6994950">
        <ele>16.8</ele>
        <time>2021-05-16T06:34:24Z</time>
      </trkpt>
      <trkpt lat="41.1905800" lon="-8.6995060">
        <ele>16.8</ele>
        <time>2021-05-16T06:34:25Z</time>
      </trkpt>
      <trkpt lat="41.1905900" lon="-8.6995230">
        <ele>16.8</ele>
        <time>2021-05-16T06:34:26Z</time>
      </trkpt>
      <trkpt lat="41.1905930" lon="-8.6995310">
        <ele>16.8</ele>
        <time>2021-05-16T06:34:27Z</time>
      </trkpt>
      <trkpt lat="41.1905960" lon="-8.6995420">
        <ele>16.8</ele>
        <time>2021-05-16T06:34:28Z</time>
      </trkpt>
      <trkpt lat="41.1905980" lon="-8.6995640">
        <ele>16.8</ele>
        <time>2021-05-16T06:34:29Z</time>
      </trkpt>
      <trkpt lat="41.1905850" lon="-8.6995880">
        <ele>16.8</ele>
        <time>2021-05-16T06:34:30Z</time>
      </trkpt>
      <trkpt lat="41.1905800" lon="-8.6996200">
        <ele>16.8</ele>
        <time>2021-05-16T06:34:31Z</time>
      </trkpt>
      <trkpt lat="41.1905780" lon="-8.6996340">
        <ele>16.7</ele>
        <time>2021-05-16T06:34:32Z</time>
      </trkpt>
      <trkpt lat="41.1905770" lon="-8.6996480">
        <ele>16.7</ele>
        <time>2021-05-16T06:34:33Z</time>
      </trkpt>
      <trkpt lat="41.1905790" lon="-8.6996840">
        <ele>16.7</ele>
        <time>2021-05-16T06:34:34Z</time>
      </trkpt>
      <trkpt lat="41.1905810" lon="-8.6996990">
        <ele>16.7</ele>
        <time>2021-05-16T06:34:35Z</time>
      </trkpt>
      <trkpt lat="41.1905720" lon="-8.6997110">
        <ele>16.7</ele>
        <time>2021-05-16T06:34:36Z</time>
      </trkpt>
      <trkpt lat="41.1905590" lon="-8.6997320">
        <ele>16.7</ele>
        <time>2021-05-16T06:34:37Z</time>
      </trkpt>
      <trkpt lat="41.1905460" lon="-8.6997430">
        <ele>16.7</ele>
        <time>2021-05-16T06:34:38Z</time>
      </trkpt>
      <trkpt lat="41.1905340" lon="-8.6997450">
        <ele>16.7</ele>
        <time>2021-05-16T06:34:39Z</time>
      </trkpt>
      <trkpt lat="41.1905400" lon="-8.6997650">
        <ele>16.7</ele>
        <time>2021-05-16T06:34:40Z</time>
      </trkpt>
      <trkpt lat="41.1905490" lon="-8.6997830">
        <ele>16.7</ele>
        <time>2021-05-16T06:34:41Z</time>
      </trkpt>
      <trkpt lat="41.1905390" lon="-8.6998000">
        <ele>16.7</ele>
        <time>2021-05-16T06:34:42Z</time>
      </trkpt>
      <trkpt lat="41.1905530" lon="-8.6998090">
        <ele>16.7</ele>
        <time>2021-05-16T06:34:43Z</time>
      </trkpt>
      <trkpt lat="41.1905540" lon="-8.6998480">
        <ele>16.7</ele>
        <time>2021-05-16T06:34:44Z</time>
      </trkpt>
      <trkpt lat="41.1905560" lon="-8.6998630">
        <ele>16.6</ele>
        <time>2021-05-16T06:34:45Z</time>
      </trkpt>
      <trkpt lat="41.1905570" lon="-8.6998890">
        <ele>16.6</ele>
        <time>2021-05-16T06:34:46Z</time>
      </trkpt>
      <trkpt lat="41.1905560" lon="-8.6999030">
        <ele>16.6</ele>
        <time>2021-05-16T06:34:47Z</time>
      </trkpt>
      <trkpt lat="41.1905540" lon="-8.6999170">
        <ele>16.6</ele>
        <time>2021-05-16T06:34:48Z</time>
      </trkpt>
      <trkpt lat="41.1905530" lon="-8.6999310">
        <ele>16.6</ele>
        <time>2021-05-16T06:34:49Z</time>
      </trkpt>
      <trkpt lat="41.1905570" lon="-8.6999370">
        <ele>16.6</ele>
        <time>2021-05-16T06:34:50Z</time>
      </trkpt>
      <trkpt lat="41.1905540" lon="-8.6999620">
        <ele>16.6</ele>
        <time>2021-05-16T06:34:51Z</time>
      </trkpt>
      <trkpt lat="41.1905490" lon="-8.6999760">
        <ele>16.6</ele>
        <time>2021-05-16T06:34:52Z</time>
      </trkpt>
      <trkpt lat="41.1905620" lon="-8.7000000">
        <ele>16.6</ele>
        <time>2021-05-16T06:34:53Z</time>
      </trkpt>
      <trkpt lat="41.1905720" lon="-8.7000260">
        <ele>16.6</ele>
        <time>2021-05-16T06:34:54Z</time>
      </trkpt>
      <trkpt lat="41.1905780" lon="-8.7000370">
        <ele>16.6</ele>
        <time>2021-05-16T06:34:55Z</time>
      </trkpt>
      <trkpt lat="41.1905830" lon="-8.7000490">
        <ele>16.6</ele>
        <time>2021-05-16T06:34:56Z</time>
      </trkpt>
      <trkpt lat="41.1905840" lon="-8.7000670">
        <ele>16.6</ele>
        <time>2021-05-16T06:34:57Z</time>
      </trkpt>
      <trkpt lat="41.1906040" lon="-8.7000890">
        <ele>16.6</ele>
        <time>2021-05-16T06:34:58Z</time>
      </trkpt>
      <trkpt lat="41.1906120" lon="-8.7001110">
        <ele>16.6</ele>
        <time>2021-05-16T06:34:59Z</time>
      </trkpt>
      <trkpt lat="41.1906210" lon="-8.7001300">
        <ele>16.6</ele>
        <time>2021-05-16T06:35:00Z</time>
      </trkpt>
      <trkpt lat="41.1906280" lon="-8.7001490">
        <ele>16.6</ele>
        <time>2021-05-16T06:35:01Z</time>
      </trkpt>
      <trkpt lat="41.1906260" lon="-8.7001730">
        <ele>16.6</ele>
        <time>2021-05-16T06:35:02Z</time>
      </trkpt>
      <trkpt lat="41.1906220" lon="-8.7002030">
        <ele>16.6</ele>
        <time>2021-05-16T06:35:03Z</time>
      </trkpt>
      <trkpt lat="41.1906190" lon="-8.7002130">
        <ele>16.6</ele>
        <time>2021-05-16T06:35:04Z</time>
      </trkpt>
      <trkpt lat="41.1906160" lon="-8.7002230">
        <ele>16.6</ele>
        <time>2021-05-16T06:35:05Z</time>
      </trkpt>
      <trkpt lat="41.1906350" lon="-8.7002430">
        <ele>16.6</ele>
        <time>2021-05-16T06:35:06Z</time>
      </trkpt>
      <trkpt lat="41.1906320" lon="-8.7002520">
        <ele>16.6</ele>
        <time>2021-05-16T06:35:07Z</time>
      </trkpt>
      <trkpt lat="41.1906300" lon="-8.7002600">
        <ele>16.6</ele>
        <time>2021-05-16T06:35:08Z</time>
      </trkpt>
      <trkpt lat="41.1906270" lon="-8.7002690">
        <ele>16.5</ele>
        <time>2021-05-16T06:35:09Z</time>
      </trkpt>
      <trkpt lat="41.1906240" lon="-8.7002770">
        <ele>16.5</ele>
        <time>2021-05-16T06:35:10Z</time>
      </trkpt>
      <trkpt lat="41.1906150" lon="-8.7003050">
        <ele>16.5</ele>
        <time>2021-05-16T06:35:11Z</time>
      </trkpt>
      <trkpt lat="41.1906150" lon="-8.7003220">
        <ele>16.5</ele>
        <time>2021-05-16T06:35:12Z</time>
      </trkpt>
      <trkpt lat="41.1906110" lon="-8.7003610">
        <ele>16.5</ele>
        <time>2021-05-16T06:35:13Z</time>
      </trkpt>
      <trkpt lat="41.1906110" lon="-8.7003700">
        <ele>16.5</ele>
        <time>2021-05-16T06:35:14Z</time>
      </trkpt>
      <trkpt lat="41.1906030" lon="-8.7003820">
        <ele>16.5</ele>
        <time>2021-05-16T06:35:15Z</time>
      </trkpt>
      <trkpt lat="41.1905940" lon="-8.7004040">
        <ele>16.5</ele>
        <time>2021-05-16T06:35:16Z</time>
      </trkpt>
      <trkpt lat="41.1906050" lon="-8.7004380">
        <ele>16.5</ele>
        <time>2021-05-16T06:35:17Z</time>
      </trkpt>
      <trkpt lat="41.1906100" lon="-8.7004510">
        <ele>16.5</ele>
        <time>2021-05-16T06:35:18Z</time>
      </trkpt>
      <trkpt lat="41.1906050" lon="-8.7004750">
        <ele>16.5</ele>
        <time>2021-05-16T06:35:19Z</time>
      </trkpt>
      <trkpt lat="41.1906080" lon="-8.7004970">
        <ele>16.5</ele>
        <time>2021-05-16T06:35:20Z</time>
      </trkpt>
      <trkpt lat="41.1906050" lon="-8.7005150">
        <ele>16.5</ele>
        <time>2021-05-16T06:35:21Z</time>
      </trkpt>
      <trkpt lat="41.1906040" lon="-8.7005270">
        <ele>16.5</ele>
        <time>2021-05-16T06:35:22Z</time>
      </trkpt>
      <trkpt lat="41.1906000" lon="-8.7005380">
        <ele>16.5</ele>
        <time>2021-05-16T06:35:23Z</time>
      </trkpt>
      <trkpt lat="41.1906010" lon="-8.7005690">
        <ele>16.5</ele>
        <time>2021-05-16T06:35:24Z</time>
      </trkpt>
      <trkpt lat="41.1906020" lon="-8.7005810">
        <ele>16.5</ele>
        <time>2021-05-16T06:35:25Z</time>
      </trkpt>
      <trkpt lat="41.1906020" lon="-8.7005920">
        <ele>16.5</ele>
        <time>2021-05-16T06:35:26Z</time>
      </trkpt>
      <trkpt lat="41.1905990" lon="-8.7006220">
        <ele>16.5</ele>
        <time>2021-05-16T06:35:27Z</time>
      </trkpt>
      <trkpt lat="41.1905960" lon="-8.7006360">
        <ele>16.4</ele>
        <time>2021-05-16T06:35:28Z</time>
      </trkpt>
      <trkpt lat="41.1905980" lon="-8.7006700">
        <ele>16.4</ele>
        <time>2021-05-16T06:35:29Z</time>
      </trkpt>
      <trkpt lat="41.1905970" lon="-8.7006840">
        <ele>16.4</ele>
        <time>2021-05-16T06:35:30Z</time>
      </trkpt>
      <trkpt lat="41.1905970" lon="-8.7006990">
        <ele>16.4</ele>
        <time>2021-05-16T06:35:31Z</time>
      </trkpt>
      <trkpt lat="41.1905990" lon="-8.7007130">
        <ele>16.4</ele>
        <time>2021-05-16T06:35:32Z</time>
      </trkpt>
      <trkpt lat="41.1906020" lon="-8.7007430">
        <ele>16.4</ele>
        <time>2021-05-16T06:35:33Z</time>
      </trkpt>
      <trkpt lat="41.1905990" lon="-8.7007590">
        <ele>16.4</ele>
        <time>2021-05-16T06:35:34Z</time>
      </trkpt>
      <trkpt lat="41.1906030" lon="-8.7007820">
        <ele>16.4</ele>
        <time>2021-05-16T06:35:35Z</time>
      </trkpt>
      <trkpt lat="41.1906020" lon="-8.7007970">
        <ele>16.4</ele>
        <time>2021-05-16T06:35:36Z</time>
      </trkpt>
      <trkpt lat="41.1905920" lon="-8.7008190">
        <ele>16.4</ele>
        <time>2021-05-16T06:35:37Z</time>
      </trkpt>
      <trkpt lat="41.1905970" lon="-8.7008370">
        <ele>16.4</ele>
        <time>2021-05-16T06:35:38Z</time>
      </trkpt>
      <trkpt lat="41.1905930" lon="-8.7008560">
        <ele>16.4</ele>
        <time>2021-05-16T06:35:39Z</time>
      </trkpt>
      <trkpt lat="41.1905910" lon="-8.7008690">
        <ele>16.4</ele>
        <time>2021-05-16T06:35:40Z</time>
      </trkpt>
      <trkpt lat="41.1905940" lon="-8.7008970">
        <ele>16.4</ele>
        <time>2021-05-16T06:35:41Z</time>
      </trkpt>
      <trkpt lat="41.1905950" lon="-8.7009190">
        <ele>16.4</ele>
        <time>2021-05-16T06:35:42Z</time>
      </trkpt>
      <trkpt lat="41.1905850" lon="-8.7009300">
        <ele>16.4</ele>
        <time>2021-05-16T06:35:43Z</time>
      </trkpt>
      <trkpt lat="41.1905820" lon="-8.7009400">
        <ele>16.4</ele>
        <time>2021-05-16T06:35:44Z</time>
      </trkpt>
      <trkpt lat="41.1905790" lon="-8.7009440">
        <ele>16.4</ele>
        <time>2021-05-16T06:35:45Z</time>
      </trkpt>
      <trkpt lat="41.1905770" lon="-8.7009560">
        <ele>16.4</ele>
        <time>2021-05-16T06:35:46Z</time>
      </trkpt>
      <trkpt lat="41.1905760" lon="-8.7009720">
        <ele>16.4</ele>
        <time>2021-05-16T06:35:47Z</time>
      </trkpt>
      <trkpt lat="41.1905660" lon="-8.7009940">
        <ele>16.4</ele>
        <time>2021-05-16T06:35:48Z</time>
      </trkpt>
      <trkpt lat="41.1905630" lon="-8.7010070">
        <ele>16.4</ele>
        <time>2021-05-16T06:35:49Z</time>
      </trkpt>
      <trkpt lat="41.1905610" lon="-8.7010190">
        <ele>16.4</ele>
        <time>2021-05-16T06:35:50Z</time>
      </trkpt>
      <trkpt lat="41.1905540" lon="-8.7010410">
        <ele>16.4</ele>
        <time>2021-05-16T06:35:51Z</time>
      </trkpt>
      <trkpt lat="41.1905470" lon="-8.7010560">
        <ele>16.4</ele>
        <time>2021-05-16T06:35:52Z</time>
      </trkpt>
      <trkpt lat="41.1905470" lon="-8.7010550">
        <ele>16.4</ele>
        <time>2021-05-16T06:35:53Z</time>
      </trkpt>
      <trkpt lat="41.1905490" lon="-8.7010750">
        <ele>16.4</ele>
        <time>2021-05-16T06:35:54Z</time>
      </trkpt>
      <trkpt lat="41.1905440" lon="-8.7010860">
        <ele>16.4</ele>
        <time>2021-05-16T06:35:55Z</time>
      </trkpt>
      <trkpt lat="41.1905520" lon="-8.7010830">
        <ele>16.4</ele>
        <time>2021-05-16T06:35:56Z</time>
      </trkpt>
      <trkpt lat="41.1905550" lon="-8.7010990">
        <ele>16.4</ele>
        <time>2021-05-16T06:35:57Z</time>
      </trkpt>
      <trkpt lat="41.1905520" lon="-8.7011070">
        <ele>16.4</ele>
        <time>2021-05-16T06:35:58Z</time>
      </trkpt>
      <trkpt lat="41.1905540" lon="-8.7010960">
        <ele>16.4</ele>
        <time>2021-05-16T06:35:59Z</time>
      </trkpt>
      <trkpt lat="41.1905560" lon="-8.7010940">
        <ele>16.4</ele>
        <time>2021-05-16T06:36:00Z</time>
      </trkpt>
      <trkpt lat="41.1905600" lon="-8.7010940">
        <ele>16.4</ele>
        <time>2021-05-16T06:36:01Z</time>
      </trkpt>
      <trkpt lat="41.1905550" lon="-8.7010940">
        <ele>16.4</ele>
        <time>2021-05-16T06:36:02Z</time>
      </trkpt>
      <trkpt lat="41.1905470" lon="-8.7010980">
        <ele>16.4</ele>
        <time>2021-05-16T06:36:03Z</time>
      </trkpt>
      <trkpt lat="41.1905490" lon="-8.7010980">
        <ele>16.4</ele>
        <time>2021-05-16T06:36:04Z</time>
      </trkpt>
      <trkpt lat="41.1905580" lon="-8.7011030">
        <ele>16.4</ele>
        <time>2021-05-16T06:36:05Z</time>
      </trkpt>
      <trkpt lat="41.1905500" lon="-8.7011030">
        <ele>16.4</ele>
        <time>2021-05-16T06:36:06Z</time>
      </trkpt>
      <trkpt lat="41.1905440" lon="-8.7011030">
        <ele>16.4</ele>
        <time>2021-05-16T06:36:07Z</time>
      </trkpt>
      <trkpt lat="41.1905410" lon="-8.7011060">
        <ele>16.4</ele>
        <time>2021-05-16T06:36:08Z</time>
      </trkpt>
      <trkpt lat="41.1905470" lon="-8.7011100">
        <ele>16.4</ele>
        <time>2021-05-16T06:36:09Z</time>
      </trkpt>
      <trkpt lat="41.1905410" lon="-8.7011080">
        <ele>16.4</ele>
        <time>2021-05-16T06:36:10Z</time>
      </trkpt>
      <trkpt lat="41.1905450" lon="-8.7011120">
        <ele>16.4</ele>
        <time>2021-05-16T06:36:11Z</time>
      </trkpt>
      <trkpt lat="41.1905420" lon="-8.7011150">
        <ele>16.4</ele>
        <time>2021-05-16T06:36:12Z</time>
      </trkpt>
      <trkpt lat="41.1905530" lon="-8.7011180">
        <ele>16.4</ele>
        <time>2021-05-16T06:36:13Z</time>
      </trkpt>
      <trkpt lat="41.1905560" lon="-8.7011180">
        <ele>16.4</ele>
        <time>2021-05-16T06:36:14Z</time>
      </trkpt>
      <trkpt lat="41.1905530" lon="-8.7011170">
        <ele>16.4</ele>
        <time>2021-05-16T06:36:15Z</time>
      </trkpt>
      <trkpt lat="41.1905600" lon="-8.7011170">
        <ele>16.4</ele>
        <time>2021-05-16T06:36:16Z</time>
      </trkpt>
      <trkpt lat="41.1905600" lon="-8.7011160">
        <ele>16.4</ele>
        <time>2021-05-16T06:36:17Z</time>
      </trkpt>
      <trkpt lat="41.1905580" lon="-8.7011160">
        <ele>16.4</ele>
        <time>2021-05-16T06:36:18Z</time>
      </trkpt>
      <trkpt lat="41.1905630" lon="-8.7011180">
        <ele>16.4</ele>
        <time>2021-05-16T06:36:19Z</time>
      </trkpt>
      <trkpt lat="41.1905640" lon="-8.7011180">
        <ele>16.4</ele>
        <time>2021-05-16T06:36:20Z</time>
      </trkpt>
      <trkpt lat="41.1905710" lon="-8.7011210">
        <ele>16.4</ele>
        <time>2021-05-16T06:36:21Z</time>
      </trkpt>
      <trkpt lat="41.1905760" lon="-8.7011270">
        <ele>16.4</ele>
        <time>2021-05-16T06:36:22Z</time>
      </trkpt>
      <trkpt lat="41.1905770" lon="-8.7011300">
        <ele>16.4</ele>
        <time>2021-05-16T06:36:23Z</time>
      </trkpt>
      <trkpt lat="41.1905740" lon="-8.7011290">
        <ele>16.4</ele>
        <time>2021-05-16T06:36:24Z</time>
      </trkpt>
      <trkpt lat="41.1905690" lon="-8.7011320">
        <ele>16.4</ele>
        <time>2021-05-16T06:36:25Z</time>
      </trkpt>
      <trkpt lat="41.1905650" lon="-8.7011370">
        <ele>16.4</ele>
        <time>2021-05-16T06:36:26Z</time>
      </trkpt>
      <trkpt lat="41.1905570" lon="-8.7011340">
        <ele>16.4</ele>
        <time>2021-05-16T06:36:27Z</time>
      </trkpt>
      <trkpt lat="41.1905580" lon="-8.7011290">
        <ele>16.4</ele>
        <time>2021-05-16T06:36:28Z</time>
      </trkpt>
      <trkpt lat="41.1905640" lon="-8.7011260">
        <ele>16.4</ele>
        <time>2021-05-16T06:36:29Z</time>
      </trkpt>
      <trkpt lat="41.1905570" lon="-8.7011340">
        <ele>16.4</ele>
        <time>2021-05-16T06:36:30Z</time>
      </trkpt>
      <trkpt lat="41.1905550" lon="-8.7011360">
        <ele>16.4</ele>
        <time>2021-05-16T06:36:31Z</time>
      </trkpt>
      <trkpt lat="41.1905550" lon="-8.7011350">
        <ele>16.4</ele>
        <time>2021-05-16T06:36:32Z</time>
      </trkpt>
      <trkpt lat="41.1905590" lon="-8.7011360">
        <ele>16.4</ele>
        <time>2021-05-16T06:36:33Z</time>
      </trkpt>
      <trkpt lat="41.1905640" lon="-8.7011360">
        <ele>16.4</ele>
        <time>2021-05-16T06:36:34Z</time>
      </trkpt>
      <trkpt lat="41.1905690" lon="-8.7011370">
        <ele>16.4</ele>
        <time>2021-05-16T06:36:35Z</time>
      </trkpt>
      <trkpt lat="41.1905730" lon="-8.7011370">
        <ele>16.4</ele>
        <time>2021-05-16T06:36:36Z</time>
      </trkpt>
      <trkpt lat="41.1905780" lon="-8.7011370">
        <ele>16.4</ele>
        <time>2021-05-16T06:36:37Z</time>
      </trkpt>
      <trkpt lat="41.1905830" lon="-8.7011380">
        <ele>16.4</ele>
        <time>2021-05-16T06:36:38Z</time>
      </trkpt>
      <trkpt lat="41.1905870" lon="-8.7011380">
        <ele>16.4</ele>
        <time>2021-05-16T06:36:39Z</time>
      </trkpt>
      <trkpt lat="41.1905920" lon="-8.7011390">
        <ele>16.4</ele>
        <time>2021-05-16T06:36:40Z</time>
      </trkpt>
      <trkpt lat="41.1905970" lon="-8.7011390">
        <ele>16.4</ele>
        <time>2021-05-16T06:36:41Z</time>
      </trkpt>
      <trkpt lat="41.1906010" lon="-8.7011400">
        <ele>16.4</ele>
        <time>2021-05-16T06:36:42Z</time>
      </trkpt>
      <trkpt lat="41.1906060" lon="-8.7011400">
        <ele>16.4</ele>
        <time>2021-05-16T06:36:43Z</time>
      </trkpt>
      <trkpt lat="41.1906210" lon="-8.7011390">
        <ele>16.4</ele>
        <time>2021-05-16T06:36:44Z</time>
      </trkpt>
      <trkpt lat="41.1906240" lon="-8.7011350">
        <ele>16.4</ele>
        <time>2021-05-16T06:36:45Z</time>
      </trkpt>
      <trkpt lat="41.1906300" lon="-8.7011300">
        <ele>16.4</ele>
        <time>2021-05-16T06:36:46Z</time>
      </trkpt>
      <trkpt lat="41.1906320" lon="-8.7011270">
        <ele>16.4</ele>
        <time>2021-05-16T06:36:47Z</time>
      </trkpt>
      <trkpt lat="41.1906340" lon="-8.7011150">
        <ele>16.4</ele>
        <time>2021-05-16T06:36:48Z</time>
      </trkpt>
      <trkpt lat="41.1906420" lon="-8.7011180">
        <ele>16.4</ele>
        <time>2021-05-16T06:36:49Z</time>
      </trkpt>
      <trkpt lat="41.1906470" lon="-8.7011210">
        <ele>16.4</ele>
        <time>2021-05-16T06:36:50Z</time>
      </trkpt>
      <trkpt lat="41.1906460" lon="-8.7011190">
        <ele>16.4</ele>
        <time>2021-05-16T06:36:51Z</time>
      </trkpt>
      <trkpt lat="41.1906450" lon="-8.7011200">
        <ele>16.4</ele>
        <time>2021-05-16T06:36:52Z</time>
      </trkpt>
      <trkpt lat="41.1906380" lon="-8.7011210">
        <ele>16.4</ele>
        <time>2021-05-16T06:36:53Z</time>
      </trkpt>
      <trkpt lat="41.1906360" lon="-8.7011190">
        <ele>16.4</ele>
        <time>2021-05-16T06:36:54Z</time>
      </trkpt>
      <trkpt lat="41.1906340" lon="-8.7011120">
        <ele>16.4</ele>
        <time>2021-05-16T06:36:55Z</time>
      </trkpt>
      <trkpt lat="41.1906230" lon="-8.7010840">
        <ele>16.4</ele>
        <time>2021-05-16T06:36:56Z</time>
      </trkpt>
      <trkpt lat="41.1906150" lon="-8.7010540">
        <ele>16.4</ele>
        <time>2021-05-16T06:36:57Z</time>
      </trkpt>
      <trkpt lat="41.1906010" lon="-8.7010310">
        <ele>16.4</ele>
        <time>2021-05-16T06:36:58Z</time>
      </trkpt>
      <trkpt lat="41.1905860" lon="-8.7010070">
        <ele>16.4</ele>
        <time>2021-05-16T06:36:59Z</time>
      </trkpt>
      <trkpt lat="41.1905770" lon="-8.7010320">
        <ele>16.4</ele>
        <time>2021-05-16T06:37:00Z</time>
      </trkpt>
      <trkpt lat="41.1905770" lon="-8.7010370">
        <ele>16.4</ele>
        <time>2021-05-16T06:37:01Z</time>
      </trkpt>
      <trkpt lat="41.1905780" lon="-8.7010410">
        <ele>16.4</ele>
        <time>2021-05-16T06:37:02Z</time>
      </trkpt>
      <trkpt lat="41.1905780" lon="-8.7010460">
        <ele>16.4</ele>
        <time>2021-05-16T06:37:03Z</time>
      </trkpt>
      <trkpt lat="41.1905790" lon="-8.7010500">
        <ele>16.4</ele>
        <time>2021-05-16T06:37:04Z</time>
      </trkpt>
      <trkpt lat="41.1905800" lon="-8.7010540">
        <ele>16.4</ele>
        <time>2021-05-16T06:37:05Z</time>
      </trkpt>
      <trkpt lat="41.1905800" lon="-8.7010590">
        <ele>16.4</ele>
        <time>2021-05-16T06:37:06Z</time>
      </trkpt>
      <trkpt lat="41.1905810" lon="-8.7010630">
        <ele>16.4</ele>
        <time>2021-05-16T06:37:07Z</time>
      </trkpt>
      <trkpt lat="41.1905810" lon="-8.7010680">
        <ele>16.4</ele>
        <time>2021-05-16T06:37:08Z</time>
      </trkpt>
      <trkpt lat="41.1905820" lon="-8.7010720">
        <ele>16.4</ele>
        <time>2021-05-16T06:37:09Z</time>
      </trkpt>
      <trkpt lat="41.1905830" lon="-8.7010760">
        <ele>16.4</ele>
        <time>2021-05-16T06:37:10Z</time>
      </trkpt>
      <trkpt lat="41.1905830" lon="-8.7010810">
        <ele>16.4</ele>
        <time>2021-05-16T06:37:11Z</time>
      </trkpt>
      <trkpt lat="41.1905840" lon="-8.7010850">
        <ele>16.4</ele>
        <time>2021-05-16T06:37:12Z</time>
      </trkpt>
      <trkpt lat="41.1905840" lon="-8.7010900">
        <ele>16.4</ele>
        <time>2021-05-16T06:37:13Z</time>
      </trkpt>
      <trkpt lat="41.1905850" lon="-8.7010940">
        <ele>16.4</ele>
        <time>2021-05-16T06:37:14Z</time>
      </trkpt>
      <trkpt lat="41.1905780" lon="-8.7010910">
        <ele>16.4</ele>
        <time>2021-05-16T06:37:15Z</time>
      </trkpt>
      <trkpt lat="41.1905740" lon="-8.7010940">
        <ele>16.4</ele>
        <time>2021-05-16T06:37:16Z</time>
      </trkpt>
      <trkpt lat="41.1905690" lon="-8.7010970">
        <ele>16.4</ele>
        <time>2021-05-16T06:37:17Z</time>
      </trkpt>
      <trkpt lat="41.1905640" lon="-8.7011010">
        <ele>16.4</ele>
        <time>2021-05-16T06:37:18Z</time>
      </trkpt>
      <trkpt lat="41.1905590" lon="-8.7011040">
        <ele>16.4</ele>
        <time>2021-05-16T06:37:19Z</time>
      </trkpt>
      <trkpt lat="41.1905550" lon="-8.7011070">
        <ele>16.4</ele>
        <time>2021-05-16T06:37:20Z</time>
      </trkpt>
      <trkpt lat="41.1905500" lon="-8.7011100">
        <ele>16.4</ele>
        <time>2021-05-16T06:37:21Z</time>
      </trkpt>
      <trkpt lat="41.1905450" lon="-8.7011130">
        <ele>16.4</ele>
        <time>2021-05-16T06:37:22Z</time>
      </trkpt>
      <trkpt lat="41.1905680" lon="-8.7011260">
        <ele>16.4</ele>
        <time>2021-05-16T06:37:23Z</time>
      </trkpt>
      <trkpt lat="41.1905980" lon="-8.7011340">
        <ele>16.4</ele>
        <time>2021-05-16T06:37:24Z</time>
      </trkpt>
      <trkpt lat="41.1906280" lon="-8.7011420">
        <ele>16.4</ele>
        <time>2021-05-16T06:37:32Z</time>
      </trkpt>
      <trkpt lat="41.1906580" lon="-8.7011500">
        <ele>16.4</ele>
        <time>2021-05-16T06:37:33Z</time>
      </trkpt>
      <trkpt lat="41.1906880" lon="-8.7011580">
        <ele>16.4</ele>
        <time>2021-05-16T06:37:34Z</time>
      </trkpt>
      <trkpt lat="41.1907180" lon="-8.7011660">
        <ele>16.4</ele>
        <time>2021-05-16T06:37:35Z</time>
      </trkpt>
      <trkpt lat="41.1906870" lon="-8.7011730">
        <ele>16.4</ele>
        <time>2021-05-16T06:37:36Z</time>
      </trkpt>
      <trkpt lat="41.1906740" lon="-8.7011730">
        <ele>16.4</ele>
        <time>2021-05-16T06:37:37Z</time>
      </trkpt>
      <trkpt lat="41.1907150" lon="-8.7011590">
        <ele>16.4</ele>
        <time>2021-05-16T06:37:38Z</time>
      </trkpt>
      <trkpt lat="41.1907300" lon="-8.7011480">
        <ele>16.4</ele>
        <time>2021-05-16T06:37:39Z</time>
      </trkpt>
      <trkpt lat="41.1907460" lon="-8.7011120">
        <ele>16.4</ele>
        <time>2021-05-16T06:37:40Z</time>
      </trkpt>
      <trkpt lat="41.1907540" lon="-8.7011020">
        <ele>16.4</ele>
        <time>2021-05-16T06:37:41Z</time>
      </trkpt>
      <trkpt lat="41.1907630" lon="-8.7010750">
        <ele>16.4</ele>
        <time>2021-05-16T06:37:42Z</time>
      </trkpt>
      <trkpt lat="41.1907740" lon="-8.7010470">
        <ele>16.4</ele>
        <time>2021-05-16T06:37:43Z</time>
      </trkpt>
      <trkpt lat="41.1907850" lon="-8.7010190">
        <ele>16.4</ele>
        <time>2021-05-16T06:37:44Z</time>
      </trkpt>
      <trkpt lat="41.1908080" lon="-8.7009900">
        <ele>16.4</ele>
        <time>2021-05-16T06:37:45Z</time>
      </trkpt>
      <trkpt lat="41.1906290" lon="-8.7009880">
        <ele>16.4</ele>
        <time>2021-05-16T06:37:46Z</time>
      </trkpt>
      <trkpt lat="41.1906170" lon="-8.7009910">
        <ele>16.4</ele>
        <time>2021-05-16T06:37:47Z</time>
      </trkpt>
      <trkpt lat="41.1906130" lon="-8.7009920">
        <ele>16.4</ele>
        <time>2021-05-16T06:37:48Z</time>
      </trkpt>
      <trkpt lat="41.1905930" lon="-8.7010040">
        <ele>16.4</ele>
        <time>2021-05-16T06:37:49Z</time>
      </trkpt>
      <trkpt lat="41.1905950" lon="-8.7010080">
        <ele>16.4</ele>
        <time>2021-05-16T06:37:50Z</time>
      </trkpt>
      <trkpt lat="41.1905980" lon="-8.7010050">
        <ele>16.4</ele>
        <time>2021-05-16T06:37:51Z</time>
      </trkpt>
      <trkpt lat="41.1905970" lon="-8.7010080">
        <ele>16.4</ele>
        <time>2021-05-16T06:37:52Z</time>
      </trkpt>
      <trkpt lat="41.1905960" lon="-8.7010040">
        <ele>16.4</ele>
        <time>2021-05-16T06:37:53Z</time>
      </trkpt>
      <trkpt lat="41.1905920" lon="-8.7010070">
        <ele>16.4</ele>
        <time>2021-05-16T06:37:54Z</time>
      </trkpt>
      <trkpt lat="41.1905860" lon="-8.7010130">
        <ele>16.4</ele>
        <time>2021-05-16T06:37:55Z</time>
      </trkpt>
      <trkpt lat="41.1905860" lon="-8.7010090">
        <ele>16.4</ele>
        <time>2021-05-16T06:37:56Z</time>
      </trkpt>
      <trkpt lat="41.1905860" lon="-8.7010090">
        <ele>16.4</ele>
        <time>2021-05-16T06:37:57Z</time>
      </trkpt>
      <trkpt lat="41.1905860" lon="-8.7010090">
        <ele>16.4</ele>
        <time>2021-05-16T06:37:58Z</time>
      </trkpt>
      <trkpt lat="41.1905860" lon="-8.7010090">
        <ele>16.4</ele>
        <time>2021-05-16T06:37:59Z</time>
      </trkpt>
      <trkpt lat="41.1905860" lon="-8.7010090">
        <ele>16.4</ele>
        <time>2021-05-16T06:38:00Z</time>
      </trkpt>
      <trkpt lat="41.1905860" lon="-8.7010090">
        <ele>16.4</ele>
        <time>2021-05-16T06:38:01Z</time>
      </trkpt>
      <trkpt lat="41.1905860" lon="-8.7010090">
        <ele>16.4</ele>
        <time>2021-05-16T06:38:02Z</time>
      </trkpt>
      <trkpt lat="41.1905860" lon="-8.7010090">
        <ele>16.4</ele>
        <time>2021-05-16T06:38:03Z</time>
      </trkpt>
      <trkpt lat="41.1905860" lon="-8.7010090">
        <ele>16.4</ele>
        <time>2021-05-16T06:38:04Z</time>
      </trkpt>
      <trkpt lat="41.1905860" lon="-8.7010090">
        <ele>16.4</ele>
        <time>2021-05-16T06:38:05Z</time>
      </trkpt>
      <trkpt lat="41.1905860" lon="-8.7010090">
        <ele>16.4</ele>
        <time>2021-05-16T06:38:06Z</time>
      </trkpt>
      <trkpt lat="41.1905860" lon="-8.7010090">
        <ele>16.4</ele>
        <time>2021-05-16T06:38:07Z</time>
      </trkpt>
      <trkpt lat="41.1905860" lon="-8.7010090">
        <ele>16.4</ele>
        <time>2021-05-16T06:38:08Z</time>
      </trkpt>
      <trkpt lat="41.1905860" lon="-8.7010090">
        <ele>16.4</ele>
        <time>2021-05-16T06:38:09Z</time>
      </trkpt>
      <trkpt lat="41.1905860" lon="-8.7010090">
        <ele>16.4</ele>
        <time>2021-05-16T06:38:10Z</time>
      </trkpt>
      <trkpt lat="41.1905860" lon="-8.7010090">
        <ele>16.4</ele>
        <time>2021-05-16T06:38:11Z</time>
      </trkpt>
      <trkpt lat="41.1905860" lon="-8.7010090">
        <ele>16.4</ele>
        <time>2021-05-16T06:38:12Z</time>
      </trkpt>
      <trkpt lat="41.1905860" lon="-8.7010090">
        <ele>16.4</ele>
        <time>2021-05-16T06:38:13Z</time>
      </trkpt>
      <trkpt lat="41.1905860" lon="-8.7010090">
        <ele>16.4</ele>
        <time>2021-05-16T06:38:14Z</time>
      </trkpt>
      <trkpt lat="41.1905860" lon="-8.7010090">
        <ele>16.4</ele>
        <time>2021-05-16T06:38:15Z</time>
      </trkpt>
      <trkpt lat="41.1905860" lon="-8.7010090">
        <ele>16.4</ele>
        <time>2021-05-16T06:38:16Z</time>
      </trkpt>
      <trkpt lat="41.1905860" lon="-8.7010090">
        <ele>16.4</ele>
        <time>2021-05-16T06:38:17Z</time>
      </trkpt>
      <trkpt lat="41.1905860" lon="-8.7010090">
        <ele>16.4</ele>
        <time>2021-05-16T06:38:18Z</time>
      </trkpt>
      <trkpt lat="41.1905860" lon="-8.7010090">
        <ele>16.4</ele>
        <time>2021-05-16T06:38:19Z</time>
      </trkpt>
      <trkpt lat="41.1905860" lon="-8.7010090">
        <ele>16.4</ele>
        <time>2021-05-16T06:38:20Z</time>
      </trkpt>
      <trkpt lat="41.1905860" lon="-8.7010090">
        <ele>16.4</ele>
        <time>2021-05-16T06:38:21Z</time>
      </trkpt>
      <trkpt lat="41.1905860" lon="-8.7010090">
        <ele>16.4</ele>
        <time>2021-05-16T06:38:22Z</time>
      </trkpt>
      <trkpt lat="41.1905860" lon="-8.7010090">
        <ele>16.4</ele>
        <time>2021-05-16T06:38:23Z</time>
      </trkpt>
      <trkpt lat="41.1905860" lon="-8.7010090">
        <ele>16.4</ele>
        <time>2021-05-16T06:38:24Z</time>
      </trkpt>
      <trkpt lat="41.1905860" lon="-8.7010090">
        <ele>16.4</ele>
        <time>2021-05-16T06:38:25Z</time>
      </trkpt>
      <trkpt lat="41.1905860" lon="-8.7010090">
        <ele>16.4</ele>
        <time>2021-05-16T06:38:26Z</time>
      </trkpt>
      <trkpt lat="41.1905860" lon="-8.7010090">
        <ele>16.4</ele>
        <time>2021-05-16T06:38:27Z</time>
      </trkpt>
      <trkpt lat="41.1905860" lon="-8.7010090">
        <ele>16.4</ele>
        <time>2021-05-16T06:38:28Z</time>
      </trkpt>
      <trkpt lat="41.1905860" lon="-8.7010090">
        <ele>16.4</ele>
        <time>2021-05-16T06:38:29Z</time>
      </trkpt>
      <trkpt lat="41.1905770" lon="-8.7009930">
        <ele>16.4</ele>
        <time>2021-05-16T06:38:30Z</time>
      </trkpt>
      <trkpt lat="41.1905770" lon="-8.7009930">
        <ele>16.4</ele>
        <time>2021-05-16T06:38:31Z</time>
      </trkpt>
      <trkpt lat="41.1905770" lon="-8.7009930">
        <ele>16.4</ele>
        <time>2021-05-16T06:38:32Z</time>
      </trkpt>
      <trkpt lat="41.1905760" lon="-8.7009920">
        <ele>16.4</ele>
        <time>2021-05-16T06:38:33Z</time>
      </trkpt>
      <trkpt lat="41.1905750" lon="-8.7009920">
        <ele>16.4</ele>
        <time>2021-05-16T06:38:34Z</time>
      </trkpt>
      <trkpt lat="41.1905750" lon="-8.7009910">
        <ele>16.4</ele>
        <time>2021-05-16T06:38:35Z</time>
      </trkpt>
      <trkpt lat="41.1905750" lon="-8.7009910">
        <ele>16.4</ele>
        <time>2021-05-16T06:38:36Z</time>
      </trkpt>
      <trkpt lat="41.1905750" lon="-8.7009910">
        <ele>16.4</ele>
        <time>2021-05-16T06:38:37Z</time>
      </trkpt>
      <trkpt lat="41.1905750" lon="-8.7009910">
        <ele>16.4</ele>
        <time>2021-05-16T06:38:38Z</time>
      </trkpt>
      <trkpt lat="41.1905750" lon="-8.7009910">
        <ele>16.4</ele>
        <time>2021-05-16T06:38:39Z</time>
      </trkpt>
      <trkpt lat="41.1905750" lon="-8.7009910">
        <ele>16.4</ele>
        <time>2021-05-16T06:38:40Z</time>
      </trkpt>
      <trkpt lat="41.1905750" lon="-8.7009910">
        <ele>16.4</ele>
        <time>2021-05-16T06:38:41Z</time>
      </trkpt>
      <trkpt lat="41.1905750" lon="-8.7009910">
        <ele>16.4</ele>
        <time>2021-05-16T06:38:42Z</time>
      </trkpt>
      <trkpt lat="41.1905750" lon="-8.7009910">
        <ele>16.4</ele>
        <time>2021-05-16T06:38:43Z</time>
      </trkpt>
      <trkpt lat="41.1905760" lon="-8.7009930">
        <ele>16.4</ele>
        <time>2021-05-16T06:38:44Z</time>
      </trkpt>
      <trkpt lat="41.1905760" lon="-8.7009930">
        <ele>16.4</ele>
        <time>2021-05-16T06:38:45Z</time>
      </trkpt>
      <trkpt lat="41.1905750" lon="-8.7009940">
        <ele>16.4</ele>
        <time>2021-05-16T06:38:46Z</time>
      </trkpt>
      <trkpt lat="41.1905750" lon="-8.7009950">
        <ele>16.4</ele>
        <time>2021-05-16T06:38:47Z</time>
      </trkpt>
      <trkpt lat="41.1905750" lon="-8.7009950">
        <ele>16.4</ele>
        <time>2021-05-16T06:38:48Z</time>
      </trkpt>
      <trkpt lat="41.1905750" lon="-8.7009950">
        <ele>16.4</ele>
        <time>2021-05-16T06:38:49Z</time>
      </trkpt>
      <trkpt lat="41.1905750" lon="-8.7009950">
        <ele>16.4</ele>
        <time>2021-05-16T06:38:50Z</time>
      </trkpt>
      <trkpt lat="41.1905750" lon="-8.7009950">
        <ele>16.4</ele>
        <time>2021-05-16T06:38:51Z</time>
      </trkpt>
      <trkpt lat="41.1905750" lon="-8.7009950">
        <ele>16.4</ele>
        <time>2021-05-16T06:38:52Z</time>
      </trkpt>
      <trkpt lat="41.1905750" lon="-8.7009950">
        <ele>16.4</ele>
        <time>2021-05-16T06:38:53Z</time>
      </trkpt>
      <trkpt lat="41.1905750" lon="-8.7009950">
        <ele>16.4</ele>
        <time>2021-05-16T06:38:54Z</time>
      </trkpt>
      <trkpt lat="41.1905790" lon="-8.7010270">
        <ele>16.4</ele>
        <time>2021-05-16T06:38:55Z</time>
      </trkpt>
      <trkpt lat="41.1905790" lon="-8.7010420">
        <ele>16.4</ele>
        <time>2021-05-16T06:38:56Z</time>
      </trkpt>
      <trkpt lat="41.1905740" lon="-8.7010520">
        <ele>16.4</ele>
        <time>2021-05-16T06:38:57Z</time>
      </trkpt>
      <trkpt lat="41.1905720" lon="-8.7010460">
        <ele>16.4</ele>
        <time>2021-05-16T06:38:58Z</time>
      </trkpt>
      <trkpt lat="41.1905700" lon="-8.7010390">
        <ele>16.4</ele>
        <time>2021-05-16T06:38:59Z</time>
      </trkpt>
      <trkpt lat="41.1905680" lon="-8.7010320">
        <ele>16.4</ele>
        <time>2021-05-16T06:39:00Z</time>
      </trkpt>
      <trkpt lat="41.1905660" lon="-8.7010260">
        <ele>16.4</ele>
        <time>2021-05-16T06:39:01Z</time>
      </trkpt>
      <trkpt lat="41.1905640" lon="-8.7010190">
        <ele>16.4</ele>
        <time>2021-05-16T06:39:02Z</time>
      </trkpt>
      <trkpt lat="41.1905620" lon="-8.7010120">
        <ele>16.4</ele>
        <time>2021-05-16T06:39:03Z</time>
      </trkpt>
      <trkpt lat="41.1905600" lon="-8.7010060">
        <ele>16.4</ele>
        <time>2021-05-16T06:39:04Z</time>
      </trkpt>
      <trkpt lat="41.1905580" lon="-8.7009990">
        <ele>16.4</ele>
        <time>2021-05-16T06:39:05Z</time>
      </trkpt>
      <trkpt lat="41.1905570" lon="-8.7010090">
        <ele>16.4</ele>
        <time>2021-05-16T06:39:06Z</time>
      </trkpt>
      <trkpt lat="41.1905600" lon="-8.7010130">
        <ele>16.4</ele>
        <time>2021-05-16T06:39:07Z</time>
      </trkpt>
      <trkpt lat="41.1905600" lon="-8.7010130">
        <ele>16.4</ele>
        <time>2021-05-16T06:39:08Z</time>
      </trkpt>
      <trkpt lat="41.1905600" lon="-8.7010130">
        <ele>16.4</ele>
        <time>2021-05-16T06:39:09Z</time>
      </trkpt>
      <trkpt lat="41.1905600" lon="-8.7010130">
        <ele>16.4</ele>
        <time>2021-05-16T06:39:10Z</time>
      </trkpt>
      <trkpt lat="41.1905600" lon="-8.7010130">
        <ele>16.4</ele>
        <time>2021-05-16T06:39:11Z</time>
      </trkpt>
      <trkpt lat="41.1905600" lon="-8.7010130">
        <ele>16.4</ele>
        <time>2021-05-16T06:39:12Z</time>
      </trkpt>
      <trkpt lat="41.1905600" lon="-8.7010130">
        <ele>16.4</ele>
        <time>2021-05-16T06:39:13Z</time>
      </trkpt>
      <trkpt lat="41.1905570" lon="-8.7010440">
        <ele>16.4</ele>
        <time>2021-05-16T06:39:14Z</time>
      </trkpt>
      <trkpt lat="41.1905580" lon="-8.7010650">
        <ele>16.4</ele>
        <time>2021-05-16T06:39:15Z</time>
      </trkpt>
      <trkpt lat="41.1905580" lon="-8.7010760">
        <ele>16.4</ele>
        <time>2021-05-16T06:39:16Z</time>
      </trkpt>
      <trkpt lat="41.1905580" lon="-8.7010860">
        <ele>16.4</ele>
        <time>2021-05-16T06:39:17Z</time>
      </trkpt>
      <trkpt lat="41.1905580" lon="-8.7010970">
        <ele>16.4</ele>
        <time>2021-05-16T06:39:18Z</time>
      </trkpt>
      <trkpt lat="41.1905580" lon="-8.7011080">
        <ele>16.4</ele>
        <time>2021-05-16T06:39:19Z</time>
      </trkpt>
      <trkpt lat="41.1905580" lon="-8.7011190">
        <ele>16.4</ele>
        <time>2021-05-16T06:39:20Z</time>
      </trkpt>
      <trkpt lat="41.1905580" lon="-8.7011300">
        <ele>16.4</ele>
        <time>2021-05-16T06:39:21Z</time>
      </trkpt>
      <trkpt lat="41.1905590" lon="-8.7011400">
        <ele>16.4</ele>
        <time>2021-05-16T06:39:22Z</time>
      </trkpt>
      <trkpt lat="41.1905590" lon="-8.7011510">
        <ele>16.4</ele>
        <time>2021-05-16T06:39:23Z</time>
      </trkpt>
      <trkpt lat="41.1905590" lon="-8.7011620">
        <ele>16.4</ele>
        <time>2021-05-16T06:39:24Z</time>
      </trkpt>
      <trkpt lat="41.1905590" lon="-8.7011730">
        <ele>16.4</ele>
        <time>2021-05-16T06:39:25Z</time>
      </trkpt>
      <trkpt lat="41.1905590" lon="-8.7011840">
        <ele>16.4</ele>
        <time>2021-05-16T06:39:26Z</time>
      </trkpt>
      <trkpt lat="41.1905590" lon="-8.7011940">
        <ele>16.4</ele>
        <time>2021-05-16T06:39:27Z</time>
      </trkpt>
      <trkpt lat="41.1905590" lon="-8.7012050">
        <ele>16.4</ele>
        <time>2021-05-16T06:39:28Z</time>
      </trkpt>
      <trkpt lat="41.1905590" lon="-8.7012160">
        <ele>16.4</ele>
        <time>2021-05-16T06:39:29Z</time>
      </trkpt>
      <trkpt lat="41.1905540" lon="-8.7011860">
        <ele>16.4</ele>
        <time>2021-05-16T06:39:30Z</time>
      </trkpt>
      <trkpt lat="41.1905500" lon="-8.7011720">
        <ele>16.4</ele>
        <time>2021-05-16T06:39:31Z</time>
      </trkpt>
      <trkpt lat="41.1905500" lon="-8.7011560">
        <ele>16.4</ele>
        <time>2021-05-16T06:39:32Z</time>
      </trkpt>
      <trkpt lat="41.1905500" lon="-8.7011560">
        <ele>16.4</ele>
        <time>2021-05-16T06:39:33Z</time>
      </trkpt>
      <trkpt lat="41.1905500" lon="-8.7011560">
        <ele>16.4</ele>
        <time>2021-05-16T06:39:34Z</time>
      </trkpt>
      <trkpt lat="41.1905500" lon="-8.7011560">
        <ele>16.4</ele>
        <time>2021-05-16T06:39:35Z</time>
      </trkpt>
      <trkpt lat="41.1905460" lon="-8.7011330">
        <ele>16.4</ele>
        <time>2021-05-16T06:39:36Z</time>
      </trkpt>
      <trkpt lat="41.1905460" lon="-8.7011330">
        <ele>16.4</ele>
        <time>2021-05-16T06:39:37Z</time>
      </trkpt>
      <trkpt lat="41.1905440" lon="-8.7011240">
        <ele>16.4</ele>
        <time>2021-05-16T06:39:38Z</time>
      </trkpt>
      <trkpt lat="41.1905440" lon="-8.7011240">
        <ele>16.4</ele>
        <time>2021-05-16T06:39:39Z</time>
      </trkpt>
      <trkpt lat="41.1905810" lon="-8.7011270">
        <ele>16.4</ele>
        <time>2021-05-16T06:39:40Z</time>
      </trkpt>
      <trkpt lat="41.1905820" lon="-8.7011270">
        <ele>16.4</ele>
        <time>2021-05-16T06:39:41Z</time>
      </trkpt>
      <trkpt lat="41.1905770" lon="-8.7011220">
        <ele>16.4</ele>
        <time>2021-05-16T06:39:52Z</time>
      </trkpt>
      <trkpt lat="41.1905770" lon="-8.7011220">
        <ele>16.4</ele>
        <time>2021-05-16T06:39:53Z</time>
      </trkpt>
      <trkpt lat="41.1905770" lon="-8.7011220">
        <ele>16.4</ele>
        <time>2021-05-16T06:39:54Z</time>
      </trkpt>
      <trkpt lat="41.1905760" lon="-8.7010630">
        <ele>16.4</ele>
        <time>2021-05-16T06:39:55Z</time>
      </trkpt>
      <trkpt lat="41.1905760" lon="-8.7010040">
        <ele>16.4</ele>
        <time>2021-05-16T06:39:56Z</time>
      </trkpt>
      <trkpt lat="41.1905750" lon="-8.7009450">
        <ele>16.4</ele>
        <time>2021-05-16T06:39:57Z</time>
      </trkpt>
      <trkpt lat="41.1905750" lon="-8.7009450">
        <ele>16.4</ele>
        <time>2021-05-16T06:39:58Z</time>
      </trkpt>
      <trkpt lat="41.1905750" lon="-8.7009450">
        <ele>16.4</ele>
        <time>2021-05-16T06:39:59Z</time>
      </trkpt>
      <trkpt lat="41.1905750" lon="-8.7009450">
        <ele>16.4</ele>
        <time>2021-05-16T06:40:00Z</time>
      </trkpt>
      <trkpt lat="41.1905750" lon="-8.7009450">
        <ele>16.4</ele>
        <time>2021-05-16T06:40:01Z</time>
      </trkpt>
      <trkpt lat="41.1905740" lon="-8.7009060">
        <ele>16.4</ele>
        <time>2021-05-16T06:40:07Z</time>
      </trkpt>
      <trkpt lat="41.1905740" lon="-8.7009060">
        <ele>16.4</ele>
        <time>2021-05-16T06:40:08Z</time>
      </trkpt>
      <trkpt lat="41.1905740" lon="-8.7009060">
        <ele>16.4</ele>
        <time>2021-05-16T06:40:09Z</time>
      </trkpt>
      <trkpt lat="41.1905740" lon="-8.7009060">
        <ele>16.4</ele>
        <time>2021-05-16T06:40:10Z</time>
      </trkpt>
      <trkpt lat="41.1905740" lon="-8.7009050">
        <ele>16.4</ele>
        <time>2021-05-16T06:40:11Z</time>
      </trkpt>
      <trkpt lat="41.1905740" lon="-8.7009050">
        <ele>16.4</ele>
        <time>2021-05-16T06:40:12Z</time>
      </trkpt>
      <trkpt lat="41.1905740" lon="-8.7009050">
        <ele>16.4</ele>
        <time>2021-05-16T06:40:13Z</time>
      </trkpt>
      <trkpt lat="41.1905730" lon="-8.7009030">
        <ele>16.4</ele>
        <time>2021-05-16T06:40:14Z</time>
      </trkpt>
      <trkpt lat="41.1905720" lon="-8.7009030">
        <ele>16.4</ele>
        <time>2021-05-16T06:40:15Z</time>
      </trkpt>
      <trkpt lat="41.1905720" lon="-8.7009030">
        <ele>16.4</ele>
        <time>2021-05-16T06:40:17Z</time>
      </trkpt>
      <trkpt lat="41.1905720" lon="-8.7009030">
        <ele>16.4</ele>
        <time>2021-05-16T06:40:18Z</time>
      </trkpt>
      <trkpt lat="41.1905690" lon="-8.7008960">
        <ele>16.4</ele>
        <time>2021-05-16T06:40:19Z</time>
      </trkpt>
      <trkpt lat="41.1905700" lon="-8.7008950">
        <ele>16.4</ele>
        <time>2021-05-16T06:40:20Z</time>
      </trkpt>
      <trkpt lat="41.1905690" lon="-8.7008950">
        <ele>16.4</ele>
        <time>2021-05-16T06:40:21Z</time>
      </trkpt>
      <trkpt lat="41.1905690" lon="-8.7008960">
        <ele>16.4</ele>
        <time>2021-05-16T06:40:22Z</time>
      </trkpt>
      <trkpt lat="41.1905700" lon="-8.7008950">
        <ele>16.4</ele>
        <time>2021-05-16T06:40:23Z</time>
      </trkpt>
      <trkpt lat="41.1905680" lon="-8.7008920">
        <ele>16.4</ele>
        <time>2021-05-16T06:40:24Z</time>
      </trkpt>
      <trkpt lat="41.1905750" lon="-8.7009540">
        <ele>16.4</ele>
        <time>2021-05-16T06:40:39Z</time>
      </trkpt>
      <trkpt lat="41.1905750" lon="-8.7009540">
        <ele>16.4</ele>
        <time>2021-05-16T06:40:40Z</time>
      </trkpt>
      <trkpt lat="41.1905790" lon="-8.7009980">
        <ele>16.4</ele>
        <time>2021-05-16T06:40:41Z</time>
      </trkpt>
      <trkpt lat="41.1905730" lon="-8.7010700">
        <ele>16.4</ele>
        <time>2021-05-16T06:40:42Z</time>
      </trkpt>
      <trkpt lat="41.1905660" lon="-8.7011420">
        <ele>16.4</ele>
        <time>2021-05-16T06:40:43Z</time>
      </trkpt>
      <trkpt lat="41.1905720" lon="-8.7011840">
        <ele>16.4</ele>
        <time>2021-05-16T06:40:44Z</time>
      </trkpt>
      <trkpt lat="41.1905780" lon="-8.7012260">
        <ele>16.4</ele>
        <time>2021-05-16T06:40:45Z</time>
      </trkpt>
      <trkpt lat="41.1905730" lon="-8.7012060">
        <ele>16.4</ele>
        <time>2021-05-16T06:40:46Z</time>
      </trkpt>
      <trkpt lat="41.1905660" lon="-8.7011870">
        <ele>16.4</ele>
        <time>2021-05-16T06:40:47Z</time>
      </trkpt>
      <trkpt lat="41.1905600" lon="-8.7011680">
        <ele>16.4</ele>
        <time>2021-05-16T06:40:48Z</time>
      </trkpt>
      <trkpt lat="41.1905590" lon="-8.7011530">
        <ele>16.4</ele>
        <time>2021-05-16T06:40:49Z</time>
      </trkpt>
      <trkpt lat="41.1905690" lon="-8.7011690">
        <ele>16.4</ele>
        <time>2021-05-16T06:40:50Z</time>
      </trkpt>
      <trkpt lat="41.1905700" lon="-8.7011780">
        <ele>16.4</ele>
        <time>2021-05-16T06:40:51Z</time>
      </trkpt>
      <trkpt lat="41.1905700" lon="-8.7011760">
        <ele>16.4</ele>
        <time>2021-05-16T06:40:52Z</time>
      </trkpt>
      <trkpt lat="41.1905320" lon="-8.7011670">
        <ele>16.4</ele>
        <time>2021-05-16T06:40:53Z</time>
      </trkpt>
      <trkpt lat="41.1905320" lon="-8.7011580">
        <ele>16.4</ele>
        <time>2021-05-16T06:40:54Z</time>
      </trkpt>
      <trkpt lat="41.1905380" lon="-8.7011530">
        <ele>16.4</ele>
        <time>2021-05-16T06:40:55Z</time>
      </trkpt>
      <trkpt lat="41.1905450" lon="-8.7011480">
        <ele>16.4</ele>
        <time>2021-05-16T06:40:56Z</time>
      </trkpt>
      <trkpt lat="41.1905510" lon="-8.7011430">
        <ele>16.4</ele>
        <time>2021-05-16T06:40:57Z</time>
      </trkpt>
      <trkpt lat="41.1905570" lon="-8.7011380">
        <ele>16.4</ele>
        <time>2021-05-16T06:40:58Z</time>
      </trkpt>
      <trkpt lat="41.1905630" lon="-8.7011330">
        <ele>16.4</ele>
        <time>2021-05-16T06:40:59Z</time>
      </trkpt>
      <trkpt lat="41.1905690" lon="-8.7011280">
        <ele>16.4</ele>
        <time>2021-05-16T06:41:00Z</time>
      </trkpt>
      <trkpt lat="41.1905750" lon="-8.7011230">
        <ele>16.4</ele>
        <time>2021-05-16T06:41:01Z</time>
      </trkpt>
      <trkpt lat="41.1905820" lon="-8.7011180">
        <ele>16.4</ele>
        <time>2021-05-16T06:41:02Z</time>
      </trkpt>
      <trkpt lat="41.1905880" lon="-8.7011130">
        <ele>16.4</ele>
        <time>2021-05-16T06:41:03Z</time>
      </trkpt>
      <trkpt lat="41.1905940" lon="-8.7011080">
        <ele>16.4</ele>
        <time>2021-05-16T06:41:04Z</time>
      </trkpt>
      <trkpt lat="41.1906000" lon="-8.7011030">
        <ele>16.4</ele>
        <time>2021-05-16T06:41:05Z</time>
      </trkpt>
      <trkpt lat="41.1905930" lon="-8.7011080">
        <ele>16.4</ele>
        <time>2021-05-16T06:41:06Z</time>
      </trkpt>
      <trkpt lat="41.1905930" lon="-8.7011080">
        <ele>16.4</ele>
        <time>2021-05-16T06:41:07Z</time>
      </trkpt>
      <trkpt lat="41.1905880" lon="-8.7010700">
        <ele>16.4</ele>
        <time>2021-05-16T06:41:08Z</time>
      </trkpt>
      <trkpt lat="41.1905890" lon="-8.7010730">
        <ele>16.4</ele>
        <time>2021-05-16T06:41:09Z</time>
      </trkpt>
      <trkpt lat="41.1905890" lon="-8.7010730">
        <ele>16.4</ele>
        <time>2021-05-16T06:41:10Z</time>
      </trkpt>
      <trkpt lat="41.1905890" lon="-8.7010730">
        <ele>16.4</ele>
        <time>2021-05-16T06:41:11Z</time>
      </trkpt>
      <trkpt lat="41.1905890" lon="-8.7010730">
        <ele>16.4</ele>
        <time>2021-05-16T06:41:12Z</time>
      </trkpt>
      <trkpt lat="41.1905890" lon="-8.7010730">
        <ele>16.4</ele>
        <time>2021-05-16T06:41:13Z</time>
      </trkpt>
      <trkpt lat="41.1905890" lon="-8.7010730">
        <ele>16.4</ele>
        <time>2021-05-16T06:41:14Z</time>
      </trkpt>
      <trkpt lat="41.1905890" lon="-8.7010730">
        <ele>16.4</ele>
        <time>2021-05-16T06:41:15Z</time>
      </trkpt>
      <trkpt lat="41.1905890" lon="-8.7010730">
        <ele>16.4</ele>
        <time>2021-05-16T06:41:16Z</time>
      </trkpt>
      <trkpt lat="41.1905900" lon="-8.7010990">
        <ele>16.4</ele>
        <time>2021-05-16T06:41:17Z</time>
      </trkpt>
      <trkpt lat="41.1905890" lon="-8.7011000">
        <ele>16.4</ele>
        <time>2021-05-16T06:41:18Z</time>
      </trkpt>
      <trkpt lat="41.1905880" lon="-8.7011020">
        <ele>16.4</ele>
        <time>2021-05-16T06:41:19Z</time>
      </trkpt>
      <trkpt lat="41.1905880" lon="-8.7011040">
        <ele>16.4</ele>
        <time>2021-05-16T06:41:20Z</time>
      </trkpt>
      <trkpt lat="41.1905880" lon="-8.7011040">
        <ele>16.4</ele>
        <time>2021-05-16T06:41:21Z</time>
      </trkpt>
      <trkpt lat="41.1905880" lon="-8.7011040">
        <ele>16.4</ele>
        <time>2021-05-16T06:41:22Z</time>
      </trkpt>
      <trkpt lat="41.1905850" lon="-8.7010910">
        <ele>16.4</ele>
        <time>2021-05-16T06:41:23Z</time>
      </trkpt>
      <trkpt lat="41.1905860" lon="-8.7010980">
        <ele>16.4</ele>
        <time>2021-05-16T06:41:24Z</time>
      </trkpt>
      <trkpt lat="41.1905860" lon="-8.7010980">
        <ele>16.4</ele>
        <time>2021-05-16T06:41:25Z</time>
      </trkpt>
      <trkpt lat="41.1905860" lon="-8.7010980">
        <ele>16.4</ele>
        <time>2021-05-16T06:41:26Z</time>
      </trkpt>
      <trkpt lat="41.1905690" lon="-8.7010980">
        <ele>16.4</ele>
        <time>2021-05-16T06:41:27Z</time>
      </trkpt>
      <trkpt lat="41.1905560" lon="-8.7011040">
        <ele>16.4</ele>
        <time>2021-05-16T06:41:28Z</time>
      </trkpt>
      <trkpt lat="41.1905580" lon="-8.7011090">
        <ele>16.4</ele>
        <time>2021-05-16T06:41:29Z</time>
      </trkpt>
      <trkpt lat="41.1905590" lon="-8.7011140">
        <ele>16.4</ele>
        <time>2021-05-16T06:41:30Z</time>
      </trkpt>
      <trkpt lat="41.1905610" lon="-8.7011180">
        <ele>16.4</ele>
        <time>2021-05-16T06:41:31Z</time>
      </trkpt>
      <trkpt lat="41.1905630" lon="-8.7011230">
        <ele>16.4</ele>
        <time>2021-05-16T06:41:32Z</time>
      </trkpt>
      <trkpt lat="41.1905650" lon="-8.7011280">
        <ele>16.4</ele>
        <time>2021-05-16T06:41:33Z</time>
      </trkpt>
      <trkpt lat="41.1905660" lon="-8.7011330">
        <ele>16.4</ele>
        <time>2021-05-16T06:41:34Z</time>
      </trkpt>
      <trkpt lat="41.1905680" lon="-8.7011380">
        <ele>16.4</ele>
        <time>2021-05-16T06:41:35Z</time>
      </trkpt>
      <trkpt lat="41.1905700" lon="-8.7011430">
        <ele>16.4</ele>
        <time>2021-05-16T06:41:36Z</time>
      </trkpt>
      <trkpt lat="41.1905720" lon="-8.7011480">
        <ele>16.4</ele>
        <time>2021-05-16T06:41:37Z</time>
      </trkpt>
      <trkpt lat="41.1905730" lon="-8.7011530">
        <ele>16.4</ele>
        <time>2021-05-16T06:41:38Z</time>
      </trkpt>
      <trkpt lat="41.1905750" lon="-8.7011570">
        <ele>16.4</ele>
        <time>2021-05-16T06:41:39Z</time>
      </trkpt>
      <trkpt lat="41.1905770" lon="-8.7011620">
        <ele>16.4</ele>
        <time>2021-05-16T06:41:40Z</time>
      </trkpt>
      <trkpt lat="41.1905790" lon="-8.7011670">
        <ele>16.4</ele>
        <time>2021-05-16T06:41:41Z</time>
      </trkpt>
      <trkpt lat="41.1905800" lon="-8.7011720">
        <ele>16.4</ele>
        <time>2021-05-16T06:41:42Z</time>
      </trkpt>
      <trkpt lat="41.1905820" lon="-8.7011770">
        <ele>16.4</ele>
        <time>2021-05-16T06:41:43Z</time>
      </trkpt>
      <trkpt lat="41.1905800" lon="-8.7011760">
        <ele>16.4</ele>
        <time>2021-05-16T06:41:44Z</time>
      </trkpt>
      <trkpt lat="41.1905790" lon="-8.7011740">
        <ele>16.4</ele>
        <time>2021-05-16T06:41:45Z</time>
      </trkpt>
      <trkpt lat="41.1905770" lon="-8.7011710">
        <ele>16.4</ele>
        <time>2021-05-16T06:41:46Z</time>
      </trkpt>
      <trkpt lat="41.1905760" lon="-8.7011690">
        <ele>16.4</ele>
        <time>2021-05-16T06:41:47Z</time>
      </trkpt>
      <trkpt lat="41.1905740" lon="-8.7011670">
        <ele>16.4</ele>
        <time>2021-05-16T06:41:48Z</time>
      </trkpt>
      <trkpt lat="41.1905730" lon="-8.7011650">
        <ele>16.4</ele>
        <time>2021-05-16T06:41:49Z</time>
      </trkpt>
      <trkpt lat="41.1905710" lon="-8.7011620">
        <ele>16.4</ele>
        <time>2021-05-16T06:41:50Z</time>
      </trkpt>
      <trkpt lat="41.1905700" lon="-8.7011600">
        <ele>16.4</ele>
        <time>2021-05-16T06:41:51Z</time>
      </trkpt>
      <trkpt lat="41.1905680" lon="-8.7011580">
        <ele>16.4</ele>
        <time>2021-05-16T06:41:52Z</time>
      </trkpt>
      <trkpt lat="41.1905670" lon="-8.7011560">
        <ele>16.4</ele>
        <time>2021-05-16T06:41:53Z</time>
      </trkpt>
      <trkpt lat="41.1905650" lon="-8.7011530">
        <ele>16.4</ele>
        <time>2021-05-16T06:41:54Z</time>
      </trkpt>
      <trkpt lat="41.1905640" lon="-8.7011510">
        <ele>16.4</ele>
        <time>2021-05-16T06:41:55Z</time>
      </trkpt>
      <trkpt lat="41.1905620" lon="-8.7011490">
        <ele>16.4</ele>
        <time>2021-05-16T06:41:56Z</time>
      </trkpt>
      <trkpt lat="41.1905610" lon="-8.7011470">
        <ele>16.4</ele>
        <time>2021-05-16T06:41:57Z</time>
      </trkpt>
      <trkpt lat="41.1905590" lon="-8.7011440">
        <ele>16.4</ele>
        <time>2021-05-16T06:41:58Z</time>
      </trkpt>
      <trkpt lat="41.1905580" lon="-8.7011420">
        <ele>16.4</ele>
        <time>2021-05-16T06:41:59Z</time>
      </trkpt>
      <trkpt lat="41.1905560" lon="-8.7011400">
        <ele>16.4</ele>
        <time>2021-05-16T06:42:00Z</time>
      </trkpt>
      <trkpt lat="41.1905560" lon="-8.7011410">
        <ele>16.4</ele>
        <time>2021-05-16T06:42:01Z</time>
      </trkpt>
      <trkpt lat="41.1905560" lon="-8.7011410">
        <ele>16.4</ele>
        <time>2021-05-16T06:42:02Z</time>
      </trkpt>
      <trkpt lat="41.1905560" lon="-8.7011410">
        <ele>16.4</ele>
        <time>2021-05-16T06:42:03Z</time>
      </trkpt>
      <trkpt lat="41.1905560" lon="-8.7011410">
        <ele>16.4</ele>
        <time>2021-05-16T06:42:04Z</time>
      </trkpt>
      <trkpt lat="41.1905560" lon="-8.7011410">
        <ele>16.4</ele>
        <time>2021-05-16T06:42:05Z</time>
      </trkpt>
      <trkpt lat="41.1905560" lon="-8.7011410">
        <ele>16.4</ele>
        <time>2021-05-16T06:42:06Z</time>
      </trkpt>
      <trkpt lat="41.1905560" lon="-8.7011410">
        <ele>16.4</ele>
        <time>2021-05-16T06:42:07Z</time>
      </trkpt>
      <trkpt lat="41.1905560" lon="-8.7011410">
        <ele>16.4</ele>
        <time>2021-05-16T06:42:08Z</time>
      </trkpt>
      <trkpt lat="41.1905560" lon="-8.7011410">
        <ele>16.4</ele>
        <time>2021-05-16T06:42:09Z</time>
      </trkpt>
      <trkpt lat="41.1905560" lon="-8.7011410">
        <ele>16.4</ele>
        <time>2021-05-16T06:42:10Z</time>
      </trkpt>
      <trkpt lat="41.1905560" lon="-8.7011410">
        <ele>16.4</ele>
        <time>2021-05-16T06:42:11Z</time>
      </trkpt>
      <trkpt lat="41.1905560" lon="-8.7011410">
        <ele>16.4</ele>
        <time>2021-05-16T06:42:12Z</time>
      </trkpt>
      <trkpt lat="41.1905560" lon="-8.7011410">
        <ele>16.4</ele>
        <time>2021-05-16T06:42:13Z</time>
      </trkpt>
      <trkpt lat="41.1905560" lon="-8.7011410">
        <ele>16.4</ele>
        <time>2021-05-16T06:42:14Z</time>
      </trkpt>
      <trkpt lat="41.1905560" lon="-8.7011410">
        <ele>16.4</ele>
        <time>2021-05-16T06:42:15Z</time>
      </trkpt>
      <trkpt lat="41.1905560" lon="-8.7011410">
        <ele>16.4</ele>
        <time>2021-05-16T06:42:16Z</time>
      </trkpt>
      <trkpt lat="41.1905560" lon="-8.7011410">
        <ele>16.4</ele>
        <time>2021-05-16T06:42:17Z</time>
      </trkpt>
      <trkpt lat="41.1905560" lon="-8.7011410">
        <ele>16.4</ele>
        <time>2021-05-16T06:42:18Z</time>
      </trkpt>
      <trkpt lat="41.1905560" lon="-8.7011410">
        <ele>16.4</ele>
        <time>2021-05-16T06:42:19Z</time>
      </trkpt>
      <trkpt lat="41.1905560" lon="-8.7011410">
        <ele>16.4</ele>
        <time>2021-05-16T06:42:20Z</time>
      </trkpt>
      <trkpt lat="41.1905560" lon="-8.7011410">
        <ele>16.4</ele>
        <time>2021-05-16T06:42:21Z</time>
      </trkpt>
      <trkpt lat="41.1905560" lon="-8.7011410">
        <ele>16.4</ele>
        <time>2021-05-16T06:42:22Z</time>
      </trkpt>
      <trkpt lat="41.1905560" lon="-8.7011410">
        <ele>16.4</ele>
        <time>2021-05-16T06:42:23Z</time>
      </trkpt>
      <trkpt lat="41.1905560" lon="-8.7011410">
        <ele>16.4</ele>
        <time>2021-05-16T06:42:24Z</time>
      </trkpt>
      <trkpt lat="41.1905560" lon="-8.7011410">
        <ele>16.4</ele>
        <time>2021-05-16T06:42:25Z</time>
      </trkpt>
      <trkpt lat="41.1905560" lon="-8.7011410">
        <ele>16.4</ele>
        <time>2021-05-16T06:42:26Z</time>
      </trkpt>
      <trkpt lat="41.1905560" lon="-8.7011410">
        <ele>16.4</ele>
        <time>2021-05-16T06:42:27Z</time>
      </trkpt>
      <trkpt lat="41.1905560" lon="-8.7011410">
        <ele>16.4</ele>
        <time>2021-05-16T06:42:28Z</time>
      </trkpt>
      <trkpt lat="41.1905560" lon="-8.7011410">
        <ele>16.4</ele>
        <time>2021-05-16T06:42:29Z</time>
      </trkpt>
      <trkpt lat="41.1905560" lon="-8.7011410">
        <ele>16.4</ele>
        <time>2021-05-16T06:42:30Z</time>
      </trkpt>
      <trkpt lat="41.1905560" lon="-8.7011410">
        <ele>16.4</ele>
        <time>2021-05-16T06:42:31Z</time>
      </trkpt>
      <trkpt lat="41.1905560" lon="-8.7011410">
        <ele>16.4</ele>
        <time>2021-05-16T06:42:32Z</time>
      </trkpt>
      <trkpt lat="41.1905560" lon="-8.7011410">
        <ele>16.4</ele>
        <time>2021-05-16T06:42:33Z</time>
      </trkpt>
      <trkpt lat="41.1905560" lon="-8.7011410">
        <ele>16.4</ele>
        <time>2021-05-16T06:42:34Z</time>
      </trkpt>
      <trkpt lat="41.1905560" lon="-8.7011410">
        <ele>16.4</ele>
        <time>2021-05-16T06:42:35Z</time>
      </trkpt>
      <trkpt lat="41.1905880" lon="-8.7010600">
        <ele>16.4</ele>
        <time>2021-05-16T06:42:36Z</time>
      </trkpt>
      <trkpt lat="41.1905890" lon="-8.7008670">
        <ele>16.4</ele>
        <time>2021-05-16T06:43:06Z</time>
      </trkpt>
      <trkpt lat="41.1905890" lon="-8.7008650">
        <ele>16.4</ele>
        <time>2021-05-16T06:43:13Z</time>
      </trkpt>
      <trkpt lat="41.1906400" lon="-8.7009410">
        <ele>16.5</ele>
        <time>2021-05-16T06:43:19Z</time>
      </trkpt>
      <trkpt lat="41.1906240" lon="-8.7009570">
        <ele>16.5</ele>
        <time>2021-05-16T06:43:21Z</time>
      </trkpt>
      <trkpt lat="41.1905970" lon="-8.7009770">
        <ele>16.5</ele>
        <time>2021-05-16T06:43:25Z</time>
      </trkpt>
      <trkpt lat="41.1905960" lon="-8.7009760">
        <ele>16.5</ele>
        <time>2021-05-16T06:43:26Z</time>
      </trkpt>
      <trkpt lat="41.1905960" lon="-8.7009780">
        <ele>16.5</ele>
        <time>2021-05-16T06:43:27Z</time>
      </trkpt>
      <trkpt lat="41.1905970" lon="-8.7009790">
        <ele>16.5</ele>
        <time>2021-05-16T06:43:28Z</time>
      </trkpt>
      <trkpt lat="41.1905970" lon="-8.7009810">
        <ele>16.5</ele>
        <time>2021-05-16T06:43:29Z</time>
      </trkpt>
      <trkpt lat="41.1905970" lon="-8.7009830">
        <ele>16.5</ele>
        <time>2021-05-16T06:43:30Z</time>
      </trkpt>
      <trkpt lat="41.1905970" lon="-8.7009850">
        <ele>16.5</ele>
        <time>2021-05-16T06:43:31Z</time>
      </trkpt>
      <trkpt lat="41.1905970" lon="-8.7009870">
        <ele>16.5</ele>
        <time>2021-05-16T06:43:32Z</time>
      </trkpt>
      <trkpt lat="41.1905970" lon="-8.7009890">
        <ele>16.5</ele>
        <time>2021-05-16T06:43:33Z</time>
      </trkpt>
      <trkpt lat="41.1905980" lon="-8.7009900">
        <ele>16.5</ele>
        <time>2021-05-16T06:43:34Z</time>
      </trkpt>
      <trkpt lat="41.1905980" lon="-8.7009920">
        <ele>16.5</ele>
        <time>2021-05-16T06:43:35Z</time>
      </trkpt>
      <trkpt lat="41.1905980" lon="-8.7009940">
        <ele>16.5</ele>
        <time>2021-05-16T06:43:36Z</time>
      </trkpt>
      <trkpt lat="41.1905980" lon="-8.7009960">
        <ele>16.5</ele>
        <time>2021-05-16T06:43:37Z</time>
      </trkpt>
      <trkpt lat="41.1905980" lon="-8.7009980">
        <ele>16.5</ele>
        <time>2021-05-16T06:43:38Z</time>
      </trkpt>
      <trkpt lat="41.1905980" lon="-8.7010000">
        <ele>16.5</ele>
        <time>2021-05-16T06:43:39Z</time>
      </trkpt>
      <trkpt lat="41.1905990" lon="-8.7010010">
        <ele>16.5</ele>
        <time>2021-05-16T06:43:40Z</time>
      </trkpt>
      <trkpt lat="41.1905990" lon="-8.7010030">
        <ele>16.5</ele>
        <time>2021-05-16T06:43:41Z</time>
      </trkpt>
      <trkpt lat="41.1905990" lon="-8.7010050">
        <ele>16.5</ele>
        <time>2021-05-16T06:43:42Z</time>
      </trkpt>
      <trkpt lat="41.1905990" lon="-8.7010070">
        <ele>16.5</ele>
        <time>2021-05-16T06:43:45Z</time>
      </trkpt>
      <trkpt lat="41.1905990" lon="-8.7010090">
        <ele>16.5</ele>
        <time>2021-05-16T06:43:46Z</time>
      </trkpt>
      <trkpt lat="41.1905990" lon="-8.7010110">
        <ele>16.5</ele>
        <time>2021-05-16T06:43:47Z</time>
      </trkpt>
      <trkpt lat="41.1906000" lon="-8.7010120">
        <ele>16.5</ele>
        <time>2021-05-16T06:43:48Z</time>
      </trkpt>
      <trkpt lat="41.1906000" lon="-8.7010140">
        <ele>16.5</ele>
        <time>2021-05-16T06:43:49Z</time>
      </trkpt>
      <trkpt lat="41.1906000" lon="-8.7010160">
        <ele>16.5</ele>
        <time>2021-05-16T06:43:50Z</time>
      </trkpt>
      <trkpt lat="41.1906000" lon="-8.7010180">
        <ele>16.5</ele>
        <time>2021-05-16T06:43:51Z</time>
      </trkpt>
      <trkpt lat="41.1906000" lon="-8.7010200">
        <ele>16.5</ele>
        <time>2021-05-16T06:43:52Z</time>
      </trkpt>
      <trkpt lat="41.1906000" lon="-8.7010220">
        <ele>16.5</ele>
        <time>2021-05-16T06:43:53Z</time>
      </trkpt>
      <trkpt lat="41.1906010" lon="-8.7010230">
        <ele>16.5</ele>
        <time>2021-05-16T06:43:54Z</time>
      </trkpt>
      <trkpt lat="41.1906010" lon="-8.7010250">
        <ele>16.5</ele>
        <time>2021-05-16T06:43:55Z</time>
      </trkpt>
      <trkpt lat="41.1906010" lon="-8.7010270">
        <ele>16.5</ele>
        <time>2021-05-16T06:43:56Z</time>
      </trkpt>
      <trkpt lat="41.1906010" lon="-8.7010290">
        <ele>16.5</ele>
        <time>2021-05-16T06:43:57Z</time>
      </trkpt>
      <trkpt lat="41.1906010" lon="-8.7010310">
        <ele>16.5</ele>
        <time>2021-05-16T06:43:58Z</time>
      </trkpt>
      <trkpt lat="41.1906010" lon="-8.7010330">
        <ele>16.6</ele>
        <time>2021-05-16T06:43:59Z</time>
      </trkpt>
      <trkpt lat="41.1906020" lon="-8.7010340">
        <ele>16.6</ele>
        <time>2021-05-16T06:44:00Z</time>
      </trkpt>
      <trkpt lat="41.1906020" lon="-8.7010360">
        <ele>16.6</ele>
        <time>2021-05-16T06:44:01Z</time>
      </trkpt>
      <trkpt lat="41.1906020" lon="-8.7010380">
        <ele>16.6</ele>
        <time>2021-05-16T06:44:02Z</time>
      </trkpt>
      <trkpt lat="41.1906020" lon="-8.7010400">
        <ele>16.6</ele>
        <time>2021-05-16T06:44:03Z</time>
      </trkpt>
      <trkpt lat="41.1906020" lon="-8.7010420">
        <ele>16.6</ele>
        <time>2021-05-16T06:44:04Z</time>
      </trkpt>
      <trkpt lat="41.1906030" lon="-8.7010430">
        <ele>16.6</ele>
        <time>2021-05-16T06:44:05Z</time>
      </trkpt>
      <trkpt lat="41.1906030" lon="-8.7010450">
        <ele>16.6</ele>
        <time>2021-05-16T06:44:06Z</time>
      </trkpt>
      <trkpt lat="41.1906030" lon="-8.7010470">
        <ele>16.6</ele>
        <time>2021-05-16T06:44:07Z</time>
      </trkpt>
      <trkpt lat="41.1906030" lon="-8.7010490">
        <ele>16.6</ele>
        <time>2021-05-16T06:44:08Z</time>
      </trkpt>
      <trkpt lat="41.1906030" lon="-8.7010510">
        <ele>16.6</ele>
        <time>2021-05-16T06:44:09Z</time>
      </trkpt>
      <trkpt lat="41.1906030" lon="-8.7010530">
        <ele>16.6</ele>
        <time>2021-05-16T06:44:10Z</time>
      </trkpt>
      <trkpt lat="41.1906040" lon="-8.7010540">
        <ele>16.6</ele>
        <time>2021-05-16T06:44:11Z</time>
      </trkpt>
      <trkpt lat="41.1906040" lon="-8.7010560">
        <ele>16.6</ele>
        <time>2021-05-16T06:44:12Z</time>
      </trkpt>
      <trkpt lat="41.1906040" lon="-8.7010580">
        <ele>16.6</ele>
        <time>2021-05-16T06:44:13Z</time>
      </trkpt>
      <trkpt lat="41.1906040" lon="-8.7010600">
        <ele>16.6</ele>
        <time>2021-05-16T06:44:14Z</time>
      </trkpt>
      <trkpt lat="41.1906040" lon="-8.7010620">
        <ele>16.6</ele>
        <time>2021-05-16T06:44:15Z</time>
      </trkpt>
      <trkpt lat="41.1906040" lon="-8.7010640">
        <ele>16.6</ele>
        <time>2021-05-16T06:44:16Z</time>
      </trkpt>
      <trkpt lat="41.1906050" lon="-8.7010650">
        <ele>16.6</ele>
        <time>2021-05-16T06:44:17Z</time>
      </trkpt>
      <trkpt lat="41.1906050" lon="-8.7010670">
        <ele>16.6</ele>
        <time>2021-05-16T06:44:24Z</time>
      </trkpt>
      <trkpt lat="41.1906050" lon="-8.7010690">
        <ele>16.6</ele>
        <time>2021-05-16T06:44:25Z</time>
      </trkpt>
      <trkpt lat="41.1906050" lon="-8.7010710">
        <ele>16.6</ele>
        <time>2021-05-16T06:44:26Z</time>
      </trkpt>
      <trkpt lat="41.1906050" lon="-8.7010730">
        <ele>16.6</ele>
        <time>2021-05-16T06:44:27Z</time>
      </trkpt>
      <trkpt lat="41.1906050" lon="-8.7010750">
        <ele>16.6</ele>
        <time>2021-05-16T06:44:28Z</time>
      </trkpt>
      <trkpt lat="41.1906060" lon="-8.7010760">
        <ele>16.6</ele>
        <time>2021-05-16T06:44:29Z</time>
      </trkpt>
      <trkpt lat="41.1906060" lon="-8.7010780">
        <ele>16.6</ele>
        <time>2021-05-16T06:44:30Z</time>
      </trkpt>
      <trkpt lat="41.1906060" lon="-8.7010800">
        <ele>16.6</ele>
        <time>2021-05-16T06:44:31Z</time>
      </trkpt>
      <trkpt lat="41.1906060" lon="-8.7010820">
        <ele>16.6</ele>
        <time>2021-05-16T06:44:32Z</time>
      </trkpt>
      <trkpt lat="41.1906060" lon="-8.7010840">
        <ele>16.6</ele>
        <time>2021-05-16T06:44:33Z</time>
      </trkpt>
      <trkpt lat="41.1906060" lon="-8.7010860">
        <ele>16.6</ele>
        <time>2021-05-16T06:44:34Z</time>
      </trkpt>
      <trkpt lat="41.1906070" lon="-8.7010870">
        <ele>16.6</ele>
        <time>2021-05-16T06:44:35Z</time>
      </trkpt>
      <trkpt lat="41.1906070" lon="-8.7010890">
        <ele>16.6</ele>
        <time>2021-05-16T06:44:36Z</time>
      </trkpt>
      <trkpt lat="41.1906070" lon="-8.7010910">
        <ele>16.6</ele>
        <time>2021-05-16T06:44:37Z</time>
      </trkpt>
      <trkpt lat="41.1906070" lon="-8.7010930">
        <ele>16.6</ele>
        <time>2021-05-16T06:44:38Z</time>
      </trkpt>
      <trkpt lat="41.1906070" lon="-8.7010950">
        <ele>16.6</ele>
        <time>2021-05-16T06:44:39Z</time>
      </trkpt>
      <trkpt lat="41.1906070" lon="-8.7010970">
        <ele>16.6</ele>
        <time>2021-05-16T06:44:40Z</time>
      </trkpt>
      <trkpt lat="41.1906080" lon="-8.7010980">
        <ele>16.6</ele>
        <time>2021-05-16T06:44:41Z</time>
      </trkpt>
      <trkpt lat="41.1906080" lon="-8.7011000">
        <ele>16.6</ele>
        <time>2021-05-16T06:44:42Z</time>
      </trkpt>
      <trkpt lat="41.1906080" lon="-8.7011020">
        <ele>16.6</ele>
        <time>2021-05-16T06:44:43Z</time>
      </trkpt>
      <trkpt lat="41.1906080" lon="-8.7011040">
        <ele>16.6</ele>
        <time>2021-05-16T06:44:44Z</time>
      </trkpt>
      <trkpt lat="41.1906080" lon="-8.7011060">
        <ele>16.6</ele>
        <time>2021-05-16T06:44:45Z</time>
      </trkpt>
      <trkpt lat="41.1906080" lon="-8.7011080">
        <ele>16.6</ele>
        <time>2021-05-16T06:44:46Z</time>
      </trkpt>
      <trkpt lat="41.1906090" lon="-8.7011090">
        <ele>16.6</ele>
        <time>2021-05-16T06:44:47Z</time>
      </trkpt>
      <trkpt lat="41.1906090" lon="-8.7011110">
        <ele>16.6</ele>
        <time>2021-05-16T06:44:48Z</time>
      </trkpt>
      <trkpt lat="41.1906090" lon="-8.7011130">
        <ele>16.6</ele>
        <time>2021-05-16T06:44:49Z</time>
      </trkpt>
      <trkpt lat="41.1906090" lon="-8.7011130">
        <ele>16.6</ele>
        <time>2021-05-16T06:44:50Z</time>
      </trkpt>
      <trkpt lat="41.1906090" lon="-8.7011120">
        <ele>16.6</ele>
        <time>2021-05-16T06:44:51Z</time>
      </trkpt>
      <trkpt lat="41.1906080" lon="-8.7011110">
        <ele>16.6</ele>
        <time>2021-05-16T06:44:52Z</time>
      </trkpt>
      <trkpt lat="41.1906070" lon="-8.7011100">
        <ele>16.6</ele>
        <time>2021-05-16T06:44:53Z</time>
      </trkpt>
      <trkpt lat="41.1906070" lon="-8.7011080">
        <ele>16.6</ele>
        <time>2021-05-16T06:44:54Z</time>
      </trkpt>
      <trkpt lat="41.1906070" lon="-8.7011070">
        <ele>16.6</ele>
        <time>2021-05-16T06:44:55Z</time>
      </trkpt>
      <trkpt lat="41.1906050" lon="-8.7011030">
        <ele>16.6</ele>
        <time>2021-05-16T06:44:56Z</time>
      </trkpt>
      <trkpt lat="41.1906040" lon="-8.7011030">
        <ele>16.6</ele>
        <time>2021-05-16T06:44:57Z</time>
      </trkpt>
      <trkpt lat="41.1906040" lon="-8.7011010">
        <ele>16.6</ele>
        <time>2021-05-16T06:44:58Z</time>
      </trkpt>
      <trkpt lat="41.1906040" lon="-8.7010990">
        <ele>16.6</ele>
        <time>2021-05-16T06:44:59Z</time>
      </trkpt>
      <trkpt lat="41.1906040" lon="-8.7010960">
        <ele>16.6</ele>
        <time>2021-05-16T06:45:00Z</time>
      </trkpt>
      <trkpt lat="41.1906010" lon="-8.7010970">
        <ele>16.6</ele>
        <time>2021-05-16T06:45:01Z</time>
      </trkpt>
      <trkpt lat="41.1906020" lon="-8.7010940">
        <ele>16.6</ele>
        <time>2021-05-16T06:45:02Z</time>
      </trkpt>
      <trkpt lat="41.1905990" lon="-8.7010900">
        <ele>16.6</ele>
        <time>2021-05-16T06:45:03Z</time>
      </trkpt>
      <trkpt lat="41.1905980" lon="-8.7010860">
        <ele>16.6</ele>
        <time>2021-05-16T06:45:04Z</time>
      </trkpt>
      <trkpt lat="41.1905970" lon="-8.7010830">
        <ele>16.6</ele>
        <time>2021-05-16T06:45:05Z</time>
      </trkpt>
      <trkpt lat="41.1905980" lon="-8.7010770">
        <ele>16.6</ele>
        <time>2021-05-16T06:45:06Z</time>
      </trkpt>
      <trkpt lat="41.1905980" lon="-8.7010770">
        <ele>16.6</ele>
        <time>2021-05-16T06:45:07Z</time>
      </trkpt>
      <trkpt lat="41.1905930" lon="-8.7010700">
        <ele>16.6</ele>
        <time>2021-05-16T06:45:08Z</time>
      </trkpt>
      <trkpt lat="41.1905930" lon="-8.7010700">
        <ele>16.6</ele>
        <time>2021-05-16T06:45:11Z</time>
      </trkpt>
      <trkpt lat="41.1905930" lon="-8.7010700">
        <ele>16.6</ele>
        <time>2021-05-16T06:45:12Z</time>
      </trkpt>
      <trkpt lat="41.1905930" lon="-8.7010700">
        <ele>16.6</ele>
        <time>2021-05-16T06:45:14Z</time>
      </trkpt>
      <trkpt lat="41.1905930" lon="-8.7010700">
        <ele>16.6</ele>
        <time>2021-05-16T06:45:15Z</time>
      </trkpt>
      <trkpt lat="41.1905930" lon="-8.7010700">
        <ele>16.6</ele>
        <time>2021-05-16T06:45:16Z</time>
      </trkpt>
      <trkpt lat="41.1905930" lon="-8.7010700">
        <ele>16.6</ele>
        <time>2021-05-16T06:45:17Z</time>
      </trkpt>
      <trkpt lat="41.1905930" lon="-8.7010700">
        <ele>16.6</ele>
        <time>2021-05-16T06:45:18Z</time>
      </trkpt>
      <trkpt lat="41.1905930" lon="-8.7010700">
        <ele>16.6</ele>
        <time>2021-05-16T06:45:19Z</time>
      </trkpt>
      <trkpt lat="41.1906020" lon="-8.7010830">
        <ele>16.6</ele>
        <time>2021-05-16T06:45:20Z</time>
      </trkpt>
      <trkpt lat="41.1906010" lon="-8.7010680">
        <ele>16.7</ele>
        <time>2021-05-16T06:45:21Z</time>
      </trkpt>
      <trkpt lat="41.1906000" lon="-8.7010670">
        <ele>16.7</ele>
        <time>2021-05-16T06:45:22Z</time>
      </trkpt>
      <trkpt lat="41.1905980" lon="-8.7010640">
        <ele>16.7</ele>
        <time>2021-05-16T06:45:23Z</time>
      </trkpt>
      <trkpt lat="41.1905950" lon="-8.7010580">
        <ele>16.7</ele>
        <time>2021-05-16T06:45:24Z</time>
      </trkpt>
      <trkpt lat="41.1905900" lon="-8.7010460">
        <ele>16.7</ele>
        <time>2021-05-16T06:45:25Z</time>
      </trkpt>
      <trkpt lat="41.1905880" lon="-8.7010400">
        <ele>16.7</ele>
        <time>2021-05-16T06:45:26Z</time>
      </trkpt>
      <trkpt lat="41.1906770" lon="-8.7010380">
        <ele>16.8</ele>
        <time>2021-05-16T06:45:27Z</time>
      </trkpt>
      <trkpt lat="41.1907640" lon="-8.7010310">
        <ele>16.8</ele>
        <time>2021-05-16T06:45:28Z</time>
      </trkpt>
      <trkpt lat="41.1908510" lon="-8.7010240">
        <ele>16.9</ele>
        <time>2021-05-16T06:45:29Z</time>
      </trkpt>
      <trkpt lat="41.1908770" lon="-8.7010360">
        <ele>17.0</ele>
        <time>2021-05-16T06:45:30Z</time>
      </trkpt>
      <trkpt lat="41.1908920" lon="-8.7010380">
        <ele>17.0</ele>
        <time>2021-05-16T06:45:31Z</time>
      </trkpt>
      <trkpt lat="41.1909050" lon="-8.7010320">
        <ele>17.0</ele>
        <time>2021-05-16T06:45:32Z</time>
      </trkpt>
      <trkpt lat="41.1908730" lon="-8.7010100">
        <ele>17.0</ele>
        <time>2021-05-16T06:45:33Z</time>
      </trkpt>
      <trkpt lat="41.1908730" lon="-8.7010020">
        <ele>17.0</ele>
        <time>2021-05-16T06:45:34Z</time>
      </trkpt>
      <trkpt lat="41.1908730" lon="-8.7009950">
        <ele>17.0</ele>
        <time>2021-05-16T06:45:35Z</time>
      </trkpt>
      <trkpt lat="41.1908760" lon="-8.7010250">
        <ele>17.0</ele>
        <time>2021-05-16T06:45:36Z</time>
      </trkpt>
      <trkpt lat="41.1908510" lon="-8.7010150">
        <ele>17.0</ele>
        <time>2021-05-16T06:45:37Z</time>
      </trkpt>
      <trkpt lat="41.1908120" lon="-8.7009930">
        <ele>17.0</ele>
        <time>2021-05-16T06:45:39Z</time>
      </trkpt>
      <trkpt lat="41.1907750" lon="-8.7009690">
        <ele>17.0</ele>
        <time>2021-05-16T06:45:40Z</time>
      </trkpt>
      <trkpt lat="41.1907560" lon="-8.7009590">
        <ele>17.0</ele>
        <time>2021-05-16T06:45:41Z</time>
      </trkpt>
      <trkpt lat="41.1907150" lon="-8.7009770">
        <ele>17.0</ele>
        <time>2021-05-16T06:45:42Z</time>
      </trkpt>
      <trkpt lat="41.1906800" lon="-8.7010050">
        <ele>16.9</ele>
        <time>2021-05-16T06:45:43Z</time>
      </trkpt>
      <trkpt lat="41.1906460" lon="-8.7010330">
        <ele>16.9</ele>
        <time>2021-05-16T06:45:44Z</time>
      </trkpt>
      <trkpt lat="41.1906390" lon="-8.7010140">
        <ele>16.9</ele>
        <time>2021-05-16T06:45:45Z</time>
      </trkpt>
      <trkpt lat="41.1906430" lon="-8.7010020">
        <ele>16.9</ele>
        <time>2021-05-16T06:45:46Z</time>
      </trkpt>
      <trkpt lat="41.1906480" lon="-8.7009900">
        <ele>16.9</ele>
        <time>2021-05-16T06:45:47Z</time>
      </trkpt>
      <trkpt lat="41.1906520" lon="-8.7009780">
        <ele>16.9</ele>
        <time>2021-05-16T06:45:48Z</time>
      </trkpt>
      <trkpt lat="41.1906560" lon="-8.7009660">
        <ele>16.9</ele>
        <time>2021-05-16T06:45:49Z</time>
      </trkpt>
      <trkpt lat="41.1906600" lon="-8.7009540">
        <ele>16.9</ele>
        <time>2021-05-16T06:45:50Z</time>
      </trkpt>
      <trkpt lat="41.1906510" lon="-8.7009460">
        <ele>16.9</ele>
        <time>2021-05-16T06:45:51Z</time>
      </trkpt>
      <trkpt lat="41.1906460" lon="-8.7009430">
        <ele>16.9</ele>
        <time>2021-05-16T06:45:52Z</time>
      </trkpt>
      <trkpt lat="41.1906400" lon="-8.7009390">
        <ele>16.9</ele>
        <time>2021-05-16T06:45:53Z</time>
      </trkpt>
      <trkpt lat="41.1906350" lon="-8.7009360">
        <ele>16.9</ele>
        <time>2021-05-16T06:45:54Z</time>
      </trkpt>
      <trkpt lat="41.1906270" lon="-8.7009550">
        <ele>16.9</ele>
        <time>2021-05-16T06:45:55Z</time>
      </trkpt>
      <trkpt lat="41.1906190" lon="-8.7009750">
        <ele>16.9</ele>
        <time>2021-05-16T06:45:56Z</time>
      </trkpt>
      <trkpt lat="41.1906100" lon="-8.7009950">
        <ele>16.9</ele>
        <time>2021-05-16T06:45:57Z</time>
      </trkpt>
      <trkpt lat="41.1906010" lon="-8.7010160">
        <ele>16.9</ele>
        <time>2021-05-16T06:45:58Z</time>
      </trkpt>
      <trkpt lat="41.1905920" lon="-8.7010360">
        <ele>16.9</ele>
        <time>2021-05-16T06:45:59Z</time>
      </trkpt>
      <trkpt lat="41.1905840" lon="-8.7010560">
        <ele>16.9</ele>
        <time>2021-05-16T06:46:00Z</time>
      </trkpt>
      <trkpt lat="41.1905750" lon="-8.7010760">
        <ele>16.9</ele>
        <time>2021-05-16T06:46:01Z</time>
      </trkpt>
      <trkpt lat="41.1905660" lon="-8.7010960">
        <ele>16.9</ele>
        <time>2021-05-16T06:46:02Z</time>
      </trkpt>
      <trkpt lat="41.1906210" lon="-8.7009480">
        <ele>16.8</ele>
        <time>2021-05-16T06:46:03Z</time>
      </trkpt>
      <trkpt lat="41.1906310" lon="-8.7009500">
        <ele>16.8</ele>
        <time>2021-05-16T06:46:04Z</time>
      </trkpt>
      <trkpt lat="41.1906340" lon="-8.7009510">
        <ele>16.8</ele>
        <time>2021-05-16T06:46:05Z</time>
      </trkpt>
      <trkpt lat="41.1906340" lon="-8.7009510">
        <ele>16.8</ele>
        <time>2021-05-16T06:46:06Z</time>
      </trkpt>
      <trkpt lat="41.1906400" lon="-8.7009740">
        <ele>16.8</ele>
        <time>2021-05-16T06:46:07Z</time>
      </trkpt>
      <trkpt lat="41.1906400" lon="-8.7009740">
        <ele>16.8</ele>
        <time>2021-05-16T06:46:08Z</time>
      </trkpt>
      <trkpt lat="41.1906400" lon="-8.7010110">
        <ele>16.8</ele>
        <time>2021-05-16T06:46:09Z</time>
      </trkpt>
      <trkpt lat="41.1906600" lon="-8.7010150">
        <ele>16.8</ele>
        <time>2021-05-16T06:46:10Z</time>
      </trkpt>
      <trkpt lat="41.1906600" lon="-8.7010170">
        <ele>16.8</ele>
        <time>2021-05-16T06:46:11Z</time>
      </trkpt>
      <trkpt lat="41.1906610" lon="-8.7010200">
        <ele>16.8</ele>
        <time>2021-05-16T06:46:12Z</time>
      </trkpt>
      <trkpt lat="41.1906610" lon="-8.7010220">
        <ele>16.8</ele>
        <time>2021-05-16T06:46:13Z</time>
      </trkpt>
      <trkpt lat="41.1906620" lon="-8.7010240">
        <ele>16.8</ele>
        <time>2021-05-16T06:46:14Z</time>
      </trkpt>
      <trkpt lat="41.1906620" lon="-8.7010260">
        <ele>16.8</ele>
        <time>2021-05-16T06:46:15Z</time>
      </trkpt>
      <trkpt lat="41.1906630" lon="-8.7010290">
        <ele>16.8</ele>
        <time>2021-05-16T06:46:16Z</time>
      </trkpt>
      <trkpt lat="41.1906630" lon="-8.7010310">
        <ele>16.8</ele>
        <time>2021-05-16T06:46:17Z</time>
      </trkpt>
      <trkpt lat="41.1906640" lon="-8.7010330">
        <ele>16.8</ele>
        <time>2021-05-16T06:46:18Z</time>
      </trkpt>
      <trkpt lat="41.1906640" lon="-8.7010350">
        <ele>16.8</ele>
        <time>2021-05-16T06:46:19Z</time>
      </trkpt>
      <trkpt lat="41.1906650" lon="-8.7010380">
        <ele>16.8</ele>
        <time>2021-05-16T06:46:20Z</time>
      </trkpt>
      <trkpt lat="41.1906650" lon="-8.7010400">
        <ele>16.8</ele>
        <time>2021-05-16T06:46:21Z</time>
      </trkpt>
      <trkpt lat="41.1906660" lon="-8.7010420">
        <ele>16.8</ele>
        <time>2021-05-16T06:46:22Z</time>
      </trkpt>
      <trkpt lat="41.1906660" lon="-8.7010440">
        <ele>16.8</ele>
        <time>2021-05-16T06:46:23Z</time>
      </trkpt>
      <trkpt lat="41.1906670" lon="-8.7010470">
        <ele>16.8</ele>
        <time>2021-05-16T06:46:25Z</time>
      </trkpt>
      <trkpt lat="41.1906670" lon="-8.7010490">
        <ele>16.8</ele>
        <time>2021-05-16T06:46:26Z</time>
      </trkpt>
      <trkpt lat="41.1906680" lon="-8.7010510">
        <ele>16.8</ele>
        <time>2021-05-16T06:46:27Z</time>
      </trkpt>
      <trkpt lat="41.1906680" lon="-8.7010530">
        <ele>16.8</ele>
        <time>2021-05-16T06:46:28Z</time>
      </trkpt>
      <trkpt lat="41.1906690" lon="-8.7010560">
        <ele>16.8</ele>
        <time>2021-05-16T06:46:29Z</time>
      </trkpt>
      <trkpt lat="41.1906690" lon="-8.7010580">
        <ele>16.8</ele>
        <time>2021-05-16T06:46:30Z</time>
      </trkpt>
      <trkpt lat="41.1906700" lon="-8.7010600">
        <ele>16.8</ele>
        <time>2021-05-16T06:46:31Z</time>
      </trkpt>
      <trkpt lat="41.1906700" lon="-8.7010600">
        <ele>16.8</ele>
        <time>2021-05-16T06:46:32Z</time>
      </trkpt>
      <trkpt lat="41.1906650" lon="-8.7010680">
        <ele>16.8</ele>
        <time>2021-05-16T06:46:33Z</time>
      </trkpt>
      <trkpt lat="41.1906660" lon="-8.7010700">
        <ele>16.8</ele>
        <time>2021-05-16T06:46:34Z</time>
      </trkpt>
      <trkpt lat="41.1906750" lon="-8.7010780">
        <ele>16.8</ele>
        <time>2021-05-16T06:46:35Z</time>
      </trkpt>
      <trkpt lat="41.1906730" lon="-8.7010730">
        <ele>16.8</ele>
        <time>2021-05-16T06:46:36Z</time>
      </trkpt>
      <trkpt lat="41.1906760" lon="-8.7010560">
        <ele>16.8</ele>
        <time>2021-05-16T06:46:37Z</time>
      </trkpt>
      <trkpt lat="41.1906760" lon="-8.7010560">
        <ele>16.8</ele>
        <time>2021-05-16T06:46:38Z</time>
      </trkpt>
      <trkpt lat="41.1906730" lon="-8.7010570">
        <ele>16.8</ele>
        <time>2021-05-16T06:46:39Z</time>
      </trkpt>
      <trkpt lat="41.1906760" lon="-8.7010640">
        <ele>16.8</ele>
        <time>2021-05-16T06:46:40Z</time>
      </trkpt>
      <trkpt lat="41.1906610" lon="-8.7010610">
        <ele>16.8</ele>
        <time>2021-05-16T06:46:41Z</time>
      </trkpt>
      <trkpt lat="41.1906610" lon="-8.7010610">
        <ele>16.8</ele>
        <time>2021-05-16T06:46:42Z</time>
      </trkpt>
      <trkpt lat="41.1906610" lon="-8.7010610">
        <ele>16.8</ele>
        <time>2021-05-16T06:46:43Z</time>
      </trkpt>
      <trkpt lat="41.1906470" lon="-8.7010780">
        <ele>16.8</ele>
        <time>2021-05-16T06:46:44Z</time>
      </trkpt>
      <trkpt lat="41.1906550" lon="-8.7010810">
        <ele>16.8</ele>
        <time>2021-05-16T06:46:45Z</time>
      </trkpt>
      <trkpt lat="41.1906550" lon="-8.7010810">
        <ele>16.8</ele>
        <time>2021-05-16T06:46:46Z</time>
      </trkpt>
      <trkpt lat="41.1906780" lon="-8.7010780">
        <ele>16.8</ele>
        <time>2021-05-16T06:46:47Z</time>
      </trkpt>
      <trkpt lat="41.1906810" lon="-8.7010840">
        <ele>16.8</ele>
        <time>2021-05-16T06:46:48Z</time>
      </trkpt>
      <trkpt lat="41.1906750" lon="-8.7010950">
        <ele>16.8</ele>
        <time>2021-05-16T06:46:49Z</time>
      </trkpt>
      <trkpt lat="41.1906750" lon="-8.7011010">
        <ele>16.8</ele>
        <time>2021-05-16T06:46:50Z</time>
      </trkpt>
      <trkpt lat="41.1906800" lon="-8.7010950">
        <ele>16.8</ele>
        <time>2021-05-16T06:46:51Z</time>
      </trkpt>
      <trkpt lat="41.1906790" lon="-8.7010940">
        <ele>16.8</ele>
        <time>2021-05-16T06:46:52Z</time>
      </trkpt>
      <trkpt lat="41.1906650" lon="-8.7010640">
        <ele>16.8</ele>
        <time>2021-05-16T06:46:53Z</time>
      </trkpt>
      <trkpt lat="41.1906770" lon="-8.7010470">
        <ele>16.8</ele>
        <time>2021-05-16T06:46:54Z</time>
      </trkpt>
      <trkpt lat="41.1906870" lon="-8.7010300">
        <ele>16.8</ele>
        <time>2021-05-16T06:46:55Z</time>
      </trkpt>
      <trkpt lat="41.1906970" lon="-8.7010140">
        <ele>16.8</ele>
        <time>2021-05-16T06:46:56Z</time>
      </trkpt>
      <trkpt lat="41.1907070" lon="-8.7009970">
        <ele>16.8</ele>
        <time>2021-05-16T06:46:57Z</time>
      </trkpt>
      <trkpt lat="41.1907170" lon="-8.7009800">
        <ele>16.8</ele>
        <time>2021-05-16T06:46:58Z</time>
      </trkpt>
      <trkpt lat="41.1907180" lon="-8.7009870">
        <ele>16.8</ele>
        <time>2021-05-16T06:46:59Z</time>
      </trkpt>
      <trkpt lat="41.1907150" lon="-8.7009950">
        <ele>16.8</ele>
        <time>2021-05-16T06:47:00Z</time>
      </trkpt>
      <trkpt lat="41.1907130" lon="-8.7009990">
        <ele>16.8</ele>
        <time>2021-05-16T06:47:01Z</time>
      </trkpt>
      <trkpt lat="41.1907080" lon="-8.7010120">
        <ele>16.8</ele>
        <time>2021-05-16T06:47:02Z</time>
      </trkpt>
      <trkpt lat="41.1907080" lon="-8.7010120">
        <ele>16.8</ele>
        <time>2021-05-16T06:47:03Z</time>
      </trkpt>
      <trkpt lat="41.1906950" lon="-8.7010150">
        <ele>16.8</ele>
        <time>2021-05-16T06:47:04Z</time>
      </trkpt>
      <trkpt lat="41.1906960" lon="-8.7010140">
        <ele>16.8</ele>
        <time>2021-05-16T06:47:05Z</time>
      </trkpt>
      <trkpt lat="41.1906860" lon="-8.7010270">
        <ele>16.8</ele>
        <time>2021-05-16T06:47:06Z</time>
      </trkpt>
      <trkpt lat="41.1906760" lon="-8.7010270">
        <ele>16.8</ele>
        <time>2021-05-16T06:47:07Z</time>
      </trkpt>
      <trkpt lat="41.1906650" lon="-8.7010320">
        <ele>16.8</ele>
        <time>2021-05-16T06:47:08Z</time>
      </trkpt>
      <trkpt lat="41.1906310" lon="-8.7010670">
        <ele>16.7</ele>
        <time>2021-05-16T06:47:09Z</time>
      </trkpt>
      <trkpt lat="41.1906380" lon="-8.7010810">
        <ele>16.7</ele>
        <time>2021-05-16T06:47:10Z</time>
      </trkpt>
      <trkpt lat="41.1906530" lon="-8.7010890">
        <ele>16.7</ele>
        <time>2021-05-16T06:47:11Z</time>
      </trkpt>
      <trkpt lat="41.1906690" lon="-8.7010980">
        <ele>16.7</ele>
        <time>2021-05-16T06:47:12Z</time>
      </trkpt>
      <trkpt lat="41.1906840" lon="-8.7011070">
        <ele>16.7</ele>
        <time>2021-05-16T06:47:13Z</time>
      </trkpt>
      <trkpt lat="41.1906580" lon="-8.7011140">
        <ele>16.7</ele>
        <time>2021-05-16T06:47:14Z</time>
      </trkpt>
      <trkpt lat="41.1906520" lon="-8.7011160">
        <ele>16.7</ele>
        <time>2021-05-16T06:47:15Z</time>
      </trkpt>
      <trkpt lat="41.1906460" lon="-8.7011190">
        <ele>16.7</ele>
        <time>2021-05-16T06:47:16Z</time>
      </trkpt>
      <trkpt lat="41.1906270" lon="-8.7011280">
        <ele>16.7</ele>
        <time>2021-05-16T06:47:17Z</time>
      </trkpt>
      <trkpt lat="41.1906170" lon="-8.7011280">
        <ele>16.7</ele>
        <time>2021-05-16T06:47:18Z</time>
      </trkpt>
      <trkpt lat="41.1906080" lon="-8.7011290">
        <ele>16.7</ele>
        <time>2021-05-16T06:47:19Z</time>
      </trkpt>
      <trkpt lat="41.1905940" lon="-8.7011210">
        <ele>16.7</ele>
        <time>2021-05-16T06:47:20Z</time>
      </trkpt>
      <trkpt lat="41.1905800" lon="-8.7011220">
        <ele>16.7</ele>
        <time>2021-05-16T06:47:21Z</time>
      </trkpt>
      <trkpt lat="41.1905760" lon="-8.7011340">
        <ele>16.7</ele>
        <time>2021-05-16T06:47:22Z</time>
      </trkpt>
      <trkpt lat="41.1905710" lon="-8.7011490">
        <ele>16.7</ele>
        <time>2021-05-16T06:47:23Z</time>
      </trkpt>
      <trkpt lat="41.1905650" lon="-8.7011610">
        <ele>16.7</ele>
        <time>2021-05-16T06:47:24Z</time>
      </trkpt>
      <trkpt lat="41.1905420" lon="-8.7011680">
        <ele>16.7</ele>
        <time>2021-05-16T06:47:25Z</time>
      </trkpt>
      <trkpt lat="41.1905320" lon="-8.7011720">
        <ele>16.7</ele>
        <time>2021-05-16T06:47:26Z</time>
      </trkpt>
      <trkpt lat="41.1905210" lon="-8.7011750">
        <ele>16.7</ele>
        <time>2021-05-16T06:47:27Z</time>
      </trkpt>
      <trkpt lat="41.1905000" lon="-8.7011890">
        <ele>16.7</ele>
        <time>2021-05-16T06:47:28Z</time>
      </trkpt>
      <trkpt lat="41.1904860" lon="-8.7011900">
        <ele>16.7</ele>
        <time>2021-05-16T06:47:29Z</time>
      </trkpt>
      <trkpt lat="41.1906950" lon="-8.7010640">
        <ele>16.7</ele>
        <time>2021-05-16T06:47:30Z</time>
      </trkpt>
      <trkpt lat="41.1907260" lon="-8.7010470">
        <ele>16.6</ele>
        <time>2021-05-16T06:47:31Z</time>
      </trkpt>
      <trkpt lat="41.1907220" lon="-8.7010540">
        <ele>16.6</ele>
        <time>2021-05-16T06:47:32Z</time>
      </trkpt>
      <trkpt lat="41.1907040" lon="-8.7010590">
        <ele>16.6</ele>
        <time>2021-05-16T06:47:33Z</time>
      </trkpt>
      <trkpt lat="41.1906870" lon="-8.7010640">
        <ele>16.6</ele>
        <time>2021-05-16T06:47:34Z</time>
      </trkpt>
      <trkpt lat="41.1907060" lon="-8.7010710">
        <ele>16.6</ele>
        <time>2021-05-16T06:47:35Z</time>
      </trkpt>
      <trkpt lat="41.1907040" lon="-8.7010610">
        <ele>16.6</ele>
        <time>2021-05-16T06:47:36Z</time>
      </trkpt>
      <trkpt lat="41.1907020" lon="-8.7010510">
        <ele>16.6</ele>
        <time>2021-05-16T06:47:37Z</time>
      </trkpt>
      <trkpt lat="41.1907000" lon="-8.7010410">
        <ele>16.6</ele>
        <time>2021-05-16T06:47:38Z</time>
      </trkpt>
      <trkpt lat="41.1906970" lon="-8.7010320">
        <ele>16.6</ele>
        <time>2021-05-16T06:47:39Z</time>
      </trkpt>
      <trkpt lat="41.1906950" lon="-8.7010220">
        <ele>16.6</ele>
        <time>2021-05-16T06:47:40Z</time>
      </trkpt>
      <trkpt lat="41.1906930" lon="-8.7010120">
        <ele>16.6</ele>
        <time>2021-05-16T06:47:41Z</time>
      </trkpt>
      <trkpt lat="41.1906910" lon="-8.7010020">
        <ele>16.6</ele>
        <time>2021-05-16T06:47:42Z</time>
      </trkpt>
      <trkpt lat="41.1907090" lon="-8.7009960">
        <ele>16.6</ele>
        <time>2021-05-16T06:47:43Z</time>
      </trkpt>
      <trkpt lat="41.1906900" lon="-8.7009990">
        <ele>16.6</ele>
        <time>2021-05-16T06:47:44Z</time>
      </trkpt>
      <trkpt lat="41.1907070" lon="-8.7009950">
        <ele>16.6</ele>
        <time>2021-05-16T06:47:45Z</time>
      </trkpt>
      <trkpt lat="41.1906840" lon="-8.7009980">
        <ele>16.6</ele>
        <time>2021-05-16T06:47:46Z</time>
      </trkpt>
      <trkpt lat="41.1906990" lon="-8.7010260">
        <ele>16.6</ele>
        <time>2021-05-16T06:47:47Z</time>
      </trkpt>
      <trkpt lat="41.1907060" lon="-8.7010340">
        <ele>16.6</ele>
        <time>2021-05-16T06:47:48Z</time>
      </trkpt>
      <trkpt lat="41.1906940" lon="-8.7010420">
        <ele>16.6</ele>
        <time>2021-05-16T06:47:49Z</time>
      </trkpt>
      <trkpt lat="41.1906790" lon="-8.7010530">
        <ele>16.6</ele>
        <time>2021-05-16T06:47:50Z</time>
      </trkpt>
      <trkpt lat="41.1906640" lon="-8.7010640">
        <ele>16.6</ele>
        <time>2021-05-16T06:47:51Z</time>
      </trkpt>
      <trkpt lat="41.1906490" lon="-8.7010750">
        <ele>16.6</ele>
        <time>2021-05-16T06:47:52Z</time>
      </trkpt>
      <trkpt lat="41.1906200" lon="-8.7010850">
        <ele>16.6</ele>
        <time>2021-05-16T06:47:53Z</time>
      </trkpt>
      <trkpt lat="41.1906180" lon="-8.7010940">
        <ele>16.6</ele>
        <time>2021-05-16T06:47:54Z</time>
      </trkpt>
      <trkpt lat="41.1906080" lon="-8.7011180">
        <ele>16.6</ele>
        <time>2021-05-16T06:47:55Z</time>
      </trkpt>
      <trkpt lat="41.1905930" lon="-8.7011340">
        <ele>16.6</ele>
        <time>2021-05-16T06:47:57Z</time>
      </trkpt>
      <trkpt lat="41.1905800" lon="-8.7011400">
        <ele>16.6</ele>
        <time>2021-05-16T06:47:58Z</time>
      </trkpt>
      <trkpt lat="41.1905680" lon="-8.7011460">
        <ele>16.6</ele>
        <time>2021-05-16T06:47:59Z</time>
      </trkpt>
      <trkpt lat="41.1905560" lon="-8.7011520">
        <ele>16.6</ele>
        <time>2021-05-16T06:48:00Z</time>
      </trkpt>
      <trkpt lat="41.1905430" lon="-8.7011580">
        <ele>16.6</ele>
        <time>2021-05-16T06:48:01Z</time>
      </trkpt>
      <trkpt lat="41.1905310" lon="-8.7011640">
        <ele>16.6</ele>
        <time>2021-05-16T06:48:02Z</time>
      </trkpt>
      <trkpt lat="41.1905300" lon="-8.7011550">
        <ele>16.6</ele>
        <time>2021-05-16T06:48:03Z</time>
      </trkpt>
      <trkpt lat="41.1905150" lon="-8.7011430">
        <ele>16.6</ele>
        <time>2021-05-16T06:48:04Z</time>
      </trkpt>
      <trkpt lat="41.1905160" lon="-8.7011340">
        <ele>16.6</ele>
        <time>2021-05-16T06:48:05Z</time>
      </trkpt>
      <trkpt lat="41.1905210" lon="-8.7011250">
        <ele>16.6</ele>
        <time>2021-05-16T06:48:06Z</time>
      </trkpt>
      <trkpt lat="41.1905250" lon="-8.7011190">
        <ele>16.6</ele>
        <time>2021-05-16T06:48:07Z</time>
      </trkpt>
      <trkpt lat="41.1905370" lon="-8.7011160">
        <ele>16.6</ele>
        <time>2021-05-16T06:48:08Z</time>
      </trkpt>
      <trkpt lat="41.1905480" lon="-8.7011130">
        <ele>16.6</ele>
        <time>2021-05-16T06:48:09Z</time>
      </trkpt>
      <trkpt lat="41.1905600" lon="-8.7011100">
        <ele>16.6</ele>
        <time>2021-05-16T06:48:10Z</time>
      </trkpt>
      <trkpt lat="41.1905710" lon="-8.7011070">
        <ele>16.6</ele>
        <time>2021-05-16T06:48:11Z</time>
      </trkpt>
      <trkpt lat="41.1906080" lon="-8.7010930">
        <ele>16.5</ele>
        <time>2021-05-16T06:48:12Z</time>
      </trkpt>
      <trkpt lat="41.1906200" lon="-8.7010920">
        <ele>16.5</ele>
        <time>2021-05-16T06:48:13Z</time>
      </trkpt>
      <trkpt lat="41.1906220" lon="-8.7010830">
        <ele>16.5</ele>
        <time>2021-05-16T06:48:14Z</time>
      </trkpt>
      <trkpt lat="41.1906320" lon="-8.7010770">
        <ele>16.5</ele>
        <time>2021-05-16T06:48:15Z</time>
      </trkpt>
      <trkpt lat="41.1906150" lon="-8.7010780">
        <ele>16.5</ele>
        <time>2021-05-16T06:48:16Z</time>
      </trkpt>
      <trkpt lat="41.1905950" lon="-8.7010850">
        <ele>16.5</ele>
        <time>2021-05-16T06:48:17Z</time>
      </trkpt>
      <trkpt lat="41.1905930" lon="-8.7010990">
        <ele>16.5</ele>
        <time>2021-05-16T06:48:18Z</time>
      </trkpt>
      <trkpt lat="41.1905990" lon="-8.7010970">
        <ele>16.5</ele>
        <time>2021-05-16T06:48:19Z</time>
      </trkpt>
      <trkpt lat="41.1906070" lon="-8.7010880">
        <ele>16.5</ele>
        <time>2021-05-16T06:48:20Z</time>
      </trkpt>
      <trkpt lat="41.1906160" lon="-8.7010820">
        <ele>16.5</ele>
        <time>2021-05-16T06:48:21Z</time>
      </trkpt>
      <trkpt lat="41.1905930" lon="-8.7010780">
        <ele>16.5</ele>
        <time>2021-05-16T06:48:22Z</time>
      </trkpt>
      <trkpt lat="41.1905730" lon="-8.7010770">
        <ele>16.5</ele>
        <time>2021-05-16T06:48:23Z</time>
      </trkpt>
      <trkpt lat="41.1905640" lon="-8.7010780">
        <ele>16.5</ele>
        <time>2021-05-16T06:48:24Z</time>
      </trkpt>
      <trkpt lat="41.1905590" lon="-8.7010710">
        <ele>16.5</ele>
        <time>2021-05-16T06:48:25Z</time>
      </trkpt>
      <trkpt lat="41.1905560" lon="-8.7010740">
        <ele>16.5</ele>
        <time>2021-05-16T06:48:26Z</time>
      </trkpt>
      <trkpt lat="41.1905530" lon="-8.7010780">
        <ele>16.5</ele>
        <time>2021-05-16T06:48:27Z</time>
      </trkpt>
      <trkpt lat="41.1905500" lon="-8.7010810">
        <ele>16.5</ele>
        <time>2021-05-16T06:48:28Z</time>
      </trkpt>
      <trkpt lat="41.1905470" lon="-8.7010840">
        <ele>16.5</ele>
        <time>2021-05-16T06:48:29Z</time>
      </trkpt>
      <trkpt lat="41.1905440" lon="-8.7010870">
        <ele>16.5</ele>
        <time>2021-05-16T06:48:30Z</time>
      </trkpt>
      <trkpt lat="41.1905410" lon="-8.7010900">
        <ele>16.5</ele>
        <time>2021-05-16T06:48:31Z</time>
      </trkpt>
      <trkpt lat="41.1905380" lon="-8.7010940">
        <ele>16.5</ele>
        <time>2021-05-16T06:48:32Z</time>
      </trkpt>
      <trkpt lat="41.1905350" lon="-8.7010970">
        <ele>16.5</ele>
        <time>2021-05-16T06:48:33Z</time>
      </trkpt>
      <trkpt lat="41.1905320" lon="-8.7011000">
        <ele>16.5</ele>
        <time>2021-05-16T06:48:34Z</time>
      </trkpt>
      <trkpt lat="41.1905290" lon="-8.7011030">
        <ele>16.5</ele>
        <time>2021-05-16T06:48:35Z</time>
      </trkpt>
      <trkpt lat="41.1905260" lon="-8.7011060">
        <ele>16.5</ele>
        <time>2021-05-16T06:48:36Z</time>
      </trkpt>
      <trkpt lat="41.1905230" lon="-8.7011090">
        <ele>16.5</ele>
        <time>2021-05-16T06:48:37Z</time>
      </trkpt>
      <trkpt lat="41.1905200" lon="-8.7011130">
        <ele>16.5</ele>
        <time>2021-05-16T06:48:38Z</time>
      </trkpt>
      <trkpt lat="41.1905170" lon="-8.7011160">
        <ele>16.5</ele>
        <time>2021-05-16T06:48:39Z</time>
      </trkpt>
      <trkpt lat="41.1905140" lon="-8.7011190">
        <ele>16.5</ele>
        <time>2021-05-16T06:48:40Z</time>
      </trkpt>
      <trkpt lat="41.1905670" lon="-8.7010840">
        <ele>16.5</ele>
        <time>2021-05-16T06:48:41Z</time>
      </trkpt>
      <trkpt lat="41.1906070" lon="-8.7010650">
        <ele>16.5</ele>
        <time>2021-05-16T06:48:42Z</time>
      </trkpt>
      <trkpt lat="41.1906770" lon="-8.7010610">
        <ele>16.5</ele>
        <time>2021-05-16T06:48:43Z</time>
      </trkpt>
      <trkpt lat="41.1907100" lon="-8.7010650">
        <ele>16.5</ele>
        <time>2021-05-16T06:48:44Z</time>
      </trkpt>
      <trkpt lat="41.1907710" lon="-8.7010430">
        <ele>16.5</ele>
        <time>2021-05-16T06:48:45Z</time>
      </trkpt>
      <trkpt lat="41.1907420" lon="-8.7010440">
        <ele>16.5</ele>
        <time>2021-05-16T06:48:46Z</time>
      </trkpt>
      <trkpt lat="41.1907140" lon="-8.7010440">
        <ele>16.5</ele>
        <time>2021-05-16T06:48:47Z</time>
      </trkpt>
      <trkpt lat="41.1906850" lon="-8.7010450">
        <ele>16.5</ele>
        <time>2021-05-16T06:48:48Z</time>
      </trkpt>
      <trkpt lat="41.1906570" lon="-8.7010450">
        <ele>16.5</ele>
        <time>2021-05-16T06:48:49Z</time>
      </trkpt>
      <trkpt lat="41.1906280" lon="-8.7010460">
        <ele>16.5</ele>
        <time>2021-05-16T06:48:50Z</time>
      </trkpt>
      <trkpt lat="41.1905990" lon="-8.7010460">
        <ele>16.5</ele>
        <time>2021-05-16T06:48:51Z</time>
      </trkpt>
      <trkpt lat="41.1905710" lon="-8.7010470">
        <ele>16.4</ele>
        <time>2021-05-16T06:48:52Z</time>
      </trkpt>
      <trkpt lat="41.1905420" lon="-8.7010470">
        <ele>16.4</ele>
        <time>2021-05-16T06:48:53Z</time>
      </trkpt>
      <trkpt lat="41.1905210" lon="-8.7010670">
        <ele>16.3</ele>
        <time>2021-05-16T06:48:54Z</time>
      </trkpt>
      <trkpt lat="41.1905080" lon="-8.7010730">
        <ele>16.3</ele>
        <time>2021-05-16T06:48:55Z</time>
      </trkpt>
      <trkpt lat="41.1904940" lon="-8.7010780">
        <ele>16.3</ele>
        <time>2021-05-16T06:48:56Z</time>
      </trkpt>
      <trkpt lat="41.1904530" lon="-8.7010780">
        <ele>16.2</ele>
        <time>2021-05-16T06:48:57Z</time>
      </trkpt>
      <trkpt lat="41.1904160" lon="-8.7010800">
        <ele>16.2</ele>
        <time>2021-05-16T06:48:58Z</time>
      </trkpt>
      <trkpt lat="41.1903670" lon="-8.7010810">
        <ele>16.1</ele>
        <time>2021-05-16T06:49:00Z</time>
      </trkpt>
      <trkpt lat="41.1902970" lon="-8.7011200">
        <ele>16.0</ele>
        <time>2021-05-16T06:49:01Z</time>
      </trkpt>
      <trkpt lat="41.1903450" lon="-8.7011230">
        <ele>15.9</ele>
        <time>2021-05-16T06:49:02Z</time>
      </trkpt>
      <trkpt lat="41.1903380" lon="-8.7011170">
        <ele>15.9</ele>
        <time>2021-05-16T06:49:03Z</time>
      </trkpt>
      <trkpt lat="41.1903230" lon="-8.7011140">
        <ele>15.8</ele>
        <time>2021-05-16T06:49:04Z</time>
      </trkpt>
      <trkpt lat="41.1903080" lon="-8.7011100">
        <ele>15.8</ele>
        <time>2021-05-16T06:49:05Z</time>
      </trkpt>
      <trkpt lat="41.1902930" lon="-8.7011070">
        <ele>15.8</ele>
        <time>2021-05-16T06:49:06Z</time>
      </trkpt>
      <trkpt lat="41.1902780" lon="-8.7011040">
        <ele>15.8</ele>
        <time>2021-05-16T06:49:07Z</time>
      </trkpt>
      <trkpt lat="41.1902460" lon="-8.7010990">
        <ele>15.7</ele>
        <time>2021-05-16T06:49:08Z</time>
      </trkpt>
      <trkpt lat="41.1902380" lon="-8.7011190">
        <ele>15.7</ele>
        <time>2021-05-16T06:49:09Z</time>
      </trkpt>
      <trkpt lat="41.1902240" lon="-8.7011350">
        <ele>15.6</ele>
        <time>2021-05-16T06:49:11Z</time>
      </trkpt>
      <trkpt lat="41.1901890" lon="-8.7011180">
        <ele>15.5</ele>
        <time>2021-05-16T06:49:12Z</time>
      </trkpt>
      <trkpt lat="41.1901570" lon="-8.7011080">
        <ele>15.6</ele>
        <time>2021-05-16T06:49:13Z</time>
      </trkpt>
      <trkpt lat="41.1901210" lon="-8.7011060">
        <ele>15.7</ele>
        <time>2021-05-16T06:49:14Z</time>
      </trkpt>
      <trkpt lat="41.1901090" lon="-8.7011070">
        <ele>15.7</ele>
        <time>2021-05-16T06:49:15Z</time>
      </trkpt>
      <trkpt lat="41.1904750" lon="-8.7010320">
        <ele>16.3</ele>
        <time>2021-05-16T06:49:16Z</time>
      </trkpt>
      <trkpt lat="41.1904810" lon="-8.7010310">
        <ele>16.3</ele>
        <time>2021-05-16T06:49:17Z</time>
      </trkpt>
      <trkpt lat="41.1905520" lon="-8.7010240">
        <ele>16.4</ele>
        <time>2021-05-16T06:49:18Z</time>
      </trkpt>
      <trkpt lat="41.1907290" lon="-8.7009800">
        <ele>16.7</ele>
        <time>2021-05-16T06:49:19Z</time>
      </trkpt>
      <trkpt lat="41.1907300" lon="-8.7009790">
        <ele>16.7</ele>
        <time>2021-05-16T06:49:20Z</time>
      </trkpt>
      <trkpt lat="41.1907430" lon="-8.7009800">
        <ele>16.7</ele>
        <time>2021-05-16T06:49:21Z</time>
      </trkpt>
      <trkpt lat="41.1907460" lon="-8.7009810">
        <ele>16.7</ele>
        <time>2021-05-16T06:49:22Z</time>
      </trkpt>
      <trkpt lat="41.1907440" lon="-8.7009830">
        <ele>16.7</ele>
        <time>2021-05-16T06:49:23Z</time>
      </trkpt>
      <trkpt lat="41.1907380" lon="-8.7009740">
        <ele>16.7</ele>
        <time>2021-05-16T06:49:24Z</time>
      </trkpt>
      <trkpt lat="41.1907320" lon="-8.7009650">
        <ele>16.7</ele>
        <time>2021-05-16T06:49:25Z</time>
      </trkpt>
      <trkpt lat="41.1907290" lon="-8.7009820">
        <ele>16.7</ele>
        <time>2021-05-16T06:49:26Z</time>
      </trkpt>
      <trkpt lat="41.1907450" lon="-8.7009570">
        <ele>16.7</ele>
        <time>2021-05-16T06:49:27Z</time>
      </trkpt>
      <trkpt lat="41.1907370" lon="-8.7009610">
        <ele>16.7</ele>
        <time>2021-05-16T06:49:28Z</time>
      </trkpt>
      <trkpt lat="41.1907140" lon="-8.7009690">
        <ele>16.7</ele>
        <time>2021-05-16T06:49:29Z</time>
      </trkpt>
      <trkpt lat="41.1906950" lon="-8.7009680">
        <ele>16.7</ele>
        <time>2021-05-16T06:49:30Z</time>
      </trkpt>
      <trkpt lat="41.1907000" lon="-8.7009710">
        <ele>16.7</ele>
        <time>2021-05-16T06:49:31Z</time>
      </trkpt>
      <trkpt lat="41.1907140" lon="-8.7009700">
        <ele>16.7</ele>
        <time>2021-05-16T06:49:32Z</time>
      </trkpt>
      <trkpt lat="41.1907290" lon="-8.7009680">
        <ele>16.8</ele>
        <time>2021-05-16T06:49:33Z</time>
      </trkpt>
      <trkpt lat="41.1907430" lon="-8.7009670">
        <ele>16.8</ele>
        <time>2021-05-16T06:49:34Z</time>
      </trkpt>
      <trkpt lat="41.1907570" lon="-8.7009650">
        <ele>16.8</ele>
        <time>2021-05-16T06:49:35Z</time>
      </trkpt>
      <trkpt lat="41.1907970" lon="-8.7009630">
        <ele>16.8</ele>
        <time>2021-05-16T06:49:36Z</time>
      </trkpt>
      <trkpt lat="41.1907960" lon="-8.7009750">
        <ele>16.8</ele>
        <time>2021-05-16T06:49:37Z</time>
      </trkpt>
      <trkpt lat="41.1907950" lon="-8.7009880">
        <ele>16.8</ele>
        <time>2021-05-16T06:49:38Z</time>
      </trkpt>
      <trkpt lat="41.1907940" lon="-8.7010020">
        <ele>16.8</ele>
        <time>2021-05-16T06:49:39Z</time>
      </trkpt>
      <trkpt lat="41.1907930" lon="-8.7010160">
        <ele>16.8</ele>
        <time>2021-05-16T06:49:40Z</time>
      </trkpt>
      <trkpt lat="41.1907930" lon="-8.7010290">
        <ele>16.8</ele>
        <time>2021-05-16T06:49:41Z</time>
      </trkpt>
      <trkpt lat="41.1907920" lon="-8.7010430">
        <ele>16.8</ele>
        <time>2021-05-16T06:49:42Z</time>
      </trkpt>
      <trkpt lat="41.1907910" lon="-8.7010570">
        <ele>16.9</ele>
        <time>2021-05-16T06:49:43Z</time>
      </trkpt>
      <trkpt lat="41.1907900" lon="-8.7010700">
        <ele>16.9</ele>
        <time>2021-05-16T06:49:44Z</time>
      </trkpt>
      <trkpt lat="41.1907890" lon="-8.7010840">
        <ele>16.9</ele>
        <time>2021-05-16T06:49:45Z</time>
      </trkpt>
      <trkpt lat="41.1908150" lon="-8.7010440">
        <ele>16.9</ele>
        <time>2021-05-16T06:49:46Z</time>
      </trkpt>
      <trkpt lat="41.1908510" lon="-8.7010030">
        <ele>16.9</ele>
        <time>2021-05-16T06:49:47Z</time>
      </trkpt>
      <trkpt lat="41.1908730" lon="-8.7009870">
        <ele>17.0</ele>
        <time>2021-05-16T06:49:48Z</time>
      </trkpt>
      <trkpt lat="41.1908250" lon="-8.7010110">
        <ele>16.8</ele>
        <time>2021-05-16T06:49:49Z</time>
      </trkpt>
      <trkpt lat="41.1907460" lon="-8.7010490">
        <ele>16.7</ele>
        <time>2021-05-16T06:49:50Z</time>
      </trkpt>
      <trkpt lat="41.1906830" lon="-8.7010710">
        <ele>16.6</ele>
        <time>2021-05-16T06:49:51Z</time>
      </trkpt>
      <trkpt lat="41.1906190" lon="-8.7010940">
        <ele>16.5</ele>
        <time>2021-05-16T06:49:52Z</time>
      </trkpt>
      <trkpt lat="41.1906390" lon="-8.7011030">
        <ele>16.4</ele>
        <time>2021-05-16T06:49:53Z</time>
      </trkpt>
      <trkpt lat="41.1906620" lon="-8.7011010">
        <ele>16.4</ele>
        <time>2021-05-16T06:49:54Z</time>
      </trkpt>
      <trkpt lat="41.1906610" lon="-8.7011010">
        <ele>16.4</ele>
        <time>2021-05-16T06:49:55Z</time>
      </trkpt>
      <trkpt lat="41.1906510" lon="-8.7011070">
        <ele>16.4</ele>
        <time>2021-05-16T06:49:56Z</time>
      </trkpt>
      <trkpt lat="41.1906680" lon="-8.7011010">
        <ele>16.4</ele>
        <time>2021-05-16T06:49:57Z</time>
      </trkpt>
      <trkpt lat="41.1906690" lon="-8.7010980">
        <ele>16.4</ele>
        <time>2021-05-16T06:49:58Z</time>
      </trkpt>
      <trkpt lat="41.1906660" lon="-8.7010930">
        <ele>16.4</ele>
        <time>2021-05-16T06:49:59Z</time>
      </trkpt>
      <trkpt lat="41.1906680" lon="-8.7010920">
        <ele>16.4</ele>
        <time>2021-05-16T06:50:00Z</time>
      </trkpt>
      <trkpt lat="41.1906670" lon="-8.7010910">
        <ele>16.4</ele>
        <time>2021-05-16T06:50:01Z</time>
      </trkpt>
      <trkpt lat="41.1906630" lon="-8.7010910">
        <ele>16.4</ele>
        <time>2021-05-16T06:50:02Z</time>
      </trkpt>
      <trkpt lat="41.1906530" lon="-8.7010910">
        <ele>16.4</ele>
        <time>2021-05-16T06:50:03Z</time>
      </trkpt>
      <trkpt lat="41.1906550" lon="-8.7010910">
        <ele>16.4</ele>
        <time>2021-05-16T06:50:04Z</time>
      </trkpt>
      <trkpt lat="41.1906570" lon="-8.7010830">
        <ele>16.4</ele>
        <time>2021-05-16T06:50:05Z</time>
      </trkpt>
      <trkpt lat="41.1906610" lon="-8.7010840">
        <ele>16.4</ele>
        <time>2021-05-16T06:50:06Z</time>
      </trkpt>
      <trkpt lat="41.1906650" lon="-8.7010840">
        <ele>16.4</ele>
        <time>2021-05-16T06:50:07Z</time>
      </trkpt>
      <trkpt lat="41.1906600" lon="-8.7010880">
        <ele>16.4</ele>
        <time>2021-05-16T06:50:08Z</time>
      </trkpt>
      <trkpt lat="41.1906640" lon="-8.7010890">
        <ele>16.4</ele>
        <time>2021-05-16T06:50:09Z</time>
      </trkpt>
      <trkpt lat="41.1906660" lon="-8.7010870">
        <ele>16.4</ele>
        <time>2021-05-16T06:50:10Z</time>
      </trkpt>
      <trkpt lat="41.1906640" lon="-8.7010930">
        <ele>16.4</ele>
        <time>2021-05-16T06:50:11Z</time>
      </trkpt>
      <trkpt lat="41.1906610" lon="-8.7010930">
        <ele>16.4</ele>
        <time>2021-05-16T06:50:12Z</time>
      </trkpt>
      <trkpt lat="41.1906580" lon="-8.7010970">
        <ele>16.4</ele>
        <time>2021-05-16T06:50:13Z</time>
      </trkpt>
      <trkpt lat="41.1906530" lon="-8.7010970">
        <ele>16.4</ele>
        <time>2021-05-16T06:50:14Z</time>
      </trkpt>
      <trkpt lat="41.1906610" lon="-8.7010920">
        <ele>16.4</ele>
        <time>2021-05-16T06:50:15Z</time>
      </trkpt>
      <trkpt lat="41.1906640" lon="-8.7010990">
        <ele>16.4</ele>
        <time>2021-05-16T06:50:16Z</time>
      </trkpt>
      <trkpt lat="41.1906560" lon="-8.7010990">
        <ele>16.4</ele>
        <time>2021-05-16T06:50:17Z</time>
      </trkpt>
      <trkpt lat="41.1906470" lon="-8.7010990">
        <ele>16.4</ele>
        <time>2021-05-16T06:50:18Z</time>
      </trkpt>
      <trkpt lat="41.1906500" lon="-8.7010940">
        <ele>16.4</ele>
        <time>2021-05-16T06:50:19Z</time>
      </trkpt>
      <trkpt lat="41.1906500" lon="-8.7010950">
        <ele>16.4</ele>
        <time>2021-05-16T06:50:20Z</time>
      </trkpt>
      <trkpt lat="41.1906470" lon="-8.7010950">
        <ele>16.4</ele>
        <time>2021-05-16T06:50:21Z</time>
      </trkpt>
      <trkpt lat="41.1906500" lon="-8.7010940">
        <ele>16.4</ele>
        <time>2021-05-16T06:50:22Z</time>
      </trkpt>
      <trkpt lat="41.1906490" lon="-8.7010920">
        <ele>16.4</ele>
        <time>2021-05-16T06:50:23Z</time>
      </trkpt>
      <trkpt lat="41.1906500" lon="-8.7010950">
        <ele>16.4</ele>
        <time>2021-05-16T06:50:24Z</time>
      </trkpt>
      <trkpt lat="41.1906460" lon="-8.7010970">
        <ele>16.4</ele>
        <time>2021-05-16T06:50:25Z</time>
      </trkpt>
      <trkpt lat="41.1906450" lon="-8.7010980">
        <ele>16.4</ele>
        <time>2021-05-16T06:50:26Z</time>
      </trkpt>
      <trkpt lat="41.1906470" lon="-8.7010970">
        <ele>16.4</ele>
        <time>2021-05-16T06:50:27Z</time>
      </trkpt>
      <trkpt lat="41.1906500" lon="-8.7010960">
        <ele>16.4</ele>
        <time>2021-05-16T06:50:28Z</time>
      </trkpt>
      <trkpt lat="41.1906480" lon="-8.7010870">
        <ele>16.4</ele>
        <time>2021-05-16T06:50:29Z</time>
      </trkpt>
      <trkpt lat="41.1906480" lon="-8.7010800">
        <ele>16.4</ele>
        <time>2021-05-16T06:50:30Z</time>
      </trkpt>
      <trkpt lat="41.1906510" lon="-8.7010750">
        <ele>16.4</ele>
        <time>2021-05-16T06:50:31Z</time>
      </trkpt>
      <trkpt lat="41.1906580" lon="-8.7010740">
        <ele>16.4</ele>
        <time>2021-05-16T06:50:32Z</time>
      </trkpt>
      <trkpt lat="41.1906570" lon="-8.7010700">
        <ele>16.4</ele>
        <time>2021-05-16T06:50:33Z</time>
      </trkpt>
      <trkpt lat="41.1906550" lon="-8.7010600">
        <ele>16.4</ele>
        <time>2021-05-16T06:50:34Z</time>
      </trkpt>
      <trkpt lat="41.1906550" lon="-8.7010600">
        <ele>16.4</ele>
        <time>2021-05-16T06:50:35Z</time>
      </trkpt>
      <trkpt lat="41.1906290" lon="-8.7010290">
        <ele>16.4</ele>
        <time>2021-05-16T06:50:36Z</time>
      </trkpt>
      <trkpt lat="41.1906270" lon="-8.7010290">
        <ele>16.4</ele>
        <time>2021-05-16T06:50:37Z</time>
      </trkpt>
      <trkpt lat="41.1906290" lon="-8.7010350">
        <ele>16.4</ele>
        <time>2021-05-16T06:50:38Z</time>
      </trkpt>
      <trkpt lat="41.1906300" lon="-8.7010410">
        <ele>16.4</ele>
        <time>2021-05-16T06:50:39Z</time>
      </trkpt>
      <trkpt lat="41.1906310" lon="-8.7010470">
        <ele>16.4</ele>
        <time>2021-05-16T06:50:40Z</time>
      </trkpt>
      <trkpt lat="41.1906330" lon="-8.7010530">
        <ele>16.4</ele>
        <time>2021-05-16T06:50:41Z</time>
      </trkpt>
      <trkpt lat="41.1906340" lon="-8.7010590">
        <ele>16.4</ele>
        <time>2021-05-16T06:50:42Z</time>
      </trkpt>
      <trkpt lat="41.1906350" lon="-8.7010650">
        <ele>16.4</ele>
        <time>2021-05-16T06:50:43Z</time>
      </trkpt>
      <trkpt lat="41.1906360" lon="-8.7010710">
        <ele>16.4</ele>
        <time>2021-05-16T06:50:44Z</time>
      </trkpt>
      <trkpt lat="41.1906380" lon="-8.7010770">
        <ele>16.4</ele>
        <time>2021-05-16T06:50:45Z</time>
      </trkpt>
      <trkpt lat="41.1906390" lon="-8.7010830">
        <ele>16.4</ele>
        <time>2021-05-16T06:50:46Z</time>
      </trkpt>
      <trkpt lat="41.1906290" lon="-8.7011080">
        <ele>16.4</ele>
        <time>2021-05-16T06:50:47Z</time>
      </trkpt>
      <trkpt lat="41.1906210" lon="-8.7011120">
        <ele>16.4</ele>
        <time>2021-05-16T06:50:48Z</time>
      </trkpt>
      <trkpt lat="41.1906260" lon="-8.7011160">
        <ele>16.4</ele>
        <time>2021-05-16T06:50:49Z</time>
      </trkpt>
      <trkpt lat="41.1906280" lon="-8.7011240">
        <ele>16.4</ele>
        <time>2021-05-16T06:50:50Z</time>
      </trkpt>
      <trkpt lat="41.1906130" lon="-8.7011470">
        <ele>16.4</ele>
        <time>2021-05-16T06:50:51Z</time>
      </trkpt>
      <trkpt lat="41.1906110" lon="-8.7011480">
        <ele>16.4</ele>
        <time>2021-05-16T06:50:52Z</time>
      </trkpt>
      <trkpt lat="41.1906030" lon="-8.7011730">
        <ele>16.4</ele>
        <time>2021-05-16T06:50:53Z</time>
      </trkpt>
      <trkpt lat="41.1906010" lon="-8.7011870">
        <ele>16.4</ele>
        <time>2021-05-16T06:50:54Z</time>
      </trkpt>
      <trkpt lat="41.1905950" lon="-8.7012180">
        <ele>16.4</ele>
        <time>2021-05-16T06:50:55Z</time>
      </trkpt>
      <trkpt lat="41.1906020" lon="-8.7012270">
        <ele>16.4</ele>
        <time>2021-05-16T06:50:57Z</time>
      </trkpt>
      <trkpt lat="41.1906080" lon="-8.7012360">
        <ele>16.5</ele>
        <time>2021-05-16T06:50:58Z</time>
      </trkpt>
      <trkpt lat="41.1905910" lon="-8.7012530">
        <ele>16.5</ele>
        <time>2021-05-16T06:50:59Z</time>
      </trkpt>
      <trkpt lat="41.1905860" lon="-8.7012640">
        <ele>16.5</ele>
        <time>2021-05-16T06:51:00Z</time>
      </trkpt>
      <trkpt lat="41.1905810" lon="-8.7012790">
        <ele>16.5</ele>
        <time>2021-05-16T06:51:01Z</time>
      </trkpt>
      <trkpt lat="41.1905820" lon="-8.7012920">
        <ele>16.5</ele>
        <time>2021-05-16T06:51:02Z</time>
      </trkpt>
      <trkpt lat="41.1905870" lon="-8.7013040">
        <ele>16.5</ele>
        <time>2021-05-16T06:51:03Z</time>
      </trkpt>
      <trkpt lat="41.1905790" lon="-8.7013270">
        <ele>16.5</ele>
        <time>2021-05-16T06:51:04Z</time>
      </trkpt>
      <trkpt lat="41.1905920" lon="-8.7013400">
        <ele>16.5</ele>
        <time>2021-05-16T06:51:05Z</time>
      </trkpt>
      <trkpt lat="41.1905720" lon="-8.7013680">
        <ele>16.5</ele>
        <time>2021-05-16T06:51:06Z</time>
      </trkpt>
      <trkpt lat="41.1905680" lon="-8.7013800">
        <ele>16.5</ele>
        <time>2021-05-16T06:51:07Z</time>
      </trkpt>
      <trkpt lat="41.1905630" lon="-8.7014210">
        <ele>16.5</ele>
        <time>2021-05-16T06:51:08Z</time>
      </trkpt>
      <trkpt lat="41.1905630" lon="-8.7014360">
        <ele>16.5</ele>
        <time>2021-05-16T06:51:09Z</time>
      </trkpt>
      <trkpt lat="41.1905550" lon="-8.7014730">
        <ele>16.5</ele>
        <time>2021-05-16T06:51:10Z</time>
      </trkpt>
      <trkpt lat="41.1905520" lon="-8.7014830">
        <ele>16.5</ele>
        <time>2021-05-16T06:51:11Z</time>
      </trkpt>
      <trkpt lat="41.1905500" lon="-8.7015070">
        <ele>16.5</ele>
        <time>2021-05-16T06:51:12Z</time>
      </trkpt>
      <trkpt lat="41.1905470" lon="-8.7015200">
        <ele>16.5</ele>
        <time>2021-05-16T06:51:13Z</time>
      </trkpt>
      <trkpt lat="41.1905430" lon="-8.7015320">
        <ele>16.5</ele>
        <time>2021-05-16T06:51:14Z</time>
      </trkpt>
      <trkpt lat="41.1905470" lon="-8.7015500">
        <ele>16.5</ele>
        <time>2021-05-16T06:51:15Z</time>
      </trkpt>
      <trkpt lat="41.1905500" lon="-8.7015770">
        <ele>16.5</ele>
        <time>2021-05-16T06:51:16Z</time>
      </trkpt>
      <trkpt lat="41.1905470" lon="-8.7016060">
        <ele>16.5</ele>
        <time>2021-05-16T06:51:17Z</time>
      </trkpt>
      <trkpt lat="41.1905430" lon="-8.7016240">
        <ele>16.5</ele>
        <time>2021-05-16T06:51:18Z</time>
      </trkpt>
      <trkpt lat="41.1905430" lon="-8.7016560">
        <ele>16.5</ele>
        <time>2021-05-16T06:51:19Z</time>
      </trkpt>
      <trkpt lat="41.1905420" lon="-8.7016740">
        <ele>16.5</ele>
        <time>2021-05-16T06:51:20Z</time>
      </trkpt>
      <trkpt lat="41.1905400" lon="-8.7016920">
        <ele>16.5</ele>
        <time>2021-05-16T06:51:21Z</time>
      </trkpt>
      <trkpt lat="41.1905280" lon="-8.7017180">
        <ele>16.5</ele>
        <time>2021-05-16T06:51:22Z</time>
      </trkpt>
      <trkpt lat="41.1905180" lon="-8.7017280">
        <ele>16.5</ele>
        <time>2021-05-16T06:51:23Z</time>
      </trkpt>
      <trkpt lat="41.1905300" lon="-8.7017490">
        <ele>16.5</ele>
        <time>2021-05-16T06:51:24Z</time>
      </trkpt>
      <trkpt lat="41.1905160" lon="-8.7017680">
        <ele>16.5</ele>
        <time>2021-05-16T06:51:25Z</time>
      </trkpt>
      <trkpt lat="41.1905290" lon="-8.7018050">
        <ele>16.5</ele>
        <time>2021-05-16T06:51:26Z</time>
      </trkpt>
      <trkpt lat="41.1905340" lon="-8.7018110">
        <ele>16.5</ele>
        <time>2021-05-16T06:51:27Z</time>
      </trkpt>
      <trkpt lat="41.1905370" lon="-8.7018480">
        <ele>16.6</ele>
        <time>2021-05-16T06:51:28Z</time>
      </trkpt>
      <trkpt lat="41.1905350" lon="-8.7018640">
        <ele>16.6</ele>
        <time>2021-05-16T06:51:29Z</time>
      </trkpt>
      <trkpt lat="41.1905200" lon="-8.7018860">
        <ele>16.6</ele>
        <time>2021-05-16T06:51:30Z</time>
      </trkpt>
      <trkpt lat="41.1905270" lon="-8.7019030">
        <ele>16.6</ele>
        <time>2021-05-16T06:51:31Z</time>
      </trkpt>
      <trkpt lat="41.1905200" lon="-8.7019140">
        <ele>16.6</ele>
        <time>2021-05-16T06:51:32Z</time>
      </trkpt>
      <trkpt lat="41.1905210" lon="-8.7019340">
        <ele>16.6</ele>
        <time>2021-05-16T06:51:33Z</time>
      </trkpt>
      <trkpt lat="41.1905180" lon="-8.7019440">
        <ele>16.5</ele>
        <time>2021-05-16T06:51:34Z</time>
      </trkpt>
      <trkpt lat="41.1905230" lon="-8.7019620">
        <ele>16.5</ele>
        <time>2021-05-16T06:51:35Z</time>
      </trkpt>
      <trkpt lat="41.1905260" lon="-8.7019710">
        <ele>16.5</ele>
        <time>2021-05-16T06:51:36Z</time>
      </trkpt>
      <trkpt lat="41.1905320" lon="-8.7019970">
        <ele>16.5</ele>
        <time>2021-05-16T06:51:37Z</time>
      </trkpt>
      <trkpt lat="41.1905320" lon="-8.7020170">
        <ele>16.5</ele>
        <time>2021-05-16T06:51:38Z</time>
      </trkpt>
      <trkpt lat="41.1905330" lon="-8.7020360">
        <ele>16.5</ele>
        <time>2021-05-16T06:51:39Z</time>
      </trkpt>
      <trkpt lat="41.1905210" lon="-8.7020810">
        <ele>16.5</ele>
        <time>2021-05-16T06:51:40Z</time>
      </trkpt>
      <trkpt lat="41.1905170" lon="-8.7020960">
        <ele>16.5</ele>
        <time>2021-05-16T06:51:41Z</time>
      </trkpt>
      <trkpt lat="41.1905170" lon="-8.7021170">
        <ele>16.5</ele>
        <time>2021-05-16T06:51:42Z</time>
      </trkpt>
      <trkpt lat="41.1905020" lon="-8.7021350">
        <ele>16.5</ele>
        <time>2021-05-16T06:51:43Z</time>
      </trkpt>
      <trkpt lat="41.1905170" lon="-8.7021680">
        <ele>16.5</ele>
        <time>2021-05-16T06:51:44Z</time>
      </trkpt>
      <trkpt lat="41.1905200" lon="-8.7021790">
        <ele>16.5</ele>
        <time>2021-05-16T06:51:45Z</time>
      </trkpt>
      <trkpt lat="41.1905150" lon="-8.7022190">
        <ele>16.5</ele>
        <time>2021-05-16T06:51:46Z</time>
      </trkpt>
      <trkpt lat="41.1905110" lon="-8.7022330">
        <ele>16.5</ele>
        <time>2021-05-16T06:51:47Z</time>
      </trkpt>
      <trkpt lat="41.1905010" lon="-8.7022540">
        <ele>16.5</ele>
        <time>2021-05-16T06:51:48Z</time>
      </trkpt>
      <trkpt lat="41.1905050" lon="-8.7022770">
        <ele>16.5</ele>
        <time>2021-05-16T06:51:49Z</time>
      </trkpt>
      <trkpt lat="41.1904990" lon="-8.7023000">
        <ele>16.5</ele>
        <time>2021-05-16T06:51:50Z</time>
      </trkpt>
      <trkpt lat="41.1904860" lon="-8.7023190">
        <ele>16.5</ele>
        <time>2021-05-16T06:51:51Z</time>
      </trkpt>
      <trkpt lat="41.1904880" lon="-8.7023340">
        <ele>16.5</ele>
        <time>2021-05-16T06:51:52Z</time>
      </trkpt>
      <trkpt lat="41.1904890" lon="-8.7023530">
        <ele>16.5</ele>
        <time>2021-05-16T06:51:53Z</time>
      </trkpt>
      <trkpt lat="41.1904870" lon="-8.7023670">
        <ele>16.5</ele>
        <time>2021-05-16T06:51:54Z</time>
      </trkpt>
      <trkpt lat="41.1904890" lon="-8.7023890">
        <ele>16.5</ele>
        <time>2021-05-16T06:51:55Z</time>
      </trkpt>
      <trkpt lat="41.1904930" lon="-8.7024100">
        <ele>16.5</ele>
        <time>2021-05-16T06:51:56Z</time>
      </trkpt>
      <trkpt lat="41.1905030" lon="-8.7024280">
        <ele>16.5</ele>
        <time>2021-05-16T06:51:57Z</time>
      </trkpt>
      <trkpt lat="41.1905110" lon="-8.7024450">
        <ele>16.4</ele>
        <time>2021-05-16T06:51:58Z</time>
      </trkpt>
      <trkpt lat="41.1905190" lon="-8.7024680">
        <ele>16.4</ele>
        <time>2021-05-16T06:51:59Z</time>
      </trkpt>
      <trkpt lat="41.1905220" lon="-8.7024910">
        <ele>16.4</ele>
        <time>2021-05-16T06:52:00Z</time>
      </trkpt>
      <trkpt lat="41.1905220" lon="-8.7025130">
        <ele>16.4</ele>
        <time>2021-05-16T06:52:01Z</time>
      </trkpt>
      <trkpt lat="41.1905240" lon="-8.7025250">
        <ele>16.4</ele>
        <time>2021-05-16T06:52:02Z</time>
      </trkpt>
      <trkpt lat="41.1905290" lon="-8.7025520">
        <ele>16.4</ele>
        <time>2021-05-16T06:52:03Z</time>
      </trkpt>
      <trkpt lat="41.1905430" lon="-8.7025730">
        <ele>16.4</ele>
        <time>2021-05-16T06:52:04Z</time>
      </trkpt>
      <trkpt lat="41.1905470" lon="-8.7025910">
        <ele>16.4</ele>
        <time>2021-05-16T06:52:05Z</time>
      </trkpt>
      <trkpt lat="41.1905520" lon="-8.7026080">
        <ele>16.4</ele>
        <time>2021-05-16T06:52:06Z</time>
      </trkpt>
      <trkpt lat="41.1905540" lon="-8.7026250">
        <ele>16.4</ele>
        <time>2021-05-16T06:52:07Z</time>
      </trkpt>
      <trkpt lat="41.1905540" lon="-8.7026450">
        <ele>16.4</ele>
        <time>2021-05-16T06:52:08Z</time>
      </trkpt>
      <trkpt lat="41.1905580" lon="-8.7026720">
        <ele>16.4</ele>
        <time>2021-05-16T06:52:09Z</time>
      </trkpt>
      <trkpt lat="41.1905580" lon="-8.7026830">
        <ele>16.4</ele>
        <time>2021-05-16T06:52:10Z</time>
      </trkpt>
      <trkpt lat="41.1905590" lon="-8.7026940">
        <ele>16.4</ele>
        <time>2021-05-16T06:52:11Z</time>
      </trkpt>
      <trkpt lat="41.1905540" lon="-8.7027180">
        <ele>16.4</ele>
        <time>2021-05-16T06:52:12Z</time>
      </trkpt>
      <trkpt lat="41.1905530" lon="-8.7027360">
        <ele>16.4</ele>
        <time>2021-05-16T06:52:13Z</time>
      </trkpt>
      <trkpt lat="41.1905460" lon="-8.7027550">
        <ele>16.4</ele>
        <time>2021-05-16T06:52:14Z</time>
      </trkpt>
      <trkpt lat="41.1905470" lon="-8.7027720">
        <ele>16.4</ele>
        <time>2021-05-16T06:52:15Z</time>
      </trkpt>
      <trkpt lat="41.1905550" lon="-8.7027980">
        <ele>16.3</ele>
        <time>2021-05-16T06:52:16Z</time>
      </trkpt>
      <trkpt lat="41.1905560" lon="-8.7028090">
        <ele>16.3</ele>
        <time>2021-05-16T06:52:17Z</time>
      </trkpt>
      <trkpt lat="41.1905580" lon="-8.7028190">
        <ele>16.3</ele>
        <time>2021-05-16T06:52:18Z</time>
      </trkpt>
      <trkpt lat="41.1905620" lon="-8.7028280">
        <ele>16.3</ele>
        <time>2021-05-16T06:52:19Z</time>
      </trkpt>
      <trkpt lat="41.1905550" lon="-8.7028570">
        <ele>16.3</ele>
        <time>2021-05-16T06:52:20Z</time>
      </trkpt>
      <trkpt lat="41.1905610" lon="-8.7028850">
        <ele>16.3</ele>
        <time>2021-05-16T06:52:21Z</time>
      </trkpt>
      <trkpt lat="41.1905650" lon="-8.7028990">
        <ele>16.3</ele>
        <time>2021-05-16T06:52:22Z</time>
      </trkpt>
      <trkpt lat="41.1905700" lon="-8.7029120">
        <ele>16.3</ele>
        <time>2021-05-16T06:52:23Z</time>
      </trkpt>
      <trkpt lat="41.1905600" lon="-8.7029290">
        <ele>16.3</ele>
        <time>2021-05-16T06:52:24Z</time>
      </trkpt>
      <trkpt lat="41.1905590" lon="-8.7029480">
        <ele>16.3</ele>
        <time>2021-05-16T06:52:25Z</time>
      </trkpt>
      <trkpt lat="41.1905490" lon="-8.7029880">
        <ele>16.3</ele>
        <time>2021-05-16T06:52:26Z</time>
      </trkpt>
      <trkpt lat="41.1905440" lon="-8.7030050">
        <ele>16.2</ele>
        <time>2021-05-16T06:52:27Z</time>
      </trkpt>
      <trkpt lat="41.1905360" lon="-8.7030430">
        <ele>16.2</ele>
        <time>2021-05-16T06:52:28Z</time>
      </trkpt>
      <trkpt lat="41.1905330" lon="-8.7030530">
        <ele>16.2</ele>
        <time>2021-05-16T06:52:29Z</time>
      </trkpt>
      <trkpt lat="41.1905250" lon="-8.7030810">
        <ele>16.2</ele>
        <time>2021-05-16T06:52:30Z</time>
      </trkpt>
      <trkpt lat="41.1905220" lon="-8.7030930">
        <ele>16.2</ele>
        <time>2021-05-16T06:52:31Z</time>
      </trkpt>
      <trkpt lat="41.1905180" lon="-8.7031050">
        <ele>16.2</ele>
        <time>2021-05-16T06:52:32Z</time>
      </trkpt>
      <trkpt lat="41.1905170" lon="-8.7031250">
        <ele>16.2</ele>
        <time>2021-05-16T06:52:33Z</time>
      </trkpt>
      <trkpt lat="41.1905070" lon="-8.7031420">
        <ele>16.2</ele>
        <time>2021-05-16T06:52:34Z</time>
      </trkpt>
      <trkpt lat="41.1905060" lon="-8.7031680">
        <ele>16.1</ele>
        <time>2021-05-16T06:52:35Z</time>
      </trkpt>
      <trkpt lat="41.1905060" lon="-8.7031780">
        <ele>16.1</ele>
        <time>2021-05-16T06:52:36Z</time>
      </trkpt>
      <trkpt lat="41.1904930" lon="-8.7032010">
        <ele>16.1</ele>
        <time>2021-05-16T06:52:37Z</time>
      </trkpt>
      <trkpt lat="41.1904860" lon="-8.7032150">
        <ele>16.1</ele>
        <time>2021-05-16T06:52:38Z</time>
      </trkpt>
      <trkpt lat="41.1904800" lon="-8.7032290">
        <ele>16.1</ele>
        <time>2021-05-16T06:52:39Z</time>
      </trkpt>
      <trkpt lat="41.1904850" lon="-8.7032660">
        <ele>16.0</ele>
        <time>2021-05-16T06:52:40Z</time>
      </trkpt>
      <trkpt lat="41.1904850" lon="-8.7032860">
        <ele>16.0</ele>
        <time>2021-05-16T06:52:41Z</time>
      </trkpt>
      <trkpt lat="41.1904880" lon="-8.7033070">
        <ele>16.0</ele>
        <time>2021-05-16T06:52:42Z</time>
      </trkpt>
      <trkpt lat="41.1904990" lon="-8.7033170">
        <ele>16.0</ele>
        <time>2021-05-16T06:52:43Z</time>
      </trkpt>
      <trkpt lat="41.1905080" lon="-8.7033290">
        <ele>16.0</ele>
        <time>2021-05-16T06:52:44Z</time>
      </trkpt>
      <trkpt lat="41.1905100" lon="-8.7033350">
        <ele>16.0</ele>
        <time>2021-05-16T06:52:46Z</time>
      </trkpt>
      <trkpt lat="41.1905160" lon="-8.7033510">
        <ele>16.0</ele>
        <time>2021-05-16T06:52:47Z</time>
      </trkpt>
      <trkpt lat="41.1905180" lon="-8.7033670">
        <ele>15.9</ele>
        <time>2021-05-16T06:52:48Z</time>
      </trkpt>
      <trkpt lat="41.1905250" lon="-8.7033860">
        <ele>15.9</ele>
        <time>2021-05-16T06:52:49Z</time>
      </trkpt>
      <trkpt lat="41.1905340" lon="-8.7034110">
        <ele>15.9</ele>
        <time>2021-05-16T06:52:50Z</time>
      </trkpt>
      <trkpt lat="41.1905330" lon="-8.7034320">
        <ele>15.8</ele>
        <time>2021-05-16T06:52:51Z</time>
      </trkpt>
      <trkpt lat="41.1905280" lon="-8.7034480">
        <ele>15.8</ele>
        <time>2021-05-16T06:52:52Z</time>
      </trkpt>
      <trkpt lat="41.1905320" lon="-8.7034770">
        <ele>15.7</ele>
        <time>2021-05-16T06:52:53Z</time>
      </trkpt>
      <trkpt lat="41.1905270" lon="-8.7034970">
        <ele>15.6</ele>
        <time>2021-05-16T06:52:54Z</time>
      </trkpt>
      <trkpt lat="41.1905170" lon="-8.7035150">
        <ele>15.6</ele>
        <time>2021-05-16T06:52:55Z</time>
      </trkpt>
      <trkpt lat="41.1905220" lon="-8.7035370">
        <ele>15.5</ele>
        <time>2021-05-16T06:52:56Z</time>
      </trkpt>
      <trkpt lat="41.1905230" lon="-8.7035510">
        <ele>15.5</ele>
        <time>2021-05-16T06:52:57Z</time>
      </trkpt>
      <trkpt lat="41.1905220" lon="-8.7035640">
        <ele>15.4</ele>
        <time>2021-05-16T06:52:58Z</time>
      </trkpt>
      <trkpt lat="41.1905190" lon="-8.7035770">
        <ele>15.4</ele>
        <time>2021-05-16T06:52:59Z</time>
      </trkpt>
      <trkpt lat="41.1905140" lon="-8.7035930">
        <ele>15.3</ele>
        <time>2021-05-16T06:53:00Z</time>
      </trkpt>
      <trkpt lat="41.1905120" lon="-8.7036190">
        <ele>15.2</ele>
        <time>2021-05-16T06:53:01Z</time>
      </trkpt>
      <trkpt lat="41.1905120" lon="-8.7036310">
        <ele>15.2</ele>
        <time>2021-05-16T06:53:02Z</time>
      </trkpt>
      <trkpt lat="41.1905120" lon="-8.7036440">
        <ele>15.2</ele>
        <time>2021-05-16T06:53:03Z</time>
      </trkpt>
      <trkpt lat="41.1905130" lon="-8.7036720">
        <ele>15.1</ele>
        <time>2021-05-16T06:53:04Z</time>
      </trkpt>
      <trkpt lat="41.1905130" lon="-8.7036880">
        <ele>15.0</ele>
        <time>2021-05-16T06:53:05Z</time>
      </trkpt>
      <trkpt lat="41.1905190" lon="-8.7037220">
        <ele>14.9</ele>
        <time>2021-05-16T06:53:06Z</time>
      </trkpt>
      <trkpt lat="41.1905180" lon="-8.7037250">
        <ele>14.9</ele>
        <time>2021-05-16T06:53:07Z</time>
      </trkpt>
      <trkpt lat="41.1905240" lon="-8.7037590">
        <ele>14.8</ele>
        <time>2021-05-16T06:53:08Z</time>
      </trkpt>
      <trkpt lat="41.1905280" lon="-8.7037700">
        <ele>14.7</ele>
        <time>2021-05-16T06:53:09Z</time>
      </trkpt>
      <trkpt lat="41.1905160" lon="-8.7037900">
        <ele>14.7</ele>
        <time>2021-05-16T06:53:10Z</time>
      </trkpt>
      <trkpt lat="41.1905090" lon="-8.7038010">
        <ele>14.6</ele>
        <time>2021-05-16T06:53:11Z</time>
      </trkpt>
      <trkpt lat="41.1905050" lon="-8.7038380">
        <ele>14.5</ele>
        <time>2021-05-16T06:53:12Z</time>
      </trkpt>
      <trkpt lat="41.1905020" lon="-8.7038520">
        <ele>14.4</ele>
        <time>2021-05-16T06:53:13Z</time>
      </trkpt>
      <trkpt lat="41.1905010" lon="-8.7038620">
        <ele>14.4</ele>
        <time>2021-05-16T06:53:14Z</time>
      </trkpt>
      <trkpt lat="41.1904990" lon="-8.7038780">
        <ele>14.3</ele>
        <time>2021-05-16T06:53:15Z</time>
      </trkpt>
      <trkpt lat="41.1905000" lon="-8.7038970">
        <ele>14.3</ele>
        <time>2021-05-16T06:53:16Z</time>
      </trkpt>
      <trkpt lat="41.1904830" lon="-8.7039330">
        <ele>14.1</ele>
        <time>2021-05-16T06:53:17Z</time>
      </trkpt>
      <trkpt lat="41.1904770" lon="-8.7039430">
        <ele>14.1</ele>
        <time>2021-05-16T06:53:18Z</time>
      </trkpt>
      <trkpt lat="41.1904680" lon="-8.7039830">
        <ele>13.9</ele>
        <time>2021-05-16T06:53:19Z</time>
      </trkpt>
      <trkpt lat="41.1904620" lon="-8.7040210">
        <ele>13.7</ele>
        <time>2021-05-16T06:53:20Z</time>
      </trkpt>
      <trkpt lat="41.1904550" lon="-8.7040320">
        <ele>13.7</ele>
        <time>2021-05-16T06:53:21Z</time>
      </trkpt>
      <trkpt lat="41.1904600" lon="-8.7040530">
        <ele>13.6</ele>
        <time>2021-05-16T06:53:22Z</time>
      </trkpt>
      <trkpt lat="41.1904610" lon="-8.7040730">
        <ele>13.5</ele>
        <time>2021-05-16T06:53:23Z</time>
      </trkpt>
      <trkpt lat="41.1904570" lon="-8.7040890">
        <ele>13.4</ele>
        <time>2021-05-16T06:53:24Z</time>
      </trkpt>
      <trkpt lat="41.1904570" lon="-8.7040950">
        <ele>13.4</ele>
        <time>2021-05-16T06:53:25Z</time>
      </trkpt>
      <trkpt lat="41.1904630" lon="-8.7041020">
        <ele>13.4</ele>
        <time>2021-05-16T06:53:26Z</time>
      </trkpt>
      <trkpt lat="41.1904630" lon="-8.7041060">
        <ele>13.4</ele>
        <time>2021-05-16T06:53:27Z</time>
      </trkpt>
      <trkpt lat="41.1904650" lon="-8.7041200">
        <ele>13.3</ele>
        <time>2021-05-16T06:53:28Z</time>
      </trkpt>
      <trkpt lat="41.1904720" lon="-8.7041570">
        <ele>13.2</ele>
        <time>2021-05-16T06:53:29Z</time>
      </trkpt>
      <trkpt lat="41.1904700" lon="-8.7041680">
        <ele>13.1</ele>
        <time>2021-05-16T06:53:30Z</time>
      </trkpt>
      <trkpt lat="41.1904740" lon="-8.7041970">
        <ele>13.0</ele>
        <time>2021-05-16T06:53:31Z</time>
      </trkpt>
      <trkpt lat="41.1904770" lon="-8.7042070">
        <ele>12.9</ele>
        <time>2021-05-16T06:53:32Z</time>
      </trkpt>
      <trkpt lat="41.1904800" lon="-8.7042160">
        <ele>12.9</ele>
        <time>2021-05-16T06:53:33Z</time>
      </trkpt>
      <trkpt lat="41.1904870" lon="-8.7042460">
        <ele>12.8</ele>
        <time>2021-05-16T06:53:34Z</time>
      </trkpt>
      <trkpt lat="41.1904880" lon="-8.7042570">
        <ele>12.7</ele>
        <time>2021-05-16T06:53:35Z</time>
      </trkpt>
      <trkpt lat="41.1904890" lon="-8.7042680">
        <ele>12.7</ele>
        <time>2021-05-16T06:53:36Z</time>
      </trkpt>
      <trkpt lat="41.1904870" lon="-8.7042980">
        <ele>12.6</ele>
        <time>2021-05-16T06:53:37Z</time>
      </trkpt>
      <trkpt lat="41.1904870" lon="-8.7043100">
        <ele>12.5</ele>
        <time>2021-05-16T06:53:38Z</time>
      </trkpt>
      <trkpt lat="41.1904870" lon="-8.7043210">
        <ele>12.5</ele>
        <time>2021-05-16T06:53:39Z</time>
      </trkpt>
      <trkpt lat="41.1904850" lon="-8.7043400">
        <ele>12.4</ele>
        <time>2021-05-16T06:53:40Z</time>
      </trkpt>
      <trkpt lat="41.1904870" lon="-8.7043590">
        <ele>12.3</ele>
        <time>2021-05-16T06:53:41Z</time>
      </trkpt>
      <trkpt lat="41.1904850" lon="-8.7043810">
        <ele>12.2</ele>
        <time>2021-05-16T06:53:42Z</time>
      </trkpt>
      <trkpt lat="41.1904860" lon="-8.7043950">
        <ele>12.2</ele>
        <time>2021-05-16T06:53:43Z</time>
      </trkpt>
      <trkpt lat="41.1904870" lon="-8.7044170">
        <ele>12.1</ele>
        <time>2021-05-16T06:53:44Z</time>
      </trkpt>
      <trkpt lat="41.1904950" lon="-8.7044300">
        <ele>12.0</ele>
        <time>2021-05-16T06:53:45Z</time>
      </trkpt>
      <trkpt lat="41.1904870" lon="-8.7044650">
        <ele>11.9</ele>
        <time>2021-05-16T06:53:46Z</time>
      </trkpt>
      <trkpt lat="41.1904890" lon="-8.7044990">
        <ele>11.8</ele>
        <time>2021-05-16T06:53:47Z</time>
      </trkpt>
      <trkpt lat="41.1904870" lon="-8.7045130">
        <ele>11.7</ele>
        <time>2021-05-16T06:53:48Z</time>
      </trkpt>
      <trkpt lat="41.1904840" lon="-8.7045320">
        <ele>11.7</ele>
        <time>2021-05-16T06:53:49Z</time>
      </trkpt>
      <trkpt lat="41.1904820" lon="-8.7045510">
        <ele>11.6</ele>
        <time>2021-05-16T06:53:50Z</time>
      </trkpt>
      <trkpt lat="41.1904810" lon="-8.7045790">
        <ele>11.5</ele>
        <time>2021-05-16T06:53:51Z</time>
      </trkpt>
      <trkpt lat="41.1904790" lon="-8.7045940">
        <ele>11.5</ele>
        <time>2021-05-16T06:53:52Z</time>
      </trkpt>
      <trkpt lat="41.1904820" lon="-8.7046110">
        <ele>11.4</ele>
        <time>2021-05-16T06:53:53Z</time>
      </trkpt>
      <trkpt lat="41.1904810" lon="-8.7046300">
        <ele>11.4</ele>
        <time>2021-05-16T06:53:54Z</time>
      </trkpt>
      <trkpt lat="41.1904780" lon="-8.7046720">
        <ele>11.2</ele>
        <time>2021-05-16T06:53:55Z</time>
      </trkpt>
      <trkpt lat="41.1904750" lon="-8.7046820">
        <ele>11.2</ele>
        <time>2021-05-16T06:53:56Z</time>
      </trkpt>
      <trkpt lat="41.1904780" lon="-8.7047280">
        <ele>11.1</ele>
        <time>2021-05-16T06:53:57Z</time>
      </trkpt>
      <trkpt lat="41.1904770" lon="-8.7047400">
        <ele>11.0</ele>
        <time>2021-05-16T06:53:58Z</time>
      </trkpt>
      <trkpt lat="41.1904780" lon="-8.7047530">
        <ele>11.0</ele>
        <time>2021-05-16T06:53:59Z</time>
      </trkpt>
      <trkpt lat="41.1904800" lon="-8.7047680">
        <ele>10.9</ele>
        <time>2021-05-16T06:54:00Z</time>
      </trkpt>
      <trkpt lat="41.1904830" lon="-8.7047830">
        <ele>10.9</ele>
        <time>2021-05-16T06:54:01Z</time>
      </trkpt>
      <trkpt lat="41.1904680" lon="-8.7047830">
        <ele>10.8</ele>
        <time>2021-05-16T06:54:02Z</time>
      </trkpt>
      <trkpt lat="41.1904560" lon="-8.7047820">
        <ele>10.8</ele>
        <time>2021-05-16T06:54:03Z</time>
      </trkpt>
      <trkpt lat="41.1904430" lon="-8.7047800">
        <ele>10.8</ele>
        <time>2021-05-16T06:54:04Z</time>
      </trkpt>
      <trkpt lat="41.1904310" lon="-8.7047770">
        <ele>10.7</ele>
        <time>2021-05-16T06:54:05Z</time>
      </trkpt>
      <trkpt lat="41.1904130" lon="-8.7047850">
        <ele>10.6</ele>
        <time>2021-05-16T06:54:06Z</time>
      </trkpt>
      <trkpt lat="41.1903950" lon="-8.7047900">
        <ele>10.6</ele>
        <time>2021-05-16T06:54:07Z</time>
      </trkpt>
      <trkpt lat="41.1903820" lon="-8.7048030">
        <ele>10.5</ele>
        <time>2021-05-16T06:54:08Z</time>
      </trkpt>
      <trkpt lat="41.1903750" lon="-8.7048160">
        <ele>10.5</ele>
        <time>2021-05-16T06:54:09Z</time>
      </trkpt>
      <trkpt lat="41.1903710" lon="-8.7048240">
        <ele>10.5</ele>
        <time>2021-05-16T06:54:10Z</time>
      </trkpt>
      <trkpt lat="41.1903680" lon="-8.7048300">
        <ele>10.5</ele>
        <time>2021-05-16T06:54:11Z</time>
      </trkpt>
      <trkpt lat="41.1903680" lon="-8.7048400">
        <ele>10.4</ele>
        <time>2021-05-16T06:54:12Z</time>
      </trkpt>
      <trkpt lat="41.1903560" lon="-8.7048390">
        <ele>10.4</ele>
        <time>2021-05-16T06:54:13Z</time>
      </trkpt>
      <trkpt lat="41.1903520" lon="-8.7048520">
        <ele>10.4</ele>
        <time>2021-05-16T06:54:14Z</time>
      </trkpt>
      <trkpt lat="41.1903400" lon="-8.7048590">
        <ele>10.3</ele>
        <time>2021-05-16T06:54:15Z</time>
      </trkpt>
      <trkpt lat="41.1903320" lon="-8.7048740">
        <ele>10.3</ele>
        <time>2021-05-16T06:54:16Z</time>
      </trkpt>
      <trkpt lat="41.1903200" lon="-8.7048920">
        <ele>10.2</ele>
        <time>2021-05-16T06:54:17Z</time>
      </trkpt>
      <trkpt lat="41.1903160" lon="-8.7049130">
        <ele>10.2</ele>
        <time>2021-05-16T06:54:18Z</time>
      </trkpt>
      <trkpt lat="41.1903080" lon="-8.7049250">
        <ele>10.2</ele>
        <time>2021-05-16T06:54:19Z</time>
      </trkpt>
      <trkpt lat="41.1903100" lon="-8.7049400">
        <ele>10.2</ele>
        <time>2021-05-16T06:54:20Z</time>
      </trkpt>
      <trkpt lat="41.1903150" lon="-8.7049360">
        <ele>10.1</ele>
        <time>2021-05-16T06:54:21Z</time>
      </trkpt>
      <trkpt lat="41.1903170" lon="-8.7049350">
        <ele>10.1</ele>
        <time>2021-05-16T06:54:22Z</time>
      </trkpt>
      <trkpt lat="41.1903170" lon="-8.7049370">
        <ele>10.1</ele>
        <time>2021-05-16T06:54:23Z</time>
      </trkpt>
      <trkpt lat="41.1903190" lon="-8.7049410">
        <ele>10.1</ele>
        <time>2021-05-16T06:54:24Z</time>
      </trkpt>
      <trkpt lat="41.1903230" lon="-8.7049490">
        <ele>10.1</ele>
        <time>2021-05-16T06:54:25Z</time>
      </trkpt>
      <trkpt lat="41.1903370" lon="-8.7049420">
        <ele>10.1</ele>
        <time>2021-05-16T06:54:26Z</time>
      </trkpt>
      <trkpt lat="41.1903600" lon="-8.7049740">
        <ele>10.0</ele>
        <time>2021-05-16T06:54:27Z</time>
      </trkpt>
      <trkpt lat="41.1903690" lon="-8.7049860">
        <ele>10.0</ele>
        <time>2021-05-16T06:54:28Z</time>
      </trkpt>
      <trkpt lat="41.1903770" lon="-8.7050010">
        <ele>9.9</ele>
        <time>2021-05-16T06:54:29Z</time>
      </trkpt>
      <trkpt lat="41.1903860" lon="-8.7050160">
        <ele>9.9</ele>
        <time>2021-05-16T06:54:30Z</time>
      </trkpt>
      <trkpt lat="41.1904010" lon="-8.7050370">
        <ele>9.8</ele>
        <time>2021-05-16T06:54:31Z</time>
      </trkpt>
      <trkpt lat="41.1904010" lon="-8.7050540">
        <ele>9.8</ele>
        <time>2021-05-16T06:54:32Z</time>
      </trkpt>
      <trkpt lat="41.1904070" lon="-8.7050750">
        <ele>9.9</ele>
        <time>2021-05-16T06:54:33Z</time>
      </trkpt>
      <trkpt lat="41.1904150" lon="-8.7050920">
        <ele>9.8</ele>
        <time>2021-05-16T06:54:34Z</time>
      </trkpt>
      <trkpt lat="41.1904260" lon="-8.7051100">
        <ele>9.8</ele>
        <time>2021-05-16T06:54:35Z</time>
      </trkpt>
      <trkpt lat="41.1904310" lon="-8.7051270">
        <ele>9.7</ele>
        <time>2021-05-16T06:54:37Z</time>
      </trkpt>
      <trkpt lat="41.1904370" lon="-8.7051430">
        <ele>9.7</ele>
        <time>2021-05-16T06:54:38Z</time>
      </trkpt>
      <trkpt lat="41.1904410" lon="-8.7051650">
        <ele>9.6</ele>
        <time>2021-05-16T06:54:39Z</time>
      </trkpt>
      <trkpt lat="41.1904450" lon="-8.7051840">
        <ele>9.7</ele>
        <time>2021-05-16T06:54:40Z</time>
      </trkpt>
      <trkpt lat="41.1904560" lon="-8.7052030">
        <ele>9.8</ele>
        <time>2021-05-16T06:54:41Z</time>
      </trkpt>
      <trkpt lat="41.1904610" lon="-8.7052220">
        <ele>9.6</ele>
        <time>2021-05-16T06:54:42Z</time>
      </trkpt>
      <trkpt lat="41.1904590" lon="-8.7052390">
        <ele>9.7</ele>
        <time>2021-05-16T06:54:43Z</time>
      </trkpt>
      <trkpt lat="41.1904640" lon="-8.7052590">
        <ele>9.5</ele>
        <time>2021-05-16T06:54:44Z</time>
      </trkpt>
      <trkpt lat="41.1904640" lon="-8.7052790">
        <ele>9.5</ele>
        <time>2021-05-16T06:54:45Z</time>
      </trkpt>
      <trkpt lat="41.1904660" lon="-8.7053100">
        <ele>9.4</ele>
        <time>2021-05-16T06:54:46Z</time>
      </trkpt>
      <trkpt lat="41.1904670" lon="-8.7053220">
        <ele>9.4</ele>
        <time>2021-05-16T06:54:47Z</time>
      </trkpt>
      <trkpt lat="41.1904690" lon="-8.7053350">
        <ele>9.3</ele>
        <time>2021-05-16T06:54:48Z</time>
      </trkpt>
      <trkpt lat="41.1904700" lon="-8.7053560">
        <ele>9.3</ele>
        <time>2021-05-16T06:54:49Z</time>
      </trkpt>
      <trkpt lat="41.1904720" lon="-8.7053740">
        <ele>9.3</ele>
        <time>2021-05-16T06:54:50Z</time>
      </trkpt>
      <trkpt lat="41.1904780" lon="-8.7053900">
        <ele>9.3</ele>
        <time>2021-05-16T06:54:51Z</time>
      </trkpt>
      <trkpt lat="41.1904840" lon="-8.7054090">
        <ele>9.4</ele>
        <time>2021-05-16T06:54:52Z</time>
      </trkpt>
      <trkpt lat="41.1904940" lon="-8.7054210">
        <ele>9.2</ele>
        <time>2021-05-16T06:54:53Z</time>
      </trkpt>
      <trkpt lat="41.1905030" lon="-8.7054360">
        <ele>9.3</ele>
        <time>2021-05-16T06:54:54Z</time>
      </trkpt>
      <trkpt lat="41.1905180" lon="-8.7054470">
        <ele>9.3</ele>
        <time>2021-05-16T06:54:55Z</time>
      </trkpt>
      <trkpt lat="41.1905320" lon="-8.7054600">
        <ele>9.3</ele>
        <time>2021-05-16T06:54:56Z</time>
      </trkpt>
      <trkpt lat="41.1905470" lon="-8.7054620">
        <ele>9.3</ele>
        <time>2021-05-16T06:54:57Z</time>
      </trkpt>
      <trkpt lat="41.1905570" lon="-8.7054760">
        <ele>9.3</ele>
        <time>2021-05-16T06:54:58Z</time>
      </trkpt>
      <trkpt lat="41.1905720" lon="-8.7054820">
        <ele>9.3</ele>
        <time>2021-05-16T06:54:59Z</time>
      </trkpt>
      <trkpt lat="41.1905870" lon="-8.7054920">
        <ele>9.3</ele>
        <time>2021-05-16T06:55:00Z</time>
      </trkpt>
      <trkpt lat="41.1906000" lon="-8.7054990">
        <ele>9.3</ele>
        <time>2021-05-16T06:55:01Z</time>
      </trkpt>
      <trkpt lat="41.1906160" lon="-8.7055040">
        <ele>9.3</ele>
        <time>2021-05-16T06:55:02Z</time>
      </trkpt>
      <trkpt lat="41.1906280" lon="-8.7055110">
        <ele>9.3</ele>
        <time>2021-05-16T06:55:03Z</time>
      </trkpt>
      <trkpt lat="41.1906400" lon="-8.7055220">
        <ele>9.3</ele>
        <time>2021-05-16T06:55:04Z</time>
      </trkpt>
      <trkpt lat="41.1906530" lon="-8.7055310">
        <ele>9.4</ele>
        <time>2021-05-16T06:55:05Z</time>
      </trkpt>
      <trkpt lat="41.1906670" lon="-8.7055390">
        <ele>9.4</ele>
        <time>2021-05-16T06:55:06Z</time>
      </trkpt>
      <trkpt lat="41.1906820" lon="-8.7055490">
        <ele>9.4</ele>
        <time>2021-05-16T06:55:07Z</time>
      </trkpt>
      <trkpt lat="41.1906970" lon="-8.7055560">
        <ele>9.4</ele>
        <time>2021-05-16T06:55:08Z</time>
      </trkpt>
      <trkpt lat="41.1907120" lon="-8.7055650">
        <ele>9.4</ele>
        <time>2021-05-16T06:55:09Z</time>
      </trkpt>
      <trkpt lat="41.1907260" lon="-8.7055740">
        <ele>9.4</ele>
        <time>2021-05-16T06:55:10Z</time>
      </trkpt>
      <trkpt lat="41.1907410" lon="-8.7055830">
        <ele>9.4</ele>
        <time>2021-05-16T06:55:11Z</time>
      </trkpt>
      <trkpt lat="41.1907540" lon="-8.7055940">
        <ele>9.4</ele>
        <time>2021-05-16T06:55:12Z</time>
      </trkpt>
      <trkpt lat="41.1907700" lon="-8.7055950">
        <ele>9.4</ele>
        <time>2021-05-16T06:55:13Z</time>
      </trkpt>
      <trkpt lat="41.1907830" lon="-8.7056090">
        <ele>9.4</ele>
        <time>2021-05-16T06:55:14Z</time>
      </trkpt>
      <trkpt lat="41.1907950" lon="-8.7056160">
        <ele>9.4</ele>
        <time>2021-05-16T06:55:15Z</time>
      </trkpt>
      <trkpt lat="41.1908080" lon="-8.7056280">
        <ele>9.4</ele>
        <time>2021-05-16T06:55:16Z</time>
      </trkpt>
      <trkpt lat="41.1908210" lon="-8.7056390">
        <ele>9.4</ele>
        <time>2021-05-16T06:55:17Z</time>
      </trkpt>
      <trkpt lat="41.1908350" lon="-8.7056460">
        <ele>9.4</ele>
        <time>2021-05-16T06:55:18Z</time>
      </trkpt>
      <trkpt lat="41.1908490" lon="-8.7056540">
        <ele>9.4</ele>
        <time>2021-05-16T06:55:19Z</time>
      </trkpt>
      <trkpt lat="41.1908630" lon="-8.7056620">
        <ele>9.4</ele>
        <time>2021-05-16T06:55:20Z</time>
      </trkpt>
      <trkpt lat="41.1908760" lon="-8.7056740">
        <ele>9.4</ele>
        <time>2021-05-16T06:55:21Z</time>
      </trkpt>
      <trkpt lat="41.1908900" lon="-8.7056800">
        <ele>9.4</ele>
        <time>2021-05-16T06:55:22Z</time>
      </trkpt>
      <trkpt lat="41.1909040" lon="-8.7056920">
        <ele>9.4</ele>
        <time>2021-05-16T06:55:23Z</time>
      </trkpt>
      <trkpt lat="41.1909180" lon="-8.7056990">
        <ele>9.3</ele>
        <time>2021-05-16T06:55:24Z</time>
      </trkpt>
      <trkpt lat="41.1909310" lon="-8.7057100">
        <ele>9.3</ele>
        <time>2021-05-16T06:55:25Z</time>
      </trkpt>
      <trkpt lat="41.1909450" lon="-8.7057150">
        <ele>9.3</ele>
        <time>2021-05-16T06:55:26Z</time>
      </trkpt>
      <trkpt lat="41.1909580" lon="-8.7057270">
        <ele>9.3</ele>
        <time>2021-05-16T06:55:27Z</time>
      </trkpt>
      <trkpt lat="41.1909700" lon="-8.7057370">
        <ele>9.3</ele>
        <time>2021-05-16T06:55:28Z</time>
      </trkpt>
      <trkpt lat="41.1909830" lon="-8.7057440">
        <ele>9.3</ele>
        <time>2021-05-16T06:55:29Z</time>
      </trkpt>
      <trkpt lat="41.1909950" lon="-8.7057550">
        <ele>9.3</ele>
        <time>2021-05-16T06:55:30Z</time>
      </trkpt>
      <trkpt lat="41.1910100" lon="-8.7057610">
        <ele>9.3</ele>
        <time>2021-05-16T06:55:31Z</time>
      </trkpt>
      <trkpt lat="41.1910200" lon="-8.7057760">
        <ele>9.3</ele>
        <time>2021-05-16T06:55:32Z</time>
      </trkpt>
      <trkpt lat="41.1910330" lon="-8.7057860">
        <ele>9.3</ele>
        <time>2021-05-16T06:55:33Z</time>
      </trkpt>
      <trkpt lat="41.1910470" lon="-8.7057980">
        <ele>9.3</ele>
        <time>2021-05-16T06:55:34Z</time>
      </trkpt>
      <trkpt lat="41.1910600" lon="-8.7058060">
        <ele>9.3</ele>
        <time>2021-05-16T06:55:35Z</time>
      </trkpt>
      <trkpt lat="41.1910760" lon="-8.7058100">
        <ele>9.3</ele>
        <time>2021-05-16T06:55:36Z</time>
      </trkpt>
      <trkpt lat="41.1910920" lon="-8.7058110">
        <ele>9.3</ele>
        <time>2021-05-16T06:55:37Z</time>
      </trkpt>
      <trkpt lat="41.1911050" lon="-8.7058200">
        <ele>9.3</ele>
        <time>2021-05-16T06:55:38Z</time>
      </trkpt>
      <trkpt lat="41.1911170" lon="-8.7058340">
        <ele>9.3</ele>
        <time>2021-05-16T06:55:39Z</time>
      </trkpt>
      <trkpt lat="41.1911270" lon="-8.7058450">
        <ele>9.3</ele>
        <time>2021-05-16T06:55:40Z</time>
      </trkpt>
      <trkpt lat="41.1911400" lon="-8.7058540">
        <ele>9.3</ele>
        <time>2021-05-16T06:55:41Z</time>
      </trkpt>
      <trkpt lat="41.1911510" lon="-8.7058670">
        <ele>9.3</ele>
        <time>2021-05-16T06:55:42Z</time>
      </trkpt>
      <trkpt lat="41.1911680" lon="-8.7058760">
        <ele>9.3</ele>
        <time>2021-05-16T06:55:43Z</time>
      </trkpt>
      <trkpt lat="41.1911790" lon="-8.7058860">
        <ele>9.3</ele>
        <time>2021-05-16T06:55:44Z</time>
      </trkpt>
      <trkpt lat="41.1911940" lon="-8.7058960">
        <ele>9.2</ele>
        <time>2021-05-16T06:55:45Z</time>
      </trkpt>
      <trkpt lat="41.1912080" lon="-8.7059060">
        <ele>9.2</ele>
        <time>2021-05-16T06:55:46Z</time>
      </trkpt>
      <trkpt lat="41.1912220" lon="-8.7059090">
        <ele>9.2</ele>
        <time>2021-05-16T06:55:47Z</time>
      </trkpt>
      <trkpt lat="41.1912370" lon="-8.7059180">
        <ele>9.2</ele>
        <time>2021-05-16T06:55:48Z</time>
      </trkpt>
      <trkpt lat="41.1912530" lon="-8.7059200">
        <ele>9.2</ele>
        <time>2021-05-16T06:55:49Z</time>
      </trkpt>
      <trkpt lat="41.1912660" lon="-8.7059230">
        <ele>9.2</ele>
        <time>2021-05-16T06:55:50Z</time>
      </trkpt>
      <trkpt lat="41.1912770" lon="-8.7059360">
        <ele>9.2</ele>
        <time>2021-05-16T06:55:51Z</time>
      </trkpt>
      <trkpt lat="41.1912900" lon="-8.7059410">
        <ele>9.2</ele>
        <time>2021-05-16T06:55:52Z</time>
      </trkpt>
      <trkpt lat="41.1913030" lon="-8.7059540">
        <ele>9.2</ele>
        <time>2021-05-16T06:55:53Z</time>
      </trkpt>
      <trkpt lat="41.1913180" lon="-8.7059640">
        <ele>9.2</ele>
        <time>2021-05-16T06:55:54Z</time>
      </trkpt>
      <trkpt lat="41.1913300" lon="-8.7059710">
        <ele>9.2</ele>
        <time>2021-05-16T06:55:55Z</time>
      </trkpt>
      <trkpt lat="41.1913440" lon="-8.7059800">
        <ele>9.2</ele>
        <time>2021-05-16T06:55:56Z</time>
      </trkpt>
      <trkpt lat="41.1913590" lon="-8.7059880">
        <ele>9.2</ele>
        <time>2021-05-16T06:55:57Z</time>
      </trkpt>
      <trkpt lat="41.1913750" lon="-8.7059950">
        <ele>9.2</ele>
        <time>2021-05-16T06:55:58Z</time>
      </trkpt>
      <trkpt lat="41.1913860" lon="-8.7060060">
        <ele>9.2</ele>
        <time>2021-05-16T06:55:59Z</time>
      </trkpt>
      <trkpt lat="41.1914030" lon="-8.7060150">
        <ele>9.2</ele>
        <time>2021-05-16T06:56:00Z</time>
      </trkpt>
      <trkpt lat="41.1914180" lon="-8.7060240">
        <ele>9.1</ele>
        <time>2021-05-16T06:56:01Z</time>
      </trkpt>
      <trkpt lat="41.1914310" lon="-8.7060290">
        <ele>9.1</ele>
        <time>2021-05-16T06:56:02Z</time>
      </trkpt>
      <trkpt lat="41.1914460" lon="-8.7060370">
        <ele>9.1</ele>
        <time>2021-05-16T06:56:03Z</time>
      </trkpt>
      <trkpt lat="41.1914590" lon="-8.7060480">
        <ele>9.1</ele>
        <time>2021-05-16T06:56:04Z</time>
      </trkpt>
      <trkpt lat="41.1914740" lon="-8.7060580">
        <ele>9.1</ele>
        <time>2021-05-16T06:56:05Z</time>
      </trkpt>
      <trkpt lat="41.1914920" lon="-8.7060660">
        <ele>9.1</ele>
        <time>2021-05-16T06:56:06Z</time>
      </trkpt>
      <trkpt lat="41.1915040" lon="-8.7060740">
        <ele>9.1</ele>
        <time>2021-05-16T06:56:07Z</time>
      </trkpt>
      <trkpt lat="41.1915210" lon="-8.7060860">
        <ele>9.1</ele>
        <time>2021-05-16T06:56:08Z</time>
      </trkpt>
      <trkpt lat="41.1915350" lon="-8.7060900">
        <ele>9.1</ele>
        <time>2021-05-16T06:56:09Z</time>
      </trkpt>
      <trkpt lat="41.1915470" lon="-8.7061060">
        <ele>9.1</ele>
        <time>2021-05-16T06:56:10Z</time>
      </trkpt>
      <trkpt lat="41.1915620" lon="-8.7061130">
        <ele>9.1</ele>
        <time>2021-05-16T06:56:11Z</time>
      </trkpt>
      <trkpt lat="41.1915750" lon="-8.7061200">
        <ele>9.1</ele>
        <time>2021-05-16T06:56:12Z</time>
      </trkpt>
      <trkpt lat="41.1915890" lon="-8.7061330">
        <ele>9.1</ele>
        <time>2021-05-16T06:56:13Z</time>
      </trkpt>
      <trkpt lat="41.1916040" lon="-8.7061400">
        <ele>9.1</ele>
        <time>2021-05-16T06:56:14Z</time>
      </trkpt>
      <trkpt lat="41.1916210" lon="-8.7061410">
        <ele>9.0</ele>
        <time>2021-05-16T06:56:15Z</time>
      </trkpt>
      <trkpt lat="41.1916330" lon="-8.7061510">
        <ele>9.0</ele>
        <time>2021-05-16T06:56:16Z</time>
      </trkpt>
      <trkpt lat="41.1916490" lon="-8.7061590">
        <ele>9.0</ele>
        <time>2021-05-16T06:56:17Z</time>
      </trkpt>
      <trkpt lat="41.1916640" lon="-8.7061590">
        <ele>9.0</ele>
        <time>2021-05-16T06:56:18Z</time>
      </trkpt>
      <trkpt lat="41.1916780" lon="-8.7061760">
        <ele>9.0</ele>
        <time>2021-05-16T06:56:19Z</time>
      </trkpt>
      <trkpt lat="41.1916920" lon="-8.7061890">
        <ele>9.0</ele>
        <time>2021-05-16T06:56:20Z</time>
      </trkpt>
      <trkpt lat="41.1917000" lon="-8.7061950">
        <ele>9.0</ele>
        <time>2021-05-16T06:56:21Z</time>
      </trkpt>
      <trkpt lat="41.1917160" lon="-8.7062060">
        <ele>9.0</ele>
        <time>2021-05-16T06:56:22Z</time>
      </trkpt>
      <trkpt lat="41.1917250" lon="-8.7062180">
        <ele>9.0</ele>
        <time>2021-05-16T06:56:23Z</time>
      </trkpt>
      <trkpt lat="41.1917400" lon="-8.7062250">
        <ele>9.0</ele>
        <time>2021-05-16T06:56:24Z</time>
      </trkpt>
      <trkpt lat="41.1917530" lon="-8.7062270">
        <ele>9.0</ele>
        <time>2021-05-16T06:56:25Z</time>
      </trkpt>
      <trkpt lat="41.1917700" lon="-8.7062360">
        <ele>9.0</ele>
        <time>2021-05-16T06:56:26Z</time>
      </trkpt>
      <trkpt lat="41.1917850" lon="-8.7062430">
        <ele>9.0</ele>
        <time>2021-05-16T06:56:27Z</time>
      </trkpt>
      <trkpt lat="41.1918000" lon="-8.7062540">
        <ele>9.0</ele>
        <time>2021-05-16T06:56:28Z</time>
      </trkpt>
      <trkpt lat="41.1918150" lon="-8.7062600">
        <ele>9.0</ele>
        <time>2021-05-16T06:56:29Z</time>
      </trkpt>
      <trkpt lat="41.1918270" lon="-8.7062750">
        <ele>9.0</ele>
        <time>2021-05-16T06:56:30Z</time>
      </trkpt>
      <trkpt lat="41.1918420" lon="-8.7062830">
        <ele>9.0</ele>
        <time>2021-05-16T06:56:31Z</time>
      </trkpt>
      <trkpt lat="41.1918560" lon="-8.7062880">
        <ele>9.0</ele>
        <time>2021-05-16T06:56:32Z</time>
      </trkpt>
      <trkpt lat="41.1918710" lon="-8.7062960">
        <ele>9.0</ele>
        <time>2021-05-16T06:56:33Z</time>
      </trkpt>
      <trkpt lat="41.1918860" lon="-8.7063030">
        <ele>9.0</ele>
        <time>2021-05-16T06:56:34Z</time>
      </trkpt>
      <trkpt lat="41.1919030" lon="-8.7063100">
        <ele>9.0</ele>
        <time>2021-05-16T06:56:35Z</time>
      </trkpt>
      <trkpt lat="41.1919160" lon="-8.7063180">
        <ele>9.0</ele>
        <time>2021-05-16T06:56:36Z</time>
      </trkpt>
      <trkpt lat="41.1919270" lon="-8.7063290">
        <ele>9.0</ele>
        <time>2021-05-16T06:56:37Z</time>
      </trkpt>
      <trkpt lat="41.1919420" lon="-8.7063390">
        <ele>8.9</ele>
        <time>2021-05-16T06:56:38Z</time>
      </trkpt>
      <trkpt lat="41.1919570" lon="-8.7063490">
        <ele>8.9</ele>
        <time>2021-05-16T06:56:39Z</time>
      </trkpt>
      <trkpt lat="41.1919730" lon="-8.7063600">
        <ele>8.9</ele>
        <time>2021-05-16T06:56:40Z</time>
      </trkpt>
      <trkpt lat="41.1919950" lon="-8.7063680">
        <ele>8.9</ele>
        <time>2021-05-16T06:56:41Z</time>
      </trkpt>
      <trkpt lat="41.1920030" lon="-8.7063740">
        <ele>8.9</ele>
        <time>2021-05-16T06:56:42Z</time>
      </trkpt>
      <trkpt lat="41.1920120" lon="-8.7063790">
        <ele>8.9</ele>
        <time>2021-05-16T06:56:43Z</time>
      </trkpt>
      <trkpt lat="41.1920210" lon="-8.7063930">
        <ele>8.9</ele>
        <time>2021-05-16T06:56:44Z</time>
      </trkpt>
      <trkpt lat="41.1920370" lon="-8.7064000">
        <ele>8.9</ele>
        <time>2021-05-16T06:56:45Z</time>
      </trkpt>
      <trkpt lat="41.1920500" lon="-8.7064090">
        <ele>8.9</ele>
        <time>2021-05-16T06:56:46Z</time>
      </trkpt>
      <trkpt lat="41.1920620" lon="-8.7064170">
        <ele>8.9</ele>
        <time>2021-05-16T06:56:47Z</time>
      </trkpt>
      <trkpt lat="41.1920750" lon="-8.7064310">
        <ele>8.9</ele>
        <time>2021-05-16T06:56:48Z</time>
      </trkpt>
      <trkpt lat="41.1920910" lon="-8.7064390">
        <ele>8.9</ele>
        <time>2021-05-16T06:56:49Z</time>
      </trkpt>
      <trkpt lat="41.1921070" lon="-8.7064490">
        <ele>8.9</ele>
        <time>2021-05-16T06:56:50Z</time>
      </trkpt>
      <trkpt lat="41.1921240" lon="-8.7064560">
        <ele>8.9</ele>
        <time>2021-05-16T06:56:51Z</time>
      </trkpt>
      <trkpt lat="41.1921350" lon="-8.7064690">
        <ele>8.9</ele>
        <time>2021-05-16T06:56:52Z</time>
      </trkpt>
      <trkpt lat="41.1921510" lon="-8.7064800">
        <ele>8.9</ele>
        <time>2021-05-16T06:56:53Z</time>
      </trkpt>
      <trkpt lat="41.1921640" lon="-8.7064880">
        <ele>8.9</ele>
        <time>2021-05-16T06:56:54Z</time>
      </trkpt>
      <trkpt lat="41.1921780" lon="-8.7064980">
        <ele>8.9</ele>
        <time>2021-05-16T06:56:55Z</time>
      </trkpt>
      <trkpt lat="41.1921880" lon="-8.7065070">
        <ele>8.9</ele>
        <time>2021-05-16T06:56:56Z</time>
      </trkpt>
      <trkpt lat="41.1922050" lon="-8.7065160">
        <ele>8.8</ele>
        <time>2021-05-16T06:56:57Z</time>
      </trkpt>
      <trkpt lat="41.1922160" lon="-8.7065250">
        <ele>8.8</ele>
        <time>2021-05-16T06:56:58Z</time>
      </trkpt>
      <trkpt lat="41.1922310" lon="-8.7065350">
        <ele>8.8</ele>
        <time>2021-05-16T06:56:59Z</time>
      </trkpt>
      <trkpt lat="41.1922420" lon="-8.7065440">
        <ele>8.8</ele>
        <time>2021-05-16T06:57:00Z</time>
      </trkpt>
      <trkpt lat="41.1922560" lon="-8.7065500">
        <ele>8.8</ele>
        <time>2021-05-16T06:57:01Z</time>
      </trkpt>
      <trkpt lat="41.1922720" lon="-8.7065620">
        <ele>8.8</ele>
        <time>2021-05-16T06:57:02Z</time>
      </trkpt>
      <trkpt lat="41.1922830" lon="-8.7065690">
        <ele>8.8</ele>
        <time>2021-05-16T06:57:03Z</time>
      </trkpt>
      <trkpt lat="41.1922990" lon="-8.7065740">
        <ele>8.8</ele>
        <time>2021-05-16T06:57:04Z</time>
      </trkpt>
      <trkpt lat="41.1923120" lon="-8.7065820">
        <ele>8.8</ele>
        <time>2021-05-16T06:57:05Z</time>
      </trkpt>
      <trkpt lat="41.1923240" lon="-8.7065950">
        <ele>8.8</ele>
        <time>2021-05-16T06:57:06Z</time>
      </trkpt>
      <trkpt lat="41.1923380" lon="-8.7066010">
        <ele>8.8</ele>
        <time>2021-05-16T06:57:07Z</time>
      </trkpt>
      <trkpt lat="41.1923500" lon="-8.7066110">
        <ele>8.8</ele>
        <time>2021-05-16T06:57:08Z</time>
      </trkpt>
      <trkpt lat="41.1923660" lon="-8.7066170">
        <ele>8.8</ele>
        <time>2021-05-16T06:57:09Z</time>
      </trkpt>
      <trkpt lat="41.1923780" lon="-8.7066260">
        <ele>8.8</ele>
        <time>2021-05-16T06:57:10Z</time>
      </trkpt>
      <trkpt lat="41.1923920" lon="-8.7066320">
        <ele>8.8</ele>
        <time>2021-05-16T06:57:11Z</time>
      </trkpt>
      <trkpt lat="41.1924070" lon="-8.7066430">
        <ele>8.8</ele>
        <time>2021-05-16T06:57:12Z</time>
      </trkpt>
      <trkpt lat="41.1924220" lon="-8.7066440">
        <ele>8.8</ele>
        <time>2021-05-16T06:57:13Z</time>
      </trkpt>
      <trkpt lat="41.1924390" lon="-8.7066510">
        <ele>8.7</ele>
        <time>2021-05-16T06:57:14Z</time>
      </trkpt>
      <trkpt lat="41.1924540" lon="-8.7066560">
        <ele>8.7</ele>
        <time>2021-05-16T06:57:15Z</time>
      </trkpt>
      <trkpt lat="41.1924740" lon="-8.7066660">
        <ele>8.7</ele>
        <time>2021-05-16T06:57:16Z</time>
      </trkpt>
      <trkpt lat="41.1924840" lon="-8.7066710">
        <ele>8.7</ele>
        <time>2021-05-16T06:57:17Z</time>
      </trkpt>
      <trkpt lat="41.1924930" lon="-8.7066750">
        <ele>8.7</ele>
        <time>2021-05-16T06:57:18Z</time>
      </trkpt>
      <trkpt lat="41.1925030" lon="-8.7066840">
        <ele>8.7</ele>
        <time>2021-05-16T06:57:19Z</time>
      </trkpt>
      <trkpt lat="41.1925160" lon="-8.7066940">
        <ele>8.7</ele>
        <time>2021-05-16T06:57:20Z</time>
      </trkpt>
      <trkpt lat="41.1925340" lon="-8.7066950">
        <ele>8.7</ele>
        <time>2021-05-16T06:57:21Z</time>
      </trkpt>
      <trkpt lat="41.1925480" lon="-8.7067040">
        <ele>8.7</ele>
        <time>2021-05-16T06:57:22Z</time>
      </trkpt>
      <trkpt lat="41.1925620" lon="-8.7067120">
        <ele>8.7</ele>
        <time>2021-05-16T06:57:23Z</time>
      </trkpt>
      <trkpt lat="41.1925770" lon="-8.7067210">
        <ele>8.7</ele>
        <time>2021-05-16T06:57:24Z</time>
      </trkpt>
      <trkpt lat="41.1925910" lon="-8.7067290">
        <ele>8.7</ele>
        <time>2021-05-16T06:57:25Z</time>
      </trkpt>
      <trkpt lat="41.1926080" lon="-8.7067320">
        <ele>8.7</ele>
        <time>2021-05-16T06:57:26Z</time>
      </trkpt>
      <trkpt lat="41.1926200" lon="-8.7067430">
        <ele>8.7</ele>
        <time>2021-05-16T06:57:27Z</time>
      </trkpt>
      <trkpt lat="41.1926360" lon="-8.7067540">
        <ele>8.6</ele>
        <time>2021-05-16T06:57:28Z</time>
      </trkpt>
      <trkpt lat="41.1926490" lon="-8.7067640">
        <ele>8.6</ele>
        <time>2021-05-16T06:57:29Z</time>
      </trkpt>
      <trkpt lat="41.1926640" lon="-8.7067690">
        <ele>8.6</ele>
        <time>2021-05-16T06:57:30Z</time>
      </trkpt>
      <trkpt lat="41.1926790" lon="-8.7067730">
        <ele>8.6</ele>
        <time>2021-05-16T06:57:31Z</time>
      </trkpt>
      <trkpt lat="41.1926940" lon="-8.7067790">
        <ele>8.6</ele>
        <time>2021-05-16T06:57:32Z</time>
      </trkpt>
      <trkpt lat="41.1927070" lon="-8.7067890">
        <ele>8.6</ele>
        <time>2021-05-16T06:57:33Z</time>
      </trkpt>
      <trkpt lat="41.1927240" lon="-8.7067950">
        <ele>8.6</ele>
        <time>2021-05-16T06:57:34Z</time>
      </trkpt>
      <trkpt lat="41.1927400" lon="-8.7068000">
        <ele>8.6</ele>
        <time>2021-05-16T06:57:35Z</time>
      </trkpt>
      <trkpt lat="41.1927530" lon="-8.7068150">
        <ele>8.6</ele>
        <time>2021-05-16T06:57:36Z</time>
      </trkpt>
      <trkpt lat="41.1927620" lon="-8.7068270">
        <ele>8.6</ele>
        <time>2021-05-16T06:57:37Z</time>
      </trkpt>
      <trkpt lat="41.1927740" lon="-8.7068410">
        <ele>8.6</ele>
        <time>2021-05-16T06:57:38Z</time>
      </trkpt>
      <trkpt lat="41.1927890" lon="-8.7068490">
        <ele>8.6</ele>
        <time>2021-05-16T06:57:39Z</time>
      </trkpt>
      <trkpt lat="41.1928030" lon="-8.7068540">
        <ele>8.6</ele>
        <time>2021-05-16T06:57:40Z</time>
      </trkpt>
      <trkpt lat="41.1928140" lon="-8.7068660">
        <ele>8.6</ele>
        <time>2021-05-16T06:57:41Z</time>
      </trkpt>
      <trkpt lat="41.1928300" lon="-8.7068760">
        <ele>8.6</ele>
        <time>2021-05-16T06:57:42Z</time>
      </trkpt>
      <trkpt lat="41.1928440" lon="-8.7068830">
        <ele>8.6</ele>
        <time>2021-05-16T06:57:43Z</time>
      </trkpt>
      <trkpt lat="41.1928600" lon="-8.7068950">
        <ele>8.6</ele>
        <time>2021-05-16T06:57:44Z</time>
      </trkpt>
      <trkpt lat="41.1928740" lon="-8.7069010">
        <ele>8.6</ele>
        <time>2021-05-16T06:57:45Z</time>
      </trkpt>
      <trkpt lat="41.1928890" lon="-8.7069020">
        <ele>8.6</ele>
        <time>2021-05-16T06:57:46Z</time>
      </trkpt>
      <trkpt lat="41.1929010" lon="-8.7069100">
        <ele>8.6</ele>
        <time>2021-05-16T06:57:47Z</time>
      </trkpt>
      <trkpt lat="41.1929160" lon="-8.7069260">
        <ele>8.5</ele>
        <time>2021-05-16T06:57:48Z</time>
      </trkpt>
      <trkpt lat="41.1929280" lon="-8.7069380">
        <ele>8.5</ele>
        <time>2021-05-16T06:57:49Z</time>
      </trkpt>
      <trkpt lat="41.1929460" lon="-8.7069460">
        <ele>8.5</ele>
        <time>2021-05-16T06:57:50Z</time>
      </trkpt>
      <trkpt lat="41.1929610" lon="-8.7069550">
        <ele>8.5</ele>
        <time>2021-05-16T06:57:51Z</time>
      </trkpt>
      <trkpt lat="41.1929760" lon="-8.7069580">
        <ele>8.5</ele>
        <time>2021-05-16T06:57:52Z</time>
      </trkpt>
      <trkpt lat="41.1929940" lon="-8.7069670">
        <ele>8.5</ele>
        <time>2021-05-16T06:57:53Z</time>
      </trkpt>
      <trkpt lat="41.1930090" lon="-8.7069740">
        <ele>8.5</ele>
        <time>2021-05-16T06:57:54Z</time>
      </trkpt>
      <trkpt lat="41.1930250" lon="-8.7069800">
        <ele>8.5</ele>
        <time>2021-05-16T06:57:55Z</time>
      </trkpt>
      <trkpt lat="41.1930350" lon="-8.7069930">
        <ele>8.5</ele>
        <time>2021-05-16T06:57:56Z</time>
      </trkpt>
      <trkpt lat="41.1930530" lon="-8.7070020">
        <ele>8.5</ele>
        <time>2021-05-16T06:57:57Z</time>
      </trkpt>
      <trkpt lat="41.1930640" lon="-8.7070150">
        <ele>8.5</ele>
        <time>2021-05-16T06:57:58Z</time>
      </trkpt>
      <trkpt lat="41.1930780" lon="-8.7070270">
        <ele>8.5</ele>
        <time>2021-05-16T06:57:59Z</time>
      </trkpt>
      <trkpt lat="41.1930880" lon="-8.7070410">
        <ele>8.5</ele>
        <time>2021-05-16T06:58:00Z</time>
      </trkpt>
      <trkpt lat="41.1931010" lon="-8.7070550">
        <ele>8.5</ele>
        <time>2021-05-16T06:58:01Z</time>
      </trkpt>
      <trkpt lat="41.1931170" lon="-8.7070620">
        <ele>8.5</ele>
        <time>2021-05-16T06:58:02Z</time>
      </trkpt>
      <trkpt lat="41.1931280" lon="-8.7070710">
        <ele>8.5</ele>
        <time>2021-05-16T06:58:03Z</time>
      </trkpt>
      <trkpt lat="41.1931450" lon="-8.7070810">
        <ele>8.5</ele>
        <time>2021-05-16T06:58:04Z</time>
      </trkpt>
      <trkpt lat="41.1931640" lon="-8.7070950">
        <ele>8.5</ele>
        <time>2021-05-16T06:58:05Z</time>
      </trkpt>
      <trkpt lat="41.1931720" lon="-8.7071020">
        <ele>8.5</ele>
        <time>2021-05-16T06:58:06Z</time>
      </trkpt>
      <trkpt lat="41.1931810" lon="-8.7071090">
        <ele>8.5</ele>
        <time>2021-05-16T06:58:07Z</time>
      </trkpt>
      <trkpt lat="41.1931990" lon="-8.7071250">
        <ele>8.5</ele>
        <time>2021-05-16T06:58:08Z</time>
      </trkpt>
      <trkpt lat="41.1932060" lon="-8.7071320">
        <ele>8.5</ele>
        <time>2021-05-16T06:58:09Z</time>
      </trkpt>
      <trkpt lat="41.1932140" lon="-8.7071390">
        <ele>8.5</ele>
        <time>2021-05-16T06:58:10Z</time>
      </trkpt>
      <trkpt lat="41.1932260" lon="-8.7071520">
        <ele>8.5</ele>
        <time>2021-05-16T06:58:11Z</time>
      </trkpt>
      <trkpt lat="41.1932390" lon="-8.7071600">
        <ele>8.5</ele>
        <time>2021-05-16T06:58:12Z</time>
      </trkpt>
      <trkpt lat="41.1932570" lon="-8.7071700">
        <ele>8.5</ele>
        <time>2021-05-16T06:58:13Z</time>
      </trkpt>
      <trkpt lat="41.1932660" lon="-8.7071800">
        <ele>8.5</ele>
        <time>2021-05-16T06:58:14Z</time>
      </trkpt>
      <trkpt lat="41.1932810" lon="-8.7071880">
        <ele>8.5</ele>
        <time>2021-05-16T06:58:15Z</time>
      </trkpt>
      <trkpt lat="41.1932960" lon="-8.7071930">
        <ele>8.5</ele>
        <time>2021-05-16T06:58:16Z</time>
      </trkpt>
      <trkpt lat="41.1933070" lon="-8.7072030">
        <ele>8.5</ele>
        <time>2021-05-16T06:58:17Z</time>
      </trkpt>
      <trkpt lat="41.1933190" lon="-8.7072140">
        <ele>8.5</ele>
        <time>2021-05-16T06:58:18Z</time>
      </trkpt>
      <trkpt lat="41.1933310" lon="-8.7072220">
        <ele>8.5</ele>
        <time>2021-05-16T06:58:19Z</time>
      </trkpt>
      <trkpt lat="41.1933430" lon="-8.7072390">
        <ele>8.5</ele>
        <time>2021-05-16T06:58:20Z</time>
      </trkpt>
      <trkpt lat="41.1933610" lon="-8.7072570">
        <ele>8.5</ele>
        <time>2021-05-16T06:58:21Z</time>
      </trkpt>
      <trkpt lat="41.1933710" lon="-8.7072620">
        <ele>8.5</ele>
        <time>2021-05-16T06:58:22Z</time>
      </trkpt>
      <trkpt lat="41.1933800" lon="-8.7072670">
        <ele>8.5</ele>
        <time>2021-05-16T06:58:23Z</time>
      </trkpt>
      <trkpt lat="41.1933950" lon="-8.7072720">
        <ele>8.5</ele>
        <time>2021-05-16T06:58:24Z</time>
      </trkpt>
      <trkpt lat="41.1934080" lon="-8.7072830">
        <ele>8.5</ele>
        <time>2021-05-16T06:58:25Z</time>
      </trkpt>
      <trkpt lat="41.1934220" lon="-8.7072900">
        <ele>8.5</ele>
        <time>2021-05-16T06:58:26Z</time>
      </trkpt>
      <trkpt lat="41.1934350" lon="-8.7072950">
        <ele>8.5</ele>
        <time>2021-05-16T06:58:27Z</time>
      </trkpt>
      <trkpt lat="41.1934490" lon="-8.7073080">
        <ele>8.5</ele>
        <time>2021-05-16T06:58:28Z</time>
      </trkpt>
      <trkpt lat="41.1934600" lon="-8.7073170">
        <ele>8.5</ele>
        <time>2021-05-16T06:58:29Z</time>
      </trkpt>
      <trkpt lat="41.1934730" lon="-8.7073280">
        <ele>8.5</ele>
        <time>2021-05-16T06:58:30Z</time>
      </trkpt>
      <trkpt lat="41.1934850" lon="-8.7073350">
        <ele>8.5</ele>
        <time>2021-05-16T06:58:31Z</time>
      </trkpt>
      <trkpt lat="41.1934990" lon="-8.7073420">
        <ele>8.5</ele>
        <time>2021-05-16T06:58:32Z</time>
      </trkpt>
      <trkpt lat="41.1935120" lon="-8.7073540">
        <ele>8.5</ele>
        <time>2021-05-16T06:58:33Z</time>
      </trkpt>
      <trkpt lat="41.1935260" lon="-8.7073660">
        <ele>8.5</ele>
        <time>2021-05-16T06:58:34Z</time>
      </trkpt>
      <trkpt lat="41.1935390" lon="-8.7073810">
        <ele>8.6</ele>
        <time>2021-05-16T06:58:35Z</time>
      </trkpt>
      <trkpt lat="41.1935540" lon="-8.7073820">
        <ele>8.6</ele>
        <time>2021-05-16T06:58:36Z</time>
      </trkpt>
      <trkpt lat="41.1935680" lon="-8.7073930">
        <ele>8.6</ele>
        <time>2021-05-16T06:58:37Z</time>
      </trkpt>
      <trkpt lat="41.1935800" lon="-8.7073990">
        <ele>8.6</ele>
        <time>2021-05-16T06:58:38Z</time>
      </trkpt>
      <trkpt lat="41.1935910" lon="-8.7074140">
        <ele>8.6</ele>
        <time>2021-05-16T06:58:39Z</time>
      </trkpt>
      <trkpt lat="41.1936030" lon="-8.7074190">
        <ele>8.6</ele>
        <time>2021-05-16T06:58:40Z</time>
      </trkpt>
      <trkpt lat="41.1936170" lon="-8.7074320">
        <ele>8.6</ele>
        <time>2021-05-16T06:58:41Z</time>
      </trkpt>
      <trkpt lat="41.1936300" lon="-8.7074420">
        <ele>8.6</ele>
        <time>2021-05-16T06:58:42Z</time>
      </trkpt>
      <trkpt lat="41.1936410" lon="-8.7074540">
        <ele>8.6</ele>
        <time>2021-05-16T06:58:43Z</time>
      </trkpt>
      <trkpt lat="41.1936540" lon="-8.7074650">
        <ele>8.6</ele>
        <time>2021-05-16T06:58:44Z</time>
      </trkpt>
      <trkpt lat="41.1936650" lon="-8.7074790">
        <ele>8.6</ele>
        <time>2021-05-16T06:58:45Z</time>
      </trkpt>
      <trkpt lat="41.1936820" lon="-8.7074870">
        <ele>8.7</ele>
        <time>2021-05-16T06:58:46Z</time>
      </trkpt>
      <trkpt lat="41.1936930" lon="-8.7074920">
        <ele>8.7</ele>
        <time>2021-05-16T06:58:47Z</time>
      </trkpt>
      <trkpt lat="41.1937070" lon="-8.7075020">
        <ele>8.7</ele>
        <time>2021-05-16T06:58:48Z</time>
      </trkpt>
      <trkpt lat="41.1937210" lon="-8.7075080">
        <ele>8.7</ele>
        <time>2021-05-16T06:58:49Z</time>
      </trkpt>
      <trkpt lat="41.1937360" lon="-8.7075230">
        <ele>8.7</ele>
        <time>2021-05-16T06:58:50Z</time>
      </trkpt>
      <trkpt lat="41.1937450" lon="-8.7075330">
        <ele>8.7</ele>
        <time>2021-05-16T06:58:51Z</time>
      </trkpt>
      <trkpt lat="41.1937630" lon="-8.7075440">
        <ele>8.7</ele>
        <time>2021-05-16T06:58:52Z</time>
      </trkpt>
      <trkpt lat="41.1937730" lon="-8.7075540">
        <ele>8.7</ele>
        <time>2021-05-16T06:58:53Z</time>
      </trkpt>
      <trkpt lat="41.1937970" lon="-8.7075720">
        <ele>8.7</ele>
        <time>2021-05-16T06:58:54Z</time>
      </trkpt>
      <trkpt lat="41.1938040" lon="-8.7075800">
        <ele>8.7</ele>
        <time>2021-05-16T06:58:55Z</time>
      </trkpt>
      <trkpt lat="41.1938170" lon="-8.7075890">
        <ele>8.7</ele>
        <time>2021-05-16T06:58:56Z</time>
      </trkpt>
      <trkpt lat="41.1938320" lon="-8.7075940">
        <ele>8.7</ele>
        <time>2021-05-16T06:58:57Z</time>
      </trkpt>
      <trkpt lat="41.1938460" lon="-8.7076030">
        <ele>8.7</ele>
        <time>2021-05-16T06:58:58Z</time>
      </trkpt>
      <trkpt lat="41.1938590" lon="-8.7076100">
        <ele>8.7</ele>
        <time>2021-05-16T06:58:59Z</time>
      </trkpt>
      <trkpt lat="41.1938740" lon="-8.7076150">
        <ele>8.7</ele>
        <time>2021-05-16T06:59:00Z</time>
      </trkpt>
      <trkpt lat="41.1938870" lon="-8.7076200">
        <ele>8.7</ele>
        <time>2021-05-16T06:59:01Z</time>
      </trkpt>
      <trkpt lat="41.1938990" lon="-8.7076350">
        <ele>8.7</ele>
        <time>2021-05-16T06:59:02Z</time>
      </trkpt>
      <trkpt lat="41.1939120" lon="-8.7076420">
        <ele>8.7</ele>
        <time>2021-05-16T06:59:03Z</time>
      </trkpt>
      <trkpt lat="41.1939230" lon="-8.7076510">
        <ele>8.7</ele>
        <time>2021-05-16T06:59:04Z</time>
      </trkpt>
      <trkpt lat="41.1939390" lon="-8.7076580">
        <ele>8.7</ele>
        <time>2021-05-16T06:59:05Z</time>
      </trkpt>
      <trkpt lat="41.1939520" lon="-8.7076680">
        <ele>8.7</ele>
        <time>2021-05-16T06:59:06Z</time>
      </trkpt>
      <trkpt lat="41.1939630" lon="-8.7076800">
        <ele>8.7</ele>
        <time>2021-05-16T06:59:07Z</time>
      </trkpt>
      <trkpt lat="41.1939740" lon="-8.7076960">
        <ele>8.7</ele>
        <time>2021-05-16T06:59:08Z</time>
      </trkpt>
      <trkpt lat="41.1939890" lon="-8.7077080">
        <ele>8.7</ele>
        <time>2021-05-16T06:59:09Z</time>
      </trkpt>
      <trkpt lat="41.1940110" lon="-8.7077170">
        <ele>8.7</ele>
        <time>2021-05-16T06:59:10Z</time>
      </trkpt>
      <trkpt lat="41.1940200" lon="-8.7077210">
        <ele>8.7</ele>
        <time>2021-05-16T06:59:11Z</time>
      </trkpt>
      <trkpt lat="41.1940280" lon="-8.7077260">
        <ele>8.7</ele>
        <time>2021-05-16T06:59:12Z</time>
      </trkpt>
      <trkpt lat="41.1940430" lon="-8.7077310">
        <ele>8.8</ele>
        <time>2021-05-16T06:59:13Z</time>
      </trkpt>
      <trkpt lat="41.1940570" lon="-8.7077440">
        <ele>8.8</ele>
        <time>2021-05-16T06:59:14Z</time>
      </trkpt>
      <trkpt lat="41.1940720" lon="-8.7077500">
        <ele>8.8</ele>
        <time>2021-05-16T06:59:15Z</time>
      </trkpt>
      <trkpt lat="41.1940850" lon="-8.7077610">
        <ele>8.8</ele>
        <time>2021-05-16T06:59:16Z</time>
      </trkpt>
      <trkpt lat="41.1940970" lon="-8.7077700">
        <ele>8.8</ele>
        <time>2021-05-16T06:59:17Z</time>
      </trkpt>
      <trkpt lat="41.1941100" lon="-8.7077760">
        <ele>8.8</ele>
        <time>2021-05-16T06:59:18Z</time>
      </trkpt>
      <trkpt lat="41.1941250" lon="-8.7077830">
        <ele>8.8</ele>
        <time>2021-05-16T06:59:19Z</time>
      </trkpt>
      <trkpt lat="41.1941390" lon="-8.7077930">
        <ele>8.8</ele>
        <time>2021-05-16T06:59:20Z</time>
      </trkpt>
      <trkpt lat="41.1941560" lon="-8.7078020">
        <ele>8.8</ele>
        <time>2021-05-16T06:59:21Z</time>
      </trkpt>
      <trkpt lat="41.1941690" lon="-8.7078130">
        <ele>8.8</ele>
        <time>2021-05-16T06:59:22Z</time>
      </trkpt>
      <trkpt lat="41.1941870" lon="-8.7078170">
        <ele>8.8</ele>
        <time>2021-05-16T06:59:23Z</time>
      </trkpt>
      <trkpt lat="41.1942010" lon="-8.7078200">
        <ele>8.8</ele>
        <time>2021-05-16T06:59:24Z</time>
      </trkpt>
      <trkpt lat="41.1942150" lon="-8.7078290">
        <ele>8.8</ele>
        <time>2021-05-16T06:59:25Z</time>
      </trkpt>
      <trkpt lat="41.1942270" lon="-8.7078420">
        <ele>8.8</ele>
        <time>2021-05-16T06:59:26Z</time>
      </trkpt>
      <trkpt lat="41.1942420" lon="-8.7078530">
        <ele>8.8</ele>
        <time>2021-05-16T06:59:27Z</time>
      </trkpt>
      <trkpt lat="41.1942550" lon="-8.7078620">
        <ele>8.8</ele>
        <time>2021-05-16T06:59:28Z</time>
      </trkpt>
      <trkpt lat="41.1942700" lon="-8.7078730">
        <ele>8.8</ele>
        <time>2021-05-16T06:59:29Z</time>
      </trkpt>
      <trkpt lat="41.1942830" lon="-8.7078770">
        <ele>8.8</ele>
        <time>2021-05-16T06:59:30Z</time>
      </trkpt>
      <trkpt lat="41.1942970" lon="-8.7078830">
        <ele>8.9</ele>
        <time>2021-05-16T06:59:31Z</time>
      </trkpt>
      <trkpt lat="41.1943120" lon="-8.7078950">
        <ele>8.9</ele>
        <time>2021-05-16T06:59:32Z</time>
      </trkpt>
      <trkpt lat="41.1943290" lon="-8.7079110">
        <ele>8.9</ele>
        <time>2021-05-16T06:59:33Z</time>
      </trkpt>
      <trkpt lat="41.1943370" lon="-8.7079130">
        <ele>8.9</ele>
        <time>2021-05-16T06:59:34Z</time>
      </trkpt>
      <trkpt lat="41.1943460" lon="-8.7079160">
        <ele>8.9</ele>
        <time>2021-05-16T06:59:35Z</time>
      </trkpt>
      <trkpt lat="41.1943600" lon="-8.7079260">
        <ele>8.9</ele>
        <time>2021-05-16T06:59:36Z</time>
      </trkpt>
      <trkpt lat="41.1943720" lon="-8.7079370">
        <ele>8.9</ele>
        <time>2021-05-16T06:59:37Z</time>
      </trkpt>
      <trkpt lat="41.1943870" lon="-8.7079410">
        <ele>8.9</ele>
        <time>2021-05-16T06:59:38Z</time>
      </trkpt>
      <trkpt lat="41.1944010" lon="-8.7079500">
        <ele>8.9</ele>
        <time>2021-05-16T06:59:39Z</time>
      </trkpt>
      <trkpt lat="41.1944130" lon="-8.7079600">
        <ele>8.9</ele>
        <time>2021-05-16T06:59:40Z</time>
      </trkpt>
      <trkpt lat="41.1944260" lon="-8.7079700">
        <ele>8.9</ele>
        <time>2021-05-16T06:59:41Z</time>
      </trkpt>
      <trkpt lat="41.1944380" lon="-8.7079810">
        <ele>8.9</ele>
        <time>2021-05-16T06:59:42Z</time>
      </trkpt>
      <trkpt lat="41.1944520" lon="-8.7079890">
        <ele>8.9</ele>
        <time>2021-05-16T06:59:43Z</time>
      </trkpt>
      <trkpt lat="41.1944700" lon="-8.7080080">
        <ele>8.9</ele>
        <time>2021-05-16T06:59:44Z</time>
      </trkpt>
      <trkpt lat="41.1944800" lon="-8.7080140">
        <ele>8.9</ele>
        <time>2021-05-16T06:59:45Z</time>
      </trkpt>
      <trkpt lat="41.1944890" lon="-8.7080210">
        <ele>8.9</ele>
        <time>2021-05-16T06:59:46Z</time>
      </trkpt>
      <trkpt lat="41.1944990" lon="-8.7080360">
        <ele>8.9</ele>
        <time>2021-05-16T06:59:47Z</time>
      </trkpt>
      <trkpt lat="41.1945120" lon="-8.7080440">
        <ele>8.9</ele>
        <time>2021-05-16T06:59:48Z</time>
      </trkpt>
      <trkpt lat="41.1945220" lon="-8.7080610">
        <ele>8.9</ele>
        <time>2021-05-16T06:59:49Z</time>
      </trkpt>
      <trkpt lat="41.1945340" lon="-8.7080720">
        <ele>8.9</ele>
        <time>2021-05-16T06:59:50Z</time>
      </trkpt>
      <trkpt lat="41.1945470" lon="-8.7080760">
        <ele>9.0</ele>
        <time>2021-05-16T06:59:51Z</time>
      </trkpt>
      <trkpt lat="41.1945650" lon="-8.7080810">
        <ele>9.0</ele>
        <time>2021-05-16T06:59:52Z</time>
      </trkpt>
      <trkpt lat="41.1945780" lon="-8.7080950">
        <ele>9.0</ele>
        <time>2021-05-16T06:59:53Z</time>
      </trkpt>
      <trkpt lat="41.1945920" lon="-8.7081030">
        <ele>9.0</ele>
        <time>2021-05-16T06:59:54Z</time>
      </trkpt>
      <trkpt lat="41.1946050" lon="-8.7081150">
        <ele>9.0</ele>
        <time>2021-05-16T06:59:55Z</time>
      </trkpt>
      <trkpt lat="41.1946210" lon="-8.7081170">
        <ele>9.0</ele>
        <time>2021-05-16T06:59:56Z</time>
      </trkpt>
      <trkpt lat="41.1946340" lon="-8.7081260">
        <ele>9.0</ele>
        <time>2021-05-16T06:59:57Z</time>
      </trkpt>
      <trkpt lat="41.1946480" lon="-8.7081360">
        <ele>9.0</ele>
        <time>2021-05-16T06:59:58Z</time>
      </trkpt>
      <trkpt lat="41.1946600" lon="-8.7081470">
        <ele>9.0</ele>
        <time>2021-05-16T06:59:59Z</time>
      </trkpt>
      <trkpt lat="41.1946740" lon="-8.7081590">
        <ele>9.0</ele>
        <time>2021-05-16T07:00:00Z</time>
      </trkpt>
      <trkpt lat="41.1946880" lon="-8.7081690">
        <ele>9.1</ele>
        <time>2021-05-16T07:00:01Z</time>
      </trkpt>
      <trkpt lat="41.1947010" lon="-8.7081730">
        <ele>9.1</ele>
        <time>2021-05-16T07:00:02Z</time>
      </trkpt>
      <trkpt lat="41.1947150" lon="-8.7081860">
        <ele>9.1</ele>
        <time>2021-05-16T07:00:03Z</time>
      </trkpt>
      <trkpt lat="41.1947260" lon="-8.7081960">
        <ele>9.1</ele>
        <time>2021-05-16T07:00:04Z</time>
      </trkpt>
      <trkpt lat="41.1947470" lon="-8.7082120">
        <ele>9.1</ele>
        <time>2021-05-16T07:00:05Z</time>
      </trkpt>
      <trkpt lat="41.1947560" lon="-8.7082160">
        <ele>9.1</ele>
        <time>2021-05-16T07:00:06Z</time>
      </trkpt>
      <trkpt lat="41.1947640" lon="-8.7082210">
        <ele>9.1</ele>
        <time>2021-05-16T07:00:07Z</time>
      </trkpt>
      <trkpt lat="41.1947740" lon="-8.7082320">
        <ele>9.1</ele>
        <time>2021-05-16T07:00:08Z</time>
      </trkpt>
      <trkpt lat="41.1947870" lon="-8.7082400">
        <ele>9.1</ele>
        <time>2021-05-16T07:00:09Z</time>
      </trkpt>
      <trkpt lat="41.1947980" lon="-8.7082490">
        <ele>9.1</ele>
        <time>2021-05-16T07:00:10Z</time>
      </trkpt>
      <trkpt lat="41.1948120" lon="-8.7082630">
        <ele>9.1</ele>
        <time>2021-05-16T07:00:11Z</time>
      </trkpt>
      <trkpt lat="41.1948260" lon="-8.7082710">
        <ele>9.1</ele>
        <time>2021-05-16T07:00:12Z</time>
      </trkpt>
      <trkpt lat="41.1948380" lon="-8.7082800">
        <ele>9.1</ele>
        <time>2021-05-16T07:00:13Z</time>
      </trkpt>
      <trkpt lat="41.1948510" lon="-8.7082890">
        <ele>9.1</ele>
        <time>2021-05-16T07:00:14Z</time>
      </trkpt>
      <trkpt lat="41.1948640" lon="-8.7082980">
        <ele>9.1</ele>
        <time>2021-05-16T07:00:15Z</time>
      </trkpt>
      <trkpt lat="41.1948770" lon="-8.7083080">
        <ele>9.2</ele>
        <time>2021-05-16T07:00:16Z</time>
      </trkpt>
      <trkpt lat="41.1948900" lon="-8.7083150">
        <ele>9.2</ele>
        <time>2021-05-16T07:00:17Z</time>
      </trkpt>
      <trkpt lat="41.1949050" lon="-8.7083260">
        <ele>9.2</ele>
        <time>2021-05-16T07:00:18Z</time>
      </trkpt>
      <trkpt lat="41.1949170" lon="-8.7083340">
        <ele>9.2</ele>
        <time>2021-05-16T07:00:19Z</time>
      </trkpt>
      <trkpt lat="41.1949300" lon="-8.7083410">
        <ele>9.2</ele>
        <time>2021-05-16T07:00:20Z</time>
      </trkpt>
      <trkpt lat="41.1949450" lon="-8.7083480">
        <ele>9.2</ele>
        <time>2021-05-16T07:00:21Z</time>
      </trkpt>
      <trkpt lat="41.1949590" lon="-8.7083620">
        <ele>9.2</ele>
        <time>2021-05-16T07:00:22Z</time>
      </trkpt>
      <trkpt lat="41.1949720" lon="-8.7083660">
        <ele>9.2</ele>
        <time>2021-05-16T07:00:23Z</time>
      </trkpt>
      <trkpt lat="41.1949830" lon="-8.7083840">
        <ele>9.2</ele>
        <time>2021-05-16T07:00:24Z</time>
      </trkpt>
      <trkpt lat="41.1949980" lon="-8.7083910">
        <ele>9.2</ele>
        <time>2021-05-16T07:00:25Z</time>
      </trkpt>
      <trkpt lat="41.1950130" lon="-8.7083990">
        <ele>9.2</ele>
        <time>2021-05-16T07:00:26Z</time>
      </trkpt>
      <trkpt lat="41.1950270" lon="-8.7084110">
        <ele>9.2</ele>
        <time>2021-05-16T07:00:27Z</time>
      </trkpt>
      <trkpt lat="41.1950400" lon="-8.7084180">
        <ele>9.2</ele>
        <time>2021-05-16T07:00:28Z</time>
      </trkpt>
      <trkpt lat="41.1950520" lon="-8.7084290">
        <ele>9.2</ele>
        <time>2021-05-16T07:00:29Z</time>
      </trkpt>
      <trkpt lat="41.1950630" lon="-8.7084390">
        <ele>9.2</ele>
        <time>2021-05-16T07:00:30Z</time>
      </trkpt>
      <trkpt lat="41.1950800" lon="-8.7084500">
        <ele>9.2</ele>
        <time>2021-05-16T07:00:31Z</time>
      </trkpt>
      <trkpt lat="41.1950930" lon="-8.7084570">
        <ele>9.2</ele>
        <time>2021-05-16T07:00:32Z</time>
      </trkpt>
      <trkpt lat="41.1951070" lon="-8.7084690">
        <ele>9.2</ele>
        <time>2021-05-16T07:00:33Z</time>
      </trkpt>
      <trkpt lat="41.1951210" lon="-8.7084820">
        <ele>9.2</ele>
        <time>2021-05-16T07:00:34Z</time>
      </trkpt>
      <trkpt lat="41.1951360" lon="-8.7084900">
        <ele>9.2</ele>
        <time>2021-05-16T07:00:35Z</time>
      </trkpt>
      <trkpt lat="41.1951490" lon="-8.7084970">
        <ele>9.3</ele>
        <time>2021-05-16T07:00:36Z</time>
      </trkpt>
      <trkpt lat="41.1951610" lon="-8.7085080">
        <ele>9.3</ele>
        <time>2021-05-16T07:00:37Z</time>
      </trkpt>
      <trkpt lat="41.1951730" lon="-8.7085170">
        <ele>9.3</ele>
        <time>2021-05-16T07:00:38Z</time>
      </trkpt>
      <trkpt lat="41.1951880" lon="-8.7085210">
        <ele>9.3</ele>
        <time>2021-05-16T07:00:39Z</time>
      </trkpt>
      <trkpt lat="41.1952050" lon="-8.7085310">
        <ele>9.3</ele>
        <time>2021-05-16T07:00:40Z</time>
      </trkpt>
      <trkpt lat="41.1952170" lon="-8.7085420">
        <ele>9.3</ele>
        <time>2021-05-16T07:00:41Z</time>
      </trkpt>
      <trkpt lat="41.1952300" lon="-8.7085580">
        <ele>9.3</ele>
        <time>2021-05-16T07:00:42Z</time>
      </trkpt>
      <trkpt lat="41.1952450" lon="-8.7085680">
        <ele>9.3</ele>
        <time>2021-05-16T07:00:43Z</time>
      </trkpt>
      <trkpt lat="41.1952590" lon="-8.7085790">
        <ele>9.3</ele>
        <time>2021-05-16T07:00:44Z</time>
      </trkpt>
      <trkpt lat="41.1952730" lon="-8.7085840">
        <ele>9.3</ele>
        <time>2021-05-16T07:00:45Z</time>
      </trkpt>
      <trkpt lat="41.1952860" lon="-8.7085890">
        <ele>9.3</ele>
        <time>2021-05-16T07:00:46Z</time>
      </trkpt>
      <trkpt lat="41.1953000" lon="-8.7086020">
        <ele>9.3</ele>
        <time>2021-05-16T07:00:47Z</time>
      </trkpt>
      <trkpt lat="41.1953110" lon="-8.7086120">
        <ele>9.3</ele>
        <time>2021-05-16T07:00:48Z</time>
      </trkpt>
      <trkpt lat="41.1953250" lon="-8.7086220">
        <ele>9.3</ele>
        <time>2021-05-16T07:00:49Z</time>
      </trkpt>
      <trkpt lat="41.1953400" lon="-8.7086270">
        <ele>9.3</ele>
        <time>2021-05-16T07:00:50Z</time>
      </trkpt>
      <trkpt lat="41.1953530" lon="-8.7086330">
        <ele>9.3</ele>
        <time>2021-05-16T07:00:51Z</time>
      </trkpt>
      <trkpt lat="41.1953640" lon="-8.7086420">
        <ele>9.3</ele>
        <time>2021-05-16T07:00:52Z</time>
      </trkpt>
      <trkpt lat="41.1953770" lon="-8.7086520">
        <ele>9.3</ele>
        <time>2021-05-16T07:00:53Z</time>
      </trkpt>
      <trkpt lat="41.1953900" lon="-8.7086640">
        <ele>9.3</ele>
        <time>2021-05-16T07:00:54Z</time>
      </trkpt>
      <trkpt lat="41.1954040" lon="-8.7086720">
        <ele>9.3</ele>
        <time>2021-05-16T07:00:55Z</time>
      </trkpt>
      <trkpt lat="41.1954190" lon="-8.7086820">
        <ele>9.3</ele>
        <time>2021-05-16T07:00:56Z</time>
      </trkpt>
      <trkpt lat="41.1954340" lon="-8.7086910">
        <ele>9.3</ele>
        <time>2021-05-16T07:00:57Z</time>
      </trkpt>
      <trkpt lat="41.1954550" lon="-8.7087030">
        <ele>9.3</ele>
        <time>2021-05-16T07:00:58Z</time>
      </trkpt>
      <trkpt lat="41.1954630" lon="-8.7087080">
        <ele>9.3</ele>
        <time>2021-05-16T07:00:59Z</time>
      </trkpt>
      <trkpt lat="41.1954700" lon="-8.7087140">
        <ele>9.3</ele>
        <time>2021-05-16T07:01:00Z</time>
      </trkpt>
      <trkpt lat="41.1954850" lon="-8.7087160">
        <ele>9.3</ele>
        <time>2021-05-16T07:01:01Z</time>
      </trkpt>
      <trkpt lat="41.1954970" lon="-8.7087200">
        <ele>9.3</ele>
        <time>2021-05-16T07:01:02Z</time>
      </trkpt>
      <trkpt lat="41.1955130" lon="-8.7087300">
        <ele>9.3</ele>
        <time>2021-05-16T07:01:03Z</time>
      </trkpt>
      <trkpt lat="41.1955280" lon="-8.7087410">
        <ele>9.3</ele>
        <time>2021-05-16T07:01:04Z</time>
      </trkpt>
      <trkpt lat="41.1955430" lon="-8.7087530">
        <ele>9.3</ele>
        <time>2021-05-16T07:01:05Z</time>
      </trkpt>
      <trkpt lat="41.1955530" lon="-8.7087600">
        <ele>9.3</ele>
        <time>2021-05-16T07:01:06Z</time>
      </trkpt>
      <trkpt lat="41.1955660" lon="-8.7087690">
        <ele>9.3</ele>
        <time>2021-05-16T07:01:07Z</time>
      </trkpt>
      <trkpt lat="41.1955840" lon="-8.7087760">
        <ele>9.3</ele>
        <time>2021-05-16T07:01:08Z</time>
      </trkpt>
      <trkpt lat="41.1955940" lon="-8.7087910">
        <ele>9.3</ele>
        <time>2021-05-16T07:01:09Z</time>
      </trkpt>
      <trkpt lat="41.1956060" lon="-8.7088030">
        <ele>9.3</ele>
        <time>2021-05-16T07:01:10Z</time>
      </trkpt>
      <trkpt lat="41.1956240" lon="-8.7088110">
        <ele>9.3</ele>
        <time>2021-05-16T07:01:11Z</time>
      </trkpt>
      <trkpt lat="41.1956380" lon="-8.7088190">
        <ele>9.2</ele>
        <time>2021-05-16T07:01:12Z</time>
      </trkpt>
      <trkpt lat="41.1956530" lon="-8.7088280">
        <ele>9.2</ele>
        <time>2021-05-16T07:01:13Z</time>
      </trkpt>
      <trkpt lat="41.1956630" lon="-8.7088360">
        <ele>9.2</ele>
        <time>2021-05-16T07:01:14Z</time>
      </trkpt>
      <trkpt lat="41.1956710" lon="-8.7088450">
        <ele>9.2</ele>
        <time>2021-05-16T07:01:15Z</time>
      </trkpt>
      <trkpt lat="41.1956860" lon="-8.7088590">
        <ele>9.2</ele>
        <time>2021-05-16T07:01:16Z</time>
      </trkpt>
      <trkpt lat="41.1957010" lon="-8.7088660">
        <ele>9.2</ele>
        <time>2021-05-16T07:01:17Z</time>
      </trkpt>
      <trkpt lat="41.1957130" lon="-8.7088750">
        <ele>9.2</ele>
        <time>2021-05-16T07:01:18Z</time>
      </trkpt>
      <trkpt lat="41.1957260" lon="-8.7088820">
        <ele>9.2</ele>
        <time>2021-05-16T07:01:19Z</time>
      </trkpt>
      <trkpt lat="41.1957400" lon="-8.7088910">
        <ele>9.2</ele>
        <time>2021-05-16T07:01:20Z</time>
      </trkpt>
      <trkpt lat="41.1957540" lon="-8.7089010">
        <ele>9.2</ele>
        <time>2021-05-16T07:01:21Z</time>
      </trkpt>
      <trkpt lat="41.1957670" lon="-8.7089140">
        <ele>9.2</ele>
        <time>2021-05-16T07:01:22Z</time>
      </trkpt>
      <trkpt lat="41.1957800" lon="-8.7089200">
        <ele>9.2</ele>
        <time>2021-05-16T07:01:23Z</time>
      </trkpt>
      <trkpt lat="41.1957940" lon="-8.7089300">
        <ele>9.2</ele>
        <time>2021-05-16T07:01:24Z</time>
      </trkpt>
      <trkpt lat="41.1958140" lon="-8.7089400">
        <ele>9.2</ele>
        <time>2021-05-16T07:01:25Z</time>
      </trkpt>
      <trkpt lat="41.1958230" lon="-8.7089440">
        <ele>9.2</ele>
        <time>2021-05-16T07:01:26Z</time>
      </trkpt>
      <trkpt lat="41.1958320" lon="-8.7089470">
        <ele>9.2</ele>
        <time>2021-05-16T07:01:27Z</time>
      </trkpt>
      <trkpt lat="41.1958430" lon="-8.7089610">
        <ele>9.2</ele>
        <time>2021-05-16T07:01:28Z</time>
      </trkpt>
      <trkpt lat="41.1958570" lon="-8.7089700">
        <ele>9.2</ele>
        <time>2021-05-16T07:01:29Z</time>
      </trkpt>
      <trkpt lat="41.1958690" lon="-8.7089810">
        <ele>9.2</ele>
        <time>2021-05-16T07:01:30Z</time>
      </trkpt>
      <trkpt lat="41.1958830" lon="-8.7089890">
        <ele>9.2</ele>
        <time>2021-05-16T07:01:31Z</time>
      </trkpt>
      <trkpt lat="41.1958970" lon="-8.7089980">
        <ele>9.2</ele>
        <time>2021-05-16T07:01:32Z</time>
      </trkpt>
      <trkpt lat="41.1959090" lon="-8.7090070">
        <ele>9.2</ele>
        <time>2021-05-16T07:01:33Z</time>
      </trkpt>
      <trkpt lat="41.1959300" lon="-8.7090170">
        <ele>9.2</ele>
        <time>2021-05-16T07:01:34Z</time>
      </trkpt>
      <trkpt lat="41.1959400" lon="-8.7090230">
        <ele>9.2</ele>
        <time>2021-05-16T07:01:35Z</time>
      </trkpt>
      <trkpt lat="41.1959490" lon="-8.7090290">
        <ele>9.2</ele>
        <time>2021-05-16T07:01:36Z</time>
      </trkpt>
      <trkpt lat="41.1959620" lon="-8.7090410">
        <ele>9.2</ele>
        <time>2021-05-16T07:01:37Z</time>
      </trkpt>
      <trkpt lat="41.1959770" lon="-8.7090490">
        <ele>9.2</ele>
        <time>2021-05-16T07:01:38Z</time>
      </trkpt>
      <trkpt lat="41.1959900" lon="-8.7090610">
        <ele>9.2</ele>
        <time>2021-05-16T07:01:39Z</time>
      </trkpt>
      <trkpt lat="41.1960030" lon="-8.7090660">
        <ele>9.2</ele>
        <time>2021-05-16T07:01:40Z</time>
      </trkpt>
      <trkpt lat="41.1960170" lon="-8.7090770">
        <ele>9.2</ele>
        <time>2021-05-16T07:01:41Z</time>
      </trkpt>
      <trkpt lat="41.1960300" lon="-8.7090840">
        <ele>9.2</ele>
        <time>2021-05-16T07:01:42Z</time>
      </trkpt>
      <trkpt lat="41.1960430" lon="-8.7090930">
        <ele>9.2</ele>
        <time>2021-05-16T07:01:43Z</time>
      </trkpt>
      <trkpt lat="41.1960570" lon="-8.7091020">
        <ele>9.2</ele>
        <time>2021-05-16T07:01:44Z</time>
      </trkpt>
      <trkpt lat="41.1960720" lon="-8.7091040">
        <ele>9.2</ele>
        <time>2021-05-16T07:01:45Z</time>
      </trkpt>
      <trkpt lat="41.1960860" lon="-8.7091090">
        <ele>9.2</ele>
        <time>2021-05-16T07:01:46Z</time>
      </trkpt>
      <trkpt lat="41.1960990" lon="-8.7091180">
        <ele>9.2</ele>
        <time>2021-05-16T07:01:47Z</time>
      </trkpt>
      <trkpt lat="41.1961130" lon="-8.7091280">
        <ele>9.2</ele>
        <time>2021-05-16T07:01:48Z</time>
      </trkpt>
      <trkpt lat="41.1961230" lon="-8.7091400">
        <ele>9.2</ele>
        <time>2021-05-16T07:01:49Z</time>
      </trkpt>
      <trkpt lat="41.1961380" lon="-8.7091500">
        <ele>9.2</ele>
        <time>2021-05-16T07:01:50Z</time>
      </trkpt>
      <trkpt lat="41.1961540" lon="-8.7091520">
        <ele>9.2</ele>
        <time>2021-05-16T07:01:51Z</time>
      </trkpt>
      <trkpt lat="41.1961690" lon="-8.7091580">
        <ele>9.2</ele>
        <time>2021-05-16T07:01:52Z</time>
      </trkpt>
      <trkpt lat="41.1961830" lon="-8.7091700">
        <ele>9.2</ele>
        <time>2021-05-16T07:01:53Z</time>
      </trkpt>
      <trkpt lat="41.1961970" lon="-8.7091780">
        <ele>9.2</ele>
        <time>2021-05-16T07:01:54Z</time>
      </trkpt>
      <trkpt lat="41.1962100" lon="-8.7091880">
        <ele>9.2</ele>
        <time>2021-05-16T07:01:55Z</time>
      </trkpt>
      <trkpt lat="41.1962270" lon="-8.7091920">
        <ele>9.2</ele>
        <time>2021-05-16T07:01:56Z</time>
      </trkpt>
      <trkpt lat="41.1962460" lon="-8.7092040">
        <ele>9.2</ele>
        <time>2021-05-16T07:01:57Z</time>
      </trkpt>
      <trkpt lat="41.1962530" lon="-8.7092080">
        <ele>9.2</ele>
        <time>2021-05-16T07:01:58Z</time>
      </trkpt>
      <trkpt lat="41.1962610" lon="-8.7092130">
        <ele>9.2</ele>
        <time>2021-05-16T07:01:59Z</time>
      </trkpt>
      <trkpt lat="41.1962760" lon="-8.7092280">
        <ele>9.2</ele>
        <time>2021-05-16T07:02:00Z</time>
      </trkpt>
      <trkpt lat="41.1962890" lon="-8.7092410">
        <ele>9.2</ele>
        <time>2021-05-16T07:02:01Z</time>
      </trkpt>
      <trkpt lat="41.1963040" lon="-8.7092520">
        <ele>9.2</ele>
        <time>2021-05-16T07:02:02Z</time>
      </trkpt>
      <trkpt lat="41.1963190" lon="-8.7092620">
        <ele>9.2</ele>
        <time>2021-05-16T07:02:03Z</time>
      </trkpt>
      <trkpt lat="41.1963350" lon="-8.7092750">
        <ele>9.2</ele>
        <time>2021-05-16T07:02:04Z</time>
      </trkpt>
      <trkpt lat="41.1963500" lon="-8.7092840">
        <ele>9.2</ele>
        <time>2021-05-16T07:02:05Z</time>
      </trkpt>
      <trkpt lat="41.1963660" lon="-8.7092910">
        <ele>9.2</ele>
        <time>2021-05-16T07:02:06Z</time>
      </trkpt>
      <trkpt lat="41.1963770" lon="-8.7092980">
        <ele>9.2</ele>
        <time>2021-05-16T07:02:07Z</time>
      </trkpt>
      <trkpt lat="41.1963900" lon="-8.7093020">
        <ele>9.2</ele>
        <time>2021-05-16T07:02:08Z</time>
      </trkpt>
      <trkpt lat="41.1964020" lon="-8.7093110">
        <ele>9.2</ele>
        <time>2021-05-16T07:02:09Z</time>
      </trkpt>
      <trkpt lat="41.1964200" lon="-8.7093150">
        <ele>9.2</ele>
        <time>2021-05-16T07:02:10Z</time>
      </trkpt>
      <trkpt lat="41.1964350" lon="-8.7093230">
        <ele>9.2</ele>
        <time>2021-05-16T07:02:11Z</time>
      </trkpt>
      <trkpt lat="41.1964440" lon="-8.7093350">
        <ele>9.2</ele>
        <time>2021-05-16T07:02:12Z</time>
      </trkpt>
      <trkpt lat="41.1964610" lon="-8.7093470">
        <ele>9.1</ele>
        <time>2021-05-16T07:02:13Z</time>
      </trkpt>
      <trkpt lat="41.1964770" lon="-8.7093520">
        <ele>9.1</ele>
        <time>2021-05-16T07:02:14Z</time>
      </trkpt>
      <trkpt lat="41.1964910" lon="-8.7093600">
        <ele>9.1</ele>
        <time>2021-05-16T07:02:15Z</time>
      </trkpt>
      <trkpt lat="41.1965020" lon="-8.7093740">
        <ele>9.1</ele>
        <time>2021-05-16T07:02:16Z</time>
      </trkpt>
      <trkpt lat="41.1965150" lon="-8.7093830">
        <ele>9.1</ele>
        <time>2021-05-16T07:02:17Z</time>
      </trkpt>
      <trkpt lat="41.1965290" lon="-8.7093950">
        <ele>9.1</ele>
        <time>2021-05-16T07:02:18Z</time>
      </trkpt>
      <trkpt lat="41.1965410" lon="-8.7094010">
        <ele>9.1</ele>
        <time>2021-05-16T07:02:19Z</time>
      </trkpt>
      <trkpt lat="41.1965630" lon="-8.7094150">
        <ele>9.1</ele>
        <time>2021-05-16T07:02:20Z</time>
      </trkpt>
      <trkpt lat="41.1965700" lon="-8.7094210">
        <ele>9.1</ele>
        <time>2021-05-16T07:02:21Z</time>
      </trkpt>
      <trkpt lat="41.1965780" lon="-8.7094260">
        <ele>9.1</ele>
        <time>2021-05-16T07:02:22Z</time>
      </trkpt>
      <trkpt lat="41.1965890" lon="-8.7094420">
        <ele>9.1</ele>
        <time>2021-05-16T07:02:23Z</time>
      </trkpt>
      <trkpt lat="41.1966020" lon="-8.7094520">
        <ele>9.1</ele>
        <time>2021-05-16T07:02:24Z</time>
      </trkpt>
      <trkpt lat="41.1966160" lon="-8.7094640">
        <ele>9.1</ele>
        <time>2021-05-16T07:02:25Z</time>
      </trkpt>
      <trkpt lat="41.1966300" lon="-8.7094750">
        <ele>9.1</ele>
        <time>2021-05-16T07:02:26Z</time>
      </trkpt>
      <trkpt lat="41.1966470" lon="-8.7094850">
        <ele>9.1</ele>
        <time>2021-05-16T07:02:27Z</time>
      </trkpt>
      <trkpt lat="41.1966600" lon="-8.7094970">
        <ele>9.1</ele>
        <time>2021-05-16T07:02:28Z</time>
      </trkpt>
      <trkpt lat="41.1966760" lon="-8.7095080">
        <ele>9.1</ele>
        <time>2021-05-16T07:02:29Z</time>
      </trkpt>
      <trkpt lat="41.1966880" lon="-8.7095130">
        <ele>9.1</ele>
        <time>2021-05-16T07:02:30Z</time>
      </trkpt>
      <trkpt lat="41.1967080" lon="-8.7095250">
        <ele>9.1</ele>
        <time>2021-05-16T07:02:31Z</time>
      </trkpt>
      <trkpt lat="41.1967150" lon="-8.7095330">
        <ele>9.1</ele>
        <time>2021-05-16T07:02:32Z</time>
      </trkpt>
      <trkpt lat="41.1967230" lon="-8.7095400">
        <ele>9.1</ele>
        <time>2021-05-16T07:02:33Z</time>
      </trkpt>
      <trkpt lat="41.1967360" lon="-8.7095570">
        <ele>9.1</ele>
        <time>2021-05-16T07:02:34Z</time>
      </trkpt>
      <trkpt lat="41.1967470" lon="-8.7095660">
        <ele>9.1</ele>
        <time>2021-05-16T07:02:35Z</time>
      </trkpt>
      <trkpt lat="41.1967600" lon="-8.7095780">
        <ele>9.1</ele>
        <time>2021-05-16T07:02:36Z</time>
      </trkpt>
      <trkpt lat="41.1967690" lon="-8.7095900">
        <ele>9.1</ele>
        <time>2021-05-16T07:02:37Z</time>
      </trkpt>
      <trkpt lat="41.1967830" lon="-8.7095980">
        <ele>9.1</ele>
        <time>2021-05-16T07:02:38Z</time>
      </trkpt>
      <trkpt lat="41.1967990" lon="-8.7096010">
        <ele>9.1</ele>
        <time>2021-05-16T07:02:39Z</time>
      </trkpt>
      <trkpt lat="41.1968210" lon="-8.7096100">
        <ele>9.1</ele>
        <time>2021-05-16T07:02:40Z</time>
      </trkpt>
      <trkpt lat="41.1968300" lon="-8.7096140">
        <ele>9.1</ele>
        <time>2021-05-16T07:02:41Z</time>
      </trkpt>
      <trkpt lat="41.1968390" lon="-8.7096190">
        <ele>9.1</ele>
        <time>2021-05-16T07:02:42Z</time>
      </trkpt>
      <trkpt lat="41.1968510" lon="-8.7096300">
        <ele>9.1</ele>
        <time>2021-05-16T07:02:43Z</time>
      </trkpt>
      <trkpt lat="41.1968650" lon="-8.7096450">
        <ele>9.1</ele>
        <time>2021-05-16T07:02:44Z</time>
      </trkpt>
      <trkpt lat="41.1968760" lon="-8.7096570">
        <ele>9.1</ele>
        <time>2021-05-16T07:02:45Z</time>
      </trkpt>
      <trkpt lat="41.1968930" lon="-8.7096640">
        <ele>9.1</ele>
        <time>2021-05-16T07:02:46Z</time>
      </trkpt>
      <trkpt lat="41.1969030" lon="-8.7096750">
        <ele>9.1</ele>
        <time>2021-05-16T07:02:47Z</time>
      </trkpt>
      <trkpt lat="41.1969170" lon="-8.7096840">
        <ele>9.1</ele>
        <time>2021-05-16T07:02:48Z</time>
      </trkpt>
      <trkpt lat="41.1969340" lon="-8.7096870">
        <ele>9.1</ele>
        <time>2021-05-16T07:02:49Z</time>
      </trkpt>
      <trkpt lat="41.1969490" lon="-8.7096960">
        <ele>9.1</ele>
        <time>2021-05-16T07:02:50Z</time>
      </trkpt>
      <trkpt lat="41.1969680" lon="-8.7097090">
        <ele>9.1</ele>
        <time>2021-05-16T07:02:51Z</time>
      </trkpt>
      <trkpt lat="41.1969770" lon="-8.7097130">
        <ele>9.1</ele>
        <time>2021-05-16T07:02:52Z</time>
      </trkpt>
      <trkpt lat="41.1969850" lon="-8.7097180">
        <ele>9.2</ele>
        <time>2021-05-16T07:02:53Z</time>
      </trkpt>
      <trkpt lat="41.1970100" lon="-8.7097340">
        <ele>9.2</ele>
        <time>2021-05-16T07:02:54Z</time>
      </trkpt>
      <trkpt lat="41.1970190" lon="-8.7097410">
        <ele>9.2</ele>
        <time>2021-05-16T07:02:55Z</time>
      </trkpt>
      <trkpt lat="41.1970330" lon="-8.7097510">
        <ele>9.2</ele>
        <time>2021-05-16T07:02:56Z</time>
      </trkpt>
      <trkpt lat="41.1970440" lon="-8.7097590">
        <ele>9.2</ele>
        <time>2021-05-16T07:02:57Z</time>
      </trkpt>
      <trkpt lat="41.1970580" lon="-8.7097660">
        <ele>9.2</ele>
        <time>2021-05-16T07:02:58Z</time>
      </trkpt>
      <trkpt lat="41.1970700" lon="-8.7097730">
        <ele>9.2</ele>
        <time>2021-05-16T07:02:59Z</time>
      </trkpt>
      <trkpt lat="41.1970850" lon="-8.7097800">
        <ele>9.2</ele>
        <time>2021-05-16T07:03:00Z</time>
      </trkpt>
      <trkpt lat="41.1970990" lon="-8.7097910">
        <ele>9.2</ele>
        <time>2021-05-16T07:03:01Z</time>
      </trkpt>
      <trkpt lat="41.1971120" lon="-8.7098020">
        <ele>9.2</ele>
        <time>2021-05-16T07:03:02Z</time>
      </trkpt>
      <trkpt lat="41.1971230" lon="-8.7098100">
        <ele>9.2</ele>
        <time>2021-05-16T07:03:03Z</time>
      </trkpt>
      <trkpt lat="41.1971340" lon="-8.7098210">
        <ele>9.2</ele>
        <time>2021-05-16T07:03:04Z</time>
      </trkpt>
      <trkpt lat="41.1971450" lon="-8.7098320">
        <ele>9.2</ele>
        <time>2021-05-16T07:03:05Z</time>
      </trkpt>
      <trkpt lat="41.1971590" lon="-8.7098420">
        <ele>9.2</ele>
        <time>2021-05-16T07:03:06Z</time>
      </trkpt>
      <trkpt lat="41.1971660" lon="-8.7098570">
        <ele>9.2</ele>
        <time>2021-05-16T07:03:07Z</time>
      </trkpt>
      <trkpt lat="41.1971810" lon="-8.7098680">
        <ele>9.2</ele>
        <time>2021-05-16T07:03:08Z</time>
      </trkpt>
      <trkpt lat="41.1971930" lon="-8.7098800">
        <ele>9.2</ele>
        <time>2021-05-16T07:03:09Z</time>
      </trkpt>
      <trkpt lat="41.1972040" lon="-8.7098930">
        <ele>9.2</ele>
        <time>2021-05-16T07:03:10Z</time>
      </trkpt>
      <trkpt lat="41.1972170" lon="-8.7099040">
        <ele>9.2</ele>
        <time>2021-05-16T07:03:11Z</time>
      </trkpt>
      <trkpt lat="41.1972280" lon="-8.7099130">
        <ele>9.2</ele>
        <time>2021-05-16T07:03:12Z</time>
      </trkpt>
      <trkpt lat="41.1972460" lon="-8.7099210">
        <ele>9.2</ele>
        <time>2021-05-16T07:03:13Z</time>
      </trkpt>
      <trkpt lat="41.1972580" lon="-8.7099270">
        <ele>9.2</ele>
        <time>2021-05-16T07:03:14Z</time>
      </trkpt>
      <trkpt lat="41.1972740" lon="-8.7099330">
        <ele>9.2</ele>
        <time>2021-05-16T07:03:15Z</time>
      </trkpt>
      <trkpt lat="41.1972850" lon="-8.7099450">
        <ele>9.2</ele>
        <time>2021-05-16T07:03:16Z</time>
      </trkpt>
      <trkpt lat="41.1972980" lon="-8.7099500">
        <ele>9.2</ele>
        <time>2021-05-16T07:03:17Z</time>
      </trkpt>
      <trkpt lat="41.1973090" lon="-8.7099580">
        <ele>9.2</ele>
        <time>2021-05-16T07:03:18Z</time>
      </trkpt>
      <trkpt lat="41.1973250" lon="-8.7099690">
        <ele>9.3</ele>
        <time>2021-05-16T07:03:19Z</time>
      </trkpt>
      <trkpt lat="41.1973380" lon="-8.7099790">
        <ele>9.3</ele>
        <time>2021-05-16T07:03:20Z</time>
      </trkpt>
      <trkpt lat="41.1973510" lon="-8.7099910">
        <ele>9.3</ele>
        <time>2021-05-16T07:03:21Z</time>
      </trkpt>
      <trkpt lat="41.1973580" lon="-8.7100000">
        <ele>9.3</ele>
        <time>2021-05-16T07:03:22Z</time>
      </trkpt>
      <trkpt lat="41.1973730" lon="-8.7100130">
        <ele>9.3</ele>
        <time>2021-05-16T07:03:23Z</time>
      </trkpt>
      <trkpt lat="41.1973890" lon="-8.7100180">
        <ele>9.3</ele>
        <time>2021-05-16T07:03:24Z</time>
      </trkpt>
      <trkpt lat="41.1974000" lon="-8.7100300">
        <ele>9.3</ele>
        <time>2021-05-16T07:03:25Z</time>
      </trkpt>
      <trkpt lat="41.1974120" lon="-8.7100410">
        <ele>9.3</ele>
        <time>2021-05-16T07:03:26Z</time>
      </trkpt>
      <trkpt lat="41.1974240" lon="-8.7100540">
        <ele>9.3</ele>
        <time>2021-05-16T07:03:27Z</time>
      </trkpt>
      <trkpt lat="41.1974440" lon="-8.7100620">
        <ele>9.3</ele>
        <time>2021-05-16T07:03:28Z</time>
      </trkpt>
      <trkpt lat="41.1974530" lon="-8.7100660">
        <ele>9.3</ele>
        <time>2021-05-16T07:03:29Z</time>
      </trkpt>
      <trkpt lat="41.1974610" lon="-8.7100700">
        <ele>9.3</ele>
        <time>2021-05-16T07:03:30Z</time>
      </trkpt>
      <trkpt lat="41.1974770" lon="-8.7100870">
        <ele>9.3</ele>
        <time>2021-05-16T07:03:31Z</time>
      </trkpt>
      <trkpt lat="41.1974840" lon="-8.7100930">
        <ele>9.3</ele>
        <time>2021-05-16T07:03:32Z</time>
      </trkpt>
      <trkpt lat="41.1974920" lon="-8.7100990">
        <ele>9.3</ele>
        <time>2021-05-16T07:03:33Z</time>
      </trkpt>
      <trkpt lat="41.1975060" lon="-8.7101100">
        <ele>9.3</ele>
        <time>2021-05-16T07:03:34Z</time>
      </trkpt>
      <trkpt lat="41.1975170" lon="-8.7101230">
        <ele>9.3</ele>
        <time>2021-05-16T07:03:35Z</time>
      </trkpt>
      <trkpt lat="41.1975330" lon="-8.7101270">
        <ele>9.3</ele>
        <time>2021-05-16T07:03:36Z</time>
      </trkpt>
      <trkpt lat="41.1975490" lon="-8.7101360">
        <ele>9.3</ele>
        <time>2021-05-16T07:03:37Z</time>
      </trkpt>
      <trkpt lat="41.1975640" lon="-8.7101380">
        <ele>9.3</ele>
        <time>2021-05-16T07:03:38Z</time>
      </trkpt>
      <trkpt lat="41.1975760" lon="-8.7101520">
        <ele>9.3</ele>
        <time>2021-05-16T07:03:39Z</time>
      </trkpt>
      <trkpt lat="41.1975890" lon="-8.7101640">
        <ele>9.3</ele>
        <time>2021-05-16T07:03:40Z</time>
      </trkpt>
      <trkpt lat="41.1975980" lon="-8.7101740">
        <ele>9.3</ele>
        <time>2021-05-16T07:03:41Z</time>
      </trkpt>
      <trkpt lat="41.1976110" lon="-8.7101840">
        <ele>9.3</ele>
        <time>2021-05-16T07:03:42Z</time>
      </trkpt>
      <trkpt lat="41.1976240" lon="-8.7101920">
        <ele>9.3</ele>
        <time>2021-05-16T07:03:43Z</time>
      </trkpt>
      <trkpt lat="41.1976370" lon="-8.7102040">
        <ele>9.3</ele>
        <time>2021-05-16T07:03:44Z</time>
      </trkpt>
      <trkpt lat="41.1976500" lon="-8.7102120">
        <ele>9.3</ele>
        <time>2021-05-16T07:03:45Z</time>
      </trkpt>
      <trkpt lat="41.1976600" lon="-8.7102200">
        <ele>9.3</ele>
        <time>2021-05-16T07:03:46Z</time>
      </trkpt>
      <trkpt lat="41.1976730" lon="-8.7102300">
        <ele>9.3</ele>
        <time>2021-05-16T07:03:47Z</time>
      </trkpt>
      <trkpt lat="41.1976860" lon="-8.7102320">
        <ele>9.3</ele>
        <time>2021-05-16T07:03:48Z</time>
      </trkpt>
      <trkpt lat="41.1977040" lon="-8.7102360">
        <ele>9.4</ele>
        <time>2021-05-16T07:03:49Z</time>
      </trkpt>
      <trkpt lat="41.1977160" lon="-8.7102440">
        <ele>9.4</ele>
        <time>2021-05-16T07:03:50Z</time>
      </trkpt>
      <trkpt lat="41.1977290" lon="-8.7102540">
        <ele>9.4</ele>
        <time>2021-05-16T07:03:51Z</time>
      </trkpt>
      <trkpt lat="41.1977460" lon="-8.7102570">
        <ele>9.4</ele>
        <time>2021-05-16T07:03:52Z</time>
      </trkpt>
      <trkpt lat="41.1977570" lon="-8.7102670">
        <ele>9.4</ele>
        <time>2021-05-16T07:03:53Z</time>
      </trkpt>
      <trkpt lat="41.1977770" lon="-8.7102810">
        <ele>9.4</ele>
        <time>2021-05-16T07:03:54Z</time>
      </trkpt>
      <trkpt lat="41.1977850" lon="-8.7102870">
        <ele>9.4</ele>
        <time>2021-05-16T07:03:55Z</time>
      </trkpt>
      <trkpt lat="41.1977940" lon="-8.7102940">
        <ele>9.4</ele>
        <time>2021-05-16T07:03:56Z</time>
      </trkpt>
      <trkpt lat="41.1978060" lon="-8.7102970">
        <ele>9.4</ele>
        <time>2021-05-16T07:03:57Z</time>
      </trkpt>
      <trkpt lat="41.1978220" lon="-8.7103060">
        <ele>9.4</ele>
        <time>2021-05-16T07:03:58Z</time>
      </trkpt>
      <trkpt lat="41.1978330" lon="-8.7103160">
        <ele>9.4</ele>
        <time>2021-05-16T07:03:59Z</time>
      </trkpt>
      <trkpt lat="41.1978500" lon="-8.7103270">
        <ele>9.4</ele>
        <time>2021-05-16T07:04:00Z</time>
      </trkpt>
      <trkpt lat="41.1978620" lon="-8.7103310">
        <ele>9.4</ele>
        <time>2021-05-16T07:04:01Z</time>
      </trkpt>
      <trkpt lat="41.1978770" lon="-8.7103440">
        <ele>9.4</ele>
        <time>2021-05-16T07:04:02Z</time>
      </trkpt>
      <trkpt lat="41.1978890" lon="-8.7103520">
        <ele>9.4</ele>
        <time>2021-05-16T07:04:03Z</time>
      </trkpt>
      <trkpt lat="41.1978970" lon="-8.7103710">
        <ele>9.4</ele>
        <time>2021-05-16T07:04:04Z</time>
      </trkpt>
      <trkpt lat="41.1979120" lon="-8.7103820">
        <ele>9.4</ele>
        <time>2021-05-16T07:04:05Z</time>
      </trkpt>
      <trkpt lat="41.1979230" lon="-8.7103910">
        <ele>9.4</ele>
        <time>2021-05-16T07:04:06Z</time>
      </trkpt>
      <trkpt lat="41.1979370" lon="-8.7104030">
        <ele>9.4</ele>
        <time>2021-05-16T07:04:07Z</time>
      </trkpt>
      <trkpt lat="41.1979540" lon="-8.7104070">
        <ele>9.4</ele>
        <time>2021-05-16T07:04:08Z</time>
      </trkpt>
      <trkpt lat="41.1979710" lon="-8.7104240">
        <ele>9.4</ele>
        <time>2021-05-16T07:04:09Z</time>
      </trkpt>
      <trkpt lat="41.1979780" lon="-8.7104330">
        <ele>9.4</ele>
        <time>2021-05-16T07:04:10Z</time>
      </trkpt>
      <trkpt lat="41.1979850" lon="-8.7104410">
        <ele>9.4</ele>
        <time>2021-05-16T07:04:11Z</time>
      </trkpt>
      <trkpt lat="41.1980070" lon="-8.7104480">
        <ele>9.4</ele>
        <time>2021-05-16T07:04:12Z</time>
      </trkpt>
      <trkpt lat="41.1980170" lon="-8.7104510">
        <ele>9.4</ele>
        <time>2021-05-16T07:04:13Z</time>
      </trkpt>
      <trkpt lat="41.1980260" lon="-8.7104540">
        <ele>9.4</ele>
        <time>2021-05-16T07:04:14Z</time>
      </trkpt>
      <trkpt lat="41.1980450" lon="-8.7104670">
        <ele>9.4</ele>
        <time>2021-05-16T07:04:15Z</time>
      </trkpt>
      <trkpt lat="41.1980530" lon="-8.7104730">
        <ele>9.4</ele>
        <time>2021-05-16T07:04:16Z</time>
      </trkpt>
      <trkpt lat="41.1980610" lon="-8.7104780">
        <ele>9.4</ele>
        <time>2021-05-16T07:04:17Z</time>
      </trkpt>
      <trkpt lat="41.1980740" lon="-8.7104910">
        <ele>9.4</ele>
        <time>2021-05-16T07:04:18Z</time>
      </trkpt>
      <trkpt lat="41.1980880" lon="-8.7104980">
        <ele>9.4</ele>
        <time>2021-05-16T07:04:19Z</time>
      </trkpt>
      <trkpt lat="41.1981020" lon="-8.7105120">
        <ele>9.4</ele>
        <time>2021-05-16T07:04:20Z</time>
      </trkpt>
      <trkpt lat="41.1981170" lon="-8.7105160">
        <ele>9.4</ele>
        <time>2021-05-16T07:04:21Z</time>
      </trkpt>
      <trkpt lat="41.1981320" lon="-8.7105240">
        <ele>9.4</ele>
        <time>2021-05-16T07:04:22Z</time>
      </trkpt>
      <trkpt lat="41.1981470" lon="-8.7105310">
        <ele>9.4</ele>
        <time>2021-05-16T07:04:23Z</time>
      </trkpt>
      <trkpt lat="41.1981600" lon="-8.7105430">
        <ele>9.4</ele>
        <time>2021-05-16T07:04:24Z</time>
      </trkpt>
      <trkpt lat="41.1981760" lon="-8.7105490">
        <ele>9.4</ele>
        <time>2021-05-16T07:04:25Z</time>
      </trkpt>
      <trkpt lat="41.1981900" lon="-8.7105610">
        <ele>9.4</ele>
        <time>2021-05-16T07:04:26Z</time>
      </trkpt>
      <trkpt lat="41.1982030" lon="-8.7105700">
        <ele>9.4</ele>
        <time>2021-05-16T07:04:27Z</time>
      </trkpt>
      <trkpt lat="41.1982180" lon="-8.7105820">
        <ele>9.4</ele>
        <time>2021-05-16T07:04:28Z</time>
      </trkpt>
      <trkpt lat="41.1982320" lon="-8.7105850">
        <ele>9.4</ele>
        <time>2021-05-16T07:04:29Z</time>
      </trkpt>
      <trkpt lat="41.1982440" lon="-8.7105960">
        <ele>9.4</ele>
        <time>2021-05-16T07:04:30Z</time>
      </trkpt>
      <trkpt lat="41.1982580" lon="-8.7106030">
        <ele>9.4</ele>
        <time>2021-05-16T07:04:31Z</time>
      </trkpt>
      <trkpt lat="41.1982690" lon="-8.7106180">
        <ele>9.4</ele>
        <time>2021-05-16T07:04:32Z</time>
      </trkpt>
      <trkpt lat="41.1982820" lon="-8.7106280">
        <ele>9.4</ele>
        <time>2021-05-16T07:04:33Z</time>
      </trkpt>
      <trkpt lat="41.1982950" lon="-8.7106360">
        <ele>9.4</ele>
        <time>2021-05-16T07:04:34Z</time>
      </trkpt>
      <trkpt lat="41.1983080" lon="-8.7106440">
        <ele>9.4</ele>
        <time>2021-05-16T07:04:35Z</time>
      </trkpt>
      <trkpt lat="41.1983210" lon="-8.7106560">
        <ele>9.4</ele>
        <time>2021-05-16T07:04:36Z</time>
      </trkpt>
      <trkpt lat="41.1983350" lon="-8.7106610">
        <ele>9.4</ele>
        <time>2021-05-16T07:04:37Z</time>
      </trkpt>
      <trkpt lat="41.1983490" lon="-8.7106730">
        <ele>9.4</ele>
        <time>2021-05-16T07:04:38Z</time>
      </trkpt>
      <trkpt lat="41.1983630" lon="-8.7106800">
        <ele>9.4</ele>
        <time>2021-05-16T07:04:39Z</time>
      </trkpt>
      <trkpt lat="41.1983740" lon="-8.7106900">
        <ele>9.4</ele>
        <time>2021-05-16T07:04:40Z</time>
      </trkpt>
      <trkpt lat="41.1983860" lon="-8.7107030">
        <ele>9.4</ele>
        <time>2021-05-16T07:04:41Z</time>
      </trkpt>
      <trkpt lat="41.1984020" lon="-8.7107200">
        <ele>9.5</ele>
        <time>2021-05-16T07:04:42Z</time>
      </trkpt>
      <trkpt lat="41.1984100" lon="-8.7107270">
        <ele>9.5</ele>
        <time>2021-05-16T07:04:43Z</time>
      </trkpt>
      <trkpt lat="41.1984180" lon="-8.7107340">
        <ele>9.5</ele>
        <time>2021-05-16T07:04:44Z</time>
      </trkpt>
      <trkpt lat="41.1984340" lon="-8.7107390">
        <ele>9.5</ele>
        <time>2021-05-16T07:04:45Z</time>
      </trkpt>
      <trkpt lat="41.1984450" lon="-8.7107430">
        <ele>9.5</ele>
        <time>2021-05-16T07:04:46Z</time>
      </trkpt>
      <trkpt lat="41.1984650" lon="-8.7107620">
        <ele>9.5</ele>
        <time>2021-05-16T07:04:47Z</time>
      </trkpt>
      <trkpt lat="41.1984750" lon="-8.7107670">
        <ele>9.5</ele>
        <time>2021-05-16T07:04:48Z</time>
      </trkpt>
      <trkpt lat="41.1984850" lon="-8.7107730">
        <ele>9.5</ele>
        <time>2021-05-16T07:04:49Z</time>
      </trkpt>
      <trkpt lat="41.1984970" lon="-8.7107800">
        <ele>9.5</ele>
        <time>2021-05-16T07:04:50Z</time>
      </trkpt>
      <trkpt lat="41.1985120" lon="-8.7107930">
        <ele>9.5</ele>
        <time>2021-05-16T07:04:51Z</time>
      </trkpt>
      <trkpt lat="41.1985230" lon="-8.7108060">
        <ele>9.5</ele>
        <time>2021-05-16T07:04:52Z</time>
      </trkpt>
      <trkpt lat="41.1985380" lon="-8.7108190">
        <ele>9.5</ele>
        <time>2021-05-16T07:04:53Z</time>
      </trkpt>
      <trkpt lat="41.1985520" lon="-8.7108280">
        <ele>9.5</ele>
        <time>2021-05-16T07:04:54Z</time>
      </trkpt>
      <trkpt lat="41.1985660" lon="-8.7108360">
        <ele>9.5</ele>
        <time>2021-05-16T07:04:55Z</time>
      </trkpt>
      <trkpt lat="41.1985770" lon="-8.7108430">
        <ele>9.5</ele>
        <time>2021-05-16T07:04:56Z</time>
      </trkpt>
      <trkpt lat="41.1985920" lon="-8.7108520">
        <ele>9.5</ele>
        <time>2021-05-16T07:04:57Z</time>
      </trkpt>
      <trkpt lat="41.1986140" lon="-8.7108630">
        <ele>9.5</ele>
        <time>2021-05-16T07:04:58Z</time>
      </trkpt>
      <trkpt lat="41.1986210" lon="-8.7108680">
        <ele>9.5</ele>
        <time>2021-05-16T07:04:59Z</time>
      </trkpt>
      <trkpt lat="41.1986290" lon="-8.7108720">
        <ele>9.5</ele>
        <time>2021-05-16T07:05:00Z</time>
      </trkpt>
      <trkpt lat="41.1986430" lon="-8.7108780">
        <ele>9.5</ele>
        <time>2021-05-16T07:05:01Z</time>
      </trkpt>
      <trkpt lat="41.1986580" lon="-8.7108880">
        <ele>9.5</ele>
        <time>2021-05-16T07:05:02Z</time>
      </trkpt>
      <trkpt lat="41.1986720" lon="-8.7108970">
        <ele>9.5</ele>
        <time>2021-05-16T07:05:03Z</time>
      </trkpt>
      <trkpt lat="41.1986890" lon="-8.7109030">
        <ele>9.5</ele>
        <time>2021-05-16T07:05:04Z</time>
      </trkpt>
      <trkpt lat="41.1987000" lon="-8.7109160">
        <ele>9.5</ele>
        <time>2021-05-16T07:05:05Z</time>
      </trkpt>
      <trkpt lat="41.1987150" lon="-8.7109240">
        <ele>9.5</ele>
        <time>2021-05-16T07:05:06Z</time>
      </trkpt>
      <trkpt lat="41.1987270" lon="-8.7109340">
        <ele>9.5</ele>
        <time>2021-05-16T07:05:07Z</time>
      </trkpt>
      <trkpt lat="41.1987430" lon="-8.7109470">
        <ele>9.5</ele>
        <time>2021-05-16T07:05:08Z</time>
      </trkpt>
      <trkpt lat="41.1987600" lon="-8.7109550">
        <ele>9.5</ele>
        <time>2021-05-16T07:05:09Z</time>
      </trkpt>
      <trkpt lat="41.1987740" lon="-8.7109610">
        <ele>9.5</ele>
        <time>2021-05-16T07:05:10Z</time>
      </trkpt>
      <trkpt lat="41.1987910" lon="-8.7109680">
        <ele>9.4</ele>
        <time>2021-05-16T07:05:11Z</time>
      </trkpt>
      <trkpt lat="41.1988040" lon="-8.7109760">
        <ele>9.4</ele>
        <time>2021-05-16T07:05:12Z</time>
      </trkpt>
      <trkpt lat="41.1988180" lon="-8.7109820">
        <ele>9.4</ele>
        <time>2021-05-16T07:05:13Z</time>
      </trkpt>
      <trkpt lat="41.1988310" lon="-8.7109910">
        <ele>9.4</ele>
        <time>2021-05-16T07:05:14Z</time>
      </trkpt>
      <trkpt lat="41.1988500" lon="-8.7110030">
        <ele>9.4</ele>
        <time>2021-05-16T07:05:15Z</time>
      </trkpt>
      <trkpt lat="41.1988650" lon="-8.7110080">
        <ele>9.4</ele>
        <time>2021-05-16T07:05:16Z</time>
      </trkpt>
      <trkpt lat="41.1988800" lon="-8.7110150">
        <ele>9.4</ele>
        <time>2021-05-16T07:05:17Z</time>
      </trkpt>
      <trkpt lat="41.1988940" lon="-8.7110240">
        <ele>9.4</ele>
        <time>2021-05-16T07:05:18Z</time>
      </trkpt>
      <trkpt lat="41.1989080" lon="-8.7110320">
        <ele>9.4</ele>
        <time>2021-05-16T07:05:19Z</time>
      </trkpt>
      <trkpt lat="41.1989240" lon="-8.7110440">
        <ele>9.4</ele>
        <time>2021-05-16T07:05:20Z</time>
      </trkpt>
      <trkpt lat="41.1989450" lon="-8.7110590">
        <ele>9.4</ele>
        <time>2021-05-16T07:05:21Z</time>
      </trkpt>
      <trkpt lat="41.1989540" lon="-8.7110660">
        <ele>9.4</ele>
        <time>2021-05-16T07:05:22Z</time>
      </trkpt>
      <trkpt lat="41.1989630" lon="-8.7110720">
        <ele>9.4</ele>
        <time>2021-05-16T07:05:23Z</time>
      </trkpt>
      <trkpt lat="41.1989780" lon="-8.7110770">
        <ele>9.4</ele>
        <time>2021-05-16T07:05:24Z</time>
      </trkpt>
      <trkpt lat="41.1989910" lon="-8.7110830">
        <ele>9.4</ele>
        <time>2021-05-16T07:05:25Z</time>
      </trkpt>
      <trkpt lat="41.1990080" lon="-8.7110970">
        <ele>9.4</ele>
        <time>2021-05-16T07:05:26Z</time>
      </trkpt>
      <trkpt lat="41.1990200" lon="-8.7111040">
        <ele>9.4</ele>
        <time>2021-05-16T07:05:27Z</time>
      </trkpt>
      <trkpt lat="41.1990350" lon="-8.7111160">
        <ele>9.4</ele>
        <time>2021-05-16T07:05:28Z</time>
      </trkpt>
      <trkpt lat="41.1990510" lon="-8.7111170">
        <ele>9.4</ele>
        <time>2021-05-16T07:05:29Z</time>
      </trkpt>
      <trkpt lat="41.1990660" lon="-8.7111240">
        <ele>9.4</ele>
        <time>2021-05-16T07:05:30Z</time>
      </trkpt>
      <trkpt lat="41.1990800" lon="-8.7111360">
        <ele>9.4</ele>
        <time>2021-05-16T07:05:31Z</time>
      </trkpt>
      <trkpt lat="41.1990940" lon="-8.7111440">
        <ele>9.4</ele>
        <time>2021-05-16T07:05:32Z</time>
      </trkpt>
      <trkpt lat="41.1991080" lon="-8.7111540">
        <ele>9.4</ele>
        <time>2021-05-16T07:05:33Z</time>
      </trkpt>
      <trkpt lat="41.1991190" lon="-8.7111620">
        <ele>9.4</ele>
        <time>2021-05-16T07:05:34Z</time>
      </trkpt>
      <trkpt lat="41.1991320" lon="-8.7111730">
        <ele>9.4</ele>
        <time>2021-05-16T07:05:35Z</time>
      </trkpt>
      <trkpt lat="41.1991490" lon="-8.7111790">
        <ele>9.4</ele>
        <time>2021-05-16T07:05:36Z</time>
      </trkpt>
      <trkpt lat="41.1991610" lon="-8.7111860">
        <ele>9.4</ele>
        <time>2021-05-16T07:05:37Z</time>
      </trkpt>
      <trkpt lat="41.1991700" lon="-8.7112000">
        <ele>9.4</ele>
        <time>2021-05-16T07:05:38Z</time>
      </trkpt>
      <trkpt lat="41.1991850" lon="-8.7112110">
        <ele>9.4</ele>
        <time>2021-05-16T07:05:39Z</time>
      </trkpt>
      <trkpt lat="41.1992000" lon="-8.7112150">
        <ele>9.4</ele>
        <time>2021-05-16T07:05:40Z</time>
      </trkpt>
      <trkpt lat="41.1992140" lon="-8.7112230">
        <ele>9.4</ele>
        <time>2021-05-16T07:05:41Z</time>
      </trkpt>
      <trkpt lat="41.1992270" lon="-8.7112330">
        <ele>9.4</ele>
        <time>2021-05-16T07:05:42Z</time>
      </trkpt>
      <trkpt lat="41.1992400" lon="-8.7112460">
        <ele>9.4</ele>
        <time>2021-05-16T07:05:43Z</time>
      </trkpt>
      <trkpt lat="41.1992540" lon="-8.7112580">
        <ele>9.4</ele>
        <time>2021-05-16T07:05:44Z</time>
      </trkpt>
      <trkpt lat="41.1992650" lon="-8.7112720">
        <ele>9.4</ele>
        <time>2021-05-16T07:05:45Z</time>
      </trkpt>
      <trkpt lat="41.1992800" lon="-8.7112820">
        <ele>9.4</ele>
        <time>2021-05-16T07:05:46Z</time>
      </trkpt>
      <trkpt lat="41.1992910" lon="-8.7112960">
        <ele>9.4</ele>
        <time>2021-05-16T07:05:47Z</time>
      </trkpt>
      <trkpt lat="41.1993110" lon="-8.7113090">
        <ele>9.4</ele>
        <time>2021-05-16T07:05:48Z</time>
      </trkpt>
      <trkpt lat="41.1993200" lon="-8.7113130">
        <ele>9.4</ele>
        <time>2021-05-16T07:05:49Z</time>
      </trkpt>
      <trkpt lat="41.1993280" lon="-8.7113160">
        <ele>9.4</ele>
        <time>2021-05-16T07:05:50Z</time>
      </trkpt>
      <trkpt lat="41.1993410" lon="-8.7113240">
        <ele>9.4</ele>
        <time>2021-05-16T07:05:51Z</time>
      </trkpt>
      <trkpt lat="41.1993530" lon="-8.7113310">
        <ele>9.4</ele>
        <time>2021-05-16T07:05:52Z</time>
      </trkpt>
      <trkpt lat="41.1993660" lon="-8.7113440">
        <ele>9.4</ele>
        <time>2021-05-16T07:05:53Z</time>
      </trkpt>
      <trkpt lat="41.1993770" lon="-8.7113530">
        <ele>9.3</ele>
        <time>2021-05-16T07:05:54Z</time>
      </trkpt>
      <trkpt lat="41.1993900" lon="-8.7113630">
        <ele>9.3</ele>
        <time>2021-05-16T07:05:55Z</time>
      </trkpt>
      <trkpt lat="41.1994020" lon="-8.7113740">
        <ele>9.3</ele>
        <time>2021-05-16T07:05:56Z</time>
      </trkpt>
      <trkpt lat="41.1994160" lon="-8.7113780">
        <ele>9.3</ele>
        <time>2021-05-16T07:05:57Z</time>
      </trkpt>
      <trkpt lat="41.1994310" lon="-8.7113830">
        <ele>9.3</ele>
        <time>2021-05-16T07:05:58Z</time>
      </trkpt>
      <trkpt lat="41.1994440" lon="-8.7113960">
        <ele>9.3</ele>
        <time>2021-05-16T07:05:59Z</time>
      </trkpt>
      <trkpt lat="41.1994570" lon="-8.7114040">
        <ele>9.3</ele>
        <time>2021-05-16T07:06:00Z</time>
      </trkpt>
      <trkpt lat="41.1994730" lon="-8.7114200">
        <ele>9.3</ele>
        <time>2021-05-16T07:06:01Z</time>
      </trkpt>
      <trkpt lat="41.1994800" lon="-8.7114290">
        <ele>9.3</ele>
        <time>2021-05-16T07:06:02Z</time>
      </trkpt>
      <trkpt lat="41.1994860" lon="-8.7114380">
        <ele>9.3</ele>
        <time>2021-05-16T07:06:03Z</time>
      </trkpt>
      <trkpt lat="41.1995050" lon="-8.7114510">
        <ele>9.3</ele>
        <time>2021-05-16T07:06:04Z</time>
      </trkpt>
      <trkpt lat="41.1995140" lon="-8.7114570">
        <ele>9.3</ele>
        <time>2021-05-16T07:06:05Z</time>
      </trkpt>
      <trkpt lat="41.1995220" lon="-8.7114630">
        <ele>9.3</ele>
        <time>2021-05-16T07:06:06Z</time>
      </trkpt>
      <trkpt lat="41.1995340" lon="-8.7114720">
        <ele>9.3</ele>
        <time>2021-05-16T07:06:07Z</time>
      </trkpt>
      <trkpt lat="41.1995500" lon="-8.7114730">
        <ele>9.3</ele>
        <time>2021-05-16T07:06:08Z</time>
      </trkpt>
      <trkpt lat="41.1995710" lon="-8.7114840">
        <ele>9.3</ele>
        <time>2021-05-16T07:06:09Z</time>
      </trkpt>
      <trkpt lat="41.1995780" lon="-8.7114860">
        <ele>9.3</ele>
        <time>2021-05-16T07:06:10Z</time>
      </trkpt>
      <trkpt lat="41.1995850" lon="-8.7114890">
        <ele>9.3</ele>
        <time>2021-05-16T07:06:11Z</time>
      </trkpt>
      <trkpt lat="41.1995960" lon="-8.7114880">
        <ele>9.3</ele>
        <time>2021-05-16T07:06:12Z</time>
      </trkpt>
      <trkpt lat="41.1996000" lon="-8.7114970">
        <ele>9.3</ele>
        <time>2021-05-16T07:06:13Z</time>
      </trkpt>
      <trkpt lat="41.1996030" lon="-8.7115070">
        <ele>9.3</ele>
        <time>2021-05-16T07:06:14Z</time>
      </trkpt>
      <trkpt lat="41.1996070" lon="-8.7115160">
        <ele>9.3</ele>
        <time>2021-05-16T07:06:15Z</time>
      </trkpt>
      <trkpt lat="41.1996110" lon="-8.7115250">
        <ele>9.3</ele>
        <time>2021-05-16T07:06:16Z</time>
      </trkpt>
      <trkpt lat="41.1996250" lon="-8.7115340">
        <ele>9.2</ele>
        <time>2021-05-16T07:06:17Z</time>
      </trkpt>
      <trkpt lat="41.1996380" lon="-8.7115380">
        <ele>9.2</ele>
        <time>2021-05-16T07:06:18Z</time>
      </trkpt>
      <trkpt lat="41.1996500" lon="-8.7115500">
        <ele>9.2</ele>
        <time>2021-05-16T07:06:19Z</time>
      </trkpt>
      <trkpt lat="41.1996630" lon="-8.7115570">
        <ele>9.2</ele>
        <time>2021-05-16T07:06:20Z</time>
      </trkpt>
      <trkpt lat="41.1996840" lon="-8.7115650">
        <ele>9.2</ele>
        <time>2021-05-16T07:06:21Z</time>
      </trkpt>
      <trkpt lat="41.1996930" lon="-8.7115690">
        <ele>9.2</ele>
        <time>2021-05-16T07:06:22Z</time>
      </trkpt>
      <trkpt lat="41.1997010" lon="-8.7115740">
        <ele>9.2</ele>
        <time>2021-05-16T07:06:23Z</time>
      </trkpt>
      <trkpt lat="41.1997130" lon="-8.7115820">
        <ele>9.2</ele>
        <time>2021-05-16T07:06:24Z</time>
      </trkpt>
      <trkpt lat="41.1997250" lon="-8.7115970">
        <ele>9.2</ele>
        <time>2021-05-16T07:06:25Z</time>
      </trkpt>
      <trkpt lat="41.1997380" lon="-8.7116040">
        <ele>9.2</ele>
        <time>2021-05-16T07:06:26Z</time>
      </trkpt>
      <trkpt lat="41.1997490" lon="-8.7116050">
        <ele>9.2</ele>
        <time>2021-05-16T07:06:27Z</time>
      </trkpt>
      <trkpt lat="41.1997550" lon="-8.7116010">
        <ele>9.1</ele>
        <time>2021-05-16T07:06:28Z</time>
      </trkpt>
      <trkpt lat="41.1997530" lon="-8.7115980">
        <ele>9.1</ele>
        <time>2021-05-16T07:06:29Z</time>
      </trkpt>
      <trkpt lat="41.1997460" lon="-8.7115800">
        <ele>9.1</ele>
        <time>2021-05-16T07:06:30Z</time>
      </trkpt>
      <trkpt lat="41.1997420" lon="-8.7115710">
        <ele>9.1</ele>
        <time>2021-05-16T07:06:31Z</time>
      </trkpt>
      <trkpt lat="41.1997440" lon="-8.7115610">
        <ele>9.1</ele>
        <time>2021-05-16T07:06:32Z</time>
      </trkpt>
      <trkpt lat="41.1997430" lon="-8.7115630">
        <ele>9.1</ele>
        <time>2021-05-16T07:06:33Z</time>
      </trkpt>
      <trkpt lat="41.1997600" lon="-8.7115570">
        <ele>9.1</ele>
        <time>2021-05-16T07:06:34Z</time>
      </trkpt>
      <trkpt lat="41.1997710" lon="-8.7115630">
        <ele>9.1</ele>
        <time>2021-05-16T07:06:35Z</time>
      </trkpt>
      <trkpt lat="41.1997700" lon="-8.7115710">
        <ele>9.1</ele>
        <time>2021-05-16T07:06:36Z</time>
      </trkpt>
      <trkpt lat="41.1997760" lon="-8.7115740">
        <ele>9.1</ele>
        <time>2021-05-16T07:06:37Z</time>
      </trkpt>
      <trkpt lat="41.1997890" lon="-8.7115820">
        <ele>9.1</ele>
        <time>2021-05-16T07:06:38Z</time>
      </trkpt>
      <trkpt lat="41.1997950" lon="-8.7115880">
        <ele>9.1</ele>
        <time>2021-05-16T07:06:39Z</time>
      </trkpt>
      <trkpt lat="41.1998010" lon="-8.7116010">
        <ele>9.1</ele>
        <time>2021-05-16T07:06:40Z</time>
      </trkpt>
      <trkpt lat="41.1998000" lon="-8.7116070">
        <ele>9.1</ele>
        <time>2021-05-16T07:06:41Z</time>
      </trkpt>
      <trkpt lat="41.1998060" lon="-8.7116240">
        <ele>9.1</ele>
        <time>2021-05-16T07:06:42Z</time>
      </trkpt>
      <trkpt lat="41.1998060" lon="-8.7116390">
        <ele>9.1</ele>
        <time>2021-05-16T07:06:43Z</time>
      </trkpt>
      <trkpt lat="41.1998100" lon="-8.7116550">
        <ele>9.0</ele>
        <time>2021-05-16T07:06:44Z</time>
      </trkpt>
      <trkpt lat="41.1998130" lon="-8.7116650">
        <ele>9.0</ele>
        <time>2021-05-16T07:06:45Z</time>
      </trkpt>
      <trkpt lat="41.1998230" lon="-8.7116770">
        <ele>9.0</ele>
        <time>2021-05-16T07:06:46Z</time>
      </trkpt>
      <trkpt lat="41.1998290" lon="-8.7116810">
        <ele>9.0</ele>
        <time>2021-05-16T07:06:47Z</time>
      </trkpt>
      <trkpt lat="41.1998420" lon="-8.7116860">
        <ele>9.0</ele>
        <time>2021-05-16T07:06:48Z</time>
      </trkpt>
      <trkpt lat="41.1998500" lon="-8.7116890">
        <ele>9.0</ele>
        <time>2021-05-16T07:06:49Z</time>
      </trkpt>
      <trkpt lat="41.1998620" lon="-8.7116930">
        <ele>9.0</ele>
        <time>2021-05-16T07:06:50Z</time>
      </trkpt>
      <trkpt lat="41.1998680" lon="-8.7117020">
        <ele>9.0</ele>
        <time>2021-05-16T07:06:51Z</time>
      </trkpt>
      <trkpt lat="41.1998780" lon="-8.7117040">
        <ele>9.0</ele>
        <time>2021-05-16T07:06:52Z</time>
      </trkpt>
      <trkpt lat="41.1998840" lon="-8.7117000">
        <ele>9.0</ele>
        <time>2021-05-16T07:06:53Z</time>
      </trkpt>
      <trkpt lat="41.1998890" lon="-8.7117000">
        <ele>9.0</ele>
        <time>2021-05-16T07:06:54Z</time>
      </trkpt>
      <trkpt lat="41.1998890" lon="-8.7116950">
        <ele>9.0</ele>
        <time>2021-05-16T07:06:55Z</time>
      </trkpt>
      <trkpt lat="41.1998860" lon="-8.7116980">
        <ele>9.0</ele>
        <time>2021-05-16T07:06:56Z</time>
      </trkpt>
      <trkpt lat="41.1998850" lon="-8.7116960">
        <ele>9.0</ele>
        <time>2021-05-16T07:06:57Z</time>
      </trkpt>
      <trkpt lat="41.1998820" lon="-8.7116950">
        <ele>9.0</ele>
        <time>2021-05-16T07:06:58Z</time>
      </trkpt>
      <trkpt lat="41.1998810" lon="-8.7116960">
        <ele>9.0</ele>
        <time>2021-05-16T07:06:59Z</time>
      </trkpt>
      <trkpt lat="41.1998810" lon="-8.7116950">
        <ele>9.0</ele>
        <time>2021-05-16T07:07:00Z</time>
      </trkpt>
      <trkpt lat="41.1998800" lon="-8.7116950">
        <ele>9.0</ele>
        <time>2021-05-16T07:07:01Z</time>
      </trkpt>
      <trkpt lat="41.1998810" lon="-8.7116930">
        <ele>9.0</ele>
        <time>2021-05-16T07:07:02Z</time>
      </trkpt>
      <trkpt lat="41.1998810" lon="-8.7116890">
        <ele>9.0</ele>
        <time>2021-05-16T07:07:03Z</time>
      </trkpt>
      <trkpt lat="41.1998810" lon="-8.7116800">
        <ele>9.0</ele>
        <time>2021-05-16T07:07:04Z</time>
      </trkpt>
      <trkpt lat="41.1998810" lon="-8.7116800">
        <ele>9.0</ele>
        <time>2021-05-16T07:07:05Z</time>
      </trkpt>
      <trkpt lat="41.1998780" lon="-8.7116730">
        <ele>9.0</ele>
        <time>2021-05-16T07:07:06Z</time>
      </trkpt>
      <trkpt lat="41.1998780" lon="-8.7116740">
        <ele>9.0</ele>
        <time>2021-05-16T07:07:07Z</time>
      </trkpt>
      <trkpt lat="41.1998780" lon="-8.7116750">
        <ele>9.0</ele>
        <time>2021-05-16T07:07:08Z</time>
      </trkpt>
      <trkpt lat="41.1998800" lon="-8.7116790">
        <ele>8.9</ele>
        <time>2021-05-16T07:07:09Z</time>
      </trkpt>
      <trkpt lat="41.1998790" lon="-8.7116810">
        <ele>8.9</ele>
        <time>2021-05-16T07:07:10Z</time>
      </trkpt>
      <trkpt lat="41.1998790" lon="-8.7116830">
        <ele>8.9</ele>
        <time>2021-05-16T07:07:11Z</time>
      </trkpt>
      <trkpt lat="41.1998790" lon="-8.7116830">
        <ele>8.9</ele>
        <time>2021-05-16T07:07:12Z</time>
      </trkpt>
      <trkpt lat="41.1998790" lon="-8.7116860">
        <ele>8.9</ele>
        <time>2021-05-16T07:07:13Z</time>
      </trkpt>
      <trkpt lat="41.1998820" lon="-8.7116850">
        <ele>8.9</ele>
        <time>2021-05-16T07:07:14Z</time>
      </trkpt>
      <trkpt lat="41.1998810" lon="-8.7116840">
        <ele>8.9</ele>
        <time>2021-05-16T07:07:15Z</time>
      </trkpt>
      <trkpt lat="41.1998770" lon="-8.7116880">
        <ele>8.9</ele>
        <time>2021-05-16T07:07:16Z</time>
      </trkpt>
      <trkpt lat="41.1998790" lon="-8.7116900">
        <ele>8.9</ele>
        <time>2021-05-16T07:07:17Z</time>
      </trkpt>
      <trkpt lat="41.1998730" lon="-8.7116860">
        <ele>8.9</ele>
        <time>2021-05-16T07:07:18Z</time>
      </trkpt>
      <trkpt lat="41.1998930" lon="-8.7116900">
        <ele>8.9</ele>
        <time>2021-05-16T07:07:19Z</time>
      </trkpt>
      <trkpt lat="41.1999010" lon="-8.7116940">
        <ele>8.9</ele>
        <time>2021-05-16T07:07:20Z</time>
      </trkpt>
      <trkpt lat="41.1999010" lon="-8.7116980">
        <ele>8.9</ele>
        <time>2021-05-16T07:07:21Z</time>
      </trkpt>
      <trkpt lat="41.1998950" lon="-8.7116980">
        <ele>8.8</ele>
        <time>2021-05-16T07:07:22Z</time>
      </trkpt>
      <trkpt lat="41.1998940" lon="-8.7117030">
        <ele>8.8</ele>
        <time>2021-05-16T07:07:23Z</time>
      </trkpt>
      <trkpt lat="41.1998950" lon="-8.7117050">
        <ele>8.8</ele>
        <time>2021-05-16T07:07:24Z</time>
      </trkpt>
      <trkpt lat="41.1998940" lon="-8.7117050">
        <ele>8.8</ele>
        <time>2021-05-16T07:07:25Z</time>
      </trkpt>
      <trkpt lat="41.1998940" lon="-8.7117060">
        <ele>8.8</ele>
        <time>2021-05-16T07:07:26Z</time>
      </trkpt>
      <trkpt lat="41.1998930" lon="-8.7117040">
        <ele>8.8</ele>
        <time>2021-05-16T07:07:27Z</time>
      </trkpt>
      <trkpt lat="41.1998940" lon="-8.7117040">
        <ele>8.8</ele>
        <time>2021-05-16T07:07:28Z</time>
      </trkpt>
      <trkpt lat="41.1998960" lon="-8.7117070">
        <ele>8.8</ele>
        <time>2021-05-16T07:07:29Z</time>
      </trkpt>
      <trkpt lat="41.1999020" lon="-8.7117080">
        <ele>8.8</ele>
        <time>2021-05-16T07:07:30Z</time>
      </trkpt>
      <trkpt lat="41.1999030" lon="-8.7117130">
        <ele>8.8</ele>
        <time>2021-05-16T07:07:31Z</time>
      </trkpt>
      <trkpt lat="41.1999060" lon="-8.7117170">
        <ele>8.8</ele>
        <time>2021-05-16T07:07:32Z</time>
      </trkpt>
      <trkpt lat="41.1999060" lon="-8.7117160">
        <ele>8.8</ele>
        <time>2021-05-16T07:07:33Z</time>
      </trkpt>
      <trkpt lat="41.1999070" lon="-8.7117120">
        <ele>8.8</ele>
        <time>2021-05-16T07:07:34Z</time>
      </trkpt>
      <trkpt lat="41.1999030" lon="-8.7117040">
        <ele>8.8</ele>
        <time>2021-05-16T07:07:35Z</time>
      </trkpt>
      <trkpt lat="41.1999000" lon="-8.7117010">
        <ele>8.8</ele>
        <time>2021-05-16T07:07:36Z</time>
      </trkpt>
      <trkpt lat="41.1998960" lon="-8.7117010">
        <ele>8.8</ele>
        <time>2021-05-16T07:07:37Z</time>
      </trkpt>
      <trkpt lat="41.1998930" lon="-8.7117000">
        <ele>8.8</ele>
        <time>2021-05-16T07:07:38Z</time>
      </trkpt>
      <trkpt lat="41.1998940" lon="-8.7117000">
        <ele>8.8</ele>
        <time>2021-05-16T07:07:39Z</time>
      </trkpt>
      <trkpt lat="41.1998940" lon="-8.7117000">
        <ele>8.8</ele>
        <time>2021-05-16T07:07:40Z</time>
      </trkpt>
      <trkpt lat="41.1998940" lon="-8.7117000">
        <ele>8.8</ele>
        <time>2021-05-16T07:07:41Z</time>
      </trkpt>
      <trkpt lat="41.1998940" lon="-8.7117000">
        <ele>8.8</ele>
        <time>2021-05-16T07:07:42Z</time>
      </trkpt>
      <trkpt lat="41.1998870" lon="-8.7116940">
        <ele>8.8</ele>
        <time>2021-05-16T07:07:43Z</time>
      </trkpt>
      <trkpt lat="41.1998860" lon="-8.7116940">
        <ele>8.8</ele>
        <time>2021-05-16T07:07:44Z</time>
      </trkpt>
      <trkpt lat="41.1998860" lon="-8.7116960">
        <ele>8.8</ele>
        <time>2021-05-16T07:07:45Z</time>
      </trkpt>
      <trkpt lat="41.1998840" lon="-8.7116960">
        <ele>8.8</ele>
        <time>2021-05-16T07:07:46Z</time>
      </trkpt>
      <trkpt lat="41.1998840" lon="-8.7116970">
        <ele>8.8</ele>
        <time>2021-05-16T07:07:47Z</time>
      </trkpt>
      <trkpt lat="41.1998820" lon="-8.7116930">
        <ele>8.8</ele>
        <time>2021-05-16T07:07:48Z</time>
      </trkpt>
      <trkpt lat="41.1998800" lon="-8.7116940">
        <ele>8.8</ele>
        <time>2021-05-16T07:07:49Z</time>
      </trkpt>
      <trkpt lat="41.1998800" lon="-8.7116940">
        <ele>8.8</ele>
        <time>2021-05-16T07:07:50Z</time>
      </trkpt>
      <trkpt lat="41.1998800" lon="-8.7116940">
        <ele>8.8</ele>
        <time>2021-05-16T07:07:51Z</time>
      </trkpt>
      <trkpt lat="41.1998800" lon="-8.7116940">
        <ele>8.8</ele>
        <time>2021-05-16T07:07:52Z</time>
      </trkpt>
      <trkpt lat="41.1998800" lon="-8.7116940">
        <ele>8.8</ele>
        <time>2021-05-16T07:07:53Z</time>
      </trkpt>
      <trkpt lat="41.1998800" lon="-8.7116940">
        <ele>8.8</ele>
        <time>2021-05-16T07:07:54Z</time>
      </trkpt>
      <trkpt lat="41.1998800" lon="-8.7116940">
        <ele>8.8</ele>
        <time>2021-05-16T07:07:55Z</time>
      </trkpt>
      <trkpt lat="41.1998800" lon="-8.7116940">
        <ele>8.8</ele>
        <time>2021-05-16T07:07:56Z</time>
      </trkpt>
      <trkpt lat="41.1998800" lon="-8.7116940">
        <ele>8.8</ele>
        <time>2021-05-16T07:07:57Z</time>
      </trkpt>
      <trkpt lat="41.1998800" lon="-8.7116940">
        <ele>8.8</ele>
        <time>2021-05-16T07:07:58Z</time>
      </trkpt>
      <trkpt lat="41.1998800" lon="-8.7116940">
        <ele>8.8</ele>
        <time>2021-05-16T07:07:59Z</time>
      </trkpt>
      <trkpt lat="41.1998800" lon="-8.7116940">
        <ele>8.8</ele>
        <time>2021-05-16T07:08:00Z</time>
      </trkpt>
      <trkpt lat="41.1998800" lon="-8.7116940">
        <ele>8.8</ele>
        <time>2021-05-16T07:08:01Z</time>
      </trkpt>
      <trkpt lat="41.1998800" lon="-8.7116940">
        <ele>8.8</ele>
        <time>2021-05-16T07:08:02Z</time>
      </trkpt>
      <trkpt lat="41.1998800" lon="-8.7116940">
        <ele>8.8</ele>
        <time>2021-05-16T07:08:03Z</time>
      </trkpt>
      <trkpt lat="41.1998800" lon="-8.7116940">
        <ele>8.8</ele>
        <time>2021-05-16T07:08:04Z</time>
      </trkpt>
      <trkpt lat="41.1998800" lon="-8.7116940">
        <ele>8.8</ele>
        <time>2021-05-16T07:08:05Z</time>
      </trkpt>
      <trkpt lat="41.1998800" lon="-8.7116940">
        <ele>8.8</ele>
        <time>2021-05-16T07:08:06Z</time>
      </trkpt>
      <trkpt lat="41.1998800" lon="-8.7116940">
        <ele>8.8</ele>
        <time>2021-05-16T07:08:07Z</time>
      </trkpt>
      <trkpt lat="41.1998800" lon="-8.7116940">
        <ele>8.8</ele>
        <time>2021-05-16T07:08:08Z</time>
      </trkpt>
      <trkpt lat="41.1998910" lon="-8.7117020">
        <ele>8.8</ele>
        <time>2021-05-16T07:08:09Z</time>
      </trkpt>
      <trkpt lat="41.1998920" lon="-8.7117010">
        <ele>8.8</ele>
        <time>2021-05-16T07:08:10Z</time>
      </trkpt>
      <trkpt lat="41.1998920" lon="-8.7117020">
        <ele>8.8</ele>
        <time>2021-05-16T07:08:11Z</time>
      </trkpt>
      <trkpt lat="41.1998920" lon="-8.7117040">
        <ele>8.8</ele>
        <time>2021-05-16T07:08:12Z</time>
      </trkpt>
      <trkpt lat="41.1998930" lon="-8.7117090">
        <ele>8.8</ele>
        <time>2021-05-16T07:08:13Z</time>
      </trkpt>
      <trkpt lat="41.1998970" lon="-8.7117120">
        <ele>8.8</ele>
        <time>2021-05-16T07:08:14Z</time>
      </trkpt>
      <trkpt lat="41.1998940" lon="-8.7117120">
        <ele>8.8</ele>
        <time>2021-05-16T07:08:15Z</time>
      </trkpt>
      <trkpt lat="41.1998940" lon="-8.7117120">
        <ele>8.8</ele>
        <time>2021-05-16T07:08:16Z</time>
      </trkpt>
      <trkpt lat="41.1998940" lon="-8.7117120">
        <ele>8.8</ele>
        <time>2021-05-16T07:08:17Z</time>
      </trkpt>
      <trkpt lat="41.1998930" lon="-8.7117110">
        <ele>8.8</ele>
        <time>2021-05-16T07:08:18Z</time>
      </trkpt>
      <trkpt lat="41.1998950" lon="-8.7117170">
        <ele>8.7</ele>
        <time>2021-05-16T07:08:19Z</time>
      </trkpt>
      <trkpt lat="41.1999020" lon="-8.7117350">
        <ele>8.7</ele>
        <time>2021-05-16T07:08:20Z</time>
      </trkpt>
      <trkpt lat="41.1999100" lon="-8.7117570">
        <ele>8.7</ele>
        <time>2021-05-16T07:08:21Z</time>
      </trkpt>
      <trkpt lat="41.1999170" lon="-8.7117630">
        <ele>8.7</ele>
        <time>2021-05-16T07:08:22Z</time>
      </trkpt>
      <trkpt lat="41.1999220" lon="-8.7117720">
        <ele>8.7</ele>
        <time>2021-05-16T07:08:23Z</time>
      </trkpt>
      <trkpt lat="41.1999340" lon="-8.7117800">
        <ele>8.7</ele>
        <time>2021-05-16T07:08:24Z</time>
      </trkpt>
      <trkpt lat="41.1999470" lon="-8.7117960">
        <ele>8.7</ele>
        <time>2021-05-16T07:08:25Z</time>
      </trkpt>
      <trkpt lat="41.1999600" lon="-8.7118000">
        <ele>8.7</ele>
        <time>2021-05-16T07:08:26Z</time>
      </trkpt>
      <trkpt lat="41.1999680" lon="-8.7118140">
        <ele>8.7</ele>
        <time>2021-05-16T07:08:27Z</time>
      </trkpt>
      <trkpt lat="41.1999760" lon="-8.7118210">
        <ele>8.7</ele>
        <time>2021-05-16T07:08:28Z</time>
      </trkpt>
      <trkpt lat="41.1999880" lon="-8.7118350">
        <ele>8.7</ele>
        <time>2021-05-16T07:08:29Z</time>
      </trkpt>
      <trkpt lat="41.2000010" lon="-8.7118450">
        <ele>8.6</ele>
        <time>2021-05-16T07:08:30Z</time>
      </trkpt>
      <trkpt lat="41.2000180" lon="-8.7118530">
        <ele>8.6</ele>
        <time>2021-05-16T07:08:31Z</time>
      </trkpt>
      <trkpt lat="41.2000320" lon="-8.7118620">
        <ele>8.6</ele>
        <time>2021-05-16T07:08:32Z</time>
      </trkpt>
      <trkpt lat="41.2000520" lon="-8.7118800">
        <ele>8.6</ele>
        <time>2021-05-16T07:08:33Z</time>
      </trkpt>
      <trkpt lat="41.2000610" lon="-8.7118870">
        <ele>8.6</ele>
        <time>2021-05-16T07:08:34Z</time>
      </trkpt>
      <trkpt lat="41.2000700" lon="-8.7118940">
        <ele>8.6</ele>
        <time>2021-05-16T07:08:35Z</time>
      </trkpt>
      <trkpt lat="41.2000940" lon="-8.7119130">
        <ele>8.6</ele>
        <time>2021-05-16T07:08:36Z</time>
      </trkpt>
      <trkpt lat="41.2001020" lon="-8.7119210">
        <ele>8.6</ele>
        <time>2021-05-16T07:08:37Z</time>
      </trkpt>
      <trkpt lat="41.2001180" lon="-8.7119220">
        <ele>8.6</ele>
        <time>2021-05-16T07:08:38Z</time>
      </trkpt>
      <trkpt lat="41.2001450" lon="-8.7119460">
        <ele>8.6</ele>
        <time>2021-05-16T07:08:39Z</time>
      </trkpt>
      <trkpt lat="41.2001560" lon="-8.7119570">
        <ele>8.6</ele>
        <time>2021-05-16T07:08:40Z</time>
      </trkpt>
      <trkpt lat="41.2001850" lon="-8.7119660">
        <ele>8.6</ele>
        <time>2021-05-16T07:08:41Z</time>
      </trkpt>
      <trkpt lat="41.2001940" lon="-8.7119700">
        <ele>8.5</ele>
        <time>2021-05-16T07:08:42Z</time>
      </trkpt>
      <trkpt lat="41.2002230" lon="-8.7119810">
        <ele>8.5</ele>
        <time>2021-05-16T07:08:43Z</time>
      </trkpt>
      <trkpt lat="41.2002330" lon="-8.7119850">
        <ele>8.5</ele>
        <time>2021-05-16T07:08:44Z</time>
      </trkpt>
      <trkpt lat="41.2002470" lon="-8.7119990">
        <ele>8.5</ele>
        <time>2021-05-16T07:08:45Z</time>
      </trkpt>
      <trkpt lat="41.2002600" lon="-8.7120030">
        <ele>8.5</ele>
        <time>2021-05-16T07:08:46Z</time>
      </trkpt>
      <trkpt lat="41.2002740" lon="-8.7120130">
        <ele>8.5</ele>
        <time>2021-05-16T07:08:47Z</time>
      </trkpt>
      <trkpt lat="41.2002860" lon="-8.7120210">
        <ele>8.5</ele>
        <time>2021-05-16T07:08:48Z</time>
      </trkpt>
      <trkpt lat="41.2003000" lon="-8.7120250">
        <ele>8.5</ele>
        <time>2021-05-16T07:08:49Z</time>
      </trkpt>
      <trkpt lat="41.2003140" lon="-8.7120310">
        <ele>8.5</ele>
        <time>2021-05-16T07:08:50Z</time>
      </trkpt>
      <trkpt lat="41.2003320" lon="-8.7120450">
        <ele>8.4</ele>
        <time>2021-05-16T07:08:51Z</time>
      </trkpt>
      <trkpt lat="41.2003410" lon="-8.7120500">
        <ele>8.4</ele>
        <time>2021-05-16T07:08:52Z</time>
      </trkpt>
      <trkpt lat="41.2003500" lon="-8.7120560">
        <ele>8.4</ele>
        <time>2021-05-16T07:08:53Z</time>
      </trkpt>
      <trkpt lat="41.2003670" lon="-8.7120660">
        <ele>8.4</ele>
        <time>2021-05-16T07:08:54Z</time>
      </trkpt>
      <trkpt lat="41.2003820" lon="-8.7120730">
        <ele>8.4</ele>
        <time>2021-05-16T07:08:55Z</time>
      </trkpt>
      <trkpt lat="41.2004010" lon="-8.7120890">
        <ele>8.4</ele>
        <time>2021-05-16T07:08:56Z</time>
      </trkpt>
      <trkpt lat="41.2004100" lon="-8.7120950">
        <ele>8.4</ele>
        <time>2021-05-16T07:08:57Z</time>
      </trkpt>
      <trkpt lat="41.2004180" lon="-8.7121010">
        <ele>8.3</ele>
        <time>2021-05-16T07:08:58Z</time>
      </trkpt>
      <trkpt lat="41.2004330" lon="-8.7121120">
        <ele>8.3</ele>
        <time>2021-05-16T07:08:59Z</time>
      </trkpt>
      <trkpt lat="41.2004470" lon="-8.7121230">
        <ele>8.3</ele>
        <time>2021-05-16T07:09:00Z</time>
      </trkpt>
      <trkpt lat="41.2004610" lon="-8.7121330">
        <ele>8.3</ele>
        <time>2021-05-16T07:09:01Z</time>
      </trkpt>
      <trkpt lat="41.2004760" lon="-8.7121430">
        <ele>8.3</ele>
        <time>2021-05-16T07:09:02Z</time>
      </trkpt>
      <trkpt lat="41.2004910" lon="-8.7121520">
        <ele>8.3</ele>
        <time>2021-05-16T07:09:03Z</time>
      </trkpt>
      <trkpt lat="41.2005030" lon="-8.7121610">
        <ele>8.3</ele>
        <time>2021-05-16T07:09:04Z</time>
      </trkpt>
      <trkpt lat="41.2005180" lon="-8.7121710">
        <ele>8.2</ele>
        <time>2021-05-16T07:09:05Z</time>
      </trkpt>
      <trkpt lat="41.2005300" lon="-8.7121830">
        <ele>8.2</ele>
        <time>2021-05-16T07:09:06Z</time>
      </trkpt>
      <trkpt lat="41.2005490" lon="-8.7121990">
        <ele>8.2</ele>
        <time>2021-05-16T07:09:07Z</time>
      </trkpt>
      <trkpt lat="41.2005570" lon="-8.7122030">
        <ele>8.2</ele>
        <time>2021-05-16T07:09:08Z</time>
      </trkpt>
      <trkpt lat="41.2005640" lon="-8.7122080">
        <ele>8.2</ele>
        <time>2021-05-16T07:09:09Z</time>
      </trkpt>
      <trkpt lat="41.2005750" lon="-8.7122150">
        <ele>8.2</ele>
        <time>2021-05-16T07:09:10Z</time>
      </trkpt>
      <trkpt lat="41.2005830" lon="-8.7122220">
        <ele>8.2</ele>
        <time>2021-05-16T07:09:11Z</time>
      </trkpt>
      <trkpt lat="41.2005940" lon="-8.7122240">
        <ele>8.2</ele>
        <time>2021-05-16T07:09:12Z</time>
      </trkpt>
      <trkpt lat="41.2006100" lon="-8.7122340">
        <ele>8.2</ele>
        <time>2021-05-16T07:09:13Z</time>
      </trkpt>
      <trkpt lat="41.2006210" lon="-8.7122420">
        <ele>8.2</ele>
        <time>2021-05-16T07:09:14Z</time>
      </trkpt>
      <trkpt lat="41.2006350" lon="-8.7122560">
        <ele>8.1</ele>
        <time>2021-05-16T07:09:15Z</time>
      </trkpt>
      <trkpt lat="41.2006440" lon="-8.7122620">
        <ele>8.1</ele>
        <time>2021-05-16T07:09:16Z</time>
      </trkpt>
      <trkpt lat="41.2006520" lon="-8.7122680">
        <ele>8.1</ele>
        <time>2021-05-16T07:09:17Z</time>
      </trkpt>
      <trkpt lat="41.2006620" lon="-8.7122730">
        <ele>8.1</ele>
        <time>2021-05-16T07:09:18Z</time>
      </trkpt>
      <trkpt lat="41.2006770" lon="-8.7122900">
        <ele>8.1</ele>
        <time>2021-05-16T07:09:19Z</time>
      </trkpt>
      <trkpt lat="41.2006880" lon="-8.7122940">
        <ele>8.1</ele>
        <time>2021-05-16T07:09:20Z</time>
      </trkpt>
      <trkpt lat="41.2006990" lon="-8.7123030">
        <ele>8.1</ele>
        <time>2021-05-16T07:09:21Z</time>
      </trkpt>
      <trkpt lat="41.2007100" lon="-8.7123070">
        <ele>8.1</ele>
        <time>2021-05-16T07:09:22Z</time>
      </trkpt>
      <trkpt lat="41.2007350" lon="-8.7123210">
        <ele>8.1</ele>
        <time>2021-05-16T07:09:23Z</time>
      </trkpt>
      <trkpt lat="41.2007460" lon="-8.7123280">
        <ele>8.1</ele>
        <time>2021-05-16T07:09:24Z</time>
      </trkpt>
      <trkpt lat="41.2007610" lon="-8.7123400">
        <ele>8.1</ele>
        <time>2021-05-16T07:09:25Z</time>
      </trkpt>
      <trkpt lat="41.2007760" lon="-8.7123470">
        <ele>8.1</ele>
        <time>2021-05-16T07:09:26Z</time>
      </trkpt>
      <trkpt lat="41.2007900" lon="-8.7123600">
        <ele>8.1</ele>
        <time>2021-05-16T07:09:27Z</time>
      </trkpt>
      <trkpt lat="41.2008040" lon="-8.7123690">
        <ele>8.1</ele>
        <time>2021-05-16T07:09:28Z</time>
      </trkpt>
      <trkpt lat="41.2008190" lon="-8.7123800">
        <ele>8.1</ele>
        <time>2021-05-16T07:09:29Z</time>
      </trkpt>
      <trkpt lat="41.2008350" lon="-8.7123880">
        <ele>8.0</ele>
        <time>2021-05-16T07:09:31Z</time>
      </trkpt>
      <trkpt lat="41.2008490" lon="-8.7124030">
        <ele>8.0</ele>
        <time>2021-05-16T07:09:32Z</time>
      </trkpt>
      <trkpt lat="41.2008610" lon="-8.7124150">
        <ele>8.0</ele>
        <time>2021-05-16T07:09:33Z</time>
      </trkpt>
      <trkpt lat="41.2008790" lon="-8.7124220">
        <ele>8.0</ele>
        <time>2021-05-16T07:09:34Z</time>
      </trkpt>
      <trkpt lat="41.2008940" lon="-8.7124260">
        <ele>8.0</ele>
        <time>2021-05-16T07:09:35Z</time>
      </trkpt>
      <trkpt lat="41.2009120" lon="-8.7124280">
        <ele>8.0</ele>
        <time>2021-05-16T07:09:36Z</time>
      </trkpt>
      <trkpt lat="41.2009260" lon="-8.7124330">
        <ele>8.0</ele>
        <time>2021-05-16T07:09:37Z</time>
      </trkpt>
      <trkpt lat="41.2009410" lon="-8.7124320">
        <ele>8.0</ele>
        <time>2021-05-16T07:09:38Z</time>
      </trkpt>
      <trkpt lat="41.2009540" lon="-8.7124400">
        <ele>8.0</ele>
        <time>2021-05-16T07:09:39Z</time>
      </trkpt>
      <trkpt lat="41.2009700" lon="-8.7124410">
        <ele>8.0</ele>
        <time>2021-05-16T07:09:40Z</time>
      </trkpt>
      <trkpt lat="41.2009860" lon="-8.7124490">
        <ele>8.0</ele>
        <time>2021-05-16T07:09:41Z</time>
      </trkpt>
      <trkpt lat="41.2010030" lon="-8.7124540">
        <ele>8.0</ele>
        <time>2021-05-16T07:09:42Z</time>
      </trkpt>
      <trkpt lat="41.2010210" lon="-8.7124620">
        <ele>8.0</ele>
        <time>2021-05-16T07:09:43Z</time>
      </trkpt>
      <trkpt lat="41.2010400" lon="-8.7124670">
        <ele>8.0</ele>
        <time>2021-05-16T07:09:44Z</time>
      </trkpt>
      <trkpt lat="41.2010560" lon="-8.7124700">
        <ele>8.0</ele>
        <time>2021-05-16T07:09:45Z</time>
      </trkpt>
      <trkpt lat="41.2010700" lon="-8.7124750">
        <ele>8.0</ele>
        <time>2021-05-16T07:09:46Z</time>
      </trkpt>
      <trkpt lat="41.2010860" lon="-8.7124800">
        <ele>8.0</ele>
        <time>2021-05-16T07:09:47Z</time>
      </trkpt>
      <trkpt lat="41.2010990" lon="-8.7124900">
        <ele>8.0</ele>
        <time>2021-05-16T07:09:48Z</time>
      </trkpt>
      <trkpt lat="41.2011140" lon="-8.7124940">
        <ele>8.0</ele>
        <time>2021-05-16T07:09:49Z</time>
      </trkpt>
      <trkpt lat="41.2011260" lon="-8.7124980">
        <ele>8.0</ele>
        <time>2021-05-16T07:09:50Z</time>
      </trkpt>
      <trkpt lat="41.2011410" lon="-8.7125090">
        <ele>7.9</ele>
        <time>2021-05-16T07:09:51Z</time>
      </trkpt>
      <trkpt lat="41.2011580" lon="-8.7125160">
        <ele>7.9</ele>
        <time>2021-05-16T07:09:52Z</time>
      </trkpt>
      <trkpt lat="41.2011720" lon="-8.7125220">
        <ele>7.9</ele>
        <time>2021-05-16T07:09:53Z</time>
      </trkpt>
      <trkpt lat="41.2011880" lon="-8.7125270">
        <ele>7.9</ele>
        <time>2021-05-16T07:09:54Z</time>
      </trkpt>
      <trkpt lat="41.2012000" lon="-8.7125350">
        <ele>7.9</ele>
        <time>2021-05-16T07:09:55Z</time>
      </trkpt>
      <trkpt lat="41.2012130" lon="-8.7125470">
        <ele>7.9</ele>
        <time>2021-05-16T07:09:56Z</time>
      </trkpt>
      <trkpt lat="41.2012290" lon="-8.7125510">
        <ele>7.9</ele>
        <time>2021-05-16T07:09:57Z</time>
      </trkpt>
      <trkpt lat="41.2012450" lon="-8.7125510">
        <ele>7.9</ele>
        <time>2021-05-16T07:09:58Z</time>
      </trkpt>
      <trkpt lat="41.2012550" lon="-8.7125570">
        <ele>7.9</ele>
        <time>2021-05-16T07:09:59Z</time>
      </trkpt>
      <trkpt lat="41.2012630" lon="-8.7125520">
        <ele>7.9</ele>
        <time>2021-05-16T07:10:00Z</time>
      </trkpt>
      <trkpt lat="41.2012860" lon="-8.7125600">
        <ele>7.9</ele>
        <time>2021-05-16T07:10:01Z</time>
      </trkpt>
      <trkpt lat="41.2012960" lon="-8.7125640">
        <ele>7.9</ele>
        <time>2021-05-16T07:10:02Z</time>
      </trkpt>
      <trkpt lat="41.2013060" lon="-8.7125670">
        <ele>7.9</ele>
        <time>2021-05-16T07:10:03Z</time>
      </trkpt>
      <trkpt lat="41.2013240" lon="-8.7125790">
        <ele>7.9</ele>
        <time>2021-05-16T07:10:04Z</time>
      </trkpt>
      <trkpt lat="41.2013340" lon="-8.7125810">
        <ele>7.9</ele>
        <time>2021-05-16T07:10:05Z</time>
      </trkpt>
      <trkpt lat="41.2013450" lon="-8.7125840">
        <ele>7.9</ele>
        <time>2021-05-16T07:10:06Z</time>
      </trkpt>
      <trkpt lat="41.2013570" lon="-8.7125890">
        <ele>7.9</ele>
        <time>2021-05-16T07:10:07Z</time>
      </trkpt>
      <trkpt lat="41.2013690" lon="-8.7125960">
        <ele>7.8</ele>
        <time>2021-05-16T07:10:08Z</time>
      </trkpt>
      <trkpt lat="41.2013700" lon="-8.7126040">
        <ele>7.8</ele>
        <time>2021-05-16T07:10:09Z</time>
      </trkpt>
      <trkpt lat="41.2013820" lon="-8.7126180">
        <ele>7.8</ele>
        <time>2021-05-16T07:10:10Z</time>
      </trkpt>
      <trkpt lat="41.2013940" lon="-8.7126210">
        <ele>7.8</ele>
        <time>2021-05-16T07:10:11Z</time>
      </trkpt>
      <trkpt lat="41.2014060" lon="-8.7126370">
        <ele>7.8</ele>
        <time>2021-05-16T07:10:12Z</time>
      </trkpt>
      <trkpt lat="41.2014170" lon="-8.7126520">
        <ele>7.8</ele>
        <time>2021-05-16T07:10:13Z</time>
      </trkpt>
      <trkpt lat="41.2014270" lon="-8.7126680">
        <ele>7.8</ele>
        <time>2021-05-16T07:10:14Z</time>
      </trkpt>
      <trkpt lat="41.2014340" lon="-8.7126860">
        <ele>7.8</ele>
        <time>2021-05-16T07:10:15Z</time>
      </trkpt>
      <trkpt lat="41.2014440" lon="-8.7127000">
        <ele>7.8</ele>
        <time>2021-05-16T07:10:16Z</time>
      </trkpt>
      <trkpt lat="41.2014590" lon="-8.7127130">
        <ele>7.8</ele>
        <time>2021-05-16T07:10:17Z</time>
      </trkpt>
      <trkpt lat="41.2014640" lon="-8.7127230">
        <ele>7.8</ele>
        <time>2021-05-16T07:10:18Z</time>
      </trkpt>
      <trkpt lat="41.2014780" lon="-8.7127390">
        <ele>7.8</ele>
        <time>2021-05-16T07:10:19Z</time>
      </trkpt>
      <trkpt lat="41.2014980" lon="-8.7127570">
        <ele>7.7</ele>
        <time>2021-05-16T07:10:20Z</time>
      </trkpt>
      <trkpt lat="41.2015080" lon="-8.7127710">
        <ele>7.7</ele>
        <time>2021-05-16T07:10:21Z</time>
      </trkpt>
      <trkpt lat="41.2015180" lon="-8.7127900">
        <ele>7.7</ele>
        <time>2021-05-16T07:10:22Z</time>
      </trkpt>
      <trkpt lat="41.2015350" lon="-8.7128000">
        <ele>7.7</ele>
        <time>2021-05-16T07:10:23Z</time>
      </trkpt>
      <trkpt lat="41.2015640" lon="-8.7128140">
        <ele>7.7</ele>
        <time>2021-05-16T07:10:24Z</time>
      </trkpt>
      <trkpt lat="41.2015730" lon="-8.7128220">
        <ele>7.7</ele>
        <time>2021-05-16T07:10:25Z</time>
      </trkpt>
      <trkpt lat="41.2015880" lon="-8.7128280">
        <ele>7.7</ele>
        <time>2021-05-16T07:10:26Z</time>
      </trkpt>
      <trkpt lat="41.2016010" lon="-8.7128400">
        <ele>7.7</ele>
        <time>2021-05-16T07:10:27Z</time>
      </trkpt>
      <trkpt lat="41.2016170" lon="-8.7128530">
        <ele>7.7</ele>
        <time>2021-05-16T07:10:28Z</time>
      </trkpt>
      <trkpt lat="41.2016310" lon="-8.7128650">
        <ele>7.7</ele>
        <time>2021-05-16T07:10:29Z</time>
      </trkpt>
      <trkpt lat="41.2016590" lon="-8.7128710">
        <ele>7.7</ele>
        <time>2021-05-16T07:10:30Z</time>
      </trkpt>
      <trkpt lat="41.2016680" lon="-8.7128730">
        <ele>7.7</ele>
        <time>2021-05-16T07:10:31Z</time>
      </trkpt>
      <trkpt lat="41.2016880" lon="-8.7128790">
        <ele>7.7</ele>
        <time>2021-05-16T07:10:32Z</time>
      </trkpt>
      <trkpt lat="41.2017000" lon="-8.7128950">
        <ele>7.7</ele>
        <time>2021-05-16T07:10:33Z</time>
      </trkpt>
      <trkpt lat="41.2017170" lon="-8.7129060">
        <ele>7.7</ele>
        <time>2021-05-16T07:10:34Z</time>
      </trkpt>
      <trkpt lat="41.2017290" lon="-8.7129150">
        <ele>7.7</ele>
        <time>2021-05-16T07:10:35Z</time>
      </trkpt>
      <trkpt lat="41.2017420" lon="-8.7129220">
        <ele>7.7</ele>
        <time>2021-05-16T07:10:36Z</time>
      </trkpt>
      <trkpt lat="41.2017550" lon="-8.7129340">
        <ele>7.6</ele>
        <time>2021-05-16T07:10:37Z</time>
      </trkpt>
      <trkpt lat="41.2017690" lon="-8.7129420">
        <ele>7.6</ele>
        <time>2021-05-16T07:10:38Z</time>
      </trkpt>
      <trkpt lat="41.2017800" lon="-8.7129530">
        <ele>7.6</ele>
        <time>2021-05-16T07:10:39Z</time>
      </trkpt>
      <trkpt lat="41.2017950" lon="-8.7129640">
        <ele>7.6</ele>
        <time>2021-05-16T07:10:40Z</time>
      </trkpt>
      <trkpt lat="41.2018120" lon="-8.7129700">
        <ele>7.6</ele>
        <time>2021-05-16T07:10:41Z</time>
      </trkpt>
      <trkpt lat="41.2018240" lon="-8.7129820">
        <ele>7.6</ele>
        <time>2021-05-16T07:10:42Z</time>
      </trkpt>
      <trkpt lat="41.2018360" lon="-8.7129900">
        <ele>7.6</ele>
        <time>2021-05-16T07:10:43Z</time>
      </trkpt>
      <trkpt lat="41.2018500" lon="-8.7130010">
        <ele>7.6</ele>
        <time>2021-05-16T07:10:44Z</time>
      </trkpt>
      <trkpt lat="41.2018670" lon="-8.7130100">
        <ele>7.6</ele>
        <time>2021-05-16T07:10:45Z</time>
      </trkpt>
      <trkpt lat="41.2018790" lon="-8.7130250">
        <ele>7.6</ele>
        <time>2021-05-16T07:10:46Z</time>
      </trkpt>
      <trkpt lat="41.2018940" lon="-8.7130350">
        <ele>7.6</ele>
        <time>2021-05-16T07:10:47Z</time>
      </trkpt>
      <trkpt lat="41.2019050" lon="-8.7130470">
        <ele>7.6</ele>
        <time>2021-05-16T07:10:48Z</time>
      </trkpt>
      <trkpt lat="41.2019160" lon="-8.7130620">
        <ele>7.6</ele>
        <time>2021-05-16T07:10:49Z</time>
      </trkpt>
      <trkpt lat="41.2019300" lon="-8.7130690">
        <ele>7.6</ele>
        <time>2021-05-16T07:10:50Z</time>
      </trkpt>
      <trkpt lat="41.2019430" lon="-8.7130850">
        <ele>7.6</ele>
        <time>2021-05-16T07:10:51Z</time>
      </trkpt>
      <trkpt lat="41.2019680" lon="-8.7131000">
        <ele>7.6</ele>
        <time>2021-05-16T07:10:52Z</time>
      </trkpt>
      <trkpt lat="41.2019750" lon="-8.7131090">
        <ele>7.6</ele>
        <time>2021-05-16T07:10:53Z</time>
      </trkpt>
      <trkpt lat="41.2019870" lon="-8.7131210">
        <ele>7.6</ele>
        <time>2021-05-16T07:10:54Z</time>
      </trkpt>
      <trkpt lat="41.2020010" lon="-8.7131370">
        <ele>7.6</ele>
        <time>2021-05-16T07:10:55Z</time>
      </trkpt>
      <trkpt lat="41.2020140" lon="-8.7131480">
        <ele>7.6</ele>
        <time>2021-05-16T07:10:56Z</time>
      </trkpt>
      <trkpt lat="41.2020230" lon="-8.7131640">
        <ele>7.6</ele>
        <time>2021-05-16T07:10:57Z</time>
      </trkpt>
      <trkpt lat="41.2020410" lon="-8.7131820">
        <ele>7.6</ele>
        <time>2021-05-16T07:10:58Z</time>
      </trkpt>
      <trkpt lat="41.2020490" lon="-8.7131880">
        <ele>7.6</ele>
        <time>2021-05-16T07:10:59Z</time>
      </trkpt>
      <trkpt lat="41.2020560" lon="-8.7131950">
        <ele>7.6</ele>
        <time>2021-05-16T07:11:00Z</time>
      </trkpt>
      <trkpt lat="41.2020700" lon="-8.7132090">
        <ele>7.6</ele>
        <time>2021-05-16T07:11:01Z</time>
      </trkpt>
      <trkpt lat="41.2020830" lon="-8.7132220">
        <ele>7.6</ele>
        <time>2021-05-16T07:11:02Z</time>
      </trkpt>
      <trkpt lat="41.2020970" lon="-8.7132330">
        <ele>7.6</ele>
        <time>2021-05-16T07:11:03Z</time>
      </trkpt>
      <trkpt lat="41.2021070" lon="-8.7132480">
        <ele>7.6</ele>
        <time>2021-05-16T07:11:04Z</time>
      </trkpt>
      <trkpt lat="41.2021200" lon="-8.7132570">
        <ele>7.6</ele>
        <time>2021-05-16T07:11:05Z</time>
      </trkpt>
      <trkpt lat="41.2021330" lon="-8.7132690">
        <ele>7.6</ele>
        <time>2021-05-16T07:11:06Z</time>
      </trkpt>
      <trkpt lat="41.2021470" lon="-8.7132810">
        <ele>7.6</ele>
        <time>2021-05-16T07:11:07Z</time>
      </trkpt>
      <trkpt lat="41.2021580" lon="-8.7132900">
        <ele>7.6</ele>
        <time>2021-05-16T07:11:08Z</time>
      </trkpt>
      <trkpt lat="41.2021770" lon="-8.7133000">
        <ele>7.6</ele>
        <time>2021-05-16T07:11:09Z</time>
      </trkpt>
      <trkpt lat="41.2021850" lon="-8.7133050">
        <ele>7.6</ele>
        <time>2021-05-16T07:11:10Z</time>
      </trkpt>
      <trkpt lat="41.2021940" lon="-8.7133090">
        <ele>7.6</ele>
        <time>2021-05-16T07:11:11Z</time>
      </trkpt>
      <trkpt lat="41.2022080" lon="-8.7133160">
        <ele>7.6</ele>
        <time>2021-05-16T07:11:12Z</time>
      </trkpt>
      <trkpt lat="41.2022200" lon="-8.7133280">
        <ele>7.6</ele>
        <time>2021-05-16T07:11:13Z</time>
      </trkpt>
      <trkpt lat="41.2022320" lon="-8.7133410">
        <ele>7.6</ele>
        <time>2021-05-16T07:11:14Z</time>
      </trkpt>
      <trkpt lat="41.2022470" lon="-8.7133570">
        <ele>7.6</ele>
        <time>2021-05-16T07:11:15Z</time>
      </trkpt>
      <trkpt lat="41.2022590" lon="-8.7133710">
        <ele>7.6</ele>
        <time>2021-05-16T07:11:16Z</time>
      </trkpt>
      <trkpt lat="41.2022730" lon="-8.7133760">
        <ele>7.6</ele>
        <time>2021-05-16T07:11:17Z</time>
      </trkpt>
      <trkpt lat="41.2022830" lon="-8.7133860">
        <ele>7.6</ele>
        <time>2021-05-16T07:11:18Z</time>
      </trkpt>
      <trkpt lat="41.2022950" lon="-8.7133980">
        <ele>7.5</ele>
        <time>2021-05-16T07:11:19Z</time>
      </trkpt>
      <trkpt lat="41.2023120" lon="-8.7134050">
        <ele>7.5</ele>
        <time>2021-05-16T07:11:20Z</time>
      </trkpt>
      <trkpt lat="41.2023270" lon="-8.7134170">
        <ele>7.5</ele>
        <time>2021-05-16T07:11:21Z</time>
      </trkpt>
      <trkpt lat="41.2023400" lon="-8.7134270">
        <ele>7.5</ele>
        <time>2021-05-16T07:11:22Z</time>
      </trkpt>
      <trkpt lat="41.2023530" lon="-8.7134310">
        <ele>7.5</ele>
        <time>2021-05-16T07:11:23Z</time>
      </trkpt>
      <trkpt lat="41.2023640" lon="-8.7134390">
        <ele>7.5</ele>
        <time>2021-05-16T07:11:24Z</time>
      </trkpt>
      <trkpt lat="41.2023810" lon="-8.7134460">
        <ele>7.5</ele>
        <time>2021-05-16T07:11:25Z</time>
      </trkpt>
      <trkpt lat="41.2023930" lon="-8.7134530">
        <ele>7.5</ele>
        <time>2021-05-16T07:11:26Z</time>
      </trkpt>
      <trkpt lat="41.2024080" lon="-8.7134620">
        <ele>7.5</ele>
        <time>2021-05-16T07:11:27Z</time>
      </trkpt>
      <trkpt lat="41.2024230" lon="-8.7134730">
        <ele>7.5</ele>
        <time>2021-05-16T07:11:28Z</time>
      </trkpt>
      <trkpt lat="41.2024380" lon="-8.7134790">
        <ele>7.5</ele>
        <time>2021-05-16T07:11:29Z</time>
      </trkpt>
      <trkpt lat="41.2024520" lon="-8.7134830">
        <ele>7.5</ele>
        <time>2021-05-16T07:11:30Z</time>
      </trkpt>
      <trkpt lat="41.2024670" lon="-8.7134920">
        <ele>7.5</ele>
        <time>2021-05-16T07:11:31Z</time>
      </trkpt>
      <trkpt lat="41.2024790" lon="-8.7135050">
        <ele>7.5</ele>
        <time>2021-05-16T07:11:32Z</time>
      </trkpt>
      <trkpt lat="41.2024910" lon="-8.7135190">
        <ele>7.5</ele>
        <time>2021-05-16T07:11:33Z</time>
      </trkpt>
      <trkpt lat="41.2025070" lon="-8.7135280">
        <ele>7.5</ele>
        <time>2021-05-16T07:11:34Z</time>
      </trkpt>
      <trkpt lat="41.2025200" lon="-8.7135320">
        <ele>7.5</ele>
        <time>2021-05-16T07:11:35Z</time>
      </trkpt>
      <trkpt lat="41.2025320" lon="-8.7135430">
        <ele>7.5</ele>
        <time>2021-05-16T07:11:36Z</time>
      </trkpt>
      <trkpt lat="41.2025420" lon="-8.7135540">
        <ele>7.5</ele>
        <time>2021-05-16T07:11:37Z</time>
      </trkpt>
      <trkpt lat="41.2025640" lon="-8.7135650">
        <ele>7.5</ele>
        <time>2021-05-16T07:11:38Z</time>
      </trkpt>
      <trkpt lat="41.2025710" lon="-8.7135700">
        <ele>7.5</ele>
        <time>2021-05-16T07:11:39Z</time>
      </trkpt>
      <trkpt lat="41.2025790" lon="-8.7135750">
        <ele>7.5</ele>
        <time>2021-05-16T07:11:40Z</time>
      </trkpt>
      <trkpt lat="41.2025910" lon="-8.7135860">
        <ele>7.4</ele>
        <time>2021-05-16T07:11:41Z</time>
      </trkpt>
      <trkpt lat="41.2026080" lon="-8.7135940">
        <ele>7.4</ele>
        <time>2021-05-16T07:11:42Z</time>
      </trkpt>
      <trkpt lat="41.2026220" lon="-8.7136030">
        <ele>7.4</ele>
        <time>2021-05-16T07:11:43Z</time>
      </trkpt>
      <trkpt lat="41.2026310" lon="-8.7136180">
        <ele>7.4</ele>
        <time>2021-05-16T07:11:44Z</time>
      </trkpt>
      <trkpt lat="41.2026450" lon="-8.7136260">
        <ele>7.4</ele>
        <time>2021-05-16T07:11:45Z</time>
      </trkpt>
      <trkpt lat="41.2026630" lon="-8.7136340">
        <ele>7.4</ele>
        <time>2021-05-16T07:11:46Z</time>
      </trkpt>
      <trkpt lat="41.2026750" lon="-8.7136430">
        <ele>7.4</ele>
        <time>2021-05-16T07:11:47Z</time>
      </trkpt>
      <trkpt lat="41.2026910" lon="-8.7136480">
        <ele>7.4</ele>
        <time>2021-05-16T07:11:48Z</time>
      </trkpt>
      <trkpt lat="41.2027030" lon="-8.7136530">
        <ele>7.4</ele>
        <time>2021-05-16T07:11:49Z</time>
      </trkpt>
      <trkpt lat="41.2027190" lon="-8.7136620">
        <ele>7.4</ele>
        <time>2021-05-16T07:11:50Z</time>
      </trkpt>
      <trkpt lat="41.2027310" lon="-8.7136750">
        <ele>7.4</ele>
        <time>2021-05-16T07:11:51Z</time>
      </trkpt>
      <trkpt lat="41.2027460" lon="-8.7136800">
        <ele>7.4</ele>
        <time>2021-05-16T07:11:52Z</time>
      </trkpt>
      <trkpt lat="41.2027570" lon="-8.7136850">
        <ele>7.4</ele>
        <time>2021-05-16T07:11:53Z</time>
      </trkpt>
      <trkpt lat="41.2027740" lon="-8.7136900">
        <ele>7.4</ele>
        <time>2021-05-16T07:11:54Z</time>
      </trkpt>
      <trkpt lat="41.2027830" lon="-8.7137000">
        <ele>7.4</ele>
        <time>2021-05-16T07:11:55Z</time>
      </trkpt>
      <trkpt lat="41.2027990" lon="-8.7137080">
        <ele>7.4</ele>
        <time>2021-05-16T07:11:56Z</time>
      </trkpt>
      <trkpt lat="41.2028110" lon="-8.7137200">
        <ele>7.4</ele>
        <time>2021-05-16T07:11:57Z</time>
      </trkpt>
      <trkpt lat="41.2028230" lon="-8.7137300">
        <ele>7.4</ele>
        <time>2021-05-16T07:11:58Z</time>
      </trkpt>
      <trkpt lat="41.2028350" lon="-8.7137410">
        <ele>7.4</ele>
        <time>2021-05-16T07:11:59Z</time>
      </trkpt>
      <trkpt lat="41.2028480" lon="-8.7137540">
        <ele>7.4</ele>
        <time>2021-05-16T07:12:00Z</time>
      </trkpt>
      <trkpt lat="41.2028610" lon="-8.7137610">
        <ele>7.4</ele>
        <time>2021-05-16T07:12:01Z</time>
      </trkpt>
      <trkpt lat="41.2028760" lon="-8.7137660">
        <ele>7.4</ele>
        <time>2021-05-16T07:12:02Z</time>
      </trkpt>
      <trkpt lat="41.2028920" lon="-8.7137730">
        <ele>7.4</ele>
        <time>2021-05-16T07:12:03Z</time>
      </trkpt>
      <trkpt lat="41.2029040" lon="-8.7137760">
        <ele>7.4</ele>
        <time>2021-05-16T07:12:04Z</time>
      </trkpt>
      <trkpt lat="41.2029170" lon="-8.7137870">
        <ele>7.4</ele>
        <time>2021-05-16T07:12:05Z</time>
      </trkpt>
      <trkpt lat="41.2029310" lon="-8.7137910">
        <ele>7.4</ele>
        <time>2021-05-16T07:12:06Z</time>
      </trkpt>
      <trkpt lat="41.2029450" lon="-8.7137990">
        <ele>7.4</ele>
        <time>2021-05-16T07:12:07Z</time>
      </trkpt>
      <trkpt lat="41.2029590" lon="-8.7138040">
        <ele>7.4</ele>
        <time>2021-05-16T07:12:08Z</time>
      </trkpt>
      <trkpt lat="41.2029710" lon="-8.7138170">
        <ele>7.4</ele>
        <time>2021-05-16T07:12:09Z</time>
      </trkpt>
      <trkpt lat="41.2029830" lon="-8.7138220">
        <ele>7.4</ele>
        <time>2021-05-16T07:12:10Z</time>
      </trkpt>
      <trkpt lat="41.2029930" lon="-8.7138320">
        <ele>7.4</ele>
        <time>2021-05-16T07:12:11Z</time>
      </trkpt>
      <trkpt lat="41.2030080" lon="-8.7138420">
        <ele>7.4</ele>
        <time>2021-05-16T07:12:12Z</time>
      </trkpt>
      <trkpt lat="41.2030180" lon="-8.7138490">
        <ele>7.4</ele>
        <time>2021-05-16T07:12:13Z</time>
      </trkpt>
      <trkpt lat="41.2030310" lon="-8.7138640">
        <ele>7.4</ele>
        <time>2021-05-16T07:12:14Z</time>
      </trkpt>
      <trkpt lat="41.2030420" lon="-8.7138750">
        <ele>7.4</ele>
        <time>2021-05-16T07:12:15Z</time>
      </trkpt>
      <trkpt lat="41.2030580" lon="-8.7138800">
        <ele>7.4</ele>
        <time>2021-05-16T07:12:16Z</time>
      </trkpt>
      <trkpt lat="41.2030730" lon="-8.7138870">
        <ele>7.4</ele>
        <time>2021-05-16T07:12:17Z</time>
      </trkpt>
      <trkpt lat="41.2030840" lon="-8.7139050">
        <ele>7.4</ele>
        <time>2021-05-16T07:12:18Z</time>
      </trkpt>
      <trkpt lat="41.2030980" lon="-8.7139130">
        <ele>7.4</ele>
        <time>2021-05-16T07:12:19Z</time>
      </trkpt>
      <trkpt lat="41.2031060" lon="-8.7139270">
        <ele>7.4</ele>
        <time>2021-05-16T07:12:20Z</time>
      </trkpt>
      <trkpt lat="41.2031260" lon="-8.7139400">
        <ele>7.4</ele>
        <time>2021-05-16T07:12:21Z</time>
      </trkpt>
      <trkpt lat="41.2031350" lon="-8.7139460">
        <ele>7.4</ele>
        <time>2021-05-16T07:12:22Z</time>
      </trkpt>
      <trkpt lat="41.2031450" lon="-8.7139510">
        <ele>7.4</ele>
        <time>2021-05-16T07:12:23Z</time>
      </trkpt>
      <trkpt lat="41.2031590" lon="-8.7139570">
        <ele>7.4</ele>
        <time>2021-05-16T07:12:24Z</time>
      </trkpt>
      <trkpt lat="41.2031720" lon="-8.7139700">
        <ele>7.4</ele>
        <time>2021-05-16T07:12:25Z</time>
      </trkpt>
      <trkpt lat="41.2031870" lon="-8.7139830">
        <ele>7.4</ele>
        <time>2021-05-16T07:12:26Z</time>
      </trkpt>
      <trkpt lat="41.2031980" lon="-8.7139960">
        <ele>7.4</ele>
        <time>2021-05-16T07:12:27Z</time>
      </trkpt>
      <trkpt lat="41.2032150" lon="-8.7140040">
        <ele>7.4</ele>
        <time>2021-05-16T07:12:28Z</time>
      </trkpt>
      <trkpt lat="41.2032270" lon="-8.7140130">
        <ele>7.4</ele>
        <time>2021-05-16T07:12:29Z</time>
      </trkpt>
      <trkpt lat="41.2032410" lon="-8.7140210">
        <ele>7.4</ele>
        <time>2021-05-16T07:12:30Z</time>
      </trkpt>
      <trkpt lat="41.2032540" lon="-8.7140330">
        <ele>7.4</ele>
        <time>2021-05-16T07:12:31Z</time>
      </trkpt>
      <trkpt lat="41.2032690" lon="-8.7140430">
        <ele>7.4</ele>
        <time>2021-05-16T07:12:32Z</time>
      </trkpt>
      <trkpt lat="41.2032810" lon="-8.7140490">
        <ele>7.4</ele>
        <time>2021-05-16T07:12:33Z</time>
      </trkpt>
      <trkpt lat="41.2032960" lon="-8.7140610">
        <ele>7.4</ele>
        <time>2021-05-16T07:12:34Z</time>
      </trkpt>
      <trkpt lat="41.2033070" lon="-8.7140720">
        <ele>7.4</ele>
        <time>2021-05-16T07:12:35Z</time>
      </trkpt>
      <trkpt lat="41.2033210" lon="-8.7140860">
        <ele>7.4</ele>
        <time>2021-05-16T07:12:36Z</time>
      </trkpt>
      <trkpt lat="41.2033320" lon="-8.7140970">
        <ele>7.4</ele>
        <time>2021-05-16T07:12:37Z</time>
      </trkpt>
      <trkpt lat="41.2033460" lon="-8.7141050">
        <ele>7.4</ele>
        <time>2021-05-16T07:12:38Z</time>
      </trkpt>
      <trkpt lat="41.2033610" lon="-8.7141130">
        <ele>7.4</ele>
        <time>2021-05-16T07:12:39Z</time>
      </trkpt>
      <trkpt lat="41.2033730" lon="-8.7141210">
        <ele>7.4</ele>
        <time>2021-05-16T07:12:40Z</time>
      </trkpt>
      <trkpt lat="41.2033870" lon="-8.7141260">
        <ele>7.4</ele>
        <time>2021-05-16T07:12:41Z</time>
      </trkpt>
      <trkpt lat="41.2033990" lon="-8.7141380">
        <ele>7.4</ele>
        <time>2021-05-16T07:12:42Z</time>
      </trkpt>
      <trkpt lat="41.2034120" lon="-8.7141500">
        <ele>7.4</ele>
        <time>2021-05-16T07:12:43Z</time>
      </trkpt>
      <trkpt lat="41.2034280" lon="-8.7141520">
        <ele>7.4</ele>
        <time>2021-05-16T07:12:44Z</time>
      </trkpt>
      <trkpt lat="41.2034440" lon="-8.7141550">
        <ele>7.4</ele>
        <time>2021-05-16T07:12:45Z</time>
      </trkpt>
      <trkpt lat="41.2034590" lon="-8.7141650">
        <ele>7.4</ele>
        <time>2021-05-16T07:12:46Z</time>
      </trkpt>
      <trkpt lat="41.2034740" lon="-8.7141710">
        <ele>7.4</ele>
        <time>2021-05-16T07:12:47Z</time>
      </trkpt>
      <trkpt lat="41.2034890" lon="-8.7141780">
        <ele>7.4</ele>
        <time>2021-05-16T07:12:48Z</time>
      </trkpt>
      <trkpt lat="41.2035010" lon="-8.7141910">
        <ele>7.4</ele>
        <time>2021-05-16T07:12:49Z</time>
      </trkpt>
      <trkpt lat="41.2035120" lon="-8.7142010">
        <ele>7.4</ele>
        <time>2021-05-16T07:12:50Z</time>
      </trkpt>
      <trkpt lat="41.2035290" lon="-8.7142080">
        <ele>7.4</ele>
        <time>2021-05-16T07:12:51Z</time>
      </trkpt>
      <trkpt lat="41.2035440" lon="-8.7142180">
        <ele>7.4</ele>
        <time>2021-05-16T07:12:52Z</time>
      </trkpt>
      <trkpt lat="41.2035580" lon="-8.7142260">
        <ele>7.4</ele>
        <time>2021-05-16T07:12:53Z</time>
      </trkpt>
      <trkpt lat="41.2035710" lon="-8.7142260">
        <ele>7.4</ele>
        <time>2021-05-16T07:12:54Z</time>
      </trkpt>
      <trkpt lat="41.2035860" lon="-8.7142300">
        <ele>7.4</ele>
        <time>2021-05-16T07:12:55Z</time>
      </trkpt>
      <trkpt lat="41.2036020" lon="-8.7142310">
        <ele>7.4</ele>
        <time>2021-05-16T07:12:56Z</time>
      </trkpt>
      <trkpt lat="41.2036180" lon="-8.7142330">
        <ele>7.4</ele>
        <time>2021-05-16T07:12:57Z</time>
      </trkpt>
      <trkpt lat="41.2036340" lon="-8.7142440">
        <ele>7.4</ele>
        <time>2021-05-16T07:12:58Z</time>
      </trkpt>
      <trkpt lat="41.2036490" lon="-8.7142470">
        <ele>7.4</ele>
        <time>2021-05-16T07:12:59Z</time>
      </trkpt>
      <trkpt lat="41.2036640" lon="-8.7142560">
        <ele>7.4</ele>
        <time>2021-05-16T07:13:00Z</time>
      </trkpt>
      <trkpt lat="41.2036780" lon="-8.7142620">
        <ele>7.4</ele>
        <time>2021-05-16T07:13:01Z</time>
      </trkpt>
      <trkpt lat="41.2036920" lon="-8.7142680">
        <ele>7.4</ele>
        <time>2021-05-16T07:13:02Z</time>
      </trkpt>
      <trkpt lat="41.2037080" lon="-8.7142770">
        <ele>7.4</ele>
        <time>2021-05-16T07:13:03Z</time>
      </trkpt>
      <trkpt lat="41.2037240" lon="-8.7142840">
        <ele>7.3</ele>
        <time>2021-05-16T07:13:04Z</time>
      </trkpt>
      <trkpt lat="41.2037360" lon="-8.7142910">
        <ele>7.3</ele>
        <time>2021-05-16T07:13:05Z</time>
      </trkpt>
      <trkpt lat="41.2037490" lon="-8.7142990">
        <ele>7.3</ele>
        <time>2021-05-16T07:13:06Z</time>
      </trkpt>
      <trkpt lat="41.2037650" lon="-8.7142980">
        <ele>7.3</ele>
        <time>2021-05-16T07:13:07Z</time>
      </trkpt>
      <trkpt lat="41.2037820" lon="-8.7143010">
        <ele>7.3</ele>
        <time>2021-05-16T07:13:08Z</time>
      </trkpt>
      <trkpt lat="41.2037980" lon="-8.7143060">
        <ele>7.3</ele>
        <time>2021-05-16T07:13:09Z</time>
      </trkpt>
      <trkpt lat="41.2038120" lon="-8.7143190">
        <ele>7.3</ele>
        <time>2021-05-16T07:13:10Z</time>
      </trkpt>
      <trkpt lat="41.2038270" lon="-8.7143280">
        <ele>7.3</ele>
        <time>2021-05-16T07:13:11Z</time>
      </trkpt>
      <trkpt lat="41.2038460" lon="-8.7143330">
        <ele>7.3</ele>
        <time>2021-05-16T07:13:12Z</time>
      </trkpt>
      <trkpt lat="41.2038600" lon="-8.7143410">
        <ele>7.3</ele>
        <time>2021-05-16T07:13:13Z</time>
      </trkpt>
      <trkpt lat="41.2038760" lon="-8.7143510">
        <ele>7.3</ele>
        <time>2021-05-16T07:13:14Z</time>
      </trkpt>
      <trkpt lat="41.2038900" lon="-8.7143560">
        <ele>7.3</ele>
        <time>2021-05-16T07:13:15Z</time>
      </trkpt>
      <trkpt lat="41.2039050" lon="-8.7143570">
        <ele>7.3</ele>
        <time>2021-05-16T07:13:16Z</time>
      </trkpt>
      <trkpt lat="41.2039180" lon="-8.7143620">
        <ele>7.3</ele>
        <time>2021-05-16T07:13:17Z</time>
      </trkpt>
      <trkpt lat="41.2039310" lon="-8.7143620">
        <ele>7.3</ele>
        <time>2021-05-16T07:13:18Z</time>
      </trkpt>
      <trkpt lat="41.2039470" lon="-8.7143640">
        <ele>7.3</ele>
        <time>2021-05-16T07:13:19Z</time>
      </trkpt>
      <trkpt lat="41.2039640" lon="-8.7143720">
        <ele>7.3</ele>
        <time>2021-05-16T07:13:20Z</time>
      </trkpt>
      <trkpt lat="41.2039800" lon="-8.7143790">
        <ele>7.3</ele>
        <time>2021-05-16T07:13:21Z</time>
      </trkpt>
      <trkpt lat="41.2039940" lon="-8.7143880">
        <ele>7.3</ele>
        <time>2021-05-16T07:13:22Z</time>
      </trkpt>
      <trkpt lat="41.2040080" lon="-8.7144000">
        <ele>7.4</ele>
        <time>2021-05-16T07:13:23Z</time>
      </trkpt>
      <trkpt lat="41.2040200" lon="-8.7144080">
        <ele>7.4</ele>
        <time>2021-05-16T07:13:24Z</time>
      </trkpt>
      <trkpt lat="41.2040350" lon="-8.7144090">
        <ele>7.4</ele>
        <time>2021-05-16T07:13:25Z</time>
      </trkpt>
      <trkpt lat="41.2040500" lon="-8.7144060">
        <ele>7.4</ele>
        <time>2021-05-16T07:13:26Z</time>
      </trkpt>
      <trkpt lat="41.2040650" lon="-8.7144070">
        <ele>7.4</ele>
        <time>2021-05-16T07:13:27Z</time>
      </trkpt>
      <trkpt lat="41.2040770" lon="-8.7144120">
        <ele>7.4</ele>
        <time>2021-05-16T07:13:28Z</time>
      </trkpt>
      <trkpt lat="41.2040940" lon="-8.7144140">
        <ele>7.4</ele>
        <time>2021-05-16T07:13:29Z</time>
      </trkpt>
      <trkpt lat="41.2041100" lon="-8.7144150">
        <ele>7.5</ele>
        <time>2021-05-16T07:13:30Z</time>
      </trkpt>
      <trkpt lat="41.2041270" lon="-8.7144140">
        <ele>7.5</ele>
        <time>2021-05-16T07:13:31Z</time>
      </trkpt>
      <trkpt lat="41.2041420" lon="-8.7144130">
        <ele>7.5</ele>
        <time>2021-05-16T07:13:32Z</time>
      </trkpt>
      <trkpt lat="41.2041570" lon="-8.7144180">
        <ele>7.5</ele>
        <time>2021-05-16T07:13:33Z</time>
      </trkpt>
      <trkpt lat="41.2041730" lon="-8.7144210">
        <ele>7.5</ele>
        <time>2021-05-16T07:13:34Z</time>
      </trkpt>
      <trkpt lat="41.2041890" lon="-8.7144170">
        <ele>7.5</ele>
        <time>2021-05-16T07:13:35Z</time>
      </trkpt>
      <trkpt lat="41.2042060" lon="-8.7144210">
        <ele>7.5</ele>
        <time>2021-05-16T07:13:36Z</time>
      </trkpt>
      <trkpt lat="41.2042170" lon="-8.7144210">
        <ele>7.6</ele>
        <time>2021-05-16T07:13:37Z</time>
      </trkpt>
      <trkpt lat="41.2042320" lon="-8.7144200">
        <ele>7.6</ele>
        <time>2021-05-16T07:13:38Z</time>
      </trkpt>
      <trkpt lat="41.2042450" lon="-8.7144330">
        <ele>7.6</ele>
        <time>2021-05-16T07:13:39Z</time>
      </trkpt>
      <trkpt lat="41.2042590" lon="-8.7144350">
        <ele>7.6</ele>
        <time>2021-05-16T07:13:40Z</time>
      </trkpt>
      <trkpt lat="41.2042740" lon="-8.7144440">
        <ele>7.6</ele>
        <time>2021-05-16T07:13:41Z</time>
      </trkpt>
      <trkpt lat="41.2042870" lon="-8.7144510">
        <ele>7.6</ele>
        <time>2021-05-16T07:13:42Z</time>
      </trkpt>
      <trkpt lat="41.2043050" lon="-8.7144580">
        <ele>7.6</ele>
        <time>2021-05-16T07:13:43Z</time>
      </trkpt>
      <trkpt lat="41.2043200" lon="-8.7144680">
        <ele>7.6</ele>
        <time>2021-05-16T07:13:44Z</time>
      </trkpt>
      <trkpt lat="41.2043350" lon="-8.7144700">
        <ele>7.7</ele>
        <time>2021-05-16T07:13:45Z</time>
      </trkpt>
      <trkpt lat="41.2043500" lon="-8.7144740">
        <ele>7.7</ele>
        <time>2021-05-16T07:13:46Z</time>
      </trkpt>
      <trkpt lat="41.2043660" lon="-8.7144750">
        <ele>7.7</ele>
        <time>2021-05-16T07:13:47Z</time>
      </trkpt>
      <trkpt lat="41.2043780" lon="-8.7144890">
        <ele>7.7</ele>
        <time>2021-05-16T07:13:48Z</time>
      </trkpt>
      <trkpt lat="41.2043910" lon="-8.7145000">
        <ele>7.7</ele>
        <time>2021-05-16T07:13:49Z</time>
      </trkpt>
      <trkpt lat="41.2044060" lon="-8.7145130">
        <ele>7.8</ele>
        <time>2021-05-16T07:13:50Z</time>
      </trkpt>
      <trkpt lat="41.2044170" lon="-8.7145210">
        <ele>7.8</ele>
        <time>2021-05-16T07:13:51Z</time>
      </trkpt>
      <trkpt lat="41.2044320" lon="-8.7145330">
        <ele>7.8</ele>
        <time>2021-05-16T07:13:52Z</time>
      </trkpt>
      <trkpt lat="41.2044450" lon="-8.7145480">
        <ele>7.8</ele>
        <time>2021-05-16T07:13:53Z</time>
      </trkpt>
      <trkpt lat="41.2044600" lon="-8.7145560">
        <ele>7.9</ele>
        <time>2021-05-16T07:13:54Z</time>
      </trkpt>
      <trkpt lat="41.2044760" lon="-8.7145690">
        <ele>7.9</ele>
        <time>2021-05-16T07:13:55Z</time>
      </trkpt>
      <trkpt lat="41.2044880" lon="-8.7145710">
        <ele>7.9</ele>
        <time>2021-05-16T07:13:56Z</time>
      </trkpt>
      <trkpt lat="41.2045040" lon="-8.7145850">
        <ele>7.9</ele>
        <time>2021-05-16T07:13:57Z</time>
      </trkpt>
      <trkpt lat="41.2045100" lon="-8.7146010">
        <ele>7.9</ele>
        <time>2021-05-16T07:13:58Z</time>
      </trkpt>
      <trkpt lat="41.2045240" lon="-8.7146200">
        <ele>8.0</ele>
        <time>2021-05-16T07:13:59Z</time>
      </trkpt>
      <trkpt lat="41.2045340" lon="-8.7146320">
        <ele>8.0</ele>
        <time>2021-05-16T07:14:00Z</time>
      </trkpt>
      <trkpt lat="41.2045430" lon="-8.7146520">
        <ele>8.0</ele>
        <time>2021-05-16T07:14:01Z</time>
      </trkpt>
      <trkpt lat="41.2045540" lon="-8.7146670">
        <ele>8.1</ele>
        <time>2021-05-16T07:14:02Z</time>
      </trkpt>
      <trkpt lat="41.2045630" lon="-8.7146840">
        <ele>8.1</ele>
        <time>2021-05-16T07:14:03Z</time>
      </trkpt>
      <trkpt lat="41.2045730" lon="-8.7147020">
        <ele>8.1</ele>
        <time>2021-05-16T07:14:04Z</time>
      </trkpt>
      <trkpt lat="41.2045840" lon="-8.7147150">
        <ele>8.1</ele>
        <time>2021-05-16T07:14:05Z</time>
      </trkpt>
      <trkpt lat="41.2045960" lon="-8.7147400">
        <ele>8.2</ele>
        <time>2021-05-16T07:14:06Z</time>
      </trkpt>
      <trkpt lat="41.2046040" lon="-8.7147480">
        <ele>8.2</ele>
        <time>2021-05-16T07:14:07Z</time>
      </trkpt>
      <trkpt lat="41.2046110" lon="-8.7147560">
        <ele>8.2</ele>
        <time>2021-05-16T07:14:08Z</time>
      </trkpt>
      <trkpt lat="41.2046230" lon="-8.7147660">
        <ele>8.2</ele>
        <time>2021-05-16T07:14:09Z</time>
      </trkpt>
      <trkpt lat="41.2046350" lon="-8.7147810">
        <ele>8.3</ele>
        <time>2021-05-16T07:14:10Z</time>
      </trkpt>
      <trkpt lat="41.2046560" lon="-8.7147990">
        <ele>8.3</ele>
        <time>2021-05-16T07:14:11Z</time>
      </trkpt>
      <trkpt lat="41.2046630" lon="-8.7148040">
        <ele>8.3</ele>
        <time>2021-05-16T07:14:12Z</time>
      </trkpt>
      <trkpt lat="41.2046700" lon="-8.7148100">
        <ele>8.3</ele>
        <time>2021-05-16T07:14:13Z</time>
      </trkpt>
      <trkpt lat="41.2046920" lon="-8.7148250">
        <ele>8.4</ele>
        <time>2021-05-16T07:14:14Z</time>
      </trkpt>
      <trkpt lat="41.2047010" lon="-8.7148320">
        <ele>8.4</ele>
        <time>2021-05-16T07:14:15Z</time>
      </trkpt>
      <trkpt lat="41.2047100" lon="-8.7148390">
        <ele>8.4</ele>
        <time>2021-05-16T07:14:16Z</time>
      </trkpt>
      <trkpt lat="41.2047250" lon="-8.7148560">
        <ele>8.4</ele>
        <time>2021-05-16T07:14:17Z</time>
      </trkpt>
      <trkpt lat="41.2047370" lon="-8.7148680">
        <ele>8.5</ele>
        <time>2021-05-16T07:14:18Z</time>
      </trkpt>
      <trkpt lat="41.2047500" lon="-8.7148820">
        <ele>8.5</ele>
        <time>2021-05-16T07:14:19Z</time>
      </trkpt>
      <trkpt lat="41.2047630" lon="-8.7148940">
        <ele>8.5</ele>
        <time>2021-05-16T07:14:20Z</time>
      </trkpt>
      <trkpt lat="41.2047770" lon="-8.7149070">
        <ele>8.6</ele>
        <time>2021-05-16T07:14:21Z</time>
      </trkpt>
      <trkpt lat="41.2047920" lon="-8.7149140">
        <ele>8.6</ele>
        <time>2021-05-16T07:14:22Z</time>
      </trkpt>
      <trkpt lat="41.2048040" lon="-8.7149180">
        <ele>8.6</ele>
        <time>2021-05-16T07:14:23Z</time>
      </trkpt>
      <trkpt lat="41.2048170" lon="-8.7149290">
        <ele>8.6</ele>
        <time>2021-05-16T07:14:24Z</time>
      </trkpt>
      <trkpt lat="41.2048300" lon="-8.7149380">
        <ele>8.7</ele>
        <time>2021-05-16T07:14:25Z</time>
      </trkpt>
      <trkpt lat="41.2048460" lon="-8.7149430">
        <ele>8.7</ele>
        <time>2021-05-16T07:14:26Z</time>
      </trkpt>
      <trkpt lat="41.2048590" lon="-8.7149570">
        <ele>8.7</ele>
        <time>2021-05-16T07:14:27Z</time>
      </trkpt>
      <trkpt lat="41.2048730" lon="-8.7149670">
        <ele>8.8</ele>
        <time>2021-05-16T07:14:28Z</time>
      </trkpt>
      <trkpt lat="41.2048900" lon="-8.7149680">
        <ele>8.8</ele>
        <time>2021-05-16T07:14:29Z</time>
      </trkpt>
      <trkpt lat="41.2049060" lon="-8.7149750">
        <ele>8.8</ele>
        <time>2021-05-16T07:14:30Z</time>
      </trkpt>
      <trkpt lat="41.2049190" lon="-8.7149830">
        <ele>8.9</ele>
        <time>2021-05-16T07:14:31Z</time>
      </trkpt>
      <trkpt lat="41.2049340" lon="-8.7149840">
        <ele>8.9</ele>
        <time>2021-05-16T07:14:32Z</time>
      </trkpt>
      <trkpt lat="41.2049510" lon="-8.7149880">
        <ele>8.9</ele>
        <time>2021-05-16T07:14:33Z</time>
      </trkpt>
      <trkpt lat="41.2049630" lon="-8.7149980">
        <ele>9.0</ele>
        <time>2021-05-16T07:14:34Z</time>
      </trkpt>
      <trkpt lat="41.2049900" lon="-8.7150070">
        <ele>9.0</ele>
        <time>2021-05-16T07:14:35Z</time>
      </trkpt>
      <trkpt lat="41.2050000" lon="-8.7150030">
        <ele>9.1</ele>
        <time>2021-05-16T07:14:36Z</time>
      </trkpt>
      <trkpt lat="41.2050140" lon="-8.7150090">
        <ele>9.1</ele>
        <time>2021-05-16T07:14:37Z</time>
      </trkpt>
      <trkpt lat="41.2050290" lon="-8.7150040">
        <ele>9.1</ele>
        <time>2021-05-16T07:14:38Z</time>
      </trkpt>
      <trkpt lat="41.2050430" lon="-8.7150110">
        <ele>9.2</ele>
        <time>2021-05-16T07:14:39Z</time>
      </trkpt>
      <trkpt lat="41.2050560" lon="-8.7150160">
        <ele>9.2</ele>
        <time>2021-05-16T07:14:40Z</time>
      </trkpt>
      <trkpt lat="41.2050770" lon="-8.7150210">
        <ele>9.2</ele>
        <time>2021-05-16T07:14:41Z</time>
      </trkpt>
      <trkpt lat="41.2050860" lon="-8.7150200">
        <ele>9.3</ele>
        <time>2021-05-16T07:14:42Z</time>
      </trkpt>
      <trkpt lat="41.2050950" lon="-8.7150190">
        <ele>9.3</ele>
        <time>2021-05-16T07:14:43Z</time>
      </trkpt>
      <trkpt lat="41.2051090" lon="-8.7150210">
        <ele>9.3</ele>
        <time>2021-05-16T07:14:44Z</time>
      </trkpt>
      <trkpt lat="41.2051210" lon="-8.7150310">
        <ele>9.3</ele>
        <time>2021-05-16T07:14:45Z</time>
      </trkpt>
      <trkpt lat="41.2051350" lon="-8.7150360">
        <ele>9.4</ele>
        <time>2021-05-16T07:14:46Z</time>
      </trkpt>
      <trkpt lat="41.2051550" lon="-8.7150300">
        <ele>9.4</ele>
        <time>2021-05-16T07:14:47Z</time>
      </trkpt>
      <trkpt lat="41.2051710" lon="-8.7150360">
        <ele>9.5</ele>
        <time>2021-05-16T07:14:48Z</time>
      </trkpt>
      <trkpt lat="41.2051890" lon="-8.7150250">
        <ele>9.5</ele>
        <time>2021-05-16T07:14:49Z</time>
      </trkpt>
      <trkpt lat="41.2052050" lon="-8.7150250">
        <ele>9.5</ele>
        <time>2021-05-16T07:14:50Z</time>
      </trkpt>
      <trkpt lat="41.2052190" lon="-8.7150180">
        <ele>9.6</ele>
        <time>2021-05-16T07:14:51Z</time>
      </trkpt>
      <trkpt lat="41.2052340" lon="-8.7150130">
        <ele>9.6</ele>
        <time>2021-05-16T07:14:52Z</time>
      </trkpt>
      <trkpt lat="41.2052510" lon="-8.7150140">
        <ele>9.7</ele>
        <time>2021-05-16T07:14:53Z</time>
      </trkpt>
      <trkpt lat="41.2052680" lon="-8.7150160">
        <ele>9.7</ele>
        <time>2021-05-16T07:14:54Z</time>
      </trkpt>
      <trkpt lat="41.2052860" lon="-8.7150070">
        <ele>9.8</ele>
        <time>2021-05-16T07:14:55Z</time>
      </trkpt>
      <trkpt lat="41.2053050" lon="-8.7150070">
        <ele>9.8</ele>
        <time>2021-05-16T07:14:56Z</time>
      </trkpt>
      <trkpt lat="41.2053200" lon="-8.7150090">
        <ele>9.9</ele>
        <time>2021-05-16T07:14:57Z</time>
      </trkpt>
      <trkpt lat="41.2053370" lon="-8.7150090">
        <ele>9.9</ele>
        <time>2021-05-16T07:14:58Z</time>
      </trkpt>
      <trkpt lat="41.2053540" lon="-8.7150100">
        <ele>10.0</ele>
        <time>2021-05-16T07:14:59Z</time>
      </trkpt>
      <trkpt lat="41.2053770" lon="-8.7150150">
        <ele>10.1</ele>
        <time>2021-05-16T07:15:00Z</time>
      </trkpt>
      <trkpt lat="41.2053860" lon="-8.7150170">
        <ele>10.1</ele>
        <time>2021-05-16T07:15:01Z</time>
      </trkpt>
      <trkpt lat="41.2053960" lon="-8.7150180">
        <ele>10.1</ele>
        <time>2021-05-16T07:15:02Z</time>
      </trkpt>
      <trkpt lat="41.2054110" lon="-8.7150130">
        <ele>10.2</ele>
        <time>2021-05-16T07:15:03Z</time>
      </trkpt>
      <trkpt lat="41.2054250" lon="-8.7150160">
        <ele>10.2</ele>
        <time>2021-05-16T07:15:04Z</time>
      </trkpt>
      <trkpt lat="41.2054410" lon="-8.7150130">
        <ele>10.3</ele>
        <time>2021-05-16T07:15:05Z</time>
      </trkpt>
      <trkpt lat="41.2054560" lon="-8.7150220">
        <ele>10.3</ele>
        <time>2021-05-16T07:15:06Z</time>
      </trkpt>
      <trkpt lat="41.2054710" lon="-8.7150270">
        <ele>10.4</ele>
        <time>2021-05-16T07:15:07Z</time>
      </trkpt>
      <trkpt lat="41.2054860" lon="-8.7150270">
        <ele>10.4</ele>
        <time>2021-05-16T07:15:08Z</time>
      </trkpt>
      <trkpt lat="41.2055010" lon="-8.7150290">
        <ele>10.4</ele>
        <time>2021-05-16T07:15:09Z</time>
      </trkpt>
      <trkpt lat="41.2055140" lon="-8.7150280">
        <ele>10.5</ele>
        <time>2021-05-16T07:15:10Z</time>
      </trkpt>
      <trkpt lat="41.2055280" lon="-8.7150280">
        <ele>10.5</ele>
        <time>2021-05-16T07:15:11Z</time>
      </trkpt>
      <trkpt lat="41.2055420" lon="-8.7150300">
        <ele>10.5</ele>
        <time>2021-05-16T07:15:12Z</time>
      </trkpt>
      <trkpt lat="41.2055560" lon="-8.7150320">
        <ele>10.6</ele>
        <time>2021-05-16T07:15:13Z</time>
      </trkpt>
      <trkpt lat="41.2055700" lon="-8.7150360">
        <ele>10.6</ele>
        <time>2021-05-16T07:15:14Z</time>
      </trkpt>
      <trkpt lat="41.2055830" lon="-8.7150450">
        <ele>10.7</ele>
        <time>2021-05-16T07:15:15Z</time>
      </trkpt>
      <trkpt lat="41.2055990" lon="-8.7150430">
        <ele>10.7</ele>
        <time>2021-05-16T07:15:16Z</time>
      </trkpt>
      <trkpt lat="41.2056150" lon="-8.7150430">
        <ele>10.7</ele>
        <time>2021-05-16T07:15:17Z</time>
      </trkpt>
      <trkpt lat="41.2056290" lon="-8.7150510">
        <ele>10.8</ele>
        <time>2021-05-16T07:15:18Z</time>
      </trkpt>
      <trkpt lat="41.2056450" lon="-8.7150580">
        <ele>10.8</ele>
        <time>2021-05-16T07:15:19Z</time>
      </trkpt>
      <trkpt lat="41.2056610" lon="-8.7150580">
        <ele>10.8</ele>
        <time>2021-05-16T07:15:20Z</time>
      </trkpt>
      <trkpt lat="41.2056740" lon="-8.7150610">
        <ele>10.8</ele>
        <time>2021-05-16T07:15:21Z</time>
      </trkpt>
      <trkpt lat="41.2056880" lon="-8.7150660">
        <ele>10.9</ele>
        <time>2021-05-16T07:15:22Z</time>
      </trkpt>
      <trkpt lat="41.2057010" lon="-8.7150700">
        <ele>10.9</ele>
        <time>2021-05-16T07:15:23Z</time>
      </trkpt>
      <trkpt lat="41.2057190" lon="-8.7150710">
        <ele>10.9</ele>
        <time>2021-05-16T07:15:24Z</time>
      </trkpt>
      <trkpt lat="41.2057340" lon="-8.7150750">
        <ele>10.9</ele>
        <time>2021-05-16T07:15:25Z</time>
      </trkpt>
      <trkpt lat="41.2057500" lon="-8.7150760">
        <ele>10.9</ele>
        <time>2021-05-16T07:15:26Z</time>
      </trkpt>
      <trkpt lat="41.2057620" lon="-8.7150890">
        <ele>11.0</ele>
        <time>2021-05-16T07:15:27Z</time>
      </trkpt>
      <trkpt lat="41.2057740" lon="-8.7151050">
        <ele>11.0</ele>
        <time>2021-05-16T07:15:28Z</time>
      </trkpt>
      <trkpt lat="41.2057890" lon="-8.7151080">
        <ele>11.0</ele>
        <time>2021-05-16T07:15:29Z</time>
      </trkpt>
      <trkpt lat="41.2058050" lon="-8.7151150">
        <ele>11.0</ele>
        <time>2021-05-16T07:15:30Z</time>
      </trkpt>
      <trkpt lat="41.2058210" lon="-8.7151220">
        <ele>11.0</ele>
        <time>2021-05-16T07:15:31Z</time>
      </trkpt>
      <trkpt lat="41.2058380" lon="-8.7151270">
        <ele>11.1</ele>
        <time>2021-05-16T07:15:32Z</time>
      </trkpt>
      <trkpt lat="41.2058510" lon="-8.7151390">
        <ele>11.1</ele>
        <time>2021-05-16T07:15:33Z</time>
      </trkpt>
      <trkpt lat="41.2058660" lon="-8.7151450">
        <ele>11.1</ele>
        <time>2021-05-16T07:15:34Z</time>
      </trkpt>
      <trkpt lat="41.2058820" lon="-8.7151510">
        <ele>11.1</ele>
        <time>2021-05-16T07:15:35Z</time>
      </trkpt>
      <trkpt lat="41.2058960" lon="-8.7151590">
        <ele>11.1</ele>
        <time>2021-05-16T07:15:36Z</time>
      </trkpt>
      <trkpt lat="41.2059100" lon="-8.7151680">
        <ele>11.1</ele>
        <time>2021-05-16T07:15:37Z</time>
      </trkpt>
      <trkpt lat="41.2059270" lon="-8.7151710">
        <ele>11.2</ele>
        <time>2021-05-16T07:15:38Z</time>
      </trkpt>
      <trkpt lat="41.2059420" lon="-8.7151680">
        <ele>11.2</ele>
        <time>2021-05-16T07:15:39Z</time>
      </trkpt>
      <trkpt lat="41.2059560" lon="-8.7151710">
        <ele>11.2</ele>
        <time>2021-05-16T07:15:40Z</time>
      </trkpt>
      <trkpt lat="41.2059690" lon="-8.7151830">
        <ele>11.2</ele>
        <time>2021-05-16T07:15:41Z</time>
      </trkpt>
      <trkpt lat="41.2059860" lon="-8.7151850">
        <ele>11.2</ele>
        <time>2021-05-16T07:15:42Z</time>
      </trkpt>
      <trkpt lat="41.2060010" lon="-8.7151860">
        <ele>11.2</ele>
        <time>2021-05-16T07:15:43Z</time>
      </trkpt>
      <trkpt lat="41.2060150" lon="-8.7151990">
        <ele>11.2</ele>
        <time>2021-05-16T07:15:44Z</time>
      </trkpt>
      <trkpt lat="41.2060300" lon="-8.7152000">
        <ele>11.3</ele>
        <time>2021-05-16T07:15:45Z</time>
      </trkpt>
      <trkpt lat="41.2060460" lon="-8.7152050">
        <ele>11.3</ele>
        <time>2021-05-16T07:15:46Z</time>
      </trkpt>
      <trkpt lat="41.2060630" lon="-8.7152100">
        <ele>11.3</ele>
        <time>2021-05-16T07:15:47Z</time>
      </trkpt>
      <trkpt lat="41.2060770" lon="-8.7152150">
        <ele>11.3</ele>
        <time>2021-05-16T07:15:48Z</time>
      </trkpt>
      <trkpt lat="41.2060930" lon="-8.7152170">
        <ele>11.3</ele>
        <time>2021-05-16T07:15:49Z</time>
      </trkpt>
      <trkpt lat="41.2061090" lon="-8.7152200">
        <ele>11.3</ele>
        <time>2021-05-16T07:15:50Z</time>
      </trkpt>
      <trkpt lat="41.2061230" lon="-8.7152290">
        <ele>11.3</ele>
        <time>2021-05-16T07:15:51Z</time>
      </trkpt>
      <trkpt lat="41.2061380" lon="-8.7152290">
        <ele>11.3</ele>
        <time>2021-05-16T07:15:52Z</time>
      </trkpt>
      <trkpt lat="41.2061520" lon="-8.7152330">
        <ele>11.4</ele>
        <time>2021-05-16T07:15:53Z</time>
      </trkpt>
      <trkpt lat="41.2061680" lon="-8.7152340">
        <ele>11.4</ele>
        <time>2021-05-16T07:15:54Z</time>
      </trkpt>
      <trkpt lat="41.2061820" lon="-8.7152370">
        <ele>11.4</ele>
        <time>2021-05-16T07:15:55Z</time>
      </trkpt>
      <trkpt lat="41.2061980" lon="-8.7152420">
        <ele>11.4</ele>
        <time>2021-05-16T07:15:56Z</time>
      </trkpt>
      <trkpt lat="41.2062110" lon="-8.7152530">
        <ele>11.4</ele>
        <time>2021-05-16T07:15:57Z</time>
      </trkpt>
      <trkpt lat="41.2062260" lon="-8.7152620">
        <ele>11.4</ele>
        <time>2021-05-16T07:15:58Z</time>
      </trkpt>
      <trkpt lat="41.2062410" lon="-8.7152650">
        <ele>11.4</ele>
        <time>2021-05-16T07:15:59Z</time>
      </trkpt>
      <trkpt lat="41.2062550" lon="-8.7152680">
        <ele>11.4</ele>
        <time>2021-05-16T07:16:00Z</time>
      </trkpt>
      <trkpt lat="41.2062690" lon="-8.7152680">
        <ele>11.5</ele>
        <time>2021-05-16T07:16:01Z</time>
      </trkpt>
      <trkpt lat="41.2062830" lon="-8.7152700">
        <ele>11.5</ele>
        <time>2021-05-16T07:16:02Z</time>
      </trkpt>
      <trkpt lat="41.2062970" lon="-8.7152770">
        <ele>11.5</ele>
        <time>2021-05-16T07:16:03Z</time>
      </trkpt>
      <trkpt lat="41.2063130" lon="-8.7152830">
        <ele>11.5</ele>
        <time>2021-05-16T07:16:04Z</time>
      </trkpt>
      <trkpt lat="41.2063260" lon="-8.7152830">
        <ele>11.5</ele>
        <time>2021-05-16T07:16:05Z</time>
      </trkpt>
      <trkpt lat="41.2063420" lon="-8.7152840">
        <ele>11.5</ele>
        <time>2021-05-16T07:16:06Z</time>
      </trkpt>
      <trkpt lat="41.2063590" lon="-8.7152900">
        <ele>11.5</ele>
        <time>2021-05-16T07:16:07Z</time>
      </trkpt>
      <trkpt lat="41.2063740" lon="-8.7152900">
        <ele>11.5</ele>
        <time>2021-05-16T07:16:08Z</time>
      </trkpt>
      <trkpt lat="41.2063970" lon="-8.7152890">
        <ele>11.6</ele>
        <time>2021-05-16T07:16:09Z</time>
      </trkpt>
      <trkpt lat="41.2064070" lon="-8.7152860">
        <ele>11.6</ele>
        <time>2021-05-16T07:16:10Z</time>
      </trkpt>
      <trkpt lat="41.2064170" lon="-8.7152830">
        <ele>11.6</ele>
        <time>2021-05-16T07:16:11Z</time>
      </trkpt>
      <trkpt lat="41.2064320" lon="-8.7152850">
        <ele>11.6</ele>
        <time>2021-05-16T07:16:12Z</time>
      </trkpt>
      <trkpt lat="41.2064450" lon="-8.7152890">
        <ele>11.6</ele>
        <time>2021-05-16T07:16:13Z</time>
      </trkpt>
      <trkpt lat="41.2064570" lon="-8.7152990">
        <ele>11.6</ele>
        <time>2021-05-16T07:16:14Z</time>
      </trkpt>
      <trkpt lat="41.2064690" lon="-8.7153100">
        <ele>11.6</ele>
        <time>2021-05-16T07:16:15Z</time>
      </trkpt>
      <trkpt lat="41.2064840" lon="-8.7153080">
        <ele>11.7</ele>
        <time>2021-05-16T07:16:16Z</time>
      </trkpt>
      <trkpt lat="41.2064980" lon="-8.7153070">
        <ele>11.7</ele>
        <time>2021-05-16T07:16:17Z</time>
      </trkpt>
      <trkpt lat="41.2065140" lon="-8.7153060">
        <ele>11.7</ele>
        <time>2021-05-16T07:16:18Z</time>
      </trkpt>
      <trkpt lat="41.2065310" lon="-8.7153090">
        <ele>11.7</ele>
        <time>2021-05-16T07:16:19Z</time>
      </trkpt>
      <trkpt lat="41.2065460" lon="-8.7153080">
        <ele>11.7</ele>
        <time>2021-05-16T07:16:20Z</time>
      </trkpt>
      <trkpt lat="41.2065600" lon="-8.7153160">
        <ele>11.7</ele>
        <time>2021-05-16T07:16:21Z</time>
      </trkpt>
      <trkpt lat="41.2065760" lon="-8.7153260">
        <ele>11.7</ele>
        <time>2021-05-16T07:16:22Z</time>
      </trkpt>
      <trkpt lat="41.2065900" lon="-8.7153280">
        <ele>11.8</ele>
        <time>2021-05-16T07:16:23Z</time>
      </trkpt>
      <trkpt lat="41.2066050" lon="-8.7153330">
        <ele>11.8</ele>
        <time>2021-05-16T07:16:24Z</time>
      </trkpt>
      <trkpt lat="41.2066210" lon="-8.7153400">
        <ele>11.8</ele>
        <time>2021-05-16T07:16:25Z</time>
      </trkpt>
      <trkpt lat="41.2066330" lon="-8.7153410">
        <ele>11.8</ele>
        <time>2021-05-16T07:16:26Z</time>
      </trkpt>
      <trkpt lat="41.2066480" lon="-8.7153520">
        <ele>11.8</ele>
        <time>2021-05-16T07:16:27Z</time>
      </trkpt>
      <trkpt lat="41.2066640" lon="-8.7153500">
        <ele>11.8</ele>
        <time>2021-05-16T07:16:28Z</time>
      </trkpt>
      <trkpt lat="41.2066770" lon="-8.7153520">
        <ele>11.8</ele>
        <time>2021-05-16T07:16:29Z</time>
      </trkpt>
      <trkpt lat="41.2066930" lon="-8.7153510">
        <ele>11.9</ele>
        <time>2021-05-16T07:16:30Z</time>
      </trkpt>
      <trkpt lat="41.2067070" lon="-8.7153510">
        <ele>11.9</ele>
        <time>2021-05-16T07:16:31Z</time>
      </trkpt>
      <trkpt lat="41.2067230" lon="-8.7153540">
        <ele>11.9</ele>
        <time>2021-05-16T07:16:32Z</time>
      </trkpt>
      <trkpt lat="41.2067350" lon="-8.7153530">
        <ele>11.9</ele>
        <time>2021-05-16T07:16:33Z</time>
      </trkpt>
      <trkpt lat="41.2067480" lon="-8.7153520">
        <ele>11.9</ele>
        <time>2021-05-16T07:16:34Z</time>
      </trkpt>
      <trkpt lat="41.2067630" lon="-8.7153590">
        <ele>11.9</ele>
        <time>2021-05-16T07:16:35Z</time>
      </trkpt>
      <trkpt lat="41.2067810" lon="-8.7153600">
        <ele>11.9</ele>
        <time>2021-05-16T07:16:36Z</time>
      </trkpt>
      <trkpt lat="41.2067950" lon="-8.7153580">
        <ele>12.0</ele>
        <time>2021-05-16T07:16:37Z</time>
      </trkpt>
      <trkpt lat="41.2068110" lon="-8.7153580">
        <ele>12.0</ele>
        <time>2021-05-16T07:16:38Z</time>
      </trkpt>
      <trkpt lat="41.2068240" lon="-8.7153590">
        <ele>12.0</ele>
        <time>2021-05-16T07:16:39Z</time>
      </trkpt>
      <trkpt lat="41.2068480" lon="-8.7153620">
        <ele>12.0</ele>
        <time>2021-05-16T07:16:40Z</time>
      </trkpt>
      <trkpt lat="41.2068580" lon="-8.7153640">
        <ele>12.0</ele>
        <time>2021-05-16T07:16:41Z</time>
      </trkpt>
      <trkpt lat="41.2068690" lon="-8.7153660">
        <ele>12.0</ele>
        <time>2021-05-16T07:16:42Z</time>
      </trkpt>
      <trkpt lat="41.2068840" lon="-8.7153750">
        <ele>12.1</ele>
        <time>2021-05-16T07:16:43Z</time>
      </trkpt>
      <trkpt lat="41.2069000" lon="-8.7153700">
        <ele>12.1</ele>
        <time>2021-05-16T07:16:44Z</time>
      </trkpt>
      <trkpt lat="41.2069170" lon="-8.7153750">
        <ele>12.1</ele>
        <time>2021-05-16T07:16:45Z</time>
      </trkpt>
      <trkpt lat="41.2069330" lon="-8.7153750">
        <ele>12.1</ele>
        <time>2021-05-16T07:16:46Z</time>
      </trkpt>
      <trkpt lat="41.2069490" lon="-8.7153780">
        <ele>12.1</ele>
        <time>2021-05-16T07:16:47Z</time>
      </trkpt>
      <trkpt lat="41.2069660" lon="-8.7153740">
        <ele>12.1</ele>
        <time>2021-05-16T07:16:48Z</time>
      </trkpt>
      <trkpt lat="41.2069780" lon="-8.7153680">
        <ele>12.1</ele>
        <time>2021-05-16T07:16:49Z</time>
      </trkpt>
      <trkpt lat="41.2069950" lon="-8.7153690">
        <ele>12.1</ele>
        <time>2021-05-16T07:16:50Z</time>
      </trkpt>
      <trkpt lat="41.2070070" lon="-8.7153690">
        <ele>12.1</ele>
        <time>2021-05-16T07:16:51Z</time>
      </trkpt>
      <trkpt lat="41.2070170" lon="-8.7153670">
        <ele>12.1</ele>
        <time>2021-05-16T07:16:52Z</time>
      </trkpt>
      <trkpt lat="41.2070300" lon="-8.7153680">
        <ele>12.1</ele>
        <time>2021-05-16T07:16:53Z</time>
      </trkpt>
      <trkpt lat="41.2070430" lon="-8.7153690">
        <ele>12.1</ele>
        <time>2021-05-16T07:16:54Z</time>
      </trkpt>
      <trkpt lat="41.2070570" lon="-8.7153630">
        <ele>12.1</ele>
        <time>2021-05-16T07:16:55Z</time>
      </trkpt>
      <trkpt lat="41.2070700" lon="-8.7153580">
        <ele>12.2</ele>
        <time>2021-05-16T07:16:56Z</time>
      </trkpt>
      <trkpt lat="41.2070850" lon="-8.7153520">
        <ele>12.2</ele>
        <time>2021-05-16T07:16:57Z</time>
      </trkpt>
      <trkpt lat="41.2070910" lon="-8.7153470">
        <ele>12.2</ele>
        <time>2021-05-16T07:16:58Z</time>
      </trkpt>
      <trkpt lat="41.2071050" lon="-8.7153440">
        <ele>12.2</ele>
        <time>2021-05-16T07:16:59Z</time>
      </trkpt>
      <trkpt lat="41.2071170" lon="-8.7153380">
        <ele>12.2</ele>
        <time>2021-05-16T07:17:00Z</time>
      </trkpt>
      <trkpt lat="41.2071400" lon="-8.7153290">
        <ele>12.2</ele>
        <time>2021-05-16T07:17:01Z</time>
      </trkpt>
      <trkpt lat="41.2071500" lon="-8.7153250">
        <ele>12.2</ele>
        <time>2021-05-16T07:17:02Z</time>
      </trkpt>
      <trkpt lat="41.2071590" lon="-8.7153220">
        <ele>12.2</ele>
        <time>2021-05-16T07:17:03Z</time>
      </trkpt>
      <trkpt lat="41.2071840" lon="-8.7153190">
        <ele>12.2</ele>
        <time>2021-05-16T07:17:04Z</time>
      </trkpt>
      <trkpt lat="41.2071930" lon="-8.7153200">
        <ele>12.2</ele>
        <time>2021-05-16T07:17:05Z</time>
      </trkpt>
      <trkpt lat="41.2072030" lon="-8.7153200">
        <ele>12.2</ele>
        <time>2021-05-16T07:17:06Z</time>
      </trkpt>
      <trkpt lat="41.2072160" lon="-8.7153150">
        <ele>12.2</ele>
        <time>2021-05-16T07:17:07Z</time>
      </trkpt>
      <trkpt lat="41.2072330" lon="-8.7153150">
        <ele>12.2</ele>
        <time>2021-05-16T07:17:08Z</time>
      </trkpt>
      <trkpt lat="41.2072500" lon="-8.7153110">
        <ele>12.2</ele>
        <time>2021-05-16T07:17:09Z</time>
      </trkpt>
      <trkpt lat="41.2072670" lon="-8.7153120">
        <ele>12.2</ele>
        <time>2021-05-16T07:17:10Z</time>
      </trkpt>
      <trkpt lat="41.2072850" lon="-8.7153110">
        <ele>12.2</ele>
        <time>2021-05-16T07:17:11Z</time>
      </trkpt>
      <trkpt lat="41.2072990" lon="-8.7153020">
        <ele>12.2</ele>
        <time>2021-05-16T07:17:12Z</time>
      </trkpt>
      <trkpt lat="41.2073160" lon="-8.7153040">
        <ele>12.2</ele>
        <time>2021-05-16T07:17:13Z</time>
      </trkpt>
      <trkpt lat="41.2073350" lon="-8.7152980">
        <ele>12.2</ele>
        <time>2021-05-16T07:17:14Z</time>
      </trkpt>
      <trkpt lat="41.2073490" lon="-8.7153040">
        <ele>12.3</ele>
        <time>2021-05-16T07:17:15Z</time>
      </trkpt>
      <trkpt lat="41.2073660" lon="-8.7153050">
        <ele>12.3</ele>
        <time>2021-05-16T07:17:16Z</time>
      </trkpt>
      <trkpt lat="41.2073800" lon="-8.7153040">
        <ele>12.3</ele>
        <time>2021-05-16T07:17:17Z</time>
      </trkpt>
      <trkpt lat="41.2073940" lon="-8.7152980">
        <ele>12.3</ele>
        <time>2021-05-16T07:17:18Z</time>
      </trkpt>
      <trkpt lat="41.2074170" lon="-8.7152930">
        <ele>12.3</ele>
        <time>2021-05-16T07:17:19Z</time>
      </trkpt>
      <trkpt lat="41.2074260" lon="-8.7152900">
        <ele>12.3</ele>
        <time>2021-05-16T07:17:20Z</time>
      </trkpt>
      <trkpt lat="41.2074360" lon="-8.7152880">
        <ele>12.3</ele>
        <time>2021-05-16T07:17:21Z</time>
      </trkpt>
      <trkpt lat="41.2074470" lon="-8.7152830">
        <ele>12.3</ele>
        <time>2021-05-16T07:17:22Z</time>
      </trkpt>
      <trkpt lat="41.2074560" lon="-8.7152780">
        <ele>12.3</ele>
        <time>2021-05-16T07:17:23Z</time>
      </trkpt>
      <trkpt lat="41.2074690" lon="-8.7152750">
        <ele>12.3</ele>
        <time>2021-05-16T07:17:24Z</time>
      </trkpt>
      <trkpt lat="41.2074860" lon="-8.7152720">
        <ele>12.3</ele>
        <time>2021-05-16T07:17:25Z</time>
      </trkpt>
      <trkpt lat="41.2075000" lon="-8.7152690">
        <ele>12.3</ele>
        <time>2021-05-16T07:17:26Z</time>
      </trkpt>
      <trkpt lat="41.2075160" lon="-8.7152700">
        <ele>12.3</ele>
        <time>2021-05-16T07:17:27Z</time>
      </trkpt>
      <trkpt lat="41.2075320" lon="-8.7152690">
        <ele>12.3</ele>
        <time>2021-05-16T07:17:28Z</time>
      </trkpt>
      <trkpt lat="41.2075490" lon="-8.7152630">
        <ele>12.3</ele>
        <time>2021-05-16T07:17:29Z</time>
      </trkpt>
      <trkpt lat="41.2075650" lon="-8.7152630">
        <ele>12.3</ele>
        <time>2021-05-16T07:17:30Z</time>
      </trkpt>
      <trkpt lat="41.2075800" lon="-8.7152520">
        <ele>12.3</ele>
        <time>2021-05-16T07:17:31Z</time>
      </trkpt>
      <trkpt lat="41.2075930" lon="-8.7152460">
        <ele>12.3</ele>
        <time>2021-05-16T07:17:32Z</time>
      </trkpt>
      <trkpt lat="41.2076090" lon="-8.7152420">
        <ele>12.3</ele>
        <time>2021-05-16T07:17:33Z</time>
      </trkpt>
      <trkpt lat="41.2076230" lon="-8.7152330">
        <ele>12.3</ele>
        <time>2021-05-16T07:17:34Z</time>
      </trkpt>
      <trkpt lat="41.2076460" lon="-8.7152270">
        <ele>12.3</ele>
        <time>2021-05-16T07:17:35Z</time>
      </trkpt>
      <trkpt lat="41.2076560" lon="-8.7152250">
        <ele>12.3</ele>
        <time>2021-05-16T07:17:36Z</time>
      </trkpt>
      <trkpt lat="41.2076650" lon="-8.7152230">
        <ele>12.3</ele>
        <time>2021-05-16T07:17:37Z</time>
      </trkpt>
      <trkpt lat="41.2076820" lon="-8.7152230">
        <ele>12.3</ele>
        <time>2021-05-16T07:17:38Z</time>
      </trkpt>
      <trkpt lat="41.2076970" lon="-8.7152200">
        <ele>12.3</ele>
        <time>2021-05-16T07:17:39Z</time>
      </trkpt>
      <trkpt lat="41.2077110" lon="-8.7152160">
        <ele>12.3</ele>
        <time>2021-05-16T07:17:40Z</time>
      </trkpt>
      <trkpt lat="41.2077290" lon="-8.7152190">
        <ele>12.4</ele>
        <time>2021-05-16T07:17:41Z</time>
      </trkpt>
      <trkpt lat="41.2077410" lon="-8.7152150">
        <ele>12.4</ele>
        <time>2021-05-16T07:17:42Z</time>
      </trkpt>
      <trkpt lat="41.2077580" lon="-8.7152110">
        <ele>12.4</ele>
        <time>2021-05-16T07:17:43Z</time>
      </trkpt>
      <trkpt lat="41.2077730" lon="-8.7152080">
        <ele>12.4</ele>
        <time>2021-05-16T07:17:44Z</time>
      </trkpt>
      <trkpt lat="41.2077860" lon="-8.7152070">
        <ele>12.4</ele>
        <time>2021-05-16T07:17:45Z</time>
      </trkpt>
      <trkpt lat="41.2078020" lon="-8.7151990">
        <ele>12.4</ele>
        <time>2021-05-16T07:17:46Z</time>
      </trkpt>
      <trkpt lat="41.2078130" lon="-8.7151980">
        <ele>12.4</ele>
        <time>2021-05-16T07:17:47Z</time>
      </trkpt>
      <trkpt lat="41.2078300" lon="-8.7151910">
        <ele>12.4</ele>
        <time>2021-05-16T07:17:48Z</time>
      </trkpt>
      <trkpt lat="41.2078460" lon="-8.7151880">
        <ele>12.4</ele>
        <time>2021-05-16T07:17:49Z</time>
      </trkpt>
      <trkpt lat="41.2078620" lon="-8.7151860">
        <ele>12.4</ele>
        <time>2021-05-16T07:17:50Z</time>
      </trkpt>
      <trkpt lat="41.2078780" lon="-8.7151780">
        <ele>12.4</ele>
        <time>2021-05-16T07:17:51Z</time>
      </trkpt>
      <trkpt lat="41.2078920" lon="-8.7151640">
        <ele>12.4</ele>
        <time>2021-05-16T07:17:52Z</time>
      </trkpt>
      <trkpt lat="41.2079060" lon="-8.7151590">
        <ele>12.4</ele>
        <time>2021-05-16T07:17:53Z</time>
      </trkpt>
      <trkpt lat="41.2079190" lon="-8.7151510">
        <ele>12.4</ele>
        <time>2021-05-16T07:17:54Z</time>
      </trkpt>
      <trkpt lat="41.2079350" lon="-8.7151450">
        <ele>12.4</ele>
        <time>2021-05-16T07:17:55Z</time>
      </trkpt>
      <trkpt lat="41.2079490" lon="-8.7151330">
        <ele>12.4</ele>
        <time>2021-05-16T07:17:56Z</time>
      </trkpt>
      <trkpt lat="41.2079650" lon="-8.7151270">
        <ele>12.4</ele>
        <time>2021-05-16T07:17:57Z</time>
      </trkpt>
      <trkpt lat="41.2079780" lon="-8.7151200">
        <ele>12.4</ele>
        <time>2021-05-16T07:17:58Z</time>
      </trkpt>
      <trkpt lat="41.2079920" lon="-8.7151110">
        <ele>12.4</ele>
        <time>2021-05-16T07:17:59Z</time>
      </trkpt>
      <trkpt lat="41.2080070" lon="-8.7151080">
        <ele>12.4</ele>
        <time>2021-05-16T07:18:00Z</time>
      </trkpt>
      <trkpt lat="41.2080210" lon="-8.7150970">
        <ele>12.4</ele>
        <time>2021-05-16T07:18:01Z</time>
      </trkpt>
      <trkpt lat="41.2080350" lon="-8.7150870">
        <ele>12.4</ele>
        <time>2021-05-16T07:18:02Z</time>
      </trkpt>
      <trkpt lat="41.2080500" lon="-8.7150830">
        <ele>12.5</ele>
        <time>2021-05-16T07:18:03Z</time>
      </trkpt>
      <trkpt lat="41.2080620" lon="-8.7150810">
        <ele>12.5</ele>
        <time>2021-05-16T07:18:04Z</time>
      </trkpt>
      <trkpt lat="41.2080760" lon="-8.7150800">
        <ele>12.5</ele>
        <time>2021-05-16T07:18:05Z</time>
      </trkpt>
      <trkpt lat="41.2080860" lon="-8.7150740">
        <ele>12.5</ele>
        <time>2021-05-16T07:18:06Z</time>
      </trkpt>
      <trkpt lat="41.2080910" lon="-8.7150680">
        <ele>12.5</ele>
        <time>2021-05-16T07:18:07Z</time>
      </trkpt>
      <trkpt lat="41.2081090" lon="-8.7150580">
        <ele>12.5</ele>
        <time>2021-05-16T07:18:08Z</time>
      </trkpt>
      <trkpt lat="41.2081160" lon="-8.7150530">
        <ele>12.5</ele>
        <time>2021-05-16T07:18:09Z</time>
      </trkpt>
      <trkpt lat="41.2081360" lon="-8.7150450">
        <ele>12.5</ele>
        <time>2021-05-16T07:18:10Z</time>
      </trkpt>
      <trkpt lat="41.2081460" lon="-8.7150410">
        <ele>12.5</ele>
        <time>2021-05-16T07:18:11Z</time>
      </trkpt>
      <trkpt lat="41.2081570" lon="-8.7150380">
        <ele>12.4</ele>
        <time>2021-05-16T07:18:12Z</time>
      </trkpt>
      <trkpt lat="41.2081720" lon="-8.7150320">
        <ele>12.4</ele>
        <time>2021-05-16T07:18:13Z</time>
      </trkpt>
      <trkpt lat="41.2081880" lon="-8.7150260">
        <ele>12.4</ele>
        <time>2021-05-16T07:18:14Z</time>
      </trkpt>
      <trkpt lat="41.2082050" lon="-8.7150150">
        <ele>12.4</ele>
        <time>2021-05-16T07:18:15Z</time>
      </trkpt>
      <trkpt lat="41.2082190" lon="-8.7150060">
        <ele>12.4</ele>
        <time>2021-05-16T07:18:16Z</time>
      </trkpt>
      <trkpt lat="41.2082310" lon="-8.7149940">
        <ele>12.4</ele>
        <time>2021-05-16T07:18:17Z</time>
      </trkpt>
      <trkpt lat="41.2082440" lon="-8.7149900">
        <ele>12.4</ele>
        <time>2021-05-16T07:18:18Z</time>
      </trkpt>
      <trkpt lat="41.2082600" lon="-8.7149880">
        <ele>12.4</ele>
        <time>2021-05-16T07:18:19Z</time>
      </trkpt>
      <trkpt lat="41.2082720" lon="-8.7149810">
        <ele>12.4</ele>
        <time>2021-05-16T07:18:20Z</time>
      </trkpt>
      <trkpt lat="41.2082870" lon="-8.7149770">
        <ele>12.4</ele>
        <time>2021-05-16T07:18:21Z</time>
      </trkpt>
      <trkpt lat="41.2083000" lon="-8.7149690">
        <ele>12.4</ele>
        <time>2021-05-16T07:18:22Z</time>
      </trkpt>
      <trkpt lat="41.2083140" lon="-8.7149670">
        <ele>12.4</ele>
        <time>2021-05-16T07:18:23Z</time>
      </trkpt>
      <trkpt lat="41.2083280" lon="-8.7149590">
        <ele>12.4</ele>
        <time>2021-05-16T07:18:24Z</time>
      </trkpt>
      <trkpt lat="41.2083430" lon="-8.7149500">
        <ele>12.4</ele>
        <time>2021-05-16T07:18:25Z</time>
      </trkpt>
      <trkpt lat="41.2083580" lon="-8.7149480">
        <ele>12.4</ele>
        <time>2021-05-16T07:18:26Z</time>
      </trkpt>
      <trkpt lat="41.2083720" lon="-8.7149350">
        <ele>12.4</ele>
        <time>2021-05-16T07:18:27Z</time>
      </trkpt>
      <trkpt lat="41.2083870" lon="-8.7149310">
        <ele>12.4</ele>
        <time>2021-05-16T07:18:28Z</time>
      </trkpt>
      <trkpt lat="41.2084060" lon="-8.7149310">
        <ele>12.3</ele>
        <time>2021-05-16T07:18:29Z</time>
      </trkpt>
      <trkpt lat="41.2084200" lon="-8.7149310">
        <ele>12.3</ele>
        <time>2021-05-16T07:18:30Z</time>
      </trkpt>
      <trkpt lat="41.2084380" lon="-8.7149260">
        <ele>12.3</ele>
        <time>2021-05-16T07:18:31Z</time>
      </trkpt>
      <trkpt lat="41.2084520" lon="-8.7149210">
        <ele>12.3</ele>
        <time>2021-05-16T07:18:32Z</time>
      </trkpt>
      <trkpt lat="41.2084670" lon="-8.7149170">
        <ele>12.3</ele>
        <time>2021-05-16T07:18:33Z</time>
      </trkpt>
      <trkpt lat="41.2084810" lon="-8.7149250">
        <ele>12.3</ele>
        <time>2021-05-16T07:18:34Z</time>
      </trkpt>
      <trkpt lat="41.2084950" lon="-8.7149220">
        <ele>12.3</ele>
        <time>2021-05-16T07:18:35Z</time>
      </trkpt>
      <trkpt lat="41.2085090" lon="-8.7149210">
        <ele>12.3</ele>
        <time>2021-05-16T07:18:36Z</time>
      </trkpt>
      <trkpt lat="41.2085230" lon="-8.7149120">
        <ele>12.3</ele>
        <time>2021-05-16T07:18:37Z</time>
      </trkpt>
      <trkpt lat="41.2085390" lon="-8.7149090">
        <ele>12.3</ele>
        <time>2021-05-16T07:18:38Z</time>
      </trkpt>
      <trkpt lat="41.2085600" lon="-8.7149050">
        <ele>12.3</ele>
        <time>2021-05-16T07:18:39Z</time>
      </trkpt>
      <trkpt lat="41.2085690" lon="-8.7149040">
        <ele>12.3</ele>
        <time>2021-05-16T07:18:40Z</time>
      </trkpt>
      <trkpt lat="41.2085770" lon="-8.7149040">
        <ele>12.3</ele>
        <time>2021-05-16T07:18:41Z</time>
      </trkpt>
      <trkpt lat="41.2085930" lon="-8.7148990">
        <ele>12.3</ele>
        <time>2021-05-16T07:18:42Z</time>
      </trkpt>
      <trkpt lat="41.2086060" lon="-8.7148970">
        <ele>12.3</ele>
        <time>2021-05-16T07:18:43Z</time>
      </trkpt>
      <trkpt lat="41.2086200" lon="-8.7148980">
        <ele>12.3</ele>
        <time>2021-05-16T07:18:44Z</time>
      </trkpt>
      <trkpt lat="41.2086310" lon="-8.7148960">
        <ele>12.3</ele>
        <time>2021-05-16T07:18:45Z</time>
      </trkpt>
      <trkpt lat="41.2086410" lon="-8.7148990">
        <ele>12.3</ele>
        <time>2021-05-16T07:18:46Z</time>
      </trkpt>
      <trkpt lat="41.2086580" lon="-8.7148940">
        <ele>12.2</ele>
        <time>2021-05-16T07:18:47Z</time>
      </trkpt>
      <trkpt lat="41.2086720" lon="-8.7148910">
        <ele>12.2</ele>
        <time>2021-05-16T07:18:48Z</time>
      </trkpt>
      <trkpt lat="41.2086870" lon="-8.7149070">
        <ele>12.2</ele>
        <time>2021-05-16T07:18:49Z</time>
      </trkpt>
      <trkpt lat="41.2086980" lon="-8.7149120">
        <ele>12.2</ele>
        <time>2021-05-16T07:18:50Z</time>
      </trkpt>
      <trkpt lat="41.2087170" lon="-8.7149020">
        <ele>12.2</ele>
        <time>2021-05-16T07:18:51Z</time>
      </trkpt>
      <trkpt lat="41.2087250" lon="-8.7148990">
        <ele>12.2</ele>
        <time>2021-05-16T07:18:52Z</time>
      </trkpt>
      <trkpt lat="41.2087340" lon="-8.7148960">
        <ele>12.2</ele>
        <time>2021-05-16T07:18:53Z</time>
      </trkpt>
      <trkpt lat="41.2087660" lon="-8.7148910">
        <ele>12.2</ele>
        <time>2021-05-16T07:18:54Z</time>
      </trkpt>
      <trkpt lat="41.2087740" lon="-8.7148900">
        <ele>12.2</ele>
        <time>2021-05-16T07:18:55Z</time>
      </trkpt>
      <trkpt lat="41.2087950" lon="-8.7148990">
        <ele>12.2</ele>
        <time>2021-05-16T07:18:56Z</time>
      </trkpt>
      <trkpt lat="41.2088060" lon="-8.7149010">
        <ele>12.2</ele>
        <time>2021-05-16T07:18:57Z</time>
      </trkpt>
      <trkpt lat="41.2088160" lon="-8.7149020">
        <ele>12.2</ele>
        <time>2021-05-16T07:18:58Z</time>
      </trkpt>
      <trkpt lat="41.2088430" lon="-8.7148890">
        <ele>12.2</ele>
        <time>2021-05-16T07:18:59Z</time>
      </trkpt>
      <trkpt lat="41.2088520" lon="-8.7148850">
        <ele>12.2</ele>
        <time>2021-05-16T07:19:00Z</time>
      </trkpt>
      <trkpt lat="41.2088670" lon="-8.7148820">
        <ele>12.2</ele>
        <time>2021-05-16T07:19:01Z</time>
      </trkpt>
      <trkpt lat="41.2088810" lon="-8.7148730">
        <ele>12.2</ele>
        <time>2021-05-16T07:19:02Z</time>
      </trkpt>
      <trkpt lat="41.2088980" lon="-8.7148720">
        <ele>12.2</ele>
        <time>2021-05-16T07:19:03Z</time>
      </trkpt>
      <trkpt lat="41.2089110" lon="-8.7148650">
        <ele>12.2</ele>
        <time>2021-05-16T07:19:04Z</time>
      </trkpt>
      <trkpt lat="41.2089240" lon="-8.7148560">
        <ele>12.2</ele>
        <time>2021-05-16T07:19:05Z</time>
      </trkpt>
      <trkpt lat="41.2089340" lon="-8.7148540">
        <ele>12.2</ele>
        <time>2021-05-16T07:19:06Z</time>
      </trkpt>
      <trkpt lat="41.2089460" lon="-8.7148520">
        <ele>12.2</ele>
        <time>2021-05-16T07:19:07Z</time>
      </trkpt>
      <trkpt lat="41.2089580" lon="-8.7148620">
        <ele>12.2</ele>
        <time>2021-05-16T07:19:08Z</time>
      </trkpt>
      <trkpt lat="41.2089720" lon="-8.7148630">
        <ele>12.2</ele>
        <time>2021-05-16T07:19:09Z</time>
      </trkpt>
      <trkpt lat="41.2089740" lon="-8.7148700">
        <ele>12.2</ele>
        <time>2021-05-16T07:19:10Z</time>
      </trkpt>
      <trkpt lat="41.2089740" lon="-8.7148730">
        <ele>12.2</ele>
        <time>2021-05-16T07:19:11Z</time>
      </trkpt>
      <trkpt lat="41.2089730" lon="-8.7148710">
        <ele>12.2</ele>
        <time>2021-05-16T07:19:12Z</time>
      </trkpt>
      <trkpt lat="41.2089720" lon="-8.7148650">
        <ele>12.2</ele>
        <time>2021-05-16T07:19:13Z</time>
      </trkpt>
      <trkpt lat="41.2089800" lon="-8.7148740">
        <ele>12.2</ele>
        <time>2021-05-16T07:19:14Z</time>
      </trkpt>
      <trkpt lat="41.2089890" lon="-8.7148750">
        <ele>12.2</ele>
        <time>2021-05-16T07:19:15Z</time>
      </trkpt>
      <trkpt lat="41.2090080" lon="-8.7148700">
        <ele>12.2</ele>
        <time>2021-05-16T07:19:16Z</time>
      </trkpt>
      <trkpt lat="41.2090250" lon="-8.7148650">
        <ele>12.2</ele>
        <time>2021-05-16T07:19:17Z</time>
      </trkpt>
      <trkpt lat="41.2090420" lon="-8.7148610">
        <ele>12.2</ele>
        <time>2021-05-16T07:19:18Z</time>
      </trkpt>
      <trkpt lat="41.2090520" lon="-8.7148570">
        <ele>12.1</ele>
        <time>2021-05-16T07:19:19Z</time>
      </trkpt>
      <trkpt lat="41.2090670" lon="-8.7148570">
        <ele>12.1</ele>
        <time>2021-05-16T07:19:20Z</time>
      </trkpt>
      <trkpt lat="41.2090770" lon="-8.7148530">
        <ele>12.1</ele>
        <time>2021-05-16T07:19:21Z</time>
      </trkpt>
      <trkpt lat="41.2090880" lon="-8.7148500">
        <ele>12.1</ele>
        <time>2021-05-16T07:19:22Z</time>
      </trkpt>
      <trkpt lat="41.2091070" lon="-8.7148440">
        <ele>12.1</ele>
        <time>2021-05-16T07:19:23Z</time>
      </trkpt>
      <trkpt lat="41.2091210" lon="-8.7148420">
        <ele>12.1</ele>
        <time>2021-05-16T07:19:24Z</time>
      </trkpt>
      <trkpt lat="41.2091390" lon="-8.7148400">
        <ele>12.1</ele>
        <time>2021-05-16T07:19:25Z</time>
      </trkpt>
      <trkpt lat="41.2091570" lon="-8.7148350">
        <ele>12.1</ele>
        <time>2021-05-16T07:19:26Z</time>
      </trkpt>
      <trkpt lat="41.2091710" lon="-8.7148330">
        <ele>12.1</ele>
        <time>2021-05-16T07:19:27Z</time>
      </trkpt>
      <trkpt lat="41.2091860" lon="-8.7148380">
        <ele>12.1</ele>
        <time>2021-05-16T07:19:28Z</time>
      </trkpt>
      <trkpt lat="41.2092010" lon="-8.7148390">
        <ele>12.1</ele>
        <time>2021-05-16T07:19:29Z</time>
      </trkpt>
      <trkpt lat="41.2092190" lon="-8.7148350">
        <ele>12.1</ele>
        <time>2021-05-16T07:19:30Z</time>
      </trkpt>
      <trkpt lat="41.2092340" lon="-8.7148360">
        <ele>12.1</ele>
        <time>2021-05-16T07:19:31Z</time>
      </trkpt>
      <trkpt lat="41.2092520" lon="-8.7148320">
        <ele>12.1</ele>
        <time>2021-05-16T07:19:32Z</time>
      </trkpt>
      <trkpt lat="41.2092670" lon="-8.7148330">
        <ele>12.1</ele>
        <time>2021-05-16T07:19:33Z</time>
      </trkpt>
      <trkpt lat="41.2092850" lon="-8.7148290">
        <ele>12.1</ele>
        <time>2021-05-16T07:19:34Z</time>
      </trkpt>
      <trkpt lat="41.2093000" lon="-8.7148300">
        <ele>12.1</ele>
        <time>2021-05-16T07:19:35Z</time>
      </trkpt>
      <trkpt lat="41.2093150" lon="-8.7148320">
        <ele>12.1</ele>
        <time>2021-05-16T07:19:36Z</time>
      </trkpt>
      <trkpt lat="41.2093290" lon="-8.7148310">
        <ele>12.1</ele>
        <time>2021-05-16T07:19:37Z</time>
      </trkpt>
      <trkpt lat="41.2093410" lon="-8.7148300">
        <ele>12.1</ele>
        <time>2021-05-16T07:19:38Z</time>
      </trkpt>
      <trkpt lat="41.2093580" lon="-8.7148260">
        <ele>12.1</ele>
        <time>2021-05-16T07:19:39Z</time>
      </trkpt>
      <trkpt lat="41.2093720" lon="-8.7148230">
        <ele>12.1</ele>
        <time>2021-05-16T07:19:40Z</time>
      </trkpt>
      <trkpt lat="41.2093860" lon="-8.7148180">
        <ele>12.1</ele>
        <time>2021-05-16T07:19:41Z</time>
      </trkpt>
      <trkpt lat="41.2093990" lon="-8.7148140">
        <ele>12.2</ele>
        <time>2021-05-16T07:19:42Z</time>
      </trkpt>
      <trkpt lat="41.2094150" lon="-8.7148100">
        <ele>12.2</ele>
        <time>2021-05-16T07:19:43Z</time>
      </trkpt>
      <trkpt lat="41.2094300" lon="-8.7148060">
        <ele>12.2</ele>
        <time>2021-05-16T07:19:44Z</time>
      </trkpt>
      <trkpt lat="41.2094430" lon="-8.7147990">
        <ele>12.2</ele>
        <time>2021-05-16T07:19:45Z</time>
      </trkpt>
      <trkpt lat="41.2094580" lon="-8.7147920">
        <ele>12.2</ele>
        <time>2021-05-16T07:19:46Z</time>
      </trkpt>
      <trkpt lat="41.2094730" lon="-8.7147830">
        <ele>12.2</ele>
        <time>2021-05-16T07:19:47Z</time>
      </trkpt>
      <trkpt lat="41.2094860" lon="-8.7147740">
        <ele>12.2</ele>
        <time>2021-05-16T07:19:48Z</time>
      </trkpt>
      <trkpt lat="41.2095010" lon="-8.7147730">
        <ele>12.2</ele>
        <time>2021-05-16T07:19:49Z</time>
      </trkpt>
      <trkpt lat="41.2095140" lon="-8.7147640">
        <ele>12.2</ele>
        <time>2021-05-16T07:19:50Z</time>
      </trkpt>
      <trkpt lat="41.2095280" lon="-8.7147580">
        <ele>12.2</ele>
        <time>2021-05-16T07:19:51Z</time>
      </trkpt>
      <trkpt lat="41.2095450" lon="-8.7147510">
        <ele>12.2</ele>
        <time>2021-05-16T07:19:52Z</time>
      </trkpt>
      <trkpt lat="41.2095580" lon="-8.7147490">
        <ele>12.2</ele>
        <time>2021-05-16T07:19:53Z</time>
      </trkpt>
      <trkpt lat="41.2095730" lon="-8.7147450">
        <ele>12.3</ele>
        <time>2021-05-16T07:19:54Z</time>
      </trkpt>
      <trkpt lat="41.2095850" lon="-8.7147310">
        <ele>12.3</ele>
        <time>2021-05-16T07:19:55Z</time>
      </trkpt>
      <trkpt lat="41.2095980" lon="-8.7147210">
        <ele>12.3</ele>
        <time>2021-05-16T07:19:56Z</time>
      </trkpt>
      <trkpt lat="41.2096130" lon="-8.7147140">
        <ele>12.3</ele>
        <time>2021-05-16T07:19:57Z</time>
      </trkpt>
      <trkpt lat="41.2096300" lon="-8.7147130">
        <ele>12.3</ele>
        <time>2021-05-16T07:19:58Z</time>
      </trkpt>
      <trkpt lat="41.2096450" lon="-8.7147030">
        <ele>12.3</ele>
        <time>2021-05-16T07:19:59Z</time>
      </trkpt>
      <trkpt lat="41.2096600" lon="-8.7146950">
        <ele>12.3</ele>
        <time>2021-05-16T07:20:00Z</time>
      </trkpt>
      <trkpt lat="41.2096730" lon="-8.7146910">
        <ele>12.3</ele>
        <time>2021-05-16T07:20:01Z</time>
      </trkpt>
      <trkpt lat="41.2096970" lon="-8.7146720">
        <ele>12.3</ele>
        <time>2021-05-16T07:20:02Z</time>
      </trkpt>
      <trkpt lat="41.2097040" lon="-8.7146660">
        <ele>12.3</ele>
        <time>2021-05-16T07:20:03Z</time>
      </trkpt>
      <trkpt lat="41.2097180" lon="-8.7146550">
        <ele>12.3</ele>
        <time>2021-05-16T07:20:04Z</time>
      </trkpt>
      <trkpt lat="41.2097330" lon="-8.7146500">
        <ele>12.3</ele>
        <time>2021-05-16T07:20:05Z</time>
      </trkpt>
      <trkpt lat="41.2097540" lon="-8.7146370">
        <ele>12.3</ele>
        <time>2021-05-16T07:20:06Z</time>
      </trkpt>
      <trkpt lat="41.2097640" lon="-8.7146320">
        <ele>12.3</ele>
        <time>2021-05-16T07:20:07Z</time>
      </trkpt>
      <trkpt lat="41.2097730" lon="-8.7146270">
        <ele>12.3</ele>
        <time>2021-05-16T07:20:08Z</time>
      </trkpt>
      <trkpt lat="41.2097860" lon="-8.7146190">
        <ele>12.3</ele>
        <time>2021-05-16T07:20:09Z</time>
      </trkpt>
      <trkpt lat="41.2098030" lon="-8.7146140">
        <ele>12.3</ele>
        <time>2021-05-16T07:20:10Z</time>
      </trkpt>
      <trkpt lat="41.2098180" lon="-8.7146170">
        <ele>12.3</ele>
        <time>2021-05-16T07:20:11Z</time>
      </trkpt>
      <trkpt lat="41.2098330" lon="-8.7146090">
        <ele>12.3</ele>
        <time>2021-05-16T07:20:12Z</time>
      </trkpt>
      <trkpt lat="41.2098470" lon="-8.7146050">
        <ele>12.4</ele>
        <time>2021-05-16T07:20:13Z</time>
      </trkpt>
      <trkpt lat="41.2098620" lon="-8.7146040">
        <ele>12.4</ele>
        <time>2021-05-16T07:20:14Z</time>
      </trkpt>
      <trkpt lat="41.2098770" lon="-8.7146010">
        <ele>12.4</ele>
        <time>2021-05-16T07:20:15Z</time>
      </trkpt>
      <trkpt lat="41.2098910" lon="-8.7146020">
        <ele>12.4</ele>
        <time>2021-05-16T07:20:16Z</time>
      </trkpt>
      <trkpt lat="41.2099070" lon="-8.7145940">
        <ele>12.4</ele>
        <time>2021-05-16T07:20:17Z</time>
      </trkpt>
      <trkpt lat="41.2099190" lon="-8.7145860">
        <ele>12.4</ele>
        <time>2021-05-16T07:20:18Z</time>
      </trkpt>
      <trkpt lat="41.2099330" lon="-8.7145770">
        <ele>12.4</ele>
        <time>2021-05-16T07:20:19Z</time>
      </trkpt>
      <trkpt lat="41.2099480" lon="-8.7145740">
        <ele>12.4</ele>
        <time>2021-05-16T07:20:20Z</time>
      </trkpt>
      <trkpt lat="41.2099600" lon="-8.7145670">
        <ele>12.4</ele>
        <time>2021-05-16T07:20:21Z</time>
      </trkpt>
      <trkpt lat="41.2099740" lon="-8.7145600">
        <ele>12.4</ele>
        <time>2021-05-16T07:20:22Z</time>
      </trkpt>
      <trkpt lat="41.2099880" lon="-8.7145590">
        <ele>12.4</ele>
        <time>2021-05-16T07:20:23Z</time>
      </trkpt>
      <trkpt lat="41.2100030" lon="-8.7145560">
        <ele>12.4</ele>
        <time>2021-05-16T07:20:24Z</time>
      </trkpt>
      <trkpt lat="41.2100160" lon="-8.7145560">
        <ele>12.4</ele>
        <time>2021-05-16T07:20:25Z</time>
      </trkpt>
      <trkpt lat="41.2100320" lon="-8.7145600">
        <ele>12.4</ele>
        <time>2021-05-16T07:20:26Z</time>
      </trkpt>
      <trkpt lat="41.2100470" lon="-8.7145610">
        <ele>12.4</ele>
        <time>2021-05-16T07:20:27Z</time>
      </trkpt>
      <trkpt lat="41.2100620" lon="-8.7145570">
        <ele>12.4</ele>
        <time>2021-05-16T07:20:28Z</time>
      </trkpt>
      <trkpt lat="41.2100760" lon="-8.7145580">
        <ele>12.4</ele>
        <time>2021-05-16T07:20:29Z</time>
      </trkpt>
      <trkpt lat="41.2100910" lon="-8.7145600">
        <ele>12.4</ele>
        <time>2021-05-16T07:20:30Z</time>
      </trkpt>
      <trkpt lat="41.2101060" lon="-8.7145650">
        <ele>12.4</ele>
        <time>2021-05-16T07:20:31Z</time>
      </trkpt>
      <trkpt lat="41.2101190" lon="-8.7145690">
        <ele>12.3</ele>
        <time>2021-05-16T07:20:32Z</time>
      </trkpt>
      <trkpt lat="41.2101370" lon="-8.7145690">
        <ele>12.3</ele>
        <time>2021-05-16T07:20:33Z</time>
      </trkpt>
      <trkpt lat="41.2101520" lon="-8.7145700">
        <ele>12.2</ele>
        <time>2021-05-16T07:20:34Z</time>
      </trkpt>
      <trkpt lat="41.2101660" lon="-8.7145700">
        <ele>12.2</ele>
        <time>2021-05-16T07:20:35Z</time>
      </trkpt>
      <trkpt lat="41.2101810" lon="-8.7145800">
        <ele>12.1</ele>
        <time>2021-05-16T07:20:36Z</time>
      </trkpt>
      <trkpt lat="41.2101900" lon="-8.7146190">
        <ele>12.0</ele>
        <time>2021-05-16T07:20:37Z</time>
      </trkpt>
      <trkpt lat="41.2101900" lon="-8.7146330">
        <ele>12.0</ele>
        <time>2021-05-16T07:20:38Z</time>
      </trkpt>
      <trkpt lat="41.2101880" lon="-8.7146570">
        <ele>11.9</ele>
        <time>2021-05-16T07:20:39Z</time>
      </trkpt>
      <trkpt lat="41.2101910" lon="-8.7146780">
        <ele>11.9</ele>
        <time>2021-05-16T07:20:40Z</time>
      </trkpt>
      <trkpt lat="41.2101940" lon="-8.7146950">
        <ele>11.8</ele>
        <time>2021-05-16T07:20:41Z</time>
      </trkpt>
      <trkpt lat="41.2101960" lon="-8.7147090">
        <ele>11.8</ele>
        <time>2021-05-16T07:20:42Z</time>
      </trkpt>
      <trkpt lat="41.2102010" lon="-8.7147200">
        <ele>11.7</ele>
        <time>2021-05-16T07:20:43Z</time>
      </trkpt>
      <trkpt lat="41.2102060" lon="-8.7147190">
        <ele>11.7</ele>
        <time>2021-05-16T07:20:44Z</time>
      </trkpt>
      <trkpt lat="41.2102170" lon="-8.7147150">
        <ele>11.7</ele>
        <time>2021-05-16T07:20:45Z</time>
      </trkpt>
      <trkpt lat="41.2102320" lon="-8.7147150">
        <ele>11.6</ele>
        <time>2021-05-16T07:20:46Z</time>
      </trkpt>
      <trkpt lat="41.2102490" lon="-8.7147210">
        <ele>11.6</ele>
        <time>2021-05-16T07:20:47Z</time>
      </trkpt>
      <trkpt lat="41.2102570" lon="-8.7147220">
        <ele>11.5</ele>
        <time>2021-05-16T07:20:48Z</time>
      </trkpt>
      <trkpt lat="41.2102640" lon="-8.7147240">
        <ele>11.5</ele>
        <time>2021-05-16T07:20:49Z</time>
      </trkpt>
      <trkpt lat="41.2102710" lon="-8.7147250">
        <ele>11.5</ele>
        <time>2021-05-16T07:20:50Z</time>
      </trkpt>
      <trkpt lat="41.2102930" lon="-8.7147280">
        <ele>11.4</ele>
        <time>2021-05-16T07:20:51Z</time>
      </trkpt>
      <trkpt lat="41.2103000" lon="-8.7147300">
        <ele>11.4</ele>
        <time>2021-05-16T07:20:52Z</time>
      </trkpt>
      <trkpt lat="41.2103080" lon="-8.7147310">
        <ele>11.3</ele>
        <time>2021-05-16T07:20:53Z</time>
      </trkpt>
      <trkpt lat="41.2103260" lon="-8.7147360">
        <ele>11.3</ele>
        <time>2021-05-16T07:20:54Z</time>
      </trkpt>
      <trkpt lat="41.2103390" lon="-8.7147360">
        <ele>11.2</ele>
        <time>2021-05-16T07:20:55Z</time>
      </trkpt>
      <trkpt lat="41.2103560" lon="-8.7147350">
        <ele>11.2</ele>
        <time>2021-05-16T07:20:56Z</time>
      </trkpt>
      <trkpt lat="41.2103680" lon="-8.7147330">
        <ele>11.3</ele>
        <time>2021-05-16T07:20:57Z</time>
      </trkpt>
      <trkpt lat="41.2103810" lon="-8.7147310">
        <ele>11.3</ele>
        <time>2021-05-16T07:20:58Z</time>
      </trkpt>
      <trkpt lat="41.2103950" lon="-8.7147320">
        <ele>11.3</ele>
        <time>2021-05-16T07:20:59Z</time>
      </trkpt>
      <trkpt lat="41.2104190" lon="-8.7147270">
        <ele>11.3</ele>
        <time>2021-05-16T07:21:00Z</time>
      </trkpt>
      <trkpt lat="41.2104260" lon="-8.7147270">
        <ele>11.3</ele>
        <time>2021-05-16T07:21:01Z</time>
      </trkpt>
      <trkpt lat="41.2104320" lon="-8.7147280">
        <ele>11.3</ele>
        <time>2021-05-16T07:21:02Z</time>
      </trkpt>
      <trkpt lat="41.2104440" lon="-8.7147280">
        <ele>11.3</ele>
        <time>2021-05-16T07:21:03Z</time>
      </trkpt>
      <trkpt lat="41.2104550" lon="-8.7147290">
        <ele>11.3</ele>
        <time>2021-05-16T07:21:04Z</time>
      </trkpt>
      <trkpt lat="41.2104660" lon="-8.7147230">
        <ele>11.3</ele>
        <time>2021-05-16T07:21:05Z</time>
      </trkpt>
      <trkpt lat="41.2104660" lon="-8.7147190">
        <ele>11.3</ele>
        <time>2021-05-16T07:21:06Z</time>
      </trkpt>
      <trkpt lat="41.2104620" lon="-8.7147210">
        <ele>11.3</ele>
        <time>2021-05-16T07:21:07Z</time>
      </trkpt>
      <trkpt lat="41.2104630" lon="-8.7147210">
        <ele>11.3</ele>
        <time>2021-05-16T07:21:08Z</time>
      </trkpt>
      <trkpt lat="41.2104640" lon="-8.7147240">
        <ele>11.3</ele>
        <time>2021-05-16T07:21:09Z</time>
      </trkpt>
      <trkpt lat="41.2104650" lon="-8.7147250">
        <ele>11.3</ele>
        <time>2021-05-16T07:21:10Z</time>
      </trkpt>
      <trkpt lat="41.2104680" lon="-8.7147270">
        <ele>11.3</ele>
        <time>2021-05-16T07:21:11Z</time>
      </trkpt>
      <trkpt lat="41.2104700" lon="-8.7147220">
        <ele>11.3</ele>
        <time>2021-05-16T07:21:12Z</time>
      </trkpt>
      <trkpt lat="41.2104710" lon="-8.7147200">
        <ele>11.3</ele>
        <time>2021-05-16T07:21:13Z</time>
      </trkpt>
      <trkpt lat="41.2104740" lon="-8.7147200">
        <ele>11.3</ele>
        <time>2021-05-16T07:21:14Z</time>
      </trkpt>
      <trkpt lat="41.2104750" lon="-8.7147200">
        <ele>11.3</ele>
        <time>2021-05-16T07:21:15Z</time>
      </trkpt>
      <trkpt lat="41.2104780" lon="-8.7147180">
        <ele>11.3</ele>
        <time>2021-05-16T07:21:16Z</time>
      </trkpt>
      <trkpt lat="41.2104810" lon="-8.7147180">
        <ele>11.3</ele>
        <time>2021-05-16T07:21:17Z</time>
      </trkpt>
      <trkpt lat="41.2104870" lon="-8.7147170">
        <ele>11.3</ele>
        <time>2021-05-16T07:21:18Z</time>
      </trkpt>
      <trkpt lat="41.2104900" lon="-8.7147150">
        <ele>11.3</ele>
        <time>2021-05-16T07:21:19Z</time>
      </trkpt>
      <trkpt lat="41.2104920" lon="-8.7147130">
        <ele>11.3</ele>
        <time>2021-05-16T07:21:20Z</time>
      </trkpt>
      <trkpt lat="41.2104920" lon="-8.7147100">
        <ele>11.3</ele>
        <time>2021-05-16T07:21:21Z</time>
      </trkpt>
      <trkpt lat="41.2105050" lon="-8.7147090">
        <ele>11.3</ele>
        <time>2021-05-16T07:21:22Z</time>
      </trkpt>
      <trkpt lat="41.2105090" lon="-8.7147090">
        <ele>11.3</ele>
        <time>2021-05-16T07:21:23Z</time>
      </trkpt>
      <trkpt lat="41.2105120" lon="-8.7147090">
        <ele>11.3</ele>
        <time>2021-05-16T07:21:24Z</time>
      </trkpt>
      <trkpt lat="41.2105160" lon="-8.7147090">
        <ele>11.3</ele>
        <time>2021-05-16T07:21:25Z</time>
      </trkpt>
      <trkpt lat="41.2105200" lon="-8.7147090">
        <ele>11.3</ele>
        <time>2021-05-16T07:21:26Z</time>
      </trkpt>
      <trkpt lat="41.2105240" lon="-8.7147090">
        <ele>11.3</ele>
        <time>2021-05-16T07:21:27Z</time>
      </trkpt>
      <trkpt lat="41.2105270" lon="-8.7147080">
        <ele>11.3</ele>
        <time>2021-05-16T07:21:28Z</time>
      </trkpt>
      <trkpt lat="41.2105310" lon="-8.7147080">
        <ele>11.3</ele>
        <time>2021-05-16T07:21:29Z</time>
      </trkpt>
      <trkpt lat="41.2105350" lon="-8.7147080">
        <ele>11.3</ele>
        <time>2021-05-16T07:21:30Z</time>
      </trkpt>
      <trkpt lat="41.2105390" lon="-8.7147080">
        <ele>11.3</ele>
        <time>2021-05-16T07:21:31Z</time>
      </trkpt>
      <trkpt lat="41.2105420" lon="-8.7147080">
        <ele>11.3</ele>
        <time>2021-05-16T07:21:32Z</time>
      </trkpt>
      <trkpt lat="41.2105460" lon="-8.7147080">
        <ele>11.3</ele>
        <time>2021-05-16T07:21:33Z</time>
      </trkpt>
      <trkpt lat="41.2105500" lon="-8.7147080">
        <ele>11.3</ele>
        <time>2021-05-16T07:21:34Z</time>
      </trkpt>
      <trkpt lat="41.2105610" lon="-8.7147000">
        <ele>11.4</ele>
        <time>2021-05-16T07:21:35Z</time>
      </trkpt>
      <trkpt lat="41.2105730" lon="-8.7146970">
        <ele>11.4</ele>
        <time>2021-05-16T07:21:36Z</time>
      </trkpt>
      <trkpt lat="41.2105800" lon="-8.7146930">
        <ele>11.4</ele>
        <time>2021-05-16T07:21:37Z</time>
      </trkpt>
      <trkpt lat="41.2105960" lon="-8.7146950">
        <ele>11.4</ele>
        <time>2021-05-16T07:21:38Z</time>
      </trkpt>
      <trkpt lat="41.2106070" lon="-8.7146930">
        <ele>11.4</ele>
        <time>2021-05-16T07:21:39Z</time>
      </trkpt>
      <trkpt lat="41.2106190" lon="-8.7146900">
        <ele>11.4</ele>
        <time>2021-05-16T07:21:40Z</time>
      </trkpt>
      <trkpt lat="41.2106400" lon="-8.7146890">
        <ele>11.4</ele>
        <time>2021-05-16T07:21:41Z</time>
      </trkpt>
      <trkpt lat="41.2106490" lon="-8.7146850">
        <ele>11.4</ele>
        <time>2021-05-16T07:21:42Z</time>
      </trkpt>
      <trkpt lat="41.2106620" lon="-8.7146800">
        <ele>11.4</ele>
        <time>2021-05-16T07:21:43Z</time>
      </trkpt>
      <trkpt lat="41.2106670" lon="-8.7146790">
        <ele>11.4</ele>
        <time>2021-05-16T07:21:44Z</time>
      </trkpt>
      <trkpt lat="41.2106840" lon="-8.7146770">
        <ele>11.4</ele>
        <time>2021-05-16T07:21:45Z</time>
      </trkpt>
      <trkpt lat="41.2106990" lon="-8.7146740">
        <ele>11.4</ele>
        <time>2021-05-16T07:21:46Z</time>
      </trkpt>
      <trkpt lat="41.2107120" lon="-8.7146720">
        <ele>11.4</ele>
        <time>2021-05-16T07:21:47Z</time>
      </trkpt>
      <trkpt lat="41.2107320" lon="-8.7146660">
        <ele>11.4</ele>
        <time>2021-05-16T07:21:48Z</time>
      </trkpt>
      <trkpt lat="41.2107460" lon="-8.7146640">
        <ele>11.4</ele>
        <time>2021-05-16T07:21:49Z</time>
      </trkpt>
      <trkpt lat="41.2107680" lon="-8.7146630">
        <ele>11.4</ele>
        <time>2021-05-16T07:21:50Z</time>
      </trkpt>
      <trkpt lat="41.2107760" lon="-8.7146640">
        <ele>11.5</ele>
        <time>2021-05-16T07:21:51Z</time>
      </trkpt>
      <trkpt lat="41.2107830" lon="-8.7146650">
        <ele>11.5</ele>
        <time>2021-05-16T07:21:52Z</time>
      </trkpt>
      <trkpt lat="41.2108040" lon="-8.7146670">
        <ele>11.5</ele>
        <time>2021-05-16T07:21:53Z</time>
      </trkpt>
      <trkpt lat="41.2108140" lon="-8.7146680">
        <ele>11.5</ele>
        <time>2021-05-16T07:21:54Z</time>
      </trkpt>
      <trkpt lat="41.2108250" lon="-8.7146680">
        <ele>11.5</ele>
        <time>2021-05-16T07:21:55Z</time>
      </trkpt>
      <trkpt lat="41.2108420" lon="-8.7146650">
        <ele>11.5</ele>
        <time>2021-05-16T07:21:56Z</time>
      </trkpt>
      <trkpt lat="41.2108540" lon="-8.7146640">
        <ele>11.5</ele>
        <time>2021-05-16T07:21:57Z</time>
      </trkpt>
      <trkpt lat="41.2108710" lon="-8.7146580">
        <ele>11.5</ele>
        <time>2021-05-16T07:21:58Z</time>
      </trkpt>
      <trkpt lat="41.2108840" lon="-8.7146610">
        <ele>11.5</ele>
        <time>2021-05-16T07:21:59Z</time>
      </trkpt>
      <trkpt lat="41.2109020" lon="-8.7146530">
        <ele>11.5</ele>
        <time>2021-05-16T07:22:00Z</time>
      </trkpt>
      <trkpt lat="41.2109110" lon="-8.7146540">
        <ele>11.5</ele>
        <time>2021-05-16T07:22:01Z</time>
      </trkpt>
      <trkpt lat="41.2109360" lon="-8.7146470">
        <ele>11.6</ele>
        <time>2021-05-16T07:22:02Z</time>
      </trkpt>
      <trkpt lat="41.2109470" lon="-8.7146450">
        <ele>11.6</ele>
        <time>2021-05-16T07:22:03Z</time>
      </trkpt>
      <trkpt lat="41.2109600" lon="-8.7146450">
        <ele>11.6</ele>
        <time>2021-05-16T07:22:04Z</time>
      </trkpt>
      <trkpt lat="41.2109750" lon="-8.7146450">
        <ele>11.6</ele>
        <time>2021-05-16T07:22:05Z</time>
      </trkpt>
      <trkpt lat="41.2109880" lon="-8.7146410">
        <ele>11.6</ele>
        <time>2021-05-16T07:22:06Z</time>
      </trkpt>
      <trkpt lat="41.2110060" lon="-8.7146420">
        <ele>11.6</ele>
        <time>2021-05-16T07:22:07Z</time>
      </trkpt>
      <trkpt lat="41.2110220" lon="-8.7146390">
        <ele>11.6</ele>
        <time>2021-05-16T07:22:08Z</time>
      </trkpt>
      <trkpt lat="41.2110360" lon="-8.7146360">
        <ele>11.6</ele>
        <time>2021-05-16T07:22:09Z</time>
      </trkpt>
      <trkpt lat="41.2110470" lon="-8.7146320">
        <ele>11.6</ele>
        <time>2021-05-16T07:22:10Z</time>
      </trkpt>
      <trkpt lat="41.2110630" lon="-8.7146300">
        <ele>11.6</ele>
        <time>2021-05-16T07:22:11Z</time>
      </trkpt>
      <trkpt lat="41.2110790" lon="-8.7146300">
        <ele>11.6</ele>
        <time>2021-05-16T07:22:12Z</time>
      </trkpt>
      <trkpt lat="41.2110940" lon="-8.7146300">
        <ele>11.6</ele>
        <time>2021-05-16T07:22:13Z</time>
      </trkpt>
      <trkpt lat="41.2111080" lon="-8.7146270">
        <ele>11.7</ele>
        <time>2021-05-16T07:22:14Z</time>
      </trkpt>
      <trkpt lat="41.2111240" lon="-8.7146250">
        <ele>11.7</ele>
        <time>2021-05-16T07:22:15Z</time>
      </trkpt>
      <trkpt lat="41.2111390" lon="-8.7146250">
        <ele>11.7</ele>
        <time>2021-05-16T07:22:16Z</time>
      </trkpt>
      <trkpt lat="41.2111560" lon="-8.7146230">
        <ele>11.7</ele>
        <time>2021-05-16T07:22:17Z</time>
      </trkpt>
      <trkpt lat="41.2111710" lon="-8.7146280">
        <ele>11.7</ele>
        <time>2021-05-16T07:22:18Z</time>
      </trkpt>
      <trkpt lat="41.2111870" lon="-8.7146270">
        <ele>11.7</ele>
        <time>2021-05-16T07:22:19Z</time>
      </trkpt>
      <trkpt lat="41.2111960" lon="-8.7146210">
        <ele>11.7</ele>
        <time>2021-05-16T07:22:20Z</time>
      </trkpt>
      <trkpt lat="41.2112170" lon="-8.7146160">
        <ele>11.7</ele>
        <time>2021-05-16T07:22:21Z</time>
      </trkpt>
      <trkpt lat="41.2112370" lon="-8.7146140">
        <ele>11.7</ele>
        <time>2021-05-16T07:22:22Z</time>
      </trkpt>
      <trkpt lat="41.2112530" lon="-8.7146140">
        <ele>11.7</ele>
        <time>2021-05-16T07:22:23Z</time>
      </trkpt>
      <trkpt lat="41.2112760" lon="-8.7146050">
        <ele>11.8</ele>
        <time>2021-05-16T07:22:24Z</time>
      </trkpt>
      <trkpt lat="41.2112860" lon="-8.7146050">
        <ele>11.8</ele>
        <time>2021-05-16T07:22:25Z</time>
      </trkpt>
      <trkpt lat="41.2112950" lon="-8.7146040">
        <ele>11.8</ele>
        <time>2021-05-16T07:22:26Z</time>
      </trkpt>
      <trkpt lat="41.2113050" lon="-8.7146030">
        <ele>11.8</ele>
        <time>2021-05-16T07:22:27Z</time>
      </trkpt>
      <trkpt lat="41.2113220" lon="-8.7145980">
        <ele>11.8</ele>
        <time>2021-05-16T07:22:28Z</time>
      </trkpt>
      <trkpt lat="41.2113380" lon="-8.7145930">
        <ele>11.8</ele>
        <time>2021-05-16T07:22:29Z</time>
      </trkpt>
      <trkpt lat="41.2113530" lon="-8.7145910">
        <ele>11.8</ele>
        <time>2021-05-16T07:22:30Z</time>
      </trkpt>
      <trkpt lat="41.2113710" lon="-8.7145880">
        <ele>11.8</ele>
        <time>2021-05-16T07:22:31Z</time>
      </trkpt>
      <trkpt lat="41.2113870" lon="-8.7145900">
        <ele>11.8</ele>
        <time>2021-05-16T07:22:32Z</time>
      </trkpt>
      <trkpt lat="41.2114010" lon="-8.7145870">
        <ele>11.9</ele>
        <time>2021-05-16T07:22:33Z</time>
      </trkpt>
      <trkpt lat="41.2114130" lon="-8.7145830">
        <ele>11.9</ele>
        <time>2021-05-16T07:22:34Z</time>
      </trkpt>
      <trkpt lat="41.2114290" lon="-8.7145810">
        <ele>11.9</ele>
        <time>2021-05-16T07:22:35Z</time>
      </trkpt>
      <trkpt lat="41.2114410" lon="-8.7145880">
        <ele>11.9</ele>
        <time>2021-05-16T07:22:36Z</time>
      </trkpt>
      <trkpt lat="41.2114580" lon="-8.7145830">
        <ele>11.9</ele>
        <time>2021-05-16T07:22:37Z</time>
      </trkpt>
      <trkpt lat="41.2114700" lon="-8.7145840">
        <ele>11.9</ele>
        <time>2021-05-16T07:22:38Z</time>
      </trkpt>
      <trkpt lat="41.2114940" lon="-8.7145860">
        <ele>11.9</ele>
        <time>2021-05-16T07:22:39Z</time>
      </trkpt>
      <trkpt lat="41.2115030" lon="-8.7145850">
        <ele>11.9</ele>
        <time>2021-05-16T07:22:40Z</time>
      </trkpt>
      <trkpt lat="41.2115110" lon="-8.7145830">
        <ele>11.9</ele>
        <time>2021-05-16T07:22:41Z</time>
      </trkpt>
      <trkpt lat="41.2115390" lon="-8.7145810">
        <ele>12.0</ele>
        <time>2021-05-16T07:22:42Z</time>
      </trkpt>
      <trkpt lat="41.2115470" lon="-8.7145780">
        <ele>12.0</ele>
        <time>2021-05-16T07:22:43Z</time>
      </trkpt>
      <trkpt lat="41.2115650" lon="-8.7145760">
        <ele>12.0</ele>
        <time>2021-05-16T07:22:44Z</time>
      </trkpt>
      <trkpt lat="41.2115770" lon="-8.7145670">
        <ele>12.0</ele>
        <time>2021-05-16T07:22:45Z</time>
      </trkpt>
      <trkpt lat="41.2115910" lon="-8.7145650">
        <ele>12.0</ele>
        <time>2021-05-16T07:22:46Z</time>
      </trkpt>
      <trkpt lat="41.2116070" lon="-8.7145630">
        <ele>12.0</ele>
        <time>2021-05-16T07:22:47Z</time>
      </trkpt>
      <trkpt lat="41.2116240" lon="-8.7145610">
        <ele>12.0</ele>
        <time>2021-05-16T07:22:48Z</time>
      </trkpt>
      <trkpt lat="41.2116430" lon="-8.7145590">
        <ele>12.0</ele>
        <time>2021-05-16T07:22:49Z</time>
      </trkpt>
      <trkpt lat="41.2116690" lon="-8.7145500">
        <ele>12.0</ele>
        <time>2021-05-16T07:22:50Z</time>
      </trkpt>
      <trkpt lat="41.2116790" lon="-8.7145490">
        <ele>12.0</ele>
        <time>2021-05-16T07:22:51Z</time>
      </trkpt>
      <trkpt lat="41.2116880" lon="-8.7145470">
        <ele>12.0</ele>
        <time>2021-05-16T07:22:52Z</time>
      </trkpt>
      <trkpt lat="41.2117020" lon="-8.7145500">
        <ele>12.0</ele>
        <time>2021-05-16T07:22:53Z</time>
      </trkpt>
      <trkpt lat="41.2117230" lon="-8.7145420">
        <ele>12.0</ele>
        <time>2021-05-16T07:22:54Z</time>
      </trkpt>
      <trkpt lat="41.2117440" lon="-8.7145390">
        <ele>12.0</ele>
        <time>2021-05-16T07:22:55Z</time>
      </trkpt>
      <trkpt lat="41.2117520" lon="-8.7145380">
        <ele>12.0</ele>
        <time>2021-05-16T07:22:56Z</time>
      </trkpt>
      <trkpt lat="41.2117610" lon="-8.7145370">
        <ele>12.0</ele>
        <time>2021-05-16T07:22:57Z</time>
      </trkpt>
      <trkpt lat="41.2117780" lon="-8.7145340">
        <ele>12.0</ele>
        <time>2021-05-16T07:22:58Z</time>
      </trkpt>
      <trkpt lat="41.2117900" lon="-8.7145280">
        <ele>12.0</ele>
        <time>2021-05-16T07:22:59Z</time>
      </trkpt>
      <trkpt lat="41.2118030" lon="-8.7145270">
        <ele>12.0</ele>
        <time>2021-05-16T07:23:00Z</time>
      </trkpt>
      <trkpt lat="41.2118210" lon="-8.7145290">
        <ele>12.0</ele>
        <time>2021-05-16T07:23:01Z</time>
      </trkpt>
      <trkpt lat="41.2118440" lon="-8.7145290">
        <ele>12.0</ele>
        <time>2021-05-16T07:23:02Z</time>
      </trkpt>
      <trkpt lat="41.2118530" lon="-8.7145270">
        <ele>12.0</ele>
        <time>2021-05-16T07:23:03Z</time>
      </trkpt>
      <trkpt lat="41.2118630" lon="-8.7145260">
        <ele>12.0</ele>
        <time>2021-05-16T07:23:04Z</time>
      </trkpt>
      <trkpt lat="41.2118730" lon="-8.7145250">
        <ele>12.0</ele>
        <time>2021-05-16T07:23:05Z</time>
      </trkpt>
      <trkpt lat="41.2118910" lon="-8.7145170">
        <ele>12.1</ele>
        <time>2021-05-16T07:23:06Z</time>
      </trkpt>
      <trkpt lat="41.2119060" lon="-8.7145190">
        <ele>12.1</ele>
        <time>2021-05-16T07:23:07Z</time>
      </trkpt>
      <trkpt lat="41.2119200" lon="-8.7145200">
        <ele>12.1</ele>
        <time>2021-05-16T07:23:08Z</time>
      </trkpt>
      <trkpt lat="41.2119330" lon="-8.7145150">
        <ele>12.1</ele>
        <time>2021-05-16T07:23:09Z</time>
      </trkpt>
      <trkpt lat="41.2119490" lon="-8.7145050">
        <ele>12.1</ele>
        <time>2021-05-16T07:23:10Z</time>
      </trkpt>
      <trkpt lat="41.2119610" lon="-8.7145020">
        <ele>12.1</ele>
        <time>2021-05-16T07:23:11Z</time>
      </trkpt>
      <trkpt lat="41.2119770" lon="-8.7144970">
        <ele>12.1</ele>
        <time>2021-05-16T07:23:12Z</time>
      </trkpt>
      <trkpt lat="41.2119990" lon="-8.7144910">
        <ele>12.1</ele>
        <time>2021-05-16T07:23:13Z</time>
      </trkpt>
      <trkpt lat="41.2120090" lon="-8.7144920">
        <ele>12.1</ele>
        <time>2021-05-16T07:23:14Z</time>
      </trkpt>
      <trkpt lat="41.2120190" lon="-8.7144920">
        <ele>12.1</ele>
        <time>2021-05-16T07:23:15Z</time>
      </trkpt>
      <trkpt lat="41.2120320" lon="-8.7144890">
        <ele>12.1</ele>
        <time>2021-05-16T07:23:16Z</time>
      </trkpt>
      <trkpt lat="41.2120460" lon="-8.7144860">
        <ele>12.2</ele>
        <time>2021-05-16T07:23:17Z</time>
      </trkpt>
      <trkpt lat="41.2120560" lon="-8.7144880">
        <ele>12.2</ele>
        <time>2021-05-16T07:23:18Z</time>
      </trkpt>
      <trkpt lat="41.2120710" lon="-8.7144930">
        <ele>12.2</ele>
        <time>2021-05-16T07:23:19Z</time>
      </trkpt>
      <trkpt lat="41.2120780" lon="-8.7144880">
        <ele>12.2</ele>
        <time>2021-05-16T07:23:20Z</time>
      </trkpt>
      <trkpt lat="41.2120960" lon="-8.7144860">
        <ele>12.2</ele>
        <time>2021-05-16T07:23:21Z</time>
      </trkpt>
      <trkpt lat="41.2121150" lon="-8.7144890">
        <ele>12.2</ele>
        <time>2021-05-16T07:23:22Z</time>
      </trkpt>
      <trkpt lat="41.2121280" lon="-8.7144850">
        <ele>12.2</ele>
        <time>2021-05-16T07:23:23Z</time>
      </trkpt>
      <trkpt lat="41.2121390" lon="-8.7144870">
        <ele>12.2</ele>
        <time>2021-05-16T07:23:24Z</time>
      </trkpt>
      <trkpt lat="41.2121470" lon="-8.7144860">
        <ele>12.2</ele>
        <time>2021-05-16T07:23:25Z</time>
      </trkpt>
      <trkpt lat="41.2121620" lon="-8.7144830">
        <ele>12.2</ele>
        <time>2021-05-16T07:23:26Z</time>
      </trkpt>
      <trkpt lat="41.2121770" lon="-8.7144820">
        <ele>12.2</ele>
        <time>2021-05-16T07:23:27Z</time>
      </trkpt>
      <trkpt lat="41.2121910" lon="-8.7144780">
        <ele>12.3</ele>
        <time>2021-05-16T07:23:28Z</time>
      </trkpt>
      <trkpt lat="41.2122060" lon="-8.7144810">
        <ele>12.3</ele>
        <time>2021-05-16T07:23:29Z</time>
      </trkpt>
      <trkpt lat="41.2122280" lon="-8.7144760">
        <ele>12.3</ele>
        <time>2021-05-16T07:23:30Z</time>
      </trkpt>
      <trkpt lat="41.2122410" lon="-8.7144780">
        <ele>12.3</ele>
        <time>2021-05-16T07:23:31Z</time>
      </trkpt>
      <trkpt lat="41.2122530" lon="-8.7144790">
        <ele>12.3</ele>
        <time>2021-05-16T07:23:32Z</time>
      </trkpt>
      <trkpt lat="41.2122690" lon="-8.7144790">
        <ele>12.3</ele>
        <time>2021-05-16T07:23:33Z</time>
      </trkpt>
      <trkpt lat="41.2122870" lon="-8.7144830">
        <ele>12.3</ele>
        <time>2021-05-16T07:23:34Z</time>
      </trkpt>
      <trkpt lat="41.2122980" lon="-8.7144860">
        <ele>12.3</ele>
        <time>2021-05-16T07:23:35Z</time>
      </trkpt>
      <trkpt lat="41.2123100" lon="-8.7144880">
        <ele>12.3</ele>
        <time>2021-05-16T07:23:36Z</time>
      </trkpt>
      <trkpt lat="41.2123230" lon="-8.7144850">
        <ele>12.3</ele>
        <time>2021-05-16T07:23:37Z</time>
      </trkpt>
      <trkpt lat="41.2123330" lon="-8.7144840">
        <ele>12.3</ele>
        <time>2021-05-16T07:23:38Z</time>
      </trkpt>
      <trkpt lat="41.2123450" lon="-8.7144850">
        <ele>12.3</ele>
        <time>2021-05-16T07:23:39Z</time>
      </trkpt>
      <trkpt lat="41.2123630" lon="-8.7144860">
        <ele>12.3</ele>
        <time>2021-05-16T07:23:40Z</time>
      </trkpt>
      <trkpt lat="41.2123840" lon="-8.7144870">
        <ele>12.3</ele>
        <time>2021-05-16T07:23:41Z</time>
      </trkpt>
      <trkpt lat="41.2123930" lon="-8.7144880">
        <ele>12.3</ele>
        <time>2021-05-16T07:23:42Z</time>
      </trkpt>
      <trkpt lat="41.2124010" lon="-8.7144880">
        <ele>12.3</ele>
        <time>2021-05-16T07:23:43Z</time>
      </trkpt>
      <trkpt lat="41.2124150" lon="-8.7144900">
        <ele>12.3</ele>
        <time>2021-05-16T07:23:44Z</time>
      </trkpt>
      <trkpt lat="41.2124290" lon="-8.7145000">
        <ele>12.4</ele>
        <time>2021-05-16T07:23:45Z</time>
      </trkpt>
      <trkpt lat="41.2124450" lon="-8.7145020">
        <ele>12.4</ele>
        <time>2021-05-16T07:23:46Z</time>
      </trkpt>
      <trkpt lat="41.2124630" lon="-8.7145040">
        <ele>12.4</ele>
        <time>2021-05-16T07:23:47Z</time>
      </trkpt>
      <trkpt lat="41.2124790" lon="-8.7144950">
        <ele>12.4</ele>
        <time>2021-05-16T07:23:48Z</time>
      </trkpt>
      <trkpt lat="41.2124910" lon="-8.7144950">
        <ele>12.4</ele>
        <time>2021-05-16T07:23:49Z</time>
      </trkpt>
      <trkpt lat="41.2125070" lon="-8.7145020">
        <ele>12.4</ele>
        <time>2021-05-16T07:23:50Z</time>
      </trkpt>
      <trkpt lat="41.2125260" lon="-8.7144990">
        <ele>12.4</ele>
        <time>2021-05-16T07:23:51Z</time>
      </trkpt>
      <trkpt lat="41.2125430" lon="-8.7145010">
        <ele>12.4</ele>
        <time>2021-05-16T07:23:52Z</time>
      </trkpt>
      <trkpt lat="41.2125600" lon="-8.7145110">
        <ele>12.4</ele>
        <time>2021-05-16T07:23:53Z</time>
      </trkpt>
      <trkpt lat="41.2125790" lon="-8.7145160">
        <ele>12.4</ele>
        <time>2021-05-16T07:23:54Z</time>
      </trkpt>
      <trkpt lat="41.2125880" lon="-8.7145180">
        <ele>12.4</ele>
        <time>2021-05-16T07:23:55Z</time>
      </trkpt>
      <trkpt lat="41.2125980" lon="-8.7145190">
        <ele>12.4</ele>
        <time>2021-05-16T07:23:56Z</time>
      </trkpt>
      <trkpt lat="41.2126220" lon="-8.7145190">
        <ele>12.4</ele>
        <time>2021-05-16T07:23:57Z</time>
      </trkpt>
      <trkpt lat="41.2126310" lon="-8.7145270">
        <ele>12.4</ele>
        <time>2021-05-16T07:23:58Z</time>
      </trkpt>
      <trkpt lat="41.2126480" lon="-8.7145250">
        <ele>12.5</ele>
        <time>2021-05-16T07:23:59Z</time>
      </trkpt>
      <trkpt lat="41.2126640" lon="-8.7145310">
        <ele>12.5</ele>
        <time>2021-05-16T07:24:00Z</time>
      </trkpt>
      <trkpt lat="41.2126900" lon="-8.7145440">
        <ele>12.5</ele>
        <time>2021-05-16T07:24:01Z</time>
      </trkpt>
      <trkpt lat="41.2126980" lon="-8.7145470">
        <ele>12.5</ele>
        <time>2021-05-16T07:24:02Z</time>
      </trkpt>
      <trkpt lat="41.2127150" lon="-8.7145520">
        <ele>12.5</ele>
        <time>2021-05-16T07:24:03Z</time>
      </trkpt>
      <trkpt lat="41.2127340" lon="-8.7145560">
        <ele>12.5</ele>
        <time>2021-05-16T07:24:04Z</time>
      </trkpt>
      <trkpt lat="41.2127510" lon="-8.7145530">
        <ele>12.5</ele>
        <time>2021-05-16T07:24:05Z</time>
      </trkpt>
      <trkpt lat="41.2127680" lon="-8.7145500">
        <ele>12.5</ele>
        <time>2021-05-16T07:24:06Z</time>
      </trkpt>
      <trkpt lat="41.2127870" lon="-8.7145470">
        <ele>12.5</ele>
        <time>2021-05-16T07:24:07Z</time>
      </trkpt>
      <trkpt lat="41.2128040" lon="-8.7145450">
        <ele>12.5</ele>
        <time>2021-05-16T07:24:08Z</time>
      </trkpt>
      <trkpt lat="41.2128220" lon="-8.7145500">
        <ele>12.5</ele>
        <time>2021-05-16T07:24:09Z</time>
      </trkpt>
      <trkpt lat="41.2128370" lon="-8.7145470">
        <ele>12.6</ele>
        <time>2021-05-16T07:24:10Z</time>
      </trkpt>
      <trkpt lat="41.2128530" lon="-8.7145450">
        <ele>12.6</ele>
        <time>2021-05-16T07:24:11Z</time>
      </trkpt>
      <trkpt lat="41.2128700" lon="-8.7145410">
        <ele>12.6</ele>
        <time>2021-05-16T07:24:12Z</time>
      </trkpt>
      <trkpt lat="41.2128850" lon="-8.7145450">
        <ele>12.6</ele>
        <time>2021-05-16T07:24:13Z</time>
      </trkpt>
      <trkpt lat="41.2129000" lon="-8.7145450">
        <ele>12.6</ele>
        <time>2021-05-16T07:24:14Z</time>
      </trkpt>
      <trkpt lat="41.2129150" lon="-8.7145520">
        <ele>12.6</ele>
        <time>2021-05-16T07:24:15Z</time>
      </trkpt>
      <trkpt lat="41.2129320" lon="-8.7145520">
        <ele>12.6</ele>
        <time>2021-05-16T07:24:16Z</time>
      </trkpt>
      <trkpt lat="41.2129460" lon="-8.7145520">
        <ele>12.6</ele>
        <time>2021-05-16T07:24:17Z</time>
      </trkpt>
      <trkpt lat="41.2129620" lon="-8.7145510">
        <ele>12.6</ele>
        <time>2021-05-16T07:24:18Z</time>
      </trkpt>
      <trkpt lat="41.2129770" lon="-8.7145540">
        <ele>12.6</ele>
        <time>2021-05-16T07:24:19Z</time>
      </trkpt>
      <trkpt lat="41.2129920" lon="-8.7145510">
        <ele>12.6</ele>
        <time>2021-05-16T07:24:20Z</time>
      </trkpt>
      <trkpt lat="41.2130060" lon="-8.7145500">
        <ele>12.6</ele>
        <time>2021-05-16T07:24:21Z</time>
      </trkpt>
      <trkpt lat="41.2130210" lon="-8.7145590">
        <ele>12.6</ele>
        <time>2021-05-16T07:24:22Z</time>
      </trkpt>
      <trkpt lat="41.2130340" lon="-8.7145680">
        <ele>12.6</ele>
        <time>2021-05-16T07:24:23Z</time>
      </trkpt>
      <trkpt lat="41.2130490" lon="-8.7145690">
        <ele>12.6</ele>
        <time>2021-05-16T07:24:24Z</time>
      </trkpt>
      <trkpt lat="41.2130650" lon="-8.7145710">
        <ele>12.6</ele>
        <time>2021-05-16T07:24:25Z</time>
      </trkpt>
      <trkpt lat="41.2130800" lon="-8.7145690">
        <ele>12.6</ele>
        <time>2021-05-16T07:24:26Z</time>
      </trkpt>
      <trkpt lat="41.2130950" lon="-8.7145660">
        <ele>12.6</ele>
        <time>2021-05-16T07:24:27Z</time>
      </trkpt>
      <trkpt lat="41.2131090" lon="-8.7145660">
        <ele>12.7</ele>
        <time>2021-05-16T07:24:28Z</time>
      </trkpt>
      <trkpt lat="41.2131270" lon="-8.7145680">
        <ele>12.7</ele>
        <time>2021-05-16T07:24:29Z</time>
      </trkpt>
      <trkpt lat="41.2131420" lon="-8.7145720">
        <ele>12.7</ele>
        <time>2021-05-16T07:24:30Z</time>
      </trkpt>
      <trkpt lat="41.2131570" lon="-8.7145720">
        <ele>12.7</ele>
        <time>2021-05-16T07:24:31Z</time>
      </trkpt>
      <trkpt lat="41.2131710" lon="-8.7145700">
        <ele>12.7</ele>
        <time>2021-05-16T07:24:32Z</time>
      </trkpt>
      <trkpt lat="41.2131850" lon="-8.7145760">
        <ele>12.7</ele>
        <time>2021-05-16T07:24:33Z</time>
      </trkpt>
      <trkpt lat="41.2131990" lon="-8.7145780">
        <ele>12.7</ele>
        <time>2021-05-16T07:24:34Z</time>
      </trkpt>
      <trkpt lat="41.2132130" lon="-8.7145790">
        <ele>12.7</ele>
        <time>2021-05-16T07:24:35Z</time>
      </trkpt>
      <trkpt lat="41.2132270" lon="-8.7145850">
        <ele>12.7</ele>
        <time>2021-05-16T07:24:36Z</time>
      </trkpt>
      <trkpt lat="41.2132390" lon="-8.7145870">
        <ele>12.7</ele>
        <time>2021-05-16T07:24:37Z</time>
      </trkpt>
      <trkpt lat="41.2132560" lon="-8.7145800">
        <ele>12.7</ele>
        <time>2021-05-16T07:24:38Z</time>
      </trkpt>
      <trkpt lat="41.2132690" lon="-8.7145810">
        <ele>12.7</ele>
        <time>2021-05-16T07:24:39Z</time>
      </trkpt>
      <trkpt lat="41.2132830" lon="-8.7145840">
        <ele>12.7</ele>
        <time>2021-05-16T07:24:40Z</time>
      </trkpt>
      <trkpt lat="41.2133050" lon="-8.7145840">
        <ele>12.7</ele>
        <time>2021-05-16T07:24:41Z</time>
      </trkpt>
      <trkpt lat="41.2133120" lon="-8.7145860">
        <ele>12.7</ele>
        <time>2021-05-16T07:24:42Z</time>
      </trkpt>
      <trkpt lat="41.2133200" lon="-8.7145880">
        <ele>12.8</ele>
        <time>2021-05-16T07:24:43Z</time>
      </trkpt>
      <trkpt lat="41.2133420" lon="-8.7145820">
        <ele>12.8</ele>
        <time>2021-05-16T07:24:44Z</time>
      </trkpt>
      <trkpt lat="41.2133510" lon="-8.7145840">
        <ele>12.8</ele>
        <time>2021-05-16T07:24:45Z</time>
      </trkpt>
      <trkpt lat="41.2133610" lon="-8.7145850">
        <ele>12.8</ele>
        <time>2021-05-16T07:24:46Z</time>
      </trkpt>
      <trkpt lat="41.2133830" lon="-8.7145870">
        <ele>12.8</ele>
        <time>2021-05-16T07:24:47Z</time>
      </trkpt>
      <trkpt lat="41.2133920" lon="-8.7145860">
        <ele>12.8</ele>
        <time>2021-05-16T07:24:48Z</time>
      </trkpt>
      <trkpt lat="41.2134000" lon="-8.7145860">
        <ele>12.8</ele>
        <time>2021-05-16T07:24:49Z</time>
      </trkpt>
      <trkpt lat="41.2134160" lon="-8.7145860">
        <ele>12.8</ele>
        <time>2021-05-16T07:24:50Z</time>
      </trkpt>
      <trkpt lat="41.2134290" lon="-8.7145840">
        <ele>12.8</ele>
        <time>2021-05-16T07:24:51Z</time>
      </trkpt>
      <trkpt lat="41.2134450" lon="-8.7145930">
        <ele>12.8</ele>
        <time>2021-05-16T07:24:52Z</time>
      </trkpt>
      <trkpt lat="41.2134590" lon="-8.7145890">
        <ele>12.8</ele>
        <time>2021-05-16T07:24:53Z</time>
      </trkpt>
      <trkpt lat="41.2134720" lon="-8.7145900">
        <ele>12.8</ele>
        <time>2021-05-16T07:24:54Z</time>
      </trkpt>
      <trkpt lat="41.2134870" lon="-8.7145910">
        <ele>12.8</ele>
        <time>2021-05-16T07:24:55Z</time>
      </trkpt>
      <trkpt lat="41.2135010" lon="-8.7145980">
        <ele>12.8</ele>
        <time>2021-05-16T07:24:56Z</time>
      </trkpt>
      <trkpt lat="41.2135170" lon="-8.7145970">
        <ele>12.8</ele>
        <time>2021-05-16T07:24:57Z</time>
      </trkpt>
      <trkpt lat="41.2135300" lon="-8.7146040">
        <ele>12.8</ele>
        <time>2021-05-16T07:24:58Z</time>
      </trkpt>
      <trkpt lat="41.2135440" lon="-8.7146040">
        <ele>12.8</ele>
        <time>2021-05-16T07:24:59Z</time>
      </trkpt>
      <trkpt lat="41.2135580" lon="-8.7146110">
        <ele>12.8</ele>
        <time>2021-05-16T07:25:00Z</time>
      </trkpt>
      <trkpt lat="41.2135730" lon="-8.7146150">
        <ele>12.8</ele>
        <time>2021-05-16T07:25:01Z</time>
      </trkpt>
      <trkpt lat="41.2135880" lon="-8.7146140">
        <ele>12.8</ele>
        <time>2021-05-16T07:25:02Z</time>
      </trkpt>
      <trkpt lat="41.2136010" lon="-8.7146190">
        <ele>12.8</ele>
        <time>2021-05-16T07:25:03Z</time>
      </trkpt>
      <trkpt lat="41.2136210" lon="-8.7146220">
        <ele>12.8</ele>
        <time>2021-05-16T07:25:04Z</time>
      </trkpt>
      <trkpt lat="41.2136290" lon="-8.7146250">
        <ele>12.8</ele>
        <time>2021-05-16T07:25:05Z</time>
      </trkpt>
      <trkpt lat="41.2136370" lon="-8.7146270">
        <ele>12.8</ele>
        <time>2021-05-16T07:25:06Z</time>
      </trkpt>
      <trkpt lat="41.2136480" lon="-8.7146380">
        <ele>12.8</ele>
        <time>2021-05-16T07:25:07Z</time>
      </trkpt>
      <trkpt lat="41.2136630" lon="-8.7146390">
        <ele>12.8</ele>
        <time>2021-05-16T07:25:08Z</time>
      </trkpt>
      <trkpt lat="41.2136740" lon="-8.7146430">
        <ele>12.8</ele>
        <time>2021-05-16T07:25:09Z</time>
      </trkpt>
      <trkpt lat="41.2136860" lon="-8.7146450">
        <ele>12.8</ele>
        <time>2021-05-16T07:25:10Z</time>
      </trkpt>
      <trkpt lat="41.2136980" lon="-8.7146480">
        <ele>12.8</ele>
        <time>2021-05-16T07:25:11Z</time>
      </trkpt>
      <trkpt lat="41.2137130" lon="-8.7146490">
        <ele>12.8</ele>
        <time>2021-05-16T07:25:12Z</time>
      </trkpt>
      <trkpt lat="41.2137250" lon="-8.7146550">
        <ele>12.8</ele>
        <time>2021-05-16T07:25:13Z</time>
      </trkpt>
      <trkpt lat="41.2137400" lon="-8.7146520">
        <ele>12.8</ele>
        <time>2021-05-16T07:25:14Z</time>
      </trkpt>
      <trkpt lat="41.2137530" lon="-8.7146540">
        <ele>12.8</ele>
        <time>2021-05-16T07:25:15Z</time>
      </trkpt>
      <trkpt lat="41.2137670" lon="-8.7146540">
        <ele>12.8</ele>
        <time>2021-05-16T07:25:16Z</time>
      </trkpt>
      <trkpt lat="41.2137800" lon="-8.7146570">
        <ele>12.9</ele>
        <time>2021-05-16T07:25:17Z</time>
      </trkpt>
      <trkpt lat="41.2137920" lon="-8.7146560">
        <ele>12.9</ele>
        <time>2021-05-16T07:25:18Z</time>
      </trkpt>
      <trkpt lat="41.2138050" lon="-8.7146620">
        <ele>12.9</ele>
        <time>2021-05-16T07:25:19Z</time>
      </trkpt>
      <trkpt lat="41.2138150" lon="-8.7146660">
        <ele>12.9</ele>
        <time>2021-05-16T07:25:20Z</time>
      </trkpt>
      <trkpt lat="41.2138310" lon="-8.7146600">
        <ele>12.9</ele>
        <time>2021-05-16T07:25:21Z</time>
      </trkpt>
      <trkpt lat="41.2138440" lon="-8.7146590">
        <ele>12.9</ele>
        <time>2021-05-16T07:25:22Z</time>
      </trkpt>
      <trkpt lat="41.2138580" lon="-8.7146570">
        <ele>12.9</ele>
        <time>2021-05-16T07:25:23Z</time>
      </trkpt>
      <trkpt lat="41.2138730" lon="-8.7146630">
        <ele>12.9</ele>
        <time>2021-05-16T07:25:24Z</time>
      </trkpt>
      <trkpt lat="41.2138860" lon="-8.7146650">
        <ele>12.9</ele>
        <time>2021-05-16T07:25:25Z</time>
      </trkpt>
      <trkpt lat="41.2138990" lon="-8.7146670">
        <ele>12.9</ele>
        <time>2021-05-16T07:25:26Z</time>
      </trkpt>
      <trkpt lat="41.2139090" lon="-8.7146680">
        <ele>12.9</ele>
        <time>2021-05-16T07:25:27Z</time>
      </trkpt>
      <trkpt lat="41.2139160" lon="-8.7146690">
        <ele>12.9</ele>
        <time>2021-05-16T07:25:28Z</time>
      </trkpt>
      <trkpt lat="41.2139140" lon="-8.7146660">
        <ele>12.9</ele>
        <time>2021-05-16T07:25:29Z</time>
      </trkpt>
      <trkpt lat="41.2139270" lon="-8.7146710">
        <ele>12.9</ele>
        <time>2021-05-16T07:25:30Z</time>
      </trkpt>
      <trkpt lat="41.2139410" lon="-8.7146700">
        <ele>12.9</ele>
        <time>2021-05-16T07:25:31Z</time>
      </trkpt>
      <trkpt lat="41.2139610" lon="-8.7146730">
        <ele>12.9</ele>
        <time>2021-05-16T07:25:32Z</time>
      </trkpt>
      <trkpt lat="41.2139690" lon="-8.7146730">
        <ele>12.9</ele>
        <time>2021-05-16T07:25:33Z</time>
      </trkpt>
      <trkpt lat="41.2139770" lon="-8.7146740">
        <ele>12.9</ele>
        <time>2021-05-16T07:25:34Z</time>
      </trkpt>
      <trkpt lat="41.2139940" lon="-8.7146800">
        <ele>12.9</ele>
        <time>2021-05-16T07:25:35Z</time>
      </trkpt>
      <trkpt lat="41.2140050" lon="-8.7146860">
        <ele>12.9</ele>
        <time>2021-05-16T07:25:36Z</time>
      </trkpt>
      <trkpt lat="41.2140190" lon="-8.7146950">
        <ele>12.9</ele>
        <time>2021-05-16T07:25:37Z</time>
      </trkpt>
      <trkpt lat="41.2140330" lon="-8.7147010">
        <ele>12.9</ele>
        <time>2021-05-16T07:25:38Z</time>
      </trkpt>
      <trkpt lat="41.2140480" lon="-8.7147020">
        <ele>12.9</ele>
        <time>2021-05-16T07:25:39Z</time>
      </trkpt>
      <trkpt lat="41.2140630" lon="-8.7147090">
        <ele>12.9</ele>
        <time>2021-05-16T07:25:40Z</time>
      </trkpt>
      <trkpt lat="41.2140810" lon="-8.7147090">
        <ele>12.9</ele>
        <time>2021-05-16T07:25:41Z</time>
      </trkpt>
      <trkpt lat="41.2140950" lon="-8.7147140">
        <ele>12.9</ele>
        <time>2021-05-16T07:25:42Z</time>
      </trkpt>
      <trkpt lat="41.2141090" lon="-8.7147280">
        <ele>12.8</ele>
        <time>2021-05-16T07:25:43Z</time>
      </trkpt>
      <trkpt lat="41.2141240" lon="-8.7147350">
        <ele>12.8</ele>
        <time>2021-05-16T07:25:44Z</time>
      </trkpt>
      <trkpt lat="41.2141420" lon="-8.7147360">
        <ele>12.8</ele>
        <time>2021-05-16T07:25:45Z</time>
      </trkpt>
      <trkpt lat="41.2141560" lon="-8.7147370">
        <ele>12.8</ele>
        <time>2021-05-16T07:25:46Z</time>
      </trkpt>
      <trkpt lat="41.2141720" lon="-8.7147380">
        <ele>12.8</ele>
        <time>2021-05-16T07:25:47Z</time>
      </trkpt>
      <trkpt lat="41.2141870" lon="-8.7147470">
        <ele>12.8</ele>
        <time>2021-05-16T07:25:48Z</time>
      </trkpt>
      <trkpt lat="41.2142010" lon="-8.7147570">
        <ele>12.8</ele>
        <time>2021-05-16T07:25:49Z</time>
      </trkpt>
      <trkpt lat="41.2142130" lon="-8.7147710">
        <ele>12.8</ele>
        <time>2021-05-16T07:25:50Z</time>
      </trkpt>
      <trkpt lat="41.2142260" lon="-8.7147740">
        <ele>12.8</ele>
        <time>2021-05-16T07:25:51Z</time>
      </trkpt>
      <trkpt lat="41.2142340" lon="-8.7147820">
        <ele>12.8</ele>
        <time>2021-05-16T07:25:52Z</time>
      </trkpt>
      <trkpt lat="41.2142460" lon="-8.7147870">
        <ele>12.8</ele>
        <time>2021-05-16T07:25:53Z</time>
      </trkpt>
      <trkpt lat="41.2142690" lon="-8.7147900">
        <ele>12.7</ele>
        <time>2021-05-16T07:25:54Z</time>
      </trkpt>
      <trkpt lat="41.2142790" lon="-8.7147900">
        <ele>12.7</ele>
        <time>2021-05-16T07:25:55Z</time>
      </trkpt>
      <trkpt lat="41.2142890" lon="-8.7147900">
        <ele>12.7</ele>
        <time>2021-05-16T07:25:56Z</time>
      </trkpt>
      <trkpt lat="41.2143040" lon="-8.7147910">
        <ele>12.7</ele>
        <time>2021-05-16T07:25:57Z</time>
      </trkpt>
      <trkpt lat="41.2143180" lon="-8.7147950">
        <ele>12.7</ele>
        <time>2021-05-16T07:25:58Z</time>
      </trkpt>
      <trkpt lat="41.2143300" lon="-8.7148030">
        <ele>12.7</ele>
        <time>2021-05-16T07:25:59Z</time>
      </trkpt>
      <trkpt lat="41.2143440" lon="-8.7148120">
        <ele>12.7</ele>
        <time>2021-05-16T07:26:00Z</time>
      </trkpt>
      <trkpt lat="41.2143600" lon="-8.7148150">
        <ele>12.6</ele>
        <time>2021-05-16T07:26:01Z</time>
      </trkpt>
      <trkpt lat="41.2143720" lon="-8.7148230">
        <ele>12.6</ele>
        <time>2021-05-16T07:26:02Z</time>
      </trkpt>
      <trkpt lat="41.2143890" lon="-8.7148280">
        <ele>12.6</ele>
        <time>2021-05-16T07:26:03Z</time>
      </trkpt>
      <trkpt lat="41.2144050" lon="-8.7148330">
        <ele>12.6</ele>
        <time>2021-05-16T07:26:04Z</time>
      </trkpt>
      <trkpt lat="41.2144210" lon="-8.7148390">
        <ele>12.6</ele>
        <time>2021-05-16T07:26:05Z</time>
      </trkpt>
      <trkpt lat="41.2144370" lon="-8.7148420">
        <ele>12.6</ele>
        <time>2021-05-16T07:26:06Z</time>
      </trkpt>
      <trkpt lat="41.2144520" lon="-8.7148470">
        <ele>12.6</ele>
        <time>2021-05-16T07:26:07Z</time>
      </trkpt>
      <trkpt lat="41.2144650" lon="-8.7148460">
        <ele>12.5</ele>
        <time>2021-05-16T07:26:08Z</time>
      </trkpt>
      <trkpt lat="41.2144810" lon="-8.7148540">
        <ele>12.5</ele>
        <time>2021-05-16T07:26:09Z</time>
      </trkpt>
      <trkpt lat="41.2144970" lon="-8.7148580">
        <ele>12.5</ele>
        <time>2021-05-16T07:26:10Z</time>
      </trkpt>
      <trkpt lat="41.2145120" lon="-8.7148670">
        <ele>12.5</ele>
        <time>2021-05-16T07:26:11Z</time>
      </trkpt>
      <trkpt lat="41.2145260" lon="-8.7148700">
        <ele>12.5</ele>
        <time>2021-05-16T07:26:12Z</time>
      </trkpt>
      <trkpt lat="41.2145410" lon="-8.7148800">
        <ele>12.4</ele>
        <time>2021-05-16T07:26:13Z</time>
      </trkpt>
      <trkpt lat="41.2145590" lon="-8.7148770">
        <ele>12.4</ele>
        <time>2021-05-16T07:26:14Z</time>
      </trkpt>
      <trkpt lat="41.2145730" lon="-8.7148800">
        <ele>12.4</ele>
        <time>2021-05-16T07:26:15Z</time>
      </trkpt>
      <trkpt lat="41.2145870" lon="-8.7148820">
        <ele>12.4</ele>
        <time>2021-05-16T07:26:16Z</time>
      </trkpt>
      <trkpt lat="41.2146090" lon="-8.7148860">
        <ele>12.4</ele>
        <time>2021-05-16T07:26:17Z</time>
      </trkpt>
      <trkpt lat="41.2146180" lon="-8.7148880">
        <ele>12.3</ele>
        <time>2021-05-16T07:26:18Z</time>
      </trkpt>
      <trkpt lat="41.2146260" lon="-8.7148900">
        <ele>12.3</ele>
        <time>2021-05-16T07:26:19Z</time>
      </trkpt>
      <trkpt lat="41.2146430" lon="-8.7148900">
        <ele>12.3</ele>
        <time>2021-05-16T07:26:20Z</time>
      </trkpt>
      <trkpt lat="41.2146480" lon="-8.7148910">
        <ele>12.3</ele>
        <time>2021-05-16T07:26:21Z</time>
      </trkpt>
      <trkpt lat="41.2146520" lon="-8.7148930">
        <ele>12.3</ele>
        <time>2021-05-16T07:26:22Z</time>
      </trkpt>
      <trkpt lat="41.2146570" lon="-8.7148940">
        <ele>12.3</ele>
        <time>2021-05-16T07:26:23Z</time>
      </trkpt>
      <trkpt lat="41.2146620" lon="-8.7148950">
        <ele>12.3</ele>
        <time>2021-05-16T07:26:24Z</time>
      </trkpt>
      <trkpt lat="41.2146860" lon="-8.7148970">
        <ele>12.3</ele>
        <time>2021-05-16T07:26:25Z</time>
      </trkpt>
      <trkpt lat="41.2146970" lon="-8.7148980">
        <ele>12.2</ele>
        <time>2021-05-16T07:26:26Z</time>
      </trkpt>
      <trkpt lat="41.2147070" lon="-8.7148990">
        <ele>12.2</ele>
        <time>2021-05-16T07:26:27Z</time>
      </trkpt>
      <trkpt lat="41.2147280" lon="-8.7149070">
        <ele>12.2</ele>
        <time>2021-05-16T07:26:28Z</time>
      </trkpt>
      <trkpt lat="41.2147360" lon="-8.7149100">
        <ele>12.2</ele>
        <time>2021-05-16T07:26:29Z</time>
      </trkpt>
      <trkpt lat="41.2147430" lon="-8.7149120">
        <ele>12.2</ele>
        <time>2021-05-16T07:26:30Z</time>
      </trkpt>
      <trkpt lat="41.2147640" lon="-8.7149060">
        <ele>12.2</ele>
        <time>2021-05-16T07:26:31Z</time>
      </trkpt>
      <trkpt lat="41.2147720" lon="-8.7149030">
        <ele>12.2</ele>
        <time>2021-05-16T07:26:32Z</time>
      </trkpt>
      <trkpt lat="41.2147800" lon="-8.7149000">
        <ele>12.2</ele>
        <time>2021-05-16T07:26:33Z</time>
      </trkpt>
      <trkpt lat="41.2147920" lon="-8.7148910">
        <ele>12.1</ele>
        <time>2021-05-16T07:26:34Z</time>
      </trkpt>
      <trkpt lat="41.2148090" lon="-8.7148920">
        <ele>12.1</ele>
        <time>2021-05-16T07:26:35Z</time>
      </trkpt>
      <trkpt lat="41.2148260" lon="-8.7148970">
        <ele>12.1</ele>
        <time>2021-05-16T07:26:36Z</time>
      </trkpt>
      <trkpt lat="41.2148410" lon="-8.7149000">
        <ele>12.1</ele>
        <time>2021-05-16T07:26:37Z</time>
      </trkpt>
      <trkpt lat="41.2148580" lon="-8.7149050">
        <ele>12.1</ele>
        <time>2021-05-16T07:26:38Z</time>
      </trkpt>
      <trkpt lat="41.2148750" lon="-8.7149030">
        <ele>12.1</ele>
        <time>2021-05-16T07:26:39Z</time>
      </trkpt>
      <trkpt lat="41.2148910" lon="-8.7149080">
        <ele>12.1</ele>
        <time>2021-05-16T07:26:40Z</time>
      </trkpt>
      <trkpt lat="41.2149040" lon="-8.7149140">
        <ele>12.1</ele>
        <time>2021-05-16T07:26:41Z</time>
      </trkpt>
      <trkpt lat="41.2149180" lon="-8.7149240">
        <ele>12.0</ele>
        <time>2021-05-16T07:26:42Z</time>
      </trkpt>
      <trkpt lat="41.2149330" lon="-8.7149270">
        <ele>12.0</ele>
        <time>2021-05-16T07:26:43Z</time>
      </trkpt>
      <trkpt lat="41.2149500" lon="-8.7149310">
        <ele>12.0</ele>
        <time>2021-05-16T07:26:44Z</time>
      </trkpt>
      <trkpt lat="41.2149640" lon="-8.7149330">
        <ele>12.0</ele>
        <time>2021-05-16T07:26:45Z</time>
      </trkpt>
      <trkpt lat="41.2149780" lon="-8.7149360">
        <ele>12.0</ele>
        <time>2021-05-16T07:26:46Z</time>
      </trkpt>
      <trkpt lat="41.2149940" lon="-8.7149400">
        <ele>12.0</ele>
        <time>2021-05-16T07:26:47Z</time>
      </trkpt>
      <trkpt lat="41.2150090" lon="-8.7149360">
        <ele>12.0</ele>
        <time>2021-05-16T07:26:48Z</time>
      </trkpt>
      <trkpt lat="41.2150250" lon="-8.7149410">
        <ele>12.0</ele>
        <time>2021-05-16T07:26:49Z</time>
      </trkpt>
      <trkpt lat="41.2150390" lon="-8.7149460">
        <ele>12.0</ele>
        <time>2021-05-16T07:26:50Z</time>
      </trkpt>
      <trkpt lat="41.2150550" lon="-8.7149460">
        <ele>12.0</ele>
        <time>2021-05-16T07:26:51Z</time>
      </trkpt>
      <trkpt lat="41.2150680" lon="-8.7149470">
        <ele>12.0</ele>
        <time>2021-05-16T07:26:52Z</time>
      </trkpt>
      <trkpt lat="41.2150840" lon="-8.7149490">
        <ele>11.9</ele>
        <time>2021-05-16T07:26:53Z</time>
      </trkpt>
      <trkpt lat="41.2151000" lon="-8.7149450">
        <ele>11.9</ele>
        <time>2021-05-16T07:26:54Z</time>
      </trkpt>
      <trkpt lat="41.2151130" lon="-8.7149460">
        <ele>11.9</ele>
        <time>2021-05-16T07:26:55Z</time>
      </trkpt>
      <trkpt lat="41.2151300" lon="-8.7149450">
        <ele>11.9</ele>
        <time>2021-05-16T07:26:56Z</time>
      </trkpt>
      <trkpt lat="41.2151470" lon="-8.7149510">
        <ele>11.9</ele>
        <time>2021-05-16T07:26:57Z</time>
      </trkpt>
      <trkpt lat="41.2151640" lon="-8.7149500">
        <ele>11.9</ele>
        <time>2021-05-16T07:26:58Z</time>
      </trkpt>
      <trkpt lat="41.2151780" lon="-8.7149540">
        <ele>11.9</ele>
        <time>2021-05-16T07:26:59Z</time>
      </trkpt>
      <trkpt lat="41.2151930" lon="-8.7149560">
        <ele>11.9</ele>
        <time>2021-05-16T07:27:00Z</time>
      </trkpt>
      <trkpt lat="41.2152090" lon="-8.7149590">
        <ele>11.9</ele>
        <time>2021-05-16T07:27:01Z</time>
      </trkpt>
      <trkpt lat="41.2152240" lon="-8.7149630">
        <ele>11.9</ele>
        <time>2021-05-16T07:27:02Z</time>
      </trkpt>
      <trkpt lat="41.2152410" lon="-8.7149690">
        <ele>11.9</ele>
        <time>2021-05-16T07:27:03Z</time>
      </trkpt>
      <trkpt lat="41.2152540" lon="-8.7149750">
        <ele>11.9</ele>
        <time>2021-05-16T07:27:04Z</time>
      </trkpt>
      <trkpt lat="41.2152680" lon="-8.7149800">
        <ele>11.9</ele>
        <time>2021-05-16T07:27:05Z</time>
      </trkpt>
      <trkpt lat="41.2152870" lon="-8.7149780">
        <ele>11.9</ele>
        <time>2021-05-16T07:27:06Z</time>
      </trkpt>
      <trkpt lat="41.2153030" lon="-8.7149790">
        <ele>11.9</ele>
        <time>2021-05-16T07:27:07Z</time>
      </trkpt>
      <trkpt lat="41.2153180" lon="-8.7149870">
        <ele>11.9</ele>
        <time>2021-05-16T07:27:08Z</time>
      </trkpt>
      <trkpt lat="41.2153330" lon="-8.7149870">
        <ele>11.8</ele>
        <time>2021-05-16T07:27:09Z</time>
      </trkpt>
      <trkpt lat="41.2153490" lon="-8.7149960">
        <ele>11.8</ele>
        <time>2021-05-16T07:27:10Z</time>
      </trkpt>
      <trkpt lat="41.2153630" lon="-8.7149980">
        <ele>11.8</ele>
        <time>2021-05-16T07:27:11Z</time>
      </trkpt>
      <trkpt lat="41.2153770" lon="-8.7150050">
        <ele>11.8</ele>
        <time>2021-05-16T07:27:12Z</time>
      </trkpt>
      <trkpt lat="41.2153890" lon="-8.7150090">
        <ele>11.8</ele>
        <time>2021-05-16T07:27:13Z</time>
      </trkpt>
      <trkpt lat="41.2154060" lon="-8.7150050">
        <ele>11.8</ele>
        <time>2021-05-16T07:27:14Z</time>
      </trkpt>
      <trkpt lat="41.2154190" lon="-8.7150050">
        <ele>11.8</ele>
        <time>2021-05-16T07:27:15Z</time>
      </trkpt>
      <trkpt lat="41.2154340" lon="-8.7150140">
        <ele>11.8</ele>
        <time>2021-05-16T07:27:16Z</time>
      </trkpt>
      <trkpt lat="41.2154490" lon="-8.7150150">
        <ele>11.8</ele>
        <time>2021-05-16T07:27:17Z</time>
      </trkpt>
      <trkpt lat="41.2154620" lon="-8.7150180">
        <ele>11.8</ele>
        <time>2021-05-16T07:27:18Z</time>
      </trkpt>
      <trkpt lat="41.2154750" lon="-8.7150220">
        <ele>11.8</ele>
        <time>2021-05-16T07:27:19Z</time>
      </trkpt>
      <trkpt lat="41.2154910" lon="-8.7150260">
        <ele>11.8</ele>
        <time>2021-05-16T07:27:20Z</time>
      </trkpt>
      <trkpt lat="41.2155050" lon="-8.7150340">
        <ele>11.8</ele>
        <time>2021-05-16T07:27:21Z</time>
      </trkpt>
      <trkpt lat="41.2155250" lon="-8.7150350">
        <ele>11.8</ele>
        <time>2021-05-16T07:27:22Z</time>
      </trkpt>
      <trkpt lat="41.2155390" lon="-8.7150380">
        <ele>11.8</ele>
        <time>2021-05-16T07:27:23Z</time>
      </trkpt>
      <trkpt lat="41.2155530" lon="-8.7150370">
        <ele>11.8</ele>
        <time>2021-05-16T07:27:24Z</time>
      </trkpt>
      <trkpt lat="41.2155690" lon="-8.7150420">
        <ele>11.8</ele>
        <time>2021-05-16T07:27:25Z</time>
      </trkpt>
      <trkpt lat="41.2155900" lon="-8.7150470">
        <ele>11.8</ele>
        <time>2021-05-16T07:27:26Z</time>
      </trkpt>
      <trkpt lat="41.2155980" lon="-8.7150470">
        <ele>11.8</ele>
        <time>2021-05-16T07:27:27Z</time>
      </trkpt>
      <trkpt lat="41.2156070" lon="-8.7150480">
        <ele>11.8</ele>
        <time>2021-05-16T07:27:28Z</time>
      </trkpt>
      <trkpt lat="41.2156230" lon="-8.7150530">
        <ele>11.8</ele>
        <time>2021-05-16T07:27:29Z</time>
      </trkpt>
      <trkpt lat="41.2156390" lon="-8.7150540">
        <ele>11.8</ele>
        <time>2021-05-16T07:27:30Z</time>
      </trkpt>
      <trkpt lat="41.2156510" lon="-8.7150550">
        <ele>11.8</ele>
        <time>2021-05-16T07:27:31Z</time>
      </trkpt>
      <trkpt lat="41.2156660" lon="-8.7150570">
        <ele>11.8</ele>
        <time>2021-05-16T07:27:32Z</time>
      </trkpt>
      <trkpt lat="41.2156800" lon="-8.7150650">
        <ele>11.9</ele>
        <time>2021-05-16T07:27:33Z</time>
      </trkpt>
      <trkpt lat="41.2156950" lon="-8.7150650">
        <ele>11.9</ele>
        <time>2021-05-16T07:27:34Z</time>
      </trkpt>
      <trkpt lat="41.2157120" lon="-8.7150680">
        <ele>11.9</ele>
        <time>2021-05-16T07:27:35Z</time>
      </trkpt>
      <trkpt lat="41.2157290" lon="-8.7150740">
        <ele>11.9</ele>
        <time>2021-05-16T07:27:36Z</time>
      </trkpt>
      <trkpt lat="41.2157430" lon="-8.7150820">
        <ele>11.9</ele>
        <time>2021-05-16T07:27:37Z</time>
      </trkpt>
      <trkpt lat="41.2157580" lon="-8.7150820">
        <ele>11.9</ele>
        <time>2021-05-16T07:27:38Z</time>
      </trkpt>
      <trkpt lat="41.2157730" lon="-8.7150850">
        <ele>11.9</ele>
        <time>2021-05-16T07:27:39Z</time>
      </trkpt>
      <trkpt lat="41.2157880" lon="-8.7150900">
        <ele>11.9</ele>
        <time>2021-05-16T07:27:40Z</time>
      </trkpt>
      <trkpt lat="41.2158030" lon="-8.7150930">
        <ele>11.9</ele>
        <time>2021-05-16T07:27:41Z</time>
      </trkpt>
      <trkpt lat="41.2158200" lon="-8.7150980">
        <ele>11.9</ele>
        <time>2021-05-16T07:27:42Z</time>
      </trkpt>
      <trkpt lat="41.2158340" lon="-8.7150990">
        <ele>11.9</ele>
        <time>2021-05-16T07:27:43Z</time>
      </trkpt>
      <trkpt lat="41.2158510" lon="-8.7151060">
        <ele>11.9</ele>
        <time>2021-05-16T07:27:44Z</time>
      </trkpt>
      <trkpt lat="41.2158650" lon="-8.7151170">
        <ele>11.9</ele>
        <time>2021-05-16T07:27:45Z</time>
      </trkpt>
      <trkpt lat="41.2158770" lon="-8.7151190">
        <ele>11.9</ele>
        <time>2021-05-16T07:27:46Z</time>
      </trkpt>
      <trkpt lat="41.2158920" lon="-8.7151180">
        <ele>11.9</ele>
        <time>2021-05-16T07:27:47Z</time>
      </trkpt>
      <trkpt lat="41.2159070" lon="-8.7151190">
        <ele>11.9</ele>
        <time>2021-05-16T07:27:48Z</time>
      </trkpt>
      <trkpt lat="41.2159230" lon="-8.7151220">
        <ele>11.9</ele>
        <time>2021-05-16T07:27:49Z</time>
      </trkpt>
      <trkpt lat="41.2159360" lon="-8.7151270">
        <ele>11.9</ele>
        <time>2021-05-16T07:27:50Z</time>
      </trkpt>
      <trkpt lat="41.2159490" lon="-8.7151300">
        <ele>11.9</ele>
        <time>2021-05-16T07:27:51Z</time>
      </trkpt>
      <trkpt lat="41.2159650" lon="-8.7151330">
        <ele>11.9</ele>
        <time>2021-05-16T07:27:52Z</time>
      </trkpt>
      <trkpt lat="41.2159810" lon="-8.7151360">
        <ele>11.8</ele>
        <time>2021-05-16T07:27:53Z</time>
      </trkpt>
      <trkpt lat="41.2159960" lon="-8.7151380">
        <ele>11.8</ele>
        <time>2021-05-16T07:27:54Z</time>
      </trkpt>
      <trkpt lat="41.2160160" lon="-8.7151430">
        <ele>11.8</ele>
        <time>2021-05-16T07:27:55Z</time>
      </trkpt>
      <trkpt lat="41.2160250" lon="-8.7151490">
        <ele>11.8</ele>
        <time>2021-05-16T07:27:56Z</time>
      </trkpt>
      <trkpt lat="41.2160340" lon="-8.7151540">
        <ele>11.8</ele>
        <time>2021-05-16T07:27:57Z</time>
      </trkpt>
      <trkpt lat="41.2160460" lon="-8.7151550">
        <ele>11.8</ele>
        <time>2021-05-16T07:27:58Z</time>
      </trkpt>
      <trkpt lat="41.2160610" lon="-8.7151590">
        <ele>11.8</ele>
        <time>2021-05-16T07:27:59Z</time>
      </trkpt>
      <trkpt lat="41.2160770" lon="-8.7151630">
        <ele>11.8</ele>
        <time>2021-05-16T07:28:00Z</time>
      </trkpt>
      <trkpt lat="41.2160910" lon="-8.7151680">
        <ele>11.8</ele>
        <time>2021-05-16T07:28:01Z</time>
      </trkpt>
      <trkpt lat="41.2161020" lon="-8.7151800">
        <ele>11.8</ele>
        <time>2021-05-16T07:28:02Z</time>
      </trkpt>
      <trkpt lat="41.2161150" lon="-8.7151950">
        <ele>11.8</ele>
        <time>2021-05-16T07:28:03Z</time>
      </trkpt>
      <trkpt lat="41.2161300" lon="-8.7152050">
        <ele>11.8</ele>
        <time>2021-05-16T07:28:04Z</time>
      </trkpt>
      <trkpt lat="41.2161440" lon="-8.7152170">
        <ele>11.8</ele>
        <time>2021-05-16T07:28:05Z</time>
      </trkpt>
      <trkpt lat="41.2161670" lon="-8.7152200">
        <ele>11.8</ele>
        <time>2021-05-16T07:28:06Z</time>
      </trkpt>
      <trkpt lat="41.2161760" lon="-8.7152180">
        <ele>11.8</ele>
        <time>2021-05-16T07:28:07Z</time>
      </trkpt>
      <trkpt lat="41.2161850" lon="-8.7152170">
        <ele>11.7</ele>
        <time>2021-05-16T07:28:08Z</time>
      </trkpt>
      <trkpt lat="41.2162040" lon="-8.7152150">
        <ele>11.7</ele>
        <time>2021-05-16T07:28:09Z</time>
      </trkpt>
      <trkpt lat="41.2162180" lon="-8.7152250">
        <ele>11.7</ele>
        <time>2021-05-16T07:28:10Z</time>
      </trkpt>
      <trkpt lat="41.2162330" lon="-8.7152340">
        <ele>11.7</ele>
        <time>2021-05-16T07:28:11Z</time>
      </trkpt>
      <trkpt lat="41.2162480" lon="-8.7152330">
        <ele>11.7</ele>
        <time>2021-05-16T07:28:12Z</time>
      </trkpt>
      <trkpt lat="41.2162650" lon="-8.7152250">
        <ele>11.7</ele>
        <time>2021-05-16T07:28:13Z</time>
      </trkpt>
      <trkpt lat="41.2162790" lon="-8.7152230">
        <ele>11.7</ele>
        <time>2021-05-16T07:28:14Z</time>
      </trkpt>
      <trkpt lat="41.2162940" lon="-8.7152250">
        <ele>11.7</ele>
        <time>2021-05-16T07:28:15Z</time>
      </trkpt>
      <trkpt lat="41.2163100" lon="-8.7152230">
        <ele>11.7</ele>
        <time>2021-05-16T07:28:16Z</time>
      </trkpt>
      <trkpt lat="41.2163260" lon="-8.7152180">
        <ele>11.7</ele>
        <time>2021-05-16T07:28:17Z</time>
      </trkpt>
      <trkpt lat="41.2163370" lon="-8.7152110">
        <ele>11.7</ele>
        <time>2021-05-16T07:28:18Z</time>
      </trkpt>
      <trkpt lat="41.2163460" lon="-8.7152000">
        <ele>11.7</ele>
        <time>2021-05-16T07:28:19Z</time>
      </trkpt>
      <trkpt lat="41.2163510" lon="-8.7151910">
        <ele>11.7</ele>
        <time>2021-05-16T07:28:20Z</time>
      </trkpt>
      <trkpt lat="41.2163600" lon="-8.7151820">
        <ele>11.6</ele>
        <time>2021-05-16T07:28:21Z</time>
      </trkpt>
      <trkpt lat="41.2163730" lon="-8.7151700">
        <ele>11.6</ele>
        <time>2021-05-16T07:28:22Z</time>
      </trkpt>
      <trkpt lat="41.2163850" lon="-8.7151630">
        <ele>11.6</ele>
        <time>2021-05-16T07:28:23Z</time>
      </trkpt>
      <trkpt lat="41.2164010" lon="-8.7151540">
        <ele>11.6</ele>
        <time>2021-05-16T07:28:24Z</time>
      </trkpt>
      <trkpt lat="41.2164120" lon="-8.7151450">
        <ele>11.6</ele>
        <time>2021-05-16T07:28:25Z</time>
      </trkpt>
      <trkpt lat="41.2164270" lon="-8.7151330">
        <ele>11.6</ele>
        <time>2021-05-16T07:28:26Z</time>
      </trkpt>
      <trkpt lat="41.2164400" lon="-8.7151270">
        <ele>11.6</ele>
        <time>2021-05-16T07:28:27Z</time>
      </trkpt>
      <trkpt lat="41.2164540" lon="-8.7151210">
        <ele>11.6</ele>
        <time>2021-05-16T07:28:28Z</time>
      </trkpt>
      <trkpt lat="41.2164720" lon="-8.7151190">
        <ele>11.6</ele>
        <time>2021-05-16T07:28:29Z</time>
      </trkpt>
      <trkpt lat="41.2164850" lon="-8.7151160">
        <ele>11.5</ele>
        <time>2021-05-16T07:28:30Z</time>
      </trkpt>
      <trkpt lat="41.2165000" lon="-8.7151120">
        <ele>11.5</ele>
        <time>2021-05-16T07:28:31Z</time>
      </trkpt>
      <trkpt lat="41.2165220" lon="-8.7151020">
        <ele>11.5</ele>
        <time>2021-05-16T07:28:32Z</time>
      </trkpt>
      <trkpt lat="41.2165290" lon="-8.7150990">
        <ele>11.5</ele>
        <time>2021-05-16T07:28:33Z</time>
      </trkpt>
      <trkpt lat="41.2165360" lon="-8.7150960">
        <ele>11.5</ele>
        <time>2021-05-16T07:28:34Z</time>
      </trkpt>
      <trkpt lat="41.2165560" lon="-8.7150860">
        <ele>11.5</ele>
        <time>2021-05-16T07:28:35Z</time>
      </trkpt>
      <trkpt lat="41.2165640" lon="-8.7150810">
        <ele>11.5</ele>
        <time>2021-05-16T07:28:36Z</time>
      </trkpt>
      <trkpt lat="41.2165730" lon="-8.7150750">
        <ele>11.5</ele>
        <time>2021-05-16T07:28:37Z</time>
      </trkpt>
      <trkpt lat="41.2165850" lon="-8.7150720">
        <ele>11.5</ele>
        <time>2021-05-16T07:28:38Z</time>
      </trkpt>
      <trkpt lat="41.2165990" lon="-8.7150640">
        <ele>11.5</ele>
        <time>2021-05-16T07:28:39Z</time>
      </trkpt>
      <trkpt lat="41.2166140" lon="-8.7150550">
        <ele>11.5</ele>
        <time>2021-05-16T07:28:40Z</time>
      </trkpt>
      <trkpt lat="41.2166260" lon="-8.7150450">
        <ele>11.4</ele>
        <time>2021-05-16T07:28:41Z</time>
      </trkpt>
      <trkpt lat="41.2166380" lon="-8.7150390">
        <ele>11.4</ele>
        <time>2021-05-16T07:28:42Z</time>
      </trkpt>
      <trkpt lat="41.2166440" lon="-8.7150330">
        <ele>11.4</ele>
        <time>2021-05-16T07:28:43Z</time>
      </trkpt>
      <trkpt lat="41.2166570" lon="-8.7150210">
        <ele>11.4</ele>
        <time>2021-05-16T07:28:44Z</time>
      </trkpt>
      <trkpt lat="41.2166650" lon="-8.7150180">
        <ele>11.4</ele>
        <time>2021-05-16T07:28:45Z</time>
      </trkpt>
      <trkpt lat="41.2166840" lon="-8.7150050">
        <ele>11.4</ele>
        <time>2021-05-16T07:28:46Z</time>
      </trkpt>
      <trkpt lat="41.2167050" lon="-8.7150060">
        <ele>11.4</ele>
        <time>2021-05-16T07:28:47Z</time>
      </trkpt>
      <trkpt lat="41.2167150" lon="-8.7150060">
        <ele>11.4</ele>
        <time>2021-05-16T07:28:48Z</time>
      </trkpt>
      <trkpt lat="41.2167240" lon="-8.7150070">
        <ele>11.4</ele>
        <time>2021-05-16T07:28:49Z</time>
      </trkpt>
      <trkpt lat="41.2167430" lon="-8.7149960">
        <ele>11.4</ele>
        <time>2021-05-16T07:28:50Z</time>
      </trkpt>
      <trkpt lat="41.2167520" lon="-8.7149850">
        <ele>11.4</ele>
        <time>2021-05-16T07:28:51Z</time>
      </trkpt>
      <trkpt lat="41.2167600" lon="-8.7149750">
        <ele>11.4</ele>
        <time>2021-05-16T07:28:52Z</time>
      </trkpt>
      <trkpt lat="41.2167760" lon="-8.7149680">
        <ele>11.4</ele>
        <time>2021-05-16T07:28:53Z</time>
      </trkpt>
      <trkpt lat="41.2167860" lon="-8.7149570">
        <ele>11.4</ele>
        <time>2021-05-16T07:28:54Z</time>
      </trkpt>
      <trkpt lat="41.2167980" lon="-8.7149470">
        <ele>11.4</ele>
        <time>2021-05-16T07:28:55Z</time>
      </trkpt>
      <trkpt lat="41.2168120" lon="-8.7149370">
        <ele>11.4</ele>
        <time>2021-05-16T07:28:56Z</time>
      </trkpt>
      <trkpt lat="41.2168210" lon="-8.7149250">
        <ele>11.4</ele>
        <time>2021-05-16T07:28:57Z</time>
      </trkpt>
      <trkpt lat="41.2168330" lon="-8.7149140">
        <ele>11.4</ele>
        <time>2021-05-16T07:28:58Z</time>
      </trkpt>
      <trkpt lat="41.2168430" lon="-8.7148990">
        <ele>11.4</ele>
        <time>2021-05-16T07:28:59Z</time>
      </trkpt>
      <trkpt lat="41.2168560" lon="-8.7148930">
        <ele>11.4</ele>
        <time>2021-05-16T07:29:00Z</time>
      </trkpt>
      <trkpt lat="41.2168720" lon="-8.7148740">
        <ele>11.4</ele>
        <time>2021-05-16T07:29:01Z</time>
      </trkpt>
      <trkpt lat="41.2168790" lon="-8.7148660">
        <ele>11.4</ele>
        <time>2021-05-16T07:29:02Z</time>
      </trkpt>
      <trkpt lat="41.2168860" lon="-8.7148570">
        <ele>11.4</ele>
        <time>2021-05-16T07:29:03Z</time>
      </trkpt>
      <trkpt lat="41.2168980" lon="-8.7148490">
        <ele>11.4</ele>
        <time>2021-05-16T07:29:04Z</time>
      </trkpt>
      <trkpt lat="41.2169100" lon="-8.7148380">
        <ele>11.4</ele>
        <time>2021-05-16T07:29:05Z</time>
      </trkpt>
      <trkpt lat="41.2169210" lon="-8.7148300">
        <ele>11.4</ele>
        <time>2021-05-16T07:29:06Z</time>
      </trkpt>
      <trkpt lat="41.2169350" lon="-8.7148150">
        <ele>11.4</ele>
        <time>2021-05-16T07:29:07Z</time>
      </trkpt>
      <trkpt lat="41.2169530" lon="-8.7148000">
        <ele>11.4</ele>
        <time>2021-05-16T07:29:08Z</time>
      </trkpt>
      <trkpt lat="41.2169590" lon="-8.7147930">
        <ele>11.4</ele>
        <time>2021-05-16T07:29:09Z</time>
      </trkpt>
      <trkpt lat="41.2169660" lon="-8.7147860">
        <ele>11.4</ele>
        <time>2021-05-16T07:29:10Z</time>
      </trkpt>
      <trkpt lat="41.2169810" lon="-8.7147690">
        <ele>11.4</ele>
        <time>2021-05-16T07:29:11Z</time>
      </trkpt>
      <trkpt lat="41.2169900" lon="-8.7147620">
        <ele>11.4</ele>
        <time>2021-05-16T07:29:12Z</time>
      </trkpt>
      <trkpt lat="41.2170060" lon="-8.7147470">
        <ele>11.4</ele>
        <time>2021-05-16T07:29:13Z</time>
      </trkpt>
      <trkpt lat="41.2170180" lon="-8.7147410">
        <ele>11.4</ele>
        <time>2021-05-16T07:29:14Z</time>
      </trkpt>
      <trkpt lat="41.2170270" lon="-8.7147300">
        <ele>11.3</ele>
        <time>2021-05-16T07:29:15Z</time>
      </trkpt>
      <trkpt lat="41.2170320" lon="-8.7147280">
        <ele>11.3</ele>
        <time>2021-05-16T07:29:16Z</time>
      </trkpt>
      <trkpt lat="41.2170420" lon="-8.7147230">
        <ele>11.3</ele>
        <time>2021-05-16T07:29:17Z</time>
      </trkpt>
      <trkpt lat="41.2170530" lon="-8.7147090">
        <ele>11.3</ele>
        <time>2021-05-16T07:29:18Z</time>
      </trkpt>
      <trkpt lat="41.2170650" lon="-8.7146980">
        <ele>11.3</ele>
        <time>2021-05-16T07:29:19Z</time>
      </trkpt>
      <trkpt lat="41.2170740" lon="-8.7146850">
        <ele>11.3</ele>
        <time>2021-05-16T07:29:20Z</time>
      </trkpt>
      <trkpt lat="41.2170870" lon="-8.7146700">
        <ele>11.3</ele>
        <time>2021-05-16T07:29:21Z</time>
      </trkpt>
      <trkpt lat="41.2170960" lon="-8.7146590">
        <ele>11.3</ele>
        <time>2021-05-16T07:29:22Z</time>
      </trkpt>
      <trkpt lat="41.2171090" lon="-8.7146480">
        <ele>11.3</ele>
        <time>2021-05-16T07:29:23Z</time>
      </trkpt>
      <trkpt lat="41.2171230" lon="-8.7146300">
        <ele>11.3</ele>
        <time>2021-05-16T07:29:24Z</time>
      </trkpt>
      <trkpt lat="41.2171300" lon="-8.7146210">
        <ele>11.3</ele>
        <time>2021-05-16T07:29:25Z</time>
      </trkpt>
      <trkpt lat="41.2171370" lon="-8.7146130">
        <ele>11.3</ele>
        <time>2021-05-16T07:29:26Z</time>
      </trkpt>
      <trkpt lat="41.2171440" lon="-8.7146090">
        <ele>11.3</ele>
        <time>2021-05-16T07:29:27Z</time>
      </trkpt>
      <trkpt lat="41.2171520" lon="-8.7146020">
        <ele>11.3</ele>
        <time>2021-05-16T07:29:28Z</time>
      </trkpt>
      <trkpt lat="41.2171540" lon="-8.7146000">
        <ele>11.3</ele>
        <time>2021-05-16T07:29:29Z</time>
      </trkpt>
      <trkpt lat="41.2171580" lon="-8.7145930">
        <ele>11.3</ele>
        <time>2021-05-16T07:29:30Z</time>
      </trkpt>
      <trkpt lat="41.2171640" lon="-8.7145850">
        <ele>11.3</ele>
        <time>2021-05-16T07:29:31Z</time>
      </trkpt>
      <trkpt lat="41.2171630" lon="-8.7145760">
        <ele>11.3</ele>
        <time>2021-05-16T07:29:32Z</time>
      </trkpt>
      <trkpt lat="41.2171640" lon="-8.7145620">
        <ele>11.3</ele>
        <time>2021-05-16T07:29:33Z</time>
      </trkpt>
      <trkpt lat="41.2171650" lon="-8.7145490">
        <ele>11.3</ele>
        <time>2021-05-16T07:29:34Z</time>
      </trkpt>
      <trkpt lat="41.2171650" lon="-8.7145460">
        <ele>11.3</ele>
        <time>2021-05-16T07:29:35Z</time>
      </trkpt>
      <trkpt lat="41.2171650" lon="-8.7145500">
        <ele>11.3</ele>
        <time>2021-05-16T07:29:36Z</time>
      </trkpt>
      <trkpt lat="41.2171660" lon="-8.7145470">
        <ele>11.3</ele>
        <time>2021-05-16T07:29:37Z</time>
      </trkpt>
      <trkpt lat="41.2171670" lon="-8.7145480">
        <ele>11.3</ele>
        <time>2021-05-16T07:29:38Z</time>
      </trkpt>
      <trkpt lat="41.2171690" lon="-8.7145490">
        <ele>11.3</ele>
        <time>2021-05-16T07:29:39Z</time>
      </trkpt>
      <trkpt lat="41.2171710" lon="-8.7145490">
        <ele>11.3</ele>
        <time>2021-05-16T07:29:40Z</time>
      </trkpt>
      <trkpt lat="41.2171700" lon="-8.7145520">
        <ele>11.3</ele>
        <time>2021-05-16T07:29:41Z</time>
      </trkpt>
      <trkpt lat="41.2171710" lon="-8.7145500">
        <ele>11.3</ele>
        <time>2021-05-16T07:29:42Z</time>
      </trkpt>
      <trkpt lat="41.2171710" lon="-8.7145480">
        <ele>11.3</ele>
        <time>2021-05-16T07:29:43Z</time>
      </trkpt>
      <trkpt lat="41.2171710" lon="-8.7145470">
        <ele>11.3</ele>
        <time>2021-05-16T07:29:44Z</time>
      </trkpt>
      <trkpt lat="41.2171710" lon="-8.7145450">
        <ele>11.3</ele>
        <time>2021-05-16T07:29:45Z</time>
      </trkpt>
      <trkpt lat="41.2171700" lon="-8.7145460">
        <ele>11.3</ele>
        <time>2021-05-16T07:29:46Z</time>
      </trkpt>
      <trkpt lat="41.2171680" lon="-8.7145450">
        <ele>11.3</ele>
        <time>2021-05-16T07:29:47Z</time>
      </trkpt>
      <trkpt lat="41.2171700" lon="-8.7145450">
        <ele>11.3</ele>
        <time>2021-05-16T07:29:48Z</time>
      </trkpt>
      <trkpt lat="41.2171690" lon="-8.7145430">
        <ele>11.3</ele>
        <time>2021-05-16T07:29:49Z</time>
      </trkpt>
      <trkpt lat="41.2171710" lon="-8.7145450">
        <ele>11.3</ele>
        <time>2021-05-16T07:29:50Z</time>
      </trkpt>
      <trkpt lat="41.2171730" lon="-8.7145440">
        <ele>11.3</ele>
        <time>2021-05-16T07:29:51Z</time>
      </trkpt>
      <trkpt lat="41.2171740" lon="-8.7145460">
        <ele>11.3</ele>
        <time>2021-05-16T07:29:52Z</time>
      </trkpt>
      <trkpt lat="41.2171790" lon="-8.7145510">
        <ele>11.3</ele>
        <time>2021-05-16T07:29:53Z</time>
      </trkpt>
      <trkpt lat="41.2171820" lon="-8.7145600">
        <ele>11.3</ele>
        <time>2021-05-16T07:29:54Z</time>
      </trkpt>
      <trkpt lat="41.2171850" lon="-8.7145620">
        <ele>11.3</ele>
        <time>2021-05-16T07:29:55Z</time>
      </trkpt>
      <trkpt lat="41.2171890" lon="-8.7145620">
        <ele>11.3</ele>
        <time>2021-05-16T07:29:56Z</time>
      </trkpt>
      <trkpt lat="41.2171950" lon="-8.7145650">
        <ele>11.3</ele>
        <time>2021-05-16T07:29:57Z</time>
      </trkpt>
      <trkpt lat="41.2172000" lon="-8.7145620">
        <ele>11.3</ele>
        <time>2021-05-16T07:29:58Z</time>
      </trkpt>
      <trkpt lat="41.2172030" lon="-8.7145570">
        <ele>11.3</ele>
        <time>2021-05-16T07:29:59Z</time>
      </trkpt>
      <trkpt lat="41.2172060" lon="-8.7145520">
        <ele>11.3</ele>
        <time>2021-05-16T07:30:00Z</time>
      </trkpt>
      <trkpt lat="41.2172090" lon="-8.7145470">
        <ele>11.3</ele>
        <time>2021-05-16T07:30:01Z</time>
      </trkpt>
      <trkpt lat="41.2172110" lon="-8.7145420">
        <ele>11.3</ele>
        <time>2021-05-16T07:30:02Z</time>
      </trkpt>
      <trkpt lat="41.2172140" lon="-8.7145370">
        <ele>11.3</ele>
        <time>2021-05-16T07:30:03Z</time>
      </trkpt>
      <trkpt lat="41.2172170" lon="-8.7145320">
        <ele>11.3</ele>
        <time>2021-05-16T07:30:04Z</time>
      </trkpt>
      <trkpt lat="41.2172200" lon="-8.7145270">
        <ele>11.3</ele>
        <time>2021-05-16T07:30:05Z</time>
      </trkpt>
      <trkpt lat="41.2172330" lon="-8.7145070">
        <ele>11.3</ele>
        <time>2021-05-16T07:30:06Z</time>
      </trkpt>
      <trkpt lat="41.2172400" lon="-8.7144990">
        <ele>11.3</ele>
        <time>2021-05-16T07:30:07Z</time>
      </trkpt>
      <trkpt lat="41.2172460" lon="-8.7144920">
        <ele>11.3</ele>
        <time>2021-05-16T07:30:08Z</time>
      </trkpt>
      <trkpt lat="41.2172550" lon="-8.7144850">
        <ele>11.3</ele>
        <time>2021-05-16T07:30:09Z</time>
      </trkpt>
      <trkpt lat="41.2172700" lon="-8.7144720">
        <ele>11.3</ele>
        <time>2021-05-16T07:30:10Z</time>
      </trkpt>
      <trkpt lat="41.2172810" lon="-8.7144710">
        <ele>11.3</ele>
        <time>2021-05-16T07:30:11Z</time>
      </trkpt>
      <trkpt lat="41.2173000" lon="-8.7144530">
        <ele>11.3</ele>
        <time>2021-05-16T07:30:12Z</time>
      </trkpt>
      <trkpt lat="41.2173050" lon="-8.7144420">
        <ele>11.3</ele>
        <time>2021-05-16T07:30:13Z</time>
      </trkpt>
      <trkpt lat="41.2173210" lon="-8.7144260">
        <ele>11.3</ele>
        <time>2021-05-16T07:30:14Z</time>
      </trkpt>
      <trkpt lat="41.2173310" lon="-8.7144230">
        <ele>11.3</ele>
        <time>2021-05-16T07:30:15Z</time>
      </trkpt>
      <trkpt lat="41.2173450" lon="-8.7144090">
        <ele>11.3</ele>
        <time>2021-05-16T07:30:16Z</time>
      </trkpt>
      <trkpt lat="41.2173590" lon="-8.7143940">
        <ele>11.3</ele>
        <time>2021-05-16T07:30:17Z</time>
      </trkpt>
      <trkpt lat="41.2173680" lon="-8.7143860">
        <ele>11.3</ele>
        <time>2021-05-16T07:30:18Z</time>
      </trkpt>
      <trkpt lat="41.2173760" lon="-8.7143790">
        <ele>11.3</ele>
        <time>2021-05-16T07:30:19Z</time>
      </trkpt>
      <trkpt lat="41.2173920" lon="-8.7143640">
        <ele>11.3</ele>
        <time>2021-05-16T07:30:20Z</time>
      </trkpt>
      <trkpt lat="41.2173990" lon="-8.7143560">
        <ele>11.3</ele>
        <time>2021-05-16T07:30:21Z</time>
      </trkpt>
      <trkpt lat="41.2174050" lon="-8.7143480">
        <ele>11.3</ele>
        <time>2021-05-16T07:30:22Z</time>
      </trkpt>
      <trkpt lat="41.2174190" lon="-8.7143280">
        <ele>11.3</ele>
        <time>2021-05-16T07:30:23Z</time>
      </trkpt>
      <trkpt lat="41.2174280" lon="-8.7143140">
        <ele>11.3</ele>
        <time>2021-05-16T07:30:24Z</time>
      </trkpt>
      <trkpt lat="41.2174390" lon="-8.7143020">
        <ele>11.3</ele>
        <time>2021-05-16T07:30:25Z</time>
      </trkpt>
      <trkpt lat="41.2174500" lon="-8.7142900">
        <ele>11.3</ele>
        <time>2021-05-16T07:30:26Z</time>
      </trkpt>
      <trkpt lat="41.2174670" lon="-8.7142740">
        <ele>11.3</ele>
        <time>2021-05-16T07:30:27Z</time>
      </trkpt>
      <trkpt lat="41.2174760" lon="-8.7142680">
        <ele>11.3</ele>
        <time>2021-05-16T07:30:28Z</time>
      </trkpt>
      <trkpt lat="41.2174840" lon="-8.7142620">
        <ele>11.3</ele>
        <time>2021-05-16T07:30:29Z</time>
      </trkpt>
      <trkpt lat="41.2174980" lon="-8.7142520">
        <ele>11.3</ele>
        <time>2021-05-16T07:30:30Z</time>
      </trkpt>
      <trkpt lat="41.2175100" lon="-8.7142400">
        <ele>11.3</ele>
        <time>2021-05-16T07:30:31Z</time>
      </trkpt>
      <trkpt lat="41.2175280" lon="-8.7142280">
        <ele>11.3</ele>
        <time>2021-05-16T07:30:32Z</time>
      </trkpt>
      <trkpt lat="41.2175340" lon="-8.7142200">
        <ele>11.3</ele>
        <time>2021-05-16T07:30:33Z</time>
      </trkpt>
      <trkpt lat="41.2175410" lon="-8.7142120">
        <ele>11.3</ele>
        <time>2021-05-16T07:30:34Z</time>
      </trkpt>
      <trkpt lat="41.2175560" lon="-8.7142000">
        <ele>11.3</ele>
        <time>2021-05-16T07:30:35Z</time>
      </trkpt>
      <trkpt lat="41.2175640" lon="-8.7141940">
        <ele>11.3</ele>
        <time>2021-05-16T07:30:36Z</time>
      </trkpt>
      <trkpt lat="41.2175730" lon="-8.7141880">
        <ele>11.3</ele>
        <time>2021-05-16T07:30:37Z</time>
      </trkpt>
      <trkpt lat="41.2175850" lon="-8.7141750">
        <ele>11.3</ele>
        <time>2021-05-16T07:30:38Z</time>
      </trkpt>
      <trkpt lat="41.2175940" lon="-8.7141640">
        <ele>11.3</ele>
        <time>2021-05-16T07:30:39Z</time>
      </trkpt>
      <trkpt lat="41.2175980" lon="-8.7141560">
        <ele>11.3</ele>
        <time>2021-05-16T07:30:40Z</time>
      </trkpt>
      <trkpt lat="41.2176110" lon="-8.7141480">
        <ele>11.3</ele>
        <time>2021-05-16T07:30:41Z</time>
      </trkpt>
      <trkpt lat="41.2176170" lon="-8.7141360">
        <ele>11.3</ele>
        <time>2021-05-16T07:30:42Z</time>
      </trkpt>
      <trkpt lat="41.2176250" lon="-8.7141230">
        <ele>11.3</ele>
        <time>2021-05-16T07:30:43Z</time>
      </trkpt>
      <trkpt lat="41.2176380" lon="-8.7141100">
        <ele>11.3</ele>
        <time>2021-05-16T07:30:44Z</time>
      </trkpt>
      <trkpt lat="41.2176490" lon="-8.7141010">
        <ele>11.3</ele>
        <time>2021-05-16T07:30:45Z</time>
      </trkpt>
      <trkpt lat="41.2176620" lon="-8.7140830">
        <ele>11.3</ele>
        <time>2021-05-16T07:30:46Z</time>
      </trkpt>
      <trkpt lat="41.2176730" lon="-8.7140700">
        <ele>11.3</ele>
        <time>2021-05-16T07:30:47Z</time>
      </trkpt>
      <trkpt lat="41.2176800" lon="-8.7140600">
        <ele>11.3</ele>
        <time>2021-05-16T07:30:48Z</time>
      </trkpt>
      <trkpt lat="41.2176860" lon="-8.7140500">
        <ele>11.3</ele>
        <time>2021-05-16T07:30:49Z</time>
      </trkpt>
      <trkpt lat="41.2176970" lon="-8.7140350">
        <ele>11.3</ele>
        <time>2021-05-16T07:30:50Z</time>
      </trkpt>
      <trkpt lat="41.2177080" lon="-8.7140180">
        <ele>11.3</ele>
        <time>2021-05-16T07:30:51Z</time>
      </trkpt>
      <trkpt lat="41.2177180" lon="-8.7139960">
        <ele>11.3</ele>
        <time>2021-05-16T07:30:52Z</time>
      </trkpt>
      <trkpt lat="41.2177290" lon="-8.7139790">
        <ele>11.3</ele>
        <time>2021-05-16T07:30:53Z</time>
      </trkpt>
      <trkpt lat="41.2177390" lon="-8.7139620">
        <ele>11.2</ele>
        <time>2021-05-16T07:30:54Z</time>
      </trkpt>
      <trkpt lat="41.2177500" lon="-8.7139470">
        <ele>11.2</ele>
        <time>2021-05-16T07:30:55Z</time>
      </trkpt>
      <trkpt lat="41.2177570" lon="-8.7139310">
        <ele>11.2</ele>
        <time>2021-05-16T07:30:56Z</time>
      </trkpt>
      <trkpt lat="41.2177670" lon="-8.7139150">
        <ele>11.2</ele>
        <time>2021-05-16T07:30:57Z</time>
      </trkpt>
      <trkpt lat="41.2177740" lon="-8.7138950">
        <ele>11.2</ele>
        <time>2021-05-16T07:30:58Z</time>
      </trkpt>
      <trkpt lat="41.2177840" lon="-8.7138780">
        <ele>11.2</ele>
        <time>2021-05-16T07:30:59Z</time>
      </trkpt>
      <trkpt lat="41.2177940" lon="-8.7138620">
        <ele>11.2</ele>
        <time>2021-05-16T07:31:00Z</time>
      </trkpt>
      <trkpt lat="41.2178060" lon="-8.7138380">
        <ele>11.3</ele>
        <time>2021-05-16T07:31:01Z</time>
      </trkpt>
      <trkpt lat="41.2178120" lon="-8.7138300">
        <ele>11.3</ele>
        <time>2021-05-16T07:31:02Z</time>
      </trkpt>
      <trkpt lat="41.2178180" lon="-8.7138230">
        <ele>11.3</ele>
        <time>2021-05-16T07:31:03Z</time>
      </trkpt>
      <trkpt lat="41.2178250" lon="-8.7138140">
        <ele>11.3</ele>
        <time>2021-05-16T07:31:04Z</time>
      </trkpt>
      <trkpt lat="41.2178340" lon="-8.7138090">
        <ele>11.3</ele>
        <time>2021-05-16T07:31:05Z</time>
      </trkpt>
      <trkpt lat="41.2178380" lon="-8.7137960">
        <ele>11.3</ele>
        <time>2021-05-16T07:31:06Z</time>
      </trkpt>
      <trkpt lat="41.2178480" lon="-8.7137780">
        <ele>11.3</ele>
        <time>2021-05-16T07:31:07Z</time>
      </trkpt>
      <trkpt lat="41.2178540" lon="-8.7137630">
        <ele>11.3</ele>
        <time>2021-05-16T07:31:08Z</time>
      </trkpt>
      <trkpt lat="41.2178600" lon="-8.7137570">
        <ele>11.3</ele>
        <time>2021-05-16T07:31:09Z</time>
      </trkpt>
      <trkpt lat="41.2178700" lon="-8.7137450">
        <ele>11.3</ele>
        <time>2021-05-16T07:31:10Z</time>
      </trkpt>
      <trkpt lat="41.2178770" lon="-8.7137340">
        <ele>11.3</ele>
        <time>2021-05-16T07:31:11Z</time>
      </trkpt>
      <trkpt lat="41.2178820" lon="-8.7137240">
        <ele>11.3</ele>
        <time>2021-05-16T07:31:12Z</time>
      </trkpt>
      <trkpt lat="41.2178900" lon="-8.7137060">
        <ele>11.3</ele>
        <time>2021-05-16T07:31:13Z</time>
      </trkpt>
      <trkpt lat="41.2178970" lon="-8.7137030">
        <ele>11.3</ele>
        <time>2021-05-16T07:31:14Z</time>
      </trkpt>
      <trkpt lat="41.2179080" lon="-8.7137020">
        <ele>11.3</ele>
        <time>2021-05-16T07:31:15Z</time>
      </trkpt>
      <trkpt lat="41.2179050" lon="-8.7136910">
        <ele>11.3</ele>
        <time>2021-05-16T07:31:16Z</time>
      </trkpt>
      <trkpt lat="41.2179050" lon="-8.7136840">
        <ele>11.3</ele>
        <time>2021-05-16T07:31:17Z</time>
      </trkpt>
      <trkpt lat="41.2179000" lon="-8.7136850">
        <ele>11.3</ele>
        <time>2021-05-16T07:31:18Z</time>
      </trkpt>
      <trkpt lat="41.2178970" lon="-8.7136680">
        <ele>11.3</ele>
        <time>2021-05-16T07:31:19Z</time>
      </trkpt>
      <trkpt lat="41.2178930" lon="-8.7136580">
        <ele>11.3</ele>
        <time>2021-05-16T07:31:20Z</time>
      </trkpt>
      <trkpt lat="41.2178940" lon="-8.7136440">
        <ele>11.3</ele>
        <time>2021-05-16T07:31:21Z</time>
      </trkpt>
      <trkpt lat="41.2179000" lon="-8.7136300">
        <ele>11.3</ele>
        <time>2021-05-16T07:31:22Z</time>
      </trkpt>
      <trkpt lat="41.2179220" lon="-8.7136140">
        <ele>11.3</ele>
        <time>2021-05-16T07:31:23Z</time>
      </trkpt>
      <trkpt lat="41.2179300" lon="-8.7136070">
        <ele>11.3</ele>
        <time>2021-05-16T07:31:24Z</time>
      </trkpt>
      <trkpt lat="41.2179380" lon="-8.7135990">
        <ele>11.3</ele>
        <time>2021-05-16T07:31:25Z</time>
      </trkpt>
      <trkpt lat="41.2179510" lon="-8.7135930">
        <ele>11.3</ele>
        <time>2021-05-16T07:31:26Z</time>
      </trkpt>
      <trkpt lat="41.2179610" lon="-8.7135750">
        <ele>11.3</ele>
        <time>2021-05-16T07:31:27Z</time>
      </trkpt>
      <trkpt lat="41.2179700" lon="-8.7135680">
        <ele>11.3</ele>
        <time>2021-05-16T07:31:28Z</time>
      </trkpt>
      <trkpt lat="41.2179780" lon="-8.7135560">
        <ele>11.3</ele>
        <time>2021-05-16T07:31:29Z</time>
      </trkpt>
      <trkpt lat="41.2179840" lon="-8.7135480">
        <ele>11.3</ele>
        <time>2021-05-16T07:31:30Z</time>
      </trkpt>
      <trkpt lat="41.2179930" lon="-8.7135380">
        <ele>11.3</ele>
        <time>2021-05-16T07:31:31Z</time>
      </trkpt>
      <trkpt lat="41.2179990" lon="-8.7135150">
        <ele>11.4</ele>
        <time>2021-05-16T07:31:32Z</time>
      </trkpt>
      <trkpt lat="41.2180090" lon="-8.7134980">
        <ele>11.4</ele>
        <time>2021-05-16T07:31:33Z</time>
      </trkpt>
      <trkpt lat="41.2180120" lon="-8.7134800">
        <ele>11.4</ele>
        <time>2021-05-16T07:31:34Z</time>
      </trkpt>
      <trkpt lat="41.2180280" lon="-8.7134620">
        <ele>11.5</ele>
        <time>2021-05-16T07:31:35Z</time>
      </trkpt>
      <trkpt lat="41.2180370" lon="-8.7134580">
        <ele>11.5</ele>
        <time>2021-05-16T07:31:36Z</time>
      </trkpt>
      <trkpt lat="41.2180460" lon="-8.7134550">
        <ele>11.5</ele>
        <time>2021-05-16T07:31:37Z</time>
      </trkpt>
      <trkpt lat="41.2180610" lon="-8.7134400">
        <ele>11.6</ele>
        <time>2021-05-16T07:31:38Z</time>
      </trkpt>
      <trkpt lat="41.2180690" lon="-8.7134290">
        <ele>11.6</ele>
        <time>2021-05-16T07:31:39Z</time>
      </trkpt>
      <trkpt lat="41.2180780" lon="-8.7134190">
        <ele>11.7</ele>
        <time>2021-05-16T07:31:40Z</time>
      </trkpt>
      <trkpt lat="41.2180890" lon="-8.7134020">
        <ele>11.7</ele>
        <time>2021-05-16T07:31:41Z</time>
      </trkpt>
      <trkpt lat="41.2180950" lon="-8.7133880">
        <ele>11.8</ele>
        <time>2021-05-16T07:31:42Z</time>
      </trkpt>
      <trkpt lat="41.2181000" lon="-8.7133730">
        <ele>11.8</ele>
        <time>2021-05-16T07:31:43Z</time>
      </trkpt>
      <trkpt lat="41.2181080" lon="-8.7133550">
        <ele>11.9</ele>
        <time>2021-05-16T07:31:44Z</time>
      </trkpt>
      <trkpt lat="41.2181230" lon="-8.7133410">
        <ele>11.9</ele>
        <time>2021-05-16T07:31:45Z</time>
      </trkpt>
      <trkpt lat="41.2181300" lon="-8.7133300">
        <ele>12.0</ele>
        <time>2021-05-16T07:31:46Z</time>
      </trkpt>
      <trkpt lat="41.2181450" lon="-8.7133020">
        <ele>12.0</ele>
        <time>2021-05-16T07:31:47Z</time>
      </trkpt>
      <trkpt lat="41.2181520" lon="-8.7132840">
        <ele>12.1</ele>
        <time>2021-05-16T07:31:48Z</time>
      </trkpt>
      <trkpt lat="41.2181590" lon="-8.7132660">
        <ele>12.1</ele>
        <time>2021-05-16T07:31:49Z</time>
      </trkpt>
      <trkpt lat="41.2181680" lon="-8.7132480">
        <ele>12.4</ele>
        <time>2021-05-16T07:31:50Z</time>
      </trkpt>
      <trkpt lat="41.2181720" lon="-8.7132320">
        <ele>12.4</ele>
        <time>2021-05-16T07:31:51Z</time>
      </trkpt>
      <trkpt lat="41.2181760" lon="-8.7132170">
        <ele>12.4</ele>
        <time>2021-05-16T07:31:52Z</time>
      </trkpt>
      <trkpt lat="41.2181800" lon="-8.7132050">
        <ele>12.4</ele>
        <time>2021-05-16T07:31:53Z</time>
      </trkpt>
      <trkpt lat="41.2181860" lon="-8.7132030">
        <ele>12.4</ele>
        <time>2021-05-16T07:31:54Z</time>
      </trkpt>
      <trkpt lat="41.2181870" lon="-8.7131990">
        <ele>12.4</ele>
        <time>2021-05-16T07:31:56Z</time>
      </trkpt>
      <trkpt lat="41.2181960" lon="-8.7131830">
        <ele>12.4</ele>
        <time>2021-05-16T07:31:57Z</time>
      </trkpt>
      <trkpt lat="41.2182080" lon="-8.7131760">
        <ele>12.4</ele>
        <time>2021-05-16T07:31:58Z</time>
      </trkpt>
      <trkpt lat="41.2182190" lon="-8.7131650">
        <ele>12.4</ele>
        <time>2021-05-16T07:31:59Z</time>
      </trkpt>
      <trkpt lat="41.2182330" lon="-8.7131610">
        <ele>12.4</ele>
        <time>2021-05-16T07:32:00Z</time>
      </trkpt>
      <trkpt lat="41.2182630" lon="-8.7131510">
        <ele>12.4</ele>
        <time>2021-05-16T07:32:01Z</time>
      </trkpt>
      <trkpt lat="41.2182700" lon="-8.7131470">
        <ele>12.4</ele>
        <time>2021-05-16T07:32:02Z</time>
      </trkpt>
      <trkpt lat="41.2182830" lon="-8.7131400">
        <ele>12.4</ele>
        <time>2021-05-16T07:32:03Z</time>
      </trkpt>
      <trkpt lat="41.2182950" lon="-8.7131470">
        <ele>12.4</ele>
        <time>2021-05-16T07:32:04Z</time>
      </trkpt>
      <trkpt lat="41.2183060" lon="-8.7131430">
        <ele>12.4</ele>
        <time>2021-05-16T07:32:05Z</time>
      </trkpt>
      <trkpt lat="41.2183220" lon="-8.7131400">
        <ele>12.4</ele>
        <time>2021-05-16T07:32:07Z</time>
      </trkpt>
      <trkpt lat="41.2183380" lon="-8.7131340">
        <ele>12.4</ele>
        <time>2021-05-16T07:32:08Z</time>
      </trkpt>
      <trkpt lat="41.2183570" lon="-8.7131320">
        <ele>12.4</ele>
        <time>2021-05-16T07:32:09Z</time>
      </trkpt>
      <trkpt lat="41.2183740" lon="-8.7131300">
        <ele>12.4</ele>
        <time>2021-05-16T07:32:10Z</time>
      </trkpt>
      <trkpt lat="41.2183900" lon="-8.7131270">
        <ele>12.4</ele>
        <time>2021-05-16T07:32:11Z</time>
      </trkpt>
      <trkpt lat="41.2184020" lon="-8.7131290">
        <ele>12.4</ele>
        <time>2021-05-16T07:32:12Z</time>
      </trkpt>
      <trkpt lat="41.2184250" lon="-8.7131280">
        <ele>12.4</ele>
        <time>2021-05-16T07:32:13Z</time>
      </trkpt>
      <trkpt lat="41.2184360" lon="-8.7131260">
        <ele>12.4</ele>
        <time>2021-05-16T07:32:14Z</time>
      </trkpt>
      <trkpt lat="41.2184460" lon="-8.7131230">
        <ele>12.4</ele>
        <time>2021-05-16T07:32:15Z</time>
      </trkpt>
      <trkpt lat="41.2184600" lon="-8.7131230">
        <ele>12.4</ele>
        <time>2021-05-16T07:32:16Z</time>
      </trkpt>
      <trkpt lat="41.2184770" lon="-8.7131220">
        <ele>12.4</ele>
        <time>2021-05-16T07:32:17Z</time>
      </trkpt>
      <trkpt lat="41.2184920" lon="-8.7131190">
        <ele>12.5</ele>
        <time>2021-05-16T07:32:18Z</time>
      </trkpt>
      <trkpt lat="41.2185080" lon="-8.7131120">
        <ele>12.5</ele>
        <time>2021-05-16T07:32:19Z</time>
      </trkpt>
      <trkpt lat="41.2185250" lon="-8.7131020">
        <ele>12.5</ele>
        <time>2021-05-16T07:32:20Z</time>
      </trkpt>
      <trkpt lat="41.2185400" lon="-8.7130950">
        <ele>12.5</ele>
        <time>2021-05-16T07:32:21Z</time>
      </trkpt>
      <trkpt lat="41.2185550" lon="-8.7130910">
        <ele>12.5</ele>
        <time>2021-05-16T07:32:22Z</time>
      </trkpt>
      <trkpt lat="41.2185710" lon="-8.7130860">
        <ele>12.5</ele>
        <time>2021-05-16T07:32:23Z</time>
      </trkpt>
      <trkpt lat="41.2185840" lon="-8.7130770">
        <ele>12.5</ele>
        <time>2021-05-16T07:32:24Z</time>
      </trkpt>
      <trkpt lat="41.2185970" lon="-8.7130670">
        <ele>12.5</ele>
        <time>2021-05-16T07:32:25Z</time>
      </trkpt>
      <trkpt lat="41.2186120" lon="-8.7130630">
        <ele>12.5</ele>
        <time>2021-05-16T07:32:26Z</time>
      </trkpt>
      <trkpt lat="41.2186260" lon="-8.7130520">
        <ele>12.5</ele>
        <time>2021-05-16T07:32:27Z</time>
      </trkpt>
      <trkpt lat="41.2186400" lon="-8.7130360">
        <ele>12.5</ele>
        <time>2021-05-16T07:32:28Z</time>
      </trkpt>
      <trkpt lat="41.2186470" lon="-8.7130140">
        <ele>12.5</ele>
        <time>2021-05-16T07:32:29Z</time>
      </trkpt>
      <trkpt lat="41.2186480" lon="-8.7129770">
        <ele>12.5</ele>
        <time>2021-05-16T07:32:30Z</time>
      </trkpt>
      <trkpt lat="41.2186470" lon="-8.7129650">
        <ele>12.5</ele>
        <time>2021-05-16T07:32:31Z</time>
      </trkpt>
      <trkpt lat="41.2186500" lon="-8.7129430">
        <ele>12.5</ele>
        <time>2021-05-16T07:32:32Z</time>
      </trkpt>
      <trkpt lat="41.2186480" lon="-8.7129210">
        <ele>12.5</ele>
        <time>2021-05-16T07:32:33Z</time>
      </trkpt>
      <trkpt lat="41.2186460" lon="-8.7129020">
        <ele>12.6</ele>
        <time>2021-05-16T07:32:34Z</time>
      </trkpt>
      <trkpt lat="41.2186450" lon="-8.7128830">
        <ele>12.6</ele>
        <time>2021-05-16T07:32:35Z</time>
      </trkpt>
      <trkpt lat="41.2186440" lon="-8.7128640">
        <ele>12.6</ele>
        <time>2021-05-16T07:32:36Z</time>
      </trkpt>
      <trkpt lat="41.2186450" lon="-8.7128440">
        <ele>12.6</ele>
        <time>2021-05-16T07:32:37Z</time>
      </trkpt>
      <trkpt lat="41.2186440" lon="-8.7128220">
        <ele>12.7</ele>
        <time>2021-05-16T07:32:38Z</time>
      </trkpt>
      <trkpt lat="41.2186440" lon="-8.7128050">
        <ele>12.7</ele>
        <time>2021-05-16T07:32:39Z</time>
      </trkpt>
      <trkpt lat="41.2186410" lon="-8.7127850">
        <ele>12.7</ele>
        <time>2021-05-16T07:32:40Z</time>
      </trkpt>
      <trkpt lat="41.2186380" lon="-8.7127650">
        <ele>12.7</ele>
        <time>2021-05-16T07:32:41Z</time>
      </trkpt>
      <trkpt lat="41.2186430" lon="-8.7127460">
        <ele>12.7</ele>
        <time>2021-05-16T07:32:42Z</time>
      </trkpt>
      <trkpt lat="41.2186530" lon="-8.7127290">
        <ele>12.8</ele>
        <time>2021-05-16T07:32:43Z</time>
      </trkpt>
      <trkpt lat="41.2186670" lon="-8.7127170">
        <ele>12.8</ele>
        <time>2021-05-16T07:32:44Z</time>
      </trkpt>
      <trkpt lat="41.2186830" lon="-8.7127110">
        <ele>12.8</ele>
        <time>2021-05-16T07:32:45Z</time>
      </trkpt>
      <trkpt lat="41.2187050" lon="-8.7127190">
        <ele>12.8</ele>
        <time>2021-05-16T07:32:46Z</time>
      </trkpt>
      <trkpt lat="41.2187150" lon="-8.7127190">
        <ele>12.8</ele>
        <time>2021-05-16T07:32:47Z</time>
      </trkpt>
      <trkpt lat="41.2187250" lon="-8.7127200">
        <ele>12.8</ele>
        <time>2021-05-16T07:32:48Z</time>
      </trkpt>
      <trkpt lat="41.2187450" lon="-8.7127230">
        <ele>12.7</ele>
        <time>2021-05-16T07:32:49Z</time>
      </trkpt>
      <trkpt lat="41.2187560" lon="-8.7127220">
        <ele>12.7</ele>
        <time>2021-05-16T07:32:50Z</time>
      </trkpt>
      <trkpt lat="41.2187840" lon="-8.7127150">
        <ele>12.7</ele>
        <time>2021-05-16T07:32:51Z</time>
      </trkpt>
      <trkpt lat="41.2187920" lon="-8.7127130">
        <ele>12.7</ele>
        <time>2021-05-16T07:32:52Z</time>
      </trkpt>
      <trkpt lat="41.2188070" lon="-8.7127150">
        <ele>12.7</ele>
        <time>2021-05-16T07:32:53Z</time>
      </trkpt>
      <trkpt lat="41.2188220" lon="-8.7127210">
        <ele>12.7</ele>
        <time>2021-05-16T07:32:54Z</time>
      </trkpt>
      <trkpt lat="41.2188380" lon="-8.7127340">
        <ele>12.7</ele>
        <time>2021-05-16T07:32:55Z</time>
      </trkpt>
      <trkpt lat="41.2188530" lon="-8.7127450">
        <ele>12.7</ele>
        <time>2021-05-16T07:32:56Z</time>
      </trkpt>
      <trkpt lat="41.2188650" lon="-8.7127510">
        <ele>12.7</ele>
        <time>2021-05-16T07:32:57Z</time>
      </trkpt>
      <trkpt lat="41.2188800" lon="-8.7127560">
        <ele>12.6</ele>
        <time>2021-05-16T07:32:58Z</time>
      </trkpt>
      <trkpt lat="41.2189000" lon="-8.7127620">
        <ele>12.6</ele>
        <time>2021-05-16T07:32:59Z</time>
      </trkpt>
      <trkpt lat="41.2189090" lon="-8.7127610">
        <ele>12.6</ele>
        <time>2021-05-16T07:33:00Z</time>
      </trkpt>
      <trkpt lat="41.2189170" lon="-8.7127600">
        <ele>12.6</ele>
        <time>2021-05-16T07:33:01Z</time>
      </trkpt>
      <trkpt lat="41.2189360" lon="-8.7127580">
        <ele>12.6</ele>
        <time>2021-05-16T07:33:02Z</time>
      </trkpt>
      <trkpt lat="41.2189420" lon="-8.7127550">
        <ele>12.6</ele>
        <time>2021-05-16T07:33:03Z</time>
      </trkpt>
      <trkpt lat="41.2189530" lon="-8.7127530">
        <ele>12.6</ele>
        <time>2021-05-16T07:33:04Z</time>
      </trkpt>
      <trkpt lat="41.2189700" lon="-8.7127500">
        <ele>12.6</ele>
        <time>2021-05-16T07:33:05Z</time>
      </trkpt>
      <trkpt lat="41.2189850" lon="-8.7127520">
        <ele>12.6</ele>
        <time>2021-05-16T07:33:06Z</time>
      </trkpt>
      <trkpt lat="41.2189980" lon="-8.7127500">
        <ele>12.5</ele>
        <time>2021-05-16T07:33:07Z</time>
      </trkpt>
      <trkpt lat="41.2189920" lon="-8.7127410">
        <ele>12.5</ele>
        <time>2021-05-16T07:33:08Z</time>
      </trkpt>
      <trkpt lat="41.2189960" lon="-8.7127390">
        <ele>12.5</ele>
        <time>2021-05-16T07:33:09Z</time>
      </trkpt>
      <trkpt lat="41.2190040" lon="-8.7127430">
        <ele>12.5</ele>
        <time>2021-05-16T07:33:10Z</time>
      </trkpt>
      <trkpt lat="41.2190120" lon="-8.7127400">
        <ele>12.5</ele>
        <time>2021-05-16T07:33:11Z</time>
      </trkpt>
      <trkpt lat="41.2190250" lon="-8.7127370">
        <ele>12.5</ele>
        <time>2021-05-16T07:33:12Z</time>
      </trkpt>
      <trkpt lat="41.2190480" lon="-8.7127320">
        <ele>12.5</ele>
        <time>2021-05-16T07:33:13Z</time>
      </trkpt>
      <trkpt lat="41.2190780" lon="-8.7127250">
        <ele>12.4</ele>
        <time>2021-05-16T07:33:14Z</time>
      </trkpt>
      <trkpt lat="41.2190870" lon="-8.7127260">
        <ele>12.4</ele>
        <time>2021-05-16T07:33:15Z</time>
      </trkpt>
      <trkpt lat="41.2191010" lon="-8.7127210">
        <ele>12.4</ele>
        <time>2021-05-16T07:33:16Z</time>
      </trkpt>
      <trkpt lat="41.2191150" lon="-8.7127150">
        <ele>12.4</ele>
        <time>2021-05-16T07:33:17Z</time>
      </trkpt>
      <trkpt lat="41.2191300" lon="-8.7127080">
        <ele>12.4</ele>
        <time>2021-05-16T07:33:18Z</time>
      </trkpt>
      <trkpt lat="41.2191440" lon="-8.7127050">
        <ele>12.4</ele>
        <time>2021-05-16T07:33:19Z</time>
      </trkpt>
      <trkpt lat="41.2191760" lon="-8.7126960">
        <ele>12.3</ele>
        <time>2021-05-16T07:33:20Z</time>
      </trkpt>
      <trkpt lat="41.2191840" lon="-8.7126930">
        <ele>12.3</ele>
        <time>2021-05-16T07:33:21Z</time>
      </trkpt>
      <trkpt lat="41.2191990" lon="-8.7126800">
        <ele>12.3</ele>
        <time>2021-05-16T07:33:22Z</time>
      </trkpt>
      <trkpt lat="41.2192160" lon="-8.7126770">
        <ele>12.3</ele>
        <time>2021-05-16T07:33:23Z</time>
      </trkpt>
      <trkpt lat="41.2192290" lon="-8.7126740">
        <ele>12.3</ele>
        <time>2021-05-16T07:33:24Z</time>
      </trkpt>
      <trkpt lat="41.2192450" lon="-8.7126770">
        <ele>12.2</ele>
        <time>2021-05-16T07:33:25Z</time>
      </trkpt>
      <trkpt lat="41.2192630" lon="-8.7126760">
        <ele>12.2</ele>
        <time>2021-05-16T07:33:26Z</time>
      </trkpt>
      <trkpt lat="41.2192780" lon="-8.7126690">
        <ele>12.2</ele>
        <time>2021-05-16T07:33:27Z</time>
      </trkpt>
      <trkpt lat="41.2192950" lon="-8.7126680">
        <ele>12.2</ele>
        <time>2021-05-16T07:33:28Z</time>
      </trkpt>
      <trkpt lat="41.2193130" lon="-8.7126600">
        <ele>12.1</ele>
        <time>2021-05-16T07:33:29Z</time>
      </trkpt>
      <trkpt lat="41.2193310" lon="-8.7126550">
        <ele>12.1</ele>
        <time>2021-05-16T07:33:30Z</time>
      </trkpt>
      <trkpt lat="41.2193440" lon="-8.7126540">
        <ele>12.1</ele>
        <time>2021-05-16T07:33:31Z</time>
      </trkpt>
      <trkpt lat="41.2193640" lon="-8.7126550">
        <ele>12.1</ele>
        <time>2021-05-16T07:33:32Z</time>
      </trkpt>
      <trkpt lat="41.2193780" lon="-8.7126540">
        <ele>12.1</ele>
        <time>2021-05-16T07:33:33Z</time>
      </trkpt>
      <trkpt lat="41.2194020" lon="-8.7126530">
        <ele>12.0</ele>
        <time>2021-05-16T07:33:34Z</time>
      </trkpt>
      <trkpt lat="41.2194130" lon="-8.7126530">
        <ele>12.0</ele>
        <time>2021-05-16T07:33:35Z</time>
      </trkpt>
      <trkpt lat="41.2194230" lon="-8.7126520">
        <ele>12.0</ele>
        <time>2021-05-16T07:33:36Z</time>
      </trkpt>
      <trkpt lat="41.2194350" lon="-8.7126490">
        <ele>12.0</ele>
        <time>2021-05-16T07:33:37Z</time>
      </trkpt>
      <trkpt lat="41.2194510" lon="-8.7126540">
        <ele>12.0</ele>
        <time>2021-05-16T07:33:38Z</time>
      </trkpt>
      <trkpt lat="41.2194650" lon="-8.7126540">
        <ele>12.0</ele>
        <time>2021-05-16T07:33:39Z</time>
      </trkpt>
      <trkpt lat="41.2194750" lon="-8.7126500">
        <ele>12.0</ele>
        <time>2021-05-16T07:33:40Z</time>
      </trkpt>
      <trkpt lat="41.2194850" lon="-8.7126500">
        <ele>12.0</ele>
        <time>2021-05-16T07:33:41Z</time>
      </trkpt>
      <trkpt lat="41.2195040" lon="-8.7126460">
        <ele>11.9</ele>
        <time>2021-05-16T07:33:42Z</time>
      </trkpt>
      <trkpt lat="41.2195170" lon="-8.7126410">
        <ele>11.9</ele>
        <time>2021-05-16T07:33:43Z</time>
      </trkpt>
      <trkpt lat="41.2195400" lon="-8.7126500">
        <ele>11.8</ele>
        <time>2021-05-16T07:33:44Z</time>
      </trkpt>
      <trkpt lat="41.2195470" lon="-8.7126560">
        <ele>11.8</ele>
        <time>2021-05-16T07:33:45Z</time>
      </trkpt>
      <trkpt lat="41.2195540" lon="-8.7126620">
        <ele>11.8</ele>
        <time>2021-05-16T07:33:46Z</time>
      </trkpt>
      <trkpt lat="41.2195630" lon="-8.7126740">
        <ele>11.8</ele>
        <time>2021-05-16T07:33:47Z</time>
      </trkpt>
      <trkpt lat="41.2195790" lon="-8.7126810">
        <ele>11.7</ele>
        <time>2021-05-16T07:33:48Z</time>
      </trkpt>
      <trkpt lat="41.2195910" lon="-8.7126870">
        <ele>11.7</ele>
        <time>2021-05-16T07:33:49Z</time>
      </trkpt>
      <trkpt lat="41.2196080" lon="-8.7126930">
        <ele>11.6</ele>
        <time>2021-05-16T07:33:50Z</time>
      </trkpt>
      <trkpt lat="41.2196430" lon="-8.7127050">
        <ele>11.6</ele>
        <time>2021-05-16T07:33:51Z</time>
      </trkpt>
      <trkpt lat="41.2196550" lon="-8.7127120">
        <ele>11.5</ele>
        <time>2021-05-16T07:33:52Z</time>
      </trkpt>
      <trkpt lat="41.2196670" lon="-8.7127090">
        <ele>11.5</ele>
        <time>2021-05-16T07:33:53Z</time>
      </trkpt>
      <trkpt lat="41.2196850" lon="-8.7127110">
        <ele>11.5</ele>
        <time>2021-05-16T07:33:55Z</time>
      </trkpt>
      <trkpt lat="41.2197130" lon="-8.7127110">
        <ele>11.4</ele>
        <time>2021-05-16T07:33:56Z</time>
      </trkpt>
      <trkpt lat="41.2197230" lon="-8.7127120">
        <ele>11.4</ele>
        <time>2021-05-16T07:33:57Z</time>
      </trkpt>
      <trkpt lat="41.2197390" lon="-8.7127100">
        <ele>11.3</ele>
        <time>2021-05-16T07:33:58Z</time>
      </trkpt>
      <trkpt lat="41.2197540" lon="-8.7127110">
        <ele>11.3</ele>
        <time>2021-05-16T07:33:59Z</time>
      </trkpt>
      <trkpt lat="41.2197740" lon="-8.7127120">
        <ele>11.3</ele>
        <time>2021-05-16T07:34:00Z</time>
      </trkpt>
      <trkpt lat="41.2197870" lon="-8.7127120">
        <ele>11.2</ele>
        <time>2021-05-16T07:34:01Z</time>
      </trkpt>
      <trkpt lat="41.2197990" lon="-8.7127110">
        <ele>11.2</ele>
        <time>2021-05-16T07:34:02Z</time>
      </trkpt>
      <trkpt lat="41.2198280" lon="-8.7127200">
        <ele>11.1</ele>
        <time>2021-05-16T07:34:03Z</time>
      </trkpt>
      <trkpt lat="41.2198350" lon="-8.7127260">
        <ele>11.1</ele>
        <time>2021-05-16T07:34:04Z</time>
      </trkpt>
      <trkpt lat="41.2198480" lon="-8.7127340">
        <ele>11.1</ele>
        <time>2021-05-16T07:34:05Z</time>
      </trkpt>
      <trkpt lat="41.2198600" lon="-8.7127480">
        <ele>11.1</ele>
        <time>2021-05-16T07:34:06Z</time>
      </trkpt>
      <trkpt lat="41.2198730" lon="-8.7127500">
        <ele>11.0</ele>
        <time>2021-05-16T07:34:07Z</time>
      </trkpt>
      <trkpt lat="41.2198930" lon="-8.7127580">
        <ele>11.0</ele>
        <time>2021-05-16T07:34:08Z</time>
      </trkpt>
      <trkpt lat="41.2199120" lon="-8.7127670">
        <ele>11.0</ele>
        <time>2021-05-16T07:34:09Z</time>
      </trkpt>
      <trkpt lat="41.2199210" lon="-8.7127730">
        <ele>10.9</ele>
        <time>2021-05-16T07:34:10Z</time>
      </trkpt>
      <trkpt lat="41.2199300" lon="-8.7127780">
        <ele>10.9</ele>
        <time>2021-05-16T07:34:11Z</time>
      </trkpt>
      <trkpt lat="41.2199400" lon="-8.7127890">
        <ele>10.9</ele>
        <time>2021-05-16T07:34:12Z</time>
      </trkpt>
      <trkpt lat="41.2199500" lon="-8.7127980">
        <ele>10.9</ele>
        <time>2021-05-16T07:34:13Z</time>
      </trkpt>
      <trkpt lat="41.2199570" lon="-8.7128010">
        <ele>10.9</ele>
        <time>2021-05-16T07:34:14Z</time>
      </trkpt>
      <trkpt lat="41.2199680" lon="-8.7128090">
        <ele>10.9</ele>
        <time>2021-05-16T07:34:15Z</time>
      </trkpt>
      <trkpt lat="41.2199740" lon="-8.7128170">
        <ele>10.8</ele>
        <time>2021-05-16T07:34:16Z</time>
      </trkpt>
      <trkpt lat="41.2199830" lon="-8.7128260">
        <ele>10.8</ele>
        <time>2021-05-16T07:34:17Z</time>
      </trkpt>
      <trkpt lat="41.2199900" lon="-8.7128340">
        <ele>10.8</ele>
        <time>2021-05-16T07:34:18Z</time>
      </trkpt>
      <trkpt lat="41.2200010" lon="-8.7128370">
        <ele>10.8</ele>
        <time>2021-05-16T07:34:19Z</time>
      </trkpt>
      <trkpt lat="41.2200100" lon="-8.7128390">
        <ele>10.8</ele>
        <time>2021-05-16T07:34:20Z</time>
      </trkpt>
      <trkpt lat="41.2200290" lon="-8.7128480">
        <ele>10.7</ele>
        <time>2021-05-16T07:34:21Z</time>
      </trkpt>
      <trkpt lat="41.2200440" lon="-8.7128550">
        <ele>10.7</ele>
        <time>2021-05-16T07:34:22Z</time>
      </trkpt>
      <trkpt lat="41.2200580" lon="-8.7128590">
        <ele>10.6</ele>
        <time>2021-05-16T07:34:23Z</time>
      </trkpt>
      <trkpt lat="41.2200760" lon="-8.7128690">
        <ele>10.6</ele>
        <time>2021-05-16T07:34:24Z</time>
      </trkpt>
      <trkpt lat="41.2200830" lon="-8.7128700">
        <ele>10.6</ele>
        <time>2021-05-16T07:34:25Z</time>
      </trkpt>
      <trkpt lat="41.2201120" lon="-8.7128800">
        <ele>10.5</ele>
        <time>2021-05-16T07:34:26Z</time>
      </trkpt>
      <trkpt lat="41.2201400" lon="-8.7128860">
        <ele>10.4</ele>
        <time>2021-05-16T07:34:27Z</time>
      </trkpt>
      <trkpt lat="41.2201740" lon="-8.7129000">
        <ele>10.3</ele>
        <time>2021-05-16T07:34:28Z</time>
      </trkpt>
      <trkpt lat="41.2201840" lon="-8.7129060">
        <ele>10.3</ele>
        <time>2021-05-16T07:34:29Z</time>
      </trkpt>
      <trkpt lat="41.2201990" lon="-8.7129100">
        <ele>10.3</ele>
        <time>2021-05-16T07:34:30Z</time>
      </trkpt>
      <trkpt lat="41.2202140" lon="-8.7129220">
        <ele>10.2</ele>
        <time>2021-05-16T07:34:31Z</time>
      </trkpt>
      <trkpt lat="41.2202300" lon="-8.7129320">
        <ele>10.2</ele>
        <time>2021-05-16T07:34:32Z</time>
      </trkpt>
      <trkpt lat="41.2202420" lon="-8.7129450">
        <ele>10.1</ele>
        <time>2021-05-16T07:34:33Z</time>
      </trkpt>
      <trkpt lat="41.2202500" lon="-8.7129580">
        <ele>10.1</ele>
        <time>2021-05-16T07:34:34Z</time>
      </trkpt>
      <trkpt lat="41.2202670" lon="-8.7129690">
        <ele>10.0</ele>
        <time>2021-05-16T07:34:35Z</time>
      </trkpt>
      <trkpt lat="41.2202780" lon="-8.7129890">
        <ele>10.0</ele>
        <time>2021-05-16T07:34:36Z</time>
      </trkpt>
      <trkpt lat="41.2202860" lon="-8.7130040">
        <ele>10.0</ele>
        <time>2021-05-16T07:34:37Z</time>
      </trkpt>
      <trkpt lat="41.2202990" lon="-8.7130110">
        <ele>9.9</ele>
        <time>2021-05-16T07:34:38Z</time>
      </trkpt>
      <trkpt lat="41.2203130" lon="-8.7130250">
        <ele>9.9</ele>
        <time>2021-05-16T07:34:39Z</time>
      </trkpt>
      <trkpt lat="41.2203270" lon="-8.7130340">
        <ele>9.8</ele>
        <time>2021-05-16T07:34:40Z</time>
      </trkpt>
      <trkpt lat="41.2203440" lon="-8.7130500">
        <ele>9.8</ele>
        <time>2021-05-16T07:34:41Z</time>
      </trkpt>
      <trkpt lat="41.2203590" lon="-8.7130620">
        <ele>9.7</ele>
        <time>2021-05-16T07:34:42Z</time>
      </trkpt>
      <trkpt lat="41.2203750" lon="-8.7130710">
        <ele>9.7</ele>
        <time>2021-05-16T07:34:43Z</time>
      </trkpt>
      <trkpt lat="41.2204020" lon="-8.7130780">
        <ele>9.6</ele>
        <time>2021-05-16T07:34:44Z</time>
      </trkpt>
      <trkpt lat="41.2204120" lon="-8.7130830">
        <ele>9.6</ele>
        <time>2021-05-16T07:34:45Z</time>
      </trkpt>
      <trkpt lat="41.2204260" lon="-8.7131040">
        <ele>9.5</ele>
        <time>2021-05-16T07:34:46Z</time>
      </trkpt>
      <trkpt lat="41.2204330" lon="-8.7131110">
        <ele>9.5</ele>
        <time>2021-05-16T07:34:47Z</time>
      </trkpt>
      <trkpt lat="41.2204400" lon="-8.7131190">
        <ele>9.5</ele>
        <time>2021-05-16T07:34:48Z</time>
      </trkpt>
      <trkpt lat="41.2204670" lon="-8.7131380">
        <ele>9.4</ele>
        <time>2021-05-16T07:34:49Z</time>
      </trkpt>
      <trkpt lat="41.2204750" lon="-8.7131440">
        <ele>9.4</ele>
        <time>2021-05-16T07:34:50Z</time>
      </trkpt>
      <trkpt lat="41.2204960" lon="-8.7131570">
        <ele>9.4</ele>
        <time>2021-05-16T07:34:51Z</time>
      </trkpt>
      <trkpt lat="41.2205060" lon="-8.7131660">
        <ele>9.3</ele>
        <time>2021-05-16T07:34:52Z</time>
      </trkpt>
      <trkpt lat="41.2205170" lon="-8.7131750">
        <ele>9.3</ele>
        <time>2021-05-16T07:34:53Z</time>
      </trkpt>
      <trkpt lat="41.2205360" lon="-8.7131880">
        <ele>9.3</ele>
        <time>2021-05-16T07:34:54Z</time>
      </trkpt>
      <trkpt lat="41.2205440" lon="-8.7131960">
        <ele>9.2</ele>
        <time>2021-05-16T07:34:55Z</time>
      </trkpt>
      <trkpt lat="41.2205520" lon="-8.7132030">
        <ele>9.2</ele>
        <time>2021-05-16T07:34:56Z</time>
      </trkpt>
      <trkpt lat="41.2205660" lon="-8.7132170">
        <ele>9.2</ele>
        <time>2021-05-16T07:34:57Z</time>
      </trkpt>
      <trkpt lat="41.2205780" lon="-8.7132350">
        <ele>9.2</ele>
        <time>2021-05-16T07:34:58Z</time>
      </trkpt>
      <trkpt lat="41.2205960" lon="-8.7132520">
        <ele>9.1</ele>
        <time>2021-05-16T07:34:59Z</time>
      </trkpt>
      <trkpt lat="41.2206030" lon="-8.7132580">
        <ele>9.1</ele>
        <time>2021-05-16T07:35:00Z</time>
      </trkpt>
      <trkpt lat="41.2206110" lon="-8.7132640">
        <ele>9.1</ele>
        <time>2021-05-16T07:35:01Z</time>
      </trkpt>
      <trkpt lat="41.2206200" lon="-8.7132770">
        <ele>9.1</ele>
        <time>2021-05-16T07:35:02Z</time>
      </trkpt>
      <trkpt lat="41.2206200" lon="-8.7132850">
        <ele>9.1</ele>
        <time>2021-05-16T07:35:03Z</time>
      </trkpt>
      <trkpt lat="41.2206340" lon="-8.7133000">
        <ele>9.0</ele>
        <time>2021-05-16T07:35:04Z</time>
      </trkpt>
      <trkpt lat="41.2206500" lon="-8.7133100">
        <ele>9.0</ele>
        <time>2021-05-16T07:35:05Z</time>
      </trkpt>
      <trkpt lat="41.2206590" lon="-8.7133180">
        <ele>9.0</ele>
        <time>2021-05-16T07:35:06Z</time>
      </trkpt>
      <trkpt lat="41.2206670" lon="-8.7133270">
        <ele>8.9</ele>
        <time>2021-05-16T07:35:07Z</time>
      </trkpt>
      <trkpt lat="41.2206900" lon="-8.7133420">
        <ele>8.9</ele>
        <time>2021-05-16T07:35:08Z</time>
      </trkpt>
      <trkpt lat="41.2207000" lon="-8.7133500">
        <ele>8.9</ele>
        <time>2021-05-16T07:35:09Z</time>
      </trkpt>
      <trkpt lat="41.2207100" lon="-8.7133580">
        <ele>8.9</ele>
        <time>2021-05-16T07:35:10Z</time>
      </trkpt>
      <trkpt lat="41.2207280" lon="-8.7133750">
        <ele>8.8</ele>
        <time>2021-05-16T07:35:11Z</time>
      </trkpt>
      <trkpt lat="41.2207350" lon="-8.7133830">
        <ele>8.8</ele>
        <time>2021-05-16T07:35:12Z</time>
      </trkpt>
      <trkpt lat="41.2207420" lon="-8.7133910">
        <ele>8.8</ele>
        <time>2021-05-16T07:35:13Z</time>
      </trkpt>
      <trkpt lat="41.2207560" lon="-8.7134000">
        <ele>8.8</ele>
        <time>2021-05-16T07:35:14Z</time>
      </trkpt>
      <trkpt lat="41.2207680" lon="-8.7134140">
        <ele>8.7</ele>
        <time>2021-05-16T07:35:15Z</time>
      </trkpt>
      <trkpt lat="41.2207770" lon="-8.7134240">
        <ele>8.7</ele>
        <time>2021-05-16T07:35:16Z</time>
      </trkpt>
      <trkpt lat="41.2207810" lon="-8.7134340">
        <ele>8.7</ele>
        <time>2021-05-16T07:35:17Z</time>
      </trkpt>
      <trkpt lat="41.2207940" lon="-8.7134470">
        <ele>8.7</ele>
        <time>2021-05-16T07:35:18Z</time>
      </trkpt>
      <trkpt lat="41.2208060" lon="-8.7134630">
        <ele>8.7</ele>
        <time>2021-05-16T07:35:19Z</time>
      </trkpt>
      <trkpt lat="41.2208210" lon="-8.7134760">
        <ele>8.6</ele>
        <time>2021-05-16T07:35:20Z</time>
      </trkpt>
      <trkpt lat="41.2208450" lon="-8.7134970">
        <ele>8.6</ele>
        <time>2021-05-16T07:35:21Z</time>
      </trkpt>
      <trkpt lat="41.2208510" lon="-8.7135060">
        <ele>8.6</ele>
        <time>2021-05-16T07:35:22Z</time>
      </trkpt>
      <trkpt lat="41.2208770" lon="-8.7135300">
        <ele>8.5</ele>
        <time>2021-05-16T07:35:23Z</time>
      </trkpt>
      <trkpt lat="41.2208840" lon="-8.7135400">
        <ele>8.5</ele>
        <time>2021-05-16T07:35:24Z</time>
      </trkpt>
      <trkpt lat="41.2209090" lon="-8.7135590">
        <ele>8.5</ele>
        <time>2021-05-16T07:35:25Z</time>
      </trkpt>
      <trkpt lat="41.2209200" lon="-8.7135630">
        <ele>8.5</ele>
        <time>2021-05-16T07:35:26Z</time>
      </trkpt>
      <trkpt lat="41.2209340" lon="-8.7135720">
        <ele>8.4</ele>
        <time>2021-05-16T07:35:27Z</time>
      </trkpt>
      <trkpt lat="41.2209490" lon="-8.7135850">
        <ele>8.4</ele>
        <time>2021-05-16T07:35:28Z</time>
      </trkpt>
      <trkpt lat="41.2209670" lon="-8.7136140">
        <ele>8.4</ele>
        <time>2021-05-16T07:35:29Z</time>
      </trkpt>
      <trkpt lat="41.2209760" lon="-8.7136220">
        <ele>8.4</ele>
        <time>2021-05-16T07:35:30Z</time>
      </trkpt>
      <trkpt lat="41.2209990" lon="-8.7136480">
        <ele>8.3</ele>
        <time>2021-05-16T07:35:31Z</time>
      </trkpt>
      <trkpt lat="41.2210060" lon="-8.7136560">
        <ele>8.3</ele>
        <time>2021-05-16T07:35:32Z</time>
      </trkpt>
      <trkpt lat="41.2210200" lon="-8.7136720">
        <ele>8.3</ele>
        <time>2021-05-16T07:35:33Z</time>
      </trkpt>
      <trkpt lat="41.2210350" lon="-8.7136820">
        <ele>8.3</ele>
        <time>2021-05-16T07:35:34Z</time>
      </trkpt>
      <trkpt lat="41.2210450" lon="-8.7137010">
        <ele>8.3</ele>
        <time>2021-05-16T07:35:35Z</time>
      </trkpt>
      <trkpt lat="41.2210600" lon="-8.7137140">
        <ele>8.3</ele>
        <time>2021-05-16T07:35:36Z</time>
      </trkpt>
      <trkpt lat="41.2210760" lon="-8.7137260">
        <ele>8.2</ele>
        <time>2021-05-16T07:35:37Z</time>
      </trkpt>
      <trkpt lat="41.2210880" lon="-8.7137420">
        <ele>8.2</ele>
        <time>2021-05-16T07:35:38Z</time>
      </trkpt>
      <trkpt lat="41.2211000" lon="-8.7137580">
        <ele>8.2</ele>
        <time>2021-05-16T07:35:39Z</time>
      </trkpt>
      <trkpt lat="41.2211130" lon="-8.7137730">
        <ele>8.2</ele>
        <time>2021-05-16T07:35:40Z</time>
      </trkpt>
      <trkpt lat="41.2211250" lon="-8.7137870">
        <ele>8.2</ele>
        <time>2021-05-16T07:35:41Z</time>
      </trkpt>
      <trkpt lat="41.2211370" lon="-8.7137960">
        <ele>8.2</ele>
        <time>2021-05-16T07:35:42Z</time>
      </trkpt>
      <trkpt lat="41.2211530" lon="-8.7138050">
        <ele>8.2</ele>
        <time>2021-05-16T07:35:43Z</time>
      </trkpt>
      <trkpt lat="41.2211660" lon="-8.7138090">
        <ele>8.2</ele>
        <time>2021-05-16T07:35:44Z</time>
      </trkpt>
      <trkpt lat="41.2211840" lon="-8.7138270">
        <ele>8.1</ele>
        <time>2021-05-16T07:35:45Z</time>
      </trkpt>
      <trkpt lat="41.2211910" lon="-8.7138360">
        <ele>8.1</ele>
        <time>2021-05-16T07:35:46Z</time>
      </trkpt>
      <trkpt lat="41.2211990" lon="-8.7138440">
        <ele>8.1</ele>
        <time>2021-05-16T07:35:47Z</time>
      </trkpt>
      <trkpt lat="41.2212050" lon="-8.7138680">
        <ele>8.1</ele>
        <time>2021-05-16T07:35:48Z</time>
      </trkpt>
      <trkpt lat="41.2212060" lon="-8.7138840">
        <ele>8.1</ele>
        <time>2021-05-16T07:35:49Z</time>
      </trkpt>
      <trkpt lat="41.2212090" lon="-8.7139040">
        <ele>8.2</ele>
        <time>2021-05-16T07:35:50Z</time>
      </trkpt>
      <trkpt lat="41.2212150" lon="-8.7139250">
        <ele>8.2</ele>
        <time>2021-05-16T07:35:51Z</time>
      </trkpt>
      <trkpt lat="41.2212240" lon="-8.7139260">
        <ele>8.2</ele>
        <time>2021-05-16T07:35:52Z</time>
      </trkpt>
      <trkpt lat="41.2212290" lon="-8.7139330">
        <ele>8.2</ele>
        <time>2021-05-16T07:35:53Z</time>
      </trkpt>
      <trkpt lat="41.2212400" lon="-8.7139390">
        <ele>8.2</ele>
        <time>2021-05-16T07:35:54Z</time>
      </trkpt>
      <trkpt lat="41.2212440" lon="-8.7139460">
        <ele>8.2</ele>
        <time>2021-05-16T07:35:55Z</time>
      </trkpt>
      <trkpt lat="41.2212530" lon="-8.7139490">
        <ele>8.2</ele>
        <time>2021-05-16T07:35:56Z</time>
      </trkpt>
      <trkpt lat="41.2212590" lon="-8.7139470">
        <ele>8.2</ele>
        <time>2021-05-16T07:35:57Z</time>
      </trkpt>
      <trkpt lat="41.2212690" lon="-8.7139490">
        <ele>8.2</ele>
        <time>2021-05-16T07:35:58Z</time>
      </trkpt>
      <trkpt lat="41.2212830" lon="-8.7139690">
        <ele>8.2</ele>
        <time>2021-05-16T07:35:59Z</time>
      </trkpt>
      <trkpt lat="41.2212920" lon="-8.7139830">
        <ele>8.2</ele>
        <time>2021-05-16T07:36:00Z</time>
      </trkpt>
      <trkpt lat="41.2213000" lon="-8.7139960">
        <ele>8.2</ele>
        <time>2021-05-16T07:36:01Z</time>
      </trkpt>
      <trkpt lat="41.2213060" lon="-8.7140130">
        <ele>8.2</ele>
        <time>2021-05-16T07:36:02Z</time>
      </trkpt>
      <trkpt lat="41.2213200" lon="-8.7140240">
        <ele>8.2</ele>
        <time>2021-05-16T07:36:03Z</time>
      </trkpt>
      <trkpt lat="41.2213310" lon="-8.7140420">
        <ele>8.2</ele>
        <time>2021-05-16T07:36:04Z</time>
      </trkpt>
      <trkpt lat="41.2213430" lon="-8.7140580">
        <ele>8.2</ele>
        <time>2021-05-16T07:36:05Z</time>
      </trkpt>
      <trkpt lat="41.2213600" lon="-8.7140750">
        <ele>8.2</ele>
        <time>2021-05-16T07:36:06Z</time>
      </trkpt>
      <trkpt lat="41.2213690" lon="-8.7140760">
        <ele>8.2</ele>
        <time>2021-05-16T07:36:07Z</time>
      </trkpt>
      <trkpt lat="41.2213770" lon="-8.7140760">
        <ele>8.2</ele>
        <time>2021-05-16T07:36:08Z</time>
      </trkpt>
      <trkpt lat="41.2213890" lon="-8.7140920">
        <ele>8.3</ele>
        <time>2021-05-16T07:36:09Z</time>
      </trkpt>
      <trkpt lat="41.2213980" lon="-8.7140990">
        <ele>8.3</ele>
        <time>2021-05-16T07:36:10Z</time>
      </trkpt>
      <trkpt lat="41.2214070" lon="-8.7141070">
        <ele>8.3</ele>
        <time>2021-05-16T07:36:11Z</time>
      </trkpt>
      <trkpt lat="41.2214250" lon="-8.7141130">
        <ele>8.3</ele>
        <time>2021-05-16T07:36:12Z</time>
      </trkpt>
      <trkpt lat="41.2214400" lon="-8.7141220">
        <ele>8.3</ele>
        <time>2021-05-16T07:36:13Z</time>
      </trkpt>
      <trkpt lat="41.2214520" lon="-8.7141280">
        <ele>8.3</ele>
        <time>2021-05-16T07:36:14Z</time>
      </trkpt>
      <trkpt lat="41.2214660" lon="-8.7141380">
        <ele>8.3</ele>
        <time>2021-05-16T07:36:15Z</time>
      </trkpt>
      <trkpt lat="41.2214790" lon="-8.7141530">
        <ele>8.3</ele>
        <time>2021-05-16T07:36:16Z</time>
      </trkpt>
      <trkpt lat="41.2214900" lon="-8.7141620">
        <ele>8.4</ele>
        <time>2021-05-16T07:36:17Z</time>
      </trkpt>
      <trkpt lat="41.2215030" lon="-8.7141700">
        <ele>8.4</ele>
        <time>2021-05-16T07:36:18Z</time>
      </trkpt>
      <trkpt lat="41.2215060" lon="-8.7141810">
        <ele>8.4</ele>
        <time>2021-05-16T07:36:19Z</time>
      </trkpt>
      <trkpt lat="41.2215140" lon="-8.7141970">
        <ele>8.4</ele>
        <time>2021-05-16T07:36:20Z</time>
      </trkpt>
      <trkpt lat="41.2215320" lon="-8.7142130">
        <ele>8.4</ele>
        <time>2021-05-16T07:36:21Z</time>
      </trkpt>
      <trkpt lat="41.2215410" lon="-8.7142210">
        <ele>8.4</ele>
        <time>2021-05-16T07:36:22Z</time>
      </trkpt>
      <trkpt lat="41.2215490" lon="-8.7142290">
        <ele>8.4</ele>
        <time>2021-05-16T07:36:23Z</time>
      </trkpt>
      <trkpt lat="41.2215600" lon="-8.7142370">
        <ele>8.5</ele>
        <time>2021-05-16T07:36:24Z</time>
      </trkpt>
      <trkpt lat="41.2215730" lon="-8.7142450">
        <ele>8.5</ele>
        <time>2021-05-16T07:36:25Z</time>
      </trkpt>
      <trkpt lat="41.2215890" lon="-8.7142540">
        <ele>8.5</ele>
        <time>2021-05-16T07:36:26Z</time>
      </trkpt>
      <trkpt lat="41.2216020" lon="-8.7142630">
        <ele>8.5</ele>
        <time>2021-05-16T07:36:27Z</time>
      </trkpt>
      <trkpt lat="41.2216210" lon="-8.7142680">
        <ele>8.5</ele>
        <time>2021-05-16T07:36:28Z</time>
      </trkpt>
      <trkpt lat="41.2216310" lon="-8.7142680">
        <ele>8.5</ele>
        <time>2021-05-16T07:36:29Z</time>
      </trkpt>
      <trkpt lat="41.2216400" lon="-8.7142690">
        <ele>8.5</ele>
        <time>2021-05-16T07:36:30Z</time>
      </trkpt>
      <trkpt lat="41.2216540" lon="-8.7142730">
        <ele>8.6</ele>
        <time>2021-05-16T07:36:31Z</time>
      </trkpt>
      <trkpt lat="41.2216600" lon="-8.7142810">
        <ele>8.6</ele>
        <time>2021-05-16T07:36:32Z</time>
      </trkpt>
      <trkpt lat="41.2216670" lon="-8.7142900">
        <ele>8.6</ele>
        <time>2021-05-16T07:36:33Z</time>
      </trkpt>
      <trkpt lat="41.2216790" lon="-8.7142980">
        <ele>8.6</ele>
        <time>2021-05-16T07:36:34Z</time>
      </trkpt>
      <trkpt lat="41.2216930" lon="-8.7143030">
        <ele>8.6</ele>
        <time>2021-05-16T07:36:35Z</time>
      </trkpt>
      <trkpt lat="41.2217090" lon="-8.7143170">
        <ele>8.6</ele>
        <time>2021-05-16T07:36:36Z</time>
      </trkpt>
      <trkpt lat="41.2217210" lon="-8.7143280">
        <ele>8.6</ele>
        <time>2021-05-16T07:36:37Z</time>
      </trkpt>
      <trkpt lat="41.2217290" lon="-8.7143300">
        <ele>8.6</ele>
        <time>2021-05-16T07:36:38Z</time>
      </trkpt>
      <trkpt lat="41.2217380" lon="-8.7143350">
        <ele>8.6</ele>
        <time>2021-05-16T07:36:39Z</time>
      </trkpt>
      <trkpt lat="41.2217470" lon="-8.7143410">
        <ele>8.6</ele>
        <time>2021-05-16T07:36:40Z</time>
      </trkpt>
      <trkpt lat="41.2217700" lon="-8.7143360">
        <ele>8.7</ele>
        <time>2021-05-16T07:36:41Z</time>
      </trkpt>
      <trkpt lat="41.2217800" lon="-8.7143350">
        <ele>8.7</ele>
        <time>2021-05-16T07:36:42Z</time>
      </trkpt>
      <trkpt lat="41.2217900" lon="-8.7143340">
        <ele>8.7</ele>
        <time>2021-05-16T07:36:43Z</time>
      </trkpt>
      <trkpt lat="41.2218050" lon="-8.7143350">
        <ele>8.7</ele>
        <time>2021-05-16T07:36:44Z</time>
      </trkpt>
      <trkpt lat="41.2218230" lon="-8.7143320">
        <ele>8.7</ele>
        <time>2021-05-16T07:36:45Z</time>
      </trkpt>
      <trkpt lat="41.2218530" lon="-8.7143380">
        <ele>8.7</ele>
        <time>2021-05-16T07:36:46Z</time>
      </trkpt>
      <trkpt lat="41.2218620" lon="-8.7143400">
        <ele>8.7</ele>
        <time>2021-05-16T07:36:47Z</time>
      </trkpt>
      <trkpt lat="41.2218920" lon="-8.7143400">
        <ele>8.8</ele>
        <time>2021-05-16T07:36:48Z</time>
      </trkpt>
      <trkpt lat="41.2219010" lon="-8.7143400">
        <ele>8.8</ele>
        <time>2021-05-16T07:36:49Z</time>
      </trkpt>
      <trkpt lat="41.2219150" lon="-8.7143450">
        <ele>8.8</ele>
        <time>2021-05-16T07:36:50Z</time>
      </trkpt>
      <trkpt lat="41.2219380" lon="-8.7143330">
        <ele>8.8</ele>
        <time>2021-05-16T07:36:51Z</time>
      </trkpt>
      <trkpt lat="41.2219520" lon="-8.7143320">
        <ele>8.8</ele>
        <time>2021-05-16T07:36:52Z</time>
      </trkpt>
      <trkpt lat="41.2219650" lon="-8.7143380">
        <ele>8.8</ele>
        <time>2021-05-16T07:36:53Z</time>
      </trkpt>
      <trkpt lat="41.2219870" lon="-8.7143350">
        <ele>8.8</ele>
        <time>2021-05-16T07:36:54Z</time>
      </trkpt>
      <trkpt lat="41.2219950" lon="-8.7143370">
        <ele>8.8</ele>
        <time>2021-05-16T07:36:55Z</time>
      </trkpt>
      <trkpt lat="41.2220040" lon="-8.7143400">
        <ele>8.9</ele>
        <time>2021-05-16T07:36:56Z</time>
      </trkpt>
      <trkpt lat="41.2220270" lon="-8.7143480">
        <ele>8.9</ele>
        <time>2021-05-16T07:36:57Z</time>
      </trkpt>
      <trkpt lat="41.2220370" lon="-8.7143490">
        <ele>8.9</ele>
        <time>2021-05-16T07:36:58Z</time>
      </trkpt>
      <trkpt lat="41.2220480" lon="-8.7143500">
        <ele>8.9</ele>
        <time>2021-05-16T07:36:59Z</time>
      </trkpt>
      <trkpt lat="41.2220560" lon="-8.7143670">
        <ele>8.9</ele>
        <time>2021-05-16T07:37:00Z</time>
      </trkpt>
      <trkpt lat="41.2220650" lon="-8.7143740">
        <ele>8.9</ele>
        <time>2021-05-16T07:37:01Z</time>
      </trkpt>
      <trkpt lat="41.2220800" lon="-8.7143750">
        <ele>8.9</ele>
        <time>2021-05-16T07:37:02Z</time>
      </trkpt>
      <trkpt lat="41.2220910" lon="-8.7143770">
        <ele>8.9</ele>
        <time>2021-05-16T07:37:03Z</time>
      </trkpt>
      <trkpt lat="41.2221020" lon="-8.7143810">
        <ele>8.9</ele>
        <time>2021-05-16T07:37:04Z</time>
      </trkpt>
      <trkpt lat="41.2221130" lon="-8.7143930">
        <ele>9.0</ele>
        <time>2021-05-16T07:37:05Z</time>
      </trkpt>
      <trkpt lat="41.2221330" lon="-8.7143920">
        <ele>9.0</ele>
        <time>2021-05-16T07:37:06Z</time>
      </trkpt>
      <trkpt lat="41.2221410" lon="-8.7143970">
        <ele>9.0</ele>
        <time>2021-05-16T07:37:07Z</time>
      </trkpt>
      <trkpt lat="41.2221500" lon="-8.7144020">
        <ele>9.0</ele>
        <time>2021-05-16T07:37:08Z</time>
      </trkpt>
      <trkpt lat="41.2221700" lon="-8.7144070">
        <ele>9.0</ele>
        <time>2021-05-16T07:37:09Z</time>
      </trkpt>
      <trkpt lat="41.2221830" lon="-8.7144160">
        <ele>9.0</ele>
        <time>2021-05-16T07:37:10Z</time>
      </trkpt>
      <trkpt lat="41.2221980" lon="-8.7144270">
        <ele>9.0</ele>
        <time>2021-05-16T07:37:11Z</time>
      </trkpt>
      <trkpt lat="41.2222120" lon="-8.7144390">
        <ele>9.1</ele>
        <time>2021-05-16T07:37:12Z</time>
      </trkpt>
      <trkpt lat="41.2222220" lon="-8.7144460">
        <ele>9.1</ele>
        <time>2021-05-16T07:37:13Z</time>
      </trkpt>
      <trkpt lat="41.2222290" lon="-8.7144550">
        <ele>9.1</ele>
        <time>2021-05-16T07:37:14Z</time>
      </trkpt>
      <trkpt lat="41.2222410" lon="-8.7144670">
        <ele>9.1</ele>
        <time>2021-05-16T07:37:15Z</time>
      </trkpt>
      <trkpt lat="41.2222540" lon="-8.7144800">
        <ele>9.1</ele>
        <time>2021-05-16T07:37:16Z</time>
      </trkpt>
      <trkpt lat="41.2222630" lon="-8.7144880">
        <ele>9.1</ele>
        <time>2021-05-16T07:37:17Z</time>
      </trkpt>
      <trkpt lat="41.2222710" lon="-8.7144960">
        <ele>9.1</ele>
        <time>2021-05-16T07:37:18Z</time>
      </trkpt>
      <trkpt lat="41.2222950" lon="-8.7145170">
        <ele>9.2</ele>
        <time>2021-05-16T07:37:19Z</time>
      </trkpt>
      <trkpt lat="41.2223050" lon="-8.7145280">
        <ele>9.2</ele>
        <time>2021-05-16T07:37:20Z</time>
      </trkpt>
      <trkpt lat="41.2223190" lon="-8.7145390">
        <ele>9.2</ele>
        <time>2021-05-16T07:37:21Z</time>
      </trkpt>
      <trkpt lat="41.2223340" lon="-8.7145520">
        <ele>9.2</ele>
        <time>2021-05-16T07:37:22Z</time>
      </trkpt>
      <trkpt lat="41.2223550" lon="-8.7145780">
        <ele>9.2</ele>
        <time>2021-05-16T07:37:23Z</time>
      </trkpt>
      <trkpt lat="41.2223630" lon="-8.7145830">
        <ele>9.2</ele>
        <time>2021-05-16T07:37:24Z</time>
      </trkpt>
      <trkpt lat="41.2223770" lon="-8.7145960">
        <ele>9.3</ele>
        <time>2021-05-16T07:37:25Z</time>
      </trkpt>
      <trkpt lat="41.2223930" lon="-8.7146060">
        <ele>9.3</ele>
        <time>2021-05-16T07:37:26Z</time>
      </trkpt>
      <trkpt lat="41.2224060" lon="-8.7146240">
        <ele>9.3</ele>
        <time>2021-05-16T07:37:27Z</time>
      </trkpt>
      <trkpt lat="41.2224200" lon="-8.7146360">
        <ele>9.3</ele>
        <time>2021-05-16T07:37:28Z</time>
      </trkpt>
      <trkpt lat="41.2224320" lon="-8.7146480">
        <ele>9.3</ele>
        <time>2021-05-16T07:37:29Z</time>
      </trkpt>
      <trkpt lat="41.2224510" lon="-8.7146510">
        <ele>9.3</ele>
        <time>2021-05-16T07:37:30Z</time>
      </trkpt>
      <trkpt lat="41.2224660" lon="-8.7146630">
        <ele>9.4</ele>
        <time>2021-05-16T07:37:31Z</time>
      </trkpt>
      <trkpt lat="41.2224790" lon="-8.7146740">
        <ele>9.4</ele>
        <time>2021-05-16T07:37:32Z</time>
      </trkpt>
      <trkpt lat="41.2224960" lon="-8.7146850">
        <ele>9.4</ele>
        <time>2021-05-16T07:37:33Z</time>
      </trkpt>
      <trkpt lat="41.2225090" lon="-8.7146990">
        <ele>9.4</ele>
        <time>2021-05-16T07:37:34Z</time>
      </trkpt>
      <trkpt lat="41.2225290" lon="-8.7147050">
        <ele>9.4</ele>
        <time>2021-05-16T07:37:35Z</time>
      </trkpt>
      <trkpt lat="41.2225440" lon="-8.7147060">
        <ele>9.4</ele>
        <time>2021-05-16T07:37:36Z</time>
      </trkpt>
      <trkpt lat="41.2225620" lon="-8.7147140">
        <ele>9.4</ele>
        <time>2021-05-16T07:37:37Z</time>
      </trkpt>
      <trkpt lat="41.2225750" lon="-8.7147220">
        <ele>9.4</ele>
        <time>2021-05-16T07:37:38Z</time>
      </trkpt>
      <trkpt lat="41.2225850" lon="-8.7147300">
        <ele>9.4</ele>
        <time>2021-05-16T07:37:39Z</time>
      </trkpt>
      <trkpt lat="41.2225980" lon="-8.7147400">
        <ele>9.5</ele>
        <time>2021-05-16T07:37:40Z</time>
      </trkpt>
      <trkpt lat="41.2226100" lon="-8.7147530">
        <ele>9.5</ele>
        <time>2021-05-16T07:37:41Z</time>
      </trkpt>
      <trkpt lat="41.2226200" lon="-8.7147680">
        <ele>9.5</ele>
        <time>2021-05-16T07:37:42Z</time>
      </trkpt>
      <trkpt lat="41.2226340" lon="-8.7147690">
        <ele>9.5</ele>
        <time>2021-05-16T07:37:43Z</time>
      </trkpt>
      <trkpt lat="41.2226510" lon="-8.7147690">
        <ele>9.5</ele>
        <time>2021-05-16T07:37:44Z</time>
      </trkpt>
      <trkpt lat="41.2226600" lon="-8.7147750">
        <ele>9.5</ele>
        <time>2021-05-16T07:37:45Z</time>
      </trkpt>
      <trkpt lat="41.2226710" lon="-8.7147820">
        <ele>9.5</ele>
        <time>2021-05-16T07:37:46Z</time>
      </trkpt>
      <trkpt lat="41.2226820" lon="-8.7147910">
        <ele>9.5</ele>
        <time>2021-05-16T07:37:47Z</time>
      </trkpt>
      <trkpt lat="41.2226970" lon="-8.7148030">
        <ele>9.5</ele>
        <time>2021-05-16T07:37:48Z</time>
      </trkpt>
      <trkpt lat="41.2227090" lon="-8.7148120">
        <ele>9.5</ele>
        <time>2021-05-16T07:37:49Z</time>
      </trkpt>
      <trkpt lat="41.2227190" lon="-8.7148210">
        <ele>9.5</ele>
        <time>2021-05-16T07:37:50Z</time>
      </trkpt>
      <trkpt lat="41.2227270" lon="-8.7148270">
        <ele>9.5</ele>
        <time>2021-05-16T07:37:51Z</time>
      </trkpt>
      <trkpt lat="41.2227400" lon="-8.7148340">
        <ele>9.5</ele>
        <time>2021-05-16T07:37:52Z</time>
      </trkpt>
      <trkpt lat="41.2227680" lon="-8.7148480">
        <ele>9.5</ele>
        <time>2021-05-16T07:37:53Z</time>
      </trkpt>
      <trkpt lat="41.2227760" lon="-8.7148530">
        <ele>9.5</ele>
        <time>2021-05-16T07:37:54Z</time>
      </trkpt>
      <trkpt lat="41.2227920" lon="-8.7148670">
        <ele>9.5</ele>
        <time>2021-05-16T07:37:55Z</time>
      </trkpt>
      <trkpt lat="41.2228060" lon="-8.7148700">
        <ele>9.5</ele>
        <time>2021-05-16T07:37:56Z</time>
      </trkpt>
      <trkpt lat="41.2228190" lon="-8.7148780">
        <ele>9.5</ele>
        <time>2021-05-16T07:37:57Z</time>
      </trkpt>
      <trkpt lat="41.2228360" lon="-8.7148820">
        <ele>9.5</ele>
        <time>2021-05-16T07:37:58Z</time>
      </trkpt>
      <trkpt lat="41.2228530" lon="-8.7148880">
        <ele>9.5</ele>
        <time>2021-05-16T07:37:59Z</time>
      </trkpt>
      <trkpt lat="41.2228690" lon="-8.7148960">
        <ele>9.5</ele>
        <time>2021-05-16T07:38:00Z</time>
      </trkpt>
      <trkpt lat="41.2228830" lon="-8.7149010">
        <ele>9.5</ele>
        <time>2021-05-16T07:38:01Z</time>
      </trkpt>
      <trkpt lat="41.2229000" lon="-8.7149110">
        <ele>9.5</ele>
        <time>2021-05-16T07:38:02Z</time>
      </trkpt>
      <trkpt lat="41.2229280" lon="-8.7149190">
        <ele>9.5</ele>
        <time>2021-05-16T07:38:03Z</time>
      </trkpt>
      <trkpt lat="41.2229370" lon="-8.7149240">
        <ele>9.5</ele>
        <time>2021-05-16T07:38:04Z</time>
      </trkpt>
      <trkpt lat="41.2229540" lon="-8.7149290">
        <ele>9.5</ele>
        <time>2021-05-16T07:38:05Z</time>
      </trkpt>
      <trkpt lat="41.2229690" lon="-8.7149460">
        <ele>9.5</ele>
        <time>2021-05-16T07:38:06Z</time>
      </trkpt>
      <trkpt lat="41.2229860" lon="-8.7149550">
        <ele>9.5</ele>
        <time>2021-05-16T07:38:07Z</time>
      </trkpt>
      <trkpt lat="41.2230010" lon="-8.7149650">
        <ele>9.5</ele>
        <time>2021-05-16T07:38:08Z</time>
      </trkpt>
      <trkpt lat="41.2230160" lon="-8.7149730">
        <ele>9.5</ele>
        <time>2021-05-16T07:38:09Z</time>
      </trkpt>
      <trkpt lat="41.2230290" lon="-8.7149810">
        <ele>9.5</ele>
        <time>2021-05-16T07:38:10Z</time>
      </trkpt>
      <trkpt lat="41.2230370" lon="-8.7149870">
        <ele>9.5</ele>
        <time>2021-05-16T07:38:11Z</time>
      </trkpt>
      <trkpt lat="41.2230480" lon="-8.7149940">
        <ele>9.4</ele>
        <time>2021-05-16T07:38:12Z</time>
      </trkpt>
      <trkpt lat="41.2230610" lon="-8.7150010">
        <ele>9.4</ele>
        <time>2021-05-16T07:38:13Z</time>
      </trkpt>
      <trkpt lat="41.2230830" lon="-8.7150080">
        <ele>9.4</ele>
        <time>2021-05-16T07:38:14Z</time>
      </trkpt>
      <trkpt lat="41.2230930" lon="-8.7150100">
        <ele>9.4</ele>
        <time>2021-05-16T07:38:15Z</time>
      </trkpt>
      <trkpt lat="41.2231100" lon="-8.7150240">
        <ele>9.4</ele>
        <time>2021-05-16T07:38:16Z</time>
      </trkpt>
      <trkpt lat="41.2231210" lon="-8.7150310">
        <ele>9.4</ele>
        <time>2021-05-16T07:38:17Z</time>
      </trkpt>
      <trkpt lat="41.2231360" lon="-8.7150430">
        <ele>9.4</ele>
        <time>2021-05-16T07:38:18Z</time>
      </trkpt>
      <trkpt lat="41.2231500" lon="-8.7150480">
        <ele>9.4</ele>
        <time>2021-05-16T07:38:19Z</time>
      </trkpt>
      <trkpt lat="41.2231650" lon="-8.7150530">
        <ele>9.4</ele>
        <time>2021-05-16T07:38:20Z</time>
      </trkpt>
      <trkpt lat="41.2231760" lon="-8.7150600">
        <ele>9.3</ele>
        <time>2021-05-16T07:38:21Z</time>
      </trkpt>
      <trkpt lat="41.2231910" lon="-8.7150610">
        <ele>9.3</ele>
        <time>2021-05-16T07:38:22Z</time>
      </trkpt>
      <trkpt lat="41.2232090" lon="-8.7150600">
        <ele>9.3</ele>
        <time>2021-05-16T07:38:23Z</time>
      </trkpt>
      <trkpt lat="41.2232440" lon="-8.7150600">
        <ele>9.3</ele>
        <time>2021-05-16T07:38:24Z</time>
      </trkpt>
      <trkpt lat="41.2232530" lon="-8.7150570">
        <ele>9.3</ele>
        <time>2021-05-16T07:38:25Z</time>
      </trkpt>
      <trkpt lat="41.2232840" lon="-8.7150690">
        <ele>9.3</ele>
        <time>2021-05-16T07:38:26Z</time>
      </trkpt>
      <trkpt lat="41.2232950" lon="-8.7150680">
        <ele>9.3</ele>
        <time>2021-05-16T07:38:27Z</time>
      </trkpt>
      <trkpt lat="41.2233080" lon="-8.7150720">
        <ele>9.2</ele>
        <time>2021-05-16T07:38:28Z</time>
      </trkpt>
      <trkpt lat="41.2233300" lon="-8.7150800">
        <ele>9.2</ele>
        <time>2021-05-16T07:38:29Z</time>
      </trkpt>
      <trkpt lat="41.2233480" lon="-8.7150880">
        <ele>9.2</ele>
        <time>2021-05-16T07:38:30Z</time>
      </trkpt>
      <trkpt lat="41.2233640" lon="-8.7150950">
        <ele>9.2</ele>
        <time>2021-05-16T07:38:31Z</time>
      </trkpt>
      <trkpt lat="41.2233770" lon="-8.7151030">
        <ele>9.2</ele>
        <time>2021-05-16T07:38:32Z</time>
      </trkpt>
      <trkpt lat="41.2233900" lon="-8.7151160">
        <ele>9.2</ele>
        <time>2021-05-16T07:38:33Z</time>
      </trkpt>
      <trkpt lat="41.2234050" lon="-8.7151270">
        <ele>9.2</ele>
        <time>2021-05-16T07:38:34Z</time>
      </trkpt>
      <trkpt lat="41.2234210" lon="-8.7151290">
        <ele>9.2</ele>
        <time>2021-05-16T07:38:35Z</time>
      </trkpt>
      <trkpt lat="41.2234330" lon="-8.7151440">
        <ele>9.2</ele>
        <time>2021-05-16T07:38:36Z</time>
      </trkpt>
      <trkpt lat="41.2234470" lon="-8.7151530">
        <ele>9.1</ele>
        <time>2021-05-16T07:38:37Z</time>
      </trkpt>
      <trkpt lat="41.2234620" lon="-8.7151740">
        <ele>9.1</ele>
        <time>2021-05-16T07:38:38Z</time>
      </trkpt>
      <trkpt lat="41.2234700" lon="-8.7151830">
        <ele>9.1</ele>
        <time>2021-05-16T07:38:39Z</time>
      </trkpt>
      <trkpt lat="41.2234770" lon="-8.7151920">
        <ele>9.1</ele>
        <time>2021-05-16T07:38:40Z</time>
      </trkpt>
      <trkpt lat="41.2234960" lon="-8.7152080">
        <ele>9.0</ele>
        <time>2021-05-16T07:38:41Z</time>
      </trkpt>
      <trkpt lat="41.2235000" lon="-8.7152180">
        <ele>9.0</ele>
        <time>2021-05-16T07:38:42Z</time>
      </trkpt>
      <trkpt lat="41.2235050" lon="-8.7152270">
        <ele>9.0</ele>
        <time>2021-05-16T07:38:43Z</time>
      </trkpt>
      <trkpt lat="41.2235090" lon="-8.7152380">
        <ele>9.0</ele>
        <time>2021-05-16T07:38:44Z</time>
      </trkpt>
      <trkpt lat="41.2235170" lon="-8.7152460">
        <ele>9.0</ele>
        <time>2021-05-16T07:38:45Z</time>
      </trkpt>
      <trkpt lat="41.2235280" lon="-8.7152520">
        <ele>9.0</ele>
        <time>2021-05-16T07:38:46Z</time>
      </trkpt>
      <trkpt lat="41.2235450" lon="-8.7152600">
        <ele>8.9</ele>
        <time>2021-05-16T07:38:47Z</time>
      </trkpt>
      <trkpt lat="41.2235540" lon="-8.7152690">
        <ele>8.9</ele>
        <time>2021-05-16T07:38:48Z</time>
      </trkpt>
      <trkpt lat="41.2235700" lon="-8.7152800">
        <ele>8.9</ele>
        <time>2021-05-16T07:38:49Z</time>
      </trkpt>
      <trkpt lat="41.2235860" lon="-8.7152830">
        <ele>8.9</ele>
        <time>2021-05-16T07:38:50Z</time>
      </trkpt>
      <trkpt lat="41.2236000" lon="-8.7152900">
        <ele>8.8</ele>
        <time>2021-05-16T07:38:51Z</time>
      </trkpt>
      <trkpt lat="41.2236180" lon="-8.7152980">
        <ele>8.8</ele>
        <time>2021-05-16T07:38:52Z</time>
      </trkpt>
      <trkpt lat="41.2236370" lon="-8.7153130">
        <ele>8.8</ele>
        <time>2021-05-16T07:38:53Z</time>
      </trkpt>
      <trkpt lat="41.2236470" lon="-8.7153230">
        <ele>8.8</ele>
        <time>2021-05-16T07:38:54Z</time>
      </trkpt>
      <trkpt lat="41.2236610" lon="-8.7153440">
        <ele>8.7</ele>
        <time>2021-05-16T07:38:55Z</time>
      </trkpt>
      <trkpt lat="41.2236680" lon="-8.7153500">
        <ele>8.7</ele>
        <time>2021-05-16T07:38:56Z</time>
      </trkpt>
      <trkpt lat="41.2236750" lon="-8.7153560">
        <ele>8.7</ele>
        <time>2021-05-16T07:38:57Z</time>
      </trkpt>
      <trkpt lat="41.2236830" lon="-8.7153740">
        <ele>8.7</ele>
        <time>2021-05-16T07:38:58Z</time>
      </trkpt>
      <trkpt lat="41.2236960" lon="-8.7153870">
        <ele>8.6</ele>
        <time>2021-05-16T07:38:59Z</time>
      </trkpt>
      <trkpt lat="41.2237110" lon="-8.7153880">
        <ele>8.6</ele>
        <time>2021-05-16T07:39:00Z</time>
      </trkpt>
      <trkpt lat="41.2237280" lon="-8.7153980">
        <ele>8.6</ele>
        <time>2021-05-16T07:39:01Z</time>
      </trkpt>
      <trkpt lat="41.2237460" lon="-8.7154120">
        <ele>8.6</ele>
        <time>2021-05-16T07:39:02Z</time>
      </trkpt>
      <trkpt lat="41.2237530" lon="-8.7154170">
        <ele>8.5</ele>
        <time>2021-05-16T07:39:03Z</time>
      </trkpt>
      <trkpt lat="41.2237590" lon="-8.7154230">
        <ele>8.5</ele>
        <time>2021-05-16T07:39:04Z</time>
      </trkpt>
      <trkpt lat="41.2237710" lon="-8.7154410">
        <ele>8.5</ele>
        <time>2021-05-16T07:39:05Z</time>
      </trkpt>
      <trkpt lat="41.2237840" lon="-8.7154530">
        <ele>8.5</ele>
        <time>2021-05-16T07:39:06Z</time>
      </trkpt>
      <trkpt lat="41.2237950" lon="-8.7154620">
        <ele>8.5</ele>
        <time>2021-05-16T07:39:07Z</time>
      </trkpt>
      <trkpt lat="41.2238010" lon="-8.7154630">
        <ele>8.5</ele>
        <time>2021-05-16T07:39:08Z</time>
      </trkpt>
      <trkpt lat="41.2238120" lon="-8.7154720">
        <ele>8.5</ele>
        <time>2021-05-16T07:39:09Z</time>
      </trkpt>
      <trkpt lat="41.2238230" lon="-8.7154880">
        <ele>8.4</ele>
        <time>2021-05-16T07:39:10Z</time>
      </trkpt>
      <trkpt lat="41.2238280" lon="-8.7154950">
        <ele>8.4</ele>
        <time>2021-05-16T07:39:11Z</time>
      </trkpt>
      <trkpt lat="41.2238330" lon="-8.7155010">
        <ele>8.4</ele>
        <time>2021-05-16T07:39:12Z</time>
      </trkpt>
      <trkpt lat="41.2238380" lon="-8.7155080">
        <ele>8.4</ele>
        <time>2021-05-16T07:39:13Z</time>
      </trkpt>
      <trkpt lat="41.2238430" lon="-8.7155140">
        <ele>8.4</ele>
        <time>2021-05-16T07:39:14Z</time>
      </trkpt>
      <trkpt lat="41.2238590" lon="-8.7155130">
        <ele>8.4</ele>
        <time>2021-05-16T07:39:15Z</time>
      </trkpt>
      <trkpt lat="41.2238700" lon="-8.7155280">
        <ele>8.4</ele>
        <time>2021-05-16T07:39:16Z</time>
      </trkpt>
      <trkpt lat="41.2239000" lon="-8.7155360">
        <ele>8.3</ele>
        <time>2021-05-16T07:39:17Z</time>
      </trkpt>
      <trkpt lat="41.2239330" lon="-8.7155530">
        <ele>8.3</ele>
        <time>2021-05-16T07:39:18Z</time>
      </trkpt>
      <trkpt lat="41.2239450" lon="-8.7155560">
        <ele>8.2</ele>
        <time>2021-05-16T07:39:19Z</time>
      </trkpt>
      <trkpt lat="41.2239560" lon="-8.7155690">
        <ele>8.2</ele>
        <time>2021-05-16T07:39:20Z</time>
      </trkpt>
      <trkpt lat="41.2239670" lon="-8.7155820">
        <ele>8.2</ele>
        <time>2021-05-16T07:39:21Z</time>
      </trkpt>
      <trkpt lat="41.2239760" lon="-8.7155920">
        <ele>8.2</ele>
        <time>2021-05-16T07:39:22Z</time>
      </trkpt>
      <trkpt lat="41.2239950" lon="-8.7156110">
        <ele>8.2</ele>
        <time>2021-05-16T07:39:23Z</time>
      </trkpt>
      <trkpt lat="41.2240130" lon="-8.7156230">
        <ele>8.1</ele>
        <time>2021-05-16T07:39:24Z</time>
      </trkpt>
      <trkpt lat="41.2240180" lon="-8.7156300">
        <ele>8.1</ele>
        <time>2021-05-16T07:39:25Z</time>
      </trkpt>
      <trkpt lat="41.2240450" lon="-8.7156380">
        <ele>8.1</ele>
        <time>2021-05-16T07:39:26Z</time>
      </trkpt>
      <trkpt lat="41.2240560" lon="-8.7156460">
        <ele>8.1</ele>
        <time>2021-05-16T07:39:27Z</time>
      </trkpt>
      <trkpt lat="41.2240830" lon="-8.7156610">
        <ele>8.0</ele>
        <time>2021-05-16T07:39:28Z</time>
      </trkpt>
      <trkpt lat="41.2240940" lon="-8.7156700">
        <ele>8.0</ele>
        <time>2021-05-16T07:39:29Z</time>
      </trkpt>
      <trkpt lat="41.2241080" lon="-8.7156740">
        <ele>8.0</ele>
        <time>2021-05-16T07:39:30Z</time>
      </trkpt>
      <trkpt lat="41.2241180" lon="-8.7156820">
        <ele>8.0</ele>
        <time>2021-05-16T07:39:31Z</time>
      </trkpt>
      <trkpt lat="41.2241250" lon="-8.7156890">
        <ele>8.0</ele>
        <time>2021-05-16T07:39:32Z</time>
      </trkpt>
      <trkpt lat="41.2241360" lon="-8.7156930">
        <ele>8.0</ele>
        <time>2021-05-16T07:39:33Z</time>
      </trkpt>
      <trkpt lat="41.2241530" lon="-8.7156940">
        <ele>7.9</ele>
        <time>2021-05-16T07:39:34Z</time>
      </trkpt>
      <trkpt lat="41.2241780" lon="-8.7157100">
        <ele>7.9</ele>
        <time>2021-05-16T07:39:35Z</time>
      </trkpt>
      <trkpt lat="41.2241860" lon="-8.7157180">
        <ele>7.9</ele>
        <time>2021-05-16T07:39:36Z</time>
      </trkpt>
      <trkpt lat="41.2242010" lon="-8.7157400">
        <ele>7.9</ele>
        <time>2021-05-16T07:39:37Z</time>
      </trkpt>
      <trkpt lat="41.2242080" lon="-8.7157470">
        <ele>7.8</ele>
        <time>2021-05-16T07:39:38Z</time>
      </trkpt>
      <trkpt lat="41.2242150" lon="-8.7157540">
        <ele>7.8</ele>
        <time>2021-05-16T07:39:39Z</time>
      </trkpt>
      <trkpt lat="41.2242300" lon="-8.7157710">
        <ele>7.8</ele>
        <time>2021-05-16T07:39:40Z</time>
      </trkpt>
      <trkpt lat="41.2242350" lon="-8.7157810">
        <ele>7.8</ele>
        <time>2021-05-16T07:39:41Z</time>
      </trkpt>
      <trkpt lat="41.2242410" lon="-8.7157910">
        <ele>7.8</ele>
        <time>2021-05-16T07:39:42Z</time>
      </trkpt>
      <trkpt lat="41.2242520" lon="-8.7158030">
        <ele>7.7</ele>
        <time>2021-05-16T07:39:43Z</time>
      </trkpt>
      <trkpt lat="41.2242560" lon="-8.7158120">
        <ele>7.7</ele>
        <time>2021-05-16T07:39:44Z</time>
      </trkpt>
      <trkpt lat="41.2242600" lon="-8.7158210">
        <ele>7.7</ele>
        <time>2021-05-16T07:39:45Z</time>
      </trkpt>
      <trkpt lat="41.2242730" lon="-8.7158430">
        <ele>7.7</ele>
        <time>2021-05-16T07:39:46Z</time>
      </trkpt>
      <trkpt lat="41.2242770" lon="-8.7158520">
        <ele>7.7</ele>
        <time>2021-05-16T07:39:47Z</time>
      </trkpt>
      <trkpt lat="41.2242800" lon="-8.7158610">
        <ele>7.7</ele>
        <time>2021-05-16T07:39:48Z</time>
      </trkpt>
      <trkpt lat="41.2242900" lon="-8.7158740">
        <ele>7.6</ele>
        <time>2021-05-16T07:39:49Z</time>
      </trkpt>
      <trkpt lat="41.2243060" lon="-8.7158810">
        <ele>7.6</ele>
        <time>2021-05-16T07:39:50Z</time>
      </trkpt>
      <trkpt lat="41.2243210" lon="-8.7158880">
        <ele>7.6</ele>
        <time>2021-05-16T07:39:51Z</time>
      </trkpt>
      <trkpt lat="41.2243380" lon="-8.7158920">
        <ele>7.6</ele>
        <time>2021-05-16T07:39:52Z</time>
      </trkpt>
      <trkpt lat="41.2243480" lon="-8.7158990">
        <ele>7.6</ele>
        <time>2021-05-16T07:39:53Z</time>
      </trkpt>
      <trkpt lat="41.2243600" lon="-8.7159140">
        <ele>7.5</ele>
        <time>2021-05-16T07:39:54Z</time>
      </trkpt>
      <trkpt lat="41.2243730" lon="-8.7159230">
        <ele>7.5</ele>
        <time>2021-05-16T07:39:55Z</time>
      </trkpt>
      <trkpt lat="41.2243860" lon="-8.7159300">
        <ele>7.5</ele>
        <time>2021-05-16T07:39:56Z</time>
      </trkpt>
      <trkpt lat="41.2244030" lon="-8.7159350">
        <ele>7.5</ele>
        <time>2021-05-16T07:39:57Z</time>
      </trkpt>
      <trkpt lat="41.2244160" lon="-8.7159450">
        <ele>7.5</ele>
        <time>2021-05-16T07:39:58Z</time>
      </trkpt>
      <trkpt lat="41.2244270" lon="-8.7159540">
        <ele>7.4</ele>
        <time>2021-05-16T07:39:59Z</time>
      </trkpt>
      <trkpt lat="41.2244370" lon="-8.7159710">
        <ele>7.4</ele>
        <time>2021-05-16T07:40:00Z</time>
      </trkpt>
      <trkpt lat="41.2244470" lon="-8.7159820">
        <ele>7.4</ele>
        <time>2021-05-16T07:40:01Z</time>
      </trkpt>
      <trkpt lat="41.2244530" lon="-8.7159860">
        <ele>7.4</ele>
        <time>2021-05-16T07:40:02Z</time>
      </trkpt>
      <trkpt lat="41.2244640" lon="-8.7159920">
        <ele>7.4</ele>
        <time>2021-05-16T07:40:03Z</time>
      </trkpt>
      <trkpt lat="41.2244780" lon="-8.7159950">
        <ele>7.4</ele>
        <time>2021-05-16T07:40:04Z</time>
      </trkpt>
      <trkpt lat="41.2244960" lon="-8.7160010">
        <ele>7.4</ele>
        <time>2021-05-16T07:40:05Z</time>
      </trkpt>
      <trkpt lat="41.2245070" lon="-8.7160010">
        <ele>7.4</ele>
        <time>2021-05-16T07:40:06Z</time>
      </trkpt>
      <trkpt lat="41.2245230" lon="-8.7160080">
        <ele>7.4</ele>
        <time>2021-05-16T07:40:07Z</time>
      </trkpt>
      <trkpt lat="41.2245490" lon="-8.7160170">
        <ele>7.3</ele>
        <time>2021-05-16T07:40:08Z</time>
      </trkpt>
      <trkpt lat="41.2245630" lon="-8.7160220">
        <ele>7.3</ele>
        <time>2021-05-16T07:40:09Z</time>
      </trkpt>
      <trkpt lat="41.2245910" lon="-8.7160320">
        <ele>7.3</ele>
        <time>2021-05-16T07:40:10Z</time>
      </trkpt>
      <trkpt lat="41.2245990" lon="-8.7160360">
        <ele>7.3</ele>
        <time>2021-05-16T07:40:11Z</time>
      </trkpt>
      <trkpt lat="41.2246120" lon="-8.7160400">
        <ele>7.3</ele>
        <time>2021-05-16T07:40:12Z</time>
      </trkpt>
      <trkpt lat="41.2246310" lon="-8.7160420">
        <ele>7.3</ele>
        <time>2021-05-16T07:40:14Z</time>
      </trkpt>
      <trkpt lat="41.2246490" lon="-8.7160490">
        <ele>7.2</ele>
        <time>2021-05-16T07:40:15Z</time>
      </trkpt>
      <trkpt lat="41.2246650" lon="-8.7160520">
        <ele>7.2</ele>
        <time>2021-05-16T07:40:16Z</time>
      </trkpt>
      <trkpt lat="41.2246830" lon="-8.7160650">
        <ele>7.2</ele>
        <time>2021-05-16T07:40:17Z</time>
      </trkpt>
      <trkpt lat="41.2246890" lon="-8.7160700">
        <ele>7.2</ele>
        <time>2021-05-16T07:40:18Z</time>
      </trkpt>
      <trkpt lat="41.2246960" lon="-8.7160780">
        <ele>7.2</ele>
        <time>2021-05-16T07:40:19Z</time>
      </trkpt>
      <trkpt lat="41.2247090" lon="-8.7160870">
        <ele>7.1</ele>
        <time>2021-05-16T07:40:20Z</time>
      </trkpt>
      <trkpt lat="41.2247170" lon="-8.7160980">
        <ele>7.1</ele>
        <time>2021-05-16T07:40:21Z</time>
      </trkpt>
      <trkpt lat="41.2247240" lon="-8.7161040">
        <ele>7.1</ele>
        <time>2021-05-16T07:40:22Z</time>
      </trkpt>
      <trkpt lat="41.2247370" lon="-8.7161080">
        <ele>7.1</ele>
        <time>2021-05-16T07:40:23Z</time>
      </trkpt>
      <trkpt lat="41.2247430" lon="-8.7161110">
        <ele>7.1</ele>
        <time>2021-05-16T07:40:24Z</time>
      </trkpt>
      <trkpt lat="41.2247600" lon="-8.7161120">
        <ele>7.1</ele>
        <time>2021-05-16T07:40:25Z</time>
      </trkpt>
      <trkpt lat="41.2247720" lon="-8.7161160">
        <ele>7.0</ele>
        <time>2021-05-16T07:40:26Z</time>
      </trkpt>
      <trkpt lat="41.2247930" lon="-8.7161270">
        <ele>7.0</ele>
        <time>2021-05-16T07:40:27Z</time>
      </trkpt>
      <trkpt lat="41.2248020" lon="-8.7161350">
        <ele>7.0</ele>
        <time>2021-05-16T07:40:28Z</time>
      </trkpt>
      <trkpt lat="41.2248120" lon="-8.7161430">
        <ele>7.0</ele>
        <time>2021-05-16T07:40:29Z</time>
      </trkpt>
      <trkpt lat="41.2248270" lon="-8.7161450">
        <ele>7.0</ele>
        <time>2021-05-16T07:40:30Z</time>
      </trkpt>
      <trkpt lat="41.2248360" lon="-8.7161470">
        <ele>6.9</ele>
        <time>2021-05-16T07:40:31Z</time>
      </trkpt>
      <trkpt lat="41.2248460" lon="-8.7161490">
        <ele>6.9</ele>
        <time>2021-05-16T07:40:32Z</time>
      </trkpt>
      <trkpt lat="41.2248550" lon="-8.7161510">
        <ele>6.9</ele>
        <time>2021-05-16T07:40:33Z</time>
      </trkpt>
      <trkpt lat="41.2248760" lon="-8.7161560">
        <ele>6.9</ele>
        <time>2021-05-16T07:40:34Z</time>
      </trkpt>
      <trkpt lat="41.2248830" lon="-8.7161580">
        <ele>6.9</ele>
        <time>2021-05-16T07:40:35Z</time>
      </trkpt>
      <trkpt lat="41.2248930" lon="-8.7161590">
        <ele>6.9</ele>
        <time>2021-05-16T07:40:36Z</time>
      </trkpt>
      <trkpt lat="41.2249150" lon="-8.7161660">
        <ele>6.8</ele>
        <time>2021-05-16T07:40:37Z</time>
      </trkpt>
      <trkpt lat="41.2249230" lon="-8.7161710">
        <ele>6.8</ele>
        <time>2021-05-16T07:40:38Z</time>
      </trkpt>
      <trkpt lat="41.2249310" lon="-8.7161760">
        <ele>6.8</ele>
        <time>2021-05-16T07:40:39Z</time>
      </trkpt>
      <trkpt lat="41.2249450" lon="-8.7161890">
        <ele>6.8</ele>
        <time>2021-05-16T07:40:40Z</time>
      </trkpt>
      <trkpt lat="41.2249540" lon="-8.7161990">
        <ele>6.8</ele>
        <time>2021-05-16T07:40:41Z</time>
      </trkpt>
      <trkpt lat="41.2249640" lon="-8.7162070">
        <ele>6.8</ele>
        <time>2021-05-16T07:40:42Z</time>
      </trkpt>
      <trkpt lat="41.2249720" lon="-8.7162080">
        <ele>6.8</ele>
        <time>2021-05-16T07:40:43Z</time>
      </trkpt>
      <trkpt lat="41.2249850" lon="-8.7162150">
        <ele>6.8</ele>
        <time>2021-05-16T07:40:44Z</time>
      </trkpt>
      <trkpt lat="41.2250030" lon="-8.7162230">
        <ele>6.8</ele>
        <time>2021-05-16T07:40:45Z</time>
      </trkpt>
      <trkpt lat="41.2250190" lon="-8.7162350">
        <ele>6.7</ele>
        <time>2021-05-16T07:40:46Z</time>
      </trkpt>
      <trkpt lat="41.2250290" lon="-8.7162410">
        <ele>6.7</ele>
        <time>2021-05-16T07:40:47Z</time>
      </trkpt>
      <trkpt lat="41.2250460" lon="-8.7162430">
        <ele>6.7</ele>
        <time>2021-05-16T07:40:48Z</time>
      </trkpt>
      <trkpt lat="41.2250540" lon="-8.7162450">
        <ele>6.7</ele>
        <time>2021-05-16T07:40:49Z</time>
      </trkpt>
      <trkpt lat="41.2250630" lon="-8.7162460">
        <ele>6.7</ele>
        <time>2021-05-16T07:40:50Z</time>
      </trkpt>
      <trkpt lat="41.2250710" lon="-8.7162480">
        <ele>6.7</ele>
        <time>2021-05-16T07:40:51Z</time>
      </trkpt>
      <trkpt lat="41.2251040" lon="-8.7162510">
        <ele>6.7</ele>
        <time>2021-05-16T07:40:52Z</time>
      </trkpt>
      <trkpt lat="41.2251150" lon="-8.7162500">
        <ele>6.6</ele>
        <time>2021-05-16T07:40:53Z</time>
      </trkpt>
      <trkpt lat="41.2251450" lon="-8.7162500">
        <ele>6.6</ele>
        <time>2021-05-16T07:40:54Z</time>
      </trkpt>
      <trkpt lat="41.2251730" lon="-8.7162610">
        <ele>6.6</ele>
        <time>2021-05-16T07:40:55Z</time>
      </trkpt>
      <trkpt lat="41.2252110" lon="-8.7162660">
        <ele>6.5</ele>
        <time>2021-05-16T07:40:56Z</time>
      </trkpt>
      <trkpt lat="41.2252240" lon="-8.7162680">
        <ele>6.5</ele>
        <time>2021-05-16T07:40:57Z</time>
      </trkpt>
      <trkpt lat="41.2252560" lon="-8.7162780">
        <ele>6.5</ele>
        <time>2021-05-16T07:40:58Z</time>
      </trkpt>
      <trkpt lat="41.2252650" lon="-8.7162820">
        <ele>6.5</ele>
        <time>2021-05-16T07:40:59Z</time>
      </trkpt>
      <trkpt lat="41.2252950" lon="-8.7162920">
        <ele>6.5</ele>
        <time>2021-05-16T07:41:00Z</time>
      </trkpt>
      <trkpt lat="41.2253050" lon="-8.7162950">
        <ele>6.4</ele>
        <time>2021-05-16T07:41:01Z</time>
      </trkpt>
      <trkpt lat="41.2253310" lon="-8.7163040">
        <ele>6.4</ele>
        <time>2021-05-16T07:41:02Z</time>
      </trkpt>
      <trkpt lat="41.2253390" lon="-8.7163100">
        <ele>6.4</ele>
        <time>2021-05-16T07:41:03Z</time>
      </trkpt>
      <trkpt lat="41.2253710" lon="-8.7163090">
        <ele>6.4</ele>
        <time>2021-05-16T07:41:04Z</time>
      </trkpt>
      <trkpt lat="41.2253800" lon="-8.7163100">
        <ele>6.4</ele>
        <time>2021-05-16T07:41:05Z</time>
      </trkpt>
      <trkpt lat="41.2254120" lon="-8.7163220">
        <ele>6.4</ele>
        <time>2021-05-16T07:41:06Z</time>
      </trkpt>
      <trkpt lat="41.2254230" lon="-8.7163250">
        <ele>6.4</ele>
        <time>2021-05-16T07:41:07Z</time>
      </trkpt>
      <trkpt lat="41.2254510" lon="-8.7163360">
        <ele>6.3</ele>
        <time>2021-05-16T07:41:08Z</time>
      </trkpt>
      <trkpt lat="41.2254610" lon="-8.7163380">
        <ele>6.3</ele>
        <time>2021-05-16T07:41:09Z</time>
      </trkpt>
      <trkpt lat="41.2254770" lon="-8.7163490">
        <ele>6.3</ele>
        <time>2021-05-16T07:41:10Z</time>
      </trkpt>
      <trkpt lat="41.2254950" lon="-8.7163530">
        <ele>6.3</ele>
        <time>2021-05-16T07:41:11Z</time>
      </trkpt>
      <trkpt lat="41.2255110" lon="-8.7163550">
        <ele>6.3</ele>
        <time>2021-05-16T07:41:12Z</time>
      </trkpt>
      <trkpt lat="41.2255270" lon="-8.7163560">
        <ele>6.3</ele>
        <time>2021-05-16T07:41:13Z</time>
      </trkpt>
      <trkpt lat="41.2255490" lon="-8.7163690">
        <ele>6.2</ele>
        <time>2021-05-16T07:41:14Z</time>
      </trkpt>
      <trkpt lat="41.2255560" lon="-8.7163780">
        <ele>6.2</ele>
        <time>2021-05-16T07:41:15Z</time>
      </trkpt>
      <trkpt lat="41.2255640" lon="-8.7163860">
        <ele>6.2</ele>
        <time>2021-05-16T07:41:16Z</time>
      </trkpt>
      <trkpt lat="41.2255780" lon="-8.7163910">
        <ele>6.2</ele>
        <time>2021-05-16T07:41:17Z</time>
      </trkpt>
      <trkpt lat="41.2255900" lon="-8.7163990">
        <ele>6.2</ele>
        <time>2021-05-16T07:41:18Z</time>
      </trkpt>
      <trkpt lat="41.2256060" lon="-8.7164000">
        <ele>6.2</ele>
        <time>2021-05-16T07:41:19Z</time>
      </trkpt>
      <trkpt lat="41.2256140" lon="-8.7164130">
        <ele>6.2</ele>
        <time>2021-05-16T07:41:20Z</time>
      </trkpt>
      <trkpt lat="41.2256210" lon="-8.7164220">
        <ele>6.2</ele>
        <time>2021-05-16T07:41:21Z</time>
      </trkpt>
      <trkpt lat="41.2256320" lon="-8.7164270">
        <ele>6.2</ele>
        <time>2021-05-16T07:41:22Z</time>
      </trkpt>
      <trkpt lat="41.2256420" lon="-8.7164460">
        <ele>6.2</ele>
        <time>2021-05-16T07:41:23Z</time>
      </trkpt>
      <trkpt lat="41.2256530" lon="-8.7164570">
        <ele>6.1</ele>
        <time>2021-05-16T07:41:24Z</time>
      </trkpt>
      <trkpt lat="41.2256670" lon="-8.7164620">
        <ele>6.1</ele>
        <time>2021-05-16T07:41:25Z</time>
      </trkpt>
      <trkpt lat="41.2256800" lon="-8.7164720">
        <ele>6.1</ele>
        <time>2021-05-16T07:41:26Z</time>
      </trkpt>
      <trkpt lat="41.2256930" lon="-8.7164860">
        <ele>6.1</ele>
        <time>2021-05-16T07:41:27Z</time>
      </trkpt>
      <trkpt lat="41.2257040" lon="-8.7165030">
        <ele>6.1</ele>
        <time>2021-05-16T07:41:28Z</time>
      </trkpt>
      <trkpt lat="41.2257160" lon="-8.7165200">
        <ele>6.1</ele>
        <time>2021-05-16T07:41:29Z</time>
      </trkpt>
      <trkpt lat="41.2257290" lon="-8.7165270">
        <ele>6.1</ele>
        <time>2021-05-16T07:41:30Z</time>
      </trkpt>
      <trkpt lat="41.2257410" lon="-8.7165350">
        <ele>6.1</ele>
        <time>2021-05-16T07:41:31Z</time>
      </trkpt>
      <trkpt lat="41.2257590" lon="-8.7165510">
        <ele>6.0</ele>
        <time>2021-05-16T07:41:32Z</time>
      </trkpt>
      <trkpt lat="41.2257670" lon="-8.7165570">
        <ele>6.0</ele>
        <time>2021-05-16T07:41:33Z</time>
      </trkpt>
      <trkpt lat="41.2257750" lon="-8.7165640">
        <ele>6.0</ele>
        <time>2021-05-16T07:41:34Z</time>
      </trkpt>
      <trkpt lat="41.2257930" lon="-8.7165710">
        <ele>6.0</ele>
        <time>2021-05-16T07:41:35Z</time>
      </trkpt>
      <trkpt lat="41.2258070" lon="-8.7165770">
        <ele>6.0</ele>
        <time>2021-05-16T07:41:36Z</time>
      </trkpt>
      <trkpt lat="41.2258240" lon="-8.7165860">
        <ele>6.0</ele>
        <time>2021-05-16T07:41:37Z</time>
      </trkpt>
      <trkpt lat="41.2258370" lon="-8.7165930">
        <ele>6.0</ele>
        <time>2021-05-16T07:41:38Z</time>
      </trkpt>
      <trkpt lat="41.2258490" lon="-8.7166050">
        <ele>6.0</ele>
        <time>2021-05-16T07:41:39Z</time>
      </trkpt>
      <trkpt lat="41.2258580" lon="-8.7166170">
        <ele>5.9</ele>
        <time>2021-05-16T07:41:40Z</time>
      </trkpt>
      <trkpt lat="41.2258790" lon="-8.7166260">
        <ele>5.9</ele>
        <time>2021-05-16T07:41:41Z</time>
      </trkpt>
      <trkpt lat="41.2258880" lon="-8.7166290">
        <ele>5.9</ele>
        <time>2021-05-16T07:41:42Z</time>
      </trkpt>
      <trkpt lat="41.2258960" lon="-8.7166320">
        <ele>5.9</ele>
        <time>2021-05-16T07:41:43Z</time>
      </trkpt>
      <trkpt lat="41.2259080" lon="-8.7166450">
        <ele>5.9</ele>
        <time>2021-05-16T07:41:44Z</time>
      </trkpt>
      <trkpt lat="41.2259240" lon="-8.7166470">
        <ele>5.9</ele>
        <time>2021-05-16T07:41:45Z</time>
      </trkpt>
      <trkpt lat="41.2259380" lon="-8.7166520">
        <ele>5.9</ele>
        <time>2021-05-16T07:41:46Z</time>
      </trkpt>
      <trkpt lat="41.2259490" lon="-8.7166700">
        <ele>5.9</ele>
        <time>2021-05-16T07:41:47Z</time>
      </trkpt>
      <trkpt lat="41.2259590" lon="-8.7166750">
        <ele>5.9</ele>
        <time>2021-05-16T07:41:48Z</time>
      </trkpt>
      <trkpt lat="41.2259750" lon="-8.7166820">
        <ele>5.9</ele>
        <time>2021-05-16T07:41:49Z</time>
      </trkpt>
      <trkpt lat="41.2259900" lon="-8.7166810">
        <ele>5.9</ele>
        <time>2021-05-16T07:41:50Z</time>
      </trkpt>
      <trkpt lat="41.2260020" lon="-8.7166890">
        <ele>5.9</ele>
        <time>2021-05-16T07:41:51Z</time>
      </trkpt>
      <trkpt lat="41.2260190" lon="-8.7166930">
        <ele>5.8</ele>
        <time>2021-05-16T07:41:52Z</time>
      </trkpt>
      <trkpt lat="41.2260290" lon="-8.7167000">
        <ele>5.8</ele>
        <time>2021-05-16T07:41:53Z</time>
      </trkpt>
      <trkpt lat="41.2260420" lon="-8.7167060">
        <ele>5.8</ele>
        <time>2021-05-16T07:41:54Z</time>
      </trkpt>
      <trkpt lat="41.2260550" lon="-8.7167160">
        <ele>5.8</ele>
        <time>2021-05-16T07:41:55Z</time>
      </trkpt>
      <trkpt lat="41.2260670" lon="-8.7167230">
        <ele>5.8</ele>
        <time>2021-05-16T07:41:56Z</time>
      </trkpt>
      <trkpt lat="41.2260840" lon="-8.7167240">
        <ele>5.8</ele>
        <time>2021-05-16T07:41:57Z</time>
      </trkpt>
      <trkpt lat="41.2260970" lon="-8.7167370">
        <ele>5.8</ele>
        <time>2021-05-16T07:41:58Z</time>
      </trkpt>
      <trkpt lat="41.2261100" lon="-8.7167470">
        <ele>5.8</ele>
        <time>2021-05-16T07:41:59Z</time>
      </trkpt>
      <trkpt lat="41.2261250" lon="-8.7167560">
        <ele>5.8</ele>
        <time>2021-05-16T07:42:00Z</time>
      </trkpt>
      <trkpt lat="41.2261390" lon="-8.7167600">
        <ele>5.8</ele>
        <time>2021-05-16T07:42:01Z</time>
      </trkpt>
      <trkpt lat="41.2261560" lon="-8.7167610">
        <ele>5.8</ele>
        <time>2021-05-16T07:42:02Z</time>
      </trkpt>
      <trkpt lat="41.2261670" lon="-8.7167700">
        <ele>5.8</ele>
        <time>2021-05-16T07:42:03Z</time>
      </trkpt>
      <trkpt lat="41.2261830" lon="-8.7167800">
        <ele>5.8</ele>
        <time>2021-05-16T07:42:04Z</time>
      </trkpt>
      <trkpt lat="41.2261980" lon="-8.7167890">
        <ele>5.8</ele>
        <time>2021-05-16T07:42:05Z</time>
      </trkpt>
      <trkpt lat="41.2262140" lon="-8.7167950">
        <ele>5.8</ele>
        <time>2021-05-16T07:42:06Z</time>
      </trkpt>
      <trkpt lat="41.2262290" lon="-8.7167970">
        <ele>5.8</ele>
        <time>2021-05-16T07:42:07Z</time>
      </trkpt>
      <trkpt lat="41.2262420" lon="-8.7168000">
        <ele>5.8</ele>
        <time>2021-05-16T07:42:08Z</time>
      </trkpt>
      <trkpt lat="41.2262580" lon="-8.7168040">
        <ele>5.8</ele>
        <time>2021-05-16T07:42:09Z</time>
      </trkpt>
      <trkpt lat="41.2262750" lon="-8.7168110">
        <ele>5.7</ele>
        <time>2021-05-16T07:42:10Z</time>
      </trkpt>
      <trkpt lat="41.2262890" lon="-8.7168170">
        <ele>5.7</ele>
        <time>2021-05-16T07:42:11Z</time>
      </trkpt>
      <trkpt lat="41.2263080" lon="-8.7168280">
        <ele>5.7</ele>
        <time>2021-05-16T07:42:12Z</time>
      </trkpt>
      <trkpt lat="41.2263170" lon="-8.7168290">
        <ele>5.7</ele>
        <time>2021-05-16T07:42:13Z</time>
      </trkpt>
      <trkpt lat="41.2263260" lon="-8.7168310">
        <ele>5.7</ele>
        <time>2021-05-16T07:42:14Z</time>
      </trkpt>
      <trkpt lat="41.2263570" lon="-8.7168380">
        <ele>5.7</ele>
        <time>2021-05-16T07:42:15Z</time>
      </trkpt>
      <trkpt lat="41.2263710" lon="-8.7168470">
        <ele>5.7</ele>
        <time>2021-05-16T07:42:17Z</time>
      </trkpt>
      <trkpt lat="41.2263820" lon="-8.7168590">
        <ele>5.7</ele>
        <time>2021-05-16T07:42:18Z</time>
      </trkpt>
      <trkpt lat="41.2263930" lon="-8.7168640">
        <ele>5.7</ele>
        <time>2021-05-16T07:42:19Z</time>
      </trkpt>
      <trkpt lat="41.2264020" lon="-8.7168790">
        <ele>5.7</ele>
        <time>2021-05-16T07:42:20Z</time>
      </trkpt>
      <trkpt lat="41.2264120" lon="-8.7168780">
        <ele>5.7</ele>
        <time>2021-05-16T07:42:21Z</time>
      </trkpt>
      <trkpt lat="41.2264180" lon="-8.7168850">
        <ele>5.7</ele>
        <time>2021-05-16T07:42:22Z</time>
      </trkpt>
      <trkpt lat="41.2264210" lon="-8.7168800">
        <ele>5.7</ele>
        <time>2021-05-16T07:42:23Z</time>
      </trkpt>
      <trkpt lat="41.2264240" lon="-8.7168880">
        <ele>5.7</ele>
        <time>2021-05-16T07:42:24Z</time>
      </trkpt>
      <trkpt lat="41.2264270" lon="-8.7169030">
        <ele>5.7</ele>
        <time>2021-05-16T07:42:25Z</time>
      </trkpt>
      <trkpt lat="41.2264320" lon="-8.7169160">
        <ele>5.7</ele>
        <time>2021-05-16T07:42:26Z</time>
      </trkpt>
      <trkpt lat="41.2264500" lon="-8.7169310">
        <ele>5.7</ele>
        <time>2021-05-16T07:42:27Z</time>
      </trkpt>
      <trkpt lat="41.2264600" lon="-8.7169380">
        <ele>5.7</ele>
        <time>2021-05-16T07:42:28Z</time>
      </trkpt>
      <trkpt lat="41.2264700" lon="-8.7169460">
        <ele>5.7</ele>
        <time>2021-05-16T07:42:29Z</time>
      </trkpt>
      <trkpt lat="41.2264790" lon="-8.7169580">
        <ele>5.7</ele>
        <time>2021-05-16T07:42:30Z</time>
      </trkpt>
      <trkpt lat="41.2264920" lon="-8.7169780">
        <ele>5.7</ele>
        <time>2021-05-16T07:42:31Z</time>
      </trkpt>
      <trkpt lat="41.2265050" lon="-8.7170160">
        <ele>5.7</ele>
        <time>2021-05-16T07:42:32Z</time>
      </trkpt>
      <trkpt lat="41.2265100" lon="-8.7170310">
        <ele>5.6</ele>
        <time>2021-05-16T07:42:33Z</time>
      </trkpt>
      <trkpt lat="41.2265200" lon="-8.7170500">
        <ele>5.6</ele>
        <time>2021-05-16T07:42:34Z</time>
      </trkpt>
      <trkpt lat="41.2265320" lon="-8.7170630">
        <ele>5.6</ele>
        <time>2021-05-16T07:42:35Z</time>
      </trkpt>
      <trkpt lat="41.2265380" lon="-8.7170740">
        <ele>5.6</ele>
        <time>2021-05-16T07:42:36Z</time>
      </trkpt>
      <trkpt lat="41.2265400" lon="-8.7171000">
        <ele>5.6</ele>
        <time>2021-05-16T07:42:37Z</time>
      </trkpt>
      <trkpt lat="41.2265470" lon="-8.7171380">
        <ele>5.6</ele>
        <time>2021-05-16T07:42:38Z</time>
      </trkpt>
      <trkpt lat="41.2265510" lon="-8.7171490">
        <ele>5.6</ele>
        <time>2021-05-16T07:42:39Z</time>
      </trkpt>
      <trkpt lat="41.2265750" lon="-8.7171890">
        <ele>5.6</ele>
        <time>2021-05-16T07:42:40Z</time>
      </trkpt>
      <trkpt lat="41.2265810" lon="-8.7172030">
        <ele>5.6</ele>
        <time>2021-05-16T07:42:41Z</time>
      </trkpt>
      <trkpt lat="41.2265920" lon="-8.7172420">
        <ele>5.6</ele>
        <time>2021-05-16T07:42:42Z</time>
      </trkpt>
      <trkpt lat="41.2265950" lon="-8.7172550">
        <ele>5.6</ele>
        <time>2021-05-16T07:42:43Z</time>
      </trkpt>
      <trkpt lat="41.2266090" lon="-8.7172920">
        <ele>5.6</ele>
        <time>2021-05-16T07:42:44Z</time>
      </trkpt>
      <trkpt lat="41.2266150" lon="-8.7173040">
        <ele>5.6</ele>
        <time>2021-05-16T07:42:45Z</time>
      </trkpt>
      <trkpt lat="41.2266230" lon="-8.7173390">
        <ele>5.6</ele>
        <time>2021-05-16T07:42:46Z</time>
      </trkpt>
      <trkpt lat="41.2266270" lon="-8.7173510">
        <ele>5.6</ele>
        <time>2021-05-16T07:42:47Z</time>
      </trkpt>
      <trkpt lat="41.2266320" lon="-8.7173710">
        <ele>5.6</ele>
        <time>2021-05-16T07:42:48Z</time>
      </trkpt>
      <trkpt lat="41.2266430" lon="-8.7173920">
        <ele>5.6</ele>
        <time>2021-05-16T07:42:49Z</time>
      </trkpt>
      <trkpt lat="41.2266510" lon="-8.7174150">
        <ele>5.6</ele>
        <time>2021-05-16T07:42:50Z</time>
      </trkpt>
      <trkpt lat="41.2266570" lon="-8.7174350">
        <ele>5.5</ele>
        <time>2021-05-16T07:42:51Z</time>
      </trkpt>
      <trkpt lat="41.2266650" lon="-8.7174590">
        <ele>5.5</ele>
        <time>2021-05-16T07:42:52Z</time>
      </trkpt>
      <trkpt lat="41.2266630" lon="-8.7174830">
        <ele>5.5</ele>
        <time>2021-05-16T07:42:53Z</time>
      </trkpt>
      <trkpt lat="41.2266620" lon="-8.7175080">
        <ele>5.6</ele>
        <time>2021-05-16T07:42:54Z</time>
      </trkpt>
      <trkpt lat="41.2266620" lon="-8.7175290">
        <ele>5.6</ele>
        <time>2021-05-16T07:42:55Z</time>
      </trkpt>
      <trkpt lat="41.2266600" lon="-8.7175530">
        <ele>5.6</ele>
        <time>2021-05-16T07:42:56Z</time>
      </trkpt>
      <trkpt lat="41.2266630" lon="-8.7175740">
        <ele>5.6</ele>
        <time>2021-05-16T07:42:57Z</time>
      </trkpt>
      <trkpt lat="41.2266610" lon="-8.7175900">
        <ele>5.6</ele>
        <time>2021-05-16T07:42:58Z</time>
      </trkpt>
      <trkpt lat="41.2266620" lon="-8.7176050">
        <ele>5.6</ele>
        <time>2021-05-16T07:42:59Z</time>
      </trkpt>
      <trkpt lat="41.2266600" lon="-8.7176160">
        <ele>5.6</ele>
        <time>2021-05-16T07:43:00Z</time>
      </trkpt>
      <trkpt lat="41.2266570" lon="-8.7176350">
        <ele>5.6</ele>
        <time>2021-05-16T07:43:01Z</time>
      </trkpt>
      <trkpt lat="41.2266530" lon="-8.7176510">
        <ele>5.6</ele>
        <time>2021-05-16T07:43:02Z</time>
      </trkpt>
      <trkpt lat="41.2266510" lon="-8.7176750">
        <ele>5.6</ele>
        <time>2021-05-16T07:43:03Z</time>
      </trkpt>
      <trkpt lat="41.2266470" lon="-8.7176960">
        <ele>5.6</ele>
        <time>2021-05-16T07:43:04Z</time>
      </trkpt>
      <trkpt lat="41.2266490" lon="-8.7177050">
        <ele>5.6</ele>
        <time>2021-05-16T07:43:05Z</time>
      </trkpt>
      <trkpt lat="41.2266440" lon="-8.7177210">
        <ele>5.6</ele>
        <time>2021-05-16T07:43:06Z</time>
      </trkpt>
      <trkpt lat="41.2266450" lon="-8.7177350">
        <ele>5.6</ele>
        <time>2021-05-16T07:43:07Z</time>
      </trkpt>
      <trkpt lat="41.2266430" lon="-8.7177480">
        <ele>5.7</ele>
        <time>2021-05-16T07:43:08Z</time>
      </trkpt>
      <trkpt lat="41.2266420" lon="-8.7177640">
        <ele>5.7</ele>
        <time>2021-05-16T07:43:09Z</time>
      </trkpt>
      <trkpt lat="41.2266470" lon="-8.7177830">
        <ele>5.7</ele>
        <time>2021-05-16T07:43:10Z</time>
      </trkpt>
      <trkpt lat="41.2266470" lon="-8.7177990">
        <ele>5.7</ele>
        <time>2021-05-16T07:43:11Z</time>
      </trkpt>
      <trkpt lat="41.2266520" lon="-8.7178220">
        <ele>5.7</ele>
        <time>2021-05-16T07:43:12Z</time>
      </trkpt>
      <trkpt lat="41.2266630" lon="-8.7178480">
        <ele>5.7</ele>
        <time>2021-05-16T07:43:13Z</time>
      </trkpt>
      <trkpt lat="41.2266660" lon="-8.7178640">
        <ele>5.8</ele>
        <time>2021-05-16T07:43:14Z</time>
      </trkpt>
      <trkpt lat="41.2266700" lon="-8.7178790">
        <ele>5.8</ele>
        <time>2021-05-16T07:43:15Z</time>
      </trkpt>
      <trkpt lat="41.2266720" lon="-8.7179150">
        <ele>5.8</ele>
        <time>2021-05-16T07:43:16Z</time>
      </trkpt>
      <trkpt lat="41.2266730" lon="-8.7179270">
        <ele>5.8</ele>
        <time>2021-05-16T07:43:17Z</time>
      </trkpt>
      <trkpt lat="41.2266710" lon="-8.7179490">
        <ele>5.8</ele>
        <time>2021-05-16T07:43:18Z</time>
      </trkpt>
      <trkpt lat="41.2266690" lon="-8.7179670">
        <ele>5.8</ele>
        <time>2021-05-16T07:43:19Z</time>
      </trkpt>
      <trkpt lat="41.2266690" lon="-8.7179840">
        <ele>5.9</ele>
        <time>2021-05-16T07:43:20Z</time>
      </trkpt>
      <trkpt lat="41.2266720" lon="-8.7180050">
        <ele>5.9</ele>
        <time>2021-05-16T07:43:21Z</time>
      </trkpt>
      <trkpt lat="41.2266740" lon="-8.7180410">
        <ele>5.9</ele>
        <time>2021-05-16T07:43:22Z</time>
      </trkpt>
      <trkpt lat="41.2266750" lon="-8.7180540">
        <ele>5.9</ele>
        <time>2021-05-16T07:43:23Z</time>
      </trkpt>
      <trkpt lat="41.2266770" lon="-8.7180760">
        <ele>6.0</ele>
        <time>2021-05-16T07:43:24Z</time>
      </trkpt>
      <trkpt lat="41.2266730" lon="-8.7180930">
        <ele>6.0</ele>
        <time>2021-05-16T07:43:25Z</time>
      </trkpt>
      <trkpt lat="41.2266720" lon="-8.7181140">
        <ele>6.0</ele>
        <time>2021-05-16T07:43:26Z</time>
      </trkpt>
      <trkpt lat="41.2266720" lon="-8.7181350">
        <ele>6.0</ele>
        <time>2021-05-16T07:43:27Z</time>
      </trkpt>
      <trkpt lat="41.2266740" lon="-8.7181520">
        <ele>6.0</ele>
        <time>2021-05-16T07:43:28Z</time>
      </trkpt>
      <trkpt lat="41.2266730" lon="-8.7181730">
        <ele>6.1</ele>
        <time>2021-05-16T07:43:29Z</time>
      </trkpt>
      <trkpt lat="41.2266740" lon="-8.7182000">
        <ele>6.1</ele>
        <time>2021-05-16T07:43:30Z</time>
      </trkpt>
      <trkpt lat="41.2266760" lon="-8.7182110">
        <ele>6.1</ele>
        <time>2021-05-16T07:43:31Z</time>
      </trkpt>
      <trkpt lat="41.2266770" lon="-8.7182230">
        <ele>6.1</ele>
        <time>2021-05-16T07:43:32Z</time>
      </trkpt>
      <trkpt lat="41.2266790" lon="-8.7182410">
        <ele>6.1</ele>
        <time>2021-05-16T07:43:33Z</time>
      </trkpt>
      <trkpt lat="41.2266800" lon="-8.7182590">
        <ele>6.2</ele>
        <time>2021-05-16T07:43:34Z</time>
      </trkpt>
      <trkpt lat="41.2266830" lon="-8.7182810">
        <ele>6.2</ele>
        <time>2021-05-16T07:43:35Z</time>
      </trkpt>
      <trkpt lat="41.2266840" lon="-8.7182950">
        <ele>6.2</ele>
        <time>2021-05-16T07:43:36Z</time>
      </trkpt>
      <trkpt lat="41.2266840" lon="-8.7183080">
        <ele>6.2</ele>
        <time>2021-05-16T07:43:37Z</time>
      </trkpt>
      <trkpt lat="41.2266870" lon="-8.7183380">
        <ele>6.3</ele>
        <time>2021-05-16T07:43:38Z</time>
      </trkpt>
      <trkpt lat="41.2266890" lon="-8.7183520">
        <ele>6.3</ele>
        <time>2021-05-16T07:43:39Z</time>
      </trkpt>
      <trkpt lat="41.2266900" lon="-8.7183650">
        <ele>6.3</ele>
        <time>2021-05-16T07:43:40Z</time>
      </trkpt>
      <trkpt lat="41.2266890" lon="-8.7183920">
        <ele>6.3</ele>
        <time>2021-05-16T07:43:41Z</time>
      </trkpt>
      <trkpt lat="41.2266920" lon="-8.7184050">
        <ele>6.4</ele>
        <time>2021-05-16T07:43:42Z</time>
      </trkpt>
      <trkpt lat="41.2266950" lon="-8.7184170">
        <ele>6.4</ele>
        <time>2021-05-16T07:43:43Z</time>
      </trkpt>
      <trkpt lat="41.2267000" lon="-8.7184350">
        <ele>6.5</ele>
        <time>2021-05-16T07:43:44Z</time>
      </trkpt>
      <trkpt lat="41.2266990" lon="-8.7184480">
        <ele>6.5</ele>
        <time>2021-05-16T07:43:45Z</time>
      </trkpt>
      <trkpt lat="41.2266930" lon="-8.7184640">
        <ele>6.5</ele>
        <time>2021-05-16T07:43:46Z</time>
      </trkpt>
      <trkpt lat="41.2266940" lon="-8.7184820">
        <ele>6.5</ele>
        <time>2021-05-16T07:43:47Z</time>
      </trkpt>
      <trkpt lat="41.2266910" lon="-8.7185070">
        <ele>6.5</ele>
        <time>2021-05-16T07:43:48Z</time>
      </trkpt>
      <trkpt lat="41.2267010" lon="-8.7185340">
        <ele>6.6</ele>
        <time>2021-05-16T07:43:49Z</time>
      </trkpt>
      <trkpt lat="41.2267030" lon="-8.7185450">
        <ele>6.6</ele>
        <time>2021-05-16T07:43:50Z</time>
      </trkpt>
      <trkpt lat="41.2267050" lon="-8.7185560">
        <ele>6.6</ele>
        <time>2021-05-16T07:43:51Z</time>
      </trkpt>
      <trkpt lat="41.2267090" lon="-8.7185670">
        <ele>6.6</ele>
        <time>2021-05-16T07:43:52Z</time>
      </trkpt>
      <trkpt lat="41.2267140" lon="-8.7185900">
        <ele>6.6</ele>
        <time>2021-05-16T07:43:53Z</time>
      </trkpt>
      <trkpt lat="41.2267190" lon="-8.7186160">
        <ele>6.7</ele>
        <time>2021-05-16T07:43:54Z</time>
      </trkpt>
      <trkpt lat="41.2267230" lon="-8.7186260">
        <ele>6.7</ele>
        <time>2021-05-16T07:43:55Z</time>
      </trkpt>
      <trkpt lat="41.2267280" lon="-8.7186370">
        <ele>6.7</ele>
        <time>2021-05-16T07:43:56Z</time>
      </trkpt>
      <trkpt lat="41.2267320" lon="-8.7186510">
        <ele>6.7</ele>
        <time>2021-05-16T07:43:57Z</time>
      </trkpt>
      <trkpt lat="41.2267410" lon="-8.7186720">
        <ele>6.7</ele>
        <time>2021-05-16T07:43:58Z</time>
      </trkpt>
      <trkpt lat="41.2267520" lon="-8.7186890">
        <ele>6.8</ele>
        <time>2021-05-16T07:43:59Z</time>
      </trkpt>
      <trkpt lat="41.2267570" lon="-8.7187040">
        <ele>6.8</ele>
        <time>2021-05-16T07:44:00Z</time>
      </trkpt>
      <trkpt lat="41.2267620" lon="-8.7187110">
        <ele>6.8</ele>
        <time>2021-05-16T07:44:01Z</time>
      </trkpt>
      <trkpt lat="41.2267670" lon="-8.7187220">
        <ele>6.8</ele>
        <time>2021-05-16T07:44:02Z</time>
      </trkpt>
      <trkpt lat="41.2267790" lon="-8.7187400">
        <ele>6.9</ele>
        <time>2021-05-16T07:44:03Z</time>
      </trkpt>
      <trkpt lat="41.2267850" lon="-8.7187510">
        <ele>6.9</ele>
        <time>2021-05-16T07:44:04Z</time>
      </trkpt>
      <trkpt lat="41.2267930" lon="-8.7187600">
        <ele>6.9</ele>
        <time>2021-05-16T07:44:05Z</time>
      </trkpt>
      <trkpt lat="41.2267920" lon="-8.7187770">
        <ele>6.9</ele>
        <time>2021-05-16T07:44:06Z</time>
      </trkpt>
      <trkpt lat="41.2267960" lon="-8.7187900">
        <ele>6.9</ele>
        <time>2021-05-16T07:44:07Z</time>
      </trkpt>
      <trkpt lat="41.2268040" lon="-8.7188000">
        <ele>7.0</ele>
        <time>2021-05-16T07:44:08Z</time>
      </trkpt>
      <trkpt lat="41.2268090" lon="-8.7188130">
        <ele>7.0</ele>
        <time>2021-05-16T07:44:09Z</time>
      </trkpt>
      <trkpt lat="41.2268190" lon="-8.7188280">
        <ele>7.0</ele>
        <time>2021-05-16T07:44:10Z</time>
      </trkpt>
      <trkpt lat="41.2268270" lon="-8.7188420">
        <ele>7.0</ele>
        <time>2021-05-16T07:44:11Z</time>
      </trkpt>
      <trkpt lat="41.2268320" lon="-8.7188570">
        <ele>7.1</ele>
        <time>2021-05-16T07:44:12Z</time>
      </trkpt>
      <trkpt lat="41.2268350" lon="-8.7188650">
        <ele>7.1</ele>
        <time>2021-05-16T07:44:13Z</time>
      </trkpt>
      <trkpt lat="41.2268390" lon="-8.7188760">
        <ele>7.1</ele>
        <time>2021-05-16T07:44:14Z</time>
      </trkpt>
      <trkpt lat="41.2268390" lon="-8.7188800">
        <ele>7.1</ele>
        <time>2021-05-16T07:44:15Z</time>
      </trkpt>
      <trkpt lat="41.2268460" lon="-8.7188880">
        <ele>7.1</ele>
        <time>2021-05-16T07:44:16Z</time>
      </trkpt>
      <trkpt lat="41.2268530" lon="-8.7188940">
        <ele>7.1</ele>
        <time>2021-05-16T07:44:17Z</time>
      </trkpt>
      <trkpt lat="41.2268550" lon="-8.7188980">
        <ele>7.1</ele>
        <time>2021-05-16T07:44:18Z</time>
      </trkpt>
      <trkpt lat="41.2268580" lon="-8.7189030">
        <ele>7.1</ele>
        <time>2021-05-16T07:44:19Z</time>
      </trkpt>
      <trkpt lat="41.2268670" lon="-8.7189100">
        <ele>7.2</ele>
        <time>2021-05-16T07:44:20Z</time>
      </trkpt>
      <trkpt lat="41.2268780" lon="-8.7189140">
        <ele>7.2</ele>
        <time>2021-05-16T07:44:21Z</time>
      </trkpt>
      <trkpt lat="41.2268880" lon="-8.7189150">
        <ele>7.2</ele>
        <time>2021-05-16T07:44:22Z</time>
      </trkpt>
      <trkpt lat="41.2268970" lon="-8.7189220">
        <ele>7.2</ele>
        <time>2021-05-16T07:44:23Z</time>
      </trkpt>
      <trkpt lat="41.2269050" lon="-8.7189320">
        <ele>7.2</ele>
        <time>2021-05-16T07:44:24Z</time>
      </trkpt>
      <trkpt lat="41.2269140" lon="-8.7189350">
        <ele>7.3</ele>
        <time>2021-05-16T07:44:25Z</time>
      </trkpt>
      <trkpt lat="41.2269210" lon="-8.7189440">
        <ele>7.3</ele>
        <time>2021-05-16T07:44:26Z</time>
      </trkpt>
      <trkpt lat="41.2269330" lon="-8.7189620">
        <ele>7.3</ele>
        <time>2021-05-16T07:44:27Z</time>
      </trkpt>
      <trkpt lat="41.2269490" lon="-8.7189950">
        <ele>7.4</ele>
        <time>2021-05-16T07:44:28Z</time>
      </trkpt>
      <trkpt lat="41.2269520" lon="-8.7190050">
        <ele>7.4</ele>
        <time>2021-05-16T07:44:29Z</time>
      </trkpt>
      <trkpt lat="41.2269740" lon="-8.7190300">
        <ele>7.4</ele>
        <time>2021-05-16T07:44:30Z</time>
      </trkpt>
      <trkpt lat="41.2269820" lon="-8.7190370">
        <ele>7.5</ele>
        <time>2021-05-16T07:44:31Z</time>
      </trkpt>
      <trkpt lat="41.2270040" lon="-8.7190610">
        <ele>7.5</ele>
        <time>2021-05-16T07:44:32Z</time>
      </trkpt>
      <trkpt lat="41.2270100" lon="-8.7190710">
        <ele>7.5</ele>
        <time>2021-05-16T07:44:33Z</time>
      </trkpt>
      <trkpt lat="41.2270220" lon="-8.7190810">
        <ele>7.6</ele>
        <time>2021-05-16T07:44:34Z</time>
      </trkpt>
      <trkpt lat="41.2270360" lon="-8.7190930">
        <ele>7.6</ele>
        <time>2021-05-16T07:44:35Z</time>
      </trkpt>
      <trkpt lat="41.2270460" lon="-8.7190980">
        <ele>7.6</ele>
        <time>2021-05-16T07:44:36Z</time>
      </trkpt>
      <trkpt lat="41.2270640" lon="-8.7190970">
        <ele>7.6</ele>
        <time>2021-05-16T07:44:37Z</time>
      </trkpt>
      <trkpt lat="41.2270820" lon="-8.7191140">
        <ele>7.7</ele>
        <time>2021-05-16T07:44:38Z</time>
      </trkpt>
      <trkpt lat="41.2270900" lon="-8.7191200">
        <ele>7.7</ele>
        <time>2021-05-16T07:44:39Z</time>
      </trkpt>
      <trkpt lat="41.2270950" lon="-8.7191360">
        <ele>7.7</ele>
        <time>2021-05-16T07:44:40Z</time>
      </trkpt>
      <trkpt lat="41.2271010" lon="-8.7191550">
        <ele>7.7</ele>
        <time>2021-05-16T07:44:41Z</time>
      </trkpt>
      <trkpt lat="41.2271070" lon="-8.7191930">
        <ele>7.8</ele>
        <time>2021-05-16T07:44:42Z</time>
      </trkpt>
      <trkpt lat="41.2271080" lon="-8.7192020">
        <ele>7.8</ele>
        <time>2021-05-16T07:44:43Z</time>
      </trkpt>
      <trkpt lat="41.2271150" lon="-8.7192170">
        <ele>7.8</ele>
        <time>2021-05-16T07:44:44Z</time>
      </trkpt>
      <trkpt lat="41.2271100" lon="-8.7192280">
        <ele>7.8</ele>
        <time>2021-05-16T07:44:45Z</time>
      </trkpt>
      <trkpt lat="41.2271120" lon="-8.7192390">
        <ele>7.8</ele>
        <time>2021-05-16T07:44:46Z</time>
      </trkpt>
      <trkpt lat="41.2271230" lon="-8.7192540">
        <ele>7.8</ele>
        <time>2021-05-16T07:44:47Z</time>
      </trkpt>
      <trkpt lat="41.2271330" lon="-8.7192600">
        <ele>7.8</ele>
        <time>2021-05-16T07:44:48Z</time>
      </trkpt>
      <trkpt lat="41.2271370" lon="-8.7192590">
        <ele>7.8</ele>
        <time>2021-05-16T07:44:49Z</time>
      </trkpt>
      <trkpt lat="41.2271560" lon="-8.7192560">
        <ele>7.8</ele>
        <time>2021-05-16T07:44:50Z</time>
      </trkpt>
      <trkpt lat="41.2271650" lon="-8.7192600">
        <ele>7.8</ele>
        <time>2021-05-16T07:44:51Z</time>
      </trkpt>
      <trkpt lat="41.2271750" lon="-8.7192650">
        <ele>7.8</ele>
        <time>2021-05-16T07:44:52Z</time>
      </trkpt>
      <trkpt lat="41.2272040" lon="-8.7192720">
        <ele>7.9</ele>
        <time>2021-05-16T07:44:53Z</time>
      </trkpt>
      <trkpt lat="41.2272100" lon="-8.7192770">
        <ele>7.9</ele>
        <time>2021-05-16T07:44:54Z</time>
      </trkpt>
      <trkpt lat="41.2272270" lon="-8.7192910">
        <ele>7.9</ele>
        <time>2021-05-16T07:44:55Z</time>
      </trkpt>
      <trkpt lat="41.2272320" lon="-8.7193020">
        <ele>7.9</ele>
        <time>2021-05-16T07:44:56Z</time>
      </trkpt>
      <trkpt lat="41.2272430" lon="-8.7193100">
        <ele>7.9</ele>
        <time>2021-05-16T07:44:57Z</time>
      </trkpt>
      <trkpt lat="41.2272560" lon="-8.7193090">
        <ele>7.9</ele>
        <time>2021-05-16T07:44:58Z</time>
      </trkpt>
      <trkpt lat="41.2272630" lon="-8.7193140">
        <ele>7.9</ele>
        <time>2021-05-16T07:44:59Z</time>
      </trkpt>
      <trkpt lat="41.2272820" lon="-8.7193260">
        <ele>7.9</ele>
        <time>2021-05-16T07:45:00Z</time>
      </trkpt>
      <trkpt lat="41.2272910" lon="-8.7193330">
        <ele>7.9</ele>
        <time>2021-05-16T07:45:01Z</time>
      </trkpt>
      <trkpt lat="41.2273080" lon="-8.7193440">
        <ele>7.9</ele>
        <time>2021-05-16T07:45:02Z</time>
      </trkpt>
      <trkpt lat="41.2273200" lon="-8.7193560">
        <ele>7.9</ele>
        <time>2021-05-16T07:45:03Z</time>
      </trkpt>
      <trkpt lat="41.2273360" lon="-8.7193750">
        <ele>7.9</ele>
        <time>2021-05-16T07:45:04Z</time>
      </trkpt>
      <trkpt lat="41.2273440" lon="-8.7193830">
        <ele>8.0</ele>
        <time>2021-05-16T07:45:05Z</time>
      </trkpt>
      <trkpt lat="41.2273510" lon="-8.7193900">
        <ele>8.0</ele>
        <time>2021-05-16T07:45:06Z</time>
      </trkpt>
      <trkpt lat="41.2273690" lon="-8.7193930">
        <ele>8.0</ele>
        <time>2021-05-16T07:45:07Z</time>
      </trkpt>
      <trkpt lat="41.2273780" lon="-8.7193970">
        <ele>8.0</ele>
        <time>2021-05-16T07:45:08Z</time>
      </trkpt>
      <trkpt lat="41.2273980" lon="-8.7193990">
        <ele>8.0</ele>
        <time>2021-05-16T07:45:09Z</time>
      </trkpt>
      <trkpt lat="41.2274070" lon="-8.7194000">
        <ele>8.0</ele>
        <time>2021-05-16T07:45:10Z</time>
      </trkpt>
      <trkpt lat="41.2274160" lon="-8.7194020">
        <ele>8.0</ele>
        <time>2021-05-16T07:45:11Z</time>
      </trkpt>
      <trkpt lat="41.2274480" lon="-8.7193970">
        <ele>8.0</ele>
        <time>2021-05-16T07:45:12Z</time>
      </trkpt>
      <trkpt lat="41.2274570" lon="-8.7194000">
        <ele>8.0</ele>
        <time>2021-05-16T07:45:13Z</time>
      </trkpt>
      <trkpt lat="41.2274850" lon="-8.7194000">
        <ele>8.1</ele>
        <time>2021-05-16T07:45:14Z</time>
      </trkpt>
      <trkpt lat="41.2274950" lon="-8.7193980">
        <ele>8.1</ele>
        <time>2021-05-16T07:45:15Z</time>
      </trkpt>
      <trkpt lat="41.2275120" lon="-8.7194010">
        <ele>8.1</ele>
        <time>2021-05-16T07:45:16Z</time>
      </trkpt>
      <trkpt lat="41.2275270" lon="-8.7194060">
        <ele>8.1</ele>
        <time>2021-05-16T07:45:17Z</time>
      </trkpt>
      <trkpt lat="41.2275410" lon="-8.7194060">
        <ele>8.1</ele>
        <time>2021-05-16T07:45:18Z</time>
      </trkpt>
      <trkpt lat="41.2275560" lon="-8.7194140">
        <ele>8.1</ele>
        <time>2021-05-16T07:45:19Z</time>
      </trkpt>
      <trkpt lat="41.2275710" lon="-8.7194150">
        <ele>8.1</ele>
        <time>2021-05-16T07:45:20Z</time>
      </trkpt>
      <trkpt lat="41.2275780" lon="-8.7194170">
        <ele>8.1</ele>
        <time>2021-05-16T07:45:21Z</time>
      </trkpt>
      <trkpt lat="41.2275860" lon="-8.7194180">
        <ele>8.2</ele>
        <time>2021-05-16T07:45:22Z</time>
      </trkpt>
      <trkpt lat="41.2275930" lon="-8.7194190">
        <ele>8.2</ele>
        <time>2021-05-16T07:45:23Z</time>
      </trkpt>
      <trkpt lat="41.2276000" lon="-8.7194210">
        <ele>8.2</ele>
        <time>2021-05-16T07:45:24Z</time>
      </trkpt>
      <trkpt lat="41.2276070" lon="-8.7194220">
        <ele>8.2</ele>
        <time>2021-05-16T07:45:25Z</time>
      </trkpt>
      <trkpt lat="41.2276250" lon="-8.7194330">
        <ele>8.2</ele>
        <time>2021-05-16T07:45:26Z</time>
      </trkpt>
      <trkpt lat="41.2276330" lon="-8.7194370">
        <ele>8.2</ele>
        <time>2021-05-16T07:45:27Z</time>
      </trkpt>
      <trkpt lat="41.2276420" lon="-8.7194410">
        <ele>8.2</ele>
        <time>2021-05-16T07:45:28Z</time>
      </trkpt>
      <trkpt lat="41.2276500" lon="-8.7194450">
        <ele>8.2</ele>
        <time>2021-05-16T07:45:29Z</time>
      </trkpt>
      <trkpt lat="41.2276590" lon="-8.7194500">
        <ele>8.2</ele>
        <time>2021-05-16T07:45:30Z</time>
      </trkpt>
      <trkpt lat="41.2276670" lon="-8.7194540">
        <ele>8.2</ele>
        <time>2021-05-16T07:45:31Z</time>
      </trkpt>
      <trkpt lat="41.2276760" lon="-8.7194580">
        <ele>8.2</ele>
        <time>2021-05-16T07:45:32Z</time>
      </trkpt>
      <trkpt lat="41.2276840" lon="-8.7194620">
        <ele>8.2</ele>
        <time>2021-05-16T07:45:33Z</time>
      </trkpt>
      <trkpt lat="41.2276930" lon="-8.7194660">
        <ele>8.2</ele>
        <time>2021-05-16T07:45:34Z</time>
      </trkpt>
      <trkpt lat="41.2277210" lon="-8.7194670">
        <ele>8.3</ele>
        <time>2021-05-16T07:45:35Z</time>
      </trkpt>
      <trkpt lat="41.2277320" lon="-8.7194670">
        <ele>8.3</ele>
        <time>2021-05-16T07:45:36Z</time>
      </trkpt>
      <trkpt lat="41.2277500" lon="-8.7194700">
        <ele>8.3</ele>
        <time>2021-05-16T07:45:37Z</time>
      </trkpt>
      <trkpt lat="41.2277670" lon="-8.7194700">
        <ele>8.3</ele>
        <time>2021-05-16T07:45:38Z</time>
      </trkpt>
      <trkpt lat="41.2277850" lon="-8.7194700">
        <ele>8.3</ele>
        <time>2021-05-16T07:45:39Z</time>
      </trkpt>
      <trkpt lat="41.2278020" lon="-8.7194640">
        <ele>8.3</ele>
        <time>2021-05-16T07:45:40Z</time>
      </trkpt>
      <trkpt lat="41.2278220" lon="-8.7194710">
        <ele>8.4</ele>
        <time>2021-05-16T07:45:41Z</time>
      </trkpt>
      <trkpt lat="41.2278370" lon="-8.7194700">
        <ele>8.4</ele>
        <time>2021-05-16T07:45:42Z</time>
      </trkpt>
      <trkpt lat="41.2278540" lon="-8.7194700">
        <ele>8.4</ele>
        <time>2021-05-16T07:45:43Z</time>
      </trkpt>
      <trkpt lat="41.2278720" lon="-8.7194720">
        <ele>8.4</ele>
        <time>2021-05-16T07:45:44Z</time>
      </trkpt>
      <trkpt lat="41.2279010" lon="-8.7194690">
        <ele>8.4</ele>
        <time>2021-05-16T07:45:45Z</time>
      </trkpt>
      <trkpt lat="41.2279110" lon="-8.7194670">
        <ele>8.4</ele>
        <time>2021-05-16T07:45:46Z</time>
      </trkpt>
      <trkpt lat="41.2279280" lon="-8.7194660">
        <ele>8.4</ele>
        <time>2021-05-16T07:45:47Z</time>
      </trkpt>
      <trkpt lat="41.2279460" lon="-8.7194680">
        <ele>8.4</ele>
        <time>2021-05-16T07:45:48Z</time>
      </trkpt>
      <trkpt lat="41.2279630" lon="-8.7194710">
        <ele>8.4</ele>
        <time>2021-05-16T07:45:49Z</time>
      </trkpt>
      <trkpt lat="41.2279810" lon="-8.7194790">
        <ele>8.5</ele>
        <time>2021-05-16T07:45:50Z</time>
      </trkpt>
      <trkpt lat="41.2279970" lon="-8.7194870">
        <ele>8.5</ele>
        <time>2021-05-16T07:45:51Z</time>
      </trkpt>
      <trkpt lat="41.2280120" lon="-8.7194920">
        <ele>8.5</ele>
        <time>2021-05-16T07:45:52Z</time>
      </trkpt>
      <trkpt lat="41.2280290" lon="-8.7194910">
        <ele>8.5</ele>
        <time>2021-05-16T07:45:53Z</time>
      </trkpt>
      <trkpt lat="41.2280400" lon="-8.7194950">
        <ele>8.5</ele>
        <time>2021-05-16T07:45:54Z</time>
      </trkpt>
      <trkpt lat="41.2280550" lon="-8.7194930">
        <ele>8.5</ele>
        <time>2021-05-16T07:45:55Z</time>
      </trkpt>
      <trkpt lat="41.2280670" lon="-8.7194840">
        <ele>8.5</ele>
        <time>2021-05-16T07:45:56Z</time>
      </trkpt>
      <trkpt lat="41.2280840" lon="-8.7194840">
        <ele>8.5</ele>
        <time>2021-05-16T07:45:57Z</time>
      </trkpt>
      <trkpt lat="41.2280980" lon="-8.7194820">
        <ele>8.5</ele>
        <time>2021-05-16T07:45:58Z</time>
      </trkpt>
      <trkpt lat="41.2281240" lon="-8.7194720">
        <ele>8.5</ele>
        <time>2021-05-16T07:45:59Z</time>
      </trkpt>
      <trkpt lat="41.2281330" lon="-8.7194690">
        <ele>8.5</ele>
        <time>2021-05-16T07:46:00Z</time>
      </trkpt>
      <trkpt lat="41.2281490" lon="-8.7194730">
        <ele>8.5</ele>
        <time>2021-05-16T07:46:01Z</time>
      </trkpt>
      <trkpt lat="41.2281660" lon="-8.7194740">
        <ele>8.5</ele>
        <time>2021-05-16T07:46:02Z</time>
      </trkpt>
      <trkpt lat="41.2281790" lon="-8.7194740">
        <ele>8.5</ele>
        <time>2021-05-16T07:46:03Z</time>
      </trkpt>
      <trkpt lat="41.2281930" lon="-8.7194710">
        <ele>8.5</ele>
        <time>2021-05-16T07:46:04Z</time>
      </trkpt>
      <trkpt lat="41.2282070" lon="-8.7194780">
        <ele>8.4</ele>
        <time>2021-05-16T07:46:05Z</time>
      </trkpt>
      <trkpt lat="41.2282230" lon="-8.7194810">
        <ele>8.4</ele>
        <time>2021-05-16T07:46:06Z</time>
      </trkpt>
      <trkpt lat="41.2282360" lon="-8.7194700">
        <ele>8.4</ele>
        <time>2021-05-16T07:46:07Z</time>
      </trkpt>
      <trkpt lat="41.2282540" lon="-8.7194670">
        <ele>8.4</ele>
        <time>2021-05-16T07:46:08Z</time>
      </trkpt>
      <trkpt lat="41.2282700" lon="-8.7194630">
        <ele>8.4</ele>
        <time>2021-05-16T07:46:09Z</time>
      </trkpt>
      <trkpt lat="41.2282870" lon="-8.7194630">
        <ele>8.4</ele>
        <time>2021-05-16T07:46:10Z</time>
      </trkpt>
      <trkpt lat="41.2283070" lon="-8.7194540">
        <ele>8.4</ele>
        <time>2021-05-16T07:46:11Z</time>
      </trkpt>
      <trkpt lat="41.2283210" lon="-8.7194500">
        <ele>8.4</ele>
        <time>2021-05-16T07:46:12Z</time>
      </trkpt>
      <trkpt lat="41.2283370" lon="-8.7194480">
        <ele>8.4</ele>
        <time>2021-05-16T07:46:13Z</time>
      </trkpt>
      <trkpt lat="41.2283520" lon="-8.7194470">
        <ele>8.4</ele>
        <time>2021-05-16T07:46:14Z</time>
      </trkpt>
      <trkpt lat="41.2283670" lon="-8.7194450">
        <ele>8.3</ele>
        <time>2021-05-16T07:46:15Z</time>
      </trkpt>
      <trkpt lat="41.2283830" lon="-8.7194450">
        <ele>8.3</ele>
        <time>2021-05-16T07:46:16Z</time>
      </trkpt>
      <trkpt lat="41.2283990" lon="-8.7194460">
        <ele>8.3</ele>
        <time>2021-05-16T07:46:17Z</time>
      </trkpt>
      <trkpt lat="41.2284150" lon="-8.7194410">
        <ele>8.3</ele>
        <time>2021-05-16T07:46:18Z</time>
      </trkpt>
      <trkpt lat="41.2284310" lon="-8.7194330">
        <ele>8.3</ele>
        <time>2021-05-16T07:46:19Z</time>
      </trkpt>
      <trkpt lat="41.2284450" lon="-8.7194290">
        <ele>8.3</ele>
        <time>2021-05-16T07:46:20Z</time>
      </trkpt>
      <trkpt lat="41.2284650" lon="-8.7194270">
        <ele>8.3</ele>
        <time>2021-05-16T07:46:21Z</time>
      </trkpt>
      <trkpt lat="41.2284730" lon="-8.7194250">
        <ele>8.2</ele>
        <time>2021-05-16T07:46:22Z</time>
      </trkpt>
      <trkpt lat="41.2284820" lon="-8.7194220">
        <ele>8.2</ele>
        <time>2021-05-16T07:46:23Z</time>
      </trkpt>
      <trkpt lat="41.2285020" lon="-8.7194200">
        <ele>8.2</ele>
        <time>2021-05-16T07:46:24Z</time>
      </trkpt>
      <trkpt lat="41.2285110" lon="-8.7194190">
        <ele>8.2</ele>
        <time>2021-05-16T07:46:25Z</time>
      </trkpt>
      <trkpt lat="41.2285200" lon="-8.7194190">
        <ele>8.2</ele>
        <time>2021-05-16T07:46:26Z</time>
      </trkpt>
      <trkpt lat="41.2285330" lon="-8.7194100">
        <ele>8.2</ele>
        <time>2021-05-16T07:46:27Z</time>
      </trkpt>
      <trkpt lat="41.2285450" lon="-8.7194080">
        <ele>8.1</ele>
        <time>2021-05-16T07:46:28Z</time>
      </trkpt>
      <trkpt lat="41.2285540" lon="-8.7194150">
        <ele>8.1</ele>
        <time>2021-05-16T07:46:29Z</time>
      </trkpt>
      <trkpt lat="41.2285640" lon="-8.7194060">
        <ele>8.1</ele>
        <time>2021-05-16T07:46:30Z</time>
      </trkpt>
      <trkpt lat="41.2285750" lon="-8.7194020">
        <ele>8.1</ele>
        <time>2021-05-16T07:46:31Z</time>
      </trkpt>
      <trkpt lat="41.2285880" lon="-8.7193980">
        <ele>8.1</ele>
        <time>2021-05-16T07:46:32Z</time>
      </trkpt>
      <trkpt lat="41.2285970" lon="-8.7193920">
        <ele>8.1</ele>
        <time>2021-05-16T07:46:33Z</time>
      </trkpt>
      <trkpt lat="41.2286090" lon="-8.7193880">
        <ele>8.0</ele>
        <time>2021-05-16T07:46:34Z</time>
      </trkpt>
      <trkpt lat="41.2286230" lon="-8.7193860">
        <ele>8.0</ele>
        <time>2021-05-16T07:46:35Z</time>
      </trkpt>
      <trkpt lat="41.2286440" lon="-8.7193770">
        <ele>8.0</ele>
        <time>2021-05-16T07:46:36Z</time>
      </trkpt>
      <trkpt lat="41.2286520" lon="-8.7193750">
        <ele>7.9</ele>
        <time>2021-05-16T07:46:37Z</time>
      </trkpt>
      <trkpt lat="41.2286610" lon="-8.7193730">
        <ele>7.9</ele>
        <time>2021-05-16T07:46:38Z</time>
      </trkpt>
      <trkpt lat="41.2286740" lon="-8.7193670">
        <ele>7.9</ele>
        <time>2021-05-16T07:46:39Z</time>
      </trkpt>
      <trkpt lat="41.2286860" lon="-8.7193610">
        <ele>7.9</ele>
        <time>2021-05-16T07:46:40Z</time>
      </trkpt>
      <trkpt lat="41.2287020" lon="-8.7193440">
        <ele>7.8</ele>
        <time>2021-05-16T07:46:41Z</time>
      </trkpt>
      <trkpt lat="41.2287090" lon="-8.7193360">
        <ele>7.8</ele>
        <time>2021-05-16T07:46:42Z</time>
      </trkpt>
      <trkpt lat="41.2287170" lon="-8.7193270">
        <ele>7.8</ele>
        <time>2021-05-16T07:46:43Z</time>
      </trkpt>
      <trkpt lat="41.2287350" lon="-8.7193170">
        <ele>7.8</ele>
        <time>2021-05-16T07:46:44Z</time>
      </trkpt>
      <trkpt lat="41.2287440" lon="-8.7193160">
        <ele>7.7</ele>
        <time>2021-05-16T07:46:45Z</time>
      </trkpt>
      <trkpt lat="41.2287530" lon="-8.7193160">
        <ele>7.7</ele>
        <time>2021-05-16T07:46:46Z</time>
      </trkpt>
      <trkpt lat="41.2287790" lon="-8.7193120">
        <ele>7.7</ele>
        <time>2021-05-16T07:46:47Z</time>
      </trkpt>
      <trkpt lat="41.2287880" lon="-8.7193130">
        <ele>7.6</ele>
        <time>2021-05-16T07:46:48Z</time>
      </trkpt>
      <trkpt lat="41.2287980" lon="-8.7193130">
        <ele>7.6</ele>
        <time>2021-05-16T07:46:49Z</time>
      </trkpt>
      <trkpt lat="41.2288190" lon="-8.7193100">
        <ele>7.6</ele>
        <time>2021-05-16T07:46:50Z</time>
      </trkpt>
      <trkpt lat="41.2288270" lon="-8.7193120">
        <ele>7.6</ele>
        <time>2021-05-16T07:46:51Z</time>
      </trkpt>
      <trkpt lat="41.2288350" lon="-8.7193140">
        <ele>7.5</ele>
        <time>2021-05-16T07:46:52Z</time>
      </trkpt>
      <trkpt lat="41.2288500" lon="-8.7193100">
        <ele>7.5</ele>
        <time>2021-05-16T07:46:53Z</time>
      </trkpt>
      <trkpt lat="41.2288650" lon="-8.7193090">
        <ele>7.5</ele>
        <time>2021-05-16T07:46:54Z</time>
      </trkpt>
      <trkpt lat="41.2288760" lon="-8.7193010">
        <ele>7.4</ele>
        <time>2021-05-16T07:46:55Z</time>
      </trkpt>
      <trkpt lat="41.2288830" lon="-8.7193010">
        <ele>7.4</ele>
        <time>2021-05-16T07:46:56Z</time>
      </trkpt>
      <trkpt lat="41.2288910" lon="-8.7193000">
        <ele>7.4</ele>
        <time>2021-05-16T07:46:57Z</time>
      </trkpt>
      <trkpt lat="41.2288980" lon="-8.7193000">
        <ele>7.4</ele>
        <time>2021-05-16T07:46:58Z</time>
      </trkpt>
      <trkpt lat="41.2289050" lon="-8.7192990">
        <ele>7.4</ele>
        <time>2021-05-16T07:46:59Z</time>
      </trkpt>
      <trkpt lat="41.2289230" lon="-8.7192930">
        <ele>7.3</ele>
        <time>2021-05-16T07:47:00Z</time>
      </trkpt>
      <trkpt lat="41.2289350" lon="-8.7192910">
        <ele>7.3</ele>
        <time>2021-05-16T07:47:01Z</time>
      </trkpt>
      <trkpt lat="41.2289460" lon="-8.7192890">
        <ele>7.3</ele>
        <time>2021-05-16T07:47:02Z</time>
      </trkpt>
      <trkpt lat="41.2289660" lon="-8.7192850">
        <ele>7.3</ele>
        <time>2021-05-16T07:47:03Z</time>
      </trkpt>
      <trkpt lat="41.2289780" lon="-8.7192720">
        <ele>7.2</ele>
        <time>2021-05-16T07:47:04Z</time>
      </trkpt>
      <trkpt lat="41.2289900" lon="-8.7192670">
        <ele>7.2</ele>
        <time>2021-05-16T07:47:05Z</time>
      </trkpt>
      <trkpt lat="41.2290110" lon="-8.7192660">
        <ele>7.2</ele>
        <time>2021-05-16T07:47:06Z</time>
      </trkpt>
      <trkpt lat="41.2290210" lon="-8.7192620">
        <ele>7.2</ele>
        <time>2021-05-16T07:47:07Z</time>
      </trkpt>
      <trkpt lat="41.2290310" lon="-8.7192590">
        <ele>7.1</ele>
        <time>2021-05-16T07:47:08Z</time>
      </trkpt>
      <trkpt lat="41.2290500" lon="-8.7192570">
        <ele>7.1</ele>
        <time>2021-05-16T07:47:09Z</time>
      </trkpt>
      <trkpt lat="41.2290590" lon="-8.7192470">
        <ele>7.1</ele>
        <time>2021-05-16T07:47:10Z</time>
      </trkpt>
      <trkpt lat="41.2290910" lon="-8.7192500">
        <ele>7.1</ele>
        <time>2021-05-16T07:47:11Z</time>
      </trkpt>
      <trkpt lat="41.2291030" lon="-8.7192530">
        <ele>7.1</ele>
        <time>2021-05-16T07:47:12Z</time>
      </trkpt>
      <trkpt lat="41.2291310" lon="-8.7192510">
        <ele>7.1</ele>
        <time>2021-05-16T07:47:13Z</time>
      </trkpt>
      <trkpt lat="41.2291620" lon="-8.7192450">
        <ele>7.0</ele>
        <time>2021-05-16T07:47:14Z</time>
      </trkpt>
      <trkpt lat="41.2291720" lon="-8.7192430">
        <ele>7.0</ele>
        <time>2021-05-16T07:47:15Z</time>
      </trkpt>
      <trkpt lat="41.2292020" lon="-8.7192430">
        <ele>7.0</ele>
        <time>2021-05-16T07:47:16Z</time>
      </trkpt>
      <trkpt lat="41.2292090" lon="-8.7192470">
        <ele>7.0</ele>
        <time>2021-05-16T07:47:17Z</time>
      </trkpt>
      <trkpt lat="41.2292250" lon="-8.7192490">
        <ele>7.0</ele>
        <time>2021-05-16T07:47:18Z</time>
      </trkpt>
      <trkpt lat="41.2292380" lon="-8.7192450">
        <ele>7.0</ele>
        <time>2021-05-16T07:47:19Z</time>
      </trkpt>
      <trkpt lat="41.2292490" lon="-8.7192450">
        <ele>7.0</ele>
        <time>2021-05-16T07:47:20Z</time>
      </trkpt>
      <trkpt lat="41.2292570" lon="-8.7192440">
        <ele>7.0</ele>
        <time>2021-05-16T07:47:21Z</time>
      </trkpt>
      <trkpt lat="41.2292670" lon="-8.7192450">
        <ele>6.9</ele>
        <time>2021-05-16T07:47:22Z</time>
      </trkpt>
      <trkpt lat="41.2292870" lon="-8.7192450">
        <ele>6.9</ele>
        <time>2021-05-16T07:47:23Z</time>
      </trkpt>
      <trkpt lat="41.2293030" lon="-8.7192470">
        <ele>6.9</ele>
        <time>2021-05-16T07:47:24Z</time>
      </trkpt>
      <trkpt lat="41.2293170" lon="-8.7192370">
        <ele>6.9</ele>
        <time>2021-05-16T07:47:25Z</time>
      </trkpt>
      <trkpt lat="41.2293300" lon="-8.7192320">
        <ele>6.9</ele>
        <time>2021-05-16T07:47:26Z</time>
      </trkpt>
      <trkpt lat="41.2293400" lon="-8.7192280">
        <ele>6.9</ele>
        <time>2021-05-16T07:47:27Z</time>
      </trkpt>
      <trkpt lat="41.2293530" lon="-8.7192250">
        <ele>6.9</ele>
        <time>2021-05-16T07:47:28Z</time>
      </trkpt>
      <trkpt lat="41.2293640" lon="-8.7192210">
        <ele>6.9</ele>
        <time>2021-05-16T07:47:29Z</time>
      </trkpt>
      <trkpt lat="41.2293730" lon="-8.7192250">
        <ele>6.9</ele>
        <time>2021-05-16T07:47:30Z</time>
      </trkpt>
      <trkpt lat="41.2293840" lon="-8.7192320">
        <ele>6.9</ele>
        <time>2021-05-16T07:47:31Z</time>
      </trkpt>
      <trkpt lat="41.2293920" lon="-8.7192390">
        <ele>6.8</ele>
        <time>2021-05-16T07:47:32Z</time>
      </trkpt>
      <trkpt lat="41.2294060" lon="-8.7192390">
        <ele>6.8</ele>
        <time>2021-05-16T07:47:33Z</time>
      </trkpt>
      <trkpt lat="41.2294250" lon="-8.7192430">
        <ele>6.8</ele>
        <time>2021-05-16T07:47:34Z</time>
      </trkpt>
      <trkpt lat="41.2294410" lon="-8.7192460">
        <ele>6.8</ele>
        <time>2021-05-16T07:47:35Z</time>
      </trkpt>
      <trkpt lat="41.2294560" lon="-8.7192440">
        <ele>6.8</ele>
        <time>2021-05-16T07:47:36Z</time>
      </trkpt>
      <trkpt lat="41.2294900" lon="-8.7192510">
        <ele>6.8</ele>
        <time>2021-05-16T07:47:37Z</time>
      </trkpt>
      <trkpt lat="41.2295010" lon="-8.7192580">
        <ele>6.8</ele>
        <time>2021-05-16T07:47:38Z</time>
      </trkpt>
      <trkpt lat="41.2295150" lon="-8.7192570">
        <ele>6.8</ele>
        <time>2021-05-16T07:47:39Z</time>
      </trkpt>
      <trkpt lat="41.2295260" lon="-8.7192580">
        <ele>6.8</ele>
        <time>2021-05-16T07:47:40Z</time>
      </trkpt>
      <trkpt lat="41.2295360" lon="-8.7192620">
        <ele>6.8</ele>
        <time>2021-05-16T07:47:41Z</time>
      </trkpt>
      <trkpt lat="41.2295510" lon="-8.7192670">
        <ele>6.8</ele>
        <time>2021-05-16T07:47:42Z</time>
      </trkpt>
      <trkpt lat="41.2295640" lon="-8.7192770">
        <ele>6.9</ele>
        <time>2021-05-16T07:47:43Z</time>
      </trkpt>
      <trkpt lat="41.2295850" lon="-8.7192830">
        <ele>6.9</ele>
        <time>2021-05-16T07:47:44Z</time>
      </trkpt>
      <trkpt lat="41.2295930" lon="-8.7192830">
        <ele>6.9</ele>
        <time>2021-05-16T07:47:45Z</time>
      </trkpt>
      <trkpt lat="41.2296020" lon="-8.7192830">
        <ele>6.9</ele>
        <time>2021-05-16T07:47:46Z</time>
      </trkpt>
      <trkpt lat="41.2296330" lon="-8.7192780">
        <ele>6.9</ele>
        <time>2021-05-16T07:47:47Z</time>
      </trkpt>
      <trkpt lat="41.2296420" lon="-8.7192760">
        <ele>6.9</ele>
        <time>2021-05-16T07:47:48Z</time>
      </trkpt>
      <trkpt lat="41.2296590" lon="-8.7192770">
        <ele>6.9</ele>
        <time>2021-05-16T07:47:49Z</time>
      </trkpt>
      <trkpt lat="41.2296770" lon="-8.7192770">
        <ele>6.9</ele>
        <time>2021-05-16T07:47:50Z</time>
      </trkpt>
      <trkpt lat="41.2296960" lon="-8.7192730">
        <ele>6.9</ele>
        <time>2021-05-16T07:47:51Z</time>
      </trkpt>
      <trkpt lat="41.2297130" lon="-8.7192760">
        <ele>6.9</ele>
        <time>2021-05-16T07:47:52Z</time>
      </trkpt>
      <trkpt lat="41.2297270" lon="-8.7192720">
        <ele>6.9</ele>
        <time>2021-05-16T07:47:53Z</time>
      </trkpt>
      <trkpt lat="41.2297430" lon="-8.7192780">
        <ele>6.9</ele>
        <time>2021-05-16T07:47:54Z</time>
      </trkpt>
      <trkpt lat="41.2297610" lon="-8.7192800">
        <ele>6.9</ele>
        <time>2021-05-16T07:47:55Z</time>
      </trkpt>
      <trkpt lat="41.2297760" lon="-8.7192720">
        <ele>6.9</ele>
        <time>2021-05-16T07:47:56Z</time>
      </trkpt>
      <trkpt lat="41.2297890" lon="-8.7192720">
        <ele>6.9</ele>
        <time>2021-05-16T07:47:57Z</time>
      </trkpt>
      <trkpt lat="41.2298060" lon="-8.7192650">
        <ele>6.9</ele>
        <time>2021-05-16T07:47:58Z</time>
      </trkpt>
      <trkpt lat="41.2298230" lon="-8.7192640">
        <ele>6.9</ele>
        <time>2021-05-16T07:47:59Z</time>
      </trkpt>
      <trkpt lat="41.2298380" lon="-8.7192680">
        <ele>6.9</ele>
        <time>2021-05-16T07:48:00Z</time>
      </trkpt>
      <trkpt lat="41.2298660" lon="-8.7192700">
        <ele>6.9</ele>
        <time>2021-05-16T07:48:01Z</time>
      </trkpt>
      <trkpt lat="41.2298750" lon="-8.7192690">
        <ele>6.9</ele>
        <time>2021-05-16T07:48:02Z</time>
      </trkpt>
      <trkpt lat="41.2298890" lon="-8.7192640">
        <ele>6.9</ele>
        <time>2021-05-16T07:48:03Z</time>
      </trkpt>
      <trkpt lat="41.2299040" lon="-8.7192570">
        <ele>6.9</ele>
        <time>2021-05-16T07:48:04Z</time>
      </trkpt>
      <trkpt lat="41.2299310" lon="-8.7192630">
        <ele>6.9</ele>
        <time>2021-05-16T07:48:05Z</time>
      </trkpt>
      <trkpt lat="41.2299400" lon="-8.7192640">
        <ele>6.9</ele>
        <time>2021-05-16T07:48:06Z</time>
      </trkpt>
      <trkpt lat="41.2299570" lon="-8.7192530">
        <ele>6.9</ele>
        <time>2021-05-16T07:48:07Z</time>
      </trkpt>
      <trkpt lat="41.2299700" lon="-8.7192430">
        <ele>6.9</ele>
        <time>2021-05-16T07:48:08Z</time>
      </trkpt>
      <trkpt lat="41.2299850" lon="-8.7192410">
        <ele>6.9</ele>
        <time>2021-05-16T07:48:09Z</time>
      </trkpt>
      <trkpt lat="41.2299990" lon="-8.7192410">
        <ele>6.9</ele>
        <time>2021-05-16T07:48:10Z</time>
      </trkpt>
      <trkpt lat="41.2300130" lon="-8.7192350">
        <ele>6.9</ele>
        <time>2021-05-16T07:48:11Z</time>
      </trkpt>
      <trkpt lat="41.2300290" lon="-8.7192400">
        <ele>6.9</ele>
        <time>2021-05-16T07:48:12Z</time>
      </trkpt>
      <trkpt lat="41.2300450" lon="-8.7192300">
        <ele>6.9</ele>
        <time>2021-05-16T07:48:13Z</time>
      </trkpt>
      <trkpt lat="41.2300620" lon="-8.7192290">
        <ele>6.9</ele>
        <time>2021-05-16T07:48:14Z</time>
      </trkpt>
      <trkpt lat="41.2300830" lon="-8.7192310">
        <ele>6.9</ele>
        <time>2021-05-16T07:48:15Z</time>
      </trkpt>
      <trkpt lat="41.2300920" lon="-8.7192330">
        <ele>6.9</ele>
        <time>2021-05-16T07:48:16Z</time>
      </trkpt>
      <trkpt lat="41.2301010" lon="-8.7192360">
        <ele>6.9</ele>
        <time>2021-05-16T07:48:17Z</time>
      </trkpt>
      <trkpt lat="41.2301140" lon="-8.7192430">
        <ele>6.9</ele>
        <time>2021-05-16T07:48:18Z</time>
      </trkpt>
      <trkpt lat="41.2301320" lon="-8.7192520">
        <ele>6.9</ele>
        <time>2021-05-16T07:48:19Z</time>
      </trkpt>
      <trkpt lat="41.2301460" lon="-8.7192540">
        <ele>6.9</ele>
        <time>2021-05-16T07:48:20Z</time>
      </trkpt>
      <trkpt lat="41.2301610" lon="-8.7192560">
        <ele>6.9</ele>
        <time>2021-05-16T07:48:21Z</time>
      </trkpt>
      <trkpt lat="41.2301760" lon="-8.7192620">
        <ele>6.9</ele>
        <time>2021-05-16T07:48:22Z</time>
      </trkpt>
      <trkpt lat="41.2301930" lon="-8.7192650">
        <ele>6.9</ele>
        <time>2021-05-16T07:48:23Z</time>
      </trkpt>
      <trkpt lat="41.2302190" lon="-8.7192810">
        <ele>6.9</ele>
        <time>2021-05-16T07:48:24Z</time>
      </trkpt>
      <trkpt lat="41.2302270" lon="-8.7192830">
        <ele>6.9</ele>
        <time>2021-05-16T07:48:25Z</time>
      </trkpt>
      <trkpt lat="41.2302420" lon="-8.7192900">
        <ele>6.9</ele>
        <time>2021-05-16T07:48:26Z</time>
      </trkpt>
      <trkpt lat="41.2302590" lon="-8.7192930">
        <ele>6.9</ele>
        <time>2021-05-16T07:48:27Z</time>
      </trkpt>
      <trkpt lat="41.2302740" lon="-8.7192980">
        <ele>6.9</ele>
        <time>2021-05-16T07:48:28Z</time>
      </trkpt>
      <trkpt lat="41.2302910" lon="-8.7193110">
        <ele>6.9</ele>
        <time>2021-05-16T07:48:29Z</time>
      </trkpt>
      <trkpt lat="41.2303080" lon="-8.7193170">
        <ele>6.9</ele>
        <time>2021-05-16T07:48:30Z</time>
      </trkpt>
      <trkpt lat="41.2303240" lon="-8.7193210">
        <ele>6.9</ele>
        <time>2021-05-16T07:48:31Z</time>
      </trkpt>
      <trkpt lat="41.2303380" lon="-8.7193290">
        <ele>6.9</ele>
        <time>2021-05-16T07:48:32Z</time>
      </trkpt>
      <trkpt lat="41.2303520" lon="-8.7193350">
        <ele>6.9</ele>
        <time>2021-05-16T07:48:33Z</time>
      </trkpt>
      <trkpt lat="41.2303650" lon="-8.7193400">
        <ele>6.9</ele>
        <time>2021-05-16T07:48:34Z</time>
      </trkpt>
      <trkpt lat="41.2303790" lon="-8.7193450">
        <ele>6.9</ele>
        <time>2021-05-16T07:48:35Z</time>
      </trkpt>
      <trkpt lat="41.2303930" lon="-8.7193480">
        <ele>6.9</ele>
        <time>2021-05-16T07:48:36Z</time>
      </trkpt>
      <trkpt lat="41.2304090" lon="-8.7193560">
        <ele>6.9</ele>
        <time>2021-05-16T07:48:37Z</time>
      </trkpt>
      <trkpt lat="41.2304250" lon="-8.7193580">
        <ele>6.9</ele>
        <time>2021-05-16T07:48:38Z</time>
      </trkpt>
      <trkpt lat="41.2304380" lon="-8.7193650">
        <ele>6.9</ele>
        <time>2021-05-16T07:48:39Z</time>
      </trkpt>
      <trkpt lat="41.2304520" lon="-8.7193690">
        <ele>6.9</ele>
        <time>2021-05-16T07:48:40Z</time>
      </trkpt>
      <trkpt lat="41.2304670" lon="-8.7193730">
        <ele>6.9</ele>
        <time>2021-05-16T07:48:41Z</time>
      </trkpt>
      <trkpt lat="41.2304830" lon="-8.7193750">
        <ele>6.9</ele>
        <time>2021-05-16T07:48:42Z</time>
      </trkpt>
      <trkpt lat="41.2304960" lon="-8.7193840">
        <ele>6.9</ele>
        <time>2021-05-16T07:48:43Z</time>
      </trkpt>
      <trkpt lat="41.2305220" lon="-8.7193960">
        <ele>6.9</ele>
        <time>2021-05-16T07:48:44Z</time>
      </trkpt>
      <trkpt lat="41.2305310" lon="-8.7193980">
        <ele>6.9</ele>
        <time>2021-05-16T07:48:45Z</time>
      </trkpt>
      <trkpt lat="41.2305470" lon="-8.7194010">
        <ele>6.9</ele>
        <time>2021-05-16T07:48:46Z</time>
      </trkpt>
      <trkpt lat="41.2305640" lon="-8.7194020">
        <ele>6.9</ele>
        <time>2021-05-16T07:48:47Z</time>
      </trkpt>
      <trkpt lat="41.2305800" lon="-8.7194050">
        <ele>6.9</ele>
        <time>2021-05-16T07:48:48Z</time>
      </trkpt>
      <trkpt lat="41.2305930" lon="-8.7194100">
        <ele>6.9</ele>
        <time>2021-05-16T07:48:49Z</time>
      </trkpt>
      <trkpt lat="41.2306070" lon="-8.7194200">
        <ele>6.9</ele>
        <time>2021-05-16T07:48:50Z</time>
      </trkpt>
      <trkpt lat="41.2306210" lon="-8.7194250">
        <ele>6.9</ele>
        <time>2021-05-16T07:48:51Z</time>
      </trkpt>
      <trkpt lat="41.2306350" lon="-8.7194310">
        <ele>6.9</ele>
        <time>2021-05-16T07:48:52Z</time>
      </trkpt>
      <trkpt lat="41.2306340" lon="-8.7194340">
        <ele>6.9</ele>
        <time>2021-05-16T07:48:53Z</time>
      </trkpt>
      <trkpt lat="41.2306340" lon="-8.7194340">
        <ele>6.9</ele>
        <time>2021-05-16T07:48:54Z</time>
      </trkpt>
      <trkpt lat="41.2306460" lon="-8.7194430">
        <ele>6.9</ele>
        <time>2021-05-16T07:48:55Z</time>
      </trkpt>
      <trkpt lat="41.2306620" lon="-8.7194540">
        <ele>6.9</ele>
        <time>2021-05-16T07:48:56Z</time>
      </trkpt>
      <trkpt lat="41.2306730" lon="-8.7194630">
        <ele>6.9</ele>
        <time>2021-05-16T07:48:57Z</time>
      </trkpt>
      <trkpt lat="41.2306950" lon="-8.7194650">
        <ele>6.9</ele>
        <time>2021-05-16T07:48:58Z</time>
      </trkpt>
      <trkpt lat="41.2307040" lon="-8.7194670">
        <ele>6.9</ele>
        <time>2021-05-16T07:48:59Z</time>
      </trkpt>
      <trkpt lat="41.2307130" lon="-8.7194680">
        <ele>6.9</ele>
        <time>2021-05-16T07:49:00Z</time>
      </trkpt>
      <trkpt lat="41.2307300" lon="-8.7194760">
        <ele>6.9</ele>
        <time>2021-05-16T07:49:01Z</time>
      </trkpt>
      <trkpt lat="41.2307460" lon="-8.7194830">
        <ele>6.9</ele>
        <time>2021-05-16T07:49:02Z</time>
      </trkpt>
      <trkpt lat="41.2307630" lon="-8.7194900">
        <ele>6.9</ele>
        <time>2021-05-16T07:49:03Z</time>
      </trkpt>
      <trkpt lat="41.2307800" lon="-8.7194920">
        <ele>6.9</ele>
        <time>2021-05-16T07:49:04Z</time>
      </trkpt>
      <trkpt lat="41.2307950" lon="-8.7194940">
        <ele>6.9</ele>
        <time>2021-05-16T07:49:05Z</time>
      </trkpt>
      <trkpt lat="41.2308120" lon="-8.7195010">
        <ele>6.9</ele>
        <time>2021-05-16T07:49:06Z</time>
      </trkpt>
      <trkpt lat="41.2308260" lon="-8.7195010">
        <ele>6.9</ele>
        <time>2021-05-16T07:49:07Z</time>
      </trkpt>
      <trkpt lat="41.2308400" lon="-8.7195060">
        <ele>6.9</ele>
        <time>2021-05-16T07:49:08Z</time>
      </trkpt>
      <trkpt lat="41.2308560" lon="-8.7195120">
        <ele>6.9</ele>
        <time>2021-05-16T07:49:09Z</time>
      </trkpt>
      <trkpt lat="41.2308720" lon="-8.7195150">
        <ele>6.9</ele>
        <time>2021-05-16T07:49:10Z</time>
      </trkpt>
      <trkpt lat="41.2308860" lon="-8.7195200">
        <ele>6.9</ele>
        <time>2021-05-16T07:49:11Z</time>
      </trkpt>
      <trkpt lat="41.2309010" lon="-8.7195230">
        <ele>6.9</ele>
        <time>2021-05-16T07:49:12Z</time>
      </trkpt>
      <trkpt lat="41.2309160" lon="-8.7195270">
        <ele>7.0</ele>
        <time>2021-05-16T07:49:13Z</time>
      </trkpt>
      <trkpt lat="41.2309310" lon="-8.7195280">
        <ele>7.0</ele>
        <time>2021-05-16T07:49:14Z</time>
      </trkpt>
      <trkpt lat="41.2309450" lon="-8.7195290">
        <ele>7.0</ele>
        <time>2021-05-16T07:49:15Z</time>
      </trkpt>
      <trkpt lat="41.2309630" lon="-8.7195360">
        <ele>7.0</ele>
        <time>2021-05-16T07:49:16Z</time>
      </trkpt>
      <trkpt lat="41.2309780" lon="-8.7195470">
        <ele>7.0</ele>
        <time>2021-05-16T07:49:17Z</time>
      </trkpt>
      <trkpt lat="41.2309890" lon="-8.7195600">
        <ele>7.0</ele>
        <time>2021-05-16T07:49:18Z</time>
      </trkpt>
      <trkpt lat="41.2309950" lon="-8.7195660">
        <ele>7.0</ele>
        <time>2021-05-16T07:49:19Z</time>
      </trkpt>
      <trkpt lat="41.2309970" lon="-8.7195790">
        <ele>7.0</ele>
        <time>2021-05-16T07:49:20Z</time>
      </trkpt>
      <trkpt lat="41.2310080" lon="-8.7195930">
        <ele>7.0</ele>
        <time>2021-05-16T07:49:21Z</time>
      </trkpt>
      <trkpt lat="41.2310120" lon="-8.7196050">
        <ele>7.0</ele>
        <time>2021-05-16T07:49:22Z</time>
      </trkpt>
      <trkpt lat="41.2310080" lon="-8.7196120">
        <ele>7.0</ele>
        <time>2021-05-16T07:49:23Z</time>
      </trkpt>
      <trkpt lat="41.2310020" lon="-8.7196110">
        <ele>7.0</ele>
        <time>2021-05-16T07:49:24Z</time>
      </trkpt>
      <trkpt lat="41.2309940" lon="-8.7196110">
        <ele>7.0</ele>
        <time>2021-05-16T07:49:25Z</time>
      </trkpt>
      <trkpt lat="41.2309910" lon="-8.7196160">
        <ele>7.0</ele>
        <time>2021-05-16T07:49:26Z</time>
      </trkpt>
      <trkpt lat="41.2309900" lon="-8.7196230">
        <ele>7.0</ele>
        <time>2021-05-16T07:49:27Z</time>
      </trkpt>
      <trkpt lat="41.2309870" lon="-8.7196190">
        <ele>7.0</ele>
        <time>2021-05-16T07:49:28Z</time>
      </trkpt>
      <trkpt lat="41.2309850" lon="-8.7196160">
        <ele>7.0</ele>
        <time>2021-05-16T07:49:29Z</time>
      </trkpt>
      <trkpt lat="41.2309840" lon="-8.7196130">
        <ele>7.0</ele>
        <time>2021-05-16T07:49:30Z</time>
      </trkpt>
      <trkpt lat="41.2309830" lon="-8.7196110">
        <ele>7.0</ele>
        <time>2021-05-16T07:49:31Z</time>
      </trkpt>
      <trkpt lat="41.2309820" lon="-8.7196110">
        <ele>7.0</ele>
        <time>2021-05-16T07:49:32Z</time>
      </trkpt>
      <trkpt lat="41.2309810" lon="-8.7196100">
        <ele>7.0</ele>
        <time>2021-05-16T07:49:33Z</time>
      </trkpt>
      <trkpt lat="41.2309790" lon="-8.7196080">
        <ele>7.0</ele>
        <time>2021-05-16T07:49:34Z</time>
      </trkpt>
      <trkpt lat="41.2309690" lon="-8.7196010">
        <ele>7.0</ele>
        <time>2021-05-16T07:49:35Z</time>
      </trkpt>
      <trkpt lat="41.2309680" lon="-8.7196020">
        <ele>7.0</ele>
        <time>2021-05-16T07:49:36Z</time>
      </trkpt>
      <trkpt lat="41.2309700" lon="-8.7196020">
        <ele>7.0</ele>
        <time>2021-05-16T07:49:37Z</time>
      </trkpt>
      <trkpt lat="41.2309710" lon="-8.7196010">
        <ele>7.0</ele>
        <time>2021-05-16T07:49:38Z</time>
      </trkpt>
      <trkpt lat="41.2309730" lon="-8.7196000">
        <ele>7.0</ele>
        <time>2021-05-16T07:49:39Z</time>
      </trkpt>
      <trkpt lat="41.2309740" lon="-8.7195990">
        <ele>7.0</ele>
        <time>2021-05-16T07:49:40Z</time>
      </trkpt>
      <trkpt lat="41.2309760" lon="-8.7195990">
        <ele>7.0</ele>
        <time>2021-05-16T07:49:41Z</time>
      </trkpt>
      <trkpt lat="41.2309770" lon="-8.7195980">
        <ele>7.0</ele>
        <time>2021-05-16T07:49:42Z</time>
      </trkpt>
      <trkpt lat="41.2309780" lon="-8.7195970">
        <ele>7.0</ele>
        <time>2021-05-16T07:49:43Z</time>
      </trkpt>
      <trkpt lat="41.2309800" lon="-8.7195960">
        <ele>7.0</ele>
        <time>2021-05-16T07:49:44Z</time>
      </trkpt>
      <trkpt lat="41.2309810" lon="-8.7195960">
        <ele>7.0</ele>
        <time>2021-05-16T07:49:45Z</time>
      </trkpt>
      <trkpt lat="41.2309830" lon="-8.7195950">
        <ele>7.0</ele>
        <time>2021-05-16T07:49:46Z</time>
      </trkpt>
      <trkpt lat="41.2309840" lon="-8.7195940">
        <ele>7.0</ele>
        <time>2021-05-16T07:49:47Z</time>
      </trkpt>
      <trkpt lat="41.2309850" lon="-8.7195930">
        <ele>7.0</ele>
        <time>2021-05-16T07:49:48Z</time>
      </trkpt>
      <trkpt lat="41.2309870" lon="-8.7195930">
        <ele>7.0</ele>
        <time>2021-05-16T07:49:49Z</time>
      </trkpt>
      <trkpt lat="41.2309880" lon="-8.7195920">
        <ele>7.0</ele>
        <time>2021-05-16T07:49:50Z</time>
      </trkpt>
      <trkpt lat="41.2309900" lon="-8.7195910">
        <ele>7.0</ele>
        <time>2021-05-16T07:49:51Z</time>
      </trkpt>
      <trkpt lat="41.2309910" lon="-8.7195900">
        <ele>7.0</ele>
        <time>2021-05-16T07:49:52Z</time>
      </trkpt>
      <trkpt lat="41.2309930" lon="-8.7195900">
        <ele>7.0</ele>
        <time>2021-05-16T07:49:53Z</time>
      </trkpt>
      <trkpt lat="41.2309940" lon="-8.7195890">
        <ele>7.0</ele>
        <time>2021-05-16T07:49:54Z</time>
      </trkpt>
      <trkpt lat="41.2309950" lon="-8.7195880">
        <ele>7.0</ele>
        <time>2021-05-16T07:49:55Z</time>
      </trkpt>
      <trkpt lat="41.2309970" lon="-8.7195870">
        <ele>7.0</ele>
        <time>2021-05-16T07:49:56Z</time>
      </trkpt>
      <trkpt lat="41.2309980" lon="-8.7195870">
        <ele>7.0</ele>
        <time>2021-05-16T07:49:57Z</time>
      </trkpt>
      <trkpt lat="41.2310000" lon="-8.7195860">
        <ele>7.0</ele>
        <time>2021-05-16T07:49:58Z</time>
      </trkpt>
      <trkpt lat="41.2310010" lon="-8.7195850">
        <ele>7.0</ele>
        <time>2021-05-16T07:49:59Z</time>
      </trkpt>
      <trkpt lat="41.2310020" lon="-8.7195840">
        <ele>7.0</ele>
        <time>2021-05-16T07:50:00Z</time>
      </trkpt>
      <trkpt lat="41.2310040" lon="-8.7195840">
        <ele>7.0</ele>
        <time>2021-05-16T07:50:01Z</time>
      </trkpt>
      <trkpt lat="41.2310050" lon="-8.7195830">
        <ele>7.0</ele>
        <time>2021-05-16T07:50:02Z</time>
      </trkpt>
      <trkpt lat="41.2310070" lon="-8.7195820">
        <ele>7.0</ele>
        <time>2021-05-16T07:50:03Z</time>
      </trkpt>
      <trkpt lat="41.2310080" lon="-8.7195810">
        <ele>7.0</ele>
        <time>2021-05-16T07:50:04Z</time>
      </trkpt>
      <trkpt lat="41.2310100" lon="-8.7195810">
        <ele>7.0</ele>
        <time>2021-05-16T07:50:05Z</time>
      </trkpt>
      <trkpt lat="41.2310110" lon="-8.7195800">
        <ele>7.0</ele>
        <time>2021-05-16T07:50:06Z</time>
      </trkpt>
      <trkpt lat="41.2310330" lon="-8.7195810">
        <ele>7.0</ele>
        <time>2021-05-16T07:50:07Z</time>
      </trkpt>
      <trkpt lat="41.2310410" lon="-8.7195790">
        <ele>7.0</ele>
        <time>2021-05-16T07:50:08Z</time>
      </trkpt>
      <trkpt lat="41.2310480" lon="-8.7195770">
        <ele>7.0</ele>
        <time>2021-05-16T07:50:09Z</time>
      </trkpt>
      <trkpt lat="41.2310690" lon="-8.7195820">
        <ele>7.0</ele>
        <time>2021-05-16T07:50:10Z</time>
      </trkpt>
      <trkpt lat="41.2310790" lon="-8.7195850">
        <ele>7.0</ele>
        <time>2021-05-16T07:50:11Z</time>
      </trkpt>
      <trkpt lat="41.2310880" lon="-8.7195890">
        <ele>7.0</ele>
        <time>2021-05-16T07:50:12Z</time>
      </trkpt>
      <trkpt lat="41.2311030" lon="-8.7195960">
        <ele>7.0</ele>
        <time>2021-05-16T07:50:13Z</time>
      </trkpt>
      <trkpt lat="41.2311230" lon="-8.7195980">
        <ele>7.0</ele>
        <time>2021-05-16T07:50:14Z</time>
      </trkpt>
      <trkpt lat="41.2311470" lon="-8.7196040">
        <ele>7.0</ele>
        <time>2021-05-16T07:50:15Z</time>
      </trkpt>
      <trkpt lat="41.2311560" lon="-8.7196060">
        <ele>7.0</ele>
        <time>2021-05-16T07:50:16Z</time>
      </trkpt>
      <trkpt lat="41.2311640" lon="-8.7196070">
        <ele>7.0</ele>
        <time>2021-05-16T07:50:17Z</time>
      </trkpt>
      <trkpt lat="41.2311800" lon="-8.7196090">
        <ele>7.0</ele>
        <time>2021-05-16T07:50:18Z</time>
      </trkpt>
      <trkpt lat="41.2311960" lon="-8.7196140">
        <ele>7.0</ele>
        <time>2021-05-16T07:50:19Z</time>
      </trkpt>
      <trkpt lat="41.2312080" lon="-8.7196260">
        <ele>7.0</ele>
        <time>2021-05-16T07:50:20Z</time>
      </trkpt>
      <trkpt lat="41.2312210" lon="-8.7196410">
        <ele>7.0</ele>
        <time>2021-05-16T07:50:21Z</time>
      </trkpt>
      <trkpt lat="41.2312420" lon="-8.7196450">
        <ele>7.0</ele>
        <time>2021-05-16T07:50:22Z</time>
      </trkpt>
      <trkpt lat="41.2312500" lon="-8.7196480">
        <ele>7.0</ele>
        <time>2021-05-16T07:50:23Z</time>
      </trkpt>
      <trkpt lat="41.2312580" lon="-8.7196510">
        <ele>7.0</ele>
        <time>2021-05-16T07:50:24Z</time>
      </trkpt>
      <trkpt lat="41.2312750" lon="-8.7196580">
        <ele>7.0</ele>
        <time>2021-05-16T07:50:25Z</time>
      </trkpt>
      <trkpt lat="41.2312880" lon="-8.7196610">
        <ele>7.0</ele>
        <time>2021-05-16T07:50:26Z</time>
      </trkpt>
      <trkpt lat="41.2313030" lon="-8.7196680">
        <ele>7.0</ele>
        <time>2021-05-16T07:50:27Z</time>
      </trkpt>
      <trkpt lat="41.2313150" lon="-8.7196830">
        <ele>7.0</ele>
        <time>2021-05-16T07:50:28Z</time>
      </trkpt>
      <trkpt lat="41.2313310" lon="-8.7196870">
        <ele>7.0</ele>
        <time>2021-05-16T07:50:29Z</time>
      </trkpt>
      <trkpt lat="41.2313450" lon="-8.7196880">
        <ele>7.0</ele>
        <time>2021-05-16T07:50:30Z</time>
      </trkpt>
      <trkpt lat="41.2313590" lon="-8.7196970">
        <ele>7.0</ele>
        <time>2021-05-16T07:50:31Z</time>
      </trkpt>
      <trkpt lat="41.2313750" lon="-8.7197020">
        <ele>7.0</ele>
        <time>2021-05-16T07:50:32Z</time>
      </trkpt>
      <trkpt lat="41.2313990" lon="-8.7197070">
        <ele>7.0</ele>
        <time>2021-05-16T07:50:33Z</time>
      </trkpt>
      <trkpt lat="41.2314080" lon="-8.7197110">
        <ele>7.0</ele>
        <time>2021-05-16T07:50:34Z</time>
      </trkpt>
      <trkpt lat="41.2314180" lon="-8.7197140">
        <ele>7.0</ele>
        <time>2021-05-16T07:50:35Z</time>
      </trkpt>
      <trkpt lat="41.2314380" lon="-8.7197150">
        <ele>7.0</ele>
        <time>2021-05-16T07:50:36Z</time>
      </trkpt>
      <trkpt lat="41.2314520" lon="-8.7197230">
        <ele>7.0</ele>
        <time>2021-05-16T07:50:37Z</time>
      </trkpt>
      <trkpt lat="41.2314650" lon="-8.7197290">
        <ele>7.0</ele>
        <time>2021-05-16T07:50:38Z</time>
      </trkpt>
      <trkpt lat="41.2314980" lon="-8.7197400">
        <ele>7.0</ele>
        <time>2021-05-16T07:50:39Z</time>
      </trkpt>
      <trkpt lat="41.2315130" lon="-8.7197460">
        <ele>7.0</ele>
        <time>2021-05-16T07:50:40Z</time>
      </trkpt>
      <trkpt lat="41.2315290" lon="-8.7197490">
        <ele>7.0</ele>
        <time>2021-05-16T07:50:41Z</time>
      </trkpt>
      <trkpt lat="41.2315450" lon="-8.7197590">
        <ele>7.0</ele>
        <time>2021-05-16T07:50:42Z</time>
      </trkpt>
      <trkpt lat="41.2315610" lon="-8.7197640">
        <ele>7.0</ele>
        <time>2021-05-16T07:50:43Z</time>
      </trkpt>
      <trkpt lat="41.2315750" lon="-8.7197700">
        <ele>7.0</ele>
        <time>2021-05-16T07:50:44Z</time>
      </trkpt>
      <trkpt lat="41.2316040" lon="-8.7197720">
        <ele>7.0</ele>
        <time>2021-05-16T07:50:45Z</time>
      </trkpt>
      <trkpt lat="41.2316130" lon="-8.7197700">
        <ele>7.0</ele>
        <time>2021-05-16T07:50:46Z</time>
      </trkpt>
      <trkpt lat="41.2316270" lon="-8.7197750">
        <ele>7.0</ele>
        <time>2021-05-16T07:50:47Z</time>
      </trkpt>
      <trkpt lat="41.2316430" lon="-8.7197830">
        <ele>7.0</ele>
        <time>2021-05-16T07:50:48Z</time>
      </trkpt>
      <trkpt lat="41.2316590" lon="-8.7197800">
        <ele>7.0</ele>
        <time>2021-05-16T07:50:49Z</time>
      </trkpt>
      <trkpt lat="41.2316760" lon="-8.7197900">
        <ele>7.0</ele>
        <time>2021-05-16T07:50:50Z</time>
      </trkpt>
      <trkpt lat="41.2316930" lon="-8.7197970">
        <ele>7.0</ele>
        <time>2021-05-16T07:50:51Z</time>
      </trkpt>
      <trkpt lat="41.2317080" lon="-8.7198020">
        <ele>7.0</ele>
        <time>2021-05-16T07:50:52Z</time>
      </trkpt>
      <trkpt lat="41.2317300" lon="-8.7198130">
        <ele>7.0</ele>
        <time>2021-05-16T07:50:53Z</time>
      </trkpt>
      <trkpt lat="41.2317400" lon="-8.7198150">
        <ele>7.0</ele>
        <time>2021-05-16T07:50:54Z</time>
      </trkpt>
      <trkpt lat="41.2317490" lon="-8.7198180">
        <ele>7.0</ele>
        <time>2021-05-16T07:50:55Z</time>
      </trkpt>
      <trkpt lat="41.2317620" lon="-8.7198280">
        <ele>7.0</ele>
        <time>2021-05-16T07:50:56Z</time>
      </trkpt>
      <trkpt lat="41.2317760" lon="-8.7198370">
        <ele>7.0</ele>
        <time>2021-05-16T07:50:57Z</time>
      </trkpt>
      <trkpt lat="41.2317920" lon="-8.7198440">
        <ele>7.0</ele>
        <time>2021-05-16T07:50:58Z</time>
      </trkpt>
      <trkpt lat="41.2318070" lon="-8.7198470">
        <ele>7.0</ele>
        <time>2021-05-16T07:50:59Z</time>
      </trkpt>
      <trkpt lat="41.2318210" lon="-8.7198560">
        <ele>7.0</ele>
        <time>2021-05-16T07:51:00Z</time>
      </trkpt>
      <trkpt lat="41.2318360" lon="-8.7198610">
        <ele>7.0</ele>
        <time>2021-05-16T07:51:01Z</time>
      </trkpt>
      <trkpt lat="41.2318490" lon="-8.7198700">
        <ele>7.0</ele>
        <time>2021-05-16T07:51:02Z</time>
      </trkpt>
      <trkpt lat="41.2318640" lon="-8.7198740">
        <ele>7.0</ele>
        <time>2021-05-16T07:51:03Z</time>
      </trkpt>
      <trkpt lat="41.2318770" lon="-8.7198810">
        <ele>7.0</ele>
        <time>2021-05-16T07:51:04Z</time>
      </trkpt>
      <trkpt lat="41.2318900" lon="-8.7198900">
        <ele>7.0</ele>
        <time>2021-05-16T07:51:05Z</time>
      </trkpt>
      <trkpt lat="41.2319030" lon="-8.7198960">
        <ele>7.0</ele>
        <time>2021-05-16T07:51:06Z</time>
      </trkpt>
      <trkpt lat="41.2319180" lon="-8.7199010">
        <ele>7.0</ele>
        <time>2021-05-16T07:51:07Z</time>
      </trkpt>
      <trkpt lat="41.2319330" lon="-8.7199050">
        <ele>7.0</ele>
        <time>2021-05-16T07:51:08Z</time>
      </trkpt>
      <trkpt lat="41.2319480" lon="-8.7199150">
        <ele>7.0</ele>
        <time>2021-05-16T07:51:09Z</time>
      </trkpt>
      <trkpt lat="41.2319620" lon="-8.7199220">
        <ele>7.0</ele>
        <time>2021-05-16T07:51:10Z</time>
      </trkpt>
      <trkpt lat="41.2319750" lon="-8.7199290">
        <ele>7.0</ele>
        <time>2021-05-16T07:51:11Z</time>
      </trkpt>
      <trkpt lat="41.2319900" lon="-8.7199360">
        <ele>7.0</ele>
        <time>2021-05-16T07:51:12Z</time>
      </trkpt>
      <trkpt lat="41.2320050" lon="-8.7199390">
        <ele>7.0</ele>
        <time>2021-05-16T07:51:13Z</time>
      </trkpt>
      <trkpt lat="41.2320210" lon="-8.7199340">
        <ele>7.0</ele>
        <time>2021-05-16T07:51:14Z</time>
      </trkpt>
      <trkpt lat="41.2320340" lon="-8.7199370">
        <ele>7.0</ele>
        <time>2021-05-16T07:51:15Z</time>
      </trkpt>
      <trkpt lat="41.2320500" lon="-8.7199460">
        <ele>7.0</ele>
        <time>2021-05-16T07:51:16Z</time>
      </trkpt>
      <trkpt lat="41.2320640" lon="-8.7199550">
        <ele>7.0</ele>
        <time>2021-05-16T07:51:17Z</time>
      </trkpt>
      <trkpt lat="41.2320760" lon="-8.7199680">
        <ele>7.0</ele>
        <time>2021-05-16T07:51:18Z</time>
      </trkpt>
      <trkpt lat="41.2320880" lon="-8.7199770">
        <ele>7.0</ele>
        <time>2021-05-16T07:51:19Z</time>
      </trkpt>
      <trkpt lat="41.2321030" lon="-8.7199830">
        <ele>7.0</ele>
        <time>2021-05-16T07:51:20Z</time>
      </trkpt>
      <trkpt lat="41.2321180" lon="-8.7199890">
        <ele>7.0</ele>
        <time>2021-05-16T07:51:21Z</time>
      </trkpt>
      <trkpt lat="41.2321290" lon="-8.7199950">
        <ele>7.0</ele>
        <time>2021-05-16T07:51:22Z</time>
      </trkpt>
      <trkpt lat="41.2321440" lon="-8.7200000">
        <ele>7.0</ele>
        <time>2021-05-16T07:51:23Z</time>
      </trkpt>
      <trkpt lat="41.2321610" lon="-8.7200030">
        <ele>7.1</ele>
        <time>2021-05-16T07:51:24Z</time>
      </trkpt>
      <trkpt lat="41.2321760" lon="-8.7200010">
        <ele>7.1</ele>
        <time>2021-05-16T07:51:25Z</time>
      </trkpt>
      <trkpt lat="41.2321900" lon="-8.7200060">
        <ele>7.1</ele>
        <time>2021-05-16T07:51:26Z</time>
      </trkpt>
      <trkpt lat="41.2322030" lon="-8.7200120">
        <ele>7.1</ele>
        <time>2021-05-16T07:51:27Z</time>
      </trkpt>
      <trkpt lat="41.2322190" lon="-8.7200230">
        <ele>7.1</ele>
        <time>2021-05-16T07:51:28Z</time>
      </trkpt>
      <trkpt lat="41.2322340" lon="-8.7200250">
        <ele>7.1</ele>
        <time>2021-05-16T07:51:29Z</time>
      </trkpt>
      <trkpt lat="41.2322480" lon="-8.7200350">
        <ele>7.1</ele>
        <time>2021-05-16T07:51:30Z</time>
      </trkpt>
      <trkpt lat="41.2322630" lon="-8.7200420">
        <ele>7.1</ele>
        <time>2021-05-16T07:51:31Z</time>
      </trkpt>
      <trkpt lat="41.2322780" lon="-8.7200390">
        <ele>7.1</ele>
        <time>2021-05-16T07:51:32Z</time>
      </trkpt>
      <trkpt lat="41.2322940" lon="-8.7200370">
        <ele>7.1</ele>
        <time>2021-05-16T07:51:33Z</time>
      </trkpt>
      <trkpt lat="41.2323080" lon="-8.7200330">
        <ele>7.1</ele>
        <time>2021-05-16T07:51:34Z</time>
      </trkpt>
      <trkpt lat="41.2323250" lon="-8.7200380">
        <ele>7.1</ele>
        <time>2021-05-16T07:51:35Z</time>
      </trkpt>
      <trkpt lat="41.2323410" lon="-8.7200410">
        <ele>7.1</ele>
        <time>2021-05-16T07:51:36Z</time>
      </trkpt>
      <trkpt lat="41.2323560" lon="-8.7200380">
        <ele>7.1</ele>
        <time>2021-05-16T07:51:37Z</time>
      </trkpt>
      <trkpt lat="41.2323710" lon="-8.7200390">
        <ele>7.1</ele>
        <time>2021-05-16T07:51:38Z</time>
      </trkpt>
      <trkpt lat="41.2323830" lon="-8.7200480">
        <ele>7.1</ele>
        <time>2021-05-16T07:51:39Z</time>
      </trkpt>
      <trkpt lat="41.2323980" lon="-8.7200590">
        <ele>7.1</ele>
        <time>2021-05-16T07:51:40Z</time>
      </trkpt>
      <trkpt lat="41.2324100" lon="-8.7200710">
        <ele>7.1</ele>
        <time>2021-05-16T07:51:41Z</time>
      </trkpt>
      <trkpt lat="41.2324260" lon="-8.7200730">
        <ele>7.1</ele>
        <time>2021-05-16T07:51:42Z</time>
      </trkpt>
      <trkpt lat="41.2324470" lon="-8.7200750">
        <ele>7.1</ele>
        <time>2021-05-16T07:51:43Z</time>
      </trkpt>
      <trkpt lat="41.2324740" lon="-8.7200690">
        <ele>7.1</ele>
        <time>2021-05-16T07:51:44Z</time>
      </trkpt>
      <trkpt lat="41.2324840" lon="-8.7200700">
        <ele>7.1</ele>
        <time>2021-05-16T07:51:45Z</time>
      </trkpt>
      <trkpt lat="41.2324970" lon="-8.7200720">
        <ele>7.1</ele>
        <time>2021-05-16T07:51:46Z</time>
      </trkpt>
      <trkpt lat="41.2325140" lon="-8.7200780">
        <ele>7.1</ele>
        <time>2021-05-16T07:51:47Z</time>
      </trkpt>
      <trkpt lat="41.2325300" lon="-8.7200750">
        <ele>7.1</ele>
        <time>2021-05-16T07:51:48Z</time>
      </trkpt>
      <trkpt lat="41.2325460" lon="-8.7200860">
        <ele>7.1</ele>
        <time>2021-05-16T07:51:50Z</time>
      </trkpt>
      <trkpt lat="41.2325610" lon="-8.7200940">
        <ele>7.1</ele>
        <time>2021-05-16T07:51:51Z</time>
      </trkpt>
      <trkpt lat="41.2325760" lon="-8.7201000">
        <ele>7.1</ele>
        <time>2021-05-16T07:51:52Z</time>
      </trkpt>
      <trkpt lat="41.2325910" lon="-8.7200980">
        <ele>7.1</ele>
        <time>2021-05-16T07:51:53Z</time>
      </trkpt>
      <trkpt lat="41.2326080" lon="-8.7201050">
        <ele>7.1</ele>
        <time>2021-05-16T07:51:54Z</time>
      </trkpt>
      <trkpt lat="41.2326210" lon="-8.7201120">
        <ele>7.1</ele>
        <time>2021-05-16T07:51:55Z</time>
      </trkpt>
      <trkpt lat="41.2326350" lon="-8.7201230">
        <ele>7.1</ele>
        <time>2021-05-16T07:51:56Z</time>
      </trkpt>
      <trkpt lat="41.2326470" lon="-8.7201320">
        <ele>7.1</ele>
        <time>2021-05-16T07:51:57Z</time>
      </trkpt>
      <trkpt lat="41.2326620" lon="-8.7201400">
        <ele>7.1</ele>
        <time>2021-05-16T07:51:58Z</time>
      </trkpt>
      <trkpt lat="41.2326740" lon="-8.7201480">
        <ele>7.1</ele>
        <time>2021-05-16T07:51:59Z</time>
      </trkpt>
      <trkpt lat="41.2326880" lon="-8.7201550">
        <ele>7.2</ele>
        <time>2021-05-16T07:52:00Z</time>
      </trkpt>
      <trkpt lat="41.2327050" lon="-8.7201600">
        <ele>7.2</ele>
        <time>2021-05-16T07:52:01Z</time>
      </trkpt>
      <trkpt lat="41.2327210" lon="-8.7201630">
        <ele>7.2</ele>
        <time>2021-05-16T07:52:02Z</time>
      </trkpt>
      <trkpt lat="41.2327380" lon="-8.7201640">
        <ele>7.2</ele>
        <time>2021-05-16T07:52:03Z</time>
      </trkpt>
      <trkpt lat="41.2327550" lon="-8.7201690">
        <ele>7.2</ele>
        <time>2021-05-16T07:52:04Z</time>
      </trkpt>
      <trkpt lat="41.2327700" lon="-8.7201720">
        <ele>7.2</ele>
        <time>2021-05-16T07:52:05Z</time>
      </trkpt>
      <trkpt lat="41.2327880" lon="-8.7201800">
        <ele>7.2</ele>
        <time>2021-05-16T07:52:06Z</time>
      </trkpt>
      <trkpt lat="41.2328000" lon="-8.7201850">
        <ele>7.2</ele>
        <time>2021-05-16T07:52:07Z</time>
      </trkpt>
      <trkpt lat="41.2328150" lon="-8.7201940">
        <ele>7.2</ele>
        <time>2021-05-16T07:52:08Z</time>
      </trkpt>
      <trkpt lat="41.2328290" lon="-8.7202000">
        <ele>7.2</ele>
        <time>2021-05-16T07:52:09Z</time>
      </trkpt>
      <trkpt lat="41.2328420" lon="-8.7202060">
        <ele>7.2</ele>
        <time>2021-05-16T07:52:10Z</time>
      </trkpt>
      <trkpt lat="41.2328590" lon="-8.7202100">
        <ele>7.2</ele>
        <time>2021-05-16T07:52:11Z</time>
      </trkpt>
      <trkpt lat="41.2328710" lon="-8.7202120">
        <ele>7.2</ele>
        <time>2021-05-16T07:52:12Z</time>
      </trkpt>
      <trkpt lat="41.2328870" lon="-8.7202170">
        <ele>7.2</ele>
        <time>2021-05-16T07:52:13Z</time>
      </trkpt>
      <trkpt lat="41.2329020" lon="-8.7202290">
        <ele>7.2</ele>
        <time>2021-05-16T07:52:14Z</time>
      </trkpt>
      <trkpt lat="41.2329130" lon="-8.7202380">
        <ele>7.2</ele>
        <time>2021-05-16T07:52:15Z</time>
      </trkpt>
      <trkpt lat="41.2329300" lon="-8.7202430">
        <ele>7.2</ele>
        <time>2021-05-16T07:52:16Z</time>
      </trkpt>
      <trkpt lat="41.2329590" lon="-8.7202440">
        <ele>7.2</ele>
        <time>2021-05-16T07:52:17Z</time>
      </trkpt>
      <trkpt lat="41.2329670" lon="-8.7202480">
        <ele>7.2</ele>
        <time>2021-05-16T07:52:18Z</time>
      </trkpt>
      <trkpt lat="41.2329810" lon="-8.7202490">
        <ele>7.2</ele>
        <time>2021-05-16T07:52:19Z</time>
      </trkpt>
      <trkpt lat="41.2329940" lon="-8.7202600">
        <ele>7.2</ele>
        <time>2021-05-16T07:52:20Z</time>
      </trkpt>
      <trkpt lat="41.2330140" lon="-8.7202730">
        <ele>7.2</ele>
        <time>2021-05-16T07:52:21Z</time>
      </trkpt>
      <trkpt lat="41.2330240" lon="-8.7202780">
        <ele>7.2</ele>
        <time>2021-05-16T07:52:22Z</time>
      </trkpt>
      <trkpt lat="41.2330330" lon="-8.7202820">
        <ele>7.2</ele>
        <time>2021-05-16T07:52:23Z</time>
      </trkpt>
      <trkpt lat="41.2330480" lon="-8.7202880">
        <ele>7.2</ele>
        <time>2021-05-16T07:52:24Z</time>
      </trkpt>
      <trkpt lat="41.2330620" lon="-8.7202910">
        <ele>7.2</ele>
        <time>2021-05-16T07:52:25Z</time>
      </trkpt>
      <trkpt lat="41.2330750" lon="-8.7203020">
        <ele>7.2</ele>
        <time>2021-05-16T07:52:26Z</time>
      </trkpt>
      <trkpt lat="41.2330870" lon="-8.7203110">
        <ele>7.2</ele>
        <time>2021-05-16T07:52:27Z</time>
      </trkpt>
      <trkpt lat="41.2331000" lon="-8.7203210">
        <ele>7.2</ele>
        <time>2021-05-16T07:52:28Z</time>
      </trkpt>
      <trkpt lat="41.2331140" lon="-8.7203240">
        <ele>7.2</ele>
        <time>2021-05-16T07:52:29Z</time>
      </trkpt>
      <trkpt lat="41.2331290" lon="-8.7203300">
        <ele>7.2</ele>
        <time>2021-05-16T07:52:30Z</time>
      </trkpt>
      <trkpt lat="41.2331440" lon="-8.7203340">
        <ele>7.2</ele>
        <time>2021-05-16T07:52:31Z</time>
      </trkpt>
      <trkpt lat="41.2331630" lon="-8.7203340">
        <ele>7.2</ele>
        <time>2021-05-16T07:52:32Z</time>
      </trkpt>
      <trkpt lat="41.2331780" lon="-8.7203410">
        <ele>7.2</ele>
        <time>2021-05-16T07:52:33Z</time>
      </trkpt>
      <trkpt lat="41.2331970" lon="-8.7203500">
        <ele>7.2</ele>
        <time>2021-05-16T07:52:34Z</time>
      </trkpt>
      <trkpt lat="41.2332120" lon="-8.7203490">
        <ele>7.2</ele>
        <time>2021-05-16T07:52:35Z</time>
      </trkpt>
      <trkpt lat="41.2332270" lon="-8.7203550">
        <ele>7.2</ele>
        <time>2021-05-16T07:52:36Z</time>
      </trkpt>
      <trkpt lat="41.2332420" lon="-8.7203620">
        <ele>7.2</ele>
        <time>2021-05-16T07:52:37Z</time>
      </trkpt>
      <trkpt lat="41.2332570" lon="-8.7203710">
        <ele>7.2</ele>
        <time>2021-05-16T07:52:38Z</time>
      </trkpt>
      <trkpt lat="41.2332730" lon="-8.7203790">
        <ele>7.3</ele>
        <time>2021-05-16T07:52:39Z</time>
      </trkpt>
      <trkpt lat="41.2332840" lon="-8.7203830">
        <ele>7.3</ele>
        <time>2021-05-16T07:52:40Z</time>
      </trkpt>
      <trkpt lat="41.2333030" lon="-8.7203900">
        <ele>7.3</ele>
        <time>2021-05-16T07:52:41Z</time>
      </trkpt>
      <trkpt lat="41.2333180" lon="-8.7203950">
        <ele>7.3</ele>
        <time>2021-05-16T07:52:42Z</time>
      </trkpt>
      <trkpt lat="41.2333340" lon="-8.7203970">
        <ele>7.3</ele>
        <time>2021-05-16T07:52:43Z</time>
      </trkpt>
      <trkpt lat="41.2333580" lon="-8.7204090">
        <ele>7.3</ele>
        <time>2021-05-16T07:52:44Z</time>
      </trkpt>
      <trkpt lat="41.2333700" lon="-8.7204160">
        <ele>7.3</ele>
        <time>2021-05-16T07:52:45Z</time>
      </trkpt>
      <trkpt lat="41.2333820" lon="-8.7204270">
        <ele>7.3</ele>
        <time>2021-05-16T07:52:46Z</time>
      </trkpt>
      <trkpt lat="41.2333950" lon="-8.7204360">
        <ele>7.3</ele>
        <time>2021-05-16T07:52:47Z</time>
      </trkpt>
      <trkpt lat="41.2334080" lon="-8.7204480">
        <ele>7.3</ele>
        <time>2021-05-16T07:52:48Z</time>
      </trkpt>
      <trkpt lat="41.2334210" lon="-8.7204530">
        <ele>7.3</ele>
        <time>2021-05-16T07:52:49Z</time>
      </trkpt>
      <trkpt lat="41.2334350" lon="-8.7204570">
        <ele>7.3</ele>
        <time>2021-05-16T07:52:50Z</time>
      </trkpt>
      <trkpt lat="41.2334500" lon="-8.7204630">
        <ele>7.3</ele>
        <time>2021-05-16T07:52:51Z</time>
      </trkpt>
      <trkpt lat="41.2334640" lon="-8.7204730">
        <ele>7.3</ele>
        <time>2021-05-16T07:52:52Z</time>
      </trkpt>
      <trkpt lat="41.2334780" lon="-8.7204790">
        <ele>7.3</ele>
        <time>2021-05-16T07:52:53Z</time>
      </trkpt>
      <trkpt lat="41.2334910" lon="-8.7204880">
        <ele>7.3</ele>
        <time>2021-05-16T07:52:55Z</time>
      </trkpt>
      <trkpt lat="41.2335050" lon="-8.7204910">
        <ele>7.3</ele>
        <time>2021-05-16T07:52:56Z</time>
      </trkpt>
      <trkpt lat="41.2335310" lon="-8.7205050">
        <ele>7.3</ele>
        <time>2021-05-16T07:52:57Z</time>
      </trkpt>
      <trkpt lat="41.2335400" lon="-8.7205070">
        <ele>7.3</ele>
        <time>2021-05-16T07:52:58Z</time>
      </trkpt>
      <trkpt lat="41.2335680" lon="-8.7205210">
        <ele>7.3</ele>
        <time>2021-05-16T07:52:59Z</time>
      </trkpt>
      <trkpt lat="41.2335830" lon="-8.7205230">
        <ele>7.3</ele>
        <time>2021-05-16T07:53:00Z</time>
      </trkpt>
      <trkpt lat="41.2335980" lon="-8.7205150">
        <ele>7.3</ele>
        <time>2021-05-16T07:53:02Z</time>
      </trkpt>
      <trkpt lat="41.2336150" lon="-8.7205220">
        <ele>7.3</ele>
        <time>2021-05-16T07:53:03Z</time>
      </trkpt>
      <trkpt lat="41.2336280" lon="-8.7205230">
        <ele>7.3</ele>
        <time>2021-05-16T07:53:04Z</time>
      </trkpt>
      <trkpt lat="41.2336440" lon="-8.7205270">
        <ele>7.3</ele>
        <time>2021-05-16T07:53:05Z</time>
      </trkpt>
      <trkpt lat="41.2336570" lon="-8.7205290">
        <ele>7.3</ele>
        <time>2021-05-16T07:53:06Z</time>
      </trkpt>
      <trkpt lat="41.2336730" lon="-8.7205350">
        <ele>7.3</ele>
        <time>2021-05-16T07:53:07Z</time>
      </trkpt>
      <trkpt lat="41.2336900" lon="-8.7205340">
        <ele>7.3</ele>
        <time>2021-05-16T07:53:08Z</time>
      </trkpt>
      <trkpt lat="41.2337030" lon="-8.7205460">
        <ele>7.3</ele>
        <time>2021-05-16T07:53:09Z</time>
      </trkpt>
      <trkpt lat="41.2337160" lon="-8.7205560">
        <ele>7.3</ele>
        <time>2021-05-16T07:53:10Z</time>
      </trkpt>
      <trkpt lat="41.2337320" lon="-8.7205620">
        <ele>7.3</ele>
        <time>2021-05-16T07:53:11Z</time>
      </trkpt>
      <trkpt lat="41.2337470" lon="-8.7205650">
        <ele>7.3</ele>
        <time>2021-05-16T07:53:12Z</time>
      </trkpt>
      <trkpt lat="41.2337610" lon="-8.7205760">
        <ele>7.3</ele>
        <time>2021-05-16T07:53:13Z</time>
      </trkpt>
      <trkpt lat="41.2337730" lon="-8.7205790">
        <ele>7.3</ele>
        <time>2021-05-16T07:53:14Z</time>
      </trkpt>
      <trkpt lat="41.2337890" lon="-8.7205920">
        <ele>7.3</ele>
        <time>2021-05-16T07:53:15Z</time>
      </trkpt>
      <trkpt lat="41.2338030" lon="-8.7205900">
        <ele>7.3</ele>
        <time>2021-05-16T07:53:16Z</time>
      </trkpt>
      <trkpt lat="41.2338220" lon="-8.7205880">
        <ele>7.3</ele>
        <time>2021-05-16T07:53:17Z</time>
      </trkpt>
      <trkpt lat="41.2338330" lon="-8.7205990">
        <ele>7.3</ele>
        <time>2021-05-16T07:53:18Z</time>
      </trkpt>
      <trkpt lat="41.2338450" lon="-8.7206110">
        <ele>7.3</ele>
        <time>2021-05-16T07:53:19Z</time>
      </trkpt>
      <trkpt lat="41.2338560" lon="-8.7206220">
        <ele>7.3</ele>
        <time>2021-05-16T07:53:20Z</time>
      </trkpt>
      <trkpt lat="41.2338740" lon="-8.7206290">
        <ele>7.3</ele>
        <time>2021-05-16T07:53:21Z</time>
      </trkpt>
      <trkpt lat="41.2338900" lon="-8.7206310">
        <ele>7.3</ele>
        <time>2021-05-16T07:53:22Z</time>
      </trkpt>
      <trkpt lat="41.2339100" lon="-8.7206430">
        <ele>7.2</ele>
        <time>2021-05-16T07:53:23Z</time>
      </trkpt>
      <trkpt lat="41.2339190" lon="-8.7206500">
        <ele>7.2</ele>
        <time>2021-05-16T07:53:24Z</time>
      </trkpt>
      <trkpt lat="41.2339280" lon="-8.7206560">
        <ele>7.2</ele>
        <time>2021-05-16T07:53:25Z</time>
      </trkpt>
      <trkpt lat="41.2339380" lon="-8.7206610">
        <ele>7.2</ele>
        <time>2021-05-16T07:53:26Z</time>
      </trkpt>
      <trkpt lat="41.2339540" lon="-8.7206690">
        <ele>7.2</ele>
        <time>2021-05-16T07:53:27Z</time>
      </trkpt>
      <trkpt lat="41.2339710" lon="-8.7206780">
        <ele>7.2</ele>
        <time>2021-05-16T07:53:28Z</time>
      </trkpt>
      <trkpt lat="41.2339810" lon="-8.7206930">
        <ele>7.2</ele>
        <time>2021-05-16T07:53:29Z</time>
      </trkpt>
      <trkpt lat="41.2339910" lon="-8.7207050">
        <ele>7.2</ele>
        <time>2021-05-16T07:53:30Z</time>
      </trkpt>
      <trkpt lat="41.2340050" lon="-8.7207140">
        <ele>7.2</ele>
        <time>2021-05-16T07:53:31Z</time>
      </trkpt>
      <trkpt lat="41.2340200" lon="-8.7207110">
        <ele>7.2</ele>
        <time>2021-05-16T07:53:32Z</time>
      </trkpt>
      <trkpt lat="41.2340340" lon="-8.7207110">
        <ele>7.2</ele>
        <time>2021-05-16T07:53:33Z</time>
      </trkpt>
      <trkpt lat="41.2340490" lon="-8.7207230">
        <ele>7.2</ele>
        <time>2021-05-16T07:53:34Z</time>
      </trkpt>
      <trkpt lat="41.2340650" lon="-8.7207210">
        <ele>7.2</ele>
        <time>2021-05-16T07:53:35Z</time>
      </trkpt>
      <trkpt lat="41.2340790" lon="-8.7207240">
        <ele>7.2</ele>
        <time>2021-05-16T07:53:36Z</time>
      </trkpt>
      <trkpt lat="41.2340950" lon="-8.7207230">
        <ele>7.2</ele>
        <time>2021-05-16T07:53:37Z</time>
      </trkpt>
      <trkpt lat="41.2341100" lon="-8.7207280">
        <ele>7.2</ele>
        <time>2021-05-16T07:53:38Z</time>
      </trkpt>
      <trkpt lat="41.2341250" lon="-8.7207280">
        <ele>7.2</ele>
        <time>2021-05-16T07:53:39Z</time>
      </trkpt>
      <trkpt lat="41.2341400" lon="-8.7207300">
        <ele>7.2</ele>
        <time>2021-05-16T07:53:40Z</time>
      </trkpt>
      <trkpt lat="41.2341550" lon="-8.7207320">
        <ele>7.2</ele>
        <time>2021-05-16T07:53:41Z</time>
      </trkpt>
      <trkpt lat="41.2341700" lon="-8.7207350">
        <ele>7.2</ele>
        <time>2021-05-16T07:53:42Z</time>
      </trkpt>
      <trkpt lat="41.2341840" lon="-8.7207370">
        <ele>7.2</ele>
        <time>2021-05-16T07:53:43Z</time>
      </trkpt>
      <trkpt lat="41.2342020" lon="-8.7207680">
        <ele>7.1</ele>
        <time>2021-05-16T07:53:44Z</time>
      </trkpt>
      <trkpt lat="41.2342080" lon="-8.7207840">
        <ele>7.1</ele>
        <time>2021-05-16T07:53:45Z</time>
      </trkpt>
      <trkpt lat="41.2342190" lon="-8.7208020">
        <ele>7.1</ele>
        <time>2021-05-16T07:53:46Z</time>
      </trkpt>
      <trkpt lat="41.2342280" lon="-8.7208170">
        <ele>7.1</ele>
        <time>2021-05-16T07:53:47Z</time>
      </trkpt>
      <trkpt lat="41.2342440" lon="-8.7208220">
        <ele>7.1</ele>
        <time>2021-05-16T07:53:48Z</time>
      </trkpt>
      <trkpt lat="41.2342520" lon="-8.7208340">
        <ele>7.1</ele>
        <time>2021-05-16T07:53:49Z</time>
      </trkpt>
      <trkpt lat="41.2342640" lon="-8.7208430">
        <ele>7.1</ele>
        <time>2021-05-16T07:53:50Z</time>
      </trkpt>
      <trkpt lat="41.2342780" lon="-8.7208520">
        <ele>7.1</ele>
        <time>2021-05-16T07:53:51Z</time>
      </trkpt>
      <trkpt lat="41.2342980" lon="-8.7208660">
        <ele>7.1</ele>
        <time>2021-05-16T07:53:52Z</time>
      </trkpt>
      <trkpt lat="41.2343060" lon="-8.7208700">
        <ele>7.1</ele>
        <time>2021-05-16T07:53:53Z</time>
      </trkpt>
      <trkpt lat="41.2343150" lon="-8.7208750">
        <ele>7.1</ele>
        <time>2021-05-16T07:53:54Z</time>
      </trkpt>
      <trkpt lat="41.2343360" lon="-8.7208810">
        <ele>7.1</ele>
        <time>2021-05-16T07:53:55Z</time>
      </trkpt>
      <trkpt lat="41.2343450" lon="-8.7208820">
        <ele>7.1</ele>
        <time>2021-05-16T07:53:56Z</time>
      </trkpt>
      <trkpt lat="41.2343540" lon="-8.7208840">
        <ele>7.1</ele>
        <time>2021-05-16T07:53:57Z</time>
      </trkpt>
      <trkpt lat="41.2343690" lon="-8.7208920">
        <ele>7.1</ele>
        <time>2021-05-16T07:53:58Z</time>
      </trkpt>
      <trkpt lat="41.2343840" lon="-8.7208990">
        <ele>7.1</ele>
        <time>2021-05-16T07:53:59Z</time>
      </trkpt>
      <trkpt lat="41.2343970" lon="-8.7209040">
        <ele>7.1</ele>
        <time>2021-05-16T07:54:00Z</time>
      </trkpt>
      <trkpt lat="41.2344080" lon="-8.7209130">
        <ele>7.1</ele>
        <time>2021-05-16T07:54:01Z</time>
      </trkpt>
      <trkpt lat="41.2344210" lon="-8.7209210">
        <ele>7.1</ele>
        <time>2021-05-16T07:54:02Z</time>
      </trkpt>
      <trkpt lat="41.2344320" lon="-8.7209310">
        <ele>7.1</ele>
        <time>2021-05-16T07:54:03Z</time>
      </trkpt>
      <trkpt lat="41.2344520" lon="-8.7209490">
        <ele>7.1</ele>
        <time>2021-05-16T07:54:04Z</time>
      </trkpt>
      <trkpt lat="41.2344600" lon="-8.7209540">
        <ele>7.1</ele>
        <time>2021-05-16T07:54:05Z</time>
      </trkpt>
      <trkpt lat="41.2344690" lon="-8.7209600">
        <ele>7.1</ele>
        <time>2021-05-16T07:54:06Z</time>
      </trkpt>
      <trkpt lat="41.2344820" lon="-8.7209670">
        <ele>7.1</ele>
        <time>2021-05-16T07:54:07Z</time>
      </trkpt>
      <trkpt lat="41.2344950" lon="-8.7209760">
        <ele>6.9</ele>
        <time>2021-05-16T07:54:08Z</time>
      </trkpt>
      <trkpt lat="41.2345070" lon="-8.7209880">
        <ele>6.9</ele>
        <time>2021-05-16T07:54:09Z</time>
      </trkpt>
      <trkpt lat="41.2345210" lon="-8.7209960">
        <ele>6.9</ele>
        <time>2021-05-16T07:54:10Z</time>
      </trkpt>
      <trkpt lat="41.2345350" lon="-8.7210050">
        <ele>6.7</ele>
        <time>2021-05-16T07:54:11Z</time>
      </trkpt>
      <trkpt lat="41.2345510" lon="-8.7210070">
        <ele>6.7</ele>
        <time>2021-05-16T07:54:12Z</time>
      </trkpt>
      <trkpt lat="41.2345610" lon="-8.7210170">
        <ele>6.7</ele>
        <time>2021-05-16T07:54:13Z</time>
      </trkpt>
      <trkpt lat="41.2345750" lon="-8.7210290">
        <ele>6.7</ele>
        <time>2021-05-16T07:54:14Z</time>
      </trkpt>
      <trkpt lat="41.2345940" lon="-8.7210450">
        <ele>6.7</ele>
        <time>2021-05-16T07:54:15Z</time>
      </trkpt>
      <trkpt lat="41.2346010" lon="-8.7210520">
        <ele>6.7</ele>
        <time>2021-05-16T07:54:16Z</time>
      </trkpt>
      <trkpt lat="41.2346090" lon="-8.7210600">
        <ele>6.7</ele>
        <time>2021-05-16T07:54:17Z</time>
      </trkpt>
      <trkpt lat="41.2346260" lon="-8.7210790">
        <ele>6.7</ele>
        <time>2021-05-16T07:54:18Z</time>
      </trkpt>
      <trkpt lat="41.2346320" lon="-8.7210870">
        <ele>6.7</ele>
        <time>2021-05-16T07:54:19Z</time>
      </trkpt>
      <trkpt lat="41.2346390" lon="-8.7210950">
        <ele>6.7</ele>
        <time>2021-05-16T07:54:20Z</time>
      </trkpt>
      <trkpt lat="41.2346480" lon="-8.7211110">
        <ele>6.7</ele>
        <time>2021-05-16T07:54:21Z</time>
      </trkpt>
      <trkpt lat="41.2346550" lon="-8.7211290">
        <ele>6.7</ele>
        <time>2021-05-16T07:54:22Z</time>
      </trkpt>
      <trkpt lat="41.2346670" lon="-8.7211460">
        <ele>6.7</ele>
        <time>2021-05-16T07:54:23Z</time>
      </trkpt>
      <trkpt lat="41.2346760" lon="-8.7211630">
        <ele>6.7</ele>
        <time>2021-05-16T07:54:24Z</time>
      </trkpt>
      <trkpt lat="41.2346900" lon="-8.7211760">
        <ele>6.7</ele>
        <time>2021-05-16T07:54:25Z</time>
      </trkpt>
      <trkpt lat="41.2346990" lon="-8.7211920">
        <ele>6.7</ele>
        <time>2021-05-16T07:54:26Z</time>
      </trkpt>
      <trkpt lat="41.2347090" lon="-8.7212100">
        <ele>6.7</ele>
        <time>2021-05-16T07:54:27Z</time>
      </trkpt>
      <trkpt lat="41.2347140" lon="-8.7212290">
        <ele>6.7</ele>
        <time>2021-05-16T07:54:28Z</time>
      </trkpt>
      <trkpt lat="41.2347220" lon="-8.7212470">
        <ele>6.7</ele>
        <time>2021-05-16T07:54:29Z</time>
      </trkpt>
      <trkpt lat="41.2347250" lon="-8.7212670">
        <ele>6.7</ele>
        <time>2021-05-16T07:54:30Z</time>
      </trkpt>
      <trkpt lat="41.2347300" lon="-8.7212860">
        <ele>6.7</ele>
        <time>2021-05-16T07:54:31Z</time>
      </trkpt>
      <trkpt lat="41.2347330" lon="-8.7213090">
        <ele>6.7</ele>
        <time>2021-05-16T07:54:32Z</time>
      </trkpt>
      <trkpt lat="41.2347340" lon="-8.7213310">
        <ele>6.7</ele>
        <time>2021-05-16T07:54:33Z</time>
      </trkpt>
      <trkpt lat="41.2347340" lon="-8.7213510">
        <ele>6.7</ele>
        <time>2021-05-16T07:54:34Z</time>
      </trkpt>
      <trkpt lat="41.2347350" lon="-8.7213720">
        <ele>6.7</ele>
        <time>2021-05-16T07:54:35Z</time>
      </trkpt>
      <trkpt lat="41.2347330" lon="-8.7213930">
        <ele>6.8</ele>
        <time>2021-05-16T07:54:36Z</time>
      </trkpt>
      <trkpt lat="41.2347360" lon="-8.7214130">
        <ele>6.8</ele>
        <time>2021-05-16T07:54:37Z</time>
      </trkpt>
      <trkpt lat="41.2347300" lon="-8.7214330">
        <ele>6.8</ele>
        <time>2021-05-16T07:54:38Z</time>
      </trkpt>
      <trkpt lat="41.2347340" lon="-8.7214540">
        <ele>6.8</ele>
        <time>2021-05-16T07:54:39Z</time>
      </trkpt>
      <trkpt lat="41.2347220" lon="-8.7214770">
        <ele>6.8</ele>
        <time>2021-05-16T07:54:40Z</time>
      </trkpt>
      <trkpt lat="41.2347130" lon="-8.7214970">
        <ele>6.8</ele>
        <time>2021-05-16T07:54:41Z</time>
      </trkpt>
      <trkpt lat="41.2347180" lon="-8.7215200">
        <ele>6.8</ele>
        <time>2021-05-16T07:54:42Z</time>
      </trkpt>
      <trkpt lat="41.2347140" lon="-8.7215390">
        <ele>6.9</ele>
        <time>2021-05-16T07:54:43Z</time>
      </trkpt>
      <trkpt lat="41.2347110" lon="-8.7215600">
        <ele>6.9</ele>
        <time>2021-05-16T07:54:44Z</time>
      </trkpt>
      <trkpt lat="41.2347040" lon="-8.7215800">
        <ele>6.9</ele>
        <time>2021-05-16T07:54:45Z</time>
      </trkpt>
      <trkpt lat="41.2347010" lon="-8.7216010">
        <ele>6.9</ele>
        <time>2021-05-16T07:54:46Z</time>
      </trkpt>
      <trkpt lat="41.2346890" lon="-8.7216200">
        <ele>6.9</ele>
        <time>2021-05-16T07:54:47Z</time>
      </trkpt>
      <trkpt lat="41.2346840" lon="-8.7216400">
        <ele>6.9</ele>
        <time>2021-05-16T07:54:48Z</time>
      </trkpt>
      <trkpt lat="41.2346760" lon="-8.7216580">
        <ele>6.9</ele>
        <time>2021-05-16T07:54:49Z</time>
      </trkpt>
      <trkpt lat="41.2346740" lon="-8.7216800">
        <ele>6.9</ele>
        <time>2021-05-16T07:54:50Z</time>
      </trkpt>
      <trkpt lat="41.2346660" lon="-8.7216970">
        <ele>6.9</ele>
        <time>2021-05-16T07:54:51Z</time>
      </trkpt>
      <trkpt lat="41.2346560" lon="-8.7217140">
        <ele>6.9</ele>
        <time>2021-05-16T07:54:52Z</time>
      </trkpt>
      <trkpt lat="41.2346490" lon="-8.7217290">
        <ele>6.9</ele>
        <time>2021-05-16T07:54:53Z</time>
      </trkpt>
      <trkpt lat="41.2346420" lon="-8.7217480">
        <ele>6.8</ele>
        <time>2021-05-16T07:54:54Z</time>
      </trkpt>
      <trkpt lat="41.2346330" lon="-8.7217640">
        <ele>6.8</ele>
        <time>2021-05-16T07:54:55Z</time>
      </trkpt>
      <trkpt lat="41.2346270" lon="-8.7217810">
        <ele>6.8</ele>
        <time>2021-05-16T07:54:56Z</time>
      </trkpt>
      <trkpt lat="41.2346140" lon="-8.7217960">
        <ele>6.8</ele>
        <time>2021-05-16T07:54:57Z</time>
      </trkpt>
      <trkpt lat="41.2346120" lon="-8.7218110">
        <ele>6.8</ele>
        <time>2021-05-16T07:54:58Z</time>
      </trkpt>
      <trkpt lat="41.2346000" lon="-8.7218260">
        <ele>6.8</ele>
        <time>2021-05-16T07:54:59Z</time>
      </trkpt>
      <trkpt lat="41.2345970" lon="-8.7218470">
        <ele>6.8</ele>
        <time>2021-05-16T07:55:00Z</time>
      </trkpt>
      <trkpt lat="41.2345860" lon="-8.7218610">
        <ele>6.8</ele>
        <time>2021-05-16T07:55:01Z</time>
      </trkpt>
      <trkpt lat="41.2345760" lon="-8.7218730">
        <ele>6.7</ele>
        <time>2021-05-16T07:55:02Z</time>
      </trkpt>
      <trkpt lat="41.2345680" lon="-8.7218890">
        <ele>6.7</ele>
        <time>2021-05-16T07:55:03Z</time>
      </trkpt>
      <trkpt lat="41.2345550" lon="-8.7219060">
        <ele>6.7</ele>
        <time>2021-05-16T07:55:04Z</time>
      </trkpt>
      <trkpt lat="41.2345530" lon="-8.7219280">
        <ele>6.7</ele>
        <time>2021-05-16T07:55:05Z</time>
      </trkpt>
      <trkpt lat="41.2345510" lon="-8.7219500">
        <ele>6.7</ele>
        <time>2021-05-16T07:55:06Z</time>
      </trkpt>
      <trkpt lat="41.2345530" lon="-8.7219700">
        <ele>6.7</ele>
        <time>2021-05-16T07:55:07Z</time>
      </trkpt>
      <trkpt lat="41.2345540" lon="-8.7219900">
        <ele>6.7</ele>
        <time>2021-05-16T07:55:08Z</time>
      </trkpt>
      <trkpt lat="41.2345570" lon="-8.7220130">
        <ele>6.7</ele>
        <time>2021-05-16T07:55:09Z</time>
      </trkpt>
      <trkpt lat="41.2345550" lon="-8.7220330">
        <ele>6.7</ele>
        <time>2021-05-16T07:55:10Z</time>
      </trkpt>
      <trkpt lat="41.2345560" lon="-8.7220540">
        <ele>6.7</ele>
        <time>2021-05-16T07:55:11Z</time>
      </trkpt>
      <trkpt lat="41.2345580" lon="-8.7220720">
        <ele>6.8</ele>
        <time>2021-05-16T07:55:12Z</time>
      </trkpt>
      <trkpt lat="41.2345600" lon="-8.7220920">
        <ele>6.8</ele>
        <time>2021-05-16T07:55:13Z</time>
      </trkpt>
      <trkpt lat="41.2345590" lon="-8.7221090">
        <ele>6.8</ele>
        <time>2021-05-16T07:55:14Z</time>
      </trkpt>
      <trkpt lat="41.2345630" lon="-8.7221310">
        <ele>6.8</ele>
        <time>2021-05-16T07:55:15Z</time>
      </trkpt>
      <trkpt lat="41.2345630" lon="-8.7221500">
        <ele>6.8</ele>
        <time>2021-05-16T07:55:16Z</time>
      </trkpt>
      <trkpt lat="41.2345670" lon="-8.7221690">
        <ele>6.8</ele>
        <time>2021-05-16T07:55:17Z</time>
      </trkpt>
      <trkpt lat="41.2345700" lon="-8.7221880">
        <ele>6.9</ele>
        <time>2021-05-16T07:55:18Z</time>
      </trkpt>
      <trkpt lat="41.2345740" lon="-8.7222180">
        <ele>6.9</ele>
        <time>2021-05-16T07:55:19Z</time>
      </trkpt>
      <trkpt lat="41.2345770" lon="-8.7222290">
        <ele>6.9</ele>
        <time>2021-05-16T07:55:20Z</time>
      </trkpt>
      <trkpt lat="41.2345790" lon="-8.7222410">
        <ele>6.9</ele>
        <time>2021-05-16T07:55:21Z</time>
      </trkpt>
      <trkpt lat="41.2345820" lon="-8.7222580">
        <ele>6.9</ele>
        <time>2021-05-16T07:55:22Z</time>
      </trkpt>
      <trkpt lat="41.2345890" lon="-8.7222750">
        <ele>6.9</ele>
        <time>2021-05-16T07:55:23Z</time>
      </trkpt>
      <trkpt lat="41.2345960" lon="-8.7222930">
        <ele>7.0</ele>
        <time>2021-05-16T07:55:24Z</time>
      </trkpt>
      <trkpt lat="41.2345980" lon="-8.7223110">
        <ele>7.0</ele>
        <time>2021-05-16T07:55:25Z</time>
      </trkpt>
      <trkpt lat="41.2346020" lon="-8.7223320">
        <ele>7.0</ele>
        <time>2021-05-16T07:55:26Z</time>
      </trkpt>
      <trkpt lat="41.2346080" lon="-8.7223500">
        <ele>7.0</ele>
        <time>2021-05-16T07:55:27Z</time>
      </trkpt>
      <trkpt lat="41.2346150" lon="-8.7223660">
        <ele>7.0</ele>
        <time>2021-05-16T07:55:28Z</time>
      </trkpt>
      <trkpt lat="41.2346210" lon="-8.7223830">
        <ele>7.0</ele>
        <time>2021-05-16T07:55:29Z</time>
      </trkpt>
      <trkpt lat="41.2346250" lon="-8.7224050">
        <ele>7.0</ele>
        <time>2021-05-16T07:55:30Z</time>
      </trkpt>
      <trkpt lat="41.2346320" lon="-8.7224200">
        <ele>7.0</ele>
        <time>2021-05-16T07:55:31Z</time>
      </trkpt>
      <trkpt lat="41.2346380" lon="-8.7224370">
        <ele>7.1</ele>
        <time>2021-05-16T07:55:32Z</time>
      </trkpt>
      <trkpt lat="41.2346460" lon="-8.7224510">
        <ele>7.1</ele>
        <time>2021-05-16T07:55:33Z</time>
      </trkpt>
      <trkpt lat="41.2346580" lon="-8.7224640">
        <ele>7.1</ele>
        <time>2021-05-16T07:55:34Z</time>
      </trkpt>
      <trkpt lat="41.2346650" lon="-8.7224790">
        <ele>7.1</ele>
        <time>2021-05-16T07:55:35Z</time>
      </trkpt>
      <trkpt lat="41.2346740" lon="-8.7224930">
        <ele>7.1</ele>
        <time>2021-05-16T07:55:36Z</time>
      </trkpt>
      <trkpt lat="41.2346810" lon="-8.7225090">
        <ele>7.1</ele>
        <time>2021-05-16T07:55:37Z</time>
      </trkpt>
      <trkpt lat="41.2346960" lon="-8.7225200">
        <ele>7.1</ele>
        <time>2021-05-16T07:55:38Z</time>
      </trkpt>
      <trkpt lat="41.2347030" lon="-8.7225350">
        <ele>7.2</ele>
        <time>2021-05-16T07:55:39Z</time>
      </trkpt>
      <trkpt lat="41.2347130" lon="-8.7225530">
        <ele>7.2</ele>
        <time>2021-05-16T07:55:40Z</time>
      </trkpt>
      <trkpt lat="41.2347210" lon="-8.7225700">
        <ele>7.2</ele>
        <time>2021-05-16T07:55:41Z</time>
      </trkpt>
      <trkpt lat="41.2347310" lon="-8.7225860">
        <ele>7.2</ele>
        <time>2021-05-16T07:55:42Z</time>
      </trkpt>
      <trkpt lat="41.2347360" lon="-8.7226030">
        <ele>7.2</ele>
        <time>2021-05-16T07:55:43Z</time>
      </trkpt>
      <trkpt lat="41.2347470" lon="-8.7226220">
        <ele>7.2</ele>
        <time>2021-05-16T07:55:44Z</time>
      </trkpt>
      <trkpt lat="41.2347570" lon="-8.7226340">
        <ele>7.2</ele>
        <time>2021-05-16T07:55:45Z</time>
      </trkpt>
      <trkpt lat="41.2347650" lon="-8.7226470">
        <ele>7.2</ele>
        <time>2021-05-16T07:55:46Z</time>
      </trkpt>
      <trkpt lat="41.2347740" lon="-8.7226640">
        <ele>7.2</ele>
        <time>2021-05-16T07:55:47Z</time>
      </trkpt>
      <trkpt lat="41.2347860" lon="-8.7226760">
        <ele>7.2</ele>
        <time>2021-05-16T07:55:48Z</time>
      </trkpt>
      <trkpt lat="41.2347980" lon="-8.7226860">
        <ele>7.2</ele>
        <time>2021-05-16T07:55:49Z</time>
      </trkpt>
      <trkpt lat="41.2348120" lon="-8.7227070">
        <ele>7.2</ele>
        <time>2021-05-16T07:55:50Z</time>
      </trkpt>
      <trkpt lat="41.2348180" lon="-8.7227160">
        <ele>7.2</ele>
        <time>2021-05-16T07:55:51Z</time>
      </trkpt>
      <trkpt lat="41.2348230" lon="-8.7227250">
        <ele>7.1</ele>
        <time>2021-05-16T07:55:52Z</time>
      </trkpt>
      <trkpt lat="41.2348400" lon="-8.7227410">
        <ele>7.1</ele>
        <time>2021-05-16T07:55:53Z</time>
      </trkpt>
      <trkpt lat="41.2348480" lon="-8.7227490">
        <ele>7.1</ele>
        <time>2021-05-16T07:55:54Z</time>
      </trkpt>
      <trkpt lat="41.2348560" lon="-8.7227560">
        <ele>7.1</ele>
        <time>2021-05-16T07:55:55Z</time>
      </trkpt>
      <trkpt lat="41.2348660" lon="-8.7227660">
        <ele>7.1</ele>
        <time>2021-05-16T07:55:56Z</time>
      </trkpt>
      <trkpt lat="41.2348780" lon="-8.7227800">
        <ele>7.1</ele>
        <time>2021-05-16T07:55:57Z</time>
      </trkpt>
      <trkpt lat="41.2348980" lon="-8.7227960">
        <ele>7.1</ele>
        <time>2021-05-16T07:55:58Z</time>
      </trkpt>
      <trkpt lat="41.2349060" lon="-8.7228040">
        <ele>7.1</ele>
        <time>2021-05-16T07:55:59Z</time>
      </trkpt>
      <trkpt lat="41.2349140" lon="-8.7228110">
        <ele>7.1</ele>
        <time>2021-05-16T07:56:00Z</time>
      </trkpt>
      <trkpt lat="41.2349260" lon="-8.7228220">
        <ele>7.0</ele>
        <time>2021-05-16T07:56:01Z</time>
      </trkpt>
      <trkpt lat="41.2349390" lon="-8.7228280">
        <ele>7.0</ele>
        <time>2021-05-16T07:56:02Z</time>
      </trkpt>
      <trkpt lat="41.2349580" lon="-8.7228470">
        <ele>7.0</ele>
        <time>2021-05-16T07:56:03Z</time>
      </trkpt>
      <trkpt lat="41.2349650" lon="-8.7228510">
        <ele>7.0</ele>
        <time>2021-05-16T07:56:04Z</time>
      </trkpt>
      <trkpt lat="41.2349730" lon="-8.7228560">
        <ele>7.0</ele>
        <time>2021-05-16T07:56:05Z</time>
      </trkpt>
      <trkpt lat="41.2349840" lon="-8.7228670">
        <ele>6.9</ele>
        <time>2021-05-16T07:56:06Z</time>
      </trkpt>
      <trkpt lat="41.2349970" lon="-8.7228770">
        <ele>6.9</ele>
        <time>2021-05-16T07:56:07Z</time>
      </trkpt>
      <trkpt lat="41.2350080" lon="-8.7228910">
        <ele>6.9</ele>
        <time>2021-05-16T07:56:08Z</time>
      </trkpt>
      <trkpt lat="41.2350190" lon="-8.7229020">
        <ele>6.8</ele>
        <time>2021-05-16T07:56:09Z</time>
      </trkpt>
      <trkpt lat="41.2350320" lon="-8.7229100">
        <ele>6.8</ele>
        <time>2021-05-16T07:56:10Z</time>
      </trkpt>
      <trkpt lat="41.2350440" lon="-8.7229180">
        <ele>6.8</ele>
        <time>2021-05-16T07:56:11Z</time>
      </trkpt>
      <trkpt lat="41.2350630" lon="-8.7229320">
        <ele>6.7</ele>
        <time>2021-05-16T07:56:12Z</time>
      </trkpt>
      <trkpt lat="41.2350720" lon="-8.7229380">
        <ele>6.7</ele>
        <time>2021-05-16T07:56:13Z</time>
      </trkpt>
      <trkpt lat="41.2350810" lon="-8.7229430">
        <ele>6.6</ele>
        <time>2021-05-16T07:56:14Z</time>
      </trkpt>
      <trkpt lat="41.2350980" lon="-8.7229650">
        <ele>6.6</ele>
        <time>2021-05-16T07:56:15Z</time>
      </trkpt>
      <trkpt lat="41.2351060" lon="-8.7229700">
        <ele>6.5</ele>
        <time>2021-05-16T07:56:16Z</time>
      </trkpt>
      <trkpt lat="41.2351130" lon="-8.7229760">
        <ele>6.5</ele>
        <time>2021-05-16T07:56:17Z</time>
      </trkpt>
      <trkpt lat="41.2351240" lon="-8.7229830">
        <ele>6.5</ele>
        <time>2021-05-16T07:56:18Z</time>
      </trkpt>
      <trkpt lat="41.2351310" lon="-8.7229880">
        <ele>6.4</ele>
        <time>2021-05-16T07:56:19Z</time>
      </trkpt>
      <trkpt lat="41.2351450" lon="-8.7229990">
        <ele>6.4</ele>
        <time>2021-05-16T07:56:20Z</time>
      </trkpt>
      <trkpt lat="41.2351630" lon="-8.7230130">
        <ele>6.3</ele>
        <time>2021-05-16T07:56:21Z</time>
      </trkpt>
      <trkpt lat="41.2351720" lon="-8.7230180">
        <ele>6.2</ele>
        <time>2021-05-16T07:56:22Z</time>
      </trkpt>
      <trkpt lat="41.2351810" lon="-8.7230240">
        <ele>6.2</ele>
        <time>2021-05-16T07:56:23Z</time>
      </trkpt>
      <trkpt lat="41.2352010" lon="-8.7230360">
        <ele>6.1</ele>
        <time>2021-05-16T07:56:24Z</time>
      </trkpt>
      <trkpt lat="41.2352090" lon="-8.7230410">
        <ele>6.0</ele>
        <time>2021-05-16T07:56:25Z</time>
      </trkpt>
      <trkpt lat="41.2352180" lon="-8.7230470">
        <ele>6.0</ele>
        <time>2021-05-16T07:56:26Z</time>
      </trkpt>
      <trkpt lat="41.2352300" lon="-8.7230600">
        <ele>5.9</ele>
        <time>2021-05-16T07:56:27Z</time>
      </trkpt>
      <trkpt lat="41.2352420" lon="-8.7230710">
        <ele>5.8</ele>
        <time>2021-05-16T07:56:28Z</time>
      </trkpt>
      <trkpt lat="41.2352530" lon="-8.7230840">
        <ele>5.7</ele>
        <time>2021-05-16T07:56:29Z</time>
      </trkpt>
      <trkpt lat="41.2352670" lon="-8.7230880">
        <ele>5.6</ele>
        <time>2021-05-16T07:56:30Z</time>
      </trkpt>
      <trkpt lat="41.2352800" lon="-8.7230960">
        <ele>5.6</ele>
        <time>2021-05-16T07:56:31Z</time>
      </trkpt>
      <trkpt lat="41.2352930" lon="-8.7231050">
        <ele>5.5</ele>
        <time>2021-05-16T07:56:32Z</time>
      </trkpt>
      <trkpt lat="41.2353060" lon="-8.7231140">
        <ele>5.4</ele>
        <time>2021-05-16T07:56:33Z</time>
      </trkpt>
      <trkpt lat="41.2353220" lon="-8.7231160">
        <ele>5.3</ele>
        <time>2021-05-16T07:56:34Z</time>
      </trkpt>
      <trkpt lat="41.2353350" lon="-8.7231270">
        <ele>5.2</ele>
        <time>2021-05-16T07:56:35Z</time>
      </trkpt>
      <trkpt lat="41.2353490" lon="-8.7231360">
        <ele>5.1</ele>
        <time>2021-05-16T07:56:36Z</time>
      </trkpt>
      <trkpt lat="41.2353720" lon="-8.7231460">
        <ele>5.0</ele>
        <time>2021-05-16T07:56:37Z</time>
      </trkpt>
      <trkpt lat="41.2353790" lon="-8.7231490">
        <ele>4.9</ele>
        <time>2021-05-16T07:56:38Z</time>
      </trkpt>
      <trkpt lat="41.2353870" lon="-8.7231530">
        <ele>4.9</ele>
        <time>2021-05-16T07:56:39Z</time>
      </trkpt>
      <trkpt lat="41.2353990" lon="-8.7231600">
        <ele>4.8</ele>
        <time>2021-05-16T07:56:40Z</time>
      </trkpt>
      <trkpt lat="41.2354140" lon="-8.7231630">
        <ele>4.7</ele>
        <time>2021-05-16T07:56:41Z</time>
      </trkpt>
      <trkpt lat="41.2354250" lon="-8.7231730">
        <ele>4.6</ele>
        <time>2021-05-16T07:56:42Z</time>
      </trkpt>
      <trkpt lat="41.2354390" lon="-8.7231750">
        <ele>4.6</ele>
        <time>2021-05-16T07:56:43Z</time>
      </trkpt>
      <trkpt lat="41.2354530" lon="-8.7231760">
        <ele>4.5</ele>
        <time>2021-05-16T07:56:44Z</time>
      </trkpt>
      <trkpt lat="41.2354680" lon="-8.7231720">
        <ele>4.4</ele>
        <time>2021-05-16T07:56:45Z</time>
      </trkpt>
      <trkpt lat="41.2354840" lon="-8.7231730">
        <ele>4.3</ele>
        <time>2021-05-16T07:56:46Z</time>
      </trkpt>
      <trkpt lat="41.2354970" lon="-8.7231800">
        <ele>4.2</ele>
        <time>2021-05-16T07:56:47Z</time>
      </trkpt>
      <trkpt lat="41.2355140" lon="-8.7231820">
        <ele>4.1</ele>
        <time>2021-05-16T07:56:48Z</time>
      </trkpt>
      <trkpt lat="41.2355290" lon="-8.7231770">
        <ele>4.1</ele>
        <time>2021-05-16T07:56:49Z</time>
      </trkpt>
      <trkpt lat="41.2355420" lon="-8.7231740">
        <ele>4.0</ele>
        <time>2021-05-16T07:56:50Z</time>
      </trkpt>
      <trkpt lat="41.2355560" lon="-8.7231780">
        <ele>3.9</ele>
        <time>2021-05-16T07:56:51Z</time>
      </trkpt>
      <trkpt lat="41.2355700" lon="-8.7231730">
        <ele>3.4</ele>
        <time>2021-05-16T07:56:52Z</time>
      </trkpt>
      <trkpt lat="41.2355850" lon="-8.7231720">
        <ele>3.3</ele>
        <time>2021-05-16T07:56:53Z</time>
      </trkpt>
      <trkpt lat="41.2356080" lon="-8.7231710">
        <ele>3.3</ele>
        <time>2021-05-16T07:56:54Z</time>
      </trkpt>
      <trkpt lat="41.2356170" lon="-8.7231690">
        <ele>3.3</ele>
        <time>2021-05-16T07:56:55Z</time>
      </trkpt>
      <trkpt lat="41.2356270" lon="-8.7231680">
        <ele>3.3</ele>
        <time>2021-05-16T07:56:56Z</time>
      </trkpt>
      <trkpt lat="41.2356420" lon="-8.7231690">
        <ele>3.3</ele>
        <time>2021-05-16T07:56:57Z</time>
      </trkpt>
      <trkpt lat="41.2356560" lon="-8.7231720">
        <ele>3.3</ele>
        <time>2021-05-16T07:56:58Z</time>
      </trkpt>
      <trkpt lat="41.2356800" lon="-8.7231680">
        <ele>3.3</ele>
        <time>2021-05-16T07:56:59Z</time>
      </trkpt>
      <trkpt lat="41.2356890" lon="-8.7231710">
        <ele>3.3</ele>
        <time>2021-05-16T07:57:00Z</time>
      </trkpt>
      <trkpt lat="41.2356980" lon="-8.7231730">
        <ele>3.3</ele>
        <time>2021-05-16T07:57:01Z</time>
      </trkpt>
      <trkpt lat="41.2357110" lon="-8.7231740">
        <ele>3.3</ele>
        <time>2021-05-16T07:57:02Z</time>
      </trkpt>
      <trkpt lat="41.2357260" lon="-8.7231790">
        <ele>3.3</ele>
        <time>2021-05-16T07:57:03Z</time>
      </trkpt>
      <trkpt lat="41.2357390" lon="-8.7231860">
        <ele>3.3</ele>
        <time>2021-05-16T07:57:04Z</time>
      </trkpt>
      <trkpt lat="41.2357540" lon="-8.7231930">
        <ele>3.3</ele>
        <time>2021-05-16T07:57:05Z</time>
      </trkpt>
      <trkpt lat="41.2357670" lon="-8.7231970">
        <ele>3.3</ele>
        <time>2021-05-16T07:57:06Z</time>
      </trkpt>
      <trkpt lat="41.2357870" lon="-8.7231890">
        <ele>3.3</ele>
        <time>2021-05-16T07:57:07Z</time>
      </trkpt>
      <trkpt lat="41.2358000" lon="-8.7231970">
        <ele>3.3</ele>
        <time>2021-05-16T07:57:08Z</time>
      </trkpt>
      <trkpt lat="41.2358110" lon="-8.7231980">
        <ele>3.3</ele>
        <time>2021-05-16T07:57:09Z</time>
      </trkpt>
      <trkpt lat="41.2358190" lon="-8.7232100">
        <ele>3.3</ele>
        <time>2021-05-16T07:57:10Z</time>
      </trkpt>
      <trkpt lat="41.2358400" lon="-8.7232140">
        <ele>3.3</ele>
        <time>2021-05-16T07:57:11Z</time>
      </trkpt>
      <trkpt lat="41.2358480" lon="-8.7232190">
        <ele>3.3</ele>
        <time>2021-05-16T07:57:12Z</time>
      </trkpt>
      <trkpt lat="41.2358550" lon="-8.7232230">
        <ele>3.3</ele>
        <time>2021-05-16T07:57:13Z</time>
      </trkpt>
      <trkpt lat="41.2358660" lon="-8.7232230">
        <ele>3.3</ele>
        <time>2021-05-16T07:57:14Z</time>
      </trkpt>
      <trkpt lat="41.2358740" lon="-8.7232320">
        <ele>3.5</ele>
        <time>2021-05-16T07:57:15Z</time>
      </trkpt>
      <trkpt lat="41.2358880" lon="-8.7232300">
        <ele>3.6</ele>
        <time>2021-05-16T07:57:16Z</time>
      </trkpt>
      <trkpt lat="41.2358980" lon="-8.7232330">
        <ele>3.6</ele>
        <time>2021-05-16T07:57:17Z</time>
      </trkpt>
      <trkpt lat="41.2359120" lon="-8.7232350">
        <ele>3.6</ele>
        <time>2021-05-16T07:57:18Z</time>
      </trkpt>
      <trkpt lat="41.2359170" lon="-8.7232350">
        <ele>3.6</ele>
        <time>2021-05-16T07:57:19Z</time>
      </trkpt>
      <trkpt lat="41.2359340" lon="-8.7232300">
        <ele>3.7</ele>
        <time>2021-05-16T07:57:20Z</time>
      </trkpt>
      <trkpt lat="41.2359490" lon="-8.7232320">
        <ele>3.8</ele>
        <time>2021-05-16T07:57:21Z</time>
      </trkpt>
      <trkpt lat="41.2359720" lon="-8.7232310">
        <ele>3.8</ele>
        <time>2021-05-16T07:57:22Z</time>
      </trkpt>
      <trkpt lat="41.2359800" lon="-8.7232280">
        <ele>3.9</ele>
        <time>2021-05-16T07:57:23Z</time>
      </trkpt>
      <trkpt lat="41.2359890" lon="-8.7232260">
        <ele>3.9</ele>
        <time>2021-05-16T07:57:24Z</time>
      </trkpt>
      <trkpt lat="41.2360010" lon="-8.7232170">
        <ele>3.9</ele>
        <time>2021-05-16T07:57:25Z</time>
      </trkpt>
      <trkpt lat="41.2360110" lon="-8.7232160">
        <ele>4.0</ele>
        <time>2021-05-16T07:57:26Z</time>
      </trkpt>
      <trkpt lat="41.2360240" lon="-8.7232130">
        <ele>4.0</ele>
        <time>2021-05-16T07:57:27Z</time>
      </trkpt>
      <trkpt lat="41.2360400" lon="-8.7232140">
        <ele>4.1</ele>
        <time>2021-05-16T07:57:28Z</time>
      </trkpt>
      <trkpt lat="41.2360540" lon="-8.7232170">
        <ele>4.1</ele>
        <time>2021-05-16T07:57:29Z</time>
      </trkpt>
      <trkpt lat="41.2360720" lon="-8.7232250">
        <ele>4.2</ele>
        <time>2021-05-16T07:57:30Z</time>
      </trkpt>
      <trkpt lat="41.2360890" lon="-8.7232300">
        <ele>4.3</ele>
        <time>2021-05-16T07:57:31Z</time>
      </trkpt>
      <trkpt lat="41.2361020" lon="-8.7232420">
        <ele>4.3</ele>
        <time>2021-05-16T07:57:32Z</time>
      </trkpt>
      <trkpt lat="41.2361180" lon="-8.7232470">
        <ele>4.4</ele>
        <time>2021-05-16T07:57:33Z</time>
      </trkpt>
      <trkpt lat="41.2361350" lon="-8.7232470">
        <ele>4.5</ele>
        <time>2021-05-16T07:57:34Z</time>
      </trkpt>
      <trkpt lat="41.2361500" lon="-8.7232540">
        <ele>4.5</ele>
        <time>2021-05-16T07:57:35Z</time>
      </trkpt>
      <trkpt lat="41.2361650" lon="-8.7232640">
        <ele>4.6</ele>
        <time>2021-05-16T07:57:36Z</time>
      </trkpt>
      <trkpt lat="41.2361800" lon="-8.7232680">
        <ele>4.7</ele>
        <time>2021-05-16T07:57:37Z</time>
      </trkpt>
      <trkpt lat="41.2361930" lon="-8.7232660">
        <ele>4.7</ele>
        <time>2021-05-16T07:57:38Z</time>
      </trkpt>
      <trkpt lat="41.2362100" lon="-8.7232700">
        <ele>4.8</ele>
        <time>2021-05-16T07:57:39Z</time>
      </trkpt>
      <trkpt lat="41.2362290" lon="-8.7232740">
        <ele>4.8</ele>
        <time>2021-05-16T07:57:40Z</time>
      </trkpt>
      <trkpt lat="41.2362380" lon="-8.7232740">
        <ele>4.9</ele>
        <time>2021-05-16T07:57:41Z</time>
      </trkpt>
      <trkpt lat="41.2362480" lon="-8.7232740">
        <ele>4.9</ele>
        <time>2021-05-16T07:57:42Z</time>
      </trkpt>
      <trkpt lat="41.2362580" lon="-8.7232810">
        <ele>4.9</ele>
        <time>2021-05-16T07:57:43Z</time>
      </trkpt>
      <trkpt lat="41.2362700" lon="-8.7232810">
        <ele>5.0</ele>
        <time>2021-05-16T07:57:44Z</time>
      </trkpt>
      <trkpt lat="41.2362800" lon="-8.7232790">
        <ele>5.0</ele>
        <time>2021-05-16T07:57:45Z</time>
      </trkpt>
      <trkpt lat="41.2362980" lon="-8.7232810">
        <ele>5.0</ele>
        <time>2021-05-16T07:57:46Z</time>
      </trkpt>
      <trkpt lat="41.2363100" lon="-8.7232690">
        <ele>5.1</ele>
        <time>2021-05-16T07:57:47Z</time>
      </trkpt>
      <trkpt lat="41.2363400" lon="-8.7232570">
        <ele>5.2</ele>
        <time>2021-05-16T07:57:48Z</time>
      </trkpt>
      <trkpt lat="41.2363490" lon="-8.7232530">
        <ele>5.3</ele>
        <time>2021-05-16T07:57:49Z</time>
      </trkpt>
      <trkpt lat="41.2363630" lon="-8.7232560">
        <ele>5.3</ele>
        <time>2021-05-16T07:57:50Z</time>
      </trkpt>
      <trkpt lat="41.2363800" lon="-8.7232590">
        <ele>5.3</ele>
        <time>2021-05-16T07:57:51Z</time>
      </trkpt>
      <trkpt lat="41.2364010" lon="-8.7232590">
        <ele>5.3</ele>
        <time>2021-05-16T07:57:52Z</time>
      </trkpt>
      <trkpt lat="41.2364090" lon="-8.7232570">
        <ele>5.3</ele>
        <time>2021-05-16T07:57:53Z</time>
      </trkpt>
      <trkpt lat="41.2364180" lon="-8.7232560">
        <ele>5.4</ele>
        <time>2021-05-16T07:57:54Z</time>
      </trkpt>
      <trkpt lat="41.2364330" lon="-8.7232590">
        <ele>5.4</ele>
        <time>2021-05-16T07:57:55Z</time>
      </trkpt>
      <trkpt lat="41.2364470" lon="-8.7232640">
        <ele>5.4</ele>
        <time>2021-05-16T07:57:56Z</time>
      </trkpt>
      <trkpt lat="41.2364660" lon="-8.7232740">
        <ele>5.4</ele>
        <time>2021-05-16T07:57:57Z</time>
      </trkpt>
      <trkpt lat="41.2364760" lon="-8.7232700">
        <ele>5.4</ele>
        <time>2021-05-16T07:57:58Z</time>
      </trkpt>
      <trkpt lat="41.2364830" lon="-8.7232760">
        <ele>5.4</ele>
        <time>2021-05-16T07:57:59Z</time>
      </trkpt>
      <trkpt lat="41.2364950" lon="-8.7232820">
        <ele>5.5</ele>
        <time>2021-05-16T07:58:00Z</time>
      </trkpt>
      <trkpt lat="41.2365050" lon="-8.7232820">
        <ele>5.5</ele>
        <time>2021-05-16T07:58:01Z</time>
      </trkpt>
      <trkpt lat="41.2365140" lon="-8.7232850">
        <ele>5.5</ele>
        <time>2021-05-16T07:58:02Z</time>
      </trkpt>
      <trkpt lat="41.2365340" lon="-8.7232860">
        <ele>5.5</ele>
        <time>2021-05-16T07:58:03Z</time>
      </trkpt>
      <trkpt lat="41.2365570" lon="-8.7232840">
        <ele>5.5</ele>
        <time>2021-05-16T07:58:04Z</time>
      </trkpt>
      <trkpt lat="41.2365670" lon="-8.7232820">
        <ele>5.5</ele>
        <time>2021-05-16T07:58:05Z</time>
      </trkpt>
      <trkpt lat="41.2365770" lon="-8.7232800">
        <ele>5.5</ele>
        <time>2021-05-16T07:58:06Z</time>
      </trkpt>
      <trkpt lat="41.2365970" lon="-8.7232760">
        <ele>5.6</ele>
        <time>2021-05-16T07:58:07Z</time>
      </trkpt>
      <trkpt lat="41.2366130" lon="-8.7232770">
        <ele>5.6</ele>
        <time>2021-05-16T07:58:08Z</time>
      </trkpt>
      <trkpt lat="41.2366250" lon="-8.7232850">
        <ele>5.6</ele>
        <time>2021-05-16T07:58:09Z</time>
      </trkpt>
      <trkpt lat="41.2366460" lon="-8.7232870">
        <ele>5.6</ele>
        <time>2021-05-16T07:58:10Z</time>
      </trkpt>
      <trkpt lat="41.2366610" lon="-8.7232880">
        <ele>5.6</ele>
        <time>2021-05-16T07:58:11Z</time>
      </trkpt>
      <trkpt lat="41.2366810" lon="-8.7232880">
        <ele>5.6</ele>
        <time>2021-05-16T07:58:12Z</time>
      </trkpt>
      <trkpt lat="41.2366960" lon="-8.7232890">
        <ele>5.7</ele>
        <time>2021-05-16T07:58:13Z</time>
      </trkpt>
      <trkpt lat="41.2367100" lon="-8.7232900">
        <ele>5.7</ele>
        <time>2021-05-16T07:58:14Z</time>
      </trkpt>
      <trkpt lat="41.2367360" lon="-8.7232790">
        <ele>5.7</ele>
        <time>2021-05-16T07:58:15Z</time>
      </trkpt>
      <trkpt lat="41.2367450" lon="-8.7232770">
        <ele>5.7</ele>
        <time>2021-05-16T07:58:16Z</time>
      </trkpt>
      <trkpt lat="41.2367620" lon="-8.7232750">
        <ele>5.7</ele>
        <time>2021-05-16T07:58:17Z</time>
      </trkpt>
      <trkpt lat="41.2367740" lon="-8.7232740">
        <ele>5.7</ele>
        <time>2021-05-16T07:58:18Z</time>
      </trkpt>
      <trkpt lat="41.2367890" lon="-8.7232750">
        <ele>5.7</ele>
        <time>2021-05-16T07:58:19Z</time>
      </trkpt>
      <trkpt lat="41.2368020" lon="-8.7232750">
        <ele>5.8</ele>
        <time>2021-05-16T07:58:20Z</time>
      </trkpt>
      <trkpt lat="41.2368170" lon="-8.7232750">
        <ele>5.8</ele>
        <time>2021-05-16T07:58:21Z</time>
      </trkpt>
      <trkpt lat="41.2368350" lon="-8.7232770">
        <ele>5.8</ele>
        <time>2021-05-16T07:58:22Z</time>
      </trkpt>
      <trkpt lat="41.2368480" lon="-8.7232740">
        <ele>5.8</ele>
        <time>2021-05-16T07:58:23Z</time>
      </trkpt>
      <trkpt lat="41.2368620" lon="-8.7232750">
        <ele>5.8</ele>
        <time>2021-05-16T07:58:24Z</time>
      </trkpt>
      <trkpt lat="41.2368780" lon="-8.7232740">
        <ele>5.9</ele>
        <time>2021-05-16T07:58:25Z</time>
      </trkpt>
      <trkpt lat="41.2368930" lon="-8.7232670">
        <ele>5.9</ele>
        <time>2021-05-16T07:58:26Z</time>
      </trkpt>
      <trkpt lat="41.2369060" lon="-8.7232660">
        <ele>5.9</ele>
        <time>2021-05-16T07:58:27Z</time>
      </trkpt>
      <trkpt lat="41.2369230" lon="-8.7232720">
        <ele>5.9</ele>
        <time>2021-05-16T07:58:28Z</time>
      </trkpt>
      <trkpt lat="41.2369500" lon="-8.7232740">
        <ele>5.9</ele>
        <time>2021-05-16T07:58:29Z</time>
      </trkpt>
      <trkpt lat="41.2369590" lon="-8.7232760">
        <ele>5.9</ele>
        <time>2021-05-16T07:58:30Z</time>
      </trkpt>
      <trkpt lat="41.2369800" lon="-8.7232790">
        <ele>6.0</ele>
        <time>2021-05-16T07:58:31Z</time>
      </trkpt>
      <trkpt lat="41.2369880" lon="-8.7232810">
        <ele>6.0</ele>
        <time>2021-05-16T07:58:32Z</time>
      </trkpt>
      <trkpt lat="41.2369960" lon="-8.7232840">
        <ele>6.0</ele>
        <time>2021-05-16T07:58:33Z</time>
      </trkpt>
      <trkpt lat="41.2370100" lon="-8.7232890">
        <ele>6.0</ele>
        <time>2021-05-16T07:58:34Z</time>
      </trkpt>
      <trkpt lat="41.2370250" lon="-8.7232930">
        <ele>6.0</ele>
        <time>2021-05-16T07:58:35Z</time>
      </trkpt>
      <trkpt lat="41.2370390" lon="-8.7232890">
        <ele>6.0</ele>
        <time>2021-05-16T07:58:36Z</time>
      </trkpt>
      <trkpt lat="41.2370530" lon="-8.7232890">
        <ele>6.0</ele>
        <time>2021-05-16T07:58:37Z</time>
      </trkpt>
      <trkpt lat="41.2370740" lon="-8.7232880">
        <ele>6.0</ele>
        <time>2021-05-16T07:58:38Z</time>
      </trkpt>
      <trkpt lat="41.2370820" lon="-8.7232870">
        <ele>6.0</ele>
        <time>2021-05-16T07:58:39Z</time>
      </trkpt>
      <trkpt lat="41.2370900" lon="-8.7232870">
        <ele>6.0</ele>
        <time>2021-05-16T07:58:40Z</time>
      </trkpt>
      <trkpt lat="41.2371010" lon="-8.7232870">
        <ele>6.0</ele>
        <time>2021-05-16T07:58:41Z</time>
      </trkpt>
      <trkpt lat="41.2371170" lon="-8.7232910">
        <ele>6.0</ele>
        <time>2021-05-16T07:58:42Z</time>
      </trkpt>
      <trkpt lat="41.2371290" lon="-8.7232930">
        <ele>6.0</ele>
        <time>2021-05-16T07:58:43Z</time>
      </trkpt>
      <trkpt lat="41.2371390" lon="-8.7232950">
        <ele>6.0</ele>
        <time>2021-05-16T07:58:44Z</time>
      </trkpt>
      <trkpt lat="41.2371520" lon="-8.7232970">
        <ele>6.0</ele>
        <time>2021-05-16T07:58:45Z</time>
      </trkpt>
      <trkpt lat="41.2371720" lon="-8.7232960">
        <ele>6.0</ele>
        <time>2021-05-16T07:58:46Z</time>
      </trkpt>
      <trkpt lat="41.2371810" lon="-8.7232940">
        <ele>6.0</ele>
        <time>2021-05-16T07:58:47Z</time>
      </trkpt>
      <trkpt lat="41.2371910" lon="-8.7232930">
        <ele>6.0</ele>
        <time>2021-05-16T07:58:48Z</time>
      </trkpt>
      <trkpt lat="41.2372080" lon="-8.7232920">
        <ele>6.0</ele>
        <time>2021-05-16T07:58:49Z</time>
      </trkpt>
      <trkpt lat="41.2372250" lon="-8.7232930">
        <ele>6.0</ele>
        <time>2021-05-16T07:58:50Z</time>
      </trkpt>
      <trkpt lat="41.2372410" lon="-8.7232960">
        <ele>5.9</ele>
        <time>2021-05-16T07:58:51Z</time>
      </trkpt>
      <trkpt lat="41.2372580" lon="-8.7232910">
        <ele>5.9</ele>
        <time>2021-05-16T07:58:52Z</time>
      </trkpt>
      <trkpt lat="41.2372740" lon="-8.7232860">
        <ele>5.9</ele>
        <time>2021-05-16T07:58:53Z</time>
      </trkpt>
      <trkpt lat="41.2372890" lon="-8.7232880">
        <ele>5.9</ele>
        <time>2021-05-16T07:58:54Z</time>
      </trkpt>
      <trkpt lat="41.2373150" lon="-8.7232910">
        <ele>5.9</ele>
        <time>2021-05-16T07:58:55Z</time>
      </trkpt>
      <trkpt lat="41.2373260" lon="-8.7232890">
        <ele>5.9</ele>
        <time>2021-05-16T07:58:56Z</time>
      </trkpt>
      <trkpt lat="41.2373430" lon="-8.7232910">
        <ele>5.9</ele>
        <time>2021-05-16T07:58:57Z</time>
      </trkpt>
      <trkpt lat="41.2373600" lon="-8.7232940">
        <ele>5.9</ele>
        <time>2021-05-16T07:58:58Z</time>
      </trkpt>
      <trkpt lat="41.2373740" lon="-8.7233030">
        <ele>5.9</ele>
        <time>2021-05-16T07:58:59Z</time>
      </trkpt>
      <trkpt lat="41.2373940" lon="-8.7232970">
        <ele>5.9</ele>
        <time>2021-05-16T07:59:00Z</time>
      </trkpt>
      <trkpt lat="41.2374230" lon="-8.7232920">
        <ele>5.9</ele>
        <time>2021-05-16T07:59:01Z</time>
      </trkpt>
      <trkpt lat="41.2374320" lon="-8.7232890">
        <ele>5.9</ele>
        <time>2021-05-16T07:59:02Z</time>
      </trkpt>
      <trkpt lat="41.2374480" lon="-8.7232870">
        <ele>5.9</ele>
        <time>2021-05-16T07:59:03Z</time>
      </trkpt>
      <trkpt lat="41.2374620" lon="-8.7232860">
        <ele>5.9</ele>
        <time>2021-05-16T07:59:04Z</time>
      </trkpt>
      <trkpt lat="41.2374780" lon="-8.7232820">
        <ele>5.8</ele>
        <time>2021-05-16T07:59:05Z</time>
      </trkpt>
      <trkpt lat="41.2374930" lon="-8.7232680">
        <ele>5.8</ele>
        <time>2021-05-16T07:59:06Z</time>
      </trkpt>
      <trkpt lat="41.2375080" lon="-8.7232690">
        <ele>5.8</ele>
        <time>2021-05-16T07:59:07Z</time>
      </trkpt>
      <trkpt lat="41.2375230" lon="-8.7232720">
        <ele>5.8</ele>
        <time>2021-05-16T07:59:08Z</time>
      </trkpt>
      <trkpt lat="41.2375380" lon="-8.7232740">
        <ele>5.8</ele>
        <time>2021-05-16T07:59:09Z</time>
      </trkpt>
      <trkpt lat="41.2375520" lon="-8.7232810">
        <ele>5.8</ele>
        <time>2021-05-16T07:59:10Z</time>
      </trkpt>
      <trkpt lat="41.2375680" lon="-8.7232770">
        <ele>5.8</ele>
        <time>2021-05-16T07:59:11Z</time>
      </trkpt>
      <trkpt lat="41.2375840" lon="-8.7232760">
        <ele>5.8</ele>
        <time>2021-05-16T07:59:12Z</time>
      </trkpt>
      <trkpt lat="41.2375990" lon="-8.7232790">
        <ele>5.8</ele>
        <time>2021-05-16T07:59:13Z</time>
      </trkpt>
      <trkpt lat="41.2376170" lon="-8.7232770">
        <ele>5.8</ele>
        <time>2021-05-16T07:59:14Z</time>
      </trkpt>
      <trkpt lat="41.2376310" lon="-8.7232790">
        <ele>5.8</ele>
        <time>2021-05-16T07:59:15Z</time>
      </trkpt>
      <trkpt lat="41.2376450" lon="-8.7232690">
        <ele>5.8</ele>
        <time>2021-05-16T07:59:16Z</time>
      </trkpt>
      <trkpt lat="41.2376580" lon="-8.7232670">
        <ele>5.8</ele>
        <time>2021-05-16T07:59:17Z</time>
      </trkpt>
      <trkpt lat="41.2376720" lon="-8.7232600">
        <ele>5.8</ele>
        <time>2021-05-16T07:59:18Z</time>
      </trkpt>
      <trkpt lat="41.2376890" lon="-8.7232600">
        <ele>5.8</ele>
        <time>2021-05-16T07:59:19Z</time>
      </trkpt>
      <trkpt lat="41.2377020" lon="-8.7232550">
        <ele>5.8</ele>
        <time>2021-05-16T07:59:20Z</time>
      </trkpt>
      <trkpt lat="41.2377170" lon="-8.7232480">
        <ele>5.8</ele>
        <time>2021-05-16T07:59:21Z</time>
      </trkpt>
      <trkpt lat="41.2377330" lon="-8.7232440">
        <ele>5.8</ele>
        <time>2021-05-16T07:59:22Z</time>
      </trkpt>
      <trkpt lat="41.2377510" lon="-8.7232350">
        <ele>5.8</ele>
        <time>2021-05-16T07:59:23Z</time>
      </trkpt>
      <trkpt lat="41.2377660" lon="-8.7232290">
        <ele>5.8</ele>
        <time>2021-05-16T07:59:24Z</time>
      </trkpt>
      <trkpt lat="41.2377810" lon="-8.7232270">
        <ele>5.8</ele>
        <time>2021-05-16T07:59:25Z</time>
      </trkpt>
      <trkpt lat="41.2377930" lon="-8.7232230">
        <ele>5.8</ele>
        <time>2021-05-16T07:59:26Z</time>
      </trkpt>
      <trkpt lat="41.2378080" lon="-8.7232290">
        <ele>5.8</ele>
        <time>2021-05-16T07:59:27Z</time>
      </trkpt>
      <trkpt lat="41.2378210" lon="-8.7232300">
        <ele>5.8</ele>
        <time>2021-05-16T07:59:28Z</time>
      </trkpt>
      <trkpt lat="41.2378420" lon="-8.7232450">
        <ele>5.8</ele>
        <time>2021-05-16T07:59:29Z</time>
      </trkpt>
      <trkpt lat="41.2378510" lon="-8.7232490">
        <ele>5.8</ele>
        <time>2021-05-16T07:59:30Z</time>
      </trkpt>
      <trkpt lat="41.2378590" lon="-8.7232530">
        <ele>5.8</ele>
        <time>2021-05-16T07:59:31Z</time>
      </trkpt>
      <trkpt lat="41.2378720" lon="-8.7232670">
        <ele>5.8</ele>
        <time>2021-05-16T07:59:32Z</time>
      </trkpt>
      <trkpt lat="41.2378850" lon="-8.7232710">
        <ele>5.8</ele>
        <time>2021-05-16T07:59:33Z</time>
      </trkpt>
      <trkpt lat="41.2378980" lon="-8.7232790">
        <ele>5.8</ele>
        <time>2021-05-16T07:59:34Z</time>
      </trkpt>
      <trkpt lat="41.2379140" lon="-8.7232850">
        <ele>5.8</ele>
        <time>2021-05-16T07:59:35Z</time>
      </trkpt>
      <trkpt lat="41.2379370" lon="-8.7232880">
        <ele>5.8</ele>
        <time>2021-05-16T07:59:36Z</time>
      </trkpt>
      <trkpt lat="41.2379450" lon="-8.7232920">
        <ele>5.8</ele>
        <time>2021-05-16T07:59:37Z</time>
      </trkpt>
      <trkpt lat="41.2379540" lon="-8.7232960">
        <ele>5.8</ele>
        <time>2021-05-16T07:59:38Z</time>
      </trkpt>
      <trkpt lat="41.2379710" lon="-8.7233290">
        <ele>5.8</ele>
        <time>2021-05-16T07:59:39Z</time>
      </trkpt>
      <trkpt lat="41.2379750" lon="-8.7233480">
        <ele>5.8</ele>
        <time>2021-05-16T07:59:40Z</time>
      </trkpt>
      <trkpt lat="41.2379840" lon="-8.7233840">
        <ele>5.8</ele>
        <time>2021-05-16T07:59:41Z</time>
      </trkpt>
      <trkpt lat="41.2379870" lon="-8.7233980">
        <ele>5.8</ele>
        <time>2021-05-16T07:59:42Z</time>
      </trkpt>
      <trkpt lat="41.2379940" lon="-8.7234180">
        <ele>5.8</ele>
        <time>2021-05-16T07:59:43Z</time>
      </trkpt>
      <trkpt lat="41.2380010" lon="-8.7234380">
        <ele>5.8</ele>
        <time>2021-05-16T07:59:44Z</time>
      </trkpt>
      <trkpt lat="41.2380090" lon="-8.7234600">
        <ele>5.8</ele>
        <time>2021-05-16T07:59:45Z</time>
      </trkpt>
      <trkpt lat="41.2380180" lon="-8.7234740">
        <ele>5.8</ele>
        <time>2021-05-16T07:59:46Z</time>
      </trkpt>
      <trkpt lat="41.2380240" lon="-8.7234930">
        <ele>5.8</ele>
        <time>2021-05-16T07:59:47Z</time>
      </trkpt>
      <trkpt lat="41.2380330" lon="-8.7235060">
        <ele>5.8</ele>
        <time>2021-05-16T07:59:48Z</time>
      </trkpt>
      <trkpt lat="41.2380470" lon="-8.7235270">
        <ele>5.8</ele>
        <time>2021-05-16T07:59:49Z</time>
      </trkpt>
      <trkpt lat="41.2380540" lon="-8.7235340">
        <ele>5.8</ele>
        <time>2021-05-16T07:59:50Z</time>
      </trkpt>
      <trkpt lat="41.2380620" lon="-8.7235420">
        <ele>5.8</ele>
        <time>2021-05-16T07:59:51Z</time>
      </trkpt>
      <trkpt lat="41.2380740" lon="-8.7235490">
        <ele>5.8</ele>
        <time>2021-05-16T07:59:52Z</time>
      </trkpt>
      <trkpt lat="41.2380860" lon="-8.7235620">
        <ele>5.8</ele>
        <time>2021-05-16T07:59:53Z</time>
      </trkpt>
      <trkpt lat="41.2381020" lon="-8.7235820">
        <ele>5.7</ele>
        <time>2021-05-16T07:59:54Z</time>
      </trkpt>
      <trkpt lat="41.2381100" lon="-8.7235890">
        <ele>5.7</ele>
        <time>2021-05-16T07:59:55Z</time>
      </trkpt>
      <trkpt lat="41.2381170" lon="-8.7235960">
        <ele>5.7</ele>
        <time>2021-05-16T07:59:56Z</time>
      </trkpt>
      <trkpt lat="41.2381300" lon="-8.7236040">
        <ele>5.7</ele>
        <time>2021-05-16T07:59:57Z</time>
      </trkpt>
      <trkpt lat="41.2381430" lon="-8.7236120">
        <ele>5.7</ele>
        <time>2021-05-16T07:59:58Z</time>
      </trkpt>
      <trkpt lat="41.2381550" lon="-8.7236240">
        <ele>5.7</ele>
        <time>2021-05-16T07:59:59Z</time>
      </trkpt>
      <trkpt lat="41.2381670" lon="-8.7236300">
        <ele>5.7</ele>
        <time>2021-05-16T08:00:00Z</time>
      </trkpt>
      <trkpt lat="41.2381820" lon="-8.7236390">
        <ele>5.7</ele>
        <time>2021-05-16T08:00:01Z</time>
      </trkpt>
      <trkpt lat="41.2381940" lon="-8.7236490">
        <ele>5.7</ele>
        <time>2021-05-16T08:00:02Z</time>
      </trkpt>
      <trkpt lat="41.2382060" lon="-8.7236590">
        <ele>5.7</ele>
        <time>2021-05-16T08:00:03Z</time>
      </trkpt>
      <trkpt lat="41.2382180" lon="-8.7236670">
        <ele>5.6</ele>
        <time>2021-05-16T08:00:04Z</time>
      </trkpt>
      <trkpt lat="41.2382310" lon="-8.7236760">
        <ele>5.6</ele>
        <time>2021-05-16T08:00:05Z</time>
      </trkpt>
      <trkpt lat="41.2382440" lon="-8.7236810">
        <ele>5.6</ele>
        <time>2021-05-16T08:00:06Z</time>
      </trkpt>
      <trkpt lat="41.2382540" lon="-8.7236940">
        <ele>5.6</ele>
        <time>2021-05-16T08:00:07Z</time>
      </trkpt>
      <trkpt lat="41.2382630" lon="-8.7236980">
        <ele>5.6</ele>
        <time>2021-05-16T08:00:08Z</time>
      </trkpt>
      <trkpt lat="41.2382650" lon="-8.7237070">
        <ele>5.6</ele>
        <time>2021-05-16T08:00:09Z</time>
      </trkpt>
      <trkpt lat="41.2382630" lon="-8.7237080">
        <ele>5.6</ele>
        <time>2021-05-16T08:00:10Z</time>
      </trkpt>
      <trkpt lat="41.2382540" lon="-8.7237040">
        <ele>5.6</ele>
        <time>2021-05-16T08:00:11Z</time>
      </trkpt>
      <trkpt lat="41.2382520" lon="-8.7237010">
        <ele>5.6</ele>
        <time>2021-05-16T08:00:12Z</time>
      </trkpt>
      <trkpt lat="41.2382530" lon="-8.7237000">
        <ele>5.6</ele>
        <time>2021-05-16T08:00:13Z</time>
      </trkpt>
      <trkpt lat="41.2382560" lon="-8.7236990">
        <ele>5.5</ele>
        <time>2021-05-16T08:00:14Z</time>
      </trkpt>
      <trkpt lat="41.2382510" lon="-8.7237030">
        <ele>5.5</ele>
        <time>2021-05-16T08:00:15Z</time>
      </trkpt>
      <trkpt lat="41.2382470" lon="-8.7237060">
        <ele>5.5</ele>
        <time>2021-05-16T08:00:16Z</time>
      </trkpt>
      <trkpt lat="41.2382440" lon="-8.7237090">
        <ele>5.5</ele>
        <time>2021-05-16T08:00:17Z</time>
      </trkpt>
      <trkpt lat="41.2382420" lon="-8.7237090">
        <ele>5.5</ele>
        <time>2021-05-16T08:00:18Z</time>
      </trkpt>
      <trkpt lat="41.2382410" lon="-8.7237090">
        <ele>5.5</ele>
        <time>2021-05-16T08:00:19Z</time>
      </trkpt>
      <trkpt lat="41.2382380" lon="-8.7237090">
        <ele>5.5</ele>
        <time>2021-05-16T08:00:20Z</time>
      </trkpt>
      <trkpt lat="41.2382360" lon="-8.7237100">
        <ele>5.5</ele>
        <time>2021-05-16T08:00:21Z</time>
      </trkpt>
      <trkpt lat="41.2382360" lon="-8.7237100">
        <ele>5.5</ele>
        <time>2021-05-16T08:00:22Z</time>
      </trkpt>
      <trkpt lat="41.2382360" lon="-8.7237100">
        <ele>5.5</ele>
        <time>2021-05-16T08:00:23Z</time>
      </trkpt>
      <trkpt lat="41.2382240" lon="-8.7237160">
        <ele>5.5</ele>
        <time>2021-05-16T08:00:24Z</time>
      </trkpt>
      <trkpt lat="41.2382230" lon="-8.7237160">
        <ele>5.5</ele>
        <time>2021-05-16T08:00:25Z</time>
      </trkpt>
      <trkpt lat="41.2382230" lon="-8.7237160">
        <ele>5.5</ele>
        <time>2021-05-16T08:00:26Z</time>
      </trkpt>
      <trkpt lat="41.2382220" lon="-8.7237190">
        <ele>5.5</ele>
        <time>2021-05-16T08:00:27Z</time>
      </trkpt>
      <trkpt lat="41.2382220" lon="-8.7237190">
        <ele>5.5</ele>
        <time>2021-05-16T08:00:28Z</time>
      </trkpt>
      <trkpt lat="41.2382220" lon="-8.7237190">
        <ele>5.5</ele>
        <time>2021-05-16T08:00:29Z</time>
      </trkpt>
      <trkpt lat="41.2382220" lon="-8.7237190">
        <ele>5.5</ele>
        <time>2021-05-16T08:00:30Z</time>
      </trkpt>
      <trkpt lat="41.2382220" lon="-8.7237190">
        <ele>5.5</ele>
        <time>2021-05-16T08:00:31Z</time>
      </trkpt>
      <trkpt lat="41.2382220" lon="-8.7237190">
        <ele>5.5</ele>
        <time>2021-05-16T08:00:32Z</time>
      </trkpt>
      <trkpt lat="41.2382220" lon="-8.7237190">
        <ele>5.5</ele>
        <time>2021-05-16T08:00:33Z</time>
      </trkpt>
      <trkpt lat="41.2382220" lon="-8.7237190">
        <ele>5.5</ele>
        <time>2021-05-16T08:00:34Z</time>
      </trkpt>
      <trkpt lat="41.2382220" lon="-8.7237190">
        <ele>5.5</ele>
        <time>2021-05-16T08:00:35Z</time>
      </trkpt>
      <trkpt lat="41.2382220" lon="-8.7237190">
        <ele>5.5</ele>
        <time>2021-05-16T08:00:36Z</time>
      </trkpt>
      <trkpt lat="41.2382220" lon="-8.7237190">
        <ele>5.5</ele>
        <time>2021-05-16T08:00:37Z</time>
      </trkpt>
      <trkpt lat="41.2382220" lon="-8.7237190">
        <ele>5.5</ele>
        <time>2021-05-16T08:00:38Z</time>
      </trkpt>
      <trkpt lat="41.2382220" lon="-8.7237190">
        <ele>5.5</ele>
        <time>2021-05-16T08:00:39Z</time>
      </trkpt>
      <trkpt lat="41.2382220" lon="-8.7237190">
        <ele>5.5</ele>
        <time>2021-05-16T08:00:40Z</time>
      </trkpt>
      <trkpt lat="41.2382060" lon="-8.7237210">
        <ele>5.5</ele>
        <time>2021-05-16T08:00:41Z</time>
      </trkpt>
      <trkpt lat="41.2382020" lon="-8.7237200">
        <ele>5.5</ele>
        <time>2021-05-16T08:00:42Z</time>
      </trkpt>
      <trkpt lat="41.2382010" lon="-8.7237210">
        <ele>5.5</ele>
        <time>2021-05-16T08:00:43Z</time>
      </trkpt>
      <trkpt lat="41.2382040" lon="-8.7237200">
        <ele>5.5</ele>
        <time>2021-05-16T08:00:44Z</time>
      </trkpt>
      <trkpt lat="41.2382030" lon="-8.7237230">
        <ele>5.5</ele>
        <time>2021-05-16T08:00:45Z</time>
      </trkpt>
      <trkpt lat="41.2382040" lon="-8.7237200">
        <ele>5.4</ele>
        <time>2021-05-16T08:00:46Z</time>
      </trkpt>
      <trkpt lat="41.2382050" lon="-8.7237200">
        <ele>5.4</ele>
        <time>2021-05-16T08:00:47Z</time>
      </trkpt>
      <trkpt lat="41.2382040" lon="-8.7237220">
        <ele>5.4</ele>
        <time>2021-05-16T08:00:48Z</time>
      </trkpt>
      <trkpt lat="41.2382050" lon="-8.7237210">
        <ele>5.4</ele>
        <time>2021-05-16T08:00:49Z</time>
      </trkpt>
      <trkpt lat="41.2382080" lon="-8.7237160">
        <ele>5.4</ele>
        <time>2021-05-16T08:00:50Z</time>
      </trkpt>
      <trkpt lat="41.2382080" lon="-8.7237150">
        <ele>5.4</ele>
        <time>2021-05-16T08:00:51Z</time>
      </trkpt>
      <trkpt lat="41.2382080" lon="-8.7237160">
        <ele>5.4</ele>
        <time>2021-05-16T08:00:52Z</time>
      </trkpt>
      <trkpt lat="41.2382070" lon="-8.7237130">
        <ele>5.4</ele>
        <time>2021-05-16T08:00:53Z</time>
      </trkpt>
      <trkpt lat="41.2382030" lon="-8.7237120">
        <ele>5.4</ele>
        <time>2021-05-16T08:00:54Z</time>
      </trkpt>
      <trkpt lat="41.2381980" lon="-8.7237070">
        <ele>5.4</ele>
        <time>2021-05-16T08:00:55Z</time>
      </trkpt>
      <trkpt lat="41.2381930" lon="-8.7237040">
        <ele>5.4</ele>
        <time>2021-05-16T08:00:56Z</time>
      </trkpt>
      <trkpt lat="41.2381890" lon="-8.7237070">
        <ele>5.4</ele>
        <time>2021-05-16T08:00:57Z</time>
      </trkpt>
      <trkpt lat="41.2381890" lon="-8.7237050">
        <ele>5.4</ele>
        <time>2021-05-16T08:00:58Z</time>
      </trkpt>
      <trkpt lat="41.2381920" lon="-8.7237060">
        <ele>5.4</ele>
        <time>2021-05-16T08:00:59Z</time>
      </trkpt>
      <trkpt lat="41.2382020" lon="-8.7237120">
        <ele>5.4</ele>
        <time>2021-05-16T08:01:00Z</time>
      </trkpt>
      <trkpt lat="41.2382210" lon="-8.7237230">
        <ele>5.3</ele>
        <time>2021-05-16T08:01:01Z</time>
      </trkpt>
      <trkpt lat="41.2382370" lon="-8.7237300">
        <ele>5.3</ele>
        <time>2021-05-16T08:01:02Z</time>
      </trkpt>
      <trkpt lat="41.2382510" lon="-8.7237410">
        <ele>5.3</ele>
        <time>2021-05-16T08:01:03Z</time>
      </trkpt>
      <trkpt lat="41.2382610" lon="-8.7237490">
        <ele>5.2</ele>
        <time>2021-05-16T08:01:04Z</time>
      </trkpt>
      <trkpt lat="41.2382750" lon="-8.7237660">
        <ele>5.2</ele>
        <time>2021-05-16T08:01:05Z</time>
      </trkpt>
      <trkpt lat="41.2382830" lon="-8.7237700">
        <ele>5.2</ele>
        <time>2021-05-16T08:01:06Z</time>
      </trkpt>
      <trkpt lat="41.2382920" lon="-8.7237750">
        <ele>5.2</ele>
        <time>2021-05-16T08:01:07Z</time>
      </trkpt>
      <trkpt lat="41.2383050" lon="-8.7237800">
        <ele>5.1</ele>
        <time>2021-05-16T08:01:08Z</time>
      </trkpt>
      <trkpt lat="41.2383170" lon="-8.7237900">
        <ele>5.1</ele>
        <time>2021-05-16T08:01:09Z</time>
      </trkpt>
      <trkpt lat="41.2383300" lon="-8.7237960">
        <ele>5.1</ele>
        <time>2021-05-16T08:01:10Z</time>
      </trkpt>
      <trkpt lat="41.2383460" lon="-8.7238040">
        <ele>5.0</ele>
        <time>2021-05-16T08:01:11Z</time>
      </trkpt>
      <trkpt lat="41.2383680" lon="-8.7238240">
        <ele>5.0</ele>
        <time>2021-05-16T08:01:12Z</time>
      </trkpt>
      <trkpt lat="41.2383770" lon="-8.7238310">
        <ele>5.0</ele>
        <time>2021-05-16T08:01:13Z</time>
      </trkpt>
      <trkpt lat="41.2383870" lon="-8.7238370">
        <ele>4.9</ele>
        <time>2021-05-16T08:01:14Z</time>
      </trkpt>
      <trkpt lat="41.2384010" lon="-8.7238440">
        <ele>4.9</ele>
        <time>2021-05-16T08:01:15Z</time>
      </trkpt>
      <trkpt lat="41.2384180" lon="-8.7238460">
        <ele>4.9</ele>
        <time>2021-05-16T08:01:16Z</time>
      </trkpt>
      <trkpt lat="41.2384330" lon="-8.7238560">
        <ele>4.8</ele>
        <time>2021-05-16T08:01:17Z</time>
      </trkpt>
      <trkpt lat="41.2384470" lon="-8.7238640">
        <ele>4.8</ele>
        <time>2021-05-16T08:01:18Z</time>
      </trkpt>
      <trkpt lat="41.2384620" lon="-8.7238730">
        <ele>4.8</ele>
        <time>2021-05-16T08:01:19Z</time>
      </trkpt>
      <trkpt lat="41.2384790" lon="-8.7238790">
        <ele>4.8</ele>
        <time>2021-05-16T08:01:20Z</time>
      </trkpt>
      <trkpt lat="41.2384930" lon="-8.7238870">
        <ele>4.7</ele>
        <time>2021-05-16T08:01:21Z</time>
      </trkpt>
      <trkpt lat="41.2385080" lon="-8.7238980">
        <ele>4.7</ele>
        <time>2021-05-16T08:01:22Z</time>
      </trkpt>
      <trkpt lat="41.2385220" lon="-8.7239060">
        <ele>4.7</ele>
        <time>2021-05-16T08:01:23Z</time>
      </trkpt>
      <trkpt lat="41.2385360" lon="-8.7239190">
        <ele>4.7</ele>
        <time>2021-05-16T08:01:24Z</time>
      </trkpt>
      <trkpt lat="41.2385520" lon="-8.7239230">
        <ele>4.7</ele>
        <time>2021-05-16T08:01:25Z</time>
      </trkpt>
      <trkpt lat="41.2385680" lon="-8.7239280">
        <ele>4.6</ele>
        <time>2021-05-16T08:01:26Z</time>
      </trkpt>
      <trkpt lat="41.2385820" lon="-8.7239310">
        <ele>4.6</ele>
        <time>2021-05-16T08:01:27Z</time>
      </trkpt>
      <trkpt lat="41.2385970" lon="-8.7239350">
        <ele>4.6</ele>
        <time>2021-05-16T08:01:28Z</time>
      </trkpt>
      <trkpt lat="41.2386110" lon="-8.7239370">
        <ele>4.6</ele>
        <time>2021-05-16T08:01:29Z</time>
      </trkpt>
      <trkpt lat="41.2386260" lon="-8.7239400">
        <ele>4.6</ele>
        <time>2021-05-16T08:01:30Z</time>
      </trkpt>
      <trkpt lat="41.2386400" lon="-8.7239430">
        <ele>4.6</ele>
        <time>2021-05-16T08:01:31Z</time>
      </trkpt>
      <trkpt lat="41.2386550" lon="-8.7239420">
        <ele>4.6</ele>
        <time>2021-05-16T08:01:32Z</time>
      </trkpt>
      <trkpt lat="41.2386680" lon="-8.7239430">
        <ele>4.6</ele>
        <time>2021-05-16T08:01:33Z</time>
      </trkpt>
      <trkpt lat="41.2386840" lon="-8.7239440">
        <ele>4.6</ele>
        <time>2021-05-16T08:01:34Z</time>
      </trkpt>
      <trkpt lat="41.2387000" lon="-8.7239480">
        <ele>4.6</ele>
        <time>2021-05-16T08:01:35Z</time>
      </trkpt>
      <trkpt lat="41.2387130" lon="-8.7239440">
        <ele>4.6</ele>
        <time>2021-05-16T08:01:36Z</time>
      </trkpt>
      <trkpt lat="41.2387290" lon="-8.7239390">
        <ele>4.6</ele>
        <time>2021-05-16T08:01:37Z</time>
      </trkpt>
      <trkpt lat="41.2387430" lon="-8.7239370">
        <ele>4.6</ele>
        <time>2021-05-16T08:01:38Z</time>
      </trkpt>
      <trkpt lat="41.2387580" lon="-8.7239410">
        <ele>4.6</ele>
        <time>2021-05-16T08:01:39Z</time>
      </trkpt>
      <trkpt lat="41.2387730" lon="-8.7239500">
        <ele>4.6</ele>
        <time>2021-05-16T08:01:40Z</time>
      </trkpt>
      <trkpt lat="41.2387900" lon="-8.7239550">
        <ele>4.6</ele>
        <time>2021-05-16T08:01:41Z</time>
      </trkpt>
      <trkpt lat="41.2388060" lon="-8.7239580">
        <ele>4.6</ele>
        <time>2021-05-16T08:01:42Z</time>
      </trkpt>
      <trkpt lat="41.2388220" lon="-8.7239580">
        <ele>4.6</ele>
        <time>2021-05-16T08:01:43Z</time>
      </trkpt>
      <trkpt lat="41.2388360" lon="-8.7239570">
        <ele>4.6</ele>
        <time>2021-05-16T08:01:44Z</time>
      </trkpt>
      <trkpt lat="41.2388520" lon="-8.7239620">
        <ele>4.7</ele>
        <time>2021-05-16T08:01:45Z</time>
      </trkpt>
      <trkpt lat="41.2388660" lon="-8.7239620">
        <ele>4.7</ele>
        <time>2021-05-16T08:01:46Z</time>
      </trkpt>
      <trkpt lat="41.2388810" lon="-8.7239610">
        <ele>4.7</ele>
        <time>2021-05-16T08:01:47Z</time>
      </trkpt>
      <trkpt lat="41.2388950" lon="-8.7239650">
        <ele>4.8</ele>
        <time>2021-05-16T08:01:48Z</time>
      </trkpt>
      <trkpt lat="41.2389110" lon="-8.7239700">
        <ele>4.8</ele>
        <time>2021-05-16T08:01:49Z</time>
      </trkpt>
      <trkpt lat="41.2389270" lon="-8.7239700">
        <ele>4.8</ele>
        <time>2021-05-16T08:01:50Z</time>
      </trkpt>
      <trkpt lat="41.2389440" lon="-8.7239720">
        <ele>4.8</ele>
        <time>2021-05-16T08:01:51Z</time>
      </trkpt>
      <trkpt lat="41.2389610" lon="-8.7239690">
        <ele>4.8</ele>
        <time>2021-05-16T08:01:52Z</time>
      </trkpt>
      <trkpt lat="41.2389770" lon="-8.7239730">
        <ele>4.8</ele>
        <time>2021-05-16T08:01:53Z</time>
      </trkpt>
      <trkpt lat="41.2389890" lon="-8.7239840">
        <ele>4.8</ele>
        <time>2021-05-16T08:01:54Z</time>
      </trkpt>
      <trkpt lat="41.2390040" lon="-8.7239880">
        <ele>4.8</ele>
        <time>2021-05-16T08:01:55Z</time>
      </trkpt>
      <trkpt lat="41.2390210" lon="-8.7239910">
        <ele>4.8</ele>
        <time>2021-05-16T08:01:56Z</time>
      </trkpt>
      <trkpt lat="41.2390390" lon="-8.7239920">
        <ele>4.7</ele>
        <time>2021-05-16T08:01:57Z</time>
      </trkpt>
      <trkpt lat="41.2390560" lon="-8.7239910">
        <ele>4.7</ele>
        <time>2021-05-16T08:01:58Z</time>
      </trkpt>
      <trkpt lat="41.2390720" lon="-8.7239920">
        <ele>4.7</ele>
        <time>2021-05-16T08:01:59Z</time>
      </trkpt>
      <trkpt lat="41.2390850" lon="-8.7239960">
        <ele>4.7</ele>
        <time>2021-05-16T08:02:00Z</time>
      </trkpt>
      <trkpt lat="41.2390910" lon="-8.7240120">
        <ele>4.7</ele>
        <time>2021-05-16T08:02:01Z</time>
      </trkpt>
      <trkpt lat="41.2390930" lon="-8.7240210">
        <ele>4.7</ele>
        <time>2021-05-16T08:02:02Z</time>
      </trkpt>
      <trkpt lat="41.2390940" lon="-8.7240290">
        <ele>4.7</ele>
        <time>2021-05-16T08:02:03Z</time>
      </trkpt>
      <trkpt lat="41.2390960" lon="-8.7240380">
        <ele>4.7</ele>
        <time>2021-05-16T08:02:04Z</time>
      </trkpt>
      <trkpt lat="41.2390980" lon="-8.7240460">
        <ele>4.7</ele>
        <time>2021-05-16T08:02:05Z</time>
      </trkpt>
      <trkpt lat="41.2391120" lon="-8.7240660">
        <ele>4.7</ele>
        <time>2021-05-16T08:02:06Z</time>
      </trkpt>
      <trkpt lat="41.2391180" lon="-8.7240750">
        <ele>4.7</ele>
        <time>2021-05-16T08:02:07Z</time>
      </trkpt>
      <trkpt lat="41.2391240" lon="-8.7240850">
        <ele>4.7</ele>
        <time>2021-05-16T08:02:08Z</time>
      </trkpt>
      <trkpt lat="41.2391340" lon="-8.7240980">
        <ele>4.6</ele>
        <time>2021-05-16T08:02:09Z</time>
      </trkpt>
      <trkpt lat="41.2391470" lon="-8.7241120">
        <ele>4.6</ele>
        <time>2021-05-16T08:02:10Z</time>
      </trkpt>
      <trkpt lat="41.2391560" lon="-8.7241300">
        <ele>4.6</ele>
        <time>2021-05-16T08:02:11Z</time>
      </trkpt>
      <trkpt lat="41.2391640" lon="-8.7241440">
        <ele>4.6</ele>
        <time>2021-05-16T08:02:12Z</time>
      </trkpt>
      <trkpt lat="41.2391750" lon="-8.7241620">
        <ele>4.6</ele>
        <time>2021-05-16T08:02:13Z</time>
      </trkpt>
      <trkpt lat="41.2391830" lon="-8.7241700">
        <ele>4.6</ele>
        <time>2021-05-16T08:02:14Z</time>
      </trkpt>
      <trkpt lat="41.2391900" lon="-8.7241790">
        <ele>4.6</ele>
        <time>2021-05-16T08:02:15Z</time>
      </trkpt>
      <trkpt lat="41.2391910" lon="-8.7241900">
        <ele>4.6</ele>
        <time>2021-05-16T08:02:16Z</time>
      </trkpt>
      <trkpt lat="41.2392010" lon="-8.7242020">
        <ele>4.6</ele>
        <time>2021-05-16T08:02:17Z</time>
      </trkpt>
      <trkpt lat="41.2392080" lon="-8.7242150">
        <ele>4.6</ele>
        <time>2021-05-16T08:02:18Z</time>
      </trkpt>
      <trkpt lat="41.2392050" lon="-8.7242220">
        <ele>4.6</ele>
        <time>2021-05-16T08:02:19Z</time>
      </trkpt>
      <trkpt lat="41.2391970" lon="-8.7242200">
        <ele>4.6</ele>
        <time>2021-05-16T08:02:20Z</time>
      </trkpt>
      <trkpt lat="41.2391890" lon="-8.7242170">
        <ele>4.6</ele>
        <time>2021-05-16T08:02:21Z</time>
      </trkpt>
      <trkpt lat="41.2391960" lon="-8.7242300">
        <ele>4.6</ele>
        <time>2021-05-16T08:02:22Z</time>
      </trkpt>
      <trkpt lat="41.2392040" lon="-8.7242470">
        <ele>4.5</ele>
        <time>2021-05-16T08:02:23Z</time>
      </trkpt>
      <trkpt lat="41.2392140" lon="-8.7242560">
        <ele>4.5</ele>
        <time>2021-05-16T08:02:24Z</time>
      </trkpt>
      <trkpt lat="41.2392270" lon="-8.7242730">
        <ele>4.5</ele>
        <time>2021-05-16T08:02:25Z</time>
      </trkpt>
      <trkpt lat="41.2392360" lon="-8.7242850">
        <ele>4.5</ele>
        <time>2021-05-16T08:02:26Z</time>
      </trkpt>
      <trkpt lat="41.2392500" lon="-8.7243050">
        <ele>4.5</ele>
        <time>2021-05-16T08:02:27Z</time>
      </trkpt>
      <trkpt lat="41.2392580" lon="-8.7243140">
        <ele>4.5</ele>
        <time>2021-05-16T08:02:28Z</time>
      </trkpt>
      <trkpt lat="41.2392660" lon="-8.7243220">
        <ele>4.5</ele>
        <time>2021-05-16T08:02:29Z</time>
      </trkpt>
      <trkpt lat="41.2392800" lon="-8.7243390">
        <ele>4.5</ele>
        <time>2021-05-16T08:02:30Z</time>
      </trkpt>
      <trkpt lat="41.2392880" lon="-8.7243450">
        <ele>4.6</ele>
        <time>2021-05-16T08:02:31Z</time>
      </trkpt>
      <trkpt lat="41.2392970" lon="-8.7243520">
        <ele>4.6</ele>
        <time>2021-05-16T08:02:32Z</time>
      </trkpt>
      <trkpt lat="41.2393070" lon="-8.7243610">
        <ele>4.6</ele>
        <time>2021-05-16T08:02:33Z</time>
      </trkpt>
      <trkpt lat="41.2393170" lon="-8.7243710">
        <ele>4.6</ele>
        <time>2021-05-16T08:02:34Z</time>
      </trkpt>
      <trkpt lat="41.2393220" lon="-8.7243820">
        <ele>4.7</ele>
        <time>2021-05-16T08:02:35Z</time>
      </trkpt>
      <trkpt lat="41.2393290" lon="-8.7243960">
        <ele>4.7</ele>
        <time>2021-05-16T08:02:36Z</time>
      </trkpt>
      <trkpt lat="41.2393440" lon="-8.7244110">
        <ele>4.8</ele>
        <time>2021-05-16T08:02:37Z</time>
      </trkpt>
      <trkpt lat="41.2393620" lon="-8.7244270">
        <ele>4.8</ele>
        <time>2021-05-16T08:02:38Z</time>
      </trkpt>
      <trkpt lat="41.2393670" lon="-8.7244370">
        <ele>4.8</ele>
        <time>2021-05-16T08:02:39Z</time>
      </trkpt>
      <trkpt lat="41.2393730" lon="-8.7244460">
        <ele>4.9</ele>
        <time>2021-05-16T08:02:40Z</time>
      </trkpt>
      <trkpt lat="41.2393900" lon="-8.7244670">
        <ele>4.9</ele>
        <time>2021-05-16T08:02:41Z</time>
      </trkpt>
      <trkpt lat="41.2393950" lon="-8.7244750">
        <ele>4.9</ele>
        <time>2021-05-16T08:02:42Z</time>
      </trkpt>
      <trkpt lat="41.2394000" lon="-8.7244840">
        <ele>5.0</ele>
        <time>2021-05-16T08:02:43Z</time>
      </trkpt>
      <trkpt lat="41.2394180" lon="-8.7245060">
        <ele>5.0</ele>
        <time>2021-05-16T08:02:44Z</time>
      </trkpt>
      <trkpt lat="41.2394230" lon="-8.7245140">
        <ele>5.1</ele>
        <time>2021-05-16T08:02:45Z</time>
      </trkpt>
      <trkpt lat="41.2394290" lon="-8.7245220">
        <ele>5.0</ele>
        <time>2021-05-16T08:02:46Z</time>
      </trkpt>
      <trkpt lat="41.2394380" lon="-8.7245320">
        <ele>5.1</ele>
        <time>2021-05-16T08:02:47Z</time>
      </trkpt>
      <trkpt lat="41.2394510" lon="-8.7245450">
        <ele>5.2</ele>
        <time>2021-05-16T08:02:48Z</time>
      </trkpt>
      <trkpt lat="41.2394580" lon="-8.7245580">
        <ele>5.2</ele>
        <time>2021-05-16T08:02:49Z</time>
      </trkpt>
      <trkpt lat="41.2394620" lon="-8.7245650">
        <ele>5.2</ele>
        <time>2021-05-16T08:02:50Z</time>
      </trkpt>
      <trkpt lat="41.2394730" lon="-8.7245800">
        <ele>5.2</ele>
        <time>2021-05-16T08:02:51Z</time>
      </trkpt>
      <trkpt lat="41.2394840" lon="-8.7245970">
        <ele>5.3</ele>
        <time>2021-05-16T08:02:52Z</time>
      </trkpt>
      <trkpt lat="41.2394920" lon="-8.7246090">
        <ele>5.2</ele>
        <time>2021-05-16T08:02:53Z</time>
      </trkpt>
      <trkpt lat="41.2394960" lon="-8.7246220">
        <ele>5.2</ele>
        <time>2021-05-16T08:02:54Z</time>
      </trkpt>
      <trkpt lat="41.2395070" lon="-8.7246360">
        <ele>5.3</ele>
        <time>2021-05-16T08:02:55Z</time>
      </trkpt>
      <trkpt lat="41.2395160" lon="-8.7246410">
        <ele>5.4</ele>
        <time>2021-05-16T08:02:56Z</time>
      </trkpt>
      <trkpt lat="41.2395370" lon="-8.7246520">
        <ele>5.3</ele>
        <time>2021-05-16T08:02:57Z</time>
      </trkpt>
      <trkpt lat="41.2395440" lon="-8.7246550">
        <ele>5.3</ele>
        <time>2021-05-16T08:02:58Z</time>
      </trkpt>
      <trkpt lat="41.2395520" lon="-8.7246590">
        <ele>5.4</ele>
        <time>2021-05-16T08:02:59Z</time>
      </trkpt>
      <trkpt lat="41.2395690" lon="-8.7246680">
        <ele>5.4</ele>
        <time>2021-05-16T08:03:00Z</time>
      </trkpt>
      <trkpt lat="41.2395850" lon="-8.7246770">
        <ele>5.5</ele>
        <time>2021-05-16T08:03:01Z</time>
      </trkpt>
      <trkpt lat="41.2396000" lon="-8.7246800">
        <ele>5.5</ele>
        <time>2021-05-16T08:03:02Z</time>
      </trkpt>
      <trkpt lat="41.2396130" lon="-8.7246850">
        <ele>5.6</ele>
        <time>2021-05-16T08:03:03Z</time>
      </trkpt>
      <trkpt lat="41.2396310" lon="-8.7246980">
        <ele>5.5</ele>
        <time>2021-05-16T08:03:04Z</time>
      </trkpt>
      <trkpt lat="41.2396390" lon="-8.7247020">
        <ele>5.6</ele>
        <time>2021-05-16T08:03:05Z</time>
      </trkpt>
      <trkpt lat="41.2396460" lon="-8.7247060">
        <ele>5.6</ele>
        <time>2021-05-16T08:03:06Z</time>
      </trkpt>
      <trkpt lat="41.2396650" lon="-8.7247140">
        <ele>5.7</ele>
        <time>2021-05-16T08:03:07Z</time>
      </trkpt>
      <trkpt lat="41.2396750" lon="-8.7247180">
        <ele>5.7</ele>
        <time>2021-05-16T08:03:08Z</time>
      </trkpt>
      <trkpt lat="41.2396850" lon="-8.7247210">
        <ele>5.8</ele>
        <time>2021-05-16T08:03:09Z</time>
      </trkpt>
      <trkpt lat="41.2396920" lon="-8.7247240">
        <ele>5.8</ele>
        <time>2021-05-16T08:03:10Z</time>
      </trkpt>
      <trkpt lat="41.2397020" lon="-8.7247330">
        <ele>5.7</ele>
        <time>2021-05-16T08:03:11Z</time>
      </trkpt>
      <trkpt lat="41.2397180" lon="-8.7247360">
        <ele>5.8</ele>
        <time>2021-05-16T08:03:12Z</time>
      </trkpt>
      <trkpt lat="41.2397410" lon="-8.7247480">
        <ele>5.9</ele>
        <time>2021-05-16T08:03:13Z</time>
      </trkpt>
      <trkpt lat="41.2397500" lon="-8.7247500">
        <ele>5.9</ele>
        <time>2021-05-16T08:03:14Z</time>
      </trkpt>
      <trkpt lat="41.2397580" lon="-8.7247530">
        <ele>6.0</ele>
        <time>2021-05-16T08:03:15Z</time>
      </trkpt>
      <trkpt lat="41.2397810" lon="-8.7247580">
        <ele>6.0</ele>
        <time>2021-05-16T08:03:16Z</time>
      </trkpt>
      <trkpt lat="41.2397890" lon="-8.7247620">
        <ele>6.1</ele>
        <time>2021-05-16T08:03:17Z</time>
      </trkpt>
      <trkpt lat="41.2397960" lon="-8.7247650">
        <ele>6.1</ele>
        <time>2021-05-16T08:03:18Z</time>
      </trkpt>
      <trkpt lat="41.2398060" lon="-8.7247720">
        <ele>6.2</ele>
        <time>2021-05-16T08:03:19Z</time>
      </trkpt>
      <trkpt lat="41.2398200" lon="-8.7247840">
        <ele>6.1</ele>
        <time>2021-05-16T08:03:20Z</time>
      </trkpt>
      <trkpt lat="41.2398390" lon="-8.7248000">
        <ele>6.1</ele>
        <time>2021-05-16T08:03:21Z</time>
      </trkpt>
      <trkpt lat="41.2398490" lon="-8.7248040">
        <ele>6.2</ele>
        <time>2021-05-16T08:03:22Z</time>
      </trkpt>
      <trkpt lat="41.2398580" lon="-8.7248090">
        <ele>6.2</ele>
        <time>2021-05-16T08:03:23Z</time>
      </trkpt>
      <trkpt lat="41.2398790" lon="-8.7248220">
        <ele>6.1</ele>
        <time>2021-05-16T08:03:24Z</time>
      </trkpt>
      <trkpt lat="41.2398860" lon="-8.7248270">
        <ele>6.1</ele>
        <time>2021-05-16T08:03:25Z</time>
      </trkpt>
      <trkpt lat="41.2398940" lon="-8.7248310">
        <ele>6.2</ele>
        <time>2021-05-16T08:03:26Z</time>
      </trkpt>
      <trkpt lat="41.2399140" lon="-8.7248430">
        <ele>6.2</ele>
        <time>2021-05-16T08:03:27Z</time>
      </trkpt>
      <trkpt lat="41.2399210" lon="-8.7248470">
        <ele>6.3</ele>
        <time>2021-05-16T08:03:28Z</time>
      </trkpt>
      <trkpt lat="41.2399270" lon="-8.7248520">
        <ele>6.3</ele>
        <time>2021-05-16T08:03:29Z</time>
      </trkpt>
      <trkpt lat="41.2399540" lon="-8.7248750">
        <ele>6.2</ele>
        <time>2021-05-16T08:03:30Z</time>
      </trkpt>
      <trkpt lat="41.2399610" lon="-8.7248830">
        <ele>6.2</ele>
        <time>2021-05-16T08:03:31Z</time>
      </trkpt>
      <trkpt lat="41.2399820" lon="-8.7248930">
        <ele>6.3</ele>
        <time>2021-05-16T08:03:32Z</time>
      </trkpt>
      <trkpt lat="41.2399920" lon="-8.7249040">
        <ele>6.3</ele>
        <time>2021-05-16T08:03:33Z</time>
      </trkpt>
      <trkpt lat="41.2400010" lon="-8.7249040">
        <ele>6.4</ele>
        <time>2021-05-16T08:03:34Z</time>
      </trkpt>
      <trkpt lat="41.2400170" lon="-8.7249200">
        <ele>6.2</ele>
        <time>2021-05-16T08:03:35Z</time>
      </trkpt>
      <trkpt lat="41.2400310" lon="-8.7249380">
        <ele>6.3</ele>
        <time>2021-05-16T08:03:36Z</time>
      </trkpt>
      <trkpt lat="41.2400370" lon="-8.7249490">
        <ele>6.1</ele>
        <time>2021-05-16T08:03:37Z</time>
      </trkpt>
      <trkpt lat="41.2400430" lon="-8.7249600">
        <ele>6.2</ele>
        <time>2021-05-16T08:03:38Z</time>
      </trkpt>
      <trkpt lat="41.2400550" lon="-8.7249730">
        <ele>6.2</ele>
        <time>2021-05-16T08:03:39Z</time>
      </trkpt>
      <trkpt lat="41.2400650" lon="-8.7249800">
        <ele>6.3</ele>
        <time>2021-05-16T08:03:40Z</time>
      </trkpt>
      <trkpt lat="41.2400740" lon="-8.7249860">
        <ele>6.3</ele>
        <time>2021-05-16T08:03:41Z</time>
      </trkpt>
      <trkpt lat="41.2400820" lon="-8.7250020">
        <ele>6.1</ele>
        <time>2021-05-16T08:03:42Z</time>
      </trkpt>
      <trkpt lat="41.2400920" lon="-8.7250090">
        <ele>6.2</ele>
        <time>2021-05-16T08:03:43Z</time>
      </trkpt>
      <trkpt lat="41.2401050" lon="-8.7250220">
        <ele>6.2</ele>
        <time>2021-05-16T08:03:44Z</time>
      </trkpt>
      <trkpt lat="41.2401120" lon="-8.7250350">
        <ele>6.0</ele>
        <time>2021-05-16T08:03:45Z</time>
      </trkpt>
      <trkpt lat="41.2401250" lon="-8.7250510">
        <ele>6.0</ele>
        <time>2021-05-16T08:03:46Z</time>
      </trkpt>
      <trkpt lat="41.2401350" lon="-8.7250620">
        <ele>6.1</ele>
        <time>2021-05-16T08:03:47Z</time>
      </trkpt>
      <trkpt lat="41.2401400" lon="-8.7250740">
        <ele>6.2</ele>
        <time>2021-05-16T08:03:48Z</time>
      </trkpt>
      <trkpt lat="41.2401540" lon="-8.7250790">
        <ele>6.0</ele>
        <time>2021-05-16T08:03:49Z</time>
      </trkpt>
      <trkpt lat="41.2401590" lon="-8.7250830">
        <ele>6.1</ele>
        <time>2021-05-16T08:03:50Z</time>
      </trkpt>
      <trkpt lat="41.2401770" lon="-8.7251040">
        <ele>6.1</ele>
        <time>2021-05-16T08:03:51Z</time>
      </trkpt>
      <trkpt lat="41.2401850" lon="-8.7251140">
        <ele>6.1</ele>
        <time>2021-05-16T08:03:52Z</time>
      </trkpt>
      <trkpt lat="41.2401920" lon="-8.7251240">
        <ele>6.0</ele>
        <time>2021-05-16T08:03:53Z</time>
      </trkpt>
      <trkpt lat="41.2402070" lon="-8.7251380">
        <ele>6.0</ele>
        <time>2021-05-16T08:03:54Z</time>
      </trkpt>
      <trkpt lat="41.2402200" lon="-8.7251500">
        <ele>6.1</ele>
        <time>2021-05-16T08:03:55Z</time>
      </trkpt>
      <trkpt lat="41.2402350" lon="-8.7251610">
        <ele>6.2</ele>
        <time>2021-05-16T08:03:56Z</time>
      </trkpt>
      <trkpt lat="41.2402470" lon="-8.7251720">
        <ele>6.0</ele>
        <time>2021-05-16T08:03:57Z</time>
      </trkpt>
      <trkpt lat="41.2402590" lon="-8.7251820">
        <ele>6.1</ele>
        <time>2021-05-16T08:03:58Z</time>
      </trkpt>
      <trkpt lat="41.2402710" lon="-8.7251930">
        <ele>6.2</ele>
        <time>2021-05-16T08:03:59Z</time>
      </trkpt>
      <trkpt lat="41.2402880" lon="-8.7252100">
        <ele>6.1</ele>
        <time>2021-05-16T08:04:00Z</time>
      </trkpt>
      <trkpt lat="41.2402960" lon="-8.7252170">
        <ele>6.1</ele>
        <time>2021-05-16T08:04:01Z</time>
      </trkpt>
      <trkpt lat="41.2403030" lon="-8.7252250">
        <ele>6.2</ele>
        <time>2021-05-16T08:04:02Z</time>
      </trkpt>
      <trkpt lat="41.2403070" lon="-8.7252270">
        <ele>6.2</ele>
        <time>2021-05-16T08:04:03Z</time>
      </trkpt>
      <trkpt lat="41.2403230" lon="-8.7252350">
        <ele>6.3</ele>
        <time>2021-05-16T08:04:04Z</time>
      </trkpt>
      <trkpt lat="41.2403360" lon="-8.7252410">
        <ele>6.4</ele>
        <time>2021-05-16T08:04:05Z</time>
      </trkpt>
      <trkpt lat="41.2403490" lon="-8.7252490">
        <ele>6.2</ele>
        <time>2021-05-16T08:04:06Z</time>
      </trkpt>
      <trkpt lat="41.2403610" lon="-8.7252580">
        <ele>6.3</ele>
        <time>2021-05-16T08:04:07Z</time>
      </trkpt>
      <trkpt lat="41.2403790" lon="-8.7252760">
        <ele>6.3</ele>
        <time>2021-05-16T08:04:08Z</time>
      </trkpt>
      <trkpt lat="41.2403880" lon="-8.7252830">
        <ele>6.5</ele>
        <time>2021-05-16T08:04:09Z</time>
      </trkpt>
      <trkpt lat="41.2403980" lon="-8.7252910">
        <ele>6.3</ele>
        <time>2021-05-16T08:04:10Z</time>
      </trkpt>
      <trkpt lat="41.2404190" lon="-8.7253030">
        <ele>6.4</ele>
        <time>2021-05-16T08:04:11Z</time>
      </trkpt>
      <trkpt lat="41.2404290" lon="-8.7253080">
        <ele>6.5</ele>
        <time>2021-05-16T08:04:12Z</time>
      </trkpt>
      <trkpt lat="41.2404400" lon="-8.7253140">
        <ele>6.5</ele>
        <time>2021-05-16T08:04:13Z</time>
      </trkpt>
      <trkpt lat="41.2404510" lon="-8.7253260">
        <ele>6.6</ele>
        <time>2021-05-16T08:04:14Z</time>
      </trkpt>
      <trkpt lat="41.2404590" lon="-8.7253450">
        <ele>6.5</ele>
        <time>2021-05-16T08:04:15Z</time>
      </trkpt>
      <trkpt lat="41.2404740" lon="-8.7253600">
        <ele>6.5</ele>
        <time>2021-05-16T08:04:16Z</time>
      </trkpt>
      <trkpt lat="41.2404830" lon="-8.7253770">
        <ele>6.4</ele>
        <time>2021-05-16T08:04:17Z</time>
      </trkpt>
      <trkpt lat="41.2405020" lon="-8.7254070">
        <ele>6.5</ele>
        <time>2021-05-16T08:04:18Z</time>
      </trkpt>
      <trkpt lat="41.2405070" lon="-8.7254170">
        <ele>6.5</ele>
        <time>2021-05-16T08:04:19Z</time>
      </trkpt>
      <trkpt lat="41.2405190" lon="-8.7254300">
        <ele>6.4</ele>
        <time>2021-05-16T08:04:20Z</time>
      </trkpt>
      <trkpt lat="41.2405330" lon="-8.7254430">
        <ele>6.5</ele>
        <time>2021-05-16T08:04:21Z</time>
      </trkpt>
      <trkpt lat="41.2405420" lon="-8.7254620">
        <ele>6.3</ele>
        <time>2021-05-16T08:04:22Z</time>
      </trkpt>
      <trkpt lat="41.2405530" lon="-8.7254770">
        <ele>6.4</ele>
        <time>2021-05-16T08:04:23Z</time>
      </trkpt>
      <trkpt lat="41.2405660" lon="-8.7254920">
        <ele>6.5</ele>
        <time>2021-05-16T08:04:24Z</time>
      </trkpt>
      <trkpt lat="41.2405760" lon="-8.7255110">
        <ele>6.5</ele>
        <time>2021-05-16T08:04:25Z</time>
      </trkpt>
      <trkpt lat="41.2405890" lon="-8.7255230">
        <ele>6.6</ele>
        <time>2021-05-16T08:04:26Z</time>
      </trkpt>
      <trkpt lat="41.2405980" lon="-8.7255360">
        <ele>6.6</ele>
        <time>2021-05-16T08:04:27Z</time>
      </trkpt>
      <trkpt lat="41.2406110" lon="-8.7255500">
        <ele>6.6</ele>
        <time>2021-05-16T08:04:28Z</time>
      </trkpt>
      <trkpt lat="41.2406210" lon="-8.7255630">
        <ele>6.6</ele>
        <time>2021-05-16T08:04:29Z</time>
      </trkpt>
      <trkpt lat="41.2406310" lon="-8.7255850">
        <ele>6.5</ele>
        <time>2021-05-16T08:04:30Z</time>
      </trkpt>
      <trkpt lat="41.2406370" lon="-8.7256040">
        <ele>6.5</ele>
        <time>2021-05-16T08:04:31Z</time>
      </trkpt>
      <trkpt lat="41.2406480" lon="-8.7256180">
        <ele>6.5</ele>
        <time>2021-05-16T08:04:32Z</time>
      </trkpt>
      <trkpt lat="41.2406560" lon="-8.7256340">
        <ele>6.5</ele>
        <time>2021-05-16T08:04:33Z</time>
      </trkpt>
      <trkpt lat="41.2406620" lon="-8.7256530">
        <ele>6.4</ele>
        <time>2021-05-16T08:04:34Z</time>
      </trkpt>
      <trkpt lat="41.2406660" lon="-8.7256730">
        <ele>6.4</ele>
        <time>2021-05-16T08:04:35Z</time>
      </trkpt>
      <trkpt lat="41.2406740" lon="-8.7256880">
        <ele>6.4</ele>
        <time>2021-05-16T08:04:36Z</time>
      </trkpt>
      <trkpt lat="41.2406830" lon="-8.7257040">
        <ele>6.4</ele>
        <time>2021-05-16T08:04:37Z</time>
      </trkpt>
      <trkpt lat="41.2407020" lon="-8.7257110">
        <ele>6.4</ele>
        <time>2021-05-16T08:04:38Z</time>
      </trkpt>
      <trkpt lat="41.2407110" lon="-8.7257100">
        <ele>6.3</ele>
        <time>2021-05-16T08:04:39Z</time>
      </trkpt>
      <trkpt lat="41.2407200" lon="-8.7257090">
        <ele>6.3</ele>
        <time>2021-05-16T08:04:40Z</time>
      </trkpt>
      <trkpt lat="41.2407400" lon="-8.7257080">
        <ele>6.3</ele>
        <time>2021-05-16T08:04:41Z</time>
      </trkpt>
      <trkpt lat="41.2407470" lon="-8.7257080">
        <ele>6.3</ele>
        <time>2021-05-16T08:04:42Z</time>
      </trkpt>
      <trkpt lat="41.2407540" lon="-8.7257080">
        <ele>6.3</ele>
        <time>2021-05-16T08:04:43Z</time>
      </trkpt>
      <trkpt lat="41.2407620" lon="-8.7257080">
        <ele>6.3</ele>
        <time>2021-05-16T08:04:44Z</time>
      </trkpt>
      <trkpt lat="41.2407860" lon="-8.7257110">
        <ele>6.2</ele>
        <time>2021-05-16T08:04:45Z</time>
      </trkpt>
      <trkpt lat="41.2407950" lon="-8.7257100">
        <ele>6.2</ele>
        <time>2021-05-16T08:04:46Z</time>
      </trkpt>
      <trkpt lat="41.2408050" lon="-8.7257090">
        <ele>6.2</ele>
        <time>2021-05-16T08:04:47Z</time>
      </trkpt>
      <trkpt lat="41.2408350" lon="-8.7257160">
        <ele>6.2</ele>
        <time>2021-05-16T08:04:48Z</time>
      </trkpt>
      <trkpt lat="41.2408440" lon="-8.7257140">
        <ele>6.2</ele>
        <time>2021-05-16T08:04:49Z</time>
      </trkpt>
      <trkpt lat="41.2408600" lon="-8.7257200">
        <ele>6.1</ele>
        <time>2021-05-16T08:04:50Z</time>
      </trkpt>
      <trkpt lat="41.2408730" lon="-8.7257300">
        <ele>6.1</ele>
        <time>2021-05-16T08:04:51Z</time>
      </trkpt>
      <trkpt lat="41.2408900" lon="-8.7257380">
        <ele>6.1</ele>
        <time>2021-05-16T08:04:52Z</time>
      </trkpt>
      <trkpt lat="41.2409050" lon="-8.7257440">
        <ele>6.1</ele>
        <time>2021-05-16T08:04:53Z</time>
      </trkpt>
      <trkpt lat="41.2409220" lon="-8.7257480">
        <ele>6.0</ele>
        <time>2021-05-16T08:04:54Z</time>
      </trkpt>
      <trkpt lat="41.2409360" lon="-8.7257530">
        <ele>6.0</ele>
        <time>2021-05-16T08:04:55Z</time>
      </trkpt>
      <trkpt lat="41.2409520" lon="-8.7257620">
        <ele>6.0</ele>
        <time>2021-05-16T08:04:56Z</time>
      </trkpt>
      <trkpt lat="41.2409650" lon="-8.7257640">
        <ele>5.9</ele>
        <time>2021-05-16T08:04:57Z</time>
      </trkpt>
      <trkpt lat="41.2409800" lon="-8.7257690">
        <ele>5.9</ele>
        <time>2021-05-16T08:04:58Z</time>
      </trkpt>
      <trkpt lat="41.2409970" lon="-8.7257700">
        <ele>5.9</ele>
        <time>2021-05-16T08:04:59Z</time>
      </trkpt>
      <trkpt lat="41.2410110" lon="-8.7257750">
        <ele>5.9</ele>
        <time>2021-05-16T08:05:00Z</time>
      </trkpt>
      <trkpt lat="41.2410270" lon="-8.7257790">
        <ele>5.8</ele>
        <time>2021-05-16T08:05:01Z</time>
      </trkpt>
      <trkpt lat="41.2410440" lon="-8.7257780">
        <ele>5.8</ele>
        <time>2021-05-16T08:05:02Z</time>
      </trkpt>
      <trkpt lat="41.2410610" lon="-8.7257830">
        <ele>5.8</ele>
        <time>2021-05-16T08:05:03Z</time>
      </trkpt>
      <trkpt lat="41.2410810" lon="-8.7257840">
        <ele>5.8</ele>
        <time>2021-05-16T08:05:04Z</time>
      </trkpt>
      <trkpt lat="41.2410970" lon="-8.7257880">
        <ele>5.7</ele>
        <time>2021-05-16T08:05:05Z</time>
      </trkpt>
      <trkpt lat="41.2411210" lon="-8.7257930">
        <ele>5.7</ele>
        <time>2021-05-16T08:05:06Z</time>
      </trkpt>
      <trkpt lat="41.2411300" lon="-8.7257950">
        <ele>5.7</ele>
        <time>2021-05-16T08:05:07Z</time>
      </trkpt>
      <trkpt lat="41.2411390" lon="-8.7257960">
        <ele>5.7</ele>
        <time>2021-05-16T08:05:08Z</time>
      </trkpt>
      <trkpt lat="41.2411530" lon="-8.7258050">
        <ele>5.6</ele>
        <time>2021-05-16T08:05:09Z</time>
      </trkpt>
      <trkpt lat="41.2411680" lon="-8.7258120">
        <ele>5.6</ele>
        <time>2021-05-16T08:05:10Z</time>
      </trkpt>
      <trkpt lat="41.2411830" lon="-8.7258210">
        <ele>5.6</ele>
        <time>2021-05-16T08:05:11Z</time>
      </trkpt>
      <trkpt lat="41.2411990" lon="-8.7258220">
        <ele>5.6</ele>
        <time>2021-05-16T08:05:12Z</time>
      </trkpt>
      <trkpt lat="41.2412150" lon="-8.7258220">
        <ele>5.5</ele>
        <time>2021-05-16T08:05:13Z</time>
      </trkpt>
      <trkpt lat="41.2412280" lon="-8.7258330">
        <ele>5.5</ele>
        <time>2021-05-16T08:05:14Z</time>
      </trkpt>
      <trkpt lat="41.2412430" lon="-8.7258340">
        <ele>5.5</ele>
        <time>2021-05-16T08:05:15Z</time>
      </trkpt>
      <trkpt lat="41.2412560" lon="-8.7258420">
        <ele>5.5</ele>
        <time>2021-05-16T08:05:16Z</time>
      </trkpt>
      <trkpt lat="41.2412680" lon="-8.7258520">
        <ele>5.4</ele>
        <time>2021-05-16T08:05:17Z</time>
      </trkpt>
      <trkpt lat="41.2412820" lon="-8.7258550">
        <ele>5.4</ele>
        <time>2021-05-16T08:05:18Z</time>
      </trkpt>
      <trkpt lat="41.2412980" lon="-8.7258590">
        <ele>5.4</ele>
        <time>2021-05-16T08:05:19Z</time>
      </trkpt>
      <trkpt lat="41.2413140" lon="-8.7258570">
        <ele>5.4</ele>
        <time>2021-05-16T08:05:20Z</time>
      </trkpt>
      <trkpt lat="41.2413350" lon="-8.7258610">
        <ele>5.3</ele>
        <time>2021-05-16T08:05:21Z</time>
      </trkpt>
      <trkpt lat="41.2413430" lon="-8.7258640">
        <ele>5.3</ele>
        <time>2021-05-16T08:05:22Z</time>
      </trkpt>
      <trkpt lat="41.2413520" lon="-8.7258660">
        <ele>5.3</ele>
        <time>2021-05-16T08:05:23Z</time>
      </trkpt>
      <trkpt lat="41.2413630" lon="-8.7258680">
        <ele>5.3</ele>
        <time>2021-05-16T08:05:24Z</time>
      </trkpt>
      <trkpt lat="41.2413760" lon="-8.7258690">
        <ele>5.3</ele>
        <time>2021-05-16T08:05:25Z</time>
      </trkpt>
      <trkpt lat="41.2413880" lon="-8.7258710">
        <ele>5.3</ele>
        <time>2021-05-16T08:05:26Z</time>
      </trkpt>
      <trkpt lat="41.2413990" lon="-8.7258760">
        <ele>5.3</ele>
        <time>2021-05-16T08:05:27Z</time>
      </trkpt>
      <trkpt lat="41.2414110" lon="-8.7258800">
        <ele>5.3</ele>
        <time>2021-05-16T08:05:28Z</time>
      </trkpt>
      <trkpt lat="41.2414220" lon="-8.7258810">
        <ele>5.3</ele>
        <time>2021-05-16T08:05:29Z</time>
      </trkpt>
      <trkpt lat="41.2414430" lon="-8.7258900">
        <ele>5.2</ele>
        <time>2021-05-16T08:05:30Z</time>
      </trkpt>
      <trkpt lat="41.2414520" lon="-8.7258950">
        <ele>5.2</ele>
        <time>2021-05-16T08:05:31Z</time>
      </trkpt>
      <trkpt lat="41.2414610" lon="-8.7258990">
        <ele>5.2</ele>
        <time>2021-05-16T08:05:32Z</time>
      </trkpt>
      <trkpt lat="41.2414820" lon="-8.7259070">
        <ele>5.2</ele>
        <time>2021-05-16T08:05:33Z</time>
      </trkpt>
      <trkpt lat="41.2414910" lon="-8.7259090">
        <ele>5.2</ele>
        <time>2021-05-16T08:05:34Z</time>
      </trkpt>
      <trkpt lat="41.2415000" lon="-8.7259120">
        <ele>5.2</ele>
        <time>2021-05-16T08:05:35Z</time>
      </trkpt>
      <trkpt lat="41.2415210" lon="-8.7259170">
        <ele>5.2</ele>
        <time>2021-05-16T08:05:36Z</time>
      </trkpt>
      <trkpt lat="41.2415300" lon="-8.7259210">
        <ele>5.2</ele>
        <time>2021-05-16T08:05:37Z</time>
      </trkpt>
      <trkpt lat="41.2415380" lon="-8.7259240">
        <ele>5.2</ele>
        <time>2021-05-16T08:05:38Z</time>
      </trkpt>
      <trkpt lat="41.2415510" lon="-8.7259320">
        <ele>5.2</ele>
        <time>2021-05-16T08:05:39Z</time>
      </trkpt>
      <trkpt lat="41.2415660" lon="-8.7259360">
        <ele>5.2</ele>
        <time>2021-05-16T08:05:40Z</time>
      </trkpt>
      <trkpt lat="41.2415820" lon="-8.7259400">
        <ele>5.1</ele>
        <time>2021-05-16T08:05:41Z</time>
      </trkpt>
      <trkpt lat="41.2415950" lon="-8.7259490">
        <ele>5.1</ele>
        <time>2021-05-16T08:05:42Z</time>
      </trkpt>
      <trkpt lat="41.2416100" lon="-8.7259510">
        <ele>5.1</ele>
        <time>2021-05-16T08:05:43Z</time>
      </trkpt>
      <trkpt lat="41.2416240" lon="-8.7259570">
        <ele>5.1</ele>
        <time>2021-05-16T08:05:44Z</time>
      </trkpt>
      <trkpt lat="41.2416390" lon="-8.7259650">
        <ele>5.1</ele>
        <time>2021-05-16T08:05:45Z</time>
      </trkpt>
      <trkpt lat="41.2416540" lon="-8.7259690">
        <ele>5.1</ele>
        <time>2021-05-16T08:05:46Z</time>
      </trkpt>
      <trkpt lat="41.2416660" lon="-8.7259790">
        <ele>5.1</ele>
        <time>2021-05-16T08:05:47Z</time>
      </trkpt>
      <trkpt lat="41.2416800" lon="-8.7259890">
        <ele>5.1</ele>
        <time>2021-05-16T08:05:48Z</time>
      </trkpt>
      <trkpt lat="41.2416960" lon="-8.7259950">
        <ele>5.1</ele>
        <time>2021-05-16T08:05:49Z</time>
      </trkpt>
      <trkpt lat="41.2417090" lon="-8.7259960">
        <ele>5.1</ele>
        <time>2021-05-16T08:05:50Z</time>
      </trkpt>
      <trkpt lat="41.2417230" lon="-8.7260030">
        <ele>5.1</ele>
        <time>2021-05-16T08:05:51Z</time>
      </trkpt>
      <trkpt lat="41.2417390" lon="-8.7260100">
        <ele>5.1</ele>
        <time>2021-05-16T08:05:52Z</time>
      </trkpt>
      <trkpt lat="41.2417490" lon="-8.7260160">
        <ele>5.0</ele>
        <time>2021-05-16T08:05:53Z</time>
      </trkpt>
      <trkpt lat="41.2417640" lon="-8.7260250">
        <ele>5.0</ele>
        <time>2021-05-16T08:05:54Z</time>
      </trkpt>
      <trkpt lat="41.2417830" lon="-8.7260400">
        <ele>5.0</ele>
        <time>2021-05-16T08:05:55Z</time>
      </trkpt>
      <trkpt lat="41.2417920" lon="-8.7260420">
        <ele>5.0</ele>
        <time>2021-05-16T08:05:56Z</time>
      </trkpt>
      <trkpt lat="41.2418020" lon="-8.7260440">
        <ele>5.0</ele>
        <time>2021-05-16T08:05:57Z</time>
      </trkpt>
      <trkpt lat="41.2418140" lon="-8.7260500">
        <ele>5.0</ele>
        <time>2021-05-16T08:05:58Z</time>
      </trkpt>
      <trkpt lat="41.2418300" lon="-8.7260620">
        <ele>5.0</ele>
        <time>2021-05-16T08:05:59Z</time>
      </trkpt>
      <trkpt lat="41.2418440" lon="-8.7260650">
        <ele>5.0</ele>
        <time>2021-05-16T08:06:00Z</time>
      </trkpt>
      <trkpt lat="41.2418580" lon="-8.7260810">
        <ele>5.0</ele>
        <time>2021-05-16T08:06:01Z</time>
      </trkpt>
      <trkpt lat="41.2418730" lon="-8.7260810">
        <ele>5.0</ele>
        <time>2021-05-16T08:06:02Z</time>
      </trkpt>
      <trkpt lat="41.2418860" lon="-8.7260930">
        <ele>5.0</ele>
        <time>2021-05-16T08:06:03Z</time>
      </trkpt>
      <trkpt lat="41.2419030" lon="-8.7260950">
        <ele>5.0</ele>
        <time>2021-05-16T08:06:04Z</time>
      </trkpt>
      <trkpt lat="41.2419160" lon="-8.7261060">
        <ele>5.0</ele>
        <time>2021-05-16T08:06:05Z</time>
      </trkpt>
      <trkpt lat="41.2419380" lon="-8.7261140">
        <ele>5.0</ele>
        <time>2021-05-16T08:06:06Z</time>
      </trkpt>
      <trkpt lat="41.2419480" lon="-8.7261120">
        <ele>5.0</ele>
        <time>2021-05-16T08:06:07Z</time>
      </trkpt>
      <trkpt lat="41.2419580" lon="-8.7261110">
        <ele>5.0</ele>
        <time>2021-05-16T08:06:08Z</time>
      </trkpt>
      <trkpt lat="41.2419740" lon="-8.7261160">
        <ele>5.0</ele>
        <time>2021-05-16T08:06:09Z</time>
      </trkpt>
      <trkpt lat="41.2419870" lon="-8.7261300">
        <ele>5.0</ele>
        <time>2021-05-16T08:06:10Z</time>
      </trkpt>
      <trkpt lat="41.2420000" lon="-8.7261420">
        <ele>5.0</ele>
        <time>2021-05-16T08:06:11Z</time>
      </trkpt>
      <trkpt lat="41.2420170" lon="-8.7261380">
        <ele>5.0</ele>
        <time>2021-05-16T08:06:12Z</time>
      </trkpt>
      <trkpt lat="41.2420290" lon="-8.7261480">
        <ele>5.0</ele>
        <time>2021-05-16T08:06:13Z</time>
      </trkpt>
      <trkpt lat="41.2420420" lon="-8.7261590">
        <ele>5.0</ele>
        <time>2021-05-16T08:06:14Z</time>
      </trkpt>
      <trkpt lat="41.2420580" lon="-8.7261630">
        <ele>5.0</ele>
        <time>2021-05-16T08:06:15Z</time>
      </trkpt>
      <trkpt lat="41.2420720" lon="-8.7261730">
        <ele>5.0</ele>
        <time>2021-05-16T08:06:16Z</time>
      </trkpt>
      <trkpt lat="41.2420840" lon="-8.7261760">
        <ele>5.0</ele>
        <time>2021-05-16T08:06:17Z</time>
      </trkpt>
      <trkpt lat="41.2421010" lon="-8.7261810">
        <ele>5.0</ele>
        <time>2021-05-16T08:06:18Z</time>
      </trkpt>
      <trkpt lat="41.2421120" lon="-8.7261910">
        <ele>5.0</ele>
        <time>2021-05-16T08:06:19Z</time>
      </trkpt>
      <trkpt lat="41.2421280" lon="-8.7262010">
        <ele>5.0</ele>
        <time>2021-05-16T08:06:20Z</time>
      </trkpt>
      <trkpt lat="41.2421440" lon="-8.7262080">
        <ele>5.0</ele>
        <time>2021-05-16T08:06:21Z</time>
      </trkpt>
      <trkpt lat="41.2421610" lon="-8.7262140">
        <ele>5.0</ele>
        <time>2021-05-16T08:06:22Z</time>
      </trkpt>
      <trkpt lat="41.2421750" lon="-8.7262160">
        <ele>5.0</ele>
        <time>2021-05-16T08:06:23Z</time>
      </trkpt>
      <trkpt lat="41.2421890" lon="-8.7262220">
        <ele>5.0</ele>
        <time>2021-05-16T08:06:24Z</time>
      </trkpt>
      <trkpt lat="41.2422020" lon="-8.7262240">
        <ele>5.0</ele>
        <time>2021-05-16T08:06:25Z</time>
      </trkpt>
      <trkpt lat="41.2422140" lon="-8.7262360">
        <ele>5.0</ele>
        <time>2021-05-16T08:06:26Z</time>
      </trkpt>
      <trkpt lat="41.2422290" lon="-8.7262460">
        <ele>5.0</ele>
        <time>2021-05-16T08:06:27Z</time>
      </trkpt>
      <trkpt lat="41.2422440" lon="-8.7262480">
        <ele>5.0</ele>
        <time>2021-05-16T08:06:28Z</time>
      </trkpt>
      <trkpt lat="41.2422580" lon="-8.7262550">
        <ele>5.0</ele>
        <time>2021-05-16T08:06:29Z</time>
      </trkpt>
      <trkpt lat="41.2422750" lon="-8.7262610">
        <ele>5.0</ele>
        <time>2021-05-16T08:06:30Z</time>
      </trkpt>
      <trkpt lat="41.2422920" lon="-8.7262660">
        <ele>5.0</ele>
        <time>2021-05-16T08:06:31Z</time>
      </trkpt>
      <trkpt lat="41.2423040" lon="-8.7262680">
        <ele>5.0</ele>
        <time>2021-05-16T08:06:32Z</time>
      </trkpt>
      <trkpt lat="41.2423180" lon="-8.7262710">
        <ele>5.1</ele>
        <time>2021-05-16T08:06:33Z</time>
      </trkpt>
      <trkpt lat="41.2423310" lon="-8.7262770">
        <ele>5.1</ele>
        <time>2021-05-16T08:06:34Z</time>
      </trkpt>
      <trkpt lat="41.2423450" lon="-8.7262740">
        <ele>5.1</ele>
        <time>2021-05-16T08:06:35Z</time>
      </trkpt>
      <trkpt lat="41.2423600" lon="-8.7262770">
        <ele>5.1</ele>
        <time>2021-05-16T08:06:36Z</time>
      </trkpt>
      <trkpt lat="41.2423750" lon="-8.7262760">
        <ele>5.1</ele>
        <time>2021-05-16T08:06:37Z</time>
      </trkpt>
      <trkpt lat="41.2423890" lon="-8.7262850">
        <ele>5.1</ele>
        <time>2021-05-16T08:06:38Z</time>
      </trkpt>
      <trkpt lat="41.2424060" lon="-8.7262870">
        <ele>5.1</ele>
        <time>2021-05-16T08:06:39Z</time>
      </trkpt>
      <trkpt lat="41.2424180" lon="-8.7262950">
        <ele>5.1</ele>
        <time>2021-05-16T08:06:40Z</time>
      </trkpt>
      <trkpt lat="41.2424310" lon="-8.7262990">
        <ele>5.1</ele>
        <time>2021-05-16T08:06:41Z</time>
      </trkpt>
      <trkpt lat="41.2424460" lon="-8.7262970">
        <ele>5.1</ele>
        <time>2021-05-16T08:06:42Z</time>
      </trkpt>
      <trkpt lat="41.2424590" lon="-8.7263040">
        <ele>5.1</ele>
        <time>2021-05-16T08:06:43Z</time>
      </trkpt>
      <trkpt lat="41.2424740" lon="-8.7263080">
        <ele>5.1</ele>
        <time>2021-05-16T08:06:44Z</time>
      </trkpt>
      <trkpt lat="41.2424880" lon="-8.7263080">
        <ele>5.1</ele>
        <time>2021-05-16T08:06:45Z</time>
      </trkpt>
      <trkpt lat="41.2425030" lon="-8.7263070">
        <ele>5.1</ele>
        <time>2021-05-16T08:06:46Z</time>
      </trkpt>
      <trkpt lat="41.2425250" lon="-8.7263080">
        <ele>5.2</ele>
        <time>2021-05-16T08:06:47Z</time>
      </trkpt>
      <trkpt lat="41.2425340" lon="-8.7263090">
        <ele>5.2</ele>
        <time>2021-05-16T08:06:48Z</time>
      </trkpt>
      <trkpt lat="41.2425430" lon="-8.7263100">
        <ele>5.2</ele>
        <time>2021-05-16T08:06:49Z</time>
      </trkpt>
      <trkpt lat="41.2425570" lon="-8.7263110">
        <ele>5.2</ele>
        <time>2021-05-16T08:06:50Z</time>
      </trkpt>
      <trkpt lat="41.2425730" lon="-8.7263130">
        <ele>5.2</ele>
        <time>2021-05-16T08:06:51Z</time>
      </trkpt>
      <trkpt lat="41.2425960" lon="-8.7263100">
        <ele>5.2</ele>
        <time>2021-05-16T08:06:52Z</time>
      </trkpt>
      <trkpt lat="41.2426050" lon="-8.7263150">
        <ele>5.2</ele>
        <time>2021-05-16T08:06:53Z</time>
      </trkpt>
      <trkpt lat="41.2426140" lon="-8.7263200">
        <ele>5.3</ele>
        <time>2021-05-16T08:06:54Z</time>
      </trkpt>
      <trkpt lat="41.2426290" lon="-8.7263330">
        <ele>5.3</ele>
        <time>2021-05-16T08:06:55Z</time>
      </trkpt>
      <trkpt lat="41.2426410" lon="-8.7263430">
        <ele>5.3</ele>
        <time>2021-05-16T08:06:56Z</time>
      </trkpt>
      <trkpt lat="41.2426540" lon="-8.7263530">
        <ele>5.3</ele>
        <time>2021-05-16T08:06:57Z</time>
      </trkpt>
      <trkpt lat="41.2426680" lon="-8.7263590">
        <ele>5.3</ele>
        <time>2021-05-16T08:06:58Z</time>
      </trkpt>
      <trkpt lat="41.2426870" lon="-8.7263630">
        <ele>5.3</ele>
        <time>2021-05-16T08:06:59Z</time>
      </trkpt>
      <trkpt lat="41.2426970" lon="-8.7263620">
        <ele>5.4</ele>
        <time>2021-05-16T08:07:00Z</time>
      </trkpt>
      <trkpt lat="41.2427060" lon="-8.7263620">
        <ele>5.4</ele>
        <time>2021-05-16T08:07:01Z</time>
      </trkpt>
      <trkpt lat="41.2427190" lon="-8.7263760">
        <ele>5.4</ele>
        <time>2021-05-16T08:07:02Z</time>
      </trkpt>
      <trkpt lat="41.2427330" lon="-8.7263810">
        <ele>5.4</ele>
        <time>2021-05-16T08:07:03Z</time>
      </trkpt>
      <trkpt lat="41.2427480" lon="-8.7263780">
        <ele>5.4</ele>
        <time>2021-05-16T08:07:04Z</time>
      </trkpt>
      <trkpt lat="41.2427630" lon="-8.7263820">
        <ele>5.4</ele>
        <time>2021-05-16T08:07:05Z</time>
      </trkpt>
      <trkpt lat="41.2427740" lon="-8.7263910">
        <ele>5.4</ele>
        <time>2021-05-16T08:07:06Z</time>
      </trkpt>
      <trkpt lat="41.2427890" lon="-8.7264000">
        <ele>5.4</ele>
        <time>2021-05-16T08:07:07Z</time>
      </trkpt>
      <trkpt lat="41.2428120" lon="-8.7264050">
        <ele>5.4</ele>
        <time>2021-05-16T08:07:08Z</time>
      </trkpt>
      <trkpt lat="41.2428220" lon="-8.7264070">
        <ele>5.4</ele>
        <time>2021-05-16T08:07:09Z</time>
      </trkpt>
      <trkpt lat="41.2428310" lon="-8.7264100">
        <ele>5.4</ele>
        <time>2021-05-16T08:07:10Z</time>
      </trkpt>
      <trkpt lat="41.2428440" lon="-8.7264210">
        <ele>5.4</ele>
        <time>2021-05-16T08:07:11Z</time>
      </trkpt>
      <trkpt lat="41.2428560" lon="-8.7264290">
        <ele>5.4</ele>
        <time>2021-05-16T08:07:12Z</time>
      </trkpt>
      <trkpt lat="41.2428690" lon="-8.7264270">
        <ele>5.4</ele>
        <time>2021-05-16T08:07:13Z</time>
      </trkpt>
      <trkpt lat="41.2428820" lon="-8.7264280">
        <ele>5.4</ele>
        <time>2021-05-16T08:07:14Z</time>
      </trkpt>
      <trkpt lat="41.2428890" lon="-8.7264240">
        <ele>5.4</ele>
        <time>2021-05-16T08:07:15Z</time>
      </trkpt>
      <trkpt lat="41.2429000" lon="-8.7264230">
        <ele>5.4</ele>
        <time>2021-05-16T08:07:16Z</time>
      </trkpt>
      <trkpt lat="41.2429110" lon="-8.7264240">
        <ele>5.4</ele>
        <time>2021-05-16T08:07:17Z</time>
      </trkpt>
      <trkpt lat="41.2429240" lon="-8.7264180">
        <ele>5.3</ele>
        <time>2021-05-16T08:07:18Z</time>
      </trkpt>
      <trkpt lat="41.2429360" lon="-8.7264140">
        <ele>5.3</ele>
        <time>2021-05-16T08:07:19Z</time>
      </trkpt>
      <trkpt lat="41.2429470" lon="-8.7264100">
        <ele>5.3</ele>
        <time>2021-05-16T08:07:20Z</time>
      </trkpt>
      <trkpt lat="41.2429540" lon="-8.7264020">
        <ele>5.3</ele>
        <time>2021-05-16T08:07:21Z</time>
      </trkpt>
      <trkpt lat="41.2429640" lon="-8.7263850">
        <ele>5.3</ele>
        <time>2021-05-16T08:07:22Z</time>
      </trkpt>
      <trkpt lat="41.2429680" lon="-8.7263770">
        <ele>5.3</ele>
        <time>2021-05-16T08:07:23Z</time>
      </trkpt>
      <trkpt lat="41.2429720" lon="-8.7263700">
        <ele>5.3</ele>
        <time>2021-05-16T08:07:24Z</time>
      </trkpt>
      <trkpt lat="41.2429760" lon="-8.7263620">
        <ele>5.3</ele>
        <time>2021-05-16T08:07:25Z</time>
      </trkpt>
      <trkpt lat="41.2429790" lon="-8.7263530">
        <ele>5.3</ele>
        <time>2021-05-16T08:07:26Z</time>
      </trkpt>
      <trkpt lat="41.2429810" lon="-8.7263430">
        <ele>5.3</ele>
        <time>2021-05-16T08:07:27Z</time>
      </trkpt>
      <trkpt lat="41.2429820" lon="-8.7263290">
        <ele>5.3</ele>
        <time>2021-05-16T08:07:28Z</time>
      </trkpt>
      <trkpt lat="41.2429860" lon="-8.7263170">
        <ele>5.3</ele>
        <time>2021-05-16T08:07:29Z</time>
      </trkpt>
      <trkpt lat="41.2429900" lon="-8.7262990">
        <ele>5.3</ele>
        <time>2021-05-16T08:07:30Z</time>
      </trkpt>
      <trkpt lat="41.2429900" lon="-8.7262890">
        <ele>5.3</ele>
        <time>2021-05-16T08:07:31Z</time>
      </trkpt>
      <trkpt lat="41.2429950" lon="-8.7262800">
        <ele>5.3</ele>
        <time>2021-05-16T08:07:32Z</time>
      </trkpt>
      <trkpt lat="41.2429990" lon="-8.7262520">
        <ele>5.3</ele>
        <time>2021-05-16T08:07:33Z</time>
      </trkpt>
      <trkpt lat="41.2429970" lon="-8.7262410">
        <ele>5.3</ele>
        <time>2021-05-16T08:07:34Z</time>
      </trkpt>
      <trkpt lat="41.2429960" lon="-8.7262290">
        <ele>5.2</ele>
        <time>2021-05-16T08:07:35Z</time>
      </trkpt>
      <trkpt lat="41.2429990" lon="-8.7262000">
        <ele>5.2</ele>
        <time>2021-05-16T08:07:36Z</time>
      </trkpt>
      <trkpt lat="41.2430010" lon="-8.7261890">
        <ele>5.2</ele>
        <time>2021-05-16T08:07:37Z</time>
      </trkpt>
      <trkpt lat="41.2430020" lon="-8.7261780">
        <ele>5.2</ele>
        <time>2021-05-16T08:07:38Z</time>
      </trkpt>
      <trkpt lat="41.2430080" lon="-8.7261520">
        <ele>5.2</ele>
        <time>2021-05-16T08:07:39Z</time>
      </trkpt>
      <trkpt lat="41.2430100" lon="-8.7261400">
        <ele>5.2</ele>
        <time>2021-05-16T08:07:40Z</time>
      </trkpt>
      <trkpt lat="41.2430120" lon="-8.7261290">
        <ele>5.2</ele>
        <time>2021-05-16T08:07:41Z</time>
      </trkpt>
      <trkpt lat="41.2430170" lon="-8.7261100">
        <ele>5.2</ele>
        <time>2021-05-16T08:07:42Z</time>
      </trkpt>
      <trkpt lat="41.2430150" lon="-8.7260910">
        <ele>5.2</ele>
        <time>2021-05-16T08:07:43Z</time>
      </trkpt>
      <trkpt lat="41.2430150" lon="-8.7260540">
        <ele>5.2</ele>
        <time>2021-05-16T08:07:44Z</time>
      </trkpt>
      <trkpt lat="41.2430120" lon="-8.7260380">
        <ele>5.2</ele>
        <time>2021-05-16T08:07:45Z</time>
      </trkpt>
      <trkpt lat="41.2430100" lon="-8.7260210">
        <ele>5.2</ele>
        <time>2021-05-16T08:07:46Z</time>
      </trkpt>
      <trkpt lat="41.2430150" lon="-8.7260020">
        <ele>5.2</ele>
        <time>2021-05-16T08:07:47Z</time>
      </trkpt>
      <trkpt lat="41.2430160" lon="-8.7259820">
        <ele>5.2</ele>
        <time>2021-05-16T08:07:48Z</time>
      </trkpt>
      <trkpt lat="41.2430200" lon="-8.7259620">
        <ele>5.2</ele>
        <time>2021-05-16T08:07:49Z</time>
      </trkpt>
      <trkpt lat="41.2430200" lon="-8.7259380">
        <ele>5.2</ele>
        <time>2021-05-16T08:07:50Z</time>
      </trkpt>
      <trkpt lat="41.2430210" lon="-8.7259190">
        <ele>5.2</ele>
        <time>2021-05-16T08:07:51Z</time>
      </trkpt>
      <trkpt lat="41.2430230" lon="-8.7258990">
        <ele>5.2</ele>
        <time>2021-05-16T08:07:52Z</time>
      </trkpt>
      <trkpt lat="41.2430230" lon="-8.7258820">
        <ele>5.2</ele>
        <time>2021-05-16T08:07:53Z</time>
      </trkpt>
      <trkpt lat="41.2430250" lon="-8.7258530">
        <ele>5.2</ele>
        <time>2021-05-16T08:07:54Z</time>
      </trkpt>
      <trkpt lat="41.2430270" lon="-8.7258420">
        <ele>5.2</ele>
        <time>2021-05-16T08:07:55Z</time>
      </trkpt>
      <trkpt lat="41.2430300" lon="-8.7258310">
        <ele>5.2</ele>
        <time>2021-05-16T08:07:56Z</time>
      </trkpt>
      <trkpt lat="41.2430310" lon="-8.7258100">
        <ele>5.2</ele>
        <time>2021-05-16T08:07:57Z</time>
      </trkpt>
      <trkpt lat="41.2430290" lon="-8.7257870">
        <ele>5.2</ele>
        <time>2021-05-16T08:07:58Z</time>
      </trkpt>
      <trkpt lat="41.2430330" lon="-8.7257630">
        <ele>5.0</ele>
        <time>2021-05-16T08:07:59Z</time>
      </trkpt>
      <trkpt lat="41.2430400" lon="-8.7257460">
        <ele>5.1</ele>
        <time>2021-05-16T08:08:00Z</time>
      </trkpt>
      <trkpt lat="41.2430530" lon="-8.7257230">
        <ele>5.1</ele>
        <time>2021-05-16T08:08:01Z</time>
      </trkpt>
      <trkpt lat="41.2430620" lon="-8.7257200">
        <ele>5.1</ele>
        <time>2021-05-16T08:08:02Z</time>
      </trkpt>
      <trkpt lat="41.2430720" lon="-8.7257160">
        <ele>5.0</ele>
        <time>2021-05-16T08:08:03Z</time>
      </trkpt>
      <trkpt lat="41.2430900" lon="-8.7257210">
        <ele>4.9</ele>
        <time>2021-05-16T08:08:04Z</time>
      </trkpt>
      <trkpt lat="41.2431040" lon="-8.7257170">
        <ele>4.8</ele>
        <time>2021-05-16T08:08:05Z</time>
      </trkpt>
      <trkpt lat="41.2431320" lon="-8.7257090">
        <ele>4.6</ele>
        <time>2021-05-16T08:08:06Z</time>
      </trkpt>
      <trkpt lat="41.2431410" lon="-8.7257040">
        <ele>4.6</ele>
        <time>2021-05-16T08:08:07Z</time>
      </trkpt>
      <trkpt lat="41.2431600" lon="-8.7257000">
        <ele>4.4</ele>
        <time>2021-05-16T08:08:08Z</time>
      </trkpt>
      <trkpt lat="41.2431760" lon="-8.7256920">
        <ele>4.4</ele>
        <time>2021-05-16T08:08:09Z</time>
      </trkpt>
      <trkpt lat="41.2431900" lon="-8.7256770">
        <ele>4.4</ele>
        <time>2021-05-16T08:08:10Z</time>
      </trkpt>
      <trkpt lat="41.2432040" lon="-8.7256670">
        <ele>4.4</ele>
        <time>2021-05-16T08:08:11Z</time>
      </trkpt>
      <trkpt lat="41.2432140" lon="-8.7256520">
        <ele>4.4</ele>
        <time>2021-05-16T08:08:12Z</time>
      </trkpt>
      <trkpt lat="41.2432240" lon="-8.7256390">
        <ele>4.3</ele>
        <time>2021-05-16T08:08:13Z</time>
      </trkpt>
      <trkpt lat="41.2432340" lon="-8.7256240">
        <ele>4.4</ele>
        <time>2021-05-16T08:08:14Z</time>
      </trkpt>
      <trkpt lat="41.2432430" lon="-8.7256060">
        <ele>4.4</ele>
        <time>2021-05-16T08:08:15Z</time>
      </trkpt>
      <trkpt lat="41.2432460" lon="-8.7255850">
        <ele>4.6</ele>
        <time>2021-05-16T08:08:16Z</time>
      </trkpt>
      <trkpt lat="41.2432540" lon="-8.7255700">
        <ele>4.6</ele>
        <time>2021-05-16T08:08:17Z</time>
      </trkpt>
      <trkpt lat="41.2432600" lon="-8.7255540">
        <ele>4.5</ele>
        <time>2021-05-16T08:08:18Z</time>
      </trkpt>
      <trkpt lat="41.2432680" lon="-8.7255380">
        <ele>4.7</ele>
        <time>2021-05-16T08:08:19Z</time>
      </trkpt>
      <trkpt lat="41.2432780" lon="-8.7255240">
        <ele>4.7</ele>
        <time>2021-05-16T08:08:20Z</time>
      </trkpt>
      <trkpt lat="41.2432840" lon="-8.7255080">
        <ele>4.7</ele>
        <time>2021-05-16T08:08:21Z</time>
      </trkpt>
      <trkpt lat="41.2432930" lon="-8.7254980">
        <ele>4.7</ele>
        <time>2021-05-16T08:08:22Z</time>
      </trkpt>
      <trkpt lat="41.2433070" lon="-8.7254870">
        <ele>4.7</ele>
        <time>2021-05-16T08:08:23Z</time>
      </trkpt>
      <trkpt lat="41.2433220" lon="-8.7254800">
        <ele>4.5</ele>
        <time>2021-05-16T08:08:24Z</time>
      </trkpt>
      <trkpt lat="41.2433380" lon="-8.7254750">
        <ele>4.5</ele>
        <time>2021-05-16T08:08:25Z</time>
      </trkpt>
      <trkpt lat="41.2433660" lon="-8.7254820">
        <ele>4.4</ele>
        <time>2021-05-16T08:08:26Z</time>
      </trkpt>
      <trkpt lat="41.2433750" lon="-8.7254880">
        <ele>4.4</ele>
        <time>2021-05-16T08:08:27Z</time>
      </trkpt>
      <trkpt lat="41.2433990" lon="-8.7255050">
        <ele>4.0</ele>
        <time>2021-05-16T08:08:28Z</time>
      </trkpt>
      <trkpt lat="41.2434070" lon="-8.7255100">
        <ele>4.0</ele>
        <time>2021-05-16T08:08:29Z</time>
      </trkpt>
      <trkpt lat="41.2434210" lon="-8.7255260">
        <ele>3.8</ele>
        <time>2021-05-16T08:08:30Z</time>
      </trkpt>
      <trkpt lat="41.2434340" lon="-8.7255410">
        <ele>3.9</ele>
        <time>2021-05-16T08:08:31Z</time>
      </trkpt>
      <trkpt lat="41.2434450" lon="-8.7255570">
        <ele>3.8</ele>
        <time>2021-05-16T08:08:32Z</time>
      </trkpt>
      <trkpt lat="41.2434590" lon="-8.7255740">
        <ele>3.6</ele>
        <time>2021-05-16T08:08:33Z</time>
      </trkpt>
      <trkpt lat="41.2434720" lon="-8.7255860">
        <ele>3.6</ele>
        <time>2021-05-16T08:08:34Z</time>
      </trkpt>
      <trkpt lat="41.2434850" lon="-8.7256000">
        <ele>3.3</ele>
        <time>2021-05-16T08:08:35Z</time>
      </trkpt>
      <trkpt lat="41.2435000" lon="-8.7256310">
        <ele>3.3</ele>
        <time>2021-05-16T08:08:36Z</time>
      </trkpt>
      <trkpt lat="41.2435050" lon="-8.7256390">
        <ele>3.2</ele>
        <time>2021-05-16T08:08:37Z</time>
      </trkpt>
      <trkpt lat="41.2435090" lon="-8.7256630">
        <ele>3.2</ele>
        <time>2021-05-16T08:08:38Z</time>
      </trkpt>
      <trkpt lat="41.2435250" lon="-8.7256770">
        <ele>3.0</ele>
        <time>2021-05-16T08:08:39Z</time>
      </trkpt>
      <trkpt lat="41.2435350" lon="-8.7256940">
        <ele>3.0</ele>
        <time>2021-05-16T08:08:40Z</time>
      </trkpt>
      <trkpt lat="41.2435430" lon="-8.7257070">
        <ele>3.0</ele>
        <time>2021-05-16T08:08:41Z</time>
      </trkpt>
      <trkpt lat="41.2435500" lon="-8.7257240">
        <ele>2.8</ele>
        <time>2021-05-16T08:08:42Z</time>
      </trkpt>
      <trkpt lat="41.2435540" lon="-8.7257410">
        <ele>2.8</ele>
        <time>2021-05-16T08:08:43Z</time>
      </trkpt>
      <trkpt lat="41.2435520" lon="-8.7257640">
        <ele>2.8</ele>
        <time>2021-05-16T08:08:44Z</time>
      </trkpt>
      <trkpt lat="41.2435520" lon="-8.7257830">
        <ele>2.8</ele>
        <time>2021-05-16T08:08:45Z</time>
      </trkpt>
      <trkpt lat="41.2435560" lon="-8.7257960">
        <ele>2.8</ele>
        <time>2021-05-16T08:08:46Z</time>
      </trkpt>
      <trkpt lat="41.2435640" lon="-8.7258080">
        <ele>2.8</ele>
        <time>2021-05-16T08:08:47Z</time>
      </trkpt>
      <trkpt lat="41.2435710" lon="-8.7258110">
        <ele>2.8</ele>
        <time>2021-05-16T08:08:48Z</time>
      </trkpt>
      <trkpt lat="41.2435840" lon="-8.7258140">
        <ele>2.8</ele>
        <time>2021-05-16T08:08:49Z</time>
      </trkpt>
      <trkpt lat="41.2435960" lon="-8.7258220">
        <ele>2.8</ele>
        <time>2021-05-16T08:08:50Z</time>
      </trkpt>
      <trkpt lat="41.2436030" lon="-8.7258240">
        <ele>2.8</ele>
        <time>2021-05-16T08:08:51Z</time>
      </trkpt>
      <trkpt lat="41.2436150" lon="-8.7258260">
        <ele>2.8</ele>
        <time>2021-05-16T08:08:52Z</time>
      </trkpt>
      <trkpt lat="41.2436190" lon="-8.7258220">
        <ele>2.8</ele>
        <time>2021-05-16T08:08:53Z</time>
      </trkpt>
      <trkpt lat="41.2436210" lon="-8.7258200">
        <ele>2.9</ele>
        <time>2021-05-16T08:08:54Z</time>
      </trkpt>
      <trkpt lat="41.2436180" lon="-8.7258180">
        <ele>2.9</ele>
        <time>2021-05-16T08:08:55Z</time>
      </trkpt>
      <trkpt lat="41.2436150" lon="-8.7258140">
        <ele>2.9</ele>
        <time>2021-05-16T08:08:56Z</time>
      </trkpt>
      <trkpt lat="41.2436160" lon="-8.7258100">
        <ele>3.0</ele>
        <time>2021-05-16T08:08:57Z</time>
      </trkpt>
      <trkpt lat="41.2436150" lon="-8.7257920">
        <ele>3.0</ele>
        <time>2021-05-16T08:08:58Z</time>
      </trkpt>
      <trkpt lat="41.2436170" lon="-8.7257610">
        <ele>3.1</ele>
        <time>2021-05-16T08:08:59Z</time>
      </trkpt>
      <trkpt lat="41.2436210" lon="-8.7257520">
        <ele>3.1</ele>
        <time>2021-05-16T08:09:00Z</time>
      </trkpt>
      <trkpt lat="41.2436240" lon="-8.7257430">
        <ele>3.2</ele>
        <time>2021-05-16T08:09:01Z</time>
      </trkpt>
      <trkpt lat="41.2436310" lon="-8.7257090">
        <ele>3.3</ele>
        <time>2021-05-16T08:09:02Z</time>
      </trkpt>
      <trkpt lat="41.2436340" lon="-8.7256960">
        <ele>3.3</ele>
        <time>2021-05-16T08:09:03Z</time>
      </trkpt>
      <trkpt lat="41.2436360" lon="-8.7256830">
        <ele>3.4</ele>
        <time>2021-05-16T08:09:04Z</time>
      </trkpt>
      <trkpt lat="41.2436370" lon="-8.7256590">
        <ele>3.5</ele>
        <time>2021-05-16T08:09:05Z</time>
      </trkpt>
      <trkpt lat="41.2436440" lon="-8.7256400">
        <ele>3.5</ele>
        <time>2021-05-16T08:09:06Z</time>
      </trkpt>
      <trkpt lat="41.2436490" lon="-8.7256220">
        <ele>3.7</ele>
        <time>2021-05-16T08:09:07Z</time>
      </trkpt>
      <trkpt lat="41.2436580" lon="-8.7256070">
        <ele>3.7</ele>
        <time>2021-05-16T08:09:08Z</time>
      </trkpt>
      <trkpt lat="41.2436710" lon="-8.7255940">
        <ele>3.7</ele>
        <time>2021-05-16T08:09:09Z</time>
      </trkpt>
      <trkpt lat="41.2436820" lon="-8.7255800">
        <ele>3.8</ele>
        <time>2021-05-16T08:09:10Z</time>
      </trkpt>
      <trkpt lat="41.2436920" lon="-8.7255680">
        <ele>3.8</ele>
        <time>2021-05-16T08:09:11Z</time>
      </trkpt>
      <trkpt lat="41.2437010" lon="-8.7255510">
        <ele>3.9</ele>
        <time>2021-05-16T08:09:12Z</time>
      </trkpt>
      <trkpt lat="41.2437090" lon="-8.7255300">
        <ele>4.0</ele>
        <time>2021-05-16T08:09:13Z</time>
      </trkpt>
      <trkpt lat="41.2437210" lon="-8.7255160">
        <ele>4.0</ele>
        <time>2021-05-16T08:09:14Z</time>
      </trkpt>
      <trkpt lat="41.2437300" lon="-8.7254990">
        <ele>4.2</ele>
        <time>2021-05-16T08:09:15Z</time>
      </trkpt>
      <trkpt lat="41.2437420" lon="-8.7254850">
        <ele>4.2</ele>
        <time>2021-05-16T08:09:16Z</time>
      </trkpt>
      <trkpt lat="41.2437540" lon="-8.7254740">
        <ele>4.2</ele>
        <time>2021-05-16T08:09:17Z</time>
      </trkpt>
      <trkpt lat="41.2437640" lon="-8.7254620">
        <ele>4.2</ele>
        <time>2021-05-16T08:09:18Z</time>
      </trkpt>
      <trkpt lat="41.2437840" lon="-8.7254450">
        <ele>4.4</ele>
        <time>2021-05-16T08:09:19Z</time>
      </trkpt>
      <trkpt lat="41.2437930" lon="-8.7254360">
        <ele>4.5</ele>
        <time>2021-05-16T08:09:20Z</time>
      </trkpt>
      <trkpt lat="41.2438010" lon="-8.7254270">
        <ele>4.5</ele>
        <time>2021-05-16T08:09:21Z</time>
      </trkpt>
      <trkpt lat="41.2438110" lon="-8.7254120">
        <ele>4.5</ele>
        <time>2021-05-16T08:09:22Z</time>
      </trkpt>
      <trkpt lat="41.2438200" lon="-8.7253980">
        <ele>4.6</ele>
        <time>2021-05-16T08:09:23Z</time>
      </trkpt>
      <trkpt lat="41.2438280" lon="-8.7253810">
        <ele>4.6</ele>
        <time>2021-05-16T08:09:24Z</time>
      </trkpt>
      <trkpt lat="41.2438400" lon="-8.7253690">
        <ele>4.6</ele>
        <time>2021-05-16T08:09:25Z</time>
      </trkpt>
      <trkpt lat="41.2438530" lon="-8.7253570">
        <ele>4.7</ele>
        <time>2021-05-16T08:09:26Z</time>
      </trkpt>
      <trkpt lat="41.2438620" lon="-8.7253430">
        <ele>4.7</ele>
        <time>2021-05-16T08:09:27Z</time>
      </trkpt>
      <trkpt lat="41.2438720" lon="-8.7253290">
        <ele>4.7</ele>
        <time>2021-05-16T08:09:28Z</time>
      </trkpt>
      <trkpt lat="41.2438810" lon="-8.7253120">
        <ele>4.8</ele>
        <time>2021-05-16T08:09:29Z</time>
      </trkpt>
      <trkpt lat="41.2438930" lon="-8.7252990">
        <ele>4.8</ele>
        <time>2021-05-16T08:09:30Z</time>
      </trkpt>
      <trkpt lat="41.2439030" lon="-8.7252840">
        <ele>4.8</ele>
        <time>2021-05-16T08:09:31Z</time>
      </trkpt>
      <trkpt lat="41.2439130" lon="-8.7252710">
        <ele>4.9</ele>
        <time>2021-05-16T08:09:32Z</time>
      </trkpt>
      <trkpt lat="41.2439230" lon="-8.7252560">
        <ele>4.9</ele>
        <time>2021-05-16T08:09:33Z</time>
      </trkpt>
      <trkpt lat="41.2439410" lon="-8.7252390">
        <ele>5.0</ele>
        <time>2021-05-16T08:09:34Z</time>
      </trkpt>
      <trkpt lat="41.2439480" lon="-8.7252310">
        <ele>5.0</ele>
        <time>2021-05-16T08:09:35Z</time>
      </trkpt>
      <trkpt lat="41.2439550" lon="-8.7252230">
        <ele>5.1</ele>
        <time>2021-05-16T08:09:36Z</time>
      </trkpt>
      <trkpt lat="41.2439660" lon="-8.7252120">
        <ele>5.0</ele>
        <time>2021-05-16T08:09:37Z</time>
      </trkpt>
      <trkpt lat="41.2439780" lon="-8.7251970">
        <ele>5.2</ele>
        <time>2021-05-16T08:09:38Z</time>
      </trkpt>
      <trkpt lat="41.2439900" lon="-8.7251830">
        <ele>5.2</ele>
        <time>2021-05-16T08:09:39Z</time>
      </trkpt>
      <trkpt lat="41.2440020" lon="-8.7251710">
        <ele>5.2</ele>
        <time>2021-05-16T08:09:40Z</time>
      </trkpt>
      <trkpt lat="41.2440120" lon="-8.7251570">
        <ele>5.3</ele>
        <time>2021-05-16T08:09:41Z</time>
      </trkpt>
      <trkpt lat="41.2440260" lon="-8.7251470">
        <ele>5.3</ele>
        <time>2021-05-16T08:09:42Z</time>
      </trkpt>
      <trkpt lat="41.2440330" lon="-8.7251340">
        <ele>5.3</ele>
        <time>2021-05-16T08:09:43Z</time>
      </trkpt>
      <trkpt lat="41.2440430" lon="-8.7251270">
        <ele>5.4</ele>
        <time>2021-05-16T08:09:44Z</time>
      </trkpt>
      <trkpt lat="41.2440470" lon="-8.7251330">
        <ele>5.4</ele>
        <time>2021-05-16T08:09:45Z</time>
      </trkpt>
      <trkpt lat="41.2440460" lon="-8.7251310">
        <ele>5.4</ele>
        <time>2021-05-16T08:09:46Z</time>
      </trkpt>
      <trkpt lat="41.2440490" lon="-8.7251220">
        <ele>5.6</ele>
        <time>2021-05-16T08:09:47Z</time>
      </trkpt>
      <trkpt lat="41.2440500" lon="-8.7251130">
        <ele>5.7</ele>
        <time>2021-05-16T08:09:48Z</time>
      </trkpt>
      <trkpt lat="41.2440550" lon="-8.7251020">
        <ele>5.7</ele>
        <time>2021-05-16T08:09:49Z</time>
      </trkpt>
      <trkpt lat="41.2440590" lon="-8.7250860">
        <ele>5.8</ele>
        <time>2021-05-16T08:09:50Z</time>
      </trkpt>
      <trkpt lat="41.2440790" lon="-8.7250720">
        <ele>5.9</ele>
        <time>2021-05-16T08:09:51Z</time>
      </trkpt>
      <trkpt lat="41.2440860" lon="-8.7250650">
        <ele>5.9</ele>
        <time>2021-05-16T08:09:52Z</time>
      </trkpt>
      <trkpt lat="41.2440930" lon="-8.7250590">
        <ele>6.0</ele>
        <time>2021-05-16T08:09:53Z</time>
      </trkpt>
      <trkpt lat="41.2441010" lon="-8.7250530">
        <ele>6.0</ele>
        <time>2021-05-16T08:09:54Z</time>
      </trkpt>
      <trkpt lat="41.2441140" lon="-8.7250410">
        <ele>6.0</ele>
        <time>2021-05-16T08:09:55Z</time>
      </trkpt>
      <trkpt lat="41.2441230" lon="-8.7250370">
        <ele>6.0</ele>
        <time>2021-05-16T08:09:56Z</time>
      </trkpt>
      <trkpt lat="41.2441430" lon="-8.7250240">
        <ele>6.2</ele>
        <time>2021-05-16T08:09:57Z</time>
      </trkpt>
      <trkpt lat="41.2441510" lon="-8.7250190">
        <ele>6.2</ele>
        <time>2021-05-16T08:09:58Z</time>
      </trkpt>
      <trkpt lat="41.2441600" lon="-8.7250130">
        <ele>6.2</ele>
        <time>2021-05-16T08:09:59Z</time>
      </trkpt>
      <trkpt lat="41.2441800" lon="-8.7250030">
        <ele>6.3</ele>
        <time>2021-05-16T08:10:00Z</time>
      </trkpt>
      <trkpt lat="41.2441880" lon="-8.7249990">
        <ele>6.4</ele>
        <time>2021-05-16T08:10:01Z</time>
      </trkpt>
      <trkpt lat="41.2441960" lon="-8.7249950">
        <ele>6.4</ele>
        <time>2021-05-16T08:10:02Z</time>
      </trkpt>
      <trkpt lat="41.2442180" lon="-8.7249910">
        <ele>6.5</ele>
        <time>2021-05-16T08:10:03Z</time>
      </trkpt>
      <trkpt lat="41.2442260" lon="-8.7249860">
        <ele>6.5</ele>
        <time>2021-05-16T08:10:04Z</time>
      </trkpt>
      <trkpt lat="41.2442350" lon="-8.7249800">
        <ele>6.7</ele>
        <time>2021-05-16T08:10:05Z</time>
      </trkpt>
      <trkpt lat="41.2442490" lon="-8.7249760">
        <ele>6.7</ele>
        <time>2021-05-16T08:10:06Z</time>
      </trkpt>
      <trkpt lat="41.2442620" lon="-8.7249690">
        <ele>6.7</ele>
        <time>2021-05-16T08:10:07Z</time>
      </trkpt>
      <trkpt lat="41.2442760" lon="-8.7249710">
        <ele>6.8</ele>
        <time>2021-05-16T08:10:08Z</time>
      </trkpt>
      <trkpt lat="41.2442910" lon="-8.7249610">
        <ele>6.8</ele>
        <time>2021-05-16T08:10:09Z</time>
      </trkpt>
      <trkpt lat="41.2443080" lon="-8.7249530">
        <ele>6.8</ele>
        <time>2021-05-16T08:10:10Z</time>
      </trkpt>
      <trkpt lat="41.2443220" lon="-8.7249450">
        <ele>6.9</ele>
        <time>2021-05-16T08:10:11Z</time>
      </trkpt>
      <trkpt lat="41.2443390" lon="-8.7249410">
        <ele>6.9</ele>
        <time>2021-05-16T08:10:12Z</time>
      </trkpt>
      <trkpt lat="41.2443560" lon="-8.7249340">
        <ele>6.9</ele>
        <time>2021-05-16T08:10:13Z</time>
      </trkpt>
      <trkpt lat="41.2443720" lon="-8.7249290">
        <ele>7.0</ele>
        <time>2021-05-16T08:10:14Z</time>
      </trkpt>
      <trkpt lat="41.2443870" lon="-8.7249210">
        <ele>7.0</ele>
        <time>2021-05-16T08:10:15Z</time>
      </trkpt>
      <trkpt lat="41.2444030" lon="-8.7249160">
        <ele>7.0</ele>
        <time>2021-05-16T08:10:16Z</time>
      </trkpt>
      <trkpt lat="41.2444170" lon="-8.7249120">
        <ele>7.0</ele>
        <time>2021-05-16T08:10:17Z</time>
      </trkpt>
      <trkpt lat="41.2444340" lon="-8.7249080">
        <ele>7.1</ele>
        <time>2021-05-16T08:10:18Z</time>
      </trkpt>
      <trkpt lat="41.2444490" lon="-8.7249000">
        <ele>7.1</ele>
        <time>2021-05-16T08:10:19Z</time>
      </trkpt>
      <trkpt lat="41.2444640" lon="-8.7248960">
        <ele>7.1</ele>
        <time>2021-05-16T08:10:20Z</time>
      </trkpt>
      <trkpt lat="41.2444800" lon="-8.7248940">
        <ele>7.1</ele>
        <time>2021-05-16T08:10:21Z</time>
      </trkpt>
      <trkpt lat="41.2444960" lon="-8.7248910">
        <ele>7.1</ele>
        <time>2021-05-16T08:10:22Z</time>
      </trkpt>
      <trkpt lat="41.2445110" lon="-8.7248850">
        <ele>7.1</ele>
        <time>2021-05-16T08:10:23Z</time>
      </trkpt>
      <trkpt lat="41.2445270" lon="-8.7248850">
        <ele>7.2</ele>
        <time>2021-05-16T08:10:24Z</time>
      </trkpt>
      <trkpt lat="41.2445410" lon="-8.7248810">
        <ele>7.2</ele>
        <time>2021-05-16T08:10:25Z</time>
      </trkpt>
      <trkpt lat="41.2445560" lon="-8.7248760">
        <ele>7.2</ele>
        <time>2021-05-16T08:10:26Z</time>
      </trkpt>
      <trkpt lat="41.2445690" lon="-8.7248660">
        <ele>7.2</ele>
        <time>2021-05-16T08:10:27Z</time>
      </trkpt>
      <trkpt lat="41.2445850" lon="-8.7248580">
        <ele>7.2</ele>
        <time>2021-05-16T08:10:28Z</time>
      </trkpt>
      <trkpt lat="41.2446000" lon="-8.7248570">
        <ele>7.2</ele>
        <time>2021-05-16T08:10:29Z</time>
      </trkpt>
      <trkpt lat="41.2446140" lon="-8.7248550">
        <ele>7.2</ele>
        <time>2021-05-16T08:10:30Z</time>
      </trkpt>
      <trkpt lat="41.2446270" lon="-8.7248470">
        <ele>7.2</ele>
        <time>2021-05-16T08:10:31Z</time>
      </trkpt>
      <trkpt lat="41.2446420" lon="-8.7248430">
        <ele>7.2</ele>
        <time>2021-05-16T08:10:32Z</time>
      </trkpt>
      <trkpt lat="41.2446560" lon="-8.7248350">
        <ele>7.2</ele>
        <time>2021-05-16T08:10:33Z</time>
      </trkpt>
      <trkpt lat="41.2446720" lon="-8.7248330">
        <ele>7.2</ele>
        <time>2021-05-16T08:10:34Z</time>
      </trkpt>
      <trkpt lat="41.2446890" lon="-8.7248360">
        <ele>7.1</ele>
        <time>2021-05-16T08:10:35Z</time>
      </trkpt>
      <trkpt lat="41.2447040" lon="-8.7248370">
        <ele>7.1</ele>
        <time>2021-05-16T08:10:36Z</time>
      </trkpt>
      <trkpt lat="41.2447190" lon="-8.7248350">
        <ele>7.1</ele>
        <time>2021-05-16T08:10:37Z</time>
      </trkpt>
      <trkpt lat="41.2447330" lon="-8.7248340">
        <ele>7.1</ele>
        <time>2021-05-16T08:10:38Z</time>
      </trkpt>
      <trkpt lat="41.2447490" lon="-8.7248300">
        <ele>7.1</ele>
        <time>2021-05-16T08:10:39Z</time>
      </trkpt>
      <trkpt lat="41.2447650" lon="-8.7248320">
        <ele>7.1</ele>
        <time>2021-05-16T08:10:40Z</time>
      </trkpt>
      <trkpt lat="41.2447800" lon="-8.7248260">
        <ele>7.1</ele>
        <time>2021-05-16T08:10:41Z</time>
      </trkpt>
      <trkpt lat="41.2447920" lon="-8.7248240">
        <ele>7.0</ele>
        <time>2021-05-16T08:10:42Z</time>
      </trkpt>
      <trkpt lat="41.2448080" lon="-8.7248200">
        <ele>7.0</ele>
        <time>2021-05-16T08:10:43Z</time>
      </trkpt>
      <trkpt lat="41.2448220" lon="-8.7248170">
        <ele>7.0</ele>
        <time>2021-05-16T08:10:44Z</time>
      </trkpt>
      <trkpt lat="41.2448360" lon="-8.7248170">
        <ele>7.0</ele>
        <time>2021-05-16T08:10:45Z</time>
      </trkpt>
      <trkpt lat="41.2448510" lon="-8.7248170">
        <ele>7.0</ele>
        <time>2021-05-16T08:10:46Z</time>
      </trkpt>
      <trkpt lat="41.2448660" lon="-8.7248220">
        <ele>6.9</ele>
        <time>2021-05-16T08:10:47Z</time>
      </trkpt>
      <trkpt lat="41.2448810" lon="-8.7248220">
        <ele>6.9</ele>
        <time>2021-05-16T08:10:48Z</time>
      </trkpt>
      <trkpt lat="41.2448970" lon="-8.7248230">
        <ele>6.9</ele>
        <time>2021-05-16T08:10:49Z</time>
      </trkpt>
      <trkpt lat="41.2449100" lon="-8.7248190">
        <ele>6.9</ele>
        <time>2021-05-16T08:10:50Z</time>
      </trkpt>
      <trkpt lat="41.2449250" lon="-8.7248210">
        <ele>6.9</ele>
        <time>2021-05-16T08:10:51Z</time>
      </trkpt>
      <trkpt lat="41.2449370" lon="-8.7248180">
        <ele>6.8</ele>
        <time>2021-05-16T08:10:52Z</time>
      </trkpt>
      <trkpt lat="41.2449520" lon="-8.7248120">
        <ele>6.8</ele>
        <time>2021-05-16T08:10:53Z</time>
      </trkpt>
      <trkpt lat="41.2449740" lon="-8.7248150">
        <ele>6.8</ele>
        <time>2021-05-16T08:10:54Z</time>
      </trkpt>
      <trkpt lat="41.2449830" lon="-8.7248170">
        <ele>6.8</ele>
        <time>2021-05-16T08:10:55Z</time>
      </trkpt>
      <trkpt lat="41.2449930" lon="-8.7248200">
        <ele>6.8</ele>
        <time>2021-05-16T08:10:56Z</time>
      </trkpt>
      <trkpt lat="41.2450070" lon="-8.7248160">
        <ele>6.8</ele>
        <time>2021-05-16T08:10:57Z</time>
      </trkpt>
      <trkpt lat="41.2450200" lon="-8.7248060">
        <ele>6.7</ele>
        <time>2021-05-16T08:10:58Z</time>
      </trkpt>
      <trkpt lat="41.2450340" lon="-8.7248060">
        <ele>6.7</ele>
        <time>2021-05-16T08:10:59Z</time>
      </trkpt>
      <trkpt lat="41.2450490" lon="-8.7248050">
        <ele>6.7</ele>
        <time>2021-05-16T08:11:00Z</time>
      </trkpt>
      <trkpt lat="41.2450640" lon="-8.7248020">
        <ele>6.7</ele>
        <time>2021-05-16T08:11:01Z</time>
      </trkpt>
      <trkpt lat="41.2450770" lon="-8.7247960">
        <ele>6.7</ele>
        <time>2021-05-16T08:11:02Z</time>
      </trkpt>
      <trkpt lat="41.2450920" lon="-8.7247980">
        <ele>6.7</ele>
        <time>2021-05-16T08:11:03Z</time>
      </trkpt>
      <trkpt lat="41.2451070" lon="-8.7248030">
        <ele>6.7</ele>
        <time>2021-05-16T08:11:04Z</time>
      </trkpt>
      <trkpt lat="41.2451210" lon="-8.7248020">
        <ele>6.7</ele>
        <time>2021-05-16T08:11:05Z</time>
      </trkpt>
      <trkpt lat="41.2451350" lon="-8.7248120">
        <ele>6.7</ele>
        <time>2021-05-16T08:11:06Z</time>
      </trkpt>
      <trkpt lat="41.2451500" lon="-8.7248420">
        <ele>6.7</ele>
        <time>2021-05-16T08:11:07Z</time>
      </trkpt>
      <trkpt lat="41.2451530" lon="-8.7248590">
        <ele>6.7</ele>
        <time>2021-05-16T08:11:08Z</time>
      </trkpt>
      <trkpt lat="41.2451480" lon="-8.7248980">
        <ele>6.7</ele>
        <time>2021-05-16T08:11:09Z</time>
      </trkpt>
      <trkpt lat="41.2451450" lon="-8.7249100">
        <ele>6.7</ele>
        <time>2021-05-16T08:11:10Z</time>
      </trkpt>
      <trkpt lat="41.2451410" lon="-8.7249310">
        <ele>6.7</ele>
        <time>2021-05-16T08:11:11Z</time>
      </trkpt>
      <trkpt lat="41.2451360" lon="-8.7249520">
        <ele>6.7</ele>
        <time>2021-05-16T08:11:12Z</time>
      </trkpt>
      <trkpt lat="41.2451330" lon="-8.7249690">
        <ele>6.7</ele>
        <time>2021-05-16T08:11:13Z</time>
      </trkpt>
      <trkpt lat="41.2451310" lon="-8.7249890">
        <ele>6.7</ele>
        <time>2021-05-16T08:11:14Z</time>
      </trkpt>
      <trkpt lat="41.2451280" lon="-8.7250040">
        <ele>6.7</ele>
        <time>2021-05-16T08:11:15Z</time>
      </trkpt>
      <trkpt lat="41.2451320" lon="-8.7250140">
        <ele>6.7</ele>
        <time>2021-05-16T08:11:16Z</time>
      </trkpt>
      <trkpt lat="41.2451240" lon="-8.7250230">
        <ele>6.7</ele>
        <time>2021-05-16T08:11:17Z</time>
      </trkpt>
      <trkpt lat="41.2451220" lon="-8.7250330">
        <ele>6.7</ele>
        <time>2021-05-16T08:11:18Z</time>
      </trkpt>
      <trkpt lat="41.2451210" lon="-8.7250360">
        <ele>6.7</ele>
        <time>2021-05-16T08:11:19Z</time>
      </trkpt>
      <trkpt lat="41.2451180" lon="-8.7250320">
        <ele>6.7</ele>
        <time>2021-05-16T08:11:20Z</time>
      </trkpt>
      <trkpt lat="41.2451130" lon="-8.7250310">
        <ele>6.7</ele>
        <time>2021-05-16T08:11:21Z</time>
      </trkpt>
      <trkpt lat="41.2451110" lon="-8.7250300">
        <ele>6.7</ele>
        <time>2021-05-16T08:11:22Z</time>
      </trkpt>
      <trkpt lat="41.2451100" lon="-8.7250300">
        <ele>6.7</ele>
        <time>2021-05-16T08:11:23Z</time>
      </trkpt>
      <trkpt lat="41.2451100" lon="-8.7250270">
        <ele>6.7</ele>
        <time>2021-05-16T08:11:24Z</time>
      </trkpt>
      <trkpt lat="41.2451090" lon="-8.7250270">
        <ele>6.7</ele>
        <time>2021-05-16T08:11:25Z</time>
      </trkpt>
      <trkpt lat="41.2451180" lon="-8.7250270">
        <ele>6.7</ele>
        <time>2021-05-16T08:11:26Z</time>
      </trkpt>
      <trkpt lat="41.2450980" lon="-8.7250380">
        <ele>6.7</ele>
        <time>2021-05-16T08:11:27Z</time>
      </trkpt>
      <trkpt lat="41.2450940" lon="-8.7250410">
        <ele>6.7</ele>
        <time>2021-05-16T08:11:28Z</time>
      </trkpt>
      <trkpt lat="41.2450910" lon="-8.7250430">
        <ele>6.8</ele>
        <time>2021-05-16T08:11:29Z</time>
      </trkpt>
      <trkpt lat="41.2450860" lon="-8.7250430">
        <ele>6.8</ele>
        <time>2021-05-16T08:11:30Z</time>
      </trkpt>
      <trkpt lat="41.2450790" lon="-8.7250410">
        <ele>6.8</ele>
        <time>2021-05-16T08:11:31Z</time>
      </trkpt>
      <trkpt lat="41.2450790" lon="-8.7250430">
        <ele>6.8</ele>
        <time>2021-05-16T08:11:32Z</time>
      </trkpt>
      <trkpt lat="41.2450780" lon="-8.7250430">
        <ele>6.8</ele>
        <time>2021-05-16T08:11:33Z</time>
      </trkpt>
      <trkpt lat="41.2450750" lon="-8.7250430">
        <ele>6.8</ele>
        <time>2021-05-16T08:11:34Z</time>
      </trkpt>
      <trkpt lat="41.2450760" lon="-8.7250440">
        <ele>6.8</ele>
        <time>2021-05-16T08:11:35Z</time>
      </trkpt>
      <trkpt lat="41.2450740" lon="-8.7250460">
        <ele>6.8</ele>
        <time>2021-05-16T08:11:36Z</time>
      </trkpt>
      <trkpt lat="41.2450670" lon="-8.7250430">
        <ele>6.8</ele>
        <time>2021-05-16T08:11:37Z</time>
      </trkpt>
      <trkpt lat="41.2450670" lon="-8.7250410">
        <ele>6.8</ele>
        <time>2021-05-16T08:11:38Z</time>
      </trkpt>
      <trkpt lat="41.2450650" lon="-8.7250420">
        <ele>6.8</ele>
        <time>2021-05-16T08:11:39Z</time>
      </trkpt>
      <trkpt lat="41.2450650" lon="-8.7250410">
        <ele>6.8</ele>
        <time>2021-05-16T08:11:41Z</time>
      </trkpt>
      <trkpt lat="41.2450660" lon="-8.7250390">
        <ele>6.8</ele>
        <time>2021-05-16T08:11:42Z</time>
      </trkpt>
      <trkpt lat="41.2450660" lon="-8.7250380">
        <ele>6.8</ele>
        <time>2021-05-16T08:11:43Z</time>
      </trkpt>
      <trkpt lat="41.2450660" lon="-8.7250370">
        <ele>6.8</ele>
        <time>2021-05-16T08:11:44Z</time>
      </trkpt>
      <trkpt lat="41.2450660" lon="-8.7250360">
        <ele>6.8</ele>
        <time>2021-05-16T08:11:45Z</time>
      </trkpt>
      <trkpt lat="41.2450660" lon="-8.7250340">
        <ele>6.8</ele>
        <time>2021-05-16T08:11:46Z</time>
      </trkpt>
      <trkpt lat="41.2450670" lon="-8.7250330">
        <ele>6.8</ele>
        <time>2021-05-16T08:11:47Z</time>
      </trkpt>
      <trkpt lat="41.2450670" lon="-8.7250320">
        <ele>6.8</ele>
        <time>2021-05-16T08:11:48Z</time>
      </trkpt>
      <trkpt lat="41.2450670" lon="-8.7250310">
        <ele>6.8</ele>
        <time>2021-05-16T08:11:49Z</time>
      </trkpt>
      <trkpt lat="41.2450670" lon="-8.7250300">
        <ele>6.8</ele>
        <time>2021-05-16T08:11:50Z</time>
      </trkpt>
      <trkpt lat="41.2450670" lon="-8.7250280">
        <ele>6.8</ele>
        <time>2021-05-16T08:11:51Z</time>
      </trkpt>
      <trkpt lat="41.2450680" lon="-8.7250270">
        <ele>6.8</ele>
        <time>2021-05-16T08:11:52Z</time>
      </trkpt>
      <trkpt lat="41.2450680" lon="-8.7250260">
        <ele>6.8</ele>
        <time>2021-05-16T08:11:53Z</time>
      </trkpt>
      <trkpt lat="41.2450680" lon="-8.7250250">
        <ele>6.8</ele>
        <time>2021-05-16T08:11:54Z</time>
      </trkpt>
      <trkpt lat="41.2450680" lon="-8.7250230">
        <ele>6.8</ele>
        <time>2021-05-16T08:11:55Z</time>
      </trkpt>
      <trkpt lat="41.2450680" lon="-8.7250220">
        <ele>6.8</ele>
        <time>2021-05-16T08:11:56Z</time>
      </trkpt>
      <trkpt lat="41.2450690" lon="-8.7250210">
        <ele>6.8</ele>
        <time>2021-05-16T08:11:57Z</time>
      </trkpt>
      <trkpt lat="41.2450690" lon="-8.7250200">
        <ele>6.8</ele>
        <time>2021-05-16T08:11:58Z</time>
      </trkpt>
      <trkpt lat="41.2450690" lon="-8.7250180">
        <ele>6.8</ele>
        <time>2021-05-16T08:11:59Z</time>
      </trkpt>
      <trkpt lat="41.2450690" lon="-8.7250170">
        <ele>6.8</ele>
        <time>2021-05-16T08:12:00Z</time>
      </trkpt>
      <trkpt lat="41.2450700" lon="-8.7250160">
        <ele>6.8</ele>
        <time>2021-05-16T08:12:01Z</time>
      </trkpt>
      <trkpt lat="41.2450700" lon="-8.7250150">
        <ele>6.8</ele>
        <time>2021-05-16T08:12:02Z</time>
      </trkpt>
      <trkpt lat="41.2450700" lon="-8.7250140">
        <ele>6.8</ele>
        <time>2021-05-16T08:12:03Z</time>
      </trkpt>
      <trkpt lat="41.2450700" lon="-8.7250120">
        <ele>6.8</ele>
        <time>2021-05-16T08:12:04Z</time>
      </trkpt>
      <trkpt lat="41.2450700" lon="-8.7250110">
        <ele>6.8</ele>
        <time>2021-05-16T08:12:05Z</time>
      </trkpt>
      <trkpt lat="41.2450710" lon="-8.7250100">
        <ele>6.8</ele>
        <time>2021-05-16T08:12:06Z</time>
      </trkpt>
      <trkpt lat="41.2450710" lon="-8.7250090">
        <ele>6.8</ele>
        <time>2021-05-16T08:12:07Z</time>
      </trkpt>
      <trkpt lat="41.2450710" lon="-8.7250070">
        <ele>6.8</ele>
        <time>2021-05-16T08:12:08Z</time>
      </trkpt>
      <trkpt lat="41.2450710" lon="-8.7250060">
        <ele>6.8</ele>
        <time>2021-05-16T08:12:09Z</time>
      </trkpt>
      <trkpt lat="41.2450710" lon="-8.7250050">
        <ele>6.8</ele>
        <time>2021-05-16T08:12:10Z</time>
      </trkpt>
      <trkpt lat="41.2450720" lon="-8.7250040">
        <ele>6.8</ele>
        <time>2021-05-16T08:12:11Z</time>
      </trkpt>
      <trkpt lat="41.2450720" lon="-8.7250030">
        <ele>6.8</ele>
        <time>2021-05-16T08:12:12Z</time>
      </trkpt>
      <trkpt lat="41.2450720" lon="-8.7250010">
        <ele>6.8</ele>
        <time>2021-05-16T08:12:13Z</time>
      </trkpt>
      <trkpt lat="41.2450720" lon="-8.7250000">
        <ele>6.8</ele>
        <time>2021-05-16T08:12:14Z</time>
      </trkpt>
      <trkpt lat="41.2450720" lon="-8.7249990">
        <ele>6.8</ele>
        <time>2021-05-16T08:12:15Z</time>
      </trkpt>
      <trkpt lat="41.2450730" lon="-8.7249980">
        <ele>6.8</ele>
        <time>2021-05-16T08:12:16Z</time>
      </trkpt>
      <trkpt lat="41.2450730" lon="-8.7249960">
        <ele>6.8</ele>
        <time>2021-05-16T08:12:17Z</time>
      </trkpt>
      <trkpt lat="41.2450730" lon="-8.7249950">
        <ele>6.8</ele>
        <time>2021-05-16T08:12:18Z</time>
      </trkpt>
      <trkpt lat="41.2450730" lon="-8.7249940">
        <ele>6.8</ele>
        <time>2021-05-16T08:12:19Z</time>
      </trkpt>
      <trkpt lat="41.2450730" lon="-8.7249930">
        <ele>6.8</ele>
        <time>2021-05-16T08:12:20Z</time>
      </trkpt>
      <trkpt lat="41.2450740" lon="-8.7249910">
        <ele>6.8</ele>
        <time>2021-05-16T08:12:21Z</time>
      </trkpt>
      <trkpt lat="41.2450740" lon="-8.7249900">
        <ele>6.8</ele>
        <time>2021-05-16T08:12:22Z</time>
      </trkpt>
      <trkpt lat="41.2450740" lon="-8.7249890">
        <ele>6.8</ele>
        <time>2021-05-16T08:12:23Z</time>
      </trkpt>
      <trkpt lat="41.2450760" lon="-8.7249730">
        <ele>6.8</ele>
        <time>2021-05-16T08:12:24Z</time>
      </trkpt>
      <trkpt lat="41.2450780" lon="-8.7249530">
        <ele>6.8</ele>
        <time>2021-05-16T08:12:25Z</time>
      </trkpt>
      <trkpt lat="41.2450830" lon="-8.7249290">
        <ele>6.8</ele>
        <time>2021-05-16T08:12:26Z</time>
      </trkpt>
      <trkpt lat="41.2450840" lon="-8.7249130">
        <ele>6.8</ele>
        <time>2021-05-16T08:12:27Z</time>
      </trkpt>
      <trkpt lat="41.2450890" lon="-8.7248870">
        <ele>6.8</ele>
        <time>2021-05-16T08:12:28Z</time>
      </trkpt>
      <trkpt lat="41.2450870" lon="-8.7248730">
        <ele>6.8</ele>
        <time>2021-05-16T08:12:29Z</time>
      </trkpt>
      <trkpt lat="41.2450890" lon="-8.7248590">
        <ele>6.9</ele>
        <time>2021-05-16T08:12:30Z</time>
      </trkpt>
      <trkpt lat="41.2450930" lon="-8.7248380">
        <ele>6.9</ele>
        <time>2021-05-16T08:12:31Z</time>
      </trkpt>
      <trkpt lat="41.2450990" lon="-8.7248200">
        <ele>6.9</ele>
        <time>2021-05-16T08:12:32Z</time>
      </trkpt>
      <trkpt lat="41.2451160" lon="-8.7248110">
        <ele>6.9</ele>
        <time>2021-05-16T08:12:33Z</time>
      </trkpt>
      <trkpt lat="41.2451320" lon="-8.7248080">
        <ele>6.9</ele>
        <time>2021-05-16T08:12:34Z</time>
      </trkpt>
      <trkpt lat="41.2451430" lon="-8.7248100">
        <ele>6.9</ele>
        <time>2021-05-16T08:12:35Z</time>
      </trkpt>
      <trkpt lat="41.2451450" lon="-8.7248140">
        <ele>6.9</ele>
        <time>2021-05-16T08:12:36Z</time>
      </trkpt>
      <trkpt lat="41.2451490" lon="-8.7248160">
        <ele>6.9</ele>
        <time>2021-05-16T08:12:37Z</time>
      </trkpt>
      <trkpt lat="41.2451500" lon="-8.7248160">
        <ele>6.9</ele>
        <time>2021-05-16T08:12:38Z</time>
      </trkpt>
      <trkpt lat="41.2451510" lon="-8.7248160">
        <ele>6.9</ele>
        <time>2021-05-16T08:12:39Z</time>
      </trkpt>
      <trkpt lat="41.2451520" lon="-8.7248160">
        <ele>6.9</ele>
        <time>2021-05-16T08:12:40Z</time>
      </trkpt>
      <trkpt lat="41.2451530" lon="-8.7248160">
        <ele>6.9</ele>
        <time>2021-05-16T08:12:41Z</time>
      </trkpt>
      <trkpt lat="41.2451540" lon="-8.7248160">
        <ele>6.9</ele>
        <time>2021-05-16T08:12:42Z</time>
      </trkpt>
      <trkpt lat="41.2451550" lon="-8.7248160">
        <ele>6.9</ele>
        <time>2021-05-16T08:12:43Z</time>
      </trkpt>
      <trkpt lat="41.2451560" lon="-8.7248160">
        <ele>6.9</ele>
        <time>2021-05-16T08:12:44Z</time>
      </trkpt>
      <trkpt lat="41.2451570" lon="-8.7248160">
        <ele>6.9</ele>
        <time>2021-05-16T08:12:45Z</time>
      </trkpt>
      <trkpt lat="41.2451570" lon="-8.7248160">
        <ele>6.9</ele>
        <time>2021-05-16T08:12:46Z</time>
      </trkpt>
      <trkpt lat="41.2451580" lon="-8.7248160">
        <ele>6.9</ele>
        <time>2021-05-16T08:12:47Z</time>
      </trkpt>
      <trkpt lat="41.2451590" lon="-8.7248160">
        <ele>6.9</ele>
        <time>2021-05-16T08:12:48Z</time>
      </trkpt>
      <trkpt lat="41.2451600" lon="-8.7248160">
        <ele>6.9</ele>
        <time>2021-05-16T08:12:49Z</time>
      </trkpt>
      <trkpt lat="41.2451610" lon="-8.7248160">
        <ele>6.9</ele>
        <time>2021-05-16T08:12:50Z</time>
      </trkpt>
      <trkpt lat="41.2451620" lon="-8.7248160">
        <ele>6.9</ele>
        <time>2021-05-16T08:12:51Z</time>
      </trkpt>
      <trkpt lat="41.2451630" lon="-8.7248160">
        <ele>6.9</ele>
        <time>2021-05-16T08:12:52Z</time>
      </trkpt>
      <trkpt lat="41.2451640" lon="-8.7248160">
        <ele>6.9</ele>
        <time>2021-05-16T08:12:53Z</time>
      </trkpt>
      <trkpt lat="41.2451650" lon="-8.7248160">
        <ele>6.9</ele>
        <time>2021-05-16T08:12:54Z</time>
      </trkpt>
      <trkpt lat="41.2451660" lon="-8.7248160">
        <ele>6.9</ele>
        <time>2021-05-16T08:12:55Z</time>
      </trkpt>
      <trkpt lat="41.2451670" lon="-8.7248150">
        <ele>6.9</ele>
        <time>2021-05-16T08:12:56Z</time>
      </trkpt>
      <trkpt lat="41.2451680" lon="-8.7248150">
        <ele>6.9</ele>
        <time>2021-05-16T08:12:57Z</time>
      </trkpt>
      <trkpt lat="41.2451690" lon="-8.7248150">
        <ele>6.9</ele>
        <time>2021-05-16T08:12:58Z</time>
      </trkpt>
      <trkpt lat="41.2451700" lon="-8.7248150">
        <ele>6.9</ele>
        <time>2021-05-16T08:12:59Z</time>
      </trkpt>
      <trkpt lat="41.2451710" lon="-8.7248150">
        <ele>6.9</ele>
        <time>2021-05-16T08:13:00Z</time>
      </trkpt>
      <trkpt lat="41.2451720" lon="-8.7248150">
        <ele>6.9</ele>
        <time>2021-05-16T08:13:01Z</time>
      </trkpt>
      <trkpt lat="41.2451730" lon="-8.7248150">
        <ele>6.9</ele>
        <time>2021-05-16T08:13:02Z</time>
      </trkpt>
      <trkpt lat="41.2451740" lon="-8.7248150">
        <ele>6.9</ele>
        <time>2021-05-16T08:13:03Z</time>
      </trkpt>
      <trkpt lat="41.2451750" lon="-8.7248150">
        <ele>6.9</ele>
        <time>2021-05-16T08:13:04Z</time>
      </trkpt>
      <trkpt lat="41.2451750" lon="-8.7248150">
        <ele>6.9</ele>
        <time>2021-05-16T08:13:05Z</time>
      </trkpt>
      <trkpt lat="41.2451760" lon="-8.7248150">
        <ele>6.9</ele>
        <time>2021-05-16T08:13:06Z</time>
      </trkpt>
      <trkpt lat="41.2451770" lon="-8.7248150">
        <ele>6.9</ele>
        <time>2021-05-16T08:13:07Z</time>
      </trkpt>
      <trkpt lat="41.2451780" lon="-8.7248150">
        <ele>6.9</ele>
        <time>2021-05-16T08:13:08Z</time>
      </trkpt>
      <trkpt lat="41.2451790" lon="-8.7248150">
        <ele>6.9</ele>
        <time>2021-05-16T08:13:09Z</time>
      </trkpt>
      <trkpt lat="41.2451800" lon="-8.7248150">
        <ele>6.9</ele>
        <time>2021-05-16T08:13:10Z</time>
      </trkpt>
      <trkpt lat="41.2451810" lon="-8.7248150">
        <ele>6.9</ele>
        <time>2021-05-16T08:13:11Z</time>
      </trkpt>
      <trkpt lat="41.2451820" lon="-8.7248150">
        <ele>6.9</ele>
        <time>2021-05-16T08:13:12Z</time>
      </trkpt>
      <trkpt lat="41.2451830" lon="-8.7248150">
        <ele>6.9</ele>
        <time>2021-05-16T08:13:13Z</time>
      </trkpt>
      <trkpt lat="41.2451840" lon="-8.7248150">
        <ele>6.9</ele>
        <time>2021-05-16T08:13:14Z</time>
      </trkpt>
      <trkpt lat="41.2451950" lon="-8.7248110">
        <ele>6.9</ele>
        <time>2021-05-16T08:13:15Z</time>
      </trkpt>
      <trkpt lat="41.2452050" lon="-8.7248070">
        <ele>6.9</ele>
        <time>2021-05-16T08:13:16Z</time>
      </trkpt>
      <trkpt lat="41.2452190" lon="-8.7248080">
        <ele>6.9</ele>
        <time>2021-05-16T08:13:17Z</time>
      </trkpt>
      <trkpt lat="41.2452420" lon="-8.7248080">
        <ele>7.0</ele>
        <time>2021-05-16T08:13:18Z</time>
      </trkpt>
      <trkpt lat="41.2452490" lon="-8.7248070">
        <ele>7.0</ele>
        <time>2021-05-16T08:13:19Z</time>
      </trkpt>
      <trkpt lat="41.2452560" lon="-8.7248060">
        <ele>7.0</ele>
        <time>2021-05-16T08:13:20Z</time>
      </trkpt>
      <trkpt lat="41.2452780" lon="-8.7248080">
        <ele>7.0</ele>
        <time>2021-05-16T08:13:21Z</time>
      </trkpt>
      <trkpt lat="41.2452880" lon="-8.7248070">
        <ele>7.0</ele>
        <time>2021-05-16T08:13:22Z</time>
      </trkpt>
      <trkpt lat="41.2452980" lon="-8.7248050">
        <ele>7.0</ele>
        <time>2021-05-16T08:13:23Z</time>
      </trkpt>
      <trkpt lat="41.2453200" lon="-8.7248050">
        <ele>7.0</ele>
        <time>2021-05-16T08:13:24Z</time>
      </trkpt>
      <trkpt lat="41.2453280" lon="-8.7248030">
        <ele>7.0</ele>
        <time>2021-05-16T08:13:25Z</time>
      </trkpt>
      <trkpt lat="41.2453360" lon="-8.7248020">
        <ele>7.0</ele>
        <time>2021-05-16T08:13:26Z</time>
      </trkpt>
      <trkpt lat="41.2453510" lon="-8.7248080">
        <ele>7.0</ele>
        <time>2021-05-16T08:13:27Z</time>
      </trkpt>
      <trkpt lat="41.2453650" lon="-8.7248020">
        <ele>7.0</ele>
        <time>2021-05-16T08:13:28Z</time>
      </trkpt>
      <trkpt lat="41.2453810" lon="-8.7248010">
        <ele>7.0</ele>
        <time>2021-05-16T08:13:29Z</time>
      </trkpt>
      <trkpt lat="41.2454000" lon="-8.7247980">
        <ele>7.0</ele>
        <time>2021-05-16T08:13:30Z</time>
      </trkpt>
      <trkpt lat="41.2454170" lon="-8.7247970">
        <ele>7.0</ele>
        <time>2021-05-16T08:13:31Z</time>
      </trkpt>
      <trkpt lat="41.2454330" lon="-8.7247950">
        <ele>7.0</ele>
        <time>2021-05-16T08:13:32Z</time>
      </trkpt>
      <trkpt lat="41.2454500" lon="-8.7247890">
        <ele>7.0</ele>
        <time>2021-05-16T08:13:33Z</time>
      </trkpt>
      <trkpt lat="41.2454650" lon="-8.7247910">
        <ele>7.0</ele>
        <time>2021-05-16T08:13:34Z</time>
      </trkpt>
      <trkpt lat="41.2454800" lon="-8.7247840">
        <ele>7.0</ele>
        <time>2021-05-16T08:13:35Z</time>
      </trkpt>
      <trkpt lat="41.2454940" lon="-8.7247900">
        <ele>7.0</ele>
        <time>2021-05-16T08:13:36Z</time>
      </trkpt>
      <trkpt lat="41.2455090" lon="-8.7247840">
        <ele>7.0</ele>
        <time>2021-05-16T08:13:37Z</time>
      </trkpt>
      <trkpt lat="41.2455250" lon="-8.7247870">
        <ele>7.0</ele>
        <time>2021-05-16T08:13:38Z</time>
      </trkpt>
      <trkpt lat="41.2455420" lon="-8.7247870">
        <ele>7.0</ele>
        <time>2021-05-16T08:13:39Z</time>
      </trkpt>
      <trkpt lat="41.2455570" lon="-8.7247870">
        <ele>7.1</ele>
        <time>2021-05-16T08:13:40Z</time>
      </trkpt>
      <trkpt lat="41.2455720" lon="-8.7247840">
        <ele>7.1</ele>
        <time>2021-05-16T08:13:41Z</time>
      </trkpt>
      <trkpt lat="41.2455870" lon="-8.7247820">
        <ele>7.1</ele>
        <time>2021-05-16T08:13:42Z</time>
      </trkpt>
      <trkpt lat="41.2456030" lon="-8.7247800">
        <ele>7.1</ele>
        <time>2021-05-16T08:13:43Z</time>
      </trkpt>
      <trkpt lat="41.2456190" lon="-8.7247830">
        <ele>7.1</ele>
        <time>2021-05-16T08:13:44Z</time>
      </trkpt>
      <trkpt lat="41.2456490" lon="-8.7247770">
        <ele>7.1</ele>
        <time>2021-05-16T08:13:45Z</time>
      </trkpt>
      <trkpt lat="41.2456650" lon="-8.7247720">
        <ele>7.1</ele>
        <time>2021-05-16T08:13:46Z</time>
      </trkpt>
      <trkpt lat="41.2456770" lon="-8.7247740">
        <ele>7.1</ele>
        <time>2021-05-16T08:13:47Z</time>
      </trkpt>
      <trkpt lat="41.2456940" lon="-8.7247690">
        <ele>7.2</ele>
        <time>2021-05-16T08:13:48Z</time>
      </trkpt>
      <trkpt lat="41.2457100" lon="-8.7247700">
        <ele>7.2</ele>
        <time>2021-05-16T08:13:49Z</time>
      </trkpt>
      <trkpt lat="41.2457260" lon="-8.7247660">
        <ele>7.2</ele>
        <time>2021-05-16T08:13:50Z</time>
      </trkpt>
      <trkpt lat="41.2457430" lon="-8.7247610">
        <ele>7.2</ele>
        <time>2021-05-16T08:13:51Z</time>
      </trkpt>
      <trkpt lat="41.2457570" lon="-8.7247620">
        <ele>7.2</ele>
        <time>2021-05-16T08:13:52Z</time>
      </trkpt>
      <trkpt lat="41.2457730" lon="-8.7247620">
        <ele>7.2</ele>
        <time>2021-05-16T08:13:53Z</time>
      </trkpt>
      <trkpt lat="41.2457880" lon="-8.7247650">
        <ele>7.2</ele>
        <time>2021-05-16T08:13:54Z</time>
      </trkpt>
      <trkpt lat="41.2458050" lon="-8.7247650">
        <ele>7.2</ele>
        <time>2021-05-16T08:13:55Z</time>
      </trkpt>
      <trkpt lat="41.2458190" lon="-8.7247660">
        <ele>7.2</ele>
        <time>2021-05-16T08:13:56Z</time>
      </trkpt>
      <trkpt lat="41.2458330" lon="-8.7247610">
        <ele>7.2</ele>
        <time>2021-05-16T08:13:57Z</time>
      </trkpt>
      <trkpt lat="41.2458480" lon="-8.7247570">
        <ele>7.2</ele>
        <time>2021-05-16T08:13:58Z</time>
      </trkpt>
      <trkpt lat="41.2458650" lon="-8.7247530">
        <ele>7.2</ele>
        <time>2021-05-16T08:13:59Z</time>
      </trkpt>
      <trkpt lat="41.2458790" lon="-8.7247590">
        <ele>7.1</ele>
        <time>2021-05-16T08:14:00Z</time>
      </trkpt>
      <trkpt lat="41.2458930" lon="-8.7247530">
        <ele>7.1</ele>
        <time>2021-05-16T08:14:01Z</time>
      </trkpt>
      <trkpt lat="41.2459060" lon="-8.7247560">
        <ele>7.1</ele>
        <time>2021-05-16T08:14:02Z</time>
      </trkpt>
      <trkpt lat="41.2459220" lon="-8.7247530">
        <ele>7.1</ele>
        <time>2021-05-16T08:14:03Z</time>
      </trkpt>
      <trkpt lat="41.2459370" lon="-8.7247540">
        <ele>7.1</ele>
        <time>2021-05-16T08:14:04Z</time>
      </trkpt>
      <trkpt lat="41.2459500" lon="-8.7247530">
        <ele>7.1</ele>
        <time>2021-05-16T08:14:05Z</time>
      </trkpt>
      <trkpt lat="41.2459670" lon="-8.7247450">
        <ele>7.1</ele>
        <time>2021-05-16T08:14:06Z</time>
      </trkpt>
      <trkpt lat="41.2459790" lon="-8.7247440">
        <ele>7.1</ele>
        <time>2021-05-16T08:14:07Z</time>
      </trkpt>
      <trkpt lat="41.2459930" lon="-8.7247430">
        <ele>7.1</ele>
        <time>2021-05-16T08:14:08Z</time>
      </trkpt>
      <trkpt lat="41.2460070" lon="-8.7247430">
        <ele>7.0</ele>
        <time>2021-05-16T08:14:09Z</time>
      </trkpt>
      <trkpt lat="41.2460240" lon="-8.7247420">
        <ele>7.0</ele>
        <time>2021-05-16T08:14:10Z</time>
      </trkpt>
      <trkpt lat="41.2460380" lon="-8.7247450">
        <ele>7.0</ele>
        <time>2021-05-16T08:14:11Z</time>
      </trkpt>
      <trkpt lat="41.2460540" lon="-8.7247440">
        <ele>7.0</ele>
        <time>2021-05-16T08:14:12Z</time>
      </trkpt>
      <trkpt lat="41.2460700" lon="-8.7247460">
        <ele>7.0</ele>
        <time>2021-05-16T08:14:13Z</time>
      </trkpt>
      <trkpt lat="41.2460840" lon="-8.7247410">
        <ele>7.0</ele>
        <time>2021-05-16T08:14:14Z</time>
      </trkpt>
      <trkpt lat="41.2461000" lon="-8.7247400">
        <ele>7.0</ele>
        <time>2021-05-16T08:14:15Z</time>
      </trkpt>
      <trkpt lat="41.2461140" lon="-8.7247400">
        <ele>6.9</ele>
        <time>2021-05-16T08:14:16Z</time>
      </trkpt>
      <trkpt lat="41.2461300" lon="-8.7247390">
        <ele>6.9</ele>
        <time>2021-05-16T08:14:17Z</time>
      </trkpt>
      <trkpt lat="41.2461430" lon="-8.7247410">
        <ele>6.9</ele>
        <time>2021-05-16T08:14:18Z</time>
      </trkpt>
      <trkpt lat="41.2461580" lon="-8.7247360">
        <ele>6.9</ele>
        <time>2021-05-16T08:14:19Z</time>
      </trkpt>
      <trkpt lat="41.2461720" lon="-8.7247340">
        <ele>6.9</ele>
        <time>2021-05-16T08:14:20Z</time>
      </trkpt>
      <trkpt lat="41.2461850" lon="-8.7247330">
        <ele>6.9</ele>
        <time>2021-05-16T08:14:21Z</time>
      </trkpt>
      <trkpt lat="41.2461990" lon="-8.7247320">
        <ele>6.9</ele>
        <time>2021-05-16T08:14:22Z</time>
      </trkpt>
      <trkpt lat="41.2462130" lon="-8.7247340">
        <ele>6.8</ele>
        <time>2021-05-16T08:14:23Z</time>
      </trkpt>
      <trkpt lat="41.2462300" lon="-8.7247330">
        <ele>6.8</ele>
        <time>2021-05-16T08:14:24Z</time>
      </trkpt>
      <trkpt lat="41.2462440" lon="-8.7247370">
        <ele>6.8</ele>
        <time>2021-05-16T08:14:25Z</time>
      </trkpt>
      <trkpt lat="41.2462610" lon="-8.7247350">
        <ele>6.8</ele>
        <time>2021-05-16T08:14:26Z</time>
      </trkpt>
      <trkpt lat="41.2462770" lon="-8.7247380">
        <ele>6.8</ele>
        <time>2021-05-16T08:14:27Z</time>
      </trkpt>
      <trkpt lat="41.2462900" lon="-8.7247360">
        <ele>6.8</ele>
        <time>2021-05-16T08:14:28Z</time>
      </trkpt>
      <trkpt lat="41.2463050" lon="-8.7247310">
        <ele>6.8</ele>
        <time>2021-05-16T08:14:29Z</time>
      </trkpt>
      <trkpt lat="41.2463210" lon="-8.7247270">
        <ele>6.8</ele>
        <time>2021-05-16T08:14:30Z</time>
      </trkpt>
      <trkpt lat="41.2463340" lon="-8.7247230">
        <ele>6.8</ele>
        <time>2021-05-16T08:14:31Z</time>
      </trkpt>
      <trkpt lat="41.2463500" lon="-8.7247220">
        <ele>6.8</ele>
        <time>2021-05-16T08:14:32Z</time>
      </trkpt>
      <trkpt lat="41.2463650" lon="-8.7247220">
        <ele>6.8</ele>
        <time>2021-05-16T08:14:33Z</time>
      </trkpt>
      <trkpt lat="41.2463800" lon="-8.7247210">
        <ele>6.7</ele>
        <time>2021-05-16T08:14:34Z</time>
      </trkpt>
      <trkpt lat="41.2463920" lon="-8.7247260">
        <ele>6.7</ele>
        <time>2021-05-16T08:14:35Z</time>
      </trkpt>
      <trkpt lat="41.2464060" lon="-8.7247250">
        <ele>6.7</ele>
        <time>2021-05-16T08:14:36Z</time>
      </trkpt>
      <trkpt lat="41.2464190" lon="-8.7247240">
        <ele>6.7</ele>
        <time>2021-05-16T08:14:37Z</time>
      </trkpt>
      <trkpt lat="41.2464350" lon="-8.7247220">
        <ele>6.7</ele>
        <time>2021-05-16T08:14:38Z</time>
      </trkpt>
      <trkpt lat="41.2464470" lon="-8.7247250">
        <ele>6.7</ele>
        <time>2021-05-16T08:14:39Z</time>
      </trkpt>
      <trkpt lat="41.2464600" lon="-8.7247240">
        <ele>6.7</ele>
        <time>2021-05-16T08:14:40Z</time>
      </trkpt>
      <trkpt lat="41.2464750" lon="-8.7247190">
        <ele>6.7</ele>
        <time>2021-05-16T08:14:41Z</time>
      </trkpt>
      <trkpt lat="41.2464950" lon="-8.7247200">
        <ele>6.7</ele>
        <time>2021-05-16T08:14:42Z</time>
      </trkpt>
      <trkpt lat="41.2465050" lon="-8.7247200">
        <ele>6.7</ele>
        <time>2021-05-16T08:14:43Z</time>
      </trkpt>
      <trkpt lat="41.2465140" lon="-8.7247190">
        <ele>6.7</ele>
        <time>2021-05-16T08:14:44Z</time>
      </trkpt>
      <trkpt lat="41.2465290" lon="-8.7247210">
        <ele>6.6</ele>
        <time>2021-05-16T08:14:45Z</time>
      </trkpt>
      <trkpt lat="41.2465450" lon="-8.7247200">
        <ele>6.6</ele>
        <time>2021-05-16T08:14:46Z</time>
      </trkpt>
      <trkpt lat="41.2465580" lon="-8.7247210">
        <ele>6.6</ele>
        <time>2021-05-16T08:14:47Z</time>
      </trkpt>
      <trkpt lat="41.2465730" lon="-8.7247170">
        <ele>6.6</ele>
        <time>2021-05-16T08:14:48Z</time>
      </trkpt>
      <trkpt lat="41.2465880" lon="-8.7247130">
        <ele>6.6</ele>
        <time>2021-05-16T08:14:49Z</time>
      </trkpt>
      <trkpt lat="41.2466020" lon="-8.7247120">
        <ele>6.5</ele>
        <time>2021-05-16T08:14:50Z</time>
      </trkpt>
      <trkpt lat="41.2466170" lon="-8.7247120">
        <ele>6.5</ele>
        <time>2021-05-16T08:14:51Z</time>
      </trkpt>
      <trkpt lat="41.2466310" lon="-8.7247100">
        <ele>6.5</ele>
        <time>2021-05-16T08:14:52Z</time>
      </trkpt>
      <trkpt lat="41.2466450" lon="-8.7247100">
        <ele>6.5</ele>
        <time>2021-05-16T08:14:53Z</time>
      </trkpt>
      <trkpt lat="41.2466590" lon="-8.7247050">
        <ele>6.5</ele>
        <time>2021-05-16T08:14:54Z</time>
      </trkpt>
      <trkpt lat="41.2466710" lon="-8.7247090">
        <ele>6.4</ele>
        <time>2021-05-16T08:14:55Z</time>
      </trkpt>
      <trkpt lat="41.2466860" lon="-8.7247120">
        <ele>6.4</ele>
        <time>2021-05-16T08:14:56Z</time>
      </trkpt>
      <trkpt lat="41.2466980" lon="-8.7247120">
        <ele>6.4</ele>
        <time>2021-05-16T08:14:57Z</time>
      </trkpt>
      <trkpt lat="41.2467140" lon="-8.7247060">
        <ele>6.4</ele>
        <time>2021-05-16T08:14:58Z</time>
      </trkpt>
      <trkpt lat="41.2467260" lon="-8.7247060">
        <ele>6.4</ele>
        <time>2021-05-16T08:14:59Z</time>
      </trkpt>
      <trkpt lat="41.2467410" lon="-8.7247010">
        <ele>6.3</ele>
        <time>2021-05-16T08:15:01Z</time>
      </trkpt>
      <trkpt lat="41.2467540" lon="-8.7246980">
        <ele>6.3</ele>
        <time>2021-05-16T08:15:02Z</time>
      </trkpt>
      <trkpt lat="41.2467700" lon="-8.7247020">
        <ele>6.3</ele>
        <time>2021-05-16T08:15:03Z</time>
      </trkpt>
      <trkpt lat="41.2467910" lon="-8.7247030">
        <ele>6.3</ele>
        <time>2021-05-16T08:15:04Z</time>
      </trkpt>
      <trkpt lat="41.2468010" lon="-8.7247030">
        <ele>6.2</ele>
        <time>2021-05-16T08:15:05Z</time>
      </trkpt>
      <trkpt lat="41.2468110" lon="-8.7247030">
        <ele>6.2</ele>
        <time>2021-05-16T08:15:06Z</time>
      </trkpt>
      <trkpt lat="41.2468260" lon="-8.7246970">
        <ele>6.2</ele>
        <time>2021-05-16T08:15:07Z</time>
      </trkpt>
      <trkpt lat="41.2468420" lon="-8.7246990">
        <ele>6.2</ele>
        <time>2021-05-16T08:15:08Z</time>
      </trkpt>
      <trkpt lat="41.2468630" lon="-8.7246970">
        <ele>6.2</ele>
        <time>2021-05-16T08:15:09Z</time>
      </trkpt>
      <trkpt lat="41.2468730" lon="-8.7246970">
        <ele>6.1</ele>
        <time>2021-05-16T08:15:10Z</time>
      </trkpt>
      <trkpt lat="41.2468820" lon="-8.7246960">
        <ele>6.1</ele>
        <time>2021-05-16T08:15:11Z</time>
      </trkpt>
      <trkpt lat="41.2468950" lon="-8.7246960">
        <ele>6.1</ele>
        <time>2021-05-16T08:15:12Z</time>
      </trkpt>
      <trkpt lat="41.2469090" lon="-8.7247000">
        <ele>6.1</ele>
        <time>2021-05-16T08:15:13Z</time>
      </trkpt>
      <trkpt lat="41.2469240" lon="-8.7246960">
        <ele>6.1</ele>
        <time>2021-05-16T08:15:14Z</time>
      </trkpt>
      <trkpt lat="41.2469390" lon="-8.7246950">
        <ele>6.1</ele>
        <time>2021-05-16T08:15:15Z</time>
      </trkpt>
      <trkpt lat="41.2469510" lon="-8.7246960">
        <ele>6.1</ele>
        <time>2021-05-16T08:15:16Z</time>
      </trkpt>
      <trkpt lat="41.2469670" lon="-8.7246970">
        <ele>6.1</ele>
        <time>2021-05-16T08:15:17Z</time>
      </trkpt>
      <trkpt lat="41.2469800" lon="-8.7246920">
        <ele>6.1</ele>
        <time>2021-05-16T08:15:18Z</time>
      </trkpt>
      <trkpt lat="41.2469940" lon="-8.7246910">
        <ele>6.1</ele>
        <time>2021-05-16T08:15:19Z</time>
      </trkpt>
      <trkpt lat="41.2470090" lon="-8.7246930">
        <ele>6.1</ele>
        <time>2021-05-16T08:15:20Z</time>
      </trkpt>
      <trkpt lat="41.2470230" lon="-8.7246910">
        <ele>6.1</ele>
        <time>2021-05-16T08:15:21Z</time>
      </trkpt>
      <trkpt lat="41.2470370" lon="-8.7246910">
        <ele>6.1</ele>
        <time>2021-05-16T08:15:22Z</time>
      </trkpt>
      <trkpt lat="41.2470520" lon="-8.7246880">
        <ele>6.1</ele>
        <time>2021-05-16T08:15:23Z</time>
      </trkpt>
      <trkpt lat="41.2470670" lon="-8.7246840">
        <ele>6.1</ele>
        <time>2021-05-16T08:15:24Z</time>
      </trkpt>
      <trkpt lat="41.2470800" lon="-8.7246820">
        <ele>6.1</ele>
        <time>2021-05-16T08:15:25Z</time>
      </trkpt>
      <trkpt lat="41.2470950" lon="-8.7246840">
        <ele>6.1</ele>
        <time>2021-05-16T08:15:26Z</time>
      </trkpt>
      <trkpt lat="41.2471080" lon="-8.7246850">
        <ele>6.1</ele>
        <time>2021-05-16T08:15:27Z</time>
      </trkpt>
      <trkpt lat="41.2471210" lon="-8.7246810">
        <ele>6.1</ele>
        <time>2021-05-16T08:15:28Z</time>
      </trkpt>
      <trkpt lat="41.2471350" lon="-8.7246830">
        <ele>6.2</ele>
        <time>2021-05-16T08:15:29Z</time>
      </trkpt>
      <trkpt lat="41.2471490" lon="-8.7246800">
        <ele>6.2</ele>
        <time>2021-05-16T08:15:30Z</time>
      </trkpt>
      <trkpt lat="41.2471640" lon="-8.7246800">
        <ele>6.2</ele>
        <time>2021-05-16T08:15:31Z</time>
      </trkpt>
      <trkpt lat="41.2471780" lon="-8.7246750">
        <ele>6.2</ele>
        <time>2021-05-16T08:15:32Z</time>
      </trkpt>
      <trkpt lat="41.2471950" lon="-8.7246740">
        <ele>6.2</ele>
        <time>2021-05-16T08:15:33Z</time>
      </trkpt>
      <trkpt lat="41.2472160" lon="-8.7246700">
        <ele>6.2</ele>
        <time>2021-05-16T08:15:34Z</time>
      </trkpt>
      <trkpt lat="41.2472250" lon="-8.7246700">
        <ele>6.2</ele>
        <time>2021-05-16T08:15:35Z</time>
      </trkpt>
      <trkpt lat="41.2472350" lon="-8.7246710">
        <ele>6.2</ele>
        <time>2021-05-16T08:15:36Z</time>
      </trkpt>
      <trkpt lat="41.2472500" lon="-8.7246710">
        <ele>6.2</ele>
        <time>2021-05-16T08:15:37Z</time>
      </trkpt>
      <trkpt lat="41.2472640" lon="-8.7246700">
        <ele>6.2</ele>
        <time>2021-05-16T08:15:38Z</time>
      </trkpt>
      <trkpt lat="41.2472780" lon="-8.7246650">
        <ele>6.2</ele>
        <time>2021-05-16T08:15:39Z</time>
      </trkpt>
      <trkpt lat="41.2472930" lon="-8.7246640">
        <ele>6.3</ele>
        <time>2021-05-16T08:15:40Z</time>
      </trkpt>
      <trkpt lat="41.2473160" lon="-8.7246610">
        <ele>6.3</ele>
        <time>2021-05-16T08:15:41Z</time>
      </trkpt>
      <trkpt lat="41.2473260" lon="-8.7246600">
        <ele>6.3</ele>
        <time>2021-05-16T08:15:42Z</time>
      </trkpt>
      <trkpt lat="41.2473360" lon="-8.7246590">
        <ele>6.3</ele>
        <time>2021-05-16T08:15:43Z</time>
      </trkpt>
      <trkpt lat="41.2473500" lon="-8.7246580">
        <ele>6.3</ele>
        <time>2021-05-16T08:15:44Z</time>
      </trkpt>
      <trkpt lat="41.2473630" lon="-8.7246580">
        <ele>6.3</ele>
        <time>2021-05-16T08:15:45Z</time>
      </trkpt>
      <trkpt lat="41.2473860" lon="-8.7246530">
        <ele>6.3</ele>
        <time>2021-05-16T08:15:46Z</time>
      </trkpt>
      <trkpt lat="41.2473950" lon="-8.7246500">
        <ele>6.3</ele>
        <time>2021-05-16T08:15:47Z</time>
      </trkpt>
      <trkpt lat="41.2474040" lon="-8.7246480">
        <ele>6.3</ele>
        <time>2021-05-16T08:15:48Z</time>
      </trkpt>
      <trkpt lat="41.2474160" lon="-8.7246480">
        <ele>6.3</ele>
        <time>2021-05-16T08:15:49Z</time>
      </trkpt>
      <trkpt lat="41.2474320" lon="-8.7246460">
        <ele>6.4</ele>
        <time>2021-05-16T08:15:50Z</time>
      </trkpt>
      <trkpt lat="41.2474660" lon="-8.7246480">
        <ele>6.4</ele>
        <time>2021-05-16T08:15:51Z</time>
      </trkpt>
      <trkpt lat="41.2474730" lon="-8.7246490">
        <ele>6.4</ele>
        <time>2021-05-16T08:15:52Z</time>
      </trkpt>
      <trkpt lat="41.2474870" lon="-8.7246420">
        <ele>6.4</ele>
        <time>2021-05-16T08:15:53Z</time>
      </trkpt>
      <trkpt lat="41.2475000" lon="-8.7246410">
        <ele>6.4</ele>
        <time>2021-05-16T08:15:54Z</time>
      </trkpt>
      <trkpt lat="41.2475140" lon="-8.7246380">
        <ele>6.4</ele>
        <time>2021-05-16T08:15:55Z</time>
      </trkpt>
      <trkpt lat="41.2475300" lon="-8.7246360">
        <ele>6.4</ele>
        <time>2021-05-16T08:15:56Z</time>
      </trkpt>
      <trkpt lat="41.2475530" lon="-8.7246370">
        <ele>6.4</ele>
        <time>2021-05-16T08:15:57Z</time>
      </trkpt>
      <trkpt lat="41.2475630" lon="-8.7246380">
        <ele>6.4</ele>
        <time>2021-05-16T08:15:58Z</time>
      </trkpt>
      <trkpt lat="41.2475720" lon="-8.7246380">
        <ele>6.4</ele>
        <time>2021-05-16T08:15:59Z</time>
      </trkpt>
      <trkpt lat="41.2475870" lon="-8.7246320">
        <ele>6.5</ele>
        <time>2021-05-16T08:16:00Z</time>
      </trkpt>
      <trkpt lat="41.2476000" lon="-8.7246280">
        <ele>6.5</ele>
        <time>2021-05-16T08:16:01Z</time>
      </trkpt>
      <trkpt lat="41.2476140" lon="-8.7246250">
        <ele>6.5</ele>
        <time>2021-05-16T08:16:02Z</time>
      </trkpt>
      <trkpt lat="41.2476290" lon="-8.7246240">
        <ele>6.5</ele>
        <time>2021-05-16T08:16:03Z</time>
      </trkpt>
      <trkpt lat="41.2476430" lon="-8.7246230">
        <ele>6.5</ele>
        <time>2021-05-16T08:16:04Z</time>
      </trkpt>
      <trkpt lat="41.2476590" lon="-8.7246190">
        <ele>6.5</ele>
        <time>2021-05-16T08:16:05Z</time>
      </trkpt>
      <trkpt lat="41.2476730" lon="-8.7246160">
        <ele>6.5</ele>
        <time>2021-05-16T08:16:06Z</time>
      </trkpt>
      <trkpt lat="41.2476870" lon="-8.7246150">
        <ele>6.5</ele>
        <time>2021-05-16T08:16:07Z</time>
      </trkpt>
      <trkpt lat="41.2477100" lon="-8.7246130">
        <ele>6.5</ele>
        <time>2021-05-16T08:16:08Z</time>
      </trkpt>
      <trkpt lat="41.2477190" lon="-8.7246130">
        <ele>6.5</ele>
        <time>2021-05-16T08:16:09Z</time>
      </trkpt>
      <trkpt lat="41.2477290" lon="-8.7246130">
        <ele>6.5</ele>
        <time>2021-05-16T08:16:10Z</time>
      </trkpt>
      <trkpt lat="41.2477430" lon="-8.7246080">
        <ele>6.5</ele>
        <time>2021-05-16T08:16:11Z</time>
      </trkpt>
      <trkpt lat="41.2477570" lon="-8.7246100">
        <ele>6.5</ele>
        <time>2021-05-16T08:16:12Z</time>
      </trkpt>
      <trkpt lat="41.2477700" lon="-8.7246070">
        <ele>6.5</ele>
        <time>2021-05-16T08:16:13Z</time>
      </trkpt>
      <trkpt lat="41.2477860" lon="-8.7246050">
        <ele>6.6</ele>
        <time>2021-05-16T08:16:14Z</time>
      </trkpt>
      <trkpt lat="41.2477990" lon="-8.7246020">
        <ele>6.6</ele>
        <time>2021-05-16T08:16:15Z</time>
      </trkpt>
      <trkpt lat="41.2478130" lon="-8.7246040">
        <ele>6.6</ele>
        <time>2021-05-16T08:16:16Z</time>
      </trkpt>
      <trkpt lat="41.2478270" lon="-8.7246030">
        <ele>6.6</ele>
        <time>2021-05-16T08:16:17Z</time>
      </trkpt>
      <trkpt lat="41.2478430" lon="-8.7246030">
        <ele>6.6</ele>
        <time>2021-05-16T08:16:18Z</time>
      </trkpt>
      <trkpt lat="41.2478590" lon="-8.7246010">
        <ele>6.6</ele>
        <time>2021-05-16T08:16:19Z</time>
      </trkpt>
      <trkpt lat="41.2478730" lon="-8.7246020">
        <ele>6.6</ele>
        <time>2021-05-16T08:16:20Z</time>
      </trkpt>
      <trkpt lat="41.2478880" lon="-8.7246020">
        <ele>6.6</ele>
        <time>2021-05-16T08:16:21Z</time>
      </trkpt>
      <trkpt lat="41.2479020" lon="-8.7246010">
        <ele>6.6</ele>
        <time>2021-05-16T08:16:22Z</time>
      </trkpt>
      <trkpt lat="41.2479180" lon="-8.7246000">
        <ele>6.6</ele>
        <time>2021-05-16T08:16:23Z</time>
      </trkpt>
      <trkpt lat="41.2479330" lon="-8.7245980">
        <ele>6.5</ele>
        <time>2021-05-16T08:16:25Z</time>
      </trkpt>
      <trkpt lat="41.2479470" lon="-8.7245990">
        <ele>6.5</ele>
        <time>2021-05-16T08:16:26Z</time>
      </trkpt>
      <trkpt lat="41.2479620" lon="-8.7245980">
        <ele>6.5</ele>
        <time>2021-05-16T08:16:27Z</time>
      </trkpt>
      <trkpt lat="41.2479770" lon="-8.7245930">
        <ele>6.5</ele>
        <time>2021-05-16T08:16:28Z</time>
      </trkpt>
      <trkpt lat="41.2479920" lon="-8.7245960">
        <ele>6.5</ele>
        <time>2021-05-16T08:16:29Z</time>
      </trkpt>
      <trkpt lat="41.2480070" lon="-8.7245970">
        <ele>6.5</ele>
        <time>2021-05-16T08:16:30Z</time>
      </trkpt>
      <trkpt lat="41.2480210" lon="-8.7245960">
        <ele>6.5</ele>
        <time>2021-05-16T08:16:31Z</time>
      </trkpt>
      <trkpt lat="41.2480360" lon="-8.7245930">
        <ele>6.5</ele>
        <time>2021-05-16T08:16:32Z</time>
      </trkpt>
      <trkpt lat="41.2480500" lon="-8.7245930">
        <ele>6.5</ele>
        <time>2021-05-16T08:16:33Z</time>
      </trkpt>
      <trkpt lat="41.2480620" lon="-8.7245960">
        <ele>6.5</ele>
        <time>2021-05-16T08:16:34Z</time>
      </trkpt>
      <trkpt lat="41.2480770" lon="-8.7245970">
        <ele>6.5</ele>
        <time>2021-05-16T08:16:35Z</time>
      </trkpt>
      <trkpt lat="41.2480900" lon="-8.7245950">
        <ele>6.5</ele>
        <time>2021-05-16T08:16:36Z</time>
      </trkpt>
      <trkpt lat="41.2481050" lon="-8.7245940">
        <ele>6.5</ele>
        <time>2021-05-16T08:16:37Z</time>
      </trkpt>
      <trkpt lat="41.2481190" lon="-8.7245940">
        <ele>6.5</ele>
        <time>2021-05-16T08:16:38Z</time>
      </trkpt>
      <trkpt lat="41.2481330" lon="-8.7245990">
        <ele>6.5</ele>
        <time>2021-05-16T08:16:39Z</time>
      </trkpt>
      <trkpt lat="41.2481480" lon="-8.7246020">
        <ele>6.5</ele>
        <time>2021-05-16T08:16:40Z</time>
      </trkpt>
      <trkpt lat="41.2481600" lon="-8.7246120">
        <ele>6.5</ele>
        <time>2021-05-16T08:16:41Z</time>
      </trkpt>
      <trkpt lat="41.2481740" lon="-8.7246170">
        <ele>6.5</ele>
        <time>2021-05-16T08:16:42Z</time>
      </trkpt>
      <trkpt lat="41.2481870" lon="-8.7246230">
        <ele>6.5</ele>
        <time>2021-05-16T08:16:43Z</time>
      </trkpt>
      <trkpt lat="41.2482040" lon="-8.7246310">
        <ele>6.5</ele>
        <time>2021-05-16T08:16:44Z</time>
      </trkpt>
      <trkpt lat="41.2482200" lon="-8.7246350">
        <ele>6.5</ele>
        <time>2021-05-16T08:16:45Z</time>
      </trkpt>
      <trkpt lat="41.2482360" lon="-8.7246330">
        <ele>6.4</ele>
        <time>2021-05-16T08:16:46Z</time>
      </trkpt>
      <trkpt lat="41.2482470" lon="-8.7246390">
        <ele>6.4</ele>
        <time>2021-05-16T08:16:47Z</time>
      </trkpt>
      <trkpt lat="41.2482600" lon="-8.7246480">
        <ele>6.4</ele>
        <time>2021-05-16T08:16:48Z</time>
      </trkpt>
      <trkpt lat="41.2482730" lon="-8.7246540">
        <ele>6.4</ele>
        <time>2021-05-16T08:16:49Z</time>
      </trkpt>
      <trkpt lat="41.2482890" lon="-8.7246550">
        <ele>6.4</ele>
        <time>2021-05-16T08:16:50Z</time>
      </trkpt>
      <trkpt lat="41.2483010" lon="-8.7246570">
        <ele>6.4</ele>
        <time>2021-05-16T08:16:51Z</time>
      </trkpt>
      <trkpt lat="41.2483160" lon="-8.7246570">
        <ele>6.4</ele>
        <time>2021-05-16T08:16:52Z</time>
      </trkpt>
      <trkpt lat="41.2483290" lon="-8.7246610">
        <ele>6.4</ele>
        <time>2021-05-16T08:16:53Z</time>
      </trkpt>
      <trkpt lat="41.2483450" lon="-8.7246640">
        <ele>6.4</ele>
        <time>2021-05-16T08:16:54Z</time>
      </trkpt>
      <trkpt lat="41.2483570" lon="-8.7246700">
        <ele>6.4</ele>
        <time>2021-05-16T08:16:55Z</time>
      </trkpt>
      <trkpt lat="41.2483710" lon="-8.7246820">
        <ele>6.4</ele>
        <time>2021-05-16T08:16:56Z</time>
      </trkpt>
      <trkpt lat="41.2483820" lon="-8.7246920">
        <ele>6.4</ele>
        <time>2021-05-16T08:16:57Z</time>
      </trkpt>
      <trkpt lat="41.2483970" lon="-8.7246920">
        <ele>6.4</ele>
        <time>2021-05-16T08:16:58Z</time>
      </trkpt>
      <trkpt lat="41.2484110" lon="-8.7246920">
        <ele>6.4</ele>
        <time>2021-05-16T08:16:59Z</time>
      </trkpt>
      <trkpt lat="41.2484260" lon="-8.7246980">
        <ele>6.4</ele>
        <time>2021-05-16T08:17:00Z</time>
      </trkpt>
      <trkpt lat="41.2484410" lon="-8.7247010">
        <ele>6.4</ele>
        <time>2021-05-16T08:17:01Z</time>
      </trkpt>
      <trkpt lat="41.2484560" lon="-8.7247030">
        <ele>6.4</ele>
        <time>2021-05-16T08:17:02Z</time>
      </trkpt>
      <trkpt lat="41.2484700" lon="-8.7247120">
        <ele>6.3</ele>
        <time>2021-05-16T08:17:03Z</time>
      </trkpt>
      <trkpt lat="41.2484800" lon="-8.7247210">
        <ele>6.3</ele>
        <time>2021-05-16T08:17:04Z</time>
      </trkpt>
      <trkpt lat="41.2484910" lon="-8.7247270">
        <ele>6.3</ele>
        <time>2021-05-16T08:17:05Z</time>
      </trkpt>
      <trkpt lat="41.2484990" lon="-8.7247320">
        <ele>6.3</ele>
        <time>2021-05-16T08:17:06Z</time>
      </trkpt>
      <trkpt lat="41.2484970" lon="-8.7247350">
        <ele>6.3</ele>
        <time>2021-05-16T08:17:07Z</time>
      </trkpt>
      <trkpt lat="41.2484900" lon="-8.7247340">
        <ele>6.3</ele>
        <time>2021-05-16T08:17:08Z</time>
      </trkpt>
      <trkpt lat="41.2484870" lon="-8.7247340">
        <ele>6.3</ele>
        <time>2021-05-16T08:17:09Z</time>
      </trkpt>
      <trkpt lat="41.2484860" lon="-8.7247340">
        <ele>6.3</ele>
        <time>2021-05-16T08:17:10Z</time>
      </trkpt>
      <trkpt lat="41.2484850" lon="-8.7247340">
        <ele>6.3</ele>
        <time>2021-05-16T08:17:11Z</time>
      </trkpt>
      <trkpt lat="41.2484850" lon="-8.7247340">
        <ele>6.3</ele>
        <time>2021-05-16T08:17:12Z</time>
      </trkpt>
      <trkpt lat="41.2484850" lon="-8.7247340">
        <ele>6.3</ele>
        <time>2021-05-16T08:17:13Z</time>
      </trkpt>
      <trkpt lat="41.2484800" lon="-8.7247350">
        <ele>6.3</ele>
        <time>2021-05-16T08:17:14Z</time>
      </trkpt>
      <trkpt lat="41.2484800" lon="-8.7247350">
        <ele>6.3</ele>
        <time>2021-05-16T08:17:15Z</time>
      </trkpt>
      <trkpt lat="41.2484800" lon="-8.7247350">
        <ele>6.3</ele>
        <time>2021-05-16T08:17:16Z</time>
      </trkpt>
      <trkpt lat="41.2484800" lon="-8.7247350">
        <ele>6.3</ele>
        <time>2021-05-16T08:17:17Z</time>
      </trkpt>
      <trkpt lat="41.2484800" lon="-8.7247350">
        <ele>6.3</ele>
        <time>2021-05-16T08:17:18Z</time>
      </trkpt>
      <trkpt lat="41.2484810" lon="-8.7247360">
        <ele>6.3</ele>
        <time>2021-05-16T08:17:19Z</time>
      </trkpt>
      <trkpt lat="41.2484810" lon="-8.7247360">
        <ele>6.3</ele>
        <time>2021-05-16T08:17:20Z</time>
      </trkpt>
      <trkpt lat="41.2484790" lon="-8.7247350">
        <ele>6.3</ele>
        <time>2021-05-16T08:17:21Z</time>
      </trkpt>
      <trkpt lat="41.2484790" lon="-8.7247350">
        <ele>6.3</ele>
        <time>2021-05-16T08:17:22Z</time>
      </trkpt>
      <trkpt lat="41.2484790" lon="-8.7247340">
        <ele>6.3</ele>
        <time>2021-05-16T08:17:23Z</time>
      </trkpt>
      <trkpt lat="41.2484790" lon="-8.7247340">
        <ele>6.3</ele>
        <time>2021-05-16T08:17:24Z</time>
      </trkpt>
      <trkpt lat="41.2484800" lon="-8.7247340">
        <ele>6.3</ele>
        <time>2021-05-16T08:17:25Z</time>
      </trkpt>
      <trkpt lat="41.2484800" lon="-8.7247340">
        <ele>6.3</ele>
        <time>2021-05-16T08:17:26Z</time>
      </trkpt>
      <trkpt lat="41.2484800" lon="-8.7247340">
        <ele>6.3</ele>
        <time>2021-05-16T08:17:27Z</time>
      </trkpt>
      <trkpt lat="41.2484770" lon="-8.7247350">
        <ele>6.3</ele>
        <time>2021-05-16T08:17:28Z</time>
      </trkpt>
      <trkpt lat="41.2484770" lon="-8.7247350">
        <ele>6.3</ele>
        <time>2021-05-16T08:17:29Z</time>
      </trkpt>
      <trkpt lat="41.2484770" lon="-8.7247350">
        <ele>6.3</ele>
        <time>2021-05-16T08:17:30Z</time>
      </trkpt>
      <trkpt lat="41.2484730" lon="-8.7247380">
        <ele>6.3</ele>
        <time>2021-05-16T08:17:31Z</time>
      </trkpt>
      <trkpt lat="41.2484730" lon="-8.7247380">
        <ele>6.3</ele>
        <time>2021-05-16T08:17:32Z</time>
      </trkpt>
      <trkpt lat="41.2484730" lon="-8.7247380">
        <ele>6.3</ele>
        <time>2021-05-16T08:17:33Z</time>
      </trkpt>
      <trkpt lat="41.2484740" lon="-8.7247400">
        <ele>6.3</ele>
        <time>2021-05-16T08:17:34Z</time>
      </trkpt>
      <trkpt lat="41.2484730" lon="-8.7247390">
        <ele>6.3</ele>
        <time>2021-05-16T08:17:35Z</time>
      </trkpt>
      <trkpt lat="41.2484730" lon="-8.7247390">
        <ele>6.3</ele>
        <time>2021-05-16T08:17:36Z</time>
      </trkpt>
      <trkpt lat="41.2484720" lon="-8.7247390">
        <ele>6.3</ele>
        <time>2021-05-16T08:17:37Z</time>
      </trkpt>
      <trkpt lat="41.2484720" lon="-8.7247390">
        <ele>6.3</ele>
        <time>2021-05-16T08:17:38Z</time>
      </trkpt>
      <trkpt lat="41.2484720" lon="-8.7247390">
        <ele>6.3</ele>
        <time>2021-05-16T08:17:39Z</time>
      </trkpt>
      <trkpt lat="41.2484720" lon="-8.7247390">
        <ele>6.3</ele>
        <time>2021-05-16T08:17:40Z</time>
      </trkpt>
      <trkpt lat="41.2484660" lon="-8.7247360">
        <ele>6.3</ele>
        <time>2021-05-16T08:17:41Z</time>
      </trkpt>
      <trkpt lat="41.2484670" lon="-8.7247350">
        <ele>6.3</ele>
        <time>2021-05-16T08:17:42Z</time>
      </trkpt>
      <trkpt lat="41.2484750" lon="-8.7247370">
        <ele>6.3</ele>
        <time>2021-05-16T08:17:43Z</time>
      </trkpt>
      <trkpt lat="41.2484860" lon="-8.7247400">
        <ele>6.3</ele>
        <time>2021-05-16T08:17:44Z</time>
      </trkpt>
      <trkpt lat="41.2484980" lon="-8.7247390">
        <ele>6.3</ele>
        <time>2021-05-16T08:17:45Z</time>
      </trkpt>
      <trkpt lat="41.2485160" lon="-8.7247380">
        <ele>6.3</ele>
        <time>2021-05-16T08:17:46Z</time>
      </trkpt>
      <trkpt lat="41.2485200" lon="-8.7247430">
        <ele>6.3</ele>
        <time>2021-05-16T08:17:47Z</time>
      </trkpt>
      <trkpt lat="41.2485320" lon="-8.7247460">
        <ele>6.3</ele>
        <time>2021-05-16T08:17:48Z</time>
      </trkpt>
      <trkpt lat="41.2485480" lon="-8.7247540">
        <ele>6.2</ele>
        <time>2021-05-16T08:17:49Z</time>
      </trkpt>
      <trkpt lat="41.2485600" lon="-8.7247500">
        <ele>6.2</ele>
        <time>2021-05-16T08:17:50Z</time>
      </trkpt>
      <trkpt lat="41.2485810" lon="-8.7247560">
        <ele>6.2</ele>
        <time>2021-05-16T08:17:51Z</time>
      </trkpt>
      <trkpt lat="41.2485920" lon="-8.7247560">
        <ele>6.2</ele>
        <time>2021-05-16T08:17:52Z</time>
      </trkpt>
      <trkpt lat="41.2486030" lon="-8.7247550">
        <ele>6.2</ele>
        <time>2021-05-16T08:17:53Z</time>
      </trkpt>
      <trkpt lat="41.2486130" lon="-8.7247560">
        <ele>6.2</ele>
        <time>2021-05-16T08:17:54Z</time>
      </trkpt>
      <trkpt lat="41.2486230" lon="-8.7247570">
        <ele>6.2</ele>
        <time>2021-05-16T08:17:55Z</time>
      </trkpt>
      <trkpt lat="41.2486390" lon="-8.7247590">
        <ele>6.2</ele>
        <time>2021-05-16T08:17:56Z</time>
      </trkpt>
      <trkpt lat="41.2486500" lon="-8.7247610">
        <ele>6.2</ele>
        <time>2021-05-16T08:17:57Z</time>
      </trkpt>
      <trkpt lat="41.2486660" lon="-8.7247550">
        <ele>6.2</ele>
        <time>2021-05-16T08:17:58Z</time>
      </trkpt>
      <trkpt lat="41.2486770" lon="-8.7247580">
        <ele>6.2</ele>
        <time>2021-05-16T08:17:59Z</time>
      </trkpt>
      <trkpt lat="41.2486870" lon="-8.7247530">
        <ele>6.2</ele>
        <time>2021-05-16T08:18:00Z</time>
      </trkpt>
      <trkpt lat="41.2487010" lon="-8.7247510">
        <ele>6.2</ele>
        <time>2021-05-16T08:18:01Z</time>
      </trkpt>
      <trkpt lat="41.2487140" lon="-8.7247430">
        <ele>6.2</ele>
        <time>2021-05-16T08:18:02Z</time>
      </trkpt>
      <trkpt lat="41.2487290" lon="-8.7247430">
        <ele>6.2</ele>
        <time>2021-05-16T08:18:03Z</time>
      </trkpt>
      <trkpt lat="41.2487480" lon="-8.7247300">
        <ele>6.1</ele>
        <time>2021-05-16T08:18:04Z</time>
      </trkpt>
      <trkpt lat="41.2487550" lon="-8.7247270">
        <ele>6.1</ele>
        <time>2021-05-16T08:18:05Z</time>
      </trkpt>
      <trkpt lat="41.2487630" lon="-8.7247230">
        <ele>6.1</ele>
        <time>2021-05-16T08:18:06Z</time>
      </trkpt>
      <trkpt lat="41.2487720" lon="-8.7247220">
        <ele>6.1</ele>
        <time>2021-05-16T08:18:07Z</time>
      </trkpt>
      <trkpt lat="41.2487850" lon="-8.7247150">
        <ele>6.1</ele>
        <time>2021-05-16T08:18:08Z</time>
      </trkpt>
      <trkpt lat="41.2487930" lon="-8.7247170">
        <ele>6.1</ele>
        <time>2021-05-16T08:18:09Z</time>
      </trkpt>
      <trkpt lat="41.2488030" lon="-8.7247130">
        <ele>6.1</ele>
        <time>2021-05-16T08:18:10Z</time>
      </trkpt>
      <trkpt lat="41.2488170" lon="-8.7247090">
        <ele>6.1</ele>
        <time>2021-05-16T08:18:11Z</time>
      </trkpt>
      <trkpt lat="41.2488240" lon="-8.7247010">
        <ele>6.1</ele>
        <time>2021-05-16T08:18:12Z</time>
      </trkpt>
      <trkpt lat="41.2488370" lon="-8.7246970">
        <ele>6.1</ele>
        <time>2021-05-16T08:18:13Z</time>
      </trkpt>
      <trkpt lat="41.2488510" lon="-8.7246880">
        <ele>6.1</ele>
        <time>2021-05-16T08:18:14Z</time>
      </trkpt>
      <trkpt lat="41.2488680" lon="-8.7246750">
        <ele>6.1</ele>
        <time>2021-05-16T08:18:15Z</time>
      </trkpt>
      <trkpt lat="41.2488720" lon="-8.7246640">
        <ele>6.1</ele>
        <time>2021-05-16T08:18:16Z</time>
      </trkpt>
      <trkpt lat="41.2488770" lon="-8.7246540">
        <ele>6.1</ele>
        <time>2021-05-16T08:18:17Z</time>
      </trkpt>
      <trkpt lat="41.2488920" lon="-8.7246390">
        <ele>6.1</ele>
        <time>2021-05-16T08:18:18Z</time>
      </trkpt>
      <trkpt lat="41.2488980" lon="-8.7246290">
        <ele>6.0</ele>
        <time>2021-05-16T08:18:19Z</time>
      </trkpt>
      <trkpt lat="41.2489040" lon="-8.7246190">
        <ele>6.0</ele>
        <time>2021-05-16T08:18:20Z</time>
      </trkpt>
      <trkpt lat="41.2489150" lon="-8.7246040">
        <ele>6.0</ele>
        <time>2021-05-16T08:18:21Z</time>
      </trkpt>
      <trkpt lat="41.2489180" lon="-8.7245850">
        <ele>6.0</ele>
        <time>2021-05-16T08:18:22Z</time>
      </trkpt>
      <trkpt lat="41.2489280" lon="-8.7245610">
        <ele>6.0</ele>
        <time>2021-05-16T08:18:23Z</time>
      </trkpt>
      <trkpt lat="41.2489340" lon="-8.7245430">
        <ele>5.9</ele>
        <time>2021-05-16T08:18:24Z</time>
      </trkpt>
      <trkpt lat="41.2489460" lon="-8.7245290">
        <ele>5.9</ele>
        <time>2021-05-16T08:18:25Z</time>
      </trkpt>
      <trkpt lat="41.2489530" lon="-8.7245100">
        <ele>5.9</ele>
        <time>2021-05-16T08:18:26Z</time>
      </trkpt>
      <trkpt lat="41.2489610" lon="-8.7244890">
        <ele>5.8</ele>
        <time>2021-05-16T08:18:27Z</time>
      </trkpt>
      <trkpt lat="41.2489740" lon="-8.7244740">
        <ele>5.8</ele>
        <time>2021-05-16T08:18:28Z</time>
      </trkpt>
      <trkpt lat="41.2489800" lon="-8.7244560">
        <ele>5.8</ele>
        <time>2021-05-16T08:18:29Z</time>
      </trkpt>
      <trkpt lat="41.2489890" lon="-8.7244410">
        <ele>5.7</ele>
        <time>2021-05-16T08:18:30Z</time>
      </trkpt>
      <trkpt lat="41.2489970" lon="-8.7244230">
        <ele>5.7</ele>
        <time>2021-05-16T08:18:31Z</time>
      </trkpt>
      <trkpt lat="41.2490010" lon="-8.7244060">
        <ele>5.7</ele>
        <time>2021-05-16T08:18:32Z</time>
      </trkpt>
      <trkpt lat="41.2490080" lon="-8.7243890">
        <ele>5.6</ele>
        <time>2021-05-16T08:18:33Z</time>
      </trkpt>
      <trkpt lat="41.2490140" lon="-8.7243730">
        <ele>5.6</ele>
        <time>2021-05-16T08:18:34Z</time>
      </trkpt>
      <trkpt lat="41.2490200" lon="-8.7243520">
        <ele>5.5</ele>
        <time>2021-05-16T08:18:35Z</time>
      </trkpt>
      <trkpt lat="41.2490230" lon="-8.7243330">
        <ele>5.5</ele>
        <time>2021-05-16T08:18:36Z</time>
      </trkpt>
      <trkpt lat="41.2490310" lon="-8.7243160">
        <ele>5.5</ele>
        <time>2021-05-16T08:18:37Z</time>
      </trkpt>
      <trkpt lat="41.2490400" lon="-8.7242980">
        <ele>5.4</ele>
        <time>2021-05-16T08:18:38Z</time>
      </trkpt>
      <trkpt lat="41.2490480" lon="-8.7242820">
        <ele>5.4</ele>
        <time>2021-05-16T08:18:39Z</time>
      </trkpt>
      <trkpt lat="41.2490610" lon="-8.7242690">
        <ele>5.3</ele>
        <time>2021-05-16T08:18:40Z</time>
      </trkpt>
      <trkpt lat="41.2490690" lon="-8.7242540">
        <ele>5.3</ele>
        <time>2021-05-16T08:18:41Z</time>
      </trkpt>
      <trkpt lat="41.2490800" lon="-8.7242380">
        <ele>5.2</ele>
        <time>2021-05-16T08:18:42Z</time>
      </trkpt>
      <trkpt lat="41.2490870" lon="-8.7242190">
        <ele>5.2</ele>
        <time>2021-05-16T08:18:43Z</time>
      </trkpt>
      <trkpt lat="41.2490960" lon="-8.7242040">
        <ele>5.2</ele>
        <time>2021-05-16T08:18:44Z</time>
      </trkpt>
      <trkpt lat="41.2490980" lon="-8.7241840">
        <ele>5.1</ele>
        <time>2021-05-16T08:18:45Z</time>
      </trkpt>
      <trkpt lat="41.2491060" lon="-8.7241690">
        <ele>5.1</ele>
        <time>2021-05-16T08:18:46Z</time>
      </trkpt>
      <trkpt lat="41.2491140" lon="-8.7241530">
        <ele>5.0</ele>
        <time>2021-05-16T08:18:47Z</time>
      </trkpt>
      <trkpt lat="41.2491200" lon="-8.7241350">
        <ele>5.0</ele>
        <time>2021-05-16T08:18:48Z</time>
      </trkpt>
      <trkpt lat="41.2491290" lon="-8.7241270">
        <ele>5.0</ele>
        <time>2021-05-16T08:18:49Z</time>
      </trkpt>
      <trkpt lat="41.2491470" lon="-8.7241230">
        <ele>4.9</ele>
        <time>2021-05-16T08:18:50Z</time>
      </trkpt>
      <trkpt lat="41.2491760" lon="-8.7241300">
        <ele>4.9</ele>
        <time>2021-05-16T08:18:51Z</time>
      </trkpt>
      <trkpt lat="41.2491840" lon="-8.7241350">
        <ele>4.8</ele>
        <time>2021-05-16T08:18:52Z</time>
      </trkpt>
      <trkpt lat="41.2492000" lon="-8.7241320">
        <ele>4.8</ele>
        <time>2021-05-16T08:18:53Z</time>
      </trkpt>
      <trkpt lat="41.2492160" lon="-8.7241340">
        <ele>4.8</ele>
        <time>2021-05-16T08:18:54Z</time>
      </trkpt>
      <trkpt lat="41.2492320" lon="-8.7241330">
        <ele>4.8</ele>
        <time>2021-05-16T08:18:55Z</time>
      </trkpt>
      <trkpt lat="41.2492480" lon="-8.7241400">
        <ele>4.7</ele>
        <time>2021-05-16T08:18:56Z</time>
      </trkpt>
      <trkpt lat="41.2492630" lon="-8.7241430">
        <ele>4.7</ele>
        <time>2021-05-16T08:18:57Z</time>
      </trkpt>
      <trkpt lat="41.2492780" lon="-8.7241450">
        <ele>4.7</ele>
        <time>2021-05-16T08:18:58Z</time>
      </trkpt>
      <trkpt lat="41.2492950" lon="-8.7241360">
        <ele>4.7</ele>
        <time>2021-05-16T08:18:59Z</time>
      </trkpt>
      <trkpt lat="41.2492990" lon="-8.7241310">
        <ele>4.7</ele>
        <time>2021-05-16T08:19:00Z</time>
      </trkpt>
      <trkpt lat="41.2493040" lon="-8.7241250">
        <ele>4.7</ele>
        <time>2021-05-16T08:19:01Z</time>
      </trkpt>
      <trkpt lat="41.2493080" lon="-8.7241200">
        <ele>4.7</ele>
        <time>2021-05-16T08:19:02Z</time>
      </trkpt>
      <trkpt lat="41.2493120" lon="-8.7241150">
        <ele>4.7</ele>
        <time>2021-05-16T08:19:03Z</time>
      </trkpt>
      <trkpt lat="41.2493300" lon="-8.7241120">
        <ele>4.7</ele>
        <time>2021-05-16T08:19:04Z</time>
      </trkpt>
      <trkpt lat="41.2493390" lon="-8.7241080">
        <ele>4.7</ele>
        <time>2021-05-16T08:19:05Z</time>
      </trkpt>
      <trkpt lat="41.2493490" lon="-8.7241050">
        <ele>4.7</ele>
        <time>2021-05-16T08:19:06Z</time>
      </trkpt>
      <trkpt lat="41.2493640" lon="-8.7241000">
        <ele>4.7</ele>
        <time>2021-05-16T08:19:07Z</time>
      </trkpt>
      <trkpt lat="41.2493780" lon="-8.7240960">
        <ele>4.7</ele>
        <time>2021-05-16T08:19:08Z</time>
      </trkpt>
      <trkpt lat="41.2494000" lon="-8.7240890">
        <ele>4.7</ele>
        <time>2021-05-16T08:19:09Z</time>
      </trkpt>
      <trkpt lat="41.2494080" lon="-8.7240850">
        <ele>4.7</ele>
        <time>2021-05-16T08:19:10Z</time>
      </trkpt>
      <trkpt lat="41.2494170" lon="-8.7240810">
        <ele>4.7</ele>
        <time>2021-05-16T08:19:11Z</time>
      </trkpt>
      <trkpt lat="41.2494300" lon="-8.7240750">
        <ele>4.7</ele>
        <time>2021-05-16T08:19:12Z</time>
      </trkpt>
      <trkpt lat="41.2494420" lon="-8.7240640">
        <ele>4.7</ele>
        <time>2021-05-16T08:19:13Z</time>
      </trkpt>
      <trkpt lat="41.2494570" lon="-8.7240600">
        <ele>4.7</ele>
        <time>2021-05-16T08:19:14Z</time>
      </trkpt>
      <trkpt lat="41.2494670" lon="-8.7240500">
        <ele>4.7</ele>
        <time>2021-05-16T08:19:15Z</time>
      </trkpt>
      <trkpt lat="41.2494850" lon="-8.7240400">
        <ele>5.0</ele>
        <time>2021-05-16T08:19:16Z</time>
      </trkpt>
      <trkpt lat="41.2494930" lon="-8.7240330">
        <ele>5.1</ele>
        <time>2021-05-16T08:19:17Z</time>
      </trkpt>
      <trkpt lat="41.2495000" lon="-8.7240270">
        <ele>5.1</ele>
        <time>2021-05-16T08:19:18Z</time>
      </trkpt>
      <trkpt lat="41.2495190" lon="-8.7240070">
        <ele>5.2</ele>
        <time>2021-05-16T08:19:19Z</time>
      </trkpt>
      <trkpt lat="41.2495240" lon="-8.7240010">
        <ele>5.5</ele>
        <time>2021-05-16T08:19:20Z</time>
      </trkpt>
      <trkpt lat="41.2495300" lon="-8.7239940">
        <ele>5.6</ele>
        <time>2021-05-16T08:19:21Z</time>
      </trkpt>
      <trkpt lat="41.2495430" lon="-8.7239720">
        <ele>5.6</ele>
        <time>2021-05-16T08:19:22Z</time>
      </trkpt>
      <trkpt lat="41.2495480" lon="-8.7239640">
        <ele>5.6</ele>
        <time>2021-05-16T08:19:23Z</time>
      </trkpt>
      <trkpt lat="41.2495540" lon="-8.7239550">
        <ele>6.0</ele>
        <time>2021-05-16T08:19:24Z</time>
      </trkpt>
      <trkpt lat="41.2495620" lon="-8.7239330">
        <ele>6.0</ele>
        <time>2021-05-16T08:19:25Z</time>
      </trkpt>
      <trkpt lat="41.2495600" lon="-8.7239180">
        <ele>6.1</ele>
        <time>2021-05-16T08:19:26Z</time>
      </trkpt>
      <trkpt lat="41.2495590" lon="-8.7238960">
        <ele>6.4</ele>
        <time>2021-05-16T08:19:27Z</time>
      </trkpt>
      <trkpt lat="41.2495550" lon="-8.7238760">
        <ele>6.4</ele>
        <time>2021-05-16T08:19:28Z</time>
      </trkpt>
      <trkpt lat="41.2495490" lon="-8.7238550">
        <ele>6.7</ele>
        <time>2021-05-16T08:19:29Z</time>
      </trkpt>
      <trkpt lat="41.2495490" lon="-8.7238350">
        <ele>6.7</ele>
        <time>2021-05-16T08:19:30Z</time>
      </trkpt>
      <trkpt lat="41.2495430" lon="-8.7238140">
        <ele>6.7</ele>
        <time>2021-05-16T08:19:31Z</time>
      </trkpt>
      <trkpt lat="41.2495450" lon="-8.7237930">
        <ele>6.7</ele>
        <time>2021-05-16T08:19:32Z</time>
      </trkpt>
      <trkpt lat="41.2495470" lon="-8.7237720">
        <ele>6.7</ele>
        <time>2021-05-16T08:19:33Z</time>
      </trkpt>
      <trkpt lat="41.2495550" lon="-8.7237530">
        <ele>6.7</ele>
        <time>2021-05-16T08:19:34Z</time>
      </trkpt>
      <trkpt lat="41.2495660" lon="-8.7237350">
        <ele>6.7</ele>
        <time>2021-05-16T08:19:35Z</time>
      </trkpt>
      <trkpt lat="41.2495810" lon="-8.7237240">
        <ele>6.7</ele>
        <time>2021-05-16T08:19:36Z</time>
      </trkpt>
      <trkpt lat="41.2496090" lon="-8.7237220">
        <ele>6.8</ele>
        <time>2021-05-16T08:19:37Z</time>
      </trkpt>
      <trkpt lat="41.2496190" lon="-8.7237240">
        <ele>6.8</ele>
        <time>2021-05-16T08:19:38Z</time>
      </trkpt>
      <trkpt lat="41.2496360" lon="-8.7237230">
        <ele>6.8</ele>
        <time>2021-05-16T08:19:39Z</time>
      </trkpt>
      <trkpt lat="41.2496560" lon="-8.7237230">
        <ele>6.8</ele>
        <time>2021-05-16T08:19:40Z</time>
      </trkpt>
      <trkpt lat="41.2496700" lon="-8.7237220">
        <ele>6.8</ele>
        <time>2021-05-16T08:19:41Z</time>
      </trkpt>
      <trkpt lat="41.2496870" lon="-8.7237190">
        <ele>6.8</ele>
        <time>2021-05-16T08:19:42Z</time>
      </trkpt>
      <trkpt lat="41.2497030" lon="-8.7237160">
        <ele>6.8</ele>
        <time>2021-05-16T08:19:43Z</time>
      </trkpt>
      <trkpt lat="41.2497200" lon="-8.7237130">
        <ele>6.8</ele>
        <time>2021-05-16T08:19:44Z</time>
      </trkpt>
      <trkpt lat="41.2497350" lon="-8.7237110">
        <ele>6.8</ele>
        <time>2021-05-16T08:19:45Z</time>
      </trkpt>
      <trkpt lat="41.2497500" lon="-8.7237050">
        <ele>6.8</ele>
        <time>2021-05-16T08:19:46Z</time>
      </trkpt>
      <trkpt lat="41.2497670" lon="-8.7237040">
        <ele>6.8</ele>
        <time>2021-05-16T08:19:47Z</time>
      </trkpt>
      <trkpt lat="41.2497820" lon="-8.7236940">
        <ele>6.8</ele>
        <time>2021-05-16T08:19:48Z</time>
      </trkpt>
      <trkpt lat="41.2497980" lon="-8.7236880">
        <ele>6.8</ele>
        <time>2021-05-16T08:19:49Z</time>
      </trkpt>
      <trkpt lat="41.2498130" lon="-8.7236890">
        <ele>6.8</ele>
        <time>2021-05-16T08:19:50Z</time>
      </trkpt>
      <trkpt lat="41.2498300" lon="-8.7236900">
        <ele>6.8</ele>
        <time>2021-05-16T08:19:51Z</time>
      </trkpt>
      <trkpt lat="41.2498450" lon="-8.7236930">
        <ele>6.9</ele>
        <time>2021-05-16T08:19:52Z</time>
      </trkpt>
      <trkpt lat="41.2498600" lon="-8.7236910">
        <ele>6.9</ele>
        <time>2021-05-16T08:19:53Z</time>
      </trkpt>
      <trkpt lat="41.2498750" lon="-8.7236900">
        <ele>6.9</ele>
        <time>2021-05-16T08:19:54Z</time>
      </trkpt>
      <trkpt lat="41.2498890" lon="-8.7236780">
        <ele>6.9</ele>
        <time>2021-05-16T08:19:55Z</time>
      </trkpt>
      <trkpt lat="41.2499040" lon="-8.7236730">
        <ele>6.9</ele>
        <time>2021-05-16T08:19:56Z</time>
      </trkpt>
      <trkpt lat="41.2499200" lon="-8.7236720">
        <ele>6.9</ele>
        <time>2021-05-16T08:19:57Z</time>
      </trkpt>
      <trkpt lat="41.2499330" lon="-8.7236740">
        <ele>7.0</ele>
        <time>2021-05-16T08:19:58Z</time>
      </trkpt>
      <trkpt lat="41.2499460" lon="-8.7236760">
        <ele>7.0</ele>
        <time>2021-05-16T08:19:59Z</time>
      </trkpt>
      <trkpt lat="41.2499600" lon="-8.7236740">
        <ele>7.0</ele>
        <time>2021-05-16T08:20:00Z</time>
      </trkpt>
      <trkpt lat="41.2499720" lon="-8.7236630">
        <ele>7.0</ele>
        <time>2021-05-16T08:20:01Z</time>
      </trkpt>
      <trkpt lat="41.2499860" lon="-8.7236580">
        <ele>7.0</ele>
        <time>2021-05-16T08:20:02Z</time>
      </trkpt>
      <trkpt lat="41.2500090" lon="-8.7236510">
        <ele>7.0</ele>
        <time>2021-05-16T08:20:03Z</time>
      </trkpt>
      <trkpt lat="41.2500180" lon="-8.7236500">
        <ele>7.0</ele>
        <time>2021-05-16T08:20:04Z</time>
      </trkpt>
      <trkpt lat="41.2500280" lon="-8.7236480">
        <ele>7.1</ele>
        <time>2021-05-16T08:20:05Z</time>
      </trkpt>
      <trkpt lat="41.2500410" lon="-8.7236440">
        <ele>7.1</ele>
        <time>2021-05-16T08:20:06Z</time>
      </trkpt>
      <trkpt lat="41.2500560" lon="-8.7236430">
        <ele>7.1</ele>
        <time>2021-05-16T08:20:07Z</time>
      </trkpt>
      <trkpt lat="41.2500700" lon="-8.7236380">
        <ele>7.1</ele>
        <time>2021-05-16T08:20:08Z</time>
      </trkpt>
      <trkpt lat="41.2500860" lon="-8.7236350">
        <ele>7.1</ele>
        <time>2021-05-16T08:20:09Z</time>
      </trkpt>
      <trkpt lat="41.2501010" lon="-8.7236380">
        <ele>7.1</ele>
        <time>2021-05-16T08:20:10Z</time>
      </trkpt>
      <trkpt lat="41.2501150" lon="-8.7236350">
        <ele>7.1</ele>
        <time>2021-05-16T08:20:11Z</time>
      </trkpt>
      <trkpt lat="41.2501300" lon="-8.7236360">
        <ele>7.1</ele>
        <time>2021-05-16T08:20:12Z</time>
      </trkpt>
      <trkpt lat="41.2501440" lon="-8.7236330">
        <ele>7.1</ele>
        <time>2021-05-16T08:20:13Z</time>
      </trkpt>
      <trkpt lat="41.2501580" lon="-8.7236260">
        <ele>7.2</ele>
        <time>2021-05-16T08:20:14Z</time>
      </trkpt>
      <trkpt lat="41.2501720" lon="-8.7236210">
        <ele>7.2</ele>
        <time>2021-05-16T08:20:15Z</time>
      </trkpt>
      <trkpt lat="41.2501940" lon="-8.7236180">
        <ele>7.2</ele>
        <time>2021-05-16T08:20:16Z</time>
      </trkpt>
      <trkpt lat="41.2502020" lon="-8.7236170">
        <ele>7.2</ele>
        <time>2021-05-16T08:20:17Z</time>
      </trkpt>
      <trkpt lat="41.2502110" lon="-8.7236150">
        <ele>7.2</ele>
        <time>2021-05-16T08:20:18Z</time>
      </trkpt>
      <trkpt lat="41.2502250" lon="-8.7236100">
        <ele>7.2</ele>
        <time>2021-05-16T08:20:19Z</time>
      </trkpt>
      <trkpt lat="41.2502400" lon="-8.7236130">
        <ele>7.2</ele>
        <time>2021-05-16T08:20:20Z</time>
      </trkpt>
      <trkpt lat="41.2502560" lon="-8.7236140">
        <ele>7.2</ele>
        <time>2021-05-16T08:20:21Z</time>
      </trkpt>
      <trkpt lat="41.2502710" lon="-8.7236010">
        <ele>7.2</ele>
        <time>2021-05-16T08:20:22Z</time>
      </trkpt>
      <trkpt lat="41.2502850" lon="-8.7235980">
        <ele>7.2</ele>
        <time>2021-05-16T08:20:23Z</time>
      </trkpt>
      <trkpt lat="41.2503010" lon="-8.7235980">
        <ele>7.2</ele>
        <time>2021-05-16T08:20:24Z</time>
      </trkpt>
      <trkpt lat="41.2503130" lon="-8.7235950">
        <ele>7.2</ele>
        <time>2021-05-16T08:20:25Z</time>
      </trkpt>
      <trkpt lat="41.2503290" lon="-8.7235930">
        <ele>7.2</ele>
        <time>2021-05-16T08:20:26Z</time>
      </trkpt>
      <trkpt lat="41.2503420" lon="-8.7235870">
        <ele>7.2</ele>
        <time>2021-05-16T08:20:27Z</time>
      </trkpt>
      <trkpt lat="41.2503540" lon="-8.7235750">
        <ele>7.2</ele>
        <time>2021-05-16T08:20:28Z</time>
      </trkpt>
      <trkpt lat="41.2503690" lon="-8.7235710">
        <ele>7.2</ele>
        <time>2021-05-16T08:20:29Z</time>
      </trkpt>
      <trkpt lat="41.2503840" lon="-8.7235710">
        <ele>7.2</ele>
        <time>2021-05-16T08:20:30Z</time>
      </trkpt>
      <trkpt lat="41.2503980" lon="-8.7235670">
        <ele>7.2</ele>
        <time>2021-05-16T08:20:31Z</time>
      </trkpt>
      <trkpt lat="41.2504110" lon="-8.7235640">
        <ele>7.2</ele>
        <time>2021-05-16T08:20:32Z</time>
      </trkpt>
      <trkpt lat="41.2504240" lon="-8.7235570">
        <ele>7.2</ele>
        <time>2021-05-16T08:20:33Z</time>
      </trkpt>
      <trkpt lat="41.2504380" lon="-8.7235570">
        <ele>7.2</ele>
        <time>2021-05-16T08:20:34Z</time>
      </trkpt>
      <trkpt lat="41.2504510" lon="-8.7235520">
        <ele>7.2</ele>
        <time>2021-05-16T08:20:35Z</time>
      </trkpt>
      <trkpt lat="41.2504660" lon="-8.7235500">
        <ele>7.2</ele>
        <time>2021-05-16T08:20:36Z</time>
      </trkpt>
      <trkpt lat="41.2504800" lon="-8.7235500">
        <ele>7.1</ele>
        <time>2021-05-16T08:20:37Z</time>
      </trkpt>
      <trkpt lat="41.2504950" lon="-8.7235540">
        <ele>7.1</ele>
        <time>2021-05-16T08:20:38Z</time>
      </trkpt>
      <trkpt lat="41.2505070" lon="-8.7235650">
        <ele>7.0</ele>
        <time>2021-05-16T08:20:39Z</time>
      </trkpt>
      <trkpt lat="41.2505160" lon="-8.7235790">
        <ele>7.0</ele>
        <time>2021-05-16T08:20:40Z</time>
      </trkpt>
      <trkpt lat="41.2505130" lon="-8.7236250">
        <ele>6.9</ele>
        <time>2021-05-16T08:20:41Z</time>
      </trkpt>
      <trkpt lat="41.2505100" lon="-8.7236370">
        <ele>6.9</ele>
        <time>2021-05-16T08:20:42Z</time>
      </trkpt>
      <trkpt lat="41.2505090" lon="-8.7236600">
        <ele>6.8</ele>
        <time>2021-05-16T08:20:43Z</time>
      </trkpt>
      <trkpt lat="41.2505120" lon="-8.7236810">
        <ele>6.8</ele>
        <time>2021-05-16T08:20:44Z</time>
      </trkpt>
      <trkpt lat="41.2505120" lon="-8.7237030">
        <ele>6.7</ele>
        <time>2021-05-16T08:20:45Z</time>
      </trkpt>
      <trkpt lat="41.2505090" lon="-8.7237220">
        <ele>6.7</ele>
        <time>2021-05-16T08:20:46Z</time>
      </trkpt>
      <trkpt lat="41.2505140" lon="-8.7237440">
        <ele>6.6</ele>
        <time>2021-05-16T08:20:47Z</time>
      </trkpt>
      <trkpt lat="41.2505130" lon="-8.7237630">
        <ele>6.6</ele>
        <time>2021-05-16T08:20:48Z</time>
      </trkpt>
      <trkpt lat="41.2505120" lon="-8.7237850">
        <ele>6.5</ele>
        <time>2021-05-16T08:20:49Z</time>
      </trkpt>
      <trkpt lat="41.2505140" lon="-8.7238040">
        <ele>6.5</ele>
        <time>2021-05-16T08:20:50Z</time>
      </trkpt>
      <trkpt lat="41.2505110" lon="-8.7238220">
        <ele>6.4</ele>
        <time>2021-05-16T08:20:51Z</time>
      </trkpt>
      <trkpt lat="41.2505140" lon="-8.7238430">
        <ele>6.4</ele>
        <time>2021-05-16T08:20:52Z</time>
      </trkpt>
      <trkpt lat="41.2505150" lon="-8.7238610">
        <ele>6.4</ele>
        <time>2021-05-16T08:20:53Z</time>
      </trkpt>
      <trkpt lat="41.2505050" lon="-8.7238790">
        <ele>6.4</ele>
        <time>2021-05-16T08:20:54Z</time>
      </trkpt>
      <trkpt lat="41.2505050" lon="-8.7238960">
        <ele>6.4</ele>
        <time>2021-05-16T08:20:55Z</time>
      </trkpt>
      <trkpt lat="41.2505130" lon="-8.7239070">
        <ele>6.4</ele>
        <time>2021-05-16T08:20:56Z</time>
      </trkpt>
      <trkpt lat="41.2505200" lon="-8.7239030">
        <ele>6.4</ele>
        <time>2021-05-16T08:20:57Z</time>
      </trkpt>
      <trkpt lat="41.2505360" lon="-8.7238980">
        <ele>6.4</ele>
        <time>2021-05-16T08:20:58Z</time>
      </trkpt>
      <trkpt lat="41.2505500" lon="-8.7238950">
        <ele>6.4</ele>
        <time>2021-05-16T08:20:59Z</time>
      </trkpt>
      <trkpt lat="41.2505630" lon="-8.7238900">
        <ele>6.4</ele>
        <time>2021-05-16T08:21:00Z</time>
      </trkpt>
      <trkpt lat="41.2505780" lon="-8.7238910">
        <ele>6.4</ele>
        <time>2021-05-16T08:21:01Z</time>
      </trkpt>
      <trkpt lat="41.2505920" lon="-8.7238920">
        <ele>6.5</ele>
        <time>2021-05-16T08:21:02Z</time>
      </trkpt>
      <trkpt lat="41.2506070" lon="-8.7238910">
        <ele>6.5</ele>
        <time>2021-05-16T08:21:03Z</time>
      </trkpt>
      <trkpt lat="41.2506230" lon="-8.7238900">
        <ele>6.5</ele>
        <time>2021-05-16T08:21:04Z</time>
      </trkpt>
      <trkpt lat="41.2506390" lon="-8.7238840">
        <ele>6.5</ele>
        <time>2021-05-16T08:21:05Z</time>
      </trkpt>
      <trkpt lat="41.2506530" lon="-8.7238840">
        <ele>6.5</ele>
        <time>2021-05-16T08:21:06Z</time>
      </trkpt>
      <trkpt lat="41.2506680" lon="-8.7238810">
        <ele>6.5</ele>
        <time>2021-05-16T08:21:07Z</time>
      </trkpt>
      <trkpt lat="41.2506850" lon="-8.7238780">
        <ele>6.5</ele>
        <time>2021-05-16T08:21:08Z</time>
      </trkpt>
      <trkpt lat="41.2507010" lon="-8.7238810">
        <ele>6.5</ele>
        <time>2021-05-16T08:21:09Z</time>
      </trkpt>
      <trkpt lat="41.2507160" lon="-8.7238780">
        <ele>6.5</ele>
        <time>2021-05-16T08:21:10Z</time>
      </trkpt>
      <trkpt lat="41.2507290" lon="-8.7238760">
        <ele>6.6</ele>
        <time>2021-05-16T08:21:11Z</time>
      </trkpt>
      <trkpt lat="41.2507400" lon="-8.7238710">
        <ele>6.6</ele>
        <time>2021-05-16T08:21:12Z</time>
      </trkpt>
      <trkpt lat="41.2507520" lon="-8.7238710">
        <ele>6.6</ele>
        <time>2021-05-16T08:21:13Z</time>
      </trkpt>
      <trkpt lat="41.2507640" lon="-8.7238640">
        <ele>6.6</ele>
        <time>2021-05-16T08:21:14Z</time>
      </trkpt>
      <trkpt lat="41.2507790" lon="-8.7238650">
        <ele>6.6</ele>
        <time>2021-05-16T08:21:15Z</time>
      </trkpt>
      <trkpt lat="41.2507940" lon="-8.7238640">
        <ele>6.6</ele>
        <time>2021-05-16T08:21:16Z</time>
      </trkpt>
      <trkpt lat="41.2508070" lon="-8.7238640">
        <ele>6.6</ele>
        <time>2021-05-16T08:21:17Z</time>
      </trkpt>
      <trkpt lat="41.2508270" lon="-8.7238610">
        <ele>6.6</ele>
        <time>2021-05-16T08:21:18Z</time>
      </trkpt>
      <trkpt lat="41.2508360" lon="-8.7238610">
        <ele>6.6</ele>
        <time>2021-05-16T08:21:19Z</time>
      </trkpt>
      <trkpt lat="41.2508440" lon="-8.7238620">
        <ele>6.6</ele>
        <time>2021-05-16T08:21:20Z</time>
      </trkpt>
      <trkpt lat="41.2508590" lon="-8.7238590">
        <ele>6.7</ele>
        <time>2021-05-16T08:21:21Z</time>
      </trkpt>
      <trkpt lat="41.2508710" lon="-8.7238570">
        <ele>6.7</ele>
        <time>2021-05-16T08:21:22Z</time>
      </trkpt>
      <trkpt lat="41.2508850" lon="-8.7238510">
        <ele>6.7</ele>
        <time>2021-05-16T08:21:23Z</time>
      </trkpt>
      <trkpt lat="41.2508940" lon="-8.7238500">
        <ele>6.7</ele>
        <time>2021-05-16T08:21:24Z</time>
      </trkpt>
      <trkpt lat="41.2509010" lon="-8.7238510">
        <ele>6.7</ele>
        <time>2021-05-16T08:21:25Z</time>
      </trkpt>
      <trkpt lat="41.2508910" lon="-8.7238560">
        <ele>6.7</ele>
        <time>2021-05-16T08:21:26Z</time>
      </trkpt>
      <trkpt lat="41.2508850" lon="-8.7238580">
        <ele>6.7</ele>
        <time>2021-05-16T08:21:27Z</time>
      </trkpt>
      <trkpt lat="41.2508850" lon="-8.7238610">
        <ele>6.7</ele>
        <time>2021-05-16T08:21:28Z</time>
      </trkpt>
      <trkpt lat="41.2508850" lon="-8.7238610">
        <ele>6.7</ele>
        <time>2021-05-16T08:21:29Z</time>
      </trkpt>
      <trkpt lat="41.2508840" lon="-8.7238620">
        <ele>6.7</ele>
        <time>2021-05-16T08:21:30Z</time>
      </trkpt>
      <trkpt lat="41.2508830" lon="-8.7238620">
        <ele>6.7</ele>
        <time>2021-05-16T08:21:31Z</time>
      </trkpt>
      <trkpt lat="41.2508820" lon="-8.7238600">
        <ele>6.7</ele>
        <time>2021-05-16T08:21:32Z</time>
      </trkpt>
      <trkpt lat="41.2508800" lon="-8.7238590">
        <ele>6.7</ele>
        <time>2021-05-16T08:21:33Z</time>
      </trkpt>
      <trkpt lat="41.2508800" lon="-8.7238560">
        <ele>6.7</ele>
        <time>2021-05-16T08:21:34Z</time>
      </trkpt>
      <trkpt lat="41.2508860" lon="-8.7238540">
        <ele>6.7</ele>
        <time>2021-05-16T08:21:35Z</time>
      </trkpt>
      <trkpt lat="41.2509030" lon="-8.7238540">
        <ele>6.7</ele>
        <time>2021-05-16T08:21:36Z</time>
      </trkpt>
      <trkpt lat="41.2509140" lon="-8.7238480">
        <ele>6.7</ele>
        <time>2021-05-16T08:21:37Z</time>
      </trkpt>
      <trkpt lat="41.2509290" lon="-8.7238420">
        <ele>6.7</ele>
        <time>2021-05-16T08:21:38Z</time>
      </trkpt>
      <trkpt lat="41.2509410" lon="-8.7238430">
        <ele>6.7</ele>
        <time>2021-05-16T08:21:39Z</time>
      </trkpt>
      <trkpt lat="41.2509520" lon="-8.7238450">
        <ele>6.7</ele>
        <time>2021-05-16T08:21:40Z</time>
      </trkpt>
      <trkpt lat="41.2509650" lon="-8.7238390">
        <ele>6.7</ele>
        <time>2021-05-16T08:21:41Z</time>
      </trkpt>
      <trkpt lat="41.2509830" lon="-8.7238340">
        <ele>6.8</ele>
        <time>2021-05-16T08:21:42Z</time>
      </trkpt>
      <trkpt lat="41.2509950" lon="-8.7238330">
        <ele>6.8</ele>
        <time>2021-05-16T08:21:43Z</time>
      </trkpt>
      <trkpt lat="41.2510100" lon="-8.7238370">
        <ele>6.8</ele>
        <time>2021-05-16T08:21:44Z</time>
      </trkpt>
      <trkpt lat="41.2510250" lon="-8.7238380">
        <ele>6.8</ele>
        <time>2021-05-16T08:21:45Z</time>
      </trkpt>
      <trkpt lat="41.2510370" lon="-8.7238340">
        <ele>6.8</ele>
        <time>2021-05-16T08:21:46Z</time>
      </trkpt>
      <trkpt lat="41.2510520" lon="-8.7238290">
        <ele>6.8</ele>
        <time>2021-05-16T08:21:47Z</time>
      </trkpt>
      <trkpt lat="41.2510690" lon="-8.7238280">
        <ele>6.8</ele>
        <time>2021-05-16T08:21:48Z</time>
      </trkpt>
      <trkpt lat="41.2510820" lon="-8.7238230">
        <ele>6.8</ele>
        <time>2021-05-16T08:21:49Z</time>
      </trkpt>
      <trkpt lat="41.2510990" lon="-8.7238170">
        <ele>6.8</ele>
        <time>2021-05-16T08:21:50Z</time>
      </trkpt>
      <trkpt lat="41.2511110" lon="-8.7238090">
        <ele>6.8</ele>
        <time>2021-05-16T08:21:51Z</time>
      </trkpt>
      <trkpt lat="41.2511270" lon="-8.7238090">
        <ele>6.8</ele>
        <time>2021-05-16T08:21:52Z</time>
      </trkpt>
      <trkpt lat="41.2511400" lon="-8.7238090">
        <ele>6.8</ele>
        <time>2021-05-16T08:21:53Z</time>
      </trkpt>
      <trkpt lat="41.2511530" lon="-8.7238080">
        <ele>6.8</ele>
        <time>2021-05-16T08:21:54Z</time>
      </trkpt>
      <trkpt lat="41.2511700" lon="-8.7238030">
        <ele>6.8</ele>
        <time>2021-05-16T08:21:55Z</time>
      </trkpt>
      <trkpt lat="41.2511850" lon="-8.7238060">
        <ele>6.8</ele>
        <time>2021-05-16T08:21:56Z</time>
      </trkpt>
      <trkpt lat="41.2511990" lon="-8.7238050">
        <ele>6.8</ele>
        <time>2021-05-16T08:21:57Z</time>
      </trkpt>
      <trkpt lat="41.2512120" lon="-8.7238010">
        <ele>6.8</ele>
        <time>2021-05-16T08:21:58Z</time>
      </trkpt>
      <trkpt lat="41.2512290" lon="-8.7238060">
        <ele>6.8</ele>
        <time>2021-05-16T08:21:59Z</time>
      </trkpt>
      <trkpt lat="41.2512430" lon="-8.7238030">
        <ele>6.8</ele>
        <time>2021-05-16T08:22:00Z</time>
      </trkpt>
      <trkpt lat="41.2512580" lon="-8.7238020">
        <ele>6.8</ele>
        <time>2021-05-16T08:22:01Z</time>
      </trkpt>
      <trkpt lat="41.2512730" lon="-8.7237980">
        <ele>6.8</ele>
        <time>2021-05-16T08:22:02Z</time>
      </trkpt>
      <trkpt lat="41.2512890" lon="-8.7237920">
        <ele>6.8</ele>
        <time>2021-05-16T08:22:03Z</time>
      </trkpt>
      <trkpt lat="41.2513020" lon="-8.7237910">
        <ele>6.8</ele>
        <time>2021-05-16T08:22:04Z</time>
      </trkpt>
      <trkpt lat="41.2513190" lon="-8.7237920">
        <ele>6.8</ele>
        <time>2021-05-16T08:22:05Z</time>
      </trkpt>
      <trkpt lat="41.2513340" lon="-8.7237940">
        <ele>6.8</ele>
        <time>2021-05-16T08:22:06Z</time>
      </trkpt>
      <trkpt lat="41.2513500" lon="-8.7237900">
        <ele>6.8</ele>
        <time>2021-05-16T08:22:07Z</time>
      </trkpt>
      <trkpt lat="41.2513670" lon="-8.7237900">
        <ele>6.8</ele>
        <time>2021-05-16T08:22:08Z</time>
      </trkpt>
      <trkpt lat="41.2513830" lon="-8.7237930">
        <ele>6.8</ele>
        <time>2021-05-16T08:22:09Z</time>
      </trkpt>
      <trkpt lat="41.2513960" lon="-8.7237950">
        <ele>6.8</ele>
        <time>2021-05-16T08:22:10Z</time>
      </trkpt>
      <trkpt lat="41.2514140" lon="-8.7237900">
        <ele>6.8</ele>
        <time>2021-05-16T08:22:11Z</time>
      </trkpt>
      <trkpt lat="41.2514290" lon="-8.7237850">
        <ele>6.9</ele>
        <time>2021-05-16T08:22:12Z</time>
      </trkpt>
      <trkpt lat="41.2514450" lon="-8.7237860">
        <ele>6.9</ele>
        <time>2021-05-16T08:22:13Z</time>
      </trkpt>
      <trkpt lat="41.2514600" lon="-8.7237870">
        <ele>6.9</ele>
        <time>2021-05-16T08:22:14Z</time>
      </trkpt>
      <trkpt lat="41.2514770" lon="-8.7237840">
        <ele>6.9</ele>
        <time>2021-05-16T08:22:15Z</time>
      </trkpt>
      <trkpt lat="41.2514910" lon="-8.7237860">
        <ele>6.9</ele>
        <time>2021-05-16T08:22:16Z</time>
      </trkpt>
      <trkpt lat="41.2515060" lon="-8.7237850">
        <ele>6.9</ele>
        <time>2021-05-16T08:22:17Z</time>
      </trkpt>
      <trkpt lat="41.2515220" lon="-8.7237840">
        <ele>6.9</ele>
        <time>2021-05-16T08:22:18Z</time>
      </trkpt>
      <trkpt lat="41.2515380" lon="-8.7237870">
        <ele>6.9</ele>
        <time>2021-05-16T08:22:19Z</time>
      </trkpt>
      <trkpt lat="41.2515530" lon="-8.7237880">
        <ele>6.9</ele>
        <time>2021-05-16T08:22:20Z</time>
      </trkpt>
      <trkpt lat="41.2515670" lon="-8.7237880">
        <ele>6.9</ele>
        <time>2021-05-16T08:22:21Z</time>
      </trkpt>
      <trkpt lat="41.2515820" lon="-8.7237910">
        <ele>6.9</ele>
        <time>2021-05-16T08:22:22Z</time>
      </trkpt>
      <trkpt lat="41.2515970" lon="-8.7237910">
        <ele>6.9</ele>
        <time>2021-05-16T08:22:23Z</time>
      </trkpt>
      <trkpt lat="41.2516100" lon="-8.7237990">
        <ele>6.9</ele>
        <time>2021-05-16T08:22:24Z</time>
      </trkpt>
      <trkpt lat="41.2516250" lon="-8.7237960">
        <ele>6.9</ele>
        <time>2021-05-16T08:22:25Z</time>
      </trkpt>
      <trkpt lat="41.2516400" lon="-8.7238000">
        <ele>6.9</ele>
        <time>2021-05-16T08:22:26Z</time>
      </trkpt>
      <trkpt lat="41.2516580" lon="-8.7237920">
        <ele>6.9</ele>
        <time>2021-05-16T08:22:27Z</time>
      </trkpt>
      <trkpt lat="41.2516710" lon="-8.7237920">
        <ele>6.9</ele>
        <time>2021-05-16T08:22:28Z</time>
      </trkpt>
      <trkpt lat="41.2516890" lon="-8.7237910">
        <ele>6.9</ele>
        <time>2021-05-16T08:22:29Z</time>
      </trkpt>
      <trkpt lat="41.2517010" lon="-8.7237980">
        <ele>6.9</ele>
        <time>2021-05-16T08:22:30Z</time>
      </trkpt>
      <trkpt lat="41.2517170" lon="-8.7237960">
        <ele>6.9</ele>
        <time>2021-05-16T08:22:31Z</time>
      </trkpt>
      <trkpt lat="41.2517330" lon="-8.7238050">
        <ele>6.9</ele>
        <time>2021-05-16T08:22:32Z</time>
      </trkpt>
      <trkpt lat="41.2517490" lon="-8.7238020">
        <ele>6.9</ele>
        <time>2021-05-16T08:22:33Z</time>
      </trkpt>
      <trkpt lat="41.2517610" lon="-8.7237980">
        <ele>6.9</ele>
        <time>2021-05-16T08:22:34Z</time>
      </trkpt>
      <trkpt lat="41.2517790" lon="-8.7238020">
        <ele>6.9</ele>
        <time>2021-05-16T08:22:35Z</time>
      </trkpt>
      <trkpt lat="41.2517950" lon="-8.7238030">
        <ele>6.9</ele>
        <time>2021-05-16T08:22:36Z</time>
      </trkpt>
      <trkpt lat="41.2518090" lon="-8.7238010">
        <ele>6.9</ele>
        <time>2021-05-16T08:22:37Z</time>
      </trkpt>
      <trkpt lat="41.2518240" lon="-8.7237980">
        <ele>6.9</ele>
        <time>2021-05-16T08:22:38Z</time>
      </trkpt>
      <trkpt lat="41.2518390" lon="-8.7238020">
        <ele>6.9</ele>
        <time>2021-05-16T08:22:39Z</time>
      </trkpt>
      <trkpt lat="41.2518520" lon="-8.7238000">
        <ele>6.9</ele>
        <time>2021-05-16T08:22:40Z</time>
      </trkpt>
      <trkpt lat="41.2518670" lon="-8.7237960">
        <ele>6.9</ele>
        <time>2021-05-16T08:22:41Z</time>
      </trkpt>
      <trkpt lat="41.2518790" lon="-8.7237910">
        <ele>6.9</ele>
        <time>2021-05-16T08:22:42Z</time>
      </trkpt>
      <trkpt lat="41.2518930" lon="-8.7238050">
        <ele>6.9</ele>
        <time>2021-05-16T08:22:43Z</time>
      </trkpt>
      <trkpt lat="41.2519060" lon="-8.7238040">
        <ele>6.9</ele>
        <time>2021-05-16T08:22:44Z</time>
      </trkpt>
      <trkpt lat="41.2519210" lon="-8.7238120">
        <ele>6.9</ele>
        <time>2021-05-16T08:22:45Z</time>
      </trkpt>
      <trkpt lat="41.2519360" lon="-8.7238120">
        <ele>6.9</ele>
        <time>2021-05-16T08:22:46Z</time>
      </trkpt>
      <trkpt lat="41.2519510" lon="-8.7238150">
        <ele>6.9</ele>
        <time>2021-05-16T08:22:47Z</time>
      </trkpt>
      <trkpt lat="41.2519690" lon="-8.7238110">
        <ele>6.9</ele>
        <time>2021-05-16T08:22:48Z</time>
      </trkpt>
      <trkpt lat="41.2519820" lon="-8.7238150">
        <ele>6.9</ele>
        <time>2021-05-16T08:22:49Z</time>
      </trkpt>
      <trkpt lat="41.2519960" lon="-8.7238120">
        <ele>6.9</ele>
        <time>2021-05-16T08:22:50Z</time>
      </trkpt>
      <trkpt lat="41.2520120" lon="-8.7238160">
        <ele>6.9</ele>
        <time>2021-05-16T08:22:51Z</time>
      </trkpt>
      <trkpt lat="41.2520280" lon="-8.7238100">
        <ele>6.9</ele>
        <time>2021-05-16T08:22:52Z</time>
      </trkpt>
      <trkpt lat="41.2520420" lon="-8.7238120">
        <ele>6.9</ele>
        <time>2021-05-16T08:22:53Z</time>
      </trkpt>
      <trkpt lat="41.2520560" lon="-8.7238090">
        <ele>6.9</ele>
        <time>2021-05-16T08:22:54Z</time>
      </trkpt>
      <trkpt lat="41.2520690" lon="-8.7238110">
        <ele>7.0</ele>
        <time>2021-05-16T08:22:55Z</time>
      </trkpt>
      <trkpt lat="41.2520830" lon="-8.7238100">
        <ele>7.0</ele>
        <time>2021-05-16T08:22:56Z</time>
      </trkpt>
      <trkpt lat="41.2520980" lon="-8.7238120">
        <ele>7.0</ele>
        <time>2021-05-16T08:22:57Z</time>
      </trkpt>
      <trkpt lat="41.2521110" lon="-8.7238210">
        <ele>6.9</ele>
        <time>2021-05-16T08:22:58Z</time>
      </trkpt>
      <trkpt lat="41.2521280" lon="-8.7238140">
        <ele>6.9</ele>
        <time>2021-05-16T08:22:59Z</time>
      </trkpt>
      <trkpt lat="41.2521410" lon="-8.7238170">
        <ele>6.9</ele>
        <time>2021-05-16T08:23:00Z</time>
      </trkpt>
      <trkpt lat="41.2521570" lon="-8.7238140">
        <ele>6.9</ele>
        <time>2021-05-16T08:23:01Z</time>
      </trkpt>
      <trkpt lat="41.2521730" lon="-8.7238110">
        <ele>6.9</ele>
        <time>2021-05-16T08:23:02Z</time>
      </trkpt>
      <trkpt lat="41.2521880" lon="-8.7238150">
        <ele>6.9</ele>
        <time>2021-05-16T08:23:03Z</time>
      </trkpt>
      <trkpt lat="41.2522020" lon="-8.7238120">
        <ele>6.9</ele>
        <time>2021-05-16T08:23:04Z</time>
      </trkpt>
      <trkpt lat="41.2522190" lon="-8.7238100">
        <ele>6.9</ele>
        <time>2021-05-16T08:23:05Z</time>
      </trkpt>
      <trkpt lat="41.2522310" lon="-8.7238140">
        <ele>6.9</ele>
        <time>2021-05-16T08:23:06Z</time>
      </trkpt>
      <trkpt lat="41.2522470" lon="-8.7238180">
        <ele>6.9</ele>
        <time>2021-05-16T08:23:07Z</time>
      </trkpt>
      <trkpt lat="41.2522590" lon="-8.7238190">
        <ele>6.9</ele>
        <time>2021-05-16T08:23:08Z</time>
      </trkpt>
      <trkpt lat="41.2522750" lon="-8.7238200">
        <ele>6.8</ele>
        <time>2021-05-16T08:23:09Z</time>
      </trkpt>
      <trkpt lat="41.2522900" lon="-8.7238120">
        <ele>6.8</ele>
        <time>2021-05-16T08:23:10Z</time>
      </trkpt>
      <trkpt lat="41.2523070" lon="-8.7238160">
        <ele>6.8</ele>
        <time>2021-05-16T08:23:11Z</time>
      </trkpt>
      <trkpt lat="41.2523220" lon="-8.7238180">
        <ele>6.8</ele>
        <time>2021-05-16T08:23:12Z</time>
      </trkpt>
      <trkpt lat="41.2523340" lon="-8.7238180">
        <ele>6.8</ele>
        <time>2021-05-16T08:23:13Z</time>
      </trkpt>
      <trkpt lat="41.2523500" lon="-8.7238240">
        <ele>6.8</ele>
        <time>2021-05-16T08:23:14Z</time>
      </trkpt>
      <trkpt lat="41.2523660" lon="-8.7238190">
        <ele>6.8</ele>
        <time>2021-05-16T08:23:15Z</time>
      </trkpt>
      <trkpt lat="41.2523820" lon="-8.7238150">
        <ele>6.8</ele>
        <time>2021-05-16T08:23:16Z</time>
      </trkpt>
      <trkpt lat="41.2523960" lon="-8.7238120">
        <ele>6.7</ele>
        <time>2021-05-16T08:23:17Z</time>
      </trkpt>
      <trkpt lat="41.2524090" lon="-8.7238140">
        <ele>6.7</ele>
        <time>2021-05-16T08:23:18Z</time>
      </trkpt>
      <trkpt lat="41.2524250" lon="-8.7238170">
        <ele>6.7</ele>
        <time>2021-05-16T08:23:19Z</time>
      </trkpt>
      <trkpt lat="41.2524370" lon="-8.7238190">
        <ele>6.7</ele>
        <time>2021-05-16T08:23:20Z</time>
      </trkpt>
      <trkpt lat="41.2524540" lon="-8.7238180">
        <ele>6.7</ele>
        <time>2021-05-16T08:23:21Z</time>
      </trkpt>
      <trkpt lat="41.2524690" lon="-8.7238140">
        <ele>6.7</ele>
        <time>2021-05-16T08:23:22Z</time>
      </trkpt>
      <trkpt lat="41.2524830" lon="-8.7238130">
        <ele>6.7</ele>
        <time>2021-05-16T08:23:23Z</time>
      </trkpt>
      <trkpt lat="41.2524990" lon="-8.7238140">
        <ele>6.7</ele>
        <time>2021-05-16T08:23:24Z</time>
      </trkpt>
      <trkpt lat="41.2525130" lon="-8.7238140">
        <ele>6.6</ele>
        <time>2021-05-16T08:23:25Z</time>
      </trkpt>
      <trkpt lat="41.2525280" lon="-8.7238140">
        <ele>6.6</ele>
        <time>2021-05-16T08:23:26Z</time>
      </trkpt>
      <trkpt lat="41.2525420" lon="-8.7238160">
        <ele>6.6</ele>
        <time>2021-05-16T08:23:27Z</time>
      </trkpt>
      <trkpt lat="41.2525630" lon="-8.7238170">
        <ele>6.6</ele>
        <time>2021-05-16T08:23:28Z</time>
      </trkpt>
      <trkpt lat="41.2525710" lon="-8.7238170">
        <ele>6.6</ele>
        <time>2021-05-16T08:23:29Z</time>
      </trkpt>
      <trkpt lat="41.2525800" lon="-8.7238170">
        <ele>6.6</ele>
        <time>2021-05-16T08:23:30Z</time>
      </trkpt>
      <trkpt lat="41.2525950" lon="-8.7238110">
        <ele>6.6</ele>
        <time>2021-05-16T08:23:31Z</time>
      </trkpt>
      <trkpt lat="41.2526110" lon="-8.7238150">
        <ele>6.6</ele>
        <time>2021-05-16T08:23:32Z</time>
      </trkpt>
      <trkpt lat="41.2526240" lon="-8.7238190">
        <ele>6.5</ele>
        <time>2021-05-16T08:23:33Z</time>
      </trkpt>
      <trkpt lat="41.2526400" lon="-8.7238200">
        <ele>6.5</ele>
        <time>2021-05-16T08:23:34Z</time>
      </trkpt>
      <trkpt lat="41.2526560" lon="-8.7238220">
        <ele>6.5</ele>
        <time>2021-05-16T08:23:35Z</time>
      </trkpt>
      <trkpt lat="41.2526710" lon="-8.7238230">
        <ele>6.5</ele>
        <time>2021-05-16T08:23:36Z</time>
      </trkpt>
      <trkpt lat="41.2526890" lon="-8.7238220">
        <ele>6.5</ele>
        <time>2021-05-16T08:23:37Z</time>
      </trkpt>
      <trkpt lat="41.2527020" lon="-8.7238250">
        <ele>6.5</ele>
        <time>2021-05-16T08:23:38Z</time>
      </trkpt>
      <trkpt lat="41.2527180" lon="-8.7238230">
        <ele>6.4</ele>
        <time>2021-05-16T08:23:39Z</time>
      </trkpt>
      <trkpt lat="41.2527340" lon="-8.7238180">
        <ele>6.4</ele>
        <time>2021-05-16T08:23:40Z</time>
      </trkpt>
      <trkpt lat="41.2527490" lon="-8.7238130">
        <ele>6.4</ele>
        <time>2021-05-16T08:23:41Z</time>
      </trkpt>
      <trkpt lat="41.2527620" lon="-8.7238150">
        <ele>6.4</ele>
        <time>2021-05-16T08:23:42Z</time>
      </trkpt>
      <trkpt lat="41.2527750" lon="-8.7238170">
        <ele>6.4</ele>
        <time>2021-05-16T08:23:43Z</time>
      </trkpt>
      <trkpt lat="41.2527900" lon="-8.7238200">
        <ele>6.4</ele>
        <time>2021-05-16T08:23:44Z</time>
      </trkpt>
      <trkpt lat="41.2528030" lon="-8.7238200">
        <ele>6.4</ele>
        <time>2021-05-16T08:23:45Z</time>
      </trkpt>
      <trkpt lat="41.2528210" lon="-8.7238180">
        <ele>6.3</ele>
        <time>2021-05-16T08:23:46Z</time>
      </trkpt>
      <trkpt lat="41.2528340" lon="-8.7238200">
        <ele>6.3</ele>
        <time>2021-05-16T08:23:47Z</time>
      </trkpt>
      <trkpt lat="41.2528510" lon="-8.7238230">
        <ele>6.3</ele>
        <time>2021-05-16T08:23:48Z</time>
      </trkpt>
      <trkpt lat="41.2528620" lon="-8.7238190">
        <ele>6.3</ele>
        <time>2021-05-16T08:23:49Z</time>
      </trkpt>
      <trkpt lat="41.2528790" lon="-8.7238250">
        <ele>6.3</ele>
        <time>2021-05-16T08:23:50Z</time>
      </trkpt>
      <trkpt lat="41.2528940" lon="-8.7238210">
        <ele>6.3</ele>
        <time>2021-05-16T08:23:51Z</time>
      </trkpt>
      <trkpt lat="41.2529110" lon="-8.7238230">
        <ele>6.2</ele>
        <time>2021-05-16T08:23:52Z</time>
      </trkpt>
      <trkpt lat="41.2529260" lon="-8.7238210">
        <ele>6.2</ele>
        <time>2021-05-16T08:23:53Z</time>
      </trkpt>
      <trkpt lat="41.2529400" lon="-8.7238220">
        <ele>6.2</ele>
        <time>2021-05-16T08:23:54Z</time>
      </trkpt>
      <trkpt lat="41.2529540" lon="-8.7238180">
        <ele>6.2</ele>
        <time>2021-05-16T08:23:55Z</time>
      </trkpt>
      <trkpt lat="41.2529700" lon="-8.7238170">
        <ele>6.2</ele>
        <time>2021-05-16T08:23:56Z</time>
      </trkpt>
      <trkpt lat="41.2529840" lon="-8.7238190">
        <ele>6.2</ele>
        <time>2021-05-16T08:23:57Z</time>
      </trkpt>
      <trkpt lat="41.2529990" lon="-8.7238170">
        <ele>6.2</ele>
        <time>2021-05-16T08:23:58Z</time>
      </trkpt>
      <trkpt lat="41.2530130" lon="-8.7238190">
        <ele>6.2</ele>
        <time>2021-05-16T08:23:59Z</time>
      </trkpt>
      <trkpt lat="41.2530290" lon="-8.7238220">
        <ele>6.2</ele>
        <time>2021-05-16T08:24:00Z</time>
      </trkpt>
      <trkpt lat="41.2530450" lon="-8.7238220">
        <ele>6.2</ele>
        <time>2021-05-16T08:24:01Z</time>
      </trkpt>
      <trkpt lat="41.2530610" lon="-8.7238250">
        <ele>6.1</ele>
        <time>2021-05-16T08:24:02Z</time>
      </trkpt>
      <trkpt lat="41.2530750" lon="-8.7238240">
        <ele>6.1</ele>
        <time>2021-05-16T08:24:03Z</time>
      </trkpt>
      <trkpt lat="41.2530910" lon="-8.7238250">
        <ele>6.1</ele>
        <time>2021-05-16T08:24:04Z</time>
      </trkpt>
      <trkpt lat="41.2531050" lon="-8.7238250">
        <ele>6.1</ele>
        <time>2021-05-16T08:24:05Z</time>
      </trkpt>
      <trkpt lat="41.2531210" lon="-8.7238230">
        <ele>6.1</ele>
        <time>2021-05-16T08:24:06Z</time>
      </trkpt>
      <trkpt lat="41.2531330" lon="-8.7238150">
        <ele>6.1</ele>
        <time>2021-05-16T08:24:07Z</time>
      </trkpt>
      <trkpt lat="41.2531480" lon="-8.7238160">
        <ele>6.1</ele>
        <time>2021-05-16T08:24:08Z</time>
      </trkpt>
      <trkpt lat="41.2531630" lon="-8.7238140">
        <ele>6.1</ele>
        <time>2021-05-16T08:24:09Z</time>
      </trkpt>
      <trkpt lat="41.2531760" lon="-8.7238130">
        <ele>6.1</ele>
        <time>2021-05-16T08:24:10Z</time>
      </trkpt>
      <trkpt lat="41.2531930" lon="-8.7238140">
        <ele>6.1</ele>
        <time>2021-05-16T08:24:11Z</time>
      </trkpt>
      <trkpt lat="41.2532060" lon="-8.7238150">
        <ele>6.1</ele>
        <time>2021-05-16T08:24:12Z</time>
      </trkpt>
      <trkpt lat="41.2532190" lon="-8.7238170">
        <ele>6.1</ele>
        <time>2021-05-16T08:24:13Z</time>
      </trkpt>
      <trkpt lat="41.2532340" lon="-8.7238200">
        <ele>6.1</ele>
        <time>2021-05-16T08:24:14Z</time>
      </trkpt>
      <trkpt lat="41.2532490" lon="-8.7238150">
        <ele>6.1</ele>
        <time>2021-05-16T08:24:15Z</time>
      </trkpt>
      <trkpt lat="41.2532620" lon="-8.7238110">
        <ele>6.1</ele>
        <time>2021-05-16T08:24:16Z</time>
      </trkpt>
      <trkpt lat="41.2532780" lon="-8.7238180">
        <ele>6.1</ele>
        <time>2021-05-16T08:24:17Z</time>
      </trkpt>
      <trkpt lat="41.2532940" lon="-8.7238160">
        <ele>6.1</ele>
        <time>2021-05-16T08:24:18Z</time>
      </trkpt>
      <trkpt lat="41.2533110" lon="-8.7238140">
        <ele>6.1</ele>
        <time>2021-05-16T08:24:19Z</time>
      </trkpt>
      <trkpt lat="41.2533220" lon="-8.7238110">
        <ele>6.1</ele>
        <time>2021-05-16T08:24:20Z</time>
      </trkpt>
      <trkpt lat="41.2533380" lon="-8.7238080">
        <ele>6.1</ele>
        <time>2021-05-16T08:24:21Z</time>
      </trkpt>
      <trkpt lat="41.2533520" lon="-8.7238110">
        <ele>6.1</ele>
        <time>2021-05-16T08:24:22Z</time>
      </trkpt>
      <trkpt lat="41.2533690" lon="-8.7238100">
        <ele>6.1</ele>
        <time>2021-05-16T08:24:23Z</time>
      </trkpt>
      <trkpt lat="41.2533820" lon="-8.7238070">
        <ele>6.1</ele>
        <time>2021-05-16T08:24:24Z</time>
      </trkpt>
      <trkpt lat="41.2533990" lon="-8.7238010">
        <ele>6.1</ele>
        <time>2021-05-16T08:24:25Z</time>
      </trkpt>
      <trkpt lat="41.2534130" lon="-8.7238020">
        <ele>6.1</ele>
        <time>2021-05-16T08:24:26Z</time>
      </trkpt>
      <trkpt lat="41.2534290" lon="-8.7238060">
        <ele>6.1</ele>
        <time>2021-05-16T08:24:27Z</time>
      </trkpt>
      <trkpt lat="41.2534450" lon="-8.7238080">
        <ele>6.1</ele>
        <time>2021-05-16T08:24:28Z</time>
      </trkpt>
      <trkpt lat="41.2534590" lon="-8.7238070">
        <ele>6.1</ele>
        <time>2021-05-16T08:24:29Z</time>
      </trkpt>
      <trkpt lat="41.2534760" lon="-8.7238040">
        <ele>6.1</ele>
        <time>2021-05-16T08:24:30Z</time>
      </trkpt>
      <trkpt lat="41.2534880" lon="-8.7238020">
        <ele>6.1</ele>
        <time>2021-05-16T08:24:31Z</time>
      </trkpt>
      <trkpt lat="41.2535030" lon="-8.7237980">
        <ele>6.1</ele>
        <time>2021-05-16T08:24:32Z</time>
      </trkpt>
      <trkpt lat="41.2535180" lon="-8.7237980">
        <ele>6.1</ele>
        <time>2021-05-16T08:24:33Z</time>
      </trkpt>
      <trkpt lat="41.2535340" lon="-8.7237950">
        <ele>6.0</ele>
        <time>2021-05-16T08:24:34Z</time>
      </trkpt>
      <trkpt lat="41.2535510" lon="-8.7237950">
        <ele>6.0</ele>
        <time>2021-05-16T08:24:35Z</time>
      </trkpt>
      <trkpt lat="41.2535660" lon="-8.7237970">
        <ele>6.0</ele>
        <time>2021-05-16T08:24:36Z</time>
      </trkpt>
      <trkpt lat="41.2535820" lon="-8.7238020">
        <ele>6.0</ele>
        <time>2021-05-16T08:24:37Z</time>
      </trkpt>
      <trkpt lat="41.2535970" lon="-8.7238070">
        <ele>6.0</ele>
        <time>2021-05-16T08:24:38Z</time>
      </trkpt>
      <trkpt lat="41.2536180" lon="-8.7238050">
        <ele>6.0</ele>
        <time>2021-05-16T08:24:39Z</time>
      </trkpt>
      <trkpt lat="41.2536270" lon="-8.7238050">
        <ele>6.0</ele>
        <time>2021-05-16T08:24:40Z</time>
      </trkpt>
      <trkpt lat="41.2536360" lon="-8.7238050">
        <ele>6.0</ele>
        <time>2021-05-16T08:24:41Z</time>
      </trkpt>
      <trkpt lat="41.2536510" lon="-8.7238000">
        <ele>6.0</ele>
        <time>2021-05-16T08:24:42Z</time>
      </trkpt>
      <trkpt lat="41.2536640" lon="-8.7237980">
        <ele>6.0</ele>
        <time>2021-05-16T08:24:43Z</time>
      </trkpt>
      <trkpt lat="41.2536780" lon="-8.7237950">
        <ele>6.0</ele>
        <time>2021-05-16T08:24:44Z</time>
      </trkpt>
      <trkpt lat="41.2536920" lon="-8.7237960">
        <ele>6.0</ele>
        <time>2021-05-16T08:24:45Z</time>
      </trkpt>
      <trkpt lat="41.2537050" lon="-8.7237930">
        <ele>6.0</ele>
        <time>2021-05-16T08:24:46Z</time>
      </trkpt>
      <trkpt lat="41.2537200" lon="-8.7237920">
        <ele>6.0</ele>
        <time>2021-05-16T08:24:47Z</time>
      </trkpt>
      <trkpt lat="41.2537330" lon="-8.7237970">
        <ele>6.0</ele>
        <time>2021-05-16T08:24:48Z</time>
      </trkpt>
      <trkpt lat="41.2537480" lon="-8.7237960">
        <ele>6.0</ele>
        <time>2021-05-16T08:24:49Z</time>
      </trkpt>
      <trkpt lat="41.2537630" lon="-8.7238010">
        <ele>6.0</ele>
        <time>2021-05-16T08:24:50Z</time>
      </trkpt>
      <trkpt lat="41.2537810" lon="-8.7238100">
        <ele>6.0</ele>
        <time>2021-05-16T08:24:51Z</time>
      </trkpt>
      <trkpt lat="41.2537960" lon="-8.7238080">
        <ele>6.0</ele>
        <time>2021-05-16T08:24:52Z</time>
      </trkpt>
      <trkpt lat="41.2538020" lon="-8.7238120">
        <ele>6.0</ele>
        <time>2021-05-16T08:24:53Z</time>
      </trkpt>
      <trkpt lat="41.2537910" lon="-8.7238190">
        <ele>6.0</ele>
        <time>2021-05-16T08:24:54Z</time>
      </trkpt>
      <trkpt lat="41.2537830" lon="-8.7238140">
        <ele>6.0</ele>
        <time>2021-05-16T08:24:55Z</time>
      </trkpt>
      <trkpt lat="41.2537840" lon="-8.7238140">
        <ele>6.0</ele>
        <time>2021-05-16T08:24:56Z</time>
      </trkpt>
      <trkpt lat="41.2537820" lon="-8.7238190">
        <ele>6.0</ele>
        <time>2021-05-16T08:24:57Z</time>
      </trkpt>
      <trkpt lat="41.2537810" lon="-8.7238210">
        <ele>6.0</ele>
        <time>2021-05-16T08:24:58Z</time>
      </trkpt>
      <trkpt lat="41.2537780" lon="-8.7238210">
        <ele>6.0</ele>
        <time>2021-05-16T08:24:59Z</time>
      </trkpt>
      <trkpt lat="41.2537730" lon="-8.7238190">
        <ele>6.0</ele>
        <time>2021-05-16T08:25:00Z</time>
      </trkpt>
      <trkpt lat="41.2537720" lon="-8.7238190">
        <ele>6.0</ele>
        <time>2021-05-16T08:25:01Z</time>
      </trkpt>
      <trkpt lat="41.2537720" lon="-8.7238180">
        <ele>6.0</ele>
        <time>2021-05-16T08:25:02Z</time>
      </trkpt>
      <trkpt lat="41.2537700" lon="-8.7238170">
        <ele>6.0</ele>
        <time>2021-05-16T08:25:03Z</time>
      </trkpt>
      <trkpt lat="41.2537690" lon="-8.7238150">
        <ele>6.0</ele>
        <time>2021-05-16T08:25:04Z</time>
      </trkpt>
      <trkpt lat="41.2537780" lon="-8.7238140">
        <ele>6.0</ele>
        <time>2021-05-16T08:25:05Z</time>
      </trkpt>
      <trkpt lat="41.2537930" lon="-8.7238160">
        <ele>6.0</ele>
        <time>2021-05-16T08:25:06Z</time>
      </trkpt>
      <trkpt lat="41.2538070" lon="-8.7238130">
        <ele>6.0</ele>
        <time>2021-05-16T08:25:07Z</time>
      </trkpt>
      <trkpt lat="41.2538170" lon="-8.7238140">
        <ele>6.0</ele>
        <time>2021-05-16T08:25:08Z</time>
      </trkpt>
      <trkpt lat="41.2538320" lon="-8.7238130">
        <ele>6.0</ele>
        <time>2021-05-16T08:25:09Z</time>
      </trkpt>
      <trkpt lat="41.2538320" lon="-8.7238200">
        <ele>6.0</ele>
        <time>2021-05-16T08:25:10Z</time>
      </trkpt>
      <trkpt lat="41.2538230" lon="-8.7238190">
        <ele>6.0</ele>
        <time>2021-05-16T08:25:11Z</time>
      </trkpt>
      <trkpt lat="41.2538210" lon="-8.7238180">
        <ele>6.0</ele>
        <time>2021-05-16T08:25:12Z</time>
      </trkpt>
      <trkpt lat="41.2538250" lon="-8.7238190">
        <ele>6.0</ele>
        <time>2021-05-16T08:25:13Z</time>
      </trkpt>
      <trkpt lat="41.2538470" lon="-8.7238120">
        <ele>6.0</ele>
        <time>2021-05-16T08:25:14Z</time>
      </trkpt>
      <trkpt lat="41.2538620" lon="-8.7238170">
        <ele>6.0</ele>
        <time>2021-05-16T08:25:15Z</time>
      </trkpt>
      <trkpt lat="41.2538790" lon="-8.7238060">
        <ele>6.0</ele>
        <time>2021-05-16T08:25:16Z</time>
      </trkpt>
      <trkpt lat="41.2538870" lon="-8.7238120">
        <ele>6.0</ele>
        <time>2021-05-16T08:25:17Z</time>
      </trkpt>
      <trkpt lat="41.2539080" lon="-8.7238090">
        <ele>6.0</ele>
        <time>2021-05-16T08:25:18Z</time>
      </trkpt>
      <trkpt lat="41.2539230" lon="-8.7238060">
        <ele>6.0</ele>
        <time>2021-05-16T08:25:19Z</time>
      </trkpt>
      <trkpt lat="41.2539410" lon="-8.7238060">
        <ele>6.0</ele>
        <time>2021-05-16T08:25:20Z</time>
      </trkpt>
      <trkpt lat="41.2539630" lon="-8.7238090">
        <ele>6.0</ele>
        <time>2021-05-16T08:25:21Z</time>
      </trkpt>
      <trkpt lat="41.2539750" lon="-8.7238070">
        <ele>6.0</ele>
        <time>2021-05-16T08:25:22Z</time>
      </trkpt>
      <trkpt lat="41.2539880" lon="-8.7238050">
        <ele>6.0</ele>
        <time>2021-05-16T08:25:23Z</time>
      </trkpt>
      <trkpt lat="41.2540030" lon="-8.7238040">
        <ele>6.0</ele>
        <time>2021-05-16T08:25:24Z</time>
      </trkpt>
      <trkpt lat="41.2540190" lon="-8.7238080">
        <ele>6.0</ele>
        <time>2021-05-16T08:25:25Z</time>
      </trkpt>
      <trkpt lat="41.2540320" lon="-8.7238040">
        <ele>6.0</ele>
        <time>2021-05-16T08:25:26Z</time>
      </trkpt>
      <trkpt lat="41.2540490" lon="-8.7238040">
        <ele>6.0</ele>
        <time>2021-05-16T08:25:27Z</time>
      </trkpt>
      <trkpt lat="41.2540630" lon="-8.7238030">
        <ele>6.0</ele>
        <time>2021-05-16T08:25:28Z</time>
      </trkpt>
      <trkpt lat="41.2540800" lon="-8.7237980">
        <ele>6.0</ele>
        <time>2021-05-16T08:25:29Z</time>
      </trkpt>
      <trkpt lat="41.2540950" lon="-8.7237990">
        <ele>6.0</ele>
        <time>2021-05-16T08:25:30Z</time>
      </trkpt>
      <trkpt lat="41.2541120" lon="-8.7237950">
        <ele>6.0</ele>
        <time>2021-05-16T08:25:31Z</time>
      </trkpt>
      <trkpt lat="41.2541270" lon="-8.7237940">
        <ele>6.0</ele>
        <time>2021-05-16T08:25:32Z</time>
      </trkpt>
      <trkpt lat="41.2541440" lon="-8.7237890">
        <ele>6.0</ele>
        <time>2021-05-16T08:25:33Z</time>
      </trkpt>
      <trkpt lat="41.2541580" lon="-8.7237910">
        <ele>6.0</ele>
        <time>2021-05-16T08:25:34Z</time>
      </trkpt>
      <trkpt lat="41.2541760" lon="-8.7237920">
        <ele>6.0</ele>
        <time>2021-05-16T08:25:35Z</time>
      </trkpt>
      <trkpt lat="41.2541880" lon="-8.7237850">
        <ele>6.0</ele>
        <time>2021-05-16T08:25:36Z</time>
      </trkpt>
      <trkpt lat="41.2542030" lon="-8.7237830">
        <ele>6.0</ele>
        <time>2021-05-16T08:25:37Z</time>
      </trkpt>
      <trkpt lat="41.2542170" lon="-8.7237820">
        <ele>6.0</ele>
        <time>2021-05-16T08:25:38Z</time>
      </trkpt>
      <trkpt lat="41.2542330" lon="-8.7237770">
        <ele>6.0</ele>
        <time>2021-05-16T08:25:39Z</time>
      </trkpt>
      <trkpt lat="41.2542460" lon="-8.7237740">
        <ele>6.0</ele>
        <time>2021-05-16T08:25:40Z</time>
      </trkpt>
      <trkpt lat="41.2542630" lon="-8.7237720">
        <ele>6.0</ele>
        <time>2021-05-16T08:25:41Z</time>
      </trkpt>
      <trkpt lat="41.2542770" lon="-8.7237670">
        <ele>6.0</ele>
        <time>2021-05-16T08:25:42Z</time>
      </trkpt>
      <trkpt lat="41.2542940" lon="-8.7237670">
        <ele>6.0</ele>
        <time>2021-05-16T08:25:43Z</time>
      </trkpt>
      <trkpt lat="41.2543070" lon="-8.7237650">
        <ele>6.0</ele>
        <time>2021-05-16T08:25:44Z</time>
      </trkpt>
      <trkpt lat="41.2543230" lon="-8.7237640">
        <ele>6.0</ele>
        <time>2021-05-16T08:25:45Z</time>
      </trkpt>
      <trkpt lat="41.2543360" lon="-8.7237650">
        <ele>6.0</ele>
        <time>2021-05-16T08:25:46Z</time>
      </trkpt>
      <trkpt lat="41.2543530" lon="-8.7237580">
        <ele>6.0</ele>
        <time>2021-05-16T08:25:47Z</time>
      </trkpt>
      <trkpt lat="41.2543690" lon="-8.7237610">
        <ele>6.0</ele>
        <time>2021-05-16T08:25:48Z</time>
      </trkpt>
      <trkpt lat="41.2543830" lon="-8.7237560">
        <ele>6.0</ele>
        <time>2021-05-16T08:25:49Z</time>
      </trkpt>
      <trkpt lat="41.2544050" lon="-8.7237540">
        <ele>6.0</ele>
        <time>2021-05-16T08:25:50Z</time>
      </trkpt>
      <trkpt lat="41.2544150" lon="-8.7237510">
        <ele>6.0</ele>
        <time>2021-05-16T08:25:51Z</time>
      </trkpt>
      <trkpt lat="41.2544240" lon="-8.7237490">
        <ele>6.0</ele>
        <time>2021-05-16T08:25:52Z</time>
      </trkpt>
      <trkpt lat="41.2544410" lon="-8.7237490">
        <ele>6.0</ele>
        <time>2021-05-16T08:25:53Z</time>
      </trkpt>
      <trkpt lat="41.2544550" lon="-8.7237450">
        <ele>6.0</ele>
        <time>2021-05-16T08:25:54Z</time>
      </trkpt>
      <trkpt lat="41.2544710" lon="-8.7237480">
        <ele>6.0</ele>
        <time>2021-05-16T08:25:55Z</time>
      </trkpt>
      <trkpt lat="41.2544850" lon="-8.7237450">
        <ele>6.0</ele>
        <time>2021-05-16T08:25:56Z</time>
      </trkpt>
      <trkpt lat="41.2544990" lon="-8.7237440">
        <ele>6.0</ele>
        <time>2021-05-16T08:25:57Z</time>
      </trkpt>
      <trkpt lat="41.2545130" lon="-8.7237430">
        <ele>6.0</ele>
        <time>2021-05-16T08:25:58Z</time>
      </trkpt>
      <trkpt lat="41.2545290" lon="-8.7237360">
        <ele>5.9</ele>
        <time>2021-05-16T08:25:59Z</time>
      </trkpt>
      <trkpt lat="41.2545440" lon="-8.7237390">
        <ele>5.9</ele>
        <time>2021-05-16T08:26:00Z</time>
      </trkpt>
      <trkpt lat="41.2545570" lon="-8.7237350">
        <ele>5.9</ele>
        <time>2021-05-16T08:26:01Z</time>
      </trkpt>
      <trkpt lat="41.2545730" lon="-8.7237340">
        <ele>5.9</ele>
        <time>2021-05-16T08:26:02Z</time>
      </trkpt>
      <trkpt lat="41.2545960" lon="-8.7237350">
        <ele>5.9</ele>
        <time>2021-05-16T08:26:03Z</time>
      </trkpt>
      <trkpt lat="41.2546060" lon="-8.7237320">
        <ele>5.9</ele>
        <time>2021-05-16T08:26:04Z</time>
      </trkpt>
      <trkpt lat="41.2546150" lon="-8.7237300">
        <ele>5.9</ele>
        <time>2021-05-16T08:26:05Z</time>
      </trkpt>
      <trkpt lat="41.2546300" lon="-8.7237310">
        <ele>5.9</ele>
        <time>2021-05-16T08:26:06Z</time>
      </trkpt>
      <trkpt lat="41.2546460" lon="-8.7237220">
        <ele>5.9</ele>
        <time>2021-05-16T08:26:07Z</time>
      </trkpt>
      <trkpt lat="41.2546610" lon="-8.7237190">
        <ele>5.9</ele>
        <time>2021-05-16T08:26:08Z</time>
      </trkpt>
      <trkpt lat="41.2546760" lon="-8.7237170">
        <ele>5.9</ele>
        <time>2021-05-16T08:26:09Z</time>
      </trkpt>
      <trkpt lat="41.2546910" lon="-8.7237190">
        <ele>5.9</ele>
        <time>2021-05-16T08:26:10Z</time>
      </trkpt>
      <trkpt lat="41.2547070" lon="-8.7237160">
        <ele>5.9</ele>
        <time>2021-05-16T08:26:11Z</time>
      </trkpt>
      <trkpt lat="41.2547200" lon="-8.7237160">
        <ele>5.9</ele>
        <time>2021-05-16T08:26:12Z</time>
      </trkpt>
      <trkpt lat="41.2547360" lon="-8.7237170">
        <ele>5.9</ele>
        <time>2021-05-16T08:26:13Z</time>
      </trkpt>
      <trkpt lat="41.2547570" lon="-8.7237160">
        <ele>5.9</ele>
        <time>2021-05-16T08:26:14Z</time>
      </trkpt>
      <trkpt lat="41.2547670" lon="-8.7237160">
        <ele>5.9</ele>
        <time>2021-05-16T08:26:15Z</time>
      </trkpt>
      <trkpt lat="41.2547760" lon="-8.7237150">
        <ele>5.9</ele>
        <time>2021-05-16T08:26:16Z</time>
      </trkpt>
      <trkpt lat="41.2547920" lon="-8.7237120">
        <ele>5.9</ele>
        <time>2021-05-16T08:26:17Z</time>
      </trkpt>
      <trkpt lat="41.2548050" lon="-8.7237080">
        <ele>5.9</ele>
        <time>2021-05-16T08:26:18Z</time>
      </trkpt>
      <trkpt lat="41.2548190" lon="-8.7237120">
        <ele>5.9</ele>
        <time>2021-05-16T08:26:19Z</time>
      </trkpt>
      <trkpt lat="41.2548350" lon="-8.7237080">
        <ele>5.9</ele>
        <time>2021-05-16T08:26:20Z</time>
      </trkpt>
      <trkpt lat="41.2548500" lon="-8.7237040">
        <ele>5.9</ele>
        <time>2021-05-16T08:26:21Z</time>
      </trkpt>
      <trkpt lat="41.2548640" lon="-8.7236990">
        <ele>5.9</ele>
        <time>2021-05-16T08:26:22Z</time>
      </trkpt>
      <trkpt lat="41.2548780" lon="-8.7236940">
        <ele>5.9</ele>
        <time>2021-05-16T08:26:23Z</time>
      </trkpt>
      <trkpt lat="41.2548930" lon="-8.7236950">
        <ele>5.9</ele>
        <time>2021-05-16T08:26:24Z</time>
      </trkpt>
      <trkpt lat="41.2549070" lon="-8.7236890">
        <ele>5.9</ele>
        <time>2021-05-16T08:26:25Z</time>
      </trkpt>
      <trkpt lat="41.2549200" lon="-8.7236890">
        <ele>5.9</ele>
        <time>2021-05-16T08:26:26Z</time>
      </trkpt>
      <trkpt lat="41.2549340" lon="-8.7236820">
        <ele>5.9</ele>
        <time>2021-05-16T08:26:27Z</time>
      </trkpt>
      <trkpt lat="41.2549470" lon="-8.7236830">
        <ele>5.9</ele>
        <time>2021-05-16T08:26:28Z</time>
      </trkpt>
      <trkpt lat="41.2549620" lon="-8.7236780">
        <ele>5.9</ele>
        <time>2021-05-16T08:26:29Z</time>
      </trkpt>
      <trkpt lat="41.2549740" lon="-8.7236760">
        <ele>5.9</ele>
        <time>2021-05-16T08:26:30Z</time>
      </trkpt>
      <trkpt lat="41.2549880" lon="-8.7236680">
        <ele>5.9</ele>
        <time>2021-05-16T08:26:31Z</time>
      </trkpt>
      <trkpt lat="41.2550010" lon="-8.7236600">
        <ele>5.9</ele>
        <time>2021-05-16T08:26:32Z</time>
      </trkpt>
      <trkpt lat="41.2550160" lon="-8.7236540">
        <ele>5.9</ele>
        <time>2021-05-16T08:26:33Z</time>
      </trkpt>
      <trkpt lat="41.2550290" lon="-8.7236530">
        <ele>5.9</ele>
        <time>2021-05-16T08:26:34Z</time>
      </trkpt>
      <trkpt lat="41.2550410" lon="-8.7236450">
        <ele>5.9</ele>
        <time>2021-05-16T08:26:35Z</time>
      </trkpt>
      <trkpt lat="41.2550560" lon="-8.7236430">
        <ele>5.9</ele>
        <time>2021-05-16T08:26:36Z</time>
      </trkpt>
      <trkpt lat="41.2550700" lon="-8.7236370">
        <ele>5.9</ele>
        <time>2021-05-16T08:26:37Z</time>
      </trkpt>
      <trkpt lat="41.2550850" lon="-8.7236330">
        <ele>5.9</ele>
        <time>2021-05-16T08:26:38Z</time>
      </trkpt>
      <trkpt lat="41.2550980" lon="-8.7236280">
        <ele>5.9</ele>
        <time>2021-05-16T08:26:39Z</time>
      </trkpt>
      <trkpt lat="41.2551110" lon="-8.7236230">
        <ele>5.9</ele>
        <time>2021-05-16T08:26:40Z</time>
      </trkpt>
      <trkpt lat="41.2551250" lon="-8.7236180">
        <ele>5.9</ele>
        <time>2021-05-16T08:26:41Z</time>
      </trkpt>
      <trkpt lat="41.2551400" lon="-8.7236140">
        <ele>5.9</ele>
        <time>2021-05-16T08:26:42Z</time>
      </trkpt>
      <trkpt lat="41.2551620" lon="-8.7236090">
        <ele>5.9</ele>
        <time>2021-05-16T08:26:43Z</time>
      </trkpt>
      <trkpt lat="41.2551710" lon="-8.7236070">
        <ele>5.9</ele>
        <time>2021-05-16T08:26:44Z</time>
      </trkpt>
      <trkpt lat="41.2551800" lon="-8.7236050">
        <ele>5.9</ele>
        <time>2021-05-16T08:26:45Z</time>
      </trkpt>
      <trkpt lat="41.2551940" lon="-8.7235960">
        <ele>5.9</ele>
        <time>2021-05-16T08:26:46Z</time>
      </trkpt>
      <trkpt lat="41.2552080" lon="-8.7235940">
        <ele>5.9</ele>
        <time>2021-05-16T08:26:47Z</time>
      </trkpt>
      <trkpt lat="41.2552220" lon="-8.7235910">
        <ele>5.9</ele>
        <time>2021-05-16T08:26:48Z</time>
      </trkpt>
      <trkpt lat="41.2552370" lon="-8.7235920">
        <ele>5.9</ele>
        <time>2021-05-16T08:26:49Z</time>
      </trkpt>
      <trkpt lat="41.2552500" lon="-8.7235820">
        <ele>5.9</ele>
        <time>2021-05-16T08:26:50Z</time>
      </trkpt>
      <trkpt lat="41.2552650" lon="-8.7235800">
        <ele>5.9</ele>
        <time>2021-05-16T08:26:51Z</time>
      </trkpt>
      <trkpt lat="41.2552870" lon="-8.7235690">
        <ele>5.9</ele>
        <time>2021-05-16T08:26:52Z</time>
      </trkpt>
      <trkpt lat="41.2552960" lon="-8.7235660">
        <ele>5.9</ele>
        <time>2021-05-16T08:26:53Z</time>
      </trkpt>
      <trkpt lat="41.2553060" lon="-8.7235630">
        <ele>5.9</ele>
        <time>2021-05-16T08:26:54Z</time>
      </trkpt>
      <trkpt lat="41.2553190" lon="-8.7235590">
        <ele>5.9</ele>
        <time>2021-05-16T08:26:55Z</time>
      </trkpt>
      <trkpt lat="41.2553330" lon="-8.7235570">
        <ele>5.9</ele>
        <time>2021-05-16T08:26:56Z</time>
      </trkpt>
      <trkpt lat="41.2553470" lon="-8.7235520">
        <ele>5.9</ele>
        <time>2021-05-16T08:26:57Z</time>
      </trkpt>
      <trkpt lat="41.2553610" lon="-8.7235480">
        <ele>5.9</ele>
        <time>2021-05-16T08:26:58Z</time>
      </trkpt>
      <trkpt lat="41.2553740" lon="-8.7235380">
        <ele>5.9</ele>
        <time>2021-05-16T08:26:59Z</time>
      </trkpt>
      <trkpt lat="41.2553910" lon="-8.7235390">
        <ele>5.9</ele>
        <time>2021-05-16T08:27:00Z</time>
      </trkpt>
      <trkpt lat="41.2554130" lon="-8.7235330">
        <ele>5.9</ele>
        <time>2021-05-16T08:27:01Z</time>
      </trkpt>
      <trkpt lat="41.2554210" lon="-8.7235300">
        <ele>5.9</ele>
        <time>2021-05-16T08:27:02Z</time>
      </trkpt>
      <trkpt lat="41.2554300" lon="-8.7235260">
        <ele>5.9</ele>
        <time>2021-05-16T08:27:03Z</time>
      </trkpt>
      <trkpt lat="41.2554460" lon="-8.7235210">
        <ele>5.9</ele>
        <time>2021-05-16T08:27:04Z</time>
      </trkpt>
      <trkpt lat="41.2554610" lon="-8.7235180">
        <ele>5.9</ele>
        <time>2021-05-16T08:27:05Z</time>
      </trkpt>
      <trkpt lat="41.2554740" lon="-8.7235080">
        <ele>5.8</ele>
        <time>2021-05-16T08:27:06Z</time>
      </trkpt>
      <trkpt lat="41.2554880" lon="-8.7235040">
        <ele>5.8</ele>
        <time>2021-05-16T08:27:07Z</time>
      </trkpt>
      <trkpt lat="41.2555030" lon="-8.7235050">
        <ele>5.8</ele>
        <time>2021-05-16T08:27:08Z</time>
      </trkpt>
      <trkpt lat="41.2555170" lon="-8.7235010">
        <ele>5.8</ele>
        <time>2021-05-16T08:27:09Z</time>
      </trkpt>
      <trkpt lat="41.2555300" lon="-8.7234920">
        <ele>5.8</ele>
        <time>2021-05-16T08:27:10Z</time>
      </trkpt>
      <trkpt lat="41.2555450" lon="-8.7234860">
        <ele>5.8</ele>
        <time>2021-05-16T08:27:11Z</time>
      </trkpt>
      <trkpt lat="41.2555600" lon="-8.7234830">
        <ele>5.8</ele>
        <time>2021-05-16T08:27:12Z</time>
      </trkpt>
      <trkpt lat="41.2555740" lon="-8.7234710">
        <ele>5.8</ele>
        <time>2021-05-16T08:27:13Z</time>
      </trkpt>
      <trkpt lat="41.2555890" lon="-8.7234690">
        <ele>5.8</ele>
        <time>2021-05-16T08:27:14Z</time>
      </trkpt>
      <trkpt lat="41.2556020" lon="-8.7234700">
        <ele>5.8</ele>
        <time>2021-05-16T08:27:15Z</time>
      </trkpt>
      <trkpt lat="41.2556160" lon="-8.7234650">
        <ele>5.8</ele>
        <time>2021-05-16T08:27:16Z</time>
      </trkpt>
      <trkpt lat="41.2556310" lon="-8.7234660">
        <ele>5.8</ele>
        <time>2021-05-16T08:27:17Z</time>
      </trkpt>
      <trkpt lat="41.2556480" lon="-8.7234650">
        <ele>5.8</ele>
        <time>2021-05-16T08:27:18Z</time>
      </trkpt>
      <trkpt lat="41.2556610" lon="-8.7234610">
        <ele>5.8</ele>
        <time>2021-05-16T08:27:19Z</time>
      </trkpt>
      <trkpt lat="41.2556740" lon="-8.7234530">
        <ele>5.8</ele>
        <time>2021-05-16T08:27:20Z</time>
      </trkpt>
      <trkpt lat="41.2556860" lon="-8.7234460">
        <ele>5.8</ele>
        <time>2021-05-16T08:27:21Z</time>
      </trkpt>
      <trkpt lat="41.2557020" lon="-8.7234410">
        <ele>5.8</ele>
        <time>2021-05-16T08:27:22Z</time>
      </trkpt>
      <trkpt lat="41.2557150" lon="-8.7234380">
        <ele>5.8</ele>
        <time>2021-05-16T08:27:23Z</time>
      </trkpt>
      <trkpt lat="41.2557300" lon="-8.7234350">
        <ele>5.8</ele>
        <time>2021-05-16T08:27:24Z</time>
      </trkpt>
      <trkpt lat="41.2557430" lon="-8.7234260">
        <ele>5.8</ele>
        <time>2021-05-16T08:27:25Z</time>
      </trkpt>
      <trkpt lat="41.2557580" lon="-8.7234260">
        <ele>5.8</ele>
        <time>2021-05-16T08:27:26Z</time>
      </trkpt>
      <trkpt lat="41.2557700" lon="-8.7234180">
        <ele>5.8</ele>
        <time>2021-05-16T08:27:27Z</time>
      </trkpt>
      <trkpt lat="41.2557840" lon="-8.7234110">
        <ele>5.8</ele>
        <time>2021-05-16T08:27:28Z</time>
      </trkpt>
      <trkpt lat="41.2557970" lon="-8.7234080">
        <ele>5.8</ele>
        <time>2021-05-16T08:27:29Z</time>
      </trkpt>
      <trkpt lat="41.2558190" lon="-8.7234000">
        <ele>5.8</ele>
        <time>2021-05-16T08:27:30Z</time>
      </trkpt>
      <trkpt lat="41.2558290" lon="-8.7233970">
        <ele>5.8</ele>
        <time>2021-05-16T08:27:31Z</time>
      </trkpt>
      <trkpt lat="41.2558380" lon="-8.7233930">
        <ele>5.8</ele>
        <time>2021-05-16T08:27:32Z</time>
      </trkpt>
      <trkpt lat="41.2558510" lon="-8.7233870">
        <ele>5.8</ele>
        <time>2021-05-16T08:27:33Z</time>
      </trkpt>
      <trkpt lat="41.2558650" lon="-8.7233840">
        <ele>5.8</ele>
        <time>2021-05-16T08:27:34Z</time>
      </trkpt>
      <trkpt lat="41.2558860" lon="-8.7233800">
        <ele>5.8</ele>
        <time>2021-05-16T08:27:35Z</time>
      </trkpt>
      <trkpt lat="41.2558960" lon="-8.7233780">
        <ele>5.8</ele>
        <time>2021-05-16T08:27:36Z</time>
      </trkpt>
      <trkpt lat="41.2559050" lon="-8.7233770">
        <ele>5.8</ele>
        <time>2021-05-16T08:27:37Z</time>
      </trkpt>
      <trkpt lat="41.2559180" lon="-8.7233700">
        <ele>5.8</ele>
        <time>2021-05-16T08:27:38Z</time>
      </trkpt>
      <trkpt lat="41.2559310" lon="-8.7233640">
        <ele>5.8</ele>
        <time>2021-05-16T08:27:39Z</time>
      </trkpt>
      <trkpt lat="41.2559440" lon="-8.7233580">
        <ele>5.8</ele>
        <time>2021-05-16T08:27:40Z</time>
      </trkpt>
      <trkpt lat="41.2559590" lon="-8.7233510">
        <ele>5.8</ele>
        <time>2021-05-16T08:27:41Z</time>
      </trkpt>
      <trkpt lat="41.2559720" lon="-8.7233500">
        <ele>5.8</ele>
        <time>2021-05-16T08:27:42Z</time>
      </trkpt>
      <trkpt lat="41.2559870" lon="-8.7233440">
        <ele>5.8</ele>
        <time>2021-05-16T08:27:43Z</time>
      </trkpt>
      <trkpt lat="41.2560020" lon="-8.7233350">
        <ele>5.8</ele>
        <time>2021-05-16T08:27:44Z</time>
      </trkpt>
      <trkpt lat="41.2560170" lon="-8.7233310">
        <ele>5.8</ele>
        <time>2021-05-16T08:27:45Z</time>
      </trkpt>
      <trkpt lat="41.2560290" lon="-8.7233280">
        <ele>5.8</ele>
        <time>2021-05-16T08:27:46Z</time>
      </trkpt>
      <trkpt lat="41.2560440" lon="-8.7233250">
        <ele>5.8</ele>
        <time>2021-05-16T08:27:47Z</time>
      </trkpt>
      <trkpt lat="41.2560580" lon="-8.7233170">
        <ele>5.8</ele>
        <time>2021-05-16T08:27:48Z</time>
      </trkpt>
      <trkpt lat="41.2560710" lon="-8.7233120">
        <ele>5.8</ele>
        <time>2021-05-16T08:27:49Z</time>
      </trkpt>
      <trkpt lat="41.2560860" lon="-8.7233050">
        <ele>5.8</ele>
        <time>2021-05-16T08:27:50Z</time>
      </trkpt>
      <trkpt lat="41.2561000" lon="-8.7233030">
        <ele>5.8</ele>
        <time>2021-05-16T08:27:51Z</time>
      </trkpt>
      <trkpt lat="41.2561140" lon="-8.7232980">
        <ele>5.8</ele>
        <time>2021-05-16T08:27:52Z</time>
      </trkpt>
      <trkpt lat="41.2561280" lon="-8.7232960">
        <ele>5.8</ele>
        <time>2021-05-16T08:27:53Z</time>
      </trkpt>
      <trkpt lat="41.2561500" lon="-8.7232890">
        <ele>5.8</ele>
        <time>2021-05-16T08:27:54Z</time>
      </trkpt>
      <trkpt lat="41.2561570" lon="-8.7232870">
        <ele>5.7</ele>
        <time>2021-05-16T08:27:55Z</time>
      </trkpt>
      <trkpt lat="41.2561650" lon="-8.7232840">
        <ele>5.7</ele>
        <time>2021-05-16T08:27:56Z</time>
      </trkpt>
      <trkpt lat="41.2561810" lon="-8.7232780">
        <ele>5.7</ele>
        <time>2021-05-16T08:27:57Z</time>
      </trkpt>
      <trkpt lat="41.2561940" lon="-8.7232740">
        <ele>5.7</ele>
        <time>2021-05-16T08:27:58Z</time>
      </trkpt>
      <trkpt lat="41.2562090" lon="-8.7232710">
        <ele>5.7</ele>
        <time>2021-05-16T08:27:59Z</time>
      </trkpt>
      <trkpt lat="41.2562230" lon="-8.7232700">
        <ele>5.7</ele>
        <time>2021-05-16T08:28:00Z</time>
      </trkpt>
      <trkpt lat="41.2562390" lon="-8.7232710">
        <ele>5.7</ele>
        <time>2021-05-16T08:28:01Z</time>
      </trkpt>
      <trkpt lat="41.2562530" lon="-8.7232690">
        <ele>5.7</ele>
        <time>2021-05-16T08:28:02Z</time>
      </trkpt>
      <trkpt lat="41.2562680" lon="-8.7232810">
        <ele>5.7</ele>
        <time>2021-05-16T08:28:03Z</time>
      </trkpt>
      <trkpt lat="41.2562820" lon="-8.7232890">
        <ele>5.7</ele>
        <time>2021-05-16T08:28:04Z</time>
      </trkpt>
      <trkpt lat="41.2562950" lon="-8.7232950">
        <ele>5.7</ele>
        <time>2021-05-16T08:28:05Z</time>
      </trkpt>
      <trkpt lat="41.2563100" lon="-8.7232990">
        <ele>5.7</ele>
        <time>2021-05-16T08:28:06Z</time>
      </trkpt>
      <trkpt lat="41.2563240" lon="-8.7233010">
        <ele>5.7</ele>
        <time>2021-05-16T08:28:07Z</time>
      </trkpt>
      <trkpt lat="41.2563400" lon="-8.7233040">
        <ele>5.7</ele>
        <time>2021-05-16T08:28:08Z</time>
      </trkpt>
      <trkpt lat="41.2563540" lon="-8.7233090">
        <ele>5.7</ele>
        <time>2021-05-16T08:28:09Z</time>
      </trkpt>
      <trkpt lat="41.2563660" lon="-8.7233220">
        <ele>5.7</ele>
        <time>2021-05-16T08:28:10Z</time>
      </trkpt>
      <trkpt lat="41.2563720" lon="-8.7233350">
        <ele>5.7</ele>
        <time>2021-05-16T08:28:11Z</time>
      </trkpt>
      <trkpt lat="41.2563800" lon="-8.7233570">
        <ele>5.7</ele>
        <time>2021-05-16T08:28:12Z</time>
      </trkpt>
      <trkpt lat="41.2563920" lon="-8.7233650">
        <ele>5.7</ele>
        <time>2021-05-16T08:28:13Z</time>
      </trkpt>
      <trkpt lat="41.2564070" lon="-8.7233750">
        <ele>5.7</ele>
        <time>2021-05-16T08:28:14Z</time>
      </trkpt>
      <trkpt lat="41.2564200" lon="-8.7233830">
        <ele>5.7</ele>
        <time>2021-05-16T08:28:15Z</time>
      </trkpt>
      <trkpt lat="41.2564300" lon="-8.7233940">
        <ele>5.7</ele>
        <time>2021-05-16T08:28:16Z</time>
      </trkpt>
      <trkpt lat="41.2564420" lon="-8.7233990">
        <ele>5.7</ele>
        <time>2021-05-16T08:28:17Z</time>
      </trkpt>
      <trkpt lat="41.2564590" lon="-8.7234020">
        <ele>5.7</ele>
        <time>2021-05-16T08:28:18Z</time>
      </trkpt>
      <trkpt lat="41.2564720" lon="-8.7234090">
        <ele>5.7</ele>
        <time>2021-05-16T08:28:19Z</time>
      </trkpt>
      <trkpt lat="41.2564870" lon="-8.7234170">
        <ele>5.7</ele>
        <time>2021-05-16T08:28:20Z</time>
      </trkpt>
      <trkpt lat="41.2565070" lon="-8.7234300">
        <ele>5.7</ele>
        <time>2021-05-16T08:28:21Z</time>
      </trkpt>
      <trkpt lat="41.2565170" lon="-8.7234350">
        <ele>5.7</ele>
        <time>2021-05-16T08:28:22Z</time>
      </trkpt>
      <trkpt lat="41.2565260" lon="-8.7234400">
        <ele>5.7</ele>
        <time>2021-05-16T08:28:23Z</time>
      </trkpt>
      <trkpt lat="41.2565410" lon="-8.7234430">
        <ele>5.7</ele>
        <time>2021-05-16T08:28:24Z</time>
      </trkpt>
      <trkpt lat="41.2565590" lon="-8.7234480">
        <ele>5.7</ele>
        <time>2021-05-16T08:28:25Z</time>
      </trkpt>
      <trkpt lat="41.2565730" lon="-8.7234500">
        <ele>5.7</ele>
        <time>2021-05-16T08:28:26Z</time>
      </trkpt>
      <trkpt lat="41.2565870" lon="-8.7234580">
        <ele>5.8</ele>
        <time>2021-05-16T08:28:27Z</time>
      </trkpt>
      <trkpt lat="41.2566000" lon="-8.7234590">
        <ele>5.8</ele>
        <time>2021-05-16T08:28:28Z</time>
      </trkpt>
      <trkpt lat="41.2566150" lon="-8.7234700">
        <ele>5.8</ele>
        <time>2021-05-16T08:28:29Z</time>
      </trkpt>
      <trkpt lat="41.2566380" lon="-8.7234690">
        <ele>5.8</ele>
        <time>2021-05-16T08:28:30Z</time>
      </trkpt>
      <trkpt lat="41.2566450" lon="-8.7234720">
        <ele>5.8</ele>
        <time>2021-05-16T08:28:31Z</time>
      </trkpt>
      <trkpt lat="41.2566530" lon="-8.7234760">
        <ele>5.8</ele>
        <time>2021-05-16T08:28:32Z</time>
      </trkpt>
      <trkpt lat="41.2566680" lon="-8.7234790">
        <ele>5.8</ele>
        <time>2021-05-16T08:28:33Z</time>
      </trkpt>
      <trkpt lat="41.2566800" lon="-8.7234840">
        <ele>5.8</ele>
        <time>2021-05-16T08:28:34Z</time>
      </trkpt>
      <trkpt lat="41.2566930" lon="-8.7234820">
        <ele>5.8</ele>
        <time>2021-05-16T08:28:35Z</time>
      </trkpt>
      <trkpt lat="41.2567080" lon="-8.7234880">
        <ele>5.8</ele>
        <time>2021-05-16T08:28:36Z</time>
      </trkpt>
      <trkpt lat="41.2567200" lon="-8.7234950">
        <ele>5.8</ele>
        <time>2021-05-16T08:28:37Z</time>
      </trkpt>
      <trkpt lat="41.2567350" lon="-8.7234970">
        <ele>5.8</ele>
        <time>2021-05-16T08:28:38Z</time>
      </trkpt>
      <trkpt lat="41.2567480" lon="-8.7235030">
        <ele>5.8</ele>
        <time>2021-05-16T08:28:39Z</time>
      </trkpt>
      <trkpt lat="41.2567600" lon="-8.7235110">
        <ele>5.8</ele>
        <time>2021-05-16T08:28:40Z</time>
      </trkpt>
      <trkpt lat="41.2567750" lon="-8.7235220">
        <ele>5.8</ele>
        <time>2021-05-16T08:28:41Z</time>
      </trkpt>
      <trkpt lat="41.2567880" lon="-8.7235330">
        <ele>5.8</ele>
        <time>2021-05-16T08:28:42Z</time>
      </trkpt>
      <trkpt lat="41.2568000" lon="-8.7235400">
        <ele>5.8</ele>
        <time>2021-05-16T08:28:43Z</time>
      </trkpt>
      <trkpt lat="41.2568170" lon="-8.7235390">
        <ele>5.8</ele>
        <time>2021-05-16T08:28:44Z</time>
      </trkpt>
      <trkpt lat="41.2568320" lon="-8.7235310">
        <ele>5.8</ele>
        <time>2021-05-16T08:28:45Z</time>
      </trkpt>
      <trkpt lat="41.2568450" lon="-8.7235290">
        <ele>5.8</ele>
        <time>2021-05-16T08:28:46Z</time>
      </trkpt>
      <trkpt lat="41.2568540" lon="-8.7235220">
        <ele>5.8</ele>
        <time>2021-05-16T08:28:47Z</time>
      </trkpt>
      <trkpt lat="41.2568590" lon="-8.7235050">
        <ele>5.8</ele>
        <time>2021-05-16T08:28:48Z</time>
      </trkpt>
      <trkpt lat="41.2568620" lon="-8.7234870">
        <ele>5.8</ele>
        <time>2021-05-16T08:28:49Z</time>
      </trkpt>
      <trkpt lat="41.2568710" lon="-8.7234600">
        <ele>5.8</ele>
        <time>2021-05-16T08:28:50Z</time>
      </trkpt>
      <trkpt lat="41.2568780" lon="-8.7234500">
        <ele>5.8</ele>
        <time>2021-05-16T08:28:51Z</time>
      </trkpt>
      <trkpt lat="41.2568850" lon="-8.7234410">
        <ele>5.8</ele>
        <time>2021-05-16T08:28:52Z</time>
      </trkpt>
      <trkpt lat="41.2569010" lon="-8.7234380">
        <ele>5.7</ele>
        <time>2021-05-16T08:28:53Z</time>
      </trkpt>
      <trkpt lat="41.2569130" lon="-8.7234300">
        <ele>5.7</ele>
        <time>2021-05-16T08:28:54Z</time>
      </trkpt>
      <trkpt lat="41.2569260" lon="-8.7234300">
        <ele>5.7</ele>
        <time>2021-05-16T08:28:55Z</time>
      </trkpt>
      <trkpt lat="41.2569350" lon="-8.7234140">
        <ele>5.7</ele>
        <time>2021-05-16T08:28:56Z</time>
      </trkpt>
      <trkpt lat="41.2569430" lon="-8.7234070">
        <ele>5.7</ele>
        <time>2021-05-16T08:28:57Z</time>
      </trkpt>
      <trkpt lat="41.2569510" lon="-8.7233940">
        <ele>5.7</ele>
        <time>2021-05-16T08:28:58Z</time>
      </trkpt>
      <trkpt lat="41.2569570" lon="-8.7233900">
        <ele>5.7</ele>
        <time>2021-05-16T08:28:59Z</time>
      </trkpt>
      <trkpt lat="41.2569580" lon="-8.7233840">
        <ele>5.7</ele>
        <time>2021-05-16T08:29:00Z</time>
      </trkpt>
      <trkpt lat="41.2569650" lon="-8.7233810">
        <ele>5.7</ele>
        <time>2021-05-16T08:29:01Z</time>
      </trkpt>
      <trkpt lat="41.2569750" lon="-8.7233570">
        <ele>5.6</ele>
        <time>2021-05-16T08:29:02Z</time>
      </trkpt>
      <trkpt lat="41.2569810" lon="-8.7233440">
        <ele>5.6</ele>
        <time>2021-05-16T08:29:03Z</time>
      </trkpt>
      <trkpt lat="41.2569870" lon="-8.7233300">
        <ele>5.6</ele>
        <time>2021-05-16T08:29:04Z</time>
      </trkpt>
      <trkpt lat="41.2570010" lon="-8.7233090">
        <ele>5.6</ele>
        <time>2021-05-16T08:29:05Z</time>
      </trkpt>
      <trkpt lat="41.2570080" lon="-8.7233020">
        <ele>5.6</ele>
        <time>2021-05-16T08:29:06Z</time>
      </trkpt>
      <trkpt lat="41.2570140" lon="-8.7232950">
        <ele>5.6</ele>
        <time>2021-05-16T08:29:07Z</time>
      </trkpt>
      <trkpt lat="41.2570270" lon="-8.7232840">
        <ele>5.6</ele>
        <time>2021-05-16T08:29:08Z</time>
      </trkpt>
      <trkpt lat="41.2570400" lon="-8.7232740">
        <ele>5.6</ele>
        <time>2021-05-16T08:29:09Z</time>
      </trkpt>
      <trkpt lat="41.2570520" lon="-8.7232620">
        <ele>5.5</ele>
        <time>2021-05-16T08:29:10Z</time>
      </trkpt>
      <trkpt lat="41.2570650" lon="-8.7232530">
        <ele>5.5</ele>
        <time>2021-05-16T08:29:11Z</time>
      </trkpt>
      <trkpt lat="41.2570790" lon="-8.7232440">
        <ele>5.5</ele>
        <time>2021-05-16T08:29:12Z</time>
      </trkpt>
      <trkpt lat="41.2570920" lon="-8.7232340">
        <ele>5.5</ele>
        <time>2021-05-16T08:29:13Z</time>
      </trkpt>
      <trkpt lat="41.2571050" lon="-8.7232270">
        <ele>5.5</ele>
        <time>2021-05-16T08:29:14Z</time>
      </trkpt>
      <trkpt lat="41.2571210" lon="-8.7232340">
        <ele>5.5</ele>
        <time>2021-05-16T08:29:15Z</time>
      </trkpt>
      <trkpt lat="41.2571360" lon="-8.7232420">
        <ele>5.5</ele>
        <time>2021-05-16T08:29:16Z</time>
      </trkpt>
      <trkpt lat="41.2571510" lon="-8.7232510">
        <ele>5.5</ele>
        <time>2021-05-16T08:29:17Z</time>
      </trkpt>
      <trkpt lat="41.2571670" lon="-8.7232540">
        <ele>5.5</ele>
        <time>2021-05-16T08:29:18Z</time>
      </trkpt>
      <trkpt lat="41.2571840" lon="-8.7232510">
        <ele>5.5</ele>
        <time>2021-05-16T08:29:19Z</time>
      </trkpt>
      <trkpt lat="41.2572020" lon="-8.7232600">
        <ele>5.5</ele>
        <time>2021-05-16T08:29:20Z</time>
      </trkpt>
      <trkpt lat="41.2572190" lon="-8.7232610">
        <ele>5.5</ele>
        <time>2021-05-16T08:29:21Z</time>
      </trkpt>
      <trkpt lat="41.2572360" lon="-8.7232630">
        <ele>5.5</ele>
        <time>2021-05-16T08:29:22Z</time>
      </trkpt>
      <trkpt lat="41.2572520" lon="-8.7232670">
        <ele>5.5</ele>
        <time>2021-05-16T08:29:23Z</time>
      </trkpt>
      <trkpt lat="41.2572680" lon="-8.7232650">
        <ele>5.5</ele>
        <time>2021-05-16T08:29:24Z</time>
      </trkpt>
      <trkpt lat="41.2572840" lon="-8.7232620">
        <ele>5.5</ele>
        <time>2021-05-16T08:29:25Z</time>
      </trkpt>
      <trkpt lat="41.2573000" lon="-8.7232620">
        <ele>5.5</ele>
        <time>2021-05-16T08:29:26Z</time>
      </trkpt>
      <trkpt lat="41.2573150" lon="-8.7232670">
        <ele>5.5</ele>
        <time>2021-05-16T08:29:27Z</time>
      </trkpt>
      <trkpt lat="41.2573290" lon="-8.7232760">
        <ele>5.5</ele>
        <time>2021-05-16T08:29:28Z</time>
      </trkpt>
      <trkpt lat="41.2573440" lon="-8.7232800">
        <ele>5.5</ele>
        <time>2021-05-16T08:29:29Z</time>
      </trkpt>
      <trkpt lat="41.2573600" lon="-8.7232820">
        <ele>5.5</ele>
        <time>2021-05-16T08:29:30Z</time>
      </trkpt>
      <trkpt lat="41.2573750" lon="-8.7232820">
        <ele>5.5</ele>
        <time>2021-05-16T08:29:31Z</time>
      </trkpt>
      <trkpt lat="41.2573900" lon="-8.7232880">
        <ele>5.8</ele>
        <time>2021-05-16T08:29:32Z</time>
      </trkpt>
      <trkpt lat="41.2574060" lon="-8.7232930">
        <ele>5.8</ele>
        <time>2021-05-16T08:29:33Z</time>
      </trkpt>
      <trkpt lat="41.2574200" lon="-8.7232990">
        <ele>5.8</ele>
        <time>2021-05-16T08:29:34Z</time>
      </trkpt>
      <trkpt lat="41.2574320" lon="-8.7233100">
        <ele>5.8</ele>
        <time>2021-05-16T08:29:35Z</time>
      </trkpt>
      <trkpt lat="41.2574470" lon="-8.7233120">
        <ele>5.8</ele>
        <time>2021-05-16T08:29:36Z</time>
      </trkpt>
      <trkpt lat="41.2574600" lon="-8.7233190">
        <ele>5.8</ele>
        <time>2021-05-16T08:29:37Z</time>
      </trkpt>
      <trkpt lat="41.2574750" lon="-8.7233260">
        <ele>5.7</ele>
        <time>2021-05-16T08:29:38Z</time>
      </trkpt>
      <trkpt lat="41.2574870" lon="-8.7233350">
        <ele>5.7</ele>
        <time>2021-05-16T08:29:39Z</time>
      </trkpt>
      <trkpt lat="41.2575020" lon="-8.7233460">
        <ele>5.7</ele>
        <time>2021-05-16T08:29:40Z</time>
      </trkpt>
      <trkpt lat="41.2575170" lon="-8.7233520">
        <ele>5.7</ele>
        <time>2021-05-16T08:29:41Z</time>
      </trkpt>
      <trkpt lat="41.2575300" lon="-8.7233590">
        <ele>5.7</ele>
        <time>2021-05-16T08:29:42Z</time>
      </trkpt>
      <trkpt lat="41.2575460" lon="-8.7233610">
        <ele>5.7</ele>
        <time>2021-05-16T08:29:43Z</time>
      </trkpt>
      <trkpt lat="41.2575600" lon="-8.7233650">
        <ele>5.6</ele>
        <time>2021-05-16T08:29:44Z</time>
      </trkpt>
      <trkpt lat="41.2575740" lon="-8.7233720">
        <ele>5.6</ele>
        <time>2021-05-16T08:29:45Z</time>
      </trkpt>
      <trkpt lat="41.2575870" lon="-8.7233790">
        <ele>5.6</ele>
        <time>2021-05-16T08:29:46Z</time>
      </trkpt>
      <trkpt lat="41.2575980" lon="-8.7233890">
        <ele>5.6</ele>
        <time>2021-05-16T08:29:47Z</time>
      </trkpt>
      <trkpt lat="41.2576090" lon="-8.7233930">
        <ele>5.6</ele>
        <time>2021-05-16T08:29:48Z</time>
      </trkpt>
      <trkpt lat="41.2576270" lon="-8.7233900">
        <ele>5.5</ele>
        <time>2021-05-16T08:29:49Z</time>
      </trkpt>
      <trkpt lat="41.2576390" lon="-8.7233950">
        <ele>5.5</ele>
        <time>2021-05-16T08:29:50Z</time>
      </trkpt>
      <trkpt lat="41.2576490" lon="-8.7234000">
        <ele>5.5</ele>
        <time>2021-05-16T08:29:51Z</time>
      </trkpt>
      <trkpt lat="41.2576610" lon="-8.7234010">
        <ele>5.5</ele>
        <time>2021-05-16T08:29:52Z</time>
      </trkpt>
      <trkpt lat="41.2576680" lon="-8.7234070">
        <ele>5.5</ele>
        <time>2021-05-16T08:29:53Z</time>
      </trkpt>
      <trkpt lat="41.2576690" lon="-8.7234060">
        <ele>5.5</ele>
        <time>2021-05-16T08:29:54Z</time>
      </trkpt>
      <trkpt lat="41.2576620" lon="-8.7234050">
        <ele>5.5</ele>
        <time>2021-05-16T08:29:55Z</time>
      </trkpt>
      <trkpt lat="41.2576670" lon="-8.7234090">
        <ele>5.5</ele>
        <time>2021-05-16T08:29:56Z</time>
      </trkpt>
      <trkpt lat="41.2576630" lon="-8.7234060">
        <ele>5.5</ele>
        <time>2021-05-16T08:29:57Z</time>
      </trkpt>
      <trkpt lat="41.2576620" lon="-8.7234060">
        <ele>5.5</ele>
        <time>2021-05-16T08:29:58Z</time>
      </trkpt>
      <trkpt lat="41.2576600" lon="-8.7234050">
        <ele>5.5</ele>
        <time>2021-05-16T08:29:59Z</time>
      </trkpt>
      <trkpt lat="41.2576580" lon="-8.7234050">
        <ele>5.5</ele>
        <time>2021-05-16T08:30:00Z</time>
      </trkpt>
      <trkpt lat="41.2576570" lon="-8.7234050">
        <ele>5.5</ele>
        <time>2021-05-16T08:30:01Z</time>
      </trkpt>
      <trkpt lat="41.2576550" lon="-8.7234050">
        <ele>5.4</ele>
        <time>2021-05-16T08:30:02Z</time>
      </trkpt>
      <trkpt lat="41.2576540" lon="-8.7234060">
        <ele>5.4</ele>
        <time>2021-05-16T08:30:03Z</time>
      </trkpt>
      <trkpt lat="41.2576500" lon="-8.7234060">
        <ele>5.4</ele>
        <time>2021-05-16T08:30:04Z</time>
      </trkpt>
      <trkpt lat="41.2576490" lon="-8.7234060">
        <ele>5.4</ele>
        <time>2021-05-16T08:30:05Z</time>
      </trkpt>
      <trkpt lat="41.2576450" lon="-8.7234070">
        <ele>5.4</ele>
        <time>2021-05-16T08:30:06Z</time>
      </trkpt>
      <trkpt lat="41.2576450" lon="-8.7234070">
        <ele>5.4</ele>
        <time>2021-05-16T08:30:07Z</time>
      </trkpt>
      <trkpt lat="41.2576430" lon="-8.7234080">
        <ele>5.4</ele>
        <time>2021-05-16T08:30:08Z</time>
      </trkpt>
      <trkpt lat="41.2576430" lon="-8.7234070">
        <ele>5.4</ele>
        <time>2021-05-16T08:30:09Z</time>
      </trkpt>
      <trkpt lat="41.2576430" lon="-8.7234070">
        <ele>5.4</ele>
        <time>2021-05-16T08:30:10Z</time>
      </trkpt>
      <trkpt lat="41.2576410" lon="-8.7234070">
        <ele>5.4</ele>
        <time>2021-05-16T08:30:11Z</time>
      </trkpt>
      <trkpt lat="41.2576420" lon="-8.7234070">
        <ele>5.4</ele>
        <time>2021-05-16T08:30:12Z</time>
      </trkpt>
      <trkpt lat="41.2576460" lon="-8.7234080">
        <ele>5.4</ele>
        <time>2021-05-16T08:30:13Z</time>
      </trkpt>
      <trkpt lat="41.2576580" lon="-8.7234130">
        <ele>5.4</ele>
        <time>2021-05-16T08:30:14Z</time>
      </trkpt>
      <trkpt lat="41.2576650" lon="-8.7234120">
        <ele>5.4</ele>
        <time>2021-05-16T08:30:15Z</time>
      </trkpt>
      <trkpt lat="41.2576800" lon="-8.7234110">
        <ele>5.4</ele>
        <time>2021-05-16T08:30:16Z</time>
      </trkpt>
      <trkpt lat="41.2576890" lon="-8.7234150">
        <ele>5.4</ele>
        <time>2021-05-16T08:30:17Z</time>
      </trkpt>
      <trkpt lat="41.2576990" lon="-8.7234160">
        <ele>5.3</ele>
        <time>2021-05-16T08:30:18Z</time>
      </trkpt>
      <trkpt lat="41.2577050" lon="-8.7234210">
        <ele>5.3</ele>
        <time>2021-05-16T08:30:19Z</time>
      </trkpt>
      <trkpt lat="41.2577170" lon="-8.7234230">
        <ele>5.3</ele>
        <time>2021-05-16T08:30:20Z</time>
      </trkpt>
      <trkpt lat="41.2577390" lon="-8.7234210">
        <ele>5.2</ele>
        <time>2021-05-16T08:30:21Z</time>
      </trkpt>
      <trkpt lat="41.2577500" lon="-8.7234210">
        <ele>5.2</ele>
        <time>2021-05-16T08:30:22Z</time>
      </trkpt>
      <trkpt lat="41.2577610" lon="-8.7234200">
        <ele>5.2</ele>
        <time>2021-05-16T08:30:23Z</time>
      </trkpt>
      <trkpt lat="41.2577830" lon="-8.7234260">
        <ele>5.1</ele>
        <time>2021-05-16T08:30:24Z</time>
      </trkpt>
      <trkpt lat="41.2577910" lon="-8.7234260">
        <ele>5.1</ele>
        <time>2021-05-16T08:30:25Z</time>
      </trkpt>
      <trkpt lat="41.2578000" lon="-8.7234250">
        <ele>5.1</ele>
        <time>2021-05-16T08:30:26Z</time>
      </trkpt>
      <trkpt lat="41.2578160" lon="-8.7234240">
        <ele>5.1</ele>
        <time>2021-05-16T08:30:27Z</time>
      </trkpt>
      <trkpt lat="41.2578310" lon="-8.7234170">
        <ele>5.0</ele>
        <time>2021-05-16T08:30:28Z</time>
      </trkpt>
      <trkpt lat="41.2578460" lon="-8.7234160">
        <ele>5.0</ele>
        <time>2021-05-16T08:30:29Z</time>
      </trkpt>
      <trkpt lat="41.2578600" lon="-8.7234150">
        <ele>5.0</ele>
        <time>2021-05-16T08:30:30Z</time>
      </trkpt>
      <trkpt lat="41.2578730" lon="-8.7234170">
        <ele>4.9</ele>
        <time>2021-05-16T08:30:31Z</time>
      </trkpt>
      <trkpt lat="41.2578880" lon="-8.7234140">
        <ele>4.9</ele>
        <time>2021-05-16T08:30:32Z</time>
      </trkpt>
      <trkpt lat="41.2579030" lon="-8.7234170">
        <ele>4.9</ele>
        <time>2021-05-16T08:30:33Z</time>
      </trkpt>
      <trkpt lat="41.2579200" lon="-8.7234080">
        <ele>4.8</ele>
        <time>2021-05-16T08:30:34Z</time>
      </trkpt>
      <trkpt lat="41.2579370" lon="-8.7233990">
        <ele>4.8</ele>
        <time>2021-05-16T08:30:35Z</time>
      </trkpt>
      <trkpt lat="41.2579530" lon="-8.7234000">
        <ele>4.8</ele>
        <time>2021-05-16T08:30:36Z</time>
      </trkpt>
      <trkpt lat="41.2579680" lon="-8.7233980">
        <ele>4.7</ele>
        <time>2021-05-16T08:30:37Z</time>
      </trkpt>
      <trkpt lat="41.2579830" lon="-8.7233860">
        <ele>4.7</ele>
        <time>2021-05-16T08:30:38Z</time>
      </trkpt>
      <trkpt lat="41.2579980" lon="-8.7233840">
        <ele>4.7</ele>
        <time>2021-05-16T08:30:39Z</time>
      </trkpt>
      <trkpt lat="41.2580140" lon="-8.7233820">
        <ele>4.6</ele>
        <time>2021-05-16T08:30:40Z</time>
      </trkpt>
      <trkpt lat="41.2580290" lon="-8.7233770">
        <ele>4.6</ele>
        <time>2021-05-16T08:30:41Z</time>
      </trkpt>
      <trkpt lat="41.2580460" lon="-8.7233810">
        <ele>4.6</ele>
        <time>2021-05-16T08:30:42Z</time>
      </trkpt>
      <trkpt lat="41.2580610" lon="-8.7233750">
        <ele>4.5</ele>
        <time>2021-05-16T08:30:43Z</time>
      </trkpt>
      <trkpt lat="41.2580760" lon="-8.7233660">
        <ele>4.5</ele>
        <time>2021-05-16T08:30:44Z</time>
      </trkpt>
      <trkpt lat="41.2580900" lon="-8.7233580">
        <ele>4.5</ele>
        <time>2021-05-16T08:30:45Z</time>
      </trkpt>
      <trkpt lat="41.2581050" lon="-8.7233540">
        <ele>4.5</ele>
        <time>2021-05-16T08:30:46Z</time>
      </trkpt>
      <trkpt lat="41.2581210" lon="-8.7233540">
        <ele>4.4</ele>
        <time>2021-05-16T08:30:47Z</time>
      </trkpt>
      <trkpt lat="41.2581340" lon="-8.7233440">
        <ele>4.4</ele>
        <time>2021-05-16T08:30:48Z</time>
      </trkpt>
      <trkpt lat="41.2581480" lon="-8.7233390">
        <ele>4.4</ele>
        <time>2021-05-16T08:30:49Z</time>
      </trkpt>
      <trkpt lat="41.2581630" lon="-8.7233330">
        <ele>4.3</ele>
        <time>2021-05-16T08:30:50Z</time>
      </trkpt>
      <trkpt lat="41.2581790" lon="-8.7233310">
        <ele>4.3</ele>
        <time>2021-05-16T08:30:51Z</time>
      </trkpt>
      <trkpt lat="41.2581930" lon="-8.7233300">
        <ele>4.3</ele>
        <time>2021-05-16T08:30:52Z</time>
      </trkpt>
      <trkpt lat="41.2582070" lon="-8.7233260">
        <ele>4.3</ele>
        <time>2021-05-16T08:30:53Z</time>
      </trkpt>
      <trkpt lat="41.2582190" lon="-8.7233210">
        <ele>4.2</ele>
        <time>2021-05-16T08:30:54Z</time>
      </trkpt>
      <trkpt lat="41.2582350" lon="-8.7233230">
        <ele>4.2</ele>
        <time>2021-05-16T08:30:55Z</time>
      </trkpt>
      <trkpt lat="41.2582520" lon="-8.7233210">
        <ele>4.2</ele>
        <time>2021-05-16T08:30:56Z</time>
      </trkpt>
      <trkpt lat="41.2582670" lon="-8.7233230">
        <ele>4.2</ele>
        <time>2021-05-16T08:30:57Z</time>
      </trkpt>
      <trkpt lat="41.2582830" lon="-8.7233240">
        <ele>4.1</ele>
        <time>2021-05-16T08:30:58Z</time>
      </trkpt>
      <trkpt lat="41.2582970" lon="-8.7233250">
        <ele>4.1</ele>
        <time>2021-05-16T08:30:59Z</time>
      </trkpt>
      <trkpt lat="41.2583120" lon="-8.7233210">
        <ele>4.1</ele>
        <time>2021-05-16T08:31:00Z</time>
      </trkpt>
      <trkpt lat="41.2583270" lon="-8.7233230">
        <ele>4.1</ele>
        <time>2021-05-16T08:31:01Z</time>
      </trkpt>
      <trkpt lat="41.2583420" lon="-8.7233240">
        <ele>4.1</ele>
        <time>2021-05-16T08:31:02Z</time>
      </trkpt>
      <trkpt lat="41.2583560" lon="-8.7233230">
        <ele>4.1</ele>
        <time>2021-05-16T08:31:03Z</time>
      </trkpt>
      <trkpt lat="41.2583700" lon="-8.7233250">
        <ele>4.1</ele>
        <time>2021-05-16T08:31:04Z</time>
      </trkpt>
      <trkpt lat="41.2583850" lon="-8.7233210">
        <ele>4.0</ele>
        <time>2021-05-16T08:31:05Z</time>
      </trkpt>
      <trkpt lat="41.2584010" lon="-8.7233260">
        <ele>4.0</ele>
        <time>2021-05-16T08:31:06Z</time>
      </trkpt>
      <trkpt lat="41.2584180" lon="-8.7233250">
        <ele>4.0</ele>
        <time>2021-05-16T08:31:07Z</time>
      </trkpt>
      <trkpt lat="41.2584330" lon="-8.7233350">
        <ele>4.0</ele>
        <time>2021-05-16T08:31:08Z</time>
      </trkpt>
      <trkpt lat="41.2584470" lon="-8.7233420">
        <ele>4.0</ele>
        <time>2021-05-16T08:31:09Z</time>
      </trkpt>
      <trkpt lat="41.2584620" lon="-8.7233410">
        <ele>4.0</ele>
        <time>2021-05-16T08:31:10Z</time>
      </trkpt>
      <trkpt lat="41.2584770" lon="-8.7233400">
        <ele>4.0</ele>
        <time>2021-05-16T08:31:11Z</time>
      </trkpt>
      <trkpt lat="41.2584920" lon="-8.7233410">
        <ele>4.0</ele>
        <time>2021-05-16T08:31:12Z</time>
      </trkpt>
      <trkpt lat="41.2585090" lon="-8.7233460">
        <ele>4.0</ele>
        <time>2021-05-16T08:31:13Z</time>
      </trkpt>
      <trkpt lat="41.2585230" lon="-8.7233530">
        <ele>5.4</ele>
        <time>2021-05-16T08:31:14Z</time>
      </trkpt>
      <trkpt lat="41.2585390" lon="-8.7233590">
        <ele>5.4</ele>
        <time>2021-05-16T08:31:15Z</time>
      </trkpt>
      <trkpt lat="41.2585520" lon="-8.7233660">
        <ele>5.4</ele>
        <time>2021-05-16T08:31:16Z</time>
      </trkpt>
      <trkpt lat="41.2585670" lon="-8.7233700">
        <ele>5.4</ele>
        <time>2021-05-16T08:31:17Z</time>
      </trkpt>
      <trkpt lat="41.2585830" lon="-8.7233740">
        <ele>5.4</ele>
        <time>2021-05-16T08:31:18Z</time>
      </trkpt>
      <trkpt lat="41.2585980" lon="-8.7233780">
        <ele>5.4</ele>
        <time>2021-05-16T08:31:19Z</time>
      </trkpt>
      <trkpt lat="41.2586130" lon="-8.7233850">
        <ele>5.4</ele>
        <time>2021-05-16T08:31:20Z</time>
      </trkpt>
      <trkpt lat="41.2586280" lon="-8.7233900">
        <ele>5.4</ele>
        <time>2021-05-16T08:31:21Z</time>
      </trkpt>
      <trkpt lat="41.2586420" lon="-8.7234000">
        <ele>5.4</ele>
        <time>2021-05-16T08:31:22Z</time>
      </trkpt>
      <trkpt lat="41.2586580" lon="-8.7234040">
        <ele>5.4</ele>
        <time>2021-05-16T08:31:23Z</time>
      </trkpt>
      <trkpt lat="41.2586730" lon="-8.7234100">
        <ele>5.4</ele>
        <time>2021-05-16T08:31:24Z</time>
      </trkpt>
      <trkpt lat="41.2586860" lon="-8.7234140">
        <ele>5.4</ele>
        <time>2021-05-16T08:31:25Z</time>
      </trkpt>
      <trkpt lat="41.2587000" lon="-8.7234230">
        <ele>5.5</ele>
        <time>2021-05-16T08:31:26Z</time>
      </trkpt>
      <trkpt lat="41.2587140" lon="-8.7234290">
        <ele>5.5</ele>
        <time>2021-05-16T08:31:27Z</time>
      </trkpt>
      <trkpt lat="41.2587270" lon="-8.7234480">
        <ele>5.5</ele>
        <time>2021-05-16T08:31:28Z</time>
      </trkpt>
      <trkpt lat="41.2587440" lon="-8.7234610">
        <ele>5.5</ele>
        <time>2021-05-16T08:31:29Z</time>
      </trkpt>
      <trkpt lat="41.2587530" lon="-8.7234670">
        <ele>5.5</ele>
        <time>2021-05-16T08:31:30Z</time>
      </trkpt>
      <trkpt lat="41.2587620" lon="-8.7234740">
        <ele>5.5</ele>
        <time>2021-05-16T08:31:31Z</time>
      </trkpt>
      <trkpt lat="41.2587800" lon="-8.7234950">
        <ele>5.5</ele>
        <time>2021-05-16T08:31:32Z</time>
      </trkpt>
      <trkpt lat="41.2587890" lon="-8.7235010">
        <ele>5.5</ele>
        <time>2021-05-16T08:31:33Z</time>
      </trkpt>
      <trkpt lat="41.2587980" lon="-8.7235080">
        <ele>5.5</ele>
        <time>2021-05-16T08:31:34Z</time>
      </trkpt>
      <trkpt lat="41.2588090" lon="-8.7235180">
        <ele>5.5</ele>
        <time>2021-05-16T08:31:35Z</time>
      </trkpt>
      <trkpt lat="41.2588240" lon="-8.7235250">
        <ele>5.5</ele>
        <time>2021-05-16T08:31:36Z</time>
      </trkpt>
      <trkpt lat="41.2588360" lon="-8.7235370">
        <ele>5.6</ele>
        <time>2021-05-16T08:31:37Z</time>
      </trkpt>
      <trkpt lat="41.2588520" lon="-8.7235460">
        <ele>5.6</ele>
        <time>2021-05-16T08:31:38Z</time>
      </trkpt>
      <trkpt lat="41.2588720" lon="-8.7235560">
        <ele>5.6</ele>
        <time>2021-05-16T08:31:39Z</time>
      </trkpt>
      <trkpt lat="41.2588800" lon="-8.7235610">
        <ele>5.6</ele>
        <time>2021-05-16T08:31:40Z</time>
      </trkpt>
      <trkpt lat="41.2588890" lon="-8.7235670">
        <ele>5.6</ele>
        <time>2021-05-16T08:31:41Z</time>
      </trkpt>
      <trkpt lat="41.2589040" lon="-8.7235780">
        <ele>5.6</ele>
        <time>2021-05-16T08:31:42Z</time>
      </trkpt>
      <trkpt lat="41.2589160" lon="-8.7235890">
        <ele>5.6</ele>
        <time>2021-05-16T08:31:43Z</time>
      </trkpt>
      <trkpt lat="41.2589280" lon="-8.7235980">
        <ele>5.6</ele>
        <time>2021-05-16T08:31:44Z</time>
      </trkpt>
      <trkpt lat="41.2589430" lon="-8.7235970">
        <ele>5.6</ele>
        <time>2021-05-16T08:31:45Z</time>
      </trkpt>
      <trkpt lat="41.2589590" lon="-8.7235980">
        <ele>5.6</ele>
        <time>2021-05-16T08:31:46Z</time>
      </trkpt>
      <trkpt lat="41.2589720" lon="-8.7236010">
        <ele>5.7</ele>
        <time>2021-05-16T08:31:47Z</time>
      </trkpt>
      <trkpt lat="41.2589860" lon="-8.7236030">
        <ele>5.7</ele>
        <time>2021-05-16T08:31:48Z</time>
      </trkpt>
      <trkpt lat="41.2589990" lon="-8.7236070">
        <ele>5.7</ele>
        <time>2021-05-16T08:31:49Z</time>
      </trkpt>
      <trkpt lat="41.2590130" lon="-8.7236130">
        <ele>5.7</ele>
        <time>2021-05-16T08:31:50Z</time>
      </trkpt>
      <trkpt lat="41.2590260" lon="-8.7236190">
        <ele>5.7</ele>
        <time>2021-05-16T08:31:51Z</time>
      </trkpt>
      <trkpt lat="41.2590460" lon="-8.7236300">
        <ele>5.7</ele>
        <time>2021-05-16T08:31:52Z</time>
      </trkpt>
      <trkpt lat="41.2590550" lon="-8.7236340">
        <ele>5.7</ele>
        <time>2021-05-16T08:31:53Z</time>
      </trkpt>
      <trkpt lat="41.2590630" lon="-8.7236380">
        <ele>5.7</ele>
        <time>2021-05-16T08:31:54Z</time>
      </trkpt>
      <trkpt lat="41.2590750" lon="-8.7236470">
        <ele>5.7</ele>
        <time>2021-05-16T08:31:55Z</time>
      </trkpt>
      <trkpt lat="41.2590880" lon="-8.7236510">
        <ele>5.7</ele>
        <time>2021-05-16T08:31:56Z</time>
      </trkpt>
      <trkpt lat="41.2591030" lon="-8.7236560">
        <ele>5.8</ele>
        <time>2021-05-16T08:31:57Z</time>
      </trkpt>
      <trkpt lat="41.2591150" lon="-8.7236660">
        <ele>5.8</ele>
        <time>2021-05-16T08:31:58Z</time>
      </trkpt>
      <trkpt lat="41.2591300" lon="-8.7236720">
        <ele>5.8</ele>
        <time>2021-05-16T08:31:59Z</time>
      </trkpt>
      <trkpt lat="41.2591420" lon="-8.7236820">
        <ele>5.8</ele>
        <time>2021-05-16T08:32:00Z</time>
      </trkpt>
      <trkpt lat="41.2591560" lon="-8.7236880">
        <ele>5.8</ele>
        <time>2021-05-16T08:32:01Z</time>
      </trkpt>
      <trkpt lat="41.2591720" lon="-8.7236970">
        <ele>5.8</ele>
        <time>2021-05-16T08:32:02Z</time>
      </trkpt>
      <trkpt lat="41.2591860" lon="-8.7237030">
        <ele>5.8</ele>
        <time>2021-05-16T08:32:03Z</time>
      </trkpt>
      <trkpt lat="41.2591980" lon="-8.7237130">
        <ele>5.8</ele>
        <time>2021-05-16T08:32:04Z</time>
      </trkpt>
      <trkpt lat="41.2592110" lon="-8.7237190">
        <ele>5.8</ele>
        <time>2021-05-16T08:32:05Z</time>
      </trkpt>
      <trkpt lat="41.2592260" lon="-8.7237260">
        <ele>5.8</ele>
        <time>2021-05-16T08:32:06Z</time>
      </trkpt>
      <trkpt lat="41.2592370" lon="-8.7237380">
        <ele>5.9</ele>
        <time>2021-05-16T08:32:07Z</time>
      </trkpt>
      <trkpt lat="41.2592530" lon="-8.7237440">
        <ele>5.9</ele>
        <time>2021-05-16T08:32:08Z</time>
      </trkpt>
      <trkpt lat="41.2592670" lon="-8.7237510">
        <ele>5.9</ele>
        <time>2021-05-16T08:32:09Z</time>
      </trkpt>
      <trkpt lat="41.2592800" lon="-8.7237580">
        <ele>5.9</ele>
        <time>2021-05-16T08:32:10Z</time>
      </trkpt>
      <trkpt lat="41.2592940" lon="-8.7237650">
        <ele>5.9</ele>
        <time>2021-05-16T08:32:11Z</time>
      </trkpt>
      <trkpt lat="41.2593070" lon="-8.7237740">
        <ele>5.9</ele>
        <time>2021-05-16T08:32:12Z</time>
      </trkpt>
      <trkpt lat="41.2593220" lon="-8.7237770">
        <ele>5.9</ele>
        <time>2021-05-16T08:32:13Z</time>
      </trkpt>
      <trkpt lat="41.2593350" lon="-8.7237840">
        <ele>5.9</ele>
        <time>2021-05-16T08:32:14Z</time>
      </trkpt>
      <trkpt lat="41.2593520" lon="-8.7237880">
        <ele>5.9</ele>
        <time>2021-05-16T08:32:15Z</time>
      </trkpt>
      <trkpt lat="41.2593650" lon="-8.7237940">
        <ele>5.9</ele>
        <time>2021-05-16T08:32:16Z</time>
      </trkpt>
      <trkpt lat="41.2593780" lon="-8.7238020">
        <ele>5.9</ele>
        <time>2021-05-16T08:32:17Z</time>
      </trkpt>
      <trkpt lat="41.2593920" lon="-8.7238150">
        <ele>6.0</ele>
        <time>2021-05-16T08:32:18Z</time>
      </trkpt>
      <trkpt lat="41.2594080" lon="-8.7238160">
        <ele>6.0</ele>
        <time>2021-05-16T08:32:19Z</time>
      </trkpt>
      <trkpt lat="41.2594220" lon="-8.7238210">
        <ele>6.0</ele>
        <time>2021-05-16T08:32:20Z</time>
      </trkpt>
      <trkpt lat="41.2594360" lon="-8.7238250">
        <ele>6.0</ele>
        <time>2021-05-16T08:32:21Z</time>
      </trkpt>
      <trkpt lat="41.2594510" lon="-8.7238300">
        <ele>6.0</ele>
        <time>2021-05-16T08:32:22Z</time>
      </trkpt>
      <trkpt lat="41.2594630" lon="-8.7238380">
        <ele>6.0</ele>
        <time>2021-05-16T08:32:23Z</time>
      </trkpt>
      <trkpt lat="41.2594780" lon="-8.7238430">
        <ele>6.0</ele>
        <time>2021-05-16T08:32:24Z</time>
      </trkpt>
      <trkpt lat="41.2594980" lon="-8.7238500">
        <ele>6.1</ele>
        <time>2021-05-16T08:32:25Z</time>
      </trkpt>
      <trkpt lat="41.2595070" lon="-8.7238530">
        <ele>6.1</ele>
        <time>2021-05-16T08:32:26Z</time>
      </trkpt>
      <trkpt lat="41.2595160" lon="-8.7238570">
        <ele>6.1</ele>
        <time>2021-05-16T08:32:27Z</time>
      </trkpt>
      <trkpt lat="41.2595390" lon="-8.7238630">
        <ele>6.1</ele>
        <time>2021-05-16T08:32:28Z</time>
      </trkpt>
      <trkpt lat="41.2595490" lon="-8.7238670">
        <ele>6.1</ele>
        <time>2021-05-16T08:32:29Z</time>
      </trkpt>
      <trkpt lat="41.2595580" lon="-8.7238720">
        <ele>6.1</ele>
        <time>2021-05-16T08:32:30Z</time>
      </trkpt>
      <trkpt lat="41.2595770" lon="-8.7238860">
        <ele>6.1</ele>
        <time>2021-05-16T08:32:31Z</time>
      </trkpt>
      <trkpt lat="41.2595870" lon="-8.7238890">
        <ele>6.2</ele>
        <time>2021-05-16T08:32:32Z</time>
      </trkpt>
      <trkpt lat="41.2595960" lon="-8.7238930">
        <ele>6.2</ele>
        <time>2021-05-16T08:32:33Z</time>
      </trkpt>
      <trkpt lat="41.2596100" lon="-8.7238990">
        <ele>6.2</ele>
        <time>2021-05-16T08:32:34Z</time>
      </trkpt>
      <trkpt lat="41.2596230" lon="-8.7239040">
        <ele>6.2</ele>
        <time>2021-05-16T08:32:35Z</time>
      </trkpt>
      <trkpt lat="41.2596380" lon="-8.7239100">
        <ele>6.2</ele>
        <time>2021-05-16T08:32:36Z</time>
      </trkpt>
      <trkpt lat="41.2596510" lon="-8.7239150">
        <ele>6.2</ele>
        <time>2021-05-16T08:32:37Z</time>
      </trkpt>
      <trkpt lat="41.2596650" lon="-8.7239260">
        <ele>6.2</ele>
        <time>2021-05-16T08:32:38Z</time>
      </trkpt>
      <trkpt lat="41.2596780" lon="-8.7239300">
        <ele>6.2</ele>
        <time>2021-05-16T08:32:39Z</time>
      </trkpt>
      <trkpt lat="41.2596990" lon="-8.7239390">
        <ele>6.2</ele>
        <time>2021-05-16T08:32:40Z</time>
      </trkpt>
      <trkpt lat="41.2597080" lon="-8.7239420">
        <ele>6.2</ele>
        <time>2021-05-16T08:32:41Z</time>
      </trkpt>
      <trkpt lat="41.2597160" lon="-8.7239440">
        <ele>6.2</ele>
        <time>2021-05-16T08:32:42Z</time>
      </trkpt>
      <trkpt lat="41.2597370" lon="-8.7239520">
        <ele>6.3</ele>
        <time>2021-05-16T08:32:43Z</time>
      </trkpt>
      <trkpt lat="41.2597470" lon="-8.7239580">
        <ele>6.3</ele>
        <time>2021-05-16T08:32:44Z</time>
      </trkpt>
      <trkpt lat="41.2597560" lon="-8.7239630">
        <ele>6.3</ele>
        <time>2021-05-16T08:32:45Z</time>
      </trkpt>
      <trkpt lat="41.2597710" lon="-8.7239670">
        <ele>6.3</ele>
        <time>2021-05-16T08:32:46Z</time>
      </trkpt>
      <trkpt lat="41.2597830" lon="-8.7239730">
        <ele>6.3</ele>
        <time>2021-05-16T08:32:47Z</time>
      </trkpt>
      <trkpt lat="41.2597990" lon="-8.7239780">
        <ele>6.3</ele>
        <time>2021-05-16T08:32:48Z</time>
      </trkpt>
      <trkpt lat="41.2598110" lon="-8.7239820">
        <ele>6.3</ele>
        <time>2021-05-16T08:32:49Z</time>
      </trkpt>
      <trkpt lat="41.2598250" lon="-8.7239860">
        <ele>6.3</ele>
        <time>2021-05-16T08:32:50Z</time>
      </trkpt>
      <trkpt lat="41.2598390" lon="-8.7239910">
        <ele>6.3</ele>
        <time>2021-05-16T08:32:51Z</time>
      </trkpt>
      <trkpt lat="41.2598510" lon="-8.7239940">
        <ele>6.3</ele>
        <time>2021-05-16T08:32:52Z</time>
      </trkpt>
      <trkpt lat="41.2598650" lon="-8.7240030">
        <ele>6.3</ele>
        <time>2021-05-16T08:32:53Z</time>
      </trkpt>
      <trkpt lat="41.2598780" lon="-8.7240030">
        <ele>6.3</ele>
        <time>2021-05-16T08:32:54Z</time>
      </trkpt>
      <trkpt lat="41.2598930" lon="-8.7240090">
        <ele>6.3</ele>
        <time>2021-05-16T08:32:55Z</time>
      </trkpt>
      <trkpt lat="41.2599150" lon="-8.7240160">
        <ele>6.3</ele>
        <time>2021-05-16T08:32:56Z</time>
      </trkpt>
      <trkpt lat="41.2599250" lon="-8.7240190">
        <ele>6.3</ele>
        <time>2021-05-16T08:32:57Z</time>
      </trkpt>
      <trkpt lat="41.2599350" lon="-8.7240220">
        <ele>6.3</ele>
        <time>2021-05-16T08:32:58Z</time>
      </trkpt>
      <trkpt lat="41.2599490" lon="-8.7240330">
        <ele>6.3</ele>
        <time>2021-05-16T08:32:59Z</time>
      </trkpt>
      <trkpt lat="41.2599610" lon="-8.7240380">
        <ele>6.3</ele>
        <time>2021-05-16T08:33:00Z</time>
      </trkpt>
      <trkpt lat="41.2599750" lon="-8.7240470">
        <ele>6.3</ele>
        <time>2021-05-16T08:33:01Z</time>
      </trkpt>
      <trkpt lat="41.2599880" lon="-8.7240530">
        <ele>6.3</ele>
        <time>2021-05-16T08:33:02Z</time>
      </trkpt>
      <trkpt lat="41.2600090" lon="-8.7240660">
        <ele>6.3</ele>
        <time>2021-05-16T08:33:03Z</time>
      </trkpt>
      <trkpt lat="41.2600160" lon="-8.7240700">
        <ele>6.3</ele>
        <time>2021-05-16T08:33:04Z</time>
      </trkpt>
      <trkpt lat="41.2600240" lon="-8.7240740">
        <ele>6.3</ele>
        <time>2021-05-16T08:33:05Z</time>
      </trkpt>
      <trkpt lat="41.2600380" lon="-8.7240860">
        <ele>6.3</ele>
        <time>2021-05-16T08:33:06Z</time>
      </trkpt>
      <trkpt lat="41.2600480" lon="-8.7240930">
        <ele>6.3</ele>
        <time>2021-05-16T08:33:07Z</time>
      </trkpt>
      <trkpt lat="41.2600720" lon="-8.7240980">
        <ele>6.3</ele>
        <time>2021-05-16T08:33:08Z</time>
      </trkpt>
      <trkpt lat="41.2600800" lon="-8.7241030">
        <ele>6.4</ele>
        <time>2021-05-16T08:33:09Z</time>
      </trkpt>
      <trkpt lat="41.2600880" lon="-8.7241080">
        <ele>6.4</ele>
        <time>2021-05-16T08:33:10Z</time>
      </trkpt>
      <trkpt lat="41.2601010" lon="-8.7241160">
        <ele>6.4</ele>
        <time>2021-05-16T08:33:11Z</time>
      </trkpt>
      <trkpt lat="41.2601160" lon="-8.7241180">
        <ele>6.4</ele>
        <time>2021-05-16T08:33:12Z</time>
      </trkpt>
      <trkpt lat="41.2601330" lon="-8.7241160">
        <ele>6.4</ele>
        <time>2021-05-16T08:33:13Z</time>
      </trkpt>
      <trkpt lat="41.2601450" lon="-8.7241200">
        <ele>6.4</ele>
        <time>2021-05-16T08:33:14Z</time>
      </trkpt>
      <trkpt lat="41.2601600" lon="-8.7241280">
        <ele>6.4</ele>
        <time>2021-05-16T08:33:15Z</time>
      </trkpt>
      <trkpt lat="41.2601750" lon="-8.7241320">
        <ele>6.4</ele>
        <time>2021-05-16T08:33:16Z</time>
      </trkpt>
      <trkpt lat="41.2601870" lon="-8.7241330">
        <ele>6.4</ele>
        <time>2021-05-16T08:33:17Z</time>
      </trkpt>
      <trkpt lat="41.2602030" lon="-8.7241330">
        <ele>6.4</ele>
        <time>2021-05-16T08:33:18Z</time>
      </trkpt>
      <trkpt lat="41.2602180" lon="-8.7241400">
        <ele>6.4</ele>
        <time>2021-05-16T08:33:19Z</time>
      </trkpt>
      <trkpt lat="41.2602300" lon="-8.7241490">
        <ele>6.4</ele>
        <time>2021-05-16T08:33:20Z</time>
      </trkpt>
      <trkpt lat="41.2602440" lon="-8.7241520">
        <ele>6.4</ele>
        <time>2021-05-16T08:33:21Z</time>
      </trkpt>
      <trkpt lat="41.2602560" lon="-8.7241640">
        <ele>6.4</ele>
        <time>2021-05-16T08:33:22Z</time>
      </trkpt>
      <trkpt lat="41.2602720" lon="-8.7241670">
        <ele>6.4</ele>
        <time>2021-05-16T08:33:23Z</time>
      </trkpt>
      <trkpt lat="41.2602880" lon="-8.7241680">
        <ele>6.4</ele>
        <time>2021-05-16T08:33:24Z</time>
      </trkpt>
      <trkpt lat="41.2603000" lon="-8.7241720">
        <ele>6.4</ele>
        <time>2021-05-16T08:33:25Z</time>
      </trkpt>
      <trkpt lat="41.2603140" lon="-8.7241780">
        <ele>6.4</ele>
        <time>2021-05-16T08:33:26Z</time>
      </trkpt>
      <trkpt lat="41.2603270" lon="-8.7241820">
        <ele>6.4</ele>
        <time>2021-05-16T08:33:27Z</time>
      </trkpt>
      <trkpt lat="41.2603410" lon="-8.7241880">
        <ele>6.4</ele>
        <time>2021-05-16T08:33:28Z</time>
      </trkpt>
      <trkpt lat="41.2603530" lon="-8.7241960">
        <ele>6.4</ele>
        <time>2021-05-16T08:33:29Z</time>
      </trkpt>
      <trkpt lat="41.2603670" lon="-8.7242020">
        <ele>6.4</ele>
        <time>2021-05-16T08:33:30Z</time>
      </trkpt>
      <trkpt lat="41.2603820" lon="-8.7242080">
        <ele>6.4</ele>
        <time>2021-05-16T08:33:31Z</time>
      </trkpt>
      <trkpt lat="41.2603970" lon="-8.7242120">
        <ele>6.4</ele>
        <time>2021-05-16T08:33:32Z</time>
      </trkpt>
      <trkpt lat="41.2604110" lon="-8.7242160">
        <ele>6.4</ele>
        <time>2021-05-16T08:33:33Z</time>
      </trkpt>
      <trkpt lat="41.2604260" lon="-8.7242180">
        <ele>6.4</ele>
        <time>2021-05-16T08:33:34Z</time>
      </trkpt>
      <trkpt lat="41.2604400" lon="-8.7242210">
        <ele>6.5</ele>
        <time>2021-05-16T08:33:35Z</time>
      </trkpt>
      <trkpt lat="41.2604540" lon="-8.7242180">
        <ele>6.4</ele>
        <time>2021-05-16T08:33:36Z</time>
      </trkpt>
      <trkpt lat="41.2604660" lon="-8.7242220">
        <ele>6.3</ele>
        <time>2021-05-16T08:33:37Z</time>
      </trkpt>
      <trkpt lat="41.2604800" lon="-8.7242300">
        <ele>6.3</ele>
        <time>2021-05-16T08:33:38Z</time>
      </trkpt>
      <trkpt lat="41.2604900" lon="-8.7242440">
        <ele>6.2</ele>
        <time>2021-05-16T08:33:39Z</time>
      </trkpt>
      <trkpt lat="41.2604980" lon="-8.7242580">
        <ele>6.2</ele>
        <time>2021-05-16T08:33:40Z</time>
      </trkpt>
      <trkpt lat="41.2604970" lon="-8.7242770">
        <ele>6.1</ele>
        <time>2021-05-16T08:33:41Z</time>
      </trkpt>
      <trkpt lat="41.2604930" lon="-8.7242990">
        <ele>6.0</ele>
        <time>2021-05-16T08:33:42Z</time>
      </trkpt>
      <trkpt lat="41.2604810" lon="-8.7243190">
        <ele>6.0</ele>
        <time>2021-05-16T08:33:43Z</time>
      </trkpt>
      <trkpt lat="41.2604700" lon="-8.7243340">
        <ele>5.9</ele>
        <time>2021-05-16T08:33:44Z</time>
      </trkpt>
      <trkpt lat="41.2604620" lon="-8.7243480">
        <ele>5.8</ele>
        <time>2021-05-16T08:33:45Z</time>
      </trkpt>
      <trkpt lat="41.2604530" lon="-8.7243650">
        <ele>5.8</ele>
        <time>2021-05-16T08:33:46Z</time>
      </trkpt>
      <trkpt lat="41.2604450" lon="-8.7243810">
        <ele>5.7</ele>
        <time>2021-05-16T08:33:47Z</time>
      </trkpt>
      <trkpt lat="41.2604440" lon="-8.7243900">
        <ele>5.7</ele>
        <time>2021-05-16T08:33:48Z</time>
      </trkpt>
      <trkpt lat="41.2604500" lon="-8.7243910">
        <ele>5.7</ele>
        <time>2021-05-16T08:33:49Z</time>
      </trkpt>
      <trkpt lat="41.2604510" lon="-8.7243900">
        <ele>5.6</ele>
        <time>2021-05-16T08:33:50Z</time>
      </trkpt>
      <trkpt lat="41.2604480" lon="-8.7243840">
        <ele>5.6</ele>
        <time>2021-05-16T08:33:51Z</time>
      </trkpt>
      <trkpt lat="41.2604470" lon="-8.7243810">
        <ele>5.6</ele>
        <time>2021-05-16T08:33:52Z</time>
      </trkpt>
      <trkpt lat="41.2604450" lon="-8.7243810">
        <ele>5.6</ele>
        <time>2021-05-16T08:33:53Z</time>
      </trkpt>
      <trkpt lat="41.2604420" lon="-8.7243830">
        <ele>5.6</ele>
        <time>2021-05-16T08:33:54Z</time>
      </trkpt>
      <trkpt lat="41.2604390" lon="-8.7243820">
        <ele>5.6</ele>
        <time>2021-05-16T08:33:55Z</time>
      </trkpt>
      <trkpt lat="41.2604310" lon="-8.7243840">
        <ele>5.5</ele>
        <time>2021-05-16T08:33:56Z</time>
      </trkpt>
      <trkpt lat="41.2604290" lon="-8.7243810">
        <ele>5.5</ele>
        <time>2021-05-16T08:33:57Z</time>
      </trkpt>
      <trkpt lat="41.2604270" lon="-8.7243840">
        <ele>5.5</ele>
        <time>2021-05-16T08:33:58Z</time>
      </trkpt>
      <trkpt lat="41.2604260" lon="-8.7243840">
        <ele>5.5</ele>
        <time>2021-05-16T08:33:59Z</time>
      </trkpt>
      <trkpt lat="41.2604260" lon="-8.7243820">
        <ele>5.5</ele>
        <time>2021-05-16T08:34:00Z</time>
      </trkpt>
      <trkpt lat="41.2604260" lon="-8.7243840">
        <ele>5.5</ele>
        <time>2021-05-16T08:34:01Z</time>
      </trkpt>
      <trkpt lat="41.2604260" lon="-8.7243830">
        <ele>5.5</ele>
        <time>2021-05-16T08:34:02Z</time>
      </trkpt>
      <trkpt lat="41.2604260" lon="-8.7243820">
        <ele>5.5</ele>
        <time>2021-05-16T08:34:03Z</time>
      </trkpt>
      <trkpt lat="41.2604250" lon="-8.7243820">
        <ele>5.5</ele>
        <time>2021-05-16T08:34:04Z</time>
      </trkpt>
      <trkpt lat="41.2604260" lon="-8.7243830">
        <ele>5.5</ele>
        <time>2021-05-16T08:34:05Z</time>
      </trkpt>
      <trkpt lat="41.2604260" lon="-8.7243830">
        <ele>5.5</ele>
        <time>2021-05-16T08:34:06Z</time>
      </trkpt>
      <trkpt lat="41.2604250" lon="-8.7243830">
        <ele>5.5</ele>
        <time>2021-05-16T08:34:07Z</time>
      </trkpt>
      <trkpt lat="41.2604240" lon="-8.7243830">
        <ele>5.5</ele>
        <time>2021-05-16T08:34:08Z</time>
      </trkpt>
      <trkpt lat="41.2604240" lon="-8.7243830">
        <ele>5.5</ele>
        <time>2021-05-16T08:34:09Z</time>
      </trkpt>
      <trkpt lat="41.2604220" lon="-8.7243870">
        <ele>5.5</ele>
        <time>2021-05-16T08:34:10Z</time>
      </trkpt>
      <trkpt lat="41.2604150" lon="-8.7243870">
        <ele>5.4</ele>
        <time>2021-05-16T08:34:11Z</time>
      </trkpt>
      <trkpt lat="41.2604130" lon="-8.7243860">
        <ele>5.4</ele>
        <time>2021-05-16T08:34:12Z</time>
      </trkpt>
      <trkpt lat="41.2604120" lon="-8.7243860">
        <ele>5.4</ele>
        <time>2021-05-16T08:34:13Z</time>
      </trkpt>
      <trkpt lat="41.2604110" lon="-8.7243870">
        <ele>5.4</ele>
        <time>2021-05-16T08:34:14Z</time>
      </trkpt>
      <trkpt lat="41.2604120" lon="-8.7243840">
        <ele>5.4</ele>
        <time>2021-05-16T08:34:15Z</time>
      </trkpt>
      <trkpt lat="41.2604100" lon="-8.7243850">
        <ele>5.4</ele>
        <time>2021-05-16T08:34:16Z</time>
      </trkpt>
      <trkpt lat="41.2604080" lon="-8.7243850">
        <ele>5.4</ele>
        <time>2021-05-16T08:34:17Z</time>
      </trkpt>
      <trkpt lat="41.2604080" lon="-8.7243850">
        <ele>5.4</ele>
        <time>2021-05-16T08:34:18Z</time>
      </trkpt>
      <trkpt lat="41.2604100" lon="-8.7243850">
        <ele>5.4</ele>
        <time>2021-05-16T08:34:19Z</time>
      </trkpt>
      <trkpt lat="41.2604120" lon="-8.7243850">
        <ele>5.4</ele>
        <time>2021-05-16T08:34:20Z</time>
      </trkpt>
      <trkpt lat="41.2604120" lon="-8.7243820">
        <ele>5.4</ele>
        <time>2021-05-16T08:34:21Z</time>
      </trkpt>
      <trkpt lat="41.2604140" lon="-8.7243830">
        <ele>5.4</ele>
        <time>2021-05-16T08:34:22Z</time>
      </trkpt>
      <trkpt lat="41.2604170" lon="-8.7243810">
        <ele>5.3</ele>
        <time>2021-05-16T08:34:23Z</time>
      </trkpt>
      <trkpt lat="41.2604180" lon="-8.7243810">
        <ele>5.3</ele>
        <time>2021-05-16T08:34:24Z</time>
      </trkpt>
      <trkpt lat="41.2604190" lon="-8.7243820">
        <ele>5.3</ele>
        <time>2021-05-16T08:34:25Z</time>
      </trkpt>
      <trkpt lat="41.2604190" lon="-8.7243830">
        <ele>5.3</ele>
        <time>2021-05-16T08:34:26Z</time>
      </trkpt>
      <trkpt lat="41.2604200" lon="-8.7243820">
        <ele>5.3</ele>
        <time>2021-05-16T08:34:27Z</time>
      </trkpt>
      <trkpt lat="41.2604210" lon="-8.7243820">
        <ele>5.3</ele>
        <time>2021-05-16T08:34:28Z</time>
      </trkpt>
      <trkpt lat="41.2604220" lon="-8.7243820">
        <ele>5.3</ele>
        <time>2021-05-16T08:34:29Z</time>
      </trkpt>
      <trkpt lat="41.2604220" lon="-8.7243830">
        <ele>5.3</ele>
        <time>2021-05-16T08:34:30Z</time>
      </trkpt>
      <trkpt lat="41.2604210" lon="-8.7243820">
        <ele>5.3</ele>
        <time>2021-05-16T08:34:31Z</time>
      </trkpt>
      <trkpt lat="41.2604230" lon="-8.7243820">
        <ele>5.3</ele>
        <time>2021-05-16T08:34:32Z</time>
      </trkpt>
      <trkpt lat="41.2604220" lon="-8.7243800">
        <ele>5.3</ele>
        <time>2021-05-16T08:34:33Z</time>
      </trkpt>
      <trkpt lat="41.2604220" lon="-8.7243810">
        <ele>5.3</ele>
        <time>2021-05-16T08:34:34Z</time>
      </trkpt>
      <trkpt lat="41.2604220" lon="-8.7243860">
        <ele>5.3</ele>
        <time>2021-05-16T08:34:35Z</time>
      </trkpt>
      <trkpt lat="41.2604210" lon="-8.7243880">
        <ele>5.3</ele>
        <time>2021-05-16T08:34:36Z</time>
      </trkpt>
      <trkpt lat="41.2604210" lon="-8.7243890">
        <ele>5.3</ele>
        <time>2021-05-16T08:34:37Z</time>
      </trkpt>
      <trkpt lat="41.2604210" lon="-8.7243910">
        <ele>5.3</ele>
        <time>2021-05-16T08:34:38Z</time>
      </trkpt>
      <trkpt lat="41.2604210" lon="-8.7243920">
        <ele>5.3</ele>
        <time>2021-05-16T08:34:39Z</time>
      </trkpt>
      <trkpt lat="41.2604210" lon="-8.7243910">
        <ele>5.2</ele>
        <time>2021-05-16T08:34:40Z</time>
      </trkpt>
      <trkpt lat="41.2604210" lon="-8.7243910">
        <ele>5.2</ele>
        <time>2021-05-16T08:34:41Z</time>
      </trkpt>
      <trkpt lat="41.2604210" lon="-8.7243900">
        <ele>5.2</ele>
        <time>2021-05-16T08:34:42Z</time>
      </trkpt>
      <trkpt lat="41.2604210" lon="-8.7243900">
        <ele>5.2</ele>
        <time>2021-05-16T08:34:43Z</time>
      </trkpt>
      <trkpt lat="41.2604200" lon="-8.7243900">
        <ele>5.2</ele>
        <time>2021-05-16T08:34:44Z</time>
      </trkpt>
      <trkpt lat="41.2604180" lon="-8.7243900">
        <ele>5.2</ele>
        <time>2021-05-16T08:34:45Z</time>
      </trkpt>
      <trkpt lat="41.2604190" lon="-8.7243910">
        <ele>5.2</ele>
        <time>2021-05-16T08:34:46Z</time>
      </trkpt>
      <trkpt lat="41.2604180" lon="-8.7243890">
        <ele>5.2</ele>
        <time>2021-05-16T08:34:47Z</time>
      </trkpt>
      <trkpt lat="41.2604180" lon="-8.7243900">
        <ele>5.2</ele>
        <time>2021-05-16T08:34:48Z</time>
      </trkpt>
      <trkpt lat="41.2604190" lon="-8.7243890">
        <ele>5.2</ele>
        <time>2021-05-16T08:34:49Z</time>
      </trkpt>
      <trkpt lat="41.2604180" lon="-8.7243860">
        <ele>5.2</ele>
        <time>2021-05-16T08:34:50Z</time>
      </trkpt>
      <trkpt lat="41.2604180" lon="-8.7243870">
        <ele>5.2</ele>
        <time>2021-05-16T08:34:51Z</time>
      </trkpt>
      <trkpt lat="41.2604200" lon="-8.7243870">
        <ele>5.2</ele>
        <time>2021-05-16T08:34:52Z</time>
      </trkpt>
      <trkpt lat="41.2604200" lon="-8.7243860">
        <ele>5.2</ele>
        <time>2021-05-16T08:34:53Z</time>
      </trkpt>
      <trkpt lat="41.2604190" lon="-8.7243870">
        <ele>5.2</ele>
        <time>2021-05-16T08:34:54Z</time>
      </trkpt>
      <trkpt lat="41.2604200" lon="-8.7243870">
        <ele>5.2</ele>
        <time>2021-05-16T08:34:55Z</time>
      </trkpt>
      <trkpt lat="41.2604200" lon="-8.7243900">
        <ele>5.2</ele>
        <time>2021-05-16T08:34:56Z</time>
      </trkpt>
      <trkpt lat="41.2604210" lon="-8.7243890">
        <ele>5.2</ele>
        <time>2021-05-16T08:34:57Z</time>
      </trkpt>
      <trkpt lat="41.2604210" lon="-8.7243890">
        <ele>5.2</ele>
        <time>2021-05-16T08:34:58Z</time>
      </trkpt>
      <trkpt lat="41.2604210" lon="-8.7243900">
        <ele>5.2</ele>
        <time>2021-05-16T08:34:59Z</time>
      </trkpt>
      <trkpt lat="41.2604230" lon="-8.7243910">
        <ele>5.2</ele>
        <time>2021-05-16T08:35:00Z</time>
      </trkpt>
      <trkpt lat="41.2604250" lon="-8.7243920">
        <ele>5.1</ele>
        <time>2021-05-16T08:35:01Z</time>
      </trkpt>
      <trkpt lat="41.2604270" lon="-8.7243920">
        <ele>5.1</ele>
        <time>2021-05-16T08:35:02Z</time>
      </trkpt>
      <trkpt lat="41.2604260" lon="-8.7243890">
        <ele>5.1</ele>
        <time>2021-05-16T08:35:03Z</time>
      </trkpt>
      <trkpt lat="41.2604270" lon="-8.7243870">
        <ele>5.1</ele>
        <time>2021-05-16T08:35:04Z</time>
      </trkpt>
      <trkpt lat="41.2604270" lon="-8.7243840">
        <ele>5.1</ele>
        <time>2021-05-16T08:35:05Z</time>
      </trkpt>
      <trkpt lat="41.2604270" lon="-8.7243840">
        <ele>5.1</ele>
        <time>2021-05-16T08:35:06Z</time>
      </trkpt>
      <trkpt lat="41.2604270" lon="-8.7243850">
        <ele>5.1</ele>
        <time>2021-05-16T08:35:07Z</time>
      </trkpt>
      <trkpt lat="41.2604290" lon="-8.7243860">
        <ele>5.1</ele>
        <time>2021-05-16T08:35:08Z</time>
      </trkpt>
      <trkpt lat="41.2604300" lon="-8.7243880">
        <ele>5.1</ele>
        <time>2021-05-16T08:35:09Z</time>
      </trkpt>
      <trkpt lat="41.2604290" lon="-8.7243880">
        <ele>5.1</ele>
        <time>2021-05-16T08:35:10Z</time>
      </trkpt>
      <trkpt lat="41.2604310" lon="-8.7243900">
        <ele>5.1</ele>
        <time>2021-05-16T08:35:11Z</time>
      </trkpt>
      <trkpt lat="41.2604300" lon="-8.7243900">
        <ele>5.1</ele>
        <time>2021-05-16T08:35:12Z</time>
      </trkpt>
      <trkpt lat="41.2604290" lon="-8.7243910">
        <ele>5.1</ele>
        <time>2021-05-16T08:35:13Z</time>
      </trkpt>
      <trkpt lat="41.2604270" lon="-8.7243910">
        <ele>5.1</ele>
        <time>2021-05-16T08:35:14Z</time>
      </trkpt>
      <trkpt lat="41.2604260" lon="-8.7243910">
        <ele>5.1</ele>
        <time>2021-05-16T08:35:15Z</time>
      </trkpt>
      <trkpt lat="41.2604270" lon="-8.7243900">
        <ele>5.0</ele>
        <time>2021-05-16T08:35:16Z</time>
      </trkpt>
      <trkpt lat="41.2604270" lon="-8.7243900">
        <ele>5.0</ele>
        <time>2021-05-16T08:35:17Z</time>
      </trkpt>
      <trkpt lat="41.2604300" lon="-8.7243890">
        <ele>5.0</ele>
        <time>2021-05-16T08:35:18Z</time>
      </trkpt>
      <trkpt lat="41.2604290" lon="-8.7243900">
        <ele>5.0</ele>
        <time>2021-05-16T08:35:19Z</time>
      </trkpt>
      <trkpt lat="41.2604290" lon="-8.7243900">
        <ele>5.0</ele>
        <time>2021-05-16T08:35:20Z</time>
      </trkpt>
      <trkpt lat="41.2604250" lon="-8.7243930">
        <ele>5.0</ele>
        <time>2021-05-16T08:35:21Z</time>
      </trkpt>
      <trkpt lat="41.2604210" lon="-8.7243940">
        <ele>5.0</ele>
        <time>2021-05-16T08:35:22Z</time>
      </trkpt>
      <trkpt lat="41.2604190" lon="-8.7243910">
        <ele>5.0</ele>
        <time>2021-05-16T08:35:23Z</time>
      </trkpt>
      <trkpt lat="41.2604220" lon="-8.7243880">
        <ele>5.0</ele>
        <time>2021-05-16T08:35:24Z</time>
      </trkpt>
      <trkpt lat="41.2604230" lon="-8.7243860">
        <ele>5.0</ele>
        <time>2021-05-16T08:35:25Z</time>
      </trkpt>
      <trkpt lat="41.2604230" lon="-8.7243840">
        <ele>5.0</ele>
        <time>2021-05-16T08:35:26Z</time>
      </trkpt>
      <trkpt lat="41.2604230" lon="-8.7243840">
        <ele>5.0</ele>
        <time>2021-05-16T08:35:27Z</time>
      </trkpt>
      <trkpt lat="41.2604220" lon="-8.7243790">
        <ele>4.9</ele>
        <time>2021-05-16T08:35:28Z</time>
      </trkpt>
      <trkpt lat="41.2604240" lon="-8.7243730">
        <ele>4.9</ele>
        <time>2021-05-16T08:35:29Z</time>
      </trkpt>
      <trkpt lat="41.2604240" lon="-8.7243770">
        <ele>4.9</ele>
        <time>2021-05-16T08:35:30Z</time>
      </trkpt>
      <trkpt lat="41.2604250" lon="-8.7243830">
        <ele>4.9</ele>
        <time>2021-05-16T08:35:31Z</time>
      </trkpt>
      <trkpt lat="41.2604250" lon="-8.7243840">
        <ele>4.9</ele>
        <time>2021-05-16T08:35:32Z</time>
      </trkpt>
      <trkpt lat="41.2604250" lon="-8.7243840">
        <ele>4.9</ele>
        <time>2021-05-16T08:35:33Z</time>
      </trkpt>
      <trkpt lat="41.2604250" lon="-8.7243850">
        <ele>4.9</ele>
        <time>2021-05-16T08:35:34Z</time>
      </trkpt>
      <trkpt lat="41.2604260" lon="-8.7243870">
        <ele>4.9</ele>
        <time>2021-05-16T08:35:35Z</time>
      </trkpt>
      <trkpt lat="41.2604260" lon="-8.7243870">
        <ele>4.9</ele>
        <time>2021-05-16T08:35:36Z</time>
      </trkpt>
      <trkpt lat="41.2604260" lon="-8.7243880">
        <ele>4.9</ele>
        <time>2021-05-16T08:35:37Z</time>
      </trkpt>
      <trkpt lat="41.2604260" lon="-8.7243870">
        <ele>4.9</ele>
        <time>2021-05-16T08:35:38Z</time>
      </trkpt>
      <trkpt lat="41.2604260" lon="-8.7243870">
        <ele>4.9</ele>
        <time>2021-05-16T08:35:39Z</time>
      </trkpt>
      <trkpt lat="41.2604270" lon="-8.7243870">
        <ele>4.9</ele>
        <time>2021-05-16T08:35:40Z</time>
      </trkpt>
      <trkpt lat="41.2604270" lon="-8.7243870">
        <ele>4.9</ele>
        <time>2021-05-16T08:35:41Z</time>
      </trkpt>
      <trkpt lat="41.2604280" lon="-8.7243880">
        <ele>4.9</ele>
        <time>2021-05-16T08:35:42Z</time>
      </trkpt>
      <trkpt lat="41.2604260" lon="-8.7243870">
        <ele>4.8</ele>
        <time>2021-05-16T08:35:43Z</time>
      </trkpt>
      <trkpt lat="41.2604260" lon="-8.7243870">
        <ele>4.8</ele>
        <time>2021-05-16T08:35:44Z</time>
      </trkpt>
      <trkpt lat="41.2604230" lon="-8.7243870">
        <ele>4.8</ele>
        <time>2021-05-16T08:35:45Z</time>
      </trkpt>
      <trkpt lat="41.2604220" lon="-8.7243870">
        <ele>4.8</ele>
        <time>2021-05-16T08:35:46Z</time>
      </trkpt>
      <trkpt lat="41.2604210" lon="-8.7243880">
        <ele>4.8</ele>
        <time>2021-05-16T08:35:47Z</time>
      </trkpt>
      <trkpt lat="41.2604200" lon="-8.7243880">
        <ele>4.8</ele>
        <time>2021-05-16T08:35:48Z</time>
      </trkpt>
      <trkpt lat="41.2604200" lon="-8.7243870">
        <ele>4.8</ele>
        <time>2021-05-16T08:35:49Z</time>
      </trkpt>
      <trkpt lat="41.2604200" lon="-8.7243870">
        <ele>4.8</ele>
        <time>2021-05-16T08:35:50Z</time>
      </trkpt>
      <trkpt lat="41.2604200" lon="-8.7243870">
        <ele>4.8</ele>
        <time>2021-05-16T08:35:51Z</time>
      </trkpt>
      <trkpt lat="41.2604200" lon="-8.7243870">
        <ele>4.8</ele>
        <time>2021-05-16T08:35:52Z</time>
      </trkpt>
      <trkpt lat="41.2604090" lon="-8.7243880">
        <ele>4.8</ele>
        <time>2021-05-16T08:35:53Z</time>
      </trkpt>
      <trkpt lat="41.2604090" lon="-8.7243880">
        <ele>4.8</ele>
        <time>2021-05-16T08:35:54Z</time>
      </trkpt>
      <trkpt lat="41.2604090" lon="-8.7243880">
        <ele>4.8</ele>
        <time>2021-05-16T08:35:55Z</time>
      </trkpt>
      <trkpt lat="41.2604100" lon="-8.7243930">
        <ele>4.8</ele>
        <time>2021-05-16T08:35:56Z</time>
      </trkpt>
      <trkpt lat="41.2604100" lon="-8.7243920">
        <ele>4.8</ele>
        <time>2021-05-16T08:35:57Z</time>
      </trkpt>
      <trkpt lat="41.2604100" lon="-8.7243930">
        <ele>4.7</ele>
        <time>2021-05-16T08:35:58Z</time>
      </trkpt>
      <trkpt lat="41.2604100" lon="-8.7243910">
        <ele>4.7</ele>
        <time>2021-05-16T08:35:59Z</time>
      </trkpt>
      <trkpt lat="41.2604100" lon="-8.7243890">
        <ele>4.7</ele>
        <time>2021-05-16T08:36:00Z</time>
      </trkpt>
      <trkpt lat="41.2604110" lon="-8.7243890">
        <ele>4.7</ele>
        <time>2021-05-16T08:36:01Z</time>
      </trkpt>
      <trkpt lat="41.2604120" lon="-8.7243890">
        <ele>4.7</ele>
        <time>2021-05-16T08:36:02Z</time>
      </trkpt>
      <trkpt lat="41.2604110" lon="-8.7243890">
        <ele>4.7</ele>
        <time>2021-05-16T08:36:03Z</time>
      </trkpt>
      <trkpt lat="41.2604120" lon="-8.7243900">
        <ele>4.7</ele>
        <time>2021-05-16T08:36:04Z</time>
      </trkpt>
      <trkpt lat="41.2604100" lon="-8.7243940">
        <ele>4.7</ele>
        <time>2021-05-16T08:36:05Z</time>
      </trkpt>
      <trkpt lat="41.2604060" lon="-8.7243940">
        <ele>4.7</ele>
        <time>2021-05-16T08:36:06Z</time>
      </trkpt>
      <trkpt lat="41.2604030" lon="-8.7243980">
        <ele>4.7</ele>
        <time>2021-05-16T08:36:07Z</time>
      </trkpt>
      <trkpt lat="41.2604000" lon="-8.7244020">
        <ele>4.7</ele>
        <time>2021-05-16T08:36:08Z</time>
      </trkpt>
      <trkpt lat="41.2603970" lon="-8.7244050">
        <ele>4.7</ele>
        <time>2021-05-16T08:36:09Z</time>
      </trkpt>
      <trkpt lat="41.2603970" lon="-8.7244070">
        <ele>4.7</ele>
        <time>2021-05-16T08:36:10Z</time>
      </trkpt>
      <trkpt lat="41.2603970" lon="-8.7244030">
        <ele>4.7</ele>
        <time>2021-05-16T08:36:11Z</time>
      </trkpt>
      <trkpt lat="41.2603980" lon="-8.7244030">
        <ele>4.7</ele>
        <time>2021-05-16T08:36:12Z</time>
      </trkpt>
      <trkpt lat="41.2603990" lon="-8.7244030">
        <ele>4.7</ele>
        <time>2021-05-16T08:36:13Z</time>
      </trkpt>
      <trkpt lat="41.2603990" lon="-8.7244000">
        <ele>4.7</ele>
        <time>2021-05-16T08:36:14Z</time>
      </trkpt>
      <trkpt lat="41.2604000" lon="-8.7243990">
        <ele>4.7</ele>
        <time>2021-05-16T08:36:15Z</time>
      </trkpt>
      <trkpt lat="41.2604000" lon="-8.7243990">
        <ele>4.7</ele>
        <time>2021-05-16T08:36:16Z</time>
      </trkpt>
      <trkpt lat="41.2604000" lon="-8.7243990">
        <ele>4.7</ele>
        <time>2021-05-16T08:36:17Z</time>
      </trkpt>
      <trkpt lat="41.2604010" lon="-8.7243990">
        <ele>4.7</ele>
        <time>2021-05-16T08:36:18Z</time>
      </trkpt>
      <trkpt lat="41.2604010" lon="-8.7244010">
        <ele>4.7</ele>
        <time>2021-05-16T08:36:19Z</time>
      </trkpt>
      <trkpt lat="41.2604020" lon="-8.7244010">
        <ele>4.7</ele>
        <time>2021-05-16T08:36:20Z</time>
      </trkpt>
      <trkpt lat="41.2604000" lon="-8.7244040">
        <ele>4.7</ele>
        <time>2021-05-16T08:36:21Z</time>
      </trkpt>
      <trkpt lat="41.2603890" lon="-8.7244090">
        <ele>4.7</ele>
        <time>2021-05-16T08:36:22Z</time>
      </trkpt>
      <trkpt lat="41.2603960" lon="-8.7244010">
        <ele>4.7</ele>
        <time>2021-05-16T08:36:23Z</time>
      </trkpt>
      <trkpt lat="41.2603970" lon="-8.7244010">
        <ele>4.7</ele>
        <time>2021-05-16T08:36:24Z</time>
      </trkpt>
      <trkpt lat="41.2603970" lon="-8.7244000">
        <ele>4.7</ele>
        <time>2021-05-16T08:36:25Z</time>
      </trkpt>
      <trkpt lat="41.2603950" lon="-8.7243990">
        <ele>4.7</ele>
        <time>2021-05-16T08:36:26Z</time>
      </trkpt>
      <trkpt lat="41.2603930" lon="-8.7244000">
        <ele>4.8</ele>
        <time>2021-05-16T08:36:27Z</time>
      </trkpt>
      <trkpt lat="41.2603900" lon="-8.7243930">
        <ele>4.8</ele>
        <time>2021-05-16T08:36:28Z</time>
      </trkpt>
      <trkpt lat="41.2603880" lon="-8.7243900">
        <ele>4.8</ele>
        <time>2021-05-16T08:36:29Z</time>
      </trkpt>
      <trkpt lat="41.2603850" lon="-8.7243880">
        <ele>4.8</ele>
        <time>2021-05-16T08:36:30Z</time>
      </trkpt>
      <trkpt lat="41.2603780" lon="-8.7243860">
        <ele>4.8</ele>
        <time>2021-05-16T08:36:31Z</time>
      </trkpt>
      <trkpt lat="41.2603670" lon="-8.7243830">
        <ele>4.8</ele>
        <time>2021-05-16T08:36:32Z</time>
      </trkpt>
      <trkpt lat="41.2603570" lon="-8.7243880">
        <ele>4.8</ele>
        <time>2021-05-16T08:36:33Z</time>
      </trkpt>
      <trkpt lat="41.2603660" lon="-8.7243880">
        <ele>4.9</ele>
        <time>2021-05-16T08:36:34Z</time>
      </trkpt>
      <trkpt lat="41.2603670" lon="-8.7243890">
        <ele>4.9</ele>
        <time>2021-05-16T08:36:35Z</time>
      </trkpt>
      <trkpt lat="41.2603690" lon="-8.7243870">
        <ele>4.9</ele>
        <time>2021-05-16T08:36:36Z</time>
      </trkpt>
      <trkpt lat="41.2603670" lon="-8.7243850">
        <ele>4.9</ele>
        <time>2021-05-16T08:36:37Z</time>
      </trkpt>
      <trkpt lat="41.2603670" lon="-8.7243830">
        <ele>4.9</ele>
        <time>2021-05-16T08:36:38Z</time>
      </trkpt>
      <trkpt lat="41.2603650" lon="-8.7243830">
        <ele>4.9</ele>
        <time>2021-05-16T08:36:39Z</time>
      </trkpt>
      <trkpt lat="41.2603630" lon="-8.7243830">
        <ele>4.9</ele>
        <time>2021-05-16T08:36:40Z</time>
      </trkpt>
      <trkpt lat="41.2603750" lon="-8.7243970">
        <ele>4.9</ele>
        <time>2021-05-16T08:36:41Z</time>
      </trkpt>
      <trkpt lat="41.2603710" lon="-8.7243760">
        <ele>4.9</ele>
        <time>2021-05-16T08:36:42Z</time>
      </trkpt>
      <trkpt lat="41.2603800" lon="-8.7243780">
        <ele>5.0</ele>
        <time>2021-05-16T08:36:43Z</time>
      </trkpt>
      <trkpt lat="41.2603870" lon="-8.7243830">
        <ele>5.0</ele>
        <time>2021-05-16T08:36:44Z</time>
      </trkpt>
      <trkpt lat="41.2603940" lon="-8.7243780">
        <ele>5.0</ele>
        <time>2021-05-16T08:36:45Z</time>
      </trkpt>
      <trkpt lat="41.2604020" lon="-8.7243770">
        <ele>5.0</ele>
        <time>2021-05-16T08:36:46Z</time>
      </trkpt>
      <trkpt lat="41.2604110" lon="-8.7243760">
        <ele>5.0</ele>
        <time>2021-05-16T08:36:47Z</time>
      </trkpt>
      <trkpt lat="41.2604170" lon="-8.7243750">
        <ele>5.0</ele>
        <time>2021-05-16T08:36:48Z</time>
      </trkpt>
      <trkpt lat="41.2604150" lon="-8.7243780">
        <ele>5.1</ele>
        <time>2021-05-16T08:36:49Z</time>
      </trkpt>
      <trkpt lat="41.2604150" lon="-8.7243790">
        <ele>5.1</ele>
        <time>2021-05-16T08:36:50Z</time>
      </trkpt>
      <trkpt lat="41.2604150" lon="-8.7243790">
        <ele>5.1</ele>
        <time>2021-05-16T08:36:51Z</time>
      </trkpt>
      <trkpt lat="41.2604160" lon="-8.7243790">
        <ele>5.1</ele>
        <time>2021-05-16T08:36:52Z</time>
      </trkpt>
      <trkpt lat="41.2604170" lon="-8.7243790">
        <ele>5.1</ele>
        <time>2021-05-16T08:36:53Z</time>
      </trkpt>
      <trkpt lat="41.2604170" lon="-8.7243790">
        <ele>5.1</ele>
        <time>2021-05-16T08:36:54Z</time>
      </trkpt>
      <trkpt lat="41.2604170" lon="-8.7243790">
        <ele>5.1</ele>
        <time>2021-05-16T08:36:55Z</time>
      </trkpt>
      <trkpt lat="41.2604170" lon="-8.7243790">
        <ele>5.1</ele>
        <time>2021-05-16T08:36:56Z</time>
      </trkpt>
      <trkpt lat="41.2604200" lon="-8.7243780">
        <ele>5.1</ele>
        <time>2021-05-16T08:36:57Z</time>
      </trkpt>
      <trkpt lat="41.2604190" lon="-8.7243790">
        <ele>5.1</ele>
        <time>2021-05-16T08:36:58Z</time>
      </trkpt>
      <trkpt lat="41.2604190" lon="-8.7243790">
        <ele>5.1</ele>
        <time>2021-05-16T08:36:59Z</time>
      </trkpt>
      <trkpt lat="41.2604190" lon="-8.7243800">
        <ele>5.1</ele>
        <time>2021-05-16T08:37:00Z</time>
      </trkpt>
      <trkpt lat="41.2604180" lon="-8.7243800">
        <ele>5.1</ele>
        <time>2021-05-16T08:37:01Z</time>
      </trkpt>
      <trkpt lat="41.2604180" lon="-8.7243810">
        <ele>5.1</ele>
        <time>2021-05-16T08:37:02Z</time>
      </trkpt>
      <trkpt lat="41.2604170" lon="-8.7243840">
        <ele>5.1</ele>
        <time>2021-05-16T08:37:03Z</time>
      </trkpt>
      <trkpt lat="41.2604160" lon="-8.7243840">
        <ele>5.1</ele>
        <time>2021-05-16T08:37:04Z</time>
      </trkpt>
      <trkpt lat="41.2604160" lon="-8.7243840">
        <ele>5.1</ele>
        <time>2021-05-16T08:37:05Z</time>
      </trkpt>
      <trkpt lat="41.2604140" lon="-8.7243850">
        <ele>5.1</ele>
        <time>2021-05-16T08:37:06Z</time>
      </trkpt>
      <trkpt lat="41.2604140" lon="-8.7243850">
        <ele>5.1</ele>
        <time>2021-05-16T08:37:07Z</time>
      </trkpt>
      <trkpt lat="41.2604130" lon="-8.7243860">
        <ele>5.1</ele>
        <time>2021-05-16T08:37:08Z</time>
      </trkpt>
      <trkpt lat="41.2604120" lon="-8.7243860">
        <ele>5.1</ele>
        <time>2021-05-16T08:37:09Z</time>
      </trkpt>
      <trkpt lat="41.2604110" lon="-8.7243870">
        <ele>5.1</ele>
        <time>2021-05-16T08:37:10Z</time>
      </trkpt>
      <trkpt lat="41.2604110" lon="-8.7243870">
        <ele>5.1</ele>
        <time>2021-05-16T08:37:11Z</time>
      </trkpt>
      <trkpt lat="41.2604090" lon="-8.7243880">
        <ele>5.1</ele>
        <time>2021-05-16T08:37:12Z</time>
      </trkpt>
      <trkpt lat="41.2604080" lon="-8.7243880">
        <ele>5.1</ele>
        <time>2021-05-16T08:37:13Z</time>
      </trkpt>
      <trkpt lat="41.2604090" lon="-8.7243890">
        <ele>5.1</ele>
        <time>2021-05-16T08:37:14Z</time>
      </trkpt>
      <trkpt lat="41.2604110" lon="-8.7243850">
        <ele>5.1</ele>
        <time>2021-05-16T08:37:15Z</time>
      </trkpt>
      <trkpt lat="41.2604120" lon="-8.7243840">
        <ele>5.1</ele>
        <time>2021-05-16T08:37:16Z</time>
      </trkpt>
      <trkpt lat="41.2604130" lon="-8.7243830">
        <ele>5.1</ele>
        <time>2021-05-16T08:37:17Z</time>
      </trkpt>
      <trkpt lat="41.2604120" lon="-8.7243820">
        <ele>5.1</ele>
        <time>2021-05-16T08:37:18Z</time>
      </trkpt>
      <trkpt lat="41.2604110" lon="-8.7243810">
        <ele>5.1</ele>
        <time>2021-05-16T08:37:19Z</time>
      </trkpt>
      <trkpt lat="41.2604100" lon="-8.7243810">
        <ele>5.1</ele>
        <time>2021-05-16T08:37:20Z</time>
      </trkpt>
      <trkpt lat="41.2604090" lon="-8.7243790">
        <ele>5.1</ele>
        <time>2021-05-16T08:37:21Z</time>
      </trkpt>
      <trkpt lat="41.2604080" lon="-8.7243800">
        <ele>5.1</ele>
        <time>2021-05-16T08:37:22Z</time>
      </trkpt>
      <trkpt lat="41.2604070" lon="-8.7243780">
        <ele>5.1</ele>
        <time>2021-05-16T08:37:23Z</time>
      </trkpt>
      <trkpt lat="41.2604070" lon="-8.7243790">
        <ele>5.1</ele>
        <time>2021-05-16T08:37:24Z</time>
      </trkpt>
      <trkpt lat="41.2604060" lon="-8.7243810">
        <ele>5.1</ele>
        <time>2021-05-16T08:37:25Z</time>
      </trkpt>
      <trkpt lat="41.2604070" lon="-8.7243810">
        <ele>5.1</ele>
        <time>2021-05-16T08:37:26Z</time>
      </trkpt>
      <trkpt lat="41.2604090" lon="-8.7243730">
        <ele>5.2</ele>
        <time>2021-05-16T08:37:27Z</time>
      </trkpt>
      <trkpt lat="41.2604180" lon="-8.7243640">
        <ele>5.2</ele>
        <time>2021-05-16T08:37:28Z</time>
      </trkpt>
      <trkpt lat="41.2604230" lon="-8.7243560">
        <ele>5.2</ele>
        <time>2021-05-16T08:37:29Z</time>
      </trkpt>
      <trkpt lat="41.2604240" lon="-8.7243340">
        <ele>5.2</ele>
        <time>2021-05-16T08:37:30Z</time>
      </trkpt>
      <trkpt lat="41.2604260" lon="-8.7243150">
        <ele>5.3</ele>
        <time>2021-05-16T08:37:31Z</time>
      </trkpt>
      <trkpt lat="41.2604340" lon="-8.7242890">
        <ele>6.5</ele>
        <time>2021-05-16T08:37:32Z</time>
      </trkpt>
      <trkpt lat="41.2604370" lon="-8.7242760">
        <ele>6.5</ele>
        <time>2021-05-16T08:37:33Z</time>
      </trkpt>
      <trkpt lat="41.2604400" lon="-8.7242640">
        <ele>6.5</ele>
        <time>2021-05-16T08:37:34Z</time>
      </trkpt>
      <trkpt lat="41.2604540" lon="-8.7242450">
        <ele>6.5</ele>
        <time>2021-05-16T08:37:35Z</time>
      </trkpt>
      <trkpt lat="41.2604640" lon="-8.7242420">
        <ele>6.5</ele>
        <time>2021-05-16T08:37:36Z</time>
      </trkpt>
      <trkpt lat="41.2604740" lon="-8.7242400">
        <ele>6.5</ele>
        <time>2021-05-16T08:37:37Z</time>
      </trkpt>
      <trkpt lat="41.2604870" lon="-8.7242470">
        <ele>6.5</ele>
        <time>2021-05-16T08:37:38Z</time>
      </trkpt>
      <trkpt lat="41.2605000" lon="-8.7242540">
        <ele>6.5</ele>
        <time>2021-05-16T08:37:39Z</time>
      </trkpt>
      <trkpt lat="41.2605140" lon="-8.7242600">
        <ele>6.5</ele>
        <time>2021-05-16T08:37:40Z</time>
      </trkpt>
      <trkpt lat="41.2605300" lon="-8.7242600">
        <ele>6.5</ele>
        <time>2021-05-16T08:37:41Z</time>
      </trkpt>
      <trkpt lat="41.2605430" lon="-8.7242700">
        <ele>6.5</ele>
        <time>2021-05-16T08:37:42Z</time>
      </trkpt>
      <trkpt lat="41.2605600" lon="-8.7242770">
        <ele>6.5</ele>
        <time>2021-05-16T08:37:43Z</time>
      </trkpt>
      <trkpt lat="41.2605740" lon="-8.7242810">
        <ele>6.5</ele>
        <time>2021-05-16T08:37:44Z</time>
      </trkpt>
      <trkpt lat="41.2605890" lon="-8.7242900">
        <ele>6.5</ele>
        <time>2021-05-16T08:37:45Z</time>
      </trkpt>
      <trkpt lat="41.2606050" lon="-8.7242940">
        <ele>6.5</ele>
        <time>2021-05-16T08:37:46Z</time>
      </trkpt>
      <trkpt lat="41.2606210" lon="-8.7242950">
        <ele>6.5</ele>
        <time>2021-05-16T08:37:47Z</time>
      </trkpt>
      <trkpt lat="41.2606370" lon="-8.7243040">
        <ele>6.5</ele>
        <time>2021-05-16T08:37:48Z</time>
      </trkpt>
      <trkpt lat="41.2606510" lon="-8.7243110">
        <ele>6.5</ele>
        <time>2021-05-16T08:37:49Z</time>
      </trkpt>
      <trkpt lat="41.2606670" lon="-8.7243120">
        <ele>6.6</ele>
        <time>2021-05-16T08:37:50Z</time>
      </trkpt>
      <trkpt lat="41.2606840" lon="-8.7243170">
        <ele>6.6</ele>
        <time>2021-05-16T08:37:51Z</time>
      </trkpt>
      <trkpt lat="41.2606980" lon="-8.7243230">
        <ele>6.6</ele>
        <time>2021-05-16T08:37:52Z</time>
      </trkpt>
      <trkpt lat="41.2607140" lon="-8.7243280">
        <ele>6.6</ele>
        <time>2021-05-16T08:37:53Z</time>
      </trkpt>
      <trkpt lat="41.2607280" lon="-8.7243320">
        <ele>6.6</ele>
        <time>2021-05-16T08:37:54Z</time>
      </trkpt>
      <trkpt lat="41.2607420" lon="-8.7243380">
        <ele>6.6</ele>
        <time>2021-05-16T08:37:55Z</time>
      </trkpt>
      <trkpt lat="41.2607580" lon="-8.7243430">
        <ele>6.6</ele>
        <time>2021-05-16T08:37:56Z</time>
      </trkpt>
      <trkpt lat="41.2607740" lon="-8.7243490">
        <ele>6.6</ele>
        <time>2021-05-16T08:37:57Z</time>
      </trkpt>
      <trkpt lat="41.2607900" lon="-8.7243510">
        <ele>6.6</ele>
        <time>2021-05-16T08:37:58Z</time>
      </trkpt>
      <trkpt lat="41.2608030" lon="-8.7243570">
        <ele>6.6</ele>
        <time>2021-05-16T08:37:59Z</time>
      </trkpt>
      <trkpt lat="41.2608180" lon="-8.7243630">
        <ele>6.6</ele>
        <time>2021-05-16T08:38:00Z</time>
      </trkpt>
      <trkpt lat="41.2608330" lon="-8.7243710">
        <ele>6.6</ele>
        <time>2021-05-16T08:38:01Z</time>
      </trkpt>
      <trkpt lat="41.2608480" lon="-8.7243750">
        <ele>6.6</ele>
        <time>2021-05-16T08:38:02Z</time>
      </trkpt>
      <trkpt lat="41.2608610" lon="-8.7243800">
        <ele>6.6</ele>
        <time>2021-05-16T08:38:03Z</time>
      </trkpt>
      <trkpt lat="41.2608740" lon="-8.7243870">
        <ele>6.6</ele>
        <time>2021-05-16T08:38:04Z</time>
      </trkpt>
      <trkpt lat="41.2608900" lon="-8.7243890">
        <ele>6.6</ele>
        <time>2021-05-16T08:38:05Z</time>
      </trkpt>
      <trkpt lat="41.2609030" lon="-8.7243890">
        <ele>6.6</ele>
        <time>2021-05-16T08:38:06Z</time>
      </trkpt>
      <trkpt lat="41.2609170" lon="-8.7243960">
        <ele>6.7</ele>
        <time>2021-05-16T08:38:07Z</time>
      </trkpt>
      <trkpt lat="41.2609300" lon="-8.7243980">
        <ele>6.7</ele>
        <time>2021-05-16T08:38:08Z</time>
      </trkpt>
      <trkpt lat="41.2609450" lon="-8.7244050">
        <ele>6.7</ele>
        <time>2021-05-16T08:38:09Z</time>
      </trkpt>
      <trkpt lat="41.2609600" lon="-8.7244100">
        <ele>6.7</ele>
        <time>2021-05-16T08:38:10Z</time>
      </trkpt>
      <trkpt lat="41.2609770" lon="-8.7244150">
        <ele>6.7</ele>
        <time>2021-05-16T08:38:11Z</time>
      </trkpt>
      <trkpt lat="41.2609930" lon="-8.7244230">
        <ele>6.7</ele>
        <time>2021-05-16T08:38:12Z</time>
      </trkpt>
      <trkpt lat="41.2610070" lon="-8.7244180">
        <ele>6.7</ele>
        <time>2021-05-16T08:38:13Z</time>
      </trkpt>
      <trkpt lat="41.2610200" lon="-8.7244180">
        <ele>6.7</ele>
        <time>2021-05-16T08:38:14Z</time>
      </trkpt>
      <trkpt lat="41.2610290" lon="-8.7244250">
        <ele>6.7</ele>
        <time>2021-05-16T08:38:15Z</time>
      </trkpt>
      <trkpt lat="41.2610360" lon="-8.7244240">
        <ele>6.7</ele>
        <time>2021-05-16T08:38:16Z</time>
      </trkpt>
      <trkpt lat="41.2610480" lon="-8.7244250">
        <ele>6.7</ele>
        <time>2021-05-16T08:38:17Z</time>
      </trkpt>
      <trkpt lat="41.2610640" lon="-8.7244270">
        <ele>6.7</ele>
        <time>2021-05-16T08:38:18Z</time>
      </trkpt>
      <trkpt lat="41.2610900" lon="-8.7244380">
        <ele>6.7</ele>
        <time>2021-05-16T08:38:19Z</time>
      </trkpt>
      <trkpt lat="41.2610990" lon="-8.7244440">
        <ele>6.8</ele>
        <time>2021-05-16T08:38:20Z</time>
      </trkpt>
      <trkpt lat="41.2611160" lon="-8.7244440">
        <ele>6.8</ele>
        <time>2021-05-16T08:38:21Z</time>
      </trkpt>
      <trkpt lat="41.2611320" lon="-8.7244520">
        <ele>6.8</ele>
        <time>2021-05-16T08:38:22Z</time>
      </trkpt>
      <trkpt lat="41.2611460" lon="-8.7244520">
        <ele>6.8</ele>
        <time>2021-05-16T08:38:23Z</time>
      </trkpt>
      <trkpt lat="41.2611590" lon="-8.7244610">
        <ele>6.8</ele>
        <time>2021-05-16T08:38:24Z</time>
      </trkpt>
      <trkpt lat="41.2611770" lon="-8.7244630">
        <ele>6.9</ele>
        <time>2021-05-16T08:38:25Z</time>
      </trkpt>
      <trkpt lat="41.2611910" lon="-8.7244720">
        <ele>6.9</ele>
        <time>2021-05-16T08:38:26Z</time>
      </trkpt>
      <trkpt lat="41.2612060" lon="-8.7244820">
        <ele>6.9</ele>
        <time>2021-05-16T08:38:27Z</time>
      </trkpt>
      <trkpt lat="41.2612210" lon="-8.7244930">
        <ele>7.0</ele>
        <time>2021-05-16T08:38:28Z</time>
      </trkpt>
      <trkpt lat="41.2612480" lon="-8.7245030">
        <ele>7.0</ele>
        <time>2021-05-16T08:38:29Z</time>
      </trkpt>
      <trkpt lat="41.2612570" lon="-8.7245070">
        <ele>7.0</ele>
        <time>2021-05-16T08:38:30Z</time>
      </trkpt>
      <trkpt lat="41.2612740" lon="-8.7245090">
        <ele>7.0</ele>
        <time>2021-05-16T08:38:31Z</time>
      </trkpt>
      <trkpt lat="41.2612890" lon="-8.7245200">
        <ele>7.0</ele>
        <time>2021-05-16T08:38:32Z</time>
      </trkpt>
      <trkpt lat="41.2613020" lon="-8.7245220">
        <ele>7.0</ele>
        <time>2021-05-16T08:38:33Z</time>
      </trkpt>
      <trkpt lat="41.2613180" lon="-8.7245310">
        <ele>7.0</ele>
        <time>2021-05-16T08:38:34Z</time>
      </trkpt>
      <trkpt lat="41.2613330" lon="-8.7245410">
        <ele>7.0</ele>
        <time>2021-05-16T08:38:35Z</time>
      </trkpt>
      <trkpt lat="41.2613460" lon="-8.7245430">
        <ele>7.0</ele>
        <time>2021-05-16T08:38:36Z</time>
      </trkpt>
      <trkpt lat="41.2613660" lon="-8.7245510">
        <ele>7.0</ele>
        <time>2021-05-16T08:38:37Z</time>
      </trkpt>
      <trkpt lat="41.2613760" lon="-8.7245550">
        <ele>7.0</ele>
        <time>2021-05-16T08:38:38Z</time>
      </trkpt>
      <trkpt lat="41.2613850" lon="-8.7245590">
        <ele>7.0</ele>
        <time>2021-05-16T08:38:39Z</time>
      </trkpt>
      <trkpt lat="41.2614000" lon="-8.7245650">
        <ele>7.0</ele>
        <time>2021-05-16T08:38:40Z</time>
      </trkpt>
      <trkpt lat="41.2614150" lon="-8.7245740">
        <ele>7.0</ele>
        <time>2021-05-16T08:38:41Z</time>
      </trkpt>
      <trkpt lat="41.2614280" lon="-8.7245770">
        <ele>7.0</ele>
        <time>2021-05-16T08:38:42Z</time>
      </trkpt>
      <trkpt lat="41.2614450" lon="-8.7245850">
        <ele>7.0</ele>
        <time>2021-05-16T08:38:43Z</time>
      </trkpt>
      <trkpt lat="41.2614570" lon="-8.7245910">
        <ele>7.0</ele>
        <time>2021-05-16T08:38:44Z</time>
      </trkpt>
      <trkpt lat="41.2614700" lon="-8.7246020">
        <ele>7.0</ele>
        <time>2021-05-16T08:38:45Z</time>
      </trkpt>
      <trkpt lat="41.2614850" lon="-8.7246050">
        <ele>7.0</ele>
        <time>2021-05-16T08:38:46Z</time>
      </trkpt>
      <trkpt lat="41.2614970" lon="-8.7246180">
        <ele>7.0</ele>
        <time>2021-05-16T08:38:47Z</time>
      </trkpt>
      <trkpt lat="41.2615100" lon="-8.7246290">
        <ele>7.0</ele>
        <time>2021-05-16T08:38:48Z</time>
      </trkpt>
      <trkpt lat="41.2615230" lon="-8.7246380">
        <ele>7.0</ele>
        <time>2021-05-16T08:38:49Z</time>
      </trkpt>
      <trkpt lat="41.2615440" lon="-8.7246460">
        <ele>7.0</ele>
        <time>2021-05-16T08:38:50Z</time>
      </trkpt>
      <trkpt lat="41.2615510" lon="-8.7246480">
        <ele>7.1</ele>
        <time>2021-05-16T08:38:51Z</time>
      </trkpt>
      <trkpt lat="41.2615590" lon="-8.7246500">
        <ele>7.1</ele>
        <time>2021-05-16T08:38:52Z</time>
      </trkpt>
      <trkpt lat="41.2615780" lon="-8.7246630">
        <ele>7.1</ele>
        <time>2021-05-16T08:38:53Z</time>
      </trkpt>
      <trkpt lat="41.2615880" lon="-8.7246700">
        <ele>7.1</ele>
        <time>2021-05-16T08:38:54Z</time>
      </trkpt>
      <trkpt lat="41.2615970" lon="-8.7246760">
        <ele>7.1</ele>
        <time>2021-05-16T08:38:55Z</time>
      </trkpt>
      <trkpt lat="41.2616100" lon="-8.7246820">
        <ele>7.1</ele>
        <time>2021-05-16T08:38:56Z</time>
      </trkpt>
      <trkpt lat="41.2616240" lon="-8.7246880">
        <ele>7.1</ele>
        <time>2021-05-16T08:38:57Z</time>
      </trkpt>
      <trkpt lat="41.2616410" lon="-8.7246950">
        <ele>7.1</ele>
        <time>2021-05-16T08:38:58Z</time>
      </trkpt>
      <trkpt lat="41.2616560" lon="-8.7247040">
        <ele>7.1</ele>
        <time>2021-05-16T08:38:59Z</time>
      </trkpt>
      <trkpt lat="41.2616790" lon="-8.7247140">
        <ele>7.1</ele>
        <time>2021-05-16T08:39:00Z</time>
      </trkpt>
      <trkpt lat="41.2616880" lon="-8.7247170">
        <ele>7.1</ele>
        <time>2021-05-16T08:39:01Z</time>
      </trkpt>
      <trkpt lat="41.2616980" lon="-8.7247200">
        <ele>7.1</ele>
        <time>2021-05-16T08:39:02Z</time>
      </trkpt>
      <trkpt lat="41.2617110" lon="-8.7247260">
        <ele>7.1</ele>
        <time>2021-05-16T08:39:03Z</time>
      </trkpt>
      <trkpt lat="41.2617260" lon="-8.7247240">
        <ele>7.1</ele>
        <time>2021-05-16T08:39:04Z</time>
      </trkpt>
      <trkpt lat="41.2617410" lon="-8.7247330">
        <ele>7.1</ele>
        <time>2021-05-16T08:39:05Z</time>
      </trkpt>
      <trkpt lat="41.2617560" lon="-8.7247430">
        <ele>7.1</ele>
        <time>2021-05-16T08:39:06Z</time>
      </trkpt>
      <trkpt lat="41.2617760" lon="-8.7247550">
        <ele>7.1</ele>
        <time>2021-05-16T08:39:07Z</time>
      </trkpt>
      <trkpt lat="41.2617840" lon="-8.7247600">
        <ele>7.1</ele>
        <time>2021-05-16T08:39:08Z</time>
      </trkpt>
      <trkpt lat="41.2617920" lon="-8.7247640">
        <ele>7.1</ele>
        <time>2021-05-16T08:39:09Z</time>
      </trkpt>
      <trkpt lat="41.2618060" lon="-8.7247730">
        <ele>7.1</ele>
        <time>2021-05-16T08:39:10Z</time>
      </trkpt>
      <trkpt lat="41.2618210" lon="-8.7247850">
        <ele>7.1</ele>
        <time>2021-05-16T08:39:11Z</time>
      </trkpt>
      <trkpt lat="41.2618370" lon="-8.7247890">
        <ele>7.1</ele>
        <time>2021-05-16T08:39:12Z</time>
      </trkpt>
      <trkpt lat="41.2618520" lon="-8.7247990">
        <ele>7.1</ele>
        <time>2021-05-16T08:39:13Z</time>
      </trkpt>
      <trkpt lat="41.2618660" lon="-8.7248060">
        <ele>7.1</ele>
        <time>2021-05-16T08:39:14Z</time>
      </trkpt>
      <trkpt lat="41.2618780" lon="-8.7248140">
        <ele>7.1</ele>
        <time>2021-05-16T08:39:15Z</time>
      </trkpt>
      <trkpt lat="41.2618920" lon="-8.7248120">
        <ele>7.1</ele>
        <time>2021-05-16T08:39:16Z</time>
      </trkpt>
      <trkpt lat="41.2619050" lon="-8.7248140">
        <ele>7.1</ele>
        <time>2021-05-16T08:39:17Z</time>
      </trkpt>
      <trkpt lat="41.2619270" lon="-8.7248170">
        <ele>7.1</ele>
        <time>2021-05-16T08:39:18Z</time>
      </trkpt>
      <trkpt lat="41.2619370" lon="-8.7248180">
        <ele>7.1</ele>
        <time>2021-05-16T08:39:19Z</time>
      </trkpt>
      <trkpt lat="41.2619470" lon="-8.7248190">
        <ele>7.1</ele>
        <time>2021-05-16T08:39:20Z</time>
      </trkpt>
      <trkpt lat="41.2619620" lon="-8.7248200">
        <ele>7.1</ele>
        <time>2021-05-16T08:39:21Z</time>
      </trkpt>
      <trkpt lat="41.2619760" lon="-8.7248240">
        <ele>7.1</ele>
        <time>2021-05-16T08:39:22Z</time>
      </trkpt>
      <trkpt lat="41.2619910" lon="-8.7248260">
        <ele>7.1</ele>
        <time>2021-05-16T08:39:23Z</time>
      </trkpt>
      <trkpt lat="41.2620030" lon="-8.7248330">
        <ele>7.1</ele>
        <time>2021-05-16T08:39:24Z</time>
      </trkpt>
      <trkpt lat="41.2620190" lon="-8.7248400">
        <ele>7.1</ele>
        <time>2021-05-16T08:39:25Z</time>
      </trkpt>
      <trkpt lat="41.2620310" lon="-8.7248480">
        <ele>7.1</ele>
        <time>2021-05-16T08:39:26Z</time>
      </trkpt>
      <trkpt lat="41.2620470" lon="-8.7248560">
        <ele>7.1</ele>
        <time>2021-05-16T08:39:27Z</time>
      </trkpt>
      <trkpt lat="41.2620610" lon="-8.7248660">
        <ele>7.1</ele>
        <time>2021-05-16T08:39:28Z</time>
      </trkpt>
      <trkpt lat="41.2620870" lon="-8.7248780">
        <ele>7.1</ele>
        <time>2021-05-16T08:39:29Z</time>
      </trkpt>
      <trkpt lat="41.2620970" lon="-8.7248800">
        <ele>7.1</ele>
        <time>2021-05-16T08:39:30Z</time>
      </trkpt>
      <trkpt lat="41.2621130" lon="-8.7248890">
        <ele>7.1</ele>
        <time>2021-05-16T08:39:31Z</time>
      </trkpt>
      <trkpt lat="41.2621310" lon="-8.7248920">
        <ele>7.2</ele>
        <time>2021-05-16T08:39:32Z</time>
      </trkpt>
      <trkpt lat="41.2621430" lon="-8.7249060">
        <ele>7.2</ele>
        <time>2021-05-16T08:39:33Z</time>
      </trkpt>
      <trkpt lat="41.2621570" lon="-8.7249150">
        <ele>7.2</ele>
        <time>2021-05-16T08:39:34Z</time>
      </trkpt>
      <trkpt lat="41.2621710" lon="-8.7249200">
        <ele>7.2</ele>
        <time>2021-05-16T08:39:35Z</time>
      </trkpt>
      <trkpt lat="41.2621850" lon="-8.7249290">
        <ele>7.2</ele>
        <time>2021-05-16T08:39:36Z</time>
      </trkpt>
      <trkpt lat="41.2621990" lon="-8.7249390">
        <ele>7.2</ele>
        <time>2021-05-16T08:39:37Z</time>
      </trkpt>
      <trkpt lat="41.2622120" lon="-8.7249510">
        <ele>7.2</ele>
        <time>2021-05-16T08:39:38Z</time>
      </trkpt>
      <trkpt lat="41.2622290" lon="-8.7249570">
        <ele>7.2</ele>
        <time>2021-05-16T08:39:39Z</time>
      </trkpt>
      <trkpt lat="41.2622450" lon="-8.7249620">
        <ele>7.2</ele>
        <time>2021-05-16T08:39:40Z</time>
      </trkpt>
      <trkpt lat="41.2622600" lon="-8.7249690">
        <ele>7.2</ele>
        <time>2021-05-16T08:39:41Z</time>
      </trkpt>
      <trkpt lat="41.2622760" lon="-8.7249720">
        <ele>7.2</ele>
        <time>2021-05-16T08:39:42Z</time>
      </trkpt>
      <trkpt lat="41.2622910" lon="-8.7249760">
        <ele>7.2</ele>
        <time>2021-05-16T08:39:43Z</time>
      </trkpt>
      <trkpt lat="41.2623060" lon="-8.7249830">
        <ele>7.2</ele>
        <time>2021-05-16T08:39:44Z</time>
      </trkpt>
      <trkpt lat="41.2623160" lon="-8.7249970">
        <ele>7.2</ele>
        <time>2021-05-16T08:39:45Z</time>
      </trkpt>
      <trkpt lat="41.2623310" lon="-8.7249970">
        <ele>7.2</ele>
        <time>2021-05-16T08:39:46Z</time>
      </trkpt>
      <trkpt lat="41.2623440" lon="-8.7250020">
        <ele>7.2</ele>
        <time>2021-05-16T08:39:47Z</time>
      </trkpt>
      <trkpt lat="41.2623590" lon="-8.7250050">
        <ele>7.2</ele>
        <time>2021-05-16T08:39:48Z</time>
      </trkpt>
      <trkpt lat="41.2623720" lon="-8.7250130">
        <ele>7.2</ele>
        <time>2021-05-16T08:39:49Z</time>
      </trkpt>
      <trkpt lat="41.2623840" lon="-8.7250210">
        <ele>7.2</ele>
        <time>2021-05-16T08:39:50Z</time>
      </trkpt>
      <trkpt lat="41.2623970" lon="-8.7250280">
        <ele>7.2</ele>
        <time>2021-05-16T08:39:51Z</time>
      </trkpt>
      <trkpt lat="41.2624110" lon="-8.7250320">
        <ele>7.2</ele>
        <time>2021-05-16T08:39:52Z</time>
      </trkpt>
      <trkpt lat="41.2624230" lon="-8.7250440">
        <ele>7.2</ele>
        <time>2021-05-16T08:39:53Z</time>
      </trkpt>
      <trkpt lat="41.2624400" lon="-8.7250510">
        <ele>7.2</ele>
        <time>2021-05-16T08:39:54Z</time>
      </trkpt>
      <trkpt lat="41.2624550" lon="-8.7250560">
        <ele>7.2</ele>
        <time>2021-05-16T08:39:55Z</time>
      </trkpt>
      <trkpt lat="41.2624700" lon="-8.7250600">
        <ele>7.2</ele>
        <time>2021-05-16T08:39:56Z</time>
      </trkpt>
      <trkpt lat="41.2624850" lon="-8.7250680">
        <ele>7.2</ele>
        <time>2021-05-16T08:39:57Z</time>
      </trkpt>
      <trkpt lat="41.2625000" lon="-8.7250730">
        <ele>7.1</ele>
        <time>2021-05-16T08:39:58Z</time>
      </trkpt>
      <trkpt lat="41.2625120" lon="-8.7250840">
        <ele>7.1</ele>
        <time>2021-05-16T08:39:59Z</time>
      </trkpt>
      <trkpt lat="41.2625240" lon="-8.7250950">
        <ele>7.1</ele>
        <time>2021-05-16T08:40:00Z</time>
      </trkpt>
      <trkpt lat="41.2625360" lon="-8.7251020">
        <ele>7.1</ele>
        <time>2021-05-16T08:40:01Z</time>
      </trkpt>
      <trkpt lat="41.2625500" lon="-8.7251120">
        <ele>7.1</ele>
        <time>2021-05-16T08:40:02Z</time>
      </trkpt>
      <trkpt lat="41.2625630" lon="-8.7251200">
        <ele>7.1</ele>
        <time>2021-05-16T08:40:03Z</time>
      </trkpt>
      <trkpt lat="41.2625770" lon="-8.7251320">
        <ele>7.1</ele>
        <time>2021-05-16T08:40:04Z</time>
      </trkpt>
      <trkpt lat="41.2625980" lon="-8.7251430">
        <ele>7.1</ele>
        <time>2021-05-16T08:40:05Z</time>
      </trkpt>
      <trkpt lat="41.2626070" lon="-8.7251480">
        <ele>7.1</ele>
        <time>2021-05-16T08:40:06Z</time>
      </trkpt>
      <trkpt lat="41.2626150" lon="-8.7251520">
        <ele>7.1</ele>
        <time>2021-05-16T08:40:07Z</time>
      </trkpt>
      <trkpt lat="41.2626300" lon="-8.7251570">
        <ele>7.1</ele>
        <time>2021-05-16T08:40:08Z</time>
      </trkpt>
      <trkpt lat="41.2626470" lon="-8.7251520">
        <ele>7.1</ele>
        <time>2021-05-16T08:40:09Z</time>
      </trkpt>
      <trkpt lat="41.2626570" lon="-8.7251580">
        <ele>7.1</ele>
        <time>2021-05-16T08:40:10Z</time>
      </trkpt>
      <trkpt lat="41.2626710" lon="-8.7251690">
        <ele>7.1</ele>
        <time>2021-05-16T08:40:11Z</time>
      </trkpt>
      <trkpt lat="41.2626900" lon="-8.7251810">
        <ele>7.1</ele>
        <time>2021-05-16T08:40:12Z</time>
      </trkpt>
      <trkpt lat="41.2626990" lon="-8.7251840">
        <ele>7.1</ele>
        <time>2021-05-16T08:40:13Z</time>
      </trkpt>
      <trkpt lat="41.2627080" lon="-8.7251860">
        <ele>7.1</ele>
        <time>2021-05-16T08:40:14Z</time>
      </trkpt>
      <trkpt lat="41.2627230" lon="-8.7251950">
        <ele>7.1</ele>
        <time>2021-05-16T08:40:15Z</time>
      </trkpt>
      <trkpt lat="41.2627380" lon="-8.7252080">
        <ele>7.0</ele>
        <time>2021-05-16T08:40:16Z</time>
      </trkpt>
      <trkpt lat="41.2627540" lon="-8.7252150">
        <ele>7.0</ele>
        <time>2021-05-16T08:40:17Z</time>
      </trkpt>
      <trkpt lat="41.2627690" lon="-8.7252170">
        <ele>7.0</ele>
        <time>2021-05-16T08:40:18Z</time>
      </trkpt>
      <trkpt lat="41.2627850" lon="-8.7252120">
        <ele>7.0</ele>
        <time>2021-05-16T08:40:19Z</time>
      </trkpt>
      <trkpt lat="41.2627980" lon="-8.7252140">
        <ele>7.0</ele>
        <time>2021-05-16T08:40:20Z</time>
      </trkpt>
      <trkpt lat="41.2628140" lon="-8.7252250">
        <ele>7.0</ele>
        <time>2021-05-16T08:40:21Z</time>
      </trkpt>
      <trkpt lat="41.2628280" lon="-8.7252380">
        <ele>7.0</ele>
        <time>2021-05-16T08:40:22Z</time>
      </trkpt>
      <trkpt lat="41.2628410" lon="-8.7252550">
        <ele>7.0</ele>
        <time>2021-05-16T08:40:23Z</time>
      </trkpt>
      <trkpt lat="41.2628560" lon="-8.7252640">
        <ele>7.0</ele>
        <time>2021-05-16T08:40:24Z</time>
      </trkpt>
      <trkpt lat="41.2628740" lon="-8.7252660">
        <ele>7.0</ele>
        <time>2021-05-16T08:40:25Z</time>
      </trkpt>
      <trkpt lat="41.2628880" lon="-8.7252780">
        <ele>7.0</ele>
        <time>2021-05-16T08:40:26Z</time>
      </trkpt>
      <trkpt lat="41.2629040" lon="-8.7252820">
        <ele>6.9</ele>
        <time>2021-05-16T08:40:27Z</time>
      </trkpt>
      <trkpt lat="41.2629170" lon="-8.7252880">
        <ele>6.9</ele>
        <time>2021-05-16T08:40:28Z</time>
      </trkpt>
      <trkpt lat="41.2629290" lon="-8.7252970">
        <ele>6.9</ele>
        <time>2021-05-16T08:40:29Z</time>
      </trkpt>
      <trkpt lat="41.2629420" lon="-8.7253060">
        <ele>6.9</ele>
        <time>2021-05-16T08:40:30Z</time>
      </trkpt>
      <trkpt lat="41.2629550" lon="-8.7253160">
        <ele>6.9</ele>
        <time>2021-05-16T08:40:31Z</time>
      </trkpt>
      <trkpt lat="41.2629710" lon="-8.7253250">
        <ele>6.9</ele>
        <time>2021-05-16T08:40:32Z</time>
      </trkpt>
      <trkpt lat="41.2629810" lon="-8.7253340">
        <ele>6.9</ele>
        <time>2021-05-16T08:40:33Z</time>
      </trkpt>
      <trkpt lat="41.2629880" lon="-8.7253410">
        <ele>6.9</ele>
        <time>2021-05-16T08:40:34Z</time>
      </trkpt>
      <trkpt lat="41.2629940" lon="-8.7253550">
        <ele>6.9</ele>
        <time>2021-05-16T08:40:35Z</time>
      </trkpt>
      <trkpt lat="41.2630080" lon="-8.7253650">
        <ele>6.9</ele>
        <time>2021-05-16T08:40:36Z</time>
      </trkpt>
      <trkpt lat="41.2630150" lon="-8.7253750">
        <ele>6.9</ele>
        <time>2021-05-16T08:40:37Z</time>
      </trkpt>
      <trkpt lat="41.2630280" lon="-8.7253720">
        <ele>6.9</ele>
        <time>2021-05-16T08:40:38Z</time>
      </trkpt>
      <trkpt lat="41.2630390" lon="-8.7253800">
        <ele>6.9</ele>
        <time>2021-05-16T08:40:39Z</time>
      </trkpt>
      <trkpt lat="41.2630550" lon="-8.7253830">
        <ele>6.8</ele>
        <time>2021-05-16T08:40:40Z</time>
      </trkpt>
      <trkpt lat="41.2630670" lon="-8.7253910">
        <ele>6.8</ele>
        <time>2021-05-16T08:40:41Z</time>
      </trkpt>
      <trkpt lat="41.2630810" lon="-8.7254020">
        <ele>6.8</ele>
        <time>2021-05-16T08:40:42Z</time>
      </trkpt>
      <trkpt lat="41.2631080" lon="-8.7254170">
        <ele>6.8</ele>
        <time>2021-05-16T08:40:43Z</time>
      </trkpt>
      <trkpt lat="41.2631170" lon="-8.7254200">
        <ele>6.8</ele>
        <time>2021-05-16T08:40:44Z</time>
      </trkpt>
      <trkpt lat="41.2631340" lon="-8.7254210">
        <ele>6.8</ele>
        <time>2021-05-16T08:40:45Z</time>
      </trkpt>
      <trkpt lat="41.2631490" lon="-8.7254270">
        <ele>6.8</ele>
        <time>2021-05-16T08:40:46Z</time>
      </trkpt>
      <trkpt lat="41.2631620" lon="-8.7254390">
        <ele>6.8</ele>
        <time>2021-05-16T08:40:47Z</time>
      </trkpt>
      <trkpt lat="41.2631760" lon="-8.7254470">
        <ele>6.8</ele>
        <time>2021-05-16T08:40:48Z</time>
      </trkpt>
      <trkpt lat="41.2631910" lon="-8.7254580">
        <ele>6.8</ele>
        <time>2021-05-16T08:40:49Z</time>
      </trkpt>
      <trkpt lat="41.2632060" lon="-8.7254620">
        <ele>6.8</ele>
        <time>2021-05-16T08:40:50Z</time>
      </trkpt>
      <trkpt lat="41.2632290" lon="-8.7254840">
        <ele>6.8</ele>
        <time>2021-05-16T08:40:51Z</time>
      </trkpt>
      <trkpt lat="41.2632360" lon="-8.7254900">
        <ele>6.8</ele>
        <time>2021-05-16T08:40:52Z</time>
      </trkpt>
      <trkpt lat="41.2632510" lon="-8.7254990">
        <ele>6.8</ele>
        <time>2021-05-16T08:40:53Z</time>
      </trkpt>
      <trkpt lat="41.2632660" lon="-8.7255030">
        <ele>6.8</ele>
        <time>2021-05-16T08:40:54Z</time>
      </trkpt>
      <trkpt lat="41.2632840" lon="-8.7255090">
        <ele>6.8</ele>
        <time>2021-05-16T08:40:55Z</time>
      </trkpt>
      <trkpt lat="41.2632970" lon="-8.7255220">
        <ele>6.8</ele>
        <time>2021-05-16T08:40:56Z</time>
      </trkpt>
      <trkpt lat="41.2633190" lon="-8.7255320">
        <ele>6.8</ele>
        <time>2021-05-16T08:40:57Z</time>
      </trkpt>
      <trkpt lat="41.2633270" lon="-8.7255330">
        <ele>6.8</ele>
        <time>2021-05-16T08:40:58Z</time>
      </trkpt>
      <trkpt lat="41.2633360" lon="-8.7255330">
        <ele>6.8</ele>
        <time>2021-05-16T08:40:59Z</time>
      </trkpt>
      <trkpt lat="41.2633520" lon="-8.7255410">
        <ele>6.8</ele>
        <time>2021-05-16T08:41:00Z</time>
      </trkpt>
      <trkpt lat="41.2633620" lon="-8.7255540">
        <ele>6.8</ele>
        <time>2021-05-16T08:41:01Z</time>
      </trkpt>
      <trkpt lat="41.2633730" lon="-8.7255670">
        <ele>6.8</ele>
        <time>2021-05-16T08:41:02Z</time>
      </trkpt>
      <trkpt lat="41.2633860" lon="-8.7255750">
        <ele>6.7</ele>
        <time>2021-05-16T08:41:03Z</time>
      </trkpt>
      <trkpt lat="41.2634020" lon="-8.7255810">
        <ele>6.7</ele>
        <time>2021-05-16T08:41:04Z</time>
      </trkpt>
      <trkpt lat="41.2634160" lon="-8.7255890">
        <ele>6.7</ele>
        <time>2021-05-16T08:41:05Z</time>
      </trkpt>
      <trkpt lat="41.2634290" lon="-8.7255910">
        <ele>6.7</ele>
        <time>2021-05-16T08:41:06Z</time>
      </trkpt>
      <trkpt lat="41.2634440" lon="-8.7255940">
        <ele>6.7</ele>
        <time>2021-05-16T08:41:07Z</time>
      </trkpt>
      <trkpt lat="41.2634610" lon="-8.7255990">
        <ele>6.7</ele>
        <time>2021-05-16T08:41:08Z</time>
      </trkpt>
      <trkpt lat="41.2634750" lon="-8.7256080">
        <ele>6.7</ele>
        <time>2021-05-16T08:41:09Z</time>
      </trkpt>
      <trkpt lat="41.2634880" lon="-8.7256200">
        <ele>6.7</ele>
        <time>2021-05-16T08:41:10Z</time>
      </trkpt>
      <trkpt lat="41.2635040" lon="-8.7256280">
        <ele>6.7</ele>
        <time>2021-05-16T08:41:11Z</time>
      </trkpt>
      <trkpt lat="41.2635180" lon="-8.7256350">
        <ele>6.7</ele>
        <time>2021-05-16T08:41:12Z</time>
      </trkpt>
      <trkpt lat="41.2635300" lon="-8.7256410">
        <ele>6.7</ele>
        <time>2021-05-16T08:41:13Z</time>
      </trkpt>
      <trkpt lat="41.2635410" lon="-8.7256470">
        <ele>6.7</ele>
        <time>2021-05-16T08:41:14Z</time>
      </trkpt>
      <trkpt lat="41.2635560" lon="-8.7256540">
        <ele>6.7</ele>
        <time>2021-05-16T08:41:15Z</time>
      </trkpt>
      <trkpt lat="41.2635700" lon="-8.7256480">
        <ele>6.7</ele>
        <time>2021-05-16T08:41:16Z</time>
      </trkpt>
      <trkpt lat="41.2635830" lon="-8.7256510">
        <ele>6.7</ele>
        <time>2021-05-16T08:41:17Z</time>
      </trkpt>
      <trkpt lat="41.2636000" lon="-8.7256630">
        <ele>6.7</ele>
        <time>2021-05-16T08:41:18Z</time>
      </trkpt>
      <trkpt lat="41.2636120" lon="-8.7256760">
        <ele>6.7</ele>
        <time>2021-05-16T08:41:19Z</time>
      </trkpt>
      <trkpt lat="41.2636240" lon="-8.7256900">
        <ele>6.7</ele>
        <time>2021-05-16T08:41:20Z</time>
      </trkpt>
      <trkpt lat="41.2636360" lon="-8.7256990">
        <ele>6.7</ele>
        <time>2021-05-16T08:41:21Z</time>
      </trkpt>
      <trkpt lat="41.2636500" lon="-8.7256990">
        <ele>6.7</ele>
        <time>2021-05-16T08:41:22Z</time>
      </trkpt>
      <trkpt lat="41.2636660" lon="-8.7257050">
        <ele>6.7</ele>
        <time>2021-05-16T08:41:23Z</time>
      </trkpt>
      <trkpt lat="41.2636820" lon="-8.7257050">
        <ele>6.7</ele>
        <time>2021-05-16T08:41:24Z</time>
      </trkpt>
      <trkpt lat="41.2637000" lon="-8.7257100">
        <ele>6.7</ele>
        <time>2021-05-16T08:41:25Z</time>
      </trkpt>
      <trkpt lat="41.2637160" lon="-8.7257170">
        <ele>6.6</ele>
        <time>2021-05-16T08:41:26Z</time>
      </trkpt>
      <trkpt lat="41.2637310" lon="-8.7257250">
        <ele>6.6</ele>
        <time>2021-05-16T08:41:27Z</time>
      </trkpt>
      <trkpt lat="41.2637450" lon="-8.7257380">
        <ele>6.6</ele>
        <time>2021-05-16T08:41:28Z</time>
      </trkpt>
      <trkpt lat="41.2637570" lon="-8.7257420">
        <ele>6.6</ele>
        <time>2021-05-16T08:41:29Z</time>
      </trkpt>
      <trkpt lat="41.2637730" lon="-8.7257470">
        <ele>6.6</ele>
        <time>2021-05-16T08:41:30Z</time>
      </trkpt>
      <trkpt lat="41.2637850" lon="-8.7257550">
        <ele>6.6</ele>
        <time>2021-05-16T08:41:31Z</time>
      </trkpt>
      <trkpt lat="41.2638010" lon="-8.7257610">
        <ele>6.6</ele>
        <time>2021-05-16T08:41:32Z</time>
      </trkpt>
      <trkpt lat="41.2638130" lon="-8.7257730">
        <ele>6.6</ele>
        <time>2021-05-16T08:41:33Z</time>
      </trkpt>
      <trkpt lat="41.2638220" lon="-8.7257810">
        <ele>6.6</ele>
        <time>2021-05-16T08:41:34Z</time>
      </trkpt>
      <trkpt lat="41.2638390" lon="-8.7257870">
        <ele>6.6</ele>
        <time>2021-05-16T08:41:35Z</time>
      </trkpt>
      <trkpt lat="41.2638520" lon="-8.7257980">
        <ele>6.6</ele>
        <time>2021-05-16T08:41:36Z</time>
      </trkpt>
      <trkpt lat="41.2638650" lon="-8.7258110">
        <ele>6.6</ele>
        <time>2021-05-16T08:41:37Z</time>
      </trkpt>
      <trkpt lat="41.2638760" lon="-8.7258240">
        <ele>6.6</ele>
        <time>2021-05-16T08:41:38Z</time>
      </trkpt>
      <trkpt lat="41.2638890" lon="-8.7258210">
        <ele>6.6</ele>
        <time>2021-05-16T08:41:39Z</time>
      </trkpt>
      <trkpt lat="41.2638970" lon="-8.7258190">
        <ele>6.6</ele>
        <time>2021-05-16T08:41:40Z</time>
      </trkpt>
      <trkpt lat="41.2639070" lon="-8.7258200">
        <ele>6.7</ele>
        <time>2021-05-16T08:41:41Z</time>
      </trkpt>
      <trkpt lat="41.2639170" lon="-8.7258220">
        <ele>6.7</ele>
        <time>2021-05-16T08:41:42Z</time>
      </trkpt>
      <trkpt lat="41.2639220" lon="-8.7258250">
        <ele>6.7</ele>
        <time>2021-05-16T08:41:43Z</time>
      </trkpt>
      <trkpt lat="41.2639310" lon="-8.7258340">
        <ele>6.7</ele>
        <time>2021-05-16T08:41:44Z</time>
      </trkpt>
      <trkpt lat="41.2639520" lon="-8.7258420">
        <ele>6.7</ele>
        <time>2021-05-16T08:41:45Z</time>
      </trkpt>
      <trkpt lat="41.2639620" lon="-8.7258530">
        <ele>6.7</ele>
        <time>2021-05-16T08:41:46Z</time>
      </trkpt>
      <trkpt lat="41.2639770" lon="-8.7258580">
        <ele>6.7</ele>
        <time>2021-05-16T08:41:47Z</time>
      </trkpt>
      <trkpt lat="41.2639850" lon="-8.7258620">
        <ele>6.7</ele>
        <time>2021-05-16T08:41:48Z</time>
      </trkpt>
      <trkpt lat="41.2639940" lon="-8.7258680">
        <ele>6.7</ele>
        <time>2021-05-16T08:41:49Z</time>
      </trkpt>
      <trkpt lat="41.2640060" lon="-8.7258730">
        <ele>6.7</ele>
        <time>2021-05-16T08:41:50Z</time>
      </trkpt>
      <trkpt lat="41.2640200" lon="-8.7258840">
        <ele>6.7</ele>
        <time>2021-05-16T08:41:51Z</time>
      </trkpt>
      <trkpt lat="41.2640350" lon="-8.7258880">
        <ele>6.7</ele>
        <time>2021-05-16T08:41:52Z</time>
      </trkpt>
      <trkpt lat="41.2640520" lon="-8.7258990">
        <ele>6.7</ele>
        <time>2021-05-16T08:41:53Z</time>
      </trkpt>
      <trkpt lat="41.2640630" lon="-8.7259090">
        <ele>6.7</ele>
        <time>2021-05-16T08:41:54Z</time>
      </trkpt>
      <trkpt lat="41.2640760" lon="-8.7259190">
        <ele>6.7</ele>
        <time>2021-05-16T08:41:55Z</time>
      </trkpt>
      <trkpt lat="41.2640920" lon="-8.7259220">
        <ele>6.7</ele>
        <time>2021-05-16T08:41:56Z</time>
      </trkpt>
      <trkpt lat="41.2641080" lon="-8.7259270">
        <ele>6.7</ele>
        <time>2021-05-16T08:41:57Z</time>
      </trkpt>
      <trkpt lat="41.2641200" lon="-8.7259350">
        <ele>6.7</ele>
        <time>2021-05-16T08:41:58Z</time>
      </trkpt>
      <trkpt lat="41.2641350" lon="-8.7259360">
        <ele>6.7</ele>
        <time>2021-05-16T08:41:59Z</time>
      </trkpt>
      <trkpt lat="41.2641560" lon="-8.7259480">
        <ele>6.7</ele>
        <time>2021-05-16T08:42:00Z</time>
      </trkpt>
      <trkpt lat="41.2641640" lon="-8.7259580">
        <ele>6.7</ele>
        <time>2021-05-16T08:42:01Z</time>
      </trkpt>
      <trkpt lat="41.2641720" lon="-8.7259670">
        <ele>6.7</ele>
        <time>2021-05-16T08:42:02Z</time>
      </trkpt>
      <trkpt lat="41.2641860" lon="-8.7259750">
        <ele>6.7</ele>
        <time>2021-05-16T08:42:03Z</time>
      </trkpt>
      <trkpt lat="41.2641990" lon="-8.7259820">
        <ele>6.7</ele>
        <time>2021-05-16T08:42:04Z</time>
      </trkpt>
      <trkpt lat="41.2642120" lon="-8.7259930">
        <ele>6.7</ele>
        <time>2021-05-16T08:42:05Z</time>
      </trkpt>
      <trkpt lat="41.2642250" lon="-8.7260030">
        <ele>6.7</ele>
        <time>2021-05-16T08:42:06Z</time>
      </trkpt>
      <trkpt lat="41.2642430" lon="-8.7260080">
        <ele>6.7</ele>
        <time>2021-05-16T08:42:07Z</time>
      </trkpt>
      <trkpt lat="41.2642590" lon="-8.7260080">
        <ele>6.7</ele>
        <time>2021-05-16T08:42:08Z</time>
      </trkpt>
      <trkpt lat="41.2642750" lon="-8.7260160">
        <ele>6.7</ele>
        <time>2021-05-16T08:42:09Z</time>
      </trkpt>
      <trkpt lat="41.2642880" lon="-8.7260200">
        <ele>6.7</ele>
        <time>2021-05-16T08:42:10Z</time>
      </trkpt>
      <trkpt lat="41.2643030" lon="-8.7260280">
        <ele>6.7</ele>
        <time>2021-05-16T08:42:11Z</time>
      </trkpt>
      <trkpt lat="41.2643170" lon="-8.7260360">
        <ele>6.7</ele>
        <time>2021-05-16T08:42:12Z</time>
      </trkpt>
      <trkpt lat="41.2643290" lon="-8.7260470">
        <ele>6.7</ele>
        <time>2021-05-16T08:42:13Z</time>
      </trkpt>
      <trkpt lat="41.2643450" lon="-8.7260540">
        <ele>6.7</ele>
        <time>2021-05-16T08:42:14Z</time>
      </trkpt>
      <trkpt lat="41.2643600" lon="-8.7260630">
        <ele>6.7</ele>
        <time>2021-05-16T08:42:15Z</time>
      </trkpt>
      <trkpt lat="41.2643720" lon="-8.7260740">
        <ele>6.7</ele>
        <time>2021-05-16T08:42:16Z</time>
      </trkpt>
      <trkpt lat="41.2643850" lon="-8.7260860">
        <ele>6.7</ele>
        <time>2021-05-16T08:42:17Z</time>
      </trkpt>
      <trkpt lat="41.2643970" lon="-8.7260910">
        <ele>6.8</ele>
        <time>2021-05-16T08:42:18Z</time>
      </trkpt>
      <trkpt lat="41.2644120" lon="-8.7260970">
        <ele>6.8</ele>
        <time>2021-05-16T08:42:19Z</time>
      </trkpt>
      <trkpt lat="41.2644260" lon="-8.7261070">
        <ele>6.8</ele>
        <time>2021-05-16T08:42:20Z</time>
      </trkpt>
      <trkpt lat="41.2644410" lon="-8.7261140">
        <ele>6.8</ele>
        <time>2021-05-16T08:42:21Z</time>
      </trkpt>
      <trkpt lat="41.2644560" lon="-8.7261160">
        <ele>6.8</ele>
        <time>2021-05-16T08:42:22Z</time>
      </trkpt>
      <trkpt lat="41.2644700" lon="-8.7261160">
        <ele>6.8</ele>
        <time>2021-05-16T08:42:23Z</time>
      </trkpt>
      <trkpt lat="41.2644840" lon="-8.7261250">
        <ele>6.8</ele>
        <time>2021-05-16T08:42:24Z</time>
      </trkpt>
      <trkpt lat="41.2645000" lon="-8.7261270">
        <ele>6.8</ele>
        <time>2021-05-16T08:42:25Z</time>
      </trkpt>
      <trkpt lat="41.2645130" lon="-8.7261320">
        <ele>6.8</ele>
        <time>2021-05-16T08:42:26Z</time>
      </trkpt>
      <trkpt lat="41.2645260" lon="-8.7261360">
        <ele>6.9</ele>
        <time>2021-05-16T08:42:27Z</time>
      </trkpt>
      <trkpt lat="41.2645420" lon="-8.7261400">
        <ele>6.9</ele>
        <time>2021-05-16T08:42:28Z</time>
      </trkpt>
      <trkpt lat="41.2645580" lon="-8.7261450">
        <ele>6.9</ele>
        <time>2021-05-16T08:42:29Z</time>
      </trkpt>
      <trkpt lat="41.2645700" lon="-8.7261550">
        <ele>6.9</ele>
        <time>2021-05-16T08:42:30Z</time>
      </trkpt>
      <trkpt lat="41.2645830" lon="-8.7261700">
        <ele>6.9</ele>
        <time>2021-05-16T08:42:31Z</time>
      </trkpt>
      <trkpt lat="41.2645950" lon="-8.7261820">
        <ele>6.9</ele>
        <time>2021-05-16T08:42:32Z</time>
      </trkpt>
      <trkpt lat="41.2646070" lon="-8.7261920">
        <ele>6.9</ele>
        <time>2021-05-16T08:42:33Z</time>
      </trkpt>
      <trkpt lat="41.2646190" lon="-8.7262040">
        <ele>7.0</ele>
        <time>2021-05-16T08:42:34Z</time>
      </trkpt>
      <trkpt lat="41.2646410" lon="-8.7262120">
        <ele>7.0</ele>
        <time>2021-05-16T08:42:35Z</time>
      </trkpt>
      <trkpt lat="41.2646480" lon="-8.7262160">
        <ele>7.0</ele>
        <time>2021-05-16T08:42:36Z</time>
      </trkpt>
      <trkpt lat="41.2646560" lon="-8.7262210">
        <ele>7.0</ele>
        <time>2021-05-16T08:42:37Z</time>
      </trkpt>
      <trkpt lat="41.2646700" lon="-8.7262250">
        <ele>7.0</ele>
        <time>2021-05-16T08:42:38Z</time>
      </trkpt>
      <trkpt lat="41.2646810" lon="-8.7262390">
        <ele>7.0</ele>
        <time>2021-05-16T08:42:39Z</time>
      </trkpt>
      <trkpt lat="41.2647020" lon="-8.7262390">
        <ele>7.1</ele>
        <time>2021-05-16T08:42:40Z</time>
      </trkpt>
      <trkpt lat="41.2647100" lon="-8.7262440">
        <ele>7.1</ele>
        <time>2021-05-16T08:42:41Z</time>
      </trkpt>
      <trkpt lat="41.2647170" lon="-8.7262480">
        <ele>7.1</ele>
        <time>2021-05-16T08:42:42Z</time>
      </trkpt>
      <trkpt lat="41.2647310" lon="-8.7262550">
        <ele>7.1</ele>
        <time>2021-05-16T08:42:43Z</time>
      </trkpt>
      <trkpt lat="41.2647460" lon="-8.7262590">
        <ele>7.1</ele>
        <time>2021-05-16T08:42:44Z</time>
      </trkpt>
      <trkpt lat="41.2647610" lon="-8.7262690">
        <ele>7.1</ele>
        <time>2021-05-16T08:42:45Z</time>
      </trkpt>
      <trkpt lat="41.2647750" lon="-8.7262800">
        <ele>7.2</ele>
        <time>2021-05-16T08:42:46Z</time>
      </trkpt>
      <trkpt lat="41.2647850" lon="-8.7262920">
        <ele>7.2</ele>
        <time>2021-05-16T08:42:47Z</time>
      </trkpt>
      <trkpt lat="41.2647970" lon="-8.7263020">
        <ele>7.2</ele>
        <time>2021-05-16T08:42:48Z</time>
      </trkpt>
      <trkpt lat="41.2648110" lon="-8.7263090">
        <ele>7.2</ele>
        <time>2021-05-16T08:42:49Z</time>
      </trkpt>
      <trkpt lat="41.2648230" lon="-8.7263130">
        <ele>7.2</ele>
        <time>2021-05-16T08:42:50Z</time>
      </trkpt>
      <trkpt lat="41.2648350" lon="-8.7263240">
        <ele>7.2</ele>
        <time>2021-05-16T08:42:51Z</time>
      </trkpt>
      <trkpt lat="41.2648470" lon="-8.7263380">
        <ele>7.2</ele>
        <time>2021-05-16T08:42:52Z</time>
      </trkpt>
      <trkpt lat="41.2648610" lon="-8.7263510">
        <ele>7.2</ele>
        <time>2021-05-16T08:42:53Z</time>
      </trkpt>
      <trkpt lat="41.2648690" lon="-8.7263630">
        <ele>7.2</ele>
        <time>2021-05-16T08:42:54Z</time>
      </trkpt>
      <trkpt lat="41.2648790" lon="-8.7263760">
        <ele>7.3</ele>
        <time>2021-05-16T08:42:55Z</time>
      </trkpt>
      <trkpt lat="41.2648910" lon="-8.7263850">
        <ele>7.3</ele>
        <time>2021-05-16T08:42:56Z</time>
      </trkpt>
      <trkpt lat="41.2649130" lon="-8.7263980">
        <ele>7.3</ele>
        <time>2021-05-16T08:42:57Z</time>
      </trkpt>
      <trkpt lat="41.2649200" lon="-8.7264050">
        <ele>7.3</ele>
        <time>2021-05-16T08:42:58Z</time>
      </trkpt>
      <trkpt lat="41.2649260" lon="-8.7264120">
        <ele>7.3</ele>
        <time>2021-05-16T08:42:59Z</time>
      </trkpt>
      <trkpt lat="41.2649360" lon="-8.7264200">
        <ele>7.3</ele>
        <time>2021-05-16T08:43:00Z</time>
      </trkpt>
      <trkpt lat="41.2649420" lon="-8.7264320">
        <ele>7.3</ele>
        <time>2021-05-16T08:43:01Z</time>
      </trkpt>
      <trkpt lat="41.2649440" lon="-8.7264330">
        <ele>7.3</ele>
        <time>2021-05-16T08:43:02Z</time>
      </trkpt>
      <trkpt lat="41.2649500" lon="-8.7264400">
        <ele>7.3</ele>
        <time>2021-05-16T08:43:03Z</time>
      </trkpt>
      <trkpt lat="41.2649570" lon="-8.7264480">
        <ele>7.3</ele>
        <time>2021-05-16T08:43:04Z</time>
      </trkpt>
      <trkpt lat="41.2649640" lon="-8.7264450">
        <ele>7.3</ele>
        <time>2021-05-16T08:43:05Z</time>
      </trkpt>
      <trkpt lat="41.2649780" lon="-8.7264470">
        <ele>7.4</ele>
        <time>2021-05-16T08:43:06Z</time>
      </trkpt>
      <trkpt lat="41.2649950" lon="-8.7264510">
        <ele>7.4</ele>
        <time>2021-05-16T08:43:07Z</time>
      </trkpt>
      <trkpt lat="41.2650020" lon="-8.7264560">
        <ele>7.4</ele>
        <time>2021-05-16T08:43:08Z</time>
      </trkpt>
      <trkpt lat="41.2650090" lon="-8.7264530">
        <ele>7.4</ele>
        <time>2021-05-16T08:43:09Z</time>
      </trkpt>
      <trkpt lat="41.2650210" lon="-8.7264540">
        <ele>7.4</ele>
        <time>2021-05-16T08:43:10Z</time>
      </trkpt>
      <trkpt lat="41.2650230" lon="-8.7264630">
        <ele>7.4</ele>
        <time>2021-05-16T08:43:11Z</time>
      </trkpt>
      <trkpt lat="41.2650260" lon="-8.7264660">
        <ele>7.4</ele>
        <time>2021-05-16T08:43:12Z</time>
      </trkpt>
      <trkpt lat="41.2650370" lon="-8.7264790">
        <ele>7.4</ele>
        <time>2021-05-16T08:43:13Z</time>
      </trkpt>
      <trkpt lat="41.2650580" lon="-8.7264910">
        <ele>7.5</ele>
        <time>2021-05-16T08:43:14Z</time>
      </trkpt>
      <trkpt lat="41.2650660" lon="-8.7264940">
        <ele>7.5</ele>
        <time>2021-05-16T08:43:15Z</time>
      </trkpt>
      <trkpt lat="41.2650730" lon="-8.7264980">
        <ele>7.5</ele>
        <time>2021-05-16T08:43:16Z</time>
      </trkpt>
      <trkpt lat="41.2650870" lon="-8.7265040">
        <ele>7.5</ele>
        <time>2021-05-16T08:43:17Z</time>
      </trkpt>
      <trkpt lat="41.2651010" lon="-8.7265160">
        <ele>7.5</ele>
        <time>2021-05-16T08:43:18Z</time>
      </trkpt>
      <trkpt lat="41.2651130" lon="-8.7265280">
        <ele>7.6</ele>
        <time>2021-05-16T08:43:19Z</time>
      </trkpt>
      <trkpt lat="41.2651200" lon="-8.7265360">
        <ele>7.6</ele>
        <time>2021-05-16T08:43:20Z</time>
      </trkpt>
      <trkpt lat="41.2651330" lon="-8.7265360">
        <ele>7.6</ele>
        <time>2021-05-16T08:43:21Z</time>
      </trkpt>
      <trkpt lat="41.2651530" lon="-8.7265360">
        <ele>7.6</ele>
        <time>2021-05-16T08:43:22Z</time>
      </trkpt>
      <trkpt lat="41.2651620" lon="-8.7265380">
        <ele>7.6</ele>
        <time>2021-05-16T08:43:23Z</time>
      </trkpt>
      <trkpt lat="41.2651700" lon="-8.7265390">
        <ele>7.6</ele>
        <time>2021-05-16T08:43:24Z</time>
      </trkpt>
      <trkpt lat="41.2651840" lon="-8.7265370">
        <ele>7.7</ele>
        <time>2021-05-16T08:43:25Z</time>
      </trkpt>
      <trkpt lat="41.2652030" lon="-8.7265390">
        <ele>7.7</ele>
        <time>2021-05-16T08:43:26Z</time>
      </trkpt>
      <trkpt lat="41.2652250" lon="-8.7265350">
        <ele>7.7</ele>
        <time>2021-05-16T08:43:27Z</time>
      </trkpt>
      <trkpt lat="41.2652390" lon="-8.7265450">
        <ele>7.7</ele>
        <time>2021-05-16T08:43:28Z</time>
      </trkpt>
      <trkpt lat="41.2652650" lon="-8.7265580">
        <ele>7.8</ele>
        <time>2021-05-16T08:43:29Z</time>
      </trkpt>
      <trkpt lat="41.2652740" lon="-8.7265620">
        <ele>7.8</ele>
        <time>2021-05-16T08:43:30Z</time>
      </trkpt>
      <trkpt lat="41.2652870" lon="-8.7265760">
        <ele>7.8</ele>
        <time>2021-05-16T08:43:31Z</time>
      </trkpt>
      <trkpt lat="41.2653000" lon="-8.7265910">
        <ele>7.8</ele>
        <time>2021-05-16T08:43:32Z</time>
      </trkpt>
      <trkpt lat="41.2653100" lon="-8.7266050">
        <ele>7.8</ele>
        <time>2021-05-16T08:43:33Z</time>
      </trkpt>
      <trkpt lat="41.2653230" lon="-8.7266150">
        <ele>7.9</ele>
        <time>2021-05-16T08:43:34Z</time>
      </trkpt>
      <trkpt lat="41.2653390" lon="-8.7266290">
        <ele>7.9</ele>
        <time>2021-05-16T08:43:35Z</time>
      </trkpt>
      <trkpt lat="41.2653540" lon="-8.7266400">
        <ele>7.9</ele>
        <time>2021-05-16T08:43:36Z</time>
      </trkpt>
      <trkpt lat="41.2653710" lon="-8.7266480">
        <ele>8.0</ele>
        <time>2021-05-16T08:43:37Z</time>
      </trkpt>
      <trkpt lat="41.2653810" lon="-8.7266660">
        <ele>8.0</ele>
        <time>2021-05-16T08:43:38Z</time>
      </trkpt>
      <trkpt lat="41.2653910" lon="-8.7266810">
        <ele>8.0</ele>
        <time>2021-05-16T08:43:39Z</time>
      </trkpt>
      <trkpt lat="41.2654050" lon="-8.7266950">
        <ele>8.0</ele>
        <time>2021-05-16T08:43:40Z</time>
      </trkpt>
      <trkpt lat="41.2654150" lon="-8.7267100">
        <ele>8.1</ele>
        <time>2021-05-16T08:43:41Z</time>
      </trkpt>
      <trkpt lat="41.2654320" lon="-8.7267160">
        <ele>8.1</ele>
        <time>2021-05-16T08:43:42Z</time>
      </trkpt>
      <trkpt lat="41.2654480" lon="-8.7267270">
        <ele>8.2</ele>
        <time>2021-05-16T08:43:43Z</time>
      </trkpt>
      <trkpt lat="41.2654640" lon="-8.7267320">
        <ele>8.2</ele>
        <time>2021-05-16T08:43:44Z</time>
      </trkpt>
      <trkpt lat="41.2654780" lon="-8.7267400">
        <ele>8.2</ele>
        <time>2021-05-16T08:43:45Z</time>
      </trkpt>
      <trkpt lat="41.2654920" lon="-8.7267480">
        <ele>8.3</ele>
        <time>2021-05-16T08:43:46Z</time>
      </trkpt>
      <trkpt lat="41.2655000" lon="-8.7267620">
        <ele>8.3</ele>
        <time>2021-05-16T08:43:47Z</time>
      </trkpt>
      <trkpt lat="41.2655150" lon="-8.7267700">
        <ele>8.3</ele>
        <time>2021-05-16T08:43:48Z</time>
      </trkpt>
      <trkpt lat="41.2655320" lon="-8.7267790">
        <ele>8.4</ele>
        <time>2021-05-16T08:43:49Z</time>
      </trkpt>
      <trkpt lat="41.2655440" lon="-8.7267900">
        <ele>8.4</ele>
        <time>2021-05-16T08:43:50Z</time>
      </trkpt>
      <trkpt lat="41.2655570" lon="-8.7268000">
        <ele>8.5</ele>
        <time>2021-05-16T08:43:51Z</time>
      </trkpt>
      <trkpt lat="41.2655740" lon="-8.7268070">
        <ele>8.5</ele>
        <time>2021-05-16T08:43:52Z</time>
      </trkpt>
      <trkpt lat="41.2655920" lon="-8.7268120">
        <ele>8.5</ele>
        <time>2021-05-16T08:43:53Z</time>
      </trkpt>
      <trkpt lat="41.2656050" lon="-8.7268200">
        <ele>8.6</ele>
        <time>2021-05-16T08:43:54Z</time>
      </trkpt>
      <trkpt lat="41.2656240" lon="-8.7268250">
        <ele>8.6</ele>
        <time>2021-05-16T08:43:55Z</time>
      </trkpt>
      <trkpt lat="41.2656380" lon="-8.7268310">
        <ele>8.7</ele>
        <time>2021-05-16T08:43:56Z</time>
      </trkpt>
      <trkpt lat="41.2656580" lon="-8.7268310">
        <ele>8.7</ele>
        <time>2021-05-16T08:43:57Z</time>
      </trkpt>
      <trkpt lat="41.2656720" lon="-8.7268370">
        <ele>8.7</ele>
        <time>2021-05-16T08:43:58Z</time>
      </trkpt>
      <trkpt lat="41.2656850" lon="-8.7268430">
        <ele>8.8</ele>
        <time>2021-05-16T08:43:59Z</time>
      </trkpt>
      <trkpt lat="41.2657010" lon="-8.7268480">
        <ele>8.8</ele>
        <time>2021-05-16T08:44:00Z</time>
      </trkpt>
      <trkpt lat="41.2657200" lon="-8.7268600">
        <ele>8.9</ele>
        <time>2021-05-16T08:44:01Z</time>
      </trkpt>
      <trkpt lat="41.2657290" lon="-8.7268640">
        <ele>8.9</ele>
        <time>2021-05-16T08:44:02Z</time>
      </trkpt>
      <trkpt lat="41.2657370" lon="-8.7268670">
        <ele>8.9</ele>
        <time>2021-05-16T08:44:03Z</time>
      </trkpt>
      <trkpt lat="41.2657470" lon="-8.7268660">
        <ele>8.9</ele>
        <time>2021-05-16T08:44:04Z</time>
      </trkpt>
      <trkpt lat="41.2657570" lon="-8.7268600">
        <ele>8.9</ele>
        <time>2021-05-16T08:44:05Z</time>
      </trkpt>
      <trkpt lat="41.2657700" lon="-8.7268580">
        <ele>9.0</ele>
        <time>2021-05-16T08:44:06Z</time>
      </trkpt>
      <trkpt lat="41.2657730" lon="-8.7268550">
        <ele>9.0</ele>
        <time>2021-05-16T08:44:07Z</time>
      </trkpt>
      <trkpt lat="41.2657900" lon="-8.7268550">
        <ele>9.0</ele>
        <time>2021-05-16T08:44:08Z</time>
      </trkpt>
      <trkpt lat="41.2657980" lon="-8.7268510">
        <ele>9.0</ele>
        <time>2021-05-16T08:44:09Z</time>
      </trkpt>
      <trkpt lat="41.2658120" lon="-8.7268550">
        <ele>9.1</ele>
        <time>2021-05-16T08:44:10Z</time>
      </trkpt>
      <trkpt lat="41.2658250" lon="-8.7268490">
        <ele>9.1</ele>
        <time>2021-05-16T08:44:11Z</time>
      </trkpt>
      <trkpt lat="41.2658410" lon="-8.7268540">
        <ele>9.1</ele>
        <time>2021-05-16T08:44:12Z</time>
      </trkpt>
      <trkpt lat="41.2658470" lon="-8.7268560">
        <ele>9.1</ele>
        <time>2021-05-16T08:44:13Z</time>
      </trkpt>
      <trkpt lat="41.2658580" lon="-8.7268640">
        <ele>9.2</ele>
        <time>2021-05-16T08:44:14Z</time>
      </trkpt>
      <trkpt lat="41.2658710" lon="-8.7268680">
        <ele>9.2</ele>
        <time>2021-05-16T08:44:15Z</time>
      </trkpt>
      <trkpt lat="41.2658800" lon="-8.7268690">
        <ele>9.2</ele>
        <time>2021-05-16T08:44:16Z</time>
      </trkpt>
      <trkpt lat="41.2658900" lon="-8.7268710">
        <ele>9.2</ele>
        <time>2021-05-16T08:44:17Z</time>
      </trkpt>
      <trkpt lat="41.2658990" lon="-8.7268730">
        <ele>9.2</ele>
        <time>2021-05-16T08:44:18Z</time>
      </trkpt>
      <trkpt lat="41.2659140" lon="-8.7268790">
        <ele>9.3</ele>
        <time>2021-05-16T08:44:19Z</time>
      </trkpt>
      <trkpt lat="41.2659340" lon="-8.7268810">
        <ele>9.3</ele>
        <time>2021-05-16T08:44:20Z</time>
      </trkpt>
      <trkpt lat="41.2659480" lon="-8.7268760">
        <ele>9.3</ele>
        <time>2021-05-16T08:44:21Z</time>
      </trkpt>
      <trkpt lat="41.2659650" lon="-8.7268710">
        <ele>9.4</ele>
        <time>2021-05-16T08:44:22Z</time>
      </trkpt>
      <trkpt lat="41.2659820" lon="-8.7268670">
        <ele>9.4</ele>
        <time>2021-05-16T08:44:23Z</time>
      </trkpt>
      <trkpt lat="41.2659970" lon="-8.7268650">
        <ele>9.4</ele>
        <time>2021-05-16T08:44:24Z</time>
      </trkpt>
      <trkpt lat="41.2660120" lon="-8.7268660">
        <ele>9.5</ele>
        <time>2021-05-16T08:44:25Z</time>
      </trkpt>
      <trkpt lat="41.2660270" lon="-8.7268630">
        <ele>9.5</ele>
        <time>2021-05-16T08:44:26Z</time>
      </trkpt>
      <trkpt lat="41.2660440" lon="-8.7268580">
        <ele>9.5</ele>
        <time>2021-05-16T08:44:27Z</time>
      </trkpt>
      <trkpt lat="41.2660590" lon="-8.7268540">
        <ele>9.6</ele>
        <time>2021-05-16T08:44:28Z</time>
      </trkpt>
      <trkpt lat="41.2660720" lon="-8.7268490">
        <ele>9.6</ele>
        <time>2021-05-16T08:44:29Z</time>
      </trkpt>
      <trkpt lat="41.2660870" lon="-8.7268410">
        <ele>9.6</ele>
        <time>2021-05-16T08:44:30Z</time>
      </trkpt>
      <trkpt lat="41.2661020" lon="-8.7268380">
        <ele>9.7</ele>
        <time>2021-05-16T08:44:31Z</time>
      </trkpt>
      <trkpt lat="41.2661160" lon="-8.7268390">
        <ele>9.7</ele>
        <time>2021-05-16T08:44:32Z</time>
      </trkpt>
      <trkpt lat="41.2661300" lon="-8.7268400">
        <ele>9.7</ele>
        <time>2021-05-16T08:44:33Z</time>
      </trkpt>
      <trkpt lat="41.2661450" lon="-8.7268390">
        <ele>9.7</ele>
        <time>2021-05-16T08:44:34Z</time>
      </trkpt>
      <trkpt lat="41.2661620" lon="-8.7268330">
        <ele>9.8</ele>
        <time>2021-05-16T08:44:35Z</time>
      </trkpt>
      <trkpt lat="41.2661740" lon="-8.7268300">
        <ele>9.8</ele>
        <time>2021-05-16T08:44:36Z</time>
      </trkpt>
      <trkpt lat="41.2661910" lon="-8.7268270">
        <ele>9.8</ele>
        <time>2021-05-16T08:44:37Z</time>
      </trkpt>
      <trkpt lat="41.2662020" lon="-8.7268260">
        <ele>9.8</ele>
        <time>2021-05-16T08:44:38Z</time>
      </trkpt>
      <trkpt lat="41.2662190" lon="-8.7268280">
        <ele>9.9</ele>
        <time>2021-05-16T08:44:39Z</time>
      </trkpt>
      <trkpt lat="41.2662340" lon="-8.7268310">
        <ele>9.9</ele>
        <time>2021-05-16T08:44:40Z</time>
      </trkpt>
      <trkpt lat="41.2662580" lon="-8.7268260">
        <ele>9.9</ele>
        <time>2021-05-16T08:44:41Z</time>
      </trkpt>
      <trkpt lat="41.2662680" lon="-8.7268240">
        <ele>10.0</ele>
        <time>2021-05-16T08:44:42Z</time>
      </trkpt>
      <trkpt lat="41.2662770" lon="-8.7268210">
        <ele>10.0</ele>
        <time>2021-05-16T08:44:43Z</time>
      </trkpt>
      <trkpt lat="41.2662900" lon="-8.7268180">
        <ele>10.0</ele>
        <time>2021-05-16T08:44:44Z</time>
      </trkpt>
      <trkpt lat="41.2663040" lon="-8.7268180">
        <ele>10.0</ele>
        <time>2021-05-16T08:44:45Z</time>
      </trkpt>
      <trkpt lat="41.2663260" lon="-8.7268060">
        <ele>10.1</ele>
        <time>2021-05-16T08:44:46Z</time>
      </trkpt>
      <trkpt lat="41.2663340" lon="-8.7267990">
        <ele>10.1</ele>
        <time>2021-05-16T08:44:47Z</time>
      </trkpt>
      <trkpt lat="41.2663420" lon="-8.7267920">
        <ele>10.1</ele>
        <time>2021-05-16T08:44:48Z</time>
      </trkpt>
      <trkpt lat="41.2663580" lon="-8.7267940">
        <ele>10.1</ele>
        <time>2021-05-16T08:44:49Z</time>
      </trkpt>
      <trkpt lat="41.2663690" lon="-8.7267910">
        <ele>10.1</ele>
        <time>2021-05-16T08:44:50Z</time>
      </trkpt>
      <trkpt lat="41.2663820" lon="-8.7267900">
        <ele>10.1</ele>
        <time>2021-05-16T08:44:51Z</time>
      </trkpt>
      <trkpt lat="41.2663970" lon="-8.7267840">
        <ele>10.1</ele>
        <time>2021-05-16T08:44:52Z</time>
      </trkpt>
      <trkpt lat="41.2664120" lon="-8.7267830">
        <ele>10.1</ele>
        <time>2021-05-16T08:44:53Z</time>
      </trkpt>
      <trkpt lat="41.2664280" lon="-8.7267830">
        <ele>10.1</ele>
        <time>2021-05-16T08:44:54Z</time>
      </trkpt>
      <trkpt lat="41.2664420" lon="-8.7267880">
        <ele>10.1</ele>
        <time>2021-05-16T08:44:55Z</time>
      </trkpt>
      <trkpt lat="41.2664560" lon="-8.7267870">
        <ele>10.2</ele>
        <time>2021-05-16T08:44:56Z</time>
      </trkpt>
      <trkpt lat="41.2664690" lon="-8.7267810">
        <ele>10.2</ele>
        <time>2021-05-16T08:44:57Z</time>
      </trkpt>
      <trkpt lat="41.2664820" lon="-8.7267770">
        <ele>10.2</ele>
        <time>2021-05-16T08:44:58Z</time>
      </trkpt>
      <trkpt lat="41.2664920" lon="-8.7267830">
        <ele>10.2</ele>
        <time>2021-05-16T08:44:59Z</time>
      </trkpt>
      <trkpt lat="41.2665140" lon="-8.7267780">
        <ele>10.2</ele>
        <time>2021-05-16T08:45:00Z</time>
      </trkpt>
      <trkpt lat="41.2665230" lon="-8.7267770">
        <ele>10.2</ele>
        <time>2021-05-16T08:45:01Z</time>
      </trkpt>
      <trkpt lat="41.2665310" lon="-8.7267750">
        <ele>10.2</ele>
        <time>2021-05-16T08:45:02Z</time>
      </trkpt>
      <trkpt lat="41.2665430" lon="-8.7267770">
        <ele>10.2</ele>
        <time>2021-05-16T08:45:03Z</time>
      </trkpt>
      <trkpt lat="41.2665590" lon="-8.7267690">
        <ele>10.3</ele>
        <time>2021-05-16T08:45:04Z</time>
      </trkpt>
      <trkpt lat="41.2665730" lon="-8.7267700">
        <ele>10.3</ele>
        <time>2021-05-16T08:45:05Z</time>
      </trkpt>
      <trkpt lat="41.2665870" lon="-8.7267690">
        <ele>10.3</ele>
        <time>2021-05-16T08:45:06Z</time>
      </trkpt>
      <trkpt lat="41.2666010" lon="-8.7267650">
        <ele>10.3</ele>
        <time>2021-05-16T08:45:07Z</time>
      </trkpt>
      <trkpt lat="41.2666150" lon="-8.7267670">
        <ele>10.3</ele>
        <time>2021-05-16T08:45:08Z</time>
      </trkpt>
      <trkpt lat="41.2666280" lon="-8.7267610">
        <ele>10.3</ele>
        <time>2021-05-16T08:45:09Z</time>
      </trkpt>
      <trkpt lat="41.2666430" lon="-8.7267550">
        <ele>10.4</ele>
        <time>2021-05-16T08:45:10Z</time>
      </trkpt>
      <trkpt lat="41.2666580" lon="-8.7267540">
        <ele>10.4</ele>
        <time>2021-05-16T08:45:11Z</time>
      </trkpt>
      <trkpt lat="41.2666720" lon="-8.7267560">
        <ele>10.4</ele>
        <time>2021-05-16T08:45:12Z</time>
      </trkpt>
      <trkpt lat="41.2666840" lon="-8.7267520">
        <ele>10.4</ele>
        <time>2021-05-16T08:45:13Z</time>
      </trkpt>
      <trkpt lat="41.2667010" lon="-8.7267460">
        <ele>10.4</ele>
        <time>2021-05-16T08:45:14Z</time>
      </trkpt>
      <trkpt lat="41.2667170" lon="-8.7267490">
        <ele>10.4</ele>
        <time>2021-05-16T08:45:15Z</time>
      </trkpt>
      <trkpt lat="41.2667330" lon="-8.7267510">
        <ele>10.4</ele>
        <time>2021-05-16T08:45:16Z</time>
      </trkpt>
      <trkpt lat="41.2667480" lon="-8.7267530">
        <ele>10.4</ele>
        <time>2021-05-16T08:45:17Z</time>
      </trkpt>
      <trkpt lat="41.2667620" lon="-8.7267500">
        <ele>10.5</ele>
        <time>2021-05-16T08:45:18Z</time>
      </trkpt>
      <trkpt lat="41.2667750" lon="-8.7267470">
        <ele>10.5</ele>
        <time>2021-05-16T08:45:19Z</time>
      </trkpt>
      <trkpt lat="41.2667930" lon="-8.7267440">
        <ele>10.5</ele>
        <time>2021-05-16T08:45:20Z</time>
      </trkpt>
      <trkpt lat="41.2668140" lon="-8.7267420">
        <ele>10.5</ele>
        <time>2021-05-16T08:45:21Z</time>
      </trkpt>
      <trkpt lat="41.2668240" lon="-8.7267390">
        <ele>10.5</ele>
        <time>2021-05-16T08:45:22Z</time>
      </trkpt>
      <trkpt lat="41.2668330" lon="-8.7267370">
        <ele>10.5</ele>
        <time>2021-05-16T08:45:23Z</time>
      </trkpt>
      <trkpt lat="41.2668450" lon="-8.7267300">
        <ele>10.5</ele>
        <time>2021-05-16T08:45:24Z</time>
      </trkpt>
      <trkpt lat="41.2668620" lon="-8.7267270">
        <ele>10.5</ele>
        <time>2021-05-16T08:45:25Z</time>
      </trkpt>
      <trkpt lat="41.2668830" lon="-8.7267200">
        <ele>10.5</ele>
        <time>2021-05-16T08:45:26Z</time>
      </trkpt>
      <trkpt lat="41.2668930" lon="-8.7267170">
        <ele>10.5</ele>
        <time>2021-05-16T08:45:27Z</time>
      </trkpt>
      <trkpt lat="41.2669020" lon="-8.7267150">
        <ele>10.5</ele>
        <time>2021-05-16T08:45:28Z</time>
      </trkpt>
      <trkpt lat="41.2669220" lon="-8.7267110">
        <ele>10.5</ele>
        <time>2021-05-16T08:45:29Z</time>
      </trkpt>
      <trkpt lat="41.2669310" lon="-8.7267110">
        <ele>10.5</ele>
        <time>2021-05-16T08:45:30Z</time>
      </trkpt>
      <trkpt lat="41.2669390" lon="-8.7267100">
        <ele>10.5</ele>
        <time>2021-05-16T08:45:31Z</time>
      </trkpt>
      <trkpt lat="41.2669550" lon="-8.7267040">
        <ele>10.5</ele>
        <time>2021-05-16T08:45:32Z</time>
      </trkpt>
      <trkpt lat="41.2669660" lon="-8.7267030">
        <ele>10.5</ele>
        <time>2021-05-16T08:45:33Z</time>
      </trkpt>
      <trkpt lat="41.2669880" lon="-8.7266980">
        <ele>10.5</ele>
        <time>2021-05-16T08:45:34Z</time>
      </trkpt>
      <trkpt lat="41.2669970" lon="-8.7266970">
        <ele>10.5</ele>
        <time>2021-05-16T08:45:35Z</time>
      </trkpt>
      <trkpt lat="41.2670060" lon="-8.7266950">
        <ele>10.5</ele>
        <time>2021-05-16T08:45:36Z</time>
      </trkpt>
      <trkpt lat="41.2670180" lon="-8.7266940">
        <ele>10.5</ele>
        <time>2021-05-16T08:45:37Z</time>
      </trkpt>
      <trkpt lat="41.2670290" lon="-8.7266970">
        <ele>10.5</ele>
        <time>2021-05-16T08:45:38Z</time>
      </trkpt>
      <trkpt lat="41.2670400" lon="-8.7266940">
        <ele>10.5</ele>
        <time>2021-05-16T08:45:39Z</time>
      </trkpt>
      <trkpt lat="41.2670610" lon="-8.7266910">
        <ele>10.5</ele>
        <time>2021-05-16T08:45:40Z</time>
      </trkpt>
      <trkpt lat="41.2670700" lon="-8.7266880">
        <ele>10.6</ele>
        <time>2021-05-16T08:45:41Z</time>
      </trkpt>
      <trkpt lat="41.2670790" lon="-8.7266850">
        <ele>10.6</ele>
        <time>2021-05-16T08:45:42Z</time>
      </trkpt>
      <trkpt lat="41.2670920" lon="-8.7266820">
        <ele>10.6</ele>
        <time>2021-05-16T08:45:43Z</time>
      </trkpt>
      <trkpt lat="41.2671070" lon="-8.7266880">
        <ele>10.6</ele>
        <time>2021-05-16T08:45:44Z</time>
      </trkpt>
      <trkpt lat="41.2671200" lon="-8.7266950">
        <ele>10.6</ele>
        <time>2021-05-16T08:45:45Z</time>
      </trkpt>
      <trkpt lat="41.2671350" lon="-8.7266940">
        <ele>10.6</ele>
        <time>2021-05-16T08:45:46Z</time>
      </trkpt>
      <trkpt lat="41.2671490" lon="-8.7266890">
        <ele>10.6</ele>
        <time>2021-05-16T08:45:47Z</time>
      </trkpt>
      <trkpt lat="41.2671630" lon="-8.7266900">
        <ele>10.6</ele>
        <time>2021-05-16T08:45:48Z</time>
      </trkpt>
      <trkpt lat="41.2671790" lon="-8.7266880">
        <ele>10.6</ele>
        <time>2021-05-16T08:45:49Z</time>
      </trkpt>
      <trkpt lat="41.2671910" lon="-8.7266890">
        <ele>10.6</ele>
        <time>2021-05-16T08:45:50Z</time>
      </trkpt>
      <trkpt lat="41.2672050" lon="-8.7266870">
        <ele>10.6</ele>
        <time>2021-05-16T08:45:51Z</time>
      </trkpt>
      <trkpt lat="41.2672190" lon="-8.7266870">
        <ele>10.6</ele>
        <time>2021-05-16T08:45:52Z</time>
      </trkpt>
      <trkpt lat="41.2672300" lon="-8.7266800">
        <ele>10.6</ele>
        <time>2021-05-16T08:45:53Z</time>
      </trkpt>
      <trkpt lat="41.2672440" lon="-8.7266830">
        <ele>10.6</ele>
        <time>2021-05-16T08:45:54Z</time>
      </trkpt>
      <trkpt lat="41.2672470" lon="-8.7267060">
        <ele>10.6</ele>
        <time>2021-05-16T08:45:55Z</time>
      </trkpt>
      <trkpt lat="41.2672450" lon="-8.7267240">
        <ele>10.6</ele>
        <time>2021-05-16T08:45:56Z</time>
      </trkpt>
      <trkpt lat="41.2672410" lon="-8.7267420">
        <ele>10.6</ele>
        <time>2021-05-16T08:45:57Z</time>
      </trkpt>
      <trkpt lat="41.2672460" lon="-8.7267670">
        <ele>10.6</ele>
        <time>2021-05-16T08:45:58Z</time>
      </trkpt>
      <trkpt lat="41.2672510" lon="-8.7267810">
        <ele>10.6</ele>
        <time>2021-05-16T08:45:59Z</time>
      </trkpt>
      <trkpt lat="41.2672570" lon="-8.7267920">
        <ele>10.6</ele>
        <time>2021-05-16T08:46:00Z</time>
      </trkpt>
      <trkpt lat="41.2672640" lon="-8.7267990">
        <ele>10.6</ele>
        <time>2021-05-16T08:46:01Z</time>
      </trkpt>
      <trkpt lat="41.2672710" lon="-8.7268060">
        <ele>10.6</ele>
        <time>2021-05-16T08:46:02Z</time>
      </trkpt>
      <trkpt lat="41.2672780" lon="-8.7268130">
        <ele>10.6</ele>
        <time>2021-05-16T08:46:03Z</time>
      </trkpt>
      <trkpt lat="41.2672740" lon="-8.7268080">
        <ele>10.6</ele>
        <time>2021-05-16T08:46:04Z</time>
      </trkpt>
      <trkpt lat="41.2672760" lon="-8.7268080">
        <ele>10.6</ele>
        <time>2021-05-16T08:46:05Z</time>
      </trkpt>
      <trkpt lat="41.2672770" lon="-8.7268070">
        <ele>10.7</ele>
        <time>2021-05-16T08:46:06Z</time>
      </trkpt>
      <trkpt lat="41.2672790" lon="-8.7268070">
        <ele>10.7</ele>
        <time>2021-05-16T08:46:07Z</time>
      </trkpt>
      <trkpt lat="41.2672810" lon="-8.7268060">
        <ele>10.7</ele>
        <time>2021-05-16T08:46:08Z</time>
      </trkpt>
      <trkpt lat="41.2672830" lon="-8.7268050">
        <ele>10.7</ele>
        <time>2021-05-16T08:46:09Z</time>
      </trkpt>
      <trkpt lat="41.2672840" lon="-8.7268050">
        <ele>10.7</ele>
        <time>2021-05-16T08:46:10Z</time>
      </trkpt>
      <trkpt lat="41.2672860" lon="-8.7268040">
        <ele>10.7</ele>
        <time>2021-05-16T08:46:11Z</time>
      </trkpt>
      <trkpt lat="41.2672880" lon="-8.7268030">
        <ele>10.7</ele>
        <time>2021-05-16T08:46:12Z</time>
      </trkpt>
      <trkpt lat="41.2672900" lon="-8.7268030">
        <ele>10.7</ele>
        <time>2021-05-16T08:46:13Z</time>
      </trkpt>
      <trkpt lat="41.2672910" lon="-8.7268020">
        <ele>10.7</ele>
        <time>2021-05-16T08:46:14Z</time>
      </trkpt>
      <trkpt lat="41.2672930" lon="-8.7268020">
        <ele>10.7</ele>
        <time>2021-05-16T08:46:15Z</time>
      </trkpt>
      <trkpt lat="41.2672950" lon="-8.7268010">
        <ele>10.7</ele>
        <time>2021-05-16T08:46:16Z</time>
      </trkpt>
      <trkpt lat="41.2672970" lon="-8.7268000">
        <ele>10.7</ele>
        <time>2021-05-16T08:46:17Z</time>
      </trkpt>
      <trkpt lat="41.2672980" lon="-8.7268000">
        <ele>10.7</ele>
        <time>2021-05-16T08:46:18Z</time>
      </trkpt>
      <trkpt lat="41.2673000" lon="-8.7267990">
        <ele>10.7</ele>
        <time>2021-05-16T08:46:19Z</time>
      </trkpt>
      <trkpt lat="41.2673020" lon="-8.7267980">
        <ele>10.7</ele>
        <time>2021-05-16T08:46:20Z</time>
      </trkpt>
      <trkpt lat="41.2673040" lon="-8.7267980">
        <ele>10.7</ele>
        <time>2021-05-16T08:46:21Z</time>
      </trkpt>
      <trkpt lat="41.2673050" lon="-8.7267970">
        <ele>10.7</ele>
        <time>2021-05-16T08:46:22Z</time>
      </trkpt>
      <trkpt lat="41.2673070" lon="-8.7267970">
        <ele>10.7</ele>
        <time>2021-05-16T08:46:23Z</time>
      </trkpt>
      <trkpt lat="41.2673090" lon="-8.7267960">
        <ele>10.7</ele>
        <time>2021-05-16T08:46:24Z</time>
      </trkpt>
      <trkpt lat="41.2673110" lon="-8.7267950">
        <ele>10.7</ele>
        <time>2021-05-16T08:46:25Z</time>
      </trkpt>
      <trkpt lat="41.2673120" lon="-8.7267950">
        <ele>10.7</ele>
        <time>2021-05-16T08:46:26Z</time>
      </trkpt>
      <trkpt lat="41.2673140" lon="-8.7267940">
        <ele>10.7</ele>
        <time>2021-05-16T08:46:27Z</time>
      </trkpt>
      <trkpt lat="41.2673370" lon="-8.7267850">
        <ele>10.7</ele>
        <time>2021-05-16T08:46:28Z</time>
      </trkpt>
      <trkpt lat="41.2673440" lon="-8.7267820">
        <ele>10.7</ele>
        <time>2021-05-16T08:46:29Z</time>
      </trkpt>
      <trkpt lat="41.2673510" lon="-8.7267800">
        <ele>10.7</ele>
        <time>2021-05-16T08:46:30Z</time>
      </trkpt>
      <trkpt lat="41.2673680" lon="-8.7267770">
        <ele>10.7</ele>
        <time>2021-05-16T08:46:31Z</time>
      </trkpt>
      <trkpt lat="41.2673780" lon="-8.7267660">
        <ele>10.7</ele>
        <time>2021-05-16T08:46:32Z</time>
      </trkpt>
      <trkpt lat="41.2673970" lon="-8.7267660">
        <ele>10.7</ele>
        <time>2021-05-16T08:46:33Z</time>
      </trkpt>
      <trkpt lat="41.2674050" lon="-8.7267620">
        <ele>10.7</ele>
        <time>2021-05-16T08:46:34Z</time>
      </trkpt>
      <trkpt lat="41.2674190" lon="-8.7267550">
        <ele>10.7</ele>
        <time>2021-05-16T08:46:35Z</time>
      </trkpt>
      <trkpt lat="41.2674390" lon="-8.7267560">
        <ele>10.7</ele>
        <time>2021-05-16T08:46:36Z</time>
      </trkpt>
      <trkpt lat="41.2674600" lon="-8.7267580">
        <ele>10.7</ele>
        <time>2021-05-16T08:46:37Z</time>
      </trkpt>
      <trkpt lat="41.2674700" lon="-8.7267570">
        <ele>10.7</ele>
        <time>2021-05-16T08:46:38Z</time>
      </trkpt>
      <trkpt lat="41.2674790" lon="-8.7267570">
        <ele>10.7</ele>
        <time>2021-05-16T08:46:39Z</time>
      </trkpt>
      <trkpt lat="41.2674940" lon="-8.7267540">
        <ele>10.7</ele>
        <time>2021-05-16T08:46:40Z</time>
      </trkpt>
      <trkpt lat="41.2675040" lon="-8.7267540">
        <ele>10.7</ele>
        <time>2021-05-16T08:46:41Z</time>
      </trkpt>
      <trkpt lat="41.2675120" lon="-8.7267550">
        <ele>10.7</ele>
        <time>2021-05-16T08:46:42Z</time>
      </trkpt>
      <trkpt lat="41.2675240" lon="-8.7267550">
        <ele>10.7</ele>
        <time>2021-05-16T08:46:43Z</time>
      </trkpt>
      <trkpt lat="41.2675430" lon="-8.7267530">
        <ele>10.7</ele>
        <time>2021-05-16T08:46:44Z</time>
      </trkpt>
      <trkpt lat="41.2675520" lon="-8.7267530">
        <ele>10.7</ele>
        <time>2021-05-16T08:46:45Z</time>
      </trkpt>
      <trkpt lat="41.2675650" lon="-8.7267530">
        <ele>10.7</ele>
        <time>2021-05-16T08:46:46Z</time>
      </trkpt>
      <trkpt lat="41.2675750" lon="-8.7267520">
        <ele>10.7</ele>
        <time>2021-05-16T08:46:47Z</time>
      </trkpt>
      <trkpt lat="41.2675780" lon="-8.7267560">
        <ele>10.7</ele>
        <time>2021-05-16T08:46:48Z</time>
      </trkpt>
      <trkpt lat="41.2675780" lon="-8.7267560">
        <ele>10.7</ele>
        <time>2021-05-16T08:46:49Z</time>
      </trkpt>
      <trkpt lat="41.2675770" lon="-8.7267590">
        <ele>10.7</ele>
        <time>2021-05-16T08:46:50Z</time>
      </trkpt>
      <trkpt lat="41.2675770" lon="-8.7267600">
        <ele>10.7</ele>
        <time>2021-05-16T08:46:51Z</time>
      </trkpt>
      <trkpt lat="41.2675780" lon="-8.7267610">
        <ele>10.7</ele>
        <time>2021-05-16T08:46:52Z</time>
      </trkpt>
      <trkpt lat="41.2675780" lon="-8.7267630">
        <ele>10.7</ele>
        <time>2021-05-16T08:46:53Z</time>
      </trkpt>
      <trkpt lat="41.2675790" lon="-8.7267630">
        <ele>10.7</ele>
        <time>2021-05-16T08:46:54Z</time>
      </trkpt>
      <trkpt lat="41.2675780" lon="-8.7267610">
        <ele>10.7</ele>
        <time>2021-05-16T08:46:55Z</time>
      </trkpt>
      <trkpt lat="41.2675790" lon="-8.7267580">
        <ele>10.7</ele>
        <time>2021-05-16T08:46:56Z</time>
      </trkpt>
      <trkpt lat="41.2675800" lon="-8.7267550">
        <ele>10.7</ele>
        <time>2021-05-16T08:46:57Z</time>
      </trkpt>
      <trkpt lat="41.2675810" lon="-8.7267480">
        <ele>10.7</ele>
        <time>2021-05-16T08:46:58Z</time>
      </trkpt>
      <trkpt lat="41.2675790" lon="-8.7267380">
        <ele>10.7</ele>
        <time>2021-05-16T08:46:59Z</time>
      </trkpt>
      <trkpt lat="41.2675770" lon="-8.7267230">
        <ele>10.7</ele>
        <time>2021-05-16T08:47:00Z</time>
      </trkpt>
      <trkpt lat="41.2675740" lon="-8.7267070">
        <ele>10.7</ele>
        <time>2021-05-16T08:47:01Z</time>
      </trkpt>
      <trkpt lat="41.2675720" lon="-8.7266900">
        <ele>10.7</ele>
        <time>2021-05-16T08:47:02Z</time>
      </trkpt>
      <trkpt lat="41.2675670" lon="-8.7266700">
        <ele>10.7</ele>
        <time>2021-05-16T08:47:03Z</time>
      </trkpt>
      <trkpt lat="41.2675650" lon="-8.7266390">
        <ele>10.7</ele>
        <time>2021-05-16T08:47:04Z</time>
      </trkpt>
      <trkpt lat="41.2675630" lon="-8.7266270">
        <ele>10.7</ele>
        <time>2021-05-16T08:47:05Z</time>
      </trkpt>
      <trkpt lat="41.2675610" lon="-8.7266140">
        <ele>10.7</ele>
        <time>2021-05-16T08:47:06Z</time>
      </trkpt>
      <trkpt lat="41.2675660" lon="-8.7266030">
        <ele>10.7</ele>
        <time>2021-05-16T08:47:07Z</time>
      </trkpt>
      <trkpt lat="41.2675820" lon="-8.7265880">
        <ele>10.7</ele>
        <time>2021-05-16T08:47:08Z</time>
      </trkpt>
      <trkpt lat="41.2676100" lon="-8.7265980">
        <ele>10.7</ele>
        <time>2021-05-16T08:47:09Z</time>
      </trkpt>
      <trkpt lat="41.2676180" lon="-8.7265990">
        <ele>10.7</ele>
        <time>2021-05-16T08:47:10Z</time>
      </trkpt>
      <trkpt lat="41.2676400" lon="-8.7265950">
        <ele>10.7</ele>
        <time>2021-05-16T08:47:11Z</time>
      </trkpt>
      <trkpt lat="41.2676500" lon="-8.7265930">
        <ele>10.7</ele>
        <time>2021-05-16T08:47:12Z</time>
      </trkpt>
      <trkpt lat="41.2676610" lon="-8.7265910">
        <ele>10.7</ele>
        <time>2021-05-16T08:47:13Z</time>
      </trkpt>
      <trkpt lat="41.2676750" lon="-8.7265950">
        <ele>10.7</ele>
        <time>2021-05-16T08:47:14Z</time>
      </trkpt>
      <trkpt lat="41.2676920" lon="-8.7265970">
        <ele>10.7</ele>
        <time>2021-05-16T08:47:15Z</time>
      </trkpt>
      <trkpt lat="41.2677060" lon="-8.7266030">
        <ele>10.7</ele>
        <time>2021-05-16T08:47:16Z</time>
      </trkpt>
      <trkpt lat="41.2677240" lon="-8.7265950">
        <ele>10.7</ele>
        <time>2021-05-16T08:47:17Z</time>
      </trkpt>
      <trkpt lat="41.2677370" lon="-8.7265920">
        <ele>10.7</ele>
        <time>2021-05-16T08:47:18Z</time>
      </trkpt>
      <trkpt lat="41.2677550" lon="-8.7265870">
        <ele>10.7</ele>
        <time>2021-05-16T08:47:19Z</time>
      </trkpt>
      <trkpt lat="41.2677720" lon="-8.7265840">
        <ele>10.7</ele>
        <time>2021-05-16T08:47:20Z</time>
      </trkpt>
      <trkpt lat="41.2678000" lon="-8.7265770">
        <ele>10.7</ele>
        <time>2021-05-16T08:47:21Z</time>
      </trkpt>
      <trkpt lat="41.2678160" lon="-8.7265740">
        <ele>10.7</ele>
        <time>2021-05-16T08:47:22Z</time>
      </trkpt>
      <trkpt lat="41.2678290" lon="-8.7265730">
        <ele>10.7</ele>
        <time>2021-05-16T08:47:23Z</time>
      </trkpt>
      <trkpt lat="41.2678450" lon="-8.7265700">
        <ele>10.7</ele>
        <time>2021-05-16T08:47:24Z</time>
      </trkpt>
      <trkpt lat="41.2678590" lon="-8.7265610">
        <ele>10.7</ele>
        <time>2021-05-16T08:47:25Z</time>
      </trkpt>
      <trkpt lat="41.2678750" lon="-8.7265560">
        <ele>10.7</ele>
        <time>2021-05-16T08:47:26Z</time>
      </trkpt>
      <trkpt lat="41.2678890" lon="-8.7265470">
        <ele>10.7</ele>
        <time>2021-05-16T08:47:27Z</time>
      </trkpt>
      <trkpt lat="41.2679030" lon="-8.7265430">
        <ele>10.7</ele>
        <time>2021-05-16T08:47:28Z</time>
      </trkpt>
      <trkpt lat="41.2679190" lon="-8.7265360">
        <ele>10.7</ele>
        <time>2021-05-16T08:47:30Z</time>
      </trkpt>
      <trkpt lat="41.2679330" lon="-8.7265370">
        <ele>10.7</ele>
        <time>2021-05-16T08:47:31Z</time>
      </trkpt>
      <trkpt lat="41.2679480" lon="-8.7265390">
        <ele>10.7</ele>
        <time>2021-05-16T08:47:32Z</time>
      </trkpt>
      <trkpt lat="41.2679630" lon="-8.7265340">
        <ele>10.7</ele>
        <time>2021-05-16T08:47:33Z</time>
      </trkpt>
      <trkpt lat="41.2679770" lon="-8.7265290">
        <ele>10.7</ele>
        <time>2021-05-16T08:47:34Z</time>
      </trkpt>
      <trkpt lat="41.2679920" lon="-8.7265260">
        <ele>10.7</ele>
        <time>2021-05-16T08:47:35Z</time>
      </trkpt>
      <trkpt lat="41.2680070" lon="-8.7265230">
        <ele>10.7</ele>
        <time>2021-05-16T08:47:36Z</time>
      </trkpt>
      <trkpt lat="41.2680190" lon="-8.7265180">
        <ele>10.7</ele>
        <time>2021-05-16T08:47:37Z</time>
      </trkpt>
      <trkpt lat="41.2680390" lon="-8.7265190">
        <ele>10.7</ele>
        <time>2021-05-16T08:47:38Z</time>
      </trkpt>
      <trkpt lat="41.2680490" lon="-8.7265190">
        <ele>10.7</ele>
        <time>2021-05-16T08:47:39Z</time>
      </trkpt>
      <trkpt lat="41.2680590" lon="-8.7265180">
        <ele>10.7</ele>
        <time>2021-05-16T08:47:40Z</time>
      </trkpt>
      <trkpt lat="41.2680770" lon="-8.7265240">
        <ele>10.7</ele>
        <time>2021-05-16T08:47:41Z</time>
      </trkpt>
      <trkpt lat="41.2680900" lon="-8.7265210">
        <ele>10.7</ele>
        <time>2021-05-16T08:47:42Z</time>
      </trkpt>
      <trkpt lat="41.2681110" lon="-8.7265260">
        <ele>10.7</ele>
        <time>2021-05-16T08:47:43Z</time>
      </trkpt>
      <trkpt lat="41.2681190" lon="-8.7265290">
        <ele>10.7</ele>
        <time>2021-05-16T08:47:44Z</time>
      </trkpt>
      <trkpt lat="41.2681270" lon="-8.7265310">
        <ele>10.7</ele>
        <time>2021-05-16T08:47:45Z</time>
      </trkpt>
      <trkpt lat="41.2681360" lon="-8.7265270">
        <ele>10.7</ele>
        <time>2021-05-16T08:47:46Z</time>
      </trkpt>
      <trkpt lat="41.2681530" lon="-8.7265220">
        <ele>10.7</ele>
        <time>2021-05-16T08:47:47Z</time>
      </trkpt>
      <trkpt lat="41.2681620" lon="-8.7265190">
        <ele>10.7</ele>
        <time>2021-05-16T08:47:48Z</time>
      </trkpt>
      <trkpt lat="41.2681720" lon="-8.7265200">
        <ele>10.7</ele>
        <time>2021-05-16T08:47:49Z</time>
      </trkpt>
      <trkpt lat="41.2681890" lon="-8.7265120">
        <ele>10.7</ele>
        <time>2021-05-16T08:47:50Z</time>
      </trkpt>
      <trkpt lat="41.2682020" lon="-8.7265100">
        <ele>10.7</ele>
        <time>2021-05-16T08:47:51Z</time>
      </trkpt>
      <trkpt lat="41.2682180" lon="-8.7265090">
        <ele>10.7</ele>
        <time>2021-05-16T08:47:52Z</time>
      </trkpt>
      <trkpt lat="41.2682390" lon="-8.7265100">
        <ele>10.7</ele>
        <time>2021-05-16T08:47:53Z</time>
      </trkpt>
      <trkpt lat="41.2682500" lon="-8.7265090">
        <ele>10.7</ele>
        <time>2021-05-16T08:47:54Z</time>
      </trkpt>
      <trkpt lat="41.2682600" lon="-8.7265090">
        <ele>10.7</ele>
        <time>2021-05-16T08:47:55Z</time>
      </trkpt>
      <trkpt lat="41.2682730" lon="-8.7265030">
        <ele>10.7</ele>
        <time>2021-05-16T08:47:56Z</time>
      </trkpt>
      <trkpt lat="41.2682810" lon="-8.7264870">
        <ele>10.7</ele>
        <time>2021-05-16T08:47:57Z</time>
      </trkpt>
      <trkpt lat="41.2682880" lon="-8.7264720">
        <ele>10.7</ele>
        <time>2021-05-16T08:47:58Z</time>
      </trkpt>
      <trkpt lat="41.2682970" lon="-8.7264670">
        <ele>10.7</ele>
        <time>2021-05-16T08:47:59Z</time>
      </trkpt>
      <trkpt lat="41.2683070" lon="-8.7264570">
        <ele>10.7</ele>
        <time>2021-05-16T08:48:00Z</time>
      </trkpt>
      <trkpt lat="41.2683200" lon="-8.7264480">
        <ele>10.7</ele>
        <time>2021-05-16T08:48:01Z</time>
      </trkpt>
      <trkpt lat="41.2683330" lon="-8.7264430">
        <ele>10.7</ele>
        <time>2021-05-16T08:48:02Z</time>
      </trkpt>
      <trkpt lat="41.2683480" lon="-8.7264290">
        <ele>10.7</ele>
        <time>2021-05-16T08:48:03Z</time>
      </trkpt>
      <trkpt lat="41.2683650" lon="-8.7264270">
        <ele>10.7</ele>
        <time>2021-05-16T08:48:04Z</time>
      </trkpt>
      <trkpt lat="41.2683800" lon="-8.7264240">
        <ele>10.7</ele>
        <time>2021-05-16T08:48:05Z</time>
      </trkpt>
      <trkpt lat="41.2683930" lon="-8.7264270">
        <ele>10.7</ele>
        <time>2021-05-16T08:48:06Z</time>
      </trkpt>
      <trkpt lat="41.2684090" lon="-8.7264310">
        <ele>10.7</ele>
        <time>2021-05-16T08:48:07Z</time>
      </trkpt>
      <trkpt lat="41.2684250" lon="-8.7264280">
        <ele>10.7</ele>
        <time>2021-05-16T08:48:08Z</time>
      </trkpt>
      <trkpt lat="41.2684390" lon="-8.7264210">
        <ele>10.8</ele>
        <time>2021-05-16T08:48:09Z</time>
      </trkpt>
      <trkpt lat="41.2684540" lon="-8.7264120">
        <ele>10.8</ele>
        <time>2021-05-16T08:48:10Z</time>
      </trkpt>
      <trkpt lat="41.2684690" lon="-8.7264070">
        <ele>10.8</ele>
        <time>2021-05-16T08:48:11Z</time>
      </trkpt>
      <trkpt lat="41.2684820" lon="-8.7264050">
        <ele>10.8</ele>
        <time>2021-05-16T08:48:12Z</time>
      </trkpt>
      <trkpt lat="41.2684950" lon="-8.7263980">
        <ele>10.8</ele>
        <time>2021-05-16T08:48:13Z</time>
      </trkpt>
      <trkpt lat="41.2685110" lon="-8.7263960">
        <ele>10.8</ele>
        <time>2021-05-16T08:48:14Z</time>
      </trkpt>
      <trkpt lat="41.2685240" lon="-8.7263890">
        <ele>10.8</ele>
        <time>2021-05-16T08:48:15Z</time>
      </trkpt>
      <trkpt lat="41.2685390" lon="-8.7263850">
        <ele>10.8</ele>
        <time>2021-05-16T08:48:16Z</time>
      </trkpt>
      <trkpt lat="41.2685530" lon="-8.7263750">
        <ele>10.8</ele>
        <time>2021-05-16T08:48:17Z</time>
      </trkpt>
      <trkpt lat="41.2685680" lon="-8.7263680">
        <ele>10.8</ele>
        <time>2021-05-16T08:48:18Z</time>
      </trkpt>
      <trkpt lat="41.2685830" lon="-8.7263660">
        <ele>10.8</ele>
        <time>2021-05-16T08:48:19Z</time>
      </trkpt>
      <trkpt lat="41.2685970" lon="-8.7263580">
        <ele>10.8</ele>
        <time>2021-05-16T08:48:20Z</time>
      </trkpt>
      <trkpt lat="41.2686110" lon="-8.7263570">
        <ele>10.8</ele>
        <time>2021-05-16T08:48:21Z</time>
      </trkpt>
      <trkpt lat="41.2686250" lon="-8.7263540">
        <ele>10.8</ele>
        <time>2021-05-16T08:48:22Z</time>
      </trkpt>
      <trkpt lat="41.2686380" lon="-8.7263550">
        <ele>10.9</ele>
        <time>2021-05-16T08:48:23Z</time>
      </trkpt>
      <trkpt lat="41.2686540" lon="-8.7263530">
        <ele>10.9</ele>
        <time>2021-05-16T08:48:24Z</time>
      </trkpt>
      <trkpt lat="41.2686680" lon="-8.7263480">
        <ele>10.9</ele>
        <time>2021-05-16T08:48:25Z</time>
      </trkpt>
      <trkpt lat="41.2686830" lon="-8.7263470">
        <ele>10.9</ele>
        <time>2021-05-16T08:48:26Z</time>
      </trkpt>
      <trkpt lat="41.2686970" lon="-8.7263400">
        <ele>10.9</ele>
        <time>2021-05-16T08:48:27Z</time>
      </trkpt>
      <trkpt lat="41.2687100" lon="-8.7263370">
        <ele>10.9</ele>
        <time>2021-05-16T08:48:28Z</time>
      </trkpt>
      <trkpt lat="41.2687250" lon="-8.7263410">
        <ele>10.9</ele>
        <time>2021-05-16T08:48:29Z</time>
      </trkpt>
      <trkpt lat="41.2687380" lon="-8.7263370">
        <ele>10.9</ele>
        <time>2021-05-16T08:48:30Z</time>
      </trkpt>
      <trkpt lat="41.2687510" lon="-8.7263290">
        <ele>10.9</ele>
        <time>2021-05-16T08:48:31Z</time>
      </trkpt>
      <trkpt lat="41.2687650" lon="-8.7263250">
        <ele>10.9</ele>
        <time>2021-05-16T08:48:32Z</time>
      </trkpt>
      <trkpt lat="41.2687770" lon="-8.7263110">
        <ele>10.9</ele>
        <time>2021-05-16T08:48:33Z</time>
      </trkpt>
      <trkpt lat="41.2687870" lon="-8.7262950">
        <ele>10.9</ele>
        <time>2021-05-16T08:48:34Z</time>
      </trkpt>
      <trkpt lat="41.2687930" lon="-8.7262800">
        <ele>10.9</ele>
        <time>2021-05-16T08:48:35Z</time>
      </trkpt>
      <trkpt lat="41.2687980" lon="-8.7262660">
        <ele>10.9</ele>
        <time>2021-05-16T08:48:36Z</time>
      </trkpt>
      <trkpt lat="41.2688030" lon="-8.7262530">
        <ele>10.9</ele>
        <time>2021-05-16T08:48:37Z</time>
      </trkpt>
      <trkpt lat="41.2688110" lon="-8.7262360">
        <ele>10.9</ele>
        <time>2021-05-16T08:48:38Z</time>
      </trkpt>
      <trkpt lat="41.2688160" lon="-8.7262190">
        <ele>10.8</ele>
        <time>2021-05-16T08:48:39Z</time>
      </trkpt>
      <trkpt lat="41.2688240" lon="-8.7261940">
        <ele>10.8</ele>
        <time>2021-05-16T08:48:40Z</time>
      </trkpt>
      <trkpt lat="41.2688270" lon="-8.7261840">
        <ele>10.8</ele>
        <time>2021-05-16T08:48:41Z</time>
      </trkpt>
      <trkpt lat="41.2688300" lon="-8.7261730">
        <ele>10.8</ele>
        <time>2021-05-16T08:48:42Z</time>
      </trkpt>
      <trkpt lat="41.2688360" lon="-8.7261550">
        <ele>10.7</ele>
        <time>2021-05-16T08:48:43Z</time>
      </trkpt>
      <trkpt lat="41.2688350" lon="-8.7261350">
        <ele>10.7</ele>
        <time>2021-05-16T08:48:44Z</time>
      </trkpt>
      <trkpt lat="41.2688400" lon="-8.7261070">
        <ele>10.7</ele>
        <time>2021-05-16T08:48:45Z</time>
      </trkpt>
      <trkpt lat="41.2688440" lon="-8.7260980">
        <ele>10.7</ele>
        <time>2021-05-16T08:48:46Z</time>
      </trkpt>
      <trkpt lat="41.2688480" lon="-8.7260890">
        <ele>10.7</ele>
        <time>2021-05-16T08:48:47Z</time>
      </trkpt>
      <trkpt lat="41.2688520" lon="-8.7261040">
        <ele>10.7</ele>
        <time>2021-05-16T08:48:48Z</time>
      </trkpt>
      <trkpt lat="41.2688490" lon="-8.7261130">
        <ele>10.7</ele>
        <time>2021-05-16T08:48:49Z</time>
      </trkpt>
      <trkpt lat="41.2688500" lon="-8.7261120">
        <ele>10.7</ele>
        <time>2021-05-16T08:48:50Z</time>
      </trkpt>
      <trkpt lat="41.2688610" lon="-8.7261170">
        <ele>10.6</ele>
        <time>2021-05-16T08:48:51Z</time>
      </trkpt>
      <trkpt lat="41.2688550" lon="-8.7261160">
        <ele>10.6</ele>
        <time>2021-05-16T08:48:52Z</time>
      </trkpt>
      <trkpt lat="41.2688550" lon="-8.7261180">
        <ele>10.6</ele>
        <time>2021-05-16T08:48:53Z</time>
      </trkpt>
      <trkpt lat="41.2688540" lon="-8.7261200">
        <ele>10.6</ele>
        <time>2021-05-16T08:48:54Z</time>
      </trkpt>
      <trkpt lat="41.2688520" lon="-8.7261210">
        <ele>10.6</ele>
        <time>2021-05-16T08:48:55Z</time>
      </trkpt>
      <trkpt lat="41.2688520" lon="-8.7261230">
        <ele>10.6</ele>
        <time>2021-05-16T08:48:56Z</time>
      </trkpt>
      <trkpt lat="41.2688520" lon="-8.7261230">
        <ele>10.6</ele>
        <time>2021-05-16T08:48:57Z</time>
      </trkpt>
      <trkpt lat="41.2688530" lon="-8.7261240">
        <ele>10.6</ele>
        <time>2021-05-16T08:48:58Z</time>
      </trkpt>
      <trkpt lat="41.2688530" lon="-8.7261250">
        <ele>10.6</ele>
        <time>2021-05-16T08:48:59Z</time>
      </trkpt>
      <trkpt lat="41.2688520" lon="-8.7261260">
        <ele>10.6</ele>
        <time>2021-05-16T08:49:00Z</time>
      </trkpt>
      <trkpt lat="41.2688520" lon="-8.7261270">
        <ele>10.6</ele>
        <time>2021-05-16T08:49:01Z</time>
      </trkpt>
      <trkpt lat="41.2688520" lon="-8.7261280">
        <ele>10.6</ele>
        <time>2021-05-16T08:49:02Z</time>
      </trkpt>
      <trkpt lat="41.2688520" lon="-8.7261280">
        <ele>10.6</ele>
        <time>2021-05-16T08:49:03Z</time>
      </trkpt>
      <trkpt lat="41.2688530" lon="-8.7261280">
        <ele>10.6</ele>
        <time>2021-05-16T08:49:04Z</time>
      </trkpt>
      <trkpt lat="41.2688530" lon="-8.7261290">
        <ele>10.6</ele>
        <time>2021-05-16T08:49:05Z</time>
      </trkpt>
      <trkpt lat="41.2688540" lon="-8.7261270">
        <ele>10.6</ele>
        <time>2021-05-16T08:49:06Z</time>
      </trkpt>
      <trkpt lat="41.2688530" lon="-8.7261270">
        <ele>10.6</ele>
        <time>2021-05-16T08:49:07Z</time>
      </trkpt>
      <trkpt lat="41.2688540" lon="-8.7261270">
        <ele>10.6</ele>
        <time>2021-05-16T08:49:08Z</time>
      </trkpt>
      <trkpt lat="41.2688530" lon="-8.7261180">
        <ele>10.6</ele>
        <time>2021-05-16T08:49:09Z</time>
      </trkpt>
      <trkpt lat="41.2688560" lon="-8.7261110">
        <ele>10.6</ele>
        <time>2021-05-16T08:49:10Z</time>
      </trkpt>
      <trkpt lat="41.2688630" lon="-8.7260940">
        <ele>10.6</ele>
        <time>2021-05-16T08:49:11Z</time>
      </trkpt>
      <trkpt lat="41.2688650" lon="-8.7260880">
        <ele>10.6</ele>
        <time>2021-05-16T08:49:12Z</time>
      </trkpt>
      <trkpt lat="41.2688830" lon="-8.7260760">
        <ele>10.5</ele>
        <time>2021-05-16T08:49:13Z</time>
      </trkpt>
      <trkpt lat="41.2688940" lon="-8.7260710">
        <ele>10.5</ele>
        <time>2021-05-16T08:49:14Z</time>
      </trkpt>
      <trkpt lat="41.2689050" lon="-8.7260660">
        <ele>10.5</ele>
        <time>2021-05-16T08:49:15Z</time>
      </trkpt>
      <trkpt lat="41.2689160" lon="-8.7260650">
        <ele>10.5</ele>
        <time>2021-05-16T08:49:16Z</time>
      </trkpt>
      <trkpt lat="41.2689330" lon="-8.7260670">
        <ele>10.5</ele>
        <time>2021-05-16T08:49:17Z</time>
      </trkpt>
      <trkpt lat="41.2689490" lon="-8.7260640">
        <ele>10.5</ele>
        <time>2021-05-16T08:49:18Z</time>
      </trkpt>
      <trkpt lat="41.2689640" lon="-8.7260570">
        <ele>10.5</ele>
        <time>2021-05-16T08:49:19Z</time>
      </trkpt>
      <trkpt lat="41.2689910" lon="-8.7260560">
        <ele>10.4</ele>
        <time>2021-05-16T08:49:20Z</time>
      </trkpt>
      <trkpt lat="41.2689990" lon="-8.7260560">
        <ele>10.4</ele>
        <time>2021-05-16T08:49:21Z</time>
      </trkpt>
      <trkpt lat="41.2690070" lon="-8.7260570">
        <ele>10.4</ele>
        <time>2021-05-16T08:49:22Z</time>
      </trkpt>
      <trkpt lat="41.2690280" lon="-8.7260590">
        <ele>10.4</ele>
        <time>2021-05-16T08:49:23Z</time>
      </trkpt>
      <trkpt lat="41.2690390" lon="-8.7260560">
        <ele>10.4</ele>
        <time>2021-05-16T08:49:24Z</time>
      </trkpt>
      <trkpt lat="41.2690490" lon="-8.7260530">
        <ele>10.3</ele>
        <time>2021-05-16T08:49:25Z</time>
      </trkpt>
      <trkpt lat="41.2690650" lon="-8.7260480">
        <ele>10.3</ele>
        <time>2021-05-16T08:49:26Z</time>
      </trkpt>
      <trkpt lat="41.2690810" lon="-8.7260510">
        <ele>10.3</ele>
        <time>2021-05-16T08:49:27Z</time>
      </trkpt>
      <trkpt lat="41.2690960" lon="-8.7260470">
        <ele>10.3</ele>
        <time>2021-05-16T08:49:28Z</time>
      </trkpt>
      <trkpt lat="41.2691120" lon="-8.7260470">
        <ele>10.2</ele>
        <time>2021-05-16T08:49:29Z</time>
      </trkpt>
      <trkpt lat="41.2691270" lon="-8.7260510">
        <ele>10.2</ele>
        <time>2021-05-16T08:49:30Z</time>
      </trkpt>
      <trkpt lat="41.2691430" lon="-8.7260560">
        <ele>10.2</ele>
        <time>2021-05-16T08:49:31Z</time>
      </trkpt>
      <trkpt lat="41.2691570" lon="-8.7260560">
        <ele>10.2</ele>
        <time>2021-05-16T08:49:32Z</time>
      </trkpt>
      <trkpt lat="41.2691710" lon="-8.7260560">
        <ele>10.1</ele>
        <time>2021-05-16T08:49:33Z</time>
      </trkpt>
      <trkpt lat="41.2691870" lon="-8.7260530">
        <ele>10.1</ele>
        <time>2021-05-16T08:49:34Z</time>
      </trkpt>
      <trkpt lat="41.2692020" lon="-8.7260550">
        <ele>10.1</ele>
        <time>2021-05-16T08:49:35Z</time>
      </trkpt>
      <trkpt lat="41.2692150" lon="-8.7260500">
        <ele>10.0</ele>
        <time>2021-05-16T08:49:36Z</time>
      </trkpt>
      <trkpt lat="41.2692300" lon="-8.7260500">
        <ele>10.0</ele>
        <time>2021-05-16T08:49:37Z</time>
      </trkpt>
      <trkpt lat="41.2692420" lon="-8.7260550">
        <ele>10.0</ele>
        <time>2021-05-16T08:49:38Z</time>
      </trkpt>
      <trkpt lat="41.2692580" lon="-8.7260480">
        <ele>9.9</ele>
        <time>2021-05-16T08:49:39Z</time>
      </trkpt>
      <trkpt lat="41.2692790" lon="-8.7260470">
        <ele>9.9</ele>
        <time>2021-05-16T08:49:40Z</time>
      </trkpt>
      <trkpt lat="41.2692890" lon="-8.7260470">
        <ele>9.8</ele>
        <time>2021-05-16T08:49:41Z</time>
      </trkpt>
      <trkpt lat="41.2692980" lon="-8.7260460">
        <ele>9.8</ele>
        <time>2021-05-16T08:49:42Z</time>
      </trkpt>
      <trkpt lat="41.2693130" lon="-8.7260350">
        <ele>9.7</ele>
        <time>2021-05-16T08:49:43Z</time>
      </trkpt>
      <trkpt lat="41.2693280" lon="-8.7260340">
        <ele>9.7</ele>
        <time>2021-05-16T08:49:44Z</time>
      </trkpt>
      <trkpt lat="41.2693430" lon="-8.7260270">
        <ele>9.6</ele>
        <time>2021-05-16T08:49:45Z</time>
      </trkpt>
      <trkpt lat="41.2693580" lon="-8.7260250">
        <ele>9.6</ele>
        <time>2021-05-16T08:49:46Z</time>
      </trkpt>
      <trkpt lat="41.2693790" lon="-8.7260190">
        <ele>9.5</ele>
        <time>2021-05-16T08:49:47Z</time>
      </trkpt>
      <trkpt lat="41.2693890" lon="-8.7260190">
        <ele>9.5</ele>
        <time>2021-05-16T08:49:48Z</time>
      </trkpt>
      <trkpt lat="41.2693980" lon="-8.7260190">
        <ele>9.4</ele>
        <time>2021-05-16T08:49:49Z</time>
      </trkpt>
      <trkpt lat="41.2694140" lon="-8.7260230">
        <ele>9.4</ele>
        <time>2021-05-16T08:49:50Z</time>
      </trkpt>
      <trkpt lat="41.2694280" lon="-8.7260250">
        <ele>9.3</ele>
        <time>2021-05-16T08:49:51Z</time>
      </trkpt>
      <trkpt lat="41.2694460" lon="-8.7260230">
        <ele>9.2</ele>
        <time>2021-05-16T08:49:52Z</time>
      </trkpt>
      <trkpt lat="41.2694600" lon="-8.7260260">
        <ele>9.1</ele>
        <time>2021-05-16T08:49:53Z</time>
      </trkpt>
      <trkpt lat="41.2694750" lon="-8.7260280">
        <ele>9.1</ele>
        <time>2021-05-16T08:49:54Z</time>
      </trkpt>
      <trkpt lat="41.2694890" lon="-8.7260280">
        <ele>9.0</ele>
        <time>2021-05-16T08:49:55Z</time>
      </trkpt>
      <trkpt lat="41.2695030" lon="-8.7260260">
        <ele>9.0</ele>
        <time>2021-05-16T08:49:56Z</time>
      </trkpt>
      <trkpt lat="41.2695200" lon="-8.7260260">
        <ele>8.9</ele>
        <time>2021-05-16T08:49:57Z</time>
      </trkpt>
      <trkpt lat="41.2695330" lon="-8.7260240">
        <ele>8.8</ele>
        <time>2021-05-16T08:49:58Z</time>
      </trkpt>
      <trkpt lat="41.2695460" lon="-8.7260170">
        <ele>8.8</ele>
        <time>2021-05-16T08:49:59Z</time>
      </trkpt>
      <trkpt lat="41.2695610" lon="-8.7260220">
        <ele>8.7</ele>
        <time>2021-05-16T08:50:00Z</time>
      </trkpt>
      <trkpt lat="41.2695750" lon="-8.7260220">
        <ele>8.6</ele>
        <time>2021-05-16T08:50:01Z</time>
      </trkpt>
      <trkpt lat="41.2695980" lon="-8.7260220">
        <ele>8.5</ele>
        <time>2021-05-16T08:50:02Z</time>
      </trkpt>
      <trkpt lat="41.2696060" lon="-8.7260210">
        <ele>8.5</ele>
        <time>2021-05-16T08:50:03Z</time>
      </trkpt>
      <trkpt lat="41.2696140" lon="-8.7260210">
        <ele>8.5</ele>
        <time>2021-05-16T08:50:04Z</time>
      </trkpt>
      <trkpt lat="41.2696310" lon="-8.7260200">
        <ele>8.4</ele>
        <time>2021-05-16T08:50:05Z</time>
      </trkpt>
      <trkpt lat="41.2696450" lon="-8.7260180">
        <ele>8.3</ele>
        <time>2021-05-16T08:50:06Z</time>
      </trkpt>
      <trkpt lat="41.2696690" lon="-8.7260170">
        <ele>8.2</ele>
        <time>2021-05-16T08:50:07Z</time>
      </trkpt>
      <trkpt lat="41.2696780" lon="-8.7260170">
        <ele>8.2</ele>
        <time>2021-05-16T08:50:08Z</time>
      </trkpt>
      <trkpt lat="41.2696880" lon="-8.7260180">
        <ele>8.2</ele>
        <time>2021-05-16T08:50:09Z</time>
      </trkpt>
      <trkpt lat="41.2697010" lon="-8.7260170">
        <ele>8.1</ele>
        <time>2021-05-16T08:50:10Z</time>
      </trkpt>
      <trkpt lat="41.2697180" lon="-8.7260020">
        <ele>8.0</ele>
        <time>2021-05-16T08:50:11Z</time>
      </trkpt>
      <trkpt lat="41.2697320" lon="-8.7260030">
        <ele>8.0</ele>
        <time>2021-05-16T08:50:12Z</time>
      </trkpt>
      <trkpt lat="41.2697460" lon="-8.7259920">
        <ele>7.9</ele>
        <time>2021-05-16T08:50:13Z</time>
      </trkpt>
      <trkpt lat="41.2697620" lon="-8.7259990">
        <ele>7.8</ele>
        <time>2021-05-16T08:50:14Z</time>
      </trkpt>
      <trkpt lat="41.2697760" lon="-8.7259940">
        <ele>7.8</ele>
        <time>2021-05-16T08:50:15Z</time>
      </trkpt>
      <trkpt lat="41.2697930" lon="-8.7259990">
        <ele>7.7</ele>
        <time>2021-05-16T08:50:16Z</time>
      </trkpt>
      <trkpt lat="41.2698080" lon="-8.7259960">
        <ele>7.6</ele>
        <time>2021-05-16T08:50:17Z</time>
      </trkpt>
      <trkpt lat="41.2698190" lon="-8.7259810">
        <ele>7.6</ele>
        <time>2021-05-16T08:50:18Z</time>
      </trkpt>
      <trkpt lat="41.2698340" lon="-8.7259810">
        <ele>7.5</ele>
        <time>2021-05-16T08:50:19Z</time>
      </trkpt>
      <trkpt lat="41.2698510" lon="-8.7259780">
        <ele>7.4</ele>
        <time>2021-05-16T08:50:20Z</time>
      </trkpt>
      <trkpt lat="41.2698650" lon="-8.7259780">
        <ele>7.4</ele>
        <time>2021-05-16T08:50:21Z</time>
      </trkpt>
      <trkpt lat="41.2698790" lon="-8.7259740">
        <ele>7.3</ele>
        <time>2021-05-16T08:50:22Z</time>
      </trkpt>
      <trkpt lat="41.2698950" lon="-8.7259680">
        <ele>7.2</ele>
        <time>2021-05-16T08:50:23Z</time>
      </trkpt>
      <trkpt lat="41.2699060" lon="-8.7259640">
        <ele>7.1</ele>
        <time>2021-05-16T08:50:24Z</time>
      </trkpt>
      <trkpt lat="41.2699220" lon="-8.7259710">
        <ele>7.1</ele>
        <time>2021-05-16T08:50:25Z</time>
      </trkpt>
      <trkpt lat="41.2699400" lon="-8.7259690">
        <ele>7.0</ele>
        <time>2021-05-16T08:50:26Z</time>
      </trkpt>
      <trkpt lat="41.2699540" lon="-8.7259700">
        <ele>6.9</ele>
        <time>2021-05-16T08:50:27Z</time>
      </trkpt>
      <trkpt lat="41.2699660" lon="-8.7259690">
        <ele>6.8</ele>
        <time>2021-05-16T08:50:28Z</time>
      </trkpt>
      <trkpt lat="41.2699820" lon="-8.7259700">
        <ele>6.7</ele>
        <time>2021-05-16T08:50:29Z</time>
      </trkpt>
      <trkpt lat="41.2699950" lon="-8.7259690">
        <ele>6.7</ele>
        <time>2021-05-16T08:50:30Z</time>
      </trkpt>
      <trkpt lat="41.2700100" lon="-8.7259660">
        <ele>6.6</ele>
        <time>2021-05-16T08:50:31Z</time>
      </trkpt>
      <trkpt lat="41.2700230" lon="-8.7259650">
        <ele>6.5</ele>
        <time>2021-05-16T08:50:32Z</time>
      </trkpt>
      <trkpt lat="41.2700370" lon="-8.7259570">
        <ele>6.4</ele>
        <time>2021-05-16T08:50:33Z</time>
      </trkpt>
      <trkpt lat="41.2700520" lon="-8.7259610">
        <ele>6.4</ele>
        <time>2021-05-16T08:50:34Z</time>
      </trkpt>
      <trkpt lat="41.2700600" lon="-8.7259660">
        <ele>6.3</ele>
        <time>2021-05-16T08:50:35Z</time>
      </trkpt>
      <trkpt lat="41.2700720" lon="-8.7259680">
        <ele>6.3</ele>
        <time>2021-05-16T08:50:36Z</time>
      </trkpt>
      <trkpt lat="41.2700810" lon="-8.7259720">
        <ele>6.3</ele>
        <time>2021-05-16T08:50:37Z</time>
      </trkpt>
      <trkpt lat="41.2700830" lon="-8.7259730">
        <ele>6.3</ele>
        <time>2021-05-16T08:50:38Z</time>
      </trkpt>
      <trkpt lat="41.2700860" lon="-8.7259750">
        <ele>6.3</ele>
        <time>2021-05-16T08:50:39Z</time>
      </trkpt>
      <trkpt lat="41.2700880" lon="-8.7259770">
        <ele>6.3</ele>
        <time>2021-05-16T08:50:40Z</time>
      </trkpt>
      <trkpt lat="41.2700900" lon="-8.7259780">
        <ele>6.3</ele>
        <time>2021-05-16T08:50:41Z</time>
      </trkpt>
      <trkpt lat="41.2700920" lon="-8.7259800">
        <ele>6.3</ele>
        <time>2021-05-16T08:50:42Z</time>
      </trkpt>
      <trkpt lat="41.2700940" lon="-8.7259820">
        <ele>6.3</ele>
        <time>2021-05-16T08:50:43Z</time>
      </trkpt>
      <trkpt lat="41.2700960" lon="-8.7259830">
        <ele>6.3</ele>
        <time>2021-05-16T08:50:44Z</time>
      </trkpt>
      <trkpt lat="41.2700990" lon="-8.7259850">
        <ele>6.3</ele>
        <time>2021-05-16T08:50:45Z</time>
      </trkpt>
      <trkpt lat="41.2701010" lon="-8.7259870">
        <ele>6.3</ele>
        <time>2021-05-16T08:50:46Z</time>
      </trkpt>
      <trkpt lat="41.2701030" lon="-8.7259880">
        <ele>6.3</ele>
        <time>2021-05-16T08:50:47Z</time>
      </trkpt>
      <trkpt lat="41.2701050" lon="-8.7259900">
        <ele>6.2</ele>
        <time>2021-05-16T08:50:48Z</time>
      </trkpt>
      <trkpt lat="41.2701240" lon="-8.7260070">
        <ele>6.2</ele>
        <time>2021-05-16T08:50:49Z</time>
      </trkpt>
      <trkpt lat="41.2701330" lon="-8.7260160">
        <ele>6.2</ele>
        <time>2021-05-16T08:50:50Z</time>
      </trkpt>
      <trkpt lat="41.2701430" lon="-8.7260240">
        <ele>6.2</ele>
        <time>2021-05-16T08:50:51Z</time>
      </trkpt>
      <trkpt lat="41.2701570" lon="-8.7260300">
        <ele>6.2</ele>
        <time>2021-05-16T08:50:52Z</time>
      </trkpt>
      <trkpt lat="41.2701680" lon="-8.7260370">
        <ele>6.1</ele>
        <time>2021-05-16T08:50:53Z</time>
      </trkpt>
      <trkpt lat="41.2701770" lon="-8.7260410">
        <ele>6.1</ele>
        <time>2021-05-16T08:50:54Z</time>
      </trkpt>
      <trkpt lat="41.2701910" lon="-8.7260490">
        <ele>6.1</ele>
        <time>2021-05-16T08:50:55Z</time>
      </trkpt>
      <trkpt lat="41.2702040" lon="-8.7260540">
        <ele>6.1</ele>
        <time>2021-05-16T08:50:56Z</time>
      </trkpt>
      <trkpt lat="41.2702210" lon="-8.7260630">
        <ele>6.0</ele>
        <time>2021-05-16T08:50:57Z</time>
      </trkpt>
      <trkpt lat="41.2702310" lon="-8.7260710">
        <ele>6.0</ele>
        <time>2021-05-16T08:50:58Z</time>
      </trkpt>
      <trkpt lat="41.2702460" lon="-8.7260810">
        <ele>6.0</ele>
        <time>2021-05-16T08:50:59Z</time>
      </trkpt>
      <trkpt lat="41.2702590" lon="-8.7260890">
        <ele>6.0</ele>
        <time>2021-05-16T08:51:00Z</time>
      </trkpt>
      <trkpt lat="41.2702730" lon="-8.7261000">
        <ele>6.0</ele>
        <time>2021-05-16T08:51:01Z</time>
      </trkpt>
      <trkpt lat="41.2702860" lon="-8.7261080">
        <ele>5.9</ele>
        <time>2021-05-16T08:51:02Z</time>
      </trkpt>
      <trkpt lat="41.2702980" lon="-8.7261160">
        <ele>5.9</ele>
        <time>2021-05-16T08:51:03Z</time>
      </trkpt>
      <trkpt lat="41.2703060" lon="-8.7261200">
        <ele>5.9</ele>
        <time>2021-05-16T08:51:04Z</time>
      </trkpt>
      <trkpt lat="41.2703150" lon="-8.7261250">
        <ele>5.9</ele>
        <time>2021-05-16T08:51:05Z</time>
      </trkpt>
      <trkpt lat="41.2703270" lon="-8.7261340">
        <ele>5.9</ele>
        <time>2021-05-16T08:51:06Z</time>
      </trkpt>
      <trkpt lat="41.2703300" lon="-8.7261390">
        <ele>5.9</ele>
        <time>2021-05-16T08:51:07Z</time>
      </trkpt>
      <trkpt lat="41.2703300" lon="-8.7261380">
        <ele>5.9</ele>
        <time>2021-05-16T08:51:08Z</time>
      </trkpt>
      <trkpt lat="41.2703290" lon="-8.7261370">
        <ele>5.9</ele>
        <time>2021-05-16T08:51:09Z</time>
      </trkpt>
      <trkpt lat="41.2703350" lon="-8.7261390">
        <ele>5.9</ele>
        <time>2021-05-16T08:51:10Z</time>
      </trkpt>
      <trkpt lat="41.2703400" lon="-8.7261500">
        <ele>5.9</ele>
        <time>2021-05-16T08:51:11Z</time>
      </trkpt>
      <trkpt lat="41.2703510" lon="-8.7261550">
        <ele>5.9</ele>
        <time>2021-05-16T08:51:12Z</time>
      </trkpt>
      <trkpt lat="41.2703590" lon="-8.7261610">
        <ele>5.9</ele>
        <time>2021-05-16T08:51:13Z</time>
      </trkpt>
      <trkpt lat="41.2703700" lon="-8.7261640">
        <ele>5.9</ele>
        <time>2021-05-16T08:51:14Z</time>
      </trkpt>
      <trkpt lat="41.2703800" lon="-8.7261690">
        <ele>5.9</ele>
        <time>2021-05-16T08:51:15Z</time>
      </trkpt>
      <trkpt lat="41.2703880" lon="-8.7261720">
        <ele>5.9</ele>
        <time>2021-05-16T08:51:16Z</time>
      </trkpt>
      <trkpt lat="41.2703990" lon="-8.7261750">
        <ele>5.8</ele>
        <time>2021-05-16T08:51:17Z</time>
      </trkpt>
      <trkpt lat="41.2704070" lon="-8.7261790">
        <ele>5.8</ele>
        <time>2021-05-16T08:51:18Z</time>
      </trkpt>
      <trkpt lat="41.2704090" lon="-8.7261800">
        <ele>5.8</ele>
        <time>2021-05-16T08:51:19Z</time>
      </trkpt>
      <trkpt lat="41.2704090" lon="-8.7261760">
        <ele>5.8</ele>
        <time>2021-05-16T08:51:20Z</time>
      </trkpt>
      <trkpt lat="41.2704050" lon="-8.7261780">
        <ele>5.8</ele>
        <time>2021-05-16T08:51:21Z</time>
      </trkpt>
      <trkpt lat="41.2704050" lon="-8.7261780">
        <ele>5.8</ele>
        <time>2021-05-16T08:51:22Z</time>
      </trkpt>
      <trkpt lat="41.2704060" lon="-8.7261790">
        <ele>5.8</ele>
        <time>2021-05-16T08:51:23Z</time>
      </trkpt>
      <trkpt lat="41.2704050" lon="-8.7261780">
        <ele>5.8</ele>
        <time>2021-05-16T08:51:24Z</time>
      </trkpt>
      <trkpt lat="41.2704020" lon="-8.7261770">
        <ele>5.8</ele>
        <time>2021-05-16T08:51:25Z</time>
      </trkpt>
      <trkpt lat="41.2704000" lon="-8.7261750">
        <ele>5.8</ele>
        <time>2021-05-16T08:51:26Z</time>
      </trkpt>
      <trkpt lat="41.2703960" lon="-8.7261760">
        <ele>5.8</ele>
        <time>2021-05-16T08:51:27Z</time>
      </trkpt>
      <trkpt lat="41.2703960" lon="-8.7261750">
        <ele>5.8</ele>
        <time>2021-05-16T08:51:28Z</time>
      </trkpt>
      <trkpt lat="41.2703950" lon="-8.7261740">
        <ele>5.8</ele>
        <time>2021-05-16T08:51:29Z</time>
      </trkpt>
      <trkpt lat="41.2703950" lon="-8.7261700">
        <ele>5.8</ele>
        <time>2021-05-16T08:51:30Z</time>
      </trkpt>
      <trkpt lat="41.2703940" lon="-8.7261630">
        <ele>5.8</ele>
        <time>2021-05-16T08:51:31Z</time>
      </trkpt>
      <trkpt lat="41.2703940" lon="-8.7261650">
        <ele>5.8</ele>
        <time>2021-05-16T08:51:32Z</time>
      </trkpt>
      <trkpt lat="41.2703940" lon="-8.7261670">
        <ele>5.8</ele>
        <time>2021-05-16T08:51:33Z</time>
      </trkpt>
      <trkpt lat="41.2703930" lon="-8.7261680">
        <ele>5.8</ele>
        <time>2021-05-16T08:51:34Z</time>
      </trkpt>
      <trkpt lat="41.2703940" lon="-8.7261670">
        <ele>5.8</ele>
        <time>2021-05-16T08:51:35Z</time>
      </trkpt>
      <trkpt lat="41.2703940" lon="-8.7261680">
        <ele>5.8</ele>
        <time>2021-05-16T08:51:36Z</time>
      </trkpt>
      <trkpt lat="41.2703950" lon="-8.7261700">
        <ele>5.8</ele>
        <time>2021-05-16T08:51:37Z</time>
      </trkpt>
      <trkpt lat="41.2703980" lon="-8.7261730">
        <ele>5.8</ele>
        <time>2021-05-16T08:51:38Z</time>
      </trkpt>
      <trkpt lat="41.2704080" lon="-8.7261860">
        <ele>5.8</ele>
        <time>2021-05-16T08:51:39Z</time>
      </trkpt>
      <trkpt lat="41.2704180" lon="-8.7261900">
        <ele>5.8</ele>
        <time>2021-05-16T08:51:40Z</time>
      </trkpt>
      <trkpt lat="41.2704290" lon="-8.7262000">
        <ele>5.8</ele>
        <time>2021-05-16T08:51:41Z</time>
      </trkpt>
      <trkpt lat="41.2704430" lon="-8.7262110">
        <ele>5.8</ele>
        <time>2021-05-16T08:51:42Z</time>
      </trkpt>
      <trkpt lat="41.2704510" lon="-8.7262190">
        <ele>5.8</ele>
        <time>2021-05-16T08:51:43Z</time>
      </trkpt>
      <trkpt lat="41.2704570" lon="-8.7262240">
        <ele>5.8</ele>
        <time>2021-05-16T08:51:44Z</time>
      </trkpt>
      <trkpt lat="41.2704670" lon="-8.7262310">
        <ele>5.8</ele>
        <time>2021-05-16T08:51:45Z</time>
      </trkpt>
      <trkpt lat="41.2704840" lon="-8.7262420">
        <ele>5.8</ele>
        <time>2021-05-16T08:51:46Z</time>
      </trkpt>
      <trkpt lat="41.2705060" lon="-8.7262640">
        <ele>5.8</ele>
        <time>2021-05-16T08:51:47Z</time>
      </trkpt>
      <trkpt lat="41.2705130" lon="-8.7262730">
        <ele>5.8</ele>
        <time>2021-05-16T08:51:48Z</time>
      </trkpt>
      <trkpt lat="41.2705390" lon="-8.7262870">
        <ele>5.8</ele>
        <time>2021-05-16T08:51:49Z</time>
      </trkpt>
      <trkpt lat="41.2705470" lon="-8.7262940">
        <ele>5.8</ele>
        <time>2021-05-16T08:51:50Z</time>
      </trkpt>
      <trkpt lat="41.2705600" lon="-8.7263040">
        <ele>5.8</ele>
        <time>2021-05-16T08:51:51Z</time>
      </trkpt>
      <trkpt lat="41.2705720" lon="-8.7263130">
        <ele>5.8</ele>
        <time>2021-05-16T08:51:52Z</time>
      </trkpt>
      <trkpt lat="41.2705880" lon="-8.7263220">
        <ele>5.8</ele>
        <time>2021-05-16T08:51:53Z</time>
      </trkpt>
      <trkpt lat="41.2706000" lon="-8.7263310">
        <ele>5.8</ele>
        <time>2021-05-16T08:51:54Z</time>
      </trkpt>
      <trkpt lat="41.2706170" lon="-8.7263380">
        <ele>5.8</ele>
        <time>2021-05-16T08:51:55Z</time>
      </trkpt>
      <trkpt lat="41.2706300" lon="-8.7263450">
        <ele>5.8</ele>
        <time>2021-05-16T08:51:56Z</time>
      </trkpt>
      <trkpt lat="41.2706470" lon="-8.7263590">
        <ele>5.8</ele>
        <time>2021-05-16T08:51:57Z</time>
      </trkpt>
      <trkpt lat="41.2706560" lon="-8.7263650">
        <ele>5.8</ele>
        <time>2021-05-16T08:51:58Z</time>
      </trkpt>
      <trkpt lat="41.2706660" lon="-8.7263700">
        <ele>5.8</ele>
        <time>2021-05-16T08:51:59Z</time>
      </trkpt>
      <trkpt lat="41.2706880" lon="-8.7263850">
        <ele>5.8</ele>
        <time>2021-05-16T08:52:00Z</time>
      </trkpt>
      <trkpt lat="41.2706960" lon="-8.7263900">
        <ele>5.8</ele>
        <time>2021-05-16T08:52:01Z</time>
      </trkpt>
      <trkpt lat="41.2707050" lon="-8.7263960">
        <ele>5.8</ele>
        <time>2021-05-16T08:52:02Z</time>
      </trkpt>
      <trkpt lat="41.2707170" lon="-8.7264050">
        <ele>5.8</ele>
        <time>2021-05-16T08:52:03Z</time>
      </trkpt>
      <trkpt lat="41.2707310" lon="-8.7264150">
        <ele>5.8</ele>
        <time>2021-05-16T08:52:04Z</time>
      </trkpt>
      <trkpt lat="41.2707460" lon="-8.7264230">
        <ele>5.9</ele>
        <time>2021-05-16T08:52:05Z</time>
      </trkpt>
      <trkpt lat="41.2707590" lon="-8.7264340">
        <ele>5.9</ele>
        <time>2021-05-16T08:52:06Z</time>
      </trkpt>
      <trkpt lat="41.2707730" lon="-8.7264430">
        <ele>5.9</ele>
        <time>2021-05-16T08:52:07Z</time>
      </trkpt>
      <trkpt lat="41.2707890" lon="-8.7264490">
        <ele>5.9</ele>
        <time>2021-05-16T08:52:08Z</time>
      </trkpt>
      <trkpt lat="41.2708030" lon="-8.7264580">
        <ele>5.9</ele>
        <time>2021-05-16T08:52:09Z</time>
      </trkpt>
      <trkpt lat="41.2708190" lon="-8.7264670">
        <ele>5.9</ele>
        <time>2021-05-16T08:52:10Z</time>
      </trkpt>
      <trkpt lat="41.2708330" lon="-8.7264760">
        <ele>5.9</ele>
        <time>2021-05-16T08:52:11Z</time>
      </trkpt>
      <trkpt lat="41.2708470" lon="-8.7264860">
        <ele>6.0</ele>
        <time>2021-05-16T08:52:12Z</time>
      </trkpt>
      <trkpt lat="41.2708600" lon="-8.7264950">
        <ele>6.0</ele>
        <time>2021-05-16T08:52:13Z</time>
      </trkpt>
      <trkpt lat="41.2708730" lon="-8.7265070">
        <ele>6.0</ele>
        <time>2021-05-16T08:52:14Z</time>
      </trkpt>
      <trkpt lat="41.2708890" lon="-8.7265220">
        <ele>6.1</ele>
        <time>2021-05-16T08:52:15Z</time>
      </trkpt>
      <trkpt lat="41.2708980" lon="-8.7265310">
        <ele>6.1</ele>
        <time>2021-05-16T08:52:16Z</time>
      </trkpt>
      <trkpt lat="41.2709150" lon="-8.7265390">
        <ele>6.1</ele>
        <time>2021-05-16T08:52:17Z</time>
      </trkpt>
      <trkpt lat="41.2709270" lon="-8.7265460">
        <ele>6.1</ele>
        <time>2021-05-16T08:52:18Z</time>
      </trkpt>
      <trkpt lat="41.2709410" lon="-8.7265590">
        <ele>6.2</ele>
        <time>2021-05-16T08:52:19Z</time>
      </trkpt>
      <trkpt lat="41.2709560" lon="-8.7265720">
        <ele>6.2</ele>
        <time>2021-05-16T08:52:20Z</time>
      </trkpt>
      <trkpt lat="41.2709690" lon="-8.7265810">
        <ele>6.3</ele>
        <time>2021-05-16T08:52:21Z</time>
      </trkpt>
      <trkpt lat="41.2709840" lon="-8.7265910">
        <ele>6.3</ele>
        <time>2021-05-16T08:52:22Z</time>
      </trkpt>
      <trkpt lat="41.2709960" lon="-8.7266030">
        <ele>6.3</ele>
        <time>2021-05-16T08:52:23Z</time>
      </trkpt>
      <trkpt lat="41.2710090" lon="-8.7266120">
        <ele>6.4</ele>
        <time>2021-05-16T08:52:24Z</time>
      </trkpt>
      <trkpt lat="41.2710240" lon="-8.7266180">
        <ele>6.4</ele>
        <time>2021-05-16T08:52:25Z</time>
      </trkpt>
      <trkpt lat="41.2710380" lon="-8.7266250">
        <ele>6.4</ele>
        <time>2021-05-16T08:52:26Z</time>
      </trkpt>
      <trkpt lat="41.2710520" lon="-8.7266330">
        <ele>6.5</ele>
        <time>2021-05-16T08:52:27Z</time>
      </trkpt>
      <trkpt lat="41.2710630" lon="-8.7266450">
        <ele>6.5</ele>
        <time>2021-05-16T08:52:28Z</time>
      </trkpt>
      <trkpt lat="41.2710760" lon="-8.7266560">
        <ele>6.6</ele>
        <time>2021-05-16T08:52:29Z</time>
      </trkpt>
      <trkpt lat="41.2710870" lon="-8.7266660">
        <ele>6.6</ele>
        <time>2021-05-16T08:52:30Z</time>
      </trkpt>
      <trkpt lat="41.2711010" lon="-8.7266770">
        <ele>6.6</ele>
        <time>2021-05-16T08:52:31Z</time>
      </trkpt>
      <trkpt lat="41.2711110" lon="-8.7266890">
        <ele>6.6</ele>
        <time>2021-05-16T08:52:32Z</time>
      </trkpt>
      <trkpt lat="41.2711260" lon="-8.7266960">
        <ele>6.7</ele>
        <time>2021-05-16T08:52:33Z</time>
      </trkpt>
      <trkpt lat="41.2711380" lon="-8.7267060">
        <ele>6.7</ele>
        <time>2021-05-16T08:52:34Z</time>
      </trkpt>
      <trkpt lat="41.2711530" lon="-8.7267160">
        <ele>6.7</ele>
        <time>2021-05-16T08:52:35Z</time>
      </trkpt>
      <trkpt lat="41.2711630" lon="-8.7267270">
        <ele>6.7</ele>
        <time>2021-05-16T08:52:36Z</time>
      </trkpt>
      <trkpt lat="41.2711770" lon="-8.7267360">
        <ele>6.7</ele>
        <time>2021-05-16T08:52:37Z</time>
      </trkpt>
      <trkpt lat="41.2711890" lon="-8.7267470">
        <ele>6.8</ele>
        <time>2021-05-16T08:52:38Z</time>
      </trkpt>
      <trkpt lat="41.2712010" lon="-8.7267560">
        <ele>6.8</ele>
        <time>2021-05-16T08:52:39Z</time>
      </trkpt>
      <trkpt lat="41.2712110" lon="-8.7267700">
        <ele>6.8</ele>
        <time>2021-05-16T08:52:40Z</time>
      </trkpt>
      <trkpt lat="41.2712240" lon="-8.7267830">
        <ele>6.8</ele>
        <time>2021-05-16T08:52:41Z</time>
      </trkpt>
      <trkpt lat="41.2712420" lon="-8.7267840">
        <ele>6.8</ele>
        <time>2021-05-16T08:52:42Z</time>
      </trkpt>
      <trkpt lat="41.2712570" lon="-8.7267940">
        <ele>6.8</ele>
        <time>2021-05-16T08:52:43Z</time>
      </trkpt>
      <trkpt lat="41.2712690" lon="-8.7268020">
        <ele>6.8</ele>
        <time>2021-05-16T08:52:44Z</time>
      </trkpt>
      <trkpt lat="41.2712820" lon="-8.7268120">
        <ele>6.8</ele>
        <time>2021-05-16T08:52:45Z</time>
      </trkpt>
      <trkpt lat="41.2712940" lon="-8.7268220">
        <ele>6.8</ele>
        <time>2021-05-16T08:52:46Z</time>
      </trkpt>
      <trkpt lat="41.2713060" lon="-8.7268320">
        <ele>6.8</ele>
        <time>2021-05-16T08:52:47Z</time>
      </trkpt>
      <trkpt lat="41.2713200" lon="-8.7268390">
        <ele>6.8</ele>
        <time>2021-05-16T08:52:48Z</time>
      </trkpt>
      <trkpt lat="41.2713290" lon="-8.7268520">
        <ele>6.8</ele>
        <time>2021-05-16T08:52:49Z</time>
      </trkpt>
      <trkpt lat="41.2713400" lon="-8.7268660">
        <ele>6.8</ele>
        <time>2021-05-16T08:52:50Z</time>
      </trkpt>
      <trkpt lat="41.2713510" lon="-8.7268790">
        <ele>6.8</ele>
        <time>2021-05-16T08:52:51Z</time>
      </trkpt>
      <trkpt lat="41.2713630" lon="-8.7268900">
        <ele>6.8</ele>
        <time>2021-05-16T08:52:52Z</time>
      </trkpt>
      <trkpt lat="41.2713780" lon="-8.7269010">
        <ele>6.8</ele>
        <time>2021-05-16T08:52:53Z</time>
      </trkpt>
      <trkpt lat="41.2713900" lon="-8.7269130">
        <ele>6.8</ele>
        <time>2021-05-16T08:52:54Z</time>
      </trkpt>
      <trkpt lat="41.2714010" lon="-8.7269230">
        <ele>6.8</ele>
        <time>2021-05-16T08:52:55Z</time>
      </trkpt>
      <trkpt lat="41.2714140" lon="-8.7269320">
        <ele>6.7</ele>
        <time>2021-05-16T08:52:56Z</time>
      </trkpt>
      <trkpt lat="41.2714280" lon="-8.7269420">
        <ele>6.7</ele>
        <time>2021-05-16T08:52:57Z</time>
      </trkpt>
      <trkpt lat="41.2714430" lon="-8.7269520">
        <ele>6.7</ele>
        <time>2021-05-16T08:52:58Z</time>
      </trkpt>
      <trkpt lat="41.2714560" lon="-8.7269590">
        <ele>6.7</ele>
        <time>2021-05-16T08:52:59Z</time>
      </trkpt>
      <trkpt lat="41.2714690" lon="-8.7269700">
        <ele>6.7</ele>
        <time>2021-05-16T08:53:00Z</time>
      </trkpt>
      <trkpt lat="41.2714810" lon="-8.7269760">
        <ele>6.7</ele>
        <time>2021-05-16T08:53:01Z</time>
      </trkpt>
      <trkpt lat="41.2714940" lon="-8.7269880">
        <ele>6.6</ele>
        <time>2021-05-16T08:53:02Z</time>
      </trkpt>
      <trkpt lat="41.2715050" lon="-8.7269970">
        <ele>6.6</ele>
        <time>2021-05-16T08:53:03Z</time>
      </trkpt>
      <trkpt lat="41.2715160" lon="-8.7270080">
        <ele>6.6</ele>
        <time>2021-05-16T08:53:04Z</time>
      </trkpt>
      <trkpt lat="41.2715360" lon="-8.7270190">
        <ele>6.6</ele>
        <time>2021-05-16T08:53:05Z</time>
      </trkpt>
      <trkpt lat="41.2715450" lon="-8.7270220">
        <ele>6.6</ele>
        <time>2021-05-16T08:53:06Z</time>
      </trkpt>
      <trkpt lat="41.2715530" lon="-8.7270240">
        <ele>6.6</ele>
        <time>2021-05-16T08:53:07Z</time>
      </trkpt>
      <trkpt lat="41.2715660" lon="-8.7270340">
        <ele>6.5</ele>
        <time>2021-05-16T08:53:08Z</time>
      </trkpt>
      <trkpt lat="41.2715790" lon="-8.7270450">
        <ele>6.5</ele>
        <time>2021-05-16T08:53:09Z</time>
      </trkpt>
      <trkpt lat="41.2715910" lon="-8.7270550">
        <ele>6.5</ele>
        <time>2021-05-16T08:53:10Z</time>
      </trkpt>
      <trkpt lat="41.2716050" lon="-8.7270680">
        <ele>6.5</ele>
        <time>2021-05-16T08:53:11Z</time>
      </trkpt>
      <trkpt lat="41.2716160" lon="-8.7270800">
        <ele>6.5</ele>
        <time>2021-05-16T08:53:12Z</time>
      </trkpt>
      <trkpt lat="41.2716280" lon="-8.7270920">
        <ele>6.5</ele>
        <time>2021-05-16T08:53:13Z</time>
      </trkpt>
      <trkpt lat="41.2716400" lon="-8.7271050">
        <ele>6.5</ele>
        <time>2021-05-16T08:53:14Z</time>
      </trkpt>
      <trkpt lat="41.2716550" lon="-8.7271050">
        <ele>6.4</ele>
        <time>2021-05-16T08:53:15Z</time>
      </trkpt>
      <trkpt lat="41.2716720" lon="-8.7271160">
        <ele>6.4</ele>
        <time>2021-05-16T08:53:16Z</time>
      </trkpt>
      <trkpt lat="41.2716830" lon="-8.7271260">
        <ele>6.4</ele>
        <time>2021-05-16T08:53:17Z</time>
      </trkpt>
      <trkpt lat="41.2716950" lon="-8.7271410">
        <ele>6.4</ele>
        <time>2021-05-16T08:53:18Z</time>
      </trkpt>
      <trkpt lat="41.2717090" lon="-8.7271490">
        <ele>6.5</ele>
        <time>2021-05-16T08:53:19Z</time>
      </trkpt>
      <trkpt lat="41.2717260" lon="-8.7271660">
        <ele>6.5</ele>
        <time>2021-05-16T08:53:20Z</time>
      </trkpt>
      <trkpt lat="41.2717320" lon="-8.7271720">
        <ele>6.5</ele>
        <time>2021-05-16T08:53:21Z</time>
      </trkpt>
      <trkpt lat="41.2717390" lon="-8.7271780">
        <ele>6.5</ele>
        <time>2021-05-16T08:53:22Z</time>
      </trkpt>
      <trkpt lat="41.2717580" lon="-8.7271970">
        <ele>6.5</ele>
        <time>2021-05-16T08:53:23Z</time>
      </trkpt>
      <trkpt lat="41.2717660" lon="-8.7272040">
        <ele>6.5</ele>
        <time>2021-05-16T08:53:24Z</time>
      </trkpt>
      <trkpt lat="41.2717740" lon="-8.7272100">
        <ele>6.5</ele>
        <time>2021-05-16T08:53:25Z</time>
      </trkpt>
      <trkpt lat="41.2717930" lon="-8.7272280">
        <ele>6.5</ele>
        <time>2021-05-16T08:53:26Z</time>
      </trkpt>
      <trkpt lat="41.2718010" lon="-8.7272350">
        <ele>6.5</ele>
        <time>2021-05-16T08:53:27Z</time>
      </trkpt>
      <trkpt lat="41.2718090" lon="-8.7272420">
        <ele>6.5</ele>
        <time>2021-05-16T08:53:28Z</time>
      </trkpt>
      <trkpt lat="41.2718250" lon="-8.7272590">
        <ele>6.5</ele>
        <time>2021-05-16T08:53:29Z</time>
      </trkpt>
      <trkpt lat="41.2718340" lon="-8.7272630">
        <ele>6.5</ele>
        <time>2021-05-16T08:53:30Z</time>
      </trkpt>
      <trkpt lat="41.2718420" lon="-8.7272680">
        <ele>6.5</ele>
        <time>2021-05-16T08:53:31Z</time>
      </trkpt>
      <trkpt lat="41.2718530" lon="-8.7272770">
        <ele>6.5</ele>
        <time>2021-05-16T08:53:32Z</time>
      </trkpt>
      <trkpt lat="41.2718650" lon="-8.7272880">
        <ele>6.5</ele>
        <time>2021-05-16T08:53:33Z</time>
      </trkpt>
      <trkpt lat="41.2718750" lon="-8.7272960">
        <ele>6.5</ele>
        <time>2021-05-16T08:53:34Z</time>
      </trkpt>
      <trkpt lat="41.2718910" lon="-8.7273000">
        <ele>6.5</ele>
        <time>2021-05-16T08:53:35Z</time>
      </trkpt>
      <trkpt lat="41.2719060" lon="-8.7273020">
        <ele>6.5</ele>
        <time>2021-05-16T08:53:36Z</time>
      </trkpt>
      <trkpt lat="41.2719200" lon="-8.7273070">
        <ele>6.5</ele>
        <time>2021-05-16T08:53:37Z</time>
      </trkpt>
      <trkpt lat="41.2719350" lon="-8.7273060">
        <ele>6.5</ele>
        <time>2021-05-16T08:53:38Z</time>
      </trkpt>
      <trkpt lat="41.2719500" lon="-8.7273090">
        <ele>6.5</ele>
        <time>2021-05-16T08:53:39Z</time>
      </trkpt>
      <trkpt lat="41.2719630" lon="-8.7273110">
        <ele>6.5</ele>
        <time>2021-05-16T08:53:40Z</time>
      </trkpt>
      <trkpt lat="41.2719770" lon="-8.7273150">
        <ele>6.5</ele>
        <time>2021-05-16T08:53:41Z</time>
      </trkpt>
      <trkpt lat="41.2719890" lon="-8.7273240">
        <ele>6.5</ele>
        <time>2021-05-16T08:53:42Z</time>
      </trkpt>
      <trkpt lat="41.2720030" lon="-8.7273300">
        <ele>6.5</ele>
        <time>2021-05-16T08:53:43Z</time>
      </trkpt>
      <trkpt lat="41.2720170" lon="-8.7273320">
        <ele>6.5</ele>
        <time>2021-05-16T08:53:44Z</time>
      </trkpt>
      <trkpt lat="41.2720300" lon="-8.7273340">
        <ele>6.5</ele>
        <time>2021-05-16T08:53:45Z</time>
      </trkpt>
      <trkpt lat="41.2720390" lon="-8.7273380">
        <ele>6.6</ele>
        <time>2021-05-16T08:53:46Z</time>
      </trkpt>
      <trkpt lat="41.2720510" lon="-8.7273390">
        <ele>6.6</ele>
        <time>2021-05-16T08:53:47Z</time>
      </trkpt>
      <trkpt lat="41.2720670" lon="-8.7273460">
        <ele>6.6</ele>
        <time>2021-05-16T08:53:48Z</time>
      </trkpt>
      <trkpt lat="41.2720810" lon="-8.7273560">
        <ele>6.6</ele>
        <time>2021-05-16T08:53:49Z</time>
      </trkpt>
      <trkpt lat="41.2720950" lon="-8.7273630">
        <ele>6.6</ele>
        <time>2021-05-16T08:53:50Z</time>
      </trkpt>
      <trkpt lat="41.2721170" lon="-8.7273690">
        <ele>6.6</ele>
        <time>2021-05-16T08:53:51Z</time>
      </trkpt>
      <trkpt lat="41.2721250" lon="-8.7273710">
        <ele>6.6</ele>
        <time>2021-05-16T08:53:52Z</time>
      </trkpt>
      <trkpt lat="41.2721340" lon="-8.7273720">
        <ele>6.6</ele>
        <time>2021-05-16T08:53:53Z</time>
      </trkpt>
      <trkpt lat="41.2721530" lon="-8.7273680">
        <ele>6.6</ele>
        <time>2021-05-16T08:53:54Z</time>
      </trkpt>
      <trkpt lat="41.2721670" lon="-8.7273720">
        <ele>6.7</ele>
        <time>2021-05-16T08:53:55Z</time>
      </trkpt>
      <trkpt lat="41.2721820" lon="-8.7273810">
        <ele>6.7</ele>
        <time>2021-05-16T08:53:56Z</time>
      </trkpt>
      <trkpt lat="41.2721970" lon="-8.7273790">
        <ele>6.7</ele>
        <time>2021-05-16T08:53:57Z</time>
      </trkpt>
      <trkpt lat="41.2722110" lon="-8.7273840">
        <ele>6.7</ele>
        <time>2021-05-16T08:53:58Z</time>
      </trkpt>
      <trkpt lat="41.2722250" lon="-8.7273920">
        <ele>6.7</ele>
        <time>2021-05-16T08:53:59Z</time>
      </trkpt>
      <trkpt lat="41.2722480" lon="-8.7273950">
        <ele>6.7</ele>
        <time>2021-05-16T08:54:00Z</time>
      </trkpt>
      <trkpt lat="41.2722560" lon="-8.7273980">
        <ele>6.8</ele>
        <time>2021-05-16T08:54:01Z</time>
      </trkpt>
      <trkpt lat="41.2722640" lon="-8.7274020">
        <ele>6.8</ele>
        <time>2021-05-16T08:54:02Z</time>
      </trkpt>
      <trkpt lat="41.2722780" lon="-8.7274080">
        <ele>6.8</ele>
        <time>2021-05-16T08:54:03Z</time>
      </trkpt>
      <trkpt lat="41.2722930" lon="-8.7274120">
        <ele>6.8</ele>
        <time>2021-05-16T08:54:04Z</time>
      </trkpt>
      <trkpt lat="41.2723070" lon="-8.7274140">
        <ele>6.8</ele>
        <time>2021-05-16T08:54:05Z</time>
      </trkpt>
      <trkpt lat="41.2723220" lon="-8.7274110">
        <ele>6.8</ele>
        <time>2021-05-16T08:54:06Z</time>
      </trkpt>
      <trkpt lat="41.2723440" lon="-8.7274150">
        <ele>6.9</ele>
        <time>2021-05-16T08:54:07Z</time>
      </trkpt>
      <trkpt lat="41.2723520" lon="-8.7274170">
        <ele>6.9</ele>
        <time>2021-05-16T08:54:08Z</time>
      </trkpt>
      <trkpt lat="41.2723610" lon="-8.7274180">
        <ele>6.9</ele>
        <time>2021-05-16T08:54:09Z</time>
      </trkpt>
      <trkpt lat="41.2723790" lon="-8.7274320">
        <ele>6.9</ele>
        <time>2021-05-16T08:54:10Z</time>
      </trkpt>
      <trkpt lat="41.2723870" lon="-8.7274380">
        <ele>6.9</ele>
        <time>2021-05-16T08:54:11Z</time>
      </trkpt>
      <trkpt lat="41.2723940" lon="-8.7274430">
        <ele>6.9</ele>
        <time>2021-05-16T08:54:12Z</time>
      </trkpt>
      <trkpt lat="41.2724130" lon="-8.7274540">
        <ele>6.9</ele>
        <time>2021-05-16T08:54:13Z</time>
      </trkpt>
      <trkpt lat="41.2724210" lon="-8.7274570">
        <ele>6.9</ele>
        <time>2021-05-16T08:54:14Z</time>
      </trkpt>
      <trkpt lat="41.2724300" lon="-8.7274600">
        <ele>6.9</ele>
        <time>2021-05-16T08:54:15Z</time>
      </trkpt>
      <trkpt lat="41.2724520" lon="-8.7274620">
        <ele>7.0</ele>
        <time>2021-05-16T08:54:16Z</time>
      </trkpt>
      <trkpt lat="41.2724600" lon="-8.7274650">
        <ele>7.0</ele>
        <time>2021-05-16T08:54:17Z</time>
      </trkpt>
      <trkpt lat="41.2724690" lon="-8.7274670">
        <ele>7.0</ele>
        <time>2021-05-16T08:54:18Z</time>
      </trkpt>
      <trkpt lat="41.2724890" lon="-8.7274770">
        <ele>7.0</ele>
        <time>2021-05-16T08:54:19Z</time>
      </trkpt>
      <trkpt lat="41.2724970" lon="-8.7274780">
        <ele>7.0</ele>
        <time>2021-05-16T08:54:20Z</time>
      </trkpt>
      <trkpt lat="41.2725060" lon="-8.7274790">
        <ele>7.0</ele>
        <time>2021-05-16T08:54:21Z</time>
      </trkpt>
      <trkpt lat="41.2725220" lon="-8.7274800">
        <ele>7.0</ele>
        <time>2021-05-16T08:54:22Z</time>
      </trkpt>
      <trkpt lat="41.2725360" lon="-8.7274760">
        <ele>7.0</ele>
        <time>2021-05-16T08:54:23Z</time>
      </trkpt>
      <trkpt lat="41.2725590" lon="-8.7274810">
        <ele>7.1</ele>
        <time>2021-05-16T08:54:24Z</time>
      </trkpt>
      <trkpt lat="41.2725670" lon="-8.7274820">
        <ele>7.1</ele>
        <time>2021-05-16T08:54:25Z</time>
      </trkpt>
      <trkpt lat="41.2725760" lon="-8.7274840">
        <ele>7.1</ele>
        <time>2021-05-16T08:54:26Z</time>
      </trkpt>
      <trkpt lat="41.2725920" lon="-8.7274840">
        <ele>7.1</ele>
        <time>2021-05-16T08:54:27Z</time>
      </trkpt>
      <trkpt lat="41.2726040" lon="-8.7274870">
        <ele>7.1</ele>
        <time>2021-05-16T08:54:28Z</time>
      </trkpt>
      <trkpt lat="41.2726200" lon="-8.7274870">
        <ele>7.2</ele>
        <time>2021-05-16T08:54:29Z</time>
      </trkpt>
      <trkpt lat="41.2726340" lon="-8.7274960">
        <ele>7.2</ele>
        <time>2021-05-16T08:54:30Z</time>
      </trkpt>
      <trkpt lat="41.2726510" lon="-8.7274910">
        <ele>7.2</ele>
        <time>2021-05-16T08:54:31Z</time>
      </trkpt>
      <trkpt lat="41.2726630" lon="-8.7274910">
        <ele>7.2</ele>
        <time>2021-05-16T08:54:32Z</time>
      </trkpt>
      <trkpt lat="41.2726750" lon="-8.7274900">
        <ele>7.2</ele>
        <time>2021-05-16T08:54:33Z</time>
      </trkpt>
      <trkpt lat="41.2726890" lon="-8.7274970">
        <ele>7.3</ele>
        <time>2021-05-16T08:54:34Z</time>
      </trkpt>
      <trkpt lat="41.2727060" lon="-8.7274950">
        <ele>7.3</ele>
        <time>2021-05-16T08:54:35Z</time>
      </trkpt>
      <trkpt lat="41.2727190" lon="-8.7274980">
        <ele>7.3</ele>
        <time>2021-05-16T08:54:36Z</time>
      </trkpt>
      <trkpt lat="41.2727350" lon="-8.7274960">
        <ele>7.3</ele>
        <time>2021-05-16T08:54:37Z</time>
      </trkpt>
      <trkpt lat="41.2727480" lon="-8.7274950">
        <ele>7.4</ele>
        <time>2021-05-16T08:54:38Z</time>
      </trkpt>
      <trkpt lat="41.2727650" lon="-8.7274990">
        <ele>7.4</ele>
        <time>2021-05-16T08:54:39Z</time>
      </trkpt>
      <trkpt lat="41.2727770" lon="-8.7275030">
        <ele>7.4</ele>
        <time>2021-05-16T08:54:40Z</time>
      </trkpt>
      <trkpt lat="41.2727910" lon="-8.7275070">
        <ele>7.4</ele>
        <time>2021-05-16T08:54:41Z</time>
      </trkpt>
      <trkpt lat="41.2728070" lon="-8.7275060">
        <ele>7.5</ele>
        <time>2021-05-16T08:54:42Z</time>
      </trkpt>
      <trkpt lat="41.2728220" lon="-8.7275060">
        <ele>7.5</ele>
        <time>2021-05-16T08:54:43Z</time>
      </trkpt>
      <trkpt lat="41.2728380" lon="-8.7275070">
        <ele>7.5</ele>
        <time>2021-05-16T08:54:44Z</time>
      </trkpt>
      <trkpt lat="41.2728520" lon="-8.7275130">
        <ele>7.5</ele>
        <time>2021-05-16T08:54:45Z</time>
      </trkpt>
      <trkpt lat="41.2728680" lon="-8.7275150">
        <ele>7.6</ele>
        <time>2021-05-16T08:54:46Z</time>
      </trkpt>
      <trkpt lat="41.2728820" lon="-8.7275170">
        <ele>7.6</ele>
        <time>2021-05-16T08:54:47Z</time>
      </trkpt>
      <trkpt lat="41.2728980" lon="-8.7275170">
        <ele>7.6</ele>
        <time>2021-05-16T08:54:48Z</time>
      </trkpt>
      <trkpt lat="41.2729110" lon="-8.7275190">
        <ele>7.7</ele>
        <time>2021-05-16T08:54:49Z</time>
      </trkpt>
      <trkpt lat="41.2729270" lon="-8.7275140">
        <ele>7.7</ele>
        <time>2021-05-16T08:54:50Z</time>
      </trkpt>
      <trkpt lat="41.2729430" lon="-8.7275170">
        <ele>7.7</ele>
        <time>2021-05-16T08:54:51Z</time>
      </trkpt>
      <trkpt lat="41.2729560" lon="-8.7275240">
        <ele>7.8</ele>
        <time>2021-05-16T08:54:52Z</time>
      </trkpt>
      <trkpt lat="41.2729710" lon="-8.7275220">
        <ele>7.8</ele>
        <time>2021-05-16T08:54:53Z</time>
      </trkpt>
      <trkpt lat="41.2729850" lon="-8.7275310">
        <ele>7.8</ele>
        <time>2021-05-16T08:54:54Z</time>
      </trkpt>
      <trkpt lat="41.2730000" lon="-8.7275360">
        <ele>7.8</ele>
        <time>2021-05-16T08:54:55Z</time>
      </trkpt>
      <trkpt lat="41.2730140" lon="-8.7275390">
        <ele>7.9</ele>
        <time>2021-05-16T08:54:56Z</time>
      </trkpt>
      <trkpt lat="41.2730310" lon="-8.7275410">
        <ele>7.9</ele>
        <time>2021-05-16T08:54:57Z</time>
      </trkpt>
      <trkpt lat="41.2730450" lon="-8.7275420">
        <ele>7.9</ele>
        <time>2021-05-16T08:54:58Z</time>
      </trkpt>
      <trkpt lat="41.2730600" lon="-8.7275410">
        <ele>8.0</ele>
        <time>2021-05-16T08:54:59Z</time>
      </trkpt>
      <trkpt lat="41.2730740" lon="-8.7275460">
        <ele>8.0</ele>
        <time>2021-05-16T08:55:00Z</time>
      </trkpt>
      <trkpt lat="41.2730890" lon="-8.7275520">
        <ele>8.0</ele>
        <time>2021-05-16T08:55:01Z</time>
      </trkpt>
      <trkpt lat="41.2731030" lon="-8.7275480">
        <ele>8.1</ele>
        <time>2021-05-16T08:55:02Z</time>
      </trkpt>
      <trkpt lat="41.2731170" lon="-8.7275470">
        <ele>8.1</ele>
        <time>2021-05-16T08:55:03Z</time>
      </trkpt>
      <trkpt lat="41.2731320" lon="-8.7275460">
        <ele>8.1</ele>
        <time>2021-05-16T08:55:04Z</time>
      </trkpt>
      <trkpt lat="41.2731460" lon="-8.7275470">
        <ele>8.1</ele>
        <time>2021-05-16T08:55:05Z</time>
      </trkpt>
      <trkpt lat="41.2731610" lon="-8.7275540">
        <ele>8.2</ele>
        <time>2021-05-16T08:55:06Z</time>
      </trkpt>
      <trkpt lat="41.2731740" lon="-8.7275530">
        <ele>8.2</ele>
        <time>2021-05-16T08:55:07Z</time>
      </trkpt>
      <trkpt lat="41.2731910" lon="-8.7275530">
        <ele>8.2</ele>
        <time>2021-05-16T08:55:08Z</time>
      </trkpt>
      <trkpt lat="41.2732060" lon="-8.7275570">
        <ele>8.3</ele>
        <time>2021-05-16T08:55:09Z</time>
      </trkpt>
      <trkpt lat="41.2732220" lon="-8.7275560">
        <ele>8.3</ele>
        <time>2021-05-16T08:55:10Z</time>
      </trkpt>
      <trkpt lat="41.2732370" lon="-8.7275650">
        <ele>8.3</ele>
        <time>2021-05-16T08:55:11Z</time>
      </trkpt>
      <trkpt lat="41.2732520" lon="-8.7275650">
        <ele>8.4</ele>
        <time>2021-05-16T08:55:12Z</time>
      </trkpt>
      <trkpt lat="41.2732660" lon="-8.7275670">
        <ele>8.4</ele>
        <time>2021-05-16T08:55:13Z</time>
      </trkpt>
      <trkpt lat="41.2732800" lon="-8.7275740">
        <ele>8.4</ele>
        <time>2021-05-16T08:55:14Z</time>
      </trkpt>
      <trkpt lat="41.2732930" lon="-8.7275690">
        <ele>8.4</ele>
        <time>2021-05-16T08:55:15Z</time>
      </trkpt>
      <trkpt lat="41.2733090" lon="-8.7275710">
        <ele>8.5</ele>
        <time>2021-05-16T08:55:16Z</time>
      </trkpt>
      <trkpt lat="41.2733200" lon="-8.7275770">
        <ele>8.5</ele>
        <time>2021-05-16T08:55:17Z</time>
      </trkpt>
      <trkpt lat="41.2733370" lon="-8.7275760">
        <ele>8.5</ele>
        <time>2021-05-16T08:55:18Z</time>
      </trkpt>
      <trkpt lat="41.2733480" lon="-8.7275790">
        <ele>8.5</ele>
        <time>2021-05-16T08:55:19Z</time>
      </trkpt>
      <trkpt lat="41.2733640" lon="-8.7275810">
        <ele>8.6</ele>
        <time>2021-05-16T08:55:20Z</time>
      </trkpt>
      <trkpt lat="41.2733780" lon="-8.7275840">
        <ele>8.6</ele>
        <time>2021-05-16T08:55:21Z</time>
      </trkpt>
      <trkpt lat="41.2733910" lon="-8.7275880">
        <ele>8.6</ele>
        <time>2021-05-16T08:55:22Z</time>
      </trkpt>
      <trkpt lat="41.2734070" lon="-8.7275890">
        <ele>8.6</ele>
        <time>2021-05-16T08:55:23Z</time>
      </trkpt>
      <trkpt lat="41.2734210" lon="-8.7275950">
        <ele>8.7</ele>
        <time>2021-05-16T08:55:24Z</time>
      </trkpt>
      <trkpt lat="41.2734430" lon="-8.7275950">
        <ele>8.7</ele>
        <time>2021-05-16T08:55:25Z</time>
      </trkpt>
      <trkpt lat="41.2734510" lon="-8.7275960">
        <ele>8.7</ele>
        <time>2021-05-16T08:55:26Z</time>
      </trkpt>
      <trkpt lat="41.2734600" lon="-8.7275970">
        <ele>8.7</ele>
        <time>2021-05-16T08:55:27Z</time>
      </trkpt>
      <trkpt lat="41.2734820" lon="-8.7276020">
        <ele>8.8</ele>
        <time>2021-05-16T08:55:28Z</time>
      </trkpt>
      <trkpt lat="41.2734910" lon="-8.7276060">
        <ele>8.8</ele>
        <time>2021-05-16T08:55:29Z</time>
      </trkpt>
      <trkpt lat="41.2735000" lon="-8.7276090">
        <ele>8.8</ele>
        <time>2021-05-16T08:55:30Z</time>
      </trkpt>
      <trkpt lat="41.2735120" lon="-8.7276060">
        <ele>8.8</ele>
        <time>2021-05-16T08:55:31Z</time>
      </trkpt>
      <trkpt lat="41.2735290" lon="-8.7276020">
        <ele>8.8</ele>
        <time>2021-05-16T08:55:32Z</time>
      </trkpt>
      <trkpt lat="41.2735490" lon="-8.7276040">
        <ele>8.9</ele>
        <time>2021-05-16T08:55:33Z</time>
      </trkpt>
      <trkpt lat="41.2735580" lon="-8.7276050">
        <ele>8.9</ele>
        <time>2021-05-16T08:55:34Z</time>
      </trkpt>
      <trkpt lat="41.2735670" lon="-8.7276070">
        <ele>8.9</ele>
        <time>2021-05-16T08:55:35Z</time>
      </trkpt>
      <trkpt lat="41.2735890" lon="-8.7276020">
        <ele>8.9</ele>
        <time>2021-05-16T08:55:36Z</time>
      </trkpt>
      <trkpt lat="41.2735980" lon="-8.7276010">
        <ele>8.9</ele>
        <time>2021-05-16T08:55:37Z</time>
      </trkpt>
      <trkpt lat="41.2736060" lon="-8.7276000">
        <ele>9.0</ele>
        <time>2021-05-16T08:55:38Z</time>
      </trkpt>
      <trkpt lat="41.2736150" lon="-8.7275990">
        <ele>9.0</ele>
        <time>2021-05-16T08:55:39Z</time>
      </trkpt>
      <trkpt lat="41.2736310" lon="-8.7275990">
        <ele>9.0</ele>
        <time>2021-05-16T08:55:40Z</time>
      </trkpt>
      <trkpt lat="41.2736400" lon="-8.7276020">
        <ele>9.0</ele>
        <time>2021-05-16T08:55:41Z</time>
      </trkpt>
      <trkpt lat="41.2736560" lon="-8.7276030">
        <ele>9.0</ele>
        <time>2021-05-16T08:55:42Z</time>
      </trkpt>
      <trkpt lat="41.2736680" lon="-8.7276050">
        <ele>9.1</ele>
        <time>2021-05-16T08:55:43Z</time>
      </trkpt>
      <trkpt lat="41.2736830" lon="-8.7276070">
        <ele>9.1</ele>
        <time>2021-05-16T08:55:44Z</time>
      </trkpt>
      <trkpt lat="41.2736980" lon="-8.7276120">
        <ele>9.1</ele>
        <time>2021-05-16T08:55:45Z</time>
      </trkpt>
      <trkpt lat="41.2737110" lon="-8.7276210">
        <ele>9.1</ele>
        <time>2021-05-16T08:55:46Z</time>
      </trkpt>
      <trkpt lat="41.2737280" lon="-8.7276120">
        <ele>9.2</ele>
        <time>2021-05-16T08:55:47Z</time>
      </trkpt>
      <trkpt lat="41.2737420" lon="-8.7276100">
        <ele>9.2</ele>
        <time>2021-05-16T08:55:48Z</time>
      </trkpt>
      <trkpt lat="41.2737600" lon="-8.7276060">
        <ele>9.2</ele>
        <time>2021-05-16T08:55:49Z</time>
      </trkpt>
      <trkpt lat="41.2737720" lon="-8.7276100">
        <ele>9.2</ele>
        <time>2021-05-16T08:55:50Z</time>
      </trkpt>
      <trkpt lat="41.2737890" lon="-8.7276100">
        <ele>9.3</ele>
        <time>2021-05-16T08:55:51Z</time>
      </trkpt>
      <trkpt lat="41.2738020" lon="-8.7276130">
        <ele>9.3</ele>
        <time>2021-05-16T08:55:52Z</time>
      </trkpt>
      <trkpt lat="41.2738180" lon="-8.7276170">
        <ele>9.3</ele>
        <time>2021-05-16T08:55:53Z</time>
      </trkpt>
      <trkpt lat="41.2738320" lon="-8.7276150">
        <ele>9.3</ele>
        <time>2021-05-16T08:55:54Z</time>
      </trkpt>
      <trkpt lat="41.2738490" lon="-8.7276180">
        <ele>9.3</ele>
        <time>2021-05-16T08:55:55Z</time>
      </trkpt>
      <trkpt lat="41.2738640" lon="-8.7276190">
        <ele>9.4</ele>
        <time>2021-05-16T08:55:56Z</time>
      </trkpt>
      <trkpt lat="41.2738780" lon="-8.7276220">
        <ele>9.4</ele>
        <time>2021-05-16T08:55:57Z</time>
      </trkpt>
      <trkpt lat="41.2738930" lon="-8.7276190">
        <ele>9.4</ele>
        <time>2021-05-16T08:55:58Z</time>
      </trkpt>
      <trkpt lat="41.2739090" lon="-8.7276210">
        <ele>9.4</ele>
        <time>2021-05-16T08:55:59Z</time>
      </trkpt>
      <trkpt lat="41.2739230" lon="-8.7276220">
        <ele>9.4</ele>
        <time>2021-05-16T08:56:00Z</time>
      </trkpt>
      <trkpt lat="41.2739380" lon="-8.7276180">
        <ele>9.5</ele>
        <time>2021-05-16T08:56:01Z</time>
      </trkpt>
      <trkpt lat="41.2739540" lon="-8.7276220">
        <ele>9.5</ele>
        <time>2021-05-16T08:56:02Z</time>
      </trkpt>
      <trkpt lat="41.2739680" lon="-8.7276220">
        <ele>9.5</ele>
        <time>2021-05-16T08:56:03Z</time>
      </trkpt>
      <trkpt lat="41.2739830" lon="-8.7276240">
        <ele>9.5</ele>
        <time>2021-05-16T08:56:04Z</time>
      </trkpt>
      <trkpt lat="41.2739950" lon="-8.7276320">
        <ele>9.6</ele>
        <time>2021-05-16T08:56:05Z</time>
      </trkpt>
      <trkpt lat="41.2740100" lon="-8.7276300">
        <ele>9.6</ele>
        <time>2021-05-16T08:56:06Z</time>
      </trkpt>
      <trkpt lat="41.2740240" lon="-8.7276320">
        <ele>9.6</ele>
        <time>2021-05-16T08:56:07Z</time>
      </trkpt>
      <trkpt lat="41.2740400" lon="-8.7276360">
        <ele>9.6</ele>
        <time>2021-05-16T08:56:08Z</time>
      </trkpt>
      <trkpt lat="41.2740550" lon="-8.7276370">
        <ele>9.6</ele>
        <time>2021-05-16T08:56:09Z</time>
      </trkpt>
      <trkpt lat="41.2740700" lon="-8.7276430">
        <ele>9.7</ele>
        <time>2021-05-16T08:56:10Z</time>
      </trkpt>
      <trkpt lat="41.2740860" lon="-8.7276350">
        <ele>9.7</ele>
        <time>2021-05-16T08:56:11Z</time>
      </trkpt>
      <trkpt lat="41.2741000" lon="-8.7276340">
        <ele>9.7</ele>
        <time>2021-05-16T08:56:12Z</time>
      </trkpt>
      <trkpt lat="41.2741170" lon="-8.7276330">
        <ele>9.7</ele>
        <time>2021-05-16T08:56:13Z</time>
      </trkpt>
      <trkpt lat="41.2741280" lon="-8.7276310">
        <ele>9.8</ele>
        <time>2021-05-16T08:56:14Z</time>
      </trkpt>
      <trkpt lat="41.2741440" lon="-8.7276260">
        <ele>9.8</ele>
        <time>2021-05-16T08:56:15Z</time>
      </trkpt>
      <trkpt lat="41.2741570" lon="-8.7276300">
        <ele>9.8</ele>
        <time>2021-05-16T08:56:16Z</time>
      </trkpt>
      <trkpt lat="41.2741720" lon="-8.7276310">
        <ele>9.9</ele>
        <time>2021-05-16T08:56:17Z</time>
      </trkpt>
      <trkpt lat="41.2741920" lon="-8.7276350">
        <ele>9.9</ele>
        <time>2021-05-16T08:56:18Z</time>
      </trkpt>
      <trkpt lat="41.2742010" lon="-8.7276350">
        <ele>9.9</ele>
        <time>2021-05-16T08:56:19Z</time>
      </trkpt>
      <trkpt lat="41.2742110" lon="-8.7276360">
        <ele>9.9</ele>
        <time>2021-05-16T08:56:20Z</time>
      </trkpt>
      <trkpt lat="41.2742240" lon="-8.7276380">
        <ele>10.0</ele>
        <time>2021-05-16T08:56:21Z</time>
      </trkpt>
      <trkpt lat="41.2742380" lon="-8.7276430">
        <ele>10.0</ele>
        <time>2021-05-16T08:56:22Z</time>
      </trkpt>
      <trkpt lat="41.2742510" lon="-8.7276480">
        <ele>10.0</ele>
        <time>2021-05-16T08:56:23Z</time>
      </trkpt>
      <trkpt lat="41.2742650" lon="-8.7276500">
        <ele>10.1</ele>
        <time>2021-05-16T08:56:24Z</time>
      </trkpt>
      <trkpt lat="41.2742870" lon="-8.7276550">
        <ele>10.1</ele>
        <time>2021-05-16T08:56:25Z</time>
      </trkpt>
      <trkpt lat="41.2742950" lon="-8.7276590">
        <ele>10.2</ele>
        <time>2021-05-16T08:56:26Z</time>
      </trkpt>
      <trkpt lat="41.2743020" lon="-8.7276630">
        <ele>10.2</ele>
        <time>2021-05-16T08:56:27Z</time>
      </trkpt>
      <trkpt lat="41.2743180" lon="-8.7276540">
        <ele>10.2</ele>
        <time>2021-05-16T08:56:28Z</time>
      </trkpt>
      <trkpt lat="41.2743320" lon="-8.7276560">
        <ele>10.2</ele>
        <time>2021-05-16T08:56:29Z</time>
      </trkpt>
      <trkpt lat="41.2743480" lon="-8.7276560">
        <ele>10.3</ele>
        <time>2021-05-16T08:56:30Z</time>
      </trkpt>
      <trkpt lat="41.2743580" lon="-8.7276720">
        <ele>10.3</ele>
        <time>2021-05-16T08:56:31Z</time>
      </trkpt>
      <trkpt lat="41.2743720" lon="-8.7276710">
        <ele>10.3</ele>
        <time>2021-05-16T08:56:32Z</time>
      </trkpt>
      <trkpt lat="41.2743870" lon="-8.7276750">
        <ele>10.4</ele>
        <time>2021-05-16T08:56:33Z</time>
      </trkpt>
      <trkpt lat="41.2744010" lon="-8.7276720">
        <ele>10.4</ele>
        <time>2021-05-16T08:56:34Z</time>
      </trkpt>
      <trkpt lat="41.2744150" lon="-8.7276680">
        <ele>10.4</ele>
        <time>2021-05-16T08:56:35Z</time>
      </trkpt>
      <trkpt lat="41.2744300" lon="-8.7276700">
        <ele>10.4</ele>
        <time>2021-05-16T08:56:36Z</time>
      </trkpt>
      <trkpt lat="41.2744460" lon="-8.7276620">
        <ele>10.4</ele>
        <time>2021-05-16T08:56:37Z</time>
      </trkpt>
      <trkpt lat="41.2744620" lon="-8.7276660">
        <ele>10.5</ele>
        <time>2021-05-16T08:56:38Z</time>
      </trkpt>
      <trkpt lat="41.2744740" lon="-8.7276700">
        <ele>10.5</ele>
        <time>2021-05-16T08:56:39Z</time>
      </trkpt>
      <trkpt lat="41.2744900" lon="-8.7276630">
        <ele>10.5</ele>
        <time>2021-05-16T08:56:40Z</time>
      </trkpt>
      <trkpt lat="41.2745050" lon="-8.7276620">
        <ele>10.5</ele>
        <time>2021-05-16T08:56:41Z</time>
      </trkpt>
      <trkpt lat="41.2745200" lon="-8.7276690">
        <ele>10.5</ele>
        <time>2021-05-16T08:56:42Z</time>
      </trkpt>
      <trkpt lat="41.2745330" lon="-8.7276710">
        <ele>10.5</ele>
        <time>2021-05-16T08:56:43Z</time>
      </trkpt>
      <trkpt lat="41.2745490" lon="-8.7276780">
        <ele>10.6</ele>
        <time>2021-05-16T08:56:44Z</time>
      </trkpt>
      <trkpt lat="41.2745620" lon="-8.7276740">
        <ele>10.6</ele>
        <time>2021-05-16T08:56:45Z</time>
      </trkpt>
      <trkpt lat="41.2745770" lon="-8.7276800">
        <ele>10.6</ele>
        <time>2021-05-16T08:56:46Z</time>
      </trkpt>
      <trkpt lat="41.2745920" lon="-8.7276810">
        <ele>10.7</ele>
        <time>2021-05-16T08:56:47Z</time>
      </trkpt>
      <trkpt lat="41.2746080" lon="-8.7276750">
        <ele>10.7</ele>
        <time>2021-05-16T08:56:48Z</time>
      </trkpt>
      <trkpt lat="41.2746200" lon="-8.7276770">
        <ele>10.7</ele>
        <time>2021-05-16T08:56:49Z</time>
      </trkpt>
      <trkpt lat="41.2746370" lon="-8.7276760">
        <ele>10.7</ele>
        <time>2021-05-16T08:56:50Z</time>
      </trkpt>
      <trkpt lat="41.2746530" lon="-8.7276760">
        <ele>10.7</ele>
        <time>2021-05-16T08:56:51Z</time>
      </trkpt>
      <trkpt lat="41.2746690" lon="-8.7276740">
        <ele>10.7</ele>
        <time>2021-05-16T08:56:52Z</time>
      </trkpt>
      <trkpt lat="41.2746840" lon="-8.7276790">
        <ele>10.8</ele>
        <time>2021-05-16T08:56:53Z</time>
      </trkpt>
      <trkpt lat="41.2746980" lon="-8.7276630">
        <ele>10.8</ele>
        <time>2021-05-16T08:56:54Z</time>
      </trkpt>
      <trkpt lat="41.2747140" lon="-8.7276640">
        <ele>10.8</ele>
        <time>2021-05-16T08:56:55Z</time>
      </trkpt>
      <trkpt lat="41.2747270" lon="-8.7276630">
        <ele>10.8</ele>
        <time>2021-05-16T08:56:56Z</time>
      </trkpt>
      <trkpt lat="41.2747420" lon="-8.7276620">
        <ele>10.8</ele>
        <time>2021-05-16T08:56:57Z</time>
      </trkpt>
      <trkpt lat="41.2747570" lon="-8.7276660">
        <ele>10.8</ele>
        <time>2021-05-16T08:56:58Z</time>
      </trkpt>
      <trkpt lat="41.2747750" lon="-8.7276700">
        <ele>10.9</ele>
        <time>2021-05-16T08:56:59Z</time>
      </trkpt>
      <trkpt lat="41.2747870" lon="-8.7276680">
        <ele>10.9</ele>
        <time>2021-05-16T08:57:00Z</time>
      </trkpt>
      <trkpt lat="41.2748020" lon="-8.7276770">
        <ele>10.9</ele>
        <time>2021-05-16T08:57:01Z</time>
      </trkpt>
      <trkpt lat="41.2748170" lon="-8.7276760">
        <ele>10.9</ele>
        <time>2021-05-16T08:57:02Z</time>
      </trkpt>
      <trkpt lat="41.2748310" lon="-8.7276790">
        <ele>11.0</ele>
        <time>2021-05-16T08:57:03Z</time>
      </trkpt>
      <trkpt lat="41.2748510" lon="-8.7276830">
        <ele>11.0</ele>
        <time>2021-05-16T08:57:04Z</time>
      </trkpt>
      <trkpt lat="41.2748600" lon="-8.7276860">
        <ele>11.0</ele>
        <time>2021-05-16T08:57:05Z</time>
      </trkpt>
      <trkpt lat="41.2748680" lon="-8.7276890">
        <ele>11.0</ele>
        <time>2021-05-16T08:57:06Z</time>
      </trkpt>
      <trkpt lat="41.2748790" lon="-8.7276870">
        <ele>11.0</ele>
        <time>2021-05-16T08:57:07Z</time>
      </trkpt>
      <trkpt lat="41.2748930" lon="-8.7276820">
        <ele>11.0</ele>
        <time>2021-05-16T08:57:08Z</time>
      </trkpt>
      <trkpt lat="41.2749010" lon="-8.7276800">
        <ele>11.0</ele>
        <time>2021-05-16T08:57:09Z</time>
      </trkpt>
      <trkpt lat="41.2749180" lon="-8.7276750">
        <ele>11.1</ele>
        <time>2021-05-16T08:57:10Z</time>
      </trkpt>
      <trkpt lat="41.2749340" lon="-8.7276720">
        <ele>11.1</ele>
        <time>2021-05-16T08:57:11Z</time>
      </trkpt>
      <trkpt lat="41.2749470" lon="-8.7276680">
        <ele>11.1</ele>
        <time>2021-05-16T08:57:12Z</time>
      </trkpt>
      <trkpt lat="41.2749650" lon="-8.7276650">
        <ele>11.1</ele>
        <time>2021-05-16T08:57:13Z</time>
      </trkpt>
      <trkpt lat="41.2749750" lon="-8.7276650">
        <ele>11.1</ele>
        <time>2021-05-16T08:57:14Z</time>
      </trkpt>
      <trkpt lat="41.2749920" lon="-8.7276530">
        <ele>11.2</ele>
        <time>2021-05-16T08:57:15Z</time>
      </trkpt>
      <trkpt lat="41.2750070" lon="-8.7276510">
        <ele>11.2</ele>
        <time>2021-05-16T08:57:16Z</time>
      </trkpt>
      <trkpt lat="41.2750240" lon="-8.7276440">
        <ele>11.2</ele>
        <time>2021-05-16T08:57:17Z</time>
      </trkpt>
      <trkpt lat="41.2750370" lon="-8.7276500">
        <ele>11.2</ele>
        <time>2021-05-16T08:57:18Z</time>
      </trkpt>
      <trkpt lat="41.2750520" lon="-8.7276560">
        <ele>11.2</ele>
        <time>2021-05-16T08:57:19Z</time>
      </trkpt>
      <trkpt lat="41.2750700" lon="-8.7276610">
        <ele>11.3</ele>
        <time>2021-05-16T08:57:20Z</time>
      </trkpt>
      <trkpt lat="41.2750840" lon="-8.7276640">
        <ele>11.3</ele>
        <time>2021-05-16T08:57:21Z</time>
      </trkpt>
      <trkpt lat="41.2750980" lon="-8.7276710">
        <ele>11.3</ele>
        <time>2021-05-16T08:57:22Z</time>
      </trkpt>
      <trkpt lat="41.2751110" lon="-8.7276880">
        <ele>11.3</ele>
        <time>2021-05-16T08:57:23Z</time>
      </trkpt>
      <trkpt lat="41.2751220" lon="-8.7277020">
        <ele>11.4</ele>
        <time>2021-05-16T08:57:24Z</time>
      </trkpt>
      <trkpt lat="41.2751360" lon="-8.7277130">
        <ele>11.4</ele>
        <time>2021-05-16T08:57:25Z</time>
      </trkpt>
      <trkpt lat="41.2751520" lon="-8.7277210">
        <ele>11.5</ele>
        <time>2021-05-16T08:57:26Z</time>
      </trkpt>
      <trkpt lat="41.2751640" lon="-8.7277360">
        <ele>11.5</ele>
        <time>2021-05-16T08:57:27Z</time>
      </trkpt>
      <trkpt lat="41.2751790" lon="-8.7277460">
        <ele>11.5</ele>
        <time>2021-05-16T08:57:28Z</time>
      </trkpt>
      <trkpt lat="41.2751930" lon="-8.7277550">
        <ele>11.6</ele>
        <time>2021-05-16T08:57:29Z</time>
      </trkpt>
      <trkpt lat="41.2752080" lon="-8.7277640">
        <ele>11.6</ele>
        <time>2021-05-16T08:57:30Z</time>
      </trkpt>
      <trkpt lat="41.2752220" lon="-8.7277760">
        <ele>11.6</ele>
        <time>2021-05-16T08:57:31Z</time>
      </trkpt>
      <trkpt lat="41.2752360" lon="-8.7277850">
        <ele>11.6</ele>
        <time>2021-05-16T08:57:32Z</time>
      </trkpt>
      <trkpt lat="41.2752480" lon="-8.7277990">
        <ele>11.6</ele>
        <time>2021-05-16T08:57:33Z</time>
      </trkpt>
      <trkpt lat="41.2752620" lon="-8.7278100">
        <ele>11.7</ele>
        <time>2021-05-16T08:57:34Z</time>
      </trkpt>
      <trkpt lat="41.2752760" lon="-8.7278190">
        <ele>11.7</ele>
        <time>2021-05-16T08:57:35Z</time>
      </trkpt>
      <trkpt lat="41.2752910" lon="-8.7278310">
        <ele>11.7</ele>
        <time>2021-05-16T08:57:36Z</time>
      </trkpt>
      <trkpt lat="41.2753030" lon="-8.7278460">
        <ele>11.7</ele>
        <time>2021-05-16T08:57:37Z</time>
      </trkpt>
      <trkpt lat="41.2753180" lon="-8.7278570">
        <ele>11.7</ele>
        <time>2021-05-16T08:57:38Z</time>
      </trkpt>
      <trkpt lat="41.2753350" lon="-8.7278600">
        <ele>11.7</ele>
        <time>2021-05-16T08:57:39Z</time>
      </trkpt>
      <trkpt lat="41.2753490" lon="-8.7278740">
        <ele>11.7</ele>
        <time>2021-05-16T08:57:40Z</time>
      </trkpt>
      <trkpt lat="41.2753650" lon="-8.7278830">
        <ele>11.6</ele>
        <time>2021-05-16T08:57:41Z</time>
      </trkpt>
      <trkpt lat="41.2753750" lon="-8.7278960">
        <ele>11.6</ele>
        <time>2021-05-16T08:57:42Z</time>
      </trkpt>
      <trkpt lat="41.2753910" lon="-8.7279050">
        <ele>11.6</ele>
        <time>2021-05-16T08:57:43Z</time>
      </trkpt>
      <trkpt lat="41.2754040" lon="-8.7279140">
        <ele>11.6</ele>
        <time>2021-05-16T08:57:44Z</time>
      </trkpt>
      <trkpt lat="41.2754160" lon="-8.7279270">
        <ele>11.6</ele>
        <time>2021-05-16T08:57:45Z</time>
      </trkpt>
      <trkpt lat="41.2754310" lon="-8.7279360">
        <ele>11.5</ele>
        <time>2021-05-16T08:57:46Z</time>
      </trkpt>
      <trkpt lat="41.2754430" lon="-8.7279490">
        <ele>11.5</ele>
        <time>2021-05-16T08:57:47Z</time>
      </trkpt>
      <trkpt lat="41.2754570" lon="-8.7279610">
        <ele>11.5</ele>
        <time>2021-05-16T08:57:48Z</time>
      </trkpt>
      <trkpt lat="41.2754710" lon="-8.7279750">
        <ele>11.5</ele>
        <time>2021-05-16T08:57:49Z</time>
      </trkpt>
      <trkpt lat="41.2754870" lon="-8.7279840">
        <ele>11.4</ele>
        <time>2021-05-16T08:57:50Z</time>
      </trkpt>
      <trkpt lat="41.2755010" lon="-8.7279930">
        <ele>11.4</ele>
        <time>2021-05-16T08:57:51Z</time>
      </trkpt>
      <trkpt lat="41.2755150" lon="-8.7280050">
        <ele>11.4</ele>
        <time>2021-05-16T08:57:52Z</time>
      </trkpt>
      <trkpt lat="41.2755300" lon="-8.7280150">
        <ele>11.4</ele>
        <time>2021-05-16T08:57:53Z</time>
      </trkpt>
      <trkpt lat="41.2755480" lon="-8.7280250">
        <ele>11.3</ele>
        <time>2021-05-16T08:57:54Z</time>
      </trkpt>
      <trkpt lat="41.2755610" lon="-8.7280330">
        <ele>11.3</ele>
        <time>2021-05-16T08:57:55Z</time>
      </trkpt>
      <trkpt lat="41.2755830" lon="-8.7280490">
        <ele>11.3</ele>
        <time>2021-05-16T08:57:56Z</time>
      </trkpt>
      <trkpt lat="41.2755920" lon="-8.7280550">
        <ele>11.2</ele>
        <time>2021-05-16T08:57:57Z</time>
      </trkpt>
      <trkpt lat="41.2756000" lon="-8.7280620">
        <ele>11.2</ele>
        <time>2021-05-16T08:57:58Z</time>
      </trkpt>
      <trkpt lat="41.2756110" lon="-8.7280710">
        <ele>11.2</ele>
        <time>2021-05-16T08:57:59Z</time>
      </trkpt>
      <trkpt lat="41.2756260" lon="-8.7280830">
        <ele>11.1</ele>
        <time>2021-05-16T08:58:00Z</time>
      </trkpt>
      <trkpt lat="41.2756380" lon="-8.7280890">
        <ele>11.1</ele>
        <time>2021-05-16T08:58:01Z</time>
      </trkpt>
      <trkpt lat="41.2756490" lon="-8.7281050">
        <ele>11.0</ele>
        <time>2021-05-16T08:58:02Z</time>
      </trkpt>
      <trkpt lat="41.2756620" lon="-8.7281140">
        <ele>11.0</ele>
        <time>2021-05-16T08:58:03Z</time>
      </trkpt>
      <trkpt lat="41.2756740" lon="-8.7281260">
        <ele>10.9</ele>
        <time>2021-05-16T08:58:04Z</time>
      </trkpt>
      <trkpt lat="41.2756890" lon="-8.7281340">
        <ele>10.9</ele>
        <time>2021-05-16T08:58:05Z</time>
      </trkpt>
      <trkpt lat="41.2756990" lon="-8.7281440">
        <ele>10.8</ele>
        <time>2021-05-16T08:58:06Z</time>
      </trkpt>
      <trkpt lat="41.2757120" lon="-8.7281520">
        <ele>10.8</ele>
        <time>2021-05-16T08:58:07Z</time>
      </trkpt>
      <trkpt lat="41.2757240" lon="-8.7281650">
        <ele>10.7</ele>
        <time>2021-05-16T08:58:08Z</time>
      </trkpt>
      <trkpt lat="41.2757360" lon="-8.7281760">
        <ele>10.6</ele>
        <time>2021-05-16T08:58:09Z</time>
      </trkpt>
      <trkpt lat="41.2757460" lon="-8.7281880">
        <ele>10.6</ele>
        <time>2021-05-16T08:58:10Z</time>
      </trkpt>
      <trkpt lat="41.2757580" lon="-8.7281990">
        <ele>10.5</ele>
        <time>2021-05-16T08:58:11Z</time>
      </trkpt>
      <trkpt lat="41.2757720" lon="-8.7282130">
        <ele>10.4</ele>
        <time>2021-05-16T08:58:12Z</time>
      </trkpt>
      <trkpt lat="41.2757860" lon="-8.7282260">
        <ele>10.3</ele>
        <time>2021-05-16T08:58:13Z</time>
      </trkpt>
      <trkpt lat="41.2757980" lon="-8.7282330">
        <ele>10.2</ele>
        <time>2021-05-16T08:58:14Z</time>
      </trkpt>
      <trkpt lat="41.2758110" lon="-8.7282460">
        <ele>10.1</ele>
        <time>2021-05-16T08:58:15Z</time>
      </trkpt>
      <trkpt lat="41.2758220" lon="-8.7282520">
        <ele>10.1</ele>
        <time>2021-05-16T08:58:16Z</time>
      </trkpt>
      <trkpt lat="41.2758400" lon="-8.7282590">
        <ele>10.0</ele>
        <time>2021-05-16T08:58:17Z</time>
      </trkpt>
      <trkpt lat="41.2758510" lon="-8.7282710">
        <ele>9.9</ele>
        <time>2021-05-16T08:58:18Z</time>
      </trkpt>
      <trkpt lat="41.2758640" lon="-8.7282830">
        <ele>9.8</ele>
        <time>2021-05-16T08:58:19Z</time>
      </trkpt>
      <trkpt lat="41.2758720" lon="-8.7282940">
        <ele>9.7</ele>
        <time>2021-05-16T08:58:20Z</time>
      </trkpt>
      <trkpt lat="41.2758860" lon="-8.7283070">
        <ele>9.6</ele>
        <time>2021-05-16T08:58:21Z</time>
      </trkpt>
      <trkpt lat="41.2758990" lon="-8.7283180">
        <ele>9.5</ele>
        <time>2021-05-16T08:58:22Z</time>
      </trkpt>
      <trkpt lat="41.2759110" lon="-8.7283290">
        <ele>9.4</ele>
        <time>2021-05-16T08:58:23Z</time>
      </trkpt>
      <trkpt lat="41.2759280" lon="-8.7283360">
        <ele>9.3</ele>
        <time>2021-05-16T08:58:24Z</time>
      </trkpt>
      <trkpt lat="41.2759390" lon="-8.7283450">
        <ele>9.3</ele>
        <time>2021-05-16T08:58:25Z</time>
      </trkpt>
      <trkpt lat="41.2759520" lon="-8.7283590">
        <ele>9.2</ele>
        <time>2021-05-16T08:58:26Z</time>
      </trkpt>
      <trkpt lat="41.2759630" lon="-8.7283670">
        <ele>9.1</ele>
        <time>2021-05-16T08:58:27Z</time>
      </trkpt>
      <trkpt lat="41.2759760" lon="-8.7283750">
        <ele>9.0</ele>
        <time>2021-05-16T08:58:28Z</time>
      </trkpt>
      <trkpt lat="41.2759870" lon="-8.7283820">
        <ele>9.0</ele>
        <time>2021-05-16T08:58:29Z</time>
      </trkpt>
      <trkpt lat="41.2760020" lon="-8.7283940">
        <ele>8.9</ele>
        <time>2021-05-16T08:58:30Z</time>
      </trkpt>
      <trkpt lat="41.2760120" lon="-8.7284060">
        <ele>8.8</ele>
        <time>2021-05-16T08:58:31Z</time>
      </trkpt>
      <trkpt lat="41.2760260" lon="-8.7284130">
        <ele>8.7</ele>
        <time>2021-05-16T08:58:32Z</time>
      </trkpt>
      <trkpt lat="41.2760390" lon="-8.7284230">
        <ele>8.7</ele>
        <time>2021-05-16T08:58:33Z</time>
      </trkpt>
      <trkpt lat="41.2760550" lon="-8.7284290">
        <ele>8.6</ele>
        <time>2021-05-16T08:58:34Z</time>
      </trkpt>
      <trkpt lat="41.2760650" lon="-8.7284440">
        <ele>8.5</ele>
        <time>2021-05-16T08:58:35Z</time>
      </trkpt>
      <trkpt lat="41.2760770" lon="-8.7284520">
        <ele>8.5</ele>
        <time>2021-05-16T08:58:36Z</time>
      </trkpt>
      <trkpt lat="41.2760890" lon="-8.7284620">
        <ele>8.4</ele>
        <time>2021-05-16T08:58:37Z</time>
      </trkpt>
      <trkpt lat="41.2761010" lon="-8.7284650">
        <ele>8.4</ele>
        <time>2021-05-16T08:58:38Z</time>
      </trkpt>
      <trkpt lat="41.2761100" lon="-8.7284650">
        <ele>8.3</ele>
        <time>2021-05-16T08:58:39Z</time>
      </trkpt>
      <trkpt lat="41.2761310" lon="-8.7284680">
        <ele>8.3</ele>
        <time>2021-05-16T08:58:40Z</time>
      </trkpt>
      <trkpt lat="41.2761400" lon="-8.7284690">
        <ele>8.2</ele>
        <time>2021-05-16T08:58:41Z</time>
      </trkpt>
      <trkpt lat="41.2761480" lon="-8.7284700">
        <ele>8.2</ele>
        <time>2021-05-16T08:58:42Z</time>
      </trkpt>
      <trkpt lat="41.2761600" lon="-8.7284660">
        <ele>8.2</ele>
        <time>2021-05-16T08:58:43Z</time>
      </trkpt>
      <trkpt lat="41.2761710" lon="-8.7284710">
        <ele>8.1</ele>
        <time>2021-05-16T08:58:44Z</time>
      </trkpt>
      <trkpt lat="41.2761830" lon="-8.7284680">
        <ele>8.1</ele>
        <time>2021-05-16T08:58:45Z</time>
      </trkpt>
      <trkpt lat="41.2762040" lon="-8.7284710">
        <ele>8.0</ele>
        <time>2021-05-16T08:58:46Z</time>
      </trkpt>
      <trkpt lat="41.2762120" lon="-8.7284720">
        <ele>8.0</ele>
        <time>2021-05-16T08:58:47Z</time>
      </trkpt>
      <trkpt lat="41.2762200" lon="-8.7284730">
        <ele>8.0</ele>
        <time>2021-05-16T08:58:48Z</time>
      </trkpt>
      <trkpt lat="41.2762320" lon="-8.7284720">
        <ele>7.9</ele>
        <time>2021-05-16T08:58:49Z</time>
      </trkpt>
      <trkpt lat="41.2762450" lon="-8.7284750">
        <ele>7.9</ele>
        <time>2021-05-16T08:58:50Z</time>
      </trkpt>
      <trkpt lat="41.2762540" lon="-8.7284740">
        <ele>7.9</ele>
        <time>2021-05-16T08:58:51Z</time>
      </trkpt>
      <trkpt lat="41.2762700" lon="-8.7284800">
        <ele>7.8</ele>
        <time>2021-05-16T08:58:52Z</time>
      </trkpt>
      <trkpt lat="41.2762820" lon="-8.7284740">
        <ele>7.8</ele>
        <time>2021-05-16T08:58:53Z</time>
      </trkpt>
      <trkpt lat="41.2763030" lon="-8.7284740">
        <ele>7.7</ele>
        <time>2021-05-16T08:58:54Z</time>
      </trkpt>
      <trkpt lat="41.2763120" lon="-8.7284740">
        <ele>7.7</ele>
        <time>2021-05-16T08:58:55Z</time>
      </trkpt>
      <trkpt lat="41.2763210" lon="-8.7284730">
        <ele>7.7</ele>
        <time>2021-05-16T08:58:56Z</time>
      </trkpt>
      <trkpt lat="41.2763380" lon="-8.7284750">
        <ele>7.6</ele>
        <time>2021-05-16T08:58:57Z</time>
      </trkpt>
      <trkpt lat="41.2763400" lon="-8.7284750">
        <ele>7.6</ele>
        <time>2021-05-16T08:58:58Z</time>
      </trkpt>
      <trkpt lat="41.2763430" lon="-8.7284760">
        <ele>7.6</ele>
        <time>2021-05-16T08:58:59Z</time>
      </trkpt>
      <trkpt lat="41.2763460" lon="-8.7284770">
        <ele>7.6</ele>
        <time>2021-05-16T08:59:00Z</time>
      </trkpt>
      <trkpt lat="41.2763490" lon="-8.7284770">
        <ele>7.6</ele>
        <time>2021-05-16T08:59:01Z</time>
      </trkpt>
      <trkpt lat="41.2763510" lon="-8.7284780">
        <ele>7.6</ele>
        <time>2021-05-16T08:59:02Z</time>
      </trkpt>
      <trkpt lat="41.2763540" lon="-8.7284790">
        <ele>7.6</ele>
        <time>2021-05-16T08:59:03Z</time>
      </trkpt>
      <trkpt lat="41.2763570" lon="-8.7284800">
        <ele>7.6</ele>
        <time>2021-05-16T08:59:04Z</time>
      </trkpt>
      <trkpt lat="41.2763590" lon="-8.7284800">
        <ele>7.5</ele>
        <time>2021-05-16T08:59:05Z</time>
      </trkpt>
      <trkpt lat="41.2763620" lon="-8.7284810">
        <ele>7.5</ele>
        <time>2021-05-16T08:59:06Z</time>
      </trkpt>
      <trkpt lat="41.2763830" lon="-8.7284780">
        <ele>7.5</ele>
        <time>2021-05-16T08:59:07Z</time>
      </trkpt>
      <trkpt lat="41.2763920" lon="-8.7284800">
        <ele>7.4</ele>
        <time>2021-05-16T08:59:08Z</time>
      </trkpt>
      <trkpt lat="41.2764020" lon="-8.7284810">
        <ele>7.4</ele>
        <time>2021-05-16T08:59:09Z</time>
      </trkpt>
      <trkpt lat="41.2764190" lon="-8.7284800">
        <ele>7.4</ele>
        <time>2021-05-16T08:59:10Z</time>
      </trkpt>
      <trkpt lat="41.2764300" lon="-8.7284800">
        <ele>7.3</ele>
        <time>2021-05-16T08:59:11Z</time>
      </trkpt>
      <trkpt lat="41.2764530" lon="-8.7284860">
        <ele>7.2</ele>
        <time>2021-05-16T08:59:12Z</time>
      </trkpt>
      <trkpt lat="41.2764620" lon="-8.7284860">
        <ele>7.2</ele>
        <time>2021-05-16T08:59:13Z</time>
      </trkpt>
      <trkpt lat="41.2764700" lon="-8.7284860">
        <ele>7.2</ele>
        <time>2021-05-16T08:59:14Z</time>
      </trkpt>
      <trkpt lat="41.2764890" lon="-8.7284880">
        <ele>7.1</ele>
        <time>2021-05-16T08:59:15Z</time>
      </trkpt>
      <trkpt lat="41.2764980" lon="-8.7284870">
        <ele>7.1</ele>
        <time>2021-05-16T08:59:16Z</time>
      </trkpt>
      <trkpt lat="41.2765070" lon="-8.7284850">
        <ele>7.1</ele>
        <time>2021-05-16T08:59:17Z</time>
      </trkpt>
      <trkpt lat="41.2765230" lon="-8.7284860">
        <ele>7.0</ele>
        <time>2021-05-16T08:59:18Z</time>
      </trkpt>
      <trkpt lat="41.2765380" lon="-8.7284880">
        <ele>7.0</ele>
        <time>2021-05-16T08:59:19Z</time>
      </trkpt>
      <trkpt lat="41.2765520" lon="-8.7284850">
        <ele>6.9</ele>
        <time>2021-05-16T08:59:20Z</time>
      </trkpt>
      <trkpt lat="41.2765700" lon="-8.7284870">
        <ele>6.9</ele>
        <time>2021-05-16T08:59:21Z</time>
      </trkpt>
      <trkpt lat="41.2765830" lon="-8.7284840">
        <ele>6.8</ele>
        <time>2021-05-16T08:59:22Z</time>
      </trkpt>
      <trkpt lat="41.2765980" lon="-8.7284850">
        <ele>6.8</ele>
        <time>2021-05-16T08:59:23Z</time>
      </trkpt>
      <trkpt lat="41.2766150" lon="-8.7284880">
        <ele>6.7</ele>
        <time>2021-05-16T08:59:24Z</time>
      </trkpt>
      <trkpt lat="41.2766270" lon="-8.7284850">
        <ele>6.7</ele>
        <time>2021-05-16T08:59:25Z</time>
      </trkpt>
      <trkpt lat="41.2766420" lon="-8.7284870">
        <ele>6.6</ele>
        <time>2021-05-16T08:59:26Z</time>
      </trkpt>
      <trkpt lat="41.2766560" lon="-8.7284920">
        <ele>6.6</ele>
        <time>2021-05-16T08:59:27Z</time>
      </trkpt>
      <trkpt lat="41.2766670" lon="-8.7285060">
        <ele>6.6</ele>
        <time>2021-05-16T08:59:28Z</time>
      </trkpt>
      <trkpt lat="41.2766760" lon="-8.7285170">
        <ele>6.5</ele>
        <time>2021-05-16T08:59:29Z</time>
      </trkpt>
      <trkpt lat="41.2766880" lon="-8.7285190">
        <ele>6.5</ele>
        <time>2021-05-16T08:59:30Z</time>
      </trkpt>
      <trkpt lat="41.2766930" lon="-8.7285190">
        <ele>6.5</ele>
        <time>2021-05-16T08:59:31Z</time>
      </trkpt>
      <trkpt lat="41.2766880" lon="-8.7285150">
        <ele>6.4</ele>
        <time>2021-05-16T08:59:32Z</time>
      </trkpt>
      <trkpt lat="41.2766790" lon="-8.7285110">
        <ele>6.4</ele>
        <time>2021-05-16T08:59:33Z</time>
      </trkpt>
      <trkpt lat="41.2766750" lon="-8.7285110">
        <ele>6.4</ele>
        <time>2021-05-16T08:59:34Z</time>
      </trkpt>
      <trkpt lat="41.2766730" lon="-8.7285120">
        <ele>6.4</ele>
        <time>2021-05-16T08:59:35Z</time>
      </trkpt>
      <trkpt lat="41.2766720" lon="-8.7285120">
        <ele>6.4</ele>
        <time>2021-05-16T08:59:36Z</time>
      </trkpt>
      <trkpt lat="41.2766690" lon="-8.7285140">
        <ele>6.4</ele>
        <time>2021-05-16T08:59:37Z</time>
      </trkpt>
      <trkpt lat="41.2766680" lon="-8.7285140">
        <ele>6.4</ele>
        <time>2021-05-16T08:59:38Z</time>
      </trkpt>
      <trkpt lat="41.2766660" lon="-8.7285130">
        <ele>6.4</ele>
        <time>2021-05-16T08:59:39Z</time>
      </trkpt>
      <trkpt lat="41.2766640" lon="-8.7285130">
        <ele>6.4</ele>
        <time>2021-05-16T08:59:40Z</time>
      </trkpt>
      <trkpt lat="41.2766600" lon="-8.7285090">
        <ele>6.4</ele>
        <time>2021-05-16T08:59:41Z</time>
      </trkpt>
      <trkpt lat="41.2766560" lon="-8.7285000">
        <ele>6.3</ele>
        <time>2021-05-16T08:59:42Z</time>
      </trkpt>
      <trkpt lat="41.2766570" lon="-8.7284870">
        <ele>6.3</ele>
        <time>2021-05-16T08:59:43Z</time>
      </trkpt>
      <trkpt lat="41.2766670" lon="-8.7284810">
        <ele>6.3</ele>
        <time>2021-05-16T08:59:44Z</time>
      </trkpt>
      <trkpt lat="41.2766820" lon="-8.7284840">
        <ele>6.2</ele>
        <time>2021-05-16T08:59:45Z</time>
      </trkpt>
      <trkpt lat="41.2766970" lon="-8.7284850">
        <ele>6.2</ele>
        <time>2021-05-16T08:59:46Z</time>
      </trkpt>
      <trkpt lat="41.2767130" lon="-8.7284820">
        <ele>6.1</ele>
        <time>2021-05-16T08:59:47Z</time>
      </trkpt>
      <trkpt lat="41.2767300" lon="-8.7284810">
        <ele>6.1</ele>
        <time>2021-05-16T08:59:48Z</time>
      </trkpt>
      <trkpt lat="41.2767510" lon="-8.7284750">
        <ele>6.0</ele>
        <time>2021-05-16T08:59:49Z</time>
      </trkpt>
      <trkpt lat="41.2767600" lon="-8.7284760">
        <ele>6.0</ele>
        <time>2021-05-16T08:59:50Z</time>
      </trkpt>
      <trkpt lat="41.2767690" lon="-8.7284760">
        <ele>6.0</ele>
        <time>2021-05-16T08:59:51Z</time>
      </trkpt>
      <trkpt lat="41.2767890" lon="-8.7284810">
        <ele>6.0</ele>
        <time>2021-05-16T08:59:52Z</time>
      </trkpt>
      <trkpt lat="41.2767980" lon="-8.7284830">
        <ele>5.9</ele>
        <time>2021-05-16T08:59:53Z</time>
      </trkpt>
      <trkpt lat="41.2768080" lon="-8.7284840">
        <ele>5.9</ele>
        <time>2021-05-16T08:59:54Z</time>
      </trkpt>
      <trkpt lat="41.2768320" lon="-8.7284820">
        <ele>5.9</ele>
        <time>2021-05-16T08:59:55Z</time>
      </trkpt>
      <trkpt lat="41.2768410" lon="-8.7284800">
        <ele>5.9</ele>
        <time>2021-05-16T08:59:56Z</time>
      </trkpt>
      <trkpt lat="41.2768500" lon="-8.7284780">
        <ele>5.8</ele>
        <time>2021-05-16T08:59:57Z</time>
      </trkpt>
      <trkpt lat="41.2768780" lon="-8.7284780">
        <ele>5.8</ele>
        <time>2021-05-16T08:59:58Z</time>
      </trkpt>
      <trkpt lat="41.2768880" lon="-8.7284780">
        <ele>5.8</ele>
        <time>2021-05-16T08:59:59Z</time>
      </trkpt>
      <trkpt lat="41.2769000" lon="-8.7284780">
        <ele>5.8</ele>
        <time>2021-05-16T09:00:00Z</time>
      </trkpt>
      <trkpt lat="41.2769150" lon="-8.7284780">
        <ele>5.8</ele>
        <time>2021-05-16T09:00:01Z</time>
      </trkpt>
      <trkpt lat="41.2769280" lon="-8.7284840">
        <ele>5.8</ele>
        <time>2021-05-16T09:00:02Z</time>
      </trkpt>
      <trkpt lat="41.2769430" lon="-8.7284830">
        <ele>5.8</ele>
        <time>2021-05-16T09:00:03Z</time>
      </trkpt>
      <trkpt lat="41.2769580" lon="-8.7284800">
        <ele>5.8</ele>
        <time>2021-05-16T09:00:04Z</time>
      </trkpt>
      <trkpt lat="41.2769720" lon="-8.7284810">
        <ele>5.8</ele>
        <time>2021-05-16T09:00:05Z</time>
      </trkpt>
      <trkpt lat="41.2769860" lon="-8.7284830">
        <ele>5.8</ele>
        <time>2021-05-16T09:00:06Z</time>
      </trkpt>
      <trkpt lat="41.2770020" lon="-8.7284830">
        <ele>5.8</ele>
        <time>2021-05-16T09:00:07Z</time>
      </trkpt>
      <trkpt lat="41.2770160" lon="-8.7284810">
        <ele>5.8</ele>
        <time>2021-05-16T09:00:08Z</time>
      </trkpt>
      <trkpt lat="41.2770320" lon="-8.7284800">
        <ele>5.8</ele>
        <time>2021-05-16T09:00:09Z</time>
      </trkpt>
      <trkpt lat="41.2770460" lon="-8.7284800">
        <ele>5.9</ele>
        <time>2021-05-16T09:00:10Z</time>
      </trkpt>
      <trkpt lat="41.2770620" lon="-8.7284760">
        <ele>5.9</ele>
        <time>2021-05-16T09:00:11Z</time>
      </trkpt>
      <trkpt lat="41.2770780" lon="-8.7284750">
        <ele>5.9</ele>
        <time>2021-05-16T09:00:12Z</time>
      </trkpt>
      <trkpt lat="41.2770920" lon="-8.7284780">
        <ele>5.9</ele>
        <time>2021-05-16T09:00:13Z</time>
      </trkpt>
      <trkpt lat="41.2771060" lon="-8.7284760">
        <ele>5.9</ele>
        <time>2021-05-16T09:00:14Z</time>
      </trkpt>
      <trkpt lat="41.2771210" lon="-8.7284750">
        <ele>5.9</ele>
        <time>2021-05-16T09:00:15Z</time>
      </trkpt>
      <trkpt lat="41.2771360" lon="-8.7284750">
        <ele>5.9</ele>
        <time>2021-05-16T09:00:16Z</time>
      </trkpt>
      <trkpt lat="41.2771500" lon="-8.7284760">
        <ele>6.0</ele>
        <time>2021-05-16T09:00:17Z</time>
      </trkpt>
      <trkpt lat="41.2771650" lon="-8.7284770">
        <ele>6.0</ele>
        <time>2021-05-16T09:00:18Z</time>
      </trkpt>
      <trkpt lat="41.2771790" lon="-8.7284780">
        <ele>6.0</ele>
        <time>2021-05-16T09:00:19Z</time>
      </trkpt>
      <trkpt lat="41.2771940" lon="-8.7284750">
        <ele>6.0</ele>
        <time>2021-05-16T09:00:20Z</time>
      </trkpt>
      <trkpt lat="41.2772080" lon="-8.7284770">
        <ele>6.0</ele>
        <time>2021-05-16T09:00:21Z</time>
      </trkpt>
      <trkpt lat="41.2772220" lon="-8.7284780">
        <ele>6.0</ele>
        <time>2021-05-16T09:00:22Z</time>
      </trkpt>
      <trkpt lat="41.2772370" lon="-8.7284790">
        <ele>6.0</ele>
        <time>2021-05-16T09:00:23Z</time>
      </trkpt>
      <trkpt lat="41.2772510" lon="-8.7284770">
        <ele>6.0</ele>
        <time>2021-05-16T09:00:24Z</time>
      </trkpt>
      <trkpt lat="41.2772660" lon="-8.7284800">
        <ele>6.0</ele>
        <time>2021-05-16T09:00:25Z</time>
      </trkpt>
      <trkpt lat="41.2772810" lon="-8.7284780">
        <ele>6.0</ele>
        <time>2021-05-16T09:00:26Z</time>
      </trkpt>
      <trkpt lat="41.2772960" lon="-8.7284800">
        <ele>6.0</ele>
        <time>2021-05-16T09:00:27Z</time>
      </trkpt>
      <trkpt lat="41.2773100" lon="-8.7284780">
        <ele>6.1</ele>
        <time>2021-05-16T09:00:28Z</time>
      </trkpt>
      <trkpt lat="41.2773250" lon="-8.7284770">
        <ele>6.1</ele>
        <time>2021-05-16T09:00:29Z</time>
      </trkpt>
      <trkpt lat="41.2773410" lon="-8.7284760">
        <ele>6.1</ele>
        <time>2021-05-16T09:00:30Z</time>
      </trkpt>
      <trkpt lat="41.2773560" lon="-8.7284780">
        <ele>6.1</ele>
        <time>2021-05-16T09:00:31Z</time>
      </trkpt>
      <trkpt lat="41.2773710" lon="-8.7284760">
        <ele>6.1</ele>
        <time>2021-05-16T09:00:32Z</time>
      </trkpt>
      <trkpt lat="41.2773850" lon="-8.7284750">
        <ele>6.1</ele>
        <time>2021-05-16T09:00:33Z</time>
      </trkpt>
      <trkpt lat="41.2773990" lon="-8.7284690">
        <ele>6.1</ele>
        <time>2021-05-16T09:00:34Z</time>
      </trkpt>
      <trkpt lat="41.2774140" lon="-8.7284700">
        <ele>6.1</ele>
        <time>2021-05-16T09:00:35Z</time>
      </trkpt>
      <trkpt lat="41.2774270" lon="-8.7284650">
        <ele>6.1</ele>
        <time>2021-05-16T09:00:36Z</time>
      </trkpt>
      <trkpt lat="41.2774410" lon="-8.7284590">
        <ele>6.1</ele>
        <time>2021-05-16T09:00:37Z</time>
      </trkpt>
      <trkpt lat="41.2774550" lon="-8.7284590">
        <ele>6.1</ele>
        <time>2021-05-16T09:00:38Z</time>
      </trkpt>
      <trkpt lat="41.2774700" lon="-8.7284570">
        <ele>6.1</ele>
        <time>2021-05-16T09:00:39Z</time>
      </trkpt>
      <trkpt lat="41.2774850" lon="-8.7284550">
        <ele>6.1</ele>
        <time>2021-05-16T09:00:40Z</time>
      </trkpt>
      <trkpt lat="41.2774980" lon="-8.7284480">
        <ele>6.1</ele>
        <time>2021-05-16T09:00:41Z</time>
      </trkpt>
      <trkpt lat="41.2775120" lon="-8.7284430">
        <ele>6.1</ele>
        <time>2021-05-16T09:00:42Z</time>
      </trkpt>
      <trkpt lat="41.2775250" lon="-8.7284350">
        <ele>6.0</ele>
        <time>2021-05-16T09:00:43Z</time>
      </trkpt>
      <trkpt lat="41.2775380" lon="-8.7284280">
        <ele>6.0</ele>
        <time>2021-05-16T09:00:44Z</time>
      </trkpt>
      <trkpt lat="41.2775530" lon="-8.7284220">
        <ele>6.0</ele>
        <time>2021-05-16T09:00:45Z</time>
      </trkpt>
      <trkpt lat="41.2775650" lon="-8.7284150">
        <ele>6.0</ele>
        <time>2021-05-16T09:00:46Z</time>
      </trkpt>
      <trkpt lat="41.2775800" lon="-8.7284100">
        <ele>6.0</ele>
        <time>2021-05-16T09:00:47Z</time>
      </trkpt>
      <trkpt lat="41.2775940" lon="-8.7284040">
        <ele>5.9</ele>
        <time>2021-05-16T09:00:48Z</time>
      </trkpt>
      <trkpt lat="41.2776080" lon="-8.7284060">
        <ele>5.9</ele>
        <time>2021-05-16T09:00:49Z</time>
      </trkpt>
      <trkpt lat="41.2776210" lon="-8.7283990">
        <ele>5.9</ele>
        <time>2021-05-16T09:00:50Z</time>
      </trkpt>
      <trkpt lat="41.2776360" lon="-8.7283970">
        <ele>5.9</ele>
        <time>2021-05-16T09:00:51Z</time>
      </trkpt>
      <trkpt lat="41.2776510" lon="-8.7283970">
        <ele>5.8</ele>
        <time>2021-05-16T09:00:52Z</time>
      </trkpt>
      <trkpt lat="41.2776660" lon="-8.7283950">
        <ele>5.8</ele>
        <time>2021-05-16T09:00:53Z</time>
      </trkpt>
      <trkpt lat="41.2776790" lon="-8.7283880">
        <ele>5.8</ele>
        <time>2021-05-16T09:00:54Z</time>
      </trkpt>
      <trkpt lat="41.2776910" lon="-8.7283830">
        <ele>5.8</ele>
        <time>2021-05-16T09:00:55Z</time>
      </trkpt>
      <trkpt lat="41.2777050" lon="-8.7283810">
        <ele>5.7</ele>
        <time>2021-05-16T09:00:56Z</time>
      </trkpt>
      <trkpt lat="41.2777210" lon="-8.7283790">
        <ele>5.7</ele>
        <time>2021-05-16T09:00:57Z</time>
      </trkpt>
      <trkpt lat="41.2777320" lon="-8.7283680">
        <ele>5.7</ele>
        <time>2021-05-16T09:00:58Z</time>
      </trkpt>
      <trkpt lat="41.2777470" lon="-8.7283660">
        <ele>5.6</ele>
        <time>2021-05-16T09:00:59Z</time>
      </trkpt>
      <trkpt lat="41.2777600" lon="-8.7283610">
        <ele>5.6</ele>
        <time>2021-05-16T09:01:00Z</time>
      </trkpt>
      <trkpt lat="41.2777730" lon="-8.7283530">
        <ele>5.6</ele>
        <time>2021-05-16T09:01:01Z</time>
      </trkpt>
      <trkpt lat="41.2777870" lon="-8.7283490">
        <ele>5.6</ele>
        <time>2021-05-16T09:01:02Z</time>
      </trkpt>
      <trkpt lat="41.2777990" lon="-8.7283430">
        <ele>5.5</ele>
        <time>2021-05-16T09:01:03Z</time>
      </trkpt>
      <trkpt lat="41.2778200" lon="-8.7283370">
        <ele>5.5</ele>
        <time>2021-05-16T09:01:04Z</time>
      </trkpt>
      <trkpt lat="41.2778290" lon="-8.7283350">
        <ele>5.5</ele>
        <time>2021-05-16T09:01:05Z</time>
      </trkpt>
      <trkpt lat="41.2778370" lon="-8.7283320">
        <ele>5.4</ele>
        <time>2021-05-16T09:01:06Z</time>
      </trkpt>
      <trkpt lat="41.2778510" lon="-8.7283290">
        <ele>5.4</ele>
        <time>2021-05-16T09:01:07Z</time>
      </trkpt>
      <trkpt lat="41.2778660" lon="-8.7283270">
        <ele>5.4</ele>
        <time>2021-05-16T09:01:08Z</time>
      </trkpt>
      <trkpt lat="41.2778790" lon="-8.7283220">
        <ele>5.4</ele>
        <time>2021-05-16T09:01:09Z</time>
      </trkpt>
      <trkpt lat="41.2778910" lon="-8.7283140">
        <ele>5.3</ele>
        <time>2021-05-16T09:01:10Z</time>
      </trkpt>
      <trkpt lat="41.2779060" lon="-8.7283110">
        <ele>5.3</ele>
        <time>2021-05-16T09:01:11Z</time>
      </trkpt>
      <trkpt lat="41.2779200" lon="-8.7283040">
        <ele>5.3</ele>
        <time>2021-05-16T09:01:12Z</time>
      </trkpt>
      <trkpt lat="41.2779420" lon="-8.7282950">
        <ele>5.3</ele>
        <time>2021-05-16T09:01:13Z</time>
      </trkpt>
      <trkpt lat="41.2779500" lon="-8.7282920">
        <ele>5.3</ele>
        <time>2021-05-16T09:01:14Z</time>
      </trkpt>
      <trkpt lat="41.2779590" lon="-8.7282880">
        <ele>5.3</ele>
        <time>2021-05-16T09:01:15Z</time>
      </trkpt>
      <trkpt lat="41.2779780" lon="-8.7282810">
        <ele>5.3</ele>
        <time>2021-05-16T09:01:16Z</time>
      </trkpt>
      <trkpt lat="41.2779880" lon="-8.7282790">
        <ele>5.3</ele>
        <time>2021-05-16T09:01:17Z</time>
      </trkpt>
      <trkpt lat="41.2779970" lon="-8.7282760">
        <ele>5.3</ele>
        <time>2021-05-16T09:01:18Z</time>
      </trkpt>
      <trkpt lat="41.2780110" lon="-8.7282790">
        <ele>5.3</ele>
        <time>2021-05-16T09:01:19Z</time>
      </trkpt>
      <trkpt lat="41.2780250" lon="-8.7282800">
        <ele>5.2</ele>
        <time>2021-05-16T09:01:20Z</time>
      </trkpt>
      <trkpt lat="41.2780470" lon="-8.7282840">
        <ele>5.2</ele>
        <time>2021-05-16T09:01:21Z</time>
      </trkpt>
      <trkpt lat="41.2780560" lon="-8.7282860">
        <ele>5.2</ele>
        <time>2021-05-16T09:01:22Z</time>
      </trkpt>
      <trkpt lat="41.2780650" lon="-8.7282890">
        <ele>5.2</ele>
        <time>2021-05-16T09:01:23Z</time>
      </trkpt>
      <trkpt lat="41.2780860" lon="-8.7282910">
        <ele>5.2</ele>
        <time>2021-05-16T09:01:24Z</time>
      </trkpt>
      <trkpt lat="41.2780960" lon="-8.7282930">
        <ele>5.2</ele>
        <time>2021-05-16T09:01:25Z</time>
      </trkpt>
      <trkpt lat="41.2781050" lon="-8.7282960">
        <ele>5.2</ele>
        <time>2021-05-16T09:01:26Z</time>
      </trkpt>
      <trkpt lat="41.2781190" lon="-8.7282960">
        <ele>5.2</ele>
        <time>2021-05-16T09:01:27Z</time>
      </trkpt>
      <trkpt lat="41.2781330" lon="-8.7283030">
        <ele>5.2</ele>
        <time>2021-05-16T09:01:28Z</time>
      </trkpt>
      <trkpt lat="41.2781460" lon="-8.7283080">
        <ele>5.2</ele>
        <time>2021-05-16T09:01:29Z</time>
      </trkpt>
      <trkpt lat="41.2781590" lon="-8.7283130">
        <ele>5.2</ele>
        <time>2021-05-16T09:01:30Z</time>
      </trkpt>
      <trkpt lat="41.2781760" lon="-8.7283140">
        <ele>5.2</ele>
        <time>2021-05-16T09:01:31Z</time>
      </trkpt>
      <trkpt lat="41.2781900" lon="-8.7283200">
        <ele>5.2</ele>
        <time>2021-05-16T09:01:32Z</time>
      </trkpt>
      <trkpt lat="41.2782030" lon="-8.7283220">
        <ele>5.2</ele>
        <time>2021-05-16T09:01:33Z</time>
      </trkpt>
      <trkpt lat="41.2782170" lon="-8.7283300">
        <ele>5.2</ele>
        <time>2021-05-16T09:01:34Z</time>
      </trkpt>
      <trkpt lat="41.2782290" lon="-8.7283390">
        <ele>5.2</ele>
        <time>2021-05-16T09:01:35Z</time>
      </trkpt>
      <trkpt lat="41.2782410" lon="-8.7283410">
        <ele>5.2</ele>
        <time>2021-05-16T09:01:36Z</time>
      </trkpt>
      <trkpt lat="41.2782500" lon="-8.7283450">
        <ele>5.2</ele>
        <time>2021-05-16T09:01:37Z</time>
      </trkpt>
      <trkpt lat="41.2782650" lon="-8.7283500">
        <ele>5.2</ele>
        <time>2021-05-16T09:01:38Z</time>
      </trkpt>
      <trkpt lat="41.2782800" lon="-8.7283580">
        <ele>5.2</ele>
        <time>2021-05-16T09:01:39Z</time>
      </trkpt>
      <trkpt lat="41.2782990" lon="-8.7283670">
        <ele>5.2</ele>
        <time>2021-05-16T09:01:40Z</time>
      </trkpt>
      <trkpt lat="41.2783080" lon="-8.7283700">
        <ele>5.2</ele>
        <time>2021-05-16T09:01:41Z</time>
      </trkpt>
      <trkpt lat="41.2783160" lon="-8.7283730">
        <ele>5.2</ele>
        <time>2021-05-16T09:01:42Z</time>
      </trkpt>
      <trkpt lat="41.2783310" lon="-8.7283770">
        <ele>5.2</ele>
        <time>2021-05-16T09:01:43Z</time>
      </trkpt>
      <trkpt lat="41.2783440" lon="-8.7283840">
        <ele>5.2</ele>
        <time>2021-05-16T09:01:44Z</time>
      </trkpt>
      <trkpt lat="41.2783560" lon="-8.7283940">
        <ele>5.3</ele>
        <time>2021-05-16T09:01:45Z</time>
      </trkpt>
      <trkpt lat="41.2783680" lon="-8.7284010">
        <ele>5.3</ele>
        <time>2021-05-16T09:01:46Z</time>
      </trkpt>
      <trkpt lat="41.2783800" lon="-8.7284110">
        <ele>5.3</ele>
        <time>2021-05-16T09:01:47Z</time>
      </trkpt>
      <trkpt lat="41.2783930" lon="-8.7284190">
        <ele>5.3</ele>
        <time>2021-05-16T09:01:48Z</time>
      </trkpt>
      <trkpt lat="41.2784080" lon="-8.7284250">
        <ele>5.3</ele>
        <time>2021-05-16T09:01:49Z</time>
      </trkpt>
      <trkpt lat="41.2784230" lon="-8.7284280">
        <ele>5.4</ele>
        <time>2021-05-16T09:01:50Z</time>
      </trkpt>
      <trkpt lat="41.2784380" lon="-8.7284260">
        <ele>5.4</ele>
        <time>2021-05-16T09:01:51Z</time>
      </trkpt>
      <trkpt lat="41.2784540" lon="-8.7284170">
        <ele>5.5</ele>
        <time>2021-05-16T09:01:52Z</time>
      </trkpt>
      <trkpt lat="41.2784700" lon="-8.7284110">
        <ele>5.5</ele>
        <time>2021-05-16T09:01:53Z</time>
      </trkpt>
      <trkpt lat="41.2784850" lon="-8.7283980">
        <ele>5.6</ele>
        <time>2021-05-16T09:01:54Z</time>
      </trkpt>
      <trkpt lat="41.2784990" lon="-8.7283910">
        <ele>5.7</ele>
        <time>2021-05-16T09:01:55Z</time>
      </trkpt>
      <trkpt lat="41.2785130" lon="-8.7283910">
        <ele>5.7</ele>
        <time>2021-05-16T09:01:56Z</time>
      </trkpt>
      <trkpt lat="41.2785280" lon="-8.7283880">
        <ele>5.8</ele>
        <time>2021-05-16T09:01:57Z</time>
      </trkpt>
      <trkpt lat="41.2785420" lon="-8.7283950">
        <ele>5.8</ele>
        <time>2021-05-16T09:01:58Z</time>
      </trkpt>
      <trkpt lat="41.2785610" lon="-8.7284080">
        <ele>5.9</ele>
        <time>2021-05-16T09:01:59Z</time>
      </trkpt>
      <trkpt lat="41.2785690" lon="-8.7284110">
        <ele>5.9</ele>
        <time>2021-05-16T09:02:00Z</time>
      </trkpt>
      <trkpt lat="41.2785770" lon="-8.7284130">
        <ele>5.9</ele>
        <time>2021-05-16T09:02:01Z</time>
      </trkpt>
      <trkpt lat="41.2785890" lon="-8.7284130">
        <ele>6.0</ele>
        <time>2021-05-16T09:02:02Z</time>
      </trkpt>
      <trkpt lat="41.2786050" lon="-8.7284110">
        <ele>6.0</ele>
        <time>2021-05-16T09:02:03Z</time>
      </trkpt>
      <trkpt lat="41.2786200" lon="-8.7284140">
        <ele>6.1</ele>
        <time>2021-05-16T09:02:04Z</time>
      </trkpt>
      <trkpt lat="41.2786330" lon="-8.7284160">
        <ele>6.1</ele>
        <time>2021-05-16T09:02:05Z</time>
      </trkpt>
      <trkpt lat="41.2786460" lon="-8.7284140">
        <ele>6.1</ele>
        <time>2021-05-16T09:02:06Z</time>
      </trkpt>
      <trkpt lat="41.2786600" lon="-8.7284190">
        <ele>6.2</ele>
        <time>2021-05-16T09:02:07Z</time>
      </trkpt>
      <trkpt lat="41.2786720" lon="-8.7284240">
        <ele>6.2</ele>
        <time>2021-05-16T09:02:08Z</time>
      </trkpt>
      <trkpt lat="41.2786860" lon="-8.7284300">
        <ele>6.2</ele>
        <time>2021-05-16T09:02:09Z</time>
      </trkpt>
      <trkpt lat="41.2786980" lon="-8.7284360">
        <ele>6.2</ele>
        <time>2021-05-16T09:02:10Z</time>
      </trkpt>
      <trkpt lat="41.2787080" lon="-8.7284450">
        <ele>6.3</ele>
        <time>2021-05-16T09:02:11Z</time>
      </trkpt>
      <trkpt lat="41.2787170" lon="-8.7284530">
        <ele>6.3</ele>
        <time>2021-05-16T09:02:12Z</time>
      </trkpt>
      <trkpt lat="41.2787320" lon="-8.7284630">
        <ele>6.3</ele>
        <time>2021-05-16T09:02:13Z</time>
      </trkpt>
      <trkpt lat="41.2787450" lon="-8.7284750">
        <ele>6.3</ele>
        <time>2021-05-16T09:02:14Z</time>
      </trkpt>
      <trkpt lat="41.2787650" lon="-8.7284840">
        <ele>6.3</ele>
        <time>2021-05-16T09:02:15Z</time>
      </trkpt>
      <trkpt lat="41.2787730" lon="-8.7284880">
        <ele>6.4</ele>
        <time>2021-05-16T09:02:16Z</time>
      </trkpt>
      <trkpt lat="41.2787820" lon="-8.7284910">
        <ele>6.4</ele>
        <time>2021-05-16T09:02:17Z</time>
      </trkpt>
      <trkpt lat="41.2788000" lon="-8.7284880">
        <ele>6.4</ele>
        <time>2021-05-16T09:02:18Z</time>
      </trkpt>
      <trkpt lat="41.2788120" lon="-8.7284910">
        <ele>6.4</ele>
        <time>2021-05-16T09:02:19Z</time>
      </trkpt>
      <trkpt lat="41.2788230" lon="-8.7284930">
        <ele>6.4</ele>
        <time>2021-05-16T09:02:20Z</time>
      </trkpt>
      <trkpt lat="41.2788370" lon="-8.7285040">
        <ele>6.4</ele>
        <time>2021-05-16T09:02:21Z</time>
      </trkpt>
      <trkpt lat="41.2788510" lon="-8.7285050">
        <ele>6.4</ele>
        <time>2021-05-16T09:02:22Z</time>
      </trkpt>
      <trkpt lat="41.2788690" lon="-8.7285100">
        <ele>6.4</ele>
        <time>2021-05-16T09:02:23Z</time>
      </trkpt>
      <trkpt lat="41.2788860" lon="-8.7285070">
        <ele>6.4</ele>
        <time>2021-05-16T09:02:24Z</time>
      </trkpt>
      <trkpt lat="41.2789010" lon="-8.7285070">
        <ele>6.4</ele>
        <time>2021-05-16T09:02:25Z</time>
      </trkpt>
      <trkpt lat="41.2789180" lon="-8.7285110">
        <ele>6.4</ele>
        <time>2021-05-16T09:02:26Z</time>
      </trkpt>
      <trkpt lat="41.2789330" lon="-8.7285160">
        <ele>6.4</ele>
        <time>2021-05-16T09:02:27Z</time>
      </trkpt>
      <trkpt lat="41.2789500" lon="-8.7285210">
        <ele>6.5</ele>
        <time>2021-05-16T09:02:28Z</time>
      </trkpt>
      <trkpt lat="41.2789660" lon="-8.7285290">
        <ele>6.5</ele>
        <time>2021-05-16T09:02:29Z</time>
      </trkpt>
      <trkpt lat="41.2789820" lon="-8.7285300">
        <ele>6.5</ele>
        <time>2021-05-16T09:02:30Z</time>
      </trkpt>
      <trkpt lat="41.2789960" lon="-8.7285390">
        <ele>6.5</ele>
        <time>2021-05-16T09:02:31Z</time>
      </trkpt>
      <trkpt lat="41.2790110" lon="-8.7285470">
        <ele>6.5</ele>
        <time>2021-05-16T09:02:32Z</time>
      </trkpt>
      <trkpt lat="41.2790240" lon="-8.7285540">
        <ele>6.5</ele>
        <time>2021-05-16T09:02:33Z</time>
      </trkpt>
      <trkpt lat="41.2790370" lon="-8.7285610">
        <ele>6.5</ele>
        <time>2021-05-16T09:02:34Z</time>
      </trkpt>
      <trkpt lat="41.2790530" lon="-8.7285690">
        <ele>6.5</ele>
        <time>2021-05-16T09:02:35Z</time>
      </trkpt>
      <trkpt lat="41.2790690" lon="-8.7285700">
        <ele>6.5</ele>
        <time>2021-05-16T09:02:36Z</time>
      </trkpt>
      <trkpt lat="41.2790850" lon="-8.7285790">
        <ele>6.5</ele>
        <time>2021-05-16T09:02:37Z</time>
      </trkpt>
      <trkpt lat="41.2790960" lon="-8.7285810">
        <ele>6.5</ele>
        <time>2021-05-16T09:02:38Z</time>
      </trkpt>
      <trkpt lat="41.2791110" lon="-8.7285880">
        <ele>6.5</ele>
        <time>2021-05-16T09:02:39Z</time>
      </trkpt>
      <trkpt lat="41.2791230" lon="-8.7285950">
        <ele>6.5</ele>
        <time>2021-05-16T09:02:40Z</time>
      </trkpt>
      <trkpt lat="41.2791380" lon="-8.7285950">
        <ele>6.5</ele>
        <time>2021-05-16T09:02:41Z</time>
      </trkpt>
      <trkpt lat="41.2791540" lon="-8.7285950">
        <ele>6.5</ele>
        <time>2021-05-16T09:02:42Z</time>
      </trkpt>
      <trkpt lat="41.2791670" lon="-8.7285970">
        <ele>6.5</ele>
        <time>2021-05-16T09:02:43Z</time>
      </trkpt>
      <trkpt lat="41.2791820" lon="-8.7286030">
        <ele>6.5</ele>
        <time>2021-05-16T09:02:44Z</time>
      </trkpt>
      <trkpt lat="41.2791950" lon="-8.7286090">
        <ele>6.5</ele>
        <time>2021-05-16T09:02:45Z</time>
      </trkpt>
      <trkpt lat="41.2792110" lon="-8.7286120">
        <ele>6.5</ele>
        <time>2021-05-16T09:02:46Z</time>
      </trkpt>
      <trkpt lat="41.2792220" lon="-8.7286180">
        <ele>6.5</ele>
        <time>2021-05-16T09:02:47Z</time>
      </trkpt>
      <trkpt lat="41.2792370" lon="-8.7286260">
        <ele>6.5</ele>
        <time>2021-05-16T09:02:48Z</time>
      </trkpt>
      <trkpt lat="41.2792500" lon="-8.7286340">
        <ele>6.5</ele>
        <time>2021-05-16T09:02:49Z</time>
      </trkpt>
      <trkpt lat="41.2792620" lon="-8.7286440">
        <ele>6.5</ele>
        <time>2021-05-16T09:02:50Z</time>
      </trkpt>
      <trkpt lat="41.2792760" lon="-8.7286550">
        <ele>6.6</ele>
        <time>2021-05-16T09:02:51Z</time>
      </trkpt>
      <trkpt lat="41.2792880" lon="-8.7286670">
        <ele>6.6</ele>
        <time>2021-05-16T09:02:52Z</time>
      </trkpt>
      <trkpt lat="41.2793010" lon="-8.7286800">
        <ele>6.6</ele>
        <time>2021-05-16T09:02:53Z</time>
      </trkpt>
      <trkpt lat="41.2793150" lon="-8.7286900">
        <ele>6.6</ele>
        <time>2021-05-16T09:02:54Z</time>
      </trkpt>
      <trkpt lat="41.2793280" lon="-8.7287050">
        <ele>6.6</ele>
        <time>2021-05-16T09:02:55Z</time>
      </trkpt>
      <trkpt lat="41.2793430" lon="-8.7287150">
        <ele>6.7</ele>
        <time>2021-05-16T09:02:56Z</time>
      </trkpt>
      <trkpt lat="41.2793530" lon="-8.7287280">
        <ele>6.7</ele>
        <time>2021-05-16T09:02:57Z</time>
      </trkpt>
      <trkpt lat="41.2793660" lon="-8.7287420">
        <ele>6.7</ele>
        <time>2021-05-16T09:02:58Z</time>
      </trkpt>
      <trkpt lat="41.2793760" lon="-8.7287520">
        <ele>6.7</ele>
        <time>2021-05-16T09:02:59Z</time>
      </trkpt>
      <trkpt lat="41.2793890" lon="-8.7287660">
        <ele>6.7</ele>
        <time>2021-05-16T09:03:00Z</time>
      </trkpt>
      <trkpt lat="41.2794040" lon="-8.7287730">
        <ele>6.7</ele>
        <time>2021-05-16T09:03:01Z</time>
      </trkpt>
      <trkpt lat="41.2794150" lon="-8.7287830">
        <ele>6.8</ele>
        <time>2021-05-16T09:03:02Z</time>
      </trkpt>
      <trkpt lat="41.2794320" lon="-8.7287970">
        <ele>6.8</ele>
        <time>2021-05-16T09:03:03Z</time>
      </trkpt>
      <trkpt lat="41.2794390" lon="-8.7288030">
        <ele>6.8</ele>
        <time>2021-05-16T09:03:04Z</time>
      </trkpt>
      <trkpt lat="41.2794470" lon="-8.7288090">
        <ele>6.8</ele>
        <time>2021-05-16T09:03:05Z</time>
      </trkpt>
      <trkpt lat="41.2794570" lon="-8.7288170">
        <ele>6.8</ele>
        <time>2021-05-16T09:03:06Z</time>
      </trkpt>
      <trkpt lat="41.2794700" lon="-8.7288280">
        <ele>6.9</ele>
        <time>2021-05-16T09:03:07Z</time>
      </trkpt>
      <trkpt lat="41.2794900" lon="-8.7288430">
        <ele>6.9</ele>
        <time>2021-05-16T09:03:08Z</time>
      </trkpt>
      <trkpt lat="41.2794980" lon="-8.7288490">
        <ele>6.9</ele>
        <time>2021-05-16T09:03:09Z</time>
      </trkpt>
      <trkpt lat="41.2795060" lon="-8.7288560">
        <ele>6.9</ele>
        <time>2021-05-16T09:03:10Z</time>
      </trkpt>
      <trkpt lat="41.2795170" lon="-8.7288690">
        <ele>7.0</ele>
        <time>2021-05-16T09:03:11Z</time>
      </trkpt>
      <trkpt lat="41.2795300" lon="-8.7288800">
        <ele>7.0</ele>
        <time>2021-05-16T09:03:12Z</time>
      </trkpt>
      <trkpt lat="41.2795460" lon="-8.7288890">
        <ele>7.1</ele>
        <time>2021-05-16T09:03:13Z</time>
      </trkpt>
      <trkpt lat="41.2795600" lon="-8.7288980">
        <ele>7.1</ele>
        <time>2021-05-16T09:03:14Z</time>
      </trkpt>
      <trkpt lat="41.2795700" lon="-8.7289110">
        <ele>7.2</ele>
        <time>2021-05-16T09:03:15Z</time>
      </trkpt>
      <trkpt lat="41.2795800" lon="-8.7289250">
        <ele>7.3</ele>
        <time>2021-05-16T09:03:16Z</time>
      </trkpt>
      <trkpt lat="41.2795930" lon="-8.7289380">
        <ele>7.3</ele>
        <time>2021-05-16T09:03:17Z</time>
      </trkpt>
      <trkpt lat="41.2796020" lon="-8.7289510">
        <ele>7.4</ele>
        <time>2021-05-16T09:03:18Z</time>
      </trkpt>
      <trkpt lat="41.2796210" lon="-8.7289710">
        <ele>7.6</ele>
        <time>2021-05-16T09:03:19Z</time>
      </trkpt>
      <trkpt lat="41.2796290" lon="-8.7289770">
        <ele>7.7</ele>
        <time>2021-05-16T09:03:20Z</time>
      </trkpt>
      <trkpt lat="41.2796370" lon="-8.7289840">
        <ele>7.8</ele>
        <time>2021-05-16T09:03:21Z</time>
      </trkpt>
      <trkpt lat="41.2796490" lon="-8.7289950">
        <ele>7.9</ele>
        <time>2021-05-16T09:03:22Z</time>
      </trkpt>
      <trkpt lat="41.2796590" lon="-8.7290100">
        <ele>8.1</ele>
        <time>2021-05-16T09:03:23Z</time>
      </trkpt>
      <trkpt lat="41.2796740" lon="-8.7290290">
        <ele>8.4</ele>
        <time>2021-05-16T09:03:24Z</time>
      </trkpt>
      <trkpt lat="41.2796800" lon="-8.7290370">
        <ele>8.5</ele>
        <time>2021-05-16T09:03:25Z</time>
      </trkpt>
      <trkpt lat="41.2796860" lon="-8.7290450">
        <ele>8.6</ele>
        <time>2021-05-16T09:03:26Z</time>
      </trkpt>
      <trkpt lat="41.2796980" lon="-8.7290600">
        <ele>8.9</ele>
        <time>2021-05-16T09:03:27Z</time>
      </trkpt>
      <trkpt lat="41.2797070" lon="-8.7290670">
        <ele>9.0</ele>
        <time>2021-05-16T09:03:28Z</time>
      </trkpt>
      <trkpt lat="41.2797240" lon="-8.7290650">
        <ele>9.3</ele>
        <time>2021-05-16T09:03:29Z</time>
      </trkpt>
      <trkpt lat="41.2797310" lon="-8.7290590">
        <ele>9.4</ele>
        <time>2021-05-16T09:03:30Z</time>
      </trkpt>
      <trkpt lat="41.2797370" lon="-8.7290540">
        <ele>9.6</ele>
        <time>2021-05-16T09:03:31Z</time>
      </trkpt>
      <trkpt lat="41.2797430" lon="-8.7290480">
        <ele>9.7</ele>
        <time>2021-05-16T09:03:32Z</time>
      </trkpt>
      <trkpt lat="41.2797470" lon="-8.7290450">
        <ele>9.8</ele>
        <time>2021-05-16T09:03:33Z</time>
      </trkpt>
      <trkpt lat="41.2797520" lon="-8.7290410">
        <ele>9.9</ele>
        <time>2021-05-16T09:03:34Z</time>
      </trkpt>
      <trkpt lat="41.2797650" lon="-8.7290310">
        <ele>10.1</ele>
        <time>2021-05-16T09:03:35Z</time>
      </trkpt>
      <trkpt lat="41.2797680" lon="-8.7290310">
        <ele>10.2</ele>
        <time>2021-05-16T09:03:36Z</time>
      </trkpt>
      <trkpt lat="41.2797790" lon="-8.7290250">
        <ele>10.4</ele>
        <time>2021-05-16T09:03:37Z</time>
      </trkpt>
      <trkpt lat="41.2797790" lon="-8.7290280">
        <ele>10.4</ele>
        <time>2021-05-16T09:03:38Z</time>
      </trkpt>
      <trkpt lat="41.2797830" lon="-8.7290360">
        <ele>10.5</ele>
        <time>2021-05-16T09:03:39Z</time>
      </trkpt>
      <trkpt lat="41.2797800" lon="-8.7290390">
        <ele>10.6</ele>
        <time>2021-05-16T09:03:40Z</time>
      </trkpt>
      <trkpt lat="41.2797790" lon="-8.7290420">
        <ele>10.7</ele>
        <time>2021-05-16T09:03:41Z</time>
      </trkpt>
      <trkpt lat="41.2797870" lon="-8.7290510">
        <ele>10.8</ele>
        <time>2021-05-16T09:03:42Z</time>
      </trkpt>
      <trkpt lat="41.2797930" lon="-8.7290630">
        <ele>11.0</ele>
        <time>2021-05-16T09:03:43Z</time>
      </trkpt>
      <trkpt lat="41.2797950" lon="-8.7290660">
        <ele>11.1</ele>
        <time>2021-05-16T09:03:44Z</time>
      </trkpt>
      <trkpt lat="41.2798000" lon="-8.7290640">
        <ele>11.1</ele>
        <time>2021-05-16T09:03:45Z</time>
      </trkpt>
      <trkpt lat="41.2798230" lon="-8.7290680">
        <ele>11.5</ele>
        <time>2021-05-16T09:03:46Z</time>
      </trkpt>
      <trkpt lat="41.2798400" lon="-8.7290710">
        <ele>11.8</ele>
        <time>2021-05-16T09:03:47Z</time>
      </trkpt>
      <trkpt lat="41.2798450" lon="-8.7290740">
        <ele>11.8</ele>
        <time>2021-05-16T09:03:48Z</time>
      </trkpt>
      <trkpt lat="41.2798560" lon="-8.7290780">
        <ele>12.0</ele>
        <time>2021-05-16T09:03:49Z</time>
      </trkpt>
      <trkpt lat="41.2798760" lon="-8.7290830">
        <ele>12.3</ele>
        <time>2021-05-16T09:03:50Z</time>
      </trkpt>
      <trkpt lat="41.2798800" lon="-8.7290850">
        <ele>12.3</ele>
        <time>2021-05-16T09:03:51Z</time>
      </trkpt>
      <trkpt lat="41.2798840" lon="-8.7290880">
        <ele>12.4</ele>
        <time>2021-05-16T09:03:52Z</time>
      </trkpt>
      <trkpt lat="41.2798870" lon="-8.7290910">
        <ele>12.4</ele>
        <time>2021-05-16T09:03:53Z</time>
      </trkpt>
      <trkpt lat="41.2798910" lon="-8.7290930">
        <ele>12.5</ele>
        <time>2021-05-16T09:03:54Z</time>
      </trkpt>
      <trkpt lat="41.2798950" lon="-8.7290960">
        <ele>12.5</ele>
        <time>2021-05-16T09:03:55Z</time>
      </trkpt>
      <trkpt lat="41.2799060" lon="-8.7290990">
        <ele>12.7</ele>
        <time>2021-05-16T09:03:56Z</time>
      </trkpt>
      <trkpt lat="41.2799160" lon="-8.7291050">
        <ele>12.8</ele>
        <time>2021-05-16T09:03:57Z</time>
      </trkpt>
      <trkpt lat="41.2799270" lon="-8.7291130">
        <ele>12.9</ele>
        <time>2021-05-16T09:03:58Z</time>
      </trkpt>
      <trkpt lat="41.2799470" lon="-8.7291220">
        <ele>13.1</ele>
        <time>2021-05-16T09:03:59Z</time>
      </trkpt>
      <trkpt lat="41.2799570" lon="-8.7291230">
        <ele>13.2</ele>
        <time>2021-05-16T09:04:00Z</time>
      </trkpt>
      <trkpt lat="41.2799660" lon="-8.7291250">
        <ele>13.3</ele>
        <time>2021-05-16T09:04:01Z</time>
      </trkpt>
      <trkpt lat="41.2799760" lon="-8.7291270">
        <ele>13.3</ele>
        <time>2021-05-16T09:04:02Z</time>
      </trkpt>
      <trkpt lat="41.2799860" lon="-8.7291340">
        <ele>13.4</ele>
        <time>2021-05-16T09:04:03Z</time>
      </trkpt>
      <trkpt lat="41.2799990" lon="-8.7291420">
        <ele>13.5</ele>
        <time>2021-05-16T09:04:04Z</time>
      </trkpt>
      <trkpt lat="41.2800060" lon="-8.7291440">
        <ele>13.6</ele>
        <time>2021-05-16T09:04:05Z</time>
      </trkpt>
      <trkpt lat="41.2800180" lon="-8.7291550">
        <ele>13.7</ele>
        <time>2021-05-16T09:04:06Z</time>
      </trkpt>
      <trkpt lat="41.2800250" lon="-8.7291610">
        <ele>13.7</ele>
        <time>2021-05-16T09:04:07Z</time>
      </trkpt>
      <trkpt lat="41.2800480" lon="-8.7291700">
        <ele>13.9</ele>
        <time>2021-05-16T09:04:08Z</time>
      </trkpt>
      <trkpt lat="41.2800540" lon="-8.7291740">
        <ele>13.9</ele>
        <time>2021-05-16T09:04:09Z</time>
      </trkpt>
      <trkpt lat="41.2800610" lon="-8.7291790">
        <ele>13.9</ele>
        <time>2021-05-16T09:04:10Z</time>
      </trkpt>
      <trkpt lat="41.2800710" lon="-8.7291880">
        <ele>14.0</ele>
        <time>2021-05-16T09:04:11Z</time>
      </trkpt>
      <trkpt lat="41.2800810" lon="-8.7291920">
        <ele>14.0</ele>
        <time>2021-05-16T09:04:12Z</time>
      </trkpt>
      <trkpt lat="41.2800920" lon="-8.7291970">
        <ele>14.1</ele>
        <time>2021-05-16T09:04:13Z</time>
      </trkpt>
      <trkpt lat="41.2801050" lon="-8.7292030">
        <ele>14.2</ele>
        <time>2021-05-16T09:04:14Z</time>
      </trkpt>
      <trkpt lat="41.2801150" lon="-8.7292070">
        <ele>14.2</ele>
        <time>2021-05-16T09:04:15Z</time>
      </trkpt>
      <trkpt lat="41.2801240" lon="-8.7292090">
        <ele>14.2</ele>
        <time>2021-05-16T09:04:16Z</time>
      </trkpt>
      <trkpt lat="41.2801440" lon="-8.7292210">
        <ele>14.3</ele>
        <time>2021-05-16T09:04:17Z</time>
      </trkpt>
      <trkpt lat="41.2801520" lon="-8.7292260">
        <ele>14.4</ele>
        <time>2021-05-16T09:04:18Z</time>
      </trkpt>
      <trkpt lat="41.2801610" lon="-8.7292310">
        <ele>14.4</ele>
        <time>2021-05-16T09:04:19Z</time>
      </trkpt>
      <trkpt lat="41.2801690" lon="-8.7292370">
        <ele>14.5</ele>
        <time>2021-05-16T09:04:20Z</time>
      </trkpt>
      <trkpt lat="41.2801850" lon="-8.7292460">
        <ele>14.5</ele>
        <time>2021-05-16T09:04:21Z</time>
      </trkpt>
      <trkpt lat="41.2801930" lon="-8.7292500">
        <ele>14.6</ele>
        <time>2021-05-16T09:04:22Z</time>
      </trkpt>
      <trkpt lat="41.2802010" lon="-8.7292620">
        <ele>14.6</ele>
        <time>2021-05-16T09:04:23Z</time>
      </trkpt>
      <trkpt lat="41.2802040" lon="-8.7292690">
        <ele>14.6</ele>
        <time>2021-05-16T09:04:24Z</time>
      </trkpt>
      <trkpt lat="41.2802130" lon="-8.7292750">
        <ele>14.7</ele>
        <time>2021-05-16T09:04:25Z</time>
      </trkpt>
      <trkpt lat="41.2802290" lon="-8.7292880">
        <ele>14.7</ele>
        <time>2021-05-16T09:04:26Z</time>
      </trkpt>
      <trkpt lat="41.2802390" lon="-8.7292910">
        <ele>14.8</ele>
        <time>2021-05-16T09:04:27Z</time>
      </trkpt>
      <trkpt lat="41.2802510" lon="-8.7293040">
        <ele>14.8</ele>
        <time>2021-05-16T09:04:28Z</time>
      </trkpt>
      <trkpt lat="41.2802620" lon="-8.7293140">
        <ele>14.9</ele>
        <time>2021-05-16T09:04:29Z</time>
      </trkpt>
      <trkpt lat="41.2802650" lon="-8.7293380">
        <ele>14.9</ele>
        <time>2021-05-16T09:04:30Z</time>
      </trkpt>
      <trkpt lat="41.2802660" lon="-8.7293510">
        <ele>15.0</ele>
        <time>2021-05-16T09:04:31Z</time>
      </trkpt>
      <trkpt lat="41.2802670" lon="-8.7293640">
        <ele>15.0</ele>
        <time>2021-05-16T09:04:32Z</time>
      </trkpt>
      <trkpt lat="41.2802720" lon="-8.7293910">
        <ele>15.1</ele>
        <time>2021-05-16T09:04:33Z</time>
      </trkpt>
      <trkpt lat="41.2802720" lon="-8.7294010">
        <ele>15.1</ele>
        <time>2021-05-16T09:04:34Z</time>
      </trkpt>
      <trkpt lat="41.2802720" lon="-8.7294120">
        <ele>15.1</ele>
        <time>2021-05-16T09:04:35Z</time>
      </trkpt>
      <trkpt lat="41.2802770" lon="-8.7294300">
        <ele>15.2</ele>
        <time>2021-05-16T09:04:36Z</time>
      </trkpt>
      <trkpt lat="41.2802890" lon="-8.7294400">
        <ele>15.3</ele>
        <time>2021-05-16T09:04:37Z</time>
      </trkpt>
      <trkpt lat="41.2802930" lon="-8.7294490">
        <ele>15.3</ele>
        <time>2021-05-16T09:04:38Z</time>
      </trkpt>
      <trkpt lat="41.2803070" lon="-8.7294550">
        <ele>15.4</ele>
        <time>2021-05-16T09:04:39Z</time>
      </trkpt>
      <trkpt lat="41.2803200" lon="-8.7294550">
        <ele>15.4</ele>
        <time>2021-05-16T09:04:40Z</time>
      </trkpt>
      <trkpt lat="41.2803380" lon="-8.7294570">
        <ele>15.5</ele>
        <time>2021-05-16T09:04:41Z</time>
      </trkpt>
      <trkpt lat="41.2803500" lon="-8.7294590">
        <ele>15.5</ele>
        <time>2021-05-16T09:04:42Z</time>
      </trkpt>
      <trkpt lat="41.2803700" lon="-8.7294590">
        <ele>15.6</ele>
        <time>2021-05-16T09:04:43Z</time>
      </trkpt>
      <trkpt lat="41.2803800" lon="-8.7294610">
        <ele>15.6</ele>
        <time>2021-05-16T09:04:44Z</time>
      </trkpt>
      <trkpt lat="41.2803890" lon="-8.7294620">
        <ele>15.6</ele>
        <time>2021-05-16T09:04:45Z</time>
      </trkpt>
      <trkpt lat="41.2803990" lon="-8.7294680">
        <ele>15.7</ele>
        <time>2021-05-16T09:04:46Z</time>
      </trkpt>
      <trkpt lat="41.2804120" lon="-8.7294730">
        <ele>15.7</ele>
        <time>2021-05-16T09:04:47Z</time>
      </trkpt>
      <trkpt lat="41.2804210" lon="-8.7294810">
        <ele>15.7</ele>
        <time>2021-05-16T09:04:48Z</time>
      </trkpt>
      <trkpt lat="41.2804300" lon="-8.7294930">
        <ele>15.8</ele>
        <time>2021-05-16T09:04:49Z</time>
      </trkpt>
      <trkpt lat="41.2804380" lon="-8.7295090">
        <ele>15.8</ele>
        <time>2021-05-16T09:04:50Z</time>
      </trkpt>
      <trkpt lat="41.2804240" lon="-8.7295260">
        <ele>15.9</ele>
        <time>2021-05-16T09:04:51Z</time>
      </trkpt>
      <trkpt lat="41.2804100" lon="-8.7295310">
        <ele>15.9</ele>
        <time>2021-05-16T09:04:52Z</time>
      </trkpt>
      <trkpt lat="41.2803990" lon="-8.7295370">
        <ele>15.9</ele>
        <time>2021-05-16T09:04:53Z</time>
      </trkpt>
      <trkpt lat="41.2803990" lon="-8.7295410">
        <ele>15.9</ele>
        <time>2021-05-16T09:04:54Z</time>
      </trkpt>
      <trkpt lat="41.2803960" lon="-8.7295480">
        <ele>16.0</ele>
        <time>2021-05-16T09:04:55Z</time>
      </trkpt>
      <trkpt lat="41.2803980" lon="-8.7295530">
        <ele>16.0</ele>
        <time>2021-05-16T09:04:56Z</time>
      </trkpt>
      <trkpt lat="41.2803990" lon="-8.7295520">
        <ele>16.0</ele>
        <time>2021-05-16T09:04:57Z</time>
      </trkpt>
      <trkpt lat="41.2803990" lon="-8.7295540">
        <ele>16.0</ele>
        <time>2021-05-16T09:04:58Z</time>
      </trkpt>
      <trkpt lat="41.2803990" lon="-8.7295520">
        <ele>16.0</ele>
        <time>2021-05-16T09:04:59Z</time>
      </trkpt>
      <trkpt lat="41.2803990" lon="-8.7295520">
        <ele>16.0</ele>
        <time>2021-05-16T09:05:00Z</time>
      </trkpt>
      <trkpt lat="41.2804000" lon="-8.7295520">
        <ele>16.0</ele>
        <time>2021-05-16T09:05:01Z</time>
      </trkpt>
      <trkpt lat="41.2804030" lon="-8.7295530">
        <ele>16.0</ele>
        <time>2021-05-16T09:05:02Z</time>
      </trkpt>
      <trkpt lat="41.2804030" lon="-8.7295530">
        <ele>16.0</ele>
        <time>2021-05-16T09:05:03Z</time>
      </trkpt>
      <trkpt lat="41.2804040" lon="-8.7295520">
        <ele>16.0</ele>
        <time>2021-05-16T09:05:04Z</time>
      </trkpt>
      <trkpt lat="41.2804040" lon="-8.7295520">
        <ele>16.0</ele>
        <time>2021-05-16T09:05:05Z</time>
      </trkpt>
      <trkpt lat="41.2804040" lon="-8.7295520">
        <ele>16.0</ele>
        <time>2021-05-16T09:05:06Z</time>
      </trkpt>
      <trkpt lat="41.2804040" lon="-8.7295520">
        <ele>16.0</ele>
        <time>2021-05-16T09:05:07Z</time>
      </trkpt>
      <trkpt lat="41.2804040" lon="-8.7295520">
        <ele>16.0</ele>
        <time>2021-05-16T09:05:08Z</time>
      </trkpt>
      <trkpt lat="41.2804040" lon="-8.7295520">
        <ele>16.0</ele>
        <time>2021-05-16T09:05:09Z</time>
      </trkpt>
      <trkpt lat="41.2804040" lon="-8.7295520">
        <ele>16.0</ele>
        <time>2021-05-16T09:05:10Z</time>
      </trkpt>
      <trkpt lat="41.2804040" lon="-8.7295520">
        <ele>16.0</ele>
        <time>2021-05-16T09:05:11Z</time>
      </trkpt>
      <trkpt lat="41.2804040" lon="-8.7295520">
        <ele>16.0</ele>
        <time>2021-05-16T09:05:12Z</time>
      </trkpt>
      <trkpt lat="41.2804040" lon="-8.7295520">
        <ele>16.0</ele>
        <time>2021-05-16T09:05:13Z</time>
      </trkpt>
      <trkpt lat="41.2804040" lon="-8.7295520">
        <ele>16.0</ele>
        <time>2021-05-16T09:05:14Z</time>
      </trkpt>
      <trkpt lat="41.2804040" lon="-8.7295510">
        <ele>16.0</ele>
        <time>2021-05-16T09:05:15Z</time>
      </trkpt>
      <trkpt lat="41.2804040" lon="-8.7295510">
        <ele>16.0</ele>
        <time>2021-05-16T09:05:16Z</time>
      </trkpt>
      <trkpt lat="41.2804040" lon="-8.7295510">
        <ele>16.0</ele>
        <time>2021-05-16T09:05:17Z</time>
      </trkpt>
      <trkpt lat="41.2804040" lon="-8.7295510">
        <ele>16.0</ele>
        <time>2021-05-16T09:05:18Z</time>
      </trkpt>
      <trkpt lat="41.2804050" lon="-8.7295520">
        <ele>16.0</ele>
        <time>2021-05-16T09:05:19Z</time>
      </trkpt>
      <trkpt lat="41.2804050" lon="-8.7295530">
        <ele>16.0</ele>
        <time>2021-05-16T09:05:20Z</time>
      </trkpt>
      <trkpt lat="41.2804050" lon="-8.7295530">
        <ele>16.0</ele>
        <time>2021-05-16T09:05:21Z</time>
      </trkpt>
      <trkpt lat="41.2804050" lon="-8.7295520">
        <ele>16.0</ele>
        <time>2021-05-16T09:05:22Z</time>
      </trkpt>
      <trkpt lat="41.2804050" lon="-8.7295520">
        <ele>16.0</ele>
        <time>2021-05-16T09:05:23Z</time>
      </trkpt>
      <trkpt lat="41.2804050" lon="-8.7295510">
        <ele>16.0</ele>
        <time>2021-05-16T09:05:24Z</time>
      </trkpt>
      <trkpt lat="41.2804060" lon="-8.7295480">
        <ele>16.0</ele>
        <time>2021-05-16T09:05:25Z</time>
      </trkpt>
      <trkpt lat="41.2804060" lon="-8.7295480">
        <ele>16.0</ele>
        <time>2021-05-16T09:05:26Z</time>
      </trkpt>
      <trkpt lat="41.2804060" lon="-8.7295480">
        <ele>16.0</ele>
        <time>2021-05-16T09:05:27Z</time>
      </trkpt>
      <trkpt lat="41.2804070" lon="-8.7295490">
        <ele>16.0</ele>
        <time>2021-05-16T09:05:28Z</time>
      </trkpt>
      <trkpt lat="41.2804070" lon="-8.7295480">
        <ele>16.0</ele>
        <time>2021-05-16T09:05:29Z</time>
      </trkpt>
      <trkpt lat="41.2804070" lon="-8.7295480">
        <ele>16.0</ele>
        <time>2021-05-16T09:05:30Z</time>
      </trkpt>
      <trkpt lat="41.2804070" lon="-8.7295470">
        <ele>16.0</ele>
        <time>2021-05-16T09:05:31Z</time>
      </trkpt>
      <trkpt lat="41.2804060" lon="-8.7295450">
        <ele>16.0</ele>
        <time>2021-05-16T09:05:32Z</time>
      </trkpt>
      <trkpt lat="41.2804060" lon="-8.7295450">
        <ele>16.0</ele>
        <time>2021-05-16T09:05:33Z</time>
      </trkpt>
      <trkpt lat="41.2804060" lon="-8.7295450">
        <ele>16.0</ele>
        <time>2021-05-16T09:05:34Z</time>
      </trkpt>
      <trkpt lat="41.2804060" lon="-8.7295450">
        <ele>16.0</ele>
        <time>2021-05-16T09:05:35Z</time>
      </trkpt>
      <trkpt lat="41.2804070" lon="-8.7295460">
        <ele>16.0</ele>
        <time>2021-05-16T09:05:36Z</time>
      </trkpt>
      <trkpt lat="41.2804060" lon="-8.7295480">
        <ele>16.0</ele>
        <time>2021-05-16T09:05:37Z</time>
      </trkpt>
      <trkpt lat="41.2804110" lon="-8.7295490">
        <ele>16.0</ele>
        <time>2021-05-16T09:05:38Z</time>
      </trkpt>
      <trkpt lat="41.2804160" lon="-8.7295520">
        <ele>16.0</ele>
        <time>2021-05-16T09:05:39Z</time>
      </trkpt>
      <trkpt lat="41.2804240" lon="-8.7295590">
        <ele>16.1</ele>
        <time>2021-05-16T09:05:40Z</time>
      </trkpt>
      <trkpt lat="41.2804330" lon="-8.7295650">
        <ele>16.1</ele>
        <time>2021-05-16T09:05:41Z</time>
      </trkpt>
      <trkpt lat="41.2804440" lon="-8.7295670">
        <ele>16.1</ele>
        <time>2021-05-16T09:05:42Z</time>
      </trkpt>
      <trkpt lat="41.2804540" lon="-8.7295780">
        <ele>16.1</ele>
        <time>2021-05-16T09:05:43Z</time>
      </trkpt>
      <trkpt lat="41.2804670" lon="-8.7295880">
        <ele>16.1</ele>
        <time>2021-05-16T09:05:44Z</time>
      </trkpt>
      <trkpt lat="41.2804760" lon="-8.7296010">
        <ele>16.1</ele>
        <time>2021-05-16T09:05:45Z</time>
      </trkpt>
      <trkpt lat="41.2804750" lon="-8.7296050">
        <ele>16.1</ele>
        <time>2021-05-16T09:05:46Z</time>
      </trkpt>
      <trkpt lat="41.2804770" lon="-8.7296190">
        <ele>16.2</ele>
        <time>2021-05-16T09:05:47Z</time>
      </trkpt>
      <trkpt lat="41.2804760" lon="-8.7296260">
        <ele>16.2</ele>
        <time>2021-05-16T09:05:48Z</time>
      </trkpt>
      <trkpt lat="41.2804720" lon="-8.7296160">
        <ele>16.2</ele>
        <time>2021-05-16T09:05:49Z</time>
      </trkpt>
      <trkpt lat="41.2804680" lon="-8.7296010">
        <ele>16.2</ele>
        <time>2021-05-16T09:05:50Z</time>
      </trkpt>
      <trkpt lat="41.2804640" lon="-8.7295990">
        <ele>16.2</ele>
        <time>2021-05-16T09:05:51Z</time>
      </trkpt>
      <trkpt lat="41.2804510" lon="-8.7295790">
        <ele>16.2</ele>
        <time>2021-05-16T09:05:52Z</time>
      </trkpt>
      <trkpt lat="41.2804450" lon="-8.7295560">
        <ele>16.2</ele>
        <time>2021-05-16T09:05:53Z</time>
      </trkpt>
      <trkpt lat="41.2804360" lon="-8.7295580">
        <ele>16.2</ele>
        <time>2021-05-16T09:05:54Z</time>
      </trkpt>
      <trkpt lat="41.2804280" lon="-8.7295560">
        <ele>16.2</ele>
        <time>2021-05-16T09:05:55Z</time>
      </trkpt>
      <trkpt lat="41.2804150" lon="-8.7295510">
        <ele>16.2</ele>
        <time>2021-05-16T09:05:56Z</time>
      </trkpt>
      <trkpt lat="41.2804030" lon="-8.7295530">
        <ele>16.2</ele>
        <time>2021-05-16T09:05:57Z</time>
      </trkpt>
      <trkpt lat="41.2803950" lon="-8.7295580">
        <ele>16.2</ele>
        <time>2021-05-16T09:05:58Z</time>
      </trkpt>
      <trkpt lat="41.2803910" lon="-8.7295600">
        <ele>16.2</ele>
        <time>2021-05-16T09:05:59Z</time>
      </trkpt>
      <trkpt lat="41.2803830" lon="-8.7295650">
        <ele>16.2</ele>
        <time>2021-05-16T09:06:00Z</time>
      </trkpt>
      <trkpt lat="41.2803760" lon="-8.7295680">
        <ele>16.2</ele>
        <time>2021-05-16T09:06:01Z</time>
      </trkpt>
      <trkpt lat="41.2803630" lon="-8.7295790">
        <ele>16.1</ele>
        <time>2021-05-16T09:06:02Z</time>
      </trkpt>
      <trkpt lat="41.2803510" lon="-8.7296030">
        <ele>16.1</ele>
        <time>2021-05-16T09:06:03Z</time>
      </trkpt>
      <trkpt lat="41.2803490" lon="-8.7296130">
        <ele>16.1</ele>
        <time>2021-05-16T09:06:04Z</time>
      </trkpt>
      <trkpt lat="41.2803460" lon="-8.7296220">
        <ele>16.1</ele>
        <time>2021-05-16T09:06:05Z</time>
      </trkpt>
      <trkpt lat="41.2803440" lon="-8.7296310">
        <ele>16.1</ele>
        <time>2021-05-16T09:06:06Z</time>
      </trkpt>
      <trkpt lat="41.2803470" lon="-8.7296430">
        <ele>16.0</ele>
        <time>2021-05-16T09:06:07Z</time>
      </trkpt>
      <trkpt lat="41.2803440" lon="-8.7296600">
        <ele>16.0</ele>
        <time>2021-05-16T09:06:08Z</time>
      </trkpt>
      <trkpt lat="41.2803470" lon="-8.7296750">
        <ele>16.0</ele>
        <time>2021-05-16T09:06:09Z</time>
      </trkpt>
      <trkpt lat="41.2803500" lon="-8.7296870">
        <ele>15.9</ele>
        <time>2021-05-16T09:06:10Z</time>
      </trkpt>
      <trkpt lat="41.2803470" lon="-8.7297000">
        <ele>15.9</ele>
        <time>2021-05-16T09:06:11Z</time>
      </trkpt>
      <trkpt lat="41.2803490" lon="-8.7297210">
        <ele>15.8</ele>
        <time>2021-05-16T09:06:12Z</time>
      </trkpt>
      <trkpt lat="41.2803480" lon="-8.7297310">
        <ele>15.8</ele>
        <time>2021-05-16T09:06:13Z</time>
      </trkpt>
      <trkpt lat="41.2803510" lon="-8.7297360">
        <ele>15.8</ele>
        <time>2021-05-16T09:06:14Z</time>
      </trkpt>
      <trkpt lat="41.2803520" lon="-8.7297480">
        <ele>15.8</ele>
        <time>2021-05-16T09:06:15Z</time>
      </trkpt>
      <trkpt lat="41.2803420" lon="-8.7297490">
        <ele>15.7</ele>
        <time>2021-05-16T09:06:16Z</time>
      </trkpt>
      <trkpt lat="41.2803350" lon="-8.7297420">
        <ele>15.7</ele>
        <time>2021-05-16T09:06:17Z</time>
      </trkpt>
      <trkpt lat="41.2803390" lon="-8.7297450">
        <ele>15.6</ele>
        <time>2021-05-16T09:06:18Z</time>
      </trkpt>
      <trkpt lat="41.2803400" lon="-8.7297430">
        <ele>15.6</ele>
        <time>2021-05-16T09:06:19Z</time>
      </trkpt>
      <trkpt lat="41.2803420" lon="-8.7297400">
        <ele>15.6</ele>
        <time>2021-05-16T09:06:20Z</time>
      </trkpt>
      <trkpt lat="41.2803430" lon="-8.7297390">
        <ele>15.6</ele>
        <time>2021-05-16T09:06:21Z</time>
      </trkpt>
      <trkpt lat="41.2803400" lon="-8.7297360">
        <ele>15.6</ele>
        <time>2021-05-16T09:06:22Z</time>
      </trkpt>
      <trkpt lat="41.2803300" lon="-8.7297250">
        <ele>15.5</ele>
        <time>2021-05-16T09:06:23Z</time>
      </trkpt>
      <trkpt lat="41.2803320" lon="-8.7297180">
        <ele>15.5</ele>
        <time>2021-05-16T09:06:24Z</time>
      </trkpt>
      <trkpt lat="41.2803340" lon="-8.7297200">
        <ele>15.5</ele>
        <time>2021-05-16T09:06:25Z</time>
      </trkpt>
      <trkpt lat="41.2803340" lon="-8.7297200">
        <ele>15.5</ele>
        <time>2021-05-16T09:06:26Z</time>
      </trkpt>
      <trkpt lat="41.2803340" lon="-8.7297210">
        <ele>15.5</ele>
        <time>2021-05-16T09:06:27Z</time>
      </trkpt>
      <trkpt lat="41.2803330" lon="-8.7297190">
        <ele>15.4</ele>
        <time>2021-05-16T09:06:28Z</time>
      </trkpt>
      <trkpt lat="41.2803330" lon="-8.7297170">
        <ele>15.4</ele>
        <time>2021-05-16T09:06:29Z</time>
      </trkpt>
      <trkpt lat="41.2803330" lon="-8.7297150">
        <ele>15.4</ele>
        <time>2021-05-16T09:06:30Z</time>
      </trkpt>
      <trkpt lat="41.2803330" lon="-8.7297090">
        <ele>15.4</ele>
        <time>2021-05-16T09:06:31Z</time>
      </trkpt>
      <trkpt lat="41.2803320" lon="-8.7297070">
        <ele>15.4</ele>
        <time>2021-05-16T09:06:32Z</time>
      </trkpt>
      <trkpt lat="41.2803310" lon="-8.7297120">
        <ele>15.4</ele>
        <time>2021-05-16T09:06:33Z</time>
      </trkpt>
      <trkpt lat="41.2803280" lon="-8.7297050">
        <ele>15.3</ele>
        <time>2021-05-16T09:06:34Z</time>
      </trkpt>
      <trkpt lat="41.2803270" lon="-8.7297030">
        <ele>15.3</ele>
        <time>2021-05-16T09:06:35Z</time>
      </trkpt>
      <trkpt lat="41.2803260" lon="-8.7296990">
        <ele>15.3</ele>
        <time>2021-05-16T09:06:36Z</time>
      </trkpt>
      <trkpt lat="41.2803260" lon="-8.7297000">
        <ele>15.3</ele>
        <time>2021-05-16T09:06:37Z</time>
      </trkpt>
      <trkpt lat="41.2803240" lon="-8.7296950">
        <ele>15.3</ele>
        <time>2021-05-16T09:06:38Z</time>
      </trkpt>
      <trkpt lat="41.2803260" lon="-8.7296950">
        <ele>15.2</ele>
        <time>2021-05-16T09:06:39Z</time>
      </trkpt>
      <trkpt lat="41.2803290" lon="-8.7296960">
        <ele>15.2</ele>
        <time>2021-05-16T09:06:40Z</time>
      </trkpt>
      <trkpt lat="41.2803320" lon="-8.7296950">
        <ele>15.2</ele>
        <time>2021-05-16T09:06:41Z</time>
      </trkpt>
      <trkpt lat="41.2803350" lon="-8.7296920">
        <ele>15.2</ele>
        <time>2021-05-16T09:06:42Z</time>
      </trkpt>
      <trkpt lat="41.2803360" lon="-8.7296890">
        <ele>15.1</ele>
        <time>2021-05-16T09:06:43Z</time>
      </trkpt>
      <trkpt lat="41.2803340" lon="-8.7296900">
        <ele>15.1</ele>
        <time>2021-05-16T09:06:44Z</time>
      </trkpt>
      <trkpt lat="41.2803340" lon="-8.7296900">
        <ele>15.1</ele>
        <time>2021-05-16T09:06:45Z</time>
      </trkpt>
      <trkpt lat="41.2803360" lon="-8.7296900">
        <ele>15.1</ele>
        <time>2021-05-16T09:06:46Z</time>
      </trkpt>
      <trkpt lat="41.2803350" lon="-8.7296900">
        <ele>15.1</ele>
        <time>2021-05-16T09:06:47Z</time>
      </trkpt>
      <trkpt lat="41.2803360" lon="-8.7296890">
        <ele>15.1</ele>
        <time>2021-05-16T09:06:48Z</time>
      </trkpt>
      <trkpt lat="41.2803360" lon="-8.7296880">
        <ele>15.1</ele>
        <time>2021-05-16T09:06:49Z</time>
      </trkpt>
      <trkpt lat="41.2803370" lon="-8.7296930">
        <ele>15.1</ele>
        <time>2021-05-16T09:06:50Z</time>
      </trkpt>
      <trkpt lat="41.2803360" lon="-8.7296960">
        <ele>15.0</ele>
        <time>2021-05-16T09:06:51Z</time>
      </trkpt>
      <trkpt lat="41.2803370" lon="-8.7296970">
        <ele>15.0</ele>
        <time>2021-05-16T09:06:52Z</time>
      </trkpt>
      <trkpt lat="41.2803360" lon="-8.7296980">
        <ele>15.0</ele>
        <time>2021-05-16T09:06:53Z</time>
      </trkpt>
      <trkpt lat="41.2803350" lon="-8.7296980">
        <ele>15.0</ele>
        <time>2021-05-16T09:06:54Z</time>
      </trkpt>
      <trkpt lat="41.2803340" lon="-8.7296980">
        <ele>15.0</ele>
        <time>2021-05-16T09:06:55Z</time>
      </trkpt>
      <trkpt lat="41.2803330" lon="-8.7296980">
        <ele>15.0</ele>
        <time>2021-05-16T09:06:56Z</time>
      </trkpt>
      <trkpt lat="41.2803340" lon="-8.7297000">
        <ele>15.0</ele>
        <time>2021-05-16T09:06:57Z</time>
      </trkpt>
      <trkpt lat="41.2803350" lon="-8.7297000">
        <ele>15.0</ele>
        <time>2021-05-16T09:06:58Z</time>
      </trkpt>
      <trkpt lat="41.2803350" lon="-8.7297010">
        <ele>15.0</ele>
        <time>2021-05-16T09:06:59Z</time>
      </trkpt>
      <trkpt lat="41.2803350" lon="-8.7297030">
        <ele>15.0</ele>
        <time>2021-05-16T09:07:00Z</time>
      </trkpt>
      <trkpt lat="41.2803370" lon="-8.7297050">
        <ele>14.9</ele>
        <time>2021-05-16T09:07:01Z</time>
      </trkpt>
      <trkpt lat="41.2803380" lon="-8.7297080">
        <ele>14.9</ele>
        <time>2021-05-16T09:07:02Z</time>
      </trkpt>
      <trkpt lat="41.2803390" lon="-8.7297110">
        <ele>14.9</ele>
        <time>2021-05-16T09:07:03Z</time>
      </trkpt>
      <trkpt lat="41.2803400" lon="-8.7297140">
        <ele>14.9</ele>
        <time>2021-05-16T09:07:04Z</time>
      </trkpt>
      <trkpt lat="41.2803420" lon="-8.7297150">
        <ele>14.9</ele>
        <time>2021-05-16T09:07:05Z</time>
      </trkpt>
      <trkpt lat="41.2803440" lon="-8.7297150">
        <ele>14.8</ele>
        <time>2021-05-16T09:07:06Z</time>
      </trkpt>
      <trkpt lat="41.2803450" lon="-8.7297140">
        <ele>14.8</ele>
        <time>2021-05-16T09:07:07Z</time>
      </trkpt>
      <trkpt lat="41.2803450" lon="-8.7297140">
        <ele>14.8</ele>
        <time>2021-05-16T09:07:08Z</time>
      </trkpt>
      <trkpt lat="41.2803460" lon="-8.7297140">
        <ele>14.8</ele>
        <time>2021-05-16T09:07:09Z</time>
      </trkpt>
      <trkpt lat="41.2803490" lon="-8.7297150">
        <ele>14.8</ele>
        <time>2021-05-16T09:07:10Z</time>
      </trkpt>
      <trkpt lat="41.2803500" lon="-8.7297160">
        <ele>14.8</ele>
        <time>2021-05-16T09:07:11Z</time>
      </trkpt>
      <trkpt lat="41.2803530" lon="-8.7297200">
        <ele>14.8</ele>
        <time>2021-05-16T09:07:12Z</time>
      </trkpt>
      <trkpt lat="41.2803550" lon="-8.7297220">
        <ele>14.7</ele>
        <time>2021-05-16T09:07:13Z</time>
      </trkpt>
      <trkpt lat="41.2803580" lon="-8.7297270">
        <ele>14.7</ele>
        <time>2021-05-16T09:07:14Z</time>
      </trkpt>
      <trkpt lat="41.2803540" lon="-8.7297270">
        <ele>14.6</ele>
        <time>2021-05-16T09:07:15Z</time>
      </trkpt>
      <trkpt lat="41.2803550" lon="-8.7297280">
        <ele>14.6</ele>
        <time>2021-05-16T09:07:16Z</time>
      </trkpt>
      <trkpt lat="41.2803540" lon="-8.7297270">
        <ele>14.6</ele>
        <time>2021-05-16T09:07:17Z</time>
      </trkpt>
      <trkpt lat="41.2803510" lon="-8.7297260">
        <ele>14.6</ele>
        <time>2021-05-16T09:07:18Z</time>
      </trkpt>
      <trkpt lat="41.2803480" lon="-8.7297230">
        <ele>14.6</ele>
        <time>2021-05-16T09:07:19Z</time>
      </trkpt>
      <trkpt lat="41.2803490" lon="-8.7297220">
        <ele>14.5</ele>
        <time>2021-05-16T09:07:20Z</time>
      </trkpt>
      <trkpt lat="41.2803480" lon="-8.7297220">
        <ele>14.5</ele>
        <time>2021-05-16T09:07:21Z</time>
      </trkpt>
      <trkpt lat="41.2803440" lon="-8.7297220">
        <ele>14.5</ele>
        <time>2021-05-16T09:07:22Z</time>
      </trkpt>
      <trkpt lat="41.2803440" lon="-8.7297160">
        <ele>14.4</ele>
        <time>2021-05-16T09:07:23Z</time>
      </trkpt>
      <trkpt lat="41.2803440" lon="-8.7297130">
        <ele>14.4</ele>
        <time>2021-05-16T09:07:24Z</time>
      </trkpt>
      <trkpt lat="41.2803440" lon="-8.7297150">
        <ele>14.4</ele>
        <time>2021-05-16T09:07:25Z</time>
      </trkpt>
      <trkpt lat="41.2803430" lon="-8.7297150">
        <ele>14.4</ele>
        <time>2021-05-16T09:07:26Z</time>
      </trkpt>
      <trkpt lat="41.2803420" lon="-8.7297110">
        <ele>14.4</ele>
        <time>2021-05-16T09:07:27Z</time>
      </trkpt>
      <trkpt lat="41.2803410" lon="-8.7297130">
        <ele>14.3</ele>
        <time>2021-05-16T09:07:28Z</time>
      </trkpt>
      <trkpt lat="41.2803420" lon="-8.7297140">
        <ele>14.3</ele>
        <time>2021-05-16T09:07:29Z</time>
      </trkpt>
      <trkpt lat="41.2803390" lon="-8.7297070">
        <ele>14.3</ele>
        <time>2021-05-16T09:07:30Z</time>
      </trkpt>
      <trkpt lat="41.2803390" lon="-8.7297080">
        <ele>14.3</ele>
        <time>2021-05-16T09:07:31Z</time>
      </trkpt>
      <trkpt lat="41.2803360" lon="-8.7297050">
        <ele>14.2</ele>
        <time>2021-05-16T09:07:32Z</time>
      </trkpt>
      <trkpt lat="41.2803330" lon="-8.7297040">
        <ele>14.2</ele>
        <time>2021-05-16T09:07:33Z</time>
      </trkpt>
      <trkpt lat="41.2803300" lon="-8.7297010">
        <ele>14.2</ele>
        <time>2021-05-16T09:07:34Z</time>
      </trkpt>
      <trkpt lat="41.2803310" lon="-8.7296970">
        <ele>14.1</ele>
        <time>2021-05-16T09:07:35Z</time>
      </trkpt>
      <trkpt lat="41.2803320" lon="-8.7296960">
        <ele>14.1</ele>
        <time>2021-05-16T09:07:36Z</time>
      </trkpt>
      <trkpt lat="41.2803310" lon="-8.7296920">
        <ele>14.1</ele>
        <time>2021-05-16T09:07:37Z</time>
      </trkpt>
      <trkpt lat="41.2803320" lon="-8.7296890">
        <ele>14.1</ele>
        <time>2021-05-16T09:07:38Z</time>
      </trkpt>
      <trkpt lat="41.2803330" lon="-8.7296900">
        <ele>14.0</ele>
        <time>2021-05-16T09:07:39Z</time>
      </trkpt>
      <trkpt lat="41.2803330" lon="-8.7296890">
        <ele>14.0</ele>
        <time>2021-05-16T09:07:40Z</time>
      </trkpt>
      <trkpt lat="41.2803340" lon="-8.7296900">
        <ele>14.0</ele>
        <time>2021-05-16T09:07:41Z</time>
      </trkpt>
      <trkpt lat="41.2803340" lon="-8.7296920">
        <ele>14.0</ele>
        <time>2021-05-16T09:07:42Z</time>
      </trkpt>
      <trkpt lat="41.2803350" lon="-8.7296940">
        <ele>14.0</ele>
        <time>2021-05-16T09:07:43Z</time>
      </trkpt>
      <trkpt lat="41.2803360" lon="-8.7296970">
        <ele>14.0</ele>
        <time>2021-05-16T09:07:44Z</time>
      </trkpt>
      <trkpt lat="41.2803380" lon="-8.7296990">
        <ele>13.9</ele>
        <time>2021-05-16T09:07:45Z</time>
      </trkpt>
      <trkpt lat="41.2803380" lon="-8.7296990">
        <ele>13.9</ele>
        <time>2021-05-16T09:07:46Z</time>
      </trkpt>
      <trkpt lat="41.2803340" lon="-8.7296980">
        <ele>13.9</ele>
        <time>2021-05-16T09:07:47Z</time>
      </trkpt>
      <trkpt lat="41.2803350" lon="-8.7296980">
        <ele>13.9</ele>
        <time>2021-05-16T09:07:48Z</time>
      </trkpt>
      <trkpt lat="41.2803370" lon="-8.7296980">
        <ele>13.9</ele>
        <time>2021-05-16T09:07:49Z</time>
      </trkpt>
      <trkpt lat="41.2803380" lon="-8.7296970">
        <ele>13.8</ele>
        <time>2021-05-16T09:07:50Z</time>
      </trkpt>
      <trkpt lat="41.2803370" lon="-8.7296970">
        <ele>13.8</ele>
        <time>2021-05-16T09:07:51Z</time>
      </trkpt>
      <trkpt lat="41.2803370" lon="-8.7296970">
        <ele>13.8</ele>
        <time>2021-05-16T09:07:52Z</time>
      </trkpt>
      <trkpt lat="41.2803370" lon="-8.7296970">
        <ele>13.8</ele>
        <time>2021-05-16T09:07:53Z</time>
      </trkpt>
      <trkpt lat="41.2803370" lon="-8.7296970">
        <ele>13.8</ele>
        <time>2021-05-16T09:07:54Z</time>
      </trkpt>
      <trkpt lat="41.2803370" lon="-8.7296970">
        <ele>13.8</ele>
        <time>2021-05-16T09:07:55Z</time>
      </trkpt>
      <trkpt lat="41.2803370" lon="-8.7296970">
        <ele>13.8</ele>
        <time>2021-05-16T09:07:56Z</time>
      </trkpt>
      <trkpt lat="41.2803370" lon="-8.7296970">
        <ele>13.8</ele>
        <time>2021-05-16T09:07:57Z</time>
      </trkpt>
      <trkpt lat="41.2803370" lon="-8.7296970">
        <ele>13.8</ele>
        <time>2021-05-16T09:07:58Z</time>
      </trkpt>
      <trkpt lat="41.2803370" lon="-8.7296970">
        <ele>13.8</ele>
        <time>2021-05-16T09:07:59Z</time>
      </trkpt>
      <trkpt lat="41.2803370" lon="-8.7296970">
        <ele>13.8</ele>
        <time>2021-05-16T09:08:00Z</time>
      </trkpt>
      <trkpt lat="41.2803370" lon="-8.7296970">
        <ele>13.8</ele>
        <time>2021-05-16T09:08:01Z</time>
      </trkpt>
      <trkpt lat="41.2803370" lon="-8.7296970">
        <ele>13.8</ele>
        <time>2021-05-16T09:08:02Z</time>
      </trkpt>
      <trkpt lat="41.2803440" lon="-8.7296930">
        <ele>13.7</ele>
        <time>2021-05-16T09:08:03Z</time>
      </trkpt>
      <trkpt lat="41.2803430" lon="-8.7296930">
        <ele>13.7</ele>
        <time>2021-05-16T09:08:04Z</time>
      </trkpt>
      <trkpt lat="41.2803430" lon="-8.7296930">
        <ele>13.7</ele>
        <time>2021-05-16T09:08:05Z</time>
      </trkpt>
      <trkpt lat="41.2803430" lon="-8.7296930">
        <ele>13.7</ele>
        <time>2021-05-16T09:08:06Z</time>
      </trkpt>
      <trkpt lat="41.2803460" lon="-8.7296950">
        <ele>13.7</ele>
        <time>2021-05-16T09:08:07Z</time>
      </trkpt>
      <trkpt lat="41.2803460" lon="-8.7297020">
        <ele>13.6</ele>
        <time>2021-05-16T09:08:08Z</time>
      </trkpt>
      <trkpt lat="41.2803470" lon="-8.7297040">
        <ele>13.6</ele>
        <time>2021-05-16T09:08:09Z</time>
      </trkpt>
      <trkpt lat="41.2803460" lon="-8.7297060">
        <ele>13.6</ele>
        <time>2021-05-16T09:08:10Z</time>
      </trkpt>
      <trkpt lat="41.2803470" lon="-8.7297070">
        <ele>13.6</ele>
        <time>2021-05-16T09:08:11Z</time>
      </trkpt>
      <trkpt lat="41.2803480" lon="-8.7297060">
        <ele>13.6</ele>
        <time>2021-05-16T09:08:12Z</time>
      </trkpt>
      <trkpt lat="41.2803470" lon="-8.7297030">
        <ele>13.5</ele>
        <time>2021-05-16T09:08:13Z</time>
      </trkpt>
      <trkpt lat="41.2803430" lon="-8.7297000">
        <ele>13.5</ele>
        <time>2021-05-16T09:08:14Z</time>
      </trkpt>
      <trkpt lat="41.2803450" lon="-8.7296900">
        <ele>13.4</ele>
        <time>2021-05-16T09:08:15Z</time>
      </trkpt>
      <trkpt lat="41.2803500" lon="-8.7296830">
        <ele>13.3</ele>
        <time>2021-05-16T09:08:16Z</time>
      </trkpt>
      <trkpt lat="41.2803530" lon="-8.7296800">
        <ele>13.3</ele>
        <time>2021-05-16T09:08:17Z</time>
      </trkpt>
      <trkpt lat="41.2803550" lon="-8.7296690">
        <ele>13.2</ele>
        <time>2021-05-16T09:08:18Z</time>
      </trkpt>
      <trkpt lat="41.2803570" lon="-8.7296560">
        <ele>13.0</ele>
        <time>2021-05-16T09:08:19Z</time>
      </trkpt>
      <trkpt lat="41.2803540" lon="-8.7296470">
        <ele>12.9</ele>
        <time>2021-05-16T09:08:20Z</time>
      </trkpt>
      <trkpt lat="41.2803440" lon="-8.7296270">
        <ele>12.7</ele>
        <time>2021-05-16T09:08:21Z</time>
      </trkpt>
      <trkpt lat="41.2803460" lon="-8.7296040">
        <ele>12.5</ele>
        <time>2021-05-16T09:08:22Z</time>
      </trkpt>
      <trkpt lat="41.2803490" lon="-8.7295920">
        <ele>12.4</ele>
        <time>2021-05-16T09:08:23Z</time>
      </trkpt>
      <trkpt lat="41.2803530" lon="-8.7295800">
        <ele>12.3</ele>
        <time>2021-05-16T09:08:24Z</time>
      </trkpt>
      <trkpt lat="41.2803660" lon="-8.7295670">
        <ele>12.1</ele>
        <time>2021-05-16T09:08:25Z</time>
      </trkpt>
      <trkpt lat="41.2803780" lon="-8.7295600">
        <ele>11.9</ele>
        <time>2021-05-16T09:08:26Z</time>
      </trkpt>
      <trkpt lat="41.2803960" lon="-8.7295520">
        <ele>11.7</ele>
        <time>2021-05-16T09:08:27Z</time>
      </trkpt>
      <trkpt lat="41.2804020" lon="-8.7295470">
        <ele>11.6</ele>
        <time>2021-05-16T09:08:28Z</time>
      </trkpt>
      <trkpt lat="41.2804070" lon="-8.7295410">
        <ele>11.5</ele>
        <time>2021-05-16T09:08:29Z</time>
      </trkpt>
      <trkpt lat="41.2804120" lon="-8.7295350">
        <ele>11.4</ele>
        <time>2021-05-16T09:08:30Z</time>
      </trkpt>
      <trkpt lat="41.2804310" lon="-8.7295130">
        <ele>11.1</ele>
        <time>2021-05-16T09:08:31Z</time>
      </trkpt>
      <trkpt lat="41.2804370" lon="-8.7295050">
        <ele>11.0</ele>
        <time>2021-05-16T09:08:32Z</time>
      </trkpt>
      <trkpt lat="41.2804420" lon="-8.7294980">
        <ele>10.9</ele>
        <time>2021-05-16T09:08:33Z</time>
      </trkpt>
      <trkpt lat="41.2804560" lon="-8.7294880">
        <ele>10.7</ele>
        <time>2021-05-16T09:08:34Z</time>
      </trkpt>
      <trkpt lat="41.2804720" lon="-8.7294870">
        <ele>10.5</ele>
        <time>2021-05-16T09:08:35Z</time>
      </trkpt>
      <trkpt lat="41.2804800" lon="-8.7294940">
        <ele>10.4</ele>
        <time>2021-05-16T09:08:36Z</time>
      </trkpt>
      <trkpt lat="41.2804910" lon="-8.7294980">
        <ele>10.3</ele>
        <time>2021-05-16T09:08:37Z</time>
      </trkpt>
      <trkpt lat="41.2805050" lon="-8.7294930">
        <ele>10.1</ele>
        <time>2021-05-16T09:08:38Z</time>
      </trkpt>
      <trkpt lat="41.2805200" lon="-8.7294860">
        <ele>9.9</ele>
        <time>2021-05-16T09:08:39Z</time>
      </trkpt>
      <trkpt lat="41.2805320" lon="-8.7294820">
        <ele>9.8</ele>
        <time>2021-05-16T09:08:40Z</time>
      </trkpt>
      <trkpt lat="41.2805460" lon="-8.7294750">
        <ele>9.6</ele>
        <time>2021-05-16T09:08:41Z</time>
      </trkpt>
      <trkpt lat="41.2805540" lon="-8.7294700">
        <ele>9.5</ele>
        <time>2021-05-16T09:08:42Z</time>
      </trkpt>
      <trkpt lat="41.2805660" lon="-8.7294680">
        <ele>9.3</ele>
        <time>2021-05-16T09:08:43Z</time>
      </trkpt>
      <trkpt lat="41.2805840" lon="-8.7294710">
        <ele>9.1</ele>
        <time>2021-05-16T09:08:44Z</time>
      </trkpt>
      <trkpt lat="41.2805940" lon="-8.7294680">
        <ele>9.0</ele>
        <time>2021-05-16T09:08:45Z</time>
      </trkpt>
      <trkpt lat="41.2806030" lon="-8.7294660">
        <ele>8.9</ele>
        <time>2021-05-16T09:08:46Z</time>
      </trkpt>
      <trkpt lat="41.2806180" lon="-8.7294700">
        <ele>8.8</ele>
        <time>2021-05-16T09:08:47Z</time>
      </trkpt>
      <trkpt lat="41.2806200" lon="-8.7294760">
        <ele>8.7</ele>
        <time>2021-05-16T09:08:48Z</time>
      </trkpt>
      <trkpt lat="41.2806270" lon="-8.7294810">
        <ele>8.6</ele>
        <time>2021-05-16T09:08:49Z</time>
      </trkpt>
      <trkpt lat="41.2806350" lon="-8.7294860">
        <ele>8.5</ele>
        <time>2021-05-16T09:08:50Z</time>
      </trkpt>
      <trkpt lat="41.2806500" lon="-8.7294880">
        <ele>8.4</ele>
        <time>2021-05-16T09:08:51Z</time>
      </trkpt>
      <trkpt lat="41.2806620" lon="-8.7294950">
        <ele>8.2</ele>
        <time>2021-05-16T09:08:52Z</time>
      </trkpt>
      <trkpt lat="41.2806790" lon="-8.7295120">
        <ele>8.0</ele>
        <time>2021-05-16T09:08:53Z</time>
      </trkpt>
      <trkpt lat="41.2806860" lon="-8.7295180">
        <ele>7.9</ele>
        <time>2021-05-16T09:08:54Z</time>
      </trkpt>
      <trkpt lat="41.2806930" lon="-8.7295240">
        <ele>7.9</ele>
        <time>2021-05-16T09:08:55Z</time>
      </trkpt>
      <trkpt lat="41.2806960" lon="-8.7295310">
        <ele>7.8</ele>
        <time>2021-05-16T09:08:56Z</time>
      </trkpt>
      <trkpt lat="41.2807080" lon="-8.7295400">
        <ele>7.7</ele>
        <time>2021-05-16T09:08:57Z</time>
      </trkpt>
      <trkpt lat="41.2807130" lon="-8.7295510">
        <ele>7.6</ele>
        <time>2021-05-16T09:08:58Z</time>
      </trkpt>
      <trkpt lat="41.2807180" lon="-8.7295540">
        <ele>7.5</ele>
        <time>2021-05-16T09:08:59Z</time>
      </trkpt>
      <trkpt lat="41.2807180" lon="-8.7295530">
        <ele>7.5</ele>
        <time>2021-05-16T09:09:00Z</time>
      </trkpt>
      <trkpt lat="41.2807190" lon="-8.7295510">
        <ele>7.5</ele>
        <time>2021-05-16T09:09:01Z</time>
      </trkpt>
      <trkpt lat="41.2807200" lon="-8.7295510">
        <ele>7.5</ele>
        <time>2021-05-16T09:09:02Z</time>
      </trkpt>
      <trkpt lat="41.2807200" lon="-8.7295530">
        <ele>7.5</ele>
        <time>2021-05-16T09:09:03Z</time>
      </trkpt>
      <trkpt lat="41.2807220" lon="-8.7295510">
        <ele>7.5</ele>
        <time>2021-05-16T09:09:04Z</time>
      </trkpt>
      <trkpt lat="41.2807210" lon="-8.7295560">
        <ele>7.4</ele>
        <time>2021-05-16T09:09:05Z</time>
      </trkpt>
      <trkpt lat="41.2807210" lon="-8.7295500">
        <ele>7.4</ele>
        <time>2021-05-16T09:09:06Z</time>
      </trkpt>
      <trkpt lat="41.2807250" lon="-8.7295500">
        <ele>7.4</ele>
        <time>2021-05-16T09:09:07Z</time>
      </trkpt>
      <trkpt lat="41.2807250" lon="-8.7295470">
        <ele>7.3</ele>
        <time>2021-05-16T09:09:08Z</time>
      </trkpt>
      <trkpt lat="41.2807280" lon="-8.7295500">
        <ele>7.3</ele>
        <time>2021-05-16T09:09:09Z</time>
      </trkpt>
      <trkpt lat="41.2807290" lon="-8.7295470">
        <ele>7.3</ele>
        <time>2021-05-16T09:09:10Z</time>
      </trkpt>
      <trkpt lat="41.2807290" lon="-8.7295470">
        <ele>7.3</ele>
        <time>2021-05-16T09:09:11Z</time>
      </trkpt>
      <trkpt lat="41.2807290" lon="-8.7295460">
        <ele>7.3</ele>
        <time>2021-05-16T09:09:12Z</time>
      </trkpt>
      <trkpt lat="41.2807330" lon="-8.7295460">
        <ele>7.2</ele>
        <time>2021-05-16T09:09:13Z</time>
      </trkpt>
      <trkpt lat="41.2807380" lon="-8.7295450">
        <ele>7.2</ele>
        <time>2021-05-16T09:09:15Z</time>
      </trkpt>
      <trkpt lat="41.2807410" lon="-8.7295400">
        <ele>7.2</ele>
        <time>2021-05-16T09:09:17Z</time>
      </trkpt>
      <trkpt lat="41.2807440" lon="-8.7295400">
        <ele>7.1</ele>
        <time>2021-05-16T09:09:18Z</time>
      </trkpt>
      <trkpt lat="41.2807510" lon="-8.7295410">
        <ele>7.1</ele>
        <time>2021-05-16T09:09:19Z</time>
      </trkpt>
      <trkpt lat="41.2807520" lon="-8.7295500">
        <ele>7.0</ele>
        <time>2021-05-16T09:09:20Z</time>
      </trkpt>
      <trkpt lat="41.2807510" lon="-8.7295500">
        <ele>7.0</ele>
        <time>2021-05-16T09:09:21Z</time>
      </trkpt>
      <trkpt lat="41.2807650" lon="-8.7295630">
        <ele>6.9</ele>
        <time>2021-05-16T09:09:22Z</time>
      </trkpt>
      <trkpt lat="41.2807830" lon="-8.7295920">
        <ele>6.7</ele>
        <time>2021-05-16T09:09:23Z</time>
      </trkpt>
      <trkpt lat="41.2807880" lon="-8.7296020">
        <ele>6.6</ele>
        <time>2021-05-16T09:09:24Z</time>
      </trkpt>
      <trkpt lat="41.2808000" lon="-8.7296220">
        <ele>6.5</ele>
        <time>2021-05-16T09:09:25Z</time>
      </trkpt>
      <trkpt lat="41.2808050" lon="-8.7296270">
        <ele>6.5</ele>
        <time>2021-05-16T09:09:26Z</time>
      </trkpt>
      <trkpt lat="41.2808100" lon="-8.7296320">
        <ele>6.5</ele>
        <time>2021-05-16T09:09:27Z</time>
      </trkpt>
      <trkpt lat="41.2808150" lon="-8.7296370">
        <ele>6.4</ele>
        <time>2021-05-16T09:09:28Z</time>
      </trkpt>
      <trkpt lat="41.2808240" lon="-8.7296510">
        <ele>6.4</ele>
        <time>2021-05-16T09:09:29Z</time>
      </trkpt>
      <trkpt lat="41.2808320" lon="-8.7296570">
        <ele>6.3</ele>
        <time>2021-05-16T09:09:30Z</time>
      </trkpt>
      <trkpt lat="41.2808340" lon="-8.7296590">
        <ele>6.3</ele>
        <time>2021-05-16T09:09:31Z</time>
      </trkpt>
      <trkpt lat="41.2808410" lon="-8.7296680">
        <ele>6.3</ele>
        <time>2021-05-16T09:09:32Z</time>
      </trkpt>
      <trkpt lat="41.2808460" lon="-8.7296910">
        <ele>6.2</ele>
        <time>2021-05-16T09:09:33Z</time>
      </trkpt>
      <trkpt lat="41.2808510" lon="-8.7297030">
        <ele>6.1</ele>
        <time>2021-05-16T09:09:34Z</time>
      </trkpt>
      <trkpt lat="41.2808550" lon="-8.7297140">
        <ele>6.1</ele>
        <time>2021-05-16T09:09:35Z</time>
      </trkpt>
      <trkpt lat="41.2808540" lon="-8.7297210">
        <ele>6.1</ele>
        <time>2021-05-16T09:09:36Z</time>
      </trkpt>
      <trkpt lat="41.2808590" lon="-8.7297310">
        <ele>6.0</ele>
        <time>2021-05-16T09:09:37Z</time>
      </trkpt>
      <trkpt lat="41.2808540" lon="-8.7297450">
        <ele>6.0</ele>
        <time>2021-05-16T09:09:38Z</time>
      </trkpt>
      <trkpt lat="41.2808510" lon="-8.7297610">
        <ele>6.0</ele>
        <time>2021-05-16T09:09:39Z</time>
      </trkpt>
      <trkpt lat="41.2808510" lon="-8.7297920">
        <ele>5.9</ele>
        <time>2021-05-16T09:09:40Z</time>
      </trkpt>
      <trkpt lat="41.2808500" lon="-8.7298060">
        <ele>5.9</ele>
        <time>2021-05-16T09:09:41Z</time>
      </trkpt>
      <trkpt lat="41.2808500" lon="-8.7298200">
        <ele>5.8</ele>
        <time>2021-05-16T09:09:42Z</time>
      </trkpt>
      <trkpt lat="41.2808490" lon="-8.7298400">
        <ele>5.8</ele>
        <time>2021-05-16T09:09:43Z</time>
      </trkpt>
      <trkpt lat="41.2808450" lon="-8.7298580">
        <ele>5.8</ele>
        <time>2021-05-16T09:09:44Z</time>
      </trkpt>
      <trkpt lat="41.2808450" lon="-8.7298810">
        <ele>5.8</ele>
        <time>2021-05-16T09:09:45Z</time>
      </trkpt>
      <trkpt lat="41.2808460" lon="-8.7298890">
        <ele>5.8</ele>
        <time>2021-05-16T09:09:46Z</time>
      </trkpt>
      <trkpt lat="41.2808460" lon="-8.7298960">
        <ele>5.8</ele>
        <time>2021-05-16T09:09:47Z</time>
      </trkpt>
      <trkpt lat="41.2808470" lon="-8.7299040">
        <ele>5.7</ele>
        <time>2021-05-16T09:09:48Z</time>
      </trkpt>
      <trkpt lat="41.2808470" lon="-8.7299110">
        <ele>5.7</ele>
        <time>2021-05-16T09:09:49Z</time>
      </trkpt>
      <trkpt lat="41.2808470" lon="-8.7299210">
        <ele>5.7</ele>
        <time>2021-05-16T09:09:50Z</time>
      </trkpt>
      <trkpt lat="41.2808410" lon="-8.7299210">
        <ele>5.7</ele>
        <time>2021-05-16T09:09:51Z</time>
      </trkpt>
      <trkpt lat="41.2808410" lon="-8.7299200">
        <ele>5.7</ele>
        <time>2021-05-16T09:09:52Z</time>
      </trkpt>
      <trkpt lat="41.2808420" lon="-8.7299190">
        <ele>5.7</ele>
        <time>2021-05-16T09:09:53Z</time>
      </trkpt>
      <trkpt lat="41.2808430" lon="-8.7299200">
        <ele>5.7</ele>
        <time>2021-05-16T09:09:54Z</time>
      </trkpt>
      <trkpt lat="41.2808430" lon="-8.7299190">
        <ele>5.7</ele>
        <time>2021-05-16T09:09:55Z</time>
      </trkpt>
      <trkpt lat="41.2808430" lon="-8.7299190">
        <ele>5.7</ele>
        <time>2021-05-16T09:09:56Z</time>
      </trkpt>
      <trkpt lat="41.2808430" lon="-8.7299190">
        <ele>5.7</ele>
        <time>2021-05-16T09:09:57Z</time>
      </trkpt>
      <trkpt lat="41.2808420" lon="-8.7299190">
        <ele>5.7</ele>
        <time>2021-05-16T09:09:58Z</time>
      </trkpt>
      <trkpt lat="41.2808430" lon="-8.7299210">
        <ele>5.7</ele>
        <time>2021-05-16T09:09:59Z</time>
      </trkpt>
      <trkpt lat="41.2808430" lon="-8.7299210">
        <ele>5.7</ele>
        <time>2021-05-16T09:10:00Z</time>
      </trkpt>
      <trkpt lat="41.2808430" lon="-8.7299240">
        <ele>5.7</ele>
        <time>2021-05-16T09:10:01Z</time>
      </trkpt>
      <trkpt lat="41.2808430" lon="-8.7299230">
        <ele>5.7</ele>
        <time>2021-05-16T09:10:02Z</time>
      </trkpt>
      <trkpt lat="41.2808440" lon="-8.7299240">
        <ele>5.7</ele>
        <time>2021-05-16T09:10:03Z</time>
      </trkpt>
      <trkpt lat="41.2808440" lon="-8.7299260">
        <ele>5.7</ele>
        <time>2021-05-16T09:10:04Z</time>
      </trkpt>
      <trkpt lat="41.2808440" lon="-8.7299260">
        <ele>5.7</ele>
        <time>2021-05-16T09:10:05Z</time>
      </trkpt>
      <trkpt lat="41.2808460" lon="-8.7299290">
        <ele>5.7</ele>
        <time>2021-05-16T09:10:06Z</time>
      </trkpt>
      <trkpt lat="41.2808470" lon="-8.7299310">
        <ele>5.7</ele>
        <time>2021-05-16T09:10:07Z</time>
      </trkpt>
      <trkpt lat="41.2808470" lon="-8.7299310">
        <ele>5.7</ele>
        <time>2021-05-16T09:10:08Z</time>
      </trkpt>
      <trkpt lat="41.2808470" lon="-8.7299300">
        <ele>5.7</ele>
        <time>2021-05-16T09:10:09Z</time>
      </trkpt>
      <trkpt lat="41.2808470" lon="-8.7299290">
        <ele>5.7</ele>
        <time>2021-05-16T09:10:10Z</time>
      </trkpt>
      <trkpt lat="41.2808460" lon="-8.7299300">
        <ele>5.7</ele>
        <time>2021-05-16T09:10:11Z</time>
      </trkpt>
      <trkpt lat="41.2808460" lon="-8.7299300">
        <ele>5.7</ele>
        <time>2021-05-16T09:10:12Z</time>
      </trkpt>
      <trkpt lat="41.2808470" lon="-8.7299250">
        <ele>5.7</ele>
        <time>2021-05-16T09:10:13Z</time>
      </trkpt>
      <trkpt lat="41.2808460" lon="-8.7299260">
        <ele>5.7</ele>
        <time>2021-05-16T09:10:14Z</time>
      </trkpt>
      <trkpt lat="41.2808460" lon="-8.7299270">
        <ele>5.7</ele>
        <time>2021-05-16T09:10:15Z</time>
      </trkpt>
      <trkpt lat="41.2808460" lon="-8.7299270">
        <ele>5.7</ele>
        <time>2021-05-16T09:10:16Z</time>
      </trkpt>
      <trkpt lat="41.2808440" lon="-8.7299270">
        <ele>5.7</ele>
        <time>2021-05-16T09:10:17Z</time>
      </trkpt>
      <trkpt lat="41.2808430" lon="-8.7299270">
        <ele>5.7</ele>
        <time>2021-05-16T09:10:18Z</time>
      </trkpt>
      <trkpt lat="41.2808430" lon="-8.7299290">
        <ele>5.7</ele>
        <time>2021-05-16T09:10:19Z</time>
      </trkpt>
      <trkpt lat="41.2808430" lon="-8.7299280">
        <ele>5.7</ele>
        <time>2021-05-16T09:10:20Z</time>
      </trkpt>
      <trkpt lat="41.2808430" lon="-8.7299290">
        <ele>5.7</ele>
        <time>2021-05-16T09:10:21Z</time>
      </trkpt>
      <trkpt lat="41.2808430" lon="-8.7299290">
        <ele>5.7</ele>
        <time>2021-05-16T09:10:22Z</time>
      </trkpt>
      <trkpt lat="41.2808430" lon="-8.7299260">
        <ele>5.7</ele>
        <time>2021-05-16T09:10:23Z</time>
      </trkpt>
      <trkpt lat="41.2808430" lon="-8.7299260">
        <ele>5.7</ele>
        <time>2021-05-16T09:10:24Z</time>
      </trkpt>
      <trkpt lat="41.2808430" lon="-8.7299260">
        <ele>5.8</ele>
        <time>2021-05-16T09:10:25Z</time>
      </trkpt>
      <trkpt lat="41.2808430" lon="-8.7299260">
        <ele>5.8</ele>
        <time>2021-05-16T09:10:26Z</time>
      </trkpt>
      <trkpt lat="41.2808360" lon="-8.7299220">
        <ele>5.8</ele>
        <time>2021-05-16T09:10:27Z</time>
      </trkpt>
      <trkpt lat="41.2808350" lon="-8.7299220">
        <ele>5.8</ele>
        <time>2021-05-16T09:10:28Z</time>
      </trkpt>
      <trkpt lat="41.2808340" lon="-8.7299220">
        <ele>5.8</ele>
        <time>2021-05-16T09:10:29Z</time>
      </trkpt>
      <trkpt lat="41.2808350" lon="-8.7299230">
        <ele>5.8</ele>
        <time>2021-05-16T09:10:30Z</time>
      </trkpt>
      <trkpt lat="41.2808330" lon="-8.7299240">
        <ele>5.8</ele>
        <time>2021-05-16T09:10:31Z</time>
      </trkpt>
      <trkpt lat="41.2808330" lon="-8.7299260">
        <ele>5.8</ele>
        <time>2021-05-16T09:10:32Z</time>
      </trkpt>
      <trkpt lat="41.2808260" lon="-8.7299330">
        <ele>5.8</ele>
        <time>2021-05-16T09:10:33Z</time>
      </trkpt>
      <trkpt lat="41.2808290" lon="-8.7299340">
        <ele>5.8</ele>
        <time>2021-05-16T09:10:34Z</time>
      </trkpt>
      <trkpt lat="41.2808280" lon="-8.7299450">
        <ele>5.8</ele>
        <time>2021-05-16T09:10:35Z</time>
      </trkpt>
      <trkpt lat="41.2808310" lon="-8.7299630">
        <ele>5.8</ele>
        <time>2021-05-16T09:10:36Z</time>
      </trkpt>
      <trkpt lat="41.2808290" lon="-8.7299750">
        <ele>5.8</ele>
        <time>2021-05-16T09:10:37Z</time>
      </trkpt>
      <trkpt lat="41.2808340" lon="-8.7299780">
        <ele>5.8</ele>
        <time>2021-05-16T09:10:38Z</time>
      </trkpt>
      <trkpt lat="41.2808380" lon="-8.7299870">
        <ele>5.8</ele>
        <time>2021-05-16T09:10:39Z</time>
      </trkpt>
      <trkpt lat="41.2808550" lon="-8.7300110">
        <ele>5.8</ele>
        <time>2021-05-16T09:10:40Z</time>
      </trkpt>
      <trkpt lat="41.2808580" lon="-8.7300200">
        <ele>5.8</ele>
        <time>2021-05-16T09:10:41Z</time>
      </trkpt>
      <trkpt lat="41.2808620" lon="-8.7300280">
        <ele>5.8</ele>
        <time>2021-05-16T09:10:42Z</time>
      </trkpt>
      <trkpt lat="41.2808770" lon="-8.7300400">
        <ele>5.8</ele>
        <time>2021-05-16T09:10:43Z</time>
      </trkpt>
      <trkpt lat="41.2808840" lon="-8.7300490">
        <ele>5.8</ele>
        <time>2021-05-16T09:10:44Z</time>
      </trkpt>
      <trkpt lat="41.2808940" lon="-8.7300550">
        <ele>5.8</ele>
        <time>2021-05-16T09:10:45Z</time>
      </trkpt>
      <trkpt lat="41.2809130" lon="-8.7300700">
        <ele>5.8</ele>
        <time>2021-05-16T09:10:46Z</time>
      </trkpt>
      <trkpt lat="41.2809200" lon="-8.7300780">
        <ele>5.8</ele>
        <time>2021-05-16T09:10:47Z</time>
      </trkpt>
      <trkpt lat="41.2809270" lon="-8.7300870">
        <ele>5.7</ele>
        <time>2021-05-16T09:10:48Z</time>
      </trkpt>
      <trkpt lat="41.2809310" lon="-8.7300970">
        <ele>5.7</ele>
        <time>2021-05-16T09:10:49Z</time>
      </trkpt>
      <trkpt lat="41.2809450" lon="-8.7301080">
        <ele>5.7</ele>
        <time>2021-05-16T09:10:51Z</time>
      </trkpt>
      <trkpt lat="41.2809450" lon="-8.7301090">
        <ele>5.7</ele>
        <time>2021-05-16T09:10:52Z</time>
      </trkpt>
      <trkpt lat="41.2809490" lon="-8.7301050">
        <ele>5.7</ele>
        <time>2021-05-16T09:10:53Z</time>
      </trkpt>
      <trkpt lat="41.2809510" lon="-8.7301030">
        <ele>5.7</ele>
        <time>2021-05-16T09:10:54Z</time>
      </trkpt>
      <trkpt lat="41.2809540" lon="-8.7301090">
        <ele>5.7</ele>
        <time>2021-05-16T09:10:55Z</time>
      </trkpt>
      <trkpt lat="41.2809540" lon="-8.7301070">
        <ele>5.7</ele>
        <time>2021-05-16T09:10:56Z</time>
      </trkpt>
      <trkpt lat="41.2809560" lon="-8.7301110">
        <ele>5.7</ele>
        <time>2021-05-16T09:10:57Z</time>
      </trkpt>
      <trkpt lat="41.2809580" lon="-8.7301090">
        <ele>5.7</ele>
        <time>2021-05-16T09:10:58Z</time>
      </trkpt>
      <trkpt lat="41.2809620" lon="-8.7301090">
        <ele>5.7</ele>
        <time>2021-05-16T09:10:59Z</time>
      </trkpt>
      <trkpt lat="41.2809640" lon="-8.7301100">
        <ele>5.7</ele>
        <time>2021-05-16T09:11:00Z</time>
      </trkpt>
      <trkpt lat="41.2809660" lon="-8.7301130">
        <ele>5.7</ele>
        <time>2021-05-16T09:11:01Z</time>
      </trkpt>
      <trkpt lat="41.2809690" lon="-8.7301180">
        <ele>5.7</ele>
        <time>2021-05-16T09:11:02Z</time>
      </trkpt>
      <trkpt lat="41.2809690" lon="-8.7301210">
        <ele>5.7</ele>
        <time>2021-05-16T09:11:03Z</time>
      </trkpt>
      <trkpt lat="41.2809700" lon="-8.7301180">
        <ele>5.7</ele>
        <time>2021-05-16T09:11:04Z</time>
      </trkpt>
      <trkpt lat="41.2809720" lon="-8.7301130">
        <ele>5.7</ele>
        <time>2021-05-16T09:11:05Z</time>
      </trkpt>
      <trkpt lat="41.2809730" lon="-8.7301100">
        <ele>5.7</ele>
        <time>2021-05-16T09:11:06Z</time>
      </trkpt>
      <trkpt lat="41.2809750" lon="-8.7301100">
        <ele>5.7</ele>
        <time>2021-05-16T09:11:07Z</time>
      </trkpt>
      <trkpt lat="41.2809840" lon="-8.7301230">
        <ele>5.8</ele>
        <time>2021-05-16T09:11:08Z</time>
      </trkpt>
      <trkpt lat="41.2810020" lon="-8.7301480">
        <ele>5.8</ele>
        <time>2021-05-16T09:11:09Z</time>
      </trkpt>
      <trkpt lat="41.2810060" lon="-8.7301550">
        <ele>5.8</ele>
        <time>2021-05-16T09:11:10Z</time>
      </trkpt>
      <trkpt lat="41.2810110" lon="-8.7301610">
        <ele>5.8</ele>
        <time>2021-05-16T09:11:11Z</time>
      </trkpt>
      <trkpt lat="41.2810160" lon="-8.7301850">
        <ele>5.7</ele>
        <time>2021-05-16T09:11:12Z</time>
      </trkpt>
      <trkpt lat="41.2810200" lon="-8.7301900">
        <ele>5.7</ele>
        <time>2021-05-16T09:11:13Z</time>
      </trkpt>
      <trkpt lat="41.2810180" lon="-8.7301970">
        <ele>5.8</ele>
        <time>2021-05-16T09:11:14Z</time>
      </trkpt>
      <trkpt lat="41.2810310" lon="-8.7302150">
        <ele>5.8</ele>
        <time>2021-05-16T09:11:15Z</time>
      </trkpt>
      <trkpt lat="41.2810390" lon="-8.7302260">
        <ele>5.8</ele>
        <time>2021-05-16T09:11:16Z</time>
      </trkpt>
      <trkpt lat="41.2810530" lon="-8.7302370">
        <ele>5.8</ele>
        <time>2021-05-16T09:11:17Z</time>
      </trkpt>
      <trkpt lat="41.2810660" lon="-8.7302450">
        <ele>5.8</ele>
        <time>2021-05-16T09:11:18Z</time>
      </trkpt>
      <trkpt lat="41.2810790" lon="-8.7302550">
        <ele>5.8</ele>
        <time>2021-05-16T09:11:19Z</time>
      </trkpt>
      <trkpt lat="41.2810810" lon="-8.7302560">
        <ele>5.8</ele>
        <time>2021-05-16T09:11:20Z</time>
      </trkpt>
      <trkpt lat="41.2810840" lon="-8.7302560">
        <ele>5.8</ele>
        <time>2021-05-16T09:11:21Z</time>
      </trkpt>
      <trkpt lat="41.2810860" lon="-8.7302570">
        <ele>5.8</ele>
        <time>2021-05-16T09:11:22Z</time>
      </trkpt>
      <trkpt lat="41.2810890" lon="-8.7302580">
        <ele>5.8</ele>
        <time>2021-05-16T09:11:23Z</time>
      </trkpt>
      <trkpt lat="41.2810920" lon="-8.7302590">
        <ele>5.8</ele>
        <time>2021-05-16T09:11:24Z</time>
      </trkpt>
      <trkpt lat="41.2810940" lon="-8.7302600">
        <ele>5.8</ele>
        <time>2021-05-16T09:11:25Z</time>
      </trkpt>
      <trkpt lat="41.2810970" lon="-8.7302610">
        <ele>5.8</ele>
        <time>2021-05-16T09:11:26Z</time>
      </trkpt>
      <trkpt lat="41.2810990" lon="-8.7302610">
        <ele>5.8</ele>
        <time>2021-05-16T09:11:27Z</time>
      </trkpt>
      <trkpt lat="41.2811020" lon="-8.7302620">
        <ele>5.8</ele>
        <time>2021-05-16T09:11:28Z</time>
      </trkpt>
      <trkpt lat="41.2811040" lon="-8.7302630">
        <ele>5.8</ele>
        <time>2021-05-16T09:11:29Z</time>
      </trkpt>
      <trkpt lat="41.2811070" lon="-8.7302640">
        <ele>5.8</ele>
        <time>2021-05-16T09:11:30Z</time>
      </trkpt>
      <trkpt lat="41.2811100" lon="-8.7302650">
        <ele>5.8</ele>
        <time>2021-05-16T09:11:31Z</time>
      </trkpt>
      <trkpt lat="41.2811120" lon="-8.7302660">
        <ele>5.8</ele>
        <time>2021-05-16T09:11:32Z</time>
      </trkpt>
      <trkpt lat="41.2811150" lon="-8.7302660">
        <ele>5.8</ele>
        <time>2021-05-16T09:11:33Z</time>
      </trkpt>
      <trkpt lat="41.2811170" lon="-8.7302670">
        <ele>5.8</ele>
        <time>2021-05-16T09:11:34Z</time>
      </trkpt>
      <trkpt lat="41.2811200" lon="-8.7302680">
        <ele>5.8</ele>
        <time>2021-05-16T09:11:35Z</time>
      </trkpt>
      <trkpt lat="41.2811170" lon="-8.7302640">
        <ele>5.8</ele>
        <time>2021-05-16T09:11:36Z</time>
      </trkpt>
      <trkpt lat="41.2811150" lon="-8.7302610">
        <ele>5.8</ele>
        <time>2021-05-16T09:11:37Z</time>
      </trkpt>
      <trkpt lat="41.2811120" lon="-8.7302580">
        <ele>5.8</ele>
        <time>2021-05-16T09:11:38Z</time>
      </trkpt>
      <trkpt lat="41.2811100" lon="-8.7302550">
        <ele>5.8</ele>
        <time>2021-05-16T09:11:39Z</time>
      </trkpt>
      <trkpt lat="41.2811070" lon="-8.7302520">
        <ele>5.8</ele>
        <time>2021-05-16T09:11:40Z</time>
      </trkpt>
      <trkpt lat="41.2811050" lon="-8.7302490">
        <ele>5.8</ele>
        <time>2021-05-16T09:11:41Z</time>
      </trkpt>
      <trkpt lat="41.2811020" lon="-8.7302460">
        <ele>5.8</ele>
        <time>2021-05-16T09:11:42Z</time>
      </trkpt>
      <trkpt lat="41.2811000" lon="-8.7302430">
        <ele>5.8</ele>
        <time>2021-05-16T09:11:43Z</time>
      </trkpt>
      <trkpt lat="41.2810970" lon="-8.7302400">
        <ele>5.8</ele>
        <time>2021-05-16T09:11:44Z</time>
      </trkpt>
      <trkpt lat="41.2810950" lon="-8.7302370">
        <ele>5.8</ele>
        <time>2021-05-16T09:11:45Z</time>
      </trkpt>
      <trkpt lat="41.2810920" lon="-8.7302340">
        <ele>5.8</ele>
        <time>2021-05-16T09:11:46Z</time>
      </trkpt>
      <trkpt lat="41.2810890" lon="-8.7302220">
        <ele>5.8</ele>
        <time>2021-05-16T09:11:47Z</time>
      </trkpt>
      <trkpt lat="41.2810830" lon="-8.7302180">
        <ele>5.8</ele>
        <time>2021-05-16T09:11:48Z</time>
      </trkpt>
      <trkpt lat="41.2810870" lon="-8.7302230">
        <ele>5.8</ele>
        <time>2021-05-16T09:11:49Z</time>
      </trkpt>
      <trkpt lat="41.2810960" lon="-8.7302200">
        <ele>5.8</ele>
        <time>2021-05-16T09:11:50Z</time>
      </trkpt>
      <trkpt lat="41.2811030" lon="-8.7302400">
        <ele>5.8</ele>
        <time>2021-05-16T09:11:51Z</time>
      </trkpt>
      <trkpt lat="41.2811100" lon="-8.7302490">
        <ele>5.8</ele>
        <time>2021-05-16T09:11:52Z</time>
      </trkpt>
      <trkpt lat="41.2811100" lon="-8.7302600">
        <ele>5.9</ele>
        <time>2021-05-16T09:11:53Z</time>
      </trkpt>
      <trkpt lat="41.2811090" lon="-8.7302550">
        <ele>5.9</ele>
        <time>2021-05-16T09:11:54Z</time>
      </trkpt>
      <trkpt lat="41.2811100" lon="-8.7302530">
        <ele>5.9</ele>
        <time>2021-05-16T09:11:55Z</time>
      </trkpt>
      <trkpt lat="41.2811110" lon="-8.7302550">
        <ele>5.9</ele>
        <time>2021-05-16T09:11:56Z</time>
      </trkpt>
      <trkpt lat="41.2811130" lon="-8.7302580">
        <ele>5.9</ele>
        <time>2021-05-16T09:11:57Z</time>
      </trkpt>
      <trkpt lat="41.2811140" lon="-8.7302630">
        <ele>5.9</ele>
        <time>2021-05-16T09:11:58Z</time>
      </trkpt>
      <trkpt lat="41.2811120" lon="-8.7302600">
        <ele>5.9</ele>
        <time>2021-05-16T09:11:59Z</time>
      </trkpt>
      <trkpt lat="41.2811150" lon="-8.7302580">
        <ele>5.9</ele>
        <time>2021-05-16T09:12:00Z</time>
      </trkpt>
      <trkpt lat="41.2811160" lon="-8.7302600">
        <ele>5.9</ele>
        <time>2021-05-16T09:12:01Z</time>
      </trkpt>
      <trkpt lat="41.2811170" lon="-8.7302610">
        <ele>5.9</ele>
        <time>2021-05-16T09:12:02Z</time>
      </trkpt>
      <trkpt lat="41.2811180" lon="-8.7302600">
        <ele>5.9</ele>
        <time>2021-05-16T09:12:03Z</time>
      </trkpt>
      <trkpt lat="41.2811210" lon="-8.7302630">
        <ele>5.9</ele>
        <time>2021-05-16T09:12:04Z</time>
      </trkpt>
      <trkpt lat="41.2811270" lon="-8.7302840">
        <ele>5.9</ele>
        <time>2021-05-16T09:12:05Z</time>
      </trkpt>
      <trkpt lat="41.2811360" lon="-8.7303010">
        <ele>6.0</ele>
        <time>2021-05-16T09:12:06Z</time>
      </trkpt>
      <trkpt lat="41.2811400" lon="-8.7303080">
        <ele>6.0</ele>
        <time>2021-05-16T09:12:07Z</time>
      </trkpt>
      <trkpt lat="41.2811540" lon="-8.7303200">
        <ele>6.0</ele>
        <time>2021-05-16T09:12:08Z</time>
      </trkpt>
      <trkpt lat="41.2811620" lon="-8.7303250">
        <ele>6.0</ele>
        <time>2021-05-16T09:12:09Z</time>
      </trkpt>
      <trkpt lat="41.2811710" lon="-8.7303320">
        <ele>6.0</ele>
        <time>2021-05-16T09:12:10Z</time>
      </trkpt>
      <trkpt lat="41.2811800" lon="-8.7303490">
        <ele>6.0</ele>
        <time>2021-05-16T09:12:11Z</time>
      </trkpt>
      <trkpt lat="41.2811890" lon="-8.7303520">
        <ele>6.1</ele>
        <time>2021-05-16T09:12:12Z</time>
      </trkpt>
      <trkpt lat="41.2812070" lon="-8.7303670">
        <ele>6.1</ele>
        <time>2021-05-16T09:12:13Z</time>
      </trkpt>
      <trkpt lat="41.2812140" lon="-8.7303770">
        <ele>6.1</ele>
        <time>2021-05-16T09:12:14Z</time>
      </trkpt>
      <trkpt lat="41.2812220" lon="-8.7303870">
        <ele>6.1</ele>
        <time>2021-05-16T09:12:15Z</time>
      </trkpt>
      <trkpt lat="41.2812390" lon="-8.7304080">
        <ele>6.2</ele>
        <time>2021-05-16T09:12:16Z</time>
      </trkpt>
      <trkpt lat="41.2812460" lon="-8.7304140">
        <ele>6.2</ele>
        <time>2021-05-16T09:12:17Z</time>
      </trkpt>
      <trkpt lat="41.2812540" lon="-8.7304210">
        <ele>6.2</ele>
        <time>2021-05-16T09:12:18Z</time>
      </trkpt>
      <trkpt lat="41.2812700" lon="-8.7304330">
        <ele>6.2</ele>
        <time>2021-05-16T09:12:19Z</time>
      </trkpt>
      <trkpt lat="41.2812790" lon="-8.7304400">
        <ele>6.2</ele>
        <time>2021-05-16T09:12:20Z</time>
      </trkpt>
      <trkpt lat="41.2812890" lon="-8.7304460">
        <ele>6.2</ele>
        <time>2021-05-16T09:12:21Z</time>
      </trkpt>
      <trkpt lat="41.2812950" lon="-8.7304560">
        <ele>6.3</ele>
        <time>2021-05-16T09:12:22Z</time>
      </trkpt>
      <trkpt lat="41.2813040" lon="-8.7304690">
        <ele>6.3</ele>
        <time>2021-05-16T09:12:23Z</time>
      </trkpt>
      <trkpt lat="41.2813150" lon="-8.7304790">
        <ele>6.3</ele>
        <time>2021-05-16T09:12:24Z</time>
      </trkpt>
      <trkpt lat="41.2813340" lon="-8.7304900">
        <ele>6.3</ele>
        <time>2021-05-16T09:12:25Z</time>
      </trkpt>
      <trkpt lat="41.2813430" lon="-8.7304940">
        <ele>6.3</ele>
        <time>2021-05-16T09:12:26Z</time>
      </trkpt>
      <trkpt lat="41.2813510" lon="-8.7304990">
        <ele>6.4</ele>
        <time>2021-05-16T09:12:27Z</time>
      </trkpt>
      <trkpt lat="41.2813600" lon="-8.7305090">
        <ele>6.4</ele>
        <time>2021-05-16T09:12:28Z</time>
      </trkpt>
      <trkpt lat="41.2813610" lon="-8.7305110">
        <ele>6.4</ele>
        <time>2021-05-16T09:12:29Z</time>
      </trkpt>
      <trkpt lat="41.2813630" lon="-8.7305130">
        <ele>6.4</ele>
        <time>2021-05-16T09:12:30Z</time>
      </trkpt>
      <trkpt lat="41.2813640" lon="-8.7305150">
        <ele>6.4</ele>
        <time>2021-05-16T09:12:31Z</time>
      </trkpt>
      <trkpt lat="41.2813660" lon="-8.7305170">
        <ele>6.4</ele>
        <time>2021-05-16T09:12:32Z</time>
      </trkpt>
      <trkpt lat="41.2813680" lon="-8.7305190">
        <ele>6.4</ele>
        <time>2021-05-16T09:12:33Z</time>
      </trkpt>
      <trkpt lat="41.2813690" lon="-8.7305210">
        <ele>6.4</ele>
        <time>2021-05-16T09:12:34Z</time>
      </trkpt>
      <trkpt lat="41.2813710" lon="-8.7305230">
        <ele>6.4</ele>
        <time>2021-05-16T09:12:35Z</time>
      </trkpt>
      <trkpt lat="41.2813720" lon="-8.7305250">
        <ele>6.4</ele>
        <time>2021-05-16T09:12:36Z</time>
      </trkpt>
      <trkpt lat="41.2813740" lon="-8.7305270">
        <ele>6.4</ele>
        <time>2021-05-16T09:12:37Z</time>
      </trkpt>
      <trkpt lat="41.2813750" lon="-8.7305290">
        <ele>6.4</ele>
        <time>2021-05-16T09:12:38Z</time>
      </trkpt>
      <trkpt lat="41.2813770" lon="-8.7305310">
        <ele>6.4</ele>
        <time>2021-05-16T09:12:39Z</time>
      </trkpt>
      <trkpt lat="41.2813790" lon="-8.7305330">
        <ele>6.4</ele>
        <time>2021-05-16T09:12:40Z</time>
      </trkpt>
      <trkpt lat="41.2813800" lon="-8.7305350">
        <ele>6.4</ele>
        <time>2021-05-16T09:12:41Z</time>
      </trkpt>
      <trkpt lat="41.2813820" lon="-8.7305370">
        <ele>6.4</ele>
        <time>2021-05-16T09:12:42Z</time>
      </trkpt>
      <trkpt lat="41.2813830" lon="-8.7305390">
        <ele>6.4</ele>
        <time>2021-05-16T09:12:43Z</time>
      </trkpt>
      <trkpt lat="41.2813850" lon="-8.7305410">
        <ele>6.4</ele>
        <time>2021-05-16T09:12:44Z</time>
      </trkpt>
      <trkpt lat="41.2813980" lon="-8.7305660">
        <ele>6.5</ele>
        <time>2021-05-16T09:12:45Z</time>
      </trkpt>
      <trkpt lat="41.2814030" lon="-8.7305770">
        <ele>6.5</ele>
        <time>2021-05-16T09:12:46Z</time>
      </trkpt>
      <trkpt lat="41.2814090" lon="-8.7305880">
        <ele>6.5</ele>
        <time>2021-05-16T09:12:47Z</time>
      </trkpt>
      <trkpt lat="41.2814140" lon="-8.7305980">
        <ele>6.5</ele>
        <time>2021-05-16T09:12:48Z</time>
      </trkpt>
      <trkpt lat="41.2814260" lon="-8.7306200">
        <ele>6.5</ele>
        <time>2021-05-16T09:12:49Z</time>
      </trkpt>
      <trkpt lat="41.2814340" lon="-8.7306350">
        <ele>6.6</ele>
        <time>2021-05-16T09:12:50Z</time>
      </trkpt>
      <trkpt lat="41.2814470" lon="-8.7306490">
        <ele>6.6</ele>
        <time>2021-05-16T09:12:51Z</time>
      </trkpt>
      <trkpt lat="41.2814610" lon="-8.7306680">
        <ele>6.6</ele>
        <time>2021-05-16T09:12:52Z</time>
      </trkpt>
      <trkpt lat="41.2814670" lon="-8.7306800">
        <ele>6.7</ele>
        <time>2021-05-16T09:12:53Z</time>
      </trkpt>
      <trkpt lat="41.2814800" lon="-8.7306930">
        <ele>6.7</ele>
        <time>2021-05-16T09:12:54Z</time>
      </trkpt>
      <trkpt lat="41.2814910" lon="-8.7307050">
        <ele>6.7</ele>
        <time>2021-05-16T09:12:55Z</time>
      </trkpt>
      <trkpt lat="41.2815050" lon="-8.7307220">
        <ele>6.8</ele>
        <time>2021-05-16T09:12:56Z</time>
      </trkpt>
      <trkpt lat="41.2815160" lon="-8.7307340">
        <ele>6.8</ele>
        <time>2021-05-16T09:12:57Z</time>
      </trkpt>
      <trkpt lat="41.2815290" lon="-8.7307500">
        <ele>6.9</ele>
        <time>2021-05-16T09:12:58Z</time>
      </trkpt>
      <trkpt lat="41.2815370" lon="-8.7307660">
        <ele>6.9</ele>
        <time>2021-05-16T09:12:59Z</time>
      </trkpt>
      <trkpt lat="41.2815490" lon="-8.7307820">
        <ele>6.9</ele>
        <time>2021-05-16T09:13:00Z</time>
      </trkpt>
      <trkpt lat="41.2815600" lon="-8.7307930">
        <ele>7.0</ele>
        <time>2021-05-16T09:13:01Z</time>
      </trkpt>
      <trkpt lat="41.2815750" lon="-8.7307980">
        <ele>7.0</ele>
        <time>2021-05-16T09:13:02Z</time>
      </trkpt>
      <trkpt lat="41.2815880" lon="-8.7308030">
        <ele>7.0</ele>
        <time>2021-05-16T09:13:03Z</time>
      </trkpt>
      <trkpt lat="41.2816080" lon="-8.7308150">
        <ele>7.1</ele>
        <time>2021-05-16T09:13:04Z</time>
      </trkpt>
      <trkpt lat="41.2816160" lon="-8.7308190">
        <ele>7.1</ele>
        <time>2021-05-16T09:13:05Z</time>
      </trkpt>
      <trkpt lat="41.2816240" lon="-8.7308240">
        <ele>7.2</ele>
        <time>2021-05-16T09:13:06Z</time>
      </trkpt>
      <trkpt lat="41.2816260" lon="-8.7308290">
        <ele>7.2</ele>
        <time>2021-05-16T09:13:07Z</time>
      </trkpt>
      <trkpt lat="41.2816220" lon="-8.7308280">
        <ele>7.2</ele>
        <time>2021-05-16T09:13:08Z</time>
      </trkpt>
      <trkpt lat="41.2816170" lon="-8.7308260">
        <ele>7.2</ele>
        <time>2021-05-16T09:13:09Z</time>
      </trkpt>
      <trkpt lat="41.2816130" lon="-8.7308240">
        <ele>7.2</ele>
        <time>2021-05-16T09:13:10Z</time>
      </trkpt>
      <trkpt lat="41.2816090" lon="-8.7308220">
        <ele>7.2</ele>
        <time>2021-05-16T09:13:11Z</time>
      </trkpt>
      <trkpt lat="41.2816050" lon="-8.7308210">
        <ele>7.2</ele>
        <time>2021-05-16T09:13:12Z</time>
      </trkpt>
      <trkpt lat="41.2816010" lon="-8.7308190">
        <ele>7.2</ele>
        <time>2021-05-16T09:13:13Z</time>
      </trkpt>
      <trkpt lat="41.2815960" lon="-8.7308170">
        <ele>7.3</ele>
        <time>2021-05-16T09:13:14Z</time>
      </trkpt>
      <trkpt lat="41.2815920" lon="-8.7308160">
        <ele>7.3</ele>
        <time>2021-05-16T09:13:15Z</time>
      </trkpt>
      <trkpt lat="41.2815880" lon="-8.7308140">
        <ele>7.3</ele>
        <time>2021-05-16T09:13:16Z</time>
      </trkpt>
      <trkpt lat="41.2815960" lon="-8.7308130">
        <ele>7.3</ele>
        <time>2021-05-16T09:13:17Z</time>
      </trkpt>
      <trkpt lat="41.2816040" lon="-8.7308170">
        <ele>7.3</ele>
        <time>2021-05-16T09:13:18Z</time>
      </trkpt>
      <trkpt lat="41.2816110" lon="-8.7308220">
        <ele>7.4</ele>
        <time>2021-05-16T09:13:19Z</time>
      </trkpt>
      <trkpt lat="41.2816190" lon="-8.7308260">
        <ele>7.4</ele>
        <time>2021-05-16T09:13:20Z</time>
      </trkpt>
      <trkpt lat="41.2816270" lon="-8.7308300">
        <ele>7.4</ele>
        <time>2021-05-16T09:13:21Z</time>
      </trkpt>
      <trkpt lat="41.2816400" lon="-8.7308370">
        <ele>7.4</ele>
        <time>2021-05-16T09:13:22Z</time>
      </trkpt>
      <trkpt lat="41.2816520" lon="-8.7308430">
        <ele>7.5</ele>
        <time>2021-05-16T09:13:23Z</time>
      </trkpt>
      <trkpt lat="41.2816670" lon="-8.7308540">
        <ele>7.5</ele>
        <time>2021-05-16T09:13:24Z</time>
      </trkpt>
      <trkpt lat="41.2816790" lon="-8.7308560">
        <ele>7.6</ele>
        <time>2021-05-16T09:13:25Z</time>
      </trkpt>
      <trkpt lat="41.2816930" lon="-8.7308670">
        <ele>7.6</ele>
        <time>2021-05-16T09:13:26Z</time>
      </trkpt>
      <trkpt lat="41.2817060" lon="-8.7308730">
        <ele>7.7</ele>
        <time>2021-05-16T09:13:27Z</time>
      </trkpt>
      <trkpt lat="41.2817230" lon="-8.7308900">
        <ele>7.7</ele>
        <time>2021-05-16T09:13:28Z</time>
      </trkpt>
      <trkpt lat="41.2817310" lon="-8.7308950">
        <ele>7.7</ele>
        <time>2021-05-16T09:13:29Z</time>
      </trkpt>
      <trkpt lat="41.2817400" lon="-8.7308990">
        <ele>7.8</ele>
        <time>2021-05-16T09:13:30Z</time>
      </trkpt>
      <trkpt lat="41.2817570" lon="-8.7309070">
        <ele>7.8</ele>
        <time>2021-05-16T09:13:31Z</time>
      </trkpt>
      <trkpt lat="41.2817730" lon="-8.7309120">
        <ele>7.9</ele>
        <time>2021-05-16T09:13:32Z</time>
      </trkpt>
      <trkpt lat="41.2817830" lon="-8.7309100">
        <ele>7.9</ele>
        <time>2021-05-16T09:13:33Z</time>
      </trkpt>
      <trkpt lat="41.2818020" lon="-8.7309140">
        <ele>7.9</ele>
        <time>2021-05-16T09:13:34Z</time>
      </trkpt>
      <trkpt lat="41.2818220" lon="-8.7309240">
        <ele>8.0</ele>
        <time>2021-05-16T09:13:35Z</time>
      </trkpt>
      <trkpt lat="41.2818300" lon="-8.7309280">
        <ele>8.0</ele>
        <time>2021-05-16T09:13:36Z</time>
      </trkpt>
      <trkpt lat="41.2818370" lon="-8.7309310">
        <ele>8.0</ele>
        <time>2021-05-16T09:13:37Z</time>
      </trkpt>
      <trkpt lat="41.2818440" lon="-8.7309380">
        <ele>8.0</ele>
        <time>2021-05-16T09:13:38Z</time>
      </trkpt>
      <trkpt lat="41.2818460" lon="-8.7309430">
        <ele>8.0</ele>
        <time>2021-05-16T09:13:39Z</time>
      </trkpt>
      <trkpt lat="41.2818620" lon="-8.7309520">
        <ele>8.0</ele>
        <time>2021-05-16T09:13:40Z</time>
      </trkpt>
      <trkpt lat="41.2818730" lon="-8.7309710">
        <ele>8.0</ele>
        <time>2021-05-16T09:13:41Z</time>
      </trkpt>
      <trkpt lat="41.2818820" lon="-8.7309880">
        <ele>8.0</ele>
        <time>2021-05-16T09:13:42Z</time>
      </trkpt>
      <trkpt lat="41.2818910" lon="-8.7310170">
        <ele>8.0</ele>
        <time>2021-05-16T09:13:43Z</time>
      </trkpt>
      <trkpt lat="41.2818940" lon="-8.7310280">
        <ele>8.0</ele>
        <time>2021-05-16T09:13:44Z</time>
      </trkpt>
      <trkpt lat="41.2818980" lon="-8.7310400">
        <ele>8.0</ele>
        <time>2021-05-16T09:13:45Z</time>
      </trkpt>
      <trkpt lat="41.2819010" lon="-8.7310470">
        <ele>8.0</ele>
        <time>2021-05-16T09:13:46Z</time>
      </trkpt>
      <trkpt lat="41.2819140" lon="-8.7310580">
        <ele>8.0</ele>
        <time>2021-05-16T09:13:47Z</time>
      </trkpt>
      <trkpt lat="41.2819270" lon="-8.7310640">
        <ele>8.0</ele>
        <time>2021-05-16T09:13:48Z</time>
      </trkpt>
      <trkpt lat="41.2819420" lon="-8.7310650">
        <ele>8.0</ele>
        <time>2021-05-16T09:13:49Z</time>
      </trkpt>
      <trkpt lat="41.2819540" lon="-8.7310760">
        <ele>8.0</ele>
        <time>2021-05-16T09:13:50Z</time>
      </trkpt>
      <trkpt lat="41.2819620" lon="-8.7310830">
        <ele>8.0</ele>
        <time>2021-05-16T09:13:51Z</time>
      </trkpt>
      <trkpt lat="41.2819710" lon="-8.7310870">
        <ele>8.0</ele>
        <time>2021-05-16T09:13:52Z</time>
      </trkpt>
      <trkpt lat="41.2819850" lon="-8.7310870">
        <ele>8.1</ele>
        <time>2021-05-16T09:13:53Z</time>
      </trkpt>
      <trkpt lat="41.2820070" lon="-8.7311000">
        <ele>8.1</ele>
        <time>2021-05-16T09:13:54Z</time>
      </trkpt>
      <trkpt lat="41.2820150" lon="-8.7311040">
        <ele>8.1</ele>
        <time>2021-05-16T09:13:55Z</time>
      </trkpt>
      <trkpt lat="41.2820240" lon="-8.7311080">
        <ele>8.1</ele>
        <time>2021-05-16T09:13:56Z</time>
      </trkpt>
      <trkpt lat="41.2820320" lon="-8.7311140">
        <ele>8.1</ele>
        <time>2021-05-16T09:13:57Z</time>
      </trkpt>
      <trkpt lat="41.2820440" lon="-8.7311160">
        <ele>8.1</ele>
        <time>2021-05-16T09:13:58Z</time>
      </trkpt>
      <trkpt lat="41.2820570" lon="-8.7311240">
        <ele>8.1</ele>
        <time>2021-05-16T09:13:59Z</time>
      </trkpt>
      <trkpt lat="41.2820760" lon="-8.7311310">
        <ele>8.1</ele>
        <time>2021-05-16T09:14:00Z</time>
      </trkpt>
      <trkpt lat="41.2820860" lon="-8.7311360">
        <ele>8.1</ele>
        <time>2021-05-16T09:14:01Z</time>
      </trkpt>
      <trkpt lat="41.2820950" lon="-8.7311400">
        <ele>8.1</ele>
        <time>2021-05-16T09:14:02Z</time>
      </trkpt>
      <trkpt lat="41.2821090" lon="-8.7311480">
        <ele>8.1</ele>
        <time>2021-05-16T09:14:03Z</time>
      </trkpt>
      <trkpt lat="41.2821240" lon="-8.7311530">
        <ele>8.1</ele>
        <time>2021-05-16T09:14:04Z</time>
      </trkpt>
      <trkpt lat="41.2821340" lon="-8.7311600">
        <ele>8.1</ele>
        <time>2021-05-16T09:14:05Z</time>
      </trkpt>
      <trkpt lat="41.2821510" lon="-8.7311650">
        <ele>8.1</ele>
        <time>2021-05-16T09:14:06Z</time>
      </trkpt>
      <trkpt lat="41.2821530" lon="-8.7311720">
        <ele>8.1</ele>
        <time>2021-05-16T09:14:07Z</time>
      </trkpt>
      <trkpt lat="41.2821640" lon="-8.7311750">
        <ele>8.1</ele>
        <time>2021-05-16T09:14:08Z</time>
      </trkpt>
      <trkpt lat="41.2821430" lon="-8.7311620">
        <ele>8.1</ele>
        <time>2021-05-16T09:14:09Z</time>
      </trkpt>
      <trkpt lat="41.2821250" lon="-8.7311520">
        <ele>8.1</ele>
        <time>2021-05-16T09:14:10Z</time>
      </trkpt>
      <trkpt lat="41.2821140" lon="-8.7311440">
        <ele>8.1</ele>
        <time>2021-05-16T09:14:11Z</time>
      </trkpt>
      <trkpt lat="41.2820950" lon="-8.7311370">
        <ele>8.1</ele>
        <time>2021-05-16T09:14:12Z</time>
      </trkpt>
      <trkpt lat="41.2820730" lon="-8.7311250">
        <ele>8.1</ele>
        <time>2021-05-16T09:14:13Z</time>
      </trkpt>
      <trkpt lat="41.2820630" lon="-8.7311210">
        <ele>8.1</ele>
        <time>2021-05-16T09:14:14Z</time>
      </trkpt>
      <trkpt lat="41.2820540" lon="-8.7311160">
        <ele>8.1</ele>
        <time>2021-05-16T09:14:15Z</time>
      </trkpt>
      <trkpt lat="41.2820400" lon="-8.7311100">
        <ele>8.1</ele>
        <time>2021-05-16T09:14:16Z</time>
      </trkpt>
      <trkpt lat="41.2820250" lon="-8.7311080">
        <ele>8.1</ele>
        <time>2021-05-16T09:14:17Z</time>
      </trkpt>
      <trkpt lat="41.2820130" lon="-8.7310990">
        <ele>8.1</ele>
        <time>2021-05-16T09:14:18Z</time>
      </trkpt>
      <trkpt lat="41.2820190" lon="-8.7310830">
        <ele>8.1</ele>
        <time>2021-05-16T09:14:19Z</time>
      </trkpt>
      <trkpt lat="41.2820170" lon="-8.7310740">
        <ele>8.1</ele>
        <time>2021-05-16T09:14:20Z</time>
      </trkpt>
      <trkpt lat="41.2820190" lon="-8.7310680">
        <ele>8.1</ele>
        <time>2021-05-16T09:14:21Z</time>
      </trkpt>
      <trkpt lat="41.2820220" lon="-8.7310650">
        <ele>8.1</ele>
        <time>2021-05-16T09:14:22Z</time>
      </trkpt>
      <trkpt lat="41.2820240" lon="-8.7310660">
        <ele>8.1</ele>
        <time>2021-05-16T09:14:23Z</time>
      </trkpt>
      <trkpt lat="41.2820240" lon="-8.7310640">
        <ele>8.1</ele>
        <time>2021-05-16T09:14:24Z</time>
      </trkpt>
      <trkpt lat="41.2820250" lon="-8.7310630">
        <ele>8.1</ele>
        <time>2021-05-16T09:14:25Z</time>
      </trkpt>
      <trkpt lat="41.2820250" lon="-8.7310630">
        <ele>8.1</ele>
        <time>2021-05-16T09:14:26Z</time>
      </trkpt>
      <trkpt lat="41.2820240" lon="-8.7310610">
        <ele>8.1</ele>
        <time>2021-05-16T09:14:27Z</time>
      </trkpt>
      <trkpt lat="41.2820260" lon="-8.7310540">
        <ele>8.1</ele>
        <time>2021-05-16T09:14:28Z</time>
      </trkpt>
      <trkpt lat="41.2820280" lon="-8.7310480">
        <ele>8.1</ele>
        <time>2021-05-16T09:14:29Z</time>
      </trkpt>
      <trkpt lat="41.2820300" lon="-8.7310460">
        <ele>8.1</ele>
        <time>2021-05-16T09:14:30Z</time>
      </trkpt>
      <trkpt lat="41.2820310" lon="-8.7310400">
        <ele>8.1</ele>
        <time>2021-05-16T09:14:31Z</time>
      </trkpt>
      <trkpt lat="41.2820360" lon="-8.7310310">
        <ele>8.1</ele>
        <time>2021-05-16T09:14:32Z</time>
      </trkpt>
      <trkpt lat="41.2820410" lon="-8.7310360">
        <ele>8.1</ele>
        <time>2021-05-16T09:14:33Z</time>
      </trkpt>
      <trkpt lat="41.2820450" lon="-8.7310370">
        <ele>8.1</ele>
        <time>2021-05-16T09:14:34Z</time>
      </trkpt>
      <trkpt lat="41.2820550" lon="-8.7310270">
        <ele>8.1</ele>
        <time>2021-05-16T09:14:35Z</time>
      </trkpt>
      <trkpt lat="41.2820610" lon="-8.7310240">
        <ele>8.1</ele>
        <time>2021-05-16T09:14:36Z</time>
      </trkpt>
      <trkpt lat="41.2820680" lon="-8.7310240">
        <ele>8.1</ele>
        <time>2021-05-16T09:14:37Z</time>
      </trkpt>
      <trkpt lat="41.2820710" lon="-8.7310160">
        <ele>8.1</ele>
        <time>2021-05-16T09:14:38Z</time>
      </trkpt>
      <trkpt lat="41.2820690" lon="-8.7310210">
        <ele>8.1</ele>
        <time>2021-05-16T09:14:39Z</time>
      </trkpt>
      <trkpt lat="41.2820740" lon="-8.7310240">
        <ele>8.1</ele>
        <time>2021-05-16T09:14:40Z</time>
      </trkpt>
      <trkpt lat="41.2820770" lon="-8.7310280">
        <ele>8.1</ele>
        <time>2021-05-16T09:14:41Z</time>
      </trkpt>
      <trkpt lat="41.2820870" lon="-8.7310200">
        <ele>8.1</ele>
        <time>2021-05-16T09:14:42Z</time>
      </trkpt>
      <trkpt lat="41.2820820" lon="-8.7310210">
        <ele>8.1</ele>
        <time>2021-05-16T09:14:43Z</time>
      </trkpt>
      <trkpt lat="41.2820820" lon="-8.7310210">
        <ele>8.1</ele>
        <time>2021-05-16T09:14:44Z</time>
      </trkpt>
      <trkpt lat="41.2820380" lon="-8.7310350">
        <ele>8.2</ele>
        <time>2021-05-16T09:14:45Z</time>
      </trkpt>
      <trkpt lat="41.2820380" lon="-8.7310380">
        <ele>8.2</ele>
        <time>2021-05-16T09:14:46Z</time>
      </trkpt>
      <trkpt lat="41.2820060" lon="-8.7310330">
        <ele>8.2</ele>
        <time>2021-05-16T09:14:47Z</time>
      </trkpt>
      <trkpt lat="41.2820140" lon="-8.7310350">
        <ele>8.2</ele>
        <time>2021-05-16T09:14:48Z</time>
      </trkpt>
      <trkpt lat="41.2820110" lon="-8.7310290">
        <ele>8.2</ele>
        <time>2021-05-16T09:14:49Z</time>
      </trkpt>
      <trkpt lat="41.2820110" lon="-8.7310230">
        <ele>8.2</ele>
        <time>2021-05-16T09:14:50Z</time>
      </trkpt>
      <trkpt lat="41.2820200" lon="-8.7310330">
        <ele>8.2</ele>
        <time>2021-05-16T09:14:51Z</time>
      </trkpt>
      <trkpt lat="41.2820140" lon="-8.7310320">
        <ele>8.2</ele>
        <time>2021-05-16T09:14:52Z</time>
      </trkpt>
      <trkpt lat="41.2820150" lon="-8.7310330">
        <ele>8.2</ele>
        <time>2021-05-16T09:14:53Z</time>
      </trkpt>
      <trkpt lat="41.2820630" lon="-8.7310680">
        <ele>8.2</ele>
        <time>2021-05-16T09:14:54Z</time>
      </trkpt>
      <trkpt lat="41.2820500" lon="-8.7310070">
        <ele>8.2</ele>
        <time>2021-05-16T09:14:55Z</time>
      </trkpt>
      <trkpt lat="41.2820300" lon="-8.7309610">
        <ele>8.5</ele>
        <time>2021-05-16T09:14:56Z</time>
      </trkpt>
      <trkpt lat="41.2820240" lon="-8.7309280">
        <ele>8.6</ele>
        <time>2021-05-16T09:14:57Z</time>
      </trkpt>
      <trkpt lat="41.2820470" lon="-8.7309240">
        <ele>8.6</ele>
        <time>2021-05-16T09:14:58Z</time>
      </trkpt>
      <trkpt lat="41.2820580" lon="-8.7309160">
        <ele>8.6</ele>
        <time>2021-05-16T09:14:59Z</time>
      </trkpt>
      <trkpt lat="41.2820680" lon="-8.7309080">
        <ele>8.6</ele>
        <time>2021-05-16T09:15:00Z</time>
      </trkpt>
      <trkpt lat="41.2820780" lon="-8.7309000">
        <ele>8.6</ele>
        <time>2021-05-16T09:15:01Z</time>
      </trkpt>
      <trkpt lat="41.2820600" lon="-8.7309010">
        <ele>8.6</ele>
        <time>2021-05-16T09:15:02Z</time>
      </trkpt>
      <trkpt lat="41.2820560" lon="-8.7308930">
        <ele>8.6</ele>
        <time>2021-05-16T09:15:03Z</time>
      </trkpt>
      <trkpt lat="41.2820530" lon="-8.7308850">
        <ele>8.6</ele>
        <time>2021-05-16T09:15:04Z</time>
      </trkpt>
      <trkpt lat="41.2820490" lon="-8.7308780">
        <ele>8.6</ele>
        <time>2021-05-16T09:15:05Z</time>
      </trkpt>
      <trkpt lat="41.2820450" lon="-8.7308700">
        <ele>8.6</ele>
        <time>2021-05-16T09:15:06Z</time>
      </trkpt>
      <trkpt lat="41.2820410" lon="-8.7308620">
        <ele>8.6</ele>
        <time>2021-05-16T09:15:07Z</time>
      </trkpt>
      <trkpt lat="41.2820520" lon="-8.7308540">
        <ele>8.6</ele>
        <time>2021-05-16T09:15:08Z</time>
      </trkpt>
      <trkpt lat="41.2820600" lon="-8.7308620">
        <ele>8.6</ele>
        <time>2021-05-16T09:15:09Z</time>
      </trkpt>
      <trkpt lat="41.2820690" lon="-8.7308710">
        <ele>8.6</ele>
        <time>2021-05-16T09:15:10Z</time>
      </trkpt>
      <trkpt lat="41.2820770" lon="-8.7308800">
        <ele>8.6</ele>
        <time>2021-05-16T09:15:11Z</time>
      </trkpt>
      <trkpt lat="41.2820820" lon="-8.7308900">
        <ele>8.6</ele>
        <time>2021-05-16T09:15:12Z</time>
      </trkpt>
      <trkpt lat="41.2820600" lon="-8.7308850">
        <ele>8.6</ele>
        <time>2021-05-16T09:15:13Z</time>
      </trkpt>
      <trkpt lat="41.2820530" lon="-8.7308670">
        <ele>8.6</ele>
        <time>2021-05-16T09:15:14Z</time>
      </trkpt>
      <trkpt lat="41.2820780" lon="-8.7308740">
        <ele>8.6</ele>
        <time>2021-05-16T09:15:15Z</time>
      </trkpt>
      <trkpt lat="41.2820890" lon="-8.7308810">
        <ele>8.7</ele>
        <time>2021-05-16T09:15:16Z</time>
      </trkpt>
      <trkpt lat="41.2820940" lon="-8.7309100">
        <ele>8.7</ele>
        <time>2021-05-16T09:15:17Z</time>
      </trkpt>
      <trkpt lat="41.2820990" lon="-8.7309080">
        <ele>8.7</ele>
        <time>2021-05-16T09:15:18Z</time>
      </trkpt>
      <trkpt lat="41.2821030" lon="-8.7309070">
        <ele>8.7</ele>
        <time>2021-05-16T09:15:19Z</time>
      </trkpt>
      <trkpt lat="41.2821080" lon="-8.7309070">
        <ele>8.7</ele>
        <time>2021-05-16T09:15:20Z</time>
      </trkpt>
      <trkpt lat="41.2821120" lon="-8.7309060">
        <ele>8.7</ele>
        <time>2021-05-16T09:15:21Z</time>
      </trkpt>
      <trkpt lat="41.2821160" lon="-8.7309050">
        <ele>8.7</ele>
        <time>2021-05-16T09:15:22Z</time>
      </trkpt>
      <trkpt lat="41.2821200" lon="-8.7309040">
        <ele>8.7</ele>
        <time>2021-05-16T09:15:23Z</time>
      </trkpt>
      <trkpt lat="41.2821240" lon="-8.7309030">
        <ele>8.7</ele>
        <time>2021-05-16T09:15:24Z</time>
      </trkpt>
      <trkpt lat="41.2821280" lon="-8.7309020">
        <ele>8.7</ele>
        <time>2021-05-16T09:15:25Z</time>
      </trkpt>
      <trkpt lat="41.2821330" lon="-8.7309020">
        <ele>8.7</ele>
        <time>2021-05-16T09:15:26Z</time>
      </trkpt>
      <trkpt lat="41.2821370" lon="-8.7309010">
        <ele>8.7</ele>
        <time>2021-05-16T09:15:27Z</time>
      </trkpt>
      <trkpt lat="41.2821410" lon="-8.7309000">
        <ele>8.7</ele>
        <time>2021-05-16T09:15:28Z</time>
      </trkpt>
      <trkpt lat="41.2821580" lon="-8.7309010">
        <ele>8.7</ele>
        <time>2021-05-16T09:15:29Z</time>
      </trkpt>
      <trkpt lat="41.2821710" lon="-8.7308950">
        <ele>8.7</ele>
        <time>2021-05-16T09:15:30Z</time>
      </trkpt>
      <trkpt lat="41.2821770" lon="-8.7308890">
        <ele>8.8</ele>
        <time>2021-05-16T09:15:31Z</time>
      </trkpt>
      <trkpt lat="41.2821870" lon="-8.7308880">
        <ele>8.8</ele>
        <time>2021-05-16T09:15:32Z</time>
      </trkpt>
      <trkpt lat="41.2821950" lon="-8.7308740">
        <ele>8.8</ele>
        <time>2021-05-16T09:15:33Z</time>
      </trkpt>
      <trkpt lat="41.2822190" lon="-8.7308500">
        <ele>8.8</ele>
        <time>2021-05-16T09:15:34Z</time>
      </trkpt>
      <trkpt lat="41.2822250" lon="-8.7308460">
        <ele>8.8</ele>
        <time>2021-05-16T09:15:35Z</time>
      </trkpt>
      <trkpt lat="41.2822380" lon="-8.7308400">
        <ele>8.8</ele>
        <time>2021-05-16T09:15:36Z</time>
      </trkpt>
      <trkpt lat="41.2822440" lon="-8.7308210">
        <ele>8.9</ele>
        <time>2021-05-16T09:15:37Z</time>
      </trkpt>
      <trkpt lat="41.2822450" lon="-8.7308210">
        <ele>8.9</ele>
        <time>2021-05-16T09:15:38Z</time>
      </trkpt>
      <trkpt lat="41.2822180" lon="-8.7307250">
        <ele>9.0</ele>
        <time>2021-05-16T09:15:39Z</time>
      </trkpt>
      <trkpt lat="41.2822170" lon="-8.7306940">
        <ele>9.0</ele>
        <time>2021-05-16T09:15:40Z</time>
      </trkpt>
      <trkpt lat="41.2822160" lon="-8.7306630">
        <ele>9.0</ele>
        <time>2021-05-16T09:15:41Z</time>
      </trkpt>
      <trkpt lat="41.2822300" lon="-8.7306520">
        <ele>9.0</ele>
        <time>2021-05-16T09:15:42Z</time>
      </trkpt>
      <trkpt lat="41.2822460" lon="-8.7306500">
        <ele>9.1</ele>
        <time>2021-05-16T09:15:43Z</time>
      </trkpt>
      <trkpt lat="41.2820530" lon="-8.7309680">
        <ele>8.2</ele>
        <time>2021-05-16T09:15:44Z</time>
      </trkpt>
      <trkpt lat="41.2820540" lon="-8.7309650">
        <ele>8.2</ele>
        <time>2021-05-16T09:15:45Z</time>
      </trkpt>
      <trkpt lat="41.2820580" lon="-8.7309630">
        <ele>8.2</ele>
        <time>2021-05-16T09:15:46Z</time>
      </trkpt>
      <trkpt lat="41.2820420" lon="-8.7309430">
        <ele>8.2</ele>
        <time>2021-05-16T09:15:47Z</time>
      </trkpt>
      <trkpt lat="41.2820420" lon="-8.7309430">
        <ele>8.2</ele>
        <time>2021-05-16T09:15:48Z</time>
      </trkpt>
      <trkpt lat="41.2820420" lon="-8.7309430">
        <ele>8.2</ele>
        <time>2021-05-16T09:15:49Z</time>
      </trkpt>
      <trkpt lat="41.2820420" lon="-8.7309430">
        <ele>8.2</ele>
        <time>2021-05-16T09:15:50Z</time>
      </trkpt>
      <trkpt lat="41.2820240" lon="-8.7309470">
        <ele>8.2</ele>
        <time>2021-05-16T09:15:51Z</time>
      </trkpt>
      <trkpt lat="41.2820380" lon="-8.7309460">
        <ele>8.2</ele>
        <time>2021-05-16T09:15:52Z</time>
      </trkpt>
      <trkpt lat="41.2820530" lon="-8.7309450">
        <ele>8.2</ele>
        <time>2021-05-16T09:15:53Z</time>
      </trkpt>
      <trkpt lat="41.2820670" lon="-8.7309440">
        <ele>8.2</ele>
        <time>2021-05-16T09:15:54Z</time>
      </trkpt>
      <trkpt lat="41.2820820" lon="-8.7309430">
        <ele>8.2</ele>
        <time>2021-05-16T09:15:55Z</time>
      </trkpt>
      <trkpt lat="41.2820960" lon="-8.7309420">
        <ele>8.2</ele>
        <time>2021-05-16T09:15:56Z</time>
      </trkpt>
      <trkpt lat="41.2821210" lon="-8.7309510">
        <ele>8.2</ele>
        <time>2021-05-16T09:15:57Z</time>
      </trkpt>
      <trkpt lat="41.2821340" lon="-8.7309650">
        <ele>8.2</ele>
        <time>2021-05-16T09:15:58Z</time>
      </trkpt>
      <trkpt lat="41.2821070" lon="-8.7309680">
        <ele>8.2</ele>
        <time>2021-05-16T09:15:59Z</time>
      </trkpt>
      <trkpt lat="41.2820780" lon="-8.7309940">
        <ele>8.2</ele>
        <time>2021-05-16T09:16:00Z</time>
      </trkpt>
      <trkpt lat="41.2820500" lon="-8.7310200">
        <ele>8.2</ele>
        <time>2021-05-16T09:16:01Z</time>
      </trkpt>
      <trkpt lat="41.2820210" lon="-8.7310460">
        <ele>8.2</ele>
        <time>2021-05-16T09:16:02Z</time>
      </trkpt>
      <trkpt lat="41.2819920" lon="-8.7310720">
        <ele>8.1</ele>
        <time>2021-05-16T09:16:03Z</time>
      </trkpt>
      <trkpt lat="41.2819930" lon="-8.7310590">
        <ele>8.1</ele>
        <time>2021-05-16T09:16:04Z</time>
      </trkpt>
      <trkpt lat="41.2819940" lon="-8.7310470">
        <ele>8.1</ele>
        <time>2021-05-16T09:16:05Z</time>
      </trkpt>
      <trkpt lat="41.2819940" lon="-8.7310340">
        <ele>8.1</ele>
        <time>2021-05-16T09:16:06Z</time>
      </trkpt>
      <trkpt lat="41.2819950" lon="-8.7310210">
        <ele>8.1</ele>
        <time>2021-05-16T09:16:07Z</time>
      </trkpt>
      <trkpt lat="41.2819990" lon="-8.7310280">
        <ele>8.1</ele>
        <time>2021-05-16T09:16:08Z</time>
      </trkpt>
      <trkpt lat="41.2820030" lon="-8.7310350">
        <ele>8.1</ele>
        <time>2021-05-16T09:16:09Z</time>
      </trkpt>
      <trkpt lat="41.2820070" lon="-8.7310420">
        <ele>8.1</ele>
        <time>2021-05-16T09:16:10Z</time>
      </trkpt>
      <trkpt lat="41.2820120" lon="-8.7310500">
        <ele>8.1</ele>
        <time>2021-05-16T09:16:11Z</time>
      </trkpt>
      <trkpt lat="41.2820160" lon="-8.7310570">
        <ele>8.1</ele>
        <time>2021-05-16T09:16:12Z</time>
      </trkpt>
      <trkpt lat="41.2820200" lon="-8.7310640">
        <ele>8.1</ele>
        <time>2021-05-16T09:16:13Z</time>
      </trkpt>
      <trkpt lat="41.2820240" lon="-8.7310710">
        <ele>8.1</ele>
        <time>2021-05-16T09:16:14Z</time>
      </trkpt>
      <trkpt lat="41.2820050" lon="-8.7311090">
        <ele>8.1</ele>
        <time>2021-05-16T09:16:15Z</time>
      </trkpt>
      <trkpt lat="41.2819970" lon="-8.7311310">
        <ele>8.1</ele>
        <time>2021-05-16T09:16:16Z</time>
      </trkpt>
      <trkpt lat="41.2819900" lon="-8.7311530">
        <ele>8.1</ele>
        <time>2021-05-16T09:16:17Z</time>
      </trkpt>
      <trkpt lat="41.2820180" lon="-8.7311060">
        <ele>8.1</ele>
        <time>2021-05-16T09:16:18Z</time>
      </trkpt>
      <trkpt lat="41.2820450" lon="-8.7310800">
        <ele>8.1</ele>
        <time>2021-05-16T09:16:19Z</time>
      </trkpt>
      <trkpt lat="41.2820330" lon="-8.7311010">
        <ele>8.1</ele>
        <time>2021-05-16T09:16:20Z</time>
      </trkpt>
      <trkpt lat="41.2820360" lon="-8.7311150">
        <ele>8.1</ele>
        <time>2021-05-16T09:16:21Z</time>
      </trkpt>
      <trkpt lat="41.2820510" lon="-8.7311240">
        <ele>8.1</ele>
        <time>2021-05-16T09:16:22Z</time>
      </trkpt>
      <trkpt lat="41.2820640" lon="-8.7311320">
        <ele>8.1</ele>
        <time>2021-05-16T09:16:23Z</time>
      </trkpt>
      <trkpt lat="41.2820770" lon="-8.7311390">
        <ele>8.1</ele>
        <time>2021-05-16T09:16:24Z</time>
      </trkpt>
      <trkpt lat="41.2820950" lon="-8.7311430">
        <ele>8.1</ele>
        <time>2021-05-16T09:16:25Z</time>
      </trkpt>
      <trkpt lat="41.2821070" lon="-8.7311430">
        <ele>8.1</ele>
        <time>2021-05-16T09:16:26Z</time>
      </trkpt>
      <trkpt lat="41.2821200" lon="-8.7311470">
        <ele>8.1</ele>
        <time>2021-05-16T09:16:27Z</time>
      </trkpt>
      <trkpt lat="41.2821290" lon="-8.7311540">
        <ele>8.1</ele>
        <time>2021-05-16T09:16:28Z</time>
      </trkpt>
      <trkpt lat="41.2821480" lon="-8.7311650">
        <ele>8.1</ele>
        <time>2021-05-16T09:16:29Z</time>
      </trkpt>
      <trkpt lat="41.2821530" lon="-8.7311730">
        <ele>8.1</ele>
        <time>2021-05-16T09:16:30Z</time>
      </trkpt>
      <trkpt lat="41.2821680" lon="-8.7311790">
        <ele>8.0</ele>
        <time>2021-05-16T09:16:31Z</time>
      </trkpt>
      <trkpt lat="41.2821850" lon="-8.7311860">
        <ele>8.0</ele>
        <time>2021-05-16T09:16:32Z</time>
      </trkpt>
      <trkpt lat="41.2821960" lon="-8.7311900">
        <ele>8.0</ele>
        <time>2021-05-16T09:16:33Z</time>
      </trkpt>
      <trkpt lat="41.2822050" lon="-8.7311870">
        <ele>8.0</ele>
        <time>2021-05-16T09:16:34Z</time>
      </trkpt>
      <trkpt lat="41.2822200" lon="-8.7311750">
        <ele>7.9</ele>
        <time>2021-05-16T09:16:35Z</time>
      </trkpt>
      <trkpt lat="41.2822320" lon="-8.7311670">
        <ele>7.9</ele>
        <time>2021-05-16T09:16:36Z</time>
      </trkpt>
      <trkpt lat="41.2822430" lon="-8.7311480">
        <ele>7.9</ele>
        <time>2021-05-16T09:16:37Z</time>
      </trkpt>
      <trkpt lat="41.2822500" lon="-8.7311370">
        <ele>7.9</ele>
        <time>2021-05-16T09:16:38Z</time>
      </trkpt>
      <trkpt lat="41.2822630" lon="-8.7311200">
        <ele>7.9</ele>
        <time>2021-05-16T09:16:39Z</time>
      </trkpt>
      <trkpt lat="41.2822740" lon="-8.7311020">
        <ele>7.8</ele>
        <time>2021-05-16T09:16:40Z</time>
      </trkpt>
      <trkpt lat="41.2822800" lon="-8.7310800">
        <ele>7.8</ele>
        <time>2021-05-16T09:16:41Z</time>
      </trkpt>
      <trkpt lat="41.2822880" lon="-8.7310630">
        <ele>7.8</ele>
        <time>2021-05-16T09:16:42Z</time>
      </trkpt>
      <trkpt lat="41.2822970" lon="-8.7310470">
        <ele>7.8</ele>
        <time>2021-05-16T09:16:43Z</time>
      </trkpt>
      <trkpt lat="41.2823090" lon="-8.7310340">
        <ele>7.8</ele>
        <time>2021-05-16T09:16:44Z</time>
      </trkpt>
      <trkpt lat="41.2823220" lon="-8.7310230">
        <ele>7.7</ele>
        <time>2021-05-16T09:16:45Z</time>
      </trkpt>
      <trkpt lat="41.2823340" lon="-8.7310140">
        <ele>7.7</ele>
        <time>2021-05-16T09:16:46Z</time>
      </trkpt>
      <trkpt lat="41.2823480" lon="-8.7310070">
        <ele>7.7</ele>
        <time>2021-05-16T09:16:47Z</time>
      </trkpt>
      <trkpt lat="41.2823610" lon="-8.7310040">
        <ele>7.7</ele>
        <time>2021-05-16T09:16:48Z</time>
      </trkpt>
      <trkpt lat="41.2823720" lon="-8.7309960">
        <ele>7.7</ele>
        <time>2021-05-16T09:16:49Z</time>
      </trkpt>
      <trkpt lat="41.2823750" lon="-8.7309870">
        <ele>7.7</ele>
        <time>2021-05-16T09:16:50Z</time>
      </trkpt>
      <trkpt lat="41.2823930" lon="-8.7309720">
        <ele>7.7</ele>
        <time>2021-05-16T09:16:51Z</time>
      </trkpt>
      <trkpt lat="41.2823990" lon="-8.7309660">
        <ele>7.7</ele>
        <time>2021-05-16T09:16:52Z</time>
      </trkpt>
      <trkpt lat="41.2824060" lon="-8.7309590">
        <ele>7.7</ele>
        <time>2021-05-16T09:16:53Z</time>
      </trkpt>
      <trkpt lat="41.2824210" lon="-8.7309560">
        <ele>7.6</ele>
        <time>2021-05-16T09:16:54Z</time>
      </trkpt>
      <trkpt lat="41.2824320" lon="-8.7309490">
        <ele>7.6</ele>
        <time>2021-05-16T09:16:55Z</time>
      </trkpt>
      <trkpt lat="41.2824500" lon="-8.7309410">
        <ele>7.6</ele>
        <time>2021-05-16T09:16:56Z</time>
      </trkpt>
      <trkpt lat="41.2824590" lon="-8.7309360">
        <ele>7.6</ele>
        <time>2021-05-16T09:16:57Z</time>
      </trkpt>
      <trkpt lat="41.2824670" lon="-8.7309320">
        <ele>7.6</ele>
        <time>2021-05-16T09:16:58Z</time>
      </trkpt>
      <trkpt lat="41.2824810" lon="-8.7309280">
        <ele>7.6</ele>
        <time>2021-05-16T09:16:59Z</time>
      </trkpt>
      <trkpt lat="41.2824950" lon="-8.7309260">
        <ele>7.6</ele>
        <time>2021-05-16T09:17:00Z</time>
      </trkpt>
      <trkpt lat="41.2825120" lon="-8.7309200">
        <ele>7.6</ele>
        <time>2021-05-16T09:17:01Z</time>
      </trkpt>
      <trkpt lat="41.2825260" lon="-8.7309210">
        <ele>7.5</ele>
        <time>2021-05-16T09:17:02Z</time>
      </trkpt>
      <trkpt lat="41.2825460" lon="-8.7309180">
        <ele>7.5</ele>
        <time>2021-05-16T09:17:03Z</time>
      </trkpt>
      <trkpt lat="41.2825590" lon="-8.7309110">
        <ele>7.5</ele>
        <time>2021-05-16T09:17:04Z</time>
      </trkpt>
      <trkpt lat="41.2825750" lon="-8.7309080">
        <ele>7.5</ele>
        <time>2021-05-16T09:17:05Z</time>
      </trkpt>
      <trkpt lat="41.2825930" lon="-8.7309090">
        <ele>7.5</ele>
        <time>2021-05-16T09:17:06Z</time>
      </trkpt>
      <trkpt lat="41.2826090" lon="-8.7309060">
        <ele>7.5</ele>
        <time>2021-05-16T09:17:07Z</time>
      </trkpt>
      <trkpt lat="41.2826260" lon="-8.7308960">
        <ele>7.5</ele>
        <time>2021-05-16T09:17:08Z</time>
      </trkpt>
      <trkpt lat="41.2826430" lon="-8.7308900">
        <ele>7.4</ele>
        <time>2021-05-16T09:17:09Z</time>
      </trkpt>
      <trkpt lat="41.2826550" lon="-8.7308830">
        <ele>7.4</ele>
        <time>2021-05-16T09:17:10Z</time>
      </trkpt>
      <trkpt lat="41.2826720" lon="-8.7308820">
        <ele>7.4</ele>
        <time>2021-05-16T09:17:11Z</time>
      </trkpt>
      <trkpt lat="41.2826870" lon="-8.7308760">
        <ele>7.4</ele>
        <time>2021-05-16T09:17:12Z</time>
      </trkpt>
      <trkpt lat="41.2827020" lon="-8.7308640">
        <ele>7.4</ele>
        <time>2021-05-16T09:17:13Z</time>
      </trkpt>
      <trkpt lat="41.2827190" lon="-8.7308550">
        <ele>7.4</ele>
        <time>2021-05-16T09:17:14Z</time>
      </trkpt>
      <trkpt lat="41.2827340" lon="-8.7308530">
        <ele>7.4</ele>
        <time>2021-05-16T09:17:15Z</time>
      </trkpt>
      <trkpt lat="41.2827500" lon="-8.7308420">
        <ele>7.3</ele>
        <time>2021-05-16T09:17:16Z</time>
      </trkpt>
      <trkpt lat="41.2827660" lon="-8.7308430">
        <ele>7.3</ele>
        <time>2021-05-16T09:17:17Z</time>
      </trkpt>
      <trkpt lat="41.2827810" lon="-8.7308430">
        <ele>7.3</ele>
        <time>2021-05-16T09:17:18Z</time>
      </trkpt>
      <trkpt lat="41.2827950" lon="-8.7308400">
        <ele>7.3</ele>
        <time>2021-05-16T09:17:19Z</time>
      </trkpt>
      <trkpt lat="41.2828100" lon="-8.7308340">
        <ele>7.3</ele>
        <time>2021-05-16T09:17:20Z</time>
      </trkpt>
      <trkpt lat="41.2828240" lon="-8.7308310">
        <ele>7.3</ele>
        <time>2021-05-16T09:17:21Z</time>
      </trkpt>
      <trkpt lat="41.2828380" lon="-8.7308240">
        <ele>7.3</ele>
        <time>2021-05-16T09:17:22Z</time>
      </trkpt>
      <trkpt lat="41.2828540" lon="-8.7308170">
        <ele>7.3</ele>
        <time>2021-05-16T09:17:23Z</time>
      </trkpt>
      <trkpt lat="41.2828670" lon="-8.7308120">
        <ele>7.3</ele>
        <time>2021-05-16T09:17:24Z</time>
      </trkpt>
      <trkpt lat="41.2828820" lon="-8.7308040">
        <ele>7.2</ele>
        <time>2021-05-16T09:17:25Z</time>
      </trkpt>
      <trkpt lat="41.2828940" lon="-8.7307960">
        <ele>7.2</ele>
        <time>2021-05-16T09:17:26Z</time>
      </trkpt>
      <trkpt lat="41.2829160" lon="-8.7307950">
        <ele>7.2</ele>
        <time>2021-05-16T09:17:27Z</time>
      </trkpt>
      <trkpt lat="41.2829250" lon="-8.7307910">
        <ele>7.2</ele>
        <time>2021-05-16T09:17:28Z</time>
      </trkpt>
      <trkpt lat="41.2829340" lon="-8.7307870">
        <ele>7.2</ele>
        <time>2021-05-16T09:17:29Z</time>
      </trkpt>
      <trkpt lat="41.2829510" lon="-8.7307870">
        <ele>7.2</ele>
        <time>2021-05-16T09:17:30Z</time>
      </trkpt>
      <trkpt lat="41.2829670" lon="-8.7307900">
        <ele>7.2</ele>
        <time>2021-05-16T09:17:31Z</time>
      </trkpt>
      <trkpt lat="41.2829840" lon="-8.7307900">
        <ele>7.2</ele>
        <time>2021-05-16T09:17:32Z</time>
      </trkpt>
      <trkpt lat="41.2830010" lon="-8.7307810">
        <ele>7.2</ele>
        <time>2021-05-16T09:17:33Z</time>
      </trkpt>
      <trkpt lat="41.2830180" lon="-8.7307780">
        <ele>7.2</ele>
        <time>2021-05-16T09:17:34Z</time>
      </trkpt>
      <trkpt lat="41.2830310" lon="-8.7307730">
        <ele>7.2</ele>
        <time>2021-05-16T09:17:35Z</time>
      </trkpt>
      <trkpt lat="41.2830440" lon="-8.7307660">
        <ele>7.2</ele>
        <time>2021-05-16T09:17:36Z</time>
      </trkpt>
      <trkpt lat="41.2830600" lon="-8.7307680">
        <ele>7.2</ele>
        <time>2021-05-16T09:17:37Z</time>
      </trkpt>
      <trkpt lat="41.2830740" lon="-8.7307650">
        <ele>7.2</ele>
        <time>2021-05-16T09:17:38Z</time>
      </trkpt>
      <trkpt lat="41.2830880" lon="-8.7307580">
        <ele>7.2</ele>
        <time>2021-05-16T09:17:39Z</time>
      </trkpt>
      <trkpt lat="41.2831040" lon="-8.7307550">
        <ele>7.2</ele>
        <time>2021-05-16T09:17:40Z</time>
      </trkpt>
      <trkpt lat="41.2831190" lon="-8.7307550">
        <ele>7.2</ele>
        <time>2021-05-16T09:17:41Z</time>
      </trkpt>
      <trkpt lat="41.2831330" lon="-8.7307600">
        <ele>7.2</ele>
        <time>2021-05-16T09:17:42Z</time>
      </trkpt>
      <trkpt lat="41.2831490" lon="-8.7307600">
        <ele>7.2</ele>
        <time>2021-05-16T09:17:43Z</time>
      </trkpt>
      <trkpt lat="41.2831630" lon="-8.7307560">
        <ele>7.2</ele>
        <time>2021-05-16T09:17:44Z</time>
      </trkpt>
      <trkpt lat="41.2831800" lon="-8.7307550">
        <ele>7.2</ele>
        <time>2021-05-16T09:17:45Z</time>
      </trkpt>
      <trkpt lat="41.2832000" lon="-8.7307500">
        <ele>7.2</ele>
        <time>2021-05-16T09:17:46Z</time>
      </trkpt>
      <trkpt lat="41.2832100" lon="-8.7307480">
        <ele>7.2</ele>
        <time>2021-05-16T09:17:47Z</time>
      </trkpt>
      <trkpt lat="41.2832190" lon="-8.7307460">
        <ele>7.2</ele>
        <time>2021-05-16T09:17:48Z</time>
      </trkpt>
      <trkpt lat="41.2832340" lon="-8.7307430">
        <ele>7.2</ele>
        <time>2021-05-16T09:17:49Z</time>
      </trkpt>
      <trkpt lat="41.2832490" lon="-8.7307480">
        <ele>7.2</ele>
        <time>2021-05-16T09:17:50Z</time>
      </trkpt>
      <trkpt lat="41.2832640" lon="-8.7307530">
        <ele>7.2</ele>
        <time>2021-05-16T09:17:51Z</time>
      </trkpt>
      <trkpt lat="41.2832800" lon="-8.7307520">
        <ele>7.2</ele>
        <time>2021-05-16T09:17:52Z</time>
      </trkpt>
      <trkpt lat="41.2832940" lon="-8.7307510">
        <ele>7.3</ele>
        <time>2021-05-16T09:17:53Z</time>
      </trkpt>
      <trkpt lat="41.2833060" lon="-8.7307570">
        <ele>7.3</ele>
        <time>2021-05-16T09:17:54Z</time>
      </trkpt>
      <trkpt lat="41.2833130" lon="-8.7307590">
        <ele>7.3</ele>
        <time>2021-05-16T09:17:55Z</time>
      </trkpt>
      <trkpt lat="41.2833190" lon="-8.7307630">
        <ele>7.3</ele>
        <time>2021-05-16T09:17:56Z</time>
      </trkpt>
      <trkpt lat="41.2833310" lon="-8.7307640">
        <ele>7.3</ele>
        <time>2021-05-16T09:17:57Z</time>
      </trkpt>
      <trkpt lat="41.2833440" lon="-8.7307650">
        <ele>7.3</ele>
        <time>2021-05-16T09:17:58Z</time>
      </trkpt>
      <trkpt lat="41.2833540" lon="-8.7307650">
        <ele>7.3</ele>
        <time>2021-05-16T09:17:59Z</time>
      </trkpt>
      <trkpt lat="41.2833650" lon="-8.7307670">
        <ele>7.3</ele>
        <time>2021-05-16T09:18:00Z</time>
      </trkpt>
      <trkpt lat="41.2833770" lon="-8.7307660">
        <ele>7.2</ele>
        <time>2021-05-16T09:18:01Z</time>
      </trkpt>
      <trkpt lat="41.2833940" lon="-8.7307590">
        <ele>7.2</ele>
        <time>2021-05-16T09:18:02Z</time>
      </trkpt>
      <trkpt lat="41.2834040" lon="-8.7307580">
        <ele>7.2</ele>
        <time>2021-05-16T09:18:03Z</time>
      </trkpt>
      <trkpt lat="41.2834130" lon="-8.7307570">
        <ele>7.2</ele>
        <time>2021-05-16T09:18:04Z</time>
      </trkpt>
      <trkpt lat="41.2834220" lon="-8.7307590">
        <ele>7.2</ele>
        <time>2021-05-16T09:18:05Z</time>
      </trkpt>
      <trkpt lat="41.2834330" lon="-8.7307580">
        <ele>7.2</ele>
        <time>2021-05-16T09:18:06Z</time>
      </trkpt>
      <trkpt lat="41.2834490" lon="-8.7307580">
        <ele>7.2</ele>
        <time>2021-05-16T09:18:07Z</time>
      </trkpt>
      <trkpt lat="41.2834680" lon="-8.7307620">
        <ele>7.2</ele>
        <time>2021-05-16T09:18:08Z</time>
      </trkpt>
      <trkpt lat="41.2834760" lon="-8.7307640">
        <ele>7.2</ele>
        <time>2021-05-16T09:18:09Z</time>
      </trkpt>
      <trkpt lat="41.2834850" lon="-8.7307660">
        <ele>7.2</ele>
        <time>2021-05-16T09:18:10Z</time>
      </trkpt>
      <trkpt lat="41.2835050" lon="-8.7307720">
        <ele>7.2</ele>
        <time>2021-05-16T09:18:11Z</time>
      </trkpt>
      <trkpt lat="41.2835120" lon="-8.7307800">
        <ele>7.2</ele>
        <time>2021-05-16T09:18:12Z</time>
      </trkpt>
      <trkpt lat="41.2835200" lon="-8.7307870">
        <ele>7.1</ele>
        <time>2021-05-16T09:18:13Z</time>
      </trkpt>
      <trkpt lat="41.2835400" lon="-8.7307880">
        <ele>7.1</ele>
        <time>2021-05-16T09:18:14Z</time>
      </trkpt>
      <trkpt lat="41.2835520" lon="-8.7307850">
        <ele>7.1</ele>
        <time>2021-05-16T09:18:15Z</time>
      </trkpt>
      <trkpt lat="41.2835630" lon="-8.7307830">
        <ele>7.1</ele>
        <time>2021-05-16T09:18:16Z</time>
      </trkpt>
      <trkpt lat="41.2835920" lon="-8.7307810">
        <ele>7.1</ele>
        <time>2021-05-16T09:18:17Z</time>
      </trkpt>
      <trkpt lat="41.2836060" lon="-8.7307860">
        <ele>7.1</ele>
        <time>2021-05-16T09:18:18Z</time>
      </trkpt>
      <trkpt lat="41.2836250" lon="-8.7307970">
        <ele>7.0</ele>
        <time>2021-05-16T09:18:19Z</time>
      </trkpt>
      <trkpt lat="41.2836400" lon="-8.7308000">
        <ele>7.0</ele>
        <time>2021-05-16T09:18:20Z</time>
      </trkpt>
      <trkpt lat="41.2836590" lon="-8.7307980">
        <ele>7.0</ele>
        <time>2021-05-16T09:18:21Z</time>
      </trkpt>
      <trkpt lat="41.2836760" lon="-8.7308080">
        <ele>7.0</ele>
        <time>2021-05-16T09:18:22Z</time>
      </trkpt>
      <trkpt lat="41.2836930" lon="-8.7308080">
        <ele>7.0</ele>
        <time>2021-05-16T09:18:23Z</time>
      </trkpt>
      <trkpt lat="41.2837110" lon="-8.7308140">
        <ele>7.0</ele>
        <time>2021-05-16T09:18:24Z</time>
      </trkpt>
      <trkpt lat="41.2837260" lon="-8.7308180">
        <ele>7.0</ele>
        <time>2021-05-16T09:18:25Z</time>
      </trkpt>
      <trkpt lat="41.2837420" lon="-8.7308260">
        <ele>6.9</ele>
        <time>2021-05-16T09:18:26Z</time>
      </trkpt>
      <trkpt lat="41.2837590" lon="-8.7308270">
        <ele>6.9</ele>
        <time>2021-05-16T09:18:27Z</time>
      </trkpt>
      <trkpt lat="41.2837760" lon="-8.7308290">
        <ele>6.9</ele>
        <time>2021-05-16T09:18:28Z</time>
      </trkpt>
      <trkpt lat="41.2837930" lon="-8.7308410">
        <ele>6.9</ele>
        <time>2021-05-16T09:18:29Z</time>
      </trkpt>
      <trkpt lat="41.2838070" lon="-8.7308430">
        <ele>6.9</ele>
        <time>2021-05-16T09:18:30Z</time>
      </trkpt>
      <trkpt lat="41.2838230" lon="-8.7308470">
        <ele>6.9</ele>
        <time>2021-05-16T09:18:31Z</time>
      </trkpt>
      <trkpt lat="41.2838370" lon="-8.7308480">
        <ele>6.8</ele>
        <time>2021-05-16T09:18:32Z</time>
      </trkpt>
      <trkpt lat="41.2838530" lon="-8.7308560">
        <ele>6.8</ele>
        <time>2021-05-16T09:18:33Z</time>
      </trkpt>
      <trkpt lat="41.2838670" lon="-8.7308600">
        <ele>6.8</ele>
        <time>2021-05-16T09:18:34Z</time>
      </trkpt>
      <trkpt lat="41.2838850" lon="-8.7308670">
        <ele>6.8</ele>
        <time>2021-05-16T09:18:35Z</time>
      </trkpt>
      <trkpt lat="41.2838990" lon="-8.7308710">
        <ele>6.8</ele>
        <time>2021-05-16T09:18:36Z</time>
      </trkpt>
      <trkpt lat="41.2839140" lon="-8.7308780">
        <ele>6.8</ele>
        <time>2021-05-16T09:18:37Z</time>
      </trkpt>
      <trkpt lat="41.2839270" lon="-8.7308840">
        <ele>6.8</ele>
        <time>2021-05-16T09:18:38Z</time>
      </trkpt>
      <trkpt lat="41.2839410" lon="-8.7308920">
        <ele>6.8</ele>
        <time>2021-05-16T09:18:39Z</time>
      </trkpt>
      <trkpt lat="41.2839550" lon="-8.7308980">
        <ele>6.8</ele>
        <time>2021-05-16T09:18:40Z</time>
      </trkpt>
      <trkpt lat="41.2839690" lon="-8.7309040">
        <ele>6.8</ele>
        <time>2021-05-16T09:18:41Z</time>
      </trkpt>
      <trkpt lat="41.2839850" lon="-8.7309060">
        <ele>6.8</ele>
        <time>2021-05-16T09:18:42Z</time>
      </trkpt>
      <trkpt lat="41.2840000" lon="-8.7309190">
        <ele>6.7</ele>
        <time>2021-05-16T09:18:43Z</time>
      </trkpt>
      <trkpt lat="41.2840150" lon="-8.7309340">
        <ele>6.7</ele>
        <time>2021-05-16T09:18:44Z</time>
      </trkpt>
      <trkpt lat="41.2840320" lon="-8.7309380">
        <ele>6.7</ele>
        <time>2021-05-16T09:18:45Z</time>
      </trkpt>
      <trkpt lat="41.2840480" lon="-8.7309430">
        <ele>6.7</ele>
        <time>2021-05-16T09:18:46Z</time>
      </trkpt>
      <trkpt lat="41.2840620" lon="-8.7309560">
        <ele>6.7</ele>
        <time>2021-05-16T09:18:47Z</time>
      </trkpt>
      <trkpt lat="41.2840760" lon="-8.7309630">
        <ele>6.7</ele>
        <time>2021-05-16T09:18:48Z</time>
      </trkpt>
      <trkpt lat="41.2840910" lon="-8.7309700">
        <ele>6.7</ele>
        <time>2021-05-16T09:18:49Z</time>
      </trkpt>
      <trkpt lat="41.2841040" lon="-8.7309790">
        <ele>6.7</ele>
        <time>2021-05-16T09:18:50Z</time>
      </trkpt>
      <trkpt lat="41.2841170" lon="-8.7309830">
        <ele>6.7</ele>
        <time>2021-05-16T09:18:51Z</time>
      </trkpt>
      <trkpt lat="41.2841320" lon="-8.7309900">
        <ele>6.7</ele>
        <time>2021-05-16T09:18:52Z</time>
      </trkpt>
      <trkpt lat="41.2841460" lon="-8.7309960">
        <ele>6.6</ele>
        <time>2021-05-16T09:18:53Z</time>
      </trkpt>
      <trkpt lat="41.2841600" lon="-8.7310040">
        <ele>6.6</ele>
        <time>2021-05-16T09:18:54Z</time>
      </trkpt>
      <trkpt lat="41.2841730" lon="-8.7310100">
        <ele>6.6</ele>
        <time>2021-05-16T09:18:55Z</time>
      </trkpt>
      <trkpt lat="41.2841850" lon="-8.7310190">
        <ele>6.6</ele>
        <time>2021-05-16T09:18:56Z</time>
      </trkpt>
      <trkpt lat="41.2842010" lon="-8.7310210">
        <ele>6.6</ele>
        <time>2021-05-16T09:18:57Z</time>
      </trkpt>
      <trkpt lat="41.2842150" lon="-8.7310230">
        <ele>6.6</ele>
        <time>2021-05-16T09:18:58Z</time>
      </trkpt>
      <trkpt lat="41.2842280" lon="-8.7310290">
        <ele>6.6</ele>
        <time>2021-05-16T09:18:59Z</time>
      </trkpt>
      <trkpt lat="41.2842420" lon="-8.7310380">
        <ele>6.6</ele>
        <time>2021-05-16T09:19:00Z</time>
      </trkpt>
      <trkpt lat="41.2842550" lon="-8.7310430">
        <ele>6.6</ele>
        <time>2021-05-16T09:19:01Z</time>
      </trkpt>
      <trkpt lat="41.2842670" lon="-8.7310510">
        <ele>6.5</ele>
        <time>2021-05-16T09:19:02Z</time>
      </trkpt>
      <trkpt lat="41.2842830" lon="-8.7310620">
        <ele>6.5</ele>
        <time>2021-05-16T09:19:03Z</time>
      </trkpt>
      <trkpt lat="41.2842980" lon="-8.7310660">
        <ele>6.5</ele>
        <time>2021-05-16T09:19:04Z</time>
      </trkpt>
      <trkpt lat="41.2843120" lon="-8.7310720">
        <ele>6.5</ele>
        <time>2021-05-16T09:19:05Z</time>
      </trkpt>
      <trkpt lat="41.2843270" lon="-8.7310800">
        <ele>6.5</ele>
        <time>2021-05-16T09:19:06Z</time>
      </trkpt>
      <trkpt lat="41.2843420" lon="-8.7310840">
        <ele>6.5</ele>
        <time>2021-05-16T09:19:07Z</time>
      </trkpt>
      <trkpt lat="41.2843530" lon="-8.7310970">
        <ele>6.5</ele>
        <time>2021-05-16T09:19:08Z</time>
      </trkpt>
      <trkpt lat="41.2843680" lon="-8.7310960">
        <ele>6.5</ele>
        <time>2021-05-16T09:19:09Z</time>
      </trkpt>
      <trkpt lat="41.2843850" lon="-8.7311000">
        <ele>6.5</ele>
        <time>2021-05-16T09:19:10Z</time>
      </trkpt>
      <trkpt lat="41.2843950" lon="-8.7311070">
        <ele>6.5</ele>
        <time>2021-05-16T09:19:11Z</time>
      </trkpt>
      <trkpt lat="41.2844060" lon="-8.7311170">
        <ele>6.5</ele>
        <time>2021-05-16T09:19:12Z</time>
      </trkpt>
      <trkpt lat="41.2844220" lon="-8.7311250">
        <ele>6.5</ele>
        <time>2021-05-16T09:19:13Z</time>
      </trkpt>
      <trkpt lat="41.2844380" lon="-8.7311280">
        <ele>6.5</ele>
        <time>2021-05-16T09:19:14Z</time>
      </trkpt>
      <trkpt lat="41.2844520" lon="-8.7311320">
        <ele>6.5</ele>
        <time>2021-05-16T09:19:15Z</time>
      </trkpt>
      <trkpt lat="41.2844640" lon="-8.7311390">
        <ele>6.5</ele>
        <time>2021-05-16T09:19:16Z</time>
      </trkpt>
      <trkpt lat="41.2844780" lon="-8.7311500">
        <ele>6.5</ele>
        <time>2021-05-16T09:19:17Z</time>
      </trkpt>
      <trkpt lat="41.2844910" lon="-8.7311570">
        <ele>6.5</ele>
        <time>2021-05-16T09:19:18Z</time>
      </trkpt>
      <trkpt lat="41.2844990" lon="-8.7311750">
        <ele>6.4</ele>
        <time>2021-05-16T09:19:19Z</time>
      </trkpt>
      <trkpt lat="41.2845120" lon="-8.7311860">
        <ele>6.4</ele>
        <time>2021-05-16T09:19:20Z</time>
      </trkpt>
      <trkpt lat="41.2845260" lon="-8.7311890">
        <ele>6.4</ele>
        <time>2021-05-16T09:19:21Z</time>
      </trkpt>
      <trkpt lat="41.2845370" lon="-8.7311810">
        <ele>6.4</ele>
        <time>2021-05-16T09:19:22Z</time>
      </trkpt>
      <trkpt lat="41.2845450" lon="-8.7311760">
        <ele>6.4</ele>
        <time>2021-05-16T09:19:23Z</time>
      </trkpt>
      <trkpt lat="41.2845550" lon="-8.7311840">
        <ele>6.4</ele>
        <time>2021-05-16T09:19:24Z</time>
      </trkpt>
      <trkpt lat="41.2845630" lon="-8.7311960">
        <ele>6.4</ele>
        <time>2021-05-16T09:19:25Z</time>
      </trkpt>
      <trkpt lat="41.2845760" lon="-8.7312010">
        <ele>6.4</ele>
        <time>2021-05-16T09:19:26Z</time>
      </trkpt>
      <trkpt lat="41.2845880" lon="-8.7311990">
        <ele>6.4</ele>
        <time>2021-05-16T09:19:27Z</time>
      </trkpt>
      <trkpt lat="41.2846000" lon="-8.7312140">
        <ele>6.3</ele>
        <time>2021-05-16T09:19:28Z</time>
      </trkpt>
      <trkpt lat="41.2846140" lon="-8.7312220">
        <ele>6.3</ele>
        <time>2021-05-16T09:19:29Z</time>
      </trkpt>
      <trkpt lat="41.2846250" lon="-8.7312260">
        <ele>6.3</ele>
        <time>2021-05-16T09:19:30Z</time>
      </trkpt>
      <trkpt lat="41.2846360" lon="-8.7312320">
        <ele>6.3</ele>
        <time>2021-05-16T09:19:31Z</time>
      </trkpt>
      <trkpt lat="41.2846480" lon="-8.7312380">
        <ele>6.3</ele>
        <time>2021-05-16T09:19:32Z</time>
      </trkpt>
      <trkpt lat="41.2846620" lon="-8.7312480">
        <ele>6.3</ele>
        <time>2021-05-16T09:19:33Z</time>
      </trkpt>
      <trkpt lat="41.2846780" lon="-8.7312540">
        <ele>6.3</ele>
        <time>2021-05-16T09:19:34Z</time>
      </trkpt>
      <trkpt lat="41.2846940" lon="-8.7312590">
        <ele>6.3</ele>
        <time>2021-05-16T09:19:35Z</time>
      </trkpt>
      <trkpt lat="41.2847070" lon="-8.7312640">
        <ele>6.3</ele>
        <time>2021-05-16T09:19:36Z</time>
      </trkpt>
      <trkpt lat="41.2847240" lon="-8.7312690">
        <ele>6.3</ele>
        <time>2021-05-16T09:19:37Z</time>
      </trkpt>
      <trkpt lat="41.2847360" lon="-8.7312780">
        <ele>6.3</ele>
        <time>2021-05-16T09:19:38Z</time>
      </trkpt>
      <trkpt lat="41.2847520" lon="-8.7312900">
        <ele>6.2</ele>
        <time>2021-05-16T09:19:39Z</time>
      </trkpt>
      <trkpt lat="41.2847650" lon="-8.7312960">
        <ele>6.2</ele>
        <time>2021-05-16T09:19:40Z</time>
      </trkpt>
      <trkpt lat="41.2847780" lon="-8.7313060">
        <ele>6.2</ele>
        <time>2021-05-16T09:19:41Z</time>
      </trkpt>
      <trkpt lat="41.2847900" lon="-8.7313170">
        <ele>6.2</ele>
        <time>2021-05-16T09:19:42Z</time>
      </trkpt>
      <trkpt lat="41.2848040" lon="-8.7313200">
        <ele>6.2</ele>
        <time>2021-05-16T09:19:43Z</time>
      </trkpt>
      <trkpt lat="41.2848180" lon="-8.7313250">
        <ele>6.2</ele>
        <time>2021-05-16T09:19:44Z</time>
      </trkpt>
      <trkpt lat="41.2848310" lon="-8.7313270">
        <ele>6.2</ele>
        <time>2021-05-16T09:19:45Z</time>
      </trkpt>
      <trkpt lat="41.2848460" lon="-8.7313400">
        <ele>6.2</ele>
        <time>2021-05-16T09:19:46Z</time>
      </trkpt>
      <trkpt lat="41.2848580" lon="-8.7313490">
        <ele>6.2</ele>
        <time>2021-05-16T09:19:47Z</time>
      </trkpt>
      <trkpt lat="41.2848740" lon="-8.7313450">
        <ele>6.2</ele>
        <time>2021-05-16T09:19:48Z</time>
      </trkpt>
      <trkpt lat="41.2848890" lon="-8.7313500">
        <ele>6.2</ele>
        <time>2021-05-16T09:19:49Z</time>
      </trkpt>
      <trkpt lat="41.2849030" lon="-8.7313580">
        <ele>6.2</ele>
        <time>2021-05-16T09:19:50Z</time>
      </trkpt>
      <trkpt lat="41.2849190" lon="-8.7313670">
        <ele>6.2</ele>
        <time>2021-05-16T09:19:51Z</time>
      </trkpt>
      <trkpt lat="41.2849350" lon="-8.7313700">
        <ele>6.2</ele>
        <time>2021-05-16T09:19:52Z</time>
      </trkpt>
      <trkpt lat="41.2849490" lon="-8.7313800">
        <ele>6.2</ele>
        <time>2021-05-16T09:19:53Z</time>
      </trkpt>
      <trkpt lat="41.2849600" lon="-8.7313840">
        <ele>6.2</ele>
        <time>2021-05-16T09:19:54Z</time>
      </trkpt>
      <trkpt lat="41.2849750" lon="-8.7313900">
        <ele>6.2</ele>
        <time>2021-05-16T09:19:55Z</time>
      </trkpt>
      <trkpt lat="41.2849880" lon="-8.7313890">
        <ele>6.2</ele>
        <time>2021-05-16T09:19:56Z</time>
      </trkpt>
      <trkpt lat="41.2850030" lon="-8.7313990">
        <ele>6.2</ele>
        <time>2021-05-16T09:19:57Z</time>
      </trkpt>
      <trkpt lat="41.2850170" lon="-8.7314000">
        <ele>6.2</ele>
        <time>2021-05-16T09:19:58Z</time>
      </trkpt>
      <trkpt lat="41.2850310" lon="-8.7314000">
        <ele>6.2</ele>
        <time>2021-05-16T09:19:59Z</time>
      </trkpt>
      <trkpt lat="41.2850450" lon="-8.7313990">
        <ele>6.2</ele>
        <time>2021-05-16T09:20:00Z</time>
      </trkpt>
      <trkpt lat="41.2850580" lon="-8.7313990">
        <ele>6.2</ele>
        <time>2021-05-16T09:20:01Z</time>
      </trkpt>
      <trkpt lat="41.2850730" lon="-8.7314010">
        <ele>6.2</ele>
        <time>2021-05-16T09:20:02Z</time>
      </trkpt>
      <trkpt lat="41.2850890" lon="-8.7314050">
        <ele>6.2</ele>
        <time>2021-05-16T09:20:03Z</time>
      </trkpt>
      <trkpt lat="41.2851020" lon="-8.7314020">
        <ele>6.2</ele>
        <time>2021-05-16T09:20:04Z</time>
      </trkpt>
      <trkpt lat="41.2851180" lon="-8.7314010">
        <ele>6.2</ele>
        <time>2021-05-16T09:20:05Z</time>
      </trkpt>
      <trkpt lat="41.2851320" lon="-8.7314030">
        <ele>6.2</ele>
        <time>2021-05-16T09:20:06Z</time>
      </trkpt>
      <trkpt lat="41.2851540" lon="-8.7314020">
        <ele>6.2</ele>
        <time>2021-05-16T09:20:07Z</time>
      </trkpt>
      <trkpt lat="41.2851630" lon="-8.7314030">
        <ele>6.2</ele>
        <time>2021-05-16T09:20:08Z</time>
      </trkpt>
      <trkpt lat="41.2851730" lon="-8.7314030">
        <ele>6.2</ele>
        <time>2021-05-16T09:20:09Z</time>
      </trkpt>
      <trkpt lat="41.2851870" lon="-8.7313990">
        <ele>6.2</ele>
        <time>2021-05-16T09:20:10Z</time>
      </trkpt>
      <trkpt lat="41.2852020" lon="-8.7314050">
        <ele>6.2</ele>
        <time>2021-05-16T09:20:11Z</time>
      </trkpt>
      <trkpt lat="41.2852220" lon="-8.7314090">
        <ele>6.2</ele>
        <time>2021-05-16T09:20:12Z</time>
      </trkpt>
      <trkpt lat="41.2852310" lon="-8.7314090">
        <ele>6.2</ele>
        <time>2021-05-16T09:20:13Z</time>
      </trkpt>
      <trkpt lat="41.2852390" lon="-8.7314090">
        <ele>6.2</ele>
        <time>2021-05-16T09:20:14Z</time>
      </trkpt>
      <trkpt lat="41.2852500" lon="-8.7314150">
        <ele>6.3</ele>
        <time>2021-05-16T09:20:15Z</time>
      </trkpt>
      <trkpt lat="41.2852590" lon="-8.7314160">
        <ele>6.3</ele>
        <time>2021-05-16T09:20:16Z</time>
      </trkpt>
      <trkpt lat="41.2852700" lon="-8.7314180">
        <ele>6.3</ele>
        <time>2021-05-16T09:20:17Z</time>
      </trkpt>
      <trkpt lat="41.2852820" lon="-8.7314160">
        <ele>6.3</ele>
        <time>2021-05-16T09:20:18Z</time>
      </trkpt>
      <trkpt lat="41.2853010" lon="-8.7314110">
        <ele>6.3</ele>
        <time>2021-05-16T09:20:19Z</time>
      </trkpt>
      <trkpt lat="41.2853290" lon="-8.7314040">
        <ele>6.3</ele>
        <time>2021-05-16T09:20:20Z</time>
      </trkpt>
      <trkpt lat="41.2853380" lon="-8.7314010">
        <ele>6.3</ele>
        <time>2021-05-16T09:20:21Z</time>
      </trkpt>
      <trkpt lat="41.2853540" lon="-8.7314030">
        <ele>6.3</ele>
        <time>2021-05-16T09:20:22Z</time>
      </trkpt>
      <trkpt lat="41.2853700" lon="-8.7314060">
        <ele>6.3</ele>
        <time>2021-05-16T09:20:23Z</time>
      </trkpt>
      <trkpt lat="41.2853840" lon="-8.7314150">
        <ele>6.3</ele>
        <time>2021-05-16T09:20:24Z</time>
      </trkpt>
      <trkpt lat="41.2853960" lon="-8.7314160">
        <ele>6.3</ele>
        <time>2021-05-16T09:20:25Z</time>
      </trkpt>
      <trkpt lat="41.2854150" lon="-8.7314130">
        <ele>6.3</ele>
        <time>2021-05-16T09:20:26Z</time>
      </trkpt>
      <trkpt lat="41.2854300" lon="-8.7314170">
        <ele>6.3</ele>
        <time>2021-05-16T09:20:27Z</time>
      </trkpt>
      <trkpt lat="41.2854450" lon="-8.7314230">
        <ele>6.3</ele>
        <time>2021-05-16T09:20:28Z</time>
      </trkpt>
      <trkpt lat="41.2854590" lon="-8.7314210">
        <ele>6.4</ele>
        <time>2021-05-16T09:20:29Z</time>
      </trkpt>
      <trkpt lat="41.2854740" lon="-8.7314250">
        <ele>6.4</ele>
        <time>2021-05-16T09:20:30Z</time>
      </trkpt>
      <trkpt lat="41.2854890" lon="-8.7314250">
        <ele>6.4</ele>
        <time>2021-05-16T09:20:31Z</time>
      </trkpt>
      <trkpt lat="41.2855020" lon="-8.7314250">
        <ele>6.4</ele>
        <time>2021-05-16T09:20:32Z</time>
      </trkpt>
      <trkpt lat="41.2855180" lon="-8.7314280">
        <ele>6.4</ele>
        <time>2021-05-16T09:20:33Z</time>
      </trkpt>
      <trkpt lat="41.2855390" lon="-8.7314320">
        <ele>6.4</ele>
        <time>2021-05-16T09:20:34Z</time>
      </trkpt>
      <trkpt lat="41.2855480" lon="-8.7314360">
        <ele>6.4</ele>
        <time>2021-05-16T09:20:35Z</time>
      </trkpt>
      <trkpt lat="41.2855570" lon="-8.7314390">
        <ele>6.4</ele>
        <time>2021-05-16T09:20:36Z</time>
      </trkpt>
      <trkpt lat="41.2855710" lon="-8.7314420">
        <ele>6.4</ele>
        <time>2021-05-16T09:20:37Z</time>
      </trkpt>
      <trkpt lat="41.2855850" lon="-8.7314440">
        <ele>6.4</ele>
        <time>2021-05-16T09:20:38Z</time>
      </trkpt>
      <trkpt lat="41.2855960" lon="-8.7314500">
        <ele>6.4</ele>
        <time>2021-05-16T09:20:39Z</time>
      </trkpt>
      <trkpt lat="41.2856080" lon="-8.7314520">
        <ele>6.5</ele>
        <time>2021-05-16T09:20:40Z</time>
      </trkpt>
      <trkpt lat="41.2856200" lon="-8.7314520">
        <ele>6.5</ele>
        <time>2021-05-16T09:20:41Z</time>
      </trkpt>
      <trkpt lat="41.2856420" lon="-8.7314560">
        <ele>6.5</ele>
        <time>2021-05-16T09:20:42Z</time>
      </trkpt>
      <trkpt lat="41.2856510" lon="-8.7314550">
        <ele>6.5</ele>
        <time>2021-05-16T09:20:43Z</time>
      </trkpt>
      <trkpt lat="41.2856600" lon="-8.7314540">
        <ele>6.5</ele>
        <time>2021-05-16T09:20:44Z</time>
      </trkpt>
      <trkpt lat="41.2856760" lon="-8.7314540">
        <ele>6.5</ele>
        <time>2021-05-16T09:20:45Z</time>
      </trkpt>
      <trkpt lat="41.2856900" lon="-8.7314570">
        <ele>6.5</ele>
        <time>2021-05-16T09:20:46Z</time>
      </trkpt>
      <trkpt lat="41.2857030" lon="-8.7314610">
        <ele>6.5</ele>
        <time>2021-05-16T09:20:47Z</time>
      </trkpt>
      <trkpt lat="41.2857190" lon="-8.7314610">
        <ele>6.5</ele>
        <time>2021-05-16T09:20:48Z</time>
      </trkpt>
      <trkpt lat="41.2857330" lon="-8.7314640">
        <ele>6.6</ele>
        <time>2021-05-16T09:20:49Z</time>
      </trkpt>
      <trkpt lat="41.2857480" lon="-8.7314600">
        <ele>6.6</ele>
        <time>2021-05-16T09:20:50Z</time>
      </trkpt>
      <trkpt lat="41.2857620" lon="-8.7314630">
        <ele>6.6</ele>
        <time>2021-05-16T09:20:51Z</time>
      </trkpt>
      <trkpt lat="41.2857760" lon="-8.7314610">
        <ele>6.6</ele>
        <time>2021-05-16T09:20:52Z</time>
      </trkpt>
      <trkpt lat="41.2857880" lon="-8.7314670">
        <ele>6.6</ele>
        <time>2021-05-16T09:20:53Z</time>
      </trkpt>
      <trkpt lat="41.2858030" lon="-8.7314710">
        <ele>6.6</ele>
        <time>2021-05-16T09:20:54Z</time>
      </trkpt>
      <trkpt lat="41.2858170" lon="-8.7314790">
        <ele>6.6</ele>
        <time>2021-05-16T09:20:55Z</time>
      </trkpt>
      <trkpt lat="41.2858320" lon="-8.7314770">
        <ele>6.6</ele>
        <time>2021-05-16T09:20:56Z</time>
      </trkpt>
      <trkpt lat="41.2858470" lon="-8.7314810">
        <ele>6.6</ele>
        <time>2021-05-16T09:20:57Z</time>
      </trkpt>
      <trkpt lat="41.2858590" lon="-8.7314800">
        <ele>6.7</ele>
        <time>2021-05-16T09:20:58Z</time>
      </trkpt>
      <trkpt lat="41.2858730" lon="-8.7314850">
        <ele>6.7</ele>
        <time>2021-05-16T09:20:59Z</time>
      </trkpt>
      <trkpt lat="41.2858870" lon="-8.7314840">
        <ele>6.7</ele>
        <time>2021-05-16T09:21:00Z</time>
      </trkpt>
      <trkpt lat="41.2859010" lon="-8.7314790">
        <ele>6.7</ele>
        <time>2021-05-16T09:21:01Z</time>
      </trkpt>
      <trkpt lat="41.2859150" lon="-8.7314830">
        <ele>6.7</ele>
        <time>2021-05-16T09:21:02Z</time>
      </trkpt>
      <trkpt lat="41.2859290" lon="-8.7314810">
        <ele>6.7</ele>
        <time>2021-05-16T09:21:03Z</time>
      </trkpt>
      <trkpt lat="41.2859450" lon="-8.7314780">
        <ele>6.7</ele>
        <time>2021-05-16T09:21:04Z</time>
      </trkpt>
      <trkpt lat="41.2859590" lon="-8.7314830">
        <ele>6.7</ele>
        <time>2021-05-16T09:21:05Z</time>
      </trkpt>
      <trkpt lat="41.2859740" lon="-8.7314850">
        <ele>6.7</ele>
        <time>2021-05-16T09:21:06Z</time>
      </trkpt>
      <trkpt lat="41.2859890" lon="-8.7314880">
        <ele>6.7</ele>
        <time>2021-05-16T09:21:07Z</time>
      </trkpt>
      <trkpt lat="41.2860050" lon="-8.7314810">
        <ele>6.7</ele>
        <time>2021-05-16T09:21:08Z</time>
      </trkpt>
      <trkpt lat="41.2860210" lon="-8.7314820">
        <ele>6.7</ele>
        <time>2021-05-16T09:21:09Z</time>
      </trkpt>
      <trkpt lat="41.2860350" lon="-8.7314840">
        <ele>6.8</ele>
        <time>2021-05-16T09:21:10Z</time>
      </trkpt>
      <trkpt lat="41.2860510" lon="-8.7314860">
        <ele>6.8</ele>
        <time>2021-05-16T09:21:11Z</time>
      </trkpt>
      <trkpt lat="41.2860660" lon="-8.7314850">
        <ele>6.8</ele>
        <time>2021-05-16T09:21:12Z</time>
      </trkpt>
      <trkpt lat="41.2860800" lon="-8.7314860">
        <ele>6.8</ele>
        <time>2021-05-16T09:21:13Z</time>
      </trkpt>
      <trkpt lat="41.2860930" lon="-8.7314910">
        <ele>6.8</ele>
        <time>2021-05-16T09:21:14Z</time>
      </trkpt>
      <trkpt lat="41.2861070" lon="-8.7314990">
        <ele>6.8</ele>
        <time>2021-05-16T09:21:15Z</time>
      </trkpt>
      <trkpt lat="41.2861220" lon="-8.7315010">
        <ele>6.8</ele>
        <time>2021-05-16T09:21:16Z</time>
      </trkpt>
      <trkpt lat="41.2861370" lon="-8.7314920">
        <ele>6.8</ele>
        <time>2021-05-16T09:21:17Z</time>
      </trkpt>
      <trkpt lat="41.2861500" lon="-8.7314980">
        <ele>6.8</ele>
        <time>2021-05-16T09:21:18Z</time>
      </trkpt>
      <trkpt lat="41.2861650" lon="-8.7314940">
        <ele>6.8</ele>
        <time>2021-05-16T09:21:19Z</time>
      </trkpt>
      <trkpt lat="41.2861820" lon="-8.7314910">
        <ele>6.8</ele>
        <time>2021-05-16T09:21:20Z</time>
      </trkpt>
      <trkpt lat="41.2861960" lon="-8.7314930">
        <ele>6.8</ele>
        <time>2021-05-16T09:21:21Z</time>
      </trkpt>
      <trkpt lat="41.2862110" lon="-8.7315000">
        <ele>6.8</ele>
        <time>2021-05-16T09:21:22Z</time>
      </trkpt>
      <trkpt lat="41.2862330" lon="-8.7315040">
        <ele>6.8</ele>
        <time>2021-05-16T09:21:23Z</time>
      </trkpt>
      <trkpt lat="41.2862420" lon="-8.7315060">
        <ele>6.8</ele>
        <time>2021-05-16T09:21:24Z</time>
      </trkpt>
      <trkpt lat="41.2862510" lon="-8.7315090">
        <ele>6.8</ele>
        <time>2021-05-16T09:21:25Z</time>
      </trkpt>
      <trkpt lat="41.2862660" lon="-8.7315120">
        <ele>6.8</ele>
        <time>2021-05-16T09:21:26Z</time>
      </trkpt>
      <trkpt lat="41.2862800" lon="-8.7315150">
        <ele>6.8</ele>
        <time>2021-05-16T09:21:27Z</time>
      </trkpt>
      <trkpt lat="41.2863030" lon="-8.7315190">
        <ele>6.8</ele>
        <time>2021-05-16T09:21:28Z</time>
      </trkpt>
      <trkpt lat="41.2863110" lon="-8.7315210">
        <ele>6.8</ele>
        <time>2021-05-16T09:21:29Z</time>
      </trkpt>
      <trkpt lat="41.2863200" lon="-8.7315220">
        <ele>6.8</ele>
        <time>2021-05-16T09:21:30Z</time>
      </trkpt>
      <trkpt lat="41.2863400" lon="-8.7315240">
        <ele>6.8</ele>
        <time>2021-05-16T09:21:31Z</time>
      </trkpt>
      <trkpt lat="41.2863480" lon="-8.7315280">
        <ele>6.8</ele>
        <time>2021-05-16T09:21:32Z</time>
      </trkpt>
      <trkpt lat="41.2863570" lon="-8.7315310">
        <ele>6.8</ele>
        <time>2021-05-16T09:21:33Z</time>
      </trkpt>
      <trkpt lat="41.2863700" lon="-8.7315290">
        <ele>6.8</ele>
        <time>2021-05-16T09:21:34Z</time>
      </trkpt>
      <trkpt lat="41.2863840" lon="-8.7315320">
        <ele>6.8</ele>
        <time>2021-05-16T09:21:35Z</time>
      </trkpt>
      <trkpt lat="41.2864000" lon="-8.7315340">
        <ele>6.8</ele>
        <time>2021-05-16T09:21:36Z</time>
      </trkpt>
      <trkpt lat="41.2864160" lon="-8.7315360">
        <ele>6.8</ele>
        <time>2021-05-16T09:21:37Z</time>
      </trkpt>
      <trkpt lat="41.2864310" lon="-8.7315320">
        <ele>6.8</ele>
        <time>2021-05-16T09:21:38Z</time>
      </trkpt>
      <trkpt lat="41.2864430" lon="-8.7315370">
        <ele>6.8</ele>
        <time>2021-05-16T09:21:39Z</time>
      </trkpt>
      <trkpt lat="41.2864570" lon="-8.7315390">
        <ele>6.8</ele>
        <time>2021-05-16T09:21:40Z</time>
      </trkpt>
      <trkpt lat="41.2864710" lon="-8.7315380">
        <ele>6.8</ele>
        <time>2021-05-16T09:21:41Z</time>
      </trkpt>
      <trkpt lat="41.2864820" lon="-8.7315500">
        <ele>6.8</ele>
        <time>2021-05-16T09:21:42Z</time>
      </trkpt>
      <trkpt lat="41.2864980" lon="-8.7315510">
        <ele>6.8</ele>
        <time>2021-05-16T09:21:43Z</time>
      </trkpt>
      <trkpt lat="41.2865120" lon="-8.7315500">
        <ele>6.8</ele>
        <time>2021-05-16T09:21:44Z</time>
      </trkpt>
      <trkpt lat="41.2865270" lon="-8.7315540">
        <ele>6.8</ele>
        <time>2021-05-16T09:21:45Z</time>
      </trkpt>
      <trkpt lat="41.2865420" lon="-8.7315550">
        <ele>6.8</ele>
        <time>2021-05-16T09:21:46Z</time>
      </trkpt>
      <trkpt lat="41.2865550" lon="-8.7315680">
        <ele>6.8</ele>
        <time>2021-05-16T09:21:47Z</time>
      </trkpt>
      <trkpt lat="41.2865710" lon="-8.7315770">
        <ele>6.8</ele>
        <time>2021-05-16T09:21:48Z</time>
      </trkpt>
      <trkpt lat="41.2865820" lon="-8.7315770">
        <ele>6.8</ele>
        <time>2021-05-16T09:21:49Z</time>
      </trkpt>
      <trkpt lat="41.2866060" lon="-8.7315770">
        <ele>6.8</ele>
        <time>2021-05-16T09:21:50Z</time>
      </trkpt>
      <trkpt lat="41.2866150" lon="-8.7315800">
        <ele>6.8</ele>
        <time>2021-05-16T09:21:51Z</time>
      </trkpt>
      <trkpt lat="41.2866250" lon="-8.7315820">
        <ele>6.8</ele>
        <time>2021-05-16T09:21:52Z</time>
      </trkpt>
      <trkpt lat="41.2866400" lon="-8.7315910">
        <ele>6.8</ele>
        <time>2021-05-16T09:21:53Z</time>
      </trkpt>
      <trkpt lat="41.2866540" lon="-8.7315910">
        <ele>6.8</ele>
        <time>2021-05-16T09:21:54Z</time>
      </trkpt>
      <trkpt lat="41.2866780" lon="-8.7315970">
        <ele>6.8</ele>
        <time>2021-05-16T09:21:55Z</time>
      </trkpt>
      <trkpt lat="41.2866870" lon="-8.7316000">
        <ele>6.8</ele>
        <time>2021-05-16T09:21:56Z</time>
      </trkpt>
      <trkpt lat="41.2866950" lon="-8.7316030">
        <ele>6.8</ele>
        <time>2021-05-16T09:21:57Z</time>
      </trkpt>
      <trkpt lat="41.2867080" lon="-8.7316020">
        <ele>6.8</ele>
        <time>2021-05-16T09:21:58Z</time>
      </trkpt>
      <trkpt lat="41.2867170" lon="-8.7316060">
        <ele>6.8</ele>
        <time>2021-05-16T09:21:59Z</time>
      </trkpt>
      <trkpt lat="41.2867300" lon="-8.7316140">
        <ele>6.8</ele>
        <time>2021-05-16T09:22:00Z</time>
      </trkpt>
      <trkpt lat="41.2867440" lon="-8.7316180">
        <ele>6.7</ele>
        <time>2021-05-16T09:22:01Z</time>
      </trkpt>
      <trkpt lat="41.2867600" lon="-8.7316180">
        <ele>6.7</ele>
        <time>2021-05-16T09:22:02Z</time>
      </trkpt>
      <trkpt lat="41.2867770" lon="-8.7316170">
        <ele>6.7</ele>
        <time>2021-05-16T09:22:03Z</time>
      </trkpt>
      <trkpt lat="41.2867920" lon="-8.7316210">
        <ele>6.7</ele>
        <time>2021-05-16T09:22:04Z</time>
      </trkpt>
      <trkpt lat="41.2868140" lon="-8.7316240">
        <ele>6.7</ele>
        <time>2021-05-16T09:22:05Z</time>
      </trkpt>
      <trkpt lat="41.2868220" lon="-8.7316240">
        <ele>6.7</ele>
        <time>2021-05-16T09:22:06Z</time>
      </trkpt>
      <trkpt lat="41.2868310" lon="-8.7316240">
        <ele>6.7</ele>
        <time>2021-05-16T09:22:07Z</time>
      </trkpt>
      <trkpt lat="41.2868540" lon="-8.7316310">
        <ele>6.7</ele>
        <time>2021-05-16T09:22:08Z</time>
      </trkpt>
      <trkpt lat="41.2868620" lon="-8.7316340">
        <ele>6.7</ele>
        <time>2021-05-16T09:22:09Z</time>
      </trkpt>
      <trkpt lat="41.2868710" lon="-8.7316370">
        <ele>6.8</ele>
        <time>2021-05-16T09:22:10Z</time>
      </trkpt>
      <trkpt lat="41.2868830" lon="-8.7316420">
        <ele>6.8</ele>
        <time>2021-05-16T09:22:11Z</time>
      </trkpt>
      <trkpt lat="41.2868980" lon="-8.7316410">
        <ele>6.8</ele>
        <time>2021-05-16T09:22:12Z</time>
      </trkpt>
      <trkpt lat="41.2869140" lon="-8.7316430">
        <ele>6.8</ele>
        <time>2021-05-16T09:22:13Z</time>
      </trkpt>
      <trkpt lat="41.2869250" lon="-8.7316490">
        <ele>6.8</ele>
        <time>2021-05-16T09:22:14Z</time>
      </trkpt>
      <trkpt lat="41.2869390" lon="-8.7316520">
        <ele>6.8</ele>
        <time>2021-05-16T09:22:15Z</time>
      </trkpt>
      <trkpt lat="41.2869550" lon="-8.7316580">
        <ele>6.8</ele>
        <time>2021-05-16T09:22:16Z</time>
      </trkpt>
      <trkpt lat="41.2869680" lon="-8.7316540">
        <ele>6.8</ele>
        <time>2021-05-16T09:22:17Z</time>
      </trkpt>
      <trkpt lat="41.2869820" lon="-8.7316560">
        <ele>6.8</ele>
        <time>2021-05-16T09:22:18Z</time>
      </trkpt>
      <trkpt lat="41.2869960" lon="-8.7316560">
        <ele>6.8</ele>
        <time>2021-05-16T09:22:19Z</time>
      </trkpt>
      <trkpt lat="41.2870100" lon="-8.7316600">
        <ele>6.8</ele>
        <time>2021-05-16T09:22:20Z</time>
      </trkpt>
      <trkpt lat="41.2870240" lon="-8.7316650">
        <ele>6.8</ele>
        <time>2021-05-16T09:22:21Z</time>
      </trkpt>
      <trkpt lat="41.2870370" lon="-8.7316740">
        <ele>6.8</ele>
        <time>2021-05-16T09:22:22Z</time>
      </trkpt>
      <trkpt lat="41.2870530" lon="-8.7316700">
        <ele>6.8</ele>
        <time>2021-05-16T09:22:23Z</time>
      </trkpt>
      <trkpt lat="41.2870690" lon="-8.7316710">
        <ele>6.8</ele>
        <time>2021-05-16T09:22:24Z</time>
      </trkpt>
      <trkpt lat="41.2870820" lon="-8.7316700">
        <ele>6.8</ele>
        <time>2021-05-16T09:22:25Z</time>
      </trkpt>
      <trkpt lat="41.2870970" lon="-8.7316750">
        <ele>6.8</ele>
        <time>2021-05-16T09:22:26Z</time>
      </trkpt>
      <trkpt lat="41.2871140" lon="-8.7316750">
        <ele>6.8</ele>
        <time>2021-05-16T09:22:27Z</time>
      </trkpt>
      <trkpt lat="41.2871280" lon="-8.7316800">
        <ele>6.8</ele>
        <time>2021-05-16T09:22:28Z</time>
      </trkpt>
      <trkpt lat="41.2871400" lon="-8.7316850">
        <ele>6.8</ele>
        <time>2021-05-16T09:22:29Z</time>
      </trkpt>
      <trkpt lat="41.2871570" lon="-8.7316910">
        <ele>6.7</ele>
        <time>2021-05-16T09:22:30Z</time>
      </trkpt>
      <trkpt lat="41.2871700" lon="-8.7316930">
        <ele>6.7</ele>
        <time>2021-05-16T09:22:31Z</time>
      </trkpt>
      <trkpt lat="41.2871860" lon="-8.7316940">
        <ele>6.7</ele>
        <time>2021-05-16T09:22:32Z</time>
      </trkpt>
      <trkpt lat="41.2871960" lon="-8.7316990">
        <ele>6.7</ele>
        <time>2021-05-16T09:22:33Z</time>
      </trkpt>
      <trkpt lat="41.2872060" lon="-8.7317010">
        <ele>6.7</ele>
        <time>2021-05-16T09:22:34Z</time>
      </trkpt>
      <trkpt lat="41.2872170" lon="-8.7317080">
        <ele>6.7</ele>
        <time>2021-05-16T09:22:35Z</time>
      </trkpt>
      <trkpt lat="41.2872270" lon="-8.7317110">
        <ele>6.7</ele>
        <time>2021-05-16T09:22:36Z</time>
      </trkpt>
      <trkpt lat="41.2872440" lon="-8.7317150">
        <ele>6.7</ele>
        <time>2021-05-16T09:22:37Z</time>
      </trkpt>
      <trkpt lat="41.2872550" lon="-8.7317150">
        <ele>6.7</ele>
        <time>2021-05-16T09:22:38Z</time>
      </trkpt>
      <trkpt lat="41.2872660" lon="-8.7317230">
        <ele>6.7</ele>
        <time>2021-05-16T09:22:39Z</time>
      </trkpt>
      <trkpt lat="41.2872780" lon="-8.7317270">
        <ele>6.7</ele>
        <time>2021-05-16T09:22:40Z</time>
      </trkpt>
      <trkpt lat="41.2872910" lon="-8.7317300">
        <ele>6.7</ele>
        <time>2021-05-16T09:22:41Z</time>
      </trkpt>
      <trkpt lat="41.2873010" lon="-8.7317330">
        <ele>6.7</ele>
        <time>2021-05-16T09:22:42Z</time>
      </trkpt>
      <trkpt lat="41.2873120" lon="-8.7317330">
        <ele>6.7</ele>
        <time>2021-05-16T09:22:43Z</time>
      </trkpt>
      <trkpt lat="41.2873300" lon="-8.7317380">
        <ele>6.7</ele>
        <time>2021-05-16T09:22:44Z</time>
      </trkpt>
      <trkpt lat="41.2873420" lon="-8.7317420">
        <ele>6.6</ele>
        <time>2021-05-16T09:22:45Z</time>
      </trkpt>
      <trkpt lat="41.2873570" lon="-8.7317430">
        <ele>6.6</ele>
        <time>2021-05-16T09:22:46Z</time>
      </trkpt>
      <trkpt lat="41.2873730" lon="-8.7317500">
        <ele>6.6</ele>
        <time>2021-05-16T09:22:47Z</time>
      </trkpt>
      <trkpt lat="41.2873920" lon="-8.7317530">
        <ele>6.6</ele>
        <time>2021-05-16T09:22:48Z</time>
      </trkpt>
      <trkpt lat="41.2874020" lon="-8.7317560">
        <ele>6.5</ele>
        <time>2021-05-16T09:22:49Z</time>
      </trkpt>
      <trkpt lat="41.2874120" lon="-8.7317590">
        <ele>6.5</ele>
        <time>2021-05-16T09:22:50Z</time>
      </trkpt>
      <trkpt lat="41.2874260" lon="-8.7317660">
        <ele>6.5</ele>
        <time>2021-05-16T09:22:51Z</time>
      </trkpt>
      <trkpt lat="41.2874410" lon="-8.7317640">
        <ele>6.5</ele>
        <time>2021-05-16T09:22:52Z</time>
      </trkpt>
      <trkpt lat="41.2874560" lon="-8.7317670">
        <ele>6.4</ele>
        <time>2021-05-16T09:22:53Z</time>
      </trkpt>
      <trkpt lat="41.2874650" lon="-8.7317630">
        <ele>6.4</ele>
        <time>2021-05-16T09:22:54Z</time>
      </trkpt>
      <trkpt lat="41.2874760" lon="-8.7317530">
        <ele>6.4</ele>
        <time>2021-05-16T09:22:55Z</time>
      </trkpt>
      <trkpt lat="41.2874870" lon="-8.7317440">
        <ele>6.4</ele>
        <time>2021-05-16T09:22:56Z</time>
      </trkpt>
      <trkpt lat="41.2875000" lon="-8.7317350">
        <ele>6.3</ele>
        <time>2021-05-16T09:22:57Z</time>
      </trkpt>
      <trkpt lat="41.2875200" lon="-8.7317210">
        <ele>6.3</ele>
        <time>2021-05-16T09:22:58Z</time>
      </trkpt>
      <trkpt lat="41.2875290" lon="-8.7317120">
        <ele>6.3</ele>
        <time>2021-05-16T09:22:59Z</time>
      </trkpt>
      <trkpt lat="41.2875380" lon="-8.7317030">
        <ele>6.2</ele>
        <time>2021-05-16T09:23:00Z</time>
      </trkpt>
      <trkpt lat="41.2875490" lon="-8.7316910">
        <ele>6.2</ele>
        <time>2021-05-16T09:23:01Z</time>
      </trkpt>
      <trkpt lat="41.2875610" lon="-8.7316820">
        <ele>6.2</ele>
        <time>2021-05-16T09:23:02Z</time>
      </trkpt>
      <trkpt lat="41.2875700" lon="-8.7316670">
        <ele>6.1</ele>
        <time>2021-05-16T09:23:03Z</time>
      </trkpt>
      <trkpt lat="41.2875780" lon="-8.7316530">
        <ele>6.1</ele>
        <time>2021-05-16T09:23:04Z</time>
      </trkpt>
      <trkpt lat="41.2875970" lon="-8.7316380">
        <ele>6.1</ele>
        <time>2021-05-16T09:23:05Z</time>
      </trkpt>
      <trkpt lat="41.2876060" lon="-8.7316340">
        <ele>6.0</ele>
        <time>2021-05-16T09:23:06Z</time>
      </trkpt>
      <trkpt lat="41.2876140" lon="-8.7316300">
        <ele>6.0</ele>
        <time>2021-05-16T09:23:07Z</time>
      </trkpt>
      <trkpt lat="41.2876370" lon="-8.7316270">
        <ele>6.0</ele>
        <time>2021-05-16T09:23:08Z</time>
      </trkpt>
      <trkpt lat="41.2876480" lon="-8.7316310">
        <ele>6.0</ele>
        <time>2021-05-16T09:23:09Z</time>
      </trkpt>
      <trkpt lat="41.2876600" lon="-8.7316340">
        <ele>5.9</ele>
        <time>2021-05-16T09:23:10Z</time>
      </trkpt>
      <trkpt lat="41.2876740" lon="-8.7316520">
        <ele>5.9</ele>
        <time>2021-05-16T09:23:11Z</time>
      </trkpt>
      <trkpt lat="41.2876820" lon="-8.7316580">
        <ele>5.9</ele>
        <time>2021-05-16T09:23:12Z</time>
      </trkpt>
      <trkpt lat="41.2876900" lon="-8.7316640">
        <ele>5.9</ele>
        <time>2021-05-16T09:23:13Z</time>
      </trkpt>
      <trkpt lat="41.2877040" lon="-8.7316730">
        <ele>5.9</ele>
        <time>2021-05-16T09:23:14Z</time>
      </trkpt>
      <trkpt lat="41.2877170" lon="-8.7316790">
        <ele>5.8</ele>
        <time>2021-05-16T09:23:15Z</time>
      </trkpt>
      <trkpt lat="41.2877340" lon="-8.7316880">
        <ele>5.8</ele>
        <time>2021-05-16T09:23:16Z</time>
      </trkpt>
      <trkpt lat="41.2877470" lon="-8.7316910">
        <ele>5.8</ele>
        <time>2021-05-16T09:23:17Z</time>
      </trkpt>
      <trkpt lat="41.2877700" lon="-8.7317010">
        <ele>5.8</ele>
        <time>2021-05-16T09:23:18Z</time>
      </trkpt>
      <trkpt lat="41.2877770" lon="-8.7317040">
        <ele>5.8</ele>
        <time>2021-05-16T09:23:19Z</time>
      </trkpt>
      <trkpt lat="41.2877830" lon="-8.7317060">
        <ele>5.8</ele>
        <time>2021-05-16T09:23:20Z</time>
      </trkpt>
      <trkpt lat="41.2878000" lon="-8.7317170">
        <ele>5.8</ele>
        <time>2021-05-16T09:23:21Z</time>
      </trkpt>
      <trkpt lat="41.2878150" lon="-8.7317220">
        <ele>5.8</ele>
        <time>2021-05-16T09:23:22Z</time>
      </trkpt>
      <trkpt lat="41.2878280" lon="-8.7317290">
        <ele>5.8</ele>
        <time>2021-05-16T09:23:23Z</time>
      </trkpt>
      <trkpt lat="41.2878440" lon="-8.7317330">
        <ele>5.8</ele>
        <time>2021-05-16T09:23:24Z</time>
      </trkpt>
      <trkpt lat="41.2878680" lon="-8.7317440">
        <ele>5.8</ele>
        <time>2021-05-16T09:23:25Z</time>
      </trkpt>
      <trkpt lat="41.2878770" lon="-8.7317460">
        <ele>5.8</ele>
        <time>2021-05-16T09:23:26Z</time>
      </trkpt>
      <trkpt lat="41.2878860" lon="-8.7317470">
        <ele>5.8</ele>
        <time>2021-05-16T09:23:27Z</time>
      </trkpt>
      <trkpt lat="41.2879060" lon="-8.7317610">
        <ele>5.8</ele>
        <time>2021-05-16T09:23:28Z</time>
      </trkpt>
      <trkpt lat="41.2879170" lon="-8.7317690">
        <ele>5.8</ele>
        <time>2021-05-16T09:23:29Z</time>
      </trkpt>
      <trkpt lat="41.2879280" lon="-8.7317780">
        <ele>5.8</ele>
        <time>2021-05-16T09:23:30Z</time>
      </trkpt>
      <trkpt lat="41.2879530" lon="-8.7317960">
        <ele>5.8</ele>
        <time>2021-05-16T09:23:31Z</time>
      </trkpt>
      <trkpt lat="41.2879610" lon="-8.7318020">
        <ele>5.8</ele>
        <time>2021-05-16T09:23:32Z</time>
      </trkpt>
      <trkpt lat="41.2879890" lon="-8.7318130">
        <ele>5.8</ele>
        <time>2021-05-16T09:23:33Z</time>
      </trkpt>
      <trkpt lat="41.2879980" lon="-8.7318180">
        <ele>5.8</ele>
        <time>2021-05-16T09:23:34Z</time>
      </trkpt>
      <trkpt lat="41.2880140" lon="-8.7318200">
        <ele>5.9</ele>
        <time>2021-05-16T09:23:35Z</time>
      </trkpt>
      <trkpt lat="41.2880290" lon="-8.7318290">
        <ele>5.9</ele>
        <time>2021-05-16T09:23:36Z</time>
      </trkpt>
      <trkpt lat="41.2880440" lon="-8.7318320">
        <ele>5.9</ele>
        <time>2021-05-16T09:23:37Z</time>
      </trkpt>
      <trkpt lat="41.2880620" lon="-8.7318420">
        <ele>5.9</ele>
        <time>2021-05-16T09:23:38Z</time>
      </trkpt>
      <trkpt lat="41.2880780" lon="-8.7318490">
        <ele>5.9</ele>
        <time>2021-05-16T09:23:39Z</time>
      </trkpt>
      <trkpt lat="41.2880930" lon="-8.7318510">
        <ele>6.0</ele>
        <time>2021-05-16T09:23:40Z</time>
      </trkpt>
      <trkpt lat="41.2881080" lon="-8.7318590">
        <ele>6.0</ele>
        <time>2021-05-16T09:23:41Z</time>
      </trkpt>
      <trkpt lat="41.2881230" lon="-8.7318660">
        <ele>6.0</ele>
        <time>2021-05-16T09:23:42Z</time>
      </trkpt>
      <trkpt lat="41.2881380" lon="-8.7318770">
        <ele>6.0</ele>
        <time>2021-05-16T09:23:43Z</time>
      </trkpt>
      <trkpt lat="41.2881560" lon="-8.7318840">
        <ele>6.1</ele>
        <time>2021-05-16T09:23:44Z</time>
      </trkpt>
      <trkpt lat="41.2881690" lon="-8.7318880">
        <ele>6.1</ele>
        <time>2021-05-16T09:23:45Z</time>
      </trkpt>
      <trkpt lat="41.2881840" lon="-8.7318970">
        <ele>6.1</ele>
        <time>2021-05-16T09:23:46Z</time>
      </trkpt>
      <trkpt lat="41.2881980" lon="-8.7319110">
        <ele>6.1</ele>
        <time>2021-05-16T09:23:47Z</time>
      </trkpt>
      <trkpt lat="41.2882140" lon="-8.7319160">
        <ele>6.2</ele>
        <time>2021-05-16T09:23:48Z</time>
      </trkpt>
      <trkpt lat="41.2882280" lon="-8.7319240">
        <ele>6.2</ele>
        <time>2021-05-16T09:23:49Z</time>
      </trkpt>
      <trkpt lat="41.2882430" lon="-8.7319270">
        <ele>6.3</ele>
        <time>2021-05-16T09:23:50Z</time>
      </trkpt>
      <trkpt lat="41.2882590" lon="-8.7319280">
        <ele>6.3</ele>
        <time>2021-05-16T09:23:51Z</time>
      </trkpt>
      <trkpt lat="41.2882760" lon="-8.7319270">
        <ele>6.3</ele>
        <time>2021-05-16T09:23:52Z</time>
      </trkpt>
      <trkpt lat="41.2882910" lon="-8.7319290">
        <ele>6.3</ele>
        <time>2021-05-16T09:23:53Z</time>
      </trkpt>
      <trkpt lat="41.2883060" lon="-8.7319310">
        <ele>6.4</ele>
        <time>2021-05-16T09:23:54Z</time>
      </trkpt>
      <trkpt lat="41.2883210" lon="-8.7319380">
        <ele>6.4</ele>
        <time>2021-05-16T09:23:55Z</time>
      </trkpt>
      <trkpt lat="41.2883350" lon="-8.7319430">
        <ele>6.4</ele>
        <time>2021-05-16T09:23:56Z</time>
      </trkpt>
      <trkpt lat="41.2883510" lon="-8.7319470">
        <ele>6.5</ele>
        <time>2021-05-16T09:23:57Z</time>
      </trkpt>
      <trkpt lat="41.2883620" lon="-8.7319490">
        <ele>6.5</ele>
        <time>2021-05-16T09:23:58Z</time>
      </trkpt>
      <trkpt lat="41.2883700" lon="-8.7319520">
        <ele>6.5</ele>
        <time>2021-05-16T09:23:59Z</time>
      </trkpt>
      <trkpt lat="41.2883830" lon="-8.7319540">
        <ele>6.5</ele>
        <time>2021-05-16T09:24:00Z</time>
      </trkpt>
      <trkpt lat="41.2883910" lon="-8.7319540">
        <ele>6.5</ele>
        <time>2021-05-16T09:24:01Z</time>
      </trkpt>
      <trkpt lat="41.2883990" lon="-8.7319550">
        <ele>6.5</ele>
        <time>2021-05-16T09:24:02Z</time>
      </trkpt>
      <trkpt lat="41.2884070" lon="-8.7319550">
        <ele>6.5</ele>
        <time>2021-05-16T09:24:03Z</time>
      </trkpt>
      <trkpt lat="41.2884150" lon="-8.7319560">
        <ele>6.6</ele>
        <time>2021-05-16T09:24:04Z</time>
      </trkpt>
      <trkpt lat="41.2884230" lon="-8.7319550">
        <ele>6.6</ele>
        <time>2021-05-16T09:24:05Z</time>
      </trkpt>
      <trkpt lat="41.2884320" lon="-8.7319610">
        <ele>6.6</ele>
        <time>2021-05-16T09:24:06Z</time>
      </trkpt>
      <trkpt lat="41.2884460" lon="-8.7319600">
        <ele>6.6</ele>
        <time>2021-05-16T09:24:07Z</time>
      </trkpt>
      <trkpt lat="41.2884680" lon="-8.7319710">
        <ele>6.7</ele>
        <time>2021-05-16T09:24:08Z</time>
      </trkpt>
      <trkpt lat="41.2884740" lon="-8.7319770">
        <ele>6.7</ele>
        <time>2021-05-16T09:24:09Z</time>
      </trkpt>
      <trkpt lat="41.2884810" lon="-8.7319820">
        <ele>6.7</ele>
        <time>2021-05-16T09:24:10Z</time>
      </trkpt>
      <trkpt lat="41.2885000" lon="-8.7319920">
        <ele>6.7</ele>
        <time>2021-05-16T09:24:11Z</time>
      </trkpt>
      <trkpt lat="41.2885100" lon="-8.7319950">
        <ele>6.7</ele>
        <time>2021-05-16T09:24:12Z</time>
      </trkpt>
      <trkpt lat="41.2885200" lon="-8.7319980">
        <ele>6.8</ele>
        <time>2021-05-16T09:24:13Z</time>
      </trkpt>
      <trkpt lat="41.2885300" lon="-8.7320000">
        <ele>6.8</ele>
        <time>2021-05-16T09:24:14Z</time>
      </trkpt>
      <trkpt lat="41.2885500" lon="-8.7320040">
        <ele>6.8</ele>
        <time>2021-05-16T09:24:15Z</time>
      </trkpt>
      <trkpt lat="41.2885610" lon="-8.7320030">
        <ele>6.8</ele>
        <time>2021-05-16T09:24:16Z</time>
      </trkpt>
      <trkpt lat="41.2885670" lon="-8.7320030">
        <ele>6.8</ele>
        <time>2021-05-16T09:24:17Z</time>
      </trkpt>
      <trkpt lat="41.2885820" lon="-8.7320130">
        <ele>6.9</ele>
        <time>2021-05-16T09:24:18Z</time>
      </trkpt>
      <trkpt lat="41.2885930" lon="-8.7320190">
        <ele>6.9</ele>
        <time>2021-05-16T09:24:19Z</time>
      </trkpt>
      <trkpt lat="41.2886110" lon="-8.7320250">
        <ele>6.9</ele>
        <time>2021-05-16T09:24:20Z</time>
      </trkpt>
      <trkpt lat="41.2886290" lon="-8.7320260">
        <ele>7.0</ele>
        <time>2021-05-16T09:24:21Z</time>
      </trkpt>
      <trkpt lat="41.2886430" lon="-8.7320380">
        <ele>7.0</ele>
        <time>2021-05-16T09:24:22Z</time>
      </trkpt>
      <trkpt lat="41.2886560" lon="-8.7320420">
        <ele>7.0</ele>
        <time>2021-05-16T09:24:23Z</time>
      </trkpt>
      <trkpt lat="41.2886580" lon="-8.7320530">
        <ele>7.0</ele>
        <time>2021-05-16T09:24:24Z</time>
      </trkpt>
      <trkpt lat="41.2886590" lon="-8.7320530">
        <ele>7.0</ele>
        <time>2021-05-16T09:24:25Z</time>
      </trkpt>
      <trkpt lat="41.2886740" lon="-8.7320610">
        <ele>7.1</ele>
        <time>2021-05-16T09:24:26Z</time>
      </trkpt>
      <trkpt lat="41.2886860" lon="-8.7320660">
        <ele>7.1</ele>
        <time>2021-05-16T09:24:27Z</time>
      </trkpt>
      <trkpt lat="41.2887020" lon="-8.7320730">
        <ele>7.1</ele>
        <time>2021-05-16T09:24:28Z</time>
      </trkpt>
      <trkpt lat="41.2887150" lon="-8.7320740">
        <ele>7.2</ele>
        <time>2021-05-16T09:24:29Z</time>
      </trkpt>
      <trkpt lat="41.2887310" lon="-8.7320800">
        <ele>7.2</ele>
        <time>2021-05-16T09:24:30Z</time>
      </trkpt>
      <trkpt lat="41.2887510" lon="-8.7320790">
        <ele>7.3</ele>
        <time>2021-05-16T09:24:31Z</time>
      </trkpt>
      <trkpt lat="41.2887610" lon="-8.7320810">
        <ele>7.3</ele>
        <time>2021-05-16T09:24:32Z</time>
      </trkpt>
      <trkpt lat="41.2887710" lon="-8.7320830">
        <ele>7.3</ele>
        <time>2021-05-16T09:24:33Z</time>
      </trkpt>
      <trkpt lat="41.2887910" lon="-8.7320930">
        <ele>7.3</ele>
        <time>2021-05-16T09:24:34Z</time>
      </trkpt>
      <trkpt lat="41.2888010" lon="-8.7320950">
        <ele>7.3</ele>
        <time>2021-05-16T09:24:35Z</time>
      </trkpt>
      <trkpt lat="41.2888120" lon="-8.7320970">
        <ele>7.4</ele>
        <time>2021-05-16T09:24:36Z</time>
      </trkpt>
      <trkpt lat="41.2888300" lon="-8.7320970">
        <ele>7.4</ele>
        <time>2021-05-16T09:24:37Z</time>
      </trkpt>
      <trkpt lat="41.2888460" lon="-8.7320990">
        <ele>7.4</ele>
        <time>2021-05-16T09:24:38Z</time>
      </trkpt>
      <trkpt lat="41.2888740" lon="-8.7321050">
        <ele>7.4</ele>
        <time>2021-05-16T09:24:39Z</time>
      </trkpt>
      <trkpt lat="41.2888820" lon="-8.7321080">
        <ele>7.4</ele>
        <time>2021-05-16T09:24:40Z</time>
      </trkpt>
      <trkpt lat="41.2888960" lon="-8.7321160">
        <ele>7.5</ele>
        <time>2021-05-16T09:24:41Z</time>
      </trkpt>
      <trkpt lat="41.2889150" lon="-8.7321200">
        <ele>7.5</ele>
        <time>2021-05-16T09:24:42Z</time>
      </trkpt>
      <trkpt lat="41.2889320" lon="-8.7321190">
        <ele>7.5</ele>
        <time>2021-05-16T09:24:43Z</time>
      </trkpt>
      <trkpt lat="41.2889500" lon="-8.7321260">
        <ele>7.5</ele>
        <time>2021-05-16T09:24:44Z</time>
      </trkpt>
      <trkpt lat="41.2889670" lon="-8.7321340">
        <ele>7.6</ele>
        <time>2021-05-16T09:24:45Z</time>
      </trkpt>
      <trkpt lat="41.2889820" lon="-8.7321310">
        <ele>7.6</ele>
        <time>2021-05-16T09:24:46Z</time>
      </trkpt>
      <trkpt lat="41.2889960" lon="-8.7321360">
        <ele>7.6</ele>
        <time>2021-05-16T09:24:47Z</time>
      </trkpt>
      <trkpt lat="41.2890110" lon="-8.7321410">
        <ele>7.6</ele>
        <time>2021-05-16T09:24:48Z</time>
      </trkpt>
      <trkpt lat="41.2890270" lon="-8.7321510">
        <ele>7.6</ele>
        <time>2021-05-16T09:24:49Z</time>
      </trkpt>
      <trkpt lat="41.2890430" lon="-8.7321530">
        <ele>7.6</ele>
        <time>2021-05-16T09:24:50Z</time>
      </trkpt>
      <trkpt lat="41.2890520" lon="-8.7321720">
        <ele>7.6</ele>
        <time>2021-05-16T09:24:51Z</time>
      </trkpt>
      <trkpt lat="41.2890610" lon="-8.7321850">
        <ele>7.6</ele>
        <time>2021-05-16T09:24:52Z</time>
      </trkpt>
      <trkpt lat="41.2890740" lon="-8.7322020">
        <ele>7.6</ele>
        <time>2021-05-16T09:24:53Z</time>
      </trkpt>
      <trkpt lat="41.2890840" lon="-8.7322170">
        <ele>7.6</ele>
        <time>2021-05-16T09:24:54Z</time>
      </trkpt>
      <trkpt lat="41.2890970" lon="-8.7322340">
        <ele>7.6</ele>
        <time>2021-05-16T09:24:55Z</time>
      </trkpt>
      <trkpt lat="41.2891080" lon="-8.7322410">
        <ele>7.6</ele>
        <time>2021-05-16T09:24:56Z</time>
      </trkpt>
      <trkpt lat="41.2891240" lon="-8.7322540">
        <ele>7.6</ele>
        <time>2021-05-16T09:24:57Z</time>
      </trkpt>
      <trkpt lat="41.2891410" lon="-8.7322570">
        <ele>7.7</ele>
        <time>2021-05-16T09:24:58Z</time>
      </trkpt>
      <trkpt lat="41.2891570" lon="-8.7322640">
        <ele>7.7</ele>
        <time>2021-05-16T09:24:59Z</time>
      </trkpt>
      <trkpt lat="41.2891670" lon="-8.7322780">
        <ele>7.7</ele>
        <time>2021-05-16T09:25:00Z</time>
      </trkpt>
      <trkpt lat="41.2891840" lon="-8.7322870">
        <ele>7.7</ele>
        <time>2021-05-16T09:25:01Z</time>
      </trkpt>
      <trkpt lat="41.2891900" lon="-8.7323040">
        <ele>7.7</ele>
        <time>2021-05-16T09:25:02Z</time>
      </trkpt>
      <trkpt lat="41.2892050" lon="-8.7323120">
        <ele>7.7</ele>
        <time>2021-05-16T09:25:03Z</time>
      </trkpt>
      <trkpt lat="41.2892120" lon="-8.7323310">
        <ele>7.7</ele>
        <time>2021-05-16T09:25:04Z</time>
      </trkpt>
      <trkpt lat="41.2892210" lon="-8.7323460">
        <ele>7.7</ele>
        <time>2021-05-16T09:25:05Z</time>
      </trkpt>
      <trkpt lat="41.2892330" lon="-8.7323550">
        <ele>7.7</ele>
        <time>2021-05-16T09:25:06Z</time>
      </trkpt>
      <trkpt lat="41.2892490" lon="-8.7323610">
        <ele>7.7</ele>
        <time>2021-05-16T09:25:07Z</time>
      </trkpt>
      <trkpt lat="41.2892640" lon="-8.7323740">
        <ele>7.7</ele>
        <time>2021-05-16T09:25:08Z</time>
      </trkpt>
      <trkpt lat="41.2892740" lon="-8.7323850">
        <ele>7.7</ele>
        <time>2021-05-16T09:25:09Z</time>
      </trkpt>
      <trkpt lat="41.2892890" lon="-8.7323930">
        <ele>7.7</ele>
        <time>2021-05-16T09:25:10Z</time>
      </trkpt>
      <trkpt lat="41.2893050" lon="-8.7324100">
        <ele>7.7</ele>
        <time>2021-05-16T09:25:11Z</time>
      </trkpt>
      <trkpt lat="41.2893120" lon="-8.7324190">
        <ele>7.7</ele>
        <time>2021-05-16T09:25:12Z</time>
      </trkpt>
      <trkpt lat="41.2893200" lon="-8.7324290">
        <ele>7.7</ele>
        <time>2021-05-16T09:25:13Z</time>
      </trkpt>
      <trkpt lat="41.2893420" lon="-8.7324500">
        <ele>7.7</ele>
        <time>2021-05-16T09:25:14Z</time>
      </trkpt>
      <trkpt lat="41.2893500" lon="-8.7324550">
        <ele>7.7</ele>
        <time>2021-05-16T09:25:15Z</time>
      </trkpt>
      <trkpt lat="41.2893660" lon="-8.7324570">
        <ele>7.7</ele>
        <time>2021-05-16T09:25:16Z</time>
      </trkpt>
      <trkpt lat="41.2893780" lon="-8.7324700">
        <ele>7.7</ele>
        <time>2021-05-16T09:25:17Z</time>
      </trkpt>
      <trkpt lat="41.2893910" lon="-8.7324780">
        <ele>7.7</ele>
        <time>2021-05-16T09:25:18Z</time>
      </trkpt>
      <trkpt lat="41.2894080" lon="-8.7324830">
        <ele>7.7</ele>
        <time>2021-05-16T09:25:19Z</time>
      </trkpt>
      <trkpt lat="41.2894210" lon="-8.7324860">
        <ele>7.7</ele>
        <time>2021-05-16T09:25:20Z</time>
      </trkpt>
      <trkpt lat="41.2894360" lon="-8.7324870">
        <ele>7.7</ele>
        <time>2021-05-16T09:25:21Z</time>
      </trkpt>
      <trkpt lat="41.2894490" lon="-8.7324970">
        <ele>7.7</ele>
        <time>2021-05-16T09:25:22Z</time>
      </trkpt>
      <trkpt lat="41.2894600" lon="-8.7325090">
        <ele>7.7</ele>
        <time>2021-05-16T09:25:23Z</time>
      </trkpt>
      <trkpt lat="41.2894750" lon="-8.7325200">
        <ele>7.7</ele>
        <time>2021-05-16T09:25:24Z</time>
      </trkpt>
      <trkpt lat="41.2894870" lon="-8.7325340">
        <ele>7.7</ele>
        <time>2021-05-16T09:25:25Z</time>
      </trkpt>
      <trkpt lat="41.2895040" lon="-8.7325380">
        <ele>7.7</ele>
        <time>2021-05-16T09:25:26Z</time>
      </trkpt>
      <trkpt lat="41.2895170" lon="-8.7325450">
        <ele>7.7</ele>
        <time>2021-05-16T09:25:27Z</time>
      </trkpt>
      <trkpt lat="41.2895320" lon="-8.7325490">
        <ele>7.7</ele>
        <time>2021-05-16T09:25:28Z</time>
      </trkpt>
      <trkpt lat="41.2895440" lon="-8.7325560">
        <ele>7.7</ele>
        <time>2021-05-16T09:25:29Z</time>
      </trkpt>
      <trkpt lat="41.2895550" lon="-8.7325640">
        <ele>7.7</ele>
        <time>2021-05-16T09:25:30Z</time>
      </trkpt>
      <trkpt lat="41.2895700" lon="-8.7325670">
        <ele>7.8</ele>
        <time>2021-05-16T09:25:31Z</time>
      </trkpt>
      <trkpt lat="41.2895840" lon="-8.7325710">
        <ele>7.8</ele>
        <time>2021-05-16T09:25:32Z</time>
      </trkpt>
      <trkpt lat="41.2895970" lon="-8.7325770">
        <ele>7.8</ele>
        <time>2021-05-16T09:25:33Z</time>
      </trkpt>
      <trkpt lat="41.2896120" lon="-8.7325850">
        <ele>7.8</ele>
        <time>2021-05-16T09:25:34Z</time>
      </trkpt>
      <trkpt lat="41.2896230" lon="-8.7325920">
        <ele>7.8</ele>
        <time>2021-05-16T09:25:35Z</time>
      </trkpt>
      <trkpt lat="41.2896380" lon="-8.7325960">
        <ele>7.8</ele>
        <time>2021-05-16T09:25:36Z</time>
      </trkpt>
      <trkpt lat="41.2896530" lon="-8.7326030">
        <ele>7.8</ele>
        <time>2021-05-16T09:25:37Z</time>
      </trkpt>
      <trkpt lat="41.2896690" lon="-8.7326050">
        <ele>7.8</ele>
        <time>2021-05-16T09:25:38Z</time>
      </trkpt>
      <trkpt lat="41.2896830" lon="-8.7326130">
        <ele>7.8</ele>
        <time>2021-05-16T09:25:39Z</time>
      </trkpt>
      <trkpt lat="41.2896990" lon="-8.7326150">
        <ele>7.8</ele>
        <time>2021-05-16T09:25:40Z</time>
      </trkpt>
      <trkpt lat="41.2897140" lon="-8.7326190">
        <ele>7.8</ele>
        <time>2021-05-16T09:25:41Z</time>
      </trkpt>
      <trkpt lat="41.2897280" lon="-8.7326240">
        <ele>7.8</ele>
        <time>2021-05-16T09:25:42Z</time>
      </trkpt>
      <trkpt lat="41.2897420" lon="-8.7326280">
        <ele>7.8</ele>
        <time>2021-05-16T09:25:43Z</time>
      </trkpt>
      <trkpt lat="41.2897580" lon="-8.7326330">
        <ele>7.8</ele>
        <time>2021-05-16T09:25:44Z</time>
      </trkpt>
      <trkpt lat="41.2897690" lon="-8.7326360">
        <ele>7.8</ele>
        <time>2021-05-16T09:25:45Z</time>
      </trkpt>
      <trkpt lat="41.2897860" lon="-8.7326400">
        <ele>7.9</ele>
        <time>2021-05-16T09:25:46Z</time>
      </trkpt>
      <trkpt lat="41.2897990" lon="-8.7326440">
        <ele>7.9</ele>
        <time>2021-05-16T09:25:47Z</time>
      </trkpt>
      <trkpt lat="41.2898140" lon="-8.7326490">
        <ele>7.9</ele>
        <time>2021-05-16T09:25:48Z</time>
      </trkpt>
      <trkpt lat="41.2898300" lon="-8.7326550">
        <ele>7.9</ele>
        <time>2021-05-16T09:25:49Z</time>
      </trkpt>
      <trkpt lat="41.2898450" lon="-8.7326580">
        <ele>7.9</ele>
        <time>2021-05-16T09:25:50Z</time>
      </trkpt>
      <trkpt lat="41.2898580" lon="-8.7326600">
        <ele>7.9</ele>
        <time>2021-05-16T09:25:51Z</time>
      </trkpt>
      <trkpt lat="41.2898740" lon="-8.7326690">
        <ele>7.9</ele>
        <time>2021-05-16T09:25:52Z</time>
      </trkpt>
      <trkpt lat="41.2898900" lon="-8.7326710">
        <ele>7.9</ele>
        <time>2021-05-16T09:25:53Z</time>
      </trkpt>
      <trkpt lat="41.2899040" lon="-8.7326810">
        <ele>7.9</ele>
        <time>2021-05-16T09:25:54Z</time>
      </trkpt>
      <trkpt lat="41.2899210" lon="-8.7326780">
        <ele>7.9</ele>
        <time>2021-05-16T09:25:55Z</time>
      </trkpt>
      <trkpt lat="41.2899420" lon="-8.7326820">
        <ele>8.0</ele>
        <time>2021-05-16T09:25:56Z</time>
      </trkpt>
      <trkpt lat="41.2899500" lon="-8.7326870">
        <ele>8.0</ele>
        <time>2021-05-16T09:25:57Z</time>
      </trkpt>
      <trkpt lat="41.2899570" lon="-8.7326920">
        <ele>8.0</ele>
        <time>2021-05-16T09:25:58Z</time>
      </trkpt>
      <trkpt lat="41.2899710" lon="-8.7326980">
        <ele>8.0</ele>
        <time>2021-05-16T09:25:59Z</time>
      </trkpt>
      <trkpt lat="41.2899860" lon="-8.7326980">
        <ele>8.0</ele>
        <time>2021-05-16T09:26:00Z</time>
      </trkpt>
      <trkpt lat="41.2900020" lon="-8.7327000">
        <ele>8.0</ele>
        <time>2021-05-16T09:26:01Z</time>
      </trkpt>
      <trkpt lat="41.2900170" lon="-8.7326970">
        <ele>8.0</ele>
        <time>2021-05-16T09:26:02Z</time>
      </trkpt>
      <trkpt lat="41.2900290" lon="-8.7326900">
        <ele>8.0</ele>
        <time>2021-05-16T09:26:03Z</time>
      </trkpt>
      <trkpt lat="41.2900380" lon="-8.7326850">
        <ele>8.0</ele>
        <time>2021-05-16T09:26:04Z</time>
      </trkpt>
      <trkpt lat="41.2900470" lon="-8.7326790">
        <ele>8.0</ele>
        <time>2021-05-16T09:26:05Z</time>
      </trkpt>
      <trkpt lat="41.2900530" lon="-8.7326690">
        <ele>8.0</ele>
        <time>2021-05-16T09:26:06Z</time>
      </trkpt>
      <trkpt lat="41.2900530" lon="-8.7326680">
        <ele>8.0</ele>
        <time>2021-05-16T09:26:07Z</time>
      </trkpt>
      <trkpt lat="41.2900550" lon="-8.7326680">
        <ele>8.0</ele>
        <time>2021-05-16T09:26:08Z</time>
      </trkpt>
      <trkpt lat="41.2900550" lon="-8.7326730">
        <ele>8.0</ele>
        <time>2021-05-16T09:26:09Z</time>
      </trkpt>
      <trkpt lat="41.2900560" lon="-8.7326740">
        <ele>8.0</ele>
        <time>2021-05-16T09:26:10Z</time>
      </trkpt>
      <trkpt lat="41.2900540" lon="-8.7326720">
        <ele>8.0</ele>
        <time>2021-05-16T09:26:11Z</time>
      </trkpt>
      <trkpt lat="41.2900640" lon="-8.7326630">
        <ele>8.0</ele>
        <time>2021-05-16T09:26:12Z</time>
      </trkpt>
      <trkpt lat="41.2900730" lon="-8.7326510">
        <ele>8.0</ele>
        <time>2021-05-16T09:26:13Z</time>
      </trkpt>
      <trkpt lat="41.2900730" lon="-8.7326360">
        <ele>8.0</ele>
        <time>2021-05-16T09:26:14Z</time>
      </trkpt>
      <trkpt lat="41.2900770" lon="-8.7326240">
        <ele>8.0</ele>
        <time>2021-05-16T09:26:15Z</time>
      </trkpt>
      <trkpt lat="41.2900820" lon="-8.7326120">
        <ele>8.0</ele>
        <time>2021-05-16T09:26:16Z</time>
      </trkpt>
      <trkpt lat="41.2900800" lon="-8.7326160">
        <ele>8.1</ele>
        <time>2021-05-16T09:26:17Z</time>
      </trkpt>
      <trkpt lat="41.2900800" lon="-8.7326150">
        <ele>8.1</ele>
        <time>2021-05-16T09:26:18Z</time>
      </trkpt>
      <trkpt lat="41.2900800" lon="-8.7326140">
        <ele>8.1</ele>
        <time>2021-05-16T09:26:19Z</time>
      </trkpt>
      <trkpt lat="41.2900800" lon="-8.7326130">
        <ele>8.1</ele>
        <time>2021-05-16T09:26:20Z</time>
      </trkpt>
      <trkpt lat="41.2900800" lon="-8.7326130">
        <ele>8.1</ele>
        <time>2021-05-16T09:26:21Z</time>
      </trkpt>
      <trkpt lat="41.2900800" lon="-8.7326120">
        <ele>8.1</ele>
        <time>2021-05-16T09:26:22Z</time>
      </trkpt>
      <trkpt lat="41.2900810" lon="-8.7326110">
        <ele>8.1</ele>
        <time>2021-05-16T09:26:23Z</time>
      </trkpt>
      <trkpt lat="41.2900810" lon="-8.7326100">
        <ele>8.1</ele>
        <time>2021-05-16T09:26:24Z</time>
      </trkpt>
      <trkpt lat="41.2900810" lon="-8.7326090">
        <ele>8.1</ele>
        <time>2021-05-16T09:26:25Z</time>
      </trkpt>
      <trkpt lat="41.2900810" lon="-8.7326080">
        <ele>8.1</ele>
        <time>2021-05-16T09:26:26Z</time>
      </trkpt>
      <trkpt lat="41.2900810" lon="-8.7326070">
        <ele>8.1</ele>
        <time>2021-05-16T09:26:27Z</time>
      </trkpt>
      <trkpt lat="41.2900810" lon="-8.7326060">
        <ele>8.1</ele>
        <time>2021-05-16T09:26:28Z</time>
      </trkpt>
      <trkpt lat="41.2900810" lon="-8.7326050">
        <ele>8.1</ele>
        <time>2021-05-16T09:26:29Z</time>
      </trkpt>
      <trkpt lat="41.2900810" lon="-8.7326050">
        <ele>8.1</ele>
        <time>2021-05-16T09:26:30Z</time>
      </trkpt>
      <trkpt lat="41.2900810" lon="-8.7326040">
        <ele>8.1</ele>
        <time>2021-05-16T09:26:31Z</time>
      </trkpt>
      <trkpt lat="41.2900810" lon="-8.7326030">
        <ele>8.1</ele>
        <time>2021-05-16T09:26:32Z</time>
      </trkpt>
      <trkpt lat="41.2900810" lon="-8.7326020">
        <ele>8.1</ele>
        <time>2021-05-16T09:26:33Z</time>
      </trkpt>
      <trkpt lat="41.2900810" lon="-8.7326010">
        <ele>8.1</ele>
        <time>2021-05-16T09:26:34Z</time>
      </trkpt>
      <trkpt lat="41.2900810" lon="-8.7326000">
        <ele>8.1</ele>
        <time>2021-05-16T09:26:35Z</time>
      </trkpt>
      <trkpt lat="41.2900810" lon="-8.7325990">
        <ele>8.1</ele>
        <time>2021-05-16T09:26:36Z</time>
      </trkpt>
      <trkpt lat="41.2900820" lon="-8.7325980">
        <ele>8.1</ele>
        <time>2021-05-16T09:26:37Z</time>
      </trkpt>
      <trkpt lat="41.2900820" lon="-8.7325970">
        <ele>8.1</ele>
        <time>2021-05-16T09:26:38Z</time>
      </trkpt>
      <trkpt lat="41.2900820" lon="-8.7325970">
        <ele>8.1</ele>
        <time>2021-05-16T09:26:39Z</time>
      </trkpt>
      <trkpt lat="41.2900820" lon="-8.7325960">
        <ele>8.1</ele>
        <time>2021-05-16T09:26:40Z</time>
      </trkpt>
      <trkpt lat="41.2900820" lon="-8.7325950">
        <ele>8.1</ele>
        <time>2021-05-16T09:26:41Z</time>
      </trkpt>
      <trkpt lat="41.2900820" lon="-8.7325940">
        <ele>8.1</ele>
        <time>2021-05-16T09:26:42Z</time>
      </trkpt>
      <trkpt lat="41.2900820" lon="-8.7325930">
        <ele>8.1</ele>
        <time>2021-05-16T09:26:43Z</time>
      </trkpt>
      <trkpt lat="41.2900820" lon="-8.7325920">
        <ele>8.1</ele>
        <time>2021-05-16T09:26:44Z</time>
      </trkpt>
      <trkpt lat="41.2900820" lon="-8.7325910">
        <ele>8.1</ele>
        <time>2021-05-16T09:26:45Z</time>
      </trkpt>
      <trkpt lat="41.2900820" lon="-8.7325900">
        <ele>8.1</ele>
        <time>2021-05-16T09:26:46Z</time>
      </trkpt>
      <trkpt lat="41.2900820" lon="-8.7325890">
        <ele>8.1</ele>
        <time>2021-05-16T09:26:47Z</time>
      </trkpt>
      <trkpt lat="41.2900820" lon="-8.7325880">
        <ele>8.1</ele>
        <time>2021-05-16T09:26:48Z</time>
      </trkpt>
      <trkpt lat="41.2900820" lon="-8.7325880">
        <ele>8.1</ele>
        <time>2021-05-16T09:26:49Z</time>
      </trkpt>
      <trkpt lat="41.2900820" lon="-8.7325870">
        <ele>8.1</ele>
        <time>2021-05-16T09:26:50Z</time>
      </trkpt>
      <trkpt lat="41.2900830" lon="-8.7325860">
        <ele>8.1</ele>
        <time>2021-05-16T09:26:51Z</time>
      </trkpt>
      <trkpt lat="41.2900830" lon="-8.7325850">
        <ele>8.1</ele>
        <time>2021-05-16T09:26:52Z</time>
      </trkpt>
      <trkpt lat="41.2900830" lon="-8.7325840">
        <ele>8.1</ele>
        <time>2021-05-16T09:26:53Z</time>
      </trkpt>
      <trkpt lat="41.2900830" lon="-8.7325830">
        <ele>8.1</ele>
        <time>2021-05-16T09:26:54Z</time>
      </trkpt>
      <trkpt lat="41.2900830" lon="-8.7325820">
        <ele>8.1</ele>
        <time>2021-05-16T09:26:55Z</time>
      </trkpt>
      <trkpt lat="41.2900830" lon="-8.7325810">
        <ele>8.1</ele>
        <time>2021-05-16T09:26:56Z</time>
      </trkpt>
      <trkpt lat="41.2900830" lon="-8.7325800">
        <ele>8.1</ele>
        <time>2021-05-16T09:26:57Z</time>
      </trkpt>
      <trkpt lat="41.2900830" lon="-8.7325800">
        <ele>8.1</ele>
        <time>2021-05-16T09:26:58Z</time>
      </trkpt>
      <trkpt lat="41.2900830" lon="-8.7325790">
        <ele>8.1</ele>
        <time>2021-05-16T09:26:59Z</time>
      </trkpt>
      <trkpt lat="41.2900830" lon="-8.7325780">
        <ele>8.1</ele>
        <time>2021-05-16T09:27:00Z</time>
      </trkpt>
      <trkpt lat="41.2900830" lon="-8.7325770">
        <ele>8.1</ele>
        <time>2021-05-16T09:27:01Z</time>
      </trkpt>
      <trkpt lat="41.2900830" lon="-8.7325760">
        <ele>8.1</ele>
        <time>2021-05-16T09:27:02Z</time>
      </trkpt>
      <trkpt lat="41.2900830" lon="-8.7325750">
        <ele>8.1</ele>
        <time>2021-05-16T09:27:03Z</time>
      </trkpt>
      <trkpt lat="41.2900830" lon="-8.7325740">
        <ele>8.1</ele>
        <time>2021-05-16T09:27:04Z</time>
      </trkpt>
      <trkpt lat="41.2900840" lon="-8.7325730">
        <ele>8.1</ele>
        <time>2021-05-16T09:27:05Z</time>
      </trkpt>
      <trkpt lat="41.2900840" lon="-8.7325720">
        <ele>8.1</ele>
        <time>2021-05-16T09:27:06Z</time>
      </trkpt>
      <trkpt lat="41.2900840" lon="-8.7325720">
        <ele>8.1</ele>
        <time>2021-05-16T09:27:07Z</time>
      </trkpt>
      <trkpt lat="41.2900840" lon="-8.7325710">
        <ele>8.1</ele>
        <time>2021-05-16T09:27:08Z</time>
      </trkpt>
      <trkpt lat="41.2900840" lon="-8.7325700">
        <ele>8.1</ele>
        <time>2021-05-16T09:27:09Z</time>
      </trkpt>
      <trkpt lat="41.2900840" lon="-8.7325690">
        <ele>8.1</ele>
        <time>2021-05-16T09:27:10Z</time>
      </trkpt>
      <trkpt lat="41.2900840" lon="-8.7325680">
        <ele>8.1</ele>
        <time>2021-05-16T09:27:11Z</time>
      </trkpt>
      <trkpt lat="41.2900840" lon="-8.7325670">
        <ele>8.1</ele>
        <time>2021-05-16T09:27:12Z</time>
      </trkpt>
      <trkpt lat="41.2900840" lon="-8.7325660">
        <ele>8.1</ele>
        <time>2021-05-16T09:27:13Z</time>
      </trkpt>
      <trkpt lat="41.2900840" lon="-8.7325650">
        <ele>8.1</ele>
        <time>2021-05-16T09:27:14Z</time>
      </trkpt>
      <trkpt lat="41.2900840" lon="-8.7325640">
        <ele>8.1</ele>
        <time>2021-05-16T09:27:15Z</time>
      </trkpt>
      <trkpt lat="41.2900840" lon="-8.7325640">
        <ele>8.1</ele>
        <time>2021-05-16T09:27:16Z</time>
      </trkpt>
      <trkpt lat="41.2900840" lon="-8.7325630">
        <ele>8.1</ele>
        <time>2021-05-16T09:27:17Z</time>
      </trkpt>
      <trkpt lat="41.2900850" lon="-8.7325620">
        <ele>8.1</ele>
        <time>2021-05-16T09:27:18Z</time>
      </trkpt>
      <trkpt lat="41.2900850" lon="-8.7325610">
        <ele>8.1</ele>
        <time>2021-05-16T09:27:19Z</time>
      </trkpt>
      <trkpt lat="41.2900850" lon="-8.7325600">
        <ele>8.1</ele>
        <time>2021-05-16T09:27:20Z</time>
      </trkpt>
      <trkpt lat="41.2900850" lon="-8.7325590">
        <ele>8.1</ele>
        <time>2021-05-16T09:27:21Z</time>
      </trkpt>
      <trkpt lat="41.2900850" lon="-8.7325580">
        <ele>8.1</ele>
        <time>2021-05-16T09:27:22Z</time>
      </trkpt>
      <trkpt lat="41.2900850" lon="-8.7325570">
        <ele>8.1</ele>
        <time>2021-05-16T09:27:23Z</time>
      </trkpt>
      <trkpt lat="41.2900850" lon="-8.7325560">
        <ele>8.1</ele>
        <time>2021-05-16T09:27:24Z</time>
      </trkpt>
      <trkpt lat="41.2900850" lon="-8.7325560">
        <ele>8.1</ele>
        <time>2021-05-16T09:27:25Z</time>
      </trkpt>
      <trkpt lat="41.2900850" lon="-8.7325550">
        <ele>8.1</ele>
        <time>2021-05-16T09:27:26Z</time>
      </trkpt>
      <trkpt lat="41.2900850" lon="-8.7325540">
        <ele>8.1</ele>
        <time>2021-05-16T09:27:27Z</time>
      </trkpt>
      <trkpt lat="41.2900850" lon="-8.7325530">
        <ele>8.1</ele>
        <time>2021-05-16T09:27:28Z</time>
      </trkpt>
      <trkpt lat="41.2900850" lon="-8.7325520">
        <ele>8.1</ele>
        <time>2021-05-16T09:27:29Z</time>
      </trkpt>
      <trkpt lat="41.2900850" lon="-8.7325510">
        <ele>8.1</ele>
        <time>2021-05-16T09:27:30Z</time>
      </trkpt>
      <trkpt lat="41.2900850" lon="-8.7325500">
        <ele>8.1</ele>
        <time>2021-05-16T09:27:31Z</time>
      </trkpt>
      <trkpt lat="41.2900860" lon="-8.7325490">
        <ele>8.1</ele>
        <time>2021-05-16T09:27:32Z</time>
      </trkpt>
      <trkpt lat="41.2900860" lon="-8.7325480">
        <ele>8.1</ele>
        <time>2021-05-16T09:27:33Z</time>
      </trkpt>
      <trkpt lat="41.2900860" lon="-8.7325480">
        <ele>8.1</ele>
        <time>2021-05-16T09:27:34Z</time>
      </trkpt>
      <trkpt lat="41.2900860" lon="-8.7325470">
        <ele>8.1</ele>
        <time>2021-05-16T09:27:35Z</time>
      </trkpt>
      <trkpt lat="41.2900860" lon="-8.7325460">
        <ele>8.1</ele>
        <time>2021-05-16T09:27:36Z</time>
      </trkpt>
      <trkpt lat="41.2900860" lon="-8.7325450">
        <ele>8.1</ele>
        <time>2021-05-16T09:27:37Z</time>
      </trkpt>
      <trkpt lat="41.2900860" lon="-8.7325440">
        <ele>8.1</ele>
        <time>2021-05-16T09:27:38Z</time>
      </trkpt>
      <trkpt lat="41.2900860" lon="-8.7325430">
        <ele>8.1</ele>
        <time>2021-05-16T09:27:39Z</time>
      </trkpt>
      <trkpt lat="41.2900860" lon="-8.7325420">
        <ele>8.1</ele>
        <time>2021-05-16T09:27:40Z</time>
      </trkpt>
      <trkpt lat="41.2900860" lon="-8.7325410">
        <ele>8.1</ele>
        <time>2021-05-16T09:27:41Z</time>
      </trkpt>
      <trkpt lat="41.2900860" lon="-8.7325400">
        <ele>8.1</ele>
        <time>2021-05-16T09:27:42Z</time>
      </trkpt>
      <trkpt lat="41.2900860" lon="-8.7325390">
        <ele>8.1</ele>
        <time>2021-05-16T09:27:43Z</time>
      </trkpt>
      <trkpt lat="41.2900860" lon="-8.7325390">
        <ele>8.1</ele>
        <time>2021-05-16T09:27:44Z</time>
      </trkpt>
      <trkpt lat="41.2900860" lon="-8.7325380">
        <ele>8.1</ele>
        <time>2021-05-16T09:27:45Z</time>
      </trkpt>
      <trkpt lat="41.2900870" lon="-8.7325370">
        <ele>8.1</ele>
        <time>2021-05-16T09:27:46Z</time>
      </trkpt>
      <trkpt lat="41.2900870" lon="-8.7325360">
        <ele>8.1</ele>
        <time>2021-05-16T09:27:47Z</time>
      </trkpt>
      <trkpt lat="41.2900870" lon="-8.7325350">
        <ele>8.1</ele>
        <time>2021-05-16T09:27:48Z</time>
      </trkpt>
      <trkpt lat="41.2900870" lon="-8.7325340">
        <ele>8.1</ele>
        <time>2021-05-16T09:27:49Z</time>
      </trkpt>
      <trkpt lat="41.2900870" lon="-8.7325330">
        <ele>8.1</ele>
        <time>2021-05-16T09:27:50Z</time>
      </trkpt>
      <trkpt lat="41.2900870" lon="-8.7325320">
        <ele>8.1</ele>
        <time>2021-05-16T09:27:51Z</time>
      </trkpt>
      <trkpt lat="41.2900870" lon="-8.7325310">
        <ele>8.1</ele>
        <time>2021-05-16T09:27:52Z</time>
      </trkpt>
      <trkpt lat="41.2900870" lon="-8.7325310">
        <ele>8.1</ele>
        <time>2021-05-16T09:27:53Z</time>
      </trkpt>
      <trkpt lat="41.2900870" lon="-8.7325300">
        <ele>8.1</ele>
        <time>2021-05-16T09:27:54Z</time>
      </trkpt>
      <trkpt lat="41.2900870" lon="-8.7325290">
        <ele>8.1</ele>
        <time>2021-05-16T09:27:55Z</time>
      </trkpt>
      <trkpt lat="41.2900870" lon="-8.7325280">
        <ele>8.1</ele>
        <time>2021-05-16T09:27:56Z</time>
      </trkpt>
      <trkpt lat="41.2900870" lon="-8.7325270">
        <ele>8.1</ele>
        <time>2021-05-16T09:27:57Z</time>
      </trkpt>
      <trkpt lat="41.2900870" lon="-8.7325260">
        <ele>8.1</ele>
        <time>2021-05-16T09:27:58Z</time>
      </trkpt>
      <trkpt lat="41.2900870" lon="-8.7325250">
        <ele>8.1</ele>
        <time>2021-05-16T09:27:59Z</time>
      </trkpt>
      <trkpt lat="41.2900880" lon="-8.7325240">
        <ele>8.1</ele>
        <time>2021-05-16T09:28:00Z</time>
      </trkpt>
      <trkpt lat="41.2900880" lon="-8.7325230">
        <ele>8.1</ele>
        <time>2021-05-16T09:28:01Z</time>
      </trkpt>
      <trkpt lat="41.2900880" lon="-8.7325230">
        <ele>8.1</ele>
        <time>2021-05-16T09:28:02Z</time>
      </trkpt>
      <trkpt lat="41.2900880" lon="-8.7325220">
        <ele>8.1</ele>
        <time>2021-05-16T09:28:03Z</time>
      </trkpt>
      <trkpt lat="41.2900880" lon="-8.7325210">
        <ele>8.1</ele>
        <time>2021-05-16T09:28:04Z</time>
      </trkpt>
      <trkpt lat="41.2900880" lon="-8.7325200">
        <ele>8.1</ele>
        <time>2021-05-16T09:28:05Z</time>
      </trkpt>
      <trkpt lat="41.2900880" lon="-8.7325190">
        <ele>8.1</ele>
        <time>2021-05-16T09:28:06Z</time>
      </trkpt>
      <trkpt lat="41.2900820" lon="-8.7325160">
        <ele>8.1</ele>
        <time>2021-05-16T09:28:07Z</time>
      </trkpt>
      <trkpt lat="41.2900810" lon="-8.7325220">
        <ele>8.1</ele>
        <time>2021-05-16T09:28:08Z</time>
      </trkpt>
      <trkpt lat="41.2900890" lon="-8.7325310">
        <ele>8.1</ele>
        <time>2021-05-16T09:28:09Z</time>
      </trkpt>
      <trkpt lat="41.2900970" lon="-8.7325340">
        <ele>8.1</ele>
        <time>2021-05-16T09:28:10Z</time>
      </trkpt>
      <trkpt lat="41.2900950" lon="-8.7325380">
        <ele>8.1</ele>
        <time>2021-05-16T09:28:11Z</time>
      </trkpt>
      <trkpt lat="41.2900900" lon="-8.7325350">
        <ele>8.1</ele>
        <time>2021-05-16T09:28:12Z</time>
      </trkpt>
      <trkpt lat="41.2900790" lon="-8.7325430">
        <ele>8.1</ele>
        <time>2021-05-16T09:28:13Z</time>
      </trkpt>
      <trkpt lat="41.2900700" lon="-8.7325430">
        <ele>8.1</ele>
        <time>2021-05-16T09:28:14Z</time>
      </trkpt>
      <trkpt lat="41.2900720" lon="-8.7325400">
        <ele>8.1</ele>
        <time>2021-05-16T09:28:15Z</time>
      </trkpt>
      <trkpt lat="41.2900720" lon="-8.7325360">
        <ele>8.1</ele>
        <time>2021-05-16T09:28:16Z</time>
      </trkpt>
      <trkpt lat="41.2900620" lon="-8.7325380">
        <ele>8.1</ele>
        <time>2021-05-16T09:28:17Z</time>
      </trkpt>
      <trkpt lat="41.2900670" lon="-8.7325410">
        <ele>8.1</ele>
        <time>2021-05-16T09:28:18Z</time>
      </trkpt>
      <trkpt lat="41.2900580" lon="-8.7325410">
        <ele>8.1</ele>
        <time>2021-05-16T09:28:19Z</time>
      </trkpt>
      <trkpt lat="41.2900570" lon="-8.7325370">
        <ele>8.1</ele>
        <time>2021-05-16T09:28:20Z</time>
      </trkpt>
      <trkpt lat="41.2900670" lon="-8.7325400">
        <ele>8.1</ele>
        <time>2021-05-16T09:28:21Z</time>
      </trkpt>
      <trkpt lat="41.2900660" lon="-8.7325490">
        <ele>8.1</ele>
        <time>2021-05-16T09:28:22Z</time>
      </trkpt>
      <trkpt lat="41.2900630" lon="-8.7325540">
        <ele>8.1</ele>
        <time>2021-05-16T09:28:23Z</time>
      </trkpt>
      <trkpt lat="41.2900620" lon="-8.7325550">
        <ele>8.1</ele>
        <time>2021-05-16T09:28:24Z</time>
      </trkpt>
      <trkpt lat="41.2900540" lon="-8.7325660">
        <ele>8.1</ele>
        <time>2021-05-16T09:28:25Z</time>
      </trkpt>
      <trkpt lat="41.2900620" lon="-8.7325780">
        <ele>8.1</ele>
        <time>2021-05-16T09:28:26Z</time>
      </trkpt>
      <trkpt lat="41.2900660" lon="-8.7325690">
        <ele>8.1</ele>
        <time>2021-05-16T09:28:27Z</time>
      </trkpt>
      <trkpt lat="41.2900680" lon="-8.7325710">
        <ele>8.1</ele>
        <time>2021-05-16T09:28:28Z</time>
      </trkpt>
      <trkpt lat="41.2900660" lon="-8.7325790">
        <ele>8.1</ele>
        <time>2021-05-16T09:28:29Z</time>
      </trkpt>
      <trkpt lat="41.2900620" lon="-8.7325860">
        <ele>8.1</ele>
        <time>2021-05-16T09:28:30Z</time>
      </trkpt>
      <trkpt lat="41.2900820" lon="-8.7325750">
        <ele>8.1</ele>
        <time>2021-05-16T09:28:31Z</time>
      </trkpt>
      <trkpt lat="41.2900910" lon="-8.7325930">
        <ele>8.1</ele>
        <time>2021-05-16T09:28:32Z</time>
      </trkpt>
      <trkpt lat="41.2901030" lon="-8.7326000">
        <ele>8.1</ele>
        <time>2021-05-16T09:28:33Z</time>
      </trkpt>
      <trkpt lat="41.2901100" lon="-8.7326260">
        <ele>8.2</ele>
        <time>2021-05-16T09:28:34Z</time>
      </trkpt>
      <trkpt lat="41.2901210" lon="-8.7326300">
        <ele>8.2</ele>
        <time>2021-05-16T09:28:35Z</time>
      </trkpt>
      <trkpt lat="41.2901410" lon="-8.7326420">
        <ele>8.2</ele>
        <time>2021-05-16T09:28:36Z</time>
      </trkpt>
      <trkpt lat="41.2901530" lon="-8.7326580">
        <ele>8.2</ele>
        <time>2021-05-16T09:28:37Z</time>
      </trkpt>
      <trkpt lat="41.2901630" lon="-8.7326770">
        <ele>8.2</ele>
        <time>2021-05-16T09:28:38Z</time>
      </trkpt>
      <trkpt lat="41.2901790" lon="-8.7326890">
        <ele>8.2</ele>
        <time>2021-05-16T09:28:39Z</time>
      </trkpt>
      <trkpt lat="41.2901870" lon="-8.7326970">
        <ele>8.2</ele>
        <time>2021-05-16T09:28:40Z</time>
      </trkpt>
      <trkpt lat="41.2901960" lon="-8.7327040">
        <ele>8.2</ele>
        <time>2021-05-16T09:28:41Z</time>
      </trkpt>
      <trkpt lat="41.2902080" lon="-8.7327100">
        <ele>8.2</ele>
        <time>2021-05-16T09:28:42Z</time>
      </trkpt>
      <trkpt lat="41.2902240" lon="-8.7327180">
        <ele>8.2</ele>
        <time>2021-05-16T09:28:43Z</time>
      </trkpt>
      <trkpt lat="41.2902360" lon="-8.7327330">
        <ele>8.2</ele>
        <time>2021-05-16T09:28:44Z</time>
      </trkpt>
      <trkpt lat="41.2902510" lon="-8.7327390">
        <ele>8.2</ele>
        <time>2021-05-16T09:28:45Z</time>
      </trkpt>
      <trkpt lat="41.2902710" lon="-8.7327460">
        <ele>8.2</ele>
        <time>2021-05-16T09:28:46Z</time>
      </trkpt>
      <trkpt lat="41.2902790" lon="-8.7327490">
        <ele>8.2</ele>
        <time>2021-05-16T09:28:47Z</time>
      </trkpt>
      <trkpt lat="41.2902880" lon="-8.7327520">
        <ele>8.2</ele>
        <time>2021-05-16T09:28:48Z</time>
      </trkpt>
      <trkpt lat="41.2903070" lon="-8.7327540">
        <ele>8.1</ele>
        <time>2021-05-16T09:28:49Z</time>
      </trkpt>
      <trkpt lat="41.2903220" lon="-8.7327500">
        <ele>8.1</ele>
        <time>2021-05-16T09:28:50Z</time>
      </trkpt>
      <trkpt lat="41.2903450" lon="-8.7327430">
        <ele>8.1</ele>
        <time>2021-05-16T09:28:51Z</time>
      </trkpt>
      <trkpt lat="41.2903540" lon="-8.7327380">
        <ele>8.1</ele>
        <time>2021-05-16T09:28:52Z</time>
      </trkpt>
      <trkpt lat="41.2903640" lon="-8.7327340">
        <ele>8.1</ele>
        <time>2021-05-16T09:28:53Z</time>
      </trkpt>
      <trkpt lat="41.2903780" lon="-8.7327340">
        <ele>8.1</ele>
        <time>2021-05-16T09:28:54Z</time>
      </trkpt>
      <trkpt lat="41.2903950" lon="-8.7327390">
        <ele>8.1</ele>
        <time>2021-05-16T09:28:55Z</time>
      </trkpt>
      <trkpt lat="41.2904100" lon="-8.7327310">
        <ele>8.1</ele>
        <time>2021-05-16T09:28:56Z</time>
      </trkpt>
      <trkpt lat="41.2904220" lon="-8.7327290">
        <ele>8.1</ele>
        <time>2021-05-16T09:28:57Z</time>
      </trkpt>
      <trkpt lat="41.2904400" lon="-8.7327330">
        <ele>8.1</ele>
        <time>2021-05-16T09:28:58Z</time>
      </trkpt>
      <trkpt lat="41.2904510" lon="-8.7327300">
        <ele>8.1</ele>
        <time>2021-05-16T09:28:59Z</time>
      </trkpt>
      <trkpt lat="41.2904730" lon="-8.7327270">
        <ele>8.1</ele>
        <time>2021-05-16T09:29:00Z</time>
      </trkpt>
      <trkpt lat="41.2904820" lon="-8.7327300">
        <ele>8.1</ele>
        <time>2021-05-16T09:29:01Z</time>
      </trkpt>
      <trkpt lat="41.2904900" lon="-8.7327320">
        <ele>8.1</ele>
        <time>2021-05-16T09:29:02Z</time>
      </trkpt>
      <trkpt lat="41.2905030" lon="-8.7327390">
        <ele>8.1</ele>
        <time>2021-05-16T09:29:03Z</time>
      </trkpt>
      <trkpt lat="41.2905160" lon="-8.7327400">
        <ele>8.1</ele>
        <time>2021-05-16T09:29:04Z</time>
      </trkpt>
      <trkpt lat="41.2905330" lon="-8.7327450">
        <ele>8.1</ele>
        <time>2021-05-16T09:29:05Z</time>
      </trkpt>
      <trkpt lat="41.2905440" lon="-8.7327460">
        <ele>8.1</ele>
        <time>2021-05-16T09:29:06Z</time>
      </trkpt>
      <trkpt lat="41.2905550" lon="-8.7327440">
        <ele>8.1</ele>
        <time>2021-05-16T09:29:07Z</time>
      </trkpt>
      <trkpt lat="41.2905660" lon="-8.7327510">
        <ele>8.1</ele>
        <time>2021-05-16T09:29:08Z</time>
      </trkpt>
      <trkpt lat="41.2905780" lon="-8.7327540">
        <ele>8.1</ele>
        <time>2021-05-16T09:29:09Z</time>
      </trkpt>
      <trkpt lat="41.2905980" lon="-8.7327580">
        <ele>8.1</ele>
        <time>2021-05-16T09:29:10Z</time>
      </trkpt>
      <trkpt lat="41.2906100" lon="-8.7327610">
        <ele>8.1</ele>
        <time>2021-05-16T09:29:11Z</time>
      </trkpt>
      <trkpt lat="41.2906260" lon="-8.7327680">
        <ele>8.1</ele>
        <time>2021-05-16T09:29:12Z</time>
      </trkpt>
      <trkpt lat="41.2906380" lon="-8.7327760">
        <ele>8.1</ele>
        <time>2021-05-16T09:29:13Z</time>
      </trkpt>
      <trkpt lat="41.2906530" lon="-8.7327760">
        <ele>8.1</ele>
        <time>2021-05-16T09:29:14Z</time>
      </trkpt>
      <trkpt lat="41.2906670" lon="-8.7327730">
        <ele>8.1</ele>
        <time>2021-05-16T09:29:15Z</time>
      </trkpt>
      <trkpt lat="41.2906900" lon="-8.7327820">
        <ele>8.1</ele>
        <time>2021-05-16T09:29:16Z</time>
      </trkpt>
      <trkpt lat="41.2907000" lon="-8.7327830">
        <ele>8.1</ele>
        <time>2021-05-16T09:29:17Z</time>
      </trkpt>
      <trkpt lat="41.2907100" lon="-8.7327840">
        <ele>8.0</ele>
        <time>2021-05-16T09:29:18Z</time>
      </trkpt>
      <trkpt lat="41.2907220" lon="-8.7327840">
        <ele>8.0</ele>
        <time>2021-05-16T09:29:19Z</time>
      </trkpt>
      <trkpt lat="41.2907380" lon="-8.7327840">
        <ele>8.0</ele>
        <time>2021-05-16T09:29:20Z</time>
      </trkpt>
      <trkpt lat="41.2907520" lon="-8.7327880">
        <ele>8.0</ele>
        <time>2021-05-16T09:29:21Z</time>
      </trkpt>
      <trkpt lat="41.2907670" lon="-8.7327930">
        <ele>8.0</ele>
        <time>2021-05-16T09:29:22Z</time>
      </trkpt>
      <trkpt lat="41.2907860" lon="-8.7327890">
        <ele>8.0</ele>
        <time>2021-05-16T09:29:23Z</time>
      </trkpt>
      <trkpt lat="41.2908010" lon="-8.7327830">
        <ele>8.0</ele>
        <time>2021-05-16T09:29:24Z</time>
      </trkpt>
      <trkpt lat="41.2908250" lon="-8.7327840">
        <ele>8.0</ele>
        <time>2021-05-16T09:29:25Z</time>
      </trkpt>
      <trkpt lat="41.2908330" lon="-8.7327830">
        <ele>8.0</ele>
        <time>2021-05-16T09:29:26Z</time>
      </trkpt>
      <trkpt lat="41.2908420" lon="-8.7327820">
        <ele>8.0</ele>
        <time>2021-05-16T09:29:27Z</time>
      </trkpt>
      <trkpt lat="41.2908530" lon="-8.7327830">
        <ele>8.0</ele>
        <time>2021-05-16T09:29:28Z</time>
      </trkpt>
      <trkpt lat="41.2908700" lon="-8.7327830">
        <ele>8.0</ele>
        <time>2021-05-16T09:29:29Z</time>
      </trkpt>
      <trkpt lat="41.2908860" lon="-8.7327880">
        <ele>8.0</ele>
        <time>2021-05-16T09:29:30Z</time>
      </trkpt>
      <trkpt lat="41.2909040" lon="-8.7327880">
        <ele>8.0</ele>
        <time>2021-05-16T09:29:31Z</time>
      </trkpt>
      <trkpt lat="41.2909240" lon="-8.7327880">
        <ele>7.9</ele>
        <time>2021-05-16T09:29:32Z</time>
      </trkpt>
      <trkpt lat="41.2909330" lon="-8.7327880">
        <ele>7.9</ele>
        <time>2021-05-16T09:29:33Z</time>
      </trkpt>
      <trkpt lat="41.2909430" lon="-8.7327880">
        <ele>7.9</ele>
        <time>2021-05-16T09:29:34Z</time>
      </trkpt>
      <trkpt lat="41.2909650" lon="-8.7327840">
        <ele>7.9</ele>
        <time>2021-05-16T09:29:35Z</time>
      </trkpt>
      <trkpt lat="41.2909750" lon="-8.7327840">
        <ele>7.9</ele>
        <time>2021-05-16T09:29:36Z</time>
      </trkpt>
      <trkpt lat="41.2909840" lon="-8.7327850">
        <ele>7.9</ele>
        <time>2021-05-16T09:29:37Z</time>
      </trkpt>
      <trkpt lat="41.2909980" lon="-8.7327920">
        <ele>7.9</ele>
        <time>2021-05-16T09:29:38Z</time>
      </trkpt>
      <trkpt lat="41.2910180" lon="-8.7327970">
        <ele>7.9</ele>
        <time>2021-05-16T09:29:39Z</time>
      </trkpt>
      <trkpt lat="41.2910310" lon="-8.7327990">
        <ele>7.9</ele>
        <time>2021-05-16T09:29:40Z</time>
      </trkpt>
      <trkpt lat="41.2910490" lon="-8.7328010">
        <ele>7.9</ele>
        <time>2021-05-16T09:29:41Z</time>
      </trkpt>
      <trkpt lat="41.2910650" lon="-8.7328060">
        <ele>7.9</ele>
        <time>2021-05-16T09:29:42Z</time>
      </trkpt>
      <trkpt lat="41.2910790" lon="-8.7328160">
        <ele>7.9</ele>
        <time>2021-05-16T09:29:43Z</time>
      </trkpt>
      <trkpt lat="41.2910980" lon="-8.7328210">
        <ele>7.9</ele>
        <time>2021-05-16T09:29:44Z</time>
      </trkpt>
      <trkpt lat="41.2911070" lon="-8.7328220">
        <ele>7.9</ele>
        <time>2021-05-16T09:29:45Z</time>
      </trkpt>
      <trkpt lat="41.2911150" lon="-8.7328240">
        <ele>7.9</ele>
        <time>2021-05-16T09:29:46Z</time>
      </trkpt>
      <trkpt lat="41.2911280" lon="-8.7328280">
        <ele>7.9</ele>
        <time>2021-05-16T09:29:47Z</time>
      </trkpt>
      <trkpt lat="41.2911460" lon="-8.7328260">
        <ele>7.9</ele>
        <time>2021-05-16T09:29:48Z</time>
      </trkpt>
      <trkpt lat="41.2911600" lon="-8.7328300">
        <ele>7.9</ele>
        <time>2021-05-16T09:29:49Z</time>
      </trkpt>
      <trkpt lat="41.2911750" lon="-8.7328330">
        <ele>7.9</ele>
        <time>2021-05-16T09:29:50Z</time>
      </trkpt>
      <trkpt lat="41.2911930" lon="-8.7328300">
        <ele>7.9</ele>
        <time>2021-05-16T09:29:51Z</time>
      </trkpt>
      <trkpt lat="41.2912080" lon="-8.7328330">
        <ele>7.9</ele>
        <time>2021-05-16T09:29:52Z</time>
      </trkpt>
      <trkpt lat="41.2912280" lon="-8.7328390">
        <ele>7.9</ele>
        <time>2021-05-16T09:29:53Z</time>
      </trkpt>
      <trkpt lat="41.2912440" lon="-8.7328360">
        <ele>7.9</ele>
        <time>2021-05-16T09:29:54Z</time>
      </trkpt>
      <trkpt lat="41.2912650" lon="-8.7328410">
        <ele>7.9</ele>
        <time>2021-05-16T09:29:55Z</time>
      </trkpt>
      <trkpt lat="41.2912750" lon="-8.7328420">
        <ele>7.9</ele>
        <time>2021-05-16T09:29:56Z</time>
      </trkpt>
      <trkpt lat="41.2912840" lon="-8.7328430">
        <ele>7.9</ele>
        <time>2021-05-16T09:29:57Z</time>
      </trkpt>
      <trkpt lat="41.2913000" lon="-8.7328500">
        <ele>7.9</ele>
        <time>2021-05-16T09:29:58Z</time>
      </trkpt>
      <trkpt lat="41.2913140" lon="-8.7328580">
        <ele>7.9</ele>
        <time>2021-05-16T09:29:59Z</time>
      </trkpt>
      <trkpt lat="41.2913330" lon="-8.7328610">
        <ele>7.9</ele>
        <time>2021-05-16T09:30:00Z</time>
      </trkpt>
      <trkpt lat="41.2913470" lon="-8.7328530">
        <ele>7.9</ele>
        <time>2021-05-16T09:30:01Z</time>
      </trkpt>
      <trkpt lat="41.2913680" lon="-8.7328490">
        <ele>7.9</ele>
        <time>2021-05-16T09:30:02Z</time>
      </trkpt>
      <trkpt lat="41.2913770" lon="-8.7328520">
        <ele>7.9</ele>
        <time>2021-05-16T09:30:03Z</time>
      </trkpt>
      <trkpt lat="41.2913870" lon="-8.7328550">
        <ele>7.9</ele>
        <time>2021-05-16T09:30:04Z</time>
      </trkpt>
      <trkpt lat="41.2914010" lon="-8.7328670">
        <ele>7.9</ele>
        <time>2021-05-16T09:30:05Z</time>
      </trkpt>
      <trkpt lat="41.2914130" lon="-8.7328720">
        <ele>7.9</ele>
        <time>2021-05-16T09:30:06Z</time>
      </trkpt>
      <trkpt lat="41.2914270" lon="-8.7328820">
        <ele>7.9</ele>
        <time>2021-05-16T09:30:07Z</time>
      </trkpt>
      <trkpt lat="41.2914430" lon="-8.7328870">
        <ele>7.9</ele>
        <time>2021-05-16T09:30:08Z</time>
      </trkpt>
      <trkpt lat="41.2914580" lon="-8.7328880">
        <ele>7.9</ele>
        <time>2021-05-16T09:30:09Z</time>
      </trkpt>
      <trkpt lat="41.2914690" lon="-8.7328850">
        <ele>7.9</ele>
        <time>2021-05-16T09:30:10Z</time>
      </trkpt>
      <trkpt lat="41.2914780" lon="-8.7328870">
        <ele>7.9</ele>
        <time>2021-05-16T09:30:11Z</time>
      </trkpt>
      <trkpt lat="41.2914920" lon="-8.7328870">
        <ele>7.9</ele>
        <time>2021-05-16T09:30:12Z</time>
      </trkpt>
      <trkpt lat="41.2915010" lon="-8.7328890">
        <ele>7.9</ele>
        <time>2021-05-16T09:30:13Z</time>
      </trkpt>
      <trkpt lat="41.2915090" lon="-8.7328900">
        <ele>7.9</ele>
        <time>2021-05-16T09:30:14Z</time>
      </trkpt>
      <trkpt lat="41.2915180" lon="-8.7328920">
        <ele>7.9</ele>
        <time>2021-05-16T09:30:15Z</time>
      </trkpt>
      <trkpt lat="41.2915320" lon="-8.7328970">
        <ele>7.9</ele>
        <time>2021-05-16T09:30:16Z</time>
      </trkpt>
      <trkpt lat="41.2915470" lon="-8.7329020">
        <ele>7.9</ele>
        <time>2021-05-16T09:30:17Z</time>
      </trkpt>
      <trkpt lat="41.2915630" lon="-8.7329030">
        <ele>7.9</ele>
        <time>2021-05-16T09:30:18Z</time>
      </trkpt>
      <trkpt lat="41.2915750" lon="-8.7329080">
        <ele>7.9</ele>
        <time>2021-05-16T09:30:19Z</time>
      </trkpt>
      <trkpt lat="41.2915900" lon="-8.7329080">
        <ele>7.9</ele>
        <time>2021-05-16T09:30:20Z</time>
      </trkpt>
      <trkpt lat="41.2916020" lon="-8.7329150">
        <ele>7.9</ele>
        <time>2021-05-16T09:30:21Z</time>
      </trkpt>
      <trkpt lat="41.2916240" lon="-8.7329090">
        <ele>7.9</ele>
        <time>2021-05-16T09:30:22Z</time>
      </trkpt>
      <trkpt lat="41.2916320" lon="-8.7329060">
        <ele>7.9</ele>
        <time>2021-05-16T09:30:23Z</time>
      </trkpt>
      <trkpt lat="41.2916400" lon="-8.7329040">
        <ele>7.9</ele>
        <time>2021-05-16T09:30:24Z</time>
      </trkpt>
      <trkpt lat="41.2916490" lon="-8.7329010">
        <ele>7.9</ele>
        <time>2021-05-16T09:30:25Z</time>
      </trkpt>
      <trkpt lat="41.2916610" lon="-8.7329010">
        <ele>7.9</ele>
        <time>2021-05-16T09:30:26Z</time>
      </trkpt>
      <trkpt lat="41.2916690" lon="-8.7329070">
        <ele>7.9</ele>
        <time>2021-05-16T09:30:27Z</time>
      </trkpt>
      <trkpt lat="41.2916780" lon="-8.7329250">
        <ele>7.8</ele>
        <time>2021-05-16T09:30:28Z</time>
      </trkpt>
      <trkpt lat="41.2916800" lon="-8.7329440">
        <ele>7.8</ele>
        <time>2021-05-16T09:30:29Z</time>
      </trkpt>
      <trkpt lat="41.2916910" lon="-8.7329510">
        <ele>7.8</ele>
        <time>2021-05-16T09:30:30Z</time>
      </trkpt>
      <trkpt lat="41.2917100" lon="-8.7329700">
        <ele>7.7</ele>
        <time>2021-05-16T09:30:31Z</time>
      </trkpt>
      <trkpt lat="41.2917200" lon="-8.7329840">
        <ele>7.7</ele>
        <time>2021-05-16T09:30:32Z</time>
      </trkpt>
      <trkpt lat="41.2917280" lon="-8.7329990">
        <ele>7.7</ele>
        <time>2021-05-16T09:30:33Z</time>
      </trkpt>
      <trkpt lat="41.2917410" lon="-8.7330110">
        <ele>7.6</ele>
        <time>2021-05-16T09:30:34Z</time>
      </trkpt>
      <trkpt lat="41.2917520" lon="-8.7330290">
        <ele>7.6</ele>
        <time>2021-05-16T09:30:35Z</time>
      </trkpt>
      <trkpt lat="41.2917680" lon="-8.7330310">
        <ele>7.6</ele>
        <time>2021-05-16T09:30:36Z</time>
      </trkpt>
      <trkpt lat="41.2917790" lon="-8.7330400">
        <ele>7.5</ele>
        <time>2021-05-16T09:30:37Z</time>
      </trkpt>
      <trkpt lat="41.2917920" lon="-8.7330500">
        <ele>7.5</ele>
        <time>2021-05-16T09:30:38Z</time>
      </trkpt>
      <trkpt lat="41.2918040" lon="-8.7330620">
        <ele>7.5</ele>
        <time>2021-05-16T09:30:39Z</time>
      </trkpt>
      <trkpt lat="41.2918110" lon="-8.7330760">
        <ele>7.5</ele>
        <time>2021-05-16T09:30:40Z</time>
      </trkpt>
      <trkpt lat="41.2918180" lon="-8.7330950">
        <ele>7.4</ele>
        <time>2021-05-16T09:30:41Z</time>
      </trkpt>
      <trkpt lat="41.2918250" lon="-8.7331070">
        <ele>7.4</ele>
        <time>2021-05-16T09:30:42Z</time>
      </trkpt>
      <trkpt lat="41.2918420" lon="-8.7331240">
        <ele>7.4</ele>
        <time>2021-05-16T09:30:43Z</time>
      </trkpt>
      <trkpt lat="41.2918510" lon="-8.7331340">
        <ele>7.4</ele>
        <time>2021-05-16T09:30:44Z</time>
      </trkpt>
      <trkpt lat="41.2918530" lon="-8.7331520">
        <ele>7.4</ele>
        <time>2021-05-16T09:30:45Z</time>
      </trkpt>
      <trkpt lat="41.2918670" lon="-8.7331490">
        <ele>7.3</ele>
        <time>2021-05-16T09:30:46Z</time>
      </trkpt>
      <trkpt lat="41.2918710" lon="-8.7331540">
        <ele>7.3</ele>
        <time>2021-05-16T09:30:47Z</time>
      </trkpt>
      <trkpt lat="41.2918810" lon="-8.7331650">
        <ele>7.3</ele>
        <time>2021-05-16T09:30:48Z</time>
      </trkpt>
      <trkpt lat="41.2918880" lon="-8.7331800">
        <ele>7.3</ele>
        <time>2021-05-16T09:30:49Z</time>
      </trkpt>
      <trkpt lat="41.2918970" lon="-8.7331840">
        <ele>7.3</ele>
        <time>2021-05-16T09:30:50Z</time>
      </trkpt>
      <trkpt lat="41.2918870" lon="-8.7331780">
        <ele>7.3</ele>
        <time>2021-05-16T09:30:51Z</time>
      </trkpt>
      <trkpt lat="41.2918840" lon="-8.7331750">
        <ele>7.3</ele>
        <time>2021-05-16T09:30:52Z</time>
      </trkpt>
      <trkpt lat="41.2918810" lon="-8.7331710">
        <ele>7.3</ele>
        <time>2021-05-16T09:30:53Z</time>
      </trkpt>
      <trkpt lat="41.2918800" lon="-8.7331700">
        <ele>7.3</ele>
        <time>2021-05-16T09:30:54Z</time>
      </trkpt>
      <trkpt lat="41.2918920" lon="-8.7331740">
        <ele>7.2</ele>
        <time>2021-05-16T09:30:55Z</time>
      </trkpt>
      <trkpt lat="41.2919100" lon="-8.7331840">
        <ele>7.2</ele>
        <time>2021-05-16T09:30:56Z</time>
      </trkpt>
      <trkpt lat="41.2919060" lon="-8.7331720">
        <ele>7.2</ele>
        <time>2021-05-16T09:30:57Z</time>
      </trkpt>
      <trkpt lat="41.2918980" lon="-8.7331660">
        <ele>7.2</ele>
        <time>2021-05-16T09:30:58Z</time>
      </trkpt>
      <trkpt lat="41.2918940" lon="-8.7331590">
        <ele>7.2</ele>
        <time>2021-05-16T09:30:59Z</time>
      </trkpt>
      <trkpt lat="41.2918990" lon="-8.7331610">
        <ele>7.2</ele>
        <time>2021-05-16T09:31:00Z</time>
      </trkpt>
      <trkpt lat="41.2919180" lon="-8.7331760">
        <ele>7.1</ele>
        <time>2021-05-16T09:31:01Z</time>
      </trkpt>
      <trkpt lat="41.2919340" lon="-8.7331850">
        <ele>7.1</ele>
        <time>2021-05-16T09:31:02Z</time>
      </trkpt>
      <trkpt lat="41.2919500" lon="-8.7331880">
        <ele>7.1</ele>
        <time>2021-05-16T09:31:03Z</time>
      </trkpt>
      <trkpt lat="41.2919660" lon="-8.7331940">
        <ele>7.1</ele>
        <time>2021-05-16T09:31:04Z</time>
      </trkpt>
      <trkpt lat="41.2919790" lon="-8.7332010">
        <ele>7.0</ele>
        <time>2021-05-16T09:31:05Z</time>
      </trkpt>
      <trkpt lat="41.2919850" lon="-8.7332200">
        <ele>7.0</ele>
        <time>2021-05-16T09:31:06Z</time>
      </trkpt>
      <trkpt lat="41.2919970" lon="-8.7332320">
        <ele>7.0</ele>
        <time>2021-05-16T09:31:07Z</time>
      </trkpt>
      <trkpt lat="41.2920030" lon="-8.7332360">
        <ele>7.0</ele>
        <time>2021-05-16T09:31:08Z</time>
      </trkpt>
      <trkpt lat="41.2920270" lon="-8.7332420">
        <ele>6.9</ele>
        <time>2021-05-16T09:31:09Z</time>
      </trkpt>
      <trkpt lat="41.2920600" lon="-8.7332550">
        <ele>6.9</ele>
        <time>2021-05-16T09:31:10Z</time>
      </trkpt>
      <trkpt lat="41.2920670" lon="-8.7332610">
        <ele>6.8</ele>
        <time>2021-05-16T09:31:11Z</time>
      </trkpt>
      <trkpt lat="41.2920880" lon="-8.7332660">
        <ele>6.8</ele>
        <time>2021-05-16T09:31:12Z</time>
      </trkpt>
      <trkpt lat="41.2921000" lon="-8.7332690">
        <ele>6.8</ele>
        <time>2021-05-16T09:31:13Z</time>
      </trkpt>
      <trkpt lat="41.2921120" lon="-8.7332710">
        <ele>6.7</ele>
        <time>2021-05-16T09:31:14Z</time>
      </trkpt>
      <trkpt lat="41.2921230" lon="-8.7332820">
        <ele>6.7</ele>
        <time>2021-05-16T09:31:15Z</time>
      </trkpt>
      <trkpt lat="41.2921370" lon="-8.7332900">
        <ele>6.7</ele>
        <time>2021-05-16T09:31:16Z</time>
      </trkpt>
      <trkpt lat="41.2921480" lon="-8.7332990">
        <ele>6.7</ele>
        <time>2021-05-16T09:31:17Z</time>
      </trkpt>
      <trkpt lat="41.2921590" lon="-8.7333040">
        <ele>6.6</ele>
        <time>2021-05-16T09:31:18Z</time>
      </trkpt>
      <trkpt lat="41.2921640" lon="-8.7333080">
        <ele>6.6</ele>
        <time>2021-05-16T09:31:19Z</time>
      </trkpt>
      <trkpt lat="41.2921770" lon="-8.7333210">
        <ele>6.6</ele>
        <time>2021-05-16T09:31:20Z</time>
      </trkpt>
      <trkpt lat="41.2921870" lon="-8.7333280">
        <ele>6.6</ele>
        <time>2021-05-16T09:31:21Z</time>
      </trkpt>
      <trkpt lat="41.2921910" lon="-8.7333430">
        <ele>6.5</ele>
        <time>2021-05-16T09:31:22Z</time>
      </trkpt>
      <trkpt lat="41.2922020" lon="-8.7333500">
        <ele>6.5</ele>
        <time>2021-05-16T09:31:23Z</time>
      </trkpt>
      <trkpt lat="41.2922120" lon="-8.7333560">
        <ele>6.5</ele>
        <time>2021-05-16T09:31:24Z</time>
      </trkpt>
      <trkpt lat="41.2922100" lon="-8.7333580">
        <ele>6.5</ele>
        <time>2021-05-16T09:31:25Z</time>
      </trkpt>
      <trkpt lat="41.2922000" lon="-8.7333710">
        <ele>6.5</ele>
        <time>2021-05-16T09:31:26Z</time>
      </trkpt>
      <trkpt lat="41.2921950" lon="-8.7333730">
        <ele>6.4</ele>
        <time>2021-05-16T09:31:27Z</time>
      </trkpt>
      <trkpt lat="41.2921960" lon="-8.7333810">
        <ele>6.4</ele>
        <time>2021-05-16T09:31:28Z</time>
      </trkpt>
      <trkpt lat="41.2921950" lon="-8.7333830">
        <ele>6.4</ele>
        <time>2021-05-16T09:31:29Z</time>
      </trkpt>
      <trkpt lat="41.2922000" lon="-8.7333910">
        <ele>6.4</ele>
        <time>2021-05-16T09:31:30Z</time>
      </trkpt>
      <trkpt lat="41.2922060" lon="-8.7334020">
        <ele>6.4</ele>
        <time>2021-05-16T09:31:31Z</time>
      </trkpt>
      <trkpt lat="41.2922120" lon="-8.7334270">
        <ele>6.3</ele>
        <time>2021-05-16T09:31:32Z</time>
      </trkpt>
      <trkpt lat="41.2922210" lon="-8.7334390">
        <ele>6.3</ele>
        <time>2021-05-16T09:31:33Z</time>
      </trkpt>
      <trkpt lat="41.2922190" lon="-8.7334490">
        <ele>6.3</ele>
        <time>2021-05-16T09:31:34Z</time>
      </trkpt>
      <trkpt lat="41.2922220" lon="-8.7334550">
        <ele>6.3</ele>
        <time>2021-05-16T09:31:35Z</time>
      </trkpt>
      <trkpt lat="41.2922260" lon="-8.7334600">
        <ele>6.3</ele>
        <time>2021-05-16T09:31:36Z</time>
      </trkpt>
      <trkpt lat="41.2922350" lon="-8.7334670">
        <ele>6.3</ele>
        <time>2021-05-16T09:31:37Z</time>
      </trkpt>
      <trkpt lat="41.2922370" lon="-8.7334710">
        <ele>6.3</ele>
        <time>2021-05-16T09:31:38Z</time>
      </trkpt>
      <trkpt lat="41.2922390" lon="-8.7334780">
        <ele>6.2</ele>
        <time>2021-05-16T09:31:39Z</time>
      </trkpt>
      <trkpt lat="41.2922450" lon="-8.7334820">
        <ele>6.2</ele>
        <time>2021-05-16T09:31:40Z</time>
      </trkpt>
      <trkpt lat="41.2922500" lon="-8.7334900">
        <ele>6.2</ele>
        <time>2021-05-16T09:31:41Z</time>
      </trkpt>
      <trkpt lat="41.2922490" lon="-8.7334880">
        <ele>6.2</ele>
        <time>2021-05-16T09:31:42Z</time>
      </trkpt>
      <trkpt lat="41.2922550" lon="-8.7334890">
        <ele>6.2</ele>
        <time>2021-05-16T09:31:43Z</time>
      </trkpt>
      <trkpt lat="41.2922670" lon="-8.7334920">
        <ele>6.2</ele>
        <time>2021-05-16T09:31:44Z</time>
      </trkpt>
      <trkpt lat="41.2922730" lon="-8.7334940">
        <ele>6.2</ele>
        <time>2021-05-16T09:31:45Z</time>
      </trkpt>
      <trkpt lat="41.2922810" lon="-8.7334980">
        <ele>6.1</ele>
        <time>2021-05-16T09:31:46Z</time>
      </trkpt>
      <trkpt lat="41.2922850" lon="-8.7335030">
        <ele>6.1</ele>
        <time>2021-05-16T09:31:47Z</time>
      </trkpt>
      <trkpt lat="41.2922910" lon="-8.7335090">
        <ele>6.1</ele>
        <time>2021-05-16T09:31:48Z</time>
      </trkpt>
      <trkpt lat="41.2922980" lon="-8.7335160">
        <ele>6.1</ele>
        <time>2021-05-16T09:31:49Z</time>
      </trkpt>
      <trkpt lat="41.2923040" lon="-8.7335220">
        <ele>6.1</ele>
        <time>2021-05-16T09:31:50Z</time>
      </trkpt>
      <trkpt lat="41.2923110" lon="-8.7335280">
        <ele>6.1</ele>
        <time>2021-05-16T09:31:51Z</time>
      </trkpt>
      <trkpt lat="41.2923200" lon="-8.7335330">
        <ele>6.0</ele>
        <time>2021-05-16T09:31:52Z</time>
      </trkpt>
      <trkpt lat="41.2923290" lon="-8.7335300">
        <ele>6.0</ele>
        <time>2021-05-16T09:31:53Z</time>
      </trkpt>
      <trkpt lat="41.2923280" lon="-8.7335260">
        <ele>6.0</ele>
        <time>2021-05-16T09:31:54Z</time>
      </trkpt>
      <trkpt lat="41.2923230" lon="-8.7335270">
        <ele>6.0</ele>
        <time>2021-05-16T09:31:55Z</time>
      </trkpt>
      <trkpt lat="41.2923220" lon="-8.7335260">
        <ele>6.0</ele>
        <time>2021-05-16T09:31:56Z</time>
      </trkpt>
      <trkpt lat="41.2923270" lon="-8.7335240">
        <ele>6.0</ele>
        <time>2021-05-16T09:31:57Z</time>
      </trkpt>
      <trkpt lat="41.2923390" lon="-8.7335430">
        <ele>6.0</ele>
        <time>2021-05-16T09:31:58Z</time>
      </trkpt>
      <trkpt lat="41.2923530" lon="-8.7335630">
        <ele>5.9</ele>
        <time>2021-05-16T09:31:59Z</time>
      </trkpt>
      <trkpt lat="41.2923600" lon="-8.7335800">
        <ele>5.9</ele>
        <time>2021-05-16T09:32:00Z</time>
      </trkpt>
      <trkpt lat="41.2923760" lon="-8.7335950">
        <ele>5.8</ele>
        <time>2021-05-16T09:32:01Z</time>
      </trkpt>
      <trkpt lat="41.2923870" lon="-8.7336020">
        <ele>5.8</ele>
        <time>2021-05-16T09:32:02Z</time>
      </trkpt>
      <trkpt lat="41.2923980" lon="-8.7336080">
        <ele>5.8</ele>
        <time>2021-05-16T09:32:03Z</time>
      </trkpt>
      <trkpt lat="41.2924090" lon="-8.7336060">
        <ele>5.8</ele>
        <time>2021-05-16T09:32:04Z</time>
      </trkpt>
      <trkpt lat="41.2924130" lon="-8.7336190">
        <ele>5.7</ele>
        <time>2021-05-16T09:32:05Z</time>
      </trkpt>
      <trkpt lat="41.2924280" lon="-8.7336330">
        <ele>5.7</ele>
        <time>2021-05-16T09:32:06Z</time>
      </trkpt>
      <trkpt lat="41.2924590" lon="-8.7336470">
        <ele>5.7</ele>
        <time>2021-05-16T09:32:07Z</time>
      </trkpt>
      <trkpt lat="41.2924670" lon="-8.7336500">
        <ele>5.7</ele>
        <time>2021-05-16T09:32:08Z</time>
      </trkpt>
      <trkpt lat="41.2924840" lon="-8.7336510">
        <ele>5.6</ele>
        <time>2021-05-16T09:32:09Z</time>
      </trkpt>
      <trkpt lat="41.2925010" lon="-8.7336510">
        <ele>5.6</ele>
        <time>2021-05-16T09:32:10Z</time>
      </trkpt>
      <trkpt lat="41.2925080" lon="-8.7336540">
        <ele>5.6</ele>
        <time>2021-05-16T09:32:11Z</time>
      </trkpt>
      <trkpt lat="41.2925250" lon="-8.7336580">
        <ele>5.6</ele>
        <time>2021-05-16T09:32:12Z</time>
      </trkpt>
      <trkpt lat="41.2925270" lon="-8.7336630">
        <ele>5.6</ele>
        <time>2021-05-16T09:32:13Z</time>
      </trkpt>
      <trkpt lat="41.2925460" lon="-8.7336630">
        <ele>5.6</ele>
        <time>2021-05-16T09:32:14Z</time>
      </trkpt>
      <trkpt lat="41.2925550" lon="-8.7336590">
        <ele>5.5</ele>
        <time>2021-05-16T09:32:15Z</time>
      </trkpt>
      <trkpt lat="41.2925660" lon="-8.7336540">
        <ele>5.5</ele>
        <time>2021-05-16T09:32:16Z</time>
      </trkpt>
      <trkpt lat="41.2925860" lon="-8.7336730">
        <ele>5.5</ele>
        <time>2021-05-16T09:32:17Z</time>
      </trkpt>
      <trkpt lat="41.2926040" lon="-8.7336770">
        <ele>5.5</ele>
        <time>2021-05-16T09:32:18Z</time>
      </trkpt>
      <trkpt lat="41.2926190" lon="-8.7336840">
        <ele>5.5</ele>
        <time>2021-05-16T09:32:19Z</time>
      </trkpt>
      <trkpt lat="41.2926420" lon="-8.7336930">
        <ele>5.5</ele>
        <time>2021-05-16T09:32:20Z</time>
      </trkpt>
      <trkpt lat="41.2926520" lon="-8.7336980">
        <ele>5.5</ele>
        <time>2021-05-16T09:32:21Z</time>
      </trkpt>
      <trkpt lat="41.2926620" lon="-8.7337030">
        <ele>5.5</ele>
        <time>2021-05-16T09:32:22Z</time>
      </trkpt>
      <trkpt lat="41.2926750" lon="-8.7337070">
        <ele>5.5</ele>
        <time>2021-05-16T09:32:23Z</time>
      </trkpt>
      <trkpt lat="41.2926880" lon="-8.7337220">
        <ele>5.5</ele>
        <time>2021-05-16T09:32:24Z</time>
      </trkpt>
      <trkpt lat="41.2927020" lon="-8.7337370">
        <ele>5.5</ele>
        <time>2021-05-16T09:32:25Z</time>
      </trkpt>
      <trkpt lat="41.2927140" lon="-8.7337560">
        <ele>5.5</ele>
        <time>2021-05-16T09:32:26Z</time>
      </trkpt>
      <trkpt lat="41.2927220" lon="-8.7337740">
        <ele>5.5</ele>
        <time>2021-05-16T09:32:27Z</time>
      </trkpt>
      <trkpt lat="41.2927340" lon="-8.7337880">
        <ele>5.5</ele>
        <time>2021-05-16T09:32:28Z</time>
      </trkpt>
      <trkpt lat="41.2927340" lon="-8.7338090">
        <ele>5.5</ele>
        <time>2021-05-16T09:32:29Z</time>
      </trkpt>
      <trkpt lat="41.2927310" lon="-8.7338330">
        <ele>5.5</ele>
        <time>2021-05-16T09:32:30Z</time>
      </trkpt>
      <trkpt lat="41.2927250" lon="-8.7338590">
        <ele>5.5</ele>
        <time>2021-05-16T09:32:31Z</time>
      </trkpt>
      <trkpt lat="41.2927140" lon="-8.7338730">
        <ele>5.5</ele>
        <time>2021-05-16T09:32:32Z</time>
      </trkpt>
      <trkpt lat="41.2926910" lon="-8.7338970">
        <ele>5.5</ele>
        <time>2021-05-16T09:32:33Z</time>
      </trkpt>
      <trkpt lat="41.2926800" lon="-8.7339030">
        <ele>5.5</ele>
        <time>2021-05-16T09:32:34Z</time>
      </trkpt>
      <trkpt lat="41.2926710" lon="-8.7339150">
        <ele>5.5</ele>
        <time>2021-05-16T09:32:35Z</time>
      </trkpt>
      <trkpt lat="41.2926630" lon="-8.7339300">
        <ele>5.5</ele>
        <time>2021-05-16T09:32:36Z</time>
      </trkpt>
      <trkpt lat="41.2926620" lon="-8.7339450">
        <ele>5.5</ele>
        <time>2021-05-16T09:32:37Z</time>
      </trkpt>
      <trkpt lat="41.2926760" lon="-8.7339650">
        <ele>5.5</ele>
        <time>2021-05-16T09:32:38Z</time>
      </trkpt>
      <trkpt lat="41.2926810" lon="-8.7339840">
        <ele>5.6</ele>
        <time>2021-05-16T09:32:39Z</time>
      </trkpt>
      <trkpt lat="41.2926900" lon="-8.7339890">
        <ele>5.6</ele>
        <time>2021-05-16T09:32:40Z</time>
      </trkpt>
      <trkpt lat="41.2926990" lon="-8.7339940">
        <ele>5.6</ele>
        <time>2021-05-16T09:32:41Z</time>
      </trkpt>
      <trkpt lat="41.2927070" lon="-8.7339960">
        <ele>5.6</ele>
        <time>2021-05-16T09:32:42Z</time>
      </trkpt>
      <trkpt lat="41.2927250" lon="-8.7340020">
        <ele>5.6</ele>
        <time>2021-05-16T09:32:43Z</time>
      </trkpt>
      <trkpt lat="41.2927340" lon="-8.7340040">
        <ele>5.6</ele>
        <time>2021-05-16T09:32:44Z</time>
      </trkpt>
      <trkpt lat="41.2927430" lon="-8.7340070">
        <ele>5.6</ele>
        <time>2021-05-16T09:32:45Z</time>
      </trkpt>
      <trkpt lat="41.2927620" lon="-8.7340190">
        <ele>5.6</ele>
        <time>2021-05-16T09:32:46Z</time>
      </trkpt>
      <trkpt lat="41.2927700" lon="-8.7340250">
        <ele>5.6</ele>
        <time>2021-05-16T09:32:47Z</time>
      </trkpt>
      <trkpt lat="41.2927790" lon="-8.7340320">
        <ele>5.6</ele>
        <time>2021-05-16T09:32:48Z</time>
      </trkpt>
      <trkpt lat="41.2927900" lon="-8.7340370">
        <ele>5.6</ele>
        <time>2021-05-16T09:32:49Z</time>
      </trkpt>
      <trkpt lat="41.2927930" lon="-8.7340580">
        <ele>5.6</ele>
        <time>2021-05-16T09:32:50Z</time>
      </trkpt>
      <trkpt lat="41.2928010" lon="-8.7340610">
        <ele>5.6</ele>
        <time>2021-05-16T09:32:51Z</time>
      </trkpt>
      <trkpt lat="41.2928110" lon="-8.7340700">
        <ele>5.6</ele>
        <time>2021-05-16T09:32:52Z</time>
      </trkpt>
      <trkpt lat="41.2928160" lon="-8.7340850">
        <ele>5.7</ele>
        <time>2021-05-16T09:32:53Z</time>
      </trkpt>
      <trkpt lat="41.2928230" lon="-8.7340880">
        <ele>5.7</ele>
        <time>2021-05-16T09:32:54Z</time>
      </trkpt>
      <trkpt lat="41.2928390" lon="-8.7341050">
        <ele>5.7</ele>
        <time>2021-05-16T09:32:55Z</time>
      </trkpt>
      <trkpt lat="41.2928520" lon="-8.7341160">
        <ele>5.7</ele>
        <time>2021-05-16T09:32:56Z</time>
      </trkpt>
      <trkpt lat="41.2928610" lon="-8.7341220">
        <ele>5.7</ele>
        <time>2021-05-16T09:32:57Z</time>
      </trkpt>
      <trkpt lat="41.2928710" lon="-8.7341240">
        <ele>5.7</ele>
        <time>2021-05-16T09:32:58Z</time>
      </trkpt>
      <trkpt lat="41.2928830" lon="-8.7341340">
        <ele>5.7</ele>
        <time>2021-05-16T09:32:59Z</time>
      </trkpt>
      <trkpt lat="41.2928900" lon="-8.7341440">
        <ele>5.7</ele>
        <time>2021-05-16T09:33:00Z</time>
      </trkpt>
      <trkpt lat="41.2929000" lon="-8.7341560">
        <ele>5.7</ele>
        <time>2021-05-16T09:33:01Z</time>
      </trkpt>
      <trkpt lat="41.2929060" lon="-8.7341680">
        <ele>5.7</ele>
        <time>2021-05-16T09:33:02Z</time>
      </trkpt>
      <trkpt lat="41.2929160" lon="-8.7341850">
        <ele>5.8</ele>
        <time>2021-05-16T09:33:03Z</time>
      </trkpt>
      <trkpt lat="41.2929180" lon="-8.7341880">
        <ele>5.8</ele>
        <time>2021-05-16T09:33:04Z</time>
      </trkpt>
      <trkpt lat="41.2929310" lon="-8.7341930">
        <ele>5.8</ele>
        <time>2021-05-16T09:33:05Z</time>
      </trkpt>
      <trkpt lat="41.2929540" lon="-8.7342020">
        <ele>5.8</ele>
        <time>2021-05-16T09:33:06Z</time>
      </trkpt>
      <trkpt lat="41.2929640" lon="-8.7342030">
        <ele>5.8</ele>
        <time>2021-05-16T09:33:07Z</time>
      </trkpt>
      <trkpt lat="41.2929750" lon="-8.7342050">
        <ele>5.8</ele>
        <time>2021-05-16T09:33:08Z</time>
      </trkpt>
      <trkpt lat="41.2929930" lon="-8.7342080">
        <ele>5.8</ele>
        <time>2021-05-16T09:33:09Z</time>
      </trkpt>
      <trkpt lat="41.2930100" lon="-8.7342020">
        <ele>5.8</ele>
        <time>2021-05-16T09:33:10Z</time>
      </trkpt>
      <trkpt lat="41.2930270" lon="-8.7342040">
        <ele>5.8</ele>
        <time>2021-05-16T09:33:11Z</time>
      </trkpt>
      <trkpt lat="41.2930400" lon="-8.7342040">
        <ele>5.8</ele>
        <time>2021-05-16T09:33:12Z</time>
      </trkpt>
      <trkpt lat="41.2930570" lon="-8.7341970">
        <ele>5.9</ele>
        <time>2021-05-16T09:33:13Z</time>
      </trkpt>
      <trkpt lat="41.2930750" lon="-8.7341970">
        <ele>5.9</ele>
        <time>2021-05-16T09:33:14Z</time>
      </trkpt>
      <trkpt lat="41.2930910" lon="-8.7342000">
        <ele>5.9</ele>
        <time>2021-05-16T09:33:15Z</time>
      </trkpt>
      <trkpt lat="41.2931060" lon="-8.7342130">
        <ele>5.9</ele>
        <time>2021-05-16T09:33:16Z</time>
      </trkpt>
      <trkpt lat="41.2931200" lon="-8.7342190">
        <ele>5.9</ele>
        <time>2021-05-16T09:33:17Z</time>
      </trkpt>
      <trkpt lat="41.2931350" lon="-8.7342180">
        <ele>5.9</ele>
        <time>2021-05-16T09:33:18Z</time>
      </trkpt>
      <trkpt lat="41.2931590" lon="-8.7342220">
        <ele>6.0</ele>
        <time>2021-05-16T09:33:19Z</time>
      </trkpt>
      <trkpt lat="41.2931650" lon="-8.7342240">
        <ele>6.0</ele>
        <time>2021-05-16T09:33:20Z</time>
      </trkpt>
      <trkpt lat="41.2931720" lon="-8.7342250">
        <ele>6.0</ele>
        <time>2021-05-16T09:33:21Z</time>
      </trkpt>
      <trkpt lat="41.2931810" lon="-8.7342250">
        <ele>6.0</ele>
        <time>2021-05-16T09:33:22Z</time>
      </trkpt>
      <trkpt lat="41.2931850" lon="-8.7342300">
        <ele>6.0</ele>
        <time>2021-05-16T09:33:23Z</time>
      </trkpt>
      <trkpt lat="41.2931950" lon="-8.7342460">
        <ele>6.0</ele>
        <time>2021-05-16T09:33:24Z</time>
      </trkpt>
      <trkpt lat="41.2932130" lon="-8.7342770">
        <ele>6.1</ele>
        <time>2021-05-16T09:33:25Z</time>
      </trkpt>
      <trkpt lat="41.2932160" lon="-8.7342900">
        <ele>6.1</ele>
        <time>2021-05-16T09:33:26Z</time>
      </trkpt>
      <trkpt lat="41.2932210" lon="-8.7343150">
        <ele>6.2</ele>
        <time>2021-05-16T09:33:27Z</time>
      </trkpt>
      <trkpt lat="41.2932240" lon="-8.7343350">
        <ele>6.2</ele>
        <time>2021-05-16T09:33:28Z</time>
      </trkpt>
      <trkpt lat="41.2932350" lon="-8.7343520">
        <ele>6.2</ele>
        <time>2021-05-16T09:33:29Z</time>
      </trkpt>
      <trkpt lat="41.2932420" lon="-8.7343730">
        <ele>6.2</ele>
        <time>2021-05-16T09:33:30Z</time>
      </trkpt>
      <trkpt lat="41.2932500" lon="-8.7343950">
        <ele>6.3</ele>
        <time>2021-05-16T09:33:31Z</time>
      </trkpt>
      <trkpt lat="41.2932560" lon="-8.7344120">
        <ele>6.3</ele>
        <time>2021-05-16T09:33:32Z</time>
      </trkpt>
      <trkpt lat="41.2932760" lon="-8.7344450">
        <ele>6.4</ele>
        <time>2021-05-16T09:33:33Z</time>
      </trkpt>
      <trkpt lat="41.2932860" lon="-8.7344600">
        <ele>7.2</ele>
        <time>2021-05-16T09:33:34Z</time>
      </trkpt>
      <trkpt lat="41.2932920" lon="-8.7344760">
        <ele>7.2</ele>
        <time>2021-05-16T09:33:35Z</time>
      </trkpt>
      <trkpt lat="41.2933030" lon="-8.7345020">
        <ele>7.3</ele>
        <time>2021-05-16T09:33:36Z</time>
      </trkpt>
      <trkpt lat="41.2933070" lon="-8.7345140">
        <ele>7.3</ele>
        <time>2021-05-16T09:33:37Z</time>
      </trkpt>
      <trkpt lat="41.2933100" lon="-8.7345260">
        <ele>7.3</ele>
        <time>2021-05-16T09:33:38Z</time>
      </trkpt>
      <trkpt lat="41.2933180" lon="-8.7345440">
        <ele>7.3</ele>
        <time>2021-05-16T09:33:39Z</time>
      </trkpt>
      <trkpt lat="41.2933230" lon="-8.7345600">
        <ele>7.3</ele>
        <time>2021-05-16T09:33:40Z</time>
      </trkpt>
      <trkpt lat="41.2933290" lon="-8.7345760">
        <ele>7.4</ele>
        <time>2021-05-16T09:33:41Z</time>
      </trkpt>
      <trkpt lat="41.2933340" lon="-8.7345960">
        <ele>7.4</ele>
        <time>2021-05-16T09:33:42Z</time>
      </trkpt>
      <trkpt lat="41.2933380" lon="-8.7346150">
        <ele>7.4</ele>
        <time>2021-05-16T09:33:43Z</time>
      </trkpt>
      <trkpt lat="41.2933440" lon="-8.7346300">
        <ele>7.4</ele>
        <time>2021-05-16T09:33:44Z</time>
      </trkpt>
      <trkpt lat="41.2933510" lon="-8.7346440">
        <ele>7.4</ele>
        <time>2021-05-16T09:33:45Z</time>
      </trkpt>
      <trkpt lat="41.2933570" lon="-8.7346530">
        <ele>7.4</ele>
        <time>2021-05-16T09:33:46Z</time>
      </trkpt>
      <trkpt lat="41.2933620" lon="-8.7346660">
        <ele>7.5</ele>
        <time>2021-05-16T09:33:47Z</time>
      </trkpt>
      <trkpt lat="41.2933620" lon="-8.7346710">
        <ele>7.5</ele>
        <time>2021-05-16T09:33:48Z</time>
      </trkpt>
      <trkpt lat="41.2933630" lon="-8.7346630">
        <ele>7.5</ele>
        <time>2021-05-16T09:33:49Z</time>
      </trkpt>
      <trkpt lat="41.2933740" lon="-8.7346760">
        <ele>7.5</ele>
        <time>2021-05-16T09:33:50Z</time>
      </trkpt>
      <trkpt lat="41.2933730" lon="-8.7346740">
        <ele>7.5</ele>
        <time>2021-05-16T09:33:51Z</time>
      </trkpt>
      <trkpt lat="41.2933770" lon="-8.7346690">
        <ele>7.5</ele>
        <time>2021-05-16T09:33:52Z</time>
      </trkpt>
      <trkpt lat="41.2933900" lon="-8.7346570">
        <ele>7.5</ele>
        <time>2021-05-16T09:33:53Z</time>
      </trkpt>
      <trkpt lat="41.2933940" lon="-8.7346450">
        <ele>7.5</ele>
        <time>2021-05-16T09:33:54Z</time>
      </trkpt>
      <trkpt lat="41.2933980" lon="-8.7346320">
        <ele>7.5</ele>
        <time>2021-05-16T09:33:55Z</time>
      </trkpt>
      <trkpt lat="41.2934070" lon="-8.7346310">
        <ele>7.6</ele>
        <time>2021-05-16T09:33:56Z</time>
      </trkpt>
      <trkpt lat="41.2934220" lon="-8.7346390">
        <ele>7.6</ele>
        <time>2021-05-16T09:33:57Z</time>
      </trkpt>
      <trkpt lat="41.2934340" lon="-8.7346490">
        <ele>7.6</ele>
        <time>2021-05-16T09:33:58Z</time>
      </trkpt>
      <trkpt lat="41.2934510" lon="-8.7346660">
        <ele>7.6</ele>
        <time>2021-05-16T09:33:59Z</time>
      </trkpt>
      <trkpt lat="41.2934710" lon="-8.7346700">
        <ele>7.6</ele>
        <time>2021-05-16T09:34:00Z</time>
      </trkpt>
      <trkpt lat="41.2934850" lon="-8.7346820">
        <ele>7.7</ele>
        <time>2021-05-16T09:34:01Z</time>
      </trkpt>
      <trkpt lat="41.2934970" lon="-8.7346910">
        <ele>7.7</ele>
        <time>2021-05-16T09:34:02Z</time>
      </trkpt>
      <trkpt lat="41.2935100" lon="-8.7347050">
        <ele>7.7</ele>
        <time>2021-05-16T09:34:03Z</time>
      </trkpt>
      <trkpt lat="41.2935210" lon="-8.7347190">
        <ele>7.7</ele>
        <time>2021-05-16T09:34:04Z</time>
      </trkpt>
      <trkpt lat="41.2935350" lon="-8.7347290">
        <ele>7.7</ele>
        <time>2021-05-16T09:34:05Z</time>
      </trkpt>
      <trkpt lat="41.2935500" lon="-8.7347510">
        <ele>7.8</ele>
        <time>2021-05-16T09:34:06Z</time>
      </trkpt>
      <trkpt lat="41.2935570" lon="-8.7347590">
        <ele>7.8</ele>
        <time>2021-05-16T09:34:07Z</time>
      </trkpt>
      <trkpt lat="41.2935630" lon="-8.7347660">
        <ele>7.8</ele>
        <time>2021-05-16T09:34:08Z</time>
      </trkpt>
      <trkpt lat="41.2935820" lon="-8.7347790">
        <ele>7.8</ele>
        <time>2021-05-16T09:34:09Z</time>
      </trkpt>
      <trkpt lat="41.2935900" lon="-8.7347870">
        <ele>7.8</ele>
        <time>2021-05-16T09:34:10Z</time>
      </trkpt>
      <trkpt lat="41.2935990" lon="-8.7347940">
        <ele>7.8</ele>
        <time>2021-05-16T09:34:12Z</time>
      </trkpt>
      <trkpt lat="41.2936070" lon="-8.7348010">
        <ele>7.8</ele>
        <time>2021-05-16T09:34:13Z</time>
      </trkpt>
      <trkpt lat="41.2936150" lon="-8.7348090">
        <ele>7.8</ele>
        <time>2021-05-16T09:34:14Z</time>
      </trkpt>
      <trkpt lat="41.2936230" lon="-8.7348160">
        <ele>7.9</ele>
        <time>2021-05-16T09:34:15Z</time>
      </trkpt>
      <trkpt lat="41.2936400" lon="-8.7348280">
        <ele>7.9</ele>
        <time>2021-05-16T09:34:16Z</time>
      </trkpt>
      <trkpt lat="41.2936480" lon="-8.7348340">
        <ele>7.9</ele>
        <time>2021-05-16T09:34:17Z</time>
      </trkpt>
      <trkpt lat="41.2936560" lon="-8.7348390">
        <ele>7.9</ele>
        <time>2021-05-16T09:34:18Z</time>
      </trkpt>
      <trkpt lat="41.2936650" lon="-8.7348370">
        <ele>7.9</ele>
        <time>2021-05-16T09:34:19Z</time>
      </trkpt>
      <trkpt lat="41.2936750" lon="-8.7348450">
        <ele>7.9</ele>
        <time>2021-05-16T09:34:20Z</time>
      </trkpt>
      <trkpt lat="41.2936920" lon="-8.7348450">
        <ele>7.9</ele>
        <time>2021-05-16T09:34:21Z</time>
      </trkpt>
      <trkpt lat="41.2937190" lon="-8.7348660">
        <ele>7.9</ele>
        <time>2021-05-16T09:34:22Z</time>
      </trkpt>
      <trkpt lat="41.2937270" lon="-8.7348690">
        <ele>8.0</ele>
        <time>2021-05-16T09:34:23Z</time>
      </trkpt>
      <trkpt lat="41.2937550" lon="-8.7348770">
        <ele>8.0</ele>
        <time>2021-05-16T09:34:24Z</time>
      </trkpt>
      <trkpt lat="41.2937640" lon="-8.7348800">
        <ele>8.0</ele>
        <time>2021-05-16T09:34:25Z</time>
      </trkpt>
      <trkpt lat="41.2937760" lon="-8.7348950">
        <ele>8.0</ele>
        <time>2021-05-16T09:34:26Z</time>
      </trkpt>
      <trkpt lat="41.2937840" lon="-8.7349140">
        <ele>8.0</ele>
        <time>2021-05-16T09:34:27Z</time>
      </trkpt>
      <trkpt lat="41.2937960" lon="-8.7349210">
        <ele>8.0</ele>
        <time>2021-05-16T09:34:28Z</time>
      </trkpt>
      <trkpt lat="41.2938060" lon="-8.7349220">
        <ele>8.0</ele>
        <time>2021-05-16T09:34:29Z</time>
      </trkpt>
      <trkpt lat="41.2938160" lon="-8.7349270">
        <ele>8.0</ele>
        <time>2021-05-16T09:34:30Z</time>
      </trkpt>
      <trkpt lat="41.2938380" lon="-8.7349380">
        <ele>8.0</ele>
        <time>2021-05-16T09:34:31Z</time>
      </trkpt>
      <trkpt lat="41.2938470" lon="-8.7349410">
        <ele>8.0</ele>
        <time>2021-05-16T09:34:32Z</time>
      </trkpt>
      <trkpt lat="41.2938550" lon="-8.7349450">
        <ele>8.0</ele>
        <time>2021-05-16T09:34:33Z</time>
      </trkpt>
      <trkpt lat="41.2938600" lon="-8.7349680">
        <ele>8.0</ele>
        <time>2021-05-16T09:34:34Z</time>
      </trkpt>
      <trkpt lat="41.2938590" lon="-8.7349820">
        <ele>8.0</ele>
        <time>2021-05-16T09:34:35Z</time>
      </trkpt>
      <trkpt lat="41.2938570" lon="-8.7349950">
        <ele>8.0</ele>
        <time>2021-05-16T09:34:36Z</time>
      </trkpt>
      <trkpt lat="41.2938580" lon="-8.7350200">
        <ele>8.0</ele>
        <time>2021-05-16T09:34:37Z</time>
      </trkpt>
      <trkpt lat="41.2938600" lon="-8.7350400">
        <ele>8.0</ele>
        <time>2021-05-16T09:34:38Z</time>
      </trkpt>
      <trkpt lat="41.2938680" lon="-8.7350690">
        <ele>8.0</ele>
        <time>2021-05-16T09:34:39Z</time>
      </trkpt>
      <trkpt lat="41.2938760" lon="-8.7350800">
        <ele>8.0</ele>
        <time>2021-05-16T09:34:40Z</time>
      </trkpt>
      <trkpt lat="41.2938840" lon="-8.7350900">
        <ele>8.0</ele>
        <time>2021-05-16T09:34:41Z</time>
      </trkpt>
      <trkpt lat="41.2938970" lon="-8.7351060">
        <ele>8.0</ele>
        <time>2021-05-16T09:34:42Z</time>
      </trkpt>
      <trkpt lat="41.2939100" lon="-8.7351160">
        <ele>7.9</ele>
        <time>2021-05-16T09:34:43Z</time>
      </trkpt>
      <trkpt lat="41.2939280" lon="-8.7351200">
        <ele>7.9</ele>
        <time>2021-05-16T09:34:44Z</time>
      </trkpt>
      <trkpt lat="41.2939320" lon="-8.7351380">
        <ele>7.9</ele>
        <time>2021-05-16T09:34:45Z</time>
      </trkpt>
      <trkpt lat="41.2939480" lon="-8.7351480">
        <ele>7.9</ele>
        <time>2021-05-16T09:34:46Z</time>
      </trkpt>
      <trkpt lat="41.2939560" lon="-8.7351500">
        <ele>7.9</ele>
        <time>2021-05-16T09:34:47Z</time>
      </trkpt>
      <trkpt lat="41.2939630" lon="-8.7351610">
        <ele>7.9</ele>
        <time>2021-05-16T09:34:48Z</time>
      </trkpt>
      <trkpt lat="41.2939720" lon="-8.7351660">
        <ele>7.9</ele>
        <time>2021-05-16T09:34:49Z</time>
      </trkpt>
      <trkpt lat="41.2939860" lon="-8.7351830">
        <ele>7.9</ele>
        <time>2021-05-16T09:34:50Z</time>
      </trkpt>
      <trkpt lat="41.2940040" lon="-8.7352020">
        <ele>7.9</ele>
        <time>2021-05-16T09:34:51Z</time>
      </trkpt>
      <trkpt lat="41.2940100" lon="-8.7352110">
        <ele>7.9</ele>
        <time>2021-05-16T09:34:52Z</time>
      </trkpt>
      <trkpt lat="41.2940170" lon="-8.7352200">
        <ele>7.9</ele>
        <time>2021-05-16T09:34:53Z</time>
      </trkpt>
      <trkpt lat="41.2940330" lon="-8.7352400">
        <ele>7.9</ele>
        <time>2021-05-16T09:34:54Z</time>
      </trkpt>
      <trkpt lat="41.2940390" lon="-8.7352490">
        <ele>7.9</ele>
        <time>2021-05-16T09:34:55Z</time>
      </trkpt>
      <trkpt lat="41.2940450" lon="-8.7352580">
        <ele>7.9</ele>
        <time>2021-05-16T09:34:56Z</time>
      </trkpt>
      <trkpt lat="41.2940510" lon="-8.7352760">
        <ele>7.9</ele>
        <time>2021-05-16T09:34:57Z</time>
      </trkpt>
      <trkpt lat="41.2940630" lon="-8.7352910">
        <ele>7.9</ele>
        <time>2021-05-16T09:34:58Z</time>
      </trkpt>
      <trkpt lat="41.2940770" lon="-8.7353140">
        <ele>7.8</ele>
        <time>2021-05-16T09:34:59Z</time>
      </trkpt>
      <trkpt lat="41.2940830" lon="-8.7353210">
        <ele>7.8</ele>
        <time>2021-05-16T09:35:00Z</time>
      </trkpt>
      <trkpt lat="41.2940880" lon="-8.7353290">
        <ele>7.8</ele>
        <time>2021-05-16T09:35:01Z</time>
      </trkpt>
      <trkpt lat="41.2941020" lon="-8.7353480">
        <ele>7.8</ele>
        <time>2021-05-16T09:35:02Z</time>
      </trkpt>
      <trkpt lat="41.2941080" lon="-8.7353610">
        <ele>7.8</ele>
        <time>2021-05-16T09:35:03Z</time>
      </trkpt>
      <trkpt lat="41.2941200" lon="-8.7353710">
        <ele>7.8</ele>
        <time>2021-05-16T09:35:04Z</time>
      </trkpt>
      <trkpt lat="41.2941330" lon="-8.7353760">
        <ele>7.8</ele>
        <time>2021-05-16T09:35:05Z</time>
      </trkpt>
      <trkpt lat="41.2941390" lon="-8.7353830">
        <ele>7.8</ele>
        <time>2021-05-16T09:35:06Z</time>
      </trkpt>
      <trkpt lat="41.2941480" lon="-8.7353830">
        <ele>7.8</ele>
        <time>2021-05-16T09:35:07Z</time>
      </trkpt>
      <trkpt lat="41.2941600" lon="-8.7353930">
        <ele>7.8</ele>
        <time>2021-05-16T09:35:08Z</time>
      </trkpt>
      <trkpt lat="41.2941680" lon="-8.7353970">
        <ele>7.8</ele>
        <time>2021-05-16T09:35:09Z</time>
      </trkpt>
      <trkpt lat="41.2941790" lon="-8.7353990">
        <ele>7.8</ele>
        <time>2021-05-16T09:35:10Z</time>
      </trkpt>
      <trkpt lat="41.2941920" lon="-8.7354120">
        <ele>7.8</ele>
        <time>2021-05-16T09:35:11Z</time>
      </trkpt>
      <trkpt lat="41.2941960" lon="-8.7354140">
        <ele>7.8</ele>
        <time>2021-05-16T09:35:12Z</time>
      </trkpt>
      <trkpt lat="41.2942060" lon="-8.7354200">
        <ele>7.8</ele>
        <time>2021-05-16T09:35:13Z</time>
      </trkpt>
      <trkpt lat="41.2942180" lon="-8.7354280">
        <ele>7.8</ele>
        <time>2021-05-16T09:35:14Z</time>
      </trkpt>
      <trkpt lat="41.2942360" lon="-8.7354370">
        <ele>7.8</ele>
        <time>2021-05-16T09:35:15Z</time>
      </trkpt>
      <trkpt lat="41.2942510" lon="-8.7354500">
        <ele>7.8</ele>
        <time>2021-05-16T09:35:16Z</time>
      </trkpt>
      <trkpt lat="41.2942660" lon="-8.7354570">
        <ele>7.8</ele>
        <time>2021-05-16T09:35:17Z</time>
      </trkpt>
      <trkpt lat="41.2942780" lon="-8.7354590">
        <ele>7.8</ele>
        <time>2021-05-16T09:35:18Z</time>
      </trkpt>
      <trkpt lat="41.2942920" lon="-8.7354680">
        <ele>7.8</ele>
        <time>2021-05-16T09:35:19Z</time>
      </trkpt>
      <trkpt lat="41.2943070" lon="-8.7354710">
        <ele>7.8</ele>
        <time>2021-05-16T09:35:20Z</time>
      </trkpt>
      <trkpt lat="41.2943190" lon="-8.7354760">
        <ele>7.8</ele>
        <time>2021-05-16T09:35:21Z</time>
      </trkpt>
      <trkpt lat="41.2943320" lon="-8.7354840">
        <ele>7.8</ele>
        <time>2021-05-16T09:35:22Z</time>
      </trkpt>
      <trkpt lat="41.2943470" lon="-8.7354920">
        <ele>7.8</ele>
        <time>2021-05-16T09:35:23Z</time>
      </trkpt>
      <trkpt lat="41.2943600" lon="-8.7354990">
        <ele>7.8</ele>
        <time>2021-05-16T09:35:24Z</time>
      </trkpt>
      <trkpt lat="41.2943750" lon="-8.7355020">
        <ele>7.8</ele>
        <time>2021-05-16T09:35:25Z</time>
      </trkpt>
      <trkpt lat="41.2943910" lon="-8.7355070">
        <ele>7.8</ele>
        <time>2021-05-16T09:35:26Z</time>
      </trkpt>
      <trkpt lat="41.2944050" lon="-8.7355140">
        <ele>7.8</ele>
        <time>2021-05-16T09:35:27Z</time>
      </trkpt>
      <trkpt lat="41.2944200" lon="-8.7355170">
        <ele>7.8</ele>
        <time>2021-05-16T09:35:28Z</time>
      </trkpt>
      <trkpt lat="41.2944360" lon="-8.7355230">
        <ele>7.8</ele>
        <time>2021-05-16T09:35:29Z</time>
      </trkpt>
      <trkpt lat="41.2944500" lon="-8.7355280">
        <ele>7.8</ele>
        <time>2021-05-16T09:35:30Z</time>
      </trkpt>
      <trkpt lat="41.2944650" lon="-8.7355300">
        <ele>7.8</ele>
        <time>2021-05-16T09:35:31Z</time>
      </trkpt>
      <trkpt lat="41.2944790" lon="-8.7355420">
        <ele>7.8</ele>
        <time>2021-05-16T09:35:32Z</time>
      </trkpt>
      <trkpt lat="41.2944950" lon="-8.7355450">
        <ele>7.8</ele>
        <time>2021-05-16T09:35:33Z</time>
      </trkpt>
      <trkpt lat="41.2945080" lon="-8.7355500">
        <ele>7.8</ele>
        <time>2021-05-16T09:35:34Z</time>
      </trkpt>
      <trkpt lat="41.2945210" lon="-8.7355540">
        <ele>7.8</ele>
        <time>2021-05-16T09:35:35Z</time>
      </trkpt>
      <trkpt lat="41.2945350" lon="-8.7355580">
        <ele>7.8</ele>
        <time>2021-05-16T09:35:36Z</time>
      </trkpt>
      <trkpt lat="41.2945480" lon="-8.7355670">
        <ele>7.8</ele>
        <time>2021-05-16T09:35:37Z</time>
      </trkpt>
      <trkpt lat="41.2945630" lon="-8.7355750">
        <ele>7.8</ele>
        <time>2021-05-16T09:35:38Z</time>
      </trkpt>
      <trkpt lat="41.2945930" lon="-8.7355890">
        <ele>7.8</ele>
        <time>2021-05-16T09:35:39Z</time>
      </trkpt>
      <trkpt lat="41.2946080" lon="-8.7355930">
        <ele>7.8</ele>
        <time>2021-05-16T09:35:40Z</time>
      </trkpt>
      <trkpt lat="41.2946210" lon="-8.7355930">
        <ele>7.8</ele>
        <time>2021-05-16T09:35:41Z</time>
      </trkpt>
      <trkpt lat="41.2946340" lon="-8.7356030">
        <ele>7.8</ele>
        <time>2021-05-16T09:35:42Z</time>
      </trkpt>
      <trkpt lat="41.2946480" lon="-8.7356050">
        <ele>7.8</ele>
        <time>2021-05-16T09:35:43Z</time>
      </trkpt>
      <trkpt lat="41.2946610" lon="-8.7356110">
        <ele>7.8</ele>
        <time>2021-05-16T09:35:44Z</time>
      </trkpt>
      <trkpt lat="41.2946770" lon="-8.7356150">
        <ele>7.8</ele>
        <time>2021-05-16T09:35:45Z</time>
      </trkpt>
      <trkpt lat="41.2946920" lon="-8.7356180">
        <ele>7.9</ele>
        <time>2021-05-16T09:35:46Z</time>
      </trkpt>
      <trkpt lat="41.2947060" lon="-8.7356220">
        <ele>7.9</ele>
        <time>2021-05-16T09:35:47Z</time>
      </trkpt>
      <trkpt lat="41.2947210" lon="-8.7356270">
        <ele>7.9</ele>
        <time>2021-05-16T09:35:48Z</time>
      </trkpt>
      <trkpt lat="41.2947340" lon="-8.7356330">
        <ele>7.9</ele>
        <time>2021-05-16T09:35:49Z</time>
      </trkpt>
      <trkpt lat="41.2947470" lon="-8.7356330">
        <ele>7.9</ele>
        <time>2021-05-16T09:35:50Z</time>
      </trkpt>
      <trkpt lat="41.2947620" lon="-8.7356310">
        <ele>7.9</ele>
        <time>2021-05-16T09:35:51Z</time>
      </trkpt>
      <trkpt lat="41.2947750" lon="-8.7356410">
        <ele>7.9</ele>
        <time>2021-05-16T09:35:53Z</time>
      </trkpt>
      <trkpt lat="41.2947870" lon="-8.7356450">
        <ele>7.9</ele>
        <time>2021-05-16T09:35:54Z</time>
      </trkpt>
      <trkpt lat="41.2947970" lon="-8.7356600">
        <ele>7.9</ele>
        <time>2021-05-16T09:35:55Z</time>
      </trkpt>
      <trkpt lat="41.2948120" lon="-8.7356700">
        <ele>7.9</ele>
        <time>2021-05-16T09:35:56Z</time>
      </trkpt>
      <trkpt lat="41.2948240" lon="-8.7356830">
        <ele>7.9</ele>
        <time>2021-05-16T09:35:57Z</time>
      </trkpt>
      <trkpt lat="41.2948380" lon="-8.7356940">
        <ele>7.9</ele>
        <time>2021-05-16T09:35:58Z</time>
      </trkpt>
      <trkpt lat="41.2948490" lon="-8.7357090">
        <ele>7.9</ele>
        <time>2021-05-16T09:35:59Z</time>
      </trkpt>
      <trkpt lat="41.2948610" lon="-8.7357220">
        <ele>7.9</ele>
        <time>2021-05-16T09:36:00Z</time>
      </trkpt>
      <trkpt lat="41.2948720" lon="-8.7357340">
        <ele>7.9</ele>
        <time>2021-05-16T09:36:01Z</time>
      </trkpt>
      <trkpt lat="41.2948870" lon="-8.7357360">
        <ele>7.9</ele>
        <time>2021-05-16T09:36:02Z</time>
      </trkpt>
      <trkpt lat="41.2948980" lon="-8.7357480">
        <ele>7.9</ele>
        <time>2021-05-16T09:36:03Z</time>
      </trkpt>
      <trkpt lat="41.2949090" lon="-8.7357580">
        <ele>7.9</ele>
        <time>2021-05-16T09:36:04Z</time>
      </trkpt>
      <trkpt lat="41.2949270" lon="-8.7357720">
        <ele>8.0</ele>
        <time>2021-05-16T09:36:05Z</time>
      </trkpt>
      <trkpt lat="41.2949350" lon="-8.7357770">
        <ele>8.0</ele>
        <time>2021-05-16T09:36:06Z</time>
      </trkpt>
      <trkpt lat="41.2949440" lon="-8.7357820">
        <ele>8.0</ele>
        <time>2021-05-16T09:36:07Z</time>
      </trkpt>
      <trkpt lat="41.2949680" lon="-8.7357890">
        <ele>8.0</ele>
        <time>2021-05-16T09:36:08Z</time>
      </trkpt>
      <trkpt lat="41.2949760" lon="-8.7357910">
        <ele>8.0</ele>
        <time>2021-05-16T09:36:09Z</time>
      </trkpt>
      <trkpt lat="41.2949850" lon="-8.7357940">
        <ele>8.0</ele>
        <time>2021-05-16T09:36:10Z</time>
      </trkpt>
      <trkpt lat="41.2949960" lon="-8.7358010">
        <ele>8.0</ele>
        <time>2021-05-16T09:36:11Z</time>
      </trkpt>
      <trkpt lat="41.2950120" lon="-8.7358080">
        <ele>8.0</ele>
        <time>2021-05-16T09:36:12Z</time>
      </trkpt>
      <trkpt lat="41.2950250" lon="-8.7358150">
        <ele>8.0</ele>
        <time>2021-05-16T09:36:13Z</time>
      </trkpt>
      <trkpt lat="41.2950360" lon="-8.7358280">
        <ele>8.0</ele>
        <time>2021-05-16T09:36:14Z</time>
      </trkpt>
      <trkpt lat="41.2950490" lon="-8.7358390">
        <ele>8.0</ele>
        <time>2021-05-16T09:36:15Z</time>
      </trkpt>
      <trkpt lat="41.2950630" lon="-8.7358450">
        <ele>8.0</ele>
        <time>2021-05-16T09:36:16Z</time>
      </trkpt>
      <trkpt lat="41.2950840" lon="-8.7358560">
        <ele>8.0</ele>
        <time>2021-05-16T09:36:17Z</time>
      </trkpt>
      <trkpt lat="41.2950920" lon="-8.7358600">
        <ele>8.0</ele>
        <time>2021-05-16T09:36:18Z</time>
      </trkpt>
      <trkpt lat="41.2951000" lon="-8.7358630">
        <ele>8.0</ele>
        <time>2021-05-16T09:36:19Z</time>
      </trkpt>
      <trkpt lat="41.2951200" lon="-8.7358770">
        <ele>8.0</ele>
        <time>2021-05-16T09:36:20Z</time>
      </trkpt>
      <trkpt lat="41.2951280" lon="-8.7358840">
        <ele>7.9</ele>
        <time>2021-05-16T09:36:21Z</time>
      </trkpt>
      <trkpt lat="41.2951360" lon="-8.7358900">
        <ele>7.9</ele>
        <time>2021-05-16T09:36:22Z</time>
      </trkpt>
      <trkpt lat="41.2951550" lon="-8.7359000">
        <ele>7.9</ele>
        <time>2021-05-16T09:36:23Z</time>
      </trkpt>
      <trkpt lat="41.2951640" lon="-8.7359030">
        <ele>7.9</ele>
        <time>2021-05-16T09:36:24Z</time>
      </trkpt>
      <trkpt lat="41.2951720" lon="-8.7359060">
        <ele>7.9</ele>
        <time>2021-05-16T09:36:25Z</time>
      </trkpt>
      <trkpt lat="41.2951900" lon="-8.7359180">
        <ele>7.9</ele>
        <time>2021-05-16T09:36:26Z</time>
      </trkpt>
      <trkpt lat="41.2951980" lon="-8.7359260">
        <ele>7.8</ele>
        <time>2021-05-16T09:36:27Z</time>
      </trkpt>
      <trkpt lat="41.2952050" lon="-8.7359350">
        <ele>7.8</ele>
        <time>2021-05-16T09:36:28Z</time>
      </trkpt>
      <trkpt lat="41.2952160" lon="-8.7359500">
        <ele>7.8</ele>
        <time>2021-05-16T09:36:29Z</time>
      </trkpt>
      <trkpt lat="41.2952250" lon="-8.7359690">
        <ele>7.7</ele>
        <time>2021-05-16T09:36:30Z</time>
      </trkpt>
      <trkpt lat="41.2952290" lon="-8.7359800">
        <ele>7.7</ele>
        <time>2021-05-16T09:36:31Z</time>
      </trkpt>
      <trkpt lat="41.2952340" lon="-8.7360010">
        <ele>7.7</ele>
        <time>2021-05-16T09:36:32Z</time>
      </trkpt>
      <trkpt lat="41.2952290" lon="-8.7360090">
        <ele>7.7</ele>
        <time>2021-05-16T09:36:33Z</time>
      </trkpt>
      <trkpt lat="41.2952400" lon="-8.7360280">
        <ele>7.6</ele>
        <time>2021-05-16T09:36:34Z</time>
      </trkpt>
      <trkpt lat="41.2952440" lon="-8.7360260">
        <ele>7.6</ele>
        <time>2021-05-16T09:36:35Z</time>
      </trkpt>
      <trkpt lat="41.2952430" lon="-8.7360190">
        <ele>7.6</ele>
        <time>2021-05-16T09:36:36Z</time>
      </trkpt>
      <trkpt lat="41.2952540" lon="-8.7360090">
        <ele>7.6</ele>
        <time>2021-05-16T09:36:37Z</time>
      </trkpt>
      <trkpt lat="41.2952560" lon="-8.7360090">
        <ele>7.6</ele>
        <time>2021-05-16T09:36:38Z</time>
      </trkpt>
      <trkpt lat="41.2952540" lon="-8.7360090">
        <ele>7.6</ele>
        <time>2021-05-16T09:36:39Z</time>
      </trkpt>
      <trkpt lat="41.2952550" lon="-8.7360070">
        <ele>7.6</ele>
        <time>2021-05-16T09:36:40Z</time>
      </trkpt>
      <trkpt lat="41.2952540" lon="-8.7360060">
        <ele>7.6</ele>
        <time>2021-05-16T09:36:41Z</time>
      </trkpt>
      <trkpt lat="41.2952550" lon="-8.7360060">
        <ele>7.6</ele>
        <time>2021-05-16T09:36:42Z</time>
      </trkpt>
      <trkpt lat="41.2952570" lon="-8.7360050">
        <ele>7.6</ele>
        <time>2021-05-16T09:36:43Z</time>
      </trkpt>
      <trkpt lat="41.2952540" lon="-8.7360060">
        <ele>7.6</ele>
        <time>2021-05-16T09:36:44Z</time>
      </trkpt>
      <trkpt lat="41.2952530" lon="-8.7360050">
        <ele>7.6</ele>
        <time>2021-05-16T09:36:45Z</time>
      </trkpt>
      <trkpt lat="41.2952530" lon="-8.7360050">
        <ele>7.6</ele>
        <time>2021-05-16T09:36:46Z</time>
      </trkpt>
      <trkpt lat="41.2952540" lon="-8.7360050">
        <ele>7.6</ele>
        <time>2021-05-16T09:36:47Z</time>
      </trkpt>
      <trkpt lat="41.2952530" lon="-8.7360050">
        <ele>7.6</ele>
        <time>2021-05-16T09:36:48Z</time>
      </trkpt>
      <trkpt lat="41.2952540" lon="-8.7360050">
        <ele>7.5</ele>
        <time>2021-05-16T09:36:49Z</time>
      </trkpt>
      <trkpt lat="41.2952530" lon="-8.7360060">
        <ele>7.5</ele>
        <time>2021-05-16T09:36:50Z</time>
      </trkpt>
      <trkpt lat="41.2952510" lon="-8.7360060">
        <ele>7.5</ele>
        <time>2021-05-16T09:36:51Z</time>
      </trkpt>
      <trkpt lat="41.2952490" lon="-8.7360060">
        <ele>7.5</ele>
        <time>2021-05-16T09:36:52Z</time>
      </trkpt>
      <trkpt lat="41.2952480" lon="-8.7360060">
        <ele>7.5</ele>
        <time>2021-05-16T09:36:53Z</time>
      </trkpt>
      <trkpt lat="41.2952470" lon="-8.7360020">
        <ele>7.5</ele>
        <time>2021-05-16T09:36:54Z</time>
      </trkpt>
      <trkpt lat="41.2952460" lon="-8.7360050">
        <ele>7.5</ele>
        <time>2021-05-16T09:36:55Z</time>
      </trkpt>
      <trkpt lat="41.2952490" lon="-8.7360050">
        <ele>7.5</ele>
        <time>2021-05-16T09:36:56Z</time>
      </trkpt>
      <trkpt lat="41.2952500" lon="-8.7360050">
        <ele>7.5</ele>
        <time>2021-05-16T09:36:57Z</time>
      </trkpt>
      <trkpt lat="41.2952480" lon="-8.7360050">
        <ele>7.5</ele>
        <time>2021-05-16T09:36:58Z</time>
      </trkpt>
      <trkpt lat="41.2952480" lon="-8.7360020">
        <ele>7.5</ele>
        <time>2021-05-16T09:36:59Z</time>
      </trkpt>
      <trkpt lat="41.2952500" lon="-8.7360020">
        <ele>7.5</ele>
        <time>2021-05-16T09:37:00Z</time>
      </trkpt>
      <trkpt lat="41.2952470" lon="-8.7360010">
        <ele>7.5</ele>
        <time>2021-05-16T09:37:01Z</time>
      </trkpt>
      <trkpt lat="41.2952480" lon="-8.7360030">
        <ele>7.5</ele>
        <time>2021-05-16T09:37:02Z</time>
      </trkpt>
      <trkpt lat="41.2952480" lon="-8.7360050">
        <ele>7.5</ele>
        <time>2021-05-16T09:37:03Z</time>
      </trkpt>
      <trkpt lat="41.2952510" lon="-8.7360040">
        <ele>7.5</ele>
        <time>2021-05-16T09:37:04Z</time>
      </trkpt>
      <trkpt lat="41.2952510" lon="-8.7360030">
        <ele>7.5</ele>
        <time>2021-05-16T09:37:05Z</time>
      </trkpt>
      <trkpt lat="41.2952460" lon="-8.7360050">
        <ele>7.5</ele>
        <time>2021-05-16T09:37:06Z</time>
      </trkpt>
      <trkpt lat="41.2952300" lon="-8.7360090">
        <ele>7.4</ele>
        <time>2021-05-16T09:37:07Z</time>
      </trkpt>
      <trkpt lat="41.2952280" lon="-8.7360240">
        <ele>7.4</ele>
        <time>2021-05-16T09:37:08Z</time>
      </trkpt>
      <trkpt lat="41.2952410" lon="-8.7360330">
        <ele>7.4</ele>
        <time>2021-05-16T09:37:09Z</time>
      </trkpt>
      <trkpt lat="41.2952430" lon="-8.7360340">
        <ele>7.4</ele>
        <time>2021-05-16T09:37:10Z</time>
      </trkpt>
      <trkpt lat="41.2952460" lon="-8.7360360">
        <ele>7.4</ele>
        <time>2021-05-16T09:37:11Z</time>
      </trkpt>
      <trkpt lat="41.2952480" lon="-8.7360380">
        <ele>7.4</ele>
        <time>2021-05-16T09:37:12Z</time>
      </trkpt>
      <trkpt lat="41.2952510" lon="-8.7360390">
        <ele>7.4</ele>
        <time>2021-05-16T09:37:13Z</time>
      </trkpt>
      <trkpt lat="41.2952540" lon="-8.7360410">
        <ele>7.4</ele>
        <time>2021-05-16T09:37:14Z</time>
      </trkpt>
      <trkpt lat="41.2952560" lon="-8.7360430">
        <ele>7.4</ele>
        <time>2021-05-16T09:37:15Z</time>
      </trkpt>
      <trkpt lat="41.2952590" lon="-8.7360450">
        <ele>7.4</ele>
        <time>2021-05-16T09:37:16Z</time>
      </trkpt>
      <trkpt lat="41.2952610" lon="-8.7360460">
        <ele>7.4</ele>
        <time>2021-05-16T09:37:17Z</time>
      </trkpt>
      <trkpt lat="41.2952640" lon="-8.7360480">
        <ele>7.3</ele>
        <time>2021-05-16T09:37:18Z</time>
      </trkpt>
      <trkpt lat="41.2952830" lon="-8.7360570">
        <ele>7.3</ele>
        <time>2021-05-16T09:37:19Z</time>
      </trkpt>
      <trkpt lat="41.2952920" lon="-8.7360600">
        <ele>7.3</ele>
        <time>2021-05-16T09:37:20Z</time>
      </trkpt>
      <trkpt lat="41.2953020" lon="-8.7360640">
        <ele>7.3</ele>
        <time>2021-05-16T09:37:21Z</time>
      </trkpt>
      <trkpt lat="41.2953210" lon="-8.7360550">
        <ele>7.3</ele>
        <time>2021-05-16T09:37:22Z</time>
      </trkpt>
      <trkpt lat="41.2953290" lon="-8.7360600">
        <ele>7.2</ele>
        <time>2021-05-16T09:37:23Z</time>
      </trkpt>
      <trkpt lat="41.2953410" lon="-8.7360530">
        <ele>7.2</ele>
        <time>2021-05-16T09:37:24Z</time>
      </trkpt>
      <trkpt lat="41.2953550" lon="-8.7360570">
        <ele>7.2</ele>
        <time>2021-05-16T09:37:25Z</time>
      </trkpt>
      <trkpt lat="41.2953650" lon="-8.7360600">
        <ele>7.2</ele>
        <time>2021-05-16T09:37:26Z</time>
      </trkpt>
      <trkpt lat="41.2953810" lon="-8.7360620">
        <ele>7.2</ele>
        <time>2021-05-16T09:37:27Z</time>
      </trkpt>
      <trkpt lat="41.2953920" lon="-8.7360660">
        <ele>7.2</ele>
        <time>2021-05-16T09:37:28Z</time>
      </trkpt>
      <trkpt lat="41.2954040" lon="-8.7360650">
        <ele>7.2</ele>
        <time>2021-05-16T09:37:29Z</time>
      </trkpt>
      <trkpt lat="41.2954170" lon="-8.7360740">
        <ele>7.1</ele>
        <time>2021-05-16T09:37:30Z</time>
      </trkpt>
      <trkpt lat="41.2954260" lon="-8.7360770">
        <ele>7.1</ele>
        <time>2021-05-16T09:37:31Z</time>
      </trkpt>
      <trkpt lat="41.2954420" lon="-8.7360790">
        <ele>7.1</ele>
        <time>2021-05-16T09:37:32Z</time>
      </trkpt>
      <trkpt lat="41.2954480" lon="-8.7360870">
        <ele>7.1</ele>
        <time>2021-05-16T09:37:33Z</time>
      </trkpt>
      <trkpt lat="41.2954520" lon="-8.7360930">
        <ele>7.1</ele>
        <time>2021-05-16T09:37:34Z</time>
      </trkpt>
      <trkpt lat="41.2954610" lon="-8.7361080">
        <ele>7.1</ele>
        <time>2021-05-16T09:37:35Z</time>
      </trkpt>
      <trkpt lat="41.2954760" lon="-8.7361170">
        <ele>7.1</ele>
        <time>2021-05-16T09:37:36Z</time>
      </trkpt>
      <trkpt lat="41.2954900" lon="-8.7361220">
        <ele>7.1</ele>
        <time>2021-05-16T09:37:37Z</time>
      </trkpt>
      <trkpt lat="41.2955020" lon="-8.7361180">
        <ele>7.1</ele>
        <time>2021-05-16T09:37:38Z</time>
      </trkpt>
      <trkpt lat="41.2955020" lon="-8.7361090">
        <ele>7.0</ele>
        <time>2021-05-16T09:37:39Z</time>
      </trkpt>
      <trkpt lat="41.2955010" lon="-8.7360860">
        <ele>7.0</ele>
        <time>2021-05-16T09:37:40Z</time>
      </trkpt>
      <trkpt lat="41.2955020" lon="-8.7360670">
        <ele>7.0</ele>
        <time>2021-05-16T09:37:41Z</time>
      </trkpt>
      <trkpt lat="41.2955000" lon="-8.7360470">
        <ele>7.0</ele>
        <time>2021-05-16T09:37:42Z</time>
      </trkpt>
      <trkpt lat="41.2954960" lon="-8.7360300">
        <ele>7.0</ele>
        <time>2021-05-16T09:37:43Z</time>
      </trkpt>
      <trkpt lat="41.2954990" lon="-8.7360040">
        <ele>6.9</ele>
        <time>2021-05-16T09:37:44Z</time>
      </trkpt>
      <trkpt lat="41.2955020" lon="-8.7359910">
        <ele>6.9</ele>
        <time>2021-05-16T09:37:45Z</time>
      </trkpt>
      <trkpt lat="41.2955040" lon="-8.7359790">
        <ele>6.9</ele>
        <time>2021-05-16T09:37:46Z</time>
      </trkpt>
      <trkpt lat="41.2955040" lon="-8.7359630">
        <ele>6.9</ele>
        <time>2021-05-16T09:37:47Z</time>
      </trkpt>
      <trkpt lat="41.2955060" lon="-8.7359490">
        <ele>6.9</ele>
        <time>2021-05-16T09:37:48Z</time>
      </trkpt>
      <trkpt lat="41.2955060" lon="-8.7359370">
        <ele>6.9</ele>
        <time>2021-05-16T09:37:49Z</time>
      </trkpt>
      <trkpt lat="41.2955050" lon="-8.7359200">
        <ele>6.9</ele>
        <time>2021-05-16T09:37:50Z</time>
      </trkpt>
      <trkpt lat="41.2955060" lon="-8.7359100">
        <ele>6.9</ele>
        <time>2021-05-16T09:37:51Z</time>
      </trkpt>
      <trkpt lat="41.2955070" lon="-8.7358960">
        <ele>6.9</ele>
        <time>2021-05-16T09:37:52Z</time>
      </trkpt>
      <trkpt lat="41.2955070" lon="-8.7358680">
        <ele>6.8</ele>
        <time>2021-05-16T09:37:53Z</time>
      </trkpt>
      <trkpt lat="41.2955100" lon="-8.7358580">
        <ele>6.8</ele>
        <time>2021-05-16T09:37:54Z</time>
      </trkpt>
      <trkpt lat="41.2955130" lon="-8.7358580">
        <ele>6.8</ele>
        <time>2021-05-16T09:37:55Z</time>
      </trkpt>
      <trkpt lat="41.2955150" lon="-8.7358590">
        <ele>6.8</ele>
        <time>2021-05-16T09:37:56Z</time>
      </trkpt>
      <trkpt lat="41.2955150" lon="-8.7358630">
        <ele>6.8</ele>
        <time>2021-05-16T09:37:57Z</time>
      </trkpt>
      <trkpt lat="41.2955160" lon="-8.7358620">
        <ele>6.8</ele>
        <time>2021-05-16T09:37:58Z</time>
      </trkpt>
      <trkpt lat="41.2955160" lon="-8.7358620">
        <ele>6.8</ele>
        <time>2021-05-16T09:37:59Z</time>
      </trkpt>
      <trkpt lat="41.2955170" lon="-8.7358540">
        <ele>6.8</ele>
        <time>2021-05-16T09:38:00Z</time>
      </trkpt>
      <trkpt lat="41.2955210" lon="-8.7358540">
        <ele>6.8</ele>
        <time>2021-05-16T09:38:01Z</time>
      </trkpt>
      <trkpt lat="41.2955180" lon="-8.7358570">
        <ele>6.8</ele>
        <time>2021-05-16T09:38:02Z</time>
      </trkpt>
      <trkpt lat="41.2955220" lon="-8.7358570">
        <ele>6.8</ele>
        <time>2021-05-16T09:38:03Z</time>
      </trkpt>
      <trkpt lat="41.2955210" lon="-8.7358600">
        <ele>6.8</ele>
        <time>2021-05-16T09:38:04Z</time>
      </trkpt>
      <trkpt lat="41.2955190" lon="-8.7358640">
        <ele>6.8</ele>
        <time>2021-05-16T09:38:05Z</time>
      </trkpt>
      <trkpt lat="41.2955150" lon="-8.7358670">
        <ele>6.8</ele>
        <time>2021-05-16T09:38:06Z</time>
      </trkpt>
      <trkpt lat="41.2955150" lon="-8.7358710">
        <ele>6.8</ele>
        <time>2021-05-16T09:38:07Z</time>
      </trkpt>
      <trkpt lat="41.2955140" lon="-8.7358830">
        <ele>6.8</ele>
        <time>2021-05-16T09:38:08Z</time>
      </trkpt>
      <trkpt lat="41.2955230" lon="-8.7358990">
        <ele>6.8</ele>
        <time>2021-05-16T09:38:09Z</time>
      </trkpt>
      <trkpt lat="41.2955460" lon="-8.7359280">
        <ele>6.8</ele>
        <time>2021-05-16T09:38:10Z</time>
      </trkpt>
      <trkpt lat="41.2955580" lon="-8.7359350">
        <ele>6.7</ele>
        <time>2021-05-16T09:38:11Z</time>
      </trkpt>
      <trkpt lat="41.2955730" lon="-8.7359430">
        <ele>6.7</ele>
        <time>2021-05-16T09:38:12Z</time>
      </trkpt>
      <trkpt lat="41.2955870" lon="-8.7359430">
        <ele>6.7</ele>
        <time>2021-05-16T09:38:13Z</time>
      </trkpt>
      <trkpt lat="41.2956020" lon="-8.7359450">
        <ele>6.7</ele>
        <time>2021-05-16T09:38:14Z</time>
      </trkpt>
      <trkpt lat="41.2956140" lon="-8.7359460">
        <ele>6.7</ele>
        <time>2021-05-16T09:38:15Z</time>
      </trkpt>
      <trkpt lat="41.2956240" lon="-8.7359500">
        <ele>6.7</ele>
        <time>2021-05-16T09:38:16Z</time>
      </trkpt>
      <trkpt lat="41.2956410" lon="-8.7359540">
        <ele>6.7</ele>
        <time>2021-05-16T09:38:17Z</time>
      </trkpt>
      <trkpt lat="41.2956560" lon="-8.7359570">
        <ele>6.7</ele>
        <time>2021-05-16T09:38:18Z</time>
      </trkpt>
      <trkpt lat="41.2956720" lon="-8.7359670">
        <ele>6.7</ele>
        <time>2021-05-16T09:38:19Z</time>
      </trkpt>
      <trkpt lat="41.2956850" lon="-8.7359700">
        <ele>6.7</ele>
        <time>2021-05-16T09:38:20Z</time>
      </trkpt>
      <trkpt lat="41.2957000" lon="-8.7359780">
        <ele>6.7</ele>
        <time>2021-05-16T09:38:21Z</time>
      </trkpt>
      <trkpt lat="41.2957170" lon="-8.7359820">
        <ele>6.6</ele>
        <time>2021-05-16T09:38:22Z</time>
      </trkpt>
      <trkpt lat="41.2957340" lon="-8.7359900">
        <ele>6.6</ele>
        <time>2021-05-16T09:38:23Z</time>
      </trkpt>
      <trkpt lat="41.2957480" lon="-8.7359970">
        <ele>6.6</ele>
        <time>2021-05-16T09:38:24Z</time>
      </trkpt>
      <trkpt lat="41.2957630" lon="-8.7360010">
        <ele>6.6</ele>
        <time>2021-05-16T09:38:25Z</time>
      </trkpt>
      <trkpt lat="41.2957780" lon="-8.7360030">
        <ele>6.6</ele>
        <time>2021-05-16T09:38:26Z</time>
      </trkpt>
      <trkpt lat="41.2957900" lon="-8.7360130">
        <ele>6.6</ele>
        <time>2021-05-16T09:38:27Z</time>
      </trkpt>
      <trkpt lat="41.2958030" lon="-8.7360220">
        <ele>6.6</ele>
        <time>2021-05-16T09:38:28Z</time>
      </trkpt>
      <trkpt lat="41.2958170" lon="-8.7360290">
        <ele>6.6</ele>
        <time>2021-05-16T09:38:29Z</time>
      </trkpt>
      <trkpt lat="41.2958270" lon="-8.7360380">
        <ele>6.6</ele>
        <time>2021-05-16T09:38:30Z</time>
      </trkpt>
      <trkpt lat="41.2958420" lon="-8.7360440">
        <ele>6.6</ele>
        <time>2021-05-16T09:38:31Z</time>
      </trkpt>
      <trkpt lat="41.2958530" lon="-8.7360580">
        <ele>6.6</ele>
        <time>2021-05-16T09:38:32Z</time>
      </trkpt>
      <trkpt lat="41.2958630" lon="-8.7360720">
        <ele>6.6</ele>
        <time>2021-05-16T09:38:33Z</time>
      </trkpt>
      <trkpt lat="41.2958770" lon="-8.7360840">
        <ele>6.6</ele>
        <time>2021-05-16T09:38:34Z</time>
      </trkpt>
      <trkpt lat="41.2958900" lon="-8.7360960">
        <ele>6.7</ele>
        <time>2021-05-16T09:38:35Z</time>
      </trkpt>
      <trkpt lat="41.2958980" lon="-8.7361110">
        <ele>6.7</ele>
        <time>2021-05-16T09:38:36Z</time>
      </trkpt>
      <trkpt lat="41.2959120" lon="-8.7361220">
        <ele>6.7</ele>
        <time>2021-05-16T09:38:37Z</time>
      </trkpt>
      <trkpt lat="41.2959240" lon="-8.7361370">
        <ele>6.7</ele>
        <time>2021-05-16T09:38:38Z</time>
      </trkpt>
      <trkpt lat="41.2959370" lon="-8.7361490">
        <ele>6.7</ele>
        <time>2021-05-16T09:38:39Z</time>
      </trkpt>
      <trkpt lat="41.2959500" lon="-8.7361600">
        <ele>6.7</ele>
        <time>2021-05-16T09:38:40Z</time>
      </trkpt>
      <trkpt lat="41.2959610" lon="-8.7361700">
        <ele>6.8</ele>
        <time>2021-05-16T09:38:41Z</time>
      </trkpt>
      <trkpt lat="41.2959740" lon="-8.7361840">
        <ele>6.8</ele>
        <time>2021-05-16T09:38:42Z</time>
      </trkpt>
      <trkpt lat="41.2959860" lon="-8.7361940">
        <ele>6.8</ele>
        <time>2021-05-16T09:38:43Z</time>
      </trkpt>
      <trkpt lat="41.2959980" lon="-8.7362040">
        <ele>6.9</ele>
        <time>2021-05-16T09:38:44Z</time>
      </trkpt>
      <trkpt lat="41.2960130" lon="-8.7362050">
        <ele>6.9</ele>
        <time>2021-05-16T09:38:45Z</time>
      </trkpt>
      <trkpt lat="41.2960290" lon="-8.7362070">
        <ele>6.9</ele>
        <time>2021-05-16T09:38:46Z</time>
      </trkpt>
      <trkpt lat="41.2960420" lon="-8.7362070">
        <ele>7.0</ele>
        <time>2021-05-16T09:38:47Z</time>
      </trkpt>
      <trkpt lat="41.2960650" lon="-8.7362030">
        <ele>7.0</ele>
        <time>2021-05-16T09:38:48Z</time>
      </trkpt>
      <trkpt lat="41.2960730" lon="-8.7362010">
        <ele>7.0</ele>
        <time>2021-05-16T09:38:49Z</time>
      </trkpt>
      <trkpt lat="41.2960820" lon="-8.7361990">
        <ele>7.1</ele>
        <time>2021-05-16T09:38:50Z</time>
      </trkpt>
      <trkpt lat="41.2961030" lon="-8.7361930">
        <ele>7.1</ele>
        <time>2021-05-16T09:38:51Z</time>
      </trkpt>
      <trkpt lat="41.2961130" lon="-8.7361910">
        <ele>7.1</ele>
        <time>2021-05-16T09:38:52Z</time>
      </trkpt>
      <trkpt lat="41.2961220" lon="-8.7361890">
        <ele>7.2</ele>
        <time>2021-05-16T09:38:53Z</time>
      </trkpt>
      <trkpt lat="41.2961430" lon="-8.7361910">
        <ele>7.2</ele>
        <time>2021-05-16T09:38:54Z</time>
      </trkpt>
      <trkpt lat="41.2961520" lon="-8.7361910">
        <ele>7.2</ele>
        <time>2021-05-16T09:38:55Z</time>
      </trkpt>
      <trkpt lat="41.2961620" lon="-8.7361920">
        <ele>7.3</ele>
        <time>2021-05-16T09:38:56Z</time>
      </trkpt>
      <trkpt lat="41.2961770" lon="-8.7361910">
        <ele>7.3</ele>
        <time>2021-05-16T09:38:57Z</time>
      </trkpt>
      <trkpt lat="41.2961920" lon="-8.7361900">
        <ele>7.3</ele>
        <time>2021-05-16T09:38:58Z</time>
      </trkpt>
      <trkpt lat="41.2962080" lon="-8.7361900">
        <ele>7.4</ele>
        <time>2021-05-16T09:38:59Z</time>
      </trkpt>
      <trkpt lat="41.2962210" lon="-8.7361930">
        <ele>7.4</ele>
        <time>2021-05-16T09:39:00Z</time>
      </trkpt>
      <trkpt lat="41.2962360" lon="-8.7361960">
        <ele>7.4</ele>
        <time>2021-05-16T09:39:01Z</time>
      </trkpt>
      <trkpt lat="41.2962500" lon="-8.7361980">
        <ele>7.5</ele>
        <time>2021-05-16T09:39:02Z</time>
      </trkpt>
      <trkpt lat="41.2962650" lon="-8.7362020">
        <ele>7.5</ele>
        <time>2021-05-16T09:39:03Z</time>
      </trkpt>
      <trkpt lat="41.2962770" lon="-8.7362030">
        <ele>7.5</ele>
        <time>2021-05-16T09:39:04Z</time>
      </trkpt>
      <trkpt lat="41.2962930" lon="-8.7362090">
        <ele>7.6</ele>
        <time>2021-05-16T09:39:05Z</time>
      </trkpt>
      <trkpt lat="41.2963060" lon="-8.7362120">
        <ele>7.6</ele>
        <time>2021-05-16T09:39:06Z</time>
      </trkpt>
      <trkpt lat="41.2963210" lon="-8.7362160">
        <ele>7.6</ele>
        <time>2021-05-16T09:39:07Z</time>
      </trkpt>
      <trkpt lat="41.2963330" lon="-8.7362240">
        <ele>7.6</ele>
        <time>2021-05-16T09:39:08Z</time>
      </trkpt>
      <trkpt lat="41.2963470" lon="-8.7362290">
        <ele>7.7</ele>
        <time>2021-05-16T09:39:09Z</time>
      </trkpt>
      <trkpt lat="41.2963630" lon="-8.7362300">
        <ele>7.7</ele>
        <time>2021-05-16T09:39:10Z</time>
      </trkpt>
      <trkpt lat="41.2963760" lon="-8.7362360">
        <ele>7.7</ele>
        <time>2021-05-16T09:39:11Z</time>
      </trkpt>
      <trkpt lat="41.2963910" lon="-8.7362410">
        <ele>7.7</ele>
        <time>2021-05-16T09:39:12Z</time>
      </trkpt>
      <trkpt lat="41.2964050" lon="-8.7362420">
        <ele>7.7</ele>
        <time>2021-05-16T09:39:13Z</time>
      </trkpt>
      <trkpt lat="41.2964200" lon="-8.7362500">
        <ele>7.8</ele>
        <time>2021-05-16T09:39:14Z</time>
      </trkpt>
      <trkpt lat="41.2964320" lon="-8.7362540">
        <ele>7.8</ele>
        <time>2021-05-16T09:39:15Z</time>
      </trkpt>
      <trkpt lat="41.2964460" lon="-8.7362600">
        <ele>7.8</ele>
        <time>2021-05-16T09:39:16Z</time>
      </trkpt>
      <trkpt lat="41.2964590" lon="-8.7362670">
        <ele>7.8</ele>
        <time>2021-05-16T09:39:17Z</time>
      </trkpt>
      <trkpt lat="41.2964740" lon="-8.7362690">
        <ele>7.8</ele>
        <time>2021-05-16T09:39:18Z</time>
      </trkpt>
      <trkpt lat="41.2964870" lon="-8.7362760">
        <ele>7.8</ele>
        <time>2021-05-16T09:39:19Z</time>
      </trkpt>
      <trkpt lat="41.2965030" lon="-8.7362820">
        <ele>7.8</ele>
        <time>2021-05-16T09:39:20Z</time>
      </trkpt>
      <trkpt lat="41.2965170" lon="-8.7362850">
        <ele>7.9</ele>
        <time>2021-05-16T09:39:21Z</time>
      </trkpt>
      <trkpt lat="41.2965320" lon="-8.7362910">
        <ele>7.9</ele>
        <time>2021-05-16T09:39:22Z</time>
      </trkpt>
      <trkpt lat="41.2965520" lon="-8.7362980">
        <ele>7.9</ele>
        <time>2021-05-16T09:39:23Z</time>
      </trkpt>
      <trkpt lat="41.2965600" lon="-8.7363030">
        <ele>7.9</ele>
        <time>2021-05-16T09:39:24Z</time>
      </trkpt>
      <trkpt lat="41.2965690" lon="-8.7363070">
        <ele>7.9</ele>
        <time>2021-05-16T09:39:25Z</time>
      </trkpt>
      <trkpt lat="41.2965830" lon="-8.7363100">
        <ele>7.9</ele>
        <time>2021-05-16T09:39:26Z</time>
      </trkpt>
      <trkpt lat="41.2965970" lon="-8.7363140">
        <ele>7.9</ele>
        <time>2021-05-16T09:39:27Z</time>
      </trkpt>
      <trkpt lat="41.2966110" lon="-8.7363170">
        <ele>7.9</ele>
        <time>2021-05-16T09:39:28Z</time>
      </trkpt>
      <trkpt lat="41.2966250" lon="-8.7363200">
        <ele>7.9</ele>
        <time>2021-05-16T09:39:29Z</time>
      </trkpt>
      <trkpt lat="41.2966390" lon="-8.7363270">
        <ele>7.9</ele>
        <time>2021-05-16T09:39:30Z</time>
      </trkpt>
      <trkpt lat="41.2966520" lon="-8.7363330">
        <ele>7.9</ele>
        <time>2021-05-16T09:39:31Z</time>
      </trkpt>
      <trkpt lat="41.2966650" lon="-8.7363350">
        <ele>7.9</ele>
        <time>2021-05-16T09:39:32Z</time>
      </trkpt>
      <trkpt lat="41.2966790" lon="-8.7363420">
        <ele>7.9</ele>
        <time>2021-05-16T09:39:33Z</time>
      </trkpt>
      <trkpt lat="41.2966910" lon="-8.7363430">
        <ele>7.9</ele>
        <time>2021-05-16T09:39:34Z</time>
      </trkpt>
      <trkpt lat="41.2967070" lon="-8.7363480">
        <ele>7.9</ele>
        <time>2021-05-16T09:39:35Z</time>
      </trkpt>
      <trkpt lat="41.2967190" lon="-8.7363510">
        <ele>7.9</ele>
        <time>2021-05-16T09:39:36Z</time>
      </trkpt>
      <trkpt lat="41.2967340" lon="-8.7363550">
        <ele>7.9</ele>
        <time>2021-05-16T09:39:37Z</time>
      </trkpt>
      <trkpt lat="41.2967550" lon="-8.7363650">
        <ele>7.8</ele>
        <time>2021-05-16T09:39:38Z</time>
      </trkpt>
      <trkpt lat="41.2967640" lon="-8.7363690">
        <ele>7.8</ele>
        <time>2021-05-16T09:39:39Z</time>
      </trkpt>
      <trkpt lat="41.2967720" lon="-8.7363720">
        <ele>7.8</ele>
        <time>2021-05-16T09:39:40Z</time>
      </trkpt>
      <trkpt lat="41.2967870" lon="-8.7363710">
        <ele>7.8</ele>
        <time>2021-05-16T09:39:41Z</time>
      </trkpt>
      <trkpt lat="41.2967990" lon="-8.7363790">
        <ele>7.8</ele>
        <time>2021-05-16T09:39:42Z</time>
      </trkpt>
      <trkpt lat="41.2968200" lon="-8.7363860">
        <ele>7.8</ele>
        <time>2021-05-16T09:39:43Z</time>
      </trkpt>
      <trkpt lat="41.2968270" lon="-8.7363920">
        <ele>7.8</ele>
        <time>2021-05-16T09:39:44Z</time>
      </trkpt>
      <trkpt lat="41.2968340" lon="-8.7363990">
        <ele>7.8</ele>
        <time>2021-05-16T09:39:45Z</time>
      </trkpt>
      <trkpt lat="41.2968480" lon="-8.7364090">
        <ele>7.8</ele>
        <time>2021-05-16T09:39:46Z</time>
      </trkpt>
      <trkpt lat="41.2968610" lon="-8.7364170">
        <ele>7.8</ele>
        <time>2021-05-16T09:39:47Z</time>
      </trkpt>
      <trkpt lat="41.2968720" lon="-8.7364330">
        <ele>7.7</ele>
        <time>2021-05-16T09:39:48Z</time>
      </trkpt>
      <trkpt lat="41.2968840" lon="-8.7364430">
        <ele>7.7</ele>
        <time>2021-05-16T09:39:49Z</time>
      </trkpt>
      <trkpt lat="41.2968960" lon="-8.7364550">
        <ele>7.7</ele>
        <time>2021-05-16T09:39:50Z</time>
      </trkpt>
      <trkpt lat="41.2969090" lon="-8.7364650">
        <ele>7.7</ele>
        <time>2021-05-16T09:39:51Z</time>
      </trkpt>
      <trkpt lat="41.2969220" lon="-8.7364770">
        <ele>7.7</ele>
        <time>2021-05-16T09:39:52Z</time>
      </trkpt>
      <trkpt lat="41.2969360" lon="-8.7364830">
        <ele>7.7</ele>
        <time>2021-05-16T09:39:53Z</time>
      </trkpt>
      <trkpt lat="41.2969500" lon="-8.7364920">
        <ele>7.7</ele>
        <time>2021-05-16T09:39:54Z</time>
      </trkpt>
      <trkpt lat="41.2969610" lon="-8.7365050">
        <ele>7.7</ele>
        <time>2021-05-16T09:39:55Z</time>
      </trkpt>
      <trkpt lat="41.2969730" lon="-8.7365140">
        <ele>7.6</ele>
        <time>2021-05-16T09:39:56Z</time>
      </trkpt>
      <trkpt lat="41.2969840" lon="-8.7365250">
        <ele>7.6</ele>
        <time>2021-05-16T09:39:57Z</time>
      </trkpt>
      <trkpt lat="41.2969960" lon="-8.7365340">
        <ele>7.6</ele>
        <time>2021-05-16T09:39:58Z</time>
      </trkpt>
      <trkpt lat="41.2970110" lon="-8.7365370">
        <ele>7.6</ele>
        <time>2021-05-16T09:39:59Z</time>
      </trkpt>
      <trkpt lat="41.2970240" lon="-8.7365480">
        <ele>7.6</ele>
        <time>2021-05-16T09:40:00Z</time>
      </trkpt>
      <trkpt lat="41.2970390" lon="-8.7365520">
        <ele>7.6</ele>
        <time>2021-05-16T09:40:01Z</time>
      </trkpt>
      <trkpt lat="41.2970600" lon="-8.7365630">
        <ele>7.6</ele>
        <time>2021-05-16T09:40:02Z</time>
      </trkpt>
      <trkpt lat="41.2970680" lon="-8.7365650">
        <ele>7.6</ele>
        <time>2021-05-16T09:40:03Z</time>
      </trkpt>
      <trkpt lat="41.2970770" lon="-8.7365670">
        <ele>7.6</ele>
        <time>2021-05-16T09:40:04Z</time>
      </trkpt>
      <trkpt lat="41.2970980" lon="-8.7365720">
        <ele>7.6</ele>
        <time>2021-05-16T09:40:05Z</time>
      </trkpt>
      <trkpt lat="41.2971060" lon="-8.7365760">
        <ele>7.6</ele>
        <time>2021-05-16T09:40:06Z</time>
      </trkpt>
      <trkpt lat="41.2971140" lon="-8.7365800">
        <ele>7.6</ele>
        <time>2021-05-16T09:40:07Z</time>
      </trkpt>
      <trkpt lat="41.2971350" lon="-8.7365900">
        <ele>7.6</ele>
        <time>2021-05-16T09:40:08Z</time>
      </trkpt>
      <trkpt lat="41.2971430" lon="-8.7365940">
        <ele>7.6</ele>
        <time>2021-05-16T09:40:09Z</time>
      </trkpt>
      <trkpt lat="41.2971520" lon="-8.7365970">
        <ele>7.6</ele>
        <time>2021-05-16T09:40:10Z</time>
      </trkpt>
      <trkpt lat="41.2971680" lon="-8.7365960">
        <ele>7.6</ele>
        <time>2021-05-16T09:40:11Z</time>
      </trkpt>
      <trkpt lat="41.2971790" lon="-8.7366070">
        <ele>7.6</ele>
        <time>2021-05-16T09:40:12Z</time>
      </trkpt>
      <trkpt lat="41.2971900" lon="-8.7366210">
        <ele>7.7</ele>
        <time>2021-05-16T09:40:13Z</time>
      </trkpt>
      <trkpt lat="41.2972020" lon="-8.7366280">
        <ele>7.7</ele>
        <time>2021-05-16T09:40:14Z</time>
      </trkpt>
      <trkpt lat="41.2972140" lon="-8.7366250">
        <ele>7.7</ele>
        <time>2021-05-16T09:40:15Z</time>
      </trkpt>
      <trkpt lat="41.2972120" lon="-8.7366230">
        <ele>7.7</ele>
        <time>2021-05-16T09:40:16Z</time>
      </trkpt>
      <trkpt lat="41.2971990" lon="-8.7366210">
        <ele>7.7</ele>
        <time>2021-05-16T09:40:17Z</time>
      </trkpt>
      <trkpt lat="41.2971950" lon="-8.7366230">
        <ele>7.7</ele>
        <time>2021-05-16T09:40:18Z</time>
      </trkpt>
      <trkpt lat="41.2971940" lon="-8.7366270">
        <ele>7.7</ele>
        <time>2021-05-16T09:40:19Z</time>
      </trkpt>
      <trkpt lat="41.2971910" lon="-8.7366260">
        <ele>7.7</ele>
        <time>2021-05-16T09:40:20Z</time>
      </trkpt>
      <trkpt lat="41.2971880" lon="-8.7366260">
        <ele>7.7</ele>
        <time>2021-05-16T09:40:21Z</time>
      </trkpt>
      <trkpt lat="41.2971860" lon="-8.7366260">
        <ele>7.7</ele>
        <time>2021-05-16T09:40:22Z</time>
      </trkpt>
      <trkpt lat="41.2971850" lon="-8.7366240">
        <ele>7.7</ele>
        <time>2021-05-16T09:40:23Z</time>
      </trkpt>
      <trkpt lat="41.2971890" lon="-8.7366320">
        <ele>7.7</ele>
        <time>2021-05-16T09:40:24Z</time>
      </trkpt>
      <trkpt lat="41.2972030" lon="-8.7366340">
        <ele>7.7</ele>
        <time>2021-05-16T09:40:25Z</time>
      </trkpt>
      <trkpt lat="41.2972190" lon="-8.7366300">
        <ele>7.8</ele>
        <time>2021-05-16T09:40:26Z</time>
      </trkpt>
      <trkpt lat="41.2972360" lon="-8.7366320">
        <ele>7.8</ele>
        <time>2021-05-16T09:40:27Z</time>
      </trkpt>
      <trkpt lat="41.2972550" lon="-8.7366390">
        <ele>7.8</ele>
        <time>2021-05-16T09:40:28Z</time>
      </trkpt>
      <trkpt lat="41.2972650" lon="-8.7366460">
        <ele>7.8</ele>
        <time>2021-05-16T09:40:29Z</time>
      </trkpt>
      <trkpt lat="41.2972860" lon="-8.7366530">
        <ele>7.8</ele>
        <time>2021-05-16T09:40:30Z</time>
      </trkpt>
      <trkpt lat="41.2972950" lon="-8.7366570">
        <ele>7.9</ele>
        <time>2021-05-16T09:40:31Z</time>
      </trkpt>
      <trkpt lat="41.2973040" lon="-8.7366600">
        <ele>7.9</ele>
        <time>2021-05-16T09:40:32Z</time>
      </trkpt>
      <trkpt lat="41.2973150" lon="-8.7366650">
        <ele>7.9</ele>
        <time>2021-05-16T09:40:33Z</time>
      </trkpt>
      <trkpt lat="41.2973240" lon="-8.7366650">
        <ele>7.9</ele>
        <time>2021-05-16T09:40:34Z</time>
      </trkpt>
      <trkpt lat="41.2973400" lon="-8.7366630">
        <ele>7.9</ele>
        <time>2021-05-16T09:40:35Z</time>
      </trkpt>
      <trkpt lat="41.2973530" lon="-8.7366660">
        <ele>7.9</ele>
        <time>2021-05-16T09:40:36Z</time>
      </trkpt>
      <trkpt lat="41.2973690" lon="-8.7366700">
        <ele>8.0</ele>
        <time>2021-05-16T09:40:37Z</time>
      </trkpt>
      <trkpt lat="41.2973840" lon="-8.7366750">
        <ele>8.0</ele>
        <time>2021-05-16T09:40:38Z</time>
      </trkpt>
      <trkpt lat="41.2974020" lon="-8.7366670">
        <ele>8.0</ele>
        <time>2021-05-16T09:40:39Z</time>
      </trkpt>
      <trkpt lat="41.2974160" lon="-8.7366690">
        <ele>8.0</ele>
        <time>2021-05-16T09:40:40Z</time>
      </trkpt>
      <trkpt lat="41.2974310" lon="-8.7366650">
        <ele>8.1</ele>
        <time>2021-05-16T09:40:41Z</time>
      </trkpt>
      <trkpt lat="41.2974450" lon="-8.7366660">
        <ele>8.1</ele>
        <time>2021-05-16T09:40:42Z</time>
      </trkpt>
      <trkpt lat="41.2974590" lon="-8.7366640">
        <ele>8.1</ele>
        <time>2021-05-16T09:40:43Z</time>
      </trkpt>
      <trkpt lat="41.2974740" lon="-8.7366640">
        <ele>8.1</ele>
        <time>2021-05-16T09:40:44Z</time>
      </trkpt>
      <trkpt lat="41.2974910" lon="-8.7366550">
        <ele>8.2</ele>
        <time>2021-05-16T09:40:45Z</time>
      </trkpt>
      <trkpt lat="41.2975070" lon="-8.7366540">
        <ele>8.2</ele>
        <time>2021-05-16T09:40:46Z</time>
      </trkpt>
      <trkpt lat="41.2975220" lon="-8.7366540">
        <ele>8.2</ele>
        <time>2021-05-16T09:40:47Z</time>
      </trkpt>
      <trkpt lat="41.2975370" lon="-8.7366540">
        <ele>8.2</ele>
        <time>2021-05-16T09:40:48Z</time>
      </trkpt>
      <trkpt lat="41.2975520" lon="-8.7366530">
        <ele>8.3</ele>
        <time>2021-05-16T09:40:49Z</time>
      </trkpt>
      <trkpt lat="41.2975680" lon="-8.7366490">
        <ele>8.3</ele>
        <time>2021-05-16T09:40:50Z</time>
      </trkpt>
      <trkpt lat="41.2975820" lon="-8.7366450">
        <ele>8.3</ele>
        <time>2021-05-16T09:40:51Z</time>
      </trkpt>
      <trkpt lat="41.2976040" lon="-8.7366430">
        <ele>8.4</ele>
        <time>2021-05-16T09:40:52Z</time>
      </trkpt>
      <trkpt lat="41.2976120" lon="-8.7366420">
        <ele>8.4</ele>
        <time>2021-05-16T09:40:53Z</time>
      </trkpt>
      <trkpt lat="41.2976210" lon="-8.7366420">
        <ele>8.4</ele>
        <time>2021-05-16T09:40:54Z</time>
      </trkpt>
      <trkpt lat="41.2976340" lon="-8.7366350">
        <ele>8.4</ele>
        <time>2021-05-16T09:40:55Z</time>
      </trkpt>
      <trkpt lat="41.2976510" lon="-8.7366360">
        <ele>8.4</ele>
        <time>2021-05-16T09:40:56Z</time>
      </trkpt>
      <trkpt lat="41.2976660" lon="-8.7366330">
        <ele>8.5</ele>
        <time>2021-05-16T09:40:57Z</time>
      </trkpt>
      <trkpt lat="41.2976820" lon="-8.7366270">
        <ele>8.5</ele>
        <time>2021-05-16T09:40:58Z</time>
      </trkpt>
      <trkpt lat="41.2976970" lon="-8.7366250">
        <ele>8.5</ele>
        <time>2021-05-16T09:40:59Z</time>
      </trkpt>
      <trkpt lat="41.2977120" lon="-8.7366200">
        <ele>8.5</ele>
        <time>2021-05-16T09:41:00Z</time>
      </trkpt>
      <trkpt lat="41.2977280" lon="-8.7366140">
        <ele>8.6</ele>
        <time>2021-05-16T09:41:01Z</time>
      </trkpt>
      <trkpt lat="41.2977440" lon="-8.7366160">
        <ele>8.6</ele>
        <time>2021-05-16T09:41:02Z</time>
      </trkpt>
      <trkpt lat="41.2977570" lon="-8.7366150">
        <ele>8.6</ele>
        <time>2021-05-16T09:41:03Z</time>
      </trkpt>
      <trkpt lat="41.2977720" lon="-8.7366070">
        <ele>8.6</ele>
        <time>2021-05-16T09:41:04Z</time>
      </trkpt>
      <trkpt lat="41.2977850" lon="-8.7366100">
        <ele>8.7</ele>
        <time>2021-05-16T09:41:05Z</time>
      </trkpt>
      <trkpt lat="41.2978020" lon="-8.7366080">
        <ele>8.7</ele>
        <time>2021-05-16T09:41:06Z</time>
      </trkpt>
      <trkpt lat="41.2978150" lon="-8.7366130">
        <ele>8.7</ele>
        <time>2021-05-16T09:41:07Z</time>
      </trkpt>
      <trkpt lat="41.2978260" lon="-8.7366200">
        <ele>8.7</ele>
        <time>2021-05-16T09:41:08Z</time>
      </trkpt>
      <trkpt lat="41.2978350" lon="-8.7366250">
        <ele>8.7</ele>
        <time>2021-05-16T09:41:09Z</time>
      </trkpt>
      <trkpt lat="41.2978360" lon="-8.7366230">
        <ele>8.7</ele>
        <time>2021-05-16T09:41:10Z</time>
      </trkpt>
      <trkpt lat="41.2978280" lon="-8.7366230">
        <ele>8.7</ele>
        <time>2021-05-16T09:41:11Z</time>
      </trkpt>
      <trkpt lat="41.2978270" lon="-8.7366220">
        <ele>8.7</ele>
        <time>2021-05-16T09:41:12Z</time>
      </trkpt>
      <trkpt lat="41.2978260" lon="-8.7366220">
        <ele>8.7</ele>
        <time>2021-05-16T09:41:13Z</time>
      </trkpt>
      <trkpt lat="41.2978250" lon="-8.7366220">
        <ele>8.7</ele>
        <time>2021-05-16T09:41:14Z</time>
      </trkpt>
      <trkpt lat="41.2978250" lon="-8.7366230">
        <ele>8.7</ele>
        <time>2021-05-16T09:41:15Z</time>
      </trkpt>
      <trkpt lat="41.2978250" lon="-8.7366230">
        <ele>8.7</ele>
        <time>2021-05-16T09:41:16Z</time>
      </trkpt>
      <trkpt lat="41.2978240" lon="-8.7366230">
        <ele>8.7</ele>
        <time>2021-05-16T09:41:17Z</time>
      </trkpt>
      <trkpt lat="41.2978240" lon="-8.7366230">
        <ele>8.7</ele>
        <time>2021-05-16T09:41:18Z</time>
      </trkpt>
      <trkpt lat="41.2978250" lon="-8.7366230">
        <ele>8.7</ele>
        <time>2021-05-16T09:41:19Z</time>
      </trkpt>
      <trkpt lat="41.2978240" lon="-8.7366230">
        <ele>8.7</ele>
        <time>2021-05-16T09:41:20Z</time>
      </trkpt>
      <trkpt lat="41.2978240" lon="-8.7366230">
        <ele>8.7</ele>
        <time>2021-05-16T09:41:21Z</time>
      </trkpt>
      <trkpt lat="41.2978240" lon="-8.7366210">
        <ele>8.7</ele>
        <time>2021-05-16T09:41:22Z</time>
      </trkpt>
      <trkpt lat="41.2978370" lon="-8.7366280">
        <ele>8.7</ele>
        <time>2021-05-16T09:41:23Z</time>
      </trkpt>
      <trkpt lat="41.2978480" lon="-8.7366240">
        <ele>8.7</ele>
        <time>2021-05-16T09:41:24Z</time>
      </trkpt>
      <trkpt lat="41.2978610" lon="-8.7366220">
        <ele>8.8</ele>
        <time>2021-05-16T09:41:25Z</time>
      </trkpt>
      <trkpt lat="41.2978710" lon="-8.7366290">
        <ele>8.8</ele>
        <time>2021-05-16T09:41:26Z</time>
      </trkpt>
      <trkpt lat="41.2978870" lon="-8.7366340">
        <ele>8.8</ele>
        <time>2021-05-16T09:41:27Z</time>
      </trkpt>
      <trkpt lat="41.2979030" lon="-8.7366320">
        <ele>8.8</ele>
        <time>2021-05-16T09:41:28Z</time>
      </trkpt>
      <trkpt lat="41.2979190" lon="-8.7366320">
        <ele>8.8</ele>
        <time>2021-05-16T09:41:29Z</time>
      </trkpt>
      <trkpt lat="41.2979300" lon="-8.7366340">
        <ele>8.8</ele>
        <time>2021-05-16T09:41:30Z</time>
      </trkpt>
      <trkpt lat="41.2979440" lon="-8.7366390">
        <ele>8.8</ele>
        <time>2021-05-16T09:41:31Z</time>
      </trkpt>
      <trkpt lat="41.2979570" lon="-8.7366380">
        <ele>8.8</ele>
        <time>2021-05-16T09:41:32Z</time>
      </trkpt>
      <trkpt lat="41.2979760" lon="-8.7366440">
        <ele>8.8</ele>
        <time>2021-05-16T09:41:33Z</time>
      </trkpt>
      <trkpt lat="41.2979850" lon="-8.7366470">
        <ele>8.8</ele>
        <time>2021-05-16T09:41:34Z</time>
      </trkpt>
      <trkpt lat="41.2979940" lon="-8.7366490">
        <ele>8.8</ele>
        <time>2021-05-16T09:41:35Z</time>
      </trkpt>
      <trkpt lat="41.2980170" lon="-8.7366530">
        <ele>8.8</ele>
        <time>2021-05-16T09:41:36Z</time>
      </trkpt>
      <trkpt lat="41.2980280" lon="-8.7366550">
        <ele>8.8</ele>
        <time>2021-05-16T09:41:37Z</time>
      </trkpt>
      <trkpt lat="41.2980390" lon="-8.7366560">
        <ele>8.9</ele>
        <time>2021-05-16T09:41:38Z</time>
      </trkpt>
      <trkpt lat="41.2980570" lon="-8.7366590">
        <ele>8.9</ele>
        <time>2021-05-16T09:41:39Z</time>
      </trkpt>
      <trkpt lat="41.2980710" lon="-8.7366650">
        <ele>8.9</ele>
        <time>2021-05-16T09:41:40Z</time>
      </trkpt>
      <trkpt lat="41.2980870" lon="-8.7366670">
        <ele>8.9</ele>
        <time>2021-05-16T09:41:41Z</time>
      </trkpt>
      <trkpt lat="41.2981030" lon="-8.7366690">
        <ele>8.9</ele>
        <time>2021-05-16T09:41:42Z</time>
      </trkpt>
      <trkpt lat="41.2981160" lon="-8.7366730">
        <ele>8.9</ele>
        <time>2021-05-16T09:41:43Z</time>
      </trkpt>
      <trkpt lat="41.2981330" lon="-8.7366730">
        <ele>8.9</ele>
        <time>2021-05-16T09:41:44Z</time>
      </trkpt>
      <trkpt lat="41.2981480" lon="-8.7366810">
        <ele>8.9</ele>
        <time>2021-05-16T09:41:45Z</time>
      </trkpt>
      <trkpt lat="41.2981630" lon="-8.7366760">
        <ele>8.9</ele>
        <time>2021-05-16T09:41:46Z</time>
      </trkpt>
      <trkpt lat="41.2981760" lon="-8.7366820">
        <ele>8.9</ele>
        <time>2021-05-16T09:41:47Z</time>
      </trkpt>
      <trkpt lat="41.2981900" lon="-8.7366860">
        <ele>8.9</ele>
        <time>2021-05-16T09:41:48Z</time>
      </trkpt>
      <trkpt lat="41.2982040" lon="-8.7366840">
        <ele>8.9</ele>
        <time>2021-05-16T09:41:49Z</time>
      </trkpt>
      <trkpt lat="41.2982200" lon="-8.7366890">
        <ele>8.9</ele>
        <time>2021-05-16T09:41:50Z</time>
      </trkpt>
      <trkpt lat="41.2982340" lon="-8.7366900">
        <ele>8.9</ele>
        <time>2021-05-16T09:41:51Z</time>
      </trkpt>
      <trkpt lat="41.2982510" lon="-8.7366970">
        <ele>8.9</ele>
        <time>2021-05-16T09:41:52Z</time>
      </trkpt>
      <trkpt lat="41.2982640" lon="-8.7367010">
        <ele>8.9</ele>
        <time>2021-05-16T09:41:53Z</time>
      </trkpt>
      <trkpt lat="41.2982780" lon="-8.7367060">
        <ele>8.9</ele>
        <time>2021-05-16T09:41:54Z</time>
      </trkpt>
      <trkpt lat="41.2982930" lon="-8.7367050">
        <ele>8.9</ele>
        <time>2021-05-16T09:41:55Z</time>
      </trkpt>
      <trkpt lat="41.2983110" lon="-8.7367070">
        <ele>8.9</ele>
        <time>2021-05-16T09:41:56Z</time>
      </trkpt>
      <trkpt lat="41.2983270" lon="-8.7367090">
        <ele>8.9</ele>
        <time>2021-05-16T09:41:57Z</time>
      </trkpt>
      <trkpt lat="41.2983390" lon="-8.7367080">
        <ele>8.9</ele>
        <time>2021-05-16T09:41:58Z</time>
      </trkpt>
      <trkpt lat="41.2983600" lon="-8.7367170">
        <ele>8.9</ele>
        <time>2021-05-16T09:41:59Z</time>
      </trkpt>
      <trkpt lat="41.2983690" lon="-8.7367210">
        <ele>8.9</ele>
        <time>2021-05-16T09:42:00Z</time>
      </trkpt>
      <trkpt lat="41.2983790" lon="-8.7367240">
        <ele>8.9</ele>
        <time>2021-05-16T09:42:01Z</time>
      </trkpt>
      <trkpt lat="41.2983930" lon="-8.7367320">
        <ele>8.9</ele>
        <time>2021-05-16T09:42:02Z</time>
      </trkpt>
      <trkpt lat="41.2984090" lon="-8.7367380">
        <ele>8.9</ele>
        <time>2021-05-16T09:42:03Z</time>
      </trkpt>
      <trkpt lat="41.2984300" lon="-8.7367470">
        <ele>8.9</ele>
        <time>2021-05-16T09:42:04Z</time>
      </trkpt>
      <trkpt lat="41.2984400" lon="-8.7367440">
        <ele>8.9</ele>
        <time>2021-05-16T09:42:05Z</time>
      </trkpt>
      <trkpt lat="41.2984510" lon="-8.7367420">
        <ele>8.9</ele>
        <time>2021-05-16T09:42:06Z</time>
      </trkpt>
      <trkpt lat="41.2984630" lon="-8.7367440">
        <ele>8.9</ele>
        <time>2021-05-16T09:42:07Z</time>
      </trkpt>
      <trkpt lat="41.2984790" lon="-8.7367430">
        <ele>8.9</ele>
        <time>2021-05-16T09:42:08Z</time>
      </trkpt>
      <trkpt lat="41.2984910" lon="-8.7367450">
        <ele>8.9</ele>
        <time>2021-05-16T09:42:09Z</time>
      </trkpt>
      <trkpt lat="41.2985070" lon="-8.7367410">
        <ele>8.9</ele>
        <time>2021-05-16T09:42:10Z</time>
      </trkpt>
      <trkpt lat="41.2985270" lon="-8.7367480">
        <ele>8.9</ele>
        <time>2021-05-16T09:42:11Z</time>
      </trkpt>
      <trkpt lat="41.2985350" lon="-8.7367500">
        <ele>8.9</ele>
        <time>2021-05-16T09:42:12Z</time>
      </trkpt>
      <trkpt lat="41.2985440" lon="-8.7367520">
        <ele>8.9</ele>
        <time>2021-05-16T09:42:13Z</time>
      </trkpt>
      <trkpt lat="41.2985590" lon="-8.7367540">
        <ele>8.9</ele>
        <time>2021-05-16T09:42:14Z</time>
      </trkpt>
      <trkpt lat="41.2985710" lon="-8.7367580">
        <ele>8.9</ele>
        <time>2021-05-16T09:42:15Z</time>
      </trkpt>
      <trkpt lat="41.2985850" lon="-8.7367610">
        <ele>8.9</ele>
        <time>2021-05-16T09:42:16Z</time>
      </trkpt>
      <trkpt lat="41.2985980" lon="-8.7367660">
        <ele>8.9</ele>
        <time>2021-05-16T09:42:17Z</time>
      </trkpt>
      <trkpt lat="41.2986120" lon="-8.7367670">
        <ele>8.9</ele>
        <time>2021-05-16T09:42:18Z</time>
      </trkpt>
      <trkpt lat="41.2986270" lon="-8.7367640">
        <ele>8.9</ele>
        <time>2021-05-16T09:42:19Z</time>
      </trkpt>
      <trkpt lat="41.2986490" lon="-8.7367720">
        <ele>8.8</ele>
        <time>2021-05-16T09:42:20Z</time>
      </trkpt>
      <trkpt lat="41.2986580" lon="-8.7367750">
        <ele>8.8</ele>
        <time>2021-05-16T09:42:21Z</time>
      </trkpt>
      <trkpt lat="41.2986680" lon="-8.7367790">
        <ele>8.8</ele>
        <time>2021-05-16T09:42:22Z</time>
      </trkpt>
      <trkpt lat="41.2986830" lon="-8.7367810">
        <ele>8.8</ele>
        <time>2021-05-16T09:42:23Z</time>
      </trkpt>
      <trkpt lat="41.2986980" lon="-8.7367830">
        <ele>8.8</ele>
        <time>2021-05-16T09:42:24Z</time>
      </trkpt>
      <trkpt lat="41.2987120" lon="-8.7367870">
        <ele>8.8</ele>
        <time>2021-05-16T09:42:25Z</time>
      </trkpt>
      <trkpt lat="41.2987260" lon="-8.7367880">
        <ele>8.8</ele>
        <time>2021-05-16T09:42:26Z</time>
      </trkpt>
      <trkpt lat="41.2987480" lon="-8.7367950">
        <ele>8.8</ele>
        <time>2021-05-16T09:42:27Z</time>
      </trkpt>
      <trkpt lat="41.2987570" lon="-8.7367990">
        <ele>8.8</ele>
        <time>2021-05-16T09:42:28Z</time>
      </trkpt>
      <trkpt lat="41.2987660" lon="-8.7368020">
        <ele>8.8</ele>
        <time>2021-05-16T09:42:29Z</time>
      </trkpt>
      <trkpt lat="41.2987790" lon="-8.7368070">
        <ele>8.8</ele>
        <time>2021-05-16T09:42:30Z</time>
      </trkpt>
      <trkpt lat="41.2987930" lon="-8.7368150">
        <ele>8.8</ele>
        <time>2021-05-16T09:42:31Z</time>
      </trkpt>
      <trkpt lat="41.2988150" lon="-8.7368250">
        <ele>8.8</ele>
        <time>2021-05-16T09:42:32Z</time>
      </trkpt>
      <trkpt lat="41.2988240" lon="-8.7368290">
        <ele>8.8</ele>
        <time>2021-05-16T09:42:33Z</time>
      </trkpt>
      <trkpt lat="41.2988320" lon="-8.7368330">
        <ele>8.8</ele>
        <time>2021-05-16T09:42:34Z</time>
      </trkpt>
      <trkpt lat="41.2988440" lon="-8.7368370">
        <ele>8.8</ele>
        <time>2021-05-16T09:42:35Z</time>
      </trkpt>
      <trkpt lat="41.2988580" lon="-8.7368520">
        <ele>8.8</ele>
        <time>2021-05-16T09:42:36Z</time>
      </trkpt>
      <trkpt lat="41.2988780" lon="-8.7368670">
        <ele>8.7</ele>
        <time>2021-05-16T09:42:37Z</time>
      </trkpt>
      <trkpt lat="41.2988870" lon="-8.7368720">
        <ele>8.7</ele>
        <time>2021-05-16T09:42:38Z</time>
      </trkpt>
      <trkpt lat="41.2988950" lon="-8.7368760">
        <ele>8.7</ele>
        <time>2021-05-16T09:42:39Z</time>
      </trkpt>
      <trkpt lat="41.2989060" lon="-8.7368830">
        <ele>8.7</ele>
        <time>2021-05-16T09:42:40Z</time>
      </trkpt>
      <trkpt lat="41.2989210" lon="-8.7368950">
        <ele>8.7</ele>
        <time>2021-05-16T09:42:41Z</time>
      </trkpt>
      <trkpt lat="41.2989330" lon="-8.7368950">
        <ele>8.7</ele>
        <time>2021-05-16T09:42:42Z</time>
      </trkpt>
      <trkpt lat="41.2989480" lon="-8.7369020">
        <ele>8.7</ele>
        <time>2021-05-16T09:42:43Z</time>
      </trkpt>
      <trkpt lat="41.2989630" lon="-8.7369010">
        <ele>8.7</ele>
        <time>2021-05-16T09:42:44Z</time>
      </trkpt>
      <trkpt lat="41.2989780" lon="-8.7369120">
        <ele>8.7</ele>
        <time>2021-05-16T09:42:45Z</time>
      </trkpt>
      <trkpt lat="41.2989940" lon="-8.7369100">
        <ele>8.7</ele>
        <time>2021-05-16T09:42:46Z</time>
      </trkpt>
      <trkpt lat="41.2990080" lon="-8.7369110">
        <ele>8.7</ele>
        <time>2021-05-16T09:42:47Z</time>
      </trkpt>
      <trkpt lat="41.2990220" lon="-8.7369190">
        <ele>8.7</ele>
        <time>2021-05-16T09:42:48Z</time>
      </trkpt>
      <trkpt lat="41.2990370" lon="-8.7369170">
        <ele>8.7</ele>
        <time>2021-05-16T09:42:49Z</time>
      </trkpt>
      <trkpt lat="41.2990520" lon="-8.7369240">
        <ele>8.7</ele>
        <time>2021-05-16T09:42:50Z</time>
      </trkpt>
      <trkpt lat="41.2990680" lon="-8.7369270">
        <ele>8.7</ele>
        <time>2021-05-16T09:42:51Z</time>
      </trkpt>
      <trkpt lat="41.2990820" lon="-8.7369320">
        <ele>8.6</ele>
        <time>2021-05-16T09:42:52Z</time>
      </trkpt>
      <trkpt lat="41.2990990" lon="-8.7369330">
        <ele>8.6</ele>
        <time>2021-05-16T09:42:53Z</time>
      </trkpt>
      <trkpt lat="41.2991120" lon="-8.7369400">
        <ele>8.6</ele>
        <time>2021-05-16T09:42:54Z</time>
      </trkpt>
      <trkpt lat="41.2991260" lon="-8.7369420">
        <ele>8.6</ele>
        <time>2021-05-16T09:42:55Z</time>
      </trkpt>
      <trkpt lat="41.2991390" lon="-8.7369470">
        <ele>8.6</ele>
        <time>2021-05-16T09:42:56Z</time>
      </trkpt>
      <trkpt lat="41.2991540" lon="-8.7369440">
        <ele>8.6</ele>
        <time>2021-05-16T09:42:57Z</time>
      </trkpt>
      <trkpt lat="41.2991700" lon="-8.7369430">
        <ele>8.6</ele>
        <time>2021-05-16T09:42:58Z</time>
      </trkpt>
      <trkpt lat="41.2991850" lon="-8.7369500">
        <ele>8.6</ele>
        <time>2021-05-16T09:42:59Z</time>
      </trkpt>
      <trkpt lat="41.2991990" lon="-8.7369500">
        <ele>8.6</ele>
        <time>2021-05-16T09:43:00Z</time>
      </trkpt>
      <trkpt lat="41.2992130" lon="-8.7369560">
        <ele>8.6</ele>
        <time>2021-05-16T09:43:01Z</time>
      </trkpt>
      <trkpt lat="41.2992250" lon="-8.7369580">
        <ele>8.6</ele>
        <time>2021-05-16T09:43:02Z</time>
      </trkpt>
      <trkpt lat="41.2992410" lon="-8.7369590">
        <ele>8.6</ele>
        <time>2021-05-16T09:43:03Z</time>
      </trkpt>
      <trkpt lat="41.2992640" lon="-8.7369610">
        <ele>8.6</ele>
        <time>2021-05-16T09:43:04Z</time>
      </trkpt>
      <trkpt lat="41.2992730" lon="-8.7369660">
        <ele>8.6</ele>
        <time>2021-05-16T09:43:05Z</time>
      </trkpt>
      <trkpt lat="41.2992820" lon="-8.7369700">
        <ele>8.6</ele>
        <time>2021-05-16T09:43:06Z</time>
      </trkpt>
      <trkpt lat="41.2992950" lon="-8.7369720">
        <ele>8.6</ele>
        <time>2021-05-16T09:43:07Z</time>
      </trkpt>
      <trkpt lat="41.2993100" lon="-8.7369730">
        <ele>8.6</ele>
        <time>2021-05-16T09:43:08Z</time>
      </trkpt>
      <trkpt lat="41.2993240" lon="-8.7369740">
        <ele>8.6</ele>
        <time>2021-05-16T09:43:09Z</time>
      </trkpt>
      <trkpt lat="41.2993380" lon="-8.7369740">
        <ele>8.6</ele>
        <time>2021-05-16T09:43:10Z</time>
      </trkpt>
      <trkpt lat="41.2993520" lon="-8.7369810">
        <ele>8.6</ele>
        <time>2021-05-16T09:43:11Z</time>
      </trkpt>
      <trkpt lat="41.2993670" lon="-8.7369880">
        <ele>8.6</ele>
        <time>2021-05-16T09:43:12Z</time>
      </trkpt>
      <trkpt lat="41.2993810" lon="-8.7369850">
        <ele>8.6</ele>
        <time>2021-05-16T09:43:13Z</time>
      </trkpt>
      <trkpt lat="41.2993950" lon="-8.7369920">
        <ele>8.6</ele>
        <time>2021-05-16T09:43:14Z</time>
      </trkpt>
      <trkpt lat="41.2994110" lon="-8.7369940">
        <ele>8.6</ele>
        <time>2021-05-16T09:43:15Z</time>
      </trkpt>
      <trkpt lat="41.2994270" lon="-8.7369990">
        <ele>8.6</ele>
        <time>2021-05-16T09:43:16Z</time>
      </trkpt>
      <trkpt lat="41.2994420" lon="-8.7370030">
        <ele>8.6</ele>
        <time>2021-05-16T09:43:17Z</time>
      </trkpt>
      <trkpt lat="41.2994540" lon="-8.7370080">
        <ele>8.6</ele>
        <time>2021-05-16T09:43:18Z</time>
      </trkpt>
      <trkpt lat="41.2994680" lon="-8.7370130">
        <ele>8.6</ele>
        <time>2021-05-16T09:43:19Z</time>
      </trkpt>
      <trkpt lat="41.2994820" lon="-8.7370160">
        <ele>8.6</ele>
        <time>2021-05-16T09:43:20Z</time>
      </trkpt>
      <trkpt lat="41.2994960" lon="-8.7370200">
        <ele>8.6</ele>
        <time>2021-05-16T09:43:21Z</time>
      </trkpt>
      <trkpt lat="41.2995110" lon="-8.7370140">
        <ele>8.6</ele>
        <time>2021-05-16T09:43:22Z</time>
      </trkpt>
      <trkpt lat="41.2995250" lon="-8.7370210">
        <ele>8.6</ele>
        <time>2021-05-16T09:43:23Z</time>
      </trkpt>
      <trkpt lat="41.2995370" lon="-8.7370210">
        <ele>8.6</ele>
        <time>2021-05-16T09:43:24Z</time>
      </trkpt>
      <trkpt lat="41.2995440" lon="-8.7370160">
        <ele>8.6</ele>
        <time>2021-05-16T09:43:25Z</time>
      </trkpt>
      <trkpt lat="41.2995280" lon="-8.7370200">
        <ele>8.6</ele>
        <time>2021-05-16T09:43:26Z</time>
      </trkpt>
      <trkpt lat="41.2995240" lon="-8.7370200">
        <ele>8.6</ele>
        <time>2021-05-16T09:43:27Z</time>
      </trkpt>
      <trkpt lat="41.2995230" lon="-8.7370220">
        <ele>8.6</ele>
        <time>2021-05-16T09:43:28Z</time>
      </trkpt>
      <trkpt lat="41.2995220" lon="-8.7370220">
        <ele>8.6</ele>
        <time>2021-05-16T09:43:29Z</time>
      </trkpt>
      <trkpt lat="41.2995210" lon="-8.7370220">
        <ele>8.6</ele>
        <time>2021-05-16T09:43:30Z</time>
      </trkpt>
      <trkpt lat="41.2995200" lon="-8.7370220">
        <ele>8.6</ele>
        <time>2021-05-16T09:43:31Z</time>
      </trkpt>
      <trkpt lat="41.2995190" lon="-8.7370210">
        <ele>8.6</ele>
        <time>2021-05-16T09:43:32Z</time>
      </trkpt>
      <trkpt lat="41.2995160" lon="-8.7370210">
        <ele>8.6</ele>
        <time>2021-05-16T09:43:33Z</time>
      </trkpt>
      <trkpt lat="41.2995150" lon="-8.7370220">
        <ele>8.6</ele>
        <time>2021-05-16T09:43:34Z</time>
      </trkpt>
      <trkpt lat="41.2995150" lon="-8.7370220">
        <ele>8.6</ele>
        <time>2021-05-16T09:43:35Z</time>
      </trkpt>
      <trkpt lat="41.2995160" lon="-8.7370220">
        <ele>8.6</ele>
        <time>2021-05-16T09:43:36Z</time>
      </trkpt>
      <trkpt lat="41.2995160" lon="-8.7370220">
        <ele>8.6</ele>
        <time>2021-05-16T09:43:37Z</time>
      </trkpt>
      <trkpt lat="41.2995160" lon="-8.7370220">
        <ele>8.6</ele>
        <time>2021-05-16T09:43:38Z</time>
      </trkpt>
      <trkpt lat="41.2995160" lon="-8.7370220">
        <ele>8.6</ele>
        <time>2021-05-16T09:43:39Z</time>
      </trkpt>
      <trkpt lat="41.2995160" lon="-8.7370220">
        <ele>8.6</ele>
        <time>2021-05-16T09:43:40Z</time>
      </trkpt>
      <trkpt lat="41.2995160" lon="-8.7370220">
        <ele>8.6</ele>
        <time>2021-05-16T09:43:41Z</time>
      </trkpt>
      <trkpt lat="41.2995170" lon="-8.7370220">
        <ele>8.6</ele>
        <time>2021-05-16T09:43:42Z</time>
      </trkpt>
      <trkpt lat="41.2995170" lon="-8.7370220">
        <ele>8.6</ele>
        <time>2021-05-16T09:43:43Z</time>
      </trkpt>
      <trkpt lat="41.2995170" lon="-8.7370220">
        <ele>8.6</ele>
        <time>2021-05-16T09:43:44Z</time>
      </trkpt>
      <trkpt lat="41.2995170" lon="-8.7370220">
        <ele>8.6</ele>
        <time>2021-05-16T09:43:45Z</time>
      </trkpt>
      <trkpt lat="41.2995170" lon="-8.7370220">
        <ele>8.6</ele>
        <time>2021-05-16T09:43:46Z</time>
      </trkpt>
      <trkpt lat="41.2995180" lon="-8.7370220">
        <ele>8.6</ele>
        <time>2021-05-16T09:43:47Z</time>
      </trkpt>
      <trkpt lat="41.2995180" lon="-8.7370220">
        <ele>8.6</ele>
        <time>2021-05-16T09:43:48Z</time>
      </trkpt>
      <trkpt lat="41.2995180" lon="-8.7370220">
        <ele>8.6</ele>
        <time>2021-05-16T09:43:49Z</time>
      </trkpt>
      <trkpt lat="41.2995180" lon="-8.7370220">
        <ele>8.6</ele>
        <time>2021-05-16T09:43:50Z</time>
      </trkpt>
      <trkpt lat="41.2995180" lon="-8.7370220">
        <ele>8.6</ele>
        <time>2021-05-16T09:43:51Z</time>
      </trkpt>
      <trkpt lat="41.2995180" lon="-8.7370220">
        <ele>8.6</ele>
        <time>2021-05-16T09:43:52Z</time>
      </trkpt>
      <trkpt lat="41.2995190" lon="-8.7370220">
        <ele>8.6</ele>
        <time>2021-05-16T09:43:53Z</time>
      </trkpt>
      <trkpt lat="41.2995190" lon="-8.7370220">
        <ele>8.6</ele>
        <time>2021-05-16T09:43:54Z</time>
      </trkpt>
      <trkpt lat="41.2995190" lon="-8.7370220">
        <ele>8.6</ele>
        <time>2021-05-16T09:43:55Z</time>
      </trkpt>
      <trkpt lat="41.2995190" lon="-8.7370220">
        <ele>8.6</ele>
        <time>2021-05-16T09:43:56Z</time>
      </trkpt>
      <trkpt lat="41.2995190" lon="-8.7370220">
        <ele>8.6</ele>
        <time>2021-05-16T09:43:57Z</time>
      </trkpt>
      <trkpt lat="41.2995200" lon="-8.7370220">
        <ele>8.6</ele>
        <time>2021-05-16T09:43:58Z</time>
      </trkpt>
      <trkpt lat="41.2995200" lon="-8.7370220">
        <ele>8.6</ele>
        <time>2021-05-16T09:43:59Z</time>
      </trkpt>
      <trkpt lat="41.2995200" lon="-8.7370220">
        <ele>8.6</ele>
        <time>2021-05-16T09:44:00Z</time>
      </trkpt>
      <trkpt lat="41.2995200" lon="-8.7370220">
        <ele>8.6</ele>
        <time>2021-05-16T09:44:01Z</time>
      </trkpt>
      <trkpt lat="41.2995200" lon="-8.7370220">
        <ele>8.6</ele>
        <time>2021-05-16T09:44:02Z</time>
      </trkpt>
      <trkpt lat="41.2995200" lon="-8.7370220">
        <ele>8.6</ele>
        <time>2021-05-16T09:44:03Z</time>
      </trkpt>
      <trkpt lat="41.2995210" lon="-8.7370220">
        <ele>8.6</ele>
        <time>2021-05-16T09:44:04Z</time>
      </trkpt>
      <trkpt lat="41.2995210" lon="-8.7370220">
        <ele>8.6</ele>
        <time>2021-05-16T09:44:05Z</time>
      </trkpt>
      <trkpt lat="41.2995210" lon="-8.7370220">
        <ele>8.6</ele>
        <time>2021-05-16T09:44:06Z</time>
      </trkpt>
      <trkpt lat="41.2995210" lon="-8.7370220">
        <ele>8.6</ele>
        <time>2021-05-16T09:44:07Z</time>
      </trkpt>
      <trkpt lat="41.2995210" lon="-8.7370220">
        <ele>8.6</ele>
        <time>2021-05-16T09:44:08Z</time>
      </trkpt>
      <trkpt lat="41.2995220" lon="-8.7370220">
        <ele>8.6</ele>
        <time>2021-05-16T09:44:09Z</time>
      </trkpt>
      <trkpt lat="41.2995220" lon="-8.7370220">
        <ele>8.6</ele>
        <time>2021-05-16T09:44:10Z</time>
      </trkpt>
      <trkpt lat="41.2995220" lon="-8.7370220">
        <ele>8.6</ele>
        <time>2021-05-16T09:44:11Z</time>
      </trkpt>
      <trkpt lat="41.2995220" lon="-8.7370220">
        <ele>8.6</ele>
        <time>2021-05-16T09:44:12Z</time>
      </trkpt>
      <trkpt lat="41.2995220" lon="-8.7370220">
        <ele>8.6</ele>
        <time>2021-05-16T09:44:13Z</time>
      </trkpt>
      <trkpt lat="41.2995220" lon="-8.7370220">
        <ele>8.6</ele>
        <time>2021-05-16T09:44:14Z</time>
      </trkpt>
      <trkpt lat="41.2995230" lon="-8.7370220">
        <ele>8.6</ele>
        <time>2021-05-16T09:44:15Z</time>
      </trkpt>
      <trkpt lat="41.2995230" lon="-8.7370220">
        <ele>8.6</ele>
        <time>2021-05-16T09:44:16Z</time>
      </trkpt>
      <trkpt lat="41.2995230" lon="-8.7370220">
        <ele>8.6</ele>
        <time>2021-05-16T09:44:17Z</time>
      </trkpt>
      <trkpt lat="41.2995230" lon="-8.7370220">
        <ele>8.6</ele>
        <time>2021-05-16T09:44:18Z</time>
      </trkpt>
      <trkpt lat="41.2995230" lon="-8.7370220">
        <ele>8.6</ele>
        <time>2021-05-16T09:44:19Z</time>
      </trkpt>
      <trkpt lat="41.2995240" lon="-8.7370220">
        <ele>8.6</ele>
        <time>2021-05-16T09:44:20Z</time>
      </trkpt>
      <trkpt lat="41.2995240" lon="-8.7370220">
        <ele>8.6</ele>
        <time>2021-05-16T09:44:21Z</time>
      </trkpt>
      <trkpt lat="41.2995240" lon="-8.7370220">
        <ele>8.6</ele>
        <time>2021-05-16T09:44:22Z</time>
      </trkpt>
      <trkpt lat="41.2995240" lon="-8.7370220">
        <ele>8.6</ele>
        <time>2021-05-16T09:44:23Z</time>
      </trkpt>
      <trkpt lat="41.2995240" lon="-8.7370220">
        <ele>8.6</ele>
        <time>2021-05-16T09:44:24Z</time>
      </trkpt>
      <trkpt lat="41.2995240" lon="-8.7370220">
        <ele>8.6</ele>
        <time>2021-05-16T09:44:25Z</time>
      </trkpt>
      <trkpt lat="41.2995250" lon="-8.7370220">
        <ele>8.6</ele>
        <time>2021-05-16T09:44:26Z</time>
      </trkpt>
      <trkpt lat="41.2995250" lon="-8.7370220">
        <ele>8.6</ele>
        <time>2021-05-16T09:44:27Z</time>
      </trkpt>
      <trkpt lat="41.2995250" lon="-8.7370220">
        <ele>8.6</ele>
        <time>2021-05-16T09:44:28Z</time>
      </trkpt>
      <trkpt lat="41.2995250" lon="-8.7370220">
        <ele>8.6</ele>
        <time>2021-05-16T09:44:29Z</time>
      </trkpt>
      <trkpt lat="41.2995250" lon="-8.7370220">
        <ele>8.6</ele>
        <time>2021-05-16T09:44:30Z</time>
      </trkpt>
      <trkpt lat="41.2995260" lon="-8.7370220">
        <ele>8.6</ele>
        <time>2021-05-16T09:44:31Z</time>
      </trkpt>
      <trkpt lat="41.2995260" lon="-8.7370220">
        <ele>8.6</ele>
        <time>2021-05-16T09:44:32Z</time>
      </trkpt>
      <trkpt lat="41.2995260" lon="-8.7370220">
        <ele>8.6</ele>
        <time>2021-05-16T09:44:33Z</time>
      </trkpt>
      <trkpt lat="41.2995260" lon="-8.7370220">
        <ele>8.6</ele>
        <time>2021-05-16T09:44:34Z</time>
      </trkpt>
      <trkpt lat="41.2995260" lon="-8.7370220">
        <ele>8.6</ele>
        <time>2021-05-16T09:44:35Z</time>
      </trkpt>
      <trkpt lat="41.2995270" lon="-8.7370220">
        <ele>8.6</ele>
        <time>2021-05-16T09:44:36Z</time>
      </trkpt>
      <trkpt lat="41.2995270" lon="-8.7370220">
        <ele>8.6</ele>
        <time>2021-05-16T09:44:37Z</time>
      </trkpt>
      <trkpt lat="41.2995270" lon="-8.7370220">
        <ele>8.6</ele>
        <time>2021-05-16T09:44:38Z</time>
      </trkpt>
      <trkpt lat="41.2995270" lon="-8.7370220">
        <ele>8.6</ele>
        <time>2021-05-16T09:44:39Z</time>
      </trkpt>
      <trkpt lat="41.2995270" lon="-8.7370220">
        <ele>8.6</ele>
        <time>2021-05-16T09:44:40Z</time>
      </trkpt>
      <trkpt lat="41.2995270" lon="-8.7370220">
        <ele>8.6</ele>
        <time>2021-05-16T09:44:41Z</time>
      </trkpt>
      <trkpt lat="41.2995280" lon="-8.7370220">
        <ele>8.6</ele>
        <time>2021-05-16T09:44:42Z</time>
      </trkpt>
      <trkpt lat="41.2995280" lon="-8.7370220">
        <ele>8.6</ele>
        <time>2021-05-16T09:44:43Z</time>
      </trkpt>
      <trkpt lat="41.2995280" lon="-8.7370220">
        <ele>8.6</ele>
        <time>2021-05-16T09:44:44Z</time>
      </trkpt>
      <trkpt lat="41.2995280" lon="-8.7370220">
        <ele>8.6</ele>
        <time>2021-05-16T09:44:45Z</time>
      </trkpt>
      <trkpt lat="41.2995280" lon="-8.7370220">
        <ele>8.6</ele>
        <time>2021-05-16T09:44:46Z</time>
      </trkpt>
      <trkpt lat="41.2995290" lon="-8.7370220">
        <ele>8.6</ele>
        <time>2021-05-16T09:44:47Z</time>
      </trkpt>
      <trkpt lat="41.2995290" lon="-8.7370220">
        <ele>8.6</ele>
        <time>2021-05-16T09:44:48Z</time>
      </trkpt>
      <trkpt lat="41.2995290" lon="-8.7370220">
        <ele>8.6</ele>
        <time>2021-05-16T09:44:49Z</time>
      </trkpt>
      <trkpt lat="41.2995290" lon="-8.7370220">
        <ele>8.6</ele>
        <time>2021-05-16T09:44:50Z</time>
      </trkpt>
      <trkpt lat="41.2995290" lon="-8.7370220">
        <ele>8.6</ele>
        <time>2021-05-16T09:44:51Z</time>
      </trkpt>
      <trkpt lat="41.2995290" lon="-8.7370220">
        <ele>8.6</ele>
        <time>2021-05-16T09:44:52Z</time>
      </trkpt>
      <trkpt lat="41.2995300" lon="-8.7370220">
        <ele>8.6</ele>
        <time>2021-05-16T09:44:53Z</time>
      </trkpt>
      <trkpt lat="41.2995300" lon="-8.7370220">
        <ele>8.6</ele>
        <time>2021-05-16T09:44:54Z</time>
      </trkpt>
      <trkpt lat="41.2995300" lon="-8.7370220">
        <ele>8.6</ele>
        <time>2021-05-16T09:44:55Z</time>
      </trkpt>
      <trkpt lat="41.2995300" lon="-8.7370220">
        <ele>8.6</ele>
        <time>2021-05-16T09:44:56Z</time>
      </trkpt>
      <trkpt lat="41.2995300" lon="-8.7370220">
        <ele>8.6</ele>
        <time>2021-05-16T09:44:57Z</time>
      </trkpt>
      <trkpt lat="41.2995310" lon="-8.7370220">
        <ele>8.6</ele>
        <time>2021-05-16T09:44:58Z</time>
      </trkpt>
      <trkpt lat="41.2995310" lon="-8.7370220">
        <ele>8.6</ele>
        <time>2021-05-16T09:44:59Z</time>
      </trkpt>
      <trkpt lat="41.2995310" lon="-8.7370220">
        <ele>8.6</ele>
        <time>2021-05-16T09:45:00Z</time>
      </trkpt>
      <trkpt lat="41.2995310" lon="-8.7370220">
        <ele>8.6</ele>
        <time>2021-05-16T09:45:01Z</time>
      </trkpt>
      <trkpt lat="41.2995310" lon="-8.7370220">
        <ele>8.6</ele>
        <time>2021-05-16T09:45:02Z</time>
      </trkpt>
      <trkpt lat="41.2995310" lon="-8.7370220">
        <ele>8.6</ele>
        <time>2021-05-16T09:45:03Z</time>
      </trkpt>
      <trkpt lat="41.2995320" lon="-8.7370220">
        <ele>8.6</ele>
        <time>2021-05-16T09:45:04Z</time>
      </trkpt>
      <trkpt lat="41.2995320" lon="-8.7370220">
        <ele>8.6</ele>
        <time>2021-05-16T09:45:05Z</time>
      </trkpt>
      <trkpt lat="41.2995320" lon="-8.7370220">
        <ele>8.6</ele>
        <time>2021-05-16T09:45:06Z</time>
      </trkpt>
      <trkpt lat="41.2995320" lon="-8.7370220">
        <ele>8.6</ele>
        <time>2021-05-16T09:45:07Z</time>
      </trkpt>
      <trkpt lat="41.2995320" lon="-8.7370220">
        <ele>8.6</ele>
        <time>2021-05-16T09:45:08Z</time>
      </trkpt>
      <trkpt lat="41.2995330" lon="-8.7370220">
        <ele>8.6</ele>
        <time>2021-05-16T09:45:09Z</time>
      </trkpt>
      <trkpt lat="41.2995330" lon="-8.7370220">
        <ele>8.6</ele>
        <time>2021-05-16T09:45:10Z</time>
      </trkpt>
      <trkpt lat="41.2995330" lon="-8.7370220">
        <ele>8.6</ele>
        <time>2021-05-16T09:45:11Z</time>
      </trkpt>
      <trkpt lat="41.2995330" lon="-8.7370220">
        <ele>8.6</ele>
        <time>2021-05-16T09:45:12Z</time>
      </trkpt>
      <trkpt lat="41.2995330" lon="-8.7370220">
        <ele>8.6</ele>
        <time>2021-05-16T09:45:13Z</time>
      </trkpt>
      <trkpt lat="41.2995330" lon="-8.7370220">
        <ele>8.6</ele>
        <time>2021-05-16T09:45:14Z</time>
      </trkpt>
      <trkpt lat="41.2995340" lon="-8.7370220">
        <ele>8.6</ele>
        <time>2021-05-16T09:45:15Z</time>
      </trkpt>
      <trkpt lat="41.2995340" lon="-8.7370220">
        <ele>8.6</ele>
        <time>2021-05-16T09:45:16Z</time>
      </trkpt>
      <trkpt lat="41.2995340" lon="-8.7370220">
        <ele>8.6</ele>
        <time>2021-05-16T09:45:17Z</time>
      </trkpt>
      <trkpt lat="41.2995340" lon="-8.7370220">
        <ele>8.6</ele>
        <time>2021-05-16T09:45:18Z</time>
      </trkpt>
      <trkpt lat="41.2995340" lon="-8.7370220">
        <ele>8.6</ele>
        <time>2021-05-16T09:45:19Z</time>
      </trkpt>
      <trkpt lat="41.2995350" lon="-8.7370220">
        <ele>8.6</ele>
        <time>2021-05-16T09:45:20Z</time>
      </trkpt>
      <trkpt lat="41.2995350" lon="-8.7370220">
        <ele>8.6</ele>
        <time>2021-05-16T09:45:21Z</time>
      </trkpt>
      <trkpt lat="41.2995350" lon="-8.7370220">
        <ele>8.6</ele>
        <time>2021-05-16T09:45:22Z</time>
      </trkpt>
      <trkpt lat="41.2995350" lon="-8.7370220">
        <ele>8.6</ele>
        <time>2021-05-16T09:45:23Z</time>
      </trkpt>
      <trkpt lat="41.2995350" lon="-8.7370220">
        <ele>8.6</ele>
        <time>2021-05-16T09:45:24Z</time>
      </trkpt>
      <trkpt lat="41.2995350" lon="-8.7370220">
        <ele>8.6</ele>
        <time>2021-05-16T09:45:25Z</time>
      </trkpt>
      <trkpt lat="41.2995360" lon="-8.7370220">
        <ele>8.6</ele>
        <time>2021-05-16T09:45:26Z</time>
      </trkpt>
      <trkpt lat="41.2995360" lon="-8.7370220">
        <ele>8.6</ele>
        <time>2021-05-16T09:45:27Z</time>
      </trkpt>
      <trkpt lat="41.2995360" lon="-8.7370220">
        <ele>8.6</ele>
        <time>2021-05-16T09:45:28Z</time>
      </trkpt>
      <trkpt lat="41.2995360" lon="-8.7370230">
        <ele>8.6</ele>
        <time>2021-05-16T09:45:29Z</time>
      </trkpt>
      <trkpt lat="41.2995360" lon="-8.7370230">
        <ele>8.6</ele>
        <time>2021-05-16T09:45:30Z</time>
      </trkpt>
      <trkpt lat="41.2995370" lon="-8.7370230">
        <ele>8.6</ele>
        <time>2021-05-16T09:45:31Z</time>
      </trkpt>
      <trkpt lat="41.2995370" lon="-8.7370230">
        <ele>8.6</ele>
        <time>2021-05-16T09:45:32Z</time>
      </trkpt>
      <trkpt lat="41.2995370" lon="-8.7370230">
        <ele>8.6</ele>
        <time>2021-05-16T09:45:33Z</time>
      </trkpt>
      <trkpt lat="41.2995370" lon="-8.7370230">
        <ele>8.6</ele>
        <time>2021-05-16T09:45:34Z</time>
      </trkpt>
      <trkpt lat="41.2995370" lon="-8.7370230">
        <ele>8.6</ele>
        <time>2021-05-16T09:45:35Z</time>
      </trkpt>
      <trkpt lat="41.2995370" lon="-8.7370230">
        <ele>8.6</ele>
        <time>2021-05-16T09:45:36Z</time>
      </trkpt>
      <trkpt lat="41.2995380" lon="-8.7370230">
        <ele>8.6</ele>
        <time>2021-05-16T09:45:37Z</time>
      </trkpt>
      <trkpt lat="41.2995380" lon="-8.7370230">
        <ele>8.6</ele>
        <time>2021-05-16T09:45:38Z</time>
      </trkpt>
      <trkpt lat="41.2995380" lon="-8.7370230">
        <ele>8.6</ele>
        <time>2021-05-16T09:45:39Z</time>
      </trkpt>
      <trkpt lat="41.2995380" lon="-8.7370230">
        <ele>8.6</ele>
        <time>2021-05-16T09:45:40Z</time>
      </trkpt>
      <trkpt lat="41.2995380" lon="-8.7370230">
        <ele>8.6</ele>
        <time>2021-05-16T09:45:41Z</time>
      </trkpt>
      <trkpt lat="41.2995390" lon="-8.7370230">
        <ele>8.6</ele>
        <time>2021-05-16T09:45:42Z</time>
      </trkpt>
      <trkpt lat="41.2995390" lon="-8.7370230">
        <ele>8.6</ele>
        <time>2021-05-16T09:45:43Z</time>
      </trkpt>
      <trkpt lat="41.2995390" lon="-8.7370230">
        <ele>8.6</ele>
        <time>2021-05-16T09:45:44Z</time>
      </trkpt>
      <trkpt lat="41.2995390" lon="-8.7370230">
        <ele>8.6</ele>
        <time>2021-05-16T09:45:45Z</time>
      </trkpt>
      <trkpt lat="41.2995390" lon="-8.7370230">
        <ele>8.6</ele>
        <time>2021-05-16T09:45:46Z</time>
      </trkpt>
      <trkpt lat="41.2995390" lon="-8.7370230">
        <ele>8.6</ele>
        <time>2021-05-16T09:45:47Z</time>
      </trkpt>
      <trkpt lat="41.2995400" lon="-8.7370230">
        <ele>8.6</ele>
        <time>2021-05-16T09:45:48Z</time>
      </trkpt>
      <trkpt lat="41.2995400" lon="-8.7370230">
        <ele>8.6</ele>
        <time>2021-05-16T09:45:49Z</time>
      </trkpt>
      <trkpt lat="41.2995400" lon="-8.7370230">
        <ele>8.6</ele>
        <time>2021-05-16T09:45:50Z</time>
      </trkpt>
      <trkpt lat="41.2995400" lon="-8.7370230">
        <ele>8.6</ele>
        <time>2021-05-16T09:45:51Z</time>
      </trkpt>
      <trkpt lat="41.2995400" lon="-8.7370230">
        <ele>8.6</ele>
        <time>2021-05-16T09:45:52Z</time>
      </trkpt>
      <trkpt lat="41.2995410" lon="-8.7370230">
        <ele>8.6</ele>
        <time>2021-05-16T09:45:53Z</time>
      </trkpt>
      <trkpt lat="41.2995410" lon="-8.7370230">
        <ele>8.6</ele>
        <time>2021-05-16T09:45:54Z</time>
      </trkpt>
      <trkpt lat="41.2995410" lon="-8.7370230">
        <ele>8.6</ele>
        <time>2021-05-16T09:45:55Z</time>
      </trkpt>
      <trkpt lat="41.2995410" lon="-8.7370230">
        <ele>8.6</ele>
        <time>2021-05-16T09:45:56Z</time>
      </trkpt>
      <trkpt lat="41.2995410" lon="-8.7370230">
        <ele>8.6</ele>
        <time>2021-05-16T09:45:57Z</time>
      </trkpt>
      <trkpt lat="41.2995410" lon="-8.7370230">
        <ele>8.6</ele>
        <time>2021-05-16T09:45:58Z</time>
      </trkpt>
      <trkpt lat="41.2995420" lon="-8.7370230">
        <ele>8.6</ele>
        <time>2021-05-16T09:45:59Z</time>
      </trkpt>
      <trkpt lat="41.2995420" lon="-8.7370230">
        <ele>8.6</ele>
        <time>2021-05-16T09:46:00Z</time>
      </trkpt>
      <trkpt lat="41.2995420" lon="-8.7370230">
        <ele>8.6</ele>
        <time>2021-05-16T09:46:01Z</time>
      </trkpt>
      <trkpt lat="41.2995420" lon="-8.7370230">
        <ele>8.6</ele>
        <time>2021-05-16T09:46:02Z</time>
      </trkpt>
      <trkpt lat="41.2995420" lon="-8.7370230">
        <ele>8.6</ele>
        <time>2021-05-16T09:46:03Z</time>
      </trkpt>
      <trkpt lat="41.2995430" lon="-8.7370230">
        <ele>8.6</ele>
        <time>2021-05-16T09:46:04Z</time>
      </trkpt>
      <trkpt lat="41.2995430" lon="-8.7370230">
        <ele>8.6</ele>
        <time>2021-05-16T09:46:05Z</time>
      </trkpt>
      <trkpt lat="41.2995430" lon="-8.7370230">
        <ele>8.6</ele>
        <time>2021-05-16T09:46:06Z</time>
      </trkpt>
      <trkpt lat="41.2995430" lon="-8.7370230">
        <ele>8.6</ele>
        <time>2021-05-16T09:46:07Z</time>
      </trkpt>
      <trkpt lat="41.2995430" lon="-8.7370230">
        <ele>8.6</ele>
        <time>2021-05-16T09:46:08Z</time>
      </trkpt>
      <trkpt lat="41.2995430" lon="-8.7370230">
        <ele>8.6</ele>
        <time>2021-05-16T09:46:09Z</time>
      </trkpt>
      <trkpt lat="41.2995440" lon="-8.7370230">
        <ele>8.6</ele>
        <time>2021-05-16T09:46:10Z</time>
      </trkpt>
      <trkpt lat="41.2995440" lon="-8.7370230">
        <ele>8.6</ele>
        <time>2021-05-16T09:46:11Z</time>
      </trkpt>
      <trkpt lat="41.2995440" lon="-8.7370230">
        <ele>8.6</ele>
        <time>2021-05-16T09:46:12Z</time>
      </trkpt>
      <trkpt lat="41.2995440" lon="-8.7370230">
        <ele>8.6</ele>
        <time>2021-05-16T09:46:13Z</time>
      </trkpt>
      <trkpt lat="41.2995440" lon="-8.7370230">
        <ele>8.6</ele>
        <time>2021-05-16T09:46:14Z</time>
      </trkpt>
      <trkpt lat="41.2995450" lon="-8.7370230">
        <ele>8.6</ele>
        <time>2021-05-16T09:46:15Z</time>
      </trkpt>
      <trkpt lat="41.2995450" lon="-8.7370230">
        <ele>8.6</ele>
        <time>2021-05-16T09:46:16Z</time>
      </trkpt>
      <trkpt lat="41.2995450" lon="-8.7370230">
        <ele>8.6</ele>
        <time>2021-05-16T09:46:17Z</time>
      </trkpt>
      <trkpt lat="41.2995450" lon="-8.7370230">
        <ele>8.6</ele>
        <time>2021-05-16T09:46:18Z</time>
      </trkpt>
      <trkpt lat="41.2995450" lon="-8.7370230">
        <ele>8.6</ele>
        <time>2021-05-16T09:46:19Z</time>
      </trkpt>
      <trkpt lat="41.2995450" lon="-8.7370230">
        <ele>8.6</ele>
        <time>2021-05-16T09:46:20Z</time>
      </trkpt>
      <trkpt lat="41.2995460" lon="-8.7370230">
        <ele>8.6</ele>
        <time>2021-05-16T09:46:21Z</time>
      </trkpt>
      <trkpt lat="41.2995460" lon="-8.7370230">
        <ele>8.6</ele>
        <time>2021-05-16T09:46:22Z</time>
      </trkpt>
      <trkpt lat="41.2995460" lon="-8.7370230">
        <ele>8.6</ele>
        <time>2021-05-16T09:46:23Z</time>
      </trkpt>
      <trkpt lat="41.2995460" lon="-8.7370230">
        <ele>8.6</ele>
        <time>2021-05-16T09:46:24Z</time>
      </trkpt>
      <trkpt lat="41.2995460" lon="-8.7370230">
        <ele>8.6</ele>
        <time>2021-05-16T09:46:25Z</time>
      </trkpt>
      <trkpt lat="41.2995470" lon="-8.7370230">
        <ele>8.6</ele>
        <time>2021-05-16T09:46:26Z</time>
      </trkpt>
      <trkpt lat="41.2995470" lon="-8.7370230">
        <ele>8.6</ele>
        <time>2021-05-16T09:46:27Z</time>
      </trkpt>
      <trkpt lat="41.2995470" lon="-8.7370230">
        <ele>8.6</ele>
        <time>2021-05-16T09:46:28Z</time>
      </trkpt>
      <trkpt lat="41.2995470" lon="-8.7370230">
        <ele>8.6</ele>
        <time>2021-05-16T09:46:29Z</time>
      </trkpt>
      <trkpt lat="41.2995470" lon="-8.7370230">
        <ele>8.6</ele>
        <time>2021-05-16T09:46:30Z</time>
      </trkpt>
      <trkpt lat="41.2995480" lon="-8.7370230">
        <ele>8.6</ele>
        <time>2021-05-16T09:46:31Z</time>
      </trkpt>
      <trkpt lat="41.2995480" lon="-8.7370230">
        <ele>8.6</ele>
        <time>2021-05-16T09:46:32Z</time>
      </trkpt>
      <trkpt lat="41.2995480" lon="-8.7370230">
        <ele>8.6</ele>
        <time>2021-05-16T09:46:33Z</time>
      </trkpt>
      <trkpt lat="41.2995480" lon="-8.7370230">
        <ele>8.6</ele>
        <time>2021-05-16T09:46:34Z</time>
      </trkpt>
      <trkpt lat="41.2995480" lon="-8.7370230">
        <ele>8.6</ele>
        <time>2021-05-16T09:46:35Z</time>
      </trkpt>
      <trkpt lat="41.2995480" lon="-8.7370230">
        <ele>8.6</ele>
        <time>2021-05-16T09:46:36Z</time>
      </trkpt>
      <trkpt lat="41.2995490" lon="-8.7370230">
        <ele>8.6</ele>
        <time>2021-05-16T09:46:37Z</time>
      </trkpt>
      <trkpt lat="41.2995490" lon="-8.7370230">
        <ele>8.6</ele>
        <time>2021-05-16T09:46:38Z</time>
      </trkpt>
      <trkpt lat="41.2995490" lon="-8.7370230">
        <ele>8.6</ele>
        <time>2021-05-16T09:46:39Z</time>
      </trkpt>
      <trkpt lat="41.2995490" lon="-8.7370230">
        <ele>8.6</ele>
        <time>2021-05-16T09:46:40Z</time>
      </trkpt>
      <trkpt lat="41.2995490" lon="-8.7370230">
        <ele>8.6</ele>
        <time>2021-05-16T09:46:41Z</time>
      </trkpt>
      <trkpt lat="41.2995500" lon="-8.7370230">
        <ele>8.6</ele>
        <time>2021-05-16T09:46:42Z</time>
      </trkpt>
      <trkpt lat="41.2995500" lon="-8.7370230">
        <ele>8.6</ele>
        <time>2021-05-16T09:46:43Z</time>
      </trkpt>
      <trkpt lat="41.2995500" lon="-8.7370230">
        <ele>8.6</ele>
        <time>2021-05-16T09:46:44Z</time>
      </trkpt>
      <trkpt lat="41.2995500" lon="-8.7370230">
        <ele>8.6</ele>
        <time>2021-05-16T09:46:45Z</time>
      </trkpt>
      <trkpt lat="41.2995500" lon="-8.7370230">
        <ele>8.6</ele>
        <time>2021-05-16T09:46:46Z</time>
      </trkpt>
      <trkpt lat="41.2995500" lon="-8.7370230">
        <ele>8.6</ele>
        <time>2021-05-16T09:46:47Z</time>
      </trkpt>
      <trkpt lat="41.2995510" lon="-8.7370230">
        <ele>8.6</ele>
        <time>2021-05-16T09:46:48Z</time>
      </trkpt>
      <trkpt lat="41.2995510" lon="-8.7370230">
        <ele>8.6</ele>
        <time>2021-05-16T09:46:49Z</time>
      </trkpt>
      <trkpt lat="41.2995510" lon="-8.7370230">
        <ele>8.6</ele>
        <time>2021-05-16T09:46:50Z</time>
      </trkpt>
      <trkpt lat="41.2995510" lon="-8.7370230">
        <ele>8.6</ele>
        <time>2021-05-16T09:46:51Z</time>
      </trkpt>
      <trkpt lat="41.2995510" lon="-8.7370230">
        <ele>8.6</ele>
        <time>2021-05-16T09:46:52Z</time>
      </trkpt>
      <trkpt lat="41.2995520" lon="-8.7370230">
        <ele>8.6</ele>
        <time>2021-05-16T09:46:53Z</time>
      </trkpt>
      <trkpt lat="41.2995520" lon="-8.7370230">
        <ele>8.6</ele>
        <time>2021-05-16T09:46:54Z</time>
      </trkpt>
      <trkpt lat="41.2995520" lon="-8.7370230">
        <ele>8.6</ele>
        <time>2021-05-16T09:46:55Z</time>
      </trkpt>
      <trkpt lat="41.2995520" lon="-8.7370230">
        <ele>8.6</ele>
        <time>2021-05-16T09:46:56Z</time>
      </trkpt>
      <trkpt lat="41.2995520" lon="-8.7370230">
        <ele>8.6</ele>
        <time>2021-05-16T09:46:57Z</time>
      </trkpt>
      <trkpt lat="41.2995520" lon="-8.7370230">
        <ele>8.6</ele>
        <time>2021-05-16T09:46:58Z</time>
      </trkpt>
      <trkpt lat="41.2995530" lon="-8.7370230">
        <ele>8.6</ele>
        <time>2021-05-16T09:46:59Z</time>
      </trkpt>
      <trkpt lat="41.2995530" lon="-8.7370230">
        <ele>8.6</ele>
        <time>2021-05-16T09:47:00Z</time>
      </trkpt>
      <trkpt lat="41.2995530" lon="-8.7370230">
        <ele>8.6</ele>
        <time>2021-05-16T09:47:01Z</time>
      </trkpt>
      <trkpt lat="41.2995530" lon="-8.7370230">
        <ele>8.6</ele>
        <time>2021-05-16T09:47:02Z</time>
      </trkpt>
      <trkpt lat="41.2995530" lon="-8.7370230">
        <ele>8.6</ele>
        <time>2021-05-16T09:47:03Z</time>
      </trkpt>
      <trkpt lat="41.2995540" lon="-8.7370230">
        <ele>8.6</ele>
        <time>2021-05-16T09:47:04Z</time>
      </trkpt>
      <trkpt lat="41.2995540" lon="-8.7370230">
        <ele>8.6</ele>
        <time>2021-05-16T09:47:05Z</time>
      </trkpt>
      <trkpt lat="41.2995540" lon="-8.7370230">
        <ele>8.6</ele>
        <time>2021-05-16T09:47:06Z</time>
      </trkpt>
      <trkpt lat="41.2995540" lon="-8.7370230">
        <ele>8.6</ele>
        <time>2021-05-16T09:47:07Z</time>
      </trkpt>
      <trkpt lat="41.2995540" lon="-8.7370230">
        <ele>8.6</ele>
        <time>2021-05-16T09:47:08Z</time>
      </trkpt>
      <trkpt lat="41.2995540" lon="-8.7370230">
        <ele>8.6</ele>
        <time>2021-05-16T09:47:09Z</time>
      </trkpt>
      <trkpt lat="41.2995550" lon="-8.7370230">
        <ele>8.6</ele>
        <time>2021-05-16T09:47:10Z</time>
      </trkpt>
      <trkpt lat="41.2995550" lon="-8.7370230">
        <ele>8.6</ele>
        <time>2021-05-16T09:47:11Z</time>
      </trkpt>
      <trkpt lat="41.2995550" lon="-8.7370230">
        <ele>8.6</ele>
        <time>2021-05-16T09:47:12Z</time>
      </trkpt>
      <trkpt lat="41.2995550" lon="-8.7370230">
        <ele>8.6</ele>
        <time>2021-05-16T09:47:13Z</time>
      </trkpt>
      <trkpt lat="41.2995550" lon="-8.7370230">
        <ele>8.6</ele>
        <time>2021-05-16T09:47:14Z</time>
      </trkpt>
      <trkpt lat="41.2995560" lon="-8.7370230">
        <ele>8.6</ele>
        <time>2021-05-16T09:47:15Z</time>
      </trkpt>
      <trkpt lat="41.2995560" lon="-8.7370230">
        <ele>8.6</ele>
        <time>2021-05-16T09:47:16Z</time>
      </trkpt>
      <trkpt lat="41.2995560" lon="-8.7370230">
        <ele>8.6</ele>
        <time>2021-05-16T09:47:17Z</time>
      </trkpt>
      <trkpt lat="41.2995560" lon="-8.7370230">
        <ele>8.6</ele>
        <time>2021-05-16T09:47:18Z</time>
      </trkpt>
      <trkpt lat="41.2995560" lon="-8.7370230">
        <ele>8.6</ele>
        <time>2021-05-16T09:47:19Z</time>
      </trkpt>
      <trkpt lat="41.2995560" lon="-8.7370230">
        <ele>8.6</ele>
        <time>2021-05-16T09:47:20Z</time>
      </trkpt>
      <trkpt lat="41.2995570" lon="-8.7370230">
        <ele>8.6</ele>
        <time>2021-05-16T09:47:21Z</time>
      </trkpt>
      <trkpt lat="41.2995570" lon="-8.7370230">
        <ele>8.6</ele>
        <time>2021-05-16T09:47:22Z</time>
      </trkpt>
      <trkpt lat="41.2995570" lon="-8.7370230">
        <ele>8.6</ele>
        <time>2021-05-16T09:47:23Z</time>
      </trkpt>
      <trkpt lat="41.2995710" lon="-8.7370240">
        <ele>8.7</ele>
        <time>2021-05-16T09:47:24Z</time>
      </trkpt>
      <trkpt lat="41.2995850" lon="-8.7370280">
        <ele>8.7</ele>
        <time>2021-05-16T09:47:25Z</time>
      </trkpt>
      <trkpt lat="41.2996050" lon="-8.7370330">
        <ele>8.7</ele>
        <time>2021-05-16T09:47:26Z</time>
      </trkpt>
      <trkpt lat="41.2996140" lon="-8.7370370">
        <ele>8.7</ele>
        <time>2021-05-16T09:47:27Z</time>
      </trkpt>
      <trkpt lat="41.2996220" lon="-8.7370400">
        <ele>8.7</ele>
        <time>2021-05-16T09:47:28Z</time>
      </trkpt>
      <trkpt lat="41.2996530" lon="-8.7370470">
        <ele>8.7</ele>
        <time>2021-05-16T09:47:29Z</time>
      </trkpt>
      <trkpt lat="41.2996620" lon="-8.7370490">
        <ele>8.7</ele>
        <time>2021-05-16T09:47:30Z</time>
      </trkpt>
      <trkpt lat="41.2996770" lon="-8.7370530">
        <ele>8.7</ele>
        <time>2021-05-16T09:47:31Z</time>
      </trkpt>
      <trkpt lat="41.2996890" lon="-8.7370580">
        <ele>8.7</ele>
        <time>2021-05-16T09:47:32Z</time>
      </trkpt>
      <trkpt lat="41.2997040" lon="-8.7370610">
        <ele>8.7</ele>
        <time>2021-05-16T09:47:33Z</time>
      </trkpt>
      <trkpt lat="41.2997230" lon="-8.7370640">
        <ele>8.7</ele>
        <time>2021-05-16T09:47:34Z</time>
      </trkpt>
      <trkpt lat="41.2997370" lon="-8.7370680">
        <ele>8.8</ele>
        <time>2021-05-16T09:47:35Z</time>
      </trkpt>
      <trkpt lat="41.2997530" lon="-8.7370680">
        <ele>8.8</ele>
        <time>2021-05-16T09:47:36Z</time>
      </trkpt>
      <trkpt lat="41.2997680" lon="-8.7370710">
        <ele>8.8</ele>
        <time>2021-05-16T09:47:37Z</time>
      </trkpt>
      <trkpt lat="41.2997830" lon="-8.7370780">
        <ele>8.8</ele>
        <time>2021-05-16T09:47:38Z</time>
      </trkpt>
      <trkpt lat="41.2997980" lon="-8.7370850">
        <ele>8.8</ele>
        <time>2021-05-16T09:47:39Z</time>
      </trkpt>
      <trkpt lat="41.2998130" lon="-8.7370880">
        <ele>8.9</ele>
        <time>2021-05-16T09:47:40Z</time>
      </trkpt>
      <trkpt lat="41.2998270" lon="-8.7370920">
        <ele>8.9</ele>
        <time>2021-05-16T09:47:41Z</time>
      </trkpt>
      <trkpt lat="41.2998440" lon="-8.7370930">
        <ele>8.9</ele>
        <time>2021-05-16T09:47:42Z</time>
      </trkpt>
      <trkpt lat="41.2998580" lon="-8.7370960">
        <ele>8.9</ele>
        <time>2021-05-16T09:47:43Z</time>
      </trkpt>
      <trkpt lat="41.2998740" lon="-8.7370980">
        <ele>8.9</ele>
        <time>2021-05-16T09:47:44Z</time>
      </trkpt>
      <trkpt lat="41.2998900" lon="-8.7371020">
        <ele>9.0</ele>
        <time>2021-05-16T09:47:45Z</time>
      </trkpt>
      <trkpt lat="41.2999030" lon="-8.7371070">
        <ele>9.0</ele>
        <time>2021-05-16T09:47:46Z</time>
      </trkpt>
      <trkpt lat="41.2999220" lon="-8.7371030">
        <ele>9.0</ele>
        <time>2021-05-16T09:47:47Z</time>
      </trkpt>
      <trkpt lat="41.2999350" lon="-8.7371010">
        <ele>9.0</ele>
        <time>2021-05-16T09:47:48Z</time>
      </trkpt>
      <trkpt lat="41.2999500" lon="-8.7371050">
        <ele>9.0</ele>
        <time>2021-05-16T09:47:49Z</time>
      </trkpt>
      <trkpt lat="41.2999640" lon="-8.7371120">
        <ele>9.1</ele>
        <time>2021-05-16T09:47:50Z</time>
      </trkpt>
      <trkpt lat="41.2999810" lon="-8.7371130">
        <ele>9.1</ele>
        <time>2021-05-16T09:47:51Z</time>
      </trkpt>
      <trkpt lat="41.2999960" lon="-8.7371220">
        <ele>9.1</ele>
        <time>2021-05-16T09:47:52Z</time>
      </trkpt>
      <trkpt lat="41.3000130" lon="-8.7371220">
        <ele>9.1</ele>
        <time>2021-05-16T09:47:53Z</time>
      </trkpt>
      <trkpt lat="41.3000270" lon="-8.7371260">
        <ele>9.1</ele>
        <time>2021-05-16T09:47:54Z</time>
      </trkpt>
      <trkpt lat="41.3000410" lon="-8.7371240">
        <ele>9.2</ele>
        <time>2021-05-16T09:47:55Z</time>
      </trkpt>
      <trkpt lat="41.3000570" lon="-8.7371320">
        <ele>9.2</ele>
        <time>2021-05-16T09:47:56Z</time>
      </trkpt>
      <trkpt lat="41.3000730" lon="-8.7371340">
        <ele>9.2</ele>
        <time>2021-05-16T09:47:57Z</time>
      </trkpt>
      <trkpt lat="41.3000870" lon="-8.7371360">
        <ele>9.2</ele>
        <time>2021-05-16T09:47:58Z</time>
      </trkpt>
      <trkpt lat="41.3001100" lon="-8.7371390">
        <ele>9.2</ele>
        <time>2021-05-16T09:47:59Z</time>
      </trkpt>
      <trkpt lat="41.3001190" lon="-8.7371420">
        <ele>9.2</ele>
        <time>2021-05-16T09:48:00Z</time>
      </trkpt>
      <trkpt lat="41.3001280" lon="-8.7371460">
        <ele>9.2</ele>
        <time>2021-05-16T09:48:01Z</time>
      </trkpt>
      <trkpt lat="41.3001420" lon="-8.7371570">
        <ele>9.2</ele>
        <time>2021-05-16T09:48:02Z</time>
      </trkpt>
      <trkpt lat="41.3001580" lon="-8.7371590">
        <ele>9.2</ele>
        <time>2021-05-16T09:48:03Z</time>
      </trkpt>
      <trkpt lat="41.3001740" lon="-8.7371580">
        <ele>9.2</ele>
        <time>2021-05-16T09:48:04Z</time>
      </trkpt>
      <trkpt lat="41.3001860" lon="-8.7371600">
        <ele>9.2</ele>
        <time>2021-05-16T09:48:05Z</time>
      </trkpt>
      <trkpt lat="41.3002080" lon="-8.7371670">
        <ele>9.2</ele>
        <time>2021-05-16T09:48:06Z</time>
      </trkpt>
      <trkpt lat="41.3002180" lon="-8.7371680">
        <ele>9.2</ele>
        <time>2021-05-16T09:48:07Z</time>
      </trkpt>
      <trkpt lat="41.3002280" lon="-8.7371700">
        <ele>9.2</ele>
        <time>2021-05-16T09:48:08Z</time>
      </trkpt>
      <trkpt lat="41.3002490" lon="-8.7371730">
        <ele>9.2</ele>
        <time>2021-05-16T09:48:09Z</time>
      </trkpt>
      <trkpt lat="41.3002600" lon="-8.7371720">
        <ele>9.2</ele>
        <time>2021-05-16T09:48:10Z</time>
      </trkpt>
      <trkpt lat="41.3002700" lon="-8.7371700">
        <ele>9.2</ele>
        <time>2021-05-16T09:48:11Z</time>
      </trkpt>
      <trkpt lat="41.3002910" lon="-8.7371680">
        <ele>9.2</ele>
        <time>2021-05-16T09:48:12Z</time>
      </trkpt>
      <trkpt lat="41.3003000" lon="-8.7371680">
        <ele>9.2</ele>
        <time>2021-05-16T09:48:13Z</time>
      </trkpt>
      <trkpt lat="41.3003090" lon="-8.7371680">
        <ele>9.2</ele>
        <time>2021-05-16T09:48:14Z</time>
      </trkpt>
      <trkpt lat="41.3003290" lon="-8.7371700">
        <ele>9.2</ele>
        <time>2021-05-16T09:48:15Z</time>
      </trkpt>
      <trkpt lat="41.3003370" lon="-8.7371710">
        <ele>9.2</ele>
        <time>2021-05-16T09:48:16Z</time>
      </trkpt>
      <trkpt lat="41.3003460" lon="-8.7371710">
        <ele>9.2</ele>
        <time>2021-05-16T09:48:17Z</time>
      </trkpt>
      <trkpt lat="41.3003680" lon="-8.7371750">
        <ele>9.2</ele>
        <time>2021-05-16T09:48:18Z</time>
      </trkpt>
      <trkpt lat="41.3003760" lon="-8.7371730">
        <ele>9.2</ele>
        <time>2021-05-16T09:48:19Z</time>
      </trkpt>
      <trkpt lat="41.3003840" lon="-8.7371720">
        <ele>9.1</ele>
        <time>2021-05-16T09:48:20Z</time>
      </trkpt>
      <trkpt lat="41.3004050" lon="-8.7371680">
        <ele>9.1</ele>
        <time>2021-05-16T09:48:21Z</time>
      </trkpt>
      <trkpt lat="41.3004140" lon="-8.7371640">
        <ele>9.1</ele>
        <time>2021-05-16T09:48:22Z</time>
      </trkpt>
      <trkpt lat="41.3004220" lon="-8.7371590">
        <ele>9.1</ele>
        <time>2021-05-16T09:48:23Z</time>
      </trkpt>
      <trkpt lat="41.3004390" lon="-8.7371570">
        <ele>9.1</ele>
        <time>2021-05-16T09:48:24Z</time>
      </trkpt>
      <trkpt lat="41.3004530" lon="-8.7371540">
        <ele>9.0</ele>
        <time>2021-05-16T09:48:25Z</time>
      </trkpt>
      <trkpt lat="41.3004670" lon="-8.7371460">
        <ele>9.0</ele>
        <time>2021-05-16T09:48:26Z</time>
      </trkpt>
      <trkpt lat="41.3004830" lon="-8.7371340">
        <ele>9.0</ele>
        <time>2021-05-16T09:48:27Z</time>
      </trkpt>
      <trkpt lat="41.3004960" lon="-8.7371220">
        <ele>8.9</ele>
        <time>2021-05-16T09:48:28Z</time>
      </trkpt>
      <trkpt lat="41.3005110" lon="-8.7371120">
        <ele>8.9</ele>
        <time>2021-05-16T09:48:29Z</time>
      </trkpt>
      <trkpt lat="41.3005250" lon="-8.7371070">
        <ele>8.8</ele>
        <time>2021-05-16T09:48:30Z</time>
      </trkpt>
      <trkpt lat="41.3005400" lon="-8.7371050">
        <ele>8.8</ele>
        <time>2021-05-16T09:48:31Z</time>
      </trkpt>
      <trkpt lat="41.3005520" lon="-8.7370930">
        <ele>8.8</ele>
        <time>2021-05-16T09:48:32Z</time>
      </trkpt>
      <trkpt lat="41.3005670" lon="-8.7370910">
        <ele>8.7</ele>
        <time>2021-05-16T09:48:33Z</time>
      </trkpt>
      <trkpt lat="41.3005800" lon="-8.7370820">
        <ele>8.7</ele>
        <time>2021-05-16T09:48:34Z</time>
      </trkpt>
      <trkpt lat="41.3005940" lon="-8.7370720">
        <ele>8.7</ele>
        <time>2021-05-16T09:48:35Z</time>
      </trkpt>
      <trkpt lat="41.3006130" lon="-8.7370580">
        <ele>8.6</ele>
        <time>2021-05-16T09:48:36Z</time>
      </trkpt>
      <trkpt lat="41.3006220" lon="-8.7370530">
        <ele>8.6</ele>
        <time>2021-05-16T09:48:37Z</time>
      </trkpt>
      <trkpt lat="41.3006300" lon="-8.7370490">
        <ele>8.6</ele>
        <time>2021-05-16T09:48:38Z</time>
      </trkpt>
      <trkpt lat="41.3006480" lon="-8.7370400">
        <ele>8.5</ele>
        <time>2021-05-16T09:48:39Z</time>
      </trkpt>
      <trkpt lat="41.3006600" lon="-8.7370310">
        <ele>8.5</ele>
        <time>2021-05-16T09:48:40Z</time>
      </trkpt>
      <trkpt lat="41.3006730" lon="-8.7370190">
        <ele>8.5</ele>
        <time>2021-05-16T09:48:41Z</time>
      </trkpt>
      <trkpt lat="41.3006800" lon="-8.7370140">
        <ele>8.5</ele>
        <time>2021-05-16T09:48:42Z</time>
      </trkpt>
      <trkpt lat="41.3006850" lon="-8.7370070">
        <ele>8.4</ele>
        <time>2021-05-16T09:48:43Z</time>
      </trkpt>
      <trkpt lat="41.3006860" lon="-8.7370050">
        <ele>8.4</ele>
        <time>2021-05-16T09:48:44Z</time>
      </trkpt>
      <trkpt lat="41.3006870" lon="-8.7370020">
        <ele>8.4</ele>
        <time>2021-05-16T09:48:45Z</time>
      </trkpt>
      <trkpt lat="41.3006880" lon="-8.7369970">
        <ele>8.4</ele>
        <time>2021-05-16T09:48:46Z</time>
      </trkpt>
      <trkpt lat="41.3006930" lon="-8.7369950">
        <ele>8.4</ele>
        <time>2021-05-16T09:48:47Z</time>
      </trkpt>
      <trkpt lat="41.3007040" lon="-8.7369890">
        <ele>8.4</ele>
        <time>2021-05-16T09:48:48Z</time>
      </trkpt>
      <trkpt lat="41.3007160" lon="-8.7369840">
        <ele>8.4</ele>
        <time>2021-05-16T09:48:49Z</time>
      </trkpt>
      <trkpt lat="41.3007340" lon="-8.7369740">
        <ele>8.3</ele>
        <time>2021-05-16T09:48:50Z</time>
      </trkpt>
      <trkpt lat="41.3007420" lon="-8.7369680">
        <ele>8.3</ele>
        <time>2021-05-16T09:48:51Z</time>
      </trkpt>
      <trkpt lat="41.3007510" lon="-8.7369610">
        <ele>8.3</ele>
        <time>2021-05-16T09:48:52Z</time>
      </trkpt>
      <trkpt lat="41.3007700" lon="-8.7369460">
        <ele>8.3</ele>
        <time>2021-05-16T09:48:53Z</time>
      </trkpt>
      <trkpt lat="41.3007760" lon="-8.7369410">
        <ele>8.2</ele>
        <time>2021-05-16T09:48:54Z</time>
      </trkpt>
      <trkpt lat="41.3007830" lon="-8.7369360">
        <ele>8.2</ele>
        <time>2021-05-16T09:48:55Z</time>
      </trkpt>
      <trkpt lat="41.3007990" lon="-8.7369300">
        <ele>8.2</ele>
        <time>2021-05-16T09:48:56Z</time>
      </trkpt>
      <trkpt lat="41.3008160" lon="-8.7369250">
        <ele>8.2</ele>
        <time>2021-05-16T09:48:57Z</time>
      </trkpt>
      <trkpt lat="41.3008300" lon="-8.7369140">
        <ele>8.2</ele>
        <time>2021-05-16T09:48:58Z</time>
      </trkpt>
      <trkpt lat="41.3008440" lon="-8.7369040">
        <ele>8.1</ele>
        <time>2021-05-16T09:48:59Z</time>
      </trkpt>
      <trkpt lat="41.3008560" lon="-8.7368960">
        <ele>8.1</ele>
        <time>2021-05-16T09:49:00Z</time>
      </trkpt>
      <trkpt lat="41.3008710" lon="-8.7368840">
        <ele>8.1</ele>
        <time>2021-05-16T09:49:01Z</time>
      </trkpt>
      <trkpt lat="41.3008840" lon="-8.7368760">
        <ele>8.1</ele>
        <time>2021-05-16T09:49:02Z</time>
      </trkpt>
      <trkpt lat="41.3008990" lon="-8.7368690">
        <ele>8.1</ele>
        <time>2021-05-16T09:49:03Z</time>
      </trkpt>
      <trkpt lat="41.3009100" lon="-8.7368570">
        <ele>8.1</ele>
        <time>2021-05-16T09:49:04Z</time>
      </trkpt>
      <trkpt lat="41.3009280" lon="-8.7368540">
        <ele>8.1</ele>
        <time>2021-05-16T09:49:05Z</time>
      </trkpt>
      <trkpt lat="41.3009390" lon="-8.7368490">
        <ele>8.1</ele>
        <time>2021-05-16T09:49:06Z</time>
      </trkpt>
      <trkpt lat="41.3009550" lon="-8.7368450">
        <ele>8.1</ele>
        <time>2021-05-16T09:49:07Z</time>
      </trkpt>
      <trkpt lat="41.3009700" lon="-8.7368420">
        <ele>8.1</ele>
        <time>2021-05-16T09:49:08Z</time>
      </trkpt>
      <trkpt lat="41.3009830" lon="-8.7368350">
        <ele>8.2</ele>
        <time>2021-05-16T09:49:09Z</time>
      </trkpt>
      <trkpt lat="41.3009970" lon="-8.7368280">
        <ele>8.2</ele>
        <time>2021-05-16T09:49:10Z</time>
      </trkpt>
      <trkpt lat="41.3010100" lon="-8.7368200">
        <ele>8.2</ele>
        <time>2021-05-16T09:49:11Z</time>
      </trkpt>
      <trkpt lat="41.3010240" lon="-8.7368170">
        <ele>8.2</ele>
        <time>2021-05-16T09:49:12Z</time>
      </trkpt>
      <trkpt lat="41.3010380" lon="-8.7368130">
        <ele>8.2</ele>
        <time>2021-05-16T09:49:13Z</time>
      </trkpt>
      <trkpt lat="41.3010590" lon="-8.7368030">
        <ele>8.3</ele>
        <time>2021-05-16T09:49:14Z</time>
      </trkpt>
      <trkpt lat="41.3010670" lon="-8.7368010">
        <ele>8.3</ele>
        <time>2021-05-16T09:49:15Z</time>
      </trkpt>
      <trkpt lat="41.3010750" lon="-8.7367980">
        <ele>8.3</ele>
        <time>2021-05-16T09:49:16Z</time>
      </trkpt>
      <trkpt lat="41.3010910" lon="-8.7367980">
        <ele>8.3</ele>
        <time>2021-05-16T09:49:17Z</time>
      </trkpt>
      <trkpt lat="41.3011060" lon="-8.7367930">
        <ele>8.4</ele>
        <time>2021-05-16T09:49:18Z</time>
      </trkpt>
      <trkpt lat="41.3011200" lon="-8.7367870">
        <ele>8.4</ele>
        <time>2021-05-16T09:49:19Z</time>
      </trkpt>
      <trkpt lat="41.3011360" lon="-8.7367800">
        <ele>8.4</ele>
        <time>2021-05-16T09:49:20Z</time>
      </trkpt>
      <trkpt lat="41.3011500" lon="-8.7367700">
        <ele>8.5</ele>
        <time>2021-05-16T09:49:21Z</time>
      </trkpt>
      <trkpt lat="41.3011650" lon="-8.7367660">
        <ele>8.5</ele>
        <time>2021-05-16T09:49:22Z</time>
      </trkpt>
      <trkpt lat="41.3011790" lon="-8.7367490">
        <ele>8.5</ele>
        <time>2021-05-16T09:49:23Z</time>
      </trkpt>
      <trkpt lat="41.3011920" lon="-8.7367450">
        <ele>8.6</ele>
        <time>2021-05-16T09:49:24Z</time>
      </trkpt>
      <trkpt lat="41.3012080" lon="-8.7367330">
        <ele>8.6</ele>
        <time>2021-05-16T09:49:25Z</time>
      </trkpt>
      <trkpt lat="41.3012210" lon="-8.7367270">
        <ele>8.6</ele>
        <time>2021-05-16T09:49:26Z</time>
      </trkpt>
      <trkpt lat="41.3012340" lon="-8.7367200">
        <ele>8.7</ele>
        <time>2021-05-16T09:49:27Z</time>
      </trkpt>
      <trkpt lat="41.3012480" lon="-8.7367220">
        <ele>8.7</ele>
        <time>2021-05-16T09:49:28Z</time>
      </trkpt>
      <trkpt lat="41.3012620" lon="-8.7367190">
        <ele>8.7</ele>
        <time>2021-05-16T09:49:29Z</time>
      </trkpt>
      <trkpt lat="41.3012810" lon="-8.7367190">
        <ele>8.8</ele>
        <time>2021-05-16T09:49:30Z</time>
      </trkpt>
      <trkpt lat="41.3013030" lon="-8.7367130">
        <ele>8.8</ele>
        <time>2021-05-16T09:49:31Z</time>
      </trkpt>
      <trkpt lat="41.3013130" lon="-8.7367130">
        <ele>8.8</ele>
        <time>2021-05-16T09:49:32Z</time>
      </trkpt>
      <trkpt lat="41.3013220" lon="-8.7367120">
        <ele>8.8</ele>
        <time>2021-05-16T09:49:33Z</time>
      </trkpt>
      <trkpt lat="41.3013350" lon="-8.7367200">
        <ele>8.8</ele>
        <time>2021-05-16T09:49:34Z</time>
      </trkpt>
      <trkpt lat="41.3013510" lon="-8.7367230">
        <ele>8.8</ele>
        <time>2021-05-16T09:49:35Z</time>
      </trkpt>
      <trkpt lat="41.3013650" lon="-8.7367240">
        <ele>8.9</ele>
        <time>2021-05-16T09:49:36Z</time>
      </trkpt>
      <trkpt lat="41.3013800" lon="-8.7367250">
        <ele>8.9</ele>
        <time>2021-05-16T09:49:37Z</time>
      </trkpt>
      <trkpt lat="41.3013970" lon="-8.7367230">
        <ele>8.9</ele>
        <time>2021-05-16T09:49:38Z</time>
      </trkpt>
      <trkpt lat="41.3014130" lon="-8.7367260">
        <ele>8.9</ele>
        <time>2021-05-16T09:49:39Z</time>
      </trkpt>
      <trkpt lat="41.3014290" lon="-8.7367260">
        <ele>8.9</ele>
        <time>2021-05-16T09:49:40Z</time>
      </trkpt>
      <trkpt lat="41.3014420" lon="-8.7367360">
        <ele>9.0</ele>
        <time>2021-05-16T09:49:41Z</time>
      </trkpt>
      <trkpt lat="41.3014580" lon="-8.7367450">
        <ele>9.0</ele>
        <time>2021-05-16T09:49:42Z</time>
      </trkpt>
      <trkpt lat="41.3014700" lon="-8.7367430">
        <ele>9.0</ele>
        <time>2021-05-16T09:49:43Z</time>
      </trkpt>
      <trkpt lat="41.3014880" lon="-8.7367460">
        <ele>9.0</ele>
        <time>2021-05-16T09:49:44Z</time>
      </trkpt>
      <trkpt lat="41.3015020" lon="-8.7367550">
        <ele>9.0</ele>
        <time>2021-05-16T09:49:45Z</time>
      </trkpt>
      <trkpt lat="41.3015180" lon="-8.7367590">
        <ele>9.1</ele>
        <time>2021-05-16T09:49:46Z</time>
      </trkpt>
      <trkpt lat="41.3015320" lon="-8.7367620">
        <ele>9.1</ele>
        <time>2021-05-16T09:49:47Z</time>
      </trkpt>
      <trkpt lat="41.3015460" lon="-8.7367650">
        <ele>9.1</ele>
        <time>2021-05-16T09:49:48Z</time>
      </trkpt>
      <trkpt lat="41.3015620" lon="-8.7367660">
        <ele>9.1</ele>
        <time>2021-05-16T09:49:49Z</time>
      </trkpt>
      <trkpt lat="41.3015770" lon="-8.7367650">
        <ele>9.1</ele>
        <time>2021-05-16T09:49:50Z</time>
      </trkpt>
      <trkpt lat="41.3015900" lon="-8.7367690">
        <ele>9.2</ele>
        <time>2021-05-16T09:49:51Z</time>
      </trkpt>
      <trkpt lat="41.3016040" lon="-8.7367730">
        <ele>9.2</ele>
        <time>2021-05-16T09:49:52Z</time>
      </trkpt>
      <trkpt lat="41.3016220" lon="-8.7367810">
        <ele>9.2</ele>
        <time>2021-05-16T09:49:53Z</time>
      </trkpt>
      <trkpt lat="41.3016370" lon="-8.7367870">
        <ele>9.2</ele>
        <time>2021-05-16T09:49:54Z</time>
      </trkpt>
      <trkpt lat="41.3016530" lon="-8.7367830">
        <ele>9.3</ele>
        <time>2021-05-16T09:49:55Z</time>
      </trkpt>
      <trkpt lat="41.3016670" lon="-8.7367940">
        <ele>9.3</ele>
        <time>2021-05-16T09:49:56Z</time>
      </trkpt>
      <trkpt lat="41.3016810" lon="-8.7367920">
        <ele>9.3</ele>
        <time>2021-05-16T09:49:57Z</time>
      </trkpt>
      <trkpt lat="41.3016970" lon="-8.7367930">
        <ele>9.3</ele>
        <time>2021-05-16T09:49:58Z</time>
      </trkpt>
      <trkpt lat="41.3017100" lon="-8.7368000">
        <ele>9.3</ele>
        <time>2021-05-16T09:49:59Z</time>
      </trkpt>
      <trkpt lat="41.3017260" lon="-8.7368000">
        <ele>9.4</ele>
        <time>2021-05-16T09:50:00Z</time>
      </trkpt>
      <trkpt lat="41.3017420" lon="-8.7368030">
        <ele>9.4</ele>
        <time>2021-05-16T09:50:01Z</time>
      </trkpt>
      <trkpt lat="41.3017570" lon="-8.7368050">
        <ele>9.4</ele>
        <time>2021-05-16T09:50:02Z</time>
      </trkpt>
      <trkpt lat="41.3017730" lon="-8.7368140">
        <ele>9.4</ele>
        <time>2021-05-16T09:50:03Z</time>
      </trkpt>
      <trkpt lat="41.3017900" lon="-8.7368190">
        <ele>9.4</ele>
        <time>2021-05-16T09:50:04Z</time>
      </trkpt>
      <trkpt lat="41.3018030" lon="-8.7368190">
        <ele>9.5</ele>
        <time>2021-05-16T09:50:05Z</time>
      </trkpt>
      <trkpt lat="41.3018170" lon="-8.7368190">
        <ele>9.5</ele>
        <time>2021-05-16T09:50:06Z</time>
      </trkpt>
      <trkpt lat="41.3018320" lon="-8.7368220">
        <ele>9.5</ele>
        <time>2021-05-16T09:50:07Z</time>
      </trkpt>
      <trkpt lat="41.3018470" lon="-8.7368260">
        <ele>9.5</ele>
        <time>2021-05-16T09:50:08Z</time>
      </trkpt>
      <trkpt lat="41.3018630" lon="-8.7368270">
        <ele>9.5</ele>
        <time>2021-05-16T09:50:09Z</time>
      </trkpt>
      <trkpt lat="41.3018770" lon="-8.7368330">
        <ele>9.6</ele>
        <time>2021-05-16T09:50:10Z</time>
      </trkpt>
      <trkpt lat="41.3018910" lon="-8.7368330">
        <ele>9.6</ele>
        <time>2021-05-16T09:50:11Z</time>
      </trkpt>
      <trkpt lat="41.3019030" lon="-8.7368330">
        <ele>9.6</ele>
        <time>2021-05-16T09:50:12Z</time>
      </trkpt>
      <trkpt lat="41.3019190" lon="-8.7368330">
        <ele>9.6</ele>
        <time>2021-05-16T09:50:13Z</time>
      </trkpt>
      <trkpt lat="41.3019340" lon="-8.7368380">
        <ele>9.6</ele>
        <time>2021-05-16T09:50:14Z</time>
      </trkpt>
      <trkpt lat="41.3019480" lon="-8.7368520">
        <ele>9.6</ele>
        <time>2021-05-16T09:50:15Z</time>
      </trkpt>
      <trkpt lat="41.3019600" lon="-8.7368630">
        <ele>9.7</ele>
        <time>2021-05-16T09:50:16Z</time>
      </trkpt>
      <trkpt lat="41.3019770" lon="-8.7368640">
        <ele>9.7</ele>
        <time>2021-05-16T09:50:17Z</time>
      </trkpt>
      <trkpt lat="41.3019910" lon="-8.7368670">
        <ele>9.7</ele>
        <time>2021-05-16T09:50:18Z</time>
      </trkpt>
      <trkpt lat="41.3020070" lon="-8.7368690">
        <ele>9.8</ele>
        <time>2021-05-16T09:50:19Z</time>
      </trkpt>
      <trkpt lat="41.3020200" lon="-8.7368680">
        <ele>9.8</ele>
        <time>2021-05-16T09:50:20Z</time>
      </trkpt>
      <trkpt lat="41.3020370" lon="-8.7368650">
        <ele>9.8</ele>
        <time>2021-05-16T09:50:21Z</time>
      </trkpt>
      <trkpt lat="41.3020520" lon="-8.7368670">
        <ele>9.9</ele>
        <time>2021-05-16T09:50:22Z</time>
      </trkpt>
      <trkpt lat="41.3020690" lon="-8.7368670">
        <ele>9.9</ele>
        <time>2021-05-16T09:50:23Z</time>
      </trkpt>
      <trkpt lat="41.3020820" lon="-8.7368810">
        <ele>9.9</ele>
        <time>2021-05-16T09:50:24Z</time>
      </trkpt>
      <trkpt lat="41.3020970" lon="-8.7368790">
        <ele>10.0</ele>
        <time>2021-05-16T09:50:25Z</time>
      </trkpt>
      <trkpt lat="41.3021200" lon="-8.7368880">
        <ele>10.0</ele>
        <time>2021-05-16T09:50:26Z</time>
      </trkpt>
      <trkpt lat="41.3021290" lon="-8.7368860">
        <ele>10.0</ele>
        <time>2021-05-16T09:50:27Z</time>
      </trkpt>
      <trkpt lat="41.3021380" lon="-8.7368840">
        <ele>10.1</ele>
        <time>2021-05-16T09:50:28Z</time>
      </trkpt>
      <trkpt lat="41.3021500" lon="-8.7368890">
        <ele>10.1</ele>
        <time>2021-05-16T09:50:29Z</time>
      </trkpt>
      <trkpt lat="41.3021640" lon="-8.7368910">
        <ele>10.1</ele>
        <time>2021-05-16T09:50:30Z</time>
      </trkpt>
      <trkpt lat="41.3021870" lon="-8.7368870">
        <ele>10.2</ele>
        <time>2021-05-16T09:50:31Z</time>
      </trkpt>
      <trkpt lat="41.3021960" lon="-8.7368860">
        <ele>10.2</ele>
        <time>2021-05-16T09:50:32Z</time>
      </trkpt>
      <trkpt lat="41.3022050" lon="-8.7368840">
        <ele>10.2</ele>
        <time>2021-05-16T09:50:33Z</time>
      </trkpt>
      <trkpt lat="41.3022230" lon="-8.7368720">
        <ele>10.2</ele>
        <time>2021-05-16T09:50:34Z</time>
      </trkpt>
      <trkpt lat="41.3022310" lon="-8.7368670">
        <ele>10.3</ele>
        <time>2021-05-16T09:50:35Z</time>
      </trkpt>
      <trkpt lat="41.3022400" lon="-8.7368620">
        <ele>10.3</ele>
        <time>2021-05-16T09:50:36Z</time>
      </trkpt>
      <trkpt lat="41.3022510" lon="-8.7368610">
        <ele>10.3</ele>
        <time>2021-05-16T09:50:37Z</time>
      </trkpt>
      <trkpt lat="41.3022640" lon="-8.7368520">
        <ele>10.4</ele>
        <time>2021-05-16T09:50:38Z</time>
      </trkpt>
      <trkpt lat="41.3022750" lon="-8.7368500">
        <ele>10.4</ele>
        <time>2021-05-16T09:50:39Z</time>
      </trkpt>
      <trkpt lat="41.3022930" lon="-8.7368340">
        <ele>10.4</ele>
        <time>2021-05-16T09:50:40Z</time>
      </trkpt>
      <trkpt lat="41.3023020" lon="-8.7368280">
        <ele>10.5</ele>
        <time>2021-05-16T09:50:41Z</time>
      </trkpt>
      <trkpt lat="41.3023100" lon="-8.7368230">
        <ele>10.5</ele>
        <time>2021-05-16T09:50:42Z</time>
      </trkpt>
      <trkpt lat="41.3023240" lon="-8.7368170">
        <ele>10.5</ele>
        <time>2021-05-16T09:50:43Z</time>
      </trkpt>
      <trkpt lat="41.3023370" lon="-8.7368120">
        <ele>10.5</ele>
        <time>2021-05-16T09:50:44Z</time>
      </trkpt>
      <trkpt lat="41.3023500" lon="-8.7368060">
        <ele>10.6</ele>
        <time>2021-05-16T09:50:45Z</time>
      </trkpt>
      <trkpt lat="41.3023640" lon="-8.7367960">
        <ele>10.6</ele>
        <time>2021-05-16T09:50:46Z</time>
      </trkpt>
      <trkpt lat="41.3023800" lon="-8.7367820">
        <ele>10.7</ele>
        <time>2021-05-16T09:50:47Z</time>
      </trkpt>
      <trkpt lat="41.3023870" lon="-8.7367740">
        <ele>10.7</ele>
        <time>2021-05-16T09:50:48Z</time>
      </trkpt>
      <trkpt lat="41.3023940" lon="-8.7367670">
        <ele>10.7</ele>
        <time>2021-05-16T09:50:49Z</time>
      </trkpt>
      <trkpt lat="41.3024060" lon="-8.7367490">
        <ele>10.7</ele>
        <time>2021-05-16T09:50:50Z</time>
      </trkpt>
      <trkpt lat="41.3024130" lon="-8.7367300">
        <ele>10.8</ele>
        <time>2021-05-16T09:50:51Z</time>
      </trkpt>
      <trkpt lat="41.3024260" lon="-8.7367150">
        <ele>10.8</ele>
        <time>2021-05-16T09:50:52Z</time>
      </trkpt>
      <trkpt lat="41.3024330" lon="-8.7367000">
        <ele>10.9</ele>
        <time>2021-05-16T09:50:53Z</time>
      </trkpt>
      <trkpt lat="41.3024460" lon="-8.7366850">
        <ele>10.9</ele>
        <time>2021-05-16T09:50:54Z</time>
      </trkpt>
      <trkpt lat="41.3024530" lon="-8.7366720">
        <ele>10.9</ele>
        <time>2021-05-16T09:50:55Z</time>
      </trkpt>
      <trkpt lat="41.3024650" lon="-8.7366590">
        <ele>11.0</ele>
        <time>2021-05-16T09:50:56Z</time>
      </trkpt>
      <trkpt lat="41.3024740" lon="-8.7366470">
        <ele>11.0</ele>
        <time>2021-05-16T09:50:57Z</time>
      </trkpt>
      <trkpt lat="41.3024880" lon="-8.7366250">
        <ele>11.0</ele>
        <time>2021-05-16T09:50:58Z</time>
      </trkpt>
      <trkpt lat="41.3024950" lon="-8.7366160">
        <ele>11.1</ele>
        <time>2021-05-16T09:50:59Z</time>
      </trkpt>
      <trkpt lat="41.3025010" lon="-8.7366070">
        <ele>11.1</ele>
        <time>2021-05-16T09:51:00Z</time>
      </trkpt>
      <trkpt lat="41.3025150" lon="-8.7365960">
        <ele>11.1</ele>
        <time>2021-05-16T09:51:01Z</time>
      </trkpt>
      <trkpt lat="41.3025220" lon="-8.7365760">
        <ele>11.2</ele>
        <time>2021-05-16T09:51:02Z</time>
      </trkpt>
      <trkpt lat="41.3025370" lon="-8.7365670">
        <ele>11.2</ele>
        <time>2021-05-16T09:51:03Z</time>
      </trkpt>
      <trkpt lat="41.3025480" lon="-8.7365520">
        <ele>11.2</ele>
        <time>2021-05-16T09:51:04Z</time>
      </trkpt>
      <trkpt lat="41.3025620" lon="-8.7365340">
        <ele>11.3</ele>
        <time>2021-05-16T09:51:05Z</time>
      </trkpt>
      <trkpt lat="41.3025700" lon="-8.7365260">
        <ele>11.3</ele>
        <time>2021-05-16T09:51:06Z</time>
      </trkpt>
      <trkpt lat="41.3025770" lon="-8.7365170">
        <ele>11.3</ele>
        <time>2021-05-16T09:51:07Z</time>
      </trkpt>
      <trkpt lat="41.3025830" lon="-8.7365030">
        <ele>11.4</ele>
        <time>2021-05-16T09:51:08Z</time>
      </trkpt>
      <trkpt lat="41.3025880" lon="-8.7364820">
        <ele>11.4</ele>
        <time>2021-05-16T09:51:09Z</time>
      </trkpt>
      <trkpt lat="41.3025980" lon="-8.7364700">
        <ele>11.4</ele>
        <time>2021-05-16T09:51:10Z</time>
      </trkpt>
      <trkpt lat="41.3026120" lon="-8.7364580">
        <ele>11.5</ele>
        <time>2021-05-16T09:51:11Z</time>
      </trkpt>
      <trkpt lat="41.3026210" lon="-8.7364400">
        <ele>11.5</ele>
        <time>2021-05-16T09:51:12Z</time>
      </trkpt>
      <trkpt lat="41.3026280" lon="-8.7364230">
        <ele>11.5</ele>
        <time>2021-05-16T09:51:13Z</time>
      </trkpt>
      <trkpt lat="41.3026360" lon="-8.7364130">
        <ele>11.6</ele>
        <time>2021-05-16T09:51:14Z</time>
      </trkpt>
      <trkpt lat="41.3026480" lon="-8.7363950">
        <ele>11.6</ele>
        <time>2021-05-16T09:51:15Z</time>
      </trkpt>
      <trkpt lat="41.3026540" lon="-8.7363770">
        <ele>11.6</ele>
        <time>2021-05-16T09:51:16Z</time>
      </trkpt>
      <trkpt lat="41.3026650" lon="-8.7363580">
        <ele>11.7</ele>
        <time>2021-05-16T09:51:17Z</time>
      </trkpt>
      <trkpt lat="41.3026700" lon="-8.7363410">
        <ele>11.7</ele>
        <time>2021-05-16T09:51:18Z</time>
      </trkpt>
      <trkpt lat="41.3026710" lon="-8.7363210">
        <ele>11.7</ele>
        <time>2021-05-16T09:51:19Z</time>
      </trkpt>
      <trkpt lat="41.3026770" lon="-8.7363050">
        <ele>11.8</ele>
        <time>2021-05-16T09:51:20Z</time>
      </trkpt>
      <trkpt lat="41.3026930" lon="-8.7362920">
        <ele>11.8</ele>
        <time>2021-05-16T09:51:21Z</time>
      </trkpt>
      <trkpt lat="41.3026980" lon="-8.7362710">
        <ele>11.8</ele>
        <time>2021-05-16T09:51:22Z</time>
      </trkpt>
      <trkpt lat="41.3027080" lon="-8.7362550">
        <ele>11.9</ele>
        <time>2021-05-16T09:51:23Z</time>
      </trkpt>
      <trkpt lat="41.3027150" lon="-8.7362390">
        <ele>11.9</ele>
        <time>2021-05-16T09:51:24Z</time>
      </trkpt>
      <trkpt lat="41.3027210" lon="-8.7362170">
        <ele>11.9</ele>
        <time>2021-05-16T09:51:25Z</time>
      </trkpt>
      <trkpt lat="41.3027320" lon="-8.7361940">
        <ele>12.0</ele>
        <time>2021-05-16T09:51:26Z</time>
      </trkpt>
      <trkpt lat="41.3027360" lon="-8.7361840">
        <ele>12.0</ele>
        <time>2021-05-16T09:51:27Z</time>
      </trkpt>
      <trkpt lat="41.3027400" lon="-8.7361740">
        <ele>12.0</ele>
        <time>2021-05-16T09:51:28Z</time>
      </trkpt>
      <trkpt lat="41.3027410" lon="-8.7361620">
        <ele>12.0</ele>
        <time>2021-05-16T09:51:29Z</time>
      </trkpt>
      <trkpt lat="41.3027460" lon="-8.7361480">
        <ele>12.0</ele>
        <time>2021-05-16T09:51:30Z</time>
      </trkpt>
      <trkpt lat="41.3027550" lon="-8.7361430">
        <ele>12.0</ele>
        <time>2021-05-16T09:51:31Z</time>
      </trkpt>
      <trkpt lat="41.3027710" lon="-8.7361190">
        <ele>12.1</ele>
        <time>2021-05-16T09:51:32Z</time>
      </trkpt>
      <trkpt lat="41.3027770" lon="-8.7361100">
        <ele>12.1</ele>
        <time>2021-05-16T09:51:33Z</time>
      </trkpt>
      <trkpt lat="41.3027840" lon="-8.7361010">
        <ele>12.1</ele>
        <time>2021-05-16T09:51:34Z</time>
      </trkpt>
      <trkpt lat="41.3027930" lon="-8.7360860">
        <ele>12.1</ele>
        <time>2021-05-16T09:51:35Z</time>
      </trkpt>
      <trkpt lat="41.3028030" lon="-8.7360720">
        <ele>12.1</ele>
        <time>2021-05-16T09:51:36Z</time>
      </trkpt>
      <trkpt lat="41.3028090" lon="-8.7360530">
        <ele>12.1</ele>
        <time>2021-05-16T09:51:37Z</time>
      </trkpt>
      <trkpt lat="41.3028190" lon="-8.7360420">
        <ele>12.2</ele>
        <time>2021-05-16T09:51:38Z</time>
      </trkpt>
      <trkpt lat="41.3028230" lon="-8.7360230">
        <ele>12.2</ele>
        <time>2021-05-16T09:51:39Z</time>
      </trkpt>
      <trkpt lat="41.3028320" lon="-8.7360030">
        <ele>12.2</ele>
        <time>2021-05-16T09:51:40Z</time>
      </trkpt>
      <trkpt lat="41.3028400" lon="-8.7359930">
        <ele>12.2</ele>
        <time>2021-05-16T09:51:41Z</time>
      </trkpt>
      <trkpt lat="41.3028500" lon="-8.7359750">
        <ele>12.2</ele>
        <time>2021-05-16T09:51:42Z</time>
      </trkpt>
      <trkpt lat="41.3028570" lon="-8.7359600">
        <ele>12.2</ele>
        <time>2021-05-16T09:51:43Z</time>
      </trkpt>
      <trkpt lat="41.3028720" lon="-8.7359480">
        <ele>12.2</ele>
        <time>2021-05-16T09:51:44Z</time>
      </trkpt>
      <trkpt lat="41.3028870" lon="-8.7359420">
        <ele>12.2</ele>
        <time>2021-05-16T09:51:45Z</time>
      </trkpt>
      <trkpt lat="41.3029000" lon="-8.7359360">
        <ele>12.2</ele>
        <time>2021-05-16T09:51:46Z</time>
      </trkpt>
      <trkpt lat="41.3029170" lon="-8.7359330">
        <ele>12.2</ele>
        <time>2021-05-16T09:51:47Z</time>
      </trkpt>
      <trkpt lat="41.3029290" lon="-8.7359270">
        <ele>12.1</ele>
        <time>2021-05-16T09:51:48Z</time>
      </trkpt>
      <trkpt lat="41.3029490" lon="-8.7359300">
        <ele>12.1</ele>
        <time>2021-05-16T09:51:49Z</time>
      </trkpt>
      <trkpt lat="41.3029650" lon="-8.7359340">
        <ele>12.1</ele>
        <time>2021-05-16T09:51:50Z</time>
      </trkpt>
      <trkpt lat="41.3029920" lon="-8.7359480">
        <ele>12.1</ele>
        <time>2021-05-16T09:51:51Z</time>
      </trkpt>
      <trkpt lat="41.3030000" lon="-8.7359530">
        <ele>12.0</ele>
        <time>2021-05-16T09:51:52Z</time>
      </trkpt>
      <trkpt lat="41.3030160" lon="-8.7359620">
        <ele>12.0</ele>
        <time>2021-05-16T09:51:53Z</time>
      </trkpt>
      <trkpt lat="41.3030310" lon="-8.7359740">
        <ele>12.0</ele>
        <time>2021-05-16T09:51:54Z</time>
      </trkpt>
      <trkpt lat="41.3030560" lon="-8.7359960">
        <ele>11.9</ele>
        <time>2021-05-16T09:51:55Z</time>
      </trkpt>
      <trkpt lat="41.3030640" lon="-8.7360030">
        <ele>11.9</ele>
        <time>2021-05-16T09:51:56Z</time>
      </trkpt>
      <trkpt lat="41.3030760" lon="-8.7360190">
        <ele>11.9</ele>
        <time>2021-05-16T09:51:57Z</time>
      </trkpt>
      <trkpt lat="41.3030880" lon="-8.7360340">
        <ele>11.8</ele>
        <time>2021-05-16T09:51:58Z</time>
      </trkpt>
      <trkpt lat="41.3030980" lon="-8.7360500">
        <ele>11.8</ele>
        <time>2021-05-16T09:51:59Z</time>
      </trkpt>
      <trkpt lat="41.3031100" lon="-8.7360650">
        <ele>11.8</ele>
        <time>2021-05-16T09:52:00Z</time>
      </trkpt>
      <trkpt lat="41.3031250" lon="-8.7360760">
        <ele>11.7</ele>
        <time>2021-05-16T09:52:01Z</time>
      </trkpt>
      <trkpt lat="41.3031370" lon="-8.7360900">
        <ele>11.7</ele>
        <time>2021-05-16T09:52:02Z</time>
      </trkpt>
      <trkpt lat="41.3031480" lon="-8.7360950">
        <ele>11.6</ele>
        <time>2021-05-16T09:52:03Z</time>
      </trkpt>
      <trkpt lat="41.3031590" lon="-8.7361150">
        <ele>11.6</ele>
        <time>2021-05-16T09:52:04Z</time>
      </trkpt>
      <trkpt lat="41.3031730" lon="-8.7361250">
        <ele>11.5</ele>
        <time>2021-05-16T09:52:05Z</time>
      </trkpt>
      <trkpt lat="41.3031810" lon="-8.7361410">
        <ele>11.5</ele>
        <time>2021-05-16T09:52:06Z</time>
      </trkpt>
      <trkpt lat="41.3031930" lon="-8.7361520">
        <ele>11.5</ele>
        <time>2021-05-16T09:52:07Z</time>
      </trkpt>
      <trkpt lat="41.3032040" lon="-8.7361680">
        <ele>11.4</ele>
        <time>2021-05-16T09:52:08Z</time>
      </trkpt>
      <trkpt lat="41.3032130" lon="-8.7361800">
        <ele>11.4</ele>
        <time>2021-05-16T09:52:09Z</time>
      </trkpt>
      <trkpt lat="41.3032270" lon="-8.7361920">
        <ele>11.3</ele>
        <time>2021-05-16T09:52:10Z</time>
      </trkpt>
      <trkpt lat="41.3032390" lon="-8.7361990">
        <ele>11.3</ele>
        <time>2021-05-16T09:52:11Z</time>
      </trkpt>
      <trkpt lat="41.3032470" lon="-8.7362190">
        <ele>11.3</ele>
        <time>2021-05-16T09:52:12Z</time>
      </trkpt>
      <trkpt lat="41.3032600" lon="-8.7362310">
        <ele>11.2</ele>
        <time>2021-05-16T09:52:13Z</time>
      </trkpt>
      <trkpt lat="41.3032730" lon="-8.7362440">
        <ele>11.2</ele>
        <time>2021-05-16T09:52:14Z</time>
      </trkpt>
      <trkpt lat="41.3032860" lon="-8.7362530">
        <ele>11.1</ele>
        <time>2021-05-16T09:52:15Z</time>
      </trkpt>
      <trkpt lat="41.3032960" lon="-8.7362720">
        <ele>11.1</ele>
        <time>2021-05-16T09:52:16Z</time>
      </trkpt>
      <trkpt lat="41.3033060" lon="-8.7362810">
        <ele>11.1</ele>
        <time>2021-05-16T09:52:17Z</time>
      </trkpt>
      <trkpt lat="41.3033190" lon="-8.7362920">
        <ele>11.0</ele>
        <time>2021-05-16T09:52:18Z</time>
      </trkpt>
      <trkpt lat="41.3033290" lon="-8.7363050">
        <ele>11.0</ele>
        <time>2021-05-16T09:52:19Z</time>
      </trkpt>
      <trkpt lat="41.3033430" lon="-8.7363190">
        <ele>11.0</ele>
        <time>2021-05-16T09:52:20Z</time>
      </trkpt>
      <trkpt lat="41.3033520" lon="-8.7363340">
        <ele>10.9</ele>
        <time>2021-05-16T09:52:21Z</time>
      </trkpt>
      <trkpt lat="41.3033630" lon="-8.7363490">
        <ele>10.9</ele>
        <time>2021-05-16T09:52:22Z</time>
      </trkpt>
      <trkpt lat="41.3033760" lon="-8.7363540">
        <ele>10.7</ele>
        <time>2021-05-16T09:52:23Z</time>
      </trkpt>
      <trkpt lat="41.3033900" lon="-8.7363590">
        <ele>10.7</ele>
        <time>2021-05-16T09:52:24Z</time>
      </trkpt>
      <trkpt lat="41.3034050" lon="-8.7363450">
        <ele>10.7</ele>
        <time>2021-05-16T09:52:25Z</time>
      </trkpt>
      <trkpt lat="41.3034170" lon="-8.7363410">
        <ele>10.7</ele>
        <time>2021-05-16T09:52:26Z</time>
      </trkpt>
      <trkpt lat="41.3034300" lon="-8.7363480">
        <ele>10.7</ele>
        <time>2021-05-16T09:52:27Z</time>
      </trkpt>
      <trkpt lat="41.3034410" lon="-8.7363650">
        <ele>10.6</ele>
        <time>2021-05-16T09:52:28Z</time>
      </trkpt>
      <trkpt lat="41.3034540" lon="-8.7363840">
        <ele>10.6</ele>
        <time>2021-05-16T09:52:29Z</time>
      </trkpt>
      <trkpt lat="41.3034630" lon="-8.7363980">
        <ele>10.6</ele>
        <time>2021-05-16T09:52:30Z</time>
      </trkpt>
      <trkpt lat="41.3034720" lon="-8.7364170">
        <ele>10.6</ele>
        <time>2021-05-16T09:52:31Z</time>
      </trkpt>
      <trkpt lat="41.3034840" lon="-8.7364270">
        <ele>10.6</ele>
        <time>2021-05-16T09:52:32Z</time>
      </trkpt>
      <trkpt lat="41.3034980" lon="-8.7364380">
        <ele>10.6</ele>
        <time>2021-05-16T09:52:33Z</time>
      </trkpt>
      <trkpt lat="41.3035090" lon="-8.7364500">
        <ele>10.5</ele>
        <time>2021-05-16T09:52:34Z</time>
      </trkpt>
      <trkpt lat="41.3035230" lon="-8.7364650">
        <ele>10.5</ele>
        <time>2021-05-16T09:52:35Z</time>
      </trkpt>
      <trkpt lat="41.3035320" lon="-8.7364750">
        <ele>10.5</ele>
        <time>2021-05-16T09:52:36Z</time>
      </trkpt>
      <trkpt lat="41.3035470" lon="-8.7364850">
        <ele>10.5</ele>
        <time>2021-05-16T09:52:37Z</time>
      </trkpt>
      <trkpt lat="41.3035570" lon="-8.7364970">
        <ele>10.5</ele>
        <time>2021-05-16T09:52:38Z</time>
      </trkpt>
      <trkpt lat="41.3035680" lon="-8.7365150">
        <ele>10.4</ele>
        <time>2021-05-16T09:52:39Z</time>
      </trkpt>
      <trkpt lat="41.3035780" lon="-8.7365280">
        <ele>10.4</ele>
        <time>2021-05-16T09:52:40Z</time>
      </trkpt>
      <trkpt lat="41.3035930" lon="-8.7365360">
        <ele>10.4</ele>
        <time>2021-05-16T09:52:41Z</time>
      </trkpt>
      <trkpt lat="41.3035990" lon="-8.7365510">
        <ele>10.4</ele>
        <time>2021-05-16T09:52:42Z</time>
      </trkpt>
      <trkpt lat="41.3036090" lon="-8.7365680">
        <ele>10.3</ele>
        <time>2021-05-16T09:52:43Z</time>
      </trkpt>
      <trkpt lat="41.3036200" lon="-8.7365810">
        <ele>10.3</ele>
        <time>2021-05-16T09:52:44Z</time>
      </trkpt>
      <trkpt lat="41.3036340" lon="-8.7365920">
        <ele>10.3</ele>
        <time>2021-05-16T09:52:45Z</time>
      </trkpt>
      <trkpt lat="41.3036500" lon="-8.7365930">
        <ele>10.3</ele>
        <time>2021-05-16T09:52:46Z</time>
      </trkpt>
      <trkpt lat="41.3036710" lon="-8.7366100">
        <ele>10.2</ele>
        <time>2021-05-16T09:52:47Z</time>
      </trkpt>
      <trkpt lat="41.3036780" lon="-8.7366170">
        <ele>10.2</ele>
        <time>2021-05-16T09:52:48Z</time>
      </trkpt>
      <trkpt lat="41.3036860" lon="-8.7366250">
        <ele>10.2</ele>
        <time>2021-05-16T09:52:49Z</time>
      </trkpt>
      <trkpt lat="41.3037000" lon="-8.7366310">
        <ele>10.2</ele>
        <time>2021-05-16T09:52:50Z</time>
      </trkpt>
      <trkpt lat="41.3037130" lon="-8.7366400">
        <ele>10.2</ele>
        <time>2021-05-16T09:52:51Z</time>
      </trkpt>
      <trkpt lat="41.3037250" lon="-8.7366550">
        <ele>10.1</ele>
        <time>2021-05-16T09:52:52Z</time>
      </trkpt>
      <trkpt lat="41.3037360" lon="-8.7366700">
        <ele>10.1</ele>
        <time>2021-05-16T09:52:53Z</time>
      </trkpt>
      <trkpt lat="41.3037470" lon="-8.7366840">
        <ele>10.1</ele>
        <time>2021-05-16T09:52:54Z</time>
      </trkpt>
      <trkpt lat="41.3037580" lon="-8.7366940">
        <ele>10.1</ele>
        <time>2021-05-16T09:52:55Z</time>
      </trkpt>
      <trkpt lat="41.3037660" lon="-8.7367060">
        <ele>10.0</ele>
        <time>2021-05-16T09:52:56Z</time>
      </trkpt>
      <trkpt lat="41.3037790" lon="-8.7367200">
        <ele>10.0</ele>
        <time>2021-05-16T09:52:57Z</time>
      </trkpt>
      <trkpt lat="41.3037920" lon="-8.7367320">
        <ele>10.0</ele>
        <time>2021-05-16T09:52:58Z</time>
      </trkpt>
      <trkpt lat="41.3038070" lon="-8.7367380">
        <ele>9.9</ele>
        <time>2021-05-16T09:52:59Z</time>
      </trkpt>
      <trkpt lat="41.3038170" lon="-8.7367530">
        <ele>9.9</ele>
        <time>2021-05-16T09:53:00Z</time>
      </trkpt>
      <trkpt lat="41.3038250" lon="-8.7367680">
        <ele>9.9</ele>
        <time>2021-05-16T09:53:01Z</time>
      </trkpt>
      <trkpt lat="41.3038420" lon="-8.7367860">
        <ele>9.9</ele>
        <time>2021-05-16T09:53:02Z</time>
      </trkpt>
      <trkpt lat="41.3038480" lon="-8.7367930">
        <ele>9.8</ele>
        <time>2021-05-16T09:53:03Z</time>
      </trkpt>
      <trkpt lat="41.3038550" lon="-8.7367990">
        <ele>9.8</ele>
        <time>2021-05-16T09:53:04Z</time>
      </trkpt>
      <trkpt lat="41.3038730" lon="-8.7368090">
        <ele>9.8</ele>
        <time>2021-05-16T09:53:05Z</time>
      </trkpt>
      <trkpt lat="41.3038850" lon="-8.7368210">
        <ele>9.8</ele>
        <time>2021-05-16T09:53:06Z</time>
      </trkpt>
      <trkpt lat="41.3039020" lon="-8.7368420">
        <ele>9.7</ele>
        <time>2021-05-16T09:53:07Z</time>
      </trkpt>
      <trkpt lat="41.3039070" lon="-8.7368520">
        <ele>9.7</ele>
        <time>2021-05-16T09:53:08Z</time>
      </trkpt>
      <trkpt lat="41.3039120" lon="-8.7368610">
        <ele>9.7</ele>
        <time>2021-05-16T09:53:09Z</time>
      </trkpt>
      <trkpt lat="41.3039260" lon="-8.7368840">
        <ele>9.7</ele>
        <time>2021-05-16T09:53:10Z</time>
      </trkpt>
      <trkpt lat="41.3039330" lon="-8.7368930">
        <ele>9.6</ele>
        <time>2021-05-16T09:53:11Z</time>
      </trkpt>
      <trkpt lat="41.3039390" lon="-8.7369010">
        <ele>9.6</ele>
        <time>2021-05-16T09:53:12Z</time>
      </trkpt>
      <trkpt lat="41.3039580" lon="-8.7369170">
        <ele>9.6</ele>
        <time>2021-05-16T09:53:13Z</time>
      </trkpt>
      <trkpt lat="41.3039670" lon="-8.7369240">
        <ele>9.6</ele>
        <time>2021-05-16T09:53:14Z</time>
      </trkpt>
      <trkpt lat="41.3039750" lon="-8.7369300">
        <ele>9.6</ele>
        <time>2021-05-16T09:53:15Z</time>
      </trkpt>
      <trkpt lat="41.3039880" lon="-8.7369420">
        <ele>9.5</ele>
        <time>2021-05-16T09:53:16Z</time>
      </trkpt>
      <trkpt lat="41.3040030" lon="-8.7369530">
        <ele>9.5</ele>
        <time>2021-05-16T09:53:17Z</time>
      </trkpt>
      <trkpt lat="41.3040190" lon="-8.7369590">
        <ele>9.5</ele>
        <time>2021-05-16T09:53:18Z</time>
      </trkpt>
      <trkpt lat="41.3040280" lon="-8.7369740">
        <ele>9.5</ele>
        <time>2021-05-16T09:53:19Z</time>
      </trkpt>
      <trkpt lat="41.3040420" lon="-8.7369880">
        <ele>9.4</ele>
        <time>2021-05-16T09:53:20Z</time>
      </trkpt>
      <trkpt lat="41.3040530" lon="-8.7370040">
        <ele>9.4</ele>
        <time>2021-05-16T09:53:21Z</time>
      </trkpt>
      <trkpt lat="41.3040630" lon="-8.7370150">
        <ele>9.4</ele>
        <time>2021-05-16T09:53:22Z</time>
      </trkpt>
      <trkpt lat="41.3040740" lon="-8.7370260">
        <ele>9.4</ele>
        <time>2021-05-16T09:53:23Z</time>
      </trkpt>
      <trkpt lat="41.3040870" lon="-8.7370440">
        <ele>9.4</ele>
        <time>2021-05-16T09:53:24Z</time>
      </trkpt>
      <trkpt lat="41.3040970" lon="-8.7370610">
        <ele>9.3</ele>
        <time>2021-05-16T09:53:25Z</time>
      </trkpt>
      <trkpt lat="41.3041070" lon="-8.7370710">
        <ele>9.3</ele>
        <time>2021-05-16T09:53:26Z</time>
      </trkpt>
      <trkpt lat="41.3041190" lon="-8.7370820">
        <ele>9.3</ele>
        <time>2021-05-16T09:53:27Z</time>
      </trkpt>
      <trkpt lat="41.3041310" lon="-8.7370960">
        <ele>9.3</ele>
        <time>2021-05-16T09:53:28Z</time>
      </trkpt>
      <trkpt lat="41.3041390" lon="-8.7371070">
        <ele>9.3</ele>
        <time>2021-05-16T09:53:29Z</time>
      </trkpt>
      <trkpt lat="41.3041480" lon="-8.7371240">
        <ele>9.2</ele>
        <time>2021-05-16T09:53:30Z</time>
      </trkpt>
      <trkpt lat="41.3041610" lon="-8.7371330">
        <ele>9.2</ele>
        <time>2021-05-16T09:53:31Z</time>
      </trkpt>
      <trkpt lat="41.3041700" lon="-8.7371520">
        <ele>9.2</ele>
        <time>2021-05-16T09:53:32Z</time>
      </trkpt>
      <trkpt lat="41.3041870" lon="-8.7371610">
        <ele>9.2</ele>
        <time>2021-05-16T09:53:33Z</time>
      </trkpt>
      <trkpt lat="41.3041970" lon="-8.7371750">
        <ele>9.2</ele>
        <time>2021-05-16T09:53:34Z</time>
      </trkpt>
      <trkpt lat="41.3042070" lon="-8.7371860">
        <ele>9.1</ele>
        <time>2021-05-16T09:53:35Z</time>
      </trkpt>
      <trkpt lat="41.3042180" lon="-8.7371950">
        <ele>9.1</ele>
        <time>2021-05-16T09:53:36Z</time>
      </trkpt>
      <trkpt lat="41.3042300" lon="-8.7372080">
        <ele>9.1</ele>
        <time>2021-05-16T09:53:37Z</time>
      </trkpt>
      <trkpt lat="41.3042480" lon="-8.7372290">
        <ele>9.1</ele>
        <time>2021-05-16T09:53:38Z</time>
      </trkpt>
      <trkpt lat="41.3042550" lon="-8.7372370">
        <ele>9.1</ele>
        <time>2021-05-16T09:53:39Z</time>
      </trkpt>
      <trkpt lat="41.3042610" lon="-8.7372460">
        <ele>9.0</ele>
        <time>2021-05-16T09:53:40Z</time>
      </trkpt>
      <trkpt lat="41.3042720" lon="-8.7372610">
        <ele>9.0</ele>
        <time>2021-05-16T09:53:41Z</time>
      </trkpt>
      <trkpt lat="41.3042850" lon="-8.7372710">
        <ele>9.0</ele>
        <time>2021-05-16T09:53:42Z</time>
      </trkpt>
      <trkpt lat="41.3042950" lon="-8.7372850">
        <ele>9.0</ele>
        <time>2021-05-16T09:53:43Z</time>
      </trkpt>
      <trkpt lat="41.3043050" lon="-8.7373010">
        <ele>8.9</ele>
        <time>2021-05-16T09:53:44Z</time>
      </trkpt>
      <trkpt lat="41.3043210" lon="-8.7373060">
        <ele>8.9</ele>
        <time>2021-05-16T09:53:45Z</time>
      </trkpt>
      <trkpt lat="41.3043330" lon="-8.7373190">
        <ele>8.9</ele>
        <time>2021-05-16T09:53:46Z</time>
      </trkpt>
      <trkpt lat="41.3043460" lon="-8.7373420">
        <ele>8.9</ele>
        <time>2021-05-16T09:53:47Z</time>
      </trkpt>
      <trkpt lat="41.3043520" lon="-8.7373520">
        <ele>8.8</ele>
        <time>2021-05-16T09:53:48Z</time>
      </trkpt>
      <trkpt lat="41.3043570" lon="-8.7373630">
        <ele>8.8</ele>
        <time>2021-05-16T09:53:49Z</time>
      </trkpt>
      <trkpt lat="41.3043720" lon="-8.7373770">
        <ele>8.8</ele>
        <time>2021-05-16T09:53:50Z</time>
      </trkpt>
      <trkpt lat="41.3043810" lon="-8.7373930">
        <ele>8.8</ele>
        <time>2021-05-16T09:53:51Z</time>
      </trkpt>
      <trkpt lat="41.3043920" lon="-8.7374080">
        <ele>8.7</ele>
        <time>2021-05-16T09:53:52Z</time>
      </trkpt>
      <trkpt lat="41.3044020" lon="-8.7374200">
        <ele>8.7</ele>
        <time>2021-05-16T09:53:53Z</time>
      </trkpt>
      <trkpt lat="41.3044170" lon="-8.7374300">
        <ele>8.7</ele>
        <time>2021-05-16T09:53:54Z</time>
      </trkpt>
      <trkpt lat="41.3044300" lon="-8.7374450">
        <ele>8.7</ele>
        <time>2021-05-16T09:53:55Z</time>
      </trkpt>
      <trkpt lat="41.3044410" lon="-8.7374590">
        <ele>8.7</ele>
        <time>2021-05-16T09:53:56Z</time>
      </trkpt>
      <trkpt lat="41.3044560" lon="-8.7374710">
        <ele>8.7</ele>
        <time>2021-05-16T09:53:57Z</time>
      </trkpt>
      <trkpt lat="41.3044680" lon="-8.7374760">
        <ele>8.6</ele>
        <time>2021-05-16T09:53:58Z</time>
      </trkpt>
      <trkpt lat="41.3044820" lon="-8.7374890">
        <ele>8.6</ele>
        <time>2021-05-16T09:53:59Z</time>
      </trkpt>
      <trkpt lat="41.3044920" lon="-8.7375020">
        <ele>8.6</ele>
        <time>2021-05-16T09:54:00Z</time>
      </trkpt>
      <trkpt lat="41.3045040" lon="-8.7375150">
        <ele>8.6</ele>
        <time>2021-05-16T09:54:01Z</time>
      </trkpt>
      <trkpt lat="41.3045160" lon="-8.7375220">
        <ele>8.6</ele>
        <time>2021-05-16T09:54:02Z</time>
      </trkpt>
      <trkpt lat="41.3045270" lon="-8.7375380">
        <ele>8.5</ele>
        <time>2021-05-16T09:54:03Z</time>
      </trkpt>
      <trkpt lat="41.3045420" lon="-8.7375450">
        <ele>8.5</ele>
        <time>2021-05-16T09:54:04Z</time>
      </trkpt>
      <trkpt lat="41.3045480" lon="-8.7375710">
        <ele>8.5</ele>
        <time>2021-05-16T09:54:05Z</time>
      </trkpt>
      <trkpt lat="41.3045550" lon="-8.7375890">
        <ele>8.5</ele>
        <time>2021-05-16T09:54:06Z</time>
      </trkpt>
      <trkpt lat="41.3045650" lon="-8.7376030">
        <ele>8.4</ele>
        <time>2021-05-16T09:54:07Z</time>
      </trkpt>
      <trkpt lat="41.3045750" lon="-8.7376170">
        <ele>8.4</ele>
        <time>2021-05-16T09:54:08Z</time>
      </trkpt>
      <trkpt lat="41.3045880" lon="-8.7376250">
        <ele>8.4</ele>
        <time>2021-05-16T09:54:09Z</time>
      </trkpt>
      <trkpt lat="41.3045980" lon="-8.7376380">
        <ele>8.4</ele>
        <time>2021-05-16T09:54:10Z</time>
      </trkpt>
      <trkpt lat="41.3046130" lon="-8.7376530">
        <ele>8.3</ele>
        <time>2021-05-16T09:54:11Z</time>
      </trkpt>
      <trkpt lat="41.3046250" lon="-8.7376660">
        <ele>8.3</ele>
        <time>2021-05-16T09:54:12Z</time>
      </trkpt>
      <trkpt lat="41.3046420" lon="-8.7376730">
        <ele>8.3</ele>
        <time>2021-05-16T09:54:13Z</time>
      </trkpt>
      <trkpt lat="41.3046570" lon="-8.7376810">
        <ele>8.2</ele>
        <time>2021-05-16T09:54:14Z</time>
      </trkpt>
      <trkpt lat="41.3046720" lon="-8.7376890">
        <ele>8.2</ele>
        <time>2021-05-16T09:54:15Z</time>
      </trkpt>
      <trkpt lat="41.3046890" lon="-8.7376990">
        <ele>8.2</ele>
        <time>2021-05-16T09:54:16Z</time>
      </trkpt>
      <trkpt lat="41.3047050" lon="-8.7376990">
        <ele>8.1</ele>
        <time>2021-05-16T09:54:17Z</time>
      </trkpt>
      <trkpt lat="41.3047190" lon="-8.7377150">
        <ele>8.1</ele>
        <time>2021-05-16T09:54:18Z</time>
      </trkpt>
      <trkpt lat="41.3047310" lon="-8.7377260">
        <ele>8.1</ele>
        <time>2021-05-16T09:54:19Z</time>
      </trkpt>
      <trkpt lat="41.3047500" lon="-8.7377270">
        <ele>8.1</ele>
        <time>2021-05-16T09:54:20Z</time>
      </trkpt>
      <trkpt lat="41.3047640" lon="-8.7377340">
        <ele>8.0</ele>
        <time>2021-05-16T09:54:21Z</time>
      </trkpt>
      <trkpt lat="41.3047840" lon="-8.7377500">
        <ele>8.0</ele>
        <time>2021-05-16T09:54:22Z</time>
      </trkpt>
      <trkpt lat="41.3047910" lon="-8.7377560">
        <ele>8.0</ele>
        <time>2021-05-16T09:54:23Z</time>
      </trkpt>
      <trkpt lat="41.3047980" lon="-8.7377630">
        <ele>8.0</ele>
        <time>2021-05-16T09:54:24Z</time>
      </trkpt>
      <trkpt lat="41.3048160" lon="-8.7377770">
        <ele>8.0</ele>
        <time>2021-05-16T09:54:25Z</time>
      </trkpt>
      <trkpt lat="41.3048280" lon="-8.7377830">
        <ele>7.9</ele>
        <time>2021-05-16T09:54:26Z</time>
      </trkpt>
      <trkpt lat="41.3048460" lon="-8.7377780">
        <ele>7.9</ele>
        <time>2021-05-16T09:54:27Z</time>
      </trkpt>
      <trkpt lat="41.3048610" lon="-8.7377890">
        <ele>7.9</ele>
        <time>2021-05-16T09:54:28Z</time>
      </trkpt>
      <trkpt lat="41.3048760" lon="-8.7377960">
        <ele>7.9</ele>
        <time>2021-05-16T09:54:29Z</time>
      </trkpt>
      <trkpt lat="41.3048900" lon="-8.7377940">
        <ele>7.9</ele>
        <time>2021-05-16T09:54:30Z</time>
      </trkpt>
      <trkpt lat="41.3049030" lon="-8.7378060">
        <ele>7.9</ele>
        <time>2021-05-16T09:54:31Z</time>
      </trkpt>
      <trkpt lat="41.3049180" lon="-8.7378110">
        <ele>7.9</ele>
        <time>2021-05-16T09:54:32Z</time>
      </trkpt>
      <trkpt lat="41.3049300" lon="-8.7378210">
        <ele>7.9</ele>
        <time>2021-05-16T09:54:33Z</time>
      </trkpt>
      <trkpt lat="41.3049390" lon="-8.7378330">
        <ele>7.9</ele>
        <time>2021-05-16T09:54:34Z</time>
      </trkpt>
      <trkpt lat="41.3049540" lon="-8.7378390">
        <ele>7.9</ele>
        <time>2021-05-16T09:54:35Z</time>
      </trkpt>
      <trkpt lat="41.3049690" lon="-8.7378490">
        <ele>7.8</ele>
        <time>2021-05-16T09:54:36Z</time>
      </trkpt>
      <trkpt lat="41.3049830" lon="-8.7378540">
        <ele>7.8</ele>
        <time>2021-05-16T09:54:37Z</time>
      </trkpt>
      <trkpt lat="41.3049990" lon="-8.7378570">
        <ele>7.8</ele>
        <time>2021-05-16T09:54:38Z</time>
      </trkpt>
      <trkpt lat="41.3050100" lon="-8.7378700">
        <ele>7.8</ele>
        <time>2021-05-16T09:54:39Z</time>
      </trkpt>
      <trkpt lat="41.3050240" lon="-8.7378760">
        <ele>7.8</ele>
        <time>2021-05-16T09:54:40Z</time>
      </trkpt>
      <trkpt lat="41.3050400" lon="-8.7378840">
        <ele>7.8</ele>
        <time>2021-05-16T09:54:41Z</time>
      </trkpt>
      <trkpt lat="41.3050550" lon="-8.7378890">
        <ele>7.8</ele>
        <time>2021-05-16T09:54:42Z</time>
      </trkpt>
      <trkpt lat="41.3050690" lon="-8.7378960">
        <ele>7.8</ele>
        <time>2021-05-16T09:54:43Z</time>
      </trkpt>
      <trkpt lat="41.3050810" lon="-8.7379040">
        <ele>7.8</ele>
        <time>2021-05-16T09:54:44Z</time>
      </trkpt>
      <trkpt lat="41.3050950" lon="-8.7379090">
        <ele>7.8</ele>
        <time>2021-05-16T09:54:45Z</time>
      </trkpt>
      <trkpt lat="41.3051090" lon="-8.7379130">
        <ele>7.8</ele>
        <time>2021-05-16T09:54:46Z</time>
      </trkpt>
      <trkpt lat="41.3051210" lon="-8.7379190">
        <ele>7.8</ele>
        <time>2021-05-16T09:54:47Z</time>
      </trkpt>
      <trkpt lat="41.3051350" lon="-8.7379260">
        <ele>7.8</ele>
        <time>2021-05-16T09:54:48Z</time>
      </trkpt>
      <trkpt lat="41.3051500" lon="-8.7379300">
        <ele>7.9</ele>
        <time>2021-05-16T09:54:49Z</time>
      </trkpt>
      <trkpt lat="41.3051620" lon="-8.7379320">
        <ele>7.9</ele>
        <time>2021-05-16T09:54:50Z</time>
      </trkpt>
      <trkpt lat="41.3051800" lon="-8.7379370">
        <ele>8.0</ele>
        <time>2021-05-16T09:54:51Z</time>
      </trkpt>
      <trkpt lat="41.3051880" lon="-8.7379370">
        <ele>8.0</ele>
        <time>2021-05-16T09:54:52Z</time>
      </trkpt>
      <trkpt lat="41.3051970" lon="-8.7379240">
        <ele>8.0</ele>
        <time>2021-05-16T09:54:53Z</time>
      </trkpt>
      <trkpt lat="41.3052030" lon="-8.7379040">
        <ele>8.0</ele>
        <time>2021-05-16T09:54:54Z</time>
      </trkpt>
      <trkpt lat="41.3052040" lon="-8.7378800">
        <ele>8.0</ele>
        <time>2021-05-16T09:54:55Z</time>
      </trkpt>
      <trkpt lat="41.3052170" lon="-8.7378720">
        <ele>8.1</ele>
        <time>2021-05-16T09:54:56Z</time>
      </trkpt>
      <trkpt lat="41.3052310" lon="-8.7378690">
        <ele>8.1</ele>
        <time>2021-05-16T09:54:57Z</time>
      </trkpt>
      <trkpt lat="41.3052490" lon="-8.7378730">
        <ele>8.1</ele>
        <time>2021-05-16T09:54:58Z</time>
      </trkpt>
      <trkpt lat="41.3052640" lon="-8.7378830">
        <ele>8.1</ele>
        <time>2021-05-16T09:54:59Z</time>
      </trkpt>
      <trkpt lat="41.3052780" lon="-8.7378950">
        <ele>8.1</ele>
        <time>2021-05-16T09:55:00Z</time>
      </trkpt>
      <trkpt lat="41.3052920" lon="-8.7379060">
        <ele>8.1</ele>
        <time>2021-05-16T09:55:01Z</time>
      </trkpt>
      <trkpt lat="41.3053050" lon="-8.7379000">
        <ele>8.2</ele>
        <time>2021-05-16T09:55:02Z</time>
      </trkpt>
      <trkpt lat="41.3053220" lon="-8.7379070">
        <ele>8.2</ele>
        <time>2021-05-16T09:55:03Z</time>
      </trkpt>
      <trkpt lat="41.3053340" lon="-8.7379030">
        <ele>8.1</ele>
        <time>2021-05-16T09:55:04Z</time>
      </trkpt>
      <trkpt lat="41.3053490" lon="-8.7379000">
        <ele>8.1</ele>
        <time>2021-05-16T09:55:05Z</time>
      </trkpt>
      <trkpt lat="41.3053690" lon="-8.7379040">
        <ele>8.1</ele>
        <time>2021-05-16T09:55:06Z</time>
      </trkpt>
      <trkpt lat="41.3053790" lon="-8.7379060">
        <ele>8.1</ele>
        <time>2021-05-16T09:55:07Z</time>
      </trkpt>
      <trkpt lat="41.3053880" lon="-8.7379070">
        <ele>8.1</ele>
        <time>2021-05-16T09:55:08Z</time>
      </trkpt>
      <trkpt lat="41.3054040" lon="-8.7379100">
        <ele>8.1</ele>
        <time>2021-05-16T09:55:09Z</time>
      </trkpt>
      <trkpt lat="41.3054210" lon="-8.7379170">
        <ele>8.1</ele>
        <time>2021-05-16T09:55:10Z</time>
      </trkpt>
      <trkpt lat="41.3054360" lon="-8.7379220">
        <ele>8.1</ele>
        <time>2021-05-16T09:55:11Z</time>
      </trkpt>
      <trkpt lat="41.3054530" lon="-8.7379280">
        <ele>8.0</ele>
        <time>2021-05-16T09:55:12Z</time>
      </trkpt>
      <trkpt lat="41.3054660" lon="-8.7379360">
        <ele>8.0</ele>
        <time>2021-05-16T09:55:13Z</time>
      </trkpt>
      <trkpt lat="41.3054810" lon="-8.7379440">
        <ele>8.0</ele>
        <time>2021-05-16T09:55:14Z</time>
      </trkpt>
      <trkpt lat="41.3054980" lon="-8.7379540">
        <ele>7.9</ele>
        <time>2021-05-16T09:55:15Z</time>
      </trkpt>
      <trkpt lat="41.3055060" lon="-8.7379670">
        <ele>7.9</ele>
        <time>2021-05-16T09:55:16Z</time>
      </trkpt>
      <trkpt lat="41.3055200" lon="-8.7379750">
        <ele>7.9</ele>
        <time>2021-05-16T09:55:17Z</time>
      </trkpt>
      <trkpt lat="41.3055330" lon="-8.7379840">
        <ele>7.8</ele>
        <time>2021-05-16T09:55:18Z</time>
      </trkpt>
      <trkpt lat="41.3055540" lon="-8.7379880">
        <ele>7.8</ele>
        <time>2021-05-16T09:55:19Z</time>
      </trkpt>
      <trkpt lat="41.3055610" lon="-8.7379970">
        <ele>7.7</ele>
        <time>2021-05-16T09:55:20Z</time>
      </trkpt>
      <trkpt lat="41.3055670" lon="-8.7380050">
        <ele>7.7</ele>
        <time>2021-05-16T09:55:21Z</time>
      </trkpt>
      <trkpt lat="41.3055810" lon="-8.7380100">
        <ele>7.7</ele>
        <time>2021-05-16T09:55:22Z</time>
      </trkpt>
      <trkpt lat="41.3056010" lon="-8.7380160">
        <ele>7.6</ele>
        <time>2021-05-16T09:55:23Z</time>
      </trkpt>
      <trkpt lat="41.3056170" lon="-8.7380220">
        <ele>7.6</ele>
        <time>2021-05-16T09:55:24Z</time>
      </trkpt>
      <trkpt lat="41.3056320" lon="-8.7380310">
        <ele>7.5</ele>
        <time>2021-05-16T09:55:25Z</time>
      </trkpt>
      <trkpt lat="41.3056520" lon="-8.7380440">
        <ele>7.5</ele>
        <time>2021-05-16T09:55:26Z</time>
      </trkpt>
      <trkpt lat="41.3056580" lon="-8.7380500">
        <ele>7.4</ele>
        <time>2021-05-16T09:55:27Z</time>
      </trkpt>
      <trkpt lat="41.3056650" lon="-8.7380570">
        <ele>7.4</ele>
        <time>2021-05-16T09:55:28Z</time>
      </trkpt>
      <trkpt lat="41.3056770" lon="-8.7380690">
        <ele>7.4</ele>
        <time>2021-05-16T09:55:29Z</time>
      </trkpt>
      <trkpt lat="41.3056930" lon="-8.7380750">
        <ele>7.3</ele>
        <time>2021-05-16T09:55:30Z</time>
      </trkpt>
      <trkpt lat="41.3057120" lon="-8.7380740">
        <ele>7.3</ele>
        <time>2021-05-16T09:55:31Z</time>
      </trkpt>
      <trkpt lat="41.3057270" lon="-8.7380820">
        <ele>7.2</ele>
        <time>2021-05-16T09:55:32Z</time>
      </trkpt>
      <trkpt lat="41.3057400" lon="-8.7380880">
        <ele>7.2</ele>
        <time>2021-05-16T09:55:33Z</time>
      </trkpt>
      <trkpt lat="41.3057560" lon="-8.7381040">
        <ele>7.1</ele>
        <time>2021-05-16T09:55:34Z</time>
      </trkpt>
      <trkpt lat="41.3057680" lon="-8.7381160">
        <ele>7.1</ele>
        <time>2021-05-16T09:55:35Z</time>
      </trkpt>
      <trkpt lat="41.3057870" lon="-8.7381220">
        <ele>7.0</ele>
        <time>2021-05-16T09:55:36Z</time>
      </trkpt>
      <trkpt lat="41.3058050" lon="-8.7381370">
        <ele>7.0</ele>
        <time>2021-05-16T09:55:37Z</time>
      </trkpt>
      <trkpt lat="41.3058140" lon="-8.7381410">
        <ele>6.9</ele>
        <time>2021-05-16T09:55:38Z</time>
      </trkpt>
      <trkpt lat="41.3058240" lon="-8.7381450">
        <ele>6.9</ele>
        <time>2021-05-16T09:55:39Z</time>
      </trkpt>
      <trkpt lat="41.3058330" lon="-8.7381570">
        <ele>6.9</ele>
        <time>2021-05-16T09:55:40Z</time>
      </trkpt>
      <trkpt lat="41.3058440" lon="-8.7381750">
        <ele>6.8</ele>
        <time>2021-05-16T09:55:41Z</time>
      </trkpt>
      <trkpt lat="41.3058590" lon="-8.7381860">
        <ele>6.8</ele>
        <time>2021-05-16T09:55:42Z</time>
      </trkpt>
      <trkpt lat="41.3058680" lon="-8.7381960">
        <ele>6.8</ele>
        <time>2021-05-16T09:55:43Z</time>
      </trkpt>
      <trkpt lat="41.3058820" lon="-8.7382020">
        <ele>6.7</ele>
        <time>2021-05-16T09:55:44Z</time>
      </trkpt>
      <trkpt lat="41.3058980" lon="-8.7382150">
        <ele>6.7</ele>
        <time>2021-05-16T09:55:45Z</time>
      </trkpt>
      <trkpt lat="41.3059140" lon="-8.7382220">
        <ele>6.7</ele>
        <time>2021-05-16T09:55:46Z</time>
      </trkpt>
      <trkpt lat="41.3059260" lon="-8.7382390">
        <ele>6.6</ele>
        <time>2021-05-16T09:55:47Z</time>
      </trkpt>
      <trkpt lat="41.3059430" lon="-8.7382510">
        <ele>6.6</ele>
        <time>2021-05-16T09:55:48Z</time>
      </trkpt>
      <trkpt lat="41.3059510" lon="-8.7382580">
        <ele>6.6</ele>
        <time>2021-05-16T09:55:49Z</time>
      </trkpt>
      <trkpt lat="41.3059580" lon="-8.7382640">
        <ele>6.6</ele>
        <time>2021-05-16T09:55:50Z</time>
      </trkpt>
      <trkpt lat="41.3059740" lon="-8.7382690">
        <ele>6.5</ele>
        <time>2021-05-16T09:55:51Z</time>
      </trkpt>
      <trkpt lat="41.3059850" lon="-8.7382820">
        <ele>6.5</ele>
        <time>2021-05-16T09:55:52Z</time>
      </trkpt>
      <trkpt lat="41.3059960" lon="-8.7382990">
        <ele>6.5</ele>
        <time>2021-05-16T09:55:53Z</time>
      </trkpt>
      <trkpt lat="41.3060030" lon="-8.7383130">
        <ele>6.5</ele>
        <time>2021-05-16T09:55:54Z</time>
      </trkpt>
      <trkpt lat="41.3060180" lon="-8.7383190">
        <ele>6.5</ele>
        <time>2021-05-16T09:55:55Z</time>
      </trkpt>
      <trkpt lat="41.3060320" lon="-8.7383280">
        <ele>6.4</ele>
        <time>2021-05-16T09:55:56Z</time>
      </trkpt>
      <trkpt lat="41.3060480" lon="-8.7383330">
        <ele>6.4</ele>
        <time>2021-05-16T09:55:57Z</time>
      </trkpt>
      <trkpt lat="41.3060610" lon="-8.7383410">
        <ele>6.4</ele>
        <time>2021-05-16T09:55:58Z</time>
      </trkpt>
      <trkpt lat="41.3060740" lon="-8.7383500">
        <ele>6.4</ele>
        <time>2021-05-16T09:55:59Z</time>
      </trkpt>
      <trkpt lat="41.3060860" lon="-8.7383580">
        <ele>6.4</ele>
        <time>2021-05-16T09:56:00Z</time>
      </trkpt>
      <trkpt lat="41.3061000" lon="-8.7383670">
        <ele>6.3</ele>
        <time>2021-05-16T09:56:01Z</time>
      </trkpt>
      <trkpt lat="41.3061140" lon="-8.7383780">
        <ele>6.3</ele>
        <time>2021-05-16T09:56:02Z</time>
      </trkpt>
      <trkpt lat="41.3061260" lon="-8.7383860">
        <ele>6.3</ele>
        <time>2021-05-16T09:56:03Z</time>
      </trkpt>
      <trkpt lat="41.3061330" lon="-8.7384020">
        <ele>6.3</ele>
        <time>2021-05-16T09:56:04Z</time>
      </trkpt>
      <trkpt lat="41.3061460" lon="-8.7384070">
        <ele>6.3</ele>
        <time>2021-05-16T09:56:05Z</time>
      </trkpt>
      <trkpt lat="41.3061610" lon="-8.7384120">
        <ele>6.3</ele>
        <time>2021-05-16T09:56:06Z</time>
      </trkpt>
      <trkpt lat="41.3061760" lon="-8.7384090">
        <ele>6.2</ele>
        <time>2021-05-16T09:56:07Z</time>
      </trkpt>
      <trkpt lat="41.3061930" lon="-8.7384120">
        <ele>6.2</ele>
        <time>2021-05-16T09:56:08Z</time>
      </trkpt>
      <trkpt lat="41.3062170" lon="-8.7384080">
        <ele>6.2</ele>
        <time>2021-05-16T09:56:09Z</time>
      </trkpt>
      <trkpt lat="41.3062270" lon="-8.7384090">
        <ele>6.2</ele>
        <time>2021-05-16T09:56:10Z</time>
      </trkpt>
      <trkpt lat="41.3062370" lon="-8.7384110">
        <ele>6.2</ele>
        <time>2021-05-16T09:56:11Z</time>
      </trkpt>
      <trkpt lat="41.3062500" lon="-8.7384100">
        <ele>6.2</ele>
        <time>2021-05-16T09:56:12Z</time>
      </trkpt>
      <trkpt lat="41.3062660" lon="-8.7384080">
        <ele>6.2</ele>
        <time>2021-05-16T09:56:13Z</time>
      </trkpt>
      <trkpt lat="41.3062870" lon="-8.7384070">
        <ele>6.1</ele>
        <time>2021-05-16T09:56:14Z</time>
      </trkpt>
      <trkpt lat="41.3062960" lon="-8.7384090">
        <ele>6.1</ele>
        <time>2021-05-16T09:56:15Z</time>
      </trkpt>
      <trkpt lat="41.3063060" lon="-8.7384120">
        <ele>6.1</ele>
        <time>2021-05-16T09:56:16Z</time>
      </trkpt>
      <trkpt lat="41.3063200" lon="-8.7384050">
        <ele>6.1</ele>
        <time>2021-05-16T09:56:17Z</time>
      </trkpt>
      <trkpt lat="41.3063370" lon="-8.7384070">
        <ele>6.1</ele>
        <time>2021-05-16T09:56:18Z</time>
      </trkpt>
      <trkpt lat="41.3063490" lon="-8.7384120">
        <ele>6.1</ele>
        <time>2021-05-16T09:56:19Z</time>
      </trkpt>
      <trkpt lat="41.3063640" lon="-8.7384150">
        <ele>6.1</ele>
        <time>2021-05-16T09:56:20Z</time>
      </trkpt>
      <trkpt lat="41.3063810" lon="-8.7384120">
        <ele>6.0</ele>
        <time>2021-05-16T09:56:21Z</time>
      </trkpt>
      <trkpt lat="41.3063950" lon="-8.7384140">
        <ele>6.0</ele>
        <time>2021-05-16T09:56:22Z</time>
      </trkpt>
      <trkpt lat="41.3064090" lon="-8.7384120">
        <ele>6.0</ele>
        <time>2021-05-16T09:56:23Z</time>
      </trkpt>
      <trkpt lat="41.3064220" lon="-8.7384170">
        <ele>6.0</ele>
        <time>2021-05-16T09:56:24Z</time>
      </trkpt>
      <trkpt lat="41.3064350" lon="-8.7384170">
        <ele>6.0</ele>
        <time>2021-05-16T09:56:25Z</time>
      </trkpt>
      <trkpt lat="41.3064510" lon="-8.7384200">
        <ele>6.0</ele>
        <time>2021-05-16T09:56:26Z</time>
      </trkpt>
      <trkpt lat="41.3064740" lon="-8.7384200">
        <ele>6.0</ele>
        <time>2021-05-16T09:56:27Z</time>
      </trkpt>
      <trkpt lat="41.3064850" lon="-8.7384210">
        <ele>6.0</ele>
        <time>2021-05-16T09:56:28Z</time>
      </trkpt>
      <trkpt lat="41.3064950" lon="-8.7384220">
        <ele>6.0</ele>
        <time>2021-05-16T09:56:29Z</time>
      </trkpt>
      <trkpt lat="41.3065160" lon="-8.7384230">
        <ele>6.0</ele>
        <time>2021-05-16T09:56:30Z</time>
      </trkpt>
      <trkpt lat="41.3065240" lon="-8.7384250">
        <ele>6.0</ele>
        <time>2021-05-16T09:56:31Z</time>
      </trkpt>
      <trkpt lat="41.3065330" lon="-8.7384270">
        <ele>6.0</ele>
        <time>2021-05-16T09:56:32Z</time>
      </trkpt>
      <trkpt lat="41.3065480" lon="-8.7384310">
        <ele>6.0</ele>
        <time>2021-05-16T09:56:33Z</time>
      </trkpt>
      <trkpt lat="41.3065630" lon="-8.7384330">
        <ele>6.0</ele>
        <time>2021-05-16T09:56:34Z</time>
      </trkpt>
      <trkpt lat="41.3065770" lon="-8.7384350">
        <ele>6.0</ele>
        <time>2021-05-16T09:56:35Z</time>
      </trkpt>
      <trkpt lat="41.3065920" lon="-8.7384390">
        <ele>6.0</ele>
        <time>2021-05-16T09:56:36Z</time>
      </trkpt>
      <trkpt lat="41.3066060" lon="-8.7384350">
        <ele>6.0</ele>
        <time>2021-05-16T09:56:37Z</time>
      </trkpt>
      <trkpt lat="41.3066210" lon="-8.7384390">
        <ele>6.0</ele>
        <time>2021-05-16T09:56:38Z</time>
      </trkpt>
      <trkpt lat="41.3066430" lon="-8.7384370">
        <ele>6.0</ele>
        <time>2021-05-16T09:56:39Z</time>
      </trkpt>
      <trkpt lat="41.3066530" lon="-8.7384370">
        <ele>6.0</ele>
        <time>2021-05-16T09:56:40Z</time>
      </trkpt>
      <trkpt lat="41.3066630" lon="-8.7384360">
        <ele>6.0</ele>
        <time>2021-05-16T09:56:41Z</time>
      </trkpt>
      <trkpt lat="41.3066780" lon="-8.7384380">
        <ele>6.0</ele>
        <time>2021-05-16T09:56:42Z</time>
      </trkpt>
      <trkpt lat="41.3066920" lon="-8.7384370">
        <ele>6.0</ele>
        <time>2021-05-16T09:56:43Z</time>
      </trkpt>
      <trkpt lat="41.3067080" lon="-8.7384400">
        <ele>6.0</ele>
        <time>2021-05-16T09:56:44Z</time>
      </trkpt>
      <trkpt lat="41.3067210" lon="-8.7384410">
        <ele>6.0</ele>
        <time>2021-05-16T09:56:45Z</time>
      </trkpt>
      <trkpt lat="41.3067360" lon="-8.7384490">
        <ele>6.0</ele>
        <time>2021-05-16T09:56:46Z</time>
      </trkpt>
      <trkpt lat="41.3067500" lon="-8.7384530">
        <ele>6.0</ele>
        <time>2021-05-16T09:56:47Z</time>
      </trkpt>
      <trkpt lat="41.3067640" lon="-8.7384590">
        <ele>6.0</ele>
        <time>2021-05-16T09:56:48Z</time>
      </trkpt>
      <trkpt lat="41.3067780" lon="-8.7384720">
        <ele>6.0</ele>
        <time>2021-05-16T09:56:49Z</time>
      </trkpt>
      <trkpt lat="41.3067900" lon="-8.7384800">
        <ele>6.1</ele>
        <time>2021-05-16T09:56:50Z</time>
      </trkpt>
      <trkpt lat="41.3068040" lon="-8.7384840">
        <ele>6.1</ele>
        <time>2021-05-16T09:56:51Z</time>
      </trkpt>
      <trkpt lat="41.3068190" lon="-8.7384870">
        <ele>6.1</ele>
        <time>2021-05-16T09:56:52Z</time>
      </trkpt>
      <trkpt lat="41.3068340" lon="-8.7384910">
        <ele>6.1</ele>
        <time>2021-05-16T09:56:53Z</time>
      </trkpt>
      <trkpt lat="41.3068460" lon="-8.7384990">
        <ele>6.1</ele>
        <time>2021-05-16T09:56:54Z</time>
      </trkpt>
      <trkpt lat="41.3068630" lon="-8.7384970">
        <ele>6.1</ele>
        <time>2021-05-16T09:56:55Z</time>
      </trkpt>
      <trkpt lat="41.3068800" lon="-8.7384970">
        <ele>6.2</ele>
        <time>2021-05-16T09:56:56Z</time>
      </trkpt>
      <trkpt lat="41.3068940" lon="-8.7385020">
        <ele>6.2</ele>
        <time>2021-05-16T09:56:57Z</time>
      </trkpt>
      <trkpt lat="41.3069090" lon="-8.7385070">
        <ele>6.2</ele>
        <time>2021-05-16T09:56:58Z</time>
      </trkpt>
      <trkpt lat="41.3069240" lon="-8.7385080">
        <ele>6.2</ele>
        <time>2021-05-16T09:56:59Z</time>
      </trkpt>
      <trkpt lat="41.3069370" lon="-8.7385190">
        <ele>6.3</ele>
        <time>2021-05-16T09:57:00Z</time>
      </trkpt>
      <trkpt lat="41.3069520" lon="-8.7385210">
        <ele>6.3</ele>
        <time>2021-05-16T09:57:01Z</time>
      </trkpt>
      <trkpt lat="41.3069670" lon="-8.7385270">
        <ele>6.3</ele>
        <time>2021-05-16T09:57:02Z</time>
      </trkpt>
      <trkpt lat="41.3069810" lon="-8.7385320">
        <ele>6.3</ele>
        <time>2021-05-16T09:57:03Z</time>
      </trkpt>
      <trkpt lat="41.3069940" lon="-8.7385360">
        <ele>6.3</ele>
        <time>2021-05-16T09:57:04Z</time>
      </trkpt>
      <trkpt lat="41.3070060" lon="-8.7385510">
        <ele>6.4</ele>
        <time>2021-05-16T09:57:05Z</time>
      </trkpt>
      <trkpt lat="41.3070220" lon="-8.7385520">
        <ele>6.4</ele>
        <time>2021-05-16T09:57:06Z</time>
      </trkpt>
      <trkpt lat="41.3070350" lon="-8.7385560">
        <ele>6.4</ele>
        <time>2021-05-16T09:57:07Z</time>
      </trkpt>
      <trkpt lat="41.3070480" lon="-8.7385600">
        <ele>6.4</ele>
        <time>2021-05-16T09:57:08Z</time>
      </trkpt>
      <trkpt lat="41.3070630" lon="-8.7385670">
        <ele>6.5</ele>
        <time>2021-05-16T09:57:09Z</time>
      </trkpt>
      <trkpt lat="41.3070780" lon="-8.7385690">
        <ele>6.5</ele>
        <time>2021-05-16T09:57:10Z</time>
      </trkpt>
      <trkpt lat="41.3070920" lon="-8.7385730">
        <ele>6.5</ele>
        <time>2021-05-16T09:57:11Z</time>
      </trkpt>
      <trkpt lat="41.3071070" lon="-8.7385810">
        <ele>6.6</ele>
        <time>2021-05-16T09:57:12Z</time>
      </trkpt>
      <trkpt lat="41.3071200" lon="-8.7385890">
        <ele>6.6</ele>
        <time>2021-05-16T09:57:13Z</time>
      </trkpt>
      <trkpt lat="41.3071320" lon="-8.7385950">
        <ele>6.6</ele>
        <time>2021-05-16T09:57:14Z</time>
      </trkpt>
      <trkpt lat="41.3071480" lon="-8.7386030">
        <ele>6.7</ele>
        <time>2021-05-16T09:57:15Z</time>
      </trkpt>
      <trkpt lat="41.3071610" lon="-8.7386100">
        <ele>6.7</ele>
        <time>2021-05-16T09:57:16Z</time>
      </trkpt>
      <trkpt lat="41.3071760" lon="-8.7386170">
        <ele>6.7</ele>
        <time>2021-05-16T09:57:17Z</time>
      </trkpt>
      <trkpt lat="41.3071930" lon="-8.7386190">
        <ele>6.8</ele>
        <time>2021-05-16T09:57:18Z</time>
      </trkpt>
      <trkpt lat="41.3072100" lon="-8.7386150">
        <ele>6.8</ele>
        <time>2021-05-16T09:57:19Z</time>
      </trkpt>
      <trkpt lat="41.3072230" lon="-8.7386220">
        <ele>6.9</ele>
        <time>2021-05-16T09:57:20Z</time>
      </trkpt>
      <trkpt lat="41.3072360" lon="-8.7386270">
        <ele>6.9</ele>
        <time>2021-05-16T09:57:21Z</time>
      </trkpt>
      <trkpt lat="41.3072500" lon="-8.7386350">
        <ele>6.9</ele>
        <time>2021-05-16T09:57:22Z</time>
      </trkpt>
      <trkpt lat="41.3072620" lon="-8.7386450">
        <ele>7.0</ele>
        <time>2021-05-16T09:57:23Z</time>
      </trkpt>
      <trkpt lat="41.3072770" lon="-8.7386490">
        <ele>7.0</ele>
        <time>2021-05-16T09:57:24Z</time>
      </trkpt>
      <trkpt lat="41.3072930" lon="-8.7386510">
        <ele>7.1</ele>
        <time>2021-05-16T09:57:25Z</time>
      </trkpt>
      <trkpt lat="41.3073110" lon="-8.7386590">
        <ele>7.1</ele>
        <time>2021-05-16T09:57:26Z</time>
      </trkpt>
      <trkpt lat="41.3073250" lon="-8.7386610">
        <ele>7.1</ele>
        <time>2021-05-16T09:57:27Z</time>
      </trkpt>
      <trkpt lat="41.3073400" lon="-8.7386670">
        <ele>7.2</ele>
        <time>2021-05-16T09:57:28Z</time>
      </trkpt>
      <trkpt lat="41.3073560" lon="-8.7386720">
        <ele>7.2</ele>
        <time>2021-05-16T09:57:29Z</time>
      </trkpt>
      <trkpt lat="41.3073790" lon="-8.7386780">
        <ele>7.3</ele>
        <time>2021-05-16T09:57:30Z</time>
      </trkpt>
      <trkpt lat="41.3073880" lon="-8.7386800">
        <ele>7.3</ele>
        <time>2021-05-16T09:57:31Z</time>
      </trkpt>
      <trkpt lat="41.3073970" lon="-8.7386830">
        <ele>7.3</ele>
        <time>2021-05-16T09:57:32Z</time>
      </trkpt>
      <trkpt lat="41.3074190" lon="-8.7386870">
        <ele>7.4</ele>
        <time>2021-05-16T09:57:33Z</time>
      </trkpt>
      <trkpt lat="41.3074280" lon="-8.7386920">
        <ele>7.4</ele>
        <time>2021-05-16T09:57:34Z</time>
      </trkpt>
      <trkpt lat="41.3074360" lon="-8.7386960">
        <ele>7.4</ele>
        <time>2021-05-16T09:57:35Z</time>
      </trkpt>
      <trkpt lat="41.3074510" lon="-8.7387010">
        <ele>7.4</ele>
        <time>2021-05-16T09:57:36Z</time>
      </trkpt>
      <trkpt lat="41.3074650" lon="-8.7387030">
        <ele>7.5</ele>
        <time>2021-05-16T09:57:37Z</time>
      </trkpt>
      <trkpt lat="41.3074860" lon="-8.7387140">
        <ele>7.5</ele>
        <time>2021-05-16T09:57:38Z</time>
      </trkpt>
      <trkpt lat="41.3074940" lon="-8.7387200">
        <ele>7.5</ele>
        <time>2021-05-16T09:57:39Z</time>
      </trkpt>
      <trkpt lat="41.3075030" lon="-8.7387250">
        <ele>7.5</ele>
        <time>2021-05-16T09:57:40Z</time>
      </trkpt>
      <trkpt lat="41.3075220" lon="-8.7387340">
        <ele>7.6</ele>
        <time>2021-05-16T09:57:41Z</time>
      </trkpt>
      <trkpt lat="41.3075290" lon="-8.7387400">
        <ele>7.6</ele>
        <time>2021-05-16T09:57:42Z</time>
      </trkpt>
      <trkpt lat="41.3075360" lon="-8.7387460">
        <ele>7.6</ele>
        <time>2021-05-16T09:57:43Z</time>
      </trkpt>
      <trkpt lat="41.3075580" lon="-8.7387520">
        <ele>7.6</ele>
        <time>2021-05-16T09:57:44Z</time>
      </trkpt>
      <trkpt lat="41.3075660" lon="-8.7387570">
        <ele>7.7</ele>
        <time>2021-05-16T09:57:45Z</time>
      </trkpt>
      <trkpt lat="41.3075750" lon="-8.7387610">
        <ele>7.7</ele>
        <time>2021-05-16T09:57:46Z</time>
      </trkpt>
      <trkpt lat="41.3075890" lon="-8.7387610">
        <ele>7.7</ele>
        <time>2021-05-16T09:57:47Z</time>
      </trkpt>
      <trkpt lat="41.3076020" lon="-8.7387650">
        <ele>7.7</ele>
        <time>2021-05-16T09:57:48Z</time>
      </trkpt>
      <trkpt lat="41.3076150" lon="-8.7387690">
        <ele>7.7</ele>
        <time>2021-05-16T09:57:49Z</time>
      </trkpt>
      <trkpt lat="41.3076290" lon="-8.7387740">
        <ele>7.7</ele>
        <time>2021-05-16T09:57:50Z</time>
      </trkpt>
      <trkpt lat="41.3076430" lon="-8.7387780">
        <ele>7.8</ele>
        <time>2021-05-16T09:57:51Z</time>
      </trkpt>
      <trkpt lat="41.3076550" lon="-8.7387840">
        <ele>7.8</ele>
        <time>2021-05-16T09:57:52Z</time>
      </trkpt>
      <trkpt lat="41.3076680" lon="-8.7387890">
        <ele>7.8</ele>
        <time>2021-05-16T09:57:53Z</time>
      </trkpt>
      <trkpt lat="41.3076830" lon="-8.7387860">
        <ele>7.8</ele>
        <time>2021-05-16T09:57:54Z</time>
      </trkpt>
      <trkpt lat="41.3076960" lon="-8.7387970">
        <ele>7.8</ele>
        <time>2021-05-16T09:57:55Z</time>
      </trkpt>
      <trkpt lat="41.3077090" lon="-8.7388030">
        <ele>7.8</ele>
        <time>2021-05-16T09:57:56Z</time>
      </trkpt>
      <trkpt lat="41.3077210" lon="-8.7388160">
        <ele>7.9</ele>
        <time>2021-05-16T09:57:57Z</time>
      </trkpt>
      <trkpt lat="41.3077350" lon="-8.7388240">
        <ele>7.9</ele>
        <time>2021-05-16T09:57:58Z</time>
      </trkpt>
      <trkpt lat="41.3077480" lon="-8.7388300">
        <ele>7.9</ele>
        <time>2021-05-16T09:57:59Z</time>
      </trkpt>
      <trkpt lat="41.3077620" lon="-8.7388350">
        <ele>7.9</ele>
        <time>2021-05-16T09:58:00Z</time>
      </trkpt>
      <trkpt lat="41.3077760" lon="-8.7388340">
        <ele>7.9</ele>
        <time>2021-05-16T09:58:01Z</time>
      </trkpt>
      <trkpt lat="41.3077910" lon="-8.7388470">
        <ele>7.9</ele>
        <time>2021-05-16T09:58:02Z</time>
      </trkpt>
      <trkpt lat="41.3078130" lon="-8.7388510">
        <ele>8.0</ele>
        <time>2021-05-16T09:58:03Z</time>
      </trkpt>
      <trkpt lat="41.3078230" lon="-8.7388540">
        <ele>8.0</ele>
        <time>2021-05-16T09:58:04Z</time>
      </trkpt>
      <trkpt lat="41.3078320" lon="-8.7388580">
        <ele>8.0</ele>
        <time>2021-05-16T09:58:05Z</time>
      </trkpt>
      <trkpt lat="41.3078530" lon="-8.7388680">
        <ele>8.0</ele>
        <time>2021-05-16T09:58:06Z</time>
      </trkpt>
      <trkpt lat="41.3078630" lon="-8.7388690">
        <ele>8.0</ele>
        <time>2021-05-16T09:58:07Z</time>
      </trkpt>
      <trkpt lat="41.3078720" lon="-8.7388710">
        <ele>8.0</ele>
        <time>2021-05-16T09:58:08Z</time>
      </trkpt>
      <trkpt lat="41.3078840" lon="-8.7388710">
        <ele>8.0</ele>
        <time>2021-05-16T09:58:09Z</time>
      </trkpt>
      <trkpt lat="41.3078970" lon="-8.7388840">
        <ele>8.0</ele>
        <time>2021-05-16T09:58:10Z</time>
      </trkpt>
      <trkpt lat="41.3079120" lon="-8.7388830">
        <ele>8.0</ele>
        <time>2021-05-16T09:58:11Z</time>
      </trkpt>
      <trkpt lat="41.3079260" lon="-8.7388900">
        <ele>8.0</ele>
        <time>2021-05-16T09:58:12Z</time>
      </trkpt>
      <trkpt lat="41.3079390" lon="-8.7388950">
        <ele>8.0</ele>
        <time>2021-05-16T09:58:13Z</time>
      </trkpt>
      <trkpt lat="41.3079530" lon="-8.7388990">
        <ele>8.0</ele>
        <time>2021-05-16T09:58:14Z</time>
      </trkpt>
      <trkpt lat="41.3079630" lon="-8.7389070">
        <ele>8.0</ele>
        <time>2021-05-16T09:58:15Z</time>
      </trkpt>
      <trkpt lat="41.3079760" lon="-8.7389190">
        <ele>8.1</ele>
        <time>2021-05-16T09:58:16Z</time>
      </trkpt>
      <trkpt lat="41.3079900" lon="-8.7389260">
        <ele>8.1</ele>
        <time>2021-05-16T09:58:17Z</time>
      </trkpt>
      <trkpt lat="41.3080030" lon="-8.7389290">
        <ele>8.1</ele>
        <time>2021-05-16T09:58:18Z</time>
      </trkpt>
      <trkpt lat="41.3080230" lon="-8.7389360">
        <ele>8.1</ele>
        <time>2021-05-16T09:58:19Z</time>
      </trkpt>
      <trkpt lat="41.3080310" lon="-8.7389410">
        <ele>8.1</ele>
        <time>2021-05-16T09:58:20Z</time>
      </trkpt>
      <trkpt lat="41.3080390" lon="-8.7389460">
        <ele>8.1</ele>
        <time>2021-05-16T09:58:21Z</time>
      </trkpt>
      <trkpt lat="41.3080600" lon="-8.7389560">
        <ele>8.1</ele>
        <time>2021-05-16T09:58:22Z</time>
      </trkpt>
      <trkpt lat="41.3080680" lon="-8.7389600">
        <ele>8.1</ele>
        <time>2021-05-16T09:58:23Z</time>
      </trkpt>
      <trkpt lat="41.3080770" lon="-8.7389640">
        <ele>8.1</ele>
        <time>2021-05-16T09:58:24Z</time>
      </trkpt>
      <trkpt lat="41.3080910" lon="-8.7389670">
        <ele>8.1</ele>
        <time>2021-05-16T09:58:25Z</time>
      </trkpt>
      <trkpt lat="41.3081060" lon="-8.7389630">
        <ele>8.1</ele>
        <time>2021-05-16T09:58:26Z</time>
      </trkpt>
      <trkpt lat="41.3081190" lon="-8.7389710">
        <ele>8.1</ele>
        <time>2021-05-16T09:58:27Z</time>
      </trkpt>
      <trkpt lat="41.3081330" lon="-8.7389760">
        <ele>8.1</ele>
        <time>2021-05-16T09:58:28Z</time>
      </trkpt>
      <trkpt lat="41.3081480" lon="-8.7389850">
        <ele>8.1</ele>
        <time>2021-05-16T09:58:29Z</time>
      </trkpt>
      <trkpt lat="41.3081600" lon="-8.7389890">
        <ele>8.1</ele>
        <time>2021-05-16T09:58:30Z</time>
      </trkpt>
      <trkpt lat="41.3081840" lon="-8.7389980">
        <ele>8.0</ele>
        <time>2021-05-16T09:58:31Z</time>
      </trkpt>
      <trkpt lat="41.3081930" lon="-8.7390000">
        <ele>8.0</ele>
        <time>2021-05-16T09:58:32Z</time>
      </trkpt>
      <trkpt lat="41.3082020" lon="-8.7390020">
        <ele>8.0</ele>
        <time>2021-05-16T09:58:33Z</time>
      </trkpt>
      <trkpt lat="41.3082130" lon="-8.7390090">
        <ele>8.0</ele>
        <time>2021-05-16T09:58:34Z</time>
      </trkpt>
      <trkpt lat="41.3082290" lon="-8.7390100">
        <ele>8.0</ele>
        <time>2021-05-16T09:58:35Z</time>
      </trkpt>
      <trkpt lat="41.3082440" lon="-8.7390110">
        <ele>8.0</ele>
        <time>2021-05-16T09:58:36Z</time>
      </trkpt>
      <trkpt lat="41.3082590" lon="-8.7390180">
        <ele>8.0</ele>
        <time>2021-05-16T09:58:37Z</time>
      </trkpt>
      <trkpt lat="41.3082720" lon="-8.7390220">
        <ele>8.0</ele>
        <time>2021-05-16T09:58:38Z</time>
      </trkpt>
      <trkpt lat="41.3082880" lon="-8.7390260">
        <ele>8.0</ele>
        <time>2021-05-16T09:58:39Z</time>
      </trkpt>
      <trkpt lat="41.3083020" lon="-8.7390330">
        <ele>8.0</ele>
        <time>2021-05-16T09:58:40Z</time>
      </trkpt>
      <trkpt lat="41.3083160" lon="-8.7390310">
        <ele>7.9</ele>
        <time>2021-05-16T09:58:41Z</time>
      </trkpt>
      <trkpt lat="41.3083370" lon="-8.7390330">
        <ele>7.9</ele>
        <time>2021-05-16T09:58:42Z</time>
      </trkpt>
      <trkpt lat="41.3083460" lon="-8.7390340">
        <ele>7.9</ele>
        <time>2021-05-16T09:58:43Z</time>
      </trkpt>
      <trkpt lat="41.3083550" lon="-8.7390340">
        <ele>7.9</ele>
        <time>2021-05-16T09:58:44Z</time>
      </trkpt>
      <trkpt lat="41.3083690" lon="-8.7390360">
        <ele>7.9</ele>
        <time>2021-05-16T09:58:45Z</time>
      </trkpt>
      <trkpt lat="41.3083820" lon="-8.7390410">
        <ele>7.9</ele>
        <time>2021-05-16T09:58:46Z</time>
      </trkpt>
      <trkpt lat="41.3083970" lon="-8.7390410">
        <ele>7.9</ele>
        <time>2021-05-16T09:58:47Z</time>
      </trkpt>
      <trkpt lat="41.3084100" lon="-8.7390380">
        <ele>7.9</ele>
        <time>2021-05-16T09:58:48Z</time>
      </trkpt>
      <trkpt lat="41.3084250" lon="-8.7390470">
        <ele>7.9</ele>
        <time>2021-05-16T09:58:49Z</time>
      </trkpt>
      <trkpt lat="41.3084390" lon="-8.7390470">
        <ele>7.9</ele>
        <time>2021-05-16T09:58:50Z</time>
      </trkpt>
      <trkpt lat="41.3084530" lon="-8.7390490">
        <ele>7.8</ele>
        <time>2021-05-16T09:58:51Z</time>
      </trkpt>
      <trkpt lat="41.3084680" lon="-8.7390480">
        <ele>7.8</ele>
        <time>2021-05-16T09:58:52Z</time>
      </trkpt>
      <trkpt lat="41.3084910" lon="-8.7390520">
        <ele>7.8</ele>
        <time>2021-05-16T09:58:53Z</time>
      </trkpt>
      <trkpt lat="41.3085010" lon="-8.7390510">
        <ele>7.8</ele>
        <time>2021-05-16T09:58:54Z</time>
      </trkpt>
      <trkpt lat="41.3085110" lon="-8.7390510">
        <ele>7.8</ele>
        <time>2021-05-16T09:58:55Z</time>
      </trkpt>
      <trkpt lat="41.3085270" lon="-8.7390490">
        <ele>7.8</ele>
        <time>2021-05-16T09:58:56Z</time>
      </trkpt>
      <trkpt lat="41.3085420" lon="-8.7390540">
        <ele>7.8</ele>
        <time>2021-05-16T09:58:57Z</time>
      </trkpt>
      <trkpt lat="41.3085560" lon="-8.7390570">
        <ele>7.8</ele>
        <time>2021-05-16T09:58:58Z</time>
      </trkpt>
      <trkpt lat="41.3085710" lon="-8.7390580">
        <ele>7.8</ele>
        <time>2021-05-16T09:58:59Z</time>
      </trkpt>
      <trkpt lat="41.3085850" lon="-8.7390620">
        <ele>7.8</ele>
        <time>2021-05-16T09:59:00Z</time>
      </trkpt>
      <trkpt lat="41.3085990" lon="-8.7390660">
        <ele>7.8</ele>
        <time>2021-05-16T09:59:01Z</time>
      </trkpt>
      <trkpt lat="41.3086110" lon="-8.7390790">
        <ele>7.9</ele>
        <time>2021-05-16T09:59:02Z</time>
      </trkpt>
      <trkpt lat="41.3086230" lon="-8.7390880">
        <ele>7.9</ele>
        <time>2021-05-16T09:59:03Z</time>
      </trkpt>
      <trkpt lat="41.3086340" lon="-8.7391030">
        <ele>7.9</ele>
        <time>2021-05-16T09:59:04Z</time>
      </trkpt>
      <trkpt lat="41.3086460" lon="-8.7391140">
        <ele>7.9</ele>
        <time>2021-05-16T09:59:05Z</time>
      </trkpt>
      <trkpt lat="41.3086570" lon="-8.7391300">
        <ele>7.9</ele>
        <time>2021-05-16T09:59:06Z</time>
      </trkpt>
      <trkpt lat="41.3086680" lon="-8.7391420">
        <ele>8.0</ele>
        <time>2021-05-16T09:59:07Z</time>
      </trkpt>
      <trkpt lat="41.3086780" lon="-8.7391630">
        <ele>8.0</ele>
        <time>2021-05-16T09:59:08Z</time>
      </trkpt>
      <trkpt lat="41.3086830" lon="-8.7391800">
        <ele>8.0</ele>
        <time>2021-05-16T09:59:09Z</time>
      </trkpt>
      <trkpt lat="41.3086890" lon="-8.7391970">
        <ele>8.0</ele>
        <time>2021-05-16T09:59:10Z</time>
      </trkpt>
      <trkpt lat="41.3086990" lon="-8.7392090">
        <ele>8.0</ele>
        <time>2021-05-16T09:59:11Z</time>
      </trkpt>
      <trkpt lat="41.3087090" lon="-8.7392230">
        <ele>8.0</ele>
        <time>2021-05-16T09:59:12Z</time>
      </trkpt>
      <trkpt lat="41.3087160" lon="-8.7392380">
        <ele>8.0</ele>
        <time>2021-05-16T09:59:13Z</time>
      </trkpt>
      <trkpt lat="41.3087200" lon="-8.7392540">
        <ele>8.0</ele>
        <time>2021-05-16T09:59:14Z</time>
      </trkpt>
      <trkpt lat="41.3087310" lon="-8.7392690">
        <ele>8.1</ele>
        <time>2021-05-16T09:59:15Z</time>
      </trkpt>
      <trkpt lat="41.3087400" lon="-8.7392800">
        <ele>8.1</ele>
        <time>2021-05-16T09:59:16Z</time>
      </trkpt>
      <trkpt lat="41.3087460" lon="-8.7393000">
        <ele>8.1</ele>
        <time>2021-05-16T09:59:17Z</time>
      </trkpt>
      <trkpt lat="41.3087600" lon="-8.7393220">
        <ele>8.1</ele>
        <time>2021-05-16T09:59:18Z</time>
      </trkpt>
      <trkpt lat="41.3087660" lon="-8.7393340">
        <ele>8.1</ele>
        <time>2021-05-16T09:59:19Z</time>
      </trkpt>
      <trkpt lat="41.3087720" lon="-8.7393450">
        <ele>8.1</ele>
        <time>2021-05-16T09:59:20Z</time>
      </trkpt>
      <trkpt lat="41.3087860" lon="-8.7393670">
        <ele>8.1</ele>
        <time>2021-05-16T09:59:21Z</time>
      </trkpt>
      <trkpt lat="41.3087910" lon="-8.7393790">
        <ele>8.1</ele>
        <time>2021-05-16T09:59:22Z</time>
      </trkpt>
      <trkpt lat="41.3087960" lon="-8.7393920">
        <ele>8.1</ele>
        <time>2021-05-16T09:59:23Z</time>
      </trkpt>
      <trkpt lat="41.3088150" lon="-8.7394070">
        <ele>8.2</ele>
        <time>2021-05-16T09:59:24Z</time>
      </trkpt>
      <trkpt lat="41.3088230" lon="-8.7394120">
        <ele>8.2</ele>
        <time>2021-05-16T09:59:25Z</time>
      </trkpt>
      <trkpt lat="41.3088320" lon="-8.7394180">
        <ele>8.2</ele>
        <time>2021-05-16T09:59:26Z</time>
      </trkpt>
      <trkpt lat="41.3088470" lon="-8.7394270">
        <ele>8.2</ele>
        <time>2021-05-16T09:59:27Z</time>
      </trkpt>
      <trkpt lat="41.3088640" lon="-8.7394280">
        <ele>8.2</ele>
        <time>2021-05-16T09:59:28Z</time>
      </trkpt>
      <trkpt lat="41.3088770" lon="-8.7394340">
        <ele>8.2</ele>
        <time>2021-05-16T09:59:29Z</time>
      </trkpt>
      <trkpt lat="41.3088920" lon="-8.7394380">
        <ele>8.2</ele>
        <time>2021-05-16T09:59:30Z</time>
      </trkpt>
      <trkpt lat="41.3089060" lon="-8.7394410">
        <ele>8.2</ele>
        <time>2021-05-16T09:59:31Z</time>
      </trkpt>
      <trkpt lat="41.3089220" lon="-8.7394430">
        <ele>8.2</ele>
        <time>2021-05-16T09:59:32Z</time>
      </trkpt>
      <trkpt lat="41.3089350" lon="-8.7394480">
        <ele>8.3</ele>
        <time>2021-05-16T09:59:33Z</time>
      </trkpt>
      <trkpt lat="41.3089500" lon="-8.7394510">
        <ele>8.3</ele>
        <time>2021-05-16T09:59:34Z</time>
      </trkpt>
      <trkpt lat="41.3089630" lon="-8.7394590">
        <ele>8.3</ele>
        <time>2021-05-16T09:59:35Z</time>
      </trkpt>
      <trkpt lat="41.3089770" lon="-8.7394630">
        <ele>8.3</ele>
        <time>2021-05-16T09:59:36Z</time>
      </trkpt>
      <trkpt lat="41.3089910" lon="-8.7394740">
        <ele>8.3</ele>
        <time>2021-05-16T09:59:37Z</time>
      </trkpt>
      <trkpt lat="41.3090050" lon="-8.7394740">
        <ele>8.3</ele>
        <time>2021-05-16T09:59:38Z</time>
      </trkpt>
      <trkpt lat="41.3090170" lon="-8.7394760">
        <ele>8.3</ele>
        <time>2021-05-16T09:59:39Z</time>
      </trkpt>
      <trkpt lat="41.3090340" lon="-8.7394860">
        <ele>8.3</ele>
        <time>2021-05-16T09:59:40Z</time>
      </trkpt>
      <trkpt lat="41.3090450" lon="-8.7394940">
        <ele>8.4</ele>
        <time>2021-05-16T09:59:41Z</time>
      </trkpt>
      <trkpt lat="41.3090580" lon="-8.7395050">
        <ele>8.4</ele>
        <time>2021-05-16T09:59:42Z</time>
      </trkpt>
      <trkpt lat="41.3090790" lon="-8.7395190">
        <ele>8.4</ele>
        <time>2021-05-16T09:59:43Z</time>
      </trkpt>
      <trkpt lat="41.3090870" lon="-8.7395260">
        <ele>8.4</ele>
        <time>2021-05-16T09:59:44Z</time>
      </trkpt>
      <trkpt lat="41.3090960" lon="-8.7395320">
        <ele>8.4</ele>
        <time>2021-05-16T09:59:45Z</time>
      </trkpt>
      <trkpt lat="41.3091170" lon="-8.7395350">
        <ele>8.4</ele>
        <time>2021-05-16T09:59:46Z</time>
      </trkpt>
      <trkpt lat="41.3091250" lon="-8.7395400">
        <ele>8.4</ele>
        <time>2021-05-16T09:59:47Z</time>
      </trkpt>
      <trkpt lat="41.3091330" lon="-8.7395450">
        <ele>8.4</ele>
        <time>2021-05-16T09:59:48Z</time>
      </trkpt>
      <trkpt lat="41.3091530" lon="-8.7395520">
        <ele>8.5</ele>
        <time>2021-05-16T09:59:49Z</time>
      </trkpt>
      <trkpt lat="41.3091620" lon="-8.7395550">
        <ele>8.5</ele>
        <time>2021-05-16T09:59:50Z</time>
      </trkpt>
      <trkpt lat="41.3091700" lon="-8.7395590">
        <ele>8.5</ele>
        <time>2021-05-16T09:59:51Z</time>
      </trkpt>
      <trkpt lat="41.3091910" lon="-8.7395690">
        <ele>8.5</ele>
        <time>2021-05-16T09:59:52Z</time>
      </trkpt>
      <trkpt lat="41.3091980" lon="-8.7395730">
        <ele>8.5</ele>
        <time>2021-05-16T09:59:53Z</time>
      </trkpt>
      <trkpt lat="41.3092060" lon="-8.7395780">
        <ele>8.5</ele>
        <time>2021-05-16T09:59:54Z</time>
      </trkpt>
      <trkpt lat="41.3092180" lon="-8.7395830">
        <ele>8.5</ele>
        <time>2021-05-16T09:59:55Z</time>
      </trkpt>
      <trkpt lat="41.3092320" lon="-8.7395890">
        <ele>8.5</ele>
        <time>2021-05-16T09:59:56Z</time>
      </trkpt>
      <trkpt lat="41.3092440" lon="-8.7395980">
        <ele>8.5</ele>
        <time>2021-05-16T09:59:57Z</time>
      </trkpt>
      <trkpt lat="41.3092600" lon="-8.7396040">
        <ele>8.5</ele>
        <time>2021-05-16T09:59:58Z</time>
      </trkpt>
      <trkpt lat="41.3092720" lon="-8.7396130">
        <ele>8.5</ele>
        <time>2021-05-16T09:59:59Z</time>
      </trkpt>
      <trkpt lat="41.3092850" lon="-8.7396220">
        <ele>8.6</ele>
        <time>2021-05-16T10:00:00Z</time>
      </trkpt>
      <trkpt lat="41.3093070" lon="-8.7396320">
        <ele>8.6</ele>
        <time>2021-05-16T10:00:01Z</time>
      </trkpt>
      <trkpt lat="41.3093150" lon="-8.7396360">
        <ele>8.6</ele>
        <time>2021-05-16T10:00:02Z</time>
      </trkpt>
      <trkpt lat="41.3093240" lon="-8.7396400">
        <ele>8.6</ele>
        <time>2021-05-16T10:00:03Z</time>
      </trkpt>
      <trkpt lat="41.3093370" lon="-8.7396500">
        <ele>8.6</ele>
        <time>2021-05-16T10:00:04Z</time>
      </trkpt>
      <trkpt lat="41.3093520" lon="-8.7396580">
        <ele>8.6</ele>
        <time>2021-05-16T10:00:05Z</time>
      </trkpt>
      <trkpt lat="41.3093730" lon="-8.7396680">
        <ele>8.6</ele>
        <time>2021-05-16T10:00:06Z</time>
      </trkpt>
      <trkpt lat="41.3093820" lon="-8.7396730">
        <ele>8.6</ele>
        <time>2021-05-16T10:00:07Z</time>
      </trkpt>
      <trkpt lat="41.3093900" lon="-8.7396770">
        <ele>8.6</ele>
        <time>2021-05-16T10:00:08Z</time>
      </trkpt>
      <trkpt lat="41.3094040" lon="-8.7396760">
        <ele>8.6</ele>
        <time>2021-05-16T10:00:09Z</time>
      </trkpt>
      <trkpt lat="41.3094170" lon="-8.7396850">
        <ele>8.6</ele>
        <time>2021-05-16T10:00:10Z</time>
      </trkpt>
      <trkpt lat="41.3094300" lon="-8.7396870">
        <ele>8.6</ele>
        <time>2021-05-16T10:00:11Z</time>
      </trkpt>
      <trkpt lat="41.3094300" lon="-8.7396870">
        <ele>8.6</ele>
        <time>2021-05-16T10:00:12Z</time>
      </trkpt>
      <trkpt lat="41.3094310" lon="-8.7396880">
        <ele>8.6</ele>
        <time>2021-05-16T10:00:13Z</time>
      </trkpt>
      <trkpt lat="41.3094320" lon="-8.7396880">
        <ele>8.6</ele>
        <time>2021-05-16T10:00:14Z</time>
      </trkpt>
      <trkpt lat="41.3094330" lon="-8.7396880">
        <ele>8.6</ele>
        <time>2021-05-16T10:00:15Z</time>
      </trkpt>
      <trkpt lat="41.3094330" lon="-8.7396880">
        <ele>8.6</ele>
        <time>2021-05-16T10:00:16Z</time>
      </trkpt>
      <trkpt lat="41.3094340" lon="-8.7396880">
        <ele>8.6</ele>
        <time>2021-05-16T10:00:17Z</time>
      </trkpt>
      <trkpt lat="41.3094350" lon="-8.7396890">
        <ele>8.6</ele>
        <time>2021-05-16T10:00:18Z</time>
      </trkpt>
      <trkpt lat="41.3094360" lon="-8.7396890">
        <ele>8.6</ele>
        <time>2021-05-16T10:00:19Z</time>
      </trkpt>
      <trkpt lat="41.3094360" lon="-8.7396890">
        <ele>8.6</ele>
        <time>2021-05-16T10:00:20Z</time>
      </trkpt>
      <trkpt lat="41.3094370" lon="-8.7396890">
        <ele>8.6</ele>
        <time>2021-05-16T10:00:21Z</time>
      </trkpt>
      <trkpt lat="41.3094380" lon="-8.7396890">
        <ele>8.6</ele>
        <time>2021-05-16T10:00:22Z</time>
      </trkpt>
      <trkpt lat="41.3094390" lon="-8.7396900">
        <ele>8.6</ele>
        <time>2021-05-16T10:00:23Z</time>
      </trkpt>
      <trkpt lat="41.3094390" lon="-8.7396900">
        <ele>8.6</ele>
        <time>2021-05-16T10:00:24Z</time>
      </trkpt>
      <trkpt lat="41.3094400" lon="-8.7396900">
        <ele>8.6</ele>
        <time>2021-05-16T10:00:25Z</time>
      </trkpt>
      <trkpt lat="41.3094410" lon="-8.7396900">
        <ele>8.6</ele>
        <time>2021-05-16T10:00:26Z</time>
      </trkpt>
      <trkpt lat="41.3094420" lon="-8.7396900">
        <ele>8.6</ele>
        <time>2021-05-16T10:00:27Z</time>
      </trkpt>
      <trkpt lat="41.3094420" lon="-8.7396910">
        <ele>8.6</ele>
        <time>2021-05-16T10:00:28Z</time>
      </trkpt>
      <trkpt lat="41.3094430" lon="-8.7396910">
        <ele>8.6</ele>
        <time>2021-05-16T10:00:29Z</time>
      </trkpt>
      <trkpt lat="41.3094440" lon="-8.7396910">
        <ele>8.6</ele>
        <time>2021-05-16T10:00:30Z</time>
      </trkpt>
      <trkpt lat="41.3094440" lon="-8.7396910">
        <ele>8.6</ele>
        <time>2021-05-16T10:00:31Z</time>
      </trkpt>
      <trkpt lat="41.3094450" lon="-8.7396920">
        <ele>8.6</ele>
        <time>2021-05-16T10:00:32Z</time>
      </trkpt>
      <trkpt lat="41.3094460" lon="-8.7396920">
        <ele>8.6</ele>
        <time>2021-05-16T10:00:33Z</time>
      </trkpt>
      <trkpt lat="41.3094470" lon="-8.7396920">
        <ele>8.6</ele>
        <time>2021-05-16T10:00:34Z</time>
      </trkpt>
      <trkpt lat="41.3094470" lon="-8.7396920">
        <ele>8.6</ele>
        <time>2021-05-16T10:00:35Z</time>
      </trkpt>
      <trkpt lat="41.3094480" lon="-8.7396920">
        <ele>8.6</ele>
        <time>2021-05-16T10:00:36Z</time>
      </trkpt>
      <trkpt lat="41.3094490" lon="-8.7396930">
        <ele>8.6</ele>
        <time>2021-05-16T10:00:37Z</time>
      </trkpt>
      <trkpt lat="41.3094500" lon="-8.7396930">
        <ele>8.6</ele>
        <time>2021-05-16T10:00:38Z</time>
      </trkpt>
      <trkpt lat="41.3094500" lon="-8.7396930">
        <ele>8.6</ele>
        <time>2021-05-16T10:00:39Z</time>
      </trkpt>
      <trkpt lat="41.3094510" lon="-8.7396930">
        <ele>8.6</ele>
        <time>2021-05-16T10:00:40Z</time>
      </trkpt>
      <trkpt lat="41.3094520" lon="-8.7396930">
        <ele>8.6</ele>
        <time>2021-05-16T10:00:41Z</time>
      </trkpt>
      <trkpt lat="41.3094530" lon="-8.7396940">
        <ele>8.6</ele>
        <time>2021-05-16T10:00:42Z</time>
      </trkpt>
      <trkpt lat="41.3094530" lon="-8.7396940">
        <ele>8.6</ele>
        <time>2021-05-16T10:00:43Z</time>
      </trkpt>
      <trkpt lat="41.3094540" lon="-8.7396940">
        <ele>8.6</ele>
        <time>2021-05-16T10:00:44Z</time>
      </trkpt>
      <trkpt lat="41.3094670" lon="-8.7396990">
        <ele>8.6</ele>
        <time>2021-05-16T10:00:45Z</time>
      </trkpt>
      <trkpt lat="41.3094830" lon="-8.7396930">
        <ele>8.6</ele>
        <time>2021-05-16T10:00:46Z</time>
      </trkpt>
      <trkpt lat="41.3095030" lon="-8.7396850">
        <ele>8.6</ele>
        <time>2021-05-16T10:00:47Z</time>
      </trkpt>
      <trkpt lat="41.3095130" lon="-8.7396820">
        <ele>8.6</ele>
        <time>2021-05-16T10:00:48Z</time>
      </trkpt>
      <trkpt lat="41.3095220" lon="-8.7396800">
        <ele>8.6</ele>
        <time>2021-05-16T10:00:49Z</time>
      </trkpt>
      <trkpt lat="41.3095340" lon="-8.7396810">
        <ele>8.6</ele>
        <time>2021-05-16T10:00:50Z</time>
      </trkpt>
      <trkpt lat="41.3095450" lon="-8.7396860">
        <ele>8.6</ele>
        <time>2021-05-16T10:00:51Z</time>
      </trkpt>
      <trkpt lat="41.3095550" lon="-8.7396900">
        <ele>8.6</ele>
        <time>2021-05-16T10:00:52Z</time>
      </trkpt>
      <trkpt lat="41.3095680" lon="-8.7396930">
        <ele>8.6</ele>
        <time>2021-05-16T10:00:53Z</time>
      </trkpt>
      <trkpt lat="41.3095800" lon="-8.7396990">
        <ele>8.6</ele>
        <time>2021-05-16T10:00:54Z</time>
      </trkpt>
      <trkpt lat="41.3095830" lon="-8.7396990">
        <ele>8.6</ele>
        <time>2021-05-16T10:00:55Z</time>
      </trkpt>
      <trkpt lat="41.3095800" lon="-8.7396950">
        <ele>8.6</ele>
        <time>2021-05-16T10:00:56Z</time>
      </trkpt>
      <trkpt lat="41.3095810" lon="-8.7396950">
        <ele>8.6</ele>
        <time>2021-05-16T10:00:57Z</time>
      </trkpt>
      <trkpt lat="41.3095840" lon="-8.7396950">
        <ele>8.6</ele>
        <time>2021-05-16T10:00:58Z</time>
      </trkpt>
      <trkpt lat="41.3095850" lon="-8.7396950">
        <ele>8.6</ele>
        <time>2021-05-16T10:00:59Z</time>
      </trkpt>
      <trkpt lat="41.3095860" lon="-8.7396960">
        <ele>8.6</ele>
        <time>2021-05-16T10:01:00Z</time>
      </trkpt>
      <trkpt lat="41.3095860" lon="-8.7396960">
        <ele>8.6</ele>
        <time>2021-05-16T10:01:01Z</time>
      </trkpt>
      <trkpt lat="41.3095850" lon="-8.7396970">
        <ele>8.6</ele>
        <time>2021-05-16T10:01:02Z</time>
      </trkpt>
      <trkpt lat="41.3095840" lon="-8.7396980">
        <ele>8.6</ele>
        <time>2021-05-16T10:01:03Z</time>
      </trkpt>
      <trkpt lat="41.3095860" lon="-8.7397000">
        <ele>8.6</ele>
        <time>2021-05-16T10:01:04Z</time>
      </trkpt>
      <trkpt lat="41.3095850" lon="-8.7397000">
        <ele>8.6</ele>
        <time>2021-05-16T10:01:05Z</time>
      </trkpt>
      <trkpt lat="41.3095790" lon="-8.7397000">
        <ele>8.6</ele>
        <time>2021-05-16T10:01:06Z</time>
      </trkpt>
      <trkpt lat="41.3095810" lon="-8.7397000">
        <ele>8.6</ele>
        <time>2021-05-16T10:01:07Z</time>
      </trkpt>
      <trkpt lat="41.3095830" lon="-8.7396990">
        <ele>8.6</ele>
        <time>2021-05-16T10:01:08Z</time>
      </trkpt>
      <trkpt lat="41.3095830" lon="-8.7396980">
        <ele>8.6</ele>
        <time>2021-05-16T10:01:09Z</time>
      </trkpt>
      <trkpt lat="41.3095830" lon="-8.7396980">
        <ele>8.6</ele>
        <time>2021-05-16T10:01:10Z</time>
      </trkpt>
      <trkpt lat="41.3095830" lon="-8.7396960">
        <ele>8.6</ele>
        <time>2021-05-16T10:01:11Z</time>
      </trkpt>
      <trkpt lat="41.3095840" lon="-8.7396950">
        <ele>8.6</ele>
        <time>2021-05-16T10:01:12Z</time>
      </trkpt>
      <trkpt lat="41.3095850" lon="-8.7396940">
        <ele>8.6</ele>
        <time>2021-05-16T10:01:13Z</time>
      </trkpt>
      <trkpt lat="41.3095860" lon="-8.7396930">
        <ele>8.6</ele>
        <time>2021-05-16T10:01:14Z</time>
      </trkpt>
      <trkpt lat="41.3095890" lon="-8.7396930">
        <ele>8.6</ele>
        <time>2021-05-16T10:01:15Z</time>
      </trkpt>
      <trkpt lat="41.3096000" lon="-8.7397010">
        <ele>8.6</ele>
        <time>2021-05-16T10:01:16Z</time>
      </trkpt>
      <trkpt lat="41.3096150" lon="-8.7397060">
        <ele>8.6</ele>
        <time>2021-05-16T10:01:17Z</time>
      </trkpt>
      <trkpt lat="41.3096260" lon="-8.7397070">
        <ele>8.6</ele>
        <time>2021-05-16T10:01:18Z</time>
      </trkpt>
      <trkpt lat="41.3096360" lon="-8.7397140">
        <ele>8.6</ele>
        <time>2021-05-16T10:01:19Z</time>
      </trkpt>
      <trkpt lat="41.3096430" lon="-8.7397200">
        <ele>8.6</ele>
        <time>2021-05-16T10:01:20Z</time>
      </trkpt>
      <trkpt lat="41.3096510" lon="-8.7397180">
        <ele>8.6</ele>
        <time>2021-05-16T10:01:21Z</time>
      </trkpt>
      <trkpt lat="41.3096710" lon="-8.7397240">
        <ele>8.6</ele>
        <time>2021-05-16T10:01:22Z</time>
      </trkpt>
      <trkpt lat="41.3096880" lon="-8.7397230">
        <ele>8.6</ele>
        <time>2021-05-16T10:01:23Z</time>
      </trkpt>
      <trkpt lat="41.3097000" lon="-8.7397300">
        <ele>8.7</ele>
        <time>2021-05-16T10:01:24Z</time>
      </trkpt>
      <trkpt lat="41.3097220" lon="-8.7397400">
        <ele>8.7</ele>
        <time>2021-05-16T10:01:25Z</time>
      </trkpt>
      <trkpt lat="41.3097330" lon="-8.7397470">
        <ele>8.7</ele>
        <time>2021-05-16T10:01:26Z</time>
      </trkpt>
      <trkpt lat="41.3097440" lon="-8.7397550">
        <ele>8.7</ele>
        <time>2021-05-16T10:01:27Z</time>
      </trkpt>
      <trkpt lat="41.3097480" lon="-8.7397560">
        <ele>8.7</ele>
        <time>2021-05-16T10:01:28Z</time>
      </trkpt>
      <trkpt lat="41.3097640" lon="-8.7397600">
        <ele>8.7</ele>
        <time>2021-05-16T10:01:29Z</time>
      </trkpt>
      <trkpt lat="41.3097700" lon="-8.7397700">
        <ele>8.7</ele>
        <time>2021-05-16T10:01:30Z</time>
      </trkpt>
      <trkpt lat="41.3097870" lon="-8.7397780">
        <ele>8.7</ele>
        <time>2021-05-16T10:01:31Z</time>
      </trkpt>
      <trkpt lat="41.3098010" lon="-8.7397950">
        <ele>8.8</ele>
        <time>2021-05-16T10:01:32Z</time>
      </trkpt>
      <trkpt lat="41.3098160" lon="-8.7398010">
        <ele>8.8</ele>
        <time>2021-05-16T10:01:33Z</time>
      </trkpt>
      <trkpt lat="41.3098290" lon="-8.7398130">
        <ele>8.8</ele>
        <time>2021-05-16T10:01:34Z</time>
      </trkpt>
      <trkpt lat="41.3098420" lon="-8.7398180">
        <ele>8.8</ele>
        <time>2021-05-16T10:01:35Z</time>
      </trkpt>
      <trkpt lat="41.3098570" lon="-8.7398270">
        <ele>8.8</ele>
        <time>2021-05-16T10:01:36Z</time>
      </trkpt>
      <trkpt lat="41.3098720" lon="-8.7398320">
        <ele>8.9</ele>
        <time>2021-05-16T10:01:37Z</time>
      </trkpt>
      <trkpt lat="41.3098890" lon="-8.7398380">
        <ele>8.9</ele>
        <time>2021-05-16T10:01:38Z</time>
      </trkpt>
      <trkpt lat="41.3099030" lon="-8.7398460">
        <ele>8.9</ele>
        <time>2021-05-16T10:01:39Z</time>
      </trkpt>
      <trkpt lat="41.3099180" lon="-8.7398550">
        <ele>8.9</ele>
        <time>2021-05-16T10:01:40Z</time>
      </trkpt>
      <trkpt lat="41.3099350" lon="-8.7398590">
        <ele>8.9</ele>
        <time>2021-05-16T10:01:41Z</time>
      </trkpt>
      <trkpt lat="41.3099500" lon="-8.7398630">
        <ele>8.9</ele>
        <time>2021-05-16T10:01:42Z</time>
      </trkpt>
      <trkpt lat="41.3099650" lon="-8.7398710">
        <ele>9.0</ele>
        <time>2021-05-16T10:01:43Z</time>
      </trkpt>
      <trkpt lat="41.3099790" lon="-8.7398790">
        <ele>9.0</ele>
        <time>2021-05-16T10:01:44Z</time>
      </trkpt>
      <trkpt lat="41.3099960" lon="-8.7398770">
        <ele>9.0</ele>
        <time>2021-05-16T10:01:45Z</time>
      </trkpt>
      <trkpt lat="41.3100090" lon="-8.7398870">
        <ele>9.0</ele>
        <time>2021-05-16T10:01:46Z</time>
      </trkpt>
      <trkpt lat="41.3100240" lon="-8.7398920">
        <ele>9.0</ele>
        <time>2021-05-16T10:01:47Z</time>
      </trkpt>
      <trkpt lat="41.3100380" lon="-8.7399030">
        <ele>9.0</ele>
        <time>2021-05-16T10:01:48Z</time>
      </trkpt>
      <trkpt lat="41.3100490" lon="-8.7399180">
        <ele>9.0</ele>
        <time>2021-05-16T10:01:49Z</time>
      </trkpt>
      <trkpt lat="41.3100640" lon="-8.7399230">
        <ele>9.1</ele>
        <time>2021-05-16T10:01:50Z</time>
      </trkpt>
      <trkpt lat="41.3100760" lon="-8.7399310">
        <ele>9.1</ele>
        <time>2021-05-16T10:01:51Z</time>
      </trkpt>
      <trkpt lat="41.3100900" lon="-8.7399380">
        <ele>9.1</ele>
        <time>2021-05-16T10:01:52Z</time>
      </trkpt>
      <trkpt lat="41.3101020" lon="-8.7399450">
        <ele>9.1</ele>
        <time>2021-05-16T10:01:53Z</time>
      </trkpt>
      <trkpt lat="41.3101160" lon="-8.7399490">
        <ele>9.1</ele>
        <time>2021-05-16T10:01:54Z</time>
      </trkpt>
      <trkpt lat="41.3101300" lon="-8.7399590">
        <ele>9.1</ele>
        <time>2021-05-16T10:01:55Z</time>
      </trkpt>
      <trkpt lat="41.3101430" lon="-8.7399690">
        <ele>9.1</ele>
        <time>2021-05-16T10:01:56Z</time>
      </trkpt>
      <trkpt lat="41.3101640" lon="-8.7399790">
        <ele>9.1</ele>
        <time>2021-05-16T10:01:57Z</time>
      </trkpt>
      <trkpt lat="41.3101730" lon="-8.7399850">
        <ele>9.1</ele>
        <time>2021-05-16T10:01:58Z</time>
      </trkpt>
      <trkpt lat="41.3101810" lon="-8.7399910">
        <ele>9.1</ele>
        <time>2021-05-16T10:01:59Z</time>
      </trkpt>
      <trkpt lat="41.3101940" lon="-8.7399970">
        <ele>9.1</ele>
        <time>2021-05-16T10:02:00Z</time>
      </trkpt>
      <trkpt lat="41.3102080" lon="-8.7399970">
        <ele>9.1</ele>
        <time>2021-05-16T10:02:01Z</time>
      </trkpt>
      <trkpt lat="41.3102260" lon="-8.7400090">
        <ele>9.1</ele>
        <time>2021-05-16T10:02:02Z</time>
      </trkpt>
      <trkpt lat="41.3102350" lon="-8.7400120">
        <ele>9.1</ele>
        <time>2021-05-16T10:02:03Z</time>
      </trkpt>
      <trkpt lat="41.3102430" lon="-8.7400140">
        <ele>9.1</ele>
        <time>2021-05-16T10:02:04Z</time>
      </trkpt>
      <trkpt lat="41.3102580" lon="-8.7400130">
        <ele>9.1</ele>
        <time>2021-05-16T10:02:05Z</time>
      </trkpt>
      <trkpt lat="41.3102710" lon="-8.7400100">
        <ele>9.2</ele>
        <time>2021-05-16T10:02:06Z</time>
      </trkpt>
      <trkpt lat="41.3102920" lon="-8.7400160">
        <ele>9.2</ele>
        <time>2021-05-16T10:02:07Z</time>
      </trkpt>
      <trkpt lat="41.3103020" lon="-8.7400170">
        <ele>9.2</ele>
        <time>2021-05-16T10:02:08Z</time>
      </trkpt>
      <trkpt lat="41.3103110" lon="-8.7400180">
        <ele>9.2</ele>
        <time>2021-05-16T10:02:09Z</time>
      </trkpt>
      <trkpt lat="41.3103340" lon="-8.7400220">
        <ele>9.2</ele>
        <time>2021-05-16T10:02:10Z</time>
      </trkpt>
      <trkpt lat="41.3103420" lon="-8.7400250">
        <ele>9.2</ele>
        <time>2021-05-16T10:02:11Z</time>
      </trkpt>
      <trkpt lat="41.3103510" lon="-8.7400270">
        <ele>9.2</ele>
        <time>2021-05-16T10:02:12Z</time>
      </trkpt>
      <trkpt lat="41.3103640" lon="-8.7400250">
        <ele>9.2</ele>
        <time>2021-05-16T10:02:13Z</time>
      </trkpt>
      <trkpt lat="41.3103740" lon="-8.7400320">
        <ele>9.2</ele>
        <time>2021-05-16T10:02:14Z</time>
      </trkpt>
      <trkpt lat="41.3103880" lon="-8.7400320">
        <ele>9.3</ele>
        <time>2021-05-16T10:02:15Z</time>
      </trkpt>
      <trkpt lat="41.3104020" lon="-8.7400360">
        <ele>9.3</ele>
        <time>2021-05-16T10:02:16Z</time>
      </trkpt>
      <trkpt lat="41.3104150" lon="-8.7400400">
        <ele>9.3</ele>
        <time>2021-05-16T10:02:17Z</time>
      </trkpt>
      <trkpt lat="41.3104300" lon="-8.7400400">
        <ele>9.3</ele>
        <time>2021-05-16T10:02:18Z</time>
      </trkpt>
      <trkpt lat="41.3104430" lon="-8.7400400">
        <ele>9.3</ele>
        <time>2021-05-16T10:02:19Z</time>
      </trkpt>
      <trkpt lat="41.3104570" lon="-8.7400420">
        <ele>9.3</ele>
        <time>2021-05-16T10:02:20Z</time>
      </trkpt>
      <trkpt lat="41.3104700" lon="-8.7400510">
        <ele>9.3</ele>
        <time>2021-05-16T10:02:21Z</time>
      </trkpt>
      <trkpt lat="41.3104910" lon="-8.7400570">
        <ele>9.4</ele>
        <time>2021-05-16T10:02:22Z</time>
      </trkpt>
      <trkpt lat="41.3105000" lon="-8.7400610">
        <ele>9.4</ele>
        <time>2021-05-16T10:02:23Z</time>
      </trkpt>
      <trkpt lat="41.3105080" lon="-8.7400640">
        <ele>9.4</ele>
        <time>2021-05-16T10:02:24Z</time>
      </trkpt>
      <trkpt lat="41.3105200" lon="-8.7400700">
        <ele>9.4</ele>
        <time>2021-05-16T10:02:25Z</time>
      </trkpt>
      <trkpt lat="41.3105340" lon="-8.7400700">
        <ele>9.4</ele>
        <time>2021-05-16T10:02:26Z</time>
      </trkpt>
      <trkpt lat="41.3105510" lon="-8.7400630">
        <ele>9.4</ele>
        <time>2021-05-16T10:02:27Z</time>
      </trkpt>
      <trkpt lat="41.3105630" lon="-8.7400760">
        <ele>9.4</ele>
        <time>2021-05-16T10:02:28Z</time>
      </trkpt>
      <trkpt lat="41.3105820" lon="-8.7400870">
        <ele>9.5</ele>
        <time>2021-05-16T10:02:29Z</time>
      </trkpt>
      <trkpt lat="41.3105900" lon="-8.7400890">
        <ele>9.5</ele>
        <time>2021-05-16T10:02:30Z</time>
      </trkpt>
      <trkpt lat="41.3105980" lon="-8.7400910">
        <ele>9.5</ele>
        <time>2021-05-16T10:02:31Z</time>
      </trkpt>
      <trkpt lat="41.3106130" lon="-8.7400950">
        <ele>9.5</ele>
        <time>2021-05-16T10:02:32Z</time>
      </trkpt>
      <trkpt lat="41.3106260" lon="-8.7400910">
        <ele>9.5</ele>
        <time>2021-05-16T10:02:33Z</time>
      </trkpt>
      <trkpt lat="41.3106400" lon="-8.7400900">
        <ele>9.5</ele>
        <time>2021-05-16T10:02:34Z</time>
      </trkpt>
      <trkpt lat="41.3106540" lon="-8.7400880">
        <ele>9.5</ele>
        <time>2021-05-16T10:02:35Z</time>
      </trkpt>
      <trkpt lat="41.3106680" lon="-8.7400850">
        <ele>9.5</ele>
        <time>2021-05-16T10:02:36Z</time>
      </trkpt>
      <trkpt lat="41.3106820" lon="-8.7400880">
        <ele>9.5</ele>
        <time>2021-05-16T10:02:37Z</time>
      </trkpt>
      <trkpt lat="41.3107020" lon="-8.7400890">
        <ele>9.5</ele>
        <time>2021-05-16T10:02:38Z</time>
      </trkpt>
      <trkpt lat="41.3107100" lon="-8.7400910">
        <ele>9.6</ele>
        <time>2021-05-16T10:02:39Z</time>
      </trkpt>
      <trkpt lat="41.3107180" lon="-8.7400920">
        <ele>9.6</ele>
        <time>2021-05-16T10:02:40Z</time>
      </trkpt>
      <trkpt lat="41.3107380" lon="-8.7400940">
        <ele>9.6</ele>
        <time>2021-05-16T10:02:41Z</time>
      </trkpt>
      <trkpt lat="41.3107470" lon="-8.7400960">
        <ele>9.6</ele>
        <time>2021-05-16T10:02:42Z</time>
      </trkpt>
      <trkpt lat="41.3107550" lon="-8.7400980">
        <ele>9.6</ele>
        <time>2021-05-16T10:02:43Z</time>
      </trkpt>
      <trkpt lat="41.3107780" lon="-8.7401010">
        <ele>9.6</ele>
        <time>2021-05-16T10:02:44Z</time>
      </trkpt>
      <trkpt lat="41.3107860" lon="-8.7401000">
        <ele>9.6</ele>
        <time>2021-05-16T10:02:45Z</time>
      </trkpt>
      <trkpt lat="41.3107950" lon="-8.7401000">
        <ele>9.6</ele>
        <time>2021-05-16T10:02:46Z</time>
      </trkpt>
      <trkpt lat="41.3108060" lon="-8.7400980">
        <ele>9.6</ele>
        <time>2021-05-16T10:02:47Z</time>
      </trkpt>
      <trkpt lat="41.3108180" lon="-8.7400960">
        <ele>9.6</ele>
        <time>2021-05-16T10:02:48Z</time>
      </trkpt>
      <trkpt lat="41.3108300" lon="-8.7400980">
        <ele>9.6</ele>
        <time>2021-05-16T10:02:49Z</time>
      </trkpt>
      <trkpt lat="41.3108410" lon="-8.7401030">
        <ele>9.6</ele>
        <time>2021-05-16T10:02:50Z</time>
      </trkpt>
      <trkpt lat="41.3108490" lon="-8.7401100">
        <ele>9.6</ele>
        <time>2021-05-16T10:02:51Z</time>
      </trkpt>
      <trkpt lat="41.3108560" lon="-8.7401130">
        <ele>9.6</ele>
        <time>2021-05-16T10:02:52Z</time>
      </trkpt>
      <trkpt lat="41.3108570" lon="-8.7401050">
        <ele>9.6</ele>
        <time>2021-05-16T10:02:53Z</time>
      </trkpt>
      <trkpt lat="41.3108660" lon="-8.7401020">
        <ele>9.6</ele>
        <time>2021-05-16T10:02:54Z</time>
      </trkpt>
      <trkpt lat="41.3108750" lon="-8.7401060">
        <ele>9.6</ele>
        <time>2021-05-16T10:02:55Z</time>
      </trkpt>
      <trkpt lat="41.3108830" lon="-8.7401120">
        <ele>9.6</ele>
        <time>2021-05-16T10:02:56Z</time>
      </trkpt>
      <trkpt lat="41.3108770" lon="-8.7401170">
        <ele>9.6</ele>
        <time>2021-05-16T10:02:57Z</time>
      </trkpt>
      <trkpt lat="41.3108710" lon="-8.7401140">
        <ele>9.6</ele>
        <time>2021-05-16T10:02:59Z</time>
      </trkpt>
      <trkpt lat="41.3108700" lon="-8.7401060">
        <ele>9.6</ele>
        <time>2021-05-16T10:03:01Z</time>
      </trkpt>
      <trkpt lat="41.3108710" lon="-8.7401000">
        <ele>9.6</ele>
        <time>2021-05-16T10:03:02Z</time>
      </trkpt>
      <trkpt lat="41.3108710" lon="-8.7400930">
        <ele>9.6</ele>
        <time>2021-05-16T10:03:03Z</time>
      </trkpt>
      <trkpt lat="41.3108780" lon="-8.7400830">
        <ele>9.6</ele>
        <time>2021-05-16T10:03:04Z</time>
      </trkpt>
      <trkpt lat="41.3108960" lon="-8.7400600">
        <ele>9.7</ele>
        <time>2021-05-16T10:03:05Z</time>
      </trkpt>
      <trkpt lat="41.3109020" lon="-8.7400520">
        <ele>9.7</ele>
        <time>2021-05-16T10:03:06Z</time>
      </trkpt>
      <trkpt lat="41.3109090" lon="-8.7400450">
        <ele>9.7</ele>
        <time>2021-05-16T10:03:07Z</time>
      </trkpt>
      <trkpt lat="41.3109240" lon="-8.7400240">
        <ele>9.7</ele>
        <time>2021-05-16T10:03:08Z</time>
      </trkpt>
      <trkpt lat="41.3109290" lon="-8.7400160">
        <ele>9.7</ele>
        <time>2021-05-16T10:03:09Z</time>
      </trkpt>
      <trkpt lat="41.3109340" lon="-8.7400080">
        <ele>9.7</ele>
        <time>2021-05-16T10:03:10Z</time>
      </trkpt>
      <trkpt lat="41.3109440" lon="-8.7399970">
        <ele>9.7</ele>
        <time>2021-05-16T10:03:11Z</time>
      </trkpt>
      <trkpt lat="41.3109540" lon="-8.7399830">
        <ele>9.7</ele>
        <time>2021-05-16T10:03:12Z</time>
      </trkpt>
      <trkpt lat="41.3109700" lon="-8.7399650">
        <ele>9.7</ele>
        <time>2021-05-16T10:03:13Z</time>
      </trkpt>
      <trkpt lat="41.3109760" lon="-8.7399580">
        <ele>9.7</ele>
        <time>2021-05-16T10:03:14Z</time>
      </trkpt>
      <trkpt lat="41.3109820" lon="-8.7399500">
        <ele>9.7</ele>
        <time>2021-05-16T10:03:15Z</time>
      </trkpt>
      <trkpt lat="41.3109990" lon="-8.7399260">
        <ele>9.7</ele>
        <time>2021-05-16T10:03:16Z</time>
      </trkpt>
      <trkpt lat="41.3110040" lon="-8.7399180">
        <ele>9.7</ele>
        <time>2021-05-16T10:03:17Z</time>
      </trkpt>
      <trkpt lat="41.3110100" lon="-8.7399100">
        <ele>9.7</ele>
        <time>2021-05-16T10:03:18Z</time>
      </trkpt>
      <trkpt lat="41.3110270" lon="-8.7398960">
        <ele>9.8</ele>
        <time>2021-05-16T10:03:19Z</time>
      </trkpt>
      <trkpt lat="41.3110380" lon="-8.7398840">
        <ele>9.8</ele>
        <time>2021-05-16T10:03:20Z</time>
      </trkpt>
      <trkpt lat="41.3110490" lon="-8.7398700">
        <ele>9.8</ele>
        <time>2021-05-16T10:03:22Z</time>
      </trkpt>
      <trkpt lat="41.3110620" lon="-8.7398610">
        <ele>9.8</ele>
        <time>2021-05-16T10:03:23Z</time>
      </trkpt>
      <trkpt lat="41.3110730" lon="-8.7398460">
        <ele>9.8</ele>
        <time>2021-05-16T10:03:24Z</time>
      </trkpt>
      <trkpt lat="41.3110860" lon="-8.7398360">
        <ele>9.8</ele>
        <time>2021-05-16T10:03:25Z</time>
      </trkpt>
      <trkpt lat="41.3111070" lon="-8.7398280">
        <ele>9.9</ele>
        <time>2021-05-16T10:03:26Z</time>
      </trkpt>
      <trkpt lat="41.3111160" lon="-8.7398280">
        <ele>9.9</ele>
        <time>2021-05-16T10:03:27Z</time>
      </trkpt>
      <trkpt lat="41.3111240" lon="-8.7398270">
        <ele>9.9</ele>
        <time>2021-05-16T10:03:28Z</time>
      </trkpt>
      <trkpt lat="41.3111390" lon="-8.7398250">
        <ele>9.9</ele>
        <time>2021-05-16T10:03:29Z</time>
      </trkpt>
      <trkpt lat="41.3111520" lon="-8.7398090">
        <ele>9.9</ele>
        <time>2021-05-16T10:03:30Z</time>
      </trkpt>
      <trkpt lat="41.3111720" lon="-8.7397940">
        <ele>10.0</ele>
        <time>2021-05-16T10:03:31Z</time>
      </trkpt>
      <trkpt lat="41.3111790" lon="-8.7397860">
        <ele>10.0</ele>
        <time>2021-05-16T10:03:32Z</time>
      </trkpt>
      <trkpt lat="41.3111870" lon="-8.7397790">
        <ele>10.0</ele>
        <time>2021-05-16T10:03:33Z</time>
      </trkpt>
      <trkpt lat="41.3112090" lon="-8.7397710">
        <ele>10.0</ele>
        <time>2021-05-16T10:03:34Z</time>
      </trkpt>
      <trkpt lat="41.3112150" lon="-8.7397650">
        <ele>10.0</ele>
        <time>2021-05-16T10:03:35Z</time>
      </trkpt>
      <trkpt lat="41.3112220" lon="-8.7397600">
        <ele>10.0</ele>
        <time>2021-05-16T10:03:36Z</time>
      </trkpt>
      <trkpt lat="41.3112260" lon="-8.7397530">
        <ele>10.1</ele>
        <time>2021-05-16T10:03:37Z</time>
      </trkpt>
      <trkpt lat="41.3112200" lon="-8.7397580">
        <ele>10.1</ele>
        <time>2021-05-16T10:03:38Z</time>
      </trkpt>
      <trkpt lat="41.3112100" lon="-8.7397690">
        <ele>10.1</ele>
        <time>2021-05-16T10:03:39Z</time>
      </trkpt>
      <trkpt lat="41.3112000" lon="-8.7397730">
        <ele>10.1</ele>
        <time>2021-05-16T10:03:40Z</time>
      </trkpt>
      <trkpt lat="41.3111940" lon="-8.7397730">
        <ele>10.1</ele>
        <time>2021-05-16T10:03:41Z</time>
      </trkpt>
      <trkpt lat="41.3111880" lon="-8.7397760">
        <ele>10.1</ele>
        <time>2021-05-16T10:03:42Z</time>
      </trkpt>
      <trkpt lat="41.3111860" lon="-8.7397780">
        <ele>10.1</ele>
        <time>2021-05-16T10:03:43Z</time>
      </trkpt>
      <trkpt lat="41.3111830" lon="-8.7397750">
        <ele>10.1</ele>
        <time>2021-05-16T10:03:44Z</time>
      </trkpt>
      <trkpt lat="41.3111780" lon="-8.7397690">
        <ele>10.1</ele>
        <time>2021-05-16T10:03:45Z</time>
      </trkpt>
      <trkpt lat="41.3111750" lon="-8.7397660">
        <ele>10.1</ele>
        <time>2021-05-16T10:03:46Z</time>
      </trkpt>
      <trkpt lat="41.3111720" lon="-8.7397630">
        <ele>10.2</ele>
        <time>2021-05-16T10:03:47Z</time>
      </trkpt>
      <trkpt lat="41.3111680" lon="-8.7397620">
        <ele>10.2</ele>
        <time>2021-05-16T10:03:48Z</time>
      </trkpt>
      <trkpt lat="41.3111660" lon="-8.7397610">
        <ele>10.2</ele>
        <time>2021-05-16T10:03:49Z</time>
      </trkpt>
      <trkpt lat="41.3111640" lon="-8.7397590">
        <ele>10.2</ele>
        <time>2021-05-16T10:03:50Z</time>
      </trkpt>
      <trkpt lat="41.3111610" lon="-8.7397550">
        <ele>10.2</ele>
        <time>2021-05-16T10:03:51Z</time>
      </trkpt>
      <trkpt lat="41.3111610" lon="-8.7397550">
        <ele>10.2</ele>
        <time>2021-05-16T10:03:52Z</time>
      </trkpt>
      <trkpt lat="41.3111580" lon="-8.7397540">
        <ele>10.2</ele>
        <time>2021-05-16T10:03:53Z</time>
      </trkpt>
      <trkpt lat="41.3111560" lon="-8.7397520">
        <ele>10.2</ele>
        <time>2021-05-16T10:03:54Z</time>
      </trkpt>
      <trkpt lat="41.3111590" lon="-8.7397530">
        <ele>10.2</ele>
        <time>2021-05-16T10:03:55Z</time>
      </trkpt>
      <trkpt lat="41.3111660" lon="-8.7397520">
        <ele>10.2</ele>
        <time>2021-05-16T10:03:56Z</time>
      </trkpt>
      <trkpt lat="41.3111810" lon="-8.7397480">
        <ele>10.2</ele>
        <time>2021-05-16T10:03:57Z</time>
      </trkpt>
      <trkpt lat="41.3111950" lon="-8.7397430">
        <ele>10.2</ele>
        <time>2021-05-16T10:03:58Z</time>
      </trkpt>
      <trkpt lat="41.3112020" lon="-8.7397350">
        <ele>10.2</ele>
        <time>2021-05-16T10:03:59Z</time>
      </trkpt>
      <trkpt lat="41.3112150" lon="-8.7397270">
        <ele>10.2</ele>
        <time>2021-05-16T10:04:00Z</time>
      </trkpt>
      <trkpt lat="41.3112260" lon="-8.7397190">
        <ele>10.2</ele>
        <time>2021-05-16T10:04:01Z</time>
      </trkpt>
      <trkpt lat="41.3112470" lon="-8.7397120">
        <ele>10.3</ele>
        <time>2021-05-16T10:04:02Z</time>
      </trkpt>
      <trkpt lat="41.3112560" lon="-8.7397090">
        <ele>10.3</ele>
        <time>2021-05-16T10:04:03Z</time>
      </trkpt>
      <trkpt lat="41.3112650" lon="-8.7397060">
        <ele>10.3</ele>
        <time>2021-05-16T10:04:04Z</time>
      </trkpt>
      <trkpt lat="41.3112840" lon="-8.7397000">
        <ele>10.3</ele>
        <time>2021-05-16T10:04:05Z</time>
      </trkpt>
      <trkpt lat="41.3112950" lon="-8.7396980">
        <ele>10.3</ele>
        <time>2021-05-16T10:04:06Z</time>
      </trkpt>
      <trkpt lat="41.3113050" lon="-8.7396960">
        <ele>10.3</ele>
        <time>2021-05-16T10:04:07Z</time>
      </trkpt>
      <trkpt lat="41.3113170" lon="-8.7396940">
        <ele>10.3</ele>
        <time>2021-05-16T10:04:08Z</time>
      </trkpt>
      <trkpt lat="41.3113290" lon="-8.7396920">
        <ele>10.3</ele>
        <time>2021-05-16T10:04:09Z</time>
      </trkpt>
      <trkpt lat="41.3113350" lon="-8.7396870">
        <ele>10.3</ele>
        <time>2021-05-16T10:04:10Z</time>
      </trkpt>
      <trkpt lat="41.3113500" lon="-8.7396840">
        <ele>10.3</ele>
        <time>2021-05-16T10:04:11Z</time>
      </trkpt>
      <trkpt lat="41.3113660" lon="-8.7396760">
        <ele>10.3</ele>
        <time>2021-05-16T10:04:12Z</time>
      </trkpt>
      <trkpt lat="41.3113800" lon="-8.7396720">
        <ele>10.3</ele>
        <time>2021-05-16T10:04:13Z</time>
      </trkpt>
      <trkpt lat="41.3113970" lon="-8.7396670">
        <ele>10.3</ele>
        <time>2021-05-16T10:04:14Z</time>
      </trkpt>
      <trkpt lat="41.3114030" lon="-8.7396500">
        <ele>10.3</ele>
        <time>2021-05-16T10:04:15Z</time>
      </trkpt>
      <trkpt lat="41.3114100" lon="-8.7396380">
        <ele>10.3</ele>
        <time>2021-05-16T10:04:16Z</time>
      </trkpt>
      <trkpt lat="41.3114220" lon="-8.7396320">
        <ele>10.3</ele>
        <time>2021-05-16T10:04:17Z</time>
      </trkpt>
      <trkpt lat="41.3114330" lon="-8.7396270">
        <ele>10.3</ele>
        <time>2021-05-16T10:04:18Z</time>
      </trkpt>
      <trkpt lat="41.3114360" lon="-8.7396190">
        <ele>10.3</ele>
        <time>2021-05-16T10:04:19Z</time>
      </trkpt>
      <trkpt lat="41.3114330" lon="-8.7396170">
        <ele>10.3</ele>
        <time>2021-05-16T10:04:20Z</time>
      </trkpt>
      <trkpt lat="41.3114320" lon="-8.7396170">
        <ele>10.3</ele>
        <time>2021-05-16T10:04:21Z</time>
      </trkpt>
      <trkpt lat="41.3114330" lon="-8.7396170">
        <ele>10.3</ele>
        <time>2021-05-16T10:04:22Z</time>
      </trkpt>
      <trkpt lat="41.3114310" lon="-8.7396170">
        <ele>10.3</ele>
        <time>2021-05-16T10:04:23Z</time>
      </trkpt>
      <trkpt lat="41.3114340" lon="-8.7396180">
        <ele>10.3</ele>
        <time>2021-05-16T10:04:24Z</time>
      </trkpt>
      <trkpt lat="41.3114350" lon="-8.7396190">
        <ele>10.3</ele>
        <time>2021-05-16T10:04:25Z</time>
      </trkpt>
      <trkpt lat="41.3114430" lon="-8.7396330">
        <ele>10.3</ele>
        <time>2021-05-16T10:04:26Z</time>
      </trkpt>
      <trkpt lat="41.3114460" lon="-8.7396360">
        <ele>10.3</ele>
        <time>2021-05-16T10:04:27Z</time>
      </trkpt>
      <trkpt lat="41.3114460" lon="-8.7396390">
        <ele>10.3</ele>
        <time>2021-05-16T10:04:28Z</time>
      </trkpt>
      <trkpt lat="41.3114490" lon="-8.7396410">
        <ele>10.3</ele>
        <time>2021-05-16T10:04:29Z</time>
      </trkpt>
      <trkpt lat="41.3114570" lon="-8.7396280">
        <ele>10.3</ele>
        <time>2021-05-16T10:04:30Z</time>
      </trkpt>
      <trkpt lat="41.3114670" lon="-8.7396120">
        <ele>10.3</ele>
        <time>2021-05-16T10:04:31Z</time>
      </trkpt>
      <trkpt lat="41.3114780" lon="-8.7395950">
        <ele>10.3</ele>
        <time>2021-05-16T10:04:32Z</time>
      </trkpt>
      <trkpt lat="41.3114930" lon="-8.7395900">
        <ele>10.3</ele>
        <time>2021-05-16T10:04:33Z</time>
      </trkpt>
      <trkpt lat="41.3115210" lon="-8.7395970">
        <ele>10.3</ele>
        <time>2021-05-16T10:04:34Z</time>
      </trkpt>
      <trkpt lat="41.3115290" lon="-8.7396000">
        <ele>10.3</ele>
        <time>2021-05-16T10:04:35Z</time>
      </trkpt>
      <trkpt lat="41.3115500" lon="-8.7395960">
        <ele>10.3</ele>
        <time>2021-05-16T10:04:36Z</time>
      </trkpt>
      <trkpt lat="41.3115580" lon="-8.7396020">
        <ele>10.3</ele>
        <time>2021-05-16T10:04:37Z</time>
      </trkpt>
      <trkpt lat="41.3115760" lon="-8.7395990">
        <ele>10.3</ele>
        <time>2021-05-16T10:04:38Z</time>
      </trkpt>
      <trkpt lat="41.3115880" lon="-8.7395990">
        <ele>10.2</ele>
        <time>2021-05-16T10:04:39Z</time>
      </trkpt>
      <trkpt lat="41.3116080" lon="-8.7395950">
        <ele>10.2</ele>
        <time>2021-05-16T10:04:40Z</time>
      </trkpt>
      <trkpt lat="41.3116220" lon="-8.7396030">
        <ele>10.2</ele>
        <time>2021-05-16T10:04:41Z</time>
      </trkpt>
      <trkpt lat="41.3116410" lon="-8.7396050">
        <ele>10.2</ele>
        <time>2021-05-16T10:04:42Z</time>
      </trkpt>
      <trkpt lat="41.3116550" lon="-8.7396050">
        <ele>10.2</ele>
        <time>2021-05-16T10:04:43Z</time>
      </trkpt>
      <trkpt lat="41.3116690" lon="-8.7395980">
        <ele>10.2</ele>
        <time>2021-05-16T10:04:44Z</time>
      </trkpt>
      <trkpt lat="41.3116840" lon="-8.7395930">
        <ele>10.2</ele>
        <time>2021-05-16T10:04:45Z</time>
      </trkpt>
      <trkpt lat="41.3117000" lon="-8.7395870">
        <ele>10.2</ele>
        <time>2021-05-16T10:04:46Z</time>
      </trkpt>
      <trkpt lat="41.3117200" lon="-8.7395850">
        <ele>10.2</ele>
        <time>2021-05-16T10:04:47Z</time>
      </trkpt>
      <trkpt lat="41.3117320" lon="-8.7395900">
        <ele>10.2</ele>
        <time>2021-05-16T10:04:48Z</time>
      </trkpt>
      <trkpt lat="41.3117500" lon="-8.7395890">
        <ele>10.2</ele>
        <time>2021-05-16T10:04:49Z</time>
      </trkpt>
      <trkpt lat="41.3117660" lon="-8.7395950">
        <ele>10.2</ele>
        <time>2021-05-16T10:04:50Z</time>
      </trkpt>
      <trkpt lat="41.3117830" lon="-8.7395890">
        <ele>10.2</ele>
        <time>2021-05-16T10:04:51Z</time>
      </trkpt>
      <trkpt lat="41.3117970" lon="-8.7395830">
        <ele>10.2</ele>
        <time>2021-05-16T10:04:52Z</time>
      </trkpt>
      <trkpt lat="41.3118110" lon="-8.7395800">
        <ele>10.2</ele>
        <time>2021-05-16T10:04:53Z</time>
      </trkpt>
      <trkpt lat="41.3118260" lon="-8.7395800">
        <ele>10.2</ele>
        <time>2021-05-16T10:04:54Z</time>
      </trkpt>
      <trkpt lat="41.3118440" lon="-8.7395790">
        <ele>10.2</ele>
        <time>2021-05-16T10:04:55Z</time>
      </trkpt>
      <trkpt lat="41.3118580" lon="-8.7395830">
        <ele>10.2</ele>
        <time>2021-05-16T10:04:56Z</time>
      </trkpt>
      <trkpt lat="41.3118760" lon="-8.7395850">
        <ele>10.2</ele>
        <time>2021-05-16T10:04:57Z</time>
      </trkpt>
      <trkpt lat="41.3118890" lon="-8.7395840">
        <ele>10.2</ele>
        <time>2021-05-16T10:04:58Z</time>
      </trkpt>
      <trkpt lat="41.3119060" lon="-8.7395820">
        <ele>10.2</ele>
        <time>2021-05-16T10:04:59Z</time>
      </trkpt>
      <trkpt lat="41.3119220" lon="-8.7395800">
        <ele>10.2</ele>
        <time>2021-05-16T10:05:00Z</time>
      </trkpt>
      <trkpt lat="41.3119360" lon="-8.7395780">
        <ele>10.2</ele>
        <time>2021-05-16T10:05:01Z</time>
      </trkpt>
      <trkpt lat="41.3119520" lon="-8.7395850">
        <ele>10.2</ele>
        <time>2021-05-16T10:05:02Z</time>
      </trkpt>
      <trkpt lat="41.3119830" lon="-8.7395780">
        <ele>10.2</ele>
        <time>2021-05-16T10:05:03Z</time>
      </trkpt>
      <trkpt lat="41.3119960" lon="-8.7395720">
        <ele>10.2</ele>
        <time>2021-05-16T10:05:04Z</time>
      </trkpt>
      <trkpt lat="41.3120120" lon="-8.7395700">
        <ele>10.2</ele>
        <time>2021-05-16T10:05:05Z</time>
      </trkpt>
      <trkpt lat="41.3120230" lon="-8.7395710">
        <ele>10.2</ele>
        <time>2021-05-16T10:05:06Z</time>
      </trkpt>
      <trkpt lat="41.3120400" lon="-8.7395770">
        <ele>10.2</ele>
        <time>2021-05-16T10:05:07Z</time>
      </trkpt>
      <trkpt lat="41.3120540" lon="-8.7395730">
        <ele>10.2</ele>
        <time>2021-05-16T10:05:08Z</time>
      </trkpt>
      <trkpt lat="41.3120680" lon="-8.7395770">
        <ele>10.2</ele>
        <time>2021-05-16T10:05:09Z</time>
      </trkpt>
      <trkpt lat="41.3120820" lon="-8.7395790">
        <ele>10.2</ele>
        <time>2021-05-16T10:05:10Z</time>
      </trkpt>
      <trkpt lat="41.3120990" lon="-8.7395770">
        <ele>10.2</ele>
        <time>2021-05-16T10:05:11Z</time>
      </trkpt>
      <trkpt lat="41.3121110" lon="-8.7395750">
        <ele>10.2</ele>
        <time>2021-05-16T10:05:12Z</time>
      </trkpt>
      <trkpt lat="41.3121290" lon="-8.7395770">
        <ele>10.2</ele>
        <time>2021-05-16T10:05:13Z</time>
      </trkpt>
      <trkpt lat="41.3121430" lon="-8.7395830">
        <ele>10.2</ele>
        <time>2021-05-16T10:05:14Z</time>
      </trkpt>
      <trkpt lat="41.3121580" lon="-8.7395810">
        <ele>10.2</ele>
        <time>2021-05-16T10:05:15Z</time>
      </trkpt>
      <trkpt lat="41.3121750" lon="-8.7395860">
        <ele>10.2</ele>
        <time>2021-05-16T10:05:16Z</time>
      </trkpt>
      <trkpt lat="41.3121900" lon="-8.7395840">
        <ele>10.2</ele>
        <time>2021-05-16T10:05:17Z</time>
      </trkpt>
      <trkpt lat="41.3122060" lon="-8.7395810">
        <ele>10.2</ele>
        <time>2021-05-16T10:05:18Z</time>
      </trkpt>
      <trkpt lat="41.3122190" lon="-8.7395820">
        <ele>10.2</ele>
        <time>2021-05-16T10:05:19Z</time>
      </trkpt>
      <trkpt lat="41.3122360" lon="-8.7395780">
        <ele>10.2</ele>
        <time>2021-05-16T10:05:20Z</time>
      </trkpt>
      <trkpt lat="41.3122510" lon="-8.7395780">
        <ele>10.2</ele>
        <time>2021-05-16T10:05:21Z</time>
      </trkpt>
      <trkpt lat="41.3122650" lon="-8.7395690">
        <ele>10.1</ele>
        <time>2021-05-16T10:05:22Z</time>
      </trkpt>
      <trkpt lat="41.3122790" lon="-8.7395740">
        <ele>10.1</ele>
        <time>2021-05-16T10:05:23Z</time>
      </trkpt>
      <trkpt lat="41.3122920" lon="-8.7395680">
        <ele>10.1</ele>
        <time>2021-05-16T10:05:24Z</time>
      </trkpt>
      <trkpt lat="41.3123070" lon="-8.7395740">
        <ele>10.1</ele>
        <time>2021-05-16T10:05:25Z</time>
      </trkpt>
      <trkpt lat="41.3123200" lon="-8.7395730">
        <ele>10.1</ele>
        <time>2021-05-16T10:05:26Z</time>
      </trkpt>
      <trkpt lat="41.3123340" lon="-8.7395760">
        <ele>10.1</ele>
        <time>2021-05-16T10:05:27Z</time>
      </trkpt>
      <trkpt lat="41.3123480" lon="-8.7395680">
        <ele>10.1</ele>
        <time>2021-05-16T10:05:28Z</time>
      </trkpt>
      <trkpt lat="41.3123690" lon="-8.7395750">
        <ele>10.1</ele>
        <time>2021-05-16T10:05:29Z</time>
      </trkpt>
      <trkpt lat="41.3123770" lon="-8.7395740">
        <ele>10.1</ele>
        <time>2021-05-16T10:05:30Z</time>
      </trkpt>
      <trkpt lat="41.3123860" lon="-8.7395730">
        <ele>10.1</ele>
        <time>2021-05-16T10:05:31Z</time>
      </trkpt>
      <trkpt lat="41.3124090" lon="-8.7395850">
        <ele>10.1</ele>
        <time>2021-05-16T10:05:32Z</time>
      </trkpt>
      <trkpt lat="41.3124180" lon="-8.7395860">
        <ele>10.1</ele>
        <time>2021-05-16T10:05:33Z</time>
      </trkpt>
      <trkpt lat="41.3124270" lon="-8.7395860">
        <ele>10.1</ele>
        <time>2021-05-16T10:05:34Z</time>
      </trkpt>
      <trkpt lat="41.3124420" lon="-8.7395910">
        <ele>10.1</ele>
        <time>2021-05-16T10:05:35Z</time>
      </trkpt>
      <trkpt lat="41.3124570" lon="-8.7395900">
        <ele>10.1</ele>
        <time>2021-05-16T10:05:36Z</time>
      </trkpt>
      <trkpt lat="41.3124740" lon="-8.7395830">
        <ele>10.1</ele>
        <time>2021-05-16T10:05:37Z</time>
      </trkpt>
      <trkpt lat="41.3124860" lon="-8.7395810">
        <ele>10.0</ele>
        <time>2021-05-16T10:05:38Z</time>
      </trkpt>
      <trkpt lat="41.3125010" lon="-8.7395810">
        <ele>10.0</ele>
        <time>2021-05-16T10:05:39Z</time>
      </trkpt>
      <trkpt lat="41.3125130" lon="-8.7395830">
        <ele>10.0</ele>
        <time>2021-05-16T10:05:40Z</time>
      </trkpt>
      <trkpt lat="41.3125290" lon="-8.7395890">
        <ele>10.0</ele>
        <time>2021-05-16T10:05:41Z</time>
      </trkpt>
      <trkpt lat="41.3125430" lon="-8.7395860">
        <ele>10.0</ele>
        <time>2021-05-16T10:05:42Z</time>
      </trkpt>
      <trkpt lat="41.3125560" lon="-8.7395850">
        <ele>10.0</ele>
        <time>2021-05-16T10:05:43Z</time>
      </trkpt>
      <trkpt lat="41.3125700" lon="-8.7395850">
        <ele>10.0</ele>
        <time>2021-05-16T10:05:44Z</time>
      </trkpt>
      <trkpt lat="41.3125860" lon="-8.7395890">
        <ele>10.0</ele>
        <time>2021-05-16T10:05:45Z</time>
      </trkpt>
      <trkpt lat="41.3125990" lon="-8.7395860">
        <ele>10.0</ele>
        <time>2021-05-16T10:05:46Z</time>
      </trkpt>
      <trkpt lat="41.3126220" lon="-8.7395910">
        <ele>10.0</ele>
        <time>2021-05-16T10:05:47Z</time>
      </trkpt>
      <trkpt lat="41.3126320" lon="-8.7395920">
        <ele>10.0</ele>
        <time>2021-05-16T10:05:48Z</time>
      </trkpt>
      <trkpt lat="41.3126410" lon="-8.7395940">
        <ele>10.0</ele>
        <time>2021-05-16T10:05:49Z</time>
      </trkpt>
      <trkpt lat="41.3126550" lon="-8.7395960">
        <ele>10.0</ele>
        <time>2021-05-16T10:05:50Z</time>
      </trkpt>
      <trkpt lat="41.3126690" lon="-8.7395960">
        <ele>10.0</ele>
        <time>2021-05-16T10:05:51Z</time>
      </trkpt>
      <trkpt lat="41.3126850" lon="-8.7395950">
        <ele>10.0</ele>
        <time>2021-05-16T10:05:52Z</time>
      </trkpt>
      <trkpt lat="41.3126980" lon="-8.7395910">
        <ele>10.0</ele>
        <time>2021-05-16T10:05:53Z</time>
      </trkpt>
      <trkpt lat="41.3127120" lon="-8.7395970">
        <ele>10.0</ele>
        <time>2021-05-16T10:05:54Z</time>
      </trkpt>
      <trkpt lat="41.3127250" lon="-8.7396030">
        <ele>10.0</ele>
        <time>2021-05-16T10:05:55Z</time>
      </trkpt>
      <trkpt lat="41.3127460" lon="-8.7396010">
        <ele>9.9</ele>
        <time>2021-05-16T10:05:56Z</time>
      </trkpt>
      <trkpt lat="41.3127550" lon="-8.7396020">
        <ele>9.9</ele>
        <time>2021-05-16T10:05:57Z</time>
      </trkpt>
      <trkpt lat="41.3127630" lon="-8.7396020">
        <ele>9.9</ele>
        <time>2021-05-16T10:05:58Z</time>
      </trkpt>
      <trkpt lat="41.3127740" lon="-8.7395920">
        <ele>9.9</ele>
        <time>2021-05-16T10:05:59Z</time>
      </trkpt>
      <trkpt lat="41.3127880" lon="-8.7395790">
        <ele>9.9</ele>
        <time>2021-05-16T10:06:00Z</time>
      </trkpt>
      <trkpt lat="41.3128100" lon="-8.7395750">
        <ele>9.9</ele>
        <time>2021-05-16T10:06:01Z</time>
      </trkpt>
      <trkpt lat="41.3128190" lon="-8.7395760">
        <ele>9.9</ele>
        <time>2021-05-16T10:06:02Z</time>
      </trkpt>
      <trkpt lat="41.3128290" lon="-8.7395760">
        <ele>9.9</ele>
        <time>2021-05-16T10:06:03Z</time>
      </trkpt>
      <trkpt lat="41.3128430" lon="-8.7395750">
        <ele>9.9</ele>
        <time>2021-05-16T10:06:04Z</time>
      </trkpt>
      <trkpt lat="41.3128570" lon="-8.7395740">
        <ele>9.9</ele>
        <time>2021-05-16T10:06:06Z</time>
      </trkpt>
      <trkpt lat="41.3128700" lon="-8.7395730">
        <ele>9.9</ele>
        <time>2021-05-16T10:06:07Z</time>
      </trkpt>
      <trkpt lat="41.3128850" lon="-8.7395710">
        <ele>9.9</ele>
        <time>2021-05-16T10:06:08Z</time>
      </trkpt>
      <trkpt lat="41.3129080" lon="-8.7395690">
        <ele>9.9</ele>
        <time>2021-05-16T10:06:09Z</time>
      </trkpt>
      <trkpt lat="41.3129170" lon="-8.7395670">
        <ele>9.9</ele>
        <time>2021-05-16T10:06:10Z</time>
      </trkpt>
      <trkpt lat="41.3129270" lon="-8.7395650">
        <ele>9.9</ele>
        <time>2021-05-16T10:06:11Z</time>
      </trkpt>
      <trkpt lat="41.3129490" lon="-8.7395740">
        <ele>9.9</ele>
        <time>2021-05-16T10:06:12Z</time>
      </trkpt>
      <trkpt lat="41.3129570" lon="-8.7395780">
        <ele>9.9</ele>
        <time>2021-05-16T10:06:13Z</time>
      </trkpt>
      <trkpt lat="41.3129660" lon="-8.7395820">
        <ele>9.9</ele>
        <time>2021-05-16T10:06:14Z</time>
      </trkpt>
      <trkpt lat="41.3129800" lon="-8.7395810">
        <ele>9.9</ele>
        <time>2021-05-16T10:06:15Z</time>
      </trkpt>
      <trkpt lat="41.3129960" lon="-8.7395800">
        <ele>9.9</ele>
        <time>2021-05-16T10:06:16Z</time>
      </trkpt>
      <trkpt lat="41.3130120" lon="-8.7395790">
        <ele>9.9</ele>
        <time>2021-05-16T10:06:17Z</time>
      </trkpt>
      <trkpt lat="41.3130260" lon="-8.7395720">
        <ele>9.9</ele>
        <time>2021-05-16T10:06:18Z</time>
      </trkpt>
      <trkpt lat="41.3130480" lon="-8.7395740">
        <ele>9.9</ele>
        <time>2021-05-16T10:06:19Z</time>
      </trkpt>
      <trkpt lat="41.3130570" lon="-8.7395720">
        <ele>9.9</ele>
        <time>2021-05-16T10:06:20Z</time>
      </trkpt>
      <trkpt lat="41.3130670" lon="-8.7395700">
        <ele>9.8</ele>
        <time>2021-05-16T10:06:21Z</time>
      </trkpt>
      <trkpt lat="41.3130820" lon="-8.7395690">
        <ele>9.8</ele>
        <time>2021-05-16T10:06:22Z</time>
      </trkpt>
      <trkpt lat="41.3130980" lon="-8.7395710">
        <ele>9.8</ele>
        <time>2021-05-16T10:06:23Z</time>
      </trkpt>
      <trkpt lat="41.3131210" lon="-8.7395750">
        <ele>9.8</ele>
        <time>2021-05-16T10:06:24Z</time>
      </trkpt>
      <trkpt lat="41.3131300" lon="-8.7395750">
        <ele>9.8</ele>
        <time>2021-05-16T10:06:25Z</time>
      </trkpt>
      <trkpt lat="41.3131390" lon="-8.7395750">
        <ele>9.8</ele>
        <time>2021-05-16T10:06:26Z</time>
      </trkpt>
      <trkpt lat="41.3131530" lon="-8.7395680">
        <ele>9.8</ele>
        <time>2021-05-16T10:06:27Z</time>
      </trkpt>
      <trkpt lat="41.3131680" lon="-8.7395730">
        <ele>9.8</ele>
        <time>2021-05-16T10:06:28Z</time>
      </trkpt>
      <trkpt lat="41.3131810" lon="-8.7395710">
        <ele>9.8</ele>
        <time>2021-05-16T10:06:29Z</time>
      </trkpt>
      <trkpt lat="41.3131960" lon="-8.7395710">
        <ele>9.8</ele>
        <time>2021-05-16T10:06:30Z</time>
      </trkpt>
      <trkpt lat="41.3132090" lon="-8.7395720">
        <ele>9.8</ele>
        <time>2021-05-16T10:06:31Z</time>
      </trkpt>
      <trkpt lat="41.3132240" lon="-8.7395740">
        <ele>9.8</ele>
        <time>2021-05-16T10:06:32Z</time>
      </trkpt>
      <trkpt lat="41.3132360" lon="-8.7395730">
        <ele>9.8</ele>
        <time>2021-05-16T10:06:33Z</time>
      </trkpt>
      <trkpt lat="41.3132520" lon="-8.7395710">
        <ele>9.8</ele>
        <time>2021-05-16T10:06:34Z</time>
      </trkpt>
      <trkpt lat="41.3132650" lon="-8.7395700">
        <ele>9.8</ele>
        <time>2021-05-16T10:06:35Z</time>
      </trkpt>
      <trkpt lat="41.3132800" lon="-8.7395700">
        <ele>9.8</ele>
        <time>2021-05-16T10:06:36Z</time>
      </trkpt>
      <trkpt lat="41.3133020" lon="-8.7395710">
        <ele>9.8</ele>
        <time>2021-05-16T10:06:37Z</time>
      </trkpt>
      <trkpt lat="41.3133110" lon="-8.7395720">
        <ele>9.8</ele>
        <time>2021-05-16T10:06:38Z</time>
      </trkpt>
      <trkpt lat="41.3133210" lon="-8.7395730">
        <ele>9.7</ele>
        <time>2021-05-16T10:06:39Z</time>
      </trkpt>
      <trkpt lat="41.3133420" lon="-8.7395690">
        <ele>9.7</ele>
        <time>2021-05-16T10:06:40Z</time>
      </trkpt>
      <trkpt lat="41.3133500" lon="-8.7395680">
        <ele>9.7</ele>
        <time>2021-05-16T10:06:41Z</time>
      </trkpt>
      <trkpt lat="41.3133590" lon="-8.7395660">
        <ele>9.7</ele>
        <time>2021-05-16T10:06:42Z</time>
      </trkpt>
      <trkpt lat="41.3133740" lon="-8.7395660">
        <ele>9.7</ele>
        <time>2021-05-16T10:06:43Z</time>
      </trkpt>
      <trkpt lat="41.3133880" lon="-8.7395690">
        <ele>9.7</ele>
        <time>2021-05-16T10:06:44Z</time>
      </trkpt>
      <trkpt lat="41.3134090" lon="-8.7395670">
        <ele>9.7</ele>
        <time>2021-05-16T10:06:45Z</time>
      </trkpt>
      <trkpt lat="41.3134180" lon="-8.7395680">
        <ele>9.7</ele>
        <time>2021-05-16T10:06:46Z</time>
      </trkpt>
      <trkpt lat="41.3134270" lon="-8.7395690">
        <ele>9.7</ele>
        <time>2021-05-16T10:06:47Z</time>
      </trkpt>
      <trkpt lat="41.3134500" lon="-8.7395770">
        <ele>9.7</ele>
        <time>2021-05-16T10:06:48Z</time>
      </trkpt>
      <trkpt lat="41.3134590" lon="-8.7395780">
        <ele>9.7</ele>
        <time>2021-05-16T10:06:49Z</time>
      </trkpt>
      <trkpt lat="41.3134680" lon="-8.7395780">
        <ele>9.7</ele>
        <time>2021-05-16T10:06:50Z</time>
      </trkpt>
      <trkpt lat="41.3134810" lon="-8.7395750">
        <ele>9.7</ele>
        <time>2021-05-16T10:06:51Z</time>
      </trkpt>
      <trkpt lat="41.3134960" lon="-8.7395730">
        <ele>9.7</ele>
        <time>2021-05-16T10:06:52Z</time>
      </trkpt>
      <trkpt lat="41.3135090" lon="-8.7395740">
        <ele>9.7</ele>
        <time>2021-05-16T10:06:53Z</time>
      </trkpt>
      <trkpt lat="41.3135240" lon="-8.7395700">
        <ele>9.7</ele>
        <time>2021-05-16T10:06:54Z</time>
      </trkpt>
      <trkpt lat="41.3135380" lon="-8.7395690">
        <ele>9.7</ele>
        <time>2021-05-16T10:06:55Z</time>
      </trkpt>
      <trkpt lat="41.3135510" lon="-8.7395690">
        <ele>9.6</ele>
        <time>2021-05-16T10:06:56Z</time>
      </trkpt>
      <trkpt lat="41.3135740" lon="-8.7395710">
        <ele>9.6</ele>
        <time>2021-05-16T10:06:57Z</time>
      </trkpt>
      <trkpt lat="41.3135840" lon="-8.7395700">
        <ele>9.6</ele>
        <time>2021-05-16T10:06:58Z</time>
      </trkpt>
      <trkpt lat="41.3135930" lon="-8.7395690">
        <ele>9.6</ele>
        <time>2021-05-16T10:06:59Z</time>
      </trkpt>
      <trkpt lat="41.3136080" lon="-8.7395670">
        <ele>9.6</ele>
        <time>2021-05-16T10:07:00Z</time>
      </trkpt>
      <trkpt lat="41.3136210" lon="-8.7395670">
        <ele>9.6</ele>
        <time>2021-05-16T10:07:01Z</time>
      </trkpt>
      <trkpt lat="41.3136370" lon="-8.7395720">
        <ele>9.6</ele>
        <time>2021-05-16T10:07:02Z</time>
      </trkpt>
      <trkpt lat="41.3136500" lon="-8.7395670">
        <ele>9.6</ele>
        <time>2021-05-16T10:07:03Z</time>
      </trkpt>
      <trkpt lat="41.3136650" lon="-8.7395730">
        <ele>9.6</ele>
        <time>2021-05-16T10:07:04Z</time>
      </trkpt>
      <trkpt lat="41.3136780" lon="-8.7395670">
        <ele>9.6</ele>
        <time>2021-05-16T10:07:05Z</time>
      </trkpt>
      <trkpt lat="41.3136990" lon="-8.7395700">
        <ele>9.6</ele>
        <time>2021-05-16T10:07:06Z</time>
      </trkpt>
      <trkpt lat="41.3137080" lon="-8.7395700">
        <ele>9.6</ele>
        <time>2021-05-16T10:07:07Z</time>
      </trkpt>
      <trkpt lat="41.3137160" lon="-8.7395690">
        <ele>9.6</ele>
        <time>2021-05-16T10:07:08Z</time>
      </trkpt>
      <trkpt lat="41.3137440" lon="-8.7395670">
        <ele>9.6</ele>
        <time>2021-05-16T10:07:09Z</time>
      </trkpt>
      <trkpt lat="41.3137590" lon="-8.7395620">
        <ele>9.6</ele>
        <time>2021-05-16T10:07:10Z</time>
      </trkpt>
      <trkpt lat="41.3137740" lon="-8.7395640">
        <ele>9.6</ele>
        <time>2021-05-16T10:07:11Z</time>
      </trkpt>
      <trkpt lat="41.3137890" lon="-8.7395650">
        <ele>9.6</ele>
        <time>2021-05-16T10:07:12Z</time>
      </trkpt>
      <trkpt lat="41.3138030" lon="-8.7395650">
        <ele>9.6</ele>
        <time>2021-05-16T10:07:13Z</time>
      </trkpt>
      <trkpt lat="41.3138160" lon="-8.7395740">
        <ele>9.6</ele>
        <time>2021-05-16T10:07:14Z</time>
      </trkpt>
      <trkpt lat="41.3138300" lon="-8.7395750">
        <ele>9.6</ele>
        <time>2021-05-16T10:07:15Z</time>
      </trkpt>
      <trkpt lat="41.3138440" lon="-8.7395660">
        <ele>9.5</ele>
        <time>2021-05-16T10:07:16Z</time>
      </trkpt>
      <trkpt lat="41.3138590" lon="-8.7395650">
        <ele>9.5</ele>
        <time>2021-05-16T10:07:17Z</time>
      </trkpt>
      <trkpt lat="41.3138730" lon="-8.7395620">
        <ele>9.5</ele>
        <time>2021-05-16T10:07:18Z</time>
      </trkpt>
      <trkpt lat="41.3138890" lon="-8.7395570">
        <ele>9.5</ele>
        <time>2021-05-16T10:07:19Z</time>
      </trkpt>
      <trkpt lat="41.3139020" lon="-8.7395600">
        <ele>9.5</ele>
        <time>2021-05-16T10:07:20Z</time>
      </trkpt>
      <trkpt lat="41.3139180" lon="-8.7395560">
        <ele>9.5</ele>
        <time>2021-05-16T10:07:21Z</time>
      </trkpt>
      <trkpt lat="41.3139300" lon="-8.7395550">
        <ele>9.5</ele>
        <time>2021-05-16T10:07:22Z</time>
      </trkpt>
      <trkpt lat="41.3139460" lon="-8.7395530">
        <ele>9.5</ele>
        <time>2021-05-16T10:07:23Z</time>
      </trkpt>
      <trkpt lat="41.3139600" lon="-8.7395580">
        <ele>9.5</ele>
        <time>2021-05-16T10:07:24Z</time>
      </trkpt>
      <trkpt lat="41.3139750" lon="-8.7395570">
        <ele>9.4</ele>
        <time>2021-05-16T10:07:25Z</time>
      </trkpt>
      <trkpt lat="41.3139960" lon="-8.7395570">
        <ele>9.4</ele>
        <time>2021-05-16T10:07:26Z</time>
      </trkpt>
      <trkpt lat="41.3140050" lon="-8.7395580">
        <ele>9.4</ele>
        <time>2021-05-16T10:07:27Z</time>
      </trkpt>
      <trkpt lat="41.3140150" lon="-8.7395590">
        <ele>9.4</ele>
        <time>2021-05-16T10:07:28Z</time>
      </trkpt>
      <trkpt lat="41.3140290" lon="-8.7395580">
        <ele>9.4</ele>
        <time>2021-05-16T10:07:29Z</time>
      </trkpt>
      <trkpt lat="41.3140440" lon="-8.7395550">
        <ele>9.4</ele>
        <time>2021-05-16T10:07:30Z</time>
      </trkpt>
      <trkpt lat="41.3140660" lon="-8.7395570">
        <ele>9.3</ele>
        <time>2021-05-16T10:07:32Z</time>
      </trkpt>
      <trkpt lat="41.3140740" lon="-8.7395570">
        <ele>9.3</ele>
        <time>2021-05-16T10:07:33Z</time>
      </trkpt>
      <trkpt lat="41.3140830" lon="-8.7395560">
        <ele>9.3</ele>
        <time>2021-05-16T10:07:34Z</time>
      </trkpt>
      <trkpt lat="41.3140990" lon="-8.7395570">
        <ele>9.3</ele>
        <time>2021-05-16T10:07:35Z</time>
      </trkpt>
      <trkpt lat="41.3141130" lon="-8.7395580">
        <ele>9.2</ele>
        <time>2021-05-16T10:07:36Z</time>
      </trkpt>
      <trkpt lat="41.3141280" lon="-8.7395630">
        <ele>9.2</ele>
        <time>2021-05-16T10:07:37Z</time>
      </trkpt>
      <trkpt lat="41.3141420" lon="-8.7395650">
        <ele>9.2</ele>
        <time>2021-05-16T10:07:38Z</time>
      </trkpt>
      <trkpt lat="41.3141560" lon="-8.7395680">
        <ele>9.2</ele>
        <time>2021-05-16T10:07:39Z</time>
      </trkpt>
      <trkpt lat="41.3141710" lon="-8.7395720">
        <ele>9.2</ele>
        <time>2021-05-16T10:07:40Z</time>
      </trkpt>
      <trkpt lat="41.3141860" lon="-8.7395720">
        <ele>9.1</ele>
        <time>2021-05-16T10:07:41Z</time>
      </trkpt>
      <trkpt lat="41.3142010" lon="-8.7395710">
        <ele>9.1</ele>
        <time>2021-05-16T10:07:42Z</time>
      </trkpt>
      <trkpt lat="41.3142140" lon="-8.7395740">
        <ele>9.1</ele>
        <time>2021-05-16T10:07:43Z</time>
      </trkpt>
      <trkpt lat="41.3142280" lon="-8.7395820">
        <ele>9.1</ele>
        <time>2021-05-16T10:07:44Z</time>
      </trkpt>
      <trkpt lat="41.3142410" lon="-8.7395870">
        <ele>9.0</ele>
        <time>2021-05-16T10:07:45Z</time>
      </trkpt>
      <trkpt lat="41.3142550" lon="-8.7395850">
        <ele>9.0</ele>
        <time>2021-05-16T10:07:46Z</time>
      </trkpt>
      <trkpt lat="41.3142700" lon="-8.7395820">
        <ele>9.0</ele>
        <time>2021-05-16T10:07:47Z</time>
      </trkpt>
      <trkpt lat="41.3142850" lon="-8.7395860">
        <ele>9.0</ele>
        <time>2021-05-16T10:07:48Z</time>
      </trkpt>
      <trkpt lat="41.3143000" lon="-8.7395820">
        <ele>9.0</ele>
        <time>2021-05-16T10:07:49Z</time>
      </trkpt>
      <trkpt lat="41.3143130" lon="-8.7395870">
        <ele>9.0</ele>
        <time>2021-05-16T10:07:50Z</time>
      </trkpt>
      <trkpt lat="41.3143280" lon="-8.7395950">
        <ele>9.0</ele>
        <time>2021-05-16T10:07:51Z</time>
      </trkpt>
      <trkpt lat="41.3143420" lon="-8.7395930">
        <ele>9.0</ele>
        <time>2021-05-16T10:07:52Z</time>
      </trkpt>
      <trkpt lat="41.3143560" lon="-8.7395950">
        <ele>9.0</ele>
        <time>2021-05-16T10:07:53Z</time>
      </trkpt>
      <trkpt lat="41.3143700" lon="-8.7395920">
        <ele>9.0</ele>
        <time>2021-05-16T10:07:54Z</time>
      </trkpt>
      <trkpt lat="41.3143840" lon="-8.7395900">
        <ele>9.0</ele>
        <time>2021-05-16T10:07:55Z</time>
      </trkpt>
      <trkpt lat="41.3143990" lon="-8.7395900">
        <ele>9.0</ele>
        <time>2021-05-16T10:07:56Z</time>
      </trkpt>
      <trkpt lat="41.3144130" lon="-8.7395860">
        <ele>9.0</ele>
        <time>2021-05-16T10:07:57Z</time>
      </trkpt>
      <trkpt lat="41.3144270" lon="-8.7395860">
        <ele>9.0</ele>
        <time>2021-05-16T10:07:58Z</time>
      </trkpt>
      <trkpt lat="41.3144490" lon="-8.7395850">
        <ele>9.0</ele>
        <time>2021-05-16T10:07:59Z</time>
      </trkpt>
      <trkpt lat="41.3144580" lon="-8.7395860">
        <ele>9.0</ele>
        <time>2021-05-16T10:08:00Z</time>
      </trkpt>
      <trkpt lat="41.3144670" lon="-8.7395860">
        <ele>9.0</ele>
        <time>2021-05-16T10:08:01Z</time>
      </trkpt>
      <trkpt lat="41.3144790" lon="-8.7395870">
        <ele>8.9</ele>
        <time>2021-05-16T10:08:02Z</time>
      </trkpt>
      <trkpt lat="41.3144950" lon="-8.7395930">
        <ele>8.9</ele>
        <time>2021-05-16T10:08:03Z</time>
      </trkpt>
      <trkpt lat="41.3145080" lon="-8.7395870">
        <ele>8.9</ele>
        <time>2021-05-16T10:08:04Z</time>
      </trkpt>
      <trkpt lat="41.3145230" lon="-8.7395870">
        <ele>8.9</ele>
        <time>2021-05-16T10:08:05Z</time>
      </trkpt>
      <trkpt lat="41.3145370" lon="-8.7395900">
        <ele>8.9</ele>
        <time>2021-05-16T10:08:06Z</time>
      </trkpt>
      <trkpt lat="41.3145520" lon="-8.7395880">
        <ele>8.9</ele>
        <time>2021-05-16T10:08:07Z</time>
      </trkpt>
      <trkpt lat="41.3145660" lon="-8.7395840">
        <ele>8.9</ele>
        <time>2021-05-16T10:08:08Z</time>
      </trkpt>
      <trkpt lat="41.3145820" lon="-8.7395820">
        <ele>8.9</ele>
        <time>2021-05-16T10:08:09Z</time>
      </trkpt>
      <trkpt lat="41.3145950" lon="-8.7395820">
        <ele>8.9</ele>
        <time>2021-05-16T10:08:10Z</time>
      </trkpt>
      <trkpt lat="41.3146090" lon="-8.7395780">
        <ele>8.9</ele>
        <time>2021-05-16T10:08:11Z</time>
      </trkpt>
      <trkpt lat="41.3146260" lon="-8.7395680">
        <ele>8.9</ele>
        <time>2021-05-16T10:08:12Z</time>
      </trkpt>
      <trkpt lat="41.3146390" lon="-8.7395680">
        <ele>8.9</ele>
        <time>2021-05-16T10:08:13Z</time>
      </trkpt>
      <trkpt lat="41.3146600" lon="-8.7395620">
        <ele>8.9</ele>
        <time>2021-05-16T10:08:14Z</time>
      </trkpt>
      <trkpt lat="41.3146690" lon="-8.7395610">
        <ele>8.9</ele>
        <time>2021-05-16T10:08:15Z</time>
      </trkpt>
      <trkpt lat="41.3146790" lon="-8.7395590">
        <ele>8.9</ele>
        <time>2021-05-16T10:08:16Z</time>
      </trkpt>
      <trkpt lat="41.3146930" lon="-8.7395580">
        <ele>8.9</ele>
        <time>2021-05-16T10:08:17Z</time>
      </trkpt>
      <trkpt lat="41.3147060" lon="-8.7395550">
        <ele>8.9</ele>
        <time>2021-05-16T10:08:18Z</time>
      </trkpt>
      <trkpt lat="41.3147220" lon="-8.7395520">
        <ele>8.8</ele>
        <time>2021-05-16T10:08:19Z</time>
      </trkpt>
      <trkpt lat="41.3147390" lon="-8.7395560">
        <ele>8.8</ele>
        <time>2021-05-16T10:08:20Z</time>
      </trkpt>
      <trkpt lat="41.3147550" lon="-8.7395520">
        <ele>8.8</ele>
        <time>2021-05-16T10:08:21Z</time>
      </trkpt>
      <trkpt lat="41.3147720" lon="-8.7395430">
        <ele>8.8</ele>
        <time>2021-05-16T10:08:22Z</time>
      </trkpt>
      <trkpt lat="41.3147920" lon="-8.7395360">
        <ele>8.8</ele>
        <time>2021-05-16T10:08:23Z</time>
      </trkpt>
      <trkpt lat="41.3148010" lon="-8.7395340">
        <ele>8.8</ele>
        <time>2021-05-16T10:08:24Z</time>
      </trkpt>
      <trkpt lat="41.3148100" lon="-8.7395310">
        <ele>8.8</ele>
        <time>2021-05-16T10:08:25Z</time>
      </trkpt>
      <trkpt lat="41.3148250" lon="-8.7395250">
        <ele>8.8</ele>
        <time>2021-05-16T10:08:26Z</time>
      </trkpt>
      <trkpt lat="41.3148360" lon="-8.7395130">
        <ele>8.8</ele>
        <time>2021-05-16T10:08:27Z</time>
      </trkpt>
      <trkpt lat="41.3148560" lon="-8.7395040">
        <ele>8.8</ele>
        <time>2021-05-16T10:08:28Z</time>
      </trkpt>
      <trkpt lat="41.3148650" lon="-8.7395010">
        <ele>8.8</ele>
        <time>2021-05-16T10:08:29Z</time>
      </trkpt>
      <trkpt lat="41.3148750" lon="-8.7394990">
        <ele>8.8</ele>
        <time>2021-05-16T10:08:30Z</time>
      </trkpt>
      <trkpt lat="41.3148980" lon="-8.7394980">
        <ele>8.7</ele>
        <time>2021-05-16T10:08:31Z</time>
      </trkpt>
      <trkpt lat="41.3149090" lon="-8.7394970">
        <ele>8.7</ele>
        <time>2021-05-16T10:08:32Z</time>
      </trkpt>
      <trkpt lat="41.3149190" lon="-8.7394950">
        <ele>8.7</ele>
        <time>2021-05-16T10:08:33Z</time>
      </trkpt>
      <trkpt lat="41.3149330" lon="-8.7394900">
        <ele>8.7</ele>
        <time>2021-05-16T10:08:34Z</time>
      </trkpt>
      <trkpt lat="41.3149450" lon="-8.7394860">
        <ele>8.7</ele>
        <time>2021-05-16T10:08:35Z</time>
      </trkpt>
      <trkpt lat="41.3149610" lon="-8.7394800">
        <ele>8.7</ele>
        <time>2021-05-16T10:08:36Z</time>
      </trkpt>
      <trkpt lat="41.3149720" lon="-8.7394750">
        <ele>8.7</ele>
        <time>2021-05-16T10:08:37Z</time>
      </trkpt>
      <trkpt lat="41.3149880" lon="-8.7394720">
        <ele>8.7</ele>
        <time>2021-05-16T10:08:38Z</time>
      </trkpt>
      <trkpt lat="41.3150020" lon="-8.7394680">
        <ele>8.6</ele>
        <time>2021-05-16T10:08:39Z</time>
      </trkpt>
      <trkpt lat="41.3150160" lon="-8.7394580">
        <ele>8.6</ele>
        <time>2021-05-16T10:08:40Z</time>
      </trkpt>
      <trkpt lat="41.3150300" lon="-8.7394520">
        <ele>8.6</ele>
        <time>2021-05-16T10:08:41Z</time>
      </trkpt>
      <trkpt lat="41.3150450" lon="-8.7394460">
        <ele>8.6</ele>
        <time>2021-05-16T10:08:42Z</time>
      </trkpt>
      <trkpt lat="41.3150590" lon="-8.7394410">
        <ele>8.6</ele>
        <time>2021-05-16T10:08:43Z</time>
      </trkpt>
      <trkpt lat="41.3150770" lon="-8.7394270">
        <ele>8.6</ele>
        <time>2021-05-16T10:08:44Z</time>
      </trkpt>
      <trkpt lat="41.3150870" lon="-8.7394250">
        <ele>8.6</ele>
        <time>2021-05-16T10:08:45Z</time>
      </trkpt>
      <trkpt lat="41.3150960" lon="-8.7394230">
        <ele>8.6</ele>
        <time>2021-05-16T10:08:46Z</time>
      </trkpt>
      <trkpt lat="41.3151090" lon="-8.7394130">
        <ele>8.6</ele>
        <time>2021-05-16T10:08:47Z</time>
      </trkpt>
      <trkpt lat="41.3151210" lon="-8.7394070">
        <ele>8.5</ele>
        <time>2021-05-16T10:08:48Z</time>
      </trkpt>
      <trkpt lat="41.3151450" lon="-8.7393980">
        <ele>8.5</ele>
        <time>2021-05-16T10:08:49Z</time>
      </trkpt>
      <trkpt lat="41.3151510" lon="-8.7393940">
        <ele>8.5</ele>
        <time>2021-05-16T10:08:50Z</time>
      </trkpt>
      <trkpt lat="41.3151580" lon="-8.7393890">
        <ele>8.5</ele>
        <time>2021-05-16T10:08:51Z</time>
      </trkpt>
      <trkpt lat="41.3151650" lon="-8.7393800">
        <ele>8.5</ele>
        <time>2021-05-16T10:08:52Z</time>
      </trkpt>
      <trkpt lat="41.3151650" lon="-8.7393630">
        <ele>8.5</ele>
        <time>2021-05-16T10:08:53Z</time>
      </trkpt>
      <trkpt lat="41.3151630" lon="-8.7393470">
        <ele>8.5</ele>
        <time>2021-05-16T10:08:54Z</time>
      </trkpt>
      <trkpt lat="41.3151640" lon="-8.7393380">
        <ele>8.5</ele>
        <time>2021-05-16T10:08:55Z</time>
      </trkpt>
      <trkpt lat="41.3151610" lon="-8.7393230">
        <ele>8.4</ele>
        <time>2021-05-16T10:08:56Z</time>
      </trkpt>
      <trkpt lat="41.3151630" lon="-8.7393070">
        <ele>8.4</ele>
        <time>2021-05-16T10:08:57Z</time>
      </trkpt>
      <trkpt lat="41.3151650" lon="-8.7392870">
        <ele>8.4</ele>
        <time>2021-05-16T10:08:58Z</time>
      </trkpt>
      <trkpt lat="41.3151740" lon="-8.7392740">
        <ele>8.4</ele>
        <time>2021-05-16T10:08:59Z</time>
      </trkpt>
      <trkpt lat="41.3151910" lon="-8.7392540">
        <ele>8.4</ele>
        <time>2021-05-16T10:09:00Z</time>
      </trkpt>
      <trkpt lat="41.3151990" lon="-8.7392480">
        <ele>8.3</ele>
        <time>2021-05-16T10:09:01Z</time>
      </trkpt>
      <trkpt lat="41.3152060" lon="-8.7392420">
        <ele>8.3</ele>
        <time>2021-05-16T10:09:02Z</time>
      </trkpt>
      <trkpt lat="41.3152200" lon="-8.7392330">
        <ele>8.3</ele>
        <time>2021-05-16T10:09:03Z</time>
      </trkpt>
      <trkpt lat="41.3152250" lon="-8.7392280">
        <ele>8.3</ele>
        <time>2021-05-16T10:09:04Z</time>
      </trkpt>
      <trkpt lat="41.3152310" lon="-8.7392220">
        <ele>8.3</ele>
        <time>2021-05-16T10:09:05Z</time>
      </trkpt>
      <trkpt lat="41.3152360" lon="-8.7392170">
        <ele>8.3</ele>
        <time>2021-05-16T10:09:06Z</time>
      </trkpt>
      <trkpt lat="41.3152410" lon="-8.7392120">
        <ele>8.2</ele>
        <time>2021-05-16T10:09:07Z</time>
      </trkpt>
      <trkpt lat="41.3152510" lon="-8.7392040">
        <ele>8.2</ele>
        <time>2021-05-16T10:09:08Z</time>
      </trkpt>
      <trkpt lat="41.3152630" lon="-8.7391870">
        <ele>8.2</ele>
        <time>2021-05-16T10:09:09Z</time>
      </trkpt>
      <trkpt lat="41.3152760" lon="-8.7391770">
        <ele>8.2</ele>
        <time>2021-05-16T10:09:10Z</time>
      </trkpt>
      <trkpt lat="41.3152870" lon="-8.7391630">
        <ele>8.1</ele>
        <time>2021-05-16T10:09:11Z</time>
      </trkpt>
      <trkpt lat="41.3152990" lon="-8.7391540">
        <ele>8.1</ele>
        <time>2021-05-16T10:09:12Z</time>
      </trkpt>
      <trkpt lat="41.3153110" lon="-8.7391450">
        <ele>8.0</ele>
        <time>2021-05-16T10:09:13Z</time>
      </trkpt>
      <trkpt lat="41.3153270" lon="-8.7391250">
        <ele>8.0</ele>
        <time>2021-05-16T10:09:14Z</time>
      </trkpt>
      <trkpt lat="41.3153340" lon="-8.7391170">
        <ele>7.9</ele>
        <time>2021-05-16T10:09:15Z</time>
      </trkpt>
      <trkpt lat="41.3153420" lon="-8.7391090">
        <ele>7.9</ele>
        <time>2021-05-16T10:09:16Z</time>
      </trkpt>
      <trkpt lat="41.3153550" lon="-8.7391030">
        <ele>7.9</ele>
        <time>2021-05-16T10:09:17Z</time>
      </trkpt>
      <trkpt lat="41.3153670" lon="-8.7390880">
        <ele>7.8</ele>
        <time>2021-05-16T10:09:18Z</time>
      </trkpt>
      <trkpt lat="41.3153780" lon="-8.7390820">
        <ele>7.7</ele>
        <time>2021-05-16T10:09:19Z</time>
      </trkpt>
      <trkpt lat="41.3153910" lon="-8.7390650">
        <ele>7.7</ele>
        <time>2021-05-16T10:09:20Z</time>
      </trkpt>
      <trkpt lat="41.3154030" lon="-8.7390560">
        <ele>7.6</ele>
        <time>2021-05-16T10:09:21Z</time>
      </trkpt>
      <trkpt lat="41.3154180" lon="-8.7390470">
        <ele>7.5</ele>
        <time>2021-05-16T10:09:22Z</time>
      </trkpt>
      <trkpt lat="41.3154280" lon="-8.7390350">
        <ele>7.5</ele>
        <time>2021-05-16T10:09:23Z</time>
      </trkpt>
      <trkpt lat="41.3154380" lon="-8.7390220">
        <ele>7.4</ele>
        <time>2021-05-16T10:09:24Z</time>
      </trkpt>
      <trkpt lat="41.3154470" lon="-8.7390090">
        <ele>7.4</ele>
        <time>2021-05-16T10:09:25Z</time>
      </trkpt>
      <trkpt lat="41.3154620" lon="-8.7390050">
        <ele>7.3</ele>
        <time>2021-05-16T10:09:26Z</time>
      </trkpt>
      <trkpt lat="41.3154730" lon="-8.7389940">
        <ele>7.2</ele>
        <time>2021-05-16T10:09:27Z</time>
      </trkpt>
      <trkpt lat="41.3154870" lon="-8.7389840">
        <ele>7.1</ele>
        <time>2021-05-16T10:09:28Z</time>
      </trkpt>
      <trkpt lat="41.3154970" lon="-8.7389710">
        <ele>7.1</ele>
        <time>2021-05-16T10:09:29Z</time>
      </trkpt>
      <trkpt lat="41.3155110" lon="-8.7389570">
        <ele>7.0</ele>
        <time>2021-05-16T10:09:30Z</time>
      </trkpt>
      <trkpt lat="41.3155250" lon="-8.7389520">
        <ele>6.9</ele>
        <time>2021-05-16T10:09:31Z</time>
      </trkpt>
      <trkpt lat="41.3155370" lon="-8.7389430">
        <ele>6.8</ele>
        <time>2021-05-16T10:09:32Z</time>
      </trkpt>
      <trkpt lat="41.3155510" lon="-8.7389330">
        <ele>6.7</ele>
        <time>2021-05-16T10:09:33Z</time>
      </trkpt>
      <trkpt lat="41.3155630" lon="-8.7389230">
        <ele>6.6</ele>
        <time>2021-05-16T10:09:34Z</time>
      </trkpt>
      <trkpt lat="41.3155730" lon="-8.7389070">
        <ele>6.5</ele>
        <time>2021-05-16T10:09:35Z</time>
      </trkpt>
      <trkpt lat="41.3155880" lon="-8.7389010">
        <ele>6.4</ele>
        <time>2021-05-16T10:09:36Z</time>
      </trkpt>
      <trkpt lat="41.3156010" lon="-8.7388950">
        <ele>6.4</ele>
        <time>2021-05-16T10:09:37Z</time>
      </trkpt>
      <trkpt lat="41.3156180" lon="-8.7388960">
        <ele>6.3</ele>
        <time>2021-05-16T10:09:38Z</time>
      </trkpt>
      <trkpt lat="41.3156320" lon="-8.7388940">
        <ele>6.2</ele>
        <time>2021-05-16T10:09:39Z</time>
      </trkpt>
      <trkpt lat="41.3156460" lon="-8.7389040">
        <ele>6.1</ele>
        <time>2021-05-16T10:09:40Z</time>
      </trkpt>
      <trkpt lat="41.3156620" lon="-8.7389070">
        <ele>6.0</ele>
        <time>2021-05-16T10:09:41Z</time>
      </trkpt>
      <trkpt lat="41.3156740" lon="-8.7389100">
        <ele>5.9</ele>
        <time>2021-05-16T10:09:42Z</time>
      </trkpt>
      <trkpt lat="41.3156900" lon="-8.7389070">
        <ele>5.8</ele>
        <time>2021-05-16T10:09:43Z</time>
      </trkpt>
      <trkpt lat="41.3157040" lon="-8.7389120">
        <ele>5.7</ele>
        <time>2021-05-16T10:09:44Z</time>
      </trkpt>
      <trkpt lat="41.3157200" lon="-8.7389170">
        <ele>5.6</ele>
        <time>2021-05-16T10:09:45Z</time>
      </trkpt>
      <trkpt lat="41.3157330" lon="-8.7389180">
        <ele>5.6</ele>
        <time>2021-05-16T10:09:46Z</time>
      </trkpt>
      <trkpt lat="41.3157500" lon="-8.7389200">
        <ele>5.5</ele>
        <time>2021-05-16T10:09:47Z</time>
      </trkpt>
      <trkpt lat="41.3157620" lon="-8.7389220">
        <ele>5.4</ele>
        <time>2021-05-16T10:09:48Z</time>
      </trkpt>
      <trkpt lat="41.3157850" lon="-8.7389230">
        <ele>5.3</ele>
        <time>2021-05-16T10:09:49Z</time>
      </trkpt>
      <trkpt lat="41.3157950" lon="-8.7389220">
        <ele>5.3</ele>
        <time>2021-05-16T10:09:50Z</time>
      </trkpt>
      <trkpt lat="41.3158040" lon="-8.7389200">
        <ele>5.2</ele>
        <time>2021-05-16T10:09:51Z</time>
      </trkpt>
      <trkpt lat="41.3158170" lon="-8.7389320">
        <ele>5.2</ele>
        <time>2021-05-16T10:09:52Z</time>
      </trkpt>
      <trkpt lat="41.3158330" lon="-8.7389340">
        <ele>5.1</ele>
        <time>2021-05-16T10:09:53Z</time>
      </trkpt>
      <trkpt lat="41.3158440" lon="-8.7389430">
        <ele>5.0</ele>
        <time>2021-05-16T10:09:54Z</time>
      </trkpt>
      <trkpt lat="41.3158590" lon="-8.7389440">
        <ele>5.0</ele>
        <time>2021-05-16T10:09:55Z</time>
      </trkpt>
      <trkpt lat="41.3158720" lon="-8.7389410">
        <ele>5.0</ele>
        <time>2021-05-16T10:09:56Z</time>
      </trkpt>
      <trkpt lat="41.3158880" lon="-8.7389470">
        <ele>4.9</ele>
        <time>2021-05-16T10:09:57Z</time>
      </trkpt>
      <trkpt lat="41.3159010" lon="-8.7389430">
        <ele>4.9</ele>
        <time>2021-05-16T10:09:58Z</time>
      </trkpt>
      <trkpt lat="41.3159160" lon="-8.7389450">
        <ele>4.8</ele>
        <time>2021-05-16T10:09:59Z</time>
      </trkpt>
      <trkpt lat="41.3159310" lon="-8.7389510">
        <ele>4.8</ele>
        <time>2021-05-16T10:10:00Z</time>
      </trkpt>
      <trkpt lat="41.3159440" lon="-8.7389560">
        <ele>4.8</ele>
        <time>2021-05-16T10:10:01Z</time>
      </trkpt>
      <trkpt lat="41.3159580" lon="-8.7389580">
        <ele>4.8</ele>
        <time>2021-05-16T10:10:02Z</time>
      </trkpt>
      <trkpt lat="41.3159730" lon="-8.7389580">
        <ele>4.7</ele>
        <time>2021-05-16T10:10:03Z</time>
      </trkpt>
      <trkpt lat="41.3159940" lon="-8.7389590">
        <ele>4.7</ele>
        <time>2021-05-16T10:10:04Z</time>
      </trkpt>
      <trkpt lat="41.3160030" lon="-8.7389600">
        <ele>4.7</ele>
        <time>2021-05-16T10:10:05Z</time>
      </trkpt>
      <trkpt lat="41.3160130" lon="-8.7389610">
        <ele>4.7</ele>
        <time>2021-05-16T10:10:06Z</time>
      </trkpt>
      <trkpt lat="41.3160260" lon="-8.7389720">
        <ele>4.6</ele>
        <time>2021-05-16T10:10:07Z</time>
      </trkpt>
      <trkpt lat="41.3160410" lon="-8.7389620">
        <ele>4.6</ele>
        <time>2021-05-16T10:10:08Z</time>
      </trkpt>
      <trkpt lat="41.3160610" lon="-8.7389610">
        <ele>4.6</ele>
        <time>2021-05-16T10:10:09Z</time>
      </trkpt>
      <trkpt lat="41.3160700" lon="-8.7389600">
        <ele>4.6</ele>
        <time>2021-05-16T10:10:10Z</time>
      </trkpt>
      <trkpt lat="41.3160790" lon="-8.7389580">
        <ele>4.6</ele>
        <time>2021-05-16T10:10:11Z</time>
      </trkpt>
      <trkpt lat="41.3160910" lon="-8.7389590">
        <ele>4.6</ele>
        <time>2021-05-16T10:10:12Z</time>
      </trkpt>
      <trkpt lat="41.3161060" lon="-8.7389600">
        <ele>4.5</ele>
        <time>2021-05-16T10:10:13Z</time>
      </trkpt>
      <trkpt lat="41.3161210" lon="-8.7389580">
        <ele>4.5</ele>
        <time>2021-05-16T10:10:14Z</time>
      </trkpt>
      <trkpt lat="41.3161350" lon="-8.7389640">
        <ele>4.5</ele>
        <time>2021-05-16T10:10:15Z</time>
      </trkpt>
      <trkpt lat="41.3161480" lon="-8.7389660">
        <ele>4.5</ele>
        <time>2021-05-16T10:10:16Z</time>
      </trkpt>
      <trkpt lat="41.3161620" lon="-8.7389620">
        <ele>4.5</ele>
        <time>2021-05-16T10:10:17Z</time>
      </trkpt>
      <trkpt lat="41.3161760" lon="-8.7389580">
        <ele>4.5</ele>
        <time>2021-05-16T10:10:18Z</time>
      </trkpt>
      <trkpt lat="41.3161920" lon="-8.7389620">
        <ele>4.5</ele>
        <time>2021-05-16T10:10:19Z</time>
      </trkpt>
      <trkpt lat="41.3162070" lon="-8.7389620">
        <ele>4.5</ele>
        <time>2021-05-16T10:10:20Z</time>
      </trkpt>
      <trkpt lat="41.3162230" lon="-8.7389630">
        <ele>4.5</ele>
        <time>2021-05-16T10:10:21Z</time>
      </trkpt>
      <trkpt lat="41.3162350" lon="-8.7389630">
        <ele>4.5</ele>
        <time>2021-05-16T10:10:22Z</time>
      </trkpt>
      <trkpt lat="41.3162500" lon="-8.7389660">
        <ele>4.5</ele>
        <time>2021-05-16T10:10:23Z</time>
      </trkpt>
      <trkpt lat="41.3162650" lon="-8.7389610">
        <ele>4.5</ele>
        <time>2021-05-16T10:10:24Z</time>
      </trkpt>
      <trkpt lat="41.3162810" lon="-8.7389640">
        <ele>4.5</ele>
        <time>2021-05-16T10:10:25Z</time>
      </trkpt>
      <trkpt lat="41.3163010" lon="-8.7389670">
        <ele>4.5</ele>
        <time>2021-05-16T10:10:26Z</time>
      </trkpt>
      <trkpt lat="41.3163100" lon="-8.7389700">
        <ele>4.5</ele>
        <time>2021-05-16T10:10:27Z</time>
      </trkpt>
      <trkpt lat="41.3163190" lon="-8.7389730">
        <ele>4.5</ele>
        <time>2021-05-16T10:10:28Z</time>
      </trkpt>
      <trkpt lat="41.3163430" lon="-8.7389720">
        <ele>4.5</ele>
        <time>2021-05-16T10:10:29Z</time>
      </trkpt>
      <trkpt lat="41.3163520" lon="-8.7389710">
        <ele>4.5</ele>
        <time>2021-05-16T10:10:30Z</time>
      </trkpt>
      <trkpt lat="41.3163610" lon="-8.7389710">
        <ele>4.5</ele>
        <time>2021-05-16T10:10:31Z</time>
      </trkpt>
      <trkpt lat="41.3163770" lon="-8.7389630">
        <ele>4.5</ele>
        <time>2021-05-16T10:10:32Z</time>
      </trkpt>
      <trkpt lat="41.3163890" lon="-8.7389590">
        <ele>4.5</ele>
        <time>2021-05-16T10:10:33Z</time>
      </trkpt>
      <trkpt lat="41.3164060" lon="-8.7389640">
        <ele>4.5</ele>
        <time>2021-05-16T10:10:34Z</time>
      </trkpt>
      <trkpt lat="41.3164190" lon="-8.7389650">
        <ele>4.5</ele>
        <time>2021-05-16T10:10:35Z</time>
      </trkpt>
      <trkpt lat="41.3164340" lon="-8.7389630">
        <ele>4.5</ele>
        <time>2021-05-16T10:10:36Z</time>
      </trkpt>
      <trkpt lat="41.3164470" lon="-8.7389680">
        <ele>4.5</ele>
        <time>2021-05-16T10:10:37Z</time>
      </trkpt>
      <trkpt lat="41.3164620" lon="-8.7389720">
        <ele>4.5</ele>
        <time>2021-05-16T10:10:38Z</time>
      </trkpt>
      <trkpt lat="41.3164760" lon="-8.7389740">
        <ele>4.5</ele>
        <time>2021-05-16T10:10:39Z</time>
      </trkpt>
      <trkpt lat="41.3164920" lon="-8.7389690">
        <ele>4.5</ele>
        <time>2021-05-16T10:10:40Z</time>
      </trkpt>
      <trkpt lat="41.3165070" lon="-8.7389720">
        <ele>4.5</ele>
        <time>2021-05-16T10:10:41Z</time>
      </trkpt>
      <trkpt lat="41.3165230" lon="-8.7389660">
        <ele>4.5</ele>
        <time>2021-05-16T10:10:42Z</time>
      </trkpt>
      <trkpt lat="41.3165360" lon="-8.7389670">
        <ele>4.5</ele>
        <time>2021-05-16T10:10:43Z</time>
      </trkpt>
      <trkpt lat="41.3165490" lon="-8.7389650">
        <ele>4.5</ele>
        <time>2021-05-16T10:10:44Z</time>
      </trkpt>
      <trkpt lat="41.3165650" lon="-8.7389680">
        <ele>4.5</ele>
        <time>2021-05-16T10:10:45Z</time>
      </trkpt>
      <trkpt lat="41.3165790" lon="-8.7389700">
        <ele>4.5</ele>
        <time>2021-05-16T10:10:46Z</time>
      </trkpt>
      <trkpt lat="41.3165930" lon="-8.7389640">
        <ele>4.5</ele>
        <time>2021-05-16T10:10:47Z</time>
      </trkpt>
      <trkpt lat="41.3166130" lon="-8.7389670">
        <ele>4.5</ele>
        <time>2021-05-16T10:10:48Z</time>
      </trkpt>
      <trkpt lat="41.3166220" lon="-8.7389680">
        <ele>4.5</ele>
        <time>2021-05-16T10:10:49Z</time>
      </trkpt>
      <trkpt lat="41.3166310" lon="-8.7389700">
        <ele>4.5</ele>
        <time>2021-05-16T10:10:50Z</time>
      </trkpt>
      <trkpt lat="41.3166450" lon="-8.7389770">
        <ele>4.5</ele>
        <time>2021-05-16T10:10:51Z</time>
      </trkpt>
      <trkpt lat="41.3166590" lon="-8.7389780">
        <ele>4.5</ele>
        <time>2021-05-16T10:10:52Z</time>
      </trkpt>
      <trkpt lat="41.3166750" lon="-8.7389690">
        <ele>4.5</ele>
        <time>2021-05-16T10:10:53Z</time>
      </trkpt>
      <trkpt lat="41.3166880" lon="-8.7389700">
        <ele>4.5</ele>
        <time>2021-05-16T10:10:54Z</time>
      </trkpt>
      <trkpt lat="41.3167030" lon="-8.7389730">
        <ele>4.5</ele>
        <time>2021-05-16T10:10:55Z</time>
      </trkpt>
      <trkpt lat="41.3167170" lon="-8.7389700">
        <ele>4.5</ele>
        <time>2021-05-16T10:10:56Z</time>
      </trkpt>
      <trkpt lat="41.3167320" lon="-8.7389720">
        <ele>4.5</ele>
        <time>2021-05-16T10:10:57Z</time>
      </trkpt>
      <trkpt lat="41.3167470" lon="-8.7389690">
        <ele>4.5</ele>
        <time>2021-05-16T10:10:58Z</time>
      </trkpt>
      <trkpt lat="41.3167620" lon="-8.7389690">
        <ele>4.5</ele>
        <time>2021-05-16T10:10:59Z</time>
      </trkpt>
      <trkpt lat="41.3167750" lon="-8.7389670">
        <ele>4.6</ele>
        <time>2021-05-16T10:11:00Z</time>
      </trkpt>
      <trkpt lat="41.3167910" lon="-8.7389670">
        <ele>4.6</ele>
        <time>2021-05-16T10:11:01Z</time>
      </trkpt>
      <trkpt lat="41.3168050" lon="-8.7389640">
        <ele>4.6</ele>
        <time>2021-05-16T10:11:02Z</time>
      </trkpt>
      <trkpt lat="41.3168220" lon="-8.7389680">
        <ele>4.6</ele>
        <time>2021-05-16T10:11:03Z</time>
      </trkpt>
      <trkpt lat="41.3168350" lon="-8.7389700">
        <ele>4.6</ele>
        <time>2021-05-16T10:11:04Z</time>
      </trkpt>
      <trkpt lat="41.3168500" lon="-8.7389710">
        <ele>4.6</ele>
        <time>2021-05-16T10:11:05Z</time>
      </trkpt>
      <trkpt lat="41.3168650" lon="-8.7389690">
        <ele>4.6</ele>
        <time>2021-05-16T10:11:06Z</time>
      </trkpt>
      <trkpt lat="41.3168780" lon="-8.7389720">
        <ele>4.6</ele>
        <time>2021-05-16T10:11:07Z</time>
      </trkpt>
      <trkpt lat="41.3168920" lon="-8.7389730">
        <ele>4.6</ele>
        <time>2021-05-16T10:11:08Z</time>
      </trkpt>
      <trkpt lat="41.3169050" lon="-8.7389720">
        <ele>4.6</ele>
        <time>2021-05-16T10:11:09Z</time>
      </trkpt>
      <trkpt lat="41.3169210" lon="-8.7389670">
        <ele>4.6</ele>
        <time>2021-05-16T10:11:10Z</time>
      </trkpt>
      <trkpt lat="41.3169360" lon="-8.7389630">
        <ele>4.6</ele>
        <time>2021-05-16T10:11:11Z</time>
      </trkpt>
      <trkpt lat="41.3169490" lon="-8.7389600">
        <ele>4.6</ele>
        <time>2021-05-16T10:11:12Z</time>
      </trkpt>
      <trkpt lat="41.3169610" lon="-8.7389570">
        <ele>4.6</ele>
        <time>2021-05-16T10:11:13Z</time>
      </trkpt>
      <trkpt lat="41.3169760" lon="-8.7389490">
        <ele>4.6</ele>
        <time>2021-05-16T10:11:14Z</time>
      </trkpt>
      <trkpt lat="41.3169960" lon="-8.7389430">
        <ele>4.6</ele>
        <time>2021-05-16T10:11:15Z</time>
      </trkpt>
      <trkpt lat="41.3170060" lon="-8.7389410">
        <ele>4.6</ele>
        <time>2021-05-16T10:11:16Z</time>
      </trkpt>
      <trkpt lat="41.3170150" lon="-8.7389380">
        <ele>4.6</ele>
        <time>2021-05-16T10:11:17Z</time>
      </trkpt>
      <trkpt lat="41.3170280" lon="-8.7389310">
        <ele>4.6</ele>
        <time>2021-05-16T10:11:18Z</time>
      </trkpt>
      <trkpt lat="41.3170420" lon="-8.7389310">
        <ele>4.7</ele>
        <time>2021-05-16T10:11:19Z</time>
      </trkpt>
      <trkpt lat="41.3170650" lon="-8.7389330">
        <ele>4.7</ele>
        <time>2021-05-16T10:11:20Z</time>
      </trkpt>
      <trkpt lat="41.3170750" lon="-8.7389300">
        <ele>4.7</ele>
        <time>2021-05-16T10:11:21Z</time>
      </trkpt>
      <trkpt lat="41.3170840" lon="-8.7389270">
        <ele>4.7</ele>
        <time>2021-05-16T10:11:22Z</time>
      </trkpt>
      <trkpt lat="41.3170980" lon="-8.7389210">
        <ele>4.7</ele>
        <time>2021-05-16T10:11:23Z</time>
      </trkpt>
      <trkpt lat="41.3171110" lon="-8.7389200">
        <ele>4.7</ele>
        <time>2021-05-16T10:11:24Z</time>
      </trkpt>
      <trkpt lat="41.3171270" lon="-8.7389150">
        <ele>4.7</ele>
        <time>2021-05-16T10:11:25Z</time>
      </trkpt>
      <trkpt lat="41.3171430" lon="-8.7389140">
        <ele>4.7</ele>
        <time>2021-05-16T10:11:26Z</time>
      </trkpt>
      <trkpt lat="41.3171550" lon="-8.7389100">
        <ele>4.7</ele>
        <time>2021-05-16T10:11:27Z</time>
      </trkpt>
      <trkpt lat="41.3171710" lon="-8.7389040">
        <ele>4.7</ele>
        <time>2021-05-16T10:11:28Z</time>
      </trkpt>
      <trkpt lat="41.3171820" lon="-8.7388970">
        <ele>4.7</ele>
        <time>2021-05-16T10:11:29Z</time>
      </trkpt>
      <trkpt lat="41.3171980" lon="-8.7388910">
        <ele>4.8</ele>
        <time>2021-05-16T10:11:30Z</time>
      </trkpt>
      <trkpt lat="41.3172190" lon="-8.7388880">
        <ele>4.8</ele>
        <time>2021-05-16T10:11:31Z</time>
      </trkpt>
      <trkpt lat="41.3172290" lon="-8.7388850">
        <ele>4.8</ele>
        <time>2021-05-16T10:11:32Z</time>
      </trkpt>
      <trkpt lat="41.3172380" lon="-8.7388830">
        <ele>4.8</ele>
        <time>2021-05-16T10:11:33Z</time>
      </trkpt>
      <trkpt lat="41.3172600" lon="-8.7388750">
        <ele>4.8</ele>
        <time>2021-05-16T10:11:34Z</time>
      </trkpt>
      <trkpt lat="41.3172690" lon="-8.7388750">
        <ele>4.8</ele>
        <time>2021-05-16T10:11:35Z</time>
      </trkpt>
      <trkpt lat="41.3172780" lon="-8.7388740">
        <ele>4.8</ele>
        <time>2021-05-16T10:11:36Z</time>
      </trkpt>
      <trkpt lat="41.3172910" lon="-8.7388680">
        <ele>4.9</ele>
        <time>2021-05-16T10:11:37Z</time>
      </trkpt>
      <trkpt lat="41.3173040" lon="-8.7388630">
        <ele>4.9</ele>
        <time>2021-05-16T10:11:38Z</time>
      </trkpt>
      <trkpt lat="41.3173180" lon="-8.7388600">
        <ele>4.9</ele>
        <time>2021-05-16T10:11:39Z</time>
      </trkpt>
      <trkpt lat="41.3173320" lon="-8.7388580">
        <ele>4.9</ele>
        <time>2021-05-16T10:11:40Z</time>
      </trkpt>
      <trkpt lat="41.3173450" lon="-8.7388560">
        <ele>4.9</ele>
        <time>2021-05-16T10:11:41Z</time>
      </trkpt>
      <trkpt lat="41.3173620" lon="-8.7388600">
        <ele>4.9</ele>
        <time>2021-05-16T10:11:42Z</time>
      </trkpt>
      <trkpt lat="41.3173860" lon="-8.7388600">
        <ele>4.9</ele>
        <time>2021-05-16T10:11:43Z</time>
      </trkpt>
      <trkpt lat="41.3173950" lon="-8.7388580">
        <ele>4.9</ele>
        <time>2021-05-16T10:11:44Z</time>
      </trkpt>
      <trkpt lat="41.3174050" lon="-8.7388570">
        <ele>5.0</ele>
        <time>2021-05-16T10:11:45Z</time>
      </trkpt>
      <trkpt lat="41.3174190" lon="-8.7388610">
        <ele>5.0</ele>
        <time>2021-05-16T10:11:46Z</time>
      </trkpt>
      <trkpt lat="41.3174320" lon="-8.7388610">
        <ele>5.0</ele>
        <time>2021-05-16T10:11:47Z</time>
      </trkpt>
      <trkpt lat="41.3174480" lon="-8.7388690">
        <ele>5.0</ele>
        <time>2021-05-16T10:11:48Z</time>
      </trkpt>
      <trkpt lat="41.3174590" lon="-8.7388740">
        <ele>5.0</ele>
        <time>2021-05-16T10:11:49Z</time>
      </trkpt>
      <trkpt lat="41.3174720" lon="-8.7388800">
        <ele>5.0</ele>
        <time>2021-05-16T10:11:50Z</time>
      </trkpt>
      <trkpt lat="41.3174860" lon="-8.7388840">
        <ele>5.0</ele>
        <time>2021-05-16T10:11:51Z</time>
      </trkpt>
      <trkpt lat="41.3175010" lon="-8.7388910">
        <ele>5.0</ele>
        <time>2021-05-16T10:11:52Z</time>
      </trkpt>
      <trkpt lat="41.3175050" lon="-8.7388960">
        <ele>5.0</ele>
        <time>2021-05-16T10:11:53Z</time>
      </trkpt>
      <trkpt lat="41.3175140" lon="-8.7389050">
        <ele>5.1</ele>
        <time>2021-05-16T10:11:54Z</time>
      </trkpt>
      <trkpt lat="41.3175280" lon="-8.7389120">
        <ele>5.1</ele>
        <time>2021-05-16T10:11:55Z</time>
      </trkpt>
      <trkpt lat="41.3175380" lon="-8.7389240">
        <ele>5.1</ele>
        <time>2021-05-16T10:11:56Z</time>
      </trkpt>
      <trkpt lat="41.3175530" lon="-8.7389330">
        <ele>5.1</ele>
        <time>2021-05-16T10:11:57Z</time>
      </trkpt>
      <trkpt lat="41.3175680" lon="-8.7389390">
        <ele>5.1</ele>
        <time>2021-05-16T10:11:58Z</time>
      </trkpt>
      <trkpt lat="41.3175810" lon="-8.7389450">
        <ele>5.2</ele>
        <time>2021-05-16T10:11:59Z</time>
      </trkpt>
      <trkpt lat="41.3175950" lon="-8.7389510">
        <ele>5.2</ele>
        <time>2021-05-16T10:12:00Z</time>
      </trkpt>
      <trkpt lat="41.3176160" lon="-8.7389540">
        <ele>5.2</ele>
        <time>2021-05-16T10:12:01Z</time>
      </trkpt>
      <trkpt lat="41.3176240" lon="-8.7389540">
        <ele>5.3</ele>
        <time>2021-05-16T10:12:02Z</time>
      </trkpt>
      <trkpt lat="41.3176330" lon="-8.7389540">
        <ele>5.3</ele>
        <time>2021-05-16T10:12:03Z</time>
      </trkpt>
      <trkpt lat="41.3176560" lon="-8.7389480">
        <ele>5.3</ele>
        <time>2021-05-16T10:12:04Z</time>
      </trkpt>
      <trkpt lat="41.3176650" lon="-8.7389460">
        <ele>5.3</ele>
        <time>2021-05-16T10:12:05Z</time>
      </trkpt>
      <trkpt lat="41.3176750" lon="-8.7389440">
        <ele>5.4</ele>
        <time>2021-05-16T10:12:06Z</time>
      </trkpt>
      <trkpt lat="41.3176890" lon="-8.7389500">
        <ele>5.4</ele>
        <time>2021-05-16T10:12:07Z</time>
      </trkpt>
      <trkpt lat="41.3177030" lon="-8.7389480">
        <ele>5.4</ele>
        <time>2021-05-16T10:12:08Z</time>
      </trkpt>
      <trkpt lat="41.3177180" lon="-8.7389510">
        <ele>5.5</ele>
        <time>2021-05-16T10:12:09Z</time>
      </trkpt>
      <trkpt lat="41.3177320" lon="-8.7389440">
        <ele>5.5</ele>
        <time>2021-05-16T10:12:10Z</time>
      </trkpt>
      <trkpt lat="41.3177470" lon="-8.7389460">
        <ele>5.6</ele>
        <time>2021-05-16T10:12:11Z</time>
      </trkpt>
      <trkpt lat="41.3177620" lon="-8.7389470">
        <ele>5.6</ele>
        <time>2021-05-16T10:12:12Z</time>
      </trkpt>
      <trkpt lat="41.3177730" lon="-8.7389520">
        <ele>5.6</ele>
        <time>2021-05-16T10:12:13Z</time>
      </trkpt>
      <trkpt lat="41.3177890" lon="-8.7389550">
        <ele>5.7</ele>
        <time>2021-05-16T10:12:14Z</time>
      </trkpt>
      <trkpt lat="41.3178010" lon="-8.7389520">
        <ele>5.7</ele>
        <time>2021-05-16T10:12:15Z</time>
      </trkpt>
      <trkpt lat="41.3178160" lon="-8.7389480">
        <ele>5.8</ele>
        <time>2021-05-16T10:12:16Z</time>
      </trkpt>
      <trkpt lat="41.3178300" lon="-8.7389400">
        <ele>5.8</ele>
        <time>2021-05-16T10:12:17Z</time>
      </trkpt>
      <trkpt lat="41.3178460" lon="-8.7389480">
        <ele>5.9</ele>
        <time>2021-05-16T10:12:18Z</time>
      </trkpt>
      <trkpt lat="41.3178590" lon="-8.7389490">
        <ele>5.9</ele>
        <time>2021-05-16T10:12:19Z</time>
      </trkpt>
      <trkpt lat="41.3178730" lon="-8.7389500">
        <ele>5.9</ele>
        <time>2021-05-16T10:12:20Z</time>
      </trkpt>
      <trkpt lat="41.3178870" lon="-8.7389470">
        <ele>6.0</ele>
        <time>2021-05-16T10:12:21Z</time>
      </trkpt>
      <trkpt lat="41.3179010" lon="-8.7389490">
        <ele>6.0</ele>
        <time>2021-05-16T10:12:22Z</time>
      </trkpt>
      <trkpt lat="41.3179150" lon="-8.7389450">
        <ele>6.0</ele>
        <time>2021-05-16T10:12:23Z</time>
      </trkpt>
      <trkpt lat="41.3179300" lon="-8.7389440">
        <ele>6.1</ele>
        <time>2021-05-16T10:12:24Z</time>
      </trkpt>
      <trkpt lat="41.3179450" lon="-8.7389450">
        <ele>6.1</ele>
        <time>2021-05-16T10:12:25Z</time>
      </trkpt>
      <trkpt lat="41.3179590" lon="-8.7389430">
        <ele>6.1</ele>
        <time>2021-05-16T10:12:26Z</time>
      </trkpt>
      <trkpt lat="41.3179820" lon="-8.7389430">
        <ele>6.2</ele>
        <time>2021-05-16T10:12:27Z</time>
      </trkpt>
      <trkpt lat="41.3179900" lon="-8.7389450">
        <ele>6.2</ele>
        <time>2021-05-16T10:12:28Z</time>
      </trkpt>
      <trkpt lat="41.3179990" lon="-8.7389470">
        <ele>6.2</ele>
        <time>2021-05-16T10:12:29Z</time>
      </trkpt>
      <trkpt lat="41.3180130" lon="-8.7389500">
        <ele>6.2</ele>
        <time>2021-05-16T10:12:30Z</time>
      </trkpt>
      <trkpt lat="41.3180260" lon="-8.7389460">
        <ele>6.2</ele>
        <time>2021-05-16T10:12:31Z</time>
      </trkpt>
      <trkpt lat="41.3180400" lon="-8.7389470">
        <ele>6.2</ele>
        <time>2021-05-16T10:12:32Z</time>
      </trkpt>
      <trkpt lat="41.3180540" lon="-8.7389530">
        <ele>6.2</ele>
        <time>2021-05-16T10:12:33Z</time>
      </trkpt>
      <trkpt lat="41.3180680" lon="-8.7389490">
        <ele>6.2</ele>
        <time>2021-05-16T10:12:34Z</time>
      </trkpt>
      <trkpt lat="41.3180820" lon="-8.7389490">
        <ele>6.3</ele>
        <time>2021-05-16T10:12:35Z</time>
      </trkpt>
      <trkpt lat="41.3181030" lon="-8.7389520">
        <ele>6.3</ele>
        <time>2021-05-16T10:12:36Z</time>
      </trkpt>
      <trkpt lat="41.3181130" lon="-8.7389540">
        <ele>6.3</ele>
        <time>2021-05-16T10:12:37Z</time>
      </trkpt>
      <trkpt lat="41.3181230" lon="-8.7389550">
        <ele>6.3</ele>
        <time>2021-05-16T10:12:38Z</time>
      </trkpt>
      <trkpt lat="41.3181440" lon="-8.7389470">
        <ele>6.3</ele>
        <time>2021-05-16T10:12:39Z</time>
      </trkpt>
      <trkpt lat="41.3181520" lon="-8.7389450">
        <ele>6.3</ele>
        <time>2021-05-16T10:12:40Z</time>
      </trkpt>
      <trkpt lat="41.3181610" lon="-8.7389420">
        <ele>6.3</ele>
        <time>2021-05-16T10:12:41Z</time>
      </trkpt>
      <trkpt lat="41.3181750" lon="-8.7389360">
        <ele>6.3</ele>
        <time>2021-05-16T10:12:42Z</time>
      </trkpt>
      <trkpt lat="41.3181890" lon="-8.7389270">
        <ele>6.3</ele>
        <time>2021-05-16T10:12:43Z</time>
      </trkpt>
      <trkpt lat="41.3182030" lon="-8.7389240">
        <ele>6.3</ele>
        <time>2021-05-16T10:12:44Z</time>
      </trkpt>
      <trkpt lat="41.3182170" lon="-8.7389170">
        <ele>6.3</ele>
        <time>2021-05-16T10:12:45Z</time>
      </trkpt>
      <trkpt lat="41.3182320" lon="-8.7389120">
        <ele>6.3</ele>
        <time>2021-05-16T10:12:46Z</time>
      </trkpt>
      <trkpt lat="41.3182440" lon="-8.7389030">
        <ele>6.3</ele>
        <time>2021-05-16T10:12:47Z</time>
      </trkpt>
      <trkpt lat="41.3182590" lon="-8.7389000">
        <ele>6.4</ele>
        <time>2021-05-16T10:12:48Z</time>
      </trkpt>
      <trkpt lat="41.3182720" lon="-8.7388980">
        <ele>6.4</ele>
        <time>2021-05-16T10:12:49Z</time>
      </trkpt>
      <trkpt lat="41.3182880" lon="-8.7388910">
        <ele>6.4</ele>
        <time>2021-05-16T10:12:50Z</time>
      </trkpt>
      <trkpt lat="41.3183000" lon="-8.7388890">
        <ele>6.4</ele>
        <time>2021-05-16T10:12:51Z</time>
      </trkpt>
      <trkpt lat="41.3183230" lon="-8.7388780">
        <ele>6.4</ele>
        <time>2021-05-16T10:12:52Z</time>
      </trkpt>
      <trkpt lat="41.3183320" lon="-8.7388760">
        <ele>6.4</ele>
        <time>2021-05-16T10:12:53Z</time>
      </trkpt>
      <trkpt lat="41.3183420" lon="-8.7388730">
        <ele>6.4</ele>
        <time>2021-05-16T10:12:54Z</time>
      </trkpt>
      <trkpt lat="41.3183560" lon="-8.7388750">
        <ele>6.4</ele>
        <time>2021-05-16T10:12:55Z</time>
      </trkpt>
      <trkpt lat="41.3183690" lon="-8.7388670">
        <ele>6.4</ele>
        <time>2021-05-16T10:12:56Z</time>
      </trkpt>
      <trkpt lat="41.3183820" lon="-8.7388640">
        <ele>6.4</ele>
        <time>2021-05-16T10:12:57Z</time>
      </trkpt>
      <trkpt lat="41.3183940" lon="-8.7388530">
        <ele>6.4</ele>
        <time>2021-05-16T10:12:58Z</time>
      </trkpt>
      <trkpt lat="41.3184110" lon="-8.7388520">
        <ele>6.4</ele>
        <time>2021-05-16T10:12:59Z</time>
      </trkpt>
      <trkpt lat="41.3184250" lon="-8.7388460">
        <ele>6.4</ele>
        <time>2021-05-16T10:13:00Z</time>
      </trkpt>
      <trkpt lat="41.3184400" lon="-8.7388430">
        <ele>6.4</ele>
        <time>2021-05-16T10:13:01Z</time>
      </trkpt>
      <trkpt lat="41.3184510" lon="-8.7388370">
        <ele>6.4</ele>
        <time>2021-05-16T10:13:02Z</time>
      </trkpt>
      <trkpt lat="41.3184650" lon="-8.7388330">
        <ele>6.4</ele>
        <time>2021-05-16T10:13:03Z</time>
      </trkpt>
      <trkpt lat="41.3184790" lon="-8.7388320">
        <ele>6.4</ele>
        <time>2021-05-16T10:13:04Z</time>
      </trkpt>
      <trkpt lat="41.3184930" lon="-8.7388260">
        <ele>6.4</ele>
        <time>2021-05-16T10:13:05Z</time>
      </trkpt>
      <trkpt lat="41.3185060" lon="-8.7388190">
        <ele>6.4</ele>
        <time>2021-05-16T10:13:06Z</time>
      </trkpt>
      <trkpt lat="41.3185210" lon="-8.7388130">
        <ele>6.4</ele>
        <time>2021-05-16T10:13:07Z</time>
      </trkpt>
      <trkpt lat="41.3185340" lon="-8.7388070">
        <ele>6.4</ele>
        <time>2021-05-16T10:13:08Z</time>
      </trkpt>
      <trkpt lat="41.3185550" lon="-8.7388020">
        <ele>6.4</ele>
        <time>2021-05-16T10:13:09Z</time>
      </trkpt>
      <trkpt lat="41.3185650" lon="-8.7388030">
        <ele>6.4</ele>
        <time>2021-05-16T10:13:10Z</time>
      </trkpt>
      <trkpt lat="41.3185750" lon="-8.7388040">
        <ele>6.4</ele>
        <time>2021-05-16T10:13:11Z</time>
      </trkpt>
      <trkpt lat="41.3185900" lon="-8.7388080">
        <ele>6.4</ele>
        <time>2021-05-16T10:13:12Z</time>
      </trkpt>
      <trkpt lat="41.3186040" lon="-8.7387950">
        <ele>6.4</ele>
        <time>2021-05-16T10:13:13Z</time>
      </trkpt>
      <trkpt lat="41.3186190" lon="-8.7387920">
        <ele>6.4</ele>
        <time>2021-05-16T10:13:14Z</time>
      </trkpt>
      <trkpt lat="41.3186320" lon="-8.7387910">
        <ele>6.4</ele>
        <time>2021-05-16T10:13:15Z</time>
      </trkpt>
      <trkpt lat="41.3186460" lon="-8.7387880">
        <ele>6.4</ele>
        <time>2021-05-16T10:13:16Z</time>
      </trkpt>
      <trkpt lat="41.3186610" lon="-8.7387860">
        <ele>6.4</ele>
        <time>2021-05-16T10:13:17Z</time>
      </trkpt>
      <trkpt lat="41.3186750" lon="-8.7387780">
        <ele>6.4</ele>
        <time>2021-05-16T10:13:18Z</time>
      </trkpt>
      <trkpt lat="41.3186890" lon="-8.7387780">
        <ele>6.4</ele>
        <time>2021-05-16T10:13:19Z</time>
      </trkpt>
      <trkpt lat="41.3187110" lon="-8.7387690">
        <ele>6.3</ele>
        <time>2021-05-16T10:13:20Z</time>
      </trkpt>
      <trkpt lat="41.3187200" lon="-8.7387680">
        <ele>6.3</ele>
        <time>2021-05-16T10:13:21Z</time>
      </trkpt>
      <trkpt lat="41.3187290" lon="-8.7387670">
        <ele>6.3</ele>
        <time>2021-05-16T10:13:22Z</time>
      </trkpt>
      <trkpt lat="41.3187450" lon="-8.7387620">
        <ele>6.3</ele>
        <time>2021-05-16T10:13:23Z</time>
      </trkpt>
      <trkpt lat="41.3187560" lon="-8.7387560">
        <ele>6.3</ele>
        <time>2021-05-16T10:13:24Z</time>
      </trkpt>
      <trkpt lat="41.3187690" lon="-8.7387500">
        <ele>6.3</ele>
        <time>2021-05-16T10:13:25Z</time>
      </trkpt>
      <trkpt lat="41.3187830" lon="-8.7387470">
        <ele>6.3</ele>
        <time>2021-05-16T10:13:26Z</time>
      </trkpt>
      <trkpt lat="41.3188040" lon="-8.7387460">
        <ele>6.2</ele>
        <time>2021-05-16T10:13:27Z</time>
      </trkpt>
      <trkpt lat="41.3188130" lon="-8.7387430">
        <ele>6.2</ele>
        <time>2021-05-16T10:13:28Z</time>
      </trkpt>
      <trkpt lat="41.3188220" lon="-8.7387390">
        <ele>6.2</ele>
        <time>2021-05-16T10:13:29Z</time>
      </trkpt>
      <trkpt lat="41.3188370" lon="-8.7387400">
        <ele>6.2</ele>
        <time>2021-05-16T10:13:30Z</time>
      </trkpt>
      <trkpt lat="41.3188510" lon="-8.7387360">
        <ele>6.1</ele>
        <time>2021-05-16T10:13:31Z</time>
      </trkpt>
      <trkpt lat="41.3188640" lon="-8.7387310">
        <ele>6.1</ele>
        <time>2021-05-16T10:13:32Z</time>
      </trkpt>
      <trkpt lat="41.3188770" lon="-8.7387260">
        <ele>6.1</ele>
        <time>2021-05-16T10:13:33Z</time>
      </trkpt>
      <trkpt lat="41.3188900" lon="-8.7387210">
        <ele>6.1</ele>
        <time>2021-05-16T10:13:34Z</time>
      </trkpt>
      <trkpt lat="41.3189050" lon="-8.7387180">
        <ele>6.1</ele>
        <time>2021-05-16T10:13:35Z</time>
      </trkpt>
      <trkpt lat="41.3189250" lon="-8.7387140">
        <ele>6.0</ele>
        <time>2021-05-16T10:13:36Z</time>
      </trkpt>
      <trkpt lat="41.3189350" lon="-8.7387130">
        <ele>6.0</ele>
        <time>2021-05-16T10:13:37Z</time>
      </trkpt>
      <trkpt lat="41.3189440" lon="-8.7387110">
        <ele>6.0</ele>
        <time>2021-05-16T10:13:38Z</time>
      </trkpt>
      <trkpt lat="41.3189600" lon="-8.7387090">
        <ele>6.0</ele>
        <time>2021-05-16T10:13:39Z</time>
      </trkpt>
      <trkpt lat="41.3189730" lon="-8.7387030">
        <ele>6.0</ele>
        <time>2021-05-16T10:13:40Z</time>
      </trkpt>
      <trkpt lat="41.3189890" lon="-8.7386990">
        <ele>5.9</ele>
        <time>2021-05-16T10:13:41Z</time>
      </trkpt>
      <trkpt lat="41.3190010" lon="-8.7387000">
        <ele>5.9</ele>
        <time>2021-05-16T10:13:42Z</time>
      </trkpt>
      <trkpt lat="41.3190160" lon="-8.7386990">
        <ele>5.9</ele>
        <time>2021-05-16T10:13:43Z</time>
      </trkpt>
      <trkpt lat="41.3190290" lon="-8.7387020">
        <ele>5.9</ele>
        <time>2021-05-16T10:13:44Z</time>
      </trkpt>
      <trkpt lat="41.3190420" lon="-8.7387000">
        <ele>5.9</ele>
        <time>2021-05-16T10:13:45Z</time>
      </trkpt>
      <trkpt lat="41.3190560" lon="-8.7386940">
        <ele>5.9</ele>
        <time>2021-05-16T10:13:46Z</time>
      </trkpt>
      <trkpt lat="41.3190690" lon="-8.7386930">
        <ele>5.8</ele>
        <time>2021-05-16T10:13:47Z</time>
      </trkpt>
      <trkpt lat="41.3190860" lon="-8.7386930">
        <ele>5.8</ele>
        <time>2021-05-16T10:13:48Z</time>
      </trkpt>
      <trkpt lat="41.3190990" lon="-8.7386930">
        <ele>5.8</ele>
        <time>2021-05-16T10:13:49Z</time>
      </trkpt>
      <trkpt lat="41.3191140" lon="-8.7386940">
        <ele>5.8</ele>
        <time>2021-05-16T10:13:50Z</time>
      </trkpt>
      <trkpt lat="41.3191290" lon="-8.7386950">
        <ele>5.8</ele>
        <time>2021-05-16T10:13:51Z</time>
      </trkpt>
      <trkpt lat="41.3191450" lon="-8.7386990">
        <ele>5.8</ele>
        <time>2021-05-16T10:13:52Z</time>
      </trkpt>
      <trkpt lat="41.3191600" lon="-8.7386950">
        <ele>5.8</ele>
        <time>2021-05-16T10:13:53Z</time>
      </trkpt>
      <trkpt lat="41.3191720" lon="-8.7387010">
        <ele>5.8</ele>
        <time>2021-05-16T10:13:54Z</time>
      </trkpt>
      <trkpt lat="41.3191870" lon="-8.7386980">
        <ele>5.8</ele>
        <time>2021-05-16T10:13:55Z</time>
      </trkpt>
      <trkpt lat="41.3191990" lon="-8.7386920">
        <ele>5.8</ele>
        <time>2021-05-16T10:13:56Z</time>
      </trkpt>
      <trkpt lat="41.3192140" lon="-8.7386930">
        <ele>5.8</ele>
        <time>2021-05-16T10:13:57Z</time>
      </trkpt>
      <trkpt lat="41.3192300" lon="-8.7386930">
        <ele>5.7</ele>
        <time>2021-05-16T10:13:58Z</time>
      </trkpt>
      <trkpt lat="41.3192510" lon="-8.7386910">
        <ele>5.7</ele>
        <time>2021-05-16T10:13:59Z</time>
      </trkpt>
      <trkpt lat="41.3192590" lon="-8.7386930">
        <ele>5.7</ele>
        <time>2021-05-16T10:14:00Z</time>
      </trkpt>
      <trkpt lat="41.3192680" lon="-8.7386940">
        <ele>5.7</ele>
        <time>2021-05-16T10:14:01Z</time>
      </trkpt>
      <trkpt lat="41.3192900" lon="-8.7386950">
        <ele>5.7</ele>
        <time>2021-05-16T10:14:02Z</time>
      </trkpt>
      <trkpt lat="41.3192990" lon="-8.7386950">
        <ele>5.7</ele>
        <time>2021-05-16T10:14:03Z</time>
      </trkpt>
      <trkpt lat="41.3193080" lon="-8.7386950">
        <ele>5.7</ele>
        <time>2021-05-16T10:14:04Z</time>
      </trkpt>
      <trkpt lat="41.3193280" lon="-8.7386930">
        <ele>5.7</ele>
        <time>2021-05-16T10:14:05Z</time>
      </trkpt>
      <trkpt lat="41.3193360" lon="-8.7386900">
        <ele>5.7</ele>
        <time>2021-05-16T10:14:06Z</time>
      </trkpt>
      <trkpt lat="41.3193450" lon="-8.7386880">
        <ele>5.7</ele>
        <time>2021-05-16T10:14:07Z</time>
      </trkpt>
      <trkpt lat="41.3193700" lon="-8.7386900">
        <ele>5.7</ele>
        <time>2021-05-16T10:14:08Z</time>
      </trkpt>
      <trkpt lat="41.3193790" lon="-8.7386890">
        <ele>5.7</ele>
        <time>2021-05-16T10:14:09Z</time>
      </trkpt>
      <trkpt lat="41.3193870" lon="-8.7386870">
        <ele>5.6</ele>
        <time>2021-05-16T10:14:10Z</time>
      </trkpt>
      <trkpt lat="41.3193990" lon="-8.7386890">
        <ele>5.6</ele>
        <time>2021-05-16T10:14:11Z</time>
      </trkpt>
      <trkpt lat="41.3194140" lon="-8.7386900">
        <ele>5.6</ele>
        <time>2021-05-16T10:14:12Z</time>
      </trkpt>
      <trkpt lat="41.3194280" lon="-8.7386910">
        <ele>5.6</ele>
        <time>2021-05-16T10:14:13Z</time>
      </trkpt>
      <trkpt lat="41.3194440" lon="-8.7386890">
        <ele>5.6</ele>
        <time>2021-05-16T10:14:14Z</time>
      </trkpt>
      <trkpt lat="41.3194580" lon="-8.7386870">
        <ele>5.6</ele>
        <time>2021-05-16T10:14:15Z</time>
      </trkpt>
      <trkpt lat="41.3194730" lon="-8.7386870">
        <ele>5.6</ele>
        <time>2021-05-16T10:14:16Z</time>
      </trkpt>
      <trkpt lat="41.3194870" lon="-8.7386880">
        <ele>5.6</ele>
        <time>2021-05-16T10:14:17Z</time>
      </trkpt>
      <trkpt lat="41.3195010" lon="-8.7386840">
        <ele>5.6</ele>
        <time>2021-05-16T10:14:18Z</time>
      </trkpt>
      <trkpt lat="41.3195160" lon="-8.7386840">
        <ele>5.6</ele>
        <time>2021-05-16T10:14:19Z</time>
      </trkpt>
      <trkpt lat="41.3195290" lon="-8.7386770">
        <ele>5.6</ele>
        <time>2021-05-16T10:14:20Z</time>
      </trkpt>
      <trkpt lat="41.3195420" lon="-8.7386800">
        <ele>5.6</ele>
        <time>2021-05-16T10:14:21Z</time>
      </trkpt>
      <trkpt lat="41.3195560" lon="-8.7386810">
        <ele>5.6</ele>
        <time>2021-05-16T10:14:22Z</time>
      </trkpt>
      <trkpt lat="41.3195780" lon="-8.7386820">
        <ele>5.6</ele>
        <time>2021-05-16T10:14:23Z</time>
      </trkpt>
      <trkpt lat="41.3195870" lon="-8.7386790">
        <ele>5.6</ele>
        <time>2021-05-16T10:14:24Z</time>
      </trkpt>
      <trkpt lat="41.3195970" lon="-8.7386770">
        <ele>5.6</ele>
        <time>2021-05-16T10:14:25Z</time>
      </trkpt>
      <trkpt lat="41.3196180" lon="-8.7386770">
        <ele>5.6</ele>
        <time>2021-05-16T10:14:26Z</time>
      </trkpt>
      <trkpt lat="41.3196270" lon="-8.7386750">
        <ele>5.6</ele>
        <time>2021-05-16T10:14:27Z</time>
      </trkpt>
      <trkpt lat="41.3196350" lon="-8.7386730">
        <ele>5.6</ele>
        <time>2021-05-16T10:14:28Z</time>
      </trkpt>
      <trkpt lat="41.3196520" lon="-8.7386720">
        <ele>5.6</ele>
        <time>2021-05-16T10:14:29Z</time>
      </trkpt>
      <trkpt lat="41.3196650" lon="-8.7386750">
        <ele>5.6</ele>
        <time>2021-05-16T10:14:30Z</time>
      </trkpt>
      <trkpt lat="41.3196790" lon="-8.7386740">
        <ele>5.6</ele>
        <time>2021-05-16T10:14:31Z</time>
      </trkpt>
      <trkpt lat="41.3196890" lon="-8.7386710">
        <ele>5.6</ele>
        <time>2021-05-16T10:14:32Z</time>
      </trkpt>
      <trkpt lat="41.3196940" lon="-8.7386690">
        <ele>5.6</ele>
        <time>2021-05-16T10:14:33Z</time>
      </trkpt>
      <trkpt lat="41.3197090" lon="-8.7386730">
        <ele>5.6</ele>
        <time>2021-05-16T10:14:34Z</time>
      </trkpt>
      <trkpt lat="41.3197280" lon="-8.7386690">
        <ele>5.7</ele>
        <time>2021-05-16T10:14:35Z</time>
      </trkpt>
      <trkpt lat="41.3197330" lon="-8.7386680">
        <ele>5.7</ele>
        <time>2021-05-16T10:14:36Z</time>
      </trkpt>
      <trkpt lat="41.3197480" lon="-8.7386720">
        <ele>5.7</ele>
        <time>2021-05-16T10:14:37Z</time>
      </trkpt>
      <trkpt lat="41.3197590" lon="-8.7386690">
        <ele>5.7</ele>
        <time>2021-05-16T10:14:38Z</time>
      </trkpt>
      <trkpt lat="41.3197820" lon="-8.7386640">
        <ele>5.7</ele>
        <time>2021-05-16T10:14:39Z</time>
      </trkpt>
      <trkpt lat="41.3197900" lon="-8.7386640">
        <ele>5.7</ele>
        <time>2021-05-16T10:14:40Z</time>
      </trkpt>
      <trkpt lat="41.3197970" lon="-8.7386630">
        <ele>5.7</ele>
        <time>2021-05-16T10:14:41Z</time>
      </trkpt>
      <trkpt lat="41.3198160" lon="-8.7386490">
        <ele>5.7</ele>
        <time>2021-05-16T10:14:42Z</time>
      </trkpt>
      <trkpt lat="41.3198250" lon="-8.7386420">
        <ele>5.7</ele>
        <time>2021-05-16T10:14:43Z</time>
      </trkpt>
      <trkpt lat="41.3198350" lon="-8.7386350">
        <ele>5.8</ele>
        <time>2021-05-16T10:14:44Z</time>
      </trkpt>
      <trkpt lat="41.3198530" lon="-8.7386270">
        <ele>5.8</ele>
        <time>2021-05-16T10:14:45Z</time>
      </trkpt>
      <trkpt lat="41.3198640" lon="-8.7386220">
        <ele>5.8</ele>
        <time>2021-05-16T10:14:46Z</time>
      </trkpt>
      <trkpt lat="41.3198760" lon="-8.7386160">
        <ele>5.8</ele>
        <time>2021-05-16T10:14:47Z</time>
      </trkpt>
      <trkpt lat="41.3198880" lon="-8.7386030">
        <ele>5.8</ele>
        <time>2021-05-16T10:14:48Z</time>
      </trkpt>
      <trkpt lat="41.3199020" lon="-8.7385930">
        <ele>5.8</ele>
        <time>2021-05-16T10:14:49Z</time>
      </trkpt>
      <trkpt lat="41.3199140" lon="-8.7385910">
        <ele>5.8</ele>
        <time>2021-05-16T10:14:50Z</time>
      </trkpt>
      <trkpt lat="41.3199310" lon="-8.7385860">
        <ele>5.9</ele>
        <time>2021-05-16T10:14:51Z</time>
      </trkpt>
      <trkpt lat="41.3199460" lon="-8.7385810">
        <ele>5.9</ele>
        <time>2021-05-16T10:14:52Z</time>
      </trkpt>
      <trkpt lat="41.3199600" lon="-8.7385680">
        <ele>5.9</ele>
        <time>2021-05-16T10:14:53Z</time>
      </trkpt>
      <trkpt lat="41.3199750" lon="-8.7385630">
        <ele>5.9</ele>
        <time>2021-05-16T10:14:54Z</time>
      </trkpt>
      <trkpt lat="41.3199890" lon="-8.7385570">
        <ele>5.9</ele>
        <time>2021-05-16T10:14:55Z</time>
      </trkpt>
      <trkpt lat="41.3200090" lon="-8.7385440">
        <ele>5.9</ele>
        <time>2021-05-16T10:14:56Z</time>
      </trkpt>
      <trkpt lat="41.3200180" lon="-8.7385390">
        <ele>6.0</ele>
        <time>2021-05-16T10:14:57Z</time>
      </trkpt>
      <trkpt lat="41.3200260" lon="-8.7385340">
        <ele>6.0</ele>
        <time>2021-05-16T10:14:58Z</time>
      </trkpt>
      <trkpt lat="41.3200430" lon="-8.7385280">
        <ele>6.0</ele>
        <time>2021-05-16T10:14:59Z</time>
      </trkpt>
      <trkpt lat="41.3200530" lon="-8.7385150">
        <ele>6.0</ele>
        <time>2021-05-16T10:15:00Z</time>
      </trkpt>
      <trkpt lat="41.3200590" lon="-8.7385130">
        <ele>6.0</ele>
        <time>2021-05-16T10:15:01Z</time>
      </trkpt>
      <trkpt lat="41.3200690" lon="-8.7385150">
        <ele>6.0</ele>
        <time>2021-05-16T10:15:02Z</time>
      </trkpt>
      <trkpt lat="41.3200780" lon="-8.7385130">
        <ele>6.0</ele>
        <time>2021-05-16T10:15:03Z</time>
      </trkpt>
      <trkpt lat="41.3200850" lon="-8.7385110">
        <ele>6.1</ele>
        <time>2021-05-16T10:15:04Z</time>
      </trkpt>
      <trkpt lat="41.3200890" lon="-8.7385100">
        <ele>6.1</ele>
        <time>2021-05-16T10:15:05Z</time>
      </trkpt>
      <trkpt lat="41.3200850" lon="-8.7385110">
        <ele>6.1</ele>
        <time>2021-05-16T10:15:06Z</time>
      </trkpt>
      <trkpt lat="41.3200780" lon="-8.7385130">
        <ele>6.1</ele>
        <time>2021-05-16T10:15:07Z</time>
      </trkpt>
      <trkpt lat="41.3200770" lon="-8.7385140">
        <ele>6.1</ele>
        <time>2021-05-16T10:15:08Z</time>
      </trkpt>
      <trkpt lat="41.3200760" lon="-8.7385140">
        <ele>6.1</ele>
        <time>2021-05-16T10:15:09Z</time>
      </trkpt>
      <trkpt lat="41.3200750" lon="-8.7385170">
        <ele>6.1</ele>
        <time>2021-05-16T10:15:10Z</time>
      </trkpt>
      <trkpt lat="41.3200710" lon="-8.7385200">
        <ele>6.1</ele>
        <time>2021-05-16T10:15:11Z</time>
      </trkpt>
      <trkpt lat="41.3200670" lon="-8.7385210">
        <ele>6.1</ele>
        <time>2021-05-16T10:15:12Z</time>
      </trkpt>
      <trkpt lat="41.3200630" lon="-8.7385210">
        <ele>6.1</ele>
        <time>2021-05-16T10:15:13Z</time>
      </trkpt>
      <trkpt lat="41.3200600" lon="-8.7385210">
        <ele>6.1</ele>
        <time>2021-05-16T10:15:14Z</time>
      </trkpt>
      <trkpt lat="41.3200570" lon="-8.7385210">
        <ele>6.1</ele>
        <time>2021-05-16T10:15:15Z</time>
      </trkpt>
      <trkpt lat="41.3200530" lon="-8.7385220">
        <ele>6.1</ele>
        <time>2021-05-16T10:15:16Z</time>
      </trkpt>
      <trkpt lat="41.3200510" lon="-8.7385230">
        <ele>6.1</ele>
        <time>2021-05-16T10:15:17Z</time>
      </trkpt>
      <trkpt lat="41.3200480" lon="-8.7385250">
        <ele>6.1</ele>
        <time>2021-05-16T10:15:18Z</time>
      </trkpt>
      <trkpt lat="41.3200440" lon="-8.7385280">
        <ele>6.1</ele>
        <time>2021-05-16T10:15:19Z</time>
      </trkpt>
      <trkpt lat="41.3200430" lon="-8.7385300">
        <ele>6.1</ele>
        <time>2021-05-16T10:15:20Z</time>
      </trkpt>
      <trkpt lat="41.3200410" lon="-8.7385310">
        <ele>6.1</ele>
        <time>2021-05-16T10:15:21Z</time>
      </trkpt>
      <trkpt lat="41.3200390" lon="-8.7385320">
        <ele>6.1</ele>
        <time>2021-05-16T10:15:22Z</time>
      </trkpt>
      <trkpt lat="41.3200370" lon="-8.7385340">
        <ele>6.1</ele>
        <time>2021-05-16T10:15:23Z</time>
      </trkpt>
      <trkpt lat="41.3200350" lon="-8.7385360">
        <ele>6.1</ele>
        <time>2021-05-16T10:15:24Z</time>
      </trkpt>
      <trkpt lat="41.3200310" lon="-8.7385370">
        <ele>6.1</ele>
        <time>2021-05-16T10:15:25Z</time>
      </trkpt>
      <trkpt lat="41.3200340" lon="-8.7385370">
        <ele>6.1</ele>
        <time>2021-05-16T10:15:26Z</time>
      </trkpt>
      <trkpt lat="41.3200370" lon="-8.7385350">
        <ele>6.2</ele>
        <time>2021-05-16T10:15:27Z</time>
      </trkpt>
      <trkpt lat="41.3200400" lon="-8.7385340">
        <ele>6.2</ele>
        <time>2021-05-16T10:15:28Z</time>
      </trkpt>
      <trkpt lat="41.3200420" lon="-8.7385320">
        <ele>6.2</ele>
        <time>2021-05-16T10:15:29Z</time>
      </trkpt>
      <trkpt lat="41.3200450" lon="-8.7385300">
        <ele>6.2</ele>
        <time>2021-05-16T10:15:30Z</time>
      </trkpt>
      <trkpt lat="41.3200480" lon="-8.7385280">
        <ele>6.2</ele>
        <time>2021-05-16T10:15:31Z</time>
      </trkpt>
      <trkpt lat="41.3200510" lon="-8.7385260">
        <ele>6.2</ele>
        <time>2021-05-16T10:15:32Z</time>
      </trkpt>
      <trkpt lat="41.3200540" lon="-8.7385250">
        <ele>6.2</ele>
        <time>2021-05-16T10:15:33Z</time>
      </trkpt>
      <trkpt lat="41.3200570" lon="-8.7385230">
        <ele>6.2</ele>
        <time>2021-05-16T10:15:34Z</time>
      </trkpt>
      <trkpt lat="41.3200600" lon="-8.7385210">
        <ele>6.2</ele>
        <time>2021-05-16T10:15:35Z</time>
      </trkpt>
      <trkpt lat="41.3200630" lon="-8.7385190">
        <ele>6.2</ele>
        <time>2021-05-16T10:15:36Z</time>
      </trkpt>
      <trkpt lat="41.3200650" lon="-8.7385170">
        <ele>6.2</ele>
        <time>2021-05-16T10:15:37Z</time>
      </trkpt>
      <trkpt lat="41.3200680" lon="-8.7385160">
        <ele>6.2</ele>
        <time>2021-05-16T10:15:38Z</time>
      </trkpt>
      <trkpt lat="41.3200710" lon="-8.7385140">
        <ele>6.2</ele>
        <time>2021-05-16T10:15:39Z</time>
      </trkpt>
      <trkpt lat="41.3200740" lon="-8.7385120">
        <ele>6.2</ele>
        <time>2021-05-16T10:15:40Z</time>
      </trkpt>
      <trkpt lat="41.3200800" lon="-8.7385090">
        <ele>6.2</ele>
        <time>2021-05-16T10:15:41Z</time>
      </trkpt>
      <trkpt lat="41.3200890" lon="-8.7385040">
        <ele>6.3</ele>
        <time>2021-05-16T10:15:42Z</time>
      </trkpt>
      <trkpt lat="41.3201040" lon="-8.7384970">
        <ele>6.3</ele>
        <time>2021-05-16T10:15:43Z</time>
      </trkpt>
      <trkpt lat="41.3201260" lon="-8.7384890">
        <ele>6.3</ele>
        <time>2021-05-16T10:15:44Z</time>
      </trkpt>
      <trkpt lat="41.3201350" lon="-8.7384880">
        <ele>6.4</ele>
        <time>2021-05-16T10:15:45Z</time>
      </trkpt>
      <trkpt lat="41.3201470" lon="-8.7384910">
        <ele>6.4</ele>
        <time>2021-05-16T10:15:46Z</time>
      </trkpt>
      <trkpt lat="41.3201640" lon="-8.7384940">
        <ele>6.4</ele>
        <time>2021-05-16T10:15:47Z</time>
      </trkpt>
      <trkpt lat="41.3201810" lon="-8.7384940">
        <ele>6.5</ele>
        <time>2021-05-16T10:15:48Z</time>
      </trkpt>
      <trkpt lat="41.3201920" lon="-8.7384970">
        <ele>6.5</ele>
        <time>2021-05-16T10:15:49Z</time>
      </trkpt>
      <trkpt lat="41.3202150" lon="-8.7385030">
        <ele>6.6</ele>
        <time>2021-05-16T10:15:50Z</time>
      </trkpt>
      <trkpt lat="41.3202230" lon="-8.7385070">
        <ele>6.6</ele>
        <time>2021-05-16T10:15:51Z</time>
      </trkpt>
      <trkpt lat="41.3202320" lon="-8.7385100">
        <ele>6.6</ele>
        <time>2021-05-16T10:15:52Z</time>
      </trkpt>
      <trkpt lat="41.3202460" lon="-8.7385090">
        <ele>6.7</ele>
        <time>2021-05-16T10:15:53Z</time>
      </trkpt>
      <trkpt lat="41.3202600" lon="-8.7385100">
        <ele>6.7</ele>
        <time>2021-05-16T10:15:54Z</time>
      </trkpt>
      <trkpt lat="41.3202780" lon="-8.7385130">
        <ele>6.7</ele>
        <time>2021-05-16T10:15:55Z</time>
      </trkpt>
      <trkpt lat="41.3202950" lon="-8.7385140">
        <ele>6.8</ele>
        <time>2021-05-16T10:15:56Z</time>
      </trkpt>
      <trkpt lat="41.3203080" lon="-8.7385200">
        <ele>6.8</ele>
        <time>2021-05-16T10:15:57Z</time>
      </trkpt>
      <trkpt lat="41.3203250" lon="-8.7385220">
        <ele>6.9</ele>
        <time>2021-05-16T10:15:58Z</time>
      </trkpt>
      <trkpt lat="41.3203400" lon="-8.7385230">
        <ele>6.9</ele>
        <time>2021-05-16T10:15:59Z</time>
      </trkpt>
      <trkpt lat="41.3203570" lon="-8.7385210">
        <ele>7.0</ele>
        <time>2021-05-16T10:16:00Z</time>
      </trkpt>
      <trkpt lat="41.3203710" lon="-8.7385260">
        <ele>7.0</ele>
        <time>2021-05-16T10:16:01Z</time>
      </trkpt>
      <trkpt lat="41.3203850" lon="-8.7385270">
        <ele>7.1</ele>
        <time>2021-05-16T10:16:02Z</time>
      </trkpt>
      <trkpt lat="41.3204010" lon="-8.7385310">
        <ele>7.1</ele>
        <time>2021-05-16T10:16:03Z</time>
      </trkpt>
      <trkpt lat="41.3204160" lon="-8.7385300">
        <ele>7.2</ele>
        <time>2021-05-16T10:16:04Z</time>
      </trkpt>
      <trkpt lat="41.3204310" lon="-8.7385300">
        <ele>7.2</ele>
        <time>2021-05-16T10:16:05Z</time>
      </trkpt>
      <trkpt lat="41.3204430" lon="-8.7385370">
        <ele>7.2</ele>
        <time>2021-05-16T10:16:06Z</time>
      </trkpt>
      <trkpt lat="41.3204560" lon="-8.7385390">
        <ele>7.3</ele>
        <time>2021-05-16T10:16:07Z</time>
      </trkpt>
      <trkpt lat="41.3204720" lon="-8.7385400">
        <ele>7.3</ele>
        <time>2021-05-16T10:16:08Z</time>
      </trkpt>
      <trkpt lat="41.3204870" lon="-8.7385460">
        <ele>7.4</ele>
        <time>2021-05-16T10:16:09Z</time>
      </trkpt>
      <trkpt lat="41.3205030" lon="-8.7385410">
        <ele>7.4</ele>
        <time>2021-05-16T10:16:10Z</time>
      </trkpt>
      <trkpt lat="41.3205160" lon="-8.7385460">
        <ele>7.5</ele>
        <time>2021-05-16T10:16:11Z</time>
      </trkpt>
      <trkpt lat="41.3205280" lon="-8.7385540">
        <ele>7.5</ele>
        <time>2021-05-16T10:16:12Z</time>
      </trkpt>
      <trkpt lat="41.3205430" lon="-8.7385550">
        <ele>7.6</ele>
        <time>2021-05-16T10:16:13Z</time>
      </trkpt>
      <trkpt lat="41.3205570" lon="-8.7385570">
        <ele>7.6</ele>
        <time>2021-05-16T10:16:14Z</time>
      </trkpt>
      <trkpt lat="41.3205780" lon="-8.7385630">
        <ele>7.7</ele>
        <time>2021-05-16T10:16:15Z</time>
      </trkpt>
      <trkpt lat="41.3205870" lon="-8.7385640">
        <ele>7.7</ele>
        <time>2021-05-16T10:16:16Z</time>
      </trkpt>
      <trkpt lat="41.3205970" lon="-8.7385650">
        <ele>7.8</ele>
        <time>2021-05-16T10:16:17Z</time>
      </trkpt>
      <trkpt lat="41.3206100" lon="-8.7385670">
        <ele>7.8</ele>
        <time>2021-05-16T10:16:18Z</time>
      </trkpt>
      <trkpt lat="41.3206250" lon="-8.7385720">
        <ele>7.9</ele>
        <time>2021-05-16T10:16:19Z</time>
      </trkpt>
      <trkpt lat="41.3206390" lon="-8.7385760">
        <ele>7.9</ele>
        <time>2021-05-16T10:16:20Z</time>
      </trkpt>
      <trkpt lat="41.3206530" lon="-8.7385780">
        <ele>8.0</ele>
        <time>2021-05-16T10:16:21Z</time>
      </trkpt>
      <trkpt lat="41.3206690" lon="-8.7385730">
        <ele>8.0</ele>
        <time>2021-05-16T10:16:22Z</time>
      </trkpt>
      <trkpt lat="41.3206830" lon="-8.7385780">
        <ele>8.1</ele>
        <time>2021-05-16T10:16:23Z</time>
      </trkpt>
      <trkpt lat="41.3206970" lon="-8.7385830">
        <ele>8.1</ele>
        <time>2021-05-16T10:16:24Z</time>
      </trkpt>
      <trkpt lat="41.3207110" lon="-8.7385870">
        <ele>8.2</ele>
        <time>2021-05-16T10:16:25Z</time>
      </trkpt>
      <trkpt lat="41.3207250" lon="-8.7385860">
        <ele>8.2</ele>
        <time>2021-05-16T10:16:26Z</time>
      </trkpt>
      <trkpt lat="41.3207390" lon="-8.7385900">
        <ele>8.3</ele>
        <time>2021-05-16T10:16:27Z</time>
      </trkpt>
      <trkpt lat="41.3207630" lon="-8.7385880">
        <ele>8.4</ele>
        <time>2021-05-16T10:16:28Z</time>
      </trkpt>
      <trkpt lat="41.3207710" lon="-8.7385890">
        <ele>8.4</ele>
        <time>2021-05-16T10:16:29Z</time>
      </trkpt>
      <trkpt lat="41.3207800" lon="-8.7385900">
        <ele>8.4</ele>
        <time>2021-05-16T10:16:30Z</time>
      </trkpt>
      <trkpt lat="41.3207940" lon="-8.7385930">
        <ele>8.5</ele>
        <time>2021-05-16T10:16:31Z</time>
      </trkpt>
      <trkpt lat="41.3208090" lon="-8.7385950">
        <ele>8.5</ele>
        <time>2021-05-16T10:16:32Z</time>
      </trkpt>
      <trkpt lat="41.3208230" lon="-8.7385980">
        <ele>8.5</ele>
        <time>2021-05-16T10:16:33Z</time>
      </trkpt>
      <trkpt lat="41.3208380" lon="-8.7386030">
        <ele>8.6</ele>
        <time>2021-05-16T10:16:34Z</time>
      </trkpt>
      <trkpt lat="41.3208520" lon="-8.7386010">
        <ele>8.6</ele>
        <time>2021-05-16T10:16:35Z</time>
      </trkpt>
      <trkpt lat="41.3208660" lon="-8.7386030">
        <ele>8.6</ele>
        <time>2021-05-16T10:16:36Z</time>
      </trkpt>
      <trkpt lat="41.3208790" lon="-8.7385980">
        <ele>8.7</ele>
        <time>2021-05-16T10:16:37Z</time>
      </trkpt>
      <trkpt lat="41.3208940" lon="-8.7385960">
        <ele>8.7</ele>
        <time>2021-05-16T10:16:38Z</time>
      </trkpt>
      <trkpt lat="41.3209150" lon="-8.7385820">
        <ele>8.8</ele>
        <time>2021-05-16T10:16:39Z</time>
      </trkpt>
      <trkpt lat="41.3209230" lon="-8.7385760">
        <ele>8.8</ele>
        <time>2021-05-16T10:16:40Z</time>
      </trkpt>
      <trkpt lat="41.3209320" lon="-8.7385710">
        <ele>8.8</ele>
        <time>2021-05-16T10:16:41Z</time>
      </trkpt>
      <trkpt lat="41.3209530" lon="-8.7385620">
        <ele>8.8</ele>
        <time>2021-05-16T10:16:42Z</time>
      </trkpt>
      <trkpt lat="41.3209610" lon="-8.7385600">
        <ele>8.8</ele>
        <time>2021-05-16T10:16:43Z</time>
      </trkpt>
      <trkpt lat="41.3209700" lon="-8.7385570">
        <ele>8.8</ele>
        <time>2021-05-16T10:16:44Z</time>
      </trkpt>
      <trkpt lat="41.3209920" lon="-8.7385470">
        <ele>8.9</ele>
        <time>2021-05-16T10:16:45Z</time>
      </trkpt>
      <trkpt lat="41.3210010" lon="-8.7385430">
        <ele>8.9</ele>
        <time>2021-05-16T10:16:46Z</time>
      </trkpt>
      <trkpt lat="41.3210110" lon="-8.7385380">
        <ele>8.9</ele>
        <time>2021-05-16T10:16:47Z</time>
      </trkpt>
      <trkpt lat="41.3210160" lon="-8.7385430">
        <ele>8.9</ele>
        <time>2021-05-16T10:16:48Z</time>
      </trkpt>
      <trkpt lat="41.3210300" lon="-8.7385370">
        <ele>8.9</ele>
        <time>2021-05-16T10:16:49Z</time>
      </trkpt>
      <trkpt lat="41.3210410" lon="-8.7385360">
        <ele>8.9</ele>
        <time>2021-05-16T10:16:50Z</time>
      </trkpt>
      <trkpt lat="41.3210540" lon="-8.7385350">
        <ele>8.9</ele>
        <time>2021-05-16T10:16:51Z</time>
      </trkpt>
      <trkpt lat="41.3210590" lon="-8.7385310">
        <ele>8.9</ele>
        <time>2021-05-16T10:16:52Z</time>
      </trkpt>
      <trkpt lat="41.3210720" lon="-8.7385250">
        <ele>8.9</ele>
        <time>2021-05-16T10:16:53Z</time>
      </trkpt>
      <trkpt lat="41.3210790" lon="-8.7385250">
        <ele>8.9</ele>
        <time>2021-05-16T10:16:54Z</time>
      </trkpt>
      <trkpt lat="41.3211030" lon="-8.7385200">
        <ele>8.9</ele>
        <time>2021-05-16T10:16:55Z</time>
      </trkpt>
      <trkpt lat="41.3211140" lon="-8.7385140">
        <ele>8.9</ele>
        <time>2021-05-16T10:16:56Z</time>
      </trkpt>
      <trkpt lat="41.3211230" lon="-8.7385110">
        <ele>8.9</ele>
        <time>2021-05-16T10:16:57Z</time>
      </trkpt>
      <trkpt lat="41.3211310" lon="-8.7385090">
        <ele>8.8</ele>
        <time>2021-05-16T10:16:58Z</time>
      </trkpt>
      <trkpt lat="41.3211390" lon="-8.7385060">
        <ele>8.8</ele>
        <time>2021-05-16T10:16:59Z</time>
      </trkpt>
      <trkpt lat="41.3211530" lon="-8.7385010">
        <ele>8.8</ele>
        <time>2021-05-16T10:17:00Z</time>
      </trkpt>
      <trkpt lat="41.3211590" lon="-8.7385040">
        <ele>8.8</ele>
        <time>2021-05-16T10:17:01Z</time>
      </trkpt>
      <trkpt lat="41.3211750" lon="-8.7384980">
        <ele>8.8</ele>
        <time>2021-05-16T10:17:02Z</time>
      </trkpt>
      <trkpt lat="41.3211810" lon="-8.7384940">
        <ele>8.8</ele>
        <time>2021-05-16T10:17:03Z</time>
      </trkpt>
      <trkpt lat="41.3211950" lon="-8.7384940">
        <ele>8.8</ele>
        <time>2021-05-16T10:17:04Z</time>
      </trkpt>
      <trkpt lat="41.3212000" lon="-8.7384900">
        <ele>8.8</ele>
        <time>2021-05-16T10:17:05Z</time>
      </trkpt>
      <trkpt lat="41.3212070" lon="-8.7384890">
        <ele>8.8</ele>
        <time>2021-05-16T10:17:06Z</time>
      </trkpt>
      <trkpt lat="41.3212220" lon="-8.7384830">
        <ele>8.8</ele>
        <time>2021-05-16T10:17:07Z</time>
      </trkpt>
      <trkpt lat="41.3212320" lon="-8.7384810">
        <ele>8.8</ele>
        <time>2021-05-16T10:17:08Z</time>
      </trkpt>
      <trkpt lat="41.3212420" lon="-8.7384740">
        <ele>8.8</ele>
        <time>2021-05-16T10:17:09Z</time>
      </trkpt>
      <trkpt lat="41.3212600" lon="-8.7384670">
        <ele>8.8</ele>
        <time>2021-05-16T10:17:10Z</time>
      </trkpt>
      <trkpt lat="41.3212690" lon="-8.7384650">
        <ele>8.8</ele>
        <time>2021-05-16T10:17:11Z</time>
      </trkpt>
      <trkpt lat="41.3212770" lon="-8.7384620">
        <ele>8.8</ele>
        <time>2021-05-16T10:17:12Z</time>
      </trkpt>
      <trkpt lat="41.3212990" lon="-8.7384570">
        <ele>8.8</ele>
        <time>2021-05-16T10:17:13Z</time>
      </trkpt>
      <trkpt lat="41.3213090" lon="-8.7384550">
        <ele>8.8</ele>
        <time>2021-05-16T10:17:14Z</time>
      </trkpt>
      <trkpt lat="41.3213180" lon="-8.7384530">
        <ele>8.8</ele>
        <time>2021-05-16T10:17:15Z</time>
      </trkpt>
      <trkpt lat="41.3213240" lon="-8.7384490">
        <ele>8.8</ele>
        <time>2021-05-16T10:17:16Z</time>
      </trkpt>
      <trkpt lat="41.3213390" lon="-8.7384420">
        <ele>8.8</ele>
        <time>2021-05-16T10:17:17Z</time>
      </trkpt>
      <trkpt lat="41.3213490" lon="-8.7384390">
        <ele>8.8</ele>
        <time>2021-05-16T10:17:18Z</time>
      </trkpt>
      <trkpt lat="41.3213750" lon="-8.7384280">
        <ele>8.7</ele>
        <time>2021-05-16T10:17:19Z</time>
      </trkpt>
      <trkpt lat="41.3213820" lon="-8.7384270">
        <ele>8.7</ele>
        <time>2021-05-16T10:17:20Z</time>
      </trkpt>
      <trkpt lat="41.3213890" lon="-8.7384250">
        <ele>8.7</ele>
        <time>2021-05-16T10:17:21Z</time>
      </trkpt>
      <trkpt lat="41.3214130" lon="-8.7384130">
        <ele>8.7</ele>
        <time>2021-05-16T10:17:22Z</time>
      </trkpt>
      <trkpt lat="41.3214190" lon="-8.7384100">
        <ele>8.7</ele>
        <time>2021-05-16T10:17:23Z</time>
      </trkpt>
      <trkpt lat="41.3214260" lon="-8.7384080">
        <ele>8.7</ele>
        <time>2021-05-16T10:17:24Z</time>
      </trkpt>
      <trkpt lat="41.3214500" lon="-8.7384000">
        <ele>8.7</ele>
        <time>2021-05-16T10:17:25Z</time>
      </trkpt>
      <trkpt lat="41.3214560" lon="-8.7383980">
        <ele>8.7</ele>
        <time>2021-05-16T10:17:26Z</time>
      </trkpt>
      <trkpt lat="41.3214630" lon="-8.7383960">
        <ele>8.7</ele>
        <time>2021-05-16T10:17:27Z</time>
      </trkpt>
      <trkpt lat="41.3214800" lon="-8.7383950">
        <ele>8.7</ele>
        <time>2021-05-16T10:17:28Z</time>
      </trkpt>
      <trkpt lat="41.3214950" lon="-8.7383920">
        <ele>8.6</ele>
        <time>2021-05-16T10:17:29Z</time>
      </trkpt>
      <trkpt lat="41.3215130" lon="-8.7383880">
        <ele>8.6</ele>
        <time>2021-05-16T10:17:30Z</time>
      </trkpt>
      <trkpt lat="41.3215280" lon="-8.7383860">
        <ele>8.6</ele>
        <time>2021-05-16T10:17:31Z</time>
      </trkpt>
      <trkpt lat="41.3215440" lon="-8.7383810">
        <ele>8.6</ele>
        <time>2021-05-16T10:17:32Z</time>
      </trkpt>
      <trkpt lat="41.3215560" lon="-8.7383730">
        <ele>8.6</ele>
        <time>2021-05-16T10:17:33Z</time>
      </trkpt>
      <trkpt lat="41.3215730" lon="-8.7383680">
        <ele>8.6</ele>
        <time>2021-05-16T10:17:34Z</time>
      </trkpt>
      <trkpt lat="41.3215900" lon="-8.7383640">
        <ele>8.6</ele>
        <time>2021-05-16T10:17:35Z</time>
      </trkpt>
      <trkpt lat="41.3216030" lon="-8.7383590">
        <ele>8.6</ele>
        <time>2021-05-16T10:17:36Z</time>
      </trkpt>
      <trkpt lat="41.3216190" lon="-8.7383540">
        <ele>8.6</ele>
        <time>2021-05-16T10:17:37Z</time>
      </trkpt>
      <trkpt lat="41.3216330" lon="-8.7383490">
        <ele>8.6</ele>
        <time>2021-05-16T10:17:38Z</time>
      </trkpt>
      <trkpt lat="41.3216470" lon="-8.7383490">
        <ele>8.6</ele>
        <time>2021-05-16T10:17:39Z</time>
      </trkpt>
      <trkpt lat="41.3216610" lon="-8.7383450">
        <ele>8.6</ele>
        <time>2021-05-16T10:17:40Z</time>
      </trkpt>
      <trkpt lat="41.3216760" lon="-8.7383430">
        <ele>8.6</ele>
        <time>2021-05-16T10:17:41Z</time>
      </trkpt>
      <trkpt lat="41.3216900" lon="-8.7383440">
        <ele>8.6</ele>
        <time>2021-05-16T10:17:42Z</time>
      </trkpt>
      <trkpt lat="41.3217050" lon="-8.7383420">
        <ele>8.6</ele>
        <time>2021-05-16T10:17:43Z</time>
      </trkpt>
      <trkpt lat="41.3217270" lon="-8.7383380">
        <ele>8.5</ele>
        <time>2021-05-16T10:17:44Z</time>
      </trkpt>
      <trkpt lat="41.3217350" lon="-8.7383360">
        <ele>8.5</ele>
        <time>2021-05-16T10:17:45Z</time>
      </trkpt>
      <trkpt lat="41.3217440" lon="-8.7383350">
        <ele>8.5</ele>
        <time>2021-05-16T10:17:46Z</time>
      </trkpt>
      <trkpt lat="41.3217640" lon="-8.7383310">
        <ele>8.5</ele>
        <time>2021-05-16T10:17:47Z</time>
      </trkpt>
      <trkpt lat="41.3217730" lon="-8.7383290">
        <ele>8.5</ele>
        <time>2021-05-16T10:17:48Z</time>
      </trkpt>
      <trkpt lat="41.3217820" lon="-8.7383280">
        <ele>8.5</ele>
        <time>2021-05-16T10:17:49Z</time>
      </trkpt>
      <trkpt lat="41.3218040" lon="-8.7383250">
        <ele>8.5</ele>
        <time>2021-05-16T10:17:50Z</time>
      </trkpt>
      <trkpt lat="41.3218110" lon="-8.7383230">
        <ele>8.4</ele>
        <time>2021-05-16T10:17:51Z</time>
      </trkpt>
      <trkpt lat="41.3218190" lon="-8.7383210">
        <ele>8.4</ele>
        <time>2021-05-16T10:17:52Z</time>
      </trkpt>
      <trkpt lat="41.3218320" lon="-8.7383170">
        <ele>8.4</ele>
        <time>2021-05-16T10:17:53Z</time>
      </trkpt>
      <trkpt lat="41.3218460" lon="-8.7383160">
        <ele>8.4</ele>
        <time>2021-05-16T10:17:54Z</time>
      </trkpt>
      <trkpt lat="41.3218580" lon="-8.7383170">
        <ele>8.4</ele>
        <time>2021-05-16T10:17:55Z</time>
      </trkpt>
      <trkpt lat="41.3218710" lon="-8.7383130">
        <ele>8.3</ele>
        <time>2021-05-16T10:17:56Z</time>
      </trkpt>
      <trkpt lat="41.3218800" lon="-8.7383060">
        <ele>8.3</ele>
        <time>2021-05-16T10:17:57Z</time>
      </trkpt>
      <trkpt lat="41.3218940" lon="-8.7383050">
        <ele>8.3</ele>
        <time>2021-05-16T10:17:58Z</time>
      </trkpt>
      <trkpt lat="41.3219070" lon="-8.7383070">
        <ele>8.2</ele>
        <time>2021-05-16T10:17:59Z</time>
      </trkpt>
      <trkpt lat="41.3219210" lon="-8.7383080">
        <ele>8.2</ele>
        <time>2021-05-16T10:18:00Z</time>
      </trkpt>
      <trkpt lat="41.3219310" lon="-8.7383050">
        <ele>8.2</ele>
        <time>2021-05-16T10:18:01Z</time>
      </trkpt>
      <trkpt lat="41.3219420" lon="-8.7383040">
        <ele>8.1</ele>
        <time>2021-05-16T10:18:02Z</time>
      </trkpt>
      <trkpt lat="41.3219640" lon="-8.7382980">
        <ele>8.1</ele>
        <time>2021-05-16T10:18:03Z</time>
      </trkpt>
      <trkpt lat="41.3219730" lon="-8.7382980">
        <ele>8.1</ele>
        <time>2021-05-16T10:18:04Z</time>
      </trkpt>
      <trkpt lat="41.3219820" lon="-8.7382970">
        <ele>8.0</ele>
        <time>2021-05-16T10:18:05Z</time>
      </trkpt>
      <trkpt lat="41.3219960" lon="-8.7382960">
        <ele>8.0</ele>
        <time>2021-05-16T10:18:06Z</time>
      </trkpt>
      <trkpt lat="41.3220110" lon="-8.7382950">
        <ele>8.0</ele>
        <time>2021-05-16T10:18:07Z</time>
      </trkpt>
      <trkpt lat="41.3220270" lon="-8.7382910">
        <ele>7.9</ele>
        <time>2021-05-16T10:18:08Z</time>
      </trkpt>
      <trkpt lat="41.3220390" lon="-8.7382890">
        <ele>7.9</ele>
        <time>2021-05-16T10:18:09Z</time>
      </trkpt>
      <trkpt lat="41.3220540" lon="-8.7382860">
        <ele>7.8</ele>
        <time>2021-05-16T10:18:10Z</time>
      </trkpt>
      <trkpt lat="41.3220680" lon="-8.7382870">
        <ele>7.8</ele>
        <time>2021-05-16T10:18:11Z</time>
      </trkpt>
      <trkpt lat="41.3220840" lon="-8.7382810">
        <ele>7.7</ele>
        <time>2021-05-16T10:18:12Z</time>
      </trkpt>
      <trkpt lat="41.3220960" lon="-8.7382770">
        <ele>7.7</ele>
        <time>2021-05-16T10:18:13Z</time>
      </trkpt>
      <trkpt lat="41.3221110" lon="-8.7382790">
        <ele>7.7</ele>
        <time>2021-05-16T10:18:14Z</time>
      </trkpt>
      <trkpt lat="41.3221260" lon="-8.7382780">
        <ele>7.6</ele>
        <time>2021-05-16T10:18:15Z</time>
      </trkpt>
      <trkpt lat="41.3221380" lon="-8.7382760">
        <ele>7.6</ele>
        <time>2021-05-16T10:18:16Z</time>
      </trkpt>
      <trkpt lat="41.3221530" lon="-8.7382770">
        <ele>7.5</ele>
        <time>2021-05-16T10:18:17Z</time>
      </trkpt>
      <trkpt lat="41.3221760" lon="-8.7382780">
        <ele>7.5</ele>
        <time>2021-05-16T10:18:18Z</time>
      </trkpt>
      <trkpt lat="41.3221850" lon="-8.7382800">
        <ele>7.5</ele>
        <time>2021-05-16T10:18:19Z</time>
      </trkpt>
      <trkpt lat="41.3221940" lon="-8.7382820">
        <ele>7.4</ele>
        <time>2021-05-16T10:18:20Z</time>
      </trkpt>
      <trkpt lat="41.3222020" lon="-8.7382790">
        <ele>7.4</ele>
        <time>2021-05-16T10:18:21Z</time>
      </trkpt>
      <trkpt lat="41.3222130" lon="-8.7382760">
        <ele>7.4</ele>
        <time>2021-05-16T10:18:22Z</time>
      </trkpt>
      <trkpt lat="41.3222250" lon="-8.7382740">
        <ele>7.4</ele>
        <time>2021-05-16T10:18:23Z</time>
      </trkpt>
      <trkpt lat="41.3222300" lon="-8.7382750">
        <ele>7.3</ele>
        <time>2021-05-16T10:18:24Z</time>
      </trkpt>
      <trkpt lat="41.3222390" lon="-8.7382790">
        <ele>7.3</ele>
        <time>2021-05-16T10:18:25Z</time>
      </trkpt>
      <trkpt lat="41.3222450" lon="-8.7382770">
        <ele>7.3</ele>
        <time>2021-05-16T10:18:26Z</time>
      </trkpt>
      <trkpt lat="41.3222580" lon="-8.7382740">
        <ele>7.3</ele>
        <time>2021-05-16T10:18:27Z</time>
      </trkpt>
      <trkpt lat="41.3222700" lon="-8.7382680">
        <ele>7.2</ele>
        <time>2021-05-16T10:18:28Z</time>
      </trkpt>
      <trkpt lat="41.3222780" lon="-8.7382670">
        <ele>7.2</ele>
        <time>2021-05-16T10:18:29Z</time>
      </trkpt>
      <trkpt lat="41.3222910" lon="-8.7382640">
        <ele>7.2</ele>
        <time>2021-05-16T10:18:30Z</time>
      </trkpt>
      <trkpt lat="41.3222990" lon="-8.7382670">
        <ele>7.2</ele>
        <time>2021-05-16T10:18:31Z</time>
      </trkpt>
      <trkpt lat="41.3223120" lon="-8.7382630">
        <ele>7.1</ele>
        <time>2021-05-16T10:18:32Z</time>
      </trkpt>
      <trkpt lat="41.3223200" lon="-8.7382630">
        <ele>7.1</ele>
        <time>2021-05-16T10:18:33Z</time>
      </trkpt>
      <trkpt lat="41.3223270" lon="-8.7382600">
        <ele>7.1</ele>
        <time>2021-05-16T10:18:34Z</time>
      </trkpt>
      <trkpt lat="41.3223410" lon="-8.7382580">
        <ele>7.1</ele>
        <time>2021-05-16T10:18:35Z</time>
      </trkpt>
      <trkpt lat="41.3223500" lon="-8.7382590">
        <ele>7.1</ele>
        <time>2021-05-16T10:18:36Z</time>
      </trkpt>
      <trkpt lat="41.3223650" lon="-8.7382520">
        <ele>7.0</ele>
        <time>2021-05-16T10:18:37Z</time>
      </trkpt>
      <trkpt lat="41.3223770" lon="-8.7382550">
        <ele>7.0</ele>
        <time>2021-05-16T10:18:38Z</time>
      </trkpt>
      <trkpt lat="41.3223910" lon="-8.7382500">
        <ele>7.0</ele>
        <time>2021-05-16T10:18:39Z</time>
      </trkpt>
      <trkpt lat="41.3223970" lon="-8.7382520">
        <ele>7.0</ele>
        <time>2021-05-16T10:18:40Z</time>
      </trkpt>
      <trkpt lat="41.3224050" lon="-8.7382480">
        <ele>6.9</ele>
        <time>2021-05-16T10:18:41Z</time>
      </trkpt>
      <trkpt lat="41.3224270" lon="-8.7382450">
        <ele>6.9</ele>
        <time>2021-05-16T10:18:42Z</time>
      </trkpt>
      <trkpt lat="41.3224350" lon="-8.7382450">
        <ele>6.9</ele>
        <time>2021-05-16T10:18:43Z</time>
      </trkpt>
      <trkpt lat="41.3224440" lon="-8.7382450">
        <ele>6.9</ele>
        <time>2021-05-16T10:18:44Z</time>
      </trkpt>
      <trkpt lat="41.3224550" lon="-8.7382450">
        <ele>6.8</ele>
        <time>2021-05-16T10:18:45Z</time>
      </trkpt>
      <trkpt lat="41.3224720" lon="-8.7382420">
        <ele>6.8</ele>
        <time>2021-05-16T10:18:46Z</time>
      </trkpt>
      <trkpt lat="41.3224870" lon="-8.7382420">
        <ele>6.8</ele>
        <time>2021-05-16T10:18:47Z</time>
      </trkpt>
      <trkpt lat="41.3225010" lon="-8.7382350">
        <ele>6.7</ele>
        <time>2021-05-16T10:18:48Z</time>
      </trkpt>
      <trkpt lat="41.3225160" lon="-8.7382310">
        <ele>6.7</ele>
        <time>2021-05-16T10:18:49Z</time>
      </trkpt>
      <trkpt lat="41.3225310" lon="-8.7382280">
        <ele>6.7</ele>
        <time>2021-05-16T10:18:50Z</time>
      </trkpt>
      <trkpt lat="41.3225540" lon="-8.7382230">
        <ele>6.6</ele>
        <time>2021-05-16T10:18:51Z</time>
      </trkpt>
      <trkpt lat="41.3225620" lon="-8.7382190">
        <ele>6.6</ele>
        <time>2021-05-16T10:18:52Z</time>
      </trkpt>
      <trkpt lat="41.3225710" lon="-8.7382160">
        <ele>6.6</ele>
        <time>2021-05-16T10:18:53Z</time>
      </trkpt>
      <trkpt lat="41.3225850" lon="-8.7382110">
        <ele>6.6</ele>
        <time>2021-05-16T10:18:54Z</time>
      </trkpt>
      <trkpt lat="41.3225990" lon="-8.7382060">
        <ele>6.5</ele>
        <time>2021-05-16T10:18:55Z</time>
      </trkpt>
      <trkpt lat="41.3226220" lon="-8.7381970">
        <ele>6.5</ele>
        <time>2021-05-16T10:18:56Z</time>
      </trkpt>
      <trkpt lat="41.3226300" lon="-8.7381930">
        <ele>6.5</ele>
        <time>2021-05-16T10:18:57Z</time>
      </trkpt>
      <trkpt lat="41.3226390" lon="-8.7381880">
        <ele>6.5</ele>
        <time>2021-05-16T10:18:58Z</time>
      </trkpt>
      <trkpt lat="41.3226550" lon="-8.7381870">
        <ele>6.4</ele>
        <time>2021-05-16T10:18:59Z</time>
      </trkpt>
      <trkpt lat="41.3226700" lon="-8.7381840">
        <ele>6.4</ele>
        <time>2021-05-16T10:19:00Z</time>
      </trkpt>
      <trkpt lat="41.3226820" lon="-8.7381800">
        <ele>6.4</ele>
        <time>2021-05-16T10:19:01Z</time>
      </trkpt>
      <trkpt lat="41.3226980" lon="-8.7381850">
        <ele>6.4</ele>
        <time>2021-05-16T10:19:02Z</time>
      </trkpt>
      <trkpt lat="41.3227120" lon="-8.7381770">
        <ele>6.3</ele>
        <time>2021-05-16T10:19:03Z</time>
      </trkpt>
      <trkpt lat="41.3227260" lon="-8.7381790">
        <ele>6.3</ele>
        <time>2021-05-16T10:19:04Z</time>
      </trkpt>
      <trkpt lat="41.3227390" lon="-8.7381750">
        <ele>6.3</ele>
        <time>2021-05-16T10:19:05Z</time>
      </trkpt>
      <trkpt lat="41.3227530" lon="-8.7381720">
        <ele>6.3</ele>
        <time>2021-05-16T10:19:06Z</time>
      </trkpt>
      <trkpt lat="41.3227670" lon="-8.7381720">
        <ele>6.3</ele>
        <time>2021-05-16T10:19:07Z</time>
      </trkpt>
      <trkpt lat="41.3227820" lon="-8.7381730">
        <ele>6.2</ele>
        <time>2021-05-16T10:19:08Z</time>
      </trkpt>
      <trkpt lat="41.3227970" lon="-8.7381680">
        <ele>6.2</ele>
        <time>2021-05-16T10:19:09Z</time>
      </trkpt>
      <trkpt lat="41.3228110" lon="-8.7381650">
        <ele>6.2</ele>
        <time>2021-05-16T10:19:10Z</time>
      </trkpt>
      <trkpt lat="41.3228340" lon="-8.7381600">
        <ele>6.1</ele>
        <time>2021-05-16T10:19:11Z</time>
      </trkpt>
      <trkpt lat="41.3228420" lon="-8.7381560">
        <ele>6.1</ele>
        <time>2021-05-16T10:19:12Z</time>
      </trkpt>
      <trkpt lat="41.3228510" lon="-8.7381530">
        <ele>6.1</ele>
        <time>2021-05-16T10:19:13Z</time>
      </trkpt>
      <trkpt lat="41.3228670" lon="-8.7381540">
        <ele>6.1</ele>
        <time>2021-05-16T10:19:14Z</time>
      </trkpt>
      <trkpt lat="41.3228800" lon="-8.7381480">
        <ele>6.1</ele>
        <time>2021-05-16T10:19:15Z</time>
      </trkpt>
      <trkpt lat="41.3229030" lon="-8.7381480">
        <ele>6.1</ele>
        <time>2021-05-16T10:19:16Z</time>
      </trkpt>
      <trkpt lat="41.3229130" lon="-8.7381470">
        <ele>6.0</ele>
        <time>2021-05-16T10:19:17Z</time>
      </trkpt>
      <trkpt lat="41.3229220" lon="-8.7381460">
        <ele>6.0</ele>
        <time>2021-05-16T10:19:18Z</time>
      </trkpt>
      <trkpt lat="41.3229420" lon="-8.7381460">
        <ele>6.0</ele>
        <time>2021-05-16T10:19:19Z</time>
      </trkpt>
      <trkpt lat="41.3229520" lon="-8.7381450">
        <ele>6.0</ele>
        <time>2021-05-16T10:19:20Z</time>
      </trkpt>
      <trkpt lat="41.3229610" lon="-8.7381450">
        <ele>6.0</ele>
        <time>2021-05-16T10:19:21Z</time>
      </trkpt>
      <trkpt lat="41.3229750" lon="-8.7381470">
        <ele>6.0</ele>
        <time>2021-05-16T10:19:22Z</time>
      </trkpt>
      <trkpt lat="41.3229880" lon="-8.7381490">
        <ele>6.0</ele>
        <time>2021-05-16T10:19:23Z</time>
      </trkpt>
      <trkpt lat="41.3230020" lon="-8.7381480">
        <ele>6.0</ele>
        <time>2021-05-16T10:19:24Z</time>
      </trkpt>
      <trkpt lat="41.3230170" lon="-8.7381470">
        <ele>6.0</ele>
        <time>2021-05-16T10:19:25Z</time>
      </trkpt>
      <trkpt lat="41.3230400" lon="-8.7381520">
        <ele>5.9</ele>
        <time>2021-05-16T10:19:26Z</time>
      </trkpt>
      <trkpt lat="41.3230490" lon="-8.7381530">
        <ele>5.9</ele>
        <time>2021-05-16T10:19:27Z</time>
      </trkpt>
      <trkpt lat="41.3230580" lon="-8.7381530">
        <ele>5.9</ele>
        <time>2021-05-16T10:19:28Z</time>
      </trkpt>
      <trkpt lat="41.3230710" lon="-8.7381570">
        <ele>5.9</ele>
        <time>2021-05-16T10:19:29Z</time>
      </trkpt>
      <trkpt lat="41.3230850" lon="-8.7381650">
        <ele>5.9</ele>
        <time>2021-05-16T10:19:30Z</time>
      </trkpt>
      <trkpt lat="41.3230960" lon="-8.7381640">
        <ele>5.9</ele>
        <time>2021-05-16T10:19:31Z</time>
      </trkpt>
      <trkpt lat="41.3231090" lon="-8.7381620">
        <ele>5.9</ele>
        <time>2021-05-16T10:19:32Z</time>
      </trkpt>
      <trkpt lat="41.3231200" lon="-8.7381600">
        <ele>5.9</ele>
        <time>2021-05-16T10:19:33Z</time>
      </trkpt>
      <trkpt lat="41.3231310" lon="-8.7381600">
        <ele>5.9</ele>
        <time>2021-05-16T10:19:34Z</time>
      </trkpt>
      <trkpt lat="41.3231430" lon="-8.7381570">
        <ele>5.9</ele>
        <time>2021-05-16T10:19:35Z</time>
      </trkpt>
      <trkpt lat="41.3231550" lon="-8.7381510">
        <ele>5.9</ele>
        <time>2021-05-16T10:19:36Z</time>
      </trkpt>
      <trkpt lat="41.3231670" lon="-8.7381540">
        <ele>5.9</ele>
        <time>2021-05-16T10:19:37Z</time>
      </trkpt>
      <trkpt lat="41.3231800" lon="-8.7381520">
        <ele>5.8</ele>
        <time>2021-05-16T10:19:38Z</time>
      </trkpt>
      <trkpt lat="41.3231900" lon="-8.7381510">
        <ele>5.8</ele>
        <time>2021-05-16T10:19:39Z</time>
      </trkpt>
      <trkpt lat="41.3232010" lon="-8.7381530">
        <ele>5.8</ele>
        <time>2021-05-16T10:19:40Z</time>
      </trkpt>
      <trkpt lat="41.3232100" lon="-8.7381550">
        <ele>5.8</ele>
        <time>2021-05-16T10:19:41Z</time>
      </trkpt>
      <trkpt lat="41.3232160" lon="-8.7381570">
        <ele>5.8</ele>
        <time>2021-05-16T10:19:42Z</time>
      </trkpt>
      <trkpt lat="41.3232210" lon="-8.7381620">
        <ele>5.8</ele>
        <time>2021-05-16T10:19:43Z</time>
      </trkpt>
      <trkpt lat="41.3232280" lon="-8.7381710">
        <ele>5.8</ele>
        <time>2021-05-16T10:19:44Z</time>
      </trkpt>
      <trkpt lat="41.3232350" lon="-8.7381770">
        <ele>5.8</ele>
        <time>2021-05-16T10:19:45Z</time>
      </trkpt>
      <trkpt lat="41.3232410" lon="-8.7381790">
        <ele>5.8</ele>
        <time>2021-05-16T10:19:46Z</time>
      </trkpt>
      <trkpt lat="41.3232450" lon="-8.7381800">
        <ele>5.8</ele>
        <time>2021-05-16T10:19:47Z</time>
      </trkpt>
      <trkpt lat="41.3232400" lon="-8.7381870">
        <ele>5.8</ele>
        <time>2021-05-16T10:19:48Z</time>
      </trkpt>
      <trkpt lat="41.3232440" lon="-8.7381890">
        <ele>5.8</ele>
        <time>2021-05-16T10:19:49Z</time>
      </trkpt>
      <trkpt lat="41.3232420" lon="-8.7381880">
        <ele>5.8</ele>
        <time>2021-05-16T10:19:50Z</time>
      </trkpt>
      <trkpt lat="41.3232440" lon="-8.7381880">
        <ele>5.8</ele>
        <time>2021-05-16T10:19:51Z</time>
      </trkpt>
      <trkpt lat="41.3232470" lon="-8.7381970">
        <ele>5.8</ele>
        <time>2021-05-16T10:19:52Z</time>
      </trkpt>
      <trkpt lat="41.3232480" lon="-8.7382110">
        <ele>5.8</ele>
        <time>2021-05-16T10:19:53Z</time>
      </trkpt>
      <trkpt lat="41.3232460" lon="-8.7382160">
        <ele>5.8</ele>
        <time>2021-05-16T10:19:54Z</time>
      </trkpt>
      <trkpt lat="41.3232490" lon="-8.7382260">
        <ele>5.8</ele>
        <time>2021-05-16T10:19:55Z</time>
      </trkpt>
      <trkpt lat="41.3232490" lon="-8.7382330">
        <ele>5.8</ele>
        <time>2021-05-16T10:19:56Z</time>
      </trkpt>
      <trkpt lat="41.3232460" lon="-8.7382430">
        <ele>5.8</ele>
        <time>2021-05-16T10:19:57Z</time>
      </trkpt>
      <trkpt lat="41.3232440" lon="-8.7382520">
        <ele>5.8</ele>
        <time>2021-05-16T10:19:58Z</time>
      </trkpt>
      <trkpt lat="41.3232460" lon="-8.7382620">
        <ele>5.8</ele>
        <time>2021-05-16T10:19:59Z</time>
      </trkpt>
      <trkpt lat="41.3232470" lon="-8.7382690">
        <ele>5.8</ele>
        <time>2021-05-16T10:20:00Z</time>
      </trkpt>
      <trkpt lat="41.3232520" lon="-8.7382770">
        <ele>5.8</ele>
        <time>2021-05-16T10:20:01Z</time>
      </trkpt>
      <trkpt lat="41.3232600" lon="-8.7382950">
        <ele>5.8</ele>
        <time>2021-05-16T10:20:02Z</time>
      </trkpt>
      <trkpt lat="41.3232660" lon="-8.7383010">
        <ele>5.8</ele>
        <time>2021-05-16T10:20:03Z</time>
      </trkpt>
      <trkpt lat="41.3232700" lon="-8.7383050">
        <ele>5.8</ele>
        <time>2021-05-16T10:20:04Z</time>
      </trkpt>
      <trkpt lat="41.3232780" lon="-8.7383080">
        <ele>5.8</ele>
        <time>2021-05-16T10:20:05Z</time>
      </trkpt>
      <trkpt lat="41.3232890" lon="-8.7383160">
        <ele>5.8</ele>
        <time>2021-05-16T10:20:06Z</time>
      </trkpt>
      <trkpt lat="41.3232960" lon="-8.7383170">
        <ele>5.8</ele>
        <time>2021-05-16T10:20:07Z</time>
      </trkpt>
      <trkpt lat="41.3232990" lon="-8.7383180">
        <ele>5.8</ele>
        <time>2021-05-16T10:20:08Z</time>
      </trkpt>
      <trkpt lat="41.3233040" lon="-8.7383180">
        <ele>5.8</ele>
        <time>2021-05-16T10:20:09Z</time>
      </trkpt>
      <trkpt lat="41.3233000" lon="-8.7383160">
        <ele>5.8</ele>
        <time>2021-05-16T10:20:10Z</time>
      </trkpt>
      <trkpt lat="41.3232970" lon="-8.7383170">
        <ele>5.8</ele>
        <time>2021-05-16T10:20:11Z</time>
      </trkpt>
      <trkpt lat="41.3232950" lon="-8.7383150">
        <ele>5.8</ele>
        <time>2021-05-16T10:20:12Z</time>
      </trkpt>
      <trkpt lat="41.3232900" lon="-8.7383060">
        <ele>5.8</ele>
        <time>2021-05-16T10:20:13Z</time>
      </trkpt>
      <trkpt lat="41.3232890" lon="-8.7383010">
        <ele>5.8</ele>
        <time>2021-05-16T10:20:14Z</time>
      </trkpt>
      <trkpt lat="41.3232810" lon="-8.7382970">
        <ele>5.8</ele>
        <time>2021-05-16T10:20:15Z</time>
      </trkpt>
      <trkpt lat="41.3232700" lon="-8.7382780">
        <ele>5.8</ele>
        <time>2021-05-16T10:20:16Z</time>
      </trkpt>
      <trkpt lat="41.3232650" lon="-8.7382700">
        <ele>5.9</ele>
        <time>2021-05-16T10:20:17Z</time>
      </trkpt>
      <trkpt lat="41.3232620" lon="-8.7382530">
        <ele>5.9</ele>
        <time>2021-05-16T10:20:18Z</time>
      </trkpt>
      <trkpt lat="41.3232690" lon="-8.7382390">
        <ele>5.9</ele>
        <time>2021-05-16T10:20:19Z</time>
      </trkpt>
      <trkpt lat="41.3232770" lon="-8.7382290">
        <ele>5.9</ele>
        <time>2021-05-16T10:20:20Z</time>
      </trkpt>
      <trkpt lat="41.3232840" lon="-8.7382150">
        <ele>5.9</ele>
        <time>2021-05-16T10:20:21Z</time>
      </trkpt>
      <trkpt lat="41.3232880" lon="-8.7382140">
        <ele>5.9</ele>
        <time>2021-05-16T10:20:22Z</time>
      </trkpt>
      <trkpt lat="41.3232910" lon="-8.7382100">
        <ele>5.9</ele>
        <time>2021-05-16T10:20:23Z</time>
      </trkpt>
      <trkpt lat="41.3232980" lon="-8.7382030">
        <ele>5.9</ele>
        <time>2021-05-16T10:20:24Z</time>
      </trkpt>
      <trkpt lat="41.3233020" lon="-8.7382000">
        <ele>5.9</ele>
        <time>2021-05-16T10:20:25Z</time>
      </trkpt>
      <trkpt lat="41.3232990" lon="-8.7382020">
        <ele>5.9</ele>
        <time>2021-05-16T10:20:26Z</time>
      </trkpt>
      <trkpt lat="41.3233090" lon="-8.7381790">
        <ele>5.9</ele>
        <time>2021-05-16T10:20:27Z</time>
      </trkpt>
      <trkpt lat="41.3233130" lon="-8.7381660">
        <ele>5.9</ele>
        <time>2021-05-16T10:20:28Z</time>
      </trkpt>
      <trkpt lat="41.3233220" lon="-8.7381460">
        <ele>5.9</ele>
        <time>2021-05-16T10:20:29Z</time>
      </trkpt>
      <trkpt lat="41.3233330" lon="-8.7381380">
        <ele>5.9</ele>
        <time>2021-05-16T10:20:30Z</time>
      </trkpt>
      <trkpt lat="41.3233450" lon="-8.7381270">
        <ele>5.9</ele>
        <time>2021-05-16T10:20:31Z</time>
      </trkpt>
      <trkpt lat="41.3233620" lon="-8.7381190">
        <ele>6.0</ele>
        <time>2021-05-16T10:20:32Z</time>
      </trkpt>
      <trkpt lat="41.3233740" lon="-8.7381070">
        <ele>6.0</ele>
        <time>2021-05-16T10:20:33Z</time>
      </trkpt>
      <trkpt lat="41.3233920" lon="-8.7380850">
        <ele>6.0</ele>
        <time>2021-05-16T10:20:34Z</time>
      </trkpt>
      <trkpt lat="41.3233980" lon="-8.7380810">
        <ele>6.0</ele>
        <time>2021-05-16T10:20:35Z</time>
      </trkpt>
      <trkpt lat="41.3234040" lon="-8.7380760">
        <ele>6.0</ele>
        <time>2021-05-16T10:20:36Z</time>
      </trkpt>
      <trkpt lat="41.3234140" lon="-8.7380640">
        <ele>6.0</ele>
        <time>2021-05-16T10:20:37Z</time>
      </trkpt>
      <trkpt lat="41.3234240" lon="-8.7380540">
        <ele>6.0</ele>
        <time>2021-05-16T10:20:38Z</time>
      </trkpt>
      <trkpt lat="41.3234320" lon="-8.7380470">
        <ele>6.0</ele>
        <time>2021-05-16T10:20:39Z</time>
      </trkpt>
      <trkpt lat="41.3234450" lon="-8.7380370">
        <ele>6.0</ele>
        <time>2021-05-16T10:20:40Z</time>
      </trkpt>
      <trkpt lat="41.3234570" lon="-8.7380210">
        <ele>6.0</ele>
        <time>2021-05-16T10:20:41Z</time>
      </trkpt>
      <trkpt lat="41.3234660" lon="-8.7380080">
        <ele>6.1</ele>
        <time>2021-05-16T10:20:42Z</time>
      </trkpt>
      <trkpt lat="41.3234800" lon="-8.7379940">
        <ele>6.1</ele>
        <time>2021-05-16T10:20:43Z</time>
      </trkpt>
      <trkpt lat="41.3234910" lon="-8.7379750">
        <ele>6.1</ele>
        <time>2021-05-16T10:20:44Z</time>
      </trkpt>
      <trkpt lat="41.3235020" lon="-8.7379630">
        <ele>6.1</ele>
        <time>2021-05-16T10:20:45Z</time>
      </trkpt>
      <trkpt lat="41.3235120" lon="-8.7379490">
        <ele>6.1</ele>
        <time>2021-05-16T10:20:46Z</time>
      </trkpt>
      <trkpt lat="41.3235190" lon="-8.7379290">
        <ele>6.1</ele>
        <time>2021-05-16T10:20:47Z</time>
      </trkpt>
      <trkpt lat="41.3235310" lon="-8.7379150">
        <ele>6.2</ele>
        <time>2021-05-16T10:20:48Z</time>
      </trkpt>
      <trkpt lat="41.3235440" lon="-8.7379020">
        <ele>6.2</ele>
        <time>2021-05-16T10:20:49Z</time>
      </trkpt>
      <trkpt lat="41.3235530" lon="-8.7378860">
        <ele>6.2</ele>
        <time>2021-05-16T10:20:50Z</time>
      </trkpt>
      <trkpt lat="41.3235660" lon="-8.7378720">
        <ele>6.2</ele>
        <time>2021-05-16T10:20:51Z</time>
      </trkpt>
      <trkpt lat="41.3235750" lon="-8.7378570">
        <ele>6.3</ele>
        <time>2021-05-16T10:20:52Z</time>
      </trkpt>
      <trkpt lat="41.3235880" lon="-8.7378480">
        <ele>6.3</ele>
        <time>2021-05-16T10:20:53Z</time>
      </trkpt>
      <trkpt lat="41.3236020" lon="-8.7378370">
        <ele>6.3</ele>
        <time>2021-05-16T10:20:54Z</time>
      </trkpt>
      <trkpt lat="41.3236130" lon="-8.7378220">
        <ele>6.3</ele>
        <time>2021-05-16T10:20:55Z</time>
      </trkpt>
      <trkpt lat="41.3236240" lon="-8.7378090">
        <ele>6.3</ele>
        <time>2021-05-16T10:20:56Z</time>
      </trkpt>
      <trkpt lat="41.3236380" lon="-8.7378040">
        <ele>6.3</ele>
        <time>2021-05-16T10:20:57Z</time>
      </trkpt>
      <trkpt lat="41.3236470" lon="-8.7378130">
        <ele>6.3</ele>
        <time>2021-05-16T10:20:58Z</time>
      </trkpt>
      <trkpt lat="41.3236480" lon="-8.7378120">
        <ele>6.3</ele>
        <time>2021-05-16T10:20:59Z</time>
      </trkpt>
      <trkpt lat="41.3236390" lon="-8.7378150">
        <ele>6.3</ele>
        <time>2021-05-16T10:21:00Z</time>
      </trkpt>
      <trkpt lat="41.3236340" lon="-8.7378120">
        <ele>6.3</ele>
        <time>2021-05-16T10:21:01Z</time>
      </trkpt>
      <trkpt lat="41.3236390" lon="-8.7377980">
        <ele>6.3</ele>
        <time>2021-05-16T10:21:02Z</time>
      </trkpt>
      <trkpt lat="41.3236490" lon="-8.7377940">
        <ele>6.3</ele>
        <time>2021-05-16T10:21:03Z</time>
      </trkpt>
      <trkpt lat="41.3236580" lon="-8.7377760">
        <ele>6.3</ele>
        <time>2021-05-16T10:21:04Z</time>
      </trkpt>
      <trkpt lat="41.3236690" lon="-8.7377520">
        <ele>6.3</ele>
        <time>2021-05-16T10:21:05Z</time>
      </trkpt>
      <trkpt lat="41.3236680" lon="-8.7377400">
        <ele>6.3</ele>
        <time>2021-05-16T10:21:06Z</time>
      </trkpt>
      <trkpt lat="41.3236680" lon="-8.7377280">
        <ele>6.3</ele>
        <time>2021-05-16T10:21:07Z</time>
      </trkpt>
      <trkpt lat="41.3236590" lon="-8.7377070">
        <ele>6.3</ele>
        <time>2021-05-16T10:21:08Z</time>
      </trkpt>
      <trkpt lat="41.3236620" lon="-8.7376850">
        <ele>6.3</ele>
        <time>2021-05-16T10:21:09Z</time>
      </trkpt>
      <trkpt lat="41.3236610" lon="-8.7376710">
        <ele>6.3</ele>
        <time>2021-05-16T10:21:10Z</time>
      </trkpt>
      <trkpt lat="41.3236570" lon="-8.7376480">
        <ele>6.3</ele>
        <time>2021-05-16T10:21:11Z</time>
      </trkpt>
      <trkpt lat="41.3236570" lon="-8.7376200">
        <ele>6.3</ele>
        <time>2021-05-16T10:21:12Z</time>
      </trkpt>
      <trkpt lat="41.3236580" lon="-8.7376020">
        <ele>6.3</ele>
        <time>2021-05-16T10:21:13Z</time>
      </trkpt>
      <trkpt lat="41.3236610" lon="-8.7375860">
        <ele>6.3</ele>
        <time>2021-05-16T10:21:14Z</time>
      </trkpt>
      <trkpt lat="41.3236690" lon="-8.7375630">
        <ele>6.3</ele>
        <time>2021-05-16T10:21:15Z</time>
      </trkpt>
      <trkpt lat="41.3236730" lon="-8.7375430">
        <ele>6.3</ele>
        <time>2021-05-16T10:21:16Z</time>
      </trkpt>
      <trkpt lat="41.3236690" lon="-8.7375200">
        <ele>6.3</ele>
        <time>2021-05-16T10:21:17Z</time>
      </trkpt>
      <trkpt lat="41.3236660" lon="-8.7374980">
        <ele>6.3</ele>
        <time>2021-05-16T10:21:18Z</time>
      </trkpt>
      <trkpt lat="41.3236630" lon="-8.7374820">
        <ele>6.3</ele>
        <time>2021-05-16T10:21:19Z</time>
      </trkpt>
      <trkpt lat="41.3236610" lon="-8.7374600">
        <ele>6.3</ele>
        <time>2021-05-16T10:21:20Z</time>
      </trkpt>
      <trkpt lat="41.3236590" lon="-8.7374410">
        <ele>6.3</ele>
        <time>2021-05-16T10:21:21Z</time>
      </trkpt>
      <trkpt lat="41.3236620" lon="-8.7374190">
        <ele>6.3</ele>
        <time>2021-05-16T10:21:22Z</time>
      </trkpt>
      <trkpt lat="41.3236620" lon="-8.7373980">
        <ele>6.3</ele>
        <time>2021-05-16T10:21:23Z</time>
      </trkpt>
      <trkpt lat="41.3236620" lon="-8.7373780">
        <ele>6.3</ele>
        <time>2021-05-16T10:21:24Z</time>
      </trkpt>
      <trkpt lat="41.3236620" lon="-8.7373600">
        <ele>6.3</ele>
        <time>2021-05-16T10:21:25Z</time>
      </trkpt>
      <trkpt lat="41.3236620" lon="-8.7373410">
        <ele>6.3</ele>
        <time>2021-05-16T10:21:26Z</time>
      </trkpt>
      <trkpt lat="41.3236690" lon="-8.7373240">
        <ele>6.3</ele>
        <time>2021-05-16T10:21:27Z</time>
      </trkpt>
      <trkpt lat="41.3236800" lon="-8.7373110">
        <ele>6.3</ele>
        <time>2021-05-16T10:21:28Z</time>
      </trkpt>
      <trkpt lat="41.3236970" lon="-8.7373040">
        <ele>6.3</ele>
        <time>2021-05-16T10:21:29Z</time>
      </trkpt>
      <trkpt lat="41.3237250" lon="-8.7372970">
        <ele>6.3</ele>
        <time>2021-05-16T10:21:30Z</time>
      </trkpt>
      <trkpt lat="41.3237330" lon="-8.7372920">
        <ele>6.3</ele>
        <time>2021-05-16T10:21:31Z</time>
      </trkpt>
      <trkpt lat="41.3237520" lon="-8.7372800">
        <ele>6.3</ele>
        <time>2021-05-16T10:21:32Z</time>
      </trkpt>
      <trkpt lat="41.3237590" lon="-8.7372760">
        <ele>6.3</ele>
        <time>2021-05-16T10:21:33Z</time>
      </trkpt>
      <trkpt lat="41.3237670" lon="-8.7372720">
        <ele>6.3</ele>
        <time>2021-05-16T10:21:34Z</time>
      </trkpt>
      <trkpt lat="41.3237800" lon="-8.7372640">
        <ele>6.3</ele>
        <time>2021-05-16T10:21:35Z</time>
      </trkpt>
      <trkpt lat="41.3237930" lon="-8.7372520">
        <ele>6.3</ele>
        <time>2021-05-16T10:21:36Z</time>
      </trkpt>
      <trkpt lat="41.3238050" lon="-8.7372420">
        <ele>6.3</ele>
        <time>2021-05-16T10:21:37Z</time>
      </trkpt>
      <trkpt lat="41.3238220" lon="-8.7372330">
        <ele>6.3</ele>
        <time>2021-05-16T10:21:38Z</time>
      </trkpt>
      <trkpt lat="41.3238430" lon="-8.7372230">
        <ele>6.3</ele>
        <time>2021-05-16T10:21:39Z</time>
      </trkpt>
      <trkpt lat="41.3238520" lon="-8.7372200">
        <ele>6.3</ele>
        <time>2021-05-16T10:21:40Z</time>
      </trkpt>
      <trkpt lat="41.3238610" lon="-8.7372170">
        <ele>6.3</ele>
        <time>2021-05-16T10:21:41Z</time>
      </trkpt>
      <trkpt lat="41.3238750" lon="-8.7372180">
        <ele>6.2</ele>
        <time>2021-05-16T10:21:42Z</time>
      </trkpt>
      <trkpt lat="41.3238890" lon="-8.7372150">
        <ele>6.2</ele>
        <time>2021-05-16T10:21:43Z</time>
      </trkpt>
      <trkpt lat="41.3239010" lon="-8.7372120">
        <ele>6.2</ele>
        <time>2021-05-16T10:21:44Z</time>
      </trkpt>
      <trkpt lat="41.3239170" lon="-8.7372100">
        <ele>6.2</ele>
        <time>2021-05-16T10:21:45Z</time>
      </trkpt>
      <trkpt lat="41.3239390" lon="-8.7372090">
        <ele>6.2</ele>
        <time>2021-05-16T10:21:46Z</time>
      </trkpt>
      <trkpt lat="41.3239480" lon="-8.7372090">
        <ele>6.2</ele>
        <time>2021-05-16T10:21:47Z</time>
      </trkpt>
      <trkpt lat="41.3239560" lon="-8.7372080">
        <ele>6.2</ele>
        <time>2021-05-16T10:21:48Z</time>
      </trkpt>
      <trkpt lat="41.3239700" lon="-8.7372020">
        <ele>6.2</ele>
        <time>2021-05-16T10:21:49Z</time>
      </trkpt>
      <trkpt lat="41.3239840" lon="-8.7372030">
        <ele>6.2</ele>
        <time>2021-05-16T10:21:50Z</time>
      </trkpt>
      <trkpt lat="41.3239980" lon="-8.7371990">
        <ele>6.2</ele>
        <time>2021-05-16T10:21:51Z</time>
      </trkpt>
      <trkpt lat="41.3240140" lon="-8.7371990">
        <ele>6.2</ele>
        <time>2021-05-16T10:21:52Z</time>
      </trkpt>
      <trkpt lat="41.3240290" lon="-8.7371940">
        <ele>6.2</ele>
        <time>2021-05-16T10:21:53Z</time>
      </trkpt>
      <trkpt lat="41.3240410" lon="-8.7371970">
        <ele>6.2</ele>
        <time>2021-05-16T10:21:54Z</time>
      </trkpt>
      <trkpt lat="41.3240560" lon="-8.7371980">
        <ele>6.2</ele>
        <time>2021-05-16T10:21:55Z</time>
      </trkpt>
      <trkpt lat="41.3240700" lon="-8.7372050">
        <ele>6.2</ele>
        <time>2021-05-16T10:21:56Z</time>
      </trkpt>
      <trkpt lat="41.3240900" lon="-8.7372080">
        <ele>6.2</ele>
        <time>2021-05-16T10:21:57Z</time>
      </trkpt>
      <trkpt lat="41.3240990" lon="-8.7372080">
        <ele>6.2</ele>
        <time>2021-05-16T10:21:58Z</time>
      </trkpt>
      <trkpt lat="41.3241070" lon="-8.7372090">
        <ele>6.1</ele>
        <time>2021-05-16T10:21:59Z</time>
      </trkpt>
      <trkpt lat="41.3241220" lon="-8.7372080">
        <ele>6.1</ele>
        <time>2021-05-16T10:22:00Z</time>
      </trkpt>
      <trkpt lat="41.3241380" lon="-8.7372050">
        <ele>6.1</ele>
        <time>2021-05-16T10:22:01Z</time>
      </trkpt>
      <trkpt lat="41.3241530" lon="-8.7372080">
        <ele>6.1</ele>
        <time>2021-05-16T10:22:02Z</time>
      </trkpt>
      <trkpt lat="41.3241680" lon="-8.7372070">
        <ele>6.1</ele>
        <time>2021-05-16T10:22:03Z</time>
      </trkpt>
      <trkpt lat="41.3241860" lon="-8.7372090">
        <ele>6.1</ele>
        <time>2021-05-16T10:22:04Z</time>
      </trkpt>
      <trkpt lat="41.3241990" lon="-8.7372090">
        <ele>6.1</ele>
        <time>2021-05-16T10:22:05Z</time>
      </trkpt>
      <trkpt lat="41.3242160" lon="-8.7372040">
        <ele>6.1</ele>
        <time>2021-05-16T10:22:06Z</time>
      </trkpt>
      <trkpt lat="41.3242300" lon="-8.7372010">
        <ele>6.1</ele>
        <time>2021-05-16T10:22:07Z</time>
      </trkpt>
      <trkpt lat="41.3242440" lon="-8.7372060">
        <ele>6.1</ele>
        <time>2021-05-16T10:22:08Z</time>
      </trkpt>
      <trkpt lat="41.3242590" lon="-8.7372060">
        <ele>6.1</ele>
        <time>2021-05-16T10:22:09Z</time>
      </trkpt>
      <trkpt lat="41.3242740" lon="-8.7372080">
        <ele>6.1</ele>
        <time>2021-05-16T10:22:10Z</time>
      </trkpt>
      <trkpt lat="41.3242870" lon="-8.7372060">
        <ele>6.1</ele>
        <time>2021-05-16T10:22:11Z</time>
      </trkpt>
      <trkpt lat="41.3243070" lon="-8.7372080">
        <ele>6.1</ele>
        <time>2021-05-16T10:22:12Z</time>
      </trkpt>
      <trkpt lat="41.3243170" lon="-8.7372090">
        <ele>6.1</ele>
        <time>2021-05-16T10:22:13Z</time>
      </trkpt>
      <trkpt lat="41.3243260" lon="-8.7372090">
        <ele>6.1</ele>
        <time>2021-05-16T10:22:14Z</time>
      </trkpt>
      <trkpt lat="41.3243390" lon="-8.7372140">
        <ele>6.0</ele>
        <time>2021-05-16T10:22:15Z</time>
      </trkpt>
      <trkpt lat="41.3243530" lon="-8.7372150">
        <ele>6.0</ele>
        <time>2021-05-16T10:22:16Z</time>
      </trkpt>
      <trkpt lat="41.3243650" lon="-8.7372140">
        <ele>6.0</ele>
        <time>2021-05-16T10:22:17Z</time>
      </trkpt>
      <trkpt lat="41.3243820" lon="-8.7372090">
        <ele>6.0</ele>
        <time>2021-05-16T10:22:18Z</time>
      </trkpt>
      <trkpt lat="41.3244050" lon="-8.7372120">
        <ele>6.0</ele>
        <time>2021-05-16T10:22:19Z</time>
      </trkpt>
      <trkpt lat="41.3244150" lon="-8.7372120">
        <ele>6.0</ele>
        <time>2021-05-16T10:22:20Z</time>
      </trkpt>
      <trkpt lat="41.3244250" lon="-8.7372130">
        <ele>6.0</ele>
        <time>2021-05-16T10:22:21Z</time>
      </trkpt>
      <trkpt lat="41.3244450" lon="-8.7372140">
        <ele>6.0</ele>
        <time>2021-05-16T10:22:22Z</time>
      </trkpt>
      <trkpt lat="41.3244530" lon="-8.7372160">
        <ele>6.0</ele>
        <time>2021-05-16T10:22:23Z</time>
      </trkpt>
      <trkpt lat="41.3244620" lon="-8.7372190">
        <ele>6.0</ele>
        <time>2021-05-16T10:22:24Z</time>
      </trkpt>
      <trkpt lat="41.3244780" lon="-8.7372200">
        <ele>6.0</ele>
        <time>2021-05-16T10:22:25Z</time>
      </trkpt>
      <trkpt lat="41.3244910" lon="-8.7372250">
        <ele>6.0</ele>
        <time>2021-05-16T10:22:26Z</time>
      </trkpt>
      <trkpt lat="41.3245030" lon="-8.7372300">
        <ele>6.0</ele>
        <time>2021-05-16T10:22:27Z</time>
      </trkpt>
      <trkpt lat="41.3245180" lon="-8.7372340">
        <ele>6.0</ele>
        <time>2021-05-16T10:22:28Z</time>
      </trkpt>
      <trkpt lat="41.3245340" lon="-8.7372360">
        <ele>6.0</ele>
        <time>2021-05-16T10:22:29Z</time>
      </trkpt>
      <trkpt lat="41.3245470" lon="-8.7372350">
        <ele>6.0</ele>
        <time>2021-05-16T10:22:30Z</time>
      </trkpt>
      <trkpt lat="41.3245600" lon="-8.7372420">
        <ele>6.0</ele>
        <time>2021-05-16T10:22:31Z</time>
      </trkpt>
      <trkpt lat="41.3245750" lon="-8.7372430">
        <ele>6.0</ele>
        <time>2021-05-16T10:22:32Z</time>
      </trkpt>
      <trkpt lat="41.3245900" lon="-8.7372490">
        <ele>6.0</ele>
        <time>2021-05-16T10:22:33Z</time>
      </trkpt>
      <trkpt lat="41.3246040" lon="-8.7372590">
        <ele>6.0</ele>
        <time>2021-05-16T10:22:34Z</time>
      </trkpt>
      <trkpt lat="41.3246190" lon="-8.7372540">
        <ele>6.0</ele>
        <time>2021-05-16T10:22:35Z</time>
      </trkpt>
      <trkpt lat="41.3246340" lon="-8.7372590">
        <ele>6.0</ele>
        <time>2021-05-16T10:22:36Z</time>
      </trkpt>
      <trkpt lat="41.3246470" lon="-8.7372620">
        <ele>6.0</ele>
        <time>2021-05-16T10:22:37Z</time>
      </trkpt>
      <trkpt lat="41.3246610" lon="-8.7372630">
        <ele>6.0</ele>
        <time>2021-05-16T10:22:38Z</time>
      </trkpt>
      <trkpt lat="41.3246750" lon="-8.7372690">
        <ele>6.0</ele>
        <time>2021-05-16T10:22:39Z</time>
      </trkpt>
      <trkpt lat="41.3246890" lon="-8.7372720">
        <ele>6.0</ele>
        <time>2021-05-16T10:22:40Z</time>
      </trkpt>
      <trkpt lat="41.3247020" lon="-8.7372770">
        <ele>6.0</ele>
        <time>2021-05-16T10:22:41Z</time>
      </trkpt>
      <trkpt lat="41.3247170" lon="-8.7372800">
        <ele>6.0</ele>
        <time>2021-05-16T10:22:42Z</time>
      </trkpt>
      <trkpt lat="41.3247350" lon="-8.7372760">
        <ele>6.0</ele>
        <time>2021-05-16T10:22:43Z</time>
      </trkpt>
      <trkpt lat="41.3247490" lon="-8.7372840">
        <ele>6.0</ele>
        <time>2021-05-16T10:22:44Z</time>
      </trkpt>
      <trkpt lat="41.3247710" lon="-8.7372850">
        <ele>6.0</ele>
        <time>2021-05-16T10:22:45Z</time>
      </trkpt>
      <trkpt lat="41.3247810" lon="-8.7372850">
        <ele>6.0</ele>
        <time>2021-05-16T10:22:46Z</time>
      </trkpt>
      <trkpt lat="41.3247900" lon="-8.7372860">
        <ele>6.0</ele>
        <time>2021-05-16T10:22:47Z</time>
      </trkpt>
      <trkpt lat="41.3248070" lon="-8.7372860">
        <ele>6.0</ele>
        <time>2021-05-16T10:22:48Z</time>
      </trkpt>
      <trkpt lat="41.3248230" lon="-8.7372940">
        <ele>6.0</ele>
        <time>2021-05-16T10:22:49Z</time>
      </trkpt>
      <trkpt lat="41.3248370" lon="-8.7372950">
        <ele>6.0</ele>
        <time>2021-05-16T10:22:50Z</time>
      </trkpt>
      <trkpt lat="41.3248500" lon="-8.7372980">
        <ele>6.0</ele>
        <time>2021-05-16T10:22:51Z</time>
      </trkpt>
      <trkpt lat="41.3248660" lon="-8.7372990">
        <ele>6.0</ele>
        <time>2021-05-16T10:22:52Z</time>
      </trkpt>
      <trkpt lat="41.3248800" lon="-8.7373000">
        <ele>6.0</ele>
        <time>2021-05-16T10:22:53Z</time>
      </trkpt>
      <trkpt lat="41.3248940" lon="-8.7373030">
        <ele>6.0</ele>
        <time>2021-05-16T10:22:54Z</time>
      </trkpt>
      <trkpt lat="41.3249070" lon="-8.7373070">
        <ele>6.0</ele>
        <time>2021-05-16T10:22:55Z</time>
      </trkpt>
      <trkpt lat="41.3249280" lon="-8.7373130">
        <ele>6.0</ele>
        <time>2021-05-16T10:22:56Z</time>
      </trkpt>
      <trkpt lat="41.3249370" lon="-8.7373160">
        <ele>6.0</ele>
        <time>2021-05-16T10:22:57Z</time>
      </trkpt>
      <trkpt lat="41.3249470" lon="-8.7373190">
        <ele>6.0</ele>
        <time>2021-05-16T10:22:58Z</time>
      </trkpt>
      <trkpt lat="41.3249620" lon="-8.7373170">
        <ele>6.0</ele>
        <time>2021-05-16T10:22:59Z</time>
      </trkpt>
      <trkpt lat="41.3249770" lon="-8.7373180">
        <ele>6.0</ele>
        <time>2021-05-16T10:23:00Z</time>
      </trkpt>
      <trkpt lat="41.3249980" lon="-8.7373240">
        <ele>6.0</ele>
        <time>2021-05-16T10:23:01Z</time>
      </trkpt>
      <trkpt lat="41.3250060" lon="-8.7373260">
        <ele>6.0</ele>
        <time>2021-05-16T10:23:02Z</time>
      </trkpt>
      <trkpt lat="41.3250150" lon="-8.7373270">
        <ele>6.0</ele>
        <time>2021-05-16T10:23:03Z</time>
      </trkpt>
      <trkpt lat="41.3250300" lon="-8.7373290">
        <ele>6.0</ele>
        <time>2021-05-16T10:23:04Z</time>
      </trkpt>
      <trkpt lat="41.3250460" lon="-8.7373310">
        <ele>6.0</ele>
        <time>2021-05-16T10:23:05Z</time>
      </trkpt>
      <trkpt lat="41.3250590" lon="-8.7373330">
        <ele>6.0</ele>
        <time>2021-05-16T10:23:06Z</time>
      </trkpt>
      <trkpt lat="41.3250740" lon="-8.7373310">
        <ele>6.0</ele>
        <time>2021-05-16T10:23:07Z</time>
      </trkpt>
      <trkpt lat="41.3250890" lon="-8.7373360">
        <ele>6.0</ele>
        <time>2021-05-16T10:23:08Z</time>
      </trkpt>
      <trkpt lat="41.3251020" lon="-8.7373370">
        <ele>6.0</ele>
        <time>2021-05-16T10:23:09Z</time>
      </trkpt>
      <trkpt lat="41.3251170" lon="-8.7373420">
        <ele>6.0</ele>
        <time>2021-05-16T10:23:10Z</time>
      </trkpt>
      <trkpt lat="41.3251310" lon="-8.7373430">
        <ele>6.0</ele>
        <time>2021-05-16T10:23:11Z</time>
      </trkpt>
      <trkpt lat="41.3251530" lon="-8.7373490">
        <ele>6.0</ele>
        <time>2021-05-16T10:23:12Z</time>
      </trkpt>
      <trkpt lat="41.3251620" lon="-8.7373500">
        <ele>6.0</ele>
        <time>2021-05-16T10:23:13Z</time>
      </trkpt>
      <trkpt lat="41.3251710" lon="-8.7373520">
        <ele>6.0</ele>
        <time>2021-05-16T10:23:14Z</time>
      </trkpt>
      <trkpt lat="41.3251920" lon="-8.7373570">
        <ele>6.0</ele>
        <time>2021-05-16T10:23:15Z</time>
      </trkpt>
      <trkpt lat="41.3252010" lon="-8.7373630">
        <ele>6.0</ele>
        <time>2021-05-16T10:23:16Z</time>
      </trkpt>
      <trkpt lat="41.3252100" lon="-8.7373690">
        <ele>6.0</ele>
        <time>2021-05-16T10:23:17Z</time>
      </trkpt>
      <trkpt lat="41.3252280" lon="-8.7373660">
        <ele>6.0</ele>
        <time>2021-05-16T10:23:18Z</time>
      </trkpt>
      <trkpt lat="41.3252390" lon="-8.7373700">
        <ele>6.0</ele>
        <time>2021-05-16T10:23:19Z</time>
      </trkpt>
      <trkpt lat="41.3252550" lon="-8.7373690">
        <ele>6.0</ele>
        <time>2021-05-16T10:23:20Z</time>
      </trkpt>
      <trkpt lat="41.3252670" lon="-8.7373700">
        <ele>6.0</ele>
        <time>2021-05-16T10:23:21Z</time>
      </trkpt>
      <trkpt lat="41.3252820" lon="-8.7373730">
        <ele>6.1</ele>
        <time>2021-05-16T10:23:22Z</time>
      </trkpt>
      <trkpt lat="41.3252960" lon="-8.7373770">
        <ele>6.1</ele>
        <time>2021-05-16T10:23:23Z</time>
      </trkpt>
      <trkpt lat="41.3253180" lon="-8.7373810">
        <ele>6.1</ele>
        <time>2021-05-16T10:23:24Z</time>
      </trkpt>
      <trkpt lat="41.3253280" lon="-8.7373810">
        <ele>6.1</ele>
        <time>2021-05-16T10:23:25Z</time>
      </trkpt>
      <trkpt lat="41.3253370" lon="-8.7373820">
        <ele>6.1</ele>
        <time>2021-05-16T10:23:26Z</time>
      </trkpt>
      <trkpt lat="41.3253580" lon="-8.7373840">
        <ele>6.1</ele>
        <time>2021-05-16T10:23:27Z</time>
      </trkpt>
      <trkpt lat="41.3253670" lon="-8.7373830">
        <ele>6.1</ele>
        <time>2021-05-16T10:23:28Z</time>
      </trkpt>
      <trkpt lat="41.3253760" lon="-8.7373820">
        <ele>6.1</ele>
        <time>2021-05-16T10:23:29Z</time>
      </trkpt>
      <trkpt lat="41.3253890" lon="-8.7373860">
        <ele>6.1</ele>
        <time>2021-05-16T10:23:30Z</time>
      </trkpt>
      <trkpt lat="41.3254050" lon="-8.7373910">
        <ele>6.1</ele>
        <time>2021-05-16T10:23:31Z</time>
      </trkpt>
      <trkpt lat="41.3254170" lon="-8.7373930">
        <ele>6.1</ele>
        <time>2021-05-16T10:23:32Z</time>
      </trkpt>
      <trkpt lat="41.3254290" lon="-8.7373960">
        <ele>6.1</ele>
        <time>2021-05-16T10:23:33Z</time>
      </trkpt>
      <trkpt lat="41.3254380" lon="-8.7374020">
        <ele>6.1</ele>
        <time>2021-05-16T10:23:34Z</time>
      </trkpt>
      <trkpt lat="41.3254510" lon="-8.7374030">
        <ele>6.1</ele>
        <time>2021-05-16T10:23:35Z</time>
      </trkpt>
      <trkpt lat="41.3254660" lon="-8.7373950">
        <ele>6.1</ele>
        <time>2021-05-16T10:23:36Z</time>
      </trkpt>
      <trkpt lat="41.3254950" lon="-8.7373970">
        <ele>6.1</ele>
        <time>2021-05-16T10:23:37Z</time>
      </trkpt>
      <trkpt lat="41.3255040" lon="-8.7374000">
        <ele>6.1</ele>
        <time>2021-05-16T10:23:38Z</time>
      </trkpt>
      <trkpt lat="41.3255160" lon="-8.7374000">
        <ele>6.1</ele>
        <time>2021-05-16T10:23:39Z</time>
      </trkpt>
      <trkpt lat="41.3255300" lon="-8.7374090">
        <ele>6.1</ele>
        <time>2021-05-16T10:23:40Z</time>
      </trkpt>
      <trkpt lat="41.3255380" lon="-8.7374140">
        <ele>6.1</ele>
        <time>2021-05-16T10:23:41Z</time>
      </trkpt>
      <trkpt lat="41.3255430" lon="-8.7374180">
        <ele>6.1</ele>
        <time>2021-05-16T10:23:42Z</time>
      </trkpt>
      <trkpt lat="41.3255350" lon="-8.7374170">
        <ele>6.1</ele>
        <time>2021-05-16T10:23:43Z</time>
      </trkpt>
      <trkpt lat="41.3255250" lon="-8.7374150">
        <ele>6.1</ele>
        <time>2021-05-16T10:23:44Z</time>
      </trkpt>
      <trkpt lat="41.3255220" lon="-8.7374180">
        <ele>6.1</ele>
        <time>2021-05-16T10:23:45Z</time>
      </trkpt>
      <trkpt lat="41.3255200" lon="-8.7374180">
        <ele>6.1</ele>
        <time>2021-05-16T10:23:46Z</time>
      </trkpt>
      <trkpt lat="41.3255170" lon="-8.7374190">
        <ele>6.1</ele>
        <time>2021-05-16T10:23:47Z</time>
      </trkpt>
      <trkpt lat="41.3255150" lon="-8.7374200">
        <ele>6.1</ele>
        <time>2021-05-16T10:23:48Z</time>
      </trkpt>
      <trkpt lat="41.3255120" lon="-8.7374210">
        <ele>6.1</ele>
        <time>2021-05-16T10:23:49Z</time>
      </trkpt>
      <trkpt lat="41.3255090" lon="-8.7374220">
        <ele>6.1</ele>
        <time>2021-05-16T10:23:50Z</time>
      </trkpt>
      <trkpt lat="41.3255070" lon="-8.7374220">
        <ele>6.1</ele>
        <time>2021-05-16T10:23:51Z</time>
      </trkpt>
      <trkpt lat="41.3255050" lon="-8.7374230">
        <ele>6.1</ele>
        <time>2021-05-16T10:23:52Z</time>
      </trkpt>
      <trkpt lat="41.3255030" lon="-8.7374240">
        <ele>6.1</ele>
        <time>2021-05-16T10:23:53Z</time>
      </trkpt>
      <trkpt lat="41.3255020" lon="-8.7374230">
        <ele>6.1</ele>
        <time>2021-05-16T10:23:54Z</time>
      </trkpt>
      <trkpt lat="41.3255020" lon="-8.7374220">
        <ele>6.1</ele>
        <time>2021-05-16T10:23:55Z</time>
      </trkpt>
      <trkpt lat="41.3255060" lon="-8.7374240">
        <ele>6.1</ele>
        <time>2021-05-16T10:23:56Z</time>
      </trkpt>
      <trkpt lat="41.3255150" lon="-8.7374260">
        <ele>6.1</ele>
        <time>2021-05-16T10:23:57Z</time>
      </trkpt>
      <trkpt lat="41.3255150" lon="-8.7374280">
        <ele>6.1</ele>
        <time>2021-05-16T10:23:58Z</time>
      </trkpt>
      <trkpt lat="41.3255200" lon="-8.7374280">
        <ele>6.1</ele>
        <time>2021-05-16T10:23:59Z</time>
      </trkpt>
      <trkpt lat="41.3255230" lon="-8.7374300">
        <ele>6.1</ele>
        <time>2021-05-16T10:24:00Z</time>
      </trkpt>
      <trkpt lat="41.3255380" lon="-8.7374340">
        <ele>6.1</ele>
        <time>2021-05-16T10:24:01Z</time>
      </trkpt>
      <trkpt lat="41.3255530" lon="-8.7374400">
        <ele>6.1</ele>
        <time>2021-05-16T10:24:02Z</time>
      </trkpt>
      <trkpt lat="41.3255660" lon="-8.7374390">
        <ele>6.1</ele>
        <time>2021-05-16T10:24:03Z</time>
      </trkpt>
      <trkpt lat="41.3255850" lon="-8.7374430">
        <ele>6.1</ele>
        <time>2021-05-16T10:24:04Z</time>
      </trkpt>
      <trkpt lat="41.3255940" lon="-8.7374440">
        <ele>6.1</ele>
        <time>2021-05-16T10:24:05Z</time>
      </trkpt>
      <trkpt lat="41.3256020" lon="-8.7374460">
        <ele>6.1</ele>
        <time>2021-05-16T10:24:06Z</time>
      </trkpt>
      <trkpt lat="41.3256210" lon="-8.7374470">
        <ele>6.1</ele>
        <time>2021-05-16T10:24:07Z</time>
      </trkpt>
      <trkpt lat="41.3256310" lon="-8.7374460">
        <ele>6.1</ele>
        <time>2021-05-16T10:24:08Z</time>
      </trkpt>
      <trkpt lat="41.3256490" lon="-8.7374540">
        <ele>6.1</ele>
        <time>2021-05-16T10:24:09Z</time>
      </trkpt>
      <trkpt lat="41.3256580" lon="-8.7374580">
        <ele>6.1</ele>
        <time>2021-05-16T10:24:10Z</time>
      </trkpt>
      <trkpt lat="41.3256660" lon="-8.7374620">
        <ele>6.1</ele>
        <time>2021-05-16T10:24:11Z</time>
      </trkpt>
      <trkpt lat="41.3256880" lon="-8.7374670">
        <ele>6.2</ele>
        <time>2021-05-16T10:24:12Z</time>
      </trkpt>
      <trkpt lat="41.3256970" lon="-8.7374700">
        <ele>6.2</ele>
        <time>2021-05-16T10:24:13Z</time>
      </trkpt>
      <trkpt lat="41.3257060" lon="-8.7374720">
        <ele>6.2</ele>
        <time>2021-05-16T10:24:14Z</time>
      </trkpt>
      <trkpt lat="41.3257240" lon="-8.7374780">
        <ele>6.2</ele>
        <time>2021-05-16T10:24:15Z</time>
      </trkpt>
      <trkpt lat="41.3257340" lon="-8.7374800">
        <ele>6.2</ele>
        <time>2021-05-16T10:24:16Z</time>
      </trkpt>
      <trkpt lat="41.3257450" lon="-8.7374820">
        <ele>6.2</ele>
        <time>2021-05-16T10:24:17Z</time>
      </trkpt>
      <trkpt lat="41.3257580" lon="-8.7374820">
        <ele>6.2</ele>
        <time>2021-05-16T10:24:18Z</time>
      </trkpt>
      <trkpt lat="41.3257760" lon="-8.7374830">
        <ele>6.2</ele>
        <time>2021-05-16T10:24:19Z</time>
      </trkpt>
      <trkpt lat="41.3257860" lon="-8.7374840">
        <ele>6.2</ele>
        <time>2021-05-16T10:24:20Z</time>
      </trkpt>
      <trkpt lat="41.3258030" lon="-8.7374870">
        <ele>6.2</ele>
        <time>2021-05-16T10:24:21Z</time>
      </trkpt>
      <trkpt lat="41.3258250" lon="-8.7374890">
        <ele>6.2</ele>
        <time>2021-05-16T10:24:22Z</time>
      </trkpt>
      <trkpt lat="41.3258370" lon="-8.7374890">
        <ele>6.2</ele>
        <time>2021-05-16T10:24:23Z</time>
      </trkpt>
      <trkpt lat="41.3258480" lon="-8.7374890">
        <ele>6.2</ele>
        <time>2021-05-16T10:24:24Z</time>
      </trkpt>
      <trkpt lat="41.3258680" lon="-8.7374840">
        <ele>6.2</ele>
        <time>2021-05-16T10:24:25Z</time>
      </trkpt>
      <trkpt lat="41.3258780" lon="-8.7374830">
        <ele>6.2</ele>
        <time>2021-05-16T10:24:26Z</time>
      </trkpt>
      <trkpt lat="41.3258880" lon="-8.7374830">
        <ele>6.2</ele>
        <time>2021-05-16T10:24:27Z</time>
      </trkpt>
      <trkpt lat="41.3259070" lon="-8.7374820">
        <ele>6.2</ele>
        <time>2021-05-16T10:24:28Z</time>
      </trkpt>
      <trkpt lat="41.3259220" lon="-8.7374730">
        <ele>6.2</ele>
        <time>2021-05-16T10:24:29Z</time>
      </trkpt>
      <trkpt lat="41.3259340" lon="-8.7374740">
        <ele>6.2</ele>
        <time>2021-05-16T10:24:30Z</time>
      </trkpt>
      <trkpt lat="41.3259490" lon="-8.7374760">
        <ele>6.2</ele>
        <time>2021-05-16T10:24:31Z</time>
      </trkpt>
      <trkpt lat="41.3259640" lon="-8.7374730">
        <ele>6.2</ele>
        <time>2021-05-16T10:24:32Z</time>
      </trkpt>
      <trkpt lat="41.3259790" lon="-8.7374690">
        <ele>6.3</ele>
        <time>2021-05-16T10:24:33Z</time>
      </trkpt>
      <trkpt lat="41.3259990" lon="-8.7374700">
        <ele>6.3</ele>
        <time>2021-05-16T10:24:34Z</time>
      </trkpt>
      <trkpt lat="41.3260080" lon="-8.7374700">
        <ele>6.3</ele>
        <time>2021-05-16T10:24:35Z</time>
      </trkpt>
      <trkpt lat="41.3260160" lon="-8.7374690">
        <ele>6.3</ele>
        <time>2021-05-16T10:24:36Z</time>
      </trkpt>
      <trkpt lat="41.3260330" lon="-8.7374690">
        <ele>6.3</ele>
        <time>2021-05-16T10:24:37Z</time>
      </trkpt>
      <trkpt lat="41.3260480" lon="-8.7374640">
        <ele>6.3</ele>
        <time>2021-05-16T10:24:38Z</time>
      </trkpt>
      <trkpt lat="41.3260690" lon="-8.7374670">
        <ele>6.3</ele>
        <time>2021-05-16T10:24:39Z</time>
      </trkpt>
      <trkpt lat="41.3260790" lon="-8.7374650">
        <ele>6.3</ele>
        <time>2021-05-16T10:24:40Z</time>
      </trkpt>
      <trkpt lat="41.3260880" lon="-8.7374640">
        <ele>6.3</ele>
        <time>2021-05-16T10:24:41Z</time>
      </trkpt>
      <trkpt lat="41.3261090" lon="-8.7374630">
        <ele>6.3</ele>
        <time>2021-05-16T10:24:42Z</time>
      </trkpt>
      <trkpt lat="41.3261180" lon="-8.7374620">
        <ele>6.3</ele>
        <time>2021-05-16T10:24:43Z</time>
      </trkpt>
      <trkpt lat="41.3261260" lon="-8.7374600">
        <ele>6.3</ele>
        <time>2021-05-16T10:24:44Z</time>
      </trkpt>
      <trkpt lat="41.3261460" lon="-8.7374580">
        <ele>6.3</ele>
        <time>2021-05-16T10:24:45Z</time>
      </trkpt>
      <trkpt lat="41.3261540" lon="-8.7374590">
        <ele>6.3</ele>
        <time>2021-05-16T10:24:46Z</time>
      </trkpt>
      <trkpt lat="41.3261630" lon="-8.7374590">
        <ele>6.3</ele>
        <time>2021-05-16T10:24:47Z</time>
      </trkpt>
      <trkpt lat="41.3261710" lon="-8.7374620">
        <ele>6.3</ele>
        <time>2021-05-16T10:24:48Z</time>
      </trkpt>
      <trkpt lat="41.3261870" lon="-8.7374640">
        <ele>6.3</ele>
        <time>2021-05-16T10:24:49Z</time>
      </trkpt>
      <trkpt lat="41.3261980" lon="-8.7374640">
        <ele>6.3</ele>
        <time>2021-05-16T10:24:50Z</time>
      </trkpt>
      <trkpt lat="41.3262230" lon="-8.7374610">
        <ele>6.3</ele>
        <time>2021-05-16T10:24:51Z</time>
      </trkpt>
      <trkpt lat="41.3262320" lon="-8.7374560">
        <ele>6.3</ele>
        <time>2021-05-16T10:24:52Z</time>
      </trkpt>
      <trkpt lat="41.3262410" lon="-8.7374500">
        <ele>6.3</ele>
        <time>2021-05-16T10:24:53Z</time>
      </trkpt>
      <trkpt lat="41.3262540" lon="-8.7374380">
        <ele>6.3</ele>
        <time>2021-05-16T10:24:54Z</time>
      </trkpt>
      <trkpt lat="41.3262680" lon="-8.7374320">
        <ele>6.3</ele>
        <time>2021-05-16T10:24:55Z</time>
      </trkpt>
      <trkpt lat="41.3262820" lon="-8.7374220">
        <ele>6.3</ele>
        <time>2021-05-16T10:24:56Z</time>
      </trkpt>
      <trkpt lat="41.3262960" lon="-8.7374160">
        <ele>6.3</ele>
        <time>2021-05-16T10:24:57Z</time>
      </trkpt>
      <trkpt lat="41.3263100" lon="-8.7374020">
        <ele>6.3</ele>
        <time>2021-05-16T10:24:58Z</time>
      </trkpt>
      <trkpt lat="41.3263230" lon="-8.7373930">
        <ele>6.3</ele>
        <time>2021-05-16T10:24:59Z</time>
      </trkpt>
      <trkpt lat="41.3263370" lon="-8.7373810">
        <ele>6.3</ele>
        <time>2021-05-16T10:25:00Z</time>
      </trkpt>
      <trkpt lat="41.3263500" lon="-8.7373690">
        <ele>6.3</ele>
        <time>2021-05-16T10:25:01Z</time>
      </trkpt>
      <trkpt lat="41.3263630" lon="-8.7373640">
        <ele>6.3</ele>
        <time>2021-05-16T10:25:02Z</time>
      </trkpt>
      <trkpt lat="41.3263740" lon="-8.7373510">
        <ele>6.3</ele>
        <time>2021-05-16T10:25:03Z</time>
      </trkpt>
      <trkpt lat="41.3263880" lon="-8.7373430">
        <ele>6.3</ele>
        <time>2021-05-16T10:25:04Z</time>
      </trkpt>
      <trkpt lat="41.3264000" lon="-8.7373330">
        <ele>6.3</ele>
        <time>2021-05-16T10:25:05Z</time>
      </trkpt>
      <trkpt lat="41.3264150" lon="-8.7373300">
        <ele>6.3</ele>
        <time>2021-05-16T10:25:06Z</time>
      </trkpt>
      <trkpt lat="41.3264260" lon="-8.7373180">
        <ele>6.3</ele>
        <time>2021-05-16T10:25:07Z</time>
      </trkpt>
      <trkpt lat="41.3264400" lon="-8.7373130">
        <ele>6.3</ele>
        <time>2021-05-16T10:25:08Z</time>
      </trkpt>
      <trkpt lat="41.3264520" lon="-8.7373000">
        <ele>6.3</ele>
        <time>2021-05-16T10:25:09Z</time>
      </trkpt>
      <trkpt lat="41.3264660" lon="-8.7372900">
        <ele>6.3</ele>
        <time>2021-05-16T10:25:10Z</time>
      </trkpt>
      <trkpt lat="41.3264790" lon="-8.7372790">
        <ele>6.3</ele>
        <time>2021-05-16T10:25:11Z</time>
      </trkpt>
      <trkpt lat="41.3264930" lon="-8.7372690">
        <ele>6.3</ele>
        <time>2021-05-16T10:25:12Z</time>
      </trkpt>
      <trkpt lat="41.3265020" lon="-8.7372550">
        <ele>6.3</ele>
        <time>2021-05-16T10:25:13Z</time>
      </trkpt>
      <trkpt lat="41.3265180" lon="-8.7372480">
        <ele>6.3</ele>
        <time>2021-05-16T10:25:14Z</time>
      </trkpt>
      <trkpt lat="41.3265300" lon="-8.7372400">
        <ele>6.3</ele>
        <time>2021-05-16T10:25:15Z</time>
      </trkpt>
      <trkpt lat="41.3265420" lon="-8.7372280">
        <ele>6.4</ele>
        <time>2021-05-16T10:25:16Z</time>
      </trkpt>
      <trkpt lat="41.3265550" lon="-8.7372250">
        <ele>6.4</ele>
        <time>2021-05-16T10:25:17Z</time>
      </trkpt>
      <trkpt lat="41.3265660" lon="-8.7372160">
        <ele>6.4</ele>
        <time>2021-05-16T10:25:18Z</time>
      </trkpt>
      <trkpt lat="41.3265770" lon="-8.7372030">
        <ele>6.4</ele>
        <time>2021-05-16T10:25:19Z</time>
      </trkpt>
      <trkpt lat="41.3265870" lon="-8.7371940">
        <ele>6.4</ele>
        <time>2021-05-16T10:25:20Z</time>
      </trkpt>
      <trkpt lat="41.3266010" lon="-8.7371840">
        <ele>6.4</ele>
        <time>2021-05-16T10:25:21Z</time>
      </trkpt>
      <trkpt lat="41.3266140" lon="-8.7371780">
        <ele>6.4</ele>
        <time>2021-05-16T10:25:22Z</time>
      </trkpt>
      <trkpt lat="41.3266270" lon="-8.7371670">
        <ele>6.4</ele>
        <time>2021-05-16T10:25:23Z</time>
      </trkpt>
      <trkpt lat="41.3266410" lon="-8.7371660">
        <ele>6.4</ele>
        <time>2021-05-16T10:25:24Z</time>
      </trkpt>
      <trkpt lat="41.3266560" lon="-8.7371680">
        <ele>6.4</ele>
        <time>2021-05-16T10:25:25Z</time>
      </trkpt>
      <trkpt lat="41.3266690" lon="-8.7371690">
        <ele>6.4</ele>
        <time>2021-05-16T10:25:26Z</time>
      </trkpt>
      <trkpt lat="41.3266830" lon="-8.7371730">
        <ele>6.4</ele>
        <time>2021-05-16T10:25:27Z</time>
      </trkpt>
      <trkpt lat="41.3266990" lon="-8.7371770">
        <ele>6.4</ele>
        <time>2021-05-16T10:25:28Z</time>
      </trkpt>
      <trkpt lat="41.3267140" lon="-8.7371890">
        <ele>6.4</ele>
        <time>2021-05-16T10:25:29Z</time>
      </trkpt>
      <trkpt lat="41.3267290" lon="-8.7371990">
        <ele>6.3</ele>
        <time>2021-05-16T10:25:30Z</time>
      </trkpt>
      <trkpt lat="41.3267420" lon="-8.7372120">
        <ele>6.3</ele>
        <time>2021-05-16T10:25:31Z</time>
      </trkpt>
      <trkpt lat="41.3267580" lon="-8.7372170">
        <ele>6.3</ele>
        <time>2021-05-16T10:25:32Z</time>
      </trkpt>
      <trkpt lat="41.3267710" lon="-8.7372260">
        <ele>6.3</ele>
        <time>2021-05-16T10:25:33Z</time>
      </trkpt>
      <trkpt lat="41.3267810" lon="-8.7372340">
        <ele>6.3</ele>
        <time>2021-05-16T10:25:34Z</time>
      </trkpt>
      <trkpt lat="41.3267970" lon="-8.7372390">
        <ele>6.3</ele>
        <time>2021-05-16T10:25:35Z</time>
      </trkpt>
      <trkpt lat="41.3268060" lon="-8.7372430">
        <ele>6.3</ele>
        <time>2021-05-16T10:25:36Z</time>
      </trkpt>
      <trkpt lat="41.3268130" lon="-8.7372520">
        <ele>6.3</ele>
        <time>2021-05-16T10:25:37Z</time>
      </trkpt>
      <trkpt lat="41.3268270" lon="-8.7372630">
        <ele>6.3</ele>
        <time>2021-05-16T10:25:38Z</time>
      </trkpt>
      <trkpt lat="41.3268330" lon="-8.7372700">
        <ele>6.3</ele>
        <time>2021-05-16T10:25:39Z</time>
      </trkpt>
      <trkpt lat="41.3268410" lon="-8.7372800">
        <ele>6.3</ele>
        <time>2021-05-16T10:25:40Z</time>
      </trkpt>
      <trkpt lat="41.3268550" lon="-8.7372910">
        <ele>6.3</ele>
        <time>2021-05-16T10:25:41Z</time>
      </trkpt>
      <trkpt lat="41.3268680" lon="-8.7373030">
        <ele>6.3</ele>
        <time>2021-05-16T10:25:42Z</time>
      </trkpt>
      <trkpt lat="41.3268780" lon="-8.7373130">
        <ele>6.2</ele>
        <time>2021-05-16T10:25:43Z</time>
      </trkpt>
      <trkpt lat="41.3268970" lon="-8.7373200">
        <ele>6.2</ele>
        <time>2021-05-16T10:25:44Z</time>
      </trkpt>
      <trkpt lat="41.3269060" lon="-8.7373270">
        <ele>6.2</ele>
        <time>2021-05-16T10:25:45Z</time>
      </trkpt>
      <trkpt lat="41.3269150" lon="-8.7373340">
        <ele>6.2</ele>
        <time>2021-05-16T10:25:46Z</time>
      </trkpt>
      <trkpt lat="41.3269280" lon="-8.7373400">
        <ele>6.2</ele>
        <time>2021-05-16T10:25:47Z</time>
      </trkpt>
      <trkpt lat="41.3269400" lon="-8.7373480">
        <ele>6.2</ele>
        <time>2021-05-16T10:25:48Z</time>
      </trkpt>
      <trkpt lat="41.3269520" lon="-8.7373590">
        <ele>6.2</ele>
        <time>2021-05-16T10:25:49Z</time>
      </trkpt>
      <trkpt lat="41.3269650" lon="-8.7373700">
        <ele>6.2</ele>
        <time>2021-05-16T10:25:50Z</time>
      </trkpt>
      <trkpt lat="41.3269790" lon="-8.7373750">
        <ele>6.2</ele>
        <time>2021-05-16T10:25:51Z</time>
      </trkpt>
      <trkpt lat="41.3269910" lon="-8.7373860">
        <ele>6.2</ele>
        <time>2021-05-16T10:25:52Z</time>
      </trkpt>
      <trkpt lat="41.3270030" lon="-8.7373960">
        <ele>6.2</ele>
        <time>2021-05-16T10:25:53Z</time>
      </trkpt>
      <trkpt lat="41.3270180" lon="-8.7374010">
        <ele>6.2</ele>
        <time>2021-05-16T10:25:54Z</time>
      </trkpt>
      <trkpt lat="41.3270270" lon="-8.7374200">
        <ele>6.2</ele>
        <time>2021-05-16T10:25:55Z</time>
      </trkpt>
      <trkpt lat="41.3270430" lon="-8.7374190">
        <ele>6.2</ele>
        <time>2021-05-16T10:25:56Z</time>
      </trkpt>
      <trkpt lat="41.3270560" lon="-8.7374300">
        <ele>6.2</ele>
        <time>2021-05-16T10:25:57Z</time>
      </trkpt>
      <trkpt lat="41.3270700" lon="-8.7374370">
        <ele>6.2</ele>
        <time>2021-05-16T10:25:58Z</time>
      </trkpt>
      <trkpt lat="41.3270830" lon="-8.7374460">
        <ele>6.2</ele>
        <time>2021-05-16T10:25:59Z</time>
      </trkpt>
      <trkpt lat="41.3270970" lon="-8.7374540">
        <ele>6.2</ele>
        <time>2021-05-16T10:26:00Z</time>
      </trkpt>
      <trkpt lat="41.3271100" lon="-8.7374630">
        <ele>6.2</ele>
        <time>2021-05-16T10:26:01Z</time>
      </trkpt>
      <trkpt lat="41.3271210" lon="-8.7374730">
        <ele>6.3</ele>
        <time>2021-05-16T10:26:02Z</time>
      </trkpt>
      <trkpt lat="41.3271360" lon="-8.7374760">
        <ele>6.3</ele>
        <time>2021-05-16T10:26:03Z</time>
      </trkpt>
      <trkpt lat="41.3271480" lon="-8.7374830">
        <ele>6.3</ele>
        <time>2021-05-16T10:26:04Z</time>
      </trkpt>
      <trkpt lat="41.3271630" lon="-8.7374900">
        <ele>6.3</ele>
        <time>2021-05-16T10:26:05Z</time>
      </trkpt>
      <trkpt lat="41.3271740" lon="-8.7374980">
        <ele>6.3</ele>
        <time>2021-05-16T10:26:06Z</time>
      </trkpt>
      <trkpt lat="41.3271860" lon="-8.7375080">
        <ele>6.4</ele>
        <time>2021-05-16T10:26:07Z</time>
      </trkpt>
      <trkpt lat="41.3271980" lon="-8.7375190">
        <ele>6.4</ele>
        <time>2021-05-16T10:26:08Z</time>
      </trkpt>
      <trkpt lat="41.3272090" lon="-8.7375310">
        <ele>6.4</ele>
        <time>2021-05-16T10:26:09Z</time>
      </trkpt>
      <trkpt lat="41.3272180" lon="-8.7375440">
        <ele>6.4</ele>
        <time>2021-05-16T10:26:10Z</time>
      </trkpt>
      <trkpt lat="41.3272300" lon="-8.7375570">
        <ele>6.5</ele>
        <time>2021-05-16T10:26:11Z</time>
      </trkpt>
      <trkpt lat="41.3272400" lon="-8.7375700">
        <ele>6.5</ele>
        <time>2021-05-16T10:26:12Z</time>
      </trkpt>
      <trkpt lat="41.3272530" lon="-8.7375810">
        <ele>6.5</ele>
        <time>2021-05-16T10:26:13Z</time>
      </trkpt>
      <trkpt lat="41.3272630" lon="-8.7375930">
        <ele>6.6</ele>
        <time>2021-05-16T10:26:14Z</time>
      </trkpt>
      <trkpt lat="41.3272750" lon="-8.7376080">
        <ele>6.6</ele>
        <time>2021-05-16T10:26:15Z</time>
      </trkpt>
      <trkpt lat="41.3272860" lon="-8.7376210">
        <ele>6.7</ele>
        <time>2021-05-16T10:26:16Z</time>
      </trkpt>
      <trkpt lat="41.3272990" lon="-8.7376340">
        <ele>6.7</ele>
        <time>2021-05-16T10:26:17Z</time>
      </trkpt>
      <trkpt lat="41.3273100" lon="-8.7376450">
        <ele>6.7</ele>
        <time>2021-05-16T10:26:18Z</time>
      </trkpt>
      <trkpt lat="41.3273190" lon="-8.7376620">
        <ele>6.8</ele>
        <time>2021-05-16T10:26:19Z</time>
      </trkpt>
      <trkpt lat="41.3273320" lon="-8.7376680">
        <ele>6.8</ele>
        <time>2021-05-16T10:26:20Z</time>
      </trkpt>
      <trkpt lat="41.3273500" lon="-8.7376860">
        <ele>6.8</ele>
        <time>2021-05-16T10:26:21Z</time>
      </trkpt>
      <trkpt lat="41.3273570" lon="-8.7376960">
        <ele>6.9</ele>
        <time>2021-05-16T10:26:22Z</time>
      </trkpt>
      <trkpt lat="41.3273640" lon="-8.7377050">
        <ele>6.9</ele>
        <time>2021-05-16T10:26:23Z</time>
      </trkpt>
      <trkpt lat="41.3273750" lon="-8.7377160">
        <ele>6.9</ele>
        <time>2021-05-16T10:26:24Z</time>
      </trkpt>
      <trkpt lat="41.3273840" lon="-8.7377310">
        <ele>6.9</ele>
        <time>2021-05-16T10:26:25Z</time>
      </trkpt>
      <trkpt lat="41.3274010" lon="-8.7377490">
        <ele>7.0</ele>
        <time>2021-05-16T10:26:26Z</time>
      </trkpt>
      <trkpt lat="41.3274090" lon="-8.7377560">
        <ele>7.0</ele>
        <time>2021-05-16T10:26:27Z</time>
      </trkpt>
      <trkpt lat="41.3274160" lon="-8.7377630">
        <ele>7.0</ele>
        <time>2021-05-16T10:26:28Z</time>
      </trkpt>
      <trkpt lat="41.3274300" lon="-8.7377720">
        <ele>7.0</ele>
        <time>2021-05-16T10:26:29Z</time>
      </trkpt>
      <trkpt lat="41.3274300" lon="-8.7377810">
        <ele>7.0</ele>
        <time>2021-05-16T10:26:30Z</time>
      </trkpt>
      <trkpt lat="41.3274340" lon="-8.7378020">
        <ele>7.1</ele>
        <time>2021-05-16T10:26:31Z</time>
      </trkpt>
      <trkpt lat="41.3274420" lon="-8.7378170">
        <ele>7.1</ele>
        <time>2021-05-16T10:26:32Z</time>
      </trkpt>
      <trkpt lat="41.3274480" lon="-8.7378260">
        <ele>7.1</ele>
        <time>2021-05-16T10:26:33Z</time>
      </trkpt>
      <trkpt lat="41.3274560" lon="-8.7378330">
        <ele>7.1</ele>
        <time>2021-05-16T10:26:34Z</time>
      </trkpt>
      <trkpt lat="41.3274700" lon="-8.7378590">
        <ele>7.2</ele>
        <time>2021-05-16T10:26:35Z</time>
      </trkpt>
      <trkpt lat="41.3274740" lon="-8.7378680">
        <ele>7.2</ele>
        <time>2021-05-16T10:26:36Z</time>
      </trkpt>
      <trkpt lat="41.3274770" lon="-8.7378760">
        <ele>7.2</ele>
        <time>2021-05-16T10:26:37Z</time>
      </trkpt>
      <trkpt lat="41.3274970" lon="-8.7378880">
        <ele>7.2</ele>
        <time>2021-05-16T10:26:38Z</time>
      </trkpt>
      <trkpt lat="41.3275040" lon="-8.7378920">
        <ele>7.3</ele>
        <time>2021-05-16T10:26:39Z</time>
      </trkpt>
      <trkpt lat="41.3275110" lon="-8.7378960">
        <ele>7.3</ele>
        <time>2021-05-16T10:26:40Z</time>
      </trkpt>
      <trkpt lat="41.3275180" lon="-8.7378970">
        <ele>7.3</ele>
        <time>2021-05-16T10:26:41Z</time>
      </trkpt>
      <trkpt lat="41.3275310" lon="-8.7379030">
        <ele>7.3</ele>
        <time>2021-05-16T10:26:42Z</time>
      </trkpt>
      <trkpt lat="41.3275440" lon="-8.7379030">
        <ele>7.3</ele>
        <time>2021-05-16T10:26:43Z</time>
      </trkpt>
      <trkpt lat="41.3275580" lon="-8.7379040">
        <ele>7.4</ele>
        <time>2021-05-16T10:26:44Z</time>
      </trkpt>
      <trkpt lat="41.3275670" lon="-8.7379040">
        <ele>7.4</ele>
        <time>2021-05-16T10:26:45Z</time>
      </trkpt>
      <trkpt lat="41.3275800" lon="-8.7379040">
        <ele>7.4</ele>
        <time>2021-05-16T10:26:46Z</time>
      </trkpt>
      <trkpt lat="41.3275930" lon="-8.7379050">
        <ele>7.4</ele>
        <time>2021-05-16T10:26:47Z</time>
      </trkpt>
      <trkpt lat="41.3276070" lon="-8.7379000">
        <ele>7.5</ele>
        <time>2021-05-16T10:26:48Z</time>
      </trkpt>
      <trkpt lat="41.3276230" lon="-8.7378960">
        <ele>7.5</ele>
        <time>2021-05-16T10:26:49Z</time>
      </trkpt>
      <trkpt lat="41.3276390" lon="-8.7379000">
        <ele>7.5</ele>
        <time>2021-05-16T10:26:50Z</time>
      </trkpt>
      <trkpt lat="41.3276530" lon="-8.7379000">
        <ele>7.6</ele>
        <time>2021-05-16T10:26:51Z</time>
      </trkpt>
      <trkpt lat="41.3276660" lon="-8.7379020">
        <ele>7.6</ele>
        <time>2021-05-16T10:26:52Z</time>
      </trkpt>
      <trkpt lat="41.3276790" lon="-8.7378970">
        <ele>7.6</ele>
        <time>2021-05-16T10:26:53Z</time>
      </trkpt>
      <trkpt lat="41.3276940" lon="-8.7378910">
        <ele>7.7</ele>
        <time>2021-05-16T10:26:54Z</time>
      </trkpt>
      <trkpt lat="41.3277110" lon="-8.7378950">
        <ele>7.7</ele>
        <time>2021-05-16T10:26:55Z</time>
      </trkpt>
      <trkpt lat="41.3277250" lon="-8.7378980">
        <ele>7.7</ele>
        <time>2021-05-16T10:26:56Z</time>
      </trkpt>
      <trkpt lat="41.3277400" lon="-8.7378930">
        <ele>7.8</ele>
        <time>2021-05-16T10:26:57Z</time>
      </trkpt>
      <trkpt lat="41.3277540" lon="-8.7378930">
        <ele>7.8</ele>
        <time>2021-05-16T10:26:58Z</time>
      </trkpt>
      <trkpt lat="41.3277700" lon="-8.7378900">
        <ele>7.9</ele>
        <time>2021-05-16T10:26:59Z</time>
      </trkpt>
      <trkpt lat="41.3277840" lon="-8.7378890">
        <ele>7.9</ele>
        <time>2021-05-16T10:27:00Z</time>
      </trkpt>
      <trkpt lat="41.3278070" lon="-8.7378950">
        <ele>8.0</ele>
        <time>2021-05-16T10:27:01Z</time>
      </trkpt>
      <trkpt lat="41.3278160" lon="-8.7378950">
        <ele>8.0</ele>
        <time>2021-05-16T10:27:02Z</time>
      </trkpt>
      <trkpt lat="41.3278250" lon="-8.7378960">
        <ele>8.0</ele>
        <time>2021-05-16T10:27:03Z</time>
      </trkpt>
      <trkpt lat="41.3278390" lon="-8.7379020">
        <ele>8.0</ele>
        <time>2021-05-16T10:27:04Z</time>
      </trkpt>
      <trkpt lat="41.3278520" lon="-8.7379040">
        <ele>8.1</ele>
        <time>2021-05-16T10:27:05Z</time>
      </trkpt>
      <trkpt lat="41.3278670" lon="-8.7379130">
        <ele>8.1</ele>
        <time>2021-05-16T10:27:06Z</time>
      </trkpt>
      <trkpt lat="41.3278810" lon="-8.7379150">
        <ele>8.1</ele>
        <time>2021-05-16T10:27:07Z</time>
      </trkpt>
      <trkpt lat="41.3278950" lon="-8.7379240">
        <ele>8.2</ele>
        <time>2021-05-16T10:27:08Z</time>
      </trkpt>
      <trkpt lat="41.3279070" lon="-8.7379310">
        <ele>8.2</ele>
        <time>2021-05-16T10:27:09Z</time>
      </trkpt>
      <trkpt lat="41.3279180" lon="-8.7379400">
        <ele>8.2</ele>
        <time>2021-05-16T10:27:10Z</time>
      </trkpt>
      <trkpt lat="41.3279340" lon="-8.7379460">
        <ele>8.2</ele>
        <time>2021-05-16T10:27:11Z</time>
      </trkpt>
      <trkpt lat="41.3279540" lon="-8.7379600">
        <ele>8.2</ele>
        <time>2021-05-16T10:27:12Z</time>
      </trkpt>
      <trkpt lat="41.3279630" lon="-8.7379660">
        <ele>8.2</ele>
        <time>2021-05-16T10:27:13Z</time>
      </trkpt>
      <trkpt lat="41.3279710" lon="-8.7379730">
        <ele>8.2</ele>
        <time>2021-05-16T10:27:14Z</time>
      </trkpt>
      <trkpt lat="41.3279850" lon="-8.7379760">
        <ele>8.2</ele>
        <time>2021-05-16T10:27:15Z</time>
      </trkpt>
      <trkpt lat="41.3279970" lon="-8.7379870">
        <ele>8.2</ele>
        <time>2021-05-16T10:27:16Z</time>
      </trkpt>
      <trkpt lat="41.3280070" lon="-8.7379980">
        <ele>8.2</ele>
        <time>2021-05-16T10:27:17Z</time>
      </trkpt>
      <trkpt lat="41.3280200" lon="-8.7380100">
        <ele>8.2</ele>
        <time>2021-05-16T10:27:18Z</time>
      </trkpt>
      <trkpt lat="41.3280390" lon="-8.7380260">
        <ele>8.2</ele>
        <time>2021-05-16T10:27:19Z</time>
      </trkpt>
      <trkpt lat="41.3280470" lon="-8.7380310">
        <ele>8.2</ele>
        <time>2021-05-16T10:27:20Z</time>
      </trkpt>
      <trkpt lat="41.3280560" lon="-8.7380350">
        <ele>8.1</ele>
        <time>2021-05-16T10:27:21Z</time>
      </trkpt>
      <trkpt lat="41.3280680" lon="-8.7380470">
        <ele>8.1</ele>
        <time>2021-05-16T10:27:22Z</time>
      </trkpt>
      <trkpt lat="41.3280830" lon="-8.7380520">
        <ele>8.1</ele>
        <time>2021-05-16T10:27:23Z</time>
      </trkpt>
      <trkpt lat="41.3280930" lon="-8.7380670">
        <ele>8.1</ele>
        <time>2021-05-16T10:27:24Z</time>
      </trkpt>
      <trkpt lat="41.3281050" lon="-8.7380770">
        <ele>8.1</ele>
        <time>2021-05-16T10:27:25Z</time>
      </trkpt>
      <trkpt lat="41.3281170" lon="-8.7380860">
        <ele>8.1</ele>
        <time>2021-05-16T10:27:26Z</time>
      </trkpt>
      <trkpt lat="41.3281310" lon="-8.7380930">
        <ele>8.0</ele>
        <time>2021-05-16T10:27:27Z</time>
      </trkpt>
      <trkpt lat="41.3281430" lon="-8.7381030">
        <ele>8.0</ele>
        <time>2021-05-16T10:27:28Z</time>
      </trkpt>
      <trkpt lat="41.3281550" lon="-8.7381140">
        <ele>8.0</ele>
        <time>2021-05-16T10:27:29Z</time>
      </trkpt>
      <trkpt lat="41.3281670" lon="-8.7381260">
        <ele>8.0</ele>
        <time>2021-05-16T10:27:30Z</time>
      </trkpt>
      <trkpt lat="41.3281810" lon="-8.7381320">
        <ele>8.0</ele>
        <time>2021-05-16T10:27:31Z</time>
      </trkpt>
      <trkpt lat="41.3281960" lon="-8.7381410">
        <ele>8.0</ele>
        <time>2021-05-16T10:27:32Z</time>
      </trkpt>
      <trkpt lat="41.3282070" lon="-8.7381530">
        <ele>7.9</ele>
        <time>2021-05-16T10:27:33Z</time>
      </trkpt>
      <trkpt lat="41.3282210" lon="-8.7381580">
        <ele>7.9</ele>
        <time>2021-05-16T10:27:34Z</time>
      </trkpt>
      <trkpt lat="41.3282300" lon="-8.7381740">
        <ele>7.9</ele>
        <time>2021-05-16T10:27:35Z</time>
      </trkpt>
      <trkpt lat="41.3282430" lon="-8.7381830">
        <ele>7.9</ele>
        <time>2021-05-16T10:27:36Z</time>
      </trkpt>
      <trkpt lat="41.3282520" lon="-8.7381970">
        <ele>7.9</ele>
        <time>2021-05-16T10:27:37Z</time>
      </trkpt>
      <trkpt lat="41.3282660" lon="-8.7382030">
        <ele>7.9</ele>
        <time>2021-05-16T10:27:38Z</time>
      </trkpt>
      <trkpt lat="41.3282790" lon="-8.7382120">
        <ele>7.8</ele>
        <time>2021-05-16T10:27:39Z</time>
      </trkpt>
      <trkpt lat="41.3282920" lon="-8.7382250">
        <ele>7.8</ele>
        <time>2021-05-16T10:27:40Z</time>
      </trkpt>
      <trkpt lat="41.3283040" lon="-8.7382340">
        <ele>7.8</ele>
        <time>2021-05-16T10:27:41Z</time>
      </trkpt>
      <trkpt lat="41.3283190" lon="-8.7382390">
        <ele>7.8</ele>
        <time>2021-05-16T10:27:42Z</time>
      </trkpt>
      <trkpt lat="41.3283340" lon="-8.7382460">
        <ele>7.8</ele>
        <time>2021-05-16T10:27:43Z</time>
      </trkpt>
      <trkpt lat="41.3283490" lon="-8.7382500">
        <ele>7.8</ele>
        <time>2021-05-16T10:27:44Z</time>
      </trkpt>
      <trkpt lat="41.3283620" lon="-8.7382570">
        <ele>7.8</ele>
        <time>2021-05-16T10:27:45Z</time>
      </trkpt>
      <trkpt lat="41.3283770" lon="-8.7382620">
        <ele>7.8</ele>
        <time>2021-05-16T10:27:46Z</time>
      </trkpt>
      <trkpt lat="41.3283890" lon="-8.7382690">
        <ele>7.8</ele>
        <time>2021-05-16T10:27:47Z</time>
      </trkpt>
      <trkpt lat="41.3284010" lon="-8.7382810">
        <ele>7.8</ele>
        <time>2021-05-16T10:27:48Z</time>
      </trkpt>
      <trkpt lat="41.3284150" lon="-8.7382830">
        <ele>7.8</ele>
        <time>2021-05-16T10:27:49Z</time>
      </trkpt>
      <trkpt lat="41.3284270" lon="-8.7382940">
        <ele>7.8</ele>
        <time>2021-05-16T10:27:50Z</time>
      </trkpt>
      <trkpt lat="41.3284400" lon="-8.7382990">
        <ele>7.8</ele>
        <time>2021-05-16T10:27:51Z</time>
      </trkpt>
      <trkpt lat="41.3284540" lon="-8.7383060">
        <ele>7.8</ele>
        <time>2021-05-16T10:27:52Z</time>
      </trkpt>
      <trkpt lat="41.3284650" lon="-8.7383110">
        <ele>7.8</ele>
        <time>2021-05-16T10:27:53Z</time>
      </trkpt>
      <trkpt lat="41.3284710" lon="-8.7383150">
        <ele>7.8</ele>
        <time>2021-05-16T10:27:54Z</time>
      </trkpt>
      <trkpt lat="41.3284780" lon="-8.7383290">
        <ele>7.8</ele>
        <time>2021-05-16T10:27:55Z</time>
      </trkpt>
      <trkpt lat="41.3284910" lon="-8.7383360">
        <ele>7.8</ele>
        <time>2021-05-16T10:27:56Z</time>
      </trkpt>
      <trkpt lat="41.3285000" lon="-8.7383400">
        <ele>7.8</ele>
        <time>2021-05-16T10:27:57Z</time>
      </trkpt>
      <trkpt lat="41.3285120" lon="-8.7383510">
        <ele>7.8</ele>
        <time>2021-05-16T10:27:58Z</time>
      </trkpt>
      <trkpt lat="41.3285250" lon="-8.7383630">
        <ele>7.8</ele>
        <time>2021-05-16T10:27:59Z</time>
      </trkpt>
      <trkpt lat="41.3285290" lon="-8.7383670">
        <ele>7.8</ele>
        <time>2021-05-16T10:28:00Z</time>
      </trkpt>
      <trkpt lat="41.3285430" lon="-8.7383800">
        <ele>7.9</ele>
        <time>2021-05-16T10:28:01Z</time>
      </trkpt>
      <trkpt lat="41.3285470" lon="-8.7383860">
        <ele>7.9</ele>
        <time>2021-05-16T10:28:02Z</time>
      </trkpt>
      <trkpt lat="41.3285610" lon="-8.7383960">
        <ele>7.9</ele>
        <time>2021-05-16T10:28:03Z</time>
      </trkpt>
      <trkpt lat="41.3285730" lon="-8.7384050">
        <ele>7.9</ele>
        <time>2021-05-16T10:28:04Z</time>
      </trkpt>
      <trkpt lat="41.3285870" lon="-8.7384130">
        <ele>7.9</ele>
        <time>2021-05-16T10:28:05Z</time>
      </trkpt>
      <trkpt lat="41.3285950" lon="-8.7384200">
        <ele>7.9</ele>
        <time>2021-05-16T10:28:06Z</time>
      </trkpt>
      <trkpt lat="41.3286040" lon="-8.7384250">
        <ele>8.0</ele>
        <time>2021-05-16T10:28:07Z</time>
      </trkpt>
      <trkpt lat="41.3286190" lon="-8.7384270">
        <ele>8.0</ele>
        <time>2021-05-16T10:28:08Z</time>
      </trkpt>
      <trkpt lat="41.3286330" lon="-8.7384300">
        <ele>8.0</ele>
        <time>2021-05-16T10:28:09Z</time>
      </trkpt>
      <trkpt lat="41.3286450" lon="-8.7384310">
        <ele>8.0</ele>
        <time>2021-05-16T10:28:10Z</time>
      </trkpt>
      <trkpt lat="41.3286610" lon="-8.7384320">
        <ele>8.0</ele>
        <time>2021-05-16T10:28:11Z</time>
      </trkpt>
      <trkpt lat="41.3286810" lon="-8.7384400">
        <ele>8.1</ele>
        <time>2021-05-16T10:28:12Z</time>
      </trkpt>
      <trkpt lat="41.3286890" lon="-8.7384410">
        <ele>8.1</ele>
        <time>2021-05-16T10:28:13Z</time>
      </trkpt>
      <trkpt lat="41.3286970" lon="-8.7384420">
        <ele>8.1</ele>
        <time>2021-05-16T10:28:14Z</time>
      </trkpt>
      <trkpt lat="41.3287100" lon="-8.7384420">
        <ele>8.1</ele>
        <time>2021-05-16T10:28:15Z</time>
      </trkpt>
      <trkpt lat="41.3287180" lon="-8.7384520">
        <ele>8.1</ele>
        <time>2021-05-16T10:28:16Z</time>
      </trkpt>
      <trkpt lat="41.3287290" lon="-8.7384540">
        <ele>8.1</ele>
        <time>2021-05-16T10:28:17Z</time>
      </trkpt>
      <trkpt lat="41.3287430" lon="-8.7384590">
        <ele>8.2</ele>
        <time>2021-05-16T10:28:18Z</time>
      </trkpt>
      <trkpt lat="41.3287530" lon="-8.7384600">
        <ele>8.2</ele>
        <time>2021-05-16T10:28:19Z</time>
      </trkpt>
      <trkpt lat="41.3287640" lon="-8.7384620">
        <ele>8.2</ele>
        <time>2021-05-16T10:28:20Z</time>
      </trkpt>
      <trkpt lat="41.3287780" lon="-8.7384650">
        <ele>8.2</ele>
        <time>2021-05-16T10:28:21Z</time>
      </trkpt>
      <trkpt lat="41.3287940" lon="-8.7384670">
        <ele>8.2</ele>
        <time>2021-05-16T10:28:22Z</time>
      </trkpt>
      <trkpt lat="41.3288080" lon="-8.7384700">
        <ele>8.2</ele>
        <time>2021-05-16T10:28:23Z</time>
      </trkpt>
      <trkpt lat="41.3288230" lon="-8.7384680">
        <ele>8.2</ele>
        <time>2021-05-16T10:28:24Z</time>
      </trkpt>
      <trkpt lat="41.3288390" lon="-8.7384690">
        <ele>8.3</ele>
        <time>2021-05-16T10:28:25Z</time>
      </trkpt>
      <trkpt lat="41.3288560" lon="-8.7384700">
        <ele>8.3</ele>
        <time>2021-05-16T10:28:26Z</time>
      </trkpt>
      <trkpt lat="41.3288720" lon="-8.7384750">
        <ele>8.3</ele>
        <time>2021-05-16T10:28:27Z</time>
      </trkpt>
      <trkpt lat="41.3288880" lon="-8.7384720">
        <ele>8.3</ele>
        <time>2021-05-16T10:28:28Z</time>
      </trkpt>
      <trkpt lat="41.3289030" lon="-8.7384680">
        <ele>8.3</ele>
        <time>2021-05-16T10:28:29Z</time>
      </trkpt>
      <trkpt lat="41.3289180" lon="-8.7384660">
        <ele>8.3</ele>
        <time>2021-05-16T10:28:30Z</time>
      </trkpt>
      <trkpt lat="41.3289340" lon="-8.7384720">
        <ele>8.3</ele>
        <time>2021-05-16T10:28:31Z</time>
      </trkpt>
      <trkpt lat="41.3289500" lon="-8.7384720">
        <ele>8.3</ele>
        <time>2021-05-16T10:28:32Z</time>
      </trkpt>
      <trkpt lat="41.3289670" lon="-8.7384750">
        <ele>8.3</ele>
        <time>2021-05-16T10:28:33Z</time>
      </trkpt>
      <trkpt lat="41.3289810" lon="-8.7384750">
        <ele>8.3</ele>
        <time>2021-05-16T10:28:34Z</time>
      </trkpt>
      <trkpt lat="41.3289970" lon="-8.7384740">
        <ele>8.3</ele>
        <time>2021-05-16T10:28:35Z</time>
      </trkpt>
      <trkpt lat="41.3290110" lon="-8.7384690">
        <ele>8.3</ele>
        <time>2021-05-16T10:28:36Z</time>
      </trkpt>
      <trkpt lat="41.3290280" lon="-8.7384750">
        <ele>8.3</ele>
        <time>2021-05-16T10:28:37Z</time>
      </trkpt>
      <trkpt lat="41.3290420" lon="-8.7384710">
        <ele>8.3</ele>
        <time>2021-05-16T10:28:38Z</time>
      </trkpt>
      <trkpt lat="41.3290580" lon="-8.7384770">
        <ele>8.3</ele>
        <time>2021-05-16T10:28:39Z</time>
      </trkpt>
      <trkpt lat="41.3290720" lon="-8.7384710">
        <ele>8.3</ele>
        <time>2021-05-16T10:28:40Z</time>
      </trkpt>
      <trkpt lat="41.3290860" lon="-8.7384730">
        <ele>8.3</ele>
        <time>2021-05-16T10:28:41Z</time>
      </trkpt>
      <trkpt lat="41.3291010" lon="-8.7384790">
        <ele>8.3</ele>
        <time>2021-05-16T10:28:42Z</time>
      </trkpt>
      <trkpt lat="41.3291140" lon="-8.7384850">
        <ele>8.3</ele>
        <time>2021-05-16T10:28:43Z</time>
      </trkpt>
      <trkpt lat="41.3291280" lon="-8.7384870">
        <ele>8.3</ele>
        <time>2021-05-16T10:28:44Z</time>
      </trkpt>
      <trkpt lat="41.3291420" lon="-8.7384910">
        <ele>8.3</ele>
        <time>2021-05-16T10:28:45Z</time>
      </trkpt>
      <trkpt lat="41.3291560" lon="-8.7384930">
        <ele>8.3</ele>
        <time>2021-05-16T10:28:46Z</time>
      </trkpt>
      <trkpt lat="41.3291700" lon="-8.7384970">
        <ele>8.3</ele>
        <time>2021-05-16T10:28:47Z</time>
      </trkpt>
      <trkpt lat="41.3291840" lon="-8.7385010">
        <ele>8.3</ele>
        <time>2021-05-16T10:28:48Z</time>
      </trkpt>
      <trkpt lat="41.3291990" lon="-8.7385010">
        <ele>8.3</ele>
        <time>2021-05-16T10:28:49Z</time>
      </trkpt>
      <trkpt lat="41.3292140" lon="-8.7385030">
        <ele>8.3</ele>
        <time>2021-05-16T10:28:50Z</time>
      </trkpt>
      <trkpt lat="41.3292290" lon="-8.7385080">
        <ele>8.3</ele>
        <time>2021-05-16T10:28:51Z</time>
      </trkpt>
      <trkpt lat="41.3292420" lon="-8.7385130">
        <ele>8.3</ele>
        <time>2021-05-16T10:28:52Z</time>
      </trkpt>
      <trkpt lat="41.3292550" lon="-8.7385190">
        <ele>8.2</ele>
        <time>2021-05-16T10:28:53Z</time>
      </trkpt>
      <trkpt lat="41.3292670" lon="-8.7385240">
        <ele>8.2</ele>
        <time>2021-05-16T10:28:54Z</time>
      </trkpt>
      <trkpt lat="41.3292810" lon="-8.7385300">
        <ele>8.2</ele>
        <time>2021-05-16T10:28:55Z</time>
      </trkpt>
      <trkpt lat="41.3292940" lon="-8.7385360">
        <ele>8.2</ele>
        <time>2021-05-16T10:28:56Z</time>
      </trkpt>
      <trkpt lat="41.3293070" lon="-8.7385360">
        <ele>8.2</ele>
        <time>2021-05-16T10:28:57Z</time>
      </trkpt>
      <trkpt lat="41.3293210" lon="-8.7385350">
        <ele>8.2</ele>
        <time>2021-05-16T10:28:58Z</time>
      </trkpt>
      <trkpt lat="41.3293360" lon="-8.7385360">
        <ele>8.2</ele>
        <time>2021-05-16T10:28:59Z</time>
      </trkpt>
      <trkpt lat="41.3293510" lon="-8.7385400">
        <ele>8.2</ele>
        <time>2021-05-16T10:29:00Z</time>
      </trkpt>
      <trkpt lat="41.3293660" lon="-8.7385420">
        <ele>8.2</ele>
        <time>2021-05-16T10:29:01Z</time>
      </trkpt>
      <trkpt lat="41.3293790" lon="-8.7385440">
        <ele>8.2</ele>
        <time>2021-05-16T10:29:02Z</time>
      </trkpt>
      <trkpt lat="41.3293920" lon="-8.7385420">
        <ele>8.2</ele>
        <time>2021-05-16T10:29:03Z</time>
      </trkpt>
      <trkpt lat="41.3294070" lon="-8.7385480">
        <ele>8.2</ele>
        <time>2021-05-16T10:29:04Z</time>
      </trkpt>
      <trkpt lat="41.3294200" lon="-8.7385510">
        <ele>8.2</ele>
        <time>2021-05-16T10:29:05Z</time>
      </trkpt>
      <trkpt lat="41.3294350" lon="-8.7385530">
        <ele>8.2</ele>
        <time>2021-05-16T10:29:06Z</time>
      </trkpt>
      <trkpt lat="41.3294500" lon="-8.7385560">
        <ele>8.2</ele>
        <time>2021-05-16T10:29:07Z</time>
      </trkpt>
      <trkpt lat="41.3294640" lon="-8.7385570">
        <ele>8.1</ele>
        <time>2021-05-16T10:29:08Z</time>
      </trkpt>
      <trkpt lat="41.3294780" lon="-8.7385610">
        <ele>8.1</ele>
        <time>2021-05-16T10:29:09Z</time>
      </trkpt>
      <trkpt lat="41.3294910" lon="-8.7385620">
        <ele>8.1</ele>
        <time>2021-05-16T10:29:10Z</time>
      </trkpt>
      <trkpt lat="41.3295070" lon="-8.7385650">
        <ele>8.1</ele>
        <time>2021-05-16T10:29:11Z</time>
      </trkpt>
      <trkpt lat="41.3295190" lon="-8.7385670">
        <ele>8.1</ele>
        <time>2021-05-16T10:29:12Z</time>
      </trkpt>
      <trkpt lat="41.3295340" lon="-8.7385720">
        <ele>8.1</ele>
        <time>2021-05-16T10:29:13Z</time>
      </trkpt>
      <trkpt lat="41.3295480" lon="-8.7385730">
        <ele>8.1</ele>
        <time>2021-05-16T10:29:14Z</time>
      </trkpt>
      <trkpt lat="41.3295620" lon="-8.7385740">
        <ele>8.1</ele>
        <time>2021-05-16T10:29:15Z</time>
      </trkpt>
      <trkpt lat="41.3295770" lon="-8.7385800">
        <ele>8.1</ele>
        <time>2021-05-16T10:29:16Z</time>
      </trkpt>
      <trkpt lat="41.3295920" lon="-8.7385830">
        <ele>8.1</ele>
        <time>2021-05-16T10:29:17Z</time>
      </trkpt>
      <trkpt lat="41.3296050" lon="-8.7385880">
        <ele>8.1</ele>
        <time>2021-05-16T10:29:18Z</time>
      </trkpt>
      <trkpt lat="41.3296200" lon="-8.7385890">
        <ele>8.1</ele>
        <time>2021-05-16T10:29:19Z</time>
      </trkpt>
      <trkpt lat="41.3296320" lon="-8.7385890">
        <ele>8.1</ele>
        <time>2021-05-16T10:29:20Z</time>
      </trkpt>
      <trkpt lat="41.3296460" lon="-8.7385880">
        <ele>8.1</ele>
        <time>2021-05-16T10:29:21Z</time>
      </trkpt>
      <trkpt lat="41.3296610" lon="-8.7385960">
        <ele>8.1</ele>
        <time>2021-05-16T10:29:22Z</time>
      </trkpt>
      <trkpt lat="41.3296800" lon="-8.7386000">
        <ele>8.1</ele>
        <time>2021-05-16T10:29:23Z</time>
      </trkpt>
      <trkpt lat="41.3296880" lon="-8.7386050">
        <ele>8.1</ele>
        <time>2021-05-16T10:29:24Z</time>
      </trkpt>
      <trkpt lat="41.3296960" lon="-8.7386100">
        <ele>8.1</ele>
        <time>2021-05-16T10:29:25Z</time>
      </trkpt>
      <trkpt lat="41.3297170" lon="-8.7386160">
        <ele>8.1</ele>
        <time>2021-05-16T10:29:26Z</time>
      </trkpt>
      <trkpt lat="41.3297270" lon="-8.7386170">
        <ele>8.1</ele>
        <time>2021-05-16T10:29:27Z</time>
      </trkpt>
      <trkpt lat="41.3297370" lon="-8.7386180">
        <ele>8.1</ele>
        <time>2021-05-16T10:29:28Z</time>
      </trkpt>
      <trkpt lat="41.3297510" lon="-8.7386200">
        <ele>8.1</ele>
        <time>2021-05-16T10:29:29Z</time>
      </trkpt>
      <trkpt lat="41.3297640" lon="-8.7386260">
        <ele>8.0</ele>
        <time>2021-05-16T10:29:30Z</time>
      </trkpt>
      <trkpt lat="41.3297860" lon="-8.7386260">
        <ele>8.0</ele>
        <time>2021-05-16T10:29:31Z</time>
      </trkpt>
      <trkpt lat="41.3297960" lon="-8.7386260">
        <ele>8.0</ele>
        <time>2021-05-16T10:29:32Z</time>
      </trkpt>
      <trkpt lat="41.3298050" lon="-8.7386260">
        <ele>8.0</ele>
        <time>2021-05-16T10:29:33Z</time>
      </trkpt>
      <trkpt lat="41.3298180" lon="-8.7386320">
        <ele>8.0</ele>
        <time>2021-05-16T10:29:34Z</time>
      </trkpt>
      <trkpt lat="41.3298320" lon="-8.7386310">
        <ele>8.0</ele>
        <time>2021-05-16T10:29:35Z</time>
      </trkpt>
      <trkpt lat="41.3298530" lon="-8.7386360">
        <ele>7.9</ele>
        <time>2021-05-16T10:29:36Z</time>
      </trkpt>
      <trkpt lat="41.3298620" lon="-8.7386390">
        <ele>7.9</ele>
        <time>2021-05-16T10:29:37Z</time>
      </trkpt>
      <trkpt lat="41.3298700" lon="-8.7386410">
        <ele>7.9</ele>
        <time>2021-05-16T10:29:38Z</time>
      </trkpt>
      <trkpt lat="41.3298900" lon="-8.7386490">
        <ele>7.9</ele>
        <time>2021-05-16T10:29:39Z</time>
      </trkpt>
      <trkpt lat="41.3298990" lon="-8.7386500">
        <ele>7.8</ele>
        <time>2021-05-16T10:29:40Z</time>
      </trkpt>
      <trkpt lat="41.3299070" lon="-8.7386510">
        <ele>7.8</ele>
        <time>2021-05-16T10:29:41Z</time>
      </trkpt>
      <trkpt lat="41.3299200" lon="-8.7386500">
        <ele>7.8</ele>
        <time>2021-05-16T10:29:42Z</time>
      </trkpt>
      <trkpt lat="41.3299340" lon="-8.7386540">
        <ele>7.8</ele>
        <time>2021-05-16T10:29:43Z</time>
      </trkpt>
      <trkpt lat="41.3299470" lon="-8.7386580">
        <ele>7.7</ele>
        <time>2021-05-16T10:29:44Z</time>
      </trkpt>
      <trkpt lat="41.3299610" lon="-8.7386610">
        <ele>7.7</ele>
        <time>2021-05-16T10:29:45Z</time>
      </trkpt>
      <trkpt lat="41.3299810" lon="-8.7386670">
        <ele>7.7</ele>
        <time>2021-05-16T10:29:46Z</time>
      </trkpt>
      <trkpt lat="41.3299900" lon="-8.7386680">
        <ele>7.6</ele>
        <time>2021-05-16T10:29:47Z</time>
      </trkpt>
      <trkpt lat="41.3299980" lon="-8.7386700">
        <ele>7.6</ele>
        <time>2021-05-16T10:29:48Z</time>
      </trkpt>
      <trkpt lat="41.3300180" lon="-8.7386730">
        <ele>7.6</ele>
        <time>2021-05-16T10:29:49Z</time>
      </trkpt>
      <trkpt lat="41.3300270" lon="-8.7386770">
        <ele>7.6</ele>
        <time>2021-05-16T10:29:50Z</time>
      </trkpt>
      <trkpt lat="41.3300360" lon="-8.7386800">
        <ele>7.5</ele>
        <time>2021-05-16T10:29:51Z</time>
      </trkpt>
      <trkpt lat="41.3300560" lon="-8.7386810">
        <ele>7.5</ele>
        <time>2021-05-16T10:29:52Z</time>
      </trkpt>
      <trkpt lat="41.3300650" lon="-8.7386830">
        <ele>7.5</ele>
        <time>2021-05-16T10:29:53Z</time>
      </trkpt>
      <trkpt lat="41.3300730" lon="-8.7386840">
        <ele>7.5</ele>
        <time>2021-05-16T10:29:54Z</time>
      </trkpt>
      <trkpt lat="41.3300840" lon="-8.7386870">
        <ele>7.4</ele>
        <time>2021-05-16T10:29:55Z</time>
      </trkpt>
      <trkpt lat="41.3300950" lon="-8.7386930">
        <ele>7.3</ele>
        <time>2021-05-16T10:29:56Z</time>
      </trkpt>
      <trkpt lat="41.3301070" lon="-8.7386940">
        <ele>7.3</ele>
        <time>2021-05-16T10:29:57Z</time>
      </trkpt>
      <trkpt lat="41.3301210" lon="-8.7386970">
        <ele>7.3</ele>
        <time>2021-05-16T10:29:58Z</time>
      </trkpt>
      <trkpt lat="41.3301310" lon="-8.7386940">
        <ele>7.3</ele>
        <time>2021-05-16T10:29:59Z</time>
      </trkpt>
      <trkpt lat="41.3301430" lon="-8.7386950">
        <ele>7.3</ele>
        <time>2021-05-16T10:30:00Z</time>
      </trkpt>
      <trkpt lat="41.3301630" lon="-8.7386950">
        <ele>7.3</ele>
        <time>2021-05-16T10:30:01Z</time>
      </trkpt>
      <trkpt lat="41.3301720" lon="-8.7386930">
        <ele>7.3</ele>
        <time>2021-05-16T10:30:02Z</time>
      </trkpt>
      <trkpt lat="41.3301810" lon="-8.7386920">
        <ele>7.3</ele>
        <time>2021-05-16T10:30:03Z</time>
      </trkpt>
      <trkpt lat="41.3301900" lon="-8.7386890">
        <ele>7.3</ele>
        <time>2021-05-16T10:30:04Z</time>
      </trkpt>
      <trkpt lat="41.3302000" lon="-8.7386800">
        <ele>7.3</ele>
        <time>2021-05-16T10:30:05Z</time>
      </trkpt>
      <trkpt lat="41.3302110" lon="-8.7386740">
        <ele>7.3</ele>
        <time>2021-05-16T10:30:06Z</time>
      </trkpt>
      <trkpt lat="41.3302250" lon="-8.7386680">
        <ele>7.3</ele>
        <time>2021-05-16T10:30:07Z</time>
      </trkpt>
      <trkpt lat="41.3302390" lon="-8.7386700">
        <ele>7.3</ele>
        <time>2021-05-16T10:30:08Z</time>
      </trkpt>
      <trkpt lat="41.3302530" lon="-8.7386790">
        <ele>7.3</ele>
        <time>2021-05-16T10:30:09Z</time>
      </trkpt>
      <trkpt lat="41.3302670" lon="-8.7386880">
        <ele>7.3</ele>
        <time>2021-05-16T10:30:10Z</time>
      </trkpt>
      <trkpt lat="41.3302820" lon="-8.7386900">
        <ele>7.3</ele>
        <time>2021-05-16T10:30:11Z</time>
      </trkpt>
      <trkpt lat="41.3302970" lon="-8.7386910">
        <ele>7.3</ele>
        <time>2021-05-16T10:30:12Z</time>
      </trkpt>
      <trkpt lat="41.3303120" lon="-8.7386960">
        <ele>7.3</ele>
        <time>2021-05-16T10:30:13Z</time>
      </trkpt>
      <trkpt lat="41.3303270" lon="-8.7387030">
        <ele>7.3</ele>
        <time>2021-05-16T10:30:14Z</time>
      </trkpt>
      <trkpt lat="41.3303410" lon="-8.7387110">
        <ele>7.3</ele>
        <time>2021-05-16T10:30:15Z</time>
      </trkpt>
      <trkpt lat="41.3303550" lon="-8.7387190">
        <ele>7.3</ele>
        <time>2021-05-16T10:30:16Z</time>
      </trkpt>
      <trkpt lat="41.3303670" lon="-8.7387290">
        <ele>7.3</ele>
        <time>2021-05-16T10:30:17Z</time>
      </trkpt>
      <trkpt lat="41.3303800" lon="-8.7387380">
        <ele>7.3</ele>
        <time>2021-05-16T10:30:18Z</time>
      </trkpt>
      <trkpt lat="41.3303950" lon="-8.7387440">
        <ele>7.3</ele>
        <time>2021-05-16T10:30:19Z</time>
      </trkpt>
      <trkpt lat="41.3304100" lon="-8.7387450">
        <ele>7.3</ele>
        <time>2021-05-16T10:30:20Z</time>
      </trkpt>
      <trkpt lat="41.3304320" lon="-8.7387510">
        <ele>7.3</ele>
        <time>2021-05-16T10:30:21Z</time>
      </trkpt>
      <trkpt lat="41.3304410" lon="-8.7387560">
        <ele>7.3</ele>
        <time>2021-05-16T10:30:22Z</time>
      </trkpt>
      <trkpt lat="41.3304500" lon="-8.7387610">
        <ele>7.3</ele>
        <time>2021-05-16T10:30:23Z</time>
      </trkpt>
      <trkpt lat="41.3304600" lon="-8.7387660">
        <ele>7.3</ele>
        <time>2021-05-16T10:30:24Z</time>
      </trkpt>
      <trkpt lat="41.3304650" lon="-8.7387750">
        <ele>7.3</ele>
        <time>2021-05-16T10:30:25Z</time>
      </trkpt>
      <trkpt lat="41.3304710" lon="-8.7387780">
        <ele>7.3</ele>
        <time>2021-05-16T10:30:26Z</time>
      </trkpt>
      <trkpt lat="41.3304770" lon="-8.7387790">
        <ele>7.3</ele>
        <time>2021-05-16T10:30:27Z</time>
      </trkpt>
      <trkpt lat="41.3304860" lon="-8.7387790">
        <ele>7.3</ele>
        <time>2021-05-16T10:30:28Z</time>
      </trkpt>
      <trkpt lat="41.3304920" lon="-8.7387750">
        <ele>7.3</ele>
        <time>2021-05-16T10:30:29Z</time>
      </trkpt>
      <trkpt lat="41.3304990" lon="-8.7387720">
        <ele>7.3</ele>
        <time>2021-05-16T10:30:30Z</time>
      </trkpt>
      <trkpt lat="41.3305050" lon="-8.7387680">
        <ele>7.3</ele>
        <time>2021-05-16T10:30:31Z</time>
      </trkpt>
      <trkpt lat="41.3305120" lon="-8.7387640">
        <ele>7.3</ele>
        <time>2021-05-16T10:30:32Z</time>
      </trkpt>
      <trkpt lat="41.3305230" lon="-8.7387590">
        <ele>7.3</ele>
        <time>2021-05-16T10:30:33Z</time>
      </trkpt>
      <trkpt lat="41.3305310" lon="-8.7387550">
        <ele>7.3</ele>
        <time>2021-05-16T10:30:34Z</time>
      </trkpt>
      <trkpt lat="41.3305400" lon="-8.7387470">
        <ele>7.3</ele>
        <time>2021-05-16T10:30:35Z</time>
      </trkpt>
      <trkpt lat="41.3305650" lon="-8.7387450">
        <ele>7.3</ele>
        <time>2021-05-16T10:30:36Z</time>
      </trkpt>
      <trkpt lat="41.3305720" lon="-8.7387470">
        <ele>7.3</ele>
        <time>2021-05-16T10:30:37Z</time>
      </trkpt>
      <trkpt lat="41.3305800" lon="-8.7387480">
        <ele>7.3</ele>
        <time>2021-05-16T10:30:38Z</time>
      </trkpt>
      <trkpt lat="41.3305990" lon="-8.7387620">
        <ele>7.3</ele>
        <time>2021-05-16T10:30:39Z</time>
      </trkpt>
      <trkpt lat="41.3306080" lon="-8.7387650">
        <ele>7.3</ele>
        <time>2021-05-16T10:30:40Z</time>
      </trkpt>
      <trkpt lat="41.3306170" lon="-8.7387680">
        <ele>7.3</ele>
        <time>2021-05-16T10:30:41Z</time>
      </trkpt>
      <trkpt lat="41.3306200" lon="-8.7387740">
        <ele>7.3</ele>
        <time>2021-05-16T10:30:42Z</time>
      </trkpt>
      <trkpt lat="41.3306380" lon="-8.7387770">
        <ele>7.3</ele>
        <time>2021-05-16T10:30:43Z</time>
      </trkpt>
      <trkpt lat="41.3306420" lon="-8.7387920">
        <ele>7.3</ele>
        <time>2021-05-16T10:30:44Z</time>
      </trkpt>
      <trkpt lat="41.3306540" lon="-8.7388040">
        <ele>7.3</ele>
        <time>2021-05-16T10:30:45Z</time>
      </trkpt>
      <trkpt lat="41.3306560" lon="-8.7388110">
        <ele>7.3</ele>
        <time>2021-05-16T10:30:46Z</time>
      </trkpt>
      <trkpt lat="41.3306650" lon="-8.7388140">
        <ele>7.3</ele>
        <time>2021-05-16T10:30:47Z</time>
      </trkpt>
      <trkpt lat="41.3306660" lon="-8.7388190">
        <ele>7.3</ele>
        <time>2021-05-16T10:30:48Z</time>
      </trkpt>
      <trkpt lat="41.3306610" lon="-8.7388190">
        <ele>7.3</ele>
        <time>2021-05-16T10:30:49Z</time>
      </trkpt>
      <trkpt lat="41.3306590" lon="-8.7388210">
        <ele>7.3</ele>
        <time>2021-05-16T10:30:50Z</time>
      </trkpt>
      <trkpt lat="41.3306590" lon="-8.7388170">
        <ele>7.3</ele>
        <time>2021-05-16T10:30:51Z</time>
      </trkpt>
      <trkpt lat="41.3306570" lon="-8.7388180">
        <ele>7.3</ele>
        <time>2021-05-16T10:30:52Z</time>
      </trkpt>
      <trkpt lat="41.3306560" lon="-8.7388130">
        <ele>7.3</ele>
        <time>2021-05-16T10:30:53Z</time>
      </trkpt>
      <trkpt lat="41.3306550" lon="-8.7388120">
        <ele>7.3</ele>
        <time>2021-05-16T10:30:54Z</time>
      </trkpt>
      <trkpt lat="41.3306540" lon="-8.7388110">
        <ele>7.3</ele>
        <time>2021-05-16T10:30:55Z</time>
      </trkpt>
      <trkpt lat="41.3306540" lon="-8.7388110">
        <ele>7.3</ele>
        <time>2021-05-16T10:30:56Z</time>
      </trkpt>
      <trkpt lat="41.3306410" lon="-8.7388010">
        <ele>7.3</ele>
        <time>2021-05-16T10:30:57Z</time>
      </trkpt>
      <trkpt lat="41.3306410" lon="-8.7388020">
        <ele>7.3</ele>
        <time>2021-05-16T10:30:58Z</time>
      </trkpt>
      <trkpt lat="41.3306380" lon="-8.7388030">
        <ele>7.3</ele>
        <time>2021-05-16T10:30:59Z</time>
      </trkpt>
      <trkpt lat="41.3306360" lon="-8.7387990">
        <ele>7.3</ele>
        <time>2021-05-16T10:31:00Z</time>
      </trkpt>
      <trkpt lat="41.3306320" lon="-8.7388070">
        <ele>7.3</ele>
        <time>2021-05-16T10:31:01Z</time>
      </trkpt>
      <trkpt lat="41.3306340" lon="-8.7388040">
        <ele>7.3</ele>
        <time>2021-05-16T10:31:02Z</time>
      </trkpt>
      <trkpt lat="41.3306370" lon="-8.7388020">
        <ele>7.3</ele>
        <time>2021-05-16T10:31:03Z</time>
      </trkpt>
      <trkpt lat="41.3306370" lon="-8.7388000">
        <ele>7.3</ele>
        <time>2021-05-16T10:31:04Z</time>
      </trkpt>
      <trkpt lat="41.3306400" lon="-8.7387920">
        <ele>7.3</ele>
        <time>2021-05-16T10:31:05Z</time>
      </trkpt>
      <trkpt lat="41.3306420" lon="-8.7387850">
        <ele>7.2</ele>
        <time>2021-05-16T10:31:06Z</time>
      </trkpt>
      <trkpt lat="41.3306460" lon="-8.7387750">
        <ele>7.2</ele>
        <time>2021-05-16T10:31:07Z</time>
      </trkpt>
      <trkpt lat="41.3306500" lon="-8.7387650">
        <ele>7.2</ele>
        <time>2021-05-16T10:31:08Z</time>
      </trkpt>
      <trkpt lat="41.3306510" lon="-8.7387590">
        <ele>7.2</ele>
        <time>2021-05-16T10:31:09Z</time>
      </trkpt>
      <trkpt lat="41.3306520" lon="-8.7387560">
        <ele>7.2</ele>
        <time>2021-05-16T10:31:10Z</time>
      </trkpt>
      <trkpt lat="41.3306540" lon="-8.7387510">
        <ele>7.2</ele>
        <time>2021-05-16T10:31:11Z</time>
      </trkpt>
      <trkpt lat="41.3306510" lon="-8.7387470">
        <ele>7.2</ele>
        <time>2021-05-16T10:31:12Z</time>
      </trkpt>
      <trkpt lat="41.3306500" lon="-8.7387380">
        <ele>7.2</ele>
        <time>2021-05-16T10:31:13Z</time>
      </trkpt>
      <trkpt lat="41.3306510" lon="-8.7387310">
        <ele>7.2</ele>
        <time>2021-05-16T10:31:14Z</time>
      </trkpt>
      <trkpt lat="41.3306550" lon="-8.7387290">
        <ele>7.2</ele>
        <time>2021-05-16T10:31:15Z</time>
      </trkpt>
      <trkpt lat="41.3306560" lon="-8.7387280">
        <ele>7.2</ele>
        <time>2021-05-16T10:31:16Z</time>
      </trkpt>
      <trkpt lat="41.3306550" lon="-8.7387250">
        <ele>7.2</ele>
        <time>2021-05-16T10:31:17Z</time>
      </trkpt>
      <trkpt lat="41.3306570" lon="-8.7387210">
        <ele>7.2</ele>
        <time>2021-05-16T10:31:18Z</time>
      </trkpt>
      <trkpt lat="41.3306610" lon="-8.7387190">
        <ele>7.2</ele>
        <time>2021-05-16T10:31:19Z</time>
      </trkpt>
      <trkpt lat="41.3306660" lon="-8.7387250">
        <ele>7.2</ele>
        <time>2021-05-16T10:31:20Z</time>
      </trkpt>
      <trkpt lat="41.3306690" lon="-8.7387290">
        <ele>7.2</ele>
        <time>2021-05-16T10:31:21Z</time>
      </trkpt>
      <trkpt lat="41.3306740" lon="-8.7387320">
        <ele>7.2</ele>
        <time>2021-05-16T10:31:22Z</time>
      </trkpt>
      <trkpt lat="41.3306760" lon="-8.7387360">
        <ele>7.2</ele>
        <time>2021-05-16T10:31:23Z</time>
      </trkpt>
      <trkpt lat="41.3306780" lon="-8.7387360">
        <ele>7.2</ele>
        <time>2021-05-16T10:31:24Z</time>
      </trkpt>
      <trkpt lat="41.3306790" lon="-8.7387400">
        <ele>7.2</ele>
        <time>2021-05-16T10:31:25Z</time>
      </trkpt>
      <trkpt lat="41.3306790" lon="-8.7387450">
        <ele>7.2</ele>
        <time>2021-05-16T10:31:26Z</time>
      </trkpt>
      <trkpt lat="41.3306780" lon="-8.7387490">
        <ele>7.2</ele>
        <time>2021-05-16T10:31:27Z</time>
      </trkpt>
      <trkpt lat="41.3306760" lon="-8.7387530">
        <ele>7.2</ele>
        <time>2021-05-16T10:31:28Z</time>
      </trkpt>
      <trkpt lat="41.3306760" lon="-8.7387550">
        <ele>7.2</ele>
        <time>2021-05-16T10:31:29Z</time>
      </trkpt>
      <trkpt lat="41.3306760" lon="-8.7387590">
        <ele>7.2</ele>
        <time>2021-05-16T10:31:30Z</time>
      </trkpt>
      <trkpt lat="41.3306760" lon="-8.7387600">
        <ele>7.2</ele>
        <time>2021-05-16T10:31:31Z</time>
      </trkpt>
      <trkpt lat="41.3306760" lon="-8.7387600">
        <ele>7.2</ele>
        <time>2021-05-16T10:31:32Z</time>
      </trkpt>
      <trkpt lat="41.3306760" lon="-8.7387600">
        <ele>7.2</ele>
        <time>2021-05-16T10:31:33Z</time>
      </trkpt>
      <trkpt lat="41.3306750" lon="-8.7387690">
        <ele>7.2</ele>
        <time>2021-05-16T10:31:34Z</time>
      </trkpt>
      <trkpt lat="41.3306740" lon="-8.7387690">
        <ele>7.2</ele>
        <time>2021-05-16T10:31:35Z</time>
      </trkpt>
      <trkpt lat="41.3306720" lon="-8.7387710">
        <ele>7.2</ele>
        <time>2021-05-16T10:31:36Z</time>
      </trkpt>
      <trkpt lat="41.3306720" lon="-8.7387720">
        <ele>7.2</ele>
        <time>2021-05-16T10:31:37Z</time>
      </trkpt>
      <trkpt lat="41.3306730" lon="-8.7387720">
        <ele>7.2</ele>
        <time>2021-05-16T10:31:38Z</time>
      </trkpt>
      <trkpt lat="41.3306760" lon="-8.7387660">
        <ele>7.2</ele>
        <time>2021-05-16T10:31:39Z</time>
      </trkpt>
      <trkpt lat="41.3306780" lon="-8.7387670">
        <ele>7.2</ele>
        <time>2021-05-16T10:31:40Z</time>
      </trkpt>
      <trkpt lat="41.3306800" lon="-8.7387640">
        <ele>7.2</ele>
        <time>2021-05-16T10:31:41Z</time>
      </trkpt>
      <trkpt lat="41.3306810" lon="-8.7387630">
        <ele>7.2</ele>
        <time>2021-05-16T10:31:42Z</time>
      </trkpt>
      <trkpt lat="41.3306800" lon="-8.7387640">
        <ele>7.2</ele>
        <time>2021-05-16T10:31:43Z</time>
      </trkpt>
      <trkpt lat="41.3306810" lon="-8.7387660">
        <ele>7.2</ele>
        <time>2021-05-16T10:31:44Z</time>
      </trkpt>
      <trkpt lat="41.3306820" lon="-8.7387670">
        <ele>7.2</ele>
        <time>2021-05-16T10:31:45Z</time>
      </trkpt>
      <trkpt lat="41.3306820" lon="-8.7387680">
        <ele>7.2</ele>
        <time>2021-05-16T10:31:46Z</time>
      </trkpt>
      <trkpt lat="41.3306810" lon="-8.7387690">
        <ele>7.2</ele>
        <time>2021-05-16T10:31:47Z</time>
      </trkpt>
      <trkpt lat="41.3306770" lon="-8.7387720">
        <ele>7.2</ele>
        <time>2021-05-16T10:31:48Z</time>
      </trkpt>
      <trkpt lat="41.3306740" lon="-8.7387760">
        <ele>7.2</ele>
        <time>2021-05-16T10:31:49Z</time>
      </trkpt>
      <trkpt lat="41.3306740" lon="-8.7387770">
        <ele>7.2</ele>
        <time>2021-05-16T10:31:50Z</time>
      </trkpt>
      <trkpt lat="41.3306720" lon="-8.7387820">
        <ele>7.2</ele>
        <time>2021-05-16T10:31:51Z</time>
      </trkpt>
      <trkpt lat="41.3306740" lon="-8.7387830">
        <ele>7.2</ele>
        <time>2021-05-16T10:31:52Z</time>
      </trkpt>
      <trkpt lat="41.3306720" lon="-8.7387860">
        <ele>7.2</ele>
        <time>2021-05-16T10:31:53Z</time>
      </trkpt>
      <trkpt lat="41.3306710" lon="-8.7387870">
        <ele>7.2</ele>
        <time>2021-05-16T10:31:54Z</time>
      </trkpt>
      <trkpt lat="41.3306710" lon="-8.7387870">
        <ele>7.2</ele>
        <time>2021-05-16T10:31:55Z</time>
      </trkpt>
      <trkpt lat="41.3306710" lon="-8.7387870">
        <ele>7.2</ele>
        <time>2021-05-16T10:31:56Z</time>
      </trkpt>
      <trkpt lat="41.3306710" lon="-8.7387870">
        <ele>7.2</ele>
        <time>2021-05-16T10:31:57Z</time>
      </trkpt>
      <trkpt lat="41.3306690" lon="-8.7387890">
        <ele>7.2</ele>
        <time>2021-05-16T10:31:58Z</time>
      </trkpt>
      <trkpt lat="41.3306690" lon="-8.7387890">
        <ele>7.2</ele>
        <time>2021-05-16T10:31:59Z</time>
      </trkpt>
      <trkpt lat="41.3306740" lon="-8.7387870">
        <ele>7.2</ele>
        <time>2021-05-16T10:32:00Z</time>
      </trkpt>
      <trkpt lat="41.3306760" lon="-8.7387880">
        <ele>7.2</ele>
        <time>2021-05-16T10:32:01Z</time>
      </trkpt>
      <trkpt lat="41.3306760" lon="-8.7387910">
        <ele>7.2</ele>
        <time>2021-05-16T10:32:02Z</time>
      </trkpt>
      <trkpt lat="41.3306760" lon="-8.7387900">
        <ele>7.2</ele>
        <time>2021-05-16T10:32:03Z</time>
      </trkpt>
      <trkpt lat="41.3306770" lon="-8.7387910">
        <ele>7.2</ele>
        <time>2021-05-16T10:32:04Z</time>
      </trkpt>
      <trkpt lat="41.3306790" lon="-8.7387910">
        <ele>7.2</ele>
        <time>2021-05-16T10:32:05Z</time>
      </trkpt>
      <trkpt lat="41.3306810" lon="-8.7387920">
        <ele>7.2</ele>
        <time>2021-05-16T10:32:06Z</time>
      </trkpt>
      <trkpt lat="41.3306800" lon="-8.7387930">
        <ele>7.2</ele>
        <time>2021-05-16T10:32:07Z</time>
      </trkpt>
      <trkpt lat="41.3306800" lon="-8.7387970">
        <ele>7.2</ele>
        <time>2021-05-16T10:32:08Z</time>
      </trkpt>
      <trkpt lat="41.3306810" lon="-8.7387970">
        <ele>7.2</ele>
        <time>2021-05-16T10:32:09Z</time>
      </trkpt>
      <trkpt lat="41.3306790" lon="-8.7387990">
        <ele>7.2</ele>
        <time>2021-05-16T10:32:10Z</time>
      </trkpt>
      <trkpt lat="41.3306790" lon="-8.7387990">
        <ele>7.2</ele>
        <time>2021-05-16T10:32:11Z</time>
      </trkpt>
      <trkpt lat="41.3306780" lon="-8.7387990">
        <ele>7.2</ele>
        <time>2021-05-16T10:32:12Z</time>
      </trkpt>
      <trkpt lat="41.3306810" lon="-8.7387960">
        <ele>7.2</ele>
        <time>2021-05-16T10:32:13Z</time>
      </trkpt>
      <trkpt lat="41.3306850" lon="-8.7387950">
        <ele>7.2</ele>
        <time>2021-05-16T10:32:14Z</time>
      </trkpt>
      <trkpt lat="41.3306870" lon="-8.7387920">
        <ele>7.2</ele>
        <time>2021-05-16T10:32:15Z</time>
      </trkpt>
      <trkpt lat="41.3306860" lon="-8.7387960">
        <ele>7.2</ele>
        <time>2021-05-16T10:32:16Z</time>
      </trkpt>
      <trkpt lat="41.3306880" lon="-8.7387940">
        <ele>7.2</ele>
        <time>2021-05-16T10:32:17Z</time>
      </trkpt>
      <trkpt lat="41.3306910" lon="-8.7387920">
        <ele>7.2</ele>
        <time>2021-05-16T10:32:18Z</time>
      </trkpt>
      <trkpt lat="41.3306930" lon="-8.7387940">
        <ele>7.2</ele>
        <time>2021-05-16T10:32:19Z</time>
      </trkpt>
      <trkpt lat="41.3306940" lon="-8.7387940">
        <ele>7.2</ele>
        <time>2021-05-16T10:32:20Z</time>
      </trkpt>
      <trkpt lat="41.3306960" lon="-8.7387940">
        <ele>7.2</ele>
        <time>2021-05-16T10:32:21Z</time>
      </trkpt>
      <trkpt lat="41.3306940" lon="-8.7387930">
        <ele>7.2</ele>
        <time>2021-05-16T10:32:22Z</time>
      </trkpt>
      <trkpt lat="41.3306940" lon="-8.7387930">
        <ele>7.2</ele>
        <time>2021-05-16T10:32:23Z</time>
      </trkpt>
      <trkpt lat="41.3306810" lon="-8.7387970">
        <ele>7.2</ele>
        <time>2021-05-16T10:32:24Z</time>
      </trkpt>
      <trkpt lat="41.3306690" lon="-8.7387960">
        <ele>7.2</ele>
        <time>2021-05-16T10:32:25Z</time>
      </trkpt>
      <trkpt lat="41.3306590" lon="-8.7387950">
        <ele>7.2</ele>
        <time>2021-05-16T10:32:26Z</time>
      </trkpt>
      <trkpt lat="41.3306500" lon="-8.7387950">
        <ele>7.2</ele>
        <time>2021-05-16T10:32:27Z</time>
      </trkpt>
      <trkpt lat="41.3306440" lon="-8.7387940">
        <ele>7.2</ele>
        <time>2021-05-16T10:32:28Z</time>
      </trkpt>
      <trkpt lat="41.3306440" lon="-8.7387940">
        <ele>7.2</ele>
        <time>2021-05-16T10:32:29Z</time>
      </trkpt>
      <trkpt lat="41.3306350" lon="-8.7387880">
        <ele>7.2</ele>
        <time>2021-05-16T10:32:30Z</time>
      </trkpt>
      <trkpt lat="41.3306350" lon="-8.7387880">
        <ele>7.2</ele>
        <time>2021-05-16T10:32:31Z</time>
      </trkpt>
      <trkpt lat="41.3306350" lon="-8.7387880">
        <ele>7.2</ele>
        <time>2021-05-16T10:32:32Z</time>
      </trkpt>
      <trkpt lat="41.3306350" lon="-8.7387880">
        <ele>7.2</ele>
        <time>2021-05-16T10:32:33Z</time>
      </trkpt>
      <trkpt lat="41.3306350" lon="-8.7387880">
        <ele>7.2</ele>
        <time>2021-05-16T10:32:34Z</time>
      </trkpt>
      <trkpt lat="41.3306230" lon="-8.7387910">
        <ele>7.2</ele>
        <time>2021-05-16T10:32:35Z</time>
      </trkpt>
      <trkpt lat="41.3306210" lon="-8.7387880">
        <ele>7.2</ele>
        <time>2021-05-16T10:32:36Z</time>
      </trkpt>
      <trkpt lat="41.3306180" lon="-8.7387840">
        <ele>7.2</ele>
        <time>2021-05-16T10:32:37Z</time>
      </trkpt>
      <trkpt lat="41.3306210" lon="-8.7387810">
        <ele>7.2</ele>
        <time>2021-05-16T10:32:38Z</time>
      </trkpt>
      <trkpt lat="41.3306230" lon="-8.7387810">
        <ele>7.2</ele>
        <time>2021-05-16T10:32:39Z</time>
      </trkpt>
      <trkpt lat="41.3306270" lon="-8.7387760">
        <ele>7.2</ele>
        <time>2021-05-16T10:32:40Z</time>
      </trkpt>
      <trkpt lat="41.3306240" lon="-8.7387780">
        <ele>7.2</ele>
        <time>2021-05-16T10:32:41Z</time>
      </trkpt>
      <trkpt lat="41.3306270" lon="-8.7387810">
        <ele>7.2</ele>
        <time>2021-05-16T10:32:42Z</time>
      </trkpt>
      <trkpt lat="41.3306300" lon="-8.7387830">
        <ele>7.2</ele>
        <time>2021-05-16T10:32:43Z</time>
      </trkpt>
      <trkpt lat="41.3306360" lon="-8.7387840">
        <ele>7.2</ele>
        <time>2021-05-16T10:32:44Z</time>
      </trkpt>
      <trkpt lat="41.3306360" lon="-8.7387840">
        <ele>7.2</ele>
        <time>2021-05-16T10:32:45Z</time>
      </trkpt>
      <trkpt lat="41.3306420" lon="-8.7387830">
        <ele>7.2</ele>
        <time>2021-05-16T10:32:46Z</time>
      </trkpt>
      <trkpt lat="41.3306480" lon="-8.7387860">
        <ele>7.2</ele>
        <time>2021-05-16T10:32:47Z</time>
      </trkpt>
      <trkpt lat="41.3306500" lon="-8.7387900">
        <ele>7.2</ele>
        <time>2021-05-16T10:32:48Z</time>
      </trkpt>
      <trkpt lat="41.3306530" lon="-8.7387880">
        <ele>7.2</ele>
        <time>2021-05-16T10:32:49Z</time>
      </trkpt>
      <trkpt lat="41.3306610" lon="-8.7387860">
        <ele>7.2</ele>
        <time>2021-05-16T10:32:50Z</time>
      </trkpt>
      <trkpt lat="41.3306630" lon="-8.7387840">
        <ele>7.2</ele>
        <time>2021-05-16T10:32:51Z</time>
      </trkpt>
      <trkpt lat="41.3306550" lon="-8.7387800">
        <ele>7.2</ele>
        <time>2021-05-16T10:32:52Z</time>
      </trkpt>
      <trkpt lat="41.3306530" lon="-8.7387780">
        <ele>7.2</ele>
        <time>2021-05-16T10:32:54Z</time>
      </trkpt>
      <trkpt lat="41.3306530" lon="-8.7387760">
        <ele>7.2</ele>
        <time>2021-05-16T10:32:55Z</time>
      </trkpt>
      <trkpt lat="41.3306580" lon="-8.7387750">
        <ele>7.2</ele>
        <time>2021-05-16T10:32:56Z</time>
      </trkpt>
      <trkpt lat="41.3306560" lon="-8.7387730">
        <ele>7.2</ele>
        <time>2021-05-16T10:32:57Z</time>
      </trkpt>
      <trkpt lat="41.3306500" lon="-8.7387730">
        <ele>7.2</ele>
        <time>2021-05-16T10:32:58Z</time>
      </trkpt>
      <trkpt lat="41.3306460" lon="-8.7387820">
        <ele>7.2</ele>
        <time>2021-05-16T10:32:59Z</time>
      </trkpt>
      <trkpt lat="41.3306470" lon="-8.7387830">
        <ele>7.2</ele>
        <time>2021-05-16T10:33:00Z</time>
      </trkpt>
      <trkpt lat="41.3306500" lon="-8.7387830">
        <ele>7.2</ele>
        <time>2021-05-16T10:33:01Z</time>
      </trkpt>
      <trkpt lat="41.3306520" lon="-8.7387870">
        <ele>7.2</ele>
        <time>2021-05-16T10:33:02Z</time>
      </trkpt>
      <trkpt lat="41.3306470" lon="-8.7387920">
        <ele>7.2</ele>
        <time>2021-05-16T10:33:03Z</time>
      </trkpt>
      <trkpt lat="41.3306460" lon="-8.7387860">
        <ele>7.2</ele>
        <time>2021-05-16T10:33:04Z</time>
      </trkpt>
      <trkpt lat="41.3306480" lon="-8.7387840">
        <ele>7.2</ele>
        <time>2021-05-16T10:33:05Z</time>
      </trkpt>
      <trkpt lat="41.3306560" lon="-8.7387770">
        <ele>7.2</ele>
        <time>2021-05-16T10:33:06Z</time>
      </trkpt>
      <trkpt lat="41.3306610" lon="-8.7387790">
        <ele>7.2</ele>
        <time>2021-05-16T10:33:07Z</time>
      </trkpt>
      <trkpt lat="41.3306700" lon="-8.7387790">
        <ele>7.2</ele>
        <time>2021-05-16T10:33:08Z</time>
      </trkpt>
      <trkpt lat="41.3306790" lon="-8.7387820">
        <ele>7.2</ele>
        <time>2021-05-16T10:33:09Z</time>
      </trkpt>
      <trkpt lat="41.3306870" lon="-8.7387890">
        <ele>7.2</ele>
        <time>2021-05-16T10:33:10Z</time>
      </trkpt>
      <trkpt lat="41.3307000" lon="-8.7387930">
        <ele>7.2</ele>
        <time>2021-05-16T10:33:11Z</time>
      </trkpt>
      <trkpt lat="41.3307080" lon="-8.7388000">
        <ele>7.2</ele>
        <time>2021-05-16T10:33:12Z</time>
      </trkpt>
      <trkpt lat="41.3307320" lon="-8.7388120">
        <ele>7.2</ele>
        <time>2021-05-16T10:33:13Z</time>
      </trkpt>
      <trkpt lat="41.3307440" lon="-8.7388180">
        <ele>7.2</ele>
        <time>2021-05-16T10:33:14Z</time>
      </trkpt>
      <trkpt lat="41.3307560" lon="-8.7388230">
        <ele>7.2</ele>
        <time>2021-05-16T10:33:15Z</time>
      </trkpt>
      <trkpt lat="41.3307680" lon="-8.7388360">
        <ele>7.2</ele>
        <time>2021-05-16T10:33:16Z</time>
      </trkpt>
      <trkpt lat="41.3307830" lon="-8.7388460">
        <ele>7.2</ele>
        <time>2021-05-16T10:33:17Z</time>
      </trkpt>
      <trkpt lat="41.3307970" lon="-8.7388570">
        <ele>7.2</ele>
        <time>2021-05-16T10:33:18Z</time>
      </trkpt>
      <trkpt lat="41.3308160" lon="-8.7388590">
        <ele>7.2</ele>
        <time>2021-05-16T10:33:19Z</time>
      </trkpt>
      <trkpt lat="41.3308300" lon="-8.7388660">
        <ele>7.2</ele>
        <time>2021-05-16T10:33:20Z</time>
      </trkpt>
      <trkpt lat="41.3308450" lon="-8.7388700">
        <ele>7.2</ele>
        <time>2021-05-16T10:33:21Z</time>
      </trkpt>
      <trkpt lat="41.3308630" lon="-8.7388730">
        <ele>7.2</ele>
        <time>2021-05-16T10:33:22Z</time>
      </trkpt>
      <trkpt lat="41.3308780" lon="-8.7388780">
        <ele>7.2</ele>
        <time>2021-05-16T10:33:23Z</time>
      </trkpt>
      <trkpt lat="41.3308940" lon="-8.7388840">
        <ele>7.2</ele>
        <time>2021-05-16T10:33:24Z</time>
      </trkpt>
      <trkpt lat="41.3309100" lon="-8.7388920">
        <ele>7.2</ele>
        <time>2021-05-16T10:33:25Z</time>
      </trkpt>
      <trkpt lat="41.3309240" lon="-8.7389040">
        <ele>7.2</ele>
        <time>2021-05-16T10:33:26Z</time>
      </trkpt>
      <trkpt lat="41.3309400" lon="-8.7388990">
        <ele>7.2</ele>
        <time>2021-05-16T10:33:27Z</time>
      </trkpt>
      <trkpt lat="41.3309560" lon="-8.7389060">
        <ele>7.2</ele>
        <time>2021-05-16T10:33:28Z</time>
      </trkpt>
      <trkpt lat="41.3309700" lon="-8.7389090">
        <ele>7.2</ele>
        <time>2021-05-16T10:33:29Z</time>
      </trkpt>
      <trkpt lat="41.3309920" lon="-8.7389160">
        <ele>7.2</ele>
        <time>2021-05-16T10:33:30Z</time>
      </trkpt>
      <trkpt lat="41.3310010" lon="-8.7389190">
        <ele>7.2</ele>
        <time>2021-05-16T10:33:31Z</time>
      </trkpt>
      <trkpt lat="41.3310090" lon="-8.7389230">
        <ele>7.2</ele>
        <time>2021-05-16T10:33:32Z</time>
      </trkpt>
      <trkpt lat="41.3310240" lon="-8.7389240">
        <ele>7.2</ele>
        <time>2021-05-16T10:33:33Z</time>
      </trkpt>
      <trkpt lat="41.3310400" lon="-8.7389280">
        <ele>7.2</ele>
        <time>2021-05-16T10:33:34Z</time>
      </trkpt>
      <trkpt lat="41.3310530" lon="-8.7389330">
        <ele>7.2</ele>
        <time>2021-05-16T10:33:35Z</time>
      </trkpt>
      <trkpt lat="41.3310660" lon="-8.7389370">
        <ele>7.2</ele>
        <time>2021-05-16T10:33:36Z</time>
      </trkpt>
      <trkpt lat="41.3310800" lon="-8.7389450">
        <ele>7.2</ele>
        <time>2021-05-16T10:33:37Z</time>
      </trkpt>
      <trkpt lat="41.3310960" lon="-8.7389420">
        <ele>7.2</ele>
        <time>2021-05-16T10:33:38Z</time>
      </trkpt>
      <trkpt lat="41.3311190" lon="-8.7389460">
        <ele>7.2</ele>
        <time>2021-05-16T10:33:39Z</time>
      </trkpt>
      <trkpt lat="41.3311280" lon="-8.7389480">
        <ele>7.2</ele>
        <time>2021-05-16T10:33:40Z</time>
      </trkpt>
      <trkpt lat="41.3311380" lon="-8.7389510">
        <ele>7.2</ele>
        <time>2021-05-16T10:33:41Z</time>
      </trkpt>
      <trkpt lat="41.3311530" lon="-8.7389510">
        <ele>7.2</ele>
        <time>2021-05-16T10:33:42Z</time>
      </trkpt>
      <trkpt lat="41.3311680" lon="-8.7389530">
        <ele>7.2</ele>
        <time>2021-05-16T10:33:43Z</time>
      </trkpt>
      <trkpt lat="41.3311820" lon="-8.7389520">
        <ele>7.2</ele>
        <time>2021-05-16T10:33:44Z</time>
      </trkpt>
      <trkpt lat="41.3311980" lon="-8.7389510">
        <ele>7.2</ele>
        <time>2021-05-16T10:33:45Z</time>
      </trkpt>
      <trkpt lat="41.3312140" lon="-8.7389490">
        <ele>7.2</ele>
        <time>2021-05-16T10:33:46Z</time>
      </trkpt>
      <trkpt lat="41.3312300" lon="-8.7389500">
        <ele>7.2</ele>
        <time>2021-05-16T10:33:47Z</time>
      </trkpt>
      <trkpt lat="41.3312450" lon="-8.7389580">
        <ele>7.2</ele>
        <time>2021-05-16T10:33:48Z</time>
      </trkpt>
      <trkpt lat="41.3312580" lon="-8.7389560">
        <ele>7.2</ele>
        <time>2021-05-16T10:33:49Z</time>
      </trkpt>
      <trkpt lat="41.3312790" lon="-8.7389670">
        <ele>7.2</ele>
        <time>2021-05-16T10:33:50Z</time>
      </trkpt>
      <trkpt lat="41.3312880" lon="-8.7389690">
        <ele>7.2</ele>
        <time>2021-05-16T10:33:51Z</time>
      </trkpt>
      <trkpt lat="41.3312960" lon="-8.7389720">
        <ele>7.2</ele>
        <time>2021-05-16T10:33:52Z</time>
      </trkpt>
      <trkpt lat="41.3313180" lon="-8.7389780">
        <ele>7.2</ele>
        <time>2021-05-16T10:33:53Z</time>
      </trkpt>
      <trkpt lat="41.3313260" lon="-8.7389770">
        <ele>7.2</ele>
        <time>2021-05-16T10:33:54Z</time>
      </trkpt>
      <trkpt lat="41.3313350" lon="-8.7389760">
        <ele>7.2</ele>
        <time>2021-05-16T10:33:55Z</time>
      </trkpt>
      <trkpt lat="41.3313560" lon="-8.7389750">
        <ele>7.2</ele>
        <time>2021-05-16T10:33:56Z</time>
      </trkpt>
      <trkpt lat="41.3313640" lon="-8.7389770">
        <ele>7.2</ele>
        <time>2021-05-16T10:33:57Z</time>
      </trkpt>
      <trkpt lat="41.3313720" lon="-8.7389780">
        <ele>7.2</ele>
        <time>2021-05-16T10:33:58Z</time>
      </trkpt>
      <trkpt lat="41.3313920" lon="-8.7389750">
        <ele>7.2</ele>
        <time>2021-05-16T10:33:59Z</time>
      </trkpt>
      <trkpt lat="41.3314010" lon="-8.7389740">
        <ele>7.2</ele>
        <time>2021-05-16T10:34:00Z</time>
      </trkpt>
      <trkpt lat="41.3314090" lon="-8.7389720">
        <ele>7.2</ele>
        <time>2021-05-16T10:34:01Z</time>
      </trkpt>
      <trkpt lat="41.3314180" lon="-8.7389600">
        <ele>7.2</ele>
        <time>2021-05-16T10:34:02Z</time>
      </trkpt>
      <trkpt lat="41.3314280" lon="-8.7389560">
        <ele>7.2</ele>
        <time>2021-05-16T10:34:03Z</time>
      </trkpt>
      <trkpt lat="41.3314410" lon="-8.7389550">
        <ele>7.2</ele>
        <time>2021-05-16T10:34:04Z</time>
      </trkpt>
      <trkpt lat="41.3314550" lon="-8.7389550">
        <ele>7.2</ele>
        <time>2021-05-16T10:34:05Z</time>
      </trkpt>
      <trkpt lat="41.3314680" lon="-8.7389630">
        <ele>7.2</ele>
        <time>2021-05-16T10:34:06Z</time>
      </trkpt>
      <trkpt lat="41.3314900" lon="-8.7389680">
        <ele>7.2</ele>
        <time>2021-05-16T10:34:07Z</time>
      </trkpt>
      <trkpt lat="41.3315000" lon="-8.7389690">
        <ele>7.2</ele>
        <time>2021-05-16T10:34:08Z</time>
      </trkpt>
      <trkpt lat="41.3315090" lon="-8.7389700">
        <ele>7.2</ele>
        <time>2021-05-16T10:34:09Z</time>
      </trkpt>
      <trkpt lat="41.3315230" lon="-8.7389640">
        <ele>7.2</ele>
        <time>2021-05-16T10:34:10Z</time>
      </trkpt>
      <trkpt lat="41.3315370" lon="-8.7389640">
        <ele>7.2</ele>
        <time>2021-05-16T10:34:11Z</time>
      </trkpt>
      <trkpt lat="41.3315510" lon="-8.7389620">
        <ele>7.2</ele>
        <time>2021-05-16T10:34:12Z</time>
      </trkpt>
      <trkpt lat="41.3315640" lon="-8.7389530">
        <ele>7.2</ele>
        <time>2021-05-16T10:34:13Z</time>
      </trkpt>
      <trkpt lat="41.3315860" lon="-8.7389480">
        <ele>7.2</ele>
        <time>2021-05-16T10:34:14Z</time>
      </trkpt>
      <trkpt lat="41.3315930" lon="-8.7389460">
        <ele>7.2</ele>
        <time>2021-05-16T10:34:15Z</time>
      </trkpt>
      <trkpt lat="41.3316010" lon="-8.7389450">
        <ele>7.2</ele>
        <time>2021-05-16T10:34:16Z</time>
      </trkpt>
      <trkpt lat="41.3316220" lon="-8.7389340">
        <ele>7.2</ele>
        <time>2021-05-16T10:34:17Z</time>
      </trkpt>
      <trkpt lat="41.3316310" lon="-8.7389280">
        <ele>7.2</ele>
        <time>2021-05-16T10:34:18Z</time>
      </trkpt>
      <trkpt lat="41.3316390" lon="-8.7389220">
        <ele>7.2</ele>
        <time>2021-05-16T10:34:19Z</time>
      </trkpt>
      <trkpt lat="41.3316620" lon="-8.7389270">
        <ele>7.2</ele>
        <time>2021-05-16T10:34:20Z</time>
      </trkpt>
      <trkpt lat="41.3316700" lon="-8.7389290">
        <ele>7.2</ele>
        <time>2021-05-16T10:34:21Z</time>
      </trkpt>
      <trkpt lat="41.3316790" lon="-8.7389300">
        <ele>7.2</ele>
        <time>2021-05-16T10:34:22Z</time>
      </trkpt>
      <trkpt lat="41.3317010" lon="-8.7389320">
        <ele>7.2</ele>
        <time>2021-05-16T10:34:23Z</time>
      </trkpt>
      <trkpt lat="41.3317090" lon="-8.7389340">
        <ele>7.2</ele>
        <time>2021-05-16T10:34:24Z</time>
      </trkpt>
      <trkpt lat="41.3317180" lon="-8.7389350">
        <ele>7.2</ele>
        <time>2021-05-16T10:34:25Z</time>
      </trkpt>
      <trkpt lat="41.3317320" lon="-8.7389400">
        <ele>7.2</ele>
        <time>2021-05-16T10:34:26Z</time>
      </trkpt>
      <trkpt lat="41.3317610" lon="-8.7389480">
        <ele>7.2</ele>
        <time>2021-05-16T10:34:27Z</time>
      </trkpt>
      <trkpt lat="41.3317740" lon="-8.7389540">
        <ele>7.2</ele>
        <time>2021-05-16T10:34:28Z</time>
      </trkpt>
      <trkpt lat="41.3317870" lon="-8.7389610">
        <ele>7.2</ele>
        <time>2021-05-16T10:34:29Z</time>
      </trkpt>
      <trkpt lat="41.3318000" lon="-8.7389640">
        <ele>7.2</ele>
        <time>2021-05-16T10:34:30Z</time>
      </trkpt>
      <trkpt lat="41.3318230" lon="-8.7389710">
        <ele>7.2</ele>
        <time>2021-05-16T10:34:31Z</time>
      </trkpt>
      <trkpt lat="41.3318320" lon="-8.7389730">
        <ele>7.2</ele>
        <time>2021-05-16T10:34:32Z</time>
      </trkpt>
      <trkpt lat="41.3318410" lon="-8.7389760">
        <ele>7.2</ele>
        <time>2021-05-16T10:34:33Z</time>
      </trkpt>
      <trkpt lat="41.3318540" lon="-8.7389820">
        <ele>7.2</ele>
        <time>2021-05-16T10:34:34Z</time>
      </trkpt>
      <trkpt lat="41.3318680" lon="-8.7389870">
        <ele>7.2</ele>
        <time>2021-05-16T10:34:35Z</time>
      </trkpt>
      <trkpt lat="41.3318880" lon="-8.7389920">
        <ele>7.2</ele>
        <time>2021-05-16T10:34:36Z</time>
      </trkpt>
      <trkpt lat="41.3318970" lon="-8.7389930">
        <ele>7.3</ele>
        <time>2021-05-16T10:34:37Z</time>
      </trkpt>
      <trkpt lat="41.3319050" lon="-8.7389950">
        <ele>7.3</ele>
        <time>2021-05-16T10:34:38Z</time>
      </trkpt>
      <trkpt lat="41.3319210" lon="-8.7389960">
        <ele>7.3</ele>
        <time>2021-05-16T10:34:39Z</time>
      </trkpt>
      <trkpt lat="41.3319340" lon="-8.7390000">
        <ele>7.3</ele>
        <time>2021-05-16T10:34:40Z</time>
      </trkpt>
      <trkpt lat="41.3319570" lon="-8.7390020">
        <ele>7.3</ele>
        <time>2021-05-16T10:34:41Z</time>
      </trkpt>
      <trkpt lat="41.3319650" lon="-8.7390040">
        <ele>7.3</ele>
        <time>2021-05-16T10:34:42Z</time>
      </trkpt>
      <trkpt lat="41.3319740" lon="-8.7390060">
        <ele>7.3</ele>
        <time>2021-05-16T10:34:43Z</time>
      </trkpt>
      <trkpt lat="41.3319880" lon="-8.7390090">
        <ele>7.3</ele>
        <time>2021-05-16T10:34:44Z</time>
      </trkpt>
      <trkpt lat="41.3320010" lon="-8.7390140">
        <ele>7.3</ele>
        <time>2021-05-16T10:34:45Z</time>
      </trkpt>
      <trkpt lat="41.3320230" lon="-8.7390220">
        <ele>7.3</ele>
        <time>2021-05-16T10:34:46Z</time>
      </trkpt>
      <trkpt lat="41.3320310" lon="-8.7390300">
        <ele>7.3</ele>
        <time>2021-05-16T10:34:47Z</time>
      </trkpt>
      <trkpt lat="41.3320390" lon="-8.7390380">
        <ele>7.3</ele>
        <time>2021-05-16T10:34:48Z</time>
      </trkpt>
      <trkpt lat="41.3320590" lon="-8.7390370">
        <ele>7.4</ele>
        <time>2021-05-16T10:34:49Z</time>
      </trkpt>
      <trkpt lat="41.3320670" lon="-8.7390400">
        <ele>7.4</ele>
        <time>2021-05-16T10:34:50Z</time>
      </trkpt>
      <trkpt lat="41.3320750" lon="-8.7390420">
        <ele>7.4</ele>
        <time>2021-05-16T10:34:51Z</time>
      </trkpt>
      <trkpt lat="41.3320800" lon="-8.7390470">
        <ele>7.4</ele>
        <time>2021-05-16T10:34:53Z</time>
      </trkpt>
      <trkpt lat="41.3320890" lon="-8.7390570">
        <ele>7.4</ele>
        <time>2021-05-16T10:34:54Z</time>
      </trkpt>
      <trkpt lat="41.3321010" lon="-8.7390680">
        <ele>7.4</ele>
        <time>2021-05-16T10:34:55Z</time>
      </trkpt>
      <trkpt lat="41.3321180" lon="-8.7390670">
        <ele>7.4</ele>
        <time>2021-05-16T10:34:56Z</time>
      </trkpt>
      <trkpt lat="41.3321330" lon="-8.7390710">
        <ele>7.5</ele>
        <time>2021-05-16T10:34:57Z</time>
      </trkpt>
      <trkpt lat="41.3321460" lon="-8.7390790">
        <ele>7.5</ele>
        <time>2021-05-16T10:34:58Z</time>
      </trkpt>
      <trkpt lat="41.3321600" lon="-8.7390810">
        <ele>7.5</ele>
        <time>2021-05-16T10:34:59Z</time>
      </trkpt>
      <trkpt lat="41.3321740" lon="-8.7390940">
        <ele>7.5</ele>
        <time>2021-05-16T10:35:00Z</time>
      </trkpt>
      <trkpt lat="41.3321880" lon="-8.7391000">
        <ele>7.5</ele>
        <time>2021-05-16T10:35:01Z</time>
      </trkpt>
      <trkpt lat="41.3322020" lon="-8.7391120">
        <ele>7.6</ele>
        <time>2021-05-16T10:35:02Z</time>
      </trkpt>
      <trkpt lat="41.3322130" lon="-8.7391220">
        <ele>7.6</ele>
        <time>2021-05-16T10:35:03Z</time>
      </trkpt>
      <trkpt lat="41.3322270" lon="-8.7391300">
        <ele>7.7</ele>
        <time>2021-05-16T10:35:04Z</time>
      </trkpt>
      <trkpt lat="41.3322410" lon="-8.7391350">
        <ele>7.7</ele>
        <time>2021-05-16T10:35:05Z</time>
      </trkpt>
      <trkpt lat="41.3322540" lon="-8.7391430">
        <ele>7.7</ele>
        <time>2021-05-16T10:35:06Z</time>
      </trkpt>
      <trkpt lat="41.3322650" lon="-8.7391510">
        <ele>7.7</ele>
        <time>2021-05-16T10:35:07Z</time>
      </trkpt>
      <trkpt lat="41.3322860" lon="-8.7391590">
        <ele>7.8</ele>
        <time>2021-05-16T10:35:08Z</time>
      </trkpt>
      <trkpt lat="41.3322930" lon="-8.7391640">
        <ele>7.8</ele>
        <time>2021-05-16T10:35:09Z</time>
      </trkpt>
      <trkpt lat="41.3323010" lon="-8.7391690">
        <ele>7.8</ele>
        <time>2021-05-16T10:35:10Z</time>
      </trkpt>
      <trkpt lat="41.3323190" lon="-8.7391780">
        <ele>7.9</ele>
        <time>2021-05-16T10:35:11Z</time>
      </trkpt>
      <trkpt lat="41.3323280" lon="-8.7391800">
        <ele>7.9</ele>
        <time>2021-05-16T10:35:12Z</time>
      </trkpt>
      <trkpt lat="41.3323360" lon="-8.7391810">
        <ele>7.9</ele>
        <time>2021-05-16T10:35:13Z</time>
      </trkpt>
      <trkpt lat="41.3323570" lon="-8.7391770">
        <ele>8.0</ele>
        <time>2021-05-16T10:35:14Z</time>
      </trkpt>
      <trkpt lat="41.3323660" lon="-8.7391750">
        <ele>8.0</ele>
        <time>2021-05-16T10:35:15Z</time>
      </trkpt>
      <trkpt lat="41.3323740" lon="-8.7391740">
        <ele>8.0</ele>
        <time>2021-05-16T10:35:16Z</time>
      </trkpt>
      <trkpt lat="41.3323820" lon="-8.7391700">
        <ele>8.0</ele>
        <time>2021-05-16T10:35:17Z</time>
      </trkpt>
      <trkpt lat="41.3323840" lon="-8.7391590">
        <ele>8.1</ele>
        <time>2021-05-16T10:35:18Z</time>
      </trkpt>
      <trkpt lat="41.3323810" lon="-8.7391470">
        <ele>8.1</ele>
        <time>2021-05-16T10:35:19Z</time>
      </trkpt>
      <trkpt lat="41.3323820" lon="-8.7391320">
        <ele>8.1</ele>
        <time>2021-05-16T10:35:20Z</time>
      </trkpt>
      <trkpt lat="41.3323820" lon="-8.7391120">
        <ele>8.2</ele>
        <time>2021-05-16T10:35:21Z</time>
      </trkpt>
      <trkpt lat="41.3323830" lon="-8.7390930">
        <ele>8.2</ele>
        <time>2021-05-16T10:35:22Z</time>
      </trkpt>
      <trkpt lat="41.3323860" lon="-8.7390770">
        <ele>8.3</ele>
        <time>2021-05-16T10:35:23Z</time>
      </trkpt>
      <trkpt lat="41.3323840" lon="-8.7390570">
        <ele>8.3</ele>
        <time>2021-05-16T10:35:24Z</time>
      </trkpt>
      <trkpt lat="41.3323820" lon="-8.7390390">
        <ele>8.3</ele>
        <time>2021-05-16T10:35:25Z</time>
      </trkpt>
      <trkpt lat="41.3323800" lon="-8.7390200">
        <ele>8.4</ele>
        <time>2021-05-16T10:35:26Z</time>
      </trkpt>
      <trkpt lat="41.3323770" lon="-8.7390020">
        <ele>8.4</ele>
        <time>2021-05-16T10:35:27Z</time>
      </trkpt>
      <trkpt lat="41.3323770" lon="-8.7389820">
        <ele>8.5</ele>
        <time>2021-05-16T10:35:28Z</time>
      </trkpt>
      <trkpt lat="41.3323800" lon="-8.7389650">
        <ele>8.5</ele>
        <time>2021-05-16T10:35:29Z</time>
      </trkpt>
      <trkpt lat="41.3323960" lon="-8.7389550">
        <ele>8.6</ele>
        <time>2021-05-16T10:35:30Z</time>
      </trkpt>
      <trkpt lat="41.3324170" lon="-8.7389660">
        <ele>8.8</ele>
        <time>2021-05-16T10:35:31Z</time>
      </trkpt>
      <trkpt lat="41.3324240" lon="-8.7389700">
        <ele>8.8</ele>
        <time>2021-05-16T10:35:32Z</time>
      </trkpt>
      <trkpt lat="41.3324320" lon="-8.7389730">
        <ele>8.8</ele>
        <time>2021-05-16T10:35:33Z</time>
      </trkpt>
      <trkpt lat="41.3324550" lon="-8.7389760">
        <ele>8.9</ele>
        <time>2021-05-16T10:35:34Z</time>
      </trkpt>
      <trkpt lat="41.3324620" lon="-8.7389780">
        <ele>8.9</ele>
        <time>2021-05-16T10:35:35Z</time>
      </trkpt>
      <trkpt lat="41.3324680" lon="-8.7389810">
        <ele>9.0</ele>
        <time>2021-05-16T10:35:36Z</time>
      </trkpt>
      <trkpt lat="41.3324940" lon="-8.7389880">
        <ele>9.1</ele>
        <time>2021-05-16T10:35:37Z</time>
      </trkpt>
      <trkpt lat="41.3325000" lon="-8.7389890">
        <ele>9.1</ele>
        <time>2021-05-16T10:35:38Z</time>
      </trkpt>
      <trkpt lat="41.3325060" lon="-8.7389900">
        <ele>9.1</ele>
        <time>2021-05-16T10:35:39Z</time>
      </trkpt>
      <trkpt lat="41.3325270" lon="-8.7389970">
        <ele>9.2</ele>
        <time>2021-05-16T10:35:40Z</time>
      </trkpt>
      <trkpt lat="41.3325350" lon="-8.7390000">
        <ele>9.2</ele>
        <time>2021-05-16T10:35:41Z</time>
      </trkpt>
      <trkpt lat="41.3325420" lon="-8.7390020">
        <ele>9.2</ele>
        <time>2021-05-16T10:35:42Z</time>
      </trkpt>
      <trkpt lat="41.3325640" lon="-8.7390080">
        <ele>9.3</ele>
        <time>2021-05-16T10:35:43Z</time>
      </trkpt>
      <trkpt lat="41.3325730" lon="-8.7390080">
        <ele>9.3</ele>
        <time>2021-05-16T10:35:44Z</time>
      </trkpt>
      <trkpt lat="41.3325820" lon="-8.7390080">
        <ele>9.4</ele>
        <time>2021-05-16T10:35:45Z</time>
      </trkpt>
      <trkpt lat="41.3325930" lon="-8.7390120">
        <ele>9.4</ele>
        <time>2021-05-16T10:35:46Z</time>
      </trkpt>
      <trkpt lat="41.3326040" lon="-8.7390120">
        <ele>9.5</ele>
        <time>2021-05-16T10:35:47Z</time>
      </trkpt>
      <trkpt lat="41.3326170" lon="-8.7390140">
        <ele>9.5</ele>
        <time>2021-05-16T10:35:48Z</time>
      </trkpt>
      <trkpt lat="41.3326400" lon="-8.7390190">
        <ele>9.6</ele>
        <time>2021-05-16T10:35:49Z</time>
      </trkpt>
      <trkpt lat="41.3326490" lon="-8.7390200">
        <ele>9.6</ele>
        <time>2021-05-16T10:35:50Z</time>
      </trkpt>
      <trkpt lat="41.3326570" lon="-8.7390220">
        <ele>9.7</ele>
        <time>2021-05-16T10:35:51Z</time>
      </trkpt>
      <trkpt lat="41.3326760" lon="-8.7390290">
        <ele>9.7</ele>
        <time>2021-05-16T10:35:52Z</time>
      </trkpt>
      <trkpt lat="41.3326840" lon="-8.7390320">
        <ele>9.7</ele>
        <time>2021-05-16T10:35:53Z</time>
      </trkpt>
      <trkpt lat="41.3326930" lon="-8.7390340">
        <ele>9.8</ele>
        <time>2021-05-16T10:35:54Z</time>
      </trkpt>
      <trkpt lat="41.3326980" lon="-8.7390360">
        <ele>9.8</ele>
        <time>2021-05-16T10:35:55Z</time>
      </trkpt>
      <trkpt lat="41.3327140" lon="-8.7390340">
        <ele>9.8</ele>
        <time>2021-05-16T10:35:56Z</time>
      </trkpt>
      <trkpt lat="41.3327280" lon="-8.7390380">
        <ele>9.9</ele>
        <time>2021-05-16T10:35:57Z</time>
      </trkpt>
      <trkpt lat="41.3327400" lon="-8.7390360">
        <ele>9.9</ele>
        <time>2021-05-16T10:35:58Z</time>
      </trkpt>
      <trkpt lat="41.3327480" lon="-8.7390440">
        <ele>10.0</ele>
        <time>2021-05-16T10:35:59Z</time>
      </trkpt>
      <trkpt lat="41.3327600" lon="-8.7390460">
        <ele>10.0</ele>
        <time>2021-05-16T10:36:00Z</time>
      </trkpt>
      <trkpt lat="41.3327810" lon="-8.7390470">
        <ele>10.0</ele>
        <time>2021-05-16T10:36:01Z</time>
      </trkpt>
      <trkpt lat="41.3327900" lon="-8.7390480">
        <ele>10.1</ele>
        <time>2021-05-16T10:36:02Z</time>
      </trkpt>
      <trkpt lat="41.3328000" lon="-8.7390500">
        <ele>10.1</ele>
        <time>2021-05-16T10:36:03Z</time>
      </trkpt>
      <trkpt lat="41.3328220" lon="-8.7390530">
        <ele>10.1</ele>
        <time>2021-05-16T10:36:04Z</time>
      </trkpt>
      <trkpt lat="41.3328310" lon="-8.7390530">
        <ele>10.2</ele>
        <time>2021-05-16T10:36:05Z</time>
      </trkpt>
      <trkpt lat="41.3328390" lon="-8.7390530">
        <ele>10.2</ele>
        <time>2021-05-16T10:36:06Z</time>
      </trkpt>
      <trkpt lat="41.3328630" lon="-8.7390580">
        <ele>10.2</ele>
        <time>2021-05-16T10:36:07Z</time>
      </trkpt>
      <trkpt lat="41.3328720" lon="-8.7390580">
        <ele>10.2</ele>
        <time>2021-05-16T10:36:08Z</time>
      </trkpt>
      <trkpt lat="41.3328820" lon="-8.7390580">
        <ele>10.3</ele>
        <time>2021-05-16T10:36:09Z</time>
      </trkpt>
      <trkpt lat="41.3329040" lon="-8.7390630">
        <ele>10.3</ele>
        <time>2021-05-16T10:36:10Z</time>
      </trkpt>
      <trkpt lat="41.3329130" lon="-8.7390650">
        <ele>10.3</ele>
        <time>2021-05-16T10:36:11Z</time>
      </trkpt>
      <trkpt lat="41.3329220" lon="-8.7390660">
        <ele>10.3</ele>
        <time>2021-05-16T10:36:12Z</time>
      </trkpt>
      <trkpt lat="41.3329440" lon="-8.7390680">
        <ele>10.3</ele>
        <time>2021-05-16T10:36:13Z</time>
      </trkpt>
      <trkpt lat="41.3329540" lon="-8.7390690">
        <ele>10.4</ele>
        <time>2021-05-16T10:36:14Z</time>
      </trkpt>
      <trkpt lat="41.3329630" lon="-8.7390700">
        <ele>10.4</ele>
        <time>2021-05-16T10:36:15Z</time>
      </trkpt>
      <trkpt lat="41.3329740" lon="-8.7390720">
        <ele>10.4</ele>
        <time>2021-05-16T10:36:16Z</time>
      </trkpt>
      <trkpt lat="41.3329870" lon="-8.7390770">
        <ele>10.4</ele>
        <time>2021-05-16T10:36:17Z</time>
      </trkpt>
      <trkpt lat="41.3329950" lon="-8.7390800">
        <ele>10.4</ele>
        <time>2021-05-16T10:36:18Z</time>
      </trkpt>
      <trkpt lat="41.3330130" lon="-8.7390810">
        <ele>10.4</ele>
        <time>2021-05-16T10:36:19Z</time>
      </trkpt>
      <trkpt lat="41.3330260" lon="-8.7390850">
        <ele>10.4</ele>
        <time>2021-05-16T10:36:20Z</time>
      </trkpt>
      <trkpt lat="41.3330380" lon="-8.7390860">
        <ele>10.4</ele>
        <time>2021-05-16T10:36:21Z</time>
      </trkpt>
      <trkpt lat="41.3330470" lon="-8.7390890">
        <ele>10.4</ele>
        <time>2021-05-16T10:36:22Z</time>
      </trkpt>
      <trkpt lat="41.3330600" lon="-8.7390860">
        <ele>10.4</ele>
        <time>2021-05-16T10:36:23Z</time>
      </trkpt>
      <trkpt lat="41.3330870" lon="-8.7390890">
        <ele>10.4</ele>
        <time>2021-05-16T10:36:24Z</time>
      </trkpt>
      <trkpt lat="41.3330940" lon="-8.7390920">
        <ele>10.4</ele>
        <time>2021-05-16T10:36:25Z</time>
      </trkpt>
      <trkpt lat="41.3331000" lon="-8.7390950">
        <ele>10.4</ele>
        <time>2021-05-16T10:36:26Z</time>
      </trkpt>
      <trkpt lat="41.3331140" lon="-8.7390900">
        <ele>10.4</ele>
        <time>2021-05-16T10:36:27Z</time>
      </trkpt>
      <trkpt lat="41.3331270" lon="-8.7390910">
        <ele>10.4</ele>
        <time>2021-05-16T10:36:28Z</time>
      </trkpt>
      <trkpt lat="41.3331410" lon="-8.7390930">
        <ele>10.4</ele>
        <time>2021-05-16T10:36:29Z</time>
      </trkpt>
      <trkpt lat="41.3331550" lon="-8.7390970">
        <ele>10.4</ele>
        <time>2021-05-16T10:36:30Z</time>
      </trkpt>
      <trkpt lat="41.3331700" lon="-8.7390980">
        <ele>10.4</ele>
        <time>2021-05-16T10:36:31Z</time>
      </trkpt>
      <trkpt lat="41.3331840" lon="-8.7391000">
        <ele>10.3</ele>
        <time>2021-05-16T10:36:32Z</time>
      </trkpt>
      <trkpt lat="41.3331940" lon="-8.7391030">
        <ele>10.3</ele>
        <time>2021-05-16T10:36:33Z</time>
      </trkpt>
      <trkpt lat="41.3332000" lon="-8.7391090">
        <ele>10.3</ele>
        <time>2021-05-16T10:36:34Z</time>
      </trkpt>
      <trkpt lat="41.3332120" lon="-8.7391160">
        <ele>10.3</ele>
        <time>2021-05-16T10:36:35Z</time>
      </trkpt>
      <trkpt lat="41.3332360" lon="-8.7391150">
        <ele>10.3</ele>
        <time>2021-05-16T10:36:36Z</time>
      </trkpt>
      <trkpt lat="41.3332460" lon="-8.7391160">
        <ele>10.3</ele>
        <time>2021-05-16T10:36:37Z</time>
      </trkpt>
      <trkpt lat="41.3332560" lon="-8.7391160">
        <ele>10.3</ele>
        <time>2021-05-16T10:36:38Z</time>
      </trkpt>
      <trkpt lat="41.3332740" lon="-8.7391160">
        <ele>10.3</ele>
        <time>2021-05-16T10:36:39Z</time>
      </trkpt>
      <trkpt lat="41.3332920" lon="-8.7391140">
        <ele>10.2</ele>
        <time>2021-05-16T10:36:40Z</time>
      </trkpt>
      <trkpt lat="41.3333060" lon="-8.7391160">
        <ele>10.2</ele>
        <time>2021-05-16T10:36:41Z</time>
      </trkpt>
      <trkpt lat="41.3333220" lon="-8.7391160">
        <ele>10.2</ele>
        <time>2021-05-16T10:36:42Z</time>
      </trkpt>
      <trkpt lat="41.3333360" lon="-8.7391190">
        <ele>10.2</ele>
        <time>2021-05-16T10:36:43Z</time>
      </trkpt>
      <trkpt lat="41.3333520" lon="-8.7391220">
        <ele>10.2</ele>
        <time>2021-05-16T10:36:44Z</time>
      </trkpt>
      <trkpt lat="41.3333670" lon="-8.7391220">
        <ele>10.2</ele>
        <time>2021-05-16T10:36:45Z</time>
      </trkpt>
      <trkpt lat="41.3333830" lon="-8.7391200">
        <ele>10.2</ele>
        <time>2021-05-16T10:36:46Z</time>
      </trkpt>
      <trkpt lat="41.3334000" lon="-8.7391190">
        <ele>10.1</ele>
        <time>2021-05-16T10:36:47Z</time>
      </trkpt>
      <trkpt lat="41.3334150" lon="-8.7391190">
        <ele>10.1</ele>
        <time>2021-05-16T10:36:48Z</time>
      </trkpt>
      <trkpt lat="41.3334300" lon="-8.7391170">
        <ele>10.1</ele>
        <time>2021-05-16T10:36:49Z</time>
      </trkpt>
      <trkpt lat="41.3334450" lon="-8.7391220">
        <ele>10.1</ele>
        <time>2021-05-16T10:36:50Z</time>
      </trkpt>
      <trkpt lat="41.3334600" lon="-8.7391240">
        <ele>10.1</ele>
        <time>2021-05-16T10:36:51Z</time>
      </trkpt>
      <trkpt lat="41.3334740" lon="-8.7391230">
        <ele>10.1</ele>
        <time>2021-05-16T10:36:52Z</time>
      </trkpt>
      <trkpt lat="41.3334890" lon="-8.7391260">
        <ele>10.1</ele>
        <time>2021-05-16T10:36:53Z</time>
      </trkpt>
      <trkpt lat="41.3335030" lon="-8.7391250">
        <ele>10.1</ele>
        <time>2021-05-16T10:36:54Z</time>
      </trkpt>
      <trkpt lat="41.3335170" lon="-8.7391280">
        <ele>10.1</ele>
        <time>2021-05-16T10:36:55Z</time>
      </trkpt>
      <trkpt lat="41.3335310" lon="-8.7391350">
        <ele>10.1</ele>
        <time>2021-05-16T10:36:56Z</time>
      </trkpt>
      <trkpt lat="41.3335520" lon="-8.7391430">
        <ele>10.0</ele>
        <time>2021-05-16T10:36:57Z</time>
      </trkpt>
      <trkpt lat="41.3335610" lon="-8.7391480">
        <ele>10.0</ele>
        <time>2021-05-16T10:36:58Z</time>
      </trkpt>
      <trkpt lat="41.3335690" lon="-8.7391530">
        <ele>10.0</ele>
        <time>2021-05-16T10:36:59Z</time>
      </trkpt>
      <trkpt lat="41.3335840" lon="-8.7391630">
        <ele>10.0</ele>
        <time>2021-05-16T10:37:00Z</time>
      </trkpt>
      <trkpt lat="41.3335980" lon="-8.7391720">
        <ele>10.0</ele>
        <time>2021-05-16T10:37:01Z</time>
      </trkpt>
      <trkpt lat="41.3336120" lon="-8.7391790">
        <ele>10.0</ele>
        <time>2021-05-16T10:37:02Z</time>
      </trkpt>
      <trkpt lat="41.3336250" lon="-8.7391870">
        <ele>10.0</ele>
        <time>2021-05-16T10:37:03Z</time>
      </trkpt>
      <trkpt lat="41.3336400" lon="-8.7391910">
        <ele>10.0</ele>
        <time>2021-05-16T10:37:04Z</time>
      </trkpt>
      <trkpt lat="41.3336530" lon="-8.7391990">
        <ele>10.0</ele>
        <time>2021-05-16T10:37:05Z</time>
      </trkpt>
      <trkpt lat="41.3336650" lon="-8.7392110">
        <ele>10.0</ele>
        <time>2021-05-16T10:37:06Z</time>
      </trkpt>
      <trkpt lat="41.3336790" lon="-8.7392150">
        <ele>10.0</ele>
        <time>2021-05-16T10:37:07Z</time>
      </trkpt>
      <trkpt lat="41.3337000" lon="-8.7392220">
        <ele>9.9</ele>
        <time>2021-05-16T10:37:08Z</time>
      </trkpt>
      <trkpt lat="41.3337080" lon="-8.7392280">
        <ele>9.9</ele>
        <time>2021-05-16T10:37:09Z</time>
      </trkpt>
      <trkpt lat="41.3337160" lon="-8.7392330">
        <ele>9.9</ele>
        <time>2021-05-16T10:37:10Z</time>
      </trkpt>
      <trkpt lat="41.3337290" lon="-8.7392420">
        <ele>9.9</ele>
        <time>2021-05-16T10:37:11Z</time>
      </trkpt>
      <trkpt lat="41.3337420" lon="-8.7392510">
        <ele>9.9</ele>
        <time>2021-05-16T10:37:12Z</time>
      </trkpt>
      <trkpt lat="41.3337540" lon="-8.7392560">
        <ele>9.9</ele>
        <time>2021-05-16T10:37:13Z</time>
      </trkpt>
      <trkpt lat="41.3337690" lon="-8.7392580">
        <ele>9.9</ele>
        <time>2021-05-16T10:37:14Z</time>
      </trkpt>
      <trkpt lat="41.3337810" lon="-8.7392700">
        <ele>9.9</ele>
        <time>2021-05-16T10:37:15Z</time>
      </trkpt>
      <trkpt lat="41.3337930" lon="-8.7392800">
        <ele>9.9</ele>
        <time>2021-05-16T10:37:16Z</time>
      </trkpt>
      <trkpt lat="41.3338050" lon="-8.7392880">
        <ele>9.9</ele>
        <time>2021-05-16T10:37:17Z</time>
      </trkpt>
      <trkpt lat="41.3338190" lon="-8.7392930">
        <ele>9.9</ele>
        <time>2021-05-16T10:37:18Z</time>
      </trkpt>
      <trkpt lat="41.3338390" lon="-8.7393060">
        <ele>9.9</ele>
        <time>2021-05-16T10:37:19Z</time>
      </trkpt>
      <trkpt lat="41.3338460" lon="-8.7393110">
        <ele>9.9</ele>
        <time>2021-05-16T10:37:20Z</time>
      </trkpt>
      <trkpt lat="41.3338540" lon="-8.7393150">
        <ele>9.9</ele>
        <time>2021-05-16T10:37:21Z</time>
      </trkpt>
      <trkpt lat="41.3338760" lon="-8.7393260">
        <ele>9.9</ele>
        <time>2021-05-16T10:37:22Z</time>
      </trkpt>
      <trkpt lat="41.3338850" lon="-8.7393320">
        <ele>9.9</ele>
        <time>2021-05-16T10:37:23Z</time>
      </trkpt>
      <trkpt lat="41.3338930" lon="-8.7393380">
        <ele>9.9</ele>
        <time>2021-05-16T10:37:24Z</time>
      </trkpt>
      <trkpt lat="41.3339070" lon="-8.7393400">
        <ele>9.9</ele>
        <time>2021-05-16T10:37:25Z</time>
      </trkpt>
      <trkpt lat="41.3339180" lon="-8.7393510">
        <ele>9.9</ele>
        <time>2021-05-16T10:37:26Z</time>
      </trkpt>
      <trkpt lat="41.3339330" lon="-8.7393510">
        <ele>9.9</ele>
        <time>2021-05-16T10:37:27Z</time>
      </trkpt>
      <trkpt lat="41.3339460" lon="-8.7393580">
        <ele>9.9</ele>
        <time>2021-05-16T10:37:28Z</time>
      </trkpt>
      <trkpt lat="41.3339580" lon="-8.7393670">
        <ele>9.9</ele>
        <time>2021-05-16T10:37:29Z</time>
      </trkpt>
      <trkpt lat="41.3339720" lon="-8.7393720">
        <ele>9.9</ele>
        <time>2021-05-16T10:37:30Z</time>
      </trkpt>
      <trkpt lat="41.3339930" lon="-8.7393790">
        <ele>9.9</ele>
        <time>2021-05-16T10:37:31Z</time>
      </trkpt>
      <trkpt lat="41.3340010" lon="-8.7393830">
        <ele>9.9</ele>
        <time>2021-05-16T10:37:32Z</time>
      </trkpt>
      <trkpt lat="41.3340090" lon="-8.7393880">
        <ele>9.9</ele>
        <time>2021-05-16T10:37:33Z</time>
      </trkpt>
      <trkpt lat="41.3340220" lon="-8.7393980">
        <ele>9.9</ele>
        <time>2021-05-16T10:37:34Z</time>
      </trkpt>
      <trkpt lat="41.3340340" lon="-8.7394060">
        <ele>9.9</ele>
        <time>2021-05-16T10:37:35Z</time>
      </trkpt>
      <trkpt lat="41.3340470" lon="-8.7394090">
        <ele>9.9</ele>
        <time>2021-05-16T10:37:36Z</time>
      </trkpt>
      <trkpt lat="41.3340610" lon="-8.7394190">
        <ele>9.9</ele>
        <time>2021-05-16T10:37:37Z</time>
      </trkpt>
      <trkpt lat="41.3340800" lon="-8.7394310">
        <ele>9.9</ele>
        <time>2021-05-16T10:37:38Z</time>
      </trkpt>
      <trkpt lat="41.3340890" lon="-8.7394350">
        <ele>9.9</ele>
        <time>2021-05-16T10:37:39Z</time>
      </trkpt>
      <trkpt lat="41.3340970" lon="-8.7394400">
        <ele>9.9</ele>
        <time>2021-05-16T10:37:40Z</time>
      </trkpt>
      <trkpt lat="41.3341050" lon="-8.7394400">
        <ele>9.9</ele>
        <time>2021-05-16T10:37:41Z</time>
      </trkpt>
      <trkpt lat="41.3341140" lon="-8.7394450">
        <ele>9.9</ele>
        <time>2021-05-16T10:37:42Z</time>
      </trkpt>
      <trkpt lat="41.3341280" lon="-8.7394560">
        <ele>9.9</ele>
        <time>2021-05-16T10:37:43Z</time>
      </trkpt>
      <trkpt lat="41.3341340" lon="-8.7394640">
        <ele>9.9</ele>
        <time>2021-05-16T10:37:44Z</time>
      </trkpt>
      <trkpt lat="41.3341460" lon="-8.7394700">
        <ele>9.8</ele>
        <time>2021-05-16T10:37:45Z</time>
      </trkpt>
      <trkpt lat="41.3341550" lon="-8.7394790">
        <ele>9.8</ele>
        <time>2021-05-16T10:37:46Z</time>
      </trkpt>
      <trkpt lat="41.3341660" lon="-8.7394870">
        <ele>9.8</ele>
        <time>2021-05-16T10:37:47Z</time>
      </trkpt>
      <trkpt lat="41.3341760" lon="-8.7394940">
        <ele>9.8</ele>
        <time>2021-05-16T10:37:48Z</time>
      </trkpt>
      <trkpt lat="41.3341870" lon="-8.7395010">
        <ele>9.8</ele>
        <time>2021-05-16T10:37:49Z</time>
      </trkpt>
      <trkpt lat="41.3342060" lon="-8.7395070">
        <ele>9.8</ele>
        <time>2021-05-16T10:37:50Z</time>
      </trkpt>
      <trkpt lat="41.3342150" lon="-8.7395120">
        <ele>9.8</ele>
        <time>2021-05-16T10:37:51Z</time>
      </trkpt>
      <trkpt lat="41.3342250" lon="-8.7395160">
        <ele>9.8</ele>
        <time>2021-05-16T10:37:52Z</time>
      </trkpt>
      <trkpt lat="41.3342390" lon="-8.7395190">
        <ele>9.8</ele>
        <time>2021-05-16T10:37:53Z</time>
      </trkpt>
      <trkpt lat="41.3342530" lon="-8.7395220">
        <ele>9.8</ele>
        <time>2021-05-16T10:37:54Z</time>
      </trkpt>
      <trkpt lat="41.3342730" lon="-8.7395350">
        <ele>9.8</ele>
        <time>2021-05-16T10:37:55Z</time>
      </trkpt>
      <trkpt lat="41.3342820" lon="-8.7395410">
        <ele>9.7</ele>
        <time>2021-05-16T10:37:56Z</time>
      </trkpt>
      <trkpt lat="41.3342900" lon="-8.7395470">
        <ele>9.7</ele>
        <time>2021-05-16T10:37:57Z</time>
      </trkpt>
      <trkpt lat="41.3343040" lon="-8.7395530">
        <ele>9.7</ele>
        <time>2021-05-16T10:37:58Z</time>
      </trkpt>
      <trkpt lat="41.3343140" lon="-8.7395650">
        <ele>9.7</ele>
        <time>2021-05-16T10:37:59Z</time>
      </trkpt>
      <trkpt lat="41.3343310" lon="-8.7395670">
        <ele>9.7</ele>
        <time>2021-05-16T10:38:00Z</time>
      </trkpt>
      <trkpt lat="41.3343460" lon="-8.7395700">
        <ele>9.7</ele>
        <time>2021-05-16T10:38:01Z</time>
      </trkpt>
      <trkpt lat="41.3343610" lon="-8.7395730">
        <ele>9.7</ele>
        <time>2021-05-16T10:38:02Z</time>
      </trkpt>
      <trkpt lat="41.3343740" lon="-8.7395850">
        <ele>9.7</ele>
        <time>2021-05-16T10:38:03Z</time>
      </trkpt>
      <trkpt lat="41.3343870" lon="-8.7395860">
        <ele>9.7</ele>
        <time>2021-05-16T10:38:04Z</time>
      </trkpt>
      <trkpt lat="41.3344020" lon="-8.7395930">
        <ele>9.7</ele>
        <time>2021-05-16T10:38:05Z</time>
      </trkpt>
      <trkpt lat="41.3344140" lon="-8.7395850">
        <ele>9.7</ele>
        <time>2021-05-16T10:38:06Z</time>
      </trkpt>
      <trkpt lat="41.3344270" lon="-8.7395690">
        <ele>9.7</ele>
        <time>2021-05-16T10:38:07Z</time>
      </trkpt>
      <trkpt lat="41.3344400" lon="-8.7395620">
        <ele>9.7</ele>
        <time>2021-05-16T10:38:08Z</time>
      </trkpt>
      <trkpt lat="41.3344530" lon="-8.7395560">
        <ele>9.7</ele>
        <time>2021-05-16T10:38:09Z</time>
      </trkpt>
      <trkpt lat="41.3344740" lon="-8.7395520">
        <ele>9.7</ele>
        <time>2021-05-16T10:38:10Z</time>
      </trkpt>
      <trkpt lat="41.3344830" lon="-8.7395470">
        <ele>9.7</ele>
        <time>2021-05-16T10:38:11Z</time>
      </trkpt>
      <trkpt lat="41.3344910" lon="-8.7395420">
        <ele>9.7</ele>
        <time>2021-05-16T10:38:12Z</time>
      </trkpt>
      <trkpt lat="41.3345050" lon="-8.7395430">
        <ele>9.7</ele>
        <time>2021-05-16T10:38:13Z</time>
      </trkpt>
      <trkpt lat="41.3345200" lon="-8.7395460">
        <ele>9.7</ele>
        <time>2021-05-16T10:38:14Z</time>
      </trkpt>
      <trkpt lat="41.3345350" lon="-8.7395460">
        <ele>9.7</ele>
        <time>2021-05-16T10:38:15Z</time>
      </trkpt>
      <trkpt lat="41.3345500" lon="-8.7395460">
        <ele>9.6</ele>
        <time>2021-05-16T10:38:16Z</time>
      </trkpt>
      <trkpt lat="41.3345640" lon="-8.7395420">
        <ele>9.6</ele>
        <time>2021-05-16T10:38:17Z</time>
      </trkpt>
      <trkpt lat="41.3345790" lon="-8.7395410">
        <ele>9.6</ele>
        <time>2021-05-16T10:38:18Z</time>
      </trkpt>
      <trkpt lat="41.3345940" lon="-8.7395380">
        <ele>9.6</ele>
        <time>2021-05-16T10:38:19Z</time>
      </trkpt>
      <trkpt lat="41.3346080" lon="-8.7395410">
        <ele>9.6</ele>
        <time>2021-05-16T10:38:20Z</time>
      </trkpt>
      <trkpt lat="41.3346230" lon="-8.7395400">
        <ele>9.6</ele>
        <time>2021-05-16T10:38:21Z</time>
      </trkpt>
      <trkpt lat="41.3346380" lon="-8.7395460">
        <ele>9.6</ele>
        <time>2021-05-16T10:38:22Z</time>
      </trkpt>
      <trkpt lat="41.3346530" lon="-8.7395480">
        <ele>9.6</ele>
        <time>2021-05-16T10:38:23Z</time>
      </trkpt>
      <trkpt lat="41.3346680" lon="-8.7395420">
        <ele>9.6</ele>
        <time>2021-05-16T10:38:24Z</time>
      </trkpt>
      <trkpt lat="41.3346830" lon="-8.7395400">
        <ele>9.6</ele>
        <time>2021-05-16T10:38:25Z</time>
      </trkpt>
      <trkpt lat="41.3346970" lon="-8.7395440">
        <ele>9.6</ele>
        <time>2021-05-16T10:38:26Z</time>
      </trkpt>
      <trkpt lat="41.3347120" lon="-8.7395390">
        <ele>9.6</ele>
        <time>2021-05-16T10:38:27Z</time>
      </trkpt>
      <trkpt lat="41.3347270" lon="-8.7395470">
        <ele>9.6</ele>
        <time>2021-05-16T10:38:28Z</time>
      </trkpt>
      <trkpt lat="41.3347430" lon="-8.7395470">
        <ele>9.6</ele>
        <time>2021-05-16T10:38:29Z</time>
      </trkpt>
      <trkpt lat="41.3347570" lon="-8.7395540">
        <ele>9.6</ele>
        <time>2021-05-16T10:38:30Z</time>
      </trkpt>
      <trkpt lat="41.3347730" lon="-8.7395550">
        <ele>9.6</ele>
        <time>2021-05-16T10:38:31Z</time>
      </trkpt>
      <trkpt lat="41.3347870" lon="-8.7395520">
        <ele>9.6</ele>
        <time>2021-05-16T10:38:32Z</time>
      </trkpt>
      <trkpt lat="41.3348010" lon="-8.7395590">
        <ele>9.6</ele>
        <time>2021-05-16T10:38:33Z</time>
      </trkpt>
      <trkpt lat="41.3348150" lon="-8.7395600">
        <ele>9.6</ele>
        <time>2021-05-16T10:38:34Z</time>
      </trkpt>
      <trkpt lat="41.3348300" lon="-8.7395610">
        <ele>9.6</ele>
        <time>2021-05-16T10:38:35Z</time>
      </trkpt>
      <trkpt lat="41.3348450" lon="-8.7395580">
        <ele>9.6</ele>
        <time>2021-05-16T10:38:36Z</time>
      </trkpt>
      <trkpt lat="41.3348600" lon="-8.7395620">
        <ele>9.6</ele>
        <time>2021-05-16T10:38:37Z</time>
      </trkpt>
      <trkpt lat="41.3348730" lon="-8.7395670">
        <ele>9.6</ele>
        <time>2021-05-16T10:38:38Z</time>
      </trkpt>
      <trkpt lat="41.3348870" lon="-8.7395710">
        <ele>9.6</ele>
        <time>2021-05-16T10:38:39Z</time>
      </trkpt>
      <trkpt lat="41.3349010" lon="-8.7395730">
        <ele>9.6</ele>
        <time>2021-05-16T10:38:40Z</time>
      </trkpt>
      <trkpt lat="41.3349170" lon="-8.7395710">
        <ele>9.6</ele>
        <time>2021-05-16T10:38:41Z</time>
      </trkpt>
      <trkpt lat="41.3349310" lon="-8.7395770">
        <ele>9.6</ele>
        <time>2021-05-16T10:38:42Z</time>
      </trkpt>
      <trkpt lat="41.3349450" lon="-8.7395830">
        <ele>9.6</ele>
        <time>2021-05-16T10:38:43Z</time>
      </trkpt>
      <trkpt lat="41.3349590" lon="-8.7395810">
        <ele>9.6</ele>
        <time>2021-05-16T10:38:44Z</time>
      </trkpt>
      <trkpt lat="41.3349740" lon="-8.7395860">
        <ele>9.6</ele>
        <time>2021-05-16T10:38:45Z</time>
      </trkpt>
      <trkpt lat="41.3349880" lon="-8.7395930">
        <ele>9.6</ele>
        <time>2021-05-16T10:38:46Z</time>
      </trkpt>
      <trkpt lat="41.3350020" lon="-8.7395970">
        <ele>9.6</ele>
        <time>2021-05-16T10:38:47Z</time>
      </trkpt>
      <trkpt lat="41.3350170" lon="-8.7396000">
        <ele>9.6</ele>
        <time>2021-05-16T10:38:48Z</time>
      </trkpt>
      <trkpt lat="41.3350310" lon="-8.7396090">
        <ele>9.6</ele>
        <time>2021-05-16T10:38:49Z</time>
      </trkpt>
      <trkpt lat="41.3350430" lon="-8.7396220">
        <ele>9.6</ele>
        <time>2021-05-16T10:38:50Z</time>
      </trkpt>
      <trkpt lat="41.3350550" lon="-8.7396280">
        <ele>9.6</ele>
        <time>2021-05-16T10:38:51Z</time>
      </trkpt>
      <trkpt lat="41.3350670" lon="-8.7396380">
        <ele>9.6</ele>
        <time>2021-05-16T10:38:52Z</time>
      </trkpt>
      <trkpt lat="41.3350800" lon="-8.7396420">
        <ele>9.6</ele>
        <time>2021-05-16T10:38:53Z</time>
      </trkpt>
      <trkpt lat="41.3350950" lon="-8.7396500">
        <ele>9.6</ele>
        <time>2021-05-16T10:38:54Z</time>
      </trkpt>
      <trkpt lat="41.3351080" lon="-8.7396600">
        <ele>9.6</ele>
        <time>2021-05-16T10:38:55Z</time>
      </trkpt>
      <trkpt lat="41.3351190" lon="-8.7396710">
        <ele>9.6</ele>
        <time>2021-05-16T10:38:56Z</time>
      </trkpt>
      <trkpt lat="41.3351330" lon="-8.7396790">
        <ele>9.6</ele>
        <time>2021-05-16T10:38:57Z</time>
      </trkpt>
      <trkpt lat="41.3351460" lon="-8.7396930">
        <ele>9.6</ele>
        <time>2021-05-16T10:38:58Z</time>
      </trkpt>
      <trkpt lat="41.3351590" lon="-8.7397020">
        <ele>9.6</ele>
        <time>2021-05-16T10:38:59Z</time>
      </trkpt>
      <trkpt lat="41.3351710" lon="-8.7397090">
        <ele>9.6</ele>
        <time>2021-05-16T10:39:00Z</time>
      </trkpt>
      <trkpt lat="41.3351870" lon="-8.7397170">
        <ele>9.6</ele>
        <time>2021-05-16T10:39:01Z</time>
      </trkpt>
      <trkpt lat="41.3351970" lon="-8.7397240">
        <ele>9.7</ele>
        <time>2021-05-16T10:39:02Z</time>
      </trkpt>
      <trkpt lat="41.3352100" lon="-8.7397360">
        <ele>9.7</ele>
        <time>2021-05-16T10:39:03Z</time>
      </trkpt>
      <trkpt lat="41.3352240" lon="-8.7397430">
        <ele>9.7</ele>
        <time>2021-05-16T10:39:04Z</time>
      </trkpt>
      <trkpt lat="41.3352360" lon="-8.7397540">
        <ele>9.7</ele>
        <time>2021-05-16T10:39:05Z</time>
      </trkpt>
      <trkpt lat="41.3352520" lon="-8.7397610">
        <ele>9.7</ele>
        <time>2021-05-16T10:39:06Z</time>
      </trkpt>
      <trkpt lat="41.3352710" lon="-8.7397720">
        <ele>9.7</ele>
        <time>2021-05-16T10:39:07Z</time>
      </trkpt>
      <trkpt lat="41.3352800" lon="-8.7397760">
        <ele>9.7</ele>
        <time>2021-05-16T10:39:08Z</time>
      </trkpt>
      <trkpt lat="41.3352880" lon="-8.7397800">
        <ele>9.7</ele>
        <time>2021-05-16T10:39:09Z</time>
      </trkpt>
      <trkpt lat="41.3353010" lon="-8.7397890">
        <ele>9.8</ele>
        <time>2021-05-16T10:39:10Z</time>
      </trkpt>
      <trkpt lat="41.3353120" lon="-8.7397970">
        <ele>9.8</ele>
        <time>2021-05-16T10:39:11Z</time>
      </trkpt>
      <trkpt lat="41.3353230" lon="-8.7398040">
        <ele>9.8</ele>
        <time>2021-05-16T10:39:12Z</time>
      </trkpt>
      <trkpt lat="41.3353270" lon="-8.7398100">
        <ele>9.8</ele>
        <time>2021-05-16T10:39:13Z</time>
      </trkpt>
      <trkpt lat="41.3353360" lon="-8.7398140">
        <ele>9.8</ele>
        <time>2021-05-16T10:39:14Z</time>
      </trkpt>
      <trkpt lat="41.3353460" lon="-8.7398260">
        <ele>9.8</ele>
        <time>2021-05-16T10:39:15Z</time>
      </trkpt>
      <trkpt lat="41.3353600" lon="-8.7398320">
        <ele>9.8</ele>
        <time>2021-05-16T10:39:16Z</time>
      </trkpt>
      <trkpt lat="41.3353700" lon="-8.7398390">
        <ele>9.8</ele>
        <time>2021-05-16T10:39:17Z</time>
      </trkpt>
      <trkpt lat="41.3353790" lon="-8.7398510">
        <ele>9.8</ele>
        <time>2021-05-16T10:39:18Z</time>
      </trkpt>
      <trkpt lat="41.3353860" lon="-8.7398580">
        <ele>9.8</ele>
        <time>2021-05-16T10:39:19Z</time>
      </trkpt>
      <trkpt lat="41.3353920" lon="-8.7398740">
        <ele>9.9</ele>
        <time>2021-05-16T10:39:20Z</time>
      </trkpt>
      <trkpt lat="41.3354060" lon="-8.7398850">
        <ele>9.9</ele>
        <time>2021-05-16T10:39:21Z</time>
      </trkpt>
      <trkpt lat="41.3354100" lon="-8.7398900">
        <ele>9.9</ele>
        <time>2021-05-16T10:39:22Z</time>
      </trkpt>
      <trkpt lat="41.3354220" lon="-8.7399020">
        <ele>9.9</ele>
        <time>2021-05-16T10:39:23Z</time>
      </trkpt>
      <trkpt lat="41.3354330" lon="-8.7399120">
        <ele>9.9</ele>
        <time>2021-05-16T10:39:24Z</time>
      </trkpt>
      <trkpt lat="41.3354450" lon="-8.7399220">
        <ele>9.9</ele>
        <time>2021-05-16T10:39:25Z</time>
      </trkpt>
      <trkpt lat="41.3354530" lon="-8.7399310">
        <ele>9.9</ele>
        <time>2021-05-16T10:39:26Z</time>
      </trkpt>
      <trkpt lat="41.3354620" lon="-8.7399400">
        <ele>9.9</ele>
        <time>2021-05-16T10:39:27Z</time>
      </trkpt>
      <trkpt lat="41.3354820" lon="-8.7399590">
        <ele>10.0</ele>
        <time>2021-05-16T10:39:28Z</time>
      </trkpt>
      <trkpt lat="41.3354900" lon="-8.7399640">
        <ele>10.0</ele>
        <time>2021-05-16T10:39:29Z</time>
      </trkpt>
      <trkpt lat="41.3354970" lon="-8.7399700">
        <ele>10.0</ele>
        <time>2021-05-16T10:39:30Z</time>
      </trkpt>
      <trkpt lat="41.3355060" lon="-8.7399690">
        <ele>10.0</ele>
        <time>2021-05-16T10:39:31Z</time>
      </trkpt>
      <trkpt lat="41.3355200" lon="-8.7399770">
        <ele>10.0</ele>
        <time>2021-05-16T10:39:32Z</time>
      </trkpt>
      <trkpt lat="41.3355310" lon="-8.7399860">
        <ele>10.0</ele>
        <time>2021-05-16T10:39:33Z</time>
      </trkpt>
      <trkpt lat="41.3355440" lon="-8.7399970">
        <ele>10.0</ele>
        <time>2021-05-16T10:39:34Z</time>
      </trkpt>
      <trkpt lat="41.3355550" lon="-8.7400040">
        <ele>10.0</ele>
        <time>2021-05-16T10:39:35Z</time>
      </trkpt>
      <trkpt lat="41.3355670" lon="-8.7400130">
        <ele>10.0</ele>
        <time>2021-05-16T10:39:36Z</time>
      </trkpt>
      <trkpt lat="41.3355800" lon="-8.7400220">
        <ele>10.0</ele>
        <time>2021-05-16T10:39:37Z</time>
      </trkpt>
      <trkpt lat="41.3356010" lon="-8.7400340">
        <ele>10.0</ele>
        <time>2021-05-16T10:39:38Z</time>
      </trkpt>
      <trkpt lat="41.3356080" lon="-8.7400390">
        <ele>10.0</ele>
        <time>2021-05-16T10:39:39Z</time>
      </trkpt>
      <trkpt lat="41.3356150" lon="-8.7400430">
        <ele>10.0</ele>
        <time>2021-05-16T10:39:40Z</time>
      </trkpt>
      <trkpt lat="41.3356260" lon="-8.7400570">
        <ele>10.0</ele>
        <time>2021-05-16T10:39:41Z</time>
      </trkpt>
      <trkpt lat="41.3356360" lon="-8.7400700">
        <ele>10.0</ele>
        <time>2021-05-16T10:39:42Z</time>
      </trkpt>
      <trkpt lat="41.3356390" lon="-8.7400790">
        <ele>10.0</ele>
        <time>2021-05-16T10:39:43Z</time>
      </trkpt>
      <trkpt lat="41.3356500" lon="-8.7400880">
        <ele>10.0</ele>
        <time>2021-05-16T10:39:44Z</time>
      </trkpt>
      <trkpt lat="41.3356680" lon="-8.7400890">
        <ele>10.0</ele>
        <time>2021-05-16T10:39:45Z</time>
      </trkpt>
      <trkpt lat="41.3356860" lon="-8.7400950">
        <ele>10.0</ele>
        <time>2021-05-16T10:39:46Z</time>
      </trkpt>
      <trkpt lat="41.3357020" lon="-8.7400960">
        <ele>10.0</ele>
        <time>2021-05-16T10:39:47Z</time>
      </trkpt>
      <trkpt lat="41.3357260" lon="-8.7401050">
        <ele>10.0</ele>
        <time>2021-05-16T10:39:48Z</time>
      </trkpt>
      <trkpt lat="41.3357340" lon="-8.7401070">
        <ele>10.0</ele>
        <time>2021-05-16T10:39:49Z</time>
      </trkpt>
      <trkpt lat="41.3357420" lon="-8.7401100">
        <ele>10.0</ele>
        <time>2021-05-16T10:39:50Z</time>
      </trkpt>
      <trkpt lat="41.3357550" lon="-8.7401090">
        <ele>10.0</ele>
        <time>2021-05-16T10:39:51Z</time>
      </trkpt>
      <trkpt lat="41.3357700" lon="-8.7401130">
        <ele>9.9</ele>
        <time>2021-05-16T10:39:52Z</time>
      </trkpt>
      <trkpt lat="41.3357870" lon="-8.7401140">
        <ele>9.9</ele>
        <time>2021-05-16T10:39:53Z</time>
      </trkpt>
      <trkpt lat="41.3358050" lon="-8.7401160">
        <ele>9.9</ele>
        <time>2021-05-16T10:39:54Z</time>
      </trkpt>
      <trkpt lat="41.3358200" lon="-8.7401230">
        <ele>9.9</ele>
        <time>2021-05-16T10:39:55Z</time>
      </trkpt>
      <trkpt lat="41.3358390" lon="-8.7401210">
        <ele>9.9</ele>
        <time>2021-05-16T10:39:56Z</time>
      </trkpt>
      <trkpt lat="41.3358530" lon="-8.7401270">
        <ele>9.9</ele>
        <time>2021-05-16T10:39:57Z</time>
      </trkpt>
      <trkpt lat="41.3358730" lon="-8.7401320">
        <ele>9.9</ele>
        <time>2021-05-16T10:39:58Z</time>
      </trkpt>
      <trkpt lat="41.3358860" lon="-8.7401420">
        <ele>9.9</ele>
        <time>2021-05-16T10:39:59Z</time>
      </trkpt>
      <trkpt lat="41.3359010" lon="-8.7401540">
        <ele>9.9</ele>
        <time>2021-05-16T10:40:00Z</time>
      </trkpt>
      <trkpt lat="41.3359140" lon="-8.7401640">
        <ele>9.8</ele>
        <time>2021-05-16T10:40:01Z</time>
      </trkpt>
      <trkpt lat="41.3359240" lon="-8.7401750">
        <ele>9.8</ele>
        <time>2021-05-16T10:40:02Z</time>
      </trkpt>
      <trkpt lat="41.3359330" lon="-8.7401920">
        <ele>9.8</ele>
        <time>2021-05-16T10:40:03Z</time>
      </trkpt>
      <trkpt lat="41.3359440" lon="-8.7402070">
        <ele>9.8</ele>
        <time>2021-05-16T10:40:04Z</time>
      </trkpt>
      <trkpt lat="41.3359500" lon="-8.7402280">
        <ele>9.8</ele>
        <time>2021-05-16T10:40:05Z</time>
      </trkpt>
      <trkpt lat="41.3359540" lon="-8.7402450">
        <ele>9.8</ele>
        <time>2021-05-16T10:40:06Z</time>
      </trkpt>
      <trkpt lat="41.3359610" lon="-8.7402640">
        <ele>9.8</ele>
        <time>2021-05-16T10:40:07Z</time>
      </trkpt>
      <trkpt lat="41.3359650" lon="-8.7402820">
        <ele>9.8</ele>
        <time>2021-05-16T10:40:08Z</time>
      </trkpt>
      <trkpt lat="41.3359710" lon="-8.7403000">
        <ele>9.7</ele>
        <time>2021-05-16T10:40:09Z</time>
      </trkpt>
      <trkpt lat="41.3359800" lon="-8.7403140">
        <ele>9.7</ele>
        <time>2021-05-16T10:40:10Z</time>
      </trkpt>
      <trkpt lat="41.3359860" lon="-8.7403340">
        <ele>9.7</ele>
        <time>2021-05-16T10:40:11Z</time>
      </trkpt>
      <trkpt lat="41.3359930" lon="-8.7403480">
        <ele>9.7</ele>
        <time>2021-05-16T10:40:12Z</time>
      </trkpt>
      <trkpt lat="41.3360040" lon="-8.7403630">
        <ele>9.7</ele>
        <time>2021-05-16T10:40:13Z</time>
      </trkpt>
      <trkpt lat="41.3360150" lon="-8.7403730">
        <ele>9.7</ele>
        <time>2021-05-16T10:40:14Z</time>
      </trkpt>
      <trkpt lat="41.3360290" lon="-8.7403780">
        <ele>9.6</ele>
        <time>2021-05-16T10:40:15Z</time>
      </trkpt>
      <trkpt lat="41.3360460" lon="-8.7403820">
        <ele>9.6</ele>
        <time>2021-05-16T10:40:16Z</time>
      </trkpt>
      <trkpt lat="41.3360660" lon="-8.7403890">
        <ele>9.6</ele>
        <time>2021-05-16T10:40:17Z</time>
      </trkpt>
      <trkpt lat="41.3360730" lon="-8.7403950">
        <ele>9.6</ele>
        <time>2021-05-16T10:40:18Z</time>
      </trkpt>
      <trkpt lat="41.3360810" lon="-8.7404020">
        <ele>9.6</ele>
        <time>2021-05-16T10:40:19Z</time>
      </trkpt>
      <trkpt lat="41.3360950" lon="-8.7404110">
        <ele>9.5</ele>
        <time>2021-05-16T10:40:20Z</time>
      </trkpt>
      <trkpt lat="41.3361090" lon="-8.7404190">
        <ele>9.5</ele>
        <time>2021-05-16T10:40:21Z</time>
      </trkpt>
      <trkpt lat="41.3361220" lon="-8.7404280">
        <ele>9.5</ele>
        <time>2021-05-16T10:40:22Z</time>
      </trkpt>
      <trkpt lat="41.3361360" lon="-8.7404320">
        <ele>9.5</ele>
        <time>2021-05-16T10:40:23Z</time>
      </trkpt>
      <trkpt lat="41.3361480" lon="-8.7404410">
        <ele>9.5</ele>
        <time>2021-05-16T10:40:24Z</time>
      </trkpt>
      <trkpt lat="41.3361610" lon="-8.7404490">
        <ele>9.4</ele>
        <time>2021-05-16T10:40:25Z</time>
      </trkpt>
      <trkpt lat="41.3361730" lon="-8.7404580">
        <ele>9.4</ele>
        <time>2021-05-16T10:40:26Z</time>
      </trkpt>
      <trkpt lat="41.3361860" lon="-8.7404650">
        <ele>9.4</ele>
        <time>2021-05-16T10:40:27Z</time>
      </trkpt>
      <trkpt lat="41.3362010" lon="-8.7404730">
        <ele>9.4</ele>
        <time>2021-05-16T10:40:28Z</time>
      </trkpt>
      <trkpt lat="41.3362140" lon="-8.7404750">
        <ele>9.3</ele>
        <time>2021-05-16T10:40:29Z</time>
      </trkpt>
      <trkpt lat="41.3362280" lon="-8.7404830">
        <ele>9.3</ele>
        <time>2021-05-16T10:40:30Z</time>
      </trkpt>
      <trkpt lat="41.3362410" lon="-8.7404880">
        <ele>9.3</ele>
        <time>2021-05-16T10:40:31Z</time>
      </trkpt>
      <trkpt lat="41.3362530" lon="-8.7405010">
        <ele>9.2</ele>
        <time>2021-05-16T10:40:32Z</time>
      </trkpt>
      <trkpt lat="41.3362670" lon="-8.7405060">
        <ele>9.2</ele>
        <time>2021-05-16T10:40:33Z</time>
      </trkpt>
      <trkpt lat="41.3362800" lon="-8.7405150">
        <ele>9.1</ele>
        <time>2021-05-16T10:40:34Z</time>
      </trkpt>
      <trkpt lat="41.3362940" lon="-8.7405160">
        <ele>9.1</ele>
        <time>2021-05-16T10:40:35Z</time>
      </trkpt>
      <trkpt lat="41.3363050" lon="-8.7405130">
        <ele>9.1</ele>
        <time>2021-05-16T10:40:36Z</time>
      </trkpt>
      <trkpt lat="41.3363210" lon="-8.7405090">
        <ele>9.0</ele>
        <time>2021-05-16T10:40:37Z</time>
      </trkpt>
      <trkpt lat="41.3363350" lon="-8.7405060">
        <ele>9.0</ele>
        <time>2021-05-16T10:40:38Z</time>
      </trkpt>
      <trkpt lat="41.3363490" lon="-8.7405080">
        <ele>9.0</ele>
        <time>2021-05-16T10:40:39Z</time>
      </trkpt>
      <trkpt lat="41.3363620" lon="-8.7405120">
        <ele>8.9</ele>
        <time>2021-05-16T10:40:40Z</time>
      </trkpt>
      <trkpt lat="41.3363760" lon="-8.7405120">
        <ele>8.9</ele>
        <time>2021-05-16T10:40:41Z</time>
      </trkpt>
      <trkpt lat="41.3363980" lon="-8.7405120">
        <ele>8.8</ele>
        <time>2021-05-16T10:40:42Z</time>
      </trkpt>
      <trkpt lat="41.3364070" lon="-8.7405090">
        <ele>8.8</ele>
        <time>2021-05-16T10:40:43Z</time>
      </trkpt>
      <trkpt lat="41.3364160" lon="-8.7405070">
        <ele>8.8</ele>
        <time>2021-05-16T10:40:44Z</time>
      </trkpt>
      <trkpt lat="41.3364290" lon="-8.7405040">
        <ele>8.7</ele>
        <time>2021-05-16T10:40:45Z</time>
      </trkpt>
      <trkpt lat="41.3364460" lon="-8.7405080">
        <ele>8.7</ele>
        <time>2021-05-16T10:40:46Z</time>
      </trkpt>
      <trkpt lat="41.3364590" lon="-8.7405090">
        <ele>8.6</ele>
        <time>2021-05-16T10:40:47Z</time>
      </trkpt>
      <trkpt lat="41.3364730" lon="-8.7405090">
        <ele>8.6</ele>
        <time>2021-05-16T10:40:48Z</time>
      </trkpt>
      <trkpt lat="41.3364890" lon="-8.7405060">
        <ele>8.5</ele>
        <time>2021-05-16T10:40:49Z</time>
      </trkpt>
      <trkpt lat="41.3365000" lon="-8.7405000">
        <ele>8.5</ele>
        <time>2021-05-16T10:40:50Z</time>
      </trkpt>
      <trkpt lat="41.3365140" lon="-8.7404970">
        <ele>8.5</ele>
        <time>2021-05-16T10:40:51Z</time>
      </trkpt>
      <trkpt lat="41.3365280" lon="-8.7404970">
        <ele>8.4</ele>
        <time>2021-05-16T10:40:52Z</time>
      </trkpt>
      <trkpt lat="41.3365420" lon="-8.7405000">
        <ele>8.4</ele>
        <time>2021-05-16T10:40:53Z</time>
      </trkpt>
      <trkpt lat="41.3365540" lon="-8.7405070">
        <ele>8.3</ele>
        <time>2021-05-16T10:40:54Z</time>
      </trkpt>
      <trkpt lat="41.3365670" lon="-8.7405040">
        <ele>8.3</ele>
        <time>2021-05-16T10:40:55Z</time>
      </trkpt>
      <trkpt lat="41.3365820" lon="-8.7405070">
        <ele>8.2</ele>
        <time>2021-05-16T10:40:56Z</time>
      </trkpt>
      <trkpt lat="41.3365960" lon="-8.7405090">
        <ele>8.2</ele>
        <time>2021-05-16T10:40:57Z</time>
      </trkpt>
      <trkpt lat="41.3366110" lon="-8.7405110">
        <ele>8.1</ele>
        <time>2021-05-16T10:40:58Z</time>
      </trkpt>
      <trkpt lat="41.3366250" lon="-8.7405050">
        <ele>8.1</ele>
        <time>2021-05-16T10:40:59Z</time>
      </trkpt>
      <trkpt lat="41.3366390" lon="-8.7405040">
        <ele>8.1</ele>
        <time>2021-05-16T10:41:00Z</time>
      </trkpt>
      <trkpt lat="41.3366590" lon="-8.7405090">
        <ele>8.0</ele>
        <time>2021-05-16T10:41:01Z</time>
      </trkpt>
      <trkpt lat="41.3366680" lon="-8.7405100">
        <ele>8.0</ele>
        <time>2021-05-16T10:41:02Z</time>
      </trkpt>
      <trkpt lat="41.3366760" lon="-8.7405120">
        <ele>7.9</ele>
        <time>2021-05-16T10:41:03Z</time>
      </trkpt>
      <trkpt lat="41.3366930" lon="-8.7405100">
        <ele>7.9</ele>
        <time>2021-05-16T10:41:04Z</time>
      </trkpt>
      <trkpt lat="41.3367080" lon="-8.7405080">
        <ele>7.8</ele>
        <time>2021-05-16T10:41:05Z</time>
      </trkpt>
      <trkpt lat="41.3367220" lon="-8.7405090">
        <ele>7.8</ele>
        <time>2021-05-16T10:41:06Z</time>
      </trkpt>
      <trkpt lat="41.3367380" lon="-8.7405060">
        <ele>7.8</ele>
        <time>2021-05-16T10:41:07Z</time>
      </trkpt>
      <trkpt lat="41.3367540" lon="-8.7405030">
        <ele>7.7</ele>
        <time>2021-05-16T10:41:08Z</time>
      </trkpt>
      <trkpt lat="41.3367680" lon="-8.7405010">
        <ele>7.7</ele>
        <time>2021-05-16T10:41:09Z</time>
      </trkpt>
      <trkpt lat="41.3367900" lon="-8.7405010">
        <ele>7.6</ele>
        <time>2021-05-16T10:41:10Z</time>
      </trkpt>
      <trkpt lat="41.3367990" lon="-8.7405030">
        <ele>7.6</ele>
        <time>2021-05-16T10:41:11Z</time>
      </trkpt>
      <trkpt lat="41.3368070" lon="-8.7405040">
        <ele>7.6</ele>
        <time>2021-05-16T10:41:12Z</time>
      </trkpt>
      <trkpt lat="41.3368210" lon="-8.7405060">
        <ele>7.5</ele>
        <time>2021-05-16T10:41:13Z</time>
      </trkpt>
      <trkpt lat="41.3368350" lon="-8.7405030">
        <ele>7.5</ele>
        <time>2021-05-16T10:41:14Z</time>
      </trkpt>
      <trkpt lat="41.3368500" lon="-8.7405110">
        <ele>7.4</ele>
        <time>2021-05-16T10:41:15Z</time>
      </trkpt>
      <trkpt lat="41.3368650" lon="-8.7405080">
        <ele>7.4</ele>
        <time>2021-05-16T10:41:16Z</time>
      </trkpt>
      <trkpt lat="41.3368790" lon="-8.7405070">
        <ele>7.3</ele>
        <time>2021-05-16T10:41:17Z</time>
      </trkpt>
      <trkpt lat="41.3368930" lon="-8.7405060">
        <ele>7.3</ele>
        <time>2021-05-16T10:41:18Z</time>
      </trkpt>
      <trkpt lat="41.3369090" lon="-8.7405050">
        <ele>7.3</ele>
        <time>2021-05-16T10:41:19Z</time>
      </trkpt>
      <trkpt lat="41.3369260" lon="-8.7405020">
        <ele>7.2</ele>
        <time>2021-05-16T10:41:20Z</time>
      </trkpt>
      <trkpt lat="41.3369400" lon="-8.7405050">
        <ele>7.2</ele>
        <time>2021-05-16T10:41:21Z</time>
      </trkpt>
      <trkpt lat="41.3369540" lon="-8.7405080">
        <ele>7.1</ele>
        <time>2021-05-16T10:41:22Z</time>
      </trkpt>
      <trkpt lat="41.3369720" lon="-8.7405110">
        <ele>7.1</ele>
        <time>2021-05-16T10:41:23Z</time>
      </trkpt>
      <trkpt lat="41.3369880" lon="-8.7405140">
        <ele>7.1</ele>
        <time>2021-05-16T10:41:24Z</time>
      </trkpt>
      <trkpt lat="41.3370030" lon="-8.7405070">
        <ele>7.0</ele>
        <time>2021-05-16T10:41:25Z</time>
      </trkpt>
      <trkpt lat="41.3370170" lon="-8.7405150">
        <ele>7.0</ele>
        <time>2021-05-16T10:41:26Z</time>
      </trkpt>
      <trkpt lat="41.3370370" lon="-8.7405230">
        <ele>6.9</ele>
        <time>2021-05-16T10:41:27Z</time>
      </trkpt>
      <trkpt lat="41.3370460" lon="-8.7405230">
        <ele>6.9</ele>
        <time>2021-05-16T10:41:28Z</time>
      </trkpt>
      <trkpt lat="41.3370540" lon="-8.7405240">
        <ele>6.9</ele>
        <time>2021-05-16T10:41:29Z</time>
      </trkpt>
      <trkpt lat="41.3370670" lon="-8.7405260">
        <ele>6.9</ele>
        <time>2021-05-16T10:41:30Z</time>
      </trkpt>
      <trkpt lat="41.3370820" lon="-8.7405270">
        <ele>6.8</ele>
        <time>2021-05-16T10:41:31Z</time>
      </trkpt>
      <trkpt lat="41.3370970" lon="-8.7405270">
        <ele>6.8</ele>
        <time>2021-05-16T10:41:32Z</time>
      </trkpt>
      <trkpt lat="41.3371110" lon="-8.7405320">
        <ele>6.8</ele>
        <time>2021-05-16T10:41:33Z</time>
      </trkpt>
      <trkpt lat="41.3371270" lon="-8.7405290">
        <ele>6.7</ele>
        <time>2021-05-16T10:41:34Z</time>
      </trkpt>
      <trkpt lat="41.3371430" lon="-8.7405310">
        <ele>6.7</ele>
        <time>2021-05-16T10:41:35Z</time>
      </trkpt>
      <trkpt lat="41.3371570" lon="-8.7405270">
        <ele>6.7</ele>
        <time>2021-05-16T10:41:36Z</time>
      </trkpt>
      <trkpt lat="41.3371750" lon="-8.7405230">
        <ele>6.6</ele>
        <time>2021-05-16T10:41:37Z</time>
      </trkpt>
      <trkpt lat="41.3371900" lon="-8.7405280">
        <ele>6.6</ele>
        <time>2021-05-16T10:41:38Z</time>
      </trkpt>
      <trkpt lat="41.3372060" lon="-8.7405230">
        <ele>6.6</ele>
        <time>2021-05-16T10:41:39Z</time>
      </trkpt>
      <trkpt lat="41.3372200" lon="-8.7405280">
        <ele>6.6</ele>
        <time>2021-05-16T10:41:40Z</time>
      </trkpt>
      <trkpt lat="41.3372340" lon="-8.7405250">
        <ele>6.5</ele>
        <time>2021-05-16T10:41:41Z</time>
      </trkpt>
      <trkpt lat="41.3372550" lon="-8.7405260">
        <ele>6.5</ele>
        <time>2021-05-16T10:41:42Z</time>
      </trkpt>
      <trkpt lat="41.3372660" lon="-8.7405260">
        <ele>6.5</ele>
        <time>2021-05-16T10:41:43Z</time>
      </trkpt>
      <trkpt lat="41.3372770" lon="-8.7405260">
        <ele>6.5</ele>
        <time>2021-05-16T10:41:44Z</time>
      </trkpt>
      <trkpt lat="41.3372920" lon="-8.7405250">
        <ele>6.5</ele>
        <time>2021-05-16T10:41:45Z</time>
      </trkpt>
      <trkpt lat="41.3373070" lon="-8.7405270">
        <ele>6.5</ele>
        <time>2021-05-16T10:41:46Z</time>
      </trkpt>
      <trkpt lat="41.3373300" lon="-8.7405290">
        <ele>6.4</ele>
        <time>2021-05-16T10:41:47Z</time>
      </trkpt>
      <trkpt lat="41.3373380" lon="-8.7405290">
        <ele>6.4</ele>
        <time>2021-05-16T10:41:48Z</time>
      </trkpt>
      <trkpt lat="41.3373450" lon="-8.7405280">
        <ele>6.4</ele>
        <time>2021-05-16T10:41:49Z</time>
      </trkpt>
      <trkpt lat="41.3373550" lon="-8.7405310">
        <ele>6.4</ele>
        <time>2021-05-16T10:41:50Z</time>
      </trkpt>
      <trkpt lat="41.3373650" lon="-8.7405340">
        <ele>6.4</ele>
        <time>2021-05-16T10:41:51Z</time>
      </trkpt>
      <trkpt lat="41.3373800" lon="-8.7405330">
        <ele>6.4</ele>
        <time>2021-05-16T10:41:52Z</time>
      </trkpt>
      <trkpt lat="41.3374000" lon="-8.7405330">
        <ele>6.4</ele>
        <time>2021-05-16T10:41:53Z</time>
      </trkpt>
      <trkpt lat="41.3374080" lon="-8.7405320">
        <ele>6.4</ele>
        <time>2021-05-16T10:41:54Z</time>
      </trkpt>
      <trkpt lat="41.3374170" lon="-8.7405320">
        <ele>6.3</ele>
        <time>2021-05-16T10:41:55Z</time>
      </trkpt>
      <trkpt lat="41.3374370" lon="-8.7405330">
        <ele>6.3</ele>
        <time>2021-05-16T10:41:56Z</time>
      </trkpt>
      <trkpt lat="41.3374460" lon="-8.7405310">
        <ele>6.3</ele>
        <time>2021-05-16T10:41:57Z</time>
      </trkpt>
      <trkpt lat="41.3374540" lon="-8.7405300">
        <ele>6.3</ele>
        <time>2021-05-16T10:41:58Z</time>
      </trkpt>
      <trkpt lat="41.3374770" lon="-8.7405310">
        <ele>6.3</ele>
        <time>2021-05-16T10:41:59Z</time>
      </trkpt>
      <trkpt lat="41.3374850" lon="-8.7405330">
        <ele>6.3</ele>
        <time>2021-05-16T10:42:00Z</time>
      </trkpt>
      <trkpt lat="41.3374940" lon="-8.7405340">
        <ele>6.3</ele>
        <time>2021-05-16T10:42:01Z</time>
      </trkpt>
      <trkpt lat="41.3375080" lon="-8.7405300">
        <ele>6.3</ele>
        <time>2021-05-16T10:42:02Z</time>
      </trkpt>
      <trkpt lat="41.3375210" lon="-8.7405270">
        <ele>6.3</ele>
        <time>2021-05-16T10:42:03Z</time>
      </trkpt>
      <trkpt lat="41.3375430" lon="-8.7405310">
        <ele>6.3</ele>
        <time>2021-05-16T10:42:04Z</time>
      </trkpt>
      <trkpt lat="41.3375530" lon="-8.7405320">
        <ele>6.3</ele>
        <time>2021-05-16T10:42:05Z</time>
      </trkpt>
      <trkpt lat="41.3375620" lon="-8.7405330">
        <ele>6.3</ele>
        <time>2021-05-16T10:42:06Z</time>
      </trkpt>
      <trkpt lat="41.3375780" lon="-8.7405400">
        <ele>6.3</ele>
        <time>2021-05-16T10:42:07Z</time>
      </trkpt>
      <trkpt lat="41.3375920" lon="-8.7405450">
        <ele>6.3</ele>
        <time>2021-05-16T10:42:08Z</time>
      </trkpt>
      <trkpt lat="41.3376070" lon="-8.7405500">
        <ele>6.3</ele>
        <time>2021-05-16T10:42:09Z</time>
      </trkpt>
      <trkpt lat="41.3376200" lon="-8.7405590">
        <ele>6.4</ele>
        <time>2021-05-16T10:42:10Z</time>
      </trkpt>
      <trkpt lat="41.3376330" lon="-8.7405680">
        <ele>6.4</ele>
        <time>2021-05-16T10:42:11Z</time>
      </trkpt>
      <trkpt lat="41.3376470" lon="-8.7405760">
        <ele>6.4</ele>
        <time>2021-05-16T10:42:12Z</time>
      </trkpt>
      <trkpt lat="41.3376690" lon="-8.7405840">
        <ele>6.4</ele>
        <time>2021-05-16T10:42:13Z</time>
      </trkpt>
      <trkpt lat="41.3376780" lon="-8.7405880">
        <ele>6.4</ele>
        <time>2021-05-16T10:42:14Z</time>
      </trkpt>
      <trkpt lat="41.3376860" lon="-8.7405910">
        <ele>6.4</ele>
        <time>2021-05-16T10:42:15Z</time>
      </trkpt>
      <trkpt lat="41.3376970" lon="-8.7406020">
        <ele>6.4</ele>
        <time>2021-05-16T10:42:16Z</time>
      </trkpt>
      <trkpt lat="41.3377100" lon="-8.7406090">
        <ele>6.4</ele>
        <time>2021-05-16T10:42:17Z</time>
      </trkpt>
      <trkpt lat="41.3377240" lon="-8.7406100">
        <ele>6.4</ele>
        <time>2021-05-16T10:42:18Z</time>
      </trkpt>
      <trkpt lat="41.3377380" lon="-8.7406150">
        <ele>6.4</ele>
        <time>2021-05-16T10:42:19Z</time>
      </trkpt>
      <trkpt lat="41.3377520" lon="-8.7406240">
        <ele>6.4</ele>
        <time>2021-05-16T10:42:20Z</time>
      </trkpt>
      <trkpt lat="41.3377670" lon="-8.7406290">
        <ele>6.4</ele>
        <time>2021-05-16T10:42:21Z</time>
      </trkpt>
      <trkpt lat="41.3377810" lon="-8.7406360">
        <ele>6.4</ele>
        <time>2021-05-16T10:42:22Z</time>
      </trkpt>
      <trkpt lat="41.3378000" lon="-8.7406420">
        <ele>6.4</ele>
        <time>2021-05-16T10:42:23Z</time>
      </trkpt>
      <trkpt lat="41.3378150" lon="-8.7406440">
        <ele>6.4</ele>
        <time>2021-05-16T10:42:24Z</time>
      </trkpt>
      <trkpt lat="41.3378280" lon="-8.7406520">
        <ele>6.4</ele>
        <time>2021-05-16T10:42:25Z</time>
      </trkpt>
      <trkpt lat="41.3378430" lon="-8.7406530">
        <ele>6.4</ele>
        <time>2021-05-16T10:42:26Z</time>
      </trkpt>
      <trkpt lat="41.3378560" lon="-8.7406650">
        <ele>6.4</ele>
        <time>2021-05-16T10:42:27Z</time>
      </trkpt>
      <trkpt lat="41.3378720" lon="-8.7406680">
        <ele>6.4</ele>
        <time>2021-05-16T10:42:28Z</time>
      </trkpt>
      <trkpt lat="41.3378850" lon="-8.7406720">
        <ele>6.4</ele>
        <time>2021-05-16T10:42:29Z</time>
      </trkpt>
      <trkpt lat="41.3378970" lon="-8.7406800">
        <ele>6.4</ele>
        <time>2021-05-16T10:42:30Z</time>
      </trkpt>
      <trkpt lat="41.3379090" lon="-8.7406860">
        <ele>6.4</ele>
        <time>2021-05-16T10:42:31Z</time>
      </trkpt>
      <trkpt lat="41.3379200" lon="-8.7406980">
        <ele>6.4</ele>
        <time>2021-05-16T10:42:32Z</time>
      </trkpt>
      <trkpt lat="41.3379350" lon="-8.7407020">
        <ele>6.4</ele>
        <time>2021-05-16T10:42:33Z</time>
      </trkpt>
      <trkpt lat="41.3379480" lon="-8.7407100">
        <ele>6.4</ele>
        <time>2021-05-16T10:42:34Z</time>
      </trkpt>
      <trkpt lat="41.3379640" lon="-8.7407100">
        <ele>6.4</ele>
        <time>2021-05-16T10:42:35Z</time>
      </trkpt>
      <trkpt lat="41.3379840" lon="-8.7407220">
        <ele>6.4</ele>
        <time>2021-05-16T10:42:36Z</time>
      </trkpt>
      <trkpt lat="41.3379930" lon="-8.7407260">
        <ele>6.4</ele>
        <time>2021-05-16T10:42:37Z</time>
      </trkpt>
      <trkpt lat="41.3380010" lon="-8.7407300">
        <ele>6.4</ele>
        <time>2021-05-16T10:42:38Z</time>
      </trkpt>
      <trkpt lat="41.3380210" lon="-8.7407400">
        <ele>6.4</ele>
        <time>2021-05-16T10:42:39Z</time>
      </trkpt>
      <trkpt lat="41.3380290" lon="-8.7407420">
        <ele>6.4</ele>
        <time>2021-05-16T10:42:40Z</time>
      </trkpt>
      <trkpt lat="41.3380380" lon="-8.7407450">
        <ele>6.4</ele>
        <time>2021-05-16T10:42:41Z</time>
      </trkpt>
      <trkpt lat="41.3380520" lon="-8.7407510">
        <ele>6.4</ele>
        <time>2021-05-16T10:42:42Z</time>
      </trkpt>
      <trkpt lat="41.3380630" lon="-8.7407610">
        <ele>6.4</ele>
        <time>2021-05-16T10:42:43Z</time>
      </trkpt>
      <trkpt lat="41.3380820" lon="-8.7407750">
        <ele>6.4</ele>
        <time>2021-05-16T10:42:44Z</time>
      </trkpt>
      <trkpt lat="41.3380900" lon="-8.7407790">
        <ele>6.4</ele>
        <time>2021-05-16T10:42:45Z</time>
      </trkpt>
      <trkpt lat="41.3380980" lon="-8.7407840">
        <ele>6.4</ele>
        <time>2021-05-16T10:42:46Z</time>
      </trkpt>
      <trkpt lat="41.3381100" lon="-8.7407880">
        <ele>6.4</ele>
        <time>2021-05-16T10:42:47Z</time>
      </trkpt>
      <trkpt lat="41.3381200" lon="-8.7407960">
        <ele>6.4</ele>
        <time>2021-05-16T10:42:48Z</time>
      </trkpt>
      <trkpt lat="41.3381320" lon="-8.7408030">
        <ele>6.4</ele>
        <time>2021-05-16T10:42:49Z</time>
      </trkpt>
      <trkpt lat="41.3381500" lon="-8.7408130">
        <ele>6.4</ele>
        <time>2021-05-16T10:42:50Z</time>
      </trkpt>
      <trkpt lat="41.3381580" lon="-8.7408180">
        <ele>6.4</ele>
        <time>2021-05-16T10:42:51Z</time>
      </trkpt>
      <trkpt lat="41.3381660" lon="-8.7408220">
        <ele>6.4</ele>
        <time>2021-05-16T10:42:52Z</time>
      </trkpt>
      <trkpt lat="41.3381800" lon="-8.7408260">
        <ele>6.4</ele>
        <time>2021-05-16T10:42:53Z</time>
      </trkpt>
      <trkpt lat="41.3381930" lon="-8.7408300">
        <ele>6.4</ele>
        <time>2021-05-16T10:42:54Z</time>
      </trkpt>
      <trkpt lat="41.3382120" lon="-8.7408440">
        <ele>6.5</ele>
        <time>2021-05-16T10:42:55Z</time>
      </trkpt>
      <trkpt lat="41.3382200" lon="-8.7408460">
        <ele>6.5</ele>
        <time>2021-05-16T10:42:56Z</time>
      </trkpt>
      <trkpt lat="41.3382280" lon="-8.7408490">
        <ele>6.5</ele>
        <time>2021-05-16T10:42:57Z</time>
      </trkpt>
      <trkpt lat="41.3382500" lon="-8.7408490">
        <ele>6.5</ele>
        <time>2021-05-16T10:42:58Z</time>
      </trkpt>
      <trkpt lat="41.3382580" lon="-8.7408470">
        <ele>6.5</ele>
        <time>2021-05-16T10:42:59Z</time>
      </trkpt>
      <trkpt lat="41.3382670" lon="-8.7408460">
        <ele>6.5</ele>
        <time>2021-05-16T10:43:00Z</time>
      </trkpt>
      <trkpt lat="41.3382800" lon="-8.7408430">
        <ele>6.5</ele>
        <time>2021-05-16T10:43:01Z</time>
      </trkpt>
      <trkpt lat="41.3382930" lon="-8.7408350">
        <ele>6.5</ele>
        <time>2021-05-16T10:43:02Z</time>
      </trkpt>
      <trkpt lat="41.3383120" lon="-8.7408230">
        <ele>6.4</ele>
        <time>2021-05-16T10:43:03Z</time>
      </trkpt>
      <trkpt lat="41.3383190" lon="-8.7408180">
        <ele>6.4</ele>
        <time>2021-05-16T10:43:04Z</time>
      </trkpt>
      <trkpt lat="41.3383270" lon="-8.7408140">
        <ele>6.4</ele>
        <time>2021-05-16T10:43:05Z</time>
      </trkpt>
      <trkpt lat="41.3383360" lon="-8.7408030">
        <ele>6.4</ele>
        <time>2021-05-16T10:43:06Z</time>
      </trkpt>
      <trkpt lat="41.3383480" lon="-8.7407980">
        <ele>6.4</ele>
        <time>2021-05-16T10:43:07Z</time>
      </trkpt>
      <trkpt lat="41.3383600" lon="-8.7407920">
        <ele>6.4</ele>
        <time>2021-05-16T10:43:08Z</time>
      </trkpt>
      <trkpt lat="41.3383820" lon="-8.7407910">
        <ele>6.4</ele>
        <time>2021-05-16T10:43:09Z</time>
      </trkpt>
      <trkpt lat="41.3383900" lon="-8.7407920">
        <ele>6.4</ele>
        <time>2021-05-16T10:43:10Z</time>
      </trkpt>
      <trkpt lat="41.3383990" lon="-8.7407920">
        <ele>6.4</ele>
        <time>2021-05-16T10:43:11Z</time>
      </trkpt>
      <trkpt lat="41.3384120" lon="-8.7407940">
        <ele>6.4</ele>
        <time>2021-05-16T10:43:12Z</time>
      </trkpt>
      <trkpt lat="41.3384260" lon="-8.7408030">
        <ele>6.3</ele>
        <time>2021-05-16T10:43:13Z</time>
      </trkpt>
      <trkpt lat="41.3384390" lon="-8.7408110">
        <ele>6.3</ele>
        <time>2021-05-16T10:43:14Z</time>
      </trkpt>
      <trkpt lat="41.3384530" lon="-8.7408160">
        <ele>6.3</ele>
        <time>2021-05-16T10:43:15Z</time>
      </trkpt>
      <trkpt lat="41.3384660" lon="-8.7408270">
        <ele>6.3</ele>
        <time>2021-05-16T10:43:16Z</time>
      </trkpt>
      <trkpt lat="41.3384810" lon="-8.7408290">
        <ele>6.3</ele>
        <time>2021-05-16T10:43:17Z</time>
      </trkpt>
      <trkpt lat="41.3384930" lon="-8.7408350">
        <ele>6.2</ele>
        <time>2021-05-16T10:43:18Z</time>
      </trkpt>
      <trkpt lat="41.3385070" lon="-8.7408400">
        <ele>6.2</ele>
        <time>2021-05-16T10:43:19Z</time>
      </trkpt>
      <trkpt lat="41.3385220" lon="-8.7408460">
        <ele>6.2</ele>
        <time>2021-05-16T10:43:20Z</time>
      </trkpt>
      <trkpt lat="41.3385360" lon="-8.7408480">
        <ele>6.2</ele>
        <time>2021-05-16T10:43:21Z</time>
      </trkpt>
      <trkpt lat="41.3385500" lon="-8.7408500">
        <ele>6.2</ele>
        <time>2021-05-16T10:43:22Z</time>
      </trkpt>
      <trkpt lat="41.3385650" lon="-8.7408540">
        <ele>6.2</ele>
        <time>2021-05-16T10:43:23Z</time>
      </trkpt>
      <trkpt lat="41.3385790" lon="-8.7408610">
        <ele>6.1</ele>
        <time>2021-05-16T10:43:24Z</time>
      </trkpt>
      <trkpt lat="41.3385890" lon="-8.7408710">
        <ele>6.1</ele>
        <time>2021-05-16T10:43:25Z</time>
      </trkpt>
      <trkpt lat="41.3386090" lon="-8.7408810">
        <ele>6.1</ele>
        <time>2021-05-16T10:43:26Z</time>
      </trkpt>
      <trkpt lat="41.3386160" lon="-8.7408840">
        <ele>6.1</ele>
        <time>2021-05-16T10:43:27Z</time>
      </trkpt>
      <trkpt lat="41.3386240" lon="-8.7408870">
        <ele>6.1</ele>
        <time>2021-05-16T10:43:28Z</time>
      </trkpt>
      <trkpt lat="41.3386390" lon="-8.7408860">
        <ele>6.1</ele>
        <time>2021-05-16T10:43:29Z</time>
      </trkpt>
      <trkpt lat="41.3386520" lon="-8.7408940">
        <ele>6.1</ele>
        <time>2021-05-16T10:43:30Z</time>
      </trkpt>
      <trkpt lat="41.3386690" lon="-8.7408940">
        <ele>6.0</ele>
        <time>2021-05-16T10:43:31Z</time>
      </trkpt>
      <trkpt lat="41.3386870" lon="-8.7409000">
        <ele>6.0</ele>
        <time>2021-05-16T10:43:32Z</time>
      </trkpt>
      <trkpt lat="41.3387020" lon="-8.7409060">
        <ele>6.0</ele>
        <time>2021-05-16T10:43:33Z</time>
      </trkpt>
      <trkpt lat="41.3387140" lon="-8.7409130">
        <ele>6.0</ele>
        <time>2021-05-16T10:43:34Z</time>
      </trkpt>
      <trkpt lat="41.3387240" lon="-8.7409190">
        <ele>6.0</ele>
        <time>2021-05-16T10:43:35Z</time>
      </trkpt>
      <trkpt lat="41.3387380" lon="-8.7409210">
        <ele>6.0</ele>
        <time>2021-05-16T10:43:36Z</time>
      </trkpt>
      <trkpt lat="41.3387500" lon="-8.7409260">
        <ele>6.0</ele>
        <time>2021-05-16T10:43:37Z</time>
      </trkpt>
      <trkpt lat="41.3387630" lon="-8.7409280">
        <ele>6.0</ele>
        <time>2021-05-16T10:43:38Z</time>
      </trkpt>
      <trkpt lat="41.3387780" lon="-8.7409290">
        <ele>5.9</ele>
        <time>2021-05-16T10:43:39Z</time>
      </trkpt>
      <trkpt lat="41.3387930" lon="-8.7409360">
        <ele>5.9</ele>
        <time>2021-05-16T10:43:40Z</time>
      </trkpt>
      <trkpt lat="41.3388070" lon="-8.7409400">
        <ele>5.9</ele>
        <time>2021-05-16T10:43:41Z</time>
      </trkpt>
      <trkpt lat="41.3388270" lon="-8.7409530">
        <ele>5.9</ele>
        <time>2021-05-16T10:43:42Z</time>
      </trkpt>
      <trkpt lat="41.3388350" lon="-8.7409550">
        <ele>5.9</ele>
        <time>2021-05-16T10:43:43Z</time>
      </trkpt>
      <trkpt lat="41.3388440" lon="-8.7409570">
        <ele>5.9</ele>
        <time>2021-05-16T10:43:44Z</time>
      </trkpt>
      <trkpt lat="41.3388570" lon="-8.7409630">
        <ele>5.9</ele>
        <time>2021-05-16T10:43:45Z</time>
      </trkpt>
      <trkpt lat="41.3388730" lon="-8.7409670">
        <ele>5.9</ele>
        <time>2021-05-16T10:43:46Z</time>
      </trkpt>
      <trkpt lat="41.3388950" lon="-8.7409720">
        <ele>5.9</ele>
        <time>2021-05-16T10:43:47Z</time>
      </trkpt>
      <trkpt lat="41.3389030" lon="-8.7409740">
        <ele>5.9</ele>
        <time>2021-05-16T10:43:48Z</time>
      </trkpt>
      <trkpt lat="41.3389120" lon="-8.7409760">
        <ele>5.9</ele>
        <time>2021-05-16T10:43:49Z</time>
      </trkpt>
      <trkpt lat="41.3389330" lon="-8.7409850">
        <ele>5.8</ele>
        <time>2021-05-16T10:43:50Z</time>
      </trkpt>
      <trkpt lat="41.3389410" lon="-8.7409870">
        <ele>5.8</ele>
        <time>2021-05-16T10:43:51Z</time>
      </trkpt>
      <trkpt lat="41.3389500" lon="-8.7409890">
        <ele>5.8</ele>
        <time>2021-05-16T10:43:52Z</time>
      </trkpt>
      <trkpt lat="41.3389640" lon="-8.7409930">
        <ele>5.8</ele>
        <time>2021-05-16T10:43:53Z</time>
      </trkpt>
      <trkpt lat="41.3389790" lon="-8.7409940">
        <ele>5.8</ele>
        <time>2021-05-16T10:43:54Z</time>
      </trkpt>
      <trkpt lat="41.3389930" lon="-8.7409970">
        <ele>5.8</ele>
        <time>2021-05-16T10:43:55Z</time>
      </trkpt>
      <trkpt lat="41.3390070" lon="-8.7410020">
        <ele>5.8</ele>
        <time>2021-05-16T10:43:56Z</time>
      </trkpt>
      <trkpt lat="41.3390200" lon="-8.7410080">
        <ele>5.8</ele>
        <time>2021-05-16T10:43:57Z</time>
      </trkpt>
      <trkpt lat="41.3390330" lon="-8.7410140">
        <ele>5.8</ele>
        <time>2021-05-16T10:43:58Z</time>
      </trkpt>
      <trkpt lat="41.3390480" lon="-8.7410190">
        <ele>5.8</ele>
        <time>2021-05-16T10:43:59Z</time>
      </trkpt>
      <trkpt lat="41.3390620" lon="-8.7410240">
        <ele>5.8</ele>
        <time>2021-05-16T10:44:00Z</time>
      </trkpt>
      <trkpt lat="41.3390840" lon="-8.7410300">
        <ele>5.8</ele>
        <time>2021-05-16T10:44:01Z</time>
      </trkpt>
      <trkpt lat="41.3390930" lon="-8.7410330">
        <ele>5.8</ele>
        <time>2021-05-16T10:44:02Z</time>
      </trkpt>
      <trkpt lat="41.3391020" lon="-8.7410370">
        <ele>5.8</ele>
        <time>2021-05-16T10:44:03Z</time>
      </trkpt>
      <trkpt lat="41.3391140" lon="-8.7410480">
        <ele>5.8</ele>
        <time>2021-05-16T10:44:04Z</time>
      </trkpt>
      <trkpt lat="41.3391280" lon="-8.7410510">
        <ele>5.8</ele>
        <time>2021-05-16T10:44:05Z</time>
      </trkpt>
      <trkpt lat="41.3391360" lon="-8.7410520">
        <ele>5.8</ele>
        <time>2021-05-16T10:44:06Z</time>
      </trkpt>
      <trkpt lat="41.3391440" lon="-8.7410540">
        <ele>5.8</ele>
        <time>2021-05-16T10:44:07Z</time>
      </trkpt>
      <trkpt lat="41.3391560" lon="-8.7410550">
        <ele>5.8</ele>
        <time>2021-05-16T10:44:08Z</time>
      </trkpt>
      <trkpt lat="41.3391650" lon="-8.7410620">
        <ele>5.8</ele>
        <time>2021-05-16T10:44:09Z</time>
      </trkpt>
      <trkpt lat="41.3391730" lon="-8.7410680">
        <ele>5.8</ele>
        <time>2021-05-16T10:44:10Z</time>
      </trkpt>
      <trkpt lat="41.3391800" lon="-8.7410730">
        <ele>5.8</ele>
        <time>2021-05-16T10:44:11Z</time>
      </trkpt>
      <trkpt lat="41.3391880" lon="-8.7410790">
        <ele>5.8</ele>
        <time>2021-05-16T10:44:12Z</time>
      </trkpt>
      <trkpt lat="41.3391970" lon="-8.7410870">
        <ele>5.8</ele>
        <time>2021-05-16T10:44:13Z</time>
      </trkpt>
      <trkpt lat="41.3392010" lon="-8.7410950">
        <ele>5.7</ele>
        <time>2021-05-16T10:44:14Z</time>
      </trkpt>
      <trkpt lat="41.3392080" lon="-8.7411140">
        <ele>5.7</ele>
        <time>2021-05-16T10:44:15Z</time>
      </trkpt>
      <trkpt lat="41.3392110" lon="-8.7411300">
        <ele>5.7</ele>
        <time>2021-05-16T10:44:16Z</time>
      </trkpt>
      <trkpt lat="41.3392180" lon="-8.7411490">
        <ele>5.7</ele>
        <time>2021-05-16T10:44:17Z</time>
      </trkpt>
      <trkpt lat="41.3392300" lon="-8.7411670">
        <ele>5.7</ele>
        <time>2021-05-16T10:44:18Z</time>
      </trkpt>
      <trkpt lat="41.3392370" lon="-8.7411820">
        <ele>5.7</ele>
        <time>2021-05-16T10:44:19Z</time>
      </trkpt>
      <trkpt lat="41.3392420" lon="-8.7412010">
        <ele>5.7</ele>
        <time>2021-05-16T10:44:20Z</time>
      </trkpt>
      <trkpt lat="41.3392460" lon="-8.7412200">
        <ele>5.7</ele>
        <time>2021-05-16T10:44:21Z</time>
      </trkpt>
      <trkpt lat="41.3392510" lon="-8.7412360">
        <ele>5.7</ele>
        <time>2021-05-16T10:44:22Z</time>
      </trkpt>
      <trkpt lat="41.3392580" lon="-8.7412530">
        <ele>5.6</ele>
        <time>2021-05-16T10:44:23Z</time>
      </trkpt>
      <trkpt lat="41.3392660" lon="-8.7412790">
        <ele>5.6</ele>
        <time>2021-05-16T10:44:24Z</time>
      </trkpt>
      <trkpt lat="41.3392700" lon="-8.7412910">
        <ele>5.6</ele>
        <time>2021-05-16T10:44:25Z</time>
      </trkpt>
      <trkpt lat="41.3392740" lon="-8.7413020">
        <ele>5.6</ele>
        <time>2021-05-16T10:44:26Z</time>
      </trkpt>
      <trkpt lat="41.3392890" lon="-8.7413220">
        <ele>5.6</ele>
        <time>2021-05-16T10:44:27Z</time>
      </trkpt>
      <trkpt lat="41.3392920" lon="-8.7413340">
        <ele>5.6</ele>
        <time>2021-05-16T10:44:28Z</time>
      </trkpt>
      <trkpt lat="41.3392960" lon="-8.7413450">
        <ele>5.6</ele>
        <time>2021-05-16T10:44:29Z</time>
      </trkpt>
      <trkpt lat="41.3393050" lon="-8.7413600">
        <ele>5.6</ele>
        <time>2021-05-16T10:44:30Z</time>
      </trkpt>
      <trkpt lat="41.3393100" lon="-8.7413790">
        <ele>5.6</ele>
        <time>2021-05-16T10:44:31Z</time>
      </trkpt>
      <trkpt lat="41.3393240" lon="-8.7414010">
        <ele>5.5</ele>
        <time>2021-05-16T10:44:32Z</time>
      </trkpt>
      <trkpt lat="41.3393290" lon="-8.7414080">
        <ele>5.5</ele>
        <time>2021-05-16T10:44:33Z</time>
      </trkpt>
      <trkpt lat="41.3393350" lon="-8.7414160">
        <ele>5.5</ele>
        <time>2021-05-16T10:44:34Z</time>
      </trkpt>
      <trkpt lat="41.3393450" lon="-8.7414390">
        <ele>5.5</ele>
        <time>2021-05-16T10:44:35Z</time>
      </trkpt>
      <trkpt lat="41.3393510" lon="-8.7414480">
        <ele>5.5</ele>
        <time>2021-05-16T10:44:36Z</time>
      </trkpt>
      <trkpt lat="41.3393560" lon="-8.7414570">
        <ele>5.5</ele>
        <time>2021-05-16T10:44:37Z</time>
      </trkpt>
      <trkpt lat="41.3393610" lon="-8.7414700">
        <ele>5.5</ele>
        <time>2021-05-16T10:44:38Z</time>
      </trkpt>
      <trkpt lat="41.3393700" lon="-8.7414830">
        <ele>5.5</ele>
        <time>2021-05-16T10:44:39Z</time>
      </trkpt>
      <trkpt lat="41.3393740" lon="-8.7414970">
        <ele>5.5</ele>
        <time>2021-05-16T10:44:40Z</time>
      </trkpt>
      <trkpt lat="41.3393800" lon="-8.7415090">
        <ele>5.5</ele>
        <time>2021-05-16T10:44:41Z</time>
      </trkpt>
      <trkpt lat="41.3393860" lon="-8.7415210">
        <ele>5.5</ele>
        <time>2021-05-16T10:44:42Z</time>
      </trkpt>
      <trkpt lat="41.3393960" lon="-8.7415290">
        <ele>5.5</ele>
        <time>2021-05-16T10:44:43Z</time>
      </trkpt>
      <trkpt lat="41.3394080" lon="-8.7415520">
        <ele>5.4</ele>
        <time>2021-05-16T10:44:44Z</time>
      </trkpt>
      <trkpt lat="41.3394140" lon="-8.7415600">
        <ele>5.4</ele>
        <time>2021-05-16T10:44:45Z</time>
      </trkpt>
      <trkpt lat="41.3394210" lon="-8.7415680">
        <ele>5.4</ele>
        <time>2021-05-16T10:44:46Z</time>
      </trkpt>
      <trkpt lat="41.3394390" lon="-8.7415800">
        <ele>5.4</ele>
        <time>2021-05-16T10:44:47Z</time>
      </trkpt>
      <trkpt lat="41.3394480" lon="-8.7415840">
        <ele>5.4</ele>
        <time>2021-05-16T10:44:48Z</time>
      </trkpt>
      <trkpt lat="41.3394560" lon="-8.7415880">
        <ele>5.4</ele>
        <time>2021-05-16T10:44:49Z</time>
      </trkpt>
      <trkpt lat="41.3394700" lon="-8.7415830">
        <ele>5.4</ele>
        <time>2021-05-16T10:44:50Z</time>
      </trkpt>
      <trkpt lat="41.3394850" lon="-8.7415840">
        <ele>5.4</ele>
        <time>2021-05-16T10:44:51Z</time>
      </trkpt>
      <trkpt lat="41.3394970" lon="-8.7415780">
        <ele>5.3</ele>
        <time>2021-05-16T10:44:52Z</time>
      </trkpt>
      <trkpt lat="41.3395090" lon="-8.7415820">
        <ele>5.2</ele>
        <time>2021-05-16T10:44:53Z</time>
      </trkpt>
      <trkpt lat="41.3395210" lon="-8.7415890">
        <ele>5.2</ele>
        <time>2021-05-16T10:44:54Z</time>
      </trkpt>
      <trkpt lat="41.3395340" lon="-8.7415950">
        <ele>5.1</ele>
        <time>2021-05-16T10:44:55Z</time>
      </trkpt>
      <trkpt lat="41.3395480" lon="-8.7415970">
        <ele>5.1</ele>
        <time>2021-05-16T10:44:56Z</time>
      </trkpt>
      <trkpt lat="41.3395630" lon="-8.7415920">
        <ele>5.0</ele>
        <time>2021-05-16T10:44:57Z</time>
      </trkpt>
      <trkpt lat="41.3395750" lon="-8.7415850">
        <ele>5.0</ele>
        <time>2021-05-16T10:44:58Z</time>
      </trkpt>
      <trkpt lat="41.3395900" lon="-8.7415800">
        <ele>4.9</ele>
        <time>2021-05-16T10:44:59Z</time>
      </trkpt>
      <trkpt lat="41.3396020" lon="-8.7415710">
        <ele>4.8</ele>
        <time>2021-05-16T10:45:00Z</time>
      </trkpt>
      <trkpt lat="41.3396130" lon="-8.7415590">
        <ele>4.8</ele>
        <time>2021-05-16T10:45:01Z</time>
      </trkpt>
      <trkpt lat="41.3396230" lon="-8.7415400">
        <ele>4.7</ele>
        <time>2021-05-16T10:45:02Z</time>
      </trkpt>
      <trkpt lat="41.3396390" lon="-8.7415370">
        <ele>4.7</ele>
        <time>2021-05-16T10:45:03Z</time>
      </trkpt>
      <trkpt lat="41.3396490" lon="-8.7415240">
        <ele>4.6</ele>
        <time>2021-05-16T10:45:04Z</time>
      </trkpt>
      <trkpt lat="41.3396680" lon="-8.7415120">
        <ele>4.5</ele>
        <time>2021-05-16T10:45:05Z</time>
      </trkpt>
      <trkpt lat="41.3396760" lon="-8.7415090">
        <ele>4.5</ele>
        <time>2021-05-16T10:45:06Z</time>
      </trkpt>
      <trkpt lat="41.3396840" lon="-8.7415050">
        <ele>4.5</ele>
        <time>2021-05-16T10:45:07Z</time>
      </trkpt>
      <trkpt lat="41.3396950" lon="-8.7414910">
        <ele>4.4</ele>
        <time>2021-05-16T10:45:08Z</time>
      </trkpt>
      <trkpt lat="41.3397040" lon="-8.7414760">
        <ele>4.4</ele>
        <time>2021-05-16T10:45:09Z</time>
      </trkpt>
      <trkpt lat="41.3397160" lon="-8.7414540">
        <ele>4.3</ele>
        <time>2021-05-16T10:45:10Z</time>
      </trkpt>
      <trkpt lat="41.3397210" lon="-8.7414430">
        <ele>4.3</ele>
        <time>2021-05-16T10:45:11Z</time>
      </trkpt>
      <trkpt lat="41.3397250" lon="-8.7414330">
        <ele>4.2</ele>
        <time>2021-05-16T10:45:12Z</time>
      </trkpt>
      <trkpt lat="41.3397430" lon="-8.7414180">
        <ele>4.2</ele>
        <time>2021-05-16T10:45:13Z</time>
      </trkpt>
      <trkpt lat="41.3397520" lon="-8.7414140">
        <ele>4.2</ele>
        <time>2021-05-16T10:45:14Z</time>
      </trkpt>
      <trkpt lat="41.3397600" lon="-8.7414100">
        <ele>4.1</ele>
        <time>2021-05-16T10:45:15Z</time>
      </trkpt>
      <trkpt lat="41.3397740" lon="-8.7414050">
        <ele>4.1</ele>
        <time>2021-05-16T10:45:16Z</time>
      </trkpt>
      <trkpt lat="41.3397870" lon="-8.7413970">
        <ele>4.1</ele>
        <time>2021-05-16T10:45:17Z</time>
      </trkpt>
      <trkpt lat="41.3397990" lon="-8.7413870">
        <ele>4.0</ele>
        <time>2021-05-16T10:45:18Z</time>
      </trkpt>
      <trkpt lat="41.3398110" lon="-8.7413790">
        <ele>4.0</ele>
        <time>2021-05-16T10:45:19Z</time>
      </trkpt>
      <trkpt lat="41.3398280" lon="-8.7413860">
        <ele>4.0</ele>
        <time>2021-05-16T10:45:20Z</time>
      </trkpt>
      <trkpt lat="41.3398420" lon="-8.7413950">
        <ele>3.9</ele>
        <time>2021-05-16T10:45:21Z</time>
      </trkpt>
      <trkpt lat="41.3398570" lon="-8.7413940">
        <ele>3.9</ele>
        <time>2021-05-16T10:45:22Z</time>
      </trkpt>
      <trkpt lat="41.3398690" lon="-8.7413850">
        <ele>3.9</ele>
        <time>2021-05-16T10:45:23Z</time>
      </trkpt>
      <trkpt lat="41.3398810" lon="-8.7413790">
        <ele>3.8</ele>
        <time>2021-05-16T10:45:24Z</time>
      </trkpt>
      <trkpt lat="41.3398940" lon="-8.7413730">
        <ele>3.8</ele>
        <time>2021-05-16T10:45:25Z</time>
      </trkpt>
      <trkpt lat="41.3399080" lon="-8.7413700">
        <ele>3.8</ele>
        <time>2021-05-16T10:45:26Z</time>
      </trkpt>
      <trkpt lat="41.3399190" lon="-8.7413580">
        <ele>3.8</ele>
        <time>2021-05-16T10:45:27Z</time>
      </trkpt>
      <trkpt lat="41.3399370" lon="-8.7413460">
        <ele>3.7</ele>
        <time>2021-05-16T10:45:28Z</time>
      </trkpt>
      <trkpt lat="41.3399460" lon="-8.7413430">
        <ele>3.7</ele>
        <time>2021-05-16T10:45:29Z</time>
      </trkpt>
      <trkpt lat="41.3399540" lon="-8.7413390">
        <ele>3.7</ele>
        <time>2021-05-16T10:45:30Z</time>
      </trkpt>
      <trkpt lat="41.3399740" lon="-8.7413270">
        <ele>3.7</ele>
        <time>2021-05-16T10:45:31Z</time>
      </trkpt>
      <trkpt lat="41.3399820" lon="-8.7413210">
        <ele>3.7</ele>
        <time>2021-05-16T10:45:32Z</time>
      </trkpt>
      <trkpt lat="41.3399900" lon="-8.7413160">
        <ele>3.6</ele>
        <time>2021-05-16T10:45:33Z</time>
      </trkpt>
      <trkpt lat="41.3400010" lon="-8.7413040">
        <ele>3.6</ele>
        <time>2021-05-16T10:45:34Z</time>
      </trkpt>
      <trkpt lat="41.3400140" lon="-8.7412980">
        <ele>3.6</ele>
        <time>2021-05-16T10:45:35Z</time>
      </trkpt>
      <trkpt lat="41.3400330" lon="-8.7412810">
        <ele>3.6</ele>
        <time>2021-05-16T10:45:36Z</time>
      </trkpt>
      <trkpt lat="41.3400410" lon="-8.7412760">
        <ele>3.6</ele>
        <time>2021-05-16T10:45:37Z</time>
      </trkpt>
      <trkpt lat="41.3400490" lon="-8.7412710">
        <ele>3.6</ele>
        <time>2021-05-16T10:45:38Z</time>
      </trkpt>
      <trkpt lat="41.3400700" lon="-8.7412600">
        <ele>3.5</ele>
        <time>2021-05-16T10:45:39Z</time>
      </trkpt>
      <trkpt lat="41.3400780" lon="-8.7412560">
        <ele>3.5</ele>
        <time>2021-05-16T10:45:40Z</time>
      </trkpt>
      <trkpt lat="41.3400860" lon="-8.7412520">
        <ele>3.5</ele>
        <time>2021-05-16T10:45:41Z</time>
      </trkpt>
      <trkpt lat="41.3401070" lon="-8.7412400">
        <ele>3.5</ele>
        <time>2021-05-16T10:45:42Z</time>
      </trkpt>
      <trkpt lat="41.3401150" lon="-8.7412360">
        <ele>3.5</ele>
        <time>2021-05-16T10:45:43Z</time>
      </trkpt>
      <trkpt lat="41.3401240" lon="-8.7412310">
        <ele>3.5</ele>
        <time>2021-05-16T10:45:44Z</time>
      </trkpt>
      <trkpt lat="41.3401450" lon="-8.7412200">
        <ele>3.4</ele>
        <time>2021-05-16T10:45:45Z</time>
      </trkpt>
      <trkpt lat="41.3401530" lon="-8.7412170">
        <ele>3.4</ele>
        <time>2021-05-16T10:45:46Z</time>
      </trkpt>
      <trkpt lat="41.3401620" lon="-8.7412130">
        <ele>3.4</ele>
        <time>2021-05-16T10:45:47Z</time>
      </trkpt>
      <trkpt lat="41.3401760" lon="-8.7412070">
        <ele>3.4</ele>
        <time>2021-05-16T10:45:48Z</time>
      </trkpt>
      <trkpt lat="41.3401890" lon="-8.7412030">
        <ele>3.4</ele>
        <time>2021-05-16T10:45:49Z</time>
      </trkpt>
      <trkpt lat="41.3402080" lon="-8.7411870">
        <ele>3.4</ele>
        <time>2021-05-16T10:45:50Z</time>
      </trkpt>
      <trkpt lat="41.3402150" lon="-8.7411800">
        <ele>3.4</ele>
        <time>2021-05-16T10:45:51Z</time>
      </trkpt>
      <trkpt lat="41.3402230" lon="-8.7411730">
        <ele>3.4</ele>
        <time>2021-05-16T10:45:52Z</time>
      </trkpt>
      <trkpt lat="41.3402420" lon="-8.7411640">
        <ele>3.3</ele>
        <time>2021-05-16T10:45:53Z</time>
      </trkpt>
      <trkpt lat="41.3402510" lon="-8.7411600">
        <ele>3.3</ele>
        <time>2021-05-16T10:45:54Z</time>
      </trkpt>
      <trkpt lat="41.3402590" lon="-8.7411570">
        <ele>3.3</ele>
        <time>2021-05-16T10:45:55Z</time>
      </trkpt>
      <trkpt lat="41.3402780" lon="-8.7411440">
        <ele>3.3</ele>
        <time>2021-05-16T10:45:56Z</time>
      </trkpt>
      <trkpt lat="41.3402860" lon="-8.7411370">
        <ele>3.3</ele>
        <time>2021-05-16T10:45:57Z</time>
      </trkpt>
      <trkpt lat="41.3402930" lon="-8.7411300">
        <ele>3.3</ele>
        <time>2021-05-16T10:45:58Z</time>
      </trkpt>
      <trkpt lat="41.3403060" lon="-8.7411230">
        <ele>3.3</ele>
        <time>2021-05-16T10:45:59Z</time>
      </trkpt>
      <trkpt lat="41.3403180" lon="-8.7411140">
        <ele>3.3</ele>
        <time>2021-05-16T10:46:00Z</time>
      </trkpt>
      <trkpt lat="41.3403320" lon="-8.7411110">
        <ele>3.3</ele>
        <time>2021-05-16T10:46:01Z</time>
      </trkpt>
      <trkpt lat="41.3403430" lon="-8.7410970">
        <ele>3.2</ele>
        <time>2021-05-16T10:46:02Z</time>
      </trkpt>
      <trkpt lat="41.3403640" lon="-8.7410940">
        <ele>3.2</ele>
        <time>2021-05-16T10:46:03Z</time>
      </trkpt>
      <trkpt lat="41.3403730" lon="-8.7410900">
        <ele>3.2</ele>
        <time>2021-05-16T10:46:04Z</time>
      </trkpt>
      <trkpt lat="41.3403810" lon="-8.7410870">
        <ele>3.2</ele>
        <time>2021-05-16T10:46:05Z</time>
      </trkpt>
      <trkpt lat="41.3403940" lon="-8.7410730">
        <ele>3.2</ele>
        <time>2021-05-16T10:46:06Z</time>
      </trkpt>
      <trkpt lat="41.3404050" lon="-8.7410640">
        <ele>3.2</ele>
        <time>2021-05-16T10:46:07Z</time>
      </trkpt>
      <trkpt lat="41.3404250" lon="-8.7410500">
        <ele>3.2</ele>
        <time>2021-05-16T10:46:08Z</time>
      </trkpt>
      <trkpt lat="41.3404330" lon="-8.7410450">
        <ele>3.2</ele>
        <time>2021-05-16T10:46:09Z</time>
      </trkpt>
      <trkpt lat="41.3404420" lon="-8.7410410">
        <ele>3.2</ele>
        <time>2021-05-16T10:46:10Z</time>
      </trkpt>
      <trkpt lat="41.3404570" lon="-8.7410340">
        <ele>3.2</ele>
        <time>2021-05-16T10:46:11Z</time>
      </trkpt>
      <trkpt lat="41.3404680" lon="-8.7410260">
        <ele>3.2</ele>
        <time>2021-05-16T10:46:12Z</time>
      </trkpt>
      <trkpt lat="41.3404820" lon="-8.7410190">
        <ele>3.2</ele>
        <time>2021-05-16T10:46:13Z</time>
      </trkpt>
      <trkpt lat="41.3404960" lon="-8.7410100">
        <ele>3.1</ele>
        <time>2021-05-16T10:46:14Z</time>
      </trkpt>
      <trkpt lat="41.3405160" lon="-8.7410080">
        <ele>3.1</ele>
        <time>2021-05-16T10:46:15Z</time>
      </trkpt>
      <trkpt lat="41.3405250" lon="-8.7410030">
        <ele>3.1</ele>
        <time>2021-05-16T10:46:16Z</time>
      </trkpt>
      <trkpt lat="41.3405330" lon="-8.7409990">
        <ele>3.1</ele>
        <time>2021-05-16T10:46:17Z</time>
      </trkpt>
      <trkpt lat="41.3405520" lon="-8.7409900">
        <ele>3.1</ele>
        <time>2021-05-16T10:46:18Z</time>
      </trkpt>
      <trkpt lat="41.3405600" lon="-8.7409840">
        <ele>3.1</ele>
        <time>2021-05-16T10:46:19Z</time>
      </trkpt>
      <trkpt lat="41.3405680" lon="-8.7409790">
        <ele>3.1</ele>
        <time>2021-05-16T10:46:20Z</time>
      </trkpt>
      <trkpt lat="41.3405870" lon="-8.7409630">
        <ele>3.1</ele>
        <time>2021-05-16T10:46:21Z</time>
      </trkpt>
      <trkpt lat="41.3405940" lon="-8.7409580">
        <ele>3.1</ele>
        <time>2021-05-16T10:46:22Z</time>
      </trkpt>
      <trkpt lat="41.3406020" lon="-8.7409530">
        <ele>3.1</ele>
        <time>2021-05-16T10:46:23Z</time>
      </trkpt>
      <trkpt lat="41.3406150" lon="-8.7409450">
        <ele>3.1</ele>
        <time>2021-05-16T10:46:24Z</time>
      </trkpt>
      <trkpt lat="41.3406280" lon="-8.7409370">
        <ele>3.1</ele>
        <time>2021-05-16T10:46:25Z</time>
      </trkpt>
      <trkpt lat="41.3406400" lon="-8.7409320">
        <ele>3.1</ele>
        <time>2021-05-16T10:46:26Z</time>
      </trkpt>
      <trkpt lat="41.3406540" lon="-8.7409210">
        <ele>3.1</ele>
        <time>2021-05-16T10:46:27Z</time>
      </trkpt>
      <trkpt lat="41.3406660" lon="-8.7409140">
        <ele>3.1</ele>
        <time>2021-05-16T10:46:28Z</time>
      </trkpt>
      <trkpt lat="41.3406800" lon="-8.7409050">
        <ele>3.1</ele>
        <time>2021-05-16T10:46:29Z</time>
      </trkpt>
      <trkpt lat="41.3407000" lon="-8.7408920">
        <ele>3.1</ele>
        <time>2021-05-16T10:46:30Z</time>
      </trkpt>
      <trkpt lat="41.3407070" lon="-8.7408870">
        <ele>3.1</ele>
        <time>2021-05-16T10:46:31Z</time>
      </trkpt>
      <trkpt lat="41.3407150" lon="-8.7408810">
        <ele>3.1</ele>
        <time>2021-05-16T10:46:32Z</time>
      </trkpt>
      <trkpt lat="41.3407280" lon="-8.7408730">
        <ele>3.1</ele>
        <time>2021-05-16T10:46:33Z</time>
      </trkpt>
      <trkpt lat="41.3407390" lon="-8.7408630">
        <ele>3.1</ele>
        <time>2021-05-16T10:46:34Z</time>
      </trkpt>
      <trkpt lat="41.3407540" lon="-8.7408580">
        <ele>3.1</ele>
        <time>2021-05-16T10:46:35Z</time>
      </trkpt>
      <trkpt lat="41.3407670" lon="-8.7408600">
        <ele>3.1</ele>
        <time>2021-05-16T10:46:36Z</time>
      </trkpt>
      <trkpt lat="41.3407820" lon="-8.7408580">
        <ele>3.1</ele>
        <time>2021-05-16T10:46:37Z</time>
      </trkpt>
      <trkpt lat="41.3407960" lon="-8.7408470">
        <ele>3.1</ele>
        <time>2021-05-16T10:46:38Z</time>
      </trkpt>
      <trkpt lat="41.3408080" lon="-8.7408360">
        <ele>3.1</ele>
        <time>2021-05-16T10:46:39Z</time>
      </trkpt>
      <trkpt lat="41.3408210" lon="-8.7408310">
        <ele>3.1</ele>
        <time>2021-05-16T10:46:40Z</time>
      </trkpt>
      <trkpt lat="41.3408330" lon="-8.7408200">
        <ele>3.1</ele>
        <time>2021-05-16T10:46:41Z</time>
      </trkpt>
      <trkpt lat="41.3408450" lon="-8.7408140">
        <ele>3.1</ele>
        <time>2021-05-16T10:46:42Z</time>
      </trkpt>
      <trkpt lat="41.3408650" lon="-8.7407990">
        <ele>3.1</ele>
        <time>2021-05-16T10:46:43Z</time>
      </trkpt>
      <trkpt lat="41.3408730" lon="-8.7407940">
        <ele>3.1</ele>
        <time>2021-05-16T10:46:44Z</time>
      </trkpt>
      <trkpt lat="41.3408810" lon="-8.7407890">
        <ele>3.1</ele>
        <time>2021-05-16T10:46:45Z</time>
      </trkpt>
      <trkpt lat="41.3408940" lon="-8.7407840">
        <ele>3.1</ele>
        <time>2021-05-16T10:46:46Z</time>
      </trkpt>
      <trkpt lat="41.3409070" lon="-8.7407780">
        <ele>3.1</ele>
        <time>2021-05-16T10:46:47Z</time>
      </trkpt>
      <trkpt lat="41.3409200" lon="-8.7407720">
        <ele>3.1</ele>
        <time>2021-05-16T10:46:48Z</time>
      </trkpt>
      <trkpt lat="41.3409320" lon="-8.7407660">
        <ele>3.1</ele>
        <time>2021-05-16T10:46:49Z</time>
      </trkpt>
      <trkpt lat="41.3409460" lon="-8.7407580">
        <ele>3.1</ele>
        <time>2021-05-16T10:46:50Z</time>
      </trkpt>
      <trkpt lat="41.3409590" lon="-8.7407510">
        <ele>3.1</ele>
        <time>2021-05-16T10:46:51Z</time>
      </trkpt>
      <trkpt lat="41.3409720" lon="-8.7407450">
        <ele>3.1</ele>
        <time>2021-05-16T10:46:52Z</time>
      </trkpt>
      <trkpt lat="41.3409840" lon="-8.7407360">
        <ele>3.1</ele>
        <time>2021-05-16T10:46:53Z</time>
      </trkpt>
      <trkpt lat="41.3409970" lon="-8.7407320">
        <ele>3.1</ele>
        <time>2021-05-16T10:46:54Z</time>
      </trkpt>
      <trkpt lat="41.3410100" lon="-8.7407240">
        <ele>3.1</ele>
        <time>2021-05-16T10:46:55Z</time>
      </trkpt>
      <trkpt lat="41.3410310" lon="-8.7407140">
        <ele>3.1</ele>
        <time>2021-05-16T10:46:56Z</time>
      </trkpt>
      <trkpt lat="41.3410380" lon="-8.7407080">
        <ele>3.1</ele>
        <time>2021-05-16T10:46:57Z</time>
      </trkpt>
      <trkpt lat="41.3410460" lon="-8.7407030">
        <ele>3.1</ele>
        <time>2021-05-16T10:46:58Z</time>
      </trkpt>
      <trkpt lat="41.3410590" lon="-8.7406960">
        <ele>3.1</ele>
        <time>2021-05-16T10:46:59Z</time>
      </trkpt>
      <trkpt lat="41.3410710" lon="-8.7406890">
        <ele>3.1</ele>
        <time>2021-05-16T10:47:00Z</time>
      </trkpt>
      <trkpt lat="41.3410850" lon="-8.7406800">
        <ele>3.1</ele>
        <time>2021-05-16T10:47:01Z</time>
      </trkpt>
      <trkpt lat="41.3410960" lon="-8.7406720">
        <ele>3.1</ele>
        <time>2021-05-16T10:47:02Z</time>
      </trkpt>
      <trkpt lat="41.3411070" lon="-8.7406610">
        <ele>3.2</ele>
        <time>2021-05-16T10:47:03Z</time>
      </trkpt>
      <trkpt lat="41.3411210" lon="-8.7406540">
        <ele>3.2</ele>
        <time>2021-05-16T10:47:04Z</time>
      </trkpt>
      <trkpt lat="41.3411330" lon="-8.7406500">
        <ele>3.2</ele>
        <time>2021-05-16T10:47:05Z</time>
      </trkpt>
      <trkpt lat="41.3411460" lon="-8.7406410">
        <ele>3.2</ele>
        <time>2021-05-16T10:47:06Z</time>
      </trkpt>
      <trkpt lat="41.3411590" lon="-8.7406260">
        <ele>3.2</ele>
        <time>2021-05-16T10:47:07Z</time>
      </trkpt>
      <trkpt lat="41.3411740" lon="-8.7406190">
        <ele>3.2</ele>
        <time>2021-05-16T10:47:08Z</time>
      </trkpt>
      <trkpt lat="41.3411920" lon="-8.7406030">
        <ele>3.2</ele>
        <time>2021-05-16T10:47:09Z</time>
      </trkpt>
      <trkpt lat="41.3412010" lon="-8.7405990">
        <ele>3.2</ele>
        <time>2021-05-16T10:47:10Z</time>
      </trkpt>
      <trkpt lat="41.3412090" lon="-8.7405940">
        <ele>3.2</ele>
        <time>2021-05-16T10:47:11Z</time>
      </trkpt>
      <trkpt lat="41.3412300" lon="-8.7405860">
        <ele>3.2</ele>
        <time>2021-05-16T10:47:12Z</time>
      </trkpt>
      <trkpt lat="41.3412380" lon="-8.7405800">
        <ele>3.2</ele>
        <time>2021-05-16T10:47:13Z</time>
      </trkpt>
      <trkpt lat="41.3412450" lon="-8.7405740">
        <ele>3.2</ele>
        <time>2021-05-16T10:47:14Z</time>
      </trkpt>
      <trkpt lat="41.3412570" lon="-8.7405660">
        <ele>3.2</ele>
        <time>2021-05-16T10:47:15Z</time>
      </trkpt>
      <trkpt lat="41.3412720" lon="-8.7405640">
        <ele>3.2</ele>
        <time>2021-05-16T10:47:16Z</time>
      </trkpt>
      <trkpt lat="41.3412920" lon="-8.7405550">
        <ele>3.2</ele>
        <time>2021-05-16T10:47:17Z</time>
      </trkpt>
      <trkpt lat="41.3413000" lon="-8.7405510">
        <ele>3.3</ele>
        <time>2021-05-16T10:47:18Z</time>
      </trkpt>
      <trkpt lat="41.3413090" lon="-8.7405480">
        <ele>3.3</ele>
        <time>2021-05-16T10:47:19Z</time>
      </trkpt>
      <trkpt lat="41.3413220" lon="-8.7405440">
        <ele>3.3</ele>
        <time>2021-05-16T10:47:20Z</time>
      </trkpt>
      <trkpt lat="41.3413330" lon="-8.7405440">
        <ele>3.3</ele>
        <time>2021-05-16T10:47:21Z</time>
      </trkpt>
      <trkpt lat="41.3413440" lon="-8.7405380">
        <ele>3.3</ele>
        <time>2021-05-16T10:47:22Z</time>
      </trkpt>
      <trkpt lat="41.3413530" lon="-8.7405290">
        <ele>3.3</ele>
        <time>2021-05-16T10:47:23Z</time>
      </trkpt>
      <trkpt lat="41.3413640" lon="-8.7405260">
        <ele>3.3</ele>
        <time>2021-05-16T10:47:24Z</time>
      </trkpt>
      <trkpt lat="41.3413710" lon="-8.7405270">
        <ele>3.3</ele>
        <time>2021-05-16T10:47:25Z</time>
      </trkpt>
      <trkpt lat="41.3413700" lon="-8.7405230">
        <ele>3.3</ele>
        <time>2021-05-16T10:47:26Z</time>
      </trkpt>
      <trkpt lat="41.3413730" lon="-8.7405280">
        <ele>3.3</ele>
        <time>2021-05-16T10:47:27Z</time>
      </trkpt>
      <trkpt lat="41.3413720" lon="-8.7405300">
        <ele>3.3</ele>
        <time>2021-05-16T10:47:28Z</time>
      </trkpt>
      <trkpt lat="41.3413660" lon="-8.7405320">
        <ele>3.3</ele>
        <time>2021-05-16T10:47:29Z</time>
      </trkpt>
      <trkpt lat="41.3413710" lon="-8.7405300">
        <ele>3.3</ele>
        <time>2021-05-16T10:47:30Z</time>
      </trkpt>
      <trkpt lat="41.3413770" lon="-8.7405270">
        <ele>3.3</ele>
        <time>2021-05-16T10:47:31Z</time>
      </trkpt>
      <trkpt lat="41.3413810" lon="-8.7405190">
        <ele>3.3</ele>
        <time>2021-05-16T10:47:32Z</time>
      </trkpt>
      <trkpt lat="41.3413880" lon="-8.7405210">
        <ele>3.3</ele>
        <time>2021-05-16T10:47:33Z</time>
      </trkpt>
      <trkpt lat="41.3413970" lon="-8.7405140">
        <ele>3.3</ele>
        <time>2021-05-16T10:47:34Z</time>
      </trkpt>
      <trkpt lat="41.3414080" lon="-8.7405060">
        <ele>3.3</ele>
        <time>2021-05-16T10:47:35Z</time>
      </trkpt>
      <trkpt lat="41.3414160" lon="-8.7405050">
        <ele>3.3</ele>
        <time>2021-05-16T10:47:36Z</time>
      </trkpt>
      <trkpt lat="41.3414220" lon="-8.7405020">
        <ele>3.3</ele>
        <time>2021-05-16T10:47:37Z</time>
      </trkpt>
      <trkpt lat="41.3414310" lon="-8.7405010">
        <ele>3.3</ele>
        <time>2021-05-16T10:47:38Z</time>
      </trkpt>
      <trkpt lat="41.3414430" lon="-8.7405040">
        <ele>3.4</ele>
        <time>2021-05-16T10:47:39Z</time>
      </trkpt>
      <trkpt lat="41.3414530" lon="-8.7405110">
        <ele>3.4</ele>
        <time>2021-05-16T10:47:40Z</time>
      </trkpt>
      <trkpt lat="41.3414590" lon="-8.7405180">
        <ele>3.4</ele>
        <time>2021-05-16T10:47:41Z</time>
      </trkpt>
      <trkpt lat="41.3414640" lon="-8.7405190">
        <ele>3.4</ele>
        <time>2021-05-16T10:47:42Z</time>
      </trkpt>
      <trkpt lat="41.3414710" lon="-8.7405220">
        <ele>3.4</ele>
        <time>2021-05-16T10:47:43Z</time>
      </trkpt>
      <trkpt lat="41.3414750" lon="-8.7405230">
        <ele>3.4</ele>
        <time>2021-05-16T10:47:44Z</time>
      </trkpt>
      <trkpt lat="41.3414860" lon="-8.7405200">
        <ele>3.4</ele>
        <time>2021-05-16T10:47:45Z</time>
      </trkpt>
      <trkpt lat="41.3414930" lon="-8.7405140">
        <ele>3.4</ele>
        <time>2021-05-16T10:47:46Z</time>
      </trkpt>
      <trkpt lat="41.3415080" lon="-8.7405120">
        <ele>3.4</ele>
        <time>2021-05-16T10:47:47Z</time>
      </trkpt>
      <trkpt lat="41.3415210" lon="-8.7405090">
        <ele>3.4</ele>
        <time>2021-05-16T10:47:48Z</time>
      </trkpt>
      <trkpt lat="41.3415280" lon="-8.7405040">
        <ele>3.4</ele>
        <time>2021-05-16T10:47:49Z</time>
      </trkpt>
      <trkpt lat="41.3415400" lon="-8.7405030">
        <ele>3.5</ele>
        <time>2021-05-16T10:47:50Z</time>
      </trkpt>
      <trkpt lat="41.3415520" lon="-8.7404970">
        <ele>3.5</ele>
        <time>2021-05-16T10:47:51Z</time>
      </trkpt>
      <trkpt lat="41.3415660" lon="-8.7404840">
        <ele>3.5</ele>
        <time>2021-05-16T10:47:52Z</time>
      </trkpt>
      <trkpt lat="41.3415740" lon="-8.7404780">
        <ele>3.5</ele>
        <time>2021-05-16T10:47:53Z</time>
      </trkpt>
      <trkpt lat="41.3415830" lon="-8.7404710">
        <ele>3.6</ele>
        <time>2021-05-16T10:47:54Z</time>
      </trkpt>
      <trkpt lat="41.3415920" lon="-8.7404620">
        <ele>3.6</ele>
        <time>2021-05-16T10:47:55Z</time>
      </trkpt>
      <trkpt lat="41.3416040" lon="-8.7404520">
        <ele>3.6</ele>
        <time>2021-05-16T10:47:56Z</time>
      </trkpt>
      <trkpt lat="41.3416080" lon="-8.7404420">
        <ele>3.7</ele>
        <time>2021-05-16T10:47:57Z</time>
      </trkpt>
      <trkpt lat="41.3416240" lon="-8.7404240">
        <ele>3.7</ele>
        <time>2021-05-16T10:47:58Z</time>
      </trkpt>
      <trkpt lat="41.3416290" lon="-8.7404160">
        <ele>3.7</ele>
        <time>2021-05-16T10:47:59Z</time>
      </trkpt>
      <trkpt lat="41.3416350" lon="-8.7404070">
        <ele>3.8</ele>
        <time>2021-05-16T10:48:00Z</time>
      </trkpt>
      <trkpt lat="41.3416420" lon="-8.7403930">
        <ele>3.8</ele>
        <time>2021-05-16T10:48:01Z</time>
      </trkpt>
      <trkpt lat="41.3416520" lon="-8.7403760">
        <ele>3.9</ele>
        <time>2021-05-16T10:48:02Z</time>
      </trkpt>
      <trkpt lat="41.3416570" lon="-8.7403680">
        <ele>3.9</ele>
        <time>2021-05-16T10:48:03Z</time>
      </trkpt>
      <trkpt lat="41.3416680" lon="-8.7403570">
        <ele>4.0</ele>
        <time>2021-05-16T10:48:04Z</time>
      </trkpt>
      <trkpt lat="41.3416760" lon="-8.7403460">
        <ele>4.0</ele>
        <time>2021-05-16T10:48:05Z</time>
      </trkpt>
      <trkpt lat="41.3416820" lon="-8.7403340">
        <ele>4.1</ele>
        <time>2021-05-16T10:48:06Z</time>
      </trkpt>
      <trkpt lat="41.3416860" lon="-8.7403270">
        <ele>4.1</ele>
        <time>2021-05-16T10:48:07Z</time>
      </trkpt>
      <trkpt lat="41.3416910" lon="-8.7403140">
        <ele>4.2</ele>
        <time>2021-05-16T10:48:08Z</time>
      </trkpt>
      <trkpt lat="41.3417000" lon="-8.7402990">
        <ele>4.2</ele>
        <time>2021-05-16T10:48:09Z</time>
      </trkpt>
      <trkpt lat="41.3417060" lon="-8.7402870">
        <ele>4.3</ele>
        <time>2021-05-16T10:48:10Z</time>
      </trkpt>
      <trkpt lat="41.3417020" lon="-8.7402670">
        <ele>4.4</ele>
        <time>2021-05-16T10:48:11Z</time>
      </trkpt>
      <trkpt lat="41.3417020" lon="-8.7402580">
        <ele>4.4</ele>
        <time>2021-05-16T10:48:12Z</time>
      </trkpt>
      <trkpt lat="41.3417060" lon="-8.7402500">
        <ele>4.5</ele>
        <time>2021-05-16T10:48:13Z</time>
      </trkpt>
      <trkpt lat="41.3417140" lon="-8.7402310">
        <ele>4.5</ele>
        <time>2021-05-16T10:48:14Z</time>
      </trkpt>
      <trkpt lat="41.3417310" lon="-8.7402120">
        <ele>4.7</ele>
        <time>2021-05-16T10:48:15Z</time>
      </trkpt>
      <trkpt lat="41.3417390" lon="-8.7402060">
        <ele>4.7</ele>
        <time>2021-05-16T10:48:16Z</time>
      </trkpt>
      <trkpt lat="41.3417470" lon="-8.7402010">
        <ele>4.8</ele>
        <time>2021-05-16T10:48:17Z</time>
      </trkpt>
      <trkpt lat="41.3417510" lon="-8.7401910">
        <ele>4.8</ele>
        <time>2021-05-16T10:48:18Z</time>
      </trkpt>
      <trkpt lat="41.3417560" lon="-8.7401720">
        <ele>4.9</ele>
        <time>2021-05-16T10:48:19Z</time>
      </trkpt>
      <trkpt lat="41.3417580" lon="-8.7401580">
        <ele>5.0</ele>
        <time>2021-05-16T10:48:20Z</time>
      </trkpt>
      <trkpt lat="41.3417700" lon="-8.7401240">
        <ele>5.1</ele>
        <time>2021-05-16T10:48:21Z</time>
      </trkpt>
      <trkpt lat="41.3417730" lon="-8.7401020">
        <ele>5.2</ele>
        <time>2021-05-16T10:48:22Z</time>
      </trkpt>
      <trkpt lat="41.3417790" lon="-8.7400910">
        <ele>5.3</ele>
        <time>2021-05-16T10:48:23Z</time>
      </trkpt>
      <trkpt lat="41.3417840" lon="-8.7400800">
        <ele>5.4</ele>
        <time>2021-05-16T10:48:24Z</time>
      </trkpt>
      <trkpt lat="41.3417880" lon="-8.7400680">
        <ele>5.4</ele>
        <time>2021-05-16T10:48:25Z</time>
      </trkpt>
      <trkpt lat="41.3417930" lon="-8.7400560">
        <ele>5.5</ele>
        <time>2021-05-16T10:48:26Z</time>
      </trkpt>
      <trkpt lat="41.3418030" lon="-8.7400330">
        <ele>5.6</ele>
        <time>2021-05-16T10:48:27Z</time>
      </trkpt>
      <trkpt lat="41.3418080" lon="-8.7400210">
        <ele>5.7</ele>
        <time>2021-05-16T10:48:28Z</time>
      </trkpt>
      <trkpt lat="41.3418200" lon="-8.7399970">
        <ele>5.9</ele>
        <time>2021-05-16T10:48:29Z</time>
      </trkpt>
      <trkpt lat="41.3418250" lon="-8.7400050">
        <ele>5.9</ele>
        <time>2021-05-16T10:48:30Z</time>
      </trkpt>
      <trkpt lat="41.3418210" lon="-8.7400110">
        <ele>5.9</ele>
        <time>2021-05-16T10:48:31Z</time>
      </trkpt>
      <trkpt lat="41.3418210" lon="-8.7400060">
        <ele>6.0</ele>
        <time>2021-05-16T10:48:32Z</time>
      </trkpt>
      <trkpt lat="41.3418220" lon="-8.7399970">
        <ele>6.0</ele>
        <time>2021-05-16T10:48:33Z</time>
      </trkpt>
      <trkpt lat="41.3418250" lon="-8.7399920">
        <ele>6.1</ele>
        <time>2021-05-16T10:48:34Z</time>
      </trkpt>
      <trkpt lat="41.3418290" lon="-8.7399880">
        <ele>6.1</ele>
        <time>2021-05-16T10:48:35Z</time>
      </trkpt>
      <trkpt lat="41.3418310" lon="-8.7399850">
        <ele>6.1</ele>
        <time>2021-05-16T10:48:36Z</time>
      </trkpt>
      <trkpt lat="41.3418330" lon="-8.7399830">
        <ele>6.1</ele>
        <time>2021-05-16T10:48:37Z</time>
      </trkpt>
      <trkpt lat="41.3418350" lon="-8.7399810">
        <ele>6.2</ele>
        <time>2021-05-16T10:48:38Z</time>
      </trkpt>
      <trkpt lat="41.3418370" lon="-8.7399780">
        <ele>6.2</ele>
        <time>2021-05-16T10:48:39Z</time>
      </trkpt>
      <trkpt lat="41.3418390" lon="-8.7399760">
        <ele>6.2</ele>
        <time>2021-05-16T10:48:40Z</time>
      </trkpt>
      <trkpt lat="41.3418410" lon="-8.7399740">
        <ele>6.2</ele>
        <time>2021-05-16T10:48:41Z</time>
      </trkpt>
      <trkpt lat="41.3418430" lon="-8.7399720">
        <ele>6.2</ele>
        <time>2021-05-16T10:48:42Z</time>
      </trkpt>
      <trkpt lat="41.3418450" lon="-8.7399690">
        <ele>6.2</ele>
        <time>2021-05-16T10:48:43Z</time>
      </trkpt>
      <trkpt lat="41.3418470" lon="-8.7399670">
        <ele>6.3</ele>
        <time>2021-05-16T10:48:44Z</time>
      </trkpt>
      <trkpt lat="41.3418490" lon="-8.7399650">
        <ele>6.3</ele>
        <time>2021-05-16T10:48:45Z</time>
      </trkpt>
      <trkpt lat="41.3418510" lon="-8.7399620">
        <ele>6.3</ele>
        <time>2021-05-16T10:48:46Z</time>
      </trkpt>
      <trkpt lat="41.3418530" lon="-8.7399600">
        <ele>6.3</ele>
        <time>2021-05-16T10:48:47Z</time>
      </trkpt>
      <trkpt lat="41.3418470" lon="-8.7399590">
        <ele>6.4</ele>
        <time>2021-05-16T10:48:48Z</time>
      </trkpt>
      <trkpt lat="41.3418440" lon="-8.7399570">
        <ele>6.4</ele>
        <time>2021-05-16T10:48:49Z</time>
      </trkpt>
      <trkpt lat="41.3418440" lon="-8.7399570">
        <ele>6.4</ele>
        <time>2021-05-16T10:48:50Z</time>
      </trkpt>
      <trkpt lat="41.3418470" lon="-8.7399580">
        <ele>6.4</ele>
        <time>2021-05-16T10:48:51Z</time>
      </trkpt>
      <trkpt lat="41.3418500" lon="-8.7399550">
        <ele>6.4</ele>
        <time>2021-05-16T10:48:52Z</time>
      </trkpt>
      <trkpt lat="41.3418560" lon="-8.7399530">
        <ele>7.1</ele>
        <time>2021-05-16T10:48:53Z</time>
      </trkpt>
      <trkpt lat="41.3418650" lon="-8.7399530">
        <ele>7.2</ele>
        <time>2021-05-16T10:48:54Z</time>
      </trkpt>
      <trkpt lat="41.3418770" lon="-8.7399510">
        <ele>7.3</ele>
        <time>2021-05-16T10:48:55Z</time>
      </trkpt>
      <trkpt lat="41.3418850" lon="-8.7399530">
        <ele>7.3</ele>
        <time>2021-05-16T10:48:56Z</time>
      </trkpt>
      <trkpt lat="41.3418940" lon="-8.7399660">
        <ele>7.4</ele>
        <time>2021-05-16T10:48:57Z</time>
      </trkpt>
      <trkpt lat="41.3419000" lon="-8.7399790">
        <ele>7.5</ele>
        <time>2021-05-16T10:48:58Z</time>
      </trkpt>
      <trkpt lat="41.3419060" lon="-8.7399910">
        <ele>7.5</ele>
        <time>2021-05-16T10:48:59Z</time>
      </trkpt>
      <trkpt lat="41.3419140" lon="-8.7400100">
        <ele>7.6</ele>
        <time>2021-05-16T10:49:00Z</time>
      </trkpt>
      <trkpt lat="41.3419230" lon="-8.7400240">
        <ele>7.7</ele>
        <time>2021-05-16T10:49:01Z</time>
      </trkpt>
      <trkpt lat="41.3419310" lon="-8.7400350">
        <ele>7.7</ele>
        <time>2021-05-16T10:49:02Z</time>
      </trkpt>
      <trkpt lat="41.3419440" lon="-8.7400480">
        <ele>7.8</ele>
        <time>2021-05-16T10:49:03Z</time>
      </trkpt>
      <trkpt lat="41.3419450" lon="-8.7400760">
        <ele>7.9</ele>
        <time>2021-05-16T10:49:04Z</time>
      </trkpt>
      <trkpt lat="41.3419430" lon="-8.7400860">
        <ele>8.0</ele>
        <time>2021-05-16T10:49:05Z</time>
      </trkpt>
      <trkpt lat="41.3419410" lon="-8.7400960">
        <ele>8.0</ele>
        <time>2021-05-16T10:49:06Z</time>
      </trkpt>
      <trkpt lat="41.3419530" lon="-8.7401200">
        <ele>8.1</ele>
        <time>2021-05-16T10:49:07Z</time>
      </trkpt>
      <trkpt lat="41.3419580" lon="-8.7401300">
        <ele>8.1</ele>
        <time>2021-05-16T10:49:08Z</time>
      </trkpt>
      <trkpt lat="41.3419620" lon="-8.7401410">
        <ele>8.2</ele>
        <time>2021-05-16T10:49:09Z</time>
      </trkpt>
      <trkpt lat="41.3419660" lon="-8.7401540">
        <ele>8.2</ele>
        <time>2021-05-16T10:49:10Z</time>
      </trkpt>
      <trkpt lat="41.3419670" lon="-8.7401720">
        <ele>8.2</ele>
        <time>2021-05-16T10:49:11Z</time>
      </trkpt>
      <trkpt lat="41.3419720" lon="-8.7401790">
        <ele>8.3</ele>
        <time>2021-05-16T10:49:12Z</time>
      </trkpt>
      <trkpt lat="41.3419820" lon="-8.7401990">
        <ele>8.3</ele>
        <time>2021-05-16T10:49:13Z</time>
      </trkpt>
      <trkpt lat="41.3419890" lon="-8.7402140">
        <ele>8.4</ele>
        <time>2021-05-16T10:49:14Z</time>
      </trkpt>
      <trkpt lat="41.3420010" lon="-8.7402360">
        <ele>8.4</ele>
        <time>2021-05-16T10:49:15Z</time>
      </trkpt>
      <trkpt lat="41.3420040" lon="-8.7402470">
        <ele>8.4</ele>
        <time>2021-05-16T10:49:16Z</time>
      </trkpt>
      <trkpt lat="41.3420070" lon="-8.7402570">
        <ele>8.5</ele>
        <time>2021-05-16T10:49:17Z</time>
      </trkpt>
      <trkpt lat="41.3420130" lon="-8.7402700">
        <ele>8.5</ele>
        <time>2021-05-16T10:49:18Z</time>
      </trkpt>
      <trkpt lat="41.3420180" lon="-8.7402850">
        <ele>8.5</ele>
        <time>2021-05-16T10:49:19Z</time>
      </trkpt>
      <trkpt lat="41.3420230" lon="-8.7402990">
        <ele>8.5</ele>
        <time>2021-05-16T10:49:20Z</time>
      </trkpt>
      <trkpt lat="41.3420300" lon="-8.7403180">
        <ele>8.6</ele>
        <time>2021-05-16T10:49:21Z</time>
      </trkpt>
      <trkpt lat="41.3420340" lon="-8.7403330">
        <ele>8.6</ele>
        <time>2021-05-16T10:49:22Z</time>
      </trkpt>
      <trkpt lat="41.3420410" lon="-8.7403590">
        <ele>8.6</ele>
        <time>2021-05-16T10:49:23Z</time>
      </trkpt>
      <trkpt lat="41.3420450" lon="-8.7403690">
        <ele>8.6</ele>
        <time>2021-05-16T10:49:24Z</time>
      </trkpt>
      <trkpt lat="41.3420490" lon="-8.7403800">
        <ele>8.6</ele>
        <time>2021-05-16T10:49:25Z</time>
      </trkpt>
      <trkpt lat="41.3420650" lon="-8.7404040">
        <ele>8.7</ele>
        <time>2021-05-16T10:49:26Z</time>
      </trkpt>
      <trkpt lat="41.3420690" lon="-8.7404160">
        <ele>8.7</ele>
        <time>2021-05-16T10:49:27Z</time>
      </trkpt>
      <trkpt lat="41.3420740" lon="-8.7404270">
        <ele>8.7</ele>
        <time>2021-05-16T10:49:28Z</time>
      </trkpt>
      <trkpt lat="41.3420810" lon="-8.7404510">
        <ele>8.7</ele>
        <time>2021-05-16T10:49:29Z</time>
      </trkpt>
      <trkpt lat="41.3420850" lon="-8.7404610">
        <ele>8.7</ele>
        <time>2021-05-16T10:49:30Z</time>
      </trkpt>
      <trkpt lat="41.3420890" lon="-8.7404710">
        <ele>8.7</ele>
        <time>2021-05-16T10:49:31Z</time>
      </trkpt>
      <trkpt lat="41.3420990" lon="-8.7404840">
        <ele>8.7</ele>
        <time>2021-05-16T10:49:32Z</time>
      </trkpt>
      <trkpt lat="41.3421080" lon="-8.7404920">
        <ele>8.7</ele>
        <time>2021-05-16T10:49:33Z</time>
      </trkpt>
      <trkpt lat="41.3421130" lon="-8.7405070">
        <ele>8.7</ele>
        <time>2021-05-16T10:49:34Z</time>
      </trkpt>
      <trkpt lat="41.3421250" lon="-8.7405310">
        <ele>8.7</ele>
        <time>2021-05-16T10:49:35Z</time>
      </trkpt>
      <trkpt lat="41.3421300" lon="-8.7405410">
        <ele>8.7</ele>
        <time>2021-05-16T10:49:36Z</time>
      </trkpt>
      <trkpt lat="41.3421360" lon="-8.7405500">
        <ele>8.7</ele>
        <time>2021-05-16T10:49:37Z</time>
      </trkpt>
      <trkpt lat="41.3421480" lon="-8.7405690">
        <ele>8.7</ele>
        <time>2021-05-16T10:49:38Z</time>
      </trkpt>
      <trkpt lat="41.3421570" lon="-8.7405770">
        <ele>8.7</ele>
        <time>2021-05-16T10:49:39Z</time>
      </trkpt>
      <trkpt lat="41.3421650" lon="-8.7405850">
        <ele>8.7</ele>
        <time>2021-05-16T10:49:40Z</time>
      </trkpt>
      <trkpt lat="41.3421740" lon="-8.7405960">
        <ele>8.7</ele>
        <time>2021-05-16T10:49:41Z</time>
      </trkpt>
      <trkpt lat="41.3421910" lon="-8.7406040">
        <ele>8.7</ele>
        <time>2021-05-16T10:49:42Z</time>
      </trkpt>
      <trkpt lat="41.3421950" lon="-8.7406100">
        <ele>8.7</ele>
        <time>2021-05-16T10:49:43Z</time>
      </trkpt>
      <trkpt lat="41.3422140" lon="-8.7406210">
        <ele>8.7</ele>
        <time>2021-05-16T10:49:44Z</time>
      </trkpt>
      <trkpt lat="41.3422210" lon="-8.7406300">
        <ele>8.7</ele>
        <time>2021-05-16T10:49:45Z</time>
      </trkpt>
      <trkpt lat="41.3422390" lon="-8.7406390">
        <ele>8.6</ele>
        <time>2021-05-16T10:49:46Z</time>
      </trkpt>
      <trkpt lat="41.3422450" lon="-8.7406450">
        <ele>8.6</ele>
        <time>2021-05-16T10:49:47Z</time>
      </trkpt>
      <trkpt lat="41.3422580" lon="-8.7406610">
        <ele>8.6</ele>
        <time>2021-05-16T10:49:48Z</time>
      </trkpt>
      <trkpt lat="41.3422700" lon="-8.7406720">
        <ele>8.6</ele>
        <time>2021-05-16T10:49:49Z</time>
      </trkpt>
      <trkpt lat="41.3422750" lon="-8.7406810">
        <ele>8.6</ele>
        <time>2021-05-16T10:49:50Z</time>
      </trkpt>
      <trkpt lat="41.3422920" lon="-8.7406870">
        <ele>8.6</ele>
        <time>2021-05-16T10:49:51Z</time>
      </trkpt>
      <trkpt lat="41.3422960" lon="-8.7407040">
        <ele>8.6</ele>
        <time>2021-05-16T10:49:52Z</time>
      </trkpt>
      <trkpt lat="41.3423160" lon="-8.7407190">
        <ele>8.5</ele>
        <time>2021-05-16T10:49:53Z</time>
      </trkpt>
      <trkpt lat="41.3423220" lon="-8.7407260">
        <ele>8.5</ele>
        <time>2021-05-16T10:49:54Z</time>
      </trkpt>
      <trkpt lat="41.3423280" lon="-8.7407340">
        <ele>8.5</ele>
        <time>2021-05-16T10:49:55Z</time>
      </trkpt>
      <trkpt lat="41.3423440" lon="-8.7407480">
        <ele>8.5</ele>
        <time>2021-05-16T10:49:56Z</time>
      </trkpt>
      <trkpt lat="41.3423520" lon="-8.7407530">
        <ele>8.5</ele>
        <time>2021-05-16T10:49:57Z</time>
      </trkpt>
      <trkpt lat="41.3423600" lon="-8.7407590">
        <ele>8.5</ele>
        <time>2021-05-16T10:49:58Z</time>
      </trkpt>
      <trkpt lat="41.3423770" lon="-8.7407790">
        <ele>8.4</ele>
        <time>2021-05-16T10:49:59Z</time>
      </trkpt>
      <trkpt lat="41.3423860" lon="-8.7407850">
        <ele>8.4</ele>
        <time>2021-05-16T10:50:00Z</time>
      </trkpt>
      <trkpt lat="41.3423940" lon="-8.7407910">
        <ele>8.4</ele>
        <time>2021-05-16T10:50:01Z</time>
      </trkpt>
      <trkpt lat="41.3424060" lon="-8.7408020">
        <ele>8.3</ele>
        <time>2021-05-16T10:50:02Z</time>
      </trkpt>
      <trkpt lat="41.3424180" lon="-8.7408100">
        <ele>8.3</ele>
        <time>2021-05-16T10:50:03Z</time>
      </trkpt>
      <trkpt lat="41.3424260" lon="-8.7408220">
        <ele>8.2</ele>
        <time>2021-05-16T10:50:04Z</time>
      </trkpt>
      <trkpt lat="41.3424450" lon="-8.7408290">
        <ele>8.2</ele>
        <time>2021-05-16T10:50:05Z</time>
      </trkpt>
      <trkpt lat="41.3424580" lon="-8.7408370">
        <ele>8.1</ele>
        <time>2021-05-16T10:50:06Z</time>
      </trkpt>
      <trkpt lat="41.3424670" lon="-8.7408510">
        <ele>8.1</ele>
        <time>2021-05-16T10:50:07Z</time>
      </trkpt>
      <trkpt lat="41.3424810" lon="-8.7408630">
        <ele>8.0</ele>
        <time>2021-05-16T10:50:08Z</time>
      </trkpt>
      <trkpt lat="41.3424940" lon="-8.7408710">
        <ele>8.0</ele>
        <time>2021-05-16T10:50:09Z</time>
      </trkpt>
      <trkpt lat="41.3425060" lon="-8.7408820">
        <ele>7.9</ele>
        <time>2021-05-16T10:50:10Z</time>
      </trkpt>
      <trkpt lat="41.3425230" lon="-8.7408870">
        <ele>7.8</ele>
        <time>2021-05-16T10:50:11Z</time>
      </trkpt>
      <trkpt lat="41.3425370" lon="-8.7408990">
        <ele>7.8</ele>
        <time>2021-05-16T10:50:12Z</time>
      </trkpt>
      <trkpt lat="41.3425520" lon="-8.7409020">
        <ele>7.7</ele>
        <time>2021-05-16T10:50:13Z</time>
      </trkpt>
      <trkpt lat="41.3425670" lon="-8.7409080">
        <ele>7.6</ele>
        <time>2021-05-16T10:50:14Z</time>
      </trkpt>
      <trkpt lat="41.3425800" lon="-8.7409200">
        <ele>7.6</ele>
        <time>2021-05-16T10:50:15Z</time>
      </trkpt>
      <trkpt lat="41.3425940" lon="-8.7409260">
        <ele>7.5</ele>
        <time>2021-05-16T10:50:16Z</time>
      </trkpt>
      <trkpt lat="41.3426060" lon="-8.7409360">
        <ele>7.5</ele>
        <time>2021-05-16T10:50:17Z</time>
      </trkpt>
      <trkpt lat="41.3426190" lon="-8.7409450">
        <ele>7.4</ele>
        <time>2021-05-16T10:50:18Z</time>
      </trkpt>
      <trkpt lat="41.3426340" lon="-8.7409540">
        <ele>7.3</ele>
        <time>2021-05-16T10:50:19Z</time>
      </trkpt>
      <trkpt lat="41.3426490" lon="-8.7409620">
        <ele>7.2</ele>
        <time>2021-05-16T10:50:20Z</time>
      </trkpt>
      <trkpt lat="41.3426580" lon="-8.7409720">
        <ele>7.1</ele>
        <time>2021-05-16T10:50:21Z</time>
      </trkpt>
      <trkpt lat="41.3426730" lon="-8.7409780">
        <ele>7.1</ele>
        <time>2021-05-16T10:50:22Z</time>
      </trkpt>
      <trkpt lat="41.3426860" lon="-8.7409840">
        <ele>7.0</ele>
        <time>2021-05-16T10:50:23Z</time>
      </trkpt>
      <trkpt lat="41.3426980" lon="-8.7409940">
        <ele>6.9</ele>
        <time>2021-05-16T10:50:24Z</time>
      </trkpt>
      <trkpt lat="41.3427140" lon="-8.7409950">
        <ele>6.8</ele>
        <time>2021-05-16T10:50:25Z</time>
      </trkpt>
      <trkpt lat="41.3427270" lon="-8.7410050">
        <ele>6.7</ele>
        <time>2021-05-16T10:50:26Z</time>
      </trkpt>
      <trkpt lat="41.3427410" lon="-8.7410110">
        <ele>6.6</ele>
        <time>2021-05-16T10:50:27Z</time>
      </trkpt>
      <trkpt lat="41.3427520" lon="-8.7410290">
        <ele>6.5</ele>
        <time>2021-05-16T10:50:28Z</time>
      </trkpt>
      <trkpt lat="41.3427680" lon="-8.7410320">
        <ele>6.4</ele>
        <time>2021-05-16T10:50:29Z</time>
      </trkpt>
      <trkpt lat="41.3427900" lon="-8.7410370">
        <ele>6.2</ele>
        <time>2021-05-16T10:50:30Z</time>
      </trkpt>
      <trkpt lat="41.3427980" lon="-8.7410420">
        <ele>6.2</ele>
        <time>2021-05-16T10:50:31Z</time>
      </trkpt>
      <trkpt lat="41.3428070" lon="-8.7410460">
        <ele>6.1</ele>
        <time>2021-05-16T10:50:32Z</time>
      </trkpt>
      <trkpt lat="41.3428220" lon="-8.7410460">
        <ele>6.0</ele>
        <time>2021-05-16T10:50:33Z</time>
      </trkpt>
      <trkpt lat="41.3428330" lon="-8.7410480">
        <ele>5.9</ele>
        <time>2021-05-16T10:50:34Z</time>
      </trkpt>
      <trkpt lat="41.3428350" lon="-8.7410630">
        <ele>5.8</ele>
        <time>2021-05-16T10:50:35Z</time>
      </trkpt>
      <trkpt lat="41.3428370" lon="-8.7410620">
        <ele>5.8</ele>
        <time>2021-05-16T10:50:36Z</time>
      </trkpt>
      <trkpt lat="41.3428420" lon="-8.7410620">
        <ele>5.8</ele>
        <time>2021-05-16T10:50:37Z</time>
      </trkpt>
      <trkpt lat="41.3428580" lon="-8.7410640">
        <ele>5.7</ele>
        <time>2021-05-16T10:50:38Z</time>
      </trkpt>
      <trkpt lat="41.3428630" lon="-8.7410680">
        <ele>5.6</ele>
        <time>2021-05-16T10:50:39Z</time>
      </trkpt>
      <trkpt lat="41.3428760" lon="-8.7410810">
        <ele>5.5</ele>
        <time>2021-05-16T10:50:40Z</time>
      </trkpt>
      <trkpt lat="41.3428830" lon="-8.7410910">
        <ele>5.4</ele>
        <time>2021-05-16T10:50:41Z</time>
      </trkpt>
      <trkpt lat="41.3428810" lon="-8.7410860">
        <ele>5.4</ele>
        <time>2021-05-16T10:50:42Z</time>
      </trkpt>
      <trkpt lat="41.3428850" lon="-8.7410930">
        <ele>5.3</ele>
        <time>2021-05-16T10:50:43Z</time>
      </trkpt>
      <trkpt lat="41.3428960" lon="-8.7411070">
        <ele>5.2</ele>
        <time>2021-05-16T10:50:44Z</time>
      </trkpt>
      <trkpt lat="41.3429040" lon="-8.7411110">
        <ele>5.1</ele>
        <time>2021-05-16T10:50:45Z</time>
      </trkpt>
      <trkpt lat="41.3429110" lon="-8.7411160">
        <ele>5.1</ele>
        <time>2021-05-16T10:50:46Z</time>
      </trkpt>
      <trkpt lat="41.3429180" lon="-8.7411200">
        <ele>5.0</ele>
        <time>2021-05-16T10:50:47Z</time>
      </trkpt>
      <trkpt lat="41.3429360" lon="-8.7411230">
        <ele>4.9</ele>
        <time>2021-05-16T10:50:48Z</time>
      </trkpt>
      <trkpt lat="41.3429470" lon="-8.7411230">
        <ele>4.8</ele>
        <time>2021-05-16T10:50:49Z</time>
      </trkpt>
      <trkpt lat="41.3429570" lon="-8.7411240">
        <ele>4.7</ele>
        <time>2021-05-16T10:50:50Z</time>
      </trkpt>
      <trkpt lat="41.3429820" lon="-8.7411170">
        <ele>4.6</ele>
        <time>2021-05-16T10:50:51Z</time>
      </trkpt>
      <trkpt lat="41.3429910" lon="-8.7411150">
        <ele>4.5</ele>
        <time>2021-05-16T10:50:52Z</time>
      </trkpt>
      <trkpt lat="41.3430010" lon="-8.7411130">
        <ele>4.4</ele>
        <time>2021-05-16T10:50:53Z</time>
      </trkpt>
      <trkpt lat="41.3430160" lon="-8.7411210">
        <ele>4.3</ele>
        <time>2021-05-16T10:50:54Z</time>
      </trkpt>
      <trkpt lat="41.3430300" lon="-8.7411250">
        <ele>4.3</ele>
        <time>2021-05-16T10:50:55Z</time>
      </trkpt>
      <trkpt lat="41.3430460" lon="-8.7411250">
        <ele>4.1</ele>
        <time>2021-05-16T10:50:56Z</time>
      </trkpt>
      <trkpt lat="41.3430620" lon="-8.7411230">
        <ele>4.1</ele>
        <time>2021-05-16T10:50:57Z</time>
      </trkpt>
      <trkpt lat="41.3430770" lon="-8.7411160">
        <ele>4.0</ele>
        <time>2021-05-16T10:50:58Z</time>
      </trkpt>
      <trkpt lat="41.3430910" lon="-8.7411190">
        <ele>3.9</ele>
        <time>2021-05-16T10:50:59Z</time>
      </trkpt>
      <trkpt lat="41.3431050" lon="-8.7411190">
        <ele>3.8</ele>
        <time>2021-05-16T10:51:00Z</time>
      </trkpt>
      <trkpt lat="41.3431220" lon="-8.7411120">
        <ele>3.7</ele>
        <time>2021-05-16T10:51:01Z</time>
      </trkpt>
      <trkpt lat="41.3431380" lon="-8.7411080">
        <ele>3.7</ele>
        <time>2021-05-16T10:51:02Z</time>
      </trkpt>
      <trkpt lat="41.3431540" lon="-8.7411070">
        <ele>3.6</ele>
        <time>2021-05-16T10:51:03Z</time>
      </trkpt>
      <trkpt lat="41.3431690" lon="-8.7411030">
        <ele>3.5</ele>
        <time>2021-05-16T10:51:04Z</time>
      </trkpt>
      <trkpt lat="41.3431840" lon="-8.7411020">
        <ele>3.5</ele>
        <time>2021-05-16T10:51:05Z</time>
      </trkpt>
      <trkpt lat="41.3432000" lon="-8.7411030">
        <ele>3.4</ele>
        <time>2021-05-16T10:51:06Z</time>
      </trkpt>
      <trkpt lat="41.3432160" lon="-8.7411060">
        <ele>3.4</ele>
        <time>2021-05-16T10:51:07Z</time>
      </trkpt>
      <trkpt lat="41.3432290" lon="-8.7411020">
        <ele>3.3</ele>
        <time>2021-05-16T10:51:08Z</time>
      </trkpt>
      <trkpt lat="41.3432460" lon="-8.7411050">
        <ele>3.3</ele>
        <time>2021-05-16T10:51:09Z</time>
      </trkpt>
      <trkpt lat="41.3432620" lon="-8.7410980">
        <ele>3.2</ele>
        <time>2021-05-16T10:51:10Z</time>
      </trkpt>
      <trkpt lat="41.3432790" lon="-8.7410950">
        <ele>3.2</ele>
        <time>2021-05-16T10:51:11Z</time>
      </trkpt>
      <trkpt lat="41.3432930" lon="-8.7410910">
        <ele>3.2</ele>
        <time>2021-05-16T10:51:12Z</time>
      </trkpt>
      <trkpt lat="41.3433060" lon="-8.7410800">
        <ele>3.1</ele>
        <time>2021-05-16T10:51:13Z</time>
      </trkpt>
      <trkpt lat="41.3433200" lon="-8.7410780">
        <ele>3.1</ele>
        <time>2021-05-16T10:51:14Z</time>
      </trkpt>
      <trkpt lat="41.3433340" lon="-8.7410770">
        <ele>3.1</ele>
        <time>2021-05-16T10:51:15Z</time>
      </trkpt>
      <trkpt lat="41.3433490" lon="-8.7410770">
        <ele>3.1</ele>
        <time>2021-05-16T10:51:16Z</time>
      </trkpt>
      <trkpt lat="41.3433630" lon="-8.7410780">
        <ele>3.1</ele>
        <time>2021-05-16T10:51:17Z</time>
      </trkpt>
      <trkpt lat="41.3433760" lon="-8.7410760">
        <ele>3.0</ele>
        <time>2021-05-16T10:51:18Z</time>
      </trkpt>
      <trkpt lat="41.3433900" lon="-8.7410780">
        <ele>3.0</ele>
        <time>2021-05-16T10:51:19Z</time>
      </trkpt>
      <trkpt lat="41.3434050" lon="-8.7410750">
        <ele>3.0</ele>
        <time>2021-05-16T10:51:20Z</time>
      </trkpt>
      <trkpt lat="41.3434200" lon="-8.7410820">
        <ele>3.0</ele>
        <time>2021-05-16T10:51:21Z</time>
      </trkpt>
      <trkpt lat="41.3434340" lon="-8.7410770">
        <ele>3.0</ele>
        <time>2021-05-16T10:51:22Z</time>
      </trkpt>
      <trkpt lat="41.3434470" lon="-8.7410720">
        <ele>3.0</ele>
        <time>2021-05-16T10:51:23Z</time>
      </trkpt>
      <trkpt lat="41.3434620" lon="-8.7410700">
        <ele>3.0</ele>
        <time>2021-05-16T10:51:24Z</time>
      </trkpt>
      <trkpt lat="41.3434750" lon="-8.7410690">
        <ele>3.0</ele>
        <time>2021-05-16T10:51:25Z</time>
      </trkpt>
      <trkpt lat="41.3434970" lon="-8.7410660">
        <ele>2.9</ele>
        <time>2021-05-16T10:51:26Z</time>
      </trkpt>
      <trkpt lat="41.3435060" lon="-8.7410670">
        <ele>2.9</ele>
        <time>2021-05-16T10:51:27Z</time>
      </trkpt>
      <trkpt lat="41.3435140" lon="-8.7410690">
        <ele>2.9</ele>
        <time>2021-05-16T10:51:28Z</time>
      </trkpt>
      <trkpt lat="41.3435280" lon="-8.7410640">
        <ele>2.9</ele>
        <time>2021-05-16T10:51:29Z</time>
      </trkpt>
      <trkpt lat="41.3435410" lon="-8.7410650">
        <ele>2.9</ele>
        <time>2021-05-16T10:51:30Z</time>
      </trkpt>
      <trkpt lat="41.3435630" lon="-8.7410650">
        <ele>2.9</ele>
        <time>2021-05-16T10:51:31Z</time>
      </trkpt>
      <trkpt lat="41.3435720" lon="-8.7410670">
        <ele>2.9</ele>
        <time>2021-05-16T10:51:32Z</time>
      </trkpt>
      <trkpt lat="41.3435800" lon="-8.7410680">
        <ele>2.9</ele>
        <time>2021-05-16T10:51:33Z</time>
      </trkpt>
      <trkpt lat="41.3436020" lon="-8.7410660">
        <ele>2.9</ele>
        <time>2021-05-16T10:51:34Z</time>
      </trkpt>
      <trkpt lat="41.3436100" lon="-8.7410640">
        <ele>2.9</ele>
        <time>2021-05-16T10:51:35Z</time>
      </trkpt>
      <trkpt lat="41.3436190" lon="-8.7410630">
        <ele>2.9</ele>
        <time>2021-05-16T10:51:36Z</time>
      </trkpt>
      <trkpt lat="41.3436320" lon="-8.7410630">
        <ele>2.9</ele>
        <time>2021-05-16T10:51:37Z</time>
      </trkpt>
      <trkpt lat="41.3436470" lon="-8.7410640">
        <ele>2.8</ele>
        <time>2021-05-16T10:51:38Z</time>
      </trkpt>
      <trkpt lat="41.3436630" lon="-8.7410650">
        <ele>2.8</ele>
        <time>2021-05-16T10:51:39Z</time>
      </trkpt>
      <trkpt lat="41.3436760" lon="-8.7410620">
        <ele>2.8</ele>
        <time>2021-05-16T10:51:40Z</time>
      </trkpt>
      <trkpt lat="41.3436890" lon="-8.7410540">
        <ele>2.8</ele>
        <time>2021-05-16T10:51:41Z</time>
      </trkpt>
      <trkpt lat="41.3437020" lon="-8.7410530">
        <ele>2.8</ele>
        <time>2021-05-16T10:51:42Z</time>
      </trkpt>
      <trkpt lat="41.3437170" lon="-8.7410530">
        <ele>2.8</ele>
        <time>2021-05-16T10:51:43Z</time>
      </trkpt>
      <trkpt lat="41.3437300" lon="-8.7410550">
        <ele>2.8</ele>
        <time>2021-05-16T10:51:44Z</time>
      </trkpt>
      <trkpt lat="41.3437520" lon="-8.7410570">
        <ele>2.8</ele>
        <time>2021-05-16T10:51:45Z</time>
      </trkpt>
      <trkpt lat="41.3437610" lon="-8.7410570">
        <ele>2.8</ele>
        <time>2021-05-16T10:51:46Z</time>
      </trkpt>
      <trkpt lat="41.3437710" lon="-8.7410560">
        <ele>2.8</ele>
        <time>2021-05-16T10:51:47Z</time>
      </trkpt>
      <trkpt lat="41.3437910" lon="-8.7410540">
        <ele>2.8</ele>
        <time>2021-05-16T10:51:48Z</time>
      </trkpt>
      <trkpt lat="41.3437990" lon="-8.7410520">
        <ele>2.8</ele>
        <time>2021-05-16T10:51:49Z</time>
      </trkpt>
      <trkpt lat="41.3438080" lon="-8.7410510">
        <ele>2.8</ele>
        <time>2021-05-16T10:51:50Z</time>
      </trkpt>
      <trkpt lat="41.3438240" lon="-8.7410490">
        <ele>2.8</ele>
        <time>2021-05-16T10:51:51Z</time>
      </trkpt>
      <trkpt lat="41.3438370" lon="-8.7410510">
        <ele>2.8</ele>
        <time>2021-05-16T10:51:52Z</time>
      </trkpt>
      <trkpt lat="41.3438520" lon="-8.7410460">
        <ele>2.8</ele>
        <time>2021-05-16T10:51:53Z</time>
      </trkpt>
      <trkpt lat="41.3438640" lon="-8.7410460">
        <ele>2.8</ele>
        <time>2021-05-16T10:51:54Z</time>
      </trkpt>
      <trkpt lat="41.3438860" lon="-8.7410390">
        <ele>2.8</ele>
        <time>2021-05-16T10:51:55Z</time>
      </trkpt>
      <trkpt lat="41.3438950" lon="-8.7410380">
        <ele>2.8</ele>
        <time>2021-05-16T10:51:56Z</time>
      </trkpt>
      <trkpt lat="41.3439050" lon="-8.7410360">
        <ele>2.8</ele>
        <time>2021-05-16T10:51:57Z</time>
      </trkpt>
      <trkpt lat="41.3439220" lon="-8.7410370">
        <ele>2.8</ele>
        <time>2021-05-16T10:51:58Z</time>
      </trkpt>
      <trkpt lat="41.3439340" lon="-8.7410430">
        <ele>2.8</ele>
        <time>2021-05-16T10:51:59Z</time>
      </trkpt>
      <trkpt lat="41.3439480" lon="-8.7410470">
        <ele>2.8</ele>
        <time>2021-05-16T10:52:00Z</time>
      </trkpt>
      <trkpt lat="41.3439600" lon="-8.7410530">
        <ele>2.8</ele>
        <time>2021-05-16T10:52:01Z</time>
      </trkpt>
      <trkpt lat="41.3439740" lon="-8.7410520">
        <ele>2.8</ele>
        <time>2021-05-16T10:52:02Z</time>
      </trkpt>
      <trkpt lat="41.3439880" lon="-8.7410540">
        <ele>2.8</ele>
        <time>2021-05-16T10:52:03Z</time>
      </trkpt>
      <trkpt lat="41.3440020" lon="-8.7410560">
        <ele>2.8</ele>
        <time>2021-05-16T10:52:04Z</time>
      </trkpt>
      <trkpt lat="41.3440160" lon="-8.7410560">
        <ele>2.8</ele>
        <time>2021-05-16T10:52:05Z</time>
      </trkpt>
      <trkpt lat="41.3440290" lon="-8.7410540">
        <ele>2.8</ele>
        <time>2021-05-16T10:52:06Z</time>
      </trkpt>
      <trkpt lat="41.3440430" lon="-8.7410510">
        <ele>2.8</ele>
        <time>2021-05-16T10:52:07Z</time>
      </trkpt>
      <trkpt lat="41.3440560" lon="-8.7410480">
        <ele>2.8</ele>
        <time>2021-05-16T10:52:08Z</time>
      </trkpt>
      <trkpt lat="41.3440730" lon="-8.7410480">
        <ele>2.8</ele>
        <time>2021-05-16T10:52:09Z</time>
      </trkpt>
      <trkpt lat="41.3440860" lon="-8.7410450">
        <ele>2.8</ele>
        <time>2021-05-16T10:52:10Z</time>
      </trkpt>
      <trkpt lat="41.3441010" lon="-8.7410440">
        <ele>2.8</ele>
        <time>2021-05-16T10:52:11Z</time>
      </trkpt>
      <trkpt lat="41.3441160" lon="-8.7410460">
        <ele>2.8</ele>
        <time>2021-05-16T10:52:12Z</time>
      </trkpt>
      <trkpt lat="41.3441280" lon="-8.7410430">
        <ele>2.8</ele>
        <time>2021-05-16T10:52:13Z</time>
      </trkpt>
      <trkpt lat="41.3441440" lon="-8.7410470">
        <ele>2.8</ele>
        <time>2021-05-16T10:52:14Z</time>
      </trkpt>
      <trkpt lat="41.3441580" lon="-8.7410440">
        <ele>2.8</ele>
        <time>2021-05-16T10:52:15Z</time>
      </trkpt>
      <trkpt lat="41.3441730" lon="-8.7410470">
        <ele>2.8</ele>
        <time>2021-05-16T10:52:16Z</time>
      </trkpt>
      <trkpt lat="41.3441870" lon="-8.7410450">
        <ele>2.8</ele>
        <time>2021-05-16T10:52:17Z</time>
      </trkpt>
      <trkpt lat="41.3442040" lon="-8.7410490">
        <ele>2.8</ele>
        <time>2021-05-16T10:52:18Z</time>
      </trkpt>
      <trkpt lat="41.3442180" lon="-8.7410500">
        <ele>2.8</ele>
        <time>2021-05-16T10:52:19Z</time>
      </trkpt>
      <trkpt lat="41.3442290" lon="-8.7410490">
        <ele>2.8</ele>
        <time>2021-05-16T10:52:20Z</time>
      </trkpt>
      <trkpt lat="41.3442400" lon="-8.7410440">
        <ele>2.8</ele>
        <time>2021-05-16T10:52:21Z</time>
      </trkpt>
      <trkpt lat="41.3442500" lon="-8.7410380">
        <ele>2.8</ele>
        <time>2021-05-16T10:52:22Z</time>
      </trkpt>
      <trkpt lat="41.3442670" lon="-8.7410370">
        <ele>2.8</ele>
        <time>2021-05-16T10:52:23Z</time>
      </trkpt>
      <trkpt lat="41.3442800" lon="-8.7410410">
        <ele>2.9</ele>
        <time>2021-05-16T10:52:24Z</time>
      </trkpt>
      <trkpt lat="41.3442970" lon="-8.7410400">
        <ele>2.9</ele>
        <time>2021-05-16T10:52:25Z</time>
      </trkpt>
      <trkpt lat="41.3443110" lon="-8.7410370">
        <ele>2.9</ele>
        <time>2021-05-16T10:52:26Z</time>
      </trkpt>
      <trkpt lat="41.3443350" lon="-8.7410390">
        <ele>2.9</ele>
        <time>2021-05-16T10:52:27Z</time>
      </trkpt>
      <trkpt lat="41.3443440" lon="-8.7410380">
        <ele>2.9</ele>
        <time>2021-05-16T10:52:28Z</time>
      </trkpt>
      <trkpt lat="41.3443540" lon="-8.7410370">
        <ele>2.9</ele>
        <time>2021-05-16T10:52:29Z</time>
      </trkpt>
      <trkpt lat="41.3443780" lon="-8.7410330">
        <ele>2.9</ele>
        <time>2021-05-16T10:52:30Z</time>
      </trkpt>
      <trkpt lat="41.3443860" lon="-8.7410330">
        <ele>2.9</ele>
        <time>2021-05-16T10:52:31Z</time>
      </trkpt>
      <trkpt lat="41.3443950" lon="-8.7410340">
        <ele>2.9</ele>
        <time>2021-05-16T10:52:32Z</time>
      </trkpt>
      <trkpt lat="41.3444150" lon="-8.7410260">
        <ele>2.9</ele>
        <time>2021-05-16T10:52:33Z</time>
      </trkpt>
      <trkpt lat="41.3444230" lon="-8.7410210">
        <ele>2.9</ele>
        <time>2021-05-16T10:52:34Z</time>
      </trkpt>
      <trkpt lat="41.3444320" lon="-8.7410150">
        <ele>2.9</ele>
        <time>2021-05-16T10:52:35Z</time>
      </trkpt>
      <trkpt lat="41.3444450" lon="-8.7410140">
        <ele>3.0</ele>
        <time>2021-05-16T10:52:36Z</time>
      </trkpt>
      <trkpt lat="41.3444590" lon="-8.7410020">
        <ele>3.0</ele>
        <time>2021-05-16T10:52:37Z</time>
      </trkpt>
      <trkpt lat="41.3444790" lon="-8.7409970">
        <ele>3.0</ele>
        <time>2021-05-16T10:52:38Z</time>
      </trkpt>
      <trkpt lat="41.3444860" lon="-8.7409910">
        <ele>3.0</ele>
        <time>2021-05-16T10:52:39Z</time>
      </trkpt>
      <trkpt lat="41.3444940" lon="-8.7409850">
        <ele>3.0</ele>
        <time>2021-05-16T10:52:40Z</time>
      </trkpt>
      <trkpt lat="41.3445050" lon="-8.7409720">
        <ele>3.0</ele>
        <time>2021-05-16T10:52:41Z</time>
      </trkpt>
      <trkpt lat="41.3445170" lon="-8.7409640">
        <ele>3.1</ele>
        <time>2021-05-16T10:52:42Z</time>
      </trkpt>
      <trkpt lat="41.3445290" lon="-8.7409370">
        <ele>3.1</ele>
        <time>2021-05-16T10:52:43Z</time>
      </trkpt>
      <trkpt lat="41.3445330" lon="-8.7409280">
        <ele>3.1</ele>
        <time>2021-05-16T10:52:44Z</time>
      </trkpt>
      <trkpt lat="41.3445360" lon="-8.7409190">
        <ele>3.1</ele>
        <time>2021-05-16T10:52:45Z</time>
      </trkpt>
      <trkpt lat="41.3445370" lon="-8.7409040">
        <ele>3.1</ele>
        <time>2021-05-16T10:52:46Z</time>
      </trkpt>
      <trkpt lat="41.3445370" lon="-8.7408820">
        <ele>3.2</ele>
        <time>2021-05-16T10:52:47Z</time>
      </trkpt>
      <trkpt lat="41.3445420" lon="-8.7408730">
        <ele>3.2</ele>
        <time>2021-05-16T10:52:48Z</time>
      </trkpt>
      <trkpt lat="41.3445500" lon="-8.7408570">
        <ele>3.2</ele>
        <time>2021-05-16T10:52:49Z</time>
      </trkpt>
      <trkpt lat="41.3445550" lon="-8.7408410">
        <ele>3.2</ele>
        <time>2021-05-16T10:52:50Z</time>
      </trkpt>
      <trkpt lat="41.3445620" lon="-8.7408130">
        <ele>3.2</ele>
        <time>2021-05-16T10:52:51Z</time>
      </trkpt>
      <trkpt lat="41.3445640" lon="-8.7408010">
        <ele>3.3</ele>
        <time>2021-05-16T10:52:52Z</time>
      </trkpt>
      <trkpt lat="41.3445650" lon="-8.7407880">
        <ele>3.3</ele>
        <time>2021-05-16T10:52:53Z</time>
      </trkpt>
      <trkpt lat="41.3445690" lon="-8.7407730">
        <ele>3.3</ele>
        <time>2021-05-16T10:52:54Z</time>
      </trkpt>
      <trkpt lat="41.3445750" lon="-8.7407610">
        <ele>3.3</ele>
        <time>2021-05-16T10:52:55Z</time>
      </trkpt>
      <trkpt lat="41.3445790" lon="-8.7407490">
        <ele>3.3</ele>
        <time>2021-05-16T10:52:56Z</time>
      </trkpt>
      <trkpt lat="41.3445890" lon="-8.7407240">
        <ele>3.4</ele>
        <time>2021-05-16T10:52:57Z</time>
      </trkpt>
      <trkpt lat="41.3445940" lon="-8.7407160">
        <ele>3.4</ele>
        <time>2021-05-16T10:52:58Z</time>
      </trkpt>
      <trkpt lat="41.3446000" lon="-8.7407070">
        <ele>3.4</ele>
        <time>2021-05-16T10:52:59Z</time>
      </trkpt>
      <trkpt lat="41.3446060" lon="-8.7406970">
        <ele>3.4</ele>
        <time>2021-05-16T10:53:00Z</time>
      </trkpt>
      <trkpt lat="41.3446150" lon="-8.7406830">
        <ele>3.5</ele>
        <time>2021-05-16T10:53:01Z</time>
      </trkpt>
      <trkpt lat="41.3446230" lon="-8.7406690">
        <ele>3.5</ele>
        <time>2021-05-16T10:53:02Z</time>
      </trkpt>
      <trkpt lat="41.3446340" lon="-8.7406550">
        <ele>3.5</ele>
        <time>2021-05-16T10:53:03Z</time>
      </trkpt>
      <trkpt lat="41.3446490" lon="-8.7406440">
        <ele>3.6</ele>
        <time>2021-05-16T10:53:04Z</time>
      </trkpt>
      <trkpt lat="41.3446590" lon="-8.7406250">
        <ele>3.6</ele>
        <time>2021-05-16T10:53:05Z</time>
      </trkpt>
      <trkpt lat="41.3446670" lon="-8.7406110">
        <ele>3.7</ele>
        <time>2021-05-16T10:53:06Z</time>
      </trkpt>
      <trkpt lat="41.3446780" lon="-8.7405970">
        <ele>3.7</ele>
        <time>2021-05-16T10:53:07Z</time>
      </trkpt>
      <trkpt lat="41.3446870" lon="-8.7405830">
        <ele>3.8</ele>
        <time>2021-05-16T10:53:08Z</time>
      </trkpt>
      <trkpt lat="41.3446900" lon="-8.7405670">
        <ele>3.8</ele>
        <time>2021-05-16T10:53:09Z</time>
      </trkpt>
      <trkpt lat="41.3446980" lon="-8.7405560">
        <ele>3.8</ele>
        <time>2021-05-16T10:53:10Z</time>
      </trkpt>
      <trkpt lat="41.3447010" lon="-8.7405400">
        <ele>3.9</ele>
        <time>2021-05-16T10:53:11Z</time>
      </trkpt>
      <trkpt lat="41.3447110" lon="-8.7405120">
        <ele>4.0</ele>
        <time>2021-05-16T10:53:12Z</time>
      </trkpt>
      <trkpt lat="41.3447170" lon="-8.7405050">
        <ele>4.0</ele>
        <time>2021-05-16T10:53:13Z</time>
      </trkpt>
      <trkpt lat="41.3447230" lon="-8.7404980">
        <ele>4.0</ele>
        <time>2021-05-16T10:53:14Z</time>
      </trkpt>
      <trkpt lat="41.3447350" lon="-8.7404860">
        <ele>4.1</ele>
        <time>2021-05-16T10:53:15Z</time>
      </trkpt>
      <trkpt lat="41.3447390" lon="-8.7404820">
        <ele>4.1</ele>
        <time>2021-05-16T10:53:16Z</time>
      </trkpt>
      <trkpt lat="41.3447480" lon="-8.7404680">
        <ele>4.2</ele>
        <time>2021-05-16T10:53:17Z</time>
      </trkpt>
      <trkpt lat="41.3447590" lon="-8.7404570">
        <ele>4.2</ele>
        <time>2021-05-16T10:53:18Z</time>
      </trkpt>
      <trkpt lat="41.3447690" lon="-8.7404450">
        <ele>4.3</ele>
        <time>2021-05-16T10:53:19Z</time>
      </trkpt>
      <trkpt lat="41.3447830" lon="-8.7404350">
        <ele>4.3</ele>
        <time>2021-05-16T10:53:20Z</time>
      </trkpt>
      <trkpt lat="41.3447840" lon="-8.7404290">
        <ele>4.3</ele>
        <time>2021-05-16T10:53:21Z</time>
      </trkpt>
      <trkpt lat="41.3447930" lon="-8.7404180">
        <ele>4.4</ele>
        <time>2021-05-16T10:53:22Z</time>
      </trkpt>
      <trkpt lat="41.3448080" lon="-8.7404030">
        <ele>4.4</ele>
        <time>2021-05-16T10:53:23Z</time>
      </trkpt>
      <trkpt lat="41.3448140" lon="-8.7403980">
        <ele>4.5</ele>
        <time>2021-05-16T10:53:24Z</time>
      </trkpt>
      <trkpt lat="41.3448180" lon="-8.7403840">
        <ele>4.5</ele>
        <time>2021-05-16T10:53:25Z</time>
      </trkpt>
      <trkpt lat="41.3448330" lon="-8.7403710">
        <ele>4.6</ele>
        <time>2021-05-16T10:53:26Z</time>
      </trkpt>
      <trkpt lat="41.3448430" lon="-8.7403610">
        <ele>4.6</ele>
        <time>2021-05-16T10:53:27Z</time>
      </trkpt>
      <trkpt lat="41.3448580" lon="-8.7403460">
        <ele>4.7</ele>
        <time>2021-05-16T10:53:28Z</time>
      </trkpt>
      <trkpt lat="41.3448630" lon="-8.7403450">
        <ele>4.7</ele>
        <time>2021-05-16T10:53:29Z</time>
      </trkpt>
      <trkpt lat="41.3448730" lon="-8.7403350">
        <ele>4.7</ele>
        <time>2021-05-16T10:53:30Z</time>
      </trkpt>
      <trkpt lat="41.3448820" lon="-8.7403280">
        <ele>4.7</ele>
        <time>2021-05-16T10:53:31Z</time>
      </trkpt>
      <trkpt lat="41.3448980" lon="-8.7403150">
        <ele>4.8</ele>
        <time>2021-05-16T10:53:32Z</time>
      </trkpt>
      <trkpt lat="41.3449130" lon="-8.7402960">
        <ele>4.8</ele>
        <time>2021-05-16T10:53:33Z</time>
      </trkpt>
      <trkpt lat="41.3449180" lon="-8.7402870">
        <ele>4.9</ele>
        <time>2021-05-16T10:53:34Z</time>
      </trkpt>
      <trkpt lat="41.3449240" lon="-8.7402780">
        <ele>4.9</ele>
        <time>2021-05-16T10:53:35Z</time>
      </trkpt>
      <trkpt lat="41.3449370" lon="-8.7402630">
        <ele>4.9</ele>
        <time>2021-05-16T10:53:36Z</time>
      </trkpt>
      <trkpt lat="41.3449450" lon="-8.7402550">
        <ele>4.9</ele>
        <time>2021-05-16T10:53:37Z</time>
      </trkpt>
      <trkpt lat="41.3449520" lon="-8.7402460">
        <ele>4.9</ele>
        <time>2021-05-16T10:53:38Z</time>
      </trkpt>
      <trkpt lat="41.3449530" lon="-8.7402400">
        <ele>4.9</ele>
        <time>2021-05-16T10:53:39Z</time>
      </trkpt>
      <trkpt lat="41.3449690" lon="-8.7402260">
        <ele>5.0</ele>
        <time>2021-05-16T10:53:40Z</time>
      </trkpt>
      <trkpt lat="41.3449740" lon="-8.7402210">
        <ele>5.0</ele>
        <time>2021-05-16T10:53:41Z</time>
      </trkpt>
      <trkpt lat="41.3449810" lon="-8.7402100">
        <ele>5.0</ele>
        <time>2021-05-16T10:53:42Z</time>
      </trkpt>
      <trkpt lat="41.3449940" lon="-8.7401930">
        <ele>5.0</ele>
        <time>2021-05-16T10:53:43Z</time>
      </trkpt>
      <trkpt lat="41.3450030" lon="-8.7401830">
        <ele>5.0</ele>
        <time>2021-05-16T10:53:44Z</time>
      </trkpt>
      <trkpt lat="41.3450200" lon="-8.7401810">
        <ele>5.0</ele>
        <time>2021-05-16T10:53:45Z</time>
      </trkpt>
      <trkpt lat="41.3450320" lon="-8.7401830">
        <ele>5.0</ele>
        <time>2021-05-16T10:53:46Z</time>
      </trkpt>
      <trkpt lat="41.3450390" lon="-8.7401910">
        <ele>5.0</ele>
        <time>2021-05-16T10:53:47Z</time>
      </trkpt>
      <trkpt lat="41.3450450" lon="-8.7402000">
        <ele>5.0</ele>
        <time>2021-05-16T10:53:48Z</time>
      </trkpt>
      <trkpt lat="41.3450510" lon="-8.7402080">
        <ele>5.0</ele>
        <time>2021-05-16T10:53:49Z</time>
      </trkpt>
      <trkpt lat="41.3450650" lon="-8.7402260">
        <ele>5.0</ele>
        <time>2021-05-16T10:53:50Z</time>
      </trkpt>
      <trkpt lat="41.3450690" lon="-8.7402400">
        <ele>5.0</ele>
        <time>2021-05-16T10:53:51Z</time>
      </trkpt>
      <trkpt lat="41.3450850" lon="-8.7402570">
        <ele>5.0</ele>
        <time>2021-05-16T10:53:52Z</time>
      </trkpt>
      <trkpt lat="41.3450900" lon="-8.7402640">
        <ele>4.9</ele>
        <time>2021-05-16T10:53:53Z</time>
      </trkpt>
      <trkpt lat="41.3451010" lon="-8.7402790">
        <ele>4.9</ele>
        <time>2021-05-16T10:53:54Z</time>
      </trkpt>
      <trkpt lat="41.3451140" lon="-8.7402900">
        <ele>4.9</ele>
        <time>2021-05-16T10:53:55Z</time>
      </trkpt>
      <trkpt lat="41.3451260" lon="-8.7402960">
        <ele>4.9</ele>
        <time>2021-05-16T10:53:56Z</time>
      </trkpt>
      <trkpt lat="41.3451420" lon="-8.7402980">
        <ele>4.9</ele>
        <time>2021-05-16T10:53:57Z</time>
      </trkpt>
      <trkpt lat="41.3451540" lon="-8.7403020">
        <ele>4.9</ele>
        <time>2021-05-16T10:53:58Z</time>
      </trkpt>
      <trkpt lat="41.3451700" lon="-8.7403060">
        <ele>4.9</ele>
        <time>2021-05-16T10:53:59Z</time>
      </trkpt>
      <trkpt lat="41.3451910" lon="-8.7403100">
        <ele>4.9</ele>
        <time>2021-05-16T10:54:00Z</time>
      </trkpt>
      <trkpt lat="41.3452010" lon="-8.7403120">
        <ele>4.9</ele>
        <time>2021-05-16T10:54:01Z</time>
      </trkpt>
      <trkpt lat="41.3452100" lon="-8.7403130">
        <ele>4.9</ele>
        <time>2021-05-16T10:54:02Z</time>
      </trkpt>
      <trkpt lat="41.3452330" lon="-8.7403160">
        <ele>4.8</ele>
        <time>2021-05-16T10:54:03Z</time>
      </trkpt>
      <trkpt lat="41.3452430" lon="-8.7403160">
        <ele>4.8</ele>
        <time>2021-05-16T10:54:04Z</time>
      </trkpt>
      <trkpt lat="41.3452520" lon="-8.7403150">
        <ele>4.8</ele>
        <time>2021-05-16T10:54:05Z</time>
      </trkpt>
      <trkpt lat="41.3452690" lon="-8.7403170">
        <ele>4.8</ele>
        <time>2021-05-16T10:54:06Z</time>
      </trkpt>
      <trkpt lat="41.3452840" lon="-8.7403170">
        <ele>4.8</ele>
        <time>2021-05-16T10:54:07Z</time>
      </trkpt>
      <trkpt lat="41.3453010" lon="-8.7403180">
        <ele>4.8</ele>
        <time>2021-05-16T10:54:08Z</time>
      </trkpt>
      <trkpt lat="41.3453170" lon="-8.7403180">
        <ele>4.8</ele>
        <time>2021-05-16T10:54:09Z</time>
      </trkpt>
      <trkpt lat="41.3453320" lon="-8.7403250">
        <ele>4.8</ele>
        <time>2021-05-16T10:54:10Z</time>
      </trkpt>
      <trkpt lat="41.3453480" lon="-8.7403270">
        <ele>4.8</ele>
        <time>2021-05-16T10:54:11Z</time>
      </trkpt>
      <trkpt lat="41.3453640" lon="-8.7403190">
        <ele>4.7</ele>
        <time>2021-05-16T10:54:12Z</time>
      </trkpt>
      <trkpt lat="41.3453800" lon="-8.7403200">
        <ele>4.7</ele>
        <time>2021-05-16T10:54:13Z</time>
      </trkpt>
      <trkpt lat="41.3453940" lon="-8.7403200">
        <ele>4.7</ele>
        <time>2021-05-16T10:54:14Z</time>
      </trkpt>
      <trkpt lat="41.3454090" lon="-8.7403210">
        <ele>4.7</ele>
        <time>2021-05-16T10:54:15Z</time>
      </trkpt>
      <trkpt lat="41.3454210" lon="-8.7403180">
        <ele>4.7</ele>
        <time>2021-05-16T10:54:16Z</time>
      </trkpt>
      <trkpt lat="41.3454360" lon="-8.7403210">
        <ele>4.7</ele>
        <time>2021-05-16T10:54:17Z</time>
      </trkpt>
      <trkpt lat="41.3454510" lon="-8.7403170">
        <ele>4.7</ele>
        <time>2021-05-16T10:54:18Z</time>
      </trkpt>
      <trkpt lat="41.3454640" lon="-8.7403140">
        <ele>4.7</ele>
        <time>2021-05-16T10:54:19Z</time>
      </trkpt>
      <trkpt lat="41.3454790" lon="-8.7403180">
        <ele>4.7</ele>
        <time>2021-05-16T10:54:20Z</time>
      </trkpt>
      <trkpt lat="41.3454940" lon="-8.7403150">
        <ele>4.7</ele>
        <time>2021-05-16T10:54:21Z</time>
      </trkpt>
      <trkpt lat="41.3455100" lon="-8.7403230">
        <ele>4.7</ele>
        <time>2021-05-16T10:54:22Z</time>
      </trkpt>
      <trkpt lat="41.3455240" lon="-8.7403260">
        <ele>4.7</ele>
        <time>2021-05-16T10:54:23Z</time>
      </trkpt>
      <trkpt lat="41.3455410" lon="-8.7403240">
        <ele>4.7</ele>
        <time>2021-05-16T10:54:24Z</time>
      </trkpt>
      <trkpt lat="41.3455570" lon="-8.7403270">
        <ele>4.7</ele>
        <time>2021-05-16T10:54:25Z</time>
      </trkpt>
      <trkpt lat="41.3455740" lon="-8.7403260">
        <ele>4.7</ele>
        <time>2021-05-16T10:54:26Z</time>
      </trkpt>
      <trkpt lat="41.3455870" lon="-8.7403310">
        <ele>4.7</ele>
        <time>2021-05-16T10:54:27Z</time>
      </trkpt>
      <trkpt lat="41.3456010" lon="-8.7403240">
        <ele>4.6</ele>
        <time>2021-05-16T10:54:28Z</time>
      </trkpt>
      <trkpt lat="41.3456170" lon="-8.7403260">
        <ele>4.6</ele>
        <time>2021-05-16T10:54:29Z</time>
      </trkpt>
      <trkpt lat="41.3456320" lon="-8.7403240">
        <ele>4.6</ele>
        <time>2021-05-16T10:54:30Z</time>
      </trkpt>
      <trkpt lat="41.3456460" lon="-8.7403300">
        <ele>4.6</ele>
        <time>2021-05-16T10:54:31Z</time>
      </trkpt>
      <trkpt lat="41.3456610" lon="-8.7403350">
        <ele>4.6</ele>
        <time>2021-05-16T10:54:32Z</time>
      </trkpt>
      <trkpt lat="41.3456730" lon="-8.7403330">
        <ele>4.6</ele>
        <time>2021-05-16T10:54:33Z</time>
      </trkpt>
      <trkpt lat="41.3456850" lon="-8.7403430">
        <ele>4.6</ele>
        <time>2021-05-16T10:54:34Z</time>
      </trkpt>
      <trkpt lat="41.3456960" lon="-8.7403460">
        <ele>4.6</ele>
        <time>2021-05-16T10:54:35Z</time>
      </trkpt>
      <trkpt lat="41.3457040" lon="-8.7403460">
        <ele>4.6</ele>
        <time>2021-05-16T10:54:36Z</time>
      </trkpt>
      <trkpt lat="41.3457100" lon="-8.7403400">
        <ele>4.6</ele>
        <time>2021-05-16T10:54:37Z</time>
      </trkpt>
      <trkpt lat="41.3457210" lon="-8.7403450">
        <ele>4.6</ele>
        <time>2021-05-16T10:54:38Z</time>
      </trkpt>
      <trkpt lat="41.3457360" lon="-8.7403440">
        <ele>4.6</ele>
        <time>2021-05-16T10:54:39Z</time>
      </trkpt>
      <trkpt lat="41.3457460" lon="-8.7403420">
        <ele>4.6</ele>
        <time>2021-05-16T10:54:40Z</time>
      </trkpt>
      <trkpt lat="41.3457540" lon="-8.7403410">
        <ele>4.6</ele>
        <time>2021-05-16T10:54:41Z</time>
      </trkpt>
      <trkpt lat="41.3457640" lon="-8.7403390">
        <ele>4.6</ele>
        <time>2021-05-16T10:54:42Z</time>
      </trkpt>
      <trkpt lat="41.3457770" lon="-8.7403450">
        <ele>4.6</ele>
        <time>2021-05-16T10:54:43Z</time>
      </trkpt>
      <trkpt lat="41.3457880" lon="-8.7403430">
        <ele>4.6</ele>
        <time>2021-05-16T10:54:44Z</time>
      </trkpt>
      <trkpt lat="41.3457960" lon="-8.7403490">
        <ele>4.6</ele>
        <time>2021-05-16T10:54:45Z</time>
      </trkpt>
      <trkpt lat="41.3458080" lon="-8.7403430">
        <ele>4.6</ele>
        <time>2021-05-16T10:54:46Z</time>
      </trkpt>
      <trkpt lat="41.3458240" lon="-8.7403470">
        <ele>4.6</ele>
        <time>2021-05-16T10:54:47Z</time>
      </trkpt>
      <trkpt lat="41.3458410" lon="-8.7403490">
        <ele>4.6</ele>
        <time>2021-05-16T10:54:48Z</time>
      </trkpt>
      <trkpt lat="41.3458570" lon="-8.7403500">
        <ele>4.6</ele>
        <time>2021-05-16T10:54:49Z</time>
      </trkpt>
      <trkpt lat="41.3458720" lon="-8.7403520">
        <ele>4.6</ele>
        <time>2021-05-16T10:54:50Z</time>
      </trkpt>
      <trkpt lat="41.3458840" lon="-8.7403600">
        <ele>4.6</ele>
        <time>2021-05-16T10:54:51Z</time>
      </trkpt>
      <trkpt lat="41.3458990" lon="-8.7403570">
        <ele>4.6</ele>
        <time>2021-05-16T10:54:52Z</time>
      </trkpt>
      <trkpt lat="41.3459140" lon="-8.7403630">
        <ele>4.6</ele>
        <time>2021-05-16T10:54:53Z</time>
      </trkpt>
      <trkpt lat="41.3459290" lon="-8.7403620">
        <ele>4.6</ele>
        <time>2021-05-16T10:54:54Z</time>
      </trkpt>
      <trkpt lat="41.3459420" lon="-8.7403710">
        <ele>4.6</ele>
        <time>2021-05-16T10:54:55Z</time>
      </trkpt>
      <trkpt lat="41.3459540" lon="-8.7403720">
        <ele>4.6</ele>
        <time>2021-05-16T10:54:56Z</time>
      </trkpt>
      <trkpt lat="41.3459690" lon="-8.7403710">
        <ele>4.6</ele>
        <time>2021-05-16T10:54:57Z</time>
      </trkpt>
      <trkpt lat="41.3459840" lon="-8.7403660">
        <ele>4.6</ele>
        <time>2021-05-16T10:54:58Z</time>
      </trkpt>
      <trkpt lat="41.3460010" lon="-8.7403700">
        <ele>4.6</ele>
        <time>2021-05-16T10:54:59Z</time>
      </trkpt>
      <trkpt lat="41.3460160" lon="-8.7403750">
        <ele>4.6</ele>
        <time>2021-05-16T10:55:00Z</time>
      </trkpt>
      <trkpt lat="41.3460310" lon="-8.7403750">
        <ele>4.6</ele>
        <time>2021-05-16T10:55:01Z</time>
      </trkpt>
      <trkpt lat="41.3460440" lon="-8.7403780">
        <ele>4.6</ele>
        <time>2021-05-16T10:55:02Z</time>
      </trkpt>
      <trkpt lat="41.3460530" lon="-8.7403830">
        <ele>4.6</ele>
        <time>2021-05-16T10:55:03Z</time>
      </trkpt>
      <trkpt lat="41.3460610" lon="-8.7403900">
        <ele>4.6</ele>
        <time>2021-05-16T10:55:04Z</time>
      </trkpt>
      <trkpt lat="41.3460710" lon="-8.7403970">
        <ele>4.6</ele>
        <time>2021-05-16T10:55:05Z</time>
      </trkpt>
      <trkpt lat="41.3460820" lon="-8.7404030">
        <ele>4.6</ele>
        <time>2021-05-16T10:55:06Z</time>
      </trkpt>
      <trkpt lat="41.3460860" lon="-8.7404080">
        <ele>4.6</ele>
        <time>2021-05-16T10:55:07Z</time>
      </trkpt>
      <trkpt lat="41.3460920" lon="-8.7404090">
        <ele>4.6</ele>
        <time>2021-05-16T10:55:08Z</time>
      </trkpt>
      <trkpt lat="41.3461060" lon="-8.7403980">
        <ele>4.6</ele>
        <time>2021-05-16T10:55:09Z</time>
      </trkpt>
      <trkpt lat="41.3461130" lon="-8.7403930">
        <ele>4.6</ele>
        <time>2021-05-16T10:55:10Z</time>
      </trkpt>
      <trkpt lat="41.3461290" lon="-8.7404000">
        <ele>4.6</ele>
        <time>2021-05-16T10:55:11Z</time>
      </trkpt>
      <trkpt lat="41.3461420" lon="-8.7404020">
        <ele>4.6</ele>
        <time>2021-05-16T10:55:12Z</time>
      </trkpt>
      <trkpt lat="41.3461500" lon="-8.7404060">
        <ele>4.6</ele>
        <time>2021-05-16T10:55:13Z</time>
      </trkpt>
      <trkpt lat="41.3461580" lon="-8.7404080">
        <ele>4.6</ele>
        <time>2021-05-16T10:55:14Z</time>
      </trkpt>
      <trkpt lat="41.3461750" lon="-8.7404130">
        <ele>4.5</ele>
        <time>2021-05-16T10:55:15Z</time>
      </trkpt>
      <trkpt lat="41.3461790" lon="-8.7404120">
        <ele>4.5</ele>
        <time>2021-05-16T10:55:16Z</time>
      </trkpt>
      <trkpt lat="41.3461960" lon="-8.7404130">
        <ele>4.5</ele>
        <time>2021-05-16T10:55:17Z</time>
      </trkpt>
      <trkpt lat="41.3462100" lon="-8.7404140">
        <ele>4.5</ele>
        <time>2021-05-16T10:55:18Z</time>
      </trkpt>
      <trkpt lat="41.3462140" lon="-8.7404230">
        <ele>4.5</ele>
        <time>2021-05-16T10:55:19Z</time>
      </trkpt>
      <trkpt lat="41.3462320" lon="-8.7404160">
        <ele>4.5</ele>
        <time>2021-05-16T10:55:20Z</time>
      </trkpt>
      <trkpt lat="41.3462410" lon="-8.7404190">
        <ele>4.5</ele>
        <time>2021-05-16T10:55:21Z</time>
      </trkpt>
      <trkpt lat="41.3462540" lon="-8.7404160">
        <ele>4.4</ele>
        <time>2021-05-16T10:55:22Z</time>
      </trkpt>
      <trkpt lat="41.3462670" lon="-8.7404160">
        <ele>4.4</ele>
        <time>2021-05-16T10:55:23Z</time>
      </trkpt>
      <trkpt lat="41.3462770" lon="-8.7404210">
        <ele>4.4</ele>
        <time>2021-05-16T10:55:24Z</time>
      </trkpt>
      <trkpt lat="41.3462860" lon="-8.7404250">
        <ele>4.4</ele>
        <time>2021-05-16T10:55:25Z</time>
      </trkpt>
      <trkpt lat="41.3463020" lon="-8.7404350">
        <ele>4.4</ele>
        <time>2021-05-16T10:55:26Z</time>
      </trkpt>
      <trkpt lat="41.3463170" lon="-8.7404420">
        <ele>4.3</ele>
        <time>2021-05-16T10:55:27Z</time>
      </trkpt>
      <trkpt lat="41.3463300" lon="-8.7404340">
        <ele>4.3</ele>
        <time>2021-05-16T10:55:28Z</time>
      </trkpt>
      <trkpt lat="41.3463440" lon="-8.7404470">
        <ele>4.3</ele>
        <time>2021-05-16T10:55:29Z</time>
      </trkpt>
      <trkpt lat="41.3463580" lon="-8.7404560">
        <ele>4.3</ele>
        <time>2021-05-16T10:55:30Z</time>
      </trkpt>
      <trkpt lat="41.3463750" lon="-8.7404520">
        <ele>4.2</ele>
        <time>2021-05-16T10:55:31Z</time>
      </trkpt>
      <trkpt lat="41.3463860" lon="-8.7404600">
        <ele>4.2</ele>
        <time>2021-05-16T10:55:32Z</time>
      </trkpt>
      <trkpt lat="41.3464000" lon="-8.7404580">
        <ele>4.2</ele>
        <time>2021-05-16T10:55:33Z</time>
      </trkpt>
      <trkpt lat="41.3464090" lon="-8.7404640">
        <ele>4.2</ele>
        <time>2021-05-16T10:55:34Z</time>
      </trkpt>
      <trkpt lat="41.3464220" lon="-8.7404540">
        <ele>4.1</ele>
        <time>2021-05-16T10:55:35Z</time>
      </trkpt>
      <trkpt lat="41.3464400" lon="-8.7404620">
        <ele>4.1</ele>
        <time>2021-05-16T10:55:36Z</time>
      </trkpt>
      <trkpt lat="41.3464490" lon="-8.7404600">
        <ele>4.1</ele>
        <time>2021-05-16T10:55:37Z</time>
      </trkpt>
      <trkpt lat="41.3464580" lon="-8.7404590">
        <ele>4.1</ele>
        <time>2021-05-16T10:55:38Z</time>
      </trkpt>
      <trkpt lat="41.3464680" lon="-8.7404670">
        <ele>4.1</ele>
        <time>2021-05-16T10:55:39Z</time>
      </trkpt>
      <trkpt lat="41.3464750" lon="-8.7404740">
        <ele>4.0</ele>
        <time>2021-05-16T10:55:40Z</time>
      </trkpt>
      <trkpt lat="41.3464860" lon="-8.7404820">
        <ele>4.0</ele>
        <time>2021-05-16T10:55:41Z</time>
      </trkpt>
      <trkpt lat="41.3465020" lon="-8.7404840">
        <ele>4.0</ele>
        <time>2021-05-16T10:55:42Z</time>
      </trkpt>
      <trkpt lat="41.3465190" lon="-8.7404830">
        <ele>4.0</ele>
        <time>2021-05-16T10:55:43Z</time>
      </trkpt>
      <trkpt lat="41.3465420" lon="-8.7404820">
        <ele>3.9</ele>
        <time>2021-05-16T10:55:44Z</time>
      </trkpt>
      <trkpt lat="41.3465500" lon="-8.7404820">
        <ele>3.9</ele>
        <time>2021-05-16T10:55:45Z</time>
      </trkpt>
      <trkpt lat="41.3465570" lon="-8.7404810">
        <ele>3.9</ele>
        <time>2021-05-16T10:55:46Z</time>
      </trkpt>
      <trkpt lat="41.3465780" lon="-8.7404790">
        <ele>3.9</ele>
        <time>2021-05-16T10:55:47Z</time>
      </trkpt>
      <trkpt lat="41.3465870" lon="-8.7404730">
        <ele>3.9</ele>
        <time>2021-05-16T10:55:48Z</time>
      </trkpt>
      <trkpt lat="41.3465960" lon="-8.7404660">
        <ele>3.9</ele>
        <time>2021-05-16T10:55:49Z</time>
      </trkpt>
      <trkpt lat="41.3466150" lon="-8.7404650">
        <ele>3.8</ele>
        <time>2021-05-16T10:55:50Z</time>
      </trkpt>
      <trkpt lat="41.3466250" lon="-8.7404650">
        <ele>3.8</ele>
        <time>2021-05-16T10:55:51Z</time>
      </trkpt>
      <trkpt lat="41.3466370" lon="-8.7404630">
        <ele>3.8</ele>
        <time>2021-05-16T10:55:52Z</time>
      </trkpt>
      <trkpt lat="41.3466400" lon="-8.7404700">
        <ele>3.8</ele>
        <time>2021-05-16T10:55:53Z</time>
      </trkpt>
      <trkpt lat="41.3466510" lon="-8.7404720">
        <ele>3.8</ele>
        <time>2021-05-16T10:55:54Z</time>
      </trkpt>
      <trkpt lat="41.3466590" lon="-8.7404700">
        <ele>3.8</ele>
        <time>2021-05-16T10:55:55Z</time>
      </trkpt>
      <trkpt lat="41.3466710" lon="-8.7404710">
        <ele>3.8</ele>
        <time>2021-05-16T10:55:56Z</time>
      </trkpt>
      <trkpt lat="41.3466760" lon="-8.7404810">
        <ele>3.8</ele>
        <time>2021-05-16T10:55:57Z</time>
      </trkpt>
      <trkpt lat="41.3466940" lon="-8.7404740">
        <ele>3.7</ele>
        <time>2021-05-16T10:55:58Z</time>
      </trkpt>
      <trkpt lat="41.3467160" lon="-8.7404750">
        <ele>3.7</ele>
        <time>2021-05-16T10:55:59Z</time>
      </trkpt>
      <trkpt lat="41.3467230" lon="-8.7404750">
        <ele>3.7</ele>
        <time>2021-05-16T10:56:00Z</time>
      </trkpt>
      <trkpt lat="41.3467310" lon="-8.7404760">
        <ele>3.7</ele>
        <time>2021-05-16T10:56:01Z</time>
      </trkpt>
      <trkpt lat="41.3467400" lon="-8.7404860">
        <ele>3.7</ele>
        <time>2021-05-16T10:56:02Z</time>
      </trkpt>
      <trkpt lat="41.3467600" lon="-8.7404860">
        <ele>3.7</ele>
        <time>2021-05-16T10:56:03Z</time>
      </trkpt>
      <trkpt lat="41.3467790" lon="-8.7404880">
        <ele>3.6</ele>
        <time>2021-05-16T10:56:04Z</time>
      </trkpt>
      <trkpt lat="41.3467940" lon="-8.7404820">
        <ele>3.6</ele>
        <time>2021-05-16T10:56:05Z</time>
      </trkpt>
      <trkpt lat="41.3468160" lon="-8.7404790">
        <ele>3.6</ele>
        <time>2021-05-16T10:56:06Z</time>
      </trkpt>
      <trkpt lat="41.3468240" lon="-8.7404770">
        <ele>3.6</ele>
        <time>2021-05-16T10:56:07Z</time>
      </trkpt>
      <trkpt lat="41.3468320" lon="-8.7404750">
        <ele>3.6</ele>
        <time>2021-05-16T10:56:08Z</time>
      </trkpt>
      <trkpt lat="41.3468460" lon="-8.7404770">
        <ele>3.6</ele>
        <time>2021-05-16T10:56:09Z</time>
      </trkpt>
      <trkpt lat="41.3468680" lon="-8.7404740">
        <ele>3.6</ele>
        <time>2021-05-16T10:56:10Z</time>
      </trkpt>
      <trkpt lat="41.3468880" lon="-8.7404780">
        <ele>3.6</ele>
        <time>2021-05-16T10:56:11Z</time>
      </trkpt>
      <trkpt lat="41.3468960" lon="-8.7404760">
        <ele>3.5</ele>
        <time>2021-05-16T10:56:12Z</time>
      </trkpt>
      <trkpt lat="41.3469050" lon="-8.7404740">
        <ele>3.5</ele>
        <time>2021-05-16T10:56:13Z</time>
      </trkpt>
      <trkpt lat="41.3469110" lon="-8.7404840">
        <ele>3.5</ele>
        <time>2021-05-16T10:56:14Z</time>
      </trkpt>
      <trkpt lat="41.3469210" lon="-8.7404890">
        <ele>3.5</ele>
        <time>2021-05-16T10:56:15Z</time>
      </trkpt>
      <trkpt lat="41.3469360" lon="-8.7404870">
        <ele>3.5</ele>
        <time>2021-05-16T10:56:16Z</time>
      </trkpt>
      <trkpt lat="41.3469630" lon="-8.7404670">
        <ele>3.5</ele>
        <time>2021-05-16T10:56:17Z</time>
      </trkpt>
      <trkpt lat="41.3469700" lon="-8.7404630">
        <ele>3.5</ele>
        <time>2021-05-16T10:56:18Z</time>
      </trkpt>
      <trkpt lat="41.3469680" lon="-8.7404640">
        <ele>3.5</ele>
        <time>2021-05-16T10:56:19Z</time>
      </trkpt>
      <trkpt lat="41.3469770" lon="-8.7404600">
        <ele>3.5</ele>
        <time>2021-05-16T10:56:20Z</time>
      </trkpt>
      <trkpt lat="41.3469900" lon="-8.7404570">
        <ele>3.5</ele>
        <time>2021-05-16T10:56:21Z</time>
      </trkpt>
      <trkpt lat="41.3470050" lon="-8.7404630">
        <ele>3.4</ele>
        <time>2021-05-16T10:56:22Z</time>
      </trkpt>
      <trkpt lat="41.3470230" lon="-8.7404610">
        <ele>3.4</ele>
        <time>2021-05-16T10:56:23Z</time>
      </trkpt>
      <trkpt lat="41.3470400" lon="-8.7404620">
        <ele>3.4</ele>
        <time>2021-05-16T10:56:24Z</time>
      </trkpt>
      <trkpt lat="41.3470520" lon="-8.7404690">
        <ele>3.4</ele>
        <time>2021-05-16T10:56:25Z</time>
      </trkpt>
      <trkpt lat="41.3470680" lon="-8.7404660">
        <ele>3.4</ele>
        <time>2021-05-16T10:56:26Z</time>
      </trkpt>
      <trkpt lat="41.3470860" lon="-8.7404680">
        <ele>3.4</ele>
        <time>2021-05-16T10:56:27Z</time>
      </trkpt>
      <trkpt lat="41.3470960" lon="-8.7404720">
        <ele>3.4</ele>
        <time>2021-05-16T10:56:28Z</time>
      </trkpt>
      <trkpt lat="41.3471060" lon="-8.7404760">
        <ele>3.4</ele>
        <time>2021-05-16T10:56:29Z</time>
      </trkpt>
      <trkpt lat="41.3471190" lon="-8.7404790">
        <ele>3.4</ele>
        <time>2021-05-16T10:56:30Z</time>
      </trkpt>
      <trkpt lat="41.3471350" lon="-8.7404820">
        <ele>3.4</ele>
        <time>2021-05-16T10:56:31Z</time>
      </trkpt>
      <trkpt lat="41.3471590" lon="-8.7404850">
        <ele>3.3</ele>
        <time>2021-05-16T10:56:32Z</time>
      </trkpt>
      <trkpt lat="41.3471660" lon="-8.7404870">
        <ele>3.3</ele>
        <time>2021-05-16T10:56:33Z</time>
      </trkpt>
      <trkpt lat="41.3471740" lon="-8.7404900">
        <ele>3.3</ele>
        <time>2021-05-16T10:56:34Z</time>
      </trkpt>
      <trkpt lat="41.3471990" lon="-8.7404820">
        <ele>3.3</ele>
        <time>2021-05-16T10:56:35Z</time>
      </trkpt>
      <trkpt lat="41.3472090" lon="-8.7404850">
        <ele>3.3</ele>
        <time>2021-05-16T10:56:36Z</time>
      </trkpt>
      <trkpt lat="41.3472200" lon="-8.7404890">
        <ele>3.3</ele>
        <time>2021-05-16T10:56:37Z</time>
      </trkpt>
      <trkpt lat="41.3472330" lon="-8.7404910">
        <ele>3.3</ele>
        <time>2021-05-16T10:56:38Z</time>
      </trkpt>
      <trkpt lat="41.3472440" lon="-8.7405090">
        <ele>3.3</ele>
        <time>2021-05-16T10:56:39Z</time>
      </trkpt>
      <trkpt lat="41.3472630" lon="-8.7405010">
        <ele>3.3</ele>
        <time>2021-05-16T10:56:40Z</time>
      </trkpt>
      <trkpt lat="41.3472720" lon="-8.7405100">
        <ele>3.3</ele>
        <time>2021-05-16T10:56:41Z</time>
      </trkpt>
      <trkpt lat="41.3472830" lon="-8.7405140">
        <ele>3.3</ele>
        <time>2021-05-16T10:56:42Z</time>
      </trkpt>
      <trkpt lat="41.3473030" lon="-8.7405210">
        <ele>3.3</ele>
        <time>2021-05-16T10:56:43Z</time>
      </trkpt>
      <trkpt lat="41.3473190" lon="-8.7405220">
        <ele>3.3</ele>
        <time>2021-05-16T10:56:44Z</time>
      </trkpt>
      <trkpt lat="41.3473370" lon="-8.7405230">
        <ele>3.2</ele>
        <time>2021-05-16T10:56:45Z</time>
      </trkpt>
      <trkpt lat="41.3473500" lon="-8.7405230">
        <ele>3.2</ele>
        <time>2021-05-16T10:56:46Z</time>
      </trkpt>
      <trkpt lat="41.3473640" lon="-8.7405230">
        <ele>3.2</ele>
        <time>2021-05-16T10:56:47Z</time>
      </trkpt>
      <trkpt lat="41.3473720" lon="-8.7405220">
        <ele>3.2</ele>
        <time>2021-05-16T10:56:48Z</time>
      </trkpt>
      <trkpt lat="41.3473850" lon="-8.7405240">
        <ele>3.2</ele>
        <time>2021-05-16T10:56:49Z</time>
      </trkpt>
      <trkpt lat="41.3473940" lon="-8.7405270">
        <ele>3.2</ele>
        <time>2021-05-16T10:56:50Z</time>
      </trkpt>
      <trkpt lat="41.3474080" lon="-8.7405270">
        <ele>3.2</ele>
        <time>2021-05-16T10:56:51Z</time>
      </trkpt>
      <trkpt lat="41.3474230" lon="-8.7405310">
        <ele>3.2</ele>
        <time>2021-05-16T10:56:52Z</time>
      </trkpt>
      <trkpt lat="41.3474350" lon="-8.7405340">
        <ele>3.2</ele>
        <time>2021-05-16T10:56:53Z</time>
      </trkpt>
      <trkpt lat="41.3474510" lon="-8.7405390">
        <ele>3.2</ele>
        <time>2021-05-16T10:56:54Z</time>
      </trkpt>
      <trkpt lat="41.3474720" lon="-8.7405290">
        <ele>3.2</ele>
        <time>2021-05-16T10:56:55Z</time>
      </trkpt>
      <trkpt lat="41.3474790" lon="-8.7405200">
        <ele>3.2</ele>
        <time>2021-05-16T10:56:56Z</time>
      </trkpt>
      <trkpt lat="41.3474870" lon="-8.7405110">
        <ele>3.2</ele>
        <time>2021-05-16T10:56:57Z</time>
      </trkpt>
      <trkpt lat="41.3475130" lon="-8.7404990">
        <ele>3.1</ele>
        <time>2021-05-16T10:56:58Z</time>
      </trkpt>
      <trkpt lat="41.3475220" lon="-8.7404940">
        <ele>3.1</ele>
        <time>2021-05-16T10:56:59Z</time>
      </trkpt>
      <trkpt lat="41.3475370" lon="-8.7404980">
        <ele>3.1</ele>
        <time>2021-05-16T10:57:00Z</time>
      </trkpt>
      <trkpt lat="41.3475510" lon="-8.7405020">
        <ele>3.1</ele>
        <time>2021-05-16T10:57:01Z</time>
      </trkpt>
      <trkpt lat="41.3475610" lon="-8.7405070">
        <ele>3.1</ele>
        <time>2021-05-16T10:57:02Z</time>
      </trkpt>
      <trkpt lat="41.3475830" lon="-8.7405040">
        <ele>3.1</ele>
        <time>2021-05-16T10:57:03Z</time>
      </trkpt>
      <trkpt lat="41.3476120" lon="-8.7405010">
        <ele>3.1</ele>
        <time>2021-05-16T10:57:04Z</time>
      </trkpt>
      <trkpt lat="41.3476200" lon="-8.7405000">
        <ele>3.1</ele>
        <time>2021-05-16T10:57:05Z</time>
      </trkpt>
      <trkpt lat="41.3476350" lon="-8.7405010">
        <ele>3.1</ele>
        <time>2021-05-16T10:57:06Z</time>
      </trkpt>
      <trkpt lat="41.3476510" lon="-8.7405030">
        <ele>3.1</ele>
        <time>2021-05-16T10:57:07Z</time>
      </trkpt>
      <trkpt lat="41.3476650" lon="-8.7404990">
        <ele>3.1</ele>
        <time>2021-05-16T10:57:08Z</time>
      </trkpt>
      <trkpt lat="41.3476810" lon="-8.7405000">
        <ele>3.1</ele>
        <time>2021-05-16T10:57:09Z</time>
      </trkpt>
      <trkpt lat="41.3476960" lon="-8.7405010">
        <ele>3.1</ele>
        <time>2021-05-16T10:57:10Z</time>
      </trkpt>
      <trkpt lat="41.3477100" lon="-8.7405030">
        <ele>3.1</ele>
        <time>2021-05-16T10:57:11Z</time>
      </trkpt>
      <trkpt lat="41.3477220" lon="-8.7405050">
        <ele>3.1</ele>
        <time>2021-05-16T10:57:12Z</time>
      </trkpt>
      <trkpt lat="41.3477330" lon="-8.7405050">
        <ele>3.1</ele>
        <time>2021-05-16T10:57:13Z</time>
      </trkpt>
      <trkpt lat="41.3477430" lon="-8.7404990">
        <ele>3.0</ele>
        <time>2021-05-16T10:57:14Z</time>
      </trkpt>
      <trkpt lat="41.3477610" lon="-8.7404930">
        <ele>3.0</ele>
        <time>2021-05-16T10:57:15Z</time>
      </trkpt>
      <trkpt lat="41.3477680" lon="-8.7404840">
        <ele>3.0</ele>
        <time>2021-05-16T10:57:16Z</time>
      </trkpt>
      <trkpt lat="41.3477880" lon="-8.7404770">
        <ele>3.0</ele>
        <time>2021-05-16T10:57:17Z</time>
      </trkpt>
      <trkpt lat="41.3477970" lon="-8.7404770">
        <ele>3.0</ele>
        <time>2021-05-16T10:57:18Z</time>
      </trkpt>
      <trkpt lat="41.3478070" lon="-8.7404760">
        <ele>3.0</ele>
        <time>2021-05-16T10:57:19Z</time>
      </trkpt>
      <trkpt lat="41.3478220" lon="-8.7404820">
        <ele>3.0</ele>
        <time>2021-05-16T10:57:20Z</time>
      </trkpt>
      <trkpt lat="41.3478380" lon="-8.7404780">
        <ele>3.0</ele>
        <time>2021-05-16T10:57:21Z</time>
      </trkpt>
      <trkpt lat="41.3478610" lon="-8.7404810">
        <ele>3.0</ele>
        <time>2021-05-16T10:57:22Z</time>
      </trkpt>
      <trkpt lat="41.3478690" lon="-8.7404800">
        <ele>3.0</ele>
        <time>2021-05-16T10:57:23Z</time>
      </trkpt>
      <trkpt lat="41.3478770" lon="-8.7404780">
        <ele>3.0</ele>
        <time>2021-05-16T10:57:24Z</time>
      </trkpt>
      <trkpt lat="41.3478910" lon="-8.7404740">
        <ele>3.0</ele>
        <time>2021-05-16T10:57:25Z</time>
      </trkpt>
      <trkpt lat="41.3479100" lon="-8.7404800">
        <ele>3.0</ele>
        <time>2021-05-16T10:57:26Z</time>
      </trkpt>
      <trkpt lat="41.3479270" lon="-8.7404860">
        <ele>3.0</ele>
        <time>2021-05-16T10:57:27Z</time>
      </trkpt>
      <trkpt lat="41.3479440" lon="-8.7404880">
        <ele>3.0</ele>
        <time>2021-05-16T10:57:28Z</time>
      </trkpt>
      <trkpt lat="41.3479590" lon="-8.7404930">
        <ele>3.0</ele>
        <time>2021-05-16T10:57:29Z</time>
      </trkpt>
      <trkpt lat="41.3479750" lon="-8.7405000">
        <ele>3.0</ele>
        <time>2021-05-16T10:57:30Z</time>
      </trkpt>
      <trkpt lat="41.3479900" lon="-8.7405070">
        <ele>3.0</ele>
        <time>2021-05-16T10:57:31Z</time>
      </trkpt>
      <trkpt lat="41.3480040" lon="-8.7405060">
        <ele>3.0</ele>
        <time>2021-05-16T10:57:32Z</time>
      </trkpt>
      <trkpt lat="41.3480200" lon="-8.7405020">
        <ele>3.0</ele>
        <time>2021-05-16T10:57:33Z</time>
      </trkpt>
      <trkpt lat="41.3480380" lon="-8.7405060">
        <ele>3.0</ele>
        <time>2021-05-16T10:57:34Z</time>
      </trkpt>
      <trkpt lat="41.3480510" lon="-8.7405090">
        <ele>3.0</ele>
        <time>2021-05-16T10:57:35Z</time>
      </trkpt>
      <trkpt lat="41.3480660" lon="-8.7405160">
        <ele>3.0</ele>
        <time>2021-05-16T10:57:36Z</time>
      </trkpt>
      <trkpt lat="41.3480800" lon="-8.7405170">
        <ele>3.0</ele>
        <time>2021-05-16T10:57:37Z</time>
      </trkpt>
      <trkpt lat="41.3480950" lon="-8.7405140">
        <ele>3.0</ele>
        <time>2021-05-16T10:57:38Z</time>
      </trkpt>
      <trkpt lat="41.3481110" lon="-8.7405150">
        <ele>3.0</ele>
        <time>2021-05-16T10:57:39Z</time>
      </trkpt>
      <trkpt lat="41.3481250" lon="-8.7405160">
        <ele>3.0</ele>
        <time>2021-05-16T10:57:40Z</time>
      </trkpt>
      <trkpt lat="41.3481400" lon="-8.7405170">
        <ele>3.0</ele>
        <time>2021-05-16T10:57:41Z</time>
      </trkpt>
      <trkpt lat="41.3481540" lon="-8.7405200">
        <ele>3.0</ele>
        <time>2021-05-16T10:57:42Z</time>
      </trkpt>
      <trkpt lat="41.3481690" lon="-8.7405200">
        <ele>3.0</ele>
        <time>2021-05-16T10:57:43Z</time>
      </trkpt>
      <trkpt lat="41.3481840" lon="-8.7405220">
        <ele>3.0</ele>
        <time>2021-05-16T10:57:44Z</time>
      </trkpt>
      <trkpt lat="41.3481980" lon="-8.7405220">
        <ele>3.0</ele>
        <time>2021-05-16T10:57:45Z</time>
      </trkpt>
      <trkpt lat="41.3482130" lon="-8.7405220">
        <ele>3.0</ele>
        <time>2021-05-16T10:57:46Z</time>
      </trkpt>
      <trkpt lat="41.3482350" lon="-8.7405220">
        <ele>3.0</ele>
        <time>2021-05-16T10:57:47Z</time>
      </trkpt>
      <trkpt lat="41.3482440" lon="-8.7405210">
        <ele>3.0</ele>
        <time>2021-05-16T10:57:48Z</time>
      </trkpt>
      <trkpt lat="41.3482520" lon="-8.7405190">
        <ele>3.0</ele>
        <time>2021-05-16T10:57:49Z</time>
      </trkpt>
      <trkpt lat="41.3482640" lon="-8.7405140">
        <ele>3.0</ele>
        <time>2021-05-16T10:57:50Z</time>
      </trkpt>
      <trkpt lat="41.3482800" lon="-8.7405160">
        <ele>3.0</ele>
        <time>2021-05-16T10:57:51Z</time>
      </trkpt>
      <trkpt lat="41.3482950" lon="-8.7405160">
        <ele>3.0</ele>
        <time>2021-05-16T10:57:52Z</time>
      </trkpt>
      <trkpt lat="41.3483080" lon="-8.7405200">
        <ele>3.0</ele>
        <time>2021-05-16T10:57:53Z</time>
      </trkpt>
      <trkpt lat="41.3483210" lon="-8.7405270">
        <ele>3.0</ele>
        <time>2021-05-16T10:57:54Z</time>
      </trkpt>
      <trkpt lat="41.3483350" lon="-8.7405320">
        <ele>2.9</ele>
        <time>2021-05-16T10:57:55Z</time>
      </trkpt>
      <trkpt lat="41.3483480" lon="-8.7405390">
        <ele>2.9</ele>
        <time>2021-05-16T10:57:56Z</time>
      </trkpt>
      <trkpt lat="41.3483620" lon="-8.7405350">
        <ele>2.9</ele>
        <time>2021-05-16T10:57:57Z</time>
      </trkpt>
      <trkpt lat="41.3483760" lon="-8.7405290">
        <ele>2.9</ele>
        <time>2021-05-16T10:57:58Z</time>
      </trkpt>
      <trkpt lat="41.3483920" lon="-8.7405250">
        <ele>2.9</ele>
        <time>2021-05-16T10:57:59Z</time>
      </trkpt>
      <trkpt lat="41.3484060" lon="-8.7405210">
        <ele>2.9</ele>
        <time>2021-05-16T10:58:00Z</time>
      </trkpt>
      <trkpt lat="41.3484210" lon="-8.7405250">
        <ele>2.9</ele>
        <time>2021-05-16T10:58:01Z</time>
      </trkpt>
      <trkpt lat="41.3484350" lon="-8.7405230">
        <ele>2.9</ele>
        <time>2021-05-16T10:58:02Z</time>
      </trkpt>
      <trkpt lat="41.3484500" lon="-8.7405230">
        <ele>2.9</ele>
        <time>2021-05-16T10:58:03Z</time>
      </trkpt>
      <trkpt lat="41.3484650" lon="-8.7405290">
        <ele>2.9</ele>
        <time>2021-05-16T10:58:04Z</time>
      </trkpt>
      <trkpt lat="41.3484790" lon="-8.7405270">
        <ele>2.9</ele>
        <time>2021-05-16T10:58:05Z</time>
      </trkpt>
      <trkpt lat="41.3484920" lon="-8.7405260">
        <ele>2.9</ele>
        <time>2021-05-16T10:58:06Z</time>
      </trkpt>
      <trkpt lat="41.3485070" lon="-8.7405260">
        <ele>2.9</ele>
        <time>2021-05-16T10:58:07Z</time>
      </trkpt>
      <trkpt lat="41.3485210" lon="-8.7405270">
        <ele>2.9</ele>
        <time>2021-05-16T10:58:08Z</time>
      </trkpt>
      <trkpt lat="41.3485350" lon="-8.7405220">
        <ele>2.9</ele>
        <time>2021-05-16T10:58:09Z</time>
      </trkpt>
      <trkpt lat="41.3485490" lon="-8.7405250">
        <ele>2.9</ele>
        <time>2021-05-16T10:58:10Z</time>
      </trkpt>
      <trkpt lat="41.3485590" lon="-8.7405200">
        <ele>2.9</ele>
        <time>2021-05-16T10:58:11Z</time>
      </trkpt>
      <trkpt lat="41.3485660" lon="-8.7405120">
        <ele>2.9</ele>
        <time>2021-05-16T10:58:12Z</time>
      </trkpt>
      <trkpt lat="41.3485790" lon="-8.7405050">
        <ele>2.9</ele>
        <time>2021-05-16T10:58:13Z</time>
      </trkpt>
      <trkpt lat="41.3485930" lon="-8.7405080">
        <ele>2.9</ele>
        <time>2021-05-16T10:58:14Z</time>
      </trkpt>
      <trkpt lat="41.3486070" lon="-8.7405010">
        <ele>2.9</ele>
        <time>2021-05-16T10:58:15Z</time>
      </trkpt>
      <trkpt lat="41.3486220" lon="-8.7405010">
        <ele>2.9</ele>
        <time>2021-05-16T10:58:16Z</time>
      </trkpt>
      <trkpt lat="41.3486400" lon="-8.7405030">
        <ele>2.9</ele>
        <time>2021-05-16T10:58:17Z</time>
      </trkpt>
      <trkpt lat="41.3486530" lon="-8.7404940">
        <ele>2.9</ele>
        <time>2021-05-16T10:58:18Z</time>
      </trkpt>
      <trkpt lat="41.3486660" lon="-8.7404870">
        <ele>2.9</ele>
        <time>2021-05-16T10:58:19Z</time>
      </trkpt>
      <trkpt lat="41.3486810" lon="-8.7404890">
        <ele>2.8</ele>
        <time>2021-05-16T10:58:20Z</time>
      </trkpt>
      <trkpt lat="41.3486930" lon="-8.7404720">
        <ele>2.8</ele>
        <time>2021-05-16T10:58:21Z</time>
      </trkpt>
      <trkpt lat="41.3487080" lon="-8.7404760">
        <ele>2.8</ele>
        <time>2021-05-16T10:58:22Z</time>
      </trkpt>
      <trkpt lat="41.3487290" lon="-8.7404710">
        <ele>2.8</ele>
        <time>2021-05-16T10:58:23Z</time>
      </trkpt>
      <trkpt lat="41.3487370" lon="-8.7404640">
        <ele>2.8</ele>
        <time>2021-05-16T10:58:24Z</time>
      </trkpt>
      <trkpt lat="41.3487440" lon="-8.7404580">
        <ele>2.8</ele>
        <time>2021-05-16T10:58:25Z</time>
      </trkpt>
      <trkpt lat="41.3487630" lon="-8.7404460">
        <ele>2.8</ele>
        <time>2021-05-16T10:58:26Z</time>
      </trkpt>
      <trkpt lat="41.3487700" lon="-8.7404370">
        <ele>2.8</ele>
        <time>2021-05-16T10:58:27Z</time>
      </trkpt>
      <trkpt lat="41.3487760" lon="-8.7404280">
        <ele>2.8</ele>
        <time>2021-05-16T10:58:28Z</time>
      </trkpt>
      <trkpt lat="41.3487880" lon="-8.7404170">
        <ele>2.8</ele>
        <time>2021-05-16T10:58:29Z</time>
      </trkpt>
      <trkpt lat="41.3488010" lon="-8.7404030">
        <ele>2.8</ele>
        <time>2021-05-16T10:58:30Z</time>
      </trkpt>
      <trkpt lat="41.3488220" lon="-8.7403900">
        <ele>2.8</ele>
        <time>2021-05-16T10:58:31Z</time>
      </trkpt>
      <trkpt lat="41.3488290" lon="-8.7403850">
        <ele>2.8</ele>
        <time>2021-05-16T10:58:32Z</time>
      </trkpt>
      <trkpt lat="41.3488360" lon="-8.7403800">
        <ele>2.8</ele>
        <time>2021-05-16T10:58:33Z</time>
      </trkpt>
      <trkpt lat="41.3488450" lon="-8.7403650">
        <ele>2.8</ele>
        <time>2021-05-16T10:58:34Z</time>
      </trkpt>
      <trkpt lat="41.3488560" lon="-8.7403520">
        <ele>2.8</ele>
        <time>2021-05-16T10:58:35Z</time>
      </trkpt>
      <trkpt lat="41.3488680" lon="-8.7403420">
        <ele>2.8</ele>
        <time>2021-05-16T10:58:36Z</time>
      </trkpt>
      <trkpt lat="41.3488810" lon="-8.7403310">
        <ele>2.8</ele>
        <time>2021-05-16T10:58:37Z</time>
      </trkpt>
      <trkpt lat="41.3488960" lon="-8.7403190">
        <ele>2.8</ele>
        <time>2021-05-16T10:58:38Z</time>
      </trkpt>
      <trkpt lat="41.3489100" lon="-8.7403100">
        <ele>2.8</ele>
        <time>2021-05-16T10:58:39Z</time>
      </trkpt>
      <trkpt lat="41.3489230" lon="-8.7402980">
        <ele>2.8</ele>
        <time>2021-05-16T10:58:40Z</time>
      </trkpt>
      <trkpt lat="41.3489360" lon="-8.7402890">
        <ele>2.8</ele>
        <time>2021-05-16T10:58:41Z</time>
      </trkpt>
      <trkpt lat="41.3489490" lon="-8.7402820">
        <ele>2.8</ele>
        <time>2021-05-16T10:58:42Z</time>
      </trkpt>
      <trkpt lat="41.3489630" lon="-8.7402760">
        <ele>2.8</ele>
        <time>2021-05-16T10:58:43Z</time>
      </trkpt>
      <trkpt lat="41.3489730" lon="-8.7402770">
        <ele>2.9</ele>
        <time>2021-05-16T10:58:44Z</time>
      </trkpt>
      <trkpt lat="41.3489920" lon="-8.7402760">
        <ele>2.9</ele>
        <time>2021-05-16T10:58:45Z</time>
      </trkpt>
      <trkpt lat="41.3490000" lon="-8.7402720">
        <ele>2.9</ele>
        <time>2021-05-16T10:58:46Z</time>
      </trkpt>
      <trkpt lat="41.3490050" lon="-8.7402780">
        <ele>2.9</ele>
        <time>2021-05-16T10:58:47Z</time>
      </trkpt>
      <trkpt lat="41.3490070" lon="-8.7402700">
        <ele>2.9</ele>
        <time>2021-05-16T10:58:48Z</time>
      </trkpt>
      <trkpt lat="41.3490170" lon="-8.7402670">
        <ele>2.9</ele>
        <time>2021-05-16T10:58:49Z</time>
      </trkpt>
      <trkpt lat="41.3490260" lon="-8.7402640">
        <ele>2.9</ele>
        <time>2021-05-16T10:58:50Z</time>
      </trkpt>
      <trkpt lat="41.3490440" lon="-8.7402580">
        <ele>2.9</ele>
        <time>2021-05-16T10:58:51Z</time>
      </trkpt>
      <trkpt lat="41.3490540" lon="-8.7402500">
        <ele>2.9</ele>
        <time>2021-05-16T10:58:52Z</time>
      </trkpt>
      <trkpt lat="41.3490660" lon="-8.7402390">
        <ele>2.9</ele>
        <time>2021-05-16T10:58:53Z</time>
      </trkpt>
      <trkpt lat="41.3490820" lon="-8.7402320">
        <ele>2.9</ele>
        <time>2021-05-16T10:58:54Z</time>
      </trkpt>
      <trkpt lat="41.3490960" lon="-8.7402220">
        <ele>2.9</ele>
        <time>2021-05-16T10:58:55Z</time>
      </trkpt>
      <trkpt lat="41.3491110" lon="-8.7402170">
        <ele>2.9</ele>
        <time>2021-05-16T10:58:56Z</time>
      </trkpt>
      <trkpt lat="41.3491230" lon="-8.7402030">
        <ele>2.9</ele>
        <time>2021-05-16T10:58:57Z</time>
      </trkpt>
      <trkpt lat="41.3491370" lon="-8.7401970">
        <ele>2.9</ele>
        <time>2021-05-16T10:58:58Z</time>
      </trkpt>
      <trkpt lat="41.3491460" lon="-8.7401860">
        <ele>2.9</ele>
        <time>2021-05-16T10:58:59Z</time>
      </trkpt>
      <trkpt lat="41.3491580" lon="-8.7401730">
        <ele>2.9</ele>
        <time>2021-05-16T10:59:00Z</time>
      </trkpt>
      <trkpt lat="41.3491620" lon="-8.7401730">
        <ele>2.9</ele>
        <time>2021-05-16T10:59:01Z</time>
      </trkpt>
      <trkpt lat="41.3491740" lon="-8.7401670">
        <ele>2.9</ele>
        <time>2021-05-16T10:59:02Z</time>
      </trkpt>
      <trkpt lat="41.3491850" lon="-8.7401690">
        <ele>2.9</ele>
        <time>2021-05-16T10:59:03Z</time>
      </trkpt>
      <trkpt lat="41.3492000" lon="-8.7401650">
        <ele>2.9</ele>
        <time>2021-05-16T10:59:04Z</time>
      </trkpt>
      <trkpt lat="41.3492050" lon="-8.7401660">
        <ele>2.9</ele>
        <time>2021-05-16T10:59:05Z</time>
      </trkpt>
      <trkpt lat="41.3492130" lon="-8.7401540">
        <ele>2.9</ele>
        <time>2021-05-16T10:59:06Z</time>
      </trkpt>
      <trkpt lat="41.3492360" lon="-8.7401410">
        <ele>2.9</ele>
        <time>2021-05-16T10:59:07Z</time>
      </trkpt>
      <trkpt lat="41.3492430" lon="-8.7401380">
        <ele>2.9</ele>
        <time>2021-05-16T10:59:08Z</time>
      </trkpt>
      <trkpt lat="41.3492490" lon="-8.7401350">
        <ele>2.9</ele>
        <time>2021-05-16T10:59:09Z</time>
      </trkpt>
      <trkpt lat="41.3492620" lon="-8.7401280">
        <ele>2.9</ele>
        <time>2021-05-16T10:59:10Z</time>
      </trkpt>
      <trkpt lat="41.3492740" lon="-8.7401130">
        <ele>2.9</ele>
        <time>2021-05-16T10:59:11Z</time>
      </trkpt>
      <trkpt lat="41.3492860" lon="-8.7401000">
        <ele>2.9</ele>
        <time>2021-05-16T10:59:12Z</time>
      </trkpt>
      <trkpt lat="41.3492870" lon="-8.7401040">
        <ele>2.9</ele>
        <time>2021-05-16T10:59:13Z</time>
      </trkpt>
      <trkpt lat="41.3492920" lon="-8.7401040">
        <ele>2.9</ele>
        <time>2021-05-16T10:59:14Z</time>
      </trkpt>
      <trkpt lat="41.3493030" lon="-8.7400990">
        <ele>2.9</ele>
        <time>2021-05-16T10:59:15Z</time>
      </trkpt>
      <trkpt lat="41.3493180" lon="-8.7400920">
        <ele>2.9</ele>
        <time>2021-05-16T10:59:16Z</time>
      </trkpt>
      <trkpt lat="41.3493270" lon="-8.7400910">
        <ele>2.9</ele>
        <time>2021-05-16T10:59:17Z</time>
      </trkpt>
      <trkpt lat="41.3493350" lon="-8.7400890">
        <ele>2.9</ele>
        <time>2021-05-16T10:59:18Z</time>
      </trkpt>
      <trkpt lat="41.3493440" lon="-8.7400870">
        <ele>2.9</ele>
        <time>2021-05-16T10:59:19Z</time>
      </trkpt>
      <trkpt lat="41.3493640" lon="-8.7400770">
        <ele>2.9</ele>
        <time>2021-05-16T10:59:20Z</time>
      </trkpt>
      <trkpt lat="41.3493730" lon="-8.7400740">
        <ele>2.9</ele>
        <time>2021-05-16T10:59:21Z</time>
      </trkpt>
      <trkpt lat="41.3493830" lon="-8.7400710">
        <ele>3.0</ele>
        <time>2021-05-16T10:59:22Z</time>
      </trkpt>
      <trkpt lat="41.3493910" lon="-8.7400730">
        <ele>3.0</ele>
        <time>2021-05-16T10:59:23Z</time>
      </trkpt>
      <trkpt lat="41.3494090" lon="-8.7400600">
        <ele>3.0</ele>
        <time>2021-05-16T10:59:24Z</time>
      </trkpt>
      <trkpt lat="41.3494290" lon="-8.7400580">
        <ele>3.0</ele>
        <time>2021-05-16T10:59:25Z</time>
      </trkpt>
      <trkpt lat="41.3494380" lon="-8.7400520">
        <ele>3.0</ele>
        <time>2021-05-16T10:59:26Z</time>
      </trkpt>
      <trkpt lat="41.3494480" lon="-8.7400460">
        <ele>3.0</ele>
        <time>2021-05-16T10:59:27Z</time>
      </trkpt>
      <trkpt lat="41.3494520" lon="-8.7400400">
        <ele>3.0</ele>
        <time>2021-05-16T10:59:28Z</time>
      </trkpt>
      <trkpt lat="41.3494660" lon="-8.7400370">
        <ele>3.0</ele>
        <time>2021-05-16T10:59:29Z</time>
      </trkpt>
      <trkpt lat="41.3494780" lon="-8.7400270">
        <ele>3.0</ele>
        <time>2021-05-16T10:59:30Z</time>
      </trkpt>
      <trkpt lat="41.3494920" lon="-8.7400230">
        <ele>3.0</ele>
        <time>2021-05-16T10:59:31Z</time>
      </trkpt>
      <trkpt lat="41.3495090" lon="-8.7400110">
        <ele>3.1</ele>
        <time>2021-05-16T10:59:32Z</time>
      </trkpt>
      <trkpt lat="41.3495300" lon="-8.7399910">
        <ele>3.1</ele>
        <time>2021-05-16T10:59:33Z</time>
      </trkpt>
      <trkpt lat="41.3495390" lon="-8.7399830">
        <ele>3.1</ele>
        <time>2021-05-16T10:59:34Z</time>
      </trkpt>
      <trkpt lat="41.3495490" lon="-8.7399750">
        <ele>3.1</ele>
        <time>2021-05-16T10:59:35Z</time>
      </trkpt>
      <trkpt lat="41.3495620" lon="-8.7399710">
        <ele>3.1</ele>
        <time>2021-05-16T10:59:36Z</time>
      </trkpt>
      <trkpt lat="41.3495760" lon="-8.7399610">
        <ele>3.2</ele>
        <time>2021-05-16T10:59:37Z</time>
      </trkpt>
      <trkpt lat="41.3495920" lon="-8.7399540">
        <ele>3.2</ele>
        <time>2021-05-16T10:59:38Z</time>
      </trkpt>
      <trkpt lat="41.3496070" lon="-8.7399460">
        <ele>3.2</ele>
        <time>2021-05-16T10:59:39Z</time>
      </trkpt>
      <trkpt lat="41.3496260" lon="-8.7399280">
        <ele>3.2</ele>
        <time>2021-05-16T10:59:40Z</time>
      </trkpt>
      <trkpt lat="41.3496320" lon="-8.7399220">
        <ele>3.2</ele>
        <time>2021-05-16T10:59:41Z</time>
      </trkpt>
      <trkpt lat="41.3496390" lon="-8.7399170">
        <ele>3.3</ele>
        <time>2021-05-16T10:59:42Z</time>
      </trkpt>
      <trkpt lat="41.3496540" lon="-8.7399110">
        <ele>3.3</ele>
        <time>2021-05-16T10:59:43Z</time>
      </trkpt>
      <trkpt lat="41.3496660" lon="-8.7398930">
        <ele>3.3</ele>
        <time>2021-05-16T10:59:44Z</time>
      </trkpt>
      <trkpt lat="41.3496740" lon="-8.7398960">
        <ele>3.3</ele>
        <time>2021-05-16T10:59:45Z</time>
      </trkpt>
      <trkpt lat="41.3496890" lon="-8.7398830">
        <ele>3.3</ele>
        <time>2021-05-16T10:59:46Z</time>
      </trkpt>
      <trkpt lat="41.3496950" lon="-8.7398780">
        <ele>3.3</ele>
        <time>2021-05-16T10:59:47Z</time>
      </trkpt>
      <trkpt lat="41.3497150" lon="-8.7398570">
        <ele>3.4</ele>
        <time>2021-05-16T10:59:48Z</time>
      </trkpt>
      <trkpt lat="41.3497230" lon="-8.7398510">
        <ele>3.4</ele>
        <time>2021-05-16T10:59:49Z</time>
      </trkpt>
      <trkpt lat="41.3497300" lon="-8.7398460">
        <ele>3.4</ele>
        <time>2021-05-16T10:59:50Z</time>
      </trkpt>
      <trkpt lat="41.3497570" lon="-8.7398430">
        <ele>3.4</ele>
        <time>2021-05-16T10:59:51Z</time>
      </trkpt>
      <trkpt lat="41.3497670" lon="-8.7398420">
        <ele>3.4</ele>
        <time>2021-05-16T10:59:52Z</time>
      </trkpt>
      <trkpt lat="41.3497870" lon="-8.7398380">
        <ele>3.5</ele>
        <time>2021-05-16T10:59:53Z</time>
      </trkpt>
      <trkpt lat="41.3497970" lon="-8.7398330">
        <ele>3.5</ele>
        <time>2021-05-16T10:59:54Z</time>
      </trkpt>
      <trkpt lat="41.3498060" lon="-8.7398280">
        <ele>3.5</ele>
        <time>2021-05-16T10:59:55Z</time>
      </trkpt>
      <trkpt lat="41.3498180" lon="-8.7398110">
        <ele>3.5</ele>
        <time>2021-05-16T10:59:56Z</time>
      </trkpt>
      <trkpt lat="41.3498280" lon="-8.7398060">
        <ele>3.5</ele>
        <time>2021-05-16T10:59:57Z</time>
      </trkpt>
      <trkpt lat="41.3498450" lon="-8.7397940">
        <ele>3.6</ele>
        <time>2021-05-16T10:59:58Z</time>
      </trkpt>
      <trkpt lat="41.3498530" lon="-8.7397910">
        <ele>3.6</ele>
        <time>2021-05-16T10:59:59Z</time>
      </trkpt>
      <trkpt lat="41.3498620" lon="-8.7397870">
        <ele>3.6</ele>
        <time>2021-05-16T11:00:00Z</time>
      </trkpt>
      <trkpt lat="41.3498810" lon="-8.7397730">
        <ele>3.7</ele>
        <time>2021-05-16T11:00:01Z</time>
      </trkpt>
      <trkpt lat="41.3498880" lon="-8.7397690">
        <ele>3.7</ele>
        <time>2021-05-16T11:00:02Z</time>
      </trkpt>
      <trkpt lat="41.3498950" lon="-8.7397650">
        <ele>3.7</ele>
        <time>2021-05-16T11:00:03Z</time>
      </trkpt>
      <trkpt lat="41.3499010" lon="-8.7397620">
        <ele>3.7</ele>
        <time>2021-05-16T11:00:04Z</time>
      </trkpt>
      <trkpt lat="41.3499130" lon="-8.7397480">
        <ele>3.7</ele>
        <time>2021-05-16T11:00:05Z</time>
      </trkpt>
      <trkpt lat="41.3499250" lon="-8.7397500">
        <ele>3.8</ele>
        <time>2021-05-16T11:00:06Z</time>
      </trkpt>
      <trkpt lat="41.3499320" lon="-8.7397410">
        <ele>3.8</ele>
        <time>2021-05-16T11:00:07Z</time>
      </trkpt>
      <trkpt lat="41.3499380" lon="-8.7397420">
        <ele>3.8</ele>
        <time>2021-05-16T11:00:08Z</time>
      </trkpt>
      <trkpt lat="41.3499460" lon="-8.7397410">
        <ele>3.8</ele>
        <time>2021-05-16T11:00:09Z</time>
      </trkpt>
      <trkpt lat="41.3499540" lon="-8.7397320">
        <ele>3.9</ele>
        <time>2021-05-16T11:00:10Z</time>
      </trkpt>
      <trkpt lat="41.3499790" lon="-8.7396970">
        <ele>4.0</ele>
        <time>2021-05-16T11:00:11Z</time>
      </trkpt>
      <trkpt lat="41.3499850" lon="-8.7396850">
        <ele>4.0</ele>
        <time>2021-05-16T11:00:12Z</time>
      </trkpt>
      <trkpt lat="41.3499980" lon="-8.7396660">
        <ele>4.0</ele>
        <time>2021-05-16T11:00:13Z</time>
      </trkpt>
      <trkpt lat="41.3500120" lon="-8.7396520">
        <ele>4.1</ele>
        <time>2021-05-16T11:00:14Z</time>
      </trkpt>
      <trkpt lat="41.3500170" lon="-8.7396290">
        <ele>4.1</ele>
        <time>2021-05-16T11:00:15Z</time>
      </trkpt>
      <trkpt lat="41.3500240" lon="-8.7396120">
        <ele>4.2</ele>
        <time>2021-05-16T11:00:16Z</time>
      </trkpt>
      <trkpt lat="41.3500330" lon="-8.7395950">
        <ele>4.2</ele>
        <time>2021-05-16T11:00:17Z</time>
      </trkpt>
      <trkpt lat="41.3500440" lon="-8.7395840">
        <ele>4.2</ele>
        <time>2021-05-16T11:00:18Z</time>
      </trkpt>
      <trkpt lat="41.3500500" lon="-8.7395780">
        <ele>4.3</ele>
        <time>2021-05-16T11:00:19Z</time>
      </trkpt>
      <trkpt lat="41.3500530" lon="-8.7395650">
        <ele>4.3</ele>
        <time>2021-05-16T11:00:20Z</time>
      </trkpt>
      <trkpt lat="41.3500640" lon="-8.7395540">
        <ele>4.3</ele>
        <time>2021-05-16T11:00:21Z</time>
      </trkpt>
      <trkpt lat="41.3500700" lon="-8.7395440">
        <ele>4.3</ele>
        <time>2021-05-16T11:00:22Z</time>
      </trkpt>
      <trkpt lat="41.3500810" lon="-8.7395250">
        <ele>4.3</ele>
        <time>2021-05-16T11:00:23Z</time>
      </trkpt>
      <trkpt lat="41.3500910" lon="-8.7395130">
        <ele>4.3</ele>
        <time>2021-05-16T11:00:24Z</time>
      </trkpt>
      <trkpt lat="41.3500990" lon="-8.7394930">
        <ele>4.4</ele>
        <time>2021-05-16T11:00:25Z</time>
      </trkpt>
      <trkpt lat="41.3501140" lon="-8.7394790">
        <ele>4.4</ele>
        <time>2021-05-16T11:00:26Z</time>
      </trkpt>
      <trkpt lat="41.3501290" lon="-8.7394670">
        <ele>4.4</ele>
        <time>2021-05-16T11:00:27Z</time>
      </trkpt>
      <trkpt lat="41.3501260" lon="-8.7394730">
        <ele>4.4</ele>
        <time>2021-05-16T11:00:28Z</time>
      </trkpt>
      <trkpt lat="41.3501290" lon="-8.7394770">
        <ele>4.4</ele>
        <time>2021-05-16T11:00:29Z</time>
      </trkpt>
      <trkpt lat="41.3501270" lon="-8.7394790">
        <ele>4.4</ele>
        <time>2021-05-16T11:00:30Z</time>
      </trkpt>
      <trkpt lat="41.3501220" lon="-8.7394760">
        <ele>4.4</ele>
        <time>2021-05-16T11:00:31Z</time>
      </trkpt>
      <trkpt lat="41.3501210" lon="-8.7394770">
        <ele>4.4</ele>
        <time>2021-05-16T11:00:32Z</time>
      </trkpt>
      <trkpt lat="41.3501280" lon="-8.7394770">
        <ele>4.4</ele>
        <time>2021-05-16T11:00:33Z</time>
      </trkpt>
      <trkpt lat="41.3501280" lon="-8.7394860">
        <ele>4.5</ele>
        <time>2021-05-16T11:00:34Z</time>
      </trkpt>
      <trkpt lat="41.3501310" lon="-8.7394900">
        <ele>4.5</ele>
        <time>2021-05-16T11:00:35Z</time>
      </trkpt>
      <trkpt lat="41.3501320" lon="-8.7394960">
        <ele>4.5</ele>
        <time>2021-05-16T11:00:36Z</time>
      </trkpt>
      <trkpt lat="41.3501310" lon="-8.7395020">
        <ele>4.5</ele>
        <time>2021-05-16T11:00:37Z</time>
      </trkpt>
      <trkpt lat="41.3501300" lon="-8.7395100">
        <ele>4.5</ele>
        <time>2021-05-16T11:00:38Z</time>
      </trkpt>
      <trkpt lat="41.3501190" lon="-8.7395240">
        <ele>4.5</ele>
        <time>2021-05-16T11:00:39Z</time>
      </trkpt>
      <trkpt lat="41.3501080" lon="-8.7395370">
        <ele>4.5</ele>
        <time>2021-05-16T11:00:40Z</time>
      </trkpt>
      <trkpt lat="41.3500970" lon="-8.7395500">
        <ele>4.5</ele>
        <time>2021-05-16T11:00:41Z</time>
      </trkpt>
      <trkpt lat="41.3500910" lon="-8.7395650">
        <ele>4.6</ele>
        <time>2021-05-16T11:00:42Z</time>
      </trkpt>
      <trkpt lat="41.3500880" lon="-8.7395720">
        <ele>4.6</ele>
        <time>2021-05-16T11:00:43Z</time>
      </trkpt>
      <trkpt lat="41.3500870" lon="-8.7395780">
        <ele>4.6</ele>
        <time>2021-05-16T11:00:44Z</time>
      </trkpt>
      <trkpt lat="41.3500950" lon="-8.7395740">
        <ele>4.6</ele>
        <time>2021-05-16T11:00:45Z</time>
      </trkpt>
      <trkpt lat="41.3500960" lon="-8.7395750">
        <ele>4.6</ele>
        <time>2021-05-16T11:00:46Z</time>
      </trkpt>
      <trkpt lat="41.3500970" lon="-8.7395760">
        <ele>4.6</ele>
        <time>2021-05-16T11:00:47Z</time>
      </trkpt>
      <trkpt lat="41.3500960" lon="-8.7395780">
        <ele>4.6</ele>
        <time>2021-05-16T11:00:48Z</time>
      </trkpt>
      <trkpt lat="41.3501010" lon="-8.7395770">
        <ele>4.6</ele>
        <time>2021-05-16T11:00:49Z</time>
      </trkpt>
      <trkpt lat="41.3500990" lon="-8.7395930">
        <ele>4.6</ele>
        <time>2021-05-16T11:00:50Z</time>
      </trkpt>
      <trkpt lat="41.3500990" lon="-8.7395950">
        <ele>4.6</ele>
        <time>2021-05-16T11:00:51Z</time>
      </trkpt>
      <trkpt lat="41.3501000" lon="-8.7395940">
        <ele>4.6</ele>
        <time>2021-05-16T11:00:52Z</time>
      </trkpt>
      <trkpt lat="41.3500970" lon="-8.7395940">
        <ele>4.6</ele>
        <time>2021-05-16T11:00:53Z</time>
      </trkpt>
      <trkpt lat="41.3501000" lon="-8.7395950">
        <ele>4.6</ele>
        <time>2021-05-16T11:00:54Z</time>
      </trkpt>
      <trkpt lat="41.3501030" lon="-8.7395870">
        <ele>4.6</ele>
        <time>2021-05-16T11:00:55Z</time>
      </trkpt>
      <trkpt lat="41.3501070" lon="-8.7395870">
        <ele>4.6</ele>
        <time>2021-05-16T11:00:56Z</time>
      </trkpt>
      <trkpt lat="41.3501060" lon="-8.7395900">
        <ele>4.6</ele>
        <time>2021-05-16T11:00:57Z</time>
      </trkpt>
      <trkpt lat="41.3501090" lon="-8.7395960">
        <ele>4.6</ele>
        <time>2021-05-16T11:00:58Z</time>
      </trkpt>
      <trkpt lat="41.3501130" lon="-8.7395960">
        <ele>4.6</ele>
        <time>2021-05-16T11:00:59Z</time>
      </trkpt>
      <trkpt lat="41.3501130" lon="-8.7395960">
        <ele>4.6</ele>
        <time>2021-05-16T11:01:00Z</time>
      </trkpt>
      <trkpt lat="41.3501140" lon="-8.7395950">
        <ele>4.6</ele>
        <time>2021-05-16T11:01:01Z</time>
      </trkpt>
      <trkpt lat="41.3501140" lon="-8.7395960">
        <ele>4.6</ele>
        <time>2021-05-16T11:01:02Z</time>
      </trkpt>
      <trkpt lat="41.3501230" lon="-8.7395920">
        <ele>4.7</ele>
        <time>2021-05-16T11:01:03Z</time>
      </trkpt>
      <trkpt lat="41.3501250" lon="-8.7395890">
        <ele>4.7</ele>
        <time>2021-05-16T11:01:04Z</time>
      </trkpt>
      <trkpt lat="41.3501220" lon="-8.7395840">
        <ele>4.7</ele>
        <time>2021-05-16T11:01:05Z</time>
      </trkpt>
      <trkpt lat="41.3501240" lon="-8.7395740">
        <ele>4.7</ele>
        <time>2021-05-16T11:01:06Z</time>
      </trkpt>
      <trkpt lat="41.3501280" lon="-8.7395680">
        <ele>4.7</ele>
        <time>2021-05-16T11:01:07Z</time>
      </trkpt>
      <trkpt lat="41.3501430" lon="-8.7395480">
        <ele>4.7</ele>
        <time>2021-05-16T11:01:08Z</time>
      </trkpt>
      <trkpt lat="41.3501420" lon="-8.7395300">
        <ele>4.7</ele>
        <time>2021-05-16T11:01:09Z</time>
      </trkpt>
      <trkpt lat="41.3501560" lon="-8.7395110">
        <ele>4.7</ele>
        <time>2021-05-16T11:01:10Z</time>
      </trkpt>
      <trkpt lat="41.3501580" lon="-8.7395030">
        <ele>4.7</ele>
        <time>2021-05-16T11:01:11Z</time>
      </trkpt>
      <trkpt lat="41.3501610" lon="-8.7394940">
        <ele>4.7</ele>
        <time>2021-05-16T11:01:12Z</time>
      </trkpt>
      <trkpt lat="41.3501630" lon="-8.7394850">
        <ele>4.8</ele>
        <time>2021-05-16T11:01:13Z</time>
      </trkpt>
      <trkpt lat="41.3501700" lon="-8.7394740">
        <ele>4.8</ele>
        <time>2021-05-16T11:01:14Z</time>
      </trkpt>
      <trkpt lat="41.3501760" lon="-8.7394500">
        <ele>4.8</ele>
        <time>2021-05-16T11:01:15Z</time>
      </trkpt>
      <trkpt lat="41.3501780" lon="-8.7394390">
        <ele>4.8</ele>
        <time>2021-05-16T11:01:16Z</time>
      </trkpt>
      <trkpt lat="41.3501830" lon="-8.7394260">
        <ele>4.8</ele>
        <time>2021-05-16T11:01:17Z</time>
      </trkpt>
      <trkpt lat="41.3501810" lon="-8.7394080">
        <ele>4.8</ele>
        <time>2021-05-16T11:01:18Z</time>
      </trkpt>
      <trkpt lat="41.3501830" lon="-8.7393850">
        <ele>4.8</ele>
        <time>2021-05-16T11:01:19Z</time>
      </trkpt>
      <trkpt lat="41.3501860" lon="-8.7393690">
        <ele>4.8</ele>
        <time>2021-05-16T11:01:20Z</time>
      </trkpt>
      <trkpt lat="41.3501870" lon="-8.7393500">
        <ele>4.8</ele>
        <time>2021-05-16T11:01:21Z</time>
      </trkpt>
      <trkpt lat="41.3501940" lon="-8.7393230">
        <ele>4.9</ele>
        <time>2021-05-16T11:01:22Z</time>
      </trkpt>
      <trkpt lat="41.3501950" lon="-8.7393000">
        <ele>4.9</ele>
        <time>2021-05-16T11:01:23Z</time>
      </trkpt>
      <trkpt lat="41.3501980" lon="-8.7392830">
        <ele>4.9</ele>
        <time>2021-05-16T11:01:24Z</time>
      </trkpt>
      <trkpt lat="41.3502100" lon="-8.7392600">
        <ele>4.9</ele>
        <time>2021-05-16T11:01:25Z</time>
      </trkpt>
      <trkpt lat="41.3502150" lon="-8.7392490">
        <ele>4.9</ele>
        <time>2021-05-16T11:01:26Z</time>
      </trkpt>
      <trkpt lat="41.3502210" lon="-8.7392390">
        <ele>4.9</ele>
        <time>2021-05-16T11:01:27Z</time>
      </trkpt>
      <trkpt lat="41.3502330" lon="-8.7392190">
        <ele>5.0</ele>
        <time>2021-05-16T11:01:28Z</time>
      </trkpt>
      <trkpt lat="41.3502400" lon="-8.7392090">
        <ele>5.1</ele>
        <time>2021-05-16T11:01:29Z</time>
      </trkpt>
      <trkpt lat="41.3502460" lon="-8.7391990">
        <ele>5.1</ele>
        <time>2021-05-16T11:01:30Z</time>
      </trkpt>
      <trkpt lat="41.3502530" lon="-8.7391880">
        <ele>5.2</ele>
        <time>2021-05-16T11:01:31Z</time>
      </trkpt>
      <trkpt lat="41.3502580" lon="-8.7391790">
        <ele>5.2</ele>
        <time>2021-05-16T11:01:32Z</time>
      </trkpt>
      <trkpt lat="41.3502660" lon="-8.7391660">
        <ele>5.3</ele>
        <time>2021-05-16T11:01:33Z</time>
      </trkpt>
      <trkpt lat="41.3502730" lon="-8.7391520">
        <ele>5.4</ele>
        <time>2021-05-16T11:01:34Z</time>
      </trkpt>
      <trkpt lat="41.3502800" lon="-8.7391300">
        <ele>5.5</ele>
        <time>2021-05-16T11:01:35Z</time>
      </trkpt>
      <trkpt lat="41.3502830" lon="-8.7391240">
        <ele>5.5</ele>
        <time>2021-05-16T11:01:36Z</time>
      </trkpt>
      <trkpt lat="41.3502910" lon="-8.7391150">
        <ele>5.5</ele>
        <time>2021-05-16T11:01:37Z</time>
      </trkpt>
      <trkpt lat="41.3502970" lon="-8.7391030">
        <ele>5.6</ele>
        <time>2021-05-16T11:01:38Z</time>
      </trkpt>
      <trkpt lat="41.3503030" lon="-8.7390930">
        <ele>5.7</ele>
        <time>2021-05-16T11:01:39Z</time>
      </trkpt>
      <trkpt lat="41.3503080" lon="-8.7390810">
        <ele>5.7</ele>
        <time>2021-05-16T11:01:40Z</time>
      </trkpt>
      <trkpt lat="41.3503130" lon="-8.7390680">
        <ele>5.8</ele>
        <time>2021-05-16T11:01:41Z</time>
      </trkpt>
      <trkpt lat="41.3503130" lon="-8.7390620">
        <ele>5.8</ele>
        <time>2021-05-16T11:01:42Z</time>
      </trkpt>
      <trkpt lat="41.3503140" lon="-8.7390560">
        <ele>5.8</ele>
        <time>2021-05-16T11:01:43Z</time>
      </trkpt>
      <trkpt lat="41.3503200" lon="-8.7390570">
        <ele>5.9</ele>
        <time>2021-05-16T11:01:44Z</time>
      </trkpt>
      <trkpt lat="41.3503250" lon="-8.7390530">
        <ele>5.9</ele>
        <time>2021-05-16T11:01:45Z</time>
      </trkpt>
      <trkpt lat="41.3503370" lon="-8.7390340">
        <ele>6.0</ele>
        <time>2021-05-16T11:01:46Z</time>
      </trkpt>
      <trkpt lat="41.3503400" lon="-8.7390160">
        <ele>6.2</ele>
        <time>2021-05-16T11:01:47Z</time>
      </trkpt>
      <trkpt lat="41.3503370" lon="-8.7390100">
        <ele>6.2</ele>
        <time>2021-05-16T11:01:48Z</time>
      </trkpt>
      <trkpt lat="41.3503400" lon="-8.7390030">
        <ele>6.3</ele>
        <time>2021-05-16T11:01:49Z</time>
      </trkpt>
      <trkpt lat="41.3503630" lon="-8.7390000">
        <ele>6.8</ele>
        <time>2021-05-16T11:01:50Z</time>
      </trkpt>
      <trkpt lat="41.3503770" lon="-8.7389940">
        <ele>6.7</ele>
        <time>2021-05-16T11:01:51Z</time>
      </trkpt>
      <trkpt lat="41.3503900" lon="-8.7389830">
        <ele>6.7</ele>
        <time>2021-05-16T11:01:52Z</time>
      </trkpt>
      <trkpt lat="41.3504020" lon="-8.7389790">
        <ele>6.7</ele>
        <time>2021-05-16T11:01:53Z</time>
      </trkpt>
      <trkpt lat="41.3504230" lon="-8.7389760">
        <ele>6.7</ele>
        <time>2021-05-16T11:01:54Z</time>
      </trkpt>
      <trkpt lat="41.3504420" lon="-8.7389810">
        <ele>6.7</ele>
        <time>2021-05-16T11:01:55Z</time>
      </trkpt>
      <trkpt lat="41.3504520" lon="-8.7389960">
        <ele>6.7</ele>
        <time>2021-05-16T11:01:56Z</time>
      </trkpt>
      <trkpt lat="41.3504650" lon="-8.7390180">
        <ele>6.7</ele>
        <time>2021-05-16T11:01:57Z</time>
      </trkpt>
      <trkpt lat="41.3504790" lon="-8.7390270">
        <ele>6.7</ele>
        <time>2021-05-16T11:01:58Z</time>
      </trkpt>
      <trkpt lat="41.3504920" lon="-8.7390390">
        <ele>6.7</ele>
        <time>2021-05-16T11:01:59Z</time>
      </trkpt>
      <trkpt lat="41.3505070" lon="-8.7390430">
        <ele>6.7</ele>
        <time>2021-05-16T11:02:00Z</time>
      </trkpt>
      <trkpt lat="41.3505160" lon="-8.7390470">
        <ele>6.7</ele>
        <time>2021-05-16T11:02:01Z</time>
      </trkpt>
      <trkpt lat="41.3505300" lon="-8.7390480">
        <ele>6.7</ele>
        <time>2021-05-16T11:02:02Z</time>
      </trkpt>
      <trkpt lat="41.3505390" lon="-8.7390490">
        <ele>6.7</ele>
        <time>2021-05-16T11:02:03Z</time>
      </trkpt>
      <trkpt lat="41.3505560" lon="-8.7390540">
        <ele>6.7</ele>
        <time>2021-05-16T11:02:04Z</time>
      </trkpt>
      <trkpt lat="41.3505680" lon="-8.7390590">
        <ele>6.7</ele>
        <time>2021-05-16T11:02:05Z</time>
      </trkpt>
      <trkpt lat="41.3505800" lon="-8.7390630">
        <ele>6.6</ele>
        <time>2021-05-16T11:02:06Z</time>
      </trkpt>
      <trkpt lat="41.3506000" lon="-8.7390760">
        <ele>6.6</ele>
        <time>2021-05-16T11:02:07Z</time>
      </trkpt>
      <trkpt lat="41.3506080" lon="-8.7390840">
        <ele>6.6</ele>
        <time>2021-05-16T11:02:08Z</time>
      </trkpt>
      <trkpt lat="41.3506170" lon="-8.7390910">
        <ele>6.6</ele>
        <time>2021-05-16T11:02:09Z</time>
      </trkpt>
      <trkpt lat="41.3506320" lon="-8.7391020">
        <ele>6.6</ele>
        <time>2021-05-16T11:02:10Z</time>
      </trkpt>
      <trkpt lat="41.3506430" lon="-8.7391090">
        <ele>6.6</ele>
        <time>2021-05-16T11:02:11Z</time>
      </trkpt>
      <trkpt lat="41.3506550" lon="-8.7391210">
        <ele>6.6</ele>
        <time>2021-05-16T11:02:12Z</time>
      </trkpt>
      <trkpt lat="41.3506700" lon="-8.7391300">
        <ele>6.6</ele>
        <time>2021-05-16T11:02:13Z</time>
      </trkpt>
      <trkpt lat="41.3506780" lon="-8.7391380">
        <ele>6.6</ele>
        <time>2021-05-16T11:02:14Z</time>
      </trkpt>
      <trkpt lat="41.3506850" lon="-8.7391400">
        <ele>6.6</ele>
        <time>2021-05-16T11:02:15Z</time>
      </trkpt>
      <trkpt lat="41.3506980" lon="-8.7391500">
        <ele>6.6</ele>
        <time>2021-05-16T11:02:16Z</time>
      </trkpt>
      <trkpt lat="41.3507190" lon="-8.7391660">
        <ele>6.6</ele>
        <time>2021-05-16T11:02:17Z</time>
      </trkpt>
      <trkpt lat="41.3507260" lon="-8.7391730">
        <ele>6.6</ele>
        <time>2021-05-16T11:02:18Z</time>
      </trkpt>
      <trkpt lat="41.3507340" lon="-8.7391800">
        <ele>6.6</ele>
        <time>2021-05-16T11:02:19Z</time>
      </trkpt>
      <trkpt lat="41.3507380" lon="-8.7391840">
        <ele>6.6</ele>
        <time>2021-05-16T11:02:20Z</time>
      </trkpt>
      <trkpt lat="41.3507500" lon="-8.7391910">
        <ele>6.6</ele>
        <time>2021-05-16T11:02:21Z</time>
      </trkpt>
      <trkpt lat="41.3507650" lon="-8.7391970">
        <ele>6.6</ele>
        <time>2021-05-16T11:02:22Z</time>
      </trkpt>
      <trkpt lat="41.3507790" lon="-8.7392060">
        <ele>6.6</ele>
        <time>2021-05-16T11:02:23Z</time>
      </trkpt>
      <trkpt lat="41.3507840" lon="-8.7392140">
        <ele>6.6</ele>
        <time>2021-05-16T11:02:24Z</time>
      </trkpt>
      <trkpt lat="41.3507890" lon="-8.7392200">
        <ele>6.6</ele>
        <time>2021-05-16T11:02:25Z</time>
      </trkpt>
      <trkpt lat="41.3507980" lon="-8.7392250">
        <ele>6.6</ele>
        <time>2021-05-16T11:02:26Z</time>
      </trkpt>
      <trkpt lat="41.3508060" lon="-8.7392290">
        <ele>6.6</ele>
        <time>2021-05-16T11:02:27Z</time>
      </trkpt>
      <trkpt lat="41.3508150" lon="-8.7392340">
        <ele>6.6</ele>
        <time>2021-05-16T11:02:28Z</time>
      </trkpt>
      <trkpt lat="41.3508330" lon="-8.7392480">
        <ele>6.6</ele>
        <time>2021-05-16T11:02:29Z</time>
      </trkpt>
      <trkpt lat="41.3508410" lon="-8.7392550">
        <ele>6.6</ele>
        <time>2021-05-16T11:02:30Z</time>
      </trkpt>
      <trkpt lat="41.3508490" lon="-8.7392620">
        <ele>6.6</ele>
        <time>2021-05-16T11:02:31Z</time>
      </trkpt>
      <trkpt lat="41.3508690" lon="-8.7392720">
        <ele>6.6</ele>
        <time>2021-05-16T11:02:32Z</time>
      </trkpt>
      <trkpt lat="41.3508800" lon="-8.7392740">
        <ele>6.6</ele>
        <time>2021-05-16T11:02:33Z</time>
      </trkpt>
      <trkpt lat="41.3508990" lon="-8.7392870">
        <ele>6.6</ele>
        <time>2021-05-16T11:02:34Z</time>
      </trkpt>
      <trkpt lat="41.3509070" lon="-8.7392920">
        <ele>6.6</ele>
        <time>2021-05-16T11:02:35Z</time>
      </trkpt>
      <trkpt lat="41.3509150" lon="-8.7392980">
        <ele>6.6</ele>
        <time>2021-05-16T11:02:36Z</time>
      </trkpt>
      <trkpt lat="41.3509280" lon="-8.7393010">
        <ele>6.6</ele>
        <time>2021-05-16T11:02:37Z</time>
      </trkpt>
      <trkpt lat="41.3509460" lon="-8.7393050">
        <ele>6.6</ele>
        <time>2021-05-16T11:02:38Z</time>
      </trkpt>
      <trkpt lat="41.3509640" lon="-8.7393200">
        <ele>6.6</ele>
        <time>2021-05-16T11:02:39Z</time>
      </trkpt>
      <trkpt lat="41.3509720" lon="-8.7393250">
        <ele>6.6</ele>
        <time>2021-05-16T11:02:40Z</time>
      </trkpt>
      <trkpt lat="41.3509810" lon="-8.7393290">
        <ele>6.6</ele>
        <time>2021-05-16T11:02:41Z</time>
      </trkpt>
      <trkpt lat="41.3510030" lon="-8.7393360">
        <ele>6.6</ele>
        <time>2021-05-16T11:02:42Z</time>
      </trkpt>
      <trkpt lat="41.3510120" lon="-8.7393380">
        <ele>6.6</ele>
        <time>2021-05-16T11:02:43Z</time>
      </trkpt>
      <trkpt lat="41.3510200" lon="-8.7393410">
        <ele>6.6</ele>
        <time>2021-05-16T11:02:44Z</time>
      </trkpt>
      <trkpt lat="41.3510360" lon="-8.7393470">
        <ele>6.6</ele>
        <time>2021-05-16T11:02:45Z</time>
      </trkpt>
      <trkpt lat="41.3510400" lon="-8.7393470">
        <ele>6.6</ele>
        <time>2021-05-16T11:02:46Z</time>
      </trkpt>
      <trkpt lat="41.3510550" lon="-8.7393520">
        <ele>6.6</ele>
        <time>2021-05-16T11:02:47Z</time>
      </trkpt>
      <trkpt lat="41.3510660" lon="-8.7393620">
        <ele>6.6</ele>
        <time>2021-05-16T11:02:48Z</time>
      </trkpt>
      <trkpt lat="41.3510830" lon="-8.7393660">
        <ele>6.6</ele>
        <time>2021-05-16T11:02:49Z</time>
      </trkpt>
      <trkpt lat="41.3510940" lon="-8.7393720">
        <ele>6.6</ele>
        <time>2021-05-16T11:02:50Z</time>
      </trkpt>
      <trkpt lat="41.3511040" lon="-8.7393710">
        <ele>6.6</ele>
        <time>2021-05-16T11:02:51Z</time>
      </trkpt>
      <trkpt lat="41.3511170" lon="-8.7393750">
        <ele>6.6</ele>
        <time>2021-05-16T11:02:52Z</time>
      </trkpt>
      <trkpt lat="41.3511300" lon="-8.7393830">
        <ele>6.6</ele>
        <time>2021-05-16T11:02:53Z</time>
      </trkpt>
      <trkpt lat="41.3511420" lon="-8.7393900">
        <ele>6.6</ele>
        <time>2021-05-16T11:02:54Z</time>
      </trkpt>
      <trkpt lat="41.3511540" lon="-8.7393990">
        <ele>6.6</ele>
        <time>2021-05-16T11:02:55Z</time>
      </trkpt>
      <trkpt lat="41.3511700" lon="-8.7394070">
        <ele>6.5</ele>
        <time>2021-05-16T11:02:56Z</time>
      </trkpt>
      <trkpt lat="41.3511760" lon="-8.7394170">
        <ele>6.5</ele>
        <time>2021-05-16T11:02:57Z</time>
      </trkpt>
      <trkpt lat="41.3511840" lon="-8.7394260">
        <ele>6.5</ele>
        <time>2021-05-16T11:02:58Z</time>
      </trkpt>
      <trkpt lat="41.3511860" lon="-8.7394290">
        <ele>6.5</ele>
        <time>2021-05-16T11:02:59Z</time>
      </trkpt>
      <trkpt lat="41.3511970" lon="-8.7394350">
        <ele>6.5</ele>
        <time>2021-05-16T11:03:00Z</time>
      </trkpt>
      <trkpt lat="41.3512190" lon="-8.7394440">
        <ele>6.5</ele>
        <time>2021-05-16T11:03:01Z</time>
      </trkpt>
      <trkpt lat="41.3512290" lon="-8.7394480">
        <ele>6.5</ele>
        <time>2021-05-16T11:03:02Z</time>
      </trkpt>
      <trkpt lat="41.3512400" lon="-8.7394510">
        <ele>6.5</ele>
        <time>2021-05-16T11:03:03Z</time>
      </trkpt>
      <trkpt lat="41.3512570" lon="-8.7394600">
        <ele>6.5</ele>
        <time>2021-05-16T11:03:04Z</time>
      </trkpt>
      <trkpt lat="41.3512710" lon="-8.7394670">
        <ele>6.5</ele>
        <time>2021-05-16T11:03:05Z</time>
      </trkpt>
      <trkpt lat="41.3512880" lon="-8.7394830">
        <ele>6.5</ele>
        <time>2021-05-16T11:03:06Z</time>
      </trkpt>
      <trkpt lat="41.3512970" lon="-8.7394870">
        <ele>6.5</ele>
        <time>2021-05-16T11:03:07Z</time>
      </trkpt>
      <trkpt lat="41.3513050" lon="-8.7394900">
        <ele>6.5</ele>
        <time>2021-05-16T11:03:08Z</time>
      </trkpt>
      <trkpt lat="41.3513190" lon="-8.7394970">
        <ele>6.5</ele>
        <time>2021-05-16T11:03:09Z</time>
      </trkpt>
      <trkpt lat="41.3513360" lon="-8.7395040">
        <ele>6.5</ele>
        <time>2021-05-16T11:03:10Z</time>
      </trkpt>
      <trkpt lat="41.3513490" lon="-8.7395070">
        <ele>6.5</ele>
        <time>2021-05-16T11:03:11Z</time>
      </trkpt>
      <trkpt lat="41.3513660" lon="-8.7395120">
        <ele>6.5</ele>
        <time>2021-05-16T11:03:12Z</time>
      </trkpt>
      <trkpt lat="41.3513860" lon="-8.7395220">
        <ele>6.5</ele>
        <time>2021-05-16T11:03:13Z</time>
      </trkpt>
      <trkpt lat="41.3513940" lon="-8.7395270">
        <ele>6.5</ele>
        <time>2021-05-16T11:03:14Z</time>
      </trkpt>
      <trkpt lat="41.3514010" lon="-8.7395330">
        <ele>6.4</ele>
        <time>2021-05-16T11:03:15Z</time>
      </trkpt>
      <trkpt lat="41.3514190" lon="-8.7395480">
        <ele>6.4</ele>
        <time>2021-05-16T11:03:16Z</time>
      </trkpt>
      <trkpt lat="41.3514260" lon="-8.7395520">
        <ele>6.4</ele>
        <time>2021-05-16T11:03:17Z</time>
      </trkpt>
      <trkpt lat="41.3514330" lon="-8.7395570">
        <ele>6.4</ele>
        <time>2021-05-16T11:03:18Z</time>
      </trkpt>
      <trkpt lat="41.3514470" lon="-8.7395660">
        <ele>6.4</ele>
        <time>2021-05-16T11:03:19Z</time>
      </trkpt>
      <trkpt lat="41.3514600" lon="-8.7395730">
        <ele>6.4</ele>
        <time>2021-05-16T11:03:20Z</time>
      </trkpt>
      <trkpt lat="41.3514740" lon="-8.7395730">
        <ele>6.4</ele>
        <time>2021-05-16T11:03:21Z</time>
      </trkpt>
      <trkpt lat="41.3514880" lon="-8.7395780">
        <ele>6.4</ele>
        <time>2021-05-16T11:03:22Z</time>
      </trkpt>
      <trkpt lat="41.3515010" lon="-8.7395850">
        <ele>6.4</ele>
        <time>2021-05-16T11:03:23Z</time>
      </trkpt>
      <trkpt lat="41.3515140" lon="-8.7395920">
        <ele>6.4</ele>
        <time>2021-05-16T11:03:24Z</time>
      </trkpt>
      <trkpt lat="41.3515260" lon="-8.7395980">
        <ele>6.4</ele>
        <time>2021-05-16T11:03:25Z</time>
      </trkpt>
      <trkpt lat="41.3515340" lon="-8.7396040">
        <ele>6.3</ele>
        <time>2021-05-16T11:03:26Z</time>
      </trkpt>
      <trkpt lat="41.3515460" lon="-8.7396110">
        <ele>6.3</ele>
        <time>2021-05-16T11:03:27Z</time>
      </trkpt>
      <trkpt lat="41.3515620" lon="-8.7396130">
        <ele>6.3</ele>
        <time>2021-05-16T11:03:28Z</time>
      </trkpt>
      <trkpt lat="41.3515770" lon="-8.7396190">
        <ele>6.3</ele>
        <time>2021-05-16T11:03:29Z</time>
      </trkpt>
      <trkpt lat="41.3515940" lon="-8.7396350">
        <ele>6.3</ele>
        <time>2021-05-16T11:03:30Z</time>
      </trkpt>
      <trkpt lat="41.3515990" lon="-8.7396390">
        <ele>6.3</ele>
        <time>2021-05-16T11:03:31Z</time>
      </trkpt>
      <trkpt lat="41.3516040" lon="-8.7396440">
        <ele>6.3</ele>
        <time>2021-05-16T11:03:32Z</time>
      </trkpt>
      <trkpt lat="41.3516090" lon="-8.7396480">
        <ele>6.3</ele>
        <time>2021-05-16T11:03:33Z</time>
      </trkpt>
      <trkpt lat="41.3516230" lon="-8.7396500">
        <ele>6.3</ele>
        <time>2021-05-16T11:03:34Z</time>
      </trkpt>
      <trkpt lat="41.3516400" lon="-8.7396540">
        <ele>6.3</ele>
        <time>2021-05-16T11:03:35Z</time>
      </trkpt>
      <trkpt lat="41.3516540" lon="-8.7396570">
        <ele>6.3</ele>
        <time>2021-05-16T11:03:36Z</time>
      </trkpt>
      <trkpt lat="41.3516680" lon="-8.7396600">
        <ele>6.2</ele>
        <time>2021-05-16T11:03:37Z</time>
      </trkpt>
      <trkpt lat="41.3516880" lon="-8.7396660">
        <ele>6.2</ele>
        <time>2021-05-16T11:03:38Z</time>
      </trkpt>
      <trkpt lat="41.3516960" lon="-8.7396690">
        <ele>6.2</ele>
        <time>2021-05-16T11:03:39Z</time>
      </trkpt>
      <trkpt lat="41.3517030" lon="-8.7396720">
        <ele>6.2</ele>
        <time>2021-05-16T11:03:40Z</time>
      </trkpt>
      <trkpt lat="41.3517230" lon="-8.7396800">
        <ele>6.2</ele>
        <time>2021-05-16T11:03:41Z</time>
      </trkpt>
      <trkpt lat="41.3517320" lon="-8.7396890">
        <ele>6.2</ele>
        <time>2021-05-16T11:03:42Z</time>
      </trkpt>
      <trkpt lat="41.3517460" lon="-8.7396930">
        <ele>6.2</ele>
        <time>2021-05-16T11:03:43Z</time>
      </trkpt>
      <trkpt lat="41.3517640" lon="-8.7396960">
        <ele>6.1</ele>
        <time>2021-05-16T11:03:44Z</time>
      </trkpt>
      <trkpt lat="41.3517790" lon="-8.7397080">
        <ele>6.1</ele>
        <time>2021-05-16T11:03:45Z</time>
      </trkpt>
      <trkpt lat="41.3517900" lon="-8.7397110">
        <ele>6.1</ele>
        <time>2021-05-16T11:03:46Z</time>
      </trkpt>
      <trkpt lat="41.3518050" lon="-8.7397160">
        <ele>6.1</ele>
        <time>2021-05-16T11:03:47Z</time>
      </trkpt>
      <trkpt lat="41.3518210" lon="-8.7397240">
        <ele>6.1</ele>
        <time>2021-05-16T11:03:48Z</time>
      </trkpt>
      <trkpt lat="41.3518300" lon="-8.7397290">
        <ele>6.1</ele>
        <time>2021-05-16T11:03:49Z</time>
      </trkpt>
      <trkpt lat="41.3518420" lon="-8.7397340">
        <ele>6.1</ele>
        <time>2021-05-16T11:03:50Z</time>
      </trkpt>
      <trkpt lat="41.3518510" lon="-8.7397410">
        <ele>6.1</ele>
        <time>2021-05-16T11:03:51Z</time>
      </trkpt>
      <trkpt lat="41.3518550" lon="-8.7397490">
        <ele>6.1</ele>
        <time>2021-05-16T11:03:52Z</time>
      </trkpt>
      <trkpt lat="41.3518650" lon="-8.7397520">
        <ele>6.1</ele>
        <time>2021-05-16T11:03:53Z</time>
      </trkpt>
      <trkpt lat="41.3518760" lon="-8.7397580">
        <ele>6.1</ele>
        <time>2021-05-16T11:03:54Z</time>
      </trkpt>
      <trkpt lat="41.3518860" lon="-8.7397610">
        <ele>6.0</ele>
        <time>2021-05-16T11:03:55Z</time>
      </trkpt>
      <trkpt lat="41.3519000" lon="-8.7397730">
        <ele>6.0</ele>
        <time>2021-05-16T11:03:56Z</time>
      </trkpt>
      <trkpt lat="41.3519080" lon="-8.7397810">
        <ele>6.0</ele>
        <time>2021-05-16T11:03:57Z</time>
      </trkpt>
      <trkpt lat="41.3519170" lon="-8.7397880">
        <ele>6.0</ele>
        <time>2021-05-16T11:03:58Z</time>
      </trkpt>
      <trkpt lat="41.3519240" lon="-8.7397930">
        <ele>6.0</ele>
        <time>2021-05-16T11:03:59Z</time>
      </trkpt>
      <trkpt lat="41.3519360" lon="-8.7397990">
        <ele>6.0</ele>
        <time>2021-05-16T11:04:00Z</time>
      </trkpt>
      <trkpt lat="41.3519470" lon="-8.7398250">
        <ele>6.0</ele>
        <time>2021-05-16T11:04:01Z</time>
      </trkpt>
      <trkpt lat="41.3519520" lon="-8.7398350">
        <ele>6.0</ele>
        <time>2021-05-16T11:04:02Z</time>
      </trkpt>
      <trkpt lat="41.3519560" lon="-8.7398440">
        <ele>6.0</ele>
        <time>2021-05-16T11:04:03Z</time>
      </trkpt>
      <trkpt lat="41.3519550" lon="-8.7398570">
        <ele>6.0</ele>
        <time>2021-05-16T11:04:04Z</time>
      </trkpt>
      <trkpt lat="41.3519590" lon="-8.7398700">
        <ele>6.0</ele>
        <time>2021-05-16T11:04:05Z</time>
      </trkpt>
      <trkpt lat="41.3519630" lon="-8.7398750">
        <ele>6.0</ele>
        <time>2021-05-16T11:04:06Z</time>
      </trkpt>
      <trkpt lat="41.3519650" lon="-8.7398730">
        <ele>6.0</ele>
        <time>2021-05-16T11:04:07Z</time>
      </trkpt>
      <trkpt lat="41.3519670" lon="-8.7398730">
        <ele>6.0</ele>
        <time>2021-05-16T11:04:08Z</time>
      </trkpt>
      <trkpt lat="41.3519720" lon="-8.7398660">
        <ele>6.0</ele>
        <time>2021-05-16T11:04:09Z</time>
      </trkpt>
      <trkpt lat="41.3519820" lon="-8.7398590">
        <ele>6.4</ele>
        <time>2021-05-16T11:04:10Z</time>
      </trkpt>
      <trkpt lat="41.3519930" lon="-8.7398480">
        <ele>6.4</ele>
        <time>2021-05-16T11:04:11Z</time>
      </trkpt>
      <trkpt lat="41.3520000" lon="-8.7398480">
        <ele>6.5</ele>
        <time>2021-05-16T11:04:12Z</time>
      </trkpt>
      <trkpt lat="41.3520060" lon="-8.7398470">
        <ele>6.5</ele>
        <time>2021-05-16T11:04:13Z</time>
      </trkpt>
      <trkpt lat="41.3520120" lon="-8.7398460">
        <ele>6.9</ele>
        <time>2021-05-16T11:04:14Z</time>
      </trkpt>
      <trkpt lat="41.3520190" lon="-8.7398460">
        <ele>6.9</ele>
        <time>2021-05-16T11:04:15Z</time>
      </trkpt>
      <trkpt lat="41.3520250" lon="-8.7398450">
        <ele>7.0</ele>
        <time>2021-05-16T11:04:16Z</time>
      </trkpt>
      <trkpt lat="41.3520290" lon="-8.7398460">
        <ele>7.0</ele>
        <time>2021-05-16T11:04:17Z</time>
      </trkpt>
      <trkpt lat="41.3520290" lon="-8.7398470">
        <ele>7.1</ele>
        <time>2021-05-16T11:04:18Z</time>
      </trkpt>
      <trkpt lat="41.3520300" lon="-8.7398470">
        <ele>7.1</ele>
        <time>2021-05-16T11:04:19Z</time>
      </trkpt>
      <trkpt lat="41.3520330" lon="-8.7398470">
        <ele>7.2</ele>
        <time>2021-05-16T11:04:20Z</time>
      </trkpt>
      <trkpt lat="41.3520400" lon="-8.7398600">
        <ele>7.5</ele>
        <time>2021-05-16T11:04:21Z</time>
      </trkpt>
      <trkpt lat="41.3520400" lon="-8.7398710">
        <ele>7.6</ele>
        <time>2021-05-16T11:04:22Z</time>
      </trkpt>
      <trkpt lat="41.3520290" lon="-8.7398880">
        <ele>6.9</ele>
        <time>2021-05-16T11:04:23Z</time>
      </trkpt>
      <trkpt lat="41.3520230" lon="-8.7399170">
        <ele>6.9</ele>
        <time>2021-05-16T11:04:24Z</time>
      </trkpt>
      <trkpt lat="41.3520220" lon="-8.7399270">
        <ele>6.6</ele>
        <time>2021-05-16T11:04:25Z</time>
      </trkpt>
      <trkpt lat="41.3520200" lon="-8.7399360">
        <ele>6.6</ele>
        <time>2021-05-16T11:04:26Z</time>
      </trkpt>
      <trkpt lat="41.3520160" lon="-8.7399420">
        <ele>6.7</ele>
        <time>2021-05-16T11:04:27Z</time>
      </trkpt>
      <trkpt lat="41.3520130" lon="-8.7399520">
        <ele>6.7</ele>
        <time>2021-05-16T11:04:28Z</time>
      </trkpt>
      <trkpt lat="41.3520160" lon="-8.7399550">
        <ele>6.7</ele>
        <time>2021-05-16T11:04:29Z</time>
      </trkpt>
      <trkpt lat="41.3520140" lon="-8.7399740">
        <ele>6.5</ele>
        <time>2021-05-16T11:04:30Z</time>
      </trkpt>
      <trkpt lat="41.3520150" lon="-8.7399920">
        <ele>6.5</ele>
        <time>2021-05-16T11:04:31Z</time>
      </trkpt>
      <trkpt lat="41.3520150" lon="-8.7400030">
        <ele>6.6</ele>
        <time>2021-05-16T11:04:32Z</time>
      </trkpt>
      <trkpt lat="41.3520160" lon="-8.7400190">
        <ele>6.3</ele>
        <time>2021-05-16T11:04:33Z</time>
      </trkpt>
      <trkpt lat="41.3520160" lon="-8.7400370">
        <ele>6.4</ele>
        <time>2021-05-16T11:04:34Z</time>
      </trkpt>
      <trkpt lat="41.3520150" lon="-8.7400540">
        <ele>6.2</ele>
        <time>2021-05-16T11:04:35Z</time>
      </trkpt>
      <trkpt lat="41.3520110" lon="-8.7400480">
        <ele>6.5</ele>
        <time>2021-05-16T11:04:36Z</time>
      </trkpt>
      <trkpt lat="41.3520190" lon="-8.7400510">
        <ele>6.5</ele>
        <time>2021-05-16T11:04:37Z</time>
      </trkpt>
      <trkpt lat="41.3520190" lon="-8.7400640">
        <ele>6.3</ele>
        <time>2021-05-16T11:04:38Z</time>
      </trkpt>
      <trkpt lat="41.3520270" lon="-8.7400880">
        <ele>6.4</ele>
        <time>2021-05-16T11:04:39Z</time>
      </trkpt>
      <trkpt lat="41.3520320" lon="-8.7400970">
        <ele>6.2</ele>
        <time>2021-05-16T11:04:40Z</time>
      </trkpt>
      <trkpt lat="41.3520380" lon="-8.7401070">
        <ele>6.3</ele>
        <time>2021-05-16T11:04:41Z</time>
      </trkpt>
      <trkpt lat="41.3520440" lon="-8.7401340">
        <ele>6.6</ele>
        <time>2021-05-16T11:04:42Z</time>
      </trkpt>
      <trkpt lat="41.3520400" lon="-8.7401470">
        <ele>6.5</ele>
        <time>2021-05-16T11:04:43Z</time>
      </trkpt>
      <trkpt lat="41.3520380" lon="-8.7401670">
        <ele>6.2</ele>
        <time>2021-05-16T11:04:44Z</time>
      </trkpt>
      <trkpt lat="41.3520490" lon="-8.7401920">
        <ele>6.4</ele>
        <time>2021-05-16T11:04:45Z</time>
      </trkpt>
      <trkpt lat="41.3520530" lon="-8.7402060">
        <ele>6.5</ele>
        <time>2021-05-16T11:04:46Z</time>
      </trkpt>
      <trkpt lat="41.3520590" lon="-8.7402290">
        <ele>6.4</ele>
        <time>2021-05-16T11:04:47Z</time>
      </trkpt>
      <trkpt lat="41.3520590" lon="-8.7402370">
        <ele>6.4</ele>
        <time>2021-05-16T11:04:48Z</time>
      </trkpt>
      <trkpt lat="41.3520610" lon="-8.7402530">
        <ele>6.5</ele>
        <time>2021-05-16T11:04:49Z</time>
      </trkpt>
      <trkpt lat="41.3520630" lon="-8.7402700">
        <ele>6.3</ele>
        <time>2021-05-16T11:04:50Z</time>
      </trkpt>
      <trkpt lat="41.3520620" lon="-8.7403010">
        <ele>6.0</ele>
        <time>2021-05-16T11:04:51Z</time>
      </trkpt>
      <trkpt lat="41.3520610" lon="-8.7403120">
        <ele>5.9</ele>
        <time>2021-05-16T11:04:52Z</time>
      </trkpt>
      <trkpt lat="41.3520600" lon="-8.7403230">
        <ele>5.7</ele>
        <time>2021-05-16T11:04:53Z</time>
      </trkpt>
      <trkpt lat="41.3520630" lon="-8.7403310">
        <ele>5.6</ele>
        <time>2021-05-16T11:04:54Z</time>
      </trkpt>
      <trkpt lat="41.3520550" lon="-8.7403480">
        <ele>5.4</ele>
        <time>2021-05-16T11:04:55Z</time>
      </trkpt>
      <trkpt lat="41.3520540" lon="-8.7403590">
        <ele>5.3</ele>
        <time>2021-05-16T11:04:56Z</time>
      </trkpt>
      <trkpt lat="41.3520450" lon="-8.7403730">
        <ele>5.1</ele>
        <time>2021-05-16T11:04:57Z</time>
      </trkpt>
      <trkpt lat="41.3520390" lon="-8.7403860">
        <ele>5.0</ele>
        <time>2021-05-16T11:04:58Z</time>
      </trkpt>
      <trkpt lat="41.3520320" lon="-8.7403990">
        <ele>4.8</ele>
        <time>2021-05-16T11:04:59Z</time>
      </trkpt>
      <trkpt lat="41.3520260" lon="-8.7404410">
        <ele>4.4</ele>
        <time>2021-05-16T11:05:00Z</time>
      </trkpt>
      <trkpt lat="41.3520230" lon="-8.7404540">
        <ele>4.3</ele>
        <time>2021-05-16T11:05:01Z</time>
      </trkpt>
      <trkpt lat="41.3520140" lon="-8.7404620">
        <ele>4.1</ele>
        <time>2021-05-16T11:05:02Z</time>
      </trkpt>
      <trkpt lat="41.3520140" lon="-8.7404710">
        <ele>4.0</ele>
        <time>2021-05-16T11:05:03Z</time>
      </trkpt>
      <trkpt lat="41.3520130" lon="-8.7404840">
        <ele>3.9</ele>
        <time>2021-05-16T11:05:04Z</time>
      </trkpt>
      <trkpt lat="41.3520120" lon="-8.7404930">
        <ele>3.8</ele>
        <time>2021-05-16T11:05:05Z</time>
      </trkpt>
      <trkpt lat="41.3520090" lon="-8.7405100">
        <ele>3.6</ele>
        <time>2021-05-16T11:05:06Z</time>
      </trkpt>
      <trkpt lat="41.3520070" lon="-8.7405210">
        <ele>3.6</ele>
        <time>2021-05-16T11:05:07Z</time>
      </trkpt>
      <trkpt lat="41.3520020" lon="-8.7405320">
        <ele>3.6</ele>
        <time>2021-05-16T11:05:08Z</time>
      </trkpt>
      <trkpt lat="41.3519980" lon="-8.7405520">
        <ele>3.6</ele>
        <time>2021-05-16T11:05:09Z</time>
      </trkpt>
      <trkpt lat="41.3519990" lon="-8.7405640">
        <ele>3.6</ele>
        <time>2021-05-16T11:05:10Z</time>
      </trkpt>
      <trkpt lat="41.3519880" lon="-8.7405720">
        <ele>3.6</ele>
        <time>2021-05-16T11:05:11Z</time>
      </trkpt>
      <trkpt lat="41.3519800" lon="-8.7405980">
        <ele>3.6</ele>
        <time>2021-05-16T11:05:12Z</time>
      </trkpt>
      <trkpt lat="41.3519770" lon="-8.7406090">
        <ele>3.6</ele>
        <time>2021-05-16T11:05:13Z</time>
      </trkpt>
      <trkpt lat="41.3519730" lon="-8.7406210">
        <ele>3.6</ele>
        <time>2021-05-16T11:05:14Z</time>
      </trkpt>
      <trkpt lat="41.3519660" lon="-8.7406320">
        <ele>3.6</ele>
        <time>2021-05-16T11:05:15Z</time>
      </trkpt>
      <trkpt lat="41.3519600" lon="-8.7406530">
        <ele>3.6</ele>
        <time>2021-05-16T11:05:16Z</time>
      </trkpt>
      <trkpt lat="41.3519480" lon="-8.7406710">
        <ele>3.6</ele>
        <time>2021-05-16T11:05:17Z</time>
      </trkpt>
      <trkpt lat="41.3519450" lon="-8.7406890">
        <ele>3.6</ele>
        <time>2021-05-16T11:05:18Z</time>
      </trkpt>
      <trkpt lat="41.3519300" lon="-8.7407190">
        <ele>3.6</ele>
        <time>2021-05-16T11:05:19Z</time>
      </trkpt>
      <trkpt lat="41.3519280" lon="-8.7407270">
        <ele>3.6</ele>
        <time>2021-05-16T11:05:20Z</time>
      </trkpt>
      <trkpt lat="41.3519250" lon="-8.7407360">
        <ele>3.6</ele>
        <time>2021-05-16T11:05:21Z</time>
      </trkpt>
      <trkpt lat="41.3519100" lon="-8.7407530">
        <ele>3.6</ele>
        <time>2021-05-16T11:05:22Z</time>
      </trkpt>
      <trkpt lat="41.3518990" lon="-8.7407600">
        <ele>3.6</ele>
        <time>2021-05-16T11:05:23Z</time>
      </trkpt>
      <trkpt lat="41.3518790" lon="-8.7407910">
        <ele>3.6</ele>
        <time>2021-05-16T11:05:24Z</time>
      </trkpt>
      <trkpt lat="41.3518710" lon="-8.7408000">
        <ele>3.6</ele>
        <time>2021-05-16T11:05:25Z</time>
      </trkpt>
      <trkpt lat="41.3518460" lon="-8.7408280">
        <ele>3.6</ele>
        <time>2021-05-16T11:05:26Z</time>
      </trkpt>
      <trkpt lat="41.3518370" lon="-8.7408380">
        <ele>3.6</ele>
        <time>2021-05-16T11:05:27Z</time>
      </trkpt>
      <trkpt lat="41.3518330" lon="-8.7408510">
        <ele>3.6</ele>
        <time>2021-05-16T11:05:28Z</time>
      </trkpt>
      <trkpt lat="41.3518240" lon="-8.7408600">
        <ele>3.5</ele>
        <time>2021-05-16T11:05:29Z</time>
      </trkpt>
      <trkpt lat="41.3518150" lon="-8.7408740">
        <ele>3.5</ele>
        <time>2021-05-16T11:05:30Z</time>
      </trkpt>
      <trkpt lat="41.3518050" lon="-8.7408910">
        <ele>3.5</ele>
        <time>2021-05-16T11:05:31Z</time>
      </trkpt>
      <trkpt lat="41.3517980" lon="-8.7409070">
        <ele>3.5</ele>
        <time>2021-05-16T11:05:32Z</time>
      </trkpt>
      <trkpt lat="41.3517900" lon="-8.7409180">
        <ele>3.5</ele>
        <time>2021-05-16T11:05:33Z</time>
      </trkpt>
      <trkpt lat="41.3517910" lon="-8.7409290">
        <ele>3.5</ele>
        <time>2021-05-16T11:05:34Z</time>
      </trkpt>
      <trkpt lat="41.3517930" lon="-8.7409270">
        <ele>3.5</ele>
        <time>2021-05-16T11:05:35Z</time>
      </trkpt>
      <trkpt lat="41.3518020" lon="-8.7409200">
        <ele>3.5</ele>
        <time>2021-05-16T11:05:36Z</time>
      </trkpt>
      <trkpt lat="41.3518070" lon="-8.7409160">
        <ele>3.5</ele>
        <time>2021-05-16T11:05:37Z</time>
      </trkpt>
      <trkpt lat="41.3518050" lon="-8.7409110">
        <ele>3.5</ele>
        <time>2021-05-16T11:05:38Z</time>
      </trkpt>
      <trkpt lat="41.3518010" lon="-8.7409090">
        <ele>3.5</ele>
        <time>2021-05-16T11:05:39Z</time>
      </trkpt>
      <trkpt lat="41.3517990" lon="-8.7409100">
        <ele>3.5</ele>
        <time>2021-05-16T11:05:40Z</time>
      </trkpt>
      <trkpt lat="41.3517960" lon="-8.7409120">
        <ele>3.5</ele>
        <time>2021-05-16T11:05:41Z</time>
      </trkpt>
      <trkpt lat="41.3517960" lon="-8.7409110">
        <ele>3.5</ele>
        <time>2021-05-16T11:05:42Z</time>
      </trkpt>
      <trkpt lat="41.3517870" lon="-8.7409130">
        <ele>3.5</ele>
        <time>2021-05-16T11:05:43Z</time>
      </trkpt>
      <trkpt lat="41.3517850" lon="-8.7409130">
        <ele>3.5</ele>
        <time>2021-05-16T11:05:44Z</time>
      </trkpt>
      <trkpt lat="41.3517850" lon="-8.7409130">
        <ele>3.5</ele>
        <time>2021-05-16T11:05:45Z</time>
      </trkpt>
      <trkpt lat="41.3517850" lon="-8.7409130">
        <ele>3.5</ele>
        <time>2021-05-16T11:05:46Z</time>
      </trkpt>
      <trkpt lat="41.3517710" lon="-8.7409070">
        <ele>3.5</ele>
        <time>2021-05-16T11:05:47Z</time>
      </trkpt>
      <trkpt lat="41.3517680" lon="-8.7409020">
        <ele>3.5</ele>
        <time>2021-05-16T11:05:48Z</time>
      </trkpt>
      <trkpt lat="41.3517700" lon="-8.7408980">
        <ele>3.5</ele>
        <time>2021-05-16T11:05:49Z</time>
      </trkpt>
      <trkpt lat="41.3517750" lon="-8.7408950">
        <ele>3.5</ele>
        <time>2021-05-16T11:05:50Z</time>
      </trkpt>
      <trkpt lat="41.3517760" lon="-8.7408970">
        <ele>3.5</ele>
        <time>2021-05-16T11:05:51Z</time>
      </trkpt>
      <trkpt lat="41.3517770" lon="-8.7408970">
        <ele>3.5</ele>
        <time>2021-05-16T11:05:52Z</time>
      </trkpt>
      <trkpt lat="41.3517740" lon="-8.7408930">
        <ele>3.5</ele>
        <time>2021-05-16T11:05:53Z</time>
      </trkpt>
      <trkpt lat="41.3517780" lon="-8.7408910">
        <ele>3.5</ele>
        <time>2021-05-16T11:05:54Z</time>
      </trkpt>
      <trkpt lat="41.3517830" lon="-8.7408890">
        <ele>3.5</ele>
        <time>2021-05-16T11:05:55Z</time>
      </trkpt>
      <trkpt lat="41.3517860" lon="-8.7408900">
        <ele>3.5</ele>
        <time>2021-05-16T11:05:56Z</time>
      </trkpt>
      <trkpt lat="41.3517880" lon="-8.7408880">
        <ele>3.5</ele>
        <time>2021-05-16T11:05:57Z</time>
      </trkpt>
      <trkpt lat="41.3517910" lon="-8.7408940">
        <ele>3.5</ele>
        <time>2021-05-16T11:05:58Z</time>
      </trkpt>
      <trkpt lat="41.3517900" lon="-8.7408980">
        <ele>3.5</ele>
        <time>2021-05-16T11:05:59Z</time>
      </trkpt>
      <trkpt lat="41.3517890" lon="-8.7409030">
        <ele>3.5</ele>
        <time>2021-05-16T11:06:00Z</time>
      </trkpt>
      <trkpt lat="41.3517870" lon="-8.7409080">
        <ele>3.5</ele>
        <time>2021-05-16T11:06:01Z</time>
      </trkpt>
      <trkpt lat="41.3517870" lon="-8.7409140">
        <ele>3.5</ele>
        <time>2021-05-16T11:06:02Z</time>
      </trkpt>
      <trkpt lat="41.3517850" lon="-8.7409170">
        <ele>3.5</ele>
        <time>2021-05-16T11:06:03Z</time>
      </trkpt>
      <trkpt lat="41.3517830" lon="-8.7409180">
        <ele>3.5</ele>
        <time>2021-05-16T11:06:04Z</time>
      </trkpt>
      <trkpt lat="41.3517830" lon="-8.7409160">
        <ele>3.5</ele>
        <time>2021-05-16T11:06:05Z</time>
      </trkpt>
      <trkpt lat="41.3517820" lon="-8.7409190">
        <ele>3.5</ele>
        <time>2021-05-16T11:06:06Z</time>
      </trkpt>
      <trkpt lat="41.3517840" lon="-8.7409180">
        <ele>3.5</ele>
        <time>2021-05-16T11:06:07Z</time>
      </trkpt>
      <trkpt lat="41.3517830" lon="-8.7409180">
        <ele>3.5</ele>
        <time>2021-05-16T11:06:08Z</time>
      </trkpt>
      <trkpt lat="41.3517800" lon="-8.7409170">
        <ele>3.5</ele>
        <time>2021-05-16T11:06:09Z</time>
      </trkpt>
      <trkpt lat="41.3517830" lon="-8.7409210">
        <ele>3.5</ele>
        <time>2021-05-16T11:06:10Z</time>
      </trkpt>
      <trkpt lat="41.3517870" lon="-8.7409180">
        <ele>3.5</ele>
        <time>2021-05-16T11:06:11Z</time>
      </trkpt>
      <trkpt lat="41.3517950" lon="-8.7409120">
        <ele>3.5</ele>
        <time>2021-05-16T11:06:12Z</time>
      </trkpt>
      <trkpt lat="41.3518000" lon="-8.7408980">
        <ele>3.5</ele>
        <time>2021-05-16T11:06:13Z</time>
      </trkpt>
      <trkpt lat="41.3518020" lon="-8.7408900">
        <ele>3.5</ele>
        <time>2021-05-16T11:06:14Z</time>
      </trkpt>
      <trkpt lat="41.3517990" lon="-8.7408880">
        <ele>3.5</ele>
        <time>2021-05-16T11:06:15Z</time>
      </trkpt>
      <trkpt lat="41.3517940" lon="-8.7408890">
        <ele>3.5</ele>
        <time>2021-05-16T11:06:16Z</time>
      </trkpt>
      <trkpt lat="41.3517920" lon="-8.7408900">
        <ele>3.5</ele>
        <time>2021-05-16T11:06:17Z</time>
      </trkpt>
      <trkpt lat="41.3517920" lon="-8.7408900">
        <ele>3.5</ele>
        <time>2021-05-16T11:06:18Z</time>
      </trkpt>
      <trkpt lat="41.3517930" lon="-8.7408910">
        <ele>3.5</ele>
        <time>2021-05-16T11:06:19Z</time>
      </trkpt>
      <trkpt lat="41.3517960" lon="-8.7408890">
        <ele>3.5</ele>
        <time>2021-05-16T11:06:20Z</time>
      </trkpt>
      <trkpt lat="41.3517940" lon="-8.7408880">
        <ele>3.5</ele>
        <time>2021-05-16T11:06:21Z</time>
      </trkpt>
      <trkpt lat="41.3517930" lon="-8.7408860">
        <ele>3.5</ele>
        <time>2021-05-16T11:06:22Z</time>
      </trkpt>
      <trkpt lat="41.3517910" lon="-8.7408870">
        <ele>3.5</ele>
        <time>2021-05-16T11:06:23Z</time>
      </trkpt>
      <trkpt lat="41.3517910" lon="-8.7408870">
        <ele>3.5</ele>
        <time>2021-05-16T11:06:24Z</time>
      </trkpt>
      <trkpt lat="41.3517860" lon="-8.7408890">
        <ele>3.5</ele>
        <time>2021-05-16T11:06:25Z</time>
      </trkpt>
      <trkpt lat="41.3517860" lon="-8.7408890">
        <ele>3.5</ele>
        <time>2021-05-16T11:06:26Z</time>
      </trkpt>
      <trkpt lat="41.3517860" lon="-8.7408890">
        <ele>3.5</ele>
        <time>2021-05-16T11:06:27Z</time>
      </trkpt>
      <trkpt lat="41.3517860" lon="-8.7408890">
        <ele>3.5</ele>
        <time>2021-05-16T11:06:28Z</time>
      </trkpt>
      <trkpt lat="41.3517690" lon="-8.7408890">
        <ele>3.5</ele>
        <time>2021-05-16T11:06:29Z</time>
      </trkpt>
      <trkpt lat="41.3517670" lon="-8.7408890">
        <ele>3.5</ele>
        <time>2021-05-16T11:06:30Z</time>
      </trkpt>
      <trkpt lat="41.3517670" lon="-8.7408860">
        <ele>3.5</ele>
        <time>2021-05-16T11:06:31Z</time>
      </trkpt>
      <trkpt lat="41.3517660" lon="-8.7408860">
        <ele>3.5</ele>
        <time>2021-05-16T11:06:32Z</time>
      </trkpt>
      <trkpt lat="41.3517670" lon="-8.7408840">
        <ele>3.5</ele>
        <time>2021-05-16T11:06:33Z</time>
      </trkpt>
      <trkpt lat="41.3517710" lon="-8.7408790">
        <ele>3.5</ele>
        <time>2021-05-16T11:06:34Z</time>
      </trkpt>
      <trkpt lat="41.3517710" lon="-8.7408780">
        <ele>3.5</ele>
        <time>2021-05-16T11:06:35Z</time>
      </trkpt>
      <trkpt lat="41.3517730" lon="-8.7408770">
        <ele>3.5</ele>
        <time>2021-05-16T11:06:36Z</time>
      </trkpt>
      <trkpt lat="41.3517770" lon="-8.7408750">
        <ele>3.5</ele>
        <time>2021-05-16T11:06:37Z</time>
      </trkpt>
      <trkpt lat="41.3517770" lon="-8.7408720">
        <ele>3.5</ele>
        <time>2021-05-16T11:06:38Z</time>
      </trkpt>
      <trkpt lat="41.3517800" lon="-8.7408710">
        <ele>3.5</ele>
        <time>2021-05-16T11:06:39Z</time>
      </trkpt>
      <trkpt lat="41.3517820" lon="-8.7408710">
        <ele>3.5</ele>
        <time>2021-05-16T11:06:40Z</time>
      </trkpt>
      <trkpt lat="41.3517860" lon="-8.7408680">
        <ele>3.5</ele>
        <time>2021-05-16T11:06:41Z</time>
      </trkpt>
      <trkpt lat="41.3517870" lon="-8.7408680">
        <ele>3.5</ele>
        <time>2021-05-16T11:06:42Z</time>
      </trkpt>
      <trkpt lat="41.3517860" lon="-8.7408690">
        <ele>3.5</ele>
        <time>2021-05-16T11:06:43Z</time>
      </trkpt>
      <trkpt lat="41.3517860" lon="-8.7408700">
        <ele>3.5</ele>
        <time>2021-05-16T11:06:44Z</time>
      </trkpt>
      <trkpt lat="41.3517860" lon="-8.7408700">
        <ele>3.5</ele>
        <time>2021-05-16T11:06:45Z</time>
      </trkpt>
      <trkpt lat="41.3517880" lon="-8.7408690">
        <ele>3.5</ele>
        <time>2021-05-16T11:06:46Z</time>
      </trkpt>
      <trkpt lat="41.3517910" lon="-8.7408690">
        <ele>3.5</ele>
        <time>2021-05-16T11:06:47Z</time>
      </trkpt>
      <trkpt lat="41.3517940" lon="-8.7408700">
        <ele>3.5</ele>
        <time>2021-05-16T11:06:48Z</time>
      </trkpt>
      <trkpt lat="41.3517980" lon="-8.7408670">
        <ele>3.5</ele>
        <time>2021-05-16T11:06:49Z</time>
      </trkpt>
      <trkpt lat="41.3518020" lon="-8.7408650">
        <ele>3.5</ele>
        <time>2021-05-16T11:06:50Z</time>
      </trkpt>
      <trkpt lat="41.3518050" lon="-8.7408640">
        <ele>3.5</ele>
        <time>2021-05-16T11:06:51Z</time>
      </trkpt>
      <trkpt lat="41.3518070" lon="-8.7408590">
        <ele>3.5</ele>
        <time>2021-05-16T11:06:52Z</time>
      </trkpt>
      <trkpt lat="41.3518100" lon="-8.7408570">
        <ele>3.5</ele>
        <time>2021-05-16T11:06:53Z</time>
      </trkpt>
      <trkpt lat="41.3518180" lon="-8.7408530">
        <ele>3.5</ele>
        <time>2021-05-16T11:06:54Z</time>
      </trkpt>
      <trkpt lat="41.3518220" lon="-8.7408500">
        <ele>3.5</ele>
        <time>2021-05-16T11:06:55Z</time>
      </trkpt>
      <trkpt lat="41.3518260" lon="-8.7408460">
        <ele>3.5</ele>
        <time>2021-05-16T11:06:56Z</time>
      </trkpt>
      <trkpt lat="41.3518300" lon="-8.7408440">
        <ele>3.5</ele>
        <time>2021-05-16T11:06:57Z</time>
      </trkpt>
      <trkpt lat="41.3518320" lon="-8.7408400">
        <ele>3.5</ele>
        <time>2021-05-16T11:06:58Z</time>
      </trkpt>
      <trkpt lat="41.3518300" lon="-8.7408340">
        <ele>3.5</ele>
        <time>2021-05-16T11:06:59Z</time>
      </trkpt>
      <trkpt lat="41.3518280" lon="-8.7408300">
        <ele>3.5</ele>
        <time>2021-05-16T11:07:00Z</time>
      </trkpt>
      <trkpt lat="41.3518290" lon="-8.7408310">
        <ele>3.5</ele>
        <time>2021-05-16T11:07:01Z</time>
      </trkpt>
      <trkpt lat="41.3518310" lon="-8.7408290">
        <ele>3.5</ele>
        <time>2021-05-16T11:07:02Z</time>
      </trkpt>
      <trkpt lat="41.3518310" lon="-8.7408280">
        <ele>3.5</ele>
        <time>2021-05-16T11:07:03Z</time>
      </trkpt>
      <trkpt lat="41.3518340" lon="-8.7408250">
        <ele>3.5</ele>
        <time>2021-05-16T11:07:04Z</time>
      </trkpt>
      <trkpt lat="41.3518350" lon="-8.7408230">
        <ele>3.5</ele>
        <time>2021-05-16T11:07:05Z</time>
      </trkpt>
      <trkpt lat="41.3518360" lon="-8.7408220">
        <ele>3.5</ele>
        <time>2021-05-16T11:07:06Z</time>
      </trkpt>
      <trkpt lat="41.3518350" lon="-8.7408250">
        <ele>3.5</ele>
        <time>2021-05-16T11:07:07Z</time>
      </trkpt>
      <trkpt lat="41.3518350" lon="-8.7408250">
        <ele>3.5</ele>
        <time>2021-05-16T11:07:08Z</time>
      </trkpt>
      <trkpt lat="41.3518340" lon="-8.7408260">
        <ele>3.5</ele>
        <time>2021-05-16T11:07:09Z</time>
      </trkpt>
      <trkpt lat="41.3518350" lon="-8.7408210">
        <ele>3.5</ele>
        <time>2021-05-16T11:07:10Z</time>
      </trkpt>
      <trkpt lat="41.3518250" lon="-8.7408180">
        <ele>3.5</ele>
        <time>2021-05-16T11:07:11Z</time>
      </trkpt>
      <trkpt lat="41.3518140" lon="-8.7408190">
        <ele>3.5</ele>
        <time>2021-05-16T11:07:12Z</time>
      </trkpt>
      <trkpt lat="41.3518140" lon="-8.7408160">
        <ele>3.5</ele>
        <time>2021-05-16T11:07:13Z</time>
      </trkpt>
      <trkpt lat="41.3518110" lon="-8.7408200">
        <ele>3.5</ele>
        <time>2021-05-16T11:07:14Z</time>
      </trkpt>
      <trkpt lat="41.3518130" lon="-8.7408190">
        <ele>3.5</ele>
        <time>2021-05-16T11:07:15Z</time>
      </trkpt>
      <trkpt lat="41.3518130" lon="-8.7408190">
        <ele>3.5</ele>
        <time>2021-05-16T11:07:16Z</time>
      </trkpt>
      <trkpt lat="41.3517970" lon="-8.7408300">
        <ele>3.5</ele>
        <time>2021-05-16T11:07:17Z</time>
      </trkpt>
      <trkpt lat="41.3517960" lon="-8.7408300">
        <ele>3.5</ele>
        <time>2021-05-16T11:07:18Z</time>
      </trkpt>
      <trkpt lat="41.3518040" lon="-8.7408300">
        <ele>3.5</ele>
        <time>2021-05-16T11:07:19Z</time>
      </trkpt>
      <trkpt lat="41.3518070" lon="-8.7408310">
        <ele>3.5</ele>
        <time>2021-05-16T11:07:20Z</time>
      </trkpt>
      <trkpt lat="41.3518060" lon="-8.7408330">
        <ele>3.5</ele>
        <time>2021-05-16T11:07:21Z</time>
      </trkpt>
      <trkpt lat="41.3518060" lon="-8.7408330">
        <ele>3.5</ele>
        <time>2021-05-16T11:07:22Z</time>
      </trkpt>
      <trkpt lat="41.3518080" lon="-8.7408350">
        <ele>3.5</ele>
        <time>2021-05-16T11:07:23Z</time>
      </trkpt>
      <trkpt lat="41.3518060" lon="-8.7408400">
        <ele>3.5</ele>
        <time>2021-05-16T11:07:24Z</time>
      </trkpt>
      <trkpt lat="41.3518070" lon="-8.7408430">
        <ele>3.5</ele>
        <time>2021-05-16T11:07:25Z</time>
      </trkpt>
      <trkpt lat="41.3518070" lon="-8.7408430">
        <ele>3.5</ele>
        <time>2021-05-16T11:07:26Z</time>
      </trkpt>
      <trkpt lat="41.3518070" lon="-8.7408430">
        <ele>3.5</ele>
        <time>2021-05-16T11:07:27Z</time>
      </trkpt>
      <trkpt lat="41.3517950" lon="-8.7408540">
        <ele>3.5</ele>
        <time>2021-05-16T11:07:28Z</time>
      </trkpt>
      <trkpt lat="41.3517930" lon="-8.7408550">
        <ele>3.5</ele>
        <time>2021-05-16T11:07:29Z</time>
      </trkpt>
      <trkpt lat="41.3517910" lon="-8.7408580">
        <ele>3.5</ele>
        <time>2021-05-16T11:07:30Z</time>
      </trkpt>
      <trkpt lat="41.3517910" lon="-8.7408610">
        <ele>3.5</ele>
        <time>2021-05-16T11:07:31Z</time>
      </trkpt>
      <trkpt lat="41.3517990" lon="-8.7408640">
        <ele>3.5</ele>
        <time>2021-05-16T11:07:32Z</time>
      </trkpt>
      <trkpt lat="41.3518010" lon="-8.7408660">
        <ele>3.5</ele>
        <time>2021-05-16T11:07:33Z</time>
      </trkpt>
      <trkpt lat="41.3517980" lon="-8.7408680">
        <ele>3.5</ele>
        <time>2021-05-16T11:07:34Z</time>
      </trkpt>
      <trkpt lat="41.3517960" lon="-8.7408700">
        <ele>3.5</ele>
        <time>2021-05-16T11:07:35Z</time>
      </trkpt>
      <trkpt lat="41.3517980" lon="-8.7408690">
        <ele>3.5</ele>
        <time>2021-05-16T11:07:36Z</time>
      </trkpt>
      <trkpt lat="41.3517980" lon="-8.7408690">
        <ele>3.5</ele>
        <time>2021-05-16T11:07:37Z</time>
      </trkpt>
      <trkpt lat="41.3517990" lon="-8.7408670">
        <ele>3.5</ele>
        <time>2021-05-16T11:07:38Z</time>
      </trkpt>
      <trkpt lat="41.3518000" lon="-8.7408630">
        <ele>3.5</ele>
        <time>2021-05-16T11:07:39Z</time>
      </trkpt>
      <trkpt lat="41.3518010" lon="-8.7408600">
        <ele>3.5</ele>
        <time>2021-05-16T11:07:40Z</time>
      </trkpt>
      <trkpt lat="41.3518030" lon="-8.7408590">
        <ele>3.5</ele>
        <time>2021-05-16T11:07:41Z</time>
      </trkpt>
      <trkpt lat="41.3518050" lon="-8.7408590">
        <ele>3.5</ele>
        <time>2021-05-16T11:07:42Z</time>
      </trkpt>
      <trkpt lat="41.3518080" lon="-8.7408560">
        <ele>3.5</ele>
        <time>2021-05-16T11:07:43Z</time>
      </trkpt>
      <trkpt lat="41.3518120" lon="-8.7408550">
        <ele>3.5</ele>
        <time>2021-05-16T11:07:44Z</time>
      </trkpt>
      <trkpt lat="41.3518110" lon="-8.7408540">
        <ele>3.5</ele>
        <time>2021-05-16T11:07:45Z</time>
      </trkpt>
      <trkpt lat="41.3518110" lon="-8.7408500">
        <ele>3.5</ele>
        <time>2021-05-16T11:07:46Z</time>
      </trkpt>
      <trkpt lat="41.3518110" lon="-8.7408490">
        <ele>3.5</ele>
        <time>2021-05-16T11:07:47Z</time>
      </trkpt>
      <trkpt lat="41.3518110" lon="-8.7408470">
        <ele>3.5</ele>
        <time>2021-05-16T11:07:48Z</time>
      </trkpt>
      <trkpt lat="41.3518110" lon="-8.7408450">
        <ele>3.5</ele>
        <time>2021-05-16T11:07:49Z</time>
      </trkpt>
      <trkpt lat="41.3518130" lon="-8.7408420">
        <ele>3.5</ele>
        <time>2021-05-16T11:07:50Z</time>
      </trkpt>
      <trkpt lat="41.3518170" lon="-8.7408380">
        <ele>3.5</ele>
        <time>2021-05-16T11:07:51Z</time>
      </trkpt>
      <trkpt lat="41.3518200" lon="-8.7408390">
        <ele>3.5</ele>
        <time>2021-05-16T11:07:52Z</time>
      </trkpt>
      <trkpt lat="41.3518210" lon="-8.7408400">
        <ele>3.5</ele>
        <time>2021-05-16T11:07:53Z</time>
      </trkpt>
      <trkpt lat="41.3518220" lon="-8.7408390">
        <ele>3.5</ele>
        <time>2021-05-16T11:07:54Z</time>
      </trkpt>
      <trkpt lat="41.3518220" lon="-8.7408400">
        <ele>3.5</ele>
        <time>2021-05-16T11:07:55Z</time>
      </trkpt>
      <trkpt lat="41.3518180" lon="-8.7408400">
        <ele>3.5</ele>
        <time>2021-05-16T11:07:56Z</time>
      </trkpt>
      <trkpt lat="41.3518180" lon="-8.7408530">
        <ele>3.5</ele>
        <time>2021-05-16T11:07:57Z</time>
      </trkpt>
      <trkpt lat="41.3518100" lon="-8.7408530">
        <ele>3.5</ele>
        <time>2021-05-16T11:07:58Z</time>
      </trkpt>
      <trkpt lat="41.3518040" lon="-8.7408570">
        <ele>3.5</ele>
        <time>2021-05-16T11:07:59Z</time>
      </trkpt>
      <trkpt lat="41.3517970" lon="-8.7408580">
        <ele>3.5</ele>
        <time>2021-05-16T11:08:00Z</time>
      </trkpt>
      <trkpt lat="41.3517960" lon="-8.7408610">
        <ele>3.5</ele>
        <time>2021-05-16T11:08:01Z</time>
      </trkpt>
      <trkpt lat="41.3517930" lon="-8.7408610">
        <ele>3.5</ele>
        <time>2021-05-16T11:08:02Z</time>
      </trkpt>
      <trkpt lat="41.3517870" lon="-8.7408570">
        <ele>3.5</ele>
        <time>2021-05-16T11:08:03Z</time>
      </trkpt>
      <trkpt lat="41.3517870" lon="-8.7408540">
        <ele>3.5</ele>
        <time>2021-05-16T11:08:04Z</time>
      </trkpt>
      <trkpt lat="41.3517870" lon="-8.7408570">
        <ele>3.5</ele>
        <time>2021-05-16T11:08:05Z</time>
      </trkpt>
      <trkpt lat="41.3517880" lon="-8.7408600">
        <ele>3.5</ele>
        <time>2021-05-16T11:08:06Z</time>
      </trkpt>
      <trkpt lat="41.3517880" lon="-8.7408620">
        <ele>3.5</ele>
        <time>2021-05-16T11:08:07Z</time>
      </trkpt>
      <trkpt lat="41.3517880" lon="-8.7408620">
        <ele>3.5</ele>
        <time>2021-05-16T11:08:08Z</time>
      </trkpt>
      <trkpt lat="41.3517880" lon="-8.7408620">
        <ele>3.5</ele>
        <time>2021-05-16T11:08:09Z</time>
      </trkpt>
      <trkpt lat="41.3517980" lon="-8.7408780">
        <ele>3.5</ele>
        <time>2021-05-16T11:08:10Z</time>
      </trkpt>
      <trkpt lat="41.3518050" lon="-8.7408790">
        <ele>3.5</ele>
        <time>2021-05-16T11:08:11Z</time>
      </trkpt>
      <trkpt lat="41.3518150" lon="-8.7408800">
        <ele>3.5</ele>
        <time>2021-05-16T11:08:12Z</time>
      </trkpt>
      <trkpt lat="41.3518120" lon="-8.7408840">
        <ele>3.5</ele>
        <time>2021-05-16T11:08:13Z</time>
      </trkpt>
      <trkpt lat="41.3518180" lon="-8.7408940">
        <ele>3.5</ele>
        <time>2021-05-16T11:08:14Z</time>
      </trkpt>
      <trkpt lat="41.3518170" lon="-8.7409170">
        <ele>3.5</ele>
        <time>2021-05-16T11:08:15Z</time>
      </trkpt>
      <trkpt lat="41.3518230" lon="-8.7409390">
        <ele>3.5</ele>
        <time>2021-05-16T11:08:16Z</time>
      </trkpt>
      <trkpt lat="41.3518160" lon="-8.7409580">
        <ele>3.5</ele>
        <time>2021-05-16T11:08:17Z</time>
      </trkpt>
      <trkpt lat="41.3518140" lon="-8.7409780">
        <ele>3.5</ele>
        <time>2021-05-16T11:08:18Z</time>
      </trkpt>
      <trkpt lat="41.3518050" lon="-8.7409950">
        <ele>3.5</ele>
        <time>2021-05-16T11:08:19Z</time>
      </trkpt>
      <trkpt lat="41.3518040" lon="-8.7410060">
        <ele>3.5</ele>
        <time>2021-05-16T11:08:20Z</time>
      </trkpt>
      <trkpt lat="41.3518020" lon="-8.7410160">
        <ele>3.5</ele>
        <time>2021-05-16T11:08:21Z</time>
      </trkpt>
      <trkpt lat="41.3518010" lon="-8.7410260">
        <ele>3.5</ele>
        <time>2021-05-16T11:08:22Z</time>
      </trkpt>
      <trkpt lat="41.3517960" lon="-8.7410380">
        <ele>3.5</ele>
        <time>2021-05-16T11:08:23Z</time>
      </trkpt>
      <trkpt lat="41.3517940" lon="-8.7410470">
        <ele>3.5</ele>
        <time>2021-05-16T11:08:24Z</time>
      </trkpt>
      <trkpt lat="41.3517880" lon="-8.7410630">
        <ele>3.5</ele>
        <time>2021-05-16T11:08:25Z</time>
      </trkpt>
      <trkpt lat="41.3517840" lon="-8.7410960">
        <ele>3.5</ele>
        <time>2021-05-16T11:08:26Z</time>
      </trkpt>
      <trkpt lat="41.3517820" lon="-8.7411090">
        <ele>3.5</ele>
        <time>2021-05-16T11:08:27Z</time>
      </trkpt>
      <trkpt lat="41.3517800" lon="-8.7411210">
        <ele>3.5</ele>
        <time>2021-05-16T11:08:28Z</time>
      </trkpt>
      <trkpt lat="41.3517830" lon="-8.7411370">
        <ele>3.5</ele>
        <time>2021-05-16T11:08:29Z</time>
      </trkpt>
      <trkpt lat="41.3517810" lon="-8.7411570">
        <ele>3.5</ele>
        <time>2021-05-16T11:08:30Z</time>
      </trkpt>
      <trkpt lat="41.3517780" lon="-8.7411640">
        <ele>3.5</ele>
        <time>2021-05-16T11:08:31Z</time>
      </trkpt>
      <trkpt lat="41.3517760" lon="-8.7411900">
        <ele>3.5</ele>
        <time>2021-05-16T11:08:32Z</time>
      </trkpt>
      <trkpt lat="41.3517710" lon="-8.7411970">
        <ele>3.5</ele>
        <time>2021-05-16T11:08:33Z</time>
      </trkpt>
      <trkpt lat="41.3517660" lon="-8.7412100">
        <ele>3.5</ele>
        <time>2021-05-16T11:08:34Z</time>
      </trkpt>
      <trkpt lat="41.3517610" lon="-8.7412190">
        <ele>3.5</ele>
        <time>2021-05-16T11:08:35Z</time>
      </trkpt>
      <trkpt lat="41.3517620" lon="-8.7412400">
        <ele>3.5</ele>
        <time>2021-05-16T11:08:36Z</time>
      </trkpt>
      <trkpt lat="41.3517550" lon="-8.7412530">
        <ele>3.5</ele>
        <time>2021-05-16T11:08:37Z</time>
      </trkpt>
      <trkpt lat="41.3517560" lon="-8.7412650">
        <ele>3.5</ele>
        <time>2021-05-16T11:08:38Z</time>
      </trkpt>
      <trkpt lat="41.3517510" lon="-8.7412790">
        <ele>3.5</ele>
        <time>2021-05-16T11:08:39Z</time>
      </trkpt>
      <trkpt lat="41.3517450" lon="-8.7412890">
        <ele>3.5</ele>
        <time>2021-05-16T11:08:41Z</time>
      </trkpt>
      <trkpt lat="41.3517370" lon="-8.7412950">
        <ele>3.5</ele>
        <time>2021-05-16T11:08:42Z</time>
      </trkpt>
      <trkpt lat="41.3517390" lon="-8.7413070">
        <ele>3.5</ele>
        <time>2021-05-16T11:08:43Z</time>
      </trkpt>
      <trkpt lat="41.3517300" lon="-8.7413250">
        <ele>3.5</ele>
        <time>2021-05-16T11:08:44Z</time>
      </trkpt>
      <trkpt lat="41.3517280" lon="-8.7413420">
        <ele>3.5</ele>
        <time>2021-05-16T11:08:45Z</time>
      </trkpt>
      <trkpt lat="41.3517230" lon="-8.7413610">
        <ele>3.5</ele>
        <time>2021-05-16T11:08:46Z</time>
      </trkpt>
      <trkpt lat="41.3517130" lon="-8.7413820">
        <ele>3.5</ele>
        <time>2021-05-16T11:08:47Z</time>
      </trkpt>
      <trkpt lat="41.3517060" lon="-8.7413930">
        <ele>3.5</ele>
        <time>2021-05-16T11:08:48Z</time>
      </trkpt>
      <trkpt lat="41.3516990" lon="-8.7414030">
        <ele>3.5</ele>
        <time>2021-05-16T11:08:49Z</time>
      </trkpt>
      <trkpt lat="41.3516890" lon="-8.7414150">
        <ele>3.5</ele>
        <time>2021-05-16T11:08:50Z</time>
      </trkpt>
      <trkpt lat="41.3516790" lon="-8.7414290">
        <ele>3.5</ele>
        <time>2021-05-16T11:08:51Z</time>
      </trkpt>
      <trkpt lat="41.3516660" lon="-8.7414380">
        <ele>3.5</ele>
        <time>2021-05-16T11:08:52Z</time>
      </trkpt>
      <trkpt lat="41.3516540" lon="-8.7414540">
        <ele>3.5</ele>
        <time>2021-05-16T11:08:53Z</time>
      </trkpt>
      <trkpt lat="41.3516480" lon="-8.7414760">
        <ele>3.5</ele>
        <time>2021-05-16T11:08:54Z</time>
      </trkpt>
      <trkpt lat="41.3516490" lon="-8.7414920">
        <ele>3.5</ele>
        <time>2021-05-16T11:08:55Z</time>
      </trkpt>
      <trkpt lat="41.3516400" lon="-8.7415290">
        <ele>3.5</ele>
        <time>2021-05-16T11:08:56Z</time>
      </trkpt>
      <trkpt lat="41.3516370" lon="-8.7415420">
        <ele>3.5</ele>
        <time>2021-05-16T11:08:57Z</time>
      </trkpt>
      <trkpt lat="41.3516370" lon="-8.7415630">
        <ele>3.5</ele>
        <time>2021-05-16T11:08:58Z</time>
      </trkpt>
      <trkpt lat="41.3516310" lon="-8.7415710">
        <ele>3.5</ele>
        <time>2021-05-16T11:08:59Z</time>
      </trkpt>
      <trkpt lat="41.3516320" lon="-8.7415890">
        <ele>3.6</ele>
        <time>2021-05-16T11:09:00Z</time>
      </trkpt>
      <trkpt lat="41.3516270" lon="-8.7416060">
        <ele>3.6</ele>
        <time>2021-05-16T11:09:01Z</time>
      </trkpt>
      <trkpt lat="41.3516270" lon="-8.7416260">
        <ele>3.6</ele>
        <time>2021-05-16T11:09:02Z</time>
      </trkpt>
      <trkpt lat="41.3516220" lon="-8.7416450">
        <ele>3.6</ele>
        <time>2021-05-16T11:09:03Z</time>
      </trkpt>
      <trkpt lat="41.3516250" lon="-8.7416610">
        <ele>3.6</ele>
        <time>2021-05-16T11:09:04Z</time>
      </trkpt>
      <trkpt lat="41.3516260" lon="-8.7416670">
        <ele>3.6</ele>
        <time>2021-05-16T11:09:05Z</time>
      </trkpt>
      <trkpt lat="41.3516220" lon="-8.7416750">
        <ele>3.6</ele>
        <time>2021-05-16T11:09:06Z</time>
      </trkpt>
      <trkpt lat="41.3516190" lon="-8.7416740">
        <ele>3.6</ele>
        <time>2021-05-16T11:09:07Z</time>
      </trkpt>
      <trkpt lat="41.3516090" lon="-8.7416860">
        <ele>3.6</ele>
        <time>2021-05-16T11:09:08Z</time>
      </trkpt>
      <trkpt lat="41.3516000" lon="-8.7416870">
        <ele>3.6</ele>
        <time>2021-05-16T11:09:09Z</time>
      </trkpt>
      <trkpt lat="41.3515950" lon="-8.7417000">
        <ele>3.7</ele>
        <time>2021-05-16T11:09:10Z</time>
      </trkpt>
      <trkpt lat="41.3515860" lon="-8.7417080">
        <ele>3.7</ele>
        <time>2021-05-16T11:09:11Z</time>
      </trkpt>
      <trkpt lat="41.3515800" lon="-8.7417220">
        <ele>3.7</ele>
        <time>2021-05-16T11:09:12Z</time>
      </trkpt>
      <trkpt lat="41.3515700" lon="-8.7417380">
        <ele>3.7</ele>
        <time>2021-05-16T11:09:13Z</time>
      </trkpt>
      <trkpt lat="41.3515600" lon="-8.7417520">
        <ele>3.8</ele>
        <time>2021-05-16T11:09:14Z</time>
      </trkpt>
      <trkpt lat="41.3515470" lon="-8.7417710">
        <ele>3.8</ele>
        <time>2021-05-16T11:09:15Z</time>
      </trkpt>
      <trkpt lat="41.3515370" lon="-8.7417880">
        <ele>3.9</ele>
        <time>2021-05-16T11:09:16Z</time>
      </trkpt>
      <trkpt lat="41.3515400" lon="-8.7418110">
        <ele>3.9</ele>
        <time>2021-05-16T11:09:17Z</time>
      </trkpt>
      <trkpt lat="41.3515370" lon="-8.7418240">
        <ele>3.9</ele>
        <time>2021-05-16T11:09:18Z</time>
      </trkpt>
      <trkpt lat="41.3515350" lon="-8.7418370">
        <ele>4.0</ele>
        <time>2021-05-16T11:09:19Z</time>
      </trkpt>
      <trkpt lat="41.3515370" lon="-8.7418400">
        <ele>4.0</ele>
        <time>2021-05-16T11:09:20Z</time>
      </trkpt>
      <trkpt lat="41.3515320" lon="-8.7418560">
        <ele>4.1</ele>
        <time>2021-05-16T11:09:21Z</time>
      </trkpt>
      <trkpt lat="41.3515330" lon="-8.7418590">
        <ele>4.1</ele>
        <time>2021-05-16T11:09:22Z</time>
      </trkpt>
      <trkpt lat="41.3515290" lon="-8.7418550">
        <ele>4.1</ele>
        <time>2021-05-16T11:09:23Z</time>
      </trkpt>
      <trkpt lat="41.3515300" lon="-8.7418770">
        <ele>4.2</ele>
        <time>2021-05-16T11:09:24Z</time>
      </trkpt>
      <trkpt lat="41.3515310" lon="-8.7418990">
        <ele>4.3</ele>
        <time>2021-05-16T11:09:25Z</time>
      </trkpt>
      <trkpt lat="41.3515330" lon="-8.7419160">
        <ele>4.3</ele>
        <time>2021-05-16T11:09:26Z</time>
      </trkpt>
      <trkpt lat="41.3515290" lon="-8.7419360">
        <ele>4.4</ele>
        <time>2021-05-16T11:09:27Z</time>
      </trkpt>
      <trkpt lat="41.3515150" lon="-8.7419530">
        <ele>4.6</ele>
        <time>2021-05-16T11:09:28Z</time>
      </trkpt>
      <trkpt lat="41.3515060" lon="-8.7419810">
        <ele>4.7</ele>
        <time>2021-05-16T11:09:29Z</time>
      </trkpt>
      <trkpt lat="41.3515000" lon="-8.7419920">
        <ele>4.8</ele>
        <time>2021-05-16T11:09:30Z</time>
      </trkpt>
      <trkpt lat="41.3514950" lon="-8.7420030">
        <ele>4.9</ele>
        <time>2021-05-16T11:09:31Z</time>
      </trkpt>
      <trkpt lat="41.3514830" lon="-8.7420210">
        <ele>5.0</ele>
        <time>2021-05-16T11:09:32Z</time>
      </trkpt>
      <trkpt lat="41.3514760" lon="-8.7420380">
        <ele>5.1</ele>
        <time>2021-05-16T11:09:33Z</time>
      </trkpt>
      <trkpt lat="41.3514750" lon="-8.7420410">
        <ele>5.2</ele>
        <time>2021-05-16T11:09:34Z</time>
      </trkpt>
      <trkpt lat="41.3514720" lon="-8.7420590">
        <ele>5.3</ele>
        <time>2021-05-16T11:09:35Z</time>
      </trkpt>
      <trkpt lat="41.3514670" lon="-8.7420770">
        <ele>5.4</ele>
        <time>2021-05-16T11:09:36Z</time>
      </trkpt>
      <trkpt lat="41.3514590" lon="-8.7420820">
        <ele>5.5</ele>
        <time>2021-05-16T11:09:37Z</time>
      </trkpt>
      <trkpt lat="41.3514530" lon="-8.7421010">
        <ele>5.7</ele>
        <time>2021-05-16T11:09:38Z</time>
      </trkpt>
      <trkpt lat="41.3514420" lon="-8.7421100">
        <ele>5.8</ele>
        <time>2021-05-16T11:09:39Z</time>
      </trkpt>
      <trkpt lat="41.3514440" lon="-8.7421140">
        <ele>5.8</ele>
        <time>2021-05-16T11:09:40Z</time>
      </trkpt>
      <trkpt lat="41.3514350" lon="-8.7421370">
        <ele>6.1</ele>
        <time>2021-05-16T11:09:41Z</time>
      </trkpt>
      <trkpt lat="41.3514270" lon="-8.7421490">
        <ele>6.2</ele>
        <time>2021-05-16T11:09:42Z</time>
      </trkpt>
      <trkpt lat="41.3514230" lon="-8.7421610">
        <ele>6.3</ele>
        <time>2021-05-16T11:09:43Z</time>
      </trkpt>
      <trkpt lat="41.3514260" lon="-8.7421780">
        <ele>6.5</ele>
        <time>2021-05-16T11:09:44Z</time>
      </trkpt>
      <trkpt lat="41.3514250" lon="-8.7421860">
        <ele>6.6</ele>
        <time>2021-05-16T11:09:45Z</time>
      </trkpt>
      <trkpt lat="41.3514060" lon="-8.7422160">
        <ele>6.9</ele>
        <time>2021-05-16T11:09:46Z</time>
      </trkpt>
      <trkpt lat="41.3514000" lon="-8.7422320">
        <ele>7.1</ele>
        <time>2021-05-16T11:09:47Z</time>
      </trkpt>
      <trkpt lat="41.3513990" lon="-8.7422480">
        <ele>7.3</ele>
        <time>2021-05-16T11:09:48Z</time>
      </trkpt>
      <trkpt lat="41.3514020" lon="-8.7422590">
        <ele>8.6</ele>
        <time>2021-05-16T11:09:49Z</time>
      </trkpt>
      <trkpt lat="41.3514060" lon="-8.7422710">
        <ele>8.7</ele>
        <time>2021-05-16T11:09:50Z</time>
      </trkpt>
      <trkpt lat="41.3513970" lon="-8.7422780">
        <ele>8.8</ele>
        <time>2021-05-16T11:09:51Z</time>
      </trkpt>
      <trkpt lat="41.3514040" lon="-8.7422800">
        <ele>8.9</ele>
        <time>2021-05-16T11:09:52Z</time>
      </trkpt>
      <trkpt lat="41.3514220" lon="-8.7422810">
        <ele>9.1</ele>
        <time>2021-05-16T11:09:53Z</time>
      </trkpt>
      <trkpt lat="41.3514320" lon="-8.7422990">
        <ele>9.3</ele>
        <time>2021-05-16T11:09:54Z</time>
      </trkpt>
      <trkpt lat="41.3514450" lon="-8.7423050">
        <ele>9.4</ele>
        <time>2021-05-16T11:09:55Z</time>
      </trkpt>
      <trkpt lat="41.3514580" lon="-8.7423120">
        <ele>9.5</ele>
        <time>2021-05-16T11:09:56Z</time>
      </trkpt>
      <trkpt lat="41.3514620" lon="-8.7423210">
        <ele>9.6</ele>
        <time>2021-05-16T11:09:57Z</time>
      </trkpt>
      <trkpt lat="41.3514750" lon="-8.7423260">
        <ele>9.7</ele>
        <time>2021-05-16T11:09:58Z</time>
      </trkpt>
      <trkpt lat="41.3514860" lon="-8.7423300">
        <ele>9.8</ele>
        <time>2021-05-16T11:09:59Z</time>
      </trkpt>
      <trkpt lat="41.3514920" lon="-8.7423440">
        <ele>9.9</ele>
        <time>2021-05-16T11:10:00Z</time>
      </trkpt>
      <trkpt lat="41.3515060" lon="-8.7423520">
        <ele>10.0</ele>
        <time>2021-05-16T11:10:01Z</time>
      </trkpt>
      <trkpt lat="41.3515170" lon="-8.7423520">
        <ele>10.1</ele>
        <time>2021-05-16T11:10:02Z</time>
      </trkpt>
      <trkpt lat="41.3515260" lon="-8.7423580">
        <ele>10.2</ele>
        <time>2021-05-16T11:10:03Z</time>
      </trkpt>
      <trkpt lat="41.3515320" lon="-8.7423580">
        <ele>10.2</ele>
        <time>2021-05-16T11:10:04Z</time>
      </trkpt>
      <trkpt lat="41.3515480" lon="-8.7423550">
        <ele>10.3</ele>
        <time>2021-05-16T11:10:05Z</time>
      </trkpt>
      <trkpt lat="41.3515750" lon="-8.7423420">
        <ele>10.5</ele>
        <time>2021-05-16T11:10:06Z</time>
      </trkpt>
      <trkpt lat="41.3515820" lon="-8.7423400">
        <ele>10.5</ele>
        <time>2021-05-16T11:10:07Z</time>
      </trkpt>
      <trkpt lat="41.3515940" lon="-8.7423390">
        <ele>10.6</ele>
        <time>2021-05-16T11:10:08Z</time>
      </trkpt>
      <trkpt lat="41.3516160" lon="-8.7423380">
        <ele>10.7</ele>
        <time>2021-05-16T11:10:09Z</time>
      </trkpt>
      <trkpt lat="41.3516360" lon="-8.7423420">
        <ele>10.8</ele>
        <time>2021-05-16T11:10:10Z</time>
      </trkpt>
      <trkpt lat="41.3516430" lon="-8.7423400">
        <ele>10.8</ele>
        <time>2021-05-16T11:10:11Z</time>
      </trkpt>
      <trkpt lat="41.3516580" lon="-8.7423470">
        <ele>10.9</ele>
        <time>2021-05-16T11:10:12Z</time>
      </trkpt>
      <trkpt lat="41.3516710" lon="-8.7423540">
        <ele>10.9</ele>
        <time>2021-05-16T11:10:13Z</time>
      </trkpt>
      <trkpt lat="41.3516910" lon="-8.7423640">
        <ele>11.0</ele>
        <time>2021-05-16T11:10:14Z</time>
      </trkpt>
      <trkpt lat="41.3517010" lon="-8.7423670">
        <ele>11.0</ele>
        <time>2021-05-16T11:10:15Z</time>
      </trkpt>
      <trkpt lat="41.3517110" lon="-8.7423700">
        <ele>11.1</ele>
        <time>2021-05-16T11:10:16Z</time>
      </trkpt>
      <trkpt lat="41.3517330" lon="-8.7423700">
        <ele>11.1</ele>
        <time>2021-05-16T11:10:17Z</time>
      </trkpt>
      <trkpt lat="41.3517440" lon="-8.7423620">
        <ele>11.1</ele>
        <time>2021-05-16T11:10:18Z</time>
      </trkpt>
      <trkpt lat="41.3517510" lon="-8.7423670">
        <ele>11.2</ele>
        <time>2021-05-16T11:10:19Z</time>
      </trkpt>
      <trkpt lat="41.3517630" lon="-8.7423650">
        <ele>11.2</ele>
        <time>2021-05-16T11:10:20Z</time>
      </trkpt>
      <trkpt lat="41.3517780" lon="-8.7423750">
        <ele>11.2</ele>
        <time>2021-05-16T11:10:21Z</time>
      </trkpt>
      <trkpt lat="41.3517920" lon="-8.7423830">
        <ele>11.3</ele>
        <time>2021-05-16T11:10:22Z</time>
      </trkpt>
      <trkpt lat="41.3518040" lon="-8.7423840">
        <ele>11.3</ele>
        <time>2021-05-16T11:10:23Z</time>
      </trkpt>
      <trkpt lat="41.3518190" lon="-8.7423920">
        <ele>11.3</ele>
        <time>2021-05-16T11:10:24Z</time>
      </trkpt>
      <trkpt lat="41.3518360" lon="-8.7424060">
        <ele>11.4</ele>
        <time>2021-05-16T11:10:25Z</time>
      </trkpt>
      <trkpt lat="41.3518490" lon="-8.7424150">
        <ele>11.4</ele>
        <time>2021-05-16T11:10:26Z</time>
      </trkpt>
      <trkpt lat="41.3518650" lon="-8.7424170">
        <ele>11.4</ele>
        <time>2021-05-16T11:10:27Z</time>
      </trkpt>
      <trkpt lat="41.3518810" lon="-8.7424330">
        <ele>11.4</ele>
        <time>2021-05-16T11:10:28Z</time>
      </trkpt>
      <trkpt lat="41.3518920" lon="-8.7424420">
        <ele>11.5</ele>
        <time>2021-05-16T11:10:29Z</time>
      </trkpt>
      <trkpt lat="41.3519020" lon="-8.7424490">
        <ele>11.5</ele>
        <time>2021-05-16T11:10:30Z</time>
      </trkpt>
      <trkpt lat="41.3519160" lon="-8.7424580">
        <ele>11.5</ele>
        <time>2021-05-16T11:10:31Z</time>
      </trkpt>
      <trkpt lat="41.3519230" lon="-8.7424570">
        <ele>11.5</ele>
        <time>2021-05-16T11:10:32Z</time>
      </trkpt>
      <trkpt lat="41.3519400" lon="-8.7424640">
        <ele>11.5</ele>
        <time>2021-05-16T11:10:33Z</time>
      </trkpt>
      <trkpt lat="41.3519510" lon="-8.7424640">
        <ele>11.5</ele>
        <time>2021-05-16T11:10:34Z</time>
      </trkpt>
      <trkpt lat="41.3519670" lon="-8.7424790">
        <ele>11.5</ele>
        <time>2021-05-16T11:10:35Z</time>
      </trkpt>
      <trkpt lat="41.3519840" lon="-8.7424830">
        <ele>11.6</ele>
        <time>2021-05-16T11:10:36Z</time>
      </trkpt>
      <trkpt lat="41.3519990" lon="-8.7424860">
        <ele>11.6</ele>
        <time>2021-05-16T11:10:37Z</time>
      </trkpt>
      <trkpt lat="41.3520130" lon="-8.7424880">
        <ele>11.6</ele>
        <time>2021-05-16T11:10:38Z</time>
      </trkpt>
      <trkpt lat="41.3520310" lon="-8.7424870">
        <ele>11.6</ele>
        <time>2021-05-16T11:10:39Z</time>
      </trkpt>
      <trkpt lat="41.3520470" lon="-8.7424890">
        <ele>11.6</ele>
        <time>2021-05-16T11:10:40Z</time>
      </trkpt>
      <trkpt lat="41.3520680" lon="-8.7424910">
        <ele>11.6</ele>
        <time>2021-05-16T11:10:41Z</time>
      </trkpt>
      <trkpt lat="41.3520790" lon="-8.7424930">
        <ele>11.6</ele>
        <time>2021-05-16T11:10:43Z</time>
      </trkpt>
      <trkpt lat="41.3520890" lon="-8.7424940">
        <ele>11.6</ele>
        <time>2021-05-16T11:10:44Z</time>
      </trkpt>
      <trkpt lat="41.3521030" lon="-8.7425040">
        <ele>11.6</ele>
        <time>2021-05-16T11:10:45Z</time>
      </trkpt>
      <trkpt lat="41.3521160" lon="-8.7425020">
        <ele>11.6</ele>
        <time>2021-05-16T11:10:46Z</time>
      </trkpt>
      <trkpt lat="41.3521270" lon="-8.7425040">
        <ele>11.6</ele>
        <time>2021-05-16T11:10:47Z</time>
      </trkpt>
      <trkpt lat="41.3521360" lon="-8.7425050">
        <ele>11.6</ele>
        <time>2021-05-16T11:10:48Z</time>
      </trkpt>
      <trkpt lat="41.3521490" lon="-8.7425040">
        <ele>11.6</ele>
        <time>2021-05-16T11:10:49Z</time>
      </trkpt>
      <trkpt lat="41.3521660" lon="-8.7424920">
        <ele>11.7</ele>
        <time>2021-05-16T11:10:50Z</time>
      </trkpt>
      <trkpt lat="41.3521770" lon="-8.7425060">
        <ele>11.7</ele>
        <time>2021-05-16T11:10:51Z</time>
      </trkpt>
      <trkpt lat="41.3521900" lon="-8.7425160">
        <ele>11.7</ele>
        <time>2021-05-16T11:10:52Z</time>
      </trkpt>
      <trkpt lat="41.3522060" lon="-8.7425320">
        <ele>11.7</ele>
        <time>2021-05-16T11:10:53Z</time>
      </trkpt>
      <trkpt lat="41.3522190" lon="-8.7425320">
        <ele>11.7</ele>
        <time>2021-05-16T11:10:54Z</time>
      </trkpt>
      <trkpt lat="41.3522320" lon="-8.7425250">
        <ele>11.7</ele>
        <time>2021-05-16T11:10:55Z</time>
      </trkpt>
      <trkpt lat="41.3522420" lon="-8.7425350">
        <ele>11.7</ele>
        <time>2021-05-16T11:10:56Z</time>
      </trkpt>
      <trkpt lat="41.3522560" lon="-8.7425360">
        <ele>11.7</ele>
        <time>2021-05-16T11:10:57Z</time>
      </trkpt>
      <trkpt lat="41.3522620" lon="-8.7425400">
        <ele>11.7</ele>
        <time>2021-05-16T11:10:58Z</time>
      </trkpt>
      <trkpt lat="41.3522720" lon="-8.7425480">
        <ele>11.7</ele>
        <time>2021-05-16T11:10:59Z</time>
      </trkpt>
      <trkpt lat="41.3522850" lon="-8.7425490">
        <ele>11.7</ele>
        <time>2021-05-16T11:11:00Z</time>
      </trkpt>
      <trkpt lat="41.3523000" lon="-8.7425500">
        <ele>11.7</ele>
        <time>2021-05-16T11:11:01Z</time>
      </trkpt>
      <trkpt lat="41.3523100" lon="-8.7425540">
        <ele>11.7</ele>
        <time>2021-05-16T11:11:02Z</time>
      </trkpt>
      <trkpt lat="41.3523180" lon="-8.7425550">
        <ele>11.7</ele>
        <time>2021-05-16T11:11:03Z</time>
      </trkpt>
      <trkpt lat="41.3523280" lon="-8.7425510">
        <ele>11.7</ele>
        <time>2021-05-16T11:11:04Z</time>
      </trkpt>
      <trkpt lat="41.3523400" lon="-8.7425500">
        <ele>11.7</ele>
        <time>2021-05-16T11:11:05Z</time>
      </trkpt>
      <trkpt lat="41.3523480" lon="-8.7425590">
        <ele>11.7</ele>
        <time>2021-05-16T11:11:06Z</time>
      </trkpt>
      <trkpt lat="41.3523550" lon="-8.7425690">
        <ele>11.7</ele>
        <time>2021-05-16T11:11:07Z</time>
      </trkpt>
      <trkpt lat="41.3523650" lon="-8.7425680">
        <ele>11.7</ele>
        <time>2021-05-16T11:11:08Z</time>
      </trkpt>
      <trkpt lat="41.3523650" lon="-8.7425710">
        <ele>11.7</ele>
        <time>2021-05-16T11:11:09Z</time>
      </trkpt>
      <trkpt lat="41.3523610" lon="-8.7425680">
        <ele>11.7</ele>
        <time>2021-05-16T11:11:10Z</time>
      </trkpt>
      <trkpt lat="41.3523640" lon="-8.7425630">
        <ele>11.7</ele>
        <time>2021-05-16T11:11:11Z</time>
      </trkpt>
      <trkpt lat="41.3523690" lon="-8.7425670">
        <ele>11.7</ele>
        <time>2021-05-16T11:11:12Z</time>
      </trkpt>
      <trkpt lat="41.3523780" lon="-8.7425710">
        <ele>11.7</ele>
        <time>2021-05-16T11:11:13Z</time>
      </trkpt>
      <trkpt lat="41.3523830" lon="-8.7425770">
        <ele>11.6</ele>
        <time>2021-05-16T11:11:14Z</time>
      </trkpt>
      <trkpt lat="41.3523880" lon="-8.7425860">
        <ele>11.6</ele>
        <time>2021-05-16T11:11:15Z</time>
      </trkpt>
      <trkpt lat="41.3523860" lon="-8.7425890">
        <ele>11.6</ele>
        <time>2021-05-16T11:11:16Z</time>
      </trkpt>
      <trkpt lat="41.3524000" lon="-8.7425920">
        <ele>11.6</ele>
        <time>2021-05-16T11:11:17Z</time>
      </trkpt>
      <trkpt lat="41.3524120" lon="-8.7425990">
        <ele>11.6</ele>
        <time>2021-05-16T11:11:18Z</time>
      </trkpt>
      <trkpt lat="41.3524260" lon="-8.7426020">
        <ele>11.6</ele>
        <time>2021-05-16T11:11:19Z</time>
      </trkpt>
      <trkpt lat="41.3524390" lon="-8.7426030">
        <ele>11.6</ele>
        <time>2021-05-16T11:11:20Z</time>
      </trkpt>
      <trkpt lat="41.3524480" lon="-8.7426040">
        <ele>11.6</ele>
        <time>2021-05-16T11:11:21Z</time>
      </trkpt>
      <trkpt lat="41.3524520" lon="-8.7426030">
        <ele>11.6</ele>
        <time>2021-05-16T11:11:22Z</time>
      </trkpt>
      <trkpt lat="41.3524600" lon="-8.7426050">
        <ele>11.6</ele>
        <time>2021-05-16T11:11:23Z</time>
      </trkpt>
      <trkpt lat="41.3524690" lon="-8.7426210">
        <ele>11.6</ele>
        <time>2021-05-16T11:11:24Z</time>
      </trkpt>
      <trkpt lat="41.3524720" lon="-8.7426200">
        <ele>11.6</ele>
        <time>2021-05-16T11:11:25Z</time>
      </trkpt>
      <trkpt lat="41.3524820" lon="-8.7426230">
        <ele>11.6</ele>
        <time>2021-05-16T11:11:26Z</time>
      </trkpt>
      <trkpt lat="41.3524950" lon="-8.7426410">
        <ele>11.6</ele>
        <time>2021-05-16T11:11:27Z</time>
      </trkpt>
      <trkpt lat="41.3525170" lon="-8.7426660">
        <ele>11.5</ele>
        <time>2021-05-16T11:11:28Z</time>
      </trkpt>
      <trkpt lat="41.3525190" lon="-8.7426780">
        <ele>11.5</ele>
        <time>2021-05-16T11:11:29Z</time>
      </trkpt>
      <trkpt lat="41.3525400" lon="-8.7426870">
        <ele>11.5</ele>
        <time>2021-05-16T11:11:30Z</time>
      </trkpt>
      <trkpt lat="41.3525520" lon="-8.7426910">
        <ele>11.5</ele>
        <time>2021-05-16T11:11:31Z</time>
      </trkpt>
      <trkpt lat="41.3525570" lon="-8.7427090">
        <ele>11.5</ele>
        <time>2021-05-16T11:11:32Z</time>
      </trkpt>
      <trkpt lat="41.3525570" lon="-8.7427240">
        <ele>11.5</ele>
        <time>2021-05-16T11:11:33Z</time>
      </trkpt>
      <trkpt lat="41.3525560" lon="-8.7427220">
        <ele>11.5</ele>
        <time>2021-05-16T11:11:34Z</time>
      </trkpt>
      <trkpt lat="41.3525630" lon="-8.7427250">
        <ele>11.5</ele>
        <time>2021-05-16T11:11:35Z</time>
      </trkpt>
      <trkpt lat="41.3525600" lon="-8.7427450">
        <ele>11.4</ele>
        <time>2021-05-16T11:11:36Z</time>
      </trkpt>
      <trkpt lat="41.3525470" lon="-8.7427440">
        <ele>11.4</ele>
        <time>2021-05-16T11:11:37Z</time>
      </trkpt>
      <trkpt lat="41.3525420" lon="-8.7427490">
        <ele>11.4</ele>
        <time>2021-05-16T11:11:38Z</time>
      </trkpt>
      <trkpt lat="41.3525270" lon="-8.7427620">
        <ele>11.4</ele>
        <time>2021-05-16T11:11:39Z</time>
      </trkpt>
      <trkpt lat="41.3525210" lon="-8.7427730">
        <ele>11.4</ele>
        <time>2021-05-16T11:11:40Z</time>
      </trkpt>
      <trkpt lat="41.3525200" lon="-8.7427700">
        <ele>11.4</ele>
        <time>2021-05-16T11:11:41Z</time>
      </trkpt>
      <trkpt lat="41.3525140" lon="-8.7427740">
        <ele>11.4</ele>
        <time>2021-05-16T11:11:42Z</time>
      </trkpt>
      <trkpt lat="41.3525060" lon="-8.7427740">
        <ele>11.4</ele>
        <time>2021-05-16T11:11:43Z</time>
      </trkpt>
      <trkpt lat="41.3525030" lon="-8.7427810">
        <ele>11.4</ele>
        <time>2021-05-16T11:11:44Z</time>
      </trkpt>
      <trkpt lat="41.3524970" lon="-8.7427860">
        <ele>11.4</ele>
        <time>2021-05-16T11:11:45Z</time>
      </trkpt>
      <trkpt lat="41.3524960" lon="-8.7427900">
        <ele>11.4</ele>
        <time>2021-05-16T11:11:46Z</time>
      </trkpt>
      <trkpt lat="41.3525050" lon="-8.7427860">
        <ele>11.3</ele>
        <time>2021-05-16T11:11:47Z</time>
      </trkpt>
      <trkpt lat="41.3525010" lon="-8.7427860">
        <ele>11.3</ele>
        <time>2021-05-16T11:11:48Z</time>
      </trkpt>
      <trkpt lat="41.3525060" lon="-8.7427870">
        <ele>11.3</ele>
        <time>2021-05-16T11:11:49Z</time>
      </trkpt>
      <trkpt lat="41.3525300" lon="-8.7427950">
        <ele>11.3</ele>
        <time>2021-05-16T11:11:50Z</time>
      </trkpt>
      <trkpt lat="41.3525310" lon="-8.7427990">
        <ele>11.3</ele>
        <time>2021-05-16T11:11:51Z</time>
      </trkpt>
      <trkpt lat="41.3525290" lon="-8.7428010">
        <ele>11.3</ele>
        <time>2021-05-16T11:11:52Z</time>
      </trkpt>
      <trkpt lat="41.3525260" lon="-8.7428000">
        <ele>11.3</ele>
        <time>2021-05-16T11:11:53Z</time>
      </trkpt>
      <trkpt lat="41.3525240" lon="-8.7427990">
        <ele>11.3</ele>
        <time>2021-05-16T11:11:54Z</time>
      </trkpt>
      <trkpt lat="41.3525160" lon="-8.7427990">
        <ele>11.3</ele>
        <time>2021-05-16T11:11:55Z</time>
      </trkpt>
      <trkpt lat="41.3525120" lon="-8.7427990">
        <ele>11.3</ele>
        <time>2021-05-16T11:11:56Z</time>
      </trkpt>
      <trkpt lat="41.3525160" lon="-8.7427830">
        <ele>11.3</ele>
        <time>2021-05-16T11:11:57Z</time>
      </trkpt>
      <trkpt lat="41.3525160" lon="-8.7427830">
        <ele>11.3</ele>
        <time>2021-05-16T11:11:58Z</time>
      </trkpt>
      <trkpt lat="41.3525160" lon="-8.7427830">
        <ele>11.3</ele>
        <time>2021-05-16T11:11:59Z</time>
      </trkpt>
      <trkpt lat="41.3525160" lon="-8.7427830">
        <ele>11.3</ele>
        <time>2021-05-16T11:12:00Z</time>
      </trkpt>
      <trkpt lat="41.3525160" lon="-8.7427830">
        <ele>11.3</ele>
        <time>2021-05-16T11:12:01Z</time>
      </trkpt>
      <trkpt lat="41.3525160" lon="-8.7427830">
        <ele>11.3</ele>
        <time>2021-05-16T11:12:02Z</time>
      </trkpt>
      <trkpt lat="41.3525160" lon="-8.7427830">
        <ele>11.3</ele>
        <time>2021-05-16T11:12:03Z</time>
      </trkpt>
      <trkpt lat="41.3525010" lon="-8.7427790">
        <ele>11.3</ele>
        <time>2021-05-16T11:12:04Z</time>
      </trkpt>
      <trkpt lat="41.3524950" lon="-8.7427880">
        <ele>11.2</ele>
        <time>2021-05-16T11:12:05Z</time>
      </trkpt>
      <trkpt lat="41.3524920" lon="-8.7427900">
        <ele>11.2</ele>
        <time>2021-05-16T11:12:06Z</time>
      </trkpt>
      <trkpt lat="41.3524920" lon="-8.7427900">
        <ele>11.2</ele>
        <time>2021-05-16T11:12:07Z</time>
      </trkpt>
      <trkpt lat="41.3524720" lon="-8.7428010">
        <ele>11.2</ele>
        <time>2021-05-16T11:12:08Z</time>
      </trkpt>
      <trkpt lat="41.3524670" lon="-8.7428010">
        <ele>11.2</ele>
        <time>2021-05-16T11:12:09Z</time>
      </trkpt>
      <trkpt lat="41.3524680" lon="-8.7428030">
        <ele>11.2</ele>
        <time>2021-05-16T11:12:10Z</time>
      </trkpt>
      <trkpt lat="41.3524810" lon="-8.7428020">
        <ele>11.2</ele>
        <time>2021-05-16T11:12:11Z</time>
      </trkpt>
      <trkpt lat="41.3524880" lon="-8.7428020">
        <ele>11.2</ele>
        <time>2021-05-16T11:12:12Z</time>
      </trkpt>
      <trkpt lat="41.3524950" lon="-8.7427830">
        <ele>11.2</ele>
        <time>2021-05-16T11:12:13Z</time>
      </trkpt>
      <trkpt lat="41.3525030" lon="-8.7427830">
        <ele>11.1</ele>
        <time>2021-05-16T11:12:14Z</time>
      </trkpt>
      <trkpt lat="41.3525380" lon="-8.7428070">
        <ele>11.1</ele>
        <time>2021-05-16T11:12:15Z</time>
      </trkpt>
      <trkpt lat="41.3525340" lon="-8.7428270">
        <ele>11.1</ele>
        <time>2021-05-16T11:12:16Z</time>
      </trkpt>
      <trkpt lat="41.3525340" lon="-8.7428390">
        <ele>11.1</ele>
        <time>2021-05-16T11:12:17Z</time>
      </trkpt>
      <trkpt lat="41.3525500" lon="-8.7428410">
        <ele>11.0</ele>
        <time>2021-05-16T11:12:18Z</time>
      </trkpt>
      <trkpt lat="41.3525600" lon="-8.7428440">
        <ele>11.0</ele>
        <time>2021-05-16T11:12:19Z</time>
      </trkpt>
      <trkpt lat="41.3525690" lon="-8.7428470">
        <ele>11.0</ele>
        <time>2021-05-16T11:12:20Z</time>
      </trkpt>
      <trkpt lat="41.3525790" lon="-8.7428500">
        <ele>11.0</ele>
        <time>2021-05-16T11:12:21Z</time>
      </trkpt>
      <trkpt lat="41.3525920" lon="-8.7428490">
        <ele>11.0</ele>
        <time>2021-05-16T11:12:22Z</time>
      </trkpt>
      <trkpt lat="41.3526030" lon="-8.7428440">
        <ele>11.0</ele>
        <time>2021-05-16T11:12:23Z</time>
      </trkpt>
      <trkpt lat="41.3526090" lon="-8.7428340">
        <ele>10.9</ele>
        <time>2021-05-16T11:12:24Z</time>
      </trkpt>
      <trkpt lat="41.3526280" lon="-8.7428300">
        <ele>10.9</ele>
        <time>2021-05-16T11:12:25Z</time>
      </trkpt>
      <trkpt lat="41.3526380" lon="-8.7428260">
        <ele>10.9</ele>
        <time>2021-05-16T11:12:26Z</time>
      </trkpt>
      <trkpt lat="41.3526650" lon="-8.7428220">
        <ele>10.8</ele>
        <time>2021-05-16T11:12:27Z</time>
      </trkpt>
      <trkpt lat="41.3526740" lon="-8.7428180">
        <ele>10.8</ele>
        <time>2021-05-16T11:12:28Z</time>
      </trkpt>
      <trkpt lat="41.3526830" lon="-8.7428150">
        <ele>10.8</ele>
        <time>2021-05-16T11:12:29Z</time>
      </trkpt>
      <trkpt lat="41.3526920" lon="-8.7428150">
        <ele>10.8</ele>
        <time>2021-05-16T11:12:30Z</time>
      </trkpt>
      <trkpt lat="41.3527150" lon="-8.7428100">
        <ele>10.8</ele>
        <time>2021-05-16T11:12:31Z</time>
      </trkpt>
      <trkpt lat="41.3527230" lon="-8.7428130">
        <ele>10.8</ele>
        <time>2021-05-16T11:12:33Z</time>
      </trkpt>
      <trkpt lat="41.3527370" lon="-8.7428000">
        <ele>10.7</ele>
        <time>2021-05-16T11:12:34Z</time>
      </trkpt>
      <trkpt lat="41.3527450" lon="-8.7428060">
        <ele>10.7</ele>
        <time>2021-05-16T11:12:35Z</time>
      </trkpt>
      <trkpt lat="41.3527570" lon="-8.7428040">
        <ele>10.7</ele>
        <time>2021-05-16T11:12:36Z</time>
      </trkpt>
      <trkpt lat="41.3527600" lon="-8.7428050">
        <ele>10.7</ele>
        <time>2021-05-16T11:12:37Z</time>
      </trkpt>
      <trkpt lat="41.3527720" lon="-8.7428140">
        <ele>10.7</ele>
        <time>2021-05-16T11:12:38Z</time>
      </trkpt>
      <trkpt lat="41.3527990" lon="-8.7428070">
        <ele>10.6</ele>
        <time>2021-05-16T11:12:39Z</time>
      </trkpt>
      <trkpt lat="41.3528080" lon="-8.7428020">
        <ele>10.6</ele>
        <time>2021-05-16T11:12:40Z</time>
      </trkpt>
      <trkpt lat="41.3528200" lon="-8.7428030">
        <ele>10.5</ele>
        <time>2021-05-16T11:12:41Z</time>
      </trkpt>
      <trkpt lat="41.3528280" lon="-8.7427940">
        <ele>10.5</ele>
        <time>2021-05-16T11:12:42Z</time>
      </trkpt>
      <trkpt lat="41.3528350" lon="-8.7427950">
        <ele>10.5</ele>
        <time>2021-05-16T11:12:43Z</time>
      </trkpt>
      <trkpt lat="41.3528550" lon="-8.7427970">
        <ele>10.4</ele>
        <time>2021-05-16T11:12:44Z</time>
      </trkpt>
      <trkpt lat="41.3528640" lon="-8.7428030">
        <ele>10.4</ele>
        <time>2021-05-16T11:12:45Z</time>
      </trkpt>
      <trkpt lat="41.3528860" lon="-8.7427940">
        <ele>10.3</ele>
        <time>2021-05-16T11:12:46Z</time>
      </trkpt>
      <trkpt lat="41.3528980" lon="-8.7428010">
        <ele>10.3</ele>
        <time>2021-05-16T11:12:47Z</time>
      </trkpt>
      <trkpt lat="41.3529060" lon="-8.7428070">
        <ele>10.3</ele>
        <time>2021-05-16T11:12:48Z</time>
      </trkpt>
      <trkpt lat="41.3529190" lon="-8.7428090">
        <ele>10.3</ele>
        <time>2021-05-16T11:12:49Z</time>
      </trkpt>
      <trkpt lat="41.3529260" lon="-8.7428200">
        <ele>10.2</ele>
        <time>2021-05-16T11:12:50Z</time>
      </trkpt>
      <trkpt lat="41.3529370" lon="-8.7428200">
        <ele>10.2</ele>
        <time>2021-05-16T11:12:51Z</time>
      </trkpt>
      <trkpt lat="41.3529470" lon="-8.7428260">
        <ele>10.2</ele>
        <time>2021-05-16T11:12:52Z</time>
      </trkpt>
      <trkpt lat="41.3529600" lon="-8.7428270">
        <ele>10.2</ele>
        <time>2021-05-16T11:12:53Z</time>
      </trkpt>
      <trkpt lat="41.3529740" lon="-8.7428280">
        <ele>10.1</ele>
        <time>2021-05-16T11:12:54Z</time>
      </trkpt>
      <trkpt lat="41.3529800" lon="-8.7428290">
        <ele>10.1</ele>
        <time>2021-05-16T11:12:55Z</time>
      </trkpt>
      <trkpt lat="41.3529920" lon="-8.7428400">
        <ele>10.1</ele>
        <time>2021-05-16T11:12:56Z</time>
      </trkpt>
      <trkpt lat="41.3529980" lon="-8.7428530">
        <ele>10.1</ele>
        <time>2021-05-16T11:12:57Z</time>
      </trkpt>
      <trkpt lat="41.3529990" lon="-8.7428540">
        <ele>10.1</ele>
        <time>2021-05-16T11:12:58Z</time>
      </trkpt>
      <trkpt lat="41.3530110" lon="-8.7428590">
        <ele>10.0</ele>
        <time>2021-05-16T11:12:59Z</time>
      </trkpt>
      <trkpt lat="41.3530210" lon="-8.7428660">
        <ele>10.0</ele>
        <time>2021-05-16T11:13:00Z</time>
      </trkpt>
      <trkpt lat="41.3530310" lon="-8.7428670">
        <ele>10.0</ele>
        <time>2021-05-16T11:13:01Z</time>
      </trkpt>
      <trkpt lat="41.3530450" lon="-8.7428730">
        <ele>10.0</ele>
        <time>2021-05-16T11:13:02Z</time>
      </trkpt>
      <trkpt lat="41.3530480" lon="-8.7428850">
        <ele>10.0</ele>
        <time>2021-05-16T11:13:03Z</time>
      </trkpt>
      <trkpt lat="41.3530680" lon="-8.7428890">
        <ele>10.0</ele>
        <time>2021-05-16T11:13:04Z</time>
      </trkpt>
      <trkpt lat="41.3530750" lon="-8.7428940">
        <ele>9.9</ele>
        <time>2021-05-16T11:13:05Z</time>
      </trkpt>
      <trkpt lat="41.3530830" lon="-8.7429000">
        <ele>9.9</ele>
        <time>2021-05-16T11:13:06Z</time>
      </trkpt>
      <trkpt lat="41.3530890" lon="-8.7429040">
        <ele>9.9</ele>
        <time>2021-05-16T11:13:07Z</time>
      </trkpt>
      <trkpt lat="41.3531050" lon="-8.7429120">
        <ele>9.9</ele>
        <time>2021-05-16T11:13:08Z</time>
      </trkpt>
      <trkpt lat="41.3531150" lon="-8.7429160">
        <ele>9.9</ele>
        <time>2021-05-16T11:13:09Z</time>
      </trkpt>
      <trkpt lat="41.3531210" lon="-8.7429180">
        <ele>9.9</ele>
        <time>2021-05-16T11:13:10Z</time>
      </trkpt>
      <trkpt lat="41.3531310" lon="-8.7429270">
        <ele>9.9</ele>
        <time>2021-05-16T11:13:11Z</time>
      </trkpt>
      <trkpt lat="41.3531340" lon="-8.7429450">
        <ele>9.9</ele>
        <time>2021-05-16T11:13:12Z</time>
      </trkpt>
      <trkpt lat="41.3531460" lon="-8.7429580">
        <ele>9.8</ele>
        <time>2021-05-16T11:13:13Z</time>
      </trkpt>
      <trkpt lat="41.3531610" lon="-8.7429660">
        <ele>9.8</ele>
        <time>2021-05-16T11:13:14Z</time>
      </trkpt>
      <trkpt lat="41.3531720" lon="-8.7429730">
        <ele>9.8</ele>
        <time>2021-05-16T11:13:15Z</time>
      </trkpt>
      <trkpt lat="41.3531760" lon="-8.7429760">
        <ele>9.8</ele>
        <time>2021-05-16T11:13:16Z</time>
      </trkpt>
      <trkpt lat="41.3531790" lon="-8.7429790">
        <ele>9.8</ele>
        <time>2021-05-16T11:13:17Z</time>
      </trkpt>
      <trkpt lat="41.3531820" lon="-8.7429820">
        <ele>9.8</ele>
        <time>2021-05-16T11:13:18Z</time>
      </trkpt>
      <trkpt lat="41.3531850" lon="-8.7429860">
        <ele>9.8</ele>
        <time>2021-05-16T11:13:19Z</time>
      </trkpt>
      <trkpt lat="41.3531890" lon="-8.7429890">
        <ele>9.8</ele>
        <time>2021-05-16T11:13:20Z</time>
      </trkpt>
      <trkpt lat="41.3531920" lon="-8.7429920">
        <ele>9.8</ele>
        <time>2021-05-16T11:13:21Z</time>
      </trkpt>
      <trkpt lat="41.3531950" lon="-8.7429950">
        <ele>9.8</ele>
        <time>2021-05-16T11:13:22Z</time>
      </trkpt>
      <trkpt lat="41.3532050" lon="-8.7430020">
        <ele>9.8</ele>
        <time>2021-05-16T11:13:23Z</time>
      </trkpt>
      <trkpt lat="41.3532110" lon="-8.7430280">
        <ele>9.7</ele>
        <time>2021-05-16T11:13:24Z</time>
      </trkpt>
      <trkpt lat="41.3532130" lon="-8.7430390">
        <ele>9.7</ele>
        <time>2021-05-16T11:13:25Z</time>
      </trkpt>
      <trkpt lat="41.3532260" lon="-8.7430460">
        <ele>9.7</ele>
        <time>2021-05-16T11:13:26Z</time>
      </trkpt>
      <trkpt lat="41.3532340" lon="-8.7430510">
        <ele>9.7</ele>
        <time>2021-05-16T11:13:27Z</time>
      </trkpt>
      <trkpt lat="41.3532440" lon="-8.7430520">
        <ele>9.7</ele>
        <time>2021-05-16T11:13:28Z</time>
      </trkpt>
      <trkpt lat="41.3532550" lon="-8.7430690">
        <ele>9.7</ele>
        <time>2021-05-16T11:13:29Z</time>
      </trkpt>
      <trkpt lat="41.3532590" lon="-8.7430820">
        <ele>9.7</ele>
        <time>2021-05-16T11:13:30Z</time>
      </trkpt>
      <trkpt lat="41.3532700" lon="-8.7431010">
        <ele>9.7</ele>
        <time>2021-05-16T11:13:31Z</time>
      </trkpt>
      <trkpt lat="41.3532730" lon="-8.7431150">
        <ele>9.7</ele>
        <time>2021-05-16T11:13:32Z</time>
      </trkpt>
      <trkpt lat="41.3532890" lon="-8.7431330">
        <ele>9.7</ele>
        <time>2021-05-16T11:13:33Z</time>
      </trkpt>
      <trkpt lat="41.3532870" lon="-8.7431460">
        <ele>9.7</ele>
        <time>2021-05-16T11:13:34Z</time>
      </trkpt>
      <trkpt lat="41.3532980" lon="-8.7431600">
        <ele>9.7</ele>
        <time>2021-05-16T11:13:35Z</time>
      </trkpt>
      <trkpt lat="41.3533020" lon="-8.7431800">
        <ele>9.7</ele>
        <time>2021-05-16T11:13:36Z</time>
      </trkpt>
      <trkpt lat="41.3533100" lon="-8.7432030">
        <ele>9.7</ele>
        <time>2021-05-16T11:13:37Z</time>
      </trkpt>
      <trkpt lat="41.3533160" lon="-8.7432120">
        <ele>9.7</ele>
        <time>2021-05-16T11:13:38Z</time>
      </trkpt>
      <trkpt lat="41.3533230" lon="-8.7432210">
        <ele>9.7</ele>
        <time>2021-05-16T11:13:39Z</time>
      </trkpt>
      <trkpt lat="41.3533250" lon="-8.7432310">
        <ele>9.7</ele>
        <time>2021-05-16T11:13:40Z</time>
      </trkpt>
      <trkpt lat="41.3533290" lon="-8.7432450">
        <ele>9.7</ele>
        <time>2021-05-16T11:13:41Z</time>
      </trkpt>
      <trkpt lat="41.3533360" lon="-8.7432580">
        <ele>9.7</ele>
        <time>2021-05-16T11:13:42Z</time>
      </trkpt>
      <trkpt lat="41.3533330" lon="-8.7432680">
        <ele>9.8</ele>
        <time>2021-05-16T11:13:43Z</time>
      </trkpt>
      <trkpt lat="41.3533330" lon="-8.7432660">
        <ele>9.8</ele>
        <time>2021-05-16T11:13:44Z</time>
      </trkpt>
      <trkpt lat="41.3533330" lon="-8.7432600">
        <ele>9.8</ele>
        <time>2021-05-16T11:13:45Z</time>
      </trkpt>
      <trkpt lat="41.3533310" lon="-8.7432540">
        <ele>9.8</ele>
        <time>2021-05-16T11:13:46Z</time>
      </trkpt>
      <trkpt lat="41.3533290" lon="-8.7432520">
        <ele>9.8</ele>
        <time>2021-05-16T11:13:47Z</time>
      </trkpt>
      <trkpt lat="41.3533300" lon="-8.7432490">
        <ele>9.8</ele>
        <time>2021-05-16T11:13:48Z</time>
      </trkpt>
      <trkpt lat="41.3533310" lon="-8.7432530">
        <ele>9.8</ele>
        <time>2021-05-16T11:13:49Z</time>
      </trkpt>
      <trkpt lat="41.3533380" lon="-8.7432590">
        <ele>9.8</ele>
        <time>2021-05-16T11:13:50Z</time>
      </trkpt>
      <trkpt lat="41.3533420" lon="-8.7432640">
        <ele>9.8</ele>
        <time>2021-05-16T11:13:51Z</time>
      </trkpt>
      <trkpt lat="41.3533440" lon="-8.7432670">
        <ele>9.8</ele>
        <time>2021-05-16T11:13:52Z</time>
      </trkpt>
      <trkpt lat="41.3533430" lon="-8.7432660">
        <ele>9.8</ele>
        <time>2021-05-16T11:13:53Z</time>
      </trkpt>
      <trkpt lat="41.3533420" lon="-8.7432640">
        <ele>9.8</ele>
        <time>2021-05-16T11:13:54Z</time>
      </trkpt>
      <trkpt lat="41.3533400" lon="-8.7432620">
        <ele>9.8</ele>
        <time>2021-05-16T11:13:55Z</time>
      </trkpt>
      <trkpt lat="41.3533430" lon="-8.7432570">
        <ele>9.8</ele>
        <time>2021-05-16T11:13:56Z</time>
      </trkpt>
      <trkpt lat="41.3533460" lon="-8.7432540">
        <ele>9.8</ele>
        <time>2021-05-16T11:13:57Z</time>
      </trkpt>
      <trkpt lat="41.3533490" lon="-8.7432550">
        <ele>9.8</ele>
        <time>2021-05-16T11:13:58Z</time>
      </trkpt>
      <trkpt lat="41.3533540" lon="-8.7432580">
        <ele>9.8</ele>
        <time>2021-05-16T11:13:59Z</time>
      </trkpt>
      <trkpt lat="41.3533590" lon="-8.7432640">
        <ele>9.8</ele>
        <time>2021-05-16T11:14:00Z</time>
      </trkpt>
      <trkpt lat="41.3533620" lon="-8.7432750">
        <ele>9.8</ele>
        <time>2021-05-16T11:14:01Z</time>
      </trkpt>
      <trkpt lat="41.3533730" lon="-8.7432730">
        <ele>9.8</ele>
        <time>2021-05-16T11:14:02Z</time>
      </trkpt>
      <trkpt lat="41.3533810" lon="-8.7432700">
        <ele>9.8</ele>
        <time>2021-05-16T11:14:03Z</time>
      </trkpt>
      <trkpt lat="41.3533950" lon="-8.7432670">
        <ele>9.8</ele>
        <time>2021-05-16T11:14:04Z</time>
      </trkpt>
      <trkpt lat="41.3533980" lon="-8.7432650">
        <ele>9.8</ele>
        <time>2021-05-16T11:14:05Z</time>
      </trkpt>
      <trkpt lat="41.3534020" lon="-8.7432690">
        <ele>9.8</ele>
        <time>2021-05-16T11:14:06Z</time>
      </trkpt>
      <trkpt lat="41.3534070" lon="-8.7432740">
        <ele>9.8</ele>
        <time>2021-05-16T11:14:07Z</time>
      </trkpt>
      <trkpt lat="41.3534120" lon="-8.7432780">
        <ele>9.8</ele>
        <time>2021-05-16T11:14:08Z</time>
      </trkpt>
      <trkpt lat="41.3534170" lon="-8.7432830">
        <ele>9.8</ele>
        <time>2021-05-16T11:14:09Z</time>
      </trkpt>
      <trkpt lat="41.3534210" lon="-8.7432870">
        <ele>9.8</ele>
        <time>2021-05-16T11:14:10Z</time>
      </trkpt>
      <trkpt lat="41.3534260" lon="-8.7432920">
        <ele>9.8</ele>
        <time>2021-05-16T11:14:11Z</time>
      </trkpt>
      <trkpt lat="41.3534190" lon="-8.7433080">
        <ele>9.9</ele>
        <time>2021-05-16T11:14:12Z</time>
      </trkpt>
      <trkpt lat="41.3534120" lon="-8.7433160">
        <ele>9.9</ele>
        <time>2021-05-16T11:14:13Z</time>
      </trkpt>
      <trkpt lat="41.3534060" lon="-8.7433240">
        <ele>9.9</ele>
        <time>2021-05-16T11:14:14Z</time>
      </trkpt>
      <trkpt lat="41.3533990" lon="-8.7433320">
        <ele>9.9</ele>
        <time>2021-05-16T11:14:15Z</time>
      </trkpt>
      <trkpt lat="41.3533870" lon="-8.7433420">
        <ele>9.9</ele>
        <time>2021-05-16T11:14:16Z</time>
      </trkpt>
      <trkpt lat="41.3533810" lon="-8.7433460">
        <ele>9.9</ele>
        <time>2021-05-16T11:14:17Z</time>
      </trkpt>
      <trkpt lat="41.3533710" lon="-8.7433560">
        <ele>9.9</ele>
        <time>2021-05-16T11:14:18Z</time>
      </trkpt>
      <trkpt lat="41.3533630" lon="-8.7433670">
        <ele>9.9</ele>
        <time>2021-05-16T11:14:19Z</time>
      </trkpt>
      <trkpt lat="41.3533550" lon="-8.7433720">
        <ele>9.9</ele>
        <time>2021-05-16T11:14:20Z</time>
      </trkpt>
      <trkpt lat="41.3533480" lon="-8.7433780">
        <ele>9.9</ele>
        <time>2021-05-16T11:14:21Z</time>
      </trkpt>
      <trkpt lat="41.3533410" lon="-8.7433850">
        <ele>9.9</ele>
        <time>2021-05-16T11:14:22Z</time>
      </trkpt>
      <trkpt lat="41.3533430" lon="-8.7433900">
        <ele>9.9</ele>
        <time>2021-05-16T11:14:23Z</time>
      </trkpt>
      <trkpt lat="41.3533450" lon="-8.7433870">
        <ele>9.9</ele>
        <time>2021-05-16T11:14:24Z</time>
      </trkpt>
      <trkpt lat="41.3533450" lon="-8.7433890">
        <ele>9.9</ele>
        <time>2021-05-16T11:14:25Z</time>
      </trkpt>
      <trkpt lat="41.3533460" lon="-8.7433930">
        <ele>9.9</ele>
        <time>2021-05-16T11:14:26Z</time>
      </trkpt>
      <trkpt lat="41.3533480" lon="-8.7433950">
        <ele>9.9</ele>
        <time>2021-05-16T11:14:27Z</time>
      </trkpt>
      <trkpt lat="41.3533490" lon="-8.7433950">
        <ele>9.9</ele>
        <time>2021-05-16T11:14:28Z</time>
      </trkpt>
      <trkpt lat="41.3533490" lon="-8.7433960">
        <ele>9.9</ele>
        <time>2021-05-16T11:14:29Z</time>
      </trkpt>
      <trkpt lat="41.3533450" lon="-8.7433870">
        <ele>9.9</ele>
        <time>2021-05-16T11:14:30Z</time>
      </trkpt>
      <trkpt lat="41.3533450" lon="-8.7433880">
        <ele>9.9</ele>
        <time>2021-05-16T11:14:31Z</time>
      </trkpt>
      <trkpt lat="41.3533450" lon="-8.7433870">
        <ele>9.9</ele>
        <time>2021-05-16T11:14:32Z</time>
      </trkpt>
      <trkpt lat="41.3533460" lon="-8.7433900">
        <ele>9.9</ele>
        <time>2021-05-16T11:14:33Z</time>
      </trkpt>
      <trkpt lat="41.3533450" lon="-8.7433900">
        <ele>9.9</ele>
        <time>2021-05-16T11:14:34Z</time>
      </trkpt>
      <trkpt lat="41.3533440" lon="-8.7433830">
        <ele>9.9</ele>
        <time>2021-05-16T11:14:35Z</time>
      </trkpt>
      <trkpt lat="41.3533440" lon="-8.7433800">
        <ele>9.9</ele>
        <time>2021-05-16T11:14:36Z</time>
      </trkpt>
      <trkpt lat="41.3533460" lon="-8.7433750">
        <ele>9.9</ele>
        <time>2021-05-16T11:14:37Z</time>
      </trkpt>
      <trkpt lat="41.3533490" lon="-8.7433730">
        <ele>9.9</ele>
        <time>2021-05-16T11:14:38Z</time>
      </trkpt>
      <trkpt lat="41.3533510" lon="-8.7433710">
        <ele>9.9</ele>
        <time>2021-05-16T11:14:39Z</time>
      </trkpt>
      <trkpt lat="41.3533510" lon="-8.7433690">
        <ele>9.9</ele>
        <time>2021-05-16T11:14:40Z</time>
      </trkpt>
      <trkpt lat="41.3533480" lon="-8.7433670">
        <ele>9.9</ele>
        <time>2021-05-16T11:14:41Z</time>
      </trkpt>
      <trkpt lat="41.3533440" lon="-8.7433670">
        <ele>9.9</ele>
        <time>2021-05-16T11:14:42Z</time>
      </trkpt>
      <trkpt lat="41.3533470" lon="-8.7433610">
        <ele>9.9</ele>
        <time>2021-05-16T11:14:43Z</time>
      </trkpt>
      <trkpt lat="41.3533460" lon="-8.7433550">
        <ele>9.9</ele>
        <time>2021-05-16T11:14:44Z</time>
      </trkpt>
      <trkpt lat="41.3533450" lon="-8.7433520">
        <ele>9.9</ele>
        <time>2021-05-16T11:14:45Z</time>
      </trkpt>
      <trkpt lat="41.3533460" lon="-8.7433530">
        <ele>9.9</ele>
        <time>2021-05-16T11:14:46Z</time>
      </trkpt>
      <trkpt lat="41.3533480" lon="-8.7433530">
        <ele>9.9</ele>
        <time>2021-05-16T11:14:47Z</time>
      </trkpt>
      <trkpt lat="41.3533470" lon="-8.7433520">
        <ele>9.9</ele>
        <time>2021-05-16T11:14:48Z</time>
      </trkpt>
      <trkpt lat="41.3533460" lon="-8.7433500">
        <ele>9.9</ele>
        <time>2021-05-16T11:14:49Z</time>
      </trkpt>
      <trkpt lat="41.3533450" lon="-8.7433480">
        <ele>9.9</ele>
        <time>2021-05-16T11:14:50Z</time>
      </trkpt>
      <trkpt lat="41.3533460" lon="-8.7433480">
        <ele>9.9</ele>
        <time>2021-05-16T11:14:51Z</time>
      </trkpt>
      <trkpt lat="41.3533470" lon="-8.7433500">
        <ele>9.9</ele>
        <time>2021-05-16T11:14:52Z</time>
      </trkpt>
      <trkpt lat="41.3533490" lon="-8.7433540">
        <ele>9.9</ele>
        <time>2021-05-16T11:14:53Z</time>
      </trkpt>
      <trkpt lat="41.3533510" lon="-8.7433560">
        <ele>9.9</ele>
        <time>2021-05-16T11:14:54Z</time>
      </trkpt>
      <trkpt lat="41.3533510" lon="-8.7433590">
        <ele>9.9</ele>
        <time>2021-05-16T11:14:55Z</time>
      </trkpt>
      <trkpt lat="41.3533520" lon="-8.7433590">
        <ele>9.9</ele>
        <time>2021-05-16T11:14:56Z</time>
      </trkpt>
      <trkpt lat="41.3533540" lon="-8.7433600">
        <ele>9.9</ele>
        <time>2021-05-16T11:14:57Z</time>
      </trkpt>
      <trkpt lat="41.3533510" lon="-8.7433550">
        <ele>9.9</ele>
        <time>2021-05-16T11:14:58Z</time>
      </trkpt>
      <trkpt lat="41.3533490" lon="-8.7433590">
        <ele>9.9</ele>
        <time>2021-05-16T11:14:59Z</time>
      </trkpt>
      <trkpt lat="41.3533540" lon="-8.7433620">
        <ele>9.9</ele>
        <time>2021-05-16T11:15:00Z</time>
      </trkpt>
      <trkpt lat="41.3533520" lon="-8.7433670">
        <ele>9.9</ele>
        <time>2021-05-16T11:15:01Z</time>
      </trkpt>
      <trkpt lat="41.3533520" lon="-8.7433700">
        <ele>9.9</ele>
        <time>2021-05-16T11:15:02Z</time>
      </trkpt>
      <trkpt lat="41.3533530" lon="-8.7433830">
        <ele>9.9</ele>
        <time>2021-05-16T11:15:03Z</time>
      </trkpt>
      <trkpt lat="41.3533450" lon="-8.7433890">
        <ele>9.9</ele>
        <time>2021-05-16T11:15:04Z</time>
      </trkpt>
      <trkpt lat="41.3533380" lon="-8.7433890">
        <ele>9.9</ele>
        <time>2021-05-16T11:15:05Z</time>
      </trkpt>
      <trkpt lat="41.3533280" lon="-8.7433850">
        <ele>9.9</ele>
        <time>2021-05-16T11:15:06Z</time>
      </trkpt>
      <trkpt lat="41.3533230" lon="-8.7433840">
        <ele>9.9</ele>
        <time>2021-05-16T11:15:07Z</time>
      </trkpt>
      <trkpt lat="41.3533230" lon="-8.7433840">
        <ele>9.9</ele>
        <time>2021-05-16T11:15:08Z</time>
      </trkpt>
      <trkpt lat="41.3533170" lon="-8.7433810">
        <ele>9.9</ele>
        <time>2021-05-16T11:15:09Z</time>
      </trkpt>
      <trkpt lat="41.3533170" lon="-8.7433780">
        <ele>9.9</ele>
        <time>2021-05-16T11:15:10Z</time>
      </trkpt>
      <trkpt lat="41.3533160" lon="-8.7433770">
        <ele>9.9</ele>
        <time>2021-05-16T11:15:11Z</time>
      </trkpt>
      <trkpt lat="41.3533170" lon="-8.7433770">
        <ele>9.9</ele>
        <time>2021-05-16T11:15:12Z</time>
      </trkpt>
      <trkpt lat="41.3533180" lon="-8.7433780">
        <ele>9.9</ele>
        <time>2021-05-16T11:15:13Z</time>
      </trkpt>
      <trkpt lat="41.3533150" lon="-8.7433760">
        <ele>9.9</ele>
        <time>2021-05-16T11:15:14Z</time>
      </trkpt>
      <trkpt lat="41.3533190" lon="-8.7433790">
        <ele>9.9</ele>
        <time>2021-05-16T11:15:15Z</time>
      </trkpt>
      <trkpt lat="41.3533220" lon="-8.7433810">
        <ele>9.9</ele>
        <time>2021-05-16T11:15:16Z</time>
      </trkpt>
      <trkpt lat="41.3533230" lon="-8.7433840">
        <ele>9.9</ele>
        <time>2021-05-16T11:15:17Z</time>
      </trkpt>
      <trkpt lat="41.3533240" lon="-8.7433870">
        <ele>9.9</ele>
        <time>2021-05-16T11:15:18Z</time>
      </trkpt>
      <trkpt lat="41.3533240" lon="-8.7433890">
        <ele>9.9</ele>
        <time>2021-05-16T11:15:19Z</time>
      </trkpt>
      <trkpt lat="41.3533280" lon="-8.7433930">
        <ele>9.9</ele>
        <time>2021-05-16T11:15:20Z</time>
      </trkpt>
      <trkpt lat="41.3533320" lon="-8.7433960">
        <ele>9.9</ele>
        <time>2021-05-16T11:15:21Z</time>
      </trkpt>
      <trkpt lat="41.3533330" lon="-8.7434010">
        <ele>9.9</ele>
        <time>2021-05-16T11:15:22Z</time>
      </trkpt>
      <trkpt lat="41.3533390" lon="-8.7433970">
        <ele>9.9</ele>
        <time>2021-05-16T11:15:23Z</time>
      </trkpt>
      <trkpt lat="41.3533460" lon="-8.7434010">
        <ele>9.9</ele>
        <time>2021-05-16T11:15:24Z</time>
      </trkpt>
      <trkpt lat="41.3533470" lon="-8.7434070">
        <ele>9.9</ele>
        <time>2021-05-16T11:15:25Z</time>
      </trkpt>
      <trkpt lat="41.3533450" lon="-8.7434030">
        <ele>9.9</ele>
        <time>2021-05-16T11:15:26Z</time>
      </trkpt>
      <trkpt lat="41.3533420" lon="-8.7434080">
        <ele>9.9</ele>
        <time>2021-05-16T11:15:27Z</time>
      </trkpt>
      <trkpt lat="41.3533420" lon="-8.7434130">
        <ele>9.9</ele>
        <time>2021-05-16T11:15:28Z</time>
      </trkpt>
      <trkpt lat="41.3533400" lon="-8.7434210">
        <ele>9.9</ele>
        <time>2021-05-16T11:15:29Z</time>
      </trkpt>
      <trkpt lat="41.3533290" lon="-8.7434330">
        <ele>10.0</ele>
        <time>2021-05-16T11:15:30Z</time>
      </trkpt>
      <trkpt lat="41.3533260" lon="-8.7434470">
        <ele>10.0</ele>
        <time>2021-05-16T11:15:31Z</time>
      </trkpt>
      <trkpt lat="41.3533210" lon="-8.7434570">
        <ele>10.0</ele>
        <time>2021-05-16T11:15:32Z</time>
      </trkpt>
      <trkpt lat="41.3533120" lon="-8.7434740">
        <ele>10.0</ele>
        <time>2021-05-16T11:15:33Z</time>
      </trkpt>
      <trkpt lat="41.3533080" lon="-8.7434840">
        <ele>10.0</ele>
        <time>2021-05-16T11:15:34Z</time>
      </trkpt>
      <trkpt lat="41.3533080" lon="-8.7435050">
        <ele>10.0</ele>
        <time>2021-05-16T11:15:35Z</time>
      </trkpt>
      <trkpt lat="41.3533070" lon="-8.7435130">
        <ele>10.0</ele>
        <time>2021-05-16T11:15:36Z</time>
      </trkpt>
      <trkpt lat="41.3532930" lon="-8.7435330">
        <ele>10.0</ele>
        <time>2021-05-16T11:15:37Z</time>
      </trkpt>
      <trkpt lat="41.3532890" lon="-8.7435450">
        <ele>10.0</ele>
        <time>2021-05-16T11:15:38Z</time>
      </trkpt>
      <trkpt lat="41.3532840" lon="-8.7435560">
        <ele>10.0</ele>
        <time>2021-05-16T11:15:39Z</time>
      </trkpt>
      <trkpt lat="41.3532880" lon="-8.7435760">
        <ele>10.0</ele>
        <time>2021-05-16T11:15:40Z</time>
      </trkpt>
      <trkpt lat="41.3532800" lon="-8.7435770">
        <ele>10.0</ele>
        <time>2021-05-16T11:15:41Z</time>
      </trkpt>
      <trkpt lat="41.3532800" lon="-8.7435930">
        <ele>10.0</ele>
        <time>2021-05-16T11:15:42Z</time>
      </trkpt>
      <trkpt lat="41.3532650" lon="-8.7436140">
        <ele>10.0</ele>
        <time>2021-05-16T11:15:43Z</time>
      </trkpt>
      <trkpt lat="41.3532600" lon="-8.7436240">
        <ele>10.0</ele>
        <time>2021-05-16T11:15:44Z</time>
      </trkpt>
      <trkpt lat="41.3532460" lon="-8.7436360">
        <ele>10.0</ele>
        <time>2021-05-16T11:15:45Z</time>
      </trkpt>
      <trkpt lat="41.3532450" lon="-8.7436570">
        <ele>10.0</ele>
        <time>2021-05-16T11:15:46Z</time>
      </trkpt>
      <trkpt lat="41.3532450" lon="-8.7436670">
        <ele>10.0</ele>
        <time>2021-05-16T11:15:47Z</time>
      </trkpt>
      <trkpt lat="41.3532290" lon="-8.7436780">
        <ele>10.0</ele>
        <time>2021-05-16T11:15:48Z</time>
      </trkpt>
      <trkpt lat="41.3532190" lon="-8.7436780">
        <ele>10.0</ele>
        <time>2021-05-16T11:15:49Z</time>
      </trkpt>
      <trkpt lat="41.3531910" lon="-8.7436790">
        <ele>10.0</ele>
        <time>2021-05-16T11:15:50Z</time>
      </trkpt>
      <trkpt lat="41.3531740" lon="-8.7436760">
        <ele>10.0</ele>
        <time>2021-05-16T11:15:51Z</time>
      </trkpt>
      <trkpt lat="41.3531430" lon="-8.7436910">
        <ele>10.0</ele>
        <time>2021-05-16T11:15:52Z</time>
      </trkpt>
      <trkpt lat="41.3531330" lon="-8.7436990">
        <ele>10.0</ele>
        <time>2021-05-16T11:15:53Z</time>
      </trkpt>
      <trkpt lat="41.3531030" lon="-8.7437190">
        <ele>10.0</ele>
        <time>2021-05-16T11:15:54Z</time>
      </trkpt>
      <trkpt lat="41.3530900" lon="-8.7437320">
        <ele>10.0</ele>
        <time>2021-05-16T11:15:55Z</time>
      </trkpt>
      <trkpt lat="41.3530570" lon="-8.7437550">
        <ele>9.9</ele>
        <time>2021-05-16T11:15:56Z</time>
      </trkpt>
      <trkpt lat="41.3530470" lon="-8.7437640">
        <ele>9.9</ele>
        <time>2021-05-16T11:15:57Z</time>
      </trkpt>
      <trkpt lat="41.3530120" lon="-8.7437780">
        <ele>9.9</ele>
        <time>2021-05-16T11:15:58Z</time>
      </trkpt>
      <trkpt lat="41.3529990" lon="-8.7437810">
        <ele>9.9</ele>
        <time>2021-05-16T11:15:59Z</time>
      </trkpt>
      <trkpt lat="41.3529790" lon="-8.7437940">
        <ele>9.9</ele>
        <time>2021-05-16T11:16:00Z</time>
      </trkpt>
      <trkpt lat="41.3529710" lon="-8.7438070">
        <ele>9.9</ele>
        <time>2021-05-16T11:16:01Z</time>
      </trkpt>
      <trkpt lat="41.3529670" lon="-8.7438330">
        <ele>9.9</ele>
        <time>2021-05-16T11:16:02Z</time>
      </trkpt>
      <trkpt lat="41.3529700" lon="-8.7438490">
        <ele>9.9</ele>
        <time>2021-05-16T11:16:03Z</time>
      </trkpt>
      <trkpt lat="41.3529720" lon="-8.7438650">
        <ele>9.9</ele>
        <time>2021-05-16T11:16:04Z</time>
      </trkpt>
      <trkpt lat="41.3529880" lon="-8.7439090">
        <ele>9.9</ele>
        <time>2021-05-16T11:16:05Z</time>
      </trkpt>
      <trkpt lat="41.3530020" lon="-8.7439250">
        <ele>9.9</ele>
        <time>2021-05-16T11:16:06Z</time>
      </trkpt>
      <trkpt lat="41.3530140" lon="-8.7439650">
        <ele>9.9</ele>
        <time>2021-05-16T11:16:07Z</time>
      </trkpt>
      <trkpt lat="41.3530180" lon="-8.7439780">
        <ele>9.9</ele>
        <time>2021-05-16T11:16:08Z</time>
      </trkpt>
      <trkpt lat="41.3530180" lon="-8.7440000">
        <ele>9.9</ele>
        <time>2021-05-16T11:16:09Z</time>
      </trkpt>
      <trkpt lat="41.3530160" lon="-8.7440170">
        <ele>9.8</ele>
        <time>2021-05-16T11:16:10Z</time>
      </trkpt>
      <trkpt lat="41.3530130" lon="-8.7440340">
        <ele>9.8</ele>
        <time>2021-05-16T11:16:11Z</time>
      </trkpt>
      <trkpt lat="41.3530020" lon="-8.7440560">
        <ele>9.8</ele>
        <time>2021-05-16T11:16:12Z</time>
      </trkpt>
      <trkpt lat="41.3529980" lon="-8.7440660">
        <ele>9.8</ele>
        <time>2021-05-16T11:16:13Z</time>
      </trkpt>
      <trkpt lat="41.3529930" lon="-8.7440750">
        <ele>9.8</ele>
        <time>2021-05-16T11:16:14Z</time>
      </trkpt>
      <trkpt lat="41.3529880" lon="-8.7440830">
        <ele>9.8</ele>
        <time>2021-05-16T11:16:15Z</time>
      </trkpt>
      <trkpt lat="41.3529790" lon="-8.7441130">
        <ele>9.8</ele>
        <time>2021-05-16T11:16:16Z</time>
      </trkpt>
      <trkpt lat="41.3529780" lon="-8.7441160">
        <ele>9.8</ele>
        <time>2021-05-16T11:16:17Z</time>
      </trkpt>
      <trkpt lat="41.3529660" lon="-8.7441210">
        <ele>9.8</ele>
        <time>2021-05-16T11:16:18Z</time>
      </trkpt>
      <trkpt lat="41.3529530" lon="-8.7441300">
        <ele>9.8</ele>
        <time>2021-05-16T11:16:19Z</time>
      </trkpt>
      <trkpt lat="41.3529410" lon="-8.7441610">
        <ele>9.8</ele>
        <time>2021-05-16T11:16:20Z</time>
      </trkpt>
      <trkpt lat="41.3529360" lon="-8.7441760">
        <ele>9.8</ele>
        <time>2021-05-16T11:16:21Z</time>
      </trkpt>
      <trkpt lat="41.3529320" lon="-8.7442170">
        <ele>9.8</ele>
        <time>2021-05-16T11:16:22Z</time>
      </trkpt>
      <trkpt lat="41.3529300" lon="-8.7442290">
        <ele>9.8</ele>
        <time>2021-05-16T11:16:23Z</time>
      </trkpt>
      <trkpt lat="41.3529200" lon="-8.7442500">
        <ele>9.7</ele>
        <time>2021-05-16T11:16:24Z</time>
      </trkpt>
      <trkpt lat="41.3529210" lon="-8.7442740">
        <ele>9.7</ele>
        <time>2021-05-16T11:16:25Z</time>
      </trkpt>
      <trkpt lat="41.3529240" lon="-8.7442990">
        <ele>9.7</ele>
        <time>2021-05-16T11:16:26Z</time>
      </trkpt>
      <trkpt lat="41.3528970" lon="-8.7443290">
        <ele>9.7</ele>
        <time>2021-05-16T11:16:27Z</time>
      </trkpt>
      <trkpt lat="41.3529000" lon="-8.7443410">
        <ele>9.7</ele>
        <time>2021-05-16T11:16:28Z</time>
      </trkpt>
      <trkpt lat="41.3529100" lon="-8.7443540">
        <ele>9.7</ele>
        <time>2021-05-16T11:16:29Z</time>
      </trkpt>
      <trkpt lat="41.3528990" lon="-8.7443840">
        <ele>9.7</ele>
        <time>2021-05-16T11:16:30Z</time>
      </trkpt>
      <trkpt lat="41.3528970" lon="-8.7443980">
        <ele>9.7</ele>
        <time>2021-05-16T11:16:31Z</time>
      </trkpt>
      <trkpt lat="41.3528950" lon="-8.7444040">
        <ele>9.7</ele>
        <time>2021-05-16T11:16:32Z</time>
      </trkpt>
      <trkpt lat="41.3529000" lon="-8.7444220">
        <ele>9.7</ele>
        <time>2021-05-16T11:16:33Z</time>
      </trkpt>
      <trkpt lat="41.3529010" lon="-8.7444460">
        <ele>9.7</ele>
        <time>2021-05-16T11:16:34Z</time>
      </trkpt>
      <trkpt lat="41.3528980" lon="-8.7444640">
        <ele>9.7</ele>
        <time>2021-05-16T11:16:35Z</time>
      </trkpt>
      <trkpt lat="41.3529010" lon="-8.7444920">
        <ele>9.7</ele>
        <time>2021-05-16T11:16:36Z</time>
      </trkpt>
      <trkpt lat="41.3528960" lon="-8.7445000">
        <ele>9.7</ele>
        <time>2021-05-16T11:16:37Z</time>
      </trkpt>
      <trkpt lat="41.3529090" lon="-8.7445330">
        <ele>9.7</ele>
        <time>2021-05-16T11:16:38Z</time>
      </trkpt>
      <trkpt lat="41.3529030" lon="-8.7445530">
        <ele>9.6</ele>
        <time>2021-05-16T11:16:39Z</time>
      </trkpt>
      <trkpt lat="41.3529100" lon="-8.7445530">
        <ele>9.6</ele>
        <time>2021-05-16T11:16:40Z</time>
      </trkpt>
      <trkpt lat="41.3529010" lon="-8.7445530">
        <ele>9.6</ele>
        <time>2021-05-16T11:16:41Z</time>
      </trkpt>
      <trkpt lat="41.3528950" lon="-8.7445690">
        <ele>9.6</ele>
        <time>2021-05-16T11:16:42Z</time>
      </trkpt>
      <trkpt lat="41.3528900" lon="-8.7445840">
        <ele>9.6</ele>
        <time>2021-05-16T11:16:43Z</time>
      </trkpt>
      <trkpt lat="41.3528910" lon="-8.7446030">
        <ele>9.6</ele>
        <time>2021-05-16T11:16:44Z</time>
      </trkpt>
      <trkpt lat="41.3528930" lon="-8.7446150">
        <ele>9.6</ele>
        <time>2021-05-16T11:16:45Z</time>
      </trkpt>
      <trkpt lat="41.3528880" lon="-8.7446450">
        <ele>9.6</ele>
        <time>2021-05-16T11:16:46Z</time>
      </trkpt>
      <trkpt lat="41.3528900" lon="-8.7446550">
        <ele>9.6</ele>
        <time>2021-05-16T11:16:47Z</time>
      </trkpt>
      <trkpt lat="41.3528930" lon="-8.7446660">
        <ele>9.6</ele>
        <time>2021-05-16T11:16:48Z</time>
      </trkpt>
      <trkpt lat="41.3528920" lon="-8.7446960">
        <ele>9.6</ele>
        <time>2021-05-16T11:16:50Z</time>
      </trkpt>
      <trkpt lat="41.3528930" lon="-8.7447110">
        <ele>9.6</ele>
        <time>2021-05-16T11:16:51Z</time>
      </trkpt>
      <trkpt lat="41.3528890" lon="-8.7447310">
        <ele>9.5</ele>
        <time>2021-05-16T11:16:52Z</time>
      </trkpt>
      <trkpt lat="41.3528860" lon="-8.7447460">
        <ele>9.5</ele>
        <time>2021-05-16T11:16:53Z</time>
      </trkpt>
      <trkpt lat="41.3528920" lon="-8.7447630">
        <ele>9.5</ele>
        <time>2021-05-16T11:16:54Z</time>
      </trkpt>
      <trkpt lat="41.3528920" lon="-8.7447850">
        <ele>9.5</ele>
        <time>2021-05-16T11:16:55Z</time>
      </trkpt>
      <trkpt lat="41.3528890" lon="-8.7447950">
        <ele>9.5</ele>
        <time>2021-05-16T11:16:56Z</time>
      </trkpt>
      <trkpt lat="41.3528890" lon="-8.7448070">
        <ele>9.5</ele>
        <time>2021-05-16T11:16:57Z</time>
      </trkpt>
      <trkpt lat="41.3528820" lon="-8.7448140">
        <ele>9.5</ele>
        <time>2021-05-16T11:16:58Z</time>
      </trkpt>
      <trkpt lat="41.3528700" lon="-8.7448240">
        <ele>9.5</ele>
        <time>2021-05-16T11:16:59Z</time>
      </trkpt>
      <trkpt lat="41.3528650" lon="-8.7448340">
        <ele>9.5</ele>
        <time>2021-05-16T11:17:00Z</time>
      </trkpt>
      <trkpt lat="41.3528580" lon="-8.7448330">
        <ele>9.5</ele>
        <time>2021-05-16T11:17:01Z</time>
      </trkpt>
      <trkpt lat="41.3528500" lon="-8.7448340">
        <ele>9.5</ele>
        <time>2021-05-16T11:17:02Z</time>
      </trkpt>
      <trkpt lat="41.3528370" lon="-8.7448360">
        <ele>9.5</ele>
        <time>2021-05-16T11:17:03Z</time>
      </trkpt>
      <trkpt lat="41.3528280" lon="-8.7448440">
        <ele>9.5</ele>
        <time>2021-05-16T11:17:04Z</time>
      </trkpt>
      <trkpt lat="41.3528150" lon="-8.7448490">
        <ele>9.4</ele>
        <time>2021-05-16T11:17:05Z</time>
      </trkpt>
      <trkpt lat="41.3528120" lon="-8.7448460">
        <ele>9.4</ele>
        <time>2021-05-16T11:17:06Z</time>
      </trkpt>
      <trkpt lat="41.3528080" lon="-8.7448420">
        <ele>9.4</ele>
        <time>2021-05-16T11:17:07Z</time>
      </trkpt>
      <trkpt lat="41.3527900" lon="-8.7448560">
        <ele>9.4</ele>
        <time>2021-05-16T11:17:08Z</time>
      </trkpt>
      <trkpt lat="41.3527850" lon="-8.7448690">
        <ele>9.4</ele>
        <time>2021-05-16T11:17:09Z</time>
      </trkpt>
      <trkpt lat="41.3527790" lon="-8.7448820">
        <ele>9.4</ele>
        <time>2021-05-16T11:17:10Z</time>
      </trkpt>
      <trkpt lat="41.3527690" lon="-8.7449180">
        <ele>9.4</ele>
        <time>2021-05-16T11:17:11Z</time>
      </trkpt>
      <trkpt lat="41.3527650" lon="-8.7449270">
        <ele>9.3</ele>
        <time>2021-05-16T11:17:12Z</time>
      </trkpt>
      <trkpt lat="41.3527690" lon="-8.7449350">
        <ele>9.3</ele>
        <time>2021-05-16T11:17:13Z</time>
      </trkpt>
      <trkpt lat="41.3527680" lon="-8.7449720">
        <ele>9.3</ele>
        <time>2021-05-16T11:17:14Z</time>
      </trkpt>
      <trkpt lat="41.3527550" lon="-8.7450030">
        <ele>9.3</ele>
        <time>2021-05-16T11:17:15Z</time>
      </trkpt>
      <trkpt lat="41.3527510" lon="-8.7450130">
        <ele>9.3</ele>
        <time>2021-05-16T11:17:16Z</time>
      </trkpt>
      <trkpt lat="41.3527470" lon="-8.7450220">
        <ele>9.3</ele>
        <time>2021-05-16T11:17:17Z</time>
      </trkpt>
      <trkpt lat="41.3527480" lon="-8.7450210">
        <ele>9.3</ele>
        <time>2021-05-16T11:17:18Z</time>
      </trkpt>
      <trkpt lat="41.3527480" lon="-8.7450410">
        <ele>9.2</ele>
        <time>2021-05-16T11:17:19Z</time>
      </trkpt>
      <trkpt lat="41.3527510" lon="-8.7450630">
        <ele>9.2</ele>
        <time>2021-05-16T11:17:20Z</time>
      </trkpt>
      <trkpt lat="41.3527500" lon="-8.7451050">
        <ele>9.2</ele>
        <time>2021-05-16T11:17:21Z</time>
      </trkpt>
      <trkpt lat="41.3527470" lon="-8.7451180">
        <ele>9.2</ele>
        <time>2021-05-16T11:17:22Z</time>
      </trkpt>
      <trkpt lat="41.3527360" lon="-8.7451490">
        <ele>9.1</ele>
        <time>2021-05-16T11:17:23Z</time>
      </trkpt>
      <trkpt lat="41.3527330" lon="-8.7451650">
        <ele>9.1</ele>
        <time>2021-05-16T11:17:24Z</time>
      </trkpt>
      <trkpt lat="41.3527310" lon="-8.7452060">
        <ele>9.1</ele>
        <time>2021-05-16T11:17:25Z</time>
      </trkpt>
      <trkpt lat="41.3527300" lon="-8.7452170">
        <ele>9.1</ele>
        <time>2021-05-16T11:17:26Z</time>
      </trkpt>
      <trkpt lat="41.3527380" lon="-8.7452510">
        <ele>9.1</ele>
        <time>2021-05-16T11:17:27Z</time>
      </trkpt>
      <trkpt lat="41.3527320" lon="-8.7452570">
        <ele>9.1</ele>
        <time>2021-05-16T11:17:28Z</time>
      </trkpt>
      <trkpt lat="41.3527230" lon="-8.7452830">
        <ele>9.0</ele>
        <time>2021-05-16T11:17:29Z</time>
      </trkpt>
      <trkpt lat="41.3527180" lon="-8.7452990">
        <ele>9.0</ele>
        <time>2021-05-16T11:17:30Z</time>
      </trkpt>
      <trkpt lat="41.3527120" lon="-8.7453140">
        <ele>9.0</ele>
        <time>2021-05-16T11:17:31Z</time>
      </trkpt>
      <trkpt lat="41.3527150" lon="-8.7453390">
        <ele>9.0</ele>
        <time>2021-05-16T11:17:32Z</time>
      </trkpt>
      <trkpt lat="41.3527130" lon="-8.7453500">
        <ele>9.0</ele>
        <time>2021-05-16T11:17:33Z</time>
      </trkpt>
      <trkpt lat="41.3527070" lon="-8.7453670">
        <ele>9.0</ele>
        <time>2021-05-16T11:17:34Z</time>
      </trkpt>
      <trkpt lat="41.3526970" lon="-8.7453810">
        <ele>8.9</ele>
        <time>2021-05-16T11:17:35Z</time>
      </trkpt>
      <trkpt lat="41.3526910" lon="-8.7454170">
        <ele>8.9</ele>
        <time>2021-05-16T11:17:36Z</time>
      </trkpt>
      <trkpt lat="41.3526780" lon="-8.7454290">
        <ele>8.9</ele>
        <time>2021-05-16T11:17:37Z</time>
      </trkpt>
      <trkpt lat="41.3526640" lon="-8.7454370">
        <ele>8.9</ele>
        <time>2021-05-16T11:17:38Z</time>
      </trkpt>
      <trkpt lat="41.3526590" lon="-8.7454610">
        <ele>8.9</ele>
        <time>2021-05-16T11:17:39Z</time>
      </trkpt>
      <trkpt lat="41.3526530" lon="-8.7454730">
        <ele>8.9</ele>
        <time>2021-05-16T11:17:40Z</time>
      </trkpt>
      <trkpt lat="41.3526460" lon="-8.7454850">
        <ele>8.8</ele>
        <time>2021-05-16T11:17:41Z</time>
      </trkpt>
      <trkpt lat="41.3526430" lon="-8.7454950">
        <ele>8.8</ele>
        <time>2021-05-16T11:17:42Z</time>
      </trkpt>
      <trkpt lat="41.3526370" lon="-8.7455060">
        <ele>8.8</ele>
        <time>2021-05-16T11:17:43Z</time>
      </trkpt>
      <trkpt lat="41.3526300" lon="-8.7455110">
        <ele>8.8</ele>
        <time>2021-05-16T11:17:44Z</time>
      </trkpt>
      <trkpt lat="41.3526170" lon="-8.7455080">
        <ele>8.8</ele>
        <time>2021-05-16T11:17:45Z</time>
      </trkpt>
      <trkpt lat="41.3526070" lon="-8.7455240">
        <ele>8.8</ele>
        <time>2021-05-16T11:17:46Z</time>
      </trkpt>
      <trkpt lat="41.3526040" lon="-8.7455310">
        <ele>8.8</ele>
        <time>2021-05-16T11:17:47Z</time>
      </trkpt>
      <trkpt lat="41.3526010" lon="-8.7455370">
        <ele>8.8</ele>
        <time>2021-05-16T11:17:48Z</time>
      </trkpt>
      <trkpt lat="41.3525980" lon="-8.7455440">
        <ele>8.8</ele>
        <time>2021-05-16T11:17:49Z</time>
      </trkpt>
      <trkpt lat="41.3525950" lon="-8.7455500">
        <ele>8.8</ele>
        <time>2021-05-16T11:17:50Z</time>
      </trkpt>
      <trkpt lat="41.3525930" lon="-8.7455640">
        <ele>8.8</ele>
        <time>2021-05-16T11:17:51Z</time>
      </trkpt>
      <trkpt lat="41.3525930" lon="-8.7455800">
        <ele>8.8</ele>
        <time>2021-05-16T11:17:52Z</time>
      </trkpt>
      <trkpt lat="41.3525930" lon="-8.7455930">
        <ele>8.7</ele>
        <time>2021-05-16T11:17:53Z</time>
      </trkpt>
      <trkpt lat="41.3525840" lon="-8.7456210">
        <ele>8.7</ele>
        <time>2021-05-16T11:17:54Z</time>
      </trkpt>
      <trkpt lat="41.3525820" lon="-8.7456310">
        <ele>8.7</ele>
        <time>2021-05-16T11:17:55Z</time>
      </trkpt>
      <trkpt lat="41.3525790" lon="-8.7456420">
        <ele>8.7</ele>
        <time>2021-05-16T11:17:56Z</time>
      </trkpt>
      <trkpt lat="41.3525770" lon="-8.7456540">
        <ele>8.7</ele>
        <time>2021-05-16T11:17:57Z</time>
      </trkpt>
      <trkpt lat="41.3525680" lon="-8.7456760">
        <ele>8.7</ele>
        <time>2021-05-16T11:17:58Z</time>
      </trkpt>
      <trkpt lat="41.3525640" lon="-8.7456920">
        <ele>8.7</ele>
        <time>2021-05-16T11:17:59Z</time>
      </trkpt>
      <trkpt lat="41.3525490" lon="-8.7457020">
        <ele>8.7</ele>
        <time>2021-05-16T11:18:00Z</time>
      </trkpt>
      <trkpt lat="41.3525430" lon="-8.7457110">
        <ele>8.7</ele>
        <time>2021-05-16T11:18:01Z</time>
      </trkpt>
      <trkpt lat="41.3525340" lon="-8.7457290">
        <ele>8.7</ele>
        <time>2021-05-16T11:18:02Z</time>
      </trkpt>
      <trkpt lat="41.3525200" lon="-8.7457290">
        <ele>8.6</ele>
        <time>2021-05-16T11:18:03Z</time>
      </trkpt>
      <trkpt lat="41.3525090" lon="-8.7457290">
        <ele>8.6</ele>
        <time>2021-05-16T11:18:04Z</time>
      </trkpt>
      <trkpt lat="41.3525040" lon="-8.7457420">
        <ele>8.6</ele>
        <time>2021-05-16T11:18:05Z</time>
      </trkpt>
      <trkpt lat="41.3524880" lon="-8.7457520">
        <ele>8.6</ele>
        <time>2021-05-16T11:18:06Z</time>
      </trkpt>
      <trkpt lat="41.3524660" lon="-8.7457610">
        <ele>8.6</ele>
        <time>2021-05-16T11:18:07Z</time>
      </trkpt>
      <trkpt lat="41.3524570" lon="-8.7457640">
        <ele>8.6</ele>
        <time>2021-05-16T11:18:08Z</time>
      </trkpt>
      <trkpt lat="41.3524470" lon="-8.7457670">
        <ele>8.6</ele>
        <time>2021-05-16T11:18:09Z</time>
      </trkpt>
      <trkpt lat="41.3524190" lon="-8.7457850">
        <ele>8.6</ele>
        <time>2021-05-16T11:18:10Z</time>
      </trkpt>
      <trkpt lat="41.3524080" lon="-8.7457950">
        <ele>8.6</ele>
        <time>2021-05-16T11:18:11Z</time>
      </trkpt>
      <trkpt lat="41.3523840" lon="-8.7458100">
        <ele>8.6</ele>
        <time>2021-05-16T11:18:12Z</time>
      </trkpt>
      <trkpt lat="41.3523750" lon="-8.7458200">
        <ele>8.6</ele>
        <time>2021-05-16T11:18:13Z</time>
      </trkpt>
      <trkpt lat="41.3523430" lon="-8.7458310">
        <ele>8.6</ele>
        <time>2021-05-16T11:18:14Z</time>
      </trkpt>
      <trkpt lat="41.3523150" lon="-8.7458440">
        <ele>8.5</ele>
        <time>2021-05-16T11:18:15Z</time>
      </trkpt>
      <trkpt lat="41.3522960" lon="-8.7458750">
        <ele>8.5</ele>
        <time>2021-05-16T11:18:16Z</time>
      </trkpt>
      <trkpt lat="41.3522880" lon="-8.7458830">
        <ele>8.5</ele>
        <time>2021-05-16T11:18:17Z</time>
      </trkpt>
      <trkpt lat="41.3522910" lon="-8.7459030">
        <ele>8.5</ele>
        <time>2021-05-16T11:18:18Z</time>
      </trkpt>
      <trkpt lat="41.3522850" lon="-8.7459240">
        <ele>8.5</ele>
        <time>2021-05-16T11:18:19Z</time>
      </trkpt>
      <trkpt lat="41.3522850" lon="-8.7459400">
        <ele>8.5</ele>
        <time>2021-05-16T11:18:20Z</time>
      </trkpt>
      <trkpt lat="41.3522810" lon="-8.7459510">
        <ele>8.5</ele>
        <time>2021-05-16T11:18:21Z</time>
      </trkpt>
      <trkpt lat="41.3522770" lon="-8.7459660">
        <ele>8.5</ele>
        <time>2021-05-16T11:18:22Z</time>
      </trkpt>
      <trkpt lat="41.3522890" lon="-8.7460010">
        <ele>8.5</ele>
        <time>2021-05-16T11:18:23Z</time>
      </trkpt>
      <trkpt lat="41.3523040" lon="-8.7460180">
        <ele>8.5</ele>
        <time>2021-05-16T11:18:24Z</time>
      </trkpt>
      <trkpt lat="41.3523180" lon="-8.7460360">
        <ele>8.5</ele>
        <time>2021-05-16T11:18:25Z</time>
      </trkpt>
      <trkpt lat="41.3523400" lon="-8.7460600">
        <ele>8.5</ele>
        <time>2021-05-16T11:18:26Z</time>
      </trkpt>
      <trkpt lat="41.3523560" lon="-8.7460970">
        <ele>8.5</ele>
        <time>2021-05-16T11:18:27Z</time>
      </trkpt>
      <trkpt lat="41.3523570" lon="-8.7461140">
        <ele>8.5</ele>
        <time>2021-05-16T11:18:28Z</time>
      </trkpt>
      <trkpt lat="41.3523620" lon="-8.7461320">
        <ele>8.5</ele>
        <time>2021-05-16T11:18:29Z</time>
      </trkpt>
      <trkpt lat="41.3523670" lon="-8.7461520">
        <ele>8.5</ele>
        <time>2021-05-16T11:18:30Z</time>
      </trkpt>
      <trkpt lat="41.3523700" lon="-8.7461720">
        <ele>8.4</ele>
        <time>2021-05-16T11:18:31Z</time>
      </trkpt>
      <trkpt lat="41.3523700" lon="-8.7461970">
        <ele>8.4</ele>
        <time>2021-05-16T11:18:32Z</time>
      </trkpt>
      <trkpt lat="41.3523630" lon="-8.7462250">
        <ele>8.4</ele>
        <time>2021-05-16T11:18:33Z</time>
      </trkpt>
      <trkpt lat="41.3523670" lon="-8.7462430">
        <ele>8.4</ele>
        <time>2021-05-16T11:18:34Z</time>
      </trkpt>
      <trkpt lat="41.3523620" lon="-8.7462560">
        <ele>8.4</ele>
        <time>2021-05-16T11:18:35Z</time>
      </trkpt>
      <trkpt lat="41.3523620" lon="-8.7462730">
        <ele>8.4</ele>
        <time>2021-05-16T11:18:36Z</time>
      </trkpt>
      <trkpt lat="41.3523620" lon="-8.7462820">
        <ele>8.4</ele>
        <time>2021-05-16T11:18:37Z</time>
      </trkpt>
      <trkpt lat="41.3523560" lon="-8.7463090">
        <ele>8.4</ele>
        <time>2021-05-16T11:18:38Z</time>
      </trkpt>
      <trkpt lat="41.3523540" lon="-8.7463180">
        <ele>8.4</ele>
        <time>2021-05-16T11:18:39Z</time>
      </trkpt>
      <trkpt lat="41.3523390" lon="-8.7463500">
        <ele>8.4</ele>
        <time>2021-05-16T11:18:40Z</time>
      </trkpt>
      <trkpt lat="41.3523340" lon="-8.7463610">
        <ele>8.4</ele>
        <time>2021-05-16T11:18:41Z</time>
      </trkpt>
      <trkpt lat="41.3523330" lon="-8.7463720">
        <ele>8.4</ele>
        <time>2021-05-16T11:18:42Z</time>
      </trkpt>
      <trkpt lat="41.3523270" lon="-8.7463850">
        <ele>8.4</ele>
        <time>2021-05-16T11:18:43Z</time>
      </trkpt>
      <trkpt lat="41.3523190" lon="-8.7464020">
        <ele>8.4</ele>
        <time>2021-05-16T11:18:44Z</time>
      </trkpt>
      <trkpt lat="41.3523160" lon="-8.7464160">
        <ele>8.4</ele>
        <time>2021-05-16T11:18:45Z</time>
      </trkpt>
      <trkpt lat="41.3523130" lon="-8.7464230">
        <ele>8.4</ele>
        <time>2021-05-16T11:18:46Z</time>
      </trkpt>
      <trkpt lat="41.3523060" lon="-8.7464360">
        <ele>8.4</ele>
        <time>2021-05-16T11:18:47Z</time>
      </trkpt>
      <trkpt lat="41.3523010" lon="-8.7464500">
        <ele>8.4</ele>
        <time>2021-05-16T11:18:48Z</time>
      </trkpt>
      <trkpt lat="41.3522970" lon="-8.7464640">
        <ele>8.4</ele>
        <time>2021-05-16T11:18:49Z</time>
      </trkpt>
      <trkpt lat="41.3522960" lon="-8.7464820">
        <ele>8.4</ele>
        <time>2021-05-16T11:18:50Z</time>
      </trkpt>
      <trkpt lat="41.3522870" lon="-8.7464980">
        <ele>8.4</ele>
        <time>2021-05-16T11:18:51Z</time>
      </trkpt>
      <trkpt lat="41.3522840" lon="-8.7465200">
        <ele>8.4</ele>
        <time>2021-05-16T11:18:52Z</time>
      </trkpt>
      <trkpt lat="41.3522790" lon="-8.7465300">
        <ele>8.4</ele>
        <time>2021-05-16T11:18:53Z</time>
      </trkpt>
      <trkpt lat="41.3522770" lon="-8.7465490">
        <ele>8.4</ele>
        <time>2021-05-16T11:18:54Z</time>
      </trkpt>
      <trkpt lat="41.3522700" lon="-8.7465580">
        <ele>8.4</ele>
        <time>2021-05-16T11:18:55Z</time>
      </trkpt>
      <trkpt lat="41.3522590" lon="-8.7465790">
        <ele>8.4</ele>
        <time>2021-05-16T11:18:56Z</time>
      </trkpt>
      <trkpt lat="41.3522560" lon="-8.7465930">
        <ele>8.4</ele>
        <time>2021-05-16T11:18:57Z</time>
      </trkpt>
      <trkpt lat="41.3522450" lon="-8.7466110">
        <ele>8.4</ele>
        <time>2021-05-16T11:18:58Z</time>
      </trkpt>
      <trkpt lat="41.3522430" lon="-8.7466260">
        <ele>8.4</ele>
        <time>2021-05-16T11:18:59Z</time>
      </trkpt>
      <trkpt lat="41.3522380" lon="-8.7466440">
        <ele>8.3</ele>
        <time>2021-05-16T11:19:00Z</time>
      </trkpt>
      <trkpt lat="41.3522360" lon="-8.7466650">
        <ele>8.3</ele>
        <time>2021-05-16T11:19:01Z</time>
      </trkpt>
      <trkpt lat="41.3522310" lon="-8.7466850">
        <ele>8.3</ele>
        <time>2021-05-16T11:19:02Z</time>
      </trkpt>
      <trkpt lat="41.3522270" lon="-8.7467020">
        <ele>8.3</ele>
        <time>2021-05-16T11:19:03Z</time>
      </trkpt>
      <trkpt lat="41.3522210" lon="-8.7467210">
        <ele>8.3</ele>
        <time>2021-05-16T11:19:04Z</time>
      </trkpt>
      <trkpt lat="41.3522170" lon="-8.7467400">
        <ele>8.3</ele>
        <time>2021-05-16T11:19:05Z</time>
      </trkpt>
      <trkpt lat="41.3522070" lon="-8.7467530">
        <ele>8.3</ele>
        <time>2021-05-16T11:19:06Z</time>
      </trkpt>
      <trkpt lat="41.3522050" lon="-8.7467740">
        <ele>8.3</ele>
        <time>2021-05-16T11:19:07Z</time>
      </trkpt>
      <trkpt lat="41.3522000" lon="-8.7467920">
        <ele>8.3</ele>
        <time>2021-05-16T11:19:08Z</time>
      </trkpt>
      <trkpt lat="41.3521930" lon="-8.7468090">
        <ele>8.3</ele>
        <time>2021-05-16T11:19:09Z</time>
      </trkpt>
      <trkpt lat="41.3521950" lon="-8.7468280">
        <ele>8.3</ele>
        <time>2021-05-16T11:19:10Z</time>
      </trkpt>
      <trkpt lat="41.3521840" lon="-8.7468430">
        <ele>8.3</ele>
        <time>2021-05-16T11:19:11Z</time>
      </trkpt>
      <trkpt lat="41.3521760" lon="-8.7468580">
        <ele>8.3</ele>
        <time>2021-05-16T11:19:12Z</time>
      </trkpt>
      <trkpt lat="41.3521660" lon="-8.7468730">
        <ele>8.3</ele>
        <time>2021-05-16T11:19:13Z</time>
      </trkpt>
      <trkpt lat="41.3521530" lon="-8.7468840">
        <ele>8.3</ele>
        <time>2021-05-16T11:19:14Z</time>
      </trkpt>
      <trkpt lat="41.3521490" lon="-8.7469030">
        <ele>8.3</ele>
        <time>2021-05-16T11:19:15Z</time>
      </trkpt>
      <trkpt lat="41.3521400" lon="-8.7469190">
        <ele>8.3</ele>
        <time>2021-05-16T11:19:16Z</time>
      </trkpt>
      <trkpt lat="41.3521390" lon="-8.7469390">
        <ele>8.3</ele>
        <time>2021-05-16T11:19:17Z</time>
      </trkpt>
      <trkpt lat="41.3521380" lon="-8.7469600">
        <ele>8.3</ele>
        <time>2021-05-16T11:19:18Z</time>
      </trkpt>
      <trkpt lat="41.3521330" lon="-8.7469770">
        <ele>8.3</ele>
        <time>2021-05-16T11:19:19Z</time>
      </trkpt>
      <trkpt lat="41.3521300" lon="-8.7469970">
        <ele>8.3</ele>
        <time>2021-05-16T11:19:20Z</time>
      </trkpt>
      <trkpt lat="41.3521200" lon="-8.7470140">
        <ele>8.3</ele>
        <time>2021-05-16T11:19:21Z</time>
      </trkpt>
      <trkpt lat="41.3521180" lon="-8.7470350">
        <ele>8.3</ele>
        <time>2021-05-16T11:19:22Z</time>
      </trkpt>
      <trkpt lat="41.3521020" lon="-8.7470490">
        <ele>8.3</ele>
        <time>2021-05-16T11:19:23Z</time>
      </trkpt>
      <trkpt lat="41.3520960" lon="-8.7470660">
        <ele>8.3</ele>
        <time>2021-05-16T11:19:24Z</time>
      </trkpt>
      <trkpt lat="41.3520890" lon="-8.7470820">
        <ele>8.3</ele>
        <time>2021-05-16T11:19:25Z</time>
      </trkpt>
      <trkpt lat="41.3520850" lon="-8.7470990">
        <ele>8.3</ele>
        <time>2021-05-16T11:19:26Z</time>
      </trkpt>
      <trkpt lat="41.3520830" lon="-8.7471180">
        <ele>8.3</ele>
        <time>2021-05-16T11:19:27Z</time>
      </trkpt>
      <trkpt lat="41.3520740" lon="-8.7471460">
        <ele>8.3</ele>
        <time>2021-05-16T11:19:28Z</time>
      </trkpt>
      <trkpt lat="41.3520700" lon="-8.7471560">
        <ele>8.3</ele>
        <time>2021-05-16T11:19:29Z</time>
      </trkpt>
      <trkpt lat="41.3520660" lon="-8.7471670">
        <ele>8.3</ele>
        <time>2021-05-16T11:19:30Z</time>
      </trkpt>
      <trkpt lat="41.3520640" lon="-8.7471880">
        <ele>8.3</ele>
        <time>2021-05-16T11:19:31Z</time>
      </trkpt>
      <trkpt lat="41.3520580" lon="-8.7472050">
        <ele>8.3</ele>
        <time>2021-05-16T11:19:32Z</time>
      </trkpt>
      <trkpt lat="41.3520510" lon="-8.7472210">
        <ele>8.3</ele>
        <time>2021-05-16T11:19:33Z</time>
      </trkpt>
      <trkpt lat="41.3520400" lon="-8.7472350">
        <ele>8.3</ele>
        <time>2021-05-16T11:19:34Z</time>
      </trkpt>
      <trkpt lat="41.3520250" lon="-8.7472460">
        <ele>8.3</ele>
        <time>2021-05-16T11:19:35Z</time>
      </trkpt>
      <trkpt lat="41.3520160" lon="-8.7472550">
        <ele>8.3</ele>
        <time>2021-05-16T11:19:36Z</time>
      </trkpt>
      <trkpt lat="41.3520100" lon="-8.7472810">
        <ele>8.3</ele>
        <time>2021-05-16T11:19:37Z</time>
      </trkpt>
      <trkpt lat="41.3520060" lon="-8.7472900">
        <ele>8.3</ele>
        <time>2021-05-16T11:19:38Z</time>
      </trkpt>
      <trkpt lat="41.3520030" lon="-8.7473000">
        <ele>8.3</ele>
        <time>2021-05-16T11:19:39Z</time>
      </trkpt>
      <trkpt lat="41.3520030" lon="-8.7473270">
        <ele>8.3</ele>
        <time>2021-05-16T11:19:40Z</time>
      </trkpt>
      <trkpt lat="41.3520060" lon="-8.7473370">
        <ele>8.3</ele>
        <time>2021-05-16T11:19:41Z</time>
      </trkpt>
      <trkpt lat="41.3520100" lon="-8.7473480">
        <ele>8.3</ele>
        <time>2021-05-16T11:19:42Z</time>
      </trkpt>
      <trkpt lat="41.3519990" lon="-8.7473610">
        <ele>8.3</ele>
        <time>2021-05-16T11:19:43Z</time>
      </trkpt>
      <trkpt lat="41.3519950" lon="-8.7473660">
        <ele>8.3</ele>
        <time>2021-05-16T11:19:44Z</time>
      </trkpt>
      <trkpt lat="41.3519900" lon="-8.7473720">
        <ele>8.3</ele>
        <time>2021-05-16T11:19:45Z</time>
      </trkpt>
      <trkpt lat="41.3519860" lon="-8.7473770">
        <ele>8.3</ele>
        <time>2021-05-16T11:19:46Z</time>
      </trkpt>
      <trkpt lat="41.3519810" lon="-8.7473830">
        <ele>8.3</ele>
        <time>2021-05-16T11:19:47Z</time>
      </trkpt>
      <trkpt lat="41.3519680" lon="-8.7473870">
        <ele>8.3</ele>
        <time>2021-05-16T11:19:48Z</time>
      </trkpt>
      <trkpt lat="41.3519620" lon="-8.7473820">
        <ele>8.3</ele>
        <time>2021-05-16T11:19:49Z</time>
      </trkpt>
      <trkpt lat="41.3519520" lon="-8.7473860">
        <ele>8.3</ele>
        <time>2021-05-16T11:19:50Z</time>
      </trkpt>
      <trkpt lat="41.3519340" lon="-8.7473840">
        <ele>8.3</ele>
        <time>2021-05-16T11:19:51Z</time>
      </trkpt>
      <trkpt lat="41.3519240" lon="-8.7473880">
        <ele>8.3</ele>
        <time>2021-05-16T11:19:52Z</time>
      </trkpt>
      <trkpt lat="41.3519130" lon="-8.7473930">
        <ele>8.3</ele>
        <time>2021-05-16T11:19:53Z</time>
      </trkpt>
      <trkpt lat="41.3518880" lon="-8.7473910">
        <ele>8.4</ele>
        <time>2021-05-16T11:19:54Z</time>
      </trkpt>
      <trkpt lat="41.3518820" lon="-8.7473890">
        <ele>8.4</ele>
        <time>2021-05-16T11:19:55Z</time>
      </trkpt>
      <trkpt lat="41.3518750" lon="-8.7473870">
        <ele>8.4</ele>
        <time>2021-05-16T11:19:56Z</time>
      </trkpt>
      <trkpt lat="41.3518700" lon="-8.7473980">
        <ele>8.4</ele>
        <time>2021-05-16T11:19:57Z</time>
      </trkpt>
      <trkpt lat="41.3518720" lon="-8.7474130">
        <ele>8.4</ele>
        <time>2021-05-16T11:19:58Z</time>
      </trkpt>
      <trkpt lat="41.3518630" lon="-8.7474290">
        <ele>8.4</ele>
        <time>2021-05-16T11:19:59Z</time>
      </trkpt>
      <trkpt lat="41.3518490" lon="-8.7474340">
        <ele>8.4</ele>
        <time>2021-05-16T11:20:00Z</time>
      </trkpt>
      <trkpt lat="41.3518330" lon="-8.7474360">
        <ele>8.4</ele>
        <time>2021-05-16T11:20:01Z</time>
      </trkpt>
      <trkpt lat="41.3518210" lon="-8.7474430">
        <ele>8.4</ele>
        <time>2021-05-16T11:20:02Z</time>
      </trkpt>
      <trkpt lat="41.3518090" lon="-8.7474500">
        <ele>8.4</ele>
        <time>2021-05-16T11:20:03Z</time>
      </trkpt>
      <trkpt lat="41.3518040" lon="-8.7474570">
        <ele>8.4</ele>
        <time>2021-05-16T11:20:04Z</time>
      </trkpt>
      <trkpt lat="41.3517900" lon="-8.7474750">
        <ele>8.4</ele>
        <time>2021-05-16T11:20:05Z</time>
      </trkpt>
      <trkpt lat="41.3517820" lon="-8.7474810">
        <ele>8.4</ele>
        <time>2021-05-16T11:20:06Z</time>
      </trkpt>
      <trkpt lat="41.3517730" lon="-8.7474880">
        <ele>8.4</ele>
        <time>2021-05-16T11:20:07Z</time>
      </trkpt>
      <trkpt lat="41.3517600" lon="-8.7475060">
        <ele>8.4</ele>
        <time>2021-05-16T11:20:08Z</time>
      </trkpt>
      <trkpt lat="41.3517490" lon="-8.7475130">
        <ele>8.4</ele>
        <time>2021-05-16T11:20:09Z</time>
      </trkpt>
      <trkpt lat="41.3517410" lon="-8.7475220">
        <ele>8.4</ele>
        <time>2021-05-16T11:20:10Z</time>
      </trkpt>
      <trkpt lat="41.3517300" lon="-8.7475350">
        <ele>8.4</ele>
        <time>2021-05-16T11:20:11Z</time>
      </trkpt>
      <trkpt lat="41.3517220" lon="-8.7475430">
        <ele>8.4</ele>
        <time>2021-05-16T11:20:12Z</time>
      </trkpt>
      <trkpt lat="41.3517180" lon="-8.7475510">
        <ele>8.4</ele>
        <time>2021-05-16T11:20:13Z</time>
      </trkpt>
      <trkpt lat="41.3517050" lon="-8.7475770">
        <ele>8.4</ele>
        <time>2021-05-16T11:20:14Z</time>
      </trkpt>
      <trkpt lat="41.3516950" lon="-8.7475890">
        <ele>8.4</ele>
        <time>2021-05-16T11:20:15Z</time>
      </trkpt>
      <trkpt lat="41.3516890" lon="-8.7476000">
        <ele>8.4</ele>
        <time>2021-05-16T11:20:16Z</time>
      </trkpt>
      <trkpt lat="41.3516810" lon="-8.7476080">
        <ele>8.4</ele>
        <time>2021-05-16T11:20:17Z</time>
      </trkpt>
      <trkpt lat="41.3516750" lon="-8.7476240">
        <ele>8.4</ele>
        <time>2021-05-16T11:20:18Z</time>
      </trkpt>
      <trkpt lat="41.3516750" lon="-8.7476390">
        <ele>8.4</ele>
        <time>2021-05-16T11:20:19Z</time>
      </trkpt>
      <trkpt lat="41.3516750" lon="-8.7476500">
        <ele>8.4</ele>
        <time>2021-05-16T11:20:20Z</time>
      </trkpt>
      <trkpt lat="41.3516850" lon="-8.7476820">
        <ele>8.4</ele>
        <time>2021-05-16T11:20:21Z</time>
      </trkpt>
      <trkpt lat="41.3516930" lon="-8.7477010">
        <ele>8.4</ele>
        <time>2021-05-16T11:20:22Z</time>
      </trkpt>
      <trkpt lat="41.3517150" lon="-8.7477630">
        <ele>8.4</ele>
        <time>2021-05-16T11:20:23Z</time>
      </trkpt>
      <trkpt lat="41.3517610" lon="-8.7478300">
        <ele>8.3</ele>
        <time>2021-05-16T11:20:24Z</time>
      </trkpt>
      <trkpt lat="41.3517770" lon="-8.7478480">
        <ele>8.3</ele>
        <time>2021-05-16T11:20:25Z</time>
      </trkpt>
      <trkpt lat="41.3517850" lon="-8.7478620">
        <ele>8.3</ele>
        <time>2021-05-16T11:20:26Z</time>
      </trkpt>
      <trkpt lat="41.3517910" lon="-8.7478850">
        <ele>8.3</ele>
        <time>2021-05-16T11:20:27Z</time>
      </trkpt>
      <trkpt lat="41.3517940" lon="-8.7478970">
        <ele>8.3</ele>
        <time>2021-05-16T11:20:28Z</time>
      </trkpt>
      <trkpt lat="41.3517960" lon="-8.7479190">
        <ele>8.3</ele>
        <time>2021-05-16T11:20:29Z</time>
      </trkpt>
      <trkpt lat="41.3517970" lon="-8.7479230">
        <ele>8.3</ele>
        <time>2021-05-16T11:20:30Z</time>
      </trkpt>
      <trkpt lat="41.3517980" lon="-8.7479270">
        <ele>8.3</ele>
        <time>2021-05-16T11:20:31Z</time>
      </trkpt>
      <trkpt lat="41.3517990" lon="-8.7479310">
        <ele>8.3</ele>
        <time>2021-05-16T11:20:32Z</time>
      </trkpt>
      <trkpt lat="41.3518000" lon="-8.7479350">
        <ele>8.3</ele>
        <time>2021-05-16T11:20:33Z</time>
      </trkpt>
      <trkpt lat="41.3518000" lon="-8.7479380">
        <ele>8.3</ele>
        <time>2021-05-16T11:20:34Z</time>
      </trkpt>
      <trkpt lat="41.3518010" lon="-8.7479420">
        <ele>8.3</ele>
        <time>2021-05-16T11:20:35Z</time>
      </trkpt>
      <trkpt lat="41.3518020" lon="-8.7479460">
        <ele>8.3</ele>
        <time>2021-05-16T11:20:36Z</time>
      </trkpt>
      <trkpt lat="41.3518030" lon="-8.7479500">
        <ele>8.3</ele>
        <time>2021-05-16T11:20:37Z</time>
      </trkpt>
      <trkpt lat="41.3518040" lon="-8.7479540">
        <ele>8.3</ele>
        <time>2021-05-16T11:20:38Z</time>
      </trkpt>
      <trkpt lat="41.3518050" lon="-8.7479580">
        <ele>8.3</ele>
        <time>2021-05-16T11:20:39Z</time>
      </trkpt>
      <trkpt lat="41.3518000" lon="-8.7479650">
        <ele>8.3</ele>
        <time>2021-05-16T11:20:40Z</time>
      </trkpt>
      <trkpt lat="41.3517970" lon="-8.7479680">
        <ele>8.3</ele>
        <time>2021-05-16T11:20:41Z</time>
      </trkpt>
      <trkpt lat="41.3517930" lon="-8.7479720">
        <ele>8.3</ele>
        <time>2021-05-16T11:20:42Z</time>
      </trkpt>
      <trkpt lat="41.3517890" lon="-8.7479760">
        <ele>8.3</ele>
        <time>2021-05-16T11:20:43Z</time>
      </trkpt>
      <trkpt lat="41.3517850" lon="-8.7479790">
        <ele>8.3</ele>
        <time>2021-05-16T11:20:44Z</time>
      </trkpt>
      <trkpt lat="41.3517820" lon="-8.7479830">
        <ele>8.3</ele>
        <time>2021-05-16T11:20:45Z</time>
      </trkpt>
      <trkpt lat="41.3517780" lon="-8.7479860">
        <ele>8.3</ele>
        <time>2021-05-16T11:20:46Z</time>
      </trkpt>
      <trkpt lat="41.3517740" lon="-8.7479900">
        <ele>8.3</ele>
        <time>2021-05-16T11:20:47Z</time>
      </trkpt>
      <trkpt lat="41.3517710" lon="-8.7479930">
        <ele>8.3</ele>
        <time>2021-05-16T11:20:48Z</time>
      </trkpt>
      <trkpt lat="41.3517650" lon="-8.7480070">
        <ele>8.3</ele>
        <time>2021-05-16T11:20:49Z</time>
      </trkpt>
      <trkpt lat="41.3517580" lon="-8.7480030">
        <ele>8.3</ele>
        <time>2021-05-16T11:20:50Z</time>
      </trkpt>
      <trkpt lat="41.3517550" lon="-8.7480090">
        <ele>8.3</ele>
        <time>2021-05-16T11:20:51Z</time>
      </trkpt>
      <trkpt lat="41.3517560" lon="-8.7480180">
        <ele>8.3</ele>
        <time>2021-05-16T11:20:52Z</time>
      </trkpt>
      <trkpt lat="41.3517450" lon="-8.7480380">
        <ele>8.3</ele>
        <time>2021-05-16T11:20:53Z</time>
      </trkpt>
      <trkpt lat="41.3517410" lon="-8.7480460">
        <ele>8.3</ele>
        <time>2021-05-16T11:20:54Z</time>
      </trkpt>
      <trkpt lat="41.3517370" lon="-8.7480550">
        <ele>8.3</ele>
        <time>2021-05-16T11:20:55Z</time>
      </trkpt>
      <trkpt lat="41.3517330" lon="-8.7480630">
        <ele>8.3</ele>
        <time>2021-05-16T11:20:56Z</time>
      </trkpt>
      <trkpt lat="41.3517290" lon="-8.7480690">
        <ele>8.3</ele>
        <time>2021-05-16T11:20:57Z</time>
      </trkpt>
      <trkpt lat="41.3517210" lon="-8.7480880">
        <ele>8.3</ele>
        <time>2021-05-16T11:20:58Z</time>
      </trkpt>
      <trkpt lat="41.3517180" lon="-8.7481020">
        <ele>8.3</ele>
        <time>2021-05-16T11:20:59Z</time>
      </trkpt>
      <trkpt lat="41.3517120" lon="-8.7481190">
        <ele>8.3</ele>
        <time>2021-05-16T11:21:00Z</time>
      </trkpt>
      <trkpt lat="41.3517030" lon="-8.7481370">
        <ele>8.3</ele>
        <time>2021-05-16T11:21:01Z</time>
      </trkpt>
      <trkpt lat="41.3517020" lon="-8.7481530">
        <ele>8.3</ele>
        <time>2021-05-16T11:21:02Z</time>
      </trkpt>
      <trkpt lat="41.3516960" lon="-8.7481670">
        <ele>8.3</ele>
        <time>2021-05-16T11:21:03Z</time>
      </trkpt>
      <trkpt lat="41.3516900" lon="-8.7481810">
        <ele>8.3</ele>
        <time>2021-05-16T11:21:04Z</time>
      </trkpt>
      <trkpt lat="41.3516880" lon="-8.7481920">
        <ele>8.3</ele>
        <time>2021-05-16T11:21:05Z</time>
      </trkpt>
      <trkpt lat="41.3516870" lon="-8.7482040">
        <ele>8.3</ele>
        <time>2021-05-16T11:21:06Z</time>
      </trkpt>
      <trkpt lat="41.3516840" lon="-8.7482190">
        <ele>8.3</ele>
        <time>2021-05-16T11:21:07Z</time>
      </trkpt>
      <trkpt lat="41.3516840" lon="-8.7482330">
        <ele>8.3</ele>
        <time>2021-05-16T11:21:08Z</time>
      </trkpt>
      <trkpt lat="41.3516700" lon="-8.7482500">
        <ele>8.3</ele>
        <time>2021-05-16T11:21:09Z</time>
      </trkpt>
      <trkpt lat="41.3516640" lon="-8.7482610">
        <ele>8.3</ele>
        <time>2021-05-16T11:21:10Z</time>
      </trkpt>
      <trkpt lat="41.3516560" lon="-8.7482830">
        <ele>8.3</ele>
        <time>2021-05-16T11:21:11Z</time>
      </trkpt>
      <trkpt lat="41.3516530" lon="-8.7482950">
        <ele>8.4</ele>
        <time>2021-05-16T11:21:12Z</time>
      </trkpt>
      <trkpt lat="41.3516510" lon="-8.7483060">
        <ele>8.4</ele>
        <time>2021-05-16T11:21:13Z</time>
      </trkpt>
      <trkpt lat="41.3516480" lon="-8.7483320">
        <ele>8.4</ele>
        <time>2021-05-16T11:21:14Z</time>
      </trkpt>
      <trkpt lat="41.3516470" lon="-8.7483430">
        <ele>8.5</ele>
        <time>2021-05-16T11:21:15Z</time>
      </trkpt>
      <trkpt lat="41.3516460" lon="-8.7483550">
        <ele>8.5</ele>
        <time>2021-05-16T11:21:16Z</time>
      </trkpt>
      <trkpt lat="41.3516570" lon="-8.7483820">
        <ele>8.5</ele>
        <time>2021-05-16T11:21:17Z</time>
      </trkpt>
      <trkpt lat="41.3516600" lon="-8.7483950">
        <ele>8.5</ele>
        <time>2021-05-16T11:21:18Z</time>
      </trkpt>
      <trkpt lat="41.3516630" lon="-8.7484090">
        <ele>8.5</ele>
        <time>2021-05-16T11:21:19Z</time>
      </trkpt>
      <trkpt lat="41.3516640" lon="-8.7484180">
        <ele>8.5</ele>
        <time>2021-05-16T11:21:20Z</time>
      </trkpt>
      <trkpt lat="41.3516720" lon="-8.7484340">
        <ele>8.5</ele>
        <time>2021-05-16T11:21:21Z</time>
      </trkpt>
      <trkpt lat="41.3516800" lon="-8.7484420">
        <ele>8.5</ele>
        <time>2021-05-16T11:21:22Z</time>
      </trkpt>
      <trkpt lat="41.3516880" lon="-8.7484580">
        <ele>8.6</ele>
        <time>2021-05-16T11:21:23Z</time>
      </trkpt>
      <trkpt lat="41.3517000" lon="-8.7484590">
        <ele>8.6</ele>
        <time>2021-05-16T11:21:24Z</time>
      </trkpt>
      <trkpt lat="41.3517080" lon="-8.7484620">
        <ele>8.6</ele>
        <time>2021-05-16T11:21:25Z</time>
      </trkpt>
      <trkpt lat="41.3517230" lon="-8.7484800">
        <ele>8.6</ele>
        <time>2021-05-16T11:21:26Z</time>
      </trkpt>
      <trkpt lat="41.3517290" lon="-8.7484880">
        <ele>8.6</ele>
        <time>2021-05-16T11:21:27Z</time>
      </trkpt>
      <trkpt lat="41.3517350" lon="-8.7484950">
        <ele>8.6</ele>
        <time>2021-05-16T11:21:28Z</time>
      </trkpt>
      <trkpt lat="41.3517540" lon="-8.7485060">
        <ele>8.6</ele>
        <time>2021-05-16T11:21:29Z</time>
      </trkpt>
      <trkpt lat="41.3517610" lon="-8.7485120">
        <ele>8.6</ele>
        <time>2021-05-16T11:21:30Z</time>
      </trkpt>
      <trkpt lat="41.3517680" lon="-8.7485170">
        <ele>8.6</ele>
        <time>2021-05-16T11:21:31Z</time>
      </trkpt>
      <trkpt lat="41.3517780" lon="-8.7485260">
        <ele>8.7</ele>
        <time>2021-05-16T11:21:32Z</time>
      </trkpt>
      <trkpt lat="41.3517890" lon="-8.7485360">
        <ele>8.7</ele>
        <time>2021-05-16T11:21:33Z</time>
      </trkpt>
      <trkpt lat="41.3517940" lon="-8.7485500">
        <ele>8.7</ele>
        <time>2021-05-16T11:21:34Z</time>
      </trkpt>
      <trkpt lat="41.3518010" lon="-8.7485570">
        <ele>8.7</ele>
        <time>2021-05-16T11:21:35Z</time>
      </trkpt>
      <trkpt lat="41.3518160" lon="-8.7485610">
        <ele>8.7</ele>
        <time>2021-05-16T11:21:36Z</time>
      </trkpt>
      <trkpt lat="41.3518270" lon="-8.7485700">
        <ele>8.7</ele>
        <time>2021-05-16T11:21:37Z</time>
      </trkpt>
      <trkpt lat="41.3518410" lon="-8.7485770">
        <ele>8.7</ele>
        <time>2021-05-16T11:21:38Z</time>
      </trkpt>
      <trkpt lat="41.3518460" lon="-8.7485830">
        <ele>8.7</ele>
        <time>2021-05-16T11:21:39Z</time>
      </trkpt>
      <trkpt lat="41.3518590" lon="-8.7485920">
        <ele>8.7</ele>
        <time>2021-05-16T11:21:40Z</time>
      </trkpt>
      <trkpt lat="41.3518840" lon="-8.7486000">
        <ele>8.8</ele>
        <time>2021-05-16T11:21:41Z</time>
      </trkpt>
      <trkpt lat="41.3518920" lon="-8.7486040">
        <ele>8.8</ele>
        <time>2021-05-16T11:21:42Z</time>
      </trkpt>
      <trkpt lat="41.3519010" lon="-8.7486080">
        <ele>8.8</ele>
        <time>2021-05-16T11:21:43Z</time>
      </trkpt>
      <trkpt lat="41.3519120" lon="-8.7486170">
        <ele>8.8</ele>
        <time>2021-05-16T11:21:44Z</time>
      </trkpt>
      <trkpt lat="41.3519230" lon="-8.7486250">
        <ele>8.8</ele>
        <time>2021-05-16T11:21:45Z</time>
      </trkpt>
      <trkpt lat="41.3519320" lon="-8.7486320">
        <ele>8.8</ele>
        <time>2021-05-16T11:21:46Z</time>
      </trkpt>
      <trkpt lat="41.3519530" lon="-8.7486520">
        <ele>8.9</ele>
        <time>2021-05-16T11:21:47Z</time>
      </trkpt>
      <trkpt lat="41.3519600" lon="-8.7486570">
        <ele>8.9</ele>
        <time>2021-05-16T11:21:48Z</time>
      </trkpt>
      <trkpt lat="41.3519680" lon="-8.7486620">
        <ele>8.9</ele>
        <time>2021-05-16T11:21:49Z</time>
      </trkpt>
      <trkpt lat="41.3519830" lon="-8.7486750">
        <ele>8.9</ele>
        <time>2021-05-16T11:21:50Z</time>
      </trkpt>
      <trkpt lat="41.3519920" lon="-8.7486810">
        <ele>9.0</ele>
        <time>2021-05-16T11:21:51Z</time>
      </trkpt>
      <trkpt lat="41.3520010" lon="-8.7486860">
        <ele>9.0</ele>
        <time>2021-05-16T11:21:52Z</time>
      </trkpt>
      <trkpt lat="41.3520110" lon="-8.7486870">
        <ele>9.0</ele>
        <time>2021-05-16T11:21:53Z</time>
      </trkpt>
      <trkpt lat="41.3520170" lon="-8.7486960">
        <ele>9.0</ele>
        <time>2021-05-16T11:21:54Z</time>
      </trkpt>
      <trkpt lat="41.3520230" lon="-8.7487070">
        <ele>9.0</ele>
        <time>2021-05-16T11:21:55Z</time>
      </trkpt>
      <trkpt lat="41.3520350" lon="-8.7487070">
        <ele>9.0</ele>
        <time>2021-05-16T11:21:56Z</time>
      </trkpt>
      <trkpt lat="41.3520440" lon="-8.7487150">
        <ele>9.1</ele>
        <time>2021-05-16T11:21:57Z</time>
      </trkpt>
      <trkpt lat="41.3520550" lon="-8.7487220">
        <ele>9.1</ele>
        <time>2021-05-16T11:21:58Z</time>
      </trkpt>
      <trkpt lat="41.3520740" lon="-8.7487380">
        <ele>9.1</ele>
        <time>2021-05-16T11:21:59Z</time>
      </trkpt>
      <trkpt lat="41.3520810" lon="-8.7487400">
        <ele>9.1</ele>
        <time>2021-05-16T11:22:00Z</time>
      </trkpt>
      <trkpt lat="41.3520880" lon="-8.7487430">
        <ele>9.2</ele>
        <time>2021-05-16T11:22:01Z</time>
      </trkpt>
      <trkpt lat="41.3521020" lon="-8.7487480">
        <ele>9.2</ele>
        <time>2021-05-16T11:22:02Z</time>
      </trkpt>
      <trkpt lat="41.3521160" lon="-8.7487570">
        <ele>9.2</ele>
        <time>2021-05-16T11:22:03Z</time>
      </trkpt>
      <trkpt lat="41.3521380" lon="-8.7487620">
        <ele>9.3</ele>
        <time>2021-05-16T11:22:04Z</time>
      </trkpt>
      <trkpt lat="41.3521450" lon="-8.7487660">
        <ele>9.3</ele>
        <time>2021-05-16T11:22:05Z</time>
      </trkpt>
      <trkpt lat="41.3521530" lon="-8.7487710">
        <ele>9.3</ele>
        <time>2021-05-16T11:22:06Z</time>
      </trkpt>
      <trkpt lat="41.3521740" lon="-8.7487850">
        <ele>9.4</ele>
        <time>2021-05-16T11:22:07Z</time>
      </trkpt>
      <trkpt lat="41.3521720" lon="-8.7487990">
        <ele>9.4</ele>
        <time>2021-05-16T11:22:08Z</time>
      </trkpt>
      <trkpt lat="41.3521790" lon="-8.7488140">
        <ele>9.4</ele>
        <time>2021-05-16T11:22:09Z</time>
      </trkpt>
      <trkpt lat="41.3521880" lon="-8.7488230">
        <ele>9.4</ele>
        <time>2021-05-16T11:22:10Z</time>
      </trkpt>
      <trkpt lat="41.3521920" lon="-8.7488280">
        <ele>9.5</ele>
        <time>2021-05-16T11:22:11Z</time>
      </trkpt>
      <trkpt lat="41.3522030" lon="-8.7488250">
        <ele>9.5</ele>
        <time>2021-05-16T11:22:12Z</time>
      </trkpt>
      <trkpt lat="41.3522080" lon="-8.7488260">
        <ele>9.5</ele>
        <time>2021-05-16T11:22:13Z</time>
      </trkpt>
      <trkpt lat="41.3522250" lon="-8.7488240">
        <ele>9.5</ele>
        <time>2021-05-16T11:22:14Z</time>
      </trkpt>
      <trkpt lat="41.3522350" lon="-8.7488350">
        <ele>9.6</ele>
        <time>2021-05-16T11:22:15Z</time>
      </trkpt>
      <trkpt lat="41.3522500" lon="-8.7488420">
        <ele>9.6</ele>
        <time>2021-05-16T11:22:16Z</time>
      </trkpt>
      <trkpt lat="41.3522590" lon="-8.7488600">
        <ele>9.6</ele>
        <time>2021-05-16T11:22:17Z</time>
      </trkpt>
      <trkpt lat="41.3522650" lon="-8.7488720">
        <ele>9.6</ele>
        <time>2021-05-16T11:22:18Z</time>
      </trkpt>
      <trkpt lat="41.3522700" lon="-8.7488830">
        <ele>9.6</ele>
        <time>2021-05-16T11:22:19Z</time>
      </trkpt>
      <trkpt lat="41.3522850" lon="-8.7489040">
        <ele>9.7</ele>
        <time>2021-05-16T11:22:20Z</time>
      </trkpt>
      <trkpt lat="41.3522930" lon="-8.7489150">
        <ele>9.7</ele>
        <time>2021-05-16T11:22:21Z</time>
      </trkpt>
      <trkpt lat="41.3523000" lon="-8.7489260">
        <ele>9.7</ele>
        <time>2021-05-16T11:22:22Z</time>
      </trkpt>
      <trkpt lat="41.3523100" lon="-8.7489470">
        <ele>9.7</ele>
        <time>2021-05-16T11:22:23Z</time>
      </trkpt>
      <trkpt lat="41.3523160" lon="-8.7489570">
        <ele>9.7</ele>
        <time>2021-05-16T11:22:24Z</time>
      </trkpt>
      <trkpt lat="41.3523220" lon="-8.7489660">
        <ele>9.7</ele>
        <time>2021-05-16T11:22:25Z</time>
      </trkpt>
      <trkpt lat="41.3523350" lon="-8.7489740">
        <ele>9.7</ele>
        <time>2021-05-16T11:22:26Z</time>
      </trkpt>
      <trkpt lat="41.3523390" lon="-8.7489880">
        <ele>9.7</ele>
        <time>2021-05-16T11:22:27Z</time>
      </trkpt>
      <trkpt lat="41.3523420" lon="-8.7490040">
        <ele>9.7</ele>
        <time>2021-05-16T11:22:28Z</time>
      </trkpt>
      <trkpt lat="41.3523550" lon="-8.7490220">
        <ele>9.7</ele>
        <time>2021-05-16T11:22:29Z</time>
      </trkpt>
      <trkpt lat="41.3523640" lon="-8.7490290">
        <ele>9.8</ele>
        <time>2021-05-16T11:22:30Z</time>
      </trkpt>
      <trkpt lat="41.3523720" lon="-8.7490350">
        <ele>9.8</ele>
        <time>2021-05-16T11:22:31Z</time>
      </trkpt>
      <trkpt lat="41.3523780" lon="-8.7490450">
        <ele>9.8</ele>
        <time>2021-05-16T11:22:32Z</time>
      </trkpt>
      <trkpt lat="41.3523900" lon="-8.7490580">
        <ele>9.8</ele>
        <time>2021-05-16T11:22:33Z</time>
      </trkpt>
      <trkpt lat="41.3523920" lon="-8.7490720">
        <ele>9.8</ele>
        <time>2021-05-16T11:22:34Z</time>
      </trkpt>
      <trkpt lat="41.3524040" lon="-8.7490870">
        <ele>9.8</ele>
        <time>2021-05-16T11:22:35Z</time>
      </trkpt>
      <trkpt lat="41.3524080" lon="-8.7490930">
        <ele>9.8</ele>
        <time>2021-05-16T11:22:36Z</time>
      </trkpt>
      <trkpt lat="41.3524130" lon="-8.7491090">
        <ele>9.9</ele>
        <time>2021-05-16T11:22:37Z</time>
      </trkpt>
      <trkpt lat="41.3524280" lon="-8.7491300">
        <ele>9.9</ele>
        <time>2021-05-16T11:22:38Z</time>
      </trkpt>
      <trkpt lat="41.3524320" lon="-8.7491400">
        <ele>9.9</ele>
        <time>2021-05-16T11:22:39Z</time>
      </trkpt>
      <trkpt lat="41.3524370" lon="-8.7491490">
        <ele>9.9</ele>
        <time>2021-05-16T11:22:40Z</time>
      </trkpt>
      <trkpt lat="41.3524440" lon="-8.7491660">
        <ele>9.9</ele>
        <time>2021-05-16T11:22:41Z</time>
      </trkpt>
      <trkpt lat="41.3524520" lon="-8.7491770">
        <ele>9.9</ele>
        <time>2021-05-16T11:22:42Z</time>
      </trkpt>
      <trkpt lat="41.3524560" lon="-8.7491850">
        <ele>9.9</ele>
        <time>2021-05-16T11:22:43Z</time>
      </trkpt>
      <trkpt lat="41.3524660" lon="-8.7492020">
        <ele>9.9</ele>
        <time>2021-05-16T11:22:44Z</time>
      </trkpt>
      <trkpt lat="41.3524690" lon="-8.7492170">
        <ele>9.9</ele>
        <time>2021-05-16T11:22:45Z</time>
      </trkpt>
      <trkpt lat="41.3524770" lon="-8.7492290">
        <ele>9.8</ele>
        <time>2021-05-16T11:22:46Z</time>
      </trkpt>
      <trkpt lat="41.3524860" lon="-8.7492460">
        <ele>9.8</ele>
        <time>2021-05-16T11:22:47Z</time>
      </trkpt>
      <trkpt lat="41.3525040" lon="-8.7492610">
        <ele>9.8</ele>
        <time>2021-05-16T11:22:48Z</time>
      </trkpt>
      <trkpt lat="41.3525120" lon="-8.7492650">
        <ele>9.8</ele>
        <time>2021-05-16T11:22:49Z</time>
      </trkpt>
      <trkpt lat="41.3525190" lon="-8.7492680">
        <ele>9.8</ele>
        <time>2021-05-16T11:22:50Z</time>
      </trkpt>
      <trkpt lat="41.3525320" lon="-8.7492770">
        <ele>9.8</ele>
        <time>2021-05-16T11:22:51Z</time>
      </trkpt>
      <trkpt lat="41.3525470" lon="-8.7492880">
        <ele>9.8</ele>
        <time>2021-05-16T11:22:52Z</time>
      </trkpt>
      <trkpt lat="41.3525430" lon="-8.7493000">
        <ele>9.8</ele>
        <time>2021-05-16T11:22:53Z</time>
      </trkpt>
      <trkpt lat="41.3525500" lon="-8.7493060">
        <ele>9.8</ele>
        <time>2021-05-16T11:22:54Z</time>
      </trkpt>
      <trkpt lat="41.3525680" lon="-8.7493130">
        <ele>9.8</ele>
        <time>2021-05-16T11:22:55Z</time>
      </trkpt>
      <trkpt lat="41.3525740" lon="-8.7493190">
        <ele>9.8</ele>
        <time>2021-05-16T11:22:56Z</time>
      </trkpt>
      <trkpt lat="41.3525900" lon="-8.7493230">
        <ele>9.8</ele>
        <time>2021-05-16T11:22:57Z</time>
      </trkpt>
      <trkpt lat="41.3525940" lon="-8.7493360">
        <ele>9.8</ele>
        <time>2021-05-16T11:22:58Z</time>
      </trkpt>
      <trkpt lat="41.3526050" lon="-8.7493440">
        <ele>9.7</ele>
        <time>2021-05-16T11:22:59Z</time>
      </trkpt>
      <trkpt lat="41.3526120" lon="-8.7493560">
        <ele>9.7</ele>
        <time>2021-05-16T11:23:00Z</time>
      </trkpt>
      <trkpt lat="41.3526170" lon="-8.7493610">
        <ele>9.7</ele>
        <time>2021-05-16T11:23:01Z</time>
      </trkpt>
      <trkpt lat="41.3526300" lon="-8.7493630">
        <ele>9.7</ele>
        <time>2021-05-16T11:23:02Z</time>
      </trkpt>
      <trkpt lat="41.3526450" lon="-8.7493710">
        <ele>9.7</ele>
        <time>2021-05-16T11:23:03Z</time>
      </trkpt>
      <trkpt lat="41.3526570" lon="-8.7493780">
        <ele>9.7</ele>
        <time>2021-05-16T11:23:04Z</time>
      </trkpt>
      <trkpt lat="41.3526690" lon="-8.7493880">
        <ele>9.7</ele>
        <time>2021-05-16T11:23:05Z</time>
      </trkpt>
      <trkpt lat="41.3526750" lon="-8.7494010">
        <ele>9.7</ele>
        <time>2021-05-16T11:23:06Z</time>
      </trkpt>
      <trkpt lat="41.3526700" lon="-8.7494170">
        <ele>9.7</ele>
        <time>2021-05-16T11:23:07Z</time>
      </trkpt>
      <trkpt lat="41.3526720" lon="-8.7494270">
        <ele>9.7</ele>
        <time>2021-05-16T11:23:08Z</time>
      </trkpt>
      <trkpt lat="41.3526770" lon="-8.7494430">
        <ele>9.7</ele>
        <time>2021-05-16T11:23:09Z</time>
      </trkpt>
      <trkpt lat="41.3526760" lon="-8.7494570">
        <ele>9.6</ele>
        <time>2021-05-16T11:23:10Z</time>
      </trkpt>
      <trkpt lat="41.3526780" lon="-8.7494740">
        <ele>9.6</ele>
        <time>2021-05-16T11:23:11Z</time>
      </trkpt>
      <trkpt lat="41.3526840" lon="-8.7494920">
        <ele>9.6</ele>
        <time>2021-05-16T11:23:12Z</time>
      </trkpt>
      <trkpt lat="41.3526850" lon="-8.7495030">
        <ele>9.6</ele>
        <time>2021-05-16T11:23:13Z</time>
      </trkpt>
      <trkpt lat="41.3526860" lon="-8.7495130">
        <ele>9.6</ele>
        <time>2021-05-16T11:23:14Z</time>
      </trkpt>
      <trkpt lat="41.3526870" lon="-8.7495240">
        <ele>9.6</ele>
        <time>2021-05-16T11:23:15Z</time>
      </trkpt>
      <trkpt lat="41.3526770" lon="-8.7495420">
        <ele>9.6</ele>
        <time>2021-05-16T11:23:16Z</time>
      </trkpt>
      <trkpt lat="41.3526690" lon="-8.7495550">
        <ele>9.6</ele>
        <time>2021-05-16T11:23:17Z</time>
      </trkpt>
      <trkpt lat="41.3526550" lon="-8.7495750">
        <ele>9.6</ele>
        <time>2021-05-16T11:23:18Z</time>
      </trkpt>
      <trkpt lat="41.3526480" lon="-8.7495850">
        <ele>9.6</ele>
        <time>2021-05-16T11:23:19Z</time>
      </trkpt>
      <trkpt lat="41.3526400" lon="-8.7495950">
        <ele>9.6</ele>
        <time>2021-05-16T11:23:20Z</time>
      </trkpt>
      <trkpt lat="41.3526290" lon="-8.7496070">
        <ele>9.6</ele>
        <time>2021-05-16T11:23:21Z</time>
      </trkpt>
      <trkpt lat="41.3526210" lon="-8.7496230">
        <ele>9.6</ele>
        <time>2021-05-16T11:23:22Z</time>
      </trkpt>
      <trkpt lat="41.3526130" lon="-8.7496430">
        <ele>9.6</ele>
        <time>2021-05-16T11:23:23Z</time>
      </trkpt>
      <trkpt lat="41.3526080" lon="-8.7496520">
        <ele>9.6</ele>
        <time>2021-05-16T11:23:24Z</time>
      </trkpt>
      <trkpt lat="41.3526060" lon="-8.7496580">
        <ele>9.6</ele>
        <time>2021-05-16T11:23:25Z</time>
      </trkpt>
      <trkpt lat="41.3526020" lon="-8.7496760">
        <ele>9.6</ele>
        <time>2021-05-16T11:23:26Z</time>
      </trkpt>
      <trkpt lat="41.3525910" lon="-8.7496890">
        <ele>9.6</ele>
        <time>2021-05-16T11:23:27Z</time>
      </trkpt>
      <trkpt lat="41.3525870" lon="-8.7497140">
        <ele>9.6</ele>
        <time>2021-05-16T11:23:28Z</time>
      </trkpt>
      <trkpt lat="41.3525810" lon="-8.7497250">
        <ele>9.6</ele>
        <time>2021-05-16T11:23:29Z</time>
      </trkpt>
      <trkpt lat="41.3525760" lon="-8.7497350">
        <ele>9.6</ele>
        <time>2021-05-16T11:23:30Z</time>
      </trkpt>
      <trkpt lat="41.3525670" lon="-8.7497510">
        <ele>9.6</ele>
        <time>2021-05-16T11:23:31Z</time>
      </trkpt>
      <trkpt lat="41.3525590" lon="-8.7497640">
        <ele>9.6</ele>
        <time>2021-05-16T11:23:32Z</time>
      </trkpt>
      <trkpt lat="41.3525520" lon="-8.7497950">
        <ele>9.6</ele>
        <time>2021-05-16T11:23:33Z</time>
      </trkpt>
      <trkpt lat="41.3525500" lon="-8.7498050">
        <ele>9.6</ele>
        <time>2021-05-16T11:23:34Z</time>
      </trkpt>
      <trkpt lat="41.3525470" lon="-8.7498140">
        <ele>9.6</ele>
        <time>2021-05-16T11:23:35Z</time>
      </trkpt>
      <trkpt lat="41.3525380" lon="-8.7498380">
        <ele>9.6</ele>
        <time>2021-05-16T11:23:36Z</time>
      </trkpt>
      <trkpt lat="41.3525310" lon="-8.7498470">
        <ele>9.6</ele>
        <time>2021-05-16T11:23:37Z</time>
      </trkpt>
      <trkpt lat="41.3525230" lon="-8.7498760">
        <ele>9.6</ele>
        <time>2021-05-16T11:23:38Z</time>
      </trkpt>
      <trkpt lat="41.3525220" lon="-8.7498880">
        <ele>9.6</ele>
        <time>2021-05-16T11:23:39Z</time>
      </trkpt>
      <trkpt lat="41.3525200" lon="-8.7498990">
        <ele>9.6</ele>
        <time>2021-05-16T11:23:40Z</time>
      </trkpt>
      <trkpt lat="41.3525150" lon="-8.7499120">
        <ele>9.6</ele>
        <time>2021-05-16T11:23:41Z</time>
      </trkpt>
      <trkpt lat="41.3525100" lon="-8.7499300">
        <ele>9.6</ele>
        <time>2021-05-16T11:23:42Z</time>
      </trkpt>
      <trkpt lat="41.3525060" lon="-8.7499380">
        <ele>9.6</ele>
        <time>2021-05-16T11:23:43Z</time>
      </trkpt>
      <trkpt lat="41.3525030" lon="-8.7499520">
        <ele>9.6</ele>
        <time>2021-05-16T11:23:44Z</time>
      </trkpt>
      <trkpt lat="41.3525020" lon="-8.7499690">
        <ele>9.6</ele>
        <time>2021-05-16T11:23:45Z</time>
      </trkpt>
      <trkpt lat="41.3524980" lon="-8.7499780">
        <ele>9.6</ele>
        <time>2021-05-16T11:23:46Z</time>
      </trkpt>
      <trkpt lat="41.3524970" lon="-8.7499980">
        <ele>9.6</ele>
        <time>2021-05-16T11:23:47Z</time>
      </trkpt>
      <trkpt lat="41.3524990" lon="-8.7500180">
        <ele>9.6</ele>
        <time>2021-05-16T11:23:48Z</time>
      </trkpt>
      <trkpt lat="41.3524940" lon="-8.7500410">
        <ele>9.6</ele>
        <time>2021-05-16T11:23:49Z</time>
      </trkpt>
      <trkpt lat="41.3524960" lon="-8.7500590">
        <ele>9.6</ele>
        <time>2021-05-16T11:23:50Z</time>
      </trkpt>
      <trkpt lat="41.3524850" lon="-8.7500820">
        <ele>9.6</ele>
        <time>2021-05-16T11:23:51Z</time>
      </trkpt>
      <trkpt lat="41.3524800" lon="-8.7500930">
        <ele>9.6</ele>
        <time>2021-05-16T11:23:52Z</time>
      </trkpt>
      <trkpt lat="41.3524750" lon="-8.7501050">
        <ele>9.6</ele>
        <time>2021-05-16T11:23:53Z</time>
      </trkpt>
      <trkpt lat="41.3524750" lon="-8.7501360">
        <ele>9.6</ele>
        <time>2021-05-16T11:23:54Z</time>
      </trkpt>
      <trkpt lat="41.3524690" lon="-8.7501510">
        <ele>9.6</ele>
        <time>2021-05-16T11:23:55Z</time>
      </trkpt>
      <trkpt lat="41.3524620" lon="-8.7501660">
        <ele>9.6</ele>
        <time>2021-05-16T11:23:56Z</time>
      </trkpt>
      <trkpt lat="41.3524530" lon="-8.7501850">
        <ele>9.6</ele>
        <time>2021-05-16T11:23:57Z</time>
      </trkpt>
      <trkpt lat="41.3524480" lon="-8.7502030">
        <ele>9.6</ele>
        <time>2021-05-16T11:23:58Z</time>
      </trkpt>
      <trkpt lat="41.3524370" lon="-8.7502180">
        <ele>9.7</ele>
        <time>2021-05-16T11:23:59Z</time>
      </trkpt>
      <trkpt lat="41.3524300" lon="-8.7502410">
        <ele>9.7</ele>
        <time>2021-05-16T11:24:00Z</time>
      </trkpt>
      <trkpt lat="41.3524130" lon="-8.7502710">
        <ele>9.7</ele>
        <time>2021-05-16T11:24:01Z</time>
      </trkpt>
      <trkpt lat="41.3524050" lon="-8.7502800">
        <ele>9.7</ele>
        <time>2021-05-16T11:24:02Z</time>
      </trkpt>
      <trkpt lat="41.3523970" lon="-8.7502990">
        <ele>9.7</ele>
        <time>2021-05-16T11:24:03Z</time>
      </trkpt>
      <trkpt lat="41.3523900" lon="-8.7503160">
        <ele>9.7</ele>
        <time>2021-05-16T11:24:04Z</time>
      </trkpt>
      <trkpt lat="41.3523880" lon="-8.7503370">
        <ele>9.7</ele>
        <time>2021-05-16T11:24:05Z</time>
      </trkpt>
      <trkpt lat="41.3523870" lon="-8.7503460">
        <ele>9.7</ele>
        <time>2021-05-16T11:24:06Z</time>
      </trkpt>
      <trkpt lat="41.3523850" lon="-8.7503560">
        <ele>9.7</ele>
        <time>2021-05-16T11:24:07Z</time>
      </trkpt>
      <trkpt lat="41.3523840" lon="-8.7503650">
        <ele>9.7</ele>
        <time>2021-05-16T11:24:08Z</time>
      </trkpt>
      <trkpt lat="41.3523740" lon="-8.7503930">
        <ele>9.7</ele>
        <time>2021-05-16T11:24:09Z</time>
      </trkpt>
      <trkpt lat="41.3523740" lon="-8.7504050">
        <ele>9.7</ele>
        <time>2021-05-16T11:24:10Z</time>
      </trkpt>
      <trkpt lat="41.3523740" lon="-8.7504160">
        <ele>9.7</ele>
        <time>2021-05-16T11:24:11Z</time>
      </trkpt>
      <trkpt lat="41.3523670" lon="-8.7504300">
        <ele>9.7</ele>
        <time>2021-05-16T11:24:12Z</time>
      </trkpt>
      <trkpt lat="41.3523680" lon="-8.7504530">
        <ele>9.7</ele>
        <time>2021-05-16T11:24:13Z</time>
      </trkpt>
      <trkpt lat="41.3523590" lon="-8.7504800">
        <ele>9.7</ele>
        <time>2021-05-16T11:24:14Z</time>
      </trkpt>
      <trkpt lat="41.3523550" lon="-8.7504900">
        <ele>9.7</ele>
        <time>2021-05-16T11:24:15Z</time>
      </trkpt>
      <trkpt lat="41.3523520" lon="-8.7504990">
        <ele>9.7</ele>
        <time>2021-05-16T11:24:16Z</time>
      </trkpt>
      <trkpt lat="41.3523360" lon="-8.7505140">
        <ele>9.8</ele>
        <time>2021-05-16T11:24:17Z</time>
      </trkpt>
      <trkpt lat="41.3523270" lon="-8.7505240">
        <ele>9.8</ele>
        <time>2021-05-16T11:24:18Z</time>
      </trkpt>
      <trkpt lat="41.3523190" lon="-8.7505340">
        <ele>9.8</ele>
        <time>2021-05-16T11:24:19Z</time>
      </trkpt>
      <trkpt lat="41.3523130" lon="-8.7505420">
        <ele>9.8</ele>
        <time>2021-05-16T11:24:20Z</time>
      </trkpt>
      <trkpt lat="41.3523120" lon="-8.7505580">
        <ele>9.8</ele>
        <time>2021-05-16T11:24:21Z</time>
      </trkpt>
      <trkpt lat="41.3523110" lon="-8.7505680">
        <ele>9.8</ele>
        <time>2021-05-16T11:24:22Z</time>
      </trkpt>
      <trkpt lat="41.3523020" lon="-8.7505920">
        <ele>9.8</ele>
        <time>2021-05-16T11:24:23Z</time>
      </trkpt>
      <trkpt lat="41.3522970" lon="-8.7506050">
        <ele>9.8</ele>
        <time>2021-05-16T11:24:24Z</time>
      </trkpt>
      <trkpt lat="41.3522850" lon="-8.7506310">
        <ele>9.8</ele>
        <time>2021-05-16T11:24:25Z</time>
      </trkpt>
      <trkpt lat="41.3522800" lon="-8.7506410">
        <ele>9.8</ele>
        <time>2021-05-16T11:24:26Z</time>
      </trkpt>
      <trkpt lat="41.3522760" lon="-8.7506500">
        <ele>9.8</ele>
        <time>2021-05-16T11:24:27Z</time>
      </trkpt>
      <trkpt lat="41.3522730" lon="-8.7506710">
        <ele>9.8</ele>
        <time>2021-05-16T11:24:28Z</time>
      </trkpt>
      <trkpt lat="41.3522710" lon="-8.7506890">
        <ele>9.8</ele>
        <time>2021-05-16T11:24:29Z</time>
      </trkpt>
      <trkpt lat="41.3522650" lon="-8.7506950">
        <ele>9.8</ele>
        <time>2021-05-16T11:24:30Z</time>
      </trkpt>
      <trkpt lat="41.3522600" lon="-8.7507120">
        <ele>9.8</ele>
        <time>2021-05-16T11:24:31Z</time>
      </trkpt>
      <trkpt lat="41.3522550" lon="-8.7507300">
        <ele>9.8</ele>
        <time>2021-05-16T11:24:32Z</time>
      </trkpt>
      <trkpt lat="41.3522470" lon="-8.7507570">
        <ele>9.8</ele>
        <time>2021-05-16T11:24:33Z</time>
      </trkpt>
      <trkpt lat="41.3522460" lon="-8.7507690">
        <ele>9.8</ele>
        <time>2021-05-16T11:24:34Z</time>
      </trkpt>
      <trkpt lat="41.3522440" lon="-8.7507800">
        <ele>9.8</ele>
        <time>2021-05-16T11:24:35Z</time>
      </trkpt>
      <trkpt lat="41.3522410" lon="-8.7507880">
        <ele>9.8</ele>
        <time>2021-05-16T11:24:36Z</time>
      </trkpt>
      <trkpt lat="41.3522400" lon="-8.7508100">
        <ele>9.8</ele>
        <time>2021-05-16T11:24:37Z</time>
      </trkpt>
      <trkpt lat="41.3522410" lon="-8.7508270">
        <ele>9.8</ele>
        <time>2021-05-16T11:24:38Z</time>
      </trkpt>
      <trkpt lat="41.3522410" lon="-8.7508470">
        <ele>9.8</ele>
        <time>2021-05-16T11:24:39Z</time>
      </trkpt>
      <trkpt lat="41.3522420" lon="-8.7508650">
        <ele>9.8</ele>
        <time>2021-05-16T11:24:40Z</time>
      </trkpt>
      <trkpt lat="41.3522400" lon="-8.7508750">
        <ele>9.8</ele>
        <time>2021-05-16T11:24:41Z</time>
      </trkpt>
      <trkpt lat="41.3522360" lon="-8.7508950">
        <ele>9.8</ele>
        <time>2021-05-16T11:24:42Z</time>
      </trkpt>
      <trkpt lat="41.3522330" lon="-8.7509080">
        <ele>9.8</ele>
        <time>2021-05-16T11:24:43Z</time>
      </trkpt>
      <trkpt lat="41.3522300" lon="-8.7509200">
        <ele>9.8</ele>
        <time>2021-05-16T11:24:44Z</time>
      </trkpt>
      <trkpt lat="41.3522280" lon="-8.7509350">
        <ele>9.8</ele>
        <time>2021-05-16T11:24:45Z</time>
      </trkpt>
      <trkpt lat="41.3522260" lon="-8.7509510">
        <ele>9.8</ele>
        <time>2021-05-16T11:24:46Z</time>
      </trkpt>
      <trkpt lat="41.3522210" lon="-8.7509560">
        <ele>9.8</ele>
        <time>2021-05-16T11:24:47Z</time>
      </trkpt>
      <trkpt lat="41.3522110" lon="-8.7509680">
        <ele>9.8</ele>
        <time>2021-05-16T11:24:48Z</time>
      </trkpt>
      <trkpt lat="41.3522070" lon="-8.7509810">
        <ele>9.8</ele>
        <time>2021-05-16T11:24:49Z</time>
      </trkpt>
      <trkpt lat="41.3522060" lon="-8.7509970">
        <ele>9.8</ele>
        <time>2021-05-16T11:24:50Z</time>
      </trkpt>
      <trkpt lat="41.3522030" lon="-8.7510150">
        <ele>9.8</ele>
        <time>2021-05-16T11:24:51Z</time>
      </trkpt>
      <trkpt lat="41.3521980" lon="-8.7510250">
        <ele>9.8</ele>
        <time>2021-05-16T11:24:52Z</time>
      </trkpt>
      <trkpt lat="41.3521850" lon="-8.7510410">
        <ele>9.8</ele>
        <time>2021-05-16T11:24:53Z</time>
      </trkpt>
      <trkpt lat="41.3521770" lon="-8.7510510">
        <ele>9.8</ele>
        <time>2021-05-16T11:24:54Z</time>
      </trkpt>
      <trkpt lat="41.3521700" lon="-8.7510610">
        <ele>9.8</ele>
        <time>2021-05-16T11:24:55Z</time>
      </trkpt>
      <trkpt lat="41.3521660" lon="-8.7510740">
        <ele>9.8</ele>
        <time>2021-05-16T11:24:56Z</time>
      </trkpt>
      <trkpt lat="41.3521710" lon="-8.7510830">
        <ele>9.8</ele>
        <time>2021-05-16T11:24:57Z</time>
      </trkpt>
      <trkpt lat="41.3521790" lon="-8.7510930">
        <ele>9.8</ele>
        <time>2021-05-16T11:24:58Z</time>
      </trkpt>
      <trkpt lat="41.3521770" lon="-8.7511070">
        <ele>9.8</ele>
        <time>2021-05-16T11:24:59Z</time>
      </trkpt>
      <trkpt lat="41.3521700" lon="-8.7511210">
        <ele>9.8</ele>
        <time>2021-05-16T11:25:00Z</time>
      </trkpt>
      <trkpt lat="41.3521580" lon="-8.7511400">
        <ele>9.8</ele>
        <time>2021-05-16T11:25:01Z</time>
      </trkpt>
      <trkpt lat="41.3521530" lon="-8.7511510">
        <ele>9.8</ele>
        <time>2021-05-16T11:25:02Z</time>
      </trkpt>
      <trkpt lat="41.3521460" lon="-8.7511700">
        <ele>9.8</ele>
        <time>2021-05-16T11:25:03Z</time>
      </trkpt>
      <trkpt lat="41.3521430" lon="-8.7511820">
        <ele>9.8</ele>
        <time>2021-05-16T11:25:04Z</time>
      </trkpt>
      <trkpt lat="41.3521340" lon="-8.7512050">
        <ele>9.8</ele>
        <time>2021-05-16T11:25:05Z</time>
      </trkpt>
      <trkpt lat="41.3521310" lon="-8.7512190">
        <ele>9.8</ele>
        <time>2021-05-16T11:25:06Z</time>
      </trkpt>
      <trkpt lat="41.3521290" lon="-8.7512340">
        <ele>9.8</ele>
        <time>2021-05-16T11:25:07Z</time>
      </trkpt>
      <trkpt lat="41.3521220" lon="-8.7512530">
        <ele>9.8</ele>
        <time>2021-05-16T11:25:08Z</time>
      </trkpt>
      <trkpt lat="41.3521170" lon="-8.7512580">
        <ele>9.8</ele>
        <time>2021-05-16T11:25:09Z</time>
      </trkpt>
      <trkpt lat="41.3521110" lon="-8.7512630">
        <ele>9.8</ele>
        <time>2021-05-16T11:25:10Z</time>
      </trkpt>
      <trkpt lat="41.3521060" lon="-8.7512680">
        <ele>9.8</ele>
        <time>2021-05-16T11:25:11Z</time>
      </trkpt>
      <trkpt lat="41.3521000" lon="-8.7512730">
        <ele>9.8</ele>
        <time>2021-05-16T11:25:12Z</time>
      </trkpt>
      <trkpt lat="41.3520790" lon="-8.7513010">
        <ele>9.8</ele>
        <time>2021-05-16T11:25:13Z</time>
      </trkpt>
      <trkpt lat="41.3520730" lon="-8.7513110">
        <ele>9.8</ele>
        <time>2021-05-16T11:25:14Z</time>
      </trkpt>
      <trkpt lat="41.3520590" lon="-8.7513290">
        <ele>9.8</ele>
        <time>2021-05-16T11:25:15Z</time>
      </trkpt>
      <trkpt lat="41.3520490" lon="-8.7513460">
        <ele>9.8</ele>
        <time>2021-05-16T11:25:16Z</time>
      </trkpt>
      <trkpt lat="41.3520330" lon="-8.7513570">
        <ele>9.8</ele>
        <time>2021-05-16T11:25:17Z</time>
      </trkpt>
      <trkpt lat="41.3520250" lon="-8.7513700">
        <ele>9.8</ele>
        <time>2021-05-16T11:25:18Z</time>
      </trkpt>
      <trkpt lat="41.3520170" lon="-8.7513830">
        <ele>9.8</ele>
        <time>2021-05-16T11:25:19Z</time>
      </trkpt>
      <trkpt lat="41.3520090" lon="-8.7514040">
        <ele>9.8</ele>
        <time>2021-05-16T11:25:20Z</time>
      </trkpt>
      <trkpt lat="41.3520000" lon="-8.7514200">
        <ele>9.8</ele>
        <time>2021-05-16T11:25:21Z</time>
      </trkpt>
      <trkpt lat="41.3519880" lon="-8.7514240">
        <ele>9.8</ele>
        <time>2021-05-16T11:25:22Z</time>
      </trkpt>
      <trkpt lat="41.3519830" lon="-8.7514480">
        <ele>9.8</ele>
        <time>2021-05-16T11:25:23Z</time>
      </trkpt>
      <trkpt lat="41.3519760" lon="-8.7514680">
        <ele>9.8</ele>
        <time>2021-05-16T11:25:24Z</time>
      </trkpt>
      <trkpt lat="41.3519740" lon="-8.7514780">
        <ele>9.8</ele>
        <time>2021-05-16T11:25:25Z</time>
      </trkpt>
      <trkpt lat="41.3519770" lon="-8.7514870">
        <ele>9.8</ele>
        <time>2021-05-16T11:25:26Z</time>
      </trkpt>
      <trkpt lat="41.3519700" lon="-8.7515140">
        <ele>9.8</ele>
        <time>2021-05-16T11:25:27Z</time>
      </trkpt>
      <trkpt lat="41.3519650" lon="-8.7515300">
        <ele>9.8</ele>
        <time>2021-05-16T11:25:28Z</time>
      </trkpt>
      <trkpt lat="41.3519650" lon="-8.7515470">
        <ele>9.8</ele>
        <time>2021-05-16T11:25:29Z</time>
      </trkpt>
      <trkpt lat="41.3519610" lon="-8.7515590">
        <ele>9.8</ele>
        <time>2021-05-16T11:25:30Z</time>
      </trkpt>
      <trkpt lat="41.3519560" lon="-8.7515700">
        <ele>9.8</ele>
        <time>2021-05-16T11:25:31Z</time>
      </trkpt>
      <trkpt lat="41.3519520" lon="-8.7515820">
        <ele>9.8</ele>
        <time>2021-05-16T11:25:32Z</time>
      </trkpt>
      <trkpt lat="41.3519450" lon="-8.7515920">
        <ele>9.8</ele>
        <time>2021-05-16T11:25:33Z</time>
      </trkpt>
      <trkpt lat="41.3519410" lon="-8.7516190">
        <ele>9.8</ele>
        <time>2021-05-16T11:25:34Z</time>
      </trkpt>
      <trkpt lat="41.3519330" lon="-8.7516450">
        <ele>9.8</ele>
        <time>2021-05-16T11:25:35Z</time>
      </trkpt>
      <trkpt lat="41.3519280" lon="-8.7516620">
        <ele>9.8</ele>
        <time>2021-05-16T11:25:36Z</time>
      </trkpt>
      <trkpt lat="41.3519230" lon="-8.7516800">
        <ele>9.8</ele>
        <time>2021-05-16T11:25:37Z</time>
      </trkpt>
      <trkpt lat="41.3519240" lon="-8.7516820">
        <ele>9.8</ele>
        <time>2021-05-16T11:25:38Z</time>
      </trkpt>
      <trkpt lat="41.3519180" lon="-8.7516970">
        <ele>9.8</ele>
        <time>2021-05-16T11:25:39Z</time>
      </trkpt>
      <trkpt lat="41.3519140" lon="-8.7517160">
        <ele>9.8</ele>
        <time>2021-05-16T11:25:40Z</time>
      </trkpt>
      <trkpt lat="41.3519150" lon="-8.7517300">
        <ele>9.8</ele>
        <time>2021-05-16T11:25:41Z</time>
      </trkpt>
      <trkpt lat="41.3519170" lon="-8.7517480">
        <ele>9.8</ele>
        <time>2021-05-16T11:25:42Z</time>
      </trkpt>
      <trkpt lat="41.3519140" lon="-8.7517620">
        <ele>9.8</ele>
        <time>2021-05-16T11:25:43Z</time>
      </trkpt>
      <trkpt lat="41.3519070" lon="-8.7518010">
        <ele>9.8</ele>
        <time>2021-05-16T11:25:44Z</time>
      </trkpt>
      <trkpt lat="41.3519030" lon="-8.7518100">
        <ele>9.8</ele>
        <time>2021-05-16T11:25:45Z</time>
      </trkpt>
      <trkpt lat="41.3518970" lon="-8.7518460">
        <ele>9.8</ele>
        <time>2021-05-16T11:25:46Z</time>
      </trkpt>
      <trkpt lat="41.3518890" lon="-8.7518540">
        <ele>9.8</ele>
        <time>2021-05-16T11:25:47Z</time>
      </trkpt>
      <trkpt lat="41.3518820" lon="-8.7518610">
        <ele>9.8</ele>
        <time>2021-05-16T11:25:48Z</time>
      </trkpt>
      <trkpt lat="41.3518720" lon="-8.7518770">
        <ele>9.7</ele>
        <time>2021-05-16T11:25:49Z</time>
      </trkpt>
      <trkpt lat="41.3518590" lon="-8.7518860">
        <ele>9.7</ele>
        <time>2021-05-16T11:25:50Z</time>
      </trkpt>
      <trkpt lat="41.3518570" lon="-8.7519240">
        <ele>9.7</ele>
        <time>2021-05-16T11:25:51Z</time>
      </trkpt>
      <trkpt lat="41.3518550" lon="-8.7519350">
        <ele>9.7</ele>
        <time>2021-05-16T11:25:52Z</time>
      </trkpt>
      <trkpt lat="41.3518570" lon="-8.7519560">
        <ele>9.7</ele>
        <time>2021-05-16T11:25:53Z</time>
      </trkpt>
      <trkpt lat="41.3518520" lon="-8.7519770">
        <ele>9.7</ele>
        <time>2021-05-16T11:25:54Z</time>
      </trkpt>
      <trkpt lat="41.3518420" lon="-8.7519960">
        <ele>9.7</ele>
        <time>2021-05-16T11:25:55Z</time>
      </trkpt>
      <trkpt lat="41.3518460" lon="-8.7520140">
        <ele>9.7</ele>
        <time>2021-05-16T11:25:56Z</time>
      </trkpt>
      <trkpt lat="41.3518420" lon="-8.7520570">
        <ele>9.7</ele>
        <time>2021-05-16T11:25:57Z</time>
      </trkpt>
      <trkpt lat="41.3518440" lon="-8.7520740">
        <ele>9.7</ele>
        <time>2021-05-16T11:25:58Z</time>
      </trkpt>
      <trkpt lat="41.3518340" lon="-8.7520890">
        <ele>9.7</ele>
        <time>2021-05-16T11:25:59Z</time>
      </trkpt>
      <trkpt lat="41.3518270" lon="-8.7521080">
        <ele>9.7</ele>
        <time>2021-05-16T11:26:00Z</time>
      </trkpt>
      <trkpt lat="41.3518230" lon="-8.7521360">
        <ele>9.7</ele>
        <time>2021-05-16T11:26:01Z</time>
      </trkpt>
      <trkpt lat="41.3518150" lon="-8.7521420">
        <ele>9.7</ele>
        <time>2021-05-16T11:26:02Z</time>
      </trkpt>
      <trkpt lat="41.3518020" lon="-8.7521630">
        <ele>9.7</ele>
        <time>2021-05-16T11:26:03Z</time>
      </trkpt>
      <trkpt lat="41.3517990" lon="-8.7521760">
        <ele>9.7</ele>
        <time>2021-05-16T11:26:04Z</time>
      </trkpt>
      <trkpt lat="41.3517960" lon="-8.7521890">
        <ele>9.7</ele>
        <time>2021-05-16T11:26:05Z</time>
      </trkpt>
      <trkpt lat="41.3517930" lon="-8.7522180">
        <ele>9.7</ele>
        <time>2021-05-16T11:26:06Z</time>
      </trkpt>
      <trkpt lat="41.3517880" lon="-8.7522150">
        <ele>9.7</ele>
        <time>2021-05-16T11:26:07Z</time>
      </trkpt>
      <trkpt lat="41.3517860" lon="-8.7522280">
        <ele>9.7</ele>
        <time>2021-05-16T11:26:08Z</time>
      </trkpt>
      <trkpt lat="41.3517700" lon="-8.7522320">
        <ele>9.7</ele>
        <time>2021-05-16T11:26:09Z</time>
      </trkpt>
      <trkpt lat="41.3517700" lon="-8.7522350">
        <ele>9.7</ele>
        <time>2021-05-16T11:26:10Z</time>
      </trkpt>
      <trkpt lat="41.3517600" lon="-8.7522580">
        <ele>9.7</ele>
        <time>2021-05-16T11:26:11Z</time>
      </trkpt>
      <trkpt lat="41.3517490" lon="-8.7522680">
        <ele>9.7</ele>
        <time>2021-05-16T11:26:12Z</time>
      </trkpt>
      <trkpt lat="41.3517440" lon="-8.7522900">
        <ele>9.7</ele>
        <time>2021-05-16T11:26:13Z</time>
      </trkpt>
      <trkpt lat="41.3517400" lon="-8.7522970">
        <ele>9.7</ele>
        <time>2021-05-16T11:26:14Z</time>
      </trkpt>
      <trkpt lat="41.3517400" lon="-8.7523080">
        <ele>9.7</ele>
        <time>2021-05-16T11:26:15Z</time>
      </trkpt>
      <trkpt lat="41.3517510" lon="-8.7523310">
        <ele>9.7</ele>
        <time>2021-05-16T11:26:16Z</time>
      </trkpt>
      <trkpt lat="41.3517500" lon="-8.7523430">
        <ele>9.7</ele>
        <time>2021-05-16T11:26:17Z</time>
      </trkpt>
      <trkpt lat="41.3517460" lon="-8.7523630">
        <ele>9.7</ele>
        <time>2021-05-16T11:26:18Z</time>
      </trkpt>
      <trkpt lat="41.3517440" lon="-8.7523720">
        <ele>9.7</ele>
        <time>2021-05-16T11:26:19Z</time>
      </trkpt>
      <trkpt lat="41.3517390" lon="-8.7523770">
        <ele>9.7</ele>
        <time>2021-05-16T11:26:20Z</time>
      </trkpt>
      <trkpt lat="41.3517300" lon="-8.7523910">
        <ele>9.6</ele>
        <time>2021-05-16T11:26:21Z</time>
      </trkpt>
      <trkpt lat="41.3517240" lon="-8.7523970">
        <ele>9.6</ele>
        <time>2021-05-16T11:26:22Z</time>
      </trkpt>
      <trkpt lat="41.3517130" lon="-8.7524100">
        <ele>9.6</ele>
        <time>2021-05-16T11:26:23Z</time>
      </trkpt>
      <trkpt lat="41.3517060" lon="-8.7524170">
        <ele>9.6</ele>
        <time>2021-05-16T11:26:24Z</time>
      </trkpt>
      <trkpt lat="41.3516980" lon="-8.7524250">
        <ele>9.6</ele>
        <time>2021-05-16T11:26:25Z</time>
      </trkpt>
      <trkpt lat="41.3516900" lon="-8.7524320">
        <ele>9.6</ele>
        <time>2021-05-16T11:26:26Z</time>
      </trkpt>
      <trkpt lat="41.3516850" lon="-8.7524420">
        <ele>9.6</ele>
        <time>2021-05-16T11:26:27Z</time>
      </trkpt>
      <trkpt lat="41.3516700" lon="-8.7524600">
        <ele>9.6</ele>
        <time>2021-05-16T11:26:28Z</time>
      </trkpt>
      <trkpt lat="41.3516630" lon="-8.7524720">
        <ele>9.5</ele>
        <time>2021-05-16T11:26:29Z</time>
      </trkpt>
      <trkpt lat="41.3516540" lon="-8.7524990">
        <ele>9.5</ele>
        <time>2021-05-16T11:26:30Z</time>
      </trkpt>
      <trkpt lat="41.3516520" lon="-8.7524980">
        <ele>9.5</ele>
        <time>2021-05-16T11:26:31Z</time>
      </trkpt>
      <trkpt lat="41.3516450" lon="-8.7525080">
        <ele>9.5</ele>
        <time>2021-05-16T11:26:32Z</time>
      </trkpt>
      <trkpt lat="41.3516360" lon="-8.7525270">
        <ele>9.5</ele>
        <time>2021-05-16T11:26:33Z</time>
      </trkpt>
      <trkpt lat="41.3516320" lon="-8.7525390">
        <ele>9.5</ele>
        <time>2021-05-16T11:26:34Z</time>
      </trkpt>
      <trkpt lat="41.3516230" lon="-8.7525640">
        <ele>9.5</ele>
        <time>2021-05-16T11:26:35Z</time>
      </trkpt>
      <trkpt lat="41.3516160" lon="-8.7525650">
        <ele>9.5</ele>
        <time>2021-05-16T11:26:36Z</time>
      </trkpt>
      <trkpt lat="41.3516120" lon="-8.7525800">
        <ele>9.4</ele>
        <time>2021-05-16T11:26:37Z</time>
      </trkpt>
      <trkpt lat="41.3516100" lon="-8.7525960">
        <ele>9.4</ele>
        <time>2021-05-16T11:26:38Z</time>
      </trkpt>
      <trkpt lat="41.3515990" lon="-8.7526120">
        <ele>9.4</ele>
        <time>2021-05-16T11:26:39Z</time>
      </trkpt>
      <trkpt lat="41.3515920" lon="-8.7526210">
        <ele>9.4</ele>
        <time>2021-05-16T11:26:40Z</time>
      </trkpt>
      <trkpt lat="41.3515850" lon="-8.7526310">
        <ele>9.4</ele>
        <time>2021-05-16T11:26:41Z</time>
      </trkpt>
      <trkpt lat="41.3515690" lon="-8.7526410">
        <ele>9.4</ele>
        <time>2021-05-16T11:26:42Z</time>
      </trkpt>
      <trkpt lat="41.3515630" lon="-8.7526670">
        <ele>9.4</ele>
        <time>2021-05-16T11:26:43Z</time>
      </trkpt>
      <trkpt lat="41.3515530" lon="-8.7526740">
        <ele>9.3</ele>
        <time>2021-05-16T11:26:44Z</time>
      </trkpt>
      <trkpt lat="41.3515390" lon="-8.7526800">
        <ele>9.3</ele>
        <time>2021-05-16T11:26:45Z</time>
      </trkpt>
      <trkpt lat="41.3515360" lon="-8.7526910">
        <ele>9.3</ele>
        <time>2021-05-16T11:26:46Z</time>
      </trkpt>
      <trkpt lat="41.3515370" lon="-8.7527000">
        <ele>9.3</ele>
        <time>2021-05-16T11:26:47Z</time>
      </trkpt>
      <trkpt lat="41.3515320" lon="-8.7527150">
        <ele>9.3</ele>
        <time>2021-05-16T11:26:48Z</time>
      </trkpt>
      <trkpt lat="41.3515310" lon="-8.7527370">
        <ele>9.3</ele>
        <time>2021-05-16T11:26:49Z</time>
      </trkpt>
      <trkpt lat="41.3515310" lon="-8.7527640">
        <ele>9.3</ele>
        <time>2021-05-16T11:26:50Z</time>
      </trkpt>
      <trkpt lat="41.3515300" lon="-8.7527750">
        <ele>9.3</ele>
        <time>2021-05-16T11:26:51Z</time>
      </trkpt>
      <trkpt lat="41.3515290" lon="-8.7527870">
        <ele>9.2</ele>
        <time>2021-05-16T11:26:52Z</time>
      </trkpt>
      <trkpt lat="41.3515130" lon="-8.7528010">
        <ele>9.2</ele>
        <time>2021-05-16T11:26:53Z</time>
      </trkpt>
      <trkpt lat="41.3515110" lon="-8.7528190">
        <ele>9.2</ele>
        <time>2021-05-16T11:26:54Z</time>
      </trkpt>
      <trkpt lat="41.3515100" lon="-8.7528260">
        <ele>9.2</ele>
        <time>2021-05-16T11:26:55Z</time>
      </trkpt>
      <trkpt lat="41.3515080" lon="-8.7528480">
        <ele>9.2</ele>
        <time>2021-05-16T11:26:56Z</time>
      </trkpt>
      <trkpt lat="41.3514960" lon="-8.7528600">
        <ele>9.2</ele>
        <time>2021-05-16T11:26:57Z</time>
      </trkpt>
      <trkpt lat="41.3514970" lon="-8.7528900">
        <ele>9.1</ele>
        <time>2021-05-16T11:26:58Z</time>
      </trkpt>
      <trkpt lat="41.3514920" lon="-8.7529040">
        <ele>9.1</ele>
        <time>2021-05-16T11:26:59Z</time>
      </trkpt>
      <trkpt lat="41.3514970" lon="-8.7529220">
        <ele>9.1</ele>
        <time>2021-05-16T11:27:00Z</time>
      </trkpt>
      <trkpt lat="41.3514940" lon="-8.7529430">
        <ele>9.1</ele>
        <time>2021-05-16T11:27:01Z</time>
      </trkpt>
      <trkpt lat="41.3514920" lon="-8.7529500">
        <ele>9.1</ele>
        <time>2021-05-16T11:27:02Z</time>
      </trkpt>
      <trkpt lat="41.3514920" lon="-8.7529780">
        <ele>9.1</ele>
        <time>2021-05-16T11:27:03Z</time>
      </trkpt>
      <trkpt lat="41.3514770" lon="-8.7529770">
        <ele>9.0</ele>
        <time>2021-05-16T11:27:04Z</time>
      </trkpt>
      <trkpt lat="41.3514840" lon="-8.7529880">
        <ele>9.0</ele>
        <time>2021-05-16T11:27:05Z</time>
      </trkpt>
      <trkpt lat="41.3514780" lon="-8.7529980">
        <ele>9.0</ele>
        <time>2021-05-16T11:27:06Z</time>
      </trkpt>
      <trkpt lat="41.3514690" lon="-8.7530120">
        <ele>9.0</ele>
        <time>2021-05-16T11:27:07Z</time>
      </trkpt>
      <trkpt lat="41.3514790" lon="-8.7530410">
        <ele>9.0</ele>
        <time>2021-05-16T11:27:08Z</time>
      </trkpt>
      <trkpt lat="41.3514730" lon="-8.7530410">
        <ele>8.9</ele>
        <time>2021-05-16T11:27:09Z</time>
      </trkpt>
      <trkpt lat="41.3514720" lon="-8.7530580">
        <ele>8.9</ele>
        <time>2021-05-16T11:27:10Z</time>
      </trkpt>
      <trkpt lat="41.3514740" lon="-8.7530790">
        <ele>8.9</ele>
        <time>2021-05-16T11:27:11Z</time>
      </trkpt>
      <trkpt lat="41.3514750" lon="-8.7530910">
        <ele>8.9</ele>
        <time>2021-05-16T11:27:12Z</time>
      </trkpt>
      <trkpt lat="41.3514690" lon="-8.7531050">
        <ele>8.9</ele>
        <time>2021-05-16T11:27:13Z</time>
      </trkpt>
      <trkpt lat="41.3514730" lon="-8.7531110">
        <ele>8.9</ele>
        <time>2021-05-16T11:27:14Z</time>
      </trkpt>
      <trkpt lat="41.3514760" lon="-8.7531290">
        <ele>8.9</ele>
        <time>2021-05-16T11:27:15Z</time>
      </trkpt>
      <trkpt lat="41.3514730" lon="-8.7531430">
        <ele>8.8</ele>
        <time>2021-05-16T11:27:16Z</time>
      </trkpt>
      <trkpt lat="41.3514610" lon="-8.7531790">
        <ele>8.8</ele>
        <time>2021-05-16T11:27:17Z</time>
      </trkpt>
      <trkpt lat="41.3514570" lon="-8.7531910">
        <ele>8.8</ele>
        <time>2021-05-16T11:27:18Z</time>
      </trkpt>
      <trkpt lat="41.3514480" lon="-8.7532080">
        <ele>8.8</ele>
        <time>2021-05-16T11:27:19Z</time>
      </trkpt>
      <trkpt lat="41.3514410" lon="-8.7532220">
        <ele>8.8</ele>
        <time>2021-05-16T11:27:20Z</time>
      </trkpt>
      <trkpt lat="41.3514340" lon="-8.7532510">
        <ele>8.7</ele>
        <time>2021-05-16T11:27:21Z</time>
      </trkpt>
      <trkpt lat="41.3514330" lon="-8.7532630">
        <ele>8.7</ele>
        <time>2021-05-16T11:27:22Z</time>
      </trkpt>
      <trkpt lat="41.3514310" lon="-8.7532740">
        <ele>8.7</ele>
        <time>2021-05-16T11:27:23Z</time>
      </trkpt>
      <trkpt lat="41.3514320" lon="-8.7532930">
        <ele>8.7</ele>
        <time>2021-05-16T11:27:24Z</time>
      </trkpt>
      <trkpt lat="41.3514390" lon="-8.7533050">
        <ele>8.7</ele>
        <time>2021-05-16T11:27:25Z</time>
      </trkpt>
      <trkpt lat="41.3514350" lon="-8.7533150">
        <ele>8.7</ele>
        <time>2021-05-16T11:27:26Z</time>
      </trkpt>
      <trkpt lat="41.3514160" lon="-8.7533520">
        <ele>8.6</ele>
        <time>2021-05-16T11:27:27Z</time>
      </trkpt>
      <trkpt lat="41.3514130" lon="-8.7533680">
        <ele>8.6</ele>
        <time>2021-05-16T11:27:28Z</time>
      </trkpt>
      <trkpt lat="41.3513980" lon="-8.7533900">
        <ele>8.6</ele>
        <time>2021-05-16T11:27:29Z</time>
      </trkpt>
      <trkpt lat="41.3513920" lon="-8.7533990">
        <ele>8.6</ele>
        <time>2021-05-16T11:27:30Z</time>
      </trkpt>
      <trkpt lat="41.3513870" lon="-8.7534070">
        <ele>8.6</ele>
        <time>2021-05-16T11:27:31Z</time>
      </trkpt>
      <trkpt lat="41.3513870" lon="-8.7534280">
        <ele>8.6</ele>
        <time>2021-05-16T11:27:32Z</time>
      </trkpt>
      <trkpt lat="41.3513710" lon="-8.7534410">
        <ele>8.6</ele>
        <time>2021-05-16T11:27:33Z</time>
      </trkpt>
      <trkpt lat="41.3513560" lon="-8.7534570">
        <ele>8.5</ele>
        <time>2021-05-16T11:27:34Z</time>
      </trkpt>
      <trkpt lat="41.3513500" lon="-8.7534750">
        <ele>8.5</ele>
        <time>2021-05-16T11:27:35Z</time>
      </trkpt>
      <trkpt lat="41.3513300" lon="-8.7534960">
        <ele>8.5</ele>
        <time>2021-05-16T11:27:36Z</time>
      </trkpt>
      <trkpt lat="41.3513190" lon="-8.7535020">
        <ele>8.5</ele>
        <time>2021-05-16T11:27:37Z</time>
      </trkpt>
      <trkpt lat="41.3513010" lon="-8.7535170">
        <ele>8.5</ele>
        <time>2021-05-16T11:27:38Z</time>
      </trkpt>
      <trkpt lat="41.3512880" lon="-8.7535250">
        <ele>8.4</ele>
        <time>2021-05-16T11:27:39Z</time>
      </trkpt>
      <trkpt lat="41.3512790" lon="-8.7535500">
        <ele>8.4</ele>
        <time>2021-05-16T11:27:40Z</time>
      </trkpt>
      <trkpt lat="41.3512810" lon="-8.7535630">
        <ele>8.4</ele>
        <time>2021-05-16T11:27:41Z</time>
      </trkpt>
      <trkpt lat="41.3512760" lon="-8.7535720">
        <ele>8.4</ele>
        <time>2021-05-16T11:27:42Z</time>
      </trkpt>
      <trkpt lat="41.3512660" lon="-8.7535820">
        <ele>8.4</ele>
        <time>2021-05-16T11:27:43Z</time>
      </trkpt>
      <trkpt lat="41.3512580" lon="-8.7535990">
        <ele>8.4</ele>
        <time>2021-05-16T11:27:44Z</time>
      </trkpt>
      <trkpt lat="41.3512510" lon="-8.7536230">
        <ele>8.3</ele>
        <time>2021-05-16T11:27:45Z</time>
      </trkpt>
      <trkpt lat="41.3512540" lon="-8.7536460">
        <ele>8.3</ele>
        <time>2021-05-16T11:27:46Z</time>
      </trkpt>
      <trkpt lat="41.3512650" lon="-8.7536750">
        <ele>8.2</ele>
        <time>2021-05-16T11:27:47Z</time>
      </trkpt>
      <trkpt lat="41.3512670" lon="-8.7536830">
        <ele>8.2</ele>
        <time>2021-05-16T11:27:48Z</time>
      </trkpt>
      <trkpt lat="41.3512700" lon="-8.7536900">
        <ele>8.2</ele>
        <time>2021-05-16T11:27:49Z</time>
      </trkpt>
      <trkpt lat="41.3512740" lon="-8.7537070">
        <ele>8.3</ele>
        <time>2021-05-16T11:27:50Z</time>
      </trkpt>
      <trkpt lat="41.3512710" lon="-8.7537250">
        <ele>8.3</ele>
        <time>2021-05-16T11:27:51Z</time>
      </trkpt>
      <trkpt lat="41.3512790" lon="-8.7537300">
        <ele>8.3</ele>
        <time>2021-05-16T11:27:52Z</time>
      </trkpt>
      <trkpt lat="41.3512860" lon="-8.7537470">
        <ele>8.3</ele>
        <time>2021-05-16T11:27:53Z</time>
      </trkpt>
      <trkpt lat="41.3512980" lon="-8.7537570">
        <ele>8.3</ele>
        <time>2021-05-16T11:27:54Z</time>
      </trkpt>
      <trkpt lat="41.3513140" lon="-8.7537700">
        <ele>8.3</ele>
        <time>2021-05-16T11:27:55Z</time>
      </trkpt>
      <trkpt lat="41.3513210" lon="-8.7537780">
        <ele>8.3</ele>
        <time>2021-05-16T11:27:56Z</time>
      </trkpt>
      <trkpt lat="41.3513280" lon="-8.7537860">
        <ele>8.3</ele>
        <time>2021-05-16T11:27:57Z</time>
      </trkpt>
      <trkpt lat="41.3513500" lon="-8.7537920">
        <ele>8.3</ele>
        <time>2021-05-16T11:27:58Z</time>
      </trkpt>
      <trkpt lat="41.3513570" lon="-8.7537950">
        <ele>8.3</ele>
        <time>2021-05-16T11:27:59Z</time>
      </trkpt>
      <trkpt lat="41.3513640" lon="-8.7537990">
        <ele>8.3</ele>
        <time>2021-05-16T11:28:00Z</time>
      </trkpt>
      <trkpt lat="41.3513810" lon="-8.7538110">
        <ele>8.3</ele>
        <time>2021-05-16T11:28:01Z</time>
      </trkpt>
      <trkpt lat="41.3513940" lon="-8.7538200">
        <ele>8.3</ele>
        <time>2021-05-16T11:28:02Z</time>
      </trkpt>
      <trkpt lat="41.3514060" lon="-8.7538270">
        <ele>8.3</ele>
        <time>2021-05-16T11:28:03Z</time>
      </trkpt>
      <trkpt lat="41.3514220" lon="-8.7538360">
        <ele>8.3</ele>
        <time>2021-05-16T11:28:04Z</time>
      </trkpt>
      <trkpt lat="41.3514370" lon="-8.7538310">
        <ele>8.3</ele>
        <time>2021-05-16T11:28:05Z</time>
      </trkpt>
      <trkpt lat="41.3514520" lon="-8.7538290">
        <ele>8.3</ele>
        <time>2021-05-16T11:28:06Z</time>
      </trkpt>
      <trkpt lat="41.3514690" lon="-8.7538300">
        <ele>8.3</ele>
        <time>2021-05-16T11:28:07Z</time>
      </trkpt>
      <trkpt lat="41.3514870" lon="-8.7538370">
        <ele>8.3</ele>
        <time>2021-05-16T11:28:08Z</time>
      </trkpt>
      <trkpt lat="41.3515030" lon="-8.7538470">
        <ele>8.3</ele>
        <time>2021-05-16T11:28:09Z</time>
      </trkpt>
      <trkpt lat="41.3515070" lon="-8.7538400">
        <ele>8.3</ele>
        <time>2021-05-16T11:28:10Z</time>
      </trkpt>
      <trkpt lat="41.3515190" lon="-8.7538410">
        <ele>8.3</ele>
        <time>2021-05-16T11:28:11Z</time>
      </trkpt>
      <trkpt lat="41.3515420" lon="-8.7538550">
        <ele>8.3</ele>
        <time>2021-05-16T11:28:12Z</time>
      </trkpt>
      <trkpt lat="41.3515500" lon="-8.7538550">
        <ele>8.3</ele>
        <time>2021-05-16T11:28:13Z</time>
      </trkpt>
      <trkpt lat="41.3515580" lon="-8.7538560">
        <ele>8.3</ele>
        <time>2021-05-16T11:28:14Z</time>
      </trkpt>
      <trkpt lat="41.3515750" lon="-8.7538610">
        <ele>8.3</ele>
        <time>2021-05-16T11:28:15Z</time>
      </trkpt>
      <trkpt lat="41.3515920" lon="-8.7538630">
        <ele>8.3</ele>
        <time>2021-05-16T11:28:16Z</time>
      </trkpt>
      <trkpt lat="41.3516070" lon="-8.7538640">
        <ele>8.3</ele>
        <time>2021-05-16T11:28:17Z</time>
      </trkpt>
      <trkpt lat="41.3516240" lon="-8.7538690">
        <ele>8.3</ele>
        <time>2021-05-16T11:28:18Z</time>
      </trkpt>
      <trkpt lat="41.3516360" lon="-8.7538820">
        <ele>8.3</ele>
        <time>2021-05-16T11:28:19Z</time>
      </trkpt>
      <trkpt lat="41.3516510" lon="-8.7538760">
        <ele>8.3</ele>
        <time>2021-05-16T11:28:20Z</time>
      </trkpt>
      <trkpt lat="41.3516620" lon="-8.7538790">
        <ele>8.3</ele>
        <time>2021-05-16T11:28:21Z</time>
      </trkpt>
      <trkpt lat="41.3516820" lon="-8.7538820">
        <ele>8.3</ele>
        <time>2021-05-16T11:28:22Z</time>
      </trkpt>
      <trkpt lat="41.3516920" lon="-8.7538810">
        <ele>8.3</ele>
        <time>2021-05-16T11:28:23Z</time>
      </trkpt>
      <trkpt lat="41.3517100" lon="-8.7538860">
        <ele>8.3</ele>
        <time>2021-05-16T11:28:24Z</time>
      </trkpt>
      <trkpt lat="41.3517190" lon="-8.7538960">
        <ele>8.3</ele>
        <time>2021-05-16T11:28:25Z</time>
      </trkpt>
      <trkpt lat="41.3517300" lon="-8.7538980">
        <ele>8.3</ele>
        <time>2021-05-16T11:28:26Z</time>
      </trkpt>
      <trkpt lat="41.3517390" lon="-8.7538980">
        <ele>8.3</ele>
        <time>2021-05-16T11:28:27Z</time>
      </trkpt>
      <trkpt lat="41.3517550" lon="-8.7539030">
        <ele>8.3</ele>
        <time>2021-05-16T11:28:28Z</time>
      </trkpt>
      <trkpt lat="41.3517680" lon="-8.7539000">
        <ele>8.3</ele>
        <time>2021-05-16T11:28:29Z</time>
      </trkpt>
      <trkpt lat="41.3517800" lon="-8.7538970">
        <ele>8.3</ele>
        <time>2021-05-16T11:28:30Z</time>
      </trkpt>
      <trkpt lat="41.3517890" lon="-8.7539000">
        <ele>8.3</ele>
        <time>2021-05-16T11:28:31Z</time>
      </trkpt>
      <trkpt lat="41.3517960" lon="-8.7539030">
        <ele>8.3</ele>
        <time>2021-05-16T11:28:32Z</time>
      </trkpt>
      <trkpt lat="41.3518060" lon="-8.7539030">
        <ele>8.3</ele>
        <time>2021-05-16T11:28:33Z</time>
      </trkpt>
      <trkpt lat="41.3518150" lon="-8.7539070">
        <ele>8.3</ele>
        <time>2021-05-16T11:28:34Z</time>
      </trkpt>
      <trkpt lat="41.3518280" lon="-8.7539100">
        <ele>8.3</ele>
        <time>2021-05-16T11:28:35Z</time>
      </trkpt>
      <trkpt lat="41.3518440" lon="-8.7539040">
        <ele>8.3</ele>
        <time>2021-05-16T11:28:36Z</time>
      </trkpt>
      <trkpt lat="41.3518590" lon="-8.7539080">
        <ele>8.4</ele>
        <time>2021-05-16T11:28:37Z</time>
      </trkpt>
      <trkpt lat="41.3518890" lon="-8.7539040">
        <ele>8.4</ele>
        <time>2021-05-16T11:28:38Z</time>
      </trkpt>
      <trkpt lat="41.3518990" lon="-8.7539030">
        <ele>8.4</ele>
        <time>2021-05-16T11:28:39Z</time>
      </trkpt>
      <trkpt lat="41.3519210" lon="-8.7539020">
        <ele>8.4</ele>
        <time>2021-05-16T11:28:40Z</time>
      </trkpt>
      <trkpt lat="41.3519300" lon="-8.7539050">
        <ele>8.4</ele>
        <time>2021-05-16T11:28:41Z</time>
      </trkpt>
      <trkpt lat="41.3519390" lon="-8.7539070">
        <ele>8.4</ele>
        <time>2021-05-16T11:28:42Z</time>
      </trkpt>
      <trkpt lat="41.3519650" lon="-8.7539110">
        <ele>8.4</ele>
        <time>2021-05-16T11:28:43Z</time>
      </trkpt>
      <trkpt lat="41.3519720" lon="-8.7539050">
        <ele>8.4</ele>
        <time>2021-05-16T11:28:44Z</time>
      </trkpt>
      <trkpt lat="41.3519890" lon="-8.7539050">
        <ele>8.4</ele>
        <time>2021-05-16T11:28:45Z</time>
      </trkpt>
      <trkpt lat="41.3520020" lon="-8.7538990">
        <ele>8.4</ele>
        <time>2021-05-16T11:28:46Z</time>
      </trkpt>
      <trkpt lat="41.3520120" lon="-8.7539030">
        <ele>8.4</ele>
        <time>2021-05-16T11:28:47Z</time>
      </trkpt>
      <trkpt lat="41.3520290" lon="-8.7539050">
        <ele>8.5</ele>
        <time>2021-05-16T11:28:48Z</time>
      </trkpt>
      <trkpt lat="41.3520400" lon="-8.7539080">
        <ele>8.5</ele>
        <time>2021-05-16T11:28:49Z</time>
      </trkpt>
      <trkpt lat="41.3520570" lon="-8.7539070">
        <ele>8.5</ele>
        <time>2021-05-16T11:28:50Z</time>
      </trkpt>
      <trkpt lat="41.3520600" lon="-8.7539030">
        <ele>8.5</ele>
        <time>2021-05-16T11:28:51Z</time>
      </trkpt>
      <trkpt lat="41.3520730" lon="-8.7539000">
        <ele>8.5</ele>
        <time>2021-05-16T11:28:52Z</time>
      </trkpt>
      <trkpt lat="41.3520860" lon="-8.7538960">
        <ele>8.5</ele>
        <time>2021-05-16T11:28:53Z</time>
      </trkpt>
      <trkpt lat="41.3520990" lon="-8.7539060">
        <ele>8.5</ele>
        <time>2021-05-16T11:28:54Z</time>
      </trkpt>
      <trkpt lat="41.3521140" lon="-8.7539060">
        <ele>8.5</ele>
        <time>2021-05-16T11:28:55Z</time>
      </trkpt>
      <trkpt lat="41.3521210" lon="-8.7539160">
        <ele>8.5</ele>
        <time>2021-05-16T11:28:56Z</time>
      </trkpt>
      <trkpt lat="41.3521350" lon="-8.7539110">
        <ele>8.5</ele>
        <time>2021-05-16T11:28:57Z</time>
      </trkpt>
      <trkpt lat="41.3521440" lon="-8.7539070">
        <ele>8.5</ele>
        <time>2021-05-16T11:28:58Z</time>
      </trkpt>
      <trkpt lat="41.3521560" lon="-8.7539060">
        <ele>8.6</ele>
        <time>2021-05-16T11:28:59Z</time>
      </trkpt>
      <trkpt lat="41.3521700" lon="-8.7539040">
        <ele>8.6</ele>
        <time>2021-05-16T11:29:00Z</time>
      </trkpt>
      <trkpt lat="41.3521780" lon="-8.7539070">
        <ele>8.6</ele>
        <time>2021-05-16T11:29:01Z</time>
      </trkpt>
      <trkpt lat="41.3521970" lon="-8.7539070">
        <ele>8.6</ele>
        <time>2021-05-16T11:29:02Z</time>
      </trkpt>
      <trkpt lat="41.3522110" lon="-8.7539100">
        <ele>8.6</ele>
        <time>2021-05-16T11:29:03Z</time>
      </trkpt>
      <trkpt lat="41.3522260" lon="-8.7539120">
        <ele>8.6</ele>
        <time>2021-05-16T11:29:04Z</time>
      </trkpt>
      <trkpt lat="41.3522390" lon="-8.7539170">
        <ele>8.6</ele>
        <time>2021-05-16T11:29:05Z</time>
      </trkpt>
      <trkpt lat="41.3522510" lon="-8.7539090">
        <ele>8.6</ele>
        <time>2021-05-16T11:29:06Z</time>
      </trkpt>
      <trkpt lat="41.3522610" lon="-8.7539120">
        <ele>8.7</ele>
        <time>2021-05-16T11:29:07Z</time>
      </trkpt>
      <trkpt lat="41.3522710" lon="-8.7539050">
        <ele>8.7</ele>
        <time>2021-05-16T11:29:08Z</time>
      </trkpt>
      <trkpt lat="41.3522930" lon="-8.7539100">
        <ele>8.7</ele>
        <time>2021-05-16T11:29:09Z</time>
      </trkpt>
      <trkpt lat="41.3523020" lon="-8.7539100">
        <ele>8.7</ele>
        <time>2021-05-16T11:29:10Z</time>
      </trkpt>
      <trkpt lat="41.3523100" lon="-8.7539090">
        <ele>8.7</ele>
        <time>2021-05-16T11:29:11Z</time>
      </trkpt>
      <trkpt lat="41.3523260" lon="-8.7539150">
        <ele>8.7</ele>
        <time>2021-05-16T11:29:12Z</time>
      </trkpt>
      <trkpt lat="41.3523400" lon="-8.7539130">
        <ele>8.7</ele>
        <time>2021-05-16T11:29:13Z</time>
      </trkpt>
      <trkpt lat="41.3523570" lon="-8.7539150">
        <ele>8.8</ele>
        <time>2021-05-16T11:29:14Z</time>
      </trkpt>
      <trkpt lat="41.3523690" lon="-8.7539170">
        <ele>8.8</ele>
        <time>2021-05-16T11:29:15Z</time>
      </trkpt>
      <trkpt lat="41.3523870" lon="-8.7539180">
        <ele>8.8</ele>
        <time>2021-05-16T11:29:16Z</time>
      </trkpt>
      <trkpt lat="41.3523990" lon="-8.7539240">
        <ele>8.8</ele>
        <time>2021-05-16T11:29:17Z</time>
      </trkpt>
      <trkpt lat="41.3524110" lon="-8.7539180">
        <ele>8.8</ele>
        <time>2021-05-16T11:29:18Z</time>
      </trkpt>
      <trkpt lat="41.3524170" lon="-8.7539170">
        <ele>8.8</ele>
        <time>2021-05-16T11:29:19Z</time>
      </trkpt>
      <trkpt lat="41.3524300" lon="-8.7539160">
        <ele>8.8</ele>
        <time>2021-05-16T11:29:20Z</time>
      </trkpt>
      <trkpt lat="41.3524540" lon="-8.7539120">
        <ele>8.8</ele>
        <time>2021-05-16T11:29:21Z</time>
      </trkpt>
      <trkpt lat="41.3524630" lon="-8.7539080">
        <ele>8.9</ele>
        <time>2021-05-16T11:29:22Z</time>
      </trkpt>
      <trkpt lat="41.3524730" lon="-8.7539050">
        <ele>8.9</ele>
        <time>2021-05-16T11:29:23Z</time>
      </trkpt>
      <trkpt lat="41.3524860" lon="-8.7539060">
        <ele>8.9</ele>
        <time>2021-05-16T11:29:24Z</time>
      </trkpt>
      <trkpt lat="41.3525040" lon="-8.7539010">
        <ele>8.9</ele>
        <time>2021-05-16T11:29:25Z</time>
      </trkpt>
      <trkpt lat="41.3525180" lon="-8.7539080">
        <ele>8.9</ele>
        <time>2021-05-16T11:29:26Z</time>
      </trkpt>
      <trkpt lat="41.3525270" lon="-8.7539060">
        <ele>8.9</ele>
        <time>2021-05-16T11:29:27Z</time>
      </trkpt>
      <trkpt lat="41.3525360" lon="-8.7539050">
        <ele>8.9</ele>
        <time>2021-05-16T11:29:28Z</time>
      </trkpt>
      <trkpt lat="41.3525450" lon="-8.7539030">
        <ele>8.9</ele>
        <time>2021-05-16T11:29:29Z</time>
      </trkpt>
      <trkpt lat="41.3525570" lon="-8.7539060">
        <ele>9.0</ele>
        <time>2021-05-16T11:29:30Z</time>
      </trkpt>
      <trkpt lat="41.3525760" lon="-8.7538880">
        <ele>9.0</ele>
        <time>2021-05-16T11:29:31Z</time>
      </trkpt>
      <trkpt lat="41.3525810" lon="-8.7538870">
        <ele>9.0</ele>
        <time>2021-05-16T11:29:32Z</time>
      </trkpt>
      <trkpt lat="41.3525950" lon="-8.7538820">
        <ele>9.0</ele>
        <time>2021-05-16T11:29:33Z</time>
      </trkpt>
      <trkpt lat="41.3526050" lon="-8.7538800">
        <ele>9.0</ele>
        <time>2021-05-16T11:29:34Z</time>
      </trkpt>
      <trkpt lat="41.3526330" lon="-8.7538830">
        <ele>9.0</ele>
        <time>2021-05-16T11:29:35Z</time>
      </trkpt>
      <trkpt lat="41.3526410" lon="-8.7538850">
        <ele>9.0</ele>
        <time>2021-05-16T11:29:36Z</time>
      </trkpt>
      <trkpt lat="41.3526500" lon="-8.7538870">
        <ele>9.0</ele>
        <time>2021-05-16T11:29:37Z</time>
      </trkpt>
      <trkpt lat="41.3526570" lon="-8.7538900">
        <ele>9.0</ele>
        <time>2021-05-16T11:29:38Z</time>
      </trkpt>
      <trkpt lat="41.3526730" lon="-8.7538890">
        <ele>9.1</ele>
        <time>2021-05-16T11:29:39Z</time>
      </trkpt>
      <trkpt lat="41.3526820" lon="-8.7538920">
        <ele>9.1</ele>
        <time>2021-05-16T11:29:40Z</time>
      </trkpt>
      <trkpt lat="41.3527010" lon="-8.7538940">
        <ele>9.1</ele>
        <time>2021-05-16T11:29:41Z</time>
      </trkpt>
      <trkpt lat="41.3527110" lon="-8.7538950">
        <ele>9.1</ele>
        <time>2021-05-16T11:29:42Z</time>
      </trkpt>
      <trkpt lat="41.3527380" lon="-8.7538980">
        <ele>9.1</ele>
        <time>2021-05-16T11:29:43Z</time>
      </trkpt>
      <trkpt lat="41.3527480" lon="-8.7539000">
        <ele>9.1</ele>
        <time>2021-05-16T11:29:44Z</time>
      </trkpt>
      <trkpt lat="41.3527580" lon="-8.7539020">
        <ele>9.1</ele>
        <time>2021-05-16T11:29:45Z</time>
      </trkpt>
      <trkpt lat="41.3527650" lon="-8.7539070">
        <ele>9.1</ele>
        <time>2021-05-16T11:29:46Z</time>
      </trkpt>
      <trkpt lat="41.3527830" lon="-8.7538980">
        <ele>9.1</ele>
        <time>2021-05-16T11:29:47Z</time>
      </trkpt>
      <trkpt lat="41.3527930" lon="-8.7539060">
        <ele>9.1</ele>
        <time>2021-05-16T11:29:48Z</time>
      </trkpt>
      <trkpt lat="41.3528090" lon="-8.7539120">
        <ele>9.2</ele>
        <time>2021-05-16T11:29:49Z</time>
      </trkpt>
      <trkpt lat="41.3528190" lon="-8.7539160">
        <ele>9.2</ele>
        <time>2021-05-16T11:29:50Z</time>
      </trkpt>
      <trkpt lat="41.3528380" lon="-8.7539180">
        <ele>9.2</ele>
        <time>2021-05-16T11:29:51Z</time>
      </trkpt>
      <trkpt lat="41.3528480" lon="-8.7539160">
        <ele>9.2</ele>
        <time>2021-05-16T11:29:52Z</time>
      </trkpt>
      <trkpt lat="41.3528630" lon="-8.7539190">
        <ele>9.2</ele>
        <time>2021-05-16T11:29:53Z</time>
      </trkpt>
      <trkpt lat="41.3528750" lon="-8.7539250">
        <ele>9.2</ele>
        <time>2021-05-16T11:29:54Z</time>
      </trkpt>
      <trkpt lat="41.3528980" lon="-8.7539140">
        <ele>9.2</ele>
        <time>2021-05-16T11:29:55Z</time>
      </trkpt>
      <trkpt lat="41.3529050" lon="-8.7539140">
        <ele>9.2</ele>
        <time>2021-05-16T11:29:56Z</time>
      </trkpt>
      <trkpt lat="41.3529120" lon="-8.7539130">
        <ele>9.2</ele>
        <time>2021-05-16T11:29:57Z</time>
      </trkpt>
      <trkpt lat="41.3529300" lon="-8.7539130">
        <ele>9.2</ele>
        <time>2021-05-16T11:29:58Z</time>
      </trkpt>
      <trkpt lat="41.3529450" lon="-8.7539170">
        <ele>9.2</ele>
        <time>2021-05-16T11:29:59Z</time>
      </trkpt>
      <trkpt lat="41.3529570" lon="-8.7539170">
        <ele>9.2</ele>
        <time>2021-05-16T11:30:00Z</time>
      </trkpt>
      <trkpt lat="41.3529670" lon="-8.7539160">
        <ele>9.2</ele>
        <time>2021-05-16T11:30:01Z</time>
      </trkpt>
      <trkpt lat="41.3529790" lon="-8.7539190">
        <ele>9.2</ele>
        <time>2021-05-16T11:30:02Z</time>
      </trkpt>
      <trkpt lat="41.3530020" lon="-8.7539300">
        <ele>9.3</ele>
        <time>2021-05-16T11:30:03Z</time>
      </trkpt>
      <trkpt lat="41.3530120" lon="-8.7539310">
        <ele>9.3</ele>
        <time>2021-05-16T11:30:04Z</time>
      </trkpt>
      <trkpt lat="41.3530210" lon="-8.7539330">
        <ele>9.3</ele>
        <time>2021-05-16T11:30:05Z</time>
      </trkpt>
      <trkpt lat="41.3530400" lon="-8.7539350">
        <ele>9.3</ele>
        <time>2021-05-16T11:30:06Z</time>
      </trkpt>
      <trkpt lat="41.3530490" lon="-8.7539340">
        <ele>9.3</ele>
        <time>2021-05-16T11:30:07Z</time>
      </trkpt>
      <trkpt lat="41.3530580" lon="-8.7539340">
        <ele>9.3</ele>
        <time>2021-05-16T11:30:08Z</time>
      </trkpt>
      <trkpt lat="41.3530720" lon="-8.7539330">
        <ele>9.3</ele>
        <time>2021-05-16T11:30:09Z</time>
      </trkpt>
      <trkpt lat="41.3530890" lon="-8.7539310">
        <ele>9.3</ele>
        <time>2021-05-16T11:30:10Z</time>
      </trkpt>
      <trkpt lat="41.3530960" lon="-8.7539300">
        <ele>9.3</ele>
        <time>2021-05-16T11:30:11Z</time>
      </trkpt>
      <trkpt lat="41.3531080" lon="-8.7539370">
        <ele>9.3</ele>
        <time>2021-05-16T11:30:12Z</time>
      </trkpt>
      <trkpt lat="41.3531160" lon="-8.7539320">
        <ele>9.3</ele>
        <time>2021-05-16T11:30:13Z</time>
      </trkpt>
      <trkpt lat="41.3531250" lon="-8.7539360">
        <ele>9.3</ele>
        <time>2021-05-16T11:30:14Z</time>
      </trkpt>
      <trkpt lat="41.3531370" lon="-8.7539420">
        <ele>9.3</ele>
        <time>2021-05-16T11:30:15Z</time>
      </trkpt>
      <trkpt lat="41.3531590" lon="-8.7539420">
        <ele>9.4</ele>
        <time>2021-05-16T11:30:16Z</time>
      </trkpt>
      <trkpt lat="41.3531730" lon="-8.7539440">
        <ele>9.4</ele>
        <time>2021-05-16T11:30:17Z</time>
      </trkpt>
      <trkpt lat="41.3531870" lon="-8.7539470">
        <ele>9.4</ele>
        <time>2021-05-16T11:30:18Z</time>
      </trkpt>
      <trkpt lat="41.3531970" lon="-8.7539440">
        <ele>9.4</ele>
        <time>2021-05-16T11:30:19Z</time>
      </trkpt>
      <trkpt lat="41.3532110" lon="-8.7539510">
        <ele>9.4</ele>
        <time>2021-05-16T11:30:20Z</time>
      </trkpt>
      <trkpt lat="41.3532220" lon="-8.7539500">
        <ele>9.4</ele>
        <time>2021-05-16T11:30:21Z</time>
      </trkpt>
      <trkpt lat="41.3532330" lon="-8.7539510">
        <ele>9.4</ele>
        <time>2021-05-16T11:30:22Z</time>
      </trkpt>
      <trkpt lat="41.3532530" lon="-8.7539540">
        <ele>9.4</ele>
        <time>2021-05-16T11:30:23Z</time>
      </trkpt>
      <trkpt lat="41.3532670" lon="-8.7539520">
        <ele>9.4</ele>
        <time>2021-05-16T11:30:24Z</time>
      </trkpt>
      <trkpt lat="41.3532810" lon="-8.7539610">
        <ele>9.4</ele>
        <time>2021-05-16T11:30:25Z</time>
      </trkpt>
      <trkpt lat="41.3533020" lon="-8.7539640">
        <ele>9.5</ele>
        <time>2021-05-16T11:30:26Z</time>
      </trkpt>
      <trkpt lat="41.3533100" lon="-8.7539650">
        <ele>9.5</ele>
        <time>2021-05-16T11:30:27Z</time>
      </trkpt>
      <trkpt lat="41.3533180" lon="-8.7539650">
        <ele>9.5</ele>
        <time>2021-05-16T11:30:28Z</time>
      </trkpt>
      <trkpt lat="41.3533360" lon="-8.7539660">
        <ele>9.5</ele>
        <time>2021-05-16T11:30:29Z</time>
      </trkpt>
      <trkpt lat="41.3533480" lon="-8.7539690">
        <ele>9.5</ele>
        <time>2021-05-16T11:30:30Z</time>
      </trkpt>
      <trkpt lat="41.3533590" lon="-8.7539710">
        <ele>9.5</ele>
        <time>2021-05-16T11:30:31Z</time>
      </trkpt>
      <trkpt lat="41.3533680" lon="-8.7539670">
        <ele>9.5</ele>
        <time>2021-05-16T11:30:32Z</time>
      </trkpt>
      <trkpt lat="41.3533770" lon="-8.7539690">
        <ele>9.5</ele>
        <time>2021-05-16T11:30:33Z</time>
      </trkpt>
      <trkpt lat="41.3533870" lon="-8.7539750">
        <ele>9.5</ele>
        <time>2021-05-16T11:30:34Z</time>
      </trkpt>
      <trkpt lat="41.3534030" lon="-8.7539790">
        <ele>9.5</ele>
        <time>2021-05-16T11:30:35Z</time>
      </trkpt>
      <trkpt lat="41.3534180" lon="-8.7539790">
        <ele>9.5</ele>
        <time>2021-05-16T11:30:36Z</time>
      </trkpt>
      <trkpt lat="41.3534330" lon="-8.7539850">
        <ele>9.6</ele>
        <time>2021-05-16T11:30:37Z</time>
      </trkpt>
      <trkpt lat="41.3534500" lon="-8.7539850">
        <ele>9.6</ele>
        <time>2021-05-16T11:30:38Z</time>
      </trkpt>
      <trkpt lat="41.3534730" lon="-8.7539870">
        <ele>9.6</ele>
        <time>2021-05-16T11:30:39Z</time>
      </trkpt>
      <trkpt lat="41.3534810" lon="-8.7539870">
        <ele>9.6</ele>
        <time>2021-05-16T11:30:40Z</time>
      </trkpt>
      <trkpt lat="41.3534880" lon="-8.7539870">
        <ele>9.6</ele>
        <time>2021-05-16T11:30:41Z</time>
      </trkpt>
      <trkpt lat="41.3535050" lon="-8.7539910">
        <ele>9.6</ele>
        <time>2021-05-16T11:30:42Z</time>
      </trkpt>
      <trkpt lat="41.3535170" lon="-8.7539870">
        <ele>9.6</ele>
        <time>2021-05-16T11:30:43Z</time>
      </trkpt>
      <trkpt lat="41.3535410" lon="-8.7539790">
        <ele>9.6</ele>
        <time>2021-05-16T11:30:44Z</time>
      </trkpt>
      <trkpt lat="41.3535530" lon="-8.7539770">
        <ele>9.6</ele>
        <time>2021-05-16T11:30:45Z</time>
      </trkpt>
      <trkpt lat="41.3535650" lon="-8.7539750">
        <ele>9.6</ele>
        <time>2021-05-16T11:30:46Z</time>
      </trkpt>
      <trkpt lat="41.3535800" lon="-8.7539780">
        <ele>9.6</ele>
        <time>2021-05-16T11:30:47Z</time>
      </trkpt>
      <trkpt lat="41.3535930" lon="-8.7539790">
        <ele>9.6</ele>
        <time>2021-05-16T11:30:48Z</time>
      </trkpt>
      <trkpt lat="41.3536060" lon="-8.7539830">
        <ele>9.6</ele>
        <time>2021-05-16T11:30:49Z</time>
      </trkpt>
      <trkpt lat="41.3536200" lon="-8.7539880">
        <ele>9.7</ele>
        <time>2021-05-16T11:30:50Z</time>
      </trkpt>
      <trkpt lat="41.3536310" lon="-8.7539850">
        <ele>9.7</ele>
        <time>2021-05-16T11:30:51Z</time>
      </trkpt>
      <trkpt lat="41.3536540" lon="-8.7539900">
        <ele>9.7</ele>
        <time>2021-05-16T11:30:52Z</time>
      </trkpt>
      <trkpt lat="41.3536590" lon="-8.7539850">
        <ele>9.7</ele>
        <time>2021-05-16T11:30:53Z</time>
      </trkpt>
      <trkpt lat="41.3536680" lon="-8.7539880">
        <ele>9.7</ele>
        <time>2021-05-16T11:30:54Z</time>
      </trkpt>
      <trkpt lat="41.3536810" lon="-8.7539910">
        <ele>9.7</ele>
        <time>2021-05-16T11:30:55Z</time>
      </trkpt>
      <trkpt lat="41.3537010" lon="-8.7539890">
        <ele>9.7</ele>
        <time>2021-05-16T11:30:56Z</time>
      </trkpt>
      <trkpt lat="41.3537140" lon="-8.7539960">
        <ele>9.7</ele>
        <time>2021-05-16T11:30:57Z</time>
      </trkpt>
      <trkpt lat="41.3537260" lon="-8.7539990">
        <ele>9.7</ele>
        <time>2021-05-16T11:30:58Z</time>
      </trkpt>
      <trkpt lat="41.3537420" lon="-8.7540000">
        <ele>9.7</ele>
        <time>2021-05-16T11:30:59Z</time>
      </trkpt>
      <trkpt lat="41.3537620" lon="-8.7540100">
        <ele>9.7</ele>
        <time>2021-05-16T11:31:00Z</time>
      </trkpt>
      <trkpt lat="41.3537660" lon="-8.7540080">
        <ele>9.7</ele>
        <time>2021-05-16T11:31:01Z</time>
      </trkpt>
      <trkpt lat="41.3537760" lon="-8.7540120">
        <ele>9.7</ele>
        <time>2021-05-16T11:31:02Z</time>
      </trkpt>
      <trkpt lat="41.3537970" lon="-8.7540220">
        <ele>9.7</ele>
        <time>2021-05-16T11:31:03Z</time>
      </trkpt>
      <trkpt lat="41.3538050" lon="-8.7540250">
        <ele>9.7</ele>
        <time>2021-05-16T11:31:04Z</time>
      </trkpt>
      <trkpt lat="41.3538140" lon="-8.7540290">
        <ele>9.7</ele>
        <time>2021-05-16T11:31:05Z</time>
      </trkpt>
      <trkpt lat="41.3538290" lon="-8.7540350">
        <ele>9.7</ele>
        <time>2021-05-16T11:31:06Z</time>
      </trkpt>
      <trkpt lat="41.3538470" lon="-8.7540430">
        <ele>9.7</ele>
        <time>2021-05-16T11:31:07Z</time>
      </trkpt>
      <trkpt lat="41.3538690" lon="-8.7540400">
        <ele>9.8</ele>
        <time>2021-05-16T11:31:08Z</time>
      </trkpt>
      <trkpt lat="41.3538780" lon="-8.7540410">
        <ele>9.8</ele>
        <time>2021-05-16T11:31:09Z</time>
      </trkpt>
      <trkpt lat="41.3538880" lon="-8.7540430">
        <ele>9.8</ele>
        <time>2021-05-16T11:31:10Z</time>
      </trkpt>
      <trkpt lat="41.3538900" lon="-8.7540450">
        <ele>9.8</ele>
        <time>2021-05-16T11:31:11Z</time>
      </trkpt>
      <trkpt lat="41.3539050" lon="-8.7540470">
        <ele>9.8</ele>
        <time>2021-05-16T11:31:12Z</time>
      </trkpt>
      <trkpt lat="41.3539190" lon="-8.7540500">
        <ele>9.8</ele>
        <time>2021-05-16T11:31:13Z</time>
      </trkpt>
      <trkpt lat="41.3539350" lon="-8.7540590">
        <ele>9.8</ele>
        <time>2021-05-16T11:31:14Z</time>
      </trkpt>
      <trkpt lat="41.3539530" lon="-8.7540670">
        <ele>9.8</ele>
        <time>2021-05-16T11:31:15Z</time>
      </trkpt>
      <trkpt lat="41.3539710" lon="-8.7540650">
        <ele>9.8</ele>
        <time>2021-05-16T11:31:16Z</time>
      </trkpt>
      <trkpt lat="41.3539800" lon="-8.7540650">
        <ele>9.8</ele>
        <time>2021-05-16T11:31:17Z</time>
      </trkpt>
      <trkpt lat="41.3539890" lon="-8.7540640">
        <ele>9.8</ele>
        <time>2021-05-16T11:31:18Z</time>
      </trkpt>
      <trkpt lat="41.3539990" lon="-8.7540660">
        <ele>9.8</ele>
        <time>2021-05-16T11:31:19Z</time>
      </trkpt>
      <trkpt lat="41.3540210" lon="-8.7540640">
        <ele>9.8</ele>
        <time>2021-05-16T11:31:20Z</time>
      </trkpt>
      <trkpt lat="41.3540240" lon="-8.7540740">
        <ele>9.8</ele>
        <time>2021-05-16T11:31:21Z</time>
      </trkpt>
      <trkpt lat="41.3540290" lon="-8.7540730">
        <ele>9.8</ele>
        <time>2021-05-16T11:31:22Z</time>
      </trkpt>
      <trkpt lat="41.3540450" lon="-8.7540840">
        <ele>9.8</ele>
        <time>2021-05-16T11:31:23Z</time>
      </trkpt>
      <trkpt lat="41.3540560" lon="-8.7540840">
        <ele>9.8</ele>
        <time>2021-05-16T11:31:24Z</time>
      </trkpt>
      <trkpt lat="41.3540770" lon="-8.7540880">
        <ele>9.8</ele>
        <time>2021-05-16T11:31:25Z</time>
      </trkpt>
      <trkpt lat="41.3540910" lon="-8.7540920">
        <ele>9.8</ele>
        <time>2021-05-16T11:31:26Z</time>
      </trkpt>
      <trkpt lat="41.3541110" lon="-8.7540930">
        <ele>9.8</ele>
        <time>2021-05-16T11:31:27Z</time>
      </trkpt>
      <trkpt lat="41.3541290" lon="-8.7541010">
        <ele>9.8</ele>
        <time>2021-05-16T11:31:28Z</time>
      </trkpt>
      <trkpt lat="41.3541390" lon="-8.7541060">
        <ele>9.8</ele>
        <time>2021-05-16T11:31:29Z</time>
      </trkpt>
      <trkpt lat="41.3541500" lon="-8.7541120">
        <ele>9.8</ele>
        <time>2021-05-16T11:31:30Z</time>
      </trkpt>
      <trkpt lat="41.3541660" lon="-8.7541110">
        <ele>9.9</ele>
        <time>2021-05-16T11:31:31Z</time>
      </trkpt>
      <trkpt lat="41.3541760" lon="-8.7541180">
        <ele>9.9</ele>
        <time>2021-05-16T11:31:32Z</time>
      </trkpt>
      <trkpt lat="41.3541850" lon="-8.7541240">
        <ele>9.9</ele>
        <time>2021-05-16T11:31:33Z</time>
      </trkpt>
      <trkpt lat="41.3542040" lon="-8.7541270">
        <ele>9.9</ele>
        <time>2021-05-16T11:31:34Z</time>
      </trkpt>
      <trkpt lat="41.3542140" lon="-8.7541320">
        <ele>9.9</ele>
        <time>2021-05-16T11:31:35Z</time>
      </trkpt>
      <trkpt lat="41.3542310" lon="-8.7541350">
        <ele>9.9</ele>
        <time>2021-05-16T11:31:36Z</time>
      </trkpt>
      <trkpt lat="41.3542420" lon="-8.7541390">
        <ele>9.9</ele>
        <time>2021-05-16T11:31:37Z</time>
      </trkpt>
      <trkpt lat="41.3542600" lon="-8.7541370">
        <ele>9.9</ele>
        <time>2021-05-16T11:31:38Z</time>
      </trkpt>
      <trkpt lat="41.3542690" lon="-8.7541380">
        <ele>9.9</ele>
        <time>2021-05-16T11:31:39Z</time>
      </trkpt>
      <trkpt lat="41.3542790" lon="-8.7541500">
        <ele>9.9</ele>
        <time>2021-05-16T11:31:40Z</time>
      </trkpt>
      <trkpt lat="41.3542860" lon="-8.7541520">
        <ele>9.9</ele>
        <time>2021-05-16T11:31:41Z</time>
      </trkpt>
      <trkpt lat="41.3542980" lon="-8.7541570">
        <ele>9.9</ele>
        <time>2021-05-16T11:31:42Z</time>
      </trkpt>
      <trkpt lat="41.3543190" lon="-8.7541620">
        <ele>9.9</ele>
        <time>2021-05-16T11:31:43Z</time>
      </trkpt>
      <trkpt lat="41.3543290" lon="-8.7541630">
        <ele>9.9</ele>
        <time>2021-05-16T11:31:44Z</time>
      </trkpt>
      <trkpt lat="41.3543390" lon="-8.7541640">
        <ele>9.9</ele>
        <time>2021-05-16T11:31:45Z</time>
      </trkpt>
      <trkpt lat="41.3543590" lon="-8.7541740">
        <ele>9.9</ele>
        <time>2021-05-16T11:31:46Z</time>
      </trkpt>
      <trkpt lat="41.3543680" lon="-8.7541770">
        <ele>9.9</ele>
        <time>2021-05-16T11:31:47Z</time>
      </trkpt>
      <trkpt lat="41.3543760" lon="-8.7541790">
        <ele>9.9</ele>
        <time>2021-05-16T11:31:48Z</time>
      </trkpt>
      <trkpt lat="41.3544050" lon="-8.7541760">
        <ele>9.9</ele>
        <time>2021-05-16T11:31:49Z</time>
      </trkpt>
      <trkpt lat="41.3544140" lon="-8.7541730">
        <ele>9.9</ele>
        <time>2021-05-16T11:31:50Z</time>
      </trkpt>
      <trkpt lat="41.3544210" lon="-8.7541850">
        <ele>9.9</ele>
        <time>2021-05-16T11:31:51Z</time>
      </trkpt>
      <trkpt lat="41.3544340" lon="-8.7541830">
        <ele>9.9</ele>
        <time>2021-05-16T11:31:52Z</time>
      </trkpt>
      <trkpt lat="41.3544450" lon="-8.7541830">
        <ele>9.9</ele>
        <time>2021-05-16T11:31:53Z</time>
      </trkpt>
      <trkpt lat="41.3544650" lon="-8.7541920">
        <ele>9.9</ele>
        <time>2021-05-16T11:31:54Z</time>
      </trkpt>
      <trkpt lat="41.3544760" lon="-8.7541960">
        <ele>9.9</ele>
        <time>2021-05-16T11:31:55Z</time>
      </trkpt>
      <trkpt lat="41.3544870" lon="-8.7542010">
        <ele>9.9</ele>
        <time>2021-05-16T11:31:56Z</time>
      </trkpt>
      <trkpt lat="41.3544900" lon="-8.7542140">
        <ele>9.9</ele>
        <time>2021-05-16T11:31:57Z</time>
      </trkpt>
      <trkpt lat="41.3545040" lon="-8.7542120">
        <ele>9.9</ele>
        <time>2021-05-16T11:31:58Z</time>
      </trkpt>
      <trkpt lat="41.3545160" lon="-8.7542060">
        <ele>9.9</ele>
        <time>2021-05-16T11:31:59Z</time>
      </trkpt>
      <trkpt lat="41.3545330" lon="-8.7542090">
        <ele>9.9</ele>
        <time>2021-05-16T11:32:00Z</time>
      </trkpt>
      <trkpt lat="41.3545490" lon="-8.7542110">
        <ele>10.0</ele>
        <time>2021-05-16T11:32:01Z</time>
      </trkpt>
      <trkpt lat="41.3545600" lon="-8.7542050">
        <ele>10.0</ele>
        <time>2021-05-16T11:32:02Z</time>
      </trkpt>
      <trkpt lat="41.3545740" lon="-8.7542140">
        <ele>10.0</ele>
        <time>2021-05-16T11:32:03Z</time>
      </trkpt>
      <trkpt lat="41.3545800" lon="-8.7542200">
        <ele>10.0</ele>
        <time>2021-05-16T11:32:04Z</time>
      </trkpt>
      <trkpt lat="41.3546020" lon="-8.7542260">
        <ele>10.0</ele>
        <time>2021-05-16T11:32:05Z</time>
      </trkpt>
      <trkpt lat="41.3546110" lon="-8.7542280">
        <ele>10.0</ele>
        <time>2021-05-16T11:32:06Z</time>
      </trkpt>
      <trkpt lat="41.3546210" lon="-8.7542300">
        <ele>10.0</ele>
        <time>2021-05-16T11:32:07Z</time>
      </trkpt>
      <trkpt lat="41.3546330" lon="-8.7542330">
        <ele>10.0</ele>
        <time>2021-05-16T11:32:08Z</time>
      </trkpt>
      <trkpt lat="41.3546480" lon="-8.7542310">
        <ele>10.0</ele>
        <time>2021-05-16T11:32:09Z</time>
      </trkpt>
      <trkpt lat="41.3546560" lon="-8.7542320">
        <ele>10.0</ele>
        <time>2021-05-16T11:32:10Z</time>
      </trkpt>
      <trkpt lat="41.3546670" lon="-8.7542370">
        <ele>10.0</ele>
        <time>2021-05-16T11:32:11Z</time>
      </trkpt>
      <trkpt lat="41.3546780" lon="-8.7542370">
        <ele>10.0</ele>
        <time>2021-05-16T11:32:12Z</time>
      </trkpt>
      <trkpt lat="41.3546880" lon="-8.7542320">
        <ele>10.0</ele>
        <time>2021-05-16T11:32:13Z</time>
      </trkpt>
      <trkpt lat="41.3547100" lon="-8.7542350">
        <ele>10.0</ele>
        <time>2021-05-16T11:32:14Z</time>
      </trkpt>
      <trkpt lat="41.3547210" lon="-8.7542380">
        <ele>10.0</ele>
        <time>2021-05-16T11:32:15Z</time>
      </trkpt>
      <trkpt lat="41.3547350" lon="-8.7542430">
        <ele>10.0</ele>
        <time>2021-05-16T11:32:16Z</time>
      </trkpt>
      <trkpt lat="41.3547490" lon="-8.7542420">
        <ele>10.0</ele>
        <time>2021-05-16T11:32:17Z</time>
      </trkpt>
      <trkpt lat="41.3547640" lon="-8.7542540">
        <ele>10.0</ele>
        <time>2021-05-16T11:32:18Z</time>
      </trkpt>
      <trkpt lat="41.3547770" lon="-8.7542620">
        <ele>10.0</ele>
        <time>2021-05-16T11:32:19Z</time>
      </trkpt>
      <trkpt lat="41.3547790" lon="-8.7542620">
        <ele>10.0</ele>
        <time>2021-05-16T11:32:20Z</time>
      </trkpt>
      <trkpt lat="41.3547990" lon="-8.7542670">
        <ele>10.0</ele>
        <time>2021-05-16T11:32:21Z</time>
      </trkpt>
      <trkpt lat="41.3548100" lon="-8.7542710">
        <ele>10.0</ele>
        <time>2021-05-16T11:32:22Z</time>
      </trkpt>
      <trkpt lat="41.3548300" lon="-8.7542780">
        <ele>10.1</ele>
        <time>2021-05-16T11:32:23Z</time>
      </trkpt>
      <trkpt lat="41.3548390" lon="-8.7542770">
        <ele>10.1</ele>
        <time>2021-05-16T11:32:24Z</time>
      </trkpt>
      <trkpt lat="41.3548480" lon="-8.7542770">
        <ele>10.1</ele>
        <time>2021-05-16T11:32:25Z</time>
      </trkpt>
      <trkpt lat="41.3548660" lon="-8.7542840">
        <ele>10.1</ele>
        <time>2021-05-16T11:32:26Z</time>
      </trkpt>
      <trkpt lat="41.3548730" lon="-8.7542820">
        <ele>10.1</ele>
        <time>2021-05-16T11:32:27Z</time>
      </trkpt>
      <trkpt lat="41.3548820" lon="-8.7542800">
        <ele>10.1</ele>
        <time>2021-05-16T11:32:28Z</time>
      </trkpt>
      <trkpt lat="41.3548930" lon="-8.7542880">
        <ele>10.1</ele>
        <time>2021-05-16T11:32:29Z</time>
      </trkpt>
      <trkpt lat="41.3549100" lon="-8.7542920">
        <ele>10.1</ele>
        <time>2021-05-16T11:32:30Z</time>
      </trkpt>
      <trkpt lat="41.3549250" lon="-8.7542930">
        <ele>10.1</ele>
        <time>2021-05-16T11:32:31Z</time>
      </trkpt>
      <trkpt lat="41.3549310" lon="-8.7543000">
        <ele>10.1</ele>
        <time>2021-05-16T11:32:32Z</time>
      </trkpt>
      <trkpt lat="41.3549430" lon="-8.7543040">
        <ele>10.1</ele>
        <time>2021-05-16T11:32:33Z</time>
      </trkpt>
      <trkpt lat="41.3549640" lon="-8.7543110">
        <ele>10.1</ele>
        <time>2021-05-16T11:32:34Z</time>
      </trkpt>
      <trkpt lat="41.3549750" lon="-8.7543150">
        <ele>10.1</ele>
        <time>2021-05-16T11:32:35Z</time>
      </trkpt>
      <trkpt lat="41.3549860" lon="-8.7543190">
        <ele>10.1</ele>
        <time>2021-05-16T11:32:36Z</time>
      </trkpt>
      <trkpt lat="41.3549990" lon="-8.7543210">
        <ele>10.1</ele>
        <time>2021-05-16T11:32:37Z</time>
      </trkpt>
      <trkpt lat="41.3550140" lon="-8.7543220">
        <ele>10.1</ele>
        <time>2021-05-16T11:32:38Z</time>
      </trkpt>
      <trkpt lat="41.3550230" lon="-8.7543280">
        <ele>10.1</ele>
        <time>2021-05-16T11:32:39Z</time>
      </trkpt>
      <trkpt lat="41.3550340" lon="-8.7543350">
        <ele>10.1</ele>
        <time>2021-05-16T11:32:40Z</time>
      </trkpt>
      <trkpt lat="41.3550470" lon="-8.7543310">
        <ele>10.1</ele>
        <time>2021-05-16T11:32:41Z</time>
      </trkpt>
      <trkpt lat="41.3550640" lon="-8.7543310">
        <ele>10.2</ele>
        <time>2021-05-16T11:32:42Z</time>
      </trkpt>
      <trkpt lat="41.3550670" lon="-8.7543310">
        <ele>10.2</ele>
        <time>2021-05-16T11:32:43Z</time>
      </trkpt>
      <trkpt lat="41.3550800" lon="-8.7543440">
        <ele>10.2</ele>
        <time>2021-05-16T11:32:44Z</time>
      </trkpt>
      <trkpt lat="41.3550950" lon="-8.7543450">
        <ele>10.2</ele>
        <time>2021-05-16T11:32:45Z</time>
      </trkpt>
      <trkpt lat="41.3551140" lon="-8.7543510">
        <ele>10.2</ele>
        <time>2021-05-16T11:32:46Z</time>
      </trkpt>
      <trkpt lat="41.3551370" lon="-8.7543550">
        <ele>10.2</ele>
        <time>2021-05-16T11:32:47Z</time>
      </trkpt>
      <trkpt lat="41.3551450" lon="-8.7543570">
        <ele>10.2</ele>
        <time>2021-05-16T11:32:48Z</time>
      </trkpt>
      <trkpt lat="41.3551540" lon="-8.7543600">
        <ele>10.2</ele>
        <time>2021-05-16T11:32:49Z</time>
      </trkpt>
      <trkpt lat="41.3551610" lon="-8.7543600">
        <ele>10.2</ele>
        <time>2021-05-16T11:32:50Z</time>
      </trkpt>
      <trkpt lat="41.3551750" lon="-8.7543650">
        <ele>10.2</ele>
        <time>2021-05-16T11:32:51Z</time>
      </trkpt>
      <trkpt lat="41.3551880" lon="-8.7543720">
        <ele>10.2</ele>
        <time>2021-05-16T11:32:52Z</time>
      </trkpt>
      <trkpt lat="41.3552110" lon="-8.7543790">
        <ele>10.2</ele>
        <time>2021-05-16T11:32:53Z</time>
      </trkpt>
      <trkpt lat="41.3552190" lon="-8.7543850">
        <ele>10.2</ele>
        <time>2021-05-16T11:32:54Z</time>
      </trkpt>
      <trkpt lat="41.3552270" lon="-8.7543900">
        <ele>10.2</ele>
        <time>2021-05-16T11:32:55Z</time>
      </trkpt>
      <trkpt lat="41.3552410" lon="-8.7543970">
        <ele>10.2</ele>
        <time>2021-05-16T11:32:56Z</time>
      </trkpt>
      <trkpt lat="41.3552510" lon="-8.7543990">
        <ele>10.2</ele>
        <time>2021-05-16T11:32:57Z</time>
      </trkpt>
      <trkpt lat="41.3552620" lon="-8.7544020">
        <ele>10.2</ele>
        <time>2021-05-16T11:32:58Z</time>
      </trkpt>
      <trkpt lat="41.3552760" lon="-8.7544080">
        <ele>10.2</ele>
        <time>2021-05-16T11:32:59Z</time>
      </trkpt>
      <trkpt lat="41.3552920" lon="-8.7544090">
        <ele>10.2</ele>
        <time>2021-05-16T11:33:00Z</time>
      </trkpt>
      <trkpt lat="41.3553060" lon="-8.7544110">
        <ele>10.2</ele>
        <time>2021-05-16T11:33:01Z</time>
      </trkpt>
      <trkpt lat="41.3553210" lon="-8.7544130">
        <ele>10.2</ele>
        <time>2021-05-16T11:33:02Z</time>
      </trkpt>
      <trkpt lat="41.3553300" lon="-8.7544240">
        <ele>10.2</ele>
        <time>2021-05-16T11:33:03Z</time>
      </trkpt>
      <trkpt lat="41.3553530" lon="-8.7544330">
        <ele>10.2</ele>
        <time>2021-05-16T11:33:04Z</time>
      </trkpt>
      <trkpt lat="41.3553620" lon="-8.7544430">
        <ele>10.2</ele>
        <time>2021-05-16T11:33:05Z</time>
      </trkpt>
      <trkpt lat="41.3553790" lon="-8.7544540">
        <ele>10.2</ele>
        <time>2021-05-16T11:33:06Z</time>
      </trkpt>
      <trkpt lat="41.3553860" lon="-8.7544520">
        <ele>10.2</ele>
        <time>2021-05-16T11:33:07Z</time>
      </trkpt>
      <trkpt lat="41.3554030" lon="-8.7544550">
        <ele>10.2</ele>
        <time>2021-05-16T11:33:08Z</time>
      </trkpt>
      <trkpt lat="41.3554100" lon="-8.7544530">
        <ele>10.2</ele>
        <time>2021-05-16T11:33:09Z</time>
      </trkpt>
      <trkpt lat="41.3554370" lon="-8.7544620">
        <ele>10.2</ele>
        <time>2021-05-16T11:33:10Z</time>
      </trkpt>
      <trkpt lat="41.3554460" lon="-8.7544670">
        <ele>10.2</ele>
        <time>2021-05-16T11:33:11Z</time>
      </trkpt>
      <trkpt lat="41.3554610" lon="-8.7544740">
        <ele>10.2</ele>
        <time>2021-05-16T11:33:12Z</time>
      </trkpt>
      <trkpt lat="41.3554720" lon="-8.7544750">
        <ele>10.2</ele>
        <time>2021-05-16T11:33:13Z</time>
      </trkpt>
      <trkpt lat="41.3554820" lon="-8.7544760">
        <ele>10.2</ele>
        <time>2021-05-16T11:33:14Z</time>
      </trkpt>
      <trkpt lat="41.3554970" lon="-8.7544810">
        <ele>10.2</ele>
        <time>2021-05-16T11:33:15Z</time>
      </trkpt>
      <trkpt lat="41.3555080" lon="-8.7544790">
        <ele>10.2</ele>
        <time>2021-05-16T11:33:16Z</time>
      </trkpt>
      <trkpt lat="41.3555200" lon="-8.7544780">
        <ele>10.2</ele>
        <time>2021-05-16T11:33:17Z</time>
      </trkpt>
      <trkpt lat="41.3555300" lon="-8.7544720">
        <ele>10.2</ele>
        <time>2021-05-16T11:33:18Z</time>
      </trkpt>
      <trkpt lat="41.3555520" lon="-8.7544790">
        <ele>10.2</ele>
        <time>2021-05-16T11:33:19Z</time>
      </trkpt>
      <trkpt lat="41.3555560" lon="-8.7544820">
        <ele>10.2</ele>
        <time>2021-05-16T11:33:20Z</time>
      </trkpt>
      <trkpt lat="41.3555770" lon="-8.7544900">
        <ele>10.2</ele>
        <time>2021-05-16T11:33:21Z</time>
      </trkpt>
      <trkpt lat="41.3555820" lon="-8.7544930">
        <ele>10.2</ele>
        <time>2021-05-16T11:33:22Z</time>
      </trkpt>
      <trkpt lat="41.3556080" lon="-8.7545050">
        <ele>10.2</ele>
        <time>2021-05-16T11:33:23Z</time>
      </trkpt>
      <trkpt lat="41.3556130" lon="-8.7545080">
        <ele>10.2</ele>
        <time>2021-05-16T11:33:24Z</time>
      </trkpt>
      <trkpt lat="41.3556310" lon="-8.7545140">
        <ele>10.2</ele>
        <time>2021-05-16T11:33:25Z</time>
      </trkpt>
      <trkpt lat="41.3556450" lon="-8.7545160">
        <ele>10.2</ele>
        <time>2021-05-16T11:33:26Z</time>
      </trkpt>
      <trkpt lat="41.3556670" lon="-8.7545220">
        <ele>10.2</ele>
        <time>2021-05-16T11:33:27Z</time>
      </trkpt>
      <trkpt lat="41.3556720" lon="-8.7545240">
        <ele>10.2</ele>
        <time>2021-05-16T11:33:28Z</time>
      </trkpt>
      <trkpt lat="41.3556890" lon="-8.7545320">
        <ele>10.2</ele>
        <time>2021-05-16T11:33:29Z</time>
      </trkpt>
      <trkpt lat="41.3556990" lon="-8.7545330">
        <ele>10.2</ele>
        <time>2021-05-16T11:33:30Z</time>
      </trkpt>
      <trkpt lat="41.3557100" lon="-8.7545390">
        <ele>10.2</ele>
        <time>2021-05-16T11:33:31Z</time>
      </trkpt>
      <trkpt lat="41.3557270" lon="-8.7545380">
        <ele>10.2</ele>
        <time>2021-05-16T11:33:32Z</time>
      </trkpt>
      <trkpt lat="41.3557570" lon="-8.7545380">
        <ele>10.2</ele>
        <time>2021-05-16T11:33:33Z</time>
      </trkpt>
      <trkpt lat="41.3557640" lon="-8.7545370">
        <ele>10.2</ele>
        <time>2021-05-16T11:33:34Z</time>
      </trkpt>
      <trkpt lat="41.3557730" lon="-8.7545340">
        <ele>10.2</ele>
        <time>2021-05-16T11:33:35Z</time>
      </trkpt>
      <trkpt lat="41.3557720" lon="-8.7545350">
        <ele>10.2</ele>
        <time>2021-05-16T11:33:36Z</time>
      </trkpt>
      <trkpt lat="41.3557750" lon="-8.7545390">
        <ele>10.2</ele>
        <time>2021-05-16T11:33:37Z</time>
      </trkpt>
      <trkpt lat="41.3557760" lon="-8.7545450">
        <ele>10.2</ele>
        <time>2021-05-16T11:33:38Z</time>
      </trkpt>
      <trkpt lat="41.3557830" lon="-8.7545450">
        <ele>10.2</ele>
        <time>2021-05-16T11:33:39Z</time>
      </trkpt>
      <trkpt lat="41.3557820" lon="-8.7545460">
        <ele>10.2</ele>
        <time>2021-05-16T11:33:40Z</time>
      </trkpt>
      <trkpt lat="41.3557840" lon="-8.7545450">
        <ele>10.2</ele>
        <time>2021-05-16T11:33:41Z</time>
      </trkpt>
      <trkpt lat="41.3557810" lon="-8.7545430">
        <ele>10.2</ele>
        <time>2021-05-16T11:33:42Z</time>
      </trkpt>
      <trkpt lat="41.3557780" lon="-8.7545450">
        <ele>10.2</ele>
        <time>2021-05-16T11:33:43Z</time>
      </trkpt>
      <trkpt lat="41.3557900" lon="-8.7545510">
        <ele>10.2</ele>
        <time>2021-05-16T11:33:44Z</time>
      </trkpt>
      <trkpt lat="41.3558030" lon="-8.7545610">
        <ele>10.2</ele>
        <time>2021-05-16T11:33:45Z</time>
      </trkpt>
      <trkpt lat="41.3558200" lon="-8.7545670">
        <ele>10.2</ele>
        <time>2021-05-16T11:33:46Z</time>
      </trkpt>
      <trkpt lat="41.3558290" lon="-8.7545630">
        <ele>10.2</ele>
        <time>2021-05-16T11:33:47Z</time>
      </trkpt>
      <trkpt lat="41.3558370" lon="-8.7545630">
        <ele>10.2</ele>
        <time>2021-05-16T11:33:48Z</time>
      </trkpt>
      <trkpt lat="41.3558490" lon="-8.7545680">
        <ele>10.2</ele>
        <time>2021-05-16T11:33:49Z</time>
      </trkpt>
      <trkpt lat="41.3558640" lon="-8.7545730">
        <ele>10.2</ele>
        <time>2021-05-16T11:33:50Z</time>
      </trkpt>
      <trkpt lat="41.3558720" lon="-8.7545740">
        <ele>10.2</ele>
        <time>2021-05-16T11:33:51Z</time>
      </trkpt>
      <trkpt lat="41.3558840" lon="-8.7545810">
        <ele>10.2</ele>
        <time>2021-05-16T11:33:52Z</time>
      </trkpt>
      <trkpt lat="41.3558980" lon="-8.7545870">
        <ele>10.2</ele>
        <time>2021-05-16T11:33:53Z</time>
      </trkpt>
      <trkpt lat="41.3559120" lon="-8.7546000">
        <ele>10.2</ele>
        <time>2021-05-16T11:33:54Z</time>
      </trkpt>
      <trkpt lat="41.3559260" lon="-8.7546030">
        <ele>10.2</ele>
        <time>2021-05-16T11:33:55Z</time>
      </trkpt>
      <trkpt lat="41.3559370" lon="-8.7546050">
        <ele>10.2</ele>
        <time>2021-05-16T11:33:56Z</time>
      </trkpt>
      <trkpt lat="41.3559490" lon="-8.7546070">
        <ele>10.2</ele>
        <time>2021-05-16T11:33:57Z</time>
      </trkpt>
      <trkpt lat="41.3559620" lon="-8.7546160">
        <ele>10.2</ele>
        <time>2021-05-16T11:33:58Z</time>
      </trkpt>
      <trkpt lat="41.3559750" lon="-8.7546210">
        <ele>10.2</ele>
        <time>2021-05-16T11:33:59Z</time>
      </trkpt>
      <trkpt lat="41.3559890" lon="-8.7546380">
        <ele>10.2</ele>
        <time>2021-05-16T11:34:00Z</time>
      </trkpt>
      <trkpt lat="41.3559960" lon="-8.7546440">
        <ele>10.2</ele>
        <time>2021-05-16T11:34:01Z</time>
      </trkpt>
      <trkpt lat="41.3560040" lon="-8.7546510">
        <ele>10.2</ele>
        <time>2021-05-16T11:34:02Z</time>
      </trkpt>
      <trkpt lat="41.3560190" lon="-8.7546570">
        <ele>10.2</ele>
        <time>2021-05-16T11:34:03Z</time>
      </trkpt>
      <trkpt lat="41.3560330" lon="-8.7546630">
        <ele>10.2</ele>
        <time>2021-05-16T11:34:04Z</time>
      </trkpt>
      <trkpt lat="41.3560440" lon="-8.7546650">
        <ele>10.2</ele>
        <time>2021-05-16T11:34:05Z</time>
      </trkpt>
      <trkpt lat="41.3560540" lon="-8.7546690">
        <ele>10.2</ele>
        <time>2021-05-16T11:34:06Z</time>
      </trkpt>
      <trkpt lat="41.3560650" lon="-8.7546740">
        <ele>10.2</ele>
        <time>2021-05-16T11:34:07Z</time>
      </trkpt>
      <trkpt lat="41.3560750" lon="-8.7546790">
        <ele>10.2</ele>
        <time>2021-05-16T11:34:08Z</time>
      </trkpt>
      <trkpt lat="41.3560800" lon="-8.7546810">
        <ele>10.2</ele>
        <time>2021-05-16T11:34:09Z</time>
      </trkpt>
      <trkpt lat="41.3560830" lon="-8.7546800">
        <ele>10.2</ele>
        <time>2021-05-16T11:34:10Z</time>
      </trkpt>
      <trkpt lat="41.3560990" lon="-8.7546870">
        <ele>10.2</ele>
        <time>2021-05-16T11:34:11Z</time>
      </trkpt>
      <trkpt lat="41.3561200" lon="-8.7546920">
        <ele>10.2</ele>
        <time>2021-05-16T11:34:12Z</time>
      </trkpt>
      <trkpt lat="41.3561280" lon="-8.7546930">
        <ele>10.2</ele>
        <time>2021-05-16T11:34:13Z</time>
      </trkpt>
      <trkpt lat="41.3561430" lon="-8.7546950">
        <ele>10.2</ele>
        <time>2021-05-16T11:34:14Z</time>
      </trkpt>
      <trkpt lat="41.3561560" lon="-8.7547030">
        <ele>10.2</ele>
        <time>2021-05-16T11:34:15Z</time>
      </trkpt>
      <trkpt lat="41.3561720" lon="-8.7547030">
        <ele>10.2</ele>
        <time>2021-05-16T11:34:16Z</time>
      </trkpt>
      <trkpt lat="41.3561830" lon="-8.7547110">
        <ele>10.2</ele>
        <time>2021-05-16T11:34:17Z</time>
      </trkpt>
      <trkpt lat="41.3561930" lon="-8.7547130">
        <ele>10.2</ele>
        <time>2021-05-16T11:34:18Z</time>
      </trkpt>
      <trkpt lat="41.3562080" lon="-8.7547250">
        <ele>10.2</ele>
        <time>2021-05-16T11:34:19Z</time>
      </trkpt>
      <trkpt lat="41.3562200" lon="-8.7547330">
        <ele>10.2</ele>
        <time>2021-05-16T11:34:20Z</time>
      </trkpt>
      <trkpt lat="41.3562370" lon="-8.7547450">
        <ele>10.2</ele>
        <time>2021-05-16T11:34:21Z</time>
      </trkpt>
      <trkpt lat="41.3562540" lon="-8.7547480">
        <ele>10.2</ele>
        <time>2021-05-16T11:34:22Z</time>
      </trkpt>
      <trkpt lat="41.3562640" lon="-8.7547520">
        <ele>10.2</ele>
        <time>2021-05-16T11:34:23Z</time>
      </trkpt>
      <trkpt lat="41.3562740" lon="-8.7547570">
        <ele>10.2</ele>
        <time>2021-05-16T11:34:24Z</time>
      </trkpt>
      <trkpt lat="41.3562840" lon="-8.7547620">
        <ele>10.2</ele>
        <time>2021-05-16T11:34:25Z</time>
      </trkpt>
      <trkpt lat="41.3562990" lon="-8.7547730">
        <ele>10.2</ele>
        <time>2021-05-16T11:34:26Z</time>
      </trkpt>
      <trkpt lat="41.3563200" lon="-8.7547810">
        <ele>10.2</ele>
        <time>2021-05-16T11:34:27Z</time>
      </trkpt>
      <trkpt lat="41.3563290" lon="-8.7547830">
        <ele>10.2</ele>
        <time>2021-05-16T11:34:28Z</time>
      </trkpt>
      <trkpt lat="41.3563380" lon="-8.7547860">
        <ele>10.2</ele>
        <time>2021-05-16T11:34:29Z</time>
      </trkpt>
      <trkpt lat="41.3563580" lon="-8.7547960">
        <ele>10.2</ele>
        <time>2021-05-16T11:34:30Z</time>
      </trkpt>
      <trkpt lat="41.3563660" lon="-8.7548000">
        <ele>10.2</ele>
        <time>2021-05-16T11:34:31Z</time>
      </trkpt>
      <trkpt lat="41.3563740" lon="-8.7548030">
        <ele>10.2</ele>
        <time>2021-05-16T11:34:32Z</time>
      </trkpt>
      <trkpt lat="41.3563820" lon="-8.7548120">
        <ele>10.2</ele>
        <time>2021-05-16T11:34:33Z</time>
      </trkpt>
      <trkpt lat="41.3564040" lon="-8.7548220">
        <ele>10.2</ele>
        <time>2021-05-16T11:34:34Z</time>
      </trkpt>
      <trkpt lat="41.3564190" lon="-8.7548350">
        <ele>10.2</ele>
        <time>2021-05-16T11:34:35Z</time>
      </trkpt>
      <trkpt lat="41.3564380" lon="-8.7548360">
        <ele>10.2</ele>
        <time>2021-05-16T11:34:36Z</time>
      </trkpt>
      <trkpt lat="41.3564530" lon="-8.7548460">
        <ele>10.2</ele>
        <time>2021-05-16T11:34:37Z</time>
      </trkpt>
      <trkpt lat="41.3564700" lon="-8.7548500">
        <ele>10.1</ele>
        <time>2021-05-16T11:34:38Z</time>
      </trkpt>
      <trkpt lat="41.3564830" lon="-8.7548560">
        <ele>10.1</ele>
        <time>2021-05-16T11:34:39Z</time>
      </trkpt>
      <trkpt lat="41.3564970" lon="-8.7548570">
        <ele>10.1</ele>
        <time>2021-05-16T11:34:40Z</time>
      </trkpt>
      <trkpt lat="41.3565110" lon="-8.7548660">
        <ele>10.1</ele>
        <time>2021-05-16T11:34:41Z</time>
      </trkpt>
      <trkpt lat="41.3565270" lon="-8.7548710">
        <ele>10.1</ele>
        <time>2021-05-16T11:34:42Z</time>
      </trkpt>
      <trkpt lat="41.3565440" lon="-8.7548820">
        <ele>10.1</ele>
        <time>2021-05-16T11:34:43Z</time>
      </trkpt>
      <trkpt lat="41.3565570" lon="-8.7548850">
        <ele>10.1</ele>
        <time>2021-05-16T11:34:44Z</time>
      </trkpt>
      <trkpt lat="41.3565720" lon="-8.7548950">
        <ele>10.1</ele>
        <time>2021-05-16T11:34:45Z</time>
      </trkpt>
      <trkpt lat="41.3565880" lon="-8.7548970">
        <ele>10.1</ele>
        <time>2021-05-16T11:34:46Z</time>
      </trkpt>
      <trkpt lat="41.3566040" lon="-8.7549050">
        <ele>10.1</ele>
        <time>2021-05-16T11:34:47Z</time>
      </trkpt>
      <trkpt lat="41.3566200" lon="-8.7549090">
        <ele>10.1</ele>
        <time>2021-05-16T11:34:48Z</time>
      </trkpt>
      <trkpt lat="41.3566350" lon="-8.7549160">
        <ele>10.1</ele>
        <time>2021-05-16T11:34:49Z</time>
      </trkpt>
      <trkpt lat="41.3566490" lon="-8.7549200">
        <ele>10.1</ele>
        <time>2021-05-16T11:34:50Z</time>
      </trkpt>
      <trkpt lat="41.3566640" lon="-8.7549280">
        <ele>10.1</ele>
        <time>2021-05-16T11:34:51Z</time>
      </trkpt>
      <trkpt lat="41.3566800" lon="-8.7549320">
        <ele>10.1</ele>
        <time>2021-05-16T11:34:52Z</time>
      </trkpt>
      <trkpt lat="41.3566940" lon="-8.7549420">
        <ele>10.1</ele>
        <time>2021-05-16T11:34:53Z</time>
      </trkpt>
      <trkpt lat="41.3567070" lon="-8.7549470">
        <ele>10.0</ele>
        <time>2021-05-16T11:34:54Z</time>
      </trkpt>
      <trkpt lat="41.3567220" lon="-8.7549540">
        <ele>10.0</ele>
        <time>2021-05-16T11:34:55Z</time>
      </trkpt>
      <trkpt lat="41.3567330" lon="-8.7549680">
        <ele>10.0</ele>
        <time>2021-05-16T11:34:56Z</time>
      </trkpt>
      <trkpt lat="41.3567430" lon="-8.7549810">
        <ele>10.0</ele>
        <time>2021-05-16T11:34:57Z</time>
      </trkpt>
      <trkpt lat="41.3567510" lon="-8.7549890">
        <ele>10.0</ele>
        <time>2021-05-16T11:34:58Z</time>
      </trkpt>
      <trkpt lat="41.3567580" lon="-8.7549930">
        <ele>10.0</ele>
        <time>2021-05-16T11:34:59Z</time>
      </trkpt>
      <trkpt lat="41.3567800" lon="-8.7550000">
        <ele>10.0</ele>
        <time>2021-05-16T11:35:00Z</time>
      </trkpt>
      <trkpt lat="41.3567890" lon="-8.7550020">
        <ele>10.0</ele>
        <time>2021-05-16T11:35:01Z</time>
      </trkpt>
      <trkpt lat="41.3567970" lon="-8.7550030">
        <ele>10.0</ele>
        <time>2021-05-16T11:35:02Z</time>
      </trkpt>
      <trkpt lat="41.3568080" lon="-8.7550140">
        <ele>10.0</ele>
        <time>2021-05-16T11:35:03Z</time>
      </trkpt>
      <trkpt lat="41.3568140" lon="-8.7550200">
        <ele>10.0</ele>
        <time>2021-05-16T11:35:04Z</time>
      </trkpt>
      <trkpt lat="41.3568230" lon="-8.7550200">
        <ele>10.0</ele>
        <time>2021-05-16T11:35:05Z</time>
      </trkpt>
      <trkpt lat="41.3568330" lon="-8.7550290">
        <ele>10.0</ele>
        <time>2021-05-16T11:35:06Z</time>
      </trkpt>
      <trkpt lat="41.3568510" lon="-8.7550330">
        <ele>10.0</ele>
        <time>2021-05-16T11:35:07Z</time>
      </trkpt>
      <trkpt lat="41.3568710" lon="-8.7550440">
        <ele>10.0</ele>
        <time>2021-05-16T11:35:08Z</time>
      </trkpt>
      <trkpt lat="41.3568820" lon="-8.7550480">
        <ele>10.0</ele>
        <time>2021-05-16T11:35:09Z</time>
      </trkpt>
      <trkpt lat="41.3568920" lon="-8.7550520">
        <ele>10.0</ele>
        <time>2021-05-16T11:35:10Z</time>
      </trkpt>
      <trkpt lat="41.3569090" lon="-8.7550550">
        <ele>10.0</ele>
        <time>2021-05-16T11:35:11Z</time>
      </trkpt>
      <trkpt lat="41.3569230" lon="-8.7550620">
        <ele>10.0</ele>
        <time>2021-05-16T11:35:12Z</time>
      </trkpt>
      <trkpt lat="41.3569410" lon="-8.7550590">
        <ele>10.0</ele>
        <time>2021-05-16T11:35:13Z</time>
      </trkpt>
      <trkpt lat="41.3569570" lon="-8.7550670">
        <ele>10.0</ele>
        <time>2021-05-16T11:35:14Z</time>
      </trkpt>
      <trkpt lat="41.3569700" lon="-8.7550720">
        <ele>10.0</ele>
        <time>2021-05-16T11:35:15Z</time>
      </trkpt>
      <trkpt lat="41.3569850" lon="-8.7550670">
        <ele>10.0</ele>
        <time>2021-05-16T11:35:16Z</time>
      </trkpt>
      <trkpt lat="41.3569980" lon="-8.7550770">
        <ele>10.0</ele>
        <time>2021-05-16T11:35:17Z</time>
      </trkpt>
      <trkpt lat="41.3570130" lon="-8.7550760">
        <ele>10.0</ele>
        <time>2021-05-16T11:35:18Z</time>
      </trkpt>
      <trkpt lat="41.3570260" lon="-8.7550870">
        <ele>10.0</ele>
        <time>2021-05-16T11:35:19Z</time>
      </trkpt>
      <trkpt lat="41.3570380" lon="-8.7550900">
        <ele>10.0</ele>
        <time>2021-05-16T11:35:20Z</time>
      </trkpt>
      <trkpt lat="41.3570500" lon="-8.7550900">
        <ele>10.0</ele>
        <time>2021-05-16T11:35:21Z</time>
      </trkpt>
      <trkpt lat="41.3570670" lon="-8.7550870">
        <ele>10.0</ele>
        <time>2021-05-16T11:35:22Z</time>
      </trkpt>
      <trkpt lat="41.3570790" lon="-8.7550920">
        <ele>10.0</ele>
        <time>2021-05-16T11:35:23Z</time>
      </trkpt>
      <trkpt lat="41.3570940" lon="-8.7550970">
        <ele>9.9</ele>
        <time>2021-05-16T11:35:24Z</time>
      </trkpt>
      <trkpt lat="41.3571080" lon="-8.7550990">
        <ele>9.9</ele>
        <time>2021-05-16T11:35:25Z</time>
      </trkpt>
      <trkpt lat="41.3571210" lon="-8.7551080">
        <ele>9.9</ele>
        <time>2021-05-16T11:35:26Z</time>
      </trkpt>
      <trkpt lat="41.3571330" lon="-8.7551210">
        <ele>9.9</ele>
        <time>2021-05-16T11:35:27Z</time>
      </trkpt>
      <trkpt lat="41.3571470" lon="-8.7551270">
        <ele>9.9</ele>
        <time>2021-05-16T11:35:28Z</time>
      </trkpt>
      <trkpt lat="41.3571580" lon="-8.7551420">
        <ele>9.9</ele>
        <time>2021-05-16T11:35:29Z</time>
      </trkpt>
      <trkpt lat="41.3571720" lon="-8.7551430">
        <ele>9.9</ele>
        <time>2021-05-16T11:35:30Z</time>
      </trkpt>
      <trkpt lat="41.3571870" lon="-8.7551500">
        <ele>9.9</ele>
        <time>2021-05-16T11:35:31Z</time>
      </trkpt>
      <trkpt lat="41.3572020" lon="-8.7551570">
        <ele>9.9</ele>
        <time>2021-05-16T11:35:32Z</time>
      </trkpt>
      <trkpt lat="41.3572190" lon="-8.7551610">
        <ele>9.9</ele>
        <time>2021-05-16T11:35:33Z</time>
      </trkpt>
      <trkpt lat="41.3572340" lon="-8.7551710">
        <ele>9.9</ele>
        <time>2021-05-16T11:35:34Z</time>
      </trkpt>
      <trkpt lat="41.3572480" lon="-8.7551760">
        <ele>9.9</ele>
        <time>2021-05-16T11:35:35Z</time>
      </trkpt>
      <trkpt lat="41.3572620" lon="-8.7551820">
        <ele>9.9</ele>
        <time>2021-05-16T11:35:36Z</time>
      </trkpt>
      <trkpt lat="41.3572780" lon="-8.7551800">
        <ele>9.9</ele>
        <time>2021-05-16T11:35:37Z</time>
      </trkpt>
      <trkpt lat="41.3572910" lon="-8.7551900">
        <ele>9.9</ele>
        <time>2021-05-16T11:35:38Z</time>
      </trkpt>
      <trkpt lat="41.3573130" lon="-8.7551980">
        <ele>9.9</ele>
        <time>2021-05-16T11:35:39Z</time>
      </trkpt>
      <trkpt lat="41.3573210" lon="-8.7552040">
        <ele>9.9</ele>
        <time>2021-05-16T11:35:40Z</time>
      </trkpt>
      <trkpt lat="41.3573290" lon="-8.7552090">
        <ele>9.9</ele>
        <time>2021-05-16T11:35:41Z</time>
      </trkpt>
      <trkpt lat="41.3573430" lon="-8.7552150">
        <ele>9.9</ele>
        <time>2021-05-16T11:35:42Z</time>
      </trkpt>
      <trkpt lat="41.3573540" lon="-8.7552240">
        <ele>9.9</ele>
        <time>2021-05-16T11:35:43Z</time>
      </trkpt>
      <trkpt lat="41.3573740" lon="-8.7552320">
        <ele>9.8</ele>
        <time>2021-05-16T11:35:44Z</time>
      </trkpt>
      <trkpt lat="41.3573820" lon="-8.7552350">
        <ele>9.8</ele>
        <time>2021-05-16T11:35:45Z</time>
      </trkpt>
      <trkpt lat="41.3573900" lon="-8.7552380">
        <ele>9.8</ele>
        <time>2021-05-16T11:35:46Z</time>
      </trkpt>
      <trkpt lat="41.3574020" lon="-8.7552460">
        <ele>9.8</ele>
        <time>2021-05-16T11:35:47Z</time>
      </trkpt>
      <trkpt lat="41.3574140" lon="-8.7552570">
        <ele>9.8</ele>
        <time>2021-05-16T11:35:48Z</time>
      </trkpt>
      <trkpt lat="41.3574260" lon="-8.7552740">
        <ele>9.8</ele>
        <time>2021-05-16T11:35:49Z</time>
      </trkpt>
      <trkpt lat="41.3574380" lon="-8.7552820">
        <ele>9.8</ele>
        <time>2021-05-16T11:35:50Z</time>
      </trkpt>
      <trkpt lat="41.3574520" lon="-8.7552810">
        <ele>9.8</ele>
        <time>2021-05-16T11:35:51Z</time>
      </trkpt>
      <trkpt lat="41.3574670" lon="-8.7552870">
        <ele>9.8</ele>
        <time>2021-05-16T11:35:52Z</time>
      </trkpt>
      <trkpt lat="41.3574890" lon="-8.7552910">
        <ele>9.8</ele>
        <time>2021-05-16T11:35:53Z</time>
      </trkpt>
      <trkpt lat="41.3574970" lon="-8.7552970">
        <ele>9.8</ele>
        <time>2021-05-16T11:35:54Z</time>
      </trkpt>
      <trkpt lat="41.3575040" lon="-8.7553040">
        <ele>9.8</ele>
        <time>2021-05-16T11:35:55Z</time>
      </trkpt>
      <trkpt lat="41.3575150" lon="-8.7553110">
        <ele>9.8</ele>
        <time>2021-05-16T11:35:56Z</time>
      </trkpt>
      <trkpt lat="41.3575280" lon="-8.7553240">
        <ele>9.8</ele>
        <time>2021-05-16T11:35:57Z</time>
      </trkpt>
      <trkpt lat="41.3575420" lon="-8.7553280">
        <ele>9.8</ele>
        <time>2021-05-16T11:35:58Z</time>
      </trkpt>
      <trkpt lat="41.3575570" lon="-8.7553310">
        <ele>9.8</ele>
        <time>2021-05-16T11:35:59Z</time>
      </trkpt>
      <trkpt lat="41.3575710" lon="-8.7553340">
        <ele>9.8</ele>
        <time>2021-05-16T11:36:00Z</time>
      </trkpt>
      <trkpt lat="41.3575840" lon="-8.7553370">
        <ele>9.8</ele>
        <time>2021-05-16T11:36:01Z</time>
      </trkpt>
      <trkpt lat="41.3575990" lon="-8.7553440">
        <ele>9.8</ele>
        <time>2021-05-16T11:36:02Z</time>
      </trkpt>
      <trkpt lat="41.3576120" lon="-8.7553540">
        <ele>9.8</ele>
        <time>2021-05-16T11:36:03Z</time>
      </trkpt>
      <trkpt lat="41.3576320" lon="-8.7553640">
        <ele>9.7</ele>
        <time>2021-05-16T11:36:04Z</time>
      </trkpt>
      <trkpt lat="41.3576410" lon="-8.7553660">
        <ele>9.7</ele>
        <time>2021-05-16T11:36:05Z</time>
      </trkpt>
      <trkpt lat="41.3576500" lon="-8.7553690">
        <ele>9.7</ele>
        <time>2021-05-16T11:36:06Z</time>
      </trkpt>
      <trkpt lat="41.3576610" lon="-8.7553860">
        <ele>9.7</ele>
        <time>2021-05-16T11:36:07Z</time>
      </trkpt>
      <trkpt lat="41.3576740" lon="-8.7553920">
        <ele>9.7</ele>
        <time>2021-05-16T11:36:08Z</time>
      </trkpt>
      <trkpt lat="41.3576840" lon="-8.7554080">
        <ele>9.7</ele>
        <time>2021-05-16T11:36:09Z</time>
      </trkpt>
      <trkpt lat="41.3576940" lon="-8.7554170">
        <ele>9.7</ele>
        <time>2021-05-16T11:36:10Z</time>
      </trkpt>
      <trkpt lat="41.3577090" lon="-8.7554180">
        <ele>9.7</ele>
        <time>2021-05-16T11:36:11Z</time>
      </trkpt>
      <trkpt lat="41.3577230" lon="-8.7554200">
        <ele>9.7</ele>
        <time>2021-05-16T11:36:12Z</time>
      </trkpt>
      <trkpt lat="41.3577370" lon="-8.7554250">
        <ele>9.7</ele>
        <time>2021-05-16T11:36:13Z</time>
      </trkpt>
      <trkpt lat="41.3577520" lon="-8.7554280">
        <ele>9.7</ele>
        <time>2021-05-16T11:36:14Z</time>
      </trkpt>
      <trkpt lat="41.3577710" lon="-8.7554370">
        <ele>9.7</ele>
        <time>2021-05-16T11:36:15Z</time>
      </trkpt>
      <trkpt lat="41.3577790" lon="-8.7554400">
        <ele>9.7</ele>
        <time>2021-05-16T11:36:16Z</time>
      </trkpt>
      <trkpt lat="41.3577860" lon="-8.7554440">
        <ele>9.7</ele>
        <time>2021-05-16T11:36:17Z</time>
      </trkpt>
      <trkpt lat="41.3578070" lon="-8.7554570">
        <ele>9.7</ele>
        <time>2021-05-16T11:36:18Z</time>
      </trkpt>
      <trkpt lat="41.3578130" lon="-8.7554610">
        <ele>9.7</ele>
        <time>2021-05-16T11:36:19Z</time>
      </trkpt>
      <trkpt lat="41.3578200" lon="-8.7554640">
        <ele>9.7</ele>
        <time>2021-05-16T11:36:20Z</time>
      </trkpt>
      <trkpt lat="41.3578400" lon="-8.7554780">
        <ele>9.7</ele>
        <time>2021-05-16T11:36:21Z</time>
      </trkpt>
      <trkpt lat="41.3578500" lon="-8.7554800">
        <ele>9.7</ele>
        <time>2021-05-16T11:36:22Z</time>
      </trkpt>
      <trkpt lat="41.3578590" lon="-8.7554820">
        <ele>9.7</ele>
        <time>2021-05-16T11:36:23Z</time>
      </trkpt>
      <trkpt lat="41.3578700" lon="-8.7554990">
        <ele>9.7</ele>
        <time>2021-05-16T11:36:24Z</time>
      </trkpt>
      <trkpt lat="41.3578850" lon="-8.7554960">
        <ele>9.7</ele>
        <time>2021-05-16T11:36:25Z</time>
      </trkpt>
      <trkpt lat="41.3578960" lon="-8.7555020">
        <ele>9.7</ele>
        <time>2021-05-16T11:36:26Z</time>
      </trkpt>
      <trkpt lat="41.3579070" lon="-8.7555040">
        <ele>9.7</ele>
        <time>2021-05-16T11:36:27Z</time>
      </trkpt>
      <trkpt lat="41.3579200" lon="-8.7555060">
        <ele>9.7</ele>
        <time>2021-05-16T11:36:28Z</time>
      </trkpt>
      <trkpt lat="41.3579340" lon="-8.7555120">
        <ele>9.7</ele>
        <time>2021-05-16T11:36:29Z</time>
      </trkpt>
      <trkpt lat="41.3579490" lon="-8.7555130">
        <ele>9.7</ele>
        <time>2021-05-16T11:36:30Z</time>
      </trkpt>
      <trkpt lat="41.3579580" lon="-8.7555230">
        <ele>9.7</ele>
        <time>2021-05-16T11:36:31Z</time>
      </trkpt>
      <trkpt lat="41.3579710" lon="-8.7555360">
        <ele>9.7</ele>
        <time>2021-05-16T11:36:32Z</time>
      </trkpt>
      <trkpt lat="41.3579850" lon="-8.7555360">
        <ele>9.7</ele>
        <time>2021-05-16T11:36:33Z</time>
      </trkpt>
      <trkpt lat="41.3579980" lon="-8.7555420">
        <ele>9.7</ele>
        <time>2021-05-16T11:36:34Z</time>
      </trkpt>
      <trkpt lat="41.3580190" lon="-8.7555490">
        <ele>9.7</ele>
        <time>2021-05-16T11:36:35Z</time>
      </trkpt>
      <trkpt lat="41.3580280" lon="-8.7555520">
        <ele>9.7</ele>
        <time>2021-05-16T11:36:36Z</time>
      </trkpt>
      <trkpt lat="41.3580360" lon="-8.7555540">
        <ele>9.7</ele>
        <time>2021-05-16T11:36:37Z</time>
      </trkpt>
      <trkpt lat="41.3580500" lon="-8.7555610">
        <ele>9.7</ele>
        <time>2021-05-16T11:36:38Z</time>
      </trkpt>
      <trkpt lat="41.3580620" lon="-8.7555670">
        <ele>9.7</ele>
        <time>2021-05-16T11:36:39Z</time>
      </trkpt>
      <trkpt lat="41.3580820" lon="-8.7555810">
        <ele>9.7</ele>
        <time>2021-05-16T11:36:40Z</time>
      </trkpt>
      <trkpt lat="41.3580900" lon="-8.7555870">
        <ele>9.7</ele>
        <time>2021-05-16T11:36:41Z</time>
      </trkpt>
      <trkpt lat="41.3580990" lon="-8.7555940">
        <ele>9.7</ele>
        <time>2021-05-16T11:36:42Z</time>
      </trkpt>
      <trkpt lat="41.3581190" lon="-8.7556030">
        <ele>9.7</ele>
        <time>2021-05-16T11:36:43Z</time>
      </trkpt>
      <trkpt lat="41.3581280" lon="-8.7556050">
        <ele>9.7</ele>
        <time>2021-05-16T11:36:44Z</time>
      </trkpt>
      <trkpt lat="41.3581370" lon="-8.7556080">
        <ele>9.7</ele>
        <time>2021-05-16T11:36:45Z</time>
      </trkpt>
      <trkpt lat="41.3581590" lon="-8.7556120">
        <ele>9.7</ele>
        <time>2021-05-16T11:36:46Z</time>
      </trkpt>
      <trkpt lat="41.3581670" lon="-8.7556160">
        <ele>9.7</ele>
        <time>2021-05-16T11:36:47Z</time>
      </trkpt>
      <trkpt lat="41.3581750" lon="-8.7556190">
        <ele>9.7</ele>
        <time>2021-05-16T11:36:48Z</time>
      </trkpt>
      <trkpt lat="41.3581870" lon="-8.7556280">
        <ele>9.7</ele>
        <time>2021-05-16T11:36:49Z</time>
      </trkpt>
      <trkpt lat="41.3581990" lon="-8.7556440">
        <ele>9.7</ele>
        <time>2021-05-16T11:36:50Z</time>
      </trkpt>
      <trkpt lat="41.3582140" lon="-8.7556490">
        <ele>9.7</ele>
        <time>2021-05-16T11:36:51Z</time>
      </trkpt>
      <trkpt lat="41.3582270" lon="-8.7556520">
        <ele>9.7</ele>
        <time>2021-05-16T11:36:52Z</time>
      </trkpt>
      <trkpt lat="41.3582430" lon="-8.7556560">
        <ele>9.7</ele>
        <time>2021-05-16T11:36:53Z</time>
      </trkpt>
      <trkpt lat="41.3582530" lon="-8.7556610">
        <ele>9.7</ele>
        <time>2021-05-16T11:36:54Z</time>
      </trkpt>
      <trkpt lat="41.3582580" lon="-8.7556660">
        <ele>9.7</ele>
        <time>2021-05-16T11:36:55Z</time>
      </trkpt>
      <trkpt lat="41.3582650" lon="-8.7556650">
        <ele>9.7</ele>
        <time>2021-05-16T11:36:56Z</time>
      </trkpt>
      <trkpt lat="41.3582650" lon="-8.7556790">
        <ele>9.7</ele>
        <time>2021-05-16T11:36:57Z</time>
      </trkpt>
      <trkpt lat="41.3582810" lon="-8.7556960">
        <ele>9.7</ele>
        <time>2021-05-16T11:36:58Z</time>
      </trkpt>
      <trkpt lat="41.3582930" lon="-8.7557040">
        <ele>9.7</ele>
        <time>2021-05-16T11:36:59Z</time>
      </trkpt>
      <trkpt lat="41.3583010" lon="-8.7557090">
        <ele>9.7</ele>
        <time>2021-05-16T11:37:00Z</time>
      </trkpt>
      <trkpt lat="41.3583080" lon="-8.7557150">
        <ele>9.7</ele>
        <time>2021-05-16T11:37:01Z</time>
      </trkpt>
      <trkpt lat="41.3583150" lon="-8.7557200">
        <ele>9.7</ele>
        <time>2021-05-16T11:37:02Z</time>
      </trkpt>
      <trkpt lat="41.3583160" lon="-8.7557330">
        <ele>9.7</ele>
        <time>2021-05-16T11:37:03Z</time>
      </trkpt>
      <trkpt lat="41.3583330" lon="-8.7557450">
        <ele>9.7</ele>
        <time>2021-05-16T11:37:04Z</time>
      </trkpt>
      <trkpt lat="41.3583330" lon="-8.7557480">
        <ele>9.7</ele>
        <time>2021-05-16T11:37:05Z</time>
      </trkpt>
      <trkpt lat="41.3583410" lon="-8.7557670">
        <ele>9.7</ele>
        <time>2021-05-16T11:37:06Z</time>
      </trkpt>
      <trkpt lat="41.3583470" lon="-8.7557860">
        <ele>9.7</ele>
        <time>2021-05-16T11:37:07Z</time>
      </trkpt>
      <trkpt lat="41.3583560" lon="-8.7557950">
        <ele>9.7</ele>
        <time>2021-05-16T11:37:08Z</time>
      </trkpt>
      <trkpt lat="41.3583620" lon="-8.7557950">
        <ele>9.7</ele>
        <time>2021-05-16T11:37:09Z</time>
      </trkpt>
      <trkpt lat="41.3583650" lon="-8.7558060">
        <ele>9.7</ele>
        <time>2021-05-16T11:37:10Z</time>
      </trkpt>
      <trkpt lat="41.3583770" lon="-8.7558110">
        <ele>9.7</ele>
        <time>2021-05-16T11:37:11Z</time>
      </trkpt>
      <trkpt lat="41.3583730" lon="-8.7558170">
        <ele>9.7</ele>
        <time>2021-05-16T11:37:12Z</time>
      </trkpt>
      <trkpt lat="41.3583690" lon="-8.7558270">
        <ele>9.7</ele>
        <time>2021-05-16T11:37:13Z</time>
      </trkpt>
      <trkpt lat="41.3583660" lon="-8.7558340">
        <ele>9.7</ele>
        <time>2021-05-16T11:37:14Z</time>
      </trkpt>
      <trkpt lat="41.3583750" lon="-8.7558460">
        <ele>9.7</ele>
        <time>2021-05-16T11:37:15Z</time>
      </trkpt>
      <trkpt lat="41.3583730" lon="-8.7558420">
        <ele>9.7</ele>
        <time>2021-05-16T11:37:16Z</time>
      </trkpt>
      <trkpt lat="41.3583740" lon="-8.7558470">
        <ele>9.7</ele>
        <time>2021-05-16T11:37:17Z</time>
      </trkpt>
      <trkpt lat="41.3583960" lon="-8.7558630">
        <ele>9.7</ele>
        <time>2021-05-16T11:37:18Z</time>
      </trkpt>
      <trkpt lat="41.3583770" lon="-8.7558660">
        <ele>9.7</ele>
        <time>2021-05-16T11:37:19Z</time>
      </trkpt>
      <trkpt lat="41.3583660" lon="-8.7558640">
        <ele>9.7</ele>
        <time>2021-05-16T11:37:20Z</time>
      </trkpt>
      <trkpt lat="41.3583600" lon="-8.7558680">
        <ele>9.7</ele>
        <time>2021-05-16T11:37:21Z</time>
      </trkpt>
      <trkpt lat="41.3583550" lon="-8.7558670">
        <ele>9.7</ele>
        <time>2021-05-16T11:37:22Z</time>
      </trkpt>
      <trkpt lat="41.3583540" lon="-8.7558680">
        <ele>9.7</ele>
        <time>2021-05-16T11:37:23Z</time>
      </trkpt>
      <trkpt lat="41.3583540" lon="-8.7558670">
        <ele>9.7</ele>
        <time>2021-05-16T11:37:24Z</time>
      </trkpt>
      <trkpt lat="41.3583520" lon="-8.7558660">
        <ele>9.7</ele>
        <time>2021-05-16T11:37:25Z</time>
      </trkpt>
      <trkpt lat="41.3583520" lon="-8.7558680">
        <ele>9.7</ele>
        <time>2021-05-16T11:37:26Z</time>
      </trkpt>
      <trkpt lat="41.3583510" lon="-8.7558690">
        <ele>9.7</ele>
        <time>2021-05-16T11:37:27Z</time>
      </trkpt>
      <trkpt lat="41.3583510" lon="-8.7558710">
        <ele>9.7</ele>
        <time>2021-05-16T11:37:28Z</time>
      </trkpt>
      <trkpt lat="41.3583500" lon="-8.7558740">
        <ele>9.7</ele>
        <time>2021-05-16T11:37:29Z</time>
      </trkpt>
      <trkpt lat="41.3583490" lon="-8.7558760">
        <ele>9.7</ele>
        <time>2021-05-16T11:37:30Z</time>
      </trkpt>
      <trkpt lat="41.3583480" lon="-8.7558780">
        <ele>9.7</ele>
        <time>2021-05-16T11:37:31Z</time>
      </trkpt>
      <trkpt lat="41.3583480" lon="-8.7558800">
        <ele>9.7</ele>
        <time>2021-05-16T11:37:32Z</time>
      </trkpt>
      <trkpt lat="41.3583470" lon="-8.7558830">
        <ele>9.7</ele>
        <time>2021-05-16T11:37:33Z</time>
      </trkpt>
      <trkpt lat="41.3583460" lon="-8.7558850">
        <ele>9.7</ele>
        <time>2021-05-16T11:37:34Z</time>
      </trkpt>
      <trkpt lat="41.3583450" lon="-8.7558870">
        <ele>9.7</ele>
        <time>2021-05-16T11:37:35Z</time>
      </trkpt>
      <trkpt lat="41.3583450" lon="-8.7558890">
        <ele>9.7</ele>
        <time>2021-05-16T11:37:36Z</time>
      </trkpt>
      <trkpt lat="41.3583440" lon="-8.7558920">
        <ele>9.7</ele>
        <time>2021-05-16T11:37:37Z</time>
      </trkpt>
      <trkpt lat="41.3583430" lon="-8.7558940">
        <ele>9.7</ele>
        <time>2021-05-16T11:37:38Z</time>
      </trkpt>
      <trkpt lat="41.3583430" lon="-8.7558960">
        <ele>9.7</ele>
        <time>2021-05-16T11:37:39Z</time>
      </trkpt>
      <trkpt lat="41.3583420" lon="-8.7558980">
        <ele>9.7</ele>
        <time>2021-05-16T11:37:40Z</time>
      </trkpt>
      <trkpt lat="41.3583410" lon="-8.7559000">
        <ele>9.7</ele>
        <time>2021-05-16T11:37:41Z</time>
      </trkpt>
      <trkpt lat="41.3583400" lon="-8.7559030">
        <ele>9.7</ele>
        <time>2021-05-16T11:37:42Z</time>
      </trkpt>
      <trkpt lat="41.3583400" lon="-8.7559050">
        <ele>9.7</ele>
        <time>2021-05-16T11:37:43Z</time>
      </trkpt>
      <trkpt lat="41.3583390" lon="-8.7559070">
        <ele>9.7</ele>
        <time>2021-05-16T11:37:44Z</time>
      </trkpt>
      <trkpt lat="41.3583380" lon="-8.7559090">
        <ele>9.7</ele>
        <time>2021-05-16T11:37:45Z</time>
      </trkpt>
      <trkpt lat="41.3583370" lon="-8.7559120">
        <ele>9.7</ele>
        <time>2021-05-16T11:37:46Z</time>
      </trkpt>
      <trkpt lat="41.3583370" lon="-8.7559140">
        <ele>9.7</ele>
        <time>2021-05-16T11:37:47Z</time>
      </trkpt>
      <trkpt lat="41.3583360" lon="-8.7559160">
        <ele>9.7</ele>
        <time>2021-05-16T11:37:48Z</time>
      </trkpt>
      <trkpt lat="41.3583350" lon="-8.7559180">
        <ele>9.7</ele>
        <time>2021-05-16T11:37:49Z</time>
      </trkpt>
      <trkpt lat="41.3583340" lon="-8.7559210">
        <ele>9.7</ele>
        <time>2021-05-16T11:37:50Z</time>
      </trkpt>
      <trkpt lat="41.3583340" lon="-8.7559230">
        <ele>9.7</ele>
        <time>2021-05-16T11:37:51Z</time>
      </trkpt>
      <trkpt lat="41.3583330" lon="-8.7559250">
        <ele>9.7</ele>
        <time>2021-05-16T11:37:52Z</time>
      </trkpt>
      <trkpt lat="41.3583350" lon="-8.7559400">
        <ele>9.7</ele>
        <time>2021-05-16T11:37:53Z</time>
      </trkpt>
      <trkpt lat="41.3583430" lon="-8.7559490">
        <ele>9.7</ele>
        <time>2021-05-16T11:37:54Z</time>
      </trkpt>
      <trkpt lat="41.3583440" lon="-8.7559580">
        <ele>9.7</ele>
        <time>2021-05-16T11:37:55Z</time>
      </trkpt>
      <trkpt lat="41.3583500" lon="-8.7559720">
        <ele>9.7</ele>
        <time>2021-05-16T11:37:56Z</time>
      </trkpt>
      <trkpt lat="41.3583590" lon="-8.7559730">
        <ele>9.7</ele>
        <time>2021-05-16T11:37:57Z</time>
      </trkpt>
      <trkpt lat="41.3583700" lon="-8.7559790">
        <ele>9.7</ele>
        <time>2021-05-16T11:37:58Z</time>
      </trkpt>
      <trkpt lat="41.3583850" lon="-8.7559780">
        <ele>9.7</ele>
        <time>2021-05-16T11:37:59Z</time>
      </trkpt>
      <trkpt lat="41.3583980" lon="-8.7559890">
        <ele>9.7</ele>
        <time>2021-05-16T11:38:00Z</time>
      </trkpt>
      <trkpt lat="41.3584150" lon="-8.7559900">
        <ele>9.7</ele>
        <time>2021-05-16T11:38:01Z</time>
      </trkpt>
      <trkpt lat="41.3584240" lon="-8.7559990">
        <ele>9.7</ele>
        <time>2021-05-16T11:38:02Z</time>
      </trkpt>
      <trkpt lat="41.3584460" lon="-8.7560070">
        <ele>9.7</ele>
        <time>2021-05-16T11:38:03Z</time>
      </trkpt>
      <trkpt lat="41.3584540" lon="-8.7560100">
        <ele>9.7</ele>
        <time>2021-05-16T11:38:04Z</time>
      </trkpt>
      <trkpt lat="41.3584630" lon="-8.7560130">
        <ele>9.7</ele>
        <time>2021-05-16T11:38:05Z</time>
      </trkpt>
      <trkpt lat="41.3584660" lon="-8.7560230">
        <ele>9.7</ele>
        <time>2021-05-16T11:38:06Z</time>
      </trkpt>
      <trkpt lat="41.3584780" lon="-8.7560270">
        <ele>9.7</ele>
        <time>2021-05-16T11:38:07Z</time>
      </trkpt>
      <trkpt lat="41.3584920" lon="-8.7560320">
        <ele>9.7</ele>
        <time>2021-05-16T11:38:08Z</time>
      </trkpt>
      <trkpt lat="41.3585140" lon="-8.7560370">
        <ele>9.7</ele>
        <time>2021-05-16T11:38:09Z</time>
      </trkpt>
      <trkpt lat="41.3585230" lon="-8.7560350">
        <ele>9.7</ele>
        <time>2021-05-16T11:38:10Z</time>
      </trkpt>
      <trkpt lat="41.3585320" lon="-8.7560340">
        <ele>9.7</ele>
        <time>2021-05-16T11:38:11Z</time>
      </trkpt>
      <trkpt lat="41.3585440" lon="-8.7560360">
        <ele>9.7</ele>
        <time>2021-05-16T11:38:12Z</time>
      </trkpt>
      <trkpt lat="41.3585540" lon="-8.7560410">
        <ele>9.7</ele>
        <time>2021-05-16T11:38:13Z</time>
      </trkpt>
      <trkpt lat="41.3585640" lon="-8.7560440">
        <ele>9.7</ele>
        <time>2021-05-16T11:38:14Z</time>
      </trkpt>
      <trkpt lat="41.3585840" lon="-8.7560410">
        <ele>9.6</ele>
        <time>2021-05-16T11:38:15Z</time>
      </trkpt>
      <trkpt lat="41.3585940" lon="-8.7560440">
        <ele>9.6</ele>
        <time>2021-05-16T11:38:16Z</time>
      </trkpt>
      <trkpt lat="41.3586040" lon="-8.7560460">
        <ele>9.6</ele>
        <time>2021-05-16T11:38:17Z</time>
      </trkpt>
      <trkpt lat="41.3586230" lon="-8.7560490">
        <ele>9.6</ele>
        <time>2021-05-16T11:38:18Z</time>
      </trkpt>
      <trkpt lat="41.3586370" lon="-8.7560540">
        <ele>9.6</ele>
        <time>2021-05-16T11:38:19Z</time>
      </trkpt>
      <trkpt lat="41.3586520" lon="-8.7560730">
        <ele>9.6</ele>
        <time>2021-05-16T11:38:20Z</time>
      </trkpt>
      <trkpt lat="41.3586590" lon="-8.7560780">
        <ele>9.6</ele>
        <time>2021-05-16T11:38:21Z</time>
      </trkpt>
      <trkpt lat="41.3586670" lon="-8.7560840">
        <ele>9.5</ele>
        <time>2021-05-16T11:38:22Z</time>
      </trkpt>
      <trkpt lat="41.3586980" lon="-8.7560800">
        <ele>9.5</ele>
        <time>2021-05-16T11:38:23Z</time>
      </trkpt>
      <trkpt lat="41.3587060" lon="-8.7560790">
        <ele>9.5</ele>
        <time>2021-05-16T11:38:24Z</time>
      </trkpt>
      <trkpt lat="41.3587240" lon="-8.7560860">
        <ele>9.5</ele>
        <time>2021-05-16T11:38:25Z</time>
      </trkpt>
      <trkpt lat="41.3587330" lon="-8.7560890">
        <ele>9.5</ele>
        <time>2021-05-16T11:38:26Z</time>
      </trkpt>
      <trkpt lat="41.3587410" lon="-8.7560930">
        <ele>9.5</ele>
        <time>2021-05-16T11:38:27Z</time>
      </trkpt>
      <trkpt lat="41.3587470" lon="-8.7561020">
        <ele>9.5</ele>
        <time>2021-05-16T11:38:28Z</time>
      </trkpt>
      <trkpt lat="41.3587690" lon="-8.7561070">
        <ele>9.5</ele>
        <time>2021-05-16T11:38:29Z</time>
      </trkpt>
      <trkpt lat="41.3587800" lon="-8.7561110">
        <ele>9.5</ele>
        <time>2021-05-16T11:38:30Z</time>
      </trkpt>
      <trkpt lat="41.3587910" lon="-8.7561200">
        <ele>9.4</ele>
        <time>2021-05-16T11:38:31Z</time>
      </trkpt>
      <trkpt lat="41.3587990" lon="-8.7561230">
        <ele>9.4</ele>
        <time>2021-05-16T11:38:32Z</time>
      </trkpt>
      <trkpt lat="41.3588040" lon="-8.7561300">
        <ele>9.4</ele>
        <time>2021-05-16T11:38:33Z</time>
      </trkpt>
      <trkpt lat="41.3588140" lon="-8.7561400">
        <ele>9.4</ele>
        <time>2021-05-16T11:38:34Z</time>
      </trkpt>
      <trkpt lat="41.3588200" lon="-8.7561510">
        <ele>9.4</ele>
        <time>2021-05-16T11:38:35Z</time>
      </trkpt>
      <trkpt lat="41.3588420" lon="-8.7561520">
        <ele>9.4</ele>
        <time>2021-05-16T11:38:36Z</time>
      </trkpt>
      <trkpt lat="41.3588500" lon="-8.7561540">
        <ele>9.4</ele>
        <time>2021-05-16T11:38:37Z</time>
      </trkpt>
      <trkpt lat="41.3588570" lon="-8.7561550">
        <ele>9.4</ele>
        <time>2021-05-16T11:38:38Z</time>
      </trkpt>
      <trkpt lat="41.3588650" lon="-8.7561580">
        <ele>9.4</ele>
        <time>2021-05-16T11:38:39Z</time>
      </trkpt>
      <trkpt lat="41.3588810" lon="-8.7561610">
        <ele>9.4</ele>
        <time>2021-05-16T11:38:40Z</time>
      </trkpt>
      <trkpt lat="41.3588890" lon="-8.7561670">
        <ele>9.4</ele>
        <time>2021-05-16T11:38:41Z</time>
      </trkpt>
      <trkpt lat="41.3589000" lon="-8.7561720">
        <ele>9.4</ele>
        <time>2021-05-16T11:38:42Z</time>
      </trkpt>
      <trkpt lat="41.3589070" lon="-8.7561760">
        <ele>9.3</ele>
        <time>2021-05-16T11:38:43Z</time>
      </trkpt>
      <trkpt lat="41.3589220" lon="-8.7561810">
        <ele>9.3</ele>
        <time>2021-05-16T11:38:44Z</time>
      </trkpt>
      <trkpt lat="41.3589430" lon="-8.7561810">
        <ele>9.3</ele>
        <time>2021-05-16T11:38:45Z</time>
      </trkpt>
      <trkpt lat="41.3589510" lon="-8.7561810">
        <ele>9.3</ele>
        <time>2021-05-16T11:38:46Z</time>
      </trkpt>
      <trkpt lat="41.3589600" lon="-8.7561810">
        <ele>9.3</ele>
        <time>2021-05-16T11:38:47Z</time>
      </trkpt>
      <trkpt lat="41.3589780" lon="-8.7561770">
        <ele>9.3</ele>
        <time>2021-05-16T11:38:48Z</time>
      </trkpt>
      <trkpt lat="41.3589880" lon="-8.7561790">
        <ele>9.3</ele>
        <time>2021-05-16T11:38:49Z</time>
      </trkpt>
      <trkpt lat="41.3590040" lon="-8.7561760">
        <ele>9.3</ele>
        <time>2021-05-16T11:38:50Z</time>
      </trkpt>
      <trkpt lat="41.3590120" lon="-8.7561730">
        <ele>9.3</ele>
        <time>2021-05-16T11:38:51Z</time>
      </trkpt>
      <trkpt lat="41.3590190" lon="-8.7561690">
        <ele>9.3</ele>
        <time>2021-05-16T11:38:52Z</time>
      </trkpt>
      <trkpt lat="41.3590260" lon="-8.7561660">
        <ele>9.3</ele>
        <time>2021-05-16T11:38:53Z</time>
      </trkpt>
      <trkpt lat="41.3590430" lon="-8.7561590">
        <ele>9.2</ele>
        <time>2021-05-16T11:38:54Z</time>
      </trkpt>
      <trkpt lat="41.3590560" lon="-8.7561630">
        <ele>9.2</ele>
        <time>2021-05-16T11:38:55Z</time>
      </trkpt>
      <trkpt lat="41.3590700" lon="-8.7561680">
        <ele>9.2</ele>
        <time>2021-05-16T11:38:56Z</time>
      </trkpt>
      <trkpt lat="41.3590850" lon="-8.7561710">
        <ele>9.2</ele>
        <time>2021-05-16T11:38:57Z</time>
      </trkpt>
      <trkpt lat="41.3591060" lon="-8.7561790">
        <ele>9.2</ele>
        <time>2021-05-16T11:38:58Z</time>
      </trkpt>
      <trkpt lat="41.3591150" lon="-8.7561840">
        <ele>9.2</ele>
        <time>2021-05-16T11:38:59Z</time>
      </trkpt>
      <trkpt lat="41.3591230" lon="-8.7561900">
        <ele>9.2</ele>
        <time>2021-05-16T11:39:00Z</time>
      </trkpt>
      <trkpt lat="41.3591460" lon="-8.7561990">
        <ele>9.2</ele>
        <time>2021-05-16T11:39:01Z</time>
      </trkpt>
      <trkpt lat="41.3591530" lon="-8.7562030">
        <ele>9.2</ele>
        <time>2021-05-16T11:39:02Z</time>
      </trkpt>
      <trkpt lat="41.3591610" lon="-8.7562060">
        <ele>9.2</ele>
        <time>2021-05-16T11:39:03Z</time>
      </trkpt>
      <trkpt lat="41.3591820" lon="-8.7562140">
        <ele>9.2</ele>
        <time>2021-05-16T11:39:04Z</time>
      </trkpt>
      <trkpt lat="41.3591890" lon="-8.7562180">
        <ele>9.2</ele>
        <time>2021-05-16T11:39:05Z</time>
      </trkpt>
      <trkpt lat="41.3591960" lon="-8.7562210">
        <ele>9.2</ele>
        <time>2021-05-16T11:39:06Z</time>
      </trkpt>
      <trkpt lat="41.3592150" lon="-8.7562240">
        <ele>9.2</ele>
        <time>2021-05-16T11:39:07Z</time>
      </trkpt>
      <trkpt lat="41.3592240" lon="-8.7562270">
        <ele>9.2</ele>
        <time>2021-05-16T11:39:08Z</time>
      </trkpt>
      <trkpt lat="41.3592340" lon="-8.7562290">
        <ele>9.1</ele>
        <time>2021-05-16T11:39:09Z</time>
      </trkpt>
      <trkpt lat="41.3592430" lon="-8.7562320">
        <ele>9.1</ele>
        <time>2021-05-16T11:39:10Z</time>
      </trkpt>
      <trkpt lat="41.3592590" lon="-8.7562400">
        <ele>9.1</ele>
        <time>2021-05-16T11:39:11Z</time>
      </trkpt>
      <trkpt lat="41.3592700" lon="-8.7562570">
        <ele>9.1</ele>
        <time>2021-05-16T11:39:12Z</time>
      </trkpt>
      <trkpt lat="41.3592870" lon="-8.7562700">
        <ele>9.1</ele>
        <time>2021-05-16T11:39:13Z</time>
      </trkpt>
      <trkpt lat="41.3592970" lon="-8.7562750">
        <ele>9.1</ele>
        <time>2021-05-16T11:39:14Z</time>
      </trkpt>
      <trkpt lat="41.3593060" lon="-8.7562810">
        <ele>9.1</ele>
        <time>2021-05-16T11:39:15Z</time>
      </trkpt>
      <trkpt lat="41.3593210" lon="-8.7562920">
        <ele>9.1</ele>
        <time>2021-05-16T11:39:16Z</time>
      </trkpt>
      <trkpt lat="41.3593320" lon="-8.7562980">
        <ele>9.1</ele>
        <time>2021-05-16T11:39:17Z</time>
      </trkpt>
      <trkpt lat="41.3593450" lon="-8.7563170">
        <ele>9.1</ele>
        <time>2021-05-16T11:39:18Z</time>
      </trkpt>
      <trkpt lat="41.3593520" lon="-8.7563250">
        <ele>9.1</ele>
        <time>2021-05-16T11:39:19Z</time>
      </trkpt>
      <trkpt lat="41.3593590" lon="-8.7563320">
        <ele>9.1</ele>
        <time>2021-05-16T11:39:20Z</time>
      </trkpt>
      <trkpt lat="41.3593700" lon="-8.7563340">
        <ele>9.1</ele>
        <time>2021-05-16T11:39:21Z</time>
      </trkpt>
      <trkpt lat="41.3593830" lon="-8.7563390">
        <ele>9.1</ele>
        <time>2021-05-16T11:39:22Z</time>
      </trkpt>
      <trkpt lat="41.3593930" lon="-8.7563460">
        <ele>9.1</ele>
        <time>2021-05-16T11:39:23Z</time>
      </trkpt>
      <trkpt lat="41.3594060" lon="-8.7563560">
        <ele>9.1</ele>
        <time>2021-05-16T11:39:24Z</time>
      </trkpt>
      <trkpt lat="41.3594170" lon="-8.7563690">
        <ele>9.1</ele>
        <time>2021-05-16T11:39:25Z</time>
      </trkpt>
      <trkpt lat="41.3594320" lon="-8.7563880">
        <ele>9.1</ele>
        <time>2021-05-16T11:39:26Z</time>
      </trkpt>
      <trkpt lat="41.3594400" lon="-8.7563950">
        <ele>9.1</ele>
        <time>2021-05-16T11:39:27Z</time>
      </trkpt>
      <trkpt lat="41.3594470" lon="-8.7564010">
        <ele>9.1</ele>
        <time>2021-05-16T11:39:28Z</time>
      </trkpt>
      <trkpt lat="41.3594590" lon="-8.7564080">
        <ele>9.1</ele>
        <time>2021-05-16T11:39:29Z</time>
      </trkpt>
      <trkpt lat="41.3594730" lon="-8.7564210">
        <ele>9.1</ele>
        <time>2021-05-16T11:39:30Z</time>
      </trkpt>
      <trkpt lat="41.3595050" lon="-8.7564300">
        <ele>9.1</ele>
        <time>2021-05-16T11:39:31Z</time>
      </trkpt>
      <trkpt lat="41.3595110" lon="-8.7564320">
        <ele>9.1</ele>
        <time>2021-05-16T11:39:32Z</time>
      </trkpt>
      <trkpt lat="41.3595420" lon="-8.7564450">
        <ele>9.1</ele>
        <time>2021-05-16T11:39:33Z</time>
      </trkpt>
      <trkpt lat="41.3595500" lon="-8.7564500">
        <ele>9.1</ele>
        <time>2021-05-16T11:39:34Z</time>
      </trkpt>
      <trkpt lat="41.3595710" lon="-8.7564620">
        <ele>9.1</ele>
        <time>2021-05-16T11:39:35Z</time>
      </trkpt>
      <trkpt lat="41.3595810" lon="-8.7564680">
        <ele>9.1</ele>
        <time>2021-05-16T11:39:36Z</time>
      </trkpt>
      <trkpt lat="41.3596080" lon="-8.7564780">
        <ele>9.0</ele>
        <time>2021-05-16T11:39:37Z</time>
      </trkpt>
      <trkpt lat="41.3596370" lon="-8.7564930">
        <ele>9.0</ele>
        <time>2021-05-16T11:39:38Z</time>
      </trkpt>
      <trkpt lat="41.3596460" lon="-8.7564950">
        <ele>9.0</ele>
        <time>2021-05-16T11:39:39Z</time>
      </trkpt>
      <trkpt lat="41.3596750" lon="-8.7565040">
        <ele>9.0</ele>
        <time>2021-05-16T11:39:40Z</time>
      </trkpt>
      <trkpt lat="41.3596830" lon="-8.7565050">
        <ele>9.0</ele>
        <time>2021-05-16T11:39:41Z</time>
      </trkpt>
      <trkpt lat="41.3597050" lon="-8.7565190">
        <ele>9.0</ele>
        <time>2021-05-16T11:39:42Z</time>
      </trkpt>
      <trkpt lat="41.3597130" lon="-8.7565280">
        <ele>9.0</ele>
        <time>2021-05-16T11:39:43Z</time>
      </trkpt>
      <trkpt lat="41.3597200" lon="-8.7565360">
        <ele>9.0</ele>
        <time>2021-05-16T11:39:44Z</time>
      </trkpt>
      <trkpt lat="41.3597260" lon="-8.7565490">
        <ele>9.0</ele>
        <time>2021-05-16T11:39:45Z</time>
      </trkpt>
      <trkpt lat="41.3597340" lon="-8.7565610">
        <ele>9.0</ele>
        <time>2021-05-16T11:39:46Z</time>
      </trkpt>
      <trkpt lat="41.3597380" lon="-8.7565650">
        <ele>9.0</ele>
        <time>2021-05-16T11:39:47Z</time>
      </trkpt>
      <trkpt lat="41.3597400" lon="-8.7565730">
        <ele>9.0</ele>
        <time>2021-05-16T11:39:48Z</time>
      </trkpt>
      <trkpt lat="41.3597500" lon="-8.7565830">
        <ele>9.0</ele>
        <time>2021-05-16T11:39:49Z</time>
      </trkpt>
      <trkpt lat="41.3597580" lon="-8.7565930">
        <ele>9.0</ele>
        <time>2021-05-16T11:39:50Z</time>
      </trkpt>
      <trkpt lat="41.3597650" lon="-8.7566000">
        <ele>9.0</ele>
        <time>2021-05-16T11:39:51Z</time>
      </trkpt>
      <trkpt lat="41.3597730" lon="-8.7566100">
        <ele>9.0</ele>
        <time>2021-05-16T11:39:52Z</time>
      </trkpt>
      <trkpt lat="41.3597840" lon="-8.7566220">
        <ele>9.0</ele>
        <time>2021-05-16T11:39:53Z</time>
      </trkpt>
      <trkpt lat="41.3597900" lon="-8.7566280">
        <ele>9.0</ele>
        <time>2021-05-16T11:39:54Z</time>
      </trkpt>
      <trkpt lat="41.3597990" lon="-8.7566350">
        <ele>9.0</ele>
        <time>2021-05-16T11:39:55Z</time>
      </trkpt>
      <trkpt lat="41.3598080" lon="-8.7566480">
        <ele>9.0</ele>
        <time>2021-05-16T11:39:56Z</time>
      </trkpt>
      <trkpt lat="41.3598190" lon="-8.7566620">
        <ele>9.0</ele>
        <time>2021-05-16T11:39:57Z</time>
      </trkpt>
      <trkpt lat="41.3598230" lon="-8.7566710">
        <ele>9.0</ele>
        <time>2021-05-16T11:39:58Z</time>
      </trkpt>
      <trkpt lat="41.3598320" lon="-8.7566760">
        <ele>9.0</ele>
        <time>2021-05-16T11:39:59Z</time>
      </trkpt>
      <trkpt lat="41.3598290" lon="-8.7566900">
        <ele>9.0</ele>
        <time>2021-05-16T11:40:00Z</time>
      </trkpt>
      <trkpt lat="41.3598420" lon="-8.7567010">
        <ele>9.0</ele>
        <time>2021-05-16T11:40:01Z</time>
      </trkpt>
      <trkpt lat="41.3598580" lon="-8.7567090">
        <ele>9.0</ele>
        <time>2021-05-16T11:40:02Z</time>
      </trkpt>
      <trkpt lat="41.3598690" lon="-8.7567150">
        <ele>9.0</ele>
        <time>2021-05-16T11:40:03Z</time>
      </trkpt>
      <trkpt lat="41.3598800" lon="-8.7567190">
        <ele>9.0</ele>
        <time>2021-05-16T11:40:04Z</time>
      </trkpt>
      <trkpt lat="41.3598860" lon="-8.7567340">
        <ele>9.0</ele>
        <time>2021-05-16T11:40:05Z</time>
      </trkpt>
      <trkpt lat="41.3598920" lon="-8.7567460">
        <ele>9.0</ele>
        <time>2021-05-16T11:40:06Z</time>
      </trkpt>
      <trkpt lat="41.3598950" lon="-8.7567560">
        <ele>9.0</ele>
        <time>2021-05-16T11:40:07Z</time>
      </trkpt>
      <trkpt lat="41.3599010" lon="-8.7567710">
        <ele>9.0</ele>
        <time>2021-05-16T11:40:08Z</time>
      </trkpt>
      <trkpt lat="41.3599020" lon="-8.7567810">
        <ele>9.0</ele>
        <time>2021-05-16T11:40:09Z</time>
      </trkpt>
      <trkpt lat="41.3599110" lon="-8.7567920">
        <ele>9.0</ele>
        <time>2021-05-16T11:40:10Z</time>
      </trkpt>
      <trkpt lat="41.3599130" lon="-8.7568040">
        <ele>9.0</ele>
        <time>2021-05-16T11:40:11Z</time>
      </trkpt>
      <trkpt lat="41.3599350" lon="-8.7568190">
        <ele>9.0</ele>
        <time>2021-05-16T11:40:12Z</time>
      </trkpt>
      <trkpt lat="41.3599430" lon="-8.7568250">
        <ele>9.0</ele>
        <time>2021-05-16T11:40:13Z</time>
      </trkpt>
      <trkpt lat="41.3599510" lon="-8.7568320">
        <ele>9.0</ele>
        <time>2021-05-16T11:40:14Z</time>
      </trkpt>
      <trkpt lat="41.3599650" lon="-8.7568520">
        <ele>9.0</ele>
        <time>2021-05-16T11:40:15Z</time>
      </trkpt>
      <trkpt lat="41.3599740" lon="-8.7568610">
        <ele>9.0</ele>
        <time>2021-05-16T11:40:16Z</time>
      </trkpt>
      <trkpt lat="41.3599820" lon="-8.7568700">
        <ele>9.0</ele>
        <time>2021-05-16T11:40:17Z</time>
      </trkpt>
      <trkpt lat="41.3599890" lon="-8.7568800">
        <ele>9.0</ele>
        <time>2021-05-16T11:40:18Z</time>
      </trkpt>
      <trkpt lat="41.3599990" lon="-8.7568890">
        <ele>9.0</ele>
        <time>2021-05-16T11:40:19Z</time>
      </trkpt>
      <trkpt lat="41.3600070" lon="-8.7569010">
        <ele>9.0</ele>
        <time>2021-05-16T11:40:20Z</time>
      </trkpt>
      <trkpt lat="41.3600150" lon="-8.7569090">
        <ele>9.0</ele>
        <time>2021-05-16T11:40:21Z</time>
      </trkpt>
      <trkpt lat="41.3600230" lon="-8.7569190">
        <ele>9.0</ele>
        <time>2021-05-16T11:40:22Z</time>
      </trkpt>
      <trkpt lat="41.3600250" lon="-8.7569310">
        <ele>9.0</ele>
        <time>2021-05-16T11:40:23Z</time>
      </trkpt>
      <trkpt lat="41.3600260" lon="-8.7569430">
        <ele>9.0</ele>
        <time>2021-05-16T11:40:24Z</time>
      </trkpt>
      <trkpt lat="41.3600360" lon="-8.7569560">
        <ele>9.0</ele>
        <time>2021-05-16T11:40:25Z</time>
      </trkpt>
      <trkpt lat="41.3600460" lon="-8.7569670">
        <ele>9.0</ele>
        <time>2021-05-16T11:40:26Z</time>
      </trkpt>
      <trkpt lat="41.3600640" lon="-8.7569870">
        <ele>8.9</ele>
        <time>2021-05-16T11:40:27Z</time>
      </trkpt>
      <trkpt lat="41.3600700" lon="-8.7569980">
        <ele>8.9</ele>
        <time>2021-05-16T11:40:28Z</time>
      </trkpt>
      <trkpt lat="41.3600770" lon="-8.7570080">
        <ele>8.9</ele>
        <time>2021-05-16T11:40:29Z</time>
      </trkpt>
      <trkpt lat="41.3600850" lon="-8.7570190">
        <ele>8.9</ele>
        <time>2021-05-16T11:40:30Z</time>
      </trkpt>
      <trkpt lat="41.3600930" lon="-8.7570280">
        <ele>8.9</ele>
        <time>2021-05-16T11:40:31Z</time>
      </trkpt>
      <trkpt lat="41.3601000" lon="-8.7570370">
        <ele>8.9</ele>
        <time>2021-05-16T11:40:32Z</time>
      </trkpt>
      <trkpt lat="41.3601080" lon="-8.7570420">
        <ele>8.9</ele>
        <time>2021-05-16T11:40:33Z</time>
      </trkpt>
      <trkpt lat="41.3601140" lon="-8.7570500">
        <ele>8.9</ele>
        <time>2021-05-16T11:40:34Z</time>
      </trkpt>
      <trkpt lat="41.3601210" lon="-8.7570640">
        <ele>8.9</ele>
        <time>2021-05-16T11:40:35Z</time>
      </trkpt>
      <trkpt lat="41.3601280" lon="-8.7570820">
        <ele>8.9</ele>
        <time>2021-05-16T11:40:36Z</time>
      </trkpt>
      <trkpt lat="41.3601340" lon="-8.7570930">
        <ele>8.9</ele>
        <time>2021-05-16T11:40:37Z</time>
      </trkpt>
      <trkpt lat="41.3601440" lon="-8.7571010">
        <ele>8.9</ele>
        <time>2021-05-16T11:40:38Z</time>
      </trkpt>
      <trkpt lat="41.3601620" lon="-8.7571180">
        <ele>8.9</ele>
        <time>2021-05-16T11:40:39Z</time>
      </trkpt>
      <trkpt lat="41.3601700" lon="-8.7571260">
        <ele>8.9</ele>
        <time>2021-05-16T11:40:40Z</time>
      </trkpt>
      <trkpt lat="41.3601770" lon="-8.7571330">
        <ele>8.9</ele>
        <time>2021-05-16T11:40:41Z</time>
      </trkpt>
      <trkpt lat="41.3601930" lon="-8.7571510">
        <ele>8.9</ele>
        <time>2021-05-16T11:40:42Z</time>
      </trkpt>
      <trkpt lat="41.3602010" lon="-8.7571590">
        <ele>8.9</ele>
        <time>2021-05-16T11:40:43Z</time>
      </trkpt>
      <trkpt lat="41.3602080" lon="-8.7571680">
        <ele>8.9</ele>
        <time>2021-05-16T11:40:44Z</time>
      </trkpt>
      <trkpt lat="41.3602120" lon="-8.7571710">
        <ele>8.9</ele>
        <time>2021-05-16T11:40:45Z</time>
      </trkpt>
      <trkpt lat="41.3602230" lon="-8.7571870">
        <ele>8.9</ele>
        <time>2021-05-16T11:40:46Z</time>
      </trkpt>
      <trkpt lat="41.3602260" lon="-8.7571990">
        <ele>8.9</ele>
        <time>2021-05-16T11:40:47Z</time>
      </trkpt>
      <trkpt lat="41.3602350" lon="-8.7572140">
        <ele>8.9</ele>
        <time>2021-05-16T11:40:48Z</time>
      </trkpt>
      <trkpt lat="41.3602440" lon="-8.7572240">
        <ele>8.9</ele>
        <time>2021-05-16T11:40:49Z</time>
      </trkpt>
      <trkpt lat="41.3602530" lon="-8.7572340">
        <ele>8.9</ele>
        <time>2021-05-16T11:40:50Z</time>
      </trkpt>
      <trkpt lat="41.3602600" lon="-8.7572440">
        <ele>8.9</ele>
        <time>2021-05-16T11:40:51Z</time>
      </trkpt>
      <trkpt lat="41.3602670" lon="-8.7572640">
        <ele>8.9</ele>
        <time>2021-05-16T11:40:52Z</time>
      </trkpt>
      <trkpt lat="41.3602850" lon="-8.7572750">
        <ele>8.9</ele>
        <time>2021-05-16T11:40:53Z</time>
      </trkpt>
      <trkpt lat="41.3602920" lon="-8.7572800">
        <ele>8.9</ele>
        <time>2021-05-16T11:40:54Z</time>
      </trkpt>
      <trkpt lat="41.3603000" lon="-8.7572860">
        <ele>8.9</ele>
        <time>2021-05-16T11:40:55Z</time>
      </trkpt>
      <trkpt lat="41.3603030" lon="-8.7573020">
        <ele>8.9</ele>
        <time>2021-05-16T11:40:56Z</time>
      </trkpt>
      <trkpt lat="41.3603130" lon="-8.7573120">
        <ele>8.9</ele>
        <time>2021-05-16T11:40:57Z</time>
      </trkpt>
      <trkpt lat="41.3603220" lon="-8.7573210">
        <ele>8.9</ele>
        <time>2021-05-16T11:40:58Z</time>
      </trkpt>
      <trkpt lat="41.3603260" lon="-8.7573280">
        <ele>8.9</ele>
        <time>2021-05-16T11:40:59Z</time>
      </trkpt>
      <trkpt lat="41.3603380" lon="-8.7573370">
        <ele>8.9</ele>
        <time>2021-05-16T11:41:00Z</time>
      </trkpt>
      <trkpt lat="41.3603500" lon="-8.7573480">
        <ele>8.9</ele>
        <time>2021-05-16T11:41:01Z</time>
      </trkpt>
      <trkpt lat="41.3603580" lon="-8.7573540">
        <ele>8.9</ele>
        <time>2021-05-16T11:41:02Z</time>
      </trkpt>
      <trkpt lat="41.3603640" lon="-8.7573650">
        <ele>8.9</ele>
        <time>2021-05-16T11:41:03Z</time>
      </trkpt>
      <trkpt lat="41.3603730" lon="-8.7573770">
        <ele>8.9</ele>
        <time>2021-05-16T11:41:04Z</time>
      </trkpt>
      <trkpt lat="41.3603810" lon="-8.7573920">
        <ele>8.9</ele>
        <time>2021-05-16T11:41:05Z</time>
      </trkpt>
      <trkpt lat="41.3603870" lon="-8.7573970">
        <ele>8.9</ele>
        <time>2021-05-16T11:41:06Z</time>
      </trkpt>
      <trkpt lat="41.3603960" lon="-8.7574040">
        <ele>8.9</ele>
        <time>2021-05-16T11:41:07Z</time>
      </trkpt>
      <trkpt lat="41.3604070" lon="-8.7574110">
        <ele>8.9</ele>
        <time>2021-05-16T11:41:08Z</time>
      </trkpt>
      <trkpt lat="41.3604220" lon="-8.7574250">
        <ele>8.9</ele>
        <time>2021-05-16T11:41:09Z</time>
      </trkpt>
      <trkpt lat="41.3604290" lon="-8.7574310">
        <ele>8.9</ele>
        <time>2021-05-16T11:41:10Z</time>
      </trkpt>
      <trkpt lat="41.3604390" lon="-8.7574370">
        <ele>8.9</ele>
        <time>2021-05-16T11:41:11Z</time>
      </trkpt>
      <trkpt lat="41.3604480" lon="-8.7574450">
        <ele>8.9</ele>
        <time>2021-05-16T11:41:12Z</time>
      </trkpt>
      <trkpt lat="41.3604590" lon="-8.7574600">
        <ele>8.9</ele>
        <time>2021-05-16T11:41:13Z</time>
      </trkpt>
      <trkpt lat="41.3604710" lon="-8.7574750">
        <ele>8.9</ele>
        <time>2021-05-16T11:41:14Z</time>
      </trkpt>
      <trkpt lat="41.3604770" lon="-8.7574810">
        <ele>8.9</ele>
        <time>2021-05-16T11:41:15Z</time>
      </trkpt>
      <trkpt lat="41.3604900" lon="-8.7574890">
        <ele>8.9</ele>
        <time>2021-05-16T11:41:16Z</time>
      </trkpt>
      <trkpt lat="41.3605020" lon="-8.7574910">
        <ele>8.9</ele>
        <time>2021-05-16T11:41:17Z</time>
      </trkpt>
      <trkpt lat="41.3605040" lon="-8.7574900">
        <ele>8.9</ele>
        <time>2021-05-16T11:41:18Z</time>
      </trkpt>
      <trkpt lat="41.3605130" lon="-8.7575000">
        <ele>8.9</ele>
        <time>2021-05-16T11:41:19Z</time>
      </trkpt>
      <trkpt lat="41.3605180" lon="-8.7575100">
        <ele>8.9</ele>
        <time>2021-05-16T11:41:20Z</time>
      </trkpt>
      <trkpt lat="41.3605240" lon="-8.7575220">
        <ele>8.9</ele>
        <time>2021-05-16T11:41:21Z</time>
      </trkpt>
      <trkpt lat="41.3605350" lon="-8.7575340">
        <ele>8.9</ele>
        <time>2021-05-16T11:41:22Z</time>
      </trkpt>
      <trkpt lat="41.3605410" lon="-8.7575410">
        <ele>8.9</ele>
        <time>2021-05-16T11:41:23Z</time>
      </trkpt>
      <trkpt lat="41.3605480" lon="-8.7575490">
        <ele>8.9</ele>
        <time>2021-05-16T11:41:24Z</time>
      </trkpt>
      <trkpt lat="41.3605540" lon="-8.7575560">
        <ele>8.9</ele>
        <time>2021-05-16T11:41:25Z</time>
      </trkpt>
      <trkpt lat="41.3605660" lon="-8.7575730">
        <ele>8.8</ele>
        <time>2021-05-16T11:41:26Z</time>
      </trkpt>
      <trkpt lat="41.3605710" lon="-8.7575800">
        <ele>8.8</ele>
        <time>2021-05-16T11:41:27Z</time>
      </trkpt>
      <trkpt lat="41.3605720" lon="-8.7575830">
        <ele>8.8</ele>
        <time>2021-05-16T11:41:28Z</time>
      </trkpt>
      <trkpt lat="41.3605680" lon="-8.7575800">
        <ele>8.8</ele>
        <time>2021-05-16T11:41:29Z</time>
      </trkpt>
      <trkpt lat="41.3605690" lon="-8.7575690">
        <ele>8.8</ele>
        <time>2021-05-16T11:41:30Z</time>
      </trkpt>
      <trkpt lat="41.3605800" lon="-8.7575600">
        <ele>8.8</ele>
        <time>2021-05-16T11:41:31Z</time>
      </trkpt>
      <trkpt lat="41.3605940" lon="-8.7575500">
        <ele>8.8</ele>
        <time>2021-05-16T11:41:32Z</time>
      </trkpt>
      <trkpt lat="41.3605950" lon="-8.7575360">
        <ele>8.8</ele>
        <time>2021-05-16T11:41:33Z</time>
      </trkpt>
      <trkpt lat="41.3605980" lon="-8.7575280">
        <ele>8.8</ele>
        <time>2021-05-16T11:41:34Z</time>
      </trkpt>
      <trkpt lat="41.3606130" lon="-8.7575130">
        <ele>8.8</ele>
        <time>2021-05-16T11:41:35Z</time>
      </trkpt>
      <trkpt lat="41.3606180" lon="-8.7575080">
        <ele>8.8</ele>
        <time>2021-05-16T11:41:36Z</time>
      </trkpt>
      <trkpt lat="41.3606240" lon="-8.7575050">
        <ele>8.8</ele>
        <time>2021-05-16T11:41:37Z</time>
      </trkpt>
      <trkpt lat="41.3606300" lon="-8.7574910">
        <ele>8.8</ele>
        <time>2021-05-16T11:41:38Z</time>
      </trkpt>
      <trkpt lat="41.3606360" lon="-8.7574860">
        <ele>8.8</ele>
        <time>2021-05-16T11:41:39Z</time>
      </trkpt>
      <trkpt lat="41.3606360" lon="-8.7574870">
        <ele>8.8</ele>
        <time>2021-05-16T11:41:40Z</time>
      </trkpt>
      <trkpt lat="41.3606450" lon="-8.7574890">
        <ele>8.8</ele>
        <time>2021-05-16T11:41:41Z</time>
      </trkpt>
      <trkpt lat="41.3606490" lon="-8.7574900">
        <ele>8.8</ele>
        <time>2021-05-16T11:41:42Z</time>
      </trkpt>
      <trkpt lat="41.3606570" lon="-8.7574850">
        <ele>8.8</ele>
        <time>2021-05-16T11:41:43Z</time>
      </trkpt>
      <trkpt lat="41.3606600" lon="-8.7574800">
        <ele>8.8</ele>
        <time>2021-05-16T11:41:44Z</time>
      </trkpt>
      <trkpt lat="41.3606620" lon="-8.7574810">
        <ele>8.8</ele>
        <time>2021-05-16T11:41:45Z</time>
      </trkpt>
      <trkpt lat="41.3606630" lon="-8.7574820">
        <ele>8.8</ele>
        <time>2021-05-16T11:41:46Z</time>
      </trkpt>
      <trkpt lat="41.3606580" lon="-8.7574850">
        <ele>8.8</ele>
        <time>2021-05-16T11:41:47Z</time>
      </trkpt>
      <trkpt lat="41.3606590" lon="-8.7574760">
        <ele>8.8</ele>
        <time>2021-05-16T11:41:48Z</time>
      </trkpt>
      <trkpt lat="41.3606580" lon="-8.7574760">
        <ele>8.8</ele>
        <time>2021-05-16T11:41:49Z</time>
      </trkpt>
      <trkpt lat="41.3606600" lon="-8.7574720">
        <ele>8.8</ele>
        <time>2021-05-16T11:41:50Z</time>
      </trkpt>
      <trkpt lat="41.3606610" lon="-8.7574700">
        <ele>8.8</ele>
        <time>2021-05-16T11:41:51Z</time>
      </trkpt>
      <trkpt lat="41.3606620" lon="-8.7574750">
        <ele>8.8</ele>
        <time>2021-05-16T11:41:52Z</time>
      </trkpt>
      <trkpt lat="41.3606620" lon="-8.7574760">
        <ele>8.8</ele>
        <time>2021-05-16T11:41:53Z</time>
      </trkpt>
      <trkpt lat="41.3606640" lon="-8.7574740">
        <ele>8.8</ele>
        <time>2021-05-16T11:41:54Z</time>
      </trkpt>
      <trkpt lat="41.3606650" lon="-8.7574750">
        <ele>8.8</ele>
        <time>2021-05-16T11:41:55Z</time>
      </trkpt>
      <trkpt lat="41.3606610" lon="-8.7574770">
        <ele>8.8</ele>
        <time>2021-05-16T11:41:56Z</time>
      </trkpt>
      <trkpt lat="41.3606610" lon="-8.7574770">
        <ele>8.8</ele>
        <time>2021-05-16T11:41:57Z</time>
      </trkpt>
      <trkpt lat="41.3606610" lon="-8.7574770">
        <ele>8.8</ele>
        <time>2021-05-16T11:41:58Z</time>
      </trkpt>
      <trkpt lat="41.3606610" lon="-8.7574770">
        <ele>8.8</ele>
        <time>2021-05-16T11:41:59Z</time>
      </trkpt>
      <trkpt lat="41.3606730" lon="-8.7574800">
        <ele>8.8</ele>
        <time>2021-05-16T11:42:00Z</time>
      </trkpt>
      <trkpt lat="41.3606730" lon="-8.7574800">
        <ele>8.8</ele>
        <time>2021-05-16T11:42:01Z</time>
      </trkpt>
      <trkpt lat="41.3606730" lon="-8.7574800">
        <ele>8.8</ele>
        <time>2021-05-16T11:42:02Z</time>
      </trkpt>
      <trkpt lat="41.3606730" lon="-8.7574800">
        <ele>8.8</ele>
        <time>2021-05-16T11:42:03Z</time>
      </trkpt>
      <trkpt lat="41.3606670" lon="-8.7574850">
        <ele>8.8</ele>
        <time>2021-05-16T11:42:04Z</time>
      </trkpt>
      <trkpt lat="41.3606680" lon="-8.7574830">
        <ele>8.8</ele>
        <time>2021-05-16T11:42:05Z</time>
      </trkpt>
      <trkpt lat="41.3606680" lon="-8.7574860">
        <ele>8.8</ele>
        <time>2021-05-16T11:42:06Z</time>
      </trkpt>
      <trkpt lat="41.3606650" lon="-8.7574870">
        <ele>8.8</ele>
        <time>2021-05-16T11:42:07Z</time>
      </trkpt>
      <trkpt lat="41.3606620" lon="-8.7574880">
        <ele>8.8</ele>
        <time>2021-05-16T11:42:08Z</time>
      </trkpt>
      <trkpt lat="41.3606620" lon="-8.7574670">
        <ele>8.8</ele>
        <time>2021-05-16T11:42:09Z</time>
      </trkpt>
      <trkpt lat="41.3606620" lon="-8.7574570">
        <ele>8.8</ele>
        <time>2021-05-16T11:42:10Z</time>
      </trkpt>
      <trkpt lat="41.3606580" lon="-8.7574580">
        <ele>8.8</ele>
        <time>2021-05-16T11:42:11Z</time>
      </trkpt>
      <trkpt lat="41.3606590" lon="-8.7574640">
        <ele>8.8</ele>
        <time>2021-05-16T11:42:12Z</time>
      </trkpt>
      <trkpt lat="41.3606560" lon="-8.7574740">
        <ele>8.8</ele>
        <time>2021-05-16T11:42:13Z</time>
      </trkpt>
      <trkpt lat="41.3606540" lon="-8.7574720">
        <ele>8.8</ele>
        <time>2021-05-16T11:42:14Z</time>
      </trkpt>
      <trkpt lat="41.3606570" lon="-8.7574690">
        <ele>8.8</ele>
        <time>2021-05-16T11:42:15Z</time>
      </trkpt>
      <trkpt lat="41.3606510" lon="-8.7574640">
        <ele>8.8</ele>
        <time>2021-05-16T11:42:16Z</time>
      </trkpt>
      <trkpt lat="41.3606500" lon="-8.7574610">
        <ele>8.8</ele>
        <time>2021-05-16T11:42:17Z</time>
      </trkpt>
      <trkpt lat="41.3606490" lon="-8.7574580">
        <ele>8.8</ele>
        <time>2021-05-16T11:42:18Z</time>
      </trkpt>
      <trkpt lat="41.3606420" lon="-8.7574680">
        <ele>8.8</ele>
        <time>2021-05-16T11:42:19Z</time>
      </trkpt>
      <trkpt lat="41.3606410" lon="-8.7574690">
        <ele>8.8</ele>
        <time>2021-05-16T11:42:20Z</time>
      </trkpt>
      <trkpt lat="41.3606420" lon="-8.7574680">
        <ele>8.8</ele>
        <time>2021-05-16T11:42:21Z</time>
      </trkpt>
      <trkpt lat="41.3606380" lon="-8.7574590">
        <ele>8.8</ele>
        <time>2021-05-16T11:42:22Z</time>
      </trkpt>
      <trkpt lat="41.3606410" lon="-8.7574580">
        <ele>8.8</ele>
        <time>2021-05-16T11:42:23Z</time>
      </trkpt>
      <trkpt lat="41.3606410" lon="-8.7574600">
        <ele>8.8</ele>
        <time>2021-05-16T11:42:24Z</time>
      </trkpt>
      <trkpt lat="41.3606410" lon="-8.7574570">
        <ele>8.8</ele>
        <time>2021-05-16T11:42:25Z</time>
      </trkpt>
      <trkpt lat="41.3606460" lon="-8.7574540">
        <ele>8.8</ele>
        <time>2021-05-16T11:42:26Z</time>
      </trkpt>
      <trkpt lat="41.3606500" lon="-8.7574620">
        <ele>8.8</ele>
        <time>2021-05-16T11:42:27Z</time>
      </trkpt>
      <trkpt lat="41.3606490" lon="-8.7574640">
        <ele>8.8</ele>
        <time>2021-05-16T11:42:28Z</time>
      </trkpt>
      <trkpt lat="41.3606490" lon="-8.7574630">
        <ele>8.8</ele>
        <time>2021-05-16T11:42:29Z</time>
      </trkpt>
      <trkpt lat="41.3606510" lon="-8.7574680">
        <ele>8.8</ele>
        <time>2021-05-16T11:42:30Z</time>
      </trkpt>
      <trkpt lat="41.3606520" lon="-8.7574710">
        <ele>8.8</ele>
        <time>2021-05-16T11:42:31Z</time>
      </trkpt>
      <trkpt lat="41.3606510" lon="-8.7574790">
        <ele>8.8</ele>
        <time>2021-05-16T11:42:32Z</time>
      </trkpt>
      <trkpt lat="41.3606550" lon="-8.7574790">
        <ele>8.8</ele>
        <time>2021-05-16T11:42:33Z</time>
      </trkpt>
      <trkpt lat="41.3606550" lon="-8.7574790">
        <ele>8.8</ele>
        <time>2021-05-16T11:42:34Z</time>
      </trkpt>
      <trkpt lat="41.3606540" lon="-8.7574770">
        <ele>8.8</ele>
        <time>2021-05-16T11:42:35Z</time>
      </trkpt>
      <trkpt lat="41.3606530" lon="-8.7574780">
        <ele>8.8</ele>
        <time>2021-05-16T11:42:36Z</time>
      </trkpt>
      <trkpt lat="41.3606550" lon="-8.7574700">
        <ele>8.8</ele>
        <time>2021-05-16T11:42:37Z</time>
      </trkpt>
      <trkpt lat="41.3606430" lon="-8.7574900">
        <ele>8.8</ele>
        <time>2021-05-16T11:42:38Z</time>
      </trkpt>
      <trkpt lat="41.3606420" lon="-8.7575000">
        <ele>8.8</ele>
        <time>2021-05-16T11:42:39Z</time>
      </trkpt>
      <trkpt lat="41.3606420" lon="-8.7574770">
        <ele>8.7</ele>
        <time>2021-05-16T11:42:40Z</time>
      </trkpt>
      <trkpt lat="41.3606430" lon="-8.7574730">
        <ele>8.7</ele>
        <time>2021-05-16T11:42:41Z</time>
      </trkpt>
      <trkpt lat="41.3606440" lon="-8.7574680">
        <ele>8.7</ele>
        <time>2021-05-16T11:42:42Z</time>
      </trkpt>
      <trkpt lat="41.3606450" lon="-8.7574640">
        <ele>8.7</ele>
        <time>2021-05-16T11:42:43Z</time>
      </trkpt>
      <trkpt lat="41.3606460" lon="-8.7574590">
        <ele>8.7</ele>
        <time>2021-05-16T11:42:44Z</time>
      </trkpt>
      <trkpt lat="41.3606470" lon="-8.7574550">
        <ele>8.7</ele>
        <time>2021-05-16T11:42:45Z</time>
      </trkpt>
      <trkpt lat="41.3606490" lon="-8.7574500">
        <ele>8.7</ele>
        <time>2021-05-16T11:42:46Z</time>
      </trkpt>
      <trkpt lat="41.3606500" lon="-8.7574450">
        <ele>8.7</ele>
        <time>2021-05-16T11:42:47Z</time>
      </trkpt>
      <trkpt lat="41.3606510" lon="-8.7574410">
        <ele>8.7</ele>
        <time>2021-05-16T11:42:48Z</time>
      </trkpt>
      <trkpt lat="41.3606520" lon="-8.7574360">
        <ele>8.7</ele>
        <time>2021-05-16T11:42:49Z</time>
      </trkpt>
      <trkpt lat="41.3606530" lon="-8.7574320">
        <ele>8.7</ele>
        <time>2021-05-16T11:42:50Z</time>
      </trkpt>
      <trkpt lat="41.3606540" lon="-8.7574270">
        <ele>8.7</ele>
        <time>2021-05-16T11:42:51Z</time>
      </trkpt>
      <trkpt lat="41.3606550" lon="-8.7574230">
        <ele>8.7</ele>
        <time>2021-05-16T11:42:52Z</time>
      </trkpt>
      <trkpt lat="41.3606560" lon="-8.7574180">
        <ele>8.7</ele>
        <time>2021-05-16T11:42:53Z</time>
      </trkpt>
      <trkpt lat="41.3606570" lon="-8.7573950">
        <ele>8.7</ele>
        <time>2021-05-16T11:42:54Z</time>
      </trkpt>
      <trkpt lat="41.3606520" lon="-8.7573950">
        <ele>8.7</ele>
        <time>2021-05-16T11:42:55Z</time>
      </trkpt>
      <trkpt lat="41.3606600" lon="-8.7573990">
        <ele>8.7</ele>
        <time>2021-05-16T11:42:56Z</time>
      </trkpt>
      <trkpt lat="41.3606630" lon="-8.7574110">
        <ele>8.7</ele>
        <time>2021-05-16T11:42:57Z</time>
      </trkpt>
      <trkpt lat="41.3606630" lon="-8.7574220">
        <ele>8.7</ele>
        <time>2021-05-16T11:42:58Z</time>
      </trkpt>
      <trkpt lat="41.3606630" lon="-8.7574280">
        <ele>8.7</ele>
        <time>2021-05-16T11:42:59Z</time>
      </trkpt>
      <trkpt lat="41.3606610" lon="-8.7574390">
        <ele>8.7</ele>
        <time>2021-05-16T11:43:00Z</time>
      </trkpt>
      <trkpt lat="41.3606650" lon="-8.7574460">
        <ele>8.7</ele>
        <time>2021-05-16T11:43:01Z</time>
      </trkpt>
      <trkpt lat="41.3606660" lon="-8.7574440">
        <ele>8.7</ele>
        <time>2021-05-16T11:43:02Z</time>
      </trkpt>
      <trkpt lat="41.3606680" lon="-8.7574350">
        <ele>8.7</ele>
        <time>2021-05-16T11:43:03Z</time>
      </trkpt>
      <trkpt lat="41.3606700" lon="-8.7574330">
        <ele>8.7</ele>
        <time>2021-05-16T11:43:04Z</time>
      </trkpt>
      <trkpt lat="41.3606660" lon="-8.7574320">
        <ele>8.7</ele>
        <time>2021-05-16T11:43:05Z</time>
      </trkpt>
      <trkpt lat="41.3606670" lon="-8.7574480">
        <ele>8.7</ele>
        <time>2021-05-16T11:43:06Z</time>
      </trkpt>
      <trkpt lat="41.3606630" lon="-8.7574650">
        <ele>8.7</ele>
        <time>2021-05-16T11:43:07Z</time>
      </trkpt>
      <trkpt lat="41.3606640" lon="-8.7574590">
        <ele>8.7</ele>
        <time>2021-05-16T11:43:08Z</time>
      </trkpt>
      <trkpt lat="41.3606650" lon="-8.7574600">
        <ele>8.7</ele>
        <time>2021-05-16T11:43:09Z</time>
      </trkpt>
      <trkpt lat="41.3606680" lon="-8.7574630">
        <ele>8.7</ele>
        <time>2021-05-16T11:43:10Z</time>
      </trkpt>
      <trkpt lat="41.3606650" lon="-8.7574580">
        <ele>8.7</ele>
        <time>2021-05-16T11:43:11Z</time>
      </trkpt>
      <trkpt lat="41.3606660" lon="-8.7574560">
        <ele>8.7</ele>
        <time>2021-05-16T11:43:12Z</time>
      </trkpt>
      <trkpt lat="41.3606660" lon="-8.7574550">
        <ele>8.7</ele>
        <time>2021-05-16T11:43:13Z</time>
      </trkpt>
      <trkpt lat="41.3606670" lon="-8.7574620">
        <ele>8.7</ele>
        <time>2021-05-16T11:43:14Z</time>
      </trkpt>
      <trkpt lat="41.3606670" lon="-8.7574610">
        <ele>8.7</ele>
        <time>2021-05-16T11:43:15Z</time>
      </trkpt>
      <trkpt lat="41.3606640" lon="-8.7574660">
        <ele>8.7</ele>
        <time>2021-05-16T11:43:16Z</time>
      </trkpt>
      <trkpt lat="41.3606640" lon="-8.7574540">
        <ele>8.7</ele>
        <time>2021-05-16T11:43:17Z</time>
      </trkpt>
      <trkpt lat="41.3606640" lon="-8.7574480">
        <ele>8.7</ele>
        <time>2021-05-16T11:43:18Z</time>
      </trkpt>
      <trkpt lat="41.3606620" lon="-8.7574690">
        <ele>8.7</ele>
        <time>2021-05-16T11:43:19Z</time>
      </trkpt>
      <trkpt lat="41.3606610" lon="-8.7574750">
        <ele>8.7</ele>
        <time>2021-05-16T11:43:20Z</time>
      </trkpt>
      <trkpt lat="41.3606620" lon="-8.7574750">
        <ele>8.7</ele>
        <time>2021-05-16T11:43:21Z</time>
      </trkpt>
      <trkpt lat="41.3606670" lon="-8.7574540">
        <ele>8.7</ele>
        <time>2021-05-16T11:43:22Z</time>
      </trkpt>
      <trkpt lat="41.3606690" lon="-8.7574570">
        <ele>8.7</ele>
        <time>2021-05-16T11:43:23Z</time>
      </trkpt>
      <trkpt lat="41.3606690" lon="-8.7574570">
        <ele>8.7</ele>
        <time>2021-05-16T11:43:24Z</time>
      </trkpt>
      <trkpt lat="41.3606570" lon="-8.7574390">
        <ele>8.7</ele>
        <time>2021-05-16T11:43:25Z</time>
      </trkpt>
      <trkpt lat="41.3606630" lon="-8.7574450">
        <ele>8.7</ele>
        <time>2021-05-16T11:43:26Z</time>
      </trkpt>
      <trkpt lat="41.3606590" lon="-8.7574610">
        <ele>8.7</ele>
        <time>2021-05-16T11:43:27Z</time>
      </trkpt>
      <trkpt lat="41.3606570" lon="-8.7574790">
        <ele>8.7</ele>
        <time>2021-05-16T11:43:28Z</time>
      </trkpt>
      <trkpt lat="41.3606580" lon="-8.7574790">
        <ele>8.7</ele>
        <time>2021-05-16T11:43:29Z</time>
      </trkpt>
      <trkpt lat="41.3606530" lon="-8.7575080">
        <ele>8.7</ele>
        <time>2021-05-16T11:43:30Z</time>
      </trkpt>
      <trkpt lat="41.3606580" lon="-8.7574990">
        <ele>8.7</ele>
        <time>2021-05-16T11:43:31Z</time>
      </trkpt>
      <trkpt lat="41.3606580" lon="-8.7574950">
        <ele>8.7</ele>
        <time>2021-05-16T11:43:32Z</time>
      </trkpt>
      <trkpt lat="41.3606540" lon="-8.7575110">
        <ele>8.7</ele>
        <time>2021-05-16T11:43:33Z</time>
      </trkpt>
      <trkpt lat="41.3606510" lon="-8.7575190">
        <ele>8.7</ele>
        <time>2021-05-16T11:43:34Z</time>
      </trkpt>
      <trkpt lat="41.3606510" lon="-8.7575220">
        <ele>8.7</ele>
        <time>2021-05-16T11:43:35Z</time>
      </trkpt>
      <trkpt lat="41.3606460" lon="-8.7575290">
        <ele>8.7</ele>
        <time>2021-05-16T11:43:36Z</time>
      </trkpt>
      <trkpt lat="41.3606420" lon="-8.7575400">
        <ele>8.7</ele>
        <time>2021-05-16T11:43:37Z</time>
      </trkpt>
      <trkpt lat="41.3606380" lon="-8.7575480">
        <ele>8.7</ele>
        <time>2021-05-16T11:43:38Z</time>
      </trkpt>
      <trkpt lat="41.3606380" lon="-8.7575500">
        <ele>8.6</ele>
        <time>2021-05-16T11:43:39Z</time>
      </trkpt>
      <trkpt lat="41.3606380" lon="-8.7575500">
        <ele>8.6</ele>
        <time>2021-05-16T11:43:40Z</time>
      </trkpt>
      <trkpt lat="41.3606360" lon="-8.7575510">
        <ele>8.6</ele>
        <time>2021-05-16T11:43:41Z</time>
      </trkpt>
      <trkpt lat="41.3606350" lon="-8.7575520">
        <ele>8.6</ele>
        <time>2021-05-16T11:43:42Z</time>
      </trkpt>
      <trkpt lat="41.3606330" lon="-8.7575520">
        <ele>8.6</ele>
        <time>2021-05-16T11:43:43Z</time>
      </trkpt>
      <trkpt lat="41.3606320" lon="-8.7575550">
        <ele>8.6</ele>
        <time>2021-05-16T11:43:44Z</time>
      </trkpt>
      <trkpt lat="41.3606320" lon="-8.7575550">
        <ele>8.6</ele>
        <time>2021-05-16T11:43:45Z</time>
      </trkpt>
      <trkpt lat="41.3606270" lon="-8.7575600">
        <ele>8.6</ele>
        <time>2021-05-16T11:43:46Z</time>
      </trkpt>
      <trkpt lat="41.3606280" lon="-8.7575600">
        <ele>8.6</ele>
        <time>2021-05-16T11:43:47Z</time>
      </trkpt>
      <trkpt lat="41.3606280" lon="-8.7575600">
        <ele>8.6</ele>
        <time>2021-05-16T11:43:48Z</time>
      </trkpt>
      <trkpt lat="41.3606220" lon="-8.7575710">
        <ele>8.6</ele>
        <time>2021-05-16T11:43:49Z</time>
      </trkpt>
      <trkpt lat="41.3606210" lon="-8.7575710">
        <ele>8.6</ele>
        <time>2021-05-16T11:43:50Z</time>
      </trkpt>
      <trkpt lat="41.3606220" lon="-8.7575760">
        <ele>8.6</ele>
        <time>2021-05-16T11:43:51Z</time>
      </trkpt>
      <trkpt lat="41.3606220" lon="-8.7575790">
        <ele>8.6</ele>
        <time>2021-05-16T11:43:52Z</time>
      </trkpt>
      <trkpt lat="41.3606200" lon="-8.7575830">
        <ele>8.6</ele>
        <time>2021-05-16T11:43:53Z</time>
      </trkpt>
      <trkpt lat="41.3606150" lon="-8.7575860">
        <ele>8.6</ele>
        <time>2021-05-16T11:43:54Z</time>
      </trkpt>
      <trkpt lat="41.3606120" lon="-8.7575910">
        <ele>8.6</ele>
        <time>2021-05-16T11:43:55Z</time>
      </trkpt>
      <trkpt lat="41.3606100" lon="-8.7575910">
        <ele>8.6</ele>
        <time>2021-05-16T11:43:56Z</time>
      </trkpt>
      <trkpt lat="41.3606100" lon="-8.7575920">
        <ele>8.6</ele>
        <time>2021-05-16T11:43:57Z</time>
      </trkpt>
      <trkpt lat="41.3606100" lon="-8.7575930">
        <ele>8.6</ele>
        <time>2021-05-16T11:43:58Z</time>
      </trkpt>
      <trkpt lat="41.3606110" lon="-8.7575920">
        <ele>8.6</ele>
        <time>2021-05-16T11:43:59Z</time>
      </trkpt>
      <trkpt lat="41.3606100" lon="-8.7575930">
        <ele>8.6</ele>
        <time>2021-05-16T11:44:00Z</time>
      </trkpt>
      <trkpt lat="41.3606080" lon="-8.7575960">
        <ele>8.6</ele>
        <time>2021-05-16T11:44:01Z</time>
      </trkpt>
      <trkpt lat="41.3606060" lon="-8.7575980">
        <ele>8.6</ele>
        <time>2021-05-16T11:44:02Z</time>
      </trkpt>
      <trkpt lat="41.3606080" lon="-8.7575950">
        <ele>8.6</ele>
        <time>2021-05-16T11:44:03Z</time>
      </trkpt>
      <trkpt lat="41.3606050" lon="-8.7575970">
        <ele>8.6</ele>
        <time>2021-05-16T11:44:04Z</time>
      </trkpt>
      <trkpt lat="41.3606050" lon="-8.7575930">
        <ele>8.6</ele>
        <time>2021-05-16T11:44:05Z</time>
      </trkpt>
      <trkpt lat="41.3606030" lon="-8.7575920">
        <ele>8.6</ele>
        <time>2021-05-16T11:44:06Z</time>
      </trkpt>
      <trkpt lat="41.3606040" lon="-8.7575910">
        <ele>8.6</ele>
        <time>2021-05-16T11:44:07Z</time>
      </trkpt>
      <trkpt lat="41.3606060" lon="-8.7575910">
        <ele>8.6</ele>
        <time>2021-05-16T11:44:08Z</time>
      </trkpt>
      <trkpt lat="41.3606070" lon="-8.7575900">
        <ele>8.6</ele>
        <time>2021-05-16T11:44:09Z</time>
      </trkpt>
      <trkpt lat="41.3606050" lon="-8.7575910">
        <ele>8.6</ele>
        <time>2021-05-16T11:44:10Z</time>
      </trkpt>
      <trkpt lat="41.3606060" lon="-8.7575880">
        <ele>8.6</ele>
        <time>2021-05-16T11:44:11Z</time>
      </trkpt>
      <trkpt lat="41.3606070" lon="-8.7575820">
        <ele>8.6</ele>
        <time>2021-05-16T11:44:12Z</time>
      </trkpt>
      <trkpt lat="41.3606080" lon="-8.7575790">
        <ele>8.6</ele>
        <time>2021-05-16T11:44:13Z</time>
      </trkpt>
      <trkpt lat="41.3606090" lon="-8.7575790">
        <ele>8.6</ele>
        <time>2021-05-16T11:44:14Z</time>
      </trkpt>
      <trkpt lat="41.3606090" lon="-8.7575760">
        <ele>8.6</ele>
        <time>2021-05-16T11:44:15Z</time>
      </trkpt>
      <trkpt lat="41.3606090" lon="-8.7575750">
        <ele>8.6</ele>
        <time>2021-05-16T11:44:16Z</time>
      </trkpt>
      <trkpt lat="41.3606080" lon="-8.7575750">
        <ele>8.6</ele>
        <time>2021-05-16T11:44:17Z</time>
      </trkpt>
      <trkpt lat="41.3606060" lon="-8.7575780">
        <ele>8.6</ele>
        <time>2021-05-16T11:44:18Z</time>
      </trkpt>
      <trkpt lat="41.3606070" lon="-8.7575760">
        <ele>8.6</ele>
        <time>2021-05-16T11:44:19Z</time>
      </trkpt>
      <trkpt lat="41.3606090" lon="-8.7575750">
        <ele>8.6</ele>
        <time>2021-05-16T11:44:20Z</time>
      </trkpt>
      <trkpt lat="41.3606080" lon="-8.7575780">
        <ele>8.6</ele>
        <time>2021-05-16T11:44:21Z</time>
      </trkpt>
      <trkpt lat="41.3606080" lon="-8.7575790">
        <ele>8.6</ele>
        <time>2021-05-16T11:44:22Z</time>
      </trkpt>
      <trkpt lat="41.3606100" lon="-8.7575760">
        <ele>8.6</ele>
        <time>2021-05-16T11:44:23Z</time>
      </trkpt>
      <trkpt lat="41.3606130" lon="-8.7575720">
        <ele>8.6</ele>
        <time>2021-05-16T11:44:24Z</time>
      </trkpt>
      <trkpt lat="41.3606130" lon="-8.7575700">
        <ele>8.6</ele>
        <time>2021-05-16T11:44:25Z</time>
      </trkpt>
      <trkpt lat="41.3606130" lon="-8.7575700">
        <ele>8.6</ele>
        <time>2021-05-16T11:44:26Z</time>
      </trkpt>
      <trkpt lat="41.3606150" lon="-8.7575690">
        <ele>8.6</ele>
        <time>2021-05-16T11:44:27Z</time>
      </trkpt>
      <trkpt lat="41.3606090" lon="-8.7575700">
        <ele>8.6</ele>
        <time>2021-05-16T11:44:28Z</time>
      </trkpt>
      <trkpt lat="41.3606120" lon="-8.7575690">
        <ele>8.6</ele>
        <time>2021-05-16T11:44:29Z</time>
      </trkpt>
      <trkpt lat="41.3606130" lon="-8.7575620">
        <ele>8.6</ele>
        <time>2021-05-16T11:44:30Z</time>
      </trkpt>
      <trkpt lat="41.3606140" lon="-8.7575600">
        <ele>8.6</ele>
        <time>2021-05-16T11:44:31Z</time>
      </trkpt>
      <trkpt lat="41.3606160" lon="-8.7575590">
        <ele>8.6</ele>
        <time>2021-05-16T11:44:32Z</time>
      </trkpt>
      <trkpt lat="41.3606180" lon="-8.7575560">
        <ele>8.6</ele>
        <time>2021-05-16T11:44:33Z</time>
      </trkpt>
      <trkpt lat="41.3606150" lon="-8.7575590">
        <ele>8.6</ele>
        <time>2021-05-16T11:44:34Z</time>
      </trkpt>
      <trkpt lat="41.3606150" lon="-8.7575610">
        <ele>8.6</ele>
        <time>2021-05-16T11:44:35Z</time>
      </trkpt>
      <trkpt lat="41.3606120" lon="-8.7575620">
        <ele>8.6</ele>
        <time>2021-05-16T11:44:36Z</time>
      </trkpt>
      <trkpt lat="41.3606130" lon="-8.7575610">
        <ele>8.6</ele>
        <time>2021-05-16T11:44:37Z</time>
      </trkpt>
      <trkpt lat="41.3606160" lon="-8.7575560">
        <ele>8.6</ele>
        <time>2021-05-16T11:44:38Z</time>
      </trkpt>
      <trkpt lat="41.3606190" lon="-8.7575480">
        <ele>8.6</ele>
        <time>2021-05-16T11:44:39Z</time>
      </trkpt>
      <trkpt lat="41.3606210" lon="-8.7575470">
        <ele>8.6</ele>
        <time>2021-05-16T11:44:40Z</time>
      </trkpt>
      <trkpt lat="41.3606220" lon="-8.7575480">
        <ele>8.6</ele>
        <time>2021-05-16T11:44:41Z</time>
      </trkpt>
      <trkpt lat="41.3606240" lon="-8.7575430">
        <ele>8.6</ele>
        <time>2021-05-16T11:44:42Z</time>
      </trkpt>
      <trkpt lat="41.3606280" lon="-8.7575400">
        <ele>8.6</ele>
        <time>2021-05-16T11:44:43Z</time>
      </trkpt>
      <trkpt lat="41.3606280" lon="-8.7575400">
        <ele>8.6</ele>
        <time>2021-05-16T11:44:44Z</time>
      </trkpt>
      <trkpt lat="41.3606290" lon="-8.7575390">
        <ele>8.6</ele>
        <time>2021-05-16T11:44:45Z</time>
      </trkpt>
      <trkpt lat="41.3606290" lon="-8.7575390">
        <ele>8.6</ele>
        <time>2021-05-16T11:44:46Z</time>
      </trkpt>
      <trkpt lat="41.3606300" lon="-8.7575380">
        <ele>8.6</ele>
        <time>2021-05-16T11:44:47Z</time>
      </trkpt>
      <trkpt lat="41.3606300" lon="-8.7575370">
        <ele>8.6</ele>
        <time>2021-05-16T11:44:48Z</time>
      </trkpt>
      <trkpt lat="41.3606310" lon="-8.7575370">
        <ele>8.6</ele>
        <time>2021-05-16T11:44:49Z</time>
      </trkpt>
      <trkpt lat="41.3606310" lon="-8.7575360">
        <ele>8.6</ele>
        <time>2021-05-16T11:44:50Z</time>
      </trkpt>
      <trkpt lat="41.3606320" lon="-8.7575350">
        <ele>8.6</ele>
        <time>2021-05-16T11:44:51Z</time>
      </trkpt>
      <trkpt lat="41.3606330" lon="-8.7575350">
        <ele>8.6</ele>
        <time>2021-05-16T11:44:52Z</time>
      </trkpt>
      <trkpt lat="41.3606330" lon="-8.7575340">
        <ele>8.6</ele>
        <time>2021-05-16T11:44:53Z</time>
      </trkpt>
      <trkpt lat="41.3606340" lon="-8.7575340">
        <ele>8.6</ele>
        <time>2021-05-16T11:44:54Z</time>
      </trkpt>
      <trkpt lat="41.3606340" lon="-8.7575330">
        <ele>8.6</ele>
        <time>2021-05-16T11:44:55Z</time>
      </trkpt>
      <trkpt lat="41.3606350" lon="-8.7575320">
        <ele>8.6</ele>
        <time>2021-05-16T11:44:56Z</time>
      </trkpt>
      <trkpt lat="41.3606350" lon="-8.7575320">
        <ele>8.6</ele>
        <time>2021-05-16T11:44:57Z</time>
      </trkpt>
      <trkpt lat="41.3606360" lon="-8.7575310">
        <ele>8.6</ele>
        <time>2021-05-16T11:44:58Z</time>
      </trkpt>
      <trkpt lat="41.3606370" lon="-8.7575310">
        <ele>8.6</ele>
        <time>2021-05-16T11:44:59Z</time>
      </trkpt>
      <trkpt lat="41.3606370" lon="-8.7575300">
        <ele>8.6</ele>
        <time>2021-05-16T11:45:00Z</time>
      </trkpt>
      <trkpt lat="41.3606380" lon="-8.7575290">
        <ele>8.6</ele>
        <time>2021-05-16T11:45:01Z</time>
      </trkpt>
      <trkpt lat="41.3606380" lon="-8.7575290">
        <ele>8.6</ele>
        <time>2021-05-16T11:45:02Z</time>
      </trkpt>
      <trkpt lat="41.3606390" lon="-8.7575280">
        <ele>8.6</ele>
        <time>2021-05-16T11:45:03Z</time>
      </trkpt>
      <trkpt lat="41.3606390" lon="-8.7575270">
        <ele>8.6</ele>
        <time>2021-05-16T11:45:04Z</time>
      </trkpt>
      <trkpt lat="41.3606400" lon="-8.7575270">
        <ele>8.6</ele>
        <time>2021-05-16T11:45:05Z</time>
      </trkpt>
      <trkpt lat="41.3606400" lon="-8.7575260">
        <ele>8.6</ele>
        <time>2021-05-16T11:45:06Z</time>
      </trkpt>
      <trkpt lat="41.3606410" lon="-8.7575260">
        <ele>8.6</ele>
        <time>2021-05-16T11:45:07Z</time>
      </trkpt>
      <trkpt lat="41.3606420" lon="-8.7575250">
        <ele>8.6</ele>
        <time>2021-05-16T11:45:08Z</time>
      </trkpt>
      <trkpt lat="41.3606420" lon="-8.7575240">
        <ele>8.6</ele>
        <time>2021-05-16T11:45:09Z</time>
      </trkpt>
      <trkpt lat="41.3606430" lon="-8.7575240">
        <ele>8.6</ele>
        <time>2021-05-16T11:45:10Z</time>
      </trkpt>
      <trkpt lat="41.3606430" lon="-8.7575230">
        <ele>8.6</ele>
        <time>2021-05-16T11:45:11Z</time>
      </trkpt>
      <trkpt lat="41.3606440" lon="-8.7575230">
        <ele>8.6</ele>
        <time>2021-05-16T11:45:12Z</time>
      </trkpt>
      <trkpt lat="41.3606440" lon="-8.7575220">
        <ele>8.6</ele>
        <time>2021-05-16T11:45:13Z</time>
      </trkpt>
      <trkpt lat="41.3606450" lon="-8.7575210">
        <ele>8.6</ele>
        <time>2021-05-16T11:45:14Z</time>
      </trkpt>
      <trkpt lat="41.3606460" lon="-8.7575210">
        <ele>8.6</ele>
        <time>2021-05-16T11:45:15Z</time>
      </trkpt>
      <trkpt lat="41.3606460" lon="-8.7575200">
        <ele>8.6</ele>
        <time>2021-05-16T11:45:16Z</time>
      </trkpt>
      <trkpt lat="41.3606470" lon="-8.7575200">
        <ele>8.6</ele>
        <time>2021-05-16T11:45:17Z</time>
      </trkpt>
      <trkpt lat="41.3606470" lon="-8.7575190">
        <ele>8.6</ele>
        <time>2021-05-16T11:45:18Z</time>
      </trkpt>
      <trkpt lat="41.3606480" lon="-8.7575180">
        <ele>8.6</ele>
        <time>2021-05-16T11:45:19Z</time>
      </trkpt>
      <trkpt lat="41.3606480" lon="-8.7575180">
        <ele>8.6</ele>
        <time>2021-05-16T11:45:20Z</time>
      </trkpt>
      <trkpt lat="41.3606490" lon="-8.7575170">
        <ele>8.6</ele>
        <time>2021-05-16T11:45:21Z</time>
      </trkpt>
      <trkpt lat="41.3606490" lon="-8.7575160">
        <ele>8.6</ele>
        <time>2021-05-16T11:45:22Z</time>
      </trkpt>
      <trkpt lat="41.3606500" lon="-8.7575160">
        <ele>8.6</ele>
        <time>2021-05-16T11:45:23Z</time>
      </trkpt>
      <trkpt lat="41.3606510" lon="-8.7575150">
        <ele>8.6</ele>
        <time>2021-05-16T11:45:24Z</time>
      </trkpt>
      <trkpt lat="41.3606510" lon="-8.7575150">
        <ele>8.6</ele>
        <time>2021-05-16T11:45:25Z</time>
      </trkpt>
      <trkpt lat="41.3606520" lon="-8.7575140">
        <ele>8.6</ele>
        <time>2021-05-16T11:45:26Z</time>
      </trkpt>
      <trkpt lat="41.3606520" lon="-8.7575130">
        <ele>8.6</ele>
        <time>2021-05-16T11:45:27Z</time>
      </trkpt>
      <trkpt lat="41.3606530" lon="-8.7575130">
        <ele>8.6</ele>
        <time>2021-05-16T11:45:28Z</time>
      </trkpt>
      <trkpt lat="41.3606530" lon="-8.7575120">
        <ele>8.6</ele>
        <time>2021-05-16T11:45:29Z</time>
      </trkpt>
      <trkpt lat="41.3606540" lon="-8.7575120">
        <ele>8.6</ele>
        <time>2021-05-16T11:45:30Z</time>
      </trkpt>
      <trkpt lat="41.3606550" lon="-8.7575110">
        <ele>8.6</ele>
        <time>2021-05-16T11:45:31Z</time>
      </trkpt>
      <trkpt lat="41.3606550" lon="-8.7575100">
        <ele>8.6</ele>
        <time>2021-05-16T11:45:32Z</time>
      </trkpt>
      <trkpt lat="41.3606560" lon="-8.7575100">
        <ele>8.6</ele>
        <time>2021-05-16T11:45:33Z</time>
      </trkpt>
      <trkpt lat="41.3606560" lon="-8.7575090">
        <ele>8.6</ele>
        <time>2021-05-16T11:45:34Z</time>
      </trkpt>
      <trkpt lat="41.3606570" lon="-8.7575080">
        <ele>8.6</ele>
        <time>2021-05-16T11:45:35Z</time>
      </trkpt>
      <trkpt lat="41.3606570" lon="-8.7575080">
        <ele>8.6</ele>
        <time>2021-05-16T11:45:36Z</time>
      </trkpt>
      <trkpt lat="41.3606580" lon="-8.7575070">
        <ele>8.6</ele>
        <time>2021-05-16T11:45:37Z</time>
      </trkpt>
      <trkpt lat="41.3606580" lon="-8.7575070">
        <ele>8.6</ele>
        <time>2021-05-16T11:45:38Z</time>
      </trkpt>
      <trkpt lat="41.3606590" lon="-8.7575060">
        <ele>8.6</ele>
        <time>2021-05-16T11:45:39Z</time>
      </trkpt>
      <trkpt lat="41.3606580" lon="-8.7575060">
        <ele>8.6</ele>
        <time>2021-05-16T11:45:40Z</time>
      </trkpt>
      <trkpt lat="41.3606590" lon="-8.7575060">
        <ele>8.6</ele>
        <time>2021-05-16T11:45:41Z</time>
      </trkpt>
      <trkpt lat="41.3606590" lon="-8.7575070">
        <ele>8.6</ele>
        <time>2021-05-16T11:45:42Z</time>
      </trkpt>
      <trkpt lat="41.3606590" lon="-8.7575070">
        <ele>8.6</ele>
        <time>2021-05-16T11:45:43Z</time>
      </trkpt>
      <trkpt lat="41.3606590" lon="-8.7575070">
        <ele>8.6</ele>
        <time>2021-05-16T11:45:44Z</time>
      </trkpt>
      <trkpt lat="41.3606590" lon="-8.7575070">
        <ele>8.6</ele>
        <time>2021-05-16T11:45:45Z</time>
      </trkpt>
      <trkpt lat="41.3606590" lon="-8.7575070">
        <ele>8.6</ele>
        <time>2021-05-16T11:45:46Z</time>
      </trkpt>
      <trkpt lat="41.3606620" lon="-8.7575070">
        <ele>8.6</ele>
        <time>2021-05-16T11:45:47Z</time>
      </trkpt>
      <trkpt lat="41.3606670" lon="-8.7575010">
        <ele>8.6</ele>
        <time>2021-05-16T11:45:48Z</time>
      </trkpt>
      <trkpt lat="41.3606660" lon="-8.7575020">
        <ele>8.6</ele>
        <time>2021-05-16T11:45:49Z</time>
      </trkpt>
      <trkpt lat="41.3606670" lon="-8.7575020">
        <ele>8.6</ele>
        <time>2021-05-16T11:45:50Z</time>
      </trkpt>
      <trkpt lat="41.3606670" lon="-8.7575020">
        <ele>8.6</ele>
        <time>2021-05-16T11:45:51Z</time>
      </trkpt>
      <trkpt lat="41.3606670" lon="-8.7575020">
        <ele>8.6</ele>
        <time>2021-05-16T11:45:52Z</time>
      </trkpt>
      <trkpt lat="41.3606670" lon="-8.7575020">
        <ele>8.6</ele>
        <time>2021-05-16T11:45:53Z</time>
      </trkpt>
      <trkpt lat="41.3606670" lon="-8.7575020">
        <ele>8.6</ele>
        <time>2021-05-16T11:45:54Z</time>
      </trkpt>
      <trkpt lat="41.3606670" lon="-8.7575020">
        <ele>8.6</ele>
        <time>2021-05-16T11:45:55Z</time>
      </trkpt>
      <trkpt lat="41.3606670" lon="-8.7575020">
        <ele>8.6</ele>
        <time>2021-05-16T11:45:56Z</time>
      </trkpt>
      <trkpt lat="41.3606670" lon="-8.7575020">
        <ele>8.6</ele>
        <time>2021-05-16T11:45:57Z</time>
      </trkpt>
      <trkpt lat="41.3606670" lon="-8.7575020">
        <ele>8.6</ele>
        <time>2021-05-16T11:45:58Z</time>
      </trkpt>
      <trkpt lat="41.3606670" lon="-8.7575020">
        <ele>8.6</ele>
        <time>2021-05-16T11:45:59Z</time>
      </trkpt>
      <trkpt lat="41.3606670" lon="-8.7575020">
        <ele>8.6</ele>
        <time>2021-05-16T11:46:00Z</time>
      </trkpt>
      <trkpt lat="41.3606670" lon="-8.7575020">
        <ele>8.6</ele>
        <time>2021-05-16T11:46:01Z</time>
      </trkpt>
      <trkpt lat="41.3606670" lon="-8.7575020">
        <ele>8.6</ele>
        <time>2021-05-16T11:46:02Z</time>
      </trkpt>
      <trkpt lat="41.3606670" lon="-8.7575020">
        <ele>8.6</ele>
        <time>2021-05-16T11:46:03Z</time>
      </trkpt>
      <trkpt lat="41.3606670" lon="-8.7575020">
        <ele>8.6</ele>
        <time>2021-05-16T11:46:04Z</time>
      </trkpt>
      <trkpt lat="41.3606670" lon="-8.7575020">
        <ele>8.6</ele>
        <time>2021-05-16T11:46:05Z</time>
      </trkpt>
      <trkpt lat="41.3606670" lon="-8.7575020">
        <ele>8.6</ele>
        <time>2021-05-16T11:46:06Z</time>
      </trkpt>
      <trkpt lat="41.3606670" lon="-8.7575020">
        <ele>8.6</ele>
        <time>2021-05-16T11:46:07Z</time>
      </trkpt>
      <trkpt lat="41.3606670" lon="-8.7575020">
        <ele>8.6</ele>
        <time>2021-05-16T11:46:08Z</time>
      </trkpt>
      <trkpt lat="41.3606670" lon="-8.7575020">
        <ele>8.6</ele>
        <time>2021-05-16T11:46:09Z</time>
      </trkpt>
      <trkpt lat="41.3606670" lon="-8.7575020">
        <ele>8.6</ele>
        <time>2021-05-16T11:46:10Z</time>
      </trkpt>
      <trkpt lat="41.3606670" lon="-8.7575020">
        <ele>8.6</ele>
        <time>2021-05-16T11:46:11Z</time>
      </trkpt>
      <trkpt lat="41.3606670" lon="-8.7575020">
        <ele>8.6</ele>
        <time>2021-05-16T11:46:12Z</time>
      </trkpt>
      <trkpt lat="41.3606670" lon="-8.7575020">
        <ele>8.6</ele>
        <time>2021-05-16T11:46:13Z</time>
      </trkpt>
      <trkpt lat="41.3606670" lon="-8.7575020">
        <ele>8.6</ele>
        <time>2021-05-16T11:46:14Z</time>
      </trkpt>
      <trkpt lat="41.3606670" lon="-8.7575020">
        <ele>8.6</ele>
        <time>2021-05-16T11:46:15Z</time>
      </trkpt>
      <trkpt lat="41.3606670" lon="-8.7575020">
        <ele>8.6</ele>
        <time>2021-05-16T11:46:16Z</time>
      </trkpt>
      <trkpt lat="41.3606670" lon="-8.7575020">
        <ele>8.6</ele>
        <time>2021-05-16T11:46:17Z</time>
      </trkpt>
      <trkpt lat="41.3606670" lon="-8.7575020">
        <ele>8.6</ele>
        <time>2021-05-16T11:46:18Z</time>
      </trkpt>
      <trkpt lat="41.3606670" lon="-8.7575020">
        <ele>8.6</ele>
        <time>2021-05-16T11:46:19Z</time>
      </trkpt>
      <trkpt lat="41.3606670" lon="-8.7575020">
        <ele>8.6</ele>
        <time>2021-05-16T11:46:20Z</time>
      </trkpt>
      <trkpt lat="41.3606670" lon="-8.7575020">
        <ele>8.6</ele>
        <time>2021-05-16T11:46:21Z</time>
      </trkpt>
      <trkpt lat="41.3606670" lon="-8.7575020">
        <ele>8.6</ele>
        <time>2021-05-16T11:46:22Z</time>
      </trkpt>
      <trkpt lat="41.3606670" lon="-8.7575020">
        <ele>8.6</ele>
        <time>2021-05-16T11:46:23Z</time>
      </trkpt>
      <trkpt lat="41.3606670" lon="-8.7575020">
        <ele>8.6</ele>
        <time>2021-05-16T11:46:24Z</time>
      </trkpt>
      <trkpt lat="41.3606670" lon="-8.7575020">
        <ele>8.6</ele>
        <time>2021-05-16T11:46:25Z</time>
      </trkpt>
      <trkpt lat="41.3606670" lon="-8.7575020">
        <ele>8.6</ele>
        <time>2021-05-16T11:46:26Z</time>
      </trkpt>
      <trkpt lat="41.3606670" lon="-8.7575020">
        <ele>8.6</ele>
        <time>2021-05-16T11:46:27Z</time>
      </trkpt>
      <trkpt lat="41.3606670" lon="-8.7575020">
        <ele>8.6</ele>
        <time>2021-05-16T11:46:28Z</time>
      </trkpt>
      <trkpt lat="41.3606670" lon="-8.7575020">
        <ele>8.6</ele>
        <time>2021-05-16T11:46:30Z</time>
      </trkpt>
      <trkpt lat="41.3606670" lon="-8.7575020">
        <ele>8.6</ele>
        <time>2021-05-16T11:46:31Z</time>
      </trkpt>
      <trkpt lat="41.3606670" lon="-8.7575020">
        <ele>8.6</ele>
        <time>2021-05-16T11:46:32Z</time>
      </trkpt>
      <trkpt lat="41.3606670" lon="-8.7575020">
        <ele>8.6</ele>
        <time>2021-05-16T11:46:33Z</time>
      </trkpt>
      <trkpt lat="41.3606670" lon="-8.7575020">
        <ele>8.6</ele>
        <time>2021-05-16T11:46:34Z</time>
      </trkpt>
      <trkpt lat="41.3606670" lon="-8.7575020">
        <ele>8.6</ele>
        <time>2021-05-16T11:46:35Z</time>
      </trkpt>
      <trkpt lat="41.3606670" lon="-8.7575020">
        <ele>8.6</ele>
        <time>2021-05-16T11:46:36Z</time>
      </trkpt>
      <trkpt lat="41.3606670" lon="-8.7575020">
        <ele>8.6</ele>
        <time>2021-05-16T11:46:37Z</time>
      </trkpt>
      <trkpt lat="41.3606670" lon="-8.7575020">
        <ele>8.6</ele>
        <time>2021-05-16T11:46:38Z</time>
      </trkpt>
      <trkpt lat="41.3606670" lon="-8.7575020">
        <ele>8.6</ele>
        <time>2021-05-16T11:46:39Z</time>
      </trkpt>
      <trkpt lat="41.3606670" lon="-8.7575020">
        <ele>8.6</ele>
        <time>2021-05-16T11:46:40Z</time>
      </trkpt>
      <trkpt lat="41.3606670" lon="-8.7575020">
        <ele>8.6</ele>
        <time>2021-05-16T11:46:41Z</time>
      </trkpt>
      <trkpt lat="41.3606670" lon="-8.7575020">
        <ele>8.6</ele>
        <time>2021-05-16T11:46:42Z</time>
      </trkpt>
      <trkpt lat="41.3606670" lon="-8.7575020">
        <ele>8.6</ele>
        <time>2021-05-16T11:46:43Z</time>
      </trkpt>
      <trkpt lat="41.3606670" lon="-8.7575020">
        <ele>8.6</ele>
        <time>2021-05-16T11:46:44Z</time>
      </trkpt>
      <trkpt lat="41.3606670" lon="-8.7575020">
        <ele>8.6</ele>
        <time>2021-05-16T11:46:45Z</time>
      </trkpt>
      <trkpt lat="41.3606670" lon="-8.7575020">
        <ele>8.6</ele>
        <time>2021-05-16T11:46:46Z</time>
      </trkpt>
      <trkpt lat="41.3606670" lon="-8.7575020">
        <ele>8.6</ele>
        <time>2021-05-16T11:46:47Z</time>
      </trkpt>
      <trkpt lat="41.3606670" lon="-8.7575020">
        <ele>8.6</ele>
        <time>2021-05-16T11:46:48Z</time>
      </trkpt>
      <trkpt lat="41.3606670" lon="-8.7575020">
        <ele>8.6</ele>
        <time>2021-05-16T11:46:49Z</time>
      </trkpt>
      <trkpt lat="41.3606670" lon="-8.7575020">
        <ele>8.6</ele>
        <time>2021-05-16T11:46:50Z</time>
      </trkpt>
      <trkpt lat="41.3606670" lon="-8.7575020">
        <ele>8.6</ele>
        <time>2021-05-16T11:46:51Z</time>
      </trkpt>
      <trkpt lat="41.3606670" lon="-8.7575020">
        <ele>8.6</ele>
        <time>2021-05-16T11:46:52Z</time>
      </trkpt>
      <trkpt lat="41.3606670" lon="-8.7575020">
        <ele>8.6</ele>
        <time>2021-05-16T11:46:53Z</time>
      </trkpt>
      <trkpt lat="41.3606670" lon="-8.7575020">
        <ele>8.6</ele>
        <time>2021-05-16T11:46:54Z</time>
      </trkpt>
      <trkpt lat="41.3606670" lon="-8.7575020">
        <ele>8.6</ele>
        <time>2021-05-16T11:46:55Z</time>
      </trkpt>
      <trkpt lat="41.3606670" lon="-8.7575020">
        <ele>8.6</ele>
        <time>2021-05-16T11:46:56Z</time>
      </trkpt>
      <trkpt lat="41.3606670" lon="-8.7575020">
        <ele>8.6</ele>
        <time>2021-05-16T11:46:57Z</time>
      </trkpt>
      <trkpt lat="41.3606670" lon="-8.7575020">
        <ele>8.6</ele>
        <time>2021-05-16T11:46:58Z</time>
      </trkpt>
      <trkpt lat="41.3606670" lon="-8.7575020">
        <ele>8.6</ele>
        <time>2021-05-16T11:46:59Z</time>
      </trkpt>
      <trkpt lat="41.3606670" lon="-8.7575020">
        <ele>8.6</ele>
        <time>2021-05-16T11:47:00Z</time>
      </trkpt>
      <trkpt lat="41.3606670" lon="-8.7575020">
        <ele>8.6</ele>
        <time>2021-05-16T11:47:01Z</time>
      </trkpt>
      <trkpt lat="41.3606670" lon="-8.7575020">
        <ele>8.6</ele>
        <time>2021-05-16T11:47:02Z</time>
      </trkpt>
      <trkpt lat="41.3606670" lon="-8.7575020">
        <ele>8.6</ele>
        <time>2021-05-16T11:47:03Z</time>
      </trkpt>
      <trkpt lat="41.3606670" lon="-8.7575020">
        <ele>8.6</ele>
        <time>2021-05-16T11:47:04Z</time>
      </trkpt>
      <trkpt lat="41.3606670" lon="-8.7575020">
        <ele>8.6</ele>
        <time>2021-05-16T11:47:05Z</time>
      </trkpt>
      <trkpt lat="41.3606670" lon="-8.7575020">
        <ele>8.6</ele>
        <time>2021-05-16T11:47:06Z</time>
      </trkpt>
      <trkpt lat="41.3606670" lon="-8.7575020">
        <ele>8.6</ele>
        <time>2021-05-16T11:47:07Z</time>
      </trkpt>
      <trkpt lat="41.3606670" lon="-8.7575020">
        <ele>8.6</ele>
        <time>2021-05-16T11:47:08Z</time>
      </trkpt>
      <trkpt lat="41.3606670" lon="-8.7575020">
        <ele>8.6</ele>
        <time>2021-05-16T11:47:09Z</time>
      </trkpt>
      <trkpt lat="41.3606670" lon="-8.7575020">
        <ele>8.6</ele>
        <time>2021-05-16T11:47:10Z</time>
      </trkpt>
      <trkpt lat="41.3606670" lon="-8.7575020">
        <ele>8.6</ele>
        <time>2021-05-16T11:47:11Z</time>
      </trkpt>
      <trkpt lat="41.3606670" lon="-8.7575020">
        <ele>8.6</ele>
        <time>2021-05-16T11:47:12Z</time>
      </trkpt>
      <trkpt lat="41.3606670" lon="-8.7575020">
        <ele>8.6</ele>
        <time>2021-05-16T11:47:13Z</time>
      </trkpt>
      <trkpt lat="41.3606670" lon="-8.7575020">
        <ele>8.6</ele>
        <time>2021-05-16T11:47:14Z</time>
      </trkpt>
      <trkpt lat="41.3606670" lon="-8.7575020">
        <ele>8.6</ele>
        <time>2021-05-16T11:47:15Z</time>
      </trkpt>
      <trkpt lat="41.3606670" lon="-8.7575020">
        <ele>8.6</ele>
        <time>2021-05-16T11:47:16Z</time>
      </trkpt>
      <trkpt lat="41.3606670" lon="-8.7575020">
        <ele>8.6</ele>
        <time>2021-05-16T11:47:17Z</time>
      </trkpt>
      <trkpt lat="41.3606670" lon="-8.7575020">
        <ele>8.6</ele>
        <time>2021-05-16T11:47:18Z</time>
      </trkpt>
      <trkpt lat="41.3606670" lon="-8.7575020">
        <ele>8.6</ele>
        <time>2021-05-16T11:47:19Z</time>
      </trkpt>
      <trkpt lat="41.3606670" lon="-8.7575020">
        <ele>8.6</ele>
        <time>2021-05-16T11:47:20Z</time>
      </trkpt>
      <trkpt lat="41.3606670" lon="-8.7575020">
        <ele>8.6</ele>
        <time>2021-05-16T11:47:21Z</time>
      </trkpt>
      <trkpt lat="41.3606670" lon="-8.7575020">
        <ele>8.6</ele>
        <time>2021-05-16T11:47:22Z</time>
      </trkpt>
      <trkpt lat="41.3606670" lon="-8.7575020">
        <ele>8.6</ele>
        <time>2021-05-16T11:47:23Z</time>
      </trkpt>
      <trkpt lat="41.3606670" lon="-8.7575020">
        <ele>8.6</ele>
        <time>2021-05-16T11:47:24Z</time>
      </trkpt>
      <trkpt lat="41.3606670" lon="-8.7575020">
        <ele>8.6</ele>
        <time>2021-05-16T11:47:25Z</time>
      </trkpt>
      <trkpt lat="41.3606670" lon="-8.7575020">
        <ele>8.6</ele>
        <time>2021-05-16T11:47:26Z</time>
      </trkpt>
      <trkpt lat="41.3606670" lon="-8.7575020">
        <ele>8.6</ele>
        <time>2021-05-16T11:47:27Z</time>
      </trkpt>
      <trkpt lat="41.3606670" lon="-8.7575020">
        <ele>8.6</ele>
        <time>2021-05-16T11:47:28Z</time>
      </trkpt>
      <trkpt lat="41.3606670" lon="-8.7575020">
        <ele>8.6</ele>
        <time>2021-05-16T11:47:29Z</time>
      </trkpt>
      <trkpt lat="41.3606670" lon="-8.7575020">
        <ele>8.6</ele>
        <time>2021-05-16T11:47:30Z</time>
      </trkpt>
      <trkpt lat="41.3606670" lon="-8.7575020">
        <ele>8.6</ele>
        <time>2021-05-16T11:47:31Z</time>
      </trkpt>
      <trkpt lat="41.3606670" lon="-8.7575020">
        <ele>8.6</ele>
        <time>2021-05-16T11:47:32Z</time>
      </trkpt>
      <trkpt lat="41.3606670" lon="-8.7575020">
        <ele>8.6</ele>
        <time>2021-05-16T11:47:33Z</time>
      </trkpt>
      <trkpt lat="41.3606670" lon="-8.7575020">
        <ele>8.6</ele>
        <time>2021-05-16T11:47:34Z</time>
      </trkpt>
      <trkpt lat="41.3606670" lon="-8.7575020">
        <ele>8.6</ele>
        <time>2021-05-16T11:47:35Z</time>
      </trkpt>
      <trkpt lat="41.3606670" lon="-8.7575020">
        <ele>8.6</ele>
        <time>2021-05-16T11:47:36Z</time>
      </trkpt>
      <trkpt lat="41.3606670" lon="-8.7575020">
        <ele>8.6</ele>
        <time>2021-05-16T11:47:37Z</time>
      </trkpt>
      <trkpt lat="41.3606670" lon="-8.7575020">
        <ele>8.6</ele>
        <time>2021-05-16T11:47:38Z</time>
      </trkpt>
      <trkpt lat="41.3606670" lon="-8.7575020">
        <ele>8.6</ele>
        <time>2021-05-16T11:47:39Z</time>
      </trkpt>
      <trkpt lat="41.3606670" lon="-8.7575020">
        <ele>8.6</ele>
        <time>2021-05-16T11:47:40Z</time>
      </trkpt>
      <trkpt lat="41.3606670" lon="-8.7575020">
        <ele>8.6</ele>
        <time>2021-05-16T11:47:41Z</time>
      </trkpt>
      <trkpt lat="41.3606670" lon="-8.7575020">
        <ele>8.6</ele>
        <time>2021-05-16T11:47:42Z</time>
      </trkpt>
      <trkpt lat="41.3606670" lon="-8.7575020">
        <ele>8.6</ele>
        <time>2021-05-16T11:47:43Z</time>
      </trkpt>
      <trkpt lat="41.3606670" lon="-8.7575020">
        <ele>8.6</ele>
        <time>2021-05-16T11:47:44Z</time>
      </trkpt>
      <trkpt lat="41.3606670" lon="-8.7575020">
        <ele>8.6</ele>
        <time>2021-05-16T11:47:45Z</time>
      </trkpt>
      <trkpt lat="41.3606670" lon="-8.7575020">
        <ele>8.6</ele>
        <time>2021-05-16T11:47:46Z</time>
      </trkpt>
      <trkpt lat="41.3606670" lon="-8.7575020">
        <ele>8.6</ele>
        <time>2021-05-16T11:47:47Z</time>
      </trkpt>
      <trkpt lat="41.3606670" lon="-8.7575020">
        <ele>8.6</ele>
        <time>2021-05-16T11:47:48Z</time>
      </trkpt>
      <trkpt lat="41.3606670" lon="-8.7575020">
        <ele>8.6</ele>
        <time>2021-05-16T11:47:49Z</time>
      </trkpt>
      <trkpt lat="41.3606670" lon="-8.7575020">
        <ele>8.6</ele>
        <time>2021-05-16T11:47:50Z</time>
      </trkpt>
      <trkpt lat="41.3606670" lon="-8.7575020">
        <ele>8.6</ele>
        <time>2021-05-16T11:47:51Z</time>
      </trkpt>
      <trkpt lat="41.3606670" lon="-8.7575020">
        <ele>8.6</ele>
        <time>2021-05-16T11:47:52Z</time>
      </trkpt>
      <trkpt lat="41.3606670" lon="-8.7575020">
        <ele>8.6</ele>
        <time>2021-05-16T11:47:53Z</time>
      </trkpt>
      <trkpt lat="41.3606670" lon="-8.7575020">
        <ele>8.6</ele>
        <time>2021-05-16T11:47:54Z</time>
      </trkpt>
      <trkpt lat="41.3606670" lon="-8.7575020">
        <ele>8.6</ele>
        <time>2021-05-16T11:47:55Z</time>
      </trkpt>
      <trkpt lat="41.3606670" lon="-8.7575020">
        <ele>8.6</ele>
        <time>2021-05-16T11:47:56Z</time>
      </trkpt>
      <trkpt lat="41.3606670" lon="-8.7575020">
        <ele>8.6</ele>
        <time>2021-05-16T11:47:57Z</time>
      </trkpt>
      <trkpt lat="41.3606670" lon="-8.7575020">
        <ele>8.6</ele>
        <time>2021-05-16T11:47:58Z</time>
      </trkpt>
      <trkpt lat="41.3606670" lon="-8.7575020">
        <ele>8.6</ele>
        <time>2021-05-16T11:47:59Z</time>
      </trkpt>
      <trkpt lat="41.3606670" lon="-8.7575020">
        <ele>8.6</ele>
        <time>2021-05-16T11:48:00Z</time>
      </trkpt>
      <trkpt lat="41.3606670" lon="-8.7575020">
        <ele>8.6</ele>
        <time>2021-05-16T11:48:01Z</time>
      </trkpt>
      <trkpt lat="41.3606670" lon="-8.7575020">
        <ele>8.6</ele>
        <time>2021-05-16T11:48:02Z</time>
      </trkpt>
      <trkpt lat="41.3606670" lon="-8.7575020">
        <ele>8.6</ele>
        <time>2021-05-16T11:48:03Z</time>
      </trkpt>
      <trkpt lat="41.3606670" lon="-8.7575020">
        <ele>8.6</ele>
        <time>2021-05-16T11:48:04Z</time>
      </trkpt>
      <trkpt lat="41.3606670" lon="-8.7575020">
        <ele>8.6</ele>
        <time>2021-05-16T11:48:05Z</time>
      </trkpt>
      <trkpt lat="41.3606670" lon="-8.7575020">
        <ele>8.6</ele>
        <time>2021-05-16T11:48:06Z</time>
      </trkpt>
      <trkpt lat="41.3606670" lon="-8.7575020">
        <ele>8.6</ele>
        <time>2021-05-16T11:48:07Z</time>
      </trkpt>
      <trkpt lat="41.3606670" lon="-8.7575020">
        <ele>8.6</ele>
        <time>2021-05-16T11:48:08Z</time>
      </trkpt>
      <trkpt lat="41.3606670" lon="-8.7575020">
        <ele>8.6</ele>
        <time>2021-05-16T11:48:09Z</time>
      </trkpt>
      <trkpt lat="41.3606670" lon="-8.7575020">
        <ele>8.6</ele>
        <time>2021-05-16T11:48:10Z</time>
      </trkpt>
      <trkpt lat="41.3606670" lon="-8.7575020">
        <ele>8.6</ele>
        <time>2021-05-16T11:48:11Z</time>
      </trkpt>
      <trkpt lat="41.3606670" lon="-8.7575020">
        <ele>8.6</ele>
        <time>2021-05-16T11:48:12Z</time>
      </trkpt>
      <trkpt lat="41.3606670" lon="-8.7575020">
        <ele>8.6</ele>
        <time>2021-05-16T11:48:13Z</time>
      </trkpt>
      <trkpt lat="41.3606670" lon="-8.7575020">
        <ele>8.6</ele>
        <time>2021-05-16T11:48:14Z</time>
      </trkpt>
      <trkpt lat="41.3606670" lon="-8.7575020">
        <ele>8.6</ele>
        <time>2021-05-16T11:48:15Z</time>
      </trkpt>
      <trkpt lat="41.3606670" lon="-8.7575020">
        <ele>8.6</ele>
        <time>2021-05-16T11:48:16Z</time>
      </trkpt>
      <trkpt lat="41.3606670" lon="-8.7575020">
        <ele>8.6</ele>
        <time>2021-05-16T11:48:17Z</time>
      </trkpt>
      <trkpt lat="41.3606670" lon="-8.7575020">
        <ele>8.6</ele>
        <time>2021-05-16T11:48:18Z</time>
      </trkpt>
      <trkpt lat="41.3606670" lon="-8.7575020">
        <ele>8.6</ele>
        <time>2021-05-16T11:48:19Z</time>
      </trkpt>
      <trkpt lat="41.3606670" lon="-8.7575020">
        <ele>8.6</ele>
        <time>2021-05-16T11:48:20Z</time>
      </trkpt>
      <trkpt lat="41.3606670" lon="-8.7575020">
        <ele>8.6</ele>
        <time>2021-05-16T11:48:21Z</time>
      </trkpt>
      <trkpt lat="41.3606670" lon="-8.7575020">
        <ele>8.6</ele>
        <time>2021-05-16T11:48:22Z</time>
      </trkpt>
      <trkpt lat="41.3606670" lon="-8.7575020">
        <ele>8.6</ele>
        <time>2021-05-16T11:48:23Z</time>
      </trkpt>
      <trkpt lat="41.3606670" lon="-8.7575020">
        <ele>8.6</ele>
        <time>2021-05-16T11:48:24Z</time>
      </trkpt>
      <trkpt lat="41.3606670" lon="-8.7575020">
        <ele>8.6</ele>
        <time>2021-05-16T11:48:25Z</time>
      </trkpt>
      <trkpt lat="41.3606670" lon="-8.7575020">
        <ele>8.6</ele>
        <time>2021-05-16T11:48:26Z</time>
      </trkpt>
      <trkpt lat="41.3606670" lon="-8.7575020">
        <ele>8.6</ele>
        <time>2021-05-16T11:48:27Z</time>
      </trkpt>
      <trkpt lat="41.3606670" lon="-8.7575020">
        <ele>8.6</ele>
        <time>2021-05-16T11:48:28Z</time>
      </trkpt>
      <trkpt lat="41.3606670" lon="-8.7575020">
        <ele>8.6</ele>
        <time>2021-05-16T11:48:29Z</time>
      </trkpt>
      <trkpt lat="41.3606670" lon="-8.7575020">
        <ele>8.6</ele>
        <time>2021-05-16T11:48:30Z</time>
      </trkpt>
      <trkpt lat="41.3606670" lon="-8.7575020">
        <ele>8.6</ele>
        <time>2021-05-16T11:48:31Z</time>
      </trkpt>
      <trkpt lat="41.3606670" lon="-8.7575020">
        <ele>8.6</ele>
        <time>2021-05-16T11:48:32Z</time>
      </trkpt>
      <trkpt lat="41.3606670" lon="-8.7575020">
        <ele>8.6</ele>
        <time>2021-05-16T11:48:33Z</time>
      </trkpt>
      <trkpt lat="41.3606670" lon="-8.7575020">
        <ele>8.6</ele>
        <time>2021-05-16T11:48:34Z</time>
      </trkpt>
      <trkpt lat="41.3606670" lon="-8.7575020">
        <ele>8.6</ele>
        <time>2021-05-16T11:48:35Z</time>
      </trkpt>
      <trkpt lat="41.3606670" lon="-8.7575020">
        <ele>8.6</ele>
        <time>2021-05-16T11:48:36Z</time>
      </trkpt>
      <trkpt lat="41.3606670" lon="-8.7575020">
        <ele>8.6</ele>
        <time>2021-05-16T11:48:37Z</time>
      </trkpt>
      <trkpt lat="41.3606670" lon="-8.7575020">
        <ele>8.6</ele>
        <time>2021-05-16T11:48:38Z</time>
      </trkpt>
      <trkpt lat="41.3606670" lon="-8.7575020">
        <ele>8.6</ele>
        <time>2021-05-16T11:48:39Z</time>
      </trkpt>
      <trkpt lat="41.3606670" lon="-8.7575020">
        <ele>8.6</ele>
        <time>2021-05-16T11:48:40Z</time>
      </trkpt>
      <trkpt lat="41.3606670" lon="-8.7575020">
        <ele>8.6</ele>
        <time>2021-05-16T11:48:41Z</time>
      </trkpt>
      <trkpt lat="41.3606670" lon="-8.7575020">
        <ele>8.6</ele>
        <time>2021-05-16T11:48:42Z</time>
      </trkpt>
      <trkpt lat="41.3606670" lon="-8.7575020">
        <ele>8.6</ele>
        <time>2021-05-16T11:48:43Z</time>
      </trkpt>
      <trkpt lat="41.3606670" lon="-8.7575020">
        <ele>8.6</ele>
        <time>2021-05-16T11:48:44Z</time>
      </trkpt>
      <trkpt lat="41.3606670" lon="-8.7575020">
        <ele>8.6</ele>
        <time>2021-05-16T11:48:45Z</time>
      </trkpt>
      <trkpt lat="41.3606670" lon="-8.7575020">
        <ele>8.6</ele>
        <time>2021-05-16T11:48:46Z</time>
      </trkpt>
      <trkpt lat="41.3606670" lon="-8.7575020">
        <ele>8.6</ele>
        <time>2021-05-16T11:48:47Z</time>
      </trkpt>
      <trkpt lat="41.3606670" lon="-8.7575020">
        <ele>8.6</ele>
        <time>2021-05-16T11:48:48Z</time>
      </trkpt>
      <trkpt lat="41.3606670" lon="-8.7575020">
        <ele>8.6</ele>
        <time>2021-05-16T11:48:49Z</time>
      </trkpt>
      <trkpt lat="41.3606670" lon="-8.7575020">
        <ele>8.6</ele>
        <time>2021-05-16T11:48:50Z</time>
      </trkpt>
      <trkpt lat="41.3606670" lon="-8.7575020">
        <ele>8.6</ele>
        <time>2021-05-16T11:48:51Z</time>
      </trkpt>
      <trkpt lat="41.3606670" lon="-8.7575020">
        <ele>8.6</ele>
        <time>2021-05-16T11:48:52Z</time>
      </trkpt>
      <trkpt lat="41.3606670" lon="-8.7575020">
        <ele>8.6</ele>
        <time>2021-05-16T11:48:53Z</time>
      </trkpt>
      <trkpt lat="41.3606670" lon="-8.7575020">
        <ele>8.6</ele>
        <time>2021-05-16T11:48:54Z</time>
      </trkpt>
      <trkpt lat="41.3606670" lon="-8.7575020">
        <ele>8.6</ele>
        <time>2021-05-16T11:48:55Z</time>
      </trkpt>
      <trkpt lat="41.3606670" lon="-8.7575020">
        <ele>8.6</ele>
        <time>2021-05-16T11:48:56Z</time>
      </trkpt>
      <trkpt lat="41.3606670" lon="-8.7575020">
        <ele>8.6</ele>
        <time>2021-05-16T11:48:57Z</time>
      </trkpt>
      <trkpt lat="41.3606670" lon="-8.7575020">
        <ele>8.6</ele>
        <time>2021-05-16T11:48:58Z</time>
      </trkpt>
      <trkpt lat="41.3606670" lon="-8.7575020">
        <ele>8.6</ele>
        <time>2021-05-16T11:48:59Z</time>
      </trkpt>
      <trkpt lat="41.3606670" lon="-8.7575020">
        <ele>8.6</ele>
        <time>2021-05-16T11:49:00Z</time>
      </trkpt>
      <trkpt lat="41.3606670" lon="-8.7575020">
        <ele>8.6</ele>
        <time>2021-05-16T11:49:01Z</time>
      </trkpt>
      <trkpt lat="41.3606670" lon="-8.7575020">
        <ele>8.6</ele>
        <time>2021-05-16T11:49:02Z</time>
      </trkpt>
      <trkpt lat="41.3606670" lon="-8.7575020">
        <ele>8.6</ele>
        <time>2021-05-16T11:49:03Z</time>
      </trkpt>
      <trkpt lat="41.3606670" lon="-8.7575020">
        <ele>8.6</ele>
        <time>2021-05-16T11:49:04Z</time>
      </trkpt>
      <trkpt lat="41.3606670" lon="-8.7575020">
        <ele>8.6</ele>
        <time>2021-05-16T11:49:05Z</time>
      </trkpt>
      <trkpt lat="41.3606670" lon="-8.7575020">
        <ele>8.6</ele>
        <time>2021-05-16T11:49:06Z</time>
      </trkpt>
      <trkpt lat="41.3606670" lon="-8.7575020">
        <ele>8.6</ele>
        <time>2021-05-16T11:49:07Z</time>
      </trkpt>
      <trkpt lat="41.3606670" lon="-8.7575020">
        <ele>8.6</ele>
        <time>2021-05-16T11:49:08Z</time>
      </trkpt>
      <trkpt lat="41.3606670" lon="-8.7575020">
        <ele>8.6</ele>
        <time>2021-05-16T11:49:09Z</time>
      </trkpt>
      <trkpt lat="41.3606670" lon="-8.7575020">
        <ele>8.6</ele>
        <time>2021-05-16T11:49:10Z</time>
      </trkpt>
      <trkpt lat="41.3606670" lon="-8.7575020">
        <ele>8.6</ele>
        <time>2021-05-16T11:49:11Z</time>
      </trkpt>
      <trkpt lat="41.3606670" lon="-8.7575020">
        <ele>8.6</ele>
        <time>2021-05-16T11:49:12Z</time>
      </trkpt>
      <trkpt lat="41.3606670" lon="-8.7575020">
        <ele>8.6</ele>
        <time>2021-05-16T11:49:13Z</time>
      </trkpt>
      <trkpt lat="41.3606670" lon="-8.7575020">
        <ele>8.6</ele>
        <time>2021-05-16T11:49:14Z</time>
      </trkpt>
      <trkpt lat="41.3606670" lon="-8.7575020">
        <ele>8.6</ele>
        <time>2021-05-16T11:49:15Z</time>
      </trkpt>
      <trkpt lat="41.3606670" lon="-8.7575020">
        <ele>8.6</ele>
        <time>2021-05-16T11:49:16Z</time>
      </trkpt>
      <trkpt lat="41.3606670" lon="-8.7575020">
        <ele>8.6</ele>
        <time>2021-05-16T11:49:17Z</time>
      </trkpt>
      <trkpt lat="41.3606670" lon="-8.7575020">
        <ele>8.6</ele>
        <time>2021-05-16T11:49:18Z</time>
      </trkpt>
      <trkpt lat="41.3606670" lon="-8.7575020">
        <ele>8.6</ele>
        <time>2021-05-16T11:49:19Z</time>
      </trkpt>
      <trkpt lat="41.3606670" lon="-8.7575020">
        <ele>8.6</ele>
        <time>2021-05-16T11:49:20Z</time>
      </trkpt>
      <trkpt lat="41.3606670" lon="-8.7575020">
        <ele>8.6</ele>
        <time>2021-05-16T11:49:21Z</time>
      </trkpt>
      <trkpt lat="41.3606670" lon="-8.7575020">
        <ele>8.6</ele>
        <time>2021-05-16T11:49:22Z</time>
      </trkpt>
      <trkpt lat="41.3606670" lon="-8.7575020">
        <ele>8.6</ele>
        <time>2021-05-16T11:49:23Z</time>
      </trkpt>
      <trkpt lat="41.3606670" lon="-8.7575020">
        <ele>8.6</ele>
        <time>2021-05-16T11:49:24Z</time>
      </trkpt>
      <trkpt lat="41.3606670" lon="-8.7575020">
        <ele>8.6</ele>
        <time>2021-05-16T11:49:25Z</time>
      </trkpt>
      <trkpt lat="41.3606670" lon="-8.7575020">
        <ele>8.6</ele>
        <time>2021-05-16T11:49:26Z</time>
      </trkpt>
      <trkpt lat="41.3606670" lon="-8.7575020">
        <ele>8.6</ele>
        <time>2021-05-16T11:49:27Z</time>
      </trkpt>
      <trkpt lat="41.3606670" lon="-8.7575020">
        <ele>8.6</ele>
        <time>2021-05-16T11:49:28Z</time>
      </trkpt>
      <trkpt lat="41.3606670" lon="-8.7575020">
        <ele>8.6</ele>
        <time>2021-05-16T11:49:29Z</time>
      </trkpt>
      <trkpt lat="41.3606670" lon="-8.7575020">
        <ele>8.6</ele>
        <time>2021-05-16T11:49:30Z</time>
      </trkpt>
      <trkpt lat="41.3606670" lon="-8.7575020">
        <ele>8.6</ele>
        <time>2021-05-16T11:49:31Z</time>
      </trkpt>
      <trkpt lat="41.3606670" lon="-8.7575020">
        <ele>8.6</ele>
        <time>2021-05-16T11:49:32Z</time>
      </trkpt>
      <trkpt lat="41.3606670" lon="-8.7575020">
        <ele>8.6</ele>
        <time>2021-05-16T11:49:33Z</time>
      </trkpt>
      <trkpt lat="41.3606670" lon="-8.7575020">
        <ele>8.6</ele>
        <time>2021-05-16T11:49:34Z</time>
      </trkpt>
      <trkpt lat="41.3606670" lon="-8.7575020">
        <ele>8.6</ele>
        <time>2021-05-16T11:49:35Z</time>
      </trkpt>
      <trkpt lat="41.3606670" lon="-8.7575020">
        <ele>8.6</ele>
        <time>2021-05-16T11:49:36Z</time>
      </trkpt>
      <trkpt lat="41.3606670" lon="-8.7575020">
        <ele>8.6</ele>
        <time>2021-05-16T11:49:37Z</time>
      </trkpt>
      <trkpt lat="41.3606670" lon="-8.7575020">
        <ele>8.6</ele>
        <time>2021-05-16T11:49:38Z</time>
      </trkpt>
      <trkpt lat="41.3606670" lon="-8.7575020">
        <ele>8.6</ele>
        <time>2021-05-16T11:49:39Z</time>
      </trkpt>
      <trkpt lat="41.3606670" lon="-8.7575020">
        <ele>8.6</ele>
        <time>2021-05-16T11:49:40Z</time>
      </trkpt>
      <trkpt lat="41.3606670" lon="-8.7575020">
        <ele>8.6</ele>
        <time>2021-05-16T11:49:41Z</time>
      </trkpt>
      <trkpt lat="41.3606670" lon="-8.7575020">
        <ele>8.6</ele>
        <time>2021-05-16T11:49:42Z</time>
      </trkpt>
      <trkpt lat="41.3606670" lon="-8.7575020">
        <ele>8.6</ele>
        <time>2021-05-16T11:49:43Z</time>
      </trkpt>
      <trkpt lat="41.3606670" lon="-8.7575020">
        <ele>8.6</ele>
        <time>2021-05-16T11:49:44Z</time>
      </trkpt>
      <trkpt lat="41.3606670" lon="-8.7575020">
        <ele>8.6</ele>
        <time>2021-05-16T11:49:45Z</time>
      </trkpt>
      <trkpt lat="41.3606670" lon="-8.7575020">
        <ele>8.6</ele>
        <time>2021-05-16T11:49:46Z</time>
      </trkpt>
      <trkpt lat="41.3606670" lon="-8.7575020">
        <ele>8.6</ele>
        <time>2021-05-16T11:49:47Z</time>
      </trkpt>
      <trkpt lat="41.3606670" lon="-8.7575020">
        <ele>8.6</ele>
        <time>2021-05-16T11:49:48Z</time>
      </trkpt>
      <trkpt lat="41.3606670" lon="-8.7575020">
        <ele>8.6</ele>
        <time>2021-05-16T11:49:49Z</time>
      </trkpt>
      <trkpt lat="41.3606670" lon="-8.7575020">
        <ele>8.6</ele>
        <time>2021-05-16T11:49:50Z</time>
      </trkpt>
      <trkpt lat="41.3606670" lon="-8.7575020">
        <ele>8.6</ele>
        <time>2021-05-16T11:49:51Z</time>
      </trkpt>
      <trkpt lat="41.3606670" lon="-8.7575020">
        <ele>8.6</ele>
        <time>2021-05-16T11:49:52Z</time>
      </trkpt>
      <trkpt lat="41.3606670" lon="-8.7575020">
        <ele>8.6</ele>
        <time>2021-05-16T11:49:53Z</time>
      </trkpt>
      <trkpt lat="41.3606670" lon="-8.7575020">
        <ele>8.6</ele>
        <time>2021-05-16T11:49:54Z</time>
      </trkpt>
      <trkpt lat="41.3606670" lon="-8.7575020">
        <ele>8.6</ele>
        <time>2021-05-16T11:49:55Z</time>
      </trkpt>
      <trkpt lat="41.3606670" lon="-8.7575020">
        <ele>8.6</ele>
        <time>2021-05-16T11:49:56Z</time>
      </trkpt>
      <trkpt lat="41.3606670" lon="-8.7575020">
        <ele>8.6</ele>
        <time>2021-05-16T11:49:57Z</time>
      </trkpt>
      <trkpt lat="41.3606670" lon="-8.7575020">
        <ele>8.6</ele>
        <time>2021-05-16T11:49:58Z</time>
      </trkpt>
      <trkpt lat="41.3606670" lon="-8.7575020">
        <ele>8.6</ele>
        <time>2021-05-16T11:49:59Z</time>
      </trkpt>
      <trkpt lat="41.3606670" lon="-8.7575020">
        <ele>8.6</ele>
        <time>2021-05-16T11:50:00Z</time>
      </trkpt>
      <trkpt lat="41.3606670" lon="-8.7575020">
        <ele>8.6</ele>
        <time>2021-05-16T11:50:01Z</time>
      </trkpt>
      <trkpt lat="41.3606670" lon="-8.7575020">
        <ele>8.6</ele>
        <time>2021-05-16T11:50:02Z</time>
      </trkpt>
      <trkpt lat="41.3606670" lon="-8.7575020">
        <ele>8.6</ele>
        <time>2021-05-16T11:50:03Z</time>
      </trkpt>
      <trkpt lat="41.3606670" lon="-8.7575020">
        <ele>8.6</ele>
        <time>2021-05-16T11:50:04Z</time>
      </trkpt>
      <trkpt lat="41.3606670" lon="-8.7575020">
        <ele>8.6</ele>
        <time>2021-05-16T11:50:05Z</time>
      </trkpt>
      <trkpt lat="41.3606670" lon="-8.7575020">
        <ele>8.6</ele>
        <time>2021-05-16T11:50:06Z</time>
      </trkpt>
      <trkpt lat="41.3606670" lon="-8.7575020">
        <ele>8.6</ele>
        <time>2021-05-16T11:50:07Z</time>
      </trkpt>
      <trkpt lat="41.3606670" lon="-8.7575020">
        <ele>8.6</ele>
        <time>2021-05-16T11:50:08Z</time>
      </trkpt>
      <trkpt lat="41.3606670" lon="-8.7575020">
        <ele>8.6</ele>
        <time>2021-05-16T11:50:09Z</time>
      </trkpt>
      <trkpt lat="41.3606670" lon="-8.7575020">
        <ele>8.6</ele>
        <time>2021-05-16T11:50:10Z</time>
      </trkpt>
      <trkpt lat="41.3606670" lon="-8.7575020">
        <ele>8.6</ele>
        <time>2021-05-16T11:50:11Z</time>
      </trkpt>
      <trkpt lat="41.3606670" lon="-8.7575020">
        <ele>8.6</ele>
        <time>2021-05-16T11:50:12Z</time>
      </trkpt>
      <trkpt lat="41.3606670" lon="-8.7575020">
        <ele>8.6</ele>
        <time>2021-05-16T11:50:13Z</time>
      </trkpt>
      <trkpt lat="41.3606670" lon="-8.7575020">
        <ele>8.6</ele>
        <time>2021-05-16T11:50:14Z</time>
      </trkpt>
      <trkpt lat="41.3606670" lon="-8.7575020">
        <ele>8.6</ele>
        <time>2021-05-16T11:50:15Z</time>
      </trkpt>
      <trkpt lat="41.3606670" lon="-8.7575020">
        <ele>8.6</ele>
        <time>2021-05-16T11:50:16Z</time>
      </trkpt>
      <trkpt lat="41.3606670" lon="-8.7575020">
        <ele>8.6</ele>
        <time>2021-05-16T11:50:17Z</time>
      </trkpt>
      <trkpt lat="41.3606670" lon="-8.7575020">
        <ele>8.6</ele>
        <time>2021-05-16T11:50:18Z</time>
      </trkpt>
      <trkpt lat="41.3606670" lon="-8.7575020">
        <ele>8.6</ele>
        <time>2021-05-16T11:50:19Z</time>
      </trkpt>
      <trkpt lat="41.3606670" lon="-8.7575020">
        <ele>8.6</ele>
        <time>2021-05-16T11:50:20Z</time>
      </trkpt>
      <trkpt lat="41.3606670" lon="-8.7575020">
        <ele>8.6</ele>
        <time>2021-05-16T11:50:21Z</time>
      </trkpt>
      <trkpt lat="41.3606670" lon="-8.7575020">
        <ele>8.6</ele>
        <time>2021-05-16T11:50:22Z</time>
      </trkpt>
      <trkpt lat="41.3606670" lon="-8.7575020">
        <ele>8.6</ele>
        <time>2021-05-16T11:50:23Z</time>
      </trkpt>
      <trkpt lat="41.3606670" lon="-8.7575020">
        <ele>8.6</ele>
        <time>2021-05-16T11:50:24Z</time>
      </trkpt>
      <trkpt lat="41.3606670" lon="-8.7575020">
        <ele>8.6</ele>
        <time>2021-05-16T11:50:25Z</time>
      </trkpt>
      <trkpt lat="41.3606670" lon="-8.7575020">
        <ele>8.6</ele>
        <time>2021-05-16T11:50:26Z</time>
      </trkpt>
      <trkpt lat="41.3606670" lon="-8.7575020">
        <ele>8.6</ele>
        <time>2021-05-16T11:50:27Z</time>
      </trkpt>
      <trkpt lat="41.3606670" lon="-8.7575020">
        <ele>8.6</ele>
        <time>2021-05-16T11:50:28Z</time>
      </trkpt>
      <trkpt lat="41.3606670" lon="-8.7575020">
        <ele>8.6</ele>
        <time>2021-05-16T11:50:29Z</time>
      </trkpt>
      <trkpt lat="41.3606670" lon="-8.7575020">
        <ele>8.6</ele>
        <time>2021-05-16T11:50:30Z</time>
      </trkpt>
      <trkpt lat="41.3606670" lon="-8.7575020">
        <ele>8.6</ele>
        <time>2021-05-16T11:50:31Z</time>
      </trkpt>
      <trkpt lat="41.3606670" lon="-8.7575020">
        <ele>8.6</ele>
        <time>2021-05-16T11:50:32Z</time>
      </trkpt>
      <trkpt lat="41.3606670" lon="-8.7575020">
        <ele>8.6</ele>
        <time>2021-05-16T11:50:33Z</time>
      </trkpt>
      <trkpt lat="41.3606670" lon="-8.7575020">
        <ele>8.6</ele>
        <time>2021-05-16T11:50:34Z</time>
      </trkpt>
      <trkpt lat="41.3606670" lon="-8.7575020">
        <ele>8.6</ele>
        <time>2021-05-16T11:50:35Z</time>
      </trkpt>
      <trkpt lat="41.3606670" lon="-8.7575020">
        <ele>8.6</ele>
        <time>2021-05-16T11:50:36Z</time>
      </trkpt>
      <trkpt lat="41.3606670" lon="-8.7575020">
        <ele>8.6</ele>
        <time>2021-05-16T11:50:37Z</time>
      </trkpt>
      <trkpt lat="41.3606670" lon="-8.7575020">
        <ele>8.6</ele>
        <time>2021-05-16T11:50:38Z</time>
      </trkpt>
      <trkpt lat="41.3606670" lon="-8.7575020">
        <ele>8.6</ele>
        <time>2021-05-16T11:50:39Z</time>
      </trkpt>
      <trkpt lat="41.3606670" lon="-8.7575020">
        <ele>8.6</ele>
        <time>2021-05-16T11:50:40Z</time>
      </trkpt>
      <trkpt lat="41.3606670" lon="-8.7575020">
        <ele>8.6</ele>
        <time>2021-05-16T11:50:41Z</time>
      </trkpt>
      <trkpt lat="41.3606670" lon="-8.7575020">
        <ele>8.6</ele>
        <time>2021-05-16T11:50:42Z</time>
      </trkpt>
      <trkpt lat="41.3606670" lon="-8.7575020">
        <ele>8.6</ele>
        <time>2021-05-16T11:50:43Z</time>
      </trkpt>
      <trkpt lat="41.3606670" lon="-8.7575020">
        <ele>8.6</ele>
        <time>2021-05-16T11:50:44Z</time>
      </trkpt>
      <trkpt lat="41.3606670" lon="-8.7575020">
        <ele>8.6</ele>
        <time>2021-05-16T11:50:45Z</time>
      </trkpt>
      <trkpt lat="41.3606670" lon="-8.7575020">
        <ele>8.6</ele>
        <time>2021-05-16T11:50:46Z</time>
      </trkpt>
      <trkpt lat="41.3606670" lon="-8.7575020">
        <ele>8.6</ele>
        <time>2021-05-16T11:50:47Z</time>
      </trkpt>
      <trkpt lat="41.3606670" lon="-8.7575020">
        <ele>8.6</ele>
        <time>2021-05-16T11:50:48Z</time>
      </trkpt>
      <trkpt lat="41.3606670" lon="-8.7575020">
        <ele>8.6</ele>
        <time>2021-05-16T11:50:49Z</time>
      </trkpt>
      <trkpt lat="41.3606670" lon="-8.7575020">
        <ele>8.6</ele>
        <time>2021-05-16T11:50:50Z</time>
      </trkpt>
      <trkpt lat="41.3606670" lon="-8.7575020">
        <ele>8.6</ele>
        <time>2021-05-16T11:50:51Z</time>
      </trkpt>
      <trkpt lat="41.3606670" lon="-8.7575020">
        <ele>8.6</ele>
        <time>2021-05-16T11:50:52Z</time>
      </trkpt>
      <trkpt lat="41.3606670" lon="-8.7575020">
        <ele>8.6</ele>
        <time>2021-05-16T11:50:53Z</time>
      </trkpt>
      <trkpt lat="41.3606670" lon="-8.7575020">
        <ele>8.6</ele>
        <time>2021-05-16T11:50:54Z</time>
      </trkpt>
      <trkpt lat="41.3606670" lon="-8.7575020">
        <ele>8.6</ele>
        <time>2021-05-16T11:50:55Z</time>
      </trkpt>
      <trkpt lat="41.3606670" lon="-8.7575020">
        <ele>8.6</ele>
        <time>2021-05-16T11:50:56Z</time>
      </trkpt>
      <trkpt lat="41.3606670" lon="-8.7575020">
        <ele>8.6</ele>
        <time>2021-05-16T11:50:57Z</time>
      </trkpt>
      <trkpt lat="41.3606670" lon="-8.7575020">
        <ele>8.6</ele>
        <time>2021-05-16T11:50:58Z</time>
      </trkpt>
      <trkpt lat="41.3606670" lon="-8.7575020">
        <ele>8.6</ele>
        <time>2021-05-16T11:50:59Z</time>
      </trkpt>
      <trkpt lat="41.3606670" lon="-8.7575020">
        <ele>8.6</ele>
        <time>2021-05-16T11:51:00Z</time>
      </trkpt>
      <trkpt lat="41.3606670" lon="-8.7575020">
        <ele>8.6</ele>
        <time>2021-05-16T11:51:01Z</time>
      </trkpt>
      <trkpt lat="41.3606670" lon="-8.7575020">
        <ele>8.6</ele>
        <time>2021-05-16T11:51:02Z</time>
      </trkpt>
      <trkpt lat="41.3606670" lon="-8.7575020">
        <ele>8.6</ele>
        <time>2021-05-16T11:51:03Z</time>
      </trkpt>
      <trkpt lat="41.3606670" lon="-8.7575020">
        <ele>8.6</ele>
        <time>2021-05-16T11:51:04Z</time>
      </trkpt>
      <trkpt lat="41.3606670" lon="-8.7575020">
        <ele>8.6</ele>
        <time>2021-05-16T11:51:05Z</time>
      </trkpt>
      <trkpt lat="41.3606670" lon="-8.7575020">
        <ele>8.6</ele>
        <time>2021-05-16T11:51:06Z</time>
      </trkpt>
      <trkpt lat="41.3606670" lon="-8.7575020">
        <ele>8.6</ele>
        <time>2021-05-16T11:51:07Z</time>
      </trkpt>
      <trkpt lat="41.3606670" lon="-8.7575020">
        <ele>8.6</ele>
        <time>2021-05-16T11:51:08Z</time>
      </trkpt>
      <trkpt lat="41.3606670" lon="-8.7575020">
        <ele>8.6</ele>
        <time>2021-05-16T11:51:09Z</time>
      </trkpt>
      <trkpt lat="41.3606670" lon="-8.7575020">
        <ele>8.6</ele>
        <time>2021-05-16T11:51:10Z</time>
      </trkpt>
      <trkpt lat="41.3606670" lon="-8.7575020">
        <ele>8.6</ele>
        <time>2021-05-16T11:51:11Z</time>
      </trkpt>
      <trkpt lat="41.3606670" lon="-8.7575020">
        <ele>8.6</ele>
        <time>2021-05-16T11:51:12Z</time>
      </trkpt>
      <trkpt lat="41.3606670" lon="-8.7575020">
        <ele>8.6</ele>
        <time>2021-05-16T11:51:13Z</time>
      </trkpt>
      <trkpt lat="41.3606670" lon="-8.7575020">
        <ele>8.6</ele>
        <time>2021-05-16T11:51:14Z</time>
      </trkpt>
      <trkpt lat="41.3606670" lon="-8.7575020">
        <ele>8.6</ele>
        <time>2021-05-16T11:51:15Z</time>
      </trkpt>
      <trkpt lat="41.3606670" lon="-8.7575020">
        <ele>8.6</ele>
        <time>2021-05-16T11:51:16Z</time>
      </trkpt>
      <trkpt lat="41.3606670" lon="-8.7575020">
        <ele>8.6</ele>
        <time>2021-05-16T11:51:17Z</time>
      </trkpt>
      <trkpt lat="41.3606670" lon="-8.7575020">
        <ele>8.6</ele>
        <time>2021-05-16T11:51:18Z</time>
      </trkpt>
      <trkpt lat="41.3606670" lon="-8.7575020">
        <ele>8.6</ele>
        <time>2021-05-16T11:51:19Z</time>
      </trkpt>
      <trkpt lat="41.3606670" lon="-8.7575020">
        <ele>8.6</ele>
        <time>2021-05-16T11:51:20Z</time>
      </trkpt>
      <trkpt lat="41.3606670" lon="-8.7575020">
        <ele>8.6</ele>
        <time>2021-05-16T11:51:21Z</time>
      </trkpt>
      <trkpt lat="41.3606670" lon="-8.7575020">
        <ele>8.6</ele>
        <time>2021-05-16T11:51:22Z</time>
      </trkpt>
      <trkpt lat="41.3606670" lon="-8.7575020">
        <ele>8.6</ele>
        <time>2021-05-16T11:51:23Z</time>
      </trkpt>
      <trkpt lat="41.3606670" lon="-8.7575020">
        <ele>8.6</ele>
        <time>2021-05-16T11:51:24Z</time>
      </trkpt>
      <trkpt lat="41.3606670" lon="-8.7575020">
        <ele>8.6</ele>
        <time>2021-05-16T11:51:25Z</time>
      </trkpt>
      <trkpt lat="41.3606670" lon="-8.7575020">
        <ele>8.6</ele>
        <time>2021-05-16T11:51:26Z</time>
      </trkpt>
      <trkpt lat="41.3606670" lon="-8.7575020">
        <ele>8.6</ele>
        <time>2021-05-16T11:51:27Z</time>
      </trkpt>
      <trkpt lat="41.3606670" lon="-8.7575020">
        <ele>8.6</ele>
        <time>2021-05-16T11:51:28Z</time>
      </trkpt>
      <trkpt lat="41.3606670" lon="-8.7575020">
        <ele>8.6</ele>
        <time>2021-05-16T11:51:29Z</time>
      </trkpt>
      <trkpt lat="41.3606670" lon="-8.7575020">
        <ele>8.6</ele>
        <time>2021-05-16T11:51:30Z</time>
      </trkpt>
      <trkpt lat="41.3606670" lon="-8.7575020">
        <ele>8.6</ele>
        <time>2021-05-16T11:51:31Z</time>
      </trkpt>
      <trkpt lat="41.3606670" lon="-8.7575020">
        <ele>8.6</ele>
        <time>2021-05-16T11:51:32Z</time>
      </trkpt>
      <trkpt lat="41.3606670" lon="-8.7575020">
        <ele>8.6</ele>
        <time>2021-05-16T11:51:33Z</time>
      </trkpt>
      <trkpt lat="41.3606670" lon="-8.7575020">
        <ele>8.6</ele>
        <time>2021-05-16T11:51:34Z</time>
      </trkpt>
      <trkpt lat="41.3606670" lon="-8.7575020">
        <ele>8.6</ele>
        <time>2021-05-16T11:51:35Z</time>
      </trkpt>
      <trkpt lat="41.3606670" lon="-8.7575020">
        <ele>8.6</ele>
        <time>2021-05-16T11:51:36Z</time>
      </trkpt>
      <trkpt lat="41.3606670" lon="-8.7575020">
        <ele>8.6</ele>
        <time>2021-05-16T11:51:37Z</time>
      </trkpt>
      <trkpt lat="41.3606670" lon="-8.7575020">
        <ele>8.6</ele>
        <time>2021-05-16T11:51:38Z</time>
      </trkpt>
      <trkpt lat="41.3606670" lon="-8.7575020">
        <ele>8.6</ele>
        <time>2021-05-16T11:51:39Z</time>
      </trkpt>
      <trkpt lat="41.3606670" lon="-8.7575020">
        <ele>8.6</ele>
        <time>2021-05-16T11:51:40Z</time>
      </trkpt>
      <trkpt lat="41.3606670" lon="-8.7575020">
        <ele>8.6</ele>
        <time>2021-05-16T11:51:41Z</time>
      </trkpt>
      <trkpt lat="41.3606670" lon="-8.7575020">
        <ele>8.6</ele>
        <time>2021-05-16T11:51:42Z</time>
      </trkpt>
      <trkpt lat="41.3606670" lon="-8.7575020">
        <ele>8.6</ele>
        <time>2021-05-16T11:51:43Z</time>
      </trkpt>
      <trkpt lat="41.3606670" lon="-8.7575020">
        <ele>8.6</ele>
        <time>2021-05-16T11:51:44Z</time>
      </trkpt>
      <trkpt lat="41.3606670" lon="-8.7575020">
        <ele>8.6</ele>
        <time>2021-05-16T11:51:45Z</time>
      </trkpt>
      <trkpt lat="41.3606670" lon="-8.7575020">
        <ele>8.6</ele>
        <time>2021-05-16T11:51:46Z</time>
      </trkpt>
      <trkpt lat="41.3606670" lon="-8.7575020">
        <ele>8.6</ele>
        <time>2021-05-16T11:51:47Z</time>
      </trkpt>
      <trkpt lat="41.3606670" lon="-8.7575020">
        <ele>8.6</ele>
        <time>2021-05-16T11:51:48Z</time>
      </trkpt>
      <trkpt lat="41.3606670" lon="-8.7575020">
        <ele>8.6</ele>
        <time>2021-05-16T11:51:49Z</time>
      </trkpt>
      <trkpt lat="41.3606670" lon="-8.7575020">
        <ele>8.6</ele>
        <time>2021-05-16T11:51:50Z</time>
      </trkpt>
      <trkpt lat="41.3606670" lon="-8.7575020">
        <ele>8.6</ele>
        <time>2021-05-16T11:51:51Z</time>
      </trkpt>
      <trkpt lat="41.3606670" lon="-8.7575020">
        <ele>8.6</ele>
        <time>2021-05-16T11:51:52Z</time>
      </trkpt>
      <trkpt lat="41.3606670" lon="-8.7575020">
        <ele>8.6</ele>
        <time>2021-05-16T11:51:53Z</time>
      </trkpt>
      <trkpt lat="41.3606670" lon="-8.7575020">
        <ele>8.6</ele>
        <time>2021-05-16T11:51:54Z</time>
      </trkpt>
      <trkpt lat="41.3606670" lon="-8.7575020">
        <ele>8.6</ele>
        <time>2021-05-16T11:51:55Z</time>
      </trkpt>
      <trkpt lat="41.3606670" lon="-8.7575020">
        <ele>8.6</ele>
        <time>2021-05-16T11:51:56Z</time>
      </trkpt>
      <trkpt lat="41.3606670" lon="-8.7575020">
        <ele>8.6</ele>
        <time>2021-05-16T11:51:57Z</time>
      </trkpt>
      <trkpt lat="41.3606670" lon="-8.7575020">
        <ele>8.6</ele>
        <time>2021-05-16T11:51:58Z</time>
      </trkpt>
      <trkpt lat="41.3606670" lon="-8.7575020">
        <ele>8.6</ele>
        <time>2021-05-16T11:51:59Z</time>
      </trkpt>
      <trkpt lat="41.3606670" lon="-8.7575020">
        <ele>8.6</ele>
        <time>2021-05-16T11:52:00Z</time>
      </trkpt>
      <trkpt lat="41.3606670" lon="-8.7575020">
        <ele>8.6</ele>
        <time>2021-05-16T11:52:01Z</time>
      </trkpt>
      <trkpt lat="41.3606670" lon="-8.7575020">
        <ele>8.6</ele>
        <time>2021-05-16T11:52:02Z</time>
      </trkpt>
      <trkpt lat="41.3606670" lon="-8.7575020">
        <ele>8.6</ele>
        <time>2021-05-16T11:52:03Z</time>
      </trkpt>
      <trkpt lat="41.3606670" lon="-8.7575020">
        <ele>8.6</ele>
        <time>2021-05-16T11:52:04Z</time>
      </trkpt>
      <trkpt lat="41.3606670" lon="-8.7575020">
        <ele>8.6</ele>
        <time>2021-05-16T11:52:05Z</time>
      </trkpt>
      <trkpt lat="41.3606670" lon="-8.7575020">
        <ele>8.6</ele>
        <time>2021-05-16T11:52:06Z</time>
      </trkpt>
      <trkpt lat="41.3606670" lon="-8.7575020">
        <ele>8.6</ele>
        <time>2021-05-16T11:52:07Z</time>
      </trkpt>
      <trkpt lat="41.3606670" lon="-8.7575020">
        <ele>8.6</ele>
        <time>2021-05-16T11:52:08Z</time>
      </trkpt>
      <trkpt lat="41.3606670" lon="-8.7575020">
        <ele>8.6</ele>
        <time>2021-05-16T11:52:09Z</time>
      </trkpt>
      <trkpt lat="41.3606670" lon="-8.7575020">
        <ele>8.6</ele>
        <time>2021-05-16T11:52:10Z</time>
      </trkpt>
      <trkpt lat="41.3606670" lon="-8.7575020">
        <ele>8.6</ele>
        <time>2021-05-16T11:52:11Z</time>
      </trkpt>
      <trkpt lat="41.3606670" lon="-8.7575020">
        <ele>8.6</ele>
        <time>2021-05-16T11:52:12Z</time>
      </trkpt>
      <trkpt lat="41.3606670" lon="-8.7575020">
        <ele>8.6</ele>
        <time>2021-05-16T11:52:13Z</time>
      </trkpt>
      <trkpt lat="41.3606670" lon="-8.7575020">
        <ele>8.6</ele>
        <time>2021-05-16T11:52:14Z</time>
      </trkpt>
      <trkpt lat="41.3606670" lon="-8.7575020">
        <ele>8.6</ele>
        <time>2021-05-16T11:52:15Z</time>
      </trkpt>
      <trkpt lat="41.3606670" lon="-8.7575020">
        <ele>8.6</ele>
        <time>2021-05-16T11:52:16Z</time>
      </trkpt>
      <trkpt lat="41.3606670" lon="-8.7575020">
        <ele>8.6</ele>
        <time>2021-05-16T11:52:17Z</time>
      </trkpt>
      <trkpt lat="41.3606670" lon="-8.7575020">
        <ele>8.6</ele>
        <time>2021-05-16T11:52:18Z</time>
      </trkpt>
      <trkpt lat="41.3606670" lon="-8.7575020">
        <ele>8.6</ele>
        <time>2021-05-16T11:52:19Z</time>
      </trkpt>
      <trkpt lat="41.3606670" lon="-8.7575020">
        <ele>8.6</ele>
        <time>2021-05-16T11:52:20Z</time>
      </trkpt>
      <trkpt lat="41.3606670" lon="-8.7575020">
        <ele>8.6</ele>
        <time>2021-05-16T11:52:21Z</time>
      </trkpt>
      <trkpt lat="41.3606670" lon="-8.7575020">
        <ele>8.6</ele>
        <time>2021-05-16T11:52:22Z</time>
      </trkpt>
      <trkpt lat="41.3606670" lon="-8.7575020">
        <ele>8.6</ele>
        <time>2021-05-16T11:52:23Z</time>
      </trkpt>
      <trkpt lat="41.3606670" lon="-8.7575020">
        <ele>8.6</ele>
        <time>2021-05-16T11:52:24Z</time>
      </trkpt>
      <trkpt lat="41.3606670" lon="-8.7575020">
        <ele>8.6</ele>
        <time>2021-05-16T11:52:25Z</time>
      </trkpt>
      <trkpt lat="41.3606670" lon="-8.7575020">
        <ele>8.6</ele>
        <time>2021-05-16T11:52:26Z</time>
      </trkpt>
      <trkpt lat="41.3606670" lon="-8.7575020">
        <ele>8.6</ele>
        <time>2021-05-16T11:52:27Z</time>
      </trkpt>
      <trkpt lat="41.3606670" lon="-8.7575020">
        <ele>8.6</ele>
        <time>2021-05-16T11:52:28Z</time>
      </trkpt>
      <trkpt lat="41.3606670" lon="-8.7575020">
        <ele>8.6</ele>
        <time>2021-05-16T11:52:29Z</time>
      </trkpt>
      <trkpt lat="41.3606670" lon="-8.7575020">
        <ele>8.6</ele>
        <time>2021-05-16T11:52:30Z</time>
      </trkpt>
      <trkpt lat="41.3606670" lon="-8.7575020">
        <ele>8.6</ele>
        <time>2021-05-16T11:52:31Z</time>
      </trkpt>
      <trkpt lat="41.3606670" lon="-8.7575020">
        <ele>8.6</ele>
        <time>2021-05-16T11:52:32Z</time>
      </trkpt>
      <trkpt lat="41.3606670" lon="-8.7575020">
        <ele>8.6</ele>
        <time>2021-05-16T11:52:33Z</time>
      </trkpt>
      <trkpt lat="41.3606670" lon="-8.7575020">
        <ele>8.6</ele>
        <time>2021-05-16T11:52:34Z</time>
      </trkpt>
      <trkpt lat="41.3606670" lon="-8.7575020">
        <ele>8.6</ele>
        <time>2021-05-16T11:52:35Z</time>
      </trkpt>
      <trkpt lat="41.3606670" lon="-8.7575020">
        <ele>8.6</ele>
        <time>2021-05-16T11:52:36Z</time>
      </trkpt>
      <trkpt lat="41.3606670" lon="-8.7575020">
        <ele>8.6</ele>
        <time>2021-05-16T11:52:37Z</time>
      </trkpt>
      <trkpt lat="41.3606670" lon="-8.7575020">
        <ele>8.6</ele>
        <time>2021-05-16T11:52:38Z</time>
      </trkpt>
      <trkpt lat="41.3606670" lon="-8.7575020">
        <ele>8.6</ele>
        <time>2021-05-16T11:52:39Z</time>
      </trkpt>
      <trkpt lat="41.3606670" lon="-8.7575020">
        <ele>8.6</ele>
        <time>2021-05-16T11:52:40Z</time>
      </trkpt>
      <trkpt lat="41.3606670" lon="-8.7575020">
        <ele>8.6</ele>
        <time>2021-05-16T11:52:41Z</time>
      </trkpt>
      <trkpt lat="41.3606670" lon="-8.7575020">
        <ele>8.6</ele>
        <time>2021-05-16T11:52:42Z</time>
      </trkpt>
      <trkpt lat="41.3606670" lon="-8.7575020">
        <ele>8.6</ele>
        <time>2021-05-16T11:52:43Z</time>
      </trkpt>
      <trkpt lat="41.3606670" lon="-8.7575020">
        <ele>8.6</ele>
        <time>2021-05-16T11:52:44Z</time>
      </trkpt>
      <trkpt lat="41.3606670" lon="-8.7575020">
        <ele>8.6</ele>
        <time>2021-05-16T11:52:45Z</time>
      </trkpt>
      <trkpt lat="41.3606670" lon="-8.7575020">
        <ele>8.6</ele>
        <time>2021-05-16T11:52:46Z</time>
      </trkpt>
      <trkpt lat="41.3606670" lon="-8.7575020">
        <ele>8.6</ele>
        <time>2021-05-16T11:52:47Z</time>
      </trkpt>
      <trkpt lat="41.3606670" lon="-8.7575020">
        <ele>8.6</ele>
        <time>2021-05-16T11:52:48Z</time>
      </trkpt>
      <trkpt lat="41.3606670" lon="-8.7575020">
        <ele>8.6</ele>
        <time>2021-05-16T11:52:49Z</time>
      </trkpt>
      <trkpt lat="41.3606670" lon="-8.7575020">
        <ele>8.6</ele>
        <time>2021-05-16T11:52:50Z</time>
      </trkpt>
      <trkpt lat="41.3606670" lon="-8.7575020">
        <ele>8.6</ele>
        <time>2021-05-16T11:52:51Z</time>
      </trkpt>
      <trkpt lat="41.3606670" lon="-8.7575020">
        <ele>8.6</ele>
        <time>2021-05-16T11:52:52Z</time>
      </trkpt>
      <trkpt lat="41.3606670" lon="-8.7575020">
        <ele>8.6</ele>
        <time>2021-05-16T11:52:53Z</time>
      </trkpt>
      <trkpt lat="41.3606670" lon="-8.7575020">
        <ele>8.6</ele>
        <time>2021-05-16T11:52:54Z</time>
      </trkpt>
      <trkpt lat="41.3606670" lon="-8.7575020">
        <ele>8.6</ele>
        <time>2021-05-16T11:52:55Z</time>
      </trkpt>
      <trkpt lat="41.3606670" lon="-8.7575020">
        <ele>8.6</ele>
        <time>2021-05-16T11:52:56Z</time>
      </trkpt>
      <trkpt lat="41.3606670" lon="-8.7575020">
        <ele>8.6</ele>
        <time>2021-05-16T11:52:57Z</time>
      </trkpt>
      <trkpt lat="41.3606670" lon="-8.7575020">
        <ele>8.6</ele>
        <time>2021-05-16T11:52:58Z</time>
      </trkpt>
      <trkpt lat="41.3606670" lon="-8.7575020">
        <ele>8.6</ele>
        <time>2021-05-16T11:52:59Z</time>
      </trkpt>
      <trkpt lat="41.3606670" lon="-8.7575020">
        <ele>8.6</ele>
        <time>2021-05-16T11:53:00Z</time>
      </trkpt>
      <trkpt lat="41.3606670" lon="-8.7575020">
        <ele>8.6</ele>
        <time>2021-05-16T11:53:01Z</time>
      </trkpt>
      <trkpt lat="41.3606670" lon="-8.7575020">
        <ele>8.6</ele>
        <time>2021-05-16T11:53:02Z</time>
      </trkpt>
      <trkpt lat="41.3606670" lon="-8.7575020">
        <ele>8.6</ele>
        <time>2021-05-16T11:53:03Z</time>
      </trkpt>
      <trkpt lat="41.3606670" lon="-8.7575020">
        <ele>8.6</ele>
        <time>2021-05-16T11:53:04Z</time>
      </trkpt>
      <trkpt lat="41.3606670" lon="-8.7575020">
        <ele>8.6</ele>
        <time>2021-05-16T11:53:05Z</time>
      </trkpt>
      <trkpt lat="41.3606670" lon="-8.7575020">
        <ele>8.6</ele>
        <time>2021-05-16T11:53:06Z</time>
      </trkpt>
      <trkpt lat="41.3606670" lon="-8.7575020">
        <ele>8.6</ele>
        <time>2021-05-16T11:53:07Z</time>
      </trkpt>
      <trkpt lat="41.3606670" lon="-8.7575020">
        <ele>8.6</ele>
        <time>2021-05-16T11:53:08Z</time>
      </trkpt>
      <trkpt lat="41.3606670" lon="-8.7575020">
        <ele>8.6</ele>
        <time>2021-05-16T11:53:09Z</time>
      </trkpt>
      <trkpt lat="41.3606670" lon="-8.7575020">
        <ele>8.6</ele>
        <time>2021-05-16T11:53:10Z</time>
      </trkpt>
      <trkpt lat="41.3606670" lon="-8.7575020">
        <ele>8.6</ele>
        <time>2021-05-16T11:53:11Z</time>
      </trkpt>
      <trkpt lat="41.3606670" lon="-8.7575020">
        <ele>8.6</ele>
        <time>2021-05-16T11:53:12Z</time>
      </trkpt>
      <trkpt lat="41.3606670" lon="-8.7575020">
        <ele>8.6</ele>
        <time>2021-05-16T11:53:13Z</time>
      </trkpt>
      <trkpt lat="41.3606670" lon="-8.7575020">
        <ele>8.6</ele>
        <time>2021-05-16T11:53:14Z</time>
      </trkpt>
      <trkpt lat="41.3606670" lon="-8.7575020">
        <ele>8.6</ele>
        <time>2021-05-16T11:53:15Z</time>
      </trkpt>
      <trkpt lat="41.3606670" lon="-8.7575020">
        <ele>8.6</ele>
        <time>2021-05-16T11:53:16Z</time>
      </trkpt>
      <trkpt lat="41.3606670" lon="-8.7575020">
        <ele>8.6</ele>
        <time>2021-05-16T11:53:17Z</time>
      </trkpt>
      <trkpt lat="41.3606670" lon="-8.7575020">
        <ele>8.6</ele>
        <time>2021-05-16T11:53:18Z</time>
      </trkpt>
      <trkpt lat="41.3606670" lon="-8.7575020">
        <ele>8.6</ele>
        <time>2021-05-16T11:53:19Z</time>
      </trkpt>
      <trkpt lat="41.3606670" lon="-8.7575020">
        <ele>8.6</ele>
        <time>2021-05-16T11:53:20Z</time>
      </trkpt>
      <trkpt lat="41.3606670" lon="-8.7575020">
        <ele>8.6</ele>
        <time>2021-05-16T11:53:21Z</time>
      </trkpt>
      <trkpt lat="41.3606670" lon="-8.7575020">
        <ele>8.6</ele>
        <time>2021-05-16T11:53:22Z</time>
      </trkpt>
      <trkpt lat="41.3606670" lon="-8.7575020">
        <ele>8.6</ele>
        <time>2021-05-16T11:53:23Z</time>
      </trkpt>
      <trkpt lat="41.3606670" lon="-8.7575020">
        <ele>8.6</ele>
        <time>2021-05-16T11:53:24Z</time>
      </trkpt>
      <trkpt lat="41.3606670" lon="-8.7575020">
        <ele>8.6</ele>
        <time>2021-05-16T11:53:25Z</time>
      </trkpt>
      <trkpt lat="41.3606670" lon="-8.7575020">
        <ele>8.6</ele>
        <time>2021-05-16T11:53:26Z</time>
      </trkpt>
      <trkpt lat="41.3606670" lon="-8.7575020">
        <ele>8.6</ele>
        <time>2021-05-16T11:53:27Z</time>
      </trkpt>
      <trkpt lat="41.3606670" lon="-8.7575020">
        <ele>8.6</ele>
        <time>2021-05-16T11:53:28Z</time>
      </trkpt>
      <trkpt lat="41.3606670" lon="-8.7575020">
        <ele>8.6</ele>
        <time>2021-05-16T11:53:29Z</time>
      </trkpt>
      <trkpt lat="41.3606670" lon="-8.7575020">
        <ele>8.6</ele>
        <time>2021-05-16T11:53:30Z</time>
      </trkpt>
      <trkpt lat="41.3606670" lon="-8.7575020">
        <ele>8.6</ele>
        <time>2021-05-16T11:53:31Z</time>
      </trkpt>
      <trkpt lat="41.3606670" lon="-8.7575020">
        <ele>8.6</ele>
        <time>2021-05-16T11:53:32Z</time>
      </trkpt>
      <trkpt lat="41.3606670" lon="-8.7575020">
        <ele>8.6</ele>
        <time>2021-05-16T11:53:33Z</time>
      </trkpt>
      <trkpt lat="41.3606670" lon="-8.7575020">
        <ele>8.6</ele>
        <time>2021-05-16T11:53:34Z</time>
      </trkpt>
      <trkpt lat="41.3606670" lon="-8.7575020">
        <ele>8.6</ele>
        <time>2021-05-16T11:53:35Z</time>
      </trkpt>
      <trkpt lat="41.3606670" lon="-8.7575020">
        <ele>8.6</ele>
        <time>2021-05-16T11:53:36Z</time>
      </trkpt>
      <trkpt lat="41.3606670" lon="-8.7575020">
        <ele>8.6</ele>
        <time>2021-05-16T11:53:37Z</time>
      </trkpt>
      <trkpt lat="41.3606670" lon="-8.7575020">
        <ele>8.6</ele>
        <time>2021-05-16T11:53:38Z</time>
      </trkpt>
      <trkpt lat="41.3606670" lon="-8.7575020">
        <ele>8.6</ele>
        <time>2021-05-16T11:53:39Z</time>
      </trkpt>
      <trkpt lat="41.3606670" lon="-8.7575020">
        <ele>8.6</ele>
        <time>2021-05-16T11:53:40Z</time>
      </trkpt>
      <trkpt lat="41.3606670" lon="-8.7575020">
        <ele>8.6</ele>
        <time>2021-05-16T11:53:41Z</time>
      </trkpt>
      <trkpt lat="41.3606670" lon="-8.7575020">
        <ele>8.6</ele>
        <time>2021-05-16T11:53:42Z</time>
      </trkpt>
      <trkpt lat="41.3606670" lon="-8.7575020">
        <ele>8.6</ele>
        <time>2021-05-16T11:53:43Z</time>
      </trkpt>
      <trkpt lat="41.3606670" lon="-8.7575020">
        <ele>8.6</ele>
        <time>2021-05-16T11:53:44Z</time>
      </trkpt>
      <trkpt lat="41.3606670" lon="-8.7575020">
        <ele>8.6</ele>
        <time>2021-05-16T11:53:45Z</time>
      </trkpt>
      <trkpt lat="41.3606670" lon="-8.7575020">
        <ele>8.6</ele>
        <time>2021-05-16T11:53:46Z</time>
      </trkpt>
      <trkpt lat="41.3606670" lon="-8.7575020">
        <ele>8.6</ele>
        <time>2021-05-16T11:53:47Z</time>
      </trkpt>
      <trkpt lat="41.3606670" lon="-8.7575020">
        <ele>8.6</ele>
        <time>2021-05-16T11:53:48Z</time>
      </trkpt>
      <trkpt lat="41.3606670" lon="-8.7575020">
        <ele>8.6</ele>
        <time>2021-05-16T11:53:49Z</time>
      </trkpt>
      <trkpt lat="41.3606670" lon="-8.7575020">
        <ele>8.6</ele>
        <time>2021-05-16T11:53:50Z</time>
      </trkpt>
      <trkpt lat="41.3606670" lon="-8.7575020">
        <ele>8.6</ele>
        <time>2021-05-16T11:53:51Z</time>
      </trkpt>
      <trkpt lat="41.3606670" lon="-8.7575020">
        <ele>8.6</ele>
        <time>2021-05-16T11:53:52Z</time>
      </trkpt>
      <trkpt lat="41.3606670" lon="-8.7575020">
        <ele>8.6</ele>
        <time>2021-05-16T11:53:53Z</time>
      </trkpt>
      <trkpt lat="41.3606670" lon="-8.7575020">
        <ele>8.6</ele>
        <time>2021-05-16T11:53:54Z</time>
      </trkpt>
      <trkpt lat="41.3606670" lon="-8.7575020">
        <ele>8.6</ele>
        <time>2021-05-16T11:53:55Z</time>
      </trkpt>
      <trkpt lat="41.3606670" lon="-8.7575020">
        <ele>8.6</ele>
        <time>2021-05-16T11:53:56Z</time>
      </trkpt>
      <trkpt lat="41.3606670" lon="-8.7575020">
        <ele>8.6</ele>
        <time>2021-05-16T11:53:57Z</time>
      </trkpt>
      <trkpt lat="41.3606670" lon="-8.7575020">
        <ele>8.6</ele>
        <time>2021-05-16T11:53:58Z</time>
      </trkpt>
      <trkpt lat="41.3606670" lon="-8.7575020">
        <ele>8.6</ele>
        <time>2021-05-16T11:53:59Z</time>
      </trkpt>
      <trkpt lat="41.3606670" lon="-8.7575020">
        <ele>8.6</ele>
        <time>2021-05-16T11:54:00Z</time>
      </trkpt>
      <trkpt lat="41.3606670" lon="-8.7575020">
        <ele>8.6</ele>
        <time>2021-05-16T11:54:01Z</time>
      </trkpt>
      <trkpt lat="41.3606670" lon="-8.7575020">
        <ele>8.6</ele>
        <time>2021-05-16T11:54:02Z</time>
      </trkpt>
      <trkpt lat="41.3606670" lon="-8.7575020">
        <ele>8.6</ele>
        <time>2021-05-16T11:54:03Z</time>
      </trkpt>
      <trkpt lat="41.3606670" lon="-8.7575020">
        <ele>8.6</ele>
        <time>2021-05-16T11:54:04Z</time>
      </trkpt>
      <trkpt lat="41.3606670" lon="-8.7575020">
        <ele>8.6</ele>
        <time>2021-05-16T11:54:05Z</time>
      </trkpt>
      <trkpt lat="41.3606670" lon="-8.7575020">
        <ele>8.6</ele>
        <time>2021-05-16T11:54:06Z</time>
      </trkpt>
      <trkpt lat="41.3606670" lon="-8.7575020">
        <ele>8.6</ele>
        <time>2021-05-16T11:54:07Z</time>
      </trkpt>
      <trkpt lat="41.3606670" lon="-8.7575020">
        <ele>8.6</ele>
        <time>2021-05-16T11:54:08Z</time>
      </trkpt>
      <trkpt lat="41.3606670" lon="-8.7575020">
        <ele>8.6</ele>
        <time>2021-05-16T11:54:09Z</time>
      </trkpt>
      <trkpt lat="41.3606670" lon="-8.7575020">
        <ele>8.6</ele>
        <time>2021-05-16T11:54:10Z</time>
      </trkpt>
      <trkpt lat="41.3606670" lon="-8.7575020">
        <ele>8.6</ele>
        <time>2021-05-16T11:54:11Z</time>
      </trkpt>
      <trkpt lat="41.3606670" lon="-8.7575020">
        <ele>8.6</ele>
        <time>2021-05-16T11:54:12Z</time>
      </trkpt>
      <trkpt lat="41.3606670" lon="-8.7575020">
        <ele>8.6</ele>
        <time>2021-05-16T11:54:13Z</time>
      </trkpt>
      <trkpt lat="41.3606670" lon="-8.7575020">
        <ele>8.6</ele>
        <time>2021-05-16T11:54:14Z</time>
      </trkpt>
      <trkpt lat="41.3606670" lon="-8.7575020">
        <ele>8.6</ele>
        <time>2021-05-16T11:54:15Z</time>
      </trkpt>
      <trkpt lat="41.3606670" lon="-8.7575020">
        <ele>8.6</ele>
        <time>2021-05-16T11:54:16Z</time>
      </trkpt>
      <trkpt lat="41.3606670" lon="-8.7575020">
        <ele>8.6</ele>
        <time>2021-05-16T11:54:17Z</time>
      </trkpt>
      <trkpt lat="41.3606670" lon="-8.7575020">
        <ele>8.6</ele>
        <time>2021-05-16T11:54:18Z</time>
      </trkpt>
      <trkpt lat="41.3606670" lon="-8.7575020">
        <ele>8.6</ele>
        <time>2021-05-16T11:54:19Z</time>
      </trkpt>
      <trkpt lat="41.3606670" lon="-8.7575020">
        <ele>8.6</ele>
        <time>2021-05-16T11:54:20Z</time>
      </trkpt>
      <trkpt lat="41.3606670" lon="-8.7575020">
        <ele>8.6</ele>
        <time>2021-05-16T11:54:21Z</time>
      </trkpt>
      <trkpt lat="41.3606670" lon="-8.7575020">
        <ele>8.6</ele>
        <time>2021-05-16T11:54:22Z</time>
      </trkpt>
      <trkpt lat="41.3606670" lon="-8.7575020">
        <ele>8.6</ele>
        <time>2021-05-16T11:54:23Z</time>
      </trkpt>
      <trkpt lat="41.3606670" lon="-8.7575020">
        <ele>8.6</ele>
        <time>2021-05-16T11:54:24Z</time>
      </trkpt>
      <trkpt lat="41.3606670" lon="-8.7575020">
        <ele>8.6</ele>
        <time>2021-05-16T11:54:25Z</time>
      </trkpt>
      <trkpt lat="41.3606670" lon="-8.7575020">
        <ele>8.6</ele>
        <time>2021-05-16T11:54:26Z</time>
      </trkpt>
      <trkpt lat="41.3606670" lon="-8.7575020">
        <ele>8.6</ele>
        <time>2021-05-16T11:54:27Z</time>
      </trkpt>
      <trkpt lat="41.3606670" lon="-8.7575020">
        <ele>8.6</ele>
        <time>2021-05-16T11:54:28Z</time>
      </trkpt>
      <trkpt lat="41.3606670" lon="-8.7575020">
        <ele>8.6</ele>
        <time>2021-05-16T11:54:29Z</time>
      </trkpt>
      <trkpt lat="41.3606670" lon="-8.7575020">
        <ele>8.6</ele>
        <time>2021-05-16T11:54:30Z</time>
      </trkpt>
      <trkpt lat="41.3606670" lon="-8.7575020">
        <ele>8.6</ele>
        <time>2021-05-16T11:54:31Z</time>
      </trkpt>
      <trkpt lat="41.3606670" lon="-8.7575020">
        <ele>8.6</ele>
        <time>2021-05-16T11:54:32Z</time>
      </trkpt>
      <trkpt lat="41.3606670" lon="-8.7575020">
        <ele>8.6</ele>
        <time>2021-05-16T11:54:33Z</time>
      </trkpt>
      <trkpt lat="41.3606670" lon="-8.7575020">
        <ele>8.6</ele>
        <time>2021-05-16T11:54:34Z</time>
      </trkpt>
      <trkpt lat="41.3606670" lon="-8.7575020">
        <ele>8.6</ele>
        <time>2021-05-16T11:54:35Z</time>
      </trkpt>
      <trkpt lat="41.3606670" lon="-8.7575020">
        <ele>8.6</ele>
        <time>2021-05-16T11:54:36Z</time>
      </trkpt>
      <trkpt lat="41.3606670" lon="-8.7575020">
        <ele>8.6</ele>
        <time>2021-05-16T11:54:37Z</time>
      </trkpt>
      <trkpt lat="41.3606670" lon="-8.7575020">
        <ele>8.6</ele>
        <time>2021-05-16T11:54:38Z</time>
      </trkpt>
      <trkpt lat="41.3606670" lon="-8.7575020">
        <ele>8.6</ele>
        <time>2021-05-16T11:54:39Z</time>
      </trkpt>
      <trkpt lat="41.3606670" lon="-8.7575020">
        <ele>8.6</ele>
        <time>2021-05-16T11:54:40Z</time>
      </trkpt>
      <trkpt lat="41.3606670" lon="-8.7575020">
        <ele>8.6</ele>
        <time>2021-05-16T11:54:41Z</time>
      </trkpt>
      <trkpt lat="41.3606670" lon="-8.7575020">
        <ele>8.6</ele>
        <time>2021-05-16T11:54:42Z</time>
      </trkpt>
      <trkpt lat="41.3606670" lon="-8.7575020">
        <ele>8.6</ele>
        <time>2021-05-16T11:54:43Z</time>
      </trkpt>
      <trkpt lat="41.3606670" lon="-8.7575020">
        <ele>8.6</ele>
        <time>2021-05-16T11:54:44Z</time>
      </trkpt>
      <trkpt lat="41.3606670" lon="-8.7575020">
        <ele>8.6</ele>
        <time>2021-05-16T11:54:45Z</time>
      </trkpt>
      <trkpt lat="41.3606670" lon="-8.7575020">
        <ele>8.6</ele>
        <time>2021-05-16T11:54:46Z</time>
      </trkpt>
      <trkpt lat="41.3606670" lon="-8.7575020">
        <ele>8.6</ele>
        <time>2021-05-16T11:54:47Z</time>
      </trkpt>
      <trkpt lat="41.3606670" lon="-8.7575020">
        <ele>8.6</ele>
        <time>2021-05-16T11:54:48Z</time>
      </trkpt>
      <trkpt lat="41.3606670" lon="-8.7575020">
        <ele>8.6</ele>
        <time>2021-05-16T11:54:49Z</time>
      </trkpt>
      <trkpt lat="41.3606670" lon="-8.7575020">
        <ele>8.6</ele>
        <time>2021-05-16T11:54:50Z</time>
      </trkpt>
      <trkpt lat="41.3606670" lon="-8.7575020">
        <ele>8.6</ele>
        <time>2021-05-16T11:54:51Z</time>
      </trkpt>
      <trkpt lat="41.3606670" lon="-8.7575020">
        <ele>8.6</ele>
        <time>2021-05-16T11:54:52Z</time>
      </trkpt>
      <trkpt lat="41.3606670" lon="-8.7575020">
        <ele>8.6</ele>
        <time>2021-05-16T11:54:53Z</time>
      </trkpt>
      <trkpt lat="41.3606670" lon="-8.7575020">
        <ele>8.6</ele>
        <time>2021-05-16T11:54:54Z</time>
      </trkpt>
      <trkpt lat="41.3606670" lon="-8.7575020">
        <ele>8.6</ele>
        <time>2021-05-16T11:54:55Z</time>
      </trkpt>
      <trkpt lat="41.3606670" lon="-8.7575020">
        <ele>8.6</ele>
        <time>2021-05-16T11:54:56Z</time>
      </trkpt>
      <trkpt lat="41.3606670" lon="-8.7575020">
        <ele>8.6</ele>
        <time>2021-05-16T11:54:57Z</time>
      </trkpt>
      <trkpt lat="41.3606670" lon="-8.7575020">
        <ele>8.6</ele>
        <time>2021-05-16T11:54:58Z</time>
      </trkpt>
      <trkpt lat="41.3606670" lon="-8.7575020">
        <ele>8.6</ele>
        <time>2021-05-16T11:54:59Z</time>
      </trkpt>
      <trkpt lat="41.3606670" lon="-8.7575020">
        <ele>8.6</ele>
        <time>2021-05-16T11:55:00Z</time>
      </trkpt>
      <trkpt lat="41.3606670" lon="-8.7575020">
        <ele>8.6</ele>
        <time>2021-05-16T11:55:01Z</time>
      </trkpt>
      <trkpt lat="41.3606670" lon="-8.7575020">
        <ele>8.6</ele>
        <time>2021-05-16T11:55:02Z</time>
      </trkpt>
      <trkpt lat="41.3606670" lon="-8.7575020">
        <ele>8.6</ele>
        <time>2021-05-16T11:55:03Z</time>
      </trkpt>
      <trkpt lat="41.3606670" lon="-8.7575020">
        <ele>8.6</ele>
        <time>2021-05-16T11:55:04Z</time>
      </trkpt>
      <trkpt lat="41.3606670" lon="-8.7575020">
        <ele>8.6</ele>
        <time>2021-05-16T11:55:05Z</time>
      </trkpt>
      <trkpt lat="41.3606670" lon="-8.7575020">
        <ele>8.6</ele>
        <time>2021-05-16T11:55:06Z</time>
      </trkpt>
      <trkpt lat="41.3606670" lon="-8.7575020">
        <ele>8.6</ele>
        <time>2021-05-16T11:55:07Z</time>
      </trkpt>
      <trkpt lat="41.3606670" lon="-8.7575020">
        <ele>8.6</ele>
        <time>2021-05-16T11:55:08Z</time>
      </trkpt>
      <trkpt lat="41.3606670" lon="-8.7575020">
        <ele>8.6</ele>
        <time>2021-05-16T11:55:09Z</time>
      </trkpt>
      <trkpt lat="41.3606670" lon="-8.7575020">
        <ele>8.6</ele>
        <time>2021-05-16T11:55:10Z</time>
      </trkpt>
      <trkpt lat="41.3606670" lon="-8.7575020">
        <ele>8.6</ele>
        <time>2021-05-16T11:55:11Z</time>
      </trkpt>
      <trkpt lat="41.3606670" lon="-8.7575020">
        <ele>8.6</ele>
        <time>2021-05-16T11:55:12Z</time>
      </trkpt>
      <trkpt lat="41.3606670" lon="-8.7575020">
        <ele>8.6</ele>
        <time>2021-05-16T11:55:13Z</time>
      </trkpt>
      <trkpt lat="41.3606670" lon="-8.7575020">
        <ele>8.6</ele>
        <time>2021-05-16T11:55:14Z</time>
      </trkpt>
      <trkpt lat="41.3606670" lon="-8.7575020">
        <ele>8.6</ele>
        <time>2021-05-16T11:55:15Z</time>
      </trkpt>
      <trkpt lat="41.3606670" lon="-8.7575020">
        <ele>8.6</ele>
        <time>2021-05-16T11:55:16Z</time>
      </trkpt>
      <trkpt lat="41.3606670" lon="-8.7575020">
        <ele>8.6</ele>
        <time>2021-05-16T11:55:17Z</time>
      </trkpt>
      <trkpt lat="41.3606670" lon="-8.7575020">
        <ele>8.6</ele>
        <time>2021-05-16T11:55:18Z</time>
      </trkpt>
      <trkpt lat="41.3606670" lon="-8.7575020">
        <ele>8.6</ele>
        <time>2021-05-16T11:55:19Z</time>
      </trkpt>
      <trkpt lat="41.3606670" lon="-8.7575020">
        <ele>8.6</ele>
        <time>2021-05-16T11:55:20Z</time>
      </trkpt>
      <trkpt lat="41.3606670" lon="-8.7575020">
        <ele>8.6</ele>
        <time>2021-05-16T11:55:21Z</time>
      </trkpt>
      <trkpt lat="41.3606670" lon="-8.7575020">
        <ele>8.6</ele>
        <time>2021-05-16T11:55:22Z</time>
      </trkpt>
      <trkpt lat="41.3606670" lon="-8.7575020">
        <ele>8.6</ele>
        <time>2021-05-16T11:55:23Z</time>
      </trkpt>
      <trkpt lat="41.3606670" lon="-8.7575020">
        <ele>8.6</ele>
        <time>2021-05-16T11:55:24Z</time>
      </trkpt>
      <trkpt lat="41.3606670" lon="-8.7575020">
        <ele>8.6</ele>
        <time>2021-05-16T11:55:25Z</time>
      </trkpt>
      <trkpt lat="41.3606670" lon="-8.7575020">
        <ele>8.6</ele>
        <time>2021-05-16T11:55:26Z</time>
      </trkpt>
      <trkpt lat="41.3606670" lon="-8.7575020">
        <ele>8.6</ele>
        <time>2021-05-16T11:55:27Z</time>
      </trkpt>
      <trkpt lat="41.3606670" lon="-8.7575020">
        <ele>8.6</ele>
        <time>2021-05-16T11:55:28Z</time>
      </trkpt>
      <trkpt lat="41.3606670" lon="-8.7575020">
        <ele>8.6</ele>
        <time>2021-05-16T11:55:29Z</time>
      </trkpt>
      <trkpt lat="41.3606670" lon="-8.7575020">
        <ele>8.6</ele>
        <time>2021-05-16T11:55:30Z</time>
      </trkpt>
      <trkpt lat="41.3606670" lon="-8.7575020">
        <ele>8.6</ele>
        <time>2021-05-16T11:55:31Z</time>
      </trkpt>
      <trkpt lat="41.3606670" lon="-8.7575020">
        <ele>8.6</ele>
        <time>2021-05-16T11:55:32Z</time>
      </trkpt>
      <trkpt lat="41.3606670" lon="-8.7575020">
        <ele>8.6</ele>
        <time>2021-05-16T11:55:33Z</time>
      </trkpt>
      <trkpt lat="41.3606670" lon="-8.7575020">
        <ele>8.6</ele>
        <time>2021-05-16T11:55:34Z</time>
      </trkpt>
      <trkpt lat="41.3606670" lon="-8.7575020">
        <ele>8.6</ele>
        <time>2021-05-16T11:55:35Z</time>
      </trkpt>
      <trkpt lat="41.3606670" lon="-8.7575020">
        <ele>8.6</ele>
        <time>2021-05-16T11:55:36Z</time>
      </trkpt>
      <trkpt lat="41.3606670" lon="-8.7575020">
        <ele>8.6</ele>
        <time>2021-05-16T11:55:37Z</time>
      </trkpt>
      <trkpt lat="41.3606670" lon="-8.7575020">
        <ele>8.6</ele>
        <time>2021-05-16T11:55:38Z</time>
      </trkpt>
      <trkpt lat="41.3606670" lon="-8.7575020">
        <ele>8.6</ele>
        <time>2021-05-16T11:55:39Z</time>
      </trkpt>
      <trkpt lat="41.3606670" lon="-8.7575020">
        <ele>8.6</ele>
        <time>2021-05-16T11:55:40Z</time>
      </trkpt>
      <trkpt lat="41.3606670" lon="-8.7575020">
        <ele>8.6</ele>
        <time>2021-05-16T11:55:41Z</time>
      </trkpt>
      <trkpt lat="41.3606670" lon="-8.7575020">
        <ele>8.6</ele>
        <time>2021-05-16T11:55:42Z</time>
      </trkpt>
      <trkpt lat="41.3606670" lon="-8.7575020">
        <ele>8.6</ele>
        <time>2021-05-16T11:55:43Z</time>
      </trkpt>
      <trkpt lat="41.3606670" lon="-8.7575020">
        <ele>8.6</ele>
        <time>2021-05-16T11:55:44Z</time>
      </trkpt>
      <trkpt lat="41.3606670" lon="-8.7575020">
        <ele>8.6</ele>
        <time>2021-05-16T11:55:45Z</time>
      </trkpt>
      <trkpt lat="41.3606670" lon="-8.7575020">
        <ele>8.6</ele>
        <time>2021-05-16T11:55:46Z</time>
      </trkpt>
      <trkpt lat="41.3606670" lon="-8.7575020">
        <ele>8.6</ele>
        <time>2021-05-16T11:55:47Z</time>
      </trkpt>
      <trkpt lat="41.3606670" lon="-8.7575020">
        <ele>8.6</ele>
        <time>2021-05-16T11:55:48Z</time>
      </trkpt>
      <trkpt lat="41.3606670" lon="-8.7575020">
        <ele>8.6</ele>
        <time>2021-05-16T11:55:49Z</time>
      </trkpt>
      <trkpt lat="41.3606670" lon="-8.7575020">
        <ele>8.6</ele>
        <time>2021-05-16T11:55:50Z</time>
      </trkpt>
      <trkpt lat="41.3606670" lon="-8.7575020">
        <ele>8.6</ele>
        <time>2021-05-16T11:55:51Z</time>
      </trkpt>
      <trkpt lat="41.3606670" lon="-8.7575020">
        <ele>8.6</ele>
        <time>2021-05-16T11:55:52Z</time>
      </trkpt>
      <trkpt lat="41.3606670" lon="-8.7575020">
        <ele>8.6</ele>
        <time>2021-05-16T11:55:53Z</time>
      </trkpt>
      <trkpt lat="41.3606670" lon="-8.7575020">
        <ele>8.6</ele>
        <time>2021-05-16T11:55:54Z</time>
      </trkpt>
      <trkpt lat="41.3606670" lon="-8.7575020">
        <ele>8.6</ele>
        <time>2021-05-16T11:55:55Z</time>
      </trkpt>
      <trkpt lat="41.3606670" lon="-8.7575020">
        <ele>8.6</ele>
        <time>2021-05-16T11:55:56Z</time>
      </trkpt>
      <trkpt lat="41.3606670" lon="-8.7575020">
        <ele>8.6</ele>
        <time>2021-05-16T11:55:57Z</time>
      </trkpt>
      <trkpt lat="41.3606670" lon="-8.7575020">
        <ele>8.6</ele>
        <time>2021-05-16T11:55:58Z</time>
      </trkpt>
      <trkpt lat="41.3606670" lon="-8.7575020">
        <ele>8.6</ele>
        <time>2021-05-16T11:55:59Z</time>
      </trkpt>
      <trkpt lat="41.3606670" lon="-8.7575020">
        <ele>8.6</ele>
        <time>2021-05-16T11:56:00Z</time>
      </trkpt>
      <trkpt lat="41.3606670" lon="-8.7575020">
        <ele>8.6</ele>
        <time>2021-05-16T11:56:01Z</time>
      </trkpt>
      <trkpt lat="41.3606670" lon="-8.7575020">
        <ele>8.6</ele>
        <time>2021-05-16T11:56:02Z</time>
      </trkpt>
      <trkpt lat="41.3606670" lon="-8.7575020">
        <ele>8.6</ele>
        <time>2021-05-16T11:56:03Z</time>
      </trkpt>
      <trkpt lat="41.3606670" lon="-8.7575020">
        <ele>8.6</ele>
        <time>2021-05-16T11:56:04Z</time>
      </trkpt>
      <trkpt lat="41.3606670" lon="-8.7575020">
        <ele>8.6</ele>
        <time>2021-05-16T11:56:05Z</time>
      </trkpt>
      <trkpt lat="41.3606670" lon="-8.7575020">
        <ele>8.6</ele>
        <time>2021-05-16T11:56:06Z</time>
      </trkpt>
      <trkpt lat="41.3606670" lon="-8.7575020">
        <ele>8.6</ele>
        <time>2021-05-16T11:56:07Z</time>
      </trkpt>
      <trkpt lat="41.3606670" lon="-8.7575020">
        <ele>8.6</ele>
        <time>2021-05-16T11:56:08Z</time>
      </trkpt>
      <trkpt lat="41.3606670" lon="-8.7575020">
        <ele>8.6</ele>
        <time>2021-05-16T11:56:09Z</time>
      </trkpt>
      <trkpt lat="41.3606670" lon="-8.7575020">
        <ele>8.6</ele>
        <time>2021-05-16T11:56:10Z</time>
      </trkpt>
      <trkpt lat="41.3606670" lon="-8.7575020">
        <ele>8.6</ele>
        <time>2021-05-16T11:56:11Z</time>
      </trkpt>
      <trkpt lat="41.3606670" lon="-8.7575020">
        <ele>8.6</ele>
        <time>2021-05-16T11:56:12Z</time>
      </trkpt>
      <trkpt lat="41.3606670" lon="-8.7575020">
        <ele>8.6</ele>
        <time>2021-05-16T11:56:13Z</time>
      </trkpt>
      <trkpt lat="41.3606670" lon="-8.7575020">
        <ele>8.6</ele>
        <time>2021-05-16T11:56:14Z</time>
      </trkpt>
      <trkpt lat="41.3606670" lon="-8.7575020">
        <ele>8.6</ele>
        <time>2021-05-16T11:56:15Z</time>
      </trkpt>
      <trkpt lat="41.3606670" lon="-8.7575020">
        <ele>8.6</ele>
        <time>2021-05-16T11:56:16Z</time>
      </trkpt>
      <trkpt lat="41.3606670" lon="-8.7575020">
        <ele>8.6</ele>
        <time>2021-05-16T11:56:17Z</time>
      </trkpt>
      <trkpt lat="41.3606670" lon="-8.7575020">
        <ele>8.6</ele>
        <time>2021-05-16T11:56:18Z</time>
      </trkpt>
      <trkpt lat="41.3606670" lon="-8.7575020">
        <ele>8.6</ele>
        <time>2021-05-16T11:56:19Z</time>
      </trkpt>
      <trkpt lat="41.3606670" lon="-8.7575020">
        <ele>8.6</ele>
        <time>2021-05-16T11:56:20Z</time>
      </trkpt>
      <trkpt lat="41.3606670" lon="-8.7575020">
        <ele>8.6</ele>
        <time>2021-05-16T11:56:21Z</time>
      </trkpt>
      <trkpt lat="41.3606670" lon="-8.7575020">
        <ele>8.6</ele>
        <time>2021-05-16T11:56:22Z</time>
      </trkpt>
      <trkpt lat="41.3606670" lon="-8.7575020">
        <ele>8.6</ele>
        <time>2021-05-16T11:56:23Z</time>
      </trkpt>
      <trkpt lat="41.3606670" lon="-8.7575020">
        <ele>8.6</ele>
        <time>2021-05-16T11:56:24Z</time>
      </trkpt>
      <trkpt lat="41.3606670" lon="-8.7575020">
        <ele>8.6</ele>
        <time>2021-05-16T11:56:25Z</time>
      </trkpt>
      <trkpt lat="41.3606670" lon="-8.7575020">
        <ele>8.6</ele>
        <time>2021-05-16T11:56:26Z</time>
      </trkpt>
      <trkpt lat="41.3606670" lon="-8.7575020">
        <ele>8.6</ele>
        <time>2021-05-16T11:56:27Z</time>
      </trkpt>
      <trkpt lat="41.3606670" lon="-8.7575020">
        <ele>8.6</ele>
        <time>2021-05-16T11:56:28Z</time>
      </trkpt>
      <trkpt lat="41.3606670" lon="-8.7575020">
        <ele>8.6</ele>
        <time>2021-05-16T11:56:29Z</time>
      </trkpt>
      <trkpt lat="41.3606670" lon="-8.7575020">
        <ele>8.6</ele>
        <time>2021-05-16T11:56:30Z</time>
      </trkpt>
      <trkpt lat="41.3606670" lon="-8.7575020">
        <ele>8.6</ele>
        <time>2021-05-16T11:56:31Z</time>
      </trkpt>
      <trkpt lat="41.3606670" lon="-8.7575020">
        <ele>8.6</ele>
        <time>2021-05-16T11:56:32Z</time>
      </trkpt>
      <trkpt lat="41.3606670" lon="-8.7575020">
        <ele>8.6</ele>
        <time>2021-05-16T11:56:33Z</time>
      </trkpt>
      <trkpt lat="41.3606670" lon="-8.7575020">
        <ele>8.6</ele>
        <time>2021-05-16T11:56:34Z</time>
      </trkpt>
      <trkpt lat="41.3606670" lon="-8.7575020">
        <ele>8.6</ele>
        <time>2021-05-16T11:56:35Z</time>
      </trkpt>
      <trkpt lat="41.3606670" lon="-8.7575020">
        <ele>8.6</ele>
        <time>2021-05-16T11:56:36Z</time>
      </trkpt>
      <trkpt lat="41.3606670" lon="-8.7575020">
        <ele>8.6</ele>
        <time>2021-05-16T11:56:37Z</time>
      </trkpt>
      <trkpt lat="41.3606670" lon="-8.7575020">
        <ele>8.6</ele>
        <time>2021-05-16T11:56:38Z</time>
      </trkpt>
      <trkpt lat="41.3606670" lon="-8.7575020">
        <ele>8.6</ele>
        <time>2021-05-16T11:56:39Z</time>
      </trkpt>
      <trkpt lat="41.3606670" lon="-8.7575020">
        <ele>8.6</ele>
        <time>2021-05-16T11:56:40Z</time>
      </trkpt>
      <trkpt lat="41.3606670" lon="-8.7575020">
        <ele>8.6</ele>
        <time>2021-05-16T11:56:41Z</time>
      </trkpt>
      <trkpt lat="41.3606670" lon="-8.7575020">
        <ele>8.6</ele>
        <time>2021-05-16T11:56:42Z</time>
      </trkpt>
      <trkpt lat="41.3606670" lon="-8.7575020">
        <ele>8.6</ele>
        <time>2021-05-16T11:56:43Z</time>
      </trkpt>
      <trkpt lat="41.3606670" lon="-8.7575020">
        <ele>8.6</ele>
        <time>2021-05-16T11:56:44Z</time>
      </trkpt>
      <trkpt lat="41.3606670" lon="-8.7575020">
        <ele>8.6</ele>
        <time>2021-05-16T11:56:45Z</time>
      </trkpt>
      <trkpt lat="41.3606670" lon="-8.7575020">
        <ele>8.6</ele>
        <time>2021-05-16T11:56:46Z</time>
      </trkpt>
      <trkpt lat="41.3606670" lon="-8.7575020">
        <ele>8.6</ele>
        <time>2021-05-16T11:56:47Z</time>
      </trkpt>
      <trkpt lat="41.3606670" lon="-8.7575020">
        <ele>8.6</ele>
        <time>2021-05-16T11:56:48Z</time>
      </trkpt>
      <trkpt lat="41.3606670" lon="-8.7575020">
        <ele>8.6</ele>
        <time>2021-05-16T11:56:49Z</time>
      </trkpt>
      <trkpt lat="41.3606670" lon="-8.7575020">
        <ele>8.6</ele>
        <time>2021-05-16T11:56:50Z</time>
      </trkpt>
      <trkpt lat="41.3606670" lon="-8.7575020">
        <ele>8.6</ele>
        <time>2021-05-16T11:56:51Z</time>
      </trkpt>
      <trkpt lat="41.3606670" lon="-8.7575020">
        <ele>8.6</ele>
        <time>2021-05-16T11:56:52Z</time>
      </trkpt>
      <trkpt lat="41.3606670" lon="-8.7575020">
        <ele>8.6</ele>
        <time>2021-05-16T11:56:53Z</time>
      </trkpt>
      <trkpt lat="41.3606670" lon="-8.7575020">
        <ele>8.6</ele>
        <time>2021-05-16T11:56:54Z</time>
      </trkpt>
      <trkpt lat="41.3606670" lon="-8.7575020">
        <ele>8.6</ele>
        <time>2021-05-16T11:56:55Z</time>
      </trkpt>
      <trkpt lat="41.3606670" lon="-8.7575020">
        <ele>8.6</ele>
        <time>2021-05-16T11:56:56Z</time>
      </trkpt>
      <trkpt lat="41.3606670" lon="-8.7575020">
        <ele>8.6</ele>
        <time>2021-05-16T11:56:57Z</time>
      </trkpt>
      <trkpt lat="41.3606670" lon="-8.7575020">
        <ele>8.6</ele>
        <time>2021-05-16T11:56:58Z</time>
      </trkpt>
      <trkpt lat="41.3606670" lon="-8.7575020">
        <ele>8.6</ele>
        <time>2021-05-16T11:56:59Z</time>
      </trkpt>
      <trkpt lat="41.3606670" lon="-8.7575020">
        <ele>8.6</ele>
        <time>2021-05-16T11:57:00Z</time>
      </trkpt>
      <trkpt lat="41.3606670" lon="-8.7575020">
        <ele>8.6</ele>
        <time>2021-05-16T11:57:01Z</time>
      </trkpt>
      <trkpt lat="41.3606670" lon="-8.7575020">
        <ele>8.6</ele>
        <time>2021-05-16T11:57:02Z</time>
      </trkpt>
      <trkpt lat="41.3606670" lon="-8.7575020">
        <ele>8.6</ele>
        <time>2021-05-16T11:57:03Z</time>
      </trkpt>
      <trkpt lat="41.3606670" lon="-8.7575020">
        <ele>8.6</ele>
        <time>2021-05-16T11:57:04Z</time>
      </trkpt>
      <trkpt lat="41.3606670" lon="-8.7575020">
        <ele>8.6</ele>
        <time>2021-05-16T11:57:05Z</time>
      </trkpt>
      <trkpt lat="41.3606670" lon="-8.7575020">
        <ele>8.6</ele>
        <time>2021-05-16T11:57:06Z</time>
      </trkpt>
      <trkpt lat="41.3606670" lon="-8.7575020">
        <ele>8.6</ele>
        <time>2021-05-16T11:57:07Z</time>
      </trkpt>
      <trkpt lat="41.3606670" lon="-8.7575020">
        <ele>8.6</ele>
        <time>2021-05-16T11:57:08Z</time>
      </trkpt>
      <trkpt lat="41.3606670" lon="-8.7575020">
        <ele>8.6</ele>
        <time>2021-05-16T11:57:09Z</time>
      </trkpt>
      <trkpt lat="41.3606670" lon="-8.7575020">
        <ele>8.6</ele>
        <time>2021-05-16T11:57:10Z</time>
      </trkpt>
      <trkpt lat="41.3606670" lon="-8.7575020">
        <ele>8.6</ele>
        <time>2021-05-16T11:57:11Z</time>
      </trkpt>
      <trkpt lat="41.3606670" lon="-8.7575020">
        <ele>8.6</ele>
        <time>2021-05-16T11:57:12Z</time>
      </trkpt>
      <trkpt lat="41.3606670" lon="-8.7575020">
        <ele>8.6</ele>
        <time>2021-05-16T11:57:13Z</time>
      </trkpt>
      <trkpt lat="41.3606670" lon="-8.7575020">
        <ele>8.6</ele>
        <time>2021-05-16T11:57:14Z</time>
      </trkpt>
      <trkpt lat="41.3606670" lon="-8.7575020">
        <ele>8.6</ele>
        <time>2021-05-16T11:57:15Z</time>
      </trkpt>
      <trkpt lat="41.3606670" lon="-8.7575020">
        <ele>8.6</ele>
        <time>2021-05-16T11:57:16Z</time>
      </trkpt>
      <trkpt lat="41.3606670" lon="-8.7575020">
        <ele>8.6</ele>
        <time>2021-05-16T11:57:17Z</time>
      </trkpt>
      <trkpt lat="41.3606670" lon="-8.7575020">
        <ele>8.6</ele>
        <time>2021-05-16T11:57:18Z</time>
      </trkpt>
      <trkpt lat="41.3606670" lon="-8.7575020">
        <ele>8.6</ele>
        <time>2021-05-16T11:57:19Z</time>
      </trkpt>
      <trkpt lat="41.3606670" lon="-8.7575020">
        <ele>8.6</ele>
        <time>2021-05-16T11:57:20Z</time>
      </trkpt>
      <trkpt lat="41.3606670" lon="-8.7575020">
        <ele>8.6</ele>
        <time>2021-05-16T11:57:21Z</time>
      </trkpt>
      <trkpt lat="41.3606670" lon="-8.7575020">
        <ele>8.6</ele>
        <time>2021-05-16T11:57:22Z</time>
      </trkpt>
      <trkpt lat="41.3606670" lon="-8.7575020">
        <ele>8.6</ele>
        <time>2021-05-16T11:57:23Z</time>
      </trkpt>
      <trkpt lat="41.3606670" lon="-8.7575020">
        <ele>8.6</ele>
        <time>2021-05-16T11:57:24Z</time>
      </trkpt>
      <trkpt lat="41.3606670" lon="-8.7575020">
        <ele>8.6</ele>
        <time>2021-05-16T11:57:25Z</time>
      </trkpt>
      <trkpt lat="41.3606670" lon="-8.7575020">
        <ele>8.6</ele>
        <time>2021-05-16T11:57:26Z</time>
      </trkpt>
      <trkpt lat="41.3606670" lon="-8.7575020">
        <ele>8.6</ele>
        <time>2021-05-16T11:57:27Z</time>
      </trkpt>
      <trkpt lat="41.3606670" lon="-8.7575020">
        <ele>8.6</ele>
        <time>2021-05-16T11:57:28Z</time>
      </trkpt>
      <trkpt lat="41.3606670" lon="-8.7575020">
        <ele>8.6</ele>
        <time>2021-05-16T11:57:29Z</time>
      </trkpt>
      <trkpt lat="41.3606670" lon="-8.7575020">
        <ele>8.6</ele>
        <time>2021-05-16T11:57:30Z</time>
      </trkpt>
      <trkpt lat="41.3606670" lon="-8.7575020">
        <ele>8.6</ele>
        <time>2021-05-16T11:57:31Z</time>
      </trkpt>
      <trkpt lat="41.3606670" lon="-8.7575020">
        <ele>8.6</ele>
        <time>2021-05-16T11:57:32Z</time>
      </trkpt>
      <trkpt lat="41.3606670" lon="-8.7575020">
        <ele>8.6</ele>
        <time>2021-05-16T11:57:33Z</time>
      </trkpt>
      <trkpt lat="41.3606670" lon="-8.7575020">
        <ele>8.6</ele>
        <time>2021-05-16T11:57:34Z</time>
      </trkpt>
      <trkpt lat="41.3606670" lon="-8.7575020">
        <ele>8.6</ele>
        <time>2021-05-16T11:57:35Z</time>
      </trkpt>
      <trkpt lat="41.3606670" lon="-8.7575020">
        <ele>8.6</ele>
        <time>2021-05-16T11:57:36Z</time>
      </trkpt>
      <trkpt lat="41.3606670" lon="-8.7575020">
        <ele>8.6</ele>
        <time>2021-05-16T11:57:37Z</time>
      </trkpt>
      <trkpt lat="41.3606670" lon="-8.7575020">
        <ele>8.6</ele>
        <time>2021-05-16T11:57:38Z</time>
      </trkpt>
      <trkpt lat="41.3606670" lon="-8.7575020">
        <ele>8.6</ele>
        <time>2021-05-16T11:57:39Z</time>
      </trkpt>
      <trkpt lat="41.3606670" lon="-8.7575020">
        <ele>8.6</ele>
        <time>2021-05-16T11:57:40Z</time>
      </trkpt>
      <trkpt lat="41.3606670" lon="-8.7575020">
        <ele>8.6</ele>
        <time>2021-05-16T11:57:41Z</time>
      </trkpt>
      <trkpt lat="41.3606670" lon="-8.7575020">
        <ele>8.6</ele>
        <time>2021-05-16T11:57:42Z</time>
      </trkpt>
      <trkpt lat="41.3606670" lon="-8.7575020">
        <ele>8.6</ele>
        <time>2021-05-16T11:57:43Z</time>
      </trkpt>
      <trkpt lat="41.3606670" lon="-8.7575020">
        <ele>8.6</ele>
        <time>2021-05-16T11:57:44Z</time>
      </trkpt>
      <trkpt lat="41.3606670" lon="-8.7575020">
        <ele>8.6</ele>
        <time>2021-05-16T11:57:45Z</time>
      </trkpt>
      <trkpt lat="41.3606670" lon="-8.7575020">
        <ele>8.6</ele>
        <time>2021-05-16T11:57:46Z</time>
      </trkpt>
      <trkpt lat="41.3606670" lon="-8.7575020">
        <ele>8.6</ele>
        <time>2021-05-16T11:57:47Z</time>
      </trkpt>
      <trkpt lat="41.3606670" lon="-8.7575020">
        <ele>8.6</ele>
        <time>2021-05-16T11:57:48Z</time>
      </trkpt>
      <trkpt lat="41.3606670" lon="-8.7575020">
        <ele>8.6</ele>
        <time>2021-05-16T11:57:49Z</time>
      </trkpt>
      <trkpt lat="41.3606670" lon="-8.7575020">
        <ele>8.6</ele>
        <time>2021-05-16T11:57:50Z</time>
      </trkpt>
      <trkpt lat="41.3606670" lon="-8.7575020">
        <ele>8.6</ele>
        <time>2021-05-16T11:57:51Z</time>
      </trkpt>
      <trkpt lat="41.3606670" lon="-8.7575020">
        <ele>8.6</ele>
        <time>2021-05-16T11:57:52Z</time>
      </trkpt>
      <trkpt lat="41.3606670" lon="-8.7575020">
        <ele>8.6</ele>
        <time>2021-05-16T11:57:53Z</time>
      </trkpt>
      <trkpt lat="41.3606670" lon="-8.7575020">
        <ele>8.6</ele>
        <time>2021-05-16T11:57:54Z</time>
      </trkpt>
      <trkpt lat="41.3606670" lon="-8.7575020">
        <ele>8.6</ele>
        <time>2021-05-16T11:57:55Z</time>
      </trkpt>
      <trkpt lat="41.3606670" lon="-8.7575020">
        <ele>8.6</ele>
        <time>2021-05-16T11:57:56Z</time>
      </trkpt>
      <trkpt lat="41.3606670" lon="-8.7575020">
        <ele>8.6</ele>
        <time>2021-05-16T11:57:57Z</time>
      </trkpt>
      <trkpt lat="41.3606670" lon="-8.7575020">
        <ele>8.6</ele>
        <time>2021-05-16T11:57:58Z</time>
      </trkpt>
      <trkpt lat="41.3606670" lon="-8.7575020">
        <ele>8.6</ele>
        <time>2021-05-16T11:57:59Z</time>
      </trkpt>
      <trkpt lat="41.3606670" lon="-8.7575020">
        <ele>8.6</ele>
        <time>2021-05-16T11:58:00Z</time>
      </trkpt>
      <trkpt lat="41.3606670" lon="-8.7575020">
        <ele>8.6</ele>
        <time>2021-05-16T11:58:01Z</time>
      </trkpt>
      <trkpt lat="41.3606670" lon="-8.7575020">
        <ele>8.6</ele>
        <time>2021-05-16T11:58:02Z</time>
      </trkpt>
      <trkpt lat="41.3606670" lon="-8.7575020">
        <ele>8.6</ele>
        <time>2021-05-16T11:58:03Z</time>
      </trkpt>
      <trkpt lat="41.3606670" lon="-8.7575020">
        <ele>8.6</ele>
        <time>2021-05-16T11:58:04Z</time>
      </trkpt>
      <trkpt lat="41.3606670" lon="-8.7575020">
        <ele>8.6</ele>
        <time>2021-05-16T11:58:05Z</time>
      </trkpt>
      <trkpt lat="41.3606670" lon="-8.7575020">
        <ele>8.6</ele>
        <time>2021-05-16T11:58:06Z</time>
      </trkpt>
      <trkpt lat="41.3606670" lon="-8.7575020">
        <ele>8.6</ele>
        <time>2021-05-16T11:58:07Z</time>
      </trkpt>
      <trkpt lat="41.3606670" lon="-8.7575020">
        <ele>8.6</ele>
        <time>2021-05-16T11:58:08Z</time>
      </trkpt>
      <trkpt lat="41.3606670" lon="-8.7575020">
        <ele>8.6</ele>
        <time>2021-05-16T11:58:09Z</time>
      </trkpt>
      <trkpt lat="41.3606670" lon="-8.7575020">
        <ele>8.6</ele>
        <time>2021-05-16T11:58:10Z</time>
      </trkpt>
      <trkpt lat="41.3606670" lon="-8.7575020">
        <ele>8.6</ele>
        <time>2021-05-16T11:58:11Z</time>
      </trkpt>
      <trkpt lat="41.3606670" lon="-8.7575020">
        <ele>8.6</ele>
        <time>2021-05-16T11:58:12Z</time>
      </trkpt>
      <trkpt lat="41.3606670" lon="-8.7575020">
        <ele>8.6</ele>
        <time>2021-05-16T11:58:13Z</time>
      </trkpt>
      <trkpt lat="41.3606670" lon="-8.7575020">
        <ele>8.6</ele>
        <time>2021-05-16T11:58:14Z</time>
      </trkpt>
      <trkpt lat="41.3606670" lon="-8.7575020">
        <ele>8.6</ele>
        <time>2021-05-16T11:58:15Z</time>
      </trkpt>
      <trkpt lat="41.3606670" lon="-8.7575020">
        <ele>8.6</ele>
        <time>2021-05-16T11:58:16Z</time>
      </trkpt>
      <trkpt lat="41.3606670" lon="-8.7575020">
        <ele>8.6</ele>
        <time>2021-05-16T11:58:17Z</time>
      </trkpt>
      <trkpt lat="41.3606670" lon="-8.7575020">
        <ele>8.6</ele>
        <time>2021-05-16T11:58:18Z</time>
      </trkpt>
      <trkpt lat="41.3606670" lon="-8.7575020">
        <ele>8.6</ele>
        <time>2021-05-16T11:58:19Z</time>
      </trkpt>
      <trkpt lat="41.3606670" lon="-8.7575020">
        <ele>8.6</ele>
        <time>2021-05-16T11:58:20Z</time>
      </trkpt>
      <trkpt lat="41.3606670" lon="-8.7575020">
        <ele>8.6</ele>
        <time>2021-05-16T11:58:21Z</time>
      </trkpt>
      <trkpt lat="41.3606670" lon="-8.7575020">
        <ele>8.6</ele>
        <time>2021-05-16T11:58:22Z</time>
      </trkpt>
      <trkpt lat="41.3606670" lon="-8.7575020">
        <ele>8.6</ele>
        <time>2021-05-16T11:58:23Z</time>
      </trkpt>
      <trkpt lat="41.3606670" lon="-8.7575020">
        <ele>8.6</ele>
        <time>2021-05-16T11:58:24Z</time>
      </trkpt>
      <trkpt lat="41.3606670" lon="-8.7575020">
        <ele>8.6</ele>
        <time>2021-05-16T11:58:25Z</time>
      </trkpt>
      <trkpt lat="41.3606670" lon="-8.7575020">
        <ele>8.6</ele>
        <time>2021-05-16T11:58:26Z</time>
      </trkpt>
      <trkpt lat="41.3606670" lon="-8.7575020">
        <ele>8.6</ele>
        <time>2021-05-16T11:58:27Z</time>
      </trkpt>
      <trkpt lat="41.3606670" lon="-8.7575020">
        <ele>8.6</ele>
        <time>2021-05-16T11:58:28Z</time>
      </trkpt>
      <trkpt lat="41.3606670" lon="-8.7575020">
        <ele>8.6</ele>
        <time>2021-05-16T11:58:29Z</time>
      </trkpt>
      <trkpt lat="41.3606670" lon="-8.7575020">
        <ele>8.6</ele>
        <time>2021-05-16T11:58:30Z</time>
      </trkpt>
      <trkpt lat="41.3606670" lon="-8.7575020">
        <ele>8.6</ele>
        <time>2021-05-16T11:58:31Z</time>
      </trkpt>
      <trkpt lat="41.3606670" lon="-8.7575020">
        <ele>8.6</ele>
        <time>2021-05-16T11:58:32Z</time>
      </trkpt>
      <trkpt lat="41.3606670" lon="-8.7575020">
        <ele>8.6</ele>
        <time>2021-05-16T11:58:33Z</time>
      </trkpt>
      <trkpt lat="41.3606670" lon="-8.7575020">
        <ele>8.6</ele>
        <time>2021-05-16T11:58:34Z</time>
      </trkpt>
      <trkpt lat="41.3606670" lon="-8.7575020">
        <ele>8.6</ele>
        <time>2021-05-16T11:58:35Z</time>
      </trkpt>
      <trkpt lat="41.3606670" lon="-8.7575020">
        <ele>8.6</ele>
        <time>2021-05-16T11:58:36Z</time>
      </trkpt>
      <trkpt lat="41.3606670" lon="-8.7575020">
        <ele>8.6</ele>
        <time>2021-05-16T11:58:37Z</time>
      </trkpt>
      <trkpt lat="41.3606670" lon="-8.7575020">
        <ele>8.6</ele>
        <time>2021-05-16T11:58:38Z</time>
      </trkpt>
      <trkpt lat="41.3606670" lon="-8.7575020">
        <ele>8.6</ele>
        <time>2021-05-16T11:58:39Z</time>
      </trkpt>
      <trkpt lat="41.3606670" lon="-8.7575020">
        <ele>8.6</ele>
        <time>2021-05-16T11:58:40Z</time>
      </trkpt>
      <trkpt lat="41.3606670" lon="-8.7575020">
        <ele>8.6</ele>
        <time>2021-05-16T11:58:41Z</time>
      </trkpt>
      <trkpt lat="41.3606670" lon="-8.7575020">
        <ele>8.6</ele>
        <time>2021-05-16T11:58:42Z</time>
      </trkpt>
      <trkpt lat="41.3606670" lon="-8.7575020">
        <ele>8.6</ele>
        <time>2021-05-16T11:58:43Z</time>
      </trkpt>
      <trkpt lat="41.3606670" lon="-8.7575020">
        <ele>8.6</ele>
        <time>2021-05-16T11:58:44Z</time>
      </trkpt>
      <trkpt lat="41.3606670" lon="-8.7575020">
        <ele>8.6</ele>
        <time>2021-05-16T11:58:45Z</time>
      </trkpt>
      <trkpt lat="41.3606670" lon="-8.7575020">
        <ele>8.6</ele>
        <time>2021-05-16T11:58:46Z</time>
      </trkpt>
      <trkpt lat="41.3606670" lon="-8.7575020">
        <ele>8.6</ele>
        <time>2021-05-16T11:58:47Z</time>
      </trkpt>
      <trkpt lat="41.3606670" lon="-8.7575020">
        <ele>8.6</ele>
        <time>2021-05-16T11:58:48Z</time>
      </trkpt>
      <trkpt lat="41.3606670" lon="-8.7575020">
        <ele>8.6</ele>
        <time>2021-05-16T11:58:49Z</time>
      </trkpt>
      <trkpt lat="41.3606670" lon="-8.7575020">
        <ele>8.6</ele>
        <time>2021-05-16T11:58:50Z</time>
      </trkpt>
      <trkpt lat="41.3606670" lon="-8.7575020">
        <ele>8.6</ele>
        <time>2021-05-16T11:58:51Z</time>
      </trkpt>
      <trkpt lat="41.3606670" lon="-8.7575020">
        <ele>8.6</ele>
        <time>2021-05-16T11:58:52Z</time>
      </trkpt>
      <trkpt lat="41.3606670" lon="-8.7575020">
        <ele>8.6</ele>
        <time>2021-05-16T11:58:53Z</time>
      </trkpt>
      <trkpt lat="41.3606670" lon="-8.7575020">
        <ele>8.6</ele>
        <time>2021-05-16T11:58:54Z</time>
      </trkpt>
      <trkpt lat="41.3606670" lon="-8.7575020">
        <ele>8.6</ele>
        <time>2021-05-16T11:58:55Z</time>
      </trkpt>
      <trkpt lat="41.3606670" lon="-8.7575020">
        <ele>8.6</ele>
        <time>2021-05-16T11:58:56Z</time>
      </trkpt>
      <trkpt lat="41.3606670" lon="-8.7575020">
        <ele>8.6</ele>
        <time>2021-05-16T11:58:57Z</time>
      </trkpt>
      <trkpt lat="41.3606670" lon="-8.7575020">
        <ele>8.6</ele>
        <time>2021-05-16T11:58:58Z</time>
      </trkpt>
      <trkpt lat="41.3606670" lon="-8.7575020">
        <ele>8.6</ele>
        <time>2021-05-16T11:58:59Z</time>
      </trkpt>
      <trkpt lat="41.3606670" lon="-8.7575020">
        <ele>8.6</ele>
        <time>2021-05-16T11:59:00Z</time>
      </trkpt>
      <trkpt lat="41.3606670" lon="-8.7575020">
        <ele>8.6</ele>
        <time>2021-05-16T11:59:01Z</time>
      </trkpt>
      <trkpt lat="41.3606670" lon="-8.7575020">
        <ele>8.6</ele>
        <time>2021-05-16T11:59:02Z</time>
      </trkpt>
      <trkpt lat="41.3606670" lon="-8.7575020">
        <ele>8.6</ele>
        <time>2021-05-16T11:59:03Z</time>
      </trkpt>
      <trkpt lat="41.3606670" lon="-8.7575020">
        <ele>8.6</ele>
        <time>2021-05-16T11:59:04Z</time>
      </trkpt>
      <trkpt lat="41.3606670" lon="-8.7575020">
        <ele>8.6</ele>
        <time>2021-05-16T11:59:05Z</time>
      </trkpt>
      <trkpt lat="41.3606670" lon="-8.7575020">
        <ele>8.6</ele>
        <time>2021-05-16T11:59:06Z</time>
      </trkpt>
      <trkpt lat="41.3606670" lon="-8.7575020">
        <ele>8.6</ele>
        <time>2021-05-16T11:59:07Z</time>
      </trkpt>
      <trkpt lat="41.3606670" lon="-8.7575020">
        <ele>8.6</ele>
        <time>2021-05-16T11:59:08Z</time>
      </trkpt>
      <trkpt lat="41.3606670" lon="-8.7575020">
        <ele>8.6</ele>
        <time>2021-05-16T11:59:09Z</time>
      </trkpt>
      <trkpt lat="41.3606670" lon="-8.7575020">
        <ele>8.6</ele>
        <time>2021-05-16T11:59:10Z</time>
      </trkpt>
      <trkpt lat="41.3606670" lon="-8.7575020">
        <ele>8.6</ele>
        <time>2021-05-16T11:59:11Z</time>
      </trkpt>
      <trkpt lat="41.3606670" lon="-8.7575020">
        <ele>8.6</ele>
        <time>2021-05-16T11:59:12Z</time>
      </trkpt>
      <trkpt lat="41.3606670" lon="-8.7575020">
        <ele>8.6</ele>
        <time>2021-05-16T11:59:13Z</time>
      </trkpt>
      <trkpt lat="41.3606670" lon="-8.7575020">
        <ele>8.6</ele>
        <time>2021-05-16T11:59:14Z</time>
      </trkpt>
      <trkpt lat="41.3606670" lon="-8.7575020">
        <ele>8.6</ele>
        <time>2021-05-16T11:59:15Z</time>
      </trkpt>
      <trkpt lat="41.3606670" lon="-8.7575020">
        <ele>8.6</ele>
        <time>2021-05-16T11:59:16Z</time>
      </trkpt>
      <trkpt lat="41.3606670" lon="-8.7575020">
        <ele>8.6</ele>
        <time>2021-05-16T11:59:17Z</time>
      </trkpt>
      <trkpt lat="41.3606670" lon="-8.7575020">
        <ele>8.6</ele>
        <time>2021-05-16T11:59:18Z</time>
      </trkpt>
      <trkpt lat="41.3606670" lon="-8.7575020">
        <ele>8.6</ele>
        <time>2021-05-16T11:59:19Z</time>
      </trkpt>
      <trkpt lat="41.3606670" lon="-8.7575020">
        <ele>8.6</ele>
        <time>2021-05-16T11:59:20Z</time>
      </trkpt>
      <trkpt lat="41.3606670" lon="-8.7575020">
        <ele>8.6</ele>
        <time>2021-05-16T11:59:21Z</time>
      </trkpt>
      <trkpt lat="41.3606670" lon="-8.7575020">
        <ele>8.6</ele>
        <time>2021-05-16T11:59:22Z</time>
      </trkpt>
      <trkpt lat="41.3606670" lon="-8.7575020">
        <ele>8.6</ele>
        <time>2021-05-16T11:59:23Z</time>
      </trkpt>
      <trkpt lat="41.3606670" lon="-8.7575020">
        <ele>8.6</ele>
        <time>2021-05-16T11:59:24Z</time>
      </trkpt>
      <trkpt lat="41.3606670" lon="-8.7575020">
        <ele>8.6</ele>
        <time>2021-05-16T11:59:25Z</time>
      </trkpt>
      <trkpt lat="41.3606670" lon="-8.7575020">
        <ele>8.6</ele>
        <time>2021-05-16T11:59:26Z</time>
      </trkpt>
      <trkpt lat="41.3606670" lon="-8.7575020">
        <ele>8.6</ele>
        <time>2021-05-16T11:59:27Z</time>
      </trkpt>
      <trkpt lat="41.3606670" lon="-8.7575020">
        <ele>8.6</ele>
        <time>2021-05-16T11:59:28Z</time>
      </trkpt>
      <trkpt lat="41.3606670" lon="-8.7575020">
        <ele>8.6</ele>
        <time>2021-05-16T11:59:29Z</time>
      </trkpt>
      <trkpt lat="41.3606670" lon="-8.7575020">
        <ele>8.6</ele>
        <time>2021-05-16T11:59:30Z</time>
      </trkpt>
      <trkpt lat="41.3606670" lon="-8.7575020">
        <ele>8.6</ele>
        <time>2021-05-16T11:59:31Z</time>
      </trkpt>
      <trkpt lat="41.3606670" lon="-8.7575020">
        <ele>8.6</ele>
        <time>2021-05-16T11:59:32Z</time>
      </trkpt>
      <trkpt lat="41.3606670" lon="-8.7575020">
        <ele>8.6</ele>
        <time>2021-05-16T11:59:33Z</time>
      </trkpt>
      <trkpt lat="41.3606670" lon="-8.7575020">
        <ele>8.6</ele>
        <time>2021-05-16T11:59:34Z</time>
      </trkpt>
      <trkpt lat="41.3606670" lon="-8.7575020">
        <ele>8.6</ele>
        <time>2021-05-16T11:59:35Z</time>
      </trkpt>
      <trkpt lat="41.3606670" lon="-8.7575020">
        <ele>8.6</ele>
        <time>2021-05-16T11:59:36Z</time>
      </trkpt>
      <trkpt lat="41.3606670" lon="-8.7575020">
        <ele>8.6</ele>
        <time>2021-05-16T11:59:37Z</time>
      </trkpt>
      <trkpt lat="41.3606670" lon="-8.7575020">
        <ele>8.6</ele>
        <time>2021-05-16T11:59:38Z</time>
      </trkpt>
      <trkpt lat="41.3606670" lon="-8.7575020">
        <ele>8.6</ele>
        <time>2021-05-16T11:59:39Z</time>
      </trkpt>
      <trkpt lat="41.3606670" lon="-8.7575020">
        <ele>8.6</ele>
        <time>2021-05-16T11:59:40Z</time>
      </trkpt>
      <trkpt lat="41.3606670" lon="-8.7575020">
        <ele>8.6</ele>
        <time>2021-05-16T11:59:41Z</time>
      </trkpt>
      <trkpt lat="41.3606670" lon="-8.7575020">
        <ele>8.6</ele>
        <time>2021-05-16T11:59:42Z</time>
      </trkpt>
      <trkpt lat="41.3606670" lon="-8.7575020">
        <ele>8.6</ele>
        <time>2021-05-16T11:59:43Z</time>
      </trkpt>
      <trkpt lat="41.3606670" lon="-8.7575020">
        <ele>8.6</ele>
        <time>2021-05-16T11:59:44Z</time>
      </trkpt>
      <trkpt lat="41.3606670" lon="-8.7575020">
        <ele>8.6</ele>
        <time>2021-05-16T11:59:45Z</time>
      </trkpt>
      <trkpt lat="41.3606670" lon="-8.7575020">
        <ele>8.6</ele>
        <time>2021-05-16T11:59:46Z</time>
      </trkpt>
      <trkpt lat="41.3606670" lon="-8.7575020">
        <ele>8.6</ele>
        <time>2021-05-16T11:59:47Z</time>
      </trkpt>
      <trkpt lat="41.3606670" lon="-8.7575020">
        <ele>8.6</ele>
        <time>2021-05-16T11:59:48Z</time>
      </trkpt>
      <trkpt lat="41.3606670" lon="-8.7575020">
        <ele>8.6</ele>
        <time>2021-05-16T11:59:49Z</time>
      </trkpt>
      <trkpt lat="41.3606670" lon="-8.7575020">
        <ele>8.6</ele>
        <time>2021-05-16T11:59:50Z</time>
      </trkpt>
      <trkpt lat="41.3606670" lon="-8.7575020">
        <ele>8.6</ele>
        <time>2021-05-16T11:59:51Z</time>
      </trkpt>
      <trkpt lat="41.3606670" lon="-8.7575020">
        <ele>8.6</ele>
        <time>2021-05-16T11:59:52Z</time>
      </trkpt>
      <trkpt lat="41.3606670" lon="-8.7575020">
        <ele>8.6</ele>
        <time>2021-05-16T11:59:53Z</time>
      </trkpt>
      <trkpt lat="41.3606670" lon="-8.7575020">
        <ele>8.6</ele>
        <time>2021-05-16T11:59:54Z</time>
      </trkpt>
      <trkpt lat="41.3606670" lon="-8.7575020">
        <ele>8.6</ele>
        <time>2021-05-16T11:59:55Z</time>
      </trkpt>
      <trkpt lat="41.3606670" lon="-8.7575020">
        <ele>8.6</ele>
        <time>2021-05-16T11:59:56Z</time>
      </trkpt>
      <trkpt lat="41.3606670" lon="-8.7575020">
        <ele>8.6</ele>
        <time>2021-05-16T11:59:57Z</time>
      </trkpt>
      <trkpt lat="41.3606670" lon="-8.7575020">
        <ele>8.6</ele>
        <time>2021-05-16T11:59:58Z</time>
      </trkpt>
      <trkpt lat="41.3606670" lon="-8.7575020">
        <ele>8.6</ele>
        <time>2021-05-16T11:59:59Z</time>
      </trkpt>
      <trkpt lat="41.3606670" lon="-8.7575020">
        <ele>8.6</ele>
        <time>2021-05-16T12:00:00Z</time>
      </trkpt>
      <trkpt lat="41.3606670" lon="-8.7575020">
        <ele>8.6</ele>
        <time>2021-05-16T12:00:01Z</time>
      </trkpt>
      <trkpt lat="41.3606670" lon="-8.7575020">
        <ele>8.6</ele>
        <time>2021-05-16T12:00:02Z</time>
      </trkpt>
      <trkpt lat="41.3606670" lon="-8.7575020">
        <ele>8.6</ele>
        <time>2021-05-16T12:00:03Z</time>
      </trkpt>
      <trkpt lat="41.3606670" lon="-8.7575020">
        <ele>8.6</ele>
        <time>2021-05-16T12:00:04Z</time>
      </trkpt>
      <trkpt lat="41.3606670" lon="-8.7575020">
        <ele>8.6</ele>
        <time>2021-05-16T12:00:05Z</time>
      </trkpt>
      <trkpt lat="41.3606670" lon="-8.7575020">
        <ele>8.6</ele>
        <time>2021-05-16T12:00:06Z</time>
      </trkpt>
      <trkpt lat="41.3606670" lon="-8.7575020">
        <ele>8.6</ele>
        <time>2021-05-16T12:00:07Z</time>
      </trkpt>
      <trkpt lat="41.3606670" lon="-8.7575020">
        <ele>8.6</ele>
        <time>2021-05-16T12:00:08Z</time>
      </trkpt>
      <trkpt lat="41.3606670" lon="-8.7575020">
        <ele>8.6</ele>
        <time>2021-05-16T12:00:09Z</time>
      </trkpt>
      <trkpt lat="41.3606670" lon="-8.7575020">
        <ele>8.6</ele>
        <time>2021-05-16T12:00:10Z</time>
      </trkpt>
      <trkpt lat="41.3606670" lon="-8.7575020">
        <ele>8.6</ele>
        <time>2021-05-16T12:00:11Z</time>
      </trkpt>
      <trkpt lat="41.3606670" lon="-8.7575020">
        <ele>8.6</ele>
        <time>2021-05-16T12:00:12Z</time>
      </trkpt>
      <trkpt lat="41.3606670" lon="-8.7575020">
        <ele>8.6</ele>
        <time>2021-05-16T12:00:13Z</time>
      </trkpt>
      <trkpt lat="41.3606670" lon="-8.7575020">
        <ele>8.6</ele>
        <time>2021-05-16T12:00:14Z</time>
      </trkpt>
      <trkpt lat="41.3606670" lon="-8.7575020">
        <ele>8.6</ele>
        <time>2021-05-16T12:00:15Z</time>
      </trkpt>
      <trkpt lat="41.3606670" lon="-8.7575020">
        <ele>8.6</ele>
        <time>2021-05-16T12:00:16Z</time>
      </trkpt>
      <trkpt lat="41.3606670" lon="-8.7575020">
        <ele>8.6</ele>
        <time>2021-05-16T12:00:17Z</time>
      </trkpt>
      <trkpt lat="41.3606670" lon="-8.7575020">
        <ele>8.6</ele>
        <time>2021-05-16T12:00:18Z</time>
      </trkpt>
      <trkpt lat="41.3606670" lon="-8.7575020">
        <ele>8.6</ele>
        <time>2021-05-16T12:00:19Z</time>
      </trkpt>
      <trkpt lat="41.3606670" lon="-8.7575020">
        <ele>8.6</ele>
        <time>2021-05-16T12:00:20Z</time>
      </trkpt>
      <trkpt lat="41.3606670" lon="-8.7575020">
        <ele>8.6</ele>
        <time>2021-05-16T12:00:21Z</time>
      </trkpt>
      <trkpt lat="41.3606670" lon="-8.7575020">
        <ele>8.6</ele>
        <time>2021-05-16T12:00:22Z</time>
      </trkpt>
      <trkpt lat="41.3606670" lon="-8.7575020">
        <ele>8.6</ele>
        <time>2021-05-16T12:00:23Z</time>
      </trkpt>
      <trkpt lat="41.3606670" lon="-8.7575020">
        <ele>8.6</ele>
        <time>2021-05-16T12:00:24Z</time>
      </trkpt>
      <trkpt lat="41.3606670" lon="-8.7575020">
        <ele>8.6</ele>
        <time>2021-05-16T12:00:25Z</time>
      </trkpt>
      <trkpt lat="41.3606670" lon="-8.7575020">
        <ele>8.6</ele>
        <time>2021-05-16T12:00:26Z</time>
      </trkpt>
      <trkpt lat="41.3606670" lon="-8.7575020">
        <ele>8.6</ele>
        <time>2021-05-16T12:00:27Z</time>
      </trkpt>
      <trkpt lat="41.3606670" lon="-8.7575020">
        <ele>8.6</ele>
        <time>2021-05-16T12:00:28Z</time>
      </trkpt>
      <trkpt lat="41.3606670" lon="-8.7575020">
        <ele>8.6</ele>
        <time>2021-05-16T12:00:29Z</time>
      </trkpt>
      <trkpt lat="41.3606670" lon="-8.7575020">
        <ele>8.6</ele>
        <time>2021-05-16T12:00:30Z</time>
      </trkpt>
      <trkpt lat="41.3606670" lon="-8.7575020">
        <ele>8.6</ele>
        <time>2021-05-16T12:00:31Z</time>
      </trkpt>
      <trkpt lat="41.3606670" lon="-8.7575020">
        <ele>8.6</ele>
        <time>2021-05-16T12:00:32Z</time>
      </trkpt>
      <trkpt lat="41.3606670" lon="-8.7575020">
        <ele>8.6</ele>
        <time>2021-05-16T12:00:33Z</time>
      </trkpt>
      <trkpt lat="41.3606670" lon="-8.7575020">
        <ele>8.6</ele>
        <time>2021-05-16T12:00:34Z</time>
      </trkpt>
      <trkpt lat="41.3606670" lon="-8.7575020">
        <ele>8.6</ele>
        <time>2021-05-16T12:00:35Z</time>
      </trkpt>
      <trkpt lat="41.3606670" lon="-8.7575020">
        <ele>8.6</ele>
        <time>2021-05-16T12:00:36Z</time>
      </trkpt>
      <trkpt lat="41.3606670" lon="-8.7575020">
        <ele>8.6</ele>
        <time>2021-05-16T12:00:37Z</time>
      </trkpt>
      <trkpt lat="41.3606670" lon="-8.7575020">
        <ele>8.6</ele>
        <time>2021-05-16T12:00:38Z</time>
      </trkpt>
      <trkpt lat="41.3606670" lon="-8.7575020">
        <ele>8.6</ele>
        <time>2021-05-16T12:00:39Z</time>
      </trkpt>
      <trkpt lat="41.3606670" lon="-8.7575020">
        <ele>8.6</ele>
        <time>2021-05-16T12:00:40Z</time>
      </trkpt>
      <trkpt lat="41.3606670" lon="-8.7575020">
        <ele>8.6</ele>
        <time>2021-05-16T12:00:41Z</time>
      </trkpt>
      <trkpt lat="41.3606670" lon="-8.7575020">
        <ele>8.6</ele>
        <time>2021-05-16T12:00:42Z</time>
      </trkpt>
      <trkpt lat="41.3606670" lon="-8.7575020">
        <ele>8.6</ele>
        <time>2021-05-16T12:00:43Z</time>
      </trkpt>
      <trkpt lat="41.3606670" lon="-8.7575020">
        <ele>8.6</ele>
        <time>2021-05-16T12:00:44Z</time>
      </trkpt>
      <trkpt lat="41.3606670" lon="-8.7575020">
        <ele>8.6</ele>
        <time>2021-05-16T12:00:45Z</time>
      </trkpt>
      <trkpt lat="41.3606670" lon="-8.7575020">
        <ele>8.6</ele>
        <time>2021-05-16T12:00:46Z</time>
      </trkpt>
      <trkpt lat="41.3606670" lon="-8.7575020">
        <ele>8.6</ele>
        <time>2021-05-16T12:00:47Z</time>
      </trkpt>
      <trkpt lat="41.3606670" lon="-8.7575020">
        <ele>8.6</ele>
        <time>2021-05-16T12:00:48Z</time>
      </trkpt>
      <trkpt lat="41.3606670" lon="-8.7575020">
        <ele>8.6</ele>
        <time>2021-05-16T12:00:49Z</time>
      </trkpt>
      <trkpt lat="41.3606670" lon="-8.7575020">
        <ele>8.6</ele>
        <time>2021-05-16T12:00:50Z</time>
      </trkpt>
      <trkpt lat="41.3606670" lon="-8.7575020">
        <ele>8.6</ele>
        <time>2021-05-16T12:00:51Z</time>
      </trkpt>
      <trkpt lat="41.3606670" lon="-8.7575020">
        <ele>8.6</ele>
        <time>2021-05-16T12:00:52Z</time>
      </trkpt>
      <trkpt lat="41.3606670" lon="-8.7575020">
        <ele>8.6</ele>
        <time>2021-05-16T12:00:53Z</time>
      </trkpt>
      <trkpt lat="41.3606670" lon="-8.7575020">
        <ele>8.6</ele>
        <time>2021-05-16T12:00:54Z</time>
      </trkpt>
      <trkpt lat="41.3606670" lon="-8.7575020">
        <ele>8.6</ele>
        <time>2021-05-16T12:00:55Z</time>
      </trkpt>
      <trkpt lat="41.3606670" lon="-8.7575020">
        <ele>8.6</ele>
        <time>2021-05-16T12:00:56Z</time>
      </trkpt>
      <trkpt lat="41.3606670" lon="-8.7575020">
        <ele>8.6</ele>
        <time>2021-05-16T12:00:57Z</time>
      </trkpt>
      <trkpt lat="41.3606670" lon="-8.7575020">
        <ele>8.6</ele>
        <time>2021-05-16T12:00:58Z</time>
      </trkpt>
      <trkpt lat="41.3606670" lon="-8.7575020">
        <ele>8.6</ele>
        <time>2021-05-16T12:00:59Z</time>
      </trkpt>
      <trkpt lat="41.3606670" lon="-8.7575020">
        <ele>8.6</ele>
        <time>2021-05-16T12:01:00Z</time>
      </trkpt>
      <trkpt lat="41.3606670" lon="-8.7575020">
        <ele>8.6</ele>
        <time>2021-05-16T12:01:01Z</time>
      </trkpt>
      <trkpt lat="41.3606670" lon="-8.7575020">
        <ele>8.6</ele>
        <time>2021-05-16T12:01:02Z</time>
      </trkpt>
      <trkpt lat="41.3606670" lon="-8.7575020">
        <ele>8.6</ele>
        <time>2021-05-16T12:01:03Z</time>
      </trkpt>
      <trkpt lat="41.3606670" lon="-8.7575020">
        <ele>8.6</ele>
        <time>2021-05-16T12:01:04Z</time>
      </trkpt>
      <trkpt lat="41.3606670" lon="-8.7575020">
        <ele>8.6</ele>
        <time>2021-05-16T12:01:05Z</time>
      </trkpt>
      <trkpt lat="41.3606670" lon="-8.7575020">
        <ele>8.6</ele>
        <time>2021-05-16T12:01:06Z</time>
      </trkpt>
      <trkpt lat="41.3606670" lon="-8.7575020">
        <ele>8.6</ele>
        <time>2021-05-16T12:01:07Z</time>
      </trkpt>
      <trkpt lat="41.3606670" lon="-8.7575020">
        <ele>8.6</ele>
        <time>2021-05-16T12:01:08Z</time>
      </trkpt>
      <trkpt lat="41.3606670" lon="-8.7575020">
        <ele>8.6</ele>
        <time>2021-05-16T12:01:09Z</time>
      </trkpt>
      <trkpt lat="41.3606670" lon="-8.7575020">
        <ele>8.6</ele>
        <time>2021-05-16T12:01:10Z</time>
      </trkpt>
      <trkpt lat="41.3606670" lon="-8.7575020">
        <ele>8.6</ele>
        <time>2021-05-16T12:01:11Z</time>
      </trkpt>
      <trkpt lat="41.3606670" lon="-8.7575020">
        <ele>8.6</ele>
        <time>2021-05-16T12:01:12Z</time>
      </trkpt>
      <trkpt lat="41.3606670" lon="-8.7575020">
        <ele>8.6</ele>
        <time>2021-05-16T12:01:13Z</time>
      </trkpt>
      <trkpt lat="41.3606670" lon="-8.7575020">
        <ele>8.6</ele>
        <time>2021-05-16T12:01:14Z</time>
      </trkpt>
      <trkpt lat="41.3606670" lon="-8.7575020">
        <ele>8.6</ele>
        <time>2021-05-16T12:01:15Z</time>
      </trkpt>
      <trkpt lat="41.3606670" lon="-8.7575020">
        <ele>8.6</ele>
        <time>2021-05-16T12:01:16Z</time>
      </trkpt>
      <trkpt lat="41.3606670" lon="-8.7575020">
        <ele>8.6</ele>
        <time>2021-05-16T12:01:17Z</time>
      </trkpt>
      <trkpt lat="41.3606670" lon="-8.7575020">
        <ele>8.6</ele>
        <time>2021-05-16T12:01:18Z</time>
      </trkpt>
      <trkpt lat="41.3606670" lon="-8.7575020">
        <ele>8.6</ele>
        <time>2021-05-16T12:01:19Z</time>
      </trkpt>
      <trkpt lat="41.3606670" lon="-8.7575020">
        <ele>8.6</ele>
        <time>2021-05-16T12:01:20Z</time>
      </trkpt>
      <trkpt lat="41.3606670" lon="-8.7575020">
        <ele>8.6</ele>
        <time>2021-05-16T12:01:21Z</time>
      </trkpt>
      <trkpt lat="41.3606670" lon="-8.7575020">
        <ele>8.6</ele>
        <time>2021-05-16T12:01:22Z</time>
      </trkpt>
      <trkpt lat="41.3606670" lon="-8.7575020">
        <ele>8.6</ele>
        <time>2021-05-16T12:01:23Z</time>
      </trkpt>
      <trkpt lat="41.3606670" lon="-8.7575020">
        <ele>8.6</ele>
        <time>2021-05-16T12:01:24Z</time>
      </trkpt>
      <trkpt lat="41.3606670" lon="-8.7575020">
        <ele>8.6</ele>
        <time>2021-05-16T12:01:25Z</time>
      </trkpt>
      <trkpt lat="41.3606670" lon="-8.7575020">
        <ele>8.6</ele>
        <time>2021-05-16T12:01:26Z</time>
      </trkpt>
      <trkpt lat="41.3606670" lon="-8.7575020">
        <ele>8.6</ele>
        <time>2021-05-16T12:01:27Z</time>
      </trkpt>
      <trkpt lat="41.3606670" lon="-8.7575020">
        <ele>8.6</ele>
        <time>2021-05-16T12:01:28Z</time>
      </trkpt>
      <trkpt lat="41.3606670" lon="-8.7575020">
        <ele>8.6</ele>
        <time>2021-05-16T12:01:29Z</time>
      </trkpt>
      <trkpt lat="41.3606670" lon="-8.7575020">
        <ele>8.6</ele>
        <time>2021-05-16T12:01:30Z</time>
      </trkpt>
      <trkpt lat="41.3606670" lon="-8.7575020">
        <ele>8.6</ele>
        <time>2021-05-16T12:01:31Z</time>
      </trkpt>
      <trkpt lat="41.3606670" lon="-8.7575020">
        <ele>8.6</ele>
        <time>2021-05-16T12:01:32Z</time>
      </trkpt>
      <trkpt lat="41.3606670" lon="-8.7575020">
        <ele>8.6</ele>
        <time>2021-05-16T12:01:33Z</time>
      </trkpt>
      <trkpt lat="41.3606670" lon="-8.7575020">
        <ele>8.6</ele>
        <time>2021-05-16T12:01:34Z</time>
      </trkpt>
      <trkpt lat="41.3606670" lon="-8.7575020">
        <ele>8.6</ele>
        <time>2021-05-16T12:01:35Z</time>
      </trkpt>
      <trkpt lat="41.3606670" lon="-8.7575020">
        <ele>8.6</ele>
        <time>2021-05-16T12:01:36Z</time>
      </trkpt>
      <trkpt lat="41.3606670" lon="-8.7575020">
        <ele>8.6</ele>
        <time>2021-05-16T12:01:37Z</time>
      </trkpt>
      <trkpt lat="41.3606670" lon="-8.7575020">
        <ele>8.6</ele>
        <time>2021-05-16T12:01:38Z</time>
      </trkpt>
      <trkpt lat="41.3606670" lon="-8.7575020">
        <ele>8.6</ele>
        <time>2021-05-16T12:01:39Z</time>
      </trkpt>
      <trkpt lat="41.3606670" lon="-8.7575020">
        <ele>8.6</ele>
        <time>2021-05-16T12:01:40Z</time>
      </trkpt>
      <trkpt lat="41.3606670" lon="-8.7575020">
        <ele>8.6</ele>
        <time>2021-05-16T12:01:41Z</time>
      </trkpt>
      <trkpt lat="41.3606670" lon="-8.7575020">
        <ele>8.6</ele>
        <time>2021-05-16T12:01:42Z</time>
      </trkpt>
      <trkpt lat="41.3606670" lon="-8.7575020">
        <ele>8.6</ele>
        <time>2021-05-16T12:01:43Z</time>
      </trkpt>
      <trkpt lat="41.3606670" lon="-8.7575020">
        <ele>8.6</ele>
        <time>2021-05-16T12:01:44Z</time>
      </trkpt>
      <trkpt lat="41.3606670" lon="-8.7575020">
        <ele>8.6</ele>
        <time>2021-05-16T12:01:45Z</time>
      </trkpt>
      <trkpt lat="41.3606670" lon="-8.7575020">
        <ele>8.6</ele>
        <time>2021-05-16T12:01:46Z</time>
      </trkpt>
      <trkpt lat="41.3606670" lon="-8.7575020">
        <ele>8.6</ele>
        <time>2021-05-16T12:01:47Z</time>
      </trkpt>
      <trkpt lat="41.3606670" lon="-8.7575020">
        <ele>8.6</ele>
        <time>2021-05-16T12:01:48Z</time>
      </trkpt>
      <trkpt lat="41.3606670" lon="-8.7575020">
        <ele>8.6</ele>
        <time>2021-05-16T12:01:49Z</time>
      </trkpt>
      <trkpt lat="41.3606670" lon="-8.7575020">
        <ele>8.6</ele>
        <time>2021-05-16T12:01:50Z</time>
      </trkpt>
      <trkpt lat="41.3606670" lon="-8.7575020">
        <ele>8.6</ele>
        <time>2021-05-16T12:01:51Z</time>
      </trkpt>
      <trkpt lat="41.3606550" lon="-8.7575420">
        <ele>8.6</ele>
        <time>2021-05-16T12:01:52Z</time>
      </trkpt>
      <trkpt lat="41.3606540" lon="-8.7575440">
        <ele>8.6</ele>
        <time>2021-05-16T12:01:53Z</time>
      </trkpt>
      <trkpt lat="41.3606560" lon="-8.7575440">
        <ele>8.6</ele>
        <time>2021-05-16T12:01:54Z</time>
      </trkpt>
      <trkpt lat="41.3606560" lon="-8.7575440">
        <ele>8.6</ele>
        <time>2021-05-16T12:01:55Z</time>
      </trkpt>
      <trkpt lat="41.3606570" lon="-8.7575340">
        <ele>8.6</ele>
        <time>2021-05-16T12:01:56Z</time>
      </trkpt>
      <trkpt lat="41.3606560" lon="-8.7575350">
        <ele>8.6</ele>
        <time>2021-05-16T12:01:57Z</time>
      </trkpt>
      <trkpt lat="41.3606560" lon="-8.7575350">
        <ele>8.6</ele>
        <time>2021-05-16T12:01:58Z</time>
      </trkpt>
      <trkpt lat="41.3606560" lon="-8.7575370">
        <ele>8.6</ele>
        <time>2021-05-16T12:01:59Z</time>
      </trkpt>
      <trkpt lat="41.3606560" lon="-8.7575370">
        <ele>8.6</ele>
        <time>2021-05-16T12:02:00Z</time>
      </trkpt>
      <trkpt lat="41.3606550" lon="-8.7575320">
        <ele>8.6</ele>
        <time>2021-05-16T12:02:01Z</time>
      </trkpt>
      <trkpt lat="41.3606560" lon="-8.7575290">
        <ele>8.6</ele>
        <time>2021-05-16T12:02:02Z</time>
      </trkpt>
      <trkpt lat="41.3606540" lon="-8.7575280">
        <ele>8.6</ele>
        <time>2021-05-16T12:02:03Z</time>
      </trkpt>
      <trkpt lat="41.3606540" lon="-8.7575250">
        <ele>8.6</ele>
        <time>2021-05-16T12:02:04Z</time>
      </trkpt>
      <trkpt lat="41.3606520" lon="-8.7575230">
        <ele>8.6</ele>
        <time>2021-05-16T12:02:05Z</time>
      </trkpt>
      <trkpt lat="41.3606520" lon="-8.7575190">
        <ele>8.6</ele>
        <time>2021-05-16T12:02:06Z</time>
      </trkpt>
      <trkpt lat="41.3606510" lon="-8.7575230">
        <ele>8.6</ele>
        <time>2021-05-16T12:02:07Z</time>
      </trkpt>
      <trkpt lat="41.3606500" lon="-8.7575190">
        <ele>8.6</ele>
        <time>2021-05-16T12:02:08Z</time>
      </trkpt>
      <trkpt lat="41.3606500" lon="-8.7575140">
        <ele>8.6</ele>
        <time>2021-05-16T12:02:09Z</time>
      </trkpt>
      <trkpt lat="41.3606470" lon="-8.7575170">
        <ele>8.6</ele>
        <time>2021-05-16T12:02:10Z</time>
      </trkpt>
      <trkpt lat="41.3606470" lon="-8.7575150">
        <ele>8.6</ele>
        <time>2021-05-16T12:02:11Z</time>
      </trkpt>
      <trkpt lat="41.3606460" lon="-8.7575150">
        <ele>8.6</ele>
        <time>2021-05-16T12:02:12Z</time>
      </trkpt>
      <trkpt lat="41.3606430" lon="-8.7575190">
        <ele>8.6</ele>
        <time>2021-05-16T12:02:13Z</time>
      </trkpt>
      <trkpt lat="41.3606430" lon="-8.7575190">
        <ele>8.6</ele>
        <time>2021-05-16T12:02:14Z</time>
      </trkpt>
      <trkpt lat="41.3606380" lon="-8.7575240">
        <ele>8.6</ele>
        <time>2021-05-16T12:02:15Z</time>
      </trkpt>
      <trkpt lat="41.3606380" lon="-8.7575220">
        <ele>8.6</ele>
        <time>2021-05-16T12:02:16Z</time>
      </trkpt>
      <trkpt lat="41.3606380" lon="-8.7575220">
        <ele>8.6</ele>
        <time>2021-05-16T12:02:17Z</time>
      </trkpt>
      <trkpt lat="41.3606380" lon="-8.7575180">
        <ele>8.6</ele>
        <time>2021-05-16T12:02:18Z</time>
      </trkpt>
      <trkpt lat="41.3606400" lon="-8.7575160">
        <ele>8.6</ele>
        <time>2021-05-16T12:02:19Z</time>
      </trkpt>
      <trkpt lat="41.3606370" lon="-8.7575160">
        <ele>8.6</ele>
        <time>2021-05-16T12:02:20Z</time>
      </trkpt>
      <trkpt lat="41.3606350" lon="-8.7575180">
        <ele>8.6</ele>
        <time>2021-05-16T12:02:21Z</time>
      </trkpt>
      <trkpt lat="41.3606350" lon="-8.7575140">
        <ele>8.6</ele>
        <time>2021-05-16T12:02:22Z</time>
      </trkpt>
      <trkpt lat="41.3606340" lon="-8.7575160">
        <ele>8.6</ele>
        <time>2021-05-16T12:02:23Z</time>
      </trkpt>
      <trkpt lat="41.3606310" lon="-8.7575120">
        <ele>8.6</ele>
        <time>2021-05-16T12:02:24Z</time>
      </trkpt>
      <trkpt lat="41.3606290" lon="-8.7575160">
        <ele>8.6</ele>
        <time>2021-05-16T12:02:25Z</time>
      </trkpt>
      <trkpt lat="41.3606290" lon="-8.7575150">
        <ele>8.6</ele>
        <time>2021-05-16T12:02:26Z</time>
      </trkpt>
      <trkpt lat="41.3606280" lon="-8.7575170">
        <ele>8.6</ele>
        <time>2021-05-16T12:02:27Z</time>
      </trkpt>
      <trkpt lat="41.3606300" lon="-8.7575120">
        <ele>8.6</ele>
        <time>2021-05-16T12:02:28Z</time>
      </trkpt>
      <trkpt lat="41.3606300" lon="-8.7575120">
        <ele>8.6</ele>
        <time>2021-05-16T12:02:29Z</time>
      </trkpt>
      <trkpt lat="41.3606300" lon="-8.7575140">
        <ele>8.6</ele>
        <time>2021-05-16T12:02:30Z</time>
      </trkpt>
      <trkpt lat="41.3606310" lon="-8.7575090">
        <ele>8.6</ele>
        <time>2021-05-16T12:02:31Z</time>
      </trkpt>
      <trkpt lat="41.3606350" lon="-8.7575070">
        <ele>8.6</ele>
        <time>2021-05-16T12:02:32Z</time>
      </trkpt>
      <trkpt lat="41.3606370" lon="-8.7575010">
        <ele>8.6</ele>
        <time>2021-05-16T12:02:33Z</time>
      </trkpt>
      <trkpt lat="41.3606380" lon="-8.7574990">
        <ele>8.6</ele>
        <time>2021-05-16T12:02:34Z</time>
      </trkpt>
      <trkpt lat="41.3606390" lon="-8.7574970">
        <ele>8.6</ele>
        <time>2021-05-16T12:02:35Z</time>
      </trkpt>
      <trkpt lat="41.3606390" lon="-8.7574960">
        <ele>8.6</ele>
        <time>2021-05-16T12:02:36Z</time>
      </trkpt>
      <trkpt lat="41.3606410" lon="-8.7574930">
        <ele>8.6</ele>
        <time>2021-05-16T12:02:37Z</time>
      </trkpt>
      <trkpt lat="41.3606420" lon="-8.7574900">
        <ele>8.6</ele>
        <time>2021-05-16T12:02:38Z</time>
      </trkpt>
      <trkpt lat="41.3606400" lon="-8.7574940">
        <ele>8.6</ele>
        <time>2021-05-16T12:02:39Z</time>
      </trkpt>
      <trkpt lat="41.3606390" lon="-8.7574940">
        <ele>8.6</ele>
        <time>2021-05-16T12:02:40Z</time>
      </trkpt>
      <trkpt lat="41.3606390" lon="-8.7574930">
        <ele>8.6</ele>
        <time>2021-05-16T12:02:41Z</time>
      </trkpt>
      <trkpt lat="41.3606410" lon="-8.7574920">
        <ele>8.6</ele>
        <time>2021-05-16T12:02:42Z</time>
      </trkpt>
      <trkpt lat="41.3606430" lon="-8.7574900">
        <ele>8.6</ele>
        <time>2021-05-16T12:02:43Z</time>
      </trkpt>
      <trkpt lat="41.3606450" lon="-8.7574900">
        <ele>8.6</ele>
        <time>2021-05-16T12:02:44Z</time>
      </trkpt>
      <trkpt lat="41.3606460" lon="-8.7574880">
        <ele>8.6</ele>
        <time>2021-05-16T12:02:45Z</time>
      </trkpt>
      <trkpt lat="41.3606500" lon="-8.7574860">
        <ele>8.6</ele>
        <time>2021-05-16T12:02:46Z</time>
      </trkpt>
      <trkpt lat="41.3606500" lon="-8.7574870">
        <ele>8.6</ele>
        <time>2021-05-16T12:02:47Z</time>
      </trkpt>
      <trkpt lat="41.3606500" lon="-8.7574870">
        <ele>8.6</ele>
        <time>2021-05-16T12:02:48Z</time>
      </trkpt>
      <trkpt lat="41.3606530" lon="-8.7574840">
        <ele>8.6</ele>
        <time>2021-05-16T12:02:49Z</time>
      </trkpt>
      <trkpt lat="41.3606550" lon="-8.7574810">
        <ele>8.6</ele>
        <time>2021-05-16T12:02:50Z</time>
      </trkpt>
      <trkpt lat="41.3606540" lon="-8.7574840">
        <ele>8.6</ele>
        <time>2021-05-16T12:02:51Z</time>
      </trkpt>
      <trkpt lat="41.3606540" lon="-8.7574840">
        <ele>8.6</ele>
        <time>2021-05-16T12:02:52Z</time>
      </trkpt>
      <trkpt lat="41.3606550" lon="-8.7574850">
        <ele>8.6</ele>
        <time>2021-05-16T12:02:53Z</time>
      </trkpt>
      <trkpt lat="41.3606570" lon="-8.7574800">
        <ele>8.6</ele>
        <time>2021-05-16T12:02:54Z</time>
      </trkpt>
      <trkpt lat="41.3606570" lon="-8.7574780">
        <ele>8.6</ele>
        <time>2021-05-16T12:02:55Z</time>
      </trkpt>
      <trkpt lat="41.3606580" lon="-8.7574760">
        <ele>8.6</ele>
        <time>2021-05-16T12:02:56Z</time>
      </trkpt>
      <trkpt lat="41.3606580" lon="-8.7574810">
        <ele>8.6</ele>
        <time>2021-05-16T12:02:57Z</time>
      </trkpt>
      <trkpt lat="41.3606550" lon="-8.7574820">
        <ele>8.6</ele>
        <time>2021-05-16T12:02:58Z</time>
      </trkpt>
      <trkpt lat="41.3606550" lon="-8.7574820">
        <ele>8.6</ele>
        <time>2021-05-16T12:02:59Z</time>
      </trkpt>
      <trkpt lat="41.3606560" lon="-8.7574830">
        <ele>8.6</ele>
        <time>2021-05-16T12:03:00Z</time>
      </trkpt>
      <trkpt lat="41.3606570" lon="-8.7574830">
        <ele>8.6</ele>
        <time>2021-05-16T12:03:01Z</time>
      </trkpt>
      <trkpt lat="41.3606570" lon="-8.7574850">
        <ele>8.6</ele>
        <time>2021-05-16T12:03:02Z</time>
      </trkpt>
      <trkpt lat="41.3606570" lon="-8.7574850">
        <ele>8.6</ele>
        <time>2021-05-16T12:03:03Z</time>
      </trkpt>
      <trkpt lat="41.3606550" lon="-8.7574880">
        <ele>8.6</ele>
        <time>2021-05-16T12:03:04Z</time>
      </trkpt>
      <trkpt lat="41.3606560" lon="-8.7574880">
        <ele>8.6</ele>
        <time>2021-05-16T12:03:05Z</time>
      </trkpt>
      <trkpt lat="41.3606540" lon="-8.7574900">
        <ele>8.6</ele>
        <time>2021-05-16T12:03:06Z</time>
      </trkpt>
      <trkpt lat="41.3606540" lon="-8.7574900">
        <ele>8.6</ele>
        <time>2021-05-16T12:03:07Z</time>
      </trkpt>
      <trkpt lat="41.3606560" lon="-8.7574920">
        <ele>8.6</ele>
        <time>2021-05-16T12:03:08Z</time>
      </trkpt>
      <trkpt lat="41.3606570" lon="-8.7574920">
        <ele>8.6</ele>
        <time>2021-05-16T12:03:09Z</time>
      </trkpt>
      <trkpt lat="41.3606570" lon="-8.7574990">
        <ele>8.6</ele>
        <time>2021-05-16T12:03:10Z</time>
      </trkpt>
      <trkpt lat="41.3606590" lon="-8.7575030">
        <ele>8.6</ele>
        <time>2021-05-16T12:03:11Z</time>
      </trkpt>
      <trkpt lat="41.3606580" lon="-8.7575040">
        <ele>8.6</ele>
        <time>2021-05-16T12:03:12Z</time>
      </trkpt>
      <trkpt lat="41.3606590" lon="-8.7575070">
        <ele>8.6</ele>
        <time>2021-05-16T12:03:13Z</time>
      </trkpt>
      <trkpt lat="41.3606580" lon="-8.7575040">
        <ele>8.6</ele>
        <time>2021-05-16T12:03:14Z</time>
      </trkpt>
      <trkpt lat="41.3606580" lon="-8.7575050">
        <ele>8.6</ele>
        <time>2021-05-16T12:03:15Z</time>
      </trkpt>
      <trkpt lat="41.3606570" lon="-8.7575020">
        <ele>8.6</ele>
        <time>2021-05-16T12:03:16Z</time>
      </trkpt>
      <trkpt lat="41.3606550" lon="-8.7575040">
        <ele>8.6</ele>
        <time>2021-05-16T12:03:17Z</time>
      </trkpt>
      <trkpt lat="41.3606560" lon="-8.7575030">
        <ele>8.6</ele>
        <time>2021-05-16T12:03:18Z</time>
      </trkpt>
      <trkpt lat="41.3606580" lon="-8.7575030">
        <ele>8.6</ele>
        <time>2021-05-16T12:03:19Z</time>
      </trkpt>
      <trkpt lat="41.3606570" lon="-8.7575050">
        <ele>8.6</ele>
        <time>2021-05-16T12:03:20Z</time>
      </trkpt>
      <trkpt lat="41.3606550" lon="-8.7575100">
        <ele>8.6</ele>
        <time>2021-05-16T12:03:21Z</time>
      </trkpt>
      <trkpt lat="41.3606550" lon="-8.7575090">
        <ele>8.6</ele>
        <time>2021-05-16T12:03:22Z</time>
      </trkpt>
      <trkpt lat="41.3606570" lon="-8.7575120">
        <ele>8.6</ele>
        <time>2021-05-16T12:03:23Z</time>
      </trkpt>
      <trkpt lat="41.3606560" lon="-8.7575170">
        <ele>8.6</ele>
        <time>2021-05-16T12:03:24Z</time>
      </trkpt>
      <trkpt lat="41.3606550" lon="-8.7575230">
        <ele>8.6</ele>
        <time>2021-05-16T12:03:25Z</time>
      </trkpt>
      <trkpt lat="41.3606520" lon="-8.7575270">
        <ele>8.6</ele>
        <time>2021-05-16T12:03:26Z</time>
      </trkpt>
      <trkpt lat="41.3606500" lon="-8.7575270">
        <ele>8.6</ele>
        <time>2021-05-16T12:03:27Z</time>
      </trkpt>
      <trkpt lat="41.3606510" lon="-8.7575310">
        <ele>8.6</ele>
        <time>2021-05-16T12:03:28Z</time>
      </trkpt>
      <trkpt lat="41.3606510" lon="-8.7575340">
        <ele>8.6</ele>
        <time>2021-05-16T12:03:29Z</time>
      </trkpt>
      <trkpt lat="41.3606490" lon="-8.7575320">
        <ele>8.6</ele>
        <time>2021-05-16T12:03:30Z</time>
      </trkpt>
      <trkpt lat="41.3606470" lon="-8.7575360">
        <ele>8.6</ele>
        <time>2021-05-16T12:03:31Z</time>
      </trkpt>
      <trkpt lat="41.3606450" lon="-8.7575390">
        <ele>8.6</ele>
        <time>2021-05-16T12:03:32Z</time>
      </trkpt>
      <trkpt lat="41.3606440" lon="-8.7575410">
        <ele>8.6</ele>
        <time>2021-05-16T12:03:33Z</time>
      </trkpt>
      <trkpt lat="41.3606420" lon="-8.7575440">
        <ele>8.6</ele>
        <time>2021-05-16T12:03:34Z</time>
      </trkpt>
      <trkpt lat="41.3606410" lon="-8.7575420">
        <ele>8.6</ele>
        <time>2021-05-16T12:03:35Z</time>
      </trkpt>
      <trkpt lat="41.3606370" lon="-8.7575460">
        <ele>8.6</ele>
        <time>2021-05-16T12:03:36Z</time>
      </trkpt>
      <trkpt lat="41.3606360" lon="-8.7575470">
        <ele>8.6</ele>
        <time>2021-05-16T12:03:37Z</time>
      </trkpt>
      <trkpt lat="41.3606370" lon="-8.7575500">
        <ele>8.6</ele>
        <time>2021-05-16T12:03:38Z</time>
      </trkpt>
      <trkpt lat="41.3606350" lon="-8.7575500">
        <ele>8.6</ele>
        <time>2021-05-16T12:03:39Z</time>
      </trkpt>
      <trkpt lat="41.3606360" lon="-8.7575500">
        <ele>8.6</ele>
        <time>2021-05-16T12:03:40Z</time>
      </trkpt>
      <trkpt lat="41.3606360" lon="-8.7575500">
        <ele>8.6</ele>
        <time>2021-05-16T12:03:41Z</time>
      </trkpt>
      <trkpt lat="41.3606360" lon="-8.7575490">
        <ele>8.6</ele>
        <time>2021-05-16T12:03:42Z</time>
      </trkpt>
      <trkpt lat="41.3606360" lon="-8.7575490">
        <ele>8.6</ele>
        <time>2021-05-16T12:03:43Z</time>
      </trkpt>
      <trkpt lat="41.3606370" lon="-8.7575490">
        <ele>8.6</ele>
        <time>2021-05-16T12:03:44Z</time>
      </trkpt>
      <trkpt lat="41.3606370" lon="-8.7575490">
        <ele>8.6</ele>
        <time>2021-05-16T12:03:45Z</time>
      </trkpt>
      <trkpt lat="41.3606370" lon="-8.7575490">
        <ele>8.6</ele>
        <time>2021-05-16T12:03:46Z</time>
      </trkpt>
      <trkpt lat="41.3606370" lon="-8.7575490">
        <ele>8.6</ele>
        <time>2021-05-16T12:03:47Z</time>
      </trkpt>
      <trkpt lat="41.3606370" lon="-8.7575480">
        <ele>8.6</ele>
        <time>2021-05-16T12:03:48Z</time>
      </trkpt>
      <trkpt lat="41.3606370" lon="-8.7575480">
        <ele>8.6</ele>
        <time>2021-05-16T12:03:49Z</time>
      </trkpt>
      <trkpt lat="41.3606370" lon="-8.7575480">
        <ele>8.6</ele>
        <time>2021-05-16T12:03:50Z</time>
      </trkpt>
      <trkpt lat="41.3606370" lon="-8.7575480">
        <ele>8.6</ele>
        <time>2021-05-16T12:03:51Z</time>
      </trkpt>
      <trkpt lat="41.3606370" lon="-8.7575480">
        <ele>8.6</ele>
        <time>2021-05-16T12:03:52Z</time>
      </trkpt>
      <trkpt lat="41.3606370" lon="-8.7575480">
        <ele>8.6</ele>
        <time>2021-05-16T12:03:53Z</time>
      </trkpt>
      <trkpt lat="41.3606380" lon="-8.7575470">
        <ele>8.6</ele>
        <time>2021-05-16T12:03:54Z</time>
      </trkpt>
      <trkpt lat="41.3606380" lon="-8.7575470">
        <ele>8.6</ele>
        <time>2021-05-16T12:03:55Z</time>
      </trkpt>
      <trkpt lat="41.3606380" lon="-8.7575470">
        <ele>8.6</ele>
        <time>2021-05-16T12:03:56Z</time>
      </trkpt>
      <trkpt lat="41.3606380" lon="-8.7575470">
        <ele>8.6</ele>
        <time>2021-05-16T12:03:57Z</time>
      </trkpt>
      <trkpt lat="41.3606380" lon="-8.7575470">
        <ele>8.6</ele>
        <time>2021-05-16T12:03:58Z</time>
      </trkpt>
      <trkpt lat="41.3606380" lon="-8.7575470">
        <ele>8.6</ele>
        <time>2021-05-16T12:03:59Z</time>
      </trkpt>
      <trkpt lat="41.3606380" lon="-8.7575460">
        <ele>8.6</ele>
        <time>2021-05-16T12:04:00Z</time>
      </trkpt>
      <trkpt lat="41.3606380" lon="-8.7575460">
        <ele>8.6</ele>
        <time>2021-05-16T12:04:01Z</time>
      </trkpt>
      <trkpt lat="41.3606380" lon="-8.7575460">
        <ele>8.6</ele>
        <time>2021-05-16T12:04:02Z</time>
      </trkpt>
      <trkpt lat="41.3606380" lon="-8.7575460">
        <ele>8.6</ele>
        <time>2021-05-16T12:04:03Z</time>
      </trkpt>
      <trkpt lat="41.3606390" lon="-8.7575460">
        <ele>8.6</ele>
        <time>2021-05-16T12:04:04Z</time>
      </trkpt>
      <trkpt lat="41.3606390" lon="-8.7575460">
        <ele>8.6</ele>
        <time>2021-05-16T12:04:05Z</time>
      </trkpt>
      <trkpt lat="41.3606390" lon="-8.7575450">
        <ele>8.6</ele>
        <time>2021-05-16T12:04:06Z</time>
      </trkpt>
      <trkpt lat="41.3606390" lon="-8.7575450">
        <ele>8.6</ele>
        <time>2021-05-16T12:04:07Z</time>
      </trkpt>
      <trkpt lat="41.3606390" lon="-8.7575450">
        <ele>8.6</ele>
        <time>2021-05-16T12:04:08Z</time>
      </trkpt>
      <trkpt lat="41.3606390" lon="-8.7575450">
        <ele>8.6</ele>
        <time>2021-05-16T12:04:09Z</time>
      </trkpt>
      <trkpt lat="41.3606390" lon="-8.7575450">
        <ele>8.6</ele>
        <time>2021-05-16T12:04:10Z</time>
      </trkpt>
      <trkpt lat="41.3606390" lon="-8.7575450">
        <ele>8.6</ele>
        <time>2021-05-16T12:04:11Z</time>
      </trkpt>
      <trkpt lat="41.3606390" lon="-8.7575440">
        <ele>8.6</ele>
        <time>2021-05-16T12:04:12Z</time>
      </trkpt>
      <trkpt lat="41.3606390" lon="-8.7575440">
        <ele>8.6</ele>
        <time>2021-05-16T12:04:13Z</time>
      </trkpt>
      <trkpt lat="41.3606400" lon="-8.7575440">
        <ele>8.6</ele>
        <time>2021-05-16T12:04:14Z</time>
      </trkpt>
      <trkpt lat="41.3606400" lon="-8.7575440">
        <ele>8.6</ele>
        <time>2021-05-16T12:04:15Z</time>
      </trkpt>
      <trkpt lat="41.3606400" lon="-8.7575440">
        <ele>8.6</ele>
        <time>2021-05-16T12:04:16Z</time>
      </trkpt>
      <trkpt lat="41.3606400" lon="-8.7575430">
        <ele>8.6</ele>
        <time>2021-05-16T12:04:17Z</time>
      </trkpt>
      <trkpt lat="41.3606400" lon="-8.7575430">
        <ele>8.6</ele>
        <time>2021-05-16T12:04:18Z</time>
      </trkpt>
      <trkpt lat="41.3606400" lon="-8.7575430">
        <ele>8.6</ele>
        <time>2021-05-16T12:04:19Z</time>
      </trkpt>
      <trkpt lat="41.3606400" lon="-8.7575430">
        <ele>8.6</ele>
        <time>2021-05-16T12:04:20Z</time>
      </trkpt>
      <trkpt lat="41.3606400" lon="-8.7575430">
        <ele>8.6</ele>
        <time>2021-05-16T12:04:21Z</time>
      </trkpt>
      <trkpt lat="41.3606400" lon="-8.7575430">
        <ele>8.6</ele>
        <time>2021-05-16T12:04:22Z</time>
      </trkpt>
      <trkpt lat="41.3606400" lon="-8.7575420">
        <ele>8.6</ele>
        <time>2021-05-16T12:04:23Z</time>
      </trkpt>
      <trkpt lat="41.3606410" lon="-8.7575420">
        <ele>8.6</ele>
        <time>2021-05-16T12:04:24Z</time>
      </trkpt>
      <trkpt lat="41.3606410" lon="-8.7575420">
        <ele>8.6</ele>
        <time>2021-05-16T12:04:25Z</time>
      </trkpt>
      <trkpt lat="41.3606410" lon="-8.7575420">
        <ele>8.6</ele>
        <time>2021-05-16T12:04:26Z</time>
      </trkpt>
      <trkpt lat="41.3606410" lon="-8.7575420">
        <ele>8.6</ele>
        <time>2021-05-16T12:04:27Z</time>
      </trkpt>
      <trkpt lat="41.3606410" lon="-8.7575420">
        <ele>8.6</ele>
        <time>2021-05-16T12:04:28Z</time>
      </trkpt>
      <trkpt lat="41.3606410" lon="-8.7575410">
        <ele>8.6</ele>
        <time>2021-05-16T12:04:29Z</time>
      </trkpt>
      <trkpt lat="41.3606410" lon="-8.7575410">
        <ele>8.6</ele>
        <time>2021-05-16T12:04:30Z</time>
      </trkpt>
      <trkpt lat="41.3606410" lon="-8.7575410">
        <ele>8.6</ele>
        <time>2021-05-16T12:04:31Z</time>
      </trkpt>
      <trkpt lat="41.3606410" lon="-8.7575410">
        <ele>8.6</ele>
        <time>2021-05-16T12:04:32Z</time>
      </trkpt>
      <trkpt lat="41.3606420" lon="-8.7575410">
        <ele>8.6</ele>
        <time>2021-05-16T12:04:33Z</time>
      </trkpt>
      <trkpt lat="41.3606420" lon="-8.7575410">
        <ele>8.6</ele>
        <time>2021-05-16T12:04:34Z</time>
      </trkpt>
      <trkpt lat="41.3606420" lon="-8.7575400">
        <ele>8.6</ele>
        <time>2021-05-16T12:04:35Z</time>
      </trkpt>
      <trkpt lat="41.3606420" lon="-8.7575400">
        <ele>8.6</ele>
        <time>2021-05-16T12:04:36Z</time>
      </trkpt>
      <trkpt lat="41.3606420" lon="-8.7575400">
        <ele>8.6</ele>
        <time>2021-05-16T12:04:37Z</time>
      </trkpt>
      <trkpt lat="41.3606420" lon="-8.7575400">
        <ele>8.6</ele>
        <time>2021-05-16T12:04:38Z</time>
      </trkpt>
      <trkpt lat="41.3606420" lon="-8.7575400">
        <ele>8.6</ele>
        <time>2021-05-16T12:04:39Z</time>
      </trkpt>
      <trkpt lat="41.3606420" lon="-8.7575400">
        <ele>8.6</ele>
        <time>2021-05-16T12:04:40Z</time>
      </trkpt>
      <trkpt lat="41.3606420" lon="-8.7575390">
        <ele>8.6</ele>
        <time>2021-05-16T12:04:41Z</time>
      </trkpt>
      <trkpt lat="41.3606420" lon="-8.7575390">
        <ele>8.6</ele>
        <time>2021-05-16T12:04:42Z</time>
      </trkpt>
      <trkpt lat="41.3606430" lon="-8.7575390">
        <ele>8.6</ele>
        <time>2021-05-16T12:04:43Z</time>
      </trkpt>
      <trkpt lat="41.3606430" lon="-8.7575390">
        <ele>8.6</ele>
        <time>2021-05-16T12:04:44Z</time>
      </trkpt>
      <trkpt lat="41.3606430" lon="-8.7575390">
        <ele>8.6</ele>
        <time>2021-05-16T12:04:45Z</time>
      </trkpt>
      <trkpt lat="41.3606430" lon="-8.7575390">
        <ele>8.6</ele>
        <time>2021-05-16T12:04:46Z</time>
      </trkpt>
      <trkpt lat="41.3606430" lon="-8.7575380">
        <ele>8.6</ele>
        <time>2021-05-16T12:04:47Z</time>
      </trkpt>
      <trkpt lat="41.3606430" lon="-8.7575380">
        <ele>8.6</ele>
        <time>2021-05-16T12:04:48Z</time>
      </trkpt>
      <trkpt lat="41.3606430" lon="-8.7575380">
        <ele>8.6</ele>
        <time>2021-05-16T12:04:49Z</time>
      </trkpt>
      <trkpt lat="41.3606430" lon="-8.7575380">
        <ele>8.6</ele>
        <time>2021-05-16T12:04:50Z</time>
      </trkpt>
      <trkpt lat="41.3606430" lon="-8.7575380">
        <ele>8.6</ele>
        <time>2021-05-16T12:04:51Z</time>
      </trkpt>
      <trkpt lat="41.3606430" lon="-8.7575370">
        <ele>8.6</ele>
        <time>2021-05-16T12:04:52Z</time>
      </trkpt>
      <trkpt lat="41.3606440" lon="-8.7575370">
        <ele>8.6</ele>
        <time>2021-05-16T12:04:53Z</time>
      </trkpt>
      <trkpt lat="41.3606440" lon="-8.7575370">
        <ele>8.6</ele>
        <time>2021-05-16T12:04:54Z</time>
      </trkpt>
      <trkpt lat="41.3606440" lon="-8.7575370">
        <ele>8.6</ele>
        <time>2021-05-16T12:04:55Z</time>
      </trkpt>
      <trkpt lat="41.3606440" lon="-8.7575370">
        <ele>8.6</ele>
        <time>2021-05-16T12:04:56Z</time>
      </trkpt>
      <trkpt lat="41.3606440" lon="-8.7575370">
        <ele>8.6</ele>
        <time>2021-05-16T12:04:57Z</time>
      </trkpt>
      <trkpt lat="41.3606440" lon="-8.7575360">
        <ele>8.6</ele>
        <time>2021-05-16T12:04:58Z</time>
      </trkpt>
      <trkpt lat="41.3606440" lon="-8.7575360">
        <ele>8.6</ele>
        <time>2021-05-16T12:04:59Z</time>
      </trkpt>
      <trkpt lat="41.3606440" lon="-8.7575360">
        <ele>8.6</ele>
        <time>2021-05-16T12:05:00Z</time>
      </trkpt>
      <trkpt lat="41.3606440" lon="-8.7575360">
        <ele>8.6</ele>
        <time>2021-05-16T12:05:01Z</time>
      </trkpt>
      <trkpt lat="41.3606440" lon="-8.7575360">
        <ele>8.6</ele>
        <time>2021-05-16T12:05:02Z</time>
      </trkpt>
      <trkpt lat="41.3606450" lon="-8.7575360">
        <ele>8.6</ele>
        <time>2021-05-16T12:05:03Z</time>
      </trkpt>
      <trkpt lat="41.3606450" lon="-8.7575350">
        <ele>8.6</ele>
        <time>2021-05-16T12:05:04Z</time>
      </trkpt>
      <trkpt lat="41.3606450" lon="-8.7575350">
        <ele>8.6</ele>
        <time>2021-05-16T12:05:05Z</time>
      </trkpt>
      <trkpt lat="41.3606450" lon="-8.7575350">
        <ele>8.6</ele>
        <time>2021-05-16T12:05:06Z</time>
      </trkpt>
      <trkpt lat="41.3606450" lon="-8.7575350">
        <ele>8.6</ele>
        <time>2021-05-16T12:05:07Z</time>
      </trkpt>
      <trkpt lat="41.3606450" lon="-8.7575350">
        <ele>8.6</ele>
        <time>2021-05-16T12:05:08Z</time>
      </trkpt>
      <trkpt lat="41.3606450" lon="-8.7575350">
        <ele>8.6</ele>
        <time>2021-05-16T12:05:09Z</time>
      </trkpt>
      <trkpt lat="41.3606450" lon="-8.7575340">
        <ele>8.6</ele>
        <time>2021-05-16T12:05:10Z</time>
      </trkpt>
      <trkpt lat="41.3606450" lon="-8.7575340">
        <ele>8.6</ele>
        <time>2021-05-16T12:05:11Z</time>
      </trkpt>
      <trkpt lat="41.3606450" lon="-8.7575340">
        <ele>8.6</ele>
        <time>2021-05-16T12:05:12Z</time>
      </trkpt>
      <trkpt lat="41.3606460" lon="-8.7575340">
        <ele>8.6</ele>
        <time>2021-05-16T12:05:13Z</time>
      </trkpt>
      <trkpt lat="41.3606460" lon="-8.7575340">
        <ele>8.6</ele>
        <time>2021-05-16T12:05:14Z</time>
      </trkpt>
      <trkpt lat="41.3606460" lon="-8.7575340">
        <ele>8.6</ele>
        <time>2021-05-16T12:05:15Z</time>
      </trkpt>
      <trkpt lat="41.3606460" lon="-8.7575330">
        <ele>8.6</ele>
        <time>2021-05-16T12:05:16Z</time>
      </trkpt>
      <trkpt lat="41.3606460" lon="-8.7575330">
        <ele>8.6</ele>
        <time>2021-05-16T12:05:17Z</time>
      </trkpt>
      <trkpt lat="41.3606460" lon="-8.7575330">
        <ele>8.6</ele>
        <time>2021-05-16T12:05:18Z</time>
      </trkpt>
      <trkpt lat="41.3606460" lon="-8.7575330">
        <ele>8.6</ele>
        <time>2021-05-16T12:05:19Z</time>
      </trkpt>
      <trkpt lat="41.3606460" lon="-8.7575330">
        <ele>8.6</ele>
        <time>2021-05-16T12:05:20Z</time>
      </trkpt>
      <trkpt lat="41.3606460" lon="-8.7575330">
        <ele>8.6</ele>
        <time>2021-05-16T12:05:21Z</time>
      </trkpt>
      <trkpt lat="41.3606470" lon="-8.7575320">
        <ele>8.6</ele>
        <time>2021-05-16T12:05:22Z</time>
      </trkpt>
      <trkpt lat="41.3606470" lon="-8.7575320">
        <ele>8.6</ele>
        <time>2021-05-16T12:05:23Z</time>
      </trkpt>
      <trkpt lat="41.3606470" lon="-8.7575320">
        <ele>8.6</ele>
        <time>2021-05-16T12:05:24Z</time>
      </trkpt>
      <trkpt lat="41.3606470" lon="-8.7575320">
        <ele>8.6</ele>
        <time>2021-05-16T12:05:25Z</time>
      </trkpt>
      <trkpt lat="41.3606470" lon="-8.7575320">
        <ele>8.6</ele>
        <time>2021-05-16T12:05:26Z</time>
      </trkpt>
      <trkpt lat="41.3606470" lon="-8.7575310">
        <ele>8.6</ele>
        <time>2021-05-16T12:05:27Z</time>
      </trkpt>
      <trkpt lat="41.3606470" lon="-8.7575310">
        <ele>8.6</ele>
        <time>2021-05-16T12:05:28Z</time>
      </trkpt>
      <trkpt lat="41.3606470" lon="-8.7575310">
        <ele>8.6</ele>
        <time>2021-05-16T12:05:29Z</time>
      </trkpt>
      <trkpt lat="41.3606470" lon="-8.7575310">
        <ele>8.6</ele>
        <time>2021-05-16T12:05:30Z</time>
      </trkpt>
      <trkpt lat="41.3606470" lon="-8.7575310">
        <ele>8.6</ele>
        <time>2021-05-16T12:05:31Z</time>
      </trkpt>
      <trkpt lat="41.3606480" lon="-8.7575310">
        <ele>8.6</ele>
        <time>2021-05-16T12:05:32Z</time>
      </trkpt>
      <trkpt lat="41.3606480" lon="-8.7575300">
        <ele>8.6</ele>
        <time>2021-05-16T12:05:33Z</time>
      </trkpt>
      <trkpt lat="41.3606480" lon="-8.7575300">
        <ele>8.6</ele>
        <time>2021-05-16T12:05:34Z</time>
      </trkpt>
      <trkpt lat="41.3606480" lon="-8.7575300">
        <ele>8.6</ele>
        <time>2021-05-16T12:05:35Z</time>
      </trkpt>
      <trkpt lat="41.3606480" lon="-8.7575300">
        <ele>8.6</ele>
        <time>2021-05-16T12:05:36Z</time>
      </trkpt>
      <trkpt lat="41.3606480" lon="-8.7575300">
        <ele>8.6</ele>
        <time>2021-05-16T12:05:37Z</time>
      </trkpt>
      <trkpt lat="41.3606480" lon="-8.7575300">
        <ele>8.6</ele>
        <time>2021-05-16T12:05:38Z</time>
      </trkpt>
      <trkpt lat="41.3606480" lon="-8.7575290">
        <ele>8.6</ele>
        <time>2021-05-16T12:05:39Z</time>
      </trkpt>
      <trkpt lat="41.3606480" lon="-8.7575290">
        <ele>8.6</ele>
        <time>2021-05-16T12:05:40Z</time>
      </trkpt>
      <trkpt lat="41.3606480" lon="-8.7575290">
        <ele>8.6</ele>
        <time>2021-05-16T12:05:41Z</time>
      </trkpt>
      <trkpt lat="41.3606490" lon="-8.7575290">
        <ele>8.6</ele>
        <time>2021-05-16T12:05:42Z</time>
      </trkpt>
      <trkpt lat="41.3606490" lon="-8.7575290">
        <ele>8.6</ele>
        <time>2021-05-16T12:05:43Z</time>
      </trkpt>
      <trkpt lat="41.3606490" lon="-8.7575290">
        <ele>8.6</ele>
        <time>2021-05-16T12:05:44Z</time>
      </trkpt>
      <trkpt lat="41.3606490" lon="-8.7575280">
        <ele>8.6</ele>
        <time>2021-05-16T12:05:45Z</time>
      </trkpt>
      <trkpt lat="41.3606490" lon="-8.7575280">
        <ele>8.6</ele>
        <time>2021-05-16T12:05:46Z</time>
      </trkpt>
      <trkpt lat="41.3606490" lon="-8.7575280">
        <ele>8.6</ele>
        <time>2021-05-16T12:05:47Z</time>
      </trkpt>
      <trkpt lat="41.3606490" lon="-8.7575280">
        <ele>8.6</ele>
        <time>2021-05-16T12:05:48Z</time>
      </trkpt>
      <trkpt lat="41.3606490" lon="-8.7575280">
        <ele>8.6</ele>
        <time>2021-05-16T12:05:49Z</time>
      </trkpt>
      <trkpt lat="41.3606490" lon="-8.7575280">
        <ele>8.6</ele>
        <time>2021-05-16T12:05:50Z</time>
      </trkpt>
      <trkpt lat="41.3606490" lon="-8.7575270">
        <ele>8.6</ele>
        <time>2021-05-16T12:05:51Z</time>
      </trkpt>
      <trkpt lat="41.3606500" lon="-8.7575270">
        <ele>8.6</ele>
        <time>2021-05-16T12:05:52Z</time>
      </trkpt>
      <trkpt lat="41.3606500" lon="-8.7575270">
        <ele>8.6</ele>
        <time>2021-05-16T12:05:53Z</time>
      </trkpt>
      <trkpt lat="41.3606500" lon="-8.7575270">
        <ele>8.6</ele>
        <time>2021-05-16T12:05:54Z</time>
      </trkpt>
      <trkpt lat="41.3606500" lon="-8.7575270">
        <ele>8.6</ele>
        <time>2021-05-16T12:05:55Z</time>
      </trkpt>
      <trkpt lat="41.3606500" lon="-8.7575270">
        <ele>8.6</ele>
        <time>2021-05-16T12:05:56Z</time>
      </trkpt>
      <trkpt lat="41.3606500" lon="-8.7575260">
        <ele>8.6</ele>
        <time>2021-05-16T12:05:57Z</time>
      </trkpt>
      <trkpt lat="41.3606500" lon="-8.7575260">
        <ele>8.6</ele>
        <time>2021-05-16T12:05:58Z</time>
      </trkpt>
      <trkpt lat="41.3606500" lon="-8.7575260">
        <ele>8.6</ele>
        <time>2021-05-16T12:05:59Z</time>
      </trkpt>
      <trkpt lat="41.3606500" lon="-8.7575260">
        <ele>8.6</ele>
        <time>2021-05-16T12:06:00Z</time>
      </trkpt>
      <trkpt lat="41.3606500" lon="-8.7575260">
        <ele>8.6</ele>
        <time>2021-05-16T12:06:01Z</time>
      </trkpt>
      <trkpt lat="41.3606510" lon="-8.7575250">
        <ele>8.6</ele>
        <time>2021-05-16T12:06:02Z</time>
      </trkpt>
      <trkpt lat="41.3606510" lon="-8.7575250">
        <ele>8.6</ele>
        <time>2021-05-16T12:06:03Z</time>
      </trkpt>
      <trkpt lat="41.3606510" lon="-8.7575250">
        <ele>8.6</ele>
        <time>2021-05-16T12:06:04Z</time>
      </trkpt>
      <trkpt lat="41.3606510" lon="-8.7575250">
        <ele>8.6</ele>
        <time>2021-05-16T12:06:05Z</time>
      </trkpt>
      <trkpt lat="41.3606510" lon="-8.7575250">
        <ele>8.6</ele>
        <time>2021-05-16T12:06:06Z</time>
      </trkpt>
      <trkpt lat="41.3606510" lon="-8.7575250">
        <ele>8.6</ele>
        <time>2021-05-16T12:06:07Z</time>
      </trkpt>
      <trkpt lat="41.3606510" lon="-8.7575240">
        <ele>8.6</ele>
        <time>2021-05-16T12:06:08Z</time>
      </trkpt>
      <trkpt lat="41.3606510" lon="-8.7575240">
        <ele>8.6</ele>
        <time>2021-05-16T12:06:09Z</time>
      </trkpt>
      <trkpt lat="41.3606510" lon="-8.7575240">
        <ele>8.6</ele>
        <time>2021-05-16T12:06:10Z</time>
      </trkpt>
      <trkpt lat="41.3606520" lon="-8.7575240">
        <ele>8.6</ele>
        <time>2021-05-16T12:06:11Z</time>
      </trkpt>
      <trkpt lat="41.3606520" lon="-8.7575240">
        <ele>8.6</ele>
        <time>2021-05-16T12:06:12Z</time>
      </trkpt>
      <trkpt lat="41.3606520" lon="-8.7575240">
        <ele>8.6</ele>
        <time>2021-05-16T12:06:13Z</time>
      </trkpt>
      <trkpt lat="41.3606520" lon="-8.7575230">
        <ele>8.6</ele>
        <time>2021-05-16T12:06:14Z</time>
      </trkpt>
      <trkpt lat="41.3606520" lon="-8.7575230">
        <ele>8.6</ele>
        <time>2021-05-16T12:06:15Z</time>
      </trkpt>
      <trkpt lat="41.3606520" lon="-8.7575230">
        <ele>8.6</ele>
        <time>2021-05-16T12:06:16Z</time>
      </trkpt>
      <trkpt lat="41.3606520" lon="-8.7575230">
        <ele>8.6</ele>
        <time>2021-05-16T12:06:17Z</time>
      </trkpt>
      <trkpt lat="41.3606520" lon="-8.7575230">
        <ele>8.6</ele>
        <time>2021-05-16T12:06:18Z</time>
      </trkpt>
      <trkpt lat="41.3606520" lon="-8.7575230">
        <ele>8.6</ele>
        <time>2021-05-16T12:06:19Z</time>
      </trkpt>
      <trkpt lat="41.3606520" lon="-8.7575220">
        <ele>8.6</ele>
        <time>2021-05-16T12:06:20Z</time>
      </trkpt>
      <trkpt lat="41.3606530" lon="-8.7575220">
        <ele>8.6</ele>
        <time>2021-05-16T12:06:21Z</time>
      </trkpt>
      <trkpt lat="41.3606530" lon="-8.7575220">
        <ele>8.6</ele>
        <time>2021-05-16T12:06:22Z</time>
      </trkpt>
      <trkpt lat="41.3606530" lon="-8.7575220">
        <ele>8.6</ele>
        <time>2021-05-16T12:06:23Z</time>
      </trkpt>
      <trkpt lat="41.3606530" lon="-8.7575220">
        <ele>8.6</ele>
        <time>2021-05-16T12:06:24Z</time>
      </trkpt>
      <trkpt lat="41.3606530" lon="-8.7575220">
        <ele>8.6</ele>
        <time>2021-05-16T12:06:25Z</time>
      </trkpt>
      <trkpt lat="41.3606530" lon="-8.7575210">
        <ele>8.6</ele>
        <time>2021-05-16T12:06:26Z</time>
      </trkpt>
      <trkpt lat="41.3606530" lon="-8.7575210">
        <ele>8.6</ele>
        <time>2021-05-16T12:06:27Z</time>
      </trkpt>
      <trkpt lat="41.3606530" lon="-8.7575210">
        <ele>8.6</ele>
        <time>2021-05-16T12:06:28Z</time>
      </trkpt>
      <trkpt lat="41.3606530" lon="-8.7575210">
        <ele>8.6</ele>
        <time>2021-05-16T12:06:29Z</time>
      </trkpt>
      <trkpt lat="41.3606530" lon="-8.7575210">
        <ele>8.6</ele>
        <time>2021-05-16T12:06:30Z</time>
      </trkpt>
      <trkpt lat="41.3606540" lon="-8.7575210">
        <ele>8.6</ele>
        <time>2021-05-16T12:06:31Z</time>
      </trkpt>
      <trkpt lat="41.3606540" lon="-8.7575200">
        <ele>8.6</ele>
        <time>2021-05-16T12:06:32Z</time>
      </trkpt>
      <trkpt lat="41.3606540" lon="-8.7575200">
        <ele>8.6</ele>
        <time>2021-05-16T12:06:33Z</time>
      </trkpt>
      <trkpt lat="41.3606540" lon="-8.7575200">
        <ele>8.6</ele>
        <time>2021-05-16T12:06:34Z</time>
      </trkpt>
      <trkpt lat="41.3606540" lon="-8.7575200">
        <ele>8.6</ele>
        <time>2021-05-16T12:06:35Z</time>
      </trkpt>
      <trkpt lat="41.3606540" lon="-8.7575200">
        <ele>8.6</ele>
        <time>2021-05-16T12:06:36Z</time>
      </trkpt>
      <trkpt lat="41.3606540" lon="-8.7575190">
        <ele>8.6</ele>
        <time>2021-05-16T12:06:37Z</time>
      </trkpt>
      <trkpt lat="41.3606540" lon="-8.7575190">
        <ele>8.6</ele>
        <time>2021-05-16T12:06:38Z</time>
      </trkpt>
      <trkpt lat="41.3606540" lon="-8.7575190">
        <ele>8.6</ele>
        <time>2021-05-16T12:06:39Z</time>
      </trkpt>
      <trkpt lat="41.3606540" lon="-8.7575190">
        <ele>8.6</ele>
        <time>2021-05-16T12:06:40Z</time>
      </trkpt>
      <trkpt lat="41.3606550" lon="-8.7575190">
        <ele>8.6</ele>
        <time>2021-05-16T12:06:41Z</time>
      </trkpt>
      <trkpt lat="41.3606550" lon="-8.7575190">
        <ele>8.6</ele>
        <time>2021-05-16T12:06:42Z</time>
      </trkpt>
      <trkpt lat="41.3606550" lon="-8.7575180">
        <ele>8.6</ele>
        <time>2021-05-16T12:06:43Z</time>
      </trkpt>
      <trkpt lat="41.3606550" lon="-8.7575180">
        <ele>8.6</ele>
        <time>2021-05-16T12:06:44Z</time>
      </trkpt>
      <trkpt lat="41.3606550" lon="-8.7575180">
        <ele>8.6</ele>
        <time>2021-05-16T12:06:45Z</time>
      </trkpt>
      <trkpt lat="41.3606550" lon="-8.7575180">
        <ele>8.6</ele>
        <time>2021-05-16T12:06:46Z</time>
      </trkpt>
      <trkpt lat="41.3606550" lon="-8.7575180">
        <ele>8.6</ele>
        <time>2021-05-16T12:06:47Z</time>
      </trkpt>
      <trkpt lat="41.3606550" lon="-8.7575180">
        <ele>8.6</ele>
        <time>2021-05-16T12:06:48Z</time>
      </trkpt>
      <trkpt lat="41.3606550" lon="-8.7575170">
        <ele>8.6</ele>
        <time>2021-05-16T12:06:49Z</time>
      </trkpt>
      <trkpt lat="41.3606550" lon="-8.7575170">
        <ele>8.6</ele>
        <time>2021-05-16T12:06:50Z</time>
      </trkpt>
      <trkpt lat="41.3606560" lon="-8.7575170">
        <ele>8.6</ele>
        <time>2021-05-16T12:06:51Z</time>
      </trkpt>
      <trkpt lat="41.3606560" lon="-8.7575170">
        <ele>8.6</ele>
        <time>2021-05-16T12:06:52Z</time>
      </trkpt>
      <trkpt lat="41.3606560" lon="-8.7575170">
        <ele>8.6</ele>
        <time>2021-05-16T12:06:53Z</time>
      </trkpt>
      <trkpt lat="41.3606560" lon="-8.7575170">
        <ele>8.6</ele>
        <time>2021-05-16T12:06:54Z</time>
      </trkpt>
      <trkpt lat="41.3606560" lon="-8.7575160">
        <ele>8.6</ele>
        <time>2021-05-16T12:06:55Z</time>
      </trkpt>
      <trkpt lat="41.3606560" lon="-8.7575160">
        <ele>8.6</ele>
        <time>2021-05-16T12:06:56Z</time>
      </trkpt>
      <trkpt lat="41.3606560" lon="-8.7575160">
        <ele>8.6</ele>
        <time>2021-05-16T12:06:57Z</time>
      </trkpt>
      <trkpt lat="41.3606560" lon="-8.7575160">
        <ele>8.6</ele>
        <time>2021-05-16T12:06:58Z</time>
      </trkpt>
      <trkpt lat="41.3606560" lon="-8.7575160">
        <ele>8.6</ele>
        <time>2021-05-16T12:06:59Z</time>
      </trkpt>
      <trkpt lat="41.3606570" lon="-8.7575160">
        <ele>8.6</ele>
        <time>2021-05-16T12:07:00Z</time>
      </trkpt>
      <trkpt lat="41.3606570" lon="-8.7575150">
        <ele>8.6</ele>
        <time>2021-05-16T12:07:01Z</time>
      </trkpt>
      <trkpt lat="41.3606570" lon="-8.7575150">
        <ele>8.6</ele>
        <time>2021-05-16T12:07:02Z</time>
      </trkpt>
      <trkpt lat="41.3606570" lon="-8.7575150">
        <ele>8.6</ele>
        <time>2021-05-16T12:07:03Z</time>
      </trkpt>
      <trkpt lat="41.3606570" lon="-8.7575150">
        <ele>8.6</ele>
        <time>2021-05-16T12:07:04Z</time>
      </trkpt>
      <trkpt lat="41.3606570" lon="-8.7575150">
        <ele>8.6</ele>
        <time>2021-05-16T12:07:05Z</time>
      </trkpt>
      <trkpt lat="41.3606570" lon="-8.7575150">
        <ele>8.6</ele>
        <time>2021-05-16T12:07:06Z</time>
      </trkpt>
      <trkpt lat="41.3606570" lon="-8.7575140">
        <ele>8.6</ele>
        <time>2021-05-16T12:07:07Z</time>
      </trkpt>
      <trkpt lat="41.3606570" lon="-8.7575140">
        <ele>8.6</ele>
        <time>2021-05-16T12:07:08Z</time>
      </trkpt>
      <trkpt lat="41.3606570" lon="-8.7575140">
        <ele>8.6</ele>
        <time>2021-05-16T12:07:09Z</time>
      </trkpt>
      <trkpt lat="41.3606580" lon="-8.7575140">
        <ele>8.6</ele>
        <time>2021-05-16T12:07:10Z</time>
      </trkpt>
      <trkpt lat="41.3606580" lon="-8.7575140">
        <ele>8.6</ele>
        <time>2021-05-16T12:07:11Z</time>
      </trkpt>
      <trkpt lat="41.3606580" lon="-8.7575130">
        <ele>8.6</ele>
        <time>2021-05-16T12:07:12Z</time>
      </trkpt>
      <trkpt lat="41.3606580" lon="-8.7575130">
        <ele>8.6</ele>
        <time>2021-05-16T12:07:13Z</time>
      </trkpt>
      <trkpt lat="41.3606580" lon="-8.7575130">
        <ele>8.6</ele>
        <time>2021-05-16T12:07:14Z</time>
      </trkpt>
      <trkpt lat="41.3606580" lon="-8.7575130">
        <ele>8.6</ele>
        <time>2021-05-16T12:07:15Z</time>
      </trkpt>
      <trkpt lat="41.3606580" lon="-8.7575130">
        <ele>8.6</ele>
        <time>2021-05-16T12:07:16Z</time>
      </trkpt>
      <trkpt lat="41.3606580" lon="-8.7575130">
        <ele>8.6</ele>
        <time>2021-05-16T12:07:17Z</time>
      </trkpt>
      <trkpt lat="41.3606580" lon="-8.7575120">
        <ele>8.6</ele>
        <time>2021-05-16T12:07:18Z</time>
      </trkpt>
      <trkpt lat="41.3606580" lon="-8.7575120">
        <ele>8.6</ele>
        <time>2021-05-16T12:07:19Z</time>
      </trkpt>
      <trkpt lat="41.3606590" lon="-8.7575120">
        <ele>8.6</ele>
        <time>2021-05-16T12:07:20Z</time>
      </trkpt>
      <trkpt lat="41.3606590" lon="-8.7575120">
        <ele>8.6</ele>
        <time>2021-05-16T12:07:21Z</time>
      </trkpt>
      <trkpt lat="41.3606590" lon="-8.7575120">
        <ele>8.6</ele>
        <time>2021-05-16T12:07:22Z</time>
      </trkpt>
      <trkpt lat="41.3606590" lon="-8.7575120">
        <ele>8.6</ele>
        <time>2021-05-16T12:07:23Z</time>
      </trkpt>
      <trkpt lat="41.3606590" lon="-8.7575110">
        <ele>8.6</ele>
        <time>2021-05-16T12:07:24Z</time>
      </trkpt>
      <trkpt lat="41.3606590" lon="-8.7575110">
        <ele>8.6</ele>
        <time>2021-05-16T12:07:25Z</time>
      </trkpt>
      <trkpt lat="41.3606590" lon="-8.7575110">
        <ele>8.6</ele>
        <time>2021-05-16T12:07:26Z</time>
      </trkpt>
      <trkpt lat="41.3606590" lon="-8.7575110">
        <ele>8.6</ele>
        <time>2021-05-16T12:07:27Z</time>
      </trkpt>
      <trkpt lat="41.3606590" lon="-8.7575110">
        <ele>8.6</ele>
        <time>2021-05-16T12:07:28Z</time>
      </trkpt>
      <trkpt lat="41.3606590" lon="-8.7575110">
        <ele>8.6</ele>
        <time>2021-05-16T12:07:29Z</time>
      </trkpt>
      <trkpt lat="41.3606600" lon="-8.7575100">
        <ele>8.6</ele>
        <time>2021-05-16T12:07:30Z</time>
      </trkpt>
      <trkpt lat="41.3606600" lon="-8.7575100">
        <ele>8.6</ele>
        <time>2021-05-16T12:07:31Z</time>
      </trkpt>
      <trkpt lat="41.3606600" lon="-8.7575100">
        <ele>8.6</ele>
        <time>2021-05-16T12:07:32Z</time>
      </trkpt>
      <trkpt lat="41.3606600" lon="-8.7575100">
        <ele>8.6</ele>
        <time>2021-05-16T12:07:33Z</time>
      </trkpt>
      <trkpt lat="41.3606600" lon="-8.7575100">
        <ele>8.6</ele>
        <time>2021-05-16T12:07:34Z</time>
      </trkpt>
      <trkpt lat="41.3606600" lon="-8.7575100">
        <ele>8.6</ele>
        <time>2021-05-16T12:07:35Z</time>
      </trkpt>
      <trkpt lat="41.3606600" lon="-8.7575090">
        <ele>8.6</ele>
        <time>2021-05-16T12:07:36Z</time>
      </trkpt>
      <trkpt lat="41.3606600" lon="-8.7575090">
        <ele>8.6</ele>
        <time>2021-05-16T12:07:37Z</time>
      </trkpt>
      <trkpt lat="41.3606600" lon="-8.7575090">
        <ele>8.6</ele>
        <time>2021-05-16T12:07:38Z</time>
      </trkpt>
      <trkpt lat="41.3606600" lon="-8.7575090">
        <ele>8.6</ele>
        <time>2021-05-16T12:07:39Z</time>
      </trkpt>
      <trkpt lat="41.3606610" lon="-8.7575090">
        <ele>8.6</ele>
        <time>2021-05-16T12:07:40Z</time>
      </trkpt>
      <trkpt lat="41.3606610" lon="-8.7575090">
        <ele>8.6</ele>
        <time>2021-05-16T12:07:41Z</time>
      </trkpt>
      <trkpt lat="41.3606610" lon="-8.7575080">
        <ele>8.6</ele>
        <time>2021-05-16T12:07:42Z</time>
      </trkpt>
      <trkpt lat="41.3606610" lon="-8.7575080">
        <ele>8.6</ele>
        <time>2021-05-16T12:07:43Z</time>
      </trkpt>
      <trkpt lat="41.3606610" lon="-8.7575080">
        <ele>8.6</ele>
        <time>2021-05-16T12:07:44Z</time>
      </trkpt>
      <trkpt lat="41.3606610" lon="-8.7575070">
        <ele>8.6</ele>
        <time>2021-05-16T12:07:45Z</time>
      </trkpt>
      <trkpt lat="41.3606610" lon="-8.7575070">
        <ele>8.6</ele>
        <time>2021-05-16T12:07:46Z</time>
      </trkpt>
      <trkpt lat="41.3606610" lon="-8.7575070">
        <ele>8.6</ele>
        <time>2021-05-16T12:07:47Z</time>
      </trkpt>
      <trkpt lat="41.3606610" lon="-8.7575070">
        <ele>8.6</ele>
        <time>2021-05-16T12:07:48Z</time>
      </trkpt>
      <trkpt lat="41.3606610" lon="-8.7575070">
        <ele>8.6</ele>
        <time>2021-05-16T12:07:49Z</time>
      </trkpt>
      <trkpt lat="41.3606610" lon="-8.7575070">
        <ele>8.6</ele>
        <time>2021-05-16T12:07:50Z</time>
      </trkpt>
      <trkpt lat="41.3606610" lon="-8.7575070">
        <ele>8.6</ele>
        <time>2021-05-16T12:07:51Z</time>
      </trkpt>
      <trkpt lat="41.3606610" lon="-8.7575070">
        <ele>8.6</ele>
        <time>2021-05-16T12:07:52Z</time>
      </trkpt>
      <trkpt lat="41.3606610" lon="-8.7575070">
        <ele>8.6</ele>
        <time>2021-05-16T12:07:53Z</time>
      </trkpt>
      <trkpt lat="41.3606610" lon="-8.7575070">
        <ele>8.6</ele>
        <time>2021-05-16T12:07:54Z</time>
      </trkpt>
      <trkpt lat="41.3606610" lon="-8.7575070">
        <ele>8.6</ele>
        <time>2021-05-16T12:07:55Z</time>
      </trkpt>
      <trkpt lat="41.3606610" lon="-8.7575070">
        <ele>8.6</ele>
        <time>2021-05-16T12:07:56Z</time>
      </trkpt>
      <trkpt lat="41.3606610" lon="-8.7575070">
        <ele>8.6</ele>
        <time>2021-05-16T12:07:57Z</time>
      </trkpt>
      <trkpt lat="41.3606610" lon="-8.7575070">
        <ele>8.6</ele>
        <time>2021-05-16T12:07:58Z</time>
      </trkpt>
      <trkpt lat="41.3606610" lon="-8.7575070">
        <ele>8.6</ele>
        <time>2021-05-16T12:07:59Z</time>
      </trkpt>
      <trkpt lat="41.3606610" lon="-8.7575070">
        <ele>8.6</ele>
        <time>2021-05-16T12:08:00Z</time>
      </trkpt>
      <trkpt lat="41.3606610" lon="-8.7575070">
        <ele>8.6</ele>
        <time>2021-05-16T12:08:01Z</time>
      </trkpt>
      <trkpt lat="41.3606610" lon="-8.7575070">
        <ele>8.6</ele>
        <time>2021-05-16T12:08:02Z</time>
      </trkpt>
      <trkpt lat="41.3606610" lon="-8.7575070">
        <ele>8.6</ele>
        <time>2021-05-16T12:08:03Z</time>
      </trkpt>
      <trkpt lat="41.3606610" lon="-8.7575070">
        <ele>8.6</ele>
        <time>2021-05-16T12:08:04Z</time>
      </trkpt>
      <trkpt lat="41.3606610" lon="-8.7575070">
        <ele>8.6</ele>
        <time>2021-05-16T12:08:05Z</time>
      </trkpt>
      <trkpt lat="41.3606610" lon="-8.7575070">
        <ele>8.6</ele>
        <time>2021-05-16T12:08:06Z</time>
      </trkpt>
      <trkpt lat="41.3606610" lon="-8.7575070">
        <ele>8.6</ele>
        <time>2021-05-16T12:08:07Z</time>
      </trkpt>
      <trkpt lat="41.3606610" lon="-8.7575070">
        <ele>8.6</ele>
        <time>2021-05-16T12:08:08Z</time>
      </trkpt>
      <trkpt lat="41.3606610" lon="-8.7575070">
        <ele>8.6</ele>
        <time>2021-05-16T12:08:09Z</time>
      </trkpt>
      <trkpt lat="41.3606610" lon="-8.7575070">
        <ele>8.6</ele>
        <time>2021-05-16T12:08:10Z</time>
      </trkpt>
      <trkpt lat="41.3606610" lon="-8.7575070">
        <ele>8.6</ele>
        <time>2021-05-16T12:08:11Z</time>
      </trkpt>
      <trkpt lat="41.3606610" lon="-8.7575070">
        <ele>8.6</ele>
        <time>2021-05-16T12:08:12Z</time>
      </trkpt>
      <trkpt lat="41.3606610" lon="-8.7575070">
        <ele>8.6</ele>
        <time>2021-05-16T12:08:13Z</time>
      </trkpt>
      <trkpt lat="41.3606610" lon="-8.7575070">
        <ele>8.6</ele>
        <time>2021-05-16T12:08:14Z</time>
      </trkpt>
      <trkpt lat="41.3606610" lon="-8.7575070">
        <ele>8.6</ele>
        <time>2021-05-16T12:08:15Z</time>
      </trkpt>
      <trkpt lat="41.3606610" lon="-8.7575070">
        <ele>8.6</ele>
        <time>2021-05-16T12:08:16Z</time>
      </trkpt>
      <trkpt lat="41.3606610" lon="-8.7575070">
        <ele>8.6</ele>
        <time>2021-05-16T12:08:17Z</time>
      </trkpt>
      <trkpt lat="41.3606610" lon="-8.7575070">
        <ele>8.6</ele>
        <time>2021-05-16T12:08:18Z</time>
      </trkpt>
      <trkpt lat="41.3606610" lon="-8.7575070">
        <ele>8.6</ele>
        <time>2021-05-16T12:08:19Z</time>
      </trkpt>
      <trkpt lat="41.3606610" lon="-8.7575070">
        <ele>8.6</ele>
        <time>2021-05-16T12:08:20Z</time>
      </trkpt>
      <trkpt lat="41.3606610" lon="-8.7575070">
        <ele>8.6</ele>
        <time>2021-05-16T12:08:21Z</time>
      </trkpt>
      <trkpt lat="41.3606610" lon="-8.7575070">
        <ele>8.6</ele>
        <time>2021-05-16T12:08:22Z</time>
      </trkpt>
      <trkpt lat="41.3606610" lon="-8.7575070">
        <ele>8.6</ele>
        <time>2021-05-16T12:08:23Z</time>
      </trkpt>
      <trkpt lat="41.3606610" lon="-8.7575070">
        <ele>8.6</ele>
        <time>2021-05-16T12:08:24Z</time>
      </trkpt>
      <trkpt lat="41.3606610" lon="-8.7575070">
        <ele>8.6</ele>
        <time>2021-05-16T12:08:25Z</time>
      </trkpt>
      <trkpt lat="41.3606610" lon="-8.7575070">
        <ele>8.6</ele>
        <time>2021-05-16T12:08:26Z</time>
      </trkpt>
      <trkpt lat="41.3606610" lon="-8.7575070">
        <ele>8.6</ele>
        <time>2021-05-16T12:08:27Z</time>
      </trkpt>
      <trkpt lat="41.3606610" lon="-8.7575070">
        <ele>8.6</ele>
        <time>2021-05-16T12:08:28Z</time>
      </trkpt>
      <trkpt lat="41.3606610" lon="-8.7575070">
        <ele>8.6</ele>
        <time>2021-05-16T12:08:29Z</time>
      </trkpt>
      <trkpt lat="41.3606610" lon="-8.7575070">
        <ele>8.6</ele>
        <time>2021-05-16T12:08:30Z</time>
      </trkpt>
      <trkpt lat="41.3606610" lon="-8.7575070">
        <ele>8.6</ele>
        <time>2021-05-16T12:08:31Z</time>
      </trkpt>
      <trkpt lat="41.3606610" lon="-8.7575070">
        <ele>8.6</ele>
        <time>2021-05-16T12:08:32Z</time>
      </trkpt>
      <trkpt lat="41.3606610" lon="-8.7575070">
        <ele>8.6</ele>
        <time>2021-05-16T12:08:33Z</time>
      </trkpt>
      <trkpt lat="41.3606610" lon="-8.7575070">
        <ele>8.6</ele>
        <time>2021-05-16T12:08:34Z</time>
      </trkpt>
      <trkpt lat="41.3606610" lon="-8.7575070">
        <ele>8.6</ele>
        <time>2021-05-16T12:08:35Z</time>
      </trkpt>
      <trkpt lat="41.3606610" lon="-8.7575070">
        <ele>8.6</ele>
        <time>2021-05-16T12:08:36Z</time>
      </trkpt>
      <trkpt lat="41.3606610" lon="-8.7575070">
        <ele>8.6</ele>
        <time>2021-05-16T12:08:37Z</time>
      </trkpt>
      <trkpt lat="41.3606610" lon="-8.7575070">
        <ele>8.6</ele>
        <time>2021-05-16T12:08:38Z</time>
      </trkpt>
      <trkpt lat="41.3606610" lon="-8.7575070">
        <ele>8.6</ele>
        <time>2021-05-16T12:08:39Z</time>
      </trkpt>
      <trkpt lat="41.3606610" lon="-8.7575070">
        <ele>8.6</ele>
        <time>2021-05-16T12:08:40Z</time>
      </trkpt>
      <trkpt lat="41.3606610" lon="-8.7575070">
        <ele>8.6</ele>
        <time>2021-05-16T12:08:41Z</time>
      </trkpt>
      <trkpt lat="41.3606610" lon="-8.7575070">
        <ele>8.6</ele>
        <time>2021-05-16T12:08:42Z</time>
      </trkpt>
      <trkpt lat="41.3606610" lon="-8.7575070">
        <ele>8.6</ele>
        <time>2021-05-16T12:08:43Z</time>
      </trkpt>
      <trkpt lat="41.3606610" lon="-8.7575070">
        <ele>8.6</ele>
        <time>2021-05-16T12:08:44Z</time>
      </trkpt>
      <trkpt lat="41.3606610" lon="-8.7575070">
        <ele>8.6</ele>
        <time>2021-05-16T12:08:45Z</time>
      </trkpt>
      <trkpt lat="41.3606610" lon="-8.7575070">
        <ele>8.6</ele>
        <time>2021-05-16T12:08:46Z</time>
      </trkpt>
      <trkpt lat="41.3606610" lon="-8.7575070">
        <ele>8.6</ele>
        <time>2021-05-16T12:08:47Z</time>
      </trkpt>
      <trkpt lat="41.3606610" lon="-8.7575070">
        <ele>8.6</ele>
        <time>2021-05-16T12:08:48Z</time>
      </trkpt>
      <trkpt lat="41.3606610" lon="-8.7575070">
        <ele>8.6</ele>
        <time>2021-05-16T12:08:49Z</time>
      </trkpt>
      <trkpt lat="41.3606610" lon="-8.7575070">
        <ele>8.6</ele>
        <time>2021-05-16T12:08:50Z</time>
      </trkpt>
      <trkpt lat="41.3606610" lon="-8.7575070">
        <ele>8.6</ele>
        <time>2021-05-16T12:08:51Z</time>
      </trkpt>
      <trkpt lat="41.3606610" lon="-8.7575070">
        <ele>8.6</ele>
        <time>2021-05-16T12:08:52Z</time>
      </trkpt>
      <trkpt lat="41.3606610" lon="-8.7575070">
        <ele>8.6</ele>
        <time>2021-05-16T12:08:53Z</time>
      </trkpt>
      <trkpt lat="41.3606610" lon="-8.7575070">
        <ele>8.6</ele>
        <time>2021-05-16T12:08:54Z</time>
      </trkpt>
      <trkpt lat="41.3606610" lon="-8.7575070">
        <ele>8.6</ele>
        <time>2021-05-16T12:08:55Z</time>
      </trkpt>
      <trkpt lat="41.3606610" lon="-8.7575070">
        <ele>8.6</ele>
        <time>2021-05-16T12:08:56Z</time>
      </trkpt>
      <trkpt lat="41.3606610" lon="-8.7575070">
        <ele>8.6</ele>
        <time>2021-05-16T12:08:57Z</time>
      </trkpt>
      <trkpt lat="41.3606610" lon="-8.7575070">
        <ele>8.6</ele>
        <time>2021-05-16T12:08:58Z</time>
      </trkpt>
      <trkpt lat="41.3606610" lon="-8.7575070">
        <ele>8.6</ele>
        <time>2021-05-16T12:08:59Z</time>
      </trkpt>
      <trkpt lat="41.3606610" lon="-8.7575070">
        <ele>8.6</ele>
        <time>2021-05-16T12:09:00Z</time>
      </trkpt>
      <trkpt lat="41.3606610" lon="-8.7575070">
        <ele>8.6</ele>
        <time>2021-05-16T12:09:01Z</time>
      </trkpt>
      <trkpt lat="41.3606610" lon="-8.7575070">
        <ele>8.6</ele>
        <time>2021-05-16T12:09:02Z</time>
      </trkpt>
      <trkpt lat="41.3606610" lon="-8.7575070">
        <ele>8.6</ele>
        <time>2021-05-16T12:09:03Z</time>
      </trkpt>
      <trkpt lat="41.3606610" lon="-8.7575070">
        <ele>8.6</ele>
        <time>2021-05-16T12:09:04Z</time>
      </trkpt>
      <trkpt lat="41.3606610" lon="-8.7575070">
        <ele>8.6</ele>
        <time>2021-05-16T12:09:05Z</time>
      </trkpt>
      <trkpt lat="41.3606610" lon="-8.7575070">
        <ele>8.6</ele>
        <time>2021-05-16T12:09:06Z</time>
      </trkpt>
      <trkpt lat="41.3606610" lon="-8.7575070">
        <ele>8.6</ele>
        <time>2021-05-16T12:09:07Z</time>
      </trkpt>
      <trkpt lat="41.3606610" lon="-8.7575070">
        <ele>8.6</ele>
        <time>2021-05-16T12:09:08Z</time>
      </trkpt>
      <trkpt lat="41.3606610" lon="-8.7575070">
        <ele>8.6</ele>
        <time>2021-05-16T12:09:09Z</time>
      </trkpt>
      <trkpt lat="41.3606610" lon="-8.7575070">
        <ele>8.6</ele>
        <time>2021-05-16T12:09:10Z</time>
      </trkpt>
      <trkpt lat="41.3606610" lon="-8.7575070">
        <ele>8.6</ele>
        <time>2021-05-16T12:09:11Z</time>
      </trkpt>
      <trkpt lat="41.3606610" lon="-8.7575070">
        <ele>8.6</ele>
        <time>2021-05-16T12:09:12Z</time>
      </trkpt>
      <trkpt lat="41.3606610" lon="-8.7575070">
        <ele>8.6</ele>
        <time>2021-05-16T12:09:13Z</time>
      </trkpt>
      <trkpt lat="41.3606610" lon="-8.7575070">
        <ele>8.6</ele>
        <time>2021-05-16T12:09:14Z</time>
      </trkpt>
      <trkpt lat="41.3606610" lon="-8.7575070">
        <ele>8.6</ele>
        <time>2021-05-16T12:09:15Z</time>
      </trkpt>
      <trkpt lat="41.3606610" lon="-8.7575070">
        <ele>8.6</ele>
        <time>2021-05-16T12:09:16Z</time>
      </trkpt>
      <trkpt lat="41.3606610" lon="-8.7575070">
        <ele>8.6</ele>
        <time>2021-05-16T12:09:17Z</time>
      </trkpt>
      <trkpt lat="41.3606610" lon="-8.7575070">
        <ele>8.6</ele>
        <time>2021-05-16T12:09:18Z</time>
      </trkpt>
      <trkpt lat="41.3606610" lon="-8.7575070">
        <ele>8.6</ele>
        <time>2021-05-16T12:09:19Z</time>
      </trkpt>
      <trkpt lat="41.3606610" lon="-8.7575070">
        <ele>8.6</ele>
        <time>2021-05-16T12:09:20Z</time>
      </trkpt>
      <trkpt lat="41.3606610" lon="-8.7575070">
        <ele>8.6</ele>
        <time>2021-05-16T12:09:21Z</time>
      </trkpt>
      <trkpt lat="41.3606610" lon="-8.7575070">
        <ele>8.6</ele>
        <time>2021-05-16T12:09:22Z</time>
      </trkpt>
      <trkpt lat="41.3606610" lon="-8.7575070">
        <ele>8.6</ele>
        <time>2021-05-16T12:09:23Z</time>
      </trkpt>
      <trkpt lat="41.3606610" lon="-8.7575070">
        <ele>8.6</ele>
        <time>2021-05-16T12:09:24Z</time>
      </trkpt>
      <trkpt lat="41.3606610" lon="-8.7575070">
        <ele>8.6</ele>
        <time>2021-05-16T12:09:25Z</time>
      </trkpt>
      <trkpt lat="41.3606610" lon="-8.7575070">
        <ele>8.6</ele>
        <time>2021-05-16T12:09:26Z</time>
      </trkpt>
      <trkpt lat="41.3606610" lon="-8.7575070">
        <ele>8.6</ele>
        <time>2021-05-16T12:09:27Z</time>
      </trkpt>
      <trkpt lat="41.3606610" lon="-8.7575070">
        <ele>8.6</ele>
        <time>2021-05-16T12:09:28Z</time>
      </trkpt>
      <trkpt lat="41.3606610" lon="-8.7575070">
        <ele>8.6</ele>
        <time>2021-05-16T12:09:29Z</time>
      </trkpt>
      <trkpt lat="41.3606610" lon="-8.7575070">
        <ele>8.6</ele>
        <time>2021-05-16T12:09:30Z</time>
      </trkpt>
      <trkpt lat="41.3606610" lon="-8.7575070">
        <ele>8.6</ele>
        <time>2021-05-16T12:09:31Z</time>
      </trkpt>
      <trkpt lat="41.3606610" lon="-8.7575070">
        <ele>8.6</ele>
        <time>2021-05-16T12:09:32Z</time>
      </trkpt>
      <trkpt lat="41.3606610" lon="-8.7575070">
        <ele>8.6</ele>
        <time>2021-05-16T12:09:33Z</time>
      </trkpt>
      <trkpt lat="41.3606610" lon="-8.7575070">
        <ele>8.6</ele>
        <time>2021-05-16T12:09:34Z</time>
      </trkpt>
      <trkpt lat="41.3606610" lon="-8.7575070">
        <ele>8.6</ele>
        <time>2021-05-16T12:09:35Z</time>
      </trkpt>
      <trkpt lat="41.3606610" lon="-8.7575070">
        <ele>8.6</ele>
        <time>2021-05-16T12:09:36Z</time>
      </trkpt>
      <trkpt lat="41.3606610" lon="-8.7575070">
        <ele>8.6</ele>
        <time>2021-05-16T12:09:37Z</time>
      </trkpt>
      <trkpt lat="41.3606610" lon="-8.7575070">
        <ele>8.6</ele>
        <time>2021-05-16T12:09:38Z</time>
      </trkpt>
      <trkpt lat="41.3606610" lon="-8.7575070">
        <ele>8.6</ele>
        <time>2021-05-16T12:09:39Z</time>
      </trkpt>
      <trkpt lat="41.3606610" lon="-8.7575070">
        <ele>8.6</ele>
        <time>2021-05-16T12:09:40Z</time>
      </trkpt>
      <trkpt lat="41.3606610" lon="-8.7575070">
        <ele>8.6</ele>
        <time>2021-05-16T12:09:41Z</time>
      </trkpt>
      <trkpt lat="41.3606610" lon="-8.7575070">
        <ele>8.6</ele>
        <time>2021-05-16T12:09:42Z</time>
      </trkpt>
      <trkpt lat="41.3606610" lon="-8.7575070">
        <ele>8.6</ele>
        <time>2021-05-16T12:09:43Z</time>
      </trkpt>
      <trkpt lat="41.3606610" lon="-8.7575070">
        <ele>8.6</ele>
        <time>2021-05-16T12:09:44Z</time>
      </trkpt>
      <trkpt lat="41.3606610" lon="-8.7575070">
        <ele>8.6</ele>
        <time>2021-05-16T12:09:45Z</time>
      </trkpt>
      <trkpt lat="41.3606610" lon="-8.7575070">
        <ele>8.6</ele>
        <time>2021-05-16T12:09:46Z</time>
      </trkpt>
      <trkpt lat="41.3606610" lon="-8.7575070">
        <ele>8.6</ele>
        <time>2021-05-16T12:09:47Z</time>
      </trkpt>
      <trkpt lat="41.3606610" lon="-8.7575070">
        <ele>8.6</ele>
        <time>2021-05-16T12:09:48Z</time>
      </trkpt>
      <trkpt lat="41.3606610" lon="-8.7575070">
        <ele>8.6</ele>
        <time>2021-05-16T12:09:49Z</time>
      </trkpt>
      <trkpt lat="41.3606610" lon="-8.7575070">
        <ele>8.6</ele>
        <time>2021-05-16T12:09:50Z</time>
      </trkpt>
      <trkpt lat="41.3606610" lon="-8.7575070">
        <ele>8.6</ele>
        <time>2021-05-16T12:09:51Z</time>
      </trkpt>
      <trkpt lat="41.3606610" lon="-8.7575070">
        <ele>8.6</ele>
        <time>2021-05-16T12:09:52Z</time>
      </trkpt>
      <trkpt lat="41.3606610" lon="-8.7575070">
        <ele>8.6</ele>
        <time>2021-05-16T12:09:53Z</time>
      </trkpt>
      <trkpt lat="41.3606610" lon="-8.7575070">
        <ele>8.6</ele>
        <time>2021-05-16T12:09:54Z</time>
      </trkpt>
      <trkpt lat="41.3606610" lon="-8.7575070">
        <ele>8.6</ele>
        <time>2021-05-16T12:09:55Z</time>
      </trkpt>
      <trkpt lat="41.3606610" lon="-8.7575070">
        <ele>8.6</ele>
        <time>2021-05-16T12:09:56Z</time>
      </trkpt>
      <trkpt lat="41.3606610" lon="-8.7575070">
        <ele>8.6</ele>
        <time>2021-05-16T12:09:57Z</time>
      </trkpt>
      <trkpt lat="41.3606610" lon="-8.7575070">
        <ele>8.6</ele>
        <time>2021-05-16T12:09:58Z</time>
      </trkpt>
      <trkpt lat="41.3606610" lon="-8.7575070">
        <ele>8.6</ele>
        <time>2021-05-16T12:09:59Z</time>
      </trkpt>
      <trkpt lat="41.3606610" lon="-8.7575070">
        <ele>8.6</ele>
        <time>2021-05-16T12:10:00Z</time>
      </trkpt>
      <trkpt lat="41.3606610" lon="-8.7575070">
        <ele>8.6</ele>
        <time>2021-05-16T12:10:01Z</time>
      </trkpt>
      <trkpt lat="41.3606610" lon="-8.7575070">
        <ele>8.6</ele>
        <time>2021-05-16T12:10:02Z</time>
      </trkpt>
      <trkpt lat="41.3606610" lon="-8.7575070">
        <ele>8.6</ele>
        <time>2021-05-16T12:10:03Z</time>
      </trkpt>
      <trkpt lat="41.3606610" lon="-8.7575070">
        <ele>8.6</ele>
        <time>2021-05-16T12:10:04Z</time>
      </trkpt>
      <trkpt lat="41.3606610" lon="-8.7575070">
        <ele>8.6</ele>
        <time>2021-05-16T12:10:05Z</time>
      </trkpt>
      <trkpt lat="41.3606610" lon="-8.7575070">
        <ele>8.6</ele>
        <time>2021-05-16T12:10:06Z</time>
      </trkpt>
      <trkpt lat="41.3606610" lon="-8.7575070">
        <ele>8.6</ele>
        <time>2021-05-16T12:10:07Z</time>
      </trkpt>
      <trkpt lat="41.3606610" lon="-8.7575070">
        <ele>8.6</ele>
        <time>2021-05-16T12:10:08Z</time>
      </trkpt>
      <trkpt lat="41.3606610" lon="-8.7575070">
        <ele>8.6</ele>
        <time>2021-05-16T12:10:09Z</time>
      </trkpt>
      <trkpt lat="41.3606610" lon="-8.7575070">
        <ele>8.6</ele>
        <time>2021-05-16T12:10:10Z</time>
      </trkpt>
      <trkpt lat="41.3606460" lon="-8.7575300">
        <ele>8.6</ele>
        <time>2021-05-16T12:10:11Z</time>
      </trkpt>
      <trkpt lat="41.3606470" lon="-8.7575280">
        <ele>8.6</ele>
        <time>2021-05-16T12:10:12Z</time>
      </trkpt>
      <trkpt lat="41.3606480" lon="-8.7575280">
        <ele>8.6</ele>
        <time>2021-05-16T12:10:13Z</time>
      </trkpt>
      <trkpt lat="41.3606490" lon="-8.7575300">
        <ele>8.6</ele>
        <time>2021-05-16T12:10:14Z</time>
      </trkpt>
      <trkpt lat="41.3606500" lon="-8.7575300">
        <ele>8.6</ele>
        <time>2021-05-16T12:10:15Z</time>
      </trkpt>
      <trkpt lat="41.3606500" lon="-8.7575250">
        <ele>8.6</ele>
        <time>2021-05-16T12:10:16Z</time>
      </trkpt>
      <trkpt lat="41.3606530" lon="-8.7575210">
        <ele>8.6</ele>
        <time>2021-05-16T12:10:17Z</time>
      </trkpt>
      <trkpt lat="41.3606540" lon="-8.7575190">
        <ele>8.6</ele>
        <time>2021-05-16T12:10:18Z</time>
      </trkpt>
      <trkpt lat="41.3606530" lon="-8.7575200">
        <ele>8.6</ele>
        <time>2021-05-16T12:10:19Z</time>
      </trkpt>
      <trkpt lat="41.3606570" lon="-8.7575170">
        <ele>8.6</ele>
        <time>2021-05-16T12:10:20Z</time>
      </trkpt>
      <trkpt lat="41.3606540" lon="-8.7575190">
        <ele>8.6</ele>
        <time>2021-05-16T12:10:21Z</time>
      </trkpt>
      <trkpt lat="41.3606540" lon="-8.7575230">
        <ele>8.6</ele>
        <time>2021-05-16T12:10:22Z</time>
      </trkpt>
      <trkpt lat="41.3606560" lon="-8.7575200">
        <ele>8.6</ele>
        <time>2021-05-16T12:10:23Z</time>
      </trkpt>
      <trkpt lat="41.3606580" lon="-8.7575150">
        <ele>8.6</ele>
        <time>2021-05-16T12:10:24Z</time>
      </trkpt>
      <trkpt lat="41.3606600" lon="-8.7575170">
        <ele>8.6</ele>
        <time>2021-05-16T12:10:25Z</time>
      </trkpt>
      <trkpt lat="41.3606620" lon="-8.7575130">
        <ele>8.6</ele>
        <time>2021-05-16T12:10:26Z</time>
      </trkpt>
      <trkpt lat="41.3606640" lon="-8.7575130">
        <ele>8.6</ele>
        <time>2021-05-16T12:10:27Z</time>
      </trkpt>
      <trkpt lat="41.3606670" lon="-8.7575100">
        <ele>8.6</ele>
        <time>2021-05-16T12:10:28Z</time>
      </trkpt>
      <trkpt lat="41.3606690" lon="-8.7575030">
        <ele>8.6</ele>
        <time>2021-05-16T12:10:29Z</time>
      </trkpt>
      <trkpt lat="41.3606680" lon="-8.7574970">
        <ele>8.6</ele>
        <time>2021-05-16T12:10:30Z</time>
      </trkpt>
      <trkpt lat="41.3606660" lon="-8.7574960">
        <ele>8.6</ele>
        <time>2021-05-16T12:10:31Z</time>
      </trkpt>
      <trkpt lat="41.3606550" lon="-8.7574860">
        <ele>8.6</ele>
        <time>2021-05-16T12:10:32Z</time>
      </trkpt>
      <trkpt lat="41.3606540" lon="-8.7574890">
        <ele>8.6</ele>
        <time>2021-05-16T12:10:33Z</time>
      </trkpt>
      <trkpt lat="41.3606480" lon="-8.7574910">
        <ele>8.6</ele>
        <time>2021-05-16T12:10:34Z</time>
      </trkpt>
      <trkpt lat="41.3606510" lon="-8.7574890">
        <ele>8.6</ele>
        <time>2021-05-16T12:10:35Z</time>
      </trkpt>
      <trkpt lat="41.3606510" lon="-8.7574890">
        <ele>8.6</ele>
        <time>2021-05-16T12:10:36Z</time>
      </trkpt>
      <trkpt lat="41.3606510" lon="-8.7574890">
        <ele>8.6</ele>
        <time>2021-05-16T12:10:37Z</time>
      </trkpt>
      <trkpt lat="41.3606510" lon="-8.7574890">
        <ele>8.6</ele>
        <time>2021-05-16T12:10:38Z</time>
      </trkpt>
      <trkpt lat="41.3606510" lon="-8.7574890">
        <ele>8.6</ele>
        <time>2021-05-16T12:10:39Z</time>
      </trkpt>
      <trkpt lat="41.3606510" lon="-8.7574890">
        <ele>8.6</ele>
        <time>2021-05-16T12:10:40Z</time>
      </trkpt>
      <trkpt lat="41.3606510" lon="-8.7574890">
        <ele>8.6</ele>
        <time>2021-05-16T12:10:41Z</time>
      </trkpt>
      <trkpt lat="41.3606510" lon="-8.7574890">
        <ele>8.6</ele>
        <time>2021-05-16T12:10:42Z</time>
      </trkpt>
      <trkpt lat="41.3606510" lon="-8.7574890">
        <ele>8.6</ele>
        <time>2021-05-16T12:10:43Z</time>
      </trkpt>
      <trkpt lat="41.3606510" lon="-8.7574890">
        <ele>8.6</ele>
        <time>2021-05-16T12:10:44Z</time>
      </trkpt>
      <trkpt lat="41.3606510" lon="-8.7574890">
        <ele>8.6</ele>
        <time>2021-05-16T12:10:45Z</time>
      </trkpt>
      <trkpt lat="41.3606510" lon="-8.7574890">
        <ele>8.6</ele>
        <time>2021-05-16T12:10:46Z</time>
      </trkpt>
      <trkpt lat="41.3606510" lon="-8.7574890">
        <ele>8.6</ele>
        <time>2021-05-16T12:10:47Z</time>
      </trkpt>
      <trkpt lat="41.3606510" lon="-8.7574890">
        <ele>8.6</ele>
        <time>2021-05-16T12:10:48Z</time>
      </trkpt>
      <trkpt lat="41.3606510" lon="-8.7574890">
        <ele>8.6</ele>
        <time>2021-05-16T12:10:49Z</time>
      </trkpt>
      <trkpt lat="41.3606510" lon="-8.7574890">
        <ele>8.6</ele>
        <time>2021-05-16T12:10:50Z</time>
      </trkpt>
      <trkpt lat="41.3606510" lon="-8.7574890">
        <ele>8.6</ele>
        <time>2021-05-16T12:10:51Z</time>
      </trkpt>
      <trkpt lat="41.3606510" lon="-8.7574890">
        <ele>8.6</ele>
        <time>2021-05-16T12:10:52Z</time>
      </trkpt>
      <trkpt lat="41.3606510" lon="-8.7574890">
        <ele>8.6</ele>
        <time>2021-05-16T12:10:53Z</time>
      </trkpt>
      <trkpt lat="41.3606510" lon="-8.7574890">
        <ele>8.6</ele>
        <time>2021-05-16T12:10:54Z</time>
      </trkpt>
      <trkpt lat="41.3606440" lon="-8.7575150">
        <ele>8.6</ele>
        <time>2021-05-16T12:10:55Z</time>
      </trkpt>
      <trkpt lat="41.3606440" lon="-8.7575160">
        <ele>8.6</ele>
        <time>2021-05-16T12:10:56Z</time>
      </trkpt>
      <trkpt lat="41.3606440" lon="-8.7575160">
        <ele>8.6</ele>
        <time>2021-05-16T12:10:57Z</time>
      </trkpt>
      <trkpt lat="41.3606440" lon="-8.7575170">
        <ele>8.6</ele>
        <time>2021-05-16T12:10:58Z</time>
      </trkpt>
      <trkpt lat="41.3606440" lon="-8.7575170">
        <ele>8.6</ele>
        <time>2021-05-16T12:10:59Z</time>
      </trkpt>
      <trkpt lat="41.3606450" lon="-8.7575180">
        <ele>8.6</ele>
        <time>2021-05-16T12:11:00Z</time>
      </trkpt>
      <trkpt lat="41.3606450" lon="-8.7575180">
        <ele>8.6</ele>
        <time>2021-05-16T12:11:01Z</time>
      </trkpt>
      <trkpt lat="41.3606470" lon="-8.7575170">
        <ele>8.6</ele>
        <time>2021-05-16T12:11:02Z</time>
      </trkpt>
      <trkpt lat="41.3606480" lon="-8.7575170">
        <ele>8.6</ele>
        <time>2021-05-16T12:11:03Z</time>
      </trkpt>
      <trkpt lat="41.3606480" lon="-8.7575170">
        <ele>8.6</ele>
        <time>2021-05-16T12:11:04Z</time>
      </trkpt>
      <trkpt lat="41.3606480" lon="-8.7575170">
        <ele>8.6</ele>
        <time>2021-05-16T12:11:05Z</time>
      </trkpt>
      <trkpt lat="41.3606480" lon="-8.7575170">
        <ele>8.6</ele>
        <time>2021-05-16T12:11:06Z</time>
      </trkpt>
      <trkpt lat="41.3606480" lon="-8.7575170">
        <ele>8.6</ele>
        <time>2021-05-16T12:11:07Z</time>
      </trkpt>
      <trkpt lat="41.3606480" lon="-8.7575170">
        <ele>8.6</ele>
        <time>2021-05-16T12:11:08Z</time>
      </trkpt>
      <trkpt lat="41.3606480" lon="-8.7575170">
        <ele>8.6</ele>
        <time>2021-05-16T12:11:09Z</time>
      </trkpt>
      <trkpt lat="41.3606480" lon="-8.7575170">
        <ele>8.6</ele>
        <time>2021-05-16T12:11:10Z</time>
      </trkpt>
      <trkpt lat="41.3606480" lon="-8.7575170">
        <ele>8.6</ele>
        <time>2021-05-16T12:11:11Z</time>
      </trkpt>
      <trkpt lat="41.3606480" lon="-8.7575170">
        <ele>8.6</ele>
        <time>2021-05-16T12:11:12Z</time>
      </trkpt>
      <trkpt lat="41.3606480" lon="-8.7575170">
        <ele>8.6</ele>
        <time>2021-05-16T12:11:13Z</time>
      </trkpt>
      <trkpt lat="41.3606480" lon="-8.7575170">
        <ele>8.6</ele>
        <time>2021-05-16T12:11:14Z</time>
      </trkpt>
      <trkpt lat="41.3606480" lon="-8.7575170">
        <ele>8.6</ele>
        <time>2021-05-16T12:11:15Z</time>
      </trkpt>
      <trkpt lat="41.3606480" lon="-8.7575170">
        <ele>8.6</ele>
        <time>2021-05-16T12:11:16Z</time>
      </trkpt>
      <trkpt lat="41.3606480" lon="-8.7575170">
        <ele>8.6</ele>
        <time>2021-05-16T12:11:17Z</time>
      </trkpt>
      <trkpt lat="41.3606480" lon="-8.7575170">
        <ele>8.6</ele>
        <time>2021-05-16T12:11:18Z</time>
      </trkpt>
      <trkpt lat="41.3606480" lon="-8.7575170">
        <ele>8.6</ele>
        <time>2021-05-16T12:11:19Z</time>
      </trkpt>
      <trkpt lat="41.3606480" lon="-8.7575170">
        <ele>8.6</ele>
        <time>2021-05-16T12:11:20Z</time>
      </trkpt>
      <trkpt lat="41.3606480" lon="-8.7575170">
        <ele>8.6</ele>
        <time>2021-05-16T12:11:21Z</time>
      </trkpt>
      <trkpt lat="41.3606480" lon="-8.7575170">
        <ele>8.6</ele>
        <time>2021-05-16T12:11:22Z</time>
      </trkpt>
      <trkpt lat="41.3606480" lon="-8.7575170">
        <ele>8.6</ele>
        <time>2021-05-16T12:11:23Z</time>
      </trkpt>
      <trkpt lat="41.3606480" lon="-8.7575170">
        <ele>8.6</ele>
        <time>2021-05-16T12:11:24Z</time>
      </trkpt>
      <trkpt lat="41.3606480" lon="-8.7575170">
        <ele>8.6</ele>
        <time>2021-05-16T12:11:25Z</time>
      </trkpt>
      <trkpt lat="41.3606480" lon="-8.7575170">
        <ele>8.6</ele>
        <time>2021-05-16T12:11:26Z</time>
      </trkpt>
      <trkpt lat="41.3606480" lon="-8.7575170">
        <ele>8.6</ele>
        <time>2021-05-16T12:11:27Z</time>
      </trkpt>
      <trkpt lat="41.3606480" lon="-8.7575170">
        <ele>8.6</ele>
        <time>2021-05-16T12:11:28Z</time>
      </trkpt>
      <trkpt lat="41.3606480" lon="-8.7575170">
        <ele>8.6</ele>
        <time>2021-05-16T12:11:29Z</time>
      </trkpt>
      <trkpt lat="41.3606480" lon="-8.7575170">
        <ele>8.6</ele>
        <time>2021-05-16T12:11:30Z</time>
      </trkpt>
      <trkpt lat="41.3606480" lon="-8.7575170">
        <ele>8.6</ele>
        <time>2021-05-16T12:11:31Z</time>
      </trkpt>
      <trkpt lat="41.3606480" lon="-8.7575170">
        <ele>8.6</ele>
        <time>2021-05-16T12:11:32Z</time>
      </trkpt>
      <trkpt lat="41.3606480" lon="-8.7575170">
        <ele>8.6</ele>
        <time>2021-05-16T12:11:33Z</time>
      </trkpt>
      <trkpt lat="41.3606480" lon="-8.7575170">
        <ele>8.6</ele>
        <time>2021-05-16T12:11:34Z</time>
      </trkpt>
      <trkpt lat="41.3606480" lon="-8.7575170">
        <ele>8.6</ele>
        <time>2021-05-16T12:11:35Z</time>
      </trkpt>
      <trkpt lat="41.3606480" lon="-8.7575170">
        <ele>8.6</ele>
        <time>2021-05-16T12:11:36Z</time>
      </trkpt>
      <trkpt lat="41.3606480" lon="-8.7575170">
        <ele>8.6</ele>
        <time>2021-05-16T12:11:37Z</time>
      </trkpt>
      <trkpt lat="41.3606480" lon="-8.7575170">
        <ele>8.6</ele>
        <time>2021-05-16T12:11:38Z</time>
      </trkpt>
      <trkpt lat="41.3606480" lon="-8.7575170">
        <ele>8.6</ele>
        <time>2021-05-16T12:11:39Z</time>
      </trkpt>
      <trkpt lat="41.3606480" lon="-8.7575170">
        <ele>8.6</ele>
        <time>2021-05-16T12:11:40Z</time>
      </trkpt>
      <trkpt lat="41.3606480" lon="-8.7575170">
        <ele>8.6</ele>
        <time>2021-05-16T12:11:41Z</time>
      </trkpt>
      <trkpt lat="41.3606480" lon="-8.7575170">
        <ele>8.6</ele>
        <time>2021-05-16T12:11:42Z</time>
      </trkpt>
      <trkpt lat="41.3606480" lon="-8.7575170">
        <ele>8.6</ele>
        <time>2021-05-16T12:11:43Z</time>
      </trkpt>
      <trkpt lat="41.3606480" lon="-8.7575170">
        <ele>8.6</ele>
        <time>2021-05-16T12:11:44Z</time>
      </trkpt>
      <trkpt lat="41.3606480" lon="-8.7575170">
        <ele>8.6</ele>
        <time>2021-05-16T12:11:45Z</time>
      </trkpt>
      <trkpt lat="41.3606480" lon="-8.7575170">
        <ele>8.6</ele>
        <time>2021-05-16T12:11:46Z</time>
      </trkpt>
      <trkpt lat="41.3606480" lon="-8.7575170">
        <ele>8.6</ele>
        <time>2021-05-16T12:11:47Z</time>
      </trkpt>
      <trkpt lat="41.3606480" lon="-8.7575170">
        <ele>8.6</ele>
        <time>2021-05-16T12:11:48Z</time>
      </trkpt>
      <trkpt lat="41.3606480" lon="-8.7575170">
        <ele>8.6</ele>
        <time>2021-05-16T12:11:49Z</time>
      </trkpt>
      <trkpt lat="41.3606480" lon="-8.7575170">
        <ele>8.6</ele>
        <time>2021-05-16T12:11:50Z</time>
      </trkpt>
      <trkpt lat="41.3606480" lon="-8.7575170">
        <ele>8.6</ele>
        <time>2021-05-16T12:11:51Z</time>
      </trkpt>
      <trkpt lat="41.3606480" lon="-8.7575170">
        <ele>8.6</ele>
        <time>2021-05-16T12:11:52Z</time>
      </trkpt>
      <trkpt lat="41.3606480" lon="-8.7575170">
        <ele>8.6</ele>
        <time>2021-05-16T12:11:53Z</time>
      </trkpt>
      <trkpt lat="41.3606480" lon="-8.7575170">
        <ele>8.6</ele>
        <time>2021-05-16T12:11:54Z</time>
      </trkpt>
      <trkpt lat="41.3606480" lon="-8.7575170">
        <ele>8.6</ele>
        <time>2021-05-16T12:11:55Z</time>
      </trkpt>
      <trkpt lat="41.3606480" lon="-8.7575170">
        <ele>8.6</ele>
        <time>2021-05-16T12:11:56Z</time>
      </trkpt>
      <trkpt lat="41.3606480" lon="-8.7575170">
        <ele>8.6</ele>
        <time>2021-05-16T12:11:57Z</time>
      </trkpt>
      <trkpt lat="41.3606480" lon="-8.7575170">
        <ele>8.6</ele>
        <time>2021-05-16T12:11:58Z</time>
      </trkpt>
      <trkpt lat="41.3606480" lon="-8.7575170">
        <ele>8.6</ele>
        <time>2021-05-16T12:11:59Z</time>
      </trkpt>
      <trkpt lat="41.3606480" lon="-8.7575170">
        <ele>8.6</ele>
        <time>2021-05-16T12:12:00Z</time>
      </trkpt>
      <trkpt lat="41.3606480" lon="-8.7575170">
        <ele>8.6</ele>
        <time>2021-05-16T12:12:01Z</time>
      </trkpt>
      <trkpt lat="41.3606480" lon="-8.7575170">
        <ele>8.6</ele>
        <time>2021-05-16T12:12:02Z</time>
      </trkpt>
      <trkpt lat="41.3606480" lon="-8.7575170">
        <ele>8.6</ele>
        <time>2021-05-16T12:12:03Z</time>
      </trkpt>
      <trkpt lat="41.3606480" lon="-8.7575170">
        <ele>8.6</ele>
        <time>2021-05-16T12:12:04Z</time>
      </trkpt>
      <trkpt lat="41.3606480" lon="-8.7575170">
        <ele>8.6</ele>
        <time>2021-05-16T12:12:05Z</time>
      </trkpt>
      <trkpt lat="41.3606480" lon="-8.7575170">
        <ele>8.6</ele>
        <time>2021-05-16T12:12:06Z</time>
      </trkpt>
      <trkpt lat="41.3606480" lon="-8.7575170">
        <ele>8.6</ele>
        <time>2021-05-16T12:12:07Z</time>
      </trkpt>
      <trkpt lat="41.3606480" lon="-8.7575170">
        <ele>8.6</ele>
        <time>2021-05-16T12:12:08Z</time>
      </trkpt>
      <trkpt lat="41.3606480" lon="-8.7575170">
        <ele>8.6</ele>
        <time>2021-05-16T12:12:09Z</time>
      </trkpt>
      <trkpt lat="41.3606480" lon="-8.7575170">
        <ele>8.6</ele>
        <time>2021-05-16T12:12:10Z</time>
      </trkpt>
      <trkpt lat="41.3606480" lon="-8.7575170">
        <ele>8.6</ele>
        <time>2021-05-16T12:12:11Z</time>
      </trkpt>
      <trkpt lat="41.3606480" lon="-8.7575170">
        <ele>8.6</ele>
        <time>2021-05-16T12:12:12Z</time>
      </trkpt>
      <trkpt lat="41.3606480" lon="-8.7575170">
        <ele>8.6</ele>
        <time>2021-05-16T12:12:13Z</time>
      </trkpt>
      <trkpt lat="41.3606480" lon="-8.7575170">
        <ele>8.6</ele>
        <time>2021-05-16T12:12:14Z</time>
      </trkpt>
      <trkpt lat="41.3606480" lon="-8.7575170">
        <ele>8.6</ele>
        <time>2021-05-16T12:12:15Z</time>
      </trkpt>
      <trkpt lat="41.3606480" lon="-8.7575170">
        <ele>8.6</ele>
        <time>2021-05-16T12:12:16Z</time>
      </trkpt>
      <trkpt lat="41.3606480" lon="-8.7575170">
        <ele>8.6</ele>
        <time>2021-05-16T12:12:17Z</time>
      </trkpt>
      <trkpt lat="41.3606480" lon="-8.7575170">
        <ele>8.6</ele>
        <time>2021-05-16T12:12:18Z</time>
      </trkpt>
      <trkpt lat="41.3606540" lon="-8.7574900">
        <ele>8.6</ele>
        <time>2021-05-16T12:12:19Z</time>
      </trkpt>
      <trkpt lat="41.3606540" lon="-8.7574890">
        <ele>8.6</ele>
        <time>2021-05-16T12:12:20Z</time>
      </trkpt>
      <trkpt lat="41.3606540" lon="-8.7574890">
        <ele>8.6</ele>
        <time>2021-05-16T12:12:21Z</time>
      </trkpt>
      <trkpt lat="41.3606540" lon="-8.7574890">
        <ele>8.6</ele>
        <time>2021-05-16T12:12:22Z</time>
      </trkpt>
      <trkpt lat="41.3606540" lon="-8.7574890">
        <ele>8.6</ele>
        <time>2021-05-16T12:12:23Z</time>
      </trkpt>
      <trkpt lat="41.3606540" lon="-8.7574890">
        <ele>8.6</ele>
        <time>2021-05-16T12:12:24Z</time>
      </trkpt>
      <trkpt lat="41.3606540" lon="-8.7574890">
        <ele>8.6</ele>
        <time>2021-05-16T12:12:25Z</time>
      </trkpt>
      <trkpt lat="41.3606540" lon="-8.7574890">
        <ele>8.6</ele>
        <time>2021-05-16T12:12:26Z</time>
      </trkpt>
      <trkpt lat="41.3606540" lon="-8.7574890">
        <ele>8.6</ele>
        <time>2021-05-16T12:12:27Z</time>
      </trkpt>
      <trkpt lat="41.3606540" lon="-8.7574890">
        <ele>8.6</ele>
        <time>2021-05-16T12:12:28Z</time>
      </trkpt>
      <trkpt lat="41.3606540" lon="-8.7574890">
        <ele>8.6</ele>
        <time>2021-05-16T12:12:29Z</time>
      </trkpt>
      <trkpt lat="41.3606540" lon="-8.7574890">
        <ele>8.6</ele>
        <time>2021-05-16T12:12:30Z</time>
      </trkpt>
      <trkpt lat="41.3606540" lon="-8.7574890">
        <ele>8.6</ele>
        <time>2021-05-16T12:12:31Z</time>
      </trkpt>
      <trkpt lat="41.3606540" lon="-8.7574890">
        <ele>8.6</ele>
        <time>2021-05-16T12:12:32Z</time>
      </trkpt>
      <trkpt lat="41.3606540" lon="-8.7574890">
        <ele>8.6</ele>
        <time>2021-05-16T12:12:33Z</time>
      </trkpt>
      <trkpt lat="41.3606540" lon="-8.7574890">
        <ele>8.6</ele>
        <time>2021-05-16T12:12:34Z</time>
      </trkpt>
      <trkpt lat="41.3606540" lon="-8.7574890">
        <ele>8.6</ele>
        <time>2021-05-16T12:12:35Z</time>
      </trkpt>
      <trkpt lat="41.3606540" lon="-8.7574890">
        <ele>8.6</ele>
        <time>2021-05-16T12:12:36Z</time>
      </trkpt>
      <trkpt lat="41.3606540" lon="-8.7574890">
        <ele>8.6</ele>
        <time>2021-05-16T12:12:37Z</time>
      </trkpt>
      <trkpt lat="41.3606540" lon="-8.7574890">
        <ele>8.6</ele>
        <time>2021-05-16T12:12:38Z</time>
      </trkpt>
      <trkpt lat="41.3606540" lon="-8.7574890">
        <ele>8.6</ele>
        <time>2021-05-16T12:12:39Z</time>
      </trkpt>
      <trkpt lat="41.3606540" lon="-8.7574890">
        <ele>8.6</ele>
        <time>2021-05-16T12:12:40Z</time>
      </trkpt>
      <trkpt lat="41.3606540" lon="-8.7574890">
        <ele>8.6</ele>
        <time>2021-05-16T12:12:41Z</time>
      </trkpt>
      <trkpt lat="41.3606540" lon="-8.7574890">
        <ele>8.6</ele>
        <time>2021-05-16T12:12:42Z</time>
      </trkpt>
      <trkpt lat="41.3606540" lon="-8.7574890">
        <ele>8.6</ele>
        <time>2021-05-16T12:12:43Z</time>
      </trkpt>
      <trkpt lat="41.3606540" lon="-8.7574890">
        <ele>8.6</ele>
        <time>2021-05-16T12:12:44Z</time>
      </trkpt>
      <trkpt lat="41.3606540" lon="-8.7574890">
        <ele>8.6</ele>
        <time>2021-05-16T12:12:45Z</time>
      </trkpt>
      <trkpt lat="41.3606540" lon="-8.7574890">
        <ele>8.6</ele>
        <time>2021-05-16T12:12:46Z</time>
      </trkpt>
      <trkpt lat="41.3606540" lon="-8.7574890">
        <ele>8.6</ele>
        <time>2021-05-16T12:12:47Z</time>
      </trkpt>
      <trkpt lat="41.3606540" lon="-8.7574890">
        <ele>8.6</ele>
        <time>2021-05-16T12:12:48Z</time>
      </trkpt>
      <trkpt lat="41.3606540" lon="-8.7574890">
        <ele>8.6</ele>
        <time>2021-05-16T12:12:49Z</time>
      </trkpt>
      <trkpt lat="41.3606540" lon="-8.7574890">
        <ele>8.6</ele>
        <time>2021-05-16T12:12:50Z</time>
      </trkpt>
      <trkpt lat="41.3606540" lon="-8.7574890">
        <ele>8.6</ele>
        <time>2021-05-16T12:12:51Z</time>
      </trkpt>
      <trkpt lat="41.3606540" lon="-8.7574890">
        <ele>8.6</ele>
        <time>2021-05-16T12:12:52Z</time>
      </trkpt>
      <trkpt lat="41.3606540" lon="-8.7574890">
        <ele>8.6</ele>
        <time>2021-05-16T12:12:53Z</time>
      </trkpt>
      <trkpt lat="41.3606540" lon="-8.7574890">
        <ele>8.6</ele>
        <time>2021-05-16T12:12:54Z</time>
      </trkpt>
      <trkpt lat="41.3606540" lon="-8.7574890">
        <ele>8.6</ele>
        <time>2021-05-16T12:12:55Z</time>
      </trkpt>
      <trkpt lat="41.3606540" lon="-8.7574890">
        <ele>8.6</ele>
        <time>2021-05-16T12:12:56Z</time>
      </trkpt>
      <trkpt lat="41.3606540" lon="-8.7574890">
        <ele>8.6</ele>
        <time>2021-05-16T12:12:57Z</time>
      </trkpt>
      <trkpt lat="41.3606540" lon="-8.7574890">
        <ele>8.6</ele>
        <time>2021-05-16T12:12:58Z</time>
      </trkpt>
      <trkpt lat="41.3606540" lon="-8.7574890">
        <ele>8.6</ele>
        <time>2021-05-16T12:12:59Z</time>
      </trkpt>
      <trkpt lat="41.3606540" lon="-8.7574890">
        <ele>8.6</ele>
        <time>2021-05-16T12:13:00Z</time>
      </trkpt>
      <trkpt lat="41.3606540" lon="-8.7574890">
        <ele>8.6</ele>
        <time>2021-05-16T12:13:01Z</time>
      </trkpt>
      <trkpt lat="41.3606540" lon="-8.7574890">
        <ele>8.6</ele>
        <time>2021-05-16T12:13:02Z</time>
      </trkpt>
      <trkpt lat="41.3606540" lon="-8.7574890">
        <ele>8.6</ele>
        <time>2021-05-16T12:13:03Z</time>
      </trkpt>
      <trkpt lat="41.3606540" lon="-8.7574890">
        <ele>8.6</ele>
        <time>2021-05-16T12:13:04Z</time>
      </trkpt>
      <trkpt lat="41.3606540" lon="-8.7574890">
        <ele>8.6</ele>
        <time>2021-05-16T12:13:05Z</time>
      </trkpt>
      <trkpt lat="41.3606540" lon="-8.7574890">
        <ele>8.6</ele>
        <time>2021-05-16T12:13:06Z</time>
      </trkpt>
      <trkpt lat="41.3606540" lon="-8.7574890">
        <ele>8.6</ele>
        <time>2021-05-16T12:13:07Z</time>
      </trkpt>
      <trkpt lat="41.3606540" lon="-8.7574890">
        <ele>8.6</ele>
        <time>2021-05-16T12:13:08Z</time>
      </trkpt>
      <trkpt lat="41.3606540" lon="-8.7574890">
        <ele>8.6</ele>
        <time>2021-05-16T12:13:09Z</time>
      </trkpt>
      <trkpt lat="41.3606540" lon="-8.7574890">
        <ele>8.6</ele>
        <time>2021-05-16T12:13:10Z</time>
      </trkpt>
      <trkpt lat="41.3606540" lon="-8.7574890">
        <ele>8.6</ele>
        <time>2021-05-16T12:13:11Z</time>
      </trkpt>
      <trkpt lat="41.3606540" lon="-8.7574890">
        <ele>8.6</ele>
        <time>2021-05-16T12:13:12Z</time>
      </trkpt>
      <trkpt lat="41.3606540" lon="-8.7574890">
        <ele>8.6</ele>
        <time>2021-05-16T12:13:13Z</time>
      </trkpt>
      <trkpt lat="41.3606540" lon="-8.7574890">
        <ele>8.6</ele>
        <time>2021-05-16T12:13:14Z</time>
      </trkpt>
      <trkpt lat="41.3606540" lon="-8.7574890">
        <ele>8.6</ele>
        <time>2021-05-16T12:13:15Z</time>
      </trkpt>
      <trkpt lat="41.3606540" lon="-8.7574890">
        <ele>8.6</ele>
        <time>2021-05-16T12:13:16Z</time>
      </trkpt>
      <trkpt lat="41.3606540" lon="-8.7574890">
        <ele>8.6</ele>
        <time>2021-05-16T12:13:17Z</time>
      </trkpt>
      <trkpt lat="41.3606540" lon="-8.7574890">
        <ele>8.6</ele>
        <time>2021-05-16T12:13:18Z</time>
      </trkpt>
      <trkpt lat="41.3606540" lon="-8.7574890">
        <ele>8.6</ele>
        <time>2021-05-16T12:13:19Z</time>
      </trkpt>
      <trkpt lat="41.3606620" lon="-8.7575190">
        <ele>8.6</ele>
        <time>2021-05-16T12:13:20Z</time>
      </trkpt>
      <trkpt lat="41.3606620" lon="-8.7575190">
        <ele>8.6</ele>
        <time>2021-05-16T12:13:21Z</time>
      </trkpt>
      <trkpt lat="41.3606620" lon="-8.7575190">
        <ele>8.6</ele>
        <time>2021-05-16T12:13:22Z</time>
      </trkpt>
      <trkpt lat="41.3606620" lon="-8.7575200">
        <ele>8.6</ele>
        <time>2021-05-16T12:13:23Z</time>
      </trkpt>
      <trkpt lat="41.3606620" lon="-8.7575200">
        <ele>8.6</ele>
        <time>2021-05-16T12:13:24Z</time>
      </trkpt>
      <trkpt lat="41.3606620" lon="-8.7575200">
        <ele>8.6</ele>
        <time>2021-05-16T12:13:25Z</time>
      </trkpt>
      <trkpt lat="41.3606620" lon="-8.7575200">
        <ele>8.6</ele>
        <time>2021-05-16T12:13:26Z</time>
      </trkpt>
      <trkpt lat="41.3606620" lon="-8.7575200">
        <ele>8.6</ele>
        <time>2021-05-16T12:13:27Z</time>
      </trkpt>
      <trkpt lat="41.3606620" lon="-8.7575200">
        <ele>8.6</ele>
        <time>2021-05-16T12:13:28Z</time>
      </trkpt>
      <trkpt lat="41.3606620" lon="-8.7575200">
        <ele>8.6</ele>
        <time>2021-05-16T12:13:29Z</time>
      </trkpt>
      <trkpt lat="41.3606620" lon="-8.7575200">
        <ele>8.6</ele>
        <time>2021-05-16T12:13:30Z</time>
      </trkpt>
      <trkpt lat="41.3606620" lon="-8.7575200">
        <ele>8.6</ele>
        <time>2021-05-16T12:13:31Z</time>
      </trkpt>
      <trkpt lat="41.3606620" lon="-8.7575200">
        <ele>8.6</ele>
        <time>2021-05-16T12:13:32Z</time>
      </trkpt>
      <trkpt lat="41.3606620" lon="-8.7575200">
        <ele>8.6</ele>
        <time>2021-05-16T12:13:33Z</time>
      </trkpt>
      <trkpt lat="41.3606620" lon="-8.7575200">
        <ele>8.6</ele>
        <time>2021-05-16T12:13:34Z</time>
      </trkpt>
      <trkpt lat="41.3606620" lon="-8.7575200">
        <ele>8.6</ele>
        <time>2021-05-16T12:13:35Z</time>
      </trkpt>
      <trkpt lat="41.3606620" lon="-8.7575200">
        <ele>8.6</ele>
        <time>2021-05-16T12:13:36Z</time>
      </trkpt>
      <trkpt lat="41.3606600" lon="-8.7575240">
        <ele>8.6</ele>
        <time>2021-05-16T12:13:37Z</time>
      </trkpt>
      <trkpt lat="41.3606600" lon="-8.7575240">
        <ele>8.6</ele>
        <time>2021-05-16T12:13:38Z</time>
      </trkpt>
      <trkpt lat="41.3606600" lon="-8.7575240">
        <ele>8.6</ele>
        <time>2021-05-16T12:13:39Z</time>
      </trkpt>
      <trkpt lat="41.3606600" lon="-8.7575240">
        <ele>8.6</ele>
        <time>2021-05-16T12:13:40Z</time>
      </trkpt>
      <trkpt lat="41.3606600" lon="-8.7575240">
        <ele>8.6</ele>
        <time>2021-05-16T12:13:41Z</time>
      </trkpt>
      <trkpt lat="41.3606600" lon="-8.7575240">
        <ele>8.6</ele>
        <time>2021-05-16T12:13:42Z</time>
      </trkpt>
      <trkpt lat="41.3606600" lon="-8.7575240">
        <ele>8.6</ele>
        <time>2021-05-16T12:13:43Z</time>
      </trkpt>
      <trkpt lat="41.3606600" lon="-8.7575240">
        <ele>8.6</ele>
        <time>2021-05-16T12:13:44Z</time>
      </trkpt>
      <trkpt lat="41.3606600" lon="-8.7575240">
        <ele>8.6</ele>
        <time>2021-05-16T12:13:45Z</time>
      </trkpt>
      <trkpt lat="41.3606600" lon="-8.7575240">
        <ele>8.6</ele>
        <time>2021-05-16T12:13:46Z</time>
      </trkpt>
      <trkpt lat="41.3606600" lon="-8.7575240">
        <ele>8.6</ele>
        <time>2021-05-16T12:13:47Z</time>
      </trkpt>
      <trkpt lat="41.3606600" lon="-8.7575240">
        <ele>8.6</ele>
        <time>2021-05-16T12:13:48Z</time>
      </trkpt>
      <trkpt lat="41.3606600" lon="-8.7575240">
        <ele>8.6</ele>
        <time>2021-05-16T12:13:49Z</time>
      </trkpt>
      <trkpt lat="41.3606600" lon="-8.7575240">
        <ele>8.6</ele>
        <time>2021-05-16T12:13:50Z</time>
      </trkpt>
      <trkpt lat="41.3606600" lon="-8.7575240">
        <ele>8.6</ele>
        <time>2021-05-16T12:13:51Z</time>
      </trkpt>
      <trkpt lat="41.3606600" lon="-8.7575240">
        <ele>8.6</ele>
        <time>2021-05-16T12:13:52Z</time>
      </trkpt>
      <trkpt lat="41.3606600" lon="-8.7575240">
        <ele>8.6</ele>
        <time>2021-05-16T12:13:53Z</time>
      </trkpt>
      <trkpt lat="41.3606600" lon="-8.7575240">
        <ele>8.6</ele>
        <time>2021-05-16T12:13:54Z</time>
      </trkpt>
      <trkpt lat="41.3606600" lon="-8.7575240">
        <ele>8.6</ele>
        <time>2021-05-16T12:13:55Z</time>
      </trkpt>
      <trkpt lat="41.3606600" lon="-8.7575240">
        <ele>8.6</ele>
        <time>2021-05-16T12:13:56Z</time>
      </trkpt>
      <trkpt lat="41.3606600" lon="-8.7575240">
        <ele>8.6</ele>
        <time>2021-05-16T12:13:57Z</time>
      </trkpt>
      <trkpt lat="41.3606600" lon="-8.7575240">
        <ele>8.6</ele>
        <time>2021-05-16T12:13:58Z</time>
      </trkpt>
      <trkpt lat="41.3606600" lon="-8.7575240">
        <ele>8.6</ele>
        <time>2021-05-16T12:13:59Z</time>
      </trkpt>
      <trkpt lat="41.3606600" lon="-8.7575240">
        <ele>8.6</ele>
        <time>2021-05-16T12:14:00Z</time>
      </trkpt>
      <trkpt lat="41.3606600" lon="-8.7575240">
        <ele>8.6</ele>
        <time>2021-05-16T12:14:01Z</time>
      </trkpt>
      <trkpt lat="41.3606600" lon="-8.7575240">
        <ele>8.6</ele>
        <time>2021-05-16T12:14:02Z</time>
      </trkpt>
      <trkpt lat="41.3606600" lon="-8.7575240">
        <ele>8.6</ele>
        <time>2021-05-16T12:14:03Z</time>
      </trkpt>
      <trkpt lat="41.3606600" lon="-8.7575240">
        <ele>8.6</ele>
        <time>2021-05-16T12:14:04Z</time>
      </trkpt>
      <trkpt lat="41.3606600" lon="-8.7575240">
        <ele>8.6</ele>
        <time>2021-05-16T12:14:05Z</time>
      </trkpt>
      <trkpt lat="41.3606600" lon="-8.7575240">
        <ele>8.6</ele>
        <time>2021-05-16T12:14:06Z</time>
      </trkpt>
      <trkpt lat="41.3606600" lon="-8.7575240">
        <ele>8.6</ele>
        <time>2021-05-16T12:14:07Z</time>
      </trkpt>
      <trkpt lat="41.3606600" lon="-8.7575240">
        <ele>8.6</ele>
        <time>2021-05-16T12:14:08Z</time>
      </trkpt>
      <trkpt lat="41.3606600" lon="-8.7575240">
        <ele>8.6</ele>
        <time>2021-05-16T12:14:09Z</time>
      </trkpt>
      <trkpt lat="41.3606600" lon="-8.7575240">
        <ele>8.6</ele>
        <time>2021-05-16T12:14:10Z</time>
      </trkpt>
      <trkpt lat="41.3606600" lon="-8.7575240">
        <ele>8.6</ele>
        <time>2021-05-16T12:14:11Z</time>
      </trkpt>
      <trkpt lat="41.3606600" lon="-8.7575240">
        <ele>8.6</ele>
        <time>2021-05-16T12:14:12Z</time>
      </trkpt>
      <trkpt lat="41.3606600" lon="-8.7575240">
        <ele>8.6</ele>
        <time>2021-05-16T12:14:13Z</time>
      </trkpt>
      <trkpt lat="41.3606600" lon="-8.7575240">
        <ele>8.6</ele>
        <time>2021-05-16T12:14:14Z</time>
      </trkpt>
      <trkpt lat="41.3606600" lon="-8.7575240">
        <ele>8.6</ele>
        <time>2021-05-16T12:14:15Z</time>
      </trkpt>
      <trkpt lat="41.3606600" lon="-8.7575240">
        <ele>8.6</ele>
        <time>2021-05-16T12:14:16Z</time>
      </trkpt>
      <trkpt lat="41.3606600" lon="-8.7575240">
        <ele>8.6</ele>
        <time>2021-05-16T12:14:17Z</time>
      </trkpt>
      <trkpt lat="41.3606600" lon="-8.7575240">
        <ele>8.6</ele>
        <time>2021-05-16T12:14:18Z</time>
      </trkpt>
      <trkpt lat="41.3606600" lon="-8.7575240">
        <ele>8.6</ele>
        <time>2021-05-16T12:14:19Z</time>
      </trkpt>
      <trkpt lat="41.3606600" lon="-8.7575240">
        <ele>8.6</ele>
        <time>2021-05-16T12:14:20Z</time>
      </trkpt>
      <trkpt lat="41.3606600" lon="-8.7575240">
        <ele>8.6</ele>
        <time>2021-05-16T12:14:21Z</time>
      </trkpt>
      <trkpt lat="41.3606600" lon="-8.7575240">
        <ele>8.6</ele>
        <time>2021-05-16T12:14:22Z</time>
      </trkpt>
      <trkpt lat="41.3606600" lon="-8.7575240">
        <ele>8.6</ele>
        <time>2021-05-16T12:14:23Z</time>
      </trkpt>
      <trkpt lat="41.3606600" lon="-8.7575240">
        <ele>8.6</ele>
        <time>2021-05-16T12:14:24Z</time>
      </trkpt>
      <trkpt lat="41.3606600" lon="-8.7575240">
        <ele>8.6</ele>
        <time>2021-05-16T12:14:25Z</time>
      </trkpt>
      <trkpt lat="41.3606600" lon="-8.7575240">
        <ele>8.6</ele>
        <time>2021-05-16T12:14:26Z</time>
      </trkpt>
      <trkpt lat="41.3606600" lon="-8.7575240">
        <ele>8.6</ele>
        <time>2021-05-16T12:14:27Z</time>
      </trkpt>
      <trkpt lat="41.3606600" lon="-8.7575240">
        <ele>8.6</ele>
        <time>2021-05-16T12:14:28Z</time>
      </trkpt>
      <trkpt lat="41.3606600" lon="-8.7575240">
        <ele>8.6</ele>
        <time>2021-05-16T12:14:29Z</time>
      </trkpt>
      <trkpt lat="41.3606600" lon="-8.7575240">
        <ele>8.6</ele>
        <time>2021-05-16T12:14:30Z</time>
      </trkpt>
      <trkpt lat="41.3606600" lon="-8.7575240">
        <ele>8.6</ele>
        <time>2021-05-16T12:14:31Z</time>
      </trkpt>
      <trkpt lat="41.3606600" lon="-8.7575240">
        <ele>8.6</ele>
        <time>2021-05-16T12:14:32Z</time>
      </trkpt>
      <trkpt lat="41.3606600" lon="-8.7575240">
        <ele>8.6</ele>
        <time>2021-05-16T12:14:33Z</time>
      </trkpt>
      <trkpt lat="41.3606600" lon="-8.7575240">
        <ele>8.6</ele>
        <time>2021-05-16T12:14:34Z</time>
      </trkpt>
      <trkpt lat="41.3606600" lon="-8.7575240">
        <ele>8.6</ele>
        <time>2021-05-16T12:14:35Z</time>
      </trkpt>
      <trkpt lat="41.3606600" lon="-8.7575240">
        <ele>8.6</ele>
        <time>2021-05-16T12:14:36Z</time>
      </trkpt>
      <trkpt lat="41.3606600" lon="-8.7575240">
        <ele>8.6</ele>
        <time>2021-05-16T12:14:37Z</time>
      </trkpt>
      <trkpt lat="41.3606600" lon="-8.7575240">
        <ele>8.6</ele>
        <time>2021-05-16T12:14:38Z</time>
      </trkpt>
      <trkpt lat="41.3606600" lon="-8.7575240">
        <ele>8.6</ele>
        <time>2021-05-16T12:14:39Z</time>
      </trkpt>
      <trkpt lat="41.3606600" lon="-8.7575240">
        <ele>8.6</ele>
        <time>2021-05-16T12:14:40Z</time>
      </trkpt>
      <trkpt lat="41.3606600" lon="-8.7575240">
        <ele>8.6</ele>
        <time>2021-05-16T12:14:41Z</time>
      </trkpt>
      <trkpt lat="41.3606600" lon="-8.7575240">
        <ele>8.6</ele>
        <time>2021-05-16T12:14:42Z</time>
      </trkpt>
      <trkpt lat="41.3606600" lon="-8.7575240">
        <ele>8.6</ele>
        <time>2021-05-16T12:14:43Z</time>
      </trkpt>
      <trkpt lat="41.3606600" lon="-8.7575240">
        <ele>8.6</ele>
        <time>2021-05-16T12:14:44Z</time>
      </trkpt>
      <trkpt lat="41.3606600" lon="-8.7575240">
        <ele>8.6</ele>
        <time>2021-05-16T12:14:45Z</time>
      </trkpt>
      <trkpt lat="41.3606600" lon="-8.7575240">
        <ele>8.6</ele>
        <time>2021-05-16T12:14:46Z</time>
      </trkpt>
      <trkpt lat="41.3606600" lon="-8.7575240">
        <ele>8.6</ele>
        <time>2021-05-16T12:14:47Z</time>
      </trkpt>
      <trkpt lat="41.3606600" lon="-8.7575240">
        <ele>8.6</ele>
        <time>2021-05-16T12:14:48Z</time>
      </trkpt>
      <trkpt lat="41.3606600" lon="-8.7575240">
        <ele>8.6</ele>
        <time>2021-05-16T12:14:49Z</time>
      </trkpt>
      <trkpt lat="41.3606600" lon="-8.7575240">
        <ele>8.6</ele>
        <time>2021-05-16T12:14:50Z</time>
      </trkpt>
      <trkpt lat="41.3606600" lon="-8.7575240">
        <ele>8.6</ele>
        <time>2021-05-16T12:14:51Z</time>
      </trkpt>
      <trkpt lat="41.3606600" lon="-8.7575240">
        <ele>8.6</ele>
        <time>2021-05-16T12:14:52Z</time>
      </trkpt>
      <trkpt lat="41.3606600" lon="-8.7575240">
        <ele>8.6</ele>
        <time>2021-05-16T12:14:53Z</time>
      </trkpt>
      <trkpt lat="41.3606600" lon="-8.7575240">
        <ele>8.6</ele>
        <time>2021-05-16T12:14:54Z</time>
      </trkpt>
      <trkpt lat="41.3606600" lon="-8.7575240">
        <ele>8.6</ele>
        <time>2021-05-16T12:14:55Z</time>
      </trkpt>
      <trkpt lat="41.3606600" lon="-8.7575240">
        <ele>8.6</ele>
        <time>2021-05-16T12:14:56Z</time>
      </trkpt>
      <trkpt lat="41.3606600" lon="-8.7575240">
        <ele>8.6</ele>
        <time>2021-05-16T12:14:57Z</time>
      </trkpt>
      <trkpt lat="41.3606600" lon="-8.7575240">
        <ele>8.6</ele>
        <time>2021-05-16T12:14:58Z</time>
      </trkpt>
      <trkpt lat="41.3606600" lon="-8.7575240">
        <ele>8.6</ele>
        <time>2021-05-16T12:14:59Z</time>
      </trkpt>
      <trkpt lat="41.3606600" lon="-8.7575240">
        <ele>8.6</ele>
        <time>2021-05-16T12:15:00Z</time>
      </trkpt>
      <trkpt lat="41.3606600" lon="-8.7575240">
        <ele>8.6</ele>
        <time>2021-05-16T12:15:01Z</time>
      </trkpt>
      <trkpt lat="41.3606600" lon="-8.7575240">
        <ele>8.6</ele>
        <time>2021-05-16T12:15:02Z</time>
      </trkpt>
      <trkpt lat="41.3606600" lon="-8.7575240">
        <ele>8.6</ele>
        <time>2021-05-16T12:15:03Z</time>
      </trkpt>
      <trkpt lat="41.3606600" lon="-8.7575240">
        <ele>8.6</ele>
        <time>2021-05-16T12:15:04Z</time>
      </trkpt>
      <trkpt lat="41.3606600" lon="-8.7575240">
        <ele>8.6</ele>
        <time>2021-05-16T12:15:05Z</time>
      </trkpt>
      <trkpt lat="41.3606600" lon="-8.7575240">
        <ele>8.6</ele>
        <time>2021-05-16T12:15:06Z</time>
      </trkpt>
      <trkpt lat="41.3606600" lon="-8.7575240">
        <ele>8.6</ele>
        <time>2021-05-16T12:15:07Z</time>
      </trkpt>
      <trkpt lat="41.3606600" lon="-8.7575240">
        <ele>8.6</ele>
        <time>2021-05-16T12:15:08Z</time>
      </trkpt>
      <trkpt lat="41.3606600" lon="-8.7575240">
        <ele>8.6</ele>
        <time>2021-05-16T12:15:09Z</time>
      </trkpt>
      <trkpt lat="41.3606600" lon="-8.7575240">
        <ele>8.6</ele>
        <time>2021-05-16T12:15:10Z</time>
      </trkpt>
      <trkpt lat="41.3606600" lon="-8.7575240">
        <ele>8.6</ele>
        <time>2021-05-16T12:15:11Z</time>
      </trkpt>
      <trkpt lat="41.3606600" lon="-8.7575240">
        <ele>8.6</ele>
        <time>2021-05-16T12:15:12Z</time>
      </trkpt>
      <trkpt lat="41.3606600" lon="-8.7575240">
        <ele>8.6</ele>
        <time>2021-05-16T12:15:13Z</time>
      </trkpt>
      <trkpt lat="41.3606600" lon="-8.7575240">
        <ele>8.6</ele>
        <time>2021-05-16T12:15:14Z</time>
      </trkpt>
      <trkpt lat="41.3606600" lon="-8.7575240">
        <ele>8.6</ele>
        <time>2021-05-16T12:15:15Z</time>
      </trkpt>
      <trkpt lat="41.3606600" lon="-8.7575240">
        <ele>8.6</ele>
        <time>2021-05-16T12:15:16Z</time>
      </trkpt>
      <trkpt lat="41.3606600" lon="-8.7575240">
        <ele>8.6</ele>
        <time>2021-05-16T12:15:17Z</time>
      </trkpt>
      <trkpt lat="41.3606600" lon="-8.7575240">
        <ele>8.6</ele>
        <time>2021-05-16T12:15:18Z</time>
      </trkpt>
      <trkpt lat="41.3606600" lon="-8.7575240">
        <ele>8.6</ele>
        <time>2021-05-16T12:15:19Z</time>
      </trkpt>
      <trkpt lat="41.3606600" lon="-8.7575240">
        <ele>8.6</ele>
        <time>2021-05-16T12:15:20Z</time>
      </trkpt>
      <trkpt lat="41.3606600" lon="-8.7575240">
        <ele>8.6</ele>
        <time>2021-05-16T12:15:21Z</time>
      </trkpt>
      <trkpt lat="41.3606600" lon="-8.7575240">
        <ele>8.6</ele>
        <time>2021-05-16T12:15:22Z</time>
      </trkpt>
      <trkpt lat="41.3606600" lon="-8.7575240">
        <ele>8.6</ele>
        <time>2021-05-16T12:15:23Z</time>
      </trkpt>
      <trkpt lat="41.3606600" lon="-8.7575240">
        <ele>8.6</ele>
        <time>2021-05-16T12:15:24Z</time>
      </trkpt>
      <trkpt lat="41.3606600" lon="-8.7575240">
        <ele>8.6</ele>
        <time>2021-05-16T12:15:25Z</time>
      </trkpt>
      <trkpt lat="41.3606600" lon="-8.7575240">
        <ele>8.6</ele>
        <time>2021-05-16T12:15:26Z</time>
      </trkpt>
      <trkpt lat="41.3606600" lon="-8.7575240">
        <ele>8.6</ele>
        <time>2021-05-16T12:15:27Z</time>
      </trkpt>
      <trkpt lat="41.3606600" lon="-8.7575240">
        <ele>8.6</ele>
        <time>2021-05-16T12:15:28Z</time>
      </trkpt>
      <trkpt lat="41.3606600" lon="-8.7575240">
        <ele>8.6</ele>
        <time>2021-05-16T12:15:29Z</time>
      </trkpt>
      <trkpt lat="41.3606600" lon="-8.7575240">
        <ele>8.6</ele>
        <time>2021-05-16T12:15:30Z</time>
      </trkpt>
      <trkpt lat="41.3606600" lon="-8.7575240">
        <ele>8.6</ele>
        <time>2021-05-16T12:15:31Z</time>
      </trkpt>
      <trkpt lat="41.3606600" lon="-8.7575240">
        <ele>8.6</ele>
        <time>2021-05-16T12:15:32Z</time>
      </trkpt>
      <trkpt lat="41.3606600" lon="-8.7575240">
        <ele>8.6</ele>
        <time>2021-05-16T12:15:33Z</time>
      </trkpt>
      <trkpt lat="41.3606600" lon="-8.7575240">
        <ele>8.6</ele>
        <time>2021-05-16T12:15:34Z</time>
      </trkpt>
      <trkpt lat="41.3606600" lon="-8.7575240">
        <ele>8.6</ele>
        <time>2021-05-16T12:15:35Z</time>
      </trkpt>
      <trkpt lat="41.3606600" lon="-8.7575240">
        <ele>8.6</ele>
        <time>2021-05-16T12:15:36Z</time>
      </trkpt>
      <trkpt lat="41.3606600" lon="-8.7575240">
        <ele>8.6</ele>
        <time>2021-05-16T12:15:37Z</time>
      </trkpt>
      <trkpt lat="41.3606600" lon="-8.7575240">
        <ele>8.6</ele>
        <time>2021-05-16T12:15:38Z</time>
      </trkpt>
      <trkpt lat="41.3606600" lon="-8.7575240">
        <ele>8.6</ele>
        <time>2021-05-16T12:15:39Z</time>
      </trkpt>
      <trkpt lat="41.3606600" lon="-8.7575240">
        <ele>8.6</ele>
        <time>2021-05-16T12:15:40Z</time>
      </trkpt>
      <trkpt lat="41.3606570" lon="-8.7575120">
        <ele>8.6</ele>
        <time>2021-05-16T12:15:41Z</time>
      </trkpt>
      <trkpt lat="41.3606570" lon="-8.7575110">
        <ele>8.6</ele>
        <time>2021-05-16T12:15:42Z</time>
      </trkpt>
      <trkpt lat="41.3606570" lon="-8.7575110">
        <ele>8.6</ele>
        <time>2021-05-16T12:15:43Z</time>
      </trkpt>
      <trkpt lat="41.3606570" lon="-8.7575120">
        <ele>8.6</ele>
        <time>2021-05-16T12:15:44Z</time>
      </trkpt>
      <trkpt lat="41.3606590" lon="-8.7575080">
        <ele>8.6</ele>
        <time>2021-05-16T12:15:45Z</time>
      </trkpt>
      <trkpt lat="41.3606590" lon="-8.7575080">
        <ele>8.6</ele>
        <time>2021-05-16T12:15:46Z</time>
      </trkpt>
      <trkpt lat="41.3606590" lon="-8.7575080">
        <ele>8.6</ele>
        <time>2021-05-16T12:15:47Z</time>
      </trkpt>
      <trkpt lat="41.3606590" lon="-8.7575080">
        <ele>8.6</ele>
        <time>2021-05-16T12:15:48Z</time>
      </trkpt>
      <trkpt lat="41.3606590" lon="-8.7575080">
        <ele>8.6</ele>
        <time>2021-05-16T12:15:49Z</time>
      </trkpt>
      <trkpt lat="41.3606590" lon="-8.7575080">
        <ele>8.6</ele>
        <time>2021-05-16T12:15:50Z</time>
      </trkpt>
      <trkpt lat="41.3606590" lon="-8.7575080">
        <ele>8.6</ele>
        <time>2021-05-16T12:15:51Z</time>
      </trkpt>
      <trkpt lat="41.3606590" lon="-8.7575080">
        <ele>8.6</ele>
        <time>2021-05-16T12:15:52Z</time>
      </trkpt>
      <trkpt lat="41.3606590" lon="-8.7575080">
        <ele>8.6</ele>
        <time>2021-05-16T12:15:53Z</time>
      </trkpt>
      <trkpt lat="41.3606590" lon="-8.7575080">
        <ele>8.6</ele>
        <time>2021-05-16T12:15:54Z</time>
      </trkpt>
      <trkpt lat="41.3606590" lon="-8.7575080">
        <ele>8.6</ele>
        <time>2021-05-16T12:15:55Z</time>
      </trkpt>
      <trkpt lat="41.3606590" lon="-8.7575080">
        <ele>8.6</ele>
        <time>2021-05-16T12:15:56Z</time>
      </trkpt>
      <trkpt lat="41.3606590" lon="-8.7575080">
        <ele>8.6</ele>
        <time>2021-05-16T12:15:57Z</time>
      </trkpt>
      <trkpt lat="41.3606590" lon="-8.7575080">
        <ele>8.6</ele>
        <time>2021-05-16T12:15:58Z</time>
      </trkpt>
      <trkpt lat="41.3606590" lon="-8.7575080">
        <ele>8.6</ele>
        <time>2021-05-16T12:15:59Z</time>
      </trkpt>
      <trkpt lat="41.3606590" lon="-8.7575080">
        <ele>8.6</ele>
        <time>2021-05-16T12:16:00Z</time>
      </trkpt>
      <trkpt lat="41.3606590" lon="-8.7575080">
        <ele>8.6</ele>
        <time>2021-05-16T12:16:01Z</time>
      </trkpt>
      <trkpt lat="41.3606590" lon="-8.7575080">
        <ele>8.6</ele>
        <time>2021-05-16T12:16:02Z</time>
      </trkpt>
      <trkpt lat="41.3606590" lon="-8.7575080">
        <ele>8.6</ele>
        <time>2021-05-16T12:16:03Z</time>
      </trkpt>
      <trkpt lat="41.3606590" lon="-8.7575080">
        <ele>8.6</ele>
        <time>2021-05-16T12:16:04Z</time>
      </trkpt>
      <trkpt lat="41.3606600" lon="-8.7575070">
        <ele>8.6</ele>
        <time>2021-05-16T12:16:05Z</time>
      </trkpt>
      <trkpt lat="41.3606600" lon="-8.7575070">
        <ele>8.6</ele>
        <time>2021-05-16T12:16:06Z</time>
      </trkpt>
      <trkpt lat="41.3606600" lon="-8.7575070">
        <ele>8.6</ele>
        <time>2021-05-16T12:16:07Z</time>
      </trkpt>
      <trkpt lat="41.3606600" lon="-8.7575070">
        <ele>8.6</ele>
        <time>2021-05-16T12:16:08Z</time>
      </trkpt>
      <trkpt lat="41.3606600" lon="-8.7575070">
        <ele>8.6</ele>
        <time>2021-05-16T12:16:09Z</time>
      </trkpt>
      <trkpt lat="41.3606600" lon="-8.7575070">
        <ele>8.6</ele>
        <time>2021-05-16T12:16:10Z</time>
      </trkpt>
      <trkpt lat="41.3606600" lon="-8.7575070">
        <ele>8.6</ele>
        <time>2021-05-16T12:16:11Z</time>
      </trkpt>
      <trkpt lat="41.3606600" lon="-8.7575070">
        <ele>8.6</ele>
        <time>2021-05-16T12:16:12Z</time>
      </trkpt>
      <trkpt lat="41.3606600" lon="-8.7575070">
        <ele>8.6</ele>
        <time>2021-05-16T12:16:13Z</time>
      </trkpt>
      <trkpt lat="41.3606600" lon="-8.7575070">
        <ele>8.6</ele>
        <time>2021-05-16T12:16:14Z</time>
      </trkpt>
      <trkpt lat="41.3606600" lon="-8.7575070">
        <ele>8.6</ele>
        <time>2021-05-16T12:16:15Z</time>
      </trkpt>
      <trkpt lat="41.3606600" lon="-8.7575070">
        <ele>8.6</ele>
        <time>2021-05-16T12:16:16Z</time>
      </trkpt>
      <trkpt lat="41.3606600" lon="-8.7575070">
        <ele>8.6</ele>
        <time>2021-05-16T12:16:17Z</time>
      </trkpt>
      <trkpt lat="41.3606600" lon="-8.7575070">
        <ele>8.6</ele>
        <time>2021-05-16T12:16:18Z</time>
      </trkpt>
      <trkpt lat="41.3606600" lon="-8.7575070">
        <ele>8.6</ele>
        <time>2021-05-16T12:16:19Z</time>
      </trkpt>
      <trkpt lat="41.3606600" lon="-8.7575070">
        <ele>8.6</ele>
        <time>2021-05-16T12:16:20Z</time>
      </trkpt>
      <trkpt lat="41.3606600" lon="-8.7575070">
        <ele>8.6</ele>
        <time>2021-05-16T12:16:21Z</time>
      </trkpt>
      <trkpt lat="41.3606600" lon="-8.7575070">
        <ele>8.6</ele>
        <time>2021-05-16T12:16:22Z</time>
      </trkpt>
      <trkpt lat="41.3606600" lon="-8.7575070">
        <ele>8.6</ele>
        <time>2021-05-16T12:16:23Z</time>
      </trkpt>
      <trkpt lat="41.3606600" lon="-8.7575070">
        <ele>8.6</ele>
        <time>2021-05-16T12:16:24Z</time>
      </trkpt>
      <trkpt lat="41.3606630" lon="-8.7575180">
        <ele>8.6</ele>
        <time>2021-05-16T12:16:25Z</time>
      </trkpt>
      <trkpt lat="41.3606630" lon="-8.7575180">
        <ele>8.6</ele>
        <time>2021-05-16T12:16:26Z</time>
      </trkpt>
      <trkpt lat="41.3606630" lon="-8.7575180">
        <ele>8.6</ele>
        <time>2021-05-16T12:16:27Z</time>
      </trkpt>
      <trkpt lat="41.3606630" lon="-8.7575180">
        <ele>8.6</ele>
        <time>2021-05-16T12:16:28Z</time>
      </trkpt>
      <trkpt lat="41.3606630" lon="-8.7575180">
        <ele>8.6</ele>
        <time>2021-05-16T12:16:29Z</time>
      </trkpt>
      <trkpt lat="41.3606630" lon="-8.7575180">
        <ele>8.6</ele>
        <time>2021-05-16T12:16:30Z</time>
      </trkpt>
      <trkpt lat="41.3606630" lon="-8.7575180">
        <ele>8.6</ele>
        <time>2021-05-16T12:16:31Z</time>
      </trkpt>
      <trkpt lat="41.3606630" lon="-8.7575180">
        <ele>8.6</ele>
        <time>2021-05-16T12:16:32Z</time>
      </trkpt>
      <trkpt lat="41.3606630" lon="-8.7575180">
        <ele>8.6</ele>
        <time>2021-05-16T12:16:33Z</time>
      </trkpt>
      <trkpt lat="41.3606630" lon="-8.7575180">
        <ele>8.6</ele>
        <time>2021-05-16T12:16:34Z</time>
      </trkpt>
      <trkpt lat="41.3606630" lon="-8.7575180">
        <ele>8.6</ele>
        <time>2021-05-16T12:16:35Z</time>
      </trkpt>
      <trkpt lat="41.3606630" lon="-8.7575180">
        <ele>8.6</ele>
        <time>2021-05-16T12:16:36Z</time>
      </trkpt>
      <trkpt lat="41.3606630" lon="-8.7575180">
        <ele>8.6</ele>
        <time>2021-05-16T12:16:37Z</time>
      </trkpt>
      <trkpt lat="41.3606600" lon="-8.7575260">
        <ele>8.6</ele>
        <time>2021-05-16T12:16:38Z</time>
      </trkpt>
      <trkpt lat="41.3606600" lon="-8.7575250">
        <ele>8.6</ele>
        <time>2021-05-16T12:16:39Z</time>
      </trkpt>
      <trkpt lat="41.3606600" lon="-8.7575260">
        <ele>8.6</ele>
        <time>2021-05-16T12:16:40Z</time>
      </trkpt>
      <trkpt lat="41.3606590" lon="-8.7575250">
        <ele>8.6</ele>
        <time>2021-05-16T12:16:41Z</time>
      </trkpt>
      <trkpt lat="41.3606600" lon="-8.7575220">
        <ele>8.6</ele>
        <time>2021-05-16T12:16:42Z</time>
      </trkpt>
      <trkpt lat="41.3606610" lon="-8.7575220">
        <ele>8.6</ele>
        <time>2021-05-16T12:16:43Z</time>
      </trkpt>
      <trkpt lat="41.3606610" lon="-8.7575220">
        <ele>8.6</ele>
        <time>2021-05-16T12:16:44Z</time>
      </trkpt>
      <trkpt lat="41.3606630" lon="-8.7575180">
        <ele>8.6</ele>
        <time>2021-05-16T12:16:45Z</time>
      </trkpt>
      <trkpt lat="41.3606630" lon="-8.7575180">
        <ele>8.6</ele>
        <time>2021-05-16T12:16:46Z</time>
      </trkpt>
      <trkpt lat="41.3606630" lon="-8.7575180">
        <ele>8.6</ele>
        <time>2021-05-16T12:16:47Z</time>
      </trkpt>
      <trkpt lat="41.3606600" lon="-8.7575220">
        <ele>8.6</ele>
        <time>2021-05-16T12:16:48Z</time>
      </trkpt>
      <trkpt lat="41.3606590" lon="-8.7575250">
        <ele>8.6</ele>
        <time>2021-05-16T12:16:49Z</time>
      </trkpt>
      <trkpt lat="41.3606580" lon="-8.7575240">
        <ele>8.6</ele>
        <time>2021-05-16T12:16:50Z</time>
      </trkpt>
      <trkpt lat="41.3606580" lon="-8.7575240">
        <ele>8.6</ele>
        <time>2021-05-16T12:16:51Z</time>
      </trkpt>
      <trkpt lat="41.3606580" lon="-8.7575240">
        <ele>8.6</ele>
        <time>2021-05-16T12:16:52Z</time>
      </trkpt>
      <trkpt lat="41.3606580" lon="-8.7575240">
        <ele>8.6</ele>
        <time>2021-05-16T12:16:53Z</time>
      </trkpt>
      <trkpt lat="41.3606580" lon="-8.7575240">
        <ele>8.6</ele>
        <time>2021-05-16T12:16:54Z</time>
      </trkpt>
      <trkpt lat="41.3606580" lon="-8.7575240">
        <ele>8.6</ele>
        <time>2021-05-16T12:16:55Z</time>
      </trkpt>
      <trkpt lat="41.3606580" lon="-8.7575240">
        <ele>8.6</ele>
        <time>2021-05-16T12:16:56Z</time>
      </trkpt>
      <trkpt lat="41.3606580" lon="-8.7575240">
        <ele>8.6</ele>
        <time>2021-05-16T12:16:57Z</time>
      </trkpt>
      <trkpt lat="41.3606580" lon="-8.7575240">
        <ele>8.6</ele>
        <time>2021-05-16T12:16:58Z</time>
      </trkpt>
      <trkpt lat="41.3606580" lon="-8.7575240">
        <ele>8.6</ele>
        <time>2021-05-16T12:16:59Z</time>
      </trkpt>
      <trkpt lat="41.3606580" lon="-8.7575240">
        <ele>8.6</ele>
        <time>2021-05-16T12:17:00Z</time>
      </trkpt>
      <trkpt lat="41.3606580" lon="-8.7575240">
        <ele>8.6</ele>
        <time>2021-05-16T12:17:01Z</time>
      </trkpt>
      <trkpt lat="41.3606580" lon="-8.7575240">
        <ele>8.6</ele>
        <time>2021-05-16T12:17:02Z</time>
      </trkpt>
      <trkpt lat="41.3606580" lon="-8.7575240">
        <ele>8.6</ele>
        <time>2021-05-16T12:17:03Z</time>
      </trkpt>
      <trkpt lat="41.3606580" lon="-8.7575240">
        <ele>8.6</ele>
        <time>2021-05-16T12:17:04Z</time>
      </trkpt>
      <trkpt lat="41.3606580" lon="-8.7575240">
        <ele>8.6</ele>
        <time>2021-05-16T12:17:05Z</time>
      </trkpt>
      <trkpt lat="41.3606580" lon="-8.7575240">
        <ele>8.6</ele>
        <time>2021-05-16T12:17:06Z</time>
      </trkpt>
      <trkpt lat="41.3606580" lon="-8.7575240">
        <ele>8.6</ele>
        <time>2021-05-16T12:17:07Z</time>
      </trkpt>
      <trkpt lat="41.3606580" lon="-8.7575240">
        <ele>8.6</ele>
        <time>2021-05-16T12:17:08Z</time>
      </trkpt>
      <trkpt lat="41.3606580" lon="-8.7575240">
        <ele>8.6</ele>
        <time>2021-05-16T12:17:09Z</time>
      </trkpt>
      <trkpt lat="41.3606580" lon="-8.7575240">
        <ele>8.6</ele>
        <time>2021-05-16T12:17:10Z</time>
      </trkpt>
      <trkpt lat="41.3606580" lon="-8.7575240">
        <ele>8.6</ele>
        <time>2021-05-16T12:17:11Z</time>
      </trkpt>
      <trkpt lat="41.3606580" lon="-8.7575240">
        <ele>8.6</ele>
        <time>2021-05-16T12:17:12Z</time>
      </trkpt>
      <trkpt lat="41.3606580" lon="-8.7575240">
        <ele>8.6</ele>
        <time>2021-05-16T12:17:13Z</time>
      </trkpt>
      <trkpt lat="41.3606580" lon="-8.7575240">
        <ele>8.6</ele>
        <time>2021-05-16T12:17:14Z</time>
      </trkpt>
      <trkpt lat="41.3606580" lon="-8.7575240">
        <ele>8.6</ele>
        <time>2021-05-16T12:17:15Z</time>
      </trkpt>
      <trkpt lat="41.3606580" lon="-8.7575240">
        <ele>8.6</ele>
        <time>2021-05-16T12:17:16Z</time>
      </trkpt>
      <trkpt lat="41.3606580" lon="-8.7575240">
        <ele>8.6</ele>
        <time>2021-05-16T12:17:17Z</time>
      </trkpt>
      <trkpt lat="41.3606580" lon="-8.7575240">
        <ele>8.6</ele>
        <time>2021-05-16T12:17:18Z</time>
      </trkpt>
      <trkpt lat="41.3606580" lon="-8.7575240">
        <ele>8.6</ele>
        <time>2021-05-16T12:17:19Z</time>
      </trkpt>
      <trkpt lat="41.3606580" lon="-8.7575240">
        <ele>8.6</ele>
        <time>2021-05-16T12:17:20Z</time>
      </trkpt>
      <trkpt lat="41.3606580" lon="-8.7575240">
        <ele>8.6</ele>
        <time>2021-05-16T12:17:21Z</time>
      </trkpt>
      <trkpt lat="41.3606580" lon="-8.7575240">
        <ele>8.6</ele>
        <time>2021-05-16T12:17:22Z</time>
      </trkpt>
      <trkpt lat="41.3606580" lon="-8.7575240">
        <ele>8.6</ele>
        <time>2021-05-16T12:17:23Z</time>
      </trkpt>
      <trkpt lat="41.3606580" lon="-8.7575240">
        <ele>8.6</ele>
        <time>2021-05-16T12:17:24Z</time>
      </trkpt>
      <trkpt lat="41.3606580" lon="-8.7575240">
        <ele>8.6</ele>
        <time>2021-05-16T12:17:25Z</time>
      </trkpt>
      <trkpt lat="41.3606580" lon="-8.7575240">
        <ele>8.6</ele>
        <time>2021-05-16T12:17:26Z</time>
      </trkpt>
      <trkpt lat="41.3606580" lon="-8.7575240">
        <ele>8.6</ele>
        <time>2021-05-16T12:17:27Z</time>
      </trkpt>
      <trkpt lat="41.3606580" lon="-8.7575240">
        <ele>8.6</ele>
        <time>2021-05-16T12:17:28Z</time>
      </trkpt>
      <trkpt lat="41.3606580" lon="-8.7575240">
        <ele>8.6</ele>
        <time>2021-05-16T12:17:29Z</time>
      </trkpt>
      <trkpt lat="41.3606580" lon="-8.7575240">
        <ele>8.6</ele>
        <time>2021-05-16T12:17:30Z</time>
      </trkpt>
      <trkpt lat="41.3606580" lon="-8.7575240">
        <ele>8.6</ele>
        <time>2021-05-16T12:17:31Z</time>
      </trkpt>
      <trkpt lat="41.3606580" lon="-8.7575240">
        <ele>8.6</ele>
        <time>2021-05-16T12:17:32Z</time>
      </trkpt>
      <trkpt lat="41.3606580" lon="-8.7575240">
        <ele>8.6</ele>
        <time>2021-05-16T12:17:33Z</time>
      </trkpt>
      <trkpt lat="41.3606580" lon="-8.7575240">
        <ele>8.6</ele>
        <time>2021-05-16T12:17:34Z</time>
      </trkpt>
      <trkpt lat="41.3606580" lon="-8.7575240">
        <ele>8.6</ele>
        <time>2021-05-16T12:17:35Z</time>
      </trkpt>
      <trkpt lat="41.3606580" lon="-8.7575240">
        <ele>8.6</ele>
        <time>2021-05-16T12:17:36Z</time>
      </trkpt>
      <trkpt lat="41.3606580" lon="-8.7575240">
        <ele>8.6</ele>
        <time>2021-05-16T12:17:37Z</time>
      </trkpt>
      <trkpt lat="41.3606580" lon="-8.7575240">
        <ele>8.6</ele>
        <time>2021-05-16T12:17:38Z</time>
      </trkpt>
      <trkpt lat="41.3606580" lon="-8.7575240">
        <ele>8.6</ele>
        <time>2021-05-16T12:17:39Z</time>
      </trkpt>
      <trkpt lat="41.3606580" lon="-8.7575240">
        <ele>8.6</ele>
        <time>2021-05-16T12:17:40Z</time>
      </trkpt>
      <trkpt lat="41.3606580" lon="-8.7575240">
        <ele>8.6</ele>
        <time>2021-05-16T12:17:41Z</time>
      </trkpt>
      <trkpt lat="41.3606580" lon="-8.7575240">
        <ele>8.6</ele>
        <time>2021-05-16T12:17:42Z</time>
      </trkpt>
      <trkpt lat="41.3606580" lon="-8.7575240">
        <ele>8.6</ele>
        <time>2021-05-16T12:17:43Z</time>
      </trkpt>
      <trkpt lat="41.3606580" lon="-8.7575240">
        <ele>8.6</ele>
        <time>2021-05-16T12:17:44Z</time>
      </trkpt>
      <trkpt lat="41.3606580" lon="-8.7575240">
        <ele>8.6</ele>
        <time>2021-05-16T12:17:45Z</time>
      </trkpt>
      <trkpt lat="41.3606580" lon="-8.7575240">
        <ele>8.6</ele>
        <time>2021-05-16T12:17:46Z</time>
      </trkpt>
      <trkpt lat="41.3606580" lon="-8.7575240">
        <ele>8.6</ele>
        <time>2021-05-16T12:17:47Z</time>
      </trkpt>
      <trkpt lat="41.3606580" lon="-8.7575240">
        <ele>8.6</ele>
        <time>2021-05-16T12:17:48Z</time>
      </trkpt>
      <trkpt lat="41.3606580" lon="-8.7575240">
        <ele>8.6</ele>
        <time>2021-05-16T12:17:49Z</time>
      </trkpt>
      <trkpt lat="41.3606580" lon="-8.7575240">
        <ele>8.6</ele>
        <time>2021-05-16T12:17:50Z</time>
      </trkpt>
      <trkpt lat="41.3606580" lon="-8.7575240">
        <ele>8.6</ele>
        <time>2021-05-16T12:17:51Z</time>
      </trkpt>
      <trkpt lat="41.3606580" lon="-8.7575240">
        <ele>8.6</ele>
        <time>2021-05-16T12:17:52Z</time>
      </trkpt>
      <trkpt lat="41.3606580" lon="-8.7575240">
        <ele>8.6</ele>
        <time>2021-05-16T12:17:53Z</time>
      </trkpt>
      <trkpt lat="41.3606580" lon="-8.7575240">
        <ele>8.6</ele>
        <time>2021-05-16T12:17:54Z</time>
      </trkpt>
      <trkpt lat="41.3606580" lon="-8.7575240">
        <ele>8.6</ele>
        <time>2021-05-16T12:17:55Z</time>
      </trkpt>
      <trkpt lat="41.3606580" lon="-8.7575240">
        <ele>8.6</ele>
        <time>2021-05-16T12:17:56Z</time>
      </trkpt>
      <trkpt lat="41.3606580" lon="-8.7575240">
        <ele>8.6</ele>
        <time>2021-05-16T12:17:57Z</time>
      </trkpt>
      <trkpt lat="41.3606580" lon="-8.7575240">
        <ele>8.6</ele>
        <time>2021-05-16T12:17:58Z</time>
      </trkpt>
      <trkpt lat="41.3606580" lon="-8.7575240">
        <ele>8.6</ele>
        <time>2021-05-16T12:17:59Z</time>
      </trkpt>
      <trkpt lat="41.3606580" lon="-8.7575240">
        <ele>8.6</ele>
        <time>2021-05-16T12:18:00Z</time>
      </trkpt>
      <trkpt lat="41.3606580" lon="-8.7575240">
        <ele>8.6</ele>
        <time>2021-05-16T12:18:01Z</time>
      </trkpt>
      <trkpt lat="41.3606580" lon="-8.7575240">
        <ele>8.6</ele>
        <time>2021-05-16T12:18:02Z</time>
      </trkpt>
      <trkpt lat="41.3606550" lon="-8.7575380">
        <ele>8.6</ele>
        <time>2021-05-16T12:18:03Z</time>
      </trkpt>
      <trkpt lat="41.3606550" lon="-8.7575380">
        <ele>8.6</ele>
        <time>2021-05-16T12:18:04Z</time>
      </trkpt>
      <trkpt lat="41.3606550" lon="-8.7575380">
        <ele>8.6</ele>
        <time>2021-05-16T12:18:05Z</time>
      </trkpt>
      <trkpt lat="41.3606550" lon="-8.7575380">
        <ele>8.6</ele>
        <time>2021-05-16T12:18:06Z</time>
      </trkpt>
      <trkpt lat="41.3606580" lon="-8.7575290">
        <ele>8.6</ele>
        <time>2021-05-16T12:18:07Z</time>
      </trkpt>
      <trkpt lat="41.3606600" lon="-8.7575260">
        <ele>8.6</ele>
        <time>2021-05-16T12:18:08Z</time>
      </trkpt>
      <trkpt lat="41.3606590" lon="-8.7575200">
        <ele>8.6</ele>
        <time>2021-05-16T12:18:09Z</time>
      </trkpt>
      <trkpt lat="41.3606600" lon="-8.7575200">
        <ele>8.6</ele>
        <time>2021-05-16T12:18:10Z</time>
      </trkpt>
      <trkpt lat="41.3606590" lon="-8.7575190">
        <ele>8.6</ele>
        <time>2021-05-16T12:18:11Z</time>
      </trkpt>
      <trkpt lat="41.3606580" lon="-8.7575190">
        <ele>8.6</ele>
        <time>2021-05-16T12:18:12Z</time>
      </trkpt>
      <trkpt lat="41.3606580" lon="-8.7575170">
        <ele>8.6</ele>
        <time>2021-05-16T12:18:13Z</time>
      </trkpt>
      <trkpt lat="41.3606570" lon="-8.7575150">
        <ele>8.6</ele>
        <time>2021-05-16T12:18:14Z</time>
      </trkpt>
      <trkpt lat="41.3606580" lon="-8.7575140">
        <ele>8.6</ele>
        <time>2021-05-16T12:18:15Z</time>
      </trkpt>
      <trkpt lat="41.3606590" lon="-8.7575120">
        <ele>8.6</ele>
        <time>2021-05-16T12:18:16Z</time>
      </trkpt>
      <trkpt lat="41.3606600" lon="-8.7575090">
        <ele>8.6</ele>
        <time>2021-05-16T12:18:17Z</time>
      </trkpt>
      <trkpt lat="41.3606580" lon="-8.7575080">
        <ele>8.6</ele>
        <time>2021-05-16T12:18:18Z</time>
      </trkpt>
      <trkpt lat="41.3606580" lon="-8.7575080">
        <ele>8.6</ele>
        <time>2021-05-16T12:18:19Z</time>
      </trkpt>
      <trkpt lat="41.3606580" lon="-8.7575080">
        <ele>8.6</ele>
        <time>2021-05-16T12:18:20Z</time>
      </trkpt>
      <trkpt lat="41.3606560" lon="-8.7574990">
        <ele>8.6</ele>
        <time>2021-05-16T12:18:21Z</time>
      </trkpt>
      <trkpt lat="41.3606530" lon="-8.7574980">
        <ele>8.6</ele>
        <time>2021-05-16T12:18:22Z</time>
      </trkpt>
      <trkpt lat="41.3606490" lon="-8.7574980">
        <ele>8.6</ele>
        <time>2021-05-16T12:18:23Z</time>
      </trkpt>
      <trkpt lat="41.3606490" lon="-8.7574970">
        <ele>8.6</ele>
        <time>2021-05-16T12:18:24Z</time>
      </trkpt>
      <trkpt lat="41.3606490" lon="-8.7575000">
        <ele>8.6</ele>
        <time>2021-05-16T12:18:25Z</time>
      </trkpt>
      <trkpt lat="41.3606480" lon="-8.7575020">
        <ele>8.6</ele>
        <time>2021-05-16T12:18:26Z</time>
      </trkpt>
      <trkpt lat="41.3606480" lon="-8.7575020">
        <ele>8.6</ele>
        <time>2021-05-16T12:18:27Z</time>
      </trkpt>
      <trkpt lat="41.3606480" lon="-8.7575010">
        <ele>8.6</ele>
        <time>2021-05-16T12:18:28Z</time>
      </trkpt>
      <trkpt lat="41.3606460" lon="-8.7575040">
        <ele>8.6</ele>
        <time>2021-05-16T12:18:29Z</time>
      </trkpt>
      <trkpt lat="41.3606450" lon="-8.7575030">
        <ele>8.6</ele>
        <time>2021-05-16T12:18:30Z</time>
      </trkpt>
      <trkpt lat="41.3606440" lon="-8.7575030">
        <ele>8.6</ele>
        <time>2021-05-16T12:18:31Z</time>
      </trkpt>
      <trkpt lat="41.3606440" lon="-8.7574980">
        <ele>8.6</ele>
        <time>2021-05-16T12:18:32Z</time>
      </trkpt>
      <trkpt lat="41.3606450" lon="-8.7574930">
        <ele>8.6</ele>
        <time>2021-05-16T12:18:33Z</time>
      </trkpt>
      <trkpt lat="41.3606430" lon="-8.7574930">
        <ele>8.6</ele>
        <time>2021-05-16T12:18:34Z</time>
      </trkpt>
      <trkpt lat="41.3606420" lon="-8.7574950">
        <ele>8.6</ele>
        <time>2021-05-16T12:18:35Z</time>
      </trkpt>
      <trkpt lat="41.3606420" lon="-8.7574970">
        <ele>8.6</ele>
        <time>2021-05-16T12:18:36Z</time>
      </trkpt>
      <trkpt lat="41.3606410" lon="-8.7574990">
        <ele>8.6</ele>
        <time>2021-05-16T12:18:37Z</time>
      </trkpt>
      <trkpt lat="41.3606400" lon="-8.7574950">
        <ele>8.6</ele>
        <time>2021-05-16T12:18:38Z</time>
      </trkpt>
      <trkpt lat="41.3606380" lon="-8.7574980">
        <ele>8.6</ele>
        <time>2021-05-16T12:18:39Z</time>
      </trkpt>
      <trkpt lat="41.3606380" lon="-8.7574970">
        <ele>8.6</ele>
        <time>2021-05-16T12:18:40Z</time>
      </trkpt>
      <trkpt lat="41.3606370" lon="-8.7575020">
        <ele>8.6</ele>
        <time>2021-05-16T12:18:41Z</time>
      </trkpt>
      <trkpt lat="41.3606360" lon="-8.7575020">
        <ele>8.6</ele>
        <time>2021-05-16T12:18:42Z</time>
      </trkpt>
      <trkpt lat="41.3606350" lon="-8.7575010">
        <ele>8.6</ele>
        <time>2021-05-16T12:18:43Z</time>
      </trkpt>
      <trkpt lat="41.3606360" lon="-8.7575020">
        <ele>8.6</ele>
        <time>2021-05-16T12:18:44Z</time>
      </trkpt>
      <trkpt lat="41.3606360" lon="-8.7575050">
        <ele>8.6</ele>
        <time>2021-05-16T12:18:45Z</time>
      </trkpt>
      <trkpt lat="41.3606360" lon="-8.7575050">
        <ele>8.6</ele>
        <time>2021-05-16T12:18:46Z</time>
      </trkpt>
      <trkpt lat="41.3606360" lon="-8.7575050">
        <ele>8.6</ele>
        <time>2021-05-16T12:18:47Z</time>
      </trkpt>
      <trkpt lat="41.3606360" lon="-8.7575090">
        <ele>8.6</ele>
        <time>2021-05-16T12:18:48Z</time>
      </trkpt>
      <trkpt lat="41.3606340" lon="-8.7575090">
        <ele>8.6</ele>
        <time>2021-05-16T12:18:49Z</time>
      </trkpt>
      <trkpt lat="41.3606330" lon="-8.7575070">
        <ele>8.6</ele>
        <time>2021-05-16T12:18:50Z</time>
      </trkpt>
      <trkpt lat="41.3606310" lon="-8.7575090">
        <ele>8.6</ele>
        <time>2021-05-16T12:18:51Z</time>
      </trkpt>
      <trkpt lat="41.3606310" lon="-8.7575090">
        <ele>8.6</ele>
        <time>2021-05-16T12:18:52Z</time>
      </trkpt>
      <trkpt lat="41.3606320" lon="-8.7575040">
        <ele>8.6</ele>
        <time>2021-05-16T12:18:53Z</time>
      </trkpt>
      <trkpt lat="41.3606340" lon="-8.7574990">
        <ele>8.6</ele>
        <time>2021-05-16T12:18:54Z</time>
      </trkpt>
      <trkpt lat="41.3606320" lon="-8.7575000">
        <ele>8.6</ele>
        <time>2021-05-16T12:18:55Z</time>
      </trkpt>
      <trkpt lat="41.3606320" lon="-8.7575020">
        <ele>8.6</ele>
        <time>2021-05-16T12:18:56Z</time>
      </trkpt>
      <trkpt lat="41.3606320" lon="-8.7575050">
        <ele>8.6</ele>
        <time>2021-05-16T12:18:57Z</time>
      </trkpt>
      <trkpt lat="41.3606320" lon="-8.7575050">
        <ele>8.6</ele>
        <time>2021-05-16T12:18:58Z</time>
      </trkpt>
      <trkpt lat="41.3606340" lon="-8.7574990">
        <ele>8.6</ele>
        <time>2021-05-16T12:18:59Z</time>
      </trkpt>
      <trkpt lat="41.3606330" lon="-8.7575000">
        <ele>8.6</ele>
        <time>2021-05-16T12:19:00Z</time>
      </trkpt>
      <trkpt lat="41.3606360" lon="-8.7574990">
        <ele>8.6</ele>
        <time>2021-05-16T12:19:01Z</time>
      </trkpt>
      <trkpt lat="41.3606360" lon="-8.7574990">
        <ele>8.6</ele>
        <time>2021-05-16T12:19:02Z</time>
      </trkpt>
      <trkpt lat="41.3606400" lon="-8.7574980">
        <ele>8.6</ele>
        <time>2021-05-16T12:19:03Z</time>
      </trkpt>
      <trkpt lat="41.3606390" lon="-8.7575020">
        <ele>8.6</ele>
        <time>2021-05-16T12:19:04Z</time>
      </trkpt>
      <trkpt lat="41.3606400" lon="-8.7575020">
        <ele>8.6</ele>
        <time>2021-05-16T12:19:05Z</time>
      </trkpt>
      <trkpt lat="41.3606400" lon="-8.7575000">
        <ele>8.6</ele>
        <time>2021-05-16T12:19:06Z</time>
      </trkpt>
      <trkpt lat="41.3606420" lon="-8.7574970">
        <ele>8.6</ele>
        <time>2021-05-16T12:19:07Z</time>
      </trkpt>
      <trkpt lat="41.3606420" lon="-8.7574970">
        <ele>8.6</ele>
        <time>2021-05-16T12:19:08Z</time>
      </trkpt>
      <trkpt lat="41.3606430" lon="-8.7574970">
        <ele>8.6</ele>
        <time>2021-05-16T12:19:09Z</time>
      </trkpt>
      <trkpt lat="41.3606460" lon="-8.7574920">
        <ele>8.6</ele>
        <time>2021-05-16T12:19:10Z</time>
      </trkpt>
      <trkpt lat="41.3606480" lon="-8.7574910">
        <ele>8.6</ele>
        <time>2021-05-16T12:19:11Z</time>
      </trkpt>
      <trkpt lat="41.3606480" lon="-8.7574910">
        <ele>8.6</ele>
        <time>2021-05-16T12:19:12Z</time>
      </trkpt>
      <trkpt lat="41.3606480" lon="-8.7574910">
        <ele>8.6</ele>
        <time>2021-05-16T12:19:13Z</time>
      </trkpt>
      <trkpt lat="41.3606600" lon="-8.7574890">
        <ele>8.6</ele>
        <time>2021-05-16T12:19:14Z</time>
      </trkpt>
      <trkpt lat="41.3606630" lon="-8.7574870">
        <ele>8.6</ele>
        <time>2021-05-16T12:19:15Z</time>
      </trkpt>
      <trkpt lat="41.3606630" lon="-8.7574870">
        <ele>8.6</ele>
        <time>2021-05-16T12:19:16Z</time>
      </trkpt>
      <trkpt lat="41.3606630" lon="-8.7574870">
        <ele>8.6</ele>
        <time>2021-05-16T12:19:17Z</time>
      </trkpt>
      <trkpt lat="41.3606650" lon="-8.7574920">
        <ele>8.6</ele>
        <time>2021-05-16T12:19:18Z</time>
      </trkpt>
      <trkpt lat="41.3606650" lon="-8.7574920">
        <ele>8.6</ele>
        <time>2021-05-16T12:19:19Z</time>
      </trkpt>
      <trkpt lat="41.3606650" lon="-8.7574920">
        <ele>8.6</ele>
        <time>2021-05-16T12:19:20Z</time>
      </trkpt>
      <trkpt lat="41.3606680" lon="-8.7574960">
        <ele>8.6</ele>
        <time>2021-05-16T12:19:21Z</time>
      </trkpt>
      <trkpt lat="41.3606680" lon="-8.7575000">
        <ele>8.6</ele>
        <time>2021-05-16T12:19:22Z</time>
      </trkpt>
      <trkpt lat="41.3606680" lon="-8.7575020">
        <ele>8.6</ele>
        <time>2021-05-16T12:19:23Z</time>
      </trkpt>
      <trkpt lat="41.3606690" lon="-8.7575010">
        <ele>8.6</ele>
        <time>2021-05-16T12:19:24Z</time>
      </trkpt>
      <trkpt lat="41.3606690" lon="-8.7575040">
        <ele>8.6</ele>
        <time>2021-05-16T12:19:25Z</time>
      </trkpt>
      <trkpt lat="41.3606670" lon="-8.7575060">
        <ele>8.6</ele>
        <time>2021-05-16T12:19:26Z</time>
      </trkpt>
      <trkpt lat="41.3606660" lon="-8.7575080">
        <ele>8.6</ele>
        <time>2021-05-16T12:19:27Z</time>
      </trkpt>
      <trkpt lat="41.3606660" lon="-8.7575050">
        <ele>8.6</ele>
        <time>2021-05-16T12:19:28Z</time>
      </trkpt>
      <trkpt lat="41.3606660" lon="-8.7575050">
        <ele>8.6</ele>
        <time>2021-05-16T12:19:29Z</time>
      </trkpt>
      <trkpt lat="41.3606650" lon="-8.7575030">
        <ele>8.6</ele>
        <time>2021-05-16T12:19:30Z</time>
      </trkpt>
      <trkpt lat="41.3606650" lon="-8.7575020">
        <ele>8.6</ele>
        <time>2021-05-16T12:19:31Z</time>
      </trkpt>
      <trkpt lat="41.3606660" lon="-8.7575000">
        <ele>8.6</ele>
        <time>2021-05-16T12:19:32Z</time>
      </trkpt>
      <trkpt lat="41.3606660" lon="-8.7575000">
        <ele>8.6</ele>
        <time>2021-05-16T12:19:33Z</time>
      </trkpt>
      <trkpt lat="41.3606630" lon="-8.7575040">
        <ele>8.6</ele>
        <time>2021-05-16T12:19:34Z</time>
      </trkpt>
      <trkpt lat="41.3606630" lon="-8.7575050">
        <ele>8.6</ele>
        <time>2021-05-16T12:19:35Z</time>
      </trkpt>
      <trkpt lat="41.3606610" lon="-8.7575030">
        <ele>8.6</ele>
        <time>2021-05-16T12:19:36Z</time>
      </trkpt>
      <trkpt lat="41.3606600" lon="-8.7575030">
        <ele>8.6</ele>
        <time>2021-05-16T12:19:37Z</time>
      </trkpt>
      <trkpt lat="41.3606570" lon="-8.7575050">
        <ele>8.6</ele>
        <time>2021-05-16T12:19:38Z</time>
      </trkpt>
      <trkpt lat="41.3606580" lon="-8.7575080">
        <ele>8.6</ele>
        <time>2021-05-16T12:19:39Z</time>
      </trkpt>
      <trkpt lat="41.3606570" lon="-8.7575090">
        <ele>8.6</ele>
        <time>2021-05-16T12:19:40Z</time>
      </trkpt>
      <trkpt lat="41.3606560" lon="-8.7575060">
        <ele>8.6</ele>
        <time>2021-05-16T12:19:41Z</time>
      </trkpt>
      <trkpt lat="41.3606560" lon="-8.7575080">
        <ele>8.6</ele>
        <time>2021-05-16T12:19:42Z</time>
      </trkpt>
      <trkpt lat="41.3606550" lon="-8.7575090">
        <ele>8.6</ele>
        <time>2021-05-16T12:19:43Z</time>
      </trkpt>
      <trkpt lat="41.3606550" lon="-8.7575100">
        <ele>8.6</ele>
        <time>2021-05-16T12:19:44Z</time>
      </trkpt>
      <trkpt lat="41.3606530" lon="-8.7575090">
        <ele>8.6</ele>
        <time>2021-05-16T12:19:45Z</time>
      </trkpt>
      <trkpt lat="41.3606530" lon="-8.7575090">
        <ele>8.6</ele>
        <time>2021-05-16T12:19:46Z</time>
      </trkpt>
      <trkpt lat="41.3606520" lon="-8.7575090">
        <ele>8.6</ele>
        <time>2021-05-16T12:19:47Z</time>
      </trkpt>
      <trkpt lat="41.3606510" lon="-8.7575080">
        <ele>8.6</ele>
        <time>2021-05-16T12:19:48Z</time>
      </trkpt>
      <trkpt lat="41.3606530" lon="-8.7575060">
        <ele>8.6</ele>
        <time>2021-05-16T12:19:49Z</time>
      </trkpt>
      <trkpt lat="41.3606520" lon="-8.7575080">
        <ele>8.6</ele>
        <time>2021-05-16T12:19:50Z</time>
      </trkpt>
      <trkpt lat="41.3606520" lon="-8.7575070">
        <ele>8.6</ele>
        <time>2021-05-16T12:19:51Z</time>
      </trkpt>
      <trkpt lat="41.3606510" lon="-8.7575060">
        <ele>8.6</ele>
        <time>2021-05-16T12:19:52Z</time>
      </trkpt>
      <trkpt lat="41.3606510" lon="-8.7575060">
        <ele>8.6</ele>
        <time>2021-05-16T12:19:53Z</time>
      </trkpt>
      <trkpt lat="41.3606500" lon="-8.7575070">
        <ele>8.6</ele>
        <time>2021-05-16T12:19:54Z</time>
      </trkpt>
      <trkpt lat="41.3606510" lon="-8.7575060">
        <ele>8.6</ele>
        <time>2021-05-16T12:19:55Z</time>
      </trkpt>
      <trkpt lat="41.3606510" lon="-8.7575030">
        <ele>8.6</ele>
        <time>2021-05-16T12:19:56Z</time>
      </trkpt>
      <trkpt lat="41.3606510" lon="-8.7575020">
        <ele>8.6</ele>
        <time>2021-05-16T12:19:57Z</time>
      </trkpt>
      <trkpt lat="41.3606530" lon="-8.7574990">
        <ele>8.6</ele>
        <time>2021-05-16T12:19:58Z</time>
      </trkpt>
      <trkpt lat="41.3606530" lon="-8.7575010">
        <ele>8.6</ele>
        <time>2021-05-16T12:19:59Z</time>
      </trkpt>
      <trkpt lat="41.3606540" lon="-8.7574970">
        <ele>8.6</ele>
        <time>2021-05-16T12:20:00Z</time>
      </trkpt>
      <trkpt lat="41.3606560" lon="-8.7574920">
        <ele>8.6</ele>
        <time>2021-05-16T12:20:01Z</time>
      </trkpt>
      <trkpt lat="41.3606560" lon="-8.7574910">
        <ele>8.6</ele>
        <time>2021-05-16T12:20:02Z</time>
      </trkpt>
      <trkpt lat="41.3606550" lon="-8.7574930">
        <ele>8.6</ele>
        <time>2021-05-16T12:20:03Z</time>
      </trkpt>
      <trkpt lat="41.3606550" lon="-8.7574880">
        <ele>8.6</ele>
        <time>2021-05-16T12:20:04Z</time>
      </trkpt>
      <trkpt lat="41.3606560" lon="-8.7574870">
        <ele>8.6</ele>
        <time>2021-05-16T12:20:05Z</time>
      </trkpt>
      <trkpt lat="41.3606550" lon="-8.7574880">
        <ele>8.6</ele>
        <time>2021-05-16T12:20:06Z</time>
      </trkpt>
      <trkpt lat="41.3606560" lon="-8.7574890">
        <ele>8.6</ele>
        <time>2021-05-16T12:20:07Z</time>
      </trkpt>
      <trkpt lat="41.3606580" lon="-8.7574870">
        <ele>8.6</ele>
        <time>2021-05-16T12:20:08Z</time>
      </trkpt>
      <trkpt lat="41.3606580" lon="-8.7574870">
        <ele>8.6</ele>
        <time>2021-05-16T12:20:09Z</time>
      </trkpt>
      <trkpt lat="41.3606590" lon="-8.7574870">
        <ele>8.6</ele>
        <time>2021-05-16T12:20:10Z</time>
      </trkpt>
      <trkpt lat="41.3606580" lon="-8.7574880">
        <ele>8.6</ele>
        <time>2021-05-16T12:20:11Z</time>
      </trkpt>
      <trkpt lat="41.3606570" lon="-8.7574890">
        <ele>8.6</ele>
        <time>2021-05-16T12:20:12Z</time>
      </trkpt>
      <trkpt lat="41.3606570" lon="-8.7574890">
        <ele>8.6</ele>
        <time>2021-05-16T12:20:13Z</time>
      </trkpt>
      <trkpt lat="41.3606570" lon="-8.7574880">
        <ele>8.6</ele>
        <time>2021-05-16T12:20:14Z</time>
      </trkpt>
      <trkpt lat="41.3606560" lon="-8.7574890">
        <ele>8.6</ele>
        <time>2021-05-16T12:20:15Z</time>
      </trkpt>
      <trkpt lat="41.3606550" lon="-8.7574890">
        <ele>8.6</ele>
        <time>2021-05-16T12:20:16Z</time>
      </trkpt>
      <trkpt lat="41.3606540" lon="-8.7574900">
        <ele>8.6</ele>
        <time>2021-05-16T12:20:17Z</time>
      </trkpt>
      <trkpt lat="41.3606520" lon="-8.7574930">
        <ele>8.6</ele>
        <time>2021-05-16T12:20:18Z</time>
      </trkpt>
      <trkpt lat="41.3606530" lon="-8.7574920">
        <ele>8.6</ele>
        <time>2021-05-16T12:20:19Z</time>
      </trkpt>
      <trkpt lat="41.3606520" lon="-8.7574900">
        <ele>8.6</ele>
        <time>2021-05-16T12:20:20Z</time>
      </trkpt>
      <trkpt lat="41.3606510" lon="-8.7574900">
        <ele>8.6</ele>
        <time>2021-05-16T12:20:21Z</time>
      </trkpt>
      <trkpt lat="41.3606500" lon="-8.7574920">
        <ele>8.6</ele>
        <time>2021-05-16T12:20:22Z</time>
      </trkpt>
      <trkpt lat="41.3606490" lon="-8.7574930">
        <ele>8.6</ele>
        <time>2021-05-16T12:20:23Z</time>
      </trkpt>
      <trkpt lat="41.3606480" lon="-8.7574940">
        <ele>8.6</ele>
        <time>2021-05-16T12:20:24Z</time>
      </trkpt>
      <trkpt lat="41.3606480" lon="-8.7574940">
        <ele>8.6</ele>
        <time>2021-05-16T12:20:25Z</time>
      </trkpt>
      <trkpt lat="41.3606470" lon="-8.7574960">
        <ele>8.6</ele>
        <time>2021-05-16T12:20:26Z</time>
      </trkpt>
      <trkpt lat="41.3606470" lon="-8.7574970">
        <ele>8.6</ele>
        <time>2021-05-16T12:20:27Z</time>
      </trkpt>
      <trkpt lat="41.3606470" lon="-8.7574970">
        <ele>8.6</ele>
        <time>2021-05-16T12:20:28Z</time>
      </trkpt>
      <trkpt lat="41.3606450" lon="-8.7574990">
        <ele>8.6</ele>
        <time>2021-05-16T12:20:29Z</time>
      </trkpt>
      <trkpt lat="41.3606450" lon="-8.7575000">
        <ele>8.6</ele>
        <time>2021-05-16T12:20:30Z</time>
      </trkpt>
      <trkpt lat="41.3606470" lon="-8.7574970">
        <ele>8.6</ele>
        <time>2021-05-16T12:20:31Z</time>
      </trkpt>
      <trkpt lat="41.3606480" lon="-8.7574970">
        <ele>8.6</ele>
        <time>2021-05-16T12:20:32Z</time>
      </trkpt>
      <trkpt lat="41.3606490" lon="-8.7574960">
        <ele>8.6</ele>
        <time>2021-05-16T12:20:33Z</time>
      </trkpt>
      <trkpt lat="41.3606490" lon="-8.7574960">
        <ele>8.6</ele>
        <time>2021-05-16T12:20:34Z</time>
      </trkpt>
      <trkpt lat="41.3606490" lon="-8.7574950">
        <ele>8.6</ele>
        <time>2021-05-16T12:20:35Z</time>
      </trkpt>
      <trkpt lat="41.3606490" lon="-8.7574950">
        <ele>8.6</ele>
        <time>2021-05-16T12:20:36Z</time>
      </trkpt>
      <trkpt lat="41.3606480" lon="-8.7575010">
        <ele>8.6</ele>
        <time>2021-05-16T12:20:37Z</time>
      </trkpt>
      <trkpt lat="41.3606480" lon="-8.7575050">
        <ele>8.6</ele>
        <time>2021-05-16T12:20:38Z</time>
      </trkpt>
      <trkpt lat="41.3606460" lon="-8.7575050">
        <ele>8.6</ele>
        <time>2021-05-16T12:20:39Z</time>
      </trkpt>
      <trkpt lat="41.3606430" lon="-8.7575090">
        <ele>8.6</ele>
        <time>2021-05-16T12:20:40Z</time>
      </trkpt>
      <trkpt lat="41.3606430" lon="-8.7575090">
        <ele>8.6</ele>
        <time>2021-05-16T12:20:41Z</time>
      </trkpt>
      <trkpt lat="41.3606450" lon="-8.7575120">
        <ele>8.6</ele>
        <time>2021-05-16T12:20:42Z</time>
      </trkpt>
      <trkpt lat="41.3606460" lon="-8.7575120">
        <ele>8.6</ele>
        <time>2021-05-16T12:20:43Z</time>
      </trkpt>
      <trkpt lat="41.3606440" lon="-8.7575180">
        <ele>8.6</ele>
        <time>2021-05-16T12:20:44Z</time>
      </trkpt>
      <trkpt lat="41.3606440" lon="-8.7575170">
        <ele>8.6</ele>
        <time>2021-05-16T12:20:45Z</time>
      </trkpt>
      <trkpt lat="41.3606430" lon="-8.7575180">
        <ele>8.6</ele>
        <time>2021-05-16T12:20:46Z</time>
      </trkpt>
      <trkpt lat="41.3606420" lon="-8.7575140">
        <ele>8.6</ele>
        <time>2021-05-16T12:20:47Z</time>
      </trkpt>
      <trkpt lat="41.3606420" lon="-8.7575130">
        <ele>8.6</ele>
        <time>2021-05-16T12:20:48Z</time>
      </trkpt>
      <trkpt lat="41.3606430" lon="-8.7575090">
        <ele>8.6</ele>
        <time>2021-05-16T12:20:49Z</time>
      </trkpt>
      <trkpt lat="41.3606430" lon="-8.7575090">
        <ele>8.6</ele>
        <time>2021-05-16T12:20:50Z</time>
      </trkpt>
      <trkpt lat="41.3606430" lon="-8.7575090">
        <ele>8.6</ele>
        <time>2021-05-16T12:20:51Z</time>
      </trkpt>
      <trkpt lat="41.3606430" lon="-8.7575100">
        <ele>8.6</ele>
        <time>2021-05-16T12:20:52Z</time>
      </trkpt>
      <trkpt lat="41.3606420" lon="-8.7575110">
        <ele>8.6</ele>
        <time>2021-05-16T12:20:53Z</time>
      </trkpt>
      <trkpt lat="41.3606420" lon="-8.7575100">
        <ele>8.6</ele>
        <time>2021-05-16T12:20:54Z</time>
      </trkpt>
      <trkpt lat="41.3606430" lon="-8.7575090">
        <ele>8.6</ele>
        <time>2021-05-16T12:20:55Z</time>
      </trkpt>
      <trkpt lat="41.3606420" lon="-8.7575130">
        <ele>8.6</ele>
        <time>2021-05-16T12:20:56Z</time>
      </trkpt>
      <trkpt lat="41.3606420" lon="-8.7575160">
        <ele>8.6</ele>
        <time>2021-05-16T12:20:57Z</time>
      </trkpt>
      <trkpt lat="41.3606420" lon="-8.7575170">
        <ele>8.6</ele>
        <time>2021-05-16T12:20:58Z</time>
      </trkpt>
      <trkpt lat="41.3606430" lon="-8.7575180">
        <ele>8.6</ele>
        <time>2021-05-16T12:20:59Z</time>
      </trkpt>
      <trkpt lat="41.3606430" lon="-8.7575170">
        <ele>8.6</ele>
        <time>2021-05-16T12:21:00Z</time>
      </trkpt>
      <trkpt lat="41.3606440" lon="-8.7575180">
        <ele>8.6</ele>
        <time>2021-05-16T12:21:01Z</time>
      </trkpt>
      <trkpt lat="41.3606430" lon="-8.7575190">
        <ele>8.6</ele>
        <time>2021-05-16T12:21:02Z</time>
      </trkpt>
      <trkpt lat="41.3606440" lon="-8.7575160">
        <ele>8.6</ele>
        <time>2021-05-16T12:21:03Z</time>
      </trkpt>
      <trkpt lat="41.3606450" lon="-8.7575120">
        <ele>8.6</ele>
        <time>2021-05-16T12:21:04Z</time>
      </trkpt>
      <trkpt lat="41.3606460" lon="-8.7575110">
        <ele>8.6</ele>
        <time>2021-05-16T12:21:05Z</time>
      </trkpt>
      <trkpt lat="41.3606450" lon="-8.7575110">
        <ele>8.6</ele>
        <time>2021-05-16T12:21:06Z</time>
      </trkpt>
      <trkpt lat="41.3606460" lon="-8.7575100">
        <ele>8.6</ele>
        <time>2021-05-16T12:21:07Z</time>
      </trkpt>
      <trkpt lat="41.3606470" lon="-8.7575090">
        <ele>8.6</ele>
        <time>2021-05-16T12:21:08Z</time>
      </trkpt>
      <trkpt lat="41.3606460" lon="-8.7575100">
        <ele>8.6</ele>
        <time>2021-05-16T12:21:09Z</time>
      </trkpt>
      <trkpt lat="41.3606460" lon="-8.7575090">
        <ele>8.6</ele>
        <time>2021-05-16T12:21:10Z</time>
      </trkpt>
      <trkpt lat="41.3606460" lon="-8.7575070">
        <ele>8.6</ele>
        <time>2021-05-16T12:21:11Z</time>
      </trkpt>
      <trkpt lat="41.3606470" lon="-8.7575070">
        <ele>8.6</ele>
        <time>2021-05-16T12:21:12Z</time>
      </trkpt>
      <trkpt lat="41.3606460" lon="-8.7575080">
        <ele>8.6</ele>
        <time>2021-05-16T12:21:13Z</time>
      </trkpt>
      <trkpt lat="41.3606470" lon="-8.7575070">
        <ele>8.6</ele>
        <time>2021-05-16T12:21:14Z</time>
      </trkpt>
      <trkpt lat="41.3606480" lon="-8.7575090">
        <ele>8.6</ele>
        <time>2021-05-16T12:21:15Z</time>
      </trkpt>
      <trkpt lat="41.3606490" lon="-8.7575080">
        <ele>8.6</ele>
        <time>2021-05-16T12:21:16Z</time>
      </trkpt>
      <trkpt lat="41.3606490" lon="-8.7575090">
        <ele>8.6</ele>
        <time>2021-05-16T12:21:17Z</time>
      </trkpt>
      <trkpt lat="41.3606500" lon="-8.7575070">
        <ele>8.6</ele>
        <time>2021-05-16T12:21:18Z</time>
      </trkpt>
      <trkpt lat="41.3606500" lon="-8.7575060">
        <ele>8.6</ele>
        <time>2021-05-16T12:21:19Z</time>
      </trkpt>
      <trkpt lat="41.3606490" lon="-8.7575050">
        <ele>8.6</ele>
        <time>2021-05-16T12:21:20Z</time>
      </trkpt>
      <trkpt lat="41.3606510" lon="-8.7575040">
        <ele>8.6</ele>
        <time>2021-05-16T12:21:21Z</time>
      </trkpt>
      <trkpt lat="41.3606520" lon="-8.7575020">
        <ele>8.6</ele>
        <time>2021-05-16T12:21:22Z</time>
      </trkpt>
      <trkpt lat="41.3606510" lon="-8.7575020">
        <ele>8.6</ele>
        <time>2021-05-16T12:21:23Z</time>
      </trkpt>
      <trkpt lat="41.3606510" lon="-8.7574990">
        <ele>8.6</ele>
        <time>2021-05-16T12:21:24Z</time>
      </trkpt>
      <trkpt lat="41.3606500" lon="-8.7575000">
        <ele>8.6</ele>
        <time>2021-05-16T12:21:25Z</time>
      </trkpt>
      <trkpt lat="41.3606500" lon="-8.7575020">
        <ele>8.6</ele>
        <time>2021-05-16T12:21:26Z</time>
      </trkpt>
      <trkpt lat="41.3606490" lon="-8.7575010">
        <ele>8.6</ele>
        <time>2021-05-16T12:21:27Z</time>
      </trkpt>
      <trkpt lat="41.3606510" lon="-8.7575010">
        <ele>8.6</ele>
        <time>2021-05-16T12:21:28Z</time>
      </trkpt>
      <trkpt lat="41.3606500" lon="-8.7575030">
        <ele>8.6</ele>
        <time>2021-05-16T12:21:29Z</time>
      </trkpt>
      <trkpt lat="41.3606500" lon="-8.7575020">
        <ele>8.6</ele>
        <time>2021-05-16T12:21:30Z</time>
      </trkpt>
      <trkpt lat="41.3606500" lon="-8.7575000">
        <ele>8.6</ele>
        <time>2021-05-16T12:21:31Z</time>
      </trkpt>
      <trkpt lat="41.3606490" lon="-8.7575030">
        <ele>8.6</ele>
        <time>2021-05-16T12:21:32Z</time>
      </trkpt>
      <trkpt lat="41.3606490" lon="-8.7575040">
        <ele>8.6</ele>
        <time>2021-05-16T12:21:33Z</time>
      </trkpt>
      <trkpt lat="41.3606520" lon="-8.7575020">
        <ele>8.6</ele>
        <time>2021-05-16T12:21:34Z</time>
      </trkpt>
      <trkpt lat="41.3606520" lon="-8.7575040">
        <ele>8.6</ele>
        <time>2021-05-16T12:21:35Z</time>
      </trkpt>
      <trkpt lat="41.3606520" lon="-8.7575040">
        <ele>8.6</ele>
        <time>2021-05-16T12:21:36Z</time>
      </trkpt>
      <trkpt lat="41.3606520" lon="-8.7575030">
        <ele>8.6</ele>
        <time>2021-05-16T12:21:37Z</time>
      </trkpt>
      <trkpt lat="41.3606520" lon="-8.7575020">
        <ele>8.6</ele>
        <time>2021-05-16T12:21:38Z</time>
      </trkpt>
      <trkpt lat="41.3606540" lon="-8.7574980">
        <ele>8.6</ele>
        <time>2021-05-16T12:21:39Z</time>
      </trkpt>
      <trkpt lat="41.3606540" lon="-8.7574990">
        <ele>8.6</ele>
        <time>2021-05-16T12:21:40Z</time>
      </trkpt>
      <trkpt lat="41.3606530" lon="-8.7575000">
        <ele>8.6</ele>
        <time>2021-05-16T12:21:41Z</time>
      </trkpt>
      <trkpt lat="41.3606520" lon="-8.7574980">
        <ele>8.6</ele>
        <time>2021-05-16T12:21:42Z</time>
      </trkpt>
      <trkpt lat="41.3606520" lon="-8.7575010">
        <ele>8.6</ele>
        <time>2021-05-16T12:21:43Z</time>
      </trkpt>
      <trkpt lat="41.3606500" lon="-8.7575020">
        <ele>8.6</ele>
        <time>2021-05-16T12:21:44Z</time>
      </trkpt>
      <trkpt lat="41.3606500" lon="-8.7575030">
        <ele>8.6</ele>
        <time>2021-05-16T12:21:45Z</time>
      </trkpt>
      <trkpt lat="41.3606500" lon="-8.7575040">
        <ele>8.6</ele>
        <time>2021-05-16T12:21:46Z</time>
      </trkpt>
      <trkpt lat="41.3606490" lon="-8.7575060">
        <ele>8.6</ele>
        <time>2021-05-16T12:21:47Z</time>
      </trkpt>
      <trkpt lat="41.3606490" lon="-8.7575060">
        <ele>8.6</ele>
        <time>2021-05-16T12:21:48Z</time>
      </trkpt>
      <trkpt lat="41.3606480" lon="-8.7575050">
        <ele>8.6</ele>
        <time>2021-05-16T12:21:49Z</time>
      </trkpt>
      <trkpt lat="41.3606480" lon="-8.7575040">
        <ele>8.6</ele>
        <time>2021-05-16T12:21:50Z</time>
      </trkpt>
      <trkpt lat="41.3606480" lon="-8.7575070">
        <ele>8.6</ele>
        <time>2021-05-16T12:21:51Z</time>
      </trkpt>
      <trkpt lat="41.3606480" lon="-8.7575050">
        <ele>8.6</ele>
        <time>2021-05-16T12:21:52Z</time>
      </trkpt>
      <trkpt lat="41.3606490" lon="-8.7575040">
        <ele>8.6</ele>
        <time>2021-05-16T12:21:53Z</time>
      </trkpt>
      <trkpt lat="41.3606480" lon="-8.7575040">
        <ele>8.6</ele>
        <time>2021-05-16T12:21:54Z</time>
      </trkpt>
      <trkpt lat="41.3606470" lon="-8.7575030">
        <ele>8.6</ele>
        <time>2021-05-16T12:21:55Z</time>
      </trkpt>
      <trkpt lat="41.3606460" lon="-8.7575020">
        <ele>8.6</ele>
        <time>2021-05-16T12:21:56Z</time>
      </trkpt>
      <trkpt lat="41.3606470" lon="-8.7575010">
        <ele>8.6</ele>
        <time>2021-05-16T12:21:57Z</time>
      </trkpt>
      <trkpt lat="41.3606470" lon="-8.7575010">
        <ele>8.6</ele>
        <time>2021-05-16T12:21:58Z</time>
      </trkpt>
      <trkpt lat="41.3606470" lon="-8.7574990">
        <ele>8.6</ele>
        <time>2021-05-16T12:21:59Z</time>
      </trkpt>
      <trkpt lat="41.3606450" lon="-8.7574970">
        <ele>8.6</ele>
        <time>2021-05-16T12:22:00Z</time>
      </trkpt>
      <trkpt lat="41.3606440" lon="-8.7574950">
        <ele>8.6</ele>
        <time>2021-05-16T12:22:01Z</time>
      </trkpt>
      <trkpt lat="41.3606430" lon="-8.7574930">
        <ele>8.6</ele>
        <time>2021-05-16T12:22:02Z</time>
      </trkpt>
      <trkpt lat="41.3606440" lon="-8.7574910">
        <ele>8.6</ele>
        <time>2021-05-16T12:22:03Z</time>
      </trkpt>
      <trkpt lat="41.3606430" lon="-8.7574920">
        <ele>8.6</ele>
        <time>2021-05-16T12:22:04Z</time>
      </trkpt>
      <trkpt lat="41.3606430" lon="-8.7574920">
        <ele>8.6</ele>
        <time>2021-05-16T12:22:05Z</time>
      </trkpt>
      <trkpt lat="41.3606420" lon="-8.7574930">
        <ele>8.6</ele>
        <time>2021-05-16T12:22:06Z</time>
      </trkpt>
      <trkpt lat="41.3606400" lon="-8.7574940">
        <ele>8.6</ele>
        <time>2021-05-16T12:22:08Z</time>
      </trkpt>
      <trkpt lat="41.3606380" lon="-8.7574940">
        <ele>8.6</ele>
        <time>2021-05-16T12:22:09Z</time>
      </trkpt>
      <trkpt lat="41.3606390" lon="-8.7574950">
        <ele>8.6</ele>
        <time>2021-05-16T12:22:10Z</time>
      </trkpt>
      <trkpt lat="41.3606400" lon="-8.7574920">
        <ele>8.6</ele>
        <time>2021-05-16T12:22:11Z</time>
      </trkpt>
      <trkpt lat="41.3606420" lon="-8.7574910">
        <ele>8.6</ele>
        <time>2021-05-16T12:22:12Z</time>
      </trkpt>
      <trkpt lat="41.3606410" lon="-8.7574890">
        <ele>8.6</ele>
        <time>2021-05-16T12:22:13Z</time>
      </trkpt>
      <trkpt lat="41.3606420" lon="-8.7574880">
        <ele>8.6</ele>
        <time>2021-05-16T12:22:14Z</time>
      </trkpt>
      <trkpt lat="41.3606400" lon="-8.7574890">
        <ele>8.6</ele>
        <time>2021-05-16T12:22:15Z</time>
      </trkpt>
      <trkpt lat="41.3606390" lon="-8.7574890">
        <ele>8.6</ele>
        <time>2021-05-16T12:22:16Z</time>
      </trkpt>
      <trkpt lat="41.3606390" lon="-8.7574870">
        <ele>8.6</ele>
        <time>2021-05-16T12:22:17Z</time>
      </trkpt>
      <trkpt lat="41.3606360" lon="-8.7574910">
        <ele>8.6</ele>
        <time>2021-05-16T12:22:18Z</time>
      </trkpt>
      <trkpt lat="41.3606370" lon="-8.7574900">
        <ele>8.6</ele>
        <time>2021-05-16T12:22:19Z</time>
      </trkpt>
      <trkpt lat="41.3606350" lon="-8.7574870">
        <ele>8.6</ele>
        <time>2021-05-16T12:22:20Z</time>
      </trkpt>
      <trkpt lat="41.3606370" lon="-8.7574840">
        <ele>8.6</ele>
        <time>2021-05-16T12:22:21Z</time>
      </trkpt>
      <trkpt lat="41.3606360" lon="-8.7574840">
        <ele>8.6</ele>
        <time>2021-05-16T12:22:22Z</time>
      </trkpt>
      <trkpt lat="41.3606350" lon="-8.7574840">
        <ele>8.6</ele>
        <time>2021-05-16T12:22:23Z</time>
      </trkpt>
      <trkpt lat="41.3606350" lon="-8.7574830">
        <ele>8.6</ele>
        <time>2021-05-16T12:22:24Z</time>
      </trkpt>
      <trkpt lat="41.3606350" lon="-8.7574830">
        <ele>8.6</ele>
        <time>2021-05-16T12:22:25Z</time>
      </trkpt>
      <trkpt lat="41.3606330" lon="-8.7574840">
        <ele>8.6</ele>
        <time>2021-05-16T12:22:26Z</time>
      </trkpt>
      <trkpt lat="41.3606320" lon="-8.7574860">
        <ele>8.6</ele>
        <time>2021-05-16T12:22:27Z</time>
      </trkpt>
      <trkpt lat="41.3606320" lon="-8.7574870">
        <ele>8.6</ele>
        <time>2021-05-16T12:22:28Z</time>
      </trkpt>
      <trkpt lat="41.3606330" lon="-8.7574890">
        <ele>8.6</ele>
        <time>2021-05-16T12:22:29Z</time>
      </trkpt>
      <trkpt lat="41.3606340" lon="-8.7574900">
        <ele>8.6</ele>
        <time>2021-05-16T12:22:30Z</time>
      </trkpt>
      <trkpt lat="41.3606340" lon="-8.7574930">
        <ele>8.6</ele>
        <time>2021-05-16T12:22:31Z</time>
      </trkpt>
      <trkpt lat="41.3606350" lon="-8.7574920">
        <ele>8.6</ele>
        <time>2021-05-16T12:22:32Z</time>
      </trkpt>
      <trkpt lat="41.3606350" lon="-8.7574920">
        <ele>8.6</ele>
        <time>2021-05-16T12:22:33Z</time>
      </trkpt>
      <trkpt lat="41.3606340" lon="-8.7574940">
        <ele>8.6</ele>
        <time>2021-05-16T12:22:34Z</time>
      </trkpt>
      <trkpt lat="41.3606340" lon="-8.7574950">
        <ele>8.6</ele>
        <time>2021-05-16T12:22:35Z</time>
      </trkpt>
      <trkpt lat="41.3606350" lon="-8.7574940">
        <ele>8.6</ele>
        <time>2021-05-16T12:22:36Z</time>
      </trkpt>
      <trkpt lat="41.3606360" lon="-8.7574930">
        <ele>8.6</ele>
        <time>2021-05-16T12:22:37Z</time>
      </trkpt>
      <trkpt lat="41.3606360" lon="-8.7574900">
        <ele>8.6</ele>
        <time>2021-05-16T12:22:38Z</time>
      </trkpt>
      <trkpt lat="41.3606340" lon="-8.7574900">
        <ele>8.6</ele>
        <time>2021-05-16T12:22:39Z</time>
      </trkpt>
      <trkpt lat="41.3606310" lon="-8.7574890">
        <ele>8.6</ele>
        <time>2021-05-16T12:22:40Z</time>
      </trkpt>
      <trkpt lat="41.3606360" lon="-8.7574970">
        <ele>8.6</ele>
        <time>2021-05-16T12:22:41Z</time>
      </trkpt>
      <trkpt lat="41.3606370" lon="-8.7574970">
        <ele>8.6</ele>
        <time>2021-05-16T12:22:42Z</time>
      </trkpt>
      <trkpt lat="41.3606370" lon="-8.7574970">
        <ele>8.6</ele>
        <time>2021-05-16T12:22:43Z</time>
      </trkpt>
      <trkpt lat="41.3606370" lon="-8.7574970">
        <ele>8.6</ele>
        <time>2021-05-16T12:22:44Z</time>
      </trkpt>
      <trkpt lat="41.3606370" lon="-8.7574970">
        <ele>8.6</ele>
        <time>2021-05-16T12:22:45Z</time>
      </trkpt>
      <trkpt lat="41.3606370" lon="-8.7574970">
        <ele>8.6</ele>
        <time>2021-05-16T12:22:46Z</time>
      </trkpt>
      <trkpt lat="41.3606370" lon="-8.7574970">
        <ele>8.6</ele>
        <time>2021-05-16T12:22:47Z</time>
      </trkpt>
      <trkpt lat="41.3606370" lon="-8.7574970">
        <ele>8.6</ele>
        <time>2021-05-16T12:22:48Z</time>
      </trkpt>
      <trkpt lat="41.3606370" lon="-8.7574970">
        <ele>8.6</ele>
        <time>2021-05-16T12:22:49Z</time>
      </trkpt>
      <trkpt lat="41.3606370" lon="-8.7574970">
        <ele>8.6</ele>
        <time>2021-05-16T12:22:50Z</time>
      </trkpt>
      <trkpt lat="41.3606370" lon="-8.7574970">
        <ele>8.6</ele>
        <time>2021-05-16T12:22:51Z</time>
      </trkpt>
      <trkpt lat="41.3606370" lon="-8.7574970">
        <ele>8.6</ele>
        <time>2021-05-16T12:22:52Z</time>
      </trkpt>
      <trkpt lat="41.3606370" lon="-8.7574970">
        <ele>8.6</ele>
        <time>2021-05-16T12:22:53Z</time>
      </trkpt>
      <trkpt lat="41.3606370" lon="-8.7574970">
        <ele>8.6</ele>
        <time>2021-05-16T12:22:54Z</time>
      </trkpt>
      <trkpt lat="41.3606370" lon="-8.7574970">
        <ele>8.6</ele>
        <time>2021-05-16T12:22:55Z</time>
      </trkpt>
      <trkpt lat="41.3606370" lon="-8.7574970">
        <ele>8.6</ele>
        <time>2021-05-16T12:22:56Z</time>
      </trkpt>
      <trkpt lat="41.3606370" lon="-8.7574970">
        <ele>8.6</ele>
        <time>2021-05-16T12:22:57Z</time>
      </trkpt>
      <trkpt lat="41.3606370" lon="-8.7574970">
        <ele>8.6</ele>
        <time>2021-05-16T12:22:58Z</time>
      </trkpt>
      <trkpt lat="41.3606370" lon="-8.7574970">
        <ele>8.6</ele>
        <time>2021-05-16T12:22:59Z</time>
      </trkpt>
      <trkpt lat="41.3606370" lon="-8.7574970">
        <ele>8.6</ele>
        <time>2021-05-16T12:23:00Z</time>
      </trkpt>
      <trkpt lat="41.3606370" lon="-8.7574970">
        <ele>8.6</ele>
        <time>2021-05-16T12:23:01Z</time>
      </trkpt>
      <trkpt lat="41.3606370" lon="-8.7574970">
        <ele>8.6</ele>
        <time>2021-05-16T12:23:02Z</time>
      </trkpt>
      <trkpt lat="41.3606370" lon="-8.7574970">
        <ele>8.6</ele>
        <time>2021-05-16T12:23:03Z</time>
      </trkpt>
      <trkpt lat="41.3606370" lon="-8.7574970">
        <ele>8.6</ele>
        <time>2021-05-16T12:23:04Z</time>
      </trkpt>
      <trkpt lat="41.3606370" lon="-8.7574970">
        <ele>8.6</ele>
        <time>2021-05-16T12:23:05Z</time>
      </trkpt>
      <trkpt lat="41.3606370" lon="-8.7574970">
        <ele>8.6</ele>
        <time>2021-05-16T12:23:06Z</time>
      </trkpt>
      <trkpt lat="41.3606370" lon="-8.7574970">
        <ele>8.6</ele>
        <time>2021-05-16T12:23:07Z</time>
      </trkpt>
      <trkpt lat="41.3606370" lon="-8.7574970">
        <ele>8.6</ele>
        <time>2021-05-16T12:23:08Z</time>
      </trkpt>
      <trkpt lat="41.3606370" lon="-8.7574970">
        <ele>8.6</ele>
        <time>2021-05-16T12:23:09Z</time>
      </trkpt>
      <trkpt lat="41.3606370" lon="-8.7574970">
        <ele>8.6</ele>
        <time>2021-05-16T12:23:10Z</time>
      </trkpt>
      <trkpt lat="41.3606370" lon="-8.7574970">
        <ele>8.6</ele>
        <time>2021-05-16T12:23:11Z</time>
      </trkpt>
      <trkpt lat="41.3606370" lon="-8.7574970">
        <ele>8.6</ele>
        <time>2021-05-16T12:23:12Z</time>
      </trkpt>
      <trkpt lat="41.3606370" lon="-8.7574970">
        <ele>8.6</ele>
        <time>2021-05-16T12:23:13Z</time>
      </trkpt>
      <trkpt lat="41.3606370" lon="-8.7574970">
        <ele>8.6</ele>
        <time>2021-05-16T12:23:14Z</time>
      </trkpt>
      <trkpt lat="41.3606370" lon="-8.7574970">
        <ele>8.6</ele>
        <time>2021-05-16T12:23:15Z</time>
      </trkpt>
      <trkpt lat="41.3606370" lon="-8.7574970">
        <ele>8.6</ele>
        <time>2021-05-16T12:23:16Z</time>
      </trkpt>
      <trkpt lat="41.3606370" lon="-8.7574970">
        <ele>8.6</ele>
        <time>2021-05-16T12:23:17Z</time>
      </trkpt>
      <trkpt lat="41.3606370" lon="-8.7574970">
        <ele>8.6</ele>
        <time>2021-05-16T12:23:18Z</time>
      </trkpt>
      <trkpt lat="41.3606370" lon="-8.7574970">
        <ele>8.6</ele>
        <time>2021-05-16T12:23:19Z</time>
      </trkpt>
      <trkpt lat="41.3606370" lon="-8.7574970">
        <ele>8.6</ele>
        <time>2021-05-16T12:23:20Z</time>
      </trkpt>
      <trkpt lat="41.3606370" lon="-8.7574970">
        <ele>8.6</ele>
        <time>2021-05-16T12:23:21Z</time>
      </trkpt>
      <trkpt lat="41.3606370" lon="-8.7574970">
        <ele>8.6</ele>
        <time>2021-05-16T12:23:22Z</time>
      </trkpt>
      <trkpt lat="41.3606370" lon="-8.7574970">
        <ele>8.6</ele>
        <time>2021-05-16T12:23:23Z</time>
      </trkpt>
      <trkpt lat="41.3606370" lon="-8.7574970">
        <ele>8.6</ele>
        <time>2021-05-16T12:23:24Z</time>
      </trkpt>
      <trkpt lat="41.3606370" lon="-8.7574970">
        <ele>8.6</ele>
        <time>2021-05-16T12:23:25Z</time>
      </trkpt>
      <trkpt lat="41.3606370" lon="-8.7574970">
        <ele>8.6</ele>
        <time>2021-05-16T12:23:26Z</time>
      </trkpt>
      <trkpt lat="41.3606370" lon="-8.7574970">
        <ele>8.6</ele>
        <time>2021-05-16T12:23:27Z</time>
      </trkpt>
      <trkpt lat="41.3606370" lon="-8.7574970">
        <ele>8.6</ele>
        <time>2021-05-16T12:23:28Z</time>
      </trkpt>
      <trkpt lat="41.3606370" lon="-8.7574970">
        <ele>8.6</ele>
        <time>2021-05-16T12:23:29Z</time>
      </trkpt>
      <trkpt lat="41.3606370" lon="-8.7574970">
        <ele>8.6</ele>
        <time>2021-05-16T12:23:30Z</time>
      </trkpt>
      <trkpt lat="41.3606370" lon="-8.7574970">
        <ele>8.6</ele>
        <time>2021-05-16T12:23:31Z</time>
      </trkpt>
      <trkpt lat="41.3606370" lon="-8.7574970">
        <ele>8.6</ele>
        <time>2021-05-16T12:23:32Z</time>
      </trkpt>
      <trkpt lat="41.3606370" lon="-8.7574970">
        <ele>8.6</ele>
        <time>2021-05-16T12:23:33Z</time>
      </trkpt>
      <trkpt lat="41.3606370" lon="-8.7574970">
        <ele>8.6</ele>
        <time>2021-05-16T12:23:34Z</time>
      </trkpt>
      <trkpt lat="41.3606370" lon="-8.7574970">
        <ele>8.6</ele>
        <time>2021-05-16T12:23:35Z</time>
      </trkpt>
      <trkpt lat="41.3606370" lon="-8.7574970">
        <ele>8.6</ele>
        <time>2021-05-16T12:23:36Z</time>
      </trkpt>
      <trkpt lat="41.3606370" lon="-8.7574970">
        <ele>8.6</ele>
        <time>2021-05-16T12:23:37Z</time>
      </trkpt>
      <trkpt lat="41.3606370" lon="-8.7574970">
        <ele>8.6</ele>
        <time>2021-05-16T12:23:38Z</time>
      </trkpt>
      <trkpt lat="41.3606370" lon="-8.7574970">
        <ele>8.6</ele>
        <time>2021-05-16T12:23:39Z</time>
      </trkpt>
      <trkpt lat="41.3606370" lon="-8.7574970">
        <ele>8.6</ele>
        <time>2021-05-16T12:23:40Z</time>
      </trkpt>
      <trkpt lat="41.3606370" lon="-8.7574970">
        <ele>8.6</ele>
        <time>2021-05-16T12:23:41Z</time>
      </trkpt>
      <trkpt lat="41.3606370" lon="-8.7574970">
        <ele>8.6</ele>
        <time>2021-05-16T12:23:42Z</time>
      </trkpt>
      <trkpt lat="41.3606370" lon="-8.7574970">
        <ele>8.6</ele>
        <time>2021-05-16T12:23:43Z</time>
      </trkpt>
      <trkpt lat="41.3606370" lon="-8.7574970">
        <ele>8.6</ele>
        <time>2021-05-16T12:23:44Z</time>
      </trkpt>
      <trkpt lat="41.3606370" lon="-8.7574970">
        <ele>8.6</ele>
        <time>2021-05-16T12:23:45Z</time>
      </trkpt>
      <trkpt lat="41.3606370" lon="-8.7574970">
        <ele>8.6</ele>
        <time>2021-05-16T12:23:46Z</time>
      </trkpt>
      <trkpt lat="41.3606370" lon="-8.7574970">
        <ele>8.6</ele>
        <time>2021-05-16T12:23:47Z</time>
      </trkpt>
      <trkpt lat="41.3606370" lon="-8.7574970">
        <ele>8.6</ele>
        <time>2021-05-16T12:23:48Z</time>
      </trkpt>
      <trkpt lat="41.3606370" lon="-8.7574970">
        <ele>8.6</ele>
        <time>2021-05-16T12:23:49Z</time>
      </trkpt>
      <trkpt lat="41.3606370" lon="-8.7574970">
        <ele>8.6</ele>
        <time>2021-05-16T12:23:50Z</time>
      </trkpt>
      <trkpt lat="41.3606370" lon="-8.7574970">
        <ele>8.6</ele>
        <time>2021-05-16T12:23:51Z</time>
      </trkpt>
      <trkpt lat="41.3606370" lon="-8.7574970">
        <ele>8.6</ele>
        <time>2021-05-16T12:23:52Z</time>
      </trkpt>
      <trkpt lat="41.3606370" lon="-8.7574970">
        <ele>8.6</ele>
        <time>2021-05-16T12:23:53Z</time>
      </trkpt>
      <trkpt lat="41.3606370" lon="-8.7574970">
        <ele>8.6</ele>
        <time>2021-05-16T12:23:54Z</time>
      </trkpt>
      <trkpt lat="41.3606370" lon="-8.7574970">
        <ele>8.6</ele>
        <time>2021-05-16T12:23:55Z</time>
      </trkpt>
      <trkpt lat="41.3606370" lon="-8.7574970">
        <ele>8.6</ele>
        <time>2021-05-16T12:23:56Z</time>
      </trkpt>
      <trkpt lat="41.3606370" lon="-8.7574970">
        <ele>8.6</ele>
        <time>2021-05-16T12:23:57Z</time>
      </trkpt>
      <trkpt lat="41.3606370" lon="-8.7574970">
        <ele>8.6</ele>
        <time>2021-05-16T12:23:58Z</time>
      </trkpt>
      <trkpt lat="41.3606370" lon="-8.7574970">
        <ele>8.6</ele>
        <time>2021-05-16T12:23:59Z</time>
      </trkpt>
      <trkpt lat="41.3606370" lon="-8.7574970">
        <ele>8.6</ele>
        <time>2021-05-16T12:24:00Z</time>
      </trkpt>
      <trkpt lat="41.3606370" lon="-8.7574970">
        <ele>8.6</ele>
        <time>2021-05-16T12:24:01Z</time>
      </trkpt>
      <trkpt lat="41.3606370" lon="-8.7574970">
        <ele>8.6</ele>
        <time>2021-05-16T12:24:02Z</time>
      </trkpt>
      <trkpt lat="41.3606370" lon="-8.7574970">
        <ele>8.6</ele>
        <time>2021-05-16T12:24:03Z</time>
      </trkpt>
      <trkpt lat="41.3606370" lon="-8.7574970">
        <ele>8.6</ele>
        <time>2021-05-16T12:24:04Z</time>
      </trkpt>
      <trkpt lat="41.3606370" lon="-8.7574970">
        <ele>8.6</ele>
        <time>2021-05-16T12:24:05Z</time>
      </trkpt>
      <trkpt lat="41.3606370" lon="-8.7574970">
        <ele>8.6</ele>
        <time>2021-05-16T12:24:06Z</time>
      </trkpt>
      <trkpt lat="41.3606370" lon="-8.7574970">
        <ele>8.6</ele>
        <time>2021-05-16T12:24:07Z</time>
      </trkpt>
      <trkpt lat="41.3606370" lon="-8.7574970">
        <ele>8.6</ele>
        <time>2021-05-16T12:24:08Z</time>
      </trkpt>
      <trkpt lat="41.3606370" lon="-8.7574970">
        <ele>8.6</ele>
        <time>2021-05-16T12:24:09Z</time>
      </trkpt>
      <trkpt lat="41.3606370" lon="-8.7574970">
        <ele>8.6</ele>
        <time>2021-05-16T12:24:10Z</time>
      </trkpt>
      <trkpt lat="41.3606370" lon="-8.7574970">
        <ele>8.6</ele>
        <time>2021-05-16T12:24:11Z</time>
      </trkpt>
      <trkpt lat="41.3606370" lon="-8.7574970">
        <ele>8.6</ele>
        <time>2021-05-16T12:24:12Z</time>
      </trkpt>
      <trkpt lat="41.3606370" lon="-8.7574970">
        <ele>8.6</ele>
        <time>2021-05-16T12:24:13Z</time>
      </trkpt>
      <trkpt lat="41.3606370" lon="-8.7574970">
        <ele>8.6</ele>
        <time>2021-05-16T12:24:14Z</time>
      </trkpt>
      <trkpt lat="41.3606370" lon="-8.7574970">
        <ele>8.6</ele>
        <time>2021-05-16T12:24:16Z</time>
      </trkpt>
      <trkpt lat="41.3606370" lon="-8.7574970">
        <ele>8.6</ele>
        <time>2021-05-16T12:24:17Z</time>
      </trkpt>
      <trkpt lat="41.3606370" lon="-8.7574970">
        <ele>8.6</ele>
        <time>2021-05-16T12:24:18Z</time>
      </trkpt>
      <trkpt lat="41.3606370" lon="-8.7574970">
        <ele>8.6</ele>
        <time>2021-05-16T12:24:19Z</time>
      </trkpt>
      <trkpt lat="41.3606370" lon="-8.7574970">
        <ele>8.6</ele>
        <time>2021-05-16T12:24:20Z</time>
      </trkpt>
      <trkpt lat="41.3606370" lon="-8.7574970">
        <ele>8.6</ele>
        <time>2021-05-16T12:24:21Z</time>
      </trkpt>
      <trkpt lat="41.3606370" lon="-8.7574970">
        <ele>8.6</ele>
        <time>2021-05-16T12:24:22Z</time>
      </trkpt>
      <trkpt lat="41.3606370" lon="-8.7574970">
        <ele>8.6</ele>
        <time>2021-05-16T12:24:23Z</time>
      </trkpt>
      <trkpt lat="41.3606370" lon="-8.7574970">
        <ele>8.6</ele>
        <time>2021-05-16T12:24:24Z</time>
      </trkpt>
      <trkpt lat="41.3606370" lon="-8.7574970">
        <ele>8.6</ele>
        <time>2021-05-16T12:24:25Z</time>
      </trkpt>
      <trkpt lat="41.3606370" lon="-8.7574970">
        <ele>8.6</ele>
        <time>2021-05-16T12:24:26Z</time>
      </trkpt>
      <trkpt lat="41.3606370" lon="-8.7574970">
        <ele>8.6</ele>
        <time>2021-05-16T12:24:27Z</time>
      </trkpt>
      <trkpt lat="41.3606370" lon="-8.7574970">
        <ele>8.6</ele>
        <time>2021-05-16T12:24:28Z</time>
      </trkpt>
      <trkpt lat="41.3606370" lon="-8.7574970">
        <ele>8.6</ele>
        <time>2021-05-16T12:24:29Z</time>
      </trkpt>
      <trkpt lat="41.3606370" lon="-8.7574970">
        <ele>8.6</ele>
        <time>2021-05-16T12:24:30Z</time>
      </trkpt>
      <trkpt lat="41.3606370" lon="-8.7574970">
        <ele>8.6</ele>
        <time>2021-05-16T12:24:31Z</time>
      </trkpt>
      <trkpt lat="41.3606370" lon="-8.7574970">
        <ele>8.6</ele>
        <time>2021-05-16T12:24:32Z</time>
      </trkpt>
      <trkpt lat="41.3606370" lon="-8.7574970">
        <ele>8.6</ele>
        <time>2021-05-16T12:24:33Z</time>
      </trkpt>
      <trkpt lat="41.3606370" lon="-8.7574970">
        <ele>8.6</ele>
        <time>2021-05-16T12:24:34Z</time>
      </trkpt>
      <trkpt lat="41.3606370" lon="-8.7574970">
        <ele>8.6</ele>
        <time>2021-05-16T12:24:35Z</time>
      </trkpt>
      <trkpt lat="41.3606370" lon="-8.7574970">
        <ele>8.6</ele>
        <time>2021-05-16T12:24:36Z</time>
      </trkpt>
      <trkpt lat="41.3606370" lon="-8.7574970">
        <ele>8.6</ele>
        <time>2021-05-16T12:24:37Z</time>
      </trkpt>
      <trkpt lat="41.3606370" lon="-8.7574970">
        <ele>8.6</ele>
        <time>2021-05-16T12:24:38Z</time>
      </trkpt>
      <trkpt lat="41.3606370" lon="-8.7574970">
        <ele>8.6</ele>
        <time>2021-05-16T12:24:39Z</time>
      </trkpt>
      <trkpt lat="41.3606370" lon="-8.7574970">
        <ele>8.6</ele>
        <time>2021-05-16T12:24:40Z</time>
      </trkpt>
      <trkpt lat="41.3606370" lon="-8.7574970">
        <ele>8.6</ele>
        <time>2021-05-16T12:24:41Z</time>
      </trkpt>
      <trkpt lat="41.3606370" lon="-8.7574970">
        <ele>8.6</ele>
        <time>2021-05-16T12:24:42Z</time>
      </trkpt>
      <trkpt lat="41.3606370" lon="-8.7574970">
        <ele>8.6</ele>
        <time>2021-05-16T12:24:43Z</time>
      </trkpt>
      <trkpt lat="41.3606370" lon="-8.7574970">
        <ele>8.6</ele>
        <time>2021-05-16T12:24:44Z</time>
      </trkpt>
      <trkpt lat="41.3606370" lon="-8.7574970">
        <ele>8.6</ele>
        <time>2021-05-16T12:24:45Z</time>
      </trkpt>
      <trkpt lat="41.3606370" lon="-8.7574970">
        <ele>8.6</ele>
        <time>2021-05-16T12:24:46Z</time>
      </trkpt>
      <trkpt lat="41.3606370" lon="-8.7574970">
        <ele>8.6</ele>
        <time>2021-05-16T12:24:47Z</time>
      </trkpt>
      <trkpt lat="41.3606370" lon="-8.7574970">
        <ele>8.6</ele>
        <time>2021-05-16T12:24:48Z</time>
      </trkpt>
      <trkpt lat="41.3606370" lon="-8.7574970">
        <ele>8.6</ele>
        <time>2021-05-16T12:24:49Z</time>
      </trkpt>
      <trkpt lat="41.3606370" lon="-8.7574970">
        <ele>8.6</ele>
        <time>2021-05-16T12:24:50Z</time>
      </trkpt>
      <trkpt lat="41.3606370" lon="-8.7574970">
        <ele>8.6</ele>
        <time>2021-05-16T12:24:51Z</time>
      </trkpt>
      <trkpt lat="41.3606370" lon="-8.7574970">
        <ele>8.6</ele>
        <time>2021-05-16T12:24:52Z</time>
      </trkpt>
      <trkpt lat="41.3606370" lon="-8.7574970">
        <ele>8.6</ele>
        <time>2021-05-16T12:24:53Z</time>
      </trkpt>
      <trkpt lat="41.3606370" lon="-8.7574970">
        <ele>8.6</ele>
        <time>2021-05-16T12:24:54Z</time>
      </trkpt>
      <trkpt lat="41.3606370" lon="-8.7574970">
        <ele>8.6</ele>
        <time>2021-05-16T12:24:55Z</time>
      </trkpt>
      <trkpt lat="41.3606370" lon="-8.7574970">
        <ele>8.6</ele>
        <time>2021-05-16T12:24:56Z</time>
      </trkpt>
      <trkpt lat="41.3606370" lon="-8.7574970">
        <ele>8.6</ele>
        <time>2021-05-16T12:24:57Z</time>
      </trkpt>
      <trkpt lat="41.3606370" lon="-8.7574970">
        <ele>8.6</ele>
        <time>2021-05-16T12:24:58Z</time>
      </trkpt>
      <trkpt lat="41.3606370" lon="-8.7574970">
        <ele>8.6</ele>
        <time>2021-05-16T12:24:59Z</time>
      </trkpt>
      <trkpt lat="41.3606370" lon="-8.7574970">
        <ele>8.6</ele>
        <time>2021-05-16T12:25:00Z</time>
      </trkpt>
      <trkpt lat="41.3606370" lon="-8.7574970">
        <ele>8.6</ele>
        <time>2021-05-16T12:25:01Z</time>
      </trkpt>
      <trkpt lat="41.3606370" lon="-8.7574970">
        <ele>8.6</ele>
        <time>2021-05-16T12:25:02Z</time>
      </trkpt>
      <trkpt lat="41.3606370" lon="-8.7574970">
        <ele>8.6</ele>
        <time>2021-05-16T12:25:03Z</time>
      </trkpt>
      <trkpt lat="41.3606370" lon="-8.7574970">
        <ele>8.6</ele>
        <time>2021-05-16T12:25:04Z</time>
      </trkpt>
      <trkpt lat="41.3606370" lon="-8.7574970">
        <ele>8.6</ele>
        <time>2021-05-16T12:25:05Z</time>
      </trkpt>
      <trkpt lat="41.3606370" lon="-8.7574970">
        <ele>8.6</ele>
        <time>2021-05-16T12:25:06Z</time>
      </trkpt>
      <trkpt lat="41.3606370" lon="-8.7574970">
        <ele>8.6</ele>
        <time>2021-05-16T12:25:07Z</time>
      </trkpt>
      <trkpt lat="41.3606370" lon="-8.7574970">
        <ele>8.6</ele>
        <time>2021-05-16T12:25:08Z</time>
      </trkpt>
      <trkpt lat="41.3606370" lon="-8.7574970">
        <ele>8.6</ele>
        <time>2021-05-16T12:25:09Z</time>
      </trkpt>
      <trkpt lat="41.3606370" lon="-8.7574970">
        <ele>8.6</ele>
        <time>2021-05-16T12:25:10Z</time>
      </trkpt>
      <trkpt lat="41.3606370" lon="-8.7574970">
        <ele>8.6</ele>
        <time>2021-05-16T12:25:11Z</time>
      </trkpt>
      <trkpt lat="41.3606370" lon="-8.7574970">
        <ele>8.6</ele>
        <time>2021-05-16T12:25:12Z</time>
      </trkpt>
      <trkpt lat="41.3606370" lon="-8.7574970">
        <ele>8.6</ele>
        <time>2021-05-16T12:25:13Z</time>
      </trkpt>
      <trkpt lat="41.3606370" lon="-8.7574970">
        <ele>8.6</ele>
        <time>2021-05-16T12:25:14Z</time>
      </trkpt>
      <trkpt lat="41.3606370" lon="-8.7574970">
        <ele>8.6</ele>
        <time>2021-05-16T12:25:15Z</time>
      </trkpt>
      <trkpt lat="41.3606370" lon="-8.7574970">
        <ele>8.6</ele>
        <time>2021-05-16T12:25:16Z</time>
      </trkpt>
      <trkpt lat="41.3606370" lon="-8.7574970">
        <ele>8.6</ele>
        <time>2021-05-16T12:25:17Z</time>
      </trkpt>
      <trkpt lat="41.3606370" lon="-8.7574970">
        <ele>8.6</ele>
        <time>2021-05-16T12:25:18Z</time>
      </trkpt>
      <trkpt lat="41.3606370" lon="-8.7574970">
        <ele>8.6</ele>
        <time>2021-05-16T12:25:19Z</time>
      </trkpt>
      <trkpt lat="41.3606370" lon="-8.7574970">
        <ele>8.6</ele>
        <time>2021-05-16T12:25:20Z</time>
      </trkpt>
      <trkpt lat="41.3606370" lon="-8.7574970">
        <ele>8.6</ele>
        <time>2021-05-16T12:25:21Z</time>
      </trkpt>
      <trkpt lat="41.3606370" lon="-8.7574970">
        <ele>8.6</ele>
        <time>2021-05-16T12:25:22Z</time>
      </trkpt>
      <trkpt lat="41.3606370" lon="-8.7574970">
        <ele>8.6</ele>
        <time>2021-05-16T12:25:23Z</time>
      </trkpt>
      <trkpt lat="41.3606370" lon="-8.7574970">
        <ele>8.6</ele>
        <time>2021-05-16T12:25:24Z</time>
      </trkpt>
      <trkpt lat="41.3606370" lon="-8.7574970">
        <ele>8.6</ele>
        <time>2021-05-16T12:25:25Z</time>
      </trkpt>
      <trkpt lat="41.3606370" lon="-8.7574970">
        <ele>8.6</ele>
        <time>2021-05-16T12:25:26Z</time>
      </trkpt>
      <trkpt lat="41.3606370" lon="-8.7574970">
        <ele>8.6</ele>
        <time>2021-05-16T12:25:27Z</time>
      </trkpt>
      <trkpt lat="41.3606370" lon="-8.7574970">
        <ele>8.6</ele>
        <time>2021-05-16T12:25:28Z</time>
      </trkpt>
      <trkpt lat="41.3606370" lon="-8.7574970">
        <ele>8.6</ele>
        <time>2021-05-16T12:25:29Z</time>
      </trkpt>
      <trkpt lat="41.3606370" lon="-8.7574970">
        <ele>8.6</ele>
        <time>2021-05-16T12:25:30Z</time>
      </trkpt>
      <trkpt lat="41.3606370" lon="-8.7574970">
        <ele>8.6</ele>
        <time>2021-05-16T12:25:31Z</time>
      </trkpt>
      <trkpt lat="41.3606370" lon="-8.7574970">
        <ele>8.6</ele>
        <time>2021-05-16T12:25:32Z</time>
      </trkpt>
      <trkpt lat="41.3606370" lon="-8.7574970">
        <ele>8.6</ele>
        <time>2021-05-16T12:25:33Z</time>
      </trkpt>
      <trkpt lat="41.3606370" lon="-8.7574970">
        <ele>8.6</ele>
        <time>2021-05-16T12:25:34Z</time>
      </trkpt>
      <trkpt lat="41.3606370" lon="-8.7574970">
        <ele>8.6</ele>
        <time>2021-05-16T12:25:35Z</time>
      </trkpt>
      <trkpt lat="41.3606370" lon="-8.7574970">
        <ele>8.6</ele>
        <time>2021-05-16T12:25:36Z</time>
      </trkpt>
      <trkpt lat="41.3606370" lon="-8.7574970">
        <ele>8.6</ele>
        <time>2021-05-16T12:25:37Z</time>
      </trkpt>
      <trkpt lat="41.3606370" lon="-8.7574970">
        <ele>8.6</ele>
        <time>2021-05-16T12:25:38Z</time>
      </trkpt>
      <trkpt lat="41.3606370" lon="-8.7574970">
        <ele>8.6</ele>
        <time>2021-05-16T12:25:39Z</time>
      </trkpt>
      <trkpt lat="41.3606370" lon="-8.7574970">
        <ele>8.6</ele>
        <time>2021-05-16T12:25:40Z</time>
      </trkpt>
      <trkpt lat="41.3606370" lon="-8.7574970">
        <ele>8.6</ele>
        <time>2021-05-16T12:25:41Z</time>
      </trkpt>
      <trkpt lat="41.3606370" lon="-8.7574970">
        <ele>8.6</ele>
        <time>2021-05-16T12:25:42Z</time>
      </trkpt>
      <trkpt lat="41.3606370" lon="-8.7574970">
        <ele>8.6</ele>
        <time>2021-05-16T12:25:43Z</time>
      </trkpt>
      <trkpt lat="41.3606370" lon="-8.7574970">
        <ele>8.6</ele>
        <time>2021-05-16T12:25:44Z</time>
      </trkpt>
      <trkpt lat="41.3606370" lon="-8.7574970">
        <ele>8.6</ele>
        <time>2021-05-16T12:25:45Z</time>
      </trkpt>
      <trkpt lat="41.3606370" lon="-8.7574970">
        <ele>8.6</ele>
        <time>2021-05-16T12:25:46Z</time>
      </trkpt>
      <trkpt lat="41.3606370" lon="-8.7574970">
        <ele>8.6</ele>
        <time>2021-05-16T12:25:47Z</time>
      </trkpt>
      <trkpt lat="41.3606370" lon="-8.7574970">
        <ele>8.6</ele>
        <time>2021-05-16T12:25:48Z</time>
      </trkpt>
      <trkpt lat="41.3606370" lon="-8.7574970">
        <ele>8.6</ele>
        <time>2021-05-16T12:25:49Z</time>
      </trkpt>
      <trkpt lat="41.3606370" lon="-8.7574970">
        <ele>8.6</ele>
        <time>2021-05-16T12:25:50Z</time>
      </trkpt>
      <trkpt lat="41.3606370" lon="-8.7574970">
        <ele>8.6</ele>
        <time>2021-05-16T12:25:51Z</time>
      </trkpt>
      <trkpt lat="41.3606370" lon="-8.7574970">
        <ele>8.6</ele>
        <time>2021-05-16T12:25:52Z</time>
      </trkpt>
      <trkpt lat="41.3606370" lon="-8.7574970">
        <ele>8.6</ele>
        <time>2021-05-16T12:25:53Z</time>
      </trkpt>
      <trkpt lat="41.3606370" lon="-8.7574970">
        <ele>8.6</ele>
        <time>2021-05-16T12:25:54Z</time>
      </trkpt>
      <trkpt lat="41.3606370" lon="-8.7574970">
        <ele>8.6</ele>
        <time>2021-05-16T12:25:55Z</time>
      </trkpt>
      <trkpt lat="41.3606370" lon="-8.7574970">
        <ele>8.6</ele>
        <time>2021-05-16T12:25:56Z</time>
      </trkpt>
      <trkpt lat="41.3606370" lon="-8.7574970">
        <ele>8.6</ele>
        <time>2021-05-16T12:25:57Z</time>
      </trkpt>
      <trkpt lat="41.3606370" lon="-8.7574970">
        <ele>8.6</ele>
        <time>2021-05-16T12:25:58Z</time>
      </trkpt>
      <trkpt lat="41.3606370" lon="-8.7574970">
        <ele>8.6</ele>
        <time>2021-05-16T12:25:59Z</time>
      </trkpt>
      <trkpt lat="41.3606370" lon="-8.7574970">
        <ele>8.6</ele>
        <time>2021-05-16T12:26:00Z</time>
      </trkpt>
      <trkpt lat="41.3606370" lon="-8.7574970">
        <ele>8.6</ele>
        <time>2021-05-16T12:26:01Z</time>
      </trkpt>
      <trkpt lat="41.3606370" lon="-8.7574970">
        <ele>8.6</ele>
        <time>2021-05-16T12:26:02Z</time>
      </trkpt>
      <trkpt lat="41.3606370" lon="-8.7574970">
        <ele>8.6</ele>
        <time>2021-05-16T12:26:03Z</time>
      </trkpt>
      <trkpt lat="41.3606370" lon="-8.7574970">
        <ele>8.6</ele>
        <time>2021-05-16T12:26:04Z</time>
      </trkpt>
      <trkpt lat="41.3606370" lon="-8.7574970">
        <ele>8.6</ele>
        <time>2021-05-16T12:26:05Z</time>
      </trkpt>
      <trkpt lat="41.3606370" lon="-8.7574970">
        <ele>8.6</ele>
        <time>2021-05-16T12:26:06Z</time>
      </trkpt>
      <trkpt lat="41.3606370" lon="-8.7574970">
        <ele>8.6</ele>
        <time>2021-05-16T12:26:07Z</time>
      </trkpt>
      <trkpt lat="41.3606370" lon="-8.7574970">
        <ele>8.6</ele>
        <time>2021-05-16T12:26:08Z</time>
      </trkpt>
      <trkpt lat="41.3606370" lon="-8.7574970">
        <ele>8.6</ele>
        <time>2021-05-16T12:26:09Z</time>
      </trkpt>
      <trkpt lat="41.3606370" lon="-8.7574970">
        <ele>8.6</ele>
        <time>2021-05-16T12:26:10Z</time>
      </trkpt>
      <trkpt lat="41.3606370" lon="-8.7574970">
        <ele>8.6</ele>
        <time>2021-05-16T12:26:11Z</time>
      </trkpt>
      <trkpt lat="41.3606370" lon="-8.7574970">
        <ele>8.6</ele>
        <time>2021-05-16T12:26:12Z</time>
      </trkpt>
      <trkpt lat="41.3606370" lon="-8.7574970">
        <ele>8.6</ele>
        <time>2021-05-16T12:26:13Z</time>
      </trkpt>
      <trkpt lat="41.3606370" lon="-8.7574970">
        <ele>8.6</ele>
        <time>2021-05-16T12:26:14Z</time>
      </trkpt>
      <trkpt lat="41.3606370" lon="-8.7574970">
        <ele>8.6</ele>
        <time>2021-05-16T12:26:15Z</time>
      </trkpt>
      <trkpt lat="41.3606370" lon="-8.7574970">
        <ele>8.6</ele>
        <time>2021-05-16T12:26:16Z</time>
      </trkpt>
      <trkpt lat="41.3606370" lon="-8.7574970">
        <ele>8.6</ele>
        <time>2021-05-16T12:26:17Z</time>
      </trkpt>
      <trkpt lat="41.3606370" lon="-8.7574970">
        <ele>8.6</ele>
        <time>2021-05-16T12:26:18Z</time>
      </trkpt>
      <trkpt lat="41.3606370" lon="-8.7574970">
        <ele>8.6</ele>
        <time>2021-05-16T12:26:19Z</time>
      </trkpt>
      <trkpt lat="41.3606370" lon="-8.7574970">
        <ele>8.6</ele>
        <time>2021-05-16T12:26:20Z</time>
      </trkpt>
      <trkpt lat="41.3606370" lon="-8.7574970">
        <ele>8.6</ele>
        <time>2021-05-16T12:26:21Z</time>
      </trkpt>
      <trkpt lat="41.3606370" lon="-8.7574970">
        <ele>8.6</ele>
        <time>2021-05-16T12:26:22Z</time>
      </trkpt>
      <trkpt lat="41.3606370" lon="-8.7574970">
        <ele>8.6</ele>
        <time>2021-05-16T12:26:23Z</time>
      </trkpt>
      <trkpt lat="41.3606370" lon="-8.7574970">
        <ele>8.6</ele>
        <time>2021-05-16T12:26:24Z</time>
      </trkpt>
      <trkpt lat="41.3606370" lon="-8.7574970">
        <ele>8.6</ele>
        <time>2021-05-16T12:26:25Z</time>
      </trkpt>
      <trkpt lat="41.3606370" lon="-8.7574970">
        <ele>8.6</ele>
        <time>2021-05-16T12:26:26Z</time>
      </trkpt>
      <trkpt lat="41.3606370" lon="-8.7574970">
        <ele>8.6</ele>
        <time>2021-05-16T12:26:27Z</time>
      </trkpt>
      <trkpt lat="41.3606370" lon="-8.7574970">
        <ele>8.6</ele>
        <time>2021-05-16T12:26:28Z</time>
      </trkpt>
      <trkpt lat="41.3606370" lon="-8.7574970">
        <ele>8.6</ele>
        <time>2021-05-16T12:26:29Z</time>
      </trkpt>
      <trkpt lat="41.3606370" lon="-8.7574970">
        <ele>8.6</ele>
        <time>2021-05-16T12:26:30Z</time>
      </trkpt>
      <trkpt lat="41.3606370" lon="-8.7574970">
        <ele>8.6</ele>
        <time>2021-05-16T12:26:31Z</time>
      </trkpt>
      <trkpt lat="41.3606370" lon="-8.7574970">
        <ele>8.6</ele>
        <time>2021-05-16T12:26:32Z</time>
      </trkpt>
      <trkpt lat="41.3606370" lon="-8.7574970">
        <ele>8.6</ele>
        <time>2021-05-16T12:26:33Z</time>
      </trkpt>
      <trkpt lat="41.3606370" lon="-8.7574970">
        <ele>8.6</ele>
        <time>2021-05-16T12:26:34Z</time>
      </trkpt>
      <trkpt lat="41.3606370" lon="-8.7574970">
        <ele>8.6</ele>
        <time>2021-05-16T12:26:35Z</time>
      </trkpt>
      <trkpt lat="41.3606370" lon="-8.7574970">
        <ele>8.6</ele>
        <time>2021-05-16T12:26:36Z</time>
      </trkpt>
      <trkpt lat="41.3606370" lon="-8.7574970">
        <ele>8.6</ele>
        <time>2021-05-16T12:26:37Z</time>
      </trkpt>
      <trkpt lat="41.3606370" lon="-8.7574970">
        <ele>8.6</ele>
        <time>2021-05-16T12:26:38Z</time>
      </trkpt>
      <trkpt lat="41.3606370" lon="-8.7574970">
        <ele>8.6</ele>
        <time>2021-05-16T12:26:39Z</time>
      </trkpt>
      <trkpt lat="41.3606370" lon="-8.7574970">
        <ele>8.6</ele>
        <time>2021-05-16T12:26:40Z</time>
      </trkpt>
      <trkpt lat="41.3606370" lon="-8.7574970">
        <ele>8.6</ele>
        <time>2021-05-16T12:26:41Z</time>
      </trkpt>
      <trkpt lat="41.3606370" lon="-8.7574970">
        <ele>8.6</ele>
        <time>2021-05-16T12:26:42Z</time>
      </trkpt>
      <trkpt lat="41.3606370" lon="-8.7574970">
        <ele>8.6</ele>
        <time>2021-05-16T12:26:43Z</time>
      </trkpt>
      <trkpt lat="41.3606370" lon="-8.7574970">
        <ele>8.6</ele>
        <time>2021-05-16T12:26:44Z</time>
      </trkpt>
      <trkpt lat="41.3606370" lon="-8.7574970">
        <ele>8.6</ele>
        <time>2021-05-16T12:26:45Z</time>
      </trkpt>
      <trkpt lat="41.3606370" lon="-8.7574970">
        <ele>8.6</ele>
        <time>2021-05-16T12:26:46Z</time>
      </trkpt>
      <trkpt lat="41.3606370" lon="-8.7574970">
        <ele>8.6</ele>
        <time>2021-05-16T12:26:47Z</time>
      </trkpt>
      <trkpt lat="41.3606370" lon="-8.7574970">
        <ele>8.6</ele>
        <time>2021-05-16T12:26:48Z</time>
      </trkpt>
      <trkpt lat="41.3606370" lon="-8.7574970">
        <ele>8.6</ele>
        <time>2021-05-16T12:26:49Z</time>
      </trkpt>
      <trkpt lat="41.3606370" lon="-8.7574970">
        <ele>8.6</ele>
        <time>2021-05-16T12:26:50Z</time>
      </trkpt>
      <trkpt lat="41.3606370" lon="-8.7574970">
        <ele>8.6</ele>
        <time>2021-05-16T12:26:51Z</time>
      </trkpt>
      <trkpt lat="41.3606370" lon="-8.7574970">
        <ele>8.6</ele>
        <time>2021-05-16T12:26:52Z</time>
      </trkpt>
      <trkpt lat="41.3606370" lon="-8.7574970">
        <ele>8.6</ele>
        <time>2021-05-16T12:26:53Z</time>
      </trkpt>
      <trkpt lat="41.3606370" lon="-8.7574970">
        <ele>8.6</ele>
        <time>2021-05-16T12:26:54Z</time>
      </trkpt>
      <trkpt lat="41.3606370" lon="-8.7574970">
        <ele>8.6</ele>
        <time>2021-05-16T12:26:55Z</time>
      </trkpt>
      <trkpt lat="41.3606370" lon="-8.7574970">
        <ele>8.6</ele>
        <time>2021-05-16T12:26:56Z</time>
      </trkpt>
      <trkpt lat="41.3606370" lon="-8.7574970">
        <ele>8.6</ele>
        <time>2021-05-16T12:26:57Z</time>
      </trkpt>
      <trkpt lat="41.3606370" lon="-8.7574970">
        <ele>8.6</ele>
        <time>2021-05-16T12:26:58Z</time>
      </trkpt>
      <trkpt lat="41.3606370" lon="-8.7574970">
        <ele>8.6</ele>
        <time>2021-05-16T12:26:59Z</time>
      </trkpt>
      <trkpt lat="41.3606370" lon="-8.7574970">
        <ele>8.6</ele>
        <time>2021-05-16T12:27:00Z</time>
      </trkpt>
      <trkpt lat="41.3606370" lon="-8.7574970">
        <ele>8.6</ele>
        <time>2021-05-16T12:27:01Z</time>
      </trkpt>
      <trkpt lat="41.3606370" lon="-8.7574970">
        <ele>8.6</ele>
        <time>2021-05-16T12:27:02Z</time>
      </trkpt>
      <trkpt lat="41.3606370" lon="-8.7574970">
        <ele>8.6</ele>
        <time>2021-05-16T12:27:03Z</time>
      </trkpt>
      <trkpt lat="41.3606370" lon="-8.7574970">
        <ele>8.6</ele>
        <time>2021-05-16T12:27:04Z</time>
      </trkpt>
      <trkpt lat="41.3606370" lon="-8.7574970">
        <ele>8.6</ele>
        <time>2021-05-16T12:27:05Z</time>
      </trkpt>
      <trkpt lat="41.3606370" lon="-8.7574970">
        <ele>8.6</ele>
        <time>2021-05-16T12:27:06Z</time>
      </trkpt>
      <trkpt lat="41.3606370" lon="-8.7574970">
        <ele>8.6</ele>
        <time>2021-05-16T12:27:07Z</time>
      </trkpt>
      <trkpt lat="41.3606370" lon="-8.7574970">
        <ele>8.6</ele>
        <time>2021-05-16T12:27:08Z</time>
      </trkpt>
      <trkpt lat="41.3606370" lon="-8.7574970">
        <ele>8.6</ele>
        <time>2021-05-16T12:27:09Z</time>
      </trkpt>
      <trkpt lat="41.3606370" lon="-8.7574970">
        <ele>8.6</ele>
        <time>2021-05-16T12:27:10Z</time>
      </trkpt>
      <trkpt lat="41.3606440" lon="-8.7574810">
        <ele>8.6</ele>
        <time>2021-05-16T12:27:11Z</time>
      </trkpt>
      <trkpt lat="41.3606440" lon="-8.7574810">
        <ele>8.6</ele>
        <time>2021-05-16T12:27:12Z</time>
      </trkpt>
      <trkpt lat="41.3606440" lon="-8.7574790">
        <ele>8.6</ele>
        <time>2021-05-16T12:27:13Z</time>
      </trkpt>
      <trkpt lat="41.3606420" lon="-8.7574780">
        <ele>8.6</ele>
        <time>2021-05-16T12:27:14Z</time>
      </trkpt>
      <trkpt lat="41.3606420" lon="-8.7574750">
        <ele>8.6</ele>
        <time>2021-05-16T12:27:15Z</time>
      </trkpt>
      <trkpt lat="41.3606420" lon="-8.7574740">
        <ele>8.6</ele>
        <time>2021-05-16T12:27:16Z</time>
      </trkpt>
      <trkpt lat="41.3606410" lon="-8.7574700">
        <ele>8.6</ele>
        <time>2021-05-16T12:27:17Z</time>
      </trkpt>
      <trkpt lat="41.3606400" lon="-8.7574680">
        <ele>8.6</ele>
        <time>2021-05-16T12:27:18Z</time>
      </trkpt>
      <trkpt lat="41.3606390" lon="-8.7574670">
        <ele>8.6</ele>
        <time>2021-05-16T12:27:19Z</time>
      </trkpt>
      <trkpt lat="41.3606360" lon="-8.7574660">
        <ele>8.6</ele>
        <time>2021-05-16T12:27:20Z</time>
      </trkpt>
      <trkpt lat="41.3606350" lon="-8.7574650">
        <ele>8.6</ele>
        <time>2021-05-16T12:27:21Z</time>
      </trkpt>
      <trkpt lat="41.3606340" lon="-8.7574630">
        <ele>8.6</ele>
        <time>2021-05-16T12:27:22Z</time>
      </trkpt>
      <trkpt lat="41.3606330" lon="-8.7574610">
        <ele>8.6</ele>
        <time>2021-05-16T12:27:23Z</time>
      </trkpt>
      <trkpt lat="41.3606320" lon="-8.7574620">
        <ele>8.6</ele>
        <time>2021-05-16T12:27:24Z</time>
      </trkpt>
      <trkpt lat="41.3606320" lon="-8.7574660">
        <ele>8.6</ele>
        <time>2021-05-16T12:27:25Z</time>
      </trkpt>
      <trkpt lat="41.3606280" lon="-8.7574660">
        <ele>8.6</ele>
        <time>2021-05-16T12:27:26Z</time>
      </trkpt>
      <trkpt lat="41.3606250" lon="-8.7574650">
        <ele>8.6</ele>
        <time>2021-05-16T12:27:27Z</time>
      </trkpt>
      <trkpt lat="41.3606250" lon="-8.7574650">
        <ele>8.6</ele>
        <time>2021-05-16T12:27:28Z</time>
      </trkpt>
      <trkpt lat="41.3606210" lon="-8.7574650">
        <ele>8.6</ele>
        <time>2021-05-16T12:27:29Z</time>
      </trkpt>
      <trkpt lat="41.3606210" lon="-8.7574640">
        <ele>8.6</ele>
        <time>2021-05-16T12:27:30Z</time>
      </trkpt>
      <trkpt lat="41.3606200" lon="-8.7574610">
        <ele>8.6</ele>
        <time>2021-05-16T12:27:31Z</time>
      </trkpt>
      <trkpt lat="41.3606180" lon="-8.7574610">
        <ele>8.6</ele>
        <time>2021-05-16T12:27:32Z</time>
      </trkpt>
      <trkpt lat="41.3606190" lon="-8.7574590">
        <ele>8.6</ele>
        <time>2021-05-16T12:27:33Z</time>
      </trkpt>
      <trkpt lat="41.3606220" lon="-8.7574580">
        <ele>8.6</ele>
        <time>2021-05-16T12:27:34Z</time>
      </trkpt>
      <trkpt lat="41.3606230" lon="-8.7574570">
        <ele>8.6</ele>
        <time>2021-05-16T12:27:35Z</time>
      </trkpt>
      <trkpt lat="41.3606250" lon="-8.7574570">
        <ele>8.6</ele>
        <time>2021-05-16T12:27:36Z</time>
      </trkpt>
      <trkpt lat="41.3606230" lon="-8.7574580">
        <ele>8.6</ele>
        <time>2021-05-16T12:27:37Z</time>
      </trkpt>
      <trkpt lat="41.3606220" lon="-8.7574560">
        <ele>8.6</ele>
        <time>2021-05-16T12:27:38Z</time>
      </trkpt>
      <trkpt lat="41.3606220" lon="-8.7574550">
        <ele>8.6</ele>
        <time>2021-05-16T12:27:39Z</time>
      </trkpt>
      <trkpt lat="41.3606230" lon="-8.7574530">
        <ele>8.6</ele>
        <time>2021-05-16T12:27:40Z</time>
      </trkpt>
      <trkpt lat="41.3606250" lon="-8.7574500">
        <ele>8.6</ele>
        <time>2021-05-16T12:27:41Z</time>
      </trkpt>
      <trkpt lat="41.3606200" lon="-8.7574520">
        <ele>8.6</ele>
        <time>2021-05-16T12:27:42Z</time>
      </trkpt>
      <trkpt lat="41.3606210" lon="-8.7574490">
        <ele>8.6</ele>
        <time>2021-05-16T12:27:43Z</time>
      </trkpt>
      <trkpt lat="41.3606240" lon="-8.7574470">
        <ele>8.6</ele>
        <time>2021-05-16T12:27:44Z</time>
      </trkpt>
      <trkpt lat="41.3606240" lon="-8.7574470">
        <ele>8.6</ele>
        <time>2021-05-16T12:27:45Z</time>
      </trkpt>
      <trkpt lat="41.3606210" lon="-8.7574510">
        <ele>8.6</ele>
        <time>2021-05-16T12:27:46Z</time>
      </trkpt>
      <trkpt lat="41.3606210" lon="-8.7574510">
        <ele>8.6</ele>
        <time>2021-05-16T12:27:47Z</time>
      </trkpt>
      <trkpt lat="41.3606270" lon="-8.7574500">
        <ele>8.6</ele>
        <time>2021-05-16T12:27:48Z</time>
      </trkpt>
      <trkpt lat="41.3606260" lon="-8.7574500">
        <ele>8.6</ele>
        <time>2021-05-16T12:27:49Z</time>
      </trkpt>
      <trkpt lat="41.3606270" lon="-8.7574490">
        <ele>8.6</ele>
        <time>2021-05-16T12:27:50Z</time>
      </trkpt>
      <trkpt lat="41.3606270" lon="-8.7574480">
        <ele>8.6</ele>
        <time>2021-05-16T12:27:51Z</time>
      </trkpt>
      <trkpt lat="41.3606270" lon="-8.7574480">
        <ele>8.6</ele>
        <time>2021-05-16T12:27:52Z</time>
      </trkpt>
      <trkpt lat="41.3606270" lon="-8.7574480">
        <ele>8.6</ele>
        <time>2021-05-16T12:27:53Z</time>
      </trkpt>
      <trkpt lat="41.3606270" lon="-8.7574480">
        <ele>8.6</ele>
        <time>2021-05-16T12:27:54Z</time>
      </trkpt>
      <trkpt lat="41.3606400" lon="-8.7574430">
        <ele>8.6</ele>
        <time>2021-05-16T12:27:55Z</time>
      </trkpt>
      <trkpt lat="41.3606400" lon="-8.7574410">
        <ele>8.6</ele>
        <time>2021-05-16T12:27:56Z</time>
      </trkpt>
      <trkpt lat="41.3606460" lon="-8.7574390">
        <ele>8.6</ele>
        <time>2021-05-16T12:27:57Z</time>
      </trkpt>
      <trkpt lat="41.3606500" lon="-8.7574380">
        <ele>8.6</ele>
        <time>2021-05-16T12:27:58Z</time>
      </trkpt>
      <trkpt lat="41.3606470" lon="-8.7574400">
        <ele>8.6</ele>
        <time>2021-05-16T12:27:59Z</time>
      </trkpt>
      <trkpt lat="41.3606490" lon="-8.7574400">
        <ele>8.6</ele>
        <time>2021-05-16T12:28:00Z</time>
      </trkpt>
      <trkpt lat="41.3606440" lon="-8.7574400">
        <ele>8.6</ele>
        <time>2021-05-16T12:28:01Z</time>
      </trkpt>
      <trkpt lat="41.3606430" lon="-8.7574400">
        <ele>8.6</ele>
        <time>2021-05-16T12:28:02Z</time>
      </trkpt>
      <trkpt lat="41.3606440" lon="-8.7574390">
        <ele>8.6</ele>
        <time>2021-05-16T12:28:03Z</time>
      </trkpt>
      <trkpt lat="41.3606460" lon="-8.7574430">
        <ele>8.6</ele>
        <time>2021-05-16T12:28:04Z</time>
      </trkpt>
      <trkpt lat="41.3606460" lon="-8.7574430">
        <ele>8.6</ele>
        <time>2021-05-16T12:28:05Z</time>
      </trkpt>
      <trkpt lat="41.3606450" lon="-8.7574480">
        <ele>8.6</ele>
        <time>2021-05-16T12:28:06Z</time>
      </trkpt>
      <trkpt lat="41.3606340" lon="-8.7574550">
        <ele>8.6</ele>
        <time>2021-05-16T12:28:07Z</time>
      </trkpt>
      <trkpt lat="41.3606330" lon="-8.7574550">
        <ele>8.6</ele>
        <time>2021-05-16T12:28:08Z</time>
      </trkpt>
      <trkpt lat="41.3606370" lon="-8.7574510">
        <ele>8.6</ele>
        <time>2021-05-16T12:28:09Z</time>
      </trkpt>
      <trkpt lat="41.3606350" lon="-8.7574530">
        <ele>8.6</ele>
        <time>2021-05-16T12:28:10Z</time>
      </trkpt>
      <trkpt lat="41.3606320" lon="-8.7574550">
        <ele>8.6</ele>
        <time>2021-05-16T12:28:11Z</time>
      </trkpt>
      <trkpt lat="41.3606300" lon="-8.7574590">
        <ele>8.6</ele>
        <time>2021-05-16T12:28:12Z</time>
      </trkpt>
      <trkpt lat="41.3606290" lon="-8.7574630">
        <ele>8.6</ele>
        <time>2021-05-16T12:28:13Z</time>
      </trkpt>
      <trkpt lat="41.3606300" lon="-8.7574630">
        <ele>8.6</ele>
        <time>2021-05-16T12:28:14Z</time>
      </trkpt>
      <trkpt lat="41.3606300" lon="-8.7574650">
        <ele>8.6</ele>
        <time>2021-05-16T12:28:15Z</time>
      </trkpt>
      <trkpt lat="41.3606250" lon="-8.7574680">
        <ele>8.6</ele>
        <time>2021-05-16T12:28:16Z</time>
      </trkpt>
      <trkpt lat="41.3606240" lon="-8.7574690">
        <ele>8.6</ele>
        <time>2021-05-16T12:28:17Z</time>
      </trkpt>
      <trkpt lat="41.3606220" lon="-8.7574700">
        <ele>8.6</ele>
        <time>2021-05-16T12:28:18Z</time>
      </trkpt>
      <trkpt lat="41.3606240" lon="-8.7574690">
        <ele>8.6</ele>
        <time>2021-05-16T12:28:19Z</time>
      </trkpt>
      <trkpt lat="41.3606260" lon="-8.7574680">
        <ele>8.6</ele>
        <time>2021-05-16T12:28:20Z</time>
      </trkpt>
      <trkpt lat="41.3606270" lon="-8.7574670">
        <ele>8.6</ele>
        <time>2021-05-16T12:28:21Z</time>
      </trkpt>
      <trkpt lat="41.3606290" lon="-8.7574640">
        <ele>8.6</ele>
        <time>2021-05-16T12:28:22Z</time>
      </trkpt>
      <trkpt lat="41.3606300" lon="-8.7574640">
        <ele>8.6</ele>
        <time>2021-05-16T12:28:23Z</time>
      </trkpt>
      <trkpt lat="41.3606310" lon="-8.7574640">
        <ele>8.6</ele>
        <time>2021-05-16T12:28:24Z</time>
      </trkpt>
      <trkpt lat="41.3606330" lon="-8.7574620">
        <ele>8.6</ele>
        <time>2021-05-16T12:28:25Z</time>
      </trkpt>
      <trkpt lat="41.3606320" lon="-8.7574630">
        <ele>8.6</ele>
        <time>2021-05-16T12:28:26Z</time>
      </trkpt>
      <trkpt lat="41.3606310" lon="-8.7574630">
        <ele>8.6</ele>
        <time>2021-05-16T12:28:27Z</time>
      </trkpt>
      <trkpt lat="41.3606330" lon="-8.7574630">
        <ele>8.6</ele>
        <time>2021-05-16T12:28:28Z</time>
      </trkpt>
      <trkpt lat="41.3606350" lon="-8.7574640">
        <ele>8.6</ele>
        <time>2021-05-16T12:28:29Z</time>
      </trkpt>
      <trkpt lat="41.3606360" lon="-8.7574610">
        <ele>8.6</ele>
        <time>2021-05-16T12:28:30Z</time>
      </trkpt>
      <trkpt lat="41.3606360" lon="-8.7574630">
        <ele>8.6</ele>
        <time>2021-05-16T12:28:31Z</time>
      </trkpt>
      <trkpt lat="41.3606360" lon="-8.7574650">
        <ele>8.6</ele>
        <time>2021-05-16T12:28:32Z</time>
      </trkpt>
      <trkpt lat="41.3606360" lon="-8.7574650">
        <ele>8.6</ele>
        <time>2021-05-16T12:28:33Z</time>
      </trkpt>
      <trkpt lat="41.3606370" lon="-8.7574670">
        <ele>8.6</ele>
        <time>2021-05-16T12:28:34Z</time>
      </trkpt>
      <trkpt lat="41.3606370" lon="-8.7574670">
        <ele>8.6</ele>
        <time>2021-05-16T12:28:35Z</time>
      </trkpt>
      <trkpt lat="41.3606370" lon="-8.7574670">
        <ele>8.6</ele>
        <time>2021-05-16T12:28:36Z</time>
      </trkpt>
      <trkpt lat="41.3606370" lon="-8.7574670">
        <ele>8.6</ele>
        <time>2021-05-16T12:28:37Z</time>
      </trkpt>
      <trkpt lat="41.3606370" lon="-8.7574670">
        <ele>8.6</ele>
        <time>2021-05-16T12:28:38Z</time>
      </trkpt>
      <trkpt lat="41.3606340" lon="-8.7574770">
        <ele>8.6</ele>
        <time>2021-05-16T12:28:39Z</time>
      </trkpt>
      <trkpt lat="41.3606340" lon="-8.7574770">
        <ele>8.6</ele>
        <time>2021-05-16T12:28:40Z</time>
      </trkpt>
      <trkpt lat="41.3606340" lon="-8.7574770">
        <ele>8.6</ele>
        <time>2021-05-16T12:28:41Z</time>
      </trkpt>
      <trkpt lat="41.3606280" lon="-8.7574820">
        <ele>8.6</ele>
        <time>2021-05-16T12:28:42Z</time>
      </trkpt>
      <trkpt lat="41.3606270" lon="-8.7574810">
        <ele>8.6</ele>
        <time>2021-05-16T12:28:43Z</time>
      </trkpt>
      <trkpt lat="41.3606230" lon="-8.7574820">
        <ele>8.6</ele>
        <time>2021-05-16T12:28:44Z</time>
      </trkpt>
      <trkpt lat="41.3606230" lon="-8.7574810">
        <ele>8.6</ele>
        <time>2021-05-16T12:28:45Z</time>
      </trkpt>
      <trkpt lat="41.3606230" lon="-8.7574820">
        <ele>8.6</ele>
        <time>2021-05-16T12:28:46Z</time>
      </trkpt>
      <trkpt lat="41.3606210" lon="-8.7574830">
        <ele>8.6</ele>
        <time>2021-05-16T12:28:47Z</time>
      </trkpt>
      <trkpt lat="41.3606200" lon="-8.7574830">
        <ele>8.6</ele>
        <time>2021-05-16T12:28:48Z</time>
      </trkpt>
      <trkpt lat="41.3606200" lon="-8.7574830">
        <ele>8.6</ele>
        <time>2021-05-16T12:28:49Z</time>
      </trkpt>
      <trkpt lat="41.3606200" lon="-8.7574850">
        <ele>8.6</ele>
        <time>2021-05-16T12:28:50Z</time>
      </trkpt>
      <trkpt lat="41.3606200" lon="-8.7574850">
        <ele>8.6</ele>
        <time>2021-05-16T12:28:51Z</time>
      </trkpt>
      <trkpt lat="41.3606220" lon="-8.7574860">
        <ele>8.6</ele>
        <time>2021-05-16T12:28:52Z</time>
      </trkpt>
      <trkpt lat="41.3606220" lon="-8.7574870">
        <ele>8.6</ele>
        <time>2021-05-16T12:28:53Z</time>
      </trkpt>
      <trkpt lat="41.3606200" lon="-8.7574870">
        <ele>8.6</ele>
        <time>2021-05-16T12:28:54Z</time>
      </trkpt>
      <trkpt lat="41.3606210" lon="-8.7574870">
        <ele>8.6</ele>
        <time>2021-05-16T12:28:55Z</time>
      </trkpt>
      <trkpt lat="41.3606240" lon="-8.7574820">
        <ele>8.6</ele>
        <time>2021-05-16T12:28:56Z</time>
      </trkpt>
      <trkpt lat="41.3606260" lon="-8.7574790">
        <ele>8.6</ele>
        <time>2021-05-16T12:28:57Z</time>
      </trkpt>
      <trkpt lat="41.3606260" lon="-8.7574790">
        <ele>8.6</ele>
        <time>2021-05-16T12:28:58Z</time>
      </trkpt>
      <trkpt lat="41.3606250" lon="-8.7574760">
        <ele>8.6</ele>
        <time>2021-05-16T12:28:59Z</time>
      </trkpt>
      <trkpt lat="41.3606250" lon="-8.7574740">
        <ele>8.6</ele>
        <time>2021-05-16T12:29:00Z</time>
      </trkpt>
      <trkpt lat="41.3606250" lon="-8.7574730">
        <ele>8.6</ele>
        <time>2021-05-16T12:29:01Z</time>
      </trkpt>
      <trkpt lat="41.3606260" lon="-8.7574710">
        <ele>8.6</ele>
        <time>2021-05-16T12:29:02Z</time>
      </trkpt>
      <trkpt lat="41.3606260" lon="-8.7574710">
        <ele>8.6</ele>
        <time>2021-05-16T12:29:03Z</time>
      </trkpt>
      <trkpt lat="41.3606250" lon="-8.7574710">
        <ele>8.6</ele>
        <time>2021-05-16T12:29:04Z</time>
      </trkpt>
      <trkpt lat="41.3606230" lon="-8.7574700">
        <ele>8.6</ele>
        <time>2021-05-16T12:29:05Z</time>
      </trkpt>
      <trkpt lat="41.3606230" lon="-8.7574700">
        <ele>8.6</ele>
        <time>2021-05-16T12:29:06Z</time>
      </trkpt>
      <trkpt lat="41.3606200" lon="-8.7574700">
        <ele>8.6</ele>
        <time>2021-05-16T12:29:07Z</time>
      </trkpt>
      <trkpt lat="41.3606170" lon="-8.7574700">
        <ele>8.6</ele>
        <time>2021-05-16T12:29:08Z</time>
      </trkpt>
      <trkpt lat="41.3606170" lon="-8.7574700">
        <ele>8.6</ele>
        <time>2021-05-16T12:29:09Z</time>
      </trkpt>
      <trkpt lat="41.3606170" lon="-8.7574700">
        <ele>8.6</ele>
        <time>2021-05-16T12:29:10Z</time>
      </trkpt>
      <trkpt lat="41.3606140" lon="-8.7574690">
        <ele>8.6</ele>
        <time>2021-05-16T12:29:11Z</time>
      </trkpt>
      <trkpt lat="41.3606120" lon="-8.7574710">
        <ele>8.6</ele>
        <time>2021-05-16T12:29:12Z</time>
      </trkpt>
      <trkpt lat="41.3606120" lon="-8.7574700">
        <ele>8.6</ele>
        <time>2021-05-16T12:29:13Z</time>
      </trkpt>
      <trkpt lat="41.3606120" lon="-8.7574690">
        <ele>8.6</ele>
        <time>2021-05-16T12:29:14Z</time>
      </trkpt>
      <trkpt lat="41.3606130" lon="-8.7574670">
        <ele>8.6</ele>
        <time>2021-05-16T12:29:15Z</time>
      </trkpt>
      <trkpt lat="41.3606120" lon="-8.7574660">
        <ele>8.6</ele>
        <time>2021-05-16T12:29:16Z</time>
      </trkpt>
      <trkpt lat="41.3606120" lon="-8.7574640">
        <ele>8.6</ele>
        <time>2021-05-16T12:29:17Z</time>
      </trkpt>
      <trkpt lat="41.3606130" lon="-8.7574610">
        <ele>8.6</ele>
        <time>2021-05-16T12:29:18Z</time>
      </trkpt>
      <trkpt lat="41.3606120" lon="-8.7574610">
        <ele>8.6</ele>
        <time>2021-05-16T12:29:19Z</time>
      </trkpt>
      <trkpt lat="41.3606100" lon="-8.7574610">
        <ele>8.6</ele>
        <time>2021-05-16T12:29:20Z</time>
      </trkpt>
      <trkpt lat="41.3606090" lon="-8.7574600">
        <ele>8.6</ele>
        <time>2021-05-16T12:29:21Z</time>
      </trkpt>
      <trkpt lat="41.3606090" lon="-8.7574610">
        <ele>8.6</ele>
        <time>2021-05-16T12:29:22Z</time>
      </trkpt>
      <trkpt lat="41.3606100" lon="-8.7574600">
        <ele>8.6</ele>
        <time>2021-05-16T12:29:23Z</time>
      </trkpt>
      <trkpt lat="41.3606080" lon="-8.7574620">
        <ele>8.6</ele>
        <time>2021-05-16T12:29:24Z</time>
      </trkpt>
      <trkpt lat="41.3606080" lon="-8.7574630">
        <ele>8.6</ele>
        <time>2021-05-16T12:29:25Z</time>
      </trkpt>
      <trkpt lat="41.3606100" lon="-8.7574620">
        <ele>8.6</ele>
        <time>2021-05-16T12:29:26Z</time>
      </trkpt>
      <trkpt lat="41.3606130" lon="-8.7574630">
        <ele>8.6</ele>
        <time>2021-05-16T12:29:27Z</time>
      </trkpt>
      <trkpt lat="41.3606150" lon="-8.7574640">
        <ele>8.6</ele>
        <time>2021-05-16T12:29:28Z</time>
      </trkpt>
      <trkpt lat="41.3606170" lon="-8.7574630">
        <ele>8.6</ele>
        <time>2021-05-16T12:29:29Z</time>
      </trkpt>
      <trkpt lat="41.3606200" lon="-8.7574620">
        <ele>8.6</ele>
        <time>2021-05-16T12:29:30Z</time>
      </trkpt>
      <trkpt lat="41.3606180" lon="-8.7574630">
        <ele>8.6</ele>
        <time>2021-05-16T12:29:31Z</time>
      </trkpt>
      <trkpt lat="41.3606180" lon="-8.7574630">
        <ele>8.6</ele>
        <time>2021-05-16T12:29:32Z</time>
      </trkpt>
      <trkpt lat="41.3606150" lon="-8.7574600">
        <ele>8.6</ele>
        <time>2021-05-16T12:29:33Z</time>
      </trkpt>
      <trkpt lat="41.3606150" lon="-8.7574580">
        <ele>8.6</ele>
        <time>2021-05-16T12:29:34Z</time>
      </trkpt>
      <trkpt lat="41.3606140" lon="-8.7574580">
        <ele>8.6</ele>
        <time>2021-05-16T12:29:35Z</time>
      </trkpt>
      <trkpt lat="41.3606140" lon="-8.7574560">
        <ele>8.6</ele>
        <time>2021-05-16T12:29:36Z</time>
      </trkpt>
      <trkpt lat="41.3606130" lon="-8.7574550">
        <ele>8.6</ele>
        <time>2021-05-16T12:29:37Z</time>
      </trkpt>
      <trkpt lat="41.3606110" lon="-8.7574560">
        <ele>8.6</ele>
        <time>2021-05-16T12:29:38Z</time>
      </trkpt>
      <trkpt lat="41.3606120" lon="-8.7574550">
        <ele>8.6</ele>
        <time>2021-05-16T12:29:39Z</time>
      </trkpt>
      <trkpt lat="41.3606110" lon="-8.7574560">
        <ele>8.6</ele>
        <time>2021-05-16T12:29:40Z</time>
      </trkpt>
      <trkpt lat="41.3606130" lon="-8.7574540">
        <ele>8.6</ele>
        <time>2021-05-16T12:29:41Z</time>
      </trkpt>
      <trkpt lat="41.3606130" lon="-8.7574540">
        <ele>8.6</ele>
        <time>2021-05-16T12:29:42Z</time>
      </trkpt>
      <trkpt lat="41.3606130" lon="-8.7574540">
        <ele>8.6</ele>
        <time>2021-05-16T12:29:43Z</time>
      </trkpt>
      <trkpt lat="41.3606110" lon="-8.7574560">
        <ele>8.6</ele>
        <time>2021-05-16T12:29:44Z</time>
      </trkpt>
      <trkpt lat="41.3606140" lon="-8.7574570">
        <ele>8.6</ele>
        <time>2021-05-16T12:29:45Z</time>
      </trkpt>
      <trkpt lat="41.3606120" lon="-8.7574590">
        <ele>8.6</ele>
        <time>2021-05-16T12:29:46Z</time>
      </trkpt>
      <trkpt lat="41.3606140" lon="-8.7574600">
        <ele>8.6</ele>
        <time>2021-05-16T12:29:47Z</time>
      </trkpt>
      <trkpt lat="41.3606130" lon="-8.7574600">
        <ele>8.6</ele>
        <time>2021-05-16T12:29:48Z</time>
      </trkpt>
      <trkpt lat="41.3606130" lon="-8.7574600">
        <ele>8.6</ele>
        <time>2021-05-16T12:29:49Z</time>
      </trkpt>
      <trkpt lat="41.3606140" lon="-8.7574610">
        <ele>8.6</ele>
        <time>2021-05-16T12:29:50Z</time>
      </trkpt>
      <trkpt lat="41.3606160" lon="-8.7574620">
        <ele>8.6</ele>
        <time>2021-05-16T12:29:51Z</time>
      </trkpt>
      <trkpt lat="41.3606190" lon="-8.7574610">
        <ele>8.6</ele>
        <time>2021-05-16T12:29:52Z</time>
      </trkpt>
      <trkpt lat="41.3606180" lon="-8.7574620">
        <ele>8.6</ele>
        <time>2021-05-16T12:29:53Z</time>
      </trkpt>
      <trkpt lat="41.3606200" lon="-8.7574600">
        <ele>8.6</ele>
        <time>2021-05-16T12:29:54Z</time>
      </trkpt>
      <trkpt lat="41.3606210" lon="-8.7574560">
        <ele>8.6</ele>
        <time>2021-05-16T12:29:55Z</time>
      </trkpt>
      <trkpt lat="41.3606220" lon="-8.7574520">
        <ele>8.6</ele>
        <time>2021-05-16T12:29:56Z</time>
      </trkpt>
      <trkpt lat="41.3606230" lon="-8.7574490">
        <ele>8.6</ele>
        <time>2021-05-16T12:29:57Z</time>
      </trkpt>
      <trkpt lat="41.3606220" lon="-8.7574490">
        <ele>8.6</ele>
        <time>2021-05-16T12:29:58Z</time>
      </trkpt>
      <trkpt lat="41.3606220" lon="-8.7574490">
        <ele>8.6</ele>
        <time>2021-05-16T12:29:59Z</time>
      </trkpt>
      <trkpt lat="41.3606230" lon="-8.7574480">
        <ele>8.6</ele>
        <time>2021-05-16T12:30:00Z</time>
      </trkpt>
      <trkpt lat="41.3606250" lon="-8.7574470">
        <ele>8.6</ele>
        <time>2021-05-16T12:30:01Z</time>
      </trkpt>
      <trkpt lat="41.3606240" lon="-8.7574470">
        <ele>8.6</ele>
        <time>2021-05-16T12:30:02Z</time>
      </trkpt>
      <trkpt lat="41.3606240" lon="-8.7574450">
        <ele>8.6</ele>
        <time>2021-05-16T12:30:03Z</time>
      </trkpt>
      <trkpt lat="41.3606250" lon="-8.7574460">
        <ele>8.6</ele>
        <time>2021-05-16T12:30:04Z</time>
      </trkpt>
      <trkpt lat="41.3606220" lon="-8.7574450">
        <ele>8.6</ele>
        <time>2021-05-16T12:30:05Z</time>
      </trkpt>
      <trkpt lat="41.3606210" lon="-8.7574440">
        <ele>8.6</ele>
        <time>2021-05-16T12:30:06Z</time>
      </trkpt>
      <trkpt lat="41.3606210" lon="-8.7574440">
        <ele>8.6</ele>
        <time>2021-05-16T12:30:07Z</time>
      </trkpt>
      <trkpt lat="41.3606210" lon="-8.7574430">
        <ele>8.6</ele>
        <time>2021-05-16T12:30:08Z</time>
      </trkpt>
      <trkpt lat="41.3606210" lon="-8.7574430">
        <ele>8.6</ele>
        <time>2021-05-16T12:30:09Z</time>
      </trkpt>
      <trkpt lat="41.3606180" lon="-8.7574430">
        <ele>8.6</ele>
        <time>2021-05-16T12:30:10Z</time>
      </trkpt>
      <trkpt lat="41.3606180" lon="-8.7574450">
        <ele>8.6</ele>
        <time>2021-05-16T12:30:11Z</time>
      </trkpt>
      <trkpt lat="41.3606160" lon="-8.7574460">
        <ele>8.6</ele>
        <time>2021-05-16T12:30:12Z</time>
      </trkpt>
      <trkpt lat="41.3606160" lon="-8.7574460">
        <ele>8.6</ele>
        <time>2021-05-16T12:30:13Z</time>
      </trkpt>
      <trkpt lat="41.3606180" lon="-8.7574460">
        <ele>8.6</ele>
        <time>2021-05-16T12:30:14Z</time>
      </trkpt>
      <trkpt lat="41.3606170" lon="-8.7574440">
        <ele>8.6</ele>
        <time>2021-05-16T12:30:15Z</time>
      </trkpt>
      <trkpt lat="41.3606170" lon="-8.7574440">
        <ele>8.6</ele>
        <time>2021-05-16T12:30:16Z</time>
      </trkpt>
      <trkpt lat="41.3606170" lon="-8.7574440">
        <ele>8.6</ele>
        <time>2021-05-16T12:30:17Z</time>
      </trkpt>
      <trkpt lat="41.3606210" lon="-8.7574400">
        <ele>8.6</ele>
        <time>2021-05-16T12:30:18Z</time>
      </trkpt>
      <trkpt lat="41.3606210" lon="-8.7574380">
        <ele>8.6</ele>
        <time>2021-05-16T12:30:19Z</time>
      </trkpt>
      <trkpt lat="41.3606250" lon="-8.7574380">
        <ele>8.6</ele>
        <time>2021-05-16T12:30:20Z</time>
      </trkpt>
      <trkpt lat="41.3606230" lon="-8.7574380">
        <ele>8.6</ele>
        <time>2021-05-16T12:30:21Z</time>
      </trkpt>
      <trkpt lat="41.3606210" lon="-8.7574400">
        <ele>8.6</ele>
        <time>2021-05-16T12:30:22Z</time>
      </trkpt>
      <trkpt lat="41.3606210" lon="-8.7574390">
        <ele>8.6</ele>
        <time>2021-05-16T12:30:23Z</time>
      </trkpt>
      <trkpt lat="41.3606210" lon="-8.7574380">
        <ele>8.6</ele>
        <time>2021-05-16T12:30:24Z</time>
      </trkpt>
      <trkpt lat="41.3606210" lon="-8.7574370">
        <ele>8.6</ele>
        <time>2021-05-16T12:30:25Z</time>
      </trkpt>
      <trkpt lat="41.3606210" lon="-8.7574370">
        <ele>8.6</ele>
        <time>2021-05-16T12:30:26Z</time>
      </trkpt>
      <trkpt lat="41.3606190" lon="-8.7574390">
        <ele>8.6</ele>
        <time>2021-05-16T12:30:27Z</time>
      </trkpt>
      <trkpt lat="41.3606190" lon="-8.7574400">
        <ele>8.6</ele>
        <time>2021-05-16T12:30:28Z</time>
      </trkpt>
      <trkpt lat="41.3606190" lon="-8.7574400">
        <ele>8.6</ele>
        <time>2021-05-16T12:30:29Z</time>
      </trkpt>
      <trkpt lat="41.3606190" lon="-8.7574400">
        <ele>8.6</ele>
        <time>2021-05-16T12:30:30Z</time>
      </trkpt>
      <trkpt lat="41.3606190" lon="-8.7574400">
        <ele>8.6</ele>
        <time>2021-05-16T12:30:31Z</time>
      </trkpt>
      <trkpt lat="41.3606190" lon="-8.7574400">
        <ele>8.6</ele>
        <time>2021-05-16T12:30:32Z</time>
      </trkpt>
      <trkpt lat="41.3606190" lon="-8.7574400">
        <ele>8.6</ele>
        <time>2021-05-16T12:30:33Z</time>
      </trkpt>
      <trkpt lat="41.3606190" lon="-8.7574400">
        <ele>8.6</ele>
        <time>2021-05-16T12:30:34Z</time>
      </trkpt>
      <trkpt lat="41.3606190" lon="-8.7574400">
        <ele>8.6</ele>
        <time>2021-05-16T12:30:35Z</time>
      </trkpt>
      <trkpt lat="41.3606190" lon="-8.7574400">
        <ele>8.6</ele>
        <time>2021-05-16T12:30:36Z</time>
      </trkpt>
      <trkpt lat="41.3606190" lon="-8.7574400">
        <ele>8.6</ele>
        <time>2021-05-16T12:30:37Z</time>
      </trkpt>
      <trkpt lat="41.3606210" lon="-8.7574430">
        <ele>8.6</ele>
        <time>2021-05-16T12:30:38Z</time>
      </trkpt>
      <trkpt lat="41.3606210" lon="-8.7574440">
        <ele>8.6</ele>
        <time>2021-05-16T12:30:39Z</time>
      </trkpt>
      <trkpt lat="41.3606210" lon="-8.7574440">
        <ele>8.6</ele>
        <time>2021-05-16T12:30:40Z</time>
      </trkpt>
      <trkpt lat="41.3606210" lon="-8.7574490">
        <ele>8.6</ele>
        <time>2021-05-16T12:30:41Z</time>
      </trkpt>
      <trkpt lat="41.3606220" lon="-8.7574510">
        <ele>8.6</ele>
        <time>2021-05-16T12:30:42Z</time>
      </trkpt>
      <trkpt lat="41.3606240" lon="-8.7574510">
        <ele>8.6</ele>
        <time>2021-05-16T12:30:43Z</time>
      </trkpt>
      <trkpt lat="41.3606240" lon="-8.7574520">
        <ele>8.6</ele>
        <time>2021-05-16T12:30:44Z</time>
      </trkpt>
      <trkpt lat="41.3606240" lon="-8.7574510">
        <ele>8.6</ele>
        <time>2021-05-16T12:30:45Z</time>
      </trkpt>
      <trkpt lat="41.3606250" lon="-8.7574510">
        <ele>8.6</ele>
        <time>2021-05-16T12:30:46Z</time>
      </trkpt>
      <trkpt lat="41.3606260" lon="-8.7574510">
        <ele>8.6</ele>
        <time>2021-05-16T12:30:47Z</time>
      </trkpt>
      <trkpt lat="41.3606260" lon="-8.7574510">
        <ele>8.6</ele>
        <time>2021-05-16T12:30:48Z</time>
      </trkpt>
      <trkpt lat="41.3606250" lon="-8.7574530">
        <ele>8.6</ele>
        <time>2021-05-16T12:30:49Z</time>
      </trkpt>
      <trkpt lat="41.3606240" lon="-8.7574530">
        <ele>8.6</ele>
        <time>2021-05-16T12:30:50Z</time>
      </trkpt>
      <trkpt lat="41.3606240" lon="-8.7574530">
        <ele>8.6</ele>
        <time>2021-05-16T12:30:51Z</time>
      </trkpt>
      <trkpt lat="41.3606240" lon="-8.7574530">
        <ele>8.6</ele>
        <time>2021-05-16T12:30:52Z</time>
      </trkpt>
      <trkpt lat="41.3606230" lon="-8.7574530">
        <ele>8.6</ele>
        <time>2021-05-16T12:30:53Z</time>
      </trkpt>
      <trkpt lat="41.3606230" lon="-8.7574530">
        <ele>8.6</ele>
        <time>2021-05-16T12:30:54Z</time>
      </trkpt>
      <trkpt lat="41.3606190" lon="-8.7574560">
        <ele>8.6</ele>
        <time>2021-05-16T12:30:55Z</time>
      </trkpt>
      <trkpt lat="41.3606190" lon="-8.7574560">
        <ele>8.6</ele>
        <time>2021-05-16T12:30:56Z</time>
      </trkpt>
      <trkpt lat="41.3606170" lon="-8.7574600">
        <ele>8.6</ele>
        <time>2021-05-16T12:30:57Z</time>
      </trkpt>
      <trkpt lat="41.3606170" lon="-8.7574590">
        <ele>8.6</ele>
        <time>2021-05-16T12:30:58Z</time>
      </trkpt>
      <trkpt lat="41.3606090" lon="-8.7574580">
        <ele>8.6</ele>
        <time>2021-05-16T12:30:59Z</time>
      </trkpt>
      <trkpt lat="41.3606120" lon="-8.7574550">
        <ele>8.6</ele>
        <time>2021-05-16T12:31:00Z</time>
      </trkpt>
      <trkpt lat="41.3606120" lon="-8.7574600">
        <ele>8.6</ele>
        <time>2021-05-16T12:31:01Z</time>
      </trkpt>
      <trkpt lat="41.3606110" lon="-8.7574640">
        <ele>8.6</ele>
        <time>2021-05-16T12:31:02Z</time>
      </trkpt>
      <trkpt lat="41.3606100" lon="-8.7574660">
        <ele>8.6</ele>
        <time>2021-05-16T12:31:03Z</time>
      </trkpt>
      <trkpt lat="41.3606120" lon="-8.7574660">
        <ele>8.6</ele>
        <time>2021-05-16T12:31:04Z</time>
      </trkpt>
      <trkpt lat="41.3606140" lon="-8.7574650">
        <ele>8.6</ele>
        <time>2021-05-16T12:31:05Z</time>
      </trkpt>
      <trkpt lat="41.3606140" lon="-8.7574650">
        <ele>8.6</ele>
        <time>2021-05-16T12:31:06Z</time>
      </trkpt>
      <trkpt lat="41.3606140" lon="-8.7574650">
        <ele>8.6</ele>
        <time>2021-05-16T12:31:07Z</time>
      </trkpt>
      <trkpt lat="41.3606160" lon="-8.7574640">
        <ele>8.6</ele>
        <time>2021-05-16T12:31:08Z</time>
      </trkpt>
      <trkpt lat="41.3606160" lon="-8.7574640">
        <ele>8.6</ele>
        <time>2021-05-16T12:31:09Z</time>
      </trkpt>
      <trkpt lat="41.3606180" lon="-8.7574650">
        <ele>8.6</ele>
        <time>2021-05-16T12:31:10Z</time>
      </trkpt>
      <trkpt lat="41.3606180" lon="-8.7574660">
        <ele>8.6</ele>
        <time>2021-05-16T12:31:11Z</time>
      </trkpt>
      <trkpt lat="41.3606220" lon="-8.7574680">
        <ele>8.6</ele>
        <time>2021-05-16T12:31:12Z</time>
      </trkpt>
      <trkpt lat="41.3606220" lon="-8.7574680">
        <ele>8.6</ele>
        <time>2021-05-16T12:31:13Z</time>
      </trkpt>
      <trkpt lat="41.3606220" lon="-8.7574680">
        <ele>8.6</ele>
        <time>2021-05-16T12:31:14Z</time>
      </trkpt>
      <trkpt lat="41.3606220" lon="-8.7574680">
        <ele>8.6</ele>
        <time>2021-05-16T12:31:15Z</time>
      </trkpt>
      <trkpt lat="41.3606280" lon="-8.7574690">
        <ele>8.6</ele>
        <time>2021-05-16T12:31:16Z</time>
      </trkpt>
      <trkpt lat="41.3606290" lon="-8.7574690">
        <ele>8.6</ele>
        <time>2021-05-16T12:31:17Z</time>
      </trkpt>
      <trkpt lat="41.3606310" lon="-8.7574690">
        <ele>8.6</ele>
        <time>2021-05-16T12:31:18Z</time>
      </trkpt>
      <trkpt lat="41.3606350" lon="-8.7574690">
        <ele>8.6</ele>
        <time>2021-05-16T12:31:19Z</time>
      </trkpt>
      <trkpt lat="41.3606380" lon="-8.7574680">
        <ele>8.6</ele>
        <time>2021-05-16T12:31:20Z</time>
      </trkpt>
      <trkpt lat="41.3606410" lon="-8.7574710">
        <ele>8.6</ele>
        <time>2021-05-16T12:31:21Z</time>
      </trkpt>
      <trkpt lat="41.3606410" lon="-8.7574720">
        <ele>8.6</ele>
        <time>2021-05-16T12:31:22Z</time>
      </trkpt>
      <trkpt lat="41.3606420" lon="-8.7574710">
        <ele>8.6</ele>
        <time>2021-05-16T12:31:23Z</time>
      </trkpt>
      <trkpt lat="41.3606410" lon="-8.7574710">
        <ele>8.6</ele>
        <time>2021-05-16T12:31:24Z</time>
      </trkpt>
      <trkpt lat="41.3606360" lon="-8.7574740">
        <ele>8.6</ele>
        <time>2021-05-16T12:31:25Z</time>
      </trkpt>
      <trkpt lat="41.3606350" lon="-8.7574730">
        <ele>8.6</ele>
        <time>2021-05-16T12:31:27Z</time>
      </trkpt>
      <trkpt lat="41.3606360" lon="-8.7574730">
        <ele>8.6</ele>
        <time>2021-05-16T12:31:28Z</time>
      </trkpt>
      <trkpt lat="41.3606350" lon="-8.7574740">
        <ele>8.6</ele>
        <time>2021-05-16T12:31:29Z</time>
      </trkpt>
      <trkpt lat="41.3606350" lon="-8.7574740">
        <ele>8.6</ele>
        <time>2021-05-16T12:31:30Z</time>
      </trkpt>
      <trkpt lat="41.3606330" lon="-8.7574750">
        <ele>8.6</ele>
        <time>2021-05-16T12:31:31Z</time>
      </trkpt>
      <trkpt lat="41.3606330" lon="-8.7574720">
        <ele>8.6</ele>
        <time>2021-05-16T12:31:32Z</time>
      </trkpt>
      <trkpt lat="41.3606300" lon="-8.7574730">
        <ele>8.6</ele>
        <time>2021-05-16T12:31:33Z</time>
      </trkpt>
      <trkpt lat="41.3606340" lon="-8.7574720">
        <ele>8.6</ele>
        <time>2021-05-16T12:31:34Z</time>
      </trkpt>
      <trkpt lat="41.3606350" lon="-8.7574740">
        <ele>8.6</ele>
        <time>2021-05-16T12:31:35Z</time>
      </trkpt>
      <trkpt lat="41.3606350" lon="-8.7574730">
        <ele>8.6</ele>
        <time>2021-05-16T12:31:36Z</time>
      </trkpt>
      <trkpt lat="41.3606390" lon="-8.7574750">
        <ele>8.6</ele>
        <time>2021-05-16T12:31:37Z</time>
      </trkpt>
      <trkpt lat="41.3606400" lon="-8.7574740">
        <ele>8.6</ele>
        <time>2021-05-16T12:31:38Z</time>
      </trkpt>
      <trkpt lat="41.3606400" lon="-8.7574740">
        <ele>8.6</ele>
        <time>2021-05-16T12:31:39Z</time>
      </trkpt>
      <trkpt lat="41.3606430" lon="-8.7574740">
        <ele>8.6</ele>
        <time>2021-05-16T12:31:40Z</time>
      </trkpt>
      <trkpt lat="41.3606410" lon="-8.7574760">
        <ele>8.6</ele>
        <time>2021-05-16T12:31:41Z</time>
      </trkpt>
      <trkpt lat="41.3606410" lon="-8.7574770">
        <ele>8.6</ele>
        <time>2021-05-16T12:31:42Z</time>
      </trkpt>
      <trkpt lat="41.3606390" lon="-8.7574810">
        <ele>8.6</ele>
        <time>2021-05-16T12:31:43Z</time>
      </trkpt>
      <trkpt lat="41.3606350" lon="-8.7574830">
        <ele>8.6</ele>
        <time>2021-05-16T12:31:44Z</time>
      </trkpt>
      <trkpt lat="41.3606350" lon="-8.7574830">
        <ele>8.6</ele>
        <time>2021-05-16T12:31:45Z</time>
      </trkpt>
      <trkpt lat="41.3606290" lon="-8.7574840">
        <ele>8.6</ele>
        <time>2021-05-16T12:31:46Z</time>
      </trkpt>
      <trkpt lat="41.3606280" lon="-8.7574860">
        <ele>8.6</ele>
        <time>2021-05-16T12:31:47Z</time>
      </trkpt>
      <trkpt lat="41.3606300" lon="-8.7574840">
        <ele>8.6</ele>
        <time>2021-05-16T12:31:48Z</time>
      </trkpt>
      <trkpt lat="41.3606300" lon="-8.7574840">
        <ele>8.6</ele>
        <time>2021-05-16T12:31:49Z</time>
      </trkpt>
      <trkpt lat="41.3606240" lon="-8.7574860">
        <ele>8.6</ele>
        <time>2021-05-16T12:31:50Z</time>
      </trkpt>
      <trkpt lat="41.3606240" lon="-8.7574860">
        <ele>8.6</ele>
        <time>2021-05-16T12:31:51Z</time>
      </trkpt>
      <trkpt lat="41.3606240" lon="-8.7574860">
        <ele>8.6</ele>
        <time>2021-05-16T12:31:52Z</time>
      </trkpt>
      <trkpt lat="41.3606240" lon="-8.7574860">
        <ele>8.6</ele>
        <time>2021-05-16T12:31:53Z</time>
      </trkpt>
      <trkpt lat="41.3606240" lon="-8.7574860">
        <ele>8.6</ele>
        <time>2021-05-16T12:31:54Z</time>
      </trkpt>
      <trkpt lat="41.3606170" lon="-8.7574880">
        <ele>8.6</ele>
        <time>2021-05-16T12:31:55Z</time>
      </trkpt>
      <trkpt lat="41.3606160" lon="-8.7574870">
        <ele>8.6</ele>
        <time>2021-05-16T12:31:56Z</time>
      </trkpt>
      <trkpt lat="41.3606150" lon="-8.7574840">
        <ele>8.6</ele>
        <time>2021-05-16T12:31:57Z</time>
      </trkpt>
      <trkpt lat="41.3606150" lon="-8.7574840">
        <ele>8.6</ele>
        <time>2021-05-16T12:31:58Z</time>
      </trkpt>
      <trkpt lat="41.3606180" lon="-8.7574870">
        <ele>8.6</ele>
        <time>2021-05-16T12:31:59Z</time>
      </trkpt>
      <trkpt lat="41.3606160" lon="-8.7574910">
        <ele>8.6</ele>
        <time>2021-05-16T12:32:00Z</time>
      </trkpt>
      <trkpt lat="41.3606160" lon="-8.7574910">
        <ele>8.6</ele>
        <time>2021-05-16T12:32:01Z</time>
      </trkpt>
      <trkpt lat="41.3606140" lon="-8.7574940">
        <ele>8.6</ele>
        <time>2021-05-16T12:32:02Z</time>
      </trkpt>
      <trkpt lat="41.3606060" lon="-8.7574990">
        <ele>8.6</ele>
        <time>2021-05-16T12:32:03Z</time>
      </trkpt>
      <trkpt lat="41.3606050" lon="-8.7575000">
        <ele>8.6</ele>
        <time>2021-05-16T12:32:04Z</time>
      </trkpt>
      <trkpt lat="41.3606050" lon="-8.7575000">
        <ele>8.6</ele>
        <time>2021-05-16T12:32:05Z</time>
      </trkpt>
      <trkpt lat="41.3606150" lon="-8.7574970">
        <ele>8.6</ele>
        <time>2021-05-16T12:32:06Z</time>
      </trkpt>
      <trkpt lat="41.3606180" lon="-8.7574970">
        <ele>8.6</ele>
        <time>2021-05-16T12:32:07Z</time>
      </trkpt>
      <trkpt lat="41.3606180" lon="-8.7574980">
        <ele>8.6</ele>
        <time>2021-05-16T12:32:08Z</time>
      </trkpt>
      <trkpt lat="41.3606190" lon="-8.7574940">
        <ele>8.6</ele>
        <time>2021-05-16T12:32:09Z</time>
      </trkpt>
      <trkpt lat="41.3606210" lon="-8.7574940">
        <ele>8.6</ele>
        <time>2021-05-16T12:32:10Z</time>
      </trkpt>
      <trkpt lat="41.3606210" lon="-8.7574940">
        <ele>8.6</ele>
        <time>2021-05-16T12:32:11Z</time>
      </trkpt>
      <trkpt lat="41.3606230" lon="-8.7574930">
        <ele>8.6</ele>
        <time>2021-05-16T12:32:12Z</time>
      </trkpt>
      <trkpt lat="41.3606250" lon="-8.7574910">
        <ele>8.6</ele>
        <time>2021-05-16T12:32:13Z</time>
      </trkpt>
      <trkpt lat="41.3606250" lon="-8.7574910">
        <ele>8.6</ele>
        <time>2021-05-16T12:32:14Z</time>
      </trkpt>
      <trkpt lat="41.3606250" lon="-8.7574910">
        <ele>8.6</ele>
        <time>2021-05-16T12:32:15Z</time>
      </trkpt>
      <trkpt lat="41.3606250" lon="-8.7574910">
        <ele>8.6</ele>
        <time>2021-05-16T12:32:16Z</time>
      </trkpt>
      <trkpt lat="41.3606250" lon="-8.7574910">
        <ele>8.6</ele>
        <time>2021-05-16T12:32:17Z</time>
      </trkpt>
      <trkpt lat="41.3606250" lon="-8.7574910">
        <ele>8.6</ele>
        <time>2021-05-16T12:32:18Z</time>
      </trkpt>
      <trkpt lat="41.3606250" lon="-8.7574910">
        <ele>8.6</ele>
        <time>2021-05-16T12:32:19Z</time>
      </trkpt>
      <trkpt lat="41.3606250" lon="-8.7574910">
        <ele>8.6</ele>
        <time>2021-05-16T12:32:20Z</time>
      </trkpt>
      <trkpt lat="41.3606250" lon="-8.7574910">
        <ele>8.6</ele>
        <time>2021-05-16T12:32:21Z</time>
      </trkpt>
      <trkpt lat="41.3606250" lon="-8.7574910">
        <ele>8.6</ele>
        <time>2021-05-16T12:32:22Z</time>
      </trkpt>
      <trkpt lat="41.3606250" lon="-8.7574910">
        <ele>8.6</ele>
        <time>2021-05-16T12:32:23Z</time>
      </trkpt>
      <trkpt lat="41.3606250" lon="-8.7574910">
        <ele>8.6</ele>
        <time>2021-05-16T12:32:24Z</time>
      </trkpt>
      <trkpt lat="41.3606120" lon="-8.7574880">
        <ele>8.6</ele>
        <time>2021-05-16T12:32:25Z</time>
      </trkpt>
      <trkpt lat="41.3606130" lon="-8.7574870">
        <ele>8.6</ele>
        <time>2021-05-16T12:32:26Z</time>
      </trkpt>
      <trkpt lat="41.3606130" lon="-8.7574870">
        <ele>8.6</ele>
        <time>2021-05-16T12:32:27Z</time>
      </trkpt>
      <trkpt lat="41.3606130" lon="-8.7574870">
        <ele>8.6</ele>
        <time>2021-05-16T12:32:28Z</time>
      </trkpt>
      <trkpt lat="41.3606130" lon="-8.7574870">
        <ele>8.6</ele>
        <time>2021-05-16T12:32:29Z</time>
      </trkpt>
      <trkpt lat="41.3606110" lon="-8.7574880">
        <ele>8.6</ele>
        <time>2021-05-16T12:32:30Z</time>
      </trkpt>
      <trkpt lat="41.3606110" lon="-8.7574880">
        <ele>8.6</ele>
        <time>2021-05-16T12:32:31Z</time>
      </trkpt>
      <trkpt lat="41.3606110" lon="-8.7574880">
        <ele>8.6</ele>
        <time>2021-05-16T12:32:32Z</time>
      </trkpt>
      <trkpt lat="41.3606110" lon="-8.7574880">
        <ele>8.6</ele>
        <time>2021-05-16T12:32:33Z</time>
      </trkpt>
      <trkpt lat="41.3606110" lon="-8.7574880">
        <ele>8.6</ele>
        <time>2021-05-16T12:32:34Z</time>
      </trkpt>
      <trkpt lat="41.3606110" lon="-8.7574880">
        <ele>8.6</ele>
        <time>2021-05-16T12:32:35Z</time>
      </trkpt>
      <trkpt lat="41.3606110" lon="-8.7574880">
        <ele>8.6</ele>
        <time>2021-05-16T12:32:36Z</time>
      </trkpt>
      <trkpt lat="41.3606110" lon="-8.7574880">
        <ele>8.6</ele>
        <time>2021-05-16T12:32:37Z</time>
      </trkpt>
      <trkpt lat="41.3606110" lon="-8.7574880">
        <ele>8.6</ele>
        <time>2021-05-16T12:32:38Z</time>
      </trkpt>
      <trkpt lat="41.3606110" lon="-8.7574880">
        <ele>8.6</ele>
        <time>2021-05-16T12:32:39Z</time>
      </trkpt>
      <trkpt lat="41.3606110" lon="-8.7574880">
        <ele>8.6</ele>
        <time>2021-05-16T12:32:40Z</time>
      </trkpt>
      <trkpt lat="41.3606110" lon="-8.7574880">
        <ele>8.6</ele>
        <time>2021-05-16T12:32:41Z</time>
      </trkpt>
      <trkpt lat="41.3606110" lon="-8.7574880">
        <ele>8.6</ele>
        <time>2021-05-16T12:32:42Z</time>
      </trkpt>
      <trkpt lat="41.3606110" lon="-8.7574880">
        <ele>8.6</ele>
        <time>2021-05-16T12:32:43Z</time>
      </trkpt>
      <trkpt lat="41.3606110" lon="-8.7574880">
        <ele>8.6</ele>
        <time>2021-05-16T12:32:44Z</time>
      </trkpt>
      <trkpt lat="41.3606110" lon="-8.7574880">
        <ele>8.6</ele>
        <time>2021-05-16T12:32:45Z</time>
      </trkpt>
      <trkpt lat="41.3606110" lon="-8.7574880">
        <ele>8.6</ele>
        <time>2021-05-16T12:32:46Z</time>
      </trkpt>
      <trkpt lat="41.3606110" lon="-8.7574880">
        <ele>8.6</ele>
        <time>2021-05-16T12:32:47Z</time>
      </trkpt>
      <trkpt lat="41.3606110" lon="-8.7574880">
        <ele>8.6</ele>
        <time>2021-05-16T12:32:48Z</time>
      </trkpt>
      <trkpt lat="41.3606110" lon="-8.7574880">
        <ele>8.6</ele>
        <time>2021-05-16T12:32:49Z</time>
      </trkpt>
      <trkpt lat="41.3606110" lon="-8.7574880">
        <ele>8.6</ele>
        <time>2021-05-16T12:32:50Z</time>
      </trkpt>
      <trkpt lat="41.3606030" lon="-8.7574880">
        <ele>8.6</ele>
        <time>2021-05-16T12:32:51Z</time>
      </trkpt>
      <trkpt lat="41.3606030" lon="-8.7574870">
        <ele>8.6</ele>
        <time>2021-05-16T12:32:52Z</time>
      </trkpt>
      <trkpt lat="41.3606030" lon="-8.7574870">
        <ele>8.6</ele>
        <time>2021-05-16T12:32:53Z</time>
      </trkpt>
      <trkpt lat="41.3606030" lon="-8.7574870">
        <ele>8.6</ele>
        <time>2021-05-16T12:32:54Z</time>
      </trkpt>
      <trkpt lat="41.3606030" lon="-8.7574870">
        <ele>8.6</ele>
        <time>2021-05-16T12:32:55Z</time>
      </trkpt>
      <trkpt lat="41.3606030" lon="-8.7574870">
        <ele>8.6</ele>
        <time>2021-05-16T12:32:56Z</time>
      </trkpt>
      <trkpt lat="41.3606030" lon="-8.7574870">
        <ele>8.6</ele>
        <time>2021-05-16T12:32:57Z</time>
      </trkpt>
      <trkpt lat="41.3606030" lon="-8.7574870">
        <ele>8.6</ele>
        <time>2021-05-16T12:32:58Z</time>
      </trkpt>
      <trkpt lat="41.3606030" lon="-8.7574870">
        <ele>8.6</ele>
        <time>2021-05-16T12:32:59Z</time>
      </trkpt>
      <trkpt lat="41.3606030" lon="-8.7574870">
        <ele>8.6</ele>
        <time>2021-05-16T12:33:00Z</time>
      </trkpt>
      <trkpt lat="41.3606030" lon="-8.7574870">
        <ele>8.6</ele>
        <time>2021-05-16T12:33:01Z</time>
      </trkpt>
      <trkpt lat="41.3606030" lon="-8.7574870">
        <ele>8.6</ele>
        <time>2021-05-16T12:33:02Z</time>
      </trkpt>
      <trkpt lat="41.3606030" lon="-8.7574870">
        <ele>8.6</ele>
        <time>2021-05-16T12:33:03Z</time>
      </trkpt>
      <trkpt lat="41.3606030" lon="-8.7574870">
        <ele>8.6</ele>
        <time>2021-05-16T12:33:04Z</time>
      </trkpt>
      <trkpt lat="41.3606030" lon="-8.7574870">
        <ele>8.6</ele>
        <time>2021-05-16T12:33:05Z</time>
      </trkpt>
      <trkpt lat="41.3606030" lon="-8.7574870">
        <ele>8.6</ele>
        <time>2021-05-16T12:33:06Z</time>
      </trkpt>
      <trkpt lat="41.3606030" lon="-8.7574870">
        <ele>8.6</ele>
        <time>2021-05-16T12:33:07Z</time>
      </trkpt>
      <trkpt lat="41.3606030" lon="-8.7574870">
        <ele>8.6</ele>
        <time>2021-05-16T12:33:08Z</time>
      </trkpt>
      <trkpt lat="41.3606070" lon="-8.7574730">
        <ele>8.6</ele>
        <time>2021-05-16T12:33:09Z</time>
      </trkpt>
      <trkpt lat="41.3606100" lon="-8.7574720">
        <ele>8.6</ele>
        <time>2021-05-16T12:33:10Z</time>
      </trkpt>
      <trkpt lat="41.3606110" lon="-8.7574730">
        <ele>8.6</ele>
        <time>2021-05-16T12:33:11Z</time>
      </trkpt>
      <trkpt lat="41.3606120" lon="-8.7574710">
        <ele>8.6</ele>
        <time>2021-05-16T12:33:12Z</time>
      </trkpt>
      <trkpt lat="41.3606120" lon="-8.7574710">
        <ele>8.6</ele>
        <time>2021-05-16T12:33:13Z</time>
      </trkpt>
      <trkpt lat="41.3606130" lon="-8.7574720">
        <ele>8.6</ele>
        <time>2021-05-16T12:33:14Z</time>
      </trkpt>
      <trkpt lat="41.3606130" lon="-8.7574720">
        <ele>8.6</ele>
        <time>2021-05-16T12:33:15Z</time>
      </trkpt>
      <trkpt lat="41.3606130" lon="-8.7574720">
        <ele>8.6</ele>
        <time>2021-05-16T12:33:16Z</time>
      </trkpt>
      <trkpt lat="41.3606160" lon="-8.7574730">
        <ele>8.6</ele>
        <time>2021-05-16T12:33:17Z</time>
      </trkpt>
      <trkpt lat="41.3606160" lon="-8.7574730">
        <ele>8.6</ele>
        <time>2021-05-16T12:33:18Z</time>
      </trkpt>
      <trkpt lat="41.3606160" lon="-8.7574730">
        <ele>8.6</ele>
        <time>2021-05-16T12:33:19Z</time>
      </trkpt>
      <trkpt lat="41.3606160" lon="-8.7574730">
        <ele>8.6</ele>
        <time>2021-05-16T12:33:20Z</time>
      </trkpt>
      <trkpt lat="41.3606300" lon="-8.7574690">
        <ele>8.6</ele>
        <time>2021-05-16T12:33:21Z</time>
      </trkpt>
      <trkpt lat="41.3606340" lon="-8.7574670">
        <ele>8.6</ele>
        <time>2021-05-16T12:33:22Z</time>
      </trkpt>
      <trkpt lat="41.3606350" lon="-8.7574670">
        <ele>8.6</ele>
        <time>2021-05-16T12:33:23Z</time>
      </trkpt>
      <trkpt lat="41.3606430" lon="-8.7574650">
        <ele>8.6</ele>
        <time>2021-05-16T12:33:24Z</time>
      </trkpt>
      <trkpt lat="41.3606450" lon="-8.7574620">
        <ele>8.6</ele>
        <time>2021-05-16T12:33:25Z</time>
      </trkpt>
      <trkpt lat="41.3606450" lon="-8.7574620">
        <ele>8.6</ele>
        <time>2021-05-16T12:33:26Z</time>
      </trkpt>
      <trkpt lat="41.3606450" lon="-8.7574620">
        <ele>8.6</ele>
        <time>2021-05-16T12:33:27Z</time>
      </trkpt>
      <trkpt lat="41.3606450" lon="-8.7574620">
        <ele>8.6</ele>
        <time>2021-05-16T12:33:28Z</time>
      </trkpt>
      <trkpt lat="41.3606450" lon="-8.7574620">
        <ele>8.6</ele>
        <time>2021-05-16T12:33:29Z</time>
      </trkpt>
      <trkpt lat="41.3606520" lon="-8.7574670">
        <ele>8.6</ele>
        <time>2021-05-16T12:33:30Z</time>
      </trkpt>
      <trkpt lat="41.3606510" lon="-8.7574640">
        <ele>8.6</ele>
        <time>2021-05-16T12:33:32Z</time>
      </trkpt>
      <trkpt lat="41.3606510" lon="-8.7574630">
        <ele>8.6</ele>
        <time>2021-05-16T12:33:33Z</time>
      </trkpt>
      <trkpt lat="41.3606480" lon="-8.7574670">
        <ele>8.6</ele>
        <time>2021-05-16T12:33:34Z</time>
      </trkpt>
      <trkpt lat="41.3606470" lon="-8.7574660">
        <ele>8.6</ele>
        <time>2021-05-16T12:33:35Z</time>
      </trkpt>
      <trkpt lat="41.3606460" lon="-8.7574630">
        <ele>8.6</ele>
        <time>2021-05-16T12:33:36Z</time>
      </trkpt>
      <trkpt lat="41.3606480" lon="-8.7574600">
        <ele>8.6</ele>
        <time>2021-05-16T12:33:37Z</time>
      </trkpt>
      <trkpt lat="41.3606480" lon="-8.7574600">
        <ele>8.6</ele>
        <time>2021-05-16T12:33:38Z</time>
      </trkpt>
      <trkpt lat="41.3606470" lon="-8.7574610">
        <ele>8.6</ele>
        <time>2021-05-16T12:33:39Z</time>
      </trkpt>
      <trkpt lat="41.3606470" lon="-8.7574610">
        <ele>8.6</ele>
        <time>2021-05-16T12:33:40Z</time>
      </trkpt>
      <trkpt lat="41.3606490" lon="-8.7574650">
        <ele>8.6</ele>
        <time>2021-05-16T12:33:41Z</time>
      </trkpt>
      <trkpt lat="41.3606490" lon="-8.7574650">
        <ele>8.6</ele>
        <time>2021-05-16T12:33:42Z</time>
      </trkpt>
      <trkpt lat="41.3606490" lon="-8.7574650">
        <ele>8.6</ele>
        <time>2021-05-16T12:33:43Z</time>
      </trkpt>
      <trkpt lat="41.3606520" lon="-8.7574640">
        <ele>8.6</ele>
        <time>2021-05-16T12:33:44Z</time>
      </trkpt>
      <trkpt lat="41.3606530" lon="-8.7574620">
        <ele>8.6</ele>
        <time>2021-05-16T12:33:45Z</time>
      </trkpt>
      <trkpt lat="41.3606540" lon="-8.7574620">
        <ele>8.6</ele>
        <time>2021-05-16T12:33:46Z</time>
      </trkpt>
      <trkpt lat="41.3606550" lon="-8.7574600">
        <ele>8.6</ele>
        <time>2021-05-16T12:33:47Z</time>
      </trkpt>
      <trkpt lat="41.3606570" lon="-8.7574610">
        <ele>8.6</ele>
        <time>2021-05-16T12:33:48Z</time>
      </trkpt>
      <trkpt lat="41.3606600" lon="-8.7574610">
        <ele>8.6</ele>
        <time>2021-05-16T12:33:49Z</time>
      </trkpt>
      <trkpt lat="41.3606600" lon="-8.7574610">
        <ele>8.6</ele>
        <time>2021-05-16T12:33:50Z</time>
      </trkpt>
      <trkpt lat="41.3606570" lon="-8.7574600">
        <ele>8.6</ele>
        <time>2021-05-16T12:33:51Z</time>
      </trkpt>
      <trkpt lat="41.3606570" lon="-8.7574600">
        <ele>8.6</ele>
        <time>2021-05-16T12:33:52Z</time>
      </trkpt>
      <trkpt lat="41.3606560" lon="-8.7574600">
        <ele>8.6</ele>
        <time>2021-05-16T12:33:53Z</time>
      </trkpt>
      <trkpt lat="41.3606550" lon="-8.7574590">
        <ele>8.6</ele>
        <time>2021-05-16T12:33:54Z</time>
      </trkpt>
      <trkpt lat="41.3606550" lon="-8.7574600">
        <ele>8.6</ele>
        <time>2021-05-16T12:33:55Z</time>
      </trkpt>
      <trkpt lat="41.3606530" lon="-8.7574630">
        <ele>8.6</ele>
        <time>2021-05-16T12:33:56Z</time>
      </trkpt>
      <trkpt lat="41.3606530" lon="-8.7574630">
        <ele>8.6</ele>
        <time>2021-05-16T12:33:57Z</time>
      </trkpt>
      <trkpt lat="41.3606530" lon="-8.7574630">
        <ele>8.6</ele>
        <time>2021-05-16T12:33:58Z</time>
      </trkpt>
      <trkpt lat="41.3606530" lon="-8.7574630">
        <ele>8.6</ele>
        <time>2021-05-16T12:33:59Z</time>
      </trkpt>
      <trkpt lat="41.3606530" lon="-8.7574630">
        <ele>8.6</ele>
        <time>2021-05-16T12:34:00Z</time>
      </trkpt>
      <trkpt lat="41.3606530" lon="-8.7574630">
        <ele>8.6</ele>
        <time>2021-05-16T12:34:01Z</time>
      </trkpt>
      <trkpt lat="41.3606520" lon="-8.7574660">
        <ele>8.6</ele>
        <time>2021-05-16T12:34:02Z</time>
      </trkpt>
      <trkpt lat="41.3606510" lon="-8.7574660">
        <ele>8.6</ele>
        <time>2021-05-16T12:34:03Z</time>
      </trkpt>
      <trkpt lat="41.3606510" lon="-8.7574660">
        <ele>8.6</ele>
        <time>2021-05-16T12:34:04Z</time>
      </trkpt>
      <trkpt lat="41.3606490" lon="-8.7574680">
        <ele>8.6</ele>
        <time>2021-05-16T12:34:05Z</time>
      </trkpt>
      <trkpt lat="41.3606500" lon="-8.7574690">
        <ele>8.6</ele>
        <time>2021-05-16T12:34:06Z</time>
      </trkpt>
      <trkpt lat="41.3606500" lon="-8.7574690">
        <ele>8.6</ele>
        <time>2021-05-16T12:34:07Z</time>
      </trkpt>
      <trkpt lat="41.3606500" lon="-8.7574690">
        <ele>8.6</ele>
        <time>2021-05-16T12:34:08Z</time>
      </trkpt>
      <trkpt lat="41.3606510" lon="-8.7574700">
        <ele>8.6</ele>
        <time>2021-05-16T12:34:09Z</time>
      </trkpt>
      <trkpt lat="41.3606520" lon="-8.7574710">
        <ele>8.6</ele>
        <time>2021-05-16T12:34:10Z</time>
      </trkpt>
      <trkpt lat="41.3606540" lon="-8.7574700">
        <ele>8.6</ele>
        <time>2021-05-16T12:34:11Z</time>
      </trkpt>
      <trkpt lat="41.3606560" lon="-8.7574680">
        <ele>8.6</ele>
        <time>2021-05-16T12:34:12Z</time>
      </trkpt>
      <trkpt lat="41.3606570" lon="-8.7574680">
        <ele>8.6</ele>
        <time>2021-05-16T12:34:13Z</time>
      </trkpt>
      <trkpt lat="41.3606570" lon="-8.7574680">
        <ele>8.6</ele>
        <time>2021-05-16T12:34:14Z</time>
      </trkpt>
      <trkpt lat="41.3606590" lon="-8.7574690">
        <ele>8.6</ele>
        <time>2021-05-16T12:34:15Z</time>
      </trkpt>
      <trkpt lat="41.3606610" lon="-8.7574690">
        <ele>8.6</ele>
        <time>2021-05-16T12:34:16Z</time>
      </trkpt>
      <trkpt lat="41.3606610" lon="-8.7574690">
        <ele>8.6</ele>
        <time>2021-05-16T12:34:17Z</time>
      </trkpt>
      <trkpt lat="41.3606610" lon="-8.7574710">
        <ele>8.6</ele>
        <time>2021-05-16T12:34:18Z</time>
      </trkpt>
      <trkpt lat="41.3606610" lon="-8.7574710">
        <ele>8.6</ele>
        <time>2021-05-16T12:34:19Z</time>
      </trkpt>
      <trkpt lat="41.3606590" lon="-8.7574730">
        <ele>8.6</ele>
        <time>2021-05-16T12:34:20Z</time>
      </trkpt>
      <trkpt lat="41.3606590" lon="-8.7574730">
        <ele>8.6</ele>
        <time>2021-05-16T12:34:21Z</time>
      </trkpt>
      <trkpt lat="41.3606590" lon="-8.7574730">
        <ele>8.6</ele>
        <time>2021-05-16T12:34:22Z</time>
      </trkpt>
      <trkpt lat="41.3606590" lon="-8.7574730">
        <ele>8.6</ele>
        <time>2021-05-16T12:34:23Z</time>
      </trkpt>
      <trkpt lat="41.3606590" lon="-8.7574730">
        <ele>8.6</ele>
        <time>2021-05-16T12:34:24Z</time>
      </trkpt>
      <trkpt lat="41.3606590" lon="-8.7574730">
        <ele>8.6</ele>
        <time>2021-05-16T12:34:25Z</time>
      </trkpt>
      <trkpt lat="41.3606590" lon="-8.7574730">
        <ele>8.6</ele>
        <time>2021-05-16T12:34:26Z</time>
      </trkpt>
      <trkpt lat="41.3606590" lon="-8.7574730">
        <ele>8.6</ele>
        <time>2021-05-16T12:34:27Z</time>
      </trkpt>
      <trkpt lat="41.3606590" lon="-8.7574730">
        <ele>8.6</ele>
        <time>2021-05-16T12:34:28Z</time>
      </trkpt>
      <trkpt lat="41.3606590" lon="-8.7574730">
        <ele>8.6</ele>
        <time>2021-05-16T12:34:29Z</time>
      </trkpt>
      <trkpt lat="41.3606590" lon="-8.7574730">
        <ele>8.6</ele>
        <time>2021-05-16T12:34:30Z</time>
      </trkpt>
      <trkpt lat="41.3606590" lon="-8.7574730">
        <ele>8.6</ele>
        <time>2021-05-16T12:34:31Z</time>
      </trkpt>
      <trkpt lat="41.3606590" lon="-8.7574730">
        <ele>8.6</ele>
        <time>2021-05-16T12:34:32Z</time>
      </trkpt>
      <trkpt lat="41.3606590" lon="-8.7574730">
        <ele>8.6</ele>
        <time>2021-05-16T12:34:33Z</time>
      </trkpt>
      <trkpt lat="41.3606590" lon="-8.7574730">
        <ele>8.6</ele>
        <time>2021-05-16T12:34:34Z</time>
      </trkpt>
      <trkpt lat="41.3606590" lon="-8.7574730">
        <ele>8.6</ele>
        <time>2021-05-16T12:34:35Z</time>
      </trkpt>
      <trkpt lat="41.3606590" lon="-8.7574730">
        <ele>8.6</ele>
        <time>2021-05-16T12:34:36Z</time>
      </trkpt>
      <trkpt lat="41.3606590" lon="-8.7574730">
        <ele>8.6</ele>
        <time>2021-05-16T12:34:37Z</time>
      </trkpt>
      <trkpt lat="41.3606590" lon="-8.7574730">
        <ele>8.6</ele>
        <time>2021-05-16T12:34:38Z</time>
      </trkpt>
      <trkpt lat="41.3606590" lon="-8.7574730">
        <ele>8.6</ele>
        <time>2021-05-16T12:34:39Z</time>
      </trkpt>
      <trkpt lat="41.3606590" lon="-8.7574730">
        <ele>8.6</ele>
        <time>2021-05-16T12:34:40Z</time>
      </trkpt>
      <trkpt lat="41.3606590" lon="-8.7574730">
        <ele>8.6</ele>
        <time>2021-05-16T12:34:41Z</time>
      </trkpt>
      <trkpt lat="41.3606590" lon="-8.7574730">
        <ele>8.6</ele>
        <time>2021-05-16T12:34:42Z</time>
      </trkpt>
      <trkpt lat="41.3606590" lon="-8.7574730">
        <ele>8.6</ele>
        <time>2021-05-16T12:34:43Z</time>
      </trkpt>
      <trkpt lat="41.3606590" lon="-8.7574730">
        <ele>8.6</ele>
        <time>2021-05-16T12:34:44Z</time>
      </trkpt>
      <trkpt lat="41.3606590" lon="-8.7574730">
        <ele>8.6</ele>
        <time>2021-05-16T12:34:45Z</time>
      </trkpt>
      <trkpt lat="41.3606590" lon="-8.7574730">
        <ele>8.6</ele>
        <time>2021-05-16T12:34:46Z</time>
      </trkpt>
      <trkpt lat="41.3606590" lon="-8.7574730">
        <ele>8.6</ele>
        <time>2021-05-16T12:34:47Z</time>
      </trkpt>
      <trkpt lat="41.3606330" lon="-8.7574840">
        <ele>8.6</ele>
        <time>2021-05-16T12:34:48Z</time>
      </trkpt>
      <trkpt lat="41.3606330" lon="-8.7574840">
        <ele>8.6</ele>
        <time>2021-05-16T12:34:49Z</time>
      </trkpt>
      <trkpt lat="41.3606330" lon="-8.7574840">
        <ele>8.6</ele>
        <time>2021-05-16T12:34:50Z</time>
      </trkpt>
      <trkpt lat="41.3606330" lon="-8.7574840">
        <ele>8.6</ele>
        <time>2021-05-16T12:34:51Z</time>
      </trkpt>
      <trkpt lat="41.3606330" lon="-8.7574840">
        <ele>8.6</ele>
        <time>2021-05-16T12:34:52Z</time>
      </trkpt>
      <trkpt lat="41.3606330" lon="-8.7574840">
        <ele>8.6</ele>
        <time>2021-05-16T12:34:53Z</time>
      </trkpt>
      <trkpt lat="41.3606330" lon="-8.7574840">
        <ele>8.6</ele>
        <time>2021-05-16T12:34:54Z</time>
      </trkpt>
      <trkpt lat="41.3606330" lon="-8.7574840">
        <ele>8.6</ele>
        <time>2021-05-16T12:34:55Z</time>
      </trkpt>
      <trkpt lat="41.3606330" lon="-8.7574840">
        <ele>8.6</ele>
        <time>2021-05-16T12:34:56Z</time>
      </trkpt>
      <trkpt lat="41.3606330" lon="-8.7574840">
        <ele>8.6</ele>
        <time>2021-05-16T12:34:57Z</time>
      </trkpt>
      <trkpt lat="41.3606330" lon="-8.7574840">
        <ele>8.6</ele>
        <time>2021-05-16T12:34:58Z</time>
      </trkpt>
      <trkpt lat="41.3606330" lon="-8.7574840">
        <ele>8.6</ele>
        <time>2021-05-16T12:34:59Z</time>
      </trkpt>
      <trkpt lat="41.3606330" lon="-8.7574840">
        <ele>8.6</ele>
        <time>2021-05-16T12:35:00Z</time>
      </trkpt>
      <trkpt lat="41.3606330" lon="-8.7574840">
        <ele>8.6</ele>
        <time>2021-05-16T12:35:01Z</time>
      </trkpt>
      <trkpt lat="41.3606390" lon="-8.7574750">
        <ele>8.6</ele>
        <time>2021-05-16T12:35:02Z</time>
      </trkpt>
      <trkpt lat="41.3606400" lon="-8.7574730">
        <ele>8.6</ele>
        <time>2021-05-16T12:35:03Z</time>
      </trkpt>
      <trkpt lat="41.3606410" lon="-8.7574710">
        <ele>8.6</ele>
        <time>2021-05-16T12:35:04Z</time>
      </trkpt>
      <trkpt lat="41.3606430" lon="-8.7574690">
        <ele>8.6</ele>
        <time>2021-05-16T12:35:05Z</time>
      </trkpt>
      <trkpt lat="41.3606420" lon="-8.7574690">
        <ele>8.6</ele>
        <time>2021-05-16T12:35:06Z</time>
      </trkpt>
      <trkpt lat="41.3606430" lon="-8.7574690">
        <ele>8.6</ele>
        <time>2021-05-16T12:35:07Z</time>
      </trkpt>
      <trkpt lat="41.3606440" lon="-8.7574670">
        <ele>8.6</ele>
        <time>2021-05-16T12:35:08Z</time>
      </trkpt>
      <trkpt lat="41.3606450" lon="-8.7574660">
        <ele>8.6</ele>
        <time>2021-05-16T12:35:09Z</time>
      </trkpt>
      <trkpt lat="41.3606460" lon="-8.7574650">
        <ele>8.6</ele>
        <time>2021-05-16T12:35:10Z</time>
      </trkpt>
      <trkpt lat="41.3606460" lon="-8.7574650">
        <ele>8.6</ele>
        <time>2021-05-16T12:35:11Z</time>
      </trkpt>
      <trkpt lat="41.3606410" lon="-8.7574710">
        <ele>8.6</ele>
        <time>2021-05-16T12:35:12Z</time>
      </trkpt>
      <trkpt lat="41.3606410" lon="-8.7574710">
        <ele>8.6</ele>
        <time>2021-05-16T12:35:13Z</time>
      </trkpt>
      <trkpt lat="41.3606400" lon="-8.7574720">
        <ele>8.6</ele>
        <time>2021-05-16T12:35:14Z</time>
      </trkpt>
      <trkpt lat="41.3606410" lon="-8.7574720">
        <ele>8.6</ele>
        <time>2021-05-16T12:35:15Z</time>
      </trkpt>
      <trkpt lat="41.3606420" lon="-8.7574700">
        <ele>8.6</ele>
        <time>2021-05-16T12:35:16Z</time>
      </trkpt>
      <trkpt lat="41.3606410" lon="-8.7574700">
        <ele>8.6</ele>
        <time>2021-05-16T12:35:17Z</time>
      </trkpt>
      <trkpt lat="41.3606400" lon="-8.7574730">
        <ele>8.6</ele>
        <time>2021-05-16T12:35:18Z</time>
      </trkpt>
      <trkpt lat="41.3606430" lon="-8.7574720">
        <ele>8.6</ele>
        <time>2021-05-16T12:35:19Z</time>
      </trkpt>
      <trkpt lat="41.3606430" lon="-8.7574720">
        <ele>8.6</ele>
        <time>2021-05-16T12:35:20Z</time>
      </trkpt>
      <trkpt lat="41.3606420" lon="-8.7574720">
        <ele>8.6</ele>
        <time>2021-05-16T12:35:21Z</time>
      </trkpt>
      <trkpt lat="41.3606430" lon="-8.7574720">
        <ele>8.6</ele>
        <time>2021-05-16T12:35:22Z</time>
      </trkpt>
      <trkpt lat="41.3606430" lon="-8.7574720">
        <ele>8.6</ele>
        <time>2021-05-16T12:35:23Z</time>
      </trkpt>
      <trkpt lat="41.3606430" lon="-8.7574720">
        <ele>8.6</ele>
        <time>2021-05-16T12:35:24Z</time>
      </trkpt>
      <trkpt lat="41.3606390" lon="-8.7574740">
        <ele>8.6</ele>
        <time>2021-05-16T12:35:25Z</time>
      </trkpt>
      <trkpt lat="41.3606380" lon="-8.7574760">
        <ele>8.6</ele>
        <time>2021-05-16T12:35:26Z</time>
      </trkpt>
      <trkpt lat="41.3606380" lon="-8.7574760">
        <ele>8.6</ele>
        <time>2021-05-16T12:35:27Z</time>
      </trkpt>
      <trkpt lat="41.3606350" lon="-8.7574800">
        <ele>8.6</ele>
        <time>2021-05-16T12:35:28Z</time>
      </trkpt>
      <trkpt lat="41.3606340" lon="-8.7574820">
        <ele>8.6</ele>
        <time>2021-05-16T12:35:29Z</time>
      </trkpt>
      <trkpt lat="41.3606340" lon="-8.7574840">
        <ele>8.6</ele>
        <time>2021-05-16T12:35:30Z</time>
      </trkpt>
      <trkpt lat="41.3606340" lon="-8.7574840">
        <ele>8.6</ele>
        <time>2021-05-16T12:35:31Z</time>
      </trkpt>
      <trkpt lat="41.3606300" lon="-8.7574940">
        <ele>8.6</ele>
        <time>2021-05-16T12:35:32Z</time>
      </trkpt>
      <trkpt lat="41.3606330" lon="-8.7574930">
        <ele>8.6</ele>
        <time>2021-05-16T12:35:33Z</time>
      </trkpt>
      <trkpt lat="41.3606310" lon="-8.7574890">
        <ele>8.6</ele>
        <time>2021-05-16T12:35:34Z</time>
      </trkpt>
      <trkpt lat="41.3606330" lon="-8.7574910">
        <ele>8.6</ele>
        <time>2021-05-16T12:35:36Z</time>
      </trkpt>
      <trkpt lat="41.3606330" lon="-8.7574930">
        <ele>8.6</ele>
        <time>2021-05-16T12:35:37Z</time>
      </trkpt>
      <trkpt lat="41.3606340" lon="-8.7574950">
        <ele>8.6</ele>
        <time>2021-05-16T12:35:38Z</time>
      </trkpt>
      <trkpt lat="41.3606350" lon="-8.7574930">
        <ele>8.6</ele>
        <time>2021-05-16T12:35:39Z</time>
      </trkpt>
      <trkpt lat="41.3606360" lon="-8.7574930">
        <ele>8.6</ele>
        <time>2021-05-16T12:35:40Z</time>
      </trkpt>
      <trkpt lat="41.3606380" lon="-8.7574890">
        <ele>8.6</ele>
        <time>2021-05-16T12:35:41Z</time>
      </trkpt>
      <trkpt lat="41.3606400" lon="-8.7574840">
        <ele>8.6</ele>
        <time>2021-05-16T12:35:42Z</time>
      </trkpt>
      <trkpt lat="41.3606410" lon="-8.7574820">
        <ele>8.6</ele>
        <time>2021-05-16T12:35:43Z</time>
      </trkpt>
      <trkpt lat="41.3606410" lon="-8.7574820">
        <ele>8.6</ele>
        <time>2021-05-16T12:35:44Z</time>
      </trkpt>
      <trkpt lat="41.3606330" lon="-8.7574810">
        <ele>8.6</ele>
        <time>2021-05-16T12:35:45Z</time>
      </trkpt>
      <trkpt lat="41.3606330" lon="-8.7574810">
        <ele>8.6</ele>
        <time>2021-05-16T12:35:46Z</time>
      </trkpt>
      <trkpt lat="41.3606330" lon="-8.7574810">
        <ele>8.6</ele>
        <time>2021-05-16T12:35:47Z</time>
      </trkpt>
      <trkpt lat="41.3606290" lon="-8.7574770">
        <ele>8.6</ele>
        <time>2021-05-16T12:35:48Z</time>
      </trkpt>
      <trkpt lat="41.3606300" lon="-8.7574740">
        <ele>8.6</ele>
        <time>2021-05-16T12:35:49Z</time>
      </trkpt>
      <trkpt lat="41.3606300" lon="-8.7574730">
        <ele>8.6</ele>
        <time>2021-05-16T12:35:50Z</time>
      </trkpt>
      <trkpt lat="41.3606310" lon="-8.7574730">
        <ele>8.6</ele>
        <time>2021-05-16T12:35:51Z</time>
      </trkpt>
      <trkpt lat="41.3606360" lon="-8.7574730">
        <ele>8.6</ele>
        <time>2021-05-16T12:35:52Z</time>
      </trkpt>
      <trkpt lat="41.3606360" lon="-8.7574720">
        <ele>8.6</ele>
        <time>2021-05-16T12:35:53Z</time>
      </trkpt>
      <trkpt lat="41.3606390" lon="-8.7574690">
        <ele>8.6</ele>
        <time>2021-05-16T12:35:54Z</time>
      </trkpt>
      <trkpt lat="41.3606390" lon="-8.7574690">
        <ele>8.6</ele>
        <time>2021-05-16T12:35:55Z</time>
      </trkpt>
      <trkpt lat="41.3606420" lon="-8.7574680">
        <ele>8.6</ele>
        <time>2021-05-16T12:35:56Z</time>
      </trkpt>
      <trkpt lat="41.3606420" lon="-8.7574680">
        <ele>8.6</ele>
        <time>2021-05-16T12:35:57Z</time>
      </trkpt>
      <trkpt lat="41.3606420" lon="-8.7574660">
        <ele>8.6</ele>
        <time>2021-05-16T12:35:58Z</time>
      </trkpt>
      <trkpt lat="41.3606420" lon="-8.7574660">
        <ele>8.6</ele>
        <time>2021-05-16T12:35:59Z</time>
      </trkpt>
      <trkpt lat="41.3606420" lon="-8.7574670">
        <ele>8.6</ele>
        <time>2021-05-16T12:36:00Z</time>
      </trkpt>
      <trkpt lat="41.3606420" lon="-8.7574670">
        <ele>8.6</ele>
        <time>2021-05-16T12:36:01Z</time>
      </trkpt>
      <trkpt lat="41.3606420" lon="-8.7574670">
        <ele>8.6</ele>
        <time>2021-05-16T12:36:02Z</time>
      </trkpt>
      <trkpt lat="41.3606420" lon="-8.7574670">
        <ele>8.6</ele>
        <time>2021-05-16T12:36:03Z</time>
      </trkpt>
      <trkpt lat="41.3606420" lon="-8.7574670">
        <ele>8.6</ele>
        <time>2021-05-16T12:36:04Z</time>
      </trkpt>
      <trkpt lat="41.3606420" lon="-8.7574670">
        <ele>8.6</ele>
        <time>2021-05-16T12:36:05Z</time>
      </trkpt>
      <trkpt lat="41.3606430" lon="-8.7574630">
        <ele>8.6</ele>
        <time>2021-05-16T12:36:06Z</time>
      </trkpt>
      <trkpt lat="41.3606420" lon="-8.7574610">
        <ele>8.6</ele>
        <time>2021-05-16T12:36:07Z</time>
      </trkpt>
      <trkpt lat="41.3606420" lon="-8.7574600">
        <ele>8.6</ele>
        <time>2021-05-16T12:36:08Z</time>
      </trkpt>
      <trkpt lat="41.3606420" lon="-8.7574560">
        <ele>8.6</ele>
        <time>2021-05-16T12:36:09Z</time>
      </trkpt>
      <trkpt lat="41.3606420" lon="-8.7574560">
        <ele>8.6</ele>
        <time>2021-05-16T12:36:10Z</time>
      </trkpt>
      <trkpt lat="41.3606420" lon="-8.7574560">
        <ele>8.6</ele>
        <time>2021-05-16T12:36:11Z</time>
      </trkpt>
      <trkpt lat="41.3606420" lon="-8.7574560">
        <ele>8.6</ele>
        <time>2021-05-16T12:36:12Z</time>
      </trkpt>
      <trkpt lat="41.3606420" lon="-8.7574560">
        <ele>8.6</ele>
        <time>2021-05-16T12:36:13Z</time>
      </trkpt>
      <trkpt lat="41.3606410" lon="-8.7574420">
        <ele>8.6</ele>
        <time>2021-05-16T12:36:14Z</time>
      </trkpt>
      <trkpt lat="41.3606410" lon="-8.7574410">
        <ele>8.6</ele>
        <time>2021-05-16T12:36:15Z</time>
      </trkpt>
      <trkpt lat="41.3606410" lon="-8.7574370">
        <ele>8.6</ele>
        <time>2021-05-16T12:36:16Z</time>
      </trkpt>
      <trkpt lat="41.3606370" lon="-8.7574390">
        <ele>8.6</ele>
        <time>2021-05-16T12:36:17Z</time>
      </trkpt>
      <trkpt lat="41.3606370" lon="-8.7574400">
        <ele>8.6</ele>
        <time>2021-05-16T12:36:18Z</time>
      </trkpt>
      <trkpt lat="41.3606370" lon="-8.7574400">
        <ele>8.6</ele>
        <time>2021-05-16T12:36:19Z</time>
      </trkpt>
      <trkpt lat="41.3606380" lon="-8.7574410">
        <ele>8.6</ele>
        <time>2021-05-16T12:36:20Z</time>
      </trkpt>
      <trkpt lat="41.3606380" lon="-8.7574430">
        <ele>8.6</ele>
        <time>2021-05-16T12:36:21Z</time>
      </trkpt>
      <trkpt lat="41.3606380" lon="-8.7574430">
        <ele>8.6</ele>
        <time>2021-05-16T12:36:22Z</time>
      </trkpt>
      <trkpt lat="41.3606380" lon="-8.7574430">
        <ele>8.6</ele>
        <time>2021-05-16T12:36:23Z</time>
      </trkpt>
      <trkpt lat="41.3606380" lon="-8.7574430">
        <ele>8.6</ele>
        <time>2021-05-16T12:36:24Z</time>
      </trkpt>
      <trkpt lat="41.3606380" lon="-8.7574430">
        <ele>8.6</ele>
        <time>2021-05-16T12:36:25Z</time>
      </trkpt>
      <trkpt lat="41.3606410" lon="-8.7574510">
        <ele>8.6</ele>
        <time>2021-05-16T12:36:26Z</time>
      </trkpt>
      <trkpt lat="41.3606410" lon="-8.7574510">
        <ele>8.6</ele>
        <time>2021-05-16T12:36:27Z</time>
      </trkpt>
      <trkpt lat="41.3606410" lon="-8.7574510">
        <ele>8.6</ele>
        <time>2021-05-16T12:36:28Z</time>
      </trkpt>
      <trkpt lat="41.3606440" lon="-8.7574550">
        <ele>8.6</ele>
        <time>2021-05-16T12:36:29Z</time>
      </trkpt>
      <trkpt lat="41.3606430" lon="-8.7574540">
        <ele>8.6</ele>
        <time>2021-05-16T12:36:30Z</time>
      </trkpt>
      <trkpt lat="41.3606430" lon="-8.7574540">
        <ele>8.6</ele>
        <time>2021-05-16T12:36:31Z</time>
      </trkpt>
      <trkpt lat="41.3606430" lon="-8.7574540">
        <ele>8.6</ele>
        <time>2021-05-16T12:36:32Z</time>
      </trkpt>
      <trkpt lat="41.3606430" lon="-8.7574540">
        <ele>8.6</ele>
        <time>2021-05-16T12:36:33Z</time>
      </trkpt>
      <trkpt lat="41.3606440" lon="-8.7574620">
        <ele>8.6</ele>
        <time>2021-05-16T12:36:34Z</time>
      </trkpt>
      <trkpt lat="41.3606420" lon="-8.7574650">
        <ele>8.6</ele>
        <time>2021-05-16T12:36:35Z</time>
      </trkpt>
      <trkpt lat="41.3606430" lon="-8.7574630">
        <ele>8.6</ele>
        <time>2021-05-16T12:36:36Z</time>
      </trkpt>
      <trkpt lat="41.3606430" lon="-8.7574610">
        <ele>8.6</ele>
        <time>2021-05-16T12:36:37Z</time>
      </trkpt>
      <trkpt lat="41.3606440" lon="-8.7574560">
        <ele>8.6</ele>
        <time>2021-05-16T12:36:38Z</time>
      </trkpt>
      <trkpt lat="41.3606430" lon="-8.7574580">
        <ele>8.6</ele>
        <time>2021-05-16T12:36:39Z</time>
      </trkpt>
      <trkpt lat="41.3606420" lon="-8.7574530">
        <ele>8.6</ele>
        <time>2021-05-16T12:36:40Z</time>
      </trkpt>
      <trkpt lat="41.3606410" lon="-8.7574590">
        <ele>8.6</ele>
        <time>2021-05-16T12:36:41Z</time>
      </trkpt>
      <trkpt lat="41.3606390" lon="-8.7574610">
        <ele>8.6</ele>
        <time>2021-05-16T12:36:42Z</time>
      </trkpt>
      <trkpt lat="41.3606390" lon="-8.7574610">
        <ele>8.6</ele>
        <time>2021-05-16T12:36:43Z</time>
      </trkpt>
      <trkpt lat="41.3606390" lon="-8.7574610">
        <ele>8.6</ele>
        <time>2021-05-16T12:36:44Z</time>
      </trkpt>
      <trkpt lat="41.3606390" lon="-8.7574610">
        <ele>8.6</ele>
        <time>2021-05-16T12:36:45Z</time>
      </trkpt>
      <trkpt lat="41.3606390" lon="-8.7574610">
        <ele>8.6</ele>
        <time>2021-05-16T12:36:46Z</time>
      </trkpt>
      <trkpt lat="41.3606390" lon="-8.7574610">
        <ele>8.6</ele>
        <time>2021-05-16T12:36:47Z</time>
      </trkpt>
      <trkpt lat="41.3606390" lon="-8.7574610">
        <ele>8.6</ele>
        <time>2021-05-16T12:36:48Z</time>
      </trkpt>
      <trkpt lat="41.3606390" lon="-8.7574610">
        <ele>8.6</ele>
        <time>2021-05-16T12:36:49Z</time>
      </trkpt>
      <trkpt lat="41.3606390" lon="-8.7574610">
        <ele>8.6</ele>
        <time>2021-05-16T12:36:50Z</time>
      </trkpt>
      <trkpt lat="41.3606390" lon="-8.7574610">
        <ele>8.6</ele>
        <time>2021-05-16T12:36:51Z</time>
      </trkpt>
      <trkpt lat="41.3606390" lon="-8.7574610">
        <ele>8.6</ele>
        <time>2021-05-16T12:36:52Z</time>
      </trkpt>
      <trkpt lat="41.3606390" lon="-8.7574610">
        <ele>8.6</ele>
        <time>2021-05-16T12:36:53Z</time>
      </trkpt>
      <trkpt lat="41.3606390" lon="-8.7574610">
        <ele>8.6</ele>
        <time>2021-05-16T12:36:54Z</time>
      </trkpt>
      <trkpt lat="41.3606390" lon="-8.7574610">
        <ele>8.6</ele>
        <time>2021-05-16T12:36:55Z</time>
      </trkpt>
      <trkpt lat="41.3606430" lon="-8.7574820">
        <ele>8.6</ele>
        <time>2021-05-16T12:36:56Z</time>
      </trkpt>
      <trkpt lat="41.3606430" lon="-8.7574820">
        <ele>8.6</ele>
        <time>2021-05-16T12:36:57Z</time>
      </trkpt>
      <trkpt lat="41.3606430" lon="-8.7574820">
        <ele>8.6</ele>
        <time>2021-05-16T12:36:58Z</time>
      </trkpt>
      <trkpt lat="41.3606420" lon="-8.7574830">
        <ele>8.6</ele>
        <time>2021-05-16T12:36:59Z</time>
      </trkpt>
      <trkpt lat="41.3606420" lon="-8.7574840">
        <ele>8.6</ele>
        <time>2021-05-16T12:37:00Z</time>
      </trkpt>
      <trkpt lat="41.3606390" lon="-8.7574830">
        <ele>8.6</ele>
        <time>2021-05-16T12:37:01Z</time>
      </trkpt>
      <trkpt lat="41.3606380" lon="-8.7574820">
        <ele>8.6</ele>
        <time>2021-05-16T12:37:02Z</time>
      </trkpt>
      <trkpt lat="41.3606380" lon="-8.7574820">
        <ele>8.6</ele>
        <time>2021-05-16T12:37:03Z</time>
      </trkpt>
      <trkpt lat="41.3606370" lon="-8.7574800">
        <ele>8.6</ele>
        <time>2021-05-16T12:37:04Z</time>
      </trkpt>
      <trkpt lat="41.3606370" lon="-8.7574790">
        <ele>8.6</ele>
        <time>2021-05-16T12:37:05Z</time>
      </trkpt>
      <trkpt lat="41.3606370" lon="-8.7574770">
        <ele>8.6</ele>
        <time>2021-05-16T12:37:06Z</time>
      </trkpt>
      <trkpt lat="41.3606360" lon="-8.7574770">
        <ele>8.6</ele>
        <time>2021-05-16T12:37:07Z</time>
      </trkpt>
      <trkpt lat="41.3606370" lon="-8.7574740">
        <ele>8.6</ele>
        <time>2021-05-16T12:37:08Z</time>
      </trkpt>
      <trkpt lat="41.3606370" lon="-8.7574740">
        <ele>8.6</ele>
        <time>2021-05-16T12:37:09Z</time>
      </trkpt>
      <trkpt lat="41.3606370" lon="-8.7574740">
        <ele>8.6</ele>
        <time>2021-05-16T12:37:10Z</time>
      </trkpt>
      <trkpt lat="41.3606390" lon="-8.7574680">
        <ele>8.6</ele>
        <time>2021-05-16T12:37:11Z</time>
      </trkpt>
      <trkpt lat="41.3606400" lon="-8.7574680">
        <ele>8.6</ele>
        <time>2021-05-16T12:37:12Z</time>
      </trkpt>
      <trkpt lat="41.3606400" lon="-8.7574680">
        <ele>8.6</ele>
        <time>2021-05-16T12:37:13Z</time>
      </trkpt>
      <trkpt lat="41.3606400" lon="-8.7574670">
        <ele>8.6</ele>
        <time>2021-05-16T12:37:14Z</time>
      </trkpt>
      <trkpt lat="41.3606380" lon="-8.7574670">
        <ele>8.6</ele>
        <time>2021-05-16T12:37:15Z</time>
      </trkpt>
      <trkpt lat="41.3606400" lon="-8.7574610">
        <ele>8.6</ele>
        <time>2021-05-16T12:37:16Z</time>
      </trkpt>
      <trkpt lat="41.3606400" lon="-8.7574610">
        <ele>8.6</ele>
        <time>2021-05-16T12:37:17Z</time>
      </trkpt>
      <trkpt lat="41.3606390" lon="-8.7574590">
        <ele>8.6</ele>
        <time>2021-05-16T12:37:18Z</time>
      </trkpt>
      <trkpt lat="41.3606390" lon="-8.7574600">
        <ele>8.6</ele>
        <time>2021-05-16T12:37:19Z</time>
      </trkpt>
      <trkpt lat="41.3606390" lon="-8.7574590">
        <ele>8.6</ele>
        <time>2021-05-16T12:37:20Z</time>
      </trkpt>
      <trkpt lat="41.3606390" lon="-8.7574590">
        <ele>8.6</ele>
        <time>2021-05-16T12:37:21Z</time>
      </trkpt>
      <trkpt lat="41.3606390" lon="-8.7574590">
        <ele>8.6</ele>
        <time>2021-05-16T12:37:22Z</time>
      </trkpt>
      <trkpt lat="41.3606430" lon="-8.7574530">
        <ele>8.6</ele>
        <time>2021-05-16T12:37:23Z</time>
      </trkpt>
      <trkpt lat="41.3606430" lon="-8.7574520">
        <ele>8.6</ele>
        <time>2021-05-16T12:37:24Z</time>
      </trkpt>
      <trkpt lat="41.3606450" lon="-8.7574500">
        <ele>8.6</ele>
        <time>2021-05-16T12:37:25Z</time>
      </trkpt>
      <trkpt lat="41.3606470" lon="-8.7574480">
        <ele>8.6</ele>
        <time>2021-05-16T12:37:26Z</time>
      </trkpt>
      <trkpt lat="41.3606490" lon="-8.7574470">
        <ele>8.6</ele>
        <time>2021-05-16T12:37:27Z</time>
      </trkpt>
      <trkpt lat="41.3606520" lon="-8.7574400">
        <ele>8.6</ele>
        <time>2021-05-16T12:37:28Z</time>
      </trkpt>
      <trkpt lat="41.3606520" lon="-8.7574400">
        <ele>8.6</ele>
        <time>2021-05-16T12:37:30Z</time>
      </trkpt>
      <trkpt lat="41.3606520" lon="-8.7574400">
        <ele>8.6</ele>
        <time>2021-05-16T12:37:31Z</time>
      </trkpt>
      <trkpt lat="41.3606520" lon="-8.7574400">
        <ele>8.6</ele>
        <time>2021-05-16T12:37:32Z</time>
      </trkpt>
      <trkpt lat="41.3606550" lon="-8.7574400">
        <ele>8.6</ele>
        <time>2021-05-16T12:37:33Z</time>
      </trkpt>
      <trkpt lat="41.3606510" lon="-8.7574490">
        <ele>8.6</ele>
        <time>2021-05-16T12:37:34Z</time>
      </trkpt>
      <trkpt lat="41.3606510" lon="-8.7574520">
        <ele>8.6</ele>
        <time>2021-05-16T12:37:35Z</time>
      </trkpt>
      <trkpt lat="41.3606510" lon="-8.7574520">
        <ele>8.6</ele>
        <time>2021-05-16T12:37:36Z</time>
      </trkpt>
      <trkpt lat="41.3606510" lon="-8.7574520">
        <ele>8.6</ele>
        <time>2021-05-16T12:37:37Z</time>
      </trkpt>
      <trkpt lat="41.3606510" lon="-8.7574520">
        <ele>8.6</ele>
        <time>2021-05-16T12:37:38Z</time>
      </trkpt>
      <trkpt lat="41.3606430" lon="-8.7574600">
        <ele>8.6</ele>
        <time>2021-05-16T12:37:39Z</time>
      </trkpt>
      <trkpt lat="41.3606430" lon="-8.7574600">
        <ele>8.6</ele>
        <time>2021-05-16T12:37:40Z</time>
      </trkpt>
      <trkpt lat="41.3606430" lon="-8.7574600">
        <ele>8.6</ele>
        <time>2021-05-16T12:37:41Z</time>
      </trkpt>
      <trkpt lat="41.3606390" lon="-8.7574570">
        <ele>8.6</ele>
        <time>2021-05-16T12:37:42Z</time>
      </trkpt>
      <trkpt lat="41.3606370" lon="-8.7574570">
        <ele>8.6</ele>
        <time>2021-05-16T12:37:43Z</time>
      </trkpt>
      <trkpt lat="41.3606360" lon="-8.7574540">
        <ele>8.6</ele>
        <time>2021-05-16T12:37:44Z</time>
      </trkpt>
      <trkpt lat="41.3606360" lon="-8.7574540">
        <ele>8.6</ele>
        <time>2021-05-16T12:37:45Z</time>
      </trkpt>
      <trkpt lat="41.3606360" lon="-8.7574520">
        <ele>8.6</ele>
        <time>2021-05-16T12:37:46Z</time>
      </trkpt>
      <trkpt lat="41.3606370" lon="-8.7574510">
        <ele>8.6</ele>
        <time>2021-05-16T12:37:47Z</time>
      </trkpt>
      <trkpt lat="41.3606370" lon="-8.7574510">
        <ele>8.6</ele>
        <time>2021-05-16T12:37:48Z</time>
      </trkpt>
      <trkpt lat="41.3606360" lon="-8.7574580">
        <ele>8.6</ele>
        <time>2021-05-16T12:37:49Z</time>
      </trkpt>
      <trkpt lat="41.3606360" lon="-8.7574580">
        <ele>8.6</ele>
        <time>2021-05-16T12:37:50Z</time>
      </trkpt>
      <trkpt lat="41.3606360" lon="-8.7574580">
        <ele>8.6</ele>
        <time>2021-05-16T12:37:51Z</time>
      </trkpt>
      <trkpt lat="41.3606360" lon="-8.7574580">
        <ele>8.6</ele>
        <time>2021-05-16T12:37:52Z</time>
      </trkpt>
      <trkpt lat="41.3606400" lon="-8.7574630">
        <ele>8.6</ele>
        <time>2021-05-16T12:37:53Z</time>
      </trkpt>
      <trkpt lat="41.3606400" lon="-8.7574630">
        <ele>8.6</ele>
        <time>2021-05-16T12:37:54Z</time>
      </trkpt>
      <trkpt lat="41.3606400" lon="-8.7574630">
        <ele>8.6</ele>
        <time>2021-05-16T12:37:55Z</time>
      </trkpt>
      <trkpt lat="41.3606400" lon="-8.7574630">
        <ele>8.6</ele>
        <time>2021-05-16T12:37:56Z</time>
      </trkpt>
      <trkpt lat="41.3606400" lon="-8.7574630">
        <ele>8.6</ele>
        <time>2021-05-16T12:37:57Z</time>
      </trkpt>
      <trkpt lat="41.3606400" lon="-8.7574630">
        <ele>8.6</ele>
        <time>2021-05-16T12:37:58Z</time>
      </trkpt>
      <trkpt lat="41.3606400" lon="-8.7574630">
        <ele>8.6</ele>
        <time>2021-05-16T12:37:59Z</time>
      </trkpt>
      <trkpt lat="41.3606400" lon="-8.7574630">
        <ele>8.6</ele>
        <time>2021-05-16T12:38:00Z</time>
      </trkpt>
      <trkpt lat="41.3606290" lon="-8.7574790">
        <ele>8.6</ele>
        <time>2021-05-16T12:38:01Z</time>
      </trkpt>
      <trkpt lat="41.3606290" lon="-8.7574790">
        <ele>8.6</ele>
        <time>2021-05-16T12:38:02Z</time>
      </trkpt>
      <trkpt lat="41.3606290" lon="-8.7574790">
        <ele>8.6</ele>
        <time>2021-05-16T12:38:03Z</time>
      </trkpt>
      <trkpt lat="41.3606290" lon="-8.7574780">
        <ele>8.6</ele>
        <time>2021-05-16T12:38:04Z</time>
      </trkpt>
      <trkpt lat="41.3606300" lon="-8.7574780">
        <ele>8.6</ele>
        <time>2021-05-16T12:38:05Z</time>
      </trkpt>
      <trkpt lat="41.3606300" lon="-8.7574780">
        <ele>8.6</ele>
        <time>2021-05-16T12:38:06Z</time>
      </trkpt>
      <trkpt lat="41.3606300" lon="-8.7574780">
        <ele>8.6</ele>
        <time>2021-05-16T12:38:07Z</time>
      </trkpt>
      <trkpt lat="41.3606300" lon="-8.7574780">
        <ele>8.6</ele>
        <time>2021-05-16T12:38:08Z</time>
      </trkpt>
      <trkpt lat="41.3606300" lon="-8.7574770">
        <ele>8.6</ele>
        <time>2021-05-16T12:38:09Z</time>
      </trkpt>
      <trkpt lat="41.3606300" lon="-8.7574770">
        <ele>8.6</ele>
        <time>2021-05-16T12:38:10Z</time>
      </trkpt>
      <trkpt lat="41.3606300" lon="-8.7574770">
        <ele>8.6</ele>
        <time>2021-05-16T12:38:11Z</time>
      </trkpt>
      <trkpt lat="41.3606310" lon="-8.7574770">
        <ele>8.6</ele>
        <time>2021-05-16T12:38:12Z</time>
      </trkpt>
      <trkpt lat="41.3606310" lon="-8.7574770">
        <ele>8.6</ele>
        <time>2021-05-16T12:38:13Z</time>
      </trkpt>
      <trkpt lat="41.3606310" lon="-8.7574760">
        <ele>8.6</ele>
        <time>2021-05-16T12:38:14Z</time>
      </trkpt>
      <trkpt lat="41.3606310" lon="-8.7574760">
        <ele>8.6</ele>
        <time>2021-05-16T12:38:15Z</time>
      </trkpt>
      <trkpt lat="41.3606310" lon="-8.7574760">
        <ele>8.6</ele>
        <time>2021-05-16T12:38:16Z</time>
      </trkpt>
      <trkpt lat="41.3606310" lon="-8.7574760">
        <ele>8.6</ele>
        <time>2021-05-16T12:38:17Z</time>
      </trkpt>
      <trkpt lat="41.3606310" lon="-8.7574760">
        <ele>8.6</ele>
        <time>2021-05-16T12:38:18Z</time>
      </trkpt>
      <trkpt lat="41.3606320" lon="-8.7574750">
        <ele>8.6</ele>
        <time>2021-05-16T12:38:19Z</time>
      </trkpt>
      <trkpt lat="41.3606320" lon="-8.7574750">
        <ele>8.6</ele>
        <time>2021-05-16T12:38:20Z</time>
      </trkpt>
      <trkpt lat="41.3606320" lon="-8.7574750">
        <ele>8.6</ele>
        <time>2021-05-16T12:38:21Z</time>
      </trkpt>
      <trkpt lat="41.3606320" lon="-8.7574750">
        <ele>8.6</ele>
        <time>2021-05-16T12:38:22Z</time>
      </trkpt>
      <trkpt lat="41.3606320" lon="-8.7574750">
        <ele>8.6</ele>
        <time>2021-05-16T12:38:23Z</time>
      </trkpt>
      <trkpt lat="41.3606320" lon="-8.7574740">
        <ele>8.6</ele>
        <time>2021-05-16T12:38:24Z</time>
      </trkpt>
      <trkpt lat="41.3606330" lon="-8.7574740">
        <ele>8.6</ele>
        <time>2021-05-16T12:38:25Z</time>
      </trkpt>
      <trkpt lat="41.3606330" lon="-8.7574740">
        <ele>8.6</ele>
        <time>2021-05-16T12:38:26Z</time>
      </trkpt>
      <trkpt lat="41.3606330" lon="-8.7574740">
        <ele>8.6</ele>
        <time>2021-05-16T12:38:27Z</time>
      </trkpt>
      <trkpt lat="41.3606330" lon="-8.7574740">
        <ele>8.6</ele>
        <time>2021-05-16T12:38:28Z</time>
      </trkpt>
      <trkpt lat="41.3606330" lon="-8.7574730">
        <ele>8.6</ele>
        <time>2021-05-16T12:38:29Z</time>
      </trkpt>
      <trkpt lat="41.3606330" lon="-8.7574730">
        <ele>8.6</ele>
        <time>2021-05-16T12:38:30Z</time>
      </trkpt>
      <trkpt lat="41.3606330" lon="-8.7574730">
        <ele>8.6</ele>
        <time>2021-05-16T12:38:31Z</time>
      </trkpt>
      <trkpt lat="41.3606340" lon="-8.7574730">
        <ele>8.6</ele>
        <time>2021-05-16T12:38:32Z</time>
      </trkpt>
      <trkpt lat="41.3606340" lon="-8.7574730">
        <ele>8.6</ele>
        <time>2021-05-16T12:38:33Z</time>
      </trkpt>
      <trkpt lat="41.3606340" lon="-8.7574720">
        <ele>8.6</ele>
        <time>2021-05-16T12:38:34Z</time>
      </trkpt>
      <trkpt lat="41.3606340" lon="-8.7574720">
        <ele>8.6</ele>
        <time>2021-05-16T12:38:35Z</time>
      </trkpt>
      <trkpt lat="41.3606340" lon="-8.7574720">
        <ele>8.6</ele>
        <time>2021-05-16T12:38:36Z</time>
      </trkpt>
      <trkpt lat="41.3606340" lon="-8.7574720">
        <ele>8.6</ele>
        <time>2021-05-16T12:38:37Z</time>
      </trkpt>
      <trkpt lat="41.3606340" lon="-8.7574720">
        <ele>8.6</ele>
        <time>2021-05-16T12:38:38Z</time>
      </trkpt>
      <trkpt lat="41.3606350" lon="-8.7574710">
        <ele>8.6</ele>
        <time>2021-05-16T12:38:39Z</time>
      </trkpt>
      <trkpt lat="41.3606350" lon="-8.7574710">
        <ele>8.6</ele>
        <time>2021-05-16T12:38:40Z</time>
      </trkpt>
      <trkpt lat="41.3606350" lon="-8.7574710">
        <ele>8.6</ele>
        <time>2021-05-16T12:38:41Z</time>
      </trkpt>
      <trkpt lat="41.3606350" lon="-8.7574710">
        <ele>8.6</ele>
        <time>2021-05-16T12:38:42Z</time>
      </trkpt>
      <trkpt lat="41.3606350" lon="-8.7574710">
        <ele>8.6</ele>
        <time>2021-05-16T12:38:43Z</time>
      </trkpt>
      <trkpt lat="41.3606350" lon="-8.7574700">
        <ele>8.6</ele>
        <time>2021-05-16T12:38:44Z</time>
      </trkpt>
      <trkpt lat="41.3606350" lon="-8.7574700">
        <ele>8.6</ele>
        <time>2021-05-16T12:38:45Z</time>
      </trkpt>
      <trkpt lat="41.3606360" lon="-8.7574700">
        <ele>8.6</ele>
        <time>2021-05-16T12:38:46Z</time>
      </trkpt>
      <trkpt lat="41.3606360" lon="-8.7574700">
        <ele>8.6</ele>
        <time>2021-05-16T12:38:47Z</time>
      </trkpt>
      <trkpt lat="41.3606360" lon="-8.7574700">
        <ele>8.6</ele>
        <time>2021-05-16T12:38:48Z</time>
      </trkpt>
      <trkpt lat="41.3606360" lon="-8.7574690">
        <ele>8.6</ele>
        <time>2021-05-16T12:38:49Z</time>
      </trkpt>
      <trkpt lat="41.3606360" lon="-8.7574690">
        <ele>8.6</ele>
        <time>2021-05-16T12:38:50Z</time>
      </trkpt>
      <trkpt lat="41.3606360" lon="-8.7574690">
        <ele>8.6</ele>
        <time>2021-05-16T12:38:51Z</time>
      </trkpt>
      <trkpt lat="41.3606360" lon="-8.7574690">
        <ele>8.6</ele>
        <time>2021-05-16T12:38:52Z</time>
      </trkpt>
      <trkpt lat="41.3606370" lon="-8.7574690">
        <ele>8.6</ele>
        <time>2021-05-16T12:38:53Z</time>
      </trkpt>
      <trkpt lat="41.3606370" lon="-8.7574680">
        <ele>8.6</ele>
        <time>2021-05-16T12:38:54Z</time>
      </trkpt>
      <trkpt lat="41.3606370" lon="-8.7574680">
        <ele>8.6</ele>
        <time>2021-05-16T12:38:55Z</time>
      </trkpt>
      <trkpt lat="41.3606370" lon="-8.7574680">
        <ele>8.6</ele>
        <time>2021-05-16T12:38:56Z</time>
      </trkpt>
      <trkpt lat="41.3606370" lon="-8.7574680">
        <ele>8.6</ele>
        <time>2021-05-16T12:38:57Z</time>
      </trkpt>
      <trkpt lat="41.3606370" lon="-8.7574680">
        <ele>8.6</ele>
        <time>2021-05-16T12:38:58Z</time>
      </trkpt>
      <trkpt lat="41.3606380" lon="-8.7574670">
        <ele>8.6</ele>
        <time>2021-05-16T12:38:59Z</time>
      </trkpt>
      <trkpt lat="41.3606380" lon="-8.7574670">
        <ele>8.6</ele>
        <time>2021-05-16T12:39:00Z</time>
      </trkpt>
      <trkpt lat="41.3606380" lon="-8.7574670">
        <ele>8.6</ele>
        <time>2021-05-16T12:39:01Z</time>
      </trkpt>
      <trkpt lat="41.3606380" lon="-8.7574670">
        <ele>8.6</ele>
        <time>2021-05-16T12:39:02Z</time>
      </trkpt>
      <trkpt lat="41.3606380" lon="-8.7574670">
        <ele>8.6</ele>
        <time>2021-05-16T12:39:03Z</time>
      </trkpt>
      <trkpt lat="41.3606380" lon="-8.7574660">
        <ele>8.6</ele>
        <time>2021-05-16T12:39:04Z</time>
      </trkpt>
      <trkpt lat="41.3606380" lon="-8.7574660">
        <ele>8.6</ele>
        <time>2021-05-16T12:39:05Z</time>
      </trkpt>
      <trkpt lat="41.3606390" lon="-8.7574660">
        <ele>8.6</ele>
        <time>2021-05-16T12:39:06Z</time>
      </trkpt>
      <trkpt lat="41.3606390" lon="-8.7574660">
        <ele>8.6</ele>
        <time>2021-05-16T12:39:07Z</time>
      </trkpt>
      <trkpt lat="41.3606390" lon="-8.7574660">
        <ele>8.6</ele>
        <time>2021-05-16T12:39:08Z</time>
      </trkpt>
      <trkpt lat="41.3606390" lon="-8.7574650">
        <ele>8.6</ele>
        <time>2021-05-16T12:39:09Z</time>
      </trkpt>
      <trkpt lat="41.3606390" lon="-8.7574650">
        <ele>8.6</ele>
        <time>2021-05-16T12:39:10Z</time>
      </trkpt>
      <trkpt lat="41.3606390" lon="-8.7574650">
        <ele>8.6</ele>
        <time>2021-05-16T12:39:11Z</time>
      </trkpt>
      <trkpt lat="41.3606390" lon="-8.7574650">
        <ele>8.6</ele>
        <time>2021-05-16T12:39:12Z</time>
      </trkpt>
      <trkpt lat="41.3606400" lon="-8.7574650">
        <ele>8.6</ele>
        <time>2021-05-16T12:39:13Z</time>
      </trkpt>
      <trkpt lat="41.3606400" lon="-8.7574640">
        <ele>8.6</ele>
        <time>2021-05-16T12:39:14Z</time>
      </trkpt>
      <trkpt lat="41.3606400" lon="-8.7574640">
        <ele>8.6</ele>
        <time>2021-05-16T12:39:15Z</time>
      </trkpt>
      <trkpt lat="41.3606400" lon="-8.7574640">
        <ele>8.6</ele>
        <time>2021-05-16T12:39:16Z</time>
      </trkpt>
      <trkpt lat="41.3606400" lon="-8.7574640">
        <ele>8.6</ele>
        <time>2021-05-16T12:39:17Z</time>
      </trkpt>
      <trkpt lat="41.3606400" lon="-8.7574640">
        <ele>8.6</ele>
        <time>2021-05-16T12:39:18Z</time>
      </trkpt>
      <trkpt lat="41.3606400" lon="-8.7574630">
        <ele>8.6</ele>
        <time>2021-05-16T12:39:19Z</time>
      </trkpt>
      <trkpt lat="41.3606410" lon="-8.7574630">
        <ele>8.6</ele>
        <time>2021-05-16T12:39:20Z</time>
      </trkpt>
      <trkpt lat="41.3606410" lon="-8.7574630">
        <ele>8.6</ele>
        <time>2021-05-16T12:39:21Z</time>
      </trkpt>
      <trkpt lat="41.3606410" lon="-8.7574630">
        <ele>8.6</ele>
        <time>2021-05-16T12:39:22Z</time>
      </trkpt>
      <trkpt lat="41.3606410" lon="-8.7574630">
        <ele>8.6</ele>
        <time>2021-05-16T12:39:23Z</time>
      </trkpt>
      <trkpt lat="41.3606410" lon="-8.7574620">
        <ele>8.6</ele>
        <time>2021-05-16T12:39:24Z</time>
      </trkpt>
      <trkpt lat="41.3606410" lon="-8.7574620">
        <ele>8.6</ele>
        <time>2021-05-16T12:39:25Z</time>
      </trkpt>
      <trkpt lat="41.3606410" lon="-8.7574620">
        <ele>8.6</ele>
        <time>2021-05-16T12:39:26Z</time>
      </trkpt>
      <trkpt lat="41.3606420" lon="-8.7574620">
        <ele>8.6</ele>
        <time>2021-05-16T12:39:27Z</time>
      </trkpt>
      <trkpt lat="41.3606420" lon="-8.7574620">
        <ele>8.6</ele>
        <time>2021-05-16T12:39:28Z</time>
      </trkpt>
      <trkpt lat="41.3606420" lon="-8.7574610">
        <ele>8.6</ele>
        <time>2021-05-16T12:39:29Z</time>
      </trkpt>
      <trkpt lat="41.3606420" lon="-8.7574610">
        <ele>8.6</ele>
        <time>2021-05-16T12:39:30Z</time>
      </trkpt>
      <trkpt lat="41.3606420" lon="-8.7574610">
        <ele>8.6</ele>
        <time>2021-05-16T12:39:31Z</time>
      </trkpt>
      <trkpt lat="41.3606420" lon="-8.7574610">
        <ele>8.6</ele>
        <time>2021-05-16T12:39:32Z</time>
      </trkpt>
      <trkpt lat="41.3606430" lon="-8.7574610">
        <ele>8.6</ele>
        <time>2021-05-16T12:39:34Z</time>
      </trkpt>
      <trkpt lat="41.3606430" lon="-8.7574600">
        <ele>8.6</ele>
        <time>2021-05-16T12:39:35Z</time>
      </trkpt>
      <trkpt lat="41.3606430" lon="-8.7574600">
        <ele>8.6</ele>
        <time>2021-05-16T12:39:36Z</time>
      </trkpt>
      <trkpt lat="41.3606430" lon="-8.7574600">
        <ele>8.6</ele>
        <time>2021-05-16T12:39:37Z</time>
      </trkpt>
      <trkpt lat="41.3606430" lon="-8.7574600">
        <ele>8.6</ele>
        <time>2021-05-16T12:39:38Z</time>
      </trkpt>
      <trkpt lat="41.3606430" lon="-8.7574590">
        <ele>8.6</ele>
        <time>2021-05-16T12:39:39Z</time>
      </trkpt>
      <trkpt lat="41.3606430" lon="-8.7574590">
        <ele>8.6</ele>
        <time>2021-05-16T12:39:40Z</time>
      </trkpt>
      <trkpt lat="41.3606440" lon="-8.7574590">
        <ele>8.6</ele>
        <time>2021-05-16T12:39:41Z</time>
      </trkpt>
      <trkpt lat="41.3606440" lon="-8.7574590">
        <ele>8.6</ele>
        <time>2021-05-16T12:39:42Z</time>
      </trkpt>
      <trkpt lat="41.3606440" lon="-8.7574590">
        <ele>8.6</ele>
        <time>2021-05-16T12:39:43Z</time>
      </trkpt>
      <trkpt lat="41.3606440" lon="-8.7574580">
        <ele>8.6</ele>
        <time>2021-05-16T12:39:44Z</time>
      </trkpt>
      <trkpt lat="41.3606440" lon="-8.7574580">
        <ele>8.6</ele>
        <time>2021-05-16T12:39:45Z</time>
      </trkpt>
      <trkpt lat="41.3606440" lon="-8.7574580">
        <ele>8.6</ele>
        <time>2021-05-16T12:39:46Z</time>
      </trkpt>
      <trkpt lat="41.3606440" lon="-8.7574580">
        <ele>8.6</ele>
        <time>2021-05-16T12:39:47Z</time>
      </trkpt>
      <trkpt lat="41.3606450" lon="-8.7574580">
        <ele>8.6</ele>
        <time>2021-05-16T12:39:48Z</time>
      </trkpt>
      <trkpt lat="41.3606450" lon="-8.7574570">
        <ele>8.6</ele>
        <time>2021-05-16T12:39:49Z</time>
      </trkpt>
      <trkpt lat="41.3606450" lon="-8.7574570">
        <ele>8.6</ele>
        <time>2021-05-16T12:39:50Z</time>
      </trkpt>
      <trkpt lat="41.3606450" lon="-8.7574570">
        <ele>8.6</ele>
        <time>2021-05-16T12:39:51Z</time>
      </trkpt>
      <trkpt lat="41.3606450" lon="-8.7574570">
        <ele>8.6</ele>
        <time>2021-05-16T12:39:52Z</time>
      </trkpt>
      <trkpt lat="41.3606450" lon="-8.7574570">
        <ele>8.6</ele>
        <time>2021-05-16T12:39:53Z</time>
      </trkpt>
      <trkpt lat="41.3606450" lon="-8.7574560">
        <ele>8.6</ele>
        <time>2021-05-16T12:39:54Z</time>
      </trkpt>
      <trkpt lat="41.3606460" lon="-8.7574560">
        <ele>8.6</ele>
        <time>2021-05-16T12:39:55Z</time>
      </trkpt>
      <trkpt lat="41.3606460" lon="-8.7574560">
        <ele>8.6</ele>
        <time>2021-05-16T12:39:56Z</time>
      </trkpt>
      <trkpt lat="41.3606460" lon="-8.7574560">
        <ele>8.6</ele>
        <time>2021-05-16T12:39:57Z</time>
      </trkpt>
      <trkpt lat="41.3606460" lon="-8.7574560">
        <ele>8.6</ele>
        <time>2021-05-16T12:39:58Z</time>
      </trkpt>
      <trkpt lat="41.3606460" lon="-8.7574550">
        <ele>8.6</ele>
        <time>2021-05-16T12:39:59Z</time>
      </trkpt>
      <trkpt lat="41.3606460" lon="-8.7574550">
        <ele>8.6</ele>
        <time>2021-05-16T12:40:00Z</time>
      </trkpt>
      <trkpt lat="41.3606460" lon="-8.7574550">
        <ele>8.6</ele>
        <time>2021-05-16T12:40:01Z</time>
      </trkpt>
      <trkpt lat="41.3606470" lon="-8.7574550">
        <ele>8.6</ele>
        <time>2021-05-16T12:40:02Z</time>
      </trkpt>
      <trkpt lat="41.3606470" lon="-8.7574550">
        <ele>8.6</ele>
        <time>2021-05-16T12:40:03Z</time>
      </trkpt>
      <trkpt lat="41.3606470" lon="-8.7574540">
        <ele>8.6</ele>
        <time>2021-05-16T12:40:04Z</time>
      </trkpt>
      <trkpt lat="41.3606470" lon="-8.7574540">
        <ele>8.6</ele>
        <time>2021-05-16T12:40:05Z</time>
      </trkpt>
      <trkpt lat="41.3606470" lon="-8.7574540">
        <ele>8.6</ele>
        <time>2021-05-16T12:40:06Z</time>
      </trkpt>
      <trkpt lat="41.3606470" lon="-8.7574540">
        <ele>8.6</ele>
        <time>2021-05-16T12:40:07Z</time>
      </trkpt>
      <trkpt lat="41.3606470" lon="-8.7574540">
        <ele>8.6</ele>
        <time>2021-05-16T12:40:08Z</time>
      </trkpt>
      <trkpt lat="41.3606480" lon="-8.7574530">
        <ele>8.6</ele>
        <time>2021-05-16T12:40:09Z</time>
      </trkpt>
      <trkpt lat="41.3606480" lon="-8.7574530">
        <ele>8.6</ele>
        <time>2021-05-16T12:40:10Z</time>
      </trkpt>
      <trkpt lat="41.3606480" lon="-8.7574530">
        <ele>8.6</ele>
        <time>2021-05-16T12:40:11Z</time>
      </trkpt>
      <trkpt lat="41.3606480" lon="-8.7574530">
        <ele>8.6</ele>
        <time>2021-05-16T12:40:12Z</time>
      </trkpt>
      <trkpt lat="41.3606480" lon="-8.7574530">
        <ele>8.6</ele>
        <time>2021-05-16T12:40:13Z</time>
      </trkpt>
      <trkpt lat="41.3606480" lon="-8.7574520">
        <ele>8.6</ele>
        <time>2021-05-16T12:40:14Z</time>
      </trkpt>
      <trkpt lat="41.3606490" lon="-8.7574520">
        <ele>8.6</ele>
        <time>2021-05-16T12:40:15Z</time>
      </trkpt>
      <trkpt lat="41.3606490" lon="-8.7574520">
        <ele>8.6</ele>
        <time>2021-05-16T12:40:16Z</time>
      </trkpt>
      <trkpt lat="41.3606490" lon="-8.7574520">
        <ele>8.6</ele>
        <time>2021-05-16T12:40:17Z</time>
      </trkpt>
      <trkpt lat="41.3606490" lon="-8.7574520">
        <ele>8.6</ele>
        <time>2021-05-16T12:40:18Z</time>
      </trkpt>
      <trkpt lat="41.3606490" lon="-8.7574510">
        <ele>8.6</ele>
        <time>2021-05-16T12:40:19Z</time>
      </trkpt>
      <trkpt lat="41.3606490" lon="-8.7574510">
        <ele>8.6</ele>
        <time>2021-05-16T12:40:20Z</time>
      </trkpt>
      <trkpt lat="41.3606490" lon="-8.7574510">
        <ele>8.6</ele>
        <time>2021-05-16T12:40:21Z</time>
      </trkpt>
      <trkpt lat="41.3606500" lon="-8.7574510">
        <ele>8.6</ele>
        <time>2021-05-16T12:40:22Z</time>
      </trkpt>
      <trkpt lat="41.3606500" lon="-8.7574510">
        <ele>8.6</ele>
        <time>2021-05-16T12:40:23Z</time>
      </trkpt>
      <trkpt lat="41.3606500" lon="-8.7574500">
        <ele>8.6</ele>
        <time>2021-05-16T12:40:24Z</time>
      </trkpt>
      <trkpt lat="41.3606500" lon="-8.7574500">
        <ele>8.6</ele>
        <time>2021-05-16T12:40:25Z</time>
      </trkpt>
      <trkpt lat="41.3606500" lon="-8.7574500">
        <ele>8.6</ele>
        <time>2021-05-16T12:40:26Z</time>
      </trkpt>
      <trkpt lat="41.3606500" lon="-8.7574500">
        <ele>8.6</ele>
        <time>2021-05-16T12:40:27Z</time>
      </trkpt>
      <trkpt lat="41.3606500" lon="-8.7574500">
        <ele>8.6</ele>
        <time>2021-05-16T12:40:28Z</time>
      </trkpt>
      <trkpt lat="41.3606510" lon="-8.7574490">
        <ele>8.6</ele>
        <time>2021-05-16T12:40:29Z</time>
      </trkpt>
      <trkpt lat="41.3606510" lon="-8.7574490">
        <ele>8.6</ele>
        <time>2021-05-16T12:40:30Z</time>
      </trkpt>
      <trkpt lat="41.3606510" lon="-8.7574490">
        <ele>8.6</ele>
        <time>2021-05-16T12:40:31Z</time>
      </trkpt>
      <trkpt lat="41.3606510" lon="-8.7574490">
        <ele>8.6</ele>
        <time>2021-05-16T12:40:32Z</time>
      </trkpt>
      <trkpt lat="41.3606510" lon="-8.7574490">
        <ele>8.6</ele>
        <time>2021-05-16T12:40:33Z</time>
      </trkpt>
      <trkpt lat="41.3606510" lon="-8.7574480">
        <ele>8.6</ele>
        <time>2021-05-16T12:40:34Z</time>
      </trkpt>
      <trkpt lat="41.3606510" lon="-8.7574480">
        <ele>8.6</ele>
        <time>2021-05-16T12:40:35Z</time>
      </trkpt>
      <trkpt lat="41.3606520" lon="-8.7574480">
        <ele>8.6</ele>
        <time>2021-05-16T12:40:36Z</time>
      </trkpt>
      <trkpt lat="41.3606520" lon="-8.7574480">
        <ele>8.6</ele>
        <time>2021-05-16T12:40:37Z</time>
      </trkpt>
      <trkpt lat="41.3606520" lon="-8.7574480">
        <ele>8.6</ele>
        <time>2021-05-16T12:40:38Z</time>
      </trkpt>
      <trkpt lat="41.3606520" lon="-8.7574470">
        <ele>8.6</ele>
        <time>2021-05-16T12:40:39Z</time>
      </trkpt>
      <trkpt lat="41.3606520" lon="-8.7574470">
        <ele>8.6</ele>
        <time>2021-05-16T12:40:40Z</time>
      </trkpt>
      <trkpt lat="41.3606520" lon="-8.7574470">
        <ele>8.6</ele>
        <time>2021-05-16T12:40:41Z</time>
      </trkpt>
      <trkpt lat="41.3606520" lon="-8.7574470">
        <ele>8.6</ele>
        <time>2021-05-16T12:40:42Z</time>
      </trkpt>
      <trkpt lat="41.3606530" lon="-8.7574470">
        <ele>8.6</ele>
        <time>2021-05-16T12:40:43Z</time>
      </trkpt>
      <trkpt lat="41.3606530" lon="-8.7574460">
        <ele>8.6</ele>
        <time>2021-05-16T12:40:44Z</time>
      </trkpt>
      <trkpt lat="41.3606530" lon="-8.7574460">
        <ele>8.6</ele>
        <time>2021-05-16T12:40:45Z</time>
      </trkpt>
      <trkpt lat="41.3606530" lon="-8.7574460">
        <ele>8.6</ele>
        <time>2021-05-16T12:40:46Z</time>
      </trkpt>
      <trkpt lat="41.3606530" lon="-8.7574460">
        <ele>8.6</ele>
        <time>2021-05-16T12:40:47Z</time>
      </trkpt>
      <trkpt lat="41.3606530" lon="-8.7574460">
        <ele>8.6</ele>
        <time>2021-05-16T12:40:48Z</time>
      </trkpt>
      <trkpt lat="41.3606540" lon="-8.7574450">
        <ele>8.6</ele>
        <time>2021-05-16T12:40:49Z</time>
      </trkpt>
      <trkpt lat="41.3606540" lon="-8.7574450">
        <ele>8.6</ele>
        <time>2021-05-16T12:40:50Z</time>
      </trkpt>
      <trkpt lat="41.3606540" lon="-8.7574450">
        <ele>8.6</ele>
        <time>2021-05-16T12:40:51Z</time>
      </trkpt>
      <trkpt lat="41.3606540" lon="-8.7574450">
        <ele>8.6</ele>
        <time>2021-05-16T12:40:52Z</time>
      </trkpt>
      <trkpt lat="41.3606540" lon="-8.7574450">
        <ele>8.6</ele>
        <time>2021-05-16T12:40:53Z</time>
      </trkpt>
      <trkpt lat="41.3606540" lon="-8.7574440">
        <ele>8.6</ele>
        <time>2021-05-16T12:40:54Z</time>
      </trkpt>
      <trkpt lat="41.3606540" lon="-8.7574440">
        <ele>8.6</ele>
        <time>2021-05-16T12:40:55Z</time>
      </trkpt>
      <trkpt lat="41.3606550" lon="-8.7574440">
        <ele>8.6</ele>
        <time>2021-05-16T12:40:56Z</time>
      </trkpt>
      <trkpt lat="41.3606550" lon="-8.7574440">
        <ele>8.6</ele>
        <time>2021-05-16T12:40:57Z</time>
      </trkpt>
      <trkpt lat="41.3606550" lon="-8.7574440">
        <ele>8.6</ele>
        <time>2021-05-16T12:40:58Z</time>
      </trkpt>
      <trkpt lat="41.3606550" lon="-8.7574430">
        <ele>8.6</ele>
        <time>2021-05-16T12:40:59Z</time>
      </trkpt>
      <trkpt lat="41.3606550" lon="-8.7574430">
        <ele>8.6</ele>
        <time>2021-05-16T12:41:00Z</time>
      </trkpt>
      <trkpt lat="41.3606550" lon="-8.7574430">
        <ele>8.6</ele>
        <time>2021-05-16T12:41:01Z</time>
      </trkpt>
      <trkpt lat="41.3606550" lon="-8.7574430">
        <ele>8.6</ele>
        <time>2021-05-16T12:41:02Z</time>
      </trkpt>
      <trkpt lat="41.3606560" lon="-8.7574430">
        <ele>8.6</ele>
        <time>2021-05-16T12:41:03Z</time>
      </trkpt>
      <trkpt lat="41.3606560" lon="-8.7574420">
        <ele>8.6</ele>
        <time>2021-05-16T12:41:04Z</time>
      </trkpt>
      <trkpt lat="41.3606560" lon="-8.7574420">
        <ele>8.6</ele>
        <time>2021-05-16T12:41:05Z</time>
      </trkpt>
      <trkpt lat="41.3606560" lon="-8.7574420">
        <ele>8.6</ele>
        <time>2021-05-16T12:41:06Z</time>
      </trkpt>
      <trkpt lat="41.3606560" lon="-8.7574420">
        <ele>8.6</ele>
        <time>2021-05-16T12:41:07Z</time>
      </trkpt>
      <trkpt lat="41.3606560" lon="-8.7574420">
        <ele>8.6</ele>
        <time>2021-05-16T12:41:08Z</time>
      </trkpt>
      <trkpt lat="41.3606590" lon="-8.7574420">
        <ele>8.6</ele>
        <time>2021-05-16T12:41:09Z</time>
      </trkpt>
      <trkpt lat="41.3606570" lon="-8.7574430">
        <ele>8.6</ele>
        <time>2021-05-16T12:41:10Z</time>
      </trkpt>
      <trkpt lat="41.3606570" lon="-8.7574430">
        <ele>8.6</ele>
        <time>2021-05-16T12:41:11Z</time>
      </trkpt>
      <trkpt lat="41.3606570" lon="-8.7574430">
        <ele>8.6</ele>
        <time>2021-05-16T12:41:12Z</time>
      </trkpt>
      <trkpt lat="41.3606600" lon="-8.7574420">
        <ele>8.6</ele>
        <time>2021-05-16T12:41:13Z</time>
      </trkpt>
      <trkpt lat="41.3606610" lon="-8.7574420">
        <ele>8.6</ele>
        <time>2021-05-16T12:41:14Z</time>
      </trkpt>
      <trkpt lat="41.3606610" lon="-8.7574420">
        <ele>8.6</ele>
        <time>2021-05-16T12:41:15Z</time>
      </trkpt>
      <trkpt lat="41.3606610" lon="-8.7574420">
        <ele>8.6</ele>
        <time>2021-05-16T12:41:16Z</time>
      </trkpt>
      <trkpt lat="41.3606630" lon="-8.7574440">
        <ele>8.6</ele>
        <time>2021-05-16T12:41:17Z</time>
      </trkpt>
      <trkpt lat="41.3606650" lon="-8.7574420">
        <ele>8.6</ele>
        <time>2021-05-16T12:41:18Z</time>
      </trkpt>
      <trkpt lat="41.3606650" lon="-8.7574420">
        <ele>8.6</ele>
        <time>2021-05-16T12:41:19Z</time>
      </trkpt>
      <trkpt lat="41.3606650" lon="-8.7574420">
        <ele>8.6</ele>
        <time>2021-05-16T12:41:20Z</time>
      </trkpt>
      <trkpt lat="41.3606650" lon="-8.7574420">
        <ele>8.6</ele>
        <time>2021-05-16T12:41:21Z</time>
      </trkpt>
      <trkpt lat="41.3606650" lon="-8.7574420">
        <ele>8.6</ele>
        <time>2021-05-16T12:41:22Z</time>
      </trkpt>
      <trkpt lat="41.3606650" lon="-8.7574420">
        <ele>8.6</ele>
        <time>2021-05-16T12:41:23Z</time>
      </trkpt>
      <trkpt lat="41.3606650" lon="-8.7574420">
        <ele>8.6</ele>
        <time>2021-05-16T12:41:24Z</time>
      </trkpt>
      <trkpt lat="41.3606650" lon="-8.7574420">
        <ele>8.6</ele>
        <time>2021-05-16T12:41:26Z</time>
      </trkpt>
      <trkpt lat="41.3606650" lon="-8.7574420">
        <ele>8.6</ele>
        <time>2021-05-16T12:41:27Z</time>
      </trkpt>
      <trkpt lat="41.3606650" lon="-8.7574420">
        <ele>8.6</ele>
        <time>2021-05-16T12:41:28Z</time>
      </trkpt>
      <trkpt lat="41.3606650" lon="-8.7574420">
        <ele>8.6</ele>
        <time>2021-05-16T12:41:29Z</time>
      </trkpt>
      <trkpt lat="41.3606650" lon="-8.7574420">
        <ele>8.6</ele>
        <time>2021-05-16T12:41:30Z</time>
      </trkpt>
      <trkpt lat="41.3606650" lon="-8.7574420">
        <ele>8.6</ele>
        <time>2021-05-16T12:41:31Z</time>
      </trkpt>
      <trkpt lat="41.3606650" lon="-8.7574420">
        <ele>8.6</ele>
        <time>2021-05-16T12:41:32Z</time>
      </trkpt>
      <trkpt lat="41.3606650" lon="-8.7574420">
        <ele>8.6</ele>
        <time>2021-05-16T12:41:33Z</time>
      </trkpt>
      <trkpt lat="41.3606650" lon="-8.7574420">
        <ele>8.6</ele>
        <time>2021-05-16T12:41:34Z</time>
      </trkpt>
      <trkpt lat="41.3606650" lon="-8.7574420">
        <ele>8.6</ele>
        <time>2021-05-16T12:41:35Z</time>
      </trkpt>
      <trkpt lat="41.3606650" lon="-8.7574420">
        <ele>8.6</ele>
        <time>2021-05-16T12:41:36Z</time>
      </trkpt>
      <trkpt lat="41.3606650" lon="-8.7574420">
        <ele>8.6</ele>
        <time>2021-05-16T12:41:37Z</time>
      </trkpt>
      <trkpt lat="41.3606650" lon="-8.7574420">
        <ele>8.6</ele>
        <time>2021-05-16T12:41:38Z</time>
      </trkpt>
      <trkpt lat="41.3606650" lon="-8.7574420">
        <ele>8.6</ele>
        <time>2021-05-16T12:41:39Z</time>
      </trkpt>
      <trkpt lat="41.3606650" lon="-8.7574420">
        <ele>8.6</ele>
        <time>2021-05-16T12:41:40Z</time>
      </trkpt>
      <trkpt lat="41.3606670" lon="-8.7574460">
        <ele>8.6</ele>
        <time>2021-05-16T12:41:41Z</time>
      </trkpt>
      <trkpt lat="41.3606680" lon="-8.7574470">
        <ele>8.6</ele>
        <time>2021-05-16T12:41:42Z</time>
      </trkpt>
      <trkpt lat="41.3606680" lon="-8.7574470">
        <ele>8.6</ele>
        <time>2021-05-16T12:41:43Z</time>
      </trkpt>
      <trkpt lat="41.3606680" lon="-8.7574470">
        <ele>8.6</ele>
        <time>2021-05-16T12:41:44Z</time>
      </trkpt>
      <trkpt lat="41.3606680" lon="-8.7574470">
        <ele>8.6</ele>
        <time>2021-05-16T12:41:45Z</time>
      </trkpt>
      <trkpt lat="41.3606680" lon="-8.7574470">
        <ele>8.6</ele>
        <time>2021-05-16T12:41:46Z</time>
      </trkpt>
      <trkpt lat="41.3606680" lon="-8.7574470">
        <ele>8.6</ele>
        <time>2021-05-16T12:41:47Z</time>
      </trkpt>
      <trkpt lat="41.3606680" lon="-8.7574470">
        <ele>8.6</ele>
        <time>2021-05-16T12:41:48Z</time>
      </trkpt>
      <trkpt lat="41.3606680" lon="-8.7574470">
        <ele>8.6</ele>
        <time>2021-05-16T12:41:49Z</time>
      </trkpt>
      <trkpt lat="41.3606680" lon="-8.7574470">
        <ele>8.6</ele>
        <time>2021-05-16T12:41:50Z</time>
      </trkpt>
      <trkpt lat="41.3606680" lon="-8.7574470">
        <ele>8.6</ele>
        <time>2021-05-16T12:41:51Z</time>
      </trkpt>
      <trkpt lat="41.3606680" lon="-8.7574470">
        <ele>8.6</ele>
        <time>2021-05-16T12:41:52Z</time>
      </trkpt>
      <trkpt lat="41.3606680" lon="-8.7574470">
        <ele>8.6</ele>
        <time>2021-05-16T12:41:53Z</time>
      </trkpt>
      <trkpt lat="41.3606680" lon="-8.7574470">
        <ele>8.6</ele>
        <time>2021-05-16T12:41:54Z</time>
      </trkpt>
      <trkpt lat="41.3606680" lon="-8.7574470">
        <ele>8.6</ele>
        <time>2021-05-16T12:41:55Z</time>
      </trkpt>
      <trkpt lat="41.3606680" lon="-8.7574470">
        <ele>8.6</ele>
        <time>2021-05-16T12:41:56Z</time>
      </trkpt>
      <trkpt lat="41.3606680" lon="-8.7574470">
        <ele>8.6</ele>
        <time>2021-05-16T12:41:57Z</time>
      </trkpt>
      <trkpt lat="41.3606680" lon="-8.7574470">
        <ele>8.6</ele>
        <time>2021-05-16T12:41:58Z</time>
      </trkpt>
      <trkpt lat="41.3606680" lon="-8.7574470">
        <ele>8.6</ele>
        <time>2021-05-16T12:41:59Z</time>
      </trkpt>
      <trkpt lat="41.3606680" lon="-8.7574470">
        <ele>8.6</ele>
        <time>2021-05-16T12:42:00Z</time>
      </trkpt>
      <trkpt lat="41.3606680" lon="-8.7574470">
        <ele>8.6</ele>
        <time>2021-05-16T12:42:01Z</time>
      </trkpt>
      <trkpt lat="41.3606680" lon="-8.7574470">
        <ele>8.6</ele>
        <time>2021-05-16T12:42:02Z</time>
      </trkpt>
      <trkpt lat="41.3606680" lon="-8.7574470">
        <ele>8.6</ele>
        <time>2021-05-16T12:42:03Z</time>
      </trkpt>
      <trkpt lat="41.3606680" lon="-8.7574470">
        <ele>8.6</ele>
        <time>2021-05-16T12:42:04Z</time>
      </trkpt>
      <trkpt lat="41.3606680" lon="-8.7574470">
        <ele>8.6</ele>
        <time>2021-05-16T12:42:05Z</time>
      </trkpt>
      <trkpt lat="41.3606680" lon="-8.7574470">
        <ele>8.6</ele>
        <time>2021-05-16T12:42:06Z</time>
      </trkpt>
      <trkpt lat="41.3606680" lon="-8.7574470">
        <ele>8.6</ele>
        <time>2021-05-16T12:42:07Z</time>
      </trkpt>
      <trkpt lat="41.3606680" lon="-8.7574470">
        <ele>8.6</ele>
        <time>2021-05-16T12:42:08Z</time>
      </trkpt>
      <trkpt lat="41.3606680" lon="-8.7574470">
        <ele>8.6</ele>
        <time>2021-05-16T12:42:09Z</time>
      </trkpt>
      <trkpt lat="41.3606820" lon="-8.7574580">
        <ele>8.6</ele>
        <time>2021-05-16T12:42:10Z</time>
      </trkpt>
      <trkpt lat="41.3606820" lon="-8.7574580">
        <ele>8.6</ele>
        <time>2021-05-16T12:42:11Z</time>
      </trkpt>
      <trkpt lat="41.3606810" lon="-8.7574580">
        <ele>8.6</ele>
        <time>2021-05-16T12:42:12Z</time>
      </trkpt>
      <trkpt lat="41.3606810" lon="-8.7574590">
        <ele>8.6</ele>
        <time>2021-05-16T12:42:13Z</time>
      </trkpt>
      <trkpt lat="41.3606810" lon="-8.7574590">
        <ele>8.6</ele>
        <time>2021-05-16T12:42:14Z</time>
      </trkpt>
      <trkpt lat="41.3606800" lon="-8.7574590">
        <ele>8.6</ele>
        <time>2021-05-16T12:42:15Z</time>
      </trkpt>
      <trkpt lat="41.3606800" lon="-8.7574590">
        <ele>8.6</ele>
        <time>2021-05-16T12:42:16Z</time>
      </trkpt>
      <trkpt lat="41.3606790" lon="-8.7574590">
        <ele>8.6</ele>
        <time>2021-05-16T12:42:17Z</time>
      </trkpt>
      <trkpt lat="41.3606790" lon="-8.7574600">
        <ele>8.6</ele>
        <time>2021-05-16T12:42:18Z</time>
      </trkpt>
      <trkpt lat="41.3606790" lon="-8.7574600">
        <ele>8.6</ele>
        <time>2021-05-16T12:42:19Z</time>
      </trkpt>
      <trkpt lat="41.3606780" lon="-8.7574600">
        <ele>8.6</ele>
        <time>2021-05-16T12:42:20Z</time>
      </trkpt>
      <trkpt lat="41.3606780" lon="-8.7574600">
        <ele>8.6</ele>
        <time>2021-05-16T12:42:21Z</time>
      </trkpt>
      <trkpt lat="41.3606780" lon="-8.7574600">
        <ele>8.6</ele>
        <time>2021-05-16T12:42:22Z</time>
      </trkpt>
      <trkpt lat="41.3606770" lon="-8.7574610">
        <ele>8.6</ele>
        <time>2021-05-16T12:42:23Z</time>
      </trkpt>
      <trkpt lat="41.3606770" lon="-8.7574610">
        <ele>8.6</ele>
        <time>2021-05-16T12:42:24Z</time>
      </trkpt>
      <trkpt lat="41.3606770" lon="-8.7574610">
        <ele>8.6</ele>
        <time>2021-05-16T12:42:25Z</time>
      </trkpt>
      <trkpt lat="41.3606760" lon="-8.7574610">
        <ele>8.6</ele>
        <time>2021-05-16T12:42:26Z</time>
      </trkpt>
      <trkpt lat="41.3606760" lon="-8.7574620">
        <ele>8.6</ele>
        <time>2021-05-16T12:42:27Z</time>
      </trkpt>
      <trkpt lat="41.3606760" lon="-8.7574620">
        <ele>8.6</ele>
        <time>2021-05-16T12:42:28Z</time>
      </trkpt>
      <trkpt lat="41.3606750" lon="-8.7574620">
        <ele>8.6</ele>
        <time>2021-05-16T12:42:29Z</time>
      </trkpt>
      <trkpt lat="41.3606750" lon="-8.7574620">
        <ele>8.6</ele>
        <time>2021-05-16T12:42:30Z</time>
      </trkpt>
      <trkpt lat="41.3606740" lon="-8.7574620">
        <ele>8.6</ele>
        <time>2021-05-16T12:42:31Z</time>
      </trkpt>
      <trkpt lat="41.3606740" lon="-8.7574630">
        <ele>8.6</ele>
        <time>2021-05-16T12:42:32Z</time>
      </trkpt>
      <trkpt lat="41.3606740" lon="-8.7574630">
        <ele>8.6</ele>
        <time>2021-05-16T12:42:33Z</time>
      </trkpt>
      <trkpt lat="41.3606730" lon="-8.7574630">
        <ele>8.6</ele>
        <time>2021-05-16T12:42:34Z</time>
      </trkpt>
      <trkpt lat="41.3606730" lon="-8.7574630">
        <ele>8.6</ele>
        <time>2021-05-16T12:42:35Z</time>
      </trkpt>
      <trkpt lat="41.3606730" lon="-8.7574630">
        <ele>8.6</ele>
        <time>2021-05-16T12:42:36Z</time>
      </trkpt>
      <trkpt lat="41.3606720" lon="-8.7574640">
        <ele>8.6</ele>
        <time>2021-05-16T12:42:37Z</time>
      </trkpt>
      <trkpt lat="41.3606720" lon="-8.7574640">
        <ele>8.6</ele>
        <time>2021-05-16T12:42:38Z</time>
      </trkpt>
      <trkpt lat="41.3606720" lon="-8.7574640">
        <ele>8.6</ele>
        <time>2021-05-16T12:42:39Z</time>
      </trkpt>
      <trkpt lat="41.3606710" lon="-8.7574640">
        <ele>8.6</ele>
        <time>2021-05-16T12:42:40Z</time>
      </trkpt>
      <trkpt lat="41.3606710" lon="-8.7574640">
        <ele>8.6</ele>
        <time>2021-05-16T12:42:41Z</time>
      </trkpt>
      <trkpt lat="41.3606710" lon="-8.7574650">
        <ele>8.6</ele>
        <time>2021-05-16T12:42:42Z</time>
      </trkpt>
      <trkpt lat="41.3606700" lon="-8.7574650">
        <ele>8.6</ele>
        <time>2021-05-16T12:42:43Z</time>
      </trkpt>
      <trkpt lat="41.3606700" lon="-8.7574650">
        <ele>8.6</ele>
        <time>2021-05-16T12:42:44Z</time>
      </trkpt>
      <trkpt lat="41.3606690" lon="-8.7574650">
        <ele>8.6</ele>
        <time>2021-05-16T12:42:45Z</time>
      </trkpt>
      <trkpt lat="41.3606690" lon="-8.7574650">
        <ele>8.6</ele>
        <time>2021-05-16T12:42:46Z</time>
      </trkpt>
      <trkpt lat="41.3606690" lon="-8.7574660">
        <ele>8.6</ele>
        <time>2021-05-16T12:42:47Z</time>
      </trkpt>
      <trkpt lat="41.3606680" lon="-8.7574660">
        <ele>8.6</ele>
        <time>2021-05-16T12:42:48Z</time>
      </trkpt>
      <trkpt lat="41.3606680" lon="-8.7574660">
        <ele>8.6</ele>
        <time>2021-05-16T12:42:49Z</time>
      </trkpt>
      <trkpt lat="41.3606680" lon="-8.7574660">
        <ele>8.6</ele>
        <time>2021-05-16T12:42:50Z</time>
      </trkpt>
      <trkpt lat="41.3606670" lon="-8.7574660">
        <ele>8.6</ele>
        <time>2021-05-16T12:42:51Z</time>
      </trkpt>
      <trkpt lat="41.3606670" lon="-8.7574670">
        <ele>8.6</ele>
        <time>2021-05-16T12:42:52Z</time>
      </trkpt>
      <trkpt lat="41.3606670" lon="-8.7574670">
        <ele>8.6</ele>
        <time>2021-05-16T12:42:53Z</time>
      </trkpt>
      <trkpt lat="41.3606660" lon="-8.7574670">
        <ele>8.6</ele>
        <time>2021-05-16T12:42:54Z</time>
      </trkpt>
      <trkpt lat="41.3606660" lon="-8.7574670">
        <ele>8.6</ele>
        <time>2021-05-16T12:42:55Z</time>
      </trkpt>
      <trkpt lat="41.3606660" lon="-8.7574680">
        <ele>8.6</ele>
        <time>2021-05-16T12:42:56Z</time>
      </trkpt>
      <trkpt lat="41.3606650" lon="-8.7574680">
        <ele>8.6</ele>
        <time>2021-05-16T12:42:57Z</time>
      </trkpt>
      <trkpt lat="41.3606650" lon="-8.7574680">
        <ele>8.6</ele>
        <time>2021-05-16T12:42:58Z</time>
      </trkpt>
      <trkpt lat="41.3606640" lon="-8.7574680">
        <ele>8.6</ele>
        <time>2021-05-16T12:42:59Z</time>
      </trkpt>
      <trkpt lat="41.3606640" lon="-8.7574680">
        <ele>8.6</ele>
        <time>2021-05-16T12:43:00Z</time>
      </trkpt>
      <trkpt lat="41.3606640" lon="-8.7574690">
        <ele>8.6</ele>
        <time>2021-05-16T12:43:01Z</time>
      </trkpt>
      <trkpt lat="41.3606630" lon="-8.7574690">
        <ele>8.6</ele>
        <time>2021-05-16T12:43:03Z</time>
      </trkpt>
      <trkpt lat="41.3606630" lon="-8.7574690">
        <ele>8.6</ele>
        <time>2021-05-16T12:43:04Z</time>
      </trkpt>
      <trkpt lat="41.3606630" lon="-8.7574690">
        <ele>8.6</ele>
        <time>2021-05-16T12:43:05Z</time>
      </trkpt>
      <trkpt lat="41.3606620" lon="-8.7574690">
        <ele>8.6</ele>
        <time>2021-05-16T12:43:06Z</time>
      </trkpt>
      <trkpt lat="41.3606620" lon="-8.7574700">
        <ele>8.6</ele>
        <time>2021-05-16T12:43:07Z</time>
      </trkpt>
      <trkpt lat="41.3606620" lon="-8.7574700">
        <ele>8.6</ele>
        <time>2021-05-16T12:43:08Z</time>
      </trkpt>
      <trkpt lat="41.3606610" lon="-8.7574700">
        <ele>8.6</ele>
        <time>2021-05-16T12:43:09Z</time>
      </trkpt>
      <trkpt lat="41.3606610" lon="-8.7574700">
        <ele>8.6</ele>
        <time>2021-05-16T12:43:10Z</time>
      </trkpt>
      <trkpt lat="41.3606600" lon="-8.7574700">
        <ele>8.6</ele>
        <time>2021-05-16T12:43:11Z</time>
      </trkpt>
      <trkpt lat="41.3606600" lon="-8.7574710">
        <ele>8.6</ele>
        <time>2021-05-16T12:43:12Z</time>
      </trkpt>
      <trkpt lat="41.3606600" lon="-8.7574710">
        <ele>8.6</ele>
        <time>2021-05-16T12:43:13Z</time>
      </trkpt>
      <trkpt lat="41.3606590" lon="-8.7574710">
        <ele>8.6</ele>
        <time>2021-05-16T12:43:14Z</time>
      </trkpt>
      <trkpt lat="41.3606590" lon="-8.7574710">
        <ele>8.6</ele>
        <time>2021-05-16T12:43:15Z</time>
      </trkpt>
      <trkpt lat="41.3606590" lon="-8.7574710">
        <ele>8.6</ele>
        <time>2021-05-16T12:43:16Z</time>
      </trkpt>
      <trkpt lat="41.3606580" lon="-8.7574720">
        <ele>8.6</ele>
        <time>2021-05-16T12:43:17Z</time>
      </trkpt>
      <trkpt lat="41.3606580" lon="-8.7574720">
        <ele>8.6</ele>
        <time>2021-05-16T12:43:18Z</time>
      </trkpt>
      <trkpt lat="41.3606580" lon="-8.7574720">
        <ele>8.6</ele>
        <time>2021-05-16T12:43:19Z</time>
      </trkpt>
      <trkpt lat="41.3606570" lon="-8.7574720">
        <ele>8.6</ele>
        <time>2021-05-16T12:43:20Z</time>
      </trkpt>
      <trkpt lat="41.3606570" lon="-8.7574720">
        <ele>8.6</ele>
        <time>2021-05-16T12:43:21Z</time>
      </trkpt>
      <trkpt lat="41.3606570" lon="-8.7574730">
        <ele>8.6</ele>
        <time>2021-05-16T12:43:22Z</time>
      </trkpt>
      <trkpt lat="41.3606560" lon="-8.7574730">
        <ele>8.6</ele>
        <time>2021-05-16T12:43:23Z</time>
      </trkpt>
      <trkpt lat="41.3606560" lon="-8.7574730">
        <ele>8.6</ele>
        <time>2021-05-16T12:43:24Z</time>
      </trkpt>
      <trkpt lat="41.3606550" lon="-8.7574730">
        <ele>8.6</ele>
        <time>2021-05-16T12:43:25Z</time>
      </trkpt>
      <trkpt lat="41.3606550" lon="-8.7574730">
        <ele>8.6</ele>
        <time>2021-05-16T12:43:26Z</time>
      </trkpt>
      <trkpt lat="41.3606550" lon="-8.7574740">
        <ele>8.6</ele>
        <time>2021-05-16T12:43:27Z</time>
      </trkpt>
      <trkpt lat="41.3606540" lon="-8.7574740">
        <ele>8.6</ele>
        <time>2021-05-16T12:43:28Z</time>
      </trkpt>
      <trkpt lat="41.3606540" lon="-8.7574740">
        <ele>8.6</ele>
        <time>2021-05-16T12:43:29Z</time>
      </trkpt>
      <trkpt lat="41.3606540" lon="-8.7574740">
        <ele>8.6</ele>
        <time>2021-05-16T12:43:30Z</time>
      </trkpt>
      <trkpt lat="41.3606530" lon="-8.7574750">
        <ele>8.6</ele>
        <time>2021-05-16T12:43:31Z</time>
      </trkpt>
      <trkpt lat="41.3606530" lon="-8.7574750">
        <ele>8.6</ele>
        <time>2021-05-16T12:43:32Z</time>
      </trkpt>
      <trkpt lat="41.3606530" lon="-8.7574750">
        <ele>8.6</ele>
        <time>2021-05-16T12:43:33Z</time>
      </trkpt>
      <trkpt lat="41.3606520" lon="-8.7574750">
        <ele>8.6</ele>
        <time>2021-05-16T12:43:34Z</time>
      </trkpt>
      <trkpt lat="41.3606520" lon="-8.7574750">
        <ele>8.6</ele>
        <time>2021-05-16T12:43:35Z</time>
      </trkpt>
      <trkpt lat="41.3606520" lon="-8.7574760">
        <ele>8.6</ele>
        <time>2021-05-16T12:43:36Z</time>
      </trkpt>
      <trkpt lat="41.3606510" lon="-8.7574760">
        <ele>8.6</ele>
        <time>2021-05-16T12:43:37Z</time>
      </trkpt>
      <trkpt lat="41.3606510" lon="-8.7574760">
        <ele>8.6</ele>
        <time>2021-05-16T12:43:38Z</time>
      </trkpt>
      <trkpt lat="41.3606500" lon="-8.7574760">
        <ele>8.6</ele>
        <time>2021-05-16T12:43:39Z</time>
      </trkpt>
      <trkpt lat="41.3606500" lon="-8.7574760">
        <ele>8.6</ele>
        <time>2021-05-16T12:43:40Z</time>
      </trkpt>
      <trkpt lat="41.3606500" lon="-8.7574770">
        <ele>8.6</ele>
        <time>2021-05-16T12:43:41Z</time>
      </trkpt>
      <trkpt lat="41.3606490" lon="-8.7574770">
        <ele>8.6</ele>
        <time>2021-05-16T12:43:42Z</time>
      </trkpt>
      <trkpt lat="41.3606490" lon="-8.7574770">
        <ele>8.6</ele>
        <time>2021-05-16T12:43:43Z</time>
      </trkpt>
      <trkpt lat="41.3606490" lon="-8.7574780">
        <ele>8.6</ele>
        <time>2021-05-16T12:43:44Z</time>
      </trkpt>
      <trkpt lat="41.3606490" lon="-8.7574780">
        <ele>8.6</ele>
        <time>2021-05-16T12:43:45Z</time>
      </trkpt>
      <trkpt lat="41.3606490" lon="-8.7574780">
        <ele>8.6</ele>
        <time>2021-05-16T12:43:46Z</time>
      </trkpt>
      <trkpt lat="41.3606490" lon="-8.7574780">
        <ele>8.6</ele>
        <time>2021-05-16T12:43:47Z</time>
      </trkpt>
      <trkpt lat="41.3606490" lon="-8.7574780">
        <ele>8.6</ele>
        <time>2021-05-16T12:43:48Z</time>
      </trkpt>
      <trkpt lat="41.3606490" lon="-8.7574780">
        <ele>8.6</ele>
        <time>2021-05-16T12:43:49Z</time>
      </trkpt>
      <trkpt lat="41.3606490" lon="-8.7574780">
        <ele>8.6</ele>
        <time>2021-05-16T12:43:50Z</time>
      </trkpt>
      <trkpt lat="41.3606490" lon="-8.7574780">
        <ele>8.6</ele>
        <time>2021-05-16T12:43:51Z</time>
      </trkpt>
      <trkpt lat="41.3606490" lon="-8.7574780">
        <ele>8.6</ele>
        <time>2021-05-16T12:43:52Z</time>
      </trkpt>
      <trkpt lat="41.3606490" lon="-8.7574780">
        <ele>8.6</ele>
        <time>2021-05-16T12:43:53Z</time>
      </trkpt>
      <trkpt lat="41.3606490" lon="-8.7574780">
        <ele>8.6</ele>
        <time>2021-05-16T12:43:54Z</time>
      </trkpt>
      <trkpt lat="41.3606490" lon="-8.7574780">
        <ele>8.6</ele>
        <time>2021-05-16T12:43:55Z</time>
      </trkpt>
      <trkpt lat="41.3606490" lon="-8.7574780">
        <ele>8.6</ele>
        <time>2021-05-16T12:43:56Z</time>
      </trkpt>
      <trkpt lat="41.3606490" lon="-8.7574780">
        <ele>8.6</ele>
        <time>2021-05-16T12:43:57Z</time>
      </trkpt>
      <trkpt lat="41.3606490" lon="-8.7574780">
        <ele>8.6</ele>
        <time>2021-05-16T12:43:58Z</time>
      </trkpt>
      <trkpt lat="41.3606490" lon="-8.7574780">
        <ele>8.6</ele>
        <time>2021-05-16T12:43:59Z</time>
      </trkpt>
      <trkpt lat="41.3606490" lon="-8.7574780">
        <ele>8.6</ele>
        <time>2021-05-16T12:44:00Z</time>
      </trkpt>
      <trkpt lat="41.3606540" lon="-8.7574690">
        <ele>8.6</ele>
        <time>2021-05-16T12:44:01Z</time>
      </trkpt>
      <trkpt lat="41.3606530" lon="-8.7574710">
        <ele>8.6</ele>
        <time>2021-05-16T12:44:02Z</time>
      </trkpt>
      <trkpt lat="41.3606530" lon="-8.7574670">
        <ele>8.6</ele>
        <time>2021-05-16T12:44:03Z</time>
      </trkpt>
      <trkpt lat="41.3606450" lon="-8.7574700">
        <ele>8.6</ele>
        <time>2021-05-16T12:44:04Z</time>
      </trkpt>
      <trkpt lat="41.3606450" lon="-8.7574630">
        <ele>8.6</ele>
        <time>2021-05-16T12:44:05Z</time>
      </trkpt>
      <trkpt lat="41.3606420" lon="-8.7574640">
        <ele>8.6</ele>
        <time>2021-05-16T12:44:06Z</time>
      </trkpt>
      <trkpt lat="41.3606410" lon="-8.7574660">
        <ele>8.6</ele>
        <time>2021-05-16T12:44:07Z</time>
      </trkpt>
      <trkpt lat="41.3606400" lon="-8.7574640">
        <ele>8.6</ele>
        <time>2021-05-16T12:44:08Z</time>
      </trkpt>
      <trkpt lat="41.3606400" lon="-8.7574700">
        <ele>8.6</ele>
        <time>2021-05-16T12:44:09Z</time>
      </trkpt>
      <trkpt lat="41.3606440" lon="-8.7574690">
        <ele>8.6</ele>
        <time>2021-05-16T12:44:10Z</time>
      </trkpt>
      <trkpt lat="41.3606470" lon="-8.7574620">
        <ele>8.6</ele>
        <time>2021-05-16T12:44:11Z</time>
      </trkpt>
      <trkpt lat="41.3606480" lon="-8.7574590">
        <ele>8.6</ele>
        <time>2021-05-16T12:44:12Z</time>
      </trkpt>
      <trkpt lat="41.3606490" lon="-8.7574600">
        <ele>8.6</ele>
        <time>2021-05-16T12:44:13Z</time>
      </trkpt>
      <trkpt lat="41.3606480" lon="-8.7574620">
        <ele>8.6</ele>
        <time>2021-05-16T12:44:14Z</time>
      </trkpt>
      <trkpt lat="41.3606510" lon="-8.7574550">
        <ele>8.6</ele>
        <time>2021-05-16T12:44:15Z</time>
      </trkpt>
      <trkpt lat="41.3606470" lon="-8.7574550">
        <ele>8.6</ele>
        <time>2021-05-16T12:44:16Z</time>
      </trkpt>
      <trkpt lat="41.3606460" lon="-8.7574520">
        <ele>8.6</ele>
        <time>2021-05-16T12:44:17Z</time>
      </trkpt>
      <trkpt lat="41.3606520" lon="-8.7574570">
        <ele>8.6</ele>
        <time>2021-05-16T12:44:18Z</time>
      </trkpt>
      <trkpt lat="41.3606530" lon="-8.7574690">
        <ele>8.6</ele>
        <time>2021-05-16T12:44:19Z</time>
      </trkpt>
      <trkpt lat="41.3606540" lon="-8.7574780">
        <ele>8.6</ele>
        <time>2021-05-16T12:44:20Z</time>
      </trkpt>
      <trkpt lat="41.3606510" lon="-8.7574800">
        <ele>8.6</ele>
        <time>2021-05-16T12:44:21Z</time>
      </trkpt>
      <trkpt lat="41.3606510" lon="-8.7574650">
        <ele>8.6</ele>
        <time>2021-05-16T12:44:22Z</time>
      </trkpt>
      <trkpt lat="41.3606460" lon="-8.7574480">
        <ele>8.6</ele>
        <time>2021-05-16T12:44:23Z</time>
      </trkpt>
      <trkpt lat="41.3606410" lon="-8.7574460">
        <ele>8.6</ele>
        <time>2021-05-16T12:44:24Z</time>
      </trkpt>
      <trkpt lat="41.3606320" lon="-8.7574450">
        <ele>8.6</ele>
        <time>2021-05-16T12:44:25Z</time>
      </trkpt>
      <trkpt lat="41.3606280" lon="-8.7574440">
        <ele>8.6</ele>
        <time>2021-05-16T12:44:26Z</time>
      </trkpt>
      <trkpt lat="41.3606210" lon="-8.7574430">
        <ele>8.6</ele>
        <time>2021-05-16T12:44:27Z</time>
      </trkpt>
      <trkpt lat="41.3606180" lon="-8.7574410">
        <ele>8.6</ele>
        <time>2021-05-16T12:44:28Z</time>
      </trkpt>
      <trkpt lat="41.3606160" lon="-8.7574430">
        <ele>8.6</ele>
        <time>2021-05-16T12:44:29Z</time>
      </trkpt>
      <trkpt lat="41.3606190" lon="-8.7574440">
        <ele>8.6</ele>
        <time>2021-05-16T12:44:30Z</time>
      </trkpt>
      <trkpt lat="41.3606180" lon="-8.7574450">
        <ele>8.6</ele>
        <time>2021-05-16T12:44:31Z</time>
      </trkpt>
      <trkpt lat="41.3606150" lon="-8.7574430">
        <ele>8.6</ele>
        <time>2021-05-16T12:44:32Z</time>
      </trkpt>
      <trkpt lat="41.3606070" lon="-8.7574440">
        <ele>8.6</ele>
        <time>2021-05-16T12:44:33Z</time>
      </trkpt>
      <trkpt lat="41.3606090" lon="-8.7574430">
        <ele>8.6</ele>
        <time>2021-05-16T12:44:34Z</time>
      </trkpt>
      <trkpt lat="41.3606100" lon="-8.7574360">
        <ele>8.6</ele>
        <time>2021-05-16T12:44:35Z</time>
      </trkpt>
      <trkpt lat="41.3606110" lon="-8.7574350">
        <ele>8.6</ele>
        <time>2021-05-16T12:44:36Z</time>
      </trkpt>
      <trkpt lat="41.3606030" lon="-8.7574360">
        <ele>8.6</ele>
        <time>2021-05-16T12:44:37Z</time>
      </trkpt>
      <trkpt lat="41.3605960" lon="-8.7574390">
        <ele>8.6</ele>
        <time>2021-05-16T12:44:38Z</time>
      </trkpt>
      <trkpt lat="41.3606020" lon="-8.7574370">
        <ele>8.6</ele>
        <time>2021-05-16T12:44:39Z</time>
      </trkpt>
      <trkpt lat="41.3606140" lon="-8.7574330">
        <ele>8.6</ele>
        <time>2021-05-16T12:44:40Z</time>
      </trkpt>
      <trkpt lat="41.3606210" lon="-8.7574270">
        <ele>8.6</ele>
        <time>2021-05-16T12:44:41Z</time>
      </trkpt>
      <trkpt lat="41.3606270" lon="-8.7574250">
        <ele>8.6</ele>
        <time>2021-05-16T12:44:42Z</time>
      </trkpt>
      <trkpt lat="41.3606270" lon="-8.7574280">
        <ele>8.6</ele>
        <time>2021-05-16T12:44:43Z</time>
      </trkpt>
      <trkpt lat="41.3606230" lon="-8.7574300">
        <ele>8.6</ele>
        <time>2021-05-16T12:44:44Z</time>
      </trkpt>
      <trkpt lat="41.3606210" lon="-8.7574340">
        <ele>8.6</ele>
        <time>2021-05-16T12:44:45Z</time>
      </trkpt>
      <trkpt lat="41.3606280" lon="-8.7574340">
        <ele>8.6</ele>
        <time>2021-05-16T12:44:46Z</time>
      </trkpt>
      <trkpt lat="41.3606310" lon="-8.7574370">
        <ele>8.6</ele>
        <time>2021-05-16T12:44:47Z</time>
      </trkpt>
      <trkpt lat="41.3606360" lon="-8.7574340">
        <ele>8.6</ele>
        <time>2021-05-16T12:44:48Z</time>
      </trkpt>
      <trkpt lat="41.3606330" lon="-8.7574380">
        <ele>8.6</ele>
        <time>2021-05-16T12:44:49Z</time>
      </trkpt>
      <trkpt lat="41.3606370" lon="-8.7574470">
        <ele>8.6</ele>
        <time>2021-05-16T12:44:50Z</time>
      </trkpt>
      <trkpt lat="41.3606360" lon="-8.7574560">
        <ele>8.6</ele>
        <time>2021-05-16T12:44:51Z</time>
      </trkpt>
      <trkpt lat="41.3606350" lon="-8.7574550">
        <ele>8.6</ele>
        <time>2021-05-16T12:44:52Z</time>
      </trkpt>
      <trkpt lat="41.3606280" lon="-8.7574580">
        <ele>8.6</ele>
        <time>2021-05-16T12:44:53Z</time>
      </trkpt>
      <trkpt lat="41.3606260" lon="-8.7574400">
        <ele>8.6</ele>
        <time>2021-05-16T12:44:54Z</time>
      </trkpt>
      <trkpt lat="41.3606340" lon="-8.7574390">
        <ele>8.6</ele>
        <time>2021-05-16T12:44:55Z</time>
      </trkpt>
      <trkpt lat="41.3606310" lon="-8.7574330">
        <ele>8.6</ele>
        <time>2021-05-16T12:44:56Z</time>
      </trkpt>
      <trkpt lat="41.3606240" lon="-8.7574300">
        <ele>8.6</ele>
        <time>2021-05-16T12:44:57Z</time>
      </trkpt>
      <trkpt lat="41.3606240" lon="-8.7574270">
        <ele>8.6</ele>
        <time>2021-05-16T12:44:58Z</time>
      </trkpt>
      <trkpt lat="41.3606270" lon="-8.7574280">
        <ele>8.6</ele>
        <time>2021-05-16T12:44:59Z</time>
      </trkpt>
      <trkpt lat="41.3606280" lon="-8.7574170">
        <ele>8.6</ele>
        <time>2021-05-16T12:45:00Z</time>
      </trkpt>
      <trkpt lat="41.3606310" lon="-8.7574140">
        <ele>8.6</ele>
        <time>2021-05-16T12:45:01Z</time>
      </trkpt>
      <trkpt lat="41.3606340" lon="-8.7574170">
        <ele>8.6</ele>
        <time>2021-05-16T12:45:02Z</time>
      </trkpt>
      <trkpt lat="41.3606350" lon="-8.7574190">
        <ele>8.6</ele>
        <time>2021-05-16T12:45:03Z</time>
      </trkpt>
      <trkpt lat="41.3606420" lon="-8.7574170">
        <ele>8.6</ele>
        <time>2021-05-16T12:45:04Z</time>
      </trkpt>
      <trkpt lat="41.3606380" lon="-8.7574190">
        <ele>8.6</ele>
        <time>2021-05-16T12:45:05Z</time>
      </trkpt>
      <trkpt lat="41.3606360" lon="-8.7574210">
        <ele>8.6</ele>
        <time>2021-05-16T12:45:06Z</time>
      </trkpt>
      <trkpt lat="41.3606410" lon="-8.7574170">
        <ele>8.6</ele>
        <time>2021-05-16T12:45:07Z</time>
      </trkpt>
      <trkpt lat="41.3606410" lon="-8.7574220">
        <ele>8.6</ele>
        <time>2021-05-16T12:45:08Z</time>
      </trkpt>
      <trkpt lat="41.3606380" lon="-8.7574260">
        <ele>8.6</ele>
        <time>2021-05-16T12:45:09Z</time>
      </trkpt>
      <trkpt lat="41.3606380" lon="-8.7574210">
        <ele>8.6</ele>
        <time>2021-05-16T12:45:10Z</time>
      </trkpt>
      <trkpt lat="41.3606400" lon="-8.7574170">
        <ele>8.6</ele>
        <time>2021-05-16T12:45:11Z</time>
      </trkpt>
      <trkpt lat="41.3606380" lon="-8.7574200">
        <ele>8.6</ele>
        <time>2021-05-16T12:45:12Z</time>
      </trkpt>
      <trkpt lat="41.3606340" lon="-8.7574250">
        <ele>8.6</ele>
        <time>2021-05-16T12:45:13Z</time>
      </trkpt>
      <trkpt lat="41.3606390" lon="-8.7574210">
        <ele>8.6</ele>
        <time>2021-05-16T12:45:14Z</time>
      </trkpt>
      <trkpt lat="41.3606310" lon="-8.7574220">
        <ele>8.6</ele>
        <time>2021-05-16T12:45:15Z</time>
      </trkpt>
      <trkpt lat="41.3606330" lon="-8.7574200">
        <ele>8.6</ele>
        <time>2021-05-16T12:45:16Z</time>
      </trkpt>
      <trkpt lat="41.3606320" lon="-8.7574180">
        <ele>8.6</ele>
        <time>2021-05-16T12:45:17Z</time>
      </trkpt>
      <trkpt lat="41.3606320" lon="-8.7574100">
        <ele>8.6</ele>
        <time>2021-05-16T12:45:18Z</time>
      </trkpt>
      <trkpt lat="41.3606260" lon="-8.7574050">
        <ele>8.6</ele>
        <time>2021-05-16T12:45:19Z</time>
      </trkpt>
      <trkpt lat="41.3606190" lon="-8.7574160">
        <ele>8.6</ele>
        <time>2021-05-16T12:45:20Z</time>
      </trkpt>
      <trkpt lat="41.3606260" lon="-8.7574140">
        <ele>8.6</ele>
        <time>2021-05-16T12:45:21Z</time>
      </trkpt>
      <trkpt lat="41.3606420" lon="-8.7574040">
        <ele>8.5</ele>
        <time>2021-05-16T12:45:22Z</time>
      </trkpt>
      <trkpt lat="41.3606400" lon="-8.7574090">
        <ele>8.5</ele>
        <time>2021-05-16T12:45:23Z</time>
      </trkpt>
      <trkpt lat="41.3606420" lon="-8.7574130">
        <ele>8.5</ele>
        <time>2021-05-16T12:45:24Z</time>
      </trkpt>
      <trkpt lat="41.3606470" lon="-8.7574160">
        <ele>8.5</ele>
        <time>2021-05-16T12:45:25Z</time>
      </trkpt>
      <trkpt lat="41.3606470" lon="-8.7574210">
        <ele>8.5</ele>
        <time>2021-05-16T12:45:26Z</time>
      </trkpt>
      <trkpt lat="41.3606430" lon="-8.7574250">
        <ele>8.5</ele>
        <time>2021-05-16T12:45:27Z</time>
      </trkpt>
      <trkpt lat="41.3606430" lon="-8.7574260">
        <ele>8.5</ele>
        <time>2021-05-16T12:45:28Z</time>
      </trkpt>
      <trkpt lat="41.3606470" lon="-8.7574280">
        <ele>8.5</ele>
        <time>2021-05-16T12:45:29Z</time>
      </trkpt>
      <trkpt lat="41.3606470" lon="-8.7574340">
        <ele>8.5</ele>
        <time>2021-05-16T12:45:30Z</time>
      </trkpt>
      <trkpt lat="41.3606450" lon="-8.7574440">
        <ele>8.5</ele>
        <time>2021-05-16T12:45:31Z</time>
      </trkpt>
      <trkpt lat="41.3606460" lon="-8.7574490">
        <ele>8.5</ele>
        <time>2021-05-16T12:45:32Z</time>
      </trkpt>
      <trkpt lat="41.3606500" lon="-8.7574480">
        <ele>8.5</ele>
        <time>2021-05-16T12:45:33Z</time>
      </trkpt>
      <trkpt lat="41.3606540" lon="-8.7574490">
        <ele>8.5</ele>
        <time>2021-05-16T12:45:34Z</time>
      </trkpt>
      <trkpt lat="41.3606560" lon="-8.7574520">
        <ele>8.5</ele>
        <time>2021-05-16T12:45:35Z</time>
      </trkpt>
      <trkpt lat="41.3606600" lon="-8.7574490">
        <ele>8.5</ele>
        <time>2021-05-16T12:45:36Z</time>
      </trkpt>
      <trkpt lat="41.3606620" lon="-8.7574490">
        <ele>8.5</ele>
        <time>2021-05-16T12:45:37Z</time>
      </trkpt>
      <trkpt lat="41.3606620" lon="-8.7574550">
        <ele>8.5</ele>
        <time>2021-05-16T12:45:38Z</time>
      </trkpt>
      <trkpt lat="41.3606590" lon="-8.7574550">
        <ele>8.5</ele>
        <time>2021-05-16T12:45:39Z</time>
      </trkpt>
      <trkpt lat="41.3606550" lon="-8.7574610">
        <ele>8.5</ele>
        <time>2021-05-16T12:45:40Z</time>
      </trkpt>
      <trkpt lat="41.3606620" lon="-8.7574650">
        <ele>8.5</ele>
        <time>2021-05-16T12:45:41Z</time>
      </trkpt>
      <trkpt lat="41.3606640" lon="-8.7574580">
        <ele>8.5</ele>
        <time>2021-05-16T12:45:42Z</time>
      </trkpt>
      <trkpt lat="41.3606580" lon="-8.7574590">
        <ele>8.5</ele>
        <time>2021-05-16T12:45:43Z</time>
      </trkpt>
      <trkpt lat="41.3606530" lon="-8.7574690">
        <ele>8.5</ele>
        <time>2021-05-16T12:45:44Z</time>
      </trkpt>
      <trkpt lat="41.3606490" lon="-8.7574650">
        <ele>8.5</ele>
        <time>2021-05-16T12:45:45Z</time>
      </trkpt>
      <trkpt lat="41.3606520" lon="-8.7574600">
        <ele>8.5</ele>
        <time>2021-05-16T12:45:46Z</time>
      </trkpt>
      <trkpt lat="41.3606520" lon="-8.7574570">
        <ele>8.5</ele>
        <time>2021-05-16T12:45:47Z</time>
      </trkpt>
      <trkpt lat="41.3606490" lon="-8.7574520">
        <ele>8.5</ele>
        <time>2021-05-16T12:45:48Z</time>
      </trkpt>
      <trkpt lat="41.3606460" lon="-8.7574490">
        <ele>8.5</ele>
        <time>2021-05-16T12:45:49Z</time>
      </trkpt>
      <trkpt lat="41.3606420" lon="-8.7574540">
        <ele>8.5</ele>
        <time>2021-05-16T12:45:50Z</time>
      </trkpt>
      <trkpt lat="41.3606420" lon="-8.7574480">
        <ele>8.5</ele>
        <time>2021-05-16T12:45:51Z</time>
      </trkpt>
      <trkpt lat="41.3606450" lon="-8.7574620">
        <ele>8.5</ele>
        <time>2021-05-16T12:45:52Z</time>
      </trkpt>
      <trkpt lat="41.3606490" lon="-8.7574620">
        <ele>8.5</ele>
        <time>2021-05-16T12:45:53Z</time>
      </trkpt>
      <trkpt lat="41.3606530" lon="-8.7574610">
        <ele>8.5</ele>
        <time>2021-05-16T12:45:54Z</time>
      </trkpt>
      <trkpt lat="41.3606540" lon="-8.7574590">
        <ele>8.5</ele>
        <time>2021-05-16T12:45:55Z</time>
      </trkpt>
      <trkpt lat="41.3606560" lon="-8.7574600">
        <ele>8.5</ele>
        <time>2021-05-16T12:45:56Z</time>
      </trkpt>
      <trkpt lat="41.3606560" lon="-8.7574600">
        <ele>8.5</ele>
        <time>2021-05-16T12:45:57Z</time>
      </trkpt>
      <trkpt lat="41.3606570" lon="-8.7574600">
        <ele>8.5</ele>
        <time>2021-05-16T12:45:58Z</time>
      </trkpt>
      <trkpt lat="41.3606590" lon="-8.7574650">
        <ele>8.5</ele>
        <time>2021-05-16T12:45:59Z</time>
      </trkpt>
      <trkpt lat="41.3606610" lon="-8.7574640">
        <ele>8.5</ele>
        <time>2021-05-16T12:46:00Z</time>
      </trkpt>
      <trkpt lat="41.3606600" lon="-8.7574580">
        <ele>8.5</ele>
        <time>2021-05-16T12:46:01Z</time>
      </trkpt>
      <trkpt lat="41.3606610" lon="-8.7574630">
        <ele>8.5</ele>
        <time>2021-05-16T12:46:02Z</time>
      </trkpt>
      <trkpt lat="41.3606610" lon="-8.7574680">
        <ele>8.5</ele>
        <time>2021-05-16T12:46:03Z</time>
      </trkpt>
      <trkpt lat="41.3606630" lon="-8.7574710">
        <ele>8.5</ele>
        <time>2021-05-16T12:46:04Z</time>
      </trkpt>
      <trkpt lat="41.3606660" lon="-8.7574710">
        <ele>8.5</ele>
        <time>2021-05-16T12:46:05Z</time>
      </trkpt>
      <trkpt lat="41.3606670" lon="-8.7574710">
        <ele>8.5</ele>
        <time>2021-05-16T12:46:06Z</time>
      </trkpt>
      <trkpt lat="41.3606680" lon="-8.7574750">
        <ele>8.5</ele>
        <time>2021-05-16T12:46:07Z</time>
      </trkpt>
      <trkpt lat="41.3606690" lon="-8.7574710">
        <ele>8.5</ele>
        <time>2021-05-16T12:46:08Z</time>
      </trkpt>
      <trkpt lat="41.3606630" lon="-8.7574750">
        <ele>8.5</ele>
        <time>2021-05-16T12:46:09Z</time>
      </trkpt>
      <trkpt lat="41.3606600" lon="-8.7574760">
        <ele>8.5</ele>
        <time>2021-05-16T12:46:10Z</time>
      </trkpt>
      <trkpt lat="41.3606620" lon="-8.7574680">
        <ele>8.5</ele>
        <time>2021-05-16T12:46:11Z</time>
      </trkpt>
      <trkpt lat="41.3606630" lon="-8.7574590">
        <ele>8.5</ele>
        <time>2021-05-16T12:46:12Z</time>
      </trkpt>
      <trkpt lat="41.3606620" lon="-8.7574610">
        <ele>8.5</ele>
        <time>2021-05-16T12:46:13Z</time>
      </trkpt>
      <trkpt lat="41.3606540" lon="-8.7574720">
        <ele>8.5</ele>
        <time>2021-05-16T12:46:14Z</time>
      </trkpt>
      <trkpt lat="41.3606550" lon="-8.7574740">
        <ele>8.5</ele>
        <time>2021-05-16T12:46:15Z</time>
      </trkpt>
      <trkpt lat="41.3606580" lon="-8.7574680">
        <ele>8.5</ele>
        <time>2021-05-16T12:46:16Z</time>
      </trkpt>
      <trkpt lat="41.3606630" lon="-8.7574620">
        <ele>8.5</ele>
        <time>2021-05-16T12:46:17Z</time>
      </trkpt>
      <trkpt lat="41.3606680" lon="-8.7574510">
        <ele>8.5</ele>
        <time>2021-05-16T12:46:18Z</time>
      </trkpt>
      <trkpt lat="41.3606660" lon="-8.7574550">
        <ele>8.5</ele>
        <time>2021-05-16T12:46:19Z</time>
      </trkpt>
      <trkpt lat="41.3606650" lon="-8.7574790">
        <ele>8.5</ele>
        <time>2021-05-16T12:46:20Z</time>
      </trkpt>
      <trkpt lat="41.3606720" lon="-8.7574920">
        <ele>8.5</ele>
        <time>2021-05-16T12:46:21Z</time>
      </trkpt>
      <trkpt lat="41.3606790" lon="-8.7575120">
        <ele>8.5</ele>
        <time>2021-05-16T12:46:22Z</time>
      </trkpt>
      <trkpt lat="41.3606920" lon="-8.7575180">
        <ele>8.5</ele>
        <time>2021-05-16T12:46:23Z</time>
      </trkpt>
      <trkpt lat="41.3606980" lon="-8.7575210">
        <ele>8.5</ele>
        <time>2021-05-16T12:46:24Z</time>
      </trkpt>
      <trkpt lat="41.3607030" lon="-8.7575240">
        <ele>8.5</ele>
        <time>2021-05-16T12:46:25Z</time>
      </trkpt>
      <trkpt lat="41.3607090" lon="-8.7575270">
        <ele>8.5</ele>
        <time>2021-05-16T12:46:26Z</time>
      </trkpt>
      <trkpt lat="41.3607140" lon="-8.7575300">
        <ele>8.5</ele>
        <time>2021-05-16T12:46:27Z</time>
      </trkpt>
      <trkpt lat="41.3607260" lon="-8.7575290">
        <ele>8.5</ele>
        <time>2021-05-16T12:46:28Z</time>
      </trkpt>
      <trkpt lat="41.3607350" lon="-8.7575310">
        <ele>8.5</ele>
        <time>2021-05-16T12:46:29Z</time>
      </trkpt>
      <trkpt lat="41.3607380" lon="-8.7575390">
        <ele>8.5</ele>
        <time>2021-05-16T12:46:30Z</time>
      </trkpt>
      <trkpt lat="41.3607460" lon="-8.7575480">
        <ele>8.5</ele>
        <time>2021-05-16T12:46:31Z</time>
      </trkpt>
      <trkpt lat="41.3607540" lon="-8.7575610">
        <ele>8.5</ele>
        <time>2021-05-16T12:46:32Z</time>
      </trkpt>
      <trkpt lat="41.3607610" lon="-8.7575680">
        <ele>8.5</ele>
        <time>2021-05-16T12:46:33Z</time>
      </trkpt>
      <trkpt lat="41.3607690" lon="-8.7575790">
        <ele>8.5</ele>
        <time>2021-05-16T12:46:34Z</time>
      </trkpt>
      <trkpt lat="41.3607790" lon="-8.7575870">
        <ele>8.5</ele>
        <time>2021-05-16T12:46:35Z</time>
      </trkpt>
      <trkpt lat="41.3607870" lon="-8.7575930">
        <ele>8.5</ele>
        <time>2021-05-16T12:46:36Z</time>
      </trkpt>
      <trkpt lat="41.3607940" lon="-8.7575990">
        <ele>8.5</ele>
        <time>2021-05-16T12:46:37Z</time>
      </trkpt>
      <trkpt lat="41.3608010" lon="-8.7576050">
        <ele>8.5</ele>
        <time>2021-05-16T12:46:38Z</time>
      </trkpt>
      <trkpt lat="41.3608160" lon="-8.7576220">
        <ele>8.5</ele>
        <time>2021-05-16T12:46:39Z</time>
      </trkpt>
      <trkpt lat="41.3608230" lon="-8.7576310">
        <ele>8.5</ele>
        <time>2021-05-16T12:46:40Z</time>
      </trkpt>
      <trkpt lat="41.3608300" lon="-8.7576400">
        <ele>8.5</ele>
        <time>2021-05-16T12:46:41Z</time>
      </trkpt>
      <trkpt lat="41.3608330" lon="-8.7576470">
        <ele>8.5</ele>
        <time>2021-05-16T12:46:42Z</time>
      </trkpt>
      <trkpt lat="41.3608390" lon="-8.7576550">
        <ele>8.5</ele>
        <time>2021-05-16T12:46:43Z</time>
      </trkpt>
      <trkpt lat="41.3608570" lon="-8.7576710">
        <ele>8.5</ele>
        <time>2021-05-16T12:46:44Z</time>
      </trkpt>
      <trkpt lat="41.3608630" lon="-8.7576800">
        <ele>8.5</ele>
        <time>2021-05-16T12:46:45Z</time>
      </trkpt>
      <trkpt lat="41.3608770" lon="-8.7576890">
        <ele>8.5</ele>
        <time>2021-05-16T12:46:46Z</time>
      </trkpt>
      <trkpt lat="41.3608810" lon="-8.7576970">
        <ele>8.5</ele>
        <time>2021-05-16T12:46:47Z</time>
      </trkpt>
      <trkpt lat="41.3608830" lon="-8.7577070">
        <ele>8.5</ele>
        <time>2021-05-16T12:46:48Z</time>
      </trkpt>
      <trkpt lat="41.3608950" lon="-8.7577170">
        <ele>8.5</ele>
        <time>2021-05-16T12:46:49Z</time>
      </trkpt>
      <trkpt lat="41.3609010" lon="-8.7577200">
        <ele>8.5</ele>
        <time>2021-05-16T12:46:50Z</time>
      </trkpt>
      <trkpt lat="41.3609040" lon="-8.7577220">
        <ele>8.5</ele>
        <time>2021-05-16T12:46:51Z</time>
      </trkpt>
      <trkpt lat="41.3609120" lon="-8.7577350">
        <ele>8.5</ele>
        <time>2021-05-16T12:46:52Z</time>
      </trkpt>
      <trkpt lat="41.3609130" lon="-8.7577430">
        <ele>8.5</ele>
        <time>2021-05-16T12:46:53Z</time>
      </trkpt>
      <trkpt lat="41.3609260" lon="-8.7577600">
        <ele>8.5</ele>
        <time>2021-05-16T12:46:54Z</time>
      </trkpt>
      <trkpt lat="41.3609370" lon="-8.7577740">
        <ele>8.5</ele>
        <time>2021-05-16T12:46:55Z</time>
      </trkpt>
      <trkpt lat="41.3609410" lon="-8.7577800">
        <ele>8.5</ele>
        <time>2021-05-16T12:46:56Z</time>
      </trkpt>
      <trkpt lat="41.3609460" lon="-8.7577900">
        <ele>8.5</ele>
        <time>2021-05-16T12:46:57Z</time>
      </trkpt>
      <trkpt lat="41.3609510" lon="-8.7578020">
        <ele>8.5</ele>
        <time>2021-05-16T12:46:58Z</time>
      </trkpt>
      <trkpt lat="41.3609630" lon="-8.7578120">
        <ele>8.5</ele>
        <time>2021-05-16T12:46:59Z</time>
      </trkpt>
      <trkpt lat="41.3609670" lon="-8.7578210">
        <ele>8.5</ele>
        <time>2021-05-16T12:47:00Z</time>
      </trkpt>
      <trkpt lat="41.3609750" lon="-8.7578290">
        <ele>8.5</ele>
        <time>2021-05-16T12:47:01Z</time>
      </trkpt>
      <trkpt lat="41.3609840" lon="-8.7578350">
        <ele>8.5</ele>
        <time>2021-05-16T12:47:02Z</time>
      </trkpt>
      <trkpt lat="41.3609940" lon="-8.7578460">
        <ele>8.5</ele>
        <time>2021-05-16T12:47:03Z</time>
      </trkpt>
      <trkpt lat="41.3610000" lon="-8.7578560">
        <ele>8.5</ele>
        <time>2021-05-16T12:47:04Z</time>
      </trkpt>
      <trkpt lat="41.3610110" lon="-8.7578670">
        <ele>8.5</ele>
        <time>2021-05-16T12:47:05Z</time>
      </trkpt>
      <trkpt lat="41.3610200" lon="-8.7578730">
        <ele>8.5</ele>
        <time>2021-05-16T12:47:06Z</time>
      </trkpt>
      <trkpt lat="41.3610310" lon="-8.7578890">
        <ele>8.5</ele>
        <time>2021-05-16T12:47:07Z</time>
      </trkpt>
      <trkpt lat="41.3610450" lon="-8.7578980">
        <ele>8.5</ele>
        <time>2021-05-16T12:47:08Z</time>
      </trkpt>
      <trkpt lat="41.3610520" lon="-8.7579220">
        <ele>8.5</ele>
        <time>2021-05-16T12:47:09Z</time>
      </trkpt>
      <trkpt lat="41.3610540" lon="-8.7579340">
        <ele>8.5</ele>
        <time>2021-05-16T12:47:10Z</time>
      </trkpt>
      <trkpt lat="41.3610550" lon="-8.7579450">
        <ele>8.5</ele>
        <time>2021-05-16T12:47:11Z</time>
      </trkpt>
      <trkpt lat="41.3610590" lon="-8.7579530">
        <ele>8.5</ele>
        <time>2021-05-16T12:47:12Z</time>
      </trkpt>
      <trkpt lat="41.3610620" lon="-8.7579700">
        <ele>8.5</ele>
        <time>2021-05-16T12:47:13Z</time>
      </trkpt>
      <trkpt lat="41.3610690" lon="-8.7579840">
        <ele>8.5</ele>
        <time>2021-05-16T12:47:14Z</time>
      </trkpt>
      <trkpt lat="41.3610820" lon="-8.7580040">
        <ele>8.5</ele>
        <time>2021-05-16T12:47:15Z</time>
      </trkpt>
      <trkpt lat="41.3610860" lon="-8.7580140">
        <ele>8.5</ele>
        <time>2021-05-16T12:47:16Z</time>
      </trkpt>
      <trkpt lat="41.3610890" lon="-8.7580250">
        <ele>8.5</ele>
        <time>2021-05-16T12:47:17Z</time>
      </trkpt>
      <trkpt lat="41.3610920" lon="-8.7580380">
        <ele>8.5</ele>
        <time>2021-05-16T12:47:18Z</time>
      </trkpt>
      <trkpt lat="41.3610970" lon="-8.7580470">
        <ele>8.5</ele>
        <time>2021-05-16T12:47:19Z</time>
      </trkpt>
      <trkpt lat="41.3610970" lon="-8.7580650">
        <ele>8.5</ele>
        <time>2021-05-16T12:47:20Z</time>
      </trkpt>
      <trkpt lat="41.3610860" lon="-8.7580760">
        <ele>8.5</ele>
        <time>2021-05-16T12:47:21Z</time>
      </trkpt>
      <trkpt lat="41.3610750" lon="-8.7580920">
        <ele>8.5</ele>
        <time>2021-05-16T12:47:22Z</time>
      </trkpt>
      <trkpt lat="41.3610550" lon="-8.7581070">
        <ele>8.5</ele>
        <time>2021-05-16T12:47:23Z</time>
      </trkpt>
      <trkpt lat="41.3610500" lon="-8.7581180">
        <ele>8.5</ele>
        <time>2021-05-16T12:47:24Z</time>
      </trkpt>
      <trkpt lat="41.3610450" lon="-8.7581280">
        <ele>8.5</ele>
        <time>2021-05-16T12:47:25Z</time>
      </trkpt>
      <trkpt lat="41.3610430" lon="-8.7581440">
        <ele>8.5</ele>
        <time>2021-05-16T12:47:26Z</time>
      </trkpt>
      <trkpt lat="41.3610470" lon="-8.7581550">
        <ele>8.5</ele>
        <time>2021-05-16T12:47:27Z</time>
      </trkpt>
      <trkpt lat="41.3610500" lon="-8.7581650">
        <ele>8.5</ele>
        <time>2021-05-16T12:47:28Z</time>
      </trkpt>
      <trkpt lat="41.3610540" lon="-8.7581760">
        <ele>8.5</ele>
        <time>2021-05-16T12:47:29Z</time>
      </trkpt>
      <trkpt lat="41.3610590" lon="-8.7582010">
        <ele>8.4</ele>
        <time>2021-05-16T12:47:30Z</time>
      </trkpt>
      <trkpt lat="41.3610600" lon="-8.7582130">
        <ele>8.4</ele>
        <time>2021-05-16T12:47:31Z</time>
      </trkpt>
      <trkpt lat="41.3610620" lon="-8.7582250">
        <ele>8.4</ele>
        <time>2021-05-16T12:47:32Z</time>
      </trkpt>
      <trkpt lat="41.3610750" lon="-8.7582360">
        <ele>8.4</ele>
        <time>2021-05-16T12:47:33Z</time>
      </trkpt>
      <trkpt lat="41.3610820" lon="-8.7582420">
        <ele>8.4</ele>
        <time>2021-05-16T12:47:34Z</time>
      </trkpt>
      <trkpt lat="41.3610880" lon="-8.7582470">
        <ele>8.4</ele>
        <time>2021-05-16T12:47:35Z</time>
      </trkpt>
      <trkpt lat="41.3610950" lon="-8.7582530">
        <ele>8.4</ele>
        <time>2021-05-16T12:47:36Z</time>
      </trkpt>
      <trkpt lat="41.3611000" lon="-8.7582620">
        <ele>8.4</ele>
        <time>2021-05-16T12:47:37Z</time>
      </trkpt>
      <trkpt lat="41.3611110" lon="-8.7582700">
        <ele>8.4</ele>
        <time>2021-05-16T12:47:38Z</time>
      </trkpt>
      <trkpt lat="41.3611180" lon="-8.7582770">
        <ele>8.4</ele>
        <time>2021-05-16T12:47:39Z</time>
      </trkpt>
      <trkpt lat="41.3611280" lon="-8.7582730">
        <ele>8.4</ele>
        <time>2021-05-16T12:47:40Z</time>
      </trkpt>
      <trkpt lat="41.3611340" lon="-8.7582790">
        <ele>8.4</ele>
        <time>2021-05-16T12:47:41Z</time>
      </trkpt>
      <trkpt lat="41.3611480" lon="-8.7582850">
        <ele>8.4</ele>
        <time>2021-05-16T12:47:42Z</time>
      </trkpt>
      <trkpt lat="41.3611550" lon="-8.7582930">
        <ele>8.4</ele>
        <time>2021-05-16T12:47:43Z</time>
      </trkpt>
      <trkpt lat="41.3611600" lon="-8.7582970">
        <ele>8.4</ele>
        <time>2021-05-16T12:47:44Z</time>
      </trkpt>
      <trkpt lat="41.3611680" lon="-8.7583090">
        <ele>8.4</ele>
        <time>2021-05-16T12:47:45Z</time>
      </trkpt>
      <trkpt lat="41.3611750" lon="-8.7583170">
        <ele>8.4</ele>
        <time>2021-05-16T12:47:46Z</time>
      </trkpt>
      <trkpt lat="41.3611840" lon="-8.7583150">
        <ele>8.4</ele>
        <time>2021-05-16T12:47:47Z</time>
      </trkpt>
      <trkpt lat="41.3611940" lon="-8.7583230">
        <ele>8.4</ele>
        <time>2021-05-16T12:47:48Z</time>
      </trkpt>
      <trkpt lat="41.3612060" lon="-8.7583450">
        <ele>8.4</ele>
        <time>2021-05-16T12:47:49Z</time>
      </trkpt>
      <trkpt lat="41.3612130" lon="-8.7583520">
        <ele>8.4</ele>
        <time>2021-05-16T12:47:50Z</time>
      </trkpt>
      <trkpt lat="41.3612190" lon="-8.7583590">
        <ele>8.4</ele>
        <time>2021-05-16T12:47:51Z</time>
      </trkpt>
      <trkpt lat="41.3612230" lon="-8.7583680">
        <ele>8.4</ele>
        <time>2021-05-16T12:47:52Z</time>
      </trkpt>
      <trkpt lat="41.3612290" lon="-8.7583770">
        <ele>8.4</ele>
        <time>2021-05-16T12:47:53Z</time>
      </trkpt>
      <trkpt lat="41.3612360" lon="-8.7583860">
        <ele>8.4</ele>
        <time>2021-05-16T12:47:54Z</time>
      </trkpt>
      <trkpt lat="41.3612410" lon="-8.7583920">
        <ele>8.4</ele>
        <time>2021-05-16T12:47:55Z</time>
      </trkpt>
      <trkpt lat="41.3612550" lon="-8.7584050">
        <ele>8.4</ele>
        <time>2021-05-16T12:47:56Z</time>
      </trkpt>
      <trkpt lat="41.3612630" lon="-8.7584100">
        <ele>8.4</ele>
        <time>2021-05-16T12:47:57Z</time>
      </trkpt>
      <trkpt lat="41.3612700" lon="-8.7584140">
        <ele>8.4</ele>
        <time>2021-05-16T12:47:58Z</time>
      </trkpt>
      <trkpt lat="41.3612770" lon="-8.7584190">
        <ele>8.4</ele>
        <time>2021-05-16T12:47:59Z</time>
      </trkpt>
      <trkpt lat="41.3612820" lon="-8.7584290">
        <ele>8.4</ele>
        <time>2021-05-16T12:48:00Z</time>
      </trkpt>
      <trkpt lat="41.3612880" lon="-8.7584430">
        <ele>8.4</ele>
        <time>2021-05-16T12:48:01Z</time>
      </trkpt>
      <trkpt lat="41.3612920" lon="-8.7584560">
        <ele>8.4</ele>
        <time>2021-05-16T12:48:02Z</time>
      </trkpt>
      <trkpt lat="41.3612980" lon="-8.7584670">
        <ele>8.3</ele>
        <time>2021-05-16T12:48:03Z</time>
      </trkpt>
      <trkpt lat="41.3613070" lon="-8.7584820">
        <ele>8.3</ele>
        <time>2021-05-16T12:48:04Z</time>
      </trkpt>
      <trkpt lat="41.3613140" lon="-8.7584890">
        <ele>8.3</ele>
        <time>2021-05-16T12:48:05Z</time>
      </trkpt>
      <trkpt lat="41.3613310" lon="-8.7585020">
        <ele>8.3</ele>
        <time>2021-05-16T12:48:06Z</time>
      </trkpt>
      <trkpt lat="41.3613380" lon="-8.7585090">
        <ele>8.3</ele>
        <time>2021-05-16T12:48:07Z</time>
      </trkpt>
      <trkpt lat="41.3613460" lon="-8.7585170">
        <ele>8.3</ele>
        <time>2021-05-16T12:48:08Z</time>
      </trkpt>
      <trkpt lat="41.3613530" lon="-8.7585350">
        <ele>8.3</ele>
        <time>2021-05-16T12:48:09Z</time>
      </trkpt>
      <trkpt lat="41.3613610" lon="-8.7585420">
        <ele>8.3</ele>
        <time>2021-05-16T12:48:10Z</time>
      </trkpt>
      <trkpt lat="41.3613670" lon="-8.7585540">
        <ele>8.3</ele>
        <time>2021-05-16T12:48:11Z</time>
      </trkpt>
      <trkpt lat="41.3613760" lon="-8.7585630">
        <ele>8.3</ele>
        <time>2021-05-16T12:48:12Z</time>
      </trkpt>
      <trkpt lat="41.3613870" lon="-8.7585710">
        <ele>8.3</ele>
        <time>2021-05-16T12:48:13Z</time>
      </trkpt>
      <trkpt lat="41.3613960" lon="-8.7585820">
        <ele>8.3</ele>
        <time>2021-05-16T12:48:14Z</time>
      </trkpt>
      <trkpt lat="41.3614010" lon="-8.7585920">
        <ele>8.3</ele>
        <time>2021-05-16T12:48:15Z</time>
      </trkpt>
      <trkpt lat="41.3614100" lon="-8.7586040">
        <ele>8.3</ele>
        <time>2021-05-16T12:48:16Z</time>
      </trkpt>
      <trkpt lat="41.3614150" lon="-8.7586130">
        <ele>8.3</ele>
        <time>2021-05-16T12:48:17Z</time>
      </trkpt>
      <trkpt lat="41.3614270" lon="-8.7586240">
        <ele>8.3</ele>
        <time>2021-05-16T12:48:18Z</time>
      </trkpt>
      <trkpt lat="41.3614320" lon="-8.7586290">
        <ele>8.3</ele>
        <time>2021-05-16T12:48:19Z</time>
      </trkpt>
      <trkpt lat="41.3614430" lon="-8.7586370">
        <ele>8.3</ele>
        <time>2021-05-16T12:48:20Z</time>
      </trkpt>
      <trkpt lat="41.3614520" lon="-8.7586410">
        <ele>8.3</ele>
        <time>2021-05-16T12:48:21Z</time>
      </trkpt>
      <trkpt lat="41.3614670" lon="-8.7586530">
        <ele>8.3</ele>
        <time>2021-05-16T12:48:22Z</time>
      </trkpt>
      <trkpt lat="41.3614750" lon="-8.7586570">
        <ele>8.3</ele>
        <time>2021-05-16T12:48:23Z</time>
      </trkpt>
      <trkpt lat="41.3614860" lon="-8.7586650">
        <ele>8.3</ele>
        <time>2021-05-16T12:48:24Z</time>
      </trkpt>
      <trkpt lat="41.3614940" lon="-8.7586780">
        <ele>8.3</ele>
        <time>2021-05-16T12:48:25Z</time>
      </trkpt>
      <trkpt lat="41.3615000" lon="-8.7586910">
        <ele>8.3</ele>
        <time>2021-05-16T12:48:26Z</time>
      </trkpt>
      <trkpt lat="41.3615080" lon="-8.7586970">
        <ele>8.3</ele>
        <time>2021-05-16T12:48:27Z</time>
      </trkpt>
      <trkpt lat="41.3615200" lon="-8.7587070">
        <ele>8.3</ele>
        <time>2021-05-16T12:48:28Z</time>
      </trkpt>
      <trkpt lat="41.3615320" lon="-8.7587160">
        <ele>8.2</ele>
        <time>2021-05-16T12:48:29Z</time>
      </trkpt>
      <trkpt lat="41.3615410" lon="-8.7587290">
        <ele>8.2</ele>
        <time>2021-05-16T12:48:30Z</time>
      </trkpt>
      <trkpt lat="41.3615510" lon="-8.7587440">
        <ele>8.2</ele>
        <time>2021-05-16T12:48:31Z</time>
      </trkpt>
      <trkpt lat="41.3615630" lon="-8.7587590">
        <ele>8.2</ele>
        <time>2021-05-16T12:48:32Z</time>
      </trkpt>
      <trkpt lat="41.3615780" lon="-8.7587690">
        <ele>8.2</ele>
        <time>2021-05-16T12:48:33Z</time>
      </trkpt>
      <trkpt lat="41.3615890" lon="-8.7587810">
        <ele>8.2</ele>
        <time>2021-05-16T12:48:34Z</time>
      </trkpt>
      <trkpt lat="41.3616000" lon="-8.7587920">
        <ele>8.2</ele>
        <time>2021-05-16T12:48:35Z</time>
      </trkpt>
      <trkpt lat="41.3616110" lon="-8.7588060">
        <ele>8.2</ele>
        <time>2021-05-16T12:48:36Z</time>
      </trkpt>
      <trkpt lat="41.3616220" lon="-8.7588180">
        <ele>8.2</ele>
        <time>2021-05-16T12:48:37Z</time>
      </trkpt>
      <trkpt lat="41.3616330" lon="-8.7588300">
        <ele>8.2</ele>
        <time>2021-05-16T12:48:38Z</time>
      </trkpt>
      <trkpt lat="41.3616440" lon="-8.7588420">
        <ele>8.2</ele>
        <time>2021-05-16T12:48:39Z</time>
      </trkpt>
      <trkpt lat="41.3616540" lon="-8.7588570">
        <ele>8.2</ele>
        <time>2021-05-16T12:48:40Z</time>
      </trkpt>
      <trkpt lat="41.3616620" lon="-8.7588740">
        <ele>8.2</ele>
        <time>2021-05-16T12:48:41Z</time>
      </trkpt>
      <trkpt lat="41.3616680" lon="-8.7588910">
        <ele>8.2</ele>
        <time>2021-05-16T12:48:42Z</time>
      </trkpt>
      <trkpt lat="41.3616750" lon="-8.7589080">
        <ele>8.2</ele>
        <time>2021-05-16T12:48:43Z</time>
      </trkpt>
      <trkpt lat="41.3616820" lon="-8.7589250">
        <ele>8.2</ele>
        <time>2021-05-16T12:48:44Z</time>
      </trkpt>
      <trkpt lat="41.3616920" lon="-8.7589400">
        <ele>8.1</ele>
        <time>2021-05-16T12:48:45Z</time>
      </trkpt>
      <trkpt lat="41.3617020" lon="-8.7589540">
        <ele>8.1</ele>
        <time>2021-05-16T12:48:46Z</time>
      </trkpt>
      <trkpt lat="41.3617180" lon="-8.7589740">
        <ele>8.1</ele>
        <time>2021-05-16T12:48:47Z</time>
      </trkpt>
      <trkpt lat="41.3617240" lon="-8.7589810">
        <ele>8.1</ele>
        <time>2021-05-16T12:48:48Z</time>
      </trkpt>
      <trkpt lat="41.3617310" lon="-8.7589880">
        <ele>8.1</ele>
        <time>2021-05-16T12:48:49Z</time>
      </trkpt>
      <trkpt lat="41.3617460" lon="-8.7590100">
        <ele>8.1</ele>
        <time>2021-05-16T12:48:50Z</time>
      </trkpt>
      <trkpt lat="41.3617500" lon="-8.7590180">
        <ele>8.1</ele>
        <time>2021-05-16T12:48:51Z</time>
      </trkpt>
      <trkpt lat="41.3617550" lon="-8.7590270">
        <ele>8.1</ele>
        <time>2021-05-16T12:48:52Z</time>
      </trkpt>
      <trkpt lat="41.3617690" lon="-8.7590390">
        <ele>8.1</ele>
        <time>2021-05-16T12:48:53Z</time>
      </trkpt>
      <trkpt lat="41.3617750" lon="-8.7590440">
        <ele>8.1</ele>
        <time>2021-05-16T12:48:54Z</time>
      </trkpt>
      <trkpt lat="41.3617800" lon="-8.7590500">
        <ele>8.1</ele>
        <time>2021-05-16T12:48:55Z</time>
      </trkpt>
      <trkpt lat="41.3617850" lon="-8.7590560">
        <ele>8.1</ele>
        <time>2021-05-16T12:48:56Z</time>
      </trkpt>
      <trkpt lat="41.3617910" lon="-8.7590640">
        <ele>8.1</ele>
        <time>2021-05-16T12:48:57Z</time>
      </trkpt>
      <trkpt lat="41.3617980" lon="-8.7590710">
        <ele>8.1</ele>
        <time>2021-05-16T12:48:58Z</time>
      </trkpt>
      <trkpt lat="41.3618050" lon="-8.7590800">
        <ele>8.1</ele>
        <time>2021-05-16T12:48:59Z</time>
      </trkpt>
      <trkpt lat="41.3618130" lon="-8.7590890">
        <ele>8.1</ele>
        <time>2021-05-16T12:49:00Z</time>
      </trkpt>
      <trkpt lat="41.3618250" lon="-8.7591010">
        <ele>8.1</ele>
        <time>2021-05-16T12:49:01Z</time>
      </trkpt>
      <trkpt lat="41.3618300" lon="-8.7591100">
        <ele>8.1</ele>
        <time>2021-05-16T12:49:02Z</time>
      </trkpt>
      <trkpt lat="41.3618380" lon="-8.7591150">
        <ele>8.1</ele>
        <time>2021-05-16T12:49:03Z</time>
      </trkpt>
      <trkpt lat="41.3618460" lon="-8.7591250">
        <ele>8.1</ele>
        <time>2021-05-16T12:49:04Z</time>
      </trkpt>
      <trkpt lat="41.3618510" lon="-8.7591240">
        <ele>8.1</ele>
        <time>2021-05-16T12:49:05Z</time>
      </trkpt>
      <trkpt lat="41.3618630" lon="-8.7591310">
        <ele>8.1</ele>
        <time>2021-05-16T12:49:06Z</time>
      </trkpt>
      <trkpt lat="41.3618700" lon="-8.7591310">
        <ele>8.1</ele>
        <time>2021-05-16T12:49:07Z</time>
      </trkpt>
      <trkpt lat="41.3618740" lon="-8.7591340">
        <ele>8.1</ele>
        <time>2021-05-16T12:49:08Z</time>
      </trkpt>
      <trkpt lat="41.3618840" lon="-8.7591420">
        <ele>8.1</ele>
        <time>2021-05-16T12:49:09Z</time>
      </trkpt>
      <trkpt lat="41.3618900" lon="-8.7591440">
        <ele>8.1</ele>
        <time>2021-05-16T12:49:10Z</time>
      </trkpt>
      <trkpt lat="41.3619000" lon="-8.7591480">
        <ele>8.1</ele>
        <time>2021-05-16T12:49:11Z</time>
      </trkpt>
      <trkpt lat="41.3619110" lon="-8.7591580">
        <ele>8.1</ele>
        <time>2021-05-16T12:49:12Z</time>
      </trkpt>
      <trkpt lat="41.3619160" lon="-8.7591720">
        <ele>8.1</ele>
        <time>2021-05-16T12:49:13Z</time>
      </trkpt>
      <trkpt lat="41.3619330" lon="-8.7591670">
        <ele>8.1</ele>
        <time>2021-05-16T12:49:14Z</time>
      </trkpt>
      <trkpt lat="41.3619400" lon="-8.7591720">
        <ele>8.1</ele>
        <time>2021-05-16T12:49:15Z</time>
      </trkpt>
      <trkpt lat="41.3619430" lon="-8.7591800">
        <ele>8.1</ele>
        <time>2021-05-16T12:49:16Z</time>
      </trkpt>
      <trkpt lat="41.3619600" lon="-8.7591930">
        <ele>8.1</ele>
        <time>2021-05-16T12:49:17Z</time>
      </trkpt>
      <trkpt lat="41.3619680" lon="-8.7591970">
        <ele>8.1</ele>
        <time>2021-05-16T12:49:18Z</time>
      </trkpt>
      <trkpt lat="41.3619750" lon="-8.7592010">
        <ele>8.1</ele>
        <time>2021-05-16T12:49:19Z</time>
      </trkpt>
      <trkpt lat="41.3619820" lon="-8.7592050">
        <ele>8.1</ele>
        <time>2021-05-16T12:49:20Z</time>
      </trkpt>
      <trkpt lat="41.3620040" lon="-8.7592170">
        <ele>8.1</ele>
        <time>2021-05-16T12:49:21Z</time>
      </trkpt>
      <trkpt lat="41.3620100" lon="-8.7592200">
        <ele>8.1</ele>
        <time>2021-05-16T12:49:22Z</time>
      </trkpt>
      <trkpt lat="41.3620170" lon="-8.7592240">
        <ele>8.1</ele>
        <time>2021-05-16T12:49:23Z</time>
      </trkpt>
      <trkpt lat="41.3620290" lon="-8.7592290">
        <ele>8.1</ele>
        <time>2021-05-16T12:49:24Z</time>
      </trkpt>
      <trkpt lat="41.3620440" lon="-8.7592380">
        <ele>8.1</ele>
        <time>2021-05-16T12:49:25Z</time>
      </trkpt>
      <trkpt lat="41.3620540" lon="-8.7592430">
        <ele>8.1</ele>
        <time>2021-05-16T12:49:26Z</time>
      </trkpt>
      <trkpt lat="41.3620610" lon="-8.7592480">
        <ele>8.1</ele>
        <time>2021-05-16T12:49:27Z</time>
      </trkpt>
      <trkpt lat="41.3620670" lon="-8.7592610">
        <ele>8.1</ele>
        <time>2021-05-16T12:49:28Z</time>
      </trkpt>
      <trkpt lat="41.3620760" lon="-8.7592710">
        <ele>8.1</ele>
        <time>2021-05-16T12:49:29Z</time>
      </trkpt>
      <trkpt lat="41.3620930" lon="-8.7592780">
        <ele>8.1</ele>
        <time>2021-05-16T12:49:30Z</time>
      </trkpt>
      <trkpt lat="41.3621050" lon="-8.7592880">
        <ele>8.1</ele>
        <time>2021-05-16T12:49:31Z</time>
      </trkpt>
      <trkpt lat="41.3621190" lon="-8.7592990">
        <ele>8.1</ele>
        <time>2021-05-16T12:49:32Z</time>
      </trkpt>
      <trkpt lat="41.3621360" lon="-8.7593160">
        <ele>8.1</ele>
        <time>2021-05-16T12:49:33Z</time>
      </trkpt>
      <trkpt lat="41.3621440" lon="-8.7593200">
        <ele>8.1</ele>
        <time>2021-05-16T12:49:34Z</time>
      </trkpt>
      <trkpt lat="41.3621510" lon="-8.7593250">
        <ele>8.1</ele>
        <time>2021-05-16T12:49:35Z</time>
      </trkpt>
      <trkpt lat="41.3621630" lon="-8.7593330">
        <ele>8.1</ele>
        <time>2021-05-16T12:49:36Z</time>
      </trkpt>
      <trkpt lat="41.3621770" lon="-8.7593400">
        <ele>8.1</ele>
        <time>2021-05-16T12:49:37Z</time>
      </trkpt>
      <trkpt lat="41.3621890" lon="-8.7593530">
        <ele>8.1</ele>
        <time>2021-05-16T12:49:38Z</time>
      </trkpt>
      <trkpt lat="41.3621940" lon="-8.7593620">
        <ele>8.1</ele>
        <time>2021-05-16T12:49:39Z</time>
      </trkpt>
      <trkpt lat="41.3622000" lon="-8.7593670">
        <ele>8.1</ele>
        <time>2021-05-16T12:49:40Z</time>
      </trkpt>
      <trkpt lat="41.3622040" lon="-8.7593730">
        <ele>8.1</ele>
        <time>2021-05-16T12:49:41Z</time>
      </trkpt>
      <trkpt lat="41.3622110" lon="-8.7593870">
        <ele>8.1</ele>
        <time>2021-05-16T12:49:42Z</time>
      </trkpt>
      <trkpt lat="41.3622190" lon="-8.7593950">
        <ele>8.1</ele>
        <time>2021-05-16T12:49:43Z</time>
      </trkpt>
      <trkpt lat="41.3622280" lon="-8.7594090">
        <ele>8.1</ele>
        <time>2021-05-16T12:49:44Z</time>
      </trkpt>
      <trkpt lat="41.3622360" lon="-8.7594130">
        <ele>8.1</ele>
        <time>2021-05-16T12:49:45Z</time>
      </trkpt>
      <trkpt lat="41.3622430" lon="-8.7594170">
        <ele>8.1</ele>
        <time>2021-05-16T12:49:46Z</time>
      </trkpt>
      <trkpt lat="41.3622540" lon="-8.7594280">
        <ele>8.1</ele>
        <time>2021-05-16T12:49:47Z</time>
      </trkpt>
      <trkpt lat="41.3622620" lon="-8.7594340">
        <ele>8.1</ele>
        <time>2021-05-16T12:49:48Z</time>
      </trkpt>
      <trkpt lat="41.3622670" lon="-8.7594410">
        <ele>8.1</ele>
        <time>2021-05-16T12:49:49Z</time>
      </trkpt>
      <trkpt lat="41.3622720" lon="-8.7594490">
        <ele>8.1</ele>
        <time>2021-05-16T12:49:50Z</time>
      </trkpt>
      <trkpt lat="41.3622790" lon="-8.7594640">
        <ele>8.2</ele>
        <time>2021-05-16T12:49:51Z</time>
      </trkpt>
      <trkpt lat="41.3622880" lon="-8.7594690">
        <ele>8.2</ele>
        <time>2021-05-16T12:49:52Z</time>
      </trkpt>
      <trkpt lat="41.3622930" lon="-8.7594720">
        <ele>8.2</ele>
        <time>2021-05-16T12:49:53Z</time>
      </trkpt>
      <trkpt lat="41.3623020" lon="-8.7594780">
        <ele>8.2</ele>
        <time>2021-05-16T12:49:54Z</time>
      </trkpt>
      <trkpt lat="41.3623180" lon="-8.7594840">
        <ele>8.2</ele>
        <time>2021-05-16T12:49:55Z</time>
      </trkpt>
      <trkpt lat="41.3623310" lon="-8.7594880">
        <ele>8.2</ele>
        <time>2021-05-16T12:49:56Z</time>
      </trkpt>
      <trkpt lat="41.3623390" lon="-8.7594910">
        <ele>8.2</ele>
        <time>2021-05-16T12:49:57Z</time>
      </trkpt>
      <trkpt lat="41.3623470" lon="-8.7594930">
        <ele>8.2</ele>
        <time>2021-05-16T12:49:58Z</time>
      </trkpt>
      <trkpt lat="41.3623550" lon="-8.7594960">
        <ele>8.2</ele>
        <time>2021-05-16T12:49:59Z</time>
      </trkpt>
      <trkpt lat="41.3623660" lon="-8.7595000">
        <ele>8.2</ele>
        <time>2021-05-16T12:50:00Z</time>
      </trkpt>
      <trkpt lat="41.3623740" lon="-8.7595090">
        <ele>8.2</ele>
        <time>2021-05-16T12:50:01Z</time>
      </trkpt>
      <trkpt lat="41.3623830" lon="-8.7595140">
        <ele>8.2</ele>
        <time>2021-05-16T12:50:02Z</time>
      </trkpt>
      <trkpt lat="41.3623900" lon="-8.7595190">
        <ele>8.2</ele>
        <time>2021-05-16T12:50:03Z</time>
      </trkpt>
      <trkpt lat="41.3623970" lon="-8.7595240">
        <ele>8.2</ele>
        <time>2021-05-16T12:50:04Z</time>
      </trkpt>
      <trkpt lat="41.3624010" lon="-8.7595260">
        <ele>8.2</ele>
        <time>2021-05-16T12:50:05Z</time>
      </trkpt>
      <trkpt lat="41.3624040" lon="-8.7595270">
        <ele>8.2</ele>
        <time>2021-05-16T12:50:06Z</time>
      </trkpt>
      <trkpt lat="41.3624160" lon="-8.7595310">
        <ele>8.2</ele>
        <time>2021-05-16T12:50:07Z</time>
      </trkpt>
      <trkpt lat="41.3624190" lon="-8.7595330">
        <ele>8.2</ele>
        <time>2021-05-16T12:50:08Z</time>
      </trkpt>
      <trkpt lat="41.3624340" lon="-8.7595360">
        <ele>8.2</ele>
        <time>2021-05-16T12:50:09Z</time>
      </trkpt>
      <trkpt lat="41.3624520" lon="-8.7595390">
        <ele>8.2</ele>
        <time>2021-05-16T12:50:10Z</time>
      </trkpt>
      <trkpt lat="41.3624660" lon="-8.7595370">
        <ele>8.2</ele>
        <time>2021-05-16T12:50:11Z</time>
      </trkpt>
      <trkpt lat="41.3624750" lon="-8.7595390">
        <ele>8.2</ele>
        <time>2021-05-16T12:50:12Z</time>
      </trkpt>
      <trkpt lat="41.3624830" lon="-8.7595290">
        <ele>8.2</ele>
        <time>2021-05-16T12:50:13Z</time>
      </trkpt>
      <trkpt lat="41.3624930" lon="-8.7595290">
        <ele>8.2</ele>
        <time>2021-05-16T12:50:14Z</time>
      </trkpt>
      <trkpt lat="41.3625030" lon="-8.7595300">
        <ele>8.2</ele>
        <time>2021-05-16T12:50:15Z</time>
      </trkpt>
      <trkpt lat="41.3625160" lon="-8.7595270">
        <ele>8.2</ele>
        <time>2021-05-16T12:50:16Z</time>
      </trkpt>
      <trkpt lat="41.3625430" lon="-8.7595380">
        <ele>8.2</ele>
        <time>2021-05-16T12:50:17Z</time>
      </trkpt>
      <trkpt lat="41.3625500" lon="-8.7595420">
        <ele>8.2</ele>
        <time>2021-05-16T12:50:18Z</time>
      </trkpt>
      <trkpt lat="41.3625730" lon="-8.7595500">
        <ele>8.2</ele>
        <time>2021-05-16T12:50:19Z</time>
      </trkpt>
      <trkpt lat="41.3625800" lon="-8.7595540">
        <ele>8.2</ele>
        <time>2021-05-16T12:50:20Z</time>
      </trkpt>
      <trkpt lat="41.3625880" lon="-8.7595570">
        <ele>8.2</ele>
        <time>2021-05-16T12:50:21Z</time>
      </trkpt>
      <trkpt lat="41.3626090" lon="-8.7595690">
        <ele>8.2</ele>
        <time>2021-05-16T12:50:22Z</time>
      </trkpt>
      <trkpt lat="41.3626160" lon="-8.7595740">
        <ele>8.2</ele>
        <time>2021-05-16T12:50:23Z</time>
      </trkpt>
      <trkpt lat="41.3626240" lon="-8.7595780">
        <ele>8.2</ele>
        <time>2021-05-16T12:50:24Z</time>
      </trkpt>
      <trkpt lat="41.3626410" lon="-8.7595940">
        <ele>8.2</ele>
        <time>2021-05-16T12:50:25Z</time>
      </trkpt>
      <trkpt lat="41.3626470" lon="-8.7596050">
        <ele>8.2</ele>
        <time>2021-05-16T12:50:26Z</time>
      </trkpt>
      <trkpt lat="41.3626530" lon="-8.7596150">
        <ele>8.2</ele>
        <time>2021-05-16T12:50:27Z</time>
      </trkpt>
      <trkpt lat="41.3626630" lon="-8.7596270">
        <ele>8.2</ele>
        <time>2021-05-16T12:50:28Z</time>
      </trkpt>
      <trkpt lat="41.3626680" lon="-8.7596320">
        <ele>8.2</ele>
        <time>2021-05-16T12:50:29Z</time>
      </trkpt>
      <trkpt lat="41.3626770" lon="-8.7596470">
        <ele>8.2</ele>
        <time>2021-05-16T12:50:30Z</time>
      </trkpt>
      <trkpt lat="41.3626900" lon="-8.7596610">
        <ele>8.2</ele>
        <time>2021-05-16T12:50:31Z</time>
      </trkpt>
      <trkpt lat="41.3626990" lon="-8.7596700">
        <ele>8.2</ele>
        <time>2021-05-16T12:50:32Z</time>
      </trkpt>
      <trkpt lat="41.3627090" lon="-8.7596830">
        <ele>8.2</ele>
        <time>2021-05-16T12:50:33Z</time>
      </trkpt>
      <trkpt lat="41.3627210" lon="-8.7596940">
        <ele>8.2</ele>
        <time>2021-05-16T12:50:34Z</time>
      </trkpt>
      <trkpt lat="41.3627340" lon="-8.7597200">
        <ele>8.2</ele>
        <time>2021-05-16T12:50:35Z</time>
      </trkpt>
      <trkpt lat="41.3627390" lon="-8.7597320">
        <ele>8.2</ele>
        <time>2021-05-16T12:50:36Z</time>
      </trkpt>
      <trkpt lat="41.3627440" lon="-8.7597430">
        <ele>8.2</ele>
        <time>2021-05-16T12:50:37Z</time>
      </trkpt>
      <trkpt lat="41.3627470" lon="-8.7597560">
        <ele>8.2</ele>
        <time>2021-05-16T12:50:38Z</time>
      </trkpt>
      <trkpt lat="41.3627520" lon="-8.7597630">
        <ele>8.2</ele>
        <time>2021-05-16T12:50:39Z</time>
      </trkpt>
      <trkpt lat="41.3627570" lon="-8.7597730">
        <ele>8.2</ele>
        <time>2021-05-16T12:50:40Z</time>
      </trkpt>
      <trkpt lat="41.3627630" lon="-8.7597800">
        <ele>8.2</ele>
        <time>2021-05-16T12:50:41Z</time>
      </trkpt>
      <trkpt lat="41.3627670" lon="-8.7597790">
        <ele>8.2</ele>
        <time>2021-05-16T12:50:42Z</time>
      </trkpt>
      <trkpt lat="41.3627800" lon="-8.7597870">
        <ele>8.2</ele>
        <time>2021-05-16T12:50:43Z</time>
      </trkpt>
      <trkpt lat="41.3627940" lon="-8.7597940">
        <ele>8.2</ele>
        <time>2021-05-16T12:50:44Z</time>
      </trkpt>
      <trkpt lat="41.3627990" lon="-8.7597990">
        <ele>8.2</ele>
        <time>2021-05-16T12:50:45Z</time>
      </trkpt>
      <trkpt lat="41.3628090" lon="-8.7598070">
        <ele>8.2</ele>
        <time>2021-05-16T12:50:46Z</time>
      </trkpt>
      <trkpt lat="41.3628210" lon="-8.7598050">
        <ele>8.2</ele>
        <time>2021-05-16T12:50:47Z</time>
      </trkpt>
      <trkpt lat="41.3628440" lon="-8.7598040">
        <ele>8.2</ele>
        <time>2021-05-16T12:50:48Z</time>
      </trkpt>
      <trkpt lat="41.3628540" lon="-8.7598070">
        <ele>8.2</ele>
        <time>2021-05-16T12:50:49Z</time>
      </trkpt>
      <trkpt lat="41.3628630" lon="-8.7598110">
        <ele>8.2</ele>
        <time>2021-05-16T12:50:50Z</time>
      </trkpt>
      <trkpt lat="41.3628840" lon="-8.7598220">
        <ele>8.2</ele>
        <time>2021-05-16T12:50:51Z</time>
      </trkpt>
      <trkpt lat="41.3628930" lon="-8.7598260">
        <ele>8.2</ele>
        <time>2021-05-16T12:50:52Z</time>
      </trkpt>
      <trkpt lat="41.3629020" lon="-8.7598300">
        <ele>8.2</ele>
        <time>2021-05-16T12:50:53Z</time>
      </trkpt>
      <trkpt lat="41.3629200" lon="-8.7598320">
        <ele>8.2</ele>
        <time>2021-05-16T12:50:54Z</time>
      </trkpt>
      <trkpt lat="41.3629330" lon="-8.7598380">
        <ele>8.2</ele>
        <time>2021-05-16T12:50:55Z</time>
      </trkpt>
      <trkpt lat="41.3629420" lon="-8.7598470">
        <ele>8.2</ele>
        <time>2021-05-16T12:50:56Z</time>
      </trkpt>
      <trkpt lat="41.3629510" lon="-8.7598530">
        <ele>8.2</ele>
        <time>2021-05-16T12:50:57Z</time>
      </trkpt>
      <trkpt lat="41.3629650" lon="-8.7598590">
        <ele>8.2</ele>
        <time>2021-05-16T12:50:58Z</time>
      </trkpt>
      <trkpt lat="41.3629810" lon="-8.7598610">
        <ele>8.3</ele>
        <time>2021-05-16T12:50:59Z</time>
      </trkpt>
      <trkpt lat="41.3629930" lon="-8.7598680">
        <ele>8.3</ele>
        <time>2021-05-16T12:51:00Z</time>
      </trkpt>
      <trkpt lat="41.3630070" lon="-8.7598780">
        <ele>8.3</ele>
        <time>2021-05-16T12:51:01Z</time>
      </trkpt>
      <trkpt lat="41.3630170" lon="-8.7598930">
        <ele>8.3</ele>
        <time>2021-05-16T12:51:02Z</time>
      </trkpt>
      <trkpt lat="41.3630340" lon="-8.7599080">
        <ele>8.3</ele>
        <time>2021-05-16T12:51:03Z</time>
      </trkpt>
      <trkpt lat="41.3630450" lon="-8.7599140">
        <ele>8.3</ele>
        <time>2021-05-16T12:51:04Z</time>
      </trkpt>
      <trkpt lat="41.3630550" lon="-8.7599190">
        <ele>8.3</ele>
        <time>2021-05-16T12:51:05Z</time>
      </trkpt>
      <trkpt lat="41.3630750" lon="-8.7599300">
        <ele>8.3</ele>
        <time>2021-05-16T12:51:06Z</time>
      </trkpt>
      <trkpt lat="41.3630820" lon="-8.7599330">
        <ele>8.3</ele>
        <time>2021-05-16T12:51:07Z</time>
      </trkpt>
      <trkpt lat="41.3630900" lon="-8.7599370">
        <ele>8.3</ele>
        <time>2021-05-16T12:51:08Z</time>
      </trkpt>
      <trkpt lat="41.3631070" lon="-8.7599470">
        <ele>8.3</ele>
        <time>2021-05-16T12:51:09Z</time>
      </trkpt>
      <trkpt lat="41.3631200" lon="-8.7599520">
        <ele>8.3</ele>
        <time>2021-05-16T12:51:10Z</time>
      </trkpt>
      <trkpt lat="41.3631390" lon="-8.7599680">
        <ele>8.3</ele>
        <time>2021-05-16T12:51:11Z</time>
      </trkpt>
      <trkpt lat="41.3631460" lon="-8.7599730">
        <ele>8.3</ele>
        <time>2021-05-16T12:51:12Z</time>
      </trkpt>
      <trkpt lat="41.3631530" lon="-8.7599790">
        <ele>8.3</ele>
        <time>2021-05-16T12:51:13Z</time>
      </trkpt>
      <trkpt lat="41.3631770" lon="-8.7599950">
        <ele>8.3</ele>
        <time>2021-05-16T12:51:14Z</time>
      </trkpt>
      <trkpt lat="41.3631870" lon="-8.7599990">
        <ele>8.3</ele>
        <time>2021-05-16T12:51:15Z</time>
      </trkpt>
      <trkpt lat="41.3631960" lon="-8.7600040">
        <ele>8.3</ele>
        <time>2021-05-16T12:51:16Z</time>
      </trkpt>
      <trkpt lat="41.3632040" lon="-8.7600080">
        <ele>8.3</ele>
        <time>2021-05-16T12:51:17Z</time>
      </trkpt>
      <trkpt lat="41.3632170" lon="-8.7600040">
        <ele>8.3</ele>
        <time>2021-05-16T12:51:18Z</time>
      </trkpt>
      <trkpt lat="41.3632260" lon="-8.7600060">
        <ele>8.3</ele>
        <time>2021-05-16T12:51:19Z</time>
      </trkpt>
      <trkpt lat="41.3632340" lon="-8.7600090">
        <ele>8.3</ele>
        <time>2021-05-16T12:51:20Z</time>
      </trkpt>
      <trkpt lat="41.3632420" lon="-8.7600230">
        <ele>8.3</ele>
        <time>2021-05-16T12:51:21Z</time>
      </trkpt>
      <trkpt lat="41.3632540" lon="-8.7600350">
        <ele>8.3</ele>
        <time>2021-05-16T12:51:22Z</time>
      </trkpt>
      <trkpt lat="41.3632640" lon="-8.7600570">
        <ele>8.3</ele>
        <time>2021-05-16T12:51:23Z</time>
      </trkpt>
      <trkpt lat="41.3632690" lon="-8.7600670">
        <ele>8.3</ele>
        <time>2021-05-16T12:51:24Z</time>
      </trkpt>
      <trkpt lat="41.3632730" lon="-8.7600770">
        <ele>8.3</ele>
        <time>2021-05-16T12:51:25Z</time>
      </trkpt>
      <trkpt lat="41.3632870" lon="-8.7600930">
        <ele>8.3</ele>
        <time>2021-05-16T12:51:26Z</time>
      </trkpt>
      <trkpt lat="41.3632940" lon="-8.7601010">
        <ele>8.3</ele>
        <time>2021-05-16T12:51:27Z</time>
      </trkpt>
      <trkpt lat="41.3632990" lon="-8.7601110">
        <ele>8.3</ele>
        <time>2021-05-16T12:51:28Z</time>
      </trkpt>
      <trkpt lat="41.3633060" lon="-8.7601150">
        <ele>8.3</ele>
        <time>2021-05-16T12:51:29Z</time>
      </trkpt>
      <trkpt lat="41.3633090" lon="-8.7601200">
        <ele>8.3</ele>
        <time>2021-05-16T12:51:30Z</time>
      </trkpt>
      <trkpt lat="41.3633190" lon="-8.7601240">
        <ele>8.3</ele>
        <time>2021-05-16T12:51:31Z</time>
      </trkpt>
      <trkpt lat="41.3633300" lon="-8.7601320">
        <ele>8.3</ele>
        <time>2021-05-16T12:51:32Z</time>
      </trkpt>
      <trkpt lat="41.3633410" lon="-8.7601370">
        <ele>8.3</ele>
        <time>2021-05-16T12:51:33Z</time>
      </trkpt>
      <trkpt lat="41.3633520" lon="-8.7601390">
        <ele>8.3</ele>
        <time>2021-05-16T12:51:34Z</time>
      </trkpt>
      <trkpt lat="41.3633590" lon="-8.7601370">
        <ele>8.3</ele>
        <time>2021-05-16T12:51:35Z</time>
      </trkpt>
      <trkpt lat="41.3633700" lon="-8.7601420">
        <ele>8.3</ele>
        <time>2021-05-16T12:51:36Z</time>
      </trkpt>
      <trkpt lat="41.3633790" lon="-8.7601470">
        <ele>8.3</ele>
        <time>2021-05-16T12:51:37Z</time>
      </trkpt>
      <trkpt lat="41.3633870" lon="-8.7601510">
        <ele>8.3</ele>
        <time>2021-05-16T12:51:38Z</time>
      </trkpt>
      <trkpt lat="41.3634000" lon="-8.7601650">
        <ele>8.3</ele>
        <time>2021-05-16T12:51:39Z</time>
      </trkpt>
      <trkpt lat="41.3634060" lon="-8.7601710">
        <ele>8.3</ele>
        <time>2021-05-16T12:51:40Z</time>
      </trkpt>
      <trkpt lat="41.3634110" lon="-8.7601780">
        <ele>8.3</ele>
        <time>2021-05-16T12:51:41Z</time>
      </trkpt>
      <trkpt lat="41.3634170" lon="-8.7601850">
        <ele>8.3</ele>
        <time>2021-05-16T12:51:42Z</time>
      </trkpt>
      <trkpt lat="41.3634300" lon="-8.7602040">
        <ele>8.3</ele>
        <time>2021-05-16T12:51:43Z</time>
      </trkpt>
      <trkpt lat="41.3634370" lon="-8.7602120">
        <ele>8.3</ele>
        <time>2021-05-16T12:51:44Z</time>
      </trkpt>
      <trkpt lat="41.3634450" lon="-8.7602190">
        <ele>8.3</ele>
        <time>2021-05-16T12:51:45Z</time>
      </trkpt>
      <trkpt lat="41.3634560" lon="-8.7602280">
        <ele>8.3</ele>
        <time>2021-05-16T12:51:46Z</time>
      </trkpt>
      <trkpt lat="41.3634680" lon="-8.7602400">
        <ele>8.3</ele>
        <time>2021-05-16T12:51:47Z</time>
      </trkpt>
      <trkpt lat="41.3634730" lon="-8.7602490">
        <ele>8.3</ele>
        <time>2021-05-16T12:51:48Z</time>
      </trkpt>
      <trkpt lat="41.3634840" lon="-8.7602550">
        <ele>8.3</ele>
        <time>2021-05-16T12:51:49Z</time>
      </trkpt>
      <trkpt lat="41.3634890" lon="-8.7602640">
        <ele>8.3</ele>
        <time>2021-05-16T12:51:50Z</time>
      </trkpt>
      <trkpt lat="41.3635010" lon="-8.7602760">
        <ele>8.3</ele>
        <time>2021-05-16T12:51:51Z</time>
      </trkpt>
      <trkpt lat="41.3635090" lon="-8.7602880">
        <ele>8.3</ele>
        <time>2021-05-16T12:51:52Z</time>
      </trkpt>
      <trkpt lat="41.3635210" lon="-8.7602930">
        <ele>8.3</ele>
        <time>2021-05-16T12:51:53Z</time>
      </trkpt>
      <trkpt lat="41.3635320" lon="-8.7602990">
        <ele>8.3</ele>
        <time>2021-05-16T12:51:54Z</time>
      </trkpt>
      <trkpt lat="41.3635390" lon="-8.7603100">
        <ele>8.3</ele>
        <time>2021-05-16T12:51:55Z</time>
      </trkpt>
      <trkpt lat="41.3635510" lon="-8.7603190">
        <ele>8.3</ele>
        <time>2021-05-16T12:51:56Z</time>
      </trkpt>
      <trkpt lat="41.3635590" lon="-8.7603290">
        <ele>8.3</ele>
        <time>2021-05-16T12:51:57Z</time>
      </trkpt>
      <trkpt lat="41.3635680" lon="-8.7603350">
        <ele>8.3</ele>
        <time>2021-05-16T12:51:58Z</time>
      </trkpt>
      <trkpt lat="41.3635810" lon="-8.7603430">
        <ele>8.3</ele>
        <time>2021-05-16T12:51:59Z</time>
      </trkpt>
      <trkpt lat="41.3635920" lon="-8.7603460">
        <ele>8.3</ele>
        <time>2021-05-16T12:52:00Z</time>
      </trkpt>
      <trkpt lat="41.3636010" lon="-8.7603480">
        <ele>8.3</ele>
        <time>2021-05-16T12:52:01Z</time>
      </trkpt>
      <trkpt lat="41.3636080" lon="-8.7603610">
        <ele>8.3</ele>
        <time>2021-05-16T12:52:02Z</time>
      </trkpt>
      <trkpt lat="41.3636210" lon="-8.7603680">
        <ele>8.3</ele>
        <time>2021-05-16T12:52:03Z</time>
      </trkpt>
      <trkpt lat="41.3636310" lon="-8.7603740">
        <ele>8.3</ele>
        <time>2021-05-16T12:52:04Z</time>
      </trkpt>
      <trkpt lat="41.3636350" lon="-8.7603750">
        <ele>8.3</ele>
        <time>2021-05-16T12:52:05Z</time>
      </trkpt>
      <trkpt lat="41.3636460" lon="-8.7603770">
        <ele>8.3</ele>
        <time>2021-05-16T12:52:06Z</time>
      </trkpt>
      <trkpt lat="41.3636590" lon="-8.7603820">
        <ele>8.3</ele>
        <time>2021-05-16T12:52:07Z</time>
      </trkpt>
      <trkpt lat="41.3636670" lon="-8.7603860">
        <ele>8.3</ele>
        <time>2021-05-16T12:52:08Z</time>
      </trkpt>
      <trkpt lat="41.3636750" lon="-8.7603850">
        <ele>8.3</ele>
        <time>2021-05-16T12:52:09Z</time>
      </trkpt>
      <trkpt lat="41.3636850" lon="-8.7603910">
        <ele>8.3</ele>
        <time>2021-05-16T12:52:10Z</time>
      </trkpt>
      <trkpt lat="41.3636950" lon="-8.7603920">
        <ele>8.3</ele>
        <time>2021-05-16T12:52:11Z</time>
      </trkpt>
      <trkpt lat="41.3637050" lon="-8.7603960">
        <ele>8.3</ele>
        <time>2021-05-16T12:52:12Z</time>
      </trkpt>
      <trkpt lat="41.3637180" lon="-8.7604040">
        <ele>8.3</ele>
        <time>2021-05-16T12:52:13Z</time>
      </trkpt>
      <trkpt lat="41.3637280" lon="-8.7604090">
        <ele>8.2</ele>
        <time>2021-05-16T12:52:14Z</time>
      </trkpt>
      <trkpt lat="41.3637410" lon="-8.7604120">
        <ele>8.2</ele>
        <time>2021-05-16T12:52:15Z</time>
      </trkpt>
      <trkpt lat="41.3637470" lon="-8.7604160">
        <ele>8.2</ele>
        <time>2021-05-16T12:52:16Z</time>
      </trkpt>
      <trkpt lat="41.3637590" lon="-8.7604260">
        <ele>8.2</ele>
        <time>2021-05-16T12:52:17Z</time>
      </trkpt>
      <trkpt lat="41.3637690" lon="-8.7604360">
        <ele>8.2</ele>
        <time>2021-05-16T12:52:18Z</time>
      </trkpt>
      <trkpt lat="41.3637780" lon="-8.7604400">
        <ele>8.2</ele>
        <time>2021-05-16T12:52:19Z</time>
      </trkpt>
      <trkpt lat="41.3637860" lon="-8.7604450">
        <ele>8.2</ele>
        <time>2021-05-16T12:52:20Z</time>
      </trkpt>
      <trkpt lat="41.3638060" lon="-8.7604560">
        <ele>8.2</ele>
        <time>2021-05-16T12:52:21Z</time>
      </trkpt>
      <trkpt lat="41.3638130" lon="-8.7604620">
        <ele>8.2</ele>
        <time>2021-05-16T12:52:22Z</time>
      </trkpt>
      <trkpt lat="41.3638210" lon="-8.7604680">
        <ele>8.2</ele>
        <time>2021-05-16T12:52:23Z</time>
      </trkpt>
      <trkpt lat="41.3638290" lon="-8.7604710">
        <ele>8.2</ele>
        <time>2021-05-16T12:52:24Z</time>
      </trkpt>
      <trkpt lat="41.3638400" lon="-8.7604810">
        <ele>8.2</ele>
        <time>2021-05-16T12:52:25Z</time>
      </trkpt>
      <trkpt lat="41.3638530" lon="-8.7604870">
        <ele>8.2</ele>
        <time>2021-05-16T12:52:26Z</time>
      </trkpt>
      <trkpt lat="41.3638650" lon="-8.7604980">
        <ele>8.2</ele>
        <time>2021-05-16T12:52:27Z</time>
      </trkpt>
      <trkpt lat="41.3638790" lon="-8.7605000">
        <ele>8.2</ele>
        <time>2021-05-16T12:52:28Z</time>
      </trkpt>
      <trkpt lat="41.3638880" lon="-8.7605020">
        <ele>8.2</ele>
        <time>2021-05-16T12:52:29Z</time>
      </trkpt>
      <trkpt lat="41.3638960" lon="-8.7605030">
        <ele>8.2</ele>
        <time>2021-05-16T12:52:30Z</time>
      </trkpt>
      <trkpt lat="41.3639070" lon="-8.7604990">
        <ele>8.2</ele>
        <time>2021-05-16T12:52:31Z</time>
      </trkpt>
      <trkpt lat="41.3639170" lon="-8.7604990">
        <ele>8.2</ele>
        <time>2021-05-16T12:52:32Z</time>
      </trkpt>
      <trkpt lat="41.3639280" lon="-8.7604980">
        <ele>8.2</ele>
        <time>2021-05-16T12:52:33Z</time>
      </trkpt>
      <trkpt lat="41.3639360" lon="-8.7604950">
        <ele>8.2</ele>
        <time>2021-05-16T12:52:34Z</time>
      </trkpt>
      <trkpt lat="41.3639520" lon="-8.7604920">
        <ele>8.2</ele>
        <time>2021-05-16T12:52:35Z</time>
      </trkpt>
      <trkpt lat="41.3639610" lon="-8.7604980">
        <ele>8.1</ele>
        <time>2021-05-16T12:52:36Z</time>
      </trkpt>
      <trkpt lat="41.3639690" lon="-8.7604970">
        <ele>8.1</ele>
        <time>2021-05-16T12:52:37Z</time>
      </trkpt>
      <trkpt lat="41.3639790" lon="-8.7604950">
        <ele>8.1</ele>
        <time>2021-05-16T12:52:38Z</time>
      </trkpt>
      <trkpt lat="41.3639990" lon="-8.7604900">
        <ele>8.1</ele>
        <time>2021-05-16T12:52:39Z</time>
      </trkpt>
      <trkpt lat="41.3640120" lon="-8.7604860">
        <ele>8.1</ele>
        <time>2021-05-16T12:52:40Z</time>
      </trkpt>
      <trkpt lat="41.3640230" lon="-8.7604880">
        <ele>8.1</ele>
        <time>2021-05-16T12:52:41Z</time>
      </trkpt>
      <trkpt lat="41.3640380" lon="-8.7604860">
        <ele>8.1</ele>
        <time>2021-05-16T12:52:42Z</time>
      </trkpt>
      <trkpt lat="41.3640410" lon="-8.7604870">
        <ele>8.1</ele>
        <time>2021-05-16T12:52:43Z</time>
      </trkpt>
      <trkpt lat="41.3640610" lon="-8.7604890">
        <ele>8.1</ele>
        <time>2021-05-16T12:52:44Z</time>
      </trkpt>
      <trkpt lat="41.3640700" lon="-8.7604890">
        <ele>8.1</ele>
        <time>2021-05-16T12:52:45Z</time>
      </trkpt>
      <trkpt lat="41.3640790" lon="-8.7604890">
        <ele>8.1</ele>
        <time>2021-05-16T12:52:46Z</time>
      </trkpt>
      <trkpt lat="41.3641020" lon="-8.7604910">
        <ele>8.1</ele>
        <time>2021-05-16T12:52:47Z</time>
      </trkpt>
      <trkpt lat="41.3641120" lon="-8.7604830">
        <ele>8.1</ele>
        <time>2021-05-16T12:52:48Z</time>
      </trkpt>
      <trkpt lat="41.3641230" lon="-8.7604750">
        <ele>8.1</ele>
        <time>2021-05-16T12:52:49Z</time>
      </trkpt>
      <trkpt lat="41.3641300" lon="-8.7604820">
        <ele>8.1</ele>
        <time>2021-05-16T12:52:50Z</time>
      </trkpt>
      <trkpt lat="41.3641420" lon="-8.7604890">
        <ele>8.1</ele>
        <time>2021-05-16T12:52:51Z</time>
      </trkpt>
      <trkpt lat="41.3641510" lon="-8.7604950">
        <ele>8.1</ele>
        <time>2021-05-16T12:52:52Z</time>
      </trkpt>
      <trkpt lat="41.3641620" lon="-8.7605000">
        <ele>8.1</ele>
        <time>2021-05-16T12:52:53Z</time>
      </trkpt>
      <trkpt lat="41.3641770" lon="-8.7605110">
        <ele>8.1</ele>
        <time>2021-05-16T12:52:54Z</time>
      </trkpt>
      <trkpt lat="41.3641990" lon="-8.7605230">
        <ele>8.1</ele>
        <time>2021-05-16T12:52:55Z</time>
      </trkpt>
      <trkpt lat="41.3642100" lon="-8.7605260">
        <ele>8.1</ele>
        <time>2021-05-16T12:52:56Z</time>
      </trkpt>
      <trkpt lat="41.3642200" lon="-8.7605280">
        <ele>8.1</ele>
        <time>2021-05-16T12:52:57Z</time>
      </trkpt>
      <trkpt lat="41.3642300" lon="-8.7605310">
        <ele>8.0</ele>
        <time>2021-05-16T12:52:58Z</time>
      </trkpt>
      <trkpt lat="41.3642440" lon="-8.7605340">
        <ele>8.0</ele>
        <time>2021-05-16T12:52:59Z</time>
      </trkpt>
      <trkpt lat="41.3642540" lon="-8.7605360">
        <ele>8.0</ele>
        <time>2021-05-16T12:53:00Z</time>
      </trkpt>
      <trkpt lat="41.3642720" lon="-8.7605330">
        <ele>8.0</ele>
        <time>2021-05-16T12:53:01Z</time>
      </trkpt>
      <trkpt lat="41.3642880" lon="-8.7605270">
        <ele>8.0</ele>
        <time>2021-05-16T12:53:02Z</time>
      </trkpt>
      <trkpt lat="41.3643000" lon="-8.7605210">
        <ele>8.0</ele>
        <time>2021-05-16T12:53:03Z</time>
      </trkpt>
      <trkpt lat="41.3643140" lon="-8.7605100">
        <ele>8.0</ele>
        <time>2021-05-16T12:53:04Z</time>
      </trkpt>
      <trkpt lat="41.3643280" lon="-8.7605090">
        <ele>8.0</ele>
        <time>2021-05-16T12:53:05Z</time>
      </trkpt>
      <trkpt lat="41.3643420" lon="-8.7605240">
        <ele>8.0</ele>
        <time>2021-05-16T12:53:06Z</time>
      </trkpt>
      <trkpt lat="41.3643570" lon="-8.7605320">
        <ele>8.0</ele>
        <time>2021-05-16T12:53:07Z</time>
      </trkpt>
      <trkpt lat="41.3643700" lon="-8.7605240">
        <ele>8.0</ele>
        <time>2021-05-16T12:53:08Z</time>
      </trkpt>
      <trkpt lat="41.3643790" lon="-8.7605210">
        <ele>8.0</ele>
        <time>2021-05-16T12:53:09Z</time>
      </trkpt>
      <trkpt lat="41.3643930" lon="-8.7605200">
        <ele>8.0</ele>
        <time>2021-05-16T12:53:10Z</time>
      </trkpt>
      <trkpt lat="41.3644040" lon="-8.7605200">
        <ele>8.0</ele>
        <time>2021-05-16T12:53:11Z</time>
      </trkpt>
      <trkpt lat="41.3644160" lon="-8.7605240">
        <ele>8.0</ele>
        <time>2021-05-16T12:53:12Z</time>
      </trkpt>
      <trkpt lat="41.3644310" lon="-8.7605350">
        <ele>8.0</ele>
        <time>2021-05-16T12:53:13Z</time>
      </trkpt>
      <trkpt lat="41.3644490" lon="-8.7605340">
        <ele>8.0</ele>
        <time>2021-05-16T12:53:14Z</time>
      </trkpt>
      <trkpt lat="41.3644590" lon="-8.7605340">
        <ele>8.0</ele>
        <time>2021-05-16T12:53:15Z</time>
      </trkpt>
      <trkpt lat="41.3644690" lon="-8.7605330">
        <ele>8.0</ele>
        <time>2021-05-16T12:53:16Z</time>
      </trkpt>
      <trkpt lat="41.3644830" lon="-8.7605350">
        <ele>8.0</ele>
        <time>2021-05-16T12:53:17Z</time>
      </trkpt>
      <trkpt lat="41.3644940" lon="-8.7605420">
        <ele>8.0</ele>
        <time>2021-05-16T12:53:18Z</time>
      </trkpt>
      <trkpt lat="41.3645000" lon="-8.7605400">
        <ele>8.0</ele>
        <time>2021-05-16T12:53:19Z</time>
      </trkpt>
      <trkpt lat="41.3645110" lon="-8.7605470">
        <ele>8.0</ele>
        <time>2021-05-16T12:53:20Z</time>
      </trkpt>
      <trkpt lat="41.3645260" lon="-8.7605530">
        <ele>7.9</ele>
        <time>2021-05-16T12:53:21Z</time>
      </trkpt>
      <trkpt lat="41.3645410" lon="-8.7605570">
        <ele>7.9</ele>
        <time>2021-05-16T12:53:22Z</time>
      </trkpt>
      <trkpt lat="41.3645520" lon="-8.7605670">
        <ele>7.9</ele>
        <time>2021-05-16T12:53:23Z</time>
      </trkpt>
      <trkpt lat="41.3645580" lon="-8.7605730">
        <ele>7.9</ele>
        <time>2021-05-16T12:53:24Z</time>
      </trkpt>
      <trkpt lat="41.3645750" lon="-8.7605760">
        <ele>7.9</ele>
        <time>2021-05-16T12:53:25Z</time>
      </trkpt>
      <trkpt lat="41.3645810" lon="-8.7605840">
        <ele>7.9</ele>
        <time>2021-05-16T12:53:26Z</time>
      </trkpt>
      <trkpt lat="41.3645990" lon="-8.7605860">
        <ele>7.9</ele>
        <time>2021-05-16T12:53:27Z</time>
      </trkpt>
      <trkpt lat="41.3646170" lon="-8.7605850">
        <ele>7.9</ele>
        <time>2021-05-16T12:53:28Z</time>
      </trkpt>
      <trkpt lat="41.3646270" lon="-8.7605920">
        <ele>7.9</ele>
        <time>2021-05-16T12:53:29Z</time>
      </trkpt>
      <trkpt lat="41.3646360" lon="-8.7606000">
        <ele>7.9</ele>
        <time>2021-05-16T12:53:30Z</time>
      </trkpt>
      <trkpt lat="41.3646460" lon="-8.7606030">
        <ele>7.9</ele>
        <time>2021-05-16T12:53:31Z</time>
      </trkpt>
      <trkpt lat="41.3646500" lon="-8.7606150">
        <ele>7.9</ele>
        <time>2021-05-16T12:53:32Z</time>
      </trkpt>
      <trkpt lat="41.3646680" lon="-8.7606200">
        <ele>7.9</ele>
        <time>2021-05-16T12:53:33Z</time>
      </trkpt>
      <trkpt lat="41.3646750" lon="-8.7606290">
        <ele>7.9</ele>
        <time>2021-05-16T12:53:34Z</time>
      </trkpt>
      <trkpt lat="41.3646920" lon="-8.7606430">
        <ele>7.9</ele>
        <time>2021-05-16T12:53:35Z</time>
      </trkpt>
      <trkpt lat="41.3646990" lon="-8.7606500">
        <ele>7.9</ele>
        <time>2021-05-16T12:53:36Z</time>
      </trkpt>
      <trkpt lat="41.3647060" lon="-8.7606580">
        <ele>7.9</ele>
        <time>2021-05-16T12:53:37Z</time>
      </trkpt>
      <trkpt lat="41.3647170" lon="-8.7606570">
        <ele>7.9</ele>
        <time>2021-05-16T12:53:38Z</time>
      </trkpt>
      <trkpt lat="41.3647300" lon="-8.7606580">
        <ele>7.9</ele>
        <time>2021-05-16T12:53:39Z</time>
      </trkpt>
      <trkpt lat="41.3647340" lon="-8.7606620">
        <ele>7.9</ele>
        <time>2021-05-16T12:53:40Z</time>
      </trkpt>
      <trkpt lat="41.3647450" lon="-8.7606690">
        <ele>7.9</ele>
        <time>2021-05-16T12:53:41Z</time>
      </trkpt>
      <trkpt lat="41.3647550" lon="-8.7606780">
        <ele>7.9</ele>
        <time>2021-05-16T12:53:42Z</time>
      </trkpt>
      <trkpt lat="41.3647660" lon="-8.7606760">
        <ele>7.9</ele>
        <time>2021-05-16T12:53:43Z</time>
      </trkpt>
      <trkpt lat="41.3647830" lon="-8.7606810">
        <ele>7.9</ele>
        <time>2021-05-16T12:53:44Z</time>
      </trkpt>
      <trkpt lat="41.3647900" lon="-8.7606870">
        <ele>7.9</ele>
        <time>2021-05-16T12:53:45Z</time>
      </trkpt>
      <trkpt lat="41.3647960" lon="-8.7606920">
        <ele>7.9</ele>
        <time>2021-05-16T12:53:46Z</time>
      </trkpt>
      <trkpt lat="41.3648030" lon="-8.7606980">
        <ele>7.9</ele>
        <time>2021-05-16T12:53:47Z</time>
      </trkpt>
      <trkpt lat="41.3648230" lon="-8.7607080">
        <ele>7.9</ele>
        <time>2021-05-16T12:53:48Z</time>
      </trkpt>
      <trkpt lat="41.3648300" lon="-8.7607130">
        <ele>7.9</ele>
        <time>2021-05-16T12:53:49Z</time>
      </trkpt>
      <trkpt lat="41.3648370" lon="-8.7607180">
        <ele>7.9</ele>
        <time>2021-05-16T12:53:50Z</time>
      </trkpt>
      <trkpt lat="41.3648450" lon="-8.7607210">
        <ele>7.9</ele>
        <time>2021-05-16T12:53:51Z</time>
      </trkpt>
      <trkpt lat="41.3648520" lon="-8.7607360">
        <ele>7.9</ele>
        <time>2021-05-16T12:53:52Z</time>
      </trkpt>
      <trkpt lat="41.3648640" lon="-8.7607440">
        <ele>7.9</ele>
        <time>2021-05-16T12:53:53Z</time>
      </trkpt>
      <trkpt lat="41.3648740" lon="-8.7607490">
        <ele>7.8</ele>
        <time>2021-05-16T12:53:54Z</time>
      </trkpt>
      <trkpt lat="41.3648830" lon="-8.7607520">
        <ele>7.8</ele>
        <time>2021-05-16T12:53:55Z</time>
      </trkpt>
      <trkpt lat="41.3648910" lon="-8.7607640">
        <ele>7.8</ele>
        <time>2021-05-16T12:53:56Z</time>
      </trkpt>
      <trkpt lat="41.3649010" lon="-8.7607710">
        <ele>7.8</ele>
        <time>2021-05-16T12:53:57Z</time>
      </trkpt>
      <trkpt lat="41.3649110" lon="-8.7607810">
        <ele>7.8</ele>
        <time>2021-05-16T12:53:58Z</time>
      </trkpt>
      <trkpt lat="41.3649220" lon="-8.7607870">
        <ele>7.8</ele>
        <time>2021-05-16T12:53:59Z</time>
      </trkpt>
      <trkpt lat="41.3649410" lon="-8.7607980">
        <ele>7.8</ele>
        <time>2021-05-16T12:54:00Z</time>
      </trkpt>
      <trkpt lat="41.3649480" lon="-8.7608030">
        <ele>7.8</ele>
        <time>2021-05-16T12:54:01Z</time>
      </trkpt>
      <trkpt lat="41.3649560" lon="-8.7608090">
        <ele>7.8</ele>
        <time>2021-05-16T12:54:02Z</time>
      </trkpt>
      <trkpt lat="41.3649670" lon="-8.7608180">
        <ele>7.8</ele>
        <time>2021-05-16T12:54:03Z</time>
      </trkpt>
      <trkpt lat="41.3649740" lon="-8.7608220">
        <ele>7.8</ele>
        <time>2021-05-16T12:54:04Z</time>
      </trkpt>
      <trkpt lat="41.3649820" lon="-8.7608310">
        <ele>7.8</ele>
        <time>2021-05-16T12:54:05Z</time>
      </trkpt>
      <trkpt lat="41.3650000" lon="-8.7608480">
        <ele>7.8</ele>
        <time>2021-05-16T12:54:06Z</time>
      </trkpt>
      <trkpt lat="41.3650070" lon="-8.7608530">
        <ele>7.8</ele>
        <time>2021-05-16T12:54:07Z</time>
      </trkpt>
      <trkpt lat="41.3650140" lon="-8.7608580">
        <ele>7.8</ele>
        <time>2021-05-16T12:54:08Z</time>
      </trkpt>
      <trkpt lat="41.3650240" lon="-8.7608690">
        <ele>7.8</ele>
        <time>2021-05-16T12:54:09Z</time>
      </trkpt>
      <trkpt lat="41.3650360" lon="-8.7608790">
        <ele>7.8</ele>
        <time>2021-05-16T12:54:10Z</time>
      </trkpt>
      <trkpt lat="41.3650410" lon="-8.7608880">
        <ele>7.8</ele>
        <time>2021-05-16T12:54:11Z</time>
      </trkpt>
      <trkpt lat="41.3650550" lon="-8.7608950">
        <ele>7.8</ele>
        <time>2021-05-16T12:54:12Z</time>
      </trkpt>
      <trkpt lat="41.3650680" lon="-8.7608990">
        <ele>7.8</ele>
        <time>2021-05-16T12:54:13Z</time>
      </trkpt>
      <trkpt lat="41.3650840" lon="-8.7609090">
        <ele>7.8</ele>
        <time>2021-05-16T12:54:14Z</time>
      </trkpt>
      <trkpt lat="41.3650930" lon="-8.7609140">
        <ele>7.8</ele>
        <time>2021-05-16T12:54:15Z</time>
      </trkpt>
      <trkpt lat="41.3651030" lon="-8.7609200">
        <ele>7.8</ele>
        <time>2021-05-16T12:54:16Z</time>
      </trkpt>
      <trkpt lat="41.3651250" lon="-8.7609290">
        <ele>7.7</ele>
        <time>2021-05-16T12:54:17Z</time>
      </trkpt>
      <trkpt lat="41.3651310" lon="-8.7609310">
        <ele>7.7</ele>
        <time>2021-05-16T12:54:18Z</time>
      </trkpt>
      <trkpt lat="41.3651380" lon="-8.7609340">
        <ele>7.7</ele>
        <time>2021-05-16T12:54:19Z</time>
      </trkpt>
      <trkpt lat="41.3651560" lon="-8.7609430">
        <ele>7.7</ele>
        <time>2021-05-16T12:54:20Z</time>
      </trkpt>
      <trkpt lat="41.3651670" lon="-8.7609420">
        <ele>7.7</ele>
        <time>2021-05-16T12:54:21Z</time>
      </trkpt>
      <trkpt lat="41.3651890" lon="-8.7609460">
        <ele>7.7</ele>
        <time>2021-05-16T12:54:22Z</time>
      </trkpt>
      <trkpt lat="41.3651970" lon="-8.7609460">
        <ele>7.7</ele>
        <time>2021-05-16T12:54:23Z</time>
      </trkpt>
      <trkpt lat="41.3652050" lon="-8.7609470">
        <ele>7.7</ele>
        <time>2021-05-16T12:54:24Z</time>
      </trkpt>
      <trkpt lat="41.3652260" lon="-8.7609530">
        <ele>7.7</ele>
        <time>2021-05-16T12:54:25Z</time>
      </trkpt>
      <trkpt lat="41.3652340" lon="-8.7609560">
        <ele>7.7</ele>
        <time>2021-05-16T12:54:26Z</time>
      </trkpt>
      <trkpt lat="41.3652420" lon="-8.7609600">
        <ele>7.7</ele>
        <time>2021-05-16T12:54:27Z</time>
      </trkpt>
      <trkpt lat="41.3652530" lon="-8.7609640">
        <ele>7.7</ele>
        <time>2021-05-16T12:54:28Z</time>
      </trkpt>
      <trkpt lat="41.3652640" lon="-8.7609670">
        <ele>7.7</ele>
        <time>2021-05-16T12:54:29Z</time>
      </trkpt>
      <trkpt lat="41.3652760" lon="-8.7609680">
        <ele>7.7</ele>
        <time>2021-05-16T12:54:30Z</time>
      </trkpt>
      <trkpt lat="41.3652940" lon="-8.7609850">
        <ele>7.7</ele>
        <time>2021-05-16T12:54:31Z</time>
      </trkpt>
      <trkpt lat="41.3653010" lon="-8.7609900">
        <ele>7.7</ele>
        <time>2021-05-16T12:54:32Z</time>
      </trkpt>
      <trkpt lat="41.3653080" lon="-8.7609960">
        <ele>7.7</ele>
        <time>2021-05-16T12:54:33Z</time>
      </trkpt>
      <trkpt lat="41.3653190" lon="-8.7610000">
        <ele>7.7</ele>
        <time>2021-05-16T12:54:34Z</time>
      </trkpt>
      <trkpt lat="41.3653300" lon="-8.7610010">
        <ele>7.7</ele>
        <time>2021-05-16T12:54:35Z</time>
      </trkpt>
      <trkpt lat="41.3653420" lon="-8.7609990">
        <ele>7.7</ele>
        <time>2021-05-16T12:54:36Z</time>
      </trkpt>
      <trkpt lat="41.3653520" lon="-8.7610030">
        <ele>7.7</ele>
        <time>2021-05-16T12:54:37Z</time>
      </trkpt>
      <trkpt lat="41.3653680" lon="-8.7610090">
        <ele>7.7</ele>
        <time>2021-05-16T12:54:38Z</time>
      </trkpt>
      <trkpt lat="41.3653810" lon="-8.7610090">
        <ele>7.7</ele>
        <time>2021-05-16T12:54:39Z</time>
      </trkpt>
      <trkpt lat="41.3653990" lon="-8.7610010">
        <ele>7.6</ele>
        <time>2021-05-16T12:54:40Z</time>
      </trkpt>
      <trkpt lat="41.3654100" lon="-8.7609940">
        <ele>7.6</ele>
        <time>2021-05-16T12:54:41Z</time>
      </trkpt>
      <trkpt lat="41.3654180" lon="-8.7609920">
        <ele>7.6</ele>
        <time>2021-05-16T12:54:42Z</time>
      </trkpt>
      <trkpt lat="41.3654280" lon="-8.7609920">
        <ele>7.6</ele>
        <time>2021-05-16T12:54:43Z</time>
      </trkpt>
      <trkpt lat="41.3654480" lon="-8.7609920">
        <ele>7.6</ele>
        <time>2021-05-16T12:54:44Z</time>
      </trkpt>
      <trkpt lat="41.3654570" lon="-8.7609890">
        <ele>7.6</ele>
        <time>2021-05-16T12:54:45Z</time>
      </trkpt>
      <trkpt lat="41.3654670" lon="-8.7609860">
        <ele>7.6</ele>
        <time>2021-05-16T12:54:46Z</time>
      </trkpt>
      <trkpt lat="41.3654860" lon="-8.7609870">
        <ele>7.6</ele>
        <time>2021-05-16T12:54:47Z</time>
      </trkpt>
      <trkpt lat="41.3654990" lon="-8.7609900">
        <ele>7.6</ele>
        <time>2021-05-16T12:54:48Z</time>
      </trkpt>
      <trkpt lat="41.3655120" lon="-8.7609900">
        <ele>7.6</ele>
        <time>2021-05-16T12:54:49Z</time>
      </trkpt>
      <trkpt lat="41.3655260" lon="-8.7609850">
        <ele>7.6</ele>
        <time>2021-05-16T12:54:50Z</time>
      </trkpt>
      <trkpt lat="41.3655430" lon="-8.7609850">
        <ele>7.6</ele>
        <time>2021-05-16T12:54:51Z</time>
      </trkpt>
      <trkpt lat="41.3655590" lon="-8.7609850">
        <ele>7.6</ele>
        <time>2021-05-16T12:54:52Z</time>
      </trkpt>
      <trkpt lat="41.3655690" lon="-8.7609870">
        <ele>7.6</ele>
        <time>2021-05-16T12:54:53Z</time>
      </trkpt>
      <trkpt lat="41.3655870" lon="-8.7609900">
        <ele>7.6</ele>
        <time>2021-05-16T12:54:54Z</time>
      </trkpt>
      <trkpt lat="41.3656020" lon="-8.7609880">
        <ele>7.6</ele>
        <time>2021-05-16T12:54:55Z</time>
      </trkpt>
      <trkpt lat="41.3656190" lon="-8.7609920">
        <ele>7.6</ele>
        <time>2021-05-16T12:54:56Z</time>
      </trkpt>
      <trkpt lat="41.3656480" lon="-8.7609910">
        <ele>7.6</ele>
        <time>2021-05-16T12:54:57Z</time>
      </trkpt>
      <trkpt lat="41.3656550" lon="-8.7609930">
        <ele>7.6</ele>
        <time>2021-05-16T12:54:58Z</time>
      </trkpt>
      <trkpt lat="41.3656710" lon="-8.7609930">
        <ele>7.6</ele>
        <time>2021-05-16T12:54:59Z</time>
      </trkpt>
      <trkpt lat="41.3656880" lon="-8.7609890">
        <ele>7.6</ele>
        <time>2021-05-16T12:55:00Z</time>
      </trkpt>
      <trkpt lat="41.3657050" lon="-8.7609880">
        <ele>7.6</ele>
        <time>2021-05-16T12:55:01Z</time>
      </trkpt>
      <trkpt lat="41.3657200" lon="-8.7609970">
        <ele>7.6</ele>
        <time>2021-05-16T12:55:02Z</time>
      </trkpt>
      <trkpt lat="41.3657380" lon="-8.7610010">
        <ele>7.5</ele>
        <time>2021-05-16T12:55:03Z</time>
      </trkpt>
      <trkpt lat="41.3657520" lon="-8.7610140">
        <ele>7.5</ele>
        <time>2021-05-16T12:55:04Z</time>
      </trkpt>
      <trkpt lat="41.3657650" lon="-8.7610190">
        <ele>7.5</ele>
        <time>2021-05-16T12:55:05Z</time>
      </trkpt>
      <trkpt lat="41.3657800" lon="-8.7610250">
        <ele>7.5</ele>
        <time>2021-05-16T12:55:06Z</time>
      </trkpt>
      <trkpt lat="41.3657940" lon="-8.7610290">
        <ele>7.5</ele>
        <time>2021-05-16T12:55:07Z</time>
      </trkpt>
      <trkpt lat="41.3658050" lon="-8.7610440">
        <ele>7.5</ele>
        <time>2021-05-16T12:55:08Z</time>
      </trkpt>
      <trkpt lat="41.3658190" lon="-8.7610510">
        <ele>7.5</ele>
        <time>2021-05-16T12:55:09Z</time>
      </trkpt>
      <trkpt lat="41.3658260" lon="-8.7610630">
        <ele>7.5</ele>
        <time>2021-05-16T12:55:10Z</time>
      </trkpt>
      <trkpt lat="41.3658360" lon="-8.7610690">
        <ele>7.5</ele>
        <time>2021-05-16T12:55:11Z</time>
      </trkpt>
      <trkpt lat="41.3658520" lon="-8.7610700">
        <ele>7.5</ele>
        <time>2021-05-16T12:55:12Z</time>
      </trkpt>
      <trkpt lat="41.3658670" lon="-8.7610810">
        <ele>7.5</ele>
        <time>2021-05-16T12:55:13Z</time>
      </trkpt>
      <trkpt lat="41.3658780" lon="-8.7610860">
        <ele>7.5</ele>
        <time>2021-05-16T12:55:14Z</time>
      </trkpt>
      <trkpt lat="41.3658910" lon="-8.7610930">
        <ele>7.5</ele>
        <time>2021-05-16T12:55:15Z</time>
      </trkpt>
      <trkpt lat="41.3658940" lon="-8.7611020">
        <ele>7.5</ele>
        <time>2021-05-16T12:55:16Z</time>
      </trkpt>
      <trkpt lat="41.3659120" lon="-8.7611160">
        <ele>7.5</ele>
        <time>2021-05-16T12:55:17Z</time>
      </trkpt>
      <trkpt lat="41.3659200" lon="-8.7611220">
        <ele>7.5</ele>
        <time>2021-05-16T12:55:18Z</time>
      </trkpt>
      <trkpt lat="41.3659280" lon="-8.7611280">
        <ele>7.5</ele>
        <time>2021-05-16T12:55:19Z</time>
      </trkpt>
      <trkpt lat="41.3659320" lon="-8.7611360">
        <ele>7.5</ele>
        <time>2021-05-16T12:55:20Z</time>
      </trkpt>
      <trkpt lat="41.3659470" lon="-8.7611370">
        <ele>7.5</ele>
        <time>2021-05-16T12:55:21Z</time>
      </trkpt>
      <trkpt lat="41.3659580" lon="-8.7611410">
        <ele>7.5</ele>
        <time>2021-05-16T12:55:22Z</time>
      </trkpt>
      <trkpt lat="41.3659800" lon="-8.7611540">
        <ele>7.5</ele>
        <time>2021-05-16T12:55:23Z</time>
      </trkpt>
      <trkpt lat="41.3659910" lon="-8.7611570">
        <ele>7.5</ele>
        <time>2021-05-16T12:55:24Z</time>
      </trkpt>
      <trkpt lat="41.3659970" lon="-8.7611670">
        <ele>7.5</ele>
        <time>2021-05-16T12:55:25Z</time>
      </trkpt>
      <trkpt lat="41.3660070" lon="-8.7611760">
        <ele>7.5</ele>
        <time>2021-05-16T12:55:26Z</time>
      </trkpt>
      <trkpt lat="41.3660150" lon="-8.7611830">
        <ele>7.5</ele>
        <time>2021-05-16T12:55:27Z</time>
      </trkpt>
      <trkpt lat="41.3660220" lon="-8.7611910">
        <ele>7.5</ele>
        <time>2021-05-16T12:55:28Z</time>
      </trkpt>
      <trkpt lat="41.3660340" lon="-8.7611940">
        <ele>7.5</ele>
        <time>2021-05-16T12:55:29Z</time>
      </trkpt>
      <trkpt lat="41.3660450" lon="-8.7612020">
        <ele>7.5</ele>
        <time>2021-05-16T12:55:30Z</time>
      </trkpt>
      <trkpt lat="41.3660540" lon="-8.7612060">
        <ele>7.5</ele>
        <time>2021-05-16T12:55:31Z</time>
      </trkpt>
      <trkpt lat="41.3660680" lon="-8.7612120">
        <ele>7.5</ele>
        <time>2021-05-16T12:55:32Z</time>
      </trkpt>
      <trkpt lat="41.3660680" lon="-8.7612140">
        <ele>7.5</ele>
        <time>2021-05-16T12:55:33Z</time>
      </trkpt>
      <trkpt lat="41.3660770" lon="-8.7612140">
        <ele>7.5</ele>
        <time>2021-05-16T12:55:34Z</time>
      </trkpt>
      <trkpt lat="41.3660880" lon="-8.7612160">
        <ele>7.5</ele>
        <time>2021-05-16T12:55:35Z</time>
      </trkpt>
      <trkpt lat="41.3660950" lon="-8.7612200">
        <ele>7.5</ele>
        <time>2021-05-16T12:55:36Z</time>
      </trkpt>
      <trkpt lat="41.3661000" lon="-8.7612230">
        <ele>7.5</ele>
        <time>2021-05-16T12:55:37Z</time>
      </trkpt>
      <trkpt lat="41.3661080" lon="-8.7612320">
        <ele>7.5</ele>
        <time>2021-05-16T12:55:38Z</time>
      </trkpt>
      <trkpt lat="41.3661110" lon="-8.7612340">
        <ele>7.5</ele>
        <time>2021-05-16T12:55:39Z</time>
      </trkpt>
      <trkpt lat="41.3661120" lon="-8.7612330">
        <ele>7.5</ele>
        <time>2021-05-16T12:55:40Z</time>
      </trkpt>
      <trkpt lat="41.3661240" lon="-8.7612380">
        <ele>7.4</ele>
        <time>2021-05-16T12:55:41Z</time>
      </trkpt>
      <trkpt lat="41.3661370" lon="-8.7612390">
        <ele>7.4</ele>
        <time>2021-05-16T12:55:42Z</time>
      </trkpt>
      <trkpt lat="41.3661500" lon="-8.7612480">
        <ele>7.4</ele>
        <time>2021-05-16T12:55:43Z</time>
      </trkpt>
      <trkpt lat="41.3661600" lon="-8.7612580">
        <ele>7.4</ele>
        <time>2021-05-16T12:55:44Z</time>
      </trkpt>
      <trkpt lat="41.3661870" lon="-8.7612800">
        <ele>7.4</ele>
        <time>2021-05-16T12:55:45Z</time>
      </trkpt>
      <trkpt lat="41.3661970" lon="-8.7612880">
        <ele>7.4</ele>
        <time>2021-05-16T12:55:46Z</time>
      </trkpt>
      <trkpt lat="41.3662150" lon="-8.7613000">
        <ele>7.4</ele>
        <time>2021-05-16T12:55:47Z</time>
      </trkpt>
      <trkpt lat="41.3662300" lon="-8.7613090">
        <ele>7.4</ele>
        <time>2021-05-16T12:55:48Z</time>
      </trkpt>
      <trkpt lat="41.3662450" lon="-8.7613230">
        <ele>7.4</ele>
        <time>2021-05-16T12:55:49Z</time>
      </trkpt>
      <trkpt lat="41.3662500" lon="-8.7613340">
        <ele>7.4</ele>
        <time>2021-05-16T12:55:50Z</time>
      </trkpt>
      <trkpt lat="41.3662550" lon="-8.7613500">
        <ele>7.4</ele>
        <time>2021-05-16T12:55:51Z</time>
      </trkpt>
      <trkpt lat="41.3662620" lon="-8.7613590">
        <ele>7.4</ele>
        <time>2021-05-16T12:55:52Z</time>
      </trkpt>
      <trkpt lat="41.3662720" lon="-8.7613680">
        <ele>7.3</ele>
        <time>2021-05-16T12:55:53Z</time>
      </trkpt>
      <trkpt lat="41.3662840" lon="-8.7613700">
        <ele>7.3</ele>
        <time>2021-05-16T12:55:54Z</time>
      </trkpt>
      <trkpt lat="41.3662920" lon="-8.7613770">
        <ele>7.3</ele>
        <time>2021-05-16T12:55:55Z</time>
      </trkpt>
      <trkpt lat="41.3663030" lon="-8.7613830">
        <ele>7.3</ele>
        <time>2021-05-16T12:55:56Z</time>
      </trkpt>
      <trkpt lat="41.3663130" lon="-8.7613870">
        <ele>7.3</ele>
        <time>2021-05-16T12:55:57Z</time>
      </trkpt>
      <trkpt lat="41.3663190" lon="-8.7613890">
        <ele>7.3</ele>
        <time>2021-05-16T12:55:58Z</time>
      </trkpt>
      <trkpt lat="41.3663310" lon="-8.7613960">
        <ele>7.3</ele>
        <time>2021-05-16T12:55:59Z</time>
      </trkpt>
      <trkpt lat="41.3663490" lon="-8.7614020">
        <ele>7.3</ele>
        <time>2021-05-16T12:56:00Z</time>
      </trkpt>
      <trkpt lat="41.3663590" lon="-8.7614030">
        <ele>7.3</ele>
        <time>2021-05-16T12:56:02Z</time>
      </trkpt>
      <trkpt lat="41.3663690" lon="-8.7614050">
        <ele>7.3</ele>
        <time>2021-05-16T12:56:03Z</time>
      </trkpt>
      <trkpt lat="41.3663810" lon="-8.7614090">
        <ele>7.3</ele>
        <time>2021-05-16T12:56:04Z</time>
      </trkpt>
      <trkpt lat="41.3663920" lon="-8.7614120">
        <ele>7.2</ele>
        <time>2021-05-16T12:56:05Z</time>
      </trkpt>
      <trkpt lat="41.3664020" lon="-8.7614140">
        <ele>7.2</ele>
        <time>2021-05-16T12:56:06Z</time>
      </trkpt>
      <trkpt lat="41.3664220" lon="-8.7614170">
        <ele>7.2</ele>
        <time>2021-05-16T12:56:07Z</time>
      </trkpt>
      <trkpt lat="41.3664310" lon="-8.7614180">
        <ele>7.2</ele>
        <time>2021-05-16T12:56:08Z</time>
      </trkpt>
      <trkpt lat="41.3664390" lon="-8.7614190">
        <ele>7.2</ele>
        <time>2021-05-16T12:56:09Z</time>
      </trkpt>
      <trkpt lat="41.3664610" lon="-8.7614210">
        <ele>7.2</ele>
        <time>2021-05-16T12:56:10Z</time>
      </trkpt>
      <trkpt lat="41.3664700" lon="-8.7614200">
        <ele>7.2</ele>
        <time>2021-05-16T12:56:11Z</time>
      </trkpt>
      <trkpt lat="41.3664780" lon="-8.7614200">
        <ele>7.2</ele>
        <time>2021-05-16T12:56:12Z</time>
      </trkpt>
      <trkpt lat="41.3665000" lon="-8.7614210">
        <ele>7.2</ele>
        <time>2021-05-16T12:56:13Z</time>
      </trkpt>
      <trkpt lat="41.3665110" lon="-8.7614190">
        <ele>7.2</ele>
        <time>2021-05-16T12:56:14Z</time>
      </trkpt>
      <trkpt lat="41.3665210" lon="-8.7614180">
        <ele>7.2</ele>
        <time>2021-05-16T12:56:15Z</time>
      </trkpt>
      <trkpt lat="41.3665460" lon="-8.7614170">
        <ele>7.2</ele>
        <time>2021-05-16T12:56:16Z</time>
      </trkpt>
      <trkpt lat="41.3665540" lon="-8.7614170">
        <ele>7.2</ele>
        <time>2021-05-16T12:56:17Z</time>
      </trkpt>
      <trkpt lat="41.3665630" lon="-8.7614160">
        <ele>7.2</ele>
        <time>2021-05-16T12:56:18Z</time>
      </trkpt>
      <trkpt lat="41.3665830" lon="-8.7614260">
        <ele>7.2</ele>
        <time>2021-05-16T12:56:19Z</time>
      </trkpt>
      <trkpt lat="41.3665920" lon="-8.7614280">
        <ele>7.2</ele>
        <time>2021-05-16T12:56:20Z</time>
      </trkpt>
      <trkpt lat="41.3666010" lon="-8.7614310">
        <ele>7.2</ele>
        <time>2021-05-16T12:56:21Z</time>
      </trkpt>
      <trkpt lat="41.3666180" lon="-8.7614320">
        <ele>7.2</ele>
        <time>2021-05-16T12:56:22Z</time>
      </trkpt>
      <trkpt lat="41.3666340" lon="-8.7614340">
        <ele>7.2</ele>
        <time>2021-05-16T12:56:23Z</time>
      </trkpt>
      <trkpt lat="41.3666450" lon="-8.7614310">
        <ele>7.2</ele>
        <time>2021-05-16T12:56:24Z</time>
      </trkpt>
      <trkpt lat="41.3666550" lon="-8.7614370">
        <ele>7.2</ele>
        <time>2021-05-16T12:56:25Z</time>
      </trkpt>
      <trkpt lat="41.3666650" lon="-8.7614380">
        <ele>7.2</ele>
        <time>2021-05-16T12:56:26Z</time>
      </trkpt>
      <trkpt lat="41.3666850" lon="-8.7614290">
        <ele>7.2</ele>
        <time>2021-05-16T12:56:27Z</time>
      </trkpt>
      <trkpt lat="41.3666950" lon="-8.7614280">
        <ele>7.2</ele>
        <time>2021-05-16T12:56:28Z</time>
      </trkpt>
      <trkpt lat="41.3667120" lon="-8.7614230">
        <ele>7.2</ele>
        <time>2021-05-16T12:56:29Z</time>
      </trkpt>
      <trkpt lat="41.3667220" lon="-8.7614240">
        <ele>7.2</ele>
        <time>2021-05-16T12:56:30Z</time>
      </trkpt>
      <trkpt lat="41.3667370" lon="-8.7614170">
        <ele>7.2</ele>
        <time>2021-05-16T12:56:31Z</time>
      </trkpt>
      <trkpt lat="41.3667500" lon="-8.7614180">
        <ele>7.2</ele>
        <time>2021-05-16T12:56:32Z</time>
      </trkpt>
      <trkpt lat="41.3667640" lon="-8.7614160">
        <ele>7.2</ele>
        <time>2021-05-16T12:56:33Z</time>
      </trkpt>
      <trkpt lat="41.3667790" lon="-8.7614190">
        <ele>7.1</ele>
        <time>2021-05-16T12:56:34Z</time>
      </trkpt>
      <trkpt lat="41.3667940" lon="-8.7614190">
        <ele>7.1</ele>
        <time>2021-05-16T12:56:35Z</time>
      </trkpt>
      <trkpt lat="41.3668070" lon="-8.7614160">
        <ele>7.1</ele>
        <time>2021-05-16T12:56:36Z</time>
      </trkpt>
      <trkpt lat="41.3668220" lon="-8.7614200">
        <ele>7.1</ele>
        <time>2021-05-16T12:56:37Z</time>
      </trkpt>
      <trkpt lat="41.3668370" lon="-8.7614190">
        <ele>7.1</ele>
        <time>2021-05-16T12:56:38Z</time>
      </trkpt>
      <trkpt lat="41.3668530" lon="-8.7614240">
        <ele>7.1</ele>
        <time>2021-05-16T12:56:39Z</time>
      </trkpt>
      <trkpt lat="41.3668670" lon="-8.7614220">
        <ele>7.1</ele>
        <time>2021-05-16T12:56:40Z</time>
      </trkpt>
      <trkpt lat="41.3668810" lon="-8.7614250">
        <ele>7.1</ele>
        <time>2021-05-16T12:56:41Z</time>
      </trkpt>
      <trkpt lat="41.3668960" lon="-8.7614290">
        <ele>7.1</ele>
        <time>2021-05-16T12:56:42Z</time>
      </trkpt>
      <trkpt lat="41.3669110" lon="-8.7614280">
        <ele>7.1</ele>
        <time>2021-05-16T12:56:43Z</time>
      </trkpt>
      <trkpt lat="41.3669250" lon="-8.7614280">
        <ele>7.1</ele>
        <time>2021-05-16T12:56:44Z</time>
      </trkpt>
      <trkpt lat="41.3669470" lon="-8.7614290">
        <ele>7.1</ele>
        <time>2021-05-16T12:56:45Z</time>
      </trkpt>
      <trkpt lat="41.3669560" lon="-8.7614280">
        <ele>7.1</ele>
        <time>2021-05-16T12:56:46Z</time>
      </trkpt>
      <trkpt lat="41.3669650" lon="-8.7614280">
        <ele>7.1</ele>
        <time>2021-05-16T12:56:47Z</time>
      </trkpt>
      <trkpt lat="41.3669780" lon="-8.7614300">
        <ele>7.1</ele>
        <time>2021-05-16T12:56:48Z</time>
      </trkpt>
      <trkpt lat="41.3669920" lon="-8.7614360">
        <ele>7.1</ele>
        <time>2021-05-16T12:56:49Z</time>
      </trkpt>
      <trkpt lat="41.3670070" lon="-8.7614380">
        <ele>7.1</ele>
        <time>2021-05-16T12:56:50Z</time>
      </trkpt>
      <trkpt lat="41.3670210" lon="-8.7614430">
        <ele>7.1</ele>
        <time>2021-05-16T12:56:51Z</time>
      </trkpt>
      <trkpt lat="41.3670430" lon="-8.7614390">
        <ele>7.1</ele>
        <time>2021-05-16T12:56:52Z</time>
      </trkpt>
      <trkpt lat="41.3670510" lon="-8.7614380">
        <ele>7.0</ele>
        <time>2021-05-16T12:56:53Z</time>
      </trkpt>
      <trkpt lat="41.3670590" lon="-8.7614360">
        <ele>7.0</ele>
        <time>2021-05-16T12:56:54Z</time>
      </trkpt>
      <trkpt lat="41.3670660" lon="-8.7614360">
        <ele>7.0</ele>
        <time>2021-05-16T12:56:55Z</time>
      </trkpt>
      <trkpt lat="41.3670810" lon="-8.7614410">
        <ele>7.0</ele>
        <time>2021-05-16T12:56:56Z</time>
      </trkpt>
      <trkpt lat="41.3670910" lon="-8.7614350">
        <ele>7.0</ele>
        <time>2021-05-16T12:56:57Z</time>
      </trkpt>
      <trkpt lat="41.3671010" lon="-8.7614360">
        <ele>7.0</ele>
        <time>2021-05-16T12:56:58Z</time>
      </trkpt>
      <trkpt lat="41.3671130" lon="-8.7614390">
        <ele>7.0</ele>
        <time>2021-05-16T12:56:59Z</time>
      </trkpt>
      <trkpt lat="41.3671220" lon="-8.7614390">
        <ele>7.0</ele>
        <time>2021-05-16T12:57:00Z</time>
      </trkpt>
      <trkpt lat="41.3671410" lon="-8.7614410">
        <ele>7.0</ele>
        <time>2021-05-16T12:57:01Z</time>
      </trkpt>
      <trkpt lat="41.3671520" lon="-8.7614460">
        <ele>7.0</ele>
        <time>2021-05-16T12:57:02Z</time>
      </trkpt>
      <trkpt lat="41.3671660" lon="-8.7614440">
        <ele>7.0</ele>
        <time>2021-05-16T12:57:03Z</time>
      </trkpt>
      <trkpt lat="41.3671800" lon="-8.7614420">
        <ele>7.0</ele>
        <time>2021-05-16T12:57:04Z</time>
      </trkpt>
      <trkpt lat="41.3672030" lon="-8.7614450">
        <ele>7.0</ele>
        <time>2021-05-16T12:57:05Z</time>
      </trkpt>
      <trkpt lat="41.3672110" lon="-8.7614460">
        <ele>7.0</ele>
        <time>2021-05-16T12:57:06Z</time>
      </trkpt>
      <trkpt lat="41.3672200" lon="-8.7614480">
        <ele>7.0</ele>
        <time>2021-05-16T12:57:07Z</time>
      </trkpt>
      <trkpt lat="41.3672330" lon="-8.7614520">
        <ele>7.0</ele>
        <time>2021-05-16T12:57:08Z</time>
      </trkpt>
      <trkpt lat="41.3672450" lon="-8.7614490">
        <ele>7.0</ele>
        <time>2021-05-16T12:57:09Z</time>
      </trkpt>
      <trkpt lat="41.3672560" lon="-8.7614470">
        <ele>7.0</ele>
        <time>2021-05-16T12:57:10Z</time>
      </trkpt>
      <trkpt lat="41.3672660" lon="-8.7614500">
        <ele>7.0</ele>
        <time>2021-05-16T12:57:11Z</time>
      </trkpt>
      <trkpt lat="41.3672770" lon="-8.7614580">
        <ele>7.0</ele>
        <time>2021-05-16T12:57:12Z</time>
      </trkpt>
      <trkpt lat="41.3672850" lon="-8.7614590">
        <ele>7.0</ele>
        <time>2021-05-16T12:57:13Z</time>
      </trkpt>
      <trkpt lat="41.3672960" lon="-8.7614620">
        <ele>7.0</ele>
        <time>2021-05-16T12:57:14Z</time>
      </trkpt>
      <trkpt lat="41.3673170" lon="-8.7614590">
        <ele>7.0</ele>
        <time>2021-05-16T12:57:15Z</time>
      </trkpt>
      <trkpt lat="41.3673270" lon="-8.7614600">
        <ele>7.0</ele>
        <time>2021-05-16T12:57:16Z</time>
      </trkpt>
      <trkpt lat="41.3673380" lon="-8.7614540">
        <ele>7.0</ele>
        <time>2021-05-16T12:57:17Z</time>
      </trkpt>
      <trkpt lat="41.3673510" lon="-8.7614500">
        <ele>7.0</ele>
        <time>2021-05-16T12:57:18Z</time>
      </trkpt>
      <trkpt lat="41.3673630" lon="-8.7614510">
        <ele>7.0</ele>
        <time>2021-05-16T12:57:19Z</time>
      </trkpt>
      <trkpt lat="41.3673740" lon="-8.7614520">
        <ele>7.0</ele>
        <time>2021-05-16T12:57:20Z</time>
      </trkpt>
      <trkpt lat="41.3673870" lon="-8.7614510">
        <ele>7.0</ele>
        <time>2021-05-16T12:57:21Z</time>
      </trkpt>
      <trkpt lat="41.3673990" lon="-8.7614520">
        <ele>7.0</ele>
        <time>2021-05-16T12:57:22Z</time>
      </trkpt>
      <trkpt lat="41.3674140" lon="-8.7614500">
        <ele>7.0</ele>
        <time>2021-05-16T12:57:23Z</time>
      </trkpt>
      <trkpt lat="41.3674210" lon="-8.7614530">
        <ele>7.0</ele>
        <time>2021-05-16T12:57:24Z</time>
      </trkpt>
      <trkpt lat="41.3674380" lon="-8.7614520">
        <ele>7.0</ele>
        <time>2021-05-16T12:57:25Z</time>
      </trkpt>
      <trkpt lat="41.3674500" lon="-8.7614530">
        <ele>7.0</ele>
        <time>2021-05-16T12:57:26Z</time>
      </trkpt>
      <trkpt lat="41.3674700" lon="-8.7614450">
        <ele>7.0</ele>
        <time>2021-05-16T12:57:27Z</time>
      </trkpt>
      <trkpt lat="41.3674800" lon="-8.7614440">
        <ele>7.0</ele>
        <time>2021-05-16T12:57:28Z</time>
      </trkpt>
      <trkpt lat="41.3674890" lon="-8.7614420">
        <ele>7.0</ele>
        <time>2021-05-16T12:57:29Z</time>
      </trkpt>
      <trkpt lat="41.3675040" lon="-8.7614450">
        <ele>7.0</ele>
        <time>2021-05-16T12:57:30Z</time>
      </trkpt>
      <trkpt lat="41.3675180" lon="-8.7614450">
        <ele>6.9</ele>
        <time>2021-05-16T12:57:31Z</time>
      </trkpt>
      <trkpt lat="41.3675310" lon="-8.7614440">
        <ele>6.9</ele>
        <time>2021-05-16T12:57:32Z</time>
      </trkpt>
      <trkpt lat="41.3675420" lon="-8.7614470">
        <ele>6.9</ele>
        <time>2021-05-16T12:57:33Z</time>
      </trkpt>
      <trkpt lat="41.3675520" lon="-8.7614450">
        <ele>6.9</ele>
        <time>2021-05-16T12:57:34Z</time>
      </trkpt>
      <trkpt lat="41.3675730" lon="-8.7614520">
        <ele>6.9</ele>
        <time>2021-05-16T12:57:35Z</time>
      </trkpt>
      <trkpt lat="41.3675810" lon="-8.7614500">
        <ele>6.9</ele>
        <time>2021-05-16T12:57:36Z</time>
      </trkpt>
      <trkpt lat="41.3675890" lon="-8.7614470">
        <ele>6.9</ele>
        <time>2021-05-16T12:57:37Z</time>
      </trkpt>
      <trkpt lat="41.3676030" lon="-8.7614520">
        <ele>6.9</ele>
        <time>2021-05-16T12:57:38Z</time>
      </trkpt>
      <trkpt lat="41.3676150" lon="-8.7614520">
        <ele>6.9</ele>
        <time>2021-05-16T12:57:39Z</time>
      </trkpt>
      <trkpt lat="41.3676210" lon="-8.7614510">
        <ele>6.9</ele>
        <time>2021-05-16T12:57:40Z</time>
      </trkpt>
      <trkpt lat="41.3676400" lon="-8.7614550">
        <ele>6.9</ele>
        <time>2021-05-16T12:57:41Z</time>
      </trkpt>
      <trkpt lat="41.3676500" lon="-8.7614550">
        <ele>6.9</ele>
        <time>2021-05-16T12:57:42Z</time>
      </trkpt>
      <trkpt lat="41.3676590" lon="-8.7614550">
        <ele>6.9</ele>
        <time>2021-05-16T12:57:43Z</time>
      </trkpt>
      <trkpt lat="41.3676680" lon="-8.7614530">
        <ele>6.9</ele>
        <time>2021-05-16T12:57:44Z</time>
      </trkpt>
      <trkpt lat="41.3676870" lon="-8.7614510">
        <ele>6.9</ele>
        <time>2021-05-16T12:57:45Z</time>
      </trkpt>
      <trkpt lat="41.3677060" lon="-8.7614500">
        <ele>6.9</ele>
        <time>2021-05-16T12:57:46Z</time>
      </trkpt>
      <trkpt lat="41.3677170" lon="-8.7614500">
        <ele>6.9</ele>
        <time>2021-05-16T12:57:47Z</time>
      </trkpt>
      <trkpt lat="41.3677270" lon="-8.7614490">
        <ele>6.9</ele>
        <time>2021-05-16T12:57:48Z</time>
      </trkpt>
      <trkpt lat="41.3677390" lon="-8.7614550">
        <ele>6.9</ele>
        <time>2021-05-16T12:57:49Z</time>
      </trkpt>
      <trkpt lat="41.3677450" lon="-8.7614560">
        <ele>6.9</ele>
        <time>2021-05-16T12:57:50Z</time>
      </trkpt>
      <trkpt lat="41.3677620" lon="-8.7614520">
        <ele>6.9</ele>
        <time>2021-05-16T12:57:51Z</time>
      </trkpt>
      <trkpt lat="41.3677740" lon="-8.7614560">
        <ele>6.9</ele>
        <time>2021-05-16T12:57:52Z</time>
      </trkpt>
      <trkpt lat="41.3677880" lon="-8.7614620">
        <ele>6.9</ele>
        <time>2021-05-16T12:57:53Z</time>
      </trkpt>
      <trkpt lat="41.3678010" lon="-8.7614680">
        <ele>6.9</ele>
        <time>2021-05-16T12:57:54Z</time>
      </trkpt>
      <trkpt lat="41.3678180" lon="-8.7614630">
        <ele>6.9</ele>
        <time>2021-05-16T12:57:55Z</time>
      </trkpt>
      <trkpt lat="41.3678250" lon="-8.7614600">
        <ele>6.9</ele>
        <time>2021-05-16T12:57:56Z</time>
      </trkpt>
      <trkpt lat="41.3678330" lon="-8.7614650">
        <ele>6.9</ele>
        <time>2021-05-16T12:57:57Z</time>
      </trkpt>
      <trkpt lat="41.3678430" lon="-8.7614660">
        <ele>6.9</ele>
        <time>2021-05-16T12:57:58Z</time>
      </trkpt>
      <trkpt lat="41.3678530" lon="-8.7614710">
        <ele>6.9</ele>
        <time>2021-05-16T12:57:59Z</time>
      </trkpt>
      <trkpt lat="41.3678700" lon="-8.7614720">
        <ele>6.9</ele>
        <time>2021-05-16T12:58:00Z</time>
      </trkpt>
      <trkpt lat="41.3678840" lon="-8.7614700">
        <ele>6.9</ele>
        <time>2021-05-16T12:58:01Z</time>
      </trkpt>
      <trkpt lat="41.3678980" lon="-8.7614730">
        <ele>6.9</ele>
        <time>2021-05-16T12:58:02Z</time>
      </trkpt>
      <trkpt lat="41.3679160" lon="-8.7614750">
        <ele>6.9</ele>
        <time>2021-05-16T12:58:03Z</time>
      </trkpt>
      <trkpt lat="41.3679470" lon="-8.7614690">
        <ele>6.9</ele>
        <time>2021-05-16T12:58:04Z</time>
      </trkpt>
      <trkpt lat="41.3679550" lon="-8.7614670">
        <ele>6.9</ele>
        <time>2021-05-16T12:58:05Z</time>
      </trkpt>
      <trkpt lat="41.3679820" lon="-8.7614550">
        <ele>6.9</ele>
        <time>2021-05-16T12:58:06Z</time>
      </trkpt>
      <trkpt lat="41.3679910" lon="-8.7614500">
        <ele>6.9</ele>
        <time>2021-05-16T12:58:07Z</time>
      </trkpt>
      <trkpt lat="41.3680060" lon="-8.7614500">
        <ele>6.9</ele>
        <time>2021-05-16T12:58:08Z</time>
      </trkpt>
      <trkpt lat="41.3680200" lon="-8.7614470">
        <ele>6.9</ele>
        <time>2021-05-16T12:58:09Z</time>
      </trkpt>
      <trkpt lat="41.3680340" lon="-8.7614490">
        <ele>6.9</ele>
        <time>2021-05-16T12:58:10Z</time>
      </trkpt>
      <trkpt lat="41.3680480" lon="-8.7614520">
        <ele>6.9</ele>
        <time>2021-05-16T12:58:11Z</time>
      </trkpt>
      <trkpt lat="41.3680610" lon="-8.7614510">
        <ele>6.9</ele>
        <time>2021-05-16T12:58:12Z</time>
      </trkpt>
      <trkpt lat="41.3680750" lon="-8.7614510">
        <ele>6.9</ele>
        <time>2021-05-16T12:58:13Z</time>
      </trkpt>
      <trkpt lat="41.3680880" lon="-8.7614520">
        <ele>6.9</ele>
        <time>2021-05-16T12:58:14Z</time>
      </trkpt>
      <trkpt lat="41.3681030" lon="-8.7614520">
        <ele>6.9</ele>
        <time>2021-05-16T12:58:15Z</time>
      </trkpt>
      <trkpt lat="41.3681180" lon="-8.7614530">
        <ele>6.9</ele>
        <time>2021-05-16T12:58:16Z</time>
      </trkpt>
      <trkpt lat="41.3681320" lon="-8.7614530">
        <ele>6.9</ele>
        <time>2021-05-16T12:58:17Z</time>
      </trkpt>
      <trkpt lat="41.3681540" lon="-8.7614530">
        <ele>6.9</ele>
        <time>2021-05-16T12:58:18Z</time>
      </trkpt>
      <trkpt lat="41.3681620" lon="-8.7614520">
        <ele>6.9</ele>
        <time>2021-05-16T12:58:19Z</time>
      </trkpt>
      <trkpt lat="41.3681710" lon="-8.7614500">
        <ele>6.9</ele>
        <time>2021-05-16T12:58:20Z</time>
      </trkpt>
      <trkpt lat="41.3681810" lon="-8.7614480">
        <ele>6.9</ele>
        <time>2021-05-16T12:58:21Z</time>
      </trkpt>
      <trkpt lat="41.3681910" lon="-8.7614460">
        <ele>6.9</ele>
        <time>2021-05-16T12:58:23Z</time>
      </trkpt>
      <trkpt lat="41.3682010" lon="-8.7614450">
        <ele>6.9</ele>
        <time>2021-05-16T12:58:24Z</time>
      </trkpt>
      <trkpt lat="41.3682120" lon="-8.7614510">
        <ele>6.9</ele>
        <time>2021-05-16T12:58:25Z</time>
      </trkpt>
      <trkpt lat="41.3682200" lon="-8.7614520">
        <ele>6.9</ele>
        <time>2021-05-16T12:58:26Z</time>
      </trkpt>
      <trkpt lat="41.3682310" lon="-8.7614610">
        <ele>7.0</ele>
        <time>2021-05-16T12:58:27Z</time>
      </trkpt>
      <trkpt lat="41.3682410" lon="-8.7614610">
        <ele>7.0</ele>
        <time>2021-05-16T12:58:28Z</time>
      </trkpt>
      <trkpt lat="41.3682500" lon="-8.7614640">
        <ele>7.0</ele>
        <time>2021-05-16T12:58:29Z</time>
      </trkpt>
      <trkpt lat="41.3682530" lon="-8.7614670">
        <ele>7.0</ele>
        <time>2021-05-16T12:58:30Z</time>
      </trkpt>
      <trkpt lat="41.3682590" lon="-8.7614760">
        <ele>7.0</ele>
        <time>2021-05-16T12:58:31Z</time>
      </trkpt>
      <trkpt lat="41.3682820" lon="-8.7614870">
        <ele>7.0</ele>
        <time>2021-05-16T12:58:32Z</time>
      </trkpt>
      <trkpt lat="41.3682880" lon="-8.7614900">
        <ele>7.0</ele>
        <time>2021-05-16T12:58:33Z</time>
      </trkpt>
      <trkpt lat="41.3682950" lon="-8.7614930">
        <ele>7.0</ele>
        <time>2021-05-16T12:58:34Z</time>
      </trkpt>
      <trkpt lat="41.3683120" lon="-8.7614850">
        <ele>7.0</ele>
        <time>2021-05-16T12:58:35Z</time>
      </trkpt>
      <trkpt lat="41.3683240" lon="-8.7614850">
        <ele>7.0</ele>
        <time>2021-05-16T12:58:36Z</time>
      </trkpt>
      <trkpt lat="41.3683420" lon="-8.7614860">
        <ele>7.1</ele>
        <time>2021-05-16T12:58:37Z</time>
      </trkpt>
      <trkpt lat="41.3683520" lon="-8.7614870">
        <ele>7.1</ele>
        <time>2021-05-16T12:58:38Z</time>
      </trkpt>
      <trkpt lat="41.3683610" lon="-8.7614880">
        <ele>7.1</ele>
        <time>2021-05-16T12:58:39Z</time>
      </trkpt>
      <trkpt lat="41.3683740" lon="-8.7614910">
        <ele>7.1</ele>
        <time>2021-05-16T12:58:40Z</time>
      </trkpt>
      <trkpt lat="41.3683880" lon="-8.7614910">
        <ele>7.1</ele>
        <time>2021-05-16T12:58:41Z</time>
      </trkpt>
      <trkpt lat="41.3683980" lon="-8.7614930">
        <ele>7.1</ele>
        <time>2021-05-16T12:58:42Z</time>
      </trkpt>
      <trkpt lat="41.3684090" lon="-8.7614960">
        <ele>7.1</ele>
        <time>2021-05-16T12:58:43Z</time>
      </trkpt>
      <trkpt lat="41.3684200" lon="-8.7614950">
        <ele>7.1</ele>
        <time>2021-05-16T12:58:44Z</time>
      </trkpt>
      <trkpt lat="41.3684340" lon="-8.7614920">
        <ele>7.2</ele>
        <time>2021-05-16T12:58:45Z</time>
      </trkpt>
      <trkpt lat="41.3684430" lon="-8.7614890">
        <ele>7.2</ele>
        <time>2021-05-16T12:58:46Z</time>
      </trkpt>
      <trkpt lat="41.3684550" lon="-8.7614870">
        <ele>7.2</ele>
        <time>2021-05-16T12:58:47Z</time>
      </trkpt>
      <trkpt lat="41.3684640" lon="-8.7614890">
        <ele>7.2</ele>
        <time>2021-05-16T12:58:48Z</time>
      </trkpt>
      <trkpt lat="41.3684790" lon="-8.7614810">
        <ele>7.2</ele>
        <time>2021-05-16T12:58:49Z</time>
      </trkpt>
      <trkpt lat="41.3684910" lon="-8.7614810">
        <ele>7.2</ele>
        <time>2021-05-16T12:58:50Z</time>
      </trkpt>
      <trkpt lat="41.3685090" lon="-8.7614780">
        <ele>7.2</ele>
        <time>2021-05-16T12:58:51Z</time>
      </trkpt>
      <trkpt lat="41.3685190" lon="-8.7614740">
        <ele>7.3</ele>
        <time>2021-05-16T12:58:52Z</time>
      </trkpt>
      <trkpt lat="41.3685470" lon="-8.7614670">
        <ele>7.3</ele>
        <time>2021-05-16T12:58:53Z</time>
      </trkpt>
      <trkpt lat="41.3685560" lon="-8.7614650">
        <ele>7.3</ele>
        <time>2021-05-16T12:58:54Z</time>
      </trkpt>
      <trkpt lat="41.3685720" lon="-8.7614590">
        <ele>7.3</ele>
        <time>2021-05-16T12:58:55Z</time>
      </trkpt>
      <trkpt lat="41.3685840" lon="-8.7614570">
        <ele>7.3</ele>
        <time>2021-05-16T12:58:56Z</time>
      </trkpt>
      <trkpt lat="41.3686050" lon="-8.7614660">
        <ele>7.3</ele>
        <time>2021-05-16T12:58:57Z</time>
      </trkpt>
      <trkpt lat="41.3686130" lon="-8.7614670">
        <ele>7.3</ele>
        <time>2021-05-16T12:58:58Z</time>
      </trkpt>
      <trkpt lat="41.3686220" lon="-8.7614670">
        <ele>7.3</ele>
        <time>2021-05-16T12:58:59Z</time>
      </trkpt>
      <trkpt lat="41.3686440" lon="-8.7614670">
        <ele>7.4</ele>
        <time>2021-05-16T12:59:00Z</time>
      </trkpt>
      <trkpt lat="41.3686520" lon="-8.7614660">
        <ele>7.4</ele>
        <time>2021-05-16T12:59:01Z</time>
      </trkpt>
      <trkpt lat="41.3686590" lon="-8.7614640">
        <ele>7.4</ele>
        <time>2021-05-16T12:59:02Z</time>
      </trkpt>
      <trkpt lat="41.3686770" lon="-8.7614570">
        <ele>7.4</ele>
        <time>2021-05-16T12:59:03Z</time>
      </trkpt>
      <trkpt lat="41.3686880" lon="-8.7614600">
        <ele>7.4</ele>
        <time>2021-05-16T12:59:04Z</time>
      </trkpt>
      <trkpt lat="41.3687030" lon="-8.7614670">
        <ele>7.4</ele>
        <time>2021-05-16T12:59:05Z</time>
      </trkpt>
      <trkpt lat="41.3687180" lon="-8.7614610">
        <ele>7.5</ele>
        <time>2021-05-16T12:59:06Z</time>
      </trkpt>
      <trkpt lat="41.3687320" lon="-8.7614640">
        <ele>7.5</ele>
        <time>2021-05-16T12:59:07Z</time>
      </trkpt>
      <trkpt lat="41.3687480" lon="-8.7614640">
        <ele>7.5</ele>
        <time>2021-05-16T12:59:08Z</time>
      </trkpt>
      <trkpt lat="41.3687580" lon="-8.7614690">
        <ele>7.5</ele>
        <time>2021-05-16T12:59:09Z</time>
      </trkpt>
      <trkpt lat="41.3687700" lon="-8.7614700">
        <ele>7.5</ele>
        <time>2021-05-16T12:59:10Z</time>
      </trkpt>
      <trkpt lat="41.3687810" lon="-8.7614770">
        <ele>7.6</ele>
        <time>2021-05-16T12:59:11Z</time>
      </trkpt>
      <trkpt lat="41.3687960" lon="-8.7614830">
        <ele>7.6</ele>
        <time>2021-05-16T12:59:12Z</time>
      </trkpt>
      <trkpt lat="41.3688030" lon="-8.7614870">
        <ele>7.6</ele>
        <time>2021-05-16T12:59:13Z</time>
      </trkpt>
      <trkpt lat="41.3688170" lon="-8.7614820">
        <ele>7.6</ele>
        <time>2021-05-16T12:59:14Z</time>
      </trkpt>
      <trkpt lat="41.3688310" lon="-8.7614800">
        <ele>7.6</ele>
        <time>2021-05-16T12:59:15Z</time>
      </trkpt>
      <trkpt lat="41.3688440" lon="-8.7614880">
        <ele>7.6</ele>
        <time>2021-05-16T12:59:16Z</time>
      </trkpt>
      <trkpt lat="41.3688660" lon="-8.7614930">
        <ele>7.7</ele>
        <time>2021-05-16T12:59:17Z</time>
      </trkpt>
      <trkpt lat="41.3688750" lon="-8.7614920">
        <ele>7.7</ele>
        <time>2021-05-16T12:59:18Z</time>
      </trkpt>
      <trkpt lat="41.3688840" lon="-8.7614900">
        <ele>7.7</ele>
        <time>2021-05-16T12:59:19Z</time>
      </trkpt>
      <trkpt lat="41.3689020" lon="-8.7614870">
        <ele>7.7</ele>
        <time>2021-05-16T12:59:20Z</time>
      </trkpt>
      <trkpt lat="41.3689290" lon="-8.7614830">
        <ele>7.8</ele>
        <time>2021-05-16T12:59:21Z</time>
      </trkpt>
      <trkpt lat="41.3689490" lon="-8.7614810">
        <ele>7.8</ele>
        <time>2021-05-16T12:59:22Z</time>
      </trkpt>
      <trkpt lat="41.3689560" lon="-8.7614820">
        <ele>7.8</ele>
        <time>2021-05-16T12:59:23Z</time>
      </trkpt>
      <trkpt lat="41.3689880" lon="-8.7614790">
        <ele>7.9</ele>
        <time>2021-05-16T12:59:24Z</time>
      </trkpt>
      <trkpt lat="41.3690000" lon="-8.7614750">
        <ele>7.9</ele>
        <time>2021-05-16T12:59:25Z</time>
      </trkpt>
      <trkpt lat="41.3690150" lon="-8.7614690">
        <ele>7.9</ele>
        <time>2021-05-16T12:59:26Z</time>
      </trkpt>
      <trkpt lat="41.3690320" lon="-8.7614650">
        <ele>7.9</ele>
        <time>2021-05-16T12:59:27Z</time>
      </trkpt>
      <trkpt lat="41.3690470" lon="-8.7614630">
        <ele>8.0</ele>
        <time>2021-05-16T12:59:28Z</time>
      </trkpt>
      <trkpt lat="41.3690590" lon="-8.7614620">
        <ele>8.0</ele>
        <time>2021-05-16T12:59:29Z</time>
      </trkpt>
      <trkpt lat="41.3690810" lon="-8.7614630">
        <ele>8.0</ele>
        <time>2021-05-16T12:59:30Z</time>
      </trkpt>
      <trkpt lat="41.3690900" lon="-8.7614630">
        <ele>8.0</ele>
        <time>2021-05-16T12:59:31Z</time>
      </trkpt>
      <trkpt lat="41.3691000" lon="-8.7614630">
        <ele>8.0</ele>
        <time>2021-05-16T12:59:32Z</time>
      </trkpt>
      <trkpt lat="41.3691140" lon="-8.7614660">
        <ele>8.1</ele>
        <time>2021-05-16T12:59:33Z</time>
      </trkpt>
      <trkpt lat="41.3691280" lon="-8.7614670">
        <ele>8.1</ele>
        <time>2021-05-16T12:59:34Z</time>
      </trkpt>
      <trkpt lat="41.3691430" lon="-8.7614700">
        <ele>8.1</ele>
        <time>2021-05-16T12:59:35Z</time>
      </trkpt>
      <trkpt lat="41.3691590" lon="-8.7614720">
        <ele>8.1</ele>
        <time>2021-05-16T12:59:36Z</time>
      </trkpt>
      <trkpt lat="41.3691760" lon="-8.7614720">
        <ele>8.1</ele>
        <time>2021-05-16T12:59:37Z</time>
      </trkpt>
      <trkpt lat="41.3691930" lon="-8.7614770">
        <ele>8.2</ele>
        <time>2021-05-16T12:59:38Z</time>
      </trkpt>
      <trkpt lat="41.3692090" lon="-8.7614720">
        <ele>8.2</ele>
        <time>2021-05-16T12:59:39Z</time>
      </trkpt>
      <trkpt lat="41.3692260" lon="-8.7614810">
        <ele>8.2</ele>
        <time>2021-05-16T12:59:40Z</time>
      </trkpt>
      <trkpt lat="41.3692410" lon="-8.7614800">
        <ele>8.2</ele>
        <time>2021-05-16T12:59:41Z</time>
      </trkpt>
      <trkpt lat="41.3692570" lon="-8.7614780">
        <ele>8.2</ele>
        <time>2021-05-16T12:59:42Z</time>
      </trkpt>
      <trkpt lat="41.3692720" lon="-8.7614850">
        <ele>8.3</ele>
        <time>2021-05-16T12:59:43Z</time>
      </trkpt>
      <trkpt lat="41.3692880" lon="-8.7614830">
        <ele>8.3</ele>
        <time>2021-05-16T12:59:44Z</time>
      </trkpt>
      <trkpt lat="41.3693020" lon="-8.7614820">
        <ele>8.3</ele>
        <time>2021-05-16T12:59:45Z</time>
      </trkpt>
      <trkpt lat="41.3693170" lon="-8.7614900">
        <ele>8.3</ele>
        <time>2021-05-16T12:59:46Z</time>
      </trkpt>
      <trkpt lat="41.3693320" lon="-8.7614900">
        <ele>8.3</ele>
        <time>2021-05-16T12:59:47Z</time>
      </trkpt>
      <trkpt lat="41.3693480" lon="-8.7614980">
        <ele>8.4</ele>
        <time>2021-05-16T12:59:48Z</time>
      </trkpt>
      <trkpt lat="41.3693700" lon="-8.7615040">
        <ele>8.4</ele>
        <time>2021-05-16T12:59:49Z</time>
      </trkpt>
      <trkpt lat="41.3693790" lon="-8.7615060">
        <ele>8.4</ele>
        <time>2021-05-16T12:59:50Z</time>
      </trkpt>
      <trkpt lat="41.3693880" lon="-8.7615070">
        <ele>8.4</ele>
        <time>2021-05-16T12:59:51Z</time>
      </trkpt>
      <trkpt lat="41.3694050" lon="-8.7615160">
        <ele>8.4</ele>
        <time>2021-05-16T12:59:52Z</time>
      </trkpt>
      <trkpt lat="41.3694190" lon="-8.7615080">
        <ele>8.4</ele>
        <time>2021-05-16T12:59:53Z</time>
      </trkpt>
      <trkpt lat="41.3694330" lon="-8.7615100">
        <ele>8.5</ele>
        <time>2021-05-16T12:59:54Z</time>
      </trkpt>
      <trkpt lat="41.3694470" lon="-8.7615090">
        <ele>8.5</ele>
        <time>2021-05-16T12:59:55Z</time>
      </trkpt>
      <trkpt lat="41.3694660" lon="-8.7615160">
        <ele>8.5</ele>
        <time>2021-05-16T12:59:56Z</time>
      </trkpt>
      <trkpt lat="41.3694750" lon="-8.7615180">
        <ele>8.5</ele>
        <time>2021-05-16T12:59:57Z</time>
      </trkpt>
      <trkpt lat="41.3694830" lon="-8.7615190">
        <ele>8.5</ele>
        <time>2021-05-16T12:59:58Z</time>
      </trkpt>
      <trkpt lat="41.3694950" lon="-8.7615250">
        <ele>8.5</ele>
        <time>2021-05-16T12:59:59Z</time>
      </trkpt>
      <trkpt lat="41.3695100" lon="-8.7615250">
        <ele>8.5</ele>
        <time>2021-05-16T13:00:00Z</time>
      </trkpt>
      <trkpt lat="41.3695230" lon="-8.7615280">
        <ele>8.5</ele>
        <time>2021-05-16T13:00:01Z</time>
      </trkpt>
      <trkpt lat="41.3695370" lon="-8.7615300">
        <ele>8.6</ele>
        <time>2021-05-16T13:00:02Z</time>
      </trkpt>
      <trkpt lat="41.3695580" lon="-8.7615240">
        <ele>8.6</ele>
        <time>2021-05-16T13:00:03Z</time>
      </trkpt>
      <trkpt lat="41.3695670" lon="-8.7615240">
        <ele>8.6</ele>
        <time>2021-05-16T13:00:04Z</time>
      </trkpt>
      <trkpt lat="41.3695750" lon="-8.7615230">
        <ele>8.6</ele>
        <time>2021-05-16T13:00:05Z</time>
      </trkpt>
      <trkpt lat="41.3695860" lon="-8.7615210">
        <ele>8.6</ele>
        <time>2021-05-16T13:00:06Z</time>
      </trkpt>
      <trkpt lat="41.3695970" lon="-8.7615260">
        <ele>8.6</ele>
        <time>2021-05-16T13:00:07Z</time>
      </trkpt>
      <trkpt lat="41.3696080" lon="-8.7615230">
        <ele>8.6</ele>
        <time>2021-05-16T13:00:08Z</time>
      </trkpt>
      <trkpt lat="41.3696110" lon="-8.7615260">
        <ele>8.6</ele>
        <time>2021-05-16T13:00:09Z</time>
      </trkpt>
      <trkpt lat="41.3696150" lon="-8.7615300">
        <ele>8.6</ele>
        <time>2021-05-16T13:00:10Z</time>
      </trkpt>
      <trkpt lat="41.3696250" lon="-8.7615300">
        <ele>8.6</ele>
        <time>2021-05-16T13:00:11Z</time>
      </trkpt>
      <trkpt lat="41.3696350" lon="-8.7615270">
        <ele>8.6</ele>
        <time>2021-05-16T13:00:12Z</time>
      </trkpt>
      <trkpt lat="41.3696390" lon="-8.7615240">
        <ele>8.6</ele>
        <time>2021-05-16T13:00:13Z</time>
      </trkpt>
      <trkpt lat="41.3696480" lon="-8.7615240">
        <ele>8.6</ele>
        <time>2021-05-16T13:00:14Z</time>
      </trkpt>
      <trkpt lat="41.3696540" lon="-8.7615210">
        <ele>8.6</ele>
        <time>2021-05-16T13:00:15Z</time>
      </trkpt>
      <trkpt lat="41.3696640" lon="-8.7615210">
        <ele>8.6</ele>
        <time>2021-05-16T13:00:16Z</time>
      </trkpt>
      <trkpt lat="41.3696760" lon="-8.7615270">
        <ele>8.6</ele>
        <time>2021-05-16T13:00:17Z</time>
      </trkpt>
      <trkpt lat="41.3696820" lon="-8.7615300">
        <ele>8.6</ele>
        <time>2021-05-16T13:00:18Z</time>
      </trkpt>
      <trkpt lat="41.3696880" lon="-8.7615320">
        <ele>8.6</ele>
        <time>2021-05-16T13:00:19Z</time>
      </trkpt>
      <trkpt lat="41.3696940" lon="-8.7615350">
        <ele>8.6</ele>
        <time>2021-05-16T13:00:20Z</time>
      </trkpt>
      <trkpt lat="41.3697000" lon="-8.7615380">
        <ele>8.6</ele>
        <time>2021-05-16T13:00:21Z</time>
      </trkpt>
      <trkpt lat="41.3697200" lon="-8.7615300">
        <ele>8.7</ele>
        <time>2021-05-16T13:00:22Z</time>
      </trkpt>
      <trkpt lat="41.3697280" lon="-8.7615240">
        <ele>8.7</ele>
        <time>2021-05-16T13:00:23Z</time>
      </trkpt>
      <trkpt lat="41.3697350" lon="-8.7615170">
        <ele>8.7</ele>
        <time>2021-05-16T13:00:24Z</time>
      </trkpt>
      <trkpt lat="41.3697580" lon="-8.7615180">
        <ele>8.7</ele>
        <time>2021-05-16T13:00:25Z</time>
      </trkpt>
      <trkpt lat="41.3697680" lon="-8.7615160">
        <ele>8.7</ele>
        <time>2021-05-16T13:00:26Z</time>
      </trkpt>
      <trkpt lat="41.3697780" lon="-8.7615130">
        <ele>8.7</ele>
        <time>2021-05-16T13:00:27Z</time>
      </trkpt>
      <trkpt lat="41.3697900" lon="-8.7615200">
        <ele>8.7</ele>
        <time>2021-05-16T13:00:28Z</time>
      </trkpt>
      <trkpt lat="41.3697940" lon="-8.7615170">
        <ele>8.7</ele>
        <time>2021-05-16T13:00:29Z</time>
      </trkpt>
      <trkpt lat="41.3697990" lon="-8.7615180">
        <ele>8.7</ele>
        <time>2021-05-16T13:00:30Z</time>
      </trkpt>
      <trkpt lat="41.3698120" lon="-8.7615220">
        <ele>8.7</ele>
        <time>2021-05-16T13:00:31Z</time>
      </trkpt>
      <trkpt lat="41.3698180" lon="-8.7615220">
        <ele>8.7</ele>
        <time>2021-05-16T13:00:32Z</time>
      </trkpt>
      <trkpt lat="41.3698310" lon="-8.7615190">
        <ele>8.7</ele>
        <time>2021-05-16T13:00:33Z</time>
      </trkpt>
      <trkpt lat="41.3698400" lon="-8.7615180">
        <ele>8.7</ele>
        <time>2021-05-16T13:00:34Z</time>
      </trkpt>
      <trkpt lat="41.3698490" lon="-8.7615020">
        <ele>8.7</ele>
        <time>2021-05-16T13:00:35Z</time>
      </trkpt>
      <trkpt lat="41.3698590" lon="-8.7614870">
        <ele>8.7</ele>
        <time>2021-05-16T13:00:36Z</time>
      </trkpt>
      <trkpt lat="41.3698820" lon="-8.7614900">
        <ele>8.7</ele>
        <time>2021-05-16T13:00:37Z</time>
      </trkpt>
      <trkpt lat="41.3698900" lon="-8.7614940">
        <ele>8.7</ele>
        <time>2021-05-16T13:00:38Z</time>
      </trkpt>
      <trkpt lat="41.3698990" lon="-8.7614970">
        <ele>8.7</ele>
        <time>2021-05-16T13:00:39Z</time>
      </trkpt>
      <trkpt lat="41.3699180" lon="-8.7615020">
        <ele>8.7</ele>
        <time>2021-05-16T13:00:40Z</time>
      </trkpt>
      <trkpt lat="41.3699280" lon="-8.7615060">
        <ele>8.7</ele>
        <time>2021-05-16T13:00:41Z</time>
      </trkpt>
      <trkpt lat="41.3699370" lon="-8.7615090">
        <ele>8.7</ele>
        <time>2021-05-16T13:00:42Z</time>
      </trkpt>
      <trkpt lat="41.3699490" lon="-8.7615140">
        <ele>8.7</ele>
        <time>2021-05-16T13:00:43Z</time>
      </trkpt>
      <trkpt lat="41.3699520" lon="-8.7615040">
        <ele>8.7</ele>
        <time>2021-05-16T13:00:44Z</time>
      </trkpt>
      <trkpt lat="41.3699560" lon="-8.7614930">
        <ele>8.7</ele>
        <time>2021-05-16T13:00:45Z</time>
      </trkpt>
      <trkpt lat="41.3699680" lon="-8.7614920">
        <ele>8.7</ele>
        <time>2021-05-16T13:00:46Z</time>
      </trkpt>
      <trkpt lat="41.3699820" lon="-8.7614990">
        <ele>8.7</ele>
        <time>2021-05-16T13:00:47Z</time>
      </trkpt>
      <trkpt lat="41.3699910" lon="-8.7614990">
        <ele>8.7</ele>
        <time>2021-05-16T13:00:48Z</time>
      </trkpt>
      <trkpt lat="41.3700050" lon="-8.7615030">
        <ele>8.8</ele>
        <time>2021-05-16T13:00:50Z</time>
      </trkpt>
      <trkpt lat="41.3700180" lon="-8.7615030">
        <ele>8.8</ele>
        <time>2021-05-16T13:00:51Z</time>
      </trkpt>
      <trkpt lat="41.3700330" lon="-8.7615010">
        <ele>8.8</ele>
        <time>2021-05-16T13:00:52Z</time>
      </trkpt>
      <trkpt lat="41.3700510" lon="-8.7615020">
        <ele>8.8</ele>
        <time>2021-05-16T13:00:53Z</time>
      </trkpt>
      <trkpt lat="41.3700700" lon="-8.7615010">
        <ele>8.8</ele>
        <time>2021-05-16T13:00:54Z</time>
      </trkpt>
      <trkpt lat="41.3700890" lon="-8.7615040">
        <ele>8.8</ele>
        <time>2021-05-16T13:00:55Z</time>
      </trkpt>
      <trkpt lat="41.3701010" lon="-8.7615100">
        <ele>8.8</ele>
        <time>2021-05-16T13:00:56Z</time>
      </trkpt>
      <trkpt lat="41.3701300" lon="-8.7614970">
        <ele>8.8</ele>
        <time>2021-05-16T13:00:57Z</time>
      </trkpt>
      <trkpt lat="41.3701400" lon="-8.7614970">
        <ele>8.8</ele>
        <time>2021-05-16T13:00:58Z</time>
      </trkpt>
      <trkpt lat="41.3701530" lon="-8.7614970">
        <ele>8.8</ele>
        <time>2021-05-16T13:00:59Z</time>
      </trkpt>
      <trkpt lat="41.3701690" lon="-8.7614870">
        <ele>8.8</ele>
        <time>2021-05-16T13:01:00Z</time>
      </trkpt>
      <trkpt lat="41.3701900" lon="-8.7614900">
        <ele>8.8</ele>
        <time>2021-05-16T13:01:01Z</time>
      </trkpt>
      <trkpt lat="41.3701980" lon="-8.7614920">
        <ele>8.8</ele>
        <time>2021-05-16T13:01:02Z</time>
      </trkpt>
      <trkpt lat="41.3702050" lon="-8.7614950">
        <ele>8.8</ele>
        <time>2021-05-16T13:01:03Z</time>
      </trkpt>
      <trkpt lat="41.3702120" lon="-8.7614960">
        <ele>8.8</ele>
        <time>2021-05-16T13:01:04Z</time>
      </trkpt>
      <trkpt lat="41.3702150" lon="-8.7615020">
        <ele>8.8</ele>
        <time>2021-05-16T13:01:05Z</time>
      </trkpt>
      <trkpt lat="41.3702310" lon="-8.7615020">
        <ele>8.8</ele>
        <time>2021-05-16T13:01:06Z</time>
      </trkpt>
      <trkpt lat="41.3702410" lon="-8.7615030">
        <ele>8.9</ele>
        <time>2021-05-16T13:01:07Z</time>
      </trkpt>
      <trkpt lat="41.3702560" lon="-8.7614900">
        <ele>8.9</ele>
        <time>2021-05-16T13:01:08Z</time>
      </trkpt>
      <trkpt lat="41.3702690" lon="-8.7614770">
        <ele>8.9</ele>
        <time>2021-05-16T13:01:09Z</time>
      </trkpt>
      <trkpt lat="41.3702940" lon="-8.7614580">
        <ele>8.9</ele>
        <time>2021-05-16T13:01:10Z</time>
      </trkpt>
      <trkpt lat="41.3703050" lon="-8.7614550">
        <ele>8.9</ele>
        <time>2021-05-16T13:01:11Z</time>
      </trkpt>
      <trkpt lat="41.3703280" lon="-8.7614470">
        <ele>8.9</ele>
        <time>2021-05-16T13:01:12Z</time>
      </trkpt>
      <trkpt lat="41.3703390" lon="-8.7614460">
        <ele>8.9</ele>
        <time>2021-05-16T13:01:13Z</time>
      </trkpt>
      <trkpt lat="41.3703510" lon="-8.7614450">
        <ele>8.9</ele>
        <time>2021-05-16T13:01:14Z</time>
      </trkpt>
      <trkpt lat="41.3703650" lon="-8.7614490">
        <ele>8.9</ele>
        <time>2021-05-16T13:01:15Z</time>
      </trkpt>
      <trkpt lat="41.3703840" lon="-8.7614370">
        <ele>8.9</ele>
        <time>2021-05-16T13:01:16Z</time>
      </trkpt>
      <trkpt lat="41.3703990" lon="-8.7614410">
        <ele>8.9</ele>
        <time>2021-05-16T13:01:17Z</time>
      </trkpt>
      <trkpt lat="41.3704150" lon="-8.7614360">
        <ele>8.9</ele>
        <time>2021-05-16T13:01:18Z</time>
      </trkpt>
      <trkpt lat="41.3704300" lon="-8.7614310">
        <ele>8.9</ele>
        <time>2021-05-16T13:01:19Z</time>
      </trkpt>
      <trkpt lat="41.3704470" lon="-8.7614280">
        <ele>8.9</ele>
        <time>2021-05-16T13:01:20Z</time>
      </trkpt>
      <trkpt lat="41.3704650" lon="-8.7614220">
        <ele>8.9</ele>
        <time>2021-05-16T13:01:21Z</time>
      </trkpt>
      <trkpt lat="41.3704800" lon="-8.7614160">
        <ele>8.9</ele>
        <time>2021-05-16T13:01:22Z</time>
      </trkpt>
      <trkpt lat="41.3704950" lon="-8.7614120">
        <ele>8.9</ele>
        <time>2021-05-16T13:01:23Z</time>
      </trkpt>
      <trkpt lat="41.3705120" lon="-8.7614070">
        <ele>8.9</ele>
        <time>2021-05-16T13:01:24Z</time>
      </trkpt>
      <trkpt lat="41.3705280" lon="-8.7614040">
        <ele>8.9</ele>
        <time>2021-05-16T13:01:25Z</time>
      </trkpt>
      <trkpt lat="41.3705450" lon="-8.7614100">
        <ele>8.9</ele>
        <time>2021-05-16T13:01:26Z</time>
      </trkpt>
      <trkpt lat="41.3705750" lon="-8.7614110">
        <ele>9.0</ele>
        <time>2021-05-16T13:01:27Z</time>
      </trkpt>
      <trkpt lat="41.3705990" lon="-8.7614160">
        <ele>9.0</ele>
        <time>2021-05-16T13:01:28Z</time>
      </trkpt>
      <trkpt lat="41.3706070" lon="-8.7614180">
        <ele>9.0</ele>
        <time>2021-05-16T13:01:29Z</time>
      </trkpt>
      <trkpt lat="41.3706160" lon="-8.7614200">
        <ele>9.0</ele>
        <time>2021-05-16T13:01:30Z</time>
      </trkpt>
      <trkpt lat="41.3706210" lon="-8.7614240">
        <ele>9.0</ele>
        <time>2021-05-16T13:01:31Z</time>
      </trkpt>
      <trkpt lat="41.3706340" lon="-8.7614270">
        <ele>9.0</ele>
        <time>2021-05-16T13:01:32Z</time>
      </trkpt>
      <trkpt lat="41.3706420" lon="-8.7614300">
        <ele>9.0</ele>
        <time>2021-05-16T13:01:33Z</time>
      </trkpt>
      <trkpt lat="41.3706660" lon="-8.7614260">
        <ele>9.0</ele>
        <time>2021-05-16T13:01:34Z</time>
      </trkpt>
      <trkpt lat="41.3706740" lon="-8.7614240">
        <ele>9.0</ele>
        <time>2021-05-16T13:01:35Z</time>
      </trkpt>
      <trkpt lat="41.3706810" lon="-8.7614210">
        <ele>9.0</ele>
        <time>2021-05-16T13:01:36Z</time>
      </trkpt>
      <trkpt lat="41.3706920" lon="-8.7614210">
        <ele>9.0</ele>
        <time>2021-05-16T13:01:37Z</time>
      </trkpt>
      <trkpt lat="41.3707040" lon="-8.7614250">
        <ele>9.0</ele>
        <time>2021-05-16T13:01:38Z</time>
      </trkpt>
      <trkpt lat="41.3707150" lon="-8.7614280">
        <ele>9.0</ele>
        <time>2021-05-16T13:01:39Z</time>
      </trkpt>
      <trkpt lat="41.3707310" lon="-8.7614300">
        <ele>9.0</ele>
        <time>2021-05-16T13:01:40Z</time>
      </trkpt>
      <trkpt lat="41.3707430" lon="-8.7614330">
        <ele>9.0</ele>
        <time>2021-05-16T13:01:41Z</time>
      </trkpt>
      <trkpt lat="41.3707550" lon="-8.7614280">
        <ele>9.0</ele>
        <time>2021-05-16T13:01:42Z</time>
      </trkpt>
      <trkpt lat="41.3707700" lon="-8.7614240">
        <ele>9.0</ele>
        <time>2021-05-16T13:01:43Z</time>
      </trkpt>
      <trkpt lat="41.3707840" lon="-8.7614300">
        <ele>9.0</ele>
        <time>2021-05-16T13:01:44Z</time>
      </trkpt>
      <trkpt lat="41.3707940" lon="-8.7614300">
        <ele>9.0</ele>
        <time>2021-05-16T13:01:45Z</time>
      </trkpt>
      <trkpt lat="41.3708030" lon="-8.7614340">
        <ele>9.1</ele>
        <time>2021-05-16T13:01:46Z</time>
      </trkpt>
      <trkpt lat="41.3708260" lon="-8.7614350">
        <ele>9.1</ele>
        <time>2021-05-16T13:01:47Z</time>
      </trkpt>
      <trkpt lat="41.3708380" lon="-8.7614370">
        <ele>9.1</ele>
        <time>2021-05-16T13:01:48Z</time>
      </trkpt>
      <trkpt lat="41.3708490" lon="-8.7614380">
        <ele>9.1</ele>
        <time>2021-05-16T13:01:49Z</time>
      </trkpt>
      <trkpt lat="41.3708600" lon="-8.7614430">
        <ele>9.1</ele>
        <time>2021-05-16T13:01:50Z</time>
      </trkpt>
      <trkpt lat="41.3708760" lon="-8.7614440">
        <ele>9.1</ele>
        <time>2021-05-16T13:01:51Z</time>
      </trkpt>
      <trkpt lat="41.3708900" lon="-8.7614450">
        <ele>9.1</ele>
        <time>2021-05-16T13:01:52Z</time>
      </trkpt>
      <trkpt lat="41.3709000" lon="-8.7614430">
        <ele>9.1</ele>
        <time>2021-05-16T13:01:53Z</time>
      </trkpt>
      <trkpt lat="41.3709110" lon="-8.7614470">
        <ele>9.1</ele>
        <time>2021-05-16T13:01:54Z</time>
      </trkpt>
      <trkpt lat="41.3709310" lon="-8.7614490">
        <ele>9.1</ele>
        <time>2021-05-16T13:01:55Z</time>
      </trkpt>
      <trkpt lat="41.3709410" lon="-8.7614480">
        <ele>9.1</ele>
        <time>2021-05-16T13:01:56Z</time>
      </trkpt>
      <trkpt lat="41.3709500" lon="-8.7614470">
        <ele>9.1</ele>
        <time>2021-05-16T13:01:57Z</time>
      </trkpt>
      <trkpt lat="41.3709700" lon="-8.7614450">
        <ele>9.1</ele>
        <time>2021-05-16T13:01:58Z</time>
      </trkpt>
      <trkpt lat="41.3709780" lon="-8.7614460">
        <ele>9.1</ele>
        <time>2021-05-16T13:01:59Z</time>
      </trkpt>
      <trkpt lat="41.3709870" lon="-8.7614470">
        <ele>9.1</ele>
        <time>2021-05-16T13:02:00Z</time>
      </trkpt>
      <trkpt lat="41.3710150" lon="-8.7614580">
        <ele>9.1</ele>
        <time>2021-05-16T13:02:01Z</time>
      </trkpt>
      <trkpt lat="41.3710220" lon="-8.7614620">
        <ele>9.1</ele>
        <time>2021-05-16T13:02:02Z</time>
      </trkpt>
      <trkpt lat="41.3710370" lon="-8.7614640">
        <ele>9.1</ele>
        <time>2021-05-16T13:02:03Z</time>
      </trkpt>
      <trkpt lat="41.3710540" lon="-8.7614560">
        <ele>9.1</ele>
        <time>2021-05-16T13:02:04Z</time>
      </trkpt>
      <trkpt lat="41.3710700" lon="-8.7614590">
        <ele>9.1</ele>
        <time>2021-05-16T13:02:05Z</time>
      </trkpt>
      <trkpt lat="41.3710880" lon="-8.7614550">
        <ele>9.1</ele>
        <time>2021-05-16T13:02:06Z</time>
      </trkpt>
      <trkpt lat="41.3711150" lon="-8.7614510">
        <ele>9.1</ele>
        <time>2021-05-16T13:02:07Z</time>
      </trkpt>
      <trkpt lat="41.3711240" lon="-8.7614450">
        <ele>9.1</ele>
        <time>2021-05-16T13:02:08Z</time>
      </trkpt>
      <trkpt lat="41.3711410" lon="-8.7614460">
        <ele>9.1</ele>
        <time>2021-05-16T13:02:09Z</time>
      </trkpt>
      <trkpt lat="41.3711550" lon="-8.7614470">
        <ele>9.1</ele>
        <time>2021-05-16T13:02:10Z</time>
      </trkpt>
      <trkpt lat="41.3711710" lon="-8.7614490">
        <ele>9.1</ele>
        <time>2021-05-16T13:02:11Z</time>
      </trkpt>
      <trkpt lat="41.3711880" lon="-8.7614460">
        <ele>9.1</ele>
        <time>2021-05-16T13:02:12Z</time>
      </trkpt>
      <trkpt lat="41.3712050" lon="-8.7614410">
        <ele>9.1</ele>
        <time>2021-05-16T13:02:13Z</time>
      </trkpt>
      <trkpt lat="41.3712190" lon="-8.7614400">
        <ele>9.1</ele>
        <time>2021-05-16T13:02:14Z</time>
      </trkpt>
      <trkpt lat="41.3712410" lon="-8.7614420">
        <ele>9.1</ele>
        <time>2021-05-16T13:02:15Z</time>
      </trkpt>
      <trkpt lat="41.3712480" lon="-8.7614410">
        <ele>9.1</ele>
        <time>2021-05-16T13:02:16Z</time>
      </trkpt>
      <trkpt lat="41.3712560" lon="-8.7614390">
        <ele>9.1</ele>
        <time>2021-05-16T13:02:17Z</time>
      </trkpt>
      <trkpt lat="41.3712690" lon="-8.7614360">
        <ele>9.1</ele>
        <time>2021-05-16T13:02:18Z</time>
      </trkpt>
      <trkpt lat="41.3712810" lon="-8.7614350">
        <ele>9.1</ele>
        <time>2021-05-16T13:02:19Z</time>
      </trkpt>
      <trkpt lat="41.3712910" lon="-8.7614240">
        <ele>9.1</ele>
        <time>2021-05-16T13:02:20Z</time>
      </trkpt>
      <trkpt lat="41.3712960" lon="-8.7614210">
        <ele>9.1</ele>
        <time>2021-05-16T13:02:21Z</time>
      </trkpt>
      <trkpt lat="41.3713100" lon="-8.7614170">
        <ele>9.1</ele>
        <time>2021-05-16T13:02:22Z</time>
      </trkpt>
      <trkpt lat="41.3713180" lon="-8.7614170">
        <ele>9.1</ele>
        <time>2021-05-16T13:02:23Z</time>
      </trkpt>
      <trkpt lat="41.3713290" lon="-8.7614220">
        <ele>9.1</ele>
        <time>2021-05-16T13:02:24Z</time>
      </trkpt>
      <trkpt lat="41.3713410" lon="-8.7614250">
        <ele>9.1</ele>
        <time>2021-05-16T13:02:25Z</time>
      </trkpt>
      <trkpt lat="41.3713480" lon="-8.7614290">
        <ele>9.1</ele>
        <time>2021-05-16T13:02:26Z</time>
      </trkpt>
      <trkpt lat="41.3713610" lon="-8.7614310">
        <ele>9.1</ele>
        <time>2021-05-16T13:02:27Z</time>
      </trkpt>
      <trkpt lat="41.3713770" lon="-8.7614360">
        <ele>9.1</ele>
        <time>2021-05-16T13:02:28Z</time>
      </trkpt>
      <trkpt lat="41.3713950" lon="-8.7614360">
        <ele>9.1</ele>
        <time>2021-05-16T13:02:29Z</time>
      </trkpt>
      <trkpt lat="41.3714020" lon="-8.7614350">
        <ele>9.1</ele>
        <time>2021-05-16T13:02:30Z</time>
      </trkpt>
      <trkpt lat="41.3714080" lon="-8.7614350">
        <ele>9.1</ele>
        <time>2021-05-16T13:02:31Z</time>
      </trkpt>
      <trkpt lat="41.3714140" lon="-8.7614340">
        <ele>9.1</ele>
        <time>2021-05-16T13:02:32Z</time>
      </trkpt>
      <trkpt lat="41.3714270" lon="-8.7614290">
        <ele>9.1</ele>
        <time>2021-05-16T13:02:33Z</time>
      </trkpt>
      <trkpt lat="41.3714440" lon="-8.7614310">
        <ele>9.1</ele>
        <time>2021-05-16T13:02:34Z</time>
      </trkpt>
      <trkpt lat="41.3714690" lon="-8.7614380">
        <ele>9.1</ele>
        <time>2021-05-16T13:02:35Z</time>
      </trkpt>
      <trkpt lat="41.3714810" lon="-8.7614430">
        <ele>9.1</ele>
        <time>2021-05-16T13:02:36Z</time>
      </trkpt>
      <trkpt lat="41.3714900" lon="-8.7614380">
        <ele>9.1</ele>
        <time>2021-05-16T13:02:37Z</time>
      </trkpt>
      <trkpt lat="41.3715030" lon="-8.7614340">
        <ele>9.2</ele>
        <time>2021-05-16T13:02:38Z</time>
      </trkpt>
      <trkpt lat="41.3715090" lon="-8.7614380">
        <ele>9.2</ele>
        <time>2021-05-16T13:02:39Z</time>
      </trkpt>
      <trkpt lat="41.3715300" lon="-8.7614330">
        <ele>9.2</ele>
        <time>2021-05-16T13:02:40Z</time>
      </trkpt>
      <trkpt lat="41.3715410" lon="-8.7614370">
        <ele>9.2</ele>
        <time>2021-05-16T13:02:41Z</time>
      </trkpt>
      <trkpt lat="41.3715510" lon="-8.7614420">
        <ele>9.2</ele>
        <time>2021-05-16T13:02:42Z</time>
      </trkpt>
      <trkpt lat="41.3715630" lon="-8.7614460">
        <ele>9.2</ele>
        <time>2021-05-16T13:02:43Z</time>
      </trkpt>
      <trkpt lat="41.3715830" lon="-8.7614520">
        <ele>9.2</ele>
        <time>2021-05-16T13:02:44Z</time>
      </trkpt>
      <trkpt lat="41.3716030" lon="-8.7614620">
        <ele>9.2</ele>
        <time>2021-05-16T13:02:45Z</time>
      </trkpt>
      <trkpt lat="41.3716100" lon="-8.7614680">
        <ele>9.2</ele>
        <time>2021-05-16T13:02:46Z</time>
      </trkpt>
      <trkpt lat="41.3716170" lon="-8.7614730">
        <ele>9.2</ele>
        <time>2021-05-16T13:02:47Z</time>
      </trkpt>
      <trkpt lat="41.3716390" lon="-8.7614800">
        <ele>9.2</ele>
        <time>2021-05-16T13:02:48Z</time>
      </trkpt>
      <trkpt lat="41.3716480" lon="-8.7614840">
        <ele>9.1</ele>
        <time>2021-05-16T13:02:49Z</time>
      </trkpt>
      <trkpt lat="41.3716570" lon="-8.7614870">
        <ele>9.1</ele>
        <time>2021-05-16T13:02:50Z</time>
      </trkpt>
      <trkpt lat="41.3716750" lon="-8.7614810">
        <ele>9.1</ele>
        <time>2021-05-16T13:02:51Z</time>
      </trkpt>
      <trkpt lat="41.3716880" lon="-8.7614820">
        <ele>9.1</ele>
        <time>2021-05-16T13:02:52Z</time>
      </trkpt>
      <trkpt lat="41.3717040" lon="-8.7614840">
        <ele>9.1</ele>
        <time>2021-05-16T13:02:53Z</time>
      </trkpt>
      <trkpt lat="41.3717200" lon="-8.7614830">
        <ele>9.1</ele>
        <time>2021-05-16T13:02:54Z</time>
      </trkpt>
      <trkpt lat="41.3717300" lon="-8.7614920">
        <ele>9.1</ele>
        <time>2021-05-16T13:02:55Z</time>
      </trkpt>
      <trkpt lat="41.3717410" lon="-8.7614980">
        <ele>9.1</ele>
        <time>2021-05-16T13:02:56Z</time>
      </trkpt>
      <trkpt lat="41.3717500" lon="-8.7615010">
        <ele>9.1</ele>
        <time>2021-05-16T13:02:57Z</time>
      </trkpt>
      <trkpt lat="41.3717410" lon="-8.7614990">
        <ele>9.1</ele>
        <time>2021-05-16T13:02:58Z</time>
      </trkpt>
      <trkpt lat="41.3717580" lon="-8.7614830">
        <ele>9.1</ele>
        <time>2021-05-16T13:02:59Z</time>
      </trkpt>
      <trkpt lat="41.3717690" lon="-8.7614830">
        <ele>9.1</ele>
        <time>2021-05-16T13:03:00Z</time>
      </trkpt>
      <trkpt lat="41.3717790" lon="-8.7614850">
        <ele>9.1</ele>
        <time>2021-05-16T13:03:01Z</time>
      </trkpt>
      <trkpt lat="41.3717870" lon="-8.7614910">
        <ele>9.1</ele>
        <time>2021-05-16T13:03:02Z</time>
      </trkpt>
      <trkpt lat="41.3718070" lon="-8.7614950">
        <ele>9.1</ele>
        <time>2021-05-16T13:03:03Z</time>
      </trkpt>
      <trkpt lat="41.3718160" lon="-8.7615000">
        <ele>9.1</ele>
        <time>2021-05-16T13:03:04Z</time>
      </trkpt>
      <trkpt lat="41.3718350" lon="-8.7615050">
        <ele>9.1</ele>
        <time>2021-05-16T13:03:05Z</time>
      </trkpt>
      <trkpt lat="41.3718540" lon="-8.7615070">
        <ele>9.1</ele>
        <time>2021-05-16T13:03:06Z</time>
      </trkpt>
      <trkpt lat="41.3718650" lon="-8.7615080">
        <ele>9.1</ele>
        <time>2021-05-16T13:03:08Z</time>
      </trkpt>
      <trkpt lat="41.3718790" lon="-8.7614960">
        <ele>9.1</ele>
        <time>2021-05-16T13:03:09Z</time>
      </trkpt>
      <trkpt lat="41.3718870" lon="-8.7614990">
        <ele>9.1</ele>
        <time>2021-05-16T13:03:10Z</time>
      </trkpt>
      <trkpt lat="41.3718950" lon="-8.7615060">
        <ele>9.1</ele>
        <time>2021-05-16T13:03:11Z</time>
      </trkpt>
      <trkpt lat="41.3719260" lon="-8.7615040">
        <ele>9.1</ele>
        <time>2021-05-16T13:03:12Z</time>
      </trkpt>
      <trkpt lat="41.3719350" lon="-8.7615010">
        <ele>9.1</ele>
        <time>2021-05-16T13:03:13Z</time>
      </trkpt>
      <trkpt lat="41.3719510" lon="-8.7615000">
        <ele>9.1</ele>
        <time>2021-05-16T13:03:14Z</time>
      </trkpt>
      <trkpt lat="41.3719680" lon="-8.7614950">
        <ele>9.1</ele>
        <time>2021-05-16T13:03:15Z</time>
      </trkpt>
      <trkpt lat="41.3719830" lon="-8.7614880">
        <ele>9.1</ele>
        <time>2021-05-16T13:03:16Z</time>
      </trkpt>
      <trkpt lat="41.3719990" lon="-8.7614850">
        <ele>9.1</ele>
        <time>2021-05-16T13:03:17Z</time>
      </trkpt>
      <trkpt lat="41.3720150" lon="-8.7614820">
        <ele>9.1</ele>
        <time>2021-05-16T13:03:18Z</time>
      </trkpt>
      <trkpt lat="41.3720330" lon="-8.7614830">
        <ele>9.1</ele>
        <time>2021-05-16T13:03:19Z</time>
      </trkpt>
      <trkpt lat="41.3720480" lon="-8.7614830">
        <ele>9.1</ele>
        <time>2021-05-16T13:03:20Z</time>
      </trkpt>
      <trkpt lat="41.3720610" lon="-8.7614800">
        <ele>9.1</ele>
        <time>2021-05-16T13:03:21Z</time>
      </trkpt>
      <trkpt lat="41.3720770" lon="-8.7614770">
        <ele>9.1</ele>
        <time>2021-05-16T13:03:22Z</time>
      </trkpt>
      <trkpt lat="41.3720920" lon="-8.7614800">
        <ele>9.1</ele>
        <time>2021-05-16T13:03:23Z</time>
      </trkpt>
      <trkpt lat="41.3721140" lon="-8.7614790">
        <ele>9.1</ele>
        <time>2021-05-16T13:03:24Z</time>
      </trkpt>
      <trkpt lat="41.3721230" lon="-8.7614820">
        <ele>9.1</ele>
        <time>2021-05-16T13:03:25Z</time>
      </trkpt>
      <trkpt lat="41.3721310" lon="-8.7614860">
        <ele>9.1</ele>
        <time>2021-05-16T13:03:26Z</time>
      </trkpt>
      <trkpt lat="41.3721540" lon="-8.7614900">
        <ele>9.1</ele>
        <time>2021-05-16T13:03:27Z</time>
      </trkpt>
      <trkpt lat="41.3721640" lon="-8.7614880">
        <ele>9.1</ele>
        <time>2021-05-16T13:03:28Z</time>
      </trkpt>
      <trkpt lat="41.3721730" lon="-8.7614870">
        <ele>9.1</ele>
        <time>2021-05-16T13:03:29Z</time>
      </trkpt>
      <trkpt lat="41.3721870" lon="-8.7614900">
        <ele>9.1</ele>
        <time>2021-05-16T13:03:30Z</time>
      </trkpt>
      <trkpt lat="41.3722030" lon="-8.7614880">
        <ele>9.1</ele>
        <time>2021-05-16T13:03:31Z</time>
      </trkpt>
      <trkpt lat="41.3722160" lon="-8.7614870">
        <ele>9.1</ele>
        <time>2021-05-16T13:03:32Z</time>
      </trkpt>
      <trkpt lat="41.3722430" lon="-8.7614860">
        <ele>9.1</ele>
        <time>2021-05-16T13:03:33Z</time>
      </trkpt>
      <trkpt lat="41.3722620" lon="-8.7614820">
        <ele>9.1</ele>
        <time>2021-05-16T13:03:34Z</time>
      </trkpt>
      <trkpt lat="41.3722680" lon="-8.7614840">
        <ele>9.1</ele>
        <time>2021-05-16T13:03:35Z</time>
      </trkpt>
      <trkpt lat="41.3722840" lon="-8.7614760">
        <ele>9.1</ele>
        <time>2021-05-16T13:03:36Z</time>
      </trkpt>
      <trkpt lat="41.3722970" lon="-8.7614770">
        <ele>9.1</ele>
        <time>2021-05-16T13:03:37Z</time>
      </trkpt>
      <trkpt lat="41.3723110" lon="-8.7614710">
        <ele>9.0</ele>
        <time>2021-05-16T13:03:38Z</time>
      </trkpt>
      <trkpt lat="41.3723190" lon="-8.7614700">
        <ele>9.0</ele>
        <time>2021-05-16T13:03:39Z</time>
      </trkpt>
      <trkpt lat="41.3723300" lon="-8.7614700">
        <ele>9.0</ele>
        <time>2021-05-16T13:03:40Z</time>
      </trkpt>
      <trkpt lat="41.3723430" lon="-8.7614650">
        <ele>9.0</ele>
        <time>2021-05-16T13:03:41Z</time>
      </trkpt>
      <trkpt lat="41.3723560" lon="-8.7614600">
        <ele>9.0</ele>
        <time>2021-05-16T13:03:42Z</time>
      </trkpt>
      <trkpt lat="41.3723780" lon="-8.7614620">
        <ele>9.0</ele>
        <time>2021-05-16T13:03:43Z</time>
      </trkpt>
      <trkpt lat="41.3723880" lon="-8.7614650">
        <ele>9.0</ele>
        <time>2021-05-16T13:03:44Z</time>
      </trkpt>
      <trkpt lat="41.3723970" lon="-8.7614670">
        <ele>9.0</ele>
        <time>2021-05-16T13:03:45Z</time>
      </trkpt>
      <trkpt lat="41.3724120" lon="-8.7614680">
        <ele>9.0</ele>
        <time>2021-05-16T13:03:46Z</time>
      </trkpt>
      <trkpt lat="41.3724270" lon="-8.7614670">
        <ele>9.0</ele>
        <time>2021-05-16T13:03:47Z</time>
      </trkpt>
      <trkpt lat="41.3724420" lon="-8.7614670">
        <ele>9.0</ele>
        <time>2021-05-16T13:03:48Z</time>
      </trkpt>
      <trkpt lat="41.3724550" lon="-8.7614700">
        <ele>9.0</ele>
        <time>2021-05-16T13:03:49Z</time>
      </trkpt>
      <trkpt lat="41.3724690" lon="-8.7614820">
        <ele>9.0</ele>
        <time>2021-05-16T13:03:50Z</time>
      </trkpt>
      <trkpt lat="41.3724840" lon="-8.7614910">
        <ele>9.0</ele>
        <time>2021-05-16T13:03:51Z</time>
      </trkpt>
      <trkpt lat="41.3725010" lon="-8.7615010">
        <ele>9.0</ele>
        <time>2021-05-16T13:03:52Z</time>
      </trkpt>
      <trkpt lat="41.3725150" lon="-8.7615090">
        <ele>9.0</ele>
        <time>2021-05-16T13:03:53Z</time>
      </trkpt>
      <trkpt lat="41.3725280" lon="-8.7615170">
        <ele>9.0</ele>
        <time>2021-05-16T13:03:54Z</time>
      </trkpt>
      <trkpt lat="41.3725410" lon="-8.7615280">
        <ele>9.0</ele>
        <time>2021-05-16T13:03:55Z</time>
      </trkpt>
      <trkpt lat="41.3725600" lon="-8.7615600">
        <ele>9.0</ele>
        <time>2021-05-16T13:03:56Z</time>
      </trkpt>
      <trkpt lat="41.3725660" lon="-8.7615700">
        <ele>9.0</ele>
        <time>2021-05-16T13:03:57Z</time>
      </trkpt>
      <trkpt lat="41.3725840" lon="-8.7616070">
        <ele>9.0</ele>
        <time>2021-05-16T13:03:58Z</time>
      </trkpt>
      <trkpt lat="41.3725900" lon="-8.7616160">
        <ele>9.0</ele>
        <time>2021-05-16T13:03:59Z</time>
      </trkpt>
      <trkpt lat="41.3726040" lon="-8.7616240">
        <ele>9.0</ele>
        <time>2021-05-16T13:04:00Z</time>
      </trkpt>
      <trkpt lat="41.3726150" lon="-8.7616320">
        <ele>9.0</ele>
        <time>2021-05-16T13:04:01Z</time>
      </trkpt>
      <trkpt lat="41.3726250" lon="-8.7616390">
        <ele>8.9</ele>
        <time>2021-05-16T13:04:02Z</time>
      </trkpt>
      <trkpt lat="41.3726360" lon="-8.7616460">
        <ele>8.9</ele>
        <time>2021-05-16T13:04:03Z</time>
      </trkpt>
      <trkpt lat="41.3726500" lon="-8.7616440">
        <ele>8.9</ele>
        <time>2021-05-16T13:04:04Z</time>
      </trkpt>
      <trkpt lat="41.3726600" lon="-8.7616490">
        <ele>8.9</ele>
        <time>2021-05-16T13:04:05Z</time>
      </trkpt>
      <trkpt lat="41.3726720" lon="-8.7616530">
        <ele>8.9</ele>
        <time>2021-05-16T13:04:06Z</time>
      </trkpt>
      <trkpt lat="41.3726800" lon="-8.7616510">
        <ele>8.9</ele>
        <time>2021-05-16T13:04:07Z</time>
      </trkpt>
      <trkpt lat="41.3727020" lon="-8.7616580">
        <ele>8.9</ele>
        <time>2021-05-16T13:04:08Z</time>
      </trkpt>
      <trkpt lat="41.3727100" lon="-8.7616610">
        <ele>8.9</ele>
        <time>2021-05-16T13:04:09Z</time>
      </trkpt>
      <trkpt lat="41.3727190" lon="-8.7616640">
        <ele>8.9</ele>
        <time>2021-05-16T13:04:10Z</time>
      </trkpt>
      <trkpt lat="41.3727390" lon="-8.7616650">
        <ele>8.9</ele>
        <time>2021-05-16T13:04:11Z</time>
      </trkpt>
      <trkpt lat="41.3727480" lon="-8.7616670">
        <ele>8.9</ele>
        <time>2021-05-16T13:04:12Z</time>
      </trkpt>
      <trkpt lat="41.3727560" lon="-8.7616700">
        <ele>8.9</ele>
        <time>2021-05-16T13:04:13Z</time>
      </trkpt>
      <trkpt lat="41.3727660" lon="-8.7616700">
        <ele>8.9</ele>
        <time>2021-05-16T13:04:14Z</time>
      </trkpt>
      <trkpt lat="41.3727780" lon="-8.7616750">
        <ele>8.9</ele>
        <time>2021-05-16T13:04:15Z</time>
      </trkpt>
      <trkpt lat="41.3727900" lon="-8.7616730">
        <ele>8.9</ele>
        <time>2021-05-16T13:04:16Z</time>
      </trkpt>
      <trkpt lat="41.3728040" lon="-8.7616690">
        <ele>8.9</ele>
        <time>2021-05-16T13:04:17Z</time>
      </trkpt>
      <trkpt lat="41.3728120" lon="-8.7616700">
        <ele>8.9</ele>
        <time>2021-05-16T13:04:18Z</time>
      </trkpt>
      <trkpt lat="41.3728240" lon="-8.7616740">
        <ele>8.9</ele>
        <time>2021-05-16T13:04:19Z</time>
      </trkpt>
      <trkpt lat="41.3728320" lon="-8.7616830">
        <ele>8.9</ele>
        <time>2021-05-16T13:04:20Z</time>
      </trkpt>
      <trkpt lat="41.3728450" lon="-8.7616820">
        <ele>8.9</ele>
        <time>2021-05-16T13:04:21Z</time>
      </trkpt>
      <trkpt lat="41.3728510" lon="-8.7616900">
        <ele>8.9</ele>
        <time>2021-05-16T13:04:22Z</time>
      </trkpt>
      <trkpt lat="41.3728700" lon="-8.7617030">
        <ele>8.9</ele>
        <time>2021-05-16T13:04:23Z</time>
      </trkpt>
      <trkpt lat="41.3728770" lon="-8.7617070">
        <ele>8.9</ele>
        <time>2021-05-16T13:04:24Z</time>
      </trkpt>
      <trkpt lat="41.3728840" lon="-8.7617110">
        <ele>8.9</ele>
        <time>2021-05-16T13:04:25Z</time>
      </trkpt>
      <trkpt lat="41.3728950" lon="-8.7617160">
        <ele>8.9</ele>
        <time>2021-05-16T13:04:26Z</time>
      </trkpt>
      <trkpt lat="41.3729010" lon="-8.7617190">
        <ele>8.9</ele>
        <time>2021-05-16T13:04:27Z</time>
      </trkpt>
      <trkpt lat="41.3729140" lon="-8.7617260">
        <ele>8.9</ele>
        <time>2021-05-16T13:04:28Z</time>
      </trkpt>
      <trkpt lat="41.3729340" lon="-8.7617370">
        <ele>8.9</ele>
        <time>2021-05-16T13:04:29Z</time>
      </trkpt>
      <trkpt lat="41.3729400" lon="-8.7617440">
        <ele>8.9</ele>
        <time>2021-05-16T13:04:30Z</time>
      </trkpt>
      <trkpt lat="41.3729460" lon="-8.7617500">
        <ele>8.9</ele>
        <time>2021-05-16T13:04:31Z</time>
      </trkpt>
      <trkpt lat="41.3729590" lon="-8.7617550">
        <ele>8.8</ele>
        <time>2021-05-16T13:04:32Z</time>
      </trkpt>
      <trkpt lat="41.3729720" lon="-8.7617680">
        <ele>8.8</ele>
        <time>2021-05-16T13:04:33Z</time>
      </trkpt>
      <trkpt lat="41.3729780" lon="-8.7617730">
        <ele>8.8</ele>
        <time>2021-05-16T13:04:34Z</time>
      </trkpt>
      <trkpt lat="41.3729880" lon="-8.7617760">
        <ele>8.8</ele>
        <time>2021-05-16T13:04:35Z</time>
      </trkpt>
      <trkpt lat="41.3730020" lon="-8.7617850">
        <ele>8.8</ele>
        <time>2021-05-16T13:04:36Z</time>
      </trkpt>
      <trkpt lat="41.3730110" lon="-8.7617850">
        <ele>8.8</ele>
        <time>2021-05-16T13:04:37Z</time>
      </trkpt>
      <trkpt lat="41.3730260" lon="-8.7617870">
        <ele>8.8</ele>
        <time>2021-05-16T13:04:38Z</time>
      </trkpt>
      <trkpt lat="41.3730340" lon="-8.7617920">
        <ele>8.8</ele>
        <time>2021-05-16T13:04:39Z</time>
      </trkpt>
      <trkpt lat="41.3730470" lon="-8.7617910">
        <ele>8.8</ele>
        <time>2021-05-16T13:04:40Z</time>
      </trkpt>
      <trkpt lat="41.3730600" lon="-8.7617950">
        <ele>8.8</ele>
        <time>2021-05-16T13:04:41Z</time>
      </trkpt>
      <trkpt lat="41.3730690" lon="-8.7617970">
        <ele>8.8</ele>
        <time>2021-05-16T13:04:42Z</time>
      </trkpt>
      <trkpt lat="41.3730880" lon="-8.7617990">
        <ele>8.8</ele>
        <time>2021-05-16T13:04:43Z</time>
      </trkpt>
      <trkpt lat="41.3730990" lon="-8.7618040">
        <ele>8.8</ele>
        <time>2021-05-16T13:04:44Z</time>
      </trkpt>
      <trkpt lat="41.3731110" lon="-8.7618040">
        <ele>8.8</ele>
        <time>2021-05-16T13:04:45Z</time>
      </trkpt>
      <trkpt lat="41.3731210" lon="-8.7618040">
        <ele>8.8</ele>
        <time>2021-05-16T13:04:46Z</time>
      </trkpt>
      <trkpt lat="41.3731360" lon="-8.7618050">
        <ele>8.8</ele>
        <time>2021-05-16T13:04:47Z</time>
      </trkpt>
      <trkpt lat="41.3731500" lon="-8.7618060">
        <ele>8.8</ele>
        <time>2021-05-16T13:04:48Z</time>
      </trkpt>
      <trkpt lat="41.3731670" lon="-8.7618060">
        <ele>8.8</ele>
        <time>2021-05-16T13:04:49Z</time>
      </trkpt>
      <trkpt lat="41.3731800" lon="-8.7618080">
        <ele>8.8</ele>
        <time>2021-05-16T13:04:50Z</time>
      </trkpt>
      <trkpt lat="41.3731950" lon="-8.7618080">
        <ele>8.8</ele>
        <time>2021-05-16T13:04:51Z</time>
      </trkpt>
      <trkpt lat="41.3732140" lon="-8.7618090">
        <ele>8.8</ele>
        <time>2021-05-16T13:04:52Z</time>
      </trkpt>
      <trkpt lat="41.3732290" lon="-8.7618090">
        <ele>8.8</ele>
        <time>2021-05-16T13:04:53Z</time>
      </trkpt>
      <trkpt lat="41.3732430" lon="-8.7618100">
        <ele>8.8</ele>
        <time>2021-05-16T13:04:54Z</time>
      </trkpt>
      <trkpt lat="41.3732580" lon="-8.7618120">
        <ele>8.8</ele>
        <time>2021-05-16T13:04:55Z</time>
      </trkpt>
      <trkpt lat="41.3732710" lon="-8.7618150">
        <ele>8.8</ele>
        <time>2021-05-16T13:04:56Z</time>
      </trkpt>
      <trkpt lat="41.3732870" lon="-8.7618160">
        <ele>8.8</ele>
        <time>2021-05-16T13:04:57Z</time>
      </trkpt>
      <trkpt lat="41.3733020" lon="-8.7618130">
        <ele>8.8</ele>
        <time>2021-05-16T13:04:58Z</time>
      </trkpt>
      <trkpt lat="41.3733190" lon="-8.7618070">
        <ele>8.7</ele>
        <time>2021-05-16T13:04:59Z</time>
      </trkpt>
      <trkpt lat="41.3733330" lon="-8.7618060">
        <ele>8.7</ele>
        <time>2021-05-16T13:05:00Z</time>
      </trkpt>
      <trkpt lat="41.3733480" lon="-8.7618060">
        <ele>8.7</ele>
        <time>2021-05-16T13:05:01Z</time>
      </trkpt>
      <trkpt lat="41.3733620" lon="-8.7618100">
        <ele>8.7</ele>
        <time>2021-05-16T13:05:02Z</time>
      </trkpt>
      <trkpt lat="41.3733770" lon="-8.7618080">
        <ele>8.7</ele>
        <time>2021-05-16T13:05:03Z</time>
      </trkpt>
      <trkpt lat="41.3733910" lon="-8.7618170">
        <ele>8.7</ele>
        <time>2021-05-16T13:05:04Z</time>
      </trkpt>
      <trkpt lat="41.3734060" lon="-8.7618210">
        <ele>8.7</ele>
        <time>2021-05-16T13:05:05Z</time>
      </trkpt>
      <trkpt lat="41.3734190" lon="-8.7618220">
        <ele>8.7</ele>
        <time>2021-05-16T13:05:06Z</time>
      </trkpt>
      <trkpt lat="41.3734340" lon="-8.7618290">
        <ele>8.7</ele>
        <time>2021-05-16T13:05:07Z</time>
      </trkpt>
      <trkpt lat="41.3734490" lon="-8.7618280">
        <ele>8.7</ele>
        <time>2021-05-16T13:05:08Z</time>
      </trkpt>
      <trkpt lat="41.3734610" lon="-8.7618380">
        <ele>8.7</ele>
        <time>2021-05-16T13:05:09Z</time>
      </trkpt>
      <trkpt lat="41.3734750" lon="-8.7618460">
        <ele>8.7</ele>
        <time>2021-05-16T13:05:10Z</time>
      </trkpt>
      <trkpt lat="41.3734900" lon="-8.7618470">
        <ele>8.7</ele>
        <time>2021-05-16T13:05:11Z</time>
      </trkpt>
      <trkpt lat="41.3735040" lon="-8.7618490">
        <ele>8.7</ele>
        <time>2021-05-16T13:05:12Z</time>
      </trkpt>
      <trkpt lat="41.3735190" lon="-8.7618560">
        <ele>8.7</ele>
        <time>2021-05-16T13:05:13Z</time>
      </trkpt>
      <trkpt lat="41.3735320" lon="-8.7618590">
        <ele>8.7</ele>
        <time>2021-05-16T13:05:14Z</time>
      </trkpt>
      <trkpt lat="41.3735470" lon="-8.7618650">
        <ele>8.7</ele>
        <time>2021-05-16T13:05:15Z</time>
      </trkpt>
      <trkpt lat="41.3735630" lon="-8.7618640">
        <ele>8.6</ele>
        <time>2021-05-16T13:05:16Z</time>
      </trkpt>
      <trkpt lat="41.3735780" lon="-8.7618630">
        <ele>8.6</ele>
        <time>2021-05-16T13:05:17Z</time>
      </trkpt>
      <trkpt lat="41.3735990" lon="-8.7618680">
        <ele>8.6</ele>
        <time>2021-05-16T13:05:18Z</time>
      </trkpt>
      <trkpt lat="41.3736090" lon="-8.7618700">
        <ele>8.6</ele>
        <time>2021-05-16T13:05:19Z</time>
      </trkpt>
      <trkpt lat="41.3736180" lon="-8.7618730">
        <ele>8.6</ele>
        <time>2021-05-16T13:05:20Z</time>
      </trkpt>
      <trkpt lat="41.3736330" lon="-8.7618710">
        <ele>8.6</ele>
        <time>2021-05-16T13:05:21Z</time>
      </trkpt>
      <trkpt lat="41.3736470" lon="-8.7618730">
        <ele>8.6</ele>
        <time>2021-05-16T13:05:22Z</time>
      </trkpt>
      <trkpt lat="41.3736690" lon="-8.7618710">
        <ele>8.6</ele>
        <time>2021-05-16T13:05:23Z</time>
      </trkpt>
      <trkpt lat="41.3736770" lon="-8.7618740">
        <ele>8.6</ele>
        <time>2021-05-16T13:05:24Z</time>
      </trkpt>
      <trkpt lat="41.3736860" lon="-8.7618760">
        <ele>8.6</ele>
        <time>2021-05-16T13:05:25Z</time>
      </trkpt>
      <trkpt lat="41.3737070" lon="-8.7618810">
        <ele>8.6</ele>
        <time>2021-05-16T13:05:26Z</time>
      </trkpt>
      <trkpt lat="41.3737160" lon="-8.7618820">
        <ele>8.6</ele>
        <time>2021-05-16T13:05:27Z</time>
      </trkpt>
      <trkpt lat="41.3737240" lon="-8.7618820">
        <ele>8.6</ele>
        <time>2021-05-16T13:05:28Z</time>
      </trkpt>
      <trkpt lat="41.3737440" lon="-8.7618820">
        <ele>8.6</ele>
        <time>2021-05-16T13:05:29Z</time>
      </trkpt>
      <trkpt lat="41.3737520" lon="-8.7618840">
        <ele>8.6</ele>
        <time>2021-05-16T13:05:30Z</time>
      </trkpt>
      <trkpt lat="41.3737610" lon="-8.7618870">
        <ele>8.6</ele>
        <time>2021-05-16T13:05:31Z</time>
      </trkpt>
      <trkpt lat="41.3737740" lon="-8.7618920">
        <ele>8.6</ele>
        <time>2021-05-16T13:05:32Z</time>
      </trkpt>
      <trkpt lat="41.3737870" lon="-8.7619000">
        <ele>8.5</ele>
        <time>2021-05-16T13:05:33Z</time>
      </trkpt>
      <trkpt lat="41.3738080" lon="-8.7619030">
        <ele>8.5</ele>
        <time>2021-05-16T13:05:34Z</time>
      </trkpt>
      <trkpt lat="41.3738160" lon="-8.7619030">
        <ele>8.5</ele>
        <time>2021-05-16T13:05:35Z</time>
      </trkpt>
      <trkpt lat="41.3738240" lon="-8.7619040">
        <ele>8.5</ele>
        <time>2021-05-16T13:05:36Z</time>
      </trkpt>
      <trkpt lat="41.3738450" lon="-8.7619120">
        <ele>8.5</ele>
        <time>2021-05-16T13:05:37Z</time>
      </trkpt>
      <trkpt lat="41.3738530" lon="-8.7619170">
        <ele>8.5</ele>
        <time>2021-05-16T13:05:38Z</time>
      </trkpt>
      <trkpt lat="41.3738610" lon="-8.7619220">
        <ele>8.5</ele>
        <time>2021-05-16T13:05:39Z</time>
      </trkpt>
      <trkpt lat="41.3738830" lon="-8.7619270">
        <ele>8.5</ele>
        <time>2021-05-16T13:05:40Z</time>
      </trkpt>
      <trkpt lat="41.3738910" lon="-8.7619290">
        <ele>8.5</ele>
        <time>2021-05-16T13:05:41Z</time>
      </trkpt>
      <trkpt lat="41.3739000" lon="-8.7619320">
        <ele>8.5</ele>
        <time>2021-05-16T13:05:42Z</time>
      </trkpt>
      <trkpt lat="41.3739210" lon="-8.7619350">
        <ele>8.4</ele>
        <time>2021-05-16T13:05:43Z</time>
      </trkpt>
      <trkpt lat="41.3739310" lon="-8.7619350">
        <ele>8.4</ele>
        <time>2021-05-16T13:05:44Z</time>
      </trkpt>
      <trkpt lat="41.3739400" lon="-8.7619350">
        <ele>8.4</ele>
        <time>2021-05-16T13:05:45Z</time>
      </trkpt>
      <trkpt lat="41.3739620" lon="-8.7619390">
        <ele>8.4</ele>
        <time>2021-05-16T13:05:46Z</time>
      </trkpt>
      <trkpt lat="41.3739710" lon="-8.7619410">
        <ele>8.4</ele>
        <time>2021-05-16T13:05:47Z</time>
      </trkpt>
      <trkpt lat="41.3739800" lon="-8.7619430">
        <ele>8.4</ele>
        <time>2021-05-16T13:05:48Z</time>
      </trkpt>
      <trkpt lat="41.3740020" lon="-8.7619480">
        <ele>8.4</ele>
        <time>2021-05-16T13:05:49Z</time>
      </trkpt>
      <trkpt lat="41.3740100" lon="-8.7619490">
        <ele>8.4</ele>
        <time>2021-05-16T13:05:50Z</time>
      </trkpt>
      <trkpt lat="41.3740190" lon="-8.7619510">
        <ele>8.4</ele>
        <time>2021-05-16T13:05:51Z</time>
      </trkpt>
      <trkpt lat="41.3740400" lon="-8.7619560">
        <ele>8.3</ele>
        <time>2021-05-16T13:05:52Z</time>
      </trkpt>
      <trkpt lat="41.3740490" lon="-8.7619570">
        <ele>8.3</ele>
        <time>2021-05-16T13:05:53Z</time>
      </trkpt>
      <trkpt lat="41.3740580" lon="-8.7619570">
        <ele>8.3</ele>
        <time>2021-05-16T13:05:54Z</time>
      </trkpt>
      <trkpt lat="41.3740700" lon="-8.7619660">
        <ele>8.3</ele>
        <time>2021-05-16T13:05:55Z</time>
      </trkpt>
      <trkpt lat="41.3740810" lon="-8.7619780">
        <ele>8.3</ele>
        <time>2021-05-16T13:05:56Z</time>
      </trkpt>
      <trkpt lat="41.3741020" lon="-8.7619830">
        <ele>8.3</ele>
        <time>2021-05-16T13:05:57Z</time>
      </trkpt>
      <trkpt lat="41.3741100" lon="-8.7619820">
        <ele>8.3</ele>
        <time>2021-05-16T13:05:58Z</time>
      </trkpt>
      <trkpt lat="41.3741190" lon="-8.7619820">
        <ele>8.3</ele>
        <time>2021-05-16T13:05:59Z</time>
      </trkpt>
      <trkpt lat="41.3741390" lon="-8.7619860">
        <ele>8.3</ele>
        <time>2021-05-16T13:06:00Z</time>
      </trkpt>
      <trkpt lat="41.3741480" lon="-8.7619840">
        <ele>8.2</ele>
        <time>2021-05-16T13:06:01Z</time>
      </trkpt>
      <trkpt lat="41.3741570" lon="-8.7619820">
        <ele>8.2</ele>
        <time>2021-05-16T13:06:02Z</time>
      </trkpt>
      <trkpt lat="41.3741720" lon="-8.7619900">
        <ele>8.2</ele>
        <time>2021-05-16T13:06:03Z</time>
      </trkpt>
      <trkpt lat="41.3741850" lon="-8.7619890">
        <ele>8.2</ele>
        <time>2021-05-16T13:06:04Z</time>
      </trkpt>
      <trkpt lat="41.3742060" lon="-8.7619930">
        <ele>8.2</ele>
        <time>2021-05-16T13:06:05Z</time>
      </trkpt>
      <trkpt lat="41.3742140" lon="-8.7619950">
        <ele>8.2</ele>
        <time>2021-05-16T13:06:06Z</time>
      </trkpt>
      <trkpt lat="41.3742230" lon="-8.7619960">
        <ele>8.2</ele>
        <time>2021-05-16T13:06:07Z</time>
      </trkpt>
      <trkpt lat="41.3742430" lon="-8.7619990">
        <ele>8.2</ele>
        <time>2021-05-16T13:06:08Z</time>
      </trkpt>
      <trkpt lat="41.3742520" lon="-8.7620020">
        <ele>8.1</ele>
        <time>2021-05-16T13:06:09Z</time>
      </trkpt>
      <trkpt lat="41.3742600" lon="-8.7620060">
        <ele>8.1</ele>
        <time>2021-05-16T13:06:10Z</time>
      </trkpt>
      <trkpt lat="41.3742730" lon="-8.7620090">
        <ele>8.1</ele>
        <time>2021-05-16T13:06:11Z</time>
      </trkpt>
      <trkpt lat="41.3742870" lon="-8.7620070">
        <ele>8.1</ele>
        <time>2021-05-16T13:06:12Z</time>
      </trkpt>
      <trkpt lat="41.3743080" lon="-8.7620160">
        <ele>8.1</ele>
        <time>2021-05-16T13:06:13Z</time>
      </trkpt>
      <trkpt lat="41.3743160" lon="-8.7620180">
        <ele>8.1</ele>
        <time>2021-05-16T13:06:14Z</time>
      </trkpt>
      <trkpt lat="41.3743250" lon="-8.7620200">
        <ele>8.1</ele>
        <time>2021-05-16T13:06:15Z</time>
      </trkpt>
      <trkpt lat="41.3743460" lon="-8.7620270">
        <ele>8.0</ele>
        <time>2021-05-16T13:06:16Z</time>
      </trkpt>
      <trkpt lat="41.3743550" lon="-8.7620280">
        <ele>8.0</ele>
        <time>2021-05-16T13:06:17Z</time>
      </trkpt>
      <trkpt lat="41.3743630" lon="-8.7620290">
        <ele>8.0</ele>
        <time>2021-05-16T13:06:18Z</time>
      </trkpt>
      <trkpt lat="41.3743840" lon="-8.7620350">
        <ele>8.0</ele>
        <time>2021-05-16T13:06:19Z</time>
      </trkpt>
      <trkpt lat="41.3743920" lon="-8.7620370">
        <ele>8.0</ele>
        <time>2021-05-16T13:06:20Z</time>
      </trkpt>
      <trkpt lat="41.3744000" lon="-8.7620400">
        <ele>8.0</ele>
        <time>2021-05-16T13:06:21Z</time>
      </trkpt>
      <trkpt lat="41.3744220" lon="-8.7620420">
        <ele>8.0</ele>
        <time>2021-05-16T13:06:22Z</time>
      </trkpt>
      <trkpt lat="41.3744300" lon="-8.7620420">
        <ele>8.0</ele>
        <time>2021-05-16T13:06:23Z</time>
      </trkpt>
      <trkpt lat="41.3744390" lon="-8.7620430">
        <ele>8.0</ele>
        <time>2021-05-16T13:06:24Z</time>
      </trkpt>
      <trkpt lat="41.3744600" lon="-8.7620530">
        <ele>8.0</ele>
        <time>2021-05-16T13:06:25Z</time>
      </trkpt>
      <trkpt lat="41.3744690" lon="-8.7620550">
        <ele>8.0</ele>
        <time>2021-05-16T13:06:26Z</time>
      </trkpt>
      <trkpt lat="41.3744770" lon="-8.7620580">
        <ele>7.9</ele>
        <time>2021-05-16T13:06:27Z</time>
      </trkpt>
      <trkpt lat="41.3744960" lon="-8.7620680">
        <ele>7.9</ele>
        <time>2021-05-16T13:06:28Z</time>
      </trkpt>
      <trkpt lat="41.3745040" lon="-8.7620740">
        <ele>7.9</ele>
        <time>2021-05-16T13:06:29Z</time>
      </trkpt>
      <trkpt lat="41.3745120" lon="-8.7620790">
        <ele>7.9</ele>
        <time>2021-05-16T13:06:30Z</time>
      </trkpt>
      <trkpt lat="41.3745350" lon="-8.7620770">
        <ele>7.9</ele>
        <time>2021-05-16T13:06:31Z</time>
      </trkpt>
      <trkpt lat="41.3745440" lon="-8.7620790">
        <ele>7.9</ele>
        <time>2021-05-16T13:06:32Z</time>
      </trkpt>
      <trkpt lat="41.3745530" lon="-8.7620800">
        <ele>7.9</ele>
        <time>2021-05-16T13:06:33Z</time>
      </trkpt>
      <trkpt lat="41.3745660" lon="-8.7620810">
        <ele>7.9</ele>
        <time>2021-05-16T13:06:34Z</time>
      </trkpt>
      <trkpt lat="41.3745810" lon="-8.7620790">
        <ele>7.9</ele>
        <time>2021-05-16T13:06:35Z</time>
      </trkpt>
      <trkpt lat="41.3745930" lon="-8.7620820">
        <ele>7.8</ele>
        <time>2021-05-16T13:06:36Z</time>
      </trkpt>
      <trkpt lat="41.3746070" lon="-8.7620860">
        <ele>7.8</ele>
        <time>2021-05-16T13:06:37Z</time>
      </trkpt>
      <trkpt lat="41.3746290" lon="-8.7620960">
        <ele>7.8</ele>
        <time>2021-05-16T13:06:38Z</time>
      </trkpt>
      <trkpt lat="41.3746380" lon="-8.7620990">
        <ele>7.8</ele>
        <time>2021-05-16T13:06:39Z</time>
      </trkpt>
      <trkpt lat="41.3746460" lon="-8.7621030">
        <ele>7.8</ele>
        <time>2021-05-16T13:06:40Z</time>
      </trkpt>
      <trkpt lat="41.3746680" lon="-8.7621070">
        <ele>7.8</ele>
        <time>2021-05-16T13:06:41Z</time>
      </trkpt>
      <trkpt lat="41.3746760" lon="-8.7621070">
        <ele>7.8</ele>
        <time>2021-05-16T13:06:42Z</time>
      </trkpt>
      <trkpt lat="41.3746850" lon="-8.7621080">
        <ele>7.8</ele>
        <time>2021-05-16T13:06:43Z</time>
      </trkpt>
      <trkpt lat="41.3747060" lon="-8.7621150">
        <ele>7.8</ele>
        <time>2021-05-16T13:06:44Z</time>
      </trkpt>
      <trkpt lat="41.3747150" lon="-8.7621200">
        <ele>7.8</ele>
        <time>2021-05-16T13:06:45Z</time>
      </trkpt>
      <trkpt lat="41.3747240" lon="-8.7621240">
        <ele>7.8</ele>
        <time>2021-05-16T13:06:46Z</time>
      </trkpt>
      <trkpt lat="41.3747440" lon="-8.7621380">
        <ele>7.8</ele>
        <time>2021-05-16T13:06:47Z</time>
      </trkpt>
      <trkpt lat="41.3747530" lon="-8.7621420">
        <ele>7.8</ele>
        <time>2021-05-16T13:06:48Z</time>
      </trkpt>
      <trkpt lat="41.3747610" lon="-8.7621470">
        <ele>7.8</ele>
        <time>2021-05-16T13:06:49Z</time>
      </trkpt>
      <trkpt lat="41.3747720" lon="-8.7621580">
        <ele>7.8</ele>
        <time>2021-05-16T13:06:50Z</time>
      </trkpt>
      <trkpt lat="41.3747830" lon="-8.7621700">
        <ele>7.8</ele>
        <time>2021-05-16T13:06:51Z</time>
      </trkpt>
      <trkpt lat="41.3748030" lon="-8.7621820">
        <ele>7.7</ele>
        <time>2021-05-16T13:06:52Z</time>
      </trkpt>
      <trkpt lat="41.3748120" lon="-8.7621850">
        <ele>7.7</ele>
        <time>2021-05-16T13:06:53Z</time>
      </trkpt>
      <trkpt lat="41.3748210" lon="-8.7621890">
        <ele>7.7</ele>
        <time>2021-05-16T13:06:54Z</time>
      </trkpt>
      <trkpt lat="41.3748350" lon="-8.7621940">
        <ele>7.7</ele>
        <time>2021-05-16T13:06:55Z</time>
      </trkpt>
      <trkpt lat="41.3748480" lon="-8.7621970">
        <ele>7.7</ele>
        <time>2021-05-16T13:06:56Z</time>
      </trkpt>
      <trkpt lat="41.3748690" lon="-8.7622040">
        <ele>7.7</ele>
        <time>2021-05-16T13:06:57Z</time>
      </trkpt>
      <trkpt lat="41.3748780" lon="-8.7622070">
        <ele>7.7</ele>
        <time>2021-05-16T13:06:58Z</time>
      </trkpt>
      <trkpt lat="41.3748860" lon="-8.7622100">
        <ele>7.7</ele>
        <time>2021-05-16T13:06:59Z</time>
      </trkpt>
      <trkpt lat="41.3748990" lon="-8.7622200">
        <ele>7.7</ele>
        <time>2021-05-16T13:07:00Z</time>
      </trkpt>
      <trkpt lat="41.3749110" lon="-8.7622270">
        <ele>7.7</ele>
        <time>2021-05-16T13:07:01Z</time>
      </trkpt>
      <trkpt lat="41.3749240" lon="-8.7622330">
        <ele>7.7</ele>
        <time>2021-05-16T13:07:02Z</time>
      </trkpt>
      <trkpt lat="41.3749350" lon="-8.7622430">
        <ele>7.7</ele>
        <time>2021-05-16T13:07:03Z</time>
      </trkpt>
      <trkpt lat="41.3749560" lon="-8.7622490">
        <ele>7.7</ele>
        <time>2021-05-16T13:07:04Z</time>
      </trkpt>
      <trkpt lat="41.3749630" lon="-8.7622540">
        <ele>7.7</ele>
        <time>2021-05-16T13:07:05Z</time>
      </trkpt>
      <trkpt lat="41.3749710" lon="-8.7622590">
        <ele>7.7</ele>
        <time>2021-05-16T13:07:06Z</time>
      </trkpt>
      <trkpt lat="41.3749910" lon="-8.7622700">
        <ele>7.7</ele>
        <time>2021-05-16T13:07:07Z</time>
      </trkpt>
      <trkpt lat="41.3749980" lon="-8.7622750">
        <ele>7.7</ele>
        <time>2021-05-16T13:07:08Z</time>
      </trkpt>
      <trkpt lat="41.3750050" lon="-8.7622790">
        <ele>7.7</ele>
        <time>2021-05-16T13:07:09Z</time>
      </trkpt>
      <trkpt lat="41.3750250" lon="-8.7622890">
        <ele>7.7</ele>
        <time>2021-05-16T13:07:10Z</time>
      </trkpt>
      <trkpt lat="41.3750340" lon="-8.7622890">
        <ele>7.6</ele>
        <time>2021-05-16T13:07:11Z</time>
      </trkpt>
      <trkpt lat="41.3750440" lon="-8.7622880">
        <ele>7.6</ele>
        <time>2021-05-16T13:07:12Z</time>
      </trkpt>
      <trkpt lat="41.3750640" lon="-8.7622950">
        <ele>7.6</ele>
        <time>2021-05-16T13:07:13Z</time>
      </trkpt>
      <trkpt lat="41.3750720" lon="-8.7623000">
        <ele>7.6</ele>
        <time>2021-05-16T13:07:14Z</time>
      </trkpt>
      <trkpt lat="41.3750790" lon="-8.7623060">
        <ele>7.6</ele>
        <time>2021-05-16T13:07:15Z</time>
      </trkpt>
      <trkpt lat="41.3750910" lon="-8.7623030">
        <ele>7.6</ele>
        <time>2021-05-16T13:07:16Z</time>
      </trkpt>
      <trkpt lat="41.3750970" lon="-8.7623050">
        <ele>7.6</ele>
        <time>2021-05-16T13:07:17Z</time>
      </trkpt>
      <trkpt lat="41.3751050" lon="-8.7623070">
        <ele>7.6</ele>
        <time>2021-05-16T13:07:18Z</time>
      </trkpt>
      <trkpt lat="41.3751130" lon="-8.7623190">
        <ele>7.6</ele>
        <time>2021-05-16T13:07:19Z</time>
      </trkpt>
      <trkpt lat="41.3751320" lon="-8.7623280">
        <ele>7.6</ele>
        <time>2021-05-16T13:07:20Z</time>
      </trkpt>
      <trkpt lat="41.3751400" lon="-8.7623330">
        <ele>7.6</ele>
        <time>2021-05-16T13:07:21Z</time>
      </trkpt>
      <trkpt lat="41.3751470" lon="-8.7623370">
        <ele>7.6</ele>
        <time>2021-05-16T13:07:22Z</time>
      </trkpt>
      <trkpt lat="41.3751580" lon="-8.7623440">
        <ele>7.6</ele>
        <time>2021-05-16T13:07:23Z</time>
      </trkpt>
      <trkpt lat="41.3751700" lon="-8.7623440">
        <ele>7.6</ele>
        <time>2021-05-16T13:07:24Z</time>
      </trkpt>
      <trkpt lat="41.3751810" lon="-8.7623520">
        <ele>7.5</ele>
        <time>2021-05-16T13:07:25Z</time>
      </trkpt>
      <trkpt lat="41.3751910" lon="-8.7623550">
        <ele>7.5</ele>
        <time>2021-05-16T13:07:26Z</time>
      </trkpt>
      <trkpt lat="41.3752020" lon="-8.7623640">
        <ele>7.5</ele>
        <time>2021-05-16T13:07:27Z</time>
      </trkpt>
      <trkpt lat="41.3752120" lon="-8.7623760">
        <ele>7.5</ele>
        <time>2021-05-16T13:07:28Z</time>
      </trkpt>
      <trkpt lat="41.3752230" lon="-8.7623830">
        <ele>7.5</ele>
        <time>2021-05-16T13:07:30Z</time>
      </trkpt>
      <trkpt lat="41.3752350" lon="-8.7623860">
        <ele>7.5</ele>
        <time>2021-05-16T13:07:31Z</time>
      </trkpt>
      <trkpt lat="41.3752430" lon="-8.7623980">
        <ele>7.5</ele>
        <time>2021-05-16T13:07:32Z</time>
      </trkpt>
      <trkpt lat="41.3752620" lon="-8.7624100">
        <ele>7.5</ele>
        <time>2021-05-16T13:07:33Z</time>
      </trkpt>
      <trkpt lat="41.3752700" lon="-8.7624150">
        <ele>7.5</ele>
        <time>2021-05-16T13:07:34Z</time>
      </trkpt>
      <trkpt lat="41.3752770" lon="-8.7624190">
        <ele>7.5</ele>
        <time>2021-05-16T13:07:35Z</time>
      </trkpt>
      <trkpt lat="41.3752900" lon="-8.7624230">
        <ele>7.5</ele>
        <time>2021-05-16T13:07:36Z</time>
      </trkpt>
      <trkpt lat="41.3752990" lon="-8.7624300">
        <ele>7.5</ele>
        <time>2021-05-16T13:07:37Z</time>
      </trkpt>
      <trkpt lat="41.3753080" lon="-8.7624320">
        <ele>7.5</ele>
        <time>2021-05-16T13:07:38Z</time>
      </trkpt>
      <trkpt lat="41.3753260" lon="-8.7624470">
        <ele>7.5</ele>
        <time>2021-05-16T13:07:39Z</time>
      </trkpt>
      <trkpt lat="41.3753330" lon="-8.7624550">
        <ele>7.5</ele>
        <time>2021-05-16T13:07:40Z</time>
      </trkpt>
      <trkpt lat="41.3753410" lon="-8.7624630">
        <ele>7.5</ele>
        <time>2021-05-16T13:07:41Z</time>
      </trkpt>
      <trkpt lat="41.3753520" lon="-8.7624680">
        <ele>7.5</ele>
        <time>2021-05-16T13:07:42Z</time>
      </trkpt>
      <trkpt lat="41.3753580" lon="-8.7624690">
        <ele>7.5</ele>
        <time>2021-05-16T13:07:43Z</time>
      </trkpt>
      <trkpt lat="41.3753710" lon="-8.7624820">
        <ele>7.4</ele>
        <time>2021-05-16T13:07:44Z</time>
      </trkpt>
      <trkpt lat="41.3754000" lon="-8.7625030">
        <ele>7.4</ele>
        <time>2021-05-16T13:07:45Z</time>
      </trkpt>
      <trkpt lat="41.3754060" lon="-8.7625050">
        <ele>7.4</ele>
        <time>2021-05-16T13:07:46Z</time>
      </trkpt>
      <trkpt lat="41.3754190" lon="-8.7625160">
        <ele>7.4</ele>
        <time>2021-05-16T13:07:47Z</time>
      </trkpt>
      <trkpt lat="41.3754280" lon="-8.7625270">
        <ele>7.4</ele>
        <time>2021-05-16T13:07:48Z</time>
      </trkpt>
      <trkpt lat="41.3754450" lon="-8.7625390">
        <ele>7.4</ele>
        <time>2021-05-16T13:07:49Z</time>
      </trkpt>
      <trkpt lat="41.3754540" lon="-8.7625560">
        <ele>7.4</ele>
        <time>2021-05-16T13:07:50Z</time>
      </trkpt>
      <trkpt lat="41.3754650" lon="-8.7625660">
        <ele>7.4</ele>
        <time>2021-05-16T13:07:51Z</time>
      </trkpt>
      <trkpt lat="41.3754780" lon="-8.7625780">
        <ele>7.4</ele>
        <time>2021-05-16T13:07:52Z</time>
      </trkpt>
      <trkpt lat="41.3754950" lon="-8.7625830">
        <ele>7.4</ele>
        <time>2021-05-16T13:07:53Z</time>
      </trkpt>
      <trkpt lat="41.3755080" lon="-8.7625960">
        <ele>7.4</ele>
        <time>2021-05-16T13:07:54Z</time>
      </trkpt>
      <trkpt lat="41.3755210" lon="-8.7626040">
        <ele>7.4</ele>
        <time>2021-05-16T13:07:55Z</time>
      </trkpt>
      <trkpt lat="41.3755340" lon="-8.7626130">
        <ele>7.4</ele>
        <time>2021-05-16T13:07:56Z</time>
      </trkpt>
      <trkpt lat="41.3755450" lon="-8.7626250">
        <ele>7.4</ele>
        <time>2021-05-16T13:07:57Z</time>
      </trkpt>
      <trkpt lat="41.3755600" lon="-8.7626330">
        <ele>7.3</ele>
        <time>2021-05-16T13:07:58Z</time>
      </trkpt>
      <trkpt lat="41.3755720" lon="-8.7626480">
        <ele>7.3</ele>
        <time>2021-05-16T13:07:59Z</time>
      </trkpt>
      <trkpt lat="41.3755830" lon="-8.7626610">
        <ele>7.3</ele>
        <time>2021-05-16T13:08:00Z</time>
      </trkpt>
      <trkpt lat="41.3755960" lon="-8.7626700">
        <ele>7.3</ele>
        <time>2021-05-16T13:08:01Z</time>
      </trkpt>
      <trkpt lat="41.3756070" lon="-8.7626830">
        <ele>7.3</ele>
        <time>2021-05-16T13:08:02Z</time>
      </trkpt>
      <trkpt lat="41.3756270" lon="-8.7626990">
        <ele>7.3</ele>
        <time>2021-05-16T13:08:03Z</time>
      </trkpt>
      <trkpt lat="41.3756350" lon="-8.7627030">
        <ele>7.3</ele>
        <time>2021-05-16T13:08:04Z</time>
      </trkpt>
      <trkpt lat="41.3756430" lon="-8.7627080">
        <ele>7.3</ele>
        <time>2021-05-16T13:08:05Z</time>
      </trkpt>
      <trkpt lat="41.3756480" lon="-8.7627160">
        <ele>7.2</ele>
        <time>2021-05-16T13:08:06Z</time>
      </trkpt>
      <trkpt lat="41.3756530" lon="-8.7627240">
        <ele>7.2</ele>
        <time>2021-05-16T13:08:07Z</time>
      </trkpt>
      <trkpt lat="41.3756640" lon="-8.7627360">
        <ele>7.2</ele>
        <time>2021-05-16T13:08:08Z</time>
      </trkpt>
      <trkpt lat="41.3756730" lon="-8.7627460">
        <ele>7.2</ele>
        <time>2021-05-16T13:08:09Z</time>
      </trkpt>
      <trkpt lat="41.3756860" lon="-8.7627500">
        <ele>7.2</ele>
        <time>2021-05-16T13:08:10Z</time>
      </trkpt>
      <trkpt lat="41.3756910" lon="-8.7627610">
        <ele>7.2</ele>
        <time>2021-05-16T13:08:11Z</time>
      </trkpt>
      <trkpt lat="41.3757090" lon="-8.7627750">
        <ele>7.2</ele>
        <time>2021-05-16T13:08:12Z</time>
      </trkpt>
      <trkpt lat="41.3757150" lon="-8.7627820">
        <ele>7.2</ele>
        <time>2021-05-16T13:08:13Z</time>
      </trkpt>
      <trkpt lat="41.3757220" lon="-8.7627880">
        <ele>7.2</ele>
        <time>2021-05-16T13:08:14Z</time>
      </trkpt>
      <trkpt lat="41.3757300" lon="-8.7627930">
        <ele>7.2</ele>
        <time>2021-05-16T13:08:15Z</time>
      </trkpt>
      <trkpt lat="41.3757410" lon="-8.7628000">
        <ele>7.1</ele>
        <time>2021-05-16T13:08:16Z</time>
      </trkpt>
      <trkpt lat="41.3757530" lon="-8.7628120">
        <ele>7.1</ele>
        <time>2021-05-16T13:08:17Z</time>
      </trkpt>
      <trkpt lat="41.3757640" lon="-8.7628190">
        <ele>7.1</ele>
        <time>2021-05-16T13:08:18Z</time>
      </trkpt>
      <trkpt lat="41.3757750" lon="-8.7628260">
        <ele>7.1</ele>
        <time>2021-05-16T13:08:19Z</time>
      </trkpt>
      <trkpt lat="41.3757850" lon="-8.7628340">
        <ele>7.1</ele>
        <time>2021-05-16T13:08:20Z</time>
      </trkpt>
      <trkpt lat="41.3757940" lon="-8.7628450">
        <ele>7.1</ele>
        <time>2021-05-16T13:08:21Z</time>
      </trkpt>
      <trkpt lat="41.3758070" lon="-8.7628560">
        <ele>7.0</ele>
        <time>2021-05-16T13:08:22Z</time>
      </trkpt>
      <trkpt lat="41.3758250" lon="-8.7628760">
        <ele>7.0</ele>
        <time>2021-05-16T13:08:23Z</time>
      </trkpt>
      <trkpt lat="41.3758300" lon="-8.7628850">
        <ele>7.0</ele>
        <time>2021-05-16T13:08:24Z</time>
      </trkpt>
      <trkpt lat="41.3758360" lon="-8.7628930">
        <ele>7.0</ele>
        <time>2021-05-16T13:08:25Z</time>
      </trkpt>
      <trkpt lat="41.3758440" lon="-8.7629040">
        <ele>6.9</ele>
        <time>2021-05-16T13:08:26Z</time>
      </trkpt>
      <trkpt lat="41.3758560" lon="-8.7629190">
        <ele>6.9</ele>
        <time>2021-05-16T13:08:27Z</time>
      </trkpt>
      <trkpt lat="41.3758710" lon="-8.7629310">
        <ele>6.8</ele>
        <time>2021-05-16T13:08:28Z</time>
      </trkpt>
      <trkpt lat="41.3758800" lon="-8.7629370">
        <ele>6.8</ele>
        <time>2021-05-16T13:08:29Z</time>
      </trkpt>
      <trkpt lat="41.3758880" lon="-8.7629440">
        <ele>6.8</ele>
        <time>2021-05-16T13:08:30Z</time>
      </trkpt>
      <trkpt lat="41.3758980" lon="-8.7629510">
        <ele>6.8</ele>
        <time>2021-05-16T13:08:31Z</time>
      </trkpt>
      <trkpt lat="41.3759090" lon="-8.7629610">
        <ele>6.7</ele>
        <time>2021-05-16T13:08:32Z</time>
      </trkpt>
      <trkpt lat="41.3759120" lon="-8.7629780">
        <ele>6.7</ele>
        <time>2021-05-16T13:08:33Z</time>
      </trkpt>
      <trkpt lat="41.3759260" lon="-8.7629840">
        <ele>6.7</ele>
        <time>2021-05-16T13:08:34Z</time>
      </trkpt>
      <trkpt lat="41.3759330" lon="-8.7630020">
        <ele>6.7</ele>
        <time>2021-05-16T13:08:35Z</time>
      </trkpt>
      <trkpt lat="41.3759410" lon="-8.7630030">
        <ele>6.7</ele>
        <time>2021-05-16T13:08:36Z</time>
      </trkpt>
      <trkpt lat="41.3759520" lon="-8.7630120">
        <ele>6.6</ele>
        <time>2021-05-16T13:08:37Z</time>
      </trkpt>
      <trkpt lat="41.3759630" lon="-8.7630260">
        <ele>6.6</ele>
        <time>2021-05-16T13:08:38Z</time>
      </trkpt>
      <trkpt lat="41.3759740" lon="-8.7630380">
        <ele>6.6</ele>
        <time>2021-05-16T13:08:39Z</time>
      </trkpt>
      <trkpt lat="41.3759850" lon="-8.7630620">
        <ele>6.6</ele>
        <time>2021-05-16T13:08:40Z</time>
      </trkpt>
      <trkpt lat="41.3759950" lon="-8.7630770">
        <ele>6.5</ele>
        <time>2021-05-16T13:08:41Z</time>
      </trkpt>
      <trkpt lat="41.3760040" lon="-8.7630950">
        <ele>6.5</ele>
        <time>2021-05-16T13:08:42Z</time>
      </trkpt>
      <trkpt lat="41.3760150" lon="-8.7631110">
        <ele>6.5</ele>
        <time>2021-05-16T13:08:43Z</time>
      </trkpt>
      <trkpt lat="41.3760260" lon="-8.7631270">
        <ele>6.5</ele>
        <time>2021-05-16T13:08:44Z</time>
      </trkpt>
      <trkpt lat="41.3760360" lon="-8.7631400">
        <ele>6.5</ele>
        <time>2021-05-16T13:08:45Z</time>
      </trkpt>
      <trkpt lat="41.3760500" lon="-8.7631500">
        <ele>6.4</ele>
        <time>2021-05-16T13:08:46Z</time>
      </trkpt>
      <trkpt lat="41.3760610" lon="-8.7631660">
        <ele>6.4</ele>
        <time>2021-05-16T13:08:47Z</time>
      </trkpt>
      <trkpt lat="41.3760700" lon="-8.7631800">
        <ele>6.4</ele>
        <time>2021-05-16T13:08:48Z</time>
      </trkpt>
      <trkpt lat="41.3760820" lon="-8.7631940">
        <ele>6.4</ele>
        <time>2021-05-16T13:08:49Z</time>
      </trkpt>
      <trkpt lat="41.3760930" lon="-8.7632070">
        <ele>6.4</ele>
        <time>2021-05-16T13:08:50Z</time>
      </trkpt>
      <trkpt lat="41.3761030" lon="-8.7632210">
        <ele>6.4</ele>
        <time>2021-05-16T13:08:51Z</time>
      </trkpt>
      <trkpt lat="41.3761150" lon="-8.7632350">
        <ele>6.3</ele>
        <time>2021-05-16T13:08:52Z</time>
      </trkpt>
      <trkpt lat="41.3761240" lon="-8.7632530">
        <ele>6.3</ele>
        <time>2021-05-16T13:08:53Z</time>
      </trkpt>
      <trkpt lat="41.3761360" lon="-8.7632620">
        <ele>6.3</ele>
        <time>2021-05-16T13:08:54Z</time>
      </trkpt>
      <trkpt lat="41.3761480" lon="-8.7632710">
        <ele>6.3</ele>
        <time>2021-05-16T13:08:55Z</time>
      </trkpt>
      <trkpt lat="41.3761580" lon="-8.7632860">
        <ele>6.3</ele>
        <time>2021-05-16T13:08:56Z</time>
      </trkpt>
      <trkpt lat="41.3761680" lon="-8.7632990">
        <ele>6.3</ele>
        <time>2021-05-16T13:08:57Z</time>
      </trkpt>
      <trkpt lat="41.3761770" lon="-8.7633140">
        <ele>6.3</ele>
        <time>2021-05-16T13:08:58Z</time>
      </trkpt>
      <trkpt lat="41.3761830" lon="-8.7633330">
        <ele>6.3</ele>
        <time>2021-05-16T13:08:59Z</time>
      </trkpt>
      <trkpt lat="41.3761920" lon="-8.7633470">
        <ele>6.3</ele>
        <time>2021-05-16T13:09:00Z</time>
      </trkpt>
      <trkpt lat="41.3762060" lon="-8.7633550">
        <ele>6.3</ele>
        <time>2021-05-16T13:09:01Z</time>
      </trkpt>
      <trkpt lat="41.3762150" lon="-8.7633690">
        <ele>6.2</ele>
        <time>2021-05-16T13:09:02Z</time>
      </trkpt>
      <trkpt lat="41.3762280" lon="-8.7633790">
        <ele>6.2</ele>
        <time>2021-05-16T13:09:03Z</time>
      </trkpt>
      <trkpt lat="41.3762400" lon="-8.7633910">
        <ele>6.2</ele>
        <time>2021-05-16T13:09:04Z</time>
      </trkpt>
      <trkpt lat="41.3762520" lon="-8.7634030">
        <ele>6.2</ele>
        <time>2021-05-16T13:09:05Z</time>
      </trkpt>
      <trkpt lat="41.3762630" lon="-8.7634150">
        <ele>6.2</ele>
        <time>2021-05-16T13:09:06Z</time>
      </trkpt>
      <trkpt lat="41.3762710" lon="-8.7634280">
        <ele>6.2</ele>
        <time>2021-05-16T13:09:07Z</time>
      </trkpt>
      <trkpt lat="41.3762790" lon="-8.7634440">
        <ele>6.2</ele>
        <time>2021-05-16T13:09:08Z</time>
      </trkpt>
      <trkpt lat="41.3762910" lon="-8.7634520">
        <ele>6.2</ele>
        <time>2021-05-16T13:09:09Z</time>
      </trkpt>
      <trkpt lat="41.3763020" lon="-8.7634620">
        <ele>6.2</ele>
        <time>2021-05-16T13:09:10Z</time>
      </trkpt>
      <trkpt lat="41.3763130" lon="-8.7634760">
        <ele>6.2</ele>
        <time>2021-05-16T13:09:11Z</time>
      </trkpt>
      <trkpt lat="41.3763190" lon="-8.7634930">
        <ele>6.2</ele>
        <time>2021-05-16T13:09:12Z</time>
      </trkpt>
      <trkpt lat="41.3763290" lon="-8.7635050">
        <ele>6.3</ele>
        <time>2021-05-16T13:09:13Z</time>
      </trkpt>
      <trkpt lat="41.3763390" lon="-8.7635190">
        <ele>6.3</ele>
        <time>2021-05-16T13:09:14Z</time>
      </trkpt>
      <trkpt lat="41.3763480" lon="-8.7635340">
        <ele>6.3</ele>
        <time>2021-05-16T13:09:15Z</time>
      </trkpt>
      <trkpt lat="41.3763610" lon="-8.7635450">
        <ele>6.3</ele>
        <time>2021-05-16T13:09:16Z</time>
      </trkpt>
      <trkpt lat="41.3763670" lon="-8.7635620">
        <ele>6.3</ele>
        <time>2021-05-16T13:09:17Z</time>
      </trkpt>
      <trkpt lat="41.3763780" lon="-8.7635740">
        <ele>6.3</ele>
        <time>2021-05-16T13:09:18Z</time>
      </trkpt>
      <trkpt lat="41.3763840" lon="-8.7635910">
        <ele>6.3</ele>
        <time>2021-05-16T13:09:19Z</time>
      </trkpt>
      <trkpt lat="41.3763950" lon="-8.7636020">
        <ele>6.3</ele>
        <time>2021-05-16T13:09:20Z</time>
      </trkpt>
      <trkpt lat="41.3764040" lon="-8.7636170">
        <ele>6.3</ele>
        <time>2021-05-16T13:09:21Z</time>
      </trkpt>
      <trkpt lat="41.3764130" lon="-8.7636300">
        <ele>6.3</ele>
        <time>2021-05-16T13:09:22Z</time>
      </trkpt>
      <trkpt lat="41.3764220" lon="-8.7636450">
        <ele>6.3</ele>
        <time>2021-05-16T13:09:23Z</time>
      </trkpt>
      <trkpt lat="41.3764340" lon="-8.7636570">
        <ele>6.3</ele>
        <time>2021-05-16T13:09:24Z</time>
      </trkpt>
      <trkpt lat="41.3764410" lon="-8.7636710">
        <ele>6.3</ele>
        <time>2021-05-16T13:09:25Z</time>
      </trkpt>
      <trkpt lat="41.3764500" lon="-8.7636880">
        <ele>6.3</ele>
        <time>2021-05-16T13:09:26Z</time>
      </trkpt>
      <trkpt lat="41.3764610" lon="-8.7636980">
        <ele>6.3</ele>
        <time>2021-05-16T13:09:27Z</time>
      </trkpt>
      <trkpt lat="41.3764700" lon="-8.7637120">
        <ele>6.3</ele>
        <time>2021-05-16T13:09:28Z</time>
      </trkpt>
      <trkpt lat="41.3764880" lon="-8.7637280">
        <ele>6.3</ele>
        <time>2021-05-16T13:09:29Z</time>
      </trkpt>
      <trkpt lat="41.3764960" lon="-8.7637350">
        <ele>6.3</ele>
        <time>2021-05-16T13:09:30Z</time>
      </trkpt>
      <trkpt lat="41.3765030" lon="-8.7637410">
        <ele>6.3</ele>
        <time>2021-05-16T13:09:31Z</time>
      </trkpt>
      <trkpt lat="41.3765170" lon="-8.7637650">
        <ele>6.3</ele>
        <time>2021-05-16T13:09:32Z</time>
      </trkpt>
      <trkpt lat="41.3765240" lon="-8.7637720">
        <ele>6.3</ele>
        <time>2021-05-16T13:09:33Z</time>
      </trkpt>
      <trkpt lat="41.3765310" lon="-8.7637790">
        <ele>6.3</ele>
        <time>2021-05-16T13:09:34Z</time>
      </trkpt>
      <trkpt lat="41.3765440" lon="-8.7638050">
        <ele>6.3</ele>
        <time>2021-05-16T13:09:35Z</time>
      </trkpt>
      <trkpt lat="41.3765490" lon="-8.7638130">
        <ele>6.3</ele>
        <time>2021-05-16T13:09:36Z</time>
      </trkpt>
      <trkpt lat="41.3765550" lon="-8.7638210">
        <ele>6.3</ele>
        <time>2021-05-16T13:09:37Z</time>
      </trkpt>
      <trkpt lat="41.3765610" lon="-8.7638330">
        <ele>6.3</ele>
        <time>2021-05-16T13:09:38Z</time>
      </trkpt>
      <trkpt lat="41.3765710" lon="-8.7638450">
        <ele>6.3</ele>
        <time>2021-05-16T13:09:39Z</time>
      </trkpt>
      <trkpt lat="41.3765780" lon="-8.7638580">
        <ele>6.3</ele>
        <time>2021-05-16T13:09:40Z</time>
      </trkpt>
      <trkpt lat="41.3765950" lon="-8.7638770">
        <ele>6.3</ele>
        <time>2021-05-16T13:09:41Z</time>
      </trkpt>
      <trkpt lat="41.3766030" lon="-8.7638830">
        <ele>6.3</ele>
        <time>2021-05-16T13:09:42Z</time>
      </trkpt>
      <trkpt lat="41.3766100" lon="-8.7638900">
        <ele>6.3</ele>
        <time>2021-05-16T13:09:43Z</time>
      </trkpt>
      <trkpt lat="41.3766170" lon="-8.7639050">
        <ele>6.3</ele>
        <time>2021-05-16T13:09:44Z</time>
      </trkpt>
      <trkpt lat="41.3766280" lon="-8.7639180">
        <ele>6.3</ele>
        <time>2021-05-16T13:09:45Z</time>
      </trkpt>
      <trkpt lat="41.3766390" lon="-8.7639290">
        <ele>6.3</ele>
        <time>2021-05-16T13:09:46Z</time>
      </trkpt>
      <trkpt lat="41.3766450" lon="-8.7639460">
        <ele>6.3</ele>
        <time>2021-05-16T13:09:47Z</time>
      </trkpt>
      <trkpt lat="41.3766550" lon="-8.7639610">
        <ele>6.3</ele>
        <time>2021-05-16T13:09:48Z</time>
      </trkpt>
      <trkpt lat="41.3766600" lon="-8.7639770">
        <ele>6.3</ele>
        <time>2021-05-16T13:09:50Z</time>
      </trkpt>
      <trkpt lat="41.3766740" lon="-8.7640120">
        <ele>6.3</ele>
        <time>2021-05-16T13:09:51Z</time>
      </trkpt>
      <trkpt lat="41.3766830" lon="-8.7640380">
        <ele>6.4</ele>
        <time>2021-05-16T13:09:52Z</time>
      </trkpt>
      <trkpt lat="41.3766890" lon="-8.7640470">
        <ele>6.4</ele>
        <time>2021-05-16T13:09:53Z</time>
      </trkpt>
      <trkpt lat="41.3766950" lon="-8.7640550">
        <ele>6.4</ele>
        <time>2021-05-16T13:09:54Z</time>
      </trkpt>
      <trkpt lat="41.3767120" lon="-8.7640700">
        <ele>6.4</ele>
        <time>2021-05-16T13:09:55Z</time>
      </trkpt>
      <trkpt lat="41.3767190" lon="-8.7640770">
        <ele>6.4</ele>
        <time>2021-05-16T13:09:56Z</time>
      </trkpt>
      <trkpt lat="41.3767260" lon="-8.7640830">
        <ele>6.4</ele>
        <time>2021-05-16T13:09:57Z</time>
      </trkpt>
      <trkpt lat="41.3767440" lon="-8.7641000">
        <ele>6.4</ele>
        <time>2021-05-16T13:09:58Z</time>
      </trkpt>
      <trkpt lat="41.3767500" lon="-8.7641080">
        <ele>6.4</ele>
        <time>2021-05-16T13:09:59Z</time>
      </trkpt>
      <trkpt lat="41.3767570" lon="-8.7641160">
        <ele>6.4</ele>
        <time>2021-05-16T13:10:00Z</time>
      </trkpt>
      <trkpt lat="41.3767650" lon="-8.7641300">
        <ele>6.4</ele>
        <time>2021-05-16T13:10:01Z</time>
      </trkpt>
      <trkpt lat="41.3767780" lon="-8.7641380">
        <ele>6.4</ele>
        <time>2021-05-16T13:10:02Z</time>
      </trkpt>
      <trkpt lat="41.3767950" lon="-8.7641570">
        <ele>6.4</ele>
        <time>2021-05-16T13:10:03Z</time>
      </trkpt>
      <trkpt lat="41.3768000" lon="-8.7641660">
        <ele>6.4</ele>
        <time>2021-05-16T13:10:04Z</time>
      </trkpt>
      <trkpt lat="41.3768060" lon="-8.7641740">
        <ele>6.4</ele>
        <time>2021-05-16T13:10:05Z</time>
      </trkpt>
      <trkpt lat="41.3768220" lon="-8.7641930">
        <ele>6.4</ele>
        <time>2021-05-16T13:10:06Z</time>
      </trkpt>
      <trkpt lat="41.3768280" lon="-8.7642000">
        <ele>6.4</ele>
        <time>2021-05-16T13:10:07Z</time>
      </trkpt>
      <trkpt lat="41.3768350" lon="-8.7642070">
        <ele>6.4</ele>
        <time>2021-05-16T13:10:08Z</time>
      </trkpt>
      <trkpt lat="41.3768520" lon="-8.7642240">
        <ele>6.4</ele>
        <time>2021-05-16T13:10:09Z</time>
      </trkpt>
      <trkpt lat="41.3768570" lon="-8.7642320">
        <ele>6.4</ele>
        <time>2021-05-16T13:10:10Z</time>
      </trkpt>
      <trkpt lat="41.3768630" lon="-8.7642390">
        <ele>6.4</ele>
        <time>2021-05-16T13:10:11Z</time>
      </trkpt>
      <trkpt lat="41.3768750" lon="-8.7642490">
        <ele>6.4</ele>
        <time>2021-05-16T13:10:12Z</time>
      </trkpt>
      <trkpt lat="41.3768860" lon="-8.7642600">
        <ele>6.4</ele>
        <time>2021-05-16T13:10:13Z</time>
      </trkpt>
      <trkpt lat="41.3768950" lon="-8.7642730">
        <ele>6.4</ele>
        <time>2021-05-16T13:10:14Z</time>
      </trkpt>
      <trkpt lat="41.3769080" lon="-8.7642830">
        <ele>6.4</ele>
        <time>2021-05-16T13:10:15Z</time>
      </trkpt>
      <trkpt lat="41.3769190" lon="-8.7642920">
        <ele>6.4</ele>
        <time>2021-05-16T13:10:16Z</time>
      </trkpt>
      <trkpt lat="41.3769270" lon="-8.7643100">
        <ele>6.5</ele>
        <time>2021-05-16T13:10:17Z</time>
      </trkpt>
      <trkpt lat="41.3769370" lon="-8.7643250">
        <ele>6.5</ele>
        <time>2021-05-16T13:10:18Z</time>
      </trkpt>
      <trkpt lat="41.3769460" lon="-8.7643380">
        <ele>6.5</ele>
        <time>2021-05-16T13:10:19Z</time>
      </trkpt>
      <trkpt lat="41.3769570" lon="-8.7643510">
        <ele>6.5</ele>
        <time>2021-05-16T13:10:20Z</time>
      </trkpt>
      <trkpt lat="41.3769670" lon="-8.7643650">
        <ele>6.5</ele>
        <time>2021-05-16T13:10:21Z</time>
      </trkpt>
      <trkpt lat="41.3769780" lon="-8.7643760">
        <ele>6.5</ele>
        <time>2021-05-16T13:10:22Z</time>
      </trkpt>
      <trkpt lat="41.3769880" lon="-8.7643910">
        <ele>6.5</ele>
        <time>2021-05-16T13:10:23Z</time>
      </trkpt>
      <trkpt lat="41.3769960" lon="-8.7644060">
        <ele>6.5</ele>
        <time>2021-05-16T13:10:24Z</time>
      </trkpt>
      <trkpt lat="41.3770060" lon="-8.7644200">
        <ele>6.5</ele>
        <time>2021-05-16T13:10:25Z</time>
      </trkpt>
      <trkpt lat="41.3770180" lon="-8.7644310">
        <ele>6.5</ele>
        <time>2021-05-16T13:10:26Z</time>
      </trkpt>
      <trkpt lat="41.3770300" lon="-8.7644390">
        <ele>6.6</ele>
        <time>2021-05-16T13:10:27Z</time>
      </trkpt>
      <trkpt lat="41.3770370" lon="-8.7644580">
        <ele>6.6</ele>
        <time>2021-05-16T13:10:28Z</time>
      </trkpt>
      <trkpt lat="41.3770460" lon="-8.7644710">
        <ele>6.6</ele>
        <time>2021-05-16T13:10:29Z</time>
      </trkpt>
      <trkpt lat="41.3770600" lon="-8.7644900">
        <ele>6.6</ele>
        <time>2021-05-16T13:10:30Z</time>
      </trkpt>
      <trkpt lat="41.3770660" lon="-8.7644990">
        <ele>6.6</ele>
        <time>2021-05-16T13:10:31Z</time>
      </trkpt>
      <trkpt lat="41.3770710" lon="-8.7645080">
        <ele>6.6</ele>
        <time>2021-05-16T13:10:32Z</time>
      </trkpt>
      <trkpt lat="41.3770830" lon="-8.7645220">
        <ele>6.6</ele>
        <time>2021-05-16T13:10:33Z</time>
      </trkpt>
      <trkpt lat="41.3770920" lon="-8.7645340">
        <ele>6.6</ele>
        <time>2021-05-16T13:10:34Z</time>
      </trkpt>
      <trkpt lat="41.3771070" lon="-8.7645540">
        <ele>6.6</ele>
        <time>2021-05-16T13:10:35Z</time>
      </trkpt>
      <trkpt lat="41.3771130" lon="-8.7645620">
        <ele>6.6</ele>
        <time>2021-05-16T13:10:36Z</time>
      </trkpt>
      <trkpt lat="41.3771190" lon="-8.7645690">
        <ele>6.6</ele>
        <time>2021-05-16T13:10:37Z</time>
      </trkpt>
      <trkpt lat="41.3771350" lon="-8.7645860">
        <ele>6.6</ele>
        <time>2021-05-16T13:10:38Z</time>
      </trkpt>
      <trkpt lat="41.3771410" lon="-8.7645950">
        <ele>6.6</ele>
        <time>2021-05-16T13:10:39Z</time>
      </trkpt>
      <trkpt lat="41.3771470" lon="-8.7646030">
        <ele>6.6</ele>
        <time>2021-05-16T13:10:40Z</time>
      </trkpt>
      <trkpt lat="41.3771630" lon="-8.7646200">
        <ele>6.6</ele>
        <time>2021-05-16T13:10:41Z</time>
      </trkpt>
      <trkpt lat="41.3771700" lon="-8.7646270">
        <ele>6.6</ele>
        <time>2021-05-16T13:10:42Z</time>
      </trkpt>
      <trkpt lat="41.3771760" lon="-8.7646340">
        <ele>6.6</ele>
        <time>2021-05-16T13:10:43Z</time>
      </trkpt>
      <trkpt lat="41.3771910" lon="-8.7646530">
        <ele>6.6</ele>
        <time>2021-05-16T13:10:44Z</time>
      </trkpt>
      <trkpt lat="41.3771960" lon="-8.7646610">
        <ele>6.6</ele>
        <time>2021-05-16T13:10:45Z</time>
      </trkpt>
      <trkpt lat="41.3772020" lon="-8.7646680">
        <ele>6.6</ele>
        <time>2021-05-16T13:10:46Z</time>
      </trkpt>
      <trkpt lat="41.3772140" lon="-8.7646920">
        <ele>6.6</ele>
        <time>2021-05-16T13:10:47Z</time>
      </trkpt>
      <trkpt lat="41.3772180" lon="-8.7647000">
        <ele>6.4</ele>
        <time>2021-05-16T13:10:48Z</time>
      </trkpt>
      <trkpt lat="41.3772230" lon="-8.7647090">
        <ele>6.4</ele>
        <time>2021-05-16T13:10:49Z</time>
      </trkpt>
      <trkpt lat="41.3772310" lon="-8.7647220">
        <ele>6.4</ele>
        <time>2021-05-16T13:10:50Z</time>
      </trkpt>
      <trkpt lat="41.3772410" lon="-8.7647310">
        <ele>6.4</ele>
        <time>2021-05-16T13:10:51Z</time>
      </trkpt>
      <trkpt lat="41.3772530" lon="-8.7647360">
        <ele>6.4</ele>
        <time>2021-05-16T13:10:52Z</time>
      </trkpt>
      <trkpt lat="41.3772690" lon="-8.7647520">
        <ele>6.3</ele>
        <time>2021-05-16T13:10:53Z</time>
      </trkpt>
      <trkpt lat="41.3772760" lon="-8.7647600">
        <ele>6.3</ele>
        <time>2021-05-16T13:10:54Z</time>
      </trkpt>
      <trkpt lat="41.3772820" lon="-8.7647670">
        <ele>6.3</ele>
        <time>2021-05-16T13:10:55Z</time>
      </trkpt>
      <trkpt lat="41.3772960" lon="-8.7647890">
        <ele>6.3</ele>
        <time>2021-05-16T13:10:56Z</time>
      </trkpt>
      <trkpt lat="41.3773030" lon="-8.7647970">
        <ele>6.3</ele>
        <time>2021-05-16T13:10:57Z</time>
      </trkpt>
      <trkpt lat="41.3773090" lon="-8.7648050">
        <ele>6.3</ele>
        <time>2021-05-16T13:10:58Z</time>
      </trkpt>
      <trkpt lat="41.3773170" lon="-8.7648210">
        <ele>6.3</ele>
        <time>2021-05-16T13:10:59Z</time>
      </trkpt>
      <trkpt lat="41.3773270" lon="-8.7648360">
        <ele>6.3</ele>
        <time>2021-05-16T13:11:00Z</time>
      </trkpt>
      <trkpt lat="41.3773380" lon="-8.7648460">
        <ele>6.0</ele>
        <time>2021-05-16T13:11:01Z</time>
      </trkpt>
      <trkpt lat="41.3773470" lon="-8.7648600">
        <ele>6.0</ele>
        <time>2021-05-16T13:11:02Z</time>
      </trkpt>
      <trkpt lat="41.3773630" lon="-8.7648800">
        <ele>5.9</ele>
        <time>2021-05-16T13:11:03Z</time>
      </trkpt>
      <trkpt lat="41.3773690" lon="-8.7648880">
        <ele>5.9</ele>
        <time>2021-05-16T13:11:04Z</time>
      </trkpt>
      <trkpt lat="41.3773760" lon="-8.7648950">
        <ele>5.9</ele>
        <time>2021-05-16T13:11:05Z</time>
      </trkpt>
      <trkpt lat="41.3773880" lon="-8.7649190">
        <ele>5.9</ele>
        <time>2021-05-16T13:11:06Z</time>
      </trkpt>
      <trkpt lat="41.3773940" lon="-8.7649270">
        <ele>5.9</ele>
        <time>2021-05-16T13:11:07Z</time>
      </trkpt>
      <trkpt lat="41.3773990" lon="-8.7649360">
        <ele>5.9</ele>
        <time>2021-05-16T13:11:08Z</time>
      </trkpt>
      <trkpt lat="41.3774130" lon="-8.7649570">
        <ele>5.8</ele>
        <time>2021-05-16T13:11:09Z</time>
      </trkpt>
      <trkpt lat="41.3774210" lon="-8.7649640">
        <ele>5.8</ele>
        <time>2021-05-16T13:11:10Z</time>
      </trkpt>
      <trkpt lat="41.3774280" lon="-8.7649710">
        <ele>5.8</ele>
        <time>2021-05-16T13:11:11Z</time>
      </trkpt>
      <trkpt lat="41.3774400" lon="-8.7649950">
        <ele>5.8</ele>
        <time>2021-05-16T13:11:12Z</time>
      </trkpt>
      <trkpt lat="41.3774470" lon="-8.7650020">
        <ele>5.8</ele>
        <time>2021-05-16T13:11:13Z</time>
      </trkpt>
      <trkpt lat="41.3774530" lon="-8.7650100">
        <ele>5.8</ele>
        <time>2021-05-16T13:11:14Z</time>
      </trkpt>
      <trkpt lat="41.3774690" lon="-8.7650300">
        <ele>5.7</ele>
        <time>2021-05-16T13:11:15Z</time>
      </trkpt>
      <trkpt lat="41.3774750" lon="-8.7650410">
        <ele>5.7</ele>
        <time>2021-05-16T13:11:16Z</time>
      </trkpt>
      <trkpt lat="41.3774800" lon="-8.7650510">
        <ele>5.7</ele>
        <time>2021-05-16T13:11:17Z</time>
      </trkpt>
      <trkpt lat="41.3774950" lon="-8.7650730">
        <ele>5.7</ele>
        <time>2021-05-16T13:11:18Z</time>
      </trkpt>
      <trkpt lat="41.3775010" lon="-8.7650820">
        <ele>5.7</ele>
        <time>2021-05-16T13:11:19Z</time>
      </trkpt>
      <trkpt lat="41.3775080" lon="-8.7650900">
        <ele>5.7</ele>
        <time>2021-05-16T13:11:20Z</time>
      </trkpt>
      <trkpt lat="41.3775170" lon="-8.7651050">
        <ele>5.6</ele>
        <time>2021-05-16T13:11:21Z</time>
      </trkpt>
      <trkpt lat="41.3775250" lon="-8.7651200">
        <ele>5.6</ele>
        <time>2021-05-16T13:11:22Z</time>
      </trkpt>
      <trkpt lat="41.3775340" lon="-8.7651310">
        <ele>5.6</ele>
        <time>2021-05-16T13:11:23Z</time>
      </trkpt>
      <trkpt lat="41.3775440" lon="-8.7651440">
        <ele>5.6</ele>
        <time>2021-05-16T13:11:24Z</time>
      </trkpt>
      <trkpt lat="41.3775610" lon="-8.7651650">
        <ele>5.6</ele>
        <time>2021-05-16T13:11:25Z</time>
      </trkpt>
      <trkpt lat="41.3775680" lon="-8.7651710">
        <ele>5.6</ele>
        <time>2021-05-16T13:11:26Z</time>
      </trkpt>
      <trkpt lat="41.3775760" lon="-8.7651780">
        <ele>5.6</ele>
        <time>2021-05-16T13:11:27Z</time>
      </trkpt>
      <trkpt lat="41.3775890" lon="-8.7652020">
        <ele>5.6</ele>
        <time>2021-05-16T13:11:28Z</time>
      </trkpt>
      <trkpt lat="41.3775940" lon="-8.7652110">
        <ele>5.6</ele>
        <time>2021-05-16T13:11:29Z</time>
      </trkpt>
      <trkpt lat="41.3775990" lon="-8.7652210">
        <ele>5.5</ele>
        <time>2021-05-16T13:11:30Z</time>
      </trkpt>
      <trkpt lat="41.3776100" lon="-8.7652460">
        <ele>5.5</ele>
        <time>2021-05-16T13:11:31Z</time>
      </trkpt>
      <trkpt lat="41.3776160" lon="-8.7652540">
        <ele>5.5</ele>
        <time>2021-05-16T13:11:32Z</time>
      </trkpt>
      <trkpt lat="41.3776220" lon="-8.7652630">
        <ele>5.5</ele>
        <time>2021-05-16T13:11:33Z</time>
      </trkpt>
      <trkpt lat="41.3776350" lon="-8.7652840">
        <ele>5.5</ele>
        <time>2021-05-16T13:11:34Z</time>
      </trkpt>
      <trkpt lat="41.3776420" lon="-8.7652910">
        <ele>5.5</ele>
        <time>2021-05-16T13:11:35Z</time>
      </trkpt>
      <trkpt lat="41.3776480" lon="-8.7652980">
        <ele>5.5</ele>
        <time>2021-05-16T13:11:36Z</time>
      </trkpt>
      <trkpt lat="41.3776580" lon="-8.7653100">
        <ele>5.5</ele>
        <time>2021-05-16T13:11:37Z</time>
      </trkpt>
      <trkpt lat="41.3776680" lon="-8.7653230">
        <ele>5.5</ele>
        <time>2021-05-16T13:11:38Z</time>
      </trkpt>
      <trkpt lat="41.3776850" lon="-8.7653410">
        <ele>5.5</ele>
        <time>2021-05-16T13:11:39Z</time>
      </trkpt>
      <trkpt lat="41.3776910" lon="-8.7653490">
        <ele>5.5</ele>
        <time>2021-05-16T13:11:40Z</time>
      </trkpt>
      <trkpt lat="41.3776960" lon="-8.7653560">
        <ele>5.5</ele>
        <time>2021-05-16T13:11:41Z</time>
      </trkpt>
      <trkpt lat="41.3777100" lon="-8.7653770">
        <ele>5.4</ele>
        <time>2021-05-16T13:11:42Z</time>
      </trkpt>
      <trkpt lat="41.3777170" lon="-8.7653840">
        <ele>5.4</ele>
        <time>2021-05-16T13:11:43Z</time>
      </trkpt>
      <trkpt lat="41.3777230" lon="-8.7653920">
        <ele>5.4</ele>
        <time>2021-05-16T13:11:44Z</time>
      </trkpt>
      <trkpt lat="41.3777300" lon="-8.7654070">
        <ele>5.4</ele>
        <time>2021-05-16T13:11:45Z</time>
      </trkpt>
      <trkpt lat="41.3777420" lon="-8.7654210">
        <ele>5.4</ele>
        <time>2021-05-16T13:11:46Z</time>
      </trkpt>
      <trkpt lat="41.3777490" lon="-8.7654390">
        <ele>5.4</ele>
        <time>2021-05-16T13:11:47Z</time>
      </trkpt>
      <trkpt lat="41.3777550" lon="-8.7654570">
        <ele>5.4</ele>
        <time>2021-05-16T13:11:48Z</time>
      </trkpt>
      <trkpt lat="41.3777610" lon="-8.7654750">
        <ele>5.4</ele>
        <time>2021-05-16T13:11:50Z</time>
      </trkpt>
      <trkpt lat="41.3777650" lon="-8.7654940">
        <ele>5.3</ele>
        <time>2021-05-16T13:11:51Z</time>
      </trkpt>
      <trkpt lat="41.3777710" lon="-8.7655120">
        <ele>5.3</ele>
        <time>2021-05-16T13:11:52Z</time>
      </trkpt>
      <trkpt lat="41.3777780" lon="-8.7655280">
        <ele>5.3</ele>
        <time>2021-05-16T13:11:53Z</time>
      </trkpt>
      <trkpt lat="41.3777860" lon="-8.7655560">
        <ele>5.3</ele>
        <time>2021-05-16T13:11:54Z</time>
      </trkpt>
      <trkpt lat="41.3777900" lon="-8.7655650">
        <ele>5.3</ele>
        <time>2021-05-16T13:11:55Z</time>
      </trkpt>
      <trkpt lat="41.3777940" lon="-8.7655750">
        <ele>5.3</ele>
        <time>2021-05-16T13:11:56Z</time>
      </trkpt>
      <trkpt lat="41.3777980" lon="-8.7656130">
        <ele>5.3</ele>
        <time>2021-05-16T13:11:57Z</time>
      </trkpt>
      <trkpt lat="41.3778080" lon="-8.7656390">
        <ele>5.2</ele>
        <time>2021-05-16T13:11:58Z</time>
      </trkpt>
      <trkpt lat="41.3778110" lon="-8.7656490">
        <ele>5.2</ele>
        <time>2021-05-16T13:11:59Z</time>
      </trkpt>
      <trkpt lat="41.3778150" lon="-8.7656600">
        <ele>5.2</ele>
        <time>2021-05-16T13:12:00Z</time>
      </trkpt>
      <trkpt lat="41.3778180" lon="-8.7656810">
        <ele>5.2</ele>
        <time>2021-05-16T13:12:01Z</time>
      </trkpt>
      <trkpt lat="41.3778240" lon="-8.7656980">
        <ele>5.2</ele>
        <time>2021-05-16T13:12:02Z</time>
      </trkpt>
      <trkpt lat="41.3778260" lon="-8.7657180">
        <ele>5.2</ele>
        <time>2021-05-16T13:12:03Z</time>
      </trkpt>
      <trkpt lat="41.3778290" lon="-8.7657350">
        <ele>5.2</ele>
        <time>2021-05-16T13:12:04Z</time>
      </trkpt>
      <trkpt lat="41.3778400" lon="-8.7657600">
        <ele>5.2</ele>
        <time>2021-05-16T13:12:05Z</time>
      </trkpt>
      <trkpt lat="41.3778440" lon="-8.7657700">
        <ele>5.2</ele>
        <time>2021-05-16T13:12:06Z</time>
      </trkpt>
      <trkpt lat="41.3778480" lon="-8.7657810">
        <ele>5.2</ele>
        <time>2021-05-16T13:12:07Z</time>
      </trkpt>
      <trkpt lat="41.3778520" lon="-8.7658010">
        <ele>5.2</ele>
        <time>2021-05-16T13:12:08Z</time>
      </trkpt>
      <trkpt lat="41.3778540" lon="-8.7658180">
        <ele>5.2</ele>
        <time>2021-05-16T13:12:09Z</time>
      </trkpt>
      <trkpt lat="41.3778570" lon="-8.7658320">
        <ele>5.2</ele>
        <time>2021-05-16T13:12:10Z</time>
      </trkpt>
      <trkpt lat="41.3778610" lon="-8.7658470">
        <ele>5.2</ele>
        <time>2021-05-16T13:12:11Z</time>
      </trkpt>
      <trkpt lat="41.3778620" lon="-8.7658640">
        <ele>5.2</ele>
        <time>2021-05-16T13:12:12Z</time>
      </trkpt>
      <trkpt lat="41.3778710" lon="-8.7658910">
        <ele>5.1</ele>
        <time>2021-05-16T13:12:13Z</time>
      </trkpt>
      <trkpt lat="41.3778740" lon="-8.7659010">
        <ele>5.1</ele>
        <time>2021-05-16T13:12:14Z</time>
      </trkpt>
      <trkpt lat="41.3778770" lon="-8.7659120">
        <ele>5.1</ele>
        <time>2021-05-16T13:12:15Z</time>
      </trkpt>
      <trkpt lat="41.3778810" lon="-8.7659290">
        <ele>5.1</ele>
        <time>2021-05-16T13:12:16Z</time>
      </trkpt>
      <trkpt lat="41.3778850" lon="-8.7659470">
        <ele>5.1</ele>
        <time>2021-05-16T13:12:17Z</time>
      </trkpt>
      <trkpt lat="41.3778880" lon="-8.7659660">
        <ele>5.1</ele>
        <time>2021-05-16T13:12:18Z</time>
      </trkpt>
      <trkpt lat="41.3778960" lon="-8.7659810">
        <ele>5.1</ele>
        <time>2021-05-16T13:12:19Z</time>
      </trkpt>
      <trkpt lat="41.3779010" lon="-8.7659980">
        <ele>5.1</ele>
        <time>2021-05-16T13:12:20Z</time>
      </trkpt>
      <trkpt lat="41.3779050" lon="-8.7660170">
        <ele>5.1</ele>
        <time>2021-05-16T13:12:21Z</time>
      </trkpt>
      <trkpt lat="41.3779090" lon="-8.7660350">
        <ele>5.1</ele>
        <time>2021-05-16T13:12:22Z</time>
      </trkpt>
      <trkpt lat="41.3779080" lon="-8.7660540">
        <ele>5.1</ele>
        <time>2021-05-16T13:12:23Z</time>
      </trkpt>
      <trkpt lat="41.3779160" lon="-8.7660820">
        <ele>5.1</ele>
        <time>2021-05-16T13:12:24Z</time>
      </trkpt>
      <trkpt lat="41.3779190" lon="-8.7660930">
        <ele>5.1</ele>
        <time>2021-05-16T13:12:25Z</time>
      </trkpt>
      <trkpt lat="41.3779230" lon="-8.7661040">
        <ele>5.1</ele>
        <time>2021-05-16T13:12:26Z</time>
      </trkpt>
      <trkpt lat="41.3779300" lon="-8.7661320">
        <ele>5.1</ele>
        <time>2021-05-16T13:12:27Z</time>
      </trkpt>
      <trkpt lat="41.3779340" lon="-8.7661420">
        <ele>5.1</ele>
        <time>2021-05-16T13:12:28Z</time>
      </trkpt>
      <trkpt lat="41.3779370" lon="-8.7661530">
        <ele>5.1</ele>
        <time>2021-05-16T13:12:29Z</time>
      </trkpt>
      <trkpt lat="41.3779410" lon="-8.7661820">
        <ele>5.1</ele>
        <time>2021-05-16T13:12:30Z</time>
      </trkpt>
      <trkpt lat="41.3779440" lon="-8.7661930">
        <ele>5.1</ele>
        <time>2021-05-16T13:12:31Z</time>
      </trkpt>
      <trkpt lat="41.3779480" lon="-8.7662030">
        <ele>5.1</ele>
        <time>2021-05-16T13:12:32Z</time>
      </trkpt>
      <trkpt lat="41.3779590" lon="-8.7662270">
        <ele>5.1</ele>
        <time>2021-05-16T13:12:33Z</time>
      </trkpt>
      <trkpt lat="41.3779640" lon="-8.7662380">
        <ele>5.1</ele>
        <time>2021-05-16T13:12:34Z</time>
      </trkpt>
      <trkpt lat="41.3779680" lon="-8.7662480">
        <ele>5.1</ele>
        <time>2021-05-16T13:12:35Z</time>
      </trkpt>
      <trkpt lat="41.3779710" lon="-8.7662770">
        <ele>5.1</ele>
        <time>2021-05-16T13:12:36Z</time>
      </trkpt>
      <trkpt lat="41.3779710" lon="-8.7662880">
        <ele>5.1</ele>
        <time>2021-05-16T13:12:37Z</time>
      </trkpt>
      <trkpt lat="41.3779720" lon="-8.7663000">
        <ele>5.1</ele>
        <time>2021-05-16T13:12:38Z</time>
      </trkpt>
      <trkpt lat="41.3779750" lon="-8.7663200">
        <ele>5.0</ele>
        <time>2021-05-16T13:12:39Z</time>
      </trkpt>
      <trkpt lat="41.3779780" lon="-8.7663370">
        <ele>5.0</ele>
        <time>2021-05-16T13:12:40Z</time>
      </trkpt>
      <trkpt lat="41.3779830" lon="-8.7663550">
        <ele>5.0</ele>
        <time>2021-05-16T13:12:41Z</time>
      </trkpt>
      <trkpt lat="41.3779880" lon="-8.7663720">
        <ele>5.0</ele>
        <time>2021-05-16T13:12:42Z</time>
      </trkpt>
      <trkpt lat="41.3779920" lon="-8.7663870">
        <ele>5.0</ele>
        <time>2021-05-16T13:12:43Z</time>
      </trkpt>
      <trkpt lat="41.3779950" lon="-8.7664020">
        <ele>5.0</ele>
        <time>2021-05-16T13:12:44Z</time>
      </trkpt>
      <trkpt lat="41.3779940" lon="-8.7664190">
        <ele>5.0</ele>
        <time>2021-05-16T13:12:45Z</time>
      </trkpt>
      <trkpt lat="41.3780000" lon="-8.7664330">
        <ele>5.0</ele>
        <time>2021-05-16T13:12:46Z</time>
      </trkpt>
      <trkpt lat="41.3780010" lon="-8.7664480">
        <ele>5.0</ele>
        <time>2021-05-16T13:12:47Z</time>
      </trkpt>
      <trkpt lat="41.3780020" lon="-8.7664590">
        <ele>5.0</ele>
        <time>2021-05-16T13:12:48Z</time>
      </trkpt>
      <trkpt lat="41.3780070" lon="-8.7664630">
        <ele>5.0</ele>
        <time>2021-05-16T13:12:49Z</time>
      </trkpt>
      <trkpt lat="41.3780110" lon="-8.7664710">
        <ele>5.0</ele>
        <time>2021-05-16T13:12:50Z</time>
      </trkpt>
      <trkpt lat="41.3780130" lon="-8.7664850">
        <ele>5.0</ele>
        <time>2021-05-16T13:12:51Z</time>
      </trkpt>
      <trkpt lat="41.3780140" lon="-8.7665020">
        <ele>5.0</ele>
        <time>2021-05-16T13:12:52Z</time>
      </trkpt>
      <trkpt lat="41.3780180" lon="-8.7665320">
        <ele>5.0</ele>
        <time>2021-05-16T13:12:53Z</time>
      </trkpt>
      <trkpt lat="41.3780200" lon="-8.7665420">
        <ele>5.0</ele>
        <time>2021-05-16T13:12:54Z</time>
      </trkpt>
      <trkpt lat="41.3780230" lon="-8.7665520">
        <ele>5.0</ele>
        <time>2021-05-16T13:12:55Z</time>
      </trkpt>
      <trkpt lat="41.3780250" lon="-8.7665710">
        <ele>5.0</ele>
        <time>2021-05-16T13:12:56Z</time>
      </trkpt>
      <trkpt lat="41.3780350" lon="-8.7665870">
        <ele>5.0</ele>
        <time>2021-05-16T13:12:57Z</time>
      </trkpt>
      <trkpt lat="41.3780370" lon="-8.7666050">
        <ele>5.0</ele>
        <time>2021-05-16T13:12:58Z</time>
      </trkpt>
      <trkpt lat="41.3780450" lon="-8.7666210">
        <ele>5.0</ele>
        <time>2021-05-16T13:12:59Z</time>
      </trkpt>
      <trkpt lat="41.3780470" lon="-8.7666400">
        <ele>5.0</ele>
        <time>2021-05-16T13:13:00Z</time>
      </trkpt>
      <trkpt lat="41.3780490" lon="-8.7666580">
        <ele>5.0</ele>
        <time>2021-05-16T13:13:01Z</time>
      </trkpt>
      <trkpt lat="41.3780460" lon="-8.7666730">
        <ele>5.0</ele>
        <time>2021-05-16T13:13:02Z</time>
      </trkpt>
      <trkpt lat="41.3780480" lon="-8.7666790">
        <ele>5.0</ele>
        <time>2021-05-16T13:13:03Z</time>
      </trkpt>
      <trkpt lat="41.3780470" lon="-8.7666870">
        <ele>5.0</ele>
        <time>2021-05-16T13:13:04Z</time>
      </trkpt>
      <trkpt lat="41.3780460" lon="-8.7667050">
        <ele>5.0</ele>
        <time>2021-05-16T13:13:05Z</time>
      </trkpt>
      <trkpt lat="41.3780460" lon="-8.7667200">
        <ele>5.0</ele>
        <time>2021-05-16T13:13:06Z</time>
      </trkpt>
      <trkpt lat="41.3780470" lon="-8.7667290">
        <ele>5.0</ele>
        <time>2021-05-16T13:13:07Z</time>
      </trkpt>
      <trkpt lat="41.3780500" lon="-8.7667410">
        <ele>5.0</ele>
        <time>2021-05-16T13:13:08Z</time>
      </trkpt>
      <trkpt lat="41.3780540" lon="-8.7667700">
        <ele>5.0</ele>
        <time>2021-05-16T13:13:09Z</time>
      </trkpt>
      <trkpt lat="41.3780570" lon="-8.7667800">
        <ele>5.0</ele>
        <time>2021-05-16T13:13:10Z</time>
      </trkpt>
      <trkpt lat="41.3780590" lon="-8.7667890">
        <ele>5.0</ele>
        <time>2021-05-16T13:13:11Z</time>
      </trkpt>
      <trkpt lat="41.3780630" lon="-8.7668040">
        <ele>5.1</ele>
        <time>2021-05-16T13:13:12Z</time>
      </trkpt>
      <trkpt lat="41.3780650" lon="-8.7668170">
        <ele>5.1</ele>
        <time>2021-05-16T13:13:13Z</time>
      </trkpt>
      <trkpt lat="41.3780640" lon="-8.7668290">
        <ele>5.1</ele>
        <time>2021-05-16T13:13:14Z</time>
      </trkpt>
      <trkpt lat="41.3780670" lon="-8.7668340">
        <ele>5.1</ele>
        <time>2021-05-16T13:13:15Z</time>
      </trkpt>
      <trkpt lat="41.3780680" lon="-8.7668450">
        <ele>5.1</ele>
        <time>2021-05-16T13:13:16Z</time>
      </trkpt>
      <trkpt lat="41.3780700" lon="-8.7668670">
        <ele>5.1</ele>
        <time>2021-05-16T13:13:17Z</time>
      </trkpt>
      <trkpt lat="41.3780770" lon="-8.7668800">
        <ele>5.1</ele>
        <time>2021-05-16T13:13:18Z</time>
      </trkpt>
      <trkpt lat="41.3780770" lon="-8.7668910">
        <ele>5.1</ele>
        <time>2021-05-16T13:13:19Z</time>
      </trkpt>
      <trkpt lat="41.3780800" lon="-8.7669070">
        <ele>5.1</ele>
        <time>2021-05-16T13:13:20Z</time>
      </trkpt>
      <trkpt lat="41.3780860" lon="-8.7669290">
        <ele>5.1</ele>
        <time>2021-05-16T13:13:21Z</time>
      </trkpt>
      <trkpt lat="41.3780900" lon="-8.7669370">
        <ele>5.1</ele>
        <time>2021-05-16T13:13:22Z</time>
      </trkpt>
      <trkpt lat="41.3780930" lon="-8.7669460">
        <ele>5.1</ele>
        <time>2021-05-16T13:13:23Z</time>
      </trkpt>
      <trkpt lat="41.3780960" lon="-8.7669540">
        <ele>5.1</ele>
        <time>2021-05-16T13:13:24Z</time>
      </trkpt>
      <trkpt lat="41.3781040" lon="-8.7669730">
        <ele>5.1</ele>
        <time>2021-05-16T13:13:25Z</time>
      </trkpt>
      <trkpt lat="41.3781080" lon="-8.7669890">
        <ele>5.1</ele>
        <time>2021-05-16T13:13:26Z</time>
      </trkpt>
      <trkpt lat="41.3781130" lon="-8.7670070">
        <ele>5.1</ele>
        <time>2021-05-16T13:13:27Z</time>
      </trkpt>
      <trkpt lat="41.3781220" lon="-8.7670200">
        <ele>5.2</ele>
        <time>2021-05-16T13:13:28Z</time>
      </trkpt>
      <trkpt lat="41.3781310" lon="-8.7670380">
        <ele>5.2</ele>
        <time>2021-05-16T13:13:29Z</time>
      </trkpt>
      <trkpt lat="41.3781310" lon="-8.7670540">
        <ele>5.2</ele>
        <time>2021-05-16T13:13:30Z</time>
      </trkpt>
      <trkpt lat="41.3781420" lon="-8.7670850">
        <ele>5.2</ele>
        <time>2021-05-16T13:13:31Z</time>
      </trkpt>
      <trkpt lat="41.3781450" lon="-8.7670940">
        <ele>5.2</ele>
        <time>2021-05-16T13:13:32Z</time>
      </trkpt>
      <trkpt lat="41.3781480" lon="-8.7671040">
        <ele>5.2</ele>
        <time>2021-05-16T13:13:33Z</time>
      </trkpt>
      <trkpt lat="41.3781550" lon="-8.7671330">
        <ele>5.2</ele>
        <time>2021-05-16T13:13:34Z</time>
      </trkpt>
      <trkpt lat="41.3781580" lon="-8.7671440">
        <ele>5.2</ele>
        <time>2021-05-16T13:13:35Z</time>
      </trkpt>
      <trkpt lat="41.3781600" lon="-8.7671550">
        <ele>5.2</ele>
        <time>2021-05-16T13:13:36Z</time>
      </trkpt>
      <trkpt lat="41.3781650" lon="-8.7671770">
        <ele>5.3</ele>
        <time>2021-05-16T13:13:37Z</time>
      </trkpt>
      <trkpt lat="41.3781670" lon="-8.7671960">
        <ele>5.3</ele>
        <time>2021-05-16T13:13:38Z</time>
      </trkpt>
      <trkpt lat="41.3781710" lon="-8.7672150">
        <ele>5.3</ele>
        <time>2021-05-16T13:13:39Z</time>
      </trkpt>
      <trkpt lat="41.3781760" lon="-8.7672330">
        <ele>5.3</ele>
        <time>2021-05-16T13:13:40Z</time>
      </trkpt>
      <trkpt lat="41.3781810" lon="-8.7672510">
        <ele>5.3</ele>
        <time>2021-05-16T13:13:41Z</time>
      </trkpt>
      <trkpt lat="41.3781840" lon="-8.7672690">
        <ele>5.3</ele>
        <time>2021-05-16T13:13:42Z</time>
      </trkpt>
      <trkpt lat="41.3781960" lon="-8.7672850">
        <ele>5.3</ele>
        <time>2021-05-16T13:13:43Z</time>
      </trkpt>
      <trkpt lat="41.3781990" lon="-8.7673050">
        <ele>5.3</ele>
        <time>2021-05-16T13:13:44Z</time>
      </trkpt>
      <trkpt lat="41.3782020" lon="-8.7673250">
        <ele>5.3</ele>
        <time>2021-05-16T13:13:45Z</time>
      </trkpt>
      <trkpt lat="41.3782080" lon="-8.7673440">
        <ele>5.3</ele>
        <time>2021-05-16T13:13:46Z</time>
      </trkpt>
      <trkpt lat="41.3782140" lon="-8.7673620">
        <ele>5.3</ele>
        <time>2021-05-16T13:13:47Z</time>
      </trkpt>
      <trkpt lat="41.3782180" lon="-8.7673810">
        <ele>5.3</ele>
        <time>2021-05-16T13:13:48Z</time>
      </trkpt>
      <trkpt lat="41.3782250" lon="-8.7673980">
        <ele>5.3</ele>
        <time>2021-05-16T13:13:49Z</time>
      </trkpt>
      <trkpt lat="41.3782320" lon="-8.7674160">
        <ele>5.3</ele>
        <time>2021-05-16T13:13:50Z</time>
      </trkpt>
      <trkpt lat="41.3782370" lon="-8.7674310">
        <ele>5.3</ele>
        <time>2021-05-16T13:13:52Z</time>
      </trkpt>
      <trkpt lat="41.3782430" lon="-8.7674500">
        <ele>5.3</ele>
        <time>2021-05-16T13:13:53Z</time>
      </trkpt>
      <trkpt lat="41.3782530" lon="-8.7674660">
        <ele>5.4</ele>
        <time>2021-05-16T13:13:54Z</time>
      </trkpt>
      <trkpt lat="41.3782640" lon="-8.7674800">
        <ele>5.4</ele>
        <time>2021-05-16T13:13:55Z</time>
      </trkpt>
      <trkpt lat="41.3782740" lon="-8.7674910">
        <ele>5.4</ele>
        <time>2021-05-16T13:13:56Z</time>
      </trkpt>
      <trkpt lat="41.3782850" lon="-8.7675020">
        <ele>5.4</ele>
        <time>2021-05-16T13:13:57Z</time>
      </trkpt>
      <trkpt lat="41.3782970" lon="-8.7675030">
        <ele>5.4</ele>
        <time>2021-05-16T13:13:58Z</time>
      </trkpt>
      <trkpt lat="41.3783140" lon="-8.7675030">
        <ele>5.4</ele>
        <time>2021-05-16T13:13:59Z</time>
      </trkpt>
      <trkpt lat="41.3783330" lon="-8.7675080">
        <ele>5.4</ele>
        <time>2021-05-16T13:14:00Z</time>
      </trkpt>
      <trkpt lat="41.3783420" lon="-8.7675100">
        <ele>5.4</ele>
        <time>2021-05-16T13:14:01Z</time>
      </trkpt>
      <trkpt lat="41.3783510" lon="-8.7675120">
        <ele>5.4</ele>
        <time>2021-05-16T13:14:02Z</time>
      </trkpt>
      <trkpt lat="41.3783840" lon="-8.7675150">
        <ele>5.4</ele>
        <time>2021-05-16T13:14:03Z</time>
      </trkpt>
      <trkpt lat="41.3783900" lon="-8.7675180">
        <ele>5.4</ele>
        <time>2021-05-16T13:14:04Z</time>
      </trkpt>
      <trkpt lat="41.3784100" lon="-8.7675210">
        <ele>5.4</ele>
        <time>2021-05-16T13:14:05Z</time>
      </trkpt>
      <trkpt lat="41.3784200" lon="-8.7675230">
        <ele>5.4</ele>
        <time>2021-05-16T13:14:06Z</time>
      </trkpt>
      <trkpt lat="41.3784290" lon="-8.7675260">
        <ele>5.4</ele>
        <time>2021-05-16T13:14:07Z</time>
      </trkpt>
      <trkpt lat="41.3784430" lon="-8.7675330">
        <ele>5.4</ele>
        <time>2021-05-16T13:14:08Z</time>
      </trkpt>
      <trkpt lat="41.3784570" lon="-8.7675410">
        <ele>5.4</ele>
        <time>2021-05-16T13:14:09Z</time>
      </trkpt>
      <trkpt lat="41.3784670" lon="-8.7675510">
        <ele>5.5</ele>
        <time>2021-05-16T13:14:10Z</time>
      </trkpt>
      <trkpt lat="41.3784700" lon="-8.7675580">
        <ele>5.5</ele>
        <time>2021-05-16T13:14:11Z</time>
      </trkpt>
      <trkpt lat="41.3784830" lon="-8.7675640">
        <ele>5.5</ele>
        <time>2021-05-16T13:14:12Z</time>
      </trkpt>
      <trkpt lat="41.3784940" lon="-8.7675730">
        <ele>5.5</ele>
        <time>2021-05-16T13:14:13Z</time>
      </trkpt>
      <trkpt lat="41.3785080" lon="-8.7675870">
        <ele>5.5</ele>
        <time>2021-05-16T13:14:14Z</time>
      </trkpt>
      <trkpt lat="41.3785140" lon="-8.7675910">
        <ele>5.5</ele>
        <time>2021-05-16T13:14:15Z</time>
      </trkpt>
      <trkpt lat="41.3785260" lon="-8.7675970">
        <ele>5.5</ele>
        <time>2021-05-16T13:14:16Z</time>
      </trkpt>
      <trkpt lat="41.3785400" lon="-8.7676080">
        <ele>5.5</ele>
        <time>2021-05-16T13:14:17Z</time>
      </trkpt>
      <trkpt lat="41.3785480" lon="-8.7676190">
        <ele>5.5</ele>
        <time>2021-05-16T13:14:18Z</time>
      </trkpt>
      <trkpt lat="41.3785570" lon="-8.7676240">
        <ele>5.5</ele>
        <time>2021-05-16T13:14:19Z</time>
      </trkpt>
      <trkpt lat="41.3785690" lon="-8.7676300">
        <ele>5.5</ele>
        <time>2021-05-16T13:14:20Z</time>
      </trkpt>
      <trkpt lat="41.3785780" lon="-8.7676370">
        <ele>5.5</ele>
        <time>2021-05-16T13:14:21Z</time>
      </trkpt>
      <trkpt lat="41.3785860" lon="-8.7676430">
        <ele>5.5</ele>
        <time>2021-05-16T13:14:22Z</time>
      </trkpt>
      <trkpt lat="41.3786000" lon="-8.7676470">
        <ele>5.6</ele>
        <time>2021-05-16T13:14:23Z</time>
      </trkpt>
      <trkpt lat="41.3786130" lon="-8.7676540">
        <ele>5.6</ele>
        <time>2021-05-16T13:14:24Z</time>
      </trkpt>
      <trkpt lat="41.3786260" lon="-8.7676710">
        <ele>5.6</ele>
        <time>2021-05-16T13:14:25Z</time>
      </trkpt>
      <trkpt lat="41.3786390" lon="-8.7676780">
        <ele>5.6</ele>
        <time>2021-05-16T13:14:26Z</time>
      </trkpt>
      <trkpt lat="41.3786540" lon="-8.7676840">
        <ele>5.6</ele>
        <time>2021-05-16T13:14:27Z</time>
      </trkpt>
      <trkpt lat="41.3786670" lon="-8.7676970">
        <ele>5.6</ele>
        <time>2021-05-16T13:14:28Z</time>
      </trkpt>
      <trkpt lat="41.3786800" lon="-8.7677050">
        <ele>5.6</ele>
        <time>2021-05-16T13:14:29Z</time>
      </trkpt>
      <trkpt lat="41.3786940" lon="-8.7677090">
        <ele>5.6</ele>
        <time>2021-05-16T13:14:30Z</time>
      </trkpt>
      <trkpt lat="41.3787090" lon="-8.7677090">
        <ele>5.7</ele>
        <time>2021-05-16T13:14:31Z</time>
      </trkpt>
      <trkpt lat="41.3787300" lon="-8.7677160">
        <ele>5.7</ele>
        <time>2021-05-16T13:14:32Z</time>
      </trkpt>
      <trkpt lat="41.3787380" lon="-8.7677180">
        <ele>5.7</ele>
        <time>2021-05-16T13:14:33Z</time>
      </trkpt>
      <trkpt lat="41.3787470" lon="-8.7677200">
        <ele>5.7</ele>
        <time>2021-05-16T13:14:34Z</time>
      </trkpt>
      <trkpt lat="41.3787670" lon="-8.7677230">
        <ele>5.7</ele>
        <time>2021-05-16T13:14:35Z</time>
      </trkpt>
      <trkpt lat="41.3787750" lon="-8.7677250">
        <ele>5.8</ele>
        <time>2021-05-16T13:14:36Z</time>
      </trkpt>
      <trkpt lat="41.3787840" lon="-8.7677270">
        <ele>5.8</ele>
        <time>2021-05-16T13:14:37Z</time>
      </trkpt>
      <trkpt lat="41.3788020" lon="-8.7677450">
        <ele>5.8</ele>
        <time>2021-05-16T13:14:38Z</time>
      </trkpt>
      <trkpt lat="41.3788100" lon="-8.7677510">
        <ele>5.8</ele>
        <time>2021-05-16T13:14:39Z</time>
      </trkpt>
      <trkpt lat="41.3788180" lon="-8.7677570">
        <ele>5.8</ele>
        <time>2021-05-16T13:14:40Z</time>
      </trkpt>
      <trkpt lat="41.3788270" lon="-8.7677680">
        <ele>5.8</ele>
        <time>2021-05-16T13:14:41Z</time>
      </trkpt>
      <trkpt lat="41.3788450" lon="-8.7677790">
        <ele>5.9</ele>
        <time>2021-05-16T13:14:42Z</time>
      </trkpt>
      <trkpt lat="41.3788590" lon="-8.7677840">
        <ele>5.9</ele>
        <time>2021-05-16T13:14:43Z</time>
      </trkpt>
      <trkpt lat="41.3788750" lon="-8.7677900">
        <ele>5.9</ele>
        <time>2021-05-16T13:14:44Z</time>
      </trkpt>
      <trkpt lat="41.3788870" lon="-8.7678000">
        <ele>5.9</ele>
        <time>2021-05-16T13:14:45Z</time>
      </trkpt>
      <trkpt lat="41.3788970" lon="-8.7678120">
        <ele>5.9</ele>
        <time>2021-05-16T13:14:46Z</time>
      </trkpt>
      <trkpt lat="41.3789110" lon="-8.7678180">
        <ele>6.0</ele>
        <time>2021-05-16T13:14:47Z</time>
      </trkpt>
      <trkpt lat="41.3789270" lon="-8.7678220">
        <ele>6.0</ele>
        <time>2021-05-16T13:14:48Z</time>
      </trkpt>
      <trkpt lat="41.3789430" lon="-8.7678290">
        <ele>6.0</ele>
        <time>2021-05-16T13:14:49Z</time>
      </trkpt>
      <trkpt lat="41.3789580" lon="-8.7678320">
        <ele>6.0</ele>
        <time>2021-05-16T13:14:50Z</time>
      </trkpt>
      <trkpt lat="41.3789720" lon="-8.7678420">
        <ele>6.0</ele>
        <time>2021-05-16T13:14:51Z</time>
      </trkpt>
      <trkpt lat="41.3789890" lon="-8.7678470">
        <ele>6.1</ele>
        <time>2021-05-16T13:14:52Z</time>
      </trkpt>
      <trkpt lat="41.3790040" lon="-8.7678510">
        <ele>6.1</ele>
        <time>2021-05-16T13:14:53Z</time>
      </trkpt>
      <trkpt lat="41.3790200" lon="-8.7678550">
        <ele>6.1</ele>
        <time>2021-05-16T13:14:54Z</time>
      </trkpt>
      <trkpt lat="41.3790340" lon="-8.7678650">
        <ele>6.1</ele>
        <time>2021-05-16T13:14:55Z</time>
      </trkpt>
      <trkpt lat="41.3790500" lon="-8.7678720">
        <ele>6.1</ele>
        <time>2021-05-16T13:14:56Z</time>
      </trkpt>
      <trkpt lat="41.3790640" lon="-8.7678800">
        <ele>6.2</ele>
        <time>2021-05-16T13:14:57Z</time>
      </trkpt>
      <trkpt lat="41.3790770" lon="-8.7678890">
        <ele>6.2</ele>
        <time>2021-05-16T13:14:58Z</time>
      </trkpt>
      <trkpt lat="41.3790900" lon="-8.7679000">
        <ele>6.2</ele>
        <time>2021-05-16T13:14:59Z</time>
      </trkpt>
      <trkpt lat="41.3791020" lon="-8.7679120">
        <ele>6.2</ele>
        <time>2021-05-16T13:15:00Z</time>
      </trkpt>
      <trkpt lat="41.3791160" lon="-8.7679210">
        <ele>6.2</ele>
        <time>2021-05-16T13:15:01Z</time>
      </trkpt>
      <trkpt lat="41.3791310" lon="-8.7679270">
        <ele>6.3</ele>
        <time>2021-05-16T13:15:02Z</time>
      </trkpt>
      <trkpt lat="41.3791460" lon="-8.7679300">
        <ele>6.3</ele>
        <time>2021-05-16T13:15:03Z</time>
      </trkpt>
      <trkpt lat="41.3791610" lon="-8.7679330">
        <ele>6.3</ele>
        <time>2021-05-16T13:15:04Z</time>
      </trkpt>
      <trkpt lat="41.3791760" lon="-8.7679330">
        <ele>6.3</ele>
        <time>2021-05-16T13:15:05Z</time>
      </trkpt>
      <trkpt lat="41.3791870" lon="-8.7679430">
        <ele>6.3</ele>
        <time>2021-05-16T13:15:06Z</time>
      </trkpt>
      <trkpt lat="41.3791980" lon="-8.7679520">
        <ele>6.4</ele>
        <time>2021-05-16T13:15:07Z</time>
      </trkpt>
      <trkpt lat="41.3792010" lon="-8.7679520">
        <ele>6.4</ele>
        <time>2021-05-16T13:15:08Z</time>
      </trkpt>
      <trkpt lat="41.3792140" lon="-8.7679600">
        <ele>6.4</ele>
        <time>2021-05-16T13:15:09Z</time>
      </trkpt>
      <trkpt lat="41.3792250" lon="-8.7679710">
        <ele>6.4</ele>
        <time>2021-05-16T13:15:10Z</time>
      </trkpt>
      <trkpt lat="41.3792390" lon="-8.7679850">
        <ele>6.4</ele>
        <time>2021-05-16T13:15:11Z</time>
      </trkpt>
      <trkpt lat="41.3792500" lon="-8.7679850">
        <ele>6.4</ele>
        <time>2021-05-16T13:15:12Z</time>
      </trkpt>
      <trkpt lat="41.3792600" lon="-8.7679860">
        <ele>6.4</ele>
        <time>2021-05-16T13:15:13Z</time>
      </trkpt>
      <trkpt lat="41.3792750" lon="-8.7679820">
        <ele>6.5</ele>
        <time>2021-05-16T13:15:14Z</time>
      </trkpt>
      <trkpt lat="41.3792890" lon="-8.7679880">
        <ele>6.5</ele>
        <time>2021-05-16T13:15:15Z</time>
      </trkpt>
      <trkpt lat="41.3793040" lon="-8.7679910">
        <ele>6.5</ele>
        <time>2021-05-16T13:15:16Z</time>
      </trkpt>
      <trkpt lat="41.3793150" lon="-8.7680040">
        <ele>6.5</ele>
        <time>2021-05-16T13:15:17Z</time>
      </trkpt>
      <trkpt lat="41.3793300" lon="-8.7680120">
        <ele>6.5</ele>
        <time>2021-05-16T13:15:18Z</time>
      </trkpt>
      <trkpt lat="41.3793580" lon="-8.7680240">
        <ele>6.6</ele>
        <time>2021-05-16T13:15:19Z</time>
      </trkpt>
      <trkpt lat="41.3793680" lon="-8.7680280">
        <ele>6.6</ele>
        <time>2021-05-16T13:15:20Z</time>
      </trkpt>
      <trkpt lat="41.3793840" lon="-8.7680350">
        <ele>6.6</ele>
        <time>2021-05-16T13:15:21Z</time>
      </trkpt>
      <trkpt lat="41.3793970" lon="-8.7680370">
        <ele>6.6</ele>
        <time>2021-05-16T13:15:22Z</time>
      </trkpt>
      <trkpt lat="41.3794160" lon="-8.7680380">
        <ele>6.7</ele>
        <time>2021-05-16T13:15:23Z</time>
      </trkpt>
      <trkpt lat="41.3794230" lon="-8.7680430">
        <ele>6.7</ele>
        <time>2021-05-16T13:15:24Z</time>
      </trkpt>
      <trkpt lat="41.3794290" lon="-8.7680470">
        <ele>6.7</ele>
        <time>2021-05-16T13:15:25Z</time>
      </trkpt>
      <trkpt lat="41.3794350" lon="-8.7680520">
        <ele>6.7</ele>
        <time>2021-05-16T13:15:26Z</time>
      </trkpt>
      <trkpt lat="41.3794630" lon="-8.7680640">
        <ele>6.7</ele>
        <time>2021-05-16T13:15:27Z</time>
      </trkpt>
      <trkpt lat="41.3794730" lon="-8.7680670">
        <ele>6.7</ele>
        <time>2021-05-16T13:15:28Z</time>
      </trkpt>
      <trkpt lat="41.3794830" lon="-8.7680770">
        <ele>6.8</ele>
        <time>2021-05-16T13:15:29Z</time>
      </trkpt>
      <trkpt lat="41.3794950" lon="-8.7680820">
        <ele>6.8</ele>
        <time>2021-05-16T13:15:30Z</time>
      </trkpt>
      <trkpt lat="41.3795020" lon="-8.7680870">
        <ele>6.8</ele>
        <time>2021-05-16T13:15:31Z</time>
      </trkpt>
      <trkpt lat="41.3795250" lon="-8.7680920">
        <ele>6.8</ele>
        <time>2021-05-16T13:15:32Z</time>
      </trkpt>
      <trkpt lat="41.3795320" lon="-8.7680950">
        <ele>6.8</ele>
        <time>2021-05-16T13:15:33Z</time>
      </trkpt>
      <trkpt lat="41.3795390" lon="-8.7680970">
        <ele>6.8</ele>
        <time>2021-05-16T13:15:34Z</time>
      </trkpt>
      <trkpt lat="41.3795630" lon="-8.7680900">
        <ele>6.9</ele>
        <time>2021-05-16T13:15:35Z</time>
      </trkpt>
      <trkpt lat="41.3795720" lon="-8.7680950">
        <ele>6.9</ele>
        <time>2021-05-16T13:15:36Z</time>
      </trkpt>
      <trkpt lat="41.3795910" lon="-8.7680930">
        <ele>6.9</ele>
        <time>2021-05-16T13:15:37Z</time>
      </trkpt>
      <trkpt lat="41.3796030" lon="-8.7681040">
        <ele>6.9</ele>
        <time>2021-05-16T13:15:38Z</time>
      </trkpt>
      <trkpt lat="41.3796270" lon="-8.7681120">
        <ele>6.9</ele>
        <time>2021-05-16T13:15:39Z</time>
      </trkpt>
      <trkpt lat="41.3796380" lon="-8.7681150">
        <ele>6.9</ele>
        <time>2021-05-16T13:15:40Z</time>
      </trkpt>
      <trkpt lat="41.3796490" lon="-8.7681190">
        <ele>6.9</ele>
        <time>2021-05-16T13:15:41Z</time>
      </trkpt>
      <trkpt lat="41.3796670" lon="-8.7681360">
        <ele>6.9</ele>
        <time>2021-05-16T13:15:42Z</time>
      </trkpt>
      <trkpt lat="41.3796750" lon="-8.7681410">
        <ele>6.9</ele>
        <time>2021-05-16T13:15:43Z</time>
      </trkpt>
      <trkpt lat="41.3796830" lon="-8.7681470">
        <ele>6.9</ele>
        <time>2021-05-16T13:15:44Z</time>
      </trkpt>
      <trkpt lat="41.3797030" lon="-8.7681580">
        <ele>6.9</ele>
        <time>2021-05-16T13:15:45Z</time>
      </trkpt>
      <trkpt lat="41.3797120" lon="-8.7681660">
        <ele>6.9</ele>
        <time>2021-05-16T13:15:46Z</time>
      </trkpt>
      <trkpt lat="41.3797210" lon="-8.7681740">
        <ele>6.9</ele>
        <time>2021-05-16T13:15:47Z</time>
      </trkpt>
      <trkpt lat="41.3797350" lon="-8.7681840">
        <ele>6.9</ele>
        <time>2021-05-16T13:15:48Z</time>
      </trkpt>
      <trkpt lat="41.3797480" lon="-8.7682030">
        <ele>6.9</ele>
        <time>2021-05-16T13:15:49Z</time>
      </trkpt>
      <trkpt lat="41.3797600" lon="-8.7682200">
        <ele>6.9</ele>
        <time>2021-05-16T13:15:50Z</time>
      </trkpt>
      <trkpt lat="41.3797740" lon="-8.7682270">
        <ele>6.9</ele>
        <time>2021-05-16T13:15:51Z</time>
      </trkpt>
      <trkpt lat="41.3797860" lon="-8.7682360">
        <ele>6.9</ele>
        <time>2021-05-16T13:15:52Z</time>
      </trkpt>
      <trkpt lat="41.3797970" lon="-8.7682480">
        <ele>6.9</ele>
        <time>2021-05-16T13:15:53Z</time>
      </trkpt>
      <trkpt lat="41.3798090" lon="-8.7682540">
        <ele>6.9</ele>
        <time>2021-05-16T13:15:54Z</time>
      </trkpt>
      <trkpt lat="41.3798250" lon="-8.7682560">
        <ele>6.9</ele>
        <time>2021-05-16T13:15:55Z</time>
      </trkpt>
      <trkpt lat="41.3798380" lon="-8.7682550">
        <ele>6.9</ele>
        <time>2021-05-16T13:15:56Z</time>
      </trkpt>
      <trkpt lat="41.3798450" lon="-8.7682610">
        <ele>6.9</ele>
        <time>2021-05-16T13:15:57Z</time>
      </trkpt>
      <trkpt lat="41.3798570" lon="-8.7682630">
        <ele>6.9</ele>
        <time>2021-05-16T13:15:58Z</time>
      </trkpt>
      <trkpt lat="41.3798780" lon="-8.7682710">
        <ele>6.9</ele>
        <time>2021-05-16T13:15:59Z</time>
      </trkpt>
      <trkpt lat="41.3798880" lon="-8.7682770">
        <ele>6.9</ele>
        <time>2021-05-16T13:16:00Z</time>
      </trkpt>
      <trkpt lat="41.3799000" lon="-8.7682830">
        <ele>6.9</ele>
        <time>2021-05-16T13:16:02Z</time>
      </trkpt>
      <trkpt lat="41.3799060" lon="-8.7682920">
        <ele>6.9</ele>
        <time>2021-05-16T13:16:03Z</time>
      </trkpt>
      <trkpt lat="41.3799150" lon="-8.7682970">
        <ele>6.9</ele>
        <time>2021-05-16T13:16:04Z</time>
      </trkpt>
      <trkpt lat="41.3799350" lon="-8.7683120">
        <ele>6.9</ele>
        <time>2021-05-16T13:16:05Z</time>
      </trkpt>
      <trkpt lat="41.3799450" lon="-8.7683190">
        <ele>6.9</ele>
        <time>2021-05-16T13:16:06Z</time>
      </trkpt>
      <trkpt lat="41.3799540" lon="-8.7683260">
        <ele>6.9</ele>
        <time>2021-05-16T13:16:07Z</time>
      </trkpt>
      <trkpt lat="41.3799840" lon="-8.7683540">
        <ele>6.9</ele>
        <time>2021-05-16T13:16:08Z</time>
      </trkpt>
      <trkpt lat="41.3800010" lon="-8.7683630">
        <ele>7.0</ele>
        <time>2021-05-16T13:16:09Z</time>
      </trkpt>
      <trkpt lat="41.3800230" lon="-8.7683660">
        <ele>6.9</ele>
        <time>2021-05-16T13:16:10Z</time>
      </trkpt>
      <trkpt lat="41.3800390" lon="-8.7683780">
        <ele>6.9</ele>
        <time>2021-05-16T13:16:11Z</time>
      </trkpt>
      <trkpt lat="41.3800550" lon="-8.7683870">
        <ele>6.9</ele>
        <time>2021-05-16T13:16:12Z</time>
      </trkpt>
      <trkpt lat="41.3800860" lon="-8.7683940">
        <ele>6.9</ele>
        <time>2021-05-16T13:16:13Z</time>
      </trkpt>
      <trkpt lat="41.3800950" lon="-8.7683960">
        <ele>6.9</ele>
        <time>2021-05-16T13:16:14Z</time>
      </trkpt>
      <trkpt lat="41.3801050" lon="-8.7684040">
        <ele>6.9</ele>
        <time>2021-05-16T13:16:15Z</time>
      </trkpt>
      <trkpt lat="41.3801220" lon="-8.7684060">
        <ele>6.9</ele>
        <time>2021-05-16T13:16:16Z</time>
      </trkpt>
      <trkpt lat="41.3801520" lon="-8.7684050">
        <ele>6.9</ele>
        <time>2021-05-16T13:16:17Z</time>
      </trkpt>
      <trkpt lat="41.3801630" lon="-8.7684030">
        <ele>6.9</ele>
        <time>2021-05-16T13:16:18Z</time>
      </trkpt>
      <trkpt lat="41.3801680" lon="-8.7684150">
        <ele>6.9</ele>
        <time>2021-05-16T13:16:19Z</time>
      </trkpt>
      <trkpt lat="41.3801910" lon="-8.7684200">
        <ele>6.9</ele>
        <time>2021-05-16T13:16:20Z</time>
      </trkpt>
      <trkpt lat="41.3802130" lon="-8.7684210">
        <ele>6.8</ele>
        <time>2021-05-16T13:16:21Z</time>
      </trkpt>
      <trkpt lat="41.3802250" lon="-8.7684330">
        <ele>6.8</ele>
        <time>2021-05-16T13:16:22Z</time>
      </trkpt>
      <trkpt lat="41.3802440" lon="-8.7684520">
        <ele>6.8</ele>
        <time>2021-05-16T13:16:23Z</time>
      </trkpt>
      <trkpt lat="41.3802500" lon="-8.7684600">
        <ele>6.8</ele>
        <time>2021-05-16T13:16:24Z</time>
      </trkpt>
      <trkpt lat="41.3802570" lon="-8.7684670">
        <ele>6.8</ele>
        <time>2021-05-16T13:16:25Z</time>
      </trkpt>
      <trkpt lat="41.3802660" lon="-8.7684750">
        <ele>6.8</ele>
        <time>2021-05-16T13:16:26Z</time>
      </trkpt>
      <trkpt lat="41.3802740" lon="-8.7684820">
        <ele>6.8</ele>
        <time>2021-05-16T13:16:27Z</time>
      </trkpt>
      <trkpt lat="41.3802860" lon="-8.7684890">
        <ele>6.8</ele>
        <time>2021-05-16T13:16:28Z</time>
      </trkpt>
      <trkpt lat="41.3803130" lon="-8.7685010">
        <ele>6.8</ele>
        <time>2021-05-16T13:16:29Z</time>
      </trkpt>
      <trkpt lat="41.3803210" lon="-8.7685090">
        <ele>6.8</ele>
        <time>2021-05-16T13:16:30Z</time>
      </trkpt>
      <trkpt lat="41.3803340" lon="-8.7685210">
        <ele>6.8</ele>
        <time>2021-05-16T13:16:31Z</time>
      </trkpt>
      <trkpt lat="41.3803490" lon="-8.7685300">
        <ele>6.7</ele>
        <time>2021-05-16T13:16:32Z</time>
      </trkpt>
      <trkpt lat="41.3803760" lon="-8.7685430">
        <ele>6.7</ele>
        <time>2021-05-16T13:16:33Z</time>
      </trkpt>
      <trkpt lat="41.3803850" lon="-8.7685470">
        <ele>6.7</ele>
        <time>2021-05-16T13:16:34Z</time>
      </trkpt>
      <trkpt lat="41.3804000" lon="-8.7685630">
        <ele>6.7</ele>
        <time>2021-05-16T13:16:35Z</time>
      </trkpt>
      <trkpt lat="41.3804120" lon="-8.7685740">
        <ele>6.7</ele>
        <time>2021-05-16T13:16:36Z</time>
      </trkpt>
      <trkpt lat="41.3804240" lon="-8.7685840">
        <ele>6.7</ele>
        <time>2021-05-16T13:16:37Z</time>
      </trkpt>
      <trkpt lat="41.3804380" lon="-8.7685940">
        <ele>6.7</ele>
        <time>2021-05-16T13:16:38Z</time>
      </trkpt>
      <trkpt lat="41.3804510" lon="-8.7685990">
        <ele>6.7</ele>
        <time>2021-05-16T13:16:39Z</time>
      </trkpt>
      <trkpt lat="41.3804640" lon="-8.7685950">
        <ele>6.7</ele>
        <time>2021-05-16T13:16:40Z</time>
      </trkpt>
      <trkpt lat="41.3804730" lon="-8.7686030">
        <ele>6.6</ele>
        <time>2021-05-16T13:16:41Z</time>
      </trkpt>
      <trkpt lat="41.3804910" lon="-8.7686020">
        <ele>6.6</ele>
        <time>2021-05-16T13:16:42Z</time>
      </trkpt>
      <trkpt lat="41.3804980" lon="-8.7686070">
        <ele>6.6</ele>
        <time>2021-05-16T13:16:43Z</time>
      </trkpt>
      <trkpt lat="41.3805090" lon="-8.7686110">
        <ele>6.6</ele>
        <time>2021-05-16T13:16:44Z</time>
      </trkpt>
      <trkpt lat="41.3805290" lon="-8.7686150">
        <ele>6.6</ele>
        <time>2021-05-16T13:16:45Z</time>
      </trkpt>
      <trkpt lat="41.3805410" lon="-8.7686200">
        <ele>6.6</ele>
        <time>2021-05-16T13:16:46Z</time>
      </trkpt>
      <trkpt lat="41.3805580" lon="-8.7686210">
        <ele>6.6</ele>
        <time>2021-05-16T13:16:47Z</time>
      </trkpt>
      <trkpt lat="41.3805750" lon="-8.7686290">
        <ele>6.6</ele>
        <time>2021-05-16T13:16:48Z</time>
      </trkpt>
      <trkpt lat="41.3805840" lon="-8.7686430">
        <ele>6.6</ele>
        <time>2021-05-16T13:16:49Z</time>
      </trkpt>
      <trkpt lat="41.3805990" lon="-8.7686540">
        <ele>6.6</ele>
        <time>2021-05-16T13:16:50Z</time>
      </trkpt>
      <trkpt lat="41.3806030" lon="-8.7686660">
        <ele>6.5</ele>
        <time>2021-05-16T13:16:51Z</time>
      </trkpt>
      <trkpt lat="41.3806160" lon="-8.7686850">
        <ele>6.5</ele>
        <time>2021-05-16T13:16:52Z</time>
      </trkpt>
      <trkpt lat="41.3806280" lon="-8.7686980">
        <ele>6.5</ele>
        <time>2021-05-16T13:16:53Z</time>
      </trkpt>
      <trkpt lat="41.3806430" lon="-8.7687120">
        <ele>6.5</ele>
        <time>2021-05-16T13:16:54Z</time>
      </trkpt>
      <trkpt lat="41.3806600" lon="-8.7687300">
        <ele>6.5</ele>
        <time>2021-05-16T13:16:55Z</time>
      </trkpt>
      <trkpt lat="41.3806680" lon="-8.7687400">
        <ele>6.5</ele>
        <time>2021-05-16T13:16:56Z</time>
      </trkpt>
      <trkpt lat="41.3806760" lon="-8.7687490">
        <ele>6.5</ele>
        <time>2021-05-16T13:16:57Z</time>
      </trkpt>
      <trkpt lat="41.3806860" lon="-8.7687750">
        <ele>6.5</ele>
        <time>2021-05-16T13:16:58Z</time>
      </trkpt>
      <trkpt lat="41.3806900" lon="-8.7687830">
        <ele>6.5</ele>
        <time>2021-05-16T13:16:59Z</time>
      </trkpt>
      <trkpt lat="41.3806950" lon="-8.7687920">
        <ele>6.5</ele>
        <time>2021-05-16T13:17:00Z</time>
      </trkpt>
      <trkpt lat="41.3807100" lon="-8.7688150">
        <ele>6.4</ele>
        <time>2021-05-16T13:17:01Z</time>
      </trkpt>
      <trkpt lat="41.3807140" lon="-8.7688240">
        <ele>6.4</ele>
        <time>2021-05-16T13:17:02Z</time>
      </trkpt>
      <trkpt lat="41.3807410" lon="-8.7688550">
        <ele>6.4</ele>
        <time>2021-05-16T13:17:03Z</time>
      </trkpt>
      <trkpt lat="41.3807480" lon="-8.7688650">
        <ele>6.4</ele>
        <time>2021-05-16T13:17:04Z</time>
      </trkpt>
      <trkpt lat="41.3807650" lon="-8.7688750">
        <ele>6.4</ele>
        <time>2021-05-16T13:17:05Z</time>
      </trkpt>
      <trkpt lat="41.3807790" lon="-8.7688880">
        <ele>6.4</ele>
        <time>2021-05-16T13:17:06Z</time>
      </trkpt>
      <trkpt lat="41.3807870" lon="-8.7689040">
        <ele>6.4</ele>
        <time>2021-05-16T13:17:07Z</time>
      </trkpt>
      <trkpt lat="41.3807960" lon="-8.7689160">
        <ele>6.4</ele>
        <time>2021-05-16T13:17:08Z</time>
      </trkpt>
      <trkpt lat="41.3808050" lon="-8.7689300">
        <ele>6.4</ele>
        <time>2021-05-16T13:17:09Z</time>
      </trkpt>
      <trkpt lat="41.3808130" lon="-8.7689450">
        <ele>6.4</ele>
        <time>2021-05-16T13:17:10Z</time>
      </trkpt>
      <trkpt lat="41.3808310" lon="-8.7689520">
        <ele>6.4</ele>
        <time>2021-05-16T13:17:11Z</time>
      </trkpt>
      <trkpt lat="41.3808470" lon="-8.7689630">
        <ele>6.4</ele>
        <time>2021-05-16T13:17:12Z</time>
      </trkpt>
      <trkpt lat="41.3808640" lon="-8.7689720">
        <ele>6.3</ele>
        <time>2021-05-16T13:17:13Z</time>
      </trkpt>
      <trkpt lat="41.3808780" lon="-8.7689820">
        <ele>6.3</ele>
        <time>2021-05-16T13:17:14Z</time>
      </trkpt>
      <trkpt lat="41.3808910" lon="-8.7689940">
        <ele>6.3</ele>
        <time>2021-05-16T13:17:15Z</time>
      </trkpt>
      <trkpt lat="41.3809070" lon="-8.7689980">
        <ele>6.3</ele>
        <time>2021-05-16T13:17:16Z</time>
      </trkpt>
      <trkpt lat="41.3809230" lon="-8.7690030">
        <ele>6.3</ele>
        <time>2021-05-16T13:17:17Z</time>
      </trkpt>
      <trkpt lat="41.3809400" lon="-8.7690080">
        <ele>6.3</ele>
        <time>2021-05-16T13:17:18Z</time>
      </trkpt>
      <trkpt lat="41.3809550" lon="-8.7690170">
        <ele>6.3</ele>
        <time>2021-05-16T13:17:19Z</time>
      </trkpt>
      <trkpt lat="41.3809700" lon="-8.7690240">
        <ele>6.3</ele>
        <time>2021-05-16T13:17:20Z</time>
      </trkpt>
      <trkpt lat="41.3809770" lon="-8.7690360">
        <ele>6.3</ele>
        <time>2021-05-16T13:17:21Z</time>
      </trkpt>
      <trkpt lat="41.3809860" lon="-8.7690410">
        <ele>6.3</ele>
        <time>2021-05-16T13:17:22Z</time>
      </trkpt>
      <trkpt lat="41.3810010" lon="-8.7690410">
        <ele>6.3</ele>
        <time>2021-05-16T13:17:23Z</time>
      </trkpt>
      <trkpt lat="41.3810040" lon="-8.7690590">
        <ele>6.3</ele>
        <time>2021-05-16T13:17:24Z</time>
      </trkpt>
      <trkpt lat="41.3810130" lon="-8.7690700">
        <ele>6.3</ele>
        <time>2021-05-16T13:17:25Z</time>
      </trkpt>
      <trkpt lat="41.3810230" lon="-8.7690750">
        <ele>6.3</ele>
        <time>2021-05-16T13:17:26Z</time>
      </trkpt>
      <trkpt lat="41.3810450" lon="-8.7690770">
        <ele>6.2</ele>
        <time>2021-05-16T13:17:27Z</time>
      </trkpt>
      <trkpt lat="41.3810530" lon="-8.7690830">
        <ele>6.2</ele>
        <time>2021-05-16T13:17:28Z</time>
      </trkpt>
      <trkpt lat="41.3810610" lon="-8.7690880">
        <ele>6.2</ele>
        <time>2021-05-16T13:17:29Z</time>
      </trkpt>
      <trkpt lat="41.3810740" lon="-8.7690990">
        <ele>6.2</ele>
        <time>2021-05-16T13:17:30Z</time>
      </trkpt>
      <trkpt lat="41.3810900" lon="-8.7690960">
        <ele>6.2</ele>
        <time>2021-05-16T13:17:31Z</time>
      </trkpt>
      <trkpt lat="41.3811020" lon="-8.7691020">
        <ele>6.2</ele>
        <time>2021-05-16T13:17:32Z</time>
      </trkpt>
      <trkpt lat="41.3811130" lon="-8.7691180">
        <ele>6.2</ele>
        <time>2021-05-16T13:17:33Z</time>
      </trkpt>
      <trkpt lat="41.3811230" lon="-8.7691360">
        <ele>6.2</ele>
        <time>2021-05-16T13:17:34Z</time>
      </trkpt>
      <trkpt lat="41.3811310" lon="-8.7691520">
        <ele>6.2</ele>
        <time>2021-05-16T13:17:35Z</time>
      </trkpt>
      <trkpt lat="41.3811410" lon="-8.7691640">
        <ele>6.2</ele>
        <time>2021-05-16T13:17:36Z</time>
      </trkpt>
      <trkpt lat="41.3811540" lon="-8.7691740">
        <ele>6.2</ele>
        <time>2021-05-16T13:17:37Z</time>
      </trkpt>
      <trkpt lat="41.3811680" lon="-8.7691950">
        <ele>6.2</ele>
        <time>2021-05-16T13:17:38Z</time>
      </trkpt>
      <trkpt lat="41.3811740" lon="-8.7692060">
        <ele>6.2</ele>
        <time>2021-05-16T13:17:39Z</time>
      </trkpt>
      <trkpt lat="41.3811790" lon="-8.7692160">
        <ele>6.2</ele>
        <time>2021-05-16T13:17:40Z</time>
      </trkpt>
      <trkpt lat="41.3811930" lon="-8.7692350">
        <ele>6.2</ele>
        <time>2021-05-16T13:17:41Z</time>
      </trkpt>
      <trkpt lat="41.3811980" lon="-8.7692450">
        <ele>6.2</ele>
        <time>2021-05-16T13:17:42Z</time>
      </trkpt>
      <trkpt lat="41.3812040" lon="-8.7692550">
        <ele>6.2</ele>
        <time>2021-05-16T13:17:43Z</time>
      </trkpt>
      <trkpt lat="41.3812120" lon="-8.7692690">
        <ele>6.2</ele>
        <time>2021-05-16T13:17:44Z</time>
      </trkpt>
      <trkpt lat="41.3812220" lon="-8.7692890">
        <ele>6.1</ele>
        <time>2021-05-16T13:17:45Z</time>
      </trkpt>
      <trkpt lat="41.3812340" lon="-8.7693070">
        <ele>6.1</ele>
        <time>2021-05-16T13:17:46Z</time>
      </trkpt>
      <trkpt lat="41.3812420" lon="-8.7693150">
        <ele>6.1</ele>
        <time>2021-05-16T13:17:47Z</time>
      </trkpt>
      <trkpt lat="41.3812550" lon="-8.7693300">
        <ele>6.1</ele>
        <time>2021-05-16T13:17:48Z</time>
      </trkpt>
      <trkpt lat="41.3812650" lon="-8.7693380">
        <ele>6.1</ele>
        <time>2021-05-16T13:17:49Z</time>
      </trkpt>
      <trkpt lat="41.3812740" lon="-8.7693630">
        <ele>6.1</ele>
        <time>2021-05-16T13:17:50Z</time>
      </trkpt>
      <trkpt lat="41.3812790" lon="-8.7693720">
        <ele>6.1</ele>
        <time>2021-05-16T13:17:51Z</time>
      </trkpt>
      <trkpt lat="41.3812840" lon="-8.7693810">
        <ele>6.1</ele>
        <time>2021-05-16T13:17:52Z</time>
      </trkpt>
      <trkpt lat="41.3812920" lon="-8.7693970">
        <ele>6.1</ele>
        <time>2021-05-16T13:17:53Z</time>
      </trkpt>
      <trkpt lat="41.3812890" lon="-8.7694110">
        <ele>6.1</ele>
        <time>2021-05-16T13:17:54Z</time>
      </trkpt>
      <trkpt lat="41.3812750" lon="-8.7694180">
        <ele>6.1</ele>
        <time>2021-05-16T13:17:55Z</time>
      </trkpt>
      <trkpt lat="41.3812640" lon="-8.7694220">
        <ele>6.1</ele>
        <time>2021-05-16T13:17:56Z</time>
      </trkpt>
      <trkpt lat="41.3812600" lon="-8.7694260">
        <ele>6.1</ele>
        <time>2021-05-16T13:17:57Z</time>
      </trkpt>
      <trkpt lat="41.3812520" lon="-8.7694310">
        <ele>6.1</ele>
        <time>2021-05-16T13:17:58Z</time>
      </trkpt>
      <trkpt lat="41.3812470" lon="-8.7694350">
        <ele>6.1</ele>
        <time>2021-05-16T13:17:59Z</time>
      </trkpt>
      <trkpt lat="41.3812440" lon="-8.7694400">
        <ele>6.1</ele>
        <time>2021-05-16T13:18:00Z</time>
      </trkpt>
      <trkpt lat="41.3812430" lon="-8.7694460">
        <ele>6.1</ele>
        <time>2021-05-16T13:18:01Z</time>
      </trkpt>
      <trkpt lat="41.3812400" lon="-8.7694520">
        <ele>6.1</ele>
        <time>2021-05-16T13:18:02Z</time>
      </trkpt>
      <trkpt lat="41.3812380" lon="-8.7694580">
        <ele>6.1</ele>
        <time>2021-05-16T13:18:03Z</time>
      </trkpt>
      <trkpt lat="41.3812360" lon="-8.7694600">
        <ele>6.1</ele>
        <time>2021-05-16T13:18:04Z</time>
      </trkpt>
      <trkpt lat="41.3812340" lon="-8.7694630">
        <ele>6.1</ele>
        <time>2021-05-16T13:18:05Z</time>
      </trkpt>
      <trkpt lat="41.3812310" lon="-8.7694660">
        <ele>6.0</ele>
        <time>2021-05-16T13:18:06Z</time>
      </trkpt>
      <trkpt lat="41.3812290" lon="-8.7694670">
        <ele>6.0</ele>
        <time>2021-05-16T13:18:07Z</time>
      </trkpt>
      <trkpt lat="41.3812260" lon="-8.7694690">
        <ele>6.0</ele>
        <time>2021-05-16T13:18:08Z</time>
      </trkpt>
      <trkpt lat="41.3812240" lon="-8.7694710">
        <ele>6.0</ele>
        <time>2021-05-16T13:18:09Z</time>
      </trkpt>
      <trkpt lat="41.3812240" lon="-8.7694730">
        <ele>6.0</ele>
        <time>2021-05-16T13:18:11Z</time>
      </trkpt>
      <trkpt lat="41.3812240" lon="-8.7694770">
        <ele>6.0</ele>
        <time>2021-05-16T13:18:12Z</time>
      </trkpt>
      <trkpt lat="41.3812220" lon="-8.7694750">
        <ele>6.0</ele>
        <time>2021-05-16T13:18:13Z</time>
      </trkpt>
      <trkpt lat="41.3812210" lon="-8.7694790">
        <ele>6.0</ele>
        <time>2021-05-16T13:18:14Z</time>
      </trkpt>
      <trkpt lat="41.3812200" lon="-8.7694790">
        <ele>6.0</ele>
        <time>2021-05-16T13:18:15Z</time>
      </trkpt>
      <trkpt lat="41.3812180" lon="-8.7694760">
        <ele>6.0</ele>
        <time>2021-05-16T13:18:16Z</time>
      </trkpt>
      <trkpt lat="41.3812170" lon="-8.7694750">
        <ele>6.0</ele>
        <time>2021-05-16T13:18:17Z</time>
      </trkpt>
      <trkpt lat="41.3812160" lon="-8.7694770">
        <ele>6.0</ele>
        <time>2021-05-16T13:18:18Z</time>
      </trkpt>
      <trkpt lat="41.3812160" lon="-8.7694790">
        <ele>6.0</ele>
        <time>2021-05-16T13:18:19Z</time>
      </trkpt>
      <trkpt lat="41.3812160" lon="-8.7694830">
        <ele>6.0</ele>
        <time>2021-05-16T13:18:20Z</time>
      </trkpt>
      <trkpt lat="41.3812150" lon="-8.7694820">
        <ele>6.0</ele>
        <time>2021-05-16T13:18:21Z</time>
      </trkpt>
      <trkpt lat="41.3812140" lon="-8.7694840">
        <ele>6.0</ele>
        <time>2021-05-16T13:18:22Z</time>
      </trkpt>
      <trkpt lat="41.3812140" lon="-8.7694810">
        <ele>6.0</ele>
        <time>2021-05-16T13:18:23Z</time>
      </trkpt>
      <trkpt lat="41.3812170" lon="-8.7694790">
        <ele>6.0</ele>
        <time>2021-05-16T13:18:24Z</time>
      </trkpt>
      <trkpt lat="41.3812240" lon="-8.7694810">
        <ele>6.0</ele>
        <time>2021-05-16T13:18:25Z</time>
      </trkpt>
      <trkpt lat="41.3812420" lon="-8.7694910">
        <ele>6.0</ele>
        <time>2021-05-16T13:18:26Z</time>
      </trkpt>
      <trkpt lat="41.3812570" lon="-8.7694820">
        <ele>6.0</ele>
        <time>2021-05-16T13:18:27Z</time>
      </trkpt>
      <trkpt lat="41.3812840" lon="-8.7694810">
        <ele>6.0</ele>
        <time>2021-05-16T13:18:28Z</time>
      </trkpt>
      <trkpt lat="41.3812960" lon="-8.7694770">
        <ele>6.0</ele>
        <time>2021-05-16T13:18:29Z</time>
      </trkpt>
      <trkpt lat="41.3813090" lon="-8.7694740">
        <ele>6.0</ele>
        <time>2021-05-16T13:18:30Z</time>
      </trkpt>
      <trkpt lat="41.3813210" lon="-8.7694770">
        <ele>6.0</ele>
        <time>2021-05-16T13:18:31Z</time>
      </trkpt>
      <trkpt lat="41.3813370" lon="-8.7694870">
        <ele>6.0</ele>
        <time>2021-05-16T13:18:32Z</time>
      </trkpt>
      <trkpt lat="41.3813640" lon="-8.7695010">
        <ele>6.0</ele>
        <time>2021-05-16T13:18:33Z</time>
      </trkpt>
      <trkpt lat="41.3813730" lon="-8.7695060">
        <ele>5.9</ele>
        <time>2021-05-16T13:18:34Z</time>
      </trkpt>
      <trkpt lat="41.3813910" lon="-8.7695140">
        <ele>5.9</ele>
        <time>2021-05-16T13:18:35Z</time>
      </trkpt>
      <trkpt lat="41.3814010" lon="-8.7695310">
        <ele>5.9</ele>
        <time>2021-05-16T13:18:36Z</time>
      </trkpt>
      <trkpt lat="41.3814170" lon="-8.7695430">
        <ele>5.9</ele>
        <time>2021-05-16T13:18:37Z</time>
      </trkpt>
      <trkpt lat="41.3814270" lon="-8.7695410">
        <ele>5.9</ele>
        <time>2021-05-16T13:18:38Z</time>
      </trkpt>
      <trkpt lat="41.3814380" lon="-8.7695410">
        <ele>5.9</ele>
        <time>2021-05-16T13:18:39Z</time>
      </trkpt>
      <trkpt lat="41.3814560" lon="-8.7695550">
        <ele>5.9</ele>
        <time>2021-05-16T13:18:40Z</time>
      </trkpt>
      <trkpt lat="41.3814640" lon="-8.7695720">
        <ele>5.9</ele>
        <time>2021-05-16T13:18:41Z</time>
      </trkpt>
      <trkpt lat="41.3814800" lon="-8.7695850">
        <ele>5.9</ele>
        <time>2021-05-16T13:18:42Z</time>
      </trkpt>
      <trkpt lat="41.3814910" lon="-8.7695990">
        <ele>5.9</ele>
        <time>2021-05-16T13:18:43Z</time>
      </trkpt>
      <trkpt lat="41.3815080" lon="-8.7696110">
        <ele>5.9</ele>
        <time>2021-05-16T13:18:44Z</time>
      </trkpt>
      <trkpt lat="41.3815190" lon="-8.7696260">
        <ele>5.9</ele>
        <time>2021-05-16T13:18:45Z</time>
      </trkpt>
      <trkpt lat="41.3815320" lon="-8.7696370">
        <ele>5.9</ele>
        <time>2021-05-16T13:18:46Z</time>
      </trkpt>
      <trkpt lat="41.3815440" lon="-8.7696440">
        <ele>5.9</ele>
        <time>2021-05-16T13:18:47Z</time>
      </trkpt>
      <trkpt lat="41.3815540" lon="-8.7696570">
        <ele>5.9</ele>
        <time>2021-05-16T13:18:48Z</time>
      </trkpt>
      <trkpt lat="41.3815630" lon="-8.7696630">
        <ele>5.9</ele>
        <time>2021-05-16T13:18:49Z</time>
      </trkpt>
      <trkpt lat="41.3815740" lon="-8.7696750">
        <ele>5.9</ele>
        <time>2021-05-16T13:18:50Z</time>
      </trkpt>
      <trkpt lat="41.3815850" lon="-8.7696890">
        <ele>5.9</ele>
        <time>2021-05-16T13:18:51Z</time>
      </trkpt>
      <trkpt lat="41.3816010" lon="-8.7697020">
        <ele>5.9</ele>
        <time>2021-05-16T13:18:52Z</time>
      </trkpt>
      <trkpt lat="41.3816090" lon="-8.7697100">
        <ele>5.9</ele>
        <time>2021-05-16T13:18:53Z</time>
      </trkpt>
      <trkpt lat="41.3816160" lon="-8.7697190">
        <ele>5.9</ele>
        <time>2021-05-16T13:18:54Z</time>
      </trkpt>
      <trkpt lat="41.3816190" lon="-8.7697270">
        <ele>5.9</ele>
        <time>2021-05-16T13:18:55Z</time>
      </trkpt>
      <trkpt lat="41.3816290" lon="-8.7697310">
        <ele>5.9</ele>
        <time>2021-05-16T13:18:56Z</time>
      </trkpt>
      <trkpt lat="41.3816430" lon="-8.7697390">
        <ele>5.9</ele>
        <time>2021-05-16T13:18:57Z</time>
      </trkpt>
      <trkpt lat="41.3816580" lon="-8.7697520">
        <ele>5.9</ele>
        <time>2021-05-16T13:18:58Z</time>
      </trkpt>
      <trkpt lat="41.3816660" lon="-8.7697570">
        <ele>5.9</ele>
        <time>2021-05-16T13:18:59Z</time>
      </trkpt>
      <trkpt lat="41.3816750" lon="-8.7697620">
        <ele>5.9</ele>
        <time>2021-05-16T13:19:00Z</time>
      </trkpt>
      <trkpt lat="41.3816920" lon="-8.7697810">
        <ele>5.9</ele>
        <time>2021-05-16T13:19:01Z</time>
      </trkpt>
      <trkpt lat="41.3817010" lon="-8.7697880">
        <ele>5.9</ele>
        <time>2021-05-16T13:19:02Z</time>
      </trkpt>
      <trkpt lat="41.3817090" lon="-8.7697950">
        <ele>5.9</ele>
        <time>2021-05-16T13:19:03Z</time>
      </trkpt>
      <trkpt lat="41.3817220" lon="-8.7698010">
        <ele>5.9</ele>
        <time>2021-05-16T13:19:04Z</time>
      </trkpt>
      <trkpt lat="41.3817370" lon="-8.7698150">
        <ele>5.9</ele>
        <time>2021-05-16T13:19:05Z</time>
      </trkpt>
      <trkpt lat="41.3817440" lon="-8.7698300">
        <ele>5.9</ele>
        <time>2021-05-16T13:19:06Z</time>
      </trkpt>
      <trkpt lat="41.3817520" lon="-8.7698370">
        <ele>5.9</ele>
        <time>2021-05-16T13:19:07Z</time>
      </trkpt>
      <trkpt lat="41.3817570" lon="-8.7698490">
        <ele>5.9</ele>
        <time>2021-05-16T13:19:08Z</time>
      </trkpt>
      <trkpt lat="41.3817720" lon="-8.7698620">
        <ele>5.9</ele>
        <time>2021-05-16T13:19:09Z</time>
      </trkpt>
      <trkpt lat="41.3817840" lon="-8.7698780">
        <ele>5.9</ele>
        <time>2021-05-16T13:19:10Z</time>
      </trkpt>
      <trkpt lat="41.3817980" lon="-8.7698920">
        <ele>5.9</ele>
        <time>2021-05-16T13:19:11Z</time>
      </trkpt>
      <trkpt lat="41.3818170" lon="-8.7698920">
        <ele>5.9</ele>
        <time>2021-05-16T13:19:12Z</time>
      </trkpt>
      <trkpt lat="41.3818390" lon="-8.7698980">
        <ele>5.9</ele>
        <time>2021-05-16T13:19:13Z</time>
      </trkpt>
      <trkpt lat="41.3818460" lon="-8.7699000">
        <ele>5.8</ele>
        <time>2021-05-16T13:19:14Z</time>
      </trkpt>
      <trkpt lat="41.3818530" lon="-8.7699030">
        <ele>5.8</ele>
        <time>2021-05-16T13:19:15Z</time>
      </trkpt>
      <trkpt lat="41.3818710" lon="-8.7699100">
        <ele>5.8</ele>
        <time>2021-05-16T13:19:16Z</time>
      </trkpt>
      <trkpt lat="41.3818850" lon="-8.7699040">
        <ele>5.8</ele>
        <time>2021-05-16T13:19:17Z</time>
      </trkpt>
      <trkpt lat="41.3819030" lon="-8.7699040">
        <ele>5.8</ele>
        <time>2021-05-16T13:19:18Z</time>
      </trkpt>
      <trkpt lat="41.3819180" lon="-8.7699050">
        <ele>5.8</ele>
        <time>2021-05-16T13:19:19Z</time>
      </trkpt>
      <trkpt lat="41.3819360" lon="-8.7699120">
        <ele>5.8</ele>
        <time>2021-05-16T13:19:20Z</time>
      </trkpt>
      <trkpt lat="41.3819490" lon="-8.7699180">
        <ele>5.8</ele>
        <time>2021-05-16T13:19:21Z</time>
      </trkpt>
      <trkpt lat="41.3819650" lon="-8.7699250">
        <ele>5.8</ele>
        <time>2021-05-16T13:19:22Z</time>
      </trkpt>
      <trkpt lat="41.3819840" lon="-8.7699240">
        <ele>5.8</ele>
        <time>2021-05-16T13:19:23Z</time>
      </trkpt>
      <trkpt lat="41.3820030" lon="-8.7699240">
        <ele>5.8</ele>
        <time>2021-05-16T13:19:24Z</time>
      </trkpt>
      <trkpt lat="41.3820140" lon="-8.7699280">
        <ele>5.8</ele>
        <time>2021-05-16T13:19:25Z</time>
      </trkpt>
      <trkpt lat="41.3820260" lon="-8.7699420">
        <ele>5.8</ele>
        <time>2021-05-16T13:19:26Z</time>
      </trkpt>
      <trkpt lat="41.3820420" lon="-8.7699420">
        <ele>5.8</ele>
        <time>2021-05-16T13:19:27Z</time>
      </trkpt>
      <trkpt lat="41.3820720" lon="-8.7699410">
        <ele>5.8</ele>
        <time>2021-05-16T13:19:28Z</time>
      </trkpt>
      <trkpt lat="41.3820860" lon="-8.7699360">
        <ele>5.8</ele>
        <time>2021-05-16T13:19:29Z</time>
      </trkpt>
      <trkpt lat="41.3821050" lon="-8.7699380">
        <ele>5.8</ele>
        <time>2021-05-16T13:19:30Z</time>
      </trkpt>
      <trkpt lat="41.3821200" lon="-8.7699480">
        <ele>5.8</ele>
        <time>2021-05-16T13:19:31Z</time>
      </trkpt>
      <trkpt lat="41.3821360" lon="-8.7699540">
        <ele>5.8</ele>
        <time>2021-05-16T13:19:32Z</time>
      </trkpt>
      <trkpt lat="41.3821510" lon="-8.7699640">
        <ele>5.8</ele>
        <time>2021-05-16T13:19:33Z</time>
      </trkpt>
      <trkpt lat="41.3821670" lon="-8.7699640">
        <ele>5.8</ele>
        <time>2021-05-16T13:19:34Z</time>
      </trkpt>
      <trkpt lat="41.3821870" lon="-8.7699620">
        <ele>5.8</ele>
        <time>2021-05-16T13:19:35Z</time>
      </trkpt>
      <trkpt lat="41.3822040" lon="-8.7699690">
        <ele>5.8</ele>
        <time>2021-05-16T13:19:36Z</time>
      </trkpt>
      <trkpt lat="41.3822210" lon="-8.7699750">
        <ele>5.8</ele>
        <time>2021-05-16T13:19:37Z</time>
      </trkpt>
      <trkpt lat="41.3822360" lon="-8.7699800">
        <ele>5.8</ele>
        <time>2021-05-16T13:19:38Z</time>
      </trkpt>
      <trkpt lat="41.3822530" lon="-8.7699800">
        <ele>5.8</ele>
        <time>2021-05-16T13:19:39Z</time>
      </trkpt>
      <trkpt lat="41.3822620" lon="-8.7699960">
        <ele>5.8</ele>
        <time>2021-05-16T13:19:40Z</time>
      </trkpt>
      <trkpt lat="41.3822650" lon="-8.7700210">
        <ele>5.8</ele>
        <time>2021-05-16T13:19:41Z</time>
      </trkpt>
      <trkpt lat="41.3822840" lon="-8.7700210">
        <ele>5.8</ele>
        <time>2021-05-16T13:19:42Z</time>
      </trkpt>
      <trkpt lat="41.3822980" lon="-8.7700280">
        <ele>5.8</ele>
        <time>2021-05-16T13:19:43Z</time>
      </trkpt>
      <trkpt lat="41.3823270" lon="-8.7700290">
        <ele>5.8</ele>
        <time>2021-05-16T13:19:44Z</time>
      </trkpt>
      <trkpt lat="41.3823370" lon="-8.7700280">
        <ele>5.8</ele>
        <time>2021-05-16T13:19:45Z</time>
      </trkpt>
      <trkpt lat="41.3823510" lon="-8.7700370">
        <ele>5.8</ele>
        <time>2021-05-16T13:19:46Z</time>
      </trkpt>
      <trkpt lat="41.3823680" lon="-8.7700350">
        <ele>5.8</ele>
        <time>2021-05-16T13:19:47Z</time>
      </trkpt>
      <trkpt lat="41.3823830" lon="-8.7700540">
        <ele>5.8</ele>
        <time>2021-05-16T13:19:48Z</time>
      </trkpt>
      <trkpt lat="41.3823900" lon="-8.7700590">
        <ele>5.8</ele>
        <time>2021-05-16T13:19:49Z</time>
      </trkpt>
      <trkpt lat="41.3823980" lon="-8.7700650">
        <ele>5.8</ele>
        <time>2021-05-16T13:19:50Z</time>
      </trkpt>
      <trkpt lat="41.3824150" lon="-8.7700720">
        <ele>5.8</ele>
        <time>2021-05-16T13:19:51Z</time>
      </trkpt>
      <trkpt lat="41.3824280" lon="-8.7700770">
        <ele>5.8</ele>
        <time>2021-05-16T13:19:52Z</time>
      </trkpt>
      <trkpt lat="41.3824430" lon="-8.7700840">
        <ele>5.8</ele>
        <time>2021-05-16T13:19:53Z</time>
      </trkpt>
      <trkpt lat="41.3824540" lon="-8.7700880">
        <ele>5.8</ele>
        <time>2021-05-16T13:19:54Z</time>
      </trkpt>
      <trkpt lat="41.3824600" lon="-8.7700990">
        <ele>5.8</ele>
        <time>2021-05-16T13:19:55Z</time>
      </trkpt>
      <trkpt lat="41.3824750" lon="-8.7701130">
        <ele>5.8</ele>
        <time>2021-05-16T13:19:56Z</time>
      </trkpt>
      <trkpt lat="41.3824890" lon="-8.7701220">
        <ele>5.8</ele>
        <time>2021-05-16T13:19:57Z</time>
      </trkpt>
      <trkpt lat="41.3824990" lon="-8.7701330">
        <ele>5.8</ele>
        <time>2021-05-16T13:19:58Z</time>
      </trkpt>
      <trkpt lat="41.3825130" lon="-8.7701520">
        <ele>5.8</ele>
        <time>2021-05-16T13:19:59Z</time>
      </trkpt>
      <trkpt lat="41.3825270" lon="-8.7701620">
        <ele>5.8</ele>
        <time>2021-05-16T13:20:00Z</time>
      </trkpt>
      <trkpt lat="41.3825390" lon="-8.7701620">
        <ele>5.8</ele>
        <time>2021-05-16T13:20:01Z</time>
      </trkpt>
      <trkpt lat="41.3825520" lon="-8.7701750">
        <ele>5.8</ele>
        <time>2021-05-16T13:20:02Z</time>
      </trkpt>
      <trkpt lat="41.3825790" lon="-8.7701820">
        <ele>5.8</ele>
        <time>2021-05-16T13:20:03Z</time>
      </trkpt>
      <trkpt lat="41.3825880" lon="-8.7701840">
        <ele>5.8</ele>
        <time>2021-05-16T13:20:04Z</time>
      </trkpt>
      <trkpt lat="41.3825980" lon="-8.7701890">
        <ele>5.8</ele>
        <time>2021-05-16T13:20:05Z</time>
      </trkpt>
      <trkpt lat="41.3826150" lon="-8.7702000">
        <ele>5.8</ele>
        <time>2021-05-16T13:20:06Z</time>
      </trkpt>
      <trkpt lat="41.3826240" lon="-8.7702120">
        <ele>5.8</ele>
        <time>2021-05-16T13:20:07Z</time>
      </trkpt>
      <trkpt lat="41.3826380" lon="-8.7702220">
        <ele>5.8</ele>
        <time>2021-05-16T13:20:08Z</time>
      </trkpt>
      <trkpt lat="41.3826350" lon="-8.7702320">
        <ele>5.8</ele>
        <time>2021-05-16T13:20:09Z</time>
      </trkpt>
      <trkpt lat="41.3826460" lon="-8.7702420">
        <ele>5.8</ele>
        <time>2021-05-16T13:20:10Z</time>
      </trkpt>
      <trkpt lat="41.3826590" lon="-8.7702460">
        <ele>5.8</ele>
        <time>2021-05-16T13:20:11Z</time>
      </trkpt>
      <trkpt lat="41.3826690" lon="-8.7702540">
        <ele>5.8</ele>
        <time>2021-05-16T13:20:12Z</time>
      </trkpt>
      <trkpt lat="41.3826910" lon="-8.7702620">
        <ele>5.8</ele>
        <time>2021-05-16T13:20:13Z</time>
      </trkpt>
      <trkpt lat="41.3827090" lon="-8.7702640">
        <ele>5.8</ele>
        <time>2021-05-16T13:20:14Z</time>
      </trkpt>
      <trkpt lat="41.3827270" lon="-8.7702620">
        <ele>5.8</ele>
        <time>2021-05-16T13:20:15Z</time>
      </trkpt>
      <trkpt lat="41.3827400" lon="-8.7702650">
        <ele>5.8</ele>
        <time>2021-05-16T13:20:16Z</time>
      </trkpt>
      <trkpt lat="41.3827560" lon="-8.7702740">
        <ele>5.8</ele>
        <time>2021-05-16T13:20:17Z</time>
      </trkpt>
      <trkpt lat="41.3827700" lon="-8.7702760">
        <ele>5.8</ele>
        <time>2021-05-16T13:20:18Z</time>
      </trkpt>
      <trkpt lat="41.3827860" lon="-8.7702880">
        <ele>5.8</ele>
        <time>2021-05-16T13:20:19Z</time>
      </trkpt>
      <trkpt lat="41.3828070" lon="-8.7702920">
        <ele>5.8</ele>
        <time>2021-05-16T13:20:20Z</time>
      </trkpt>
      <trkpt lat="41.3828190" lon="-8.7702960">
        <ele>5.8</ele>
        <time>2021-05-16T13:20:21Z</time>
      </trkpt>
      <trkpt lat="41.3828250" lon="-8.7702960">
        <ele>5.8</ele>
        <time>2021-05-16T13:20:22Z</time>
      </trkpt>
      <trkpt lat="41.3828370" lon="-8.7703010">
        <ele>5.8</ele>
        <time>2021-05-16T13:20:23Z</time>
      </trkpt>
      <trkpt lat="41.3828500" lon="-8.7703120">
        <ele>5.8</ele>
        <time>2021-05-16T13:20:24Z</time>
      </trkpt>
      <trkpt lat="41.3828560" lon="-8.7703410">
        <ele>5.8</ele>
        <time>2021-05-16T13:20:25Z</time>
      </trkpt>
      <trkpt lat="41.3828510" lon="-8.7703580">
        <ele>5.8</ele>
        <time>2021-05-16T13:20:26Z</time>
      </trkpt>
      <trkpt lat="41.3828450" lon="-8.7703750">
        <ele>5.8</ele>
        <time>2021-05-16T13:20:27Z</time>
      </trkpt>
      <trkpt lat="41.3828390" lon="-8.7704030">
        <ele>5.8</ele>
        <time>2021-05-16T13:20:28Z</time>
      </trkpt>
      <trkpt lat="41.3828390" lon="-8.7704210">
        <ele>5.8</ele>
        <time>2021-05-16T13:20:29Z</time>
      </trkpt>
      <trkpt lat="41.3828250" lon="-8.7704410">
        <ele>5.8</ele>
        <time>2021-05-16T13:20:30Z</time>
      </trkpt>
      <trkpt lat="41.3828190" lon="-8.7704520">
        <ele>5.8</ele>
        <time>2021-05-16T13:20:31Z</time>
      </trkpt>
      <trkpt lat="41.3828130" lon="-8.7704630">
        <ele>5.8</ele>
        <time>2021-05-16T13:20:32Z</time>
      </trkpt>
      <trkpt lat="41.3828070" lon="-8.7704740">
        <ele>5.8</ele>
        <time>2021-05-16T13:20:33Z</time>
      </trkpt>
      <trkpt lat="41.3827990" lon="-8.7704930">
        <ele>5.8</ele>
        <time>2021-05-16T13:20:34Z</time>
      </trkpt>
      <trkpt lat="41.3827970" lon="-8.7704960">
        <ele>5.8</ele>
        <time>2021-05-16T13:20:35Z</time>
      </trkpt>
      <trkpt lat="41.3827940" lon="-8.7705000">
        <ele>5.8</ele>
        <time>2021-05-16T13:20:36Z</time>
      </trkpt>
      <trkpt lat="41.3827920" lon="-8.7704990">
        <ele>5.8</ele>
        <time>2021-05-16T13:20:37Z</time>
      </trkpt>
      <trkpt lat="41.3827940" lon="-8.7704980">
        <ele>5.8</ele>
        <time>2021-05-16T13:20:38Z</time>
      </trkpt>
      <trkpt lat="41.3827940" lon="-8.7705030">
        <ele>5.8</ele>
        <time>2021-05-16T13:20:39Z</time>
      </trkpt>
      <trkpt lat="41.3827940" lon="-8.7705040">
        <ele>5.8</ele>
        <time>2021-05-16T13:20:40Z</time>
      </trkpt>
      <trkpt lat="41.3827870" lon="-8.7705050">
        <ele>5.8</ele>
        <time>2021-05-16T13:20:41Z</time>
      </trkpt>
      <trkpt lat="41.3827870" lon="-8.7705060">
        <ele>5.8</ele>
        <time>2021-05-16T13:20:42Z</time>
      </trkpt>
      <trkpt lat="41.3827990" lon="-8.7705100">
        <ele>5.8</ele>
        <time>2021-05-16T13:20:43Z</time>
      </trkpt>
      <trkpt lat="41.3828150" lon="-8.7705310">
        <ele>5.8</ele>
        <time>2021-05-16T13:20:44Z</time>
      </trkpt>
      <trkpt lat="41.3828270" lon="-8.7705290">
        <ele>5.8</ele>
        <time>2021-05-16T13:20:45Z</time>
      </trkpt>
      <trkpt lat="41.3828490" lon="-8.7705320">
        <ele>5.8</ele>
        <time>2021-05-16T13:20:46Z</time>
      </trkpt>
      <trkpt lat="41.3828760" lon="-8.7705340">
        <ele>5.8</ele>
        <time>2021-05-16T13:20:47Z</time>
      </trkpt>
      <trkpt lat="41.3828870" lon="-8.7705320">
        <ele>5.9</ele>
        <time>2021-05-16T13:20:48Z</time>
      </trkpt>
      <trkpt lat="41.3829230" lon="-8.7705500">
        <ele>5.9</ele>
        <time>2021-05-16T13:20:49Z</time>
      </trkpt>
      <trkpt lat="41.3829360" lon="-8.7705580">
        <ele>5.9</ele>
        <time>2021-05-16T13:20:50Z</time>
      </trkpt>
      <trkpt lat="41.3829550" lon="-8.7705470">
        <ele>5.9</ele>
        <time>2021-05-16T13:20:51Z</time>
      </trkpt>
      <trkpt lat="41.3829660" lon="-8.7705510">
        <ele>5.9</ele>
        <time>2021-05-16T13:20:52Z</time>
      </trkpt>
      <trkpt lat="41.3829770" lon="-8.7705540">
        <ele>5.9</ele>
        <time>2021-05-16T13:20:53Z</time>
      </trkpt>
      <trkpt lat="41.3830040" lon="-8.7705730">
        <ele>5.9</ele>
        <time>2021-05-16T13:20:54Z</time>
      </trkpt>
      <trkpt lat="41.3830150" lon="-8.7705820">
        <ele>5.9</ele>
        <time>2021-05-16T13:20:55Z</time>
      </trkpt>
      <trkpt lat="41.3830360" lon="-8.7705840">
        <ele>5.9</ele>
        <time>2021-05-16T13:20:56Z</time>
      </trkpt>
      <trkpt lat="41.3830450" lon="-8.7705820">
        <ele>5.9</ele>
        <time>2021-05-16T13:20:57Z</time>
      </trkpt>
      <trkpt lat="41.3830540" lon="-8.7705810">
        <ele>5.9</ele>
        <time>2021-05-16T13:20:58Z</time>
      </trkpt>
      <trkpt lat="41.3830660" lon="-8.7705770">
        <ele>5.9</ele>
        <time>2021-05-16T13:20:59Z</time>
      </trkpt>
      <trkpt lat="41.3830720" lon="-8.7705790">
        <ele>5.9</ele>
        <time>2021-05-16T13:21:00Z</time>
      </trkpt>
      <trkpt lat="41.3830820" lon="-8.7705900">
        <ele>5.9</ele>
        <time>2021-05-16T13:21:01Z</time>
      </trkpt>
      <trkpt lat="41.3831030" lon="-8.7705910">
        <ele>5.9</ele>
        <time>2021-05-16T13:21:02Z</time>
      </trkpt>
      <trkpt lat="41.3831120" lon="-8.7705890">
        <ele>5.9</ele>
        <time>2021-05-16T13:21:03Z</time>
      </trkpt>
      <trkpt lat="41.3831220" lon="-8.7705880">
        <ele>5.9</ele>
        <time>2021-05-16T13:21:04Z</time>
      </trkpt>
      <trkpt lat="41.3831320" lon="-8.7705870">
        <ele>5.9</ele>
        <time>2021-05-16T13:21:05Z</time>
      </trkpt>
      <trkpt lat="41.3831410" lon="-8.7705840">
        <ele>5.9</ele>
        <time>2021-05-16T13:21:06Z</time>
      </trkpt>
      <trkpt lat="41.3831520" lon="-8.7705930">
        <ele>5.9</ele>
        <time>2021-05-16T13:21:07Z</time>
      </trkpt>
      <trkpt lat="41.3831630" lon="-8.7705990">
        <ele>5.9</ele>
        <time>2021-05-16T13:21:08Z</time>
      </trkpt>
      <trkpt lat="41.3831800" lon="-8.7706150">
        <ele>5.9</ele>
        <time>2021-05-16T13:21:09Z</time>
      </trkpt>
      <trkpt lat="41.3831930" lon="-8.7706250">
        <ele>5.9</ele>
        <time>2021-05-16T13:21:10Z</time>
      </trkpt>
      <trkpt lat="41.3832000" lon="-8.7706350">
        <ele>5.9</ele>
        <time>2021-05-16T13:21:11Z</time>
      </trkpt>
      <trkpt lat="41.3832070" lon="-8.7706440">
        <ele>5.9</ele>
        <time>2021-05-16T13:21:12Z</time>
      </trkpt>
      <trkpt lat="41.3832240" lon="-8.7706490">
        <ele>5.9</ele>
        <time>2021-05-16T13:21:13Z</time>
      </trkpt>
      <trkpt lat="41.3832360" lon="-8.7706510">
        <ele>5.9</ele>
        <time>2021-05-16T13:21:14Z</time>
      </trkpt>
      <trkpt lat="41.3832560" lon="-8.7706600">
        <ele>6.0</ele>
        <time>2021-05-16T13:21:15Z</time>
      </trkpt>
      <trkpt lat="41.3832690" lon="-8.7706620">
        <ele>6.0</ele>
        <time>2021-05-16T13:21:16Z</time>
      </trkpt>
      <trkpt lat="41.3832820" lon="-8.7706630">
        <ele>6.0</ele>
        <time>2021-05-16T13:21:17Z</time>
      </trkpt>
      <trkpt lat="41.3833010" lon="-8.7706710">
        <ele>6.0</ele>
        <time>2021-05-16T13:21:18Z</time>
      </trkpt>
      <trkpt lat="41.3833130" lon="-8.7706730">
        <ele>6.0</ele>
        <time>2021-05-16T13:21:19Z</time>
      </trkpt>
      <trkpt lat="41.3833240" lon="-8.7706750">
        <ele>6.0</ele>
        <time>2021-05-16T13:21:20Z</time>
      </trkpt>
      <trkpt lat="41.3833360" lon="-8.7706780">
        <ele>6.0</ele>
        <time>2021-05-16T13:21:21Z</time>
      </trkpt>
      <trkpt lat="41.3833520" lon="-8.7706840">
        <ele>6.0</ele>
        <time>2021-05-16T13:21:22Z</time>
      </trkpt>
      <trkpt lat="41.3833610" lon="-8.7706960">
        <ele>6.0</ele>
        <time>2021-05-16T13:21:23Z</time>
      </trkpt>
      <trkpt lat="41.3833780" lon="-8.7707040">
        <ele>6.0</ele>
        <time>2021-05-16T13:21:24Z</time>
      </trkpt>
      <trkpt lat="41.3833860" lon="-8.7707220">
        <ele>6.0</ele>
        <time>2021-05-16T13:21:25Z</time>
      </trkpt>
      <trkpt lat="41.3834020" lon="-8.7707380">
        <ele>6.0</ele>
        <time>2021-05-16T13:21:26Z</time>
      </trkpt>
      <trkpt lat="41.3834190" lon="-8.7707430">
        <ele>6.0</ele>
        <time>2021-05-16T13:21:27Z</time>
      </trkpt>
      <trkpt lat="41.3834290" lon="-8.7707540">
        <ele>6.0</ele>
        <time>2021-05-16T13:21:28Z</time>
      </trkpt>
      <trkpt lat="41.3834510" lon="-8.7707590">
        <ele>6.0</ele>
        <time>2021-05-16T13:21:29Z</time>
      </trkpt>
      <trkpt lat="41.3834610" lon="-8.7707600">
        <ele>6.0</ele>
        <time>2021-05-16T13:21:30Z</time>
      </trkpt>
      <trkpt lat="41.3834720" lon="-8.7707610">
        <ele>6.0</ele>
        <time>2021-05-16T13:21:31Z</time>
      </trkpt>
      <trkpt lat="41.3834890" lon="-8.7707660">
        <ele>6.0</ele>
        <time>2021-05-16T13:21:32Z</time>
      </trkpt>
      <trkpt lat="41.3835060" lon="-8.7707740">
        <ele>6.1</ele>
        <time>2021-05-16T13:21:33Z</time>
      </trkpt>
      <trkpt lat="41.3835340" lon="-8.7707770">
        <ele>6.1</ele>
        <time>2021-05-16T13:21:34Z</time>
      </trkpt>
      <trkpt lat="41.3835430" lon="-8.7707770">
        <ele>6.1</ele>
        <time>2021-05-16T13:21:35Z</time>
      </trkpt>
      <trkpt lat="41.3835760" lon="-8.7707660">
        <ele>6.1</ele>
        <time>2021-05-16T13:21:36Z</time>
      </trkpt>
      <trkpt lat="41.3835850" lon="-8.7707570">
        <ele>6.1</ele>
        <time>2021-05-16T13:21:37Z</time>
      </trkpt>
      <trkpt lat="41.3836060" lon="-8.7707630">
        <ele>6.1</ele>
        <time>2021-05-16T13:21:38Z</time>
      </trkpt>
      <trkpt lat="41.3836140" lon="-8.7707680">
        <ele>6.1</ele>
        <time>2021-05-16T13:21:39Z</time>
      </trkpt>
      <trkpt lat="41.3836210" lon="-8.7707730">
        <ele>6.1</ele>
        <time>2021-05-16T13:21:40Z</time>
      </trkpt>
      <trkpt lat="41.3836400" lon="-8.7707840">
        <ele>6.1</ele>
        <time>2021-05-16T13:21:41Z</time>
      </trkpt>
      <trkpt lat="41.3836480" lon="-8.7707850">
        <ele>6.1</ele>
        <time>2021-05-16T13:21:42Z</time>
      </trkpt>
      <trkpt lat="41.3836630" lon="-8.7707910">
        <ele>6.1</ele>
        <time>2021-05-16T13:21:43Z</time>
      </trkpt>
      <trkpt lat="41.3836800" lon="-8.7707990">
        <ele>6.1</ele>
        <time>2021-05-16T13:21:44Z</time>
      </trkpt>
      <trkpt lat="41.3836970" lon="-8.7708100">
        <ele>6.1</ele>
        <time>2021-05-16T13:21:45Z</time>
      </trkpt>
      <trkpt lat="41.3837060" lon="-8.7708190">
        <ele>6.1</ele>
        <time>2021-05-16T13:21:46Z</time>
      </trkpt>
      <trkpt lat="41.3837150" lon="-8.7708280">
        <ele>6.1</ele>
        <time>2021-05-16T13:21:47Z</time>
      </trkpt>
      <trkpt lat="41.3837250" lon="-8.7708370">
        <ele>6.1</ele>
        <time>2021-05-16T13:21:48Z</time>
      </trkpt>
      <trkpt lat="41.3837420" lon="-8.7708420">
        <ele>6.1</ele>
        <time>2021-05-16T13:21:49Z</time>
      </trkpt>
      <trkpt lat="41.3837580" lon="-8.7708630">
        <ele>6.1</ele>
        <time>2021-05-16T13:21:50Z</time>
      </trkpt>
      <trkpt lat="41.3837640" lon="-8.7708710">
        <ele>6.1</ele>
        <time>2021-05-16T13:21:51Z</time>
      </trkpt>
      <trkpt lat="41.3837700" lon="-8.7708790">
        <ele>6.1</ele>
        <time>2021-05-16T13:21:52Z</time>
      </trkpt>
      <trkpt lat="41.3837800" lon="-8.7709190">
        <ele>6.1</ele>
        <time>2021-05-16T13:21:53Z</time>
      </trkpt>
      <trkpt lat="41.3837840" lon="-8.7709300">
        <ele>6.1</ele>
        <time>2021-05-16T13:21:54Z</time>
      </trkpt>
      <trkpt lat="41.3837890" lon="-8.7709480">
        <ele>6.1</ele>
        <time>2021-05-16T13:21:55Z</time>
      </trkpt>
      <trkpt lat="41.3837890" lon="-8.7709630">
        <ele>6.1</ele>
        <time>2021-05-16T13:21:56Z</time>
      </trkpt>
      <trkpt lat="41.3837970" lon="-8.7709680">
        <ele>6.1</ele>
        <time>2021-05-16T13:21:57Z</time>
      </trkpt>
      <trkpt lat="41.3838100" lon="-8.7709720">
        <ele>6.1</ele>
        <time>2021-05-16T13:21:58Z</time>
      </trkpt>
      <trkpt lat="41.3838250" lon="-8.7709800">
        <ele>6.1</ele>
        <time>2021-05-16T13:21:59Z</time>
      </trkpt>
      <trkpt lat="41.3838390" lon="-8.7709890">
        <ele>6.1</ele>
        <time>2021-05-16T13:22:00Z</time>
      </trkpt>
      <trkpt lat="41.3838490" lon="-8.7710000">
        <ele>6.1</ele>
        <time>2021-05-16T13:22:01Z</time>
      </trkpt>
      <trkpt lat="41.3838630" lon="-8.7710150">
        <ele>6.1</ele>
        <time>2021-05-16T13:22:02Z</time>
      </trkpt>
      <trkpt lat="41.3838750" lon="-8.7710290">
        <ele>6.1</ele>
        <time>2021-05-16T13:22:03Z</time>
      </trkpt>
      <trkpt lat="41.3838920" lon="-8.7710200">
        <ele>6.1</ele>
        <time>2021-05-16T13:22:04Z</time>
      </trkpt>
      <trkpt lat="41.3839040" lon="-8.7710190">
        <ele>6.1</ele>
        <time>2021-05-16T13:22:05Z</time>
      </trkpt>
      <trkpt lat="41.3839200" lon="-8.7710370">
        <ele>6.1</ele>
        <time>2021-05-16T13:22:06Z</time>
      </trkpt>
      <trkpt lat="41.3839280" lon="-8.7710420">
        <ele>6.1</ele>
        <time>2021-05-16T13:22:07Z</time>
      </trkpt>
      <trkpt lat="41.3839370" lon="-8.7710470">
        <ele>6.1</ele>
        <time>2021-05-16T13:22:08Z</time>
      </trkpt>
      <trkpt lat="41.3839430" lon="-8.7710490">
        <ele>6.1</ele>
        <time>2021-05-16T13:22:09Z</time>
      </trkpt>
      <trkpt lat="41.3839570" lon="-8.7710540">
        <ele>6.1</ele>
        <time>2021-05-16T13:22:10Z</time>
      </trkpt>
      <trkpt lat="41.3839660" lon="-8.7710750">
        <ele>6.1</ele>
        <time>2021-05-16T13:22:11Z</time>
      </trkpt>
      <trkpt lat="41.3839770" lon="-8.7710900">
        <ele>6.1</ele>
        <time>2021-05-16T13:22:12Z</time>
      </trkpt>
      <trkpt lat="41.3839890" lon="-8.7710960">
        <ele>6.1</ele>
        <time>2021-05-16T13:22:13Z</time>
      </trkpt>
      <trkpt lat="41.3840060" lon="-8.7711030">
        <ele>6.1</ele>
        <time>2021-05-16T13:22:14Z</time>
      </trkpt>
      <trkpt lat="41.3840170" lon="-8.7711150">
        <ele>6.1</ele>
        <time>2021-05-16T13:22:15Z</time>
      </trkpt>
      <trkpt lat="41.3840260" lon="-8.7711250">
        <ele>6.1</ele>
        <time>2021-05-16T13:22:16Z</time>
      </trkpt>
      <trkpt lat="41.3840410" lon="-8.7711440">
        <ele>6.1</ele>
        <time>2021-05-16T13:22:17Z</time>
      </trkpt>
      <trkpt lat="41.3840640" lon="-8.7711530">
        <ele>6.2</ele>
        <time>2021-05-16T13:22:18Z</time>
      </trkpt>
      <trkpt lat="41.3840730" lon="-8.7711540">
        <ele>6.2</ele>
        <time>2021-05-16T13:22:19Z</time>
      </trkpt>
      <trkpt lat="41.3840820" lon="-8.7711560">
        <ele>6.2</ele>
        <time>2021-05-16T13:22:20Z</time>
      </trkpt>
      <trkpt lat="41.3840970" lon="-8.7711680">
        <ele>6.2</ele>
        <time>2021-05-16T13:22:21Z</time>
      </trkpt>
      <trkpt lat="41.3841060" lon="-8.7711710">
        <ele>6.2</ele>
        <time>2021-05-16T13:22:22Z</time>
      </trkpt>
      <trkpt lat="41.3841140" lon="-8.7711750">
        <ele>6.2</ele>
        <time>2021-05-16T13:22:23Z</time>
      </trkpt>
      <trkpt lat="41.3841220" lon="-8.7711780">
        <ele>6.2</ele>
        <time>2021-05-16T13:22:24Z</time>
      </trkpt>
      <trkpt lat="41.3841490" lon="-8.7711890">
        <ele>6.2</ele>
        <time>2021-05-16T13:22:25Z</time>
      </trkpt>
      <trkpt lat="41.3841590" lon="-8.7711950">
        <ele>6.2</ele>
        <time>2021-05-16T13:22:26Z</time>
      </trkpt>
      <trkpt lat="41.3841740" lon="-8.7712010">
        <ele>6.2</ele>
        <time>2021-05-16T13:22:27Z</time>
      </trkpt>
      <trkpt lat="41.3841870" lon="-8.7712110">
        <ele>6.2</ele>
        <time>2021-05-16T13:22:28Z</time>
      </trkpt>
      <trkpt lat="41.3842020" lon="-8.7712160">
        <ele>6.2</ele>
        <time>2021-05-16T13:22:29Z</time>
      </trkpt>
      <trkpt lat="41.3842190" lon="-8.7712170">
        <ele>6.2</ele>
        <time>2021-05-16T13:22:30Z</time>
      </trkpt>
      <trkpt lat="41.3842480" lon="-8.7712230">
        <ele>6.2</ele>
        <time>2021-05-16T13:22:31Z</time>
      </trkpt>
      <trkpt lat="41.3842580" lon="-8.7712270">
        <ele>6.2</ele>
        <time>2021-05-16T13:22:32Z</time>
      </trkpt>
      <trkpt lat="41.3842730" lon="-8.7712300">
        <ele>6.3</ele>
        <time>2021-05-16T13:22:33Z</time>
      </trkpt>
      <trkpt lat="41.3842860" lon="-8.7712370">
        <ele>6.3</ele>
        <time>2021-05-16T13:22:34Z</time>
      </trkpt>
      <trkpt lat="41.3842930" lon="-8.7712470">
        <ele>6.3</ele>
        <time>2021-05-16T13:22:35Z</time>
      </trkpt>
      <trkpt lat="41.3842960" lon="-8.7712530">
        <ele>6.3</ele>
        <time>2021-05-16T13:22:36Z</time>
      </trkpt>
      <trkpt lat="41.3843090" lon="-8.7712640">
        <ele>6.3</ele>
        <time>2021-05-16T13:22:37Z</time>
      </trkpt>
      <trkpt lat="41.3843300" lon="-8.7712720">
        <ele>6.3</ele>
        <time>2021-05-16T13:22:38Z</time>
      </trkpt>
      <trkpt lat="41.3843430" lon="-8.7712760">
        <ele>6.3</ele>
        <time>2021-05-16T13:22:39Z</time>
      </trkpt>
      <trkpt lat="41.3843580" lon="-8.7712930">
        <ele>6.3</ele>
        <time>2021-05-16T13:22:40Z</time>
      </trkpt>
      <trkpt lat="41.3843680" lon="-8.7712960">
        <ele>6.3</ele>
        <time>2021-05-16T13:22:41Z</time>
      </trkpt>
      <trkpt lat="41.3843770" lon="-8.7713000">
        <ele>6.3</ele>
        <time>2021-05-16T13:22:42Z</time>
      </trkpt>
      <trkpt lat="41.3843970" lon="-8.7713150">
        <ele>6.3</ele>
        <time>2021-05-16T13:22:43Z</time>
      </trkpt>
      <trkpt lat="41.3844030" lon="-8.7713220">
        <ele>6.3</ele>
        <time>2021-05-16T13:22:44Z</time>
      </trkpt>
      <trkpt lat="41.3844090" lon="-8.7713280">
        <ele>6.3</ele>
        <time>2021-05-16T13:22:45Z</time>
      </trkpt>
      <trkpt lat="41.3844200" lon="-8.7713320">
        <ele>6.3</ele>
        <time>2021-05-16T13:22:46Z</time>
      </trkpt>
      <trkpt lat="41.3844350" lon="-8.7713460">
        <ele>6.3</ele>
        <time>2021-05-16T13:22:47Z</time>
      </trkpt>
      <trkpt lat="41.3844420" lon="-8.7713630">
        <ele>6.4</ele>
        <time>2021-05-16T13:22:48Z</time>
      </trkpt>
      <trkpt lat="41.3844500" lon="-8.7713790">
        <ele>6.4</ele>
        <time>2021-05-16T13:22:49Z</time>
      </trkpt>
      <trkpt lat="41.3844720" lon="-8.7714050">
        <ele>6.4</ele>
        <time>2021-05-16T13:22:50Z</time>
      </trkpt>
      <trkpt lat="41.3844780" lon="-8.7714140">
        <ele>6.4</ele>
        <time>2021-05-16T13:22:51Z</time>
      </trkpt>
      <trkpt lat="41.3844870" lon="-8.7714330">
        <ele>6.4</ele>
        <time>2021-05-16T13:22:52Z</time>
      </trkpt>
      <trkpt lat="41.3844950" lon="-8.7714380">
        <ele>6.4</ele>
        <time>2021-05-16T13:22:53Z</time>
      </trkpt>
      <trkpt lat="41.3845010" lon="-8.7714370">
        <ele>6.4</ele>
        <time>2021-05-16T13:22:54Z</time>
      </trkpt>
      <trkpt lat="41.3845160" lon="-8.7714490">
        <ele>6.4</ele>
        <time>2021-05-16T13:22:55Z</time>
      </trkpt>
      <trkpt lat="41.3845240" lon="-8.7714540">
        <ele>6.4</ele>
        <time>2021-05-16T13:22:56Z</time>
      </trkpt>
      <trkpt lat="41.3845200" lon="-8.7714650">
        <ele>6.4</ele>
        <time>2021-05-16T13:22:57Z</time>
      </trkpt>
      <trkpt lat="41.3845380" lon="-8.7714840">
        <ele>6.4</ele>
        <time>2021-05-16T13:22:58Z</time>
      </trkpt>
      <trkpt lat="41.3845430" lon="-8.7714920">
        <ele>6.4</ele>
        <time>2021-05-16T13:22:59Z</time>
      </trkpt>
      <trkpt lat="41.3845490" lon="-8.7715000">
        <ele>6.4</ele>
        <time>2021-05-16T13:23:00Z</time>
      </trkpt>
      <trkpt lat="41.3845620" lon="-8.7715090">
        <ele>6.4</ele>
        <time>2021-05-16T13:23:01Z</time>
      </trkpt>
      <trkpt lat="41.3845740" lon="-8.7715170">
        <ele>6.4</ele>
        <time>2021-05-16T13:23:02Z</time>
      </trkpt>
      <trkpt lat="41.3845890" lon="-8.7715370">
        <ele>6.4</ele>
        <time>2021-05-16T13:23:03Z</time>
      </trkpt>
      <trkpt lat="41.3845950" lon="-8.7715440">
        <ele>6.4</ele>
        <time>2021-05-16T13:23:04Z</time>
      </trkpt>
      <trkpt lat="41.3846010" lon="-8.7715520">
        <ele>6.4</ele>
        <time>2021-05-16T13:23:05Z</time>
      </trkpt>
      <trkpt lat="41.3846080" lon="-8.7715610">
        <ele>6.4</ele>
        <time>2021-05-16T13:23:06Z</time>
      </trkpt>
      <trkpt lat="41.3846200" lon="-8.7715630">
        <ele>6.4</ele>
        <time>2021-05-16T13:23:07Z</time>
      </trkpt>
      <trkpt lat="41.3846310" lon="-8.7715720">
        <ele>6.4</ele>
        <time>2021-05-16T13:23:08Z</time>
      </trkpt>
      <trkpt lat="41.3846470" lon="-8.7715880">
        <ele>6.4</ele>
        <time>2021-05-16T13:23:09Z</time>
      </trkpt>
      <trkpt lat="41.3846560" lon="-8.7715940">
        <ele>6.4</ele>
        <time>2021-05-16T13:23:10Z</time>
      </trkpt>
      <trkpt lat="41.3846640" lon="-8.7715990">
        <ele>6.4</ele>
        <time>2021-05-16T13:23:11Z</time>
      </trkpt>
      <trkpt lat="41.3846770" lon="-8.7716070">
        <ele>6.4</ele>
        <time>2021-05-16T13:23:12Z</time>
      </trkpt>
      <trkpt lat="41.3846910" lon="-8.7716130">
        <ele>6.5</ele>
        <time>2021-05-16T13:23:13Z</time>
      </trkpt>
      <trkpt lat="41.3846960" lon="-8.7716250">
        <ele>6.5</ele>
        <time>2021-05-16T13:23:14Z</time>
      </trkpt>
      <trkpt lat="41.3847070" lon="-8.7716290">
        <ele>6.5</ele>
        <time>2021-05-16T13:23:15Z</time>
      </trkpt>
      <trkpt lat="41.3847220" lon="-8.7716280">
        <ele>6.5</ele>
        <time>2021-05-16T13:23:16Z</time>
      </trkpt>
      <trkpt lat="41.3847400" lon="-8.7716320">
        <ele>6.5</ele>
        <time>2021-05-16T13:23:17Z</time>
      </trkpt>
      <trkpt lat="41.3847490" lon="-8.7716320">
        <ele>6.5</ele>
        <time>2021-05-16T13:23:18Z</time>
      </trkpt>
      <trkpt lat="41.3847620" lon="-8.7716340">
        <ele>6.5</ele>
        <time>2021-05-16T13:23:19Z</time>
      </trkpt>
      <trkpt lat="41.3847770" lon="-8.7716390">
        <ele>6.5</ele>
        <time>2021-05-16T13:23:20Z</time>
      </trkpt>
      <trkpt lat="41.3847920" lon="-8.7716450">
        <ele>6.4</ele>
        <time>2021-05-16T13:23:21Z</time>
      </trkpt>
      <trkpt lat="41.3847940" lon="-8.7716510">
        <ele>6.4</ele>
        <time>2021-05-16T13:23:22Z</time>
      </trkpt>
      <trkpt lat="41.3848050" lon="-8.7716650">
        <ele>6.4</ele>
        <time>2021-05-16T13:23:23Z</time>
      </trkpt>
      <trkpt lat="41.3848310" lon="-8.7716780">
        <ele>6.4</ele>
        <time>2021-05-16T13:23:24Z</time>
      </trkpt>
      <trkpt lat="41.3848420" lon="-8.7716800">
        <ele>6.4</ele>
        <time>2021-05-16T13:23:25Z</time>
      </trkpt>
      <trkpt lat="41.3848560" lon="-8.7716840">
        <ele>6.4</ele>
        <time>2021-05-16T13:23:26Z</time>
      </trkpt>
      <trkpt lat="41.3848730" lon="-8.7716980">
        <ele>6.4</ele>
        <time>2021-05-16T13:23:27Z</time>
      </trkpt>
      <trkpt lat="41.3848800" lon="-8.7717040">
        <ele>6.4</ele>
        <time>2021-05-16T13:23:28Z</time>
      </trkpt>
      <trkpt lat="41.3848990" lon="-8.7717200">
        <ele>6.4</ele>
        <time>2021-05-16T13:23:29Z</time>
      </trkpt>
      <trkpt lat="41.3849090" lon="-8.7717280">
        <ele>6.4</ele>
        <time>2021-05-16T13:23:30Z</time>
      </trkpt>
      <trkpt lat="41.3849260" lon="-8.7717340">
        <ele>6.4</ele>
        <time>2021-05-16T13:23:31Z</time>
      </trkpt>
      <trkpt lat="41.3849400" lon="-8.7717430">
        <ele>6.4</ele>
        <time>2021-05-16T13:23:32Z</time>
      </trkpt>
      <trkpt lat="41.3849570" lon="-8.7717450">
        <ele>6.4</ele>
        <time>2021-05-16T13:23:33Z</time>
      </trkpt>
      <trkpt lat="41.3849700" lon="-8.7717490">
        <ele>6.4</ele>
        <time>2021-05-16T13:23:34Z</time>
      </trkpt>
      <trkpt lat="41.3849850" lon="-8.7717560">
        <ele>6.4</ele>
        <time>2021-05-16T13:23:35Z</time>
      </trkpt>
      <trkpt lat="41.3849950" lon="-8.7717640">
        <ele>6.4</ele>
        <time>2021-05-16T13:23:36Z</time>
      </trkpt>
      <trkpt lat="41.3850080" lon="-8.7717590">
        <ele>6.4</ele>
        <time>2021-05-16T13:23:37Z</time>
      </trkpt>
      <trkpt lat="41.3850200" lon="-8.7717580">
        <ele>6.4</ele>
        <time>2021-05-16T13:23:38Z</time>
      </trkpt>
      <trkpt lat="41.3850320" lon="-8.7717600">
        <ele>6.4</ele>
        <time>2021-05-16T13:23:39Z</time>
      </trkpt>
      <trkpt lat="41.3850390" lon="-8.7717690">
        <ele>6.4</ele>
        <time>2021-05-16T13:23:40Z</time>
      </trkpt>
      <trkpt lat="41.3850530" lon="-8.7717690">
        <ele>6.4</ele>
        <time>2021-05-16T13:23:41Z</time>
      </trkpt>
      <trkpt lat="41.3850820" lon="-8.7717710">
        <ele>6.4</ele>
        <time>2021-05-16T13:23:42Z</time>
      </trkpt>
      <trkpt lat="41.3850910" lon="-8.7717730">
        <ele>6.4</ele>
        <time>2021-05-16T13:23:43Z</time>
      </trkpt>
      <trkpt lat="41.3851110" lon="-8.7717770">
        <ele>6.4</ele>
        <time>2021-05-16T13:23:44Z</time>
      </trkpt>
      <trkpt lat="41.3851220" lon="-8.7717820">
        <ele>6.4</ele>
        <time>2021-05-16T13:23:45Z</time>
      </trkpt>
      <trkpt lat="41.3851500" lon="-8.7717740">
        <ele>6.4</ele>
        <time>2021-05-16T13:23:46Z</time>
      </trkpt>
      <trkpt lat="41.3851590" lon="-8.7717720">
        <ele>6.4</ele>
        <time>2021-05-16T13:23:47Z</time>
      </trkpt>
      <trkpt lat="41.3851750" lon="-8.7717780">
        <ele>6.4</ele>
        <time>2021-05-16T13:23:48Z</time>
      </trkpt>
      <trkpt lat="41.3851810" lon="-8.7718050">
        <ele>6.4</ele>
        <time>2021-05-16T13:23:49Z</time>
      </trkpt>
      <trkpt lat="41.3851970" lon="-8.7718160">
        <ele>6.4</ele>
        <time>2021-05-16T13:23:50Z</time>
      </trkpt>
      <trkpt lat="41.3852090" lon="-8.7718170">
        <ele>6.4</ele>
        <time>2021-05-16T13:23:51Z</time>
      </trkpt>
      <trkpt lat="41.3852300" lon="-8.7718270">
        <ele>6.5</ele>
        <time>2021-05-16T13:23:52Z</time>
      </trkpt>
      <trkpt lat="41.3852410" lon="-8.7718330">
        <ele>6.5</ele>
        <time>2021-05-16T13:23:53Z</time>
      </trkpt>
      <trkpt lat="41.3852650" lon="-8.7718370">
        <ele>6.5</ele>
        <time>2021-05-16T13:23:54Z</time>
      </trkpt>
      <trkpt lat="41.3852730" lon="-8.7718400">
        <ele>6.5</ele>
        <time>2021-05-16T13:23:55Z</time>
      </trkpt>
      <trkpt lat="41.3852820" lon="-8.7718440">
        <ele>6.5</ele>
        <time>2021-05-16T13:23:56Z</time>
      </trkpt>
      <trkpt lat="41.3853000" lon="-8.7718580">
        <ele>6.5</ele>
        <time>2021-05-16T13:23:57Z</time>
      </trkpt>
      <trkpt lat="41.3853110" lon="-8.7718580">
        <ele>6.5</ele>
        <time>2021-05-16T13:23:58Z</time>
      </trkpt>
      <trkpt lat="41.3853260" lon="-8.7718630">
        <ele>6.5</ele>
        <time>2021-05-16T13:23:59Z</time>
      </trkpt>
      <trkpt lat="41.3853470" lon="-8.7718660">
        <ele>6.5</ele>
        <time>2021-05-16T13:24:00Z</time>
      </trkpt>
      <trkpt lat="41.3853650" lon="-8.7718710">
        <ele>6.5</ele>
        <time>2021-05-16T13:24:01Z</time>
      </trkpt>
      <trkpt lat="41.3853800" lon="-8.7718750">
        <ele>6.5</ele>
        <time>2021-05-16T13:24:02Z</time>
      </trkpt>
      <trkpt lat="41.3854100" lon="-8.7718660">
        <ele>6.5</ele>
        <time>2021-05-16T13:24:03Z</time>
      </trkpt>
      <trkpt lat="41.3854210" lon="-8.7718610">
        <ele>6.5</ele>
        <time>2021-05-16T13:24:04Z</time>
      </trkpt>
      <trkpt lat="41.3854520" lon="-8.7718610">
        <ele>6.5</ele>
        <time>2021-05-16T13:24:05Z</time>
      </trkpt>
      <trkpt lat="41.3854590" lon="-8.7718590">
        <ele>6.5</ele>
        <time>2021-05-16T13:24:06Z</time>
      </trkpt>
      <trkpt lat="41.3854750" lon="-8.7718600">
        <ele>6.5</ele>
        <time>2021-05-16T13:24:07Z</time>
      </trkpt>
      <trkpt lat="41.3854880" lon="-8.7718600">
        <ele>6.5</ele>
        <time>2021-05-16T13:24:08Z</time>
      </trkpt>
      <trkpt lat="41.3854910" lon="-8.7718790">
        <ele>6.5</ele>
        <time>2021-05-16T13:24:09Z</time>
      </trkpt>
      <trkpt lat="41.3854980" lon="-8.7718840">
        <ele>6.5</ele>
        <time>2021-05-16T13:24:10Z</time>
      </trkpt>
      <trkpt lat="41.3855080" lon="-8.7718970">
        <ele>6.5</ele>
        <time>2021-05-16T13:24:11Z</time>
      </trkpt>
      <trkpt lat="41.3855230" lon="-8.7719040">
        <ele>6.5</ele>
        <time>2021-05-16T13:24:12Z</time>
      </trkpt>
      <trkpt lat="41.3855320" lon="-8.7719130">
        <ele>6.5</ele>
        <time>2021-05-16T13:24:13Z</time>
      </trkpt>
      <trkpt lat="41.3855370" lon="-8.7719190">
        <ele>6.5</ele>
        <time>2021-05-16T13:24:14Z</time>
      </trkpt>
      <trkpt lat="41.3855500" lon="-8.7719290">
        <ele>6.6</ele>
        <time>2021-05-16T13:24:15Z</time>
      </trkpt>
      <trkpt lat="41.3855590" lon="-8.7719420">
        <ele>6.6</ele>
        <time>2021-05-16T13:24:16Z</time>
      </trkpt>
      <trkpt lat="41.3855770" lon="-8.7719660">
        <ele>6.6</ele>
        <time>2021-05-16T13:24:17Z</time>
      </trkpt>
      <trkpt lat="41.3855860" lon="-8.7719760">
        <ele>6.6</ele>
        <time>2021-05-16T13:24:18Z</time>
      </trkpt>
      <trkpt lat="41.3855940" lon="-8.7719860">
        <ele>6.6</ele>
        <time>2021-05-16T13:24:19Z</time>
      </trkpt>
      <trkpt lat="41.3856010" lon="-8.7720000">
        <ele>6.6</ele>
        <time>2021-05-16T13:24:20Z</time>
      </trkpt>
      <trkpt lat="41.3856130" lon="-8.7720160">
        <ele>6.6</ele>
        <time>2021-05-16T13:24:21Z</time>
      </trkpt>
      <trkpt lat="41.3856290" lon="-8.7720260">
        <ele>6.6</ele>
        <time>2021-05-16T13:24:22Z</time>
      </trkpt>
      <trkpt lat="41.3856400" lon="-8.7720350">
        <ele>6.6</ele>
        <time>2021-05-16T13:24:23Z</time>
      </trkpt>
      <trkpt lat="41.3856540" lon="-8.7720420">
        <ele>6.7</ele>
        <time>2021-05-16T13:24:24Z</time>
      </trkpt>
      <trkpt lat="41.3856730" lon="-8.7720280">
        <ele>6.7</ele>
        <time>2021-05-16T13:24:25Z</time>
      </trkpt>
      <trkpt lat="41.3856820" lon="-8.7720390">
        <ele>6.7</ele>
        <time>2021-05-16T13:24:26Z</time>
      </trkpt>
      <trkpt lat="41.3856940" lon="-8.7720410">
        <ele>6.7</ele>
        <time>2021-05-16T13:24:27Z</time>
      </trkpt>
      <trkpt lat="41.3857010" lon="-8.7720570">
        <ele>6.7</ele>
        <time>2021-05-16T13:24:28Z</time>
      </trkpt>
      <trkpt lat="41.3857200" lon="-8.7720630">
        <ele>6.7</ele>
        <time>2021-05-16T13:24:29Z</time>
      </trkpt>
      <trkpt lat="41.3857280" lon="-8.7720670">
        <ele>6.7</ele>
        <time>2021-05-16T13:24:30Z</time>
      </trkpt>
      <trkpt lat="41.3857370" lon="-8.7720700">
        <ele>6.7</ele>
        <time>2021-05-16T13:24:31Z</time>
      </trkpt>
      <trkpt lat="41.3857510" lon="-8.7720770">
        <ele>6.7</ele>
        <time>2021-05-16T13:24:32Z</time>
      </trkpt>
      <trkpt lat="41.3857620" lon="-8.7720800">
        <ele>6.8</ele>
        <time>2021-05-16T13:24:33Z</time>
      </trkpt>
      <trkpt lat="41.3857700" lon="-8.7720850">
        <ele>6.8</ele>
        <time>2021-05-16T13:24:34Z</time>
      </trkpt>
      <trkpt lat="41.3857720" lon="-8.7721080">
        <ele>6.8</ele>
        <time>2021-05-16T13:24:35Z</time>
      </trkpt>
      <trkpt lat="41.3857770" lon="-8.7721270">
        <ele>6.8</ele>
        <time>2021-05-16T13:24:36Z</time>
      </trkpt>
      <trkpt lat="41.3857920" lon="-8.7721440">
        <ele>6.8</ele>
        <time>2021-05-16T13:24:37Z</time>
      </trkpt>
      <trkpt lat="41.3858010" lon="-8.7721560">
        <ele>6.8</ele>
        <time>2021-05-16T13:24:38Z</time>
      </trkpt>
      <trkpt lat="41.3858130" lon="-8.7721620">
        <ele>6.8</ele>
        <time>2021-05-16T13:24:39Z</time>
      </trkpt>
      <trkpt lat="41.3858260" lon="-8.7721750">
        <ele>6.8</ele>
        <time>2021-05-16T13:24:40Z</time>
      </trkpt>
      <trkpt lat="41.3858420" lon="-8.7722080">
        <ele>6.8</ele>
        <time>2021-05-16T13:24:41Z</time>
      </trkpt>
      <trkpt lat="41.3858460" lon="-8.7722210">
        <ele>6.8</ele>
        <time>2021-05-16T13:24:42Z</time>
      </trkpt>
      <trkpt lat="41.3858570" lon="-8.7722580">
        <ele>6.9</ele>
        <time>2021-05-16T13:24:43Z</time>
      </trkpt>
      <trkpt lat="41.3858610" lon="-8.7722710">
        <ele>6.8</ele>
        <time>2021-05-16T13:24:44Z</time>
      </trkpt>
      <trkpt lat="41.3858770" lon="-8.7722920">
        <ele>6.8</ele>
        <time>2021-05-16T13:24:45Z</time>
      </trkpt>
      <trkpt lat="41.3858850" lon="-8.7722990">
        <ele>6.8</ele>
        <time>2021-05-16T13:24:46Z</time>
      </trkpt>
      <trkpt lat="41.3858930" lon="-8.7723060">
        <ele>6.8</ele>
        <time>2021-05-16T13:24:47Z</time>
      </trkpt>
      <trkpt lat="41.3859040" lon="-8.7723210">
        <ele>6.8</ele>
        <time>2021-05-16T13:24:48Z</time>
      </trkpt>
      <trkpt lat="41.3859170" lon="-8.7723290">
        <ele>6.8</ele>
        <time>2021-05-16T13:24:49Z</time>
      </trkpt>
      <trkpt lat="41.3859300" lon="-8.7723450">
        <ele>6.8</ele>
        <time>2021-05-16T13:24:50Z</time>
      </trkpt>
      <trkpt lat="41.3859440" lon="-8.7723530">
        <ele>6.8</ele>
        <time>2021-05-16T13:24:51Z</time>
      </trkpt>
      <trkpt lat="41.3859560" lon="-8.7723660">
        <ele>6.8</ele>
        <time>2021-05-16T13:24:52Z</time>
      </trkpt>
      <trkpt lat="41.3859650" lon="-8.7723790">
        <ele>6.8</ele>
        <time>2021-05-16T13:24:53Z</time>
      </trkpt>
      <trkpt lat="41.3859740" lon="-8.7723990">
        <ele>6.8</ele>
        <time>2021-05-16T13:24:54Z</time>
      </trkpt>
      <trkpt lat="41.3859790" lon="-8.7724160">
        <ele>6.9</ele>
        <time>2021-05-16T13:24:55Z</time>
      </trkpt>
      <trkpt lat="41.3859880" lon="-8.7724430">
        <ele>6.9</ele>
        <time>2021-05-16T13:24:56Z</time>
      </trkpt>
      <trkpt lat="41.3859940" lon="-8.7724500">
        <ele>6.9</ele>
        <time>2021-05-16T13:24:57Z</time>
      </trkpt>
      <trkpt lat="41.3860010" lon="-8.7724560">
        <ele>6.9</ele>
        <time>2021-05-16T13:24:58Z</time>
      </trkpt>
      <trkpt lat="41.3860180" lon="-8.7724550">
        <ele>6.9</ele>
        <time>2021-05-16T13:24:59Z</time>
      </trkpt>
      <trkpt lat="41.3860260" lon="-8.7724680">
        <ele>6.9</ele>
        <time>2021-05-16T13:25:00Z</time>
      </trkpt>
      <trkpt lat="41.3860310" lon="-8.7724690">
        <ele>6.9</ele>
        <time>2021-05-16T13:25:01Z</time>
      </trkpt>
      <trkpt lat="41.3860360" lon="-8.7724640">
        <ele>6.9</ele>
        <time>2021-05-16T13:25:02Z</time>
      </trkpt>
      <trkpt lat="41.3860190" lon="-8.7724600">
        <ele>6.9</ele>
        <time>2021-05-16T13:25:03Z</time>
      </trkpt>
      <trkpt lat="41.3860110" lon="-8.7724620">
        <ele>7.0</ele>
        <time>2021-05-16T13:25:04Z</time>
      </trkpt>
      <trkpt lat="41.3860060" lon="-8.7724640">
        <ele>7.0</ele>
        <time>2021-05-16T13:25:05Z</time>
      </trkpt>
      <trkpt lat="41.3860010" lon="-8.7724660">
        <ele>7.0</ele>
        <time>2021-05-16T13:25:06Z</time>
      </trkpt>
      <trkpt lat="41.3859960" lon="-8.7724690">
        <ele>7.0</ele>
        <time>2021-05-16T13:25:07Z</time>
      </trkpt>
      <trkpt lat="41.3859920" lon="-8.7724710">
        <ele>7.0</ele>
        <time>2021-05-16T13:25:08Z</time>
      </trkpt>
      <trkpt lat="41.3859920" lon="-8.7724730">
        <ele>7.0</ele>
        <time>2021-05-16T13:25:09Z</time>
      </trkpt>
      <trkpt lat="41.3859930" lon="-8.7724730">
        <ele>7.0</ele>
        <time>2021-05-16T13:25:10Z</time>
      </trkpt>
      <trkpt lat="41.3859930" lon="-8.7724730">
        <ele>7.0</ele>
        <time>2021-05-16T13:25:11Z</time>
      </trkpt>
      <trkpt lat="41.3859760" lon="-8.7724770">
        <ele>7.0</ele>
        <time>2021-05-16T13:25:12Z</time>
      </trkpt>
      <trkpt lat="41.3859770" lon="-8.7724770">
        <ele>7.0</ele>
        <time>2021-05-16T13:25:13Z</time>
      </trkpt>
      <trkpt lat="41.3860000" lon="-8.7724950">
        <ele>7.0</ele>
        <time>2021-05-16T13:25:14Z</time>
      </trkpt>
      <trkpt lat="41.3860150" lon="-8.7724980">
        <ele>7.0</ele>
        <time>2021-05-16T13:25:15Z</time>
      </trkpt>
      <trkpt lat="41.3860310" lon="-8.7724930">
        <ele>7.0</ele>
        <time>2021-05-16T13:25:16Z</time>
      </trkpt>
      <trkpt lat="41.3860380" lon="-8.7725010">
        <ele>7.0</ele>
        <time>2021-05-16T13:25:17Z</time>
      </trkpt>
      <trkpt lat="41.3860470" lon="-8.7725050">
        <ele>7.0</ele>
        <time>2021-05-16T13:25:18Z</time>
      </trkpt>
      <trkpt lat="41.3860580" lon="-8.7725040">
        <ele>7.0</ele>
        <time>2021-05-16T13:25:19Z</time>
      </trkpt>
      <trkpt lat="41.3860740" lon="-8.7725110">
        <ele>7.0</ele>
        <time>2021-05-16T13:25:20Z</time>
      </trkpt>
      <trkpt lat="41.3860900" lon="-8.7725220">
        <ele>7.0</ele>
        <time>2021-05-16T13:25:21Z</time>
      </trkpt>
      <trkpt lat="41.3860960" lon="-8.7725240">
        <ele>7.0</ele>
        <time>2021-05-16T13:25:22Z</time>
      </trkpt>
      <trkpt lat="41.3861030" lon="-8.7725270">
        <ele>7.0</ele>
        <time>2021-05-16T13:25:23Z</time>
      </trkpt>
      <trkpt lat="41.3861090" lon="-8.7725300">
        <ele>7.0</ele>
        <time>2021-05-16T13:25:24Z</time>
      </trkpt>
      <trkpt lat="41.3861310" lon="-8.7725370">
        <ele>7.0</ele>
        <time>2021-05-16T13:25:25Z</time>
      </trkpt>
      <trkpt lat="41.3861400" lon="-8.7725400">
        <ele>7.0</ele>
        <time>2021-05-16T13:25:26Z</time>
      </trkpt>
      <trkpt lat="41.3861500" lon="-8.7725440">
        <ele>7.0</ele>
        <time>2021-05-16T13:25:27Z</time>
      </trkpt>
      <trkpt lat="41.3861550" lon="-8.7725500">
        <ele>7.0</ele>
        <time>2021-05-16T13:25:28Z</time>
      </trkpt>
      <trkpt lat="41.3861670" lon="-8.7725560">
        <ele>7.0</ele>
        <time>2021-05-16T13:25:29Z</time>
      </trkpt>
      <trkpt lat="41.3861800" lon="-8.7725590">
        <ele>7.0</ele>
        <time>2021-05-16T13:25:30Z</time>
      </trkpt>
      <trkpt lat="41.3861920" lon="-8.7725660">
        <ele>7.1</ele>
        <time>2021-05-16T13:25:31Z</time>
      </trkpt>
      <trkpt lat="41.3862060" lon="-8.7725800">
        <ele>7.1</ele>
        <time>2021-05-16T13:25:32Z</time>
      </trkpt>
      <trkpt lat="41.3862240" lon="-8.7725950">
        <ele>7.1</ele>
        <time>2021-05-16T13:25:33Z</time>
      </trkpt>
      <trkpt lat="41.3862310" lon="-8.7726020">
        <ele>7.1</ele>
        <time>2021-05-16T13:25:34Z</time>
      </trkpt>
      <trkpt lat="41.3862390" lon="-8.7726080">
        <ele>7.1</ele>
        <time>2021-05-16T13:25:35Z</time>
      </trkpt>
      <trkpt lat="41.3862560" lon="-8.7726140">
        <ele>7.1</ele>
        <time>2021-05-16T13:25:36Z</time>
      </trkpt>
      <trkpt lat="41.3862690" lon="-8.7726120">
        <ele>7.1</ele>
        <time>2021-05-16T13:25:37Z</time>
      </trkpt>
      <trkpt lat="41.3862880" lon="-8.7726170">
        <ele>7.1</ele>
        <time>2021-05-16T13:25:38Z</time>
      </trkpt>
      <trkpt lat="41.3862960" lon="-8.7726230">
        <ele>7.1</ele>
        <time>2021-05-16T13:25:39Z</time>
      </trkpt>
      <trkpt lat="41.3863050" lon="-8.7726280">
        <ele>7.1</ele>
        <time>2021-05-16T13:25:40Z</time>
      </trkpt>
      <trkpt lat="41.3863290" lon="-8.7726350">
        <ele>7.1</ele>
        <time>2021-05-16T13:25:41Z</time>
      </trkpt>
      <trkpt lat="41.3863360" lon="-8.7726350">
        <ele>7.1</ele>
        <time>2021-05-16T13:25:42Z</time>
      </trkpt>
      <trkpt lat="41.3863420" lon="-8.7726360">
        <ele>7.1</ele>
        <time>2021-05-16T13:25:43Z</time>
      </trkpt>
      <trkpt lat="41.3863570" lon="-8.7726390">
        <ele>7.1</ele>
        <time>2021-05-16T13:25:44Z</time>
      </trkpt>
      <trkpt lat="41.3863720" lon="-8.7726420">
        <ele>7.1</ele>
        <time>2021-05-16T13:25:45Z</time>
      </trkpt>
      <trkpt lat="41.3863950" lon="-8.7726510">
        <ele>7.1</ele>
        <time>2021-05-16T13:25:46Z</time>
      </trkpt>
      <trkpt lat="41.3864040" lon="-8.7726520">
        <ele>7.1</ele>
        <time>2021-05-16T13:25:47Z</time>
      </trkpt>
      <trkpt lat="41.3864140" lon="-8.7726540">
        <ele>7.1</ele>
        <time>2021-05-16T13:25:48Z</time>
      </trkpt>
      <trkpt lat="41.3864320" lon="-8.7726580">
        <ele>7.1</ele>
        <time>2021-05-16T13:25:49Z</time>
      </trkpt>
      <trkpt lat="41.3864440" lon="-8.7726580">
        <ele>7.1</ele>
        <time>2021-05-16T13:25:50Z</time>
      </trkpt>
      <trkpt lat="41.3864510" lon="-8.7726650">
        <ele>7.1</ele>
        <time>2021-05-16T13:25:51Z</time>
      </trkpt>
      <trkpt lat="41.3864580" lon="-8.7726690">
        <ele>7.1</ele>
        <time>2021-05-16T13:25:52Z</time>
      </trkpt>
      <trkpt lat="41.3864710" lon="-8.7726720">
        <ele>7.1</ele>
        <time>2021-05-16T13:25:53Z</time>
      </trkpt>
      <trkpt lat="41.3864900" lon="-8.7726700">
        <ele>7.1</ele>
        <time>2021-05-16T13:25:54Z</time>
      </trkpt>
      <trkpt lat="41.3865060" lon="-8.7726740">
        <ele>7.1</ele>
        <time>2021-05-16T13:25:55Z</time>
      </trkpt>
      <trkpt lat="41.3865200" lon="-8.7726750">
        <ele>7.1</ele>
        <time>2021-05-16T13:25:56Z</time>
      </trkpt>
      <trkpt lat="41.3865290" lon="-8.7726760">
        <ele>7.1</ele>
        <time>2021-05-16T13:25:57Z</time>
      </trkpt>
      <trkpt lat="41.3865390" lon="-8.7726750">
        <ele>7.1</ele>
        <time>2021-05-16T13:25:58Z</time>
      </trkpt>
      <trkpt lat="41.3865570" lon="-8.7726790">
        <ele>7.2</ele>
        <time>2021-05-16T13:25:59Z</time>
      </trkpt>
      <trkpt lat="41.3865630" lon="-8.7726860">
        <ele>7.2</ele>
        <time>2021-05-16T13:26:00Z</time>
      </trkpt>
      <trkpt lat="41.3865690" lon="-8.7726900">
        <ele>7.2</ele>
        <time>2021-05-16T13:26:01Z</time>
      </trkpt>
      <trkpt lat="41.3865780" lon="-8.7726980">
        <ele>7.2</ele>
        <time>2021-05-16T13:26:02Z</time>
      </trkpt>
      <trkpt lat="41.3865870" lon="-8.7727030">
        <ele>7.2</ele>
        <time>2021-05-16T13:26:03Z</time>
      </trkpt>
      <trkpt lat="41.3865970" lon="-8.7727080">
        <ele>7.2</ele>
        <time>2021-05-16T13:26:04Z</time>
      </trkpt>
      <trkpt lat="41.3866130" lon="-8.7727240">
        <ele>7.2</ele>
        <time>2021-05-16T13:26:05Z</time>
      </trkpt>
      <trkpt lat="41.3866200" lon="-8.7727320">
        <ele>7.2</ele>
        <time>2021-05-16T13:26:06Z</time>
      </trkpt>
      <trkpt lat="41.3866260" lon="-8.7727400">
        <ele>7.2</ele>
        <time>2021-05-16T13:26:07Z</time>
      </trkpt>
      <trkpt lat="41.3866330" lon="-8.7727480">
        <ele>7.2</ele>
        <time>2021-05-16T13:26:08Z</time>
      </trkpt>
      <trkpt lat="41.3866360" lon="-8.7727570">
        <ele>7.2</ele>
        <time>2021-05-16T13:26:09Z</time>
      </trkpt>
      <trkpt lat="41.3866510" lon="-8.7727640">
        <ele>7.2</ele>
        <time>2021-05-16T13:26:10Z</time>
      </trkpt>
      <trkpt lat="41.3866680" lon="-8.7727720">
        <ele>7.2</ele>
        <time>2021-05-16T13:26:11Z</time>
      </trkpt>
      <trkpt lat="41.3866820" lon="-8.7727810">
        <ele>7.2</ele>
        <time>2021-05-16T13:26:12Z</time>
      </trkpt>
      <trkpt lat="41.3867010" lon="-8.7727900">
        <ele>7.2</ele>
        <time>2021-05-16T13:26:13Z</time>
      </trkpt>
      <trkpt lat="41.3867160" lon="-8.7727910">
        <ele>7.2</ele>
        <time>2021-05-16T13:26:14Z</time>
      </trkpt>
      <trkpt lat="41.3867260" lon="-8.7728040">
        <ele>7.2</ele>
        <time>2021-05-16T13:26:15Z</time>
      </trkpt>
      <trkpt lat="41.3867410" lon="-8.7728060">
        <ele>7.3</ele>
        <time>2021-05-16T13:26:16Z</time>
      </trkpt>
      <trkpt lat="41.3867530" lon="-8.7728210">
        <ele>7.3</ele>
        <time>2021-05-16T13:26:17Z</time>
      </trkpt>
      <trkpt lat="41.3867690" lon="-8.7728290">
        <ele>7.3</ele>
        <time>2021-05-16T13:26:18Z</time>
      </trkpt>
      <trkpt lat="41.3867710" lon="-8.7728360">
        <ele>7.3</ele>
        <time>2021-05-16T13:26:19Z</time>
      </trkpt>
      <trkpt lat="41.3867860" lon="-8.7728420">
        <ele>7.3</ele>
        <time>2021-05-16T13:26:20Z</time>
      </trkpt>
      <trkpt lat="41.3867980" lon="-8.7728510">
        <ele>7.3</ele>
        <time>2021-05-16T13:26:21Z</time>
      </trkpt>
      <trkpt lat="41.3868110" lon="-8.7728620">
        <ele>7.3</ele>
        <time>2021-05-16T13:26:22Z</time>
      </trkpt>
      <trkpt lat="41.3868260" lon="-8.7728710">
        <ele>7.3</ele>
        <time>2021-05-16T13:26:23Z</time>
      </trkpt>
      <trkpt lat="41.3868410" lon="-8.7728750">
        <ele>7.3</ele>
        <time>2021-05-16T13:26:24Z</time>
      </trkpt>
      <trkpt lat="41.3868590" lon="-8.7728820">
        <ele>7.3</ele>
        <time>2021-05-16T13:26:25Z</time>
      </trkpt>
      <trkpt lat="41.3868730" lon="-8.7728880">
        <ele>7.3</ele>
        <time>2021-05-16T13:26:26Z</time>
      </trkpt>
      <trkpt lat="41.3868810" lon="-8.7728910">
        <ele>7.3</ele>
        <time>2021-05-16T13:26:27Z</time>
      </trkpt>
      <trkpt lat="41.3868920" lon="-8.7729000">
        <ele>7.3</ele>
        <time>2021-05-16T13:26:28Z</time>
      </trkpt>
      <trkpt lat="41.3868980" lon="-8.7729070">
        <ele>7.3</ele>
        <time>2021-05-16T13:26:29Z</time>
      </trkpt>
      <trkpt lat="41.3869150" lon="-8.7729150">
        <ele>7.3</ele>
        <time>2021-05-16T13:26:30Z</time>
      </trkpt>
      <trkpt lat="41.3869230" lon="-8.7729260">
        <ele>7.3</ele>
        <time>2021-05-16T13:26:31Z</time>
      </trkpt>
      <trkpt lat="41.3869470" lon="-8.7729390">
        <ele>7.3</ele>
        <time>2021-05-16T13:26:32Z</time>
      </trkpt>
      <trkpt lat="41.3869560" lon="-8.7729460">
        <ele>7.3</ele>
        <time>2021-05-16T13:26:33Z</time>
      </trkpt>
      <trkpt lat="41.3869670" lon="-8.7729470">
        <ele>7.3</ele>
        <time>2021-05-16T13:26:34Z</time>
      </trkpt>
      <trkpt lat="41.3869850" lon="-8.7729550">
        <ele>7.3</ele>
        <time>2021-05-16T13:26:35Z</time>
      </trkpt>
      <trkpt lat="41.3870020" lon="-8.7729620">
        <ele>7.3</ele>
        <time>2021-05-16T13:26:36Z</time>
      </trkpt>
      <trkpt lat="41.3870190" lon="-8.7729660">
        <ele>7.3</ele>
        <time>2021-05-16T13:26:37Z</time>
      </trkpt>
      <trkpt lat="41.3870510" lon="-8.7729760">
        <ele>7.4</ele>
        <time>2021-05-16T13:26:39Z</time>
      </trkpt>
      <trkpt lat="41.3870690" lon="-8.7729790">
        <ele>7.4</ele>
        <time>2021-05-16T13:26:40Z</time>
      </trkpt>
      <trkpt lat="41.3870820" lon="-8.7729860">
        <ele>7.4</ele>
        <time>2021-05-16T13:26:41Z</time>
      </trkpt>
      <trkpt lat="41.3871010" lon="-8.7729900">
        <ele>7.4</ele>
        <time>2021-05-16T13:26:42Z</time>
      </trkpt>
      <trkpt lat="41.3871080" lon="-8.7729920">
        <ele>7.4</ele>
        <time>2021-05-16T13:26:43Z</time>
      </trkpt>
      <trkpt lat="41.3871140" lon="-8.7729930">
        <ele>7.4</ele>
        <time>2021-05-16T13:26:44Z</time>
      </trkpt>
      <trkpt lat="41.3871210" lon="-8.7729950">
        <ele>7.4</ele>
        <time>2021-05-16T13:26:45Z</time>
      </trkpt>
      <trkpt lat="41.3871240" lon="-8.7729910">
        <ele>7.4</ele>
        <time>2021-05-16T13:26:46Z</time>
      </trkpt>
      <trkpt lat="41.3871330" lon="-8.7729910">
        <ele>7.4</ele>
        <time>2021-05-16T13:26:47Z</time>
      </trkpt>
      <trkpt lat="41.3871400" lon="-8.7729940">
        <ele>7.4</ele>
        <time>2021-05-16T13:26:48Z</time>
      </trkpt>
      <trkpt lat="41.3871530" lon="-8.7730000">
        <ele>7.4</ele>
        <time>2021-05-16T13:26:49Z</time>
      </trkpt>
      <trkpt lat="41.3871720" lon="-8.7730060">
        <ele>7.4</ele>
        <time>2021-05-16T13:26:50Z</time>
      </trkpt>
      <trkpt lat="41.3871830" lon="-8.7730120">
        <ele>7.4</ele>
        <time>2021-05-16T13:26:51Z</time>
      </trkpt>
      <trkpt lat="41.3871920" lon="-8.7730220">
        <ele>7.4</ele>
        <time>2021-05-16T13:26:52Z</time>
      </trkpt>
      <trkpt lat="41.3872070" lon="-8.7730330">
        <ele>7.4</ele>
        <time>2021-05-16T13:26:53Z</time>
      </trkpt>
      <trkpt lat="41.3872210" lon="-8.7730480">
        <ele>7.4</ele>
        <time>2021-05-16T13:26:54Z</time>
      </trkpt>
      <trkpt lat="41.3872330" lon="-8.7730530">
        <ele>7.4</ele>
        <time>2021-05-16T13:26:55Z</time>
      </trkpt>
      <trkpt lat="41.3872530" lon="-8.7730690">
        <ele>7.4</ele>
        <time>2021-05-16T13:26:56Z</time>
      </trkpt>
      <trkpt lat="41.3872620" lon="-8.7730730">
        <ele>7.4</ele>
        <time>2021-05-16T13:26:57Z</time>
      </trkpt>
      <trkpt lat="41.3872700" lon="-8.7730780">
        <ele>7.4</ele>
        <time>2021-05-16T13:26:58Z</time>
      </trkpt>
      <trkpt lat="41.3873020" lon="-8.7730880">
        <ele>7.4</ele>
        <time>2021-05-16T13:26:59Z</time>
      </trkpt>
      <trkpt lat="41.3873120" lon="-8.7730900">
        <ele>7.4</ele>
        <time>2021-05-16T13:27:00Z</time>
      </trkpt>
      <trkpt lat="41.3873270" lon="-8.7730950">
        <ele>7.4</ele>
        <time>2021-05-16T13:27:01Z</time>
      </trkpt>
      <trkpt lat="41.3873400" lon="-8.7731120">
        <ele>7.5</ele>
        <time>2021-05-16T13:27:02Z</time>
      </trkpt>
      <trkpt lat="41.3873490" lon="-8.7731190">
        <ele>7.5</ele>
        <time>2021-05-16T13:27:03Z</time>
      </trkpt>
      <trkpt lat="41.3873700" lon="-8.7731260">
        <ele>7.5</ele>
        <time>2021-05-16T13:27:04Z</time>
      </trkpt>
      <trkpt lat="41.3873800" lon="-8.7731370">
        <ele>7.5</ele>
        <time>2021-05-16T13:27:05Z</time>
      </trkpt>
      <trkpt lat="41.3873940" lon="-8.7731480">
        <ele>7.5</ele>
        <time>2021-05-16T13:27:06Z</time>
      </trkpt>
      <trkpt lat="41.3874190" lon="-8.7731560">
        <ele>7.5</ele>
        <time>2021-05-16T13:27:07Z</time>
      </trkpt>
      <trkpt lat="41.3874290" lon="-8.7731610">
        <ele>7.5</ele>
        <time>2021-05-16T13:27:08Z</time>
      </trkpt>
      <trkpt lat="41.3874390" lon="-8.7731670">
        <ele>7.5</ele>
        <time>2021-05-16T13:27:09Z</time>
      </trkpt>
      <trkpt lat="41.3874470" lon="-8.7731730">
        <ele>7.5</ele>
        <time>2021-05-16T13:27:10Z</time>
      </trkpt>
      <trkpt lat="41.3874560" lon="-8.7731810">
        <ele>7.5</ele>
        <time>2021-05-16T13:27:11Z</time>
      </trkpt>
      <trkpt lat="41.3874680" lon="-8.7731890">
        <ele>7.5</ele>
        <time>2021-05-16T13:27:12Z</time>
      </trkpt>
      <trkpt lat="41.3875000" lon="-8.7732000">
        <ele>7.5</ele>
        <time>2021-05-16T13:27:13Z</time>
      </trkpt>
      <trkpt lat="41.3875050" lon="-8.7732030">
        <ele>7.5</ele>
        <time>2021-05-16T13:27:14Z</time>
      </trkpt>
      <trkpt lat="41.3875290" lon="-8.7732100">
        <ele>7.5</ele>
        <time>2021-05-16T13:27:15Z</time>
      </trkpt>
      <trkpt lat="41.3875410" lon="-8.7732150">
        <ele>7.5</ele>
        <time>2021-05-16T13:27:16Z</time>
      </trkpt>
      <trkpt lat="41.3875540" lon="-8.7732210">
        <ele>7.5</ele>
        <time>2021-05-16T13:27:17Z</time>
      </trkpt>
      <trkpt lat="41.3875660" lon="-8.7732320">
        <ele>7.5</ele>
        <time>2021-05-16T13:27:18Z</time>
      </trkpt>
      <trkpt lat="41.3875790" lon="-8.7732410">
        <ele>7.5</ele>
        <time>2021-05-16T13:27:19Z</time>
      </trkpt>
      <trkpt lat="41.3875930" lon="-8.7732410">
        <ele>7.5</ele>
        <time>2021-05-16T13:27:20Z</time>
      </trkpt>
      <trkpt lat="41.3876080" lon="-8.7732460">
        <ele>7.5</ele>
        <time>2021-05-16T13:27:21Z</time>
      </trkpt>
      <trkpt lat="41.3876230" lon="-8.7732500">
        <ele>7.6</ele>
        <time>2021-05-16T13:27:22Z</time>
      </trkpt>
      <trkpt lat="41.3876380" lon="-8.7732500">
        <ele>7.6</ele>
        <time>2021-05-16T13:27:23Z</time>
      </trkpt>
      <trkpt lat="41.3876510" lon="-8.7732510">
        <ele>7.6</ele>
        <time>2021-05-16T13:27:24Z</time>
      </trkpt>
      <trkpt lat="41.3876630" lon="-8.7732550">
        <ele>7.6</ele>
        <time>2021-05-16T13:27:25Z</time>
      </trkpt>
      <trkpt lat="41.3876750" lon="-8.7732580">
        <ele>7.6</ele>
        <time>2021-05-16T13:27:26Z</time>
      </trkpt>
      <trkpt lat="41.3876870" lon="-8.7732620">
        <ele>7.6</ele>
        <time>2021-05-16T13:27:27Z</time>
      </trkpt>
      <trkpt lat="41.3877010" lon="-8.7732660">
        <ele>7.6</ele>
        <time>2021-05-16T13:27:28Z</time>
      </trkpt>
      <trkpt lat="41.3877150" lon="-8.7732700">
        <ele>7.6</ele>
        <time>2021-05-16T13:27:29Z</time>
      </trkpt>
      <trkpt lat="41.3877310" lon="-8.7732780">
        <ele>7.6</ele>
        <time>2021-05-16T13:27:30Z</time>
      </trkpt>
      <trkpt lat="41.3877410" lon="-8.7732810">
        <ele>7.6</ele>
        <time>2021-05-16T13:27:31Z</time>
      </trkpt>
      <trkpt lat="41.3877500" lon="-8.7732850">
        <ele>7.6</ele>
        <time>2021-05-16T13:27:32Z</time>
      </trkpt>
      <trkpt lat="41.3877720" lon="-8.7733020">
        <ele>7.6</ele>
        <time>2021-05-16T13:27:33Z</time>
      </trkpt>
      <trkpt lat="41.3877790" lon="-8.7733070">
        <ele>7.6</ele>
        <time>2021-05-16T13:27:34Z</time>
      </trkpt>
      <trkpt lat="41.3877870" lon="-8.7733130">
        <ele>7.6</ele>
        <time>2021-05-16T13:27:35Z</time>
      </trkpt>
      <trkpt lat="41.3878020" lon="-8.7733190">
        <ele>7.6</ele>
        <time>2021-05-16T13:27:36Z</time>
      </trkpt>
      <trkpt lat="41.3878190" lon="-8.7733180">
        <ele>7.6</ele>
        <time>2021-05-16T13:27:37Z</time>
      </trkpt>
      <trkpt lat="41.3878360" lon="-8.7733210">
        <ele>7.6</ele>
        <time>2021-05-16T13:27:38Z</time>
      </trkpt>
      <trkpt lat="41.3878470" lon="-8.7733120">
        <ele>7.6</ele>
        <time>2021-05-16T13:27:39Z</time>
      </trkpt>
      <trkpt lat="41.3878600" lon="-8.7733100">
        <ele>7.6</ele>
        <time>2021-05-16T13:27:40Z</time>
      </trkpt>
      <trkpt lat="41.3878760" lon="-8.7733160">
        <ele>7.6</ele>
        <time>2021-05-16T13:27:41Z</time>
      </trkpt>
      <trkpt lat="41.3878930" lon="-8.7733210">
        <ele>7.6</ele>
        <time>2021-05-16T13:27:42Z</time>
      </trkpt>
      <trkpt lat="41.3879050" lon="-8.7733350">
        <ele>7.6</ele>
        <time>2021-05-16T13:27:43Z</time>
      </trkpt>
      <trkpt lat="41.3879180" lon="-8.7733430">
        <ele>7.6</ele>
        <time>2021-05-16T13:27:44Z</time>
      </trkpt>
      <trkpt lat="41.3879340" lon="-8.7733520">
        <ele>7.6</ele>
        <time>2021-05-16T13:27:45Z</time>
      </trkpt>
      <trkpt lat="41.3879540" lon="-8.7733720">
        <ele>7.7</ele>
        <time>2021-05-16T13:27:46Z</time>
      </trkpt>
      <trkpt lat="41.3879620" lon="-8.7733810">
        <ele>7.7</ele>
        <time>2021-05-16T13:27:47Z</time>
      </trkpt>
      <trkpt lat="41.3879710" lon="-8.7733890">
        <ele>7.7</ele>
        <time>2021-05-16T13:27:48Z</time>
      </trkpt>
      <trkpt lat="41.3879810" lon="-8.7733930">
        <ele>7.7</ele>
        <time>2021-05-16T13:27:49Z</time>
      </trkpt>
      <trkpt lat="41.3879980" lon="-8.7733990">
        <ele>7.7</ele>
        <time>2021-05-16T13:27:50Z</time>
      </trkpt>
      <trkpt lat="41.3880040" lon="-8.7734060">
        <ele>7.7</ele>
        <time>2021-05-16T13:27:51Z</time>
      </trkpt>
      <trkpt lat="41.3880250" lon="-8.7734170">
        <ele>7.7</ele>
        <time>2021-05-16T13:27:52Z</time>
      </trkpt>
      <trkpt lat="41.3880380" lon="-8.7734220">
        <ele>7.7</ele>
        <time>2021-05-16T13:27:53Z</time>
      </trkpt>
      <trkpt lat="41.3880530" lon="-8.7734210">
        <ele>7.7</ele>
        <time>2021-05-16T13:27:54Z</time>
      </trkpt>
      <trkpt lat="41.3880700" lon="-8.7734310">
        <ele>7.7</ele>
        <time>2021-05-16T13:27:55Z</time>
      </trkpt>
      <trkpt lat="41.3880790" lon="-8.7734420">
        <ele>7.7</ele>
        <time>2021-05-16T13:27:56Z</time>
      </trkpt>
      <trkpt lat="41.3880920" lon="-8.7734490">
        <ele>7.7</ele>
        <time>2021-05-16T13:27:57Z</time>
      </trkpt>
      <trkpt lat="41.3881060" lon="-8.7734590">
        <ele>7.7</ele>
        <time>2021-05-16T13:27:58Z</time>
      </trkpt>
      <trkpt lat="41.3881270" lon="-8.7734690">
        <ele>7.7</ele>
        <time>2021-05-16T13:27:59Z</time>
      </trkpt>
      <trkpt lat="41.3881360" lon="-8.7734750">
        <ele>7.7</ele>
        <time>2021-05-16T13:28:00Z</time>
      </trkpt>
      <trkpt lat="41.3881450" lon="-8.7734800">
        <ele>7.7</ele>
        <time>2021-05-16T13:28:01Z</time>
      </trkpt>
      <trkpt lat="41.3881580" lon="-8.7734870">
        <ele>7.7</ele>
        <time>2021-05-16T13:28:02Z</time>
      </trkpt>
      <trkpt lat="41.3881740" lon="-8.7734940">
        <ele>7.7</ele>
        <time>2021-05-16T13:28:03Z</time>
      </trkpt>
      <trkpt lat="41.3881880" lon="-8.7734990">
        <ele>7.7</ele>
        <time>2021-05-16T13:28:04Z</time>
      </trkpt>
      <trkpt lat="41.3882000" lon="-8.7735060">
        <ele>7.7</ele>
        <time>2021-05-16T13:28:05Z</time>
      </trkpt>
      <trkpt lat="41.3882150" lon="-8.7735070">
        <ele>7.8</ele>
        <time>2021-05-16T13:28:06Z</time>
      </trkpt>
      <trkpt lat="41.3882290" lon="-8.7735140">
        <ele>7.8</ele>
        <time>2021-05-16T13:28:07Z</time>
      </trkpt>
      <trkpt lat="41.3882410" lon="-8.7735220">
        <ele>7.8</ele>
        <time>2021-05-16T13:28:08Z</time>
      </trkpt>
      <trkpt lat="41.3882500" lon="-8.7735340">
        <ele>7.8</ele>
        <time>2021-05-16T13:28:09Z</time>
      </trkpt>
      <trkpt lat="41.3882580" lon="-8.7735350">
        <ele>7.8</ele>
        <time>2021-05-16T13:28:10Z</time>
      </trkpt>
      <trkpt lat="41.3882670" lon="-8.7735470">
        <ele>7.8</ele>
        <time>2021-05-16T13:28:11Z</time>
      </trkpt>
      <trkpt lat="41.3882820" lon="-8.7735510">
        <ele>7.8</ele>
        <time>2021-05-16T13:28:12Z</time>
      </trkpt>
      <trkpt lat="41.3882930" lon="-8.7735600">
        <ele>7.8</ele>
        <time>2021-05-16T13:28:13Z</time>
      </trkpt>
      <trkpt lat="41.3883040" lon="-8.7735690">
        <ele>7.8</ele>
        <time>2021-05-16T13:28:14Z</time>
      </trkpt>
      <trkpt lat="41.3883110" lon="-8.7735790">
        <ele>7.8</ele>
        <time>2021-05-16T13:28:15Z</time>
      </trkpt>
      <trkpt lat="41.3883230" lon="-8.7735930">
        <ele>7.8</ele>
        <time>2021-05-16T13:28:16Z</time>
      </trkpt>
      <trkpt lat="41.3883270" lon="-8.7735960">
        <ele>7.8</ele>
        <time>2021-05-16T13:28:17Z</time>
      </trkpt>
      <trkpt lat="41.3883420" lon="-8.7736030">
        <ele>7.8</ele>
        <time>2021-05-16T13:28:18Z</time>
      </trkpt>
      <trkpt lat="41.3883570" lon="-8.7736130">
        <ele>7.8</ele>
        <time>2021-05-16T13:28:19Z</time>
      </trkpt>
      <trkpt lat="41.3883730" lon="-8.7736120">
        <ele>7.8</ele>
        <time>2021-05-16T13:28:20Z</time>
      </trkpt>
      <trkpt lat="41.3883800" lon="-8.7736210">
        <ele>7.8</ele>
        <time>2021-05-16T13:28:21Z</time>
      </trkpt>
      <trkpt lat="41.3883860" lon="-8.7736260">
        <ele>7.8</ele>
        <time>2021-05-16T13:28:22Z</time>
      </trkpt>
      <trkpt lat="41.3883980" lon="-8.7736410">
        <ele>7.8</ele>
        <time>2021-05-16T13:28:23Z</time>
      </trkpt>
      <trkpt lat="41.3884140" lon="-8.7736530">
        <ele>7.8</ele>
        <time>2021-05-16T13:28:24Z</time>
      </trkpt>
      <trkpt lat="41.3884220" lon="-8.7736660">
        <ele>7.8</ele>
        <time>2021-05-16T13:28:25Z</time>
      </trkpt>
      <trkpt lat="41.3884330" lon="-8.7736730">
        <ele>7.8</ele>
        <time>2021-05-16T13:28:26Z</time>
      </trkpt>
      <trkpt lat="41.3884440" lon="-8.7736800">
        <ele>7.8</ele>
        <time>2021-05-16T13:28:27Z</time>
      </trkpt>
      <trkpt lat="41.3884540" lon="-8.7736860">
        <ele>7.8</ele>
        <time>2021-05-16T13:28:28Z</time>
      </trkpt>
      <trkpt lat="41.3884720" lon="-8.7736920">
        <ele>7.8</ele>
        <time>2021-05-16T13:28:29Z</time>
      </trkpt>
      <trkpt lat="41.3884880" lon="-8.7737000">
        <ele>7.8</ele>
        <time>2021-05-16T13:28:30Z</time>
      </trkpt>
      <trkpt lat="41.3885000" lon="-8.7737030">
        <ele>7.8</ele>
        <time>2021-05-16T13:28:31Z</time>
      </trkpt>
      <trkpt lat="41.3885140" lon="-8.7737090">
        <ele>7.8</ele>
        <time>2021-05-16T13:28:32Z</time>
      </trkpt>
      <trkpt lat="41.3885370" lon="-8.7737220">
        <ele>7.8</ele>
        <time>2021-05-16T13:28:33Z</time>
      </trkpt>
      <trkpt lat="41.3885450" lon="-8.7737260">
        <ele>7.8</ele>
        <time>2021-05-16T13:28:34Z</time>
      </trkpt>
      <trkpt lat="41.3885540" lon="-8.7737310">
        <ele>7.8</ele>
        <time>2021-05-16T13:28:35Z</time>
      </trkpt>
      <trkpt lat="41.3885750" lon="-8.7737440">
        <ele>7.8</ele>
        <time>2021-05-16T13:28:36Z</time>
      </trkpt>
      <trkpt lat="41.3885840" lon="-8.7737480">
        <ele>7.8</ele>
        <time>2021-05-16T13:28:37Z</time>
      </trkpt>
      <trkpt lat="41.3885930" lon="-8.7737520">
        <ele>7.8</ele>
        <time>2021-05-16T13:28:38Z</time>
      </trkpt>
      <trkpt lat="41.3886030" lon="-8.7737610">
        <ele>7.8</ele>
        <time>2021-05-16T13:28:39Z</time>
      </trkpt>
      <trkpt lat="41.3886190" lon="-8.7737700">
        <ele>7.8</ele>
        <time>2021-05-16T13:28:40Z</time>
      </trkpt>
      <trkpt lat="41.3886300" lon="-8.7737710">
        <ele>7.8</ele>
        <time>2021-05-16T13:28:41Z</time>
      </trkpt>
      <trkpt lat="41.3886450" lon="-8.7737840">
        <ele>7.8</ele>
        <time>2021-05-16T13:28:42Z</time>
      </trkpt>
      <trkpt lat="41.3886640" lon="-8.7738020">
        <ele>7.8</ele>
        <time>2021-05-16T13:28:43Z</time>
      </trkpt>
      <trkpt lat="41.3886710" lon="-8.7738060">
        <ele>7.8</ele>
        <time>2021-05-16T13:28:44Z</time>
      </trkpt>
      <trkpt lat="41.3886770" lon="-8.7738110">
        <ele>7.8</ele>
        <time>2021-05-16T13:28:45Z</time>
      </trkpt>
      <trkpt lat="41.3887010" lon="-8.7738200">
        <ele>7.9</ele>
        <time>2021-05-16T13:28:46Z</time>
      </trkpt>
      <trkpt lat="41.3887100" lon="-8.7738250">
        <ele>7.9</ele>
        <time>2021-05-16T13:28:47Z</time>
      </trkpt>
      <trkpt lat="41.3887200" lon="-8.7738290">
        <ele>7.9</ele>
        <time>2021-05-16T13:28:48Z</time>
      </trkpt>
      <trkpt lat="41.3887380" lon="-8.7738380">
        <ele>7.9</ele>
        <time>2021-05-16T13:28:49Z</time>
      </trkpt>
      <trkpt lat="41.3887460" lon="-8.7738430">
        <ele>7.9</ele>
        <time>2021-05-16T13:28:50Z</time>
      </trkpt>
      <trkpt lat="41.3887550" lon="-8.7738470">
        <ele>7.9</ele>
        <time>2021-05-16T13:28:51Z</time>
      </trkpt>
      <trkpt lat="41.3887740" lon="-8.7738570">
        <ele>7.9</ele>
        <time>2021-05-16T13:28:52Z</time>
      </trkpt>
      <trkpt lat="41.3887850" lon="-8.7738610">
        <ele>7.9</ele>
        <time>2021-05-16T13:28:53Z</time>
      </trkpt>
      <trkpt lat="41.3887950" lon="-8.7738640">
        <ele>7.9</ele>
        <time>2021-05-16T13:28:54Z</time>
      </trkpt>
      <trkpt lat="41.3888130" lon="-8.7738730">
        <ele>7.9</ele>
        <time>2021-05-16T13:28:55Z</time>
      </trkpt>
      <trkpt lat="41.3888220" lon="-8.7738780">
        <ele>7.9</ele>
        <time>2021-05-16T13:28:56Z</time>
      </trkpt>
      <trkpt lat="41.3888300" lon="-8.7738820">
        <ele>7.9</ele>
        <time>2021-05-16T13:28:57Z</time>
      </trkpt>
      <trkpt lat="41.3888440" lon="-8.7738990">
        <ele>7.9</ele>
        <time>2021-05-16T13:28:58Z</time>
      </trkpt>
      <trkpt lat="41.3888530" lon="-8.7739010">
        <ele>7.9</ele>
        <time>2021-05-16T13:28:59Z</time>
      </trkpt>
      <trkpt lat="41.3888640" lon="-8.7739110">
        <ele>7.9</ele>
        <time>2021-05-16T13:29:00Z</time>
      </trkpt>
      <trkpt lat="41.3888770" lon="-8.7739230">
        <ele>7.9</ele>
        <time>2021-05-16T13:29:01Z</time>
      </trkpt>
      <trkpt lat="41.3888920" lon="-8.7739300">
        <ele>7.9</ele>
        <time>2021-05-16T13:29:02Z</time>
      </trkpt>
      <trkpt lat="41.3889050" lon="-8.7739390">
        <ele>7.9</ele>
        <time>2021-05-16T13:29:03Z</time>
      </trkpt>
      <trkpt lat="41.3889250" lon="-8.7739460">
        <ele>7.9</ele>
        <time>2021-05-16T13:29:04Z</time>
      </trkpt>
      <trkpt lat="41.3889340" lon="-8.7739500">
        <ele>7.9</ele>
        <time>2021-05-16T13:29:05Z</time>
      </trkpt>
      <trkpt lat="41.3889440" lon="-8.7739530">
        <ele>7.9</ele>
        <time>2021-05-16T13:29:06Z</time>
      </trkpt>
      <trkpt lat="41.3889610" lon="-8.7739670">
        <ele>7.9</ele>
        <time>2021-05-16T13:29:07Z</time>
      </trkpt>
      <trkpt lat="41.3889690" lon="-8.7739700">
        <ele>7.9</ele>
        <time>2021-05-16T13:29:08Z</time>
      </trkpt>
      <trkpt lat="41.3889780" lon="-8.7739740">
        <ele>8.0</ele>
        <time>2021-05-16T13:29:09Z</time>
      </trkpt>
      <trkpt lat="41.3889910" lon="-8.7739790">
        <ele>8.0</ele>
        <time>2021-05-16T13:29:10Z</time>
      </trkpt>
      <trkpt lat="41.3890000" lon="-8.7739890">
        <ele>8.0</ele>
        <time>2021-05-16T13:29:11Z</time>
      </trkpt>
      <trkpt lat="41.3890100" lon="-8.7739960">
        <ele>8.0</ele>
        <time>2021-05-16T13:29:12Z</time>
      </trkpt>
      <trkpt lat="41.3890320" lon="-8.7740100">
        <ele>8.0</ele>
        <time>2021-05-16T13:29:13Z</time>
      </trkpt>
      <trkpt lat="41.3890410" lon="-8.7740120">
        <ele>8.0</ele>
        <time>2021-05-16T13:29:14Z</time>
      </trkpt>
      <trkpt lat="41.3890500" lon="-8.7740150">
        <ele>8.0</ele>
        <time>2021-05-16T13:29:15Z</time>
      </trkpt>
      <trkpt lat="41.3890710" lon="-8.7740220">
        <ele>8.0</ele>
        <time>2021-05-16T13:29:16Z</time>
      </trkpt>
      <trkpt lat="41.3890780" lon="-8.7740240">
        <ele>8.0</ele>
        <time>2021-05-16T13:29:17Z</time>
      </trkpt>
      <trkpt lat="41.3890850" lon="-8.7740270">
        <ele>8.0</ele>
        <time>2021-05-16T13:29:18Z</time>
      </trkpt>
      <trkpt lat="41.3891030" lon="-8.7740270">
        <ele>8.0</ele>
        <time>2021-05-16T13:29:19Z</time>
      </trkpt>
      <trkpt lat="41.3891200" lon="-8.7740300">
        <ele>8.0</ele>
        <time>2021-05-16T13:29:20Z</time>
      </trkpt>
      <trkpt lat="41.3891370" lon="-8.7740300">
        <ele>8.0</ele>
        <time>2021-05-16T13:29:21Z</time>
      </trkpt>
      <trkpt lat="41.3891470" lon="-8.7740290">
        <ele>8.0</ele>
        <time>2021-05-16T13:29:22Z</time>
      </trkpt>
      <trkpt lat="41.3891580" lon="-8.7740290">
        <ele>8.1</ele>
        <time>2021-05-16T13:29:23Z</time>
      </trkpt>
      <trkpt lat="41.3891810" lon="-8.7740360">
        <ele>8.1</ele>
        <time>2021-05-16T13:29:24Z</time>
      </trkpt>
      <trkpt lat="41.3891900" lon="-8.7740380">
        <ele>8.1</ele>
        <time>2021-05-16T13:29:25Z</time>
      </trkpt>
      <trkpt lat="41.3892000" lon="-8.7740410">
        <ele>8.1</ele>
        <time>2021-05-16T13:29:26Z</time>
      </trkpt>
      <trkpt lat="41.3892180" lon="-8.7740360">
        <ele>8.1</ele>
        <time>2021-05-16T13:29:27Z</time>
      </trkpt>
      <trkpt lat="41.3892280" lon="-8.7740400">
        <ele>8.1</ele>
        <time>2021-05-16T13:29:28Z</time>
      </trkpt>
      <trkpt lat="41.3892470" lon="-8.7740430">
        <ele>8.1</ele>
        <time>2021-05-16T13:29:29Z</time>
      </trkpt>
      <trkpt lat="41.3892590" lon="-8.7740410">
        <ele>8.1</ele>
        <time>2021-05-16T13:29:30Z</time>
      </trkpt>
      <trkpt lat="41.3892700" lon="-8.7740400">
        <ele>8.1</ele>
        <time>2021-05-16T13:29:31Z</time>
      </trkpt>
      <trkpt lat="41.3892920" lon="-8.7740430">
        <ele>8.2</ele>
        <time>2021-05-16T13:29:32Z</time>
      </trkpt>
      <trkpt lat="41.3892990" lon="-8.7740450">
        <ele>8.2</ele>
        <time>2021-05-16T13:29:33Z</time>
      </trkpt>
      <trkpt lat="41.3893060" lon="-8.7740470">
        <ele>8.2</ele>
        <time>2021-05-16T13:29:34Z</time>
      </trkpt>
      <trkpt lat="41.3893250" lon="-8.7740410">
        <ele>8.2</ele>
        <time>2021-05-16T13:29:35Z</time>
      </trkpt>
      <trkpt lat="41.3893360" lon="-8.7740410">
        <ele>8.2</ele>
        <time>2021-05-16T13:29:36Z</time>
      </trkpt>
      <trkpt lat="41.3893590" lon="-8.7740400">
        <ele>8.2</ele>
        <time>2021-05-16T13:29:37Z</time>
      </trkpt>
      <trkpt lat="41.3893660" lon="-8.7740420">
        <ele>8.2</ele>
        <time>2021-05-16T13:29:38Z</time>
      </trkpt>
      <trkpt lat="41.3893740" lon="-8.7740440">
        <ele>8.2</ele>
        <time>2021-05-16T13:29:39Z</time>
      </trkpt>
      <trkpt lat="41.3893850" lon="-8.7740420">
        <ele>8.2</ele>
        <time>2021-05-16T13:29:40Z</time>
      </trkpt>
      <trkpt lat="41.3894050" lon="-8.7740380">
        <ele>8.3</ele>
        <time>2021-05-16T13:29:41Z</time>
      </trkpt>
      <trkpt lat="41.3894300" lon="-8.7740350">
        <ele>8.3</ele>
        <time>2021-05-16T13:29:42Z</time>
      </trkpt>
      <trkpt lat="41.3894390" lon="-8.7740370">
        <ele>8.3</ele>
        <time>2021-05-16T13:29:43Z</time>
      </trkpt>
      <trkpt lat="41.3894490" lon="-8.7740380">
        <ele>8.3</ele>
        <time>2021-05-16T13:29:44Z</time>
      </trkpt>
      <trkpt lat="41.3894670" lon="-8.7740320">
        <ele>8.3</ele>
        <time>2021-05-16T13:29:45Z</time>
      </trkpt>
      <trkpt lat="41.3894810" lon="-8.7740300">
        <ele>8.3</ele>
        <time>2021-05-16T13:29:46Z</time>
      </trkpt>
      <trkpt lat="41.3894920" lon="-8.7740270">
        <ele>8.3</ele>
        <time>2021-05-16T13:29:47Z</time>
      </trkpt>
      <trkpt lat="41.3895010" lon="-8.7740270">
        <ele>8.3</ele>
        <time>2021-05-16T13:29:48Z</time>
      </trkpt>
      <trkpt lat="41.3895150" lon="-8.7740260">
        <ele>8.4</ele>
        <time>2021-05-16T13:29:49Z</time>
      </trkpt>
      <trkpt lat="41.3895350" lon="-8.7740210">
        <ele>8.4</ele>
        <time>2021-05-16T13:29:50Z</time>
      </trkpt>
      <trkpt lat="41.3895450" lon="-8.7740180">
        <ele>8.4</ele>
        <time>2021-05-16T13:29:51Z</time>
      </trkpt>
      <trkpt lat="41.3895560" lon="-8.7740160">
        <ele>8.4</ele>
        <time>2021-05-16T13:29:52Z</time>
      </trkpt>
      <trkpt lat="41.3895810" lon="-8.7740140">
        <ele>8.4</ele>
        <time>2021-05-16T13:29:53Z</time>
      </trkpt>
      <trkpt lat="41.3895900" lon="-8.7740150">
        <ele>8.4</ele>
        <time>2021-05-16T13:29:54Z</time>
      </trkpt>
      <trkpt lat="41.3895990" lon="-8.7740150">
        <ele>8.4</ele>
        <time>2021-05-16T13:29:55Z</time>
      </trkpt>
      <trkpt lat="41.3896210" lon="-8.7740130">
        <ele>8.5</ele>
        <time>2021-05-16T13:29:56Z</time>
      </trkpt>
      <trkpt lat="41.3896340" lon="-8.7740100">
        <ele>8.5</ele>
        <time>2021-05-16T13:29:57Z</time>
      </trkpt>
      <trkpt lat="41.3896500" lon="-8.7740050">
        <ele>8.5</ele>
        <time>2021-05-16T13:29:58Z</time>
      </trkpt>
      <trkpt lat="41.3896630" lon="-8.7740030">
        <ele>8.5</ele>
        <time>2021-05-16T13:29:59Z</time>
      </trkpt>
      <trkpt lat="41.3896920" lon="-8.7739920">
        <ele>8.5</ele>
        <time>2021-05-16T13:30:00Z</time>
      </trkpt>
      <trkpt lat="41.3896990" lon="-8.7739900">
        <ele>8.5</ele>
        <time>2021-05-16T13:30:01Z</time>
      </trkpt>
      <trkpt lat="41.3897150" lon="-8.7739880">
        <ele>8.6</ele>
        <time>2021-05-16T13:30:02Z</time>
      </trkpt>
      <trkpt lat="41.3897320" lon="-8.7739870">
        <ele>8.6</ele>
        <time>2021-05-16T13:30:03Z</time>
      </trkpt>
      <trkpt lat="41.3897430" lon="-8.7739870">
        <ele>8.6</ele>
        <time>2021-05-16T13:30:04Z</time>
      </trkpt>
      <trkpt lat="41.3897600" lon="-8.7739870">
        <ele>8.6</ele>
        <time>2021-05-16T13:30:05Z</time>
      </trkpt>
      <trkpt lat="41.3897740" lon="-8.7739830">
        <ele>8.6</ele>
        <time>2021-05-16T13:30:06Z</time>
      </trkpt>
      <trkpt lat="41.3897890" lon="-8.7739720">
        <ele>8.6</ele>
        <time>2021-05-16T13:30:07Z</time>
      </trkpt>
      <trkpt lat="41.3898110" lon="-8.7739640">
        <ele>8.6</ele>
        <time>2021-05-16T13:30:08Z</time>
      </trkpt>
      <trkpt lat="41.3898240" lon="-8.7739680">
        <ele>8.7</ele>
        <time>2021-05-16T13:30:09Z</time>
      </trkpt>
      <trkpt lat="41.3898360" lon="-8.7739610">
        <ele>8.7</ele>
        <time>2021-05-16T13:30:10Z</time>
      </trkpt>
      <trkpt lat="41.3898410" lon="-8.7739600">
        <ele>8.7</ele>
        <time>2021-05-16T13:30:11Z</time>
      </trkpt>
      <trkpt lat="41.3898580" lon="-8.7739560">
        <ele>8.7</ele>
        <time>2021-05-16T13:30:12Z</time>
      </trkpt>
      <trkpt lat="41.3898780" lon="-8.7739540">
        <ele>8.7</ele>
        <time>2021-05-16T13:30:13Z</time>
      </trkpt>
      <trkpt lat="41.3898870" lon="-8.7739540">
        <ele>8.7</ele>
        <time>2021-05-16T13:30:14Z</time>
      </trkpt>
      <trkpt lat="41.3898970" lon="-8.7739540">
        <ele>8.7</ele>
        <time>2021-05-16T13:30:15Z</time>
      </trkpt>
      <trkpt lat="41.3899110" lon="-8.7739640">
        <ele>8.7</ele>
        <time>2021-05-16T13:30:16Z</time>
      </trkpt>
      <trkpt lat="41.3899250" lon="-8.7739700">
        <ele>8.7</ele>
        <time>2021-05-16T13:30:17Z</time>
      </trkpt>
      <trkpt lat="41.3899400" lon="-8.7739690">
        <ele>8.7</ele>
        <time>2021-05-16T13:30:18Z</time>
      </trkpt>
      <trkpt lat="41.3899520" lon="-8.7739670">
        <ele>8.8</ele>
        <time>2021-05-16T13:30:19Z</time>
      </trkpt>
      <trkpt lat="41.3899660" lon="-8.7739760">
        <ele>8.8</ele>
        <time>2021-05-16T13:30:20Z</time>
      </trkpt>
      <trkpt lat="41.3899790" lon="-8.7739830">
        <ele>8.8</ele>
        <time>2021-05-16T13:30:21Z</time>
      </trkpt>
      <trkpt lat="41.3899980" lon="-8.7739750">
        <ele>8.8</ele>
        <time>2021-05-16T13:30:22Z</time>
      </trkpt>
      <trkpt lat="41.3900100" lon="-8.7739750">
        <ele>8.8</ele>
        <time>2021-05-16T13:30:23Z</time>
      </trkpt>
      <trkpt lat="41.3900350" lon="-8.7739750">
        <ele>8.8</ele>
        <time>2021-05-16T13:30:24Z</time>
      </trkpt>
      <trkpt lat="41.3900460" lon="-8.7739730">
        <ele>8.8</ele>
        <time>2021-05-16T13:30:25Z</time>
      </trkpt>
      <trkpt lat="41.3900570" lon="-8.7739710">
        <ele>8.8</ele>
        <time>2021-05-16T13:30:26Z</time>
      </trkpt>
      <trkpt lat="41.3900670" lon="-8.7739690">
        <ele>8.8</ele>
        <time>2021-05-16T13:30:27Z</time>
      </trkpt>
      <trkpt lat="41.3900750" lon="-8.7739790">
        <ele>8.8</ele>
        <time>2021-05-16T13:30:28Z</time>
      </trkpt>
      <trkpt lat="41.3900860" lon="-8.7739750">
        <ele>8.8</ele>
        <time>2021-05-16T13:30:29Z</time>
      </trkpt>
      <trkpt lat="41.3901120" lon="-8.7739820">
        <ele>8.9</ele>
        <time>2021-05-16T13:30:30Z</time>
      </trkpt>
      <trkpt lat="41.3901260" lon="-8.7739840">
        <ele>8.9</ele>
        <time>2021-05-16T13:30:31Z</time>
      </trkpt>
      <trkpt lat="41.3901300" lon="-8.7739840">
        <ele>8.9</ele>
        <time>2021-05-16T13:30:32Z</time>
      </trkpt>
      <trkpt lat="41.3901560" lon="-8.7739880">
        <ele>8.9</ele>
        <time>2021-05-16T13:30:34Z</time>
      </trkpt>
      <trkpt lat="41.3901580" lon="-8.7739930">
        <ele>8.9</ele>
        <time>2021-05-16T13:30:36Z</time>
      </trkpt>
      <trkpt lat="41.3901780" lon="-8.7739960">
        <ele>8.9</ele>
        <time>2021-05-16T13:30:37Z</time>
      </trkpt>
      <trkpt lat="41.3901830" lon="-8.7739990">
        <ele>8.9</ele>
        <time>2021-05-16T13:30:38Z</time>
      </trkpt>
      <trkpt lat="41.3901940" lon="-8.7740020">
        <ele>8.9</ele>
        <time>2021-05-16T13:30:39Z</time>
      </trkpt>
      <trkpt lat="41.3902100" lon="-8.7740060">
        <ele>8.9</ele>
        <time>2021-05-16T13:30:40Z</time>
      </trkpt>
      <trkpt lat="41.3902250" lon="-8.7740130">
        <ele>8.9</ele>
        <time>2021-05-16T13:30:41Z</time>
      </trkpt>
      <trkpt lat="41.3902370" lon="-8.7740150">
        <ele>8.9</ele>
        <time>2021-05-16T13:30:42Z</time>
      </trkpt>
      <trkpt lat="41.3902480" lon="-8.7740160">
        <ele>8.9</ele>
        <time>2021-05-16T13:30:43Z</time>
      </trkpt>
      <trkpt lat="41.3902600" lon="-8.7740140">
        <ele>8.9</ele>
        <time>2021-05-16T13:30:44Z</time>
      </trkpt>
      <trkpt lat="41.3902720" lon="-8.7740130">
        <ele>8.9</ele>
        <time>2021-05-16T13:30:45Z</time>
      </trkpt>
      <trkpt lat="41.3902780" lon="-8.7740090">
        <ele>8.9</ele>
        <time>2021-05-16T13:30:46Z</time>
      </trkpt>
      <trkpt lat="41.3902830" lon="-8.7740080">
        <ele>8.9</ele>
        <time>2021-05-16T13:30:47Z</time>
      </trkpt>
      <trkpt lat="41.3902960" lon="-8.7740060">
        <ele>8.9</ele>
        <time>2021-05-16T13:30:48Z</time>
      </trkpt>
      <trkpt lat="41.3903100" lon="-8.7739940">
        <ele>8.9</ele>
        <time>2021-05-16T13:30:49Z</time>
      </trkpt>
      <trkpt lat="41.3903310" lon="-8.7739930">
        <ele>8.9</ele>
        <time>2021-05-16T13:30:50Z</time>
      </trkpt>
      <trkpt lat="41.3903420" lon="-8.7739930">
        <ele>8.9</ele>
        <time>2021-05-16T13:30:51Z</time>
      </trkpt>
      <trkpt lat="41.3903520" lon="-8.7739930">
        <ele>8.9</ele>
        <time>2021-05-16T13:30:52Z</time>
      </trkpt>
      <trkpt lat="41.3903600" lon="-8.7739990">
        <ele>9.0</ele>
        <time>2021-05-16T13:30:53Z</time>
      </trkpt>
      <trkpt lat="41.3903740" lon="-8.7740000">
        <ele>9.0</ele>
        <time>2021-05-16T13:30:54Z</time>
      </trkpt>
      <trkpt lat="41.3903830" lon="-8.7740020">
        <ele>9.0</ele>
        <time>2021-05-16T13:30:55Z</time>
      </trkpt>
      <trkpt lat="41.3903990" lon="-8.7740080">
        <ele>9.0</ele>
        <time>2021-05-16T13:30:56Z</time>
      </trkpt>
      <trkpt lat="41.3904130" lon="-8.7740140">
        <ele>9.0</ele>
        <time>2021-05-16T13:30:57Z</time>
      </trkpt>
      <trkpt lat="41.3904380" lon="-8.7740160">
        <ele>9.0</ele>
        <time>2021-05-16T13:30:58Z</time>
      </trkpt>
      <trkpt lat="41.3904460" lon="-8.7740170">
        <ele>9.0</ele>
        <time>2021-05-16T13:30:59Z</time>
      </trkpt>
      <trkpt lat="41.3904550" lon="-8.7740170">
        <ele>9.0</ele>
        <time>2021-05-16T13:31:00Z</time>
      </trkpt>
      <trkpt lat="41.3904660" lon="-8.7740240">
        <ele>9.0</ele>
        <time>2021-05-16T13:31:01Z</time>
      </trkpt>
      <trkpt lat="41.3904790" lon="-8.7740390">
        <ele>9.0</ele>
        <time>2021-05-16T13:31:02Z</time>
      </trkpt>
      <trkpt lat="41.3904930" lon="-8.7740440">
        <ele>9.0</ele>
        <time>2021-05-16T13:31:03Z</time>
      </trkpt>
      <trkpt lat="41.3905050" lon="-8.7740510">
        <ele>9.0</ele>
        <time>2021-05-16T13:31:04Z</time>
      </trkpt>
      <trkpt lat="41.3905140" lon="-8.7740510">
        <ele>9.0</ele>
        <time>2021-05-16T13:31:05Z</time>
      </trkpt>
      <trkpt lat="41.3905340" lon="-8.7740530">
        <ele>9.0</ele>
        <time>2021-05-16T13:31:06Z</time>
      </trkpt>
      <trkpt lat="41.3905560" lon="-8.7740540">
        <ele>8.9</ele>
        <time>2021-05-16T13:31:07Z</time>
      </trkpt>
      <trkpt lat="41.3905640" lon="-8.7740570">
        <ele>8.9</ele>
        <time>2021-05-16T13:31:08Z</time>
      </trkpt>
      <trkpt lat="41.3905730" lon="-8.7740590">
        <ele>8.9</ele>
        <time>2021-05-16T13:31:09Z</time>
      </trkpt>
      <trkpt lat="41.3905920" lon="-8.7740630">
        <ele>8.9</ele>
        <time>2021-05-16T13:31:10Z</time>
      </trkpt>
      <trkpt lat="41.3906010" lon="-8.7740630">
        <ele>8.9</ele>
        <time>2021-05-16T13:31:11Z</time>
      </trkpt>
      <trkpt lat="41.3906090" lon="-8.7740640">
        <ele>8.9</ele>
        <time>2021-05-16T13:31:12Z</time>
      </trkpt>
      <trkpt lat="41.3906250" lon="-8.7740630">
        <ele>8.9</ele>
        <time>2021-05-16T13:31:13Z</time>
      </trkpt>
      <trkpt lat="41.3906320" lon="-8.7740680">
        <ele>8.9</ele>
        <time>2021-05-16T13:31:14Z</time>
      </trkpt>
      <trkpt lat="41.3906450" lon="-8.7740680">
        <ele>8.9</ele>
        <time>2021-05-16T13:31:15Z</time>
      </trkpt>
      <trkpt lat="41.3906570" lon="-8.7740710">
        <ele>8.9</ele>
        <time>2021-05-16T13:31:16Z</time>
      </trkpt>
      <trkpt lat="41.3906730" lon="-8.7740730">
        <ele>8.9</ele>
        <time>2021-05-16T13:31:17Z</time>
      </trkpt>
      <trkpt lat="41.3906930" lon="-8.7740730">
        <ele>8.9</ele>
        <time>2021-05-16T13:31:18Z</time>
      </trkpt>
      <trkpt lat="41.3907060" lon="-8.7740730">
        <ele>8.9</ele>
        <time>2021-05-16T13:31:19Z</time>
      </trkpt>
      <trkpt lat="41.3907180" lon="-8.7740740">
        <ele>8.9</ele>
        <time>2021-05-16T13:31:20Z</time>
      </trkpt>
      <trkpt lat="41.3907340" lon="-8.7740680">
        <ele>8.9</ele>
        <time>2021-05-16T13:31:21Z</time>
      </trkpt>
      <trkpt lat="41.3907490" lon="-8.7740700">
        <ele>8.9</ele>
        <time>2021-05-16T13:31:22Z</time>
      </trkpt>
      <trkpt lat="41.3907720" lon="-8.7740760">
        <ele>8.9</ele>
        <time>2021-05-16T13:31:23Z</time>
      </trkpt>
      <trkpt lat="41.3907790" lon="-8.7740780">
        <ele>8.9</ele>
        <time>2021-05-16T13:31:24Z</time>
      </trkpt>
      <trkpt lat="41.3907870" lon="-8.7740790">
        <ele>8.9</ele>
        <time>2021-05-16T13:31:25Z</time>
      </trkpt>
      <trkpt lat="41.3908050" lon="-8.7740850">
        <ele>8.9</ele>
        <time>2021-05-16T13:31:26Z</time>
      </trkpt>
      <trkpt lat="41.3908200" lon="-8.7740850">
        <ele>8.9</ele>
        <time>2021-05-16T13:31:27Z</time>
      </trkpt>
      <trkpt lat="41.3908350" lon="-8.7740840">
        <ele>8.9</ele>
        <time>2021-05-16T13:31:28Z</time>
      </trkpt>
      <trkpt lat="41.3908530" lon="-8.7740810">
        <ele>8.9</ele>
        <time>2021-05-16T13:31:29Z</time>
      </trkpt>
      <trkpt lat="41.3908660" lon="-8.7740840">
        <ele>8.9</ele>
        <time>2021-05-16T13:31:30Z</time>
      </trkpt>
      <trkpt lat="41.3908740" lon="-8.7740850">
        <ele>8.9</ele>
        <time>2021-05-16T13:31:31Z</time>
      </trkpt>
      <trkpt lat="41.3908880" lon="-8.7740880">
        <ele>8.9</ele>
        <time>2021-05-16T13:31:32Z</time>
      </trkpt>
      <trkpt lat="41.3909050" lon="-8.7740900">
        <ele>8.9</ele>
        <time>2021-05-16T13:31:33Z</time>
      </trkpt>
      <trkpt lat="41.3909160" lon="-8.7740880">
        <ele>8.9</ele>
        <time>2021-05-16T13:31:34Z</time>
      </trkpt>
      <trkpt lat="41.3909280" lon="-8.7740850">
        <ele>8.9</ele>
        <time>2021-05-16T13:31:35Z</time>
      </trkpt>
      <trkpt lat="41.3909410" lon="-8.7740870">
        <ele>8.9</ele>
        <time>2021-05-16T13:31:36Z</time>
      </trkpt>
      <trkpt lat="41.3909410" lon="-8.7740850">
        <ele>8.9</ele>
        <time>2021-05-16T13:31:37Z</time>
      </trkpt>
      <trkpt lat="41.3909500" lon="-8.7740820">
        <ele>8.9</ele>
        <time>2021-05-16T13:31:38Z</time>
      </trkpt>
      <trkpt lat="41.3909620" lon="-8.7740820">
        <ele>8.9</ele>
        <time>2021-05-16T13:31:39Z</time>
      </trkpt>
      <trkpt lat="41.3909830" lon="-8.7740860">
        <ele>8.9</ele>
        <time>2021-05-16T13:31:40Z</time>
      </trkpt>
      <trkpt lat="41.3909920" lon="-8.7740880">
        <ele>8.9</ele>
        <time>2021-05-16T13:31:41Z</time>
      </trkpt>
      <trkpt lat="41.3910020" lon="-8.7740900">
        <ele>8.9</ele>
        <time>2021-05-16T13:31:42Z</time>
      </trkpt>
      <trkpt lat="41.3910140" lon="-8.7740880">
        <ele>8.9</ele>
        <time>2021-05-16T13:31:43Z</time>
      </trkpt>
      <trkpt lat="41.3910290" lon="-8.7740990">
        <ele>8.9</ele>
        <time>2021-05-16T13:31:44Z</time>
      </trkpt>
      <trkpt lat="41.3910520" lon="-8.7741020">
        <ele>8.9</ele>
        <time>2021-05-16T13:31:45Z</time>
      </trkpt>
      <trkpt lat="41.3910590" lon="-8.7741020">
        <ele>8.9</ele>
        <time>2021-05-16T13:31:46Z</time>
      </trkpt>
      <trkpt lat="41.3910660" lon="-8.7741010">
        <ele>8.9</ele>
        <time>2021-05-16T13:31:47Z</time>
      </trkpt>
      <trkpt lat="41.3910730" lon="-8.7741000">
        <ele>8.9</ele>
        <time>2021-05-16T13:31:48Z</time>
      </trkpt>
      <trkpt lat="41.3910920" lon="-8.7740920">
        <ele>8.9</ele>
        <time>2021-05-16T13:31:49Z</time>
      </trkpt>
      <trkpt lat="41.3911000" lon="-8.7740830">
        <ele>8.9</ele>
        <time>2021-05-16T13:31:50Z</time>
      </trkpt>
      <trkpt lat="41.3911080" lon="-8.7740740">
        <ele>8.9</ele>
        <time>2021-05-16T13:31:51Z</time>
      </trkpt>
      <trkpt lat="41.3911200" lon="-8.7740660">
        <ele>8.9</ele>
        <time>2021-05-16T13:31:52Z</time>
      </trkpt>
      <trkpt lat="41.3911320" lon="-8.7740500">
        <ele>8.9</ele>
        <time>2021-05-16T13:31:53Z</time>
      </trkpt>
      <trkpt lat="41.3911500" lon="-8.7740380">
        <ele>8.9</ele>
        <time>2021-05-16T13:31:54Z</time>
      </trkpt>
      <trkpt lat="41.3911610" lon="-8.7740390">
        <ele>8.9</ele>
        <time>2021-05-16T13:31:55Z</time>
      </trkpt>
      <trkpt lat="41.3911730" lon="-8.7740490">
        <ele>8.9</ele>
        <time>2021-05-16T13:31:56Z</time>
      </trkpt>
      <trkpt lat="41.3911880" lon="-8.7740510">
        <ele>8.9</ele>
        <time>2021-05-16T13:31:57Z</time>
      </trkpt>
      <trkpt lat="41.3911970" lon="-8.7740550">
        <ele>8.9</ele>
        <time>2021-05-16T13:31:58Z</time>
      </trkpt>
      <trkpt lat="41.3912160" lon="-8.7740670">
        <ele>8.9</ele>
        <time>2021-05-16T13:31:59Z</time>
      </trkpt>
      <trkpt lat="41.3912430" lon="-8.7740950">
        <ele>8.9</ele>
        <time>2021-05-16T13:32:00Z</time>
      </trkpt>
      <trkpt lat="41.3912510" lon="-8.7741090">
        <ele>8.9</ele>
        <time>2021-05-16T13:32:01Z</time>
      </trkpt>
      <trkpt lat="41.3912730" lon="-8.7741300">
        <ele>8.8</ele>
        <time>2021-05-16T13:32:02Z</time>
      </trkpt>
      <trkpt lat="41.3912810" lon="-8.7741390">
        <ele>8.8</ele>
        <time>2021-05-16T13:32:03Z</time>
      </trkpt>
      <trkpt lat="41.3912890" lon="-8.7741550">
        <ele>8.8</ele>
        <time>2021-05-16T13:32:04Z</time>
      </trkpt>
      <trkpt lat="41.3912970" lon="-8.7741640">
        <ele>8.8</ele>
        <time>2021-05-16T13:32:05Z</time>
      </trkpt>
      <trkpt lat="41.3913040" lon="-8.7741690">
        <ele>8.8</ele>
        <time>2021-05-16T13:32:06Z</time>
      </trkpt>
      <trkpt lat="41.3913080" lon="-8.7741740">
        <ele>8.8</ele>
        <time>2021-05-16T13:32:07Z</time>
      </trkpt>
      <trkpt lat="41.3913120" lon="-8.7741810">
        <ele>8.8</ele>
        <time>2021-05-16T13:32:08Z</time>
      </trkpt>
      <trkpt lat="41.3913190" lon="-8.7741880">
        <ele>8.8</ele>
        <time>2021-05-16T13:32:09Z</time>
      </trkpt>
      <trkpt lat="41.3913400" lon="-8.7741980">
        <ele>8.8</ele>
        <time>2021-05-16T13:32:10Z</time>
      </trkpt>
      <trkpt lat="41.3913500" lon="-8.7742090">
        <ele>8.8</ele>
        <time>2021-05-16T13:32:11Z</time>
      </trkpt>
      <trkpt lat="41.3913610" lon="-8.7742200">
        <ele>8.8</ele>
        <time>2021-05-16T13:32:12Z</time>
      </trkpt>
      <trkpt lat="41.3913790" lon="-8.7742290">
        <ele>8.8</ele>
        <time>2021-05-16T13:32:13Z</time>
      </trkpt>
      <trkpt lat="41.3913900" lon="-8.7742430">
        <ele>8.8</ele>
        <time>2021-05-16T13:32:14Z</time>
      </trkpt>
      <trkpt lat="41.3913990" lon="-8.7742530">
        <ele>8.8</ele>
        <time>2021-05-16T13:32:15Z</time>
      </trkpt>
      <trkpt lat="41.3914180" lon="-8.7742610">
        <ele>8.7</ele>
        <time>2021-05-16T13:32:16Z</time>
      </trkpt>
      <trkpt lat="41.3914330" lon="-8.7742630">
        <ele>8.7</ele>
        <time>2021-05-16T13:32:17Z</time>
      </trkpt>
      <trkpt lat="41.3914390" lon="-8.7742690">
        <ele>8.7</ele>
        <time>2021-05-16T13:32:18Z</time>
      </trkpt>
      <trkpt lat="41.3914460" lon="-8.7742770">
        <ele>8.7</ele>
        <time>2021-05-16T13:32:19Z</time>
      </trkpt>
      <trkpt lat="41.3914580" lon="-8.7742840">
        <ele>8.7</ele>
        <time>2021-05-16T13:32:20Z</time>
      </trkpt>
      <trkpt lat="41.3914670" lon="-8.7742960">
        <ele>8.7</ele>
        <time>2021-05-16T13:32:21Z</time>
      </trkpt>
      <trkpt lat="41.3914800" lon="-8.7743120">
        <ele>8.7</ele>
        <time>2021-05-16T13:32:22Z</time>
      </trkpt>
      <trkpt lat="41.3914990" lon="-8.7743150">
        <ele>8.7</ele>
        <time>2021-05-16T13:32:23Z</time>
      </trkpt>
      <trkpt lat="41.3915060" lon="-8.7743300">
        <ele>8.7</ele>
        <time>2021-05-16T13:32:24Z</time>
      </trkpt>
      <trkpt lat="41.3915320" lon="-8.7743430">
        <ele>8.7</ele>
        <time>2021-05-16T13:32:25Z</time>
      </trkpt>
      <trkpt lat="41.3915410" lon="-8.7743470">
        <ele>8.7</ele>
        <time>2021-05-16T13:32:26Z</time>
      </trkpt>
      <trkpt lat="41.3915550" lon="-8.7743570">
        <ele>8.7</ele>
        <time>2021-05-16T13:32:27Z</time>
      </trkpt>
      <trkpt lat="41.3915710" lon="-8.7743670">
        <ele>8.7</ele>
        <time>2021-05-16T13:32:28Z</time>
      </trkpt>
      <trkpt lat="41.3915860" lon="-8.7743740">
        <ele>8.6</ele>
        <time>2021-05-16T13:32:29Z</time>
      </trkpt>
      <trkpt lat="41.3916000" lon="-8.7743840">
        <ele>8.6</ele>
        <time>2021-05-16T13:32:30Z</time>
      </trkpt>
      <trkpt lat="41.3916170" lon="-8.7743870">
        <ele>8.6</ele>
        <time>2021-05-16T13:32:31Z</time>
      </trkpt>
      <trkpt lat="41.3916320" lon="-8.7743920">
        <ele>8.6</ele>
        <time>2021-05-16T13:32:32Z</time>
      </trkpt>
      <trkpt lat="41.3916460" lon="-8.7744020">
        <ele>8.6</ele>
        <time>2021-05-16T13:32:33Z</time>
      </trkpt>
      <trkpt lat="41.3916600" lon="-8.7744130">
        <ele>8.6</ele>
        <time>2021-05-16T13:32:34Z</time>
      </trkpt>
      <trkpt lat="41.3916760" lon="-8.7744200">
        <ele>8.6</ele>
        <time>2021-05-16T13:32:35Z</time>
      </trkpt>
      <trkpt lat="41.3916890" lon="-8.7744340">
        <ele>8.6</ele>
        <time>2021-05-16T13:32:36Z</time>
      </trkpt>
      <trkpt lat="41.3917040" lon="-8.7744380">
        <ele>8.6</ele>
        <time>2021-05-16T13:32:37Z</time>
      </trkpt>
      <trkpt lat="41.3917320" lon="-8.7744550">
        <ele>8.6</ele>
        <time>2021-05-16T13:32:39Z</time>
      </trkpt>
      <trkpt lat="41.3917450" lon="-8.7744600">
        <ele>8.6</ele>
        <time>2021-05-16T13:32:40Z</time>
      </trkpt>
      <trkpt lat="41.3917570" lon="-8.7744720">
        <ele>8.6</ele>
        <time>2021-05-16T13:32:41Z</time>
      </trkpt>
      <trkpt lat="41.3917700" lon="-8.7744800">
        <ele>8.6</ele>
        <time>2021-05-16T13:32:42Z</time>
      </trkpt>
      <trkpt lat="41.3917810" lon="-8.7744960">
        <ele>8.6</ele>
        <time>2021-05-16T13:32:43Z</time>
      </trkpt>
      <trkpt lat="41.3917940" lon="-8.7745010">
        <ele>8.6</ele>
        <time>2021-05-16T13:32:44Z</time>
      </trkpt>
      <trkpt lat="41.3918160" lon="-8.7745070">
        <ele>8.6</ele>
        <time>2021-05-16T13:32:46Z</time>
      </trkpt>
      <trkpt lat="41.3918240" lon="-8.7745090">
        <ele>8.6</ele>
        <time>2021-05-16T13:32:47Z</time>
      </trkpt>
      <trkpt lat="41.3918330" lon="-8.7745120">
        <ele>8.6</ele>
        <time>2021-05-16T13:32:48Z</time>
      </trkpt>
      <trkpt lat="41.3918450" lon="-8.7745110">
        <ele>8.5</ele>
        <time>2021-05-16T13:32:49Z</time>
      </trkpt>
      <trkpt lat="41.3918550" lon="-8.7745010">
        <ele>8.5</ele>
        <time>2021-05-16T13:32:50Z</time>
      </trkpt>
      <trkpt lat="41.3918590" lon="-8.7744920">
        <ele>8.5</ele>
        <time>2021-05-16T13:32:51Z</time>
      </trkpt>
      <trkpt lat="41.3918730" lon="-8.7744970">
        <ele>8.5</ele>
        <time>2021-05-16T13:32:52Z</time>
      </trkpt>
      <trkpt lat="41.3918800" lon="-8.7745050">
        <ele>8.5</ele>
        <time>2021-05-16T13:32:53Z</time>
      </trkpt>
      <trkpt lat="41.3918860" lon="-8.7745120">
        <ele>8.5</ele>
        <time>2021-05-16T13:32:54Z</time>
      </trkpt>
      <trkpt lat="41.3918920" lon="-8.7745200">
        <ele>8.5</ele>
        <time>2021-05-16T13:32:55Z</time>
      </trkpt>
      <trkpt lat="41.3919110" lon="-8.7745420">
        <ele>8.5</ele>
        <time>2021-05-16T13:32:56Z</time>
      </trkpt>
      <trkpt lat="41.3919190" lon="-8.7745570">
        <ele>8.5</ele>
        <time>2021-05-16T13:32:57Z</time>
      </trkpt>
      <trkpt lat="41.3919280" lon="-8.7745680">
        <ele>8.5</ele>
        <time>2021-05-16T13:32:58Z</time>
      </trkpt>
      <trkpt lat="41.3919340" lon="-8.7745770">
        <ele>8.4</ele>
        <time>2021-05-16T13:32:59Z</time>
      </trkpt>
      <trkpt lat="41.3919430" lon="-8.7745880">
        <ele>8.4</ele>
        <time>2021-05-16T13:33:00Z</time>
      </trkpt>
      <trkpt lat="41.3919590" lon="-8.7746040">
        <ele>8.4</ele>
        <time>2021-05-16T13:33:01Z</time>
      </trkpt>
      <trkpt lat="41.3919680" lon="-8.7746110">
        <ele>8.4</ele>
        <time>2021-05-16T13:33:02Z</time>
      </trkpt>
      <trkpt lat="41.3919780" lon="-8.7746170">
        <ele>8.4</ele>
        <time>2021-05-16T13:33:03Z</time>
      </trkpt>
      <trkpt lat="41.3919910" lon="-8.7746320">
        <ele>8.4</ele>
        <time>2021-05-16T13:33:04Z</time>
      </trkpt>
      <trkpt lat="41.3920010" lon="-8.7746380">
        <ele>8.4</ele>
        <time>2021-05-16T13:33:05Z</time>
      </trkpt>
      <trkpt lat="41.3920100" lon="-8.7746450">
        <ele>8.4</ele>
        <time>2021-05-16T13:33:06Z</time>
      </trkpt>
      <trkpt lat="41.3920190" lon="-8.7746590">
        <ele>8.3</ele>
        <time>2021-05-16T13:33:07Z</time>
      </trkpt>
      <trkpt lat="41.3920260" lon="-8.7746630">
        <ele>8.3</ele>
        <time>2021-05-16T13:33:08Z</time>
      </trkpt>
      <trkpt lat="41.3920370" lon="-8.7746710">
        <ele>8.3</ele>
        <time>2021-05-16T13:33:09Z</time>
      </trkpt>
      <trkpt lat="41.3920550" lon="-8.7746880">
        <ele>8.3</ele>
        <time>2021-05-16T13:33:10Z</time>
      </trkpt>
      <trkpt lat="41.3920640" lon="-8.7746930">
        <ele>8.3</ele>
        <time>2021-05-16T13:33:11Z</time>
      </trkpt>
      <trkpt lat="41.3920720" lon="-8.7746990">
        <ele>8.3</ele>
        <time>2021-05-16T13:33:12Z</time>
      </trkpt>
      <trkpt lat="41.3920790" lon="-8.7747120">
        <ele>8.2</ele>
        <time>2021-05-16T13:33:13Z</time>
      </trkpt>
      <trkpt lat="41.3920930" lon="-8.7747240">
        <ele>8.2</ele>
        <time>2021-05-16T13:33:14Z</time>
      </trkpt>
      <trkpt lat="41.3921040" lon="-8.7747370">
        <ele>8.2</ele>
        <time>2021-05-16T13:33:15Z</time>
      </trkpt>
      <trkpt lat="41.3921150" lon="-8.7747530">
        <ele>8.2</ele>
        <time>2021-05-16T13:33:16Z</time>
      </trkpt>
      <trkpt lat="41.3921400" lon="-8.7747750">
        <ele>8.2</ele>
        <time>2021-05-16T13:33:17Z</time>
      </trkpt>
      <trkpt lat="41.3921460" lon="-8.7747810">
        <ele>8.1</ele>
        <time>2021-05-16T13:33:18Z</time>
      </trkpt>
      <trkpt lat="41.3921510" lon="-8.7747960">
        <ele>8.1</ele>
        <time>2021-05-16T13:33:19Z</time>
      </trkpt>
      <trkpt lat="41.3921670" lon="-8.7748090">
        <ele>8.1</ele>
        <time>2021-05-16T13:33:20Z</time>
      </trkpt>
      <trkpt lat="41.3921750" lon="-8.7748240">
        <ele>8.1</ele>
        <time>2021-05-16T13:33:21Z</time>
      </trkpt>
      <trkpt lat="41.3921860" lon="-8.7748410">
        <ele>8.1</ele>
        <time>2021-05-16T13:33:22Z</time>
      </trkpt>
      <trkpt lat="41.3922050" lon="-8.7748570">
        <ele>8.0</ele>
        <time>2021-05-16T13:33:23Z</time>
      </trkpt>
      <trkpt lat="41.3922130" lon="-8.7748670">
        <ele>8.0</ele>
        <time>2021-05-16T13:33:24Z</time>
      </trkpt>
      <trkpt lat="41.3922220" lon="-8.7748770">
        <ele>8.0</ele>
        <time>2021-05-16T13:33:25Z</time>
      </trkpt>
      <trkpt lat="41.3922280" lon="-8.7748860">
        <ele>8.0</ele>
        <time>2021-05-16T13:33:26Z</time>
      </trkpt>
      <trkpt lat="41.3922450" lon="-8.7749010">
        <ele>8.0</ele>
        <time>2021-05-16T13:33:27Z</time>
      </trkpt>
      <trkpt lat="41.3922570" lon="-8.7749220">
        <ele>8.0</ele>
        <time>2021-05-16T13:33:28Z</time>
      </trkpt>
      <trkpt lat="41.3922620" lon="-8.7749310">
        <ele>8.0</ele>
        <time>2021-05-16T13:33:29Z</time>
      </trkpt>
      <trkpt lat="41.3922680" lon="-8.7749410">
        <ele>8.0</ele>
        <time>2021-05-16T13:33:30Z</time>
      </trkpt>
      <trkpt lat="41.3922740" lon="-8.7749490">
        <ele>7.9</ele>
        <time>2021-05-16T13:33:31Z</time>
      </trkpt>
      <trkpt lat="41.3922810" lon="-8.7749610">
        <ele>7.9</ele>
        <time>2021-05-16T13:33:32Z</time>
      </trkpt>
      <trkpt lat="41.3922930" lon="-8.7749680">
        <ele>7.9</ele>
        <time>2021-05-16T13:33:33Z</time>
      </trkpt>
      <trkpt lat="41.3923030" lon="-8.7749830">
        <ele>7.9</ele>
        <time>2021-05-16T13:33:34Z</time>
      </trkpt>
      <trkpt lat="41.3923140" lon="-8.7749920">
        <ele>7.9</ele>
        <time>2021-05-16T13:33:35Z</time>
      </trkpt>
      <trkpt lat="41.3923320" lon="-8.7749990">
        <ele>7.9</ele>
        <time>2021-05-16T13:33:36Z</time>
      </trkpt>
      <trkpt lat="41.3923430" lon="-8.7750110">
        <ele>7.9</ele>
        <time>2021-05-16T13:33:37Z</time>
      </trkpt>
      <trkpt lat="41.3923510" lon="-8.7750360">
        <ele>7.8</ele>
        <time>2021-05-16T13:33:38Z</time>
      </trkpt>
      <trkpt lat="41.3923600" lon="-8.7750440">
        <ele>7.8</ele>
        <time>2021-05-16T13:33:39Z</time>
      </trkpt>
      <trkpt lat="41.3923680" lon="-8.7750510">
        <ele>7.8</ele>
        <time>2021-05-16T13:33:40Z</time>
      </trkpt>
      <trkpt lat="41.3923720" lon="-8.7750620">
        <ele>7.8</ele>
        <time>2021-05-16T13:33:41Z</time>
      </trkpt>
      <trkpt lat="41.3923840" lon="-8.7750690">
        <ele>7.8</ele>
        <time>2021-05-16T13:33:42Z</time>
      </trkpt>
      <trkpt lat="41.3923930" lon="-8.7750780">
        <ele>7.8</ele>
        <time>2021-05-16T13:33:43Z</time>
      </trkpt>
      <trkpt lat="41.3923980" lon="-8.7750860">
        <ele>7.8</ele>
        <time>2021-05-16T13:33:44Z</time>
      </trkpt>
      <trkpt lat="41.3924120" lon="-8.7750970">
        <ele>7.8</ele>
        <time>2021-05-16T13:33:45Z</time>
      </trkpt>
      <trkpt lat="41.3924210" lon="-8.7750990">
        <ele>7.8</ele>
        <time>2021-05-16T13:33:46Z</time>
      </trkpt>
      <trkpt lat="41.3924360" lon="-8.7751160">
        <ele>7.7</ele>
        <time>2021-05-16T13:33:47Z</time>
      </trkpt>
      <trkpt lat="41.3924460" lon="-8.7751240">
        <ele>7.7</ele>
        <time>2021-05-16T13:33:48Z</time>
      </trkpt>
      <trkpt lat="41.3924570" lon="-8.7751440">
        <ele>7.7</ele>
        <time>2021-05-16T13:33:49Z</time>
      </trkpt>
      <trkpt lat="41.3924660" lon="-8.7751500">
        <ele>7.7</ele>
        <time>2021-05-16T13:33:50Z</time>
      </trkpt>
      <trkpt lat="41.3924740" lon="-8.7751570">
        <ele>7.7</ele>
        <time>2021-05-16T13:33:51Z</time>
      </trkpt>
      <trkpt lat="41.3924850" lon="-8.7751660">
        <ele>7.7</ele>
        <time>2021-05-16T13:33:52Z</time>
      </trkpt>
      <trkpt lat="41.3925020" lon="-8.7751800">
        <ele>7.6</ele>
        <time>2021-05-16T13:33:53Z</time>
      </trkpt>
      <trkpt lat="41.3925160" lon="-8.7751880">
        <ele>7.6</ele>
        <time>2021-05-16T13:33:54Z</time>
      </trkpt>
      <trkpt lat="41.3925280" lon="-8.7751960">
        <ele>7.6</ele>
        <time>2021-05-16T13:33:55Z</time>
      </trkpt>
      <trkpt lat="41.3925450" lon="-8.7752040">
        <ele>7.6</ele>
        <time>2021-05-16T13:33:56Z</time>
      </trkpt>
      <trkpt lat="41.3925530" lon="-8.7752160">
        <ele>7.6</ele>
        <time>2021-05-16T13:33:57Z</time>
      </trkpt>
      <trkpt lat="41.3925700" lon="-8.7752220">
        <ele>7.5</ele>
        <time>2021-05-16T13:33:58Z</time>
      </trkpt>
      <trkpt lat="41.3925810" lon="-8.7752250">
        <ele>7.5</ele>
        <time>2021-05-16T13:33:59Z</time>
      </trkpt>
      <trkpt lat="41.3926110" lon="-8.7752440">
        <ele>7.5</ele>
        <time>2021-05-16T13:34:00Z</time>
      </trkpt>
      <trkpt lat="41.3926200" lon="-8.7752500">
        <ele>7.5</ele>
        <time>2021-05-16T13:34:01Z</time>
      </trkpt>
      <trkpt lat="41.3926360" lon="-8.7752600">
        <ele>7.4</ele>
        <time>2021-05-16T13:34:02Z</time>
      </trkpt>
      <trkpt lat="41.3926480" lon="-8.7752710">
        <ele>7.4</ele>
        <time>2021-05-16T13:34:03Z</time>
      </trkpt>
      <trkpt lat="41.3926630" lon="-8.7752870">
        <ele>7.4</ele>
        <time>2021-05-16T13:34:04Z</time>
      </trkpt>
      <trkpt lat="41.3926690" lon="-8.7752990">
        <ele>7.4</ele>
        <time>2021-05-16T13:34:05Z</time>
      </trkpt>
      <trkpt lat="41.3926750" lon="-8.7753110">
        <ele>7.4</ele>
        <time>2021-05-16T13:34:06Z</time>
      </trkpt>
      <trkpt lat="41.3926710" lon="-8.7753360">
        <ele>7.3</ele>
        <time>2021-05-16T13:34:07Z</time>
      </trkpt>
      <trkpt lat="41.3926770" lon="-8.7753440">
        <ele>7.3</ele>
        <time>2021-05-16T13:34:08Z</time>
      </trkpt>
      <trkpt lat="41.3926830" lon="-8.7753520">
        <ele>7.3</ele>
        <time>2021-05-16T13:34:09Z</time>
      </trkpt>
      <trkpt lat="41.3926890" lon="-8.7753600">
        <ele>7.3</ele>
        <time>2021-05-16T13:34:10Z</time>
      </trkpt>
      <trkpt lat="41.3927160" lon="-8.7753830">
        <ele>7.3</ele>
        <time>2021-05-16T13:34:11Z</time>
      </trkpt>
      <trkpt lat="41.3927190" lon="-8.7753930">
        <ele>7.3</ele>
        <time>2021-05-16T13:34:12Z</time>
      </trkpt>
      <trkpt lat="41.3927340" lon="-8.7753960">
        <ele>7.2</ele>
        <time>2021-05-16T13:34:13Z</time>
      </trkpt>
      <trkpt lat="41.3927360" lon="-8.7754050">
        <ele>7.2</ele>
        <time>2021-05-16T13:34:14Z</time>
      </trkpt>
      <trkpt lat="41.3927490" lon="-8.7754100">
        <ele>7.2</ele>
        <time>2021-05-16T13:34:15Z</time>
      </trkpt>
      <trkpt lat="41.3927620" lon="-8.7754340">
        <ele>7.2</ele>
        <time>2021-05-16T13:34:16Z</time>
      </trkpt>
      <trkpt lat="41.3927680" lon="-8.7754400">
        <ele>7.2</ele>
        <time>2021-05-16T13:34:17Z</time>
      </trkpt>
      <trkpt lat="41.3927740" lon="-8.7754450">
        <ele>7.2</ele>
        <time>2021-05-16T13:34:18Z</time>
      </trkpt>
      <trkpt lat="41.3927870" lon="-8.7754690">
        <ele>7.1</ele>
        <time>2021-05-16T13:34:19Z</time>
      </trkpt>
      <trkpt lat="41.3927930" lon="-8.7754760">
        <ele>7.1</ele>
        <time>2021-05-16T13:34:20Z</time>
      </trkpt>
      <trkpt lat="41.3927980" lon="-8.7754830">
        <ele>7.1</ele>
        <time>2021-05-16T13:34:21Z</time>
      </trkpt>
      <trkpt lat="41.3928080" lon="-8.7754900">
        <ele>7.1</ele>
        <time>2021-05-16T13:34:22Z</time>
      </trkpt>
      <trkpt lat="41.3928180" lon="-8.7755000">
        <ele>7.1</ele>
        <time>2021-05-16T13:34:23Z</time>
      </trkpt>
      <trkpt lat="41.3928270" lon="-8.7755110">
        <ele>7.1</ele>
        <time>2021-05-16T13:34:24Z</time>
      </trkpt>
      <trkpt lat="41.3928410" lon="-8.7755130">
        <ele>7.1</ele>
        <time>2021-05-16T13:34:25Z</time>
      </trkpt>
      <trkpt lat="41.3928450" lon="-8.7755420">
        <ele>7.0</ele>
        <time>2021-05-16T13:34:26Z</time>
      </trkpt>
      <trkpt lat="41.3928570" lon="-8.7755510">
        <ele>7.0</ele>
        <time>2021-05-16T13:34:27Z</time>
      </trkpt>
      <trkpt lat="41.3928680" lon="-8.7755720">
        <ele>7.0</ele>
        <time>2021-05-16T13:34:28Z</time>
      </trkpt>
      <trkpt lat="41.3928820" lon="-8.7755860">
        <ele>7.0</ele>
        <time>2021-05-16T13:34:29Z</time>
      </trkpt>
      <trkpt lat="41.3928920" lon="-8.7755940">
        <ele>7.0</ele>
        <time>2021-05-16T13:34:30Z</time>
      </trkpt>
      <trkpt lat="41.3929020" lon="-8.7756130">
        <ele>7.0</ele>
        <time>2021-05-16T13:34:31Z</time>
      </trkpt>
      <trkpt lat="41.3929070" lon="-8.7756320">
        <ele>7.0</ele>
        <time>2021-05-16T13:34:32Z</time>
      </trkpt>
      <trkpt lat="41.3929210" lon="-8.7756340">
        <ele>6.9</ele>
        <time>2021-05-16T13:34:33Z</time>
      </trkpt>
      <trkpt lat="41.3929280" lon="-8.7756470">
        <ele>6.9</ele>
        <time>2021-05-16T13:34:34Z</time>
      </trkpt>
      <trkpt lat="41.3929350" lon="-8.7756560">
        <ele>6.9</ele>
        <time>2021-05-16T13:34:35Z</time>
      </trkpt>
      <trkpt lat="41.3929430" lon="-8.7756650">
        <ele>6.9</ele>
        <time>2021-05-16T13:34:36Z</time>
      </trkpt>
      <trkpt lat="41.3929600" lon="-8.7756780">
        <ele>6.9</ele>
        <time>2021-05-16T13:34:37Z</time>
      </trkpt>
      <trkpt lat="41.3929710" lon="-8.7756860">
        <ele>6.9</ele>
        <time>2021-05-16T13:34:38Z</time>
      </trkpt>
      <trkpt lat="41.3929930" lon="-8.7756960">
        <ele>6.9</ele>
        <time>2021-05-16T13:34:39Z</time>
      </trkpt>
      <trkpt lat="41.3930090" lon="-8.7757170">
        <ele>6.8</ele>
        <time>2021-05-16T13:34:40Z</time>
      </trkpt>
      <trkpt lat="41.3930180" lon="-8.7757220">
        <ele>6.8</ele>
        <time>2021-05-16T13:34:41Z</time>
      </trkpt>
      <trkpt lat="41.3930270" lon="-8.7757280">
        <ele>6.8</ele>
        <time>2021-05-16T13:34:42Z</time>
      </trkpt>
      <trkpt lat="41.3930370" lon="-8.7757390">
        <ele>6.8</ele>
        <time>2021-05-16T13:34:44Z</time>
      </trkpt>
      <trkpt lat="41.3930460" lon="-8.7757570">
        <ele>6.8</ele>
        <time>2021-05-16T13:34:45Z</time>
      </trkpt>
      <trkpt lat="41.3930550" lon="-8.7757710">
        <ele>6.8</ele>
        <time>2021-05-16T13:34:46Z</time>
      </trkpt>
      <trkpt lat="41.3930670" lon="-8.7757880">
        <ele>6.8</ele>
        <time>2021-05-16T13:34:47Z</time>
      </trkpt>
      <trkpt lat="41.3930800" lon="-8.7758030">
        <ele>6.8</ele>
        <time>2021-05-16T13:34:48Z</time>
      </trkpt>
      <trkpt lat="41.3930940" lon="-8.7758120">
        <ele>6.8</ele>
        <time>2021-05-16T13:34:49Z</time>
      </trkpt>
      <trkpt lat="41.3931060" lon="-8.7758260">
        <ele>6.8</ele>
        <time>2021-05-16T13:34:50Z</time>
      </trkpt>
      <trkpt lat="41.3931140" lon="-8.7758440">
        <ele>6.8</ele>
        <time>2021-05-16T13:34:51Z</time>
      </trkpt>
      <trkpt lat="41.3931230" lon="-8.7758600">
        <ele>6.8</ele>
        <time>2021-05-16T13:34:52Z</time>
      </trkpt>
      <trkpt lat="41.3931370" lon="-8.7758660">
        <ele>6.8</ele>
        <time>2021-05-16T13:34:53Z</time>
      </trkpt>
      <trkpt lat="41.3931500" lon="-8.7758780">
        <ele>6.8</ele>
        <time>2021-05-16T13:34:54Z</time>
      </trkpt>
      <trkpt lat="41.3931630" lon="-8.7758920">
        <ele>6.8</ele>
        <time>2021-05-16T13:34:55Z</time>
      </trkpt>
      <trkpt lat="41.3931750" lon="-8.7759050">
        <ele>6.7</ele>
        <time>2021-05-16T13:34:56Z</time>
      </trkpt>
      <trkpt lat="41.3931860" lon="-8.7759190">
        <ele>6.7</ele>
        <time>2021-05-16T13:34:57Z</time>
      </trkpt>
      <trkpt lat="41.3931950" lon="-8.7759360">
        <ele>6.7</ele>
        <time>2021-05-16T13:34:58Z</time>
      </trkpt>
      <trkpt lat="41.3932070" lon="-8.7759480">
        <ele>6.7</ele>
        <time>2021-05-16T13:34:59Z</time>
      </trkpt>
      <trkpt lat="41.3932190" lon="-8.7759610">
        <ele>6.7</ele>
        <time>2021-05-16T13:35:00Z</time>
      </trkpt>
      <trkpt lat="41.3932310" lon="-8.7759730">
        <ele>6.7</ele>
        <time>2021-05-16T13:35:01Z</time>
      </trkpt>
      <trkpt lat="41.3932400" lon="-8.7759890">
        <ele>6.7</ele>
        <time>2021-05-16T13:35:02Z</time>
      </trkpt>
      <trkpt lat="41.3932630" lon="-8.7760130">
        <ele>6.7</ele>
        <time>2021-05-16T13:35:03Z</time>
      </trkpt>
      <trkpt lat="41.3932760" lon="-8.7760340">
        <ele>6.7</ele>
        <time>2021-05-16T13:35:04Z</time>
      </trkpt>
      <trkpt lat="41.3932800" lon="-8.7760420">
        <ele>6.7</ele>
        <time>2021-05-16T13:35:05Z</time>
      </trkpt>
      <trkpt lat="41.3932880" lon="-8.7760560">
        <ele>6.7</ele>
        <time>2021-05-16T13:35:06Z</time>
      </trkpt>
      <trkpt lat="41.3932920" lon="-8.7760660">
        <ele>6.7</ele>
        <time>2021-05-16T13:35:07Z</time>
      </trkpt>
      <trkpt lat="41.3932930" lon="-8.7760690">
        <ele>6.7</ele>
        <time>2021-05-16T13:35:08Z</time>
      </trkpt>
      <trkpt lat="41.3932930" lon="-8.7760830">
        <ele>6.7</ele>
        <time>2021-05-16T13:35:09Z</time>
      </trkpt>
      <trkpt lat="41.3933030" lon="-8.7760990">
        <ele>6.7</ele>
        <time>2021-05-16T13:35:10Z</time>
      </trkpt>
      <trkpt lat="41.3933110" lon="-8.7761080">
        <ele>6.7</ele>
        <time>2021-05-16T13:35:11Z</time>
      </trkpt>
      <trkpt lat="41.3933190" lon="-8.7761120">
        <ele>6.7</ele>
        <time>2021-05-16T13:35:12Z</time>
      </trkpt>
      <trkpt lat="41.3933370" lon="-8.7761280">
        <ele>6.7</ele>
        <time>2021-05-16T13:35:13Z</time>
      </trkpt>
      <trkpt lat="41.3933440" lon="-8.7761360">
        <ele>6.7</ele>
        <time>2021-05-16T13:35:14Z</time>
      </trkpt>
      <trkpt lat="41.3933520" lon="-8.7761430">
        <ele>6.7</ele>
        <time>2021-05-16T13:35:15Z</time>
      </trkpt>
      <trkpt lat="41.3933690" lon="-8.7761530">
        <ele>6.7</ele>
        <time>2021-05-16T13:35:16Z</time>
      </trkpt>
      <trkpt lat="41.3933780" lon="-8.7761580">
        <ele>6.7</ele>
        <time>2021-05-16T13:35:17Z</time>
      </trkpt>
      <trkpt lat="41.3933860" lon="-8.7761630">
        <ele>6.7</ele>
        <time>2021-05-16T13:35:18Z</time>
      </trkpt>
      <trkpt lat="41.3933930" lon="-8.7761730">
        <ele>6.7</ele>
        <time>2021-05-16T13:35:19Z</time>
      </trkpt>
      <trkpt lat="41.3934090" lon="-8.7761840">
        <ele>6.7</ele>
        <time>2021-05-16T13:35:20Z</time>
      </trkpt>
      <trkpt lat="41.3934180" lon="-8.7761870">
        <ele>6.7</ele>
        <time>2021-05-16T13:35:21Z</time>
      </trkpt>
      <trkpt lat="41.3934380" lon="-8.7761920">
        <ele>6.7</ele>
        <time>2021-05-16T13:35:22Z</time>
      </trkpt>
      <trkpt lat="41.3934500" lon="-8.7762020">
        <ele>6.7</ele>
        <time>2021-05-16T13:35:23Z</time>
      </trkpt>
      <trkpt lat="41.3934620" lon="-8.7762160">
        <ele>6.7</ele>
        <time>2021-05-16T13:35:24Z</time>
      </trkpt>
      <trkpt lat="41.3934770" lon="-8.7762210">
        <ele>6.7</ele>
        <time>2021-05-16T13:35:25Z</time>
      </trkpt>
      <trkpt lat="41.3934900" lon="-8.7762350">
        <ele>6.7</ele>
        <time>2021-05-16T13:35:26Z</time>
      </trkpt>
      <trkpt lat="41.3934980" lon="-8.7762470">
        <ele>6.7</ele>
        <time>2021-05-16T13:35:27Z</time>
      </trkpt>
      <trkpt lat="41.3935100" lon="-8.7762590">
        <ele>6.7</ele>
        <time>2021-05-16T13:35:28Z</time>
      </trkpt>
      <trkpt lat="41.3935160" lon="-8.7762660">
        <ele>6.7</ele>
        <time>2021-05-16T13:35:29Z</time>
      </trkpt>
      <trkpt lat="41.3935290" lon="-8.7762660">
        <ele>6.7</ele>
        <time>2021-05-16T13:35:30Z</time>
      </trkpt>
      <trkpt lat="41.3935420" lon="-8.7762700">
        <ele>6.7</ele>
        <time>2021-05-16T13:35:31Z</time>
      </trkpt>
      <trkpt lat="41.3935610" lon="-8.7762760">
        <ele>6.7</ele>
        <time>2021-05-16T13:35:32Z</time>
      </trkpt>
      <trkpt lat="41.3935700" lon="-8.7762870">
        <ele>6.7</ele>
        <time>2021-05-16T13:35:33Z</time>
      </trkpt>
      <trkpt lat="41.3935760" lon="-8.7763070">
        <ele>6.7</ele>
        <time>2021-05-16T13:35:34Z</time>
      </trkpt>
      <trkpt lat="41.3935860" lon="-8.7763180">
        <ele>6.7</ele>
        <time>2021-05-16T13:35:35Z</time>
      </trkpt>
      <trkpt lat="41.3936010" lon="-8.7763390">
        <ele>6.7</ele>
        <time>2021-05-16T13:35:36Z</time>
      </trkpt>
      <trkpt lat="41.3936090" lon="-8.7763460">
        <ele>6.7</ele>
        <time>2021-05-16T13:35:37Z</time>
      </trkpt>
      <trkpt lat="41.3936160" lon="-8.7763520">
        <ele>6.7</ele>
        <time>2021-05-16T13:35:38Z</time>
      </trkpt>
      <trkpt lat="41.3936260" lon="-8.7763570">
        <ele>6.7</ele>
        <time>2021-05-16T13:35:39Z</time>
      </trkpt>
      <trkpt lat="41.3936300" lon="-8.7763660">
        <ele>6.7</ele>
        <time>2021-05-16T13:35:40Z</time>
      </trkpt>
      <trkpt lat="41.3936440" lon="-8.7763800">
        <ele>6.7</ele>
        <time>2021-05-16T13:35:41Z</time>
      </trkpt>
      <trkpt lat="41.3936520" lon="-8.7764010">
        <ele>6.7</ele>
        <time>2021-05-16T13:35:42Z</time>
      </trkpt>
      <trkpt lat="41.3936540" lon="-8.7764120">
        <ele>6.7</ele>
        <time>2021-05-16T13:35:43Z</time>
      </trkpt>
      <trkpt lat="41.3936550" lon="-8.7764230">
        <ele>6.7</ele>
        <time>2021-05-16T13:35:44Z</time>
      </trkpt>
      <trkpt lat="41.3936570" lon="-8.7764340">
        <ele>6.7</ele>
        <time>2021-05-16T13:35:45Z</time>
      </trkpt>
      <trkpt lat="41.3936740" lon="-8.7764530">
        <ele>6.7</ele>
        <time>2021-05-16T13:35:46Z</time>
      </trkpt>
      <trkpt lat="41.3936800" lon="-8.7764580">
        <ele>6.7</ele>
        <time>2021-05-16T13:35:47Z</time>
      </trkpt>
      <trkpt lat="41.3936870" lon="-8.7764640">
        <ele>6.7</ele>
        <time>2021-05-16T13:35:48Z</time>
      </trkpt>
      <trkpt lat="41.3937170" lon="-8.7764790">
        <ele>6.7</ele>
        <time>2021-05-16T13:35:49Z</time>
      </trkpt>
      <trkpt lat="41.3937250" lon="-8.7764830">
        <ele>6.7</ele>
        <time>2021-05-16T13:35:50Z</time>
      </trkpt>
      <trkpt lat="41.3937420" lon="-8.7765030">
        <ele>6.7</ele>
        <time>2021-05-16T13:35:51Z</time>
      </trkpt>
      <trkpt lat="41.3937500" lon="-8.7765110">
        <ele>6.7</ele>
        <time>2021-05-16T13:35:52Z</time>
      </trkpt>
      <trkpt lat="41.3937570" lon="-8.7765200">
        <ele>6.7</ele>
        <time>2021-05-16T13:35:53Z</time>
      </trkpt>
      <trkpt lat="41.3937710" lon="-8.7765290">
        <ele>6.7</ele>
        <time>2021-05-16T13:35:54Z</time>
      </trkpt>
      <trkpt lat="41.3937840" lon="-8.7765420">
        <ele>6.7</ele>
        <time>2021-05-16T13:35:55Z</time>
      </trkpt>
      <trkpt lat="41.3937960" lon="-8.7765530">
        <ele>6.7</ele>
        <time>2021-05-16T13:35:56Z</time>
      </trkpt>
      <trkpt lat="41.3938090" lon="-8.7765590">
        <ele>6.7</ele>
        <time>2021-05-16T13:35:57Z</time>
      </trkpt>
      <trkpt lat="41.3938150" lon="-8.7765750">
        <ele>6.7</ele>
        <time>2021-05-16T13:35:58Z</time>
      </trkpt>
      <trkpt lat="41.3938250" lon="-8.7765830">
        <ele>6.7</ele>
        <time>2021-05-16T13:35:59Z</time>
      </trkpt>
      <trkpt lat="41.3938320" lon="-8.7765860">
        <ele>6.7</ele>
        <time>2021-05-16T13:36:00Z</time>
      </trkpt>
      <trkpt lat="41.3938430" lon="-8.7765860">
        <ele>6.7</ele>
        <time>2021-05-16T13:36:01Z</time>
      </trkpt>
      <trkpt lat="41.3938480" lon="-8.7765940">
        <ele>6.7</ele>
        <time>2021-05-16T13:36:02Z</time>
      </trkpt>
      <trkpt lat="41.3938470" lon="-8.7765940">
        <ele>6.7</ele>
        <time>2021-05-16T13:36:03Z</time>
      </trkpt>
      <trkpt lat="41.3938380" lon="-8.7765810">
        <ele>6.7</ele>
        <time>2021-05-16T13:36:04Z</time>
      </trkpt>
      <trkpt lat="41.3938380" lon="-8.7765760">
        <ele>6.7</ele>
        <time>2021-05-16T13:36:05Z</time>
      </trkpt>
      <trkpt lat="41.3938370" lon="-8.7765700">
        <ele>6.7</ele>
        <time>2021-05-16T13:36:06Z</time>
      </trkpt>
      <trkpt lat="41.3938420" lon="-8.7765800">
        <ele>6.7</ele>
        <time>2021-05-16T13:36:07Z</time>
      </trkpt>
      <trkpt lat="41.3938510" lon="-8.7765900">
        <ele>6.7</ele>
        <time>2021-05-16T13:36:08Z</time>
      </trkpt>
      <trkpt lat="41.3938590" lon="-8.7766050">
        <ele>6.7</ele>
        <time>2021-05-16T13:36:09Z</time>
      </trkpt>
      <trkpt lat="41.3938680" lon="-8.7766180">
        <ele>6.7</ele>
        <time>2021-05-16T13:36:10Z</time>
      </trkpt>
      <trkpt lat="41.3938790" lon="-8.7766220">
        <ele>6.7</ele>
        <time>2021-05-16T13:36:11Z</time>
      </trkpt>
      <trkpt lat="41.3938880" lon="-8.7766250">
        <ele>6.7</ele>
        <time>2021-05-16T13:36:12Z</time>
      </trkpt>
      <trkpt lat="41.3939040" lon="-8.7766340">
        <ele>6.7</ele>
        <time>2021-05-16T13:36:13Z</time>
      </trkpt>
      <trkpt lat="41.3939150" lon="-8.7766430">
        <ele>6.7</ele>
        <time>2021-05-16T13:36:14Z</time>
      </trkpt>
      <trkpt lat="41.3939290" lon="-8.7766470">
        <ele>6.7</ele>
        <time>2021-05-16T13:36:15Z</time>
      </trkpt>
      <trkpt lat="41.3939440" lon="-8.7766520">
        <ele>6.7</ele>
        <time>2021-05-16T13:36:16Z</time>
      </trkpt>
      <trkpt lat="41.3939490" lon="-8.7766620">
        <ele>6.7</ele>
        <time>2021-05-16T13:36:17Z</time>
      </trkpt>
      <trkpt lat="41.3939590" lon="-8.7766670">
        <ele>6.7</ele>
        <time>2021-05-16T13:36:18Z</time>
      </trkpt>
      <trkpt lat="41.3939700" lon="-8.7766710">
        <ele>6.7</ele>
        <time>2021-05-16T13:36:19Z</time>
      </trkpt>
      <trkpt lat="41.3939840" lon="-8.7766740">
        <ele>6.7</ele>
        <time>2021-05-16T13:36:20Z</time>
      </trkpt>
      <trkpt lat="41.3940000" lon="-8.7766770">
        <ele>6.7</ele>
        <time>2021-05-16T13:36:21Z</time>
      </trkpt>
      <trkpt lat="41.3940180" lon="-8.7766820">
        <ele>6.7</ele>
        <time>2021-05-16T13:36:22Z</time>
      </trkpt>
      <trkpt lat="41.3940250" lon="-8.7766970">
        <ele>6.7</ele>
        <time>2021-05-16T13:36:23Z</time>
      </trkpt>
      <trkpt lat="41.3940400" lon="-8.7767140">
        <ele>6.7</ele>
        <time>2021-05-16T13:36:24Z</time>
      </trkpt>
      <trkpt lat="41.3940490" lon="-8.7767240">
        <ele>6.7</ele>
        <time>2021-05-16T13:36:25Z</time>
      </trkpt>
      <trkpt lat="41.3940570" lon="-8.7767330">
        <ele>6.7</ele>
        <time>2021-05-16T13:36:26Z</time>
      </trkpt>
      <trkpt lat="41.3940790" lon="-8.7767410">
        <ele>6.7</ele>
        <time>2021-05-16T13:36:27Z</time>
      </trkpt>
      <trkpt lat="41.3940890" lon="-8.7767440">
        <ele>6.8</ele>
        <time>2021-05-16T13:36:28Z</time>
      </trkpt>
      <trkpt lat="41.3940990" lon="-8.7767460">
        <ele>6.8</ele>
        <time>2021-05-16T13:36:29Z</time>
      </trkpt>
      <trkpt lat="41.3941090" lon="-8.7767490">
        <ele>6.8</ele>
        <time>2021-05-16T13:36:30Z</time>
      </trkpt>
      <trkpt lat="41.3941280" lon="-8.7767490">
        <ele>6.8</ele>
        <time>2021-05-16T13:36:31Z</time>
      </trkpt>
      <trkpt lat="41.3941360" lon="-8.7767590">
        <ele>6.8</ele>
        <time>2021-05-16T13:36:32Z</time>
      </trkpt>
      <trkpt lat="41.3941480" lon="-8.7767710">
        <ele>6.8</ele>
        <time>2021-05-16T13:36:33Z</time>
      </trkpt>
      <trkpt lat="41.3941560" lon="-8.7767790">
        <ele>6.8</ele>
        <time>2021-05-16T13:36:34Z</time>
      </trkpt>
      <trkpt lat="41.3941700" lon="-8.7767820">
        <ele>6.8</ele>
        <time>2021-05-16T13:36:35Z</time>
      </trkpt>
      <trkpt lat="41.3941780" lon="-8.7767850">
        <ele>6.8</ele>
        <time>2021-05-16T13:36:36Z</time>
      </trkpt>
      <trkpt lat="41.3941890" lon="-8.7767930">
        <ele>6.8</ele>
        <time>2021-05-16T13:36:37Z</time>
      </trkpt>
      <trkpt lat="41.3942040" lon="-8.7768070">
        <ele>6.8</ele>
        <time>2021-05-16T13:36:38Z</time>
      </trkpt>
      <trkpt lat="41.3942190" lon="-8.7768060">
        <ele>6.8</ele>
        <time>2021-05-16T13:36:39Z</time>
      </trkpt>
      <trkpt lat="41.3942260" lon="-8.7768140">
        <ele>6.8</ele>
        <time>2021-05-16T13:36:40Z</time>
      </trkpt>
      <trkpt lat="41.3942400" lon="-8.7768170">
        <ele>6.8</ele>
        <time>2021-05-16T13:36:41Z</time>
      </trkpt>
      <trkpt lat="41.3942500" lon="-8.7768260">
        <ele>6.8</ele>
        <time>2021-05-16T13:36:42Z</time>
      </trkpt>
      <trkpt lat="41.3942690" lon="-8.7768350">
        <ele>6.8</ele>
        <time>2021-05-16T13:36:43Z</time>
      </trkpt>
      <trkpt lat="41.3942780" lon="-8.7768520">
        <ele>6.8</ele>
        <time>2021-05-16T13:36:44Z</time>
      </trkpt>
      <trkpt lat="41.3942970" lon="-8.7768610">
        <ele>6.8</ele>
        <time>2021-05-16T13:36:45Z</time>
      </trkpt>
      <trkpt lat="41.3943090" lon="-8.7768640">
        <ele>6.8</ele>
        <time>2021-05-16T13:36:46Z</time>
      </trkpt>
      <trkpt lat="41.3943200" lon="-8.7768670">
        <ele>6.8</ele>
        <time>2021-05-16T13:36:47Z</time>
      </trkpt>
      <trkpt lat="41.3943290" lon="-8.7768760">
        <ele>6.9</ele>
        <time>2021-05-16T13:36:48Z</time>
      </trkpt>
      <trkpt lat="41.3943360" lon="-8.7768860">
        <ele>6.9</ele>
        <time>2021-05-16T13:36:49Z</time>
      </trkpt>
      <trkpt lat="41.3943500" lon="-8.7768930">
        <ele>6.9</ele>
        <time>2021-05-16T13:36:50Z</time>
      </trkpt>
      <trkpt lat="41.3943660" lon="-8.7768920">
        <ele>6.9</ele>
        <time>2021-05-16T13:36:51Z</time>
      </trkpt>
      <trkpt lat="41.3943710" lon="-8.7768970">
        <ele>6.9</ele>
        <time>2021-05-16T13:36:52Z</time>
      </trkpt>
      <trkpt lat="41.3943850" lon="-8.7769030">
        <ele>6.9</ele>
        <time>2021-05-16T13:36:53Z</time>
      </trkpt>
      <trkpt lat="41.3944020" lon="-8.7769090">
        <ele>6.9</ele>
        <time>2021-05-16T13:36:55Z</time>
      </trkpt>
      <trkpt lat="41.3944110" lon="-8.7769200">
        <ele>6.9</ele>
        <time>2021-05-16T13:36:56Z</time>
      </trkpt>
      <trkpt lat="41.3944170" lon="-8.7769340">
        <ele>6.9</ele>
        <time>2021-05-16T13:36:57Z</time>
      </trkpt>
      <trkpt lat="41.3944280" lon="-8.7769360">
        <ele>6.9</ele>
        <time>2021-05-16T13:36:58Z</time>
      </trkpt>
      <trkpt lat="41.3944420" lon="-8.7769340">
        <ele>6.9</ele>
        <time>2021-05-16T13:36:59Z</time>
      </trkpt>
      <trkpt lat="41.3944540" lon="-8.7769390">
        <ele>6.9</ele>
        <time>2021-05-16T13:37:00Z</time>
      </trkpt>
      <trkpt lat="41.3944690" lon="-8.7769450">
        <ele>6.9</ele>
        <time>2021-05-16T13:37:01Z</time>
      </trkpt>
      <trkpt lat="41.3944920" lon="-8.7769410">
        <ele>6.9</ele>
        <time>2021-05-16T13:37:02Z</time>
      </trkpt>
      <trkpt lat="41.3945010" lon="-8.7769430">
        <ele>6.9</ele>
        <time>2021-05-16T13:37:03Z</time>
      </trkpt>
      <trkpt lat="41.3945090" lon="-8.7769450">
        <ele>6.9</ele>
        <time>2021-05-16T13:37:04Z</time>
      </trkpt>
      <trkpt lat="41.3945220" lon="-8.7769420">
        <ele>6.9</ele>
        <time>2021-05-16T13:37:05Z</time>
      </trkpt>
      <trkpt lat="41.3945380" lon="-8.7769380">
        <ele>6.9</ele>
        <time>2021-05-16T13:37:06Z</time>
      </trkpt>
      <trkpt lat="41.3945680" lon="-8.7769460">
        <ele>7.0</ele>
        <time>2021-05-16T13:37:07Z</time>
      </trkpt>
      <trkpt lat="41.3945820" lon="-8.7769540">
        <ele>7.0</ele>
        <time>2021-05-16T13:37:08Z</time>
      </trkpt>
      <trkpt lat="41.3945970" lon="-8.7769610">
        <ele>7.0</ele>
        <time>2021-05-16T13:37:09Z</time>
      </trkpt>
      <trkpt lat="41.3946090" lon="-8.7769640">
        <ele>7.0</ele>
        <time>2021-05-16T13:37:10Z</time>
      </trkpt>
      <trkpt lat="41.3946280" lon="-8.7769610">
        <ele>7.0</ele>
        <time>2021-05-16T13:37:11Z</time>
      </trkpt>
      <trkpt lat="41.3946400" lon="-8.7769690">
        <ele>7.0</ele>
        <time>2021-05-16T13:37:12Z</time>
      </trkpt>
      <trkpt lat="41.3946580" lon="-8.7769820">
        <ele>7.0</ele>
        <time>2021-05-16T13:37:13Z</time>
      </trkpt>
      <trkpt lat="41.3946690" lon="-8.7769920">
        <ele>7.0</ele>
        <time>2021-05-16T13:37:14Z</time>
      </trkpt>
      <trkpt lat="41.3946780" lon="-8.7770020">
        <ele>7.0</ele>
        <time>2021-05-16T13:37:15Z</time>
      </trkpt>
      <trkpt lat="41.3946900" lon="-8.7770010">
        <ele>7.0</ele>
        <time>2021-05-16T13:37:16Z</time>
      </trkpt>
      <trkpt lat="41.3947040" lon="-8.7769900">
        <ele>7.0</ele>
        <time>2021-05-16T13:37:17Z</time>
      </trkpt>
      <trkpt lat="41.3947130" lon="-8.7770000">
        <ele>7.0</ele>
        <time>2021-05-16T13:37:18Z</time>
      </trkpt>
      <trkpt lat="41.3947170" lon="-8.7770140">
        <ele>7.1</ele>
        <time>2021-05-16T13:37:19Z</time>
      </trkpt>
      <trkpt lat="41.3947240" lon="-8.7770250">
        <ele>7.1</ele>
        <time>2021-05-16T13:37:20Z</time>
      </trkpt>
      <trkpt lat="41.3947320" lon="-8.7770420">
        <ele>7.1</ele>
        <time>2021-05-16T13:37:21Z</time>
      </trkpt>
      <trkpt lat="41.3947460" lon="-8.7770500">
        <ele>7.1</ele>
        <time>2021-05-16T13:37:22Z</time>
      </trkpt>
      <trkpt lat="41.3947510" lon="-8.7770560">
        <ele>7.1</ele>
        <time>2021-05-16T13:37:23Z</time>
      </trkpt>
      <trkpt lat="41.3947580" lon="-8.7770600">
        <ele>7.1</ele>
        <time>2021-05-16T13:37:24Z</time>
      </trkpt>
      <trkpt lat="41.3947680" lon="-8.7770580">
        <ele>7.1</ele>
        <time>2021-05-16T13:37:25Z</time>
      </trkpt>
      <trkpt lat="41.3947800" lon="-8.7770640">
        <ele>7.1</ele>
        <time>2021-05-16T13:37:26Z</time>
      </trkpt>
      <trkpt lat="41.3947830" lon="-8.7770620">
        <ele>7.1</ele>
        <time>2021-05-16T13:37:27Z</time>
      </trkpt>
      <trkpt lat="41.3947840" lon="-8.7770520">
        <ele>7.1</ele>
        <time>2021-05-16T13:37:28Z</time>
      </trkpt>
      <trkpt lat="41.3947740" lon="-8.7770530">
        <ele>7.1</ele>
        <time>2021-05-16T13:37:29Z</time>
      </trkpt>
      <trkpt lat="41.3947600" lon="-8.7770680">
        <ele>7.1</ele>
        <time>2021-05-16T13:37:30Z</time>
      </trkpt>
      <trkpt lat="41.3947600" lon="-8.7770620">
        <ele>7.1</ele>
        <time>2021-05-16T13:37:31Z</time>
      </trkpt>
      <trkpt lat="41.3947590" lon="-8.7770560">
        <ele>7.1</ele>
        <time>2021-05-16T13:37:32Z</time>
      </trkpt>
      <trkpt lat="41.3947620" lon="-8.7770460">
        <ele>7.1</ele>
        <time>2021-05-16T13:37:33Z</time>
      </trkpt>
      <trkpt lat="41.3947620" lon="-8.7770400">
        <ele>7.1</ele>
        <time>2021-05-16T13:37:34Z</time>
      </trkpt>
      <trkpt lat="41.3947640" lon="-8.7770380">
        <ele>7.1</ele>
        <time>2021-05-16T13:37:35Z</time>
      </trkpt>
      <trkpt lat="41.3947670" lon="-8.7770360">
        <ele>7.1</ele>
        <time>2021-05-16T13:37:36Z</time>
      </trkpt>
      <trkpt lat="41.3947710" lon="-8.7770380">
        <ele>7.1</ele>
        <time>2021-05-16T13:37:37Z</time>
      </trkpt>
      <trkpt lat="41.3947790" lon="-8.7770480">
        <ele>7.1</ele>
        <time>2021-05-16T13:37:38Z</time>
      </trkpt>
      <trkpt lat="41.3947870" lon="-8.7770390">
        <ele>7.2</ele>
        <time>2021-05-16T13:37:39Z</time>
      </trkpt>
      <trkpt lat="41.3947950" lon="-8.7770440">
        <ele>7.2</ele>
        <time>2021-05-16T13:37:40Z</time>
      </trkpt>
      <trkpt lat="41.3948090" lon="-8.7770580">
        <ele>7.2</ele>
        <time>2021-05-16T13:37:41Z</time>
      </trkpt>
      <trkpt lat="41.3948420" lon="-8.7770520">
        <ele>7.2</ele>
        <time>2021-05-16T13:37:42Z</time>
      </trkpt>
      <trkpt lat="41.3948760" lon="-8.7770610">
        <ele>7.2</ele>
        <time>2021-05-16T13:37:43Z</time>
      </trkpt>
      <trkpt lat="41.3948840" lon="-8.7770630">
        <ele>7.2</ele>
        <time>2021-05-16T13:37:44Z</time>
      </trkpt>
      <trkpt lat="41.3949000" lon="-8.7770780">
        <ele>7.2</ele>
        <time>2021-05-16T13:37:45Z</time>
      </trkpt>
      <trkpt lat="41.3949140" lon="-8.7770740">
        <ele>7.2</ele>
        <time>2021-05-16T13:37:46Z</time>
      </trkpt>
      <trkpt lat="41.3949220" lon="-8.7770560">
        <ele>7.2</ele>
        <time>2021-05-16T13:37:47Z</time>
      </trkpt>
      <trkpt lat="41.3949400" lon="-8.7770560">
        <ele>7.2</ele>
        <time>2021-05-16T13:37:48Z</time>
      </trkpt>
      <trkpt lat="41.3949580" lon="-8.7770660">
        <ele>7.2</ele>
        <time>2021-05-16T13:37:49Z</time>
      </trkpt>
      <trkpt lat="41.3949740" lon="-8.7770730">
        <ele>7.2</ele>
        <time>2021-05-16T13:37:50Z</time>
      </trkpt>
      <trkpt lat="41.3949880" lon="-8.7770760">
        <ele>7.2</ele>
        <time>2021-05-16T13:37:51Z</time>
      </trkpt>
      <trkpt lat="41.3949950" lon="-8.7770870">
        <ele>7.2</ele>
        <time>2021-05-16T13:37:52Z</time>
      </trkpt>
      <trkpt lat="41.3950050" lon="-8.7770880">
        <ele>7.2</ele>
        <time>2021-05-16T13:37:53Z</time>
      </trkpt>
      <trkpt lat="41.3950160" lon="-8.7770970">
        <ele>7.2</ele>
        <time>2021-05-16T13:37:54Z</time>
      </trkpt>
      <trkpt lat="41.3950300" lon="-8.7771090">
        <ele>7.2</ele>
        <time>2021-05-16T13:37:55Z</time>
      </trkpt>
      <trkpt lat="41.3950470" lon="-8.7771180">
        <ele>7.2</ele>
        <time>2021-05-16T13:37:56Z</time>
      </trkpt>
      <trkpt lat="41.3950570" lon="-8.7771240">
        <ele>7.2</ele>
        <time>2021-05-16T13:37:57Z</time>
      </trkpt>
      <trkpt lat="41.3950710" lon="-8.7771330">
        <ele>7.2</ele>
        <time>2021-05-16T13:37:58Z</time>
      </trkpt>
      <trkpt lat="41.3950810" lon="-8.7771490">
        <ele>7.2</ele>
        <time>2021-05-16T13:37:59Z</time>
      </trkpt>
      <trkpt lat="41.3950830" lon="-8.7771560">
        <ele>7.2</ele>
        <time>2021-05-16T13:38:00Z</time>
      </trkpt>
      <trkpt lat="41.3950920" lon="-8.7771420">
        <ele>7.2</ele>
        <time>2021-05-16T13:38:01Z</time>
      </trkpt>
      <trkpt lat="41.3951080" lon="-8.7771440">
        <ele>7.2</ele>
        <time>2021-05-16T13:38:02Z</time>
      </trkpt>
      <trkpt lat="41.3951320" lon="-8.7771740">
        <ele>7.2</ele>
        <time>2021-05-16T13:38:03Z</time>
      </trkpt>
      <trkpt lat="41.3951370" lon="-8.7771820">
        <ele>7.2</ele>
        <time>2021-05-16T13:38:04Z</time>
      </trkpt>
      <trkpt lat="41.3951460" lon="-8.7772040">
        <ele>7.2</ele>
        <time>2021-05-16T13:38:05Z</time>
      </trkpt>
      <trkpt lat="41.3951560" lon="-8.7772170">
        <ele>7.2</ele>
        <time>2021-05-16T13:38:06Z</time>
      </trkpt>
      <trkpt lat="41.3951870" lon="-8.7772510">
        <ele>7.2</ele>
        <time>2021-05-16T13:38:07Z</time>
      </trkpt>
      <trkpt lat="41.3952060" lon="-8.7772770">
        <ele>7.2</ele>
        <time>2021-05-16T13:38:08Z</time>
      </trkpt>
      <trkpt lat="41.3952110" lon="-8.7772870">
        <ele>7.2</ele>
        <time>2021-05-16T13:38:09Z</time>
      </trkpt>
      <trkpt lat="41.3952360" lon="-8.7773170">
        <ele>7.2</ele>
        <time>2021-05-16T13:38:10Z</time>
      </trkpt>
      <trkpt lat="41.3952470" lon="-8.7773250">
        <ele>7.2</ele>
        <time>2021-05-16T13:38:11Z</time>
      </trkpt>
      <trkpt lat="41.3952550" lon="-8.7773420">
        <ele>7.2</ele>
        <time>2021-05-16T13:38:12Z</time>
      </trkpt>
      <trkpt lat="41.3952560" lon="-8.7773500">
        <ele>7.2</ele>
        <time>2021-05-16T13:38:13Z</time>
      </trkpt>
      <trkpt lat="41.3952560" lon="-8.7773600">
        <ele>7.2</ele>
        <time>2021-05-16T13:38:14Z</time>
      </trkpt>
      <trkpt lat="41.3952670" lon="-8.7773630">
        <ele>7.2</ele>
        <time>2021-05-16T13:38:15Z</time>
      </trkpt>
      <trkpt lat="41.3952720" lon="-8.7773660">
        <ele>7.2</ele>
        <time>2021-05-16T13:38:16Z</time>
      </trkpt>
      <trkpt lat="41.3952780" lon="-8.7773670">
        <ele>7.2</ele>
        <time>2021-05-16T13:38:17Z</time>
      </trkpt>
      <trkpt lat="41.3952830" lon="-8.7773690">
        <ele>7.2</ele>
        <time>2021-05-16T13:38:18Z</time>
      </trkpt>
      <trkpt lat="41.3952910" lon="-8.7773710">
        <ele>7.2</ele>
        <time>2021-05-16T13:38:19Z</time>
      </trkpt>
      <trkpt lat="41.3952970" lon="-8.7773700">
        <ele>7.2</ele>
        <time>2021-05-16T13:38:20Z</time>
      </trkpt>
      <trkpt lat="41.3953120" lon="-8.7773750">
        <ele>7.2</ele>
        <time>2021-05-16T13:38:21Z</time>
      </trkpt>
      <trkpt lat="41.3953220" lon="-8.7773820">
        <ele>7.2</ele>
        <time>2021-05-16T13:38:22Z</time>
      </trkpt>
      <trkpt lat="41.3953340" lon="-8.7773830">
        <ele>7.2</ele>
        <time>2021-05-16T13:38:23Z</time>
      </trkpt>
      <trkpt lat="41.3953450" lon="-8.7773840">
        <ele>7.2</ele>
        <time>2021-05-16T13:38:24Z</time>
      </trkpt>
      <trkpt lat="41.3953500" lon="-8.7773890">
        <ele>7.2</ele>
        <time>2021-05-16T13:38:25Z</time>
      </trkpt>
      <trkpt lat="41.3953620" lon="-8.7773930">
        <ele>7.2</ele>
        <time>2021-05-16T13:38:26Z</time>
      </trkpt>
      <trkpt lat="41.3953700" lon="-8.7773960">
        <ele>7.2</ele>
        <time>2021-05-16T13:38:27Z</time>
      </trkpt>
      <trkpt lat="41.3953640" lon="-8.7773910">
        <ele>7.2</ele>
        <time>2021-05-16T13:38:28Z</time>
      </trkpt>
      <trkpt lat="41.3953640" lon="-8.7773830">
        <ele>7.2</ele>
        <time>2021-05-16T13:38:29Z</time>
      </trkpt>
      <trkpt lat="41.3953660" lon="-8.7773770">
        <ele>7.2</ele>
        <time>2021-05-16T13:38:30Z</time>
      </trkpt>
      <trkpt lat="41.3953670" lon="-8.7773720">
        <ele>7.2</ele>
        <time>2021-05-16T13:38:31Z</time>
      </trkpt>
      <trkpt lat="41.3953740" lon="-8.7773680">
        <ele>7.2</ele>
        <time>2021-05-16T13:38:32Z</time>
      </trkpt>
      <trkpt lat="41.3953810" lon="-8.7773620">
        <ele>7.2</ele>
        <time>2021-05-16T13:38:33Z</time>
      </trkpt>
      <trkpt lat="41.3953840" lon="-8.7773610">
        <ele>7.2</ele>
        <time>2021-05-16T13:38:34Z</time>
      </trkpt>
      <trkpt lat="41.3953780" lon="-8.7773630">
        <ele>7.2</ele>
        <time>2021-05-16T13:38:35Z</time>
      </trkpt>
      <trkpt lat="41.3953790" lon="-8.7773690">
        <ele>7.2</ele>
        <time>2021-05-16T13:38:36Z</time>
      </trkpt>
      <trkpt lat="41.3953770" lon="-8.7773650">
        <ele>7.2</ele>
        <time>2021-05-16T13:38:37Z</time>
      </trkpt>
      <trkpt lat="41.3953750" lon="-8.7773590">
        <ele>7.2</ele>
        <time>2021-05-16T13:38:38Z</time>
      </trkpt>
      <trkpt lat="41.3953720" lon="-8.7773600">
        <ele>7.2</ele>
        <time>2021-05-16T13:38:39Z</time>
      </trkpt>
      <trkpt lat="41.3953670" lon="-8.7773590">
        <ele>7.2</ele>
        <time>2021-05-16T13:38:40Z</time>
      </trkpt>
      <trkpt lat="41.3953670" lon="-8.7773620">
        <ele>7.2</ele>
        <time>2021-05-16T13:38:41Z</time>
      </trkpt>
      <trkpt lat="41.3953690" lon="-8.7773560">
        <ele>7.2</ele>
        <time>2021-05-16T13:38:42Z</time>
      </trkpt>
      <trkpt lat="41.3953680" lon="-8.7773460">
        <ele>7.2</ele>
        <time>2021-05-16T13:38:43Z</time>
      </trkpt>
      <trkpt lat="41.3953630" lon="-8.7773460">
        <ele>7.2</ele>
        <time>2021-05-16T13:38:44Z</time>
      </trkpt>
      <trkpt lat="41.3953510" lon="-8.7773440">
        <ele>7.2</ele>
        <time>2021-05-16T13:38:45Z</time>
      </trkpt>
      <trkpt lat="41.3953400" lon="-8.7773410">
        <ele>7.2</ele>
        <time>2021-05-16T13:38:46Z</time>
      </trkpt>
      <trkpt lat="41.3953190" lon="-8.7773390">
        <ele>7.2</ele>
        <time>2021-05-16T13:38:47Z</time>
      </trkpt>
      <trkpt lat="41.3952990" lon="-8.7773410">
        <ele>7.2</ele>
        <time>2021-05-16T13:38:48Z</time>
      </trkpt>
      <trkpt lat="41.3952890" lon="-8.7773370">
        <ele>7.2</ele>
        <time>2021-05-16T13:38:49Z</time>
      </trkpt>
      <trkpt lat="41.3952820" lon="-8.7773260">
        <ele>7.2</ele>
        <time>2021-05-16T13:38:50Z</time>
      </trkpt>
      <trkpt lat="41.3952720" lon="-8.7773180">
        <ele>7.2</ele>
        <time>2021-05-16T13:38:51Z</time>
      </trkpt>
      <trkpt lat="41.3952730" lon="-8.7773150">
        <ele>7.2</ele>
        <time>2021-05-16T13:38:52Z</time>
      </trkpt>
      <trkpt lat="41.3952720" lon="-8.7773110">
        <ele>7.2</ele>
        <time>2021-05-16T13:38:53Z</time>
      </trkpt>
      <trkpt lat="41.3952700" lon="-8.7773050">
        <ele>7.2</ele>
        <time>2021-05-16T13:38:54Z</time>
      </trkpt>
      <trkpt lat="41.3952600" lon="-8.7772900">
        <ele>7.2</ele>
        <time>2021-05-16T13:38:55Z</time>
      </trkpt>
      <trkpt lat="41.3952550" lon="-8.7772810">
        <ele>7.2</ele>
        <time>2021-05-16T13:38:56Z</time>
      </trkpt>
      <trkpt lat="41.3952500" lon="-8.7772720">
        <ele>7.2</ele>
        <time>2021-05-16T13:38:57Z</time>
      </trkpt>
      <trkpt lat="41.3952450" lon="-8.7772630">
        <ele>7.2</ele>
        <time>2021-05-16T13:38:58Z</time>
      </trkpt>
      <trkpt lat="41.3952400" lon="-8.7772540">
        <ele>7.2</ele>
        <time>2021-05-16T13:38:59Z</time>
      </trkpt>
      <trkpt lat="41.3952350" lon="-8.7772450">
        <ele>7.2</ele>
        <time>2021-05-16T13:39:00Z</time>
      </trkpt>
      <trkpt lat="41.3952030" lon="-8.7772540">
        <ele>7.2</ele>
        <time>2021-05-16T13:39:01Z</time>
      </trkpt>
      <trkpt lat="41.3951950" lon="-8.7772550">
        <ele>7.2</ele>
        <time>2021-05-16T13:39:02Z</time>
      </trkpt>
      <trkpt lat="41.3951890" lon="-8.7772450">
        <ele>7.2</ele>
        <time>2021-05-16T13:39:03Z</time>
      </trkpt>
      <trkpt lat="41.3951910" lon="-8.7772460">
        <ele>7.2</ele>
        <time>2021-05-16T13:39:04Z</time>
      </trkpt>
      <trkpt lat="41.3953190" lon="-8.7775050">
        <ele>7.3</ele>
        <time>2021-05-17T05:28:10Z</time>
      </trkpt>
      <trkpt lat="41.3953160" lon="-8.7775080">
        <ele>7.3</ele>
        <time>2021-05-17T05:28:11Z</time>
      </trkpt>
      <trkpt lat="41.3953170" lon="-8.7775040">
        <ele>7.3</ele>
        <time>2021-05-17T05:28:12Z</time>
      </trkpt>
      <trkpt lat="41.3953140" lon="-8.7774930">
        <ele>7.3</ele>
        <time>2021-05-17T05:28:13Z</time>
      </trkpt>
      <trkpt lat="41.3953150" lon="-8.7774900">
        <ele>7.3</ele>
        <time>2021-05-17T05:28:14Z</time>
      </trkpt>
      <trkpt lat="41.3953130" lon="-8.7774850">
        <ele>7.3</ele>
        <time>2021-05-17T05:28:15Z</time>
      </trkpt>
      <trkpt lat="41.3953150" lon="-8.7774850">
        <ele>7.3</ele>
        <time>2021-05-17T05:28:16Z</time>
      </trkpt>
      <trkpt lat="41.3953220" lon="-8.7774880">
        <ele>7.3</ele>
        <time>2021-05-17T05:28:17Z</time>
      </trkpt>
      <trkpt lat="41.3953340" lon="-8.7775000">
        <ele>7.3</ele>
        <time>2021-05-17T05:28:18Z</time>
      </trkpt>
      <trkpt lat="41.3953470" lon="-8.7775060">
        <ele>7.3</ele>
        <time>2021-05-17T05:28:19Z</time>
      </trkpt>
      <trkpt lat="41.3953640" lon="-8.7775140">
        <ele>7.3</ele>
        <time>2021-05-17T05:28:20Z</time>
      </trkpt>
      <trkpt lat="41.3953760" lon="-8.7775210">
        <ele>7.3</ele>
        <time>2021-05-17T05:28:21Z</time>
      </trkpt>
      <trkpt lat="41.3953860" lon="-8.7775250">
        <ele>7.3</ele>
        <time>2021-05-17T05:28:22Z</time>
      </trkpt>
      <trkpt lat="41.3954090" lon="-8.7775150">
        <ele>7.3</ele>
        <time>2021-05-17T05:28:23Z</time>
      </trkpt>
      <trkpt lat="41.3954240" lon="-8.7775140">
        <ele>7.3</ele>
        <time>2021-05-17T05:28:24Z</time>
      </trkpt>
      <trkpt lat="41.3954370" lon="-8.7775160">
        <ele>7.3</ele>
        <time>2021-05-17T05:28:25Z</time>
      </trkpt>
      <trkpt lat="41.3954650" lon="-8.7775260">
        <ele>7.3</ele>
        <time>2021-05-17T05:28:26Z</time>
      </trkpt>
      <trkpt lat="41.3954740" lon="-8.7775350">
        <ele>7.3</ele>
        <time>2021-05-17T05:28:27Z</time>
      </trkpt>
      <trkpt lat="41.3955000" lon="-8.7775470">
        <ele>7.3</ele>
        <time>2021-05-17T05:28:28Z</time>
      </trkpt>
      <trkpt lat="41.3955120" lon="-8.7775570">
        <ele>7.3</ele>
        <time>2021-05-17T05:28:29Z</time>
      </trkpt>
      <trkpt lat="41.3955180" lon="-8.7775800">
        <ele>7.3</ele>
        <time>2021-05-17T05:28:30Z</time>
      </trkpt>
      <trkpt lat="41.3955270" lon="-8.7775980">
        <ele>7.3</ele>
        <time>2021-05-17T05:28:31Z</time>
      </trkpt>
      <trkpt lat="41.3955330" lon="-8.7776100">
        <ele>7.3</ele>
        <time>2021-05-17T05:28:32Z</time>
      </trkpt>
      <trkpt lat="41.3955400" lon="-8.7776210">
        <ele>7.3</ele>
        <time>2021-05-17T05:28:33Z</time>
      </trkpt>
      <trkpt lat="41.3955510" lon="-8.7776410">
        <ele>7.3</ele>
        <time>2021-05-17T05:28:35Z</time>
      </trkpt>
      <trkpt lat="41.3955590" lon="-8.7776560">
        <ele>7.3</ele>
        <time>2021-05-17T05:28:36Z</time>
      </trkpt>
      <trkpt lat="41.3955950" lon="-8.7776770">
        <ele>7.3</ele>
        <time>2021-05-17T05:28:37Z</time>
      </trkpt>
      <trkpt lat="41.3956140" lon="-8.7776830">
        <ele>7.3</ele>
        <time>2021-05-17T05:28:38Z</time>
      </trkpt>
      <trkpt lat="41.3956220" lon="-8.7776920">
        <ele>7.3</ele>
        <time>2021-05-17T05:28:39Z</time>
      </trkpt>
      <trkpt lat="41.3956320" lon="-8.7777060">
        <ele>7.3</ele>
        <time>2021-05-17T05:28:40Z</time>
      </trkpt>
      <trkpt lat="41.3956400" lon="-8.7777110">
        <ele>7.3</ele>
        <time>2021-05-17T05:28:41Z</time>
      </trkpt>
      <trkpt lat="41.3956520" lon="-8.7777250">
        <ele>7.3</ele>
        <time>2021-05-17T05:28:42Z</time>
      </trkpt>
      <trkpt lat="41.3956660" lon="-8.7777320">
        <ele>7.3</ele>
        <time>2021-05-17T05:28:43Z</time>
      </trkpt>
      <trkpt lat="41.3956850" lon="-8.7777240">
        <ele>7.3</ele>
        <time>2021-05-17T05:28:44Z</time>
      </trkpt>
      <trkpt lat="41.3957010" lon="-8.7777250">
        <ele>7.3</ele>
        <time>2021-05-17T05:28:45Z</time>
      </trkpt>
      <trkpt lat="41.3957300" lon="-8.7777360">
        <ele>7.3</ele>
        <time>2021-05-17T05:28:46Z</time>
      </trkpt>
      <trkpt lat="41.3957350" lon="-8.7777440">
        <ele>7.3</ele>
        <time>2021-05-17T05:28:47Z</time>
      </trkpt>
      <trkpt lat="41.3957500" lon="-8.7777520">
        <ele>7.3</ele>
        <time>2021-05-17T05:28:48Z</time>
      </trkpt>
      <trkpt lat="41.3957610" lon="-8.7777710">
        <ele>7.3</ele>
        <time>2021-05-17T05:28:49Z</time>
      </trkpt>
      <trkpt lat="41.3957750" lon="-8.7777760">
        <ele>7.3</ele>
        <time>2021-05-17T05:28:50Z</time>
      </trkpt>
      <trkpt lat="41.3957900" lon="-8.7777940">
        <ele>7.3</ele>
        <time>2021-05-17T05:28:51Z</time>
      </trkpt>
      <trkpt lat="41.3958000" lon="-8.7777940">
        <ele>7.3</ele>
        <time>2021-05-17T05:28:52Z</time>
      </trkpt>
      <trkpt lat="41.3958080" lon="-8.7778080">
        <ele>7.3</ele>
        <time>2021-05-17T05:28:53Z</time>
      </trkpt>
      <trkpt lat="41.3958210" lon="-8.7778190">
        <ele>7.3</ele>
        <time>2021-05-17T05:28:54Z</time>
      </trkpt>
      <trkpt lat="41.3958360" lon="-8.7778280">
        <ele>7.3</ele>
        <time>2021-05-17T05:28:55Z</time>
      </trkpt>
      <trkpt lat="41.3958520" lon="-8.7778300">
        <ele>7.3</ele>
        <time>2021-05-17T05:28:56Z</time>
      </trkpt>
      <trkpt lat="41.3958740" lon="-8.7778430">
        <ele>7.3</ele>
        <time>2021-05-17T05:28:57Z</time>
      </trkpt>
      <trkpt lat="41.3958830" lon="-8.7778460">
        <ele>7.3</ele>
        <time>2021-05-17T05:28:58Z</time>
      </trkpt>
      <trkpt lat="41.3958920" lon="-8.7778500">
        <ele>7.3</ele>
        <time>2021-05-17T05:28:59Z</time>
      </trkpt>
      <trkpt lat="41.3959010" lon="-8.7778650">
        <ele>7.3</ele>
        <time>2021-05-17T05:29:00Z</time>
      </trkpt>
      <trkpt lat="41.3959100" lon="-8.7778790">
        <ele>7.3</ele>
        <time>2021-05-17T05:29:01Z</time>
      </trkpt>
      <trkpt lat="41.3959240" lon="-8.7778850">
        <ele>7.3</ele>
        <time>2021-05-17T05:29:02Z</time>
      </trkpt>
      <trkpt lat="41.3959430" lon="-8.7778850">
        <ele>7.3</ele>
        <time>2021-05-17T05:29:03Z</time>
      </trkpt>
      <trkpt lat="41.3959570" lon="-8.7778960">
        <ele>7.3</ele>
        <time>2021-05-17T05:29:04Z</time>
      </trkpt>
      <trkpt lat="41.3959680" lon="-8.7779120">
        <ele>7.3</ele>
        <time>2021-05-17T05:29:05Z</time>
      </trkpt>
      <trkpt lat="41.3959840" lon="-8.7779310">
        <ele>7.3</ele>
        <time>2021-05-17T05:29:06Z</time>
      </trkpt>
      <trkpt lat="41.3959900" lon="-8.7779370">
        <ele>7.3</ele>
        <time>2021-05-17T05:29:07Z</time>
      </trkpt>
      <trkpt lat="41.3959970" lon="-8.7779430">
        <ele>7.4</ele>
        <time>2021-05-17T05:29:08Z</time>
      </trkpt>
      <trkpt lat="41.3960130" lon="-8.7779570">
        <ele>7.4</ele>
        <time>2021-05-17T05:29:09Z</time>
      </trkpt>
      <trkpt lat="41.3960280" lon="-8.7779570">
        <ele>7.4</ele>
        <time>2021-05-17T05:29:10Z</time>
      </trkpt>
      <trkpt lat="41.3960490" lon="-8.7779630">
        <ele>7.4</ele>
        <time>2021-05-17T05:29:11Z</time>
      </trkpt>
      <trkpt lat="41.3960590" lon="-8.7779650">
        <ele>7.4</ele>
        <time>2021-05-17T05:29:12Z</time>
      </trkpt>
      <trkpt lat="41.3960680" lon="-8.7779680">
        <ele>7.4</ele>
        <time>2021-05-17T05:29:13Z</time>
      </trkpt>
      <trkpt lat="41.3960770" lon="-8.7779690">
        <ele>7.4</ele>
        <time>2021-05-17T05:29:14Z</time>
      </trkpt>
      <trkpt lat="41.3960880" lon="-8.7779830">
        <ele>7.4</ele>
        <time>2021-05-17T05:29:15Z</time>
      </trkpt>
      <trkpt lat="41.3960980" lon="-8.7779810">
        <ele>7.4</ele>
        <time>2021-05-17T05:29:16Z</time>
      </trkpt>
      <trkpt lat="41.3961150" lon="-8.7779910">
        <ele>7.4</ele>
        <time>2021-05-17T05:29:17Z</time>
      </trkpt>
      <trkpt lat="41.3961280" lon="-8.7779900">
        <ele>7.4</ele>
        <time>2021-05-17T05:29:18Z</time>
      </trkpt>
      <trkpt lat="41.3961390" lon="-8.7779990">
        <ele>7.4</ele>
        <time>2021-05-17T05:29:19Z</time>
      </trkpt>
      <trkpt lat="41.3961530" lon="-8.7780130">
        <ele>7.4</ele>
        <time>2021-05-17T05:29:20Z</time>
      </trkpt>
      <trkpt lat="41.3961710" lon="-8.7780240">
        <ele>7.4</ele>
        <time>2021-05-17T05:29:21Z</time>
      </trkpt>
      <trkpt lat="41.3961780" lon="-8.7780270">
        <ele>7.4</ele>
        <time>2021-05-17T05:29:22Z</time>
      </trkpt>
      <trkpt lat="41.3961840" lon="-8.7780290">
        <ele>7.4</ele>
        <time>2021-05-17T05:29:23Z</time>
      </trkpt>
      <trkpt lat="41.3961910" lon="-8.7780320">
        <ele>7.3</ele>
        <time>2021-05-17T05:29:24Z</time>
      </trkpt>
      <trkpt lat="41.3962050" lon="-8.7780380">
        <ele>7.3</ele>
        <time>2021-05-17T05:29:25Z</time>
      </trkpt>
      <trkpt lat="41.3962190" lon="-8.7780460">
        <ele>7.3</ele>
        <time>2021-05-17T05:29:26Z</time>
      </trkpt>
      <trkpt lat="41.3962350" lon="-8.7780460">
        <ele>7.3</ele>
        <time>2021-05-17T05:29:27Z</time>
      </trkpt>
      <trkpt lat="41.3962490" lon="-8.7780450">
        <ele>7.3</ele>
        <time>2021-05-17T05:29:28Z</time>
      </trkpt>
      <trkpt lat="41.3962630" lon="-8.7780380">
        <ele>7.3</ele>
        <time>2021-05-17T05:29:29Z</time>
      </trkpt>
      <trkpt lat="41.3962840" lon="-8.7780400">
        <ele>7.3</ele>
        <time>2021-05-17T05:29:30Z</time>
      </trkpt>
      <trkpt lat="41.3963040" lon="-8.7780400">
        <ele>7.3</ele>
        <time>2021-05-17T05:29:31Z</time>
      </trkpt>
      <trkpt lat="41.3963160" lon="-8.7780570">
        <ele>7.3</ele>
        <time>2021-05-17T05:29:32Z</time>
      </trkpt>
      <trkpt lat="41.3963350" lon="-8.7780600">
        <ele>7.3</ele>
        <time>2021-05-17T05:29:33Z</time>
      </trkpt>
      <trkpt lat="41.3963470" lon="-8.7780690">
        <ele>7.3</ele>
        <time>2021-05-17T05:29:34Z</time>
      </trkpt>
      <trkpt lat="41.3963720" lon="-8.7780760">
        <ele>7.3</ele>
        <time>2021-05-17T05:29:35Z</time>
      </trkpt>
      <trkpt lat="41.3963820" lon="-8.7780830">
        <ele>7.3</ele>
        <time>2021-05-17T05:29:36Z</time>
      </trkpt>
      <trkpt lat="41.3964040" lon="-8.7780990">
        <ele>7.3</ele>
        <time>2021-05-17T05:29:37Z</time>
      </trkpt>
      <trkpt lat="41.3964090" lon="-8.7781060">
        <ele>7.3</ele>
        <time>2021-05-17T05:29:38Z</time>
      </trkpt>
      <trkpt lat="41.3964150" lon="-8.7781130">
        <ele>7.3</ele>
        <time>2021-05-17T05:29:39Z</time>
      </trkpt>
      <trkpt lat="41.3964200" lon="-8.7781270">
        <ele>7.3</ele>
        <time>2021-05-17T05:29:40Z</time>
      </trkpt>
      <trkpt lat="41.3964320" lon="-8.7781270">
        <ele>7.2</ele>
        <time>2021-05-17T05:29:41Z</time>
      </trkpt>
      <trkpt lat="41.3964380" lon="-8.7781410">
        <ele>7.2</ele>
        <time>2021-05-17T05:29:42Z</time>
      </trkpt>
      <trkpt lat="41.3964490" lon="-8.7781460">
        <ele>7.2</ele>
        <time>2021-05-17T05:29:43Z</time>
      </trkpt>
      <trkpt lat="41.3964530" lon="-8.7781560">
        <ele>7.2</ele>
        <time>2021-05-17T05:29:44Z</time>
      </trkpt>
      <trkpt lat="41.3964590" lon="-8.7781750">
        <ele>7.2</ele>
        <time>2021-05-17T05:29:45Z</time>
      </trkpt>
      <trkpt lat="41.3964760" lon="-8.7781890">
        <ele>7.2</ele>
        <time>2021-05-17T05:29:46Z</time>
      </trkpt>
      <trkpt lat="41.3964850" lon="-8.7781930">
        <ele>7.2</ele>
        <time>2021-05-17T05:29:47Z</time>
      </trkpt>
      <trkpt lat="41.3964930" lon="-8.7781970">
        <ele>7.2</ele>
        <time>2021-05-17T05:29:48Z</time>
      </trkpt>
      <trkpt lat="41.3965050" lon="-8.7781950">
        <ele>7.2</ele>
        <time>2021-05-17T05:29:49Z</time>
      </trkpt>
      <trkpt lat="41.3965190" lon="-8.7782030">
        <ele>7.2</ele>
        <time>2021-05-17T05:29:50Z</time>
      </trkpt>
      <trkpt lat="41.3965250" lon="-8.7782060">
        <ele>7.2</ele>
        <time>2021-05-17T05:29:51Z</time>
      </trkpt>
      <trkpt lat="41.3965370" lon="-8.7782190">
        <ele>7.2</ele>
        <time>2021-05-17T05:29:52Z</time>
      </trkpt>
      <trkpt lat="41.3965440" lon="-8.7782190">
        <ele>7.2</ele>
        <time>2021-05-17T05:29:53Z</time>
      </trkpt>
      <trkpt lat="41.3965550" lon="-8.7782250">
        <ele>7.2</ele>
        <time>2021-05-17T05:29:54Z</time>
      </trkpt>
      <trkpt lat="41.3965660" lon="-8.7782340">
        <ele>7.2</ele>
        <time>2021-05-17T05:29:55Z</time>
      </trkpt>
      <trkpt lat="41.3965840" lon="-8.7782360">
        <ele>7.2</ele>
        <time>2021-05-17T05:29:56Z</time>
      </trkpt>
      <trkpt lat="41.3965910" lon="-8.7782470">
        <ele>7.2</ele>
        <time>2021-05-17T05:29:57Z</time>
      </trkpt>
      <trkpt lat="41.3966080" lon="-8.7782580">
        <ele>7.2</ele>
        <time>2021-05-17T05:29:58Z</time>
      </trkpt>
      <trkpt lat="41.3966150" lon="-8.7782610">
        <ele>7.2</ele>
        <time>2021-05-17T05:29:59Z</time>
      </trkpt>
      <trkpt lat="41.3966310" lon="-8.7782760">
        <ele>7.2</ele>
        <time>2021-05-17T05:30:00Z</time>
      </trkpt>
      <trkpt lat="41.3966440" lon="-8.7782920">
        <ele>7.2</ele>
        <time>2021-05-17T05:30:01Z</time>
      </trkpt>
      <trkpt lat="41.3966530" lon="-8.7783010">
        <ele>7.2</ele>
        <time>2021-05-17T05:30:02Z</time>
      </trkpt>
      <trkpt lat="41.3966620" lon="-8.7783090">
        <ele>7.2</ele>
        <time>2021-05-17T05:30:03Z</time>
      </trkpt>
      <trkpt lat="41.3966800" lon="-8.7783240">
        <ele>7.2</ele>
        <time>2021-05-17T05:30:04Z</time>
      </trkpt>
      <trkpt lat="41.3966880" lon="-8.7783280">
        <ele>7.2</ele>
        <time>2021-05-17T05:30:05Z</time>
      </trkpt>
      <trkpt lat="41.3966950" lon="-8.7783330">
        <ele>7.2</ele>
        <time>2021-05-17T05:30:06Z</time>
      </trkpt>
      <trkpt lat="41.3966960" lon="-8.7783390">
        <ele>7.2</ele>
        <time>2021-05-17T05:30:07Z</time>
      </trkpt>
      <trkpt lat="41.3967100" lon="-8.7783490">
        <ele>7.2</ele>
        <time>2021-05-17T05:30:08Z</time>
      </trkpt>
      <trkpt lat="41.3967110" lon="-8.7783490">
        <ele>7.3</ele>
        <time>2021-05-17T05:30:09Z</time>
      </trkpt>
      <trkpt lat="41.3967240" lon="-8.7783600">
        <ele>7.3</ele>
        <time>2021-05-17T05:30:10Z</time>
      </trkpt>
      <trkpt lat="41.3967310" lon="-8.7783730">
        <ele>7.4</ele>
        <time>2021-05-17T05:30:11Z</time>
      </trkpt>
      <trkpt lat="41.3967390" lon="-8.7783800">
        <ele>7.2</ele>
        <time>2021-05-17T05:30:12Z</time>
      </trkpt>
      <trkpt lat="41.3967490" lon="-8.7783840">
        <ele>7.4</ele>
        <time>2021-05-17T05:30:13Z</time>
      </trkpt>
      <trkpt lat="41.3967600" lon="-8.7783900">
        <ele>7.4</ele>
        <time>2021-05-17T05:30:14Z</time>
      </trkpt>
      <trkpt lat="41.3967730" lon="-8.7784030">
        <ele>7.5</ele>
        <time>2021-05-17T05:30:15Z</time>
      </trkpt>
      <trkpt lat="41.3967850" lon="-8.7784100">
        <ele>7.6</ele>
        <time>2021-05-17T05:30:16Z</time>
      </trkpt>
      <trkpt lat="41.3968010" lon="-8.7784160">
        <ele>7.6</ele>
        <time>2021-05-17T05:30:17Z</time>
      </trkpt>
      <trkpt lat="41.3968150" lon="-8.7784310">
        <ele>7.5</ele>
        <time>2021-05-17T05:30:18Z</time>
      </trkpt>
      <trkpt lat="41.3968220" lon="-8.7784410">
        <ele>7.6</ele>
        <time>2021-05-17T05:30:19Z</time>
      </trkpt>
      <trkpt lat="41.3968280" lon="-8.7784510">
        <ele>7.6</ele>
        <time>2021-05-17T05:30:20Z</time>
      </trkpt>
      <trkpt lat="41.3968470" lon="-8.7784610">
        <ele>7.7</ele>
        <time>2021-05-17T05:30:21Z</time>
      </trkpt>
      <trkpt lat="41.3968570" lon="-8.7784710">
        <ele>7.5</ele>
        <time>2021-05-17T05:30:22Z</time>
      </trkpt>
      <trkpt lat="41.3968780" lon="-8.7784740">
        <ele>7.6</ele>
        <time>2021-05-17T05:30:23Z</time>
      </trkpt>
      <trkpt lat="41.3968920" lon="-8.7784840">
        <ele>7.7</ele>
        <time>2021-05-17T05:30:24Z</time>
      </trkpt>
      <trkpt lat="41.3969060" lon="-8.7784920">
        <ele>7.7</ele>
        <time>2021-05-17T05:30:25Z</time>
      </trkpt>
      <trkpt lat="41.3969160" lon="-8.7785060">
        <ele>7.6</ele>
        <time>2021-05-17T05:30:26Z</time>
      </trkpt>
      <trkpt lat="41.3969280" lon="-8.7785090">
        <ele>7.6</ele>
        <time>2021-05-17T05:30:27Z</time>
      </trkpt>
      <trkpt lat="41.3969480" lon="-8.7785150">
        <ele>7.7</ele>
        <time>2021-05-17T05:30:28Z</time>
      </trkpt>
      <trkpt lat="41.3969720" lon="-8.7785250">
        <ele>7.7</ele>
        <time>2021-05-17T05:30:29Z</time>
      </trkpt>
      <trkpt lat="41.3969830" lon="-8.7785320">
        <ele>7.8</ele>
        <time>2021-05-17T05:30:30Z</time>
      </trkpt>
      <trkpt lat="41.3969950" lon="-8.7785390">
        <ele>7.8</ele>
        <time>2021-05-17T05:30:31Z</time>
      </trkpt>
      <trkpt lat="41.3970040" lon="-8.7785440">
        <ele>7.9</ele>
        <time>2021-05-17T05:30:32Z</time>
      </trkpt>
      <trkpt lat="41.3970140" lon="-8.7785490">
        <ele>7.7</ele>
        <time>2021-05-17T05:30:33Z</time>
      </trkpt>
      <trkpt lat="41.3970230" lon="-8.7785540">
        <ele>7.7</ele>
        <time>2021-05-17T05:30:34Z</time>
      </trkpt>
      <trkpt lat="41.3970290" lon="-8.7785650">
        <ele>7.8</ele>
        <time>2021-05-17T05:30:35Z</time>
      </trkpt>
      <trkpt lat="41.3970460" lon="-8.7785730">
        <ele>7.8</ele>
        <time>2021-05-17T05:30:36Z</time>
      </trkpt>
      <trkpt lat="41.3970550" lon="-8.7785770">
        <ele>7.9</ele>
        <time>2021-05-17T05:30:37Z</time>
      </trkpt>
      <trkpt lat="41.3970780" lon="-8.7785930">
        <ele>7.6</ele>
        <time>2021-05-17T05:30:38Z</time>
      </trkpt>
      <trkpt lat="41.3970880" lon="-8.7785990">
        <ele>7.7</ele>
        <time>2021-05-17T05:30:39Z</time>
      </trkpt>
      <trkpt lat="41.3970990" lon="-8.7786050">
        <ele>7.7</ele>
        <time>2021-05-17T05:30:40Z</time>
      </trkpt>
      <trkpt lat="41.3971050" lon="-8.7786080">
        <ele>7.8</ele>
        <time>2021-05-17T05:30:41Z</time>
      </trkpt>
      <trkpt lat="41.3971190" lon="-8.7786170">
        <ele>7.8</ele>
        <time>2021-05-17T05:30:42Z</time>
      </trkpt>
      <trkpt lat="41.3971300" lon="-8.7786260">
        <ele>7.8</ele>
        <time>2021-05-17T05:30:43Z</time>
      </trkpt>
      <trkpt lat="41.3971520" lon="-8.7786430">
        <ele>7.6</ele>
        <time>2021-05-17T05:30:44Z</time>
      </trkpt>
      <trkpt lat="41.3971610" lon="-8.7786480">
        <ele>7.7</ele>
        <time>2021-05-17T05:30:45Z</time>
      </trkpt>
      <trkpt lat="41.3971700" lon="-8.7786540">
        <ele>7.7</ele>
        <time>2021-05-17T05:30:46Z</time>
      </trkpt>
      <trkpt lat="41.3971790" lon="-8.7786610">
        <ele>7.8</ele>
        <time>2021-05-17T05:30:47Z</time>
      </trkpt>
      <trkpt lat="41.3971960" lon="-8.7786810">
        <ele>7.5</ele>
        <time>2021-05-17T05:30:48Z</time>
      </trkpt>
      <trkpt lat="41.3972150" lon="-8.7786870">
        <ele>7.6</ele>
        <time>2021-05-17T05:30:49Z</time>
      </trkpt>
      <trkpt lat="41.3972250" lon="-8.7786920">
        <ele>7.6</ele>
        <time>2021-05-17T05:30:50Z</time>
      </trkpt>
      <trkpt lat="41.3972350" lon="-8.7786980">
        <ele>7.7</ele>
        <time>2021-05-17T05:30:51Z</time>
      </trkpt>
      <trkpt lat="41.3972490" lon="-8.7787080">
        <ele>7.7</ele>
        <time>2021-05-17T05:30:52Z</time>
      </trkpt>
      <trkpt lat="41.3972610" lon="-8.7787160">
        <ele>7.8</ele>
        <time>2021-05-17T05:30:53Z</time>
      </trkpt>
      <trkpt lat="41.3972670" lon="-8.7787170">
        <ele>7.8</ele>
        <time>2021-05-17T05:30:54Z</time>
      </trkpt>
      <trkpt lat="41.3972820" lon="-8.7787260">
        <ele>7.6</ele>
        <time>2021-05-17T05:30:55Z</time>
      </trkpt>
      <trkpt lat="41.3972910" lon="-8.7787360">
        <ele>7.6</ele>
        <time>2021-05-17T05:30:56Z</time>
      </trkpt>
      <trkpt lat="41.3973130" lon="-8.7787420">
        <ele>7.7</ele>
        <time>2021-05-17T05:30:57Z</time>
      </trkpt>
      <trkpt lat="41.3973210" lon="-8.7787400">
        <ele>7.7</ele>
        <time>2021-05-17T05:30:58Z</time>
      </trkpt>
      <trkpt lat="41.3973420" lon="-8.7787430">
        <ele>7.8</ele>
        <time>2021-05-17T05:30:59Z</time>
      </trkpt>
      <trkpt lat="41.3973520" lon="-8.7787430">
        <ele>7.8</ele>
        <time>2021-05-17T05:31:00Z</time>
      </trkpt>
      <trkpt lat="41.3973610" lon="-8.7787430">
        <ele>7.8</ele>
        <time>2021-05-17T05:31:01Z</time>
      </trkpt>
      <trkpt lat="41.3973770" lon="-8.7787450">
        <ele>7.8</ele>
        <time>2021-05-17T05:31:02Z</time>
      </trkpt>
      <trkpt lat="41.3973900" lon="-8.7787440">
        <ele>7.8</ele>
        <time>2021-05-17T05:31:03Z</time>
      </trkpt>
      <trkpt lat="41.3974150" lon="-8.7787470">
        <ele>7.8</ele>
        <time>2021-05-17T05:31:04Z</time>
      </trkpt>
      <trkpt lat="41.3974220" lon="-8.7787460">
        <ele>7.8</ele>
        <time>2021-05-17T05:31:05Z</time>
      </trkpt>
      <trkpt lat="41.3974300" lon="-8.7787450">
        <ele>7.8</ele>
        <time>2021-05-17T05:31:06Z</time>
      </trkpt>
      <trkpt lat="41.3974440" lon="-8.7787470">
        <ele>7.8</ele>
        <time>2021-05-17T05:31:07Z</time>
      </trkpt>
      <trkpt lat="41.3974540" lon="-8.7787450">
        <ele>7.8</ele>
        <time>2021-05-17T05:31:08Z</time>
      </trkpt>
      <trkpt lat="41.3974650" lon="-8.7787410">
        <ele>7.8</ele>
        <time>2021-05-17T05:31:09Z</time>
      </trkpt>
      <trkpt lat="41.3974790" lon="-8.7787440">
        <ele>7.8</ele>
        <time>2021-05-17T05:31:10Z</time>
      </trkpt>
      <trkpt lat="41.3974930" lon="-8.7787380">
        <ele>7.8</ele>
        <time>2021-05-17T05:31:11Z</time>
      </trkpt>
      <trkpt lat="41.3975130" lon="-8.7787320">
        <ele>7.8</ele>
        <time>2021-05-17T05:31:12Z</time>
      </trkpt>
      <trkpt lat="41.3975230" lon="-8.7787280">
        <ele>7.8</ele>
        <time>2021-05-17T05:31:13Z</time>
      </trkpt>
      <trkpt lat="41.3975320" lon="-8.7787250">
        <ele>7.8</ele>
        <time>2021-05-17T05:31:14Z</time>
      </trkpt>
      <trkpt lat="41.3975440" lon="-8.7787190">
        <ele>7.8</ele>
        <time>2021-05-17T05:31:15Z</time>
      </trkpt>
      <trkpt lat="41.3975570" lon="-8.7787090">
        <ele>7.8</ele>
        <time>2021-05-17T05:31:16Z</time>
      </trkpt>
      <trkpt lat="41.3975710" lon="-8.7787000">
        <ele>7.8</ele>
        <time>2021-05-17T05:31:17Z</time>
      </trkpt>
      <trkpt lat="41.3975800" lon="-8.7786940">
        <ele>7.7</ele>
        <time>2021-05-17T05:31:18Z</time>
      </trkpt>
      <trkpt lat="41.3975890" lon="-8.7786880">
        <ele>7.7</ele>
        <time>2021-05-17T05:31:19Z</time>
      </trkpt>
      <trkpt lat="41.3976030" lon="-8.7786780">
        <ele>7.7</ele>
        <time>2021-05-17T05:31:20Z</time>
      </trkpt>
      <trkpt lat="41.3976170" lon="-8.7786660">
        <ele>7.7</ele>
        <time>2021-05-17T05:31:21Z</time>
      </trkpt>
      <trkpt lat="41.3976350" lon="-8.7786600">
        <ele>7.7</ele>
        <time>2021-05-17T05:31:22Z</time>
      </trkpt>
      <trkpt lat="41.3976440" lon="-8.7786560">
        <ele>7.7</ele>
        <time>2021-05-17T05:31:23Z</time>
      </trkpt>
      <trkpt lat="41.3976530" lon="-8.7786520">
        <ele>7.7</ele>
        <time>2021-05-17T05:31:24Z</time>
      </trkpt>
      <trkpt lat="41.3976680" lon="-8.7786470">
        <ele>7.7</ele>
        <time>2021-05-17T05:31:25Z</time>
      </trkpt>
      <trkpt lat="41.3976800" lon="-8.7786390">
        <ele>7.7</ele>
        <time>2021-05-17T05:31:26Z</time>
      </trkpt>
      <trkpt lat="41.3977020" lon="-8.7786220">
        <ele>7.7</ele>
        <time>2021-05-17T05:31:27Z</time>
      </trkpt>
      <trkpt lat="41.3977120" lon="-8.7786160">
        <ele>7.6</ele>
        <time>2021-05-17T05:31:28Z</time>
      </trkpt>
      <trkpt lat="41.3977230" lon="-8.7786100">
        <ele>7.6</ele>
        <time>2021-05-17T05:31:29Z</time>
      </trkpt>
      <trkpt lat="41.3977270" lon="-8.7786050">
        <ele>7.6</ele>
        <time>2021-05-17T05:31:30Z</time>
      </trkpt>
      <trkpt lat="41.3977400" lon="-8.7785950">
        <ele>7.6</ele>
        <time>2021-05-17T05:31:31Z</time>
      </trkpt>
      <trkpt lat="41.3977540" lon="-8.7785860">
        <ele>7.6</ele>
        <time>2021-05-17T05:31:32Z</time>
      </trkpt>
      <trkpt lat="41.3977770" lon="-8.7785720">
        <ele>7.6</ele>
        <time>2021-05-17T05:31:33Z</time>
      </trkpt>
      <trkpt lat="41.3977850" lon="-8.7785690">
        <ele>7.6</ele>
        <time>2021-05-17T05:31:34Z</time>
      </trkpt>
      <trkpt lat="41.3977920" lon="-8.7785650">
        <ele>7.6</ele>
        <time>2021-05-17T05:31:35Z</time>
      </trkpt>
      <trkpt lat="41.3977990" lon="-8.7785600">
        <ele>7.6</ele>
        <time>2021-05-17T05:31:36Z</time>
      </trkpt>
      <trkpt lat="41.3978110" lon="-8.7785520">
        <ele>7.6</ele>
        <time>2021-05-17T05:31:37Z</time>
      </trkpt>
      <trkpt lat="41.3978200" lon="-8.7785410">
        <ele>7.5</ele>
        <time>2021-05-17T05:31:38Z</time>
      </trkpt>
      <trkpt lat="41.3978320" lon="-8.7785350">
        <ele>7.5</ele>
        <time>2021-05-17T05:31:39Z</time>
      </trkpt>
      <trkpt lat="41.3978480" lon="-8.7785240">
        <ele>7.5</ele>
        <time>2021-05-17T05:31:40Z</time>
      </trkpt>
      <trkpt lat="41.3978540" lon="-8.7785160">
        <ele>7.5</ele>
        <time>2021-05-17T05:31:41Z</time>
      </trkpt>
      <trkpt lat="41.3978630" lon="-8.7785080">
        <ele>7.4</ele>
        <time>2021-05-17T05:31:42Z</time>
      </trkpt>
      <trkpt lat="41.3978760" lon="-8.7785020">
        <ele>7.4</ele>
        <time>2021-05-17T05:31:43Z</time>
      </trkpt>
      <trkpt lat="41.3978850" lon="-8.7784910">
        <ele>7.4</ele>
        <time>2021-05-17T05:31:44Z</time>
      </trkpt>
      <trkpt lat="41.3978980" lon="-8.7784780">
        <ele>7.3</ele>
        <time>2021-05-17T05:31:45Z</time>
      </trkpt>
      <trkpt lat="41.3979120" lon="-8.7784710">
        <ele>7.3</ele>
        <time>2021-05-17T05:31:46Z</time>
      </trkpt>
      <trkpt lat="41.3979240" lon="-8.7784600">
        <ele>7.3</ele>
        <time>2021-05-17T05:31:47Z</time>
      </trkpt>
      <trkpt lat="41.3979420" lon="-8.7784550">
        <ele>7.2</ele>
        <time>2021-05-17T05:31:48Z</time>
      </trkpt>
      <trkpt lat="41.3979500" lon="-8.7784470">
        <ele>7.2</ele>
        <time>2021-05-17T05:31:49Z</time>
      </trkpt>
      <trkpt lat="41.3979630" lon="-8.7784370">
        <ele>7.2</ele>
        <time>2021-05-17T05:31:50Z</time>
      </trkpt>
      <trkpt lat="41.3979770" lon="-8.7784350">
        <ele>7.1</ele>
        <time>2021-05-17T05:31:51Z</time>
      </trkpt>
      <trkpt lat="41.3979880" lon="-8.7784320">
        <ele>7.1</ele>
        <time>2021-05-17T05:31:52Z</time>
      </trkpt>
      <trkpt lat="41.3980080" lon="-8.7784220">
        <ele>7.0</ele>
        <time>2021-05-17T05:31:53Z</time>
      </trkpt>
      <trkpt lat="41.3980240" lon="-8.7784110">
        <ele>7.0</ele>
        <time>2021-05-17T05:31:54Z</time>
      </trkpt>
      <trkpt lat="41.3980330" lon="-8.7784060">
        <ele>7.0</ele>
        <time>2021-05-17T05:31:55Z</time>
      </trkpt>
      <trkpt lat="41.3980420" lon="-8.7784000">
        <ele>6.9</ele>
        <time>2021-05-17T05:31:56Z</time>
      </trkpt>
      <trkpt lat="41.3980630" lon="-8.7783890">
        <ele>6.9</ele>
        <time>2021-05-17T05:31:57Z</time>
      </trkpt>
      <trkpt lat="41.3980720" lon="-8.7783840">
        <ele>6.9</ele>
        <time>2021-05-17T05:31:58Z</time>
      </trkpt>
      <trkpt lat="41.3980820" lon="-8.7783790">
        <ele>6.8</ele>
        <time>2021-05-17T05:31:59Z</time>
      </trkpt>
      <trkpt lat="41.3980960" lon="-8.7783770">
        <ele>6.8</ele>
        <time>2021-05-17T05:32:00Z</time>
      </trkpt>
      <trkpt lat="41.3981100" lon="-8.7783650">
        <ele>6.7</ele>
        <time>2021-05-17T05:32:01Z</time>
      </trkpt>
      <trkpt lat="41.3981230" lon="-8.7783600">
        <ele>6.7</ele>
        <time>2021-05-17T05:32:02Z</time>
      </trkpt>
      <trkpt lat="41.3981360" lon="-8.7783500">
        <ele>6.7</ele>
        <time>2021-05-17T05:32:03Z</time>
      </trkpt>
      <trkpt lat="41.3981510" lon="-8.7783380">
        <ele>6.6</ele>
        <time>2021-05-17T05:32:04Z</time>
      </trkpt>
      <trkpt lat="41.3981640" lon="-8.7783310">
        <ele>6.6</ele>
        <time>2021-05-17T05:32:05Z</time>
      </trkpt>
      <trkpt lat="41.3981800" lon="-8.7783160">
        <ele>6.5</ele>
        <time>2021-05-17T05:32:06Z</time>
      </trkpt>
      <trkpt lat="41.3981880" lon="-8.7783120">
        <ele>6.5</ele>
        <time>2021-05-17T05:32:07Z</time>
      </trkpt>
      <trkpt lat="41.3981970" lon="-8.7783070">
        <ele>6.5</ele>
        <time>2021-05-17T05:32:08Z</time>
      </trkpt>
      <trkpt lat="41.3982150" lon="-8.7782980">
        <ele>6.4</ele>
        <time>2021-05-17T05:32:09Z</time>
      </trkpt>
      <trkpt lat="41.3982250" lon="-8.7782940">
        <ele>6.4</ele>
        <time>2021-05-17T05:32:10Z</time>
      </trkpt>
      <trkpt lat="41.3982360" lon="-8.7782910">
        <ele>6.4</ele>
        <time>2021-05-17T05:32:11Z</time>
      </trkpt>
      <trkpt lat="41.3982500" lon="-8.7782850">
        <ele>6.3</ele>
        <time>2021-05-17T05:32:12Z</time>
      </trkpt>
      <trkpt lat="41.3982570" lon="-8.7782790">
        <ele>6.3</ele>
        <time>2021-05-17T05:32:13Z</time>
      </trkpt>
      <trkpt lat="41.3982700" lon="-8.7782720">
        <ele>6.3</ele>
        <time>2021-05-17T05:32:14Z</time>
      </trkpt>
      <trkpt lat="41.3982970" lon="-8.7782570">
        <ele>6.2</ele>
        <time>2021-05-17T05:32:15Z</time>
      </trkpt>
      <trkpt lat="41.3983070" lon="-8.7782520">
        <ele>6.2</ele>
        <time>2021-05-17T05:32:16Z</time>
      </trkpt>
      <trkpt lat="41.3983220" lon="-8.7782430">
        <ele>6.1</ele>
        <time>2021-05-17T05:32:17Z</time>
      </trkpt>
      <trkpt lat="41.3983360" lon="-8.7782350">
        <ele>6.1</ele>
        <time>2021-05-17T05:32:18Z</time>
      </trkpt>
      <trkpt lat="41.3983500" lon="-8.7782270">
        <ele>6.1</ele>
        <time>2021-05-17T05:32:19Z</time>
      </trkpt>
      <trkpt lat="41.3983650" lon="-8.7782210">
        <ele>6.0</ele>
        <time>2021-05-17T05:32:20Z</time>
      </trkpt>
      <trkpt lat="41.3983800" lon="-8.7782080">
        <ele>6.0</ele>
        <time>2021-05-17T05:32:21Z</time>
      </trkpt>
      <trkpt lat="41.3983950" lon="-8.7782010">
        <ele>5.9</ele>
        <time>2021-05-17T05:32:22Z</time>
      </trkpt>
      <trkpt lat="41.3984070" lon="-8.7781910">
        <ele>5.9</ele>
        <time>2021-05-17T05:32:23Z</time>
      </trkpt>
      <trkpt lat="41.3984220" lon="-8.7781810">
        <ele>5.9</ele>
        <time>2021-05-17T05:32:24Z</time>
      </trkpt>
      <trkpt lat="41.3984340" lon="-8.7781710">
        <ele>5.9</ele>
        <time>2021-05-17T05:32:25Z</time>
      </trkpt>
      <trkpt lat="41.3984490" lon="-8.7781610">
        <ele>5.8</ele>
        <time>2021-05-17T05:32:26Z</time>
      </trkpt>
      <trkpt lat="41.3984640" lon="-8.7781580">
        <ele>5.8</ele>
        <time>2021-05-17T05:32:27Z</time>
      </trkpt>
      <trkpt lat="41.3984780" lon="-8.7781510">
        <ele>5.8</ele>
        <time>2021-05-17T05:32:28Z</time>
      </trkpt>
      <trkpt lat="41.3984930" lon="-8.7781440">
        <ele>5.7</ele>
        <time>2021-05-17T05:32:29Z</time>
      </trkpt>
      <trkpt lat="41.3985070" lon="-8.7781350">
        <ele>5.7</ele>
        <time>2021-05-17T05:32:30Z</time>
      </trkpt>
      <trkpt lat="41.3985230" lon="-8.7781270">
        <ele>5.7</ele>
        <time>2021-05-17T05:32:31Z</time>
      </trkpt>
      <trkpt lat="41.3985370" lon="-8.7781210">
        <ele>5.7</ele>
        <time>2021-05-17T05:32:32Z</time>
      </trkpt>
      <trkpt lat="41.3985520" lon="-8.7781180">
        <ele>5.6</ele>
        <time>2021-05-17T05:32:33Z</time>
      </trkpt>
      <trkpt lat="41.3985670" lon="-8.7781130">
        <ele>5.6</ele>
        <time>2021-05-17T05:32:34Z</time>
      </trkpt>
      <trkpt lat="41.3985830" lon="-8.7781120">
        <ele>5.6</ele>
        <time>2021-05-17T05:32:35Z</time>
      </trkpt>
      <trkpt lat="41.3985960" lon="-8.7781030">
        <ele>5.6</ele>
        <time>2021-05-17T05:32:36Z</time>
      </trkpt>
      <trkpt lat="41.3986110" lon="-8.7781000">
        <ele>5.5</ele>
        <time>2021-05-17T05:32:37Z</time>
      </trkpt>
      <trkpt lat="41.3986250" lon="-8.7780950">
        <ele>5.5</ele>
        <time>2021-05-17T05:32:38Z</time>
      </trkpt>
      <trkpt lat="41.3986390" lon="-8.7780840">
        <ele>5.5</ele>
        <time>2021-05-17T05:32:39Z</time>
      </trkpt>
      <trkpt lat="41.3986550" lon="-8.7780820">
        <ele>5.4</ele>
        <time>2021-05-17T05:32:40Z</time>
      </trkpt>
      <trkpt lat="41.3986710" lon="-8.7780780">
        <ele>5.4</ele>
        <time>2021-05-17T05:32:41Z</time>
      </trkpt>
      <trkpt lat="41.3986880" lon="-8.7780730">
        <ele>5.4</ele>
        <time>2021-05-17T05:32:42Z</time>
      </trkpt>
      <trkpt lat="41.3987110" lon="-8.7780720">
        <ele>5.4</ele>
        <time>2021-05-17T05:32:43Z</time>
      </trkpt>
      <trkpt lat="41.3987190" lon="-8.7780680">
        <ele>5.3</ele>
        <time>2021-05-17T05:32:44Z</time>
      </trkpt>
      <trkpt lat="41.3987280" lon="-8.7780640">
        <ele>5.3</ele>
        <time>2021-05-17T05:32:45Z</time>
      </trkpt>
      <trkpt lat="41.3987420" lon="-8.7780530">
        <ele>5.3</ele>
        <time>2021-05-17T05:32:46Z</time>
      </trkpt>
      <trkpt lat="41.3987550" lon="-8.7780480">
        <ele>5.3</ele>
        <time>2021-05-17T05:32:47Z</time>
      </trkpt>
      <trkpt lat="41.3987670" lon="-8.7780380">
        <ele>5.3</ele>
        <time>2021-05-17T05:32:48Z</time>
      </trkpt>
      <trkpt lat="41.3987810" lon="-8.7780330">
        <ele>5.3</ele>
        <time>2021-05-17T05:32:49Z</time>
      </trkpt>
      <trkpt lat="41.3987940" lon="-8.7780220">
        <ele>5.2</ele>
        <time>2021-05-17T05:32:50Z</time>
      </trkpt>
      <trkpt lat="41.3988050" lon="-8.7780110">
        <ele>5.2</ele>
        <time>2021-05-17T05:32:51Z</time>
      </trkpt>
      <trkpt lat="41.3988110" lon="-8.7779990">
        <ele>5.2</ele>
        <time>2021-05-17T05:32:52Z</time>
      </trkpt>
      <trkpt lat="41.3988140" lon="-8.7779930">
        <ele>5.2</ele>
        <time>2021-05-17T05:32:53Z</time>
      </trkpt>
      <trkpt lat="41.3988110" lon="-8.7779950">
        <ele>5.2</ele>
        <time>2021-05-17T05:32:54Z</time>
      </trkpt>
      <trkpt lat="41.3988070" lon="-8.7779910">
        <ele>5.2</ele>
        <time>2021-05-17T05:32:55Z</time>
      </trkpt>
      <trkpt lat="41.3987980" lon="-8.7779840">
        <ele>5.2</ele>
        <time>2021-05-17T05:32:56Z</time>
      </trkpt>
      <trkpt lat="41.3987890" lon="-8.7779850">
        <ele>5.2</ele>
        <time>2021-05-17T05:32:57Z</time>
      </trkpt>
      <trkpt lat="41.3987830" lon="-8.7779830">
        <ele>5.2</ele>
        <time>2021-05-17T05:32:58Z</time>
      </trkpt>
      <trkpt lat="41.3987810" lon="-8.7779850">
        <ele>5.2</ele>
        <time>2021-05-17T05:32:59Z</time>
      </trkpt>
      <trkpt lat="41.3987820" lon="-8.7779840">
        <ele>5.2</ele>
        <time>2021-05-17T05:33:00Z</time>
      </trkpt>
      <trkpt lat="41.3987830" lon="-8.7779820">
        <ele>5.2</ele>
        <time>2021-05-17T05:33:01Z</time>
      </trkpt>
      <trkpt lat="41.3987840" lon="-8.7779810">
        <ele>5.2</ele>
        <time>2021-05-17T05:33:02Z</time>
      </trkpt>
      <trkpt lat="41.3987850" lon="-8.7779790">
        <ele>5.2</ele>
        <time>2021-05-17T05:33:03Z</time>
      </trkpt>
      <trkpt lat="41.3987860" lon="-8.7779770">
        <ele>5.2</ele>
        <time>2021-05-17T05:33:04Z</time>
      </trkpt>
      <trkpt lat="41.3987870" lon="-8.7779760">
        <ele>5.2</ele>
        <time>2021-05-17T05:33:05Z</time>
      </trkpt>
      <trkpt lat="41.3987880" lon="-8.7779740">
        <ele>5.2</ele>
        <time>2021-05-17T05:33:06Z</time>
      </trkpt>
      <trkpt lat="41.3987890" lon="-8.7779730">
        <ele>5.2</ele>
        <time>2021-05-17T05:33:07Z</time>
      </trkpt>
      <trkpt lat="41.3987900" lon="-8.7779710">
        <ele>5.2</ele>
        <time>2021-05-17T05:33:08Z</time>
      </trkpt>
      <trkpt lat="41.3987910" lon="-8.7779690">
        <ele>5.2</ele>
        <time>2021-05-17T05:33:09Z</time>
      </trkpt>
      <trkpt lat="41.3987920" lon="-8.7779680">
        <ele>5.2</ele>
        <time>2021-05-17T05:33:10Z</time>
      </trkpt>
      <trkpt lat="41.3987930" lon="-8.7779660">
        <ele>5.2</ele>
        <time>2021-05-17T05:33:11Z</time>
      </trkpt>
      <trkpt lat="41.3987940" lon="-8.7779650">
        <ele>5.2</ele>
        <time>2021-05-17T05:33:12Z</time>
      </trkpt>
      <trkpt lat="41.3987950" lon="-8.7779630">
        <ele>5.2</ele>
        <time>2021-05-17T05:33:13Z</time>
      </trkpt>
      <trkpt lat="41.3987960" lon="-8.7779620">
        <ele>5.1</ele>
        <time>2021-05-17T05:33:14Z</time>
      </trkpt>
      <trkpt lat="41.3987970" lon="-8.7779600">
        <ele>5.1</ele>
        <time>2021-05-17T05:33:15Z</time>
      </trkpt>
      <trkpt lat="41.3987980" lon="-8.7779580">
        <ele>5.1</ele>
        <time>2021-05-17T05:33:16Z</time>
      </trkpt>
      <trkpt lat="41.3987990" lon="-8.7779570">
        <ele>5.1</ele>
        <time>2021-05-17T05:33:17Z</time>
      </trkpt>
      <trkpt lat="41.3988000" lon="-8.7779550">
        <ele>5.1</ele>
        <time>2021-05-17T05:33:18Z</time>
      </trkpt>
      <trkpt lat="41.3988010" lon="-8.7779540">
        <ele>5.1</ele>
        <time>2021-05-17T05:33:19Z</time>
      </trkpt>
      <trkpt lat="41.3988020" lon="-8.7779520">
        <ele>5.1</ele>
        <time>2021-05-17T05:33:20Z</time>
      </trkpt>
      <trkpt lat="41.3988030" lon="-8.7779500">
        <ele>5.1</ele>
        <time>2021-05-17T05:33:21Z</time>
      </trkpt>
      <trkpt lat="41.3988040" lon="-8.7779490">
        <ele>5.1</ele>
        <time>2021-05-17T05:33:22Z</time>
      </trkpt>
      <trkpt lat="41.3988050" lon="-8.7779470">
        <ele>5.1</ele>
        <time>2021-05-17T05:33:23Z</time>
      </trkpt>
      <trkpt lat="41.3988060" lon="-8.7779460">
        <ele>5.1</ele>
        <time>2021-05-17T05:33:24Z</time>
      </trkpt>
      <trkpt lat="41.3988070" lon="-8.7779440">
        <ele>5.1</ele>
        <time>2021-05-17T05:33:25Z</time>
      </trkpt>
      <trkpt lat="41.3988210" lon="-8.7779300">
        <ele>5.1</ele>
        <time>2021-05-17T05:33:26Z</time>
      </trkpt>
      <trkpt lat="41.3988310" lon="-8.7779150">
        <ele>5.1</ele>
        <time>2021-05-17T05:33:27Z</time>
      </trkpt>
      <trkpt lat="41.3988460" lon="-8.7778960">
        <ele>5.1</ele>
        <time>2021-05-17T05:33:28Z</time>
      </trkpt>
      <trkpt lat="41.3988530" lon="-8.7778870">
        <ele>5.1</ele>
        <time>2021-05-17T05:33:29Z</time>
      </trkpt>
      <trkpt lat="41.3988600" lon="-8.7778790">
        <ele>5.1</ele>
        <time>2021-05-17T05:33:30Z</time>
      </trkpt>
      <trkpt lat="41.3988780" lon="-8.7778600">
        <ele>5.1</ele>
        <time>2021-05-17T05:33:31Z</time>
      </trkpt>
      <trkpt lat="41.3988850" lon="-8.7778550">
        <ele>5.1</ele>
        <time>2021-05-17T05:33:32Z</time>
      </trkpt>
      <trkpt lat="41.3988930" lon="-8.7778500">
        <ele>5.1</ele>
        <time>2021-05-17T05:33:33Z</time>
      </trkpt>
      <trkpt lat="41.3989080" lon="-8.7778280">
        <ele>5.1</ele>
        <time>2021-05-17T05:33:34Z</time>
      </trkpt>
      <trkpt lat="41.3989130" lon="-8.7778130">
        <ele>5.1</ele>
        <time>2021-05-17T05:33:35Z</time>
      </trkpt>
      <trkpt lat="41.3989310" lon="-8.7778030">
        <ele>5.1</ele>
        <time>2021-05-17T05:33:36Z</time>
      </trkpt>
      <trkpt lat="41.3989390" lon="-8.7777890">
        <ele>5.0</ele>
        <time>2021-05-17T05:33:37Z</time>
      </trkpt>
      <trkpt lat="41.3989570" lon="-8.7777770">
        <ele>5.0</ele>
        <time>2021-05-17T05:33:38Z</time>
      </trkpt>
      <trkpt lat="41.3989710" lon="-8.7777720">
        <ele>5.0</ele>
        <time>2021-05-17T05:33:39Z</time>
      </trkpt>
      <trkpt lat="41.3989870" lon="-8.7777750">
        <ele>5.0</ele>
        <time>2021-05-17T05:33:40Z</time>
      </trkpt>
      <trkpt lat="41.3990030" lon="-8.7777710">
        <ele>5.0</ele>
        <time>2021-05-17T05:33:41Z</time>
      </trkpt>
      <trkpt lat="41.3990200" lon="-8.7777640">
        <ele>4.9</ele>
        <time>2021-05-17T05:33:42Z</time>
      </trkpt>
      <trkpt lat="41.3990370" lon="-8.7777620">
        <ele>4.9</ele>
        <time>2021-05-17T05:33:43Z</time>
      </trkpt>
      <trkpt lat="41.3990540" lon="-8.7777580">
        <ele>4.9</ele>
        <time>2021-05-17T05:33:44Z</time>
      </trkpt>
      <trkpt lat="41.3990710" lon="-8.7777570">
        <ele>4.9</ele>
        <time>2021-05-17T05:33:45Z</time>
      </trkpt>
      <trkpt lat="41.3990850" lon="-8.7777490">
        <ele>4.8</ele>
        <time>2021-05-17T05:33:46Z</time>
      </trkpt>
      <trkpt lat="41.3991000" lon="-8.7777420">
        <ele>4.8</ele>
        <time>2021-05-17T05:33:47Z</time>
      </trkpt>
      <trkpt lat="41.3991160" lon="-8.7777390">
        <ele>4.8</ele>
        <time>2021-05-17T05:33:48Z</time>
      </trkpt>
      <trkpt lat="41.3991340" lon="-8.7777470">
        <ele>4.7</ele>
        <time>2021-05-17T05:33:49Z</time>
      </trkpt>
      <trkpt lat="41.3991500" lon="-8.7777410">
        <ele>4.7</ele>
        <time>2021-05-17T05:33:50Z</time>
      </trkpt>
      <trkpt lat="41.3991660" lon="-8.7777330">
        <ele>4.7</ele>
        <time>2021-05-17T05:33:51Z</time>
      </trkpt>
      <trkpt lat="41.3991880" lon="-8.7777360">
        <ele>4.6</ele>
        <time>2021-05-17T05:33:52Z</time>
      </trkpt>
      <trkpt lat="41.3991960" lon="-8.7777410">
        <ele>4.6</ele>
        <time>2021-05-17T05:33:53Z</time>
      </trkpt>
      <trkpt lat="41.3992040" lon="-8.7777460">
        <ele>4.6</ele>
        <time>2021-05-17T05:33:54Z</time>
      </trkpt>
      <trkpt lat="41.3992140" lon="-8.7777680">
        <ele>4.6</ele>
        <time>2021-05-17T05:33:55Z</time>
      </trkpt>
      <trkpt lat="41.3992280" lon="-8.7777800">
        <ele>4.5</ele>
        <time>2021-05-17T05:33:56Z</time>
      </trkpt>
      <trkpt lat="41.3992380" lon="-8.7777930">
        <ele>4.5</ele>
        <time>2021-05-17T05:33:57Z</time>
      </trkpt>
      <trkpt lat="41.3992490" lon="-8.7778090">
        <ele>4.5</ele>
        <time>2021-05-17T05:33:58Z</time>
      </trkpt>
      <trkpt lat="41.3992620" lon="-8.7778250">
        <ele>4.5</ele>
        <time>2021-05-17T05:33:59Z</time>
      </trkpt>
      <trkpt lat="41.3992740" lon="-8.7778330">
        <ele>4.5</ele>
        <time>2021-05-17T05:34:00Z</time>
      </trkpt>
      <trkpt lat="41.3992890" lon="-8.7778440">
        <ele>4.4</ele>
        <time>2021-05-17T05:34:01Z</time>
      </trkpt>
      <trkpt lat="41.3993020" lon="-8.7778500">
        <ele>4.4</ele>
        <time>2021-05-17T05:34:02Z</time>
      </trkpt>
      <trkpt lat="41.3993180" lon="-8.7778640">
        <ele>4.4</ele>
        <time>2021-05-17T05:34:03Z</time>
      </trkpt>
      <trkpt lat="41.3993320" lon="-8.7778670">
        <ele>4.4</ele>
        <time>2021-05-17T05:34:04Z</time>
      </trkpt>
      <trkpt lat="41.3993460" lon="-8.7778770">
        <ele>4.4</ele>
        <time>2021-05-17T05:34:05Z</time>
      </trkpt>
      <trkpt lat="41.3993610" lon="-8.7778870">
        <ele>4.4</ele>
        <time>2021-05-17T05:34:06Z</time>
      </trkpt>
      <trkpt lat="41.3993760" lon="-8.7778980">
        <ele>4.4</ele>
        <time>2021-05-17T05:34:07Z</time>
      </trkpt>
      <trkpt lat="41.3993880" lon="-8.7779110">
        <ele>4.3</ele>
        <time>2021-05-17T05:34:08Z</time>
      </trkpt>
      <trkpt lat="41.3994040" lon="-8.7779140">
        <ele>4.4</ele>
        <time>2021-05-17T05:34:09Z</time>
      </trkpt>
      <trkpt lat="41.3994200" lon="-8.7779200">
        <ele>4.4</ele>
        <time>2021-05-17T05:34:10Z</time>
      </trkpt>
      <trkpt lat="41.3994350" lon="-8.7779270">
        <ele>4.4</ele>
        <time>2021-05-17T05:34:11Z</time>
      </trkpt>
      <trkpt lat="41.3994500" lon="-8.7779300">
        <ele>4.4</ele>
        <time>2021-05-17T05:34:12Z</time>
      </trkpt>
      <trkpt lat="41.3994660" lon="-8.7779370">
        <ele>4.4</ele>
        <time>2021-05-17T05:34:13Z</time>
      </trkpt>
      <trkpt lat="41.3994790" lon="-8.7779440">
        <ele>4.4</ele>
        <time>2021-05-17T05:34:14Z</time>
      </trkpt>
      <trkpt lat="41.3994940" lon="-8.7779530">
        <ele>4.5</ele>
        <time>2021-05-17T05:34:15Z</time>
      </trkpt>
      <trkpt lat="41.3995100" lon="-8.7779490">
        <ele>4.5</ele>
        <time>2021-05-17T05:34:16Z</time>
      </trkpt>
      <trkpt lat="41.3995250" lon="-8.7779570">
        <ele>4.5</ele>
        <time>2021-05-17T05:34:17Z</time>
      </trkpt>
      <trkpt lat="41.3995400" lon="-8.7779580">
        <ele>4.5</ele>
        <time>2021-05-17T05:34:18Z</time>
      </trkpt>
      <trkpt lat="41.3995600" lon="-8.7779610">
        <ele>4.6</ele>
        <time>2021-05-17T05:34:19Z</time>
      </trkpt>
      <trkpt lat="41.3995700" lon="-8.7779610">
        <ele>4.6</ele>
        <time>2021-05-17T05:34:20Z</time>
      </trkpt>
      <trkpt lat="41.3995790" lon="-8.7779600">
        <ele>4.6</ele>
        <time>2021-05-17T05:34:21Z</time>
      </trkpt>
      <trkpt lat="41.3995930" lon="-8.7779630">
        <ele>4.6</ele>
        <time>2021-05-17T05:34:22Z</time>
      </trkpt>
      <trkpt lat="41.3995990" lon="-8.7779620">
        <ele>4.6</ele>
        <time>2021-05-17T05:34:23Z</time>
      </trkpt>
      <trkpt lat="41.3996100" lon="-8.7779620">
        <ele>4.6</ele>
        <time>2021-05-17T05:34:24Z</time>
      </trkpt>
      <trkpt lat="41.3996230" lon="-8.7779650">
        <ele>4.7</ele>
        <time>2021-05-17T05:34:25Z</time>
      </trkpt>
      <trkpt lat="41.3996360" lon="-8.7779650">
        <ele>4.7</ele>
        <time>2021-05-17T05:34:26Z</time>
      </trkpt>
      <trkpt lat="41.3996380" lon="-8.7779580">
        <ele>4.7</ele>
        <time>2021-05-17T05:34:27Z</time>
      </trkpt>
      <trkpt lat="41.3996540" lon="-8.7779570">
        <ele>4.7</ele>
        <time>2021-05-17T05:34:28Z</time>
      </trkpt>
      <trkpt lat="41.3996640" lon="-8.7779510">
        <ele>4.8</ele>
        <time>2021-05-17T05:34:29Z</time>
      </trkpt>
      <trkpt lat="41.3996710" lon="-8.7779520">
        <ele>4.8</ele>
        <time>2021-05-17T05:34:30Z</time>
      </trkpt>
      <trkpt lat="41.3996850" lon="-8.7779500">
        <ele>4.8</ele>
        <time>2021-05-17T05:34:31Z</time>
      </trkpt>
      <trkpt lat="41.3997020" lon="-8.7779430">
        <ele>4.8</ele>
        <time>2021-05-17T05:34:32Z</time>
      </trkpt>
      <trkpt lat="41.3997170" lon="-8.7779460">
        <ele>4.9</ele>
        <time>2021-05-17T05:34:33Z</time>
      </trkpt>
      <trkpt lat="41.3997300" lon="-8.7779420">
        <ele>4.9</ele>
        <time>2021-05-17T05:34:34Z</time>
      </trkpt>
      <trkpt lat="41.3997500" lon="-8.7779270">
        <ele>4.9</ele>
        <time>2021-05-17T05:34:35Z</time>
      </trkpt>
      <trkpt lat="41.3997590" lon="-8.7779230">
        <ele>5.0</ele>
        <time>2021-05-17T05:34:36Z</time>
      </trkpt>
      <trkpt lat="41.3997690" lon="-8.7779180">
        <ele>5.0</ele>
        <time>2021-05-17T05:34:37Z</time>
      </trkpt>
      <trkpt lat="41.3997890" lon="-8.7779110">
        <ele>5.0</ele>
        <time>2021-05-17T05:34:38Z</time>
      </trkpt>
      <trkpt lat="41.3997990" lon="-8.7779080">
        <ele>5.1</ele>
        <time>2021-05-17T05:34:39Z</time>
      </trkpt>
      <trkpt lat="41.3998080" lon="-8.7779060">
        <ele>5.1</ele>
        <time>2021-05-17T05:34:40Z</time>
      </trkpt>
      <trkpt lat="41.3998230" lon="-8.7778970">
        <ele>5.1</ele>
        <time>2021-05-17T05:34:41Z</time>
      </trkpt>
      <trkpt lat="41.3998390" lon="-8.7779000">
        <ele>5.2</ele>
        <time>2021-05-17T05:34:42Z</time>
      </trkpt>
      <trkpt lat="41.3998490" lon="-8.7778920">
        <ele>5.2</ele>
        <time>2021-05-17T05:34:43Z</time>
      </trkpt>
      <trkpt lat="41.3998640" lon="-8.7778870">
        <ele>5.3</ele>
        <time>2021-05-17T05:34:44Z</time>
      </trkpt>
      <trkpt lat="41.3998810" lon="-8.7778860">
        <ele>5.3</ele>
        <time>2021-05-17T05:34:45Z</time>
      </trkpt>
      <trkpt lat="41.3998930" lon="-8.7778910">
        <ele>5.4</ele>
        <time>2021-05-17T05:34:46Z</time>
      </trkpt>
      <trkpt lat="41.3999090" lon="-8.7778880">
        <ele>5.4</ele>
        <time>2021-05-17T05:34:47Z</time>
      </trkpt>
      <trkpt lat="41.3999250" lon="-8.7778860">
        <ele>5.5</ele>
        <time>2021-05-17T05:34:48Z</time>
      </trkpt>
      <trkpt lat="41.3999430" lon="-8.7778840">
        <ele>5.6</ele>
        <time>2021-05-17T05:34:49Z</time>
      </trkpt>
      <trkpt lat="41.3999530" lon="-8.7778860">
        <ele>5.6</ele>
        <time>2021-05-17T05:34:50Z</time>
      </trkpt>
      <trkpt lat="41.3999690" lon="-8.7778850">
        <ele>5.7</ele>
        <time>2021-05-17T05:34:51Z</time>
      </trkpt>
      <trkpt lat="41.3999860" lon="-8.7778920">
        <ele>5.7</ele>
        <time>2021-05-17T05:34:52Z</time>
      </trkpt>
      <trkpt lat="41.4000130" lon="-8.7778870">
        <ele>5.8</ele>
        <time>2021-05-17T05:34:53Z</time>
      </trkpt>
      <trkpt lat="41.4000190" lon="-8.7778850">
        <ele>5.9</ele>
        <time>2021-05-17T05:34:54Z</time>
      </trkpt>
      <trkpt lat="41.4000260" lon="-8.7778840">
        <ele>5.9</ele>
        <time>2021-05-17T05:34:55Z</time>
      </trkpt>
      <trkpt lat="41.4000420" lon="-8.7778800">
        <ele>6.0</ele>
        <time>2021-05-17T05:34:56Z</time>
      </trkpt>
      <trkpt lat="41.4000520" lon="-8.7778780">
        <ele>6.0</ele>
        <time>2021-05-17T05:34:57Z</time>
      </trkpt>
      <trkpt lat="41.4000750" lon="-8.7778810">
        <ele>6.1</ele>
        <time>2021-05-17T05:34:58Z</time>
      </trkpt>
      <trkpt lat="41.4000860" lon="-8.7778810">
        <ele>6.1</ele>
        <time>2021-05-17T05:34:59Z</time>
      </trkpt>
      <trkpt lat="41.4000970" lon="-8.7778820">
        <ele>6.2</ele>
        <time>2021-05-17T05:35:00Z</time>
      </trkpt>
      <trkpt lat="41.4001170" lon="-8.7778810">
        <ele>6.3</ele>
        <time>2021-05-17T05:35:01Z</time>
      </trkpt>
      <trkpt lat="41.4001280" lon="-8.7778820">
        <ele>6.3</ele>
        <time>2021-05-17T05:35:02Z</time>
      </trkpt>
      <trkpt lat="41.4001380" lon="-8.7778820">
        <ele>6.4</ele>
        <time>2021-05-17T05:35:03Z</time>
      </trkpt>
      <trkpt lat="41.4001570" lon="-8.7778780">
        <ele>6.4</ele>
        <time>2021-05-17T05:35:04Z</time>
      </trkpt>
      <trkpt lat="41.4001670" lon="-8.7778780">
        <ele>6.5</ele>
        <time>2021-05-17T05:35:05Z</time>
      </trkpt>
      <trkpt lat="41.4001760" lon="-8.7778780">
        <ele>6.5</ele>
        <time>2021-05-17T05:35:06Z</time>
      </trkpt>
      <trkpt lat="41.4001900" lon="-8.7778760">
        <ele>6.6</ele>
        <time>2021-05-17T05:35:07Z</time>
      </trkpt>
      <trkpt lat="41.4002100" lon="-8.7778750">
        <ele>6.7</ele>
        <time>2021-05-17T05:35:08Z</time>
      </trkpt>
      <trkpt lat="41.4002200" lon="-8.7778760">
        <ele>6.7</ele>
        <time>2021-05-17T05:35:09Z</time>
      </trkpt>
      <trkpt lat="41.4002380" lon="-8.7778830">
        <ele>6.8</ele>
        <time>2021-05-17T05:35:10Z</time>
      </trkpt>
      <trkpt lat="41.4002520" lon="-8.7778770">
        <ele>6.9</ele>
        <time>2021-05-17T05:35:11Z</time>
      </trkpt>
      <trkpt lat="41.4002640" lon="-8.7778750">
        <ele>7.0</ele>
        <time>2021-05-17T05:35:12Z</time>
      </trkpt>
      <trkpt lat="41.4002740" lon="-8.7778740">
        <ele>7.0</ele>
        <time>2021-05-17T05:35:13Z</time>
      </trkpt>
      <trkpt lat="41.4002860" lon="-8.7778730">
        <ele>7.1</ele>
        <time>2021-05-17T05:35:14Z</time>
      </trkpt>
      <trkpt lat="41.4003030" lon="-8.7778780">
        <ele>7.1</ele>
        <time>2021-05-17T05:35:15Z</time>
      </trkpt>
      <trkpt lat="41.4003210" lon="-8.7778810">
        <ele>7.2</ele>
        <time>2021-05-17T05:35:16Z</time>
      </trkpt>
      <trkpt lat="41.4003330" lon="-8.7778800">
        <ele>7.3</ele>
        <time>2021-05-17T05:35:17Z</time>
      </trkpt>
      <trkpt lat="41.4003490" lon="-8.7778810">
        <ele>7.4</ele>
        <time>2021-05-17T05:35:18Z</time>
      </trkpt>
      <trkpt lat="41.4003600" lon="-8.7778800">
        <ele>7.4</ele>
        <time>2021-05-17T05:35:19Z</time>
      </trkpt>
      <trkpt lat="41.4003800" lon="-8.7778720">
        <ele>7.5</ele>
        <time>2021-05-17T05:35:20Z</time>
      </trkpt>
      <trkpt lat="41.4003920" lon="-8.7778700">
        <ele>7.6</ele>
        <time>2021-05-17T05:35:21Z</time>
      </trkpt>
      <trkpt lat="41.4004040" lon="-8.7778690">
        <ele>7.6</ele>
        <time>2021-05-17T05:35:22Z</time>
      </trkpt>
      <trkpt lat="41.4004180" lon="-8.7778470">
        <ele>7.7</ele>
        <time>2021-05-17T05:35:23Z</time>
      </trkpt>
      <trkpt lat="41.4004200" lon="-8.7778320">
        <ele>7.7</ele>
        <time>2021-05-17T05:35:24Z</time>
      </trkpt>
      <trkpt lat="41.4004230" lon="-8.7778180">
        <ele>7.7</ele>
        <time>2021-05-17T05:35:25Z</time>
      </trkpt>
      <trkpt lat="41.4004270" lon="-8.7777870">
        <ele>7.8</ele>
        <time>2021-05-17T05:35:26Z</time>
      </trkpt>
      <trkpt lat="41.4004320" lon="-8.7777750">
        <ele>7.8</ele>
        <time>2021-05-17T05:35:27Z</time>
      </trkpt>
      <trkpt lat="41.4004370" lon="-8.7777630">
        <ele>7.9</ele>
        <time>2021-05-17T05:35:28Z</time>
      </trkpt>
      <trkpt lat="41.4004430" lon="-8.7777410">
        <ele>7.9</ele>
        <time>2021-05-17T05:35:29Z</time>
      </trkpt>
      <trkpt lat="41.4004460" lon="-8.7777270">
        <ele>7.9</ele>
        <time>2021-05-17T05:35:30Z</time>
      </trkpt>
      <trkpt lat="41.4004480" lon="-8.7777140">
        <ele>7.9</ele>
        <time>2021-05-17T05:35:31Z</time>
      </trkpt>
      <trkpt lat="41.4004460" lon="-8.7776870">
        <ele>8.0</ele>
        <time>2021-05-17T05:35:32Z</time>
      </trkpt>
      <trkpt lat="41.4004470" lon="-8.7776780">
        <ele>8.0</ele>
        <time>2021-05-17T05:35:33Z</time>
      </trkpt>
      <trkpt lat="41.4004500" lon="-8.7776620">
        <ele>8.0</ele>
        <time>2021-05-17T05:35:34Z</time>
      </trkpt>
      <trkpt lat="41.4004510" lon="-8.7776390">
        <ele>8.0</ele>
        <time>2021-05-17T05:35:35Z</time>
      </trkpt>
      <trkpt lat="41.4004550" lon="-8.7776260">
        <ele>8.0</ele>
        <time>2021-05-17T05:35:36Z</time>
      </trkpt>
      <trkpt lat="41.4004620" lon="-8.7776040">
        <ele>8.0</ele>
        <time>2021-05-17T05:35:37Z</time>
      </trkpt>
      <trkpt lat="41.4004650" lon="-8.7775990">
        <ele>8.0</ele>
        <time>2021-05-17T05:35:38Z</time>
      </trkpt>
      <trkpt lat="41.4004720" lon="-8.7775980">
        <ele>8.0</ele>
        <time>2021-05-17T05:35:39Z</time>
      </trkpt>
      <trkpt lat="41.4004760" lon="-8.7776070">
        <ele>8.1</ele>
        <time>2021-05-17T05:35:40Z</time>
      </trkpt>
      <trkpt lat="41.4004900" lon="-8.7776110">
        <ele>8.1</ele>
        <time>2021-05-17T05:35:41Z</time>
      </trkpt>
      <trkpt lat="41.4005200" lon="-8.7776180">
        <ele>8.1</ele>
        <time>2021-05-17T05:35:42Z</time>
      </trkpt>
      <trkpt lat="41.4005270" lon="-8.7776200">
        <ele>8.1</ele>
        <time>2021-05-17T05:35:43Z</time>
      </trkpt>
      <trkpt lat="41.4005510" lon="-8.7776280">
        <ele>8.1</ele>
        <time>2021-05-17T05:35:44Z</time>
      </trkpt>
      <trkpt lat="41.4005600" lon="-8.7776260">
        <ele>8.1</ele>
        <time>2021-05-17T05:35:45Z</time>
      </trkpt>
      <trkpt lat="41.4005680" lon="-8.7776250">
        <ele>8.1</ele>
        <time>2021-05-17T05:35:46Z</time>
      </trkpt>
      <trkpt lat="41.4005820" lon="-8.7776280">
        <ele>8.2</ele>
        <time>2021-05-17T05:35:47Z</time>
      </trkpt>
      <trkpt lat="41.4005980" lon="-8.7776350">
        <ele>8.2</ele>
        <time>2021-05-17T05:35:48Z</time>
      </trkpt>
      <trkpt lat="41.4006140" lon="-8.7776440">
        <ele>8.2</ele>
        <time>2021-05-17T05:35:49Z</time>
      </trkpt>
      <trkpt lat="41.4006230" lon="-8.7776490">
        <ele>8.2</ele>
        <time>2021-05-17T05:35:50Z</time>
      </trkpt>
      <trkpt lat="41.4006310" lon="-8.7776530">
        <ele>8.2</ele>
        <time>2021-05-17T05:35:51Z</time>
      </trkpt>
      <trkpt lat="41.4006490" lon="-8.7776580">
        <ele>8.2</ele>
        <time>2021-05-17T05:35:52Z</time>
      </trkpt>
      <trkpt lat="41.4006570" lon="-8.7776590">
        <ele>8.2</ele>
        <time>2021-05-17T05:35:53Z</time>
      </trkpt>
      <trkpt lat="41.4006670" lon="-8.7776620">
        <ele>8.3</ele>
        <time>2021-05-17T05:35:54Z</time>
      </trkpt>
      <trkpt lat="41.4006880" lon="-8.7776730">
        <ele>8.3</ele>
        <time>2021-05-17T05:35:55Z</time>
      </trkpt>
      <trkpt lat="41.4006980" lon="-8.7776760">
        <ele>8.3</ele>
        <time>2021-05-17T05:35:56Z</time>
      </trkpt>
      <trkpt lat="41.4007130" lon="-8.7776810">
        <ele>8.3</ele>
        <time>2021-05-17T05:35:57Z</time>
      </trkpt>
      <trkpt lat="41.4007300" lon="-8.7776850">
        <ele>8.3</ele>
        <time>2021-05-17T05:35:58Z</time>
      </trkpt>
      <trkpt lat="41.4007470" lon="-8.7776960">
        <ele>8.3</ele>
        <time>2021-05-17T05:35:59Z</time>
      </trkpt>
      <trkpt lat="41.4007560" lon="-8.7777020">
        <ele>8.3</ele>
        <time>2021-05-17T05:36:00Z</time>
      </trkpt>
      <trkpt lat="41.4007640" lon="-8.7777070">
        <ele>8.3</ele>
        <time>2021-05-17T05:36:01Z</time>
      </trkpt>
      <trkpt lat="41.4007750" lon="-8.7777120">
        <ele>8.3</ele>
        <time>2021-05-17T05:36:02Z</time>
      </trkpt>
      <trkpt lat="41.4007930" lon="-8.7777150">
        <ele>8.4</ele>
        <time>2021-05-17T05:36:03Z</time>
      </trkpt>
      <trkpt lat="41.4008040" lon="-8.7777180">
        <ele>8.4</ele>
        <time>2021-05-17T05:36:04Z</time>
      </trkpt>
      <trkpt lat="41.4008210" lon="-8.7777360">
        <ele>8.4</ele>
        <time>2021-05-17T05:36:05Z</time>
      </trkpt>
      <trkpt lat="41.4008330" lon="-8.7777380">
        <ele>8.4</ele>
        <time>2021-05-17T05:36:06Z</time>
      </trkpt>
      <trkpt lat="41.4008490" lon="-8.7777440">
        <ele>8.4</ele>
        <time>2021-05-17T05:36:07Z</time>
      </trkpt>
      <trkpt lat="41.4008750" lon="-8.7777550">
        <ele>8.4</ele>
        <time>2021-05-17T05:36:08Z</time>
      </trkpt>
      <trkpt lat="41.4008800" lon="-8.7777470">
        <ele>8.4</ele>
        <time>2021-05-17T05:36:09Z</time>
      </trkpt>
      <trkpt lat="41.4008990" lon="-8.7777470">
        <ele>8.4</ele>
        <time>2021-05-17T05:36:10Z</time>
      </trkpt>
      <trkpt lat="41.4009060" lon="-8.7777500">
        <ele>8.4</ele>
        <time>2021-05-17T05:36:11Z</time>
      </trkpt>
      <trkpt lat="41.4009140" lon="-8.7777540">
        <ele>8.4</ele>
        <time>2021-05-17T05:36:12Z</time>
      </trkpt>
      <trkpt lat="41.4009210" lon="-8.7777570">
        <ele>8.4</ele>
        <time>2021-05-17T05:36:13Z</time>
      </trkpt>
      <trkpt lat="41.4009470" lon="-8.7777770">
        <ele>8.4</ele>
        <time>2021-05-17T05:36:14Z</time>
      </trkpt>
      <trkpt lat="41.4009560" lon="-8.7777860">
        <ele>8.4</ele>
        <time>2021-05-17T05:36:15Z</time>
      </trkpt>
      <trkpt lat="41.4009580" lon="-8.7777930">
        <ele>8.4</ele>
        <time>2021-05-17T05:36:16Z</time>
      </trkpt>
      <trkpt lat="41.4009690" lon="-8.7777990">
        <ele>8.4</ele>
        <time>2021-05-17T05:36:17Z</time>
      </trkpt>
      <trkpt lat="41.4009840" lon="-8.7778100">
        <ele>8.4</ele>
        <time>2021-05-17T05:36:18Z</time>
      </trkpt>
      <trkpt lat="41.4009980" lon="-8.7778130">
        <ele>8.4</ele>
        <time>2021-05-17T05:36:19Z</time>
      </trkpt>
      <trkpt lat="41.4010150" lon="-8.7778180">
        <ele>8.4</ele>
        <time>2021-05-17T05:36:20Z</time>
      </trkpt>
      <trkpt lat="41.4010240" lon="-8.7778220">
        <ele>8.4</ele>
        <time>2021-05-17T05:36:21Z</time>
      </trkpt>
      <trkpt lat="41.4010430" lon="-8.7778370">
        <ele>8.4</ele>
        <time>2021-05-17T05:36:22Z</time>
      </trkpt>
      <trkpt lat="41.4010530" lon="-8.7778320">
        <ele>8.4</ele>
        <time>2021-05-17T05:36:23Z</time>
      </trkpt>
      <trkpt lat="41.4010680" lon="-8.7778410">
        <ele>8.4</ele>
        <time>2021-05-17T05:36:24Z</time>
      </trkpt>
      <trkpt lat="41.4010760" lon="-8.7778450">
        <ele>8.4</ele>
        <time>2021-05-17T05:36:25Z</time>
      </trkpt>
      <trkpt lat="41.4010960" lon="-8.7778540">
        <ele>8.4</ele>
        <time>2021-05-17T05:36:26Z</time>
      </trkpt>
      <trkpt lat="41.4011060" lon="-8.7778600">
        <ele>8.4</ele>
        <time>2021-05-17T05:36:27Z</time>
      </trkpt>
      <trkpt lat="41.4011270" lon="-8.7778670">
        <ele>8.4</ele>
        <time>2021-05-17T05:36:28Z</time>
      </trkpt>
      <trkpt lat="41.4011350" lon="-8.7778710">
        <ele>8.4</ele>
        <time>2021-05-17T05:36:29Z</time>
      </trkpt>
      <trkpt lat="41.4011430" lon="-8.7778760">
        <ele>8.4</ele>
        <time>2021-05-17T05:36:30Z</time>
      </trkpt>
      <trkpt lat="41.4011560" lon="-8.7778850">
        <ele>8.4</ele>
        <time>2021-05-17T05:36:31Z</time>
      </trkpt>
      <trkpt lat="41.4011670" lon="-8.7778920">
        <ele>8.4</ele>
        <time>2021-05-17T05:36:32Z</time>
      </trkpt>
      <trkpt lat="41.4011790" lon="-8.7778980">
        <ele>8.4</ele>
        <time>2021-05-17T05:36:33Z</time>
      </trkpt>
      <trkpt lat="41.4011920" lon="-8.7779050">
        <ele>8.4</ele>
        <time>2021-05-17T05:36:34Z</time>
      </trkpt>
      <trkpt lat="41.4011970" lon="-8.7779100">
        <ele>8.4</ele>
        <time>2021-05-17T05:36:35Z</time>
      </trkpt>
      <trkpt lat="41.4012120" lon="-8.7779120">
        <ele>8.4</ele>
        <time>2021-05-17T05:36:36Z</time>
      </trkpt>
      <trkpt lat="41.4012230" lon="-8.7779180">
        <ele>8.4</ele>
        <time>2021-05-17T05:36:37Z</time>
      </trkpt>
      <trkpt lat="41.4012360" lon="-8.7779220">
        <ele>8.4</ele>
        <time>2021-05-17T05:36:38Z</time>
      </trkpt>
      <trkpt lat="41.4012500" lon="-8.7779170">
        <ele>8.4</ele>
        <time>2021-05-17T05:36:39Z</time>
      </trkpt>
      <trkpt lat="41.4012630" lon="-8.7779200">
        <ele>8.4</ele>
        <time>2021-05-17T05:36:40Z</time>
      </trkpt>
      <trkpt lat="41.4012790" lon="-8.7779300">
        <ele>8.4</ele>
        <time>2021-05-17T05:36:41Z</time>
      </trkpt>
      <trkpt lat="41.4012990" lon="-8.7779350">
        <ele>8.4</ele>
        <time>2021-05-17T05:36:42Z</time>
      </trkpt>
      <trkpt lat="41.4013090" lon="-8.7779380">
        <ele>8.4</ele>
        <time>2021-05-17T05:36:43Z</time>
      </trkpt>
      <trkpt lat="41.4013200" lon="-8.7779400">
        <ele>8.4</ele>
        <time>2021-05-17T05:36:44Z</time>
      </trkpt>
      <trkpt lat="41.4013330" lon="-8.7779470">
        <ele>8.4</ele>
        <time>2021-05-17T05:36:45Z</time>
      </trkpt>
      <trkpt lat="41.4013490" lon="-8.7779510">
        <ele>8.4</ele>
        <time>2021-05-17T05:36:46Z</time>
      </trkpt>
      <trkpt lat="41.4013550" lon="-8.7779580">
        <ele>8.4</ele>
        <time>2021-05-17T05:36:47Z</time>
      </trkpt>
      <trkpt lat="41.4013680" lon="-8.7779600">
        <ele>8.4</ele>
        <time>2021-05-17T05:36:48Z</time>
      </trkpt>
      <trkpt lat="41.4013790" lon="-8.7779660">
        <ele>8.4</ele>
        <time>2021-05-17T05:36:49Z</time>
      </trkpt>
      <trkpt lat="41.4013930" lon="-8.7779730">
        <ele>8.4</ele>
        <time>2021-05-17T05:36:50Z</time>
      </trkpt>
      <trkpt lat="41.4014060" lon="-8.7779810">
        <ele>8.4</ele>
        <time>2021-05-17T05:36:51Z</time>
      </trkpt>
      <trkpt lat="41.4014190" lon="-8.7779860">
        <ele>8.4</ele>
        <time>2021-05-17T05:36:52Z</time>
      </trkpt>
      <trkpt lat="41.4014400" lon="-8.7779930">
        <ele>8.4</ele>
        <time>2021-05-17T05:36:53Z</time>
      </trkpt>
      <trkpt lat="41.4014400" lon="-8.7780030">
        <ele>8.3</ele>
        <time>2021-05-17T05:36:54Z</time>
      </trkpt>
      <trkpt lat="41.4014540" lon="-8.7780040">
        <ele>8.3</ele>
        <time>2021-05-17T05:36:55Z</time>
      </trkpt>
      <trkpt lat="41.4014690" lon="-8.7780150">
        <ele>8.3</ele>
        <time>2021-05-17T05:36:56Z</time>
      </trkpt>
      <trkpt lat="41.4014950" lon="-8.7780280">
        <ele>8.3</ele>
        <time>2021-05-17T05:36:57Z</time>
      </trkpt>
      <trkpt lat="41.4015030" lon="-8.7780340">
        <ele>8.3</ele>
        <time>2021-05-17T05:36:58Z</time>
      </trkpt>
      <trkpt lat="41.4015240" lon="-8.7780330">
        <ele>8.3</ele>
        <time>2021-05-17T05:36:59Z</time>
      </trkpt>
      <trkpt lat="41.4015350" lon="-8.7780350">
        <ele>8.3</ele>
        <time>2021-05-17T05:37:00Z</time>
      </trkpt>
      <trkpt lat="41.4015460" lon="-8.7780370">
        <ele>8.3</ele>
        <time>2021-05-17T05:37:01Z</time>
      </trkpt>
      <trkpt lat="41.4015610" lon="-8.7780450">
        <ele>8.3</ele>
        <time>2021-05-17T05:37:02Z</time>
      </trkpt>
      <trkpt lat="41.4015700" lon="-8.7780560">
        <ele>8.3</ele>
        <time>2021-05-17T05:37:03Z</time>
      </trkpt>
      <trkpt lat="41.4015840" lon="-8.7780600">
        <ele>8.3</ele>
        <time>2021-05-17T05:37:04Z</time>
      </trkpt>
      <trkpt lat="41.4015910" lon="-8.7780650">
        <ele>8.3</ele>
        <time>2021-05-17T05:37:05Z</time>
      </trkpt>
      <trkpt lat="41.4016050" lon="-8.7780690">
        <ele>8.3</ele>
        <time>2021-05-17T05:37:06Z</time>
      </trkpt>
      <trkpt lat="41.4016270" lon="-8.7780800">
        <ele>8.3</ele>
        <time>2021-05-17T05:37:07Z</time>
      </trkpt>
      <trkpt lat="41.4016350" lon="-8.7780830">
        <ele>8.3</ele>
        <time>2021-05-17T05:37:08Z</time>
      </trkpt>
      <trkpt lat="41.4016440" lon="-8.7780860">
        <ele>8.3</ele>
        <time>2021-05-17T05:37:09Z</time>
      </trkpt>
      <trkpt lat="41.4016570" lon="-8.7781000">
        <ele>8.3</ele>
        <time>2021-05-17T05:37:10Z</time>
      </trkpt>
      <trkpt lat="41.4016710" lon="-8.7781050">
        <ele>8.3</ele>
        <time>2021-05-17T05:37:11Z</time>
      </trkpt>
      <trkpt lat="41.4016920" lon="-8.7781090">
        <ele>8.3</ele>
        <time>2021-05-17T05:37:12Z</time>
      </trkpt>
      <trkpt lat="41.4017000" lon="-8.7781130">
        <ele>8.3</ele>
        <time>2021-05-17T05:37:13Z</time>
      </trkpt>
      <trkpt lat="41.4017090" lon="-8.7781180">
        <ele>8.3</ele>
        <time>2021-05-17T05:37:14Z</time>
      </trkpt>
      <trkpt lat="41.4017290" lon="-8.7781360">
        <ele>8.3</ele>
        <time>2021-05-17T05:37:15Z</time>
      </trkpt>
      <trkpt lat="41.4017380" lon="-8.7781410">
        <ele>8.3</ele>
        <time>2021-05-17T05:37:16Z</time>
      </trkpt>
      <trkpt lat="41.4017460" lon="-8.7781470">
        <ele>8.3</ele>
        <time>2021-05-17T05:37:17Z</time>
      </trkpt>
      <trkpt lat="41.4017670" lon="-8.7781550">
        <ele>8.3</ele>
        <time>2021-05-17T05:37:18Z</time>
      </trkpt>
      <trkpt lat="41.4017750" lon="-8.7781560">
        <ele>8.3</ele>
        <time>2021-05-17T05:37:19Z</time>
      </trkpt>
      <trkpt lat="41.4017840" lon="-8.7781570">
        <ele>8.3</ele>
        <time>2021-05-17T05:37:20Z</time>
      </trkpt>
      <trkpt lat="41.4018030" lon="-8.7781650">
        <ele>8.3</ele>
        <time>2021-05-17T05:37:21Z</time>
      </trkpt>
      <trkpt lat="41.4018140" lon="-8.7781720">
        <ele>8.3</ele>
        <time>2021-05-17T05:37:22Z</time>
      </trkpt>
      <trkpt lat="41.4018330" lon="-8.7781820">
        <ele>8.3</ele>
        <time>2021-05-17T05:37:23Z</time>
      </trkpt>
      <trkpt lat="41.4018430" lon="-8.7781840">
        <ele>8.3</ele>
        <time>2021-05-17T05:37:24Z</time>
      </trkpt>
      <trkpt lat="41.4018520" lon="-8.7781860">
        <ele>8.3</ele>
        <time>2021-05-17T05:37:25Z</time>
      </trkpt>
      <trkpt lat="41.4018630" lon="-8.7781920">
        <ele>8.3</ele>
        <time>2021-05-17T05:37:26Z</time>
      </trkpt>
      <trkpt lat="41.4018850" lon="-8.7781960">
        <ele>8.3</ele>
        <time>2021-05-17T05:37:27Z</time>
      </trkpt>
      <trkpt lat="41.4019060" lon="-8.7782050">
        <ele>8.3</ele>
        <time>2021-05-17T05:37:28Z</time>
      </trkpt>
      <trkpt lat="41.4019140" lon="-8.7782090">
        <ele>8.3</ele>
        <time>2021-05-17T05:37:29Z</time>
      </trkpt>
      <trkpt lat="41.4019230" lon="-8.7782120">
        <ele>8.3</ele>
        <time>2021-05-17T05:37:30Z</time>
      </trkpt>
      <trkpt lat="41.4019380" lon="-8.7782230">
        <ele>8.3</ele>
        <time>2021-05-17T05:37:31Z</time>
      </trkpt>
      <trkpt lat="41.4019510" lon="-8.7782340">
        <ele>8.3</ele>
        <time>2021-05-17T05:37:32Z</time>
      </trkpt>
      <trkpt lat="41.4019670" lon="-8.7782390">
        <ele>8.3</ele>
        <time>2021-05-17T05:37:33Z</time>
      </trkpt>
      <trkpt lat="41.4019820" lon="-8.7782450">
        <ele>8.3</ele>
        <time>2021-05-17T05:37:34Z</time>
      </trkpt>
      <trkpt lat="41.4019950" lon="-8.7782540">
        <ele>8.3</ele>
        <time>2021-05-17T05:37:35Z</time>
      </trkpt>
      <trkpt lat="41.4020080" lon="-8.7782590">
        <ele>8.3</ele>
        <time>2021-05-17T05:37:36Z</time>
      </trkpt>
      <trkpt lat="41.4020290" lon="-8.7782700">
        <ele>8.3</ele>
        <time>2021-05-17T05:37:37Z</time>
      </trkpt>
      <trkpt lat="41.4020370" lon="-8.7782760">
        <ele>8.3</ele>
        <time>2021-05-17T05:37:38Z</time>
      </trkpt>
      <trkpt lat="41.4020440" lon="-8.7782820">
        <ele>8.3</ele>
        <time>2021-05-17T05:37:39Z</time>
      </trkpt>
      <trkpt lat="41.4020560" lon="-8.7782800">
        <ele>8.3</ele>
        <time>2021-05-17T05:37:40Z</time>
      </trkpt>
      <trkpt lat="41.4020700" lon="-8.7782820">
        <ele>8.2</ele>
        <time>2021-05-17T05:37:41Z</time>
      </trkpt>
      <trkpt lat="41.4020790" lon="-8.7782860">
        <ele>8.2</ele>
        <time>2021-05-17T05:37:42Z</time>
      </trkpt>
      <trkpt lat="41.4020920" lon="-8.7782960">
        <ele>8.2</ele>
        <time>2021-05-17T05:37:43Z</time>
      </trkpt>
      <trkpt lat="41.4021060" lon="-8.7783080">
        <ele>8.2</ele>
        <time>2021-05-17T05:37:44Z</time>
      </trkpt>
      <trkpt lat="41.4021190" lon="-8.7783200">
        <ele>8.2</ele>
        <time>2021-05-17T05:37:45Z</time>
      </trkpt>
      <trkpt lat="41.4021340" lon="-8.7783230">
        <ele>8.2</ele>
        <time>2021-05-17T05:37:46Z</time>
      </trkpt>
      <trkpt lat="41.4021450" lon="-8.7783280">
        <ele>8.2</ele>
        <time>2021-05-17T05:37:47Z</time>
      </trkpt>
      <trkpt lat="41.4021620" lon="-8.7783340">
        <ele>8.2</ele>
        <time>2021-05-17T05:37:48Z</time>
      </trkpt>
      <trkpt lat="41.4021670" lon="-8.7783370">
        <ele>8.2</ele>
        <time>2021-05-17T05:37:49Z</time>
      </trkpt>
      <trkpt lat="41.4021780" lon="-8.7783430">
        <ele>8.2</ele>
        <time>2021-05-17T05:37:50Z</time>
      </trkpt>
      <trkpt lat="41.4021940" lon="-8.7783460">
        <ele>8.2</ele>
        <time>2021-05-17T05:37:51Z</time>
      </trkpt>
      <trkpt lat="41.4022050" lon="-8.7783520">
        <ele>8.2</ele>
        <time>2021-05-17T05:37:52Z</time>
      </trkpt>
      <trkpt lat="41.4022130" lon="-8.7783550">
        <ele>8.2</ele>
        <time>2021-05-17T05:37:53Z</time>
      </trkpt>
      <trkpt lat="41.4022270" lon="-8.7783630">
        <ele>8.2</ele>
        <time>2021-05-17T05:37:54Z</time>
      </trkpt>
      <trkpt lat="41.4022430" lon="-8.7783670">
        <ele>8.1</ele>
        <time>2021-05-17T05:37:55Z</time>
      </trkpt>
      <trkpt lat="41.4022620" lon="-8.7783620">
        <ele>8.1</ele>
        <time>2021-05-17T05:37:56Z</time>
      </trkpt>
      <trkpt lat="41.4022800" lon="-8.7783590">
        <ele>8.1</ele>
        <time>2021-05-17T05:37:57Z</time>
      </trkpt>
      <trkpt lat="41.4022910" lon="-8.7783660">
        <ele>8.1</ele>
        <time>2021-05-17T05:37:58Z</time>
      </trkpt>
      <trkpt lat="41.4023040" lon="-8.7783620">
        <ele>8.1</ele>
        <time>2021-05-17T05:37:59Z</time>
      </trkpt>
      <trkpt lat="41.4023100" lon="-8.7783690">
        <ele>8.1</ele>
        <time>2021-05-17T05:38:00Z</time>
      </trkpt>
      <trkpt lat="41.4023250" lon="-8.7783740">
        <ele>8.1</ele>
        <time>2021-05-17T05:38:01Z</time>
      </trkpt>
      <trkpt lat="41.4023350" lon="-8.7783760">
        <ele>8.1</ele>
        <time>2021-05-17T05:38:02Z</time>
      </trkpt>
      <trkpt lat="41.4023530" lon="-8.7783790">
        <ele>8.1</ele>
        <time>2021-05-17T05:38:03Z</time>
      </trkpt>
      <trkpt lat="41.4023660" lon="-8.7783800">
        <ele>8.1</ele>
        <time>2021-05-17T05:38:04Z</time>
      </trkpt>
      <trkpt lat="41.4023800" lon="-8.7783860">
        <ele>8.1</ele>
        <time>2021-05-17T05:38:05Z</time>
      </trkpt>
      <trkpt lat="41.4023900" lon="-8.7783950">
        <ele>8.1</ele>
        <time>2021-05-17T05:38:06Z</time>
      </trkpt>
      <trkpt lat="41.4024130" lon="-8.7784040">
        <ele>8.1</ele>
        <time>2021-05-17T05:38:07Z</time>
      </trkpt>
      <trkpt lat="41.4024250" lon="-8.7784180">
        <ele>8.0</ele>
        <time>2021-05-17T05:38:08Z</time>
      </trkpt>
      <trkpt lat="41.4024440" lon="-8.7784240">
        <ele>8.0</ele>
        <time>2021-05-17T05:38:09Z</time>
      </trkpt>
      <trkpt lat="41.4024590" lon="-8.7784350">
        <ele>8.0</ele>
        <time>2021-05-17T05:38:10Z</time>
      </trkpt>
      <trkpt lat="41.4024740" lon="-8.7784350">
        <ele>8.0</ele>
        <time>2021-05-17T05:38:11Z</time>
      </trkpt>
      <trkpt lat="41.4024940" lon="-8.7784450">
        <ele>8.0</ele>
        <time>2021-05-17T05:38:12Z</time>
      </trkpt>
      <trkpt lat="41.4025010" lon="-8.7784480">
        <ele>8.0</ele>
        <time>2021-05-17T05:38:13Z</time>
      </trkpt>
      <trkpt lat="41.4025090" lon="-8.7784500">
        <ele>8.0</ele>
        <time>2021-05-17T05:38:14Z</time>
      </trkpt>
      <trkpt lat="41.4025130" lon="-8.7784590">
        <ele>8.0</ele>
        <time>2021-05-17T05:38:15Z</time>
      </trkpt>
      <trkpt lat="41.4025290" lon="-8.7784660">
        <ele>8.0</ele>
        <time>2021-05-17T05:38:16Z</time>
      </trkpt>
      <trkpt lat="41.4025390" lon="-8.7784750">
        <ele>8.0</ele>
        <time>2021-05-17T05:38:17Z</time>
      </trkpt>
      <trkpt lat="41.4025500" lon="-8.7784810">
        <ele>8.0</ele>
        <time>2021-05-17T05:38:18Z</time>
      </trkpt>
      <trkpt lat="41.4025690" lon="-8.7784900">
        <ele>8.0</ele>
        <time>2021-05-17T05:38:19Z</time>
      </trkpt>
      <trkpt lat="41.4025830" lon="-8.7784980">
        <ele>8.0</ele>
        <time>2021-05-17T05:38:20Z</time>
      </trkpt>
      <trkpt lat="41.4025980" lon="-8.7785040">
        <ele>8.0</ele>
        <time>2021-05-17T05:38:21Z</time>
      </trkpt>
      <trkpt lat="41.4026140" lon="-8.7785170">
        <ele>8.0</ele>
        <time>2021-05-17T05:38:22Z</time>
      </trkpt>
      <trkpt lat="41.4026220" lon="-8.7785220">
        <ele>7.9</ele>
        <time>2021-05-17T05:38:23Z</time>
      </trkpt>
      <trkpt lat="41.4026310" lon="-8.7785260">
        <ele>7.9</ele>
        <time>2021-05-17T05:38:24Z</time>
      </trkpt>
      <trkpt lat="41.4026530" lon="-8.7785340">
        <ele>7.9</ele>
        <time>2021-05-17T05:38:25Z</time>
      </trkpt>
      <trkpt lat="41.4026590" lon="-8.7785390">
        <ele>7.9</ele>
        <time>2021-05-17T05:38:26Z</time>
      </trkpt>
      <trkpt lat="41.4026660" lon="-8.7785430">
        <ele>7.9</ele>
        <time>2021-05-17T05:38:27Z</time>
      </trkpt>
      <trkpt lat="41.4026850" lon="-8.7785580">
        <ele>7.9</ele>
        <time>2021-05-17T05:38:28Z</time>
      </trkpt>
      <trkpt lat="41.4026930" lon="-8.7785640">
        <ele>7.9</ele>
        <time>2021-05-17T05:38:29Z</time>
      </trkpt>
      <trkpt lat="41.4027010" lon="-8.7785710">
        <ele>7.9</ele>
        <time>2021-05-17T05:38:30Z</time>
      </trkpt>
      <trkpt lat="41.4027130" lon="-8.7785810">
        <ele>7.9</ele>
        <time>2021-05-17T05:38:31Z</time>
      </trkpt>
      <trkpt lat="41.4027270" lon="-8.7785900">
        <ele>7.9</ele>
        <time>2021-05-17T05:38:32Z</time>
      </trkpt>
      <trkpt lat="41.4027410" lon="-8.7785980">
        <ele>7.9</ele>
        <time>2021-05-17T05:38:33Z</time>
      </trkpt>
      <trkpt lat="41.4027550" lon="-8.7786040">
        <ele>7.9</ele>
        <time>2021-05-17T05:38:34Z</time>
      </trkpt>
      <trkpt lat="41.4027750" lon="-8.7786140">
        <ele>7.9</ele>
        <time>2021-05-17T05:38:35Z</time>
      </trkpt>
      <trkpt lat="41.4027840" lon="-8.7786170">
        <ele>7.9</ele>
        <time>2021-05-17T05:38:36Z</time>
      </trkpt>
      <trkpt lat="41.4027920" lon="-8.7786200">
        <ele>7.9</ele>
        <time>2021-05-17T05:38:37Z</time>
      </trkpt>
      <trkpt lat="41.4028040" lon="-8.7786250">
        <ele>7.9</ele>
        <time>2021-05-17T05:38:38Z</time>
      </trkpt>
      <trkpt lat="41.4028160" lon="-8.7786320">
        <ele>7.9</ele>
        <time>2021-05-17T05:38:39Z</time>
      </trkpt>
      <trkpt lat="41.4028230" lon="-8.7786360">
        <ele>7.9</ele>
        <time>2021-05-17T05:38:40Z</time>
      </trkpt>
      <trkpt lat="41.4028300" lon="-8.7786360">
        <ele>7.9</ele>
        <time>2021-05-17T05:38:41Z</time>
      </trkpt>
      <trkpt lat="41.4028410" lon="-8.7786420">
        <ele>7.9</ele>
        <time>2021-05-17T05:38:42Z</time>
      </trkpt>
      <trkpt lat="41.4028520" lon="-8.7786470">
        <ele>7.8</ele>
        <time>2021-05-17T05:38:43Z</time>
      </trkpt>
      <trkpt lat="41.4028610" lon="-8.7786500">
        <ele>7.8</ele>
        <time>2021-05-17T05:38:44Z</time>
      </trkpt>
      <trkpt lat="41.4028730" lon="-8.7786570">
        <ele>7.8</ele>
        <time>2021-05-17T05:38:45Z</time>
      </trkpt>
      <trkpt lat="41.4028840" lon="-8.7786640">
        <ele>7.8</ele>
        <time>2021-05-17T05:38:46Z</time>
      </trkpt>
      <trkpt lat="41.4028930" lon="-8.7786670">
        <ele>7.8</ele>
        <time>2021-05-17T05:38:47Z</time>
      </trkpt>
      <trkpt lat="41.4029050" lon="-8.7786680">
        <ele>7.8</ele>
        <time>2021-05-17T05:38:48Z</time>
      </trkpt>
      <trkpt lat="41.4029170" lon="-8.7786690">
        <ele>7.8</ele>
        <time>2021-05-17T05:38:49Z</time>
      </trkpt>
      <trkpt lat="41.4029290" lon="-8.7786730">
        <ele>7.8</ele>
        <time>2021-05-17T05:38:50Z</time>
      </trkpt>
      <trkpt lat="41.4029450" lon="-8.7786780">
        <ele>7.8</ele>
        <time>2021-05-17T05:38:51Z</time>
      </trkpt>
      <trkpt lat="41.4029560" lon="-8.7786840">
        <ele>7.8</ele>
        <time>2021-05-17T05:38:52Z</time>
      </trkpt>
      <trkpt lat="41.4029650" lon="-8.7786920">
        <ele>7.8</ele>
        <time>2021-05-17T05:38:53Z</time>
      </trkpt>
      <trkpt lat="41.4029740" lon="-8.7787000">
        <ele>7.8</ele>
        <time>2021-05-17T05:38:54Z</time>
      </trkpt>
      <trkpt lat="41.4029830" lon="-8.7787070">
        <ele>7.8</ele>
        <time>2021-05-17T05:38:55Z</time>
      </trkpt>
      <trkpt lat="41.4029940" lon="-8.7787160">
        <ele>7.7</ele>
        <time>2021-05-17T05:38:56Z</time>
      </trkpt>
      <trkpt lat="41.4030050" lon="-8.7787210">
        <ele>7.7</ele>
        <time>2021-05-17T05:38:57Z</time>
      </trkpt>
      <trkpt lat="41.4030180" lon="-8.7787260">
        <ele>7.7</ele>
        <time>2021-05-17T05:38:58Z</time>
      </trkpt>
      <trkpt lat="41.4030270" lon="-8.7787290">
        <ele>7.7</ele>
        <time>2021-05-17T05:38:59Z</time>
      </trkpt>
      <trkpt lat="41.4030270" lon="-8.7787320">
        <ele>7.7</ele>
        <time>2021-05-17T05:39:00Z</time>
      </trkpt>
      <trkpt lat="41.4030270" lon="-8.7787340">
        <ele>7.7</ele>
        <time>2021-05-17T05:39:01Z</time>
      </trkpt>
      <trkpt lat="41.4030380" lon="-8.7787410">
        <ele>7.7</ele>
        <time>2021-05-17T05:39:02Z</time>
      </trkpt>
      <trkpt lat="41.4030500" lon="-8.7787490">
        <ele>7.7</ele>
        <time>2021-05-17T05:39:03Z</time>
      </trkpt>
      <trkpt lat="41.4030560" lon="-8.7787530">
        <ele>7.7</ele>
        <time>2021-05-17T05:39:04Z</time>
      </trkpt>
      <trkpt lat="41.4030650" lon="-8.7787550">
        <ele>7.7</ele>
        <time>2021-05-17T05:39:05Z</time>
      </trkpt>
      <trkpt lat="41.4030690" lon="-8.7787570">
        <ele>7.7</ele>
        <time>2021-05-17T05:39:06Z</time>
      </trkpt>
      <trkpt lat="41.4030800" lon="-8.7787580">
        <ele>7.7</ele>
        <time>2021-05-17T05:39:07Z</time>
      </trkpt>
      <trkpt lat="41.4030930" lon="-8.7787630">
        <ele>7.7</ele>
        <time>2021-05-17T05:39:08Z</time>
      </trkpt>
      <trkpt lat="41.4031020" lon="-8.7787660">
        <ele>7.7</ele>
        <time>2021-05-17T05:39:09Z</time>
      </trkpt>
      <trkpt lat="41.4031140" lon="-8.7787690">
        <ele>7.7</ele>
        <time>2021-05-17T05:39:10Z</time>
      </trkpt>
      <trkpt lat="41.4031260" lon="-8.7787740">
        <ele>7.7</ele>
        <time>2021-05-17T05:39:11Z</time>
      </trkpt>
      <trkpt lat="41.4031480" lon="-8.7787840">
        <ele>7.6</ele>
        <time>2021-05-17T05:39:12Z</time>
      </trkpt>
      <trkpt lat="41.4031560" lon="-8.7787880">
        <ele>7.6</ele>
        <time>2021-05-17T05:39:13Z</time>
      </trkpt>
      <trkpt lat="41.4031640" lon="-8.7787930">
        <ele>7.6</ele>
        <time>2021-05-17T05:39:14Z</time>
      </trkpt>
      <trkpt lat="41.4031770" lon="-8.7788040">
        <ele>7.6</ele>
        <time>2021-05-17T05:39:15Z</time>
      </trkpt>
      <trkpt lat="41.4031890" lon="-8.7788090">
        <ele>7.6</ele>
        <time>2021-05-17T05:39:16Z</time>
      </trkpt>
      <trkpt lat="41.4032000" lon="-8.7788160">
        <ele>7.6</ele>
        <time>2021-05-17T05:39:17Z</time>
      </trkpt>
      <trkpt lat="41.4032140" lon="-8.7788220">
        <ele>7.6</ele>
        <time>2021-05-17T05:39:18Z</time>
      </trkpt>
      <trkpt lat="41.4032210" lon="-8.7788310">
        <ele>7.6</ele>
        <time>2021-05-17T05:39:19Z</time>
      </trkpt>
      <trkpt lat="41.4032340" lon="-8.7788380">
        <ele>7.6</ele>
        <time>2021-05-17T05:39:20Z</time>
      </trkpt>
      <trkpt lat="41.4032420" lon="-8.7788420">
        <ele>7.6</ele>
        <time>2021-05-17T05:39:21Z</time>
      </trkpt>
      <trkpt lat="41.4032510" lon="-8.7788430">
        <ele>7.6</ele>
        <time>2021-05-17T05:39:22Z</time>
      </trkpt>
      <trkpt lat="41.4032640" lon="-8.7788540">
        <ele>7.6</ele>
        <time>2021-05-17T05:39:23Z</time>
      </trkpt>
      <trkpt lat="41.4032770" lon="-8.7788670">
        <ele>7.5</ele>
        <time>2021-05-17T05:39:24Z</time>
      </trkpt>
      <trkpt lat="41.4033030" lon="-8.7788740">
        <ele>7.5</ele>
        <time>2021-05-17T05:39:25Z</time>
      </trkpt>
      <trkpt lat="41.4033080" lon="-8.7788740">
        <ele>7.5</ele>
        <time>2021-05-17T05:39:26Z</time>
      </trkpt>
      <trkpt lat="41.4033220" lon="-8.7788830">
        <ele>7.5</ele>
        <time>2021-05-17T05:39:27Z</time>
      </trkpt>
      <trkpt lat="41.4033370" lon="-8.7788970">
        <ele>7.5</ele>
        <time>2021-05-17T05:39:28Z</time>
      </trkpt>
      <trkpt lat="41.4033600" lon="-8.7789090">
        <ele>7.5</ele>
        <time>2021-05-17T05:39:29Z</time>
      </trkpt>
      <trkpt lat="41.4033690" lon="-8.7789160">
        <ele>7.5</ele>
        <time>2021-05-17T05:39:30Z</time>
      </trkpt>
      <trkpt lat="41.4033790" lon="-8.7789230">
        <ele>7.5</ele>
        <time>2021-05-17T05:39:31Z</time>
      </trkpt>
      <trkpt lat="41.4033870" lon="-8.7789330">
        <ele>7.5</ele>
        <time>2021-05-17T05:39:32Z</time>
      </trkpt>
      <trkpt lat="41.4033990" lon="-8.7789470">
        <ele>7.5</ele>
        <time>2021-05-17T05:39:33Z</time>
      </trkpt>
      <trkpt lat="41.4034260" lon="-8.7789670">
        <ele>7.4</ele>
        <time>2021-05-17T05:39:34Z</time>
      </trkpt>
      <trkpt lat="41.4034330" lon="-8.7789730">
        <ele>7.4</ele>
        <time>2021-05-17T05:39:35Z</time>
      </trkpt>
      <trkpt lat="41.4034480" lon="-8.7789880">
        <ele>7.4</ele>
        <time>2021-05-17T05:39:36Z</time>
      </trkpt>
      <trkpt lat="41.4034610" lon="-8.7789950">
        <ele>7.4</ele>
        <time>2021-05-17T05:39:37Z</time>
      </trkpt>
      <trkpt lat="41.4034760" lon="-8.7790080">
        <ele>7.4</ele>
        <time>2021-05-17T05:39:38Z</time>
      </trkpt>
      <trkpt lat="41.4034920" lon="-8.7790190">
        <ele>7.4</ele>
        <time>2021-05-17T05:39:39Z</time>
      </trkpt>
      <trkpt lat="41.4035060" lon="-8.7790360">
        <ele>7.4</ele>
        <time>2021-05-17T05:39:40Z</time>
      </trkpt>
      <trkpt lat="41.4035170" lon="-8.7790490">
        <ele>7.4</ele>
        <time>2021-05-17T05:39:41Z</time>
      </trkpt>
      <trkpt lat="41.4035320" lon="-8.7790580">
        <ele>7.4</ele>
        <time>2021-05-17T05:39:42Z</time>
      </trkpt>
      <trkpt lat="41.4035460" lon="-8.7790690">
        <ele>7.4</ele>
        <time>2021-05-17T05:39:43Z</time>
      </trkpt>
      <trkpt lat="41.4035620" lon="-8.7790720">
        <ele>7.4</ele>
        <time>2021-05-17T05:39:44Z</time>
      </trkpt>
      <trkpt lat="41.4035740" lon="-8.7790800">
        <ele>7.4</ele>
        <time>2021-05-17T05:39:45Z</time>
      </trkpt>
      <trkpt lat="41.4035880" lon="-8.7790900">
        <ele>7.4</ele>
        <time>2021-05-17T05:39:46Z</time>
      </trkpt>
      <trkpt lat="41.4036030" lon="-8.7790980">
        <ele>7.3</ele>
        <time>2021-05-17T05:39:47Z</time>
      </trkpt>
      <trkpt lat="41.4036170" lon="-8.7791060">
        <ele>7.3</ele>
        <time>2021-05-17T05:39:48Z</time>
      </trkpt>
      <trkpt lat="41.4036290" lon="-8.7791180">
        <ele>7.3</ele>
        <time>2021-05-17T05:39:49Z</time>
      </trkpt>
      <trkpt lat="41.4036440" lon="-8.7791300">
        <ele>7.3</ele>
        <time>2021-05-17T05:39:50Z</time>
      </trkpt>
      <trkpt lat="41.4036610" lon="-8.7791340">
        <ele>7.3</ele>
        <time>2021-05-17T05:39:51Z</time>
      </trkpt>
      <trkpt lat="41.4036760" lon="-8.7791440">
        <ele>7.3</ele>
        <time>2021-05-17T05:39:52Z</time>
      </trkpt>
      <trkpt lat="41.4036890" lon="-8.7791570">
        <ele>7.3</ele>
        <time>2021-05-17T05:39:53Z</time>
      </trkpt>
      <trkpt lat="41.4037030" lon="-8.7791710">
        <ele>7.3</ele>
        <time>2021-05-17T05:39:54Z</time>
      </trkpt>
      <trkpt lat="41.4037120" lon="-8.7791860">
        <ele>7.3</ele>
        <time>2021-05-17T05:39:55Z</time>
      </trkpt>
      <trkpt lat="41.4037250" lon="-8.7791940">
        <ele>7.3</ele>
        <time>2021-05-17T05:39:56Z</time>
      </trkpt>
      <trkpt lat="41.4037380" lon="-8.7792070">
        <ele>7.2</ele>
        <time>2021-05-17T05:39:57Z</time>
      </trkpt>
      <trkpt lat="41.4037530" lon="-8.7792150">
        <ele>7.2</ele>
        <time>2021-05-17T05:39:58Z</time>
      </trkpt>
      <trkpt lat="41.4037650" lon="-8.7792260">
        <ele>7.2</ele>
        <time>2021-05-17T05:39:59Z</time>
      </trkpt>
      <trkpt lat="41.4037810" lon="-8.7792300">
        <ele>7.2</ele>
        <time>2021-05-17T05:40:00Z</time>
      </trkpt>
      <trkpt lat="41.4037940" lon="-8.7792420">
        <ele>7.2</ele>
        <time>2021-05-17T05:40:01Z</time>
      </trkpt>
      <trkpt lat="41.4038120" lon="-8.7792400">
        <ele>7.2</ele>
        <time>2021-05-17T05:40:02Z</time>
      </trkpt>
      <trkpt lat="41.4038250" lon="-8.7792510">
        <ele>7.2</ele>
        <time>2021-05-17T05:40:03Z</time>
      </trkpt>
      <trkpt lat="41.4038390" lon="-8.7792620">
        <ele>7.2</ele>
        <time>2021-05-17T05:40:04Z</time>
      </trkpt>
      <trkpt lat="41.4038520" lon="-8.7792740">
        <ele>7.1</ele>
        <time>2021-05-17T05:40:05Z</time>
      </trkpt>
      <trkpt lat="41.4038650" lon="-8.7792860">
        <ele>7.1</ele>
        <time>2021-05-17T05:40:06Z</time>
      </trkpt>
      <trkpt lat="41.4038790" lon="-8.7792900">
        <ele>7.1</ele>
        <time>2021-05-17T05:40:07Z</time>
      </trkpt>
      <trkpt lat="41.4038970" lon="-8.7792910">
        <ele>7.1</ele>
        <time>2021-05-17T05:40:08Z</time>
      </trkpt>
      <trkpt lat="41.4039100" lon="-8.7793050">
        <ele>7.1</ele>
        <time>2021-05-17T05:40:09Z</time>
      </trkpt>
      <trkpt lat="41.4039290" lon="-8.7793160">
        <ele>7.1</ele>
        <time>2021-05-17T05:40:10Z</time>
      </trkpt>
      <trkpt lat="41.4039390" lon="-8.7793210">
        <ele>7.1</ele>
        <time>2021-05-17T05:40:11Z</time>
      </trkpt>
      <trkpt lat="41.4039480" lon="-8.7793250">
        <ele>7.1</ele>
        <time>2021-05-17T05:40:12Z</time>
      </trkpt>
      <trkpt lat="41.4039580" lon="-8.7793380">
        <ele>7.1</ele>
        <time>2021-05-17T05:40:13Z</time>
      </trkpt>
      <trkpt lat="41.4039710" lon="-8.7793480">
        <ele>7.1</ele>
        <time>2021-05-17T05:40:14Z</time>
      </trkpt>
      <trkpt lat="41.4039850" lon="-8.7793530">
        <ele>7.0</ele>
        <time>2021-05-17T05:40:15Z</time>
      </trkpt>
      <trkpt lat="41.4039950" lon="-8.7793670">
        <ele>7.0</ele>
        <time>2021-05-17T05:40:16Z</time>
      </trkpt>
      <trkpt lat="41.4040100" lon="-8.7793730">
        <ele>7.0</ele>
        <time>2021-05-17T05:40:17Z</time>
      </trkpt>
      <trkpt lat="41.4040220" lon="-8.7793820">
        <ele>7.0</ele>
        <time>2021-05-17T05:40:18Z</time>
      </trkpt>
      <trkpt lat="41.4040360" lon="-8.7793880">
        <ele>7.0</ele>
        <time>2021-05-17T05:40:19Z</time>
      </trkpt>
      <trkpt lat="41.4040470" lon="-8.7794030">
        <ele>7.0</ele>
        <time>2021-05-17T05:40:20Z</time>
      </trkpt>
      <trkpt lat="41.4040610" lon="-8.7794040">
        <ele>7.0</ele>
        <time>2021-05-17T05:40:21Z</time>
      </trkpt>
      <trkpt lat="41.4040750" lon="-8.7794120">
        <ele>7.0</ele>
        <time>2021-05-17T05:40:22Z</time>
      </trkpt>
      <trkpt lat="41.4040890" lon="-8.7794210">
        <ele>7.0</ele>
        <time>2021-05-17T05:40:23Z</time>
      </trkpt>
      <trkpt lat="41.4041020" lon="-8.7794300">
        <ele>7.0</ele>
        <time>2021-05-17T05:40:24Z</time>
      </trkpt>
      <trkpt lat="41.4041180" lon="-8.7794330">
        <ele>7.0</ele>
        <time>2021-05-17T05:40:25Z</time>
      </trkpt>
      <trkpt lat="41.4041340" lon="-8.7794380">
        <ele>6.9</ele>
        <time>2021-05-17T05:40:26Z</time>
      </trkpt>
      <trkpt lat="41.4041460" lon="-8.7794540">
        <ele>6.9</ele>
        <time>2021-05-17T05:40:27Z</time>
      </trkpt>
      <trkpt lat="41.4041590" lon="-8.7794630">
        <ele>6.9</ele>
        <time>2021-05-17T05:40:28Z</time>
      </trkpt>
      <trkpt lat="41.4041730" lon="-8.7794700">
        <ele>6.9</ele>
        <time>2021-05-17T05:40:29Z</time>
      </trkpt>
      <trkpt lat="41.4041870" lon="-8.7794740">
        <ele>6.9</ele>
        <time>2021-05-17T05:40:30Z</time>
      </trkpt>
      <trkpt lat="41.4042010" lon="-8.7794870">
        <ele>6.9</ele>
        <time>2021-05-17T05:40:31Z</time>
      </trkpt>
      <trkpt lat="41.4042120" lon="-8.7794970">
        <ele>6.9</ele>
        <time>2021-05-17T05:40:32Z</time>
      </trkpt>
      <trkpt lat="41.4042230" lon="-8.7795120">
        <ele>6.9</ele>
        <time>2021-05-17T05:40:33Z</time>
      </trkpt>
      <trkpt lat="41.4042390" lon="-8.7795170">
        <ele>6.9</ele>
        <time>2021-05-17T05:40:34Z</time>
      </trkpt>
      <trkpt lat="41.4042510" lon="-8.7795310">
        <ele>6.9</ele>
        <time>2021-05-17T05:40:35Z</time>
      </trkpt>
      <trkpt lat="41.4042660" lon="-8.7795320">
        <ele>6.8</ele>
        <time>2021-05-17T05:40:36Z</time>
      </trkpt>
      <trkpt lat="41.4042870" lon="-8.7795450">
        <ele>6.8</ele>
        <time>2021-05-17T05:40:37Z</time>
      </trkpt>
      <trkpt lat="41.4042960" lon="-8.7795470">
        <ele>6.8</ele>
        <time>2021-05-17T05:40:38Z</time>
      </trkpt>
      <trkpt lat="41.4043050" lon="-8.7795500">
        <ele>6.8</ele>
        <time>2021-05-17T05:40:39Z</time>
      </trkpt>
      <trkpt lat="41.4043190" lon="-8.7795550">
        <ele>6.8</ele>
        <time>2021-05-17T05:40:40Z</time>
      </trkpt>
      <trkpt lat="41.4043320" lon="-8.7795650">
        <ele>6.8</ele>
        <time>2021-05-17T05:40:41Z</time>
      </trkpt>
      <trkpt lat="41.4043520" lon="-8.7795750">
        <ele>6.8</ele>
        <time>2021-05-17T05:40:42Z</time>
      </trkpt>
      <trkpt lat="41.4043610" lon="-8.7795750">
        <ele>6.8</ele>
        <time>2021-05-17T05:40:43Z</time>
      </trkpt>
      <trkpt lat="41.4043710" lon="-8.7795750">
        <ele>6.8</ele>
        <time>2021-05-17T05:40:44Z</time>
      </trkpt>
      <trkpt lat="41.4043850" lon="-8.7795860">
        <ele>6.8</ele>
        <time>2021-05-17T05:40:45Z</time>
      </trkpt>
      <trkpt lat="41.4044020" lon="-8.7795970">
        <ele>6.7</ele>
        <time>2021-05-17T05:40:46Z</time>
      </trkpt>
      <trkpt lat="41.4044160" lon="-8.7796010">
        <ele>6.7</ele>
        <time>2021-05-17T05:40:47Z</time>
      </trkpt>
      <trkpt lat="41.4044310" lon="-8.7796070">
        <ele>6.7</ele>
        <time>2021-05-17T05:40:48Z</time>
      </trkpt>
      <trkpt lat="41.4044430" lon="-8.7796130">
        <ele>6.7</ele>
        <time>2021-05-17T05:40:49Z</time>
      </trkpt>
      <trkpt lat="41.4044580" lon="-8.7796240">
        <ele>6.7</ele>
        <time>2021-05-17T05:40:50Z</time>
      </trkpt>
      <trkpt lat="41.4044700" lon="-8.7796360">
        <ele>6.7</ele>
        <time>2021-05-17T05:40:51Z</time>
      </trkpt>
      <trkpt lat="41.4044790" lon="-8.7796500">
        <ele>6.7</ele>
        <time>2021-05-17T05:40:52Z</time>
      </trkpt>
      <trkpt lat="41.4044960" lon="-8.7796540">
        <ele>6.7</ele>
        <time>2021-05-17T05:40:53Z</time>
      </trkpt>
      <trkpt lat="41.4045060" lon="-8.7796700">
        <ele>6.7</ele>
        <time>2021-05-17T05:40:54Z</time>
      </trkpt>
      <trkpt lat="41.4045200" lon="-8.7796770">
        <ele>6.7</ele>
        <time>2021-05-17T05:40:55Z</time>
      </trkpt>
      <trkpt lat="41.4045330" lon="-8.7796870">
        <ele>6.6</ele>
        <time>2021-05-17T05:40:56Z</time>
      </trkpt>
      <trkpt lat="41.4045470" lon="-8.7796980">
        <ele>6.6</ele>
        <time>2021-05-17T05:40:57Z</time>
      </trkpt>
      <trkpt lat="41.4045630" lon="-8.7797030">
        <ele>6.6</ele>
        <time>2021-05-17T05:40:58Z</time>
      </trkpt>
      <trkpt lat="41.4045780" lon="-8.7797070">
        <ele>6.6</ele>
        <time>2021-05-17T05:40:59Z</time>
      </trkpt>
      <trkpt lat="41.4045900" lon="-8.7797120">
        <ele>6.6</ele>
        <time>2021-05-17T05:41:00Z</time>
      </trkpt>
      <trkpt lat="41.4046050" lon="-8.7797170">
        <ele>6.6</ele>
        <time>2021-05-17T05:41:01Z</time>
      </trkpt>
      <trkpt lat="41.4046170" lon="-8.7797260">
        <ele>6.6</ele>
        <time>2021-05-17T05:41:02Z</time>
      </trkpt>
      <trkpt lat="41.4046400" lon="-8.7797300">
        <ele>6.6</ele>
        <time>2021-05-17T05:41:03Z</time>
      </trkpt>
      <trkpt lat="41.4046470" lon="-8.7797320">
        <ele>6.6</ele>
        <time>2021-05-17T05:41:04Z</time>
      </trkpt>
      <trkpt lat="41.4046550" lon="-8.7797340">
        <ele>6.6</ele>
        <time>2021-05-17T05:41:05Z</time>
      </trkpt>
      <trkpt lat="41.4046660" lon="-8.7797410">
        <ele>6.6</ele>
        <time>2021-05-17T05:41:06Z</time>
      </trkpt>
      <trkpt lat="41.4046810" lon="-8.7797470">
        <ele>6.5</ele>
        <time>2021-05-17T05:41:07Z</time>
      </trkpt>
      <trkpt lat="41.4047030" lon="-8.7797590">
        <ele>6.5</ele>
        <time>2021-05-17T05:41:08Z</time>
      </trkpt>
      <trkpt lat="41.4047130" lon="-8.7797630">
        <ele>6.5</ele>
        <time>2021-05-17T05:41:09Z</time>
      </trkpt>
      <trkpt lat="41.4047230" lon="-8.7797680">
        <ele>6.5</ele>
        <time>2021-05-17T05:41:10Z</time>
      </trkpt>
      <trkpt lat="41.4047410" lon="-8.7797700">
        <ele>6.5</ele>
        <time>2021-05-17T05:41:11Z</time>
      </trkpt>
      <trkpt lat="41.4047570" lon="-8.7797780">
        <ele>6.5</ele>
        <time>2021-05-17T05:41:12Z</time>
      </trkpt>
      <trkpt lat="41.4047720" lon="-8.7797870">
        <ele>6.5</ele>
        <time>2021-05-17T05:41:13Z</time>
      </trkpt>
      <trkpt lat="41.4047850" lon="-8.7798020">
        <ele>6.5</ele>
        <time>2021-05-17T05:41:14Z</time>
      </trkpt>
      <trkpt lat="41.4048110" lon="-8.7798270">
        <ele>6.4</ele>
        <time>2021-05-17T05:41:15Z</time>
      </trkpt>
      <trkpt lat="41.4048280" lon="-8.7798270">
        <ele>6.4</ele>
        <time>2021-05-17T05:41:17Z</time>
      </trkpt>
      <trkpt lat="41.4048580" lon="-8.7798360">
        <ele>6.4</ele>
        <time>2021-05-17T05:41:18Z</time>
      </trkpt>
      <trkpt lat="41.4048680" lon="-8.7798480">
        <ele>6.4</ele>
        <time>2021-05-17T05:41:19Z</time>
      </trkpt>
      <trkpt lat="41.4048840" lon="-8.7798490">
        <ele>6.4</ele>
        <time>2021-05-17T05:41:20Z</time>
      </trkpt>
      <trkpt lat="41.4048990" lon="-8.7798530">
        <ele>6.4</ele>
        <time>2021-05-17T05:41:21Z</time>
      </trkpt>
      <trkpt lat="41.4049150" lon="-8.7798520">
        <ele>6.4</ele>
        <time>2021-05-17T05:41:22Z</time>
      </trkpt>
      <trkpt lat="41.4049270" lon="-8.7798630">
        <ele>6.4</ele>
        <time>2021-05-17T05:41:23Z</time>
      </trkpt>
      <trkpt lat="41.4049410" lon="-8.7798700">
        <ele>6.4</ele>
        <time>2021-05-17T05:41:24Z</time>
      </trkpt>
      <trkpt lat="41.4049550" lon="-8.7798860">
        <ele>6.3</ele>
        <time>2021-05-17T05:41:25Z</time>
      </trkpt>
      <trkpt lat="41.4049690" lon="-8.7798940">
        <ele>6.3</ele>
        <time>2021-05-17T05:41:26Z</time>
      </trkpt>
      <trkpt lat="41.4049830" lon="-8.7798990">
        <ele>6.3</ele>
        <time>2021-05-17T05:41:27Z</time>
      </trkpt>
      <trkpt lat="41.4049980" lon="-8.7799030">
        <ele>6.3</ele>
        <time>2021-05-17T05:41:28Z</time>
      </trkpt>
      <trkpt lat="41.4050110" lon="-8.7799060">
        <ele>6.3</ele>
        <time>2021-05-17T05:41:29Z</time>
      </trkpt>
      <trkpt lat="41.4050260" lon="-8.7799160">
        <ele>6.3</ele>
        <time>2021-05-17T05:41:30Z</time>
      </trkpt>
      <trkpt lat="41.4050400" lon="-8.7799210">
        <ele>6.3</ele>
        <time>2021-05-17T05:41:31Z</time>
      </trkpt>
      <trkpt lat="41.4050530" lon="-8.7799330">
        <ele>6.3</ele>
        <time>2021-05-17T05:41:32Z</time>
      </trkpt>
      <trkpt lat="41.4050630" lon="-8.7799430">
        <ele>6.3</ele>
        <time>2021-05-17T05:41:33Z</time>
      </trkpt>
      <trkpt lat="41.4050740" lon="-8.7799550">
        <ele>6.3</ele>
        <time>2021-05-17T05:41:34Z</time>
      </trkpt>
      <trkpt lat="41.4050880" lon="-8.7799630">
        <ele>6.2</ele>
        <time>2021-05-17T05:41:35Z</time>
      </trkpt>
      <trkpt lat="41.4051040" lon="-8.7799690">
        <ele>6.2</ele>
        <time>2021-05-17T05:41:36Z</time>
      </trkpt>
      <trkpt lat="41.4051190" lon="-8.7799770">
        <ele>6.2</ele>
        <time>2021-05-17T05:41:37Z</time>
      </trkpt>
      <trkpt lat="41.4051270" lon="-8.7799880">
        <ele>6.2</ele>
        <time>2021-05-17T05:41:38Z</time>
      </trkpt>
      <trkpt lat="41.4051410" lon="-8.7799990">
        <ele>6.2</ele>
        <time>2021-05-17T05:41:39Z</time>
      </trkpt>
      <trkpt lat="41.4051580" lon="-8.7800140">
        <ele>6.2</ele>
        <time>2021-05-17T05:41:40Z</time>
      </trkpt>
      <trkpt lat="41.4051670" lon="-8.7800190">
        <ele>6.2</ele>
        <time>2021-05-17T05:41:41Z</time>
      </trkpt>
      <trkpt lat="41.4051750" lon="-8.7800240">
        <ele>6.2</ele>
        <time>2021-05-17T05:41:42Z</time>
      </trkpt>
      <trkpt lat="41.4051910" lon="-8.7800210">
        <ele>6.2</ele>
        <time>2021-05-17T05:41:43Z</time>
      </trkpt>
      <trkpt lat="41.4052060" lon="-8.7800330">
        <ele>6.2</ele>
        <time>2021-05-17T05:41:44Z</time>
      </trkpt>
      <trkpt lat="41.4052180" lon="-8.7800340">
        <ele>6.2</ele>
        <time>2021-05-17T05:41:45Z</time>
      </trkpt>
      <trkpt lat="41.4052330" lon="-8.7800400">
        <ele>6.2</ele>
        <time>2021-05-17T05:41:47Z</time>
      </trkpt>
      <trkpt lat="41.4052480" lon="-8.7800450">
        <ele>6.1</ele>
        <time>2021-05-17T05:41:48Z</time>
      </trkpt>
      <trkpt lat="41.4052640" lon="-8.7800410">
        <ele>6.1</ele>
        <time>2021-05-17T05:41:49Z</time>
      </trkpt>
      <trkpt lat="41.4052780" lon="-8.7800450">
        <ele>6.1</ele>
        <time>2021-05-17T05:41:50Z</time>
      </trkpt>
      <trkpt lat="41.4052910" lon="-8.7800500">
        <ele>6.1</ele>
        <time>2021-05-17T05:41:51Z</time>
      </trkpt>
      <trkpt lat="41.4053100" lon="-8.7800520">
        <ele>6.1</ele>
        <time>2021-05-17T05:41:52Z</time>
      </trkpt>
      <trkpt lat="41.4053190" lon="-8.7800600">
        <ele>6.1</ele>
        <time>2021-05-17T05:41:53Z</time>
      </trkpt>
      <trkpt lat="41.4053270" lon="-8.7800670">
        <ele>6.1</ele>
        <time>2021-05-17T05:41:54Z</time>
      </trkpt>
      <trkpt lat="41.4053450" lon="-8.7800750">
        <ele>6.1</ele>
        <time>2021-05-17T05:41:55Z</time>
      </trkpt>
      <trkpt lat="41.4053540" lon="-8.7800790">
        <ele>6.1</ele>
        <time>2021-05-17T05:41:56Z</time>
      </trkpt>
      <trkpt lat="41.4053640" lon="-8.7800830">
        <ele>6.1</ele>
        <time>2021-05-17T05:41:57Z</time>
      </trkpt>
      <trkpt lat="41.4053860" lon="-8.7800810">
        <ele>6.1</ele>
        <time>2021-05-17T05:41:58Z</time>
      </trkpt>
      <trkpt lat="41.4053960" lon="-8.7800820">
        <ele>6.1</ele>
        <time>2021-05-17T05:41:59Z</time>
      </trkpt>
      <trkpt lat="41.4054070" lon="-8.7800840">
        <ele>6.0</ele>
        <time>2021-05-17T05:42:00Z</time>
      </trkpt>
      <trkpt lat="41.4054230" lon="-8.7800940">
        <ele>6.0</ele>
        <time>2021-05-17T05:42:01Z</time>
      </trkpt>
      <trkpt lat="41.4054340" lon="-8.7801050">
        <ele>6.0</ele>
        <time>2021-05-17T05:42:02Z</time>
      </trkpt>
      <trkpt lat="41.4054500" lon="-8.7801130">
        <ele>6.0</ele>
        <time>2021-05-17T05:42:03Z</time>
      </trkpt>
      <trkpt lat="41.4054650" lon="-8.7801230">
        <ele>6.0</ele>
        <time>2021-05-17T05:42:04Z</time>
      </trkpt>
      <trkpt lat="41.4054800" lon="-8.7801290">
        <ele>6.0</ele>
        <time>2021-05-17T05:42:05Z</time>
      </trkpt>
      <trkpt lat="41.4054950" lon="-8.7801360">
        <ele>6.0</ele>
        <time>2021-05-17T05:42:06Z</time>
      </trkpt>
      <trkpt lat="41.4055100" lon="-8.7801390">
        <ele>6.0</ele>
        <time>2021-05-17T05:42:07Z</time>
      </trkpt>
      <trkpt lat="41.4055240" lon="-8.7801500">
        <ele>5.9</ele>
        <time>2021-05-17T05:42:08Z</time>
      </trkpt>
      <trkpt lat="41.4055370" lon="-8.7801520">
        <ele>5.9</ele>
        <time>2021-05-17T05:42:09Z</time>
      </trkpt>
      <trkpt lat="41.4055540" lon="-8.7801560">
        <ele>5.9</ele>
        <time>2021-05-17T05:42:10Z</time>
      </trkpt>
      <trkpt lat="41.4055690" lon="-8.7801610">
        <ele>5.9</ele>
        <time>2021-05-17T05:42:11Z</time>
      </trkpt>
      <trkpt lat="41.4055860" lon="-8.7801560">
        <ele>5.9</ele>
        <time>2021-05-17T05:42:12Z</time>
      </trkpt>
      <trkpt lat="41.4056000" lon="-8.7801620">
        <ele>5.9</ele>
        <time>2021-05-17T05:42:13Z</time>
      </trkpt>
      <trkpt lat="41.4056140" lon="-8.7801570">
        <ele>5.8</ele>
        <time>2021-05-17T05:42:14Z</time>
      </trkpt>
      <trkpt lat="41.4056280" lon="-8.7801590">
        <ele>5.8</ele>
        <time>2021-05-17T05:42:15Z</time>
      </trkpt>
      <trkpt lat="41.4056430" lon="-8.7801570">
        <ele>5.8</ele>
        <time>2021-05-17T05:42:16Z</time>
      </trkpt>
      <trkpt lat="41.4056570" lon="-8.7801540">
        <ele>5.8</ele>
        <time>2021-05-17T05:42:17Z</time>
      </trkpt>
      <trkpt lat="41.4056690" lon="-8.7801410">
        <ele>5.7</ele>
        <time>2021-05-17T05:42:18Z</time>
      </trkpt>
      <trkpt lat="41.4056750" lon="-8.7801290">
        <ele>5.7</ele>
        <time>2021-05-17T05:42:19Z</time>
      </trkpt>
      <trkpt lat="41.4056810" lon="-8.7801070">
        <ele>5.7</ele>
        <time>2021-05-17T05:42:20Z</time>
      </trkpt>
      <trkpt lat="41.4056880" lon="-8.7800910">
        <ele>5.7</ele>
        <time>2021-05-17T05:42:21Z</time>
      </trkpt>
      <trkpt lat="41.4057050" lon="-8.7800870">
        <ele>5.6</ele>
        <time>2021-05-17T05:42:22Z</time>
      </trkpt>
      <trkpt lat="41.4057150" lon="-8.7800710">
        <ele>5.6</ele>
        <time>2021-05-17T05:42:23Z</time>
      </trkpt>
      <trkpt lat="41.4057290" lon="-8.7800600">
        <ele>5.6</ele>
        <time>2021-05-17T05:42:24Z</time>
      </trkpt>
      <trkpt lat="41.4057380" lon="-8.7800470">
        <ele>5.5</ele>
        <time>2021-05-17T05:42:25Z</time>
      </trkpt>
      <trkpt lat="41.4057510" lon="-8.7800370">
        <ele>5.5</ele>
        <time>2021-05-17T05:42:26Z</time>
      </trkpt>
      <trkpt lat="41.4057620" lon="-8.7800240">
        <ele>5.5</ele>
        <time>2021-05-17T05:42:27Z</time>
      </trkpt>
      <trkpt lat="41.4057720" lon="-8.7800060">
        <ele>5.4</ele>
        <time>2021-05-17T05:42:28Z</time>
      </trkpt>
      <trkpt lat="41.4057910" lon="-8.7799930">
        <ele>4.9</ele>
        <time>2021-05-17T05:42:29Z</time>
      </trkpt>
      <trkpt lat="41.4057990" lon="-8.7799850">
        <ele>4.9</ele>
        <time>2021-05-17T05:42:30Z</time>
      </trkpt>
      <trkpt lat="41.4058070" lon="-8.7799780">
        <ele>4.9</ele>
        <time>2021-05-17T05:42:31Z</time>
      </trkpt>
      <trkpt lat="41.4058190" lon="-8.7799720">
        <ele>4.9</ele>
        <time>2021-05-17T05:42:32Z</time>
      </trkpt>
      <trkpt lat="41.4058310" lon="-8.7799610">
        <ele>4.9</ele>
        <time>2021-05-17T05:42:33Z</time>
      </trkpt>
      <trkpt lat="41.4058510" lon="-8.7799480">
        <ele>4.8</ele>
        <time>2021-05-17T05:42:34Z</time>
      </trkpt>
      <trkpt lat="41.4058590" lon="-8.7799440">
        <ele>4.8</ele>
        <time>2021-05-17T05:42:35Z</time>
      </trkpt>
      <trkpt lat="41.4058680" lon="-8.7799390">
        <ele>4.8</ele>
        <time>2021-05-17T05:42:36Z</time>
      </trkpt>
      <trkpt lat="41.4058830" lon="-8.7799510">
        <ele>4.8</ele>
        <time>2021-05-17T05:42:37Z</time>
      </trkpt>
      <trkpt lat="41.4058970" lon="-8.7799630">
        <ele>4.8</ele>
        <time>2021-05-17T05:42:38Z</time>
      </trkpt>
      <trkpt lat="41.4059070" lon="-8.7799760">
        <ele>4.8</ele>
        <time>2021-05-17T05:42:39Z</time>
      </trkpt>
      <trkpt lat="41.4059170" lon="-8.7799930">
        <ele>4.8</ele>
        <time>2021-05-17T05:42:40Z</time>
      </trkpt>
      <trkpt lat="41.4059280" lon="-8.7800090">
        <ele>4.8</ele>
        <time>2021-05-17T05:42:41Z</time>
      </trkpt>
      <trkpt lat="41.4059420" lon="-8.7800170">
        <ele>4.7</ele>
        <time>2021-05-17T05:42:42Z</time>
      </trkpt>
      <trkpt lat="41.4059540" lon="-8.7800270">
        <ele>4.7</ele>
        <time>2021-05-17T05:42:43Z</time>
      </trkpt>
      <trkpt lat="41.4059640" lon="-8.7800430">
        <ele>4.7</ele>
        <time>2021-05-17T05:42:44Z</time>
      </trkpt>
      <trkpt lat="41.4059850" lon="-8.7800520">
        <ele>4.7</ele>
        <time>2021-05-17T05:42:45Z</time>
      </trkpt>
      <trkpt lat="41.4059930" lon="-8.7800560">
        <ele>4.7</ele>
        <time>2021-05-17T05:42:46Z</time>
      </trkpt>
      <trkpt lat="41.4060020" lon="-8.7800600">
        <ele>4.7</ele>
        <time>2021-05-17T05:42:47Z</time>
      </trkpt>
      <trkpt lat="41.4060160" lon="-8.7800630">
        <ele>4.7</ele>
        <time>2021-05-17T05:42:48Z</time>
      </trkpt>
      <trkpt lat="41.4060290" lon="-8.7800690">
        <ele>4.7</ele>
        <time>2021-05-17T05:42:49Z</time>
      </trkpt>
      <trkpt lat="41.4060430" lon="-8.7800760">
        <ele>4.7</ele>
        <time>2021-05-17T05:42:50Z</time>
      </trkpt>
      <trkpt lat="41.4060590" lon="-8.7800780">
        <ele>4.7</ele>
        <time>2021-05-17T05:42:51Z</time>
      </trkpt>
      <trkpt lat="41.4060710" lon="-8.7800820">
        <ele>4.7</ele>
        <time>2021-05-17T05:42:52Z</time>
      </trkpt>
      <trkpt lat="41.4060850" lon="-8.7800970">
        <ele>4.7</ele>
        <time>2021-05-17T05:42:53Z</time>
      </trkpt>
      <trkpt lat="41.4061120" lon="-8.7801030">
        <ele>4.7</ele>
        <time>2021-05-17T05:42:54Z</time>
      </trkpt>
      <trkpt lat="41.4061250" lon="-8.7801190">
        <ele>4.7</ele>
        <time>2021-05-17T05:42:55Z</time>
      </trkpt>
      <trkpt lat="41.4061380" lon="-8.7801230">
        <ele>4.7</ele>
        <time>2021-05-17T05:42:57Z</time>
      </trkpt>
      <trkpt lat="41.4061520" lon="-8.7801320">
        <ele>4.7</ele>
        <time>2021-05-17T05:42:58Z</time>
      </trkpt>
      <trkpt lat="41.4061650" lon="-8.7801340">
        <ele>4.7</ele>
        <time>2021-05-17T05:42:59Z</time>
      </trkpt>
      <trkpt lat="41.4061950" lon="-8.7801540">
        <ele>4.7</ele>
        <time>2021-05-17T05:43:00Z</time>
      </trkpt>
      <trkpt lat="41.4062170" lon="-8.7801580">
        <ele>4.7</ele>
        <time>2021-05-17T05:43:01Z</time>
      </trkpt>
      <trkpt lat="41.4062260" lon="-8.7801650">
        <ele>4.7</ele>
        <time>2021-05-17T05:43:03Z</time>
      </trkpt>
      <trkpt lat="41.4062340" lon="-8.7801710">
        <ele>4.7</ele>
        <time>2021-05-17T05:43:04Z</time>
      </trkpt>
      <trkpt lat="41.4062480" lon="-8.7801750">
        <ele>4.7</ele>
        <time>2021-05-17T05:43:05Z</time>
      </trkpt>
      <trkpt lat="41.4062610" lon="-8.7801770">
        <ele>4.7</ele>
        <time>2021-05-17T05:43:06Z</time>
      </trkpt>
      <trkpt lat="41.4062750" lon="-8.7801900">
        <ele>4.7</ele>
        <time>2021-05-17T05:43:07Z</time>
      </trkpt>
      <trkpt lat="41.4062870" lon="-8.7802040">
        <ele>4.7</ele>
        <time>2021-05-17T05:43:08Z</time>
      </trkpt>
      <trkpt lat="41.4063170" lon="-8.7802060">
        <ele>4.7</ele>
        <time>2021-05-17T05:43:09Z</time>
      </trkpt>
      <trkpt lat="41.4063330" lon="-8.7802110">
        <ele>4.7</ele>
        <time>2021-05-17T05:43:10Z</time>
      </trkpt>
      <trkpt lat="41.4063460" lon="-8.7802200">
        <ele>4.8</ele>
        <time>2021-05-17T05:43:11Z</time>
      </trkpt>
      <trkpt lat="41.4063600" lon="-8.7802300">
        <ele>4.8</ele>
        <time>2021-05-17T05:43:12Z</time>
      </trkpt>
      <trkpt lat="41.4063730" lon="-8.7802420">
        <ele>4.8</ele>
        <time>2021-05-17T05:43:13Z</time>
      </trkpt>
      <trkpt lat="41.4063830" lon="-8.7802570">
        <ele>4.8</ele>
        <time>2021-05-17T05:43:14Z</time>
      </trkpt>
      <trkpt lat="41.4063960" lon="-8.7802680">
        <ele>4.8</ele>
        <time>2021-05-17T05:43:15Z</time>
      </trkpt>
      <trkpt lat="41.4064080" lon="-8.7802800">
        <ele>4.8</ele>
        <time>2021-05-17T05:43:16Z</time>
      </trkpt>
      <trkpt lat="41.4064220" lon="-8.7802960">
        <ele>4.8</ele>
        <time>2021-05-17T05:43:17Z</time>
      </trkpt>
      <trkpt lat="41.4064370" lon="-8.7803040">
        <ele>4.8</ele>
        <time>2021-05-17T05:43:18Z</time>
      </trkpt>
      <trkpt lat="41.4064510" lon="-8.7803150">
        <ele>4.9</ele>
        <time>2021-05-17T05:43:19Z</time>
      </trkpt>
      <trkpt lat="41.4064630" lon="-8.7803280">
        <ele>4.9</ele>
        <time>2021-05-17T05:43:20Z</time>
      </trkpt>
      <trkpt lat="41.4064760" lon="-8.7803380">
        <ele>4.9</ele>
        <time>2021-05-17T05:43:21Z</time>
      </trkpt>
      <trkpt lat="41.4064860" lon="-8.7803550">
        <ele>4.9</ele>
        <time>2021-05-17T05:43:22Z</time>
      </trkpt>
      <trkpt lat="41.4065010" lon="-8.7803610">
        <ele>4.9</ele>
        <time>2021-05-17T05:43:23Z</time>
      </trkpt>
      <trkpt lat="41.4065120" lon="-8.7803750">
        <ele>5.0</ele>
        <time>2021-05-17T05:43:24Z</time>
      </trkpt>
      <trkpt lat="41.4065250" lon="-8.7803870">
        <ele>5.0</ele>
        <time>2021-05-17T05:43:25Z</time>
      </trkpt>
      <trkpt lat="41.4065380" lon="-8.7804000">
        <ele>5.0</ele>
        <time>2021-05-17T05:43:26Z</time>
      </trkpt>
      <trkpt lat="41.4065510" lon="-8.7804100">
        <ele>5.0</ele>
        <time>2021-05-17T05:43:27Z</time>
      </trkpt>
      <trkpt lat="41.4065640" lon="-8.7804170">
        <ele>5.0</ele>
        <time>2021-05-17T05:43:28Z</time>
      </trkpt>
      <trkpt lat="41.4065730" lon="-8.7804350">
        <ele>5.0</ele>
        <time>2021-05-17T05:43:29Z</time>
      </trkpt>
      <trkpt lat="41.4065970" lon="-8.7804590">
        <ele>5.0</ele>
        <time>2021-05-17T05:43:31Z</time>
      </trkpt>
      <trkpt lat="41.4066050" lon="-8.7804730">
        <ele>5.0</ele>
        <time>2021-05-17T05:43:32Z</time>
      </trkpt>
      <trkpt lat="41.4066220" lon="-8.7804820">
        <ele>5.0</ele>
        <time>2021-05-17T05:43:34Z</time>
      </trkpt>
      <trkpt lat="41.4066320" lon="-8.7804950">
        <ele>5.0</ele>
        <time>2021-05-17T05:43:35Z</time>
      </trkpt>
      <trkpt lat="41.4066470" lon="-8.7805050">
        <ele>5.0</ele>
        <time>2021-05-17T05:43:36Z</time>
      </trkpt>
      <trkpt lat="41.4066590" lon="-8.7805150">
        <ele>5.0</ele>
        <time>2021-05-17T05:43:37Z</time>
      </trkpt>
      <trkpt lat="41.4066710" lon="-8.7805320">
        <ele>5.0</ele>
        <time>2021-05-17T05:43:38Z</time>
      </trkpt>
      <trkpt lat="41.4066850" lon="-8.7805460">
        <ele>5.0</ele>
        <time>2021-05-17T05:43:39Z</time>
      </trkpt>
      <trkpt lat="41.4066960" lon="-8.7805610">
        <ele>5.0</ele>
        <time>2021-05-17T05:43:40Z</time>
      </trkpt>
      <trkpt lat="41.4067080" lon="-8.7805760">
        <ele>5.1</ele>
        <time>2021-05-17T05:43:41Z</time>
      </trkpt>
      <trkpt lat="41.4067200" lon="-8.7805890">
        <ele>5.1</ele>
        <time>2021-05-17T05:43:42Z</time>
      </trkpt>
      <trkpt lat="41.4067320" lon="-8.7806020">
        <ele>5.1</ele>
        <time>2021-05-17T05:43:43Z</time>
      </trkpt>
      <trkpt lat="41.4067480" lon="-8.7806110">
        <ele>5.1</ele>
        <time>2021-05-17T05:43:44Z</time>
      </trkpt>
      <trkpt lat="41.4067620" lon="-8.7806170">
        <ele>5.1</ele>
        <time>2021-05-17T05:43:45Z</time>
      </trkpt>
      <trkpt lat="41.4067710" lon="-8.7806310">
        <ele>5.1</ele>
        <time>2021-05-17T05:43:46Z</time>
      </trkpt>
      <trkpt lat="41.4067850" lon="-8.7806400">
        <ele>5.1</ele>
        <time>2021-05-17T05:43:47Z</time>
      </trkpt>
      <trkpt lat="41.4067970" lon="-8.7806520">
        <ele>5.1</ele>
        <time>2021-05-17T05:43:48Z</time>
      </trkpt>
      <trkpt lat="41.4068110" lon="-8.7806580">
        <ele>5.1</ele>
        <time>2021-05-17T05:43:49Z</time>
      </trkpt>
      <trkpt lat="41.4068240" lon="-8.7806730">
        <ele>5.2</ele>
        <time>2021-05-17T05:43:50Z</time>
      </trkpt>
      <trkpt lat="41.4068400" lon="-8.7806800">
        <ele>5.2</ele>
        <time>2021-05-17T05:43:51Z</time>
      </trkpt>
      <trkpt lat="41.4068560" lon="-8.7806910">
        <ele>5.2</ele>
        <time>2021-05-17T05:43:52Z</time>
      </trkpt>
      <trkpt lat="41.4068670" lon="-8.7806950">
        <ele>5.2</ele>
        <time>2021-05-17T05:43:53Z</time>
      </trkpt>
      <trkpt lat="41.4068810" lon="-8.7807080">
        <ele>5.2</ele>
        <time>2021-05-17T05:43:54Z</time>
      </trkpt>
      <trkpt lat="41.4068950" lon="-8.7807140">
        <ele>5.2</ele>
        <time>2021-05-17T05:43:55Z</time>
      </trkpt>
      <trkpt lat="41.4069090" lon="-8.7807190">
        <ele>5.2</ele>
        <time>2021-05-17T05:43:56Z</time>
      </trkpt>
      <trkpt lat="41.4069210" lon="-8.7807370">
        <ele>5.3</ele>
        <time>2021-05-17T05:43:57Z</time>
      </trkpt>
      <trkpt lat="41.4069340" lon="-8.7807520">
        <ele>5.3</ele>
        <time>2021-05-17T05:43:58Z</time>
      </trkpt>
      <trkpt lat="41.4069430" lon="-8.7807680">
        <ele>5.3</ele>
        <time>2021-05-17T05:43:59Z</time>
      </trkpt>
      <trkpt lat="41.4069570" lon="-8.7807760">
        <ele>5.3</ele>
        <time>2021-05-17T05:44:00Z</time>
      </trkpt>
      <trkpt lat="41.4069680" lon="-8.7807870">
        <ele>5.3</ele>
        <time>2021-05-17T05:44:01Z</time>
      </trkpt>
      <trkpt lat="41.4069830" lon="-8.7807910">
        <ele>5.3</ele>
        <time>2021-05-17T05:44:02Z</time>
      </trkpt>
      <trkpt lat="41.4069920" lon="-8.7808080">
        <ele>5.3</ele>
        <time>2021-05-17T05:44:03Z</time>
      </trkpt>
      <trkpt lat="41.4070100" lon="-8.7808110">
        <ele>5.3</ele>
        <time>2021-05-17T05:44:04Z</time>
      </trkpt>
      <trkpt lat="41.4070180" lon="-8.7808310">
        <ele>5.4</ele>
        <time>2021-05-17T05:44:05Z</time>
      </trkpt>
      <trkpt lat="41.4070320" lon="-8.7808370">
        <ele>5.4</ele>
        <time>2021-05-17T05:44:06Z</time>
      </trkpt>
      <trkpt lat="41.4070410" lon="-8.7808560">
        <ele>5.4</ele>
        <time>2021-05-17T05:44:07Z</time>
      </trkpt>
      <trkpt lat="41.4070530" lon="-8.7808640">
        <ele>5.4</ele>
        <time>2021-05-17T05:44:08Z</time>
      </trkpt>
      <trkpt lat="41.4070660" lon="-8.7808740">
        <ele>5.4</ele>
        <time>2021-05-17T05:44:09Z</time>
      </trkpt>
      <trkpt lat="41.4070820" lon="-8.7808810">
        <ele>5.4</ele>
        <time>2021-05-17T05:44:10Z</time>
      </trkpt>
      <trkpt lat="41.4070940" lon="-8.7808980">
        <ele>5.4</ele>
        <time>2021-05-17T05:44:11Z</time>
      </trkpt>
      <trkpt lat="41.4071020" lon="-8.7809160">
        <ele>5.5</ele>
        <time>2021-05-17T05:44:12Z</time>
      </trkpt>
      <trkpt lat="41.4071170" lon="-8.7809290">
        <ele>5.5</ele>
        <time>2021-05-17T05:44:13Z</time>
      </trkpt>
      <trkpt lat="41.4071300" lon="-8.7809350">
        <ele>5.5</ele>
        <time>2021-05-17T05:44:14Z</time>
      </trkpt>
      <trkpt lat="41.4071470" lon="-8.7809380">
        <ele>5.5</ele>
        <time>2021-05-17T05:44:15Z</time>
      </trkpt>
      <trkpt lat="41.4071570" lon="-8.7809470">
        <ele>5.5</ele>
        <time>2021-05-17T05:44:16Z</time>
      </trkpt>
      <trkpt lat="41.4071740" lon="-8.7809660">
        <ele>5.5</ele>
        <time>2021-05-17T05:44:17Z</time>
      </trkpt>
      <trkpt lat="41.4071810" lon="-8.7809710">
        <ele>5.5</ele>
        <time>2021-05-17T05:44:18Z</time>
      </trkpt>
      <trkpt lat="41.4071890" lon="-8.7809760">
        <ele>5.5</ele>
        <time>2021-05-17T05:44:19Z</time>
      </trkpt>
      <trkpt lat="41.4071950" lon="-8.7809880">
        <ele>5.6</ele>
        <time>2021-05-17T05:44:20Z</time>
      </trkpt>
      <trkpt lat="41.4072060" lon="-8.7809960">
        <ele>5.6</ele>
        <time>2021-05-17T05:44:21Z</time>
      </trkpt>
      <trkpt lat="41.4072180" lon="-8.7810020">
        <ele>5.6</ele>
        <time>2021-05-17T05:44:22Z</time>
      </trkpt>
      <trkpt lat="41.4072350" lon="-8.7810240">
        <ele>5.6</ele>
        <time>2021-05-17T05:44:23Z</time>
      </trkpt>
      <trkpt lat="41.4072420" lon="-8.7810310">
        <ele>5.6</ele>
        <time>2021-05-17T05:44:24Z</time>
      </trkpt>
      <trkpt lat="41.4072500" lon="-8.7810390">
        <ele>5.6</ele>
        <time>2021-05-17T05:44:25Z</time>
      </trkpt>
      <trkpt lat="41.4072650" lon="-8.7810510">
        <ele>5.6</ele>
        <time>2021-05-17T05:44:26Z</time>
      </trkpt>
      <trkpt lat="41.4072730" lon="-8.7810680">
        <ele>5.6</ele>
        <time>2021-05-17T05:44:27Z</time>
      </trkpt>
      <trkpt lat="41.4072850" lon="-8.7810760">
        <ele>5.6</ele>
        <time>2021-05-17T05:44:28Z</time>
      </trkpt>
      <trkpt lat="41.4073040" lon="-8.7810640">
        <ele>5.7</ele>
        <time>2021-05-17T05:44:29Z</time>
      </trkpt>
      <trkpt lat="41.4073090" lon="-8.7810770">
        <ele>5.7</ele>
        <time>2021-05-17T05:44:30Z</time>
      </trkpt>
      <trkpt lat="41.4073190" lon="-8.7810840">
        <ele>5.7</ele>
        <time>2021-05-17T05:44:31Z</time>
      </trkpt>
      <trkpt lat="41.4073300" lon="-8.7810930">
        <ele>5.7</ele>
        <time>2021-05-17T05:44:32Z</time>
      </trkpt>
      <trkpt lat="41.4073480" lon="-8.7811120">
        <ele>5.7</ele>
        <time>2021-05-17T05:44:33Z</time>
      </trkpt>
      <trkpt lat="41.4073550" lon="-8.7811220">
        <ele>5.7</ele>
        <time>2021-05-17T05:44:34Z</time>
      </trkpt>
      <trkpt lat="41.4073620" lon="-8.7811330">
        <ele>5.7</ele>
        <time>2021-05-17T05:44:35Z</time>
      </trkpt>
      <trkpt lat="41.4073750" lon="-8.7811400">
        <ele>5.7</ele>
        <time>2021-05-17T05:44:36Z</time>
      </trkpt>
      <trkpt lat="41.4073860" lon="-8.7811500">
        <ele>5.7</ele>
        <time>2021-05-17T05:44:37Z</time>
      </trkpt>
      <trkpt lat="41.4074010" lon="-8.7811650">
        <ele>5.7</ele>
        <time>2021-05-17T05:44:38Z</time>
      </trkpt>
      <trkpt lat="41.4074130" lon="-8.7811780">
        <ele>5.7</ele>
        <time>2021-05-17T05:44:39Z</time>
      </trkpt>
      <trkpt lat="41.4074290" lon="-8.7811850">
        <ele>5.7</ele>
        <time>2021-05-17T05:44:40Z</time>
      </trkpt>
      <trkpt lat="41.4074410" lon="-8.7812000">
        <ele>5.8</ele>
        <time>2021-05-17T05:44:41Z</time>
      </trkpt>
      <trkpt lat="41.4074560" lon="-8.7812120">
        <ele>5.8</ele>
        <time>2021-05-17T05:44:42Z</time>
      </trkpt>
      <trkpt lat="41.4074670" lon="-8.7812210">
        <ele>5.8</ele>
        <time>2021-05-17T05:44:43Z</time>
      </trkpt>
      <trkpt lat="41.4074840" lon="-8.7812310">
        <ele>5.8</ele>
        <time>2021-05-17T05:44:44Z</time>
      </trkpt>
      <trkpt lat="41.4074950" lon="-8.7812410">
        <ele>5.8</ele>
        <time>2021-05-17T05:44:45Z</time>
      </trkpt>
      <trkpt lat="41.4075150" lon="-8.7812580">
        <ele>5.8</ele>
        <time>2021-05-17T05:44:46Z</time>
      </trkpt>
      <trkpt lat="41.4075210" lon="-8.7812660">
        <ele>5.8</ele>
        <time>2021-05-17T05:44:47Z</time>
      </trkpt>
      <trkpt lat="41.4075280" lon="-8.7812740">
        <ele>5.8</ele>
        <time>2021-05-17T05:44:48Z</time>
      </trkpt>
      <trkpt lat="41.4075400" lon="-8.7812880">
        <ele>5.8</ele>
        <time>2021-05-17T05:44:49Z</time>
      </trkpt>
      <trkpt lat="41.4075530" lon="-8.7813010">
        <ele>5.8</ele>
        <time>2021-05-17T05:44:50Z</time>
      </trkpt>
      <trkpt lat="41.4075680" lon="-8.7813130">
        <ele>5.8</ele>
        <time>2021-05-17T05:44:51Z</time>
      </trkpt>
      <trkpt lat="41.4075800" lon="-8.7813170">
        <ele>5.8</ele>
        <time>2021-05-17T05:44:52Z</time>
      </trkpt>
      <trkpt lat="41.4075950" lon="-8.7813260">
        <ele>5.8</ele>
        <time>2021-05-17T05:44:53Z</time>
      </trkpt>
      <trkpt lat="41.4076110" lon="-8.7813340">
        <ele>5.7</ele>
        <time>2021-05-17T05:44:54Z</time>
      </trkpt>
      <trkpt lat="41.4076220" lon="-8.7813490">
        <ele>5.7</ele>
        <time>2021-05-17T05:44:55Z</time>
      </trkpt>
      <trkpt lat="41.4076390" lon="-8.7813610">
        <ele>5.7</ele>
        <time>2021-05-17T05:44:56Z</time>
      </trkpt>
      <trkpt lat="41.4076510" lon="-8.7813700">
        <ele>5.7</ele>
        <time>2021-05-17T05:44:57Z</time>
      </trkpt>
      <trkpt lat="41.4076670" lon="-8.7813740">
        <ele>5.7</ele>
        <time>2021-05-17T05:44:58Z</time>
      </trkpt>
      <trkpt lat="41.4076740" lon="-8.7813760">
        <ele>5.7</ele>
        <time>2021-05-17T05:44:59Z</time>
      </trkpt>
      <trkpt lat="41.4076620" lon="-8.7813660">
        <ele>5.7</ele>
        <time>2021-05-17T05:45:00Z</time>
      </trkpt>
      <trkpt lat="41.4076590" lon="-8.7813700">
        <ele>5.7</ele>
        <time>2021-05-17T05:45:01Z</time>
      </trkpt>
      <trkpt lat="41.4076670" lon="-8.7813760">
        <ele>5.7</ele>
        <time>2021-05-17T05:45:02Z</time>
      </trkpt>
      <trkpt lat="41.4076880" lon="-8.7813840">
        <ele>5.7</ele>
        <time>2021-05-17T05:45:03Z</time>
      </trkpt>
      <trkpt lat="41.4076940" lon="-8.7813900">
        <ele>5.7</ele>
        <time>2021-05-17T05:45:04Z</time>
      </trkpt>
      <trkpt lat="41.4077060" lon="-8.7814030">
        <ele>5.7</ele>
        <time>2021-05-17T05:45:05Z</time>
      </trkpt>
      <trkpt lat="41.4077210" lon="-8.7814090">
        <ele>5.7</ele>
        <time>2021-05-17T05:45:06Z</time>
      </trkpt>
      <trkpt lat="41.4077330" lon="-8.7814170">
        <ele>5.7</ele>
        <time>2021-05-17T05:45:07Z</time>
      </trkpt>
      <trkpt lat="41.4077490" lon="-8.7814270">
        <ele>5.7</ele>
        <time>2021-05-17T05:45:08Z</time>
      </trkpt>
      <trkpt lat="41.4077650" lon="-8.7814350">
        <ele>5.7</ele>
        <time>2021-05-17T05:45:09Z</time>
      </trkpt>
      <trkpt lat="41.4077810" lon="-8.7814390">
        <ele>5.7</ele>
        <time>2021-05-17T05:45:10Z</time>
      </trkpt>
      <trkpt lat="41.4077910" lon="-8.7814530">
        <ele>5.7</ele>
        <time>2021-05-17T05:45:11Z</time>
      </trkpt>
      <trkpt lat="41.4078050" lon="-8.7814600">
        <ele>5.6</ele>
        <time>2021-05-17T05:45:12Z</time>
      </trkpt>
      <trkpt lat="41.4078220" lon="-8.7814670">
        <ele>5.6</ele>
        <time>2021-05-17T05:45:13Z</time>
      </trkpt>
      <trkpt lat="41.4078370" lon="-8.7814760">
        <ele>5.6</ele>
        <time>2021-05-17T05:45:14Z</time>
      </trkpt>
      <trkpt lat="41.4078520" lon="-8.7814840">
        <ele>5.6</ele>
        <time>2021-05-17T05:45:15Z</time>
      </trkpt>
      <trkpt lat="41.4078660" lon="-8.7814900">
        <ele>5.6</ele>
        <time>2021-05-17T05:45:16Z</time>
      </trkpt>
      <trkpt lat="41.4078790" lon="-8.7814960">
        <ele>5.6</ele>
        <time>2021-05-17T05:45:17Z</time>
      </trkpt>
      <trkpt lat="41.4079100" lon="-8.7815160">
        <ele>5.6</ele>
        <time>2021-05-17T05:45:18Z</time>
      </trkpt>
      <trkpt lat="41.4079240" lon="-8.7815310">
        <ele>5.6</ele>
        <time>2021-05-17T05:45:19Z</time>
      </trkpt>
      <trkpt lat="41.4079370" lon="-8.7815440">
        <ele>5.6</ele>
        <time>2021-05-17T05:45:20Z</time>
      </trkpt>
      <trkpt lat="41.4079500" lon="-8.7815450">
        <ele>5.6</ele>
        <time>2021-05-17T05:45:21Z</time>
      </trkpt>
      <trkpt lat="41.4079620" lon="-8.7815500">
        <ele>5.6</ele>
        <time>2021-05-17T05:45:22Z</time>
      </trkpt>
      <trkpt lat="41.4079780" lon="-8.7815510">
        <ele>5.6</ele>
        <time>2021-05-17T05:45:23Z</time>
      </trkpt>
      <trkpt lat="41.4079920" lon="-8.7815640">
        <ele>5.6</ele>
        <time>2021-05-17T05:45:24Z</time>
      </trkpt>
      <trkpt lat="41.4080010" lon="-8.7815730">
        <ele>5.6</ele>
        <time>2021-05-17T05:45:25Z</time>
      </trkpt>
      <trkpt lat="41.4080090" lon="-8.7815810">
        <ele>5.6</ele>
        <time>2021-05-17T05:45:26Z</time>
      </trkpt>
      <trkpt lat="41.4080270" lon="-8.7815980">
        <ele>5.6</ele>
        <time>2021-05-17T05:45:27Z</time>
      </trkpt>
      <trkpt lat="41.4080350" lon="-8.7816020">
        <ele>5.6</ele>
        <time>2021-05-17T05:45:28Z</time>
      </trkpt>
      <trkpt lat="41.4080430" lon="-8.7816070">
        <ele>5.6</ele>
        <time>2021-05-17T05:45:29Z</time>
      </trkpt>
      <trkpt lat="41.4080560" lon="-8.7816200">
        <ele>5.6</ele>
        <time>2021-05-17T05:45:30Z</time>
      </trkpt>
      <trkpt lat="41.4080710" lon="-8.7816260">
        <ele>5.6</ele>
        <time>2021-05-17T05:45:31Z</time>
      </trkpt>
      <trkpt lat="41.4080880" lon="-8.7816270">
        <ele>5.6</ele>
        <time>2021-05-17T05:45:32Z</time>
      </trkpt>
      <trkpt lat="41.4081020" lon="-8.7816360">
        <ele>5.6</ele>
        <time>2021-05-17T05:45:33Z</time>
      </trkpt>
      <trkpt lat="41.4081170" lon="-8.7816430">
        <ele>5.6</ele>
        <time>2021-05-17T05:45:34Z</time>
      </trkpt>
      <trkpt lat="41.4081340" lon="-8.7816380">
        <ele>5.6</ele>
        <time>2021-05-17T05:45:35Z</time>
      </trkpt>
      <trkpt lat="41.4081480" lon="-8.7816520">
        <ele>5.6</ele>
        <time>2021-05-17T05:45:36Z</time>
      </trkpt>
      <trkpt lat="41.4081630" lon="-8.7816580">
        <ele>5.6</ele>
        <time>2021-05-17T05:45:37Z</time>
      </trkpt>
      <trkpt lat="41.4081780" lon="-8.7816690">
        <ele>5.6</ele>
        <time>2021-05-17T05:45:38Z</time>
      </trkpt>
      <trkpt lat="41.4081920" lon="-8.7816830">
        <ele>5.6</ele>
        <time>2021-05-17T05:45:39Z</time>
      </trkpt>
      <trkpt lat="41.4082060" lon="-8.7816900">
        <ele>5.6</ele>
        <time>2021-05-17T05:45:40Z</time>
      </trkpt>
      <trkpt lat="41.4082210" lon="-8.7817000">
        <ele>5.6</ele>
        <time>2021-05-17T05:45:41Z</time>
      </trkpt>
      <trkpt lat="41.4082370" lon="-8.7817030">
        <ele>5.6</ele>
        <time>2021-05-17T05:45:42Z</time>
      </trkpt>
      <trkpt lat="41.4082480" lon="-8.7817250">
        <ele>5.6</ele>
        <time>2021-05-17T05:45:43Z</time>
      </trkpt>
      <trkpt lat="41.4082610" lon="-8.7817300">
        <ele>5.5</ele>
        <time>2021-05-17T05:45:44Z</time>
      </trkpt>
      <trkpt lat="41.4082750" lon="-8.7817350">
        <ele>5.5</ele>
        <time>2021-05-17T05:45:45Z</time>
      </trkpt>
      <trkpt lat="41.4082860" lon="-8.7817440">
        <ele>5.5</ele>
        <time>2021-05-17T05:45:46Z</time>
      </trkpt>
      <trkpt lat="41.4083020" lon="-8.7817530">
        <ele>5.5</ele>
        <time>2021-05-17T05:45:47Z</time>
      </trkpt>
      <trkpt lat="41.4083140" lon="-8.7817660">
        <ele>5.5</ele>
        <time>2021-05-17T05:45:48Z</time>
      </trkpt>
      <trkpt lat="41.4083270" lon="-8.7817820">
        <ele>5.5</ele>
        <time>2021-05-17T05:45:49Z</time>
      </trkpt>
      <trkpt lat="41.4083390" lon="-8.7817970">
        <ele>5.5</ele>
        <time>2021-05-17T05:45:50Z</time>
      </trkpt>
      <trkpt lat="41.4083550" lon="-8.7818070">
        <ele>5.5</ele>
        <time>2021-05-17T05:45:51Z</time>
      </trkpt>
      <trkpt lat="41.4083660" lon="-8.7818180">
        <ele>5.4</ele>
        <time>2021-05-17T05:45:52Z</time>
      </trkpt>
      <trkpt lat="41.4083820" lon="-8.7818260">
        <ele>5.4</ele>
        <time>2021-05-17T05:45:53Z</time>
      </trkpt>
      <trkpt lat="41.4083980" lon="-8.7818320">
        <ele>5.4</ele>
        <time>2021-05-17T05:45:54Z</time>
      </trkpt>
      <trkpt lat="41.4084080" lon="-8.7818490">
        <ele>5.4</ele>
        <time>2021-05-17T05:45:55Z</time>
      </trkpt>
      <trkpt lat="41.4084210" lon="-8.7818600">
        <ele>5.4</ele>
        <time>2021-05-17T05:45:56Z</time>
      </trkpt>
      <trkpt lat="41.4084330" lon="-8.7818690">
        <ele>5.4</ele>
        <time>2021-05-17T05:45:57Z</time>
      </trkpt>
      <trkpt lat="41.4084480" lon="-8.7818800">
        <ele>5.3</ele>
        <time>2021-05-17T05:45:58Z</time>
      </trkpt>
      <trkpt lat="41.4084620" lon="-8.7818930">
        <ele>5.3</ele>
        <time>2021-05-17T05:45:59Z</time>
      </trkpt>
      <trkpt lat="41.4084780" lon="-8.7819000">
        <ele>5.3</ele>
        <time>2021-05-17T05:46:00Z</time>
      </trkpt>
      <trkpt lat="41.4084910" lon="-8.7819090">
        <ele>5.3</ele>
        <time>2021-05-17T05:46:01Z</time>
      </trkpt>
      <trkpt lat="41.4085050" lon="-8.7819190">
        <ele>5.3</ele>
        <time>2021-05-17T05:46:02Z</time>
      </trkpt>
      <trkpt lat="41.4085140" lon="-8.7819350">
        <ele>5.3</ele>
        <time>2021-05-17T05:46:03Z</time>
      </trkpt>
      <trkpt lat="41.4085420" lon="-8.7819420">
        <ele>5.3</ele>
        <time>2021-05-17T05:46:04Z</time>
      </trkpt>
      <trkpt lat="41.4085510" lon="-8.7819440">
        <ele>5.2</ele>
        <time>2021-05-17T05:46:05Z</time>
      </trkpt>
      <trkpt lat="41.4085570" lon="-8.7819650">
        <ele>5.2</ele>
        <time>2021-05-17T05:46:06Z</time>
      </trkpt>
      <trkpt lat="41.4085710" lon="-8.7819780">
        <ele>5.2</ele>
        <time>2021-05-17T05:46:07Z</time>
      </trkpt>
      <trkpt lat="41.4085820" lon="-8.7819930">
        <ele>5.2</ele>
        <time>2021-05-17T05:46:08Z</time>
      </trkpt>
      <trkpt lat="41.4086000" lon="-8.7819980">
        <ele>5.2</ele>
        <time>2021-05-17T05:46:09Z</time>
      </trkpt>
      <trkpt lat="41.4086140" lon="-8.7820060">
        <ele>5.2</ele>
        <time>2021-05-17T05:46:10Z</time>
      </trkpt>
      <trkpt lat="41.4086290" lon="-8.7820160">
        <ele>5.2</ele>
        <time>2021-05-17T05:46:11Z</time>
      </trkpt>
      <trkpt lat="41.4086430" lon="-8.7820220">
        <ele>5.2</ele>
        <time>2021-05-17T05:46:12Z</time>
      </trkpt>
      <trkpt lat="41.4086550" lon="-8.7820350">
        <ele>5.2</ele>
        <time>2021-05-17T05:46:13Z</time>
      </trkpt>
      <trkpt lat="41.4086730" lon="-8.7820540">
        <ele>5.2</ele>
        <time>2021-05-17T05:46:14Z</time>
      </trkpt>
      <trkpt lat="41.4086820" lon="-8.7820610">
        <ele>5.2</ele>
        <time>2021-05-17T05:46:15Z</time>
      </trkpt>
      <trkpt lat="41.4086900" lon="-8.7820690">
        <ele>5.2</ele>
        <time>2021-05-17T05:46:16Z</time>
      </trkpt>
      <trkpt lat="41.4087010" lon="-8.7820870">
        <ele>5.1</ele>
        <time>2021-05-17T05:46:17Z</time>
      </trkpt>
      <trkpt lat="41.4087150" lon="-8.7821000">
        <ele>5.1</ele>
        <time>2021-05-17T05:46:18Z</time>
      </trkpt>
      <trkpt lat="41.4087220" lon="-8.7821200">
        <ele>5.1</ele>
        <time>2021-05-17T05:46:19Z</time>
      </trkpt>
      <trkpt lat="41.4087350" lon="-8.7821270">
        <ele>5.1</ele>
        <time>2021-05-17T05:46:20Z</time>
      </trkpt>
      <trkpt lat="41.4087480" lon="-8.7821380">
        <ele>5.1</ele>
        <time>2021-05-17T05:46:21Z</time>
      </trkpt>
      <trkpt lat="41.4087650" lon="-8.7821430">
        <ele>5.1</ele>
        <time>2021-05-17T05:46:22Z</time>
      </trkpt>
      <trkpt lat="41.4087770" lon="-8.7821520">
        <ele>5.1</ele>
        <time>2021-05-17T05:46:23Z</time>
      </trkpt>
      <trkpt lat="41.4087900" lon="-8.7821600">
        <ele>5.1</ele>
        <time>2021-05-17T05:46:24Z</time>
      </trkpt>
      <trkpt lat="41.4088020" lon="-8.7821730">
        <ele>5.1</ele>
        <time>2021-05-17T05:46:25Z</time>
      </trkpt>
      <trkpt lat="41.4088180" lon="-8.7821790">
        <ele>5.1</ele>
        <time>2021-05-17T05:46:26Z</time>
      </trkpt>
      <trkpt lat="41.4088310" lon="-8.7821920">
        <ele>5.0</ele>
        <time>2021-05-17T05:46:27Z</time>
      </trkpt>
      <trkpt lat="41.4088440" lon="-8.7821980">
        <ele>5.0</ele>
        <time>2021-05-17T05:46:28Z</time>
      </trkpt>
      <trkpt lat="41.4088560" lon="-8.7822070">
        <ele>5.0</ele>
        <time>2021-05-17T05:46:29Z</time>
      </trkpt>
      <trkpt lat="41.4088660" lon="-8.7822200">
        <ele>5.0</ele>
        <time>2021-05-17T05:46:30Z</time>
      </trkpt>
      <trkpt lat="41.4088810" lon="-8.7822400">
        <ele>5.0</ele>
        <time>2021-05-17T05:46:31Z</time>
      </trkpt>
      <trkpt lat="41.4088900" lon="-8.7822410">
        <ele>5.0</ele>
        <time>2021-05-17T05:46:32Z</time>
      </trkpt>
      <trkpt lat="41.4089000" lon="-8.7822430">
        <ele>5.0</ele>
        <time>2021-05-17T05:46:33Z</time>
      </trkpt>
      <trkpt lat="41.4089120" lon="-8.7822520">
        <ele>5.0</ele>
        <time>2021-05-17T05:46:34Z</time>
      </trkpt>
      <trkpt lat="41.4089290" lon="-8.7822490">
        <ele>5.0</ele>
        <time>2021-05-17T05:46:35Z</time>
      </trkpt>
      <trkpt lat="41.4089470" lon="-8.7822630">
        <ele>4.9</ele>
        <time>2021-05-17T05:46:36Z</time>
      </trkpt>
      <trkpt lat="41.4089550" lon="-8.7822700">
        <ele>4.9</ele>
        <time>2021-05-17T05:46:37Z</time>
      </trkpt>
      <trkpt lat="41.4089620" lon="-8.7822770">
        <ele>4.9</ele>
        <time>2021-05-17T05:46:38Z</time>
      </trkpt>
      <trkpt lat="41.4089790" lon="-8.7822940">
        <ele>4.9</ele>
        <time>2021-05-17T05:46:39Z</time>
      </trkpt>
      <trkpt lat="41.4089880" lon="-8.7823000">
        <ele>4.9</ele>
        <time>2021-05-17T05:46:40Z</time>
      </trkpt>
      <trkpt lat="41.4089970" lon="-8.7823060">
        <ele>4.9</ele>
        <time>2021-05-17T05:46:41Z</time>
      </trkpt>
      <trkpt lat="41.4090150" lon="-8.7823230">
        <ele>4.9</ele>
        <time>2021-05-17T05:46:42Z</time>
      </trkpt>
      <trkpt lat="41.4090210" lon="-8.7823300">
        <ele>4.9</ele>
        <time>2021-05-17T05:46:43Z</time>
      </trkpt>
      <trkpt lat="41.4090280" lon="-8.7823370">
        <ele>4.9</ele>
        <time>2021-05-17T05:46:44Z</time>
      </trkpt>
      <trkpt lat="41.4090400" lon="-8.7823470">
        <ele>4.9</ele>
        <time>2021-05-17T05:46:45Z</time>
      </trkpt>
      <trkpt lat="41.4090530" lon="-8.7823520">
        <ele>4.8</ele>
        <time>2021-05-17T05:46:46Z</time>
      </trkpt>
      <trkpt lat="41.4090670" lon="-8.7823580">
        <ele>4.8</ele>
        <time>2021-05-17T05:46:47Z</time>
      </trkpt>
      <trkpt lat="41.4090760" lon="-8.7823640">
        <ele>4.8</ele>
        <time>2021-05-17T05:46:48Z</time>
      </trkpt>
      <trkpt lat="41.4090850" lon="-8.7823720">
        <ele>4.8</ele>
        <time>2021-05-17T05:46:49Z</time>
      </trkpt>
      <trkpt lat="41.4090990" lon="-8.7823780">
        <ele>4.8</ele>
        <time>2021-05-17T05:46:50Z</time>
      </trkpt>
      <trkpt lat="41.4091160" lon="-8.7823850">
        <ele>4.8</ele>
        <time>2021-05-17T05:46:51Z</time>
      </trkpt>
      <trkpt lat="41.4091300" lon="-8.7823880">
        <ele>4.8</ele>
        <time>2021-05-17T05:46:52Z</time>
      </trkpt>
      <trkpt lat="41.4091430" lon="-8.7824090">
        <ele>4.8</ele>
        <time>2021-05-17T05:46:53Z</time>
      </trkpt>
      <trkpt lat="41.4091550" lon="-8.7824140">
        <ele>4.8</ele>
        <time>2021-05-17T05:46:54Z</time>
      </trkpt>
      <trkpt lat="41.4091690" lon="-8.7824270">
        <ele>4.8</ele>
        <time>2021-05-17T05:46:55Z</time>
      </trkpt>
      <trkpt lat="41.4091810" lon="-8.7824330">
        <ele>4.7</ele>
        <time>2021-05-17T05:46:56Z</time>
      </trkpt>
      <trkpt lat="41.4091970" lon="-8.7824420">
        <ele>4.7</ele>
        <time>2021-05-17T05:46:57Z</time>
      </trkpt>
      <trkpt lat="41.4092100" lon="-8.7824490">
        <ele>4.7</ele>
        <time>2021-05-17T05:46:58Z</time>
      </trkpt>
      <trkpt lat="41.4092210" lon="-8.7824630">
        <ele>4.7</ele>
        <time>2021-05-17T05:46:59Z</time>
      </trkpt>
      <trkpt lat="41.4092340" lon="-8.7824720">
        <ele>4.7</ele>
        <time>2021-05-17T05:47:00Z</time>
      </trkpt>
      <trkpt lat="41.4092450" lon="-8.7824850">
        <ele>4.7</ele>
        <time>2021-05-17T05:47:01Z</time>
      </trkpt>
      <trkpt lat="41.4092610" lon="-8.7824890">
        <ele>4.7</ele>
        <time>2021-05-17T05:47:02Z</time>
      </trkpt>
      <trkpt lat="41.4092720" lon="-8.7825010">
        <ele>4.7</ele>
        <time>2021-05-17T05:47:03Z</time>
      </trkpt>
      <trkpt lat="41.4092860" lon="-8.7825110">
        <ele>4.7</ele>
        <time>2021-05-17T05:47:04Z</time>
      </trkpt>
      <trkpt lat="41.4092980" lon="-8.7825220">
        <ele>4.7</ele>
        <time>2021-05-17T05:47:05Z</time>
      </trkpt>
      <trkpt lat="41.4093210" lon="-8.7825430">
        <ele>4.7</ele>
        <time>2021-05-17T05:47:06Z</time>
      </trkpt>
      <trkpt lat="41.4093300" lon="-8.7825510">
        <ele>4.6</ele>
        <time>2021-05-17T05:47:08Z</time>
      </trkpt>
      <trkpt lat="41.4093380" lon="-8.7825600">
        <ele>4.6</ele>
        <time>2021-05-17T05:47:09Z</time>
      </trkpt>
      <trkpt lat="41.4093470" lon="-8.7825680">
        <ele>4.6</ele>
        <time>2021-05-17T05:47:10Z</time>
      </trkpt>
      <trkpt lat="41.4093560" lon="-8.7825770">
        <ele>4.6</ele>
        <time>2021-05-17T05:47:11Z</time>
      </trkpt>
      <trkpt lat="41.4093690" lon="-8.7825870">
        <ele>4.6</ele>
        <time>2021-05-17T05:47:12Z</time>
      </trkpt>
      <trkpt lat="41.4093800" lon="-8.7825960">
        <ele>4.6</ele>
        <time>2021-05-17T05:47:13Z</time>
      </trkpt>
      <trkpt lat="41.4093950" lon="-8.7826040">
        <ele>4.6</ele>
        <time>2021-05-17T05:47:14Z</time>
      </trkpt>
      <trkpt lat="41.4094180" lon="-8.7826230">
        <ele>4.6</ele>
        <time>2021-05-17T05:47:15Z</time>
      </trkpt>
      <trkpt lat="41.4094350" lon="-8.7826400">
        <ele>4.6</ele>
        <time>2021-05-17T05:47:16Z</time>
      </trkpt>
      <trkpt lat="41.4094410" lon="-8.7826470">
        <ele>4.6</ele>
        <time>2021-05-17T05:47:17Z</time>
      </trkpt>
      <trkpt lat="41.4094540" lon="-8.7826670">
        <ele>4.6</ele>
        <time>2021-05-17T05:47:18Z</time>
      </trkpt>
      <trkpt lat="41.4094600" lon="-8.7826760">
        <ele>4.6</ele>
        <time>2021-05-17T05:47:19Z</time>
      </trkpt>
      <trkpt lat="41.4094660" lon="-8.7826850">
        <ele>4.6</ele>
        <time>2021-05-17T05:47:20Z</time>
      </trkpt>
      <trkpt lat="41.4094770" lon="-8.7827000">
        <ele>4.6</ele>
        <time>2021-05-17T05:47:21Z</time>
      </trkpt>
      <trkpt lat="41.4094870" lon="-8.7827140">
        <ele>4.6</ele>
        <time>2021-05-17T05:47:22Z</time>
      </trkpt>
      <trkpt lat="41.4094960" lon="-8.7827300">
        <ele>4.6</ele>
        <time>2021-05-17T05:47:23Z</time>
      </trkpt>
      <trkpt lat="41.4095060" lon="-8.7827430">
        <ele>4.6</ele>
        <time>2021-05-17T05:47:24Z</time>
      </trkpt>
      <trkpt lat="41.4095200" lon="-8.7827470">
        <ele>4.6</ele>
        <time>2021-05-17T05:47:25Z</time>
      </trkpt>
      <trkpt lat="41.4095360" lon="-8.7827560">
        <ele>4.6</ele>
        <time>2021-05-17T05:47:26Z</time>
      </trkpt>
      <trkpt lat="41.4095470" lon="-8.7827680">
        <ele>4.6</ele>
        <time>2021-05-17T05:47:27Z</time>
      </trkpt>
      <trkpt lat="41.4095600" lon="-8.7827760">
        <ele>4.6</ele>
        <time>2021-05-17T05:47:28Z</time>
      </trkpt>
      <trkpt lat="41.4095710" lon="-8.7827890">
        <ele>4.6</ele>
        <time>2021-05-17T05:47:29Z</time>
      </trkpt>
      <trkpt lat="41.4095810" lon="-8.7828030">
        <ele>4.6</ele>
        <time>2021-05-17T05:47:30Z</time>
      </trkpt>
      <trkpt lat="41.4095900" lon="-8.7828140">
        <ele>4.6</ele>
        <time>2021-05-17T05:47:31Z</time>
      </trkpt>
      <trkpt lat="41.4096020" lon="-8.7828320">
        <ele>4.6</ele>
        <time>2021-05-17T05:47:32Z</time>
      </trkpt>
      <trkpt lat="41.4096210" lon="-8.7828470">
        <ele>4.6</ele>
        <time>2021-05-17T05:47:33Z</time>
      </trkpt>
      <trkpt lat="41.4096290" lon="-8.7828520">
        <ele>4.6</ele>
        <time>2021-05-17T05:47:34Z</time>
      </trkpt>
      <trkpt lat="41.4096370" lon="-8.7828570">
        <ele>4.6</ele>
        <time>2021-05-17T05:47:35Z</time>
      </trkpt>
      <trkpt lat="41.4096490" lon="-8.7828640">
        <ele>4.7</ele>
        <time>2021-05-17T05:47:36Z</time>
      </trkpt>
      <trkpt lat="41.4096630" lon="-8.7828770">
        <ele>4.8</ele>
        <time>2021-05-17T05:47:37Z</time>
      </trkpt>
      <trkpt lat="41.4096760" lon="-8.7828850">
        <ele>4.8</ele>
        <time>2021-05-17T05:47:38Z</time>
      </trkpt>
      <trkpt lat="41.4096870" lon="-8.7828960">
        <ele>4.8</ele>
        <time>2021-05-17T05:47:39Z</time>
      </trkpt>
      <trkpt lat="41.4096970" lon="-8.7829100">
        <ele>4.9</ele>
        <time>2021-05-17T05:47:40Z</time>
      </trkpt>
      <trkpt lat="41.4097080" lon="-8.7829200">
        <ele>4.9</ele>
        <time>2021-05-17T05:47:41Z</time>
      </trkpt>
      <trkpt lat="41.4097240" lon="-8.7829230">
        <ele>4.9</ele>
        <time>2021-05-17T05:47:42Z</time>
      </trkpt>
      <trkpt lat="41.4097370" lon="-8.7829370">
        <ele>4.9</ele>
        <time>2021-05-17T05:47:43Z</time>
      </trkpt>
      <trkpt lat="41.4097490" lon="-8.7829450">
        <ele>5.0</ele>
        <time>2021-05-17T05:47:44Z</time>
      </trkpt>
      <trkpt lat="41.4097610" lon="-8.7829570">
        <ele>5.0</ele>
        <time>2021-05-17T05:47:45Z</time>
      </trkpt>
      <trkpt lat="41.4097750" lon="-8.7829680">
        <ele>5.0</ele>
        <time>2021-05-17T05:47:46Z</time>
      </trkpt>
      <trkpt lat="41.4097870" lon="-8.7829800">
        <ele>5.0</ele>
        <time>2021-05-17T05:47:47Z</time>
      </trkpt>
      <trkpt lat="41.4098020" lon="-8.7829870">
        <ele>5.0</ele>
        <time>2021-05-17T05:47:48Z</time>
      </trkpt>
      <trkpt lat="41.4098160" lon="-8.7829930">
        <ele>5.1</ele>
        <time>2021-05-17T05:47:49Z</time>
      </trkpt>
      <trkpt lat="41.4098310" lon="-8.7830030">
        <ele>5.1</ele>
        <time>2021-05-17T05:47:50Z</time>
      </trkpt>
      <trkpt lat="41.4098430" lon="-8.7830110">
        <ele>5.1</ele>
        <time>2021-05-17T05:47:51Z</time>
      </trkpt>
      <trkpt lat="41.4098550" lon="-8.7830230">
        <ele>5.1</ele>
        <time>2021-05-17T05:47:52Z</time>
      </trkpt>
      <trkpt lat="41.4098700" lon="-8.7830310">
        <ele>5.2</ele>
        <time>2021-05-17T05:47:53Z</time>
      </trkpt>
      <trkpt lat="41.4098830" lon="-8.7830400">
        <ele>5.2</ele>
        <time>2021-05-17T05:47:54Z</time>
      </trkpt>
      <trkpt lat="41.4098960" lon="-8.7830530">
        <ele>5.2</ele>
        <time>2021-05-17T05:47:55Z</time>
      </trkpt>
      <trkpt lat="41.4099110" lon="-8.7830580">
        <ele>5.2</ele>
        <time>2021-05-17T05:47:56Z</time>
      </trkpt>
      <trkpt lat="41.4099210" lon="-8.7830720">
        <ele>5.2</ele>
        <time>2021-05-17T05:47:57Z</time>
      </trkpt>
      <trkpt lat="41.4099330" lon="-8.7830860">
        <ele>5.2</ele>
        <time>2021-05-17T05:47:58Z</time>
      </trkpt>
      <trkpt lat="41.4099470" lon="-8.7830920">
        <ele>5.3</ele>
        <time>2021-05-17T05:47:59Z</time>
      </trkpt>
      <trkpt lat="41.4099600" lon="-8.7831020">
        <ele>5.3</ele>
        <time>2021-05-17T05:48:00Z</time>
      </trkpt>
      <trkpt lat="41.4099720" lon="-8.7831130">
        <ele>5.3</ele>
        <time>2021-05-17T05:48:01Z</time>
      </trkpt>
      <trkpt lat="41.4099870" lon="-8.7831210">
        <ele>5.3</ele>
        <time>2021-05-17T05:48:02Z</time>
      </trkpt>
      <trkpt lat="41.4100010" lon="-8.7831260">
        <ele>5.3</ele>
        <time>2021-05-17T05:48:03Z</time>
      </trkpt>
      <trkpt lat="41.4100120" lon="-8.7831370">
        <ele>5.3</ele>
        <time>2021-05-17T05:48:04Z</time>
      </trkpt>
      <trkpt lat="41.4100270" lon="-8.7831420">
        <ele>5.3</ele>
        <time>2021-05-17T05:48:05Z</time>
      </trkpt>
      <trkpt lat="41.4100380" lon="-8.7831530">
        <ele>5.3</ele>
        <time>2021-05-17T05:48:06Z</time>
      </trkpt>
      <trkpt lat="41.4100510" lon="-8.7831640">
        <ele>5.4</ele>
        <time>2021-05-17T05:48:07Z</time>
      </trkpt>
      <trkpt lat="41.4100680" lon="-8.7831640">
        <ele>5.4</ele>
        <time>2021-05-17T05:48:08Z</time>
      </trkpt>
      <trkpt lat="41.4100790" lon="-8.7831790">
        <ele>5.4</ele>
        <time>2021-05-17T05:48:09Z</time>
      </trkpt>
      <trkpt lat="41.4100900" lon="-8.7831900">
        <ele>5.4</ele>
        <time>2021-05-17T05:48:10Z</time>
      </trkpt>
      <trkpt lat="41.4101010" lon="-8.7832020">
        <ele>5.4</ele>
        <time>2021-05-17T05:48:11Z</time>
      </trkpt>
      <trkpt lat="41.4101160" lon="-8.7832080">
        <ele>5.4</ele>
        <time>2021-05-17T05:48:12Z</time>
      </trkpt>
      <trkpt lat="41.4101280" lon="-8.7832180">
        <ele>5.4</ele>
        <time>2021-05-17T05:48:13Z</time>
      </trkpt>
      <trkpt lat="41.4101400" lon="-8.7832270">
        <ele>5.4</ele>
        <time>2021-05-17T05:48:14Z</time>
      </trkpt>
      <trkpt lat="41.4101530" lon="-8.7832340">
        <ele>5.4</ele>
        <time>2021-05-17T05:48:15Z</time>
      </trkpt>
      <trkpt lat="41.4101670" lon="-8.7832440">
        <ele>5.4</ele>
        <time>2021-05-17T05:48:16Z</time>
      </trkpt>
      <trkpt lat="41.4101770" lon="-8.7832570">
        <ele>5.4</ele>
        <time>2021-05-17T05:48:17Z</time>
      </trkpt>
      <trkpt lat="41.4101910" lon="-8.7832660">
        <ele>5.4</ele>
        <time>2021-05-17T05:48:18Z</time>
      </trkpt>
      <trkpt lat="41.4102020" lon="-8.7832750">
        <ele>5.4</ele>
        <time>2021-05-17T05:48:19Z</time>
      </trkpt>
      <trkpt lat="41.4102210" lon="-8.7832900">
        <ele>5.4</ele>
        <time>2021-05-17T05:48:20Z</time>
      </trkpt>
      <trkpt lat="41.4102260" lon="-8.7832990">
        <ele>5.4</ele>
        <time>2021-05-17T05:48:21Z</time>
      </trkpt>
      <trkpt lat="41.4102320" lon="-8.7833070">
        <ele>5.4</ele>
        <time>2021-05-17T05:48:22Z</time>
      </trkpt>
      <trkpt lat="41.4102470" lon="-8.7833140">
        <ele>5.4</ele>
        <time>2021-05-17T05:48:23Z</time>
      </trkpt>
      <trkpt lat="41.4102590" lon="-8.7833260">
        <ele>5.4</ele>
        <time>2021-05-17T05:48:24Z</time>
      </trkpt>
      <trkpt lat="41.4102700" lon="-8.7833400">
        <ele>5.4</ele>
        <time>2021-05-17T05:48:25Z</time>
      </trkpt>
      <trkpt lat="41.4102810" lon="-8.7833520">
        <ele>5.4</ele>
        <time>2021-05-17T05:48:26Z</time>
      </trkpt>
      <trkpt lat="41.4102900" lon="-8.7833650">
        <ele>5.4</ele>
        <time>2021-05-17T05:48:27Z</time>
      </trkpt>
      <trkpt lat="41.4103020" lon="-8.7833770">
        <ele>5.4</ele>
        <time>2021-05-17T05:48:28Z</time>
      </trkpt>
      <trkpt lat="41.4103150" lon="-8.7833860">
        <ele>5.4</ele>
        <time>2021-05-17T05:48:29Z</time>
      </trkpt>
      <trkpt lat="41.4103280" lon="-8.7833930">
        <ele>5.4</ele>
        <time>2021-05-17T05:48:30Z</time>
      </trkpt>
      <trkpt lat="41.4103400" lon="-8.7834050">
        <ele>5.4</ele>
        <time>2021-05-17T05:48:31Z</time>
      </trkpt>
      <trkpt lat="41.4103520" lon="-8.7834150">
        <ele>5.4</ele>
        <time>2021-05-17T05:48:32Z</time>
      </trkpt>
      <trkpt lat="41.4103670" lon="-8.7834200">
        <ele>5.4</ele>
        <time>2021-05-17T05:48:33Z</time>
      </trkpt>
      <trkpt lat="41.4103750" lon="-8.7834350">
        <ele>5.4</ele>
        <time>2021-05-17T05:48:34Z</time>
      </trkpt>
      <trkpt lat="41.4103860" lon="-8.7834490">
        <ele>5.4</ele>
        <time>2021-05-17T05:48:35Z</time>
      </trkpt>
      <trkpt lat="41.4103990" lon="-8.7834590">
        <ele>5.4</ele>
        <time>2021-05-17T05:48:36Z</time>
      </trkpt>
      <trkpt lat="41.4104100" lon="-8.7834690">
        <ele>5.4</ele>
        <time>2021-05-17T05:48:37Z</time>
      </trkpt>
      <trkpt lat="41.4104200" lon="-8.7834830">
        <ele>5.4</ele>
        <time>2021-05-17T05:48:38Z</time>
      </trkpt>
      <trkpt lat="41.4104350" lon="-8.7834910">
        <ele>5.4</ele>
        <time>2021-05-17T05:48:39Z</time>
      </trkpt>
      <trkpt lat="41.4104460" lon="-8.7835060">
        <ele>5.4</ele>
        <time>2021-05-17T05:48:40Z</time>
      </trkpt>
      <trkpt lat="41.4104620" lon="-8.7835150">
        <ele>5.4</ele>
        <time>2021-05-17T05:48:41Z</time>
      </trkpt>
      <trkpt lat="41.4104730" lon="-8.7835240">
        <ele>5.4</ele>
        <time>2021-05-17T05:48:42Z</time>
      </trkpt>
      <trkpt lat="41.4104860" lon="-8.7835360">
        <ele>5.4</ele>
        <time>2021-05-17T05:48:43Z</time>
      </trkpt>
      <trkpt lat="41.4104980" lon="-8.7835470">
        <ele>5.4</ele>
        <time>2021-05-17T05:48:44Z</time>
      </trkpt>
      <trkpt lat="41.4105130" lon="-8.7835560">
        <ele>5.4</ele>
        <time>2021-05-17T05:48:45Z</time>
      </trkpt>
      <trkpt lat="41.4105220" lon="-8.7835710">
        <ele>5.4</ele>
        <time>2021-05-17T05:48:46Z</time>
      </trkpt>
      <trkpt lat="41.4105360" lon="-8.7835820">
        <ele>5.4</ele>
        <time>2021-05-17T05:48:47Z</time>
      </trkpt>
      <trkpt lat="41.4105510" lon="-8.7835920">
        <ele>5.4</ele>
        <time>2021-05-17T05:48:48Z</time>
      </trkpt>
      <trkpt lat="41.4105620" lon="-8.7836040">
        <ele>5.4</ele>
        <time>2021-05-17T05:48:49Z</time>
      </trkpt>
      <trkpt lat="41.4105770" lon="-8.7836110">
        <ele>5.4</ele>
        <time>2021-05-17T05:48:50Z</time>
      </trkpt>
      <trkpt lat="41.4105870" lon="-8.7836260">
        <ele>5.4</ele>
        <time>2021-05-17T05:48:51Z</time>
      </trkpt>
      <trkpt lat="41.4106010" lon="-8.7836360">
        <ele>5.4</ele>
        <time>2021-05-17T05:48:52Z</time>
      </trkpt>
      <trkpt lat="41.4106120" lon="-8.7836500">
        <ele>5.4</ele>
        <time>2021-05-17T05:48:53Z</time>
      </trkpt>
      <trkpt lat="41.4106260" lon="-8.7836580">
        <ele>5.4</ele>
        <time>2021-05-17T05:48:54Z</time>
      </trkpt>
      <trkpt lat="41.4106410" lon="-8.7836670">
        <ele>5.4</ele>
        <time>2021-05-17T05:48:55Z</time>
      </trkpt>
      <trkpt lat="41.4106490" lon="-8.7836810">
        <ele>5.4</ele>
        <time>2021-05-17T05:48:56Z</time>
      </trkpt>
      <trkpt lat="41.4106640" lon="-8.7836870">
        <ele>5.4</ele>
        <time>2021-05-17T05:48:57Z</time>
      </trkpt>
      <trkpt lat="41.4106740" lon="-8.7837000">
        <ele>5.4</ele>
        <time>2021-05-17T05:48:58Z</time>
      </trkpt>
      <trkpt lat="41.4106890" lon="-8.7837090">
        <ele>5.4</ele>
        <time>2021-05-17T05:48:59Z</time>
      </trkpt>
      <trkpt lat="41.4106990" lon="-8.7837220">
        <ele>5.4</ele>
        <time>2021-05-17T05:49:00Z</time>
      </trkpt>
      <trkpt lat="41.4107100" lon="-8.7837310">
        <ele>5.4</ele>
        <time>2021-05-17T05:49:01Z</time>
      </trkpt>
      <trkpt lat="41.4107220" lon="-8.7837410">
        <ele>5.4</ele>
        <time>2021-05-17T05:49:02Z</time>
      </trkpt>
      <trkpt lat="41.4107370" lon="-8.7837480">
        <ele>5.4</ele>
        <time>2021-05-17T05:49:03Z</time>
      </trkpt>
      <trkpt lat="41.4107500" lon="-8.7837540">
        <ele>5.4</ele>
        <time>2021-05-17T05:49:04Z</time>
      </trkpt>
      <trkpt lat="41.4107610" lon="-8.7837690">
        <ele>5.4</ele>
        <time>2021-05-17T05:49:06Z</time>
      </trkpt>
      <trkpt lat="41.4107750" lon="-8.7837740">
        <ele>5.4</ele>
        <time>2021-05-17T05:49:07Z</time>
      </trkpt>
      <trkpt lat="41.4107890" lon="-8.7837790">
        <ele>5.4</ele>
        <time>2021-05-17T05:49:08Z</time>
      </trkpt>
      <trkpt lat="41.4108010" lon="-8.7837840">
        <ele>5.4</ele>
        <time>2021-05-17T05:49:09Z</time>
      </trkpt>
      <trkpt lat="41.4108250" lon="-8.7838050">
        <ele>5.4</ele>
        <time>2021-05-17T05:49:10Z</time>
      </trkpt>
      <trkpt lat="41.4108490" lon="-8.7838240">
        <ele>5.4</ele>
        <time>2021-05-17T05:49:11Z</time>
      </trkpt>
      <trkpt lat="41.4108600" lon="-8.7838360">
        <ele>5.4</ele>
        <time>2021-05-17T05:49:13Z</time>
      </trkpt>
      <trkpt lat="41.4108700" lon="-8.7838490">
        <ele>5.5</ele>
        <time>2021-05-17T05:49:15Z</time>
      </trkpt>
      <trkpt lat="41.4108810" lon="-8.7838620">
        <ele>5.5</ele>
        <time>2021-05-17T05:49:16Z</time>
      </trkpt>
      <trkpt lat="41.4108950" lon="-8.7838690">
        <ele>5.5</ele>
        <time>2021-05-17T05:49:17Z</time>
      </trkpt>
      <trkpt lat="41.4109100" lon="-8.7838750">
        <ele>5.5</ele>
        <time>2021-05-17T05:49:18Z</time>
      </trkpt>
      <trkpt lat="41.4109210" lon="-8.7838890">
        <ele>5.5</ele>
        <time>2021-05-17T05:49:19Z</time>
      </trkpt>
      <trkpt lat="41.4109320" lon="-8.7838970">
        <ele>5.5</ele>
        <time>2021-05-17T05:49:20Z</time>
      </trkpt>
      <trkpt lat="41.4109470" lon="-8.7839060">
        <ele>5.5</ele>
        <time>2021-05-17T05:49:21Z</time>
      </trkpt>
      <trkpt lat="41.4109620" lon="-8.7839160">
        <ele>5.5</ele>
        <time>2021-05-17T05:49:22Z</time>
      </trkpt>
      <trkpt lat="41.4109730" lon="-8.7839310">
        <ele>5.5</ele>
        <time>2021-05-17T05:49:23Z</time>
      </trkpt>
      <trkpt lat="41.4109840" lon="-8.7839440">
        <ele>5.5</ele>
        <time>2021-05-17T05:49:24Z</time>
      </trkpt>
      <trkpt lat="41.4109950" lon="-8.7839550">
        <ele>5.6</ele>
        <time>2021-05-17T05:49:25Z</time>
      </trkpt>
      <trkpt lat="41.4110060" lon="-8.7839700">
        <ele>5.6</ele>
        <time>2021-05-17T05:49:26Z</time>
      </trkpt>
      <trkpt lat="41.4110310" lon="-8.7839890">
        <ele>5.6</ele>
        <time>2021-05-17T05:49:27Z</time>
      </trkpt>
      <trkpt lat="41.4110520" lon="-8.7840010">
        <ele>5.6</ele>
        <time>2021-05-17T05:49:28Z</time>
      </trkpt>
      <trkpt lat="41.4110580" lon="-8.7840090">
        <ele>5.6</ele>
        <time>2021-05-17T05:49:29Z</time>
      </trkpt>
      <trkpt lat="41.4110650" lon="-8.7840170">
        <ele>5.6</ele>
        <time>2021-05-17T05:49:30Z</time>
      </trkpt>
      <trkpt lat="41.4110790" lon="-8.7840230">
        <ele>5.6</ele>
        <time>2021-05-17T05:49:31Z</time>
      </trkpt>
      <trkpt lat="41.4110900" lon="-8.7840350">
        <ele>5.6</ele>
        <time>2021-05-17T05:49:32Z</time>
      </trkpt>
      <trkpt lat="41.4111050" lon="-8.7840380">
        <ele>5.6</ele>
        <time>2021-05-17T05:49:33Z</time>
      </trkpt>
      <trkpt lat="41.4111190" lon="-8.7840440">
        <ele>5.6</ele>
        <time>2021-05-17T05:49:34Z</time>
      </trkpt>
      <trkpt lat="41.4111380" lon="-8.7840600">
        <ele>5.7</ele>
        <time>2021-05-17T05:49:35Z</time>
      </trkpt>
      <trkpt lat="41.4111460" lon="-8.7840680">
        <ele>5.7</ele>
        <time>2021-05-17T05:49:36Z</time>
      </trkpt>
      <trkpt lat="41.4111540" lon="-8.7840750">
        <ele>5.7</ele>
        <time>2021-05-17T05:49:37Z</time>
      </trkpt>
      <trkpt lat="41.4111690" lon="-8.7840820">
        <ele>5.7</ele>
        <time>2021-05-17T05:49:38Z</time>
      </trkpt>
      <trkpt lat="41.4111810" lon="-8.7840980">
        <ele>5.7</ele>
        <time>2021-05-17T05:49:39Z</time>
      </trkpt>
      <trkpt lat="41.4111940" lon="-8.7841060">
        <ele>5.7</ele>
        <time>2021-05-17T05:49:40Z</time>
      </trkpt>
      <trkpt lat="41.4112090" lon="-8.7841130">
        <ele>5.7</ele>
        <time>2021-05-17T05:49:41Z</time>
      </trkpt>
      <trkpt lat="41.4112230" lon="-8.7841220">
        <ele>5.7</ele>
        <time>2021-05-17T05:49:42Z</time>
      </trkpt>
      <trkpt lat="41.4112380" lon="-8.7841250">
        <ele>5.7</ele>
        <time>2021-05-17T05:49:43Z</time>
      </trkpt>
      <trkpt lat="41.4112510" lon="-8.7841360">
        <ele>5.7</ele>
        <time>2021-05-17T05:49:44Z</time>
      </trkpt>
      <trkpt lat="41.4112640" lon="-8.7841400">
        <ele>5.7</ele>
        <time>2021-05-17T05:49:45Z</time>
      </trkpt>
      <trkpt lat="41.4112770" lon="-8.7841510">
        <ele>5.7</ele>
        <time>2021-05-17T05:49:46Z</time>
      </trkpt>
      <trkpt lat="41.4112930" lon="-8.7841520">
        <ele>5.7</ele>
        <time>2021-05-17T05:49:47Z</time>
      </trkpt>
      <trkpt lat="41.4113040" lon="-8.7841650">
        <ele>5.7</ele>
        <time>2021-05-17T05:49:48Z</time>
      </trkpt>
      <trkpt lat="41.4113150" lon="-8.7841750">
        <ele>5.8</ele>
        <time>2021-05-17T05:49:49Z</time>
      </trkpt>
      <trkpt lat="41.4113300" lon="-8.7841830">
        <ele>5.8</ele>
        <time>2021-05-17T05:49:50Z</time>
      </trkpt>
      <trkpt lat="41.4113440" lon="-8.7841860">
        <ele>5.8</ele>
        <time>2021-05-17T05:49:51Z</time>
      </trkpt>
      <trkpt lat="41.4113580" lon="-8.7841920">
        <ele>5.8</ele>
        <time>2021-05-17T05:49:52Z</time>
      </trkpt>
      <trkpt lat="41.4113720" lon="-8.7842000">
        <ele>5.8</ele>
        <time>2021-05-17T05:49:53Z</time>
      </trkpt>
      <trkpt lat="41.4113840" lon="-8.7842160">
        <ele>5.8</ele>
        <time>2021-05-17T05:49:54Z</time>
      </trkpt>
      <trkpt lat="41.4113990" lon="-8.7842220">
        <ele>5.8</ele>
        <time>2021-05-17T05:49:55Z</time>
      </trkpt>
      <trkpt lat="41.4114120" lon="-8.7842290">
        <ele>5.8</ele>
        <time>2021-05-17T05:49:56Z</time>
      </trkpt>
      <trkpt lat="41.4114260" lon="-8.7842390">
        <ele>5.8</ele>
        <time>2021-05-17T05:49:57Z</time>
      </trkpt>
      <trkpt lat="41.4114390" lon="-8.7842420">
        <ele>5.8</ele>
        <time>2021-05-17T05:49:58Z</time>
      </trkpt>
      <trkpt lat="41.4114540" lon="-8.7842540">
        <ele>5.8</ele>
        <time>2021-05-17T05:49:59Z</time>
      </trkpt>
      <trkpt lat="41.4114650" lon="-8.7842660">
        <ele>5.8</ele>
        <time>2021-05-17T05:50:00Z</time>
      </trkpt>
      <trkpt lat="41.4114790" lon="-8.7842810">
        <ele>5.8</ele>
        <time>2021-05-17T05:50:01Z</time>
      </trkpt>
      <trkpt lat="41.4114910" lon="-8.7842880">
        <ele>5.8</ele>
        <time>2021-05-17T05:50:02Z</time>
      </trkpt>
      <trkpt lat="41.4115040" lon="-8.7843010">
        <ele>5.8</ele>
        <time>2021-05-17T05:50:03Z</time>
      </trkpt>
      <trkpt lat="41.4115150" lon="-8.7843140">
        <ele>5.8</ele>
        <time>2021-05-17T05:50:04Z</time>
      </trkpt>
      <trkpt lat="41.4115230" lon="-8.7843270">
        <ele>5.8</ele>
        <time>2021-05-17T05:50:05Z</time>
      </trkpt>
      <trkpt lat="41.4115290" lon="-8.7843490">
        <ele>5.9</ele>
        <time>2021-05-17T05:50:06Z</time>
      </trkpt>
      <trkpt lat="41.4115380" lon="-8.7843660">
        <ele>5.9</ele>
        <time>2021-05-17T05:50:07Z</time>
      </trkpt>
      <trkpt lat="41.4115410" lon="-8.7843860">
        <ele>5.9</ele>
        <time>2021-05-17T05:50:08Z</time>
      </trkpt>
      <trkpt lat="41.4115510" lon="-8.7844030">
        <ele>5.9</ele>
        <time>2021-05-17T05:50:09Z</time>
      </trkpt>
      <trkpt lat="41.4115570" lon="-8.7844210">
        <ele>5.9</ele>
        <time>2021-05-17T05:50:10Z</time>
      </trkpt>
      <trkpt lat="41.4115660" lon="-8.7844410">
        <ele>5.9</ele>
        <time>2021-05-17T05:50:11Z</time>
      </trkpt>
      <trkpt lat="41.4115750" lon="-8.7844590">
        <ele>5.9</ele>
        <time>2021-05-17T05:50:12Z</time>
      </trkpt>
      <trkpt lat="41.4115780" lon="-8.7844790">
        <ele>5.9</ele>
        <time>2021-05-17T05:50:13Z</time>
      </trkpt>
      <trkpt lat="41.4115870" lon="-8.7844900">
        <ele>5.9</ele>
        <time>2021-05-17T05:50:14Z</time>
      </trkpt>
      <trkpt lat="41.4115980" lon="-8.7845060">
        <ele>6.0</ele>
        <time>2021-05-17T05:50:15Z</time>
      </trkpt>
      <trkpt lat="41.4116040" lon="-8.7845210">
        <ele>6.0</ele>
        <time>2021-05-17T05:50:16Z</time>
      </trkpt>
      <trkpt lat="41.4116130" lon="-8.7845360">
        <ele>6.0</ele>
        <time>2021-05-17T05:50:17Z</time>
      </trkpt>
      <trkpt lat="41.4116190" lon="-8.7845570">
        <ele>6.0</ele>
        <time>2021-05-17T05:50:18Z</time>
      </trkpt>
      <trkpt lat="41.4116270" lon="-8.7845740">
        <ele>6.0</ele>
        <time>2021-05-17T05:50:19Z</time>
      </trkpt>
      <trkpt lat="41.4116350" lon="-8.7845910">
        <ele>6.1</ele>
        <time>2021-05-17T05:50:20Z</time>
      </trkpt>
      <trkpt lat="41.4116380" lon="-8.7846110">
        <ele>6.1</ele>
        <time>2021-05-17T05:50:21Z</time>
      </trkpt>
      <trkpt lat="41.4116490" lon="-8.7846230">
        <ele>6.1</ele>
        <time>2021-05-17T05:50:22Z</time>
      </trkpt>
      <trkpt lat="41.4116610" lon="-8.7846380">
        <ele>6.1</ele>
        <time>2021-05-17T05:50:23Z</time>
      </trkpt>
      <trkpt lat="41.4116560" lon="-8.7846590">
        <ele>6.2</ele>
        <time>2021-05-17T05:50:24Z</time>
      </trkpt>
      <trkpt lat="41.4116550" lon="-8.7846740">
        <ele>6.2</ele>
        <time>2021-05-17T05:50:25Z</time>
      </trkpt>
      <trkpt lat="41.4116690" lon="-8.7846850">
        <ele>6.2</ele>
        <time>2021-05-17T05:50:26Z</time>
      </trkpt>
      <trkpt lat="41.4116800" lon="-8.7846970">
        <ele>6.2</ele>
        <time>2021-05-17T05:50:27Z</time>
      </trkpt>
      <trkpt lat="41.4116870" lon="-8.7847140">
        <ele>6.2</ele>
        <time>2021-05-17T05:50:28Z</time>
      </trkpt>
      <trkpt lat="41.4116910" lon="-8.7847310">
        <ele>6.3</ele>
        <time>2021-05-17T05:50:29Z</time>
      </trkpt>
      <trkpt lat="41.4116960" lon="-8.7847480">
        <ele>6.3</ele>
        <time>2021-05-17T05:50:30Z</time>
      </trkpt>
      <trkpt lat="41.4116970" lon="-8.7847680">
        <ele>6.3</ele>
        <time>2021-05-17T05:50:31Z</time>
      </trkpt>
      <trkpt lat="41.4117050" lon="-8.7847840">
        <ele>6.3</ele>
        <time>2021-05-17T05:50:32Z</time>
      </trkpt>
      <trkpt lat="41.4117130" lon="-8.7847970">
        <ele>6.3</ele>
        <time>2021-05-17T05:50:33Z</time>
      </trkpt>
      <trkpt lat="41.4117160" lon="-8.7848170">
        <ele>6.4</ele>
        <time>2021-05-17T05:50:34Z</time>
      </trkpt>
      <trkpt lat="41.4117280" lon="-8.7848290">
        <ele>6.4</ele>
        <time>2021-05-17T05:50:35Z</time>
      </trkpt>
      <trkpt lat="41.4117310" lon="-8.7848470">
        <ele>6.4</ele>
        <time>2021-05-17T05:50:36Z</time>
      </trkpt>
      <trkpt lat="41.4117470" lon="-8.7848570">
        <ele>6.4</ele>
        <time>2021-05-17T05:50:37Z</time>
      </trkpt>
      <trkpt lat="41.4117530" lon="-8.7848740">
        <ele>6.5</ele>
        <time>2021-05-17T05:50:38Z</time>
      </trkpt>
      <trkpt lat="41.4117620" lon="-8.7848900">
        <ele>6.5</ele>
        <time>2021-05-17T05:50:39Z</time>
      </trkpt>
      <trkpt lat="41.4117770" lon="-8.7848990">
        <ele>6.5</ele>
        <time>2021-05-17T05:50:40Z</time>
      </trkpt>
      <trkpt lat="41.4117850" lon="-8.7849140">
        <ele>6.5</ele>
        <time>2021-05-17T05:50:41Z</time>
      </trkpt>
      <trkpt lat="41.4117980" lon="-8.7849370">
        <ele>6.6</ele>
        <time>2021-05-17T05:50:42Z</time>
      </trkpt>
      <trkpt lat="41.4118010" lon="-8.7849480">
        <ele>6.6</ele>
        <time>2021-05-17T05:50:43Z</time>
      </trkpt>
      <trkpt lat="41.4118040" lon="-8.7849590">
        <ele>6.6</ele>
        <time>2021-05-17T05:50:44Z</time>
      </trkpt>
      <trkpt lat="41.4118140" lon="-8.7849750">
        <ele>6.6</ele>
        <time>2021-05-17T05:50:45Z</time>
      </trkpt>
      <trkpt lat="41.4118190" lon="-8.7849960">
        <ele>6.6</ele>
        <time>2021-05-17T05:50:46Z</time>
      </trkpt>
      <trkpt lat="41.4118290" lon="-8.7850110">
        <ele>6.7</ele>
        <time>2021-05-17T05:50:47Z</time>
      </trkpt>
      <trkpt lat="41.4118340" lon="-8.7850270">
        <ele>6.7</ele>
        <time>2021-05-17T05:50:48Z</time>
      </trkpt>
      <trkpt lat="41.4118430" lon="-8.7850450">
        <ele>6.7</ele>
        <time>2021-05-17T05:50:49Z</time>
      </trkpt>
      <trkpt lat="41.4118550" lon="-8.7850590">
        <ele>6.7</ele>
        <time>2021-05-17T05:50:50Z</time>
      </trkpt>
      <trkpt lat="41.4118650" lon="-8.7850730">
        <ele>6.7</ele>
        <time>2021-05-17T05:50:51Z</time>
      </trkpt>
      <trkpt lat="41.4118750" lon="-8.7850900">
        <ele>6.7</ele>
        <time>2021-05-17T05:50:52Z</time>
      </trkpt>
      <trkpt lat="41.4118800" lon="-8.7851100">
        <ele>6.8</ele>
        <time>2021-05-17T05:50:53Z</time>
      </trkpt>
      <trkpt lat="41.4118920" lon="-8.7851250">
        <ele>6.8</ele>
        <time>2021-05-17T05:50:54Z</time>
      </trkpt>
      <trkpt lat="41.4118980" lon="-8.7851420">
        <ele>6.8</ele>
        <time>2021-05-17T05:50:55Z</time>
      </trkpt>
      <trkpt lat="41.4119040" lon="-8.7851580">
        <ele>6.8</ele>
        <time>2021-05-17T05:50:56Z</time>
      </trkpt>
      <trkpt lat="41.4119100" lon="-8.7851770">
        <ele>6.8</ele>
        <time>2021-05-17T05:50:57Z</time>
      </trkpt>
      <trkpt lat="41.4119180" lon="-8.7851920">
        <ele>6.8</ele>
        <time>2021-05-17T05:50:58Z</time>
      </trkpt>
      <trkpt lat="41.4119220" lon="-8.7852070">
        <ele>6.8</ele>
        <time>2021-05-17T05:50:59Z</time>
      </trkpt>
      <trkpt lat="41.4119300" lon="-8.7852270">
        <ele>6.8</ele>
        <time>2021-05-17T05:51:00Z</time>
      </trkpt>
      <trkpt lat="41.4119410" lon="-8.7852410">
        <ele>6.8</ele>
        <time>2021-05-17T05:51:01Z</time>
      </trkpt>
      <trkpt lat="41.4119520" lon="-8.7852560">
        <ele>6.8</ele>
        <time>2021-05-17T05:51:02Z</time>
      </trkpt>
      <trkpt lat="41.4119610" lon="-8.7852720">
        <ele>6.8</ele>
        <time>2021-05-17T05:51:03Z</time>
      </trkpt>
      <trkpt lat="41.4119670" lon="-8.7852900">
        <ele>6.8</ele>
        <time>2021-05-17T05:51:04Z</time>
      </trkpt>
      <trkpt lat="41.4119750" lon="-8.7853060">
        <ele>6.8</ele>
        <time>2021-05-17T05:51:05Z</time>
      </trkpt>
      <trkpt lat="41.4119830" lon="-8.7853210">
        <ele>6.8</ele>
        <time>2021-05-17T05:51:06Z</time>
      </trkpt>
      <trkpt lat="41.4119910" lon="-8.7853380">
        <ele>6.8</ele>
        <time>2021-05-17T05:51:07Z</time>
      </trkpt>
      <trkpt lat="41.4120010" lon="-8.7853510">
        <ele>6.8</ele>
        <time>2021-05-17T05:51:08Z</time>
      </trkpt>
      <trkpt lat="41.4120120" lon="-8.7853690">
        <ele>6.8</ele>
        <time>2021-05-17T05:51:09Z</time>
      </trkpt>
      <trkpt lat="41.4120250" lon="-8.7853810">
        <ele>6.8</ele>
        <time>2021-05-17T05:51:10Z</time>
      </trkpt>
      <trkpt lat="41.4120430" lon="-8.7853840">
        <ele>6.8</ele>
        <time>2021-05-17T05:51:11Z</time>
      </trkpt>
      <trkpt lat="41.4120520" lon="-8.7853970">
        <ele>6.8</ele>
        <time>2021-05-17T05:51:12Z</time>
      </trkpt>
      <trkpt lat="41.4120600" lon="-8.7854140">
        <ele>6.7</ele>
        <time>2021-05-17T05:51:13Z</time>
      </trkpt>
      <trkpt lat="41.4120670" lon="-8.7854300">
        <ele>6.7</ele>
        <time>2021-05-17T05:51:14Z</time>
      </trkpt>
      <trkpt lat="41.4120780" lon="-8.7854430">
        <ele>6.7</ele>
        <time>2021-05-17T05:51:15Z</time>
      </trkpt>
      <trkpt lat="41.4120820" lon="-8.7854610">
        <ele>6.7</ele>
        <time>2021-05-17T05:51:17Z</time>
      </trkpt>
      <trkpt lat="41.4121020" lon="-8.7854850">
        <ele>6.7</ele>
        <time>2021-05-17T05:51:18Z</time>
      </trkpt>
      <trkpt lat="41.4121130" lon="-8.7854960">
        <ele>6.6</ele>
        <time>2021-05-17T05:51:19Z</time>
      </trkpt>
      <trkpt lat="41.4121210" lon="-8.7855100">
        <ele>6.6</ele>
        <time>2021-05-17T05:51:21Z</time>
      </trkpt>
      <trkpt lat="41.4121260" lon="-8.7855280">
        <ele>6.6</ele>
        <time>2021-05-17T05:51:22Z</time>
      </trkpt>
      <trkpt lat="41.4121350" lon="-8.7855440">
        <ele>6.6</ele>
        <time>2021-05-17T05:51:23Z</time>
      </trkpt>
      <trkpt lat="41.4121450" lon="-8.7855570">
        <ele>6.6</ele>
        <time>2021-05-17T05:51:24Z</time>
      </trkpt>
      <trkpt lat="41.4121560" lon="-8.7855700">
        <ele>6.6</ele>
        <time>2021-05-17T05:51:25Z</time>
      </trkpt>
      <trkpt lat="41.4121750" lon="-8.7855990">
        <ele>6.5</ele>
        <time>2021-05-17T05:51:26Z</time>
      </trkpt>
      <trkpt lat="41.4121800" lon="-8.7856170">
        <ele>6.5</ele>
        <time>2021-05-17T05:51:27Z</time>
      </trkpt>
      <trkpt lat="41.4121940" lon="-8.7856240">
        <ele>6.4</ele>
        <time>2021-05-17T05:51:29Z</time>
      </trkpt>
      <trkpt lat="41.4122050" lon="-8.7856400">
        <ele>6.4</ele>
        <time>2021-05-17T05:51:30Z</time>
      </trkpt>
      <trkpt lat="41.4122160" lon="-8.7856490">
        <ele>6.4</ele>
        <time>2021-05-17T05:51:31Z</time>
      </trkpt>
      <trkpt lat="41.4122200" lon="-8.7856720">
        <ele>6.4</ele>
        <time>2021-05-17T05:51:32Z</time>
      </trkpt>
      <trkpt lat="41.4122360" lon="-8.7857010">
        <ele>6.4</ele>
        <time>2021-05-17T05:51:33Z</time>
      </trkpt>
      <trkpt lat="41.4122410" lon="-8.7857180">
        <ele>6.4</ele>
        <time>2021-05-17T05:51:34Z</time>
      </trkpt>
      <trkpt lat="41.4122540" lon="-8.7857310">
        <ele>6.4</ele>
        <time>2021-05-17T05:51:35Z</time>
      </trkpt>
      <trkpt lat="41.4122600" lon="-8.7857440">
        <ele>6.3</ele>
        <time>2021-05-17T05:51:36Z</time>
      </trkpt>
      <trkpt lat="41.4122740" lon="-8.7857560">
        <ele>6.3</ele>
        <time>2021-05-17T05:51:37Z</time>
      </trkpt>
      <trkpt lat="41.4122800" lon="-8.7857740">
        <ele>6.3</ele>
        <time>2021-05-17T05:51:38Z</time>
      </trkpt>
      <trkpt lat="41.4122890" lon="-8.7857860">
        <ele>6.3</ele>
        <time>2021-05-17T05:51:39Z</time>
      </trkpt>
      <trkpt lat="41.4122940" lon="-8.7858050">
        <ele>6.3</ele>
        <time>2021-05-17T05:51:40Z</time>
      </trkpt>
      <trkpt lat="41.4123060" lon="-8.7858150">
        <ele>6.3</ele>
        <time>2021-05-17T05:51:41Z</time>
      </trkpt>
      <trkpt lat="41.4123140" lon="-8.7858310">
        <ele>6.3</ele>
        <time>2021-05-17T05:51:42Z</time>
      </trkpt>
      <trkpt lat="41.4123170" lon="-8.7858510">
        <ele>6.3</ele>
        <time>2021-05-17T05:51:43Z</time>
      </trkpt>
      <trkpt lat="41.4123300" lon="-8.7858680">
        <ele>6.3</ele>
        <time>2021-05-17T05:51:44Z</time>
      </trkpt>
      <trkpt lat="41.4123400" lon="-8.7858820">
        <ele>6.3</ele>
        <time>2021-05-17T05:51:45Z</time>
      </trkpt>
      <trkpt lat="41.4123480" lon="-8.7859000">
        <ele>6.3</ele>
        <time>2021-05-17T05:51:46Z</time>
      </trkpt>
      <trkpt lat="41.4123490" lon="-8.7859240">
        <ele>6.3</ele>
        <time>2021-05-17T05:51:47Z</time>
      </trkpt>
      <trkpt lat="41.4123530" lon="-8.7859410">
        <ele>6.3</ele>
        <time>2021-05-17T05:51:48Z</time>
      </trkpt>
      <trkpt lat="41.4123630" lon="-8.7859570">
        <ele>6.3</ele>
        <time>2021-05-17T05:51:49Z</time>
      </trkpt>
      <trkpt lat="41.4123820" lon="-8.7859640">
        <ele>6.3</ele>
        <time>2021-05-17T05:51:50Z</time>
      </trkpt>
      <trkpt lat="41.4123880" lon="-8.7859810">
        <ele>6.3</ele>
        <time>2021-05-17T05:51:51Z</time>
      </trkpt>
      <trkpt lat="41.4123960" lon="-8.7859990">
        <ele>6.3</ele>
        <time>2021-05-17T05:51:52Z</time>
      </trkpt>
      <trkpt lat="41.4124080" lon="-8.7860260">
        <ele>6.3</ele>
        <time>2021-05-17T05:51:53Z</time>
      </trkpt>
      <trkpt lat="41.4124140" lon="-8.7860350">
        <ele>6.3</ele>
        <time>2021-05-17T05:51:54Z</time>
      </trkpt>
      <trkpt lat="41.4124200" lon="-8.7860450">
        <ele>6.3</ele>
        <time>2021-05-17T05:51:55Z</time>
      </trkpt>
      <trkpt lat="41.4124270" lon="-8.7860700">
        <ele>6.3</ele>
        <time>2021-05-17T05:51:56Z</time>
      </trkpt>
      <trkpt lat="41.4124310" lon="-8.7860810">
        <ele>6.3</ele>
        <time>2021-05-17T05:51:57Z</time>
      </trkpt>
      <trkpt lat="41.4124340" lon="-8.7860920">
        <ele>6.3</ele>
        <time>2021-05-17T05:51:58Z</time>
      </trkpt>
      <trkpt lat="41.4124420" lon="-8.7861050">
        <ele>6.3</ele>
        <time>2021-05-17T05:51:59Z</time>
      </trkpt>
      <trkpt lat="41.4124490" lon="-8.7861240">
        <ele>6.3</ele>
        <time>2021-05-17T05:52:00Z</time>
      </trkpt>
      <trkpt lat="41.4124560" lon="-8.7861370">
        <ele>6.3</ele>
        <time>2021-05-17T05:52:01Z</time>
      </trkpt>
      <trkpt lat="41.4124720" lon="-8.7861470">
        <ele>6.3</ele>
        <time>2021-05-17T05:52:02Z</time>
      </trkpt>
      <trkpt lat="41.4124870" lon="-8.7861670">
        <ele>6.3</ele>
        <time>2021-05-17T05:52:03Z</time>
      </trkpt>
      <trkpt lat="41.4124900" lon="-8.7861780">
        <ele>6.3</ele>
        <time>2021-05-17T05:52:04Z</time>
      </trkpt>
      <trkpt lat="41.4124930" lon="-8.7861890">
        <ele>6.3</ele>
        <time>2021-05-17T05:52:05Z</time>
      </trkpt>
      <trkpt lat="41.4125110" lon="-8.7862090">
        <ele>6.3</ele>
        <time>2021-05-17T05:52:06Z</time>
      </trkpt>
      <trkpt lat="41.4125150" lon="-8.7862190">
        <ele>6.3</ele>
        <time>2021-05-17T05:52:07Z</time>
      </trkpt>
      <trkpt lat="41.4125200" lon="-8.7862300">
        <ele>6.3</ele>
        <time>2021-05-17T05:52:08Z</time>
      </trkpt>
      <trkpt lat="41.4125310" lon="-8.7862440">
        <ele>6.3</ele>
        <time>2021-05-17T05:52:09Z</time>
      </trkpt>
      <trkpt lat="41.4125400" lon="-8.7862560">
        <ele>6.3</ele>
        <time>2021-05-17T05:52:10Z</time>
      </trkpt>
      <trkpt lat="41.4125490" lon="-8.7862680">
        <ele>6.3</ele>
        <time>2021-05-17T05:52:11Z</time>
      </trkpt>
      <trkpt lat="41.4125620" lon="-8.7862790">
        <ele>6.3</ele>
        <time>2021-05-17T05:52:12Z</time>
      </trkpt>
      <trkpt lat="41.4125810" lon="-8.7862890">
        <ele>6.3</ele>
        <time>2021-05-17T05:52:13Z</time>
      </trkpt>
      <trkpt lat="41.4125900" lon="-8.7862920">
        <ele>6.3</ele>
        <time>2021-05-17T05:52:14Z</time>
      </trkpt>
      <trkpt lat="41.4125990" lon="-8.7862940">
        <ele>6.3</ele>
        <time>2021-05-17T05:52:15Z</time>
      </trkpt>
      <trkpt lat="41.4126250" lon="-8.7862880">
        <ele>6.3</ele>
        <time>2021-05-17T05:52:16Z</time>
      </trkpt>
      <trkpt lat="41.4126340" lon="-8.7862820">
        <ele>6.3</ele>
        <time>2021-05-17T05:52:17Z</time>
      </trkpt>
      <trkpt lat="41.4126490" lon="-8.7862770">
        <ele>6.4</ele>
        <time>2021-05-17T05:52:18Z</time>
      </trkpt>
      <trkpt lat="41.4126650" lon="-8.7862650">
        <ele>6.4</ele>
        <time>2021-05-17T05:52:19Z</time>
      </trkpt>
      <trkpt lat="41.4126810" lon="-8.7862580">
        <ele>6.4</ele>
        <time>2021-05-17T05:52:20Z</time>
      </trkpt>
      <trkpt lat="41.4126930" lon="-8.7862590">
        <ele>6.4</ele>
        <time>2021-05-17T05:52:21Z</time>
      </trkpt>
      <trkpt lat="41.4127160" lon="-8.7862590">
        <ele>6.4</ele>
        <time>2021-05-17T05:52:22Z</time>
      </trkpt>
      <trkpt lat="41.4127250" lon="-8.7862600">
        <ele>6.4</ele>
        <time>2021-05-17T05:52:23Z</time>
      </trkpt>
      <trkpt lat="41.4127330" lon="-8.7862620">
        <ele>6.5</ele>
        <time>2021-05-17T05:52:24Z</time>
      </trkpt>
      <trkpt lat="41.4127460" lon="-8.7862580">
        <ele>6.5</ele>
        <time>2021-05-17T05:52:25Z</time>
      </trkpt>
      <trkpt lat="41.4127610" lon="-8.7862620">
        <ele>6.5</ele>
        <time>2021-05-17T05:52:26Z</time>
      </trkpt>
      <trkpt lat="41.4127720" lon="-8.7862570">
        <ele>6.5</ele>
        <time>2021-05-17T05:52:27Z</time>
      </trkpt>
      <trkpt lat="41.4127830" lon="-8.7862570">
        <ele>6.5</ele>
        <time>2021-05-17T05:52:28Z</time>
      </trkpt>
      <trkpt lat="41.4127890" lon="-8.7862580">
        <ele>6.5</ele>
        <time>2021-05-17T05:52:29Z</time>
      </trkpt>
      <trkpt lat="41.4127990" lon="-8.7862570">
        <ele>6.5</ele>
        <time>2021-05-17T05:52:30Z</time>
      </trkpt>
      <trkpt lat="41.4128130" lon="-8.7862540">
        <ele>6.5</ele>
        <time>2021-05-17T05:52:31Z</time>
      </trkpt>
      <trkpt lat="41.4128160" lon="-8.7862450">
        <ele>6.5</ele>
        <time>2021-05-17T05:52:32Z</time>
      </trkpt>
      <trkpt lat="41.4128120" lon="-8.7862620">
        <ele>6.6</ele>
        <time>2021-05-17T05:52:33Z</time>
      </trkpt>
      <trkpt lat="41.4128190" lon="-8.7862630">
        <ele>6.6</ele>
        <time>2021-05-17T05:52:34Z</time>
      </trkpt>
      <trkpt lat="41.4128250" lon="-8.7862650">
        <ele>6.6</ele>
        <time>2021-05-17T05:52:35Z</time>
      </trkpt>
      <trkpt lat="41.4128310" lon="-8.7862660">
        <ele>6.6</ele>
        <time>2021-05-17T05:52:36Z</time>
      </trkpt>
      <trkpt lat="41.4128370" lon="-8.7862680">
        <ele>6.6</ele>
        <time>2021-05-17T05:52:37Z</time>
      </trkpt>
      <trkpt lat="41.4128440" lon="-8.7862690">
        <ele>6.6</ele>
        <time>2021-05-17T05:52:38Z</time>
      </trkpt>
      <trkpt lat="41.4128500" lon="-8.7862710">
        <ele>6.6</ele>
        <time>2021-05-17T05:52:39Z</time>
      </trkpt>
      <trkpt lat="41.4128600" lon="-8.7862670">
        <ele>6.6</ele>
        <time>2021-05-17T05:52:40Z</time>
      </trkpt>
      <trkpt lat="41.4128710" lon="-8.7862670">
        <ele>6.6</ele>
        <time>2021-05-17T05:52:41Z</time>
      </trkpt>
      <trkpt lat="41.4128810" lon="-8.7862670">
        <ele>6.6</ele>
        <time>2021-05-17T05:52:42Z</time>
      </trkpt>
      <trkpt lat="41.4128960" lon="-8.7862620">
        <ele>6.6</ele>
        <time>2021-05-17T05:52:43Z</time>
      </trkpt>
      <trkpt lat="41.4129120" lon="-8.7862620">
        <ele>6.6</ele>
        <time>2021-05-17T05:52:44Z</time>
      </trkpt>
      <trkpt lat="41.4129230" lon="-8.7862660">
        <ele>6.7</ele>
        <time>2021-05-17T05:52:45Z</time>
      </trkpt>
      <trkpt lat="41.4129350" lon="-8.7862630">
        <ele>6.7</ele>
        <time>2021-05-17T05:52:46Z</time>
      </trkpt>
      <trkpt lat="41.4129430" lon="-8.7862620">
        <ele>6.7</ele>
        <time>2021-05-17T05:52:47Z</time>
      </trkpt>
      <trkpt lat="41.4129480" lon="-8.7862640">
        <ele>6.7</ele>
        <time>2021-05-17T05:52:48Z</time>
      </trkpt>
      <trkpt lat="41.4129600" lon="-8.7862660">
        <ele>6.7</ele>
        <time>2021-05-17T05:52:49Z</time>
      </trkpt>
      <trkpt lat="41.4129730" lon="-8.7862660">
        <ele>6.7</ele>
        <time>2021-05-17T05:52:50Z</time>
      </trkpt>
      <trkpt lat="41.4129830" lon="-8.7862660">
        <ele>6.7</ele>
        <time>2021-05-17T05:52:51Z</time>
      </trkpt>
      <trkpt lat="41.4129940" lon="-8.7862630">
        <ele>6.7</ele>
        <time>2021-05-17T05:52:52Z</time>
      </trkpt>
      <trkpt lat="41.4130080" lon="-8.7862600">
        <ele>6.7</ele>
        <time>2021-05-17T05:52:53Z</time>
      </trkpt>
      <trkpt lat="41.4130290" lon="-8.7862670">
        <ele>6.7</ele>
        <time>2021-05-17T05:52:54Z</time>
      </trkpt>
      <trkpt lat="41.4130360" lon="-8.7862640">
        <ele>6.7</ele>
        <time>2021-05-17T05:52:55Z</time>
      </trkpt>
      <trkpt lat="41.4130330" lon="-8.7862640">
        <ele>6.7</ele>
        <time>2021-05-17T05:52:56Z</time>
      </trkpt>
      <trkpt lat="41.4130300" lon="-8.7862660">
        <ele>6.7</ele>
        <time>2021-05-17T05:52:57Z</time>
      </trkpt>
      <trkpt lat="41.4130280" lon="-8.7862640">
        <ele>6.7</ele>
        <time>2021-05-17T05:52:58Z</time>
      </trkpt>
      <trkpt lat="41.4130290" lon="-8.7862630">
        <ele>6.7</ele>
        <time>2021-05-17T05:52:59Z</time>
      </trkpt>
      <trkpt lat="41.4130320" lon="-8.7862610">
        <ele>6.7</ele>
        <time>2021-05-17T05:53:00Z</time>
      </trkpt>
      <trkpt lat="41.4130420" lon="-8.7862580">
        <ele>6.7</ele>
        <time>2021-05-17T05:53:01Z</time>
      </trkpt>
      <trkpt lat="41.4130550" lon="-8.7862600">
        <ele>6.7</ele>
        <time>2021-05-17T05:53:02Z</time>
      </trkpt>
      <trkpt lat="41.4130680" lon="-8.7862550">
        <ele>6.7</ele>
        <time>2021-05-17T05:53:03Z</time>
      </trkpt>
      <trkpt lat="41.4130800" lon="-8.7862520">
        <ele>6.7</ele>
        <time>2021-05-17T05:53:04Z</time>
      </trkpt>
      <trkpt lat="41.4130930" lon="-8.7862490">
        <ele>6.7</ele>
        <time>2021-05-17T05:53:05Z</time>
      </trkpt>
      <trkpt lat="41.4131040" lon="-8.7862480">
        <ele>6.7</ele>
        <time>2021-05-17T05:53:06Z</time>
      </trkpt>
      <trkpt lat="41.4131200" lon="-8.7862480">
        <ele>6.7</ele>
        <time>2021-05-17T05:53:07Z</time>
      </trkpt>
      <trkpt lat="41.4131320" lon="-8.7862380">
        <ele>6.7</ele>
        <time>2021-05-17T05:53:08Z</time>
      </trkpt>
      <trkpt lat="41.4131400" lon="-8.7862440">
        <ele>6.7</ele>
        <time>2021-05-17T05:53:09Z</time>
      </trkpt>
      <trkpt lat="41.4131550" lon="-8.7862380">
        <ele>6.7</ele>
        <time>2021-05-17T05:53:10Z</time>
      </trkpt>
      <trkpt lat="41.4131670" lon="-8.7862320">
        <ele>6.7</ele>
        <time>2021-05-17T05:53:11Z</time>
      </trkpt>
      <trkpt lat="41.4131830" lon="-8.7862270">
        <ele>6.7</ele>
        <time>2021-05-17T05:53:12Z</time>
      </trkpt>
      <trkpt lat="41.4131940" lon="-8.7862190">
        <ele>6.7</ele>
        <time>2021-05-17T05:53:13Z</time>
      </trkpt>
      <trkpt lat="41.4132040" lon="-8.7862170">
        <ele>6.7</ele>
        <time>2021-05-17T05:53:14Z</time>
      </trkpt>
      <trkpt lat="41.4132240" lon="-8.7862130">
        <ele>6.7</ele>
        <time>2021-05-17T05:53:15Z</time>
      </trkpt>
      <trkpt lat="41.4132420" lon="-8.7862160">
        <ele>6.7</ele>
        <time>2021-05-17T05:53:16Z</time>
      </trkpt>
      <trkpt lat="41.4132590" lon="-8.7862200">
        <ele>6.7</ele>
        <time>2021-05-17T05:53:17Z</time>
      </trkpt>
      <trkpt lat="41.4132750" lon="-8.7862180">
        <ele>6.7</ele>
        <time>2021-05-17T05:53:18Z</time>
      </trkpt>
      <trkpt lat="41.4132950" lon="-8.7862140">
        <ele>6.7</ele>
        <time>2021-05-17T05:53:19Z</time>
      </trkpt>
      <trkpt lat="41.4133240" lon="-8.7862210">
        <ele>6.7</ele>
        <time>2021-05-17T05:53:20Z</time>
      </trkpt>
      <trkpt lat="41.4133330" lon="-8.7862200">
        <ele>6.7</ele>
        <time>2021-05-17T05:53:21Z</time>
      </trkpt>
      <trkpt lat="41.4133500" lon="-8.7862160">
        <ele>6.7</ele>
        <time>2021-05-17T05:53:22Z</time>
      </trkpt>
      <trkpt lat="41.4133660" lon="-8.7862110">
        <ele>6.7</ele>
        <time>2021-05-17T05:53:23Z</time>
      </trkpt>
      <trkpt lat="41.4133830" lon="-8.7862060">
        <ele>6.7</ele>
        <time>2021-05-17T05:53:24Z</time>
      </trkpt>
      <trkpt lat="41.4134010" lon="-8.7862010">
        <ele>6.7</ele>
        <time>2021-05-17T05:53:25Z</time>
      </trkpt>
      <trkpt lat="41.4134170" lon="-8.7862070">
        <ele>6.7</ele>
        <time>2021-05-17T05:53:26Z</time>
      </trkpt>
      <trkpt lat="41.4134340" lon="-8.7862040">
        <ele>6.7</ele>
        <time>2021-05-17T05:53:27Z</time>
      </trkpt>
      <trkpt lat="41.4134500" lon="-8.7861980">
        <ele>6.7</ele>
        <time>2021-05-17T05:53:28Z</time>
      </trkpt>
      <trkpt lat="41.4134670" lon="-8.7861980">
        <ele>6.7</ele>
        <time>2021-05-17T05:53:29Z</time>
      </trkpt>
      <trkpt lat="41.4134810" lon="-8.7861940">
        <ele>6.7</ele>
        <time>2021-05-17T05:53:30Z</time>
      </trkpt>
      <trkpt lat="41.4134960" lon="-8.7861980">
        <ele>6.8</ele>
        <time>2021-05-17T05:53:31Z</time>
      </trkpt>
      <trkpt lat="41.4135100" lon="-8.7861950">
        <ele>6.8</ele>
        <time>2021-05-17T05:53:32Z</time>
      </trkpt>
      <trkpt lat="41.4135260" lon="-8.7861940">
        <ele>6.8</ele>
        <time>2021-05-17T05:53:33Z</time>
      </trkpt>
      <trkpt lat="41.4135420" lon="-8.7861870">
        <ele>6.8</ele>
        <time>2021-05-17T05:53:34Z</time>
      </trkpt>
      <trkpt lat="41.4135540" lon="-8.7861750">
        <ele>6.8</ele>
        <time>2021-05-17T05:53:35Z</time>
      </trkpt>
      <trkpt lat="41.4135690" lon="-8.7861700">
        <ele>6.8</ele>
        <time>2021-05-17T05:53:36Z</time>
      </trkpt>
      <trkpt lat="41.4135850" lon="-8.7861730">
        <ele>6.8</ele>
        <time>2021-05-17T05:53:37Z</time>
      </trkpt>
      <trkpt lat="41.4136010" lon="-8.7861750">
        <ele>6.8</ele>
        <time>2021-05-17T05:53:38Z</time>
      </trkpt>
      <trkpt lat="41.4136160" lon="-8.7861760">
        <ele>6.8</ele>
        <time>2021-05-17T05:53:39Z</time>
      </trkpt>
      <trkpt lat="41.4136310" lon="-8.7861760">
        <ele>6.9</ele>
        <time>2021-05-17T05:53:40Z</time>
      </trkpt>
      <trkpt lat="41.4136450" lon="-8.7861740">
        <ele>6.9</ele>
        <time>2021-05-17T05:53:41Z</time>
      </trkpt>
      <trkpt lat="41.4136600" lon="-8.7861700">
        <ele>6.9</ele>
        <time>2021-05-17T05:53:42Z</time>
      </trkpt>
      <trkpt lat="41.4136740" lon="-8.7861690">
        <ele>6.9</ele>
        <time>2021-05-17T05:53:43Z</time>
      </trkpt>
      <trkpt lat="41.4136890" lon="-8.7861710">
        <ele>6.9</ele>
        <time>2021-05-17T05:53:44Z</time>
      </trkpt>
      <trkpt lat="41.4137020" lon="-8.7861630">
        <ele>6.9</ele>
        <time>2021-05-17T05:53:45Z</time>
      </trkpt>
      <trkpt lat="41.4137160" lon="-8.7861580">
        <ele>6.9</ele>
        <time>2021-05-17T05:53:46Z</time>
      </trkpt>
      <trkpt lat="41.4137320" lon="-8.7861650">
        <ele>7.0</ele>
        <time>2021-05-17T05:53:47Z</time>
      </trkpt>
      <trkpt lat="41.4137450" lon="-8.7861640">
        <ele>7.0</ele>
        <time>2021-05-17T05:53:48Z</time>
      </trkpt>
      <trkpt lat="41.4137590" lon="-8.7861680">
        <ele>7.0</ele>
        <time>2021-05-17T05:53:49Z</time>
      </trkpt>
      <trkpt lat="41.4137720" lon="-8.7861680">
        <ele>7.0</ele>
        <time>2021-05-17T05:53:50Z</time>
      </trkpt>
      <trkpt lat="41.4137870" lon="-8.7861720">
        <ele>7.0</ele>
        <time>2021-05-17T05:53:51Z</time>
      </trkpt>
      <trkpt lat="41.4138020" lon="-8.7861680">
        <ele>7.0</ele>
        <time>2021-05-17T05:53:52Z</time>
      </trkpt>
      <trkpt lat="41.4138170" lon="-8.7861680">
        <ele>7.0</ele>
        <time>2021-05-17T05:53:53Z</time>
      </trkpt>
      <trkpt lat="41.4138320" lon="-8.7861740">
        <ele>7.0</ele>
        <time>2021-05-17T05:53:54Z</time>
      </trkpt>
      <trkpt lat="41.4138460" lon="-8.7861820">
        <ele>7.0</ele>
        <time>2021-05-17T05:53:55Z</time>
      </trkpt>
      <trkpt lat="41.4138590" lon="-8.7861790">
        <ele>7.0</ele>
        <time>2021-05-17T05:53:56Z</time>
      </trkpt>
      <trkpt lat="41.4138670" lon="-8.7861720">
        <ele>7.0</ele>
        <time>2021-05-17T05:53:57Z</time>
      </trkpt>
      <trkpt lat="41.4138790" lon="-8.7861720">
        <ele>7.0</ele>
        <time>2021-05-17T05:53:58Z</time>
      </trkpt>
      <trkpt lat="41.4138850" lon="-8.7861740">
        <ele>7.0</ele>
        <time>2021-05-17T05:53:59Z</time>
      </trkpt>
      <trkpt lat="41.4138940" lon="-8.7861800">
        <ele>7.0</ele>
        <time>2021-05-17T05:54:00Z</time>
      </trkpt>
      <trkpt lat="41.4139060" lon="-8.7861800">
        <ele>7.0</ele>
        <time>2021-05-17T05:54:01Z</time>
      </trkpt>
      <trkpt lat="41.4139210" lon="-8.7861770">
        <ele>7.0</ele>
        <time>2021-05-17T05:54:02Z</time>
      </trkpt>
      <trkpt lat="41.4139270" lon="-8.7861740">
        <ele>7.0</ele>
        <time>2021-05-17T05:54:03Z</time>
      </trkpt>
      <trkpt lat="41.4139380" lon="-8.7861720">
        <ele>7.0</ele>
        <time>2021-05-17T05:54:04Z</time>
      </trkpt>
      <trkpt lat="41.4139550" lon="-8.7861730">
        <ele>7.0</ele>
        <time>2021-05-17T05:54:05Z</time>
      </trkpt>
      <trkpt lat="41.4139680" lon="-8.7861780">
        <ele>7.0</ele>
        <time>2021-05-17T05:54:06Z</time>
      </trkpt>
      <trkpt lat="41.4139890" lon="-8.7861800">
        <ele>6.9</ele>
        <time>2021-05-17T05:54:07Z</time>
      </trkpt>
      <trkpt lat="41.4139990" lon="-8.7861820">
        <ele>6.9</ele>
        <time>2021-05-17T05:54:08Z</time>
      </trkpt>
      <trkpt lat="41.4140090" lon="-8.7861850">
        <ele>6.9</ele>
        <time>2021-05-17T05:54:09Z</time>
      </trkpt>
      <trkpt lat="41.4140280" lon="-8.7861810">
        <ele>6.9</ele>
        <time>2021-05-17T05:54:10Z</time>
      </trkpt>
      <trkpt lat="41.4140430" lon="-8.7861820">
        <ele>6.9</ele>
        <time>2021-05-17T05:54:11Z</time>
      </trkpt>
      <trkpt lat="41.4140650" lon="-8.7861820">
        <ele>6.8</ele>
        <time>2021-05-17T05:54:12Z</time>
      </trkpt>
      <trkpt lat="41.4140750" lon="-8.7861830">
        <ele>6.8</ele>
        <time>2021-05-17T05:54:13Z</time>
      </trkpt>
      <trkpt lat="41.4140840" lon="-8.7861830">
        <ele>6.8</ele>
        <time>2021-05-17T05:54:14Z</time>
      </trkpt>
      <trkpt lat="41.4141000" lon="-8.7861850">
        <ele>6.7</ele>
        <time>2021-05-17T05:54:15Z</time>
      </trkpt>
      <trkpt lat="41.4141150" lon="-8.7861820">
        <ele>6.7</ele>
        <time>2021-05-17T05:54:16Z</time>
      </trkpt>
      <trkpt lat="41.4141300" lon="-8.7861850">
        <ele>6.7</ele>
        <time>2021-05-17T05:54:17Z</time>
      </trkpt>
      <trkpt lat="41.4141450" lon="-8.7861840">
        <ele>6.6</ele>
        <time>2021-05-17T05:54:18Z</time>
      </trkpt>
      <trkpt lat="41.4141620" lon="-8.7861870">
        <ele>6.6</ele>
        <time>2021-05-17T05:54:19Z</time>
      </trkpt>
      <trkpt lat="41.4141780" lon="-8.7861910">
        <ele>6.5</ele>
        <time>2021-05-17T05:54:20Z</time>
      </trkpt>
      <trkpt lat="41.4141950" lon="-8.7861900">
        <ele>6.5</ele>
        <time>2021-05-17T05:54:21Z</time>
      </trkpt>
      <trkpt lat="41.4142100" lon="-8.7861830">
        <ele>6.5</ele>
        <time>2021-05-17T05:54:22Z</time>
      </trkpt>
      <trkpt lat="41.4142260" lon="-8.7861820">
        <ele>6.4</ele>
        <time>2021-05-17T05:54:23Z</time>
      </trkpt>
      <trkpt lat="41.4142410" lon="-8.7861860">
        <ele>6.4</ele>
        <time>2021-05-17T05:54:24Z</time>
      </trkpt>
      <trkpt lat="41.4142560" lon="-8.7861890">
        <ele>6.4</ele>
        <time>2021-05-17T05:54:25Z</time>
      </trkpt>
      <trkpt lat="41.4142690" lon="-8.7861870">
        <ele>6.3</ele>
        <time>2021-05-17T05:54:26Z</time>
      </trkpt>
      <trkpt lat="41.4142840" lon="-8.7861900">
        <ele>6.3</ele>
        <time>2021-05-17T05:54:27Z</time>
      </trkpt>
      <trkpt lat="41.4142980" lon="-8.7861860">
        <ele>6.3</ele>
        <time>2021-05-17T05:54:28Z</time>
      </trkpt>
      <trkpt lat="41.4143140" lon="-8.7861880">
        <ele>6.2</ele>
        <time>2021-05-17T05:54:29Z</time>
      </trkpt>
      <trkpt lat="41.4143290" lon="-8.7861870">
        <ele>6.2</ele>
        <time>2021-05-17T05:54:30Z</time>
      </trkpt>
      <trkpt lat="41.4143450" lon="-8.7861880">
        <ele>6.2</ele>
        <time>2021-05-17T05:54:31Z</time>
      </trkpt>
      <trkpt lat="41.4143590" lon="-8.7861850">
        <ele>6.2</ele>
        <time>2021-05-17T05:54:32Z</time>
      </trkpt>
      <trkpt lat="41.4143730" lon="-8.7861830">
        <ele>6.2</ele>
        <time>2021-05-17T05:54:33Z</time>
      </trkpt>
      <trkpt lat="41.4143880" lon="-8.7861840">
        <ele>6.1</ele>
        <time>2021-05-17T05:54:34Z</time>
      </trkpt>
      <trkpt lat="41.4144030" lon="-8.7861870">
        <ele>6.1</ele>
        <time>2021-05-17T05:54:35Z</time>
      </trkpt>
      <trkpt lat="41.4144180" lon="-8.7861880">
        <ele>6.1</ele>
        <time>2021-05-17T05:54:36Z</time>
      </trkpt>
      <trkpt lat="41.4144320" lon="-8.7861870">
        <ele>6.1</ele>
        <time>2021-05-17T05:54:37Z</time>
      </trkpt>
      <trkpt lat="41.4144450" lon="-8.7861840">
        <ele>6.1</ele>
        <time>2021-05-17T05:54:38Z</time>
      </trkpt>
      <trkpt lat="41.4144610" lon="-8.7861870">
        <ele>6.1</ele>
        <time>2021-05-17T05:54:39Z</time>
      </trkpt>
      <trkpt lat="41.4144750" lon="-8.7861950">
        <ele>6.0</ele>
        <time>2021-05-17T05:54:40Z</time>
      </trkpt>
      <trkpt lat="41.4144910" lon="-8.7861910">
        <ele>6.0</ele>
        <time>2021-05-17T05:54:41Z</time>
      </trkpt>
      <trkpt lat="41.4145050" lon="-8.7861870">
        <ele>6.0</ele>
        <time>2021-05-17T05:54:42Z</time>
      </trkpt>
      <trkpt lat="41.4145210" lon="-8.7861900">
        <ele>6.0</ele>
        <time>2021-05-17T05:54:43Z</time>
      </trkpt>
      <trkpt lat="41.4145370" lon="-8.7861870">
        <ele>6.0</ele>
        <time>2021-05-17T05:54:44Z</time>
      </trkpt>
      <trkpt lat="41.4145520" lon="-8.7861910">
        <ele>6.0</ele>
        <time>2021-05-17T05:54:45Z</time>
      </trkpt>
      <trkpt lat="41.4145680" lon="-8.7861880">
        <ele>5.9</ele>
        <time>2021-05-17T05:54:46Z</time>
      </trkpt>
      <trkpt lat="41.4145820" lon="-8.7861840">
        <ele>5.9</ele>
        <time>2021-05-17T05:54:47Z</time>
      </trkpt>
      <trkpt lat="41.4145960" lon="-8.7861880">
        <ele>5.9</ele>
        <time>2021-05-17T05:54:48Z</time>
      </trkpt>
      <trkpt lat="41.4146100" lon="-8.7861860">
        <ele>5.9</ele>
        <time>2021-05-17T05:54:49Z</time>
      </trkpt>
      <trkpt lat="41.4146250" lon="-8.7861890">
        <ele>5.9</ele>
        <time>2021-05-17T05:54:50Z</time>
      </trkpt>
      <trkpt lat="41.4146390" lon="-8.7861920">
        <ele>5.8</ele>
        <time>2021-05-17T05:54:51Z</time>
      </trkpt>
      <trkpt lat="41.4146530" lon="-8.7862010">
        <ele>5.8</ele>
        <time>2021-05-17T05:54:52Z</time>
      </trkpt>
      <trkpt lat="41.4146670" lon="-8.7862040">
        <ele>5.8</ele>
        <time>2021-05-17T05:54:53Z</time>
      </trkpt>
      <trkpt lat="41.4146800" lon="-8.7862030">
        <ele>5.8</ele>
        <time>2021-05-17T05:54:54Z</time>
      </trkpt>
      <trkpt lat="41.4146930" lon="-8.7862090">
        <ele>5.8</ele>
        <time>2021-05-17T05:54:55Z</time>
      </trkpt>
      <trkpt lat="41.4147060" lon="-8.7862220">
        <ele>5.8</ele>
        <time>2021-05-17T05:54:56Z</time>
      </trkpt>
      <trkpt lat="41.4147200" lon="-8.7862280">
        <ele>5.8</ele>
        <time>2021-05-17T05:54:57Z</time>
      </trkpt>
      <trkpt lat="41.4147340" lon="-8.7862310">
        <ele>5.8</ele>
        <time>2021-05-17T05:54:58Z</time>
      </trkpt>
      <trkpt lat="41.4147470" lon="-8.7862410">
        <ele>5.8</ele>
        <time>2021-05-17T05:54:59Z</time>
      </trkpt>
      <trkpt lat="41.4147610" lon="-8.7862480">
        <ele>5.8</ele>
        <time>2021-05-17T05:55:00Z</time>
      </trkpt>
      <trkpt lat="41.4147750" lon="-8.7862540">
        <ele>5.7</ele>
        <time>2021-05-17T05:55:01Z</time>
      </trkpt>
      <trkpt lat="41.4147880" lon="-8.7862630">
        <ele>5.7</ele>
        <time>2021-05-17T05:55:02Z</time>
      </trkpt>
      <trkpt lat="41.4148000" lon="-8.7862580">
        <ele>5.7</ele>
        <time>2021-05-17T05:55:03Z</time>
      </trkpt>
      <trkpt lat="41.4148100" lon="-8.7862640">
        <ele>5.7</ele>
        <time>2021-05-17T05:55:04Z</time>
      </trkpt>
      <trkpt lat="41.4148190" lon="-8.7862600">
        <ele>5.7</ele>
        <time>2021-05-17T05:55:05Z</time>
      </trkpt>
      <trkpt lat="41.4148240" lon="-8.7862620">
        <ele>5.7</ele>
        <time>2021-05-17T05:55:06Z</time>
      </trkpt>
      <trkpt lat="41.4148430" lon="-8.7862650">
        <ele>5.8</ele>
        <time>2021-05-17T05:55:07Z</time>
      </trkpt>
      <trkpt lat="41.4148480" lon="-8.7862690">
        <ele>5.8</ele>
        <time>2021-05-17T05:55:08Z</time>
      </trkpt>
      <trkpt lat="41.4148640" lon="-8.7862760">
        <ele>5.8</ele>
        <time>2021-05-17T05:55:09Z</time>
      </trkpt>
      <trkpt lat="41.4148750" lon="-8.7862830">
        <ele>5.8</ele>
        <time>2021-05-17T05:55:10Z</time>
      </trkpt>
      <trkpt lat="41.4148930" lon="-8.7862890">
        <ele>5.8</ele>
        <time>2021-05-17T05:55:11Z</time>
      </trkpt>
      <trkpt lat="41.4149090" lon="-8.7862960">
        <ele>5.8</ele>
        <time>2021-05-17T05:55:12Z</time>
      </trkpt>
      <trkpt lat="41.4149240" lon="-8.7863020">
        <ele>5.8</ele>
        <time>2021-05-17T05:55:13Z</time>
      </trkpt>
      <trkpt lat="41.4149390" lon="-8.7863110">
        <ele>5.9</ele>
        <time>2021-05-17T05:55:14Z</time>
      </trkpt>
      <trkpt lat="41.4149550" lon="-8.7863140">
        <ele>5.9</ele>
        <time>2021-05-17T05:55:15Z</time>
      </trkpt>
      <trkpt lat="41.4149690" lon="-8.7863190">
        <ele>5.9</ele>
        <time>2021-05-17T05:55:16Z</time>
      </trkpt>
      <trkpt lat="41.4149820" lon="-8.7863280">
        <ele>6.0</ele>
        <time>2021-05-17T05:55:17Z</time>
      </trkpt>
      <trkpt lat="41.4149980" lon="-8.7863320">
        <ele>6.0</ele>
        <time>2021-05-17T05:55:18Z</time>
      </trkpt>
      <trkpt lat="41.4150120" lon="-8.7863390">
        <ele>6.0</ele>
        <time>2021-05-17T05:55:19Z</time>
      </trkpt>
      <trkpt lat="41.4150250" lon="-8.7863390">
        <ele>6.1</ele>
        <time>2021-05-17T05:55:20Z</time>
      </trkpt>
      <trkpt lat="41.4150400" lon="-8.7863400">
        <ele>6.1</ele>
        <time>2021-05-17T05:55:21Z</time>
      </trkpt>
      <trkpt lat="41.4150530" lon="-8.7863440">
        <ele>6.1</ele>
        <time>2021-05-17T05:55:22Z</time>
      </trkpt>
      <trkpt lat="41.4150660" lon="-8.7863520">
        <ele>6.2</ele>
        <time>2021-05-17T05:55:23Z</time>
      </trkpt>
      <trkpt lat="41.4150790" lon="-8.7863530">
        <ele>6.2</ele>
        <time>2021-05-17T05:55:24Z</time>
      </trkpt>
      <trkpt lat="41.4150930" lon="-8.7863570">
        <ele>6.3</ele>
        <time>2021-05-17T05:55:25Z</time>
      </trkpt>
      <trkpt lat="41.4151050" lon="-8.7863640">
        <ele>6.3</ele>
        <time>2021-05-17T05:55:26Z</time>
      </trkpt>
      <trkpt lat="41.4151190" lon="-8.7863680">
        <ele>6.3</ele>
        <time>2021-05-17T05:55:27Z</time>
      </trkpt>
      <trkpt lat="41.4151340" lon="-8.7863700">
        <ele>6.4</ele>
        <time>2021-05-17T05:55:28Z</time>
      </trkpt>
      <trkpt lat="41.4151550" lon="-8.7863810">
        <ele>6.5</ele>
        <time>2021-05-17T05:55:29Z</time>
      </trkpt>
      <trkpt lat="41.4151630" lon="-8.7863830">
        <ele>6.5</ele>
        <time>2021-05-17T05:55:30Z</time>
      </trkpt>
      <trkpt lat="41.4151720" lon="-8.7863860">
        <ele>6.5</ele>
        <time>2021-05-17T05:55:31Z</time>
      </trkpt>
      <trkpt lat="41.4151860" lon="-8.7863860">
        <ele>6.6</ele>
        <time>2021-05-17T05:55:32Z</time>
      </trkpt>
      <trkpt lat="41.4151910" lon="-8.7863820">
        <ele>6.6</ele>
        <time>2021-05-17T05:55:33Z</time>
      </trkpt>
      <trkpt lat="41.4152000" lon="-8.7863790">
        <ele>6.6</ele>
        <time>2021-05-17T05:55:34Z</time>
      </trkpt>
      <trkpt lat="41.4152100" lon="-8.7863710">
        <ele>6.7</ele>
        <time>2021-05-17T05:55:35Z</time>
      </trkpt>
      <trkpt lat="41.4152220" lon="-8.7863700">
        <ele>6.7</ele>
        <time>2021-05-17T05:55:36Z</time>
      </trkpt>
      <trkpt lat="41.4152310" lon="-8.7863640">
        <ele>6.7</ele>
        <time>2021-05-17T05:55:37Z</time>
      </trkpt>
      <trkpt lat="41.4152430" lon="-8.7863630">
        <ele>6.8</ele>
        <time>2021-05-17T05:55:38Z</time>
      </trkpt>
      <trkpt lat="41.4152540" lon="-8.7863610">
        <ele>6.8</ele>
        <time>2021-05-17T05:55:39Z</time>
      </trkpt>
      <trkpt lat="41.4152640" lon="-8.7863560">
        <ele>6.8</ele>
        <time>2021-05-17T05:55:40Z</time>
      </trkpt>
      <trkpt lat="41.4152800" lon="-8.7863570">
        <ele>6.9</ele>
        <time>2021-05-17T05:55:41Z</time>
      </trkpt>
      <trkpt lat="41.4152910" lon="-8.7863590">
        <ele>6.9</ele>
        <time>2021-05-17T05:55:42Z</time>
      </trkpt>
      <trkpt lat="41.4153010" lon="-8.7863600">
        <ele>6.9</ele>
        <time>2021-05-17T05:55:43Z</time>
      </trkpt>
      <trkpt lat="41.4153170" lon="-8.7863590">
        <ele>7.0</ele>
        <time>2021-05-17T05:55:44Z</time>
      </trkpt>
      <trkpt lat="41.4153330" lon="-8.7863530">
        <ele>7.0</ele>
        <time>2021-05-17T05:55:45Z</time>
      </trkpt>
      <trkpt lat="41.4153470" lon="-8.7863510">
        <ele>7.1</ele>
        <time>2021-05-17T05:55:46Z</time>
      </trkpt>
      <trkpt lat="41.4153640" lon="-8.7863470">
        <ele>7.1</ele>
        <time>2021-05-17T05:55:47Z</time>
      </trkpt>
      <trkpt lat="41.4153810" lon="-8.7863490">
        <ele>7.1</ele>
        <time>2021-05-17T05:55:48Z</time>
      </trkpt>
      <trkpt lat="41.4153960" lon="-8.7863420">
        <ele>7.2</ele>
        <time>2021-05-17T05:55:49Z</time>
      </trkpt>
      <trkpt lat="41.4154100" lon="-8.7863430">
        <ele>7.2</ele>
        <time>2021-05-17T05:55:50Z</time>
      </trkpt>
      <trkpt lat="41.4154280" lon="-8.7863420">
        <ele>7.3</ele>
        <time>2021-05-17T05:55:51Z</time>
      </trkpt>
      <trkpt lat="41.4154430" lon="-8.7863300">
        <ele>7.3</ele>
        <time>2021-05-17T05:55:52Z</time>
      </trkpt>
      <trkpt lat="41.4154590" lon="-8.7863320">
        <ele>7.3</ele>
        <time>2021-05-17T05:55:53Z</time>
      </trkpt>
      <trkpt lat="41.4154730" lon="-8.7863280">
        <ele>7.4</ele>
        <time>2021-05-17T05:55:54Z</time>
      </trkpt>
      <trkpt lat="41.4154890" lon="-8.7863270">
        <ele>7.4</ele>
        <time>2021-05-17T05:55:55Z</time>
      </trkpt>
      <trkpt lat="41.4155040" lon="-8.7863310">
        <ele>7.4</ele>
        <time>2021-05-17T05:55:56Z</time>
      </trkpt>
      <trkpt lat="41.4155190" lon="-8.7863260">
        <ele>7.5</ele>
        <time>2021-05-17T05:55:57Z</time>
      </trkpt>
      <trkpt lat="41.4155350" lon="-8.7863260">
        <ele>7.5</ele>
        <time>2021-05-17T05:55:58Z</time>
      </trkpt>
      <trkpt lat="41.4155500" lon="-8.7863240">
        <ele>7.5</ele>
        <time>2021-05-17T05:55:59Z</time>
      </trkpt>
      <trkpt lat="41.4155660" lon="-8.7863240">
        <ele>7.6</ele>
        <time>2021-05-17T05:56:00Z</time>
      </trkpt>
      <trkpt lat="41.4155820" lon="-8.7863230">
        <ele>7.6</ele>
        <time>2021-05-17T05:56:01Z</time>
      </trkpt>
      <trkpt lat="41.4155970" lon="-8.7863180">
        <ele>7.6</ele>
        <time>2021-05-17T05:56:02Z</time>
      </trkpt>
      <trkpt lat="41.4156130" lon="-8.7863280">
        <ele>7.7</ele>
        <time>2021-05-17T05:56:03Z</time>
      </trkpt>
      <trkpt lat="41.4156280" lon="-8.7863190">
        <ele>7.7</ele>
        <time>2021-05-17T05:56:04Z</time>
      </trkpt>
      <trkpt lat="41.4156420" lon="-8.7863080">
        <ele>7.7</ele>
        <time>2021-05-17T05:56:05Z</time>
      </trkpt>
      <trkpt lat="41.4156570" lon="-8.7863080">
        <ele>7.7</ele>
        <time>2021-05-17T05:56:06Z</time>
      </trkpt>
      <trkpt lat="41.4156710" lon="-8.7863060">
        <ele>7.8</ele>
        <time>2021-05-17T05:56:07Z</time>
      </trkpt>
      <trkpt lat="41.4156860" lon="-8.7863060">
        <ele>7.8</ele>
        <time>2021-05-17T05:56:08Z</time>
      </trkpt>
      <trkpt lat="41.4157020" lon="-8.7863050">
        <ele>7.8</ele>
        <time>2021-05-17T05:56:09Z</time>
      </trkpt>
      <trkpt lat="41.4157160" lon="-8.7863020">
        <ele>7.8</ele>
        <time>2021-05-17T05:56:10Z</time>
      </trkpt>
      <trkpt lat="41.4157310" lon="-8.7863020">
        <ele>7.9</ele>
        <time>2021-05-17T05:56:11Z</time>
      </trkpt>
      <trkpt lat="41.4157450" lon="-8.7862990">
        <ele>7.9</ele>
        <time>2021-05-17T05:56:12Z</time>
      </trkpt>
      <trkpt lat="41.4157580" lon="-8.7862960">
        <ele>7.9</ele>
        <time>2021-05-17T05:56:13Z</time>
      </trkpt>
      <trkpt lat="41.4157750" lon="-8.7862960">
        <ele>7.9</ele>
        <time>2021-05-17T05:56:14Z</time>
      </trkpt>
      <trkpt lat="41.4157890" lon="-8.7862930">
        <ele>7.9</ele>
        <time>2021-05-17T05:56:15Z</time>
      </trkpt>
      <trkpt lat="41.4158050" lon="-8.7862850">
        <ele>7.9</ele>
        <time>2021-05-17T05:56:16Z</time>
      </trkpt>
      <trkpt lat="41.4158200" lon="-8.7862900">
        <ele>8.0</ele>
        <time>2021-05-17T05:56:17Z</time>
      </trkpt>
      <trkpt lat="41.4158350" lon="-8.7862950">
        <ele>8.0</ele>
        <time>2021-05-17T05:56:18Z</time>
      </trkpt>
      <trkpt lat="41.4158490" lon="-8.7862920">
        <ele>8.0</ele>
        <time>2021-05-17T05:56:19Z</time>
      </trkpt>
      <trkpt lat="41.4158650" lon="-8.7862850">
        <ele>8.0</ele>
        <time>2021-05-17T05:56:20Z</time>
      </trkpt>
      <trkpt lat="41.4158790" lon="-8.7862880">
        <ele>8.0</ele>
        <time>2021-05-17T05:56:21Z</time>
      </trkpt>
      <trkpt lat="41.4158930" lon="-8.7862840">
        <ele>8.0</ele>
        <time>2021-05-17T05:56:22Z</time>
      </trkpt>
      <trkpt lat="41.4159080" lon="-8.7862850">
        <ele>8.0</ele>
        <time>2021-05-17T05:56:23Z</time>
      </trkpt>
      <trkpt lat="41.4159240" lon="-8.7862880">
        <ele>8.0</ele>
        <time>2021-05-17T05:56:24Z</time>
      </trkpt>
      <trkpt lat="41.4159370" lon="-8.7862870">
        <ele>8.0</ele>
        <time>2021-05-17T05:56:25Z</time>
      </trkpt>
      <trkpt lat="41.4159510" lon="-8.7862810">
        <ele>8.0</ele>
        <time>2021-05-17T05:56:26Z</time>
      </trkpt>
      <trkpt lat="41.4159640" lon="-8.7862720">
        <ele>8.0</ele>
        <time>2021-05-17T05:56:27Z</time>
      </trkpt>
      <trkpt lat="41.4159780" lon="-8.7862680">
        <ele>8.0</ele>
        <time>2021-05-17T05:56:28Z</time>
      </trkpt>
      <trkpt lat="41.4159920" lon="-8.7862640">
        <ele>8.0</ele>
        <time>2021-05-17T05:56:29Z</time>
      </trkpt>
      <trkpt lat="41.4160080" lon="-8.7862660">
        <ele>8.0</ele>
        <time>2021-05-17T05:56:30Z</time>
      </trkpt>
      <trkpt lat="41.4160220" lon="-8.7862640">
        <ele>8.0</ele>
        <time>2021-05-17T05:56:31Z</time>
      </trkpt>
      <trkpt lat="41.4160350" lon="-8.7862580">
        <ele>8.0</ele>
        <time>2021-05-17T05:56:32Z</time>
      </trkpt>
      <trkpt lat="41.4160460" lon="-8.7862450">
        <ele>8.0</ele>
        <time>2021-05-17T05:56:33Z</time>
      </trkpt>
      <trkpt lat="41.4160580" lon="-8.7862340">
        <ele>8.0</ele>
        <time>2021-05-17T05:56:34Z</time>
      </trkpt>
      <trkpt lat="41.4160710" lon="-8.7862260">
        <ele>8.0</ele>
        <time>2021-05-17T05:56:35Z</time>
      </trkpt>
      <trkpt lat="41.4160840" lon="-8.7862180">
        <ele>8.0</ele>
        <time>2021-05-17T05:56:36Z</time>
      </trkpt>
      <trkpt lat="41.4160970" lon="-8.7862120">
        <ele>8.0</ele>
        <time>2021-05-17T05:56:37Z</time>
      </trkpt>
      <trkpt lat="41.4161090" lon="-8.7862040">
        <ele>8.0</ele>
        <time>2021-05-17T05:56:38Z</time>
      </trkpt>
      <trkpt lat="41.4161220" lon="-8.7861940">
        <ele>8.0</ele>
        <time>2021-05-17T05:56:39Z</time>
      </trkpt>
      <trkpt lat="41.4161350" lon="-8.7861930">
        <ele>8.0</ele>
        <time>2021-05-17T05:56:40Z</time>
      </trkpt>
      <trkpt lat="41.4161430" lon="-8.7861860">
        <ele>8.0</ele>
        <time>2021-05-17T05:56:41Z</time>
      </trkpt>
      <trkpt lat="41.4161530" lon="-8.7861800">
        <ele>8.0</ele>
        <time>2021-05-17T05:56:42Z</time>
      </trkpt>
      <trkpt lat="41.4161550" lon="-8.7861750">
        <ele>8.0</ele>
        <time>2021-05-17T05:56:43Z</time>
      </trkpt>
      <trkpt lat="41.4161710" lon="-8.7861710">
        <ele>8.0</ele>
        <time>2021-05-17T05:56:44Z</time>
      </trkpt>
      <trkpt lat="41.4161830" lon="-8.7861730">
        <ele>8.0</ele>
        <time>2021-05-17T05:56:45Z</time>
      </trkpt>
      <trkpt lat="41.4161960" lon="-8.7861710">
        <ele>8.0</ele>
        <time>2021-05-17T05:56:46Z</time>
      </trkpt>
      <trkpt lat="41.4162040" lon="-8.7861680">
        <ele>8.0</ele>
        <time>2021-05-17T05:56:47Z</time>
      </trkpt>
      <trkpt lat="41.4162150" lon="-8.7861670">
        <ele>8.0</ele>
        <time>2021-05-17T05:56:48Z</time>
      </trkpt>
      <trkpt lat="41.4162380" lon="-8.7861670">
        <ele>8.0</ele>
        <time>2021-05-17T05:56:49Z</time>
      </trkpt>
      <trkpt lat="41.4162460" lon="-8.7861670">
        <ele>8.0</ele>
        <time>2021-05-17T05:56:50Z</time>
      </trkpt>
      <trkpt lat="41.4162550" lon="-8.7861670">
        <ele>8.0</ele>
        <time>2021-05-17T05:56:51Z</time>
      </trkpt>
      <trkpt lat="41.4162710" lon="-8.7861670">
        <ele>8.0</ele>
        <time>2021-05-17T05:56:52Z</time>
      </trkpt>
      <trkpt lat="41.4162850" lon="-8.7861670">
        <ele>8.0</ele>
        <time>2021-05-17T05:56:53Z</time>
      </trkpt>
      <trkpt lat="41.4162990" lon="-8.7861670">
        <ele>7.9</ele>
        <time>2021-05-17T05:56:54Z</time>
      </trkpt>
      <trkpt lat="41.4163130" lon="-8.7861590">
        <ele>7.9</ele>
        <time>2021-05-17T05:56:55Z</time>
      </trkpt>
      <trkpt lat="41.4163280" lon="-8.7861570">
        <ele>7.9</ele>
        <time>2021-05-17T05:56:56Z</time>
      </trkpt>
      <trkpt lat="41.4163420" lon="-8.7861560">
        <ele>7.9</ele>
        <time>2021-05-17T05:56:57Z</time>
      </trkpt>
      <trkpt lat="41.4163560" lon="-8.7861500">
        <ele>7.9</ele>
        <time>2021-05-17T05:56:58Z</time>
      </trkpt>
      <trkpt lat="41.4163690" lon="-8.7861510">
        <ele>7.9</ele>
        <time>2021-05-17T05:56:59Z</time>
      </trkpt>
      <trkpt lat="41.4163910" lon="-8.7861430">
        <ele>7.9</ele>
        <time>2021-05-17T05:57:00Z</time>
      </trkpt>
      <trkpt lat="41.4163980" lon="-8.7861350">
        <ele>7.9</ele>
        <time>2021-05-17T05:57:01Z</time>
      </trkpt>
      <trkpt lat="41.4164060" lon="-8.7861280">
        <ele>7.9</ele>
        <time>2021-05-17T05:57:02Z</time>
      </trkpt>
      <trkpt lat="41.4164060" lon="-8.7860940">
        <ele>7.9</ele>
        <time>2021-05-17T05:57:03Z</time>
      </trkpt>
      <trkpt lat="41.4164000" lon="-8.7860800">
        <ele>7.9</ele>
        <time>2021-05-17T05:57:04Z</time>
      </trkpt>
      <trkpt lat="41.4163890" lon="-8.7860580">
        <ele>7.9</ele>
        <time>2021-05-17T05:57:05Z</time>
      </trkpt>
      <trkpt lat="41.4163900" lon="-8.7860360">
        <ele>7.9</ele>
        <time>2021-05-17T05:57:06Z</time>
      </trkpt>
      <trkpt lat="41.4163900" lon="-8.7860160">
        <ele>7.9</ele>
        <time>2021-05-17T05:57:07Z</time>
      </trkpt>
      <trkpt lat="41.4163880" lon="-8.7859950">
        <ele>7.9</ele>
        <time>2021-05-17T05:57:08Z</time>
      </trkpt>
      <trkpt lat="41.4163810" lon="-8.7859750">
        <ele>7.9</ele>
        <time>2021-05-17T05:57:09Z</time>
      </trkpt>
      <trkpt lat="41.4163800" lon="-8.7859660">
        <ele>7.9</ele>
        <time>2021-05-17T05:57:10Z</time>
      </trkpt>
      <trkpt lat="41.4163790" lon="-8.7859510">
        <ele>7.9</ele>
        <time>2021-05-17T05:57:11Z</time>
      </trkpt>
      <trkpt lat="41.4163820" lon="-8.7859420">
        <ele>7.9</ele>
        <time>2021-05-17T05:57:12Z</time>
      </trkpt>
      <trkpt lat="41.4163840" lon="-8.7859260">
        <ele>7.9</ele>
        <time>2021-05-17T05:57:13Z</time>
      </trkpt>
      <trkpt lat="41.4163910" lon="-8.7859110">
        <ele>7.9</ele>
        <time>2021-05-17T05:57:14Z</time>
      </trkpt>
      <trkpt lat="41.4163910" lon="-8.7858900">
        <ele>7.9</ele>
        <time>2021-05-17T05:57:15Z</time>
      </trkpt>
      <trkpt lat="41.4163860" lon="-8.7858830">
        <ele>7.9</ele>
        <time>2021-05-17T05:57:16Z</time>
      </trkpt>
      <trkpt lat="41.4163850" lon="-8.7858650">
        <ele>7.9</ele>
        <time>2021-05-17T05:57:17Z</time>
      </trkpt>
      <trkpt lat="41.4163870" lon="-8.7858360">
        <ele>7.9</ele>
        <time>2021-05-17T05:57:18Z</time>
      </trkpt>
      <trkpt lat="41.4163870" lon="-8.7858260">
        <ele>7.9</ele>
        <time>2021-05-17T05:57:19Z</time>
      </trkpt>
      <trkpt lat="41.4163880" lon="-8.7858160">
        <ele>8.0</ele>
        <time>2021-05-17T05:57:20Z</time>
      </trkpt>
      <trkpt lat="41.4163960" lon="-8.7858030">
        <ele>8.0</ele>
        <time>2021-05-17T05:57:21Z</time>
      </trkpt>
      <trkpt lat="41.4163940" lon="-8.7857870">
        <ele>8.0</ele>
        <time>2021-05-17T05:57:22Z</time>
      </trkpt>
      <trkpt lat="41.4163980" lon="-8.7857730">
        <ele>8.0</ele>
        <time>2021-05-17T05:57:23Z</time>
      </trkpt>
      <trkpt lat="41.4163980" lon="-8.7857600">
        <ele>8.0</ele>
        <time>2021-05-17T05:57:24Z</time>
      </trkpt>
      <trkpt lat="41.4163990" lon="-8.7857510">
        <ele>8.0</ele>
        <time>2021-05-17T05:57:25Z</time>
      </trkpt>
      <trkpt lat="41.4163990" lon="-8.7857460">
        <ele>8.0</ele>
        <time>2021-05-17T05:57:26Z</time>
      </trkpt>
      <trkpt lat="41.4164000" lon="-8.7857390">
        <ele>8.0</ele>
        <time>2021-05-17T05:57:27Z</time>
      </trkpt>
      <trkpt lat="41.4163980" lon="-8.7857300">
        <ele>8.0</ele>
        <time>2021-05-17T05:57:28Z</time>
      </trkpt>
      <trkpt lat="41.4163910" lon="-8.7857310">
        <ele>8.0</ele>
        <time>2021-05-17T05:57:29Z</time>
      </trkpt>
      <trkpt lat="41.4163810" lon="-8.7857380">
        <ele>8.0</ele>
        <time>2021-05-17T05:57:30Z</time>
      </trkpt>
      <trkpt lat="41.4163700" lon="-8.7857440">
        <ele>8.0</ele>
        <time>2021-05-17T05:57:31Z</time>
      </trkpt>
      <trkpt lat="41.4163570" lon="-8.7857510">
        <ele>8.1</ele>
        <time>2021-05-17T05:57:32Z</time>
      </trkpt>
      <trkpt lat="41.4163490" lon="-8.7857550">
        <ele>8.1</ele>
        <time>2021-05-17T05:57:33Z</time>
      </trkpt>
      <trkpt lat="41.4163420" lon="-8.7857590">
        <ele>8.1</ele>
        <time>2021-05-17T05:57:34Z</time>
      </trkpt>
      <trkpt lat="41.4163350" lon="-8.7857600">
        <ele>8.1</ele>
        <time>2021-05-17T05:57:35Z</time>
      </trkpt>
      <trkpt lat="41.4163360" lon="-8.7857540">
        <ele>8.1</ele>
        <time>2021-05-17T05:57:36Z</time>
      </trkpt>
      <trkpt lat="41.4163370" lon="-8.7857520">
        <ele>8.1</ele>
        <time>2021-05-17T05:57:37Z</time>
      </trkpt>
      <trkpt lat="41.4163400" lon="-8.7857490">
        <ele>8.1</ele>
        <time>2021-05-17T05:57:38Z</time>
      </trkpt>
      <trkpt lat="41.4163400" lon="-8.7857480">
        <ele>8.1</ele>
        <time>2021-05-17T05:57:39Z</time>
      </trkpt>
      <trkpt lat="41.4163380" lon="-8.7857480">
        <ele>8.1</ele>
        <time>2021-05-17T05:57:40Z</time>
      </trkpt>
      <trkpt lat="41.4163360" lon="-8.7857480">
        <ele>8.1</ele>
        <time>2021-05-17T05:57:41Z</time>
      </trkpt>
      <trkpt lat="41.4163350" lon="-8.7857440">
        <ele>8.1</ele>
        <time>2021-05-17T05:57:42Z</time>
      </trkpt>
      <trkpt lat="41.4163360" lon="-8.7857440">
        <ele>8.1</ele>
        <time>2021-05-17T05:57:43Z</time>
      </trkpt>
      <trkpt lat="41.4163330" lon="-8.7857440">
        <ele>8.1</ele>
        <time>2021-05-17T05:57:44Z</time>
      </trkpt>
      <trkpt lat="41.4163300" lon="-8.7857450">
        <ele>8.1</ele>
        <time>2021-05-17T05:57:45Z</time>
      </trkpt>
      <trkpt lat="41.4163270" lon="-8.7857440">
        <ele>8.1</ele>
        <time>2021-05-17T05:57:46Z</time>
      </trkpt>
      <trkpt lat="41.4163230" lon="-8.7857410">
        <ele>8.2</ele>
        <time>2021-05-17T05:57:47Z</time>
      </trkpt>
      <trkpt lat="41.4163240" lon="-8.7857410">
        <ele>8.2</ele>
        <time>2021-05-17T05:57:48Z</time>
      </trkpt>
      <trkpt lat="41.4163260" lon="-8.7857430">
        <ele>8.2</ele>
        <time>2021-05-17T05:57:49Z</time>
      </trkpt>
      <trkpt lat="41.4163240" lon="-8.7857390">
        <ele>8.2</ele>
        <time>2021-05-17T05:57:50Z</time>
      </trkpt>
      <trkpt lat="41.4163240" lon="-8.7857340">
        <ele>8.2</ele>
        <time>2021-05-17T05:57:51Z</time>
      </trkpt>
      <trkpt lat="41.4163230" lon="-8.7857340">
        <ele>8.2</ele>
        <time>2021-05-17T05:57:52Z</time>
      </trkpt>
      <trkpt lat="41.4163220" lon="-8.7857250">
        <ele>8.2</ele>
        <time>2021-05-17T05:57:53Z</time>
      </trkpt>
      <trkpt lat="41.4163270" lon="-8.7857190">
        <ele>8.2</ele>
        <time>2021-05-17T05:57:54Z</time>
      </trkpt>
      <trkpt lat="41.4163310" lon="-8.7857130">
        <ele>8.2</ele>
        <time>2021-05-17T05:57:55Z</time>
      </trkpt>
      <trkpt lat="41.4163350" lon="-8.7857070">
        <ele>8.2</ele>
        <time>2021-05-17T05:57:56Z</time>
      </trkpt>
      <trkpt lat="41.4163400" lon="-8.7857010">
        <ele>8.2</ele>
        <time>2021-05-17T05:57:57Z</time>
      </trkpt>
      <trkpt lat="41.4163440" lon="-8.7856950">
        <ele>8.2</ele>
        <time>2021-05-17T05:57:58Z</time>
      </trkpt>
      <trkpt lat="41.4163560" lon="-8.7856830">
        <ele>8.3</ele>
        <time>2021-05-17T05:57:59Z</time>
      </trkpt>
      <trkpt lat="41.4163650" lon="-8.7856870">
        <ele>8.3</ele>
        <time>2021-05-17T05:58:00Z</time>
      </trkpt>
      <trkpt lat="41.4163740" lon="-8.7856870">
        <ele>8.3</ele>
        <time>2021-05-17T05:58:01Z</time>
      </trkpt>
      <trkpt lat="41.4163750" lon="-8.7856830">
        <ele>8.3</ele>
        <time>2021-05-17T05:58:02Z</time>
      </trkpt>
      <trkpt lat="41.4163770" lon="-8.7856850">
        <ele>8.3</ele>
        <time>2021-05-17T05:58:03Z</time>
      </trkpt>
      <trkpt lat="41.4163750" lon="-8.7856880">
        <ele>8.3</ele>
        <time>2021-05-17T05:58:04Z</time>
      </trkpt>
      <trkpt lat="41.4163730" lon="-8.7856920">
        <ele>8.3</ele>
        <time>2021-05-17T05:58:05Z</time>
      </trkpt>
      <trkpt lat="41.4163730" lon="-8.7856950">
        <ele>8.4</ele>
        <time>2021-05-17T05:58:06Z</time>
      </trkpt>
      <trkpt lat="41.4163730" lon="-8.7856950">
        <ele>8.4</ele>
        <time>2021-05-17T05:58:07Z</time>
      </trkpt>
      <trkpt lat="41.4163750" lon="-8.7856980">
        <ele>8.4</ele>
        <time>2021-05-17T05:58:08Z</time>
      </trkpt>
      <trkpt lat="41.4163750" lon="-8.7856980">
        <ele>8.4</ele>
        <time>2021-05-17T05:58:09Z</time>
      </trkpt>
      <trkpt lat="41.4163770" lon="-8.7856980">
        <ele>8.4</ele>
        <time>2021-05-17T05:58:10Z</time>
      </trkpt>
      <trkpt lat="41.4163760" lon="-8.7856990">
        <ele>8.4</ele>
        <time>2021-05-17T05:58:11Z</time>
      </trkpt>
      <trkpt lat="41.4163770" lon="-8.7857000">
        <ele>8.4</ele>
        <time>2021-05-17T05:58:12Z</time>
      </trkpt>
      <trkpt lat="41.4163790" lon="-8.7857000">
        <ele>8.4</ele>
        <time>2021-05-17T05:58:13Z</time>
      </trkpt>
      <trkpt lat="41.4163800" lon="-8.7857000">
        <ele>8.4</ele>
        <time>2021-05-17T05:58:14Z</time>
      </trkpt>
      <trkpt lat="41.4163780" lon="-8.7856930">
        <ele>8.4</ele>
        <time>2021-05-17T05:58:15Z</time>
      </trkpt>
      <trkpt lat="41.4163770" lon="-8.7857000">
        <ele>8.4</ele>
        <time>2021-05-17T05:58:16Z</time>
      </trkpt>
      <trkpt lat="41.4163760" lon="-8.7856990">
        <ele>8.4</ele>
        <time>2021-05-17T05:58:17Z</time>
      </trkpt>
      <trkpt lat="41.4163750" lon="-8.7857050">
        <ele>8.4</ele>
        <time>2021-05-17T05:58:18Z</time>
      </trkpt>
      <trkpt lat="41.4163750" lon="-8.7857060">
        <ele>8.4</ele>
        <time>2021-05-17T05:58:19Z</time>
      </trkpt>
      <trkpt lat="41.4163740" lon="-8.7857060">
        <ele>8.4</ele>
        <time>2021-05-17T05:58:20Z</time>
      </trkpt>
      <trkpt lat="41.4163730" lon="-8.7857080">
        <ele>8.4</ele>
        <time>2021-05-17T05:58:21Z</time>
      </trkpt>
      <trkpt lat="41.4163720" lon="-8.7857050">
        <ele>8.4</ele>
        <time>2021-05-17T05:58:22Z</time>
      </trkpt>
      <trkpt lat="41.4163750" lon="-8.7857030">
        <ele>8.4</ele>
        <time>2021-05-17T05:58:23Z</time>
      </trkpt>
      <trkpt lat="41.4163760" lon="-8.7857020">
        <ele>8.4</ele>
        <time>2021-05-17T05:58:24Z</time>
      </trkpt>
      <trkpt lat="41.4163710" lon="-8.7857030">
        <ele>8.4</ele>
        <time>2021-05-17T05:58:25Z</time>
      </trkpt>
      <trkpt lat="41.4163700" lon="-8.7857000">
        <ele>8.5</ele>
        <time>2021-05-17T05:58:26Z</time>
      </trkpt>
      <trkpt lat="41.4163710" lon="-8.7856990">
        <ele>8.5</ele>
        <time>2021-05-17T05:58:27Z</time>
      </trkpt>
      <trkpt lat="41.4163700" lon="-8.7856980">
        <ele>8.5</ele>
        <time>2021-05-17T05:58:28Z</time>
      </trkpt>
      <trkpt lat="41.4163710" lon="-8.7856980">
        <ele>8.5</ele>
        <time>2021-05-17T05:58:29Z</time>
      </trkpt>
      <trkpt lat="41.4163720" lon="-8.7856960">
        <ele>8.5</ele>
        <time>2021-05-17T05:58:30Z</time>
      </trkpt>
      <trkpt lat="41.4163740" lon="-8.7856940">
        <ele>8.5</ele>
        <time>2021-05-17T05:58:31Z</time>
      </trkpt>
      <trkpt lat="41.4163820" lon="-8.7856870">
        <ele>8.5</ele>
        <time>2021-05-17T05:58:32Z</time>
      </trkpt>
      <trkpt lat="41.4163770" lon="-8.7856750">
        <ele>8.5</ele>
        <time>2021-05-17T05:58:33Z</time>
      </trkpt>
      <trkpt lat="41.4163840" lon="-8.7856880">
        <ele>8.5</ele>
        <time>2021-05-17T05:58:34Z</time>
      </trkpt>
      <trkpt lat="41.4163850" lon="-8.7856870">
        <ele>8.6</ele>
        <time>2021-05-17T05:58:35Z</time>
      </trkpt>
      <trkpt lat="41.4163870" lon="-8.7856920">
        <ele>8.6</ele>
        <time>2021-05-17T05:58:36Z</time>
      </trkpt>
      <trkpt lat="41.4163860" lon="-8.7857000">
        <ele>8.6</ele>
        <time>2021-05-17T05:58:37Z</time>
      </trkpt>
      <trkpt lat="41.4163830" lon="-8.7856960">
        <ele>8.6</ele>
        <time>2021-05-17T05:58:38Z</time>
      </trkpt>
      <trkpt lat="41.4163820" lon="-8.7856970">
        <ele>8.6</ele>
        <time>2021-05-17T05:58:39Z</time>
      </trkpt>
      <trkpt lat="41.4163830" lon="-8.7856990">
        <ele>8.6</ele>
        <time>2021-05-17T05:58:40Z</time>
      </trkpt>
      <trkpt lat="41.4163840" lon="-8.7857000">
        <ele>8.6</ele>
        <time>2021-05-17T05:58:41Z</time>
      </trkpt>
      <trkpt lat="41.4163850" lon="-8.7857020">
        <ele>8.6</ele>
        <time>2021-05-17T05:58:42Z</time>
      </trkpt>
      <trkpt lat="41.4163850" lon="-8.7857040">
        <ele>8.6</ele>
        <time>2021-05-17T05:58:43Z</time>
      </trkpt>
      <trkpt lat="41.4163850" lon="-8.7857050">
        <ele>8.6</ele>
        <time>2021-05-17T05:58:44Z</time>
      </trkpt>
      <trkpt lat="41.4163850" lon="-8.7857050">
        <ele>8.6</ele>
        <time>2021-05-17T05:58:45Z</time>
      </trkpt>
      <trkpt lat="41.4163870" lon="-8.7857070">
        <ele>8.6</ele>
        <time>2021-05-17T05:58:46Z</time>
      </trkpt>
      <trkpt lat="41.4163880" lon="-8.7857050">
        <ele>8.6</ele>
        <time>2021-05-17T05:58:47Z</time>
      </trkpt>
      <trkpt lat="41.4163900" lon="-8.7856890">
        <ele>8.7</ele>
        <time>2021-05-17T05:58:48Z</time>
      </trkpt>
      <trkpt lat="41.4163930" lon="-8.7856780">
        <ele>8.7</ele>
        <time>2021-05-17T05:58:49Z</time>
      </trkpt>
      <trkpt lat="41.4163920" lon="-8.7856840">
        <ele>8.7</ele>
        <time>2021-05-17T05:58:50Z</time>
      </trkpt>
      <trkpt lat="41.4163910" lon="-8.7856900">
        <ele>8.7</ele>
        <time>2021-05-17T05:58:51Z</time>
      </trkpt>
      <trkpt lat="41.4163950" lon="-8.7856880">
        <ele>8.7</ele>
        <time>2021-05-17T05:58:52Z</time>
      </trkpt>
      <trkpt lat="41.4163960" lon="-8.7856890">
        <ele>8.7</ele>
        <time>2021-05-17T05:58:53Z</time>
      </trkpt>
      <trkpt lat="41.4163960" lon="-8.7856890">
        <ele>8.7</ele>
        <time>2021-05-17T05:58:54Z</time>
      </trkpt>
      <trkpt lat="41.4163960" lon="-8.7856900">
        <ele>8.7</ele>
        <time>2021-05-17T05:58:55Z</time>
      </trkpt>
      <trkpt lat="41.4163980" lon="-8.7856910">
        <ele>8.7</ele>
        <time>2021-05-17T05:58:56Z</time>
      </trkpt>
      <trkpt lat="41.4164010" lon="-8.7857090">
        <ele>8.8</ele>
        <time>2021-05-17T05:58:57Z</time>
      </trkpt>
      <trkpt lat="41.4163900" lon="-8.7857140">
        <ele>8.8</ele>
        <time>2021-05-17T05:58:58Z</time>
      </trkpt>
      <trkpt lat="41.4163900" lon="-8.7857120">
        <ele>8.8</ele>
        <time>2021-05-17T05:58:59Z</time>
      </trkpt>
      <trkpt lat="41.4163890" lon="-8.7857110">
        <ele>8.8</ele>
        <time>2021-05-17T05:59:00Z</time>
      </trkpt>
      <trkpt lat="41.4163890" lon="-8.7857100">
        <ele>8.8</ele>
        <time>2021-05-17T05:59:01Z</time>
      </trkpt>
      <trkpt lat="41.4163890" lon="-8.7857090">
        <ele>8.8</ele>
        <time>2021-05-17T05:59:02Z</time>
      </trkpt>
      <trkpt lat="41.4163890" lon="-8.7857070">
        <ele>8.8</ele>
        <time>2021-05-17T05:59:03Z</time>
      </trkpt>
      <trkpt lat="41.4163890" lon="-8.7857060">
        <ele>8.8</ele>
        <time>2021-05-17T05:59:04Z</time>
      </trkpt>
      <trkpt lat="41.4163890" lon="-8.7857050">
        <ele>8.8</ele>
        <time>2021-05-17T05:59:05Z</time>
      </trkpt>
      <trkpt lat="41.4163880" lon="-8.7857040">
        <ele>8.8</ele>
        <time>2021-05-17T05:59:06Z</time>
      </trkpt>
      <trkpt lat="41.4163880" lon="-8.7857020">
        <ele>8.8</ele>
        <time>2021-05-17T05:59:07Z</time>
      </trkpt>
      <trkpt lat="41.4163880" lon="-8.7857010">
        <ele>8.8</ele>
        <time>2021-05-17T05:59:08Z</time>
      </trkpt>
      <trkpt lat="41.4163880" lon="-8.7857000">
        <ele>8.8</ele>
        <time>2021-05-17T05:59:09Z</time>
      </trkpt>
      <trkpt lat="41.4163880" lon="-8.7856990">
        <ele>8.8</ele>
        <time>2021-05-17T05:59:10Z</time>
      </trkpt>
      <trkpt lat="41.4163870" lon="-8.7856970">
        <ele>8.9</ele>
        <time>2021-05-17T05:59:11Z</time>
      </trkpt>
      <trkpt lat="41.4163870" lon="-8.7856960">
        <ele>8.9</ele>
        <time>2021-05-17T05:59:12Z</time>
      </trkpt>
      <trkpt lat="41.4163870" lon="-8.7856950">
        <ele>8.9</ele>
        <time>2021-05-17T05:59:13Z</time>
      </trkpt>
      <trkpt lat="41.4163870" lon="-8.7856940">
        <ele>8.9</ele>
        <time>2021-05-17T05:59:14Z</time>
      </trkpt>
      <trkpt lat="41.4163870" lon="-8.7856920">
        <ele>8.9</ele>
        <time>2021-05-17T05:59:15Z</time>
      </trkpt>
      <trkpt lat="41.4163870" lon="-8.7856910">
        <ele>8.9</ele>
        <time>2021-05-17T05:59:16Z</time>
      </trkpt>
      <trkpt lat="41.4163860" lon="-8.7856900">
        <ele>8.9</ele>
        <time>2021-05-17T05:59:17Z</time>
      </trkpt>
      <trkpt lat="41.4163860" lon="-8.7856890">
        <ele>8.9</ele>
        <time>2021-05-17T05:59:18Z</time>
      </trkpt>
      <trkpt lat="41.4163860" lon="-8.7856870">
        <ele>8.9</ele>
        <time>2021-05-17T05:59:19Z</time>
      </trkpt>
      <trkpt lat="41.4163860" lon="-8.7856860">
        <ele>8.9</ele>
        <time>2021-05-17T05:59:20Z</time>
      </trkpt>
      <trkpt lat="41.4163860" lon="-8.7856850">
        <ele>8.9</ele>
        <time>2021-05-17T05:59:21Z</time>
      </trkpt>
      <trkpt lat="41.4163860" lon="-8.7856840">
        <ele>8.9</ele>
        <time>2021-05-17T05:59:22Z</time>
      </trkpt>
      <trkpt lat="41.4163850" lon="-8.7856820">
        <ele>8.9</ele>
        <time>2021-05-17T05:59:23Z</time>
      </trkpt>
      <trkpt lat="41.4163850" lon="-8.7856810">
        <ele>8.9</ele>
        <time>2021-05-17T05:59:24Z</time>
      </trkpt>
      <trkpt lat="41.4163850" lon="-8.7856800">
        <ele>8.9</ele>
        <time>2021-05-17T05:59:25Z</time>
      </trkpt>
      <trkpt lat="41.4163850" lon="-8.7856790">
        <ele>8.9</ele>
        <time>2021-05-17T05:59:26Z</time>
      </trkpt>
      <trkpt lat="41.4163850" lon="-8.7856770">
        <ele>8.9</ele>
        <time>2021-05-17T05:59:27Z</time>
      </trkpt>
      <trkpt lat="41.4163840" lon="-8.7856760">
        <ele>8.9</ele>
        <time>2021-05-17T05:59:28Z</time>
      </trkpt>
      <trkpt lat="41.4163840" lon="-8.7856750">
        <ele>8.9</ele>
        <time>2021-05-17T05:59:29Z</time>
      </trkpt>
      <trkpt lat="41.4163840" lon="-8.7856740">
        <ele>8.9</ele>
        <time>2021-05-17T05:59:30Z</time>
      </trkpt>
      <trkpt lat="41.4163840" lon="-8.7856720">
        <ele>8.9</ele>
        <time>2021-05-17T05:59:31Z</time>
      </trkpt>
      <trkpt lat="41.4163840" lon="-8.7856710">
        <ele>9.0</ele>
        <time>2021-05-17T05:59:32Z</time>
      </trkpt>
      <trkpt lat="41.4163840" lon="-8.7856700">
        <ele>9.0</ele>
        <time>2021-05-17T05:59:33Z</time>
      </trkpt>
      <trkpt lat="41.4163830" lon="-8.7856690">
        <ele>9.0</ele>
        <time>2021-05-17T05:59:34Z</time>
      </trkpt>
      <trkpt lat="41.4163830" lon="-8.7856670">
        <ele>9.0</ele>
        <time>2021-05-17T05:59:35Z</time>
      </trkpt>
      <trkpt lat="41.4163830" lon="-8.7856660">
        <ele>9.0</ele>
        <time>2021-05-17T05:59:36Z</time>
      </trkpt>
      <trkpt lat="41.4163720" lon="-8.7856430">
        <ele>9.1</ele>
        <time>2021-05-17T05:59:37Z</time>
      </trkpt>
      <trkpt lat="41.4163670" lon="-8.7856330">
        <ele>9.1</ele>
        <time>2021-05-17T05:59:38Z</time>
      </trkpt>
      <trkpt lat="41.4163610" lon="-8.7856220">
        <ele>9.1</ele>
        <time>2021-05-17T05:59:39Z</time>
      </trkpt>
      <trkpt lat="41.4163530" lon="-8.7856060">
        <ele>9.2</ele>
        <time>2021-05-17T05:59:40Z</time>
      </trkpt>
      <trkpt lat="41.4163430" lon="-8.7855880">
        <ele>9.2</ele>
        <time>2021-05-17T05:59:41Z</time>
      </trkpt>
      <trkpt lat="41.4163330" lon="-8.7855730">
        <ele>9.3</ele>
        <time>2021-05-17T05:59:42Z</time>
      </trkpt>
      <trkpt lat="41.4163220" lon="-8.7855580">
        <ele>9.3</ele>
        <time>2021-05-17T05:59:43Z</time>
      </trkpt>
      <trkpt lat="41.4163150" lon="-8.7855340">
        <ele>9.4</ele>
        <time>2021-05-17T05:59:44Z</time>
      </trkpt>
      <trkpt lat="41.4163100" lon="-8.7855220">
        <ele>9.4</ele>
        <time>2021-05-17T05:59:45Z</time>
      </trkpt>
      <trkpt lat="41.4162980" lon="-8.7855000">
        <ele>9.5</ele>
        <time>2021-05-17T05:59:46Z</time>
      </trkpt>
      <trkpt lat="41.4162920" lon="-8.7854920">
        <ele>9.5</ele>
        <time>2021-05-17T05:59:47Z</time>
      </trkpt>
      <trkpt lat="41.4162870" lon="-8.7854840">
        <ele>9.6</ele>
        <time>2021-05-17T05:59:48Z</time>
      </trkpt>
      <trkpt lat="41.4162700" lon="-8.7854690">
        <ele>9.6</ele>
        <time>2021-05-17T05:59:49Z</time>
      </trkpt>
      <trkpt lat="41.4162620" lon="-8.7854630">
        <ele>9.7</ele>
        <time>2021-05-17T05:59:50Z</time>
      </trkpt>
      <trkpt lat="41.4162550" lon="-8.7854580">
        <ele>9.7</ele>
        <time>2021-05-17T05:59:51Z</time>
      </trkpt>
      <trkpt lat="41.4162440" lon="-8.7854420">
        <ele>9.8</ele>
        <time>2021-05-17T05:59:52Z</time>
      </trkpt>
      <trkpt lat="41.4162360" lon="-8.7854260">
        <ele>9.8</ele>
        <time>2021-05-17T05:59:53Z</time>
      </trkpt>
      <trkpt lat="41.4162270" lon="-8.7854140">
        <ele>9.8</ele>
        <time>2021-05-17T05:59:54Z</time>
      </trkpt>
      <trkpt lat="41.4162180" lon="-8.7854020">
        <ele>9.9</ele>
        <time>2021-05-17T05:59:55Z</time>
      </trkpt>
      <trkpt lat="41.4162100" lon="-8.7853940">
        <ele>9.9</ele>
        <time>2021-05-17T05:59:56Z</time>
      </trkpt>
      <trkpt lat="41.4162010" lon="-8.7853780">
        <ele>10.0</ele>
        <time>2021-05-17T05:59:57Z</time>
      </trkpt>
      <trkpt lat="41.4161940" lon="-8.7853590">
        <ele>10.0</ele>
        <time>2021-05-17T05:59:58Z</time>
      </trkpt>
      <trkpt lat="41.4161920" lon="-8.7853410">
        <ele>10.1</ele>
        <time>2021-05-17T05:59:59Z</time>
      </trkpt>
      <trkpt lat="41.4161890" lon="-8.7853210">
        <ele>10.1</ele>
        <time>2021-05-17T06:00:00Z</time>
      </trkpt>
      <trkpt lat="41.4161820" lon="-8.7853060">
        <ele>10.2</ele>
        <time>2021-05-17T06:00:01Z</time>
      </trkpt>
      <trkpt lat="41.4161740" lon="-8.7852880">
        <ele>10.2</ele>
        <time>2021-05-17T06:00:02Z</time>
      </trkpt>
      <trkpt lat="41.4161660" lon="-8.7852790">
        <ele>10.3</ele>
        <time>2021-05-17T06:00:03Z</time>
      </trkpt>
      <trkpt lat="41.4161540" lon="-8.7852720">
        <ele>10.3</ele>
        <time>2021-05-17T06:00:04Z</time>
      </trkpt>
      <trkpt lat="41.4161410" lon="-8.7852710">
        <ele>10.3</ele>
        <time>2021-05-17T06:00:05Z</time>
      </trkpt>
      <trkpt lat="41.4161270" lon="-8.7852710">
        <ele>10.4</ele>
        <time>2021-05-17T06:00:06Z</time>
      </trkpt>
      <trkpt lat="41.4161130" lon="-8.7852710">
        <ele>10.4</ele>
        <time>2021-05-17T06:00:07Z</time>
      </trkpt>
      <trkpt lat="41.4160990" lon="-8.7852700">
        <ele>10.5</ele>
        <time>2021-05-17T06:00:08Z</time>
      </trkpt>
      <trkpt lat="41.4160880" lon="-8.7852660">
        <ele>10.5</ele>
        <time>2021-05-17T06:00:09Z</time>
      </trkpt>
      <trkpt lat="41.4160850" lon="-8.7852560">
        <ele>10.5</ele>
        <time>2021-05-17T06:00:10Z</time>
      </trkpt>
      <trkpt lat="41.4160890" lon="-8.7852410">
        <ele>10.5</ele>
        <time>2021-05-17T06:00:11Z</time>
      </trkpt>
      <trkpt lat="41.4160900" lon="-8.7852390">
        <ele>10.5</ele>
        <time>2021-05-17T06:00:12Z</time>
      </trkpt>
      <trkpt lat="41.4160890" lon="-8.7852380">
        <ele>10.5</ele>
        <time>2021-05-17T06:00:13Z</time>
      </trkpt>
      <trkpt lat="41.4160860" lon="-8.7852360">
        <ele>10.6</ele>
        <time>2021-05-17T06:00:14Z</time>
      </trkpt>
      <trkpt lat="41.4160830" lon="-8.7852290">
        <ele>10.6</ele>
        <time>2021-05-17T06:00:15Z</time>
      </trkpt>
      <trkpt lat="41.4160710" lon="-8.7852110">
        <ele>10.6</ele>
        <time>2021-05-17T06:00:16Z</time>
      </trkpt>
      <trkpt lat="41.4160560" lon="-8.7851890">
        <ele>10.7</ele>
        <time>2021-05-17T06:00:17Z</time>
      </trkpt>
      <trkpt lat="41.4160490" lon="-8.7851810">
        <ele>10.7</ele>
        <time>2021-05-17T06:00:18Z</time>
      </trkpt>
      <trkpt lat="41.4160420" lon="-8.7851730">
        <ele>10.6</ele>
        <time>2021-05-17T06:00:19Z</time>
      </trkpt>
      <trkpt lat="41.4160280" lon="-8.7851670">
        <ele>10.6</ele>
        <time>2021-05-17T06:00:20Z</time>
      </trkpt>
      <trkpt lat="41.4160190" lon="-8.7851530">
        <ele>10.6</ele>
        <time>2021-05-17T06:00:21Z</time>
      </trkpt>
      <trkpt lat="41.4160050" lon="-8.7851450">
        <ele>10.5</ele>
        <time>2021-05-17T06:00:22Z</time>
      </trkpt>
      <trkpt lat="41.4159910" lon="-8.7851440">
        <ele>10.5</ele>
        <time>2021-05-17T06:00:23Z</time>
      </trkpt>
      <trkpt lat="41.4159830" lon="-8.7851450">
        <ele>10.5</ele>
        <time>2021-05-17T06:00:24Z</time>
      </trkpt>
      <trkpt lat="41.4159820" lon="-8.7851460">
        <ele>10.5</ele>
        <time>2021-05-17T06:00:25Z</time>
      </trkpt>
      <trkpt lat="41.4159820" lon="-8.7851460">
        <ele>10.5</ele>
        <time>2021-05-17T06:00:26Z</time>
      </trkpt>
      <trkpt lat="41.4159830" lon="-8.7851450">
        <ele>10.5</ele>
        <time>2021-05-17T06:00:27Z</time>
      </trkpt>
      <trkpt lat="41.4159850" lon="-8.7851450">
        <ele>10.5</ele>
        <time>2021-05-17T06:00:28Z</time>
      </trkpt>
      <trkpt lat="41.4159860" lon="-8.7851470">
        <ele>10.5</ele>
        <time>2021-05-17T06:00:29Z</time>
      </trkpt>
      <trkpt lat="41.4159910" lon="-8.7851490">
        <ele>10.5</ele>
        <time>2021-05-17T06:00:30Z</time>
      </trkpt>
      <trkpt lat="41.4159910" lon="-8.7851480">
        <ele>10.5</ele>
        <time>2021-05-17T06:00:31Z</time>
      </trkpt>
      <trkpt lat="41.4159930" lon="-8.7851510">
        <ele>10.5</ele>
        <time>2021-05-17T06:00:32Z</time>
      </trkpt>
      <trkpt lat="41.4159930" lon="-8.7851500">
        <ele>10.5</ele>
        <time>2021-05-17T06:00:33Z</time>
      </trkpt>
      <trkpt lat="41.4159920" lon="-8.7851490">
        <ele>10.5</ele>
        <time>2021-05-17T06:00:34Z</time>
      </trkpt>
      <trkpt lat="41.4159920" lon="-8.7851500">
        <ele>10.5</ele>
        <time>2021-05-17T06:00:35Z</time>
      </trkpt>
      <trkpt lat="41.4159920" lon="-8.7851500">
        <ele>10.5</ele>
        <time>2021-05-17T06:00:36Z</time>
      </trkpt>
      <trkpt lat="41.4159920" lon="-8.7851500">
        <ele>10.5</ele>
        <time>2021-05-17T06:00:37Z</time>
      </trkpt>
      <trkpt lat="41.4159920" lon="-8.7851520">
        <ele>10.5</ele>
        <time>2021-05-17T06:00:38Z</time>
      </trkpt>
      <trkpt lat="41.4159920" lon="-8.7851530">
        <ele>10.4</ele>
        <time>2021-05-17T06:00:39Z</time>
      </trkpt>
      <trkpt lat="41.4159920" lon="-8.7851530">
        <ele>10.4</ele>
        <time>2021-05-17T06:00:40Z</time>
      </trkpt>
      <trkpt lat="41.4159900" lon="-8.7851500">
        <ele>10.4</ele>
        <time>2021-05-17T06:00:41Z</time>
      </trkpt>
      <trkpt lat="41.4159900" lon="-8.7851470">
        <ele>10.4</ele>
        <time>2021-05-17T06:00:42Z</time>
      </trkpt>
      <trkpt lat="41.4159890" lon="-8.7851480">
        <ele>10.4</ele>
        <time>2021-05-17T06:00:43Z</time>
      </trkpt>
      <trkpt lat="41.4159890" lon="-8.7851480">
        <ele>10.4</ele>
        <time>2021-05-17T06:00:44Z</time>
      </trkpt>
      <trkpt lat="41.4159890" lon="-8.7851480">
        <ele>10.4</ele>
        <time>2021-05-17T06:00:45Z</time>
      </trkpt>
      <trkpt lat="41.4159880" lon="-8.7851470">
        <ele>10.4</ele>
        <time>2021-05-17T06:00:46Z</time>
      </trkpt>
      <trkpt lat="41.4159880" lon="-8.7851470">
        <ele>10.4</ele>
        <time>2021-05-17T06:00:47Z</time>
      </trkpt>
      <trkpt lat="41.4159890" lon="-8.7851470">
        <ele>10.4</ele>
        <time>2021-05-17T06:00:48Z</time>
      </trkpt>
      <trkpt lat="41.4159890" lon="-8.7851470">
        <ele>10.4</ele>
        <time>2021-05-17T06:00:49Z</time>
      </trkpt>
      <trkpt lat="41.4159900" lon="-8.7851520">
        <ele>10.4</ele>
        <time>2021-05-17T06:00:50Z</time>
      </trkpt>
      <trkpt lat="41.4159900" lon="-8.7851510">
        <ele>10.4</ele>
        <time>2021-05-17T06:00:51Z</time>
      </trkpt>
      <trkpt lat="41.4159900" lon="-8.7851510">
        <ele>10.4</ele>
        <time>2021-05-17T06:00:52Z</time>
      </trkpt>
      <trkpt lat="41.4159900" lon="-8.7851510">
        <ele>10.4</ele>
        <time>2021-05-17T06:00:53Z</time>
      </trkpt>
      <trkpt lat="41.4159890" lon="-8.7851530">
        <ele>10.4</ele>
        <time>2021-05-17T06:00:54Z</time>
      </trkpt>
      <trkpt lat="41.4159900" lon="-8.7851530">
        <ele>10.4</ele>
        <time>2021-05-17T06:00:55Z</time>
      </trkpt>
      <trkpt lat="41.4159910" lon="-8.7851540">
        <ele>10.4</ele>
        <time>2021-05-17T06:00:56Z</time>
      </trkpt>
      <trkpt lat="41.4159940" lon="-8.7851560">
        <ele>10.4</ele>
        <time>2021-05-17T06:00:57Z</time>
      </trkpt>
      <trkpt lat="41.4159980" lon="-8.7851570">
        <ele>10.4</ele>
        <time>2021-05-17T06:00:58Z</time>
      </trkpt>
      <trkpt lat="41.4160080" lon="-8.7851620">
        <ele>10.4</ele>
        <time>2021-05-17T06:00:59Z</time>
      </trkpt>
      <trkpt lat="41.4160190" lon="-8.7851640">
        <ele>10.3</ele>
        <time>2021-05-17T06:01:00Z</time>
      </trkpt>
      <trkpt lat="41.4160450" lon="-8.7851940">
        <ele>10.3</ele>
        <time>2021-05-17T06:01:02Z</time>
      </trkpt>
      <trkpt lat="41.4160500" lon="-8.7852050">
        <ele>10.2</ele>
        <time>2021-05-17T06:01:03Z</time>
      </trkpt>
      <trkpt lat="41.4160670" lon="-8.7852240">
        <ele>10.2</ele>
        <time>2021-05-17T06:01:04Z</time>
      </trkpt>
      <trkpt lat="41.4160740" lon="-8.7852270">
        <ele>10.2</ele>
        <time>2021-05-17T06:01:05Z</time>
      </trkpt>
      <trkpt lat="41.4160820" lon="-8.7852300">
        <ele>10.1</ele>
        <time>2021-05-17T06:01:06Z</time>
      </trkpt>
      <trkpt lat="41.4160980" lon="-8.7852270">
        <ele>10.1</ele>
        <time>2021-05-17T06:01:07Z</time>
      </trkpt>
      <trkpt lat="41.4161100" lon="-8.7852300">
        <ele>10.1</ele>
        <time>2021-05-17T06:01:08Z</time>
      </trkpt>
      <trkpt lat="41.4161230" lon="-8.7852380">
        <ele>10.0</ele>
        <time>2021-05-17T06:01:09Z</time>
      </trkpt>
      <trkpt lat="41.4161250" lon="-8.7852410">
        <ele>10.0</ele>
        <time>2021-05-17T06:01:10Z</time>
      </trkpt>
      <trkpt lat="41.4161280" lon="-8.7852440">
        <ele>10.0</ele>
        <time>2021-05-17T06:01:11Z</time>
      </trkpt>
      <trkpt lat="41.4161310" lon="-8.7852460">
        <ele>10.0</ele>
        <time>2021-05-17T06:01:12Z</time>
      </trkpt>
      <trkpt lat="41.4161330" lon="-8.7852490">
        <ele>10.0</ele>
        <time>2021-05-17T06:01:13Z</time>
      </trkpt>
      <trkpt lat="41.4161360" lon="-8.7852520">
        <ele>10.0</ele>
        <time>2021-05-17T06:01:14Z</time>
      </trkpt>
      <trkpt lat="41.4161380" lon="-8.7852550">
        <ele>10.0</ele>
        <time>2021-05-17T06:01:15Z</time>
      </trkpt>
      <trkpt lat="41.4161410" lon="-8.7852580">
        <ele>10.0</ele>
        <time>2021-05-17T06:01:16Z</time>
      </trkpt>
      <trkpt lat="41.4161530" lon="-8.7852770">
        <ele>9.9</ele>
        <time>2021-05-17T06:01:17Z</time>
      </trkpt>
      <trkpt lat="41.4161650" lon="-8.7852840">
        <ele>9.9</ele>
        <time>2021-05-17T06:01:18Z</time>
      </trkpt>
      <trkpt lat="41.4161770" lon="-8.7852970">
        <ele>9.8</ele>
        <time>2021-05-17T06:01:19Z</time>
      </trkpt>
      <trkpt lat="41.4161860" lon="-8.7853110">
        <ele>9.8</ele>
        <time>2021-05-17T06:01:20Z</time>
      </trkpt>
      <trkpt lat="41.4161960" lon="-8.7853240">
        <ele>9.8</ele>
        <time>2021-05-17T06:01:21Z</time>
      </trkpt>
      <trkpt lat="41.4162060" lon="-8.7853380">
        <ele>9.7</ele>
        <time>2021-05-17T06:01:22Z</time>
      </trkpt>
      <trkpt lat="41.4162230" lon="-8.7853610">
        <ele>9.7</ele>
        <time>2021-05-17T06:01:23Z</time>
      </trkpt>
      <trkpt lat="41.4162290" lon="-8.7853680">
        <ele>9.7</ele>
        <time>2021-05-17T06:01:24Z</time>
      </trkpt>
      <trkpt lat="41.4162350" lon="-8.7853760">
        <ele>9.6</ele>
        <time>2021-05-17T06:01:25Z</time>
      </trkpt>
      <trkpt lat="41.4162490" lon="-8.7853920">
        <ele>9.6</ele>
        <time>2021-05-17T06:01:26Z</time>
      </trkpt>
      <trkpt lat="41.4162560" lon="-8.7853990">
        <ele>9.6</ele>
        <time>2021-05-17T06:01:27Z</time>
      </trkpt>
      <trkpt lat="41.4162640" lon="-8.7854060">
        <ele>9.5</ele>
        <time>2021-05-17T06:01:28Z</time>
      </trkpt>
      <trkpt lat="41.4162720" lon="-8.7854180">
        <ele>9.5</ele>
        <time>2021-05-17T06:01:29Z</time>
      </trkpt>
      <trkpt lat="41.4162850" lon="-8.7854350">
        <ele>9.5</ele>
        <time>2021-05-17T06:01:30Z</time>
      </trkpt>
      <trkpt lat="41.4162950" lon="-8.7854430">
        <ele>9.4</ele>
        <time>2021-05-17T06:01:31Z</time>
      </trkpt>
      <trkpt lat="41.4163050" lon="-8.7854600">
        <ele>9.4</ele>
        <time>2021-05-17T06:01:32Z</time>
      </trkpt>
      <trkpt lat="41.4163160" lon="-8.7854780">
        <ele>9.4</ele>
        <time>2021-05-17T06:01:33Z</time>
      </trkpt>
      <trkpt lat="41.4163240" lon="-8.7854930">
        <ele>9.3</ele>
        <time>2021-05-17T06:01:34Z</time>
      </trkpt>
      <trkpt lat="41.4163270" lon="-8.7855110">
        <ele>9.3</ele>
        <time>2021-05-17T06:01:35Z</time>
      </trkpt>
      <trkpt lat="41.4163400" lon="-8.7855220">
        <ele>9.3</ele>
        <time>2021-05-17T06:01:36Z</time>
      </trkpt>
      <trkpt lat="41.4163500" lon="-8.7855330">
        <ele>9.2</ele>
        <time>2021-05-17T06:01:37Z</time>
      </trkpt>
      <trkpt lat="41.4163620" lon="-8.7855460">
        <ele>9.2</ele>
        <time>2021-05-17T06:01:38Z</time>
      </trkpt>
      <trkpt lat="41.4163670" lon="-8.7855570">
        <ele>9.2</ele>
        <time>2021-05-17T06:01:39Z</time>
      </trkpt>
      <trkpt lat="41.4163730" lon="-8.7855800">
        <ele>9.1</ele>
        <time>2021-05-17T06:01:40Z</time>
      </trkpt>
      <trkpt lat="41.4163760" lon="-8.7856040">
        <ele>9.1</ele>
        <time>2021-05-17T06:01:41Z</time>
      </trkpt>
      <trkpt lat="41.4163810" lon="-8.7856180">
        <ele>9.0</ele>
        <time>2021-05-17T06:01:42Z</time>
      </trkpt>
      <trkpt lat="41.4163870" lon="-8.7856310">
        <ele>9.0</ele>
        <time>2021-05-17T06:01:43Z</time>
      </trkpt>
      <trkpt lat="41.4163960" lon="-8.7856510">
        <ele>9.0</ele>
        <time>2021-05-17T06:01:44Z</time>
      </trkpt>
      <trkpt lat="41.4164030" lon="-8.7856660">
        <ele>8.9</ele>
        <time>2021-05-17T06:01:45Z</time>
      </trkpt>
      <trkpt lat="41.4164180" lon="-8.7856890">
        <ele>8.9</ele>
        <time>2021-05-17T06:01:46Z</time>
      </trkpt>
      <trkpt lat="41.4164260" lon="-8.7856970">
        <ele>8.9</ele>
        <time>2021-05-17T06:01:47Z</time>
      </trkpt>
      <trkpt lat="41.4164330" lon="-8.7857040">
        <ele>8.9</ele>
        <time>2021-05-17T06:01:48Z</time>
      </trkpt>
      <trkpt lat="41.4164350" lon="-8.7857340">
        <ele>8.9</ele>
        <time>2021-05-17T06:01:49Z</time>
      </trkpt>
      <trkpt lat="41.4164360" lon="-8.7857450">
        <ele>8.9</ele>
        <time>2021-05-17T06:01:50Z</time>
      </trkpt>
      <trkpt lat="41.4164380" lon="-8.7857550">
        <ele>8.9</ele>
        <time>2021-05-17T06:01:51Z</time>
      </trkpt>
      <trkpt lat="41.4164420" lon="-8.7857700">
        <ele>8.9</ele>
        <time>2021-05-17T06:01:52Z</time>
      </trkpt>
      <trkpt lat="41.4164420" lon="-8.7857860">
        <ele>8.9</ele>
        <time>2021-05-17T06:01:53Z</time>
      </trkpt>
      <trkpt lat="41.4164400" lon="-8.7858040">
        <ele>8.9</ele>
        <time>2021-05-17T06:01:54Z</time>
      </trkpt>
      <trkpt lat="41.4164380" lon="-8.7858210">
        <ele>8.9</ele>
        <time>2021-05-17T06:01:55Z</time>
      </trkpt>
      <trkpt lat="41.4164380" lon="-8.7858230">
        <ele>8.9</ele>
        <time>2021-05-17T06:01:56Z</time>
      </trkpt>
      <trkpt lat="41.4164360" lon="-8.7858230">
        <ele>8.9</ele>
        <time>2021-05-17T06:01:57Z</time>
      </trkpt>
      <trkpt lat="41.4164360" lon="-8.7858140">
        <ele>8.9</ele>
        <time>2021-05-17T06:01:58Z</time>
      </trkpt>
      <trkpt lat="41.4164340" lon="-8.7858060">
        <ele>8.9</ele>
        <time>2021-05-17T06:01:59Z</time>
      </trkpt>
      <trkpt lat="41.4164360" lon="-8.7858070">
        <ele>8.9</ele>
        <time>2021-05-17T06:02:00Z</time>
      </trkpt>
      <trkpt lat="41.4164340" lon="-8.7858020">
        <ele>8.9</ele>
        <time>2021-05-17T06:02:01Z</time>
      </trkpt>
      <trkpt lat="41.4164330" lon="-8.7857960">
        <ele>8.9</ele>
        <time>2021-05-17T06:02:02Z</time>
      </trkpt>
      <trkpt lat="41.4164320" lon="-8.7857880">
        <ele>8.9</ele>
        <time>2021-05-17T06:02:03Z</time>
      </trkpt>
      <trkpt lat="41.4164320" lon="-8.7857830">
        <ele>8.9</ele>
        <time>2021-05-17T06:02:04Z</time>
      </trkpt>
      <trkpt lat="41.4164300" lon="-8.7857800">
        <ele>8.9</ele>
        <time>2021-05-17T06:02:05Z</time>
      </trkpt>
      <trkpt lat="41.4164290" lon="-8.7857750">
        <ele>8.9</ele>
        <time>2021-05-17T06:02:06Z</time>
      </trkpt>
      <trkpt lat="41.4164260" lon="-8.7857700">
        <ele>8.9</ele>
        <time>2021-05-17T06:02:07Z</time>
      </trkpt>
      <trkpt lat="41.4164290" lon="-8.7857630">
        <ele>8.9</ele>
        <time>2021-05-17T06:02:08Z</time>
      </trkpt>
      <trkpt lat="41.4164290" lon="-8.7857620">
        <ele>8.9</ele>
        <time>2021-05-17T06:02:09Z</time>
      </trkpt>
      <trkpt lat="41.4164280" lon="-8.7857620">
        <ele>8.9</ele>
        <time>2021-05-17T06:02:10Z</time>
      </trkpt>
      <trkpt lat="41.4164280" lon="-8.7857610">
        <ele>8.9</ele>
        <time>2021-05-17T06:02:11Z</time>
      </trkpt>
      <trkpt lat="41.4164280" lon="-8.7857600">
        <ele>8.9</ele>
        <time>2021-05-17T06:02:12Z</time>
      </trkpt>
      <trkpt lat="41.4164280" lon="-8.7857590">
        <ele>8.9</ele>
        <time>2021-05-17T06:02:13Z</time>
      </trkpt>
      <trkpt lat="41.4164280" lon="-8.7857580">
        <ele>8.9</ele>
        <time>2021-05-17T06:02:14Z</time>
      </trkpt>
      <trkpt lat="41.4164270" lon="-8.7857570">
        <ele>8.9</ele>
        <time>2021-05-17T06:02:15Z</time>
      </trkpt>
      <trkpt lat="41.4164270" lon="-8.7857570">
        <ele>8.9</ele>
        <time>2021-05-17T06:02:16Z</time>
      </trkpt>
      <trkpt lat="41.4164270" lon="-8.7857560">
        <ele>8.9</ele>
        <time>2021-05-17T06:02:17Z</time>
      </trkpt>
      <trkpt lat="41.4164270" lon="-8.7857550">
        <ele>8.9</ele>
        <time>2021-05-17T06:02:18Z</time>
      </trkpt>
      <trkpt lat="41.4164270" lon="-8.7857540">
        <ele>8.9</ele>
        <time>2021-05-17T06:02:19Z</time>
      </trkpt>
      <trkpt lat="41.4164260" lon="-8.7857530">
        <ele>8.9</ele>
        <time>2021-05-17T06:02:20Z</time>
      </trkpt>
      <trkpt lat="41.4164260" lon="-8.7857520">
        <ele>8.9</ele>
        <time>2021-05-17T06:02:21Z</time>
      </trkpt>
      <trkpt lat="41.4164260" lon="-8.7857520">
        <ele>8.9</ele>
        <time>2021-05-17T06:02:22Z</time>
      </trkpt>
      <trkpt lat="41.4164260" lon="-8.7857510">
        <ele>8.9</ele>
        <time>2021-05-17T06:02:23Z</time>
      </trkpt>
      <trkpt lat="41.4164260" lon="-8.7857500">
        <ele>8.9</ele>
        <time>2021-05-17T06:02:24Z</time>
      </trkpt>
      <trkpt lat="41.4164250" lon="-8.7857490">
        <ele>8.9</ele>
        <time>2021-05-17T06:02:25Z</time>
      </trkpt>
      <trkpt lat="41.4164250" lon="-8.7857480">
        <ele>8.9</ele>
        <time>2021-05-17T06:02:26Z</time>
      </trkpt>
      <trkpt lat="41.4164250" lon="-8.7857480">
        <ele>8.9</ele>
        <time>2021-05-17T06:02:27Z</time>
      </trkpt>
      <trkpt lat="41.4164250" lon="-8.7857470">
        <ele>8.9</ele>
        <time>2021-05-17T06:02:28Z</time>
      </trkpt>
      <trkpt lat="41.4164240" lon="-8.7857460">
        <ele>8.9</ele>
        <time>2021-05-17T06:02:29Z</time>
      </trkpt>
      <trkpt lat="41.4164240" lon="-8.7857450">
        <ele>8.9</ele>
        <time>2021-05-17T06:02:30Z</time>
      </trkpt>
      <trkpt lat="41.4164240" lon="-8.7857440">
        <ele>8.9</ele>
        <time>2021-05-17T06:02:31Z</time>
      </trkpt>
      <trkpt lat="41.4164240" lon="-8.7857430">
        <ele>8.9</ele>
        <time>2021-05-17T06:02:32Z</time>
      </trkpt>
      <trkpt lat="41.4164240" lon="-8.7857430">
        <ele>8.9</ele>
        <time>2021-05-17T06:02:33Z</time>
      </trkpt>
      <trkpt lat="41.4164230" lon="-8.7857420">
        <ele>8.9</ele>
        <time>2021-05-17T06:02:34Z</time>
      </trkpt>
      <trkpt lat="41.4164230" lon="-8.7857410">
        <ele>8.9</ele>
        <time>2021-05-17T06:02:35Z</time>
      </trkpt>
      <trkpt lat="41.4164230" lon="-8.7857400">
        <ele>8.9</ele>
        <time>2021-05-17T06:02:36Z</time>
      </trkpt>
      <trkpt lat="41.4164230" lon="-8.7857390">
        <ele>8.9</ele>
        <time>2021-05-17T06:02:37Z</time>
      </trkpt>
      <trkpt lat="41.4164230" lon="-8.7857380">
        <ele>8.9</ele>
        <time>2021-05-17T06:02:38Z</time>
      </trkpt>
      <trkpt lat="41.4164220" lon="-8.7857380">
        <ele>8.9</ele>
        <time>2021-05-17T06:02:39Z</time>
      </trkpt>
      <trkpt lat="41.4164220" lon="-8.7857370">
        <ele>8.9</ele>
        <time>2021-05-17T06:02:40Z</time>
      </trkpt>
      <trkpt lat="41.4164220" lon="-8.7857360">
        <ele>8.9</ele>
        <time>2021-05-17T06:02:41Z</time>
      </trkpt>
      <trkpt lat="41.4164220" lon="-8.7857350">
        <ele>8.9</ele>
        <time>2021-05-17T06:02:42Z</time>
      </trkpt>
      <trkpt lat="41.4164220" lon="-8.7857340">
        <ele>8.9</ele>
        <time>2021-05-17T06:02:43Z</time>
      </trkpt>
      <trkpt lat="41.4164210" lon="-8.7857340">
        <ele>8.9</ele>
        <time>2021-05-17T06:02:44Z</time>
      </trkpt>
      <trkpt lat="41.4164210" lon="-8.7857330">
        <ele>8.9</ele>
        <time>2021-05-17T06:02:45Z</time>
      </trkpt>
      <trkpt lat="41.4164210" lon="-8.7857320">
        <ele>8.9</ele>
        <time>2021-05-17T06:02:46Z</time>
      </trkpt>
      <trkpt lat="41.4164210" lon="-8.7857310">
        <ele>8.9</ele>
        <time>2021-05-17T06:02:47Z</time>
      </trkpt>
      <trkpt lat="41.4164210" lon="-8.7857300">
        <ele>8.9</ele>
        <time>2021-05-17T06:02:48Z</time>
      </trkpt>
      <trkpt lat="41.4164200" lon="-8.7857290">
        <ele>8.9</ele>
        <time>2021-05-17T06:02:49Z</time>
      </trkpt>
      <trkpt lat="41.4164200" lon="-8.7857290">
        <ele>8.9</ele>
        <time>2021-05-17T06:02:50Z</time>
      </trkpt>
      <trkpt lat="41.4164200" lon="-8.7857280">
        <ele>8.9</ele>
        <time>2021-05-17T06:02:51Z</time>
      </trkpt>
      <trkpt lat="41.4164200" lon="-8.7857270">
        <ele>8.9</ele>
        <time>2021-05-17T06:02:52Z</time>
      </trkpt>
      <trkpt lat="41.4164200" lon="-8.7857260">
        <ele>8.9</ele>
        <time>2021-05-17T06:02:53Z</time>
      </trkpt>
      <trkpt lat="41.4164190" lon="-8.7857250">
        <ele>8.9</ele>
        <time>2021-05-17T06:02:54Z</time>
      </trkpt>
      <trkpt lat="41.4164190" lon="-8.7857240">
        <ele>8.9</ele>
        <time>2021-05-17T06:02:55Z</time>
      </trkpt>
      <trkpt lat="41.4164190" lon="-8.7857240">
        <ele>8.9</ele>
        <time>2021-05-17T06:02:56Z</time>
      </trkpt>
      <trkpt lat="41.4164190" lon="-8.7857230">
        <ele>8.9</ele>
        <time>2021-05-17T06:02:57Z</time>
      </trkpt>
      <trkpt lat="41.4164190" lon="-8.7857220">
        <ele>8.9</ele>
        <time>2021-05-17T06:02:58Z</time>
      </trkpt>
      <trkpt lat="41.4164180" lon="-8.7857210">
        <ele>8.9</ele>
        <time>2021-05-17T06:02:59Z</time>
      </trkpt>
      <trkpt lat="41.4164180" lon="-8.7857200">
        <ele>8.9</ele>
        <time>2021-05-17T06:03:00Z</time>
      </trkpt>
      <trkpt lat="41.4164180" lon="-8.7857200">
        <ele>8.9</ele>
        <time>2021-05-17T06:03:01Z</time>
      </trkpt>
      <trkpt lat="41.4164180" lon="-8.7857190">
        <ele>8.9</ele>
        <time>2021-05-17T06:03:02Z</time>
      </trkpt>
      <trkpt lat="41.4164170" lon="-8.7857180">
        <ele>8.9</ele>
        <time>2021-05-17T06:03:03Z</time>
      </trkpt>
      <trkpt lat="41.4164170" lon="-8.7857170">
        <ele>8.9</ele>
        <time>2021-05-17T06:03:04Z</time>
      </trkpt>
      <trkpt lat="41.4164170" lon="-8.7857160">
        <ele>8.9</ele>
        <time>2021-05-17T06:03:05Z</time>
      </trkpt>
      <trkpt lat="41.4164170" lon="-8.7857150">
        <ele>8.9</ele>
        <time>2021-05-17T06:03:06Z</time>
      </trkpt>
      <trkpt lat="41.4164170" lon="-8.7857150">
        <ele>8.9</ele>
        <time>2021-05-17T06:03:07Z</time>
      </trkpt>
      <trkpt lat="41.4164160" lon="-8.7857140">
        <ele>8.9</ele>
        <time>2021-05-17T06:03:08Z</time>
      </trkpt>
      <trkpt lat="41.4164160" lon="-8.7857130">
        <ele>8.9</ele>
        <time>2021-05-17T06:03:09Z</time>
      </trkpt>
      <trkpt lat="41.4164160" lon="-8.7857120">
        <ele>8.9</ele>
        <time>2021-05-17T06:03:10Z</time>
      </trkpt>
      <trkpt lat="41.4164160" lon="-8.7857110">
        <ele>8.9</ele>
        <time>2021-05-17T06:03:11Z</time>
      </trkpt>
      <trkpt lat="41.4164160" lon="-8.7857100">
        <ele>8.9</ele>
        <time>2021-05-17T06:03:12Z</time>
      </trkpt>
      <trkpt lat="41.4164150" lon="-8.7857100">
        <ele>8.9</ele>
        <time>2021-05-17T06:03:13Z</time>
      </trkpt>
      <trkpt lat="41.4164150" lon="-8.7857090">
        <ele>8.9</ele>
        <time>2021-05-17T06:03:14Z</time>
      </trkpt>
      <trkpt lat="41.4164150" lon="-8.7857080">
        <ele>8.9</ele>
        <time>2021-05-17T06:03:15Z</time>
      </trkpt>
      <trkpt lat="41.4164170" lon="-8.7857120">
        <ele>8.9</ele>
        <time>2021-05-17T06:03:16Z</time>
      </trkpt>
      <trkpt lat="41.4164150" lon="-8.7857120">
        <ele>8.9</ele>
        <time>2021-05-17T06:03:17Z</time>
      </trkpt>
      <trkpt lat="41.4164180" lon="-8.7857090">
        <ele>8.9</ele>
        <time>2021-05-17T06:03:18Z</time>
      </trkpt>
      <trkpt lat="41.4164180" lon="-8.7857080">
        <ele>8.9</ele>
        <time>2021-05-17T06:03:19Z</time>
      </trkpt>
      <trkpt lat="41.4164170" lon="-8.7857090">
        <ele>8.9</ele>
        <time>2021-05-17T06:03:20Z</time>
      </trkpt>
      <trkpt lat="41.4164170" lon="-8.7857090">
        <ele>8.9</ele>
        <time>2021-05-17T06:03:21Z</time>
      </trkpt>
      <trkpt lat="41.4164190" lon="-8.7857070">
        <ele>8.9</ele>
        <time>2021-05-17T06:03:22Z</time>
      </trkpt>
      <trkpt lat="41.4164240" lon="-8.7857190">
        <ele>8.9</ele>
        <time>2021-05-17T06:03:23Z</time>
      </trkpt>
      <trkpt lat="41.4164230" lon="-8.7857100">
        <ele>8.9</ele>
        <time>2021-05-17T06:03:24Z</time>
      </trkpt>
      <trkpt lat="41.4164200" lon="-8.7857110">
        <ele>8.9</ele>
        <time>2021-05-17T06:03:25Z</time>
      </trkpt>
      <trkpt lat="41.4164220" lon="-8.7857130">
        <ele>8.9</ele>
        <time>2021-05-17T06:03:26Z</time>
      </trkpt>
      <trkpt lat="41.4164230" lon="-8.7857130">
        <ele>8.9</ele>
        <time>2021-05-17T06:03:27Z</time>
      </trkpt>
      <trkpt lat="41.4164310" lon="-8.7857090">
        <ele>8.9</ele>
        <time>2021-05-17T06:03:28Z</time>
      </trkpt>
      <trkpt lat="41.4164260" lon="-8.7857090">
        <ele>8.9</ele>
        <time>2021-05-17T06:03:29Z</time>
      </trkpt>
      <trkpt lat="41.4164220" lon="-8.7857080">
        <ele>8.9</ele>
        <time>2021-05-17T06:03:30Z</time>
      </trkpt>
      <trkpt lat="41.4164320" lon="-8.7857160">
        <ele>8.9</ele>
        <time>2021-05-17T06:03:31Z</time>
      </trkpt>
      <trkpt lat="41.4164280" lon="-8.7857110">
        <ele>8.9</ele>
        <time>2021-05-17T06:03:32Z</time>
      </trkpt>
      <trkpt lat="41.4164260" lon="-8.7857070">
        <ele>8.9</ele>
        <time>2021-05-17T06:03:33Z</time>
      </trkpt>
      <trkpt lat="41.4164220" lon="-8.7857090">
        <ele>8.9</ele>
        <time>2021-05-17T06:03:34Z</time>
      </trkpt>
      <trkpt lat="41.4164220" lon="-8.7857110">
        <ele>8.9</ele>
        <time>2021-05-17T06:03:35Z</time>
      </trkpt>
      <trkpt lat="41.4164270" lon="-8.7857240">
        <ele>8.9</ele>
        <time>2021-05-17T06:03:36Z</time>
      </trkpt>
      <trkpt lat="41.4164240" lon="-8.7857100">
        <ele>8.9</ele>
        <time>2021-05-17T06:03:37Z</time>
      </trkpt>
      <trkpt lat="41.4164200" lon="-8.7857040">
        <ele>8.9</ele>
        <time>2021-05-17T06:03:38Z</time>
      </trkpt>
      <trkpt lat="41.4164200" lon="-8.7857030">
        <ele>8.9</ele>
        <time>2021-05-17T06:03:39Z</time>
      </trkpt>
      <trkpt lat="41.4164190" lon="-8.7857020">
        <ele>8.9</ele>
        <time>2021-05-17T06:03:40Z</time>
      </trkpt>
      <trkpt lat="41.4164130" lon="-8.7857050">
        <ele>8.9</ele>
        <time>2021-05-17T06:03:41Z</time>
      </trkpt>
      <trkpt lat="41.4164100" lon="-8.7856950">
        <ele>8.9</ele>
        <time>2021-05-17T06:03:42Z</time>
      </trkpt>
      <trkpt lat="41.4164100" lon="-8.7856960">
        <ele>8.9</ele>
        <time>2021-05-17T06:03:43Z</time>
      </trkpt>
      <trkpt lat="41.4164110" lon="-8.7856980">
        <ele>8.9</ele>
        <time>2021-05-17T06:03:44Z</time>
      </trkpt>
      <trkpt lat="41.4164080" lon="-8.7856980">
        <ele>8.9</ele>
        <time>2021-05-17T06:03:45Z</time>
      </trkpt>
      <trkpt lat="41.4164100" lon="-8.7857040">
        <ele>8.9</ele>
        <time>2021-05-17T06:03:46Z</time>
      </trkpt>
      <trkpt lat="41.4164140" lon="-8.7857060">
        <ele>8.9</ele>
        <time>2021-05-17T06:03:47Z</time>
      </trkpt>
      <trkpt lat="41.4164050" lon="-8.7857040">
        <ele>8.9</ele>
        <time>2021-05-17T06:03:48Z</time>
      </trkpt>
      <trkpt lat="41.4163970" lon="-8.7856710">
        <ele>8.9</ele>
        <time>2021-05-17T06:03:49Z</time>
      </trkpt>
      <trkpt lat="41.4163910" lon="-8.7856720">
        <ele>8.9</ele>
        <time>2021-05-17T06:03:50Z</time>
      </trkpt>
      <trkpt lat="41.4163930" lon="-8.7856770">
        <ele>8.9</ele>
        <time>2021-05-17T06:03:51Z</time>
      </trkpt>
      <trkpt lat="41.4163960" lon="-8.7856810">
        <ele>8.9</ele>
        <time>2021-05-17T06:03:52Z</time>
      </trkpt>
      <trkpt lat="41.4163960" lon="-8.7856810">
        <ele>8.9</ele>
        <time>2021-05-17T06:03:53Z</time>
      </trkpt>
      <trkpt lat="41.4163980" lon="-8.7856800">
        <ele>8.9</ele>
        <time>2021-05-17T06:03:54Z</time>
      </trkpt>
      <trkpt lat="41.4163980" lon="-8.7856810">
        <ele>8.9</ele>
        <time>2021-05-17T06:03:55Z</time>
      </trkpt>
      <trkpt lat="41.4163980" lon="-8.7856840">
        <ele>8.9</ele>
        <time>2021-05-17T06:03:56Z</time>
      </trkpt>
      <trkpt lat="41.4163980" lon="-8.7856890">
        <ele>8.9</ele>
        <time>2021-05-17T06:03:57Z</time>
      </trkpt>
      <trkpt lat="41.4163970" lon="-8.7856880">
        <ele>8.9</ele>
        <time>2021-05-17T06:03:58Z</time>
      </trkpt>
      <trkpt lat="41.4163980" lon="-8.7856870">
        <ele>8.9</ele>
        <time>2021-05-17T06:03:59Z</time>
      </trkpt>
      <trkpt lat="41.4163980" lon="-8.7856890">
        <ele>8.9</ele>
        <time>2021-05-17T06:04:00Z</time>
      </trkpt>
      <trkpt lat="41.4163980" lon="-8.7856930">
        <ele>8.9</ele>
        <time>2021-05-17T06:04:01Z</time>
      </trkpt>
      <trkpt lat="41.4164000" lon="-8.7856920">
        <ele>8.9</ele>
        <time>2021-05-17T06:04:02Z</time>
      </trkpt>
      <trkpt lat="41.4164010" lon="-8.7856920">
        <ele>8.9</ele>
        <time>2021-05-17T06:04:03Z</time>
      </trkpt>
      <trkpt lat="41.4164020" lon="-8.7856880">
        <ele>8.9</ele>
        <time>2021-05-17T06:04:04Z</time>
      </trkpt>
      <trkpt lat="41.4164030" lon="-8.7856870">
        <ele>8.9</ele>
        <time>2021-05-17T06:04:05Z</time>
      </trkpt>
      <trkpt lat="41.4164060" lon="-8.7856900">
        <ele>8.9</ele>
        <time>2021-05-17T06:04:06Z</time>
      </trkpt>
      <trkpt lat="41.4164050" lon="-8.7856890">
        <ele>8.9</ele>
        <time>2021-05-17T06:04:07Z</time>
      </trkpt>
      <trkpt lat="41.4163940" lon="-8.7856800">
        <ele>8.9</ele>
        <time>2021-05-17T06:04:08Z</time>
      </trkpt>
      <trkpt lat="41.4163930" lon="-8.7856690">
        <ele>8.9</ele>
        <time>2021-05-17T06:04:09Z</time>
      </trkpt>
      <trkpt lat="41.4163930" lon="-8.7856790">
        <ele>8.9</ele>
        <time>2021-05-17T06:04:10Z</time>
      </trkpt>
      <trkpt lat="41.4163930" lon="-8.7856740">
        <ele>8.9</ele>
        <time>2021-05-17T06:04:11Z</time>
      </trkpt>
      <trkpt lat="41.4163930" lon="-8.7856720">
        <ele>8.9</ele>
        <time>2021-05-17T06:04:12Z</time>
      </trkpt>
      <trkpt lat="41.4163840" lon="-8.7856680">
        <ele>8.9</ele>
        <time>2021-05-17T06:04:13Z</time>
      </trkpt>
      <trkpt lat="41.4163850" lon="-8.7856720">
        <ele>8.9</ele>
        <time>2021-05-17T06:04:14Z</time>
      </trkpt>
      <trkpt lat="41.4163870" lon="-8.7856740">
        <ele>8.9</ele>
        <time>2021-05-17T06:04:15Z</time>
      </trkpt>
      <trkpt lat="41.4163910" lon="-8.7856760">
        <ele>8.9</ele>
        <time>2021-05-17T06:04:16Z</time>
      </trkpt>
      <trkpt lat="41.4163910" lon="-8.7856880">
        <ele>8.9</ele>
        <time>2021-05-17T06:04:17Z</time>
      </trkpt>
      <trkpt lat="41.4163870" lon="-8.7856890">
        <ele>8.9</ele>
        <time>2021-05-17T06:04:18Z</time>
      </trkpt>
      <trkpt lat="41.4163860" lon="-8.7856890">
        <ele>8.9</ele>
        <time>2021-05-17T06:04:19Z</time>
      </trkpt>
      <trkpt lat="41.4163850" lon="-8.7856910">
        <ele>8.9</ele>
        <time>2021-05-17T06:04:20Z</time>
      </trkpt>
      <trkpt lat="41.4163840" lon="-8.7856910">
        <ele>8.9</ele>
        <time>2021-05-17T06:04:21Z</time>
      </trkpt>
      <trkpt lat="41.4163860" lon="-8.7856890">
        <ele>8.9</ele>
        <time>2021-05-17T06:04:22Z</time>
      </trkpt>
      <trkpt lat="41.4163830" lon="-8.7856850">
        <ele>8.9</ele>
        <time>2021-05-17T06:04:23Z</time>
      </trkpt>
      <trkpt lat="41.4163820" lon="-8.7856850">
        <ele>8.9</ele>
        <time>2021-05-17T06:04:24Z</time>
      </trkpt>
      <trkpt lat="41.4163830" lon="-8.7856860">
        <ele>8.9</ele>
        <time>2021-05-17T06:04:25Z</time>
      </trkpt>
      <trkpt lat="41.4163830" lon="-8.7856870">
        <ele>8.9</ele>
        <time>2021-05-17T06:04:26Z</time>
      </trkpt>
      <trkpt lat="41.4163830" lon="-8.7856870">
        <ele>8.9</ele>
        <time>2021-05-17T06:04:27Z</time>
      </trkpt>
      <trkpt lat="41.4163810" lon="-8.7856890">
        <ele>8.9</ele>
        <time>2021-05-17T06:04:28Z</time>
      </trkpt>
      <trkpt lat="41.4163810" lon="-8.7856890">
        <ele>8.9</ele>
        <time>2021-05-17T06:04:29Z</time>
      </trkpt>
      <trkpt lat="41.4163820" lon="-8.7856890">
        <ele>8.9</ele>
        <time>2021-05-17T06:04:30Z</time>
      </trkpt>
      <trkpt lat="41.4163820" lon="-8.7856870">
        <ele>8.9</ele>
        <time>2021-05-17T06:04:31Z</time>
      </trkpt>
      <trkpt lat="41.4163860" lon="-8.7856720">
        <ele>8.9</ele>
        <time>2021-05-17T06:04:32Z</time>
      </trkpt>
      <trkpt lat="41.4163830" lon="-8.7856770">
        <ele>8.9</ele>
        <time>2021-05-17T06:04:33Z</time>
      </trkpt>
      <trkpt lat="41.4163840" lon="-8.7856770">
        <ele>8.9</ele>
        <time>2021-05-17T06:04:34Z</time>
      </trkpt>
      <trkpt lat="41.4163840" lon="-8.7856790">
        <ele>8.9</ele>
        <time>2021-05-17T06:04:35Z</time>
      </trkpt>
      <trkpt lat="41.4163850" lon="-8.7856780">
        <ele>8.9</ele>
        <time>2021-05-17T06:04:36Z</time>
      </trkpt>
      <trkpt lat="41.4163850" lon="-8.7856780">
        <ele>8.9</ele>
        <time>2021-05-17T06:04:37Z</time>
      </trkpt>
      <trkpt lat="41.4163860" lon="-8.7856790">
        <ele>8.9</ele>
        <time>2021-05-17T06:04:38Z</time>
      </trkpt>
      <trkpt lat="41.4163870" lon="-8.7856880">
        <ele>8.9</ele>
        <time>2021-05-17T06:04:39Z</time>
      </trkpt>
      <trkpt lat="41.4163840" lon="-8.7856950">
        <ele>8.9</ele>
        <time>2021-05-17T06:04:40Z</time>
      </trkpt>
      <trkpt lat="41.4163860" lon="-8.7856970">
        <ele>8.9</ele>
        <time>2021-05-17T06:04:41Z</time>
      </trkpt>
      <trkpt lat="41.4163850" lon="-8.7856960">
        <ele>8.9</ele>
        <time>2021-05-17T06:04:42Z</time>
      </trkpt>
      <trkpt lat="41.4163860" lon="-8.7856960">
        <ele>8.9</ele>
        <time>2021-05-17T06:04:43Z</time>
      </trkpt>
      <trkpt lat="41.4163850" lon="-8.7856940">
        <ele>8.9</ele>
        <time>2021-05-17T06:04:44Z</time>
      </trkpt>
      <trkpt lat="41.4163860" lon="-8.7856930">
        <ele>8.9</ele>
        <time>2021-05-17T06:04:45Z</time>
      </trkpt>
      <trkpt lat="41.4163860" lon="-8.7856910">
        <ele>8.9</ele>
        <time>2021-05-17T06:04:46Z</time>
      </trkpt>
      <trkpt lat="41.4163870" lon="-8.7856930">
        <ele>8.8</ele>
        <time>2021-05-17T06:04:47Z</time>
      </trkpt>
      <trkpt lat="41.4163870" lon="-8.7856920">
        <ele>8.8</ele>
        <time>2021-05-17T06:04:48Z</time>
      </trkpt>
      <trkpt lat="41.4163880" lon="-8.7856910">
        <ele>8.8</ele>
        <time>2021-05-17T06:04:49Z</time>
      </trkpt>
      <trkpt lat="41.4163890" lon="-8.7856920">
        <ele>8.8</ele>
        <time>2021-05-17T06:04:50Z</time>
      </trkpt>
      <trkpt lat="41.4163890" lon="-8.7856920">
        <ele>8.8</ele>
        <time>2021-05-17T06:04:51Z</time>
      </trkpt>
      <trkpt lat="41.4163880" lon="-8.7856910">
        <ele>8.8</ele>
        <time>2021-05-17T06:04:52Z</time>
      </trkpt>
      <trkpt lat="41.4163880" lon="-8.7856910">
        <ele>8.8</ele>
        <time>2021-05-17T06:04:53Z</time>
      </trkpt>
      <trkpt lat="41.4163880" lon="-8.7856920">
        <ele>8.8</ele>
        <time>2021-05-17T06:04:54Z</time>
      </trkpt>
      <trkpt lat="41.4163860" lon="-8.7856890">
        <ele>8.8</ele>
        <time>2021-05-17T06:04:55Z</time>
      </trkpt>
      <trkpt lat="41.4163870" lon="-8.7856920">
        <ele>8.8</ele>
        <time>2021-05-17T06:04:56Z</time>
      </trkpt>
      <trkpt lat="41.4163840" lon="-8.7856960">
        <ele>8.8</ele>
        <time>2021-05-17T06:04:57Z</time>
      </trkpt>
      <trkpt lat="41.4163860" lon="-8.7857000">
        <ele>8.8</ele>
        <time>2021-05-17T06:04:58Z</time>
      </trkpt>
      <trkpt lat="41.4163910" lon="-8.7857060">
        <ele>8.8</ele>
        <time>2021-05-17T06:04:59Z</time>
      </trkpt>
      <trkpt lat="41.4163940" lon="-8.7857100">
        <ele>8.8</ele>
        <time>2021-05-17T06:05:00Z</time>
      </trkpt>
      <trkpt lat="41.4163920" lon="-8.7857040">
        <ele>8.8</ele>
        <time>2021-05-17T06:05:01Z</time>
      </trkpt>
      <trkpt lat="41.4163930" lon="-8.7857020">
        <ele>8.8</ele>
        <time>2021-05-17T06:05:02Z</time>
      </trkpt>
      <trkpt lat="41.4163940" lon="-8.7857030">
        <ele>8.8</ele>
        <time>2021-05-17T06:05:03Z</time>
      </trkpt>
      <trkpt lat="41.4163940" lon="-8.7857040">
        <ele>8.8</ele>
        <time>2021-05-17T06:05:04Z</time>
      </trkpt>
      <trkpt lat="41.4163940" lon="-8.7857020">
        <ele>8.8</ele>
        <time>2021-05-17T06:05:05Z</time>
      </trkpt>
      <trkpt lat="41.4163950" lon="-8.7857030">
        <ele>8.8</ele>
        <time>2021-05-17T06:05:06Z</time>
      </trkpt>
      <trkpt lat="41.4163940" lon="-8.7857030">
        <ele>8.8</ele>
        <time>2021-05-17T06:05:07Z</time>
      </trkpt>
      <trkpt lat="41.4163940" lon="-8.7857020">
        <ele>8.8</ele>
        <time>2021-05-17T06:05:08Z</time>
      </trkpt>
      <trkpt lat="41.4163970" lon="-8.7857010">
        <ele>8.8</ele>
        <time>2021-05-17T06:05:10Z</time>
      </trkpt>
      <trkpt lat="41.4163990" lon="-8.7857020">
        <ele>8.8</ele>
        <time>2021-05-17T06:05:11Z</time>
      </trkpt>
      <trkpt lat="41.4164010" lon="-8.7857040">
        <ele>8.8</ele>
        <time>2021-05-17T06:05:12Z</time>
      </trkpt>
      <trkpt lat="41.4164010" lon="-8.7857040">
        <ele>8.8</ele>
        <time>2021-05-17T06:05:13Z</time>
      </trkpt>
      <trkpt lat="41.4164000" lon="-8.7857030">
        <ele>8.8</ele>
        <time>2021-05-17T06:05:14Z</time>
      </trkpt>
      <trkpt lat="41.4164000" lon="-8.7857030">
        <ele>8.8</ele>
        <time>2021-05-17T06:05:15Z</time>
      </trkpt>
      <trkpt lat="41.4164000" lon="-8.7857030">
        <ele>8.8</ele>
        <time>2021-05-17T06:05:16Z</time>
      </trkpt>
      <trkpt lat="41.4164000" lon="-8.7857030">
        <ele>8.8</ele>
        <time>2021-05-17T06:05:17Z</time>
      </trkpt>
      <trkpt lat="41.4163980" lon="-8.7857020">
        <ele>8.8</ele>
        <time>2021-05-17T06:05:18Z</time>
      </trkpt>
      <trkpt lat="41.4164000" lon="-8.7857010">
        <ele>8.8</ele>
        <time>2021-05-17T06:05:19Z</time>
      </trkpt>
      <trkpt lat="41.4164000" lon="-8.7857020">
        <ele>8.8</ele>
        <time>2021-05-17T06:05:20Z</time>
      </trkpt>
      <trkpt lat="41.4164000" lon="-8.7857030">
        <ele>8.8</ele>
        <time>2021-05-17T06:05:22Z</time>
      </trkpt>
      <trkpt lat="41.4163990" lon="-8.7857020">
        <ele>8.8</ele>
        <time>2021-05-17T06:05:23Z</time>
      </trkpt>
      <trkpt lat="41.4163980" lon="-8.7857000">
        <ele>8.8</ele>
        <time>2021-05-17T06:05:24Z</time>
      </trkpt>
      <trkpt lat="41.4163970" lon="-8.7857000">
        <ele>8.8</ele>
        <time>2021-05-17T06:05:25Z</time>
      </trkpt>
      <trkpt lat="41.4163950" lon="-8.7857010">
        <ele>8.8</ele>
        <time>2021-05-17T06:05:26Z</time>
      </trkpt>
      <trkpt lat="41.4163940" lon="-8.7857000">
        <ele>8.8</ele>
        <time>2021-05-17T06:05:27Z</time>
      </trkpt>
      <trkpt lat="41.4163920" lon="-8.7856960">
        <ele>8.8</ele>
        <time>2021-05-17T06:05:28Z</time>
      </trkpt>
      <trkpt lat="41.4163920" lon="-8.7856950">
        <ele>8.8</ele>
        <time>2021-05-17T06:05:29Z</time>
      </trkpt>
      <trkpt lat="41.4163910" lon="-8.7856950">
        <ele>8.8</ele>
        <time>2021-05-17T06:05:30Z</time>
      </trkpt>
      <trkpt lat="41.4163930" lon="-8.7856980">
        <ele>8.8</ele>
        <time>2021-05-17T06:05:31Z</time>
      </trkpt>
      <trkpt lat="41.4163930" lon="-8.7856990">
        <ele>8.8</ele>
        <time>2021-05-17T06:05:32Z</time>
      </trkpt>
      <trkpt lat="41.4163940" lon="-8.7856980">
        <ele>8.8</ele>
        <time>2021-05-17T06:05:33Z</time>
      </trkpt>
      <trkpt lat="41.4163960" lon="-8.7856990">
        <ele>8.8</ele>
        <time>2021-05-17T06:05:34Z</time>
      </trkpt>
      <trkpt lat="41.4163930" lon="-8.7857010">
        <ele>8.8</ele>
        <time>2021-05-17T06:05:35Z</time>
      </trkpt>
      <trkpt lat="41.4163940" lon="-8.7857020">
        <ele>8.8</ele>
        <time>2021-05-17T06:05:36Z</time>
      </trkpt>
      <trkpt lat="41.4163940" lon="-8.7857010">
        <ele>8.8</ele>
        <time>2021-05-17T06:05:37Z</time>
      </trkpt>
      <trkpt lat="41.4163940" lon="-8.7857010">
        <ele>8.8</ele>
        <time>2021-05-17T06:05:38Z</time>
      </trkpt>
      <trkpt lat="41.4163940" lon="-8.7857010">
        <ele>8.8</ele>
        <time>2021-05-17T06:05:39Z</time>
      </trkpt>
      <trkpt lat="41.4163940" lon="-8.7857010">
        <ele>8.8</ele>
        <time>2021-05-17T06:05:40Z</time>
      </trkpt>
      <trkpt lat="41.4163940" lon="-8.7857010">
        <ele>8.8</ele>
        <time>2021-05-17T06:05:41Z</time>
      </trkpt>
      <trkpt lat="41.4163940" lon="-8.7857010">
        <ele>8.8</ele>
        <time>2021-05-17T06:05:42Z</time>
      </trkpt>
      <trkpt lat="41.4163980" lon="-8.7857020">
        <ele>8.8</ele>
        <time>2021-05-17T06:05:43Z</time>
      </trkpt>
      <trkpt lat="41.4163960" lon="-8.7857010">
        <ele>8.8</ele>
        <time>2021-05-17T06:05:44Z</time>
      </trkpt>
      <trkpt lat="41.4163970" lon="-8.7857030">
        <ele>8.8</ele>
        <time>2021-05-17T06:05:45Z</time>
      </trkpt>
      <trkpt lat="41.4164000" lon="-8.7857040">
        <ele>8.8</ele>
        <time>2021-05-17T06:05:46Z</time>
      </trkpt>
      <trkpt lat="41.4164000" lon="-8.7857010">
        <ele>8.8</ele>
        <time>2021-05-17T06:05:47Z</time>
      </trkpt>
      <trkpt lat="41.4164000" lon="-8.7856980">
        <ele>8.8</ele>
        <time>2021-05-17T06:05:48Z</time>
      </trkpt>
      <trkpt lat="41.4163990" lon="-8.7856970">
        <ele>8.8</ele>
        <time>2021-05-17T06:05:49Z</time>
      </trkpt>
      <trkpt lat="41.4163990" lon="-8.7856940">
        <ele>8.8</ele>
        <time>2021-05-17T06:05:50Z</time>
      </trkpt>
      <trkpt lat="41.4164080" lon="-8.7856890">
        <ele>8.8</ele>
        <time>2021-05-17T06:05:51Z</time>
      </trkpt>
      <trkpt lat="41.4164150" lon="-8.7856890">
        <ele>8.8</ele>
        <time>2021-05-17T06:05:52Z</time>
      </trkpt>
      <trkpt lat="41.4164220" lon="-8.7856850">
        <ele>8.8</ele>
        <time>2021-05-17T06:05:53Z</time>
      </trkpt>
      <trkpt lat="41.4164220" lon="-8.7856840">
        <ele>8.8</ele>
        <time>2021-05-17T06:05:54Z</time>
      </trkpt>
      <trkpt lat="41.4164270" lon="-8.7856950">
        <ele>8.8</ele>
        <time>2021-05-17T06:05:55Z</time>
      </trkpt>
      <trkpt lat="41.4164340" lon="-8.7857060">
        <ele>8.8</ele>
        <time>2021-05-17T06:05:56Z</time>
      </trkpt>
      <trkpt lat="41.4164280" lon="-8.7857070">
        <ele>8.8</ele>
        <time>2021-05-17T06:05:57Z</time>
      </trkpt>
      <trkpt lat="41.4164250" lon="-8.7857080">
        <ele>8.8</ele>
        <time>2021-05-17T06:05:58Z</time>
      </trkpt>
      <trkpt lat="41.4164250" lon="-8.7857090">
        <ele>8.8</ele>
        <time>2021-05-17T06:05:59Z</time>
      </trkpt>
      <trkpt lat="41.4164240" lon="-8.7857080">
        <ele>8.8</ele>
        <time>2021-05-17T06:06:00Z</time>
      </trkpt>
      <trkpt lat="41.4164230" lon="-8.7857070">
        <ele>8.8</ele>
        <time>2021-05-17T06:06:01Z</time>
      </trkpt>
      <trkpt lat="41.4164220" lon="-8.7857070">
        <ele>8.8</ele>
        <time>2021-05-17T06:06:02Z</time>
      </trkpt>
      <trkpt lat="41.4164210" lon="-8.7857070">
        <ele>8.8</ele>
        <time>2021-05-17T06:06:03Z</time>
      </trkpt>
      <trkpt lat="41.4164190" lon="-8.7857110">
        <ele>8.8</ele>
        <time>2021-05-17T06:06:04Z</time>
      </trkpt>
      <trkpt lat="41.4164220" lon="-8.7857060">
        <ele>8.8</ele>
        <time>2021-05-17T06:06:05Z</time>
      </trkpt>
      <trkpt lat="41.4164170" lon="-8.7857040">
        <ele>8.8</ele>
        <time>2021-05-17T06:06:06Z</time>
      </trkpt>
      <trkpt lat="41.4164130" lon="-8.7857020">
        <ele>8.8</ele>
        <time>2021-05-17T06:06:07Z</time>
      </trkpt>
      <trkpt lat="41.4164180" lon="-8.7856990">
        <ele>8.8</ele>
        <time>2021-05-17T06:06:08Z</time>
      </trkpt>
      <trkpt lat="41.4164160" lon="-8.7857040">
        <ele>8.8</ele>
        <time>2021-05-17T06:06:09Z</time>
      </trkpt>
      <trkpt lat="41.4164160" lon="-8.7857060">
        <ele>8.8</ele>
        <time>2021-05-17T06:06:10Z</time>
      </trkpt>
      <trkpt lat="41.4164150" lon="-8.7857070">
        <ele>8.8</ele>
        <time>2021-05-17T06:06:11Z</time>
      </trkpt>
      <trkpt lat="41.4164180" lon="-8.7857070">
        <ele>8.8</ele>
        <time>2021-05-17T06:06:12Z</time>
      </trkpt>
      <trkpt lat="41.4164170" lon="-8.7857090">
        <ele>8.8</ele>
        <time>2021-05-17T06:06:13Z</time>
      </trkpt>
      <trkpt lat="41.4164210" lon="-8.7857100">
        <ele>8.8</ele>
        <time>2021-05-17T06:06:14Z</time>
      </trkpt>
      <trkpt lat="41.4164240" lon="-8.7857160">
        <ele>8.8</ele>
        <time>2021-05-17T06:06:15Z</time>
      </trkpt>
      <trkpt lat="41.4164250" lon="-8.7857170">
        <ele>8.8</ele>
        <time>2021-05-17T06:06:16Z</time>
      </trkpt>
      <trkpt lat="41.4164250" lon="-8.7857170">
        <ele>8.8</ele>
        <time>2021-05-17T06:06:17Z</time>
      </trkpt>
      <trkpt lat="41.4164250" lon="-8.7857170">
        <ele>8.8</ele>
        <time>2021-05-17T06:06:18Z</time>
      </trkpt>
      <trkpt lat="41.4164250" lon="-8.7857170">
        <ele>8.8</ele>
        <time>2021-05-17T06:06:19Z</time>
      </trkpt>
      <trkpt lat="41.4164250" lon="-8.7857170">
        <ele>8.8</ele>
        <time>2021-05-17T06:06:20Z</time>
      </trkpt>
      <trkpt lat="41.4164250" lon="-8.7857170">
        <ele>8.8</ele>
        <time>2021-05-17T06:06:21Z</time>
      </trkpt>
      <trkpt lat="41.4164250" lon="-8.7857170">
        <ele>8.8</ele>
        <time>2021-05-17T06:06:22Z</time>
      </trkpt>
      <trkpt lat="41.4164250" lon="-8.7857170">
        <ele>8.8</ele>
        <time>2021-05-17T06:06:23Z</time>
      </trkpt>
      <trkpt lat="41.4164250" lon="-8.7857170">
        <ele>8.8</ele>
        <time>2021-05-17T06:06:24Z</time>
      </trkpt>
      <trkpt lat="41.4164250" lon="-8.7857170">
        <ele>8.8</ele>
        <time>2021-05-17T06:06:25Z</time>
      </trkpt>
      <trkpt lat="41.4164250" lon="-8.7857170">
        <ele>8.8</ele>
        <time>2021-05-17T06:06:26Z</time>
      </trkpt>
      <trkpt lat="41.4164250" lon="-8.7857170">
        <ele>8.8</ele>
        <time>2021-05-17T06:06:27Z</time>
      </trkpt>
      <trkpt lat="41.4164280" lon="-8.7856980">
        <ele>8.8</ele>
        <time>2021-05-17T06:06:28Z</time>
      </trkpt>
      <trkpt lat="41.4164280" lon="-8.7856990">
        <ele>8.8</ele>
        <time>2021-05-17T06:06:29Z</time>
      </trkpt>
      <trkpt lat="41.4164310" lon="-8.7856930">
        <ele>8.8</ele>
        <time>2021-05-17T06:06:30Z</time>
      </trkpt>
      <trkpt lat="41.4164300" lon="-8.7856980">
        <ele>8.8</ele>
        <time>2021-05-17T06:06:31Z</time>
      </trkpt>
      <trkpt lat="41.4164290" lon="-8.7856980">
        <ele>8.8</ele>
        <time>2021-05-17T06:06:32Z</time>
      </trkpt>
      <trkpt lat="41.4164280" lon="-8.7857000">
        <ele>8.8</ele>
        <time>2021-05-17T06:06:33Z</time>
      </trkpt>
      <trkpt lat="41.4164280" lon="-8.7857020">
        <ele>8.8</ele>
        <time>2021-05-17T06:06:34Z</time>
      </trkpt>
      <trkpt lat="41.4164260" lon="-8.7857060">
        <ele>8.8</ele>
        <time>2021-05-17T06:06:35Z</time>
      </trkpt>
      <trkpt lat="41.4164240" lon="-8.7857070">
        <ele>8.8</ele>
        <time>2021-05-17T06:06:36Z</time>
      </trkpt>
      <trkpt lat="41.4164180" lon="-8.7857070">
        <ele>8.8</ele>
        <time>2021-05-17T06:06:37Z</time>
      </trkpt>
      <trkpt lat="41.4164150" lon="-8.7857030">
        <ele>8.8</ele>
        <time>2021-05-17T06:06:38Z</time>
      </trkpt>
      <trkpt lat="41.4164140" lon="-8.7857030">
        <ele>8.8</ele>
        <time>2021-05-17T06:06:39Z</time>
      </trkpt>
      <trkpt lat="41.4164140" lon="-8.7857030">
        <ele>8.8</ele>
        <time>2021-05-17T06:06:40Z</time>
      </trkpt>
      <trkpt lat="41.4164160" lon="-8.7857020">
        <ele>8.8</ele>
        <time>2021-05-17T06:06:41Z</time>
      </trkpt>
      <trkpt lat="41.4164160" lon="-8.7857010">
        <ele>8.8</ele>
        <time>2021-05-17T06:06:42Z</time>
      </trkpt>
      <trkpt lat="41.4164150" lon="-8.7857020">
        <ele>8.8</ele>
        <time>2021-05-17T06:06:43Z</time>
      </trkpt>
      <trkpt lat="41.4164150" lon="-8.7857040">
        <ele>8.8</ele>
        <time>2021-05-17T06:06:44Z</time>
      </trkpt>
      <trkpt lat="41.4164150" lon="-8.7857050">
        <ele>8.8</ele>
        <time>2021-05-17T06:06:45Z</time>
      </trkpt>
      <trkpt lat="41.4164140" lon="-8.7857080">
        <ele>8.8</ele>
        <time>2021-05-17T06:06:46Z</time>
      </trkpt>
      <trkpt lat="41.4164150" lon="-8.7857070">
        <ele>8.8</ele>
        <time>2021-05-17T06:06:47Z</time>
      </trkpt>
      <trkpt lat="41.4164140" lon="-8.7857070">
        <ele>8.8</ele>
        <time>2021-05-17T06:06:48Z</time>
      </trkpt>
      <trkpt lat="41.4164150" lon="-8.7857060">
        <ele>8.8</ele>
        <time>2021-05-17T06:06:49Z</time>
      </trkpt>
      <trkpt lat="41.4164170" lon="-8.7857060">
        <ele>8.8</ele>
        <time>2021-05-17T06:06:50Z</time>
      </trkpt>
      <trkpt lat="41.4164190" lon="-8.7857070">
        <ele>8.8</ele>
        <time>2021-05-17T06:06:51Z</time>
      </trkpt>
      <trkpt lat="41.4164200" lon="-8.7857080">
        <ele>8.8</ele>
        <time>2021-05-17T06:06:52Z</time>
      </trkpt>
      <trkpt lat="41.4164220" lon="-8.7857070">
        <ele>8.8</ele>
        <time>2021-05-17T06:06:53Z</time>
      </trkpt>
      <trkpt lat="41.4164230" lon="-8.7857110">
        <ele>8.8</ele>
        <time>2021-05-17T06:06:54Z</time>
      </trkpt>
      <trkpt lat="41.4164230" lon="-8.7857070">
        <ele>8.8</ele>
        <time>2021-05-17T06:06:55Z</time>
      </trkpt>
      <trkpt lat="41.4164250" lon="-8.7857090">
        <ele>8.8</ele>
        <time>2021-05-17T06:06:56Z</time>
      </trkpt>
      <trkpt lat="41.4164240" lon="-8.7857110">
        <ele>8.8</ele>
        <time>2021-05-17T06:06:57Z</time>
      </trkpt>
      <trkpt lat="41.4164250" lon="-8.7857130">
        <ele>8.8</ele>
        <time>2021-05-17T06:06:58Z</time>
      </trkpt>
      <trkpt lat="41.4164290" lon="-8.7857130">
        <ele>8.8</ele>
        <time>2021-05-17T06:06:59Z</time>
      </trkpt>
      <trkpt lat="41.4164300" lon="-8.7857140">
        <ele>8.8</ele>
        <time>2021-05-17T06:07:00Z</time>
      </trkpt>
      <trkpt lat="41.4164260" lon="-8.7857090">
        <ele>8.8</ele>
        <time>2021-05-17T06:07:01Z</time>
      </trkpt>
      <trkpt lat="41.4164220" lon="-8.7857050">
        <ele>8.8</ele>
        <time>2021-05-17T06:07:02Z</time>
      </trkpt>
      <trkpt lat="41.4164250" lon="-8.7857040">
        <ele>8.8</ele>
        <time>2021-05-17T06:07:03Z</time>
      </trkpt>
      <trkpt lat="41.4164400" lon="-8.7857010">
        <ele>8.8</ele>
        <time>2021-05-17T06:07:04Z</time>
      </trkpt>
      <trkpt lat="41.4164470" lon="-8.7856810">
        <ele>8.8</ele>
        <time>2021-05-17T06:07:05Z</time>
      </trkpt>
      <trkpt lat="41.4164550" lon="-8.7856580">
        <ele>8.8</ele>
        <time>2021-05-17T06:07:06Z</time>
      </trkpt>
      <trkpt lat="41.4164590" lon="-8.7856450">
        <ele>8.8</ele>
        <time>2021-05-17T06:07:07Z</time>
      </trkpt>
      <trkpt lat="41.4164670" lon="-8.7856370">
        <ele>8.8</ele>
        <time>2021-05-17T06:07:08Z</time>
      </trkpt>
      <trkpt lat="41.4164760" lon="-8.7856440">
        <ele>8.8</ele>
        <time>2021-05-17T06:07:09Z</time>
      </trkpt>
      <trkpt lat="41.4164910" lon="-8.7856530">
        <ele>8.8</ele>
        <time>2021-05-17T06:07:10Z</time>
      </trkpt>
      <trkpt lat="41.4165030" lon="-8.7856560">
        <ele>8.8</ele>
        <time>2021-05-17T06:07:11Z</time>
      </trkpt>
      <trkpt lat="41.4165210" lon="-8.7856640">
        <ele>8.8</ele>
        <time>2021-05-17T06:07:12Z</time>
      </trkpt>
      <trkpt lat="41.4165360" lon="-8.7856730">
        <ele>8.8</ele>
        <time>2021-05-17T06:07:13Z</time>
      </trkpt>
      <trkpt lat="41.4165540" lon="-8.7856830">
        <ele>8.9</ele>
        <time>2021-05-17T06:07:14Z</time>
      </trkpt>
      <trkpt lat="41.4165660" lon="-8.7856890">
        <ele>8.9</ele>
        <time>2021-05-17T06:07:15Z</time>
      </trkpt>
      <trkpt lat="41.4165820" lon="-8.7857020">
        <ele>8.9</ele>
        <time>2021-05-17T06:07:16Z</time>
      </trkpt>
      <trkpt lat="41.4166020" lon="-8.7857090">
        <ele>8.9</ele>
        <time>2021-05-17T06:07:17Z</time>
      </trkpt>
      <trkpt lat="41.4166110" lon="-8.7857170">
        <ele>8.9</ele>
        <time>2021-05-17T06:07:18Z</time>
      </trkpt>
      <trkpt lat="41.4166190" lon="-8.7857240">
        <ele>8.9</ele>
        <time>2021-05-17T06:07:19Z</time>
      </trkpt>
      <trkpt lat="41.4166360" lon="-8.7857270">
        <ele>8.9</ele>
        <time>2021-05-17T06:07:20Z</time>
      </trkpt>
      <trkpt lat="41.4166510" lon="-8.7857420">
        <ele>8.9</ele>
        <time>2021-05-17T06:07:21Z</time>
      </trkpt>
      <trkpt lat="41.4166670" lon="-8.7857460">
        <ele>8.9</ele>
        <time>2021-05-17T06:07:22Z</time>
      </trkpt>
      <trkpt lat="41.4166840" lon="-8.7857520">
        <ele>8.9</ele>
        <time>2021-05-17T06:07:23Z</time>
      </trkpt>
      <trkpt lat="41.4166990" lon="-8.7857620">
        <ele>8.9</ele>
        <time>2021-05-17T06:07:24Z</time>
      </trkpt>
      <trkpt lat="41.4167150" lon="-8.7857700">
        <ele>8.9</ele>
        <time>2021-05-17T06:07:25Z</time>
      </trkpt>
      <trkpt lat="41.4167280" lon="-8.7857820">
        <ele>8.9</ele>
        <time>2021-05-17T06:07:26Z</time>
      </trkpt>
      <trkpt lat="41.4167470" lon="-8.7857860">
        <ele>8.9</ele>
        <time>2021-05-17T06:07:27Z</time>
      </trkpt>
      <trkpt lat="41.4167630" lon="-8.7857880">
        <ele>8.9</ele>
        <time>2021-05-17T06:07:28Z</time>
      </trkpt>
      <trkpt lat="41.4167790" lon="-8.7857980">
        <ele>8.9</ele>
        <time>2021-05-17T06:07:29Z</time>
      </trkpt>
      <trkpt lat="41.4167940" lon="-8.7858030">
        <ele>8.9</ele>
        <time>2021-05-17T06:07:30Z</time>
      </trkpt>
      <trkpt lat="41.4168100" lon="-8.7858130">
        <ele>8.9</ele>
        <time>2021-05-17T06:07:31Z</time>
      </trkpt>
      <trkpt lat="41.4168280" lon="-8.7858100">
        <ele>8.9</ele>
        <time>2021-05-17T06:07:32Z</time>
      </trkpt>
      <trkpt lat="41.4168420" lon="-8.7858200">
        <ele>8.9</ele>
        <time>2021-05-17T06:07:33Z</time>
      </trkpt>
      <trkpt lat="41.4168590" lon="-8.7858200">
        <ele>8.9</ele>
        <time>2021-05-17T06:07:34Z</time>
      </trkpt>
      <trkpt lat="41.4168750" lon="-8.7858240">
        <ele>8.9</ele>
        <time>2021-05-17T06:07:35Z</time>
      </trkpt>
      <trkpt lat="41.4168890" lon="-8.7858240">
        <ele>8.9</ele>
        <time>2021-05-17T06:07:36Z</time>
      </trkpt>
      <trkpt lat="41.4169040" lon="-8.7858240">
        <ele>8.9</ele>
        <time>2021-05-17T06:07:37Z</time>
      </trkpt>
      <trkpt lat="41.4169200" lon="-8.7858240">
        <ele>8.9</ele>
        <time>2021-05-17T06:07:38Z</time>
      </trkpt>
      <trkpt lat="41.4169370" lon="-8.7858160">
        <ele>8.9</ele>
        <time>2021-05-17T06:07:39Z</time>
      </trkpt>
      <trkpt lat="41.4169540" lon="-8.7858180">
        <ele>8.9</ele>
        <time>2021-05-17T06:07:40Z</time>
      </trkpt>
      <trkpt lat="41.4169710" lon="-8.7858090">
        <ele>8.9</ele>
        <time>2021-05-17T06:07:41Z</time>
      </trkpt>
      <trkpt lat="41.4169870" lon="-8.7858100">
        <ele>8.9</ele>
        <time>2021-05-17T06:07:42Z</time>
      </trkpt>
      <trkpt lat="41.4170030" lon="-8.7858120">
        <ele>8.9</ele>
        <time>2021-05-17T06:07:43Z</time>
      </trkpt>
      <trkpt lat="41.4170190" lon="-8.7857990">
        <ele>8.9</ele>
        <time>2021-05-17T06:07:44Z</time>
      </trkpt>
      <trkpt lat="41.4170350" lon="-8.7857970">
        <ele>8.9</ele>
        <time>2021-05-17T06:07:45Z</time>
      </trkpt>
      <trkpt lat="41.4170490" lon="-8.7857930">
        <ele>8.9</ele>
        <time>2021-05-17T06:07:46Z</time>
      </trkpt>
      <trkpt lat="41.4170640" lon="-8.7857910">
        <ele>8.9</ele>
        <time>2021-05-17T06:07:47Z</time>
      </trkpt>
      <trkpt lat="41.4170790" lon="-8.7857860">
        <ele>8.9</ele>
        <time>2021-05-17T06:07:49Z</time>
      </trkpt>
      <trkpt lat="41.4170960" lon="-8.7857830">
        <ele>8.9</ele>
        <time>2021-05-17T06:07:50Z</time>
      </trkpt>
      <trkpt lat="41.4171130" lon="-8.7857780">
        <ele>8.9</ele>
        <time>2021-05-17T06:07:51Z</time>
      </trkpt>
      <trkpt lat="41.4171290" lon="-8.7857740">
        <ele>8.9</ele>
        <time>2021-05-17T06:07:52Z</time>
      </trkpt>
      <trkpt lat="41.4171450" lon="-8.7857790">
        <ele>8.9</ele>
        <time>2021-05-17T06:07:53Z</time>
      </trkpt>
      <trkpt lat="41.4171610" lon="-8.7857710">
        <ele>8.9</ele>
        <time>2021-05-17T06:07:54Z</time>
      </trkpt>
      <trkpt lat="41.4171740" lon="-8.7857630">
        <ele>8.9</ele>
        <time>2021-05-17T06:07:55Z</time>
      </trkpt>
      <trkpt lat="41.4171870" lon="-8.7857590">
        <ele>8.9</ele>
        <time>2021-05-17T06:07:56Z</time>
      </trkpt>
      <trkpt lat="41.4172000" lon="-8.7857520">
        <ele>8.9</ele>
        <time>2021-05-17T06:07:57Z</time>
      </trkpt>
      <trkpt lat="41.4172160" lon="-8.7857500">
        <ele>8.9</ele>
        <time>2021-05-17T06:07:58Z</time>
      </trkpt>
      <trkpt lat="41.4172300" lon="-8.7857440">
        <ele>8.9</ele>
        <time>2021-05-17T06:07:59Z</time>
      </trkpt>
      <trkpt lat="41.4172460" lon="-8.7857430">
        <ele>8.9</ele>
        <time>2021-05-17T06:08:00Z</time>
      </trkpt>
      <trkpt lat="41.4172600" lon="-8.7857450">
        <ele>8.9</ele>
        <time>2021-05-17T06:08:01Z</time>
      </trkpt>
      <trkpt lat="41.4172740" lon="-8.7857370">
        <ele>8.9</ele>
        <time>2021-05-17T06:08:02Z</time>
      </trkpt>
      <trkpt lat="41.4172870" lon="-8.7857290">
        <ele>8.9</ele>
        <time>2021-05-17T06:08:03Z</time>
      </trkpt>
      <trkpt lat="41.4173150" lon="-8.7857210">
        <ele>9.0</ele>
        <time>2021-05-17T06:08:04Z</time>
      </trkpt>
      <trkpt lat="41.4173330" lon="-8.7857200">
        <ele>9.0</ele>
        <time>2021-05-17T06:08:05Z</time>
      </trkpt>
      <trkpt lat="41.4173490" lon="-8.7857140">
        <ele>9.0</ele>
        <time>2021-05-17T06:08:06Z</time>
      </trkpt>
      <trkpt lat="41.4173640" lon="-8.7857160">
        <ele>9.0</ele>
        <time>2021-05-17T06:08:07Z</time>
      </trkpt>
      <trkpt lat="41.4173810" lon="-8.7857100">
        <ele>9.0</ele>
        <time>2021-05-17T06:08:08Z</time>
      </trkpt>
      <trkpt lat="41.4173960" lon="-8.7857140">
        <ele>9.0</ele>
        <time>2021-05-17T06:08:09Z</time>
      </trkpt>
      <trkpt lat="41.4174100" lon="-8.7857070">
        <ele>9.0</ele>
        <time>2021-05-17T06:08:10Z</time>
      </trkpt>
      <trkpt lat="41.4174240" lon="-8.7857030">
        <ele>9.0</ele>
        <time>2021-05-17T06:08:11Z</time>
      </trkpt>
      <trkpt lat="41.4174370" lon="-8.7856930">
        <ele>9.0</ele>
        <time>2021-05-17T06:08:12Z</time>
      </trkpt>
      <trkpt lat="41.4174510" lon="-8.7856840">
        <ele>9.0</ele>
        <time>2021-05-17T06:08:13Z</time>
      </trkpt>
      <trkpt lat="41.4174650" lon="-8.7856760">
        <ele>9.0</ele>
        <time>2021-05-17T06:08:14Z</time>
      </trkpt>
      <trkpt lat="41.4174790" lon="-8.7856710">
        <ele>9.0</ele>
        <time>2021-05-17T06:08:15Z</time>
      </trkpt>
      <trkpt lat="41.4174950" lon="-8.7856670">
        <ele>9.0</ele>
        <time>2021-05-17T06:08:16Z</time>
      </trkpt>
      <trkpt lat="41.4175080" lon="-8.7856580">
        <ele>9.0</ele>
        <time>2021-05-17T06:08:17Z</time>
      </trkpt>
      <trkpt lat="41.4175230" lon="-8.7856590">
        <ele>9.0</ele>
        <time>2021-05-17T06:08:18Z</time>
      </trkpt>
      <trkpt lat="41.4175390" lon="-8.7856610">
        <ele>9.0</ele>
        <time>2021-05-17T06:08:19Z</time>
      </trkpt>
      <trkpt lat="41.4175540" lon="-8.7856550">
        <ele>9.1</ele>
        <time>2021-05-17T06:08:20Z</time>
      </trkpt>
      <trkpt lat="41.4175700" lon="-8.7856440">
        <ele>9.1</ele>
        <time>2021-05-17T06:08:21Z</time>
      </trkpt>
      <trkpt lat="41.4175830" lon="-8.7856460">
        <ele>9.1</ele>
        <time>2021-05-17T06:08:22Z</time>
      </trkpt>
      <trkpt lat="41.4175970" lon="-8.7856320">
        <ele>9.1</ele>
        <time>2021-05-17T06:08:23Z</time>
      </trkpt>
      <trkpt lat="41.4176120" lon="-8.7856280">
        <ele>9.1</ele>
        <time>2021-05-17T06:08:24Z</time>
      </trkpt>
      <trkpt lat="41.4176280" lon="-8.7856240">
        <ele>9.1</ele>
        <time>2021-05-17T06:08:25Z</time>
      </trkpt>
      <trkpt lat="41.4176420" lon="-8.7856180">
        <ele>9.1</ele>
        <time>2021-05-17T06:08:26Z</time>
      </trkpt>
      <trkpt lat="41.4176580" lon="-8.7856130">
        <ele>9.1</ele>
        <time>2021-05-17T06:08:27Z</time>
      </trkpt>
      <trkpt lat="41.4176700" lon="-8.7856090">
        <ele>9.1</ele>
        <time>2021-05-17T06:08:28Z</time>
      </trkpt>
      <trkpt lat="41.4176820" lon="-8.7855970">
        <ele>9.1</ele>
        <time>2021-05-17T06:08:29Z</time>
      </trkpt>
      <trkpt lat="41.4176970" lon="-8.7855910">
        <ele>9.1</ele>
        <time>2021-05-17T06:08:30Z</time>
      </trkpt>
      <trkpt lat="41.4177120" lon="-8.7855850">
        <ele>9.1</ele>
        <time>2021-05-17T06:08:31Z</time>
      </trkpt>
      <trkpt lat="41.4177270" lon="-8.7855770">
        <ele>9.2</ele>
        <time>2021-05-17T06:08:32Z</time>
      </trkpt>
      <trkpt lat="41.4177420" lon="-8.7855680">
        <ele>9.2</ele>
        <time>2021-05-17T06:08:33Z</time>
      </trkpt>
      <trkpt lat="41.4177560" lon="-8.7855680">
        <ele>9.2</ele>
        <time>2021-05-17T06:08:34Z</time>
      </trkpt>
      <trkpt lat="41.4177690" lon="-8.7855600">
        <ele>9.2</ele>
        <time>2021-05-17T06:08:35Z</time>
      </trkpt>
      <trkpt lat="41.4177840" lon="-8.7855530">
        <ele>9.2</ele>
        <time>2021-05-17T06:08:36Z</time>
      </trkpt>
      <trkpt lat="41.4177980" lon="-8.7855410">
        <ele>9.2</ele>
        <time>2021-05-17T06:08:37Z</time>
      </trkpt>
      <trkpt lat="41.4178130" lon="-8.7855390">
        <ele>9.2</ele>
        <time>2021-05-17T06:08:38Z</time>
      </trkpt>
      <trkpt lat="41.4178250" lon="-8.7855270">
        <ele>9.3</ele>
        <time>2021-05-17T06:08:39Z</time>
      </trkpt>
      <trkpt lat="41.4178390" lon="-8.7855210">
        <ele>9.3</ele>
        <time>2021-05-17T06:08:40Z</time>
      </trkpt>
      <trkpt lat="41.4178530" lon="-8.7855090">
        <ele>9.3</ele>
        <time>2021-05-17T06:08:41Z</time>
      </trkpt>
      <trkpt lat="41.4178660" lon="-8.7855000">
        <ele>9.3</ele>
        <time>2021-05-17T06:08:42Z</time>
      </trkpt>
      <trkpt lat="41.4178820" lon="-8.7854970">
        <ele>9.3</ele>
        <time>2021-05-17T06:08:43Z</time>
      </trkpt>
      <trkpt lat="41.4178950" lon="-8.7854890">
        <ele>9.3</ele>
        <time>2021-05-17T06:08:44Z</time>
      </trkpt>
      <trkpt lat="41.4179090" lon="-8.7854860">
        <ele>9.3</ele>
        <time>2021-05-17T06:08:45Z</time>
      </trkpt>
      <trkpt lat="41.4179200" lon="-8.7854690">
        <ele>9.4</ele>
        <time>2021-05-17T06:08:46Z</time>
      </trkpt>
      <trkpt lat="41.4179340" lon="-8.7854740">
        <ele>9.4</ele>
        <time>2021-05-17T06:08:47Z</time>
      </trkpt>
      <trkpt lat="41.4179460" lon="-8.7854550">
        <ele>9.4</ele>
        <time>2021-05-17T06:08:48Z</time>
      </trkpt>
      <trkpt lat="41.4179560" lon="-8.7854420">
        <ele>9.4</ele>
        <time>2021-05-17T06:08:49Z</time>
      </trkpt>
      <trkpt lat="41.4179690" lon="-8.7854390">
        <ele>9.4</ele>
        <time>2021-05-17T06:08:50Z</time>
      </trkpt>
      <trkpt lat="41.4179830" lon="-8.7854300">
        <ele>9.4</ele>
        <time>2021-05-17T06:08:51Z</time>
      </trkpt>
      <trkpt lat="41.4179980" lon="-8.7854220">
        <ele>9.4</ele>
        <time>2021-05-17T06:08:52Z</time>
      </trkpt>
      <trkpt lat="41.4180110" lon="-8.7854160">
        <ele>9.4</ele>
        <time>2021-05-17T06:08:53Z</time>
      </trkpt>
      <trkpt lat="41.4180300" lon="-8.7854040">
        <ele>9.4</ele>
        <time>2021-05-17T06:08:54Z</time>
      </trkpt>
      <trkpt lat="41.4180380" lon="-8.7853970">
        <ele>9.4</ele>
        <time>2021-05-17T06:08:55Z</time>
      </trkpt>
      <trkpt lat="41.4180450" lon="-8.7853890">
        <ele>9.4</ele>
        <time>2021-05-17T06:08:56Z</time>
      </trkpt>
      <trkpt lat="41.4180580" lon="-8.7853830">
        <ele>9.4</ele>
        <time>2021-05-17T06:08:57Z</time>
      </trkpt>
      <trkpt lat="41.4180740" lon="-8.7853760">
        <ele>9.4</ele>
        <time>2021-05-17T06:08:58Z</time>
      </trkpt>
      <trkpt lat="41.4180850" lon="-8.7853630">
        <ele>9.4</ele>
        <time>2021-05-17T06:08:59Z</time>
      </trkpt>
      <trkpt lat="41.4180970" lon="-8.7853570">
        <ele>9.4</ele>
        <time>2021-05-17T06:09:00Z</time>
      </trkpt>
      <trkpt lat="41.4181110" lon="-8.7853550">
        <ele>9.4</ele>
        <time>2021-05-17T06:09:01Z</time>
      </trkpt>
      <trkpt lat="41.4181260" lon="-8.7853530">
        <ele>9.4</ele>
        <time>2021-05-17T06:09:02Z</time>
      </trkpt>
      <trkpt lat="41.4181410" lon="-8.7853440">
        <ele>9.4</ele>
        <time>2021-05-17T06:09:03Z</time>
      </trkpt>
      <trkpt lat="41.4181530" lon="-8.7853390">
        <ele>9.4</ele>
        <time>2021-05-17T06:09:04Z</time>
      </trkpt>
      <trkpt lat="41.4181680" lon="-8.7853380">
        <ele>9.4</ele>
        <time>2021-05-17T06:09:05Z</time>
      </trkpt>
      <trkpt lat="41.4181800" lon="-8.7853330">
        <ele>9.3</ele>
        <time>2021-05-17T06:09:06Z</time>
      </trkpt>
      <trkpt lat="41.4181960" lon="-8.7853310">
        <ele>9.3</ele>
        <time>2021-05-17T06:09:07Z</time>
      </trkpt>
      <trkpt lat="41.4182090" lon="-8.7853260">
        <ele>9.3</ele>
        <time>2021-05-17T06:09:08Z</time>
      </trkpt>
      <trkpt lat="41.4182220" lon="-8.7853240">
        <ele>9.3</ele>
        <time>2021-05-17T06:09:09Z</time>
      </trkpt>
      <trkpt lat="41.4182370" lon="-8.7853200">
        <ele>9.3</ele>
        <time>2021-05-17T06:09:10Z</time>
      </trkpt>
      <trkpt lat="41.4182520" lon="-8.7853130">
        <ele>9.3</ele>
        <time>2021-05-17T06:09:11Z</time>
      </trkpt>
      <trkpt lat="41.4182690" lon="-8.7853030">
        <ele>9.3</ele>
        <time>2021-05-17T06:09:12Z</time>
      </trkpt>
      <trkpt lat="41.4182800" lon="-8.7853000">
        <ele>9.3</ele>
        <time>2021-05-17T06:09:13Z</time>
      </trkpt>
      <trkpt lat="41.4182970" lon="-8.7853010">
        <ele>9.3</ele>
        <time>2021-05-17T06:09:14Z</time>
      </trkpt>
      <trkpt lat="41.4183120" lon="-8.7852870">
        <ele>9.3</ele>
        <time>2021-05-17T06:09:15Z</time>
      </trkpt>
      <trkpt lat="41.4183270" lon="-8.7852870">
        <ele>9.3</ele>
        <time>2021-05-17T06:09:17Z</time>
      </trkpt>
      <trkpt lat="41.4183390" lon="-8.7852780">
        <ele>9.3</ele>
        <time>2021-05-17T06:09:18Z</time>
      </trkpt>
      <trkpt lat="41.4183550" lon="-8.7852740">
        <ele>9.3</ele>
        <time>2021-05-17T06:09:19Z</time>
      </trkpt>
      <trkpt lat="41.4183710" lon="-8.7852700">
        <ele>9.3</ele>
        <time>2021-05-17T06:09:20Z</time>
      </trkpt>
      <trkpt lat="41.4183850" lon="-8.7852600">
        <ele>9.3</ele>
        <time>2021-05-17T06:09:21Z</time>
      </trkpt>
      <trkpt lat="41.4183990" lon="-8.7852490">
        <ele>9.3</ele>
        <time>2021-05-17T06:09:22Z</time>
      </trkpt>
      <trkpt lat="41.4184140" lon="-8.7852430">
        <ele>9.3</ele>
        <time>2021-05-17T06:09:23Z</time>
      </trkpt>
      <trkpt lat="41.4184300" lon="-8.7852390">
        <ele>9.3</ele>
        <time>2021-05-17T06:09:24Z</time>
      </trkpt>
      <trkpt lat="41.4184440" lon="-8.7852320">
        <ele>9.3</ele>
        <time>2021-05-17T06:09:25Z</time>
      </trkpt>
      <trkpt lat="41.4184580" lon="-8.7852270">
        <ele>9.3</ele>
        <time>2021-05-17T06:09:26Z</time>
      </trkpt>
      <trkpt lat="41.4184740" lon="-8.7852160">
        <ele>9.3</ele>
        <time>2021-05-17T06:09:27Z</time>
      </trkpt>
      <trkpt lat="41.4184890" lon="-8.7852110">
        <ele>9.3</ele>
        <time>2021-05-17T06:09:28Z</time>
      </trkpt>
      <trkpt lat="41.4185070" lon="-8.7852090">
        <ele>9.3</ele>
        <time>2021-05-17T06:09:29Z</time>
      </trkpt>
      <trkpt lat="41.4185230" lon="-8.7852080">
        <ele>9.3</ele>
        <time>2021-05-17T06:09:30Z</time>
      </trkpt>
      <trkpt lat="41.4185390" lon="-8.7852020">
        <ele>9.3</ele>
        <time>2021-05-17T06:09:31Z</time>
      </trkpt>
      <trkpt lat="41.4185530" lon="-8.7851990">
        <ele>9.3</ele>
        <time>2021-05-17T06:09:32Z</time>
      </trkpt>
      <trkpt lat="41.4185670" lon="-8.7851910">
        <ele>9.3</ele>
        <time>2021-05-17T06:09:33Z</time>
      </trkpt>
      <trkpt lat="41.4185840" lon="-8.7851910">
        <ele>9.3</ele>
        <time>2021-05-17T06:09:34Z</time>
      </trkpt>
      <trkpt lat="41.4185990" lon="-8.7851780">
        <ele>9.4</ele>
        <time>2021-05-17T06:09:35Z</time>
      </trkpt>
      <trkpt lat="41.4186140" lon="-8.7851730">
        <ele>9.4</ele>
        <time>2021-05-17T06:09:36Z</time>
      </trkpt>
      <trkpt lat="41.4186300" lon="-8.7851680">
        <ele>9.4</ele>
        <time>2021-05-17T06:09:37Z</time>
      </trkpt>
      <trkpt lat="41.4186450" lon="-8.7851650">
        <ele>9.4</ele>
        <time>2021-05-17T06:09:38Z</time>
      </trkpt>
      <trkpt lat="41.4186600" lon="-8.7851630">
        <ele>9.4</ele>
        <time>2021-05-17T06:09:39Z</time>
      </trkpt>
      <trkpt lat="41.4186730" lon="-8.7851500">
        <ele>9.4</ele>
        <time>2021-05-17T06:09:40Z</time>
      </trkpt>
      <trkpt lat="41.4186890" lon="-8.7851490">
        <ele>9.4</ele>
        <time>2021-05-17T06:09:41Z</time>
      </trkpt>
      <trkpt lat="41.4187010" lon="-8.7851410">
        <ele>9.4</ele>
        <time>2021-05-17T06:09:42Z</time>
      </trkpt>
      <trkpt lat="41.4186910" lon="-8.7851070">
        <ele>9.4</ele>
        <time>2021-05-17T06:09:43Z</time>
      </trkpt>
      <trkpt lat="41.4186780" lon="-8.7850670">
        <ele>9.5</ele>
        <time>2021-05-17T06:09:44Z</time>
      </trkpt>
      <trkpt lat="41.4186740" lon="-8.7850560">
        <ele>9.5</ele>
        <time>2021-05-17T06:09:45Z</time>
      </trkpt>
      <trkpt lat="41.4186640" lon="-8.7850190">
        <ele>9.5</ele>
        <time>2021-05-17T06:09:46Z</time>
      </trkpt>
      <trkpt lat="41.4186590" lon="-8.7850080">
        <ele>9.5</ele>
        <time>2021-05-17T06:09:47Z</time>
      </trkpt>
      <trkpt lat="41.4186550" lon="-8.7849880">
        <ele>9.5</ele>
        <time>2021-05-17T06:09:48Z</time>
      </trkpt>
      <trkpt lat="41.4186500" lon="-8.7849680">
        <ele>9.5</ele>
        <time>2021-05-17T06:09:49Z</time>
      </trkpt>
      <trkpt lat="41.4186510" lon="-8.7849450">
        <ele>9.5</ele>
        <time>2021-05-17T06:09:50Z</time>
      </trkpt>
      <trkpt lat="41.4186490" lon="-8.7849240">
        <ele>9.5</ele>
        <time>2021-05-17T06:09:51Z</time>
      </trkpt>
      <trkpt lat="41.4186480" lon="-8.7849020">
        <ele>9.5</ele>
        <time>2021-05-17T06:09:52Z</time>
      </trkpt>
      <trkpt lat="41.4186470" lon="-8.7848800">
        <ele>9.5</ele>
        <time>2021-05-17T06:09:53Z</time>
      </trkpt>
      <trkpt lat="41.4186390" lon="-8.7848560">
        <ele>9.5</ele>
        <time>2021-05-17T06:09:54Z</time>
      </trkpt>
      <trkpt lat="41.4186470" lon="-8.7848350">
        <ele>9.6</ele>
        <time>2021-05-17T06:09:55Z</time>
      </trkpt>
      <trkpt lat="41.4186470" lon="-8.7848150">
        <ele>9.6</ele>
        <time>2021-05-17T06:09:56Z</time>
      </trkpt>
      <trkpt lat="41.4186450" lon="-8.7847970">
        <ele>9.6</ele>
        <time>2021-05-17T06:09:57Z</time>
      </trkpt>
      <trkpt lat="41.4186570" lon="-8.7847710">
        <ele>9.6</ele>
        <time>2021-05-17T06:09:58Z</time>
      </trkpt>
      <trkpt lat="41.4186660" lon="-8.7847640">
        <ele>9.6</ele>
        <time>2021-05-17T06:09:59Z</time>
      </trkpt>
      <trkpt lat="41.4186740" lon="-8.7847570">
        <ele>9.6</ele>
        <time>2021-05-17T06:10:00Z</time>
      </trkpt>
      <trkpt lat="41.4186910" lon="-8.7847510">
        <ele>9.6</ele>
        <time>2021-05-17T06:10:01Z</time>
      </trkpt>
      <trkpt lat="41.4187050" lon="-8.7847440">
        <ele>9.7</ele>
        <time>2021-05-17T06:10:02Z</time>
      </trkpt>
      <trkpt lat="41.4187190" lon="-8.7847340">
        <ele>9.7</ele>
        <time>2021-05-17T06:10:03Z</time>
      </trkpt>
      <trkpt lat="41.4187320" lon="-8.7847190">
        <ele>9.7</ele>
        <time>2021-05-17T06:10:04Z</time>
      </trkpt>
      <trkpt lat="41.4187580" lon="-8.7847000">
        <ele>9.7</ele>
        <time>2021-05-17T06:10:05Z</time>
      </trkpt>
      <trkpt lat="41.4187670" lon="-8.7846940">
        <ele>9.7</ele>
        <time>2021-05-17T06:10:06Z</time>
      </trkpt>
      <trkpt lat="41.4187870" lon="-8.7846920">
        <ele>9.7</ele>
        <time>2021-05-17T06:10:07Z</time>
      </trkpt>
      <trkpt lat="41.4188030" lon="-8.7846880">
        <ele>9.7</ele>
        <time>2021-05-17T06:10:08Z</time>
      </trkpt>
      <trkpt lat="41.4188300" lon="-8.7846890">
        <ele>9.7</ele>
        <time>2021-05-17T06:10:09Z</time>
      </trkpt>
      <trkpt lat="41.4188400" lon="-8.7846910">
        <ele>9.7</ele>
        <time>2021-05-17T06:10:10Z</time>
      </trkpt>
      <trkpt lat="41.4188580" lon="-8.7846950">
        <ele>9.7</ele>
        <time>2021-05-17T06:10:11Z</time>
      </trkpt>
      <trkpt lat="41.4188740" lon="-8.7846890">
        <ele>9.7</ele>
        <time>2021-05-17T06:10:12Z</time>
      </trkpt>
      <trkpt lat="41.4188900" lon="-8.7846940">
        <ele>9.6</ele>
        <time>2021-05-17T06:10:13Z</time>
      </trkpt>
      <trkpt lat="41.4189050" lon="-8.7846910">
        <ele>9.6</ele>
        <time>2021-05-17T06:10:14Z</time>
      </trkpt>
      <trkpt lat="41.4189210" lon="-8.7846870">
        <ele>9.6</ele>
        <time>2021-05-17T06:10:15Z</time>
      </trkpt>
      <trkpt lat="41.4189380" lon="-8.7846800">
        <ele>9.6</ele>
        <time>2021-05-17T06:10:16Z</time>
      </trkpt>
      <trkpt lat="41.4189510" lon="-8.7846770">
        <ele>9.6</ele>
        <time>2021-05-17T06:10:17Z</time>
      </trkpt>
      <trkpt lat="41.4189680" lon="-8.7846740">
        <ele>9.6</ele>
        <time>2021-05-17T06:10:18Z</time>
      </trkpt>
      <trkpt lat="41.4189830" lon="-8.7846710">
        <ele>9.6</ele>
        <time>2021-05-17T06:10:19Z</time>
      </trkpt>
      <trkpt lat="41.4190000" lon="-8.7846750">
        <ele>9.6</ele>
        <time>2021-05-17T06:10:20Z</time>
      </trkpt>
      <trkpt lat="41.4190160" lon="-8.7846760">
        <ele>9.6</ele>
        <time>2021-05-17T06:10:21Z</time>
      </trkpt>
      <trkpt lat="41.4190300" lon="-8.7846700">
        <ele>9.7</ele>
        <time>2021-05-17T06:10:22Z</time>
      </trkpt>
      <trkpt lat="41.4190430" lon="-8.7846570">
        <ele>9.7</ele>
        <time>2021-05-17T06:10:23Z</time>
      </trkpt>
      <trkpt lat="41.4190600" lon="-8.7846620">
        <ele>9.7</ele>
        <time>2021-05-17T06:10:24Z</time>
      </trkpt>
      <trkpt lat="41.4190750" lon="-8.7846530">
        <ele>9.7</ele>
        <time>2021-05-17T06:10:25Z</time>
      </trkpt>
      <trkpt lat="41.4190900" lon="-8.7846420">
        <ele>9.7</ele>
        <time>2021-05-17T06:10:26Z</time>
      </trkpt>
      <trkpt lat="41.4191060" lon="-8.7846390">
        <ele>9.7</ele>
        <time>2021-05-17T06:10:27Z</time>
      </trkpt>
      <trkpt lat="41.4191210" lon="-8.7846380">
        <ele>9.7</ele>
        <time>2021-05-17T06:10:28Z</time>
      </trkpt>
      <trkpt lat="41.4191360" lon="-8.7846310">
        <ele>9.7</ele>
        <time>2021-05-17T06:10:29Z</time>
      </trkpt>
      <trkpt lat="41.4191520" lon="-8.7846290">
        <ele>9.7</ele>
        <time>2021-05-17T06:10:30Z</time>
      </trkpt>
      <trkpt lat="41.4191660" lon="-8.7846300">
        <ele>9.7</ele>
        <time>2021-05-17T06:10:31Z</time>
      </trkpt>
      <trkpt lat="41.4191810" lon="-8.7846310">
        <ele>9.7</ele>
        <time>2021-05-17T06:10:32Z</time>
      </trkpt>
      <trkpt lat="41.4191970" lon="-8.7846420">
        <ele>9.7</ele>
        <time>2021-05-17T06:10:33Z</time>
      </trkpt>
      <trkpt lat="41.4192130" lon="-8.7846350">
        <ele>9.7</ele>
        <time>2021-05-17T06:10:34Z</time>
      </trkpt>
      <trkpt lat="41.4192270" lon="-8.7846400">
        <ele>9.7</ele>
        <time>2021-05-17T06:10:35Z</time>
      </trkpt>
      <trkpt lat="41.4192430" lon="-8.7846330">
        <ele>9.7</ele>
        <time>2021-05-17T06:10:36Z</time>
      </trkpt>
      <trkpt lat="41.4192570" lon="-8.7846340">
        <ele>9.7</ele>
        <time>2021-05-17T06:10:37Z</time>
      </trkpt>
      <trkpt lat="41.4192720" lon="-8.7846270">
        <ele>9.8</ele>
        <time>2021-05-17T06:10:38Z</time>
      </trkpt>
      <trkpt lat="41.4192870" lon="-8.7846210">
        <ele>9.8</ele>
        <time>2021-05-17T06:10:39Z</time>
      </trkpt>
      <trkpt lat="41.4193000" lon="-8.7846210">
        <ele>9.8</ele>
        <time>2021-05-17T06:10:40Z</time>
      </trkpt>
      <trkpt lat="41.4193220" lon="-8.7846200">
        <ele>9.8</ele>
        <time>2021-05-17T06:10:41Z</time>
      </trkpt>
      <trkpt lat="41.4193320" lon="-8.7846210">
        <ele>9.8</ele>
        <time>2021-05-17T06:10:42Z</time>
      </trkpt>
      <trkpt lat="41.4193410" lon="-8.7846210">
        <ele>9.8</ele>
        <time>2021-05-17T06:10:43Z</time>
      </trkpt>
      <trkpt lat="41.4193560" lon="-8.7846150">
        <ele>9.8</ele>
        <time>2021-05-17T06:10:44Z</time>
      </trkpt>
      <trkpt lat="41.4193700" lon="-8.7846150">
        <ele>9.8</ele>
        <time>2021-05-17T06:10:45Z</time>
      </trkpt>
      <trkpt lat="41.4193910" lon="-8.7846140">
        <ele>9.8</ele>
        <time>2021-05-17T06:10:46Z</time>
      </trkpt>
      <trkpt lat="41.4194000" lon="-8.7846120">
        <ele>9.8</ele>
        <time>2021-05-17T06:10:47Z</time>
      </trkpt>
      <trkpt lat="41.4194090" lon="-8.7846110">
        <ele>9.8</ele>
        <time>2021-05-17T06:10:48Z</time>
      </trkpt>
      <trkpt lat="41.4194260" lon="-8.7846090">
        <ele>9.8</ele>
        <time>2021-05-17T06:10:49Z</time>
      </trkpt>
      <trkpt lat="41.4194420" lon="-8.7846070">
        <ele>9.8</ele>
        <time>2021-05-17T06:10:50Z</time>
      </trkpt>
      <trkpt lat="41.4194550" lon="-8.7846040">
        <ele>9.8</ele>
        <time>2021-05-17T06:10:51Z</time>
      </trkpt>
      <trkpt lat="41.4194710" lon="-8.7846070">
        <ele>9.8</ele>
        <time>2021-05-17T06:10:52Z</time>
      </trkpt>
      <trkpt lat="41.4194860" lon="-8.7845990">
        <ele>9.8</ele>
        <time>2021-05-17T06:10:53Z</time>
      </trkpt>
      <trkpt lat="41.4195000" lon="-8.7845970">
        <ele>9.8</ele>
        <time>2021-05-17T06:10:54Z</time>
      </trkpt>
      <trkpt lat="41.4195160" lon="-8.7845880">
        <ele>9.8</ele>
        <time>2021-05-17T06:10:55Z</time>
      </trkpt>
      <trkpt lat="41.4195320" lon="-8.7845870">
        <ele>9.8</ele>
        <time>2021-05-17T06:10:56Z</time>
      </trkpt>
      <trkpt lat="41.4195470" lon="-8.7845880">
        <ele>9.8</ele>
        <time>2021-05-17T06:10:57Z</time>
      </trkpt>
      <trkpt lat="41.4195610" lon="-8.7845800">
        <ele>9.8</ele>
        <time>2021-05-17T06:10:58Z</time>
      </trkpt>
      <trkpt lat="41.4195760" lon="-8.7845820">
        <ele>9.8</ele>
        <time>2021-05-17T06:10:59Z</time>
      </trkpt>
      <trkpt lat="41.4195920" lon="-8.7845760">
        <ele>9.8</ele>
        <time>2021-05-17T06:11:00Z</time>
      </trkpt>
      <trkpt lat="41.4196050" lon="-8.7845800">
        <ele>9.7</ele>
        <time>2021-05-17T06:11:01Z</time>
      </trkpt>
      <trkpt lat="41.4196220" lon="-8.7845770">
        <ele>9.7</ele>
        <time>2021-05-17T06:11:02Z</time>
      </trkpt>
      <trkpt lat="41.4196380" lon="-8.7845710">
        <ele>9.7</ele>
        <time>2021-05-17T06:11:03Z</time>
      </trkpt>
      <trkpt lat="41.4196500" lon="-8.7845720">
        <ele>9.7</ele>
        <time>2021-05-17T06:11:04Z</time>
      </trkpt>
      <trkpt lat="41.4196660" lon="-8.7845660">
        <ele>9.7</ele>
        <time>2021-05-17T06:11:05Z</time>
      </trkpt>
      <trkpt lat="41.4196810" lon="-8.7845580">
        <ele>9.7</ele>
        <time>2021-05-17T06:11:06Z</time>
      </trkpt>
      <trkpt lat="41.4197020" lon="-8.7845490">
        <ele>9.7</ele>
        <time>2021-05-17T06:11:07Z</time>
      </trkpt>
      <trkpt lat="41.4197110" lon="-8.7845450">
        <ele>9.7</ele>
        <time>2021-05-17T06:11:08Z</time>
      </trkpt>
      <trkpt lat="41.4197190" lon="-8.7845420">
        <ele>9.7</ele>
        <time>2021-05-17T06:11:09Z</time>
      </trkpt>
      <trkpt lat="41.4197340" lon="-8.7845400">
        <ele>9.7</ele>
        <time>2021-05-17T06:11:10Z</time>
      </trkpt>
      <trkpt lat="41.4197480" lon="-8.7845430">
        <ele>9.6</ele>
        <time>2021-05-17T06:11:11Z</time>
      </trkpt>
      <trkpt lat="41.4197620" lon="-8.7845350">
        <ele>9.6</ele>
        <time>2021-05-17T06:11:12Z</time>
      </trkpt>
      <trkpt lat="41.4197730" lon="-8.7845280">
        <ele>9.6</ele>
        <time>2021-05-17T06:11:13Z</time>
      </trkpt>
      <trkpt lat="41.4197900" lon="-8.7845270">
        <ele>9.6</ele>
        <time>2021-05-17T06:11:14Z</time>
      </trkpt>
      <trkpt lat="41.4198040" lon="-8.7845290">
        <ele>9.6</ele>
        <time>2021-05-17T06:11:15Z</time>
      </trkpt>
      <trkpt lat="41.4198200" lon="-8.7845290">
        <ele>9.6</ele>
        <time>2021-05-17T06:11:16Z</time>
      </trkpt>
      <trkpt lat="41.4198350" lon="-8.7845240">
        <ele>9.6</ele>
        <time>2021-05-17T06:11:17Z</time>
      </trkpt>
      <trkpt lat="41.4198490" lon="-8.7845150">
        <ele>9.6</ele>
        <time>2021-05-17T06:11:18Z</time>
      </trkpt>
      <trkpt lat="41.4198660" lon="-8.7845140">
        <ele>9.5</ele>
        <time>2021-05-17T06:11:19Z</time>
      </trkpt>
      <trkpt lat="41.4198800" lon="-8.7845160">
        <ele>9.5</ele>
        <time>2021-05-17T06:11:20Z</time>
      </trkpt>
      <trkpt lat="41.4198940" lon="-8.7845130">
        <ele>9.5</ele>
        <time>2021-05-17T06:11:21Z</time>
      </trkpt>
      <trkpt lat="41.4199110" lon="-8.7845090">
        <ele>9.5</ele>
        <time>2021-05-17T06:11:22Z</time>
      </trkpt>
      <trkpt lat="41.4199240" lon="-8.7845020">
        <ele>9.5</ele>
        <time>2021-05-17T06:11:23Z</time>
      </trkpt>
      <trkpt lat="41.4199380" lon="-8.7844980">
        <ele>9.4</ele>
        <time>2021-05-17T06:11:24Z</time>
      </trkpt>
      <trkpt lat="41.4199540" lon="-8.7844980">
        <ele>9.4</ele>
        <time>2021-05-17T06:11:25Z</time>
      </trkpt>
      <trkpt lat="41.4199680" lon="-8.7844880">
        <ele>9.4</ele>
        <time>2021-05-17T06:11:26Z</time>
      </trkpt>
      <trkpt lat="41.4199830" lon="-8.7844940">
        <ele>9.4</ele>
        <time>2021-05-17T06:11:27Z</time>
      </trkpt>
      <trkpt lat="41.4199960" lon="-8.7845070">
        <ele>9.4</ele>
        <time>2021-05-17T06:11:28Z</time>
      </trkpt>
      <trkpt lat="41.4200110" lon="-8.7845020">
        <ele>9.3</ele>
        <time>2021-05-17T06:11:29Z</time>
      </trkpt>
      <trkpt lat="41.4200260" lon="-8.7844930">
        <ele>9.3</ele>
        <time>2021-05-17T06:11:30Z</time>
      </trkpt>
      <trkpt lat="41.4200390" lon="-8.7844910">
        <ele>9.3</ele>
        <time>2021-05-17T06:11:31Z</time>
      </trkpt>
      <trkpt lat="41.4200540" lon="-8.7844860">
        <ele>9.3</ele>
        <time>2021-05-17T06:11:32Z</time>
      </trkpt>
      <trkpt lat="41.4200680" lon="-8.7844810">
        <ele>9.3</ele>
        <time>2021-05-17T06:11:33Z</time>
      </trkpt>
      <trkpt lat="41.4200820" lon="-8.7844770">
        <ele>9.2</ele>
        <time>2021-05-17T06:11:34Z</time>
      </trkpt>
      <trkpt lat="41.4200960" lon="-8.7844750">
        <ele>9.2</ele>
        <time>2021-05-17T06:11:35Z</time>
      </trkpt>
      <trkpt lat="41.4201110" lon="-8.7844700">
        <ele>9.2</ele>
        <time>2021-05-17T06:11:36Z</time>
      </trkpt>
      <trkpt lat="41.4201260" lon="-8.7844670">
        <ele>9.2</ele>
        <time>2021-05-17T06:11:37Z</time>
      </trkpt>
      <trkpt lat="41.4201400" lon="-8.7844630">
        <ele>9.2</ele>
        <time>2021-05-17T06:11:38Z</time>
      </trkpt>
      <trkpt lat="41.4201550" lon="-8.7844590">
        <ele>9.2</ele>
        <time>2021-05-17T06:11:39Z</time>
      </trkpt>
      <trkpt lat="41.4201700" lon="-8.7844570">
        <ele>9.1</ele>
        <time>2021-05-17T06:11:40Z</time>
      </trkpt>
      <trkpt lat="41.4201850" lon="-8.7844550">
        <ele>9.1</ele>
        <time>2021-05-17T06:11:41Z</time>
      </trkpt>
      <trkpt lat="41.4202000" lon="-8.7844470">
        <ele>9.1</ele>
        <time>2021-05-17T06:11:42Z</time>
      </trkpt>
      <trkpt lat="41.4202160" lon="-8.7844410">
        <ele>9.1</ele>
        <time>2021-05-17T06:11:43Z</time>
      </trkpt>
      <trkpt lat="41.4202290" lon="-8.7844390">
        <ele>9.1</ele>
        <time>2021-05-17T06:11:44Z</time>
      </trkpt>
      <trkpt lat="41.4202440" lon="-8.7844430">
        <ele>9.1</ele>
        <time>2021-05-17T06:11:45Z</time>
      </trkpt>
      <trkpt lat="41.4202560" lon="-8.7844310">
        <ele>9.1</ele>
        <time>2021-05-17T06:11:46Z</time>
      </trkpt>
      <trkpt lat="41.4202710" lon="-8.7844290">
        <ele>9.1</ele>
        <time>2021-05-17T06:11:47Z</time>
      </trkpt>
      <trkpt lat="41.4202930" lon="-8.7844270">
        <ele>9.1</ele>
        <time>2021-05-17T06:11:48Z</time>
      </trkpt>
      <trkpt lat="41.4203010" lon="-8.7844290">
        <ele>9.0</ele>
        <time>2021-05-17T06:11:49Z</time>
      </trkpt>
      <trkpt lat="41.4203100" lon="-8.7844300">
        <ele>9.0</ele>
        <time>2021-05-17T06:11:50Z</time>
      </trkpt>
      <trkpt lat="41.4203230" lon="-8.7844230">
        <ele>9.0</ele>
        <time>2021-05-17T06:11:51Z</time>
      </trkpt>
      <trkpt lat="41.4203360" lon="-8.7844150">
        <ele>9.0</ele>
        <time>2021-05-17T06:11:52Z</time>
      </trkpt>
      <trkpt lat="41.4203570" lon="-8.7844070">
        <ele>9.0</ele>
        <time>2021-05-17T06:11:53Z</time>
      </trkpt>
      <trkpt lat="41.4203650" lon="-8.7844040">
        <ele>9.0</ele>
        <time>2021-05-17T06:11:54Z</time>
      </trkpt>
      <trkpt lat="41.4203730" lon="-8.7844020">
        <ele>9.0</ele>
        <time>2021-05-17T06:11:55Z</time>
      </trkpt>
      <trkpt lat="41.4203880" lon="-8.7844010">
        <ele>9.0</ele>
        <time>2021-05-17T06:11:56Z</time>
      </trkpt>
      <trkpt lat="41.4204030" lon="-8.7844020">
        <ele>9.0</ele>
        <time>2021-05-17T06:11:57Z</time>
      </trkpt>
      <trkpt lat="41.4204170" lon="-8.7843980">
        <ele>9.0</ele>
        <time>2021-05-17T06:11:58Z</time>
      </trkpt>
      <trkpt lat="41.4204350" lon="-8.7843930">
        <ele>9.0</ele>
        <time>2021-05-17T06:11:59Z</time>
      </trkpt>
      <trkpt lat="41.4204490" lon="-8.7843850">
        <ele>8.9</ele>
        <time>2021-05-17T06:12:00Z</time>
      </trkpt>
      <trkpt lat="41.4204660" lon="-8.7843850">
        <ele>8.9</ele>
        <time>2021-05-17T06:12:01Z</time>
      </trkpt>
      <trkpt lat="41.4204820" lon="-8.7843810">
        <ele>8.9</ele>
        <time>2021-05-17T06:12:02Z</time>
      </trkpt>
      <trkpt lat="41.4204970" lon="-8.7843750">
        <ele>8.9</ele>
        <time>2021-05-17T06:12:03Z</time>
      </trkpt>
      <trkpt lat="41.4205180" lon="-8.7843660">
        <ele>8.9</ele>
        <time>2021-05-17T06:12:04Z</time>
      </trkpt>
      <trkpt lat="41.4205280" lon="-8.7843630">
        <ele>8.9</ele>
        <time>2021-05-17T06:12:05Z</time>
      </trkpt>
      <trkpt lat="41.4205370" lon="-8.7843610">
        <ele>8.9</ele>
        <time>2021-05-17T06:12:06Z</time>
      </trkpt>
      <trkpt lat="41.4205520" lon="-8.7843580">
        <ele>8.9</ele>
        <time>2021-05-17T06:12:07Z</time>
      </trkpt>
      <trkpt lat="41.4205670" lon="-8.7843540">
        <ele>8.9</ele>
        <time>2021-05-17T06:12:08Z</time>
      </trkpt>
      <trkpt lat="41.4205830" lon="-8.7843540">
        <ele>8.9</ele>
        <time>2021-05-17T06:12:09Z</time>
      </trkpt>
      <trkpt lat="41.4205970" lon="-8.7843460">
        <ele>8.9</ele>
        <time>2021-05-17T06:12:10Z</time>
      </trkpt>
      <trkpt lat="41.4206120" lon="-8.7843360">
        <ele>8.9</ele>
        <time>2021-05-17T06:12:11Z</time>
      </trkpt>
      <trkpt lat="41.4206280" lon="-8.7843350">
        <ele>8.9</ele>
        <time>2021-05-17T06:12:12Z</time>
      </trkpt>
      <trkpt lat="41.4206410" lon="-8.7843280">
        <ele>8.9</ele>
        <time>2021-05-17T06:12:13Z</time>
      </trkpt>
      <trkpt lat="41.4206560" lon="-8.7843270">
        <ele>8.8</ele>
        <time>2021-05-17T06:12:14Z</time>
      </trkpt>
      <trkpt lat="41.4206700" lon="-8.7843310">
        <ele>8.8</ele>
        <time>2021-05-17T06:12:15Z</time>
      </trkpt>
      <trkpt lat="41.4206850" lon="-8.7843260">
        <ele>8.8</ele>
        <time>2021-05-17T06:12:16Z</time>
      </trkpt>
      <trkpt lat="41.4207000" lon="-8.7843270">
        <ele>8.8</ele>
        <time>2021-05-17T06:12:17Z</time>
      </trkpt>
      <trkpt lat="41.4207160" lon="-8.7843260">
        <ele>8.8</ele>
        <time>2021-05-17T06:12:18Z</time>
      </trkpt>
      <trkpt lat="41.4207290" lon="-8.7843310">
        <ele>8.8</ele>
        <time>2021-05-17T06:12:19Z</time>
      </trkpt>
      <trkpt lat="41.4207440" lon="-8.7843350">
        <ele>8.8</ele>
        <time>2021-05-17T06:12:20Z</time>
      </trkpt>
      <trkpt lat="41.4207600" lon="-8.7843380">
        <ele>8.8</ele>
        <time>2021-05-17T06:12:21Z</time>
      </trkpt>
      <trkpt lat="41.4207740" lon="-8.7843430">
        <ele>8.8</ele>
        <time>2021-05-17T06:12:22Z</time>
      </trkpt>
      <trkpt lat="41.4207890" lon="-8.7843410">
        <ele>8.8</ele>
        <time>2021-05-17T06:12:23Z</time>
      </trkpt>
      <trkpt lat="41.4208050" lon="-8.7843440">
        <ele>8.8</ele>
        <time>2021-05-17T06:12:24Z</time>
      </trkpt>
      <trkpt lat="41.4208270" lon="-8.7843480">
        <ele>8.8</ele>
        <time>2021-05-17T06:12:25Z</time>
      </trkpt>
      <trkpt lat="41.4208350" lon="-8.7843500">
        <ele>8.8</ele>
        <time>2021-05-17T06:12:26Z</time>
      </trkpt>
      <trkpt lat="41.4208440" lon="-8.7843510">
        <ele>8.8</ele>
        <time>2021-05-17T06:12:27Z</time>
      </trkpt>
      <trkpt lat="41.4208590" lon="-8.7843510">
        <ele>8.9</ele>
        <time>2021-05-17T06:12:28Z</time>
      </trkpt>
      <trkpt lat="41.4208760" lon="-8.7843500">
        <ele>8.9</ele>
        <time>2021-05-17T06:12:29Z</time>
      </trkpt>
      <trkpt lat="41.4208900" lon="-8.7843540">
        <ele>8.9</ele>
        <time>2021-05-17T06:12:30Z</time>
      </trkpt>
      <trkpt lat="41.4209050" lon="-8.7843530">
        <ele>8.9</ele>
        <time>2021-05-17T06:12:31Z</time>
      </trkpt>
      <trkpt lat="41.4209200" lon="-8.7843530">
        <ele>8.9</ele>
        <time>2021-05-17T06:12:32Z</time>
      </trkpt>
      <trkpt lat="41.4209340" lon="-8.7843560">
        <ele>8.9</ele>
        <time>2021-05-17T06:12:33Z</time>
      </trkpt>
      <trkpt lat="41.4209500" lon="-8.7843570">
        <ele>8.9</ele>
        <time>2021-05-17T06:12:34Z</time>
      </trkpt>
      <trkpt lat="41.4209650" lon="-8.7843600">
        <ele>8.9</ele>
        <time>2021-05-17T06:12:35Z</time>
      </trkpt>
      <trkpt lat="41.4209790" lon="-8.7843690">
        <ele>8.9</ele>
        <time>2021-05-17T06:12:36Z</time>
      </trkpt>
      <trkpt lat="41.4209960" lon="-8.7843570">
        <ele>8.9</ele>
        <time>2021-05-17T06:12:37Z</time>
      </trkpt>
      <trkpt lat="41.4210130" lon="-8.7843640">
        <ele>8.9</ele>
        <time>2021-05-17T06:12:38Z</time>
      </trkpt>
      <trkpt lat="41.4210240" lon="-8.7843700">
        <ele>8.9</ele>
        <time>2021-05-17T06:12:39Z</time>
      </trkpt>
      <trkpt lat="41.4210420" lon="-8.7843710">
        <ele>9.0</ele>
        <time>2021-05-17T06:12:40Z</time>
      </trkpt>
      <trkpt lat="41.4210560" lon="-8.7843680">
        <ele>9.0</ele>
        <time>2021-05-17T06:12:41Z</time>
      </trkpt>
      <trkpt lat="41.4210720" lon="-8.7843640">
        <ele>9.0</ele>
        <time>2021-05-17T06:12:42Z</time>
      </trkpt>
      <trkpt lat="41.4210860" lon="-8.7843620">
        <ele>9.0</ele>
        <time>2021-05-17T06:12:43Z</time>
      </trkpt>
      <trkpt lat="41.4211030" lon="-8.7843620">
        <ele>9.1</ele>
        <time>2021-05-17T06:12:44Z</time>
      </trkpt>
      <trkpt lat="41.4211170" lon="-8.7843640">
        <ele>9.1</ele>
        <time>2021-05-17T06:12:45Z</time>
      </trkpt>
      <trkpt lat="41.4211310" lon="-8.7843680">
        <ele>9.1</ele>
        <time>2021-05-17T06:12:46Z</time>
      </trkpt>
      <trkpt lat="41.4211470" lon="-8.7843730">
        <ele>9.1</ele>
        <time>2021-05-17T06:12:47Z</time>
      </trkpt>
      <trkpt lat="41.4211630" lon="-8.7843710">
        <ele>9.2</ele>
        <time>2021-05-17T06:12:48Z</time>
      </trkpt>
      <trkpt lat="41.4211780" lon="-8.7843730">
        <ele>9.2</ele>
        <time>2021-05-17T06:12:49Z</time>
      </trkpt>
      <trkpt lat="41.4211930" lon="-8.7843710">
        <ele>9.2</ele>
        <time>2021-05-17T06:12:50Z</time>
      </trkpt>
      <trkpt lat="41.4212090" lon="-8.7843770">
        <ele>9.2</ele>
        <time>2021-05-17T06:12:51Z</time>
      </trkpt>
      <trkpt lat="41.4212210" lon="-8.7843800">
        <ele>9.2</ele>
        <time>2021-05-17T06:12:52Z</time>
      </trkpt>
      <trkpt lat="41.4212360" lon="-8.7843870">
        <ele>9.3</ele>
        <time>2021-05-17T06:12:53Z</time>
      </trkpt>
      <trkpt lat="41.4212520" lon="-8.7843830">
        <ele>9.3</ele>
        <time>2021-05-17T06:12:54Z</time>
      </trkpt>
      <trkpt lat="41.4212660" lon="-8.7843820">
        <ele>9.3</ele>
        <time>2021-05-17T06:12:55Z</time>
      </trkpt>
      <trkpt lat="41.4212870" lon="-8.7843850">
        <ele>9.4</ele>
        <time>2021-05-17T06:12:56Z</time>
      </trkpt>
      <trkpt lat="41.4212970" lon="-8.7843850">
        <ele>9.4</ele>
        <time>2021-05-17T06:12:57Z</time>
      </trkpt>
      <trkpt lat="41.4213070" lon="-8.7843860">
        <ele>9.4</ele>
        <time>2021-05-17T06:12:58Z</time>
      </trkpt>
      <trkpt lat="41.4213200" lon="-8.7843850">
        <ele>9.4</ele>
        <time>2021-05-17T06:12:59Z</time>
      </trkpt>
      <trkpt lat="41.4213360" lon="-8.7843920">
        <ele>9.4</ele>
        <time>2021-05-17T06:13:00Z</time>
      </trkpt>
      <trkpt lat="41.4213500" lon="-8.7843910">
        <ele>9.5</ele>
        <time>2021-05-17T06:13:01Z</time>
      </trkpt>
      <trkpt lat="41.4213650" lon="-8.7843890">
        <ele>9.5</ele>
        <time>2021-05-17T06:13:02Z</time>
      </trkpt>
      <trkpt lat="41.4213790" lon="-8.7843840">
        <ele>9.5</ele>
        <time>2021-05-17T06:13:03Z</time>
      </trkpt>
      <trkpt lat="41.4213930" lon="-8.7843830">
        <ele>9.5</ele>
        <time>2021-05-17T06:13:04Z</time>
      </trkpt>
      <trkpt lat="41.4214090" lon="-8.7843810">
        <ele>9.5</ele>
        <time>2021-05-17T06:13:05Z</time>
      </trkpt>
      <trkpt lat="41.4214240" lon="-8.7843810">
        <ele>9.6</ele>
        <time>2021-05-17T06:13:06Z</time>
      </trkpt>
      <trkpt lat="41.4214380" lon="-8.7843800">
        <ele>9.6</ele>
        <time>2021-05-17T06:13:07Z</time>
      </trkpt>
      <trkpt lat="41.4214550" lon="-8.7843630">
        <ele>9.6</ele>
        <time>2021-05-17T06:13:08Z</time>
      </trkpt>
      <trkpt lat="41.4214690" lon="-8.7843690">
        <ele>9.6</ele>
        <time>2021-05-17T06:13:09Z</time>
      </trkpt>
      <trkpt lat="41.4214830" lon="-8.7843620">
        <ele>9.6</ele>
        <time>2021-05-17T06:13:10Z</time>
      </trkpt>
      <trkpt lat="41.4215010" lon="-8.7843640">
        <ele>9.7</ele>
        <time>2021-05-17T06:13:11Z</time>
      </trkpt>
      <trkpt lat="41.4215140" lon="-8.7843670">
        <ele>9.7</ele>
        <time>2021-05-17T06:13:12Z</time>
      </trkpt>
      <trkpt lat="41.4215300" lon="-8.7843600">
        <ele>9.7</ele>
        <time>2021-05-17T06:13:13Z</time>
      </trkpt>
      <trkpt lat="41.4215450" lon="-8.7843550">
        <ele>9.7</ele>
        <time>2021-05-17T06:13:14Z</time>
      </trkpt>
      <trkpt lat="41.4215600" lon="-8.7843510">
        <ele>9.7</ele>
        <time>2021-05-17T06:13:15Z</time>
      </trkpt>
      <trkpt lat="41.4215740" lon="-8.7843480">
        <ele>9.7</ele>
        <time>2021-05-17T06:13:16Z</time>
      </trkpt>
      <trkpt lat="41.4215900" lon="-8.7843430">
        <ele>9.8</ele>
        <time>2021-05-17T06:13:17Z</time>
      </trkpt>
      <trkpt lat="41.4216030" lon="-8.7843340">
        <ele>9.8</ele>
        <time>2021-05-17T06:13:18Z</time>
      </trkpt>
      <trkpt lat="41.4216160" lon="-8.7843320">
        <ele>9.8</ele>
        <time>2021-05-17T06:13:19Z</time>
      </trkpt>
      <trkpt lat="41.4216310" lon="-8.7843270">
        <ele>9.8</ele>
        <time>2021-05-17T06:13:20Z</time>
      </trkpt>
      <trkpt lat="41.4216450" lon="-8.7843230">
        <ele>9.8</ele>
        <time>2021-05-17T06:13:21Z</time>
      </trkpt>
      <trkpt lat="41.4216590" lon="-8.7843270">
        <ele>9.9</ele>
        <time>2021-05-17T06:13:22Z</time>
      </trkpt>
      <trkpt lat="41.4216730" lon="-8.7843280">
        <ele>9.9</ele>
        <time>2021-05-17T06:13:23Z</time>
      </trkpt>
      <trkpt lat="41.4216900" lon="-8.7843190">
        <ele>9.9</ele>
        <time>2021-05-17T06:13:24Z</time>
      </trkpt>
      <trkpt lat="41.4217020" lon="-8.7843220">
        <ele>9.9</ele>
        <time>2021-05-17T06:13:25Z</time>
      </trkpt>
      <trkpt lat="41.4217170" lon="-8.7843230">
        <ele>9.9</ele>
        <time>2021-05-17T06:13:26Z</time>
      </trkpt>
      <trkpt lat="41.4217300" lon="-8.7843180">
        <ele>9.9</ele>
        <time>2021-05-17T06:13:27Z</time>
      </trkpt>
      <trkpt lat="41.4217450" lon="-8.7843090">
        <ele>9.9</ele>
        <time>2021-05-17T06:13:28Z</time>
      </trkpt>
      <trkpt lat="41.4217580" lon="-8.7843090">
        <ele>9.9</ele>
        <time>2021-05-17T06:13:29Z</time>
      </trkpt>
      <trkpt lat="41.4217710" lon="-8.7843000">
        <ele>9.9</ele>
        <time>2021-05-17T06:13:30Z</time>
      </trkpt>
      <trkpt lat="41.4217860" lon="-8.7842990">
        <ele>9.9</ele>
        <time>2021-05-17T06:13:31Z</time>
      </trkpt>
      <trkpt lat="41.4218000" lon="-8.7842980">
        <ele>9.9</ele>
        <time>2021-05-17T06:13:32Z</time>
      </trkpt>
      <trkpt lat="41.4218140" lon="-8.7842920">
        <ele>10.0</ele>
        <time>2021-05-17T06:13:33Z</time>
      </trkpt>
      <trkpt lat="41.4218280" lon="-8.7842900">
        <ele>10.0</ele>
        <time>2021-05-17T06:13:34Z</time>
      </trkpt>
      <trkpt lat="41.4218420" lon="-8.7842880">
        <ele>10.0</ele>
        <time>2021-05-17T06:13:35Z</time>
      </trkpt>
      <trkpt lat="41.4218570" lon="-8.7842910">
        <ele>10.0</ele>
        <time>2021-05-17T06:13:36Z</time>
      </trkpt>
      <trkpt lat="41.4218710" lon="-8.7842890">
        <ele>10.0</ele>
        <time>2021-05-17T06:13:37Z</time>
      </trkpt>
      <trkpt lat="41.4218840" lon="-8.7842810">
        <ele>10.0</ele>
        <time>2021-05-17T06:13:38Z</time>
      </trkpt>
      <trkpt lat="41.4218990" lon="-8.7842820">
        <ele>10.0</ele>
        <time>2021-05-17T06:13:39Z</time>
      </trkpt>
      <trkpt lat="41.4219130" lon="-8.7842830">
        <ele>10.0</ele>
        <time>2021-05-17T06:13:40Z</time>
      </trkpt>
      <trkpt lat="41.4219280" lon="-8.7842870">
        <ele>10.0</ele>
        <time>2021-05-17T06:13:41Z</time>
      </trkpt>
      <trkpt lat="41.4219420" lon="-8.7842800">
        <ele>10.0</ele>
        <time>2021-05-17T06:13:42Z</time>
      </trkpt>
      <trkpt lat="41.4219560" lon="-8.7842870">
        <ele>10.0</ele>
        <time>2021-05-17T06:13:43Z</time>
      </trkpt>
      <trkpt lat="41.4219710" lon="-8.7842740">
        <ele>10.0</ele>
        <time>2021-05-17T06:13:44Z</time>
      </trkpt>
      <trkpt lat="41.4219850" lon="-8.7842610">
        <ele>10.0</ele>
        <time>2021-05-17T06:13:45Z</time>
      </trkpt>
      <trkpt lat="41.4219930" lon="-8.7842460">
        <ele>10.0</ele>
        <time>2021-05-17T06:13:46Z</time>
      </trkpt>
      <trkpt lat="41.4219950" lon="-8.7842290">
        <ele>10.0</ele>
        <time>2021-05-17T06:13:47Z</time>
      </trkpt>
      <trkpt lat="41.4219790" lon="-8.7842020">
        <ele>10.0</ele>
        <time>2021-05-17T06:13:48Z</time>
      </trkpt>
      <trkpt lat="41.4219700" lon="-8.7841850">
        <ele>10.0</ele>
        <time>2021-05-17T06:13:49Z</time>
      </trkpt>
      <trkpt lat="41.4219780" lon="-8.7841810">
        <ele>10.0</ele>
        <time>2021-05-17T06:13:50Z</time>
      </trkpt>
      <trkpt lat="41.4219860" lon="-8.7841780">
        <ele>10.0</ele>
        <time>2021-05-17T06:13:51Z</time>
      </trkpt>
      <trkpt lat="41.4219940" lon="-8.7841740">
        <ele>10.0</ele>
        <time>2021-05-17T06:13:52Z</time>
      </trkpt>
      <trkpt lat="41.4220020" lon="-8.7841710">
        <ele>10.1</ele>
        <time>2021-05-17T06:13:53Z</time>
      </trkpt>
      <trkpt lat="41.4220100" lon="-8.7841670">
        <ele>10.1</ele>
        <time>2021-05-17T06:13:54Z</time>
      </trkpt>
      <trkpt lat="41.4220370" lon="-8.7841560">
        <ele>10.1</ele>
        <time>2021-05-17T06:13:55Z</time>
      </trkpt>
      <trkpt lat="41.4220460" lon="-8.7841520">
        <ele>10.1</ele>
        <time>2021-05-17T06:13:56Z</time>
      </trkpt>
      <trkpt lat="41.4220590" lon="-8.7841380">
        <ele>10.1</ele>
        <time>2021-05-17T06:13:57Z</time>
      </trkpt>
      <trkpt lat="41.4220770" lon="-8.7841360">
        <ele>10.1</ele>
        <time>2021-05-17T06:13:58Z</time>
      </trkpt>
      <trkpt lat="41.4220920" lon="-8.7841320">
        <ele>10.1</ele>
        <time>2021-05-17T06:13:59Z</time>
      </trkpt>
      <trkpt lat="41.4221090" lon="-8.7841380">
        <ele>10.1</ele>
        <time>2021-05-17T06:14:00Z</time>
      </trkpt>
      <trkpt lat="41.4221210" lon="-8.7841590">
        <ele>10.1</ele>
        <time>2021-05-17T06:14:01Z</time>
      </trkpt>
      <trkpt lat="41.4221240" lon="-8.7841760">
        <ele>10.1</ele>
        <time>2021-05-17T06:14:02Z</time>
      </trkpt>
      <trkpt lat="41.4221200" lon="-8.7841970">
        <ele>10.1</ele>
        <time>2021-05-17T06:14:03Z</time>
      </trkpt>
      <trkpt lat="41.4221220" lon="-8.7842170">
        <ele>10.1</ele>
        <time>2021-05-17T06:14:04Z</time>
      </trkpt>
      <trkpt lat="41.4221210" lon="-8.7842390">
        <ele>10.1</ele>
        <time>2021-05-17T06:14:05Z</time>
      </trkpt>
      <trkpt lat="41.4221260" lon="-8.7842550">
        <ele>10.1</ele>
        <time>2021-05-17T06:14:06Z</time>
      </trkpt>
      <trkpt lat="41.4221360" lon="-8.7842630">
        <ele>10.1</ele>
        <time>2021-05-17T06:14:07Z</time>
      </trkpt>
      <trkpt lat="41.4221540" lon="-8.7842450">
        <ele>10.1</ele>
        <time>2021-05-17T06:14:08Z</time>
      </trkpt>
      <trkpt lat="41.4221710" lon="-8.7842400">
        <ele>10.1</ele>
        <time>2021-05-17T06:14:09Z</time>
      </trkpt>
      <trkpt lat="41.4221860" lon="-8.7842350">
        <ele>10.1</ele>
        <time>2021-05-17T06:14:10Z</time>
      </trkpt>
      <trkpt lat="41.4222150" lon="-8.7842210">
        <ele>10.1</ele>
        <time>2021-05-17T06:14:11Z</time>
      </trkpt>
      <trkpt lat="41.4222220" lon="-8.7842180">
        <ele>10.1</ele>
        <time>2021-05-17T06:14:12Z</time>
      </trkpt>
      <trkpt lat="41.4222400" lon="-8.7842170">
        <ele>10.1</ele>
        <time>2021-05-17T06:14:13Z</time>
      </trkpt>
      <trkpt lat="41.4222550" lon="-8.7842100">
        <ele>10.1</ele>
        <time>2021-05-17T06:14:14Z</time>
      </trkpt>
      <trkpt lat="41.4222720" lon="-8.7842110">
        <ele>10.1</ele>
        <time>2021-05-17T06:14:15Z</time>
      </trkpt>
      <trkpt lat="41.4222870" lon="-8.7842030">
        <ele>10.1</ele>
        <time>2021-05-17T06:14:16Z</time>
      </trkpt>
      <trkpt lat="41.4223040" lon="-8.7842000">
        <ele>10.1</ele>
        <time>2021-05-17T06:14:17Z</time>
      </trkpt>
      <trkpt lat="41.4223190" lon="-8.7842010">
        <ele>10.2</ele>
        <time>2021-05-17T06:14:18Z</time>
      </trkpt>
      <trkpt lat="41.4223350" lon="-8.7841960">
        <ele>10.2</ele>
        <time>2021-05-17T06:14:19Z</time>
      </trkpt>
      <trkpt lat="41.4223490" lon="-8.7841900">
        <ele>10.2</ele>
        <time>2021-05-17T06:14:20Z</time>
      </trkpt>
      <trkpt lat="41.4223650" lon="-8.7841860">
        <ele>10.2</ele>
        <time>2021-05-17T06:14:21Z</time>
      </trkpt>
      <trkpt lat="41.4223810" lon="-8.7841850">
        <ele>10.2</ele>
        <time>2021-05-17T06:14:22Z</time>
      </trkpt>
      <trkpt lat="41.4223950" lon="-8.7841790">
        <ele>10.2</ele>
        <time>2021-05-17T06:14:23Z</time>
      </trkpt>
      <trkpt lat="41.4224100" lon="-8.7841790">
        <ele>10.2</ele>
        <time>2021-05-17T06:14:24Z</time>
      </trkpt>
      <trkpt lat="41.4224260" lon="-8.7841760">
        <ele>10.2</ele>
        <time>2021-05-17T06:14:25Z</time>
      </trkpt>
      <trkpt lat="41.4224390" lon="-8.7841680">
        <ele>10.3</ele>
        <time>2021-05-17T06:14:26Z</time>
      </trkpt>
      <trkpt lat="41.4224540" lon="-8.7841600">
        <ele>10.3</ele>
        <time>2021-05-17T06:14:27Z</time>
      </trkpt>
      <trkpt lat="41.4224690" lon="-8.7841560">
        <ele>10.3</ele>
        <time>2021-05-17T06:14:28Z</time>
      </trkpt>
      <trkpt lat="41.4224850" lon="-8.7841560">
        <ele>10.3</ele>
        <time>2021-05-17T06:14:29Z</time>
      </trkpt>
      <trkpt lat="41.4225010" lon="-8.7841490">
        <ele>10.3</ele>
        <time>2021-05-17T06:14:30Z</time>
      </trkpt>
      <trkpt lat="41.4225170" lon="-8.7841520">
        <ele>10.3</ele>
        <time>2021-05-17T06:14:31Z</time>
      </trkpt>
      <trkpt lat="41.4225300" lon="-8.7841490">
        <ele>10.3</ele>
        <time>2021-05-17T06:14:32Z</time>
      </trkpt>
      <trkpt lat="41.4225460" lon="-8.7841470">
        <ele>10.3</ele>
        <time>2021-05-17T06:14:33Z</time>
      </trkpt>
      <trkpt lat="41.4225610" lon="-8.7841410">
        <ele>10.3</ele>
        <time>2021-05-17T06:14:34Z</time>
      </trkpt>
      <trkpt lat="41.4225750" lon="-8.7841350">
        <ele>10.3</ele>
        <time>2021-05-17T06:14:35Z</time>
      </trkpt>
      <trkpt lat="41.4225890" lon="-8.7841300">
        <ele>10.3</ele>
        <time>2021-05-17T06:14:36Z</time>
      </trkpt>
      <trkpt lat="41.4226040" lon="-8.7841260">
        <ele>10.3</ele>
        <time>2021-05-17T06:14:37Z</time>
      </trkpt>
      <trkpt lat="41.4226170" lon="-8.7841190">
        <ele>10.3</ele>
        <time>2021-05-17T06:14:38Z</time>
      </trkpt>
      <trkpt lat="41.4226310" lon="-8.7841140">
        <ele>10.3</ele>
        <time>2021-05-17T06:14:39Z</time>
      </trkpt>
      <trkpt lat="41.4226460" lon="-8.7841190">
        <ele>10.3</ele>
        <time>2021-05-17T06:14:40Z</time>
      </trkpt>
      <trkpt lat="41.4226610" lon="-8.7841220">
        <ele>10.3</ele>
        <time>2021-05-17T06:14:41Z</time>
      </trkpt>
      <trkpt lat="41.4226760" lon="-8.7841260">
        <ele>10.3</ele>
        <time>2021-05-17T06:14:42Z</time>
      </trkpt>
      <trkpt lat="41.4226890" lon="-8.7841150">
        <ele>10.3</ele>
        <time>2021-05-17T06:14:43Z</time>
      </trkpt>
      <trkpt lat="41.4227060" lon="-8.7841160">
        <ele>10.3</ele>
        <time>2021-05-17T06:14:44Z</time>
      </trkpt>
      <trkpt lat="41.4227190" lon="-8.7841110">
        <ele>10.3</ele>
        <time>2021-05-17T06:14:45Z</time>
      </trkpt>
      <trkpt lat="41.4227330" lon="-8.7841010">
        <ele>10.3</ele>
        <time>2021-05-17T06:14:46Z</time>
      </trkpt>
      <trkpt lat="41.4227480" lon="-8.7841000">
        <ele>10.3</ele>
        <time>2021-05-17T06:14:47Z</time>
      </trkpt>
      <trkpt lat="41.4227610" lon="-8.7840920">
        <ele>10.3</ele>
        <time>2021-05-17T06:14:48Z</time>
      </trkpt>
      <trkpt lat="41.4227760" lon="-8.7840930">
        <ele>10.3</ele>
        <time>2021-05-17T06:14:49Z</time>
      </trkpt>
      <trkpt lat="41.4227900" lon="-8.7840890">
        <ele>10.3</ele>
        <time>2021-05-17T06:14:50Z</time>
      </trkpt>
      <trkpt lat="41.4228070" lon="-8.7840900">
        <ele>10.3</ele>
        <time>2021-05-17T06:14:51Z</time>
      </trkpt>
      <trkpt lat="41.4228210" lon="-8.7840760">
        <ele>10.3</ele>
        <time>2021-05-17T06:14:52Z</time>
      </trkpt>
      <trkpt lat="41.4228370" lon="-8.7840730">
        <ele>10.3</ele>
        <time>2021-05-17T06:14:53Z</time>
      </trkpt>
      <trkpt lat="41.4228510" lon="-8.7840690">
        <ele>10.2</ele>
        <time>2021-05-17T06:14:54Z</time>
      </trkpt>
      <trkpt lat="41.4228650" lon="-8.7840720">
        <ele>10.2</ele>
        <time>2021-05-17T06:14:55Z</time>
      </trkpt>
      <trkpt lat="41.4228770" lon="-8.7840590">
        <ele>10.2</ele>
        <time>2021-05-17T06:14:56Z</time>
      </trkpt>
      <trkpt lat="41.4228930" lon="-8.7840590">
        <ele>10.2</ele>
        <time>2021-05-17T06:14:57Z</time>
      </trkpt>
      <trkpt lat="41.4229070" lon="-8.7840580">
        <ele>10.2</ele>
        <time>2021-05-17T06:14:58Z</time>
      </trkpt>
      <trkpt lat="41.4229210" lon="-8.7840630">
        <ele>10.2</ele>
        <time>2021-05-17T06:14:59Z</time>
      </trkpt>
      <trkpt lat="41.4229350" lon="-8.7840550">
        <ele>10.2</ele>
        <time>2021-05-17T06:15:00Z</time>
      </trkpt>
      <trkpt lat="41.4229490" lon="-8.7840490">
        <ele>10.2</ele>
        <time>2021-05-17T06:15:01Z</time>
      </trkpt>
      <trkpt lat="41.4229630" lon="-8.7840400">
        <ele>10.2</ele>
        <time>2021-05-17T06:15:02Z</time>
      </trkpt>
      <trkpt lat="41.4229860" lon="-8.7840380">
        <ele>10.2</ele>
        <time>2021-05-17T06:15:03Z</time>
      </trkpt>
      <trkpt lat="41.4229950" lon="-8.7840360">
        <ele>10.2</ele>
        <time>2021-05-17T06:15:04Z</time>
      </trkpt>
      <trkpt lat="41.4230040" lon="-8.7840340">
        <ele>10.2</ele>
        <time>2021-05-17T06:15:05Z</time>
      </trkpt>
      <trkpt lat="41.4230190" lon="-8.7840290">
        <ele>10.2</ele>
        <time>2021-05-17T06:15:06Z</time>
      </trkpt>
      <trkpt lat="41.4230330" lon="-8.7840290">
        <ele>10.2</ele>
        <time>2021-05-17T06:15:07Z</time>
      </trkpt>
      <trkpt lat="41.4230470" lon="-8.7840250">
        <ele>10.2</ele>
        <time>2021-05-17T06:15:08Z</time>
      </trkpt>
      <trkpt lat="41.4230610" lon="-8.7840170">
        <ele>10.1</ele>
        <time>2021-05-17T06:15:09Z</time>
      </trkpt>
      <trkpt lat="41.4230760" lon="-8.7840210">
        <ele>10.1</ele>
        <time>2021-05-17T06:15:10Z</time>
      </trkpt>
      <trkpt lat="41.4230910" lon="-8.7840170">
        <ele>10.1</ele>
        <time>2021-05-17T06:15:11Z</time>
      </trkpt>
      <trkpt lat="41.4231070" lon="-8.7840190">
        <ele>10.1</ele>
        <time>2021-05-17T06:15:12Z</time>
      </trkpt>
      <trkpt lat="41.4231200" lon="-8.7840140">
        <ele>10.1</ele>
        <time>2021-05-17T06:15:13Z</time>
      </trkpt>
      <trkpt lat="41.4231340" lon="-8.7840170">
        <ele>10.1</ele>
        <time>2021-05-17T06:15:14Z</time>
      </trkpt>
      <trkpt lat="41.4231470" lon="-8.7840140">
        <ele>10.1</ele>
        <time>2021-05-17T06:15:15Z</time>
      </trkpt>
      <trkpt lat="41.4231630" lon="-8.7840110">
        <ele>10.1</ele>
        <time>2021-05-17T06:15:16Z</time>
      </trkpt>
      <trkpt lat="41.4231750" lon="-8.7840060">
        <ele>10.1</ele>
        <time>2021-05-17T06:15:17Z</time>
      </trkpt>
      <trkpt lat="41.4231920" lon="-8.7839990">
        <ele>10.1</ele>
        <time>2021-05-17T06:15:18Z</time>
      </trkpt>
      <trkpt lat="41.4231990" lon="-8.7839970">
        <ele>10.1</ele>
        <time>2021-05-17T06:15:19Z</time>
      </trkpt>
      <trkpt lat="41.4232050" lon="-8.7839940">
        <ele>10.1</ele>
        <time>2021-05-17T06:15:20Z</time>
      </trkpt>
      <trkpt lat="41.4232110" lon="-8.7839920">
        <ele>10.1</ele>
        <time>2021-05-17T06:15:21Z</time>
      </trkpt>
      <trkpt lat="41.4232350" lon="-8.7839830">
        <ele>10.0</ele>
        <time>2021-05-17T06:15:22Z</time>
      </trkpt>
      <trkpt lat="41.4232420" lon="-8.7839800">
        <ele>10.0</ele>
        <time>2021-05-17T06:15:23Z</time>
      </trkpt>
      <trkpt lat="41.4232500" lon="-8.7839760">
        <ele>10.0</ele>
        <time>2021-05-17T06:15:24Z</time>
      </trkpt>
      <trkpt lat="41.4232640" lon="-8.7839740">
        <ele>10.0</ele>
        <time>2021-05-17T06:15:25Z</time>
      </trkpt>
      <trkpt lat="41.4232820" lon="-8.7839730">
        <ele>10.0</ele>
        <time>2021-05-17T06:15:26Z</time>
      </trkpt>
      <trkpt lat="41.4232980" lon="-8.7839760">
        <ele>10.0</ele>
        <time>2021-05-17T06:15:27Z</time>
      </trkpt>
      <trkpt lat="41.4233120" lon="-8.7839660">
        <ele>10.0</ele>
        <time>2021-05-17T06:15:28Z</time>
      </trkpt>
      <trkpt lat="41.4233280" lon="-8.7839640">
        <ele>10.0</ele>
        <time>2021-05-17T06:15:29Z</time>
      </trkpt>
      <trkpt lat="41.4233400" lon="-8.7839560">
        <ele>10.0</ele>
        <time>2021-05-17T06:15:30Z</time>
      </trkpt>
      <trkpt lat="41.4233580" lon="-8.7839570">
        <ele>10.0</ele>
        <time>2021-05-17T06:15:31Z</time>
      </trkpt>
      <trkpt lat="41.4233720" lon="-8.7839530">
        <ele>9.9</ele>
        <time>2021-05-17T06:15:32Z</time>
      </trkpt>
      <trkpt lat="41.4233860" lon="-8.7839430">
        <ele>9.9</ele>
        <time>2021-05-17T06:15:33Z</time>
      </trkpt>
      <trkpt lat="41.4234010" lon="-8.7839390">
        <ele>9.9</ele>
        <time>2021-05-17T06:15:34Z</time>
      </trkpt>
      <trkpt lat="41.4234190" lon="-8.7839400">
        <ele>9.9</ele>
        <time>2021-05-17T06:15:35Z</time>
      </trkpt>
      <trkpt lat="41.4234340" lon="-8.7839360">
        <ele>9.9</ele>
        <time>2021-05-17T06:15:36Z</time>
      </trkpt>
      <trkpt lat="41.4234500" lon="-8.7839340">
        <ele>9.9</ele>
        <time>2021-05-17T06:15:37Z</time>
      </trkpt>
      <trkpt lat="41.4234670" lon="-8.7839360">
        <ele>9.9</ele>
        <time>2021-05-17T06:15:38Z</time>
      </trkpt>
      <trkpt lat="41.4234810" lon="-8.7839160">
        <ele>9.9</ele>
        <time>2021-05-17T06:15:39Z</time>
      </trkpt>
      <trkpt lat="41.4234970" lon="-8.7839180">
        <ele>9.8</ele>
        <time>2021-05-17T06:15:40Z</time>
      </trkpt>
      <trkpt lat="41.4235110" lon="-8.7839130">
        <ele>9.8</ele>
        <time>2021-05-17T06:15:41Z</time>
      </trkpt>
      <trkpt lat="41.4235260" lon="-8.7839120">
        <ele>9.8</ele>
        <time>2021-05-17T06:15:42Z</time>
      </trkpt>
      <trkpt lat="41.4235420" lon="-8.7839080">
        <ele>9.8</ele>
        <time>2021-05-17T06:15:43Z</time>
      </trkpt>
      <trkpt lat="41.4235580" lon="-8.7839030">
        <ele>9.8</ele>
        <time>2021-05-17T06:15:44Z</time>
      </trkpt>
      <trkpt lat="41.4235740" lon="-8.7838930">
        <ele>9.8</ele>
        <time>2021-05-17T06:15:45Z</time>
      </trkpt>
      <trkpt lat="41.4235890" lon="-8.7838890">
        <ele>9.8</ele>
        <time>2021-05-17T06:15:46Z</time>
      </trkpt>
      <trkpt lat="41.4236030" lon="-8.7838800">
        <ele>9.8</ele>
        <time>2021-05-17T06:15:47Z</time>
      </trkpt>
      <trkpt lat="41.4236190" lon="-8.7838790">
        <ele>9.8</ele>
        <time>2021-05-17T06:15:48Z</time>
      </trkpt>
      <trkpt lat="41.4236330" lon="-8.7838720">
        <ele>9.7</ele>
        <time>2021-05-17T06:15:49Z</time>
      </trkpt>
      <trkpt lat="41.4236470" lon="-8.7838630">
        <ele>9.7</ele>
        <time>2021-05-17T06:15:50Z</time>
      </trkpt>
      <trkpt lat="41.4236610" lon="-8.7838580">
        <ele>9.7</ele>
        <time>2021-05-17T06:15:51Z</time>
      </trkpt>
      <trkpt lat="41.4236770" lon="-8.7838540">
        <ele>9.7</ele>
        <time>2021-05-17T06:15:52Z</time>
      </trkpt>
      <trkpt lat="41.4236920" lon="-8.7838550">
        <ele>9.7</ele>
        <time>2021-05-17T06:15:53Z</time>
      </trkpt>
      <trkpt lat="41.4237060" lon="-8.7838460">
        <ele>9.7</ele>
        <time>2021-05-17T06:15:54Z</time>
      </trkpt>
      <trkpt lat="41.4237170" lon="-8.7838350">
        <ele>9.7</ele>
        <time>2021-05-17T06:15:55Z</time>
      </trkpt>
      <trkpt lat="41.4237320" lon="-8.7838250">
        <ele>9.7</ele>
        <time>2021-05-17T06:15:56Z</time>
      </trkpt>
      <trkpt lat="41.4237490" lon="-8.7838270">
        <ele>9.7</ele>
        <time>2021-05-17T06:15:57Z</time>
      </trkpt>
      <trkpt lat="41.4237620" lon="-8.7838230">
        <ele>9.6</ele>
        <time>2021-05-17T06:15:58Z</time>
      </trkpt>
      <trkpt lat="41.4237770" lon="-8.7838180">
        <ele>9.6</ele>
        <time>2021-05-17T06:15:59Z</time>
      </trkpt>
      <trkpt lat="41.4237900" lon="-8.7838180">
        <ele>9.6</ele>
        <time>2021-05-17T06:16:00Z</time>
      </trkpt>
      <trkpt lat="41.4238040" lon="-8.7838150">
        <ele>9.6</ele>
        <time>2021-05-17T06:16:01Z</time>
      </trkpt>
      <trkpt lat="41.4238190" lon="-8.7838100">
        <ele>9.6</ele>
        <time>2021-05-17T06:16:02Z</time>
      </trkpt>
      <trkpt lat="41.4238330" lon="-8.7837990">
        <ele>9.6</ele>
        <time>2021-05-17T06:16:03Z</time>
      </trkpt>
      <trkpt lat="41.4238480" lon="-8.7837950">
        <ele>9.6</ele>
        <time>2021-05-17T06:16:04Z</time>
      </trkpt>
      <trkpt lat="41.4238620" lon="-8.7837870">
        <ele>9.5</ele>
        <time>2021-05-17T06:16:05Z</time>
      </trkpt>
      <trkpt lat="41.4238780" lon="-8.7837860">
        <ele>9.5</ele>
        <time>2021-05-17T06:16:06Z</time>
      </trkpt>
      <trkpt lat="41.4238920" lon="-8.7837780">
        <ele>9.5</ele>
        <time>2021-05-17T06:16:07Z</time>
      </trkpt>
      <trkpt lat="41.4239060" lon="-8.7837730">
        <ele>9.5</ele>
        <time>2021-05-17T06:16:08Z</time>
      </trkpt>
      <trkpt lat="41.4239230" lon="-8.7837750">
        <ele>9.5</ele>
        <time>2021-05-17T06:16:09Z</time>
      </trkpt>
      <trkpt lat="41.4239370" lon="-8.7837730">
        <ele>9.5</ele>
        <time>2021-05-17T06:16:10Z</time>
      </trkpt>
      <trkpt lat="41.4239520" lon="-8.7837750">
        <ele>9.5</ele>
        <time>2021-05-17T06:16:11Z</time>
      </trkpt>
      <trkpt lat="41.4239660" lon="-8.7837670">
        <ele>9.5</ele>
        <time>2021-05-17T06:16:12Z</time>
      </trkpt>
      <trkpt lat="41.4239800" lon="-8.7837640">
        <ele>9.5</ele>
        <time>2021-05-17T06:16:13Z</time>
      </trkpt>
      <trkpt lat="41.4239960" lon="-8.7837580">
        <ele>9.5</ele>
        <time>2021-05-17T06:16:14Z</time>
      </trkpt>
      <trkpt lat="41.4240090" lon="-8.7837500">
        <ele>9.5</ele>
        <time>2021-05-17T06:16:15Z</time>
      </trkpt>
      <trkpt lat="41.4240220" lon="-8.7837420">
        <ele>9.4</ele>
        <time>2021-05-17T06:16:16Z</time>
      </trkpt>
      <trkpt lat="41.4240370" lon="-8.7837420">
        <ele>9.4</ele>
        <time>2021-05-17T06:16:17Z</time>
      </trkpt>
      <trkpt lat="41.4240510" lon="-8.7837320">
        <ele>9.4</ele>
        <time>2021-05-17T06:16:18Z</time>
      </trkpt>
      <trkpt lat="41.4240640" lon="-8.7837330">
        <ele>9.4</ele>
        <time>2021-05-17T06:16:19Z</time>
      </trkpt>
      <trkpt lat="41.4240790" lon="-8.7837250">
        <ele>9.4</ele>
        <time>2021-05-17T06:16:20Z</time>
      </trkpt>
      <trkpt lat="41.4240920" lon="-8.7837210">
        <ele>9.4</ele>
        <time>2021-05-17T06:16:21Z</time>
      </trkpt>
      <trkpt lat="41.4241030" lon="-8.7837190">
        <ele>9.4</ele>
        <time>2021-05-17T06:16:22Z</time>
      </trkpt>
      <trkpt lat="41.4241150" lon="-8.7837180">
        <ele>9.4</ele>
        <time>2021-05-17T06:16:23Z</time>
      </trkpt>
      <trkpt lat="41.4241250" lon="-8.7837020">
        <ele>9.4</ele>
        <time>2021-05-17T06:16:24Z</time>
      </trkpt>
      <trkpt lat="41.4241410" lon="-8.7837020">
        <ele>9.4</ele>
        <time>2021-05-17T06:16:25Z</time>
      </trkpt>
      <trkpt lat="41.4241550" lon="-8.7837000">
        <ele>9.4</ele>
        <time>2021-05-17T06:16:26Z</time>
      </trkpt>
      <trkpt lat="41.4241710" lon="-8.7836930">
        <ele>9.4</ele>
        <time>2021-05-17T06:16:27Z</time>
      </trkpt>
      <trkpt lat="41.4241840" lon="-8.7836810">
        <ele>9.4</ele>
        <time>2021-05-17T06:16:28Z</time>
      </trkpt>
      <trkpt lat="41.4241980" lon="-8.7836730">
        <ele>9.4</ele>
        <time>2021-05-17T06:16:29Z</time>
      </trkpt>
      <trkpt lat="41.4242140" lon="-8.7836680">
        <ele>9.4</ele>
        <time>2021-05-17T06:16:30Z</time>
      </trkpt>
      <trkpt lat="41.4242260" lon="-8.7836560">
        <ele>9.4</ele>
        <time>2021-05-17T06:16:31Z</time>
      </trkpt>
      <trkpt lat="41.4242400" lon="-8.7836550">
        <ele>9.4</ele>
        <time>2021-05-17T06:16:32Z</time>
      </trkpt>
      <trkpt lat="41.4242540" lon="-8.7836580">
        <ele>9.4</ele>
        <time>2021-05-17T06:16:33Z</time>
      </trkpt>
      <trkpt lat="41.4242760" lon="-8.7836550">
        <ele>9.4</ele>
        <time>2021-05-17T06:16:34Z</time>
      </trkpt>
      <trkpt lat="41.4242850" lon="-8.7836550">
        <ele>9.4</ele>
        <time>2021-05-17T06:16:35Z</time>
      </trkpt>
      <trkpt lat="41.4242950" lon="-8.7836560">
        <ele>9.5</ele>
        <time>2021-05-17T06:16:36Z</time>
      </trkpt>
      <trkpt lat="41.4243100" lon="-8.7836550">
        <ele>9.5</ele>
        <time>2021-05-17T06:16:37Z</time>
      </trkpt>
      <trkpt lat="41.4243230" lon="-8.7836500">
        <ele>9.5</ele>
        <time>2021-05-17T06:16:38Z</time>
      </trkpt>
      <trkpt lat="41.4243370" lon="-8.7836400">
        <ele>9.5</ele>
        <time>2021-05-17T06:16:39Z</time>
      </trkpt>
      <trkpt lat="41.4243500" lon="-8.7836370">
        <ele>9.5</ele>
        <time>2021-05-17T06:16:40Z</time>
      </trkpt>
      <trkpt lat="41.4243640" lon="-8.7836320">
        <ele>9.5</ele>
        <time>2021-05-17T06:16:41Z</time>
      </trkpt>
      <trkpt lat="41.4243780" lon="-8.7836310">
        <ele>9.5</ele>
        <time>2021-05-17T06:16:42Z</time>
      </trkpt>
      <trkpt lat="41.4243900" lon="-8.7836250">
        <ele>9.5</ele>
        <time>2021-05-17T06:16:43Z</time>
      </trkpt>
      <trkpt lat="41.4244020" lon="-8.7836130">
        <ele>9.6</ele>
        <time>2021-05-17T06:16:44Z</time>
      </trkpt>
      <trkpt lat="41.4244120" lon="-8.7835950">
        <ele>9.6</ele>
        <time>2021-05-17T06:16:45Z</time>
      </trkpt>
      <trkpt lat="41.4244260" lon="-8.7835890">
        <ele>9.6</ele>
        <time>2021-05-17T06:16:46Z</time>
      </trkpt>
      <trkpt lat="41.4244390" lon="-8.7835760">
        <ele>9.6</ele>
        <time>2021-05-17T06:16:47Z</time>
      </trkpt>
      <trkpt lat="41.4244520" lon="-8.7835690">
        <ele>9.6</ele>
        <time>2021-05-17T06:16:48Z</time>
      </trkpt>
      <trkpt lat="41.4244650" lon="-8.7835600">
        <ele>9.6</ele>
        <time>2021-05-17T06:16:49Z</time>
      </trkpt>
      <trkpt lat="41.4244770" lon="-8.7835510">
        <ele>9.7</ele>
        <time>2021-05-17T06:16:50Z</time>
      </trkpt>
      <trkpt lat="41.4244890" lon="-8.7835430">
        <ele>9.7</ele>
        <time>2021-05-17T06:16:51Z</time>
      </trkpt>
      <trkpt lat="41.4245010" lon="-8.7835330">
        <ele>9.7</ele>
        <time>2021-05-17T06:16:52Z</time>
      </trkpt>
      <trkpt lat="41.4245150" lon="-8.7835280">
        <ele>9.7</ele>
        <time>2021-05-17T06:16:53Z</time>
      </trkpt>
      <trkpt lat="41.4245280" lon="-8.7835180">
        <ele>9.7</ele>
        <time>2021-05-17T06:16:54Z</time>
      </trkpt>
      <trkpt lat="41.4245420" lon="-8.7835110">
        <ele>9.7</ele>
        <time>2021-05-17T06:16:55Z</time>
      </trkpt>
      <trkpt lat="41.4245550" lon="-8.7835040">
        <ele>9.7</ele>
        <time>2021-05-17T06:16:56Z</time>
      </trkpt>
      <trkpt lat="41.4245650" lon="-8.7834850">
        <ele>9.8</ele>
        <time>2021-05-17T06:16:57Z</time>
      </trkpt>
      <trkpt lat="41.4245760" lon="-8.7834700">
        <ele>9.8</ele>
        <time>2021-05-17T06:16:58Z</time>
      </trkpt>
      <trkpt lat="41.4245870" lon="-8.7834610">
        <ele>9.8</ele>
        <time>2021-05-17T06:16:59Z</time>
      </trkpt>
      <trkpt lat="41.4246010" lon="-8.7834550">
        <ele>9.8</ele>
        <time>2021-05-17T06:17:00Z</time>
      </trkpt>
      <trkpt lat="41.4246110" lon="-8.7834410">
        <ele>9.8</ele>
        <time>2021-05-17T06:17:01Z</time>
      </trkpt>
      <trkpt lat="41.4246200" lon="-8.7834240">
        <ele>9.8</ele>
        <time>2021-05-17T06:17:02Z</time>
      </trkpt>
      <trkpt lat="41.4246340" lon="-8.7834210">
        <ele>9.9</ele>
        <time>2021-05-17T06:17:03Z</time>
      </trkpt>
      <trkpt lat="41.4246460" lon="-8.7834080">
        <ele>9.9</ele>
        <time>2021-05-17T06:17:04Z</time>
      </trkpt>
      <trkpt lat="41.4246610" lon="-8.7834090">
        <ele>9.9</ele>
        <time>2021-05-17T06:17:05Z</time>
      </trkpt>
      <trkpt lat="41.4246750" lon="-8.7834030">
        <ele>10.0</ele>
        <time>2021-05-17T06:17:06Z</time>
      </trkpt>
      <trkpt lat="41.4246890" lon="-8.7834000">
        <ele>10.0</ele>
        <time>2021-05-17T06:17:07Z</time>
      </trkpt>
      <trkpt lat="41.4247010" lon="-8.7833870">
        <ele>10.0</ele>
        <time>2021-05-17T06:17:08Z</time>
      </trkpt>
      <trkpt lat="41.4247150" lon="-8.7833840">
        <ele>10.0</ele>
        <time>2021-05-17T06:17:09Z</time>
      </trkpt>
      <trkpt lat="41.4247280" lon="-8.7833800">
        <ele>10.0</ele>
        <time>2021-05-17T06:17:10Z</time>
      </trkpt>
      <trkpt lat="41.4247450" lon="-8.7833810">
        <ele>10.0</ele>
        <time>2021-05-17T06:17:11Z</time>
      </trkpt>
      <trkpt lat="41.4247590" lon="-8.7833800">
        <ele>10.0</ele>
        <time>2021-05-17T06:17:12Z</time>
      </trkpt>
      <trkpt lat="41.4247720" lon="-8.7833730">
        <ele>10.0</ele>
        <time>2021-05-17T06:17:13Z</time>
      </trkpt>
      <trkpt lat="41.4247870" lon="-8.7833830">
        <ele>10.1</ele>
        <time>2021-05-17T06:17:14Z</time>
      </trkpt>
      <trkpt lat="41.4248010" lon="-8.7833760">
        <ele>10.1</ele>
        <time>2021-05-17T06:17:15Z</time>
      </trkpt>
      <trkpt lat="41.4248160" lon="-8.7833870">
        <ele>10.1</ele>
        <time>2021-05-17T06:17:16Z</time>
      </trkpt>
      <trkpt lat="41.4248300" lon="-8.7833850">
        <ele>10.1</ele>
        <time>2021-05-17T06:17:17Z</time>
      </trkpt>
      <trkpt lat="41.4248460" lon="-8.7833850">
        <ele>10.1</ele>
        <time>2021-05-17T06:17:18Z</time>
      </trkpt>
      <trkpt lat="41.4248590" lon="-8.7833790">
        <ele>10.1</ele>
        <time>2021-05-17T06:17:19Z</time>
      </trkpt>
      <trkpt lat="41.4248730" lon="-8.7833800">
        <ele>10.1</ele>
        <time>2021-05-17T06:17:20Z</time>
      </trkpt>
      <trkpt lat="41.4248890" lon="-8.7833830">
        <ele>10.1</ele>
        <time>2021-05-17T06:17:21Z</time>
      </trkpt>
      <trkpt lat="41.4249030" lon="-8.7833820">
        <ele>10.2</ele>
        <time>2021-05-17T06:17:22Z</time>
      </trkpt>
      <trkpt lat="41.4249180" lon="-8.7833810">
        <ele>10.2</ele>
        <time>2021-05-17T06:17:23Z</time>
      </trkpt>
      <trkpt lat="41.4249320" lon="-8.7833750">
        <ele>10.2</ele>
        <time>2021-05-17T06:17:24Z</time>
      </trkpt>
      <trkpt lat="41.4249460" lon="-8.7833730">
        <ele>10.2</ele>
        <time>2021-05-17T06:17:25Z</time>
      </trkpt>
      <trkpt lat="41.4249620" lon="-8.7833690">
        <ele>10.2</ele>
        <time>2021-05-17T06:17:26Z</time>
      </trkpt>
      <trkpt lat="41.4249760" lon="-8.7833710">
        <ele>10.2</ele>
        <time>2021-05-17T06:17:27Z</time>
      </trkpt>
      <trkpt lat="41.4249910" lon="-8.7833720">
        <ele>10.2</ele>
        <time>2021-05-17T06:17:28Z</time>
      </trkpt>
      <trkpt lat="41.4250040" lon="-8.7833730">
        <ele>10.2</ele>
        <time>2021-05-17T06:17:29Z</time>
      </trkpt>
      <trkpt lat="41.4250200" lon="-8.7833700">
        <ele>10.3</ele>
        <time>2021-05-17T06:17:30Z</time>
      </trkpt>
      <trkpt lat="41.4250360" lon="-8.7833670">
        <ele>10.3</ele>
        <time>2021-05-17T06:17:31Z</time>
      </trkpt>
      <trkpt lat="41.4250500" lon="-8.7833660">
        <ele>10.3</ele>
        <time>2021-05-17T06:17:32Z</time>
      </trkpt>
      <trkpt lat="41.4250650" lon="-8.7833700">
        <ele>10.3</ele>
        <time>2021-05-17T06:17:33Z</time>
      </trkpt>
      <trkpt lat="41.4250800" lon="-8.7833730">
        <ele>10.3</ele>
        <time>2021-05-17T06:17:34Z</time>
      </trkpt>
      <trkpt lat="41.4250960" lon="-8.7833690">
        <ele>10.3</ele>
        <time>2021-05-17T06:17:35Z</time>
      </trkpt>
      <trkpt lat="41.4251110" lon="-8.7833710">
        <ele>10.3</ele>
        <time>2021-05-17T06:17:36Z</time>
      </trkpt>
      <trkpt lat="41.4251270" lon="-8.7833720">
        <ele>10.3</ele>
        <time>2021-05-17T06:17:37Z</time>
      </trkpt>
      <trkpt lat="41.4251410" lon="-8.7833680">
        <ele>10.4</ele>
        <time>2021-05-17T06:17:38Z</time>
      </trkpt>
      <trkpt lat="41.4251570" lon="-8.7833670">
        <ele>10.4</ele>
        <time>2021-05-17T06:17:39Z</time>
      </trkpt>
      <trkpt lat="41.4251690" lon="-8.7833670">
        <ele>10.4</ele>
        <time>2021-05-17T06:17:40Z</time>
      </trkpt>
      <trkpt lat="41.4251820" lon="-8.7833620">
        <ele>10.4</ele>
        <time>2021-05-17T06:17:41Z</time>
      </trkpt>
      <trkpt lat="41.4251970" lon="-8.7833570">
        <ele>10.4</ele>
        <time>2021-05-17T06:17:42Z</time>
      </trkpt>
      <trkpt lat="41.4252110" lon="-8.7833520">
        <ele>10.4</ele>
        <time>2021-05-17T06:17:43Z</time>
      </trkpt>
      <trkpt lat="41.4252260" lon="-8.7833530">
        <ele>10.4</ele>
        <time>2021-05-17T06:17:44Z</time>
      </trkpt>
      <trkpt lat="41.4252400" lon="-8.7833470">
        <ele>10.4</ele>
        <time>2021-05-17T06:17:45Z</time>
      </trkpt>
      <trkpt lat="41.4252560" lon="-8.7833480">
        <ele>10.4</ele>
        <time>2021-05-17T06:17:46Z</time>
      </trkpt>
      <trkpt lat="41.4252730" lon="-8.7833440">
        <ele>10.4</ele>
        <time>2021-05-17T06:17:47Z</time>
      </trkpt>
      <trkpt lat="41.4252880" lon="-8.7833480">
        <ele>10.4</ele>
        <time>2021-05-17T06:17:48Z</time>
      </trkpt>
      <trkpt lat="41.4253030" lon="-8.7833470">
        <ele>10.4</ele>
        <time>2021-05-17T06:17:49Z</time>
      </trkpt>
      <trkpt lat="41.4253190" lon="-8.7833480">
        <ele>10.5</ele>
        <time>2021-05-17T06:17:50Z</time>
      </trkpt>
      <trkpt lat="41.4253330" lon="-8.7833450">
        <ele>10.5</ele>
        <time>2021-05-17T06:17:51Z</time>
      </trkpt>
      <trkpt lat="41.4253500" lon="-8.7833420">
        <ele>10.5</ele>
        <time>2021-05-17T06:17:52Z</time>
      </trkpt>
      <trkpt lat="41.4253630" lon="-8.7833380">
        <ele>10.5</ele>
        <time>2021-05-17T06:17:53Z</time>
      </trkpt>
      <trkpt lat="41.4253790" lon="-8.7833340">
        <ele>10.5</ele>
        <time>2021-05-17T06:17:54Z</time>
      </trkpt>
      <trkpt lat="41.4254000" lon="-8.7833330">
        <ele>10.5</ele>
        <time>2021-05-17T06:17:55Z</time>
      </trkpt>
      <trkpt lat="41.4254100" lon="-8.7833380">
        <ele>10.5</ele>
        <time>2021-05-17T06:17:56Z</time>
      </trkpt>
      <trkpt lat="41.4254190" lon="-8.7833430">
        <ele>10.5</ele>
        <time>2021-05-17T06:17:57Z</time>
      </trkpt>
      <trkpt lat="41.4254330" lon="-8.7833380">
        <ele>10.5</ele>
        <time>2021-05-17T06:17:58Z</time>
      </trkpt>
      <trkpt lat="41.4254480" lon="-8.7833440">
        <ele>10.5</ele>
        <time>2021-05-17T06:17:59Z</time>
      </trkpt>
      <trkpt lat="41.4254640" lon="-8.7833390">
        <ele>10.5</ele>
        <time>2021-05-17T06:18:00Z</time>
      </trkpt>
      <trkpt lat="41.4254780" lon="-8.7833440">
        <ele>10.5</ele>
        <time>2021-05-17T06:18:01Z</time>
      </trkpt>
      <trkpt lat="41.4254920" lon="-8.7833430">
        <ele>10.5</ele>
        <time>2021-05-17T06:18:02Z</time>
      </trkpt>
      <trkpt lat="41.4255050" lon="-8.7833430">
        <ele>10.4</ele>
        <time>2021-05-17T06:18:03Z</time>
      </trkpt>
      <trkpt lat="41.4255200" lon="-8.7833370">
        <ele>10.4</ele>
        <time>2021-05-17T06:18:04Z</time>
      </trkpt>
      <trkpt lat="41.4255320" lon="-8.7833390">
        <ele>10.4</ele>
        <time>2021-05-17T06:18:05Z</time>
      </trkpt>
      <trkpt lat="41.4255540" lon="-8.7833330">
        <ele>10.4</ele>
        <time>2021-05-17T06:18:06Z</time>
      </trkpt>
      <trkpt lat="41.4255630" lon="-8.7833320">
        <ele>10.4</ele>
        <time>2021-05-17T06:18:07Z</time>
      </trkpt>
      <trkpt lat="41.4255720" lon="-8.7833300">
        <ele>10.4</ele>
        <time>2021-05-17T06:18:08Z</time>
      </trkpt>
      <trkpt lat="41.4255870" lon="-8.7833300">
        <ele>10.4</ele>
        <time>2021-05-17T06:18:09Z</time>
      </trkpt>
      <trkpt lat="41.4256010" lon="-8.7833280">
        <ele>10.4</ele>
        <time>2021-05-17T06:18:10Z</time>
      </trkpt>
      <trkpt lat="41.4256220" lon="-8.7833290">
        <ele>10.3</ele>
        <time>2021-05-17T06:18:11Z</time>
      </trkpt>
      <trkpt lat="41.4256330" lon="-8.7833260">
        <ele>10.3</ele>
        <time>2021-05-17T06:18:12Z</time>
      </trkpt>
      <trkpt lat="41.4256430" lon="-8.7833230">
        <ele>10.3</ele>
        <time>2021-05-17T06:18:13Z</time>
      </trkpt>
      <trkpt lat="41.4256570" lon="-8.7833170">
        <ele>10.3</ele>
        <time>2021-05-17T06:18:14Z</time>
      </trkpt>
      <trkpt lat="41.4256710" lon="-8.7833150">
        <ele>10.3</ele>
        <time>2021-05-17T06:18:15Z</time>
      </trkpt>
      <trkpt lat="41.4256850" lon="-8.7833110">
        <ele>10.3</ele>
        <time>2021-05-17T06:18:16Z</time>
      </trkpt>
      <trkpt lat="41.4257000" lon="-8.7833150">
        <ele>10.2</ele>
        <time>2021-05-17T06:18:17Z</time>
      </trkpt>
      <trkpt lat="41.4257150" lon="-8.7833140">
        <ele>10.2</ele>
        <time>2021-05-17T06:18:18Z</time>
      </trkpt>
      <trkpt lat="41.4257300" lon="-8.7833140">
        <ele>10.2</ele>
        <time>2021-05-17T06:18:19Z</time>
      </trkpt>
      <trkpt lat="41.4257460" lon="-8.7833120">
        <ele>10.2</ele>
        <time>2021-05-17T06:18:20Z</time>
      </trkpt>
      <trkpt lat="41.4257630" lon="-8.7833100">
        <ele>10.2</ele>
        <time>2021-05-17T06:18:21Z</time>
      </trkpt>
      <trkpt lat="41.4257760" lon="-8.7833080">
        <ele>10.1</ele>
        <time>2021-05-17T06:18:22Z</time>
      </trkpt>
      <trkpt lat="41.4257900" lon="-8.7833090">
        <ele>10.1</ele>
        <time>2021-05-17T06:18:23Z</time>
      </trkpt>
      <trkpt lat="41.4258050" lon="-8.7833050">
        <ele>10.1</ele>
        <time>2021-05-17T06:18:24Z</time>
      </trkpt>
      <trkpt lat="41.4258210" lon="-8.7833070">
        <ele>10.1</ele>
        <time>2021-05-17T06:18:25Z</time>
      </trkpt>
      <trkpt lat="41.4258340" lon="-8.7833040">
        <ele>10.1</ele>
        <time>2021-05-17T06:18:26Z</time>
      </trkpt>
      <trkpt lat="41.4258480" lon="-8.7833070">
        <ele>10.1</ele>
        <time>2021-05-17T06:18:27Z</time>
      </trkpt>
      <trkpt lat="41.4258620" lon="-8.7833070">
        <ele>10.0</ele>
        <time>2021-05-17T06:18:28Z</time>
      </trkpt>
      <trkpt lat="41.4258770" lon="-8.7832940">
        <ele>10.0</ele>
        <time>2021-05-17T06:18:29Z</time>
      </trkpt>
      <trkpt lat="41.4258910" lon="-8.7832950">
        <ele>10.0</ele>
        <time>2021-05-17T06:18:30Z</time>
      </trkpt>
      <trkpt lat="41.4259060" lon="-8.7832880">
        <ele>10.0</ele>
        <time>2021-05-17T06:18:31Z</time>
      </trkpt>
      <trkpt lat="41.4259200" lon="-8.7832860">
        <ele>10.0</ele>
        <time>2021-05-17T06:18:32Z</time>
      </trkpt>
      <trkpt lat="41.4259350" lon="-8.7832870">
        <ele>9.9</ele>
        <time>2021-05-17T06:18:33Z</time>
      </trkpt>
      <trkpt lat="41.4259500" lon="-8.7832840">
        <ele>9.9</ele>
        <time>2021-05-17T06:18:34Z</time>
      </trkpt>
      <trkpt lat="41.4259650" lon="-8.7832870">
        <ele>9.9</ele>
        <time>2021-05-17T06:18:35Z</time>
      </trkpt>
      <trkpt lat="41.4259820" lon="-8.7832820">
        <ele>9.9</ele>
        <time>2021-05-17T06:18:36Z</time>
      </trkpt>
      <trkpt lat="41.4259960" lon="-8.7832800">
        <ele>9.9</ele>
        <time>2021-05-17T06:18:37Z</time>
      </trkpt>
      <trkpt lat="41.4260110" lon="-8.7832800">
        <ele>9.9</ele>
        <time>2021-05-17T06:18:38Z</time>
      </trkpt>
      <trkpt lat="41.4260270" lon="-8.7832790">
        <ele>9.8</ele>
        <time>2021-05-17T06:18:39Z</time>
      </trkpt>
      <trkpt lat="41.4260490" lon="-8.7832840">
        <ele>9.8</ele>
        <time>2021-05-17T06:18:40Z</time>
      </trkpt>
      <trkpt lat="41.4260590" lon="-8.7832860">
        <ele>9.8</ele>
        <time>2021-05-17T06:18:41Z</time>
      </trkpt>
      <trkpt lat="41.4260690" lon="-8.7832880">
        <ele>9.8</ele>
        <time>2021-05-17T06:18:42Z</time>
      </trkpt>
      <trkpt lat="41.4260850" lon="-8.7832850">
        <ele>9.8</ele>
        <time>2021-05-17T06:18:43Z</time>
      </trkpt>
      <trkpt lat="41.4260990" lon="-8.7832820">
        <ele>9.7</ele>
        <time>2021-05-17T06:18:44Z</time>
      </trkpt>
      <trkpt lat="41.4261130" lon="-8.7832790">
        <ele>9.7</ele>
        <time>2021-05-17T06:18:45Z</time>
      </trkpt>
      <trkpt lat="41.4261290" lon="-8.7832840">
        <ele>9.7</ele>
        <time>2021-05-17T06:18:46Z</time>
      </trkpt>
      <trkpt lat="41.4261430" lon="-8.7832830">
        <ele>9.7</ele>
        <time>2021-05-17T06:18:47Z</time>
      </trkpt>
      <trkpt lat="41.4261560" lon="-8.7832790">
        <ele>9.7</ele>
        <time>2021-05-17T06:18:48Z</time>
      </trkpt>
      <trkpt lat="41.4261700" lon="-8.7832750">
        <ele>9.7</ele>
        <time>2021-05-17T06:18:49Z</time>
      </trkpt>
      <trkpt lat="41.4261850" lon="-8.7832800">
        <ele>9.6</ele>
        <time>2021-05-17T06:18:50Z</time>
      </trkpt>
      <trkpt lat="41.4261990" lon="-8.7832750">
        <ele>9.6</ele>
        <time>2021-05-17T06:18:51Z</time>
      </trkpt>
      <trkpt lat="41.4262110" lon="-8.7832720">
        <ele>9.6</ele>
        <time>2021-05-17T06:18:52Z</time>
      </trkpt>
      <trkpt lat="41.4262280" lon="-8.7832710">
        <ele>9.6</ele>
        <time>2021-05-17T06:18:53Z</time>
      </trkpt>
      <trkpt lat="41.4262400" lon="-8.7832750">
        <ele>9.5</ele>
        <time>2021-05-17T06:18:54Z</time>
      </trkpt>
      <trkpt lat="41.4262540" lon="-8.7832670">
        <ele>9.5</ele>
        <time>2021-05-17T06:18:55Z</time>
      </trkpt>
      <trkpt lat="41.4262690" lon="-8.7832600">
        <ele>9.5</ele>
        <time>2021-05-17T06:18:56Z</time>
      </trkpt>
      <trkpt lat="41.4262840" lon="-8.7832540">
        <ele>9.5</ele>
        <time>2021-05-17T06:18:57Z</time>
      </trkpt>
      <trkpt lat="41.4263000" lon="-8.7832600">
        <ele>9.5</ele>
        <time>2021-05-17T06:18:58Z</time>
      </trkpt>
      <trkpt lat="41.4263140" lon="-8.7832620">
        <ele>9.4</ele>
        <time>2021-05-17T06:18:59Z</time>
      </trkpt>
      <trkpt lat="41.4263280" lon="-8.7832640">
        <ele>9.4</ele>
        <time>2021-05-17T06:19:00Z</time>
      </trkpt>
      <trkpt lat="41.4263420" lon="-8.7832590">
        <ele>9.4</ele>
        <time>2021-05-17T06:19:01Z</time>
      </trkpt>
      <trkpt lat="41.4263560" lon="-8.7832580">
        <ele>9.4</ele>
        <time>2021-05-17T06:19:02Z</time>
      </trkpt>
      <trkpt lat="41.4263730" lon="-8.7832550">
        <ele>9.4</ele>
        <time>2021-05-17T06:19:03Z</time>
      </trkpt>
      <trkpt lat="41.4263860" lon="-8.7832480">
        <ele>9.4</ele>
        <time>2021-05-17T06:19:04Z</time>
      </trkpt>
      <trkpt lat="41.4264040" lon="-8.7832520">
        <ele>9.3</ele>
        <time>2021-05-17T06:19:05Z</time>
      </trkpt>
      <trkpt lat="41.4264170" lon="-8.7832510">
        <ele>9.3</ele>
        <time>2021-05-17T06:19:06Z</time>
      </trkpt>
      <trkpt lat="41.4264340" lon="-8.7832510">
        <ele>9.3</ele>
        <time>2021-05-17T06:19:07Z</time>
      </trkpt>
      <trkpt lat="41.4264470" lon="-8.7832510">
        <ele>9.3</ele>
        <time>2021-05-17T06:19:08Z</time>
      </trkpt>
      <trkpt lat="41.4264610" lon="-8.7832480">
        <ele>9.3</ele>
        <time>2021-05-17T06:19:09Z</time>
      </trkpt>
      <trkpt lat="41.4264760" lon="-8.7832460">
        <ele>9.3</ele>
        <time>2021-05-17T06:19:10Z</time>
      </trkpt>
      <trkpt lat="41.4264920" lon="-8.7832530">
        <ele>9.3</ele>
        <time>2021-05-17T06:19:11Z</time>
      </trkpt>
      <trkpt lat="41.4265040" lon="-8.7832600">
        <ele>9.3</ele>
        <time>2021-05-17T06:19:12Z</time>
      </trkpt>
      <trkpt lat="41.4265170" lon="-8.7832720">
        <ele>9.3</ele>
        <time>2021-05-17T06:19:13Z</time>
      </trkpt>
      <trkpt lat="41.4265300" lon="-8.7832720">
        <ele>9.2</ele>
        <time>2021-05-17T06:19:14Z</time>
      </trkpt>
      <trkpt lat="41.4265450" lon="-8.7832840">
        <ele>9.2</ele>
        <time>2021-05-17T06:19:15Z</time>
      </trkpt>
      <trkpt lat="41.4265580" lon="-8.7832830">
        <ele>9.2</ele>
        <time>2021-05-17T06:19:16Z</time>
      </trkpt>
      <trkpt lat="41.4265730" lon="-8.7832830">
        <ele>9.2</ele>
        <time>2021-05-17T06:19:17Z</time>
      </trkpt>
      <trkpt lat="41.4265890" lon="-8.7832890">
        <ele>9.2</ele>
        <time>2021-05-17T06:19:18Z</time>
      </trkpt>
      <trkpt lat="41.4266060" lon="-8.7832910">
        <ele>9.2</ele>
        <time>2021-05-17T06:19:19Z</time>
      </trkpt>
      <trkpt lat="41.4266210" lon="-8.7832950">
        <ele>9.2</ele>
        <time>2021-05-17T06:19:20Z</time>
      </trkpt>
      <trkpt lat="41.4266370" lon="-8.7832900">
        <ele>9.2</ele>
        <time>2021-05-17T06:19:21Z</time>
      </trkpt>
      <trkpt lat="41.4266510" lon="-8.7833000">
        <ele>9.2</ele>
        <time>2021-05-17T06:19:22Z</time>
      </trkpt>
      <trkpt lat="41.4266650" lon="-8.7833020">
        <ele>9.1</ele>
        <time>2021-05-17T06:19:23Z</time>
      </trkpt>
      <trkpt lat="41.4266780" lon="-8.7833050">
        <ele>9.1</ele>
        <time>2021-05-17T06:19:24Z</time>
      </trkpt>
      <trkpt lat="41.4266920" lon="-8.7833080">
        <ele>9.1</ele>
        <time>2021-05-17T06:19:25Z</time>
      </trkpt>
      <trkpt lat="41.4267040" lon="-8.7833130">
        <ele>9.1</ele>
        <time>2021-05-17T06:19:26Z</time>
      </trkpt>
      <trkpt lat="41.4267250" lon="-8.7833200">
        <ele>9.1</ele>
        <time>2021-05-17T06:19:27Z</time>
      </trkpt>
      <trkpt lat="41.4267340" lon="-8.7833200">
        <ele>9.1</ele>
        <time>2021-05-17T06:19:28Z</time>
      </trkpt>
      <trkpt lat="41.4267420" lon="-8.7833200">
        <ele>9.1</ele>
        <time>2021-05-17T06:19:29Z</time>
      </trkpt>
      <trkpt lat="41.4267560" lon="-8.7833320">
        <ele>9.1</ele>
        <time>2021-05-17T06:19:30Z</time>
      </trkpt>
      <trkpt lat="41.4267710" lon="-8.7833350">
        <ele>9.1</ele>
        <time>2021-05-17T06:19:31Z</time>
      </trkpt>
      <trkpt lat="41.4267860" lon="-8.7833310">
        <ele>9.1</ele>
        <time>2021-05-17T06:19:32Z</time>
      </trkpt>
      <trkpt lat="41.4268000" lon="-8.7833250">
        <ele>9.1</ele>
        <time>2021-05-17T06:19:33Z</time>
      </trkpt>
      <trkpt lat="41.4268220" lon="-8.7833310">
        <ele>9.1</ele>
        <time>2021-05-17T06:19:34Z</time>
      </trkpt>
      <trkpt lat="41.4268320" lon="-8.7833330">
        <ele>9.1</ele>
        <time>2021-05-17T06:19:35Z</time>
      </trkpt>
      <trkpt lat="41.4268410" lon="-8.7833350">
        <ele>9.1</ele>
        <time>2021-05-17T06:19:36Z</time>
      </trkpt>
      <trkpt lat="41.4268560" lon="-8.7833270">
        <ele>9.0</ele>
        <time>2021-05-17T06:19:37Z</time>
      </trkpt>
      <trkpt lat="41.4268720" lon="-8.7833360">
        <ele>9.0</ele>
        <time>2021-05-17T06:19:38Z</time>
      </trkpt>
      <trkpt lat="41.4268850" lon="-8.7833440">
        <ele>9.0</ele>
        <time>2021-05-17T06:19:39Z</time>
      </trkpt>
      <trkpt lat="41.4269010" lon="-8.7833440">
        <ele>9.0</ele>
        <time>2021-05-17T06:19:40Z</time>
      </trkpt>
      <trkpt lat="41.4269150" lon="-8.7833510">
        <ele>9.0</ele>
        <time>2021-05-17T06:19:41Z</time>
      </trkpt>
      <trkpt lat="41.4269270" lon="-8.7833530">
        <ele>9.0</ele>
        <time>2021-05-17T06:19:42Z</time>
      </trkpt>
      <trkpt lat="41.4269410" lon="-8.7833620">
        <ele>9.0</ele>
        <time>2021-05-17T06:19:43Z</time>
      </trkpt>
      <trkpt lat="41.4269570" lon="-8.7833650">
        <ele>9.0</ele>
        <time>2021-05-17T06:19:44Z</time>
      </trkpt>
      <trkpt lat="41.4269730" lon="-8.7833590">
        <ele>9.0</ele>
        <time>2021-05-17T06:19:45Z</time>
      </trkpt>
      <trkpt lat="41.4269890" lon="-8.7833520">
        <ele>9.0</ele>
        <time>2021-05-17T06:19:46Z</time>
      </trkpt>
      <trkpt lat="41.4270070" lon="-8.7833490">
        <ele>9.0</ele>
        <time>2021-05-17T06:19:47Z</time>
      </trkpt>
      <trkpt lat="41.4270240" lon="-8.7833490">
        <ele>9.0</ele>
        <time>2021-05-17T06:19:48Z</time>
      </trkpt>
      <trkpt lat="41.4270420" lon="-8.7833550">
        <ele>9.0</ele>
        <time>2021-05-17T06:19:49Z</time>
      </trkpt>
      <trkpt lat="41.4270560" lon="-8.7833600">
        <ele>9.0</ele>
        <time>2021-05-17T06:19:50Z</time>
      </trkpt>
      <trkpt lat="41.4270730" lon="-8.7833630">
        <ele>9.0</ele>
        <time>2021-05-17T06:19:51Z</time>
      </trkpt>
      <trkpt lat="41.4270880" lon="-8.7833640">
        <ele>9.0</ele>
        <time>2021-05-17T06:19:52Z</time>
      </trkpt>
      <trkpt lat="41.4271040" lon="-8.7833740">
        <ele>9.0</ele>
        <time>2021-05-17T06:19:53Z</time>
      </trkpt>
      <trkpt lat="41.4271170" lon="-8.7833810">
        <ele>9.0</ele>
        <time>2021-05-17T06:19:54Z</time>
      </trkpt>
      <trkpt lat="41.4271340" lon="-8.7833780">
        <ele>9.0</ele>
        <time>2021-05-17T06:19:55Z</time>
      </trkpt>
      <trkpt lat="41.4271470" lon="-8.7833820">
        <ele>9.0</ele>
        <time>2021-05-17T06:19:56Z</time>
      </trkpt>
      <trkpt lat="41.4271600" lon="-8.7833800">
        <ele>9.0</ele>
        <time>2021-05-17T06:19:57Z</time>
      </trkpt>
      <trkpt lat="41.4271770" lon="-8.7833870">
        <ele>9.0</ele>
        <time>2021-05-17T06:19:58Z</time>
      </trkpt>
      <trkpt lat="41.4271880" lon="-8.7833820">
        <ele>9.0</ele>
        <time>2021-05-17T06:19:59Z</time>
      </trkpt>
      <trkpt lat="41.4272040" lon="-8.7833940">
        <ele>9.0</ele>
        <time>2021-05-17T06:20:00Z</time>
      </trkpt>
      <trkpt lat="41.4272270" lon="-8.7833980">
        <ele>9.0</ele>
        <time>2021-05-17T06:20:01Z</time>
      </trkpt>
      <trkpt lat="41.4272360" lon="-8.7833970">
        <ele>9.0</ele>
        <time>2021-05-17T06:20:02Z</time>
      </trkpt>
      <trkpt lat="41.4272450" lon="-8.7833960">
        <ele>9.0</ele>
        <time>2021-05-17T06:20:03Z</time>
      </trkpt>
      <trkpt lat="41.4272600" lon="-8.7834010">
        <ele>9.0</ele>
        <time>2021-05-17T06:20:04Z</time>
      </trkpt>
      <trkpt lat="41.4272750" lon="-8.7834050">
        <ele>9.0</ele>
        <time>2021-05-17T06:20:05Z</time>
      </trkpt>
      <trkpt lat="41.4272980" lon="-8.7834110">
        <ele>9.0</ele>
        <time>2021-05-17T06:20:06Z</time>
      </trkpt>
      <trkpt lat="41.4273080" lon="-8.7834150">
        <ele>9.0</ele>
        <time>2021-05-17T06:20:07Z</time>
      </trkpt>
      <trkpt lat="41.4273170" lon="-8.7834180">
        <ele>9.0</ele>
        <time>2021-05-17T06:20:08Z</time>
      </trkpt>
      <trkpt lat="41.4273310" lon="-8.7834210">
        <ele>9.0</ele>
        <time>2021-05-17T06:20:09Z</time>
      </trkpt>
      <trkpt lat="41.4273440" lon="-8.7834200">
        <ele>9.0</ele>
        <time>2021-05-17T06:20:10Z</time>
      </trkpt>
      <trkpt lat="41.4273570" lon="-8.7834260">
        <ele>9.0</ele>
        <time>2021-05-17T06:20:11Z</time>
      </trkpt>
      <trkpt lat="41.4273710" lon="-8.7834310">
        <ele>9.0</ele>
        <time>2021-05-17T06:20:12Z</time>
      </trkpt>
      <trkpt lat="41.4273860" lon="-8.7834270">
        <ele>9.0</ele>
        <time>2021-05-17T06:20:13Z</time>
      </trkpt>
      <trkpt lat="41.4274010" lon="-8.7834310">
        <ele>9.0</ele>
        <time>2021-05-17T06:20:14Z</time>
      </trkpt>
      <trkpt lat="41.4274160" lon="-8.7834260">
        <ele>9.0</ele>
        <time>2021-05-17T06:20:15Z</time>
      </trkpt>
      <trkpt lat="41.4274310" lon="-8.7834310">
        <ele>9.0</ele>
        <time>2021-05-17T06:20:16Z</time>
      </trkpt>
      <trkpt lat="41.4274510" lon="-8.7834310">
        <ele>9.0</ele>
        <time>2021-05-17T06:20:17Z</time>
      </trkpt>
      <trkpt lat="41.4274600" lon="-8.7834350">
        <ele>9.0</ele>
        <time>2021-05-17T06:20:18Z</time>
      </trkpt>
      <trkpt lat="41.4274680" lon="-8.7834380">
        <ele>9.0</ele>
        <time>2021-05-17T06:20:19Z</time>
      </trkpt>
      <trkpt lat="41.4274810" lon="-8.7834430">
        <ele>9.0</ele>
        <time>2021-05-17T06:20:20Z</time>
      </trkpt>
      <trkpt lat="41.4274950" lon="-8.7834480">
        <ele>9.0</ele>
        <time>2021-05-17T06:20:21Z</time>
      </trkpt>
      <trkpt lat="41.4275090" lon="-8.7834540">
        <ele>9.0</ele>
        <time>2021-05-17T06:20:22Z</time>
      </trkpt>
      <trkpt lat="41.4275230" lon="-8.7834600">
        <ele>9.0</ele>
        <time>2021-05-17T06:20:23Z</time>
      </trkpt>
      <trkpt lat="41.4275370" lon="-8.7834600">
        <ele>9.0</ele>
        <time>2021-05-17T06:20:24Z</time>
      </trkpt>
      <trkpt lat="41.4275520" lon="-8.7834620">
        <ele>9.0</ele>
        <time>2021-05-17T06:20:25Z</time>
      </trkpt>
      <trkpt lat="41.4275680" lon="-8.7834630">
        <ele>9.0</ele>
        <time>2021-05-17T06:20:26Z</time>
      </trkpt>
      <trkpt lat="41.4275810" lon="-8.7834610">
        <ele>9.0</ele>
        <time>2021-05-17T06:20:27Z</time>
      </trkpt>
      <trkpt lat="41.4275940" lon="-8.7834660">
        <ele>9.0</ele>
        <time>2021-05-17T06:20:28Z</time>
      </trkpt>
      <trkpt lat="41.4276080" lon="-8.7834720">
        <ele>9.0</ele>
        <time>2021-05-17T06:20:29Z</time>
      </trkpt>
      <trkpt lat="41.4276230" lon="-8.7834770">
        <ele>9.0</ele>
        <time>2021-05-17T06:20:30Z</time>
      </trkpt>
      <trkpt lat="41.4276360" lon="-8.7834760">
        <ele>9.0</ele>
        <time>2021-05-17T06:20:31Z</time>
      </trkpt>
      <trkpt lat="41.4276500" lon="-8.7834830">
        <ele>9.0</ele>
        <time>2021-05-17T06:20:32Z</time>
      </trkpt>
      <trkpt lat="41.4276640" lon="-8.7834970">
        <ele>9.0</ele>
        <time>2021-05-17T06:20:33Z</time>
      </trkpt>
      <trkpt lat="41.4276740" lon="-8.7835070">
        <ele>9.0</ele>
        <time>2021-05-17T06:20:34Z</time>
      </trkpt>
      <trkpt lat="41.4276840" lon="-8.7835090">
        <ele>9.0</ele>
        <time>2021-05-17T06:20:35Z</time>
      </trkpt>
      <trkpt lat="41.4276970" lon="-8.7835040">
        <ele>9.0</ele>
        <time>2021-05-17T06:20:36Z</time>
      </trkpt>
      <trkpt lat="41.4277110" lon="-8.7835070">
        <ele>9.0</ele>
        <time>2021-05-17T06:20:37Z</time>
      </trkpt>
      <trkpt lat="41.4277230" lon="-8.7835110">
        <ele>9.0</ele>
        <time>2021-05-17T06:20:38Z</time>
      </trkpt>
      <trkpt lat="41.4277350" lon="-8.7835180">
        <ele>9.0</ele>
        <time>2021-05-17T06:20:39Z</time>
      </trkpt>
      <trkpt lat="41.4277490" lon="-8.7835220">
        <ele>9.0</ele>
        <time>2021-05-17T06:20:40Z</time>
      </trkpt>
      <trkpt lat="41.4277690" lon="-8.7835280">
        <ele>9.0</ele>
        <time>2021-05-17T06:20:41Z</time>
      </trkpt>
      <trkpt lat="41.4277780" lon="-8.7835290">
        <ele>9.0</ele>
        <time>2021-05-17T06:20:42Z</time>
      </trkpt>
      <trkpt lat="41.4277860" lon="-8.7835310">
        <ele>9.0</ele>
        <time>2021-05-17T06:20:43Z</time>
      </trkpt>
      <trkpt lat="41.4278070" lon="-8.7835370">
        <ele>9.0</ele>
        <time>2021-05-17T06:20:44Z</time>
      </trkpt>
      <trkpt lat="41.4278140" lon="-8.7835390">
        <ele>9.0</ele>
        <time>2021-05-17T06:20:45Z</time>
      </trkpt>
      <trkpt lat="41.4278220" lon="-8.7835410">
        <ele>9.0</ele>
        <time>2021-05-17T06:20:46Z</time>
      </trkpt>
      <trkpt lat="41.4278350" lon="-8.7835400">
        <ele>9.0</ele>
        <time>2021-05-17T06:20:47Z</time>
      </trkpt>
      <trkpt lat="41.4278440" lon="-8.7835450">
        <ele>9.0</ele>
        <time>2021-05-17T06:20:48Z</time>
      </trkpt>
      <trkpt lat="41.4278580" lon="-8.7835520">
        <ele>9.0</ele>
        <time>2021-05-17T06:20:49Z</time>
      </trkpt>
      <trkpt lat="41.4278640" lon="-8.7835530">
        <ele>9.0</ele>
        <time>2021-05-17T06:20:50Z</time>
      </trkpt>
      <trkpt lat="41.4278730" lon="-8.7835550">
        <ele>9.0</ele>
        <time>2021-05-17T06:20:51Z</time>
      </trkpt>
      <trkpt lat="41.4278830" lon="-8.7835540">
        <ele>9.0</ele>
        <time>2021-05-17T06:20:52Z</time>
      </trkpt>
      <trkpt lat="41.4278900" lon="-8.7835560">
        <ele>9.0</ele>
        <time>2021-05-17T06:20:53Z</time>
      </trkpt>
      <trkpt lat="41.4279020" lon="-8.7835560">
        <ele>9.0</ele>
        <time>2021-05-17T06:20:54Z</time>
      </trkpt>
      <trkpt lat="41.4279130" lon="-8.7835580">
        <ele>9.0</ele>
        <time>2021-05-17T06:20:55Z</time>
      </trkpt>
      <trkpt lat="41.4279240" lon="-8.7835640">
        <ele>9.0</ele>
        <time>2021-05-17T06:20:56Z</time>
      </trkpt>
      <trkpt lat="41.4279370" lon="-8.7835650">
        <ele>9.0</ele>
        <time>2021-05-17T06:20:57Z</time>
      </trkpt>
      <trkpt lat="41.4279470" lon="-8.7835630">
        <ele>9.0</ele>
        <time>2021-05-17T06:20:58Z</time>
      </trkpt>
      <trkpt lat="41.4279590" lon="-8.7835650">
        <ele>9.0</ele>
        <time>2021-05-17T06:20:59Z</time>
      </trkpt>
      <trkpt lat="41.4279700" lon="-8.7835650">
        <ele>9.0</ele>
        <time>2021-05-17T06:21:00Z</time>
      </trkpt>
      <trkpt lat="41.4279800" lon="-8.7835660">
        <ele>9.0</ele>
        <time>2021-05-17T06:21:01Z</time>
      </trkpt>
      <trkpt lat="41.4279950" lon="-8.7835740">
        <ele>9.0</ele>
        <time>2021-05-17T06:21:02Z</time>
      </trkpt>
      <trkpt lat="41.4280150" lon="-8.7835790">
        <ele>9.0</ele>
        <time>2021-05-17T06:21:03Z</time>
      </trkpt>
      <trkpt lat="41.4280240" lon="-8.7835800">
        <ele>9.0</ele>
        <time>2021-05-17T06:21:04Z</time>
      </trkpt>
      <trkpt lat="41.4280320" lon="-8.7835820">
        <ele>9.0</ele>
        <time>2021-05-17T06:21:05Z</time>
      </trkpt>
      <trkpt lat="41.4280440" lon="-8.7835840">
        <ele>9.0</ele>
        <time>2021-05-17T06:21:06Z</time>
      </trkpt>
      <trkpt lat="41.4280560" lon="-8.7835860">
        <ele>9.0</ele>
        <time>2021-05-17T06:21:07Z</time>
      </trkpt>
      <trkpt lat="41.4280660" lon="-8.7835840">
        <ele>9.0</ele>
        <time>2021-05-17T06:21:08Z</time>
      </trkpt>
      <trkpt lat="41.4280880" lon="-8.7835870">
        <ele>9.0</ele>
        <time>2021-05-17T06:21:09Z</time>
      </trkpt>
      <trkpt lat="41.4280970" lon="-8.7835900">
        <ele>9.0</ele>
        <time>2021-05-17T06:21:10Z</time>
      </trkpt>
      <trkpt lat="41.4281070" lon="-8.7835920">
        <ele>9.0</ele>
        <time>2021-05-17T06:21:11Z</time>
      </trkpt>
      <trkpt lat="41.4281270" lon="-8.7835970">
        <ele>9.0</ele>
        <time>2021-05-17T06:21:12Z</time>
      </trkpt>
      <trkpt lat="41.4281350" lon="-8.7836010">
        <ele>9.0</ele>
        <time>2021-05-17T06:21:13Z</time>
      </trkpt>
      <trkpt lat="41.4281430" lon="-8.7836040">
        <ele>9.0</ele>
        <time>2021-05-17T06:21:14Z</time>
      </trkpt>
      <trkpt lat="41.4281670" lon="-8.7836100">
        <ele>9.0</ele>
        <time>2021-05-17T06:21:15Z</time>
      </trkpt>
      <trkpt lat="41.4281750" lon="-8.7836100">
        <ele>9.0</ele>
        <time>2021-05-17T06:21:16Z</time>
      </trkpt>
      <trkpt lat="41.4281840" lon="-8.7836110">
        <ele>9.0</ele>
        <time>2021-05-17T06:21:17Z</time>
      </trkpt>
      <trkpt lat="41.4281990" lon="-8.7836140">
        <ele>9.0</ele>
        <time>2021-05-17T06:21:18Z</time>
      </trkpt>
      <trkpt lat="41.4282130" lon="-8.7836180">
        <ele>9.0</ele>
        <time>2021-05-17T06:21:19Z</time>
      </trkpt>
      <trkpt lat="41.4282270" lon="-8.7836190">
        <ele>9.0</ele>
        <time>2021-05-17T06:21:20Z</time>
      </trkpt>
      <trkpt lat="41.4282410" lon="-8.7836200">
        <ele>9.0</ele>
        <time>2021-05-17T06:21:21Z</time>
      </trkpt>
      <trkpt lat="41.4282510" lon="-8.7836200">
        <ele>9.0</ele>
        <time>2021-05-17T06:21:22Z</time>
      </trkpt>
      <trkpt lat="41.4282650" lon="-8.7836170">
        <ele>9.0</ele>
        <time>2021-05-17T06:21:23Z</time>
      </trkpt>
      <trkpt lat="41.4282750" lon="-8.7836170">
        <ele>9.0</ele>
        <time>2021-05-17T06:21:24Z</time>
      </trkpt>
      <trkpt lat="41.4282970" lon="-8.7836200">
        <ele>9.0</ele>
        <time>2021-05-17T06:21:25Z</time>
      </trkpt>
      <trkpt lat="41.4283050" lon="-8.7836190">
        <ele>9.0</ele>
        <time>2021-05-17T06:21:26Z</time>
      </trkpt>
      <trkpt lat="41.4283140" lon="-8.7836180">
        <ele>9.0</ele>
        <time>2021-05-17T06:21:27Z</time>
      </trkpt>
      <trkpt lat="41.4283370" lon="-8.7836270">
        <ele>9.0</ele>
        <time>2021-05-17T06:21:28Z</time>
      </trkpt>
      <trkpt lat="41.4283440" lon="-8.7836290">
        <ele>9.0</ele>
        <time>2021-05-17T06:21:29Z</time>
      </trkpt>
      <trkpt lat="41.4283520" lon="-8.7836310">
        <ele>9.0</ele>
        <time>2021-05-17T06:21:30Z</time>
      </trkpt>
      <trkpt lat="41.4283740" lon="-8.7836240">
        <ele>9.0</ele>
        <time>2021-05-17T06:21:31Z</time>
      </trkpt>
      <trkpt lat="41.4283840" lon="-8.7836300">
        <ele>9.0</ele>
        <time>2021-05-17T06:21:32Z</time>
      </trkpt>
      <trkpt lat="41.4283940" lon="-8.7836320">
        <ele>9.0</ele>
        <time>2021-05-17T06:21:33Z</time>
      </trkpt>
      <trkpt lat="41.4284060" lon="-8.7836390">
        <ele>8.9</ele>
        <time>2021-05-17T06:21:34Z</time>
      </trkpt>
      <trkpt lat="41.4284200" lon="-8.7836370">
        <ele>8.9</ele>
        <time>2021-05-17T06:21:35Z</time>
      </trkpt>
      <trkpt lat="41.4284330" lon="-8.7836430">
        <ele>8.9</ele>
        <time>2021-05-17T06:21:36Z</time>
      </trkpt>
      <trkpt lat="41.4284450" lon="-8.7836510">
        <ele>8.9</ele>
        <time>2021-05-17T06:21:37Z</time>
      </trkpt>
      <trkpt lat="41.4284620" lon="-8.7836500">
        <ele>8.9</ele>
        <time>2021-05-17T06:21:38Z</time>
      </trkpt>
      <trkpt lat="41.4284760" lon="-8.7836470">
        <ele>8.9</ele>
        <time>2021-05-17T06:21:39Z</time>
      </trkpt>
      <trkpt lat="41.4284980" lon="-8.7836490">
        <ele>8.9</ele>
        <time>2021-05-17T06:21:40Z</time>
      </trkpt>
      <trkpt lat="41.4285080" lon="-8.7836480">
        <ele>8.9</ele>
        <time>2021-05-17T06:21:41Z</time>
      </trkpt>
      <trkpt lat="41.4285170" lon="-8.7836480">
        <ele>8.9</ele>
        <time>2021-05-17T06:21:42Z</time>
      </trkpt>
      <trkpt lat="41.4285310" lon="-8.7836520">
        <ele>8.9</ele>
        <time>2021-05-17T06:21:43Z</time>
      </trkpt>
      <trkpt lat="41.4285450" lon="-8.7836550">
        <ele>8.9</ele>
        <time>2021-05-17T06:21:44Z</time>
      </trkpt>
      <trkpt lat="41.4285690" lon="-8.7836550">
        <ele>8.9</ele>
        <time>2021-05-17T06:21:45Z</time>
      </trkpt>
      <trkpt lat="41.4285780" lon="-8.7836550">
        <ele>8.9</ele>
        <time>2021-05-17T06:21:46Z</time>
      </trkpt>
      <trkpt lat="41.4285870" lon="-8.7836550">
        <ele>9.0</ele>
        <time>2021-05-17T06:21:47Z</time>
      </trkpt>
      <trkpt lat="41.4285980" lon="-8.7836490">
        <ele>9.0</ele>
        <time>2021-05-17T06:21:48Z</time>
      </trkpt>
      <trkpt lat="41.4286140" lon="-8.7836550">
        <ele>9.0</ele>
        <time>2021-05-17T06:21:49Z</time>
      </trkpt>
      <trkpt lat="41.4286210" lon="-8.7836680">
        <ele>9.0</ele>
        <time>2021-05-17T06:21:50Z</time>
      </trkpt>
      <trkpt lat="41.4286350" lon="-8.7836750">
        <ele>9.0</ele>
        <time>2021-05-17T06:21:51Z</time>
      </trkpt>
      <trkpt lat="41.4286470" lon="-8.7836750">
        <ele>9.0</ele>
        <time>2021-05-17T06:21:52Z</time>
      </trkpt>
      <trkpt lat="41.4286560" lon="-8.7836690">
        <ele>9.0</ele>
        <time>2021-05-17T06:21:53Z</time>
      </trkpt>
      <trkpt lat="41.4286720" lon="-8.7836760">
        <ele>9.0</ele>
        <time>2021-05-17T06:21:54Z</time>
      </trkpt>
      <trkpt lat="41.4286840" lon="-8.7836740">
        <ele>9.0</ele>
        <time>2021-05-17T06:21:55Z</time>
      </trkpt>
      <trkpt lat="41.4286900" lon="-8.7836700">
        <ele>9.0</ele>
        <time>2021-05-17T06:21:56Z</time>
      </trkpt>
      <trkpt lat="41.4287030" lon="-8.7836730">
        <ele>9.0</ele>
        <time>2021-05-17T06:21:57Z</time>
      </trkpt>
      <trkpt lat="41.4287160" lon="-8.7836770">
        <ele>9.0</ele>
        <time>2021-05-17T06:21:58Z</time>
      </trkpt>
      <trkpt lat="41.4287250" lon="-8.7836750">
        <ele>9.0</ele>
        <time>2021-05-17T06:21:59Z</time>
      </trkpt>
      <trkpt lat="41.4287410" lon="-8.7836730">
        <ele>9.0</ele>
        <time>2021-05-17T06:22:00Z</time>
      </trkpt>
      <trkpt lat="41.4287520" lon="-8.7836740">
        <ele>9.0</ele>
        <time>2021-05-17T06:22:01Z</time>
      </trkpt>
      <trkpt lat="41.4287730" lon="-8.7836770">
        <ele>9.1</ele>
        <time>2021-05-17T06:22:02Z</time>
      </trkpt>
      <trkpt lat="41.4287820" lon="-8.7836800">
        <ele>9.1</ele>
        <time>2021-05-17T06:22:03Z</time>
      </trkpt>
      <trkpt lat="41.4287920" lon="-8.7836820">
        <ele>9.1</ele>
        <time>2021-05-17T06:22:04Z</time>
      </trkpt>
      <trkpt lat="41.4288050" lon="-8.7836820">
        <ele>9.1</ele>
        <time>2021-05-17T06:22:05Z</time>
      </trkpt>
      <trkpt lat="41.4288190" lon="-8.7836820">
        <ele>9.1</ele>
        <time>2021-05-17T06:22:06Z</time>
      </trkpt>
      <trkpt lat="41.4288340" lon="-8.7836780">
        <ele>9.1</ele>
        <time>2021-05-17T06:22:07Z</time>
      </trkpt>
      <trkpt lat="41.4288470" lon="-8.7836760">
        <ele>9.1</ele>
        <time>2021-05-17T06:22:08Z</time>
      </trkpt>
      <trkpt lat="41.4288600" lon="-8.7836780">
        <ele>9.1</ele>
        <time>2021-05-17T06:22:09Z</time>
      </trkpt>
      <trkpt lat="41.4288750" lon="-8.7836830">
        <ele>9.1</ele>
        <time>2021-05-17T06:22:10Z</time>
      </trkpt>
      <trkpt lat="41.4288920" lon="-8.7836830">
        <ele>9.1</ele>
        <time>2021-05-17T06:22:11Z</time>
      </trkpt>
      <trkpt lat="41.4289050" lon="-8.7836820">
        <ele>9.1</ele>
        <time>2021-05-17T06:22:12Z</time>
      </trkpt>
      <trkpt lat="41.4289180" lon="-8.7836820">
        <ele>9.1</ele>
        <time>2021-05-17T06:22:13Z</time>
      </trkpt>
      <trkpt lat="41.4289340" lon="-8.7836750">
        <ele>9.1</ele>
        <time>2021-05-17T06:22:14Z</time>
      </trkpt>
      <trkpt lat="41.4289470" lon="-8.7836740">
        <ele>9.1</ele>
        <time>2021-05-17T06:22:15Z</time>
      </trkpt>
      <trkpt lat="41.4289630" lon="-8.7836740">
        <ele>9.1</ele>
        <time>2021-05-17T06:22:16Z</time>
      </trkpt>
      <trkpt lat="41.4289770" lon="-8.7836740">
        <ele>9.1</ele>
        <time>2021-05-17T06:22:17Z</time>
      </trkpt>
      <trkpt lat="41.4289940" lon="-8.7836750">
        <ele>9.1</ele>
        <time>2021-05-17T06:22:18Z</time>
      </trkpt>
      <trkpt lat="41.4290170" lon="-8.7836760">
        <ele>9.1</ele>
        <time>2021-05-17T06:22:19Z</time>
      </trkpt>
      <trkpt lat="41.4290250" lon="-8.7836770">
        <ele>9.1</ele>
        <time>2021-05-17T06:22:20Z</time>
      </trkpt>
      <trkpt lat="41.4290340" lon="-8.7836780">
        <ele>9.1</ele>
        <time>2021-05-17T06:22:21Z</time>
      </trkpt>
      <trkpt lat="41.4290530" lon="-8.7836770">
        <ele>9.1</ele>
        <time>2021-05-17T06:22:22Z</time>
      </trkpt>
      <trkpt lat="41.4290620" lon="-8.7836770">
        <ele>9.2</ele>
        <time>2021-05-17T06:22:23Z</time>
      </trkpt>
      <trkpt lat="41.4290710" lon="-8.7836780">
        <ele>9.2</ele>
        <time>2021-05-17T06:22:24Z</time>
      </trkpt>
      <trkpt lat="41.4290890" lon="-8.7836790">
        <ele>9.1</ele>
        <time>2021-05-17T06:22:25Z</time>
      </trkpt>
      <trkpt lat="41.4291020" lon="-8.7836810">
        <ele>9.1</ele>
        <time>2021-05-17T06:22:26Z</time>
      </trkpt>
      <trkpt lat="41.4291110" lon="-8.7836800">
        <ele>9.1</ele>
        <time>2021-05-17T06:22:27Z</time>
      </trkpt>
      <trkpt lat="41.4291270" lon="-8.7836840">
        <ele>9.1</ele>
        <time>2021-05-17T06:22:28Z</time>
      </trkpt>
      <trkpt lat="41.4291350" lon="-8.7836810">
        <ele>9.1</ele>
        <time>2021-05-17T06:22:29Z</time>
      </trkpt>
      <trkpt lat="41.4291600" lon="-8.7836880">
        <ele>9.1</ele>
        <time>2021-05-17T06:22:30Z</time>
      </trkpt>
      <trkpt lat="41.4291690" lon="-8.7836890">
        <ele>9.1</ele>
        <time>2021-05-17T06:22:31Z</time>
      </trkpt>
      <trkpt lat="41.4291880" lon="-8.7836910">
        <ele>9.1</ele>
        <time>2021-05-17T06:22:32Z</time>
      </trkpt>
      <trkpt lat="41.4292010" lon="-8.7836920">
        <ele>9.1</ele>
        <time>2021-05-17T06:22:33Z</time>
      </trkpt>
      <trkpt lat="41.4292160" lon="-8.7836990">
        <ele>9.1</ele>
        <time>2021-05-17T06:22:34Z</time>
      </trkpt>
      <trkpt lat="41.4292280" lon="-8.7837080">
        <ele>9.1</ele>
        <time>2021-05-17T06:22:35Z</time>
      </trkpt>
      <trkpt lat="41.4292410" lon="-8.7837080">
        <ele>9.1</ele>
        <time>2021-05-17T06:22:36Z</time>
      </trkpt>
      <trkpt lat="41.4292620" lon="-8.7837080">
        <ele>9.1</ele>
        <time>2021-05-17T06:22:37Z</time>
      </trkpt>
      <trkpt lat="41.4292740" lon="-8.7837080">
        <ele>9.1</ele>
        <time>2021-05-17T06:22:38Z</time>
      </trkpt>
      <trkpt lat="41.4292900" lon="-8.7837110">
        <ele>9.1</ele>
        <time>2021-05-17T06:22:39Z</time>
      </trkpt>
      <trkpt lat="41.4293040" lon="-8.7837100">
        <ele>9.1</ele>
        <time>2021-05-17T06:22:40Z</time>
      </trkpt>
      <trkpt lat="41.4293230" lon="-8.7837110">
        <ele>9.1</ele>
        <time>2021-05-17T06:22:41Z</time>
      </trkpt>
      <trkpt lat="41.4293370" lon="-8.7837180">
        <ele>9.1</ele>
        <time>2021-05-17T06:22:42Z</time>
      </trkpt>
      <trkpt lat="41.4293520" lon="-8.7837190">
        <ele>9.1</ele>
        <time>2021-05-17T06:22:43Z</time>
      </trkpt>
      <trkpt lat="41.4293660" lon="-8.7837110">
        <ele>9.1</ele>
        <time>2021-05-17T06:22:44Z</time>
      </trkpt>
      <trkpt lat="41.4293870" lon="-8.7837110">
        <ele>9.0</ele>
        <time>2021-05-17T06:22:45Z</time>
      </trkpt>
      <trkpt lat="41.4294140" lon="-8.7837170">
        <ele>9.0</ele>
        <time>2021-05-17T06:22:46Z</time>
      </trkpt>
      <trkpt lat="41.4294320" lon="-8.7837180">
        <ele>9.0</ele>
        <time>2021-05-17T06:22:47Z</time>
      </trkpt>
      <trkpt lat="41.4294480" lon="-8.7837200">
        <ele>9.0</ele>
        <time>2021-05-17T06:22:48Z</time>
      </trkpt>
      <trkpt lat="41.4294630" lon="-8.7837140">
        <ele>9.0</ele>
        <time>2021-05-17T06:22:49Z</time>
      </trkpt>
      <trkpt lat="41.4294790" lon="-8.7837210">
        <ele>8.9</ele>
        <time>2021-05-17T06:22:50Z</time>
      </trkpt>
      <trkpt lat="41.4294950" lon="-8.7837240">
        <ele>8.9</ele>
        <time>2021-05-17T06:22:51Z</time>
      </trkpt>
      <trkpt lat="41.4295090" lon="-8.7837210">
        <ele>8.9</ele>
        <time>2021-05-17T06:22:52Z</time>
      </trkpt>
      <trkpt lat="41.4295240" lon="-8.7837190">
        <ele>8.9</ele>
        <time>2021-05-17T06:22:53Z</time>
      </trkpt>
      <trkpt lat="41.4295400" lon="-8.7837200">
        <ele>8.8</ele>
        <time>2021-05-17T06:22:54Z</time>
      </trkpt>
      <trkpt lat="41.4295560" lon="-8.7837180">
        <ele>8.8</ele>
        <time>2021-05-17T06:22:55Z</time>
      </trkpt>
      <trkpt lat="41.4295720" lon="-8.7837170">
        <ele>8.8</ele>
        <time>2021-05-17T06:22:56Z</time>
      </trkpt>
      <trkpt lat="41.4295890" lon="-8.7837180">
        <ele>8.7</ele>
        <time>2021-05-17T06:22:57Z</time>
      </trkpt>
      <trkpt lat="41.4296040" lon="-8.7837190">
        <ele>8.7</ele>
        <time>2021-05-17T06:22:58Z</time>
      </trkpt>
      <trkpt lat="41.4296210" lon="-8.7837170">
        <ele>8.7</ele>
        <time>2021-05-17T06:22:59Z</time>
      </trkpt>
      <trkpt lat="41.4296350" lon="-8.7837170">
        <ele>8.7</ele>
        <time>2021-05-17T06:23:00Z</time>
      </trkpt>
      <trkpt lat="41.4296520" lon="-8.7837160">
        <ele>8.6</ele>
        <time>2021-05-17T06:23:01Z</time>
      </trkpt>
      <trkpt lat="41.4296710" lon="-8.7837190">
        <ele>8.6</ele>
        <time>2021-05-17T06:23:02Z</time>
      </trkpt>
      <trkpt lat="41.4296850" lon="-8.7837140">
        <ele>8.6</ele>
        <time>2021-05-17T06:23:03Z</time>
      </trkpt>
      <trkpt lat="41.4297020" lon="-8.7837200">
        <ele>8.5</ele>
        <time>2021-05-17T06:23:04Z</time>
      </trkpt>
      <trkpt lat="41.4297170" lon="-8.7837270">
        <ele>8.5</ele>
        <time>2021-05-17T06:23:05Z</time>
      </trkpt>
      <trkpt lat="41.4297320" lon="-8.7837280">
        <ele>8.5</ele>
        <time>2021-05-17T06:23:06Z</time>
      </trkpt>
      <trkpt lat="41.4297490" lon="-8.7837330">
        <ele>8.4</ele>
        <time>2021-05-17T06:23:07Z</time>
      </trkpt>
      <trkpt lat="41.4297660" lon="-8.7837260">
        <ele>8.4</ele>
        <time>2021-05-17T06:23:08Z</time>
      </trkpt>
      <trkpt lat="41.4297810" lon="-8.7837280">
        <ele>8.4</ele>
        <time>2021-05-17T06:23:09Z</time>
      </trkpt>
      <trkpt lat="41.4297960" lon="-8.7837320">
        <ele>8.4</ele>
        <time>2021-05-17T06:23:10Z</time>
      </trkpt>
      <trkpt lat="41.4298120" lon="-8.7837310">
        <ele>8.3</ele>
        <time>2021-05-17T06:23:11Z</time>
      </trkpt>
      <trkpt lat="41.4298290" lon="-8.7837330">
        <ele>8.3</ele>
        <time>2021-05-17T06:23:12Z</time>
      </trkpt>
      <trkpt lat="41.4298480" lon="-8.7837330">
        <ele>8.3</ele>
        <time>2021-05-17T06:23:13Z</time>
      </trkpt>
      <trkpt lat="41.4298620" lon="-8.7837340">
        <ele>8.3</ele>
        <time>2021-05-17T06:23:14Z</time>
      </trkpt>
      <trkpt lat="41.4298780" lon="-8.7837360">
        <ele>8.3</ele>
        <time>2021-05-17T06:23:15Z</time>
      </trkpt>
      <trkpt lat="41.4298950" lon="-8.7837320">
        <ele>8.2</ele>
        <time>2021-05-17T06:23:16Z</time>
      </trkpt>
      <trkpt lat="41.4299100" lon="-8.7837340">
        <ele>8.2</ele>
        <time>2021-05-17T06:23:17Z</time>
      </trkpt>
      <trkpt lat="41.4299240" lon="-8.7837370">
        <ele>8.2</ele>
        <time>2021-05-17T06:23:18Z</time>
      </trkpt>
      <trkpt lat="41.4299380" lon="-8.7837390">
        <ele>8.2</ele>
        <time>2021-05-17T06:23:19Z</time>
      </trkpt>
      <trkpt lat="41.4299560" lon="-8.7837370">
        <ele>8.2</ele>
        <time>2021-05-17T06:23:20Z</time>
      </trkpt>
      <trkpt lat="41.4299720" lon="-8.7837370">
        <ele>8.2</ele>
        <time>2021-05-17T06:23:21Z</time>
      </trkpt>
      <trkpt lat="41.4299890" lon="-8.7837370">
        <ele>8.2</ele>
        <time>2021-05-17T06:23:22Z</time>
      </trkpt>
      <trkpt lat="41.4300050" lon="-8.7837310">
        <ele>8.2</ele>
        <time>2021-05-17T06:23:23Z</time>
      </trkpt>
      <trkpt lat="41.4300200" lon="-8.7837310">
        <ele>8.2</ele>
        <time>2021-05-17T06:23:24Z</time>
      </trkpt>
      <trkpt lat="41.4300370" lon="-8.7837360">
        <ele>8.2</ele>
        <time>2021-05-17T06:23:25Z</time>
      </trkpt>
      <trkpt lat="41.4300510" lon="-8.7837350">
        <ele>8.1</ele>
        <time>2021-05-17T06:23:26Z</time>
      </trkpt>
      <trkpt lat="41.4300730" lon="-8.7837370">
        <ele>8.1</ele>
        <time>2021-05-17T06:23:27Z</time>
      </trkpt>
      <trkpt lat="41.4300870" lon="-8.7837350">
        <ele>8.1</ele>
        <time>2021-05-17T06:23:28Z</time>
      </trkpt>
      <trkpt lat="41.4301040" lon="-8.7837420">
        <ele>8.1</ele>
        <time>2021-05-17T06:23:29Z</time>
      </trkpt>
      <trkpt lat="41.4301180" lon="-8.7837330">
        <ele>8.1</ele>
        <time>2021-05-17T06:23:30Z</time>
      </trkpt>
      <trkpt lat="41.4301330" lon="-8.7837340">
        <ele>8.1</ele>
        <time>2021-05-17T06:23:31Z</time>
      </trkpt>
      <trkpt lat="41.4301460" lon="-8.7837310">
        <ele>8.1</ele>
        <time>2021-05-17T06:23:32Z</time>
      </trkpt>
      <trkpt lat="41.4301640" lon="-8.7837380">
        <ele>8.1</ele>
        <time>2021-05-17T06:23:33Z</time>
      </trkpt>
      <trkpt lat="41.4301810" lon="-8.7837400">
        <ele>8.1</ele>
        <time>2021-05-17T06:23:34Z</time>
      </trkpt>
      <trkpt lat="41.4301940" lon="-8.7837390">
        <ele>8.1</ele>
        <time>2021-05-17T06:23:35Z</time>
      </trkpt>
      <trkpt lat="41.4302110" lon="-8.7837420">
        <ele>8.0</ele>
        <time>2021-05-17T06:23:36Z</time>
      </trkpt>
      <trkpt lat="41.4302250" lon="-8.7837450">
        <ele>8.0</ele>
        <time>2021-05-17T06:23:37Z</time>
      </trkpt>
      <trkpt lat="41.4302440" lon="-8.7837500">
        <ele>8.0</ele>
        <time>2021-05-17T06:23:38Z</time>
      </trkpt>
      <trkpt lat="41.4302540" lon="-8.7837490">
        <ele>8.0</ele>
        <time>2021-05-17T06:23:39Z</time>
      </trkpt>
      <trkpt lat="41.4302730" lon="-8.7837480">
        <ele>8.0</ele>
        <time>2021-05-17T06:23:40Z</time>
      </trkpt>
      <trkpt lat="41.4302940" lon="-8.7837400">
        <ele>8.0</ele>
        <time>2021-05-17T06:23:41Z</time>
      </trkpt>
      <trkpt lat="41.4303030" lon="-8.7837430">
        <ele>8.0</ele>
        <time>2021-05-17T06:23:42Z</time>
      </trkpt>
      <trkpt lat="41.4303130" lon="-8.7837450">
        <ele>8.0</ele>
        <time>2021-05-17T06:23:43Z</time>
      </trkpt>
      <trkpt lat="41.4303280" lon="-8.7837430">
        <ele>8.0</ele>
        <time>2021-05-17T06:23:44Z</time>
      </trkpt>
      <trkpt lat="41.4303420" lon="-8.7837450">
        <ele>8.0</ele>
        <time>2021-05-17T06:23:45Z</time>
      </trkpt>
      <trkpt lat="41.4303600" lon="-8.7837450">
        <ele>8.0</ele>
        <time>2021-05-17T06:23:46Z</time>
      </trkpt>
      <trkpt lat="41.4303740" lon="-8.7837460">
        <ele>8.0</ele>
        <time>2021-05-17T06:23:47Z</time>
      </trkpt>
      <trkpt lat="41.4303880" lon="-8.7837460">
        <ele>8.0</ele>
        <time>2021-05-17T06:23:48Z</time>
      </trkpt>
      <trkpt lat="41.4304040" lon="-8.7837490">
        <ele>8.0</ele>
        <time>2021-05-17T06:23:49Z</time>
      </trkpt>
      <trkpt lat="41.4304170" lon="-8.7837470">
        <ele>8.0</ele>
        <time>2021-05-17T06:23:50Z</time>
      </trkpt>
      <trkpt lat="41.4304320" lon="-8.7837480">
        <ele>8.0</ele>
        <time>2021-05-17T06:23:51Z</time>
      </trkpt>
      <trkpt lat="41.4304540" lon="-8.7837510">
        <ele>8.0</ele>
        <time>2021-05-17T06:23:52Z</time>
      </trkpt>
      <trkpt lat="41.4304620" lon="-8.7837520">
        <ele>8.0</ele>
        <time>2021-05-17T06:23:53Z</time>
      </trkpt>
      <trkpt lat="41.4304700" lon="-8.7837540">
        <ele>8.0</ele>
        <time>2021-05-17T06:23:54Z</time>
      </trkpt>
      <trkpt lat="41.4304910" lon="-8.7837560">
        <ele>8.0</ele>
        <time>2021-05-17T06:23:55Z</time>
      </trkpt>
      <trkpt lat="41.4305050" lon="-8.7837580">
        <ele>8.0</ele>
        <time>2021-05-17T06:23:56Z</time>
      </trkpt>
      <trkpt lat="41.4305290" lon="-8.7837570">
        <ele>8.0</ele>
        <time>2021-05-17T06:23:57Z</time>
      </trkpt>
      <trkpt lat="41.4305380" lon="-8.7837570">
        <ele>8.0</ele>
        <time>2021-05-17T06:23:58Z</time>
      </trkpt>
      <trkpt lat="41.4305480" lon="-8.7837560">
        <ele>8.0</ele>
        <time>2021-05-17T06:23:59Z</time>
      </trkpt>
      <trkpt lat="41.4305670" lon="-8.7837620">
        <ele>8.0</ele>
        <time>2021-05-17T06:24:00Z</time>
      </trkpt>
      <trkpt lat="41.4305780" lon="-8.7837610">
        <ele>8.0</ele>
        <time>2021-05-17T06:24:01Z</time>
      </trkpt>
      <trkpt lat="41.4305880" lon="-8.7837610">
        <ele>8.0</ele>
        <time>2021-05-17T06:24:02Z</time>
      </trkpt>
      <trkpt lat="41.4306020" lon="-8.7837570">
        <ele>8.0</ele>
        <time>2021-05-17T06:24:03Z</time>
      </trkpt>
      <trkpt lat="41.4306160" lon="-8.7837550">
        <ele>8.0</ele>
        <time>2021-05-17T06:24:04Z</time>
      </trkpt>
      <trkpt lat="41.4306330" lon="-8.7837460">
        <ele>8.0</ele>
        <time>2021-05-17T06:24:05Z</time>
      </trkpt>
      <trkpt lat="41.4306440" lon="-8.7837300">
        <ele>8.0</ele>
        <time>2021-05-17T06:24:06Z</time>
      </trkpt>
      <trkpt lat="41.4306590" lon="-8.7837250">
        <ele>8.0</ele>
        <time>2021-05-17T06:24:07Z</time>
      </trkpt>
      <trkpt lat="41.4306740" lon="-8.7837270">
        <ele>8.0</ele>
        <time>2021-05-17T06:24:08Z</time>
      </trkpt>
      <trkpt lat="41.4306950" lon="-8.7837170">
        <ele>8.0</ele>
        <time>2021-05-17T06:24:09Z</time>
      </trkpt>
      <trkpt lat="41.4307040" lon="-8.7837200">
        <ele>8.0</ele>
        <time>2021-05-17T06:24:10Z</time>
      </trkpt>
      <trkpt lat="41.4307140" lon="-8.7837220">
        <ele>7.9</ele>
        <time>2021-05-17T06:24:11Z</time>
      </trkpt>
      <trkpt lat="41.4307270" lon="-8.7837210">
        <ele>7.9</ele>
        <time>2021-05-17T06:24:12Z</time>
      </trkpt>
      <trkpt lat="41.4307410" lon="-8.7837160">
        <ele>7.9</ele>
        <time>2021-05-17T06:24:13Z</time>
      </trkpt>
      <trkpt lat="41.4307540" lon="-8.7837110">
        <ele>7.8</ele>
        <time>2021-05-17T06:24:14Z</time>
      </trkpt>
      <trkpt lat="41.4307670" lon="-8.7836920">
        <ele>7.7</ele>
        <time>2021-05-17T06:24:15Z</time>
      </trkpt>
      <trkpt lat="41.4307770" lon="-8.7836700">
        <ele>7.7</ele>
        <time>2021-05-17T06:24:16Z</time>
      </trkpt>
      <trkpt lat="41.4307840" lon="-8.7836580">
        <ele>7.7</ele>
        <time>2021-05-17T06:24:17Z</time>
      </trkpt>
      <trkpt lat="41.4307910" lon="-8.7836400">
        <ele>7.7</ele>
        <time>2021-05-17T06:24:18Z</time>
      </trkpt>
      <trkpt lat="41.4308020" lon="-8.7836190">
        <ele>7.7</ele>
        <time>2021-05-17T06:24:19Z</time>
      </trkpt>
      <trkpt lat="41.4308080" lon="-8.7836000">
        <ele>7.7</ele>
        <time>2021-05-17T06:24:20Z</time>
      </trkpt>
      <trkpt lat="41.4308120" lon="-8.7835810">
        <ele>7.7</ele>
        <time>2021-05-17T06:24:21Z</time>
      </trkpt>
      <trkpt lat="41.4308160" lon="-8.7835540">
        <ele>7.8</ele>
        <time>2021-05-17T06:24:22Z</time>
      </trkpt>
      <trkpt lat="41.4308180" lon="-8.7835410">
        <ele>7.8</ele>
        <time>2021-05-17T06:24:23Z</time>
      </trkpt>
      <trkpt lat="41.4308200" lon="-8.7835290">
        <ele>7.8</ele>
        <time>2021-05-17T06:24:24Z</time>
      </trkpt>
      <trkpt lat="41.4308260" lon="-8.7835110">
        <ele>7.9</ele>
        <time>2021-05-17T06:24:25Z</time>
      </trkpt>
      <trkpt lat="41.4308290" lon="-8.7834950">
        <ele>8.0</ele>
        <time>2021-05-17T06:24:26Z</time>
      </trkpt>
      <trkpt lat="41.4308430" lon="-8.7834820">
        <ele>8.0</ele>
        <time>2021-05-17T06:24:27Z</time>
      </trkpt>
      <trkpt lat="41.4308540" lon="-8.7834750">
        <ele>8.0</ele>
        <time>2021-05-17T06:24:28Z</time>
      </trkpt>
      <trkpt lat="41.4308600" lon="-8.7834610">
        <ele>8.0</ele>
        <time>2021-05-17T06:24:29Z</time>
      </trkpt>
      <trkpt lat="41.4308740" lon="-8.7834480">
        <ele>8.0</ele>
        <time>2021-05-17T06:24:30Z</time>
      </trkpt>
      <trkpt lat="41.4308840" lon="-8.7834320">
        <ele>8.0</ele>
        <time>2021-05-17T06:24:31Z</time>
      </trkpt>
      <trkpt lat="41.4308840" lon="-8.7834180">
        <ele>8.0</ele>
        <time>2021-05-17T06:24:32Z</time>
      </trkpt>
      <trkpt lat="41.4308880" lon="-8.7834040">
        <ele>8.0</ele>
        <time>2021-05-17T06:24:33Z</time>
      </trkpt>
      <trkpt lat="41.4308960" lon="-8.7833940">
        <ele>8.0</ele>
        <time>2021-05-17T06:24:34Z</time>
      </trkpt>
      <trkpt lat="41.4309050" lon="-8.7833860">
        <ele>8.0</ele>
        <time>2021-05-17T06:24:35Z</time>
      </trkpt>
      <trkpt lat="41.4309150" lon="-8.7833780">
        <ele>8.0</ele>
        <time>2021-05-17T06:24:36Z</time>
      </trkpt>
      <trkpt lat="41.4309240" lon="-8.7833730">
        <ele>8.0</ele>
        <time>2021-05-17T06:24:37Z</time>
      </trkpt>
      <trkpt lat="41.4309220" lon="-8.7833660">
        <ele>8.0</ele>
        <time>2021-05-17T06:24:38Z</time>
      </trkpt>
      <trkpt lat="41.4309120" lon="-8.7833690">
        <ele>8.0</ele>
        <time>2021-05-17T06:24:39Z</time>
      </trkpt>
      <trkpt lat="41.4309080" lon="-8.7833700">
        <ele>8.0</ele>
        <time>2021-05-17T06:24:40Z</time>
      </trkpt>
      <trkpt lat="41.4309050" lon="-8.7833700">
        <ele>8.0</ele>
        <time>2021-05-17T06:24:41Z</time>
      </trkpt>
      <trkpt lat="41.4309050" lon="-8.7833730">
        <ele>8.0</ele>
        <time>2021-05-17T06:24:42Z</time>
      </trkpt>
      <trkpt lat="41.4309070" lon="-8.7833740">
        <ele>8.0</ele>
        <time>2021-05-17T06:24:43Z</time>
      </trkpt>
      <trkpt lat="41.4309190" lon="-8.7833850">
        <ele>8.0</ele>
        <time>2021-05-17T06:24:44Z</time>
      </trkpt>
      <trkpt lat="41.4309330" lon="-8.7833990">
        <ele>8.0</ele>
        <time>2021-05-17T06:24:45Z</time>
      </trkpt>
      <trkpt lat="41.4309400" lon="-8.7834090">
        <ele>8.0</ele>
        <time>2021-05-17T06:24:46Z</time>
      </trkpt>
      <trkpt lat="41.4309500" lon="-8.7834300">
        <ele>8.0</ele>
        <time>2021-05-17T06:24:47Z</time>
      </trkpt>
      <trkpt lat="41.4309490" lon="-8.7834430">
        <ele>8.0</ele>
        <time>2021-05-17T06:24:48Z</time>
      </trkpt>
      <trkpt lat="41.4309610" lon="-8.7834820">
        <ele>8.0</ele>
        <time>2021-05-17T06:24:49Z</time>
      </trkpt>
      <trkpt lat="41.4309650" lon="-8.7834950">
        <ele>8.0</ele>
        <time>2021-05-17T06:24:50Z</time>
      </trkpt>
      <trkpt lat="41.4309720" lon="-8.7835210">
        <ele>8.0</ele>
        <time>2021-05-17T06:24:51Z</time>
      </trkpt>
      <trkpt lat="41.4309760" lon="-8.7835340">
        <ele>8.0</ele>
        <time>2021-05-17T06:24:52Z</time>
      </trkpt>
      <trkpt lat="41.4309810" lon="-8.7835600">
        <ele>7.9</ele>
        <time>2021-05-17T06:24:53Z</time>
      </trkpt>
      <trkpt lat="41.4309830" lon="-8.7835750">
        <ele>7.9</ele>
        <time>2021-05-17T06:24:54Z</time>
      </trkpt>
      <trkpt lat="41.4309860" lon="-8.7836080">
        <ele>7.9</ele>
        <time>2021-05-17T06:24:55Z</time>
      </trkpt>
      <trkpt lat="41.4309910" lon="-8.7836150">
        <ele>7.9</ele>
        <time>2021-05-17T06:24:56Z</time>
      </trkpt>
      <trkpt lat="41.4310050" lon="-8.7836540">
        <ele>7.9</ele>
        <time>2021-05-17T06:24:57Z</time>
      </trkpt>
      <trkpt lat="41.4310060" lon="-8.7836620">
        <ele>7.9</ele>
        <time>2021-05-17T06:24:58Z</time>
      </trkpt>
      <trkpt lat="41.4310120" lon="-8.7836890">
        <ele>7.9</ele>
        <time>2021-05-17T06:24:59Z</time>
      </trkpt>
      <trkpt lat="41.4310200" lon="-8.7837020">
        <ele>7.9</ele>
        <time>2021-05-17T06:25:00Z</time>
      </trkpt>
      <trkpt lat="41.4310340" lon="-8.7837090">
        <ele>7.9</ele>
        <time>2021-05-17T06:25:01Z</time>
      </trkpt>
      <trkpt lat="41.4310480" lon="-8.7837090">
        <ele>7.9</ele>
        <time>2021-05-17T06:25:02Z</time>
      </trkpt>
      <trkpt lat="41.4310590" lon="-8.7837100">
        <ele>7.9</ele>
        <time>2021-05-17T06:25:03Z</time>
      </trkpt>
      <trkpt lat="41.4310770" lon="-8.7837140">
        <ele>7.9</ele>
        <time>2021-05-17T06:25:04Z</time>
      </trkpt>
      <trkpt lat="41.4310910" lon="-8.7837140">
        <ele>7.9</ele>
        <time>2021-05-17T06:25:05Z</time>
      </trkpt>
      <trkpt lat="41.4311100" lon="-8.7837130">
        <ele>8.0</ele>
        <time>2021-05-17T06:25:06Z</time>
      </trkpt>
      <trkpt lat="41.4311330" lon="-8.7837160">
        <ele>8.0</ele>
        <time>2021-05-17T06:25:07Z</time>
      </trkpt>
      <trkpt lat="41.4311410" lon="-8.7837140">
        <ele>8.0</ele>
        <time>2021-05-17T06:25:08Z</time>
      </trkpt>
      <trkpt lat="41.4311500" lon="-8.7837120">
        <ele>8.0</ele>
        <time>2021-05-17T06:25:09Z</time>
      </trkpt>
      <trkpt lat="41.4311690" lon="-8.7837130">
        <ele>8.0</ele>
        <time>2021-05-17T06:25:10Z</time>
      </trkpt>
      <trkpt lat="41.4311800" lon="-8.7837180">
        <ele>8.0</ele>
        <time>2021-05-17T06:25:11Z</time>
      </trkpt>
      <trkpt lat="41.4311920" lon="-8.7837230">
        <ele>8.0</ele>
        <time>2021-05-17T06:25:12Z</time>
      </trkpt>
      <trkpt lat="41.4312080" lon="-8.7837190">
        <ele>8.0</ele>
        <time>2021-05-17T06:25:13Z</time>
      </trkpt>
      <trkpt lat="41.4312290" lon="-8.7837220">
        <ele>8.0</ele>
        <time>2021-05-17T06:25:14Z</time>
      </trkpt>
      <trkpt lat="41.4312390" lon="-8.7837240">
        <ele>8.0</ele>
        <time>2021-05-17T06:25:15Z</time>
      </trkpt>
      <trkpt lat="41.4312490" lon="-8.7837250">
        <ele>8.0</ele>
        <time>2021-05-17T06:25:16Z</time>
      </trkpt>
      <trkpt lat="41.4312630" lon="-8.7837270">
        <ele>8.0</ele>
        <time>2021-05-17T06:25:17Z</time>
      </trkpt>
      <trkpt lat="41.4312800" lon="-8.7837340">
        <ele>8.0</ele>
        <time>2021-05-17T06:25:18Z</time>
      </trkpt>
      <trkpt lat="41.4312970" lon="-8.7837360">
        <ele>8.0</ele>
        <time>2021-05-17T06:25:19Z</time>
      </trkpt>
      <trkpt lat="41.4313120" lon="-8.7837350">
        <ele>8.0</ele>
        <time>2021-05-17T06:25:20Z</time>
      </trkpt>
      <trkpt lat="41.4313280" lon="-8.7837380">
        <ele>8.0</ele>
        <time>2021-05-17T06:25:21Z</time>
      </trkpt>
      <trkpt lat="41.4313430" lon="-8.7837430">
        <ele>7.9</ele>
        <time>2021-05-17T06:25:22Z</time>
      </trkpt>
      <trkpt lat="41.4313580" lon="-8.7837440">
        <ele>7.9</ele>
        <time>2021-05-17T06:25:23Z</time>
      </trkpt>
      <trkpt lat="41.4313730" lon="-8.7837550">
        <ele>7.9</ele>
        <time>2021-05-17T06:25:24Z</time>
      </trkpt>
      <trkpt lat="41.4313880" lon="-8.7837540">
        <ele>7.9</ele>
        <time>2021-05-17T06:25:25Z</time>
      </trkpt>
      <trkpt lat="41.4314070" lon="-8.7837540">
        <ele>7.9</ele>
        <time>2021-05-17T06:25:26Z</time>
      </trkpt>
      <trkpt lat="41.4314240" lon="-8.7837570">
        <ele>7.9</ele>
        <time>2021-05-17T06:25:27Z</time>
      </trkpt>
      <trkpt lat="41.4314400" lon="-8.7837550">
        <ele>7.9</ele>
        <time>2021-05-17T06:25:28Z</time>
      </trkpt>
      <trkpt lat="41.4314550" lon="-8.7837580">
        <ele>7.9</ele>
        <time>2021-05-17T06:25:29Z</time>
      </trkpt>
      <trkpt lat="41.4314700" lon="-8.7837580">
        <ele>7.9</ele>
        <time>2021-05-17T06:25:30Z</time>
      </trkpt>
      <trkpt lat="41.4314860" lon="-8.7837580">
        <ele>7.9</ele>
        <time>2021-05-17T06:25:31Z</time>
      </trkpt>
      <trkpt lat="41.4315010" lon="-8.7837520">
        <ele>7.9</ele>
        <time>2021-05-17T06:25:32Z</time>
      </trkpt>
      <trkpt lat="41.4315150" lon="-8.7837570">
        <ele>7.9</ele>
        <time>2021-05-17T06:25:33Z</time>
      </trkpt>
      <trkpt lat="41.4315310" lon="-8.7837590">
        <ele>7.8</ele>
        <time>2021-05-17T06:25:34Z</time>
      </trkpt>
      <trkpt lat="41.4315450" lon="-8.7837590">
        <ele>7.8</ele>
        <time>2021-05-17T06:25:35Z</time>
      </trkpt>
      <trkpt lat="41.4315600" lon="-8.7837590">
        <ele>7.8</ele>
        <time>2021-05-17T06:25:36Z</time>
      </trkpt>
      <trkpt lat="41.4315750" lon="-8.7837640">
        <ele>7.8</ele>
        <time>2021-05-17T06:25:37Z</time>
      </trkpt>
      <trkpt lat="41.4315900" lon="-8.7837580">
        <ele>7.8</ele>
        <time>2021-05-17T06:25:38Z</time>
      </trkpt>
      <trkpt lat="41.4316050" lon="-8.7837620">
        <ele>7.8</ele>
        <time>2021-05-17T06:25:39Z</time>
      </trkpt>
      <trkpt lat="41.4316180" lon="-8.7837650">
        <ele>7.8</ele>
        <time>2021-05-17T06:25:40Z</time>
      </trkpt>
      <trkpt lat="41.4316360" lon="-8.7837620">
        <ele>7.8</ele>
        <time>2021-05-17T06:25:41Z</time>
      </trkpt>
      <trkpt lat="41.4316490" lon="-8.7837540">
        <ele>7.8</ele>
        <time>2021-05-17T06:25:42Z</time>
      </trkpt>
      <trkpt lat="41.4316640" lon="-8.7837540">
        <ele>7.8</ele>
        <time>2021-05-17T06:25:43Z</time>
      </trkpt>
      <trkpt lat="41.4316800" lon="-8.7837510">
        <ele>7.8</ele>
        <time>2021-05-17T06:25:44Z</time>
      </trkpt>
      <trkpt lat="41.4316940" lon="-8.7837480">
        <ele>7.8</ele>
        <time>2021-05-17T06:25:45Z</time>
      </trkpt>
      <trkpt lat="41.4317100" lon="-8.7837410">
        <ele>7.8</ele>
        <time>2021-05-17T06:25:46Z</time>
      </trkpt>
      <trkpt lat="41.4317250" lon="-8.7837400">
        <ele>7.8</ele>
        <time>2021-05-17T06:25:47Z</time>
      </trkpt>
      <trkpt lat="41.4317410" lon="-8.7837450">
        <ele>7.7</ele>
        <time>2021-05-17T06:25:48Z</time>
      </trkpt>
      <trkpt lat="41.4317630" lon="-8.7837410">
        <ele>7.7</ele>
        <time>2021-05-17T06:25:49Z</time>
      </trkpt>
      <trkpt lat="41.4317730" lon="-8.7837380">
        <ele>7.7</ele>
        <time>2021-05-17T06:25:50Z</time>
      </trkpt>
      <trkpt lat="41.4317840" lon="-8.7837360">
        <ele>7.7</ele>
        <time>2021-05-17T06:25:51Z</time>
      </trkpt>
      <trkpt lat="41.4317980" lon="-8.7837370">
        <ele>7.7</ele>
        <time>2021-05-17T06:25:52Z</time>
      </trkpt>
      <trkpt lat="41.4318130" lon="-8.7837280">
        <ele>7.7</ele>
        <time>2021-05-17T06:25:53Z</time>
      </trkpt>
      <trkpt lat="41.4318300" lon="-8.7836990">
        <ele>7.7</ele>
        <time>2021-05-17T06:25:54Z</time>
      </trkpt>
      <trkpt lat="41.4318350" lon="-8.7836880">
        <ele>7.7</ele>
        <time>2021-05-17T06:25:55Z</time>
      </trkpt>
      <trkpt lat="41.4318430" lon="-8.7836680">
        <ele>7.6</ele>
        <time>2021-05-17T06:25:56Z</time>
      </trkpt>
      <trkpt lat="41.4318500" lon="-8.7836460">
        <ele>7.6</ele>
        <time>2021-05-17T06:25:57Z</time>
      </trkpt>
      <trkpt lat="41.4318540" lon="-8.7836220">
        <ele>7.6</ele>
        <time>2021-05-17T06:25:58Z</time>
      </trkpt>
      <trkpt lat="41.4318580" lon="-8.7836000">
        <ele>7.6</ele>
        <time>2021-05-17T06:25:59Z</time>
      </trkpt>
      <trkpt lat="41.4318630" lon="-8.7835820">
        <ele>7.6</ele>
        <time>2021-05-17T06:26:00Z</time>
      </trkpt>
      <trkpt lat="41.4318710" lon="-8.7835600">
        <ele>7.6</ele>
        <time>2021-05-17T06:26:01Z</time>
      </trkpt>
      <trkpt lat="41.4318710" lon="-8.7835380">
        <ele>7.6</ele>
        <time>2021-05-17T06:26:02Z</time>
      </trkpt>
      <trkpt lat="41.4318790" lon="-8.7835170">
        <ele>7.5</ele>
        <time>2021-05-17T06:26:03Z</time>
      </trkpt>
      <trkpt lat="41.4318790" lon="-8.7834990">
        <ele>7.5</ele>
        <time>2021-05-17T06:26:04Z</time>
      </trkpt>
      <trkpt lat="41.4318860" lon="-8.7834820">
        <ele>7.5</ele>
        <time>2021-05-17T06:26:05Z</time>
      </trkpt>
      <trkpt lat="41.4318880" lon="-8.7834620">
        <ele>7.5</ele>
        <time>2021-05-17T06:26:06Z</time>
      </trkpt>
      <trkpt lat="41.4319000" lon="-8.7834450">
        <ele>7.3</ele>
        <time>2021-05-17T06:26:07Z</time>
      </trkpt>
      <trkpt lat="41.4319030" lon="-8.7834260">
        <ele>7.2</ele>
        <time>2021-05-17T06:26:08Z</time>
      </trkpt>
      <trkpt lat="41.4319080" lon="-8.7834070">
        <ele>7.1</ele>
        <time>2021-05-17T06:26:09Z</time>
      </trkpt>
      <trkpt lat="41.4319160" lon="-8.7833940">
        <ele>7.0</ele>
        <time>2021-05-17T06:26:10Z</time>
      </trkpt>
      <trkpt lat="41.4319260" lon="-8.7833900">
        <ele>7.0</ele>
        <time>2021-05-17T06:26:11Z</time>
      </trkpt>
      <trkpt lat="41.4319320" lon="-8.7833810">
        <ele>6.9</ele>
        <time>2021-05-17T06:26:12Z</time>
      </trkpt>
      <trkpt lat="41.4319400" lon="-8.7833820">
        <ele>6.9</ele>
        <time>2021-05-17T06:26:13Z</time>
      </trkpt>
      <trkpt lat="41.4319480" lon="-8.7833630">
        <ele>6.8</ele>
        <time>2021-05-17T06:26:14Z</time>
      </trkpt>
      <trkpt lat="41.4319600" lon="-8.7833540">
        <ele>6.8</ele>
        <time>2021-05-17T06:26:15Z</time>
      </trkpt>
      <trkpt lat="41.4319760" lon="-8.7833440">
        <ele>6.7</ele>
        <time>2021-05-17T06:26:16Z</time>
      </trkpt>
      <trkpt lat="41.4319850" lon="-8.7833390">
        <ele>6.6</ele>
        <time>2021-05-17T06:26:17Z</time>
      </trkpt>
      <trkpt lat="41.4319930" lon="-8.7833340">
        <ele>6.6</ele>
        <time>2021-05-17T06:26:18Z</time>
      </trkpt>
      <trkpt lat="41.4320030" lon="-8.7833210">
        <ele>6.5</ele>
        <time>2021-05-17T06:26:19Z</time>
      </trkpt>
      <trkpt lat="41.4320190" lon="-8.7833110">
        <ele>6.4</ele>
        <time>2021-05-17T06:26:20Z</time>
      </trkpt>
      <trkpt lat="41.4320340" lon="-8.7832990">
        <ele>6.3</ele>
        <time>2021-05-17T06:26:21Z</time>
      </trkpt>
      <trkpt lat="41.4320490" lon="-8.7832890">
        <ele>6.2</ele>
        <time>2021-05-17T06:26:22Z</time>
      </trkpt>
      <trkpt lat="41.4320680" lon="-8.7832760">
        <ele>6.1</ele>
        <time>2021-05-17T06:26:23Z</time>
      </trkpt>
      <trkpt lat="41.4320780" lon="-8.7832680">
        <ele>6.0</ele>
        <time>2021-05-17T06:26:24Z</time>
      </trkpt>
      <trkpt lat="41.4320870" lon="-8.7832610">
        <ele>6.0</ele>
        <time>2021-05-17T06:26:25Z</time>
      </trkpt>
      <trkpt lat="41.4321060" lon="-8.7832520">
        <ele>5.9</ele>
        <time>2021-05-17T06:26:26Z</time>
      </trkpt>
      <trkpt lat="41.4321140" lon="-8.7832480">
        <ele>5.8</ele>
        <time>2021-05-17T06:26:27Z</time>
      </trkpt>
      <trkpt lat="41.4321230" lon="-8.7832430">
        <ele>5.8</ele>
        <time>2021-05-17T06:26:28Z</time>
      </trkpt>
      <trkpt lat="41.4321370" lon="-8.7832360">
        <ele>5.7</ele>
        <time>2021-05-17T06:26:29Z</time>
      </trkpt>
      <trkpt lat="41.4321500" lon="-8.7832200">
        <ele>5.6</ele>
        <time>2021-05-17T06:26:30Z</time>
      </trkpt>
      <trkpt lat="41.4321630" lon="-8.7832040">
        <ele>5.5</ele>
        <time>2021-05-17T06:26:31Z</time>
      </trkpt>
      <trkpt lat="41.4321740" lon="-8.7831890">
        <ele>5.5</ele>
        <time>2021-05-17T06:26:32Z</time>
      </trkpt>
      <trkpt lat="41.4321860" lon="-8.7831800">
        <ele>5.4</ele>
        <time>2021-05-17T06:26:33Z</time>
      </trkpt>
      <trkpt lat="41.4322030" lon="-8.7831750">
        <ele>5.3</ele>
        <time>2021-05-17T06:26:35Z</time>
      </trkpt>
      <trkpt lat="41.4322130" lon="-8.7831550">
        <ele>5.2</ele>
        <time>2021-05-17T06:26:36Z</time>
      </trkpt>
      <trkpt lat="41.4322240" lon="-8.7831460">
        <ele>5.2</ele>
        <time>2021-05-17T06:26:37Z</time>
      </trkpt>
      <trkpt lat="41.4322380" lon="-8.7831370">
        <ele>5.1</ele>
        <time>2021-05-17T06:26:38Z</time>
      </trkpt>
      <trkpt lat="41.4322520" lon="-8.7831290">
        <ele>5.0</ele>
        <time>2021-05-17T06:26:39Z</time>
      </trkpt>
      <trkpt lat="41.4322650" lon="-8.7831190">
        <ele>5.0</ele>
        <time>2021-05-17T06:26:40Z</time>
      </trkpt>
      <trkpt lat="41.4322770" lon="-8.7831130">
        <ele>4.9</ele>
        <time>2021-05-17T06:26:41Z</time>
      </trkpt>
      <trkpt lat="41.4322900" lon="-8.7831010">
        <ele>4.9</ele>
        <time>2021-05-17T06:26:42Z</time>
      </trkpt>
      <trkpt lat="41.4323050" lon="-8.7830900">
        <ele>4.8</ele>
        <time>2021-05-17T06:26:43Z</time>
      </trkpt>
      <trkpt lat="41.4323160" lon="-8.7830740">
        <ele>4.8</ele>
        <time>2021-05-17T06:26:44Z</time>
      </trkpt>
      <trkpt lat="41.4323250" lon="-8.7830650">
        <ele>4.7</ele>
        <time>2021-05-17T06:26:45Z</time>
      </trkpt>
      <trkpt lat="41.4323380" lon="-8.7830540">
        <ele>4.7</ele>
        <time>2021-05-17T06:26:46Z</time>
      </trkpt>
      <trkpt lat="41.4323500" lon="-8.7830470">
        <ele>4.6</ele>
        <time>2021-05-17T06:26:47Z</time>
      </trkpt>
      <trkpt lat="41.4323620" lon="-8.7830380">
        <ele>4.6</ele>
        <time>2021-05-17T06:26:48Z</time>
      </trkpt>
      <trkpt lat="41.4323760" lon="-8.7830280">
        <ele>4.6</ele>
        <time>2021-05-17T06:26:49Z</time>
      </trkpt>
      <trkpt lat="41.4323890" lon="-8.7830230">
        <ele>4.5</ele>
        <time>2021-05-17T06:26:50Z</time>
      </trkpt>
      <trkpt lat="41.4324050" lon="-8.7830160">
        <ele>4.5</ele>
        <time>2021-05-17T06:26:51Z</time>
      </trkpt>
      <trkpt lat="41.4324210" lon="-8.7830100">
        <ele>4.5</ele>
        <time>2021-05-17T06:26:52Z</time>
      </trkpt>
      <trkpt lat="41.4324340" lon="-8.7829940">
        <ele>4.5</ele>
        <time>2021-05-17T06:26:53Z</time>
      </trkpt>
      <trkpt lat="41.4324460" lon="-8.7829800">
        <ele>4.4</ele>
        <time>2021-05-17T06:26:54Z</time>
      </trkpt>
      <trkpt lat="41.4324560" lon="-8.7829580">
        <ele>4.4</ele>
        <time>2021-05-17T06:26:55Z</time>
      </trkpt>
      <trkpt lat="41.4324690" lon="-8.7829530">
        <ele>4.4</ele>
        <time>2021-05-17T06:26:56Z</time>
      </trkpt>
      <trkpt lat="41.4324810" lon="-8.7829430">
        <ele>4.4</ele>
        <time>2021-05-17T06:26:57Z</time>
      </trkpt>
      <trkpt lat="41.4325080" lon="-8.7829240">
        <ele>4.3</ele>
        <time>2021-05-17T06:26:58Z</time>
      </trkpt>
      <trkpt lat="41.4325220" lon="-8.7829130">
        <ele>4.3</ele>
        <time>2021-05-17T06:26:59Z</time>
      </trkpt>
      <trkpt lat="41.4325400" lon="-8.7829130">
        <ele>4.3</ele>
        <time>2021-05-17T06:27:00Z</time>
      </trkpt>
      <trkpt lat="41.4325530" lon="-8.7829030">
        <ele>4.3</ele>
        <time>2021-05-17T06:27:01Z</time>
      </trkpt>
      <trkpt lat="41.4325690" lon="-8.7828950">
        <ele>4.3</ele>
        <time>2021-05-17T06:27:02Z</time>
      </trkpt>
      <trkpt lat="41.4325830" lon="-8.7828800">
        <ele>4.2</ele>
        <time>2021-05-17T06:27:03Z</time>
      </trkpt>
      <trkpt lat="41.4325960" lon="-8.7828710">
        <ele>4.2</ele>
        <time>2021-05-17T06:27:04Z</time>
      </trkpt>
      <trkpt lat="41.4326100" lon="-8.7828600">
        <ele>4.2</ele>
        <time>2021-05-17T06:27:05Z</time>
      </trkpt>
      <trkpt lat="41.4326220" lon="-8.7828510">
        <ele>4.2</ele>
        <time>2021-05-17T06:27:06Z</time>
      </trkpt>
      <trkpt lat="41.4326350" lon="-8.7828300">
        <ele>4.2</ele>
        <time>2021-05-17T06:27:07Z</time>
      </trkpt>
      <trkpt lat="41.4326380" lon="-8.7828160">
        <ele>4.2</ele>
        <time>2021-05-17T06:27:08Z</time>
      </trkpt>
      <trkpt lat="41.4326420" lon="-8.7828020">
        <ele>4.2</ele>
        <time>2021-05-17T06:27:09Z</time>
      </trkpt>
      <trkpt lat="41.4326400" lon="-8.7827660">
        <ele>4.2</ele>
        <time>2021-05-17T06:27:10Z</time>
      </trkpt>
      <trkpt lat="41.4326390" lon="-8.7827490">
        <ele>4.2</ele>
        <time>2021-05-17T06:27:11Z</time>
      </trkpt>
      <trkpt lat="41.4326440" lon="-8.7827280">
        <ele>4.2</ele>
        <time>2021-05-17T06:27:12Z</time>
      </trkpt>
      <trkpt lat="41.4326390" lon="-8.7827090">
        <ele>4.2</ele>
        <time>2021-05-17T06:27:13Z</time>
      </trkpt>
      <trkpt lat="41.4326390" lon="-8.7826880">
        <ele>4.2</ele>
        <time>2021-05-17T06:27:14Z</time>
      </trkpt>
      <trkpt lat="41.4326360" lon="-8.7826640">
        <ele>4.2</ele>
        <time>2021-05-17T06:27:15Z</time>
      </trkpt>
      <trkpt lat="41.4326290" lon="-8.7826450">
        <ele>4.2</ele>
        <time>2021-05-17T06:27:16Z</time>
      </trkpt>
      <trkpt lat="41.4326250" lon="-8.7826240">
        <ele>4.2</ele>
        <time>2021-05-17T06:27:17Z</time>
      </trkpt>
      <trkpt lat="41.4326210" lon="-8.7826020">
        <ele>4.2</ele>
        <time>2021-05-17T06:27:18Z</time>
      </trkpt>
      <trkpt lat="41.4326160" lon="-8.7825840">
        <ele>4.2</ele>
        <time>2021-05-17T06:27:19Z</time>
      </trkpt>
      <trkpt lat="41.4326060" lon="-8.7825620">
        <ele>4.2</ele>
        <time>2021-05-17T06:27:20Z</time>
      </trkpt>
      <trkpt lat="41.4326060" lon="-8.7825390">
        <ele>4.2</ele>
        <time>2021-05-17T06:27:21Z</time>
      </trkpt>
      <trkpt lat="41.4326120" lon="-8.7825200">
        <ele>4.1</ele>
        <time>2021-05-17T06:27:22Z</time>
      </trkpt>
      <trkpt lat="41.4326360" lon="-8.7824980">
        <ele>4.1</ele>
        <time>2021-05-17T06:27:23Z</time>
      </trkpt>
      <trkpt lat="41.4326460" lon="-8.7824930">
        <ele>4.1</ele>
        <time>2021-05-17T06:27:24Z</time>
      </trkpt>
      <trkpt lat="41.4326610" lon="-8.7824910">
        <ele>4.1</ele>
        <time>2021-05-17T06:27:25Z</time>
      </trkpt>
      <trkpt lat="41.4326780" lon="-8.7824910">
        <ele>4.0</ele>
        <time>2021-05-17T06:27:26Z</time>
      </trkpt>
      <trkpt lat="41.4326950" lon="-8.7824890">
        <ele>4.0</ele>
        <time>2021-05-17T06:27:27Z</time>
      </trkpt>
      <trkpt lat="41.4327110" lon="-8.7824890">
        <ele>4.0</ele>
        <time>2021-05-17T06:27:28Z</time>
      </trkpt>
      <trkpt lat="41.4327240" lon="-8.7824820">
        <ele>4.0</ele>
        <time>2021-05-17T06:27:29Z</time>
      </trkpt>
      <trkpt lat="41.4327400" lon="-8.7824790">
        <ele>4.0</ele>
        <time>2021-05-17T06:27:30Z</time>
      </trkpt>
      <trkpt lat="41.4327540" lon="-8.7824770">
        <ele>4.0</ele>
        <time>2021-05-17T06:27:31Z</time>
      </trkpt>
      <trkpt lat="41.4327710" lon="-8.7824740">
        <ele>4.0</ele>
        <time>2021-05-17T06:27:32Z</time>
      </trkpt>
      <trkpt lat="41.4327850" lon="-8.7824640">
        <ele>4.0</ele>
        <time>2021-05-17T06:27:33Z</time>
      </trkpt>
      <trkpt lat="41.4327990" lon="-8.7824570">
        <ele>3.9</ele>
        <time>2021-05-17T06:27:34Z</time>
      </trkpt>
      <trkpt lat="41.4328160" lon="-8.7824600">
        <ele>3.9</ele>
        <time>2021-05-17T06:27:35Z</time>
      </trkpt>
      <trkpt lat="41.4328310" lon="-8.7824580">
        <ele>3.9</ele>
        <time>2021-05-17T06:27:36Z</time>
      </trkpt>
      <trkpt lat="41.4328470" lon="-8.7824490">
        <ele>3.9</ele>
        <time>2021-05-17T06:27:37Z</time>
      </trkpt>
      <trkpt lat="41.4328590" lon="-8.7824460">
        <ele>3.9</ele>
        <time>2021-05-17T06:27:38Z</time>
      </trkpt>
      <trkpt lat="41.4328730" lon="-8.7824350">
        <ele>3.9</ele>
        <time>2021-05-17T06:27:39Z</time>
      </trkpt>
      <trkpt lat="41.4328880" lon="-8.7824320">
        <ele>3.9</ele>
        <time>2021-05-17T06:27:40Z</time>
      </trkpt>
      <trkpt lat="41.4329040" lon="-8.7824300">
        <ele>3.9</ele>
        <time>2021-05-17T06:27:41Z</time>
      </trkpt>
      <trkpt lat="41.4329230" lon="-8.7824240">
        <ele>3.9</ele>
        <time>2021-05-17T06:27:42Z</time>
      </trkpt>
      <trkpt lat="41.4329370" lon="-8.7824310">
        <ele>3.9</ele>
        <time>2021-05-17T06:27:43Z</time>
      </trkpt>
      <trkpt lat="41.4329530" lon="-8.7824320">
        <ele>3.9</ele>
        <time>2021-05-17T06:27:44Z</time>
      </trkpt>
      <trkpt lat="41.4329670" lon="-8.7824280">
        <ele>3.9</ele>
        <time>2021-05-17T06:27:45Z</time>
      </trkpt>
      <trkpt lat="41.4329840" lon="-8.7824290">
        <ele>3.9</ele>
        <time>2021-05-17T06:27:46Z</time>
      </trkpt>
      <trkpt lat="41.4329970" lon="-8.7824230">
        <ele>3.9</ele>
        <time>2021-05-17T06:27:47Z</time>
      </trkpt>
      <trkpt lat="41.4330120" lon="-8.7824220">
        <ele>3.9</ele>
        <time>2021-05-17T06:27:48Z</time>
      </trkpt>
      <trkpt lat="41.4330250" lon="-8.7824140">
        <ele>3.9</ele>
        <time>2021-05-17T06:27:49Z</time>
      </trkpt>
      <trkpt lat="41.4330390" lon="-8.7824100">
        <ele>3.9</ele>
        <time>2021-05-17T06:27:50Z</time>
      </trkpt>
      <trkpt lat="41.4330540" lon="-8.7824100">
        <ele>3.9</ele>
        <time>2021-05-17T06:27:51Z</time>
      </trkpt>
      <trkpt lat="41.4330670" lon="-8.7824020">
        <ele>3.9</ele>
        <time>2021-05-17T06:27:52Z</time>
      </trkpt>
      <trkpt lat="41.4330830" lon="-8.7824030">
        <ele>3.9</ele>
        <time>2021-05-17T06:27:53Z</time>
      </trkpt>
      <trkpt lat="41.4330970" lon="-8.7823970">
        <ele>3.9</ele>
        <time>2021-05-17T06:27:54Z</time>
      </trkpt>
      <trkpt lat="41.4331110" lon="-8.7823960">
        <ele>3.9</ele>
        <time>2021-05-17T06:27:55Z</time>
      </trkpt>
      <trkpt lat="41.4331280" lon="-8.7823870">
        <ele>3.9</ele>
        <time>2021-05-17T06:27:56Z</time>
      </trkpt>
      <trkpt lat="41.4331420" lon="-8.7823810">
        <ele>3.9</ele>
        <time>2021-05-17T06:27:57Z</time>
      </trkpt>
      <trkpt lat="41.4331580" lon="-8.7823800">
        <ele>3.9</ele>
        <time>2021-05-17T06:27:58Z</time>
      </trkpt>
      <trkpt lat="41.4331720" lon="-8.7823710">
        <ele>3.9</ele>
        <time>2021-05-17T06:27:59Z</time>
      </trkpt>
      <trkpt lat="41.4331880" lon="-8.7823680">
        <ele>3.9</ele>
        <time>2021-05-17T06:28:00Z</time>
      </trkpt>
      <trkpt lat="41.4332200" lon="-8.7823580">
        <ele>3.8</ele>
        <time>2021-05-17T06:28:02Z</time>
      </trkpt>
      <trkpt lat="41.4332330" lon="-8.7823620">
        <ele>3.8</ele>
        <time>2021-05-17T06:28:04Z</time>
      </trkpt>
      <trkpt lat="41.4332470" lon="-8.7823590">
        <ele>3.8</ele>
        <time>2021-05-17T06:28:05Z</time>
      </trkpt>
      <trkpt lat="41.4332680" lon="-8.7823470">
        <ele>3.8</ele>
        <time>2021-05-17T06:28:06Z</time>
      </trkpt>
      <trkpt lat="41.4332780" lon="-8.7823410">
        <ele>3.8</ele>
        <time>2021-05-17T06:28:07Z</time>
      </trkpt>
      <trkpt lat="41.4332870" lon="-8.7823350">
        <ele>3.8</ele>
        <time>2021-05-17T06:28:08Z</time>
      </trkpt>
      <trkpt lat="41.4332980" lon="-8.7823290">
        <ele>3.8</ele>
        <time>2021-05-17T06:28:09Z</time>
      </trkpt>
      <trkpt lat="41.4333120" lon="-8.7823220">
        <ele>3.8</ele>
        <time>2021-05-17T06:28:10Z</time>
      </trkpt>
      <trkpt lat="41.4333270" lon="-8.7823180">
        <ele>3.8</ele>
        <time>2021-05-17T06:28:11Z</time>
      </trkpt>
      <trkpt lat="41.4333430" lon="-8.7823140">
        <ele>3.8</ele>
        <time>2021-05-17T06:28:12Z</time>
      </trkpt>
      <trkpt lat="41.4333580" lon="-8.7823160">
        <ele>3.8</ele>
        <time>2021-05-17T06:28:13Z</time>
      </trkpt>
      <trkpt lat="41.4333730" lon="-8.7823180">
        <ele>3.8</ele>
        <time>2021-05-17T06:28:14Z</time>
      </trkpt>
      <trkpt lat="41.4333860" lon="-8.7823140">
        <ele>3.8</ele>
        <time>2021-05-17T06:28:15Z</time>
      </trkpt>
      <trkpt lat="41.4333990" lon="-8.7823120">
        <ele>3.8</ele>
        <time>2021-05-17T06:28:16Z</time>
      </trkpt>
      <trkpt lat="41.4334070" lon="-8.7823110">
        <ele>3.8</ele>
        <time>2021-05-17T06:28:17Z</time>
      </trkpt>
      <trkpt lat="41.4334120" lon="-8.7823150">
        <ele>3.8</ele>
        <time>2021-05-17T06:28:18Z</time>
      </trkpt>
      <trkpt lat="41.4334030" lon="-8.7823090">
        <ele>3.8</ele>
        <time>2021-05-17T06:28:19Z</time>
      </trkpt>
      <trkpt lat="41.4333930" lon="-8.7823050">
        <ele>3.7</ele>
        <time>2021-05-17T06:28:20Z</time>
      </trkpt>
      <trkpt lat="41.4333880" lon="-8.7823040">
        <ele>3.7</ele>
        <time>2021-05-17T06:28:21Z</time>
      </trkpt>
      <trkpt lat="41.4333830" lon="-8.7823030">
        <ele>3.7</ele>
        <time>2021-05-17T06:28:22Z</time>
      </trkpt>
      <trkpt lat="41.4333810" lon="-8.7823050">
        <ele>3.7</ele>
        <time>2021-05-17T06:28:23Z</time>
      </trkpt>
      <trkpt lat="41.4333800" lon="-8.7823040">
        <ele>3.7</ele>
        <time>2021-05-17T06:28:24Z</time>
      </trkpt>
      <trkpt lat="41.4333870" lon="-8.7823160">
        <ele>3.7</ele>
        <time>2021-05-17T06:28:25Z</time>
      </trkpt>
      <trkpt lat="41.4333940" lon="-8.7823270">
        <ele>3.7</ele>
        <time>2021-05-17T06:28:26Z</time>
      </trkpt>
      <trkpt lat="41.4334000" lon="-8.7823370">
        <ele>3.7</ele>
        <time>2021-05-17T06:28:27Z</time>
      </trkpt>
      <trkpt lat="41.4334060" lon="-8.7823480">
        <ele>3.7</ele>
        <time>2021-05-17T06:28:28Z</time>
      </trkpt>
      <trkpt lat="41.4334120" lon="-8.7823560">
        <ele>3.7</ele>
        <time>2021-05-17T06:28:29Z</time>
      </trkpt>
      <trkpt lat="41.4334200" lon="-8.7823700">
        <ele>3.7</ele>
        <time>2021-05-17T06:28:30Z</time>
      </trkpt>
      <trkpt lat="41.4334280" lon="-8.7823720">
        <ele>3.7</ele>
        <time>2021-05-17T06:28:31Z</time>
      </trkpt>
      <trkpt lat="41.4334430" lon="-8.7823870">
        <ele>3.7</ele>
        <time>2021-05-17T06:28:32Z</time>
      </trkpt>
      <trkpt lat="41.4334500" lon="-8.7823950">
        <ele>3.6</ele>
        <time>2021-05-17T06:28:33Z</time>
      </trkpt>
      <trkpt lat="41.4334640" lon="-8.7824070">
        <ele>3.6</ele>
        <time>2021-05-17T06:28:34Z</time>
      </trkpt>
      <trkpt lat="41.4334720" lon="-8.7824230">
        <ele>3.6</ele>
        <time>2021-05-17T06:28:35Z</time>
      </trkpt>
      <trkpt lat="41.4334830" lon="-8.7824440">
        <ele>3.6</ele>
        <time>2021-05-17T06:28:36Z</time>
      </trkpt>
      <trkpt lat="41.4334960" lon="-8.7824550">
        <ele>3.6</ele>
        <time>2021-05-17T06:28:37Z</time>
      </trkpt>
      <trkpt lat="41.4335020" lon="-8.7824580">
        <ele>3.6</ele>
        <time>2021-05-17T06:28:38Z</time>
      </trkpt>
      <trkpt lat="41.4335190" lon="-8.7824780">
        <ele>3.6</ele>
        <time>2021-05-17T06:28:39Z</time>
      </trkpt>
      <trkpt lat="41.4335220" lon="-8.7824850">
        <ele>3.6</ele>
        <time>2021-05-17T06:28:40Z</time>
      </trkpt>
      <trkpt lat="41.4335330" lon="-8.7824940">
        <ele>3.6</ele>
        <time>2021-05-17T06:28:41Z</time>
      </trkpt>
      <trkpt lat="41.4335430" lon="-8.7825090">
        <ele>3.6</ele>
        <time>2021-05-17T06:28:42Z</time>
      </trkpt>
      <trkpt lat="41.4335500" lon="-8.7825220">
        <ele>3.6</ele>
        <time>2021-05-17T06:28:43Z</time>
      </trkpt>
      <trkpt lat="41.4335590" lon="-8.7825390">
        <ele>3.5</ele>
        <time>2021-05-17T06:28:44Z</time>
      </trkpt>
      <trkpt lat="41.4335690" lon="-8.7825570">
        <ele>3.5</ele>
        <time>2021-05-17T06:28:45Z</time>
      </trkpt>
      <trkpt lat="41.4335840" lon="-8.7825710">
        <ele>3.5</ele>
        <time>2021-05-17T06:28:46Z</time>
      </trkpt>
      <trkpt lat="41.4336010" lon="-8.7825850">
        <ele>3.5</ele>
        <time>2021-05-17T06:28:47Z</time>
      </trkpt>
      <trkpt lat="41.4336100" lon="-8.7826020">
        <ele>3.6</ele>
        <time>2021-05-17T06:28:48Z</time>
      </trkpt>
      <trkpt lat="41.4336260" lon="-8.7826070">
        <ele>3.6</ele>
        <time>2021-05-17T06:28:49Z</time>
      </trkpt>
      <trkpt lat="41.4336360" lon="-8.7826250">
        <ele>3.7</ele>
        <time>2021-05-17T06:28:50Z</time>
      </trkpt>
      <trkpt lat="41.4336410" lon="-8.7826460">
        <ele>3.7</ele>
        <time>2021-05-17T06:28:51Z</time>
      </trkpt>
      <trkpt lat="41.4336460" lon="-8.7826610">
        <ele>3.8</ele>
        <time>2021-05-17T06:28:52Z</time>
      </trkpt>
      <trkpt lat="41.4336480" lon="-8.7826810">
        <ele>3.8</ele>
        <time>2021-05-17T06:28:53Z</time>
      </trkpt>
      <trkpt lat="41.4336490" lon="-8.7827000">
        <ele>3.9</ele>
        <time>2021-05-17T06:28:54Z</time>
      </trkpt>
      <trkpt lat="41.4336570" lon="-8.7827170">
        <ele>4.0</ele>
        <time>2021-05-17T06:28:55Z</time>
      </trkpt>
      <trkpt lat="41.4336600" lon="-8.7827350">
        <ele>4.0</ele>
        <time>2021-05-17T06:28:56Z</time>
      </trkpt>
      <trkpt lat="41.4336640" lon="-8.7827540">
        <ele>4.1</ele>
        <time>2021-05-17T06:28:57Z</time>
      </trkpt>
      <trkpt lat="41.4336690" lon="-8.7827760">
        <ele>4.2</ele>
        <time>2021-05-17T06:28:58Z</time>
      </trkpt>
      <trkpt lat="41.4336740" lon="-8.7827930">
        <ele>4.3</ele>
        <time>2021-05-17T06:28:59Z</time>
      </trkpt>
      <trkpt lat="41.4336790" lon="-8.7828110">
        <ele>4.4</ele>
        <time>2021-05-17T06:29:00Z</time>
      </trkpt>
      <trkpt lat="41.4336840" lon="-8.7828310">
        <ele>4.5</ele>
        <time>2021-05-17T06:29:01Z</time>
      </trkpt>
      <trkpt lat="41.4336920" lon="-8.7828460">
        <ele>4.6</ele>
        <time>2021-05-17T06:29:02Z</time>
      </trkpt>
      <trkpt lat="41.4336950" lon="-8.7828670">
        <ele>4.7</ele>
        <time>2021-05-17T06:29:03Z</time>
      </trkpt>
      <trkpt lat="41.4337030" lon="-8.7829050">
        <ele>4.9</ele>
        <time>2021-05-17T06:29:04Z</time>
      </trkpt>
      <trkpt lat="41.4337080" lon="-8.7829210">
        <ele>5.0</ele>
        <time>2021-05-17T06:29:05Z</time>
      </trkpt>
      <trkpt lat="41.4337100" lon="-8.7829380">
        <ele>5.1</ele>
        <time>2021-05-17T06:29:06Z</time>
      </trkpt>
      <trkpt lat="41.4337120" lon="-8.7829570">
        <ele>5.2</ele>
        <time>2021-05-17T06:29:07Z</time>
      </trkpt>
      <trkpt lat="41.4337100" lon="-8.7829750">
        <ele>5.3</ele>
        <time>2021-05-17T06:29:08Z</time>
      </trkpt>
      <trkpt lat="41.4337110" lon="-8.7829950">
        <ele>5.4</ele>
        <time>2021-05-17T06:29:09Z</time>
      </trkpt>
      <trkpt lat="41.4337080" lon="-8.7830170">
        <ele>5.5</ele>
        <time>2021-05-17T06:29:10Z</time>
      </trkpt>
      <trkpt lat="41.4337100" lon="-8.7830350">
        <ele>5.6</ele>
        <time>2021-05-17T06:29:11Z</time>
      </trkpt>
      <trkpt lat="41.4337100" lon="-8.7830550">
        <ele>5.7</ele>
        <time>2021-05-17T06:29:12Z</time>
      </trkpt>
      <trkpt lat="41.4337130" lon="-8.7830730">
        <ele>5.8</ele>
        <time>2021-05-17T06:29:13Z</time>
      </trkpt>
      <trkpt lat="41.4337180" lon="-8.7830920">
        <ele>5.9</ele>
        <time>2021-05-17T06:29:14Z</time>
      </trkpt>
      <trkpt lat="41.4337200" lon="-8.7831100">
        <ele>6.0</ele>
        <time>2021-05-17T06:29:15Z</time>
      </trkpt>
      <trkpt lat="41.4337240" lon="-8.7831410">
        <ele>6.1</ele>
        <time>2021-05-17T06:29:16Z</time>
      </trkpt>
      <trkpt lat="41.4337260" lon="-8.7831520">
        <ele>6.2</ele>
        <time>2021-05-17T06:29:17Z</time>
      </trkpt>
      <trkpt lat="41.4337270" lon="-8.7831640">
        <ele>6.2</ele>
        <time>2021-05-17T06:29:18Z</time>
      </trkpt>
      <trkpt lat="41.4337280" lon="-8.7831820">
        <ele>6.3</ele>
        <time>2021-05-17T06:29:19Z</time>
      </trkpt>
      <trkpt lat="41.4337280" lon="-8.7832020">
        <ele>6.3</ele>
        <time>2021-05-17T06:29:20Z</time>
      </trkpt>
      <trkpt lat="41.4337310" lon="-8.7832300">
        <ele>6.4</ele>
        <time>2021-05-17T06:29:21Z</time>
      </trkpt>
      <trkpt lat="41.4337310" lon="-8.7832420">
        <ele>6.5</ele>
        <time>2021-05-17T06:29:22Z</time>
      </trkpt>
      <trkpt lat="41.4337310" lon="-8.7832530">
        <ele>6.5</ele>
        <time>2021-05-17T06:29:23Z</time>
      </trkpt>
      <trkpt lat="41.4337600" lon="-8.7832550">
        <ele>6.6</ele>
        <time>2021-05-17T06:29:24Z</time>
      </trkpt>
      <trkpt lat="41.4337710" lon="-8.7832460">
        <ele>6.6</ele>
        <time>2021-05-17T06:29:25Z</time>
      </trkpt>
      <trkpt lat="41.4337980" lon="-8.7832160">
        <ele>6.7</ele>
        <time>2021-05-17T06:29:26Z</time>
      </trkpt>
      <trkpt lat="41.4338050" lon="-8.7832090">
        <ele>6.7</ele>
        <time>2021-05-17T06:29:27Z</time>
      </trkpt>
      <trkpt lat="41.4338200" lon="-8.7831990">
        <ele>6.7</ele>
        <time>2021-05-17T06:29:28Z</time>
      </trkpt>
      <trkpt lat="41.4338350" lon="-8.7831900">
        <ele>6.7</ele>
        <time>2021-05-17T06:29:29Z</time>
      </trkpt>
      <trkpt lat="41.4338490" lon="-8.7831830">
        <ele>6.7</ele>
        <time>2021-05-17T06:29:30Z</time>
      </trkpt>
      <trkpt lat="41.4338630" lon="-8.7831740">
        <ele>6.7</ele>
        <time>2021-05-17T06:29:31Z</time>
      </trkpt>
      <trkpt lat="41.4338770" lon="-8.7831640">
        <ele>6.8</ele>
        <time>2021-05-17T06:29:32Z</time>
      </trkpt>
      <trkpt lat="41.4338890" lon="-8.7831550">
        <ele>6.8</ele>
        <time>2021-05-17T06:29:33Z</time>
      </trkpt>
      <trkpt lat="41.4339030" lon="-8.7831450">
        <ele>6.8</ele>
        <time>2021-05-17T06:29:34Z</time>
      </trkpt>
      <trkpt lat="41.4339150" lon="-8.7831340">
        <ele>6.8</ele>
        <time>2021-05-17T06:29:35Z</time>
      </trkpt>
      <trkpt lat="41.4339280" lon="-8.7831260">
        <ele>6.8</ele>
        <time>2021-05-17T06:29:36Z</time>
      </trkpt>
      <trkpt lat="41.4339410" lon="-8.7831180">
        <ele>6.8</ele>
        <time>2021-05-17T06:29:37Z</time>
      </trkpt>
      <trkpt lat="41.4339530" lon="-8.7831070">
        <ele>6.9</ele>
        <time>2021-05-17T06:29:38Z</time>
      </trkpt>
      <trkpt lat="41.4339680" lon="-8.7830960">
        <ele>6.9</ele>
        <time>2021-05-17T06:29:39Z</time>
      </trkpt>
      <trkpt lat="41.4339820" lon="-8.7830860">
        <ele>6.9</ele>
        <time>2021-05-17T06:29:40Z</time>
      </trkpt>
      <trkpt lat="41.4339960" lon="-8.7830790">
        <ele>6.9</ele>
        <time>2021-05-17T06:29:42Z</time>
      </trkpt>
      <trkpt lat="41.4340090" lon="-8.7830640">
        <ele>7.0</ele>
        <time>2021-05-17T06:29:43Z</time>
      </trkpt>
      <trkpt lat="41.4340210" lon="-8.7830550">
        <ele>7.0</ele>
        <time>2021-05-17T06:29:44Z</time>
      </trkpt>
      <trkpt lat="41.4340350" lon="-8.7830450">
        <ele>7.0</ele>
        <time>2021-05-17T06:29:45Z</time>
      </trkpt>
      <trkpt lat="41.4340510" lon="-8.7830380">
        <ele>7.0</ele>
        <time>2021-05-17T06:29:46Z</time>
      </trkpt>
      <trkpt lat="41.4340630" lon="-8.7830310">
        <ele>7.1</ele>
        <time>2021-05-17T06:29:47Z</time>
      </trkpt>
      <trkpt lat="41.4340780" lon="-8.7830210">
        <ele>7.1</ele>
        <time>2021-05-17T06:29:48Z</time>
      </trkpt>
      <trkpt lat="41.4340910" lon="-8.7830130">
        <ele>7.1</ele>
        <time>2021-05-17T06:29:49Z</time>
      </trkpt>
      <trkpt lat="41.4341050" lon="-8.7830080">
        <ele>7.2</ele>
        <time>2021-05-17T06:29:50Z</time>
      </trkpt>
      <trkpt lat="41.4341180" lon="-8.7829980">
        <ele>7.2</ele>
        <time>2021-05-17T06:29:51Z</time>
      </trkpt>
      <trkpt lat="41.4341330" lon="-8.7829900">
        <ele>7.2</ele>
        <time>2021-05-17T06:29:52Z</time>
      </trkpt>
      <trkpt lat="41.4341460" lon="-8.7829780">
        <ele>7.3</ele>
        <time>2021-05-17T06:29:53Z</time>
      </trkpt>
      <trkpt lat="41.4341590" lon="-8.7829710">
        <ele>7.3</ele>
        <time>2021-05-17T06:29:54Z</time>
      </trkpt>
      <trkpt lat="41.4341730" lon="-8.7829600">
        <ele>7.3</ele>
        <time>2021-05-17T06:29:55Z</time>
      </trkpt>
      <trkpt lat="41.4341880" lon="-8.7829520">
        <ele>7.4</ele>
        <time>2021-05-17T06:29:56Z</time>
      </trkpt>
      <trkpt lat="41.4342000" lon="-8.7829440">
        <ele>7.4</ele>
        <time>2021-05-17T06:29:57Z</time>
      </trkpt>
      <trkpt lat="41.4342100" lon="-8.7829320">
        <ele>7.4</ele>
        <time>2021-05-17T06:29:58Z</time>
      </trkpt>
      <trkpt lat="41.4342220" lon="-8.7829220">
        <ele>7.5</ele>
        <time>2021-05-17T06:29:59Z</time>
      </trkpt>
      <trkpt lat="41.4342360" lon="-8.7829140">
        <ele>7.5</ele>
        <time>2021-05-17T06:30:00Z</time>
      </trkpt>
      <trkpt lat="41.4342490" lon="-8.7829060">
        <ele>7.6</ele>
        <time>2021-05-17T06:30:01Z</time>
      </trkpt>
      <trkpt lat="41.4342630" lon="-8.7828980">
        <ele>7.6</ele>
        <time>2021-05-17T06:30:02Z</time>
      </trkpt>
      <trkpt lat="41.4342740" lon="-8.7828850">
        <ele>7.6</ele>
        <time>2021-05-17T06:30:03Z</time>
      </trkpt>
      <trkpt lat="41.4342890" lon="-8.7828810">
        <ele>7.7</ele>
        <time>2021-05-17T06:30:04Z</time>
      </trkpt>
      <trkpt lat="41.4343010" lon="-8.7828690">
        <ele>7.7</ele>
        <time>2021-05-17T06:30:05Z</time>
      </trkpt>
      <trkpt lat="41.4343140" lon="-8.7828630">
        <ele>7.8</ele>
        <time>2021-05-17T06:30:06Z</time>
      </trkpt>
      <trkpt lat="41.4343280" lon="-8.7828570">
        <ele>7.8</ele>
        <time>2021-05-17T06:30:07Z</time>
      </trkpt>
      <trkpt lat="41.4343400" lon="-8.7828460">
        <ele>7.9</ele>
        <time>2021-05-17T06:30:08Z</time>
      </trkpt>
      <trkpt lat="41.4343600" lon="-8.7828330">
        <ele>7.9</ele>
        <time>2021-05-17T06:30:09Z</time>
      </trkpt>
      <trkpt lat="41.4343680" lon="-8.7828300">
        <ele>8.0</ele>
        <time>2021-05-17T06:30:10Z</time>
      </trkpt>
      <trkpt lat="41.4343770" lon="-8.7828260">
        <ele>8.0</ele>
        <time>2021-05-17T06:30:11Z</time>
      </trkpt>
      <trkpt lat="41.4343880" lon="-8.7828140">
        <ele>8.1</ele>
        <time>2021-05-17T06:30:12Z</time>
      </trkpt>
      <trkpt lat="41.4344020" lon="-8.7828080">
        <ele>8.1</ele>
        <time>2021-05-17T06:30:13Z</time>
      </trkpt>
      <trkpt lat="41.4344170" lon="-8.7828020">
        <ele>8.2</ele>
        <time>2021-05-17T06:30:14Z</time>
      </trkpt>
      <trkpt lat="41.4344310" lon="-8.7827970">
        <ele>8.2</ele>
        <time>2021-05-17T06:30:15Z</time>
      </trkpt>
      <trkpt lat="41.4344420" lon="-8.7827890">
        <ele>8.3</ele>
        <time>2021-05-17T06:30:16Z</time>
      </trkpt>
      <trkpt lat="41.4344540" lon="-8.7827750">
        <ele>8.4</ele>
        <time>2021-05-17T06:30:17Z</time>
      </trkpt>
      <trkpt lat="41.4344660" lon="-8.7827630">
        <ele>8.4</ele>
        <time>2021-05-17T06:30:18Z</time>
      </trkpt>
      <trkpt lat="41.4344750" lon="-8.7827470">
        <ele>8.5</ele>
        <time>2021-05-17T06:30:19Z</time>
      </trkpt>
      <trkpt lat="41.4344840" lon="-8.7827320">
        <ele>8.6</ele>
        <time>2021-05-17T06:30:20Z</time>
      </trkpt>
      <trkpt lat="41.4344960" lon="-8.7827240">
        <ele>8.6</ele>
        <time>2021-05-17T06:30:21Z</time>
      </trkpt>
      <trkpt lat="41.4345040" lon="-8.7827060">
        <ele>8.7</ele>
        <time>2021-05-17T06:30:22Z</time>
      </trkpt>
      <trkpt lat="41.4345150" lon="-8.7826960">
        <ele>8.7</ele>
        <time>2021-05-17T06:30:23Z</time>
      </trkpt>
      <trkpt lat="41.4345230" lon="-8.7826810">
        <ele>8.8</ele>
        <time>2021-05-17T06:30:24Z</time>
      </trkpt>
      <trkpt lat="41.4345350" lon="-8.7826680">
        <ele>8.9</ele>
        <time>2021-05-17T06:30:25Z</time>
      </trkpt>
      <trkpt lat="41.4345480" lon="-8.7826580">
        <ele>8.9</ele>
        <time>2021-05-17T06:30:26Z</time>
      </trkpt>
      <trkpt lat="41.4345570" lon="-8.7826470">
        <ele>9.0</ele>
        <time>2021-05-17T06:30:27Z</time>
      </trkpt>
      <trkpt lat="41.4345710" lon="-8.7826370">
        <ele>9.1</ele>
        <time>2021-05-17T06:30:28Z</time>
      </trkpt>
      <trkpt lat="41.4345800" lon="-8.7826270">
        <ele>9.1</ele>
        <time>2021-05-17T06:30:29Z</time>
      </trkpt>
      <trkpt lat="41.4345910" lon="-8.7826130">
        <ele>9.2</ele>
        <time>2021-05-17T06:30:30Z</time>
      </trkpt>
      <trkpt lat="41.4346020" lon="-8.7826030">
        <ele>9.2</ele>
        <time>2021-05-17T06:30:31Z</time>
      </trkpt>
      <trkpt lat="41.4346150" lon="-8.7825950">
        <ele>9.3</ele>
        <time>2021-05-17T06:30:32Z</time>
      </trkpt>
      <trkpt lat="41.4346280" lon="-8.7825870">
        <ele>9.4</ele>
        <time>2021-05-17T06:30:33Z</time>
      </trkpt>
      <trkpt lat="41.4346380" lon="-8.7825720">
        <ele>9.4</ele>
        <time>2021-05-17T06:30:34Z</time>
      </trkpt>
      <trkpt lat="41.4346490" lon="-8.7825600">
        <ele>9.5</ele>
        <time>2021-05-17T06:30:35Z</time>
      </trkpt>
      <trkpt lat="41.4346600" lon="-8.7825480">
        <ele>9.5</ele>
        <time>2021-05-17T06:30:36Z</time>
      </trkpt>
      <trkpt lat="41.4346730" lon="-8.7825390">
        <ele>9.6</ele>
        <time>2021-05-17T06:30:37Z</time>
      </trkpt>
      <trkpt lat="41.4346840" lon="-8.7825280">
        <ele>9.6</ele>
        <time>2021-05-17T06:30:38Z</time>
      </trkpt>
      <trkpt lat="41.4346950" lon="-8.7825170">
        <ele>9.7</ele>
        <time>2021-05-17T06:30:39Z</time>
      </trkpt>
      <trkpt lat="41.4347080" lon="-8.7825080">
        <ele>9.8</ele>
        <time>2021-05-17T06:30:40Z</time>
      </trkpt>
      <trkpt lat="41.4347180" lon="-8.7824970">
        <ele>9.8</ele>
        <time>2021-05-17T06:30:41Z</time>
      </trkpt>
      <trkpt lat="41.4347320" lon="-8.7824900">
        <ele>9.9</ele>
        <time>2021-05-17T06:30:42Z</time>
      </trkpt>
      <trkpt lat="41.4347470" lon="-8.7824820">
        <ele>9.9</ele>
        <time>2021-05-17T06:30:43Z</time>
      </trkpt>
      <trkpt lat="41.4347600" lon="-8.7824730">
        <ele>10.0</ele>
        <time>2021-05-17T06:30:44Z</time>
      </trkpt>
      <trkpt lat="41.4347700" lon="-8.7824590">
        <ele>10.0</ele>
        <time>2021-05-17T06:30:45Z</time>
      </trkpt>
      <trkpt lat="41.4347820" lon="-8.7824450">
        <ele>10.1</ele>
        <time>2021-05-17T06:30:46Z</time>
      </trkpt>
      <trkpt lat="41.4347940" lon="-8.7824340">
        <ele>10.1</ele>
        <time>2021-05-17T06:30:47Z</time>
      </trkpt>
      <trkpt lat="41.4348080" lon="-8.7824240">
        <ele>10.2</ele>
        <time>2021-05-17T06:30:48Z</time>
      </trkpt>
      <trkpt lat="41.4348220" lon="-8.7824160">
        <ele>10.2</ele>
        <time>2021-05-17T06:30:49Z</time>
      </trkpt>
      <trkpt lat="41.4348320" lon="-8.7824080">
        <ele>10.2</ele>
        <time>2021-05-17T06:30:50Z</time>
      </trkpt>
      <trkpt lat="41.4348450" lon="-8.7823940">
        <ele>10.3</ele>
        <time>2021-05-17T06:30:51Z</time>
      </trkpt>
      <trkpt lat="41.4348560" lon="-8.7823830">
        <ele>10.3</ele>
        <time>2021-05-17T06:30:52Z</time>
      </trkpt>
      <trkpt lat="41.4348690" lon="-8.7823750">
        <ele>10.4</ele>
        <time>2021-05-17T06:30:53Z</time>
      </trkpt>
      <trkpt lat="41.4348800" lon="-8.7823610">
        <ele>10.4</ele>
        <time>2021-05-17T06:30:54Z</time>
      </trkpt>
      <trkpt lat="41.4348930" lon="-8.7823530">
        <ele>10.4</ele>
        <time>2021-05-17T06:30:55Z</time>
      </trkpt>
      <trkpt lat="41.4349040" lon="-8.7823420">
        <ele>10.5</ele>
        <time>2021-05-17T06:30:56Z</time>
      </trkpt>
      <trkpt lat="41.4349170" lon="-8.7823320">
        <ele>10.5</ele>
        <time>2021-05-17T06:30:57Z</time>
      </trkpt>
      <trkpt lat="41.4349320" lon="-8.7823260">
        <ele>10.6</ele>
        <time>2021-05-17T06:30:58Z</time>
      </trkpt>
      <trkpt lat="41.4349440" lon="-8.7823160">
        <ele>10.6</ele>
        <time>2021-05-17T06:30:59Z</time>
      </trkpt>
      <trkpt lat="41.4349620" lon="-8.7822990">
        <ele>10.7</ele>
        <time>2021-05-17T06:31:00Z</time>
      </trkpt>
      <trkpt lat="41.4349710" lon="-8.7822930">
        <ele>10.7</ele>
        <time>2021-05-17T06:31:01Z</time>
      </trkpt>
      <trkpt lat="41.4349790" lon="-8.7822880">
        <ele>10.7</ele>
        <time>2021-05-17T06:31:02Z</time>
      </trkpt>
      <trkpt lat="41.4349960" lon="-8.7822660">
        <ele>10.7</ele>
        <time>2021-05-17T06:31:03Z</time>
      </trkpt>
      <trkpt lat="41.4350030" lon="-8.7822590">
        <ele>10.8</ele>
        <time>2021-05-17T06:31:04Z</time>
      </trkpt>
      <trkpt lat="41.4350110" lon="-8.7822520">
        <ele>10.8</ele>
        <time>2021-05-17T06:31:05Z</time>
      </trkpt>
      <trkpt lat="41.4350230" lon="-8.7822430">
        <ele>10.8</ele>
        <time>2021-05-17T06:31:06Z</time>
      </trkpt>
      <trkpt lat="41.4350340" lon="-8.7822310">
        <ele>10.8</ele>
        <time>2021-05-17T06:31:07Z</time>
      </trkpt>
      <trkpt lat="41.4350450" lon="-8.7822230">
        <ele>10.8</ele>
        <time>2021-05-17T06:31:08Z</time>
      </trkpt>
      <trkpt lat="41.4350570" lon="-8.7822120">
        <ele>10.8</ele>
        <time>2021-05-17T06:31:09Z</time>
      </trkpt>
      <trkpt lat="41.4350670" lon="-8.7822020">
        <ele>10.9</ele>
        <time>2021-05-17T06:31:10Z</time>
      </trkpt>
      <trkpt lat="41.4350790" lon="-8.7821920">
        <ele>10.9</ele>
        <time>2021-05-17T06:31:11Z</time>
      </trkpt>
      <trkpt lat="41.4350970" lon="-8.7821730">
        <ele>10.9</ele>
        <time>2021-05-17T06:31:12Z</time>
      </trkpt>
      <trkpt lat="41.4351040" lon="-8.7821670">
        <ele>10.9</ele>
        <time>2021-05-17T06:31:13Z</time>
      </trkpt>
      <trkpt lat="41.4351120" lon="-8.7821620">
        <ele>10.9</ele>
        <time>2021-05-17T06:31:14Z</time>
      </trkpt>
      <trkpt lat="41.4351300" lon="-8.7821430">
        <ele>10.9</ele>
        <time>2021-05-17T06:31:15Z</time>
      </trkpt>
      <trkpt lat="41.4351380" lon="-8.7821380">
        <ele>10.9</ele>
        <time>2021-05-17T06:31:16Z</time>
      </trkpt>
      <trkpt lat="41.4351450" lon="-8.7821320">
        <ele>10.9</ele>
        <time>2021-05-17T06:31:17Z</time>
      </trkpt>
      <trkpt lat="41.4351560" lon="-8.7821210">
        <ele>10.9</ele>
        <time>2021-05-17T06:31:18Z</time>
      </trkpt>
      <trkpt lat="41.4351690" lon="-8.7821120">
        <ele>10.9</ele>
        <time>2021-05-17T06:31:19Z</time>
      </trkpt>
      <trkpt lat="41.4351870" lon="-8.7820950">
        <ele>10.9</ele>
        <time>2021-05-17T06:31:20Z</time>
      </trkpt>
      <trkpt lat="41.4351940" lon="-8.7820900">
        <ele>10.9</ele>
        <time>2021-05-17T06:31:21Z</time>
      </trkpt>
      <trkpt lat="41.4352020" lon="-8.7820850">
        <ele>10.9</ele>
        <time>2021-05-17T06:31:22Z</time>
      </trkpt>
      <trkpt lat="41.4352140" lon="-8.7820750">
        <ele>10.9</ele>
        <time>2021-05-17T06:31:23Z</time>
      </trkpt>
      <trkpt lat="41.4352280" lon="-8.7820710">
        <ele>10.9</ele>
        <time>2021-05-17T06:31:24Z</time>
      </trkpt>
      <trkpt lat="41.4352390" lon="-8.7820640">
        <ele>10.8</ele>
        <time>2021-05-17T06:31:25Z</time>
      </trkpt>
      <trkpt lat="41.4352520" lon="-8.7820520">
        <ele>10.8</ele>
        <time>2021-05-17T06:31:26Z</time>
      </trkpt>
      <trkpt lat="41.4352650" lon="-8.7820430">
        <ele>10.8</ele>
        <time>2021-05-17T06:31:27Z</time>
      </trkpt>
      <trkpt lat="41.4352780" lon="-8.7820380">
        <ele>10.8</ele>
        <time>2021-05-17T06:31:28Z</time>
      </trkpt>
      <trkpt lat="41.4352910" lon="-8.7820290">
        <ele>10.8</ele>
        <time>2021-05-17T06:31:29Z</time>
      </trkpt>
      <trkpt lat="41.4353030" lon="-8.7820190">
        <ele>10.8</ele>
        <time>2021-05-17T06:31:30Z</time>
      </trkpt>
      <trkpt lat="41.4353170" lon="-8.7820090">
        <ele>10.7</ele>
        <time>2021-05-17T06:31:31Z</time>
      </trkpt>
      <trkpt lat="41.4353290" lon="-8.7819980">
        <ele>10.7</ele>
        <time>2021-05-17T06:31:32Z</time>
      </trkpt>
      <trkpt lat="41.4353430" lon="-8.7819910">
        <ele>10.7</ele>
        <time>2021-05-17T06:31:33Z</time>
      </trkpt>
      <trkpt lat="41.4353580" lon="-8.7819870">
        <ele>10.7</ele>
        <time>2021-05-17T06:31:34Z</time>
      </trkpt>
      <trkpt lat="41.4353700" lon="-8.7819710">
        <ele>10.7</ele>
        <time>2021-05-17T06:31:35Z</time>
      </trkpt>
      <trkpt lat="41.4353840" lon="-8.7819640">
        <ele>10.6</ele>
        <time>2021-05-17T06:31:36Z</time>
      </trkpt>
      <trkpt lat="41.4353960" lon="-8.7819520">
        <ele>10.6</ele>
        <time>2021-05-17T06:31:37Z</time>
      </trkpt>
      <trkpt lat="41.4354080" lon="-8.7819410">
        <ele>10.6</ele>
        <time>2021-05-17T06:31:38Z</time>
      </trkpt>
      <trkpt lat="41.4354280" lon="-8.7819290">
        <ele>10.6</ele>
        <time>2021-05-17T06:31:39Z</time>
      </trkpt>
      <trkpt lat="41.4354370" lon="-8.7819220">
        <ele>10.6</ele>
        <time>2021-05-17T06:31:40Z</time>
      </trkpt>
      <trkpt lat="41.4354450" lon="-8.7819140">
        <ele>10.6</ele>
        <time>2021-05-17T06:31:41Z</time>
      </trkpt>
      <trkpt lat="41.4354590" lon="-8.7819070">
        <ele>10.6</ele>
        <time>2021-05-17T06:31:42Z</time>
      </trkpt>
      <trkpt lat="41.4354700" lon="-8.7818980">
        <ele>10.6</ele>
        <time>2021-05-17T06:31:43Z</time>
      </trkpt>
      <trkpt lat="41.4354830" lon="-8.7818920">
        <ele>10.6</ele>
        <time>2021-05-17T06:31:44Z</time>
      </trkpt>
      <trkpt lat="41.4354960" lon="-8.7818770">
        <ele>10.6</ele>
        <time>2021-05-17T06:31:45Z</time>
      </trkpt>
      <trkpt lat="41.4355090" lon="-8.7818690">
        <ele>10.6</ele>
        <time>2021-05-17T06:31:46Z</time>
      </trkpt>
      <trkpt lat="41.4355210" lon="-8.7818590">
        <ele>10.6</ele>
        <time>2021-05-17T06:31:47Z</time>
      </trkpt>
      <trkpt lat="41.4355330" lon="-8.7818510">
        <ele>10.6</ele>
        <time>2021-05-17T06:31:48Z</time>
      </trkpt>
      <trkpt lat="41.4355450" lon="-8.7818420">
        <ele>10.6</ele>
        <time>2021-05-17T06:31:49Z</time>
      </trkpt>
      <trkpt lat="41.4355590" lon="-8.7818330">
        <ele>10.6</ele>
        <time>2021-05-17T06:31:50Z</time>
      </trkpt>
      <trkpt lat="41.4355710" lon="-8.7818250">
        <ele>10.6</ele>
        <time>2021-05-17T06:31:51Z</time>
      </trkpt>
      <trkpt lat="41.4355840" lon="-8.7818170">
        <ele>10.6</ele>
        <time>2021-05-17T06:31:52Z</time>
      </trkpt>
      <trkpt lat="41.4355990" lon="-8.7818110">
        <ele>10.6</ele>
        <time>2021-05-17T06:31:53Z</time>
      </trkpt>
      <trkpt lat="41.4356130" lon="-8.7818040">
        <ele>10.7</ele>
        <time>2021-05-17T06:31:54Z</time>
      </trkpt>
      <trkpt lat="41.4356240" lon="-8.7817900">
        <ele>10.7</ele>
        <time>2021-05-17T06:31:55Z</time>
      </trkpt>
      <trkpt lat="41.4356380" lon="-8.7817850">
        <ele>10.7</ele>
        <time>2021-05-17T06:31:56Z</time>
      </trkpt>
      <trkpt lat="41.4356520" lon="-8.7817750">
        <ele>10.7</ele>
        <time>2021-05-17T06:31:57Z</time>
      </trkpt>
      <trkpt lat="41.4356670" lon="-8.7817670">
        <ele>10.7</ele>
        <time>2021-05-17T06:31:58Z</time>
      </trkpt>
      <trkpt lat="41.4356810" lon="-8.7817570">
        <ele>10.8</ele>
        <time>2021-05-17T06:31:59Z</time>
      </trkpt>
      <trkpt lat="41.4356920" lon="-8.7817460">
        <ele>10.8</ele>
        <time>2021-05-17T06:32:00Z</time>
      </trkpt>
      <trkpt lat="41.4357030" lon="-8.7817330">
        <ele>10.8</ele>
        <time>2021-05-17T06:32:01Z</time>
      </trkpt>
      <trkpt lat="41.4357150" lon="-8.7817170">
        <ele>10.8</ele>
        <time>2021-05-17T06:32:02Z</time>
      </trkpt>
      <trkpt lat="41.4357300" lon="-8.7817110">
        <ele>10.8</ele>
        <time>2021-05-17T06:32:03Z</time>
      </trkpt>
      <trkpt lat="41.4357440" lon="-8.7817020">
        <ele>10.9</ele>
        <time>2021-05-17T06:32:04Z</time>
      </trkpt>
      <trkpt lat="41.4357580" lon="-8.7816940">
        <ele>10.9</ele>
        <time>2021-05-17T06:32:05Z</time>
      </trkpt>
      <trkpt lat="41.4357700" lon="-8.7816890">
        <ele>10.9</ele>
        <time>2021-05-17T06:32:06Z</time>
      </trkpt>
      <trkpt lat="41.4357820" lon="-8.7816770">
        <ele>10.9</ele>
        <time>2021-05-17T06:32:07Z</time>
      </trkpt>
      <trkpt lat="41.4357940" lon="-8.7816680">
        <ele>10.9</ele>
        <time>2021-05-17T06:32:08Z</time>
      </trkpt>
      <trkpt lat="41.4358070" lon="-8.7816620">
        <ele>11.0</ele>
        <time>2021-05-17T06:32:09Z</time>
      </trkpt>
      <trkpt lat="41.4358190" lon="-8.7816470">
        <ele>11.0</ele>
        <time>2021-05-17T06:32:10Z</time>
      </trkpt>
      <trkpt lat="41.4358310" lon="-8.7816350">
        <ele>11.0</ele>
        <time>2021-05-17T06:32:11Z</time>
      </trkpt>
      <trkpt lat="41.4358460" lon="-8.7816310">
        <ele>11.0</ele>
        <time>2021-05-17T06:32:12Z</time>
      </trkpt>
      <trkpt lat="41.4358610" lon="-8.7816290">
        <ele>11.0</ele>
        <time>2021-05-17T06:32:13Z</time>
      </trkpt>
      <trkpt lat="41.4358750" lon="-8.7816220">
        <ele>11.0</ele>
        <time>2021-05-17T06:32:14Z</time>
      </trkpt>
      <trkpt lat="41.4358910" lon="-8.7816190">
        <ele>11.1</ele>
        <time>2021-05-17T06:32:15Z</time>
      </trkpt>
      <trkpt lat="41.4359050" lon="-8.7816130">
        <ele>11.1</ele>
        <time>2021-05-17T06:32:16Z</time>
      </trkpt>
      <trkpt lat="41.4359210" lon="-8.7816120">
        <ele>11.1</ele>
        <time>2021-05-17T06:32:17Z</time>
      </trkpt>
      <trkpt lat="41.4359370" lon="-8.7816040">
        <ele>11.1</ele>
        <time>2021-05-17T06:32:18Z</time>
      </trkpt>
      <trkpt lat="41.4359510" lon="-8.7816010">
        <ele>11.1</ele>
        <time>2021-05-17T06:32:19Z</time>
      </trkpt>
      <trkpt lat="41.4359660" lon="-8.7815940">
        <ele>11.1</ele>
        <time>2021-05-17T06:32:20Z</time>
      </trkpt>
      <trkpt lat="41.4359800" lon="-8.7815870">
        <ele>11.1</ele>
        <time>2021-05-17T06:32:21Z</time>
      </trkpt>
      <trkpt lat="41.4359960" lon="-8.7815880">
        <ele>11.1</ele>
        <time>2021-05-17T06:32:22Z</time>
      </trkpt>
      <trkpt lat="41.4360090" lon="-8.7815820">
        <ele>11.0</ele>
        <time>2021-05-17T06:32:23Z</time>
      </trkpt>
      <trkpt lat="41.4360250" lon="-8.7815810">
        <ele>11.0</ele>
        <time>2021-05-17T06:32:24Z</time>
      </trkpt>
      <trkpt lat="41.4360360" lon="-8.7815710">
        <ele>11.0</ele>
        <time>2021-05-17T06:32:25Z</time>
      </trkpt>
      <trkpt lat="41.4360520" lon="-8.7815710">
        <ele>11.0</ele>
        <time>2021-05-17T06:32:26Z</time>
      </trkpt>
      <trkpt lat="41.4360640" lon="-8.7815660">
        <ele>11.0</ele>
        <time>2021-05-17T06:32:27Z</time>
      </trkpt>
      <trkpt lat="41.4360800" lon="-8.7815620">
        <ele>11.0</ele>
        <time>2021-05-17T06:32:28Z</time>
      </trkpt>
      <trkpt lat="41.4360930" lon="-8.7815580">
        <ele>10.9</ele>
        <time>2021-05-17T06:32:29Z</time>
      </trkpt>
      <trkpt lat="41.4361130" lon="-8.7815520">
        <ele>10.9</ele>
        <time>2021-05-17T06:32:30Z</time>
      </trkpt>
      <trkpt lat="41.4361240" lon="-8.7815480">
        <ele>10.9</ele>
        <time>2021-05-17T06:32:31Z</time>
      </trkpt>
      <trkpt lat="41.4361350" lon="-8.7815430">
        <ele>10.9</ele>
        <time>2021-05-17T06:32:32Z</time>
      </trkpt>
      <trkpt lat="41.4361550" lon="-8.7815320">
        <ele>10.9</ele>
        <time>2021-05-17T06:32:33Z</time>
      </trkpt>
      <trkpt lat="41.4361630" lon="-8.7815280">
        <ele>10.9</ele>
        <time>2021-05-17T06:32:34Z</time>
      </trkpt>
      <trkpt lat="41.4361720" lon="-8.7815240">
        <ele>10.8</ele>
        <time>2021-05-17T06:32:35Z</time>
      </trkpt>
      <trkpt lat="41.4361860" lon="-8.7815220">
        <ele>10.8</ele>
        <time>2021-05-17T06:32:36Z</time>
      </trkpt>
      <trkpt lat="41.4362000" lon="-8.7815130">
        <ele>10.8</ele>
        <time>2021-05-17T06:32:37Z</time>
      </trkpt>
      <trkpt lat="41.4362200" lon="-8.7815070">
        <ele>10.8</ele>
        <time>2021-05-17T06:32:38Z</time>
      </trkpt>
      <trkpt lat="41.4362300" lon="-8.7815050">
        <ele>10.8</ele>
        <time>2021-05-17T06:32:39Z</time>
      </trkpt>
      <trkpt lat="41.4362390" lon="-8.7815020">
        <ele>10.8</ele>
        <time>2021-05-17T06:32:40Z</time>
      </trkpt>
      <trkpt lat="41.4362540" lon="-8.7814940">
        <ele>10.8</ele>
        <time>2021-05-17T06:32:41Z</time>
      </trkpt>
      <trkpt lat="41.4362670" lon="-8.7814910">
        <ele>10.8</ele>
        <time>2021-05-17T06:32:42Z</time>
      </trkpt>
      <trkpt lat="41.4362820" lon="-8.7814870">
        <ele>10.8</ele>
        <time>2021-05-17T06:32:43Z</time>
      </trkpt>
      <trkpt lat="41.4362950" lon="-8.7814790">
        <ele>10.8</ele>
        <time>2021-05-17T06:32:44Z</time>
      </trkpt>
      <trkpt lat="41.4363190" lon="-8.7814730">
        <ele>10.8</ele>
        <time>2021-05-17T06:32:45Z</time>
      </trkpt>
      <trkpt lat="41.4363270" lon="-8.7814670">
        <ele>10.8</ele>
        <time>2021-05-17T06:32:46Z</time>
      </trkpt>
      <trkpt lat="41.4363360" lon="-8.7814610">
        <ele>10.8</ele>
        <time>2021-05-17T06:32:47Z</time>
      </trkpt>
      <trkpt lat="41.4363490" lon="-8.7814540">
        <ele>10.8</ele>
        <time>2021-05-17T06:32:48Z</time>
      </trkpt>
      <trkpt lat="41.4363640" lon="-8.7814520">
        <ele>10.8</ele>
        <time>2021-05-17T06:32:49Z</time>
      </trkpt>
      <trkpt lat="41.4363770" lon="-8.7814460">
        <ele>10.8</ele>
        <time>2021-05-17T06:32:50Z</time>
      </trkpt>
      <trkpt lat="41.4363930" lon="-8.7814370">
        <ele>10.8</ele>
        <time>2021-05-17T06:32:51Z</time>
      </trkpt>
      <trkpt lat="41.4364070" lon="-8.7814350">
        <ele>10.8</ele>
        <time>2021-05-17T06:32:52Z</time>
      </trkpt>
      <trkpt lat="41.4364180" lon="-8.7814220">
        <ele>10.8</ele>
        <time>2021-05-17T06:32:53Z</time>
      </trkpt>
      <trkpt lat="41.4364310" lon="-8.7814210">
        <ele>10.8</ele>
        <time>2021-05-17T06:32:54Z</time>
      </trkpt>
      <trkpt lat="41.4364480" lon="-8.7814180">
        <ele>10.8</ele>
        <time>2021-05-17T06:32:55Z</time>
      </trkpt>
      <trkpt lat="41.4364700" lon="-8.7814100">
        <ele>10.8</ele>
        <time>2021-05-17T06:32:56Z</time>
      </trkpt>
      <trkpt lat="41.4364790" lon="-8.7814080">
        <ele>10.8</ele>
        <time>2021-05-17T06:32:57Z</time>
      </trkpt>
      <trkpt lat="41.4364880" lon="-8.7814050">
        <ele>10.8</ele>
        <time>2021-05-17T06:32:58Z</time>
      </trkpt>
      <trkpt lat="41.4365020" lon="-8.7814040">
        <ele>10.8</ele>
        <time>2021-05-17T06:32:59Z</time>
      </trkpt>
      <trkpt lat="41.4365160" lon="-8.7813980">
        <ele>10.8</ele>
        <time>2021-05-17T06:33:00Z</time>
      </trkpt>
      <trkpt lat="41.4365290" lon="-8.7813850">
        <ele>10.8</ele>
        <time>2021-05-17T06:33:01Z</time>
      </trkpt>
      <trkpt lat="41.4365420" lon="-8.7813800">
        <ele>10.8</ele>
        <time>2021-05-17T06:33:02Z</time>
      </trkpt>
      <trkpt lat="41.4365560" lon="-8.7813820">
        <ele>10.8</ele>
        <time>2021-05-17T06:33:03Z</time>
      </trkpt>
      <trkpt lat="41.4365700" lon="-8.7813720">
        <ele>10.8</ele>
        <time>2021-05-17T06:33:04Z</time>
      </trkpt>
      <trkpt lat="41.4365840" lon="-8.7813700">
        <ele>10.8</ele>
        <time>2021-05-17T06:33:05Z</time>
      </trkpt>
      <trkpt lat="41.4365980" lon="-8.7813640">
        <ele>10.9</ele>
        <time>2021-05-17T06:33:06Z</time>
      </trkpt>
      <trkpt lat="41.4366130" lon="-8.7813640">
        <ele>10.9</ele>
        <time>2021-05-17T06:33:07Z</time>
      </trkpt>
      <trkpt lat="41.4366270" lon="-8.7813570">
        <ele>10.9</ele>
        <time>2021-05-17T06:33:08Z</time>
      </trkpt>
      <trkpt lat="41.4366410" lon="-8.7813500">
        <ele>10.9</ele>
        <time>2021-05-17T06:33:09Z</time>
      </trkpt>
      <trkpt lat="41.4366550" lon="-8.7813450">
        <ele>10.9</ele>
        <time>2021-05-17T06:33:10Z</time>
      </trkpt>
      <trkpt lat="41.4366690" lon="-8.7813410">
        <ele>10.9</ele>
        <time>2021-05-17T06:33:11Z</time>
      </trkpt>
      <trkpt lat="41.4366830" lon="-8.7813350">
        <ele>10.9</ele>
        <time>2021-05-17T06:33:12Z</time>
      </trkpt>
      <trkpt lat="41.4366980" lon="-8.7813310">
        <ele>10.9</ele>
        <time>2021-05-17T06:33:13Z</time>
      </trkpt>
      <trkpt lat="41.4367120" lon="-8.7813250">
        <ele>10.9</ele>
        <time>2021-05-17T06:33:14Z</time>
      </trkpt>
      <trkpt lat="41.4367270" lon="-8.7813220">
        <ele>10.9</ele>
        <time>2021-05-17T06:33:15Z</time>
      </trkpt>
      <trkpt lat="41.4367420" lon="-8.7813140">
        <ele>10.9</ele>
        <time>2021-05-17T06:33:16Z</time>
      </trkpt>
      <trkpt lat="41.4367550" lon="-8.7813140">
        <ele>10.9</ele>
        <time>2021-05-17T06:33:17Z</time>
      </trkpt>
      <trkpt lat="41.4367720" lon="-8.7813120">
        <ele>10.9</ele>
        <time>2021-05-17T06:33:18Z</time>
      </trkpt>
      <trkpt lat="41.4367840" lon="-8.7813030">
        <ele>10.9</ele>
        <time>2021-05-17T06:33:19Z</time>
      </trkpt>
      <trkpt lat="41.4367990" lon="-8.7813050">
        <ele>11.0</ele>
        <time>2021-05-17T06:33:20Z</time>
      </trkpt>
      <trkpt lat="41.4368110" lon="-8.7812970">
        <ele>11.0</ele>
        <time>2021-05-17T06:33:21Z</time>
      </trkpt>
      <trkpt lat="41.4368260" lon="-8.7812970">
        <ele>11.0</ele>
        <time>2021-05-17T06:33:22Z</time>
      </trkpt>
      <trkpt lat="41.4368410" lon="-8.7812920">
        <ele>11.0</ele>
        <time>2021-05-17T06:33:23Z</time>
      </trkpt>
      <trkpt lat="41.4368520" lon="-8.7812850">
        <ele>11.0</ele>
        <time>2021-05-17T06:33:24Z</time>
      </trkpt>
      <trkpt lat="41.4368680" lon="-8.7812830">
        <ele>11.0</ele>
        <time>2021-05-17T06:33:25Z</time>
      </trkpt>
      <trkpt lat="41.4368810" lon="-8.7812730">
        <ele>11.0</ele>
        <time>2021-05-17T06:33:26Z</time>
      </trkpt>
      <trkpt lat="41.4368950" lon="-8.7812650">
        <ele>11.0</ele>
        <time>2021-05-17T06:33:27Z</time>
      </trkpt>
      <trkpt lat="41.4369090" lon="-8.7812630">
        <ele>11.0</ele>
        <time>2021-05-17T06:33:28Z</time>
      </trkpt>
      <trkpt lat="41.4369230" lon="-8.7812570">
        <ele>11.0</ele>
        <time>2021-05-17T06:33:29Z</time>
      </trkpt>
      <trkpt lat="41.4369350" lon="-8.7812470">
        <ele>11.0</ele>
        <time>2021-05-17T06:33:30Z</time>
      </trkpt>
      <trkpt lat="41.4369490" lon="-8.7812430">
        <ele>11.0</ele>
        <time>2021-05-17T06:33:31Z</time>
      </trkpt>
      <trkpt lat="41.4369620" lon="-8.7812360">
        <ele>11.0</ele>
        <time>2021-05-17T06:33:32Z</time>
      </trkpt>
      <trkpt lat="41.4369750" lon="-8.7812310">
        <ele>11.0</ele>
        <time>2021-05-17T06:33:33Z</time>
      </trkpt>
      <trkpt lat="41.4369890" lon="-8.7812230">
        <ele>11.0</ele>
        <time>2021-05-17T06:33:34Z</time>
      </trkpt>
      <trkpt lat="41.4370010" lon="-8.7812150">
        <ele>11.0</ele>
        <time>2021-05-17T06:33:35Z</time>
      </trkpt>
      <trkpt lat="41.4370180" lon="-8.7812160">
        <ele>10.9</ele>
        <time>2021-05-17T06:33:36Z</time>
      </trkpt>
      <trkpt lat="41.4370320" lon="-8.7812080">
        <ele>10.9</ele>
        <time>2021-05-17T06:33:37Z</time>
      </trkpt>
      <trkpt lat="41.4370480" lon="-8.7812050">
        <ele>10.9</ele>
        <time>2021-05-17T06:33:38Z</time>
      </trkpt>
      <trkpt lat="41.4370640" lon="-8.7812000">
        <ele>10.9</ele>
        <time>2021-05-17T06:33:39Z</time>
      </trkpt>
      <trkpt lat="41.4370760" lon="-8.7811900">
        <ele>10.9</ele>
        <time>2021-05-17T06:33:40Z</time>
      </trkpt>
      <trkpt lat="41.4370910" lon="-8.7811840">
        <ele>10.9</ele>
        <time>2021-05-17T06:33:41Z</time>
      </trkpt>
      <trkpt lat="41.4371030" lon="-8.7811770">
        <ele>10.9</ele>
        <time>2021-05-17T06:33:42Z</time>
      </trkpt>
      <trkpt lat="41.4371160" lon="-8.7811720">
        <ele>10.9</ele>
        <time>2021-05-17T06:33:43Z</time>
      </trkpt>
      <trkpt lat="41.4371290" lon="-8.7811580">
        <ele>10.9</ele>
        <time>2021-05-17T06:33:44Z</time>
      </trkpt>
      <trkpt lat="41.4371430" lon="-8.7811560">
        <ele>10.9</ele>
        <time>2021-05-17T06:33:45Z</time>
      </trkpt>
      <trkpt lat="41.4371570" lon="-8.7811530">
        <ele>10.9</ele>
        <time>2021-05-17T06:33:46Z</time>
      </trkpt>
      <trkpt lat="41.4371700" lon="-8.7811420">
        <ele>10.9</ele>
        <time>2021-05-17T06:33:47Z</time>
      </trkpt>
      <trkpt lat="41.4371810" lon="-8.7811330">
        <ele>10.9</ele>
        <time>2021-05-17T06:33:48Z</time>
      </trkpt>
      <trkpt lat="41.4371930" lon="-8.7811280">
        <ele>10.8</ele>
        <time>2021-05-17T06:33:49Z</time>
      </trkpt>
      <trkpt lat="41.4372070" lon="-8.7811200">
        <ele>10.8</ele>
        <time>2021-05-17T06:33:50Z</time>
      </trkpt>
      <trkpt lat="41.4372220" lon="-8.7811110">
        <ele>10.8</ele>
        <time>2021-05-17T06:33:51Z</time>
      </trkpt>
      <trkpt lat="41.4372370" lon="-8.7811090">
        <ele>10.8</ele>
        <time>2021-05-17T06:33:52Z</time>
      </trkpt>
      <trkpt lat="41.4372520" lon="-8.7811030">
        <ele>10.8</ele>
        <time>2021-05-17T06:33:53Z</time>
      </trkpt>
      <trkpt lat="41.4372660" lon="-8.7810950">
        <ele>10.8</ele>
        <time>2021-05-17T06:33:54Z</time>
      </trkpt>
      <trkpt lat="41.4372800" lon="-8.7810920">
        <ele>10.8</ele>
        <time>2021-05-17T06:33:55Z</time>
      </trkpt>
      <trkpt lat="41.4372950" lon="-8.7810890">
        <ele>10.8</ele>
        <time>2021-05-17T06:33:56Z</time>
      </trkpt>
      <trkpt lat="41.4373110" lon="-8.7810790">
        <ele>10.8</ele>
        <time>2021-05-17T06:33:57Z</time>
      </trkpt>
      <trkpt lat="41.4373250" lon="-8.7810740">
        <ele>10.8</ele>
        <time>2021-05-17T06:33:58Z</time>
      </trkpt>
      <trkpt lat="41.4373390" lon="-8.7810660">
        <ele>10.8</ele>
        <time>2021-05-17T06:33:59Z</time>
      </trkpt>
      <trkpt lat="41.4373520" lon="-8.7810610">
        <ele>10.8</ele>
        <time>2021-05-17T06:34:00Z</time>
      </trkpt>
      <trkpt lat="41.4373650" lon="-8.7810530">
        <ele>10.8</ele>
        <time>2021-05-17T06:34:01Z</time>
      </trkpt>
      <trkpt lat="41.4373790" lon="-8.7810510">
        <ele>10.8</ele>
        <time>2021-05-17T06:34:02Z</time>
      </trkpt>
      <trkpt lat="41.4373930" lon="-8.7810490">
        <ele>10.8</ele>
        <time>2021-05-17T06:34:03Z</time>
      </trkpt>
      <trkpt lat="41.4374080" lon="-8.7810400">
        <ele>10.8</ele>
        <time>2021-05-17T06:34:04Z</time>
      </trkpt>
      <trkpt lat="41.4374230" lon="-8.7810360">
        <ele>10.8</ele>
        <time>2021-05-17T06:34:05Z</time>
      </trkpt>
      <trkpt lat="41.4374380" lon="-8.7810280">
        <ele>10.8</ele>
        <time>2021-05-17T06:34:06Z</time>
      </trkpt>
      <trkpt lat="41.4374530" lon="-8.7810220">
        <ele>10.8</ele>
        <time>2021-05-17T06:34:07Z</time>
      </trkpt>
      <trkpt lat="41.4374670" lon="-8.7810170">
        <ele>10.8</ele>
        <time>2021-05-17T06:34:08Z</time>
      </trkpt>
      <trkpt lat="41.4374820" lon="-8.7810130">
        <ele>10.8</ele>
        <time>2021-05-17T06:34:09Z</time>
      </trkpt>
      <trkpt lat="41.4374960" lon="-8.7810050">
        <ele>10.8</ele>
        <time>2021-05-17T06:34:10Z</time>
      </trkpt>
      <trkpt lat="41.4375080" lon="-8.7809930">
        <ele>10.9</ele>
        <time>2021-05-17T06:34:11Z</time>
      </trkpt>
      <trkpt lat="41.4375220" lon="-8.7809870">
        <ele>10.9</ele>
        <time>2021-05-17T06:34:12Z</time>
      </trkpt>
      <trkpt lat="41.4375410" lon="-8.7809760">
        <ele>10.9</ele>
        <time>2021-05-17T06:34:13Z</time>
      </trkpt>
      <trkpt lat="41.4375500" lon="-8.7809720">
        <ele>10.9</ele>
        <time>2021-05-17T06:34:14Z</time>
      </trkpt>
      <trkpt lat="41.4375580" lon="-8.7809670">
        <ele>10.9</ele>
        <time>2021-05-17T06:34:15Z</time>
      </trkpt>
      <trkpt lat="41.4375710" lon="-8.7809590">
        <ele>10.9</ele>
        <time>2021-05-17T06:34:16Z</time>
      </trkpt>
      <trkpt lat="41.4375850" lon="-8.7809540">
        <ele>11.0</ele>
        <time>2021-05-17T06:34:17Z</time>
      </trkpt>
      <trkpt lat="41.4376070" lon="-8.7809450">
        <ele>11.0</ele>
        <time>2021-05-17T06:34:18Z</time>
      </trkpt>
      <trkpt lat="41.4376160" lon="-8.7809420">
        <ele>11.0</ele>
        <time>2021-05-17T06:34:19Z</time>
      </trkpt>
      <trkpt lat="41.4376240" lon="-8.7809380">
        <ele>11.0</ele>
        <time>2021-05-17T06:34:20Z</time>
      </trkpt>
      <trkpt lat="41.4376450" lon="-8.7809270">
        <ele>11.1</ele>
        <time>2021-05-17T06:34:21Z</time>
      </trkpt>
      <trkpt lat="41.4376540" lon="-8.7809230">
        <ele>11.1</ele>
        <time>2021-05-17T06:34:22Z</time>
      </trkpt>
      <trkpt lat="41.4376620" lon="-8.7809180">
        <ele>11.1</ele>
        <time>2021-05-17T06:34:23Z</time>
      </trkpt>
      <trkpt lat="41.4376760" lon="-8.7809140">
        <ele>11.1</ele>
        <time>2021-05-17T06:34:24Z</time>
      </trkpt>
      <trkpt lat="41.4376890" lon="-8.7809100">
        <ele>11.2</ele>
        <time>2021-05-17T06:34:25Z</time>
      </trkpt>
      <trkpt lat="41.4377030" lon="-8.7808990">
        <ele>11.2</ele>
        <time>2021-05-17T06:34:26Z</time>
      </trkpt>
      <trkpt lat="41.4377180" lon="-8.7808850">
        <ele>11.2</ele>
        <time>2021-05-17T06:34:27Z</time>
      </trkpt>
      <trkpt lat="41.4377390" lon="-8.7808760">
        <ele>11.3</ele>
        <time>2021-05-17T06:34:28Z</time>
      </trkpt>
      <trkpt lat="41.4377480" lon="-8.7808740">
        <ele>11.3</ele>
        <time>2021-05-17T06:34:29Z</time>
      </trkpt>
      <trkpt lat="41.4377580" lon="-8.7808710">
        <ele>11.3</ele>
        <time>2021-05-17T06:34:30Z</time>
      </trkpt>
      <trkpt lat="41.4377770" lon="-8.7808630">
        <ele>11.3</ele>
        <time>2021-05-17T06:34:31Z</time>
      </trkpt>
      <trkpt lat="41.4377860" lon="-8.7808570">
        <ele>11.3</ele>
        <time>2021-05-17T06:34:32Z</time>
      </trkpt>
      <trkpt lat="41.4377950" lon="-8.7808520">
        <ele>11.3</ele>
        <time>2021-05-17T06:34:33Z</time>
      </trkpt>
      <trkpt lat="41.4378080" lon="-8.7808460">
        <ele>11.3</ele>
        <time>2021-05-17T06:34:34Z</time>
      </trkpt>
      <trkpt lat="41.4378200" lon="-8.7808360">
        <ele>11.4</ele>
        <time>2021-05-17T06:34:35Z</time>
      </trkpt>
      <trkpt lat="41.4378320" lon="-8.7808280">
        <ele>11.4</ele>
        <time>2021-05-17T06:34:36Z</time>
      </trkpt>
      <trkpt lat="41.4378450" lon="-8.7808170">
        <ele>11.4</ele>
        <time>2021-05-17T06:34:37Z</time>
      </trkpt>
      <trkpt lat="41.4378600" lon="-8.7808170">
        <ele>11.4</ele>
        <time>2021-05-17T06:34:38Z</time>
      </trkpt>
      <trkpt lat="41.4378730" lon="-8.7808040">
        <ele>11.4</ele>
        <time>2021-05-17T06:34:39Z</time>
      </trkpt>
      <trkpt lat="41.4378870" lon="-8.7808030">
        <ele>11.4</ele>
        <time>2021-05-17T06:34:40Z</time>
      </trkpt>
      <trkpt lat="41.4379000" lon="-8.7807880">
        <ele>11.4</ele>
        <time>2021-05-17T06:34:41Z</time>
      </trkpt>
      <trkpt lat="41.4379100" lon="-8.7807780">
        <ele>11.4</ele>
        <time>2021-05-17T06:34:42Z</time>
      </trkpt>
      <trkpt lat="41.4379270" lon="-8.7807760">
        <ele>11.4</ele>
        <time>2021-05-17T06:34:43Z</time>
      </trkpt>
      <trkpt lat="41.4379400" lon="-8.7807620">
        <ele>11.4</ele>
        <time>2021-05-17T06:34:44Z</time>
      </trkpt>
      <trkpt lat="41.4379540" lon="-8.7807570">
        <ele>11.4</ele>
        <time>2021-05-17T06:34:45Z</time>
      </trkpt>
      <trkpt lat="41.4379680" lon="-8.7807460">
        <ele>11.4</ele>
        <time>2021-05-17T06:34:46Z</time>
      </trkpt>
      <trkpt lat="41.4379800" lon="-8.7807350">
        <ele>11.4</ele>
        <time>2021-05-17T06:34:47Z</time>
      </trkpt>
      <trkpt lat="41.4379940" lon="-8.7807320">
        <ele>11.4</ele>
        <time>2021-05-17T06:34:48Z</time>
      </trkpt>
      <trkpt lat="41.4380100" lon="-8.7807250">
        <ele>11.4</ele>
        <time>2021-05-17T06:34:49Z</time>
      </trkpt>
      <trkpt lat="41.4380190" lon="-8.7807120">
        <ele>11.4</ele>
        <time>2021-05-17T06:34:50Z</time>
      </trkpt>
      <trkpt lat="41.4380330" lon="-8.7807040">
        <ele>11.4</ele>
        <time>2021-05-17T06:34:51Z</time>
      </trkpt>
      <trkpt lat="41.4380450" lon="-8.7806900">
        <ele>11.4</ele>
        <time>2021-05-17T06:34:52Z</time>
      </trkpt>
      <trkpt lat="41.4380580" lon="-8.7806790">
        <ele>11.4</ele>
        <time>2021-05-17T06:34:53Z</time>
      </trkpt>
      <trkpt lat="41.4380730" lon="-8.7806760">
        <ele>11.4</ele>
        <time>2021-05-17T06:34:54Z</time>
      </trkpt>
      <trkpt lat="41.4380830" lon="-8.7806620">
        <ele>11.4</ele>
        <time>2021-05-17T06:34:55Z</time>
      </trkpt>
      <trkpt lat="41.4380970" lon="-8.7806570">
        <ele>11.3</ele>
        <time>2021-05-17T06:34:56Z</time>
      </trkpt>
      <trkpt lat="41.4381080" lon="-8.7806400">
        <ele>11.3</ele>
        <time>2021-05-17T06:34:57Z</time>
      </trkpt>
      <trkpt lat="41.4381210" lon="-8.7806370">
        <ele>11.3</ele>
        <time>2021-05-17T06:34:58Z</time>
      </trkpt>
      <trkpt lat="41.4381330" lon="-8.7806240">
        <ele>11.3</ele>
        <time>2021-05-17T06:34:59Z</time>
      </trkpt>
      <trkpt lat="41.4381470" lon="-8.7806150">
        <ele>11.3</ele>
        <time>2021-05-17T06:35:00Z</time>
      </trkpt>
      <trkpt lat="41.4381590" lon="-8.7806070">
        <ele>11.3</ele>
        <time>2021-05-17T06:35:01Z</time>
      </trkpt>
      <trkpt lat="41.4381740" lon="-8.7805980">
        <ele>11.3</ele>
        <time>2021-05-17T06:35:02Z</time>
      </trkpt>
      <trkpt lat="41.4381890" lon="-8.7805940">
        <ele>11.2</ele>
        <time>2021-05-17T06:35:03Z</time>
      </trkpt>
      <trkpt lat="41.4382030" lon="-8.7805830">
        <ele>11.2</ele>
        <time>2021-05-17T06:35:04Z</time>
      </trkpt>
      <trkpt lat="41.4382170" lon="-8.7805760">
        <ele>11.2</ele>
        <time>2021-05-17T06:35:05Z</time>
      </trkpt>
      <trkpt lat="41.4382300" lon="-8.7805690">
        <ele>11.2</ele>
        <time>2021-05-17T06:35:06Z</time>
      </trkpt>
      <trkpt lat="41.4382450" lon="-8.7805590">
        <ele>11.2</ele>
        <time>2021-05-17T06:35:07Z</time>
      </trkpt>
      <trkpt lat="41.4382580" lon="-8.7805550">
        <ele>11.2</ele>
        <time>2021-05-17T06:35:08Z</time>
      </trkpt>
      <trkpt lat="41.4382710" lon="-8.7805530">
        <ele>11.1</ele>
        <time>2021-05-17T06:35:09Z</time>
      </trkpt>
      <trkpt lat="41.4382830" lon="-8.7805320">
        <ele>11.1</ele>
        <time>2021-05-17T06:35:10Z</time>
      </trkpt>
      <trkpt lat="41.4382970" lon="-8.7805240">
        <ele>11.1</ele>
        <time>2021-05-17T06:35:11Z</time>
      </trkpt>
      <trkpt lat="41.4383160" lon="-8.7805060">
        <ele>11.1</ele>
        <time>2021-05-17T06:35:12Z</time>
      </trkpt>
      <trkpt lat="41.4383250" lon="-8.7805020">
        <ele>11.0</ele>
        <time>2021-05-17T06:35:13Z</time>
      </trkpt>
      <trkpt lat="41.4383330" lon="-8.7804970">
        <ele>11.0</ele>
        <time>2021-05-17T06:35:14Z</time>
      </trkpt>
      <trkpt lat="41.4383470" lon="-8.7804900">
        <ele>11.0</ele>
        <time>2021-05-17T06:35:15Z</time>
      </trkpt>
      <trkpt lat="41.4383590" lon="-8.7804840">
        <ele>11.0</ele>
        <time>2021-05-17T06:35:16Z</time>
      </trkpt>
      <trkpt lat="41.4383700" lon="-8.7804680">
        <ele>11.0</ele>
        <time>2021-05-17T06:35:17Z</time>
      </trkpt>
      <trkpt lat="41.4383850" lon="-8.7804660">
        <ele>11.0</ele>
        <time>2021-05-17T06:35:18Z</time>
      </trkpt>
      <trkpt lat="41.4383990" lon="-8.7804600">
        <ele>10.9</ele>
        <time>2021-05-17T06:35:19Z</time>
      </trkpt>
      <trkpt lat="41.4384100" lon="-8.7804520">
        <ele>10.9</ele>
        <time>2021-05-17T06:35:20Z</time>
      </trkpt>
      <trkpt lat="41.4384230" lon="-8.7804370">
        <ele>10.9</ele>
        <time>2021-05-17T06:35:21Z</time>
      </trkpt>
      <trkpt lat="41.4384360" lon="-8.7804260">
        <ele>10.9</ele>
        <time>2021-05-17T06:35:22Z</time>
      </trkpt>
      <trkpt lat="41.4384470" lon="-8.7804120">
        <ele>10.9</ele>
        <time>2021-05-17T06:35:23Z</time>
      </trkpt>
      <trkpt lat="41.4384590" lon="-8.7803990">
        <ele>10.9</ele>
        <time>2021-05-17T06:35:24Z</time>
      </trkpt>
      <trkpt lat="41.4384730" lon="-8.7803890">
        <ele>10.8</ele>
        <time>2021-05-17T06:35:25Z</time>
      </trkpt>
      <trkpt lat="41.4384840" lon="-8.7803780">
        <ele>10.8</ele>
        <time>2021-05-17T06:35:26Z</time>
      </trkpt>
      <trkpt lat="41.4384990" lon="-8.7803760">
        <ele>10.8</ele>
        <time>2021-05-17T06:35:27Z</time>
      </trkpt>
      <trkpt lat="41.4385100" lon="-8.7803620">
        <ele>10.8</ele>
        <time>2021-05-17T06:35:28Z</time>
      </trkpt>
      <trkpt lat="41.4385250" lon="-8.7803560">
        <ele>10.8</ele>
        <time>2021-05-17T06:35:29Z</time>
      </trkpt>
      <trkpt lat="41.4385370" lon="-8.7803420">
        <ele>10.7</ele>
        <time>2021-05-17T06:35:30Z</time>
      </trkpt>
      <trkpt lat="41.4385500" lon="-8.7803350">
        <ele>10.7</ele>
        <time>2021-05-17T06:35:31Z</time>
      </trkpt>
      <trkpt lat="41.4385640" lon="-8.7803290">
        <ele>10.7</ele>
        <time>2021-05-17T06:35:32Z</time>
      </trkpt>
      <trkpt lat="41.4385820" lon="-8.7803140">
        <ele>10.6</ele>
        <time>2021-05-17T06:35:33Z</time>
      </trkpt>
      <trkpt lat="41.4385910" lon="-8.7803120">
        <ele>10.6</ele>
        <time>2021-05-17T06:35:34Z</time>
      </trkpt>
      <trkpt lat="41.4385990" lon="-8.7803090">
        <ele>10.5</ele>
        <time>2021-05-17T06:35:35Z</time>
      </trkpt>
      <trkpt lat="41.4386200" lon="-8.7803010">
        <ele>10.5</ele>
        <time>2021-05-17T06:35:36Z</time>
      </trkpt>
      <trkpt lat="41.4386300" lon="-8.7802970">
        <ele>10.4</ele>
        <time>2021-05-17T06:35:37Z</time>
      </trkpt>
      <trkpt lat="41.4386390" lon="-8.7802920">
        <ele>10.4</ele>
        <time>2021-05-17T06:35:38Z</time>
      </trkpt>
      <trkpt lat="41.4386530" lon="-8.7802900">
        <ele>10.4</ele>
        <time>2021-05-17T06:35:39Z</time>
      </trkpt>
      <trkpt lat="41.4386660" lon="-8.7802760">
        <ele>10.3</ele>
        <time>2021-05-17T06:35:40Z</time>
      </trkpt>
      <trkpt lat="41.4386870" lon="-8.7802660">
        <ele>10.2</ele>
        <time>2021-05-17T06:35:41Z</time>
      </trkpt>
      <trkpt lat="41.4386960" lon="-8.7802610">
        <ele>10.2</ele>
        <time>2021-05-17T06:35:42Z</time>
      </trkpt>
      <trkpt lat="41.4387050" lon="-8.7802550">
        <ele>10.1</ele>
        <time>2021-05-17T06:35:43Z</time>
      </trkpt>
      <trkpt lat="41.4387180" lon="-8.7802480">
        <ele>10.1</ele>
        <time>2021-05-17T06:35:44Z</time>
      </trkpt>
      <trkpt lat="41.4387340" lon="-8.7802330">
        <ele>10.0</ele>
        <time>2021-05-17T06:35:45Z</time>
      </trkpt>
      <trkpt lat="41.4387450" lon="-8.7802190">
        <ele>9.9</ele>
        <time>2021-05-17T06:35:46Z</time>
      </trkpt>
      <trkpt lat="41.4387630" lon="-8.7802130">
        <ele>9.8</ele>
        <time>2021-05-17T06:35:47Z</time>
      </trkpt>
      <trkpt lat="41.4387740" lon="-8.7802010">
        <ele>9.8</ele>
        <time>2021-05-17T06:35:48Z</time>
      </trkpt>
      <trkpt lat="41.4387880" lon="-8.7801930">
        <ele>9.7</ele>
        <time>2021-05-17T06:35:49Z</time>
      </trkpt>
      <trkpt lat="41.4388020" lon="-8.7801910">
        <ele>9.7</ele>
        <time>2021-05-17T06:35:50Z</time>
      </trkpt>
      <trkpt lat="41.4388160" lon="-8.7801870">
        <ele>9.6</ele>
        <time>2021-05-17T06:35:51Z</time>
      </trkpt>
      <trkpt lat="41.4388290" lon="-8.7801720">
        <ele>9.6</ele>
        <time>2021-05-17T06:35:52Z</time>
      </trkpt>
      <trkpt lat="41.4388460" lon="-8.7801700">
        <ele>9.5</ele>
        <time>2021-05-17T06:35:53Z</time>
      </trkpt>
      <trkpt lat="41.4388660" lon="-8.7801600">
        <ele>9.4</ele>
        <time>2021-05-17T06:35:54Z</time>
      </trkpt>
      <trkpt lat="41.4388760" lon="-8.7801530">
        <ele>9.4</ele>
        <time>2021-05-17T06:35:55Z</time>
      </trkpt>
      <trkpt lat="41.4388850" lon="-8.7801470">
        <ele>9.4</ele>
        <time>2021-05-17T06:35:56Z</time>
      </trkpt>
      <trkpt lat="41.4388930" lon="-8.7801260">
        <ele>9.3</ele>
        <time>2021-05-17T06:35:57Z</time>
      </trkpt>
      <trkpt lat="41.4389090" lon="-8.7801200">
        <ele>9.3</ele>
        <time>2021-05-17T06:35:58Z</time>
      </trkpt>
      <trkpt lat="41.4389190" lon="-8.7801160">
        <ele>9.2</ele>
        <time>2021-05-17T06:35:59Z</time>
      </trkpt>
      <trkpt lat="41.4389330" lon="-8.7801090">
        <ele>9.2</ele>
        <time>2021-05-17T06:36:00Z</time>
      </trkpt>
      <trkpt lat="41.4389430" lon="-8.7801040">
        <ele>9.1</ele>
        <time>2021-05-17T06:36:01Z</time>
      </trkpt>
      <trkpt lat="41.4389570" lon="-8.7800940">
        <ele>9.1</ele>
        <time>2021-05-17T06:36:02Z</time>
      </trkpt>
      <trkpt lat="41.4389690" lon="-8.7800830">
        <ele>9.1</ele>
        <time>2021-05-17T06:36:03Z</time>
      </trkpt>
      <trkpt lat="41.4389850" lon="-8.7800770">
        <ele>9.0</ele>
        <time>2021-05-17T06:36:04Z</time>
      </trkpt>
      <trkpt lat="41.4390000" lon="-8.7800730">
        <ele>9.0</ele>
        <time>2021-05-17T06:36:05Z</time>
      </trkpt>
      <trkpt lat="41.4390160" lon="-8.7800730">
        <ele>8.9</ele>
        <time>2021-05-17T06:36:06Z</time>
      </trkpt>
      <trkpt lat="41.4390310" lon="-8.7800610">
        <ele>8.9</ele>
        <time>2021-05-17T06:36:07Z</time>
      </trkpt>
      <trkpt lat="41.4390410" lon="-8.7800580">
        <ele>8.8</ele>
        <time>2021-05-17T06:36:08Z</time>
      </trkpt>
      <trkpt lat="41.4390570" lon="-8.7800450">
        <ele>8.8</ele>
        <time>2021-05-17T06:36:09Z</time>
      </trkpt>
      <trkpt lat="41.4390690" lon="-8.7800360">
        <ele>8.8</ele>
        <time>2021-05-17T06:36:10Z</time>
      </trkpt>
      <trkpt lat="41.4390840" lon="-8.7800270">
        <ele>8.7</ele>
        <time>2021-05-17T06:36:11Z</time>
      </trkpt>
      <trkpt lat="41.4390950" lon="-8.7800170">
        <ele>8.7</ele>
        <time>2021-05-17T06:36:12Z</time>
      </trkpt>
      <trkpt lat="41.4391080" lon="-8.7800050">
        <ele>8.7</ele>
        <time>2021-05-17T06:36:13Z</time>
      </trkpt>
      <trkpt lat="41.4391180" lon="-8.7799920">
        <ele>8.6</ele>
        <time>2021-05-17T06:36:14Z</time>
      </trkpt>
      <trkpt lat="41.4391340" lon="-8.7799870">
        <ele>8.6</ele>
        <time>2021-05-17T06:36:15Z</time>
      </trkpt>
      <trkpt lat="41.4391500" lon="-8.7799850">
        <ele>8.6</ele>
        <time>2021-05-17T06:36:16Z</time>
      </trkpt>
      <trkpt lat="41.4391620" lon="-8.7799760">
        <ele>8.5</ele>
        <time>2021-05-17T06:36:17Z</time>
      </trkpt>
      <trkpt lat="41.4391740" lon="-8.7799680">
        <ele>8.5</ele>
        <time>2021-05-17T06:36:18Z</time>
      </trkpt>
      <trkpt lat="41.4391890" lon="-8.7799610">
        <ele>8.5</ele>
        <time>2021-05-17T06:36:19Z</time>
      </trkpt>
      <trkpt lat="41.4392020" lon="-8.7799540">
        <ele>8.5</ele>
        <time>2021-05-17T06:36:20Z</time>
      </trkpt>
      <trkpt lat="41.4392180" lon="-8.7799490">
        <ele>8.5</ele>
        <time>2021-05-17T06:36:21Z</time>
      </trkpt>
      <trkpt lat="41.4392290" lon="-8.7799400">
        <ele>8.4</ele>
        <time>2021-05-17T06:36:22Z</time>
      </trkpt>
      <trkpt lat="41.4392420" lon="-8.7799320">
        <ele>8.4</ele>
        <time>2021-05-17T06:36:23Z</time>
      </trkpt>
      <trkpt lat="41.4392620" lon="-8.7799220">
        <ele>8.4</ele>
        <time>2021-05-17T06:36:24Z</time>
      </trkpt>
      <trkpt lat="41.4392690" lon="-8.7799150">
        <ele>8.4</ele>
        <time>2021-05-17T06:36:25Z</time>
      </trkpt>
      <trkpt lat="41.4392770" lon="-8.7799070">
        <ele>8.4</ele>
        <time>2021-05-17T06:36:26Z</time>
      </trkpt>
      <trkpt lat="41.4392890" lon="-8.7798970">
        <ele>8.4</ele>
        <time>2021-05-17T06:36:27Z</time>
      </trkpt>
      <trkpt lat="41.4393030" lon="-8.7798870">
        <ele>8.4</ele>
        <time>2021-05-17T06:36:28Z</time>
      </trkpt>
      <trkpt lat="41.4393180" lon="-8.7798860">
        <ele>8.4</ele>
        <time>2021-05-17T06:36:29Z</time>
      </trkpt>
      <trkpt lat="41.4393310" lon="-8.7798790">
        <ele>8.4</ele>
        <time>2021-05-17T06:36:30Z</time>
      </trkpt>
      <trkpt lat="41.4393470" lon="-8.7798770">
        <ele>8.4</ele>
        <time>2021-05-17T06:36:31Z</time>
      </trkpt>
      <trkpt lat="41.4393600" lon="-8.7798700">
        <ele>8.4</ele>
        <time>2021-05-17T06:36:32Z</time>
      </trkpt>
      <trkpt lat="41.4393830" lon="-8.7798580">
        <ele>8.4</ele>
        <time>2021-05-17T06:36:33Z</time>
      </trkpt>
      <trkpt lat="41.4393920" lon="-8.7798520">
        <ele>8.4</ele>
        <time>2021-05-17T06:36:34Z</time>
      </trkpt>
      <trkpt lat="41.4394000" lon="-8.7798450">
        <ele>8.4</ele>
        <time>2021-05-17T06:36:35Z</time>
      </trkpt>
      <trkpt lat="41.4394130" lon="-8.7798370">
        <ele>8.4</ele>
        <time>2021-05-17T06:36:36Z</time>
      </trkpt>
      <trkpt lat="41.4394260" lon="-8.7798330">
        <ele>8.4</ele>
        <time>2021-05-17T06:36:37Z</time>
      </trkpt>
      <trkpt lat="41.4394390" lon="-8.7798310">
        <ele>8.4</ele>
        <time>2021-05-17T06:36:38Z</time>
      </trkpt>
      <trkpt lat="41.4394540" lon="-8.7798290">
        <ele>8.4</ele>
        <time>2021-05-17T06:36:39Z</time>
      </trkpt>
      <trkpt lat="41.4394670" lon="-8.7798210">
        <ele>8.4</ele>
        <time>2021-05-17T06:36:40Z</time>
      </trkpt>
      <trkpt lat="41.4394830" lon="-8.7798100">
        <ele>8.4</ele>
        <time>2021-05-17T06:36:41Z</time>
      </trkpt>
      <trkpt lat="41.4395020" lon="-8.7797940">
        <ele>8.4</ele>
        <time>2021-05-17T06:36:42Z</time>
      </trkpt>
      <trkpt lat="41.4395110" lon="-8.7797890">
        <ele>8.4</ele>
        <time>2021-05-17T06:36:43Z</time>
      </trkpt>
      <trkpt lat="41.4395190" lon="-8.7797850">
        <ele>8.4</ele>
        <time>2021-05-17T06:36:44Z</time>
      </trkpt>
      <trkpt lat="41.4395320" lon="-8.7797820">
        <ele>8.4</ele>
        <time>2021-05-17T06:36:45Z</time>
      </trkpt>
      <trkpt lat="41.4395480" lon="-8.7797760">
        <ele>8.4</ele>
        <time>2021-05-17T06:36:46Z</time>
      </trkpt>
      <trkpt lat="41.4395620" lon="-8.7797730">
        <ele>8.4</ele>
        <time>2021-05-17T06:36:47Z</time>
      </trkpt>
      <trkpt lat="41.4395740" lon="-8.7797610">
        <ele>8.4</ele>
        <time>2021-05-17T06:36:48Z</time>
      </trkpt>
      <trkpt lat="41.4395900" lon="-8.7797550">
        <ele>8.4</ele>
        <time>2021-05-17T06:36:49Z</time>
      </trkpt>
      <trkpt lat="41.4396050" lon="-8.7797470">
        <ele>8.4</ele>
        <time>2021-05-17T06:36:50Z</time>
      </trkpt>
      <trkpt lat="41.4396180" lon="-8.7797400">
        <ele>8.4</ele>
        <time>2021-05-17T06:36:51Z</time>
      </trkpt>
      <trkpt lat="41.4396330" lon="-8.7797370">
        <ele>8.4</ele>
        <time>2021-05-17T06:36:52Z</time>
      </trkpt>
      <trkpt lat="41.4396450" lon="-8.7797300">
        <ele>8.4</ele>
        <time>2021-05-17T06:36:53Z</time>
      </trkpt>
      <trkpt lat="41.4396600" lon="-8.7797210">
        <ele>8.3</ele>
        <time>2021-05-17T06:36:54Z</time>
      </trkpt>
      <trkpt lat="41.4396740" lon="-8.7797150">
        <ele>8.3</ele>
        <time>2021-05-17T06:36:55Z</time>
      </trkpt>
      <trkpt lat="41.4396900" lon="-8.7797090">
        <ele>8.3</ele>
        <time>2021-05-17T06:36:56Z</time>
      </trkpt>
      <trkpt lat="41.4397010" lon="-8.7796930">
        <ele>8.3</ele>
        <time>2021-05-17T06:36:57Z</time>
      </trkpt>
      <trkpt lat="41.4397150" lon="-8.7796880">
        <ele>8.3</ele>
        <time>2021-05-17T06:36:58Z</time>
      </trkpt>
      <trkpt lat="41.4397290" lon="-8.7796780">
        <ele>8.3</ele>
        <time>2021-05-17T06:36:59Z</time>
      </trkpt>
      <trkpt lat="41.4397430" lon="-8.7796730">
        <ele>8.3</ele>
        <time>2021-05-17T06:37:00Z</time>
      </trkpt>
      <trkpt lat="41.4397580" lon="-8.7796680">
        <ele>8.3</ele>
        <time>2021-05-17T06:37:01Z</time>
      </trkpt>
      <trkpt lat="41.4397710" lon="-8.7796630">
        <ele>8.3</ele>
        <time>2021-05-17T06:37:02Z</time>
      </trkpt>
      <trkpt lat="41.4397930" lon="-8.7796500">
        <ele>8.3</ele>
        <time>2021-05-17T06:37:03Z</time>
      </trkpt>
      <trkpt lat="41.4398010" lon="-8.7796460">
        <ele>8.3</ele>
        <time>2021-05-17T06:37:04Z</time>
      </trkpt>
      <trkpt lat="41.4398100" lon="-8.7796410">
        <ele>8.3</ele>
        <time>2021-05-17T06:37:05Z</time>
      </trkpt>
      <trkpt lat="41.4398240" lon="-8.7796400">
        <ele>8.3</ele>
        <time>2021-05-17T06:37:06Z</time>
      </trkpt>
      <trkpt lat="41.4398380" lon="-8.7796320">
        <ele>8.3</ele>
        <time>2021-05-17T06:37:07Z</time>
      </trkpt>
      <trkpt lat="41.4398500" lon="-8.7796230">
        <ele>8.3</ele>
        <time>2021-05-17T06:37:08Z</time>
      </trkpt>
      <trkpt lat="41.4398640" lon="-8.7796110">
        <ele>8.3</ele>
        <time>2021-05-17T06:37:09Z</time>
      </trkpt>
      <trkpt lat="41.4398750" lon="-8.7796050">
        <ele>8.3</ele>
        <time>2021-05-17T06:37:10Z</time>
      </trkpt>
      <trkpt lat="41.4398910" lon="-8.7795990">
        <ele>8.3</ele>
        <time>2021-05-17T06:37:11Z</time>
      </trkpt>
      <trkpt lat="41.4399000" lon="-8.7795920">
        <ele>8.3</ele>
        <time>2021-05-17T06:37:12Z</time>
      </trkpt>
      <trkpt lat="41.4399190" lon="-8.7795900">
        <ele>8.3</ele>
        <time>2021-05-17T06:37:13Z</time>
      </trkpt>
      <trkpt lat="41.4399310" lon="-8.7795750">
        <ele>8.3</ele>
        <time>2021-05-17T06:37:14Z</time>
      </trkpt>
      <trkpt lat="41.4399440" lon="-8.7795680">
        <ele>8.3</ele>
        <time>2021-05-17T06:37:15Z</time>
      </trkpt>
      <trkpt lat="41.4399600" lon="-8.7795640">
        <ele>8.3</ele>
        <time>2021-05-17T06:37:16Z</time>
      </trkpt>
      <trkpt lat="41.4399730" lon="-8.7795580">
        <ele>8.3</ele>
        <time>2021-05-17T06:37:17Z</time>
      </trkpt>
      <trkpt lat="41.4399870" lon="-8.7795500">
        <ele>8.3</ele>
        <time>2021-05-17T06:37:18Z</time>
      </trkpt>
      <trkpt lat="41.4400000" lon="-8.7795470">
        <ele>8.3</ele>
        <time>2021-05-17T06:37:19Z</time>
      </trkpt>
      <trkpt lat="41.4400130" lon="-8.7795390">
        <ele>8.3</ele>
        <time>2021-05-17T06:37:20Z</time>
      </trkpt>
      <trkpt lat="41.4400270" lon="-8.7795310">
        <ele>8.3</ele>
        <time>2021-05-17T06:37:21Z</time>
      </trkpt>
      <trkpt lat="41.4400410" lon="-8.7795300">
        <ele>8.2</ele>
        <time>2021-05-17T06:37:22Z</time>
      </trkpt>
      <trkpt lat="41.4400570" lon="-8.7795250">
        <ele>8.2</ele>
        <time>2021-05-17T06:37:23Z</time>
      </trkpt>
      <trkpt lat="41.4400710" lon="-8.7795170">
        <ele>8.2</ele>
        <time>2021-05-17T06:37:24Z</time>
      </trkpt>
      <trkpt lat="41.4400840" lon="-8.7795070">
        <ele>8.2</ele>
        <time>2021-05-17T06:37:25Z</time>
      </trkpt>
      <trkpt lat="41.4400960" lon="-8.7794990">
        <ele>8.2</ele>
        <time>2021-05-17T06:37:26Z</time>
      </trkpt>
      <trkpt lat="41.4401110" lon="-8.7794950">
        <ele>8.2</ele>
        <time>2021-05-17T06:37:27Z</time>
      </trkpt>
      <trkpt lat="41.4401250" lon="-8.7794910">
        <ele>8.2</ele>
        <time>2021-05-17T06:37:28Z</time>
      </trkpt>
      <trkpt lat="41.4401380" lon="-8.7794820">
        <ele>8.1</ele>
        <time>2021-05-17T06:37:29Z</time>
      </trkpt>
      <trkpt lat="41.4401530" lon="-8.7794720">
        <ele>8.1</ele>
        <time>2021-05-17T06:37:30Z</time>
      </trkpt>
      <trkpt lat="41.4401690" lon="-8.7794730">
        <ele>8.1</ele>
        <time>2021-05-17T06:37:31Z</time>
      </trkpt>
      <trkpt lat="41.4401830" lon="-8.7794700">
        <ele>8.1</ele>
        <time>2021-05-17T06:37:32Z</time>
      </trkpt>
      <trkpt lat="41.4401980" lon="-8.7794610">
        <ele>8.0</ele>
        <time>2021-05-17T06:37:33Z</time>
      </trkpt>
      <trkpt lat="41.4402120" lon="-8.7794520">
        <ele>8.0</ele>
        <time>2021-05-17T06:37:34Z</time>
      </trkpt>
      <trkpt lat="41.4402250" lon="-8.7794440">
        <ele>8.0</ele>
        <time>2021-05-17T06:37:35Z</time>
      </trkpt>
      <trkpt lat="41.4402410" lon="-8.7794420">
        <ele>8.0</ele>
        <time>2021-05-17T06:37:36Z</time>
      </trkpt>
      <trkpt lat="41.4402540" lon="-8.7794320">
        <ele>7.9</ele>
        <time>2021-05-17T06:37:37Z</time>
      </trkpt>
      <trkpt lat="41.4402670" lon="-8.7794270">
        <ele>7.9</ele>
        <time>2021-05-17T06:37:38Z</time>
      </trkpt>
      <trkpt lat="41.4402840" lon="-8.7794200">
        <ele>7.9</ele>
        <time>2021-05-17T06:37:39Z</time>
      </trkpt>
      <trkpt lat="41.4402970" lon="-8.7794180">
        <ele>7.9</ele>
        <time>2021-05-17T06:37:40Z</time>
      </trkpt>
      <trkpt lat="41.4403100" lon="-8.7794070">
        <ele>7.9</ele>
        <time>2021-05-17T06:37:41Z</time>
      </trkpt>
      <trkpt lat="41.4403280" lon="-8.7794030">
        <ele>7.8</ele>
        <time>2021-05-17T06:37:42Z</time>
      </trkpt>
      <trkpt lat="41.4403420" lon="-8.7793910">
        <ele>7.8</ele>
        <time>2021-05-17T06:37:43Z</time>
      </trkpt>
      <trkpt lat="41.4403550" lon="-8.7793860">
        <ele>7.8</ele>
        <time>2021-05-17T06:37:44Z</time>
      </trkpt>
      <trkpt lat="41.4403690" lon="-8.7793770">
        <ele>7.8</ele>
        <time>2021-05-17T06:37:45Z</time>
      </trkpt>
      <trkpt lat="41.4403840" lon="-8.7793700">
        <ele>7.8</ele>
        <time>2021-05-17T06:37:46Z</time>
      </trkpt>
      <trkpt lat="41.4403980" lon="-8.7793670">
        <ele>7.7</ele>
        <time>2021-05-17T06:37:47Z</time>
      </trkpt>
      <trkpt lat="41.4404150" lon="-8.7793610">
        <ele>7.7</ele>
        <time>2021-05-17T06:37:48Z</time>
      </trkpt>
      <trkpt lat="41.4404270" lon="-8.7793500">
        <ele>7.7</ele>
        <time>2021-05-17T06:37:49Z</time>
      </trkpt>
      <trkpt lat="41.4404390" lon="-8.7793450">
        <ele>7.7</ele>
        <time>2021-05-17T06:37:50Z</time>
      </trkpt>
      <trkpt lat="41.4404550" lon="-8.7793440">
        <ele>7.7</ele>
        <time>2021-05-17T06:37:51Z</time>
      </trkpt>
      <trkpt lat="41.4404690" lon="-8.7793340">
        <ele>7.6</ele>
        <time>2021-05-17T06:37:52Z</time>
      </trkpt>
      <trkpt lat="41.4404820" lon="-8.7793250">
        <ele>7.6</ele>
        <time>2021-05-17T06:37:53Z</time>
      </trkpt>
      <trkpt lat="41.4404970" lon="-8.7793260">
        <ele>7.6</ele>
        <time>2021-05-17T06:37:54Z</time>
      </trkpt>
      <trkpt lat="41.4405120" lon="-8.7793170">
        <ele>7.6</ele>
        <time>2021-05-17T06:37:55Z</time>
      </trkpt>
      <trkpt lat="41.4405290" lon="-8.7793120">
        <ele>7.6</ele>
        <time>2021-05-17T06:37:56Z</time>
      </trkpt>
      <trkpt lat="41.4405420" lon="-8.7793050">
        <ele>7.6</ele>
        <time>2021-05-17T06:37:57Z</time>
      </trkpt>
      <trkpt lat="41.4405570" lon="-8.7793050">
        <ele>7.5</ele>
        <time>2021-05-17T06:37:58Z</time>
      </trkpt>
      <trkpt lat="41.4405720" lon="-8.7793040">
        <ele>7.5</ele>
        <time>2021-05-17T06:37:59Z</time>
      </trkpt>
      <trkpt lat="41.4405830" lon="-8.7792940">
        <ele>7.5</ele>
        <time>2021-05-17T06:38:00Z</time>
      </trkpt>
      <trkpt lat="41.4405980" lon="-8.7792860">
        <ele>7.5</ele>
        <time>2021-05-17T06:38:01Z</time>
      </trkpt>
      <trkpt lat="41.4406200" lon="-8.7792790">
        <ele>7.5</ele>
        <time>2021-05-17T06:38:02Z</time>
      </trkpt>
      <trkpt lat="41.4406300" lon="-8.7792760">
        <ele>7.5</ele>
        <time>2021-05-17T06:38:03Z</time>
      </trkpt>
      <trkpt lat="41.4406390" lon="-8.7792730">
        <ele>7.5</ele>
        <time>2021-05-17T06:38:04Z</time>
      </trkpt>
      <trkpt lat="41.4406530" lon="-8.7792700">
        <ele>7.5</ele>
        <time>2021-05-17T06:38:05Z</time>
      </trkpt>
      <trkpt lat="41.4406670" lon="-8.7792560">
        <ele>7.5</ele>
        <time>2021-05-17T06:38:06Z</time>
      </trkpt>
      <trkpt lat="41.4406830" lon="-8.7792590">
        <ele>7.4</ele>
        <time>2021-05-17T06:38:07Z</time>
      </trkpt>
      <trkpt lat="41.4406970" lon="-8.7792540">
        <ele>7.4</ele>
        <time>2021-05-17T06:38:08Z</time>
      </trkpt>
      <trkpt lat="41.4407100" lon="-8.7792470">
        <ele>7.4</ele>
        <time>2021-05-17T06:38:09Z</time>
      </trkpt>
      <trkpt lat="41.4407230" lon="-8.7792430">
        <ele>7.4</ele>
        <time>2021-05-17T06:38:10Z</time>
      </trkpt>
      <trkpt lat="41.4407360" lon="-8.7792370">
        <ele>7.4</ele>
        <time>2021-05-17T06:38:11Z</time>
      </trkpt>
      <trkpt lat="41.4407500" lon="-8.7792210">
        <ele>7.4</ele>
        <time>2021-05-17T06:38:12Z</time>
      </trkpt>
      <trkpt lat="41.4407630" lon="-8.7792130">
        <ele>7.4</ele>
        <time>2021-05-17T06:38:13Z</time>
      </trkpt>
      <trkpt lat="41.4407770" lon="-8.7792090">
        <ele>7.4</ele>
        <time>2021-05-17T06:38:14Z</time>
      </trkpt>
      <trkpt lat="41.4407920" lon="-8.7792030">
        <ele>7.4</ele>
        <time>2021-05-17T06:38:15Z</time>
      </trkpt>
      <trkpt lat="41.4408070" lon="-8.7791990">
        <ele>7.4</ele>
        <time>2021-05-17T06:38:16Z</time>
      </trkpt>
      <trkpt lat="41.4408220" lon="-8.7791930">
        <ele>7.4</ele>
        <time>2021-05-17T06:38:17Z</time>
      </trkpt>
      <trkpt lat="41.4408370" lon="-8.7791890">
        <ele>7.4</ele>
        <time>2021-05-17T06:38:18Z</time>
      </trkpt>
      <trkpt lat="41.4408600" lon="-8.7791760">
        <ele>7.4</ele>
        <time>2021-05-17T06:38:19Z</time>
      </trkpt>
      <trkpt lat="41.4408700" lon="-8.7791740">
        <ele>7.4</ele>
        <time>2021-05-17T06:38:20Z</time>
      </trkpt>
      <trkpt lat="41.4408790" lon="-8.7791710">
        <ele>7.4</ele>
        <time>2021-05-17T06:38:21Z</time>
      </trkpt>
      <trkpt lat="41.4408920" lon="-8.7791650">
        <ele>7.4</ele>
        <time>2021-05-17T06:38:22Z</time>
      </trkpt>
      <trkpt lat="41.4409060" lon="-8.7791560">
        <ele>7.4</ele>
        <time>2021-05-17T06:38:23Z</time>
      </trkpt>
      <trkpt lat="41.4409190" lon="-8.7791480">
        <ele>7.4</ele>
        <time>2021-05-17T06:38:24Z</time>
      </trkpt>
      <trkpt lat="41.4409340" lon="-8.7791390">
        <ele>7.4</ele>
        <time>2021-05-17T06:38:25Z</time>
      </trkpt>
      <trkpt lat="41.4409490" lon="-8.7791310">
        <ele>7.4</ele>
        <time>2021-05-17T06:38:26Z</time>
      </trkpt>
      <trkpt lat="41.4409640" lon="-8.7791290">
        <ele>7.4</ele>
        <time>2021-05-17T06:38:27Z</time>
      </trkpt>
      <trkpt lat="41.4409780" lon="-8.7791260">
        <ele>7.4</ele>
        <time>2021-05-17T06:38:28Z</time>
      </trkpt>
      <trkpt lat="41.4409920" lon="-8.7791140">
        <ele>7.4</ele>
        <time>2021-05-17T06:38:29Z</time>
      </trkpt>
      <trkpt lat="41.4410070" lon="-8.7791120">
        <ele>7.4</ele>
        <time>2021-05-17T06:38:30Z</time>
      </trkpt>
      <trkpt lat="41.4410190" lon="-8.7791020">
        <ele>7.4</ele>
        <time>2021-05-17T06:38:31Z</time>
      </trkpt>
      <trkpt lat="41.4410350" lon="-8.7790960">
        <ele>7.4</ele>
        <time>2021-05-17T06:38:32Z</time>
      </trkpt>
      <trkpt lat="41.4410510" lon="-8.7790950">
        <ele>7.4</ele>
        <time>2021-05-17T06:38:33Z</time>
      </trkpt>
      <trkpt lat="41.4410720" lon="-8.7790840">
        <ele>7.4</ele>
        <time>2021-05-17T06:38:34Z</time>
      </trkpt>
      <trkpt lat="41.4410800" lon="-8.7790780">
        <ele>7.4</ele>
        <time>2021-05-17T06:38:35Z</time>
      </trkpt>
      <trkpt lat="41.4410880" lon="-8.7790710">
        <ele>7.4</ele>
        <time>2021-05-17T06:38:36Z</time>
      </trkpt>
      <trkpt lat="41.4411040" lon="-8.7790650">
        <ele>7.4</ele>
        <time>2021-05-17T06:38:37Z</time>
      </trkpt>
      <trkpt lat="41.4411170" lon="-8.7790580">
        <ele>7.4</ele>
        <time>2021-05-17T06:38:38Z</time>
      </trkpt>
      <trkpt lat="41.4411390" lon="-8.7790490">
        <ele>7.4</ele>
        <time>2021-05-17T06:38:39Z</time>
      </trkpt>
      <trkpt lat="41.4411470" lon="-8.7790430">
        <ele>7.5</ele>
        <time>2021-05-17T06:38:40Z</time>
      </trkpt>
      <trkpt lat="41.4411560" lon="-8.7790380">
        <ele>7.5</ele>
        <time>2021-05-17T06:38:41Z</time>
      </trkpt>
      <trkpt lat="41.4411770" lon="-8.7790280">
        <ele>7.5</ele>
        <time>2021-05-17T06:38:42Z</time>
      </trkpt>
      <trkpt lat="41.4411860" lon="-8.7790290">
        <ele>7.5</ele>
        <time>2021-05-17T06:38:43Z</time>
      </trkpt>
      <trkpt lat="41.4411950" lon="-8.7790290">
        <ele>7.5</ele>
        <time>2021-05-17T06:38:44Z</time>
      </trkpt>
      <trkpt lat="41.4412100" lon="-8.7790200">
        <ele>7.5</ele>
        <time>2021-05-17T06:38:45Z</time>
      </trkpt>
      <trkpt lat="41.4412250" lon="-8.7790150">
        <ele>7.5</ele>
        <time>2021-05-17T06:38:46Z</time>
      </trkpt>
      <trkpt lat="41.4412370" lon="-8.7790060">
        <ele>7.5</ele>
        <time>2021-05-17T06:38:47Z</time>
      </trkpt>
      <trkpt lat="41.4412560" lon="-8.7790040">
        <ele>7.5</ele>
        <time>2021-05-17T06:38:48Z</time>
      </trkpt>
      <trkpt lat="41.4412680" lon="-8.7789960">
        <ele>7.5</ele>
        <time>2021-05-17T06:38:49Z</time>
      </trkpt>
      <trkpt lat="41.4412830" lon="-8.7789910">
        <ele>7.5</ele>
        <time>2021-05-17T06:38:50Z</time>
      </trkpt>
      <trkpt lat="41.4412990" lon="-8.7789900">
        <ele>7.5</ele>
        <time>2021-05-17T06:38:51Z</time>
      </trkpt>
      <trkpt lat="41.4413110" lon="-8.7789790">
        <ele>7.5</ele>
        <time>2021-05-17T06:38:52Z</time>
      </trkpt>
      <trkpt lat="41.4413270" lon="-8.7789750">
        <ele>7.5</ele>
        <time>2021-05-17T06:38:53Z</time>
      </trkpt>
      <trkpt lat="41.4413420" lon="-8.7789710">
        <ele>7.5</ele>
        <time>2021-05-17T06:38:54Z</time>
      </trkpt>
      <trkpt lat="41.4413550" lon="-8.7789630">
        <ele>7.6</ele>
        <time>2021-05-17T06:38:55Z</time>
      </trkpt>
      <trkpt lat="41.4413680" lon="-8.7789520">
        <ele>7.6</ele>
        <time>2021-05-17T06:38:56Z</time>
      </trkpt>
      <trkpt lat="41.4413830" lon="-8.7789550">
        <ele>7.6</ele>
        <time>2021-05-17T06:38:57Z</time>
      </trkpt>
      <trkpt lat="41.4413980" lon="-8.7789460">
        <ele>7.6</ele>
        <time>2021-05-17T06:38:58Z</time>
      </trkpt>
      <trkpt lat="41.4414120" lon="-8.7789430">
        <ele>7.6</ele>
        <time>2021-05-17T06:38:59Z</time>
      </trkpt>
      <trkpt lat="41.4414260" lon="-8.7789310">
        <ele>7.6</ele>
        <time>2021-05-17T06:39:00Z</time>
      </trkpt>
      <trkpt lat="41.4414390" lon="-8.7789270">
        <ele>7.6</ele>
        <time>2021-05-17T06:39:01Z</time>
      </trkpt>
      <trkpt lat="41.4414520" lon="-8.7789200">
        <ele>7.6</ele>
        <time>2021-05-17T06:39:02Z</time>
      </trkpt>
      <trkpt lat="41.4414670" lon="-8.7789130">
        <ele>7.6</ele>
        <time>2021-05-17T06:39:03Z</time>
      </trkpt>
      <trkpt lat="41.4414790" lon="-8.7789080">
        <ele>7.6</ele>
        <time>2021-05-17T06:39:04Z</time>
      </trkpt>
      <trkpt lat="41.4414940" lon="-8.7789030">
        <ele>7.6</ele>
        <time>2021-05-17T06:39:05Z</time>
      </trkpt>
      <trkpt lat="41.4415080" lon="-8.7788980">
        <ele>7.7</ele>
        <time>2021-05-17T06:39:06Z</time>
      </trkpt>
      <trkpt lat="41.4415220" lon="-8.7788940">
        <ele>7.7</ele>
        <time>2021-05-17T06:39:07Z</time>
      </trkpt>
      <trkpt lat="41.4415360" lon="-8.7788840">
        <ele>7.7</ele>
        <time>2021-05-17T06:39:08Z</time>
      </trkpt>
      <trkpt lat="41.4415510" lon="-8.7788820">
        <ele>7.7</ele>
        <time>2021-05-17T06:39:09Z</time>
      </trkpt>
      <trkpt lat="41.4415660" lon="-8.7788730">
        <ele>7.7</ele>
        <time>2021-05-17T06:39:10Z</time>
      </trkpt>
      <trkpt lat="41.4415780" lon="-8.7788650">
        <ele>7.7</ele>
        <time>2021-05-17T06:39:11Z</time>
      </trkpt>
      <trkpt lat="41.4415940" lon="-8.7788590">
        <ele>7.7</ele>
        <time>2021-05-17T06:39:12Z</time>
      </trkpt>
      <trkpt lat="41.4416100" lon="-8.7788420">
        <ele>7.7</ele>
        <time>2021-05-17T06:39:13Z</time>
      </trkpt>
      <trkpt lat="41.4416170" lon="-8.7788350">
        <ele>7.7</ele>
        <time>2021-05-17T06:39:14Z</time>
      </trkpt>
      <trkpt lat="41.4416240" lon="-8.7788290">
        <ele>7.7</ele>
        <time>2021-05-17T06:39:15Z</time>
      </trkpt>
      <trkpt lat="41.4416400" lon="-8.7788290">
        <ele>7.7</ele>
        <time>2021-05-17T06:39:16Z</time>
      </trkpt>
      <trkpt lat="41.4416540" lon="-8.7788260">
        <ele>7.8</ele>
        <time>2021-05-17T06:39:17Z</time>
      </trkpt>
      <trkpt lat="41.4416670" lon="-8.7788200">
        <ele>7.8</ele>
        <time>2021-05-17T06:39:18Z</time>
      </trkpt>
      <trkpt lat="41.4416800" lon="-8.7788130">
        <ele>7.8</ele>
        <time>2021-05-17T06:39:19Z</time>
      </trkpt>
      <trkpt lat="41.4416960" lon="-8.7788090">
        <ele>7.8</ele>
        <time>2021-05-17T06:39:20Z</time>
      </trkpt>
      <trkpt lat="41.4417100" lon="-8.7788100">
        <ele>7.8</ele>
        <time>2021-05-17T06:39:21Z</time>
      </trkpt>
      <trkpt lat="41.4417240" lon="-8.7787980">
        <ele>7.8</ele>
        <time>2021-05-17T06:39:22Z</time>
      </trkpt>
      <trkpt lat="41.4417400" lon="-8.7787960">
        <ele>7.8</ele>
        <time>2021-05-17T06:39:23Z</time>
      </trkpt>
      <trkpt lat="41.4417530" lon="-8.7787830">
        <ele>7.8</ele>
        <time>2021-05-17T06:39:24Z</time>
      </trkpt>
      <trkpt lat="41.4417650" lon="-8.7787790">
        <ele>7.8</ele>
        <time>2021-05-17T06:39:25Z</time>
      </trkpt>
      <trkpt lat="41.4417780" lon="-8.7787720">
        <ele>7.8</ele>
        <time>2021-05-17T06:39:26Z</time>
      </trkpt>
      <trkpt lat="41.4417940" lon="-8.7787670">
        <ele>7.8</ele>
        <time>2021-05-17T06:39:27Z</time>
      </trkpt>
      <trkpt lat="41.4418090" lon="-8.7787590">
        <ele>7.8</ele>
        <time>2021-05-17T06:39:28Z</time>
      </trkpt>
      <trkpt lat="41.4418220" lon="-8.7787550">
        <ele>7.8</ele>
        <time>2021-05-17T06:39:29Z</time>
      </trkpt>
      <trkpt lat="41.4418410" lon="-8.7787430">
        <ele>7.9</ele>
        <time>2021-05-17T06:39:30Z</time>
      </trkpt>
      <trkpt lat="41.4418500" lon="-8.7787390">
        <ele>7.9</ele>
        <time>2021-05-17T06:39:31Z</time>
      </trkpt>
      <trkpt lat="41.4418590" lon="-8.7787360">
        <ele>7.9</ele>
        <time>2021-05-17T06:39:32Z</time>
      </trkpt>
      <trkpt lat="41.4418700" lon="-8.7787300">
        <ele>7.9</ele>
        <time>2021-05-17T06:39:33Z</time>
      </trkpt>
      <trkpt lat="41.4418860" lon="-8.7787250">
        <ele>7.9</ele>
        <time>2021-05-17T06:39:34Z</time>
      </trkpt>
      <trkpt lat="41.4418980" lon="-8.7787120">
        <ele>7.8</ele>
        <time>2021-05-17T06:39:35Z</time>
      </trkpt>
      <trkpt lat="41.4419150" lon="-8.7787160">
        <ele>7.8</ele>
        <time>2021-05-17T06:39:36Z</time>
      </trkpt>
      <trkpt lat="41.4419360" lon="-8.7787080">
        <ele>7.8</ele>
        <time>2021-05-17T06:39:37Z</time>
      </trkpt>
      <trkpt lat="41.4419450" lon="-8.7787020">
        <ele>7.8</ele>
        <time>2021-05-17T06:39:38Z</time>
      </trkpt>
      <trkpt lat="41.4419540" lon="-8.7786970">
        <ele>7.8</ele>
        <time>2021-05-17T06:39:39Z</time>
      </trkpt>
      <trkpt lat="41.4419670" lon="-8.7786860">
        <ele>7.8</ele>
        <time>2021-05-17T06:39:40Z</time>
      </trkpt>
      <trkpt lat="41.4419810" lon="-8.7786800">
        <ele>7.8</ele>
        <time>2021-05-17T06:39:41Z</time>
      </trkpt>
      <trkpt lat="41.4419940" lon="-8.7786740">
        <ele>7.8</ele>
        <time>2021-05-17T06:39:42Z</time>
      </trkpt>
      <trkpt lat="41.4420080" lon="-8.7786650">
        <ele>7.8</ele>
        <time>2021-05-17T06:39:43Z</time>
      </trkpt>
      <trkpt lat="41.4420220" lon="-8.7786590">
        <ele>7.8</ele>
        <time>2021-05-17T06:39:44Z</time>
      </trkpt>
      <trkpt lat="41.4420370" lon="-8.7786570">
        <ele>7.7</ele>
        <time>2021-05-17T06:39:45Z</time>
      </trkpt>
      <trkpt lat="41.4420520" lon="-8.7786560">
        <ele>7.7</ele>
        <time>2021-05-17T06:39:46Z</time>
      </trkpt>
      <trkpt lat="41.4420660" lon="-8.7786440">
        <ele>7.7</ele>
        <time>2021-05-17T06:39:47Z</time>
      </trkpt>
      <trkpt lat="41.4420810" lon="-8.7786390">
        <ele>7.7</ele>
        <time>2021-05-17T06:39:48Z</time>
      </trkpt>
      <trkpt lat="41.4420940" lon="-8.7786290">
        <ele>7.7</ele>
        <time>2021-05-17T06:39:49Z</time>
      </trkpt>
      <trkpt lat="41.4421100" lon="-8.7786270">
        <ele>7.7</ele>
        <time>2021-05-17T06:39:50Z</time>
      </trkpt>
      <trkpt lat="41.4421240" lon="-8.7786140">
        <ele>7.6</ele>
        <time>2021-05-17T06:39:51Z</time>
      </trkpt>
      <trkpt lat="41.4421460" lon="-8.7786060">
        <ele>7.6</ele>
        <time>2021-05-17T06:39:52Z</time>
      </trkpt>
      <trkpt lat="41.4421540" lon="-8.7786030">
        <ele>7.6</ele>
        <time>2021-05-17T06:39:53Z</time>
      </trkpt>
      <trkpt lat="41.4421630" lon="-8.7786000">
        <ele>7.6</ele>
        <time>2021-05-17T06:39:54Z</time>
      </trkpt>
      <trkpt lat="41.4421770" lon="-8.7785970">
        <ele>7.6</ele>
        <time>2021-05-17T06:39:55Z</time>
      </trkpt>
      <trkpt lat="41.4421910" lon="-8.7785930">
        <ele>7.6</ele>
        <time>2021-05-17T06:39:56Z</time>
      </trkpt>
      <trkpt lat="41.4422060" lon="-8.7785820">
        <ele>7.5</ele>
        <time>2021-05-17T06:39:57Z</time>
      </trkpt>
      <trkpt lat="41.4422210" lon="-8.7785780">
        <ele>7.5</ele>
        <time>2021-05-17T06:39:58Z</time>
      </trkpt>
      <trkpt lat="41.4422350" lon="-8.7785730">
        <ele>7.5</ele>
        <time>2021-05-17T06:39:59Z</time>
      </trkpt>
      <trkpt lat="41.4422500" lon="-8.7785680">
        <ele>7.5</ele>
        <time>2021-05-17T06:40:00Z</time>
      </trkpt>
      <trkpt lat="41.4422640" lon="-8.7785600">
        <ele>7.4</ele>
        <time>2021-05-17T06:40:01Z</time>
      </trkpt>
      <trkpt lat="41.4422780" lon="-8.7785500">
        <ele>7.4</ele>
        <time>2021-05-17T06:40:02Z</time>
      </trkpt>
      <trkpt lat="41.4422900" lon="-8.7785380">
        <ele>7.4</ele>
        <time>2021-05-17T06:40:03Z</time>
      </trkpt>
      <trkpt lat="41.4423050" lon="-8.7785360">
        <ele>7.4</ele>
        <time>2021-05-17T06:40:04Z</time>
      </trkpt>
      <trkpt lat="41.4423210" lon="-8.7785330">
        <ele>7.4</ele>
        <time>2021-05-17T06:40:05Z</time>
      </trkpt>
      <trkpt lat="41.4423350" lon="-8.7785310">
        <ele>7.3</ele>
        <time>2021-05-17T06:40:06Z</time>
      </trkpt>
      <trkpt lat="41.4423510" lon="-8.7785250">
        <ele>7.3</ele>
        <time>2021-05-17T06:40:07Z</time>
      </trkpt>
      <trkpt lat="41.4423640" lon="-8.7785150">
        <ele>7.3</ele>
        <time>2021-05-17T06:40:08Z</time>
      </trkpt>
      <trkpt lat="41.4423810" lon="-8.7785130">
        <ele>7.2</ele>
        <time>2021-05-17T06:40:09Z</time>
      </trkpt>
      <trkpt lat="41.4423940" lon="-8.7785050">
        <ele>7.2</ele>
        <time>2021-05-17T06:40:10Z</time>
      </trkpt>
      <trkpt lat="41.4424080" lon="-8.7784940">
        <ele>7.2</ele>
        <time>2021-05-17T06:40:11Z</time>
      </trkpt>
      <trkpt lat="41.4424230" lon="-8.7784900">
        <ele>7.2</ele>
        <time>2021-05-17T06:40:12Z</time>
      </trkpt>
      <trkpt lat="41.4424350" lon="-8.7784830">
        <ele>7.1</ele>
        <time>2021-05-17T06:40:13Z</time>
      </trkpt>
      <trkpt lat="41.4424510" lon="-8.7784770">
        <ele>7.1</ele>
        <time>2021-05-17T06:40:14Z</time>
      </trkpt>
      <trkpt lat="41.4424670" lon="-8.7784720">
        <ele>7.1</ele>
        <time>2021-05-17T06:40:15Z</time>
      </trkpt>
      <trkpt lat="41.4424850" lon="-8.7784700">
        <ele>7.0</ele>
        <time>2021-05-17T06:40:16Z</time>
      </trkpt>
      <trkpt lat="41.4424990" lon="-8.7784680">
        <ele>7.0</ele>
        <time>2021-05-17T06:40:17Z</time>
      </trkpt>
      <trkpt lat="41.4425120" lon="-8.7784580">
        <ele>7.0</ele>
        <time>2021-05-17T06:40:18Z</time>
      </trkpt>
      <trkpt lat="41.4425300" lon="-8.7784450">
        <ele>7.0</ele>
        <time>2021-05-17T06:40:19Z</time>
      </trkpt>
      <trkpt lat="41.4425390" lon="-8.7784380">
        <ele>6.9</ele>
        <time>2021-05-17T06:40:20Z</time>
      </trkpt>
      <trkpt lat="41.4425470" lon="-8.7784300">
        <ele>6.9</ele>
        <time>2021-05-17T06:40:21Z</time>
      </trkpt>
      <trkpt lat="41.4425610" lon="-8.7784230">
        <ele>6.9</ele>
        <time>2021-05-17T06:40:22Z</time>
      </trkpt>
      <trkpt lat="41.4425770" lon="-8.7784250">
        <ele>6.9</ele>
        <time>2021-05-17T06:40:23Z</time>
      </trkpt>
      <trkpt lat="41.4425930" lon="-8.7784160">
        <ele>6.9</ele>
        <time>2021-05-17T06:40:24Z</time>
      </trkpt>
      <trkpt lat="41.4426090" lon="-8.7784120">
        <ele>6.8</ele>
        <time>2021-05-17T06:40:25Z</time>
      </trkpt>
      <trkpt lat="41.4426250" lon="-8.7784070">
        <ele>6.8</ele>
        <time>2021-05-17T06:40:26Z</time>
      </trkpt>
      <trkpt lat="41.4426400" lon="-8.7783990">
        <ele>6.8</ele>
        <time>2021-05-17T06:40:27Z</time>
      </trkpt>
      <trkpt lat="41.4426540" lon="-8.7783910">
        <ele>6.8</ele>
        <time>2021-05-17T06:40:28Z</time>
      </trkpt>
      <trkpt lat="41.4426690" lon="-8.7783780">
        <ele>6.8</ele>
        <time>2021-05-17T06:40:29Z</time>
      </trkpt>
      <trkpt lat="41.4426860" lon="-8.7783640">
        <ele>6.8</ele>
        <time>2021-05-17T06:40:30Z</time>
      </trkpt>
      <trkpt lat="41.4426950" lon="-8.7783600">
        <ele>6.8</ele>
        <time>2021-05-17T06:40:31Z</time>
      </trkpt>
      <trkpt lat="41.4427030" lon="-8.7783550">
        <ele>6.8</ele>
        <time>2021-05-17T06:40:32Z</time>
      </trkpt>
      <trkpt lat="41.4427170" lon="-8.7783510">
        <ele>6.7</ele>
        <time>2021-05-17T06:40:33Z</time>
      </trkpt>
      <trkpt lat="41.4427300" lon="-8.7783440">
        <ele>6.7</ele>
        <time>2021-05-17T06:40:34Z</time>
      </trkpt>
      <trkpt lat="41.4427460" lon="-8.7783410">
        <ele>6.7</ele>
        <time>2021-05-17T06:40:35Z</time>
      </trkpt>
      <trkpt lat="41.4427620" lon="-8.7783350">
        <ele>6.7</ele>
        <time>2021-05-17T06:40:36Z</time>
      </trkpt>
      <trkpt lat="41.4427740" lon="-8.7783250">
        <ele>6.7</ele>
        <time>2021-05-17T06:40:37Z</time>
      </trkpt>
      <trkpt lat="41.4427900" lon="-8.7783170">
        <ele>6.7</ele>
        <time>2021-05-17T06:40:38Z</time>
      </trkpt>
      <trkpt lat="41.4428050" lon="-8.7783090">
        <ele>6.7</ele>
        <time>2021-05-17T06:40:39Z</time>
      </trkpt>
      <trkpt lat="41.4428220" lon="-8.7783140">
        <ele>6.7</ele>
        <time>2021-05-17T06:40:40Z</time>
      </trkpt>
      <trkpt lat="41.4428340" lon="-8.7783020">
        <ele>6.7</ele>
        <time>2021-05-17T06:40:41Z</time>
      </trkpt>
      <trkpt lat="41.4428500" lon="-8.7782990">
        <ele>6.7</ele>
        <time>2021-05-17T06:40:42Z</time>
      </trkpt>
      <trkpt lat="41.4428640" lon="-8.7782930">
        <ele>6.7</ele>
        <time>2021-05-17T06:40:43Z</time>
      </trkpt>
      <trkpt lat="41.4428760" lon="-8.7782800">
        <ele>6.6</ele>
        <time>2021-05-17T06:40:44Z</time>
      </trkpt>
      <trkpt lat="41.4428950" lon="-8.7782840">
        <ele>6.6</ele>
        <time>2021-05-17T06:40:45Z</time>
      </trkpt>
      <trkpt lat="41.4429070" lon="-8.7782760">
        <ele>6.6</ele>
        <time>2021-05-17T06:40:46Z</time>
      </trkpt>
      <trkpt lat="41.4429200" lon="-8.7782730">
        <ele>6.6</ele>
        <time>2021-05-17T06:40:47Z</time>
      </trkpt>
      <trkpt lat="41.4429370" lon="-8.7782700">
        <ele>6.7</ele>
        <time>2021-05-17T06:40:48Z</time>
      </trkpt>
      <trkpt lat="41.4429510" lon="-8.7782660">
        <ele>6.7</ele>
        <time>2021-05-17T06:40:49Z</time>
      </trkpt>
      <trkpt lat="41.4429630" lon="-8.7782540">
        <ele>6.7</ele>
        <time>2021-05-17T06:40:50Z</time>
      </trkpt>
      <trkpt lat="41.4429760" lon="-8.7782490">
        <ele>6.7</ele>
        <time>2021-05-17T06:40:51Z</time>
      </trkpt>
      <trkpt lat="41.4429920" lon="-8.7782460">
        <ele>6.7</ele>
        <time>2021-05-17T06:40:52Z</time>
      </trkpt>
      <trkpt lat="41.4430060" lon="-8.7782370">
        <ele>6.7</ele>
        <time>2021-05-17T06:40:53Z</time>
      </trkpt>
      <trkpt lat="41.4430170" lon="-8.7782250">
        <ele>6.7</ele>
        <time>2021-05-17T06:40:54Z</time>
      </trkpt>
      <trkpt lat="41.4430300" lon="-8.7782170">
        <ele>6.7</ele>
        <time>2021-05-17T06:40:55Z</time>
      </trkpt>
      <trkpt lat="41.4430430" lon="-8.7782130">
        <ele>6.7</ele>
        <time>2021-05-17T06:40:56Z</time>
      </trkpt>
      <trkpt lat="41.4430660" lon="-8.7782120">
        <ele>6.8</ele>
        <time>2021-05-17T06:40:57Z</time>
      </trkpt>
      <trkpt lat="41.4430770" lon="-8.7782100">
        <ele>6.8</ele>
        <time>2021-05-17T06:40:58Z</time>
      </trkpt>
      <trkpt lat="41.4430870" lon="-8.7782080">
        <ele>6.8</ele>
        <time>2021-05-17T06:40:59Z</time>
      </trkpt>
      <trkpt lat="41.4431010" lon="-8.7781960">
        <ele>6.9</ele>
        <time>2021-05-17T06:41:00Z</time>
      </trkpt>
      <trkpt lat="41.4431150" lon="-8.7781930">
        <ele>6.9</ele>
        <time>2021-05-17T06:41:01Z</time>
      </trkpt>
      <trkpt lat="41.4431300" lon="-8.7781900">
        <ele>6.9</ele>
        <time>2021-05-17T06:41:02Z</time>
      </trkpt>
      <trkpt lat="41.4431430" lon="-8.7781810">
        <ele>6.9</ele>
        <time>2021-05-17T06:41:03Z</time>
      </trkpt>
      <trkpt lat="41.4431580" lon="-8.7781730">
        <ele>7.0</ele>
        <time>2021-05-17T06:41:04Z</time>
      </trkpt>
      <trkpt lat="41.4431750" lon="-8.7781700">
        <ele>7.0</ele>
        <time>2021-05-17T06:41:05Z</time>
      </trkpt>
      <trkpt lat="41.4431960" lon="-8.7781620">
        <ele>7.0</ele>
        <time>2021-05-17T06:41:06Z</time>
      </trkpt>
      <trkpt lat="41.4432060" lon="-8.7781600">
        <ele>7.1</ele>
        <time>2021-05-17T06:41:07Z</time>
      </trkpt>
      <trkpt lat="41.4432150" lon="-8.7781570">
        <ele>7.1</ele>
        <time>2021-05-17T06:41:08Z</time>
      </trkpt>
      <trkpt lat="41.4432290" lon="-8.7781460">
        <ele>7.1</ele>
        <time>2021-05-17T06:41:09Z</time>
      </trkpt>
      <trkpt lat="41.4432450" lon="-8.7781480">
        <ele>7.1</ele>
        <time>2021-05-17T06:41:10Z</time>
      </trkpt>
      <trkpt lat="41.4432590" lon="-8.7781450">
        <ele>7.2</ele>
        <time>2021-05-17T06:41:11Z</time>
      </trkpt>
      <trkpt lat="41.4432730" lon="-8.7781400">
        <ele>7.2</ele>
        <time>2021-05-17T06:41:12Z</time>
      </trkpt>
      <trkpt lat="41.4432850" lon="-8.7781320">
        <ele>7.2</ele>
        <time>2021-05-17T06:41:13Z</time>
      </trkpt>
      <trkpt lat="41.4433010" lon="-8.7781280">
        <ele>7.2</ele>
        <time>2021-05-17T06:41:14Z</time>
      </trkpt>
      <trkpt lat="41.4433140" lon="-8.7781220">
        <ele>7.3</ele>
        <time>2021-05-17T06:41:15Z</time>
      </trkpt>
      <trkpt lat="41.4433300" lon="-8.7781190">
        <ele>7.3</ele>
        <time>2021-05-17T06:41:16Z</time>
      </trkpt>
      <trkpt lat="41.4433440" lon="-8.7781150">
        <ele>7.3</ele>
        <time>2021-05-17T06:41:17Z</time>
      </trkpt>
      <trkpt lat="41.4433590" lon="-8.7781040">
        <ele>7.3</ele>
        <time>2021-05-17T06:41:18Z</time>
      </trkpt>
      <trkpt lat="41.4433720" lon="-8.7780990">
        <ele>7.3</ele>
        <time>2021-05-17T06:41:19Z</time>
      </trkpt>
      <trkpt lat="41.4433870" lon="-8.7780930">
        <ele>7.3</ele>
        <time>2021-05-17T06:41:20Z</time>
      </trkpt>
      <trkpt lat="41.4434010" lon="-8.7780840">
        <ele>7.4</ele>
        <time>2021-05-17T06:41:21Z</time>
      </trkpt>
      <trkpt lat="41.4434140" lon="-8.7780780">
        <ele>7.4</ele>
        <time>2021-05-17T06:41:22Z</time>
      </trkpt>
      <trkpt lat="41.4434310" lon="-8.7780780">
        <ele>7.4</ele>
        <time>2021-05-17T06:41:23Z</time>
      </trkpt>
      <trkpt lat="41.4434430" lon="-8.7780740">
        <ele>7.4</ele>
        <time>2021-05-17T06:41:24Z</time>
      </trkpt>
      <trkpt lat="41.4434550" lon="-8.7780630">
        <ele>7.4</ele>
        <time>2021-05-17T06:41:25Z</time>
      </trkpt>
      <trkpt lat="41.4434680" lon="-8.7780580">
        <ele>7.4</ele>
        <time>2021-05-17T06:41:26Z</time>
      </trkpt>
      <trkpt lat="41.4434800" lon="-8.7780480">
        <ele>7.4</ele>
        <time>2021-05-17T06:41:27Z</time>
      </trkpt>
      <trkpt lat="41.4434940" lon="-8.7780440">
        <ele>7.4</ele>
        <time>2021-05-17T06:41:28Z</time>
      </trkpt>
      <trkpt lat="41.4435050" lon="-8.7780280">
        <ele>7.3</ele>
        <time>2021-05-17T06:41:29Z</time>
      </trkpt>
      <trkpt lat="41.4435140" lon="-8.7780230">
        <ele>7.3</ele>
        <time>2021-05-17T06:41:30Z</time>
      </trkpt>
      <trkpt lat="41.4435260" lon="-8.7780200">
        <ele>7.3</ele>
        <time>2021-05-17T06:41:31Z</time>
      </trkpt>
      <trkpt lat="41.4435400" lon="-8.7779960">
        <ele>7.4</ele>
        <time>2021-05-17T06:41:32Z</time>
      </trkpt>
      <trkpt lat="41.4435460" lon="-8.7779860">
        <ele>7.3</ele>
        <time>2021-05-17T06:41:33Z</time>
      </trkpt>
      <trkpt lat="41.4435530" lon="-8.7779750">
        <ele>7.3</ele>
        <time>2021-05-17T06:41:34Z</time>
      </trkpt>
      <trkpt lat="41.4435620" lon="-8.7779570">
        <ele>7.3</ele>
        <time>2021-05-17T06:41:35Z</time>
      </trkpt>
      <trkpt lat="41.4435750" lon="-8.7779440">
        <ele>7.3</ele>
        <time>2021-05-17T06:41:36Z</time>
      </trkpt>
      <trkpt lat="41.4435860" lon="-8.7779280">
        <ele>7.3</ele>
        <time>2021-05-17T06:41:37Z</time>
      </trkpt>
      <trkpt lat="41.4435990" lon="-8.7779140">
        <ele>7.3</ele>
        <time>2021-05-17T06:41:38Z</time>
      </trkpt>
      <trkpt lat="41.4436080" lon="-8.7778980">
        <ele>7.2</ele>
        <time>2021-05-17T06:41:39Z</time>
      </trkpt>
      <trkpt lat="41.4436170" lon="-8.7778770">
        <ele>7.2</ele>
        <time>2021-05-17T06:41:40Z</time>
      </trkpt>
      <trkpt lat="41.4436220" lon="-8.7778580">
        <ele>7.1</ele>
        <time>2021-05-17T06:41:41Z</time>
      </trkpt>
      <trkpt lat="41.4436270" lon="-8.7778390">
        <ele>7.1</ele>
        <time>2021-05-17T06:41:42Z</time>
      </trkpt>
      <trkpt lat="41.4436330" lon="-8.7778210">
        <ele>7.1</ele>
        <time>2021-05-17T06:41:43Z</time>
      </trkpt>
      <trkpt lat="41.4436410" lon="-8.7778040">
        <ele>7.0</ele>
        <time>2021-05-17T06:41:44Z</time>
      </trkpt>
      <trkpt lat="41.4436510" lon="-8.7777790">
        <ele>7.0</ele>
        <time>2021-05-17T06:41:45Z</time>
      </trkpt>
      <trkpt lat="41.4436530" lon="-8.7777680">
        <ele>6.9</ele>
        <time>2021-05-17T06:41:46Z</time>
      </trkpt>
      <trkpt lat="41.4436560" lon="-8.7777580">
        <ele>6.9</ele>
        <time>2021-05-17T06:41:47Z</time>
      </trkpt>
      <trkpt lat="41.4436640" lon="-8.7777390">
        <ele>6.9</ele>
        <time>2021-05-17T06:41:48Z</time>
      </trkpt>
      <trkpt lat="41.4436740" lon="-8.7777270">
        <ele>6.8</ele>
        <time>2021-05-17T06:41:49Z</time>
      </trkpt>
      <trkpt lat="41.4436860" lon="-8.7777110">
        <ele>6.8</ele>
        <time>2021-05-17T06:41:50Z</time>
      </trkpt>
      <trkpt lat="41.4436940" lon="-8.7776940">
        <ele>6.7</ele>
        <time>2021-05-17T06:41:51Z</time>
      </trkpt>
      <trkpt lat="41.4437030" lon="-8.7776790">
        <ele>6.6</ele>
        <time>2021-05-17T06:41:52Z</time>
      </trkpt>
      <trkpt lat="41.4437150" lon="-8.7776650">
        <ele>6.6</ele>
        <time>2021-05-17T06:41:53Z</time>
      </trkpt>
      <trkpt lat="41.4437220" lon="-8.7776510">
        <ele>6.6</ele>
        <time>2021-05-17T06:41:54Z</time>
      </trkpt>
      <trkpt lat="41.4437320" lon="-8.7776270">
        <ele>6.5</ele>
        <time>2021-05-17T06:41:55Z</time>
      </trkpt>
      <trkpt lat="41.4437400" lon="-8.7776060">
        <ele>6.5</ele>
        <time>2021-05-17T06:41:56Z</time>
      </trkpt>
      <trkpt lat="41.4437440" lon="-8.7775850">
        <ele>6.4</ele>
        <time>2021-05-17T06:41:57Z</time>
      </trkpt>
      <trkpt lat="41.4437490" lon="-8.7775620">
        <ele>6.4</ele>
        <time>2021-05-17T06:41:58Z</time>
      </trkpt>
      <trkpt lat="41.4437550" lon="-8.7775420">
        <ele>6.3</ele>
        <time>2021-05-17T06:41:59Z</time>
      </trkpt>
      <trkpt lat="41.4437600" lon="-8.7775270">
        <ele>6.3</ele>
        <time>2021-05-17T06:42:00Z</time>
      </trkpt>
      <trkpt lat="41.4437610" lon="-8.7775060">
        <ele>6.2</ele>
        <time>2021-05-17T06:42:01Z</time>
      </trkpt>
      <trkpt lat="41.4437730" lon="-8.7774890">
        <ele>6.2</ele>
        <time>2021-05-17T06:42:02Z</time>
      </trkpt>
      <trkpt lat="41.4437790" lon="-8.7774750">
        <ele>6.1</ele>
        <time>2021-05-17T06:42:03Z</time>
      </trkpt>
      <trkpt lat="41.4437760" lon="-8.7774550">
        <ele>6.1</ele>
        <time>2021-05-17T06:42:04Z</time>
      </trkpt>
      <trkpt lat="41.4437790" lon="-8.7774310">
        <ele>6.0</ele>
        <time>2021-05-17T06:42:05Z</time>
      </trkpt>
      <trkpt lat="41.4437540" lon="-8.7774100">
        <ele>6.1</ele>
        <time>2021-05-17T06:42:06Z</time>
      </trkpt>
      <trkpt lat="41.4437260" lon="-8.7773890">
        <ele>6.0</ele>
        <time>2021-05-17T06:42:07Z</time>
      </trkpt>
      <trkpt lat="41.4437150" lon="-8.7773860">
        <ele>6.1</ele>
        <time>2021-05-17T06:42:08Z</time>
      </trkpt>
      <trkpt lat="41.4436850" lon="-8.7773740">
        <ele>6.1</ele>
        <time>2021-05-17T06:42:09Z</time>
      </trkpt>
      <trkpt lat="41.4436770" lon="-8.7773690">
        <ele>6.1</ele>
        <time>2021-05-17T06:42:10Z</time>
      </trkpt>
      <trkpt lat="41.4436590" lon="-8.7773630">
        <ele>6.2</ele>
        <time>2021-05-17T06:42:11Z</time>
      </trkpt>
      <trkpt lat="41.4436490" lon="-8.7773500">
        <ele>6.2</ele>
        <time>2021-05-17T06:42:12Z</time>
      </trkpt>
      <trkpt lat="41.4436310" lon="-8.7773460">
        <ele>6.1</ele>
        <time>2021-05-17T06:42:13Z</time>
      </trkpt>
      <trkpt lat="41.4436160" lon="-8.7773330">
        <ele>6.2</ele>
        <time>2021-05-17T06:42:14Z</time>
      </trkpt>
      <trkpt lat="41.4436010" lon="-8.7773280">
        <ele>6.2</ele>
        <time>2021-05-17T06:42:15Z</time>
      </trkpt>
      <trkpt lat="41.4435880" lon="-8.7773150">
        <ele>6.3</ele>
        <time>2021-05-17T06:42:16Z</time>
      </trkpt>
      <trkpt lat="41.4435750" lon="-8.7773010">
        <ele>6.2</ele>
        <time>2021-05-17T06:42:17Z</time>
      </trkpt>
      <trkpt lat="41.4435580" lon="-8.7772940">
        <ele>6.3</ele>
        <time>2021-05-17T06:42:18Z</time>
      </trkpt>
      <trkpt lat="41.4435420" lon="-8.7772890">
        <ele>6.3</ele>
        <time>2021-05-17T06:42:19Z</time>
      </trkpt>
      <trkpt lat="41.4435240" lon="-8.7772790">
        <ele>6.3</ele>
        <time>2021-05-17T06:42:20Z</time>
      </trkpt>
      <trkpt lat="41.4435140" lon="-8.7772640">
        <ele>6.3</ele>
        <time>2021-05-17T06:42:21Z</time>
      </trkpt>
      <trkpt lat="41.4435050" lon="-8.7772500">
        <ele>6.3</ele>
        <time>2021-05-17T06:42:22Z</time>
      </trkpt>
      <trkpt lat="41.4434940" lon="-8.7772320">
        <ele>6.3</ele>
        <time>2021-05-17T06:42:23Z</time>
      </trkpt>
      <trkpt lat="41.4434820" lon="-8.7772220">
        <ele>6.3</ele>
        <time>2021-05-17T06:42:24Z</time>
      </trkpt>
      <trkpt lat="41.4434690" lon="-8.7772050">
        <ele>6.3</ele>
        <time>2021-05-17T06:42:25Z</time>
      </trkpt>
      <trkpt lat="41.4434610" lon="-8.7771870">
        <ele>6.3</ele>
        <time>2021-05-17T06:42:26Z</time>
      </trkpt>
      <trkpt lat="41.4434510" lon="-8.7771710">
        <ele>6.3</ele>
        <time>2021-05-17T06:42:27Z</time>
      </trkpt>
      <trkpt lat="41.4434440" lon="-8.7771530">
        <ele>6.3</ele>
        <time>2021-05-17T06:42:28Z</time>
      </trkpt>
      <trkpt lat="41.4434370" lon="-8.7771350">
        <ele>6.3</ele>
        <time>2021-05-17T06:42:29Z</time>
      </trkpt>
      <trkpt lat="41.4434310" lon="-8.7771170">
        <ele>6.3</ele>
        <time>2021-05-17T06:42:30Z</time>
      </trkpt>
      <trkpt lat="41.4434290" lon="-8.7770960">
        <ele>6.3</ele>
        <time>2021-05-17T06:42:31Z</time>
      </trkpt>
      <trkpt lat="41.4434280" lon="-8.7770770">
        <ele>6.2</ele>
        <time>2021-05-17T06:42:32Z</time>
      </trkpt>
      <trkpt lat="41.4434240" lon="-8.7770600">
        <ele>6.2</ele>
        <time>2021-05-17T06:42:33Z</time>
      </trkpt>
      <trkpt lat="41.4434240" lon="-8.7770390">
        <ele>6.1</ele>
        <time>2021-05-17T06:42:34Z</time>
      </trkpt>
      <trkpt lat="41.4434240" lon="-8.7770240">
        <ele>6.1</ele>
        <time>2021-05-17T06:42:35Z</time>
      </trkpt>
      <trkpt lat="41.4434310" lon="-8.7770040">
        <ele>6.1</ele>
        <time>2021-05-17T06:42:36Z</time>
      </trkpt>
      <trkpt lat="41.4434370" lon="-8.7769880">
        <ele>6.0</ele>
        <time>2021-05-17T06:42:37Z</time>
      </trkpt>
      <trkpt lat="41.4434470" lon="-8.7769740">
        <ele>6.0</ele>
        <time>2021-05-17T06:42:38Z</time>
      </trkpt>
      <trkpt lat="41.4434570" lon="-8.7769600">
        <ele>5.9</ele>
        <time>2021-05-17T06:42:39Z</time>
      </trkpt>
      <trkpt lat="41.4434610" lon="-8.7769410">
        <ele>5.9</ele>
        <time>2021-05-17T06:42:40Z</time>
      </trkpt>
      <trkpt lat="41.4434720" lon="-8.7769290">
        <ele>5.8</ele>
        <time>2021-05-17T06:42:41Z</time>
      </trkpt>
      <trkpt lat="41.4434780" lon="-8.7769120">
        <ele>5.8</ele>
        <time>2021-05-17T06:42:42Z</time>
      </trkpt>
      <trkpt lat="41.4434900" lon="-8.7768990">
        <ele>5.8</ele>
        <time>2021-05-17T06:42:43Z</time>
      </trkpt>
      <trkpt lat="41.4435040" lon="-8.7768840">
        <ele>5.7</ele>
        <time>2021-05-17T06:42:44Z</time>
      </trkpt>
      <trkpt lat="41.4435160" lon="-8.7768760">
        <ele>5.7</ele>
        <time>2021-05-17T06:42:45Z</time>
      </trkpt>
      <trkpt lat="41.4435280" lon="-8.7768650">
        <ele>5.6</ele>
        <time>2021-05-17T06:42:46Z</time>
      </trkpt>
      <trkpt lat="41.4435490" lon="-8.7768560">
        <ele>5.6</ele>
        <time>2021-05-17T06:42:47Z</time>
      </trkpt>
      <trkpt lat="41.4435600" lon="-8.7768540">
        <ele>5.5</ele>
        <time>2021-05-17T06:42:48Z</time>
      </trkpt>
      <trkpt lat="41.4435700" lon="-8.7768510">
        <ele>5.5</ele>
        <time>2021-05-17T06:42:49Z</time>
      </trkpt>
      <trkpt lat="41.4435880" lon="-8.7768490">
        <ele>5.5</ele>
        <time>2021-05-17T06:42:50Z</time>
      </trkpt>
      <trkpt lat="41.4436040" lon="-8.7768550">
        <ele>5.5</ele>
        <time>2021-05-17T06:42:51Z</time>
      </trkpt>
      <trkpt lat="41.4436220" lon="-8.7768530">
        <ele>5.5</ele>
        <time>2021-05-17T06:42:52Z</time>
      </trkpt>
      <trkpt lat="41.4436360" lon="-8.7768500">
        <ele>5.5</ele>
        <time>2021-05-17T06:42:53Z</time>
      </trkpt>
      <trkpt lat="41.4436490" lon="-8.7768430">
        <ele>5.4</ele>
        <time>2021-05-17T06:42:54Z</time>
      </trkpt>
      <trkpt lat="41.4436640" lon="-8.7768520">
        <ele>5.4</ele>
        <time>2021-05-17T06:42:55Z</time>
      </trkpt>
      <trkpt lat="41.4436790" lon="-8.7768480">
        <ele>5.4</ele>
        <time>2021-05-17T06:42:56Z</time>
      </trkpt>
      <trkpt lat="41.4436940" lon="-8.7768550">
        <ele>5.3</ele>
        <time>2021-05-17T06:42:57Z</time>
      </trkpt>
      <trkpt lat="41.4437100" lon="-8.7768570">
        <ele>5.3</ele>
        <time>2021-05-17T06:42:58Z</time>
      </trkpt>
      <trkpt lat="41.4437250" lon="-8.7768550">
        <ele>5.3</ele>
        <time>2021-05-17T06:42:59Z</time>
      </trkpt>
      <trkpt lat="41.4437390" lon="-8.7768510">
        <ele>5.2</ele>
        <time>2021-05-17T06:43:00Z</time>
      </trkpt>
      <trkpt lat="41.4437560" lon="-8.7768540">
        <ele>5.2</ele>
        <time>2021-05-17T06:43:01Z</time>
      </trkpt>
      <trkpt lat="41.4437710" lon="-8.7768440">
        <ele>5.2</ele>
        <time>2021-05-17T06:43:02Z</time>
      </trkpt>
      <trkpt lat="41.4437830" lon="-8.7768450">
        <ele>5.1</ele>
        <time>2021-05-17T06:43:03Z</time>
      </trkpt>
      <trkpt lat="41.4437980" lon="-8.7768550">
        <ele>5.1</ele>
        <time>2021-05-17T06:43:04Z</time>
      </trkpt>
      <trkpt lat="41.4438110" lon="-8.7768560">
        <ele>5.1</ele>
        <time>2021-05-17T06:43:05Z</time>
      </trkpt>
      <trkpt lat="41.4438240" lon="-8.7768560">
        <ele>5.0</ele>
        <time>2021-05-17T06:43:06Z</time>
      </trkpt>
      <trkpt lat="41.4438390" lon="-8.7768590">
        <ele>5.0</ele>
        <time>2021-05-17T06:43:07Z</time>
      </trkpt>
      <trkpt lat="41.4438540" lon="-8.7768560">
        <ele>5.0</ele>
        <time>2021-05-17T06:43:08Z</time>
      </trkpt>
      <trkpt lat="41.4438670" lon="-8.7768510">
        <ele>4.9</ele>
        <time>2021-05-17T06:43:09Z</time>
      </trkpt>
      <trkpt lat="41.4438810" lon="-8.7768560">
        <ele>4.9</ele>
        <time>2021-05-17T06:43:10Z</time>
      </trkpt>
      <trkpt lat="41.4438950" lon="-8.7768570">
        <ele>4.8</ele>
        <time>2021-05-17T06:43:11Z</time>
      </trkpt>
      <trkpt lat="41.4439140" lon="-8.7768510">
        <ele>4.8</ele>
        <time>2021-05-17T06:43:12Z</time>
      </trkpt>
      <trkpt lat="41.4439260" lon="-8.7768510">
        <ele>4.8</ele>
        <time>2021-05-17T06:43:13Z</time>
      </trkpt>
      <trkpt lat="41.4439470" lon="-8.7768490">
        <ele>4.7</ele>
        <time>2021-05-17T06:43:14Z</time>
      </trkpt>
      <trkpt lat="41.4439570" lon="-8.7768490">
        <ele>4.7</ele>
        <time>2021-05-17T06:43:15Z</time>
      </trkpt>
      <trkpt lat="41.4439670" lon="-8.7768500">
        <ele>4.6</ele>
        <time>2021-05-17T06:43:16Z</time>
      </trkpt>
      <trkpt lat="41.4439830" lon="-8.7768430">
        <ele>4.6</ele>
        <time>2021-05-17T06:43:17Z</time>
      </trkpt>
      <trkpt lat="41.4440000" lon="-8.7768340">
        <ele>4.5</ele>
        <time>2021-05-17T06:43:18Z</time>
      </trkpt>
      <trkpt lat="41.4440170" lon="-8.7768440">
        <ele>4.5</ele>
        <time>2021-05-17T06:43:19Z</time>
      </trkpt>
      <trkpt lat="41.4440270" lon="-8.7768430">
        <ele>4.5</ele>
        <time>2021-05-17T06:43:20Z</time>
      </trkpt>
      <trkpt lat="41.4440420" lon="-8.7768400">
        <ele>4.4</ele>
        <time>2021-05-17T06:43:21Z</time>
      </trkpt>
      <trkpt lat="41.4440570" lon="-8.7768390">
        <ele>4.4</ele>
        <time>2021-05-17T06:43:22Z</time>
      </trkpt>
      <trkpt lat="41.4440720" lon="-8.7768290">
        <ele>4.3</ele>
        <time>2021-05-17T06:43:23Z</time>
      </trkpt>
      <trkpt lat="41.4440900" lon="-8.7768310">
        <ele>4.3</ele>
        <time>2021-05-17T06:43:24Z</time>
      </trkpt>
      <trkpt lat="41.4441040" lon="-8.7768280">
        <ele>4.3</ele>
        <time>2021-05-17T06:43:25Z</time>
      </trkpt>
      <trkpt lat="41.4441180" lon="-8.7768270">
        <ele>4.2</ele>
        <time>2021-05-17T06:43:26Z</time>
      </trkpt>
      <trkpt lat="41.4441320" lon="-8.7768200">
        <ele>4.2</ele>
        <time>2021-05-17T06:43:27Z</time>
      </trkpt>
      <trkpt lat="41.4441470" lon="-8.7768200">
        <ele>4.2</ele>
        <time>2021-05-17T06:43:28Z</time>
      </trkpt>
      <trkpt lat="41.4441630" lon="-8.7768160">
        <ele>4.1</ele>
        <time>2021-05-17T06:43:29Z</time>
      </trkpt>
      <trkpt lat="41.4441770" lon="-8.7768110">
        <ele>4.1</ele>
        <time>2021-05-17T06:43:30Z</time>
      </trkpt>
      <trkpt lat="41.4441920" lon="-8.7768100">
        <ele>4.1</ele>
        <time>2021-05-17T06:43:31Z</time>
      </trkpt>
      <trkpt lat="41.4442080" lon="-8.7768090">
        <ele>4.0</ele>
        <time>2021-05-17T06:43:32Z</time>
      </trkpt>
      <trkpt lat="41.4442210" lon="-8.7768010">
        <ele>4.0</ele>
        <time>2021-05-17T06:43:33Z</time>
      </trkpt>
      <trkpt lat="41.4442360" lon="-8.7767980">
        <ele>4.0</ele>
        <time>2021-05-17T06:43:34Z</time>
      </trkpt>
      <trkpt lat="41.4442570" lon="-8.7767890">
        <ele>3.9</ele>
        <time>2021-05-17T06:43:35Z</time>
      </trkpt>
      <trkpt lat="41.4442670" lon="-8.7767890">
        <ele>3.9</ele>
        <time>2021-05-17T06:43:36Z</time>
      </trkpt>
      <trkpt lat="41.4442760" lon="-8.7767890">
        <ele>3.9</ele>
        <time>2021-05-17T06:43:37Z</time>
      </trkpt>
      <trkpt lat="41.4442900" lon="-8.7767860">
        <ele>3.9</ele>
        <time>2021-05-17T06:43:38Z</time>
      </trkpt>
      <trkpt lat="41.4443040" lon="-8.7767770">
        <ele>3.9</ele>
        <time>2021-05-17T06:43:39Z</time>
      </trkpt>
      <trkpt lat="41.4443190" lon="-8.7767720">
        <ele>3.8</ele>
        <time>2021-05-17T06:43:40Z</time>
      </trkpt>
      <trkpt lat="41.4443320" lon="-8.7767670">
        <ele>3.8</ele>
        <time>2021-05-17T06:43:41Z</time>
      </trkpt>
      <trkpt lat="41.4443480" lon="-8.7767670">
        <ele>3.8</ele>
        <time>2021-05-17T06:43:42Z</time>
      </trkpt>
      <trkpt lat="41.4443620" lon="-8.7767640">
        <ele>3.8</ele>
        <time>2021-05-17T06:43:43Z</time>
      </trkpt>
      <trkpt lat="41.4443760" lon="-8.7767650">
        <ele>3.7</ele>
        <time>2021-05-17T06:43:44Z</time>
      </trkpt>
      <trkpt lat="41.4443900" lon="-8.7767600">
        <ele>3.7</ele>
        <time>2021-05-17T06:43:45Z</time>
      </trkpt>
      <trkpt lat="41.4444020" lon="-8.7767570">
        <ele>3.7</ele>
        <time>2021-05-17T06:43:46Z</time>
      </trkpt>
      <trkpt lat="41.4444180" lon="-8.7767550">
        <ele>3.7</ele>
        <time>2021-05-17T06:43:47Z</time>
      </trkpt>
      <trkpt lat="41.4444320" lon="-8.7767580">
        <ele>3.6</ele>
        <time>2021-05-17T06:43:48Z</time>
      </trkpt>
      <trkpt lat="41.4444470" lon="-8.7767500">
        <ele>3.6</ele>
        <time>2021-05-17T06:43:49Z</time>
      </trkpt>
      <trkpt lat="41.4444620" lon="-8.7767510">
        <ele>3.6</ele>
        <time>2021-05-17T06:43:50Z</time>
      </trkpt>
      <trkpt lat="41.4444750" lon="-8.7767460">
        <ele>3.5</ele>
        <time>2021-05-17T06:43:51Z</time>
      </trkpt>
      <trkpt lat="41.4444900" lon="-8.7767400">
        <ele>3.5</ele>
        <time>2021-05-17T06:43:52Z</time>
      </trkpt>
      <trkpt lat="41.4445030" lon="-8.7767330">
        <ele>3.5</ele>
        <time>2021-05-17T06:43:53Z</time>
      </trkpt>
      <trkpt lat="41.4445180" lon="-8.7767230">
        <ele>3.5</ele>
        <time>2021-05-17T06:43:54Z</time>
      </trkpt>
      <trkpt lat="41.4445300" lon="-8.7767210">
        <ele>3.4</ele>
        <time>2021-05-17T06:43:55Z</time>
      </trkpt>
      <trkpt lat="41.4445500" lon="-8.7767100">
        <ele>3.4</ele>
        <time>2021-05-17T06:43:56Z</time>
      </trkpt>
      <trkpt lat="41.4445580" lon="-8.7767090">
        <ele>3.4</ele>
        <time>2021-05-17T06:43:57Z</time>
      </trkpt>
      <trkpt lat="41.4445670" lon="-8.7767070">
        <ele>3.4</ele>
        <time>2021-05-17T06:43:58Z</time>
      </trkpt>
      <trkpt lat="41.4445880" lon="-8.7767140">
        <ele>3.3</ele>
        <time>2021-05-17T06:43:59Z</time>
      </trkpt>
      <trkpt lat="41.4445980" lon="-8.7767130">
        <ele>3.3</ele>
        <time>2021-05-17T06:44:00Z</time>
      </trkpt>
      <trkpt lat="41.4446070" lon="-8.7767130">
        <ele>3.3</ele>
        <time>2021-05-17T06:44:01Z</time>
      </trkpt>
      <trkpt lat="41.4446220" lon="-8.7767070">
        <ele>3.2</ele>
        <time>2021-05-17T06:44:02Z</time>
      </trkpt>
      <trkpt lat="41.4446350" lon="-8.7766980">
        <ele>3.2</ele>
        <time>2021-05-17T06:44:03Z</time>
      </trkpt>
      <trkpt lat="41.4446500" lon="-8.7767010">
        <ele>3.2</ele>
        <time>2021-05-17T06:44:04Z</time>
      </trkpt>
      <trkpt lat="41.4446650" lon="-8.7767010">
        <ele>3.1</ele>
        <time>2021-05-17T06:44:05Z</time>
      </trkpt>
      <trkpt lat="41.4446790" lon="-8.7766960">
        <ele>3.1</ele>
        <time>2021-05-17T06:44:06Z</time>
      </trkpt>
      <trkpt lat="41.4446950" lon="-8.7766890">
        <ele>3.1</ele>
        <time>2021-05-17T06:44:07Z</time>
      </trkpt>
      <trkpt lat="41.4447090" lon="-8.7766810">
        <ele>3.0</ele>
        <time>2021-05-17T06:44:08Z</time>
      </trkpt>
      <trkpt lat="41.4447240" lon="-8.7766740">
        <ele>3.0</ele>
        <time>2021-05-17T06:44:09Z</time>
      </trkpt>
      <trkpt lat="41.4447400" lon="-8.7766800">
        <ele>3.0</ele>
        <time>2021-05-17T06:44:10Z</time>
      </trkpt>
      <trkpt lat="41.4447570" lon="-8.7766770">
        <ele>2.9</ele>
        <time>2021-05-17T06:44:11Z</time>
      </trkpt>
      <trkpt lat="41.4447820" lon="-8.7766720">
        <ele>2.9</ele>
        <time>2021-05-17T06:44:12Z</time>
      </trkpt>
      <trkpt lat="41.4447910" lon="-8.7766610">
        <ele>2.9</ele>
        <time>2021-05-17T06:44:13Z</time>
      </trkpt>
      <trkpt lat="41.4448070" lon="-8.7766620">
        <ele>2.8</ele>
        <time>2021-05-17T06:44:14Z</time>
      </trkpt>
      <trkpt lat="41.4448250" lon="-8.7766610">
        <ele>2.8</ele>
        <time>2021-05-17T06:44:15Z</time>
      </trkpt>
      <trkpt lat="41.4448420" lon="-8.7766640">
        <ele>2.8</ele>
        <time>2021-05-17T06:44:16Z</time>
      </trkpt>
      <trkpt lat="41.4448570" lon="-8.7766600">
        <ele>2.7</ele>
        <time>2021-05-17T06:44:17Z</time>
      </trkpt>
      <trkpt lat="41.4448730" lon="-8.7766610">
        <ele>2.7</ele>
        <time>2021-05-17T06:44:18Z</time>
      </trkpt>
      <trkpt lat="41.4448860" lon="-8.7766580">
        <ele>2.7</ele>
        <time>2021-05-17T06:44:19Z</time>
      </trkpt>
      <trkpt lat="41.4449010" lon="-8.7766580">
        <ele>2.6</ele>
        <time>2021-05-17T06:44:20Z</time>
      </trkpt>
      <trkpt lat="41.4449170" lon="-8.7766510">
        <ele>2.6</ele>
        <time>2021-05-17T06:44:21Z</time>
      </trkpt>
      <trkpt lat="41.4449330" lon="-8.7766420">
        <ele>2.6</ele>
        <time>2021-05-17T06:44:22Z</time>
      </trkpt>
      <trkpt lat="41.4449490" lon="-8.7766480">
        <ele>2.5</ele>
        <time>2021-05-17T06:44:23Z</time>
      </trkpt>
      <trkpt lat="41.4449650" lon="-8.7766380">
        <ele>2.5</ele>
        <time>2021-05-17T06:44:24Z</time>
      </trkpt>
      <trkpt lat="41.4449820" lon="-8.7766360">
        <ele>2.5</ele>
        <time>2021-05-17T06:44:25Z</time>
      </trkpt>
      <trkpt lat="41.4449970" lon="-8.7766300">
        <ele>2.4</ele>
        <time>2021-05-17T06:44:26Z</time>
      </trkpt>
      <trkpt lat="41.4450130" lon="-8.7766310">
        <ele>2.4</ele>
        <time>2021-05-17T06:44:27Z</time>
      </trkpt>
      <trkpt lat="41.4450270" lon="-8.7766270">
        <ele>2.4</ele>
        <time>2021-05-17T06:44:28Z</time>
      </trkpt>
      <trkpt lat="41.4450420" lon="-8.7766150">
        <ele>2.3</ele>
        <time>2021-05-17T06:44:29Z</time>
      </trkpt>
      <trkpt lat="41.4450570" lon="-8.7766140">
        <ele>2.3</ele>
        <time>2021-05-17T06:44:30Z</time>
      </trkpt>
      <trkpt lat="41.4450720" lon="-8.7766090">
        <ele>2.2</ele>
        <time>2021-05-17T06:44:31Z</time>
      </trkpt>
      <trkpt lat="41.4450930" lon="-8.7765980">
        <ele>2.2</ele>
        <time>2021-05-17T06:44:32Z</time>
      </trkpt>
      <trkpt lat="41.4451010" lon="-8.7765950">
        <ele>2.2</ele>
        <time>2021-05-17T06:44:33Z</time>
      </trkpt>
      <trkpt lat="41.4451090" lon="-8.7765910">
        <ele>2.2</ele>
        <time>2021-05-17T06:44:34Z</time>
      </trkpt>
      <trkpt lat="41.4451310" lon="-8.7765850">
        <ele>2.1</ele>
        <time>2021-05-17T06:44:35Z</time>
      </trkpt>
      <trkpt lat="41.4451380" lon="-8.7765840">
        <ele>2.1</ele>
        <time>2021-05-17T06:44:36Z</time>
      </trkpt>
      <trkpt lat="41.4451460" lon="-8.7765820">
        <ele>2.1</ele>
        <time>2021-05-17T06:44:37Z</time>
      </trkpt>
      <trkpt lat="41.4451600" lon="-8.7765790">
        <ele>2.0</ele>
        <time>2021-05-17T06:44:38Z</time>
      </trkpt>
      <trkpt lat="41.4451740" lon="-8.7765730">
        <ele>2.0</ele>
        <time>2021-05-17T06:44:39Z</time>
      </trkpt>
      <trkpt lat="41.4451940" lon="-8.7765670">
        <ele>2.0</ele>
        <time>2021-05-17T06:44:40Z</time>
      </trkpt>
      <trkpt lat="41.4452020" lon="-8.7765640">
        <ele>1.9</ele>
        <time>2021-05-17T06:44:41Z</time>
      </trkpt>
      <trkpt lat="41.4452100" lon="-8.7765610">
        <ele>1.9</ele>
        <time>2021-05-17T06:44:42Z</time>
      </trkpt>
      <trkpt lat="41.4452310" lon="-8.7765510">
        <ele>1.9</ele>
        <time>2021-05-17T06:44:43Z</time>
      </trkpt>
      <trkpt lat="41.4452380" lon="-8.7765460">
        <ele>1.9</ele>
        <time>2021-05-17T06:44:44Z</time>
      </trkpt>
      <trkpt lat="41.4452460" lon="-8.7765420">
        <ele>1.8</ele>
        <time>2021-05-17T06:44:45Z</time>
      </trkpt>
      <trkpt lat="41.4452600" lon="-8.7765410">
        <ele>1.8</ele>
        <time>2021-05-17T06:44:46Z</time>
      </trkpt>
      <trkpt lat="41.4452760" lon="-8.7765370">
        <ele>1.8</ele>
        <time>2021-05-17T06:44:47Z</time>
      </trkpt>
      <trkpt lat="41.4452960" lon="-8.7765320">
        <ele>1.8</ele>
        <time>2021-05-17T06:44:48Z</time>
      </trkpt>
      <trkpt lat="41.4453040" lon="-8.7765290">
        <ele>1.7</ele>
        <time>2021-05-17T06:44:49Z</time>
      </trkpt>
      <trkpt lat="41.4453130" lon="-8.7765270">
        <ele>1.7</ele>
        <time>2021-05-17T06:44:50Z</time>
      </trkpt>
      <trkpt lat="41.4453260" lon="-8.7765250">
        <ele>1.7</ele>
        <time>2021-05-17T06:44:51Z</time>
      </trkpt>
      <trkpt lat="41.4453400" lon="-8.7765230">
        <ele>1.7</ele>
        <time>2021-05-17T06:44:52Z</time>
      </trkpt>
      <trkpt lat="41.4453610" lon="-8.7765170">
        <ele>1.6</ele>
        <time>2021-05-17T06:44:53Z</time>
      </trkpt>
      <trkpt lat="41.4453700" lon="-8.7765130">
        <ele>1.6</ele>
        <time>2021-05-17T06:44:54Z</time>
      </trkpt>
      <trkpt lat="41.4453780" lon="-8.7765090">
        <ele>1.6</ele>
        <time>2021-05-17T06:44:55Z</time>
      </trkpt>
      <trkpt lat="41.4453990" lon="-8.7764990">
        <ele>1.6</ele>
        <time>2021-05-17T06:44:56Z</time>
      </trkpt>
      <trkpt lat="41.4454080" lon="-8.7764940">
        <ele>1.6</ele>
        <time>2021-05-17T06:44:57Z</time>
      </trkpt>
      <trkpt lat="41.4454160" lon="-8.7764890">
        <ele>1.6</ele>
        <time>2021-05-17T06:44:58Z</time>
      </trkpt>
      <trkpt lat="41.4454380" lon="-8.7764840">
        <ele>1.5</ele>
        <time>2021-05-17T06:44:59Z</time>
      </trkpt>
      <trkpt lat="41.4454460" lon="-8.7764810">
        <ele>1.5</ele>
        <time>2021-05-17T06:45:00Z</time>
      </trkpt>
      <trkpt lat="41.4454550" lon="-8.7764780">
        <ele>1.5</ele>
        <time>2021-05-17T06:45:01Z</time>
      </trkpt>
      <trkpt lat="41.4454690" lon="-8.7764750">
        <ele>1.5</ele>
        <time>2021-05-17T06:45:02Z</time>
      </trkpt>
      <trkpt lat="41.4454830" lon="-8.7764690">
        <ele>1.5</ele>
        <time>2021-05-17T06:45:03Z</time>
      </trkpt>
      <trkpt lat="41.4454940" lon="-8.7764600">
        <ele>1.4</ele>
        <time>2021-05-17T06:45:04Z</time>
      </trkpt>
      <trkpt lat="41.4455090" lon="-8.7764570">
        <ele>1.4</ele>
        <time>2021-05-17T06:45:05Z</time>
      </trkpt>
      <trkpt lat="41.4455220" lon="-8.7764550">
        <ele>1.4</ele>
        <time>2021-05-17T06:45:06Z</time>
      </trkpt>
      <trkpt lat="41.4455360" lon="-8.7764510">
        <ele>1.4</ele>
        <time>2021-05-17T06:45:07Z</time>
      </trkpt>
      <trkpt lat="41.4455480" lon="-8.7764460">
        <ele>1.3</ele>
        <time>2021-05-17T06:45:08Z</time>
      </trkpt>
      <trkpt lat="41.4455640" lon="-8.7764440">
        <ele>1.3</ele>
        <time>2021-05-17T06:45:09Z</time>
      </trkpt>
      <trkpt lat="41.4455780" lon="-8.7764330">
        <ele>1.3</ele>
        <time>2021-05-17T06:45:10Z</time>
      </trkpt>
      <trkpt lat="41.4455920" lon="-8.7764390">
        <ele>1.3</ele>
        <time>2021-05-17T06:45:11Z</time>
      </trkpt>
      <trkpt lat="41.4456030" lon="-8.7764520">
        <ele>1.3</ele>
        <time>2021-05-17T06:45:12Z</time>
      </trkpt>
      <trkpt lat="41.4456090" lon="-8.7764680">
        <ele>1.4</ele>
        <time>2021-05-17T06:45:13Z</time>
      </trkpt>
      <trkpt lat="41.4456160" lon="-8.7764910">
        <ele>1.4</ele>
        <time>2021-05-17T06:45:14Z</time>
      </trkpt>
      <trkpt lat="41.4456190" lon="-8.7764980">
        <ele>1.4</ele>
        <time>2021-05-17T06:45:15Z</time>
      </trkpt>
      <trkpt lat="41.4456230" lon="-8.7765050">
        <ele>1.4</ele>
        <time>2021-05-17T06:45:16Z</time>
      </trkpt>
      <trkpt lat="41.4456260" lon="-8.7765120">
        <ele>1.4</ele>
        <time>2021-05-17T06:45:17Z</time>
      </trkpt>
      <trkpt lat="41.4456390" lon="-8.7765230">
        <ele>1.4</ele>
        <time>2021-05-17T06:45:18Z</time>
      </trkpt>
      <trkpt lat="41.4456490" lon="-8.7765330">
        <ele>1.5</ele>
        <time>2021-05-17T06:45:19Z</time>
      </trkpt>
      <trkpt lat="41.4456600" lon="-8.7765320">
        <ele>1.5</ele>
        <time>2021-05-17T06:45:20Z</time>
      </trkpt>
      <trkpt lat="41.4456750" lon="-8.7765320">
        <ele>1.5</ele>
        <time>2021-05-17T06:45:21Z</time>
      </trkpt>
      <trkpt lat="41.4456850" lon="-8.7765310">
        <ele>1.5</ele>
        <time>2021-05-17T06:45:22Z</time>
      </trkpt>
      <trkpt lat="41.4457080" lon="-8.7765260">
        <ele>1.5</ele>
        <time>2021-05-17T06:45:23Z</time>
      </trkpt>
      <trkpt lat="41.4457160" lon="-8.7765230">
        <ele>1.5</ele>
        <time>2021-05-17T06:45:24Z</time>
      </trkpt>
      <trkpt lat="41.4457250" lon="-8.7765210">
        <ele>1.5</ele>
        <time>2021-05-17T06:45:25Z</time>
      </trkpt>
      <trkpt lat="41.4457400" lon="-8.7765290">
        <ele>1.5</ele>
        <time>2021-05-17T06:45:26Z</time>
      </trkpt>
      <trkpt lat="41.4457580" lon="-8.7765250">
        <ele>1.6</ele>
        <time>2021-05-17T06:45:27Z</time>
      </trkpt>
      <trkpt lat="41.4457750" lon="-8.7765260">
        <ele>1.6</ele>
        <time>2021-05-17T06:45:28Z</time>
      </trkpt>
      <trkpt lat="41.4457910" lon="-8.7765300">
        <ele>1.6</ele>
        <time>2021-05-17T06:45:29Z</time>
      </trkpt>
      <trkpt lat="41.4458080" lon="-8.7765270">
        <ele>1.6</ele>
        <time>2021-05-17T06:45:30Z</time>
      </trkpt>
      <trkpt lat="41.4458220" lon="-8.7765240">
        <ele>1.6</ele>
        <time>2021-05-17T06:45:31Z</time>
      </trkpt>
      <trkpt lat="41.4458370" lon="-8.7765230">
        <ele>1.6</ele>
        <time>2021-05-17T06:45:32Z</time>
      </trkpt>
      <trkpt lat="41.4458520" lon="-8.7765280">
        <ele>1.7</ele>
        <time>2021-05-17T06:45:33Z</time>
      </trkpt>
      <trkpt lat="41.4458690" lon="-8.7765360">
        <ele>1.7</ele>
        <time>2021-05-17T06:45:34Z</time>
      </trkpt>
      <trkpt lat="41.4458860" lon="-8.7765300">
        <ele>1.7</ele>
        <time>2021-05-17T06:45:35Z</time>
      </trkpt>
      <trkpt lat="41.4459010" lon="-8.7765320">
        <ele>1.8</ele>
        <time>2021-05-17T06:45:36Z</time>
      </trkpt>
      <trkpt lat="41.4459170" lon="-8.7765280">
        <ele>1.8</ele>
        <time>2021-05-17T06:45:37Z</time>
      </trkpt>
      <trkpt lat="41.4459340" lon="-8.7765270">
        <ele>1.8</ele>
        <time>2021-05-17T06:45:38Z</time>
      </trkpt>
      <trkpt lat="41.4459510" lon="-8.7765280">
        <ele>1.8</ele>
        <time>2021-05-17T06:45:39Z</time>
      </trkpt>
      <trkpt lat="41.4459670" lon="-8.7765260">
        <ele>1.8</ele>
        <time>2021-05-17T06:45:40Z</time>
      </trkpt>
      <trkpt lat="41.4459830" lon="-8.7765240">
        <ele>1.9</ele>
        <time>2021-05-17T06:45:41Z</time>
      </trkpt>
      <trkpt lat="41.4459990" lon="-8.7765230">
        <ele>1.9</ele>
        <time>2021-05-17T06:45:42Z</time>
      </trkpt>
      <trkpt lat="41.4460150" lon="-8.7765280">
        <ele>1.9</ele>
        <time>2021-05-17T06:45:43Z</time>
      </trkpt>
      <trkpt lat="41.4460300" lon="-8.7765300">
        <ele>1.9</ele>
        <time>2021-05-17T06:45:44Z</time>
      </trkpt>
      <trkpt lat="41.4460450" lon="-8.7765300">
        <ele>2.0</ele>
        <time>2021-05-17T06:45:45Z</time>
      </trkpt>
      <trkpt lat="41.4460630" lon="-8.7765280">
        <ele>2.0</ele>
        <time>2021-05-17T06:45:46Z</time>
      </trkpt>
      <trkpt lat="41.4460780" lon="-8.7765200">
        <ele>2.0</ele>
        <time>2021-05-17T06:45:47Z</time>
      </trkpt>
      <trkpt lat="41.4460940" lon="-8.7765240">
        <ele>2.1</ele>
        <time>2021-05-17T06:45:48Z</time>
      </trkpt>
      <trkpt lat="41.4461090" lon="-8.7765200">
        <ele>2.1</ele>
        <time>2021-05-17T06:45:49Z</time>
      </trkpt>
      <trkpt lat="41.4461240" lon="-8.7765160">
        <ele>2.1</ele>
        <time>2021-05-17T06:45:50Z</time>
      </trkpt>
      <trkpt lat="41.4461380" lon="-8.7765050">
        <ele>2.2</ele>
        <time>2021-05-17T06:45:51Z</time>
      </trkpt>
      <trkpt lat="41.4461660" lon="-8.7765140">
        <ele>2.2</ele>
        <time>2021-05-17T06:45:52Z</time>
      </trkpt>
      <trkpt lat="41.4461800" lon="-8.7765110">
        <ele>2.3</ele>
        <time>2021-05-17T06:45:53Z</time>
      </trkpt>
      <trkpt lat="41.4461940" lon="-8.7765110">
        <ele>2.3</ele>
        <time>2021-05-17T06:45:54Z</time>
      </trkpt>
      <trkpt lat="41.4462090" lon="-8.7765070">
        <ele>2.3</ele>
        <time>2021-05-17T06:45:55Z</time>
      </trkpt>
      <trkpt lat="41.4462260" lon="-8.7765060">
        <ele>2.3</ele>
        <time>2021-05-17T06:45:56Z</time>
      </trkpt>
      <trkpt lat="41.4462410" lon="-8.7765110">
        <ele>2.4</ele>
        <time>2021-05-17T06:45:57Z</time>
      </trkpt>
      <trkpt lat="41.4462560" lon="-8.7765130">
        <ele>2.4</ele>
        <time>2021-05-17T06:45:58Z</time>
      </trkpt>
      <trkpt lat="41.4462710" lon="-8.7765060">
        <ele>2.5</ele>
        <time>2021-05-17T06:45:59Z</time>
      </trkpt>
      <trkpt lat="41.4462850" lon="-8.7765080">
        <ele>2.5</ele>
        <time>2021-05-17T06:46:00Z</time>
      </trkpt>
      <trkpt lat="41.4462980" lon="-8.7765070">
        <ele>2.5</ele>
        <time>2021-05-17T06:46:01Z</time>
      </trkpt>
      <trkpt lat="41.4463120" lon="-8.7765060">
        <ele>2.6</ele>
        <time>2021-05-17T06:46:02Z</time>
      </trkpt>
      <trkpt lat="41.4463200" lon="-8.7765060">
        <ele>2.6</ele>
        <time>2021-05-17T06:46:03Z</time>
      </trkpt>
      <trkpt lat="41.4463360" lon="-8.7765070">
        <ele>2.6</ele>
        <time>2021-05-17T06:46:04Z</time>
      </trkpt>
      <trkpt lat="41.4463420" lon="-8.7765060">
        <ele>2.6</ele>
        <time>2021-05-17T06:46:05Z</time>
      </trkpt>
      <trkpt lat="41.4463520" lon="-8.7765010">
        <ele>2.6</ele>
        <time>2021-05-17T06:46:06Z</time>
      </trkpt>
      <trkpt lat="41.4463610" lon="-8.7764960">
        <ele>2.6</ele>
        <time>2021-05-17T06:46:07Z</time>
      </trkpt>
      <trkpt lat="41.4463700" lon="-8.7764940">
        <ele>2.7</ele>
        <time>2021-05-17T06:46:08Z</time>
      </trkpt>
      <trkpt lat="41.4463810" lon="-8.7764940">
        <ele>2.7</ele>
        <time>2021-05-17T06:46:09Z</time>
      </trkpt>
      <trkpt lat="41.4463950" lon="-8.7764840">
        <ele>2.7</ele>
        <time>2021-05-17T06:46:10Z</time>
      </trkpt>
      <trkpt lat="41.4464040" lon="-8.7764810">
        <ele>2.7</ele>
        <time>2021-05-17T06:46:11Z</time>
      </trkpt>
      <trkpt lat="41.4464140" lon="-8.7764760">
        <ele>2.7</ele>
        <time>2021-05-17T06:46:12Z</time>
      </trkpt>
      <trkpt lat="41.4464230" lon="-8.7764760">
        <ele>2.7</ele>
        <time>2021-05-17T06:46:13Z</time>
      </trkpt>
      <trkpt lat="41.4464310" lon="-8.7764770">
        <ele>2.8</ele>
        <time>2021-05-17T06:46:14Z</time>
      </trkpt>
      <trkpt lat="41.4464420" lon="-8.7764750">
        <ele>2.8</ele>
        <time>2021-05-17T06:46:15Z</time>
      </trkpt>
      <trkpt lat="41.4464560" lon="-8.7764700">
        <ele>2.8</ele>
        <time>2021-05-17T06:46:16Z</time>
      </trkpt>
      <trkpt lat="41.4464650" lon="-8.7764640">
        <ele>2.9</ele>
        <time>2021-05-17T06:46:17Z</time>
      </trkpt>
      <trkpt lat="41.4464750" lon="-8.7764660">
        <ele>2.9</ele>
        <time>2021-05-17T06:46:18Z</time>
      </trkpt>
      <trkpt lat="41.4464890" lon="-8.7764610">
        <ele>2.9</ele>
        <time>2021-05-17T06:46:19Z</time>
      </trkpt>
      <trkpt lat="41.4465010" lon="-8.7764560">
        <ele>2.9</ele>
        <time>2021-05-17T06:46:20Z</time>
      </trkpt>
      <trkpt lat="41.4465190" lon="-8.7764470">
        <ele>2.9</ele>
        <time>2021-05-17T06:46:21Z</time>
      </trkpt>
      <trkpt lat="41.4465380" lon="-8.7764400">
        <ele>2.9</ele>
        <time>2021-05-17T06:46:23Z</time>
      </trkpt>
      <trkpt lat="41.4465590" lon="-8.7764340">
        <ele>2.9</ele>
        <time>2021-05-17T06:46:24Z</time>
      </trkpt>
      <trkpt lat="41.4465690" lon="-8.7764310">
        <ele>2.9</ele>
        <time>2021-05-17T06:46:25Z</time>
      </trkpt>
      <trkpt lat="41.4465780" lon="-8.7764280">
        <ele>2.9</ele>
        <time>2021-05-17T06:46:26Z</time>
      </trkpt>
      <trkpt lat="41.4465960" lon="-8.7764200">
        <ele>3.0</ele>
        <time>2021-05-17T06:46:28Z</time>
      </trkpt>
      <trkpt lat="41.4466100" lon="-8.7764180">
        <ele>3.0</ele>
        <time>2021-05-17T06:46:29Z</time>
      </trkpt>
      <trkpt lat="41.4466330" lon="-8.7764100">
        <ele>3.0</ele>
        <time>2021-05-17T06:46:30Z</time>
      </trkpt>
      <trkpt lat="41.4466390" lon="-8.7764020">
        <ele>2.9</ele>
        <time>2021-05-17T06:46:31Z</time>
      </trkpt>
      <trkpt lat="41.4466450" lon="-8.7763930">
        <ele>2.9</ele>
        <time>2021-05-17T06:46:32Z</time>
      </trkpt>
      <trkpt lat="41.4466530" lon="-8.7763670">
        <ele>3.0</ele>
        <time>2021-05-17T06:46:33Z</time>
      </trkpt>
      <trkpt lat="41.4466560" lon="-8.7763480">
        <ele>2.9</ele>
        <time>2021-05-17T06:46:34Z</time>
      </trkpt>
      <trkpt lat="41.4466700" lon="-8.7763310">
        <ele>2.9</ele>
        <time>2021-05-17T06:46:35Z</time>
      </trkpt>
      <trkpt lat="41.4466790" lon="-8.7763140">
        <ele>2.8</ele>
        <time>2021-05-17T06:46:36Z</time>
      </trkpt>
      <trkpt lat="41.4466920" lon="-8.7762950">
        <ele>2.8</ele>
        <time>2021-05-17T06:46:37Z</time>
      </trkpt>
      <trkpt lat="41.4466990" lon="-8.7762770">
        <ele>2.8</ele>
        <time>2021-05-17T06:46:38Z</time>
      </trkpt>
      <trkpt lat="41.4467110" lon="-8.7762630">
        <ele>2.8</ele>
        <time>2021-05-17T06:46:39Z</time>
      </trkpt>
      <trkpt lat="41.4467200" lon="-8.7762490">
        <ele>2.8</ele>
        <time>2021-05-17T06:46:40Z</time>
      </trkpt>
      <trkpt lat="41.4467310" lon="-8.7762320">
        <ele>2.8</ele>
        <time>2021-05-17T06:46:41Z</time>
      </trkpt>
      <trkpt lat="41.4467420" lon="-8.7762120">
        <ele>2.7</ele>
        <time>2021-05-17T06:46:42Z</time>
      </trkpt>
      <trkpt lat="41.4467530" lon="-8.7761980">
        <ele>2.8</ele>
        <time>2021-05-17T06:46:43Z</time>
      </trkpt>
      <trkpt lat="41.4467630" lon="-8.7761820">
        <ele>2.7</ele>
        <time>2021-05-17T06:46:44Z</time>
      </trkpt>
      <trkpt lat="41.4467710" lon="-8.7761630">
        <ele>2.7</ele>
        <time>2021-05-17T06:46:45Z</time>
      </trkpt>
      <trkpt lat="41.4467840" lon="-8.7761510">
        <ele>2.7</ele>
        <time>2021-05-17T06:46:46Z</time>
      </trkpt>
      <trkpt lat="41.4467940" lon="-8.7761370">
        <ele>2.7</ele>
        <time>2021-05-17T06:46:47Z</time>
      </trkpt>
      <trkpt lat="41.4468090" lon="-8.7761270">
        <ele>2.7</ele>
        <time>2021-05-17T06:46:48Z</time>
      </trkpt>
      <trkpt lat="41.4468190" lon="-8.7761060">
        <ele>2.7</ele>
        <time>2021-05-17T06:46:49Z</time>
      </trkpt>
      <trkpt lat="41.4468310" lon="-8.7760930">
        <ele>2.7</ele>
        <time>2021-05-17T06:46:50Z</time>
      </trkpt>
      <trkpt lat="41.4468440" lon="-8.7760840">
        <ele>2.7</ele>
        <time>2021-05-17T06:46:51Z</time>
      </trkpt>
      <trkpt lat="41.4468590" lon="-8.7760880">
        <ele>2.7</ele>
        <time>2021-05-17T06:46:52Z</time>
      </trkpt>
      <trkpt lat="41.4468750" lon="-8.7760910">
        <ele>2.7</ele>
        <time>2021-05-17T06:46:53Z</time>
      </trkpt>
      <trkpt lat="41.4468880" lon="-8.7760900">
        <ele>2.8</ele>
        <time>2021-05-17T06:46:54Z</time>
      </trkpt>
      <trkpt lat="41.4469010" lon="-8.7760960">
        <ele>2.8</ele>
        <time>2021-05-17T06:46:55Z</time>
      </trkpt>
      <trkpt lat="41.4469150" lon="-8.7760940">
        <ele>2.8</ele>
        <time>2021-05-17T06:46:56Z</time>
      </trkpt>
      <trkpt lat="41.4469290" lon="-8.7760930">
        <ele>2.8</ele>
        <time>2021-05-17T06:46:57Z</time>
      </trkpt>
      <trkpt lat="41.4469440" lon="-8.7760850">
        <ele>2.9</ele>
        <time>2021-05-17T06:46:58Z</time>
      </trkpt>
      <trkpt lat="41.4469590" lon="-8.7760830">
        <ele>2.9</ele>
        <time>2021-05-17T06:46:59Z</time>
      </trkpt>
      <trkpt lat="41.4469750" lon="-8.7760800">
        <ele>2.9</ele>
        <time>2021-05-17T06:47:00Z</time>
      </trkpt>
      <trkpt lat="41.4469890" lon="-8.7760790">
        <ele>2.9</ele>
        <time>2021-05-17T06:47:01Z</time>
      </trkpt>
      <trkpt lat="41.4470040" lon="-8.7760700">
        <ele>2.9</ele>
        <time>2021-05-17T06:47:02Z</time>
      </trkpt>
      <trkpt lat="41.4470180" lon="-8.7760730">
        <ele>3.0</ele>
        <time>2021-05-17T06:47:03Z</time>
      </trkpt>
      <trkpt lat="41.4470330" lon="-8.7760690">
        <ele>3.0</ele>
        <time>2021-05-17T06:47:04Z</time>
      </trkpt>
      <trkpt lat="41.4470460" lon="-8.7760690">
        <ele>3.0</ele>
        <time>2021-05-17T06:47:05Z</time>
      </trkpt>
      <trkpt lat="41.4470630" lon="-8.7760640">
        <ele>3.0</ele>
        <time>2021-05-17T06:47:06Z</time>
      </trkpt>
      <trkpt lat="41.4470760" lon="-8.7760610">
        <ele>3.0</ele>
        <time>2021-05-17T06:47:07Z</time>
      </trkpt>
      <trkpt lat="41.4470900" lon="-8.7760610">
        <ele>3.1</ele>
        <time>2021-05-17T06:47:08Z</time>
      </trkpt>
      <trkpt lat="41.4471050" lon="-8.7760540">
        <ele>3.0</ele>
        <time>2021-05-17T06:47:09Z</time>
      </trkpt>
      <trkpt lat="41.4471170" lon="-8.7760520">
        <ele>3.0</ele>
        <time>2021-05-17T06:47:10Z</time>
      </trkpt>
      <trkpt lat="41.4471310" lon="-8.7760460">
        <ele>3.1</ele>
        <time>2021-05-17T06:47:11Z</time>
      </trkpt>
      <trkpt lat="41.4471450" lon="-8.7760460">
        <ele>3.1</ele>
        <time>2021-05-17T06:47:12Z</time>
      </trkpt>
      <trkpt lat="41.4471580" lon="-8.7760400">
        <ele>3.1</ele>
        <time>2021-05-17T06:47:13Z</time>
      </trkpt>
      <trkpt lat="41.4471740" lon="-8.7760390">
        <ele>3.1</ele>
        <time>2021-05-17T06:47:14Z</time>
      </trkpt>
      <trkpt lat="41.4471890" lon="-8.7760360">
        <ele>3.1</ele>
        <time>2021-05-17T06:47:15Z</time>
      </trkpt>
      <trkpt lat="41.4472030" lon="-8.7760360">
        <ele>3.2</ele>
        <time>2021-05-17T06:47:16Z</time>
      </trkpt>
      <trkpt lat="41.4472150" lon="-8.7760350">
        <ele>3.2</ele>
        <time>2021-05-17T06:47:17Z</time>
      </trkpt>
      <trkpt lat="41.4472310" lon="-8.7760320">
        <ele>3.2</ele>
        <time>2021-05-17T06:47:18Z</time>
      </trkpt>
      <trkpt lat="41.4472450" lon="-8.7760260">
        <ele>3.2</ele>
        <time>2021-05-17T06:47:19Z</time>
      </trkpt>
      <trkpt lat="41.4472600" lon="-8.7760220">
        <ele>3.2</ele>
        <time>2021-05-17T06:47:20Z</time>
      </trkpt>
      <trkpt lat="41.4472730" lon="-8.7760180">
        <ele>3.2</ele>
        <time>2021-05-17T06:47:21Z</time>
      </trkpt>
      <trkpt lat="41.4472870" lon="-8.7760110">
        <ele>3.2</ele>
        <time>2021-05-17T06:47:22Z</time>
      </trkpt>
      <trkpt lat="41.4472990" lon="-8.7760090">
        <ele>3.2</ele>
        <time>2021-05-17T06:47:23Z</time>
      </trkpt>
      <trkpt lat="41.4473150" lon="-8.7760060">
        <ele>3.2</ele>
        <time>2021-05-17T06:47:24Z</time>
      </trkpt>
      <trkpt lat="41.4473280" lon="-8.7759990">
        <ele>3.2</ele>
        <time>2021-05-17T06:47:25Z</time>
      </trkpt>
      <trkpt lat="41.4473410" lon="-8.7759950">
        <ele>3.2</ele>
        <time>2021-05-17T06:47:26Z</time>
      </trkpt>
      <trkpt lat="41.4473570" lon="-8.7759950">
        <ele>3.2</ele>
        <time>2021-05-17T06:47:27Z</time>
      </trkpt>
      <trkpt lat="41.4473710" lon="-8.7759910">
        <ele>3.3</ele>
        <time>2021-05-17T06:47:28Z</time>
      </trkpt>
      <trkpt lat="41.4473830" lon="-8.7759900">
        <ele>3.3</ele>
        <time>2021-05-17T06:47:29Z</time>
      </trkpt>
      <trkpt lat="41.4473990" lon="-8.7759820">
        <ele>3.3</ele>
        <time>2021-05-17T06:47:30Z</time>
      </trkpt>
      <trkpt lat="41.4474130" lon="-8.7759780">
        <ele>3.3</ele>
        <time>2021-05-17T06:47:31Z</time>
      </trkpt>
      <trkpt lat="41.4474270" lon="-8.7759720">
        <ele>3.2</ele>
        <time>2021-05-17T06:47:32Z</time>
      </trkpt>
      <trkpt lat="41.4474410" lon="-8.7759710">
        <ele>3.2</ele>
        <time>2021-05-17T06:47:33Z</time>
      </trkpt>
      <trkpt lat="41.4474560" lon="-8.7759660">
        <ele>3.3</ele>
        <time>2021-05-17T06:47:34Z</time>
      </trkpt>
      <trkpt lat="41.4474700" lon="-8.7759650">
        <ele>3.3</ele>
        <time>2021-05-17T06:47:35Z</time>
      </trkpt>
      <trkpt lat="41.4474840" lon="-8.7759640">
        <ele>3.3</ele>
        <time>2021-05-17T06:47:36Z</time>
      </trkpt>
      <trkpt lat="41.4474970" lon="-8.7759640">
        <ele>3.3</ele>
        <time>2021-05-17T06:47:37Z</time>
      </trkpt>
      <trkpt lat="41.4475150" lon="-8.7759590">
        <ele>3.3</ele>
        <time>2021-05-17T06:47:38Z</time>
      </trkpt>
      <trkpt lat="41.4475270" lon="-8.7759550">
        <ele>3.2</ele>
        <time>2021-05-17T06:47:39Z</time>
      </trkpt>
      <trkpt lat="41.4475420" lon="-8.7759520">
        <ele>3.2</ele>
        <time>2021-05-17T06:47:40Z</time>
      </trkpt>
      <trkpt lat="41.4475540" lon="-8.7759420">
        <ele>3.2</ele>
        <time>2021-05-17T06:47:41Z</time>
      </trkpt>
      <trkpt lat="41.4475680" lon="-8.7759400">
        <ele>3.2</ele>
        <time>2021-05-17T06:47:42Z</time>
      </trkpt>
      <trkpt lat="41.4475820" lon="-8.7759290">
        <ele>3.2</ele>
        <time>2021-05-17T06:47:43Z</time>
      </trkpt>
      <trkpt lat="41.4475950" lon="-8.7759270">
        <ele>3.2</ele>
        <time>2021-05-17T06:47:44Z</time>
      </trkpt>
      <trkpt lat="41.4476090" lon="-8.7759210">
        <ele>3.2</ele>
        <time>2021-05-17T06:47:45Z</time>
      </trkpt>
      <trkpt lat="41.4476220" lon="-8.7759150">
        <ele>3.2</ele>
        <time>2021-05-17T06:47:46Z</time>
      </trkpt>
      <trkpt lat="41.4476390" lon="-8.7759100">
        <ele>3.2</ele>
        <time>2021-05-17T06:47:47Z</time>
      </trkpt>
      <trkpt lat="41.4476530" lon="-8.7759030">
        <ele>3.2</ele>
        <time>2021-05-17T06:47:48Z</time>
      </trkpt>
      <trkpt lat="41.4476730" lon="-8.7759010">
        <ele>3.2</ele>
        <time>2021-05-17T06:47:49Z</time>
      </trkpt>
      <trkpt lat="41.4476830" lon="-8.7759020">
        <ele>3.2</ele>
        <time>2021-05-17T06:47:50Z</time>
      </trkpt>
      <trkpt lat="41.4476920" lon="-8.7759040">
        <ele>3.2</ele>
        <time>2021-05-17T06:47:51Z</time>
      </trkpt>
      <trkpt lat="41.4477070" lon="-8.7759020">
        <ele>3.1</ele>
        <time>2021-05-17T06:47:52Z</time>
      </trkpt>
      <trkpt lat="41.4477220" lon="-8.7758970">
        <ele>3.1</ele>
        <time>2021-05-17T06:47:53Z</time>
      </trkpt>
      <trkpt lat="41.4477420" lon="-8.7758890">
        <ele>3.1</ele>
        <time>2021-05-17T06:47:54Z</time>
      </trkpt>
      <trkpt lat="41.4477520" lon="-8.7758860">
        <ele>3.1</ele>
        <time>2021-05-17T06:47:55Z</time>
      </trkpt>
      <trkpt lat="41.4477610" lon="-8.7758820">
        <ele>3.1</ele>
        <time>2021-05-17T06:47:56Z</time>
      </trkpt>
      <trkpt lat="41.4477760" lon="-8.7758770">
        <ele>3.1</ele>
        <time>2021-05-17T06:47:57Z</time>
      </trkpt>
      <trkpt lat="41.4478070" lon="-8.7758750">
        <ele>3.1</ele>
        <time>2021-05-17T06:47:58Z</time>
      </trkpt>
      <trkpt lat="41.4478190" lon="-8.7758690">
        <ele>3.1</ele>
        <time>2021-05-17T06:47:59Z</time>
      </trkpt>
      <trkpt lat="41.4478330" lon="-8.7758630">
        <ele>3.1</ele>
        <time>2021-05-17T06:48:00Z</time>
      </trkpt>
      <trkpt lat="41.4478480" lon="-8.7758600">
        <ele>3.1</ele>
        <time>2021-05-17T06:48:01Z</time>
      </trkpt>
      <trkpt lat="41.4478670" lon="-8.7758560">
        <ele>3.1</ele>
        <time>2021-05-17T06:48:02Z</time>
      </trkpt>
      <trkpt lat="41.4478770" lon="-8.7758530">
        <ele>3.0</ele>
        <time>2021-05-17T06:48:03Z</time>
      </trkpt>
      <trkpt lat="41.4478860" lon="-8.7758490">
        <ele>3.0</ele>
        <time>2021-05-17T06:48:04Z</time>
      </trkpt>
      <trkpt lat="41.4478990" lon="-8.7758460">
        <ele>3.0</ele>
        <time>2021-05-17T06:48:05Z</time>
      </trkpt>
      <trkpt lat="41.4479130" lon="-8.7758390">
        <ele>3.0</ele>
        <time>2021-05-17T06:48:06Z</time>
      </trkpt>
      <trkpt lat="41.4479360" lon="-8.7758380">
        <ele>3.0</ele>
        <time>2021-05-17T06:48:07Z</time>
      </trkpt>
      <trkpt lat="41.4479470" lon="-8.7758390">
        <ele>3.0</ele>
        <time>2021-05-17T06:48:08Z</time>
      </trkpt>
      <trkpt lat="41.4479570" lon="-8.7758390">
        <ele>3.0</ele>
        <time>2021-05-17T06:48:09Z</time>
      </trkpt>
      <trkpt lat="41.4479700" lon="-8.7758400">
        <ele>3.0</ele>
        <time>2021-05-17T06:48:10Z</time>
      </trkpt>
      <trkpt lat="41.4479850" lon="-8.7758340">
        <ele>3.0</ele>
        <time>2021-05-17T06:48:11Z</time>
      </trkpt>
      <trkpt lat="41.4479980" lon="-8.7758280">
        <ele>3.0</ele>
        <time>2021-05-17T06:48:12Z</time>
      </trkpt>
      <trkpt lat="41.4480120" lon="-8.7758280">
        <ele>3.0</ele>
        <time>2021-05-17T06:48:13Z</time>
      </trkpt>
      <trkpt lat="41.4480280" lon="-8.7758270">
        <ele>3.0</ele>
        <time>2021-05-17T06:48:14Z</time>
      </trkpt>
      <trkpt lat="41.4480420" lon="-8.7758270">
        <ele>3.0</ele>
        <time>2021-05-17T06:48:15Z</time>
      </trkpt>
      <trkpt lat="41.4480550" lon="-8.7758130">
        <ele>3.0</ele>
        <time>2021-05-17T06:48:16Z</time>
      </trkpt>
      <trkpt lat="41.4480690" lon="-8.7758060">
        <ele>3.0</ele>
        <time>2021-05-17T06:48:17Z</time>
      </trkpt>
      <trkpt lat="41.4480830" lon="-8.7758080">
        <ele>3.0</ele>
        <time>2021-05-17T06:48:18Z</time>
      </trkpt>
      <trkpt lat="41.4480970" lon="-8.7758030">
        <ele>3.0</ele>
        <time>2021-05-17T06:48:19Z</time>
      </trkpt>
      <trkpt lat="41.4481110" lon="-8.7757980">
        <ele>3.0</ele>
        <time>2021-05-17T06:48:20Z</time>
      </trkpt>
      <trkpt lat="41.4481240" lon="-8.7757990">
        <ele>3.0</ele>
        <time>2021-05-17T06:48:21Z</time>
      </trkpt>
      <trkpt lat="41.4481370" lon="-8.7757980">
        <ele>3.0</ele>
        <time>2021-05-17T06:48:22Z</time>
      </trkpt>
      <trkpt lat="41.4481520" lon="-8.7757930">
        <ele>3.0</ele>
        <time>2021-05-17T06:48:23Z</time>
      </trkpt>
      <trkpt lat="41.4481730" lon="-8.7757870">
        <ele>3.0</ele>
        <time>2021-05-17T06:48:24Z</time>
      </trkpt>
      <trkpt lat="41.4481820" lon="-8.7757850">
        <ele>3.0</ele>
        <time>2021-05-17T06:48:25Z</time>
      </trkpt>
      <trkpt lat="41.4481900" lon="-8.7757830">
        <ele>3.0</ele>
        <time>2021-05-17T06:48:26Z</time>
      </trkpt>
      <trkpt lat="41.4482050" lon="-8.7757860">
        <ele>3.0</ele>
        <time>2021-05-17T06:48:27Z</time>
      </trkpt>
      <trkpt lat="41.4482190" lon="-8.7757810">
        <ele>3.0</ele>
        <time>2021-05-17T06:48:28Z</time>
      </trkpt>
      <trkpt lat="41.4482310" lon="-8.7757790">
        <ele>3.0</ele>
        <time>2021-05-17T06:48:29Z</time>
      </trkpt>
      <trkpt lat="41.4482450" lon="-8.7757660">
        <ele>3.0</ele>
        <time>2021-05-17T06:48:30Z</time>
      </trkpt>
      <trkpt lat="41.4482600" lon="-8.7757650">
        <ele>3.0</ele>
        <time>2021-05-17T06:48:31Z</time>
      </trkpt>
      <trkpt lat="41.4482740" lon="-8.7757680">
        <ele>3.0</ele>
        <time>2021-05-17T06:48:32Z</time>
      </trkpt>
      <trkpt lat="41.4482970" lon="-8.7757630">
        <ele>3.0</ele>
        <time>2021-05-17T06:48:33Z</time>
      </trkpt>
      <trkpt lat="41.4483060" lon="-8.7757610">
        <ele>3.0</ele>
        <time>2021-05-17T06:48:34Z</time>
      </trkpt>
      <trkpt lat="41.4483140" lon="-8.7757580">
        <ele>3.0</ele>
        <time>2021-05-17T06:48:35Z</time>
      </trkpt>
      <trkpt lat="41.4483300" lon="-8.7757510">
        <ele>3.0</ele>
        <time>2021-05-17T06:48:36Z</time>
      </trkpt>
      <trkpt lat="41.4483450" lon="-8.7757530">
        <ele>3.0</ele>
        <time>2021-05-17T06:48:37Z</time>
      </trkpt>
      <trkpt lat="41.4483600" lon="-8.7757470">
        <ele>3.0</ele>
        <time>2021-05-17T06:48:38Z</time>
      </trkpt>
      <trkpt lat="41.4483740" lon="-8.7757440">
        <ele>3.0</ele>
        <time>2021-05-17T06:48:39Z</time>
      </trkpt>
      <trkpt lat="41.4483880" lon="-8.7757400">
        <ele>3.0</ele>
        <time>2021-05-17T06:48:40Z</time>
      </trkpt>
      <trkpt lat="41.4484040" lon="-8.7757360">
        <ele>3.0</ele>
        <time>2021-05-17T06:48:41Z</time>
      </trkpt>
      <trkpt lat="41.4484200" lon="-8.7757320">
        <ele>3.0</ele>
        <time>2021-05-17T06:48:42Z</time>
      </trkpt>
      <trkpt lat="41.4484330" lon="-8.7757230">
        <ele>3.0</ele>
        <time>2021-05-17T06:48:43Z</time>
      </trkpt>
      <trkpt lat="41.4484480" lon="-8.7757160">
        <ele>3.0</ele>
        <time>2021-05-17T06:48:44Z</time>
      </trkpt>
      <trkpt lat="41.4484640" lon="-8.7757090">
        <ele>3.0</ele>
        <time>2021-05-17T06:48:45Z</time>
      </trkpt>
      <trkpt lat="41.4484790" lon="-8.7757010">
        <ele>3.0</ele>
        <time>2021-05-17T06:48:46Z</time>
      </trkpt>
      <trkpt lat="41.4484930" lon="-8.7757080">
        <ele>3.0</ele>
        <time>2021-05-17T06:48:47Z</time>
      </trkpt>
      <trkpt lat="41.4485090" lon="-8.7757040">
        <ele>3.0</ele>
        <time>2021-05-17T06:48:48Z</time>
      </trkpt>
      <trkpt lat="41.4485240" lon="-8.7757000">
        <ele>3.1</ele>
        <time>2021-05-17T06:48:49Z</time>
      </trkpt>
      <trkpt lat="41.4485360" lon="-8.7756950">
        <ele>3.1</ele>
        <time>2021-05-17T06:48:50Z</time>
      </trkpt>
      <trkpt lat="41.4485530" lon="-8.7756990">
        <ele>3.1</ele>
        <time>2021-05-17T06:48:51Z</time>
      </trkpt>
      <trkpt lat="41.4485680" lon="-8.7756970">
        <ele>3.1</ele>
        <time>2021-05-17T06:48:52Z</time>
      </trkpt>
      <trkpt lat="41.4485830" lon="-8.7756970">
        <ele>3.1</ele>
        <time>2021-05-17T06:48:53Z</time>
      </trkpt>
      <trkpt lat="41.4485970" lon="-8.7756840">
        <ele>3.1</ele>
        <time>2021-05-17T06:48:54Z</time>
      </trkpt>
      <trkpt lat="41.4486110" lon="-8.7756790">
        <ele>3.1</ele>
        <time>2021-05-17T06:48:55Z</time>
      </trkpt>
      <trkpt lat="41.4486240" lon="-8.7756800">
        <ele>3.2</ele>
        <time>2021-05-17T06:48:56Z</time>
      </trkpt>
      <trkpt lat="41.4486390" lon="-8.7756720">
        <ele>3.2</ele>
        <time>2021-05-17T06:48:57Z</time>
      </trkpt>
      <trkpt lat="41.4486530" lon="-8.7756680">
        <ele>3.2</ele>
        <time>2021-05-17T06:48:58Z</time>
      </trkpt>
      <trkpt lat="41.4486670" lon="-8.7756710">
        <ele>3.2</ele>
        <time>2021-05-17T06:48:59Z</time>
      </trkpt>
      <trkpt lat="41.4486810" lon="-8.7756640">
        <ele>3.2</ele>
        <time>2021-05-17T06:49:00Z</time>
      </trkpt>
      <trkpt lat="41.4486970" lon="-8.7756610">
        <ele>3.3</ele>
        <time>2021-05-17T06:49:01Z</time>
      </trkpt>
      <trkpt lat="41.4487110" lon="-8.7756530">
        <ele>3.3</ele>
        <time>2021-05-17T06:49:02Z</time>
      </trkpt>
      <trkpt lat="41.4487250" lon="-8.7756520">
        <ele>3.3</ele>
        <time>2021-05-17T06:49:03Z</time>
      </trkpt>
      <trkpt lat="41.4487390" lon="-8.7756480">
        <ele>3.3</ele>
        <time>2021-05-17T06:49:04Z</time>
      </trkpt>
      <trkpt lat="41.4487530" lon="-8.7756450">
        <ele>3.3</ele>
        <time>2021-05-17T06:49:05Z</time>
      </trkpt>
      <trkpt lat="41.4487660" lon="-8.7756330">
        <ele>3.4</ele>
        <time>2021-05-17T06:49:06Z</time>
      </trkpt>
      <trkpt lat="41.4487790" lon="-8.7756290">
        <ele>3.4</ele>
        <time>2021-05-17T06:49:07Z</time>
      </trkpt>
      <trkpt lat="41.4487950" lon="-8.7756310">
        <ele>3.4</ele>
        <time>2021-05-17T06:49:08Z</time>
      </trkpt>
      <trkpt lat="41.4488070" lon="-8.7756230">
        <ele>3.4</ele>
        <time>2021-05-17T06:49:09Z</time>
      </trkpt>
      <trkpt lat="41.4488180" lon="-8.7756170">
        <ele>3.4</ele>
        <time>2021-05-17T06:49:10Z</time>
      </trkpt>
      <trkpt lat="41.4488130" lon="-8.7755920">
        <ele>3.4</ele>
        <time>2021-05-17T06:49:11Z</time>
      </trkpt>
      <trkpt lat="41.4488040" lon="-8.7755760">
        <ele>3.5</ele>
        <time>2021-05-17T06:49:12Z</time>
      </trkpt>
      <trkpt lat="41.4487990" lon="-8.7755630">
        <ele>3.5</ele>
        <time>2021-05-17T06:49:13Z</time>
      </trkpt>
      <trkpt lat="41.4487950" lon="-8.7755440">
        <ele>3.5</ele>
        <time>2021-05-17T06:49:14Z</time>
      </trkpt>
      <trkpt lat="41.4487890" lon="-8.7755340">
        <ele>3.5</ele>
        <time>2021-05-17T06:49:15Z</time>
      </trkpt>
      <trkpt lat="41.4487880" lon="-8.7755110">
        <ele>3.5</ele>
        <time>2021-05-17T06:49:16Z</time>
      </trkpt>
      <trkpt lat="41.4487830" lon="-8.7755010">
        <ele>3.5</ele>
        <time>2021-05-17T06:49:18Z</time>
      </trkpt>
      <trkpt lat="41.4487840" lon="-8.7754930">
        <ele>3.5</ele>
        <time>2021-05-17T06:49:19Z</time>
      </trkpt>
      <trkpt lat="41.4487870" lon="-8.7754750">
        <ele>3.5</ele>
        <time>2021-05-17T06:49:20Z</time>
      </trkpt>
      <trkpt lat="41.4487950" lon="-8.7754670">
        <ele>3.5</ele>
        <time>2021-05-17T06:49:21Z</time>
      </trkpt>
      <trkpt lat="41.4488030" lon="-8.7754650">
        <ele>3.5</ele>
        <time>2021-05-17T06:49:22Z</time>
      </trkpt>
      <trkpt lat="41.4488170" lon="-8.7754490">
        <ele>3.5</ele>
        <time>2021-05-17T06:49:23Z</time>
      </trkpt>
      <trkpt lat="41.4488330" lon="-8.7754560">
        <ele>3.5</ele>
        <time>2021-05-17T06:49:24Z</time>
      </trkpt>
      <trkpt lat="41.4488470" lon="-8.7754550">
        <ele>3.5</ele>
        <time>2021-05-17T06:49:25Z</time>
      </trkpt>
      <trkpt lat="41.4488570" lon="-8.7754540">
        <ele>3.5</ele>
        <time>2021-05-17T06:49:26Z</time>
      </trkpt>
      <trkpt lat="41.4488650" lon="-8.7754490">
        <ele>3.5</ele>
        <time>2021-05-17T06:49:27Z</time>
      </trkpt>
      <trkpt lat="41.4488850" lon="-8.7754400">
        <ele>3.5</ele>
        <time>2021-05-17T06:49:28Z</time>
      </trkpt>
      <trkpt lat="41.4488930" lon="-8.7754380">
        <ele>3.5</ele>
        <time>2021-05-17T06:49:29Z</time>
      </trkpt>
      <trkpt lat="41.4489000" lon="-8.7754350">
        <ele>3.5</ele>
        <time>2021-05-17T06:49:30Z</time>
      </trkpt>
      <trkpt lat="41.4489110" lon="-8.7754340">
        <ele>3.5</ele>
        <time>2021-05-17T06:49:31Z</time>
      </trkpt>
      <trkpt lat="41.4489280" lon="-8.7754330">
        <ele>3.4</ele>
        <time>2021-05-17T06:49:32Z</time>
      </trkpt>
      <trkpt lat="41.4489530" lon="-8.7754280">
        <ele>3.4</ele>
        <time>2021-05-17T06:49:33Z</time>
      </trkpt>
      <trkpt lat="41.4489590" lon="-8.7754270">
        <ele>3.4</ele>
        <time>2021-05-17T06:49:34Z</time>
      </trkpt>
      <trkpt lat="41.4489650" lon="-8.7754260">
        <ele>3.4</ele>
        <time>2021-05-17T06:49:35Z</time>
      </trkpt>
      <trkpt lat="41.4489760" lon="-8.7754210">
        <ele>3.4</ele>
        <time>2021-05-17T06:49:36Z</time>
      </trkpt>
      <trkpt lat="41.4489890" lon="-8.7754210">
        <ele>3.4</ele>
        <time>2021-05-17T06:49:37Z</time>
      </trkpt>
      <trkpt lat="41.4489960" lon="-8.7754250">
        <ele>3.4</ele>
        <time>2021-05-17T06:49:38Z</time>
      </trkpt>
      <trkpt lat="41.4490170" lon="-8.7754220">
        <ele>3.4</ele>
        <time>2021-05-17T06:49:39Z</time>
      </trkpt>
      <trkpt lat="41.4490250" lon="-8.7754220">
        <ele>3.4</ele>
        <time>2021-05-17T06:49:40Z</time>
      </trkpt>
      <trkpt lat="41.4490340" lon="-8.7754220">
        <ele>3.4</ele>
        <time>2021-05-17T06:49:41Z</time>
      </trkpt>
      <trkpt lat="41.4490480" lon="-8.7754150">
        <ele>3.3</ele>
        <time>2021-05-17T06:49:42Z</time>
      </trkpt>
      <trkpt lat="41.4490660" lon="-8.7754100">
        <ele>3.3</ele>
        <time>2021-05-17T06:49:43Z</time>
      </trkpt>
      <trkpt lat="41.4490820" lon="-8.7754100">
        <ele>3.3</ele>
        <time>2021-05-17T06:49:44Z</time>
      </trkpt>
      <trkpt lat="41.4490970" lon="-8.7754130">
        <ele>3.3</ele>
        <time>2021-05-17T06:49:45Z</time>
      </trkpt>
      <trkpt lat="41.4491180" lon="-8.7754030">
        <ele>3.3</ele>
        <time>2021-05-17T06:49:46Z</time>
      </trkpt>
      <trkpt lat="41.4491250" lon="-8.7754010">
        <ele>3.3</ele>
        <time>2021-05-17T06:49:47Z</time>
      </trkpt>
      <trkpt lat="41.4491330" lon="-8.7754000">
        <ele>3.3</ele>
        <time>2021-05-17T06:49:48Z</time>
      </trkpt>
      <trkpt lat="41.4491560" lon="-8.7753990">
        <ele>3.3</ele>
        <time>2021-05-17T06:49:49Z</time>
      </trkpt>
      <trkpt lat="41.4491640" lon="-8.7753990">
        <ele>3.3</ele>
        <time>2021-05-17T06:49:50Z</time>
      </trkpt>
      <trkpt lat="41.4491730" lon="-8.7754000">
        <ele>3.2</ele>
        <time>2021-05-17T06:49:51Z</time>
      </trkpt>
      <trkpt lat="41.4491890" lon="-8.7754000">
        <ele>3.2</ele>
        <time>2021-05-17T06:49:52Z</time>
      </trkpt>
      <trkpt lat="41.4492010" lon="-8.7753970">
        <ele>3.2</ele>
        <time>2021-05-17T06:49:53Z</time>
      </trkpt>
      <trkpt lat="41.4492160" lon="-8.7753930">
        <ele>3.2</ele>
        <time>2021-05-17T06:49:54Z</time>
      </trkpt>
      <trkpt lat="41.4492290" lon="-8.7753960">
        <ele>3.2</ele>
        <time>2021-05-17T06:49:55Z</time>
      </trkpt>
      <trkpt lat="41.4492580" lon="-8.7753990">
        <ele>3.2</ele>
        <time>2021-05-17T06:49:56Z</time>
      </trkpt>
      <trkpt lat="41.4492700" lon="-8.7753990">
        <ele>3.2</ele>
        <time>2021-05-17T06:49:57Z</time>
      </trkpt>
      <trkpt lat="41.4492850" lon="-8.7753890">
        <ele>3.2</ele>
        <time>2021-05-17T06:49:58Z</time>
      </trkpt>
      <trkpt lat="41.4493040" lon="-8.7753850">
        <ele>3.1</ele>
        <time>2021-05-17T06:49:59Z</time>
      </trkpt>
      <trkpt lat="41.4493310" lon="-8.7753820">
        <ele>3.1</ele>
        <time>2021-05-17T06:50:00Z</time>
      </trkpt>
      <trkpt lat="41.4493400" lon="-8.7753790">
        <ele>3.1</ele>
        <time>2021-05-17T06:50:01Z</time>
      </trkpt>
      <trkpt lat="41.4493570" lon="-8.7753730">
        <ele>3.1</ele>
        <time>2021-05-17T06:50:02Z</time>
      </trkpt>
      <trkpt lat="41.4493720" lon="-8.7753710">
        <ele>3.1</ele>
        <time>2021-05-17T06:50:03Z</time>
      </trkpt>
      <trkpt lat="41.4494050" lon="-8.7753750">
        <ele>3.1</ele>
        <time>2021-05-17T06:50:04Z</time>
      </trkpt>
      <trkpt lat="41.4494210" lon="-8.7753700">
        <ele>3.1</ele>
        <time>2021-05-17T06:50:05Z</time>
      </trkpt>
      <trkpt lat="41.4494360" lon="-8.7753660">
        <ele>3.1</ele>
        <time>2021-05-17T06:50:06Z</time>
      </trkpt>
      <trkpt lat="41.4494510" lon="-8.7753680">
        <ele>3.1</ele>
        <time>2021-05-17T06:50:07Z</time>
      </trkpt>
      <trkpt lat="41.4494670" lon="-8.7753660">
        <ele>3.1</ele>
        <time>2021-05-17T06:50:08Z</time>
      </trkpt>
      <trkpt lat="41.4494820" lon="-8.7753630">
        <ele>3.1</ele>
        <time>2021-05-17T06:50:09Z</time>
      </trkpt>
      <trkpt lat="41.4495000" lon="-8.7753660">
        <ele>3.1</ele>
        <time>2021-05-17T06:50:10Z</time>
      </trkpt>
      <trkpt lat="41.4495180" lon="-8.7753690">
        <ele>3.1</ele>
        <time>2021-05-17T06:50:11Z</time>
      </trkpt>
      <trkpt lat="41.4495360" lon="-8.7753650">
        <ele>3.1</ele>
        <time>2021-05-17T06:50:12Z</time>
      </trkpt>
      <trkpt lat="41.4495530" lon="-8.7753600">
        <ele>3.1</ele>
        <time>2021-05-17T06:50:13Z</time>
      </trkpt>
      <trkpt lat="41.4495680" lon="-8.7753650">
        <ele>3.1</ele>
        <time>2021-05-17T06:50:14Z</time>
      </trkpt>
      <trkpt lat="41.4495820" lon="-8.7753570">
        <ele>3.1</ele>
        <time>2021-05-17T06:50:15Z</time>
      </trkpt>
      <trkpt lat="41.4495990" lon="-8.7753610">
        <ele>3.1</ele>
        <time>2021-05-17T06:50:16Z</time>
      </trkpt>
      <trkpt lat="41.4496160" lon="-8.7753580">
        <ele>3.1</ele>
        <time>2021-05-17T06:50:17Z</time>
      </trkpt>
      <trkpt lat="41.4496310" lon="-8.7753570">
        <ele>3.1</ele>
        <time>2021-05-17T06:50:18Z</time>
      </trkpt>
      <trkpt lat="41.4496470" lon="-8.7753530">
        <ele>3.1</ele>
        <time>2021-05-17T06:50:19Z</time>
      </trkpt>
      <trkpt lat="41.4496630" lon="-8.7753550">
        <ele>3.1</ele>
        <time>2021-05-17T06:50:20Z</time>
      </trkpt>
      <trkpt lat="41.4496770" lon="-8.7753500">
        <ele>3.1</ele>
        <time>2021-05-17T06:50:21Z</time>
      </trkpt>
      <trkpt lat="41.4496920" lon="-8.7753520">
        <ele>3.1</ele>
        <time>2021-05-17T06:50:22Z</time>
      </trkpt>
      <trkpt lat="41.4497080" lon="-8.7753540">
        <ele>3.1</ele>
        <time>2021-05-17T06:50:23Z</time>
      </trkpt>
      <trkpt lat="41.4497240" lon="-8.7753470">
        <ele>3.2</ele>
        <time>2021-05-17T06:50:24Z</time>
      </trkpt>
      <trkpt lat="41.4497380" lon="-8.7753490">
        <ele>3.2</ele>
        <time>2021-05-17T06:50:25Z</time>
      </trkpt>
      <trkpt lat="41.4497520" lon="-8.7753470">
        <ele>3.2</ele>
        <time>2021-05-17T06:50:26Z</time>
      </trkpt>
      <trkpt lat="41.4497670" lon="-8.7753450">
        <ele>3.2</ele>
        <time>2021-05-17T06:50:27Z</time>
      </trkpt>
      <trkpt lat="41.4497820" lon="-8.7753380">
        <ele>3.2</ele>
        <time>2021-05-17T06:50:28Z</time>
      </trkpt>
      <trkpt lat="41.4497970" lon="-8.7753360">
        <ele>3.2</ele>
        <time>2021-05-17T06:50:29Z</time>
      </trkpt>
      <trkpt lat="41.4498110" lon="-8.7753310">
        <ele>3.2</ele>
        <time>2021-05-17T06:50:30Z</time>
      </trkpt>
      <trkpt lat="41.4498270" lon="-8.7753310">
        <ele>3.2</ele>
        <time>2021-05-17T06:50:31Z</time>
      </trkpt>
      <trkpt lat="41.4498420" lon="-8.7753320">
        <ele>3.2</ele>
        <time>2021-05-17T06:50:32Z</time>
      </trkpt>
      <trkpt lat="41.4498600" lon="-8.7753300">
        <ele>3.2</ele>
        <time>2021-05-17T06:50:33Z</time>
      </trkpt>
      <trkpt lat="41.4498750" lon="-8.7753290">
        <ele>3.2</ele>
        <time>2021-05-17T06:50:34Z</time>
      </trkpt>
      <trkpt lat="41.4498890" lon="-8.7753270">
        <ele>3.2</ele>
        <time>2021-05-17T06:50:35Z</time>
      </trkpt>
      <trkpt lat="41.4499020" lon="-8.7753250">
        <ele>3.2</ele>
        <time>2021-05-17T06:50:36Z</time>
      </trkpt>
      <trkpt lat="41.4499160" lon="-8.7753250">
        <ele>3.2</ele>
        <time>2021-05-17T06:50:37Z</time>
      </trkpt>
      <trkpt lat="41.4499320" lon="-8.7753210">
        <ele>3.3</ele>
        <time>2021-05-17T06:50:38Z</time>
      </trkpt>
      <trkpt lat="41.4499470" lon="-8.7753210">
        <ele>3.3</ele>
        <time>2021-05-17T06:50:39Z</time>
      </trkpt>
      <trkpt lat="41.4499630" lon="-8.7753210">
        <ele>3.3</ele>
        <time>2021-05-17T06:50:40Z</time>
      </trkpt>
      <trkpt lat="41.4499770" lon="-8.7753200">
        <ele>3.3</ele>
        <time>2021-05-17T06:50:41Z</time>
      </trkpt>
      <trkpt lat="41.4499910" lon="-8.7753190">
        <ele>3.3</ele>
        <time>2021-05-17T06:50:42Z</time>
      </trkpt>
      <trkpt lat="41.4500050" lon="-8.7753140">
        <ele>3.3</ele>
        <time>2021-05-17T06:50:43Z</time>
      </trkpt>
      <trkpt lat="41.4500190" lon="-8.7753080">
        <ele>3.3</ele>
        <time>2021-05-17T06:50:44Z</time>
      </trkpt>
      <trkpt lat="41.4500330" lon="-8.7753090">
        <ele>3.3</ele>
        <time>2021-05-17T06:50:45Z</time>
      </trkpt>
      <trkpt lat="41.4500460" lon="-8.7753150">
        <ele>3.3</ele>
        <time>2021-05-17T06:50:46Z</time>
      </trkpt>
      <trkpt lat="41.4500790" lon="-8.7753110">
        <ele>3.3</ele>
        <time>2021-05-17T06:50:48Z</time>
      </trkpt>
      <trkpt lat="41.4500860" lon="-8.7753130">
        <ele>3.3</ele>
        <time>2021-05-17T06:50:49Z</time>
      </trkpt>
      <trkpt lat="41.4501010" lon="-8.7753150">
        <ele>3.3</ele>
        <time>2021-05-17T06:50:50Z</time>
      </trkpt>
      <trkpt lat="41.4501160" lon="-8.7753050">
        <ele>3.3</ele>
        <time>2021-05-17T06:50:51Z</time>
      </trkpt>
      <trkpt lat="41.4501330" lon="-8.7753020">
        <ele>3.3</ele>
        <time>2021-05-17T06:50:52Z</time>
      </trkpt>
      <trkpt lat="41.4501480" lon="-8.7753060">
        <ele>3.3</ele>
        <time>2021-05-17T06:50:53Z</time>
      </trkpt>
      <trkpt lat="41.4501630" lon="-8.7753020">
        <ele>3.3</ele>
        <time>2021-05-17T06:50:54Z</time>
      </trkpt>
      <trkpt lat="41.4501750" lon="-8.7753040">
        <ele>3.3</ele>
        <time>2021-05-17T06:50:55Z</time>
      </trkpt>
      <trkpt lat="41.4502030" lon="-8.7752950">
        <ele>3.4</ele>
        <time>2021-05-17T06:50:57Z</time>
      </trkpt>
      <trkpt lat="41.4502170" lon="-8.7752860">
        <ele>3.4</ele>
        <time>2021-05-17T06:50:58Z</time>
      </trkpt>
      <trkpt lat="41.4502320" lon="-8.7752880">
        <ele>3.4</ele>
        <time>2021-05-17T06:50:59Z</time>
      </trkpt>
      <trkpt lat="41.4502520" lon="-8.7752880">
        <ele>3.4</ele>
        <time>2021-05-17T06:51:01Z</time>
      </trkpt>
      <trkpt lat="41.4502600" lon="-8.7752880">
        <ele>3.4</ele>
        <time>2021-05-17T06:51:02Z</time>
      </trkpt>
      <trkpt lat="41.4502690" lon="-8.7752870">
        <ele>3.4</ele>
        <time>2021-05-17T06:51:03Z</time>
      </trkpt>
      <trkpt lat="41.4502850" lon="-8.7752890">
        <ele>3.4</ele>
        <time>2021-05-17T06:51:04Z</time>
      </trkpt>
      <trkpt lat="41.4502990" lon="-8.7752870">
        <ele>3.4</ele>
        <time>2021-05-17T06:51:05Z</time>
      </trkpt>
      <trkpt lat="41.4503120" lon="-8.7752860">
        <ele>3.4</ele>
        <time>2021-05-17T06:51:06Z</time>
      </trkpt>
      <trkpt lat="41.4503280" lon="-8.7752830">
        <ele>3.4</ele>
        <time>2021-05-17T06:51:07Z</time>
      </trkpt>
      <trkpt lat="41.4503410" lon="-8.7752850">
        <ele>3.4</ele>
        <time>2021-05-17T06:51:08Z</time>
      </trkpt>
      <trkpt lat="41.4503560" lon="-8.7752810">
        <ele>3.4</ele>
        <time>2021-05-17T06:51:09Z</time>
      </trkpt>
      <trkpt lat="41.4503720" lon="-8.7752790">
        <ele>3.4</ele>
        <time>2021-05-17T06:51:10Z</time>
      </trkpt>
      <trkpt lat="41.4503890" lon="-8.7752780">
        <ele>3.4</ele>
        <time>2021-05-17T06:51:11Z</time>
      </trkpt>
      <trkpt lat="41.4504040" lon="-8.7752720">
        <ele>3.4</ele>
        <time>2021-05-17T06:51:12Z</time>
      </trkpt>
      <trkpt lat="41.4504160" lon="-8.7752690">
        <ele>3.4</ele>
        <time>2021-05-17T06:51:13Z</time>
      </trkpt>
      <trkpt lat="41.4504360" lon="-8.7752650">
        <ele>3.4</ele>
        <time>2021-05-17T06:51:14Z</time>
      </trkpt>
      <trkpt lat="41.4504440" lon="-8.7752640">
        <ele>3.4</ele>
        <time>2021-05-17T06:51:15Z</time>
      </trkpt>
      <trkpt lat="41.4504530" lon="-8.7752620">
        <ele>3.4</ele>
        <time>2021-05-17T06:51:16Z</time>
      </trkpt>
      <trkpt lat="41.4504650" lon="-8.7752630">
        <ele>3.4</ele>
        <time>2021-05-17T06:51:17Z</time>
      </trkpt>
      <trkpt lat="41.4504770" lon="-8.7752620">
        <ele>3.5</ele>
        <time>2021-05-17T06:51:18Z</time>
      </trkpt>
      <trkpt lat="41.4504890" lon="-8.7752550">
        <ele>3.5</ele>
        <time>2021-05-17T06:51:19Z</time>
      </trkpt>
      <trkpt lat="41.4505030" lon="-8.7752550">
        <ele>3.5</ele>
        <time>2021-05-17T06:51:20Z</time>
      </trkpt>
      <trkpt lat="41.4505170" lon="-8.7752520">
        <ele>3.5</ele>
        <time>2021-05-17T06:51:21Z</time>
      </trkpt>
      <trkpt lat="41.4505370" lon="-8.7752500">
        <ele>3.5</ele>
        <time>2021-05-17T06:51:22Z</time>
      </trkpt>
      <trkpt lat="41.4505450" lon="-8.7752480">
        <ele>3.5</ele>
        <time>2021-05-17T06:51:23Z</time>
      </trkpt>
      <trkpt lat="41.4505540" lon="-8.7752450">
        <ele>3.5</ele>
        <time>2021-05-17T06:51:24Z</time>
      </trkpt>
      <trkpt lat="41.4505660" lon="-8.7752400">
        <ele>3.5</ele>
        <time>2021-05-17T06:51:25Z</time>
      </trkpt>
      <trkpt lat="41.4505730" lon="-8.7752380">
        <ele>3.5</ele>
        <time>2021-05-17T06:51:26Z</time>
      </trkpt>
      <trkpt lat="41.4505810" lon="-8.7752350">
        <ele>3.5</ele>
        <time>2021-05-17T06:51:27Z</time>
      </trkpt>
      <trkpt lat="41.4505880" lon="-8.7752330">
        <ele>3.5</ele>
        <time>2021-05-17T06:51:28Z</time>
      </trkpt>
      <trkpt lat="41.4505980" lon="-8.7752300">
        <ele>3.5</ele>
        <time>2021-05-17T06:51:29Z</time>
      </trkpt>
      <trkpt lat="41.4506110" lon="-8.7752250">
        <ele>3.5</ele>
        <time>2021-05-17T06:51:30Z</time>
      </trkpt>
      <trkpt lat="41.4506220" lon="-8.7752250">
        <ele>3.5</ele>
        <time>2021-05-17T06:51:31Z</time>
      </trkpt>
      <trkpt lat="41.4506300" lon="-8.7752230">
        <ele>3.5</ele>
        <time>2021-05-17T06:51:32Z</time>
      </trkpt>
      <trkpt lat="41.4506400" lon="-8.7752190">
        <ele>3.5</ele>
        <time>2021-05-17T06:51:33Z</time>
      </trkpt>
      <trkpt lat="41.4506510" lon="-8.7752190">
        <ele>3.6</ele>
        <time>2021-05-17T06:51:34Z</time>
      </trkpt>
      <trkpt lat="41.4506630" lon="-8.7752150">
        <ele>3.6</ele>
        <time>2021-05-17T06:51:35Z</time>
      </trkpt>
      <trkpt lat="41.4506760" lon="-8.7752120">
        <ele>3.6</ele>
        <time>2021-05-17T06:51:36Z</time>
      </trkpt>
      <trkpt lat="41.4506860" lon="-8.7752110">
        <ele>3.6</ele>
        <time>2021-05-17T06:51:37Z</time>
      </trkpt>
      <trkpt lat="41.4506970" lon="-8.7752090">
        <ele>3.6</ele>
        <time>2021-05-17T06:51:38Z</time>
      </trkpt>
      <trkpt lat="41.4507070" lon="-8.7752090">
        <ele>3.6</ele>
        <time>2021-05-17T06:51:39Z</time>
      </trkpt>
      <trkpt lat="41.4507200" lon="-8.7752050">
        <ele>3.6</ele>
        <time>2021-05-17T06:51:40Z</time>
      </trkpt>
      <trkpt lat="41.4507280" lon="-8.7751990">
        <ele>3.6</ele>
        <time>2021-05-17T06:51:41Z</time>
      </trkpt>
      <trkpt lat="41.4507400" lon="-8.7751990">
        <ele>3.6</ele>
        <time>2021-05-17T06:51:42Z</time>
      </trkpt>
      <trkpt lat="41.4507510" lon="-8.7751940">
        <ele>3.6</ele>
        <time>2021-05-17T06:51:43Z</time>
      </trkpt>
      <trkpt lat="41.4507730" lon="-8.7751950">
        <ele>3.6</ele>
        <time>2021-05-17T06:51:44Z</time>
      </trkpt>
      <trkpt lat="41.4507800" lon="-8.7751960">
        <ele>3.6</ele>
        <time>2021-05-17T06:51:45Z</time>
      </trkpt>
      <trkpt lat="41.4507880" lon="-8.7751960">
        <ele>3.7</ele>
        <time>2021-05-17T06:51:46Z</time>
      </trkpt>
      <trkpt lat="41.4508100" lon="-8.7751920">
        <ele>3.7</ele>
        <time>2021-05-17T06:51:47Z</time>
      </trkpt>
      <trkpt lat="41.4508190" lon="-8.7751910">
        <ele>3.7</ele>
        <time>2021-05-17T06:51:48Z</time>
      </trkpt>
      <trkpt lat="41.4508270" lon="-8.7751890">
        <ele>3.7</ele>
        <time>2021-05-17T06:51:49Z</time>
      </trkpt>
      <trkpt lat="41.4508470" lon="-8.7751870">
        <ele>3.7</ele>
        <time>2021-05-17T06:51:50Z</time>
      </trkpt>
      <trkpt lat="41.4508570" lon="-8.7751860">
        <ele>3.7</ele>
        <time>2021-05-17T06:51:51Z</time>
      </trkpt>
      <trkpt lat="41.4508660" lon="-8.7751840">
        <ele>3.7</ele>
        <time>2021-05-17T06:51:52Z</time>
      </trkpt>
      <trkpt lat="41.4508880" lon="-8.7751810">
        <ele>3.7</ele>
        <time>2021-05-17T06:51:53Z</time>
      </trkpt>
      <trkpt lat="41.4508970" lon="-8.7751800">
        <ele>3.7</ele>
        <time>2021-05-17T06:51:54Z</time>
      </trkpt>
      <trkpt lat="41.4509060" lon="-8.7751790">
        <ele>3.7</ele>
        <time>2021-05-17T06:51:55Z</time>
      </trkpt>
      <trkpt lat="41.4509180" lon="-8.7751750">
        <ele>3.7</ele>
        <time>2021-05-17T06:51:56Z</time>
      </trkpt>
      <trkpt lat="41.4509260" lon="-8.7751680">
        <ele>3.7</ele>
        <time>2021-05-17T06:51:57Z</time>
      </trkpt>
      <trkpt lat="41.4509380" lon="-8.7751630">
        <ele>3.7</ele>
        <time>2021-05-17T06:51:58Z</time>
      </trkpt>
      <trkpt lat="41.4509500" lon="-8.7751620">
        <ele>3.7</ele>
        <time>2021-05-17T06:51:59Z</time>
      </trkpt>
      <trkpt lat="41.4509700" lon="-8.7751550">
        <ele>3.7</ele>
        <time>2021-05-17T06:52:00Z</time>
      </trkpt>
      <trkpt lat="41.4509810" lon="-8.7751660">
        <ele>3.7</ele>
        <time>2021-05-17T06:52:01Z</time>
      </trkpt>
      <trkpt lat="41.4509900" lon="-8.7751670">
        <ele>3.7</ele>
        <time>2021-05-17T06:52:02Z</time>
      </trkpt>
      <trkpt lat="41.4510030" lon="-8.7751690">
        <ele>3.7</ele>
        <time>2021-05-17T06:52:03Z</time>
      </trkpt>
      <trkpt lat="41.4510200" lon="-8.7751710">
        <ele>3.7</ele>
        <time>2021-05-17T06:52:04Z</time>
      </trkpt>
      <trkpt lat="41.4510360" lon="-8.7751720">
        <ele>3.7</ele>
        <time>2021-05-17T06:52:05Z</time>
      </trkpt>
      <trkpt lat="41.4510520" lon="-8.7751770">
        <ele>3.8</ele>
        <time>2021-05-17T06:52:06Z</time>
      </trkpt>
      <trkpt lat="41.4510670" lon="-8.7751770">
        <ele>3.8</ele>
        <time>2021-05-17T06:52:07Z</time>
      </trkpt>
      <trkpt lat="41.4510810" lon="-8.7751790">
        <ele>3.8</ele>
        <time>2021-05-17T06:52:08Z</time>
      </trkpt>
      <trkpt lat="41.4510980" lon="-8.7751860">
        <ele>3.8</ele>
        <time>2021-05-17T06:52:09Z</time>
      </trkpt>
      <trkpt lat="41.4511290" lon="-8.7751880">
        <ele>3.8</ele>
        <time>2021-05-17T06:52:10Z</time>
      </trkpt>
      <trkpt lat="41.4511460" lon="-8.7751920">
        <ele>3.8</ele>
        <time>2021-05-17T06:52:11Z</time>
      </trkpt>
      <trkpt lat="41.4511620" lon="-8.7751940">
        <ele>3.9</ele>
        <time>2021-05-17T06:52:12Z</time>
      </trkpt>
      <trkpt lat="41.4511770" lon="-8.7751990">
        <ele>3.9</ele>
        <time>2021-05-17T06:52:13Z</time>
      </trkpt>
      <trkpt lat="41.4511940" lon="-8.7752060">
        <ele>3.9</ele>
        <time>2021-05-17T06:52:14Z</time>
      </trkpt>
      <trkpt lat="41.4512090" lon="-8.7752100">
        <ele>3.9</ele>
        <time>2021-05-17T06:52:15Z</time>
      </trkpt>
      <trkpt lat="41.4512250" lon="-8.7752150">
        <ele>3.9</ele>
        <time>2021-05-17T06:52:16Z</time>
      </trkpt>
      <trkpt lat="41.4512420" lon="-8.7752180">
        <ele>4.0</ele>
        <time>2021-05-17T06:52:17Z</time>
      </trkpt>
      <trkpt lat="41.4512580" lon="-8.7752100">
        <ele>4.0</ele>
        <time>2021-05-17T06:52:18Z</time>
      </trkpt>
      <trkpt lat="41.4512760" lon="-8.7752110">
        <ele>4.0</ele>
        <time>2021-05-17T06:52:19Z</time>
      </trkpt>
      <trkpt lat="41.4512900" lon="-8.7752150">
        <ele>4.0</ele>
        <time>2021-05-17T06:52:20Z</time>
      </trkpt>
      <trkpt lat="41.4513040" lon="-8.7752220">
        <ele>4.1</ele>
        <time>2021-05-17T06:52:21Z</time>
      </trkpt>
      <trkpt lat="41.4513210" lon="-8.7752230">
        <ele>4.1</ele>
        <time>2021-05-17T06:52:22Z</time>
      </trkpt>
      <trkpt lat="41.4513360" lon="-8.7752210">
        <ele>4.1</ele>
        <time>2021-05-17T06:52:23Z</time>
      </trkpt>
      <trkpt lat="41.4513530" lon="-8.7752210">
        <ele>4.1</ele>
        <time>2021-05-17T06:52:24Z</time>
      </trkpt>
      <trkpt lat="41.4513690" lon="-8.7752290">
        <ele>4.2</ele>
        <time>2021-05-17T06:52:25Z</time>
      </trkpt>
      <trkpt lat="41.4513850" lon="-8.7752280">
        <ele>4.2</ele>
        <time>2021-05-17T06:52:26Z</time>
      </trkpt>
      <trkpt lat="41.4513990" lon="-8.7752280">
        <ele>4.2</ele>
        <time>2021-05-17T06:52:27Z</time>
      </trkpt>
      <trkpt lat="41.4514160" lon="-8.7752280">
        <ele>4.2</ele>
        <time>2021-05-17T06:52:28Z</time>
      </trkpt>
      <trkpt lat="41.4514310" lon="-8.7752270">
        <ele>4.3</ele>
        <time>2021-05-17T06:52:29Z</time>
      </trkpt>
      <trkpt lat="41.4514460" lon="-8.7752330">
        <ele>4.3</ele>
        <time>2021-05-17T06:52:30Z</time>
      </trkpt>
      <trkpt lat="41.4514610" lon="-8.7752380">
        <ele>4.3</ele>
        <time>2021-05-17T06:52:31Z</time>
      </trkpt>
      <trkpt lat="41.4514760" lon="-8.7752390">
        <ele>4.3</ele>
        <time>2021-05-17T06:52:32Z</time>
      </trkpt>
      <trkpt lat="41.4514910" lon="-8.7752440">
        <ele>4.3</ele>
        <time>2021-05-17T06:52:33Z</time>
      </trkpt>
      <trkpt lat="41.4515070" lon="-8.7752480">
        <ele>4.4</ele>
        <time>2021-05-17T06:52:34Z</time>
      </trkpt>
      <trkpt lat="41.4515240" lon="-8.7752410">
        <ele>4.4</ele>
        <time>2021-05-17T06:52:35Z</time>
      </trkpt>
      <trkpt lat="41.4515400" lon="-8.7752470">
        <ele>4.4</ele>
        <time>2021-05-17T06:52:36Z</time>
      </trkpt>
      <trkpt lat="41.4515560" lon="-8.7752400">
        <ele>4.4</ele>
        <time>2021-05-17T06:52:37Z</time>
      </trkpt>
      <trkpt lat="41.4515710" lon="-8.7752480">
        <ele>4.5</ele>
        <time>2021-05-17T06:52:38Z</time>
      </trkpt>
      <trkpt lat="41.4515870" lon="-8.7752450">
        <ele>4.5</ele>
        <time>2021-05-17T06:52:39Z</time>
      </trkpt>
      <trkpt lat="41.4516010" lon="-8.7752540">
        <ele>4.5</ele>
        <time>2021-05-17T06:52:40Z</time>
      </trkpt>
      <trkpt lat="41.4516170" lon="-8.7752500">
        <ele>4.5</ele>
        <time>2021-05-17T06:52:41Z</time>
      </trkpt>
      <trkpt lat="41.4516310" lon="-8.7752550">
        <ele>4.5</ele>
        <time>2021-05-17T06:52:42Z</time>
      </trkpt>
      <trkpt lat="41.4516450" lon="-8.7752570">
        <ele>4.6</ele>
        <time>2021-05-17T06:52:43Z</time>
      </trkpt>
      <trkpt lat="41.4516590" lon="-8.7752570">
        <ele>4.6</ele>
        <time>2021-05-17T06:52:44Z</time>
      </trkpt>
      <trkpt lat="41.4516730" lon="-8.7752620">
        <ele>4.6</ele>
        <time>2021-05-17T06:52:45Z</time>
      </trkpt>
      <trkpt lat="41.4516870" lon="-8.7752720">
        <ele>4.6</ele>
        <time>2021-05-17T06:52:46Z</time>
      </trkpt>
      <trkpt lat="41.4517020" lon="-8.7752730">
        <ele>4.6</ele>
        <time>2021-05-17T06:52:47Z</time>
      </trkpt>
      <trkpt lat="41.4517160" lon="-8.7752770">
        <ele>4.7</ele>
        <time>2021-05-17T06:52:48Z</time>
      </trkpt>
      <trkpt lat="41.4517310" lon="-8.7752780">
        <ele>4.7</ele>
        <time>2021-05-17T06:52:49Z</time>
      </trkpt>
      <trkpt lat="41.4517450" lon="-8.7752810">
        <ele>4.7</ele>
        <time>2021-05-17T06:52:50Z</time>
      </trkpt>
      <trkpt lat="41.4517610" lon="-8.7752840">
        <ele>4.7</ele>
        <time>2021-05-17T06:52:51Z</time>
      </trkpt>
      <trkpt lat="41.4517760" lon="-8.7752890">
        <ele>4.7</ele>
        <time>2021-05-17T06:52:52Z</time>
      </trkpt>
      <trkpt lat="41.4517880" lon="-8.7752990">
        <ele>4.8</ele>
        <time>2021-05-17T06:52:53Z</time>
      </trkpt>
      <trkpt lat="41.4518040" lon="-8.7752980">
        <ele>4.8</ele>
        <time>2021-05-17T06:52:54Z</time>
      </trkpt>
      <trkpt lat="41.4518180" lon="-8.7752960">
        <ele>4.8</ele>
        <time>2021-05-17T06:52:55Z</time>
      </trkpt>
      <trkpt lat="41.4518350" lon="-8.7753010">
        <ele>4.9</ele>
        <time>2021-05-17T06:52:56Z</time>
      </trkpt>
      <trkpt lat="41.4518500" lon="-8.7752980">
        <ele>4.9</ele>
        <time>2021-05-17T06:52:57Z</time>
      </trkpt>
      <trkpt lat="41.4518640" lon="-8.7753040">
        <ele>4.9</ele>
        <time>2021-05-17T06:52:58Z</time>
      </trkpt>
      <trkpt lat="41.4518780" lon="-8.7753070">
        <ele>4.9</ele>
        <time>2021-05-17T06:52:59Z</time>
      </trkpt>
      <trkpt lat="41.4518940" lon="-8.7753190">
        <ele>5.0</ele>
        <time>2021-05-17T06:53:00Z</time>
      </trkpt>
      <trkpt lat="41.4519160" lon="-8.7753190">
        <ele>5.0</ele>
        <time>2021-05-17T06:53:01Z</time>
      </trkpt>
      <trkpt lat="41.4519240" lon="-8.7753190">
        <ele>5.1</ele>
        <time>2021-05-17T06:53:02Z</time>
      </trkpt>
      <trkpt lat="41.4519330" lon="-8.7753180">
        <ele>5.1</ele>
        <time>2021-05-17T06:53:03Z</time>
      </trkpt>
      <trkpt lat="41.4519450" lon="-8.7753220">
        <ele>5.1</ele>
        <time>2021-05-17T06:53:04Z</time>
      </trkpt>
      <trkpt lat="41.4519610" lon="-8.7753190">
        <ele>5.2</ele>
        <time>2021-05-17T06:53:05Z</time>
      </trkpt>
      <trkpt lat="41.4519750" lon="-8.7753230">
        <ele>5.2</ele>
        <time>2021-05-17T06:53:06Z</time>
      </trkpt>
      <trkpt lat="41.4519890" lon="-8.7753220">
        <ele>5.3</ele>
        <time>2021-05-17T06:53:07Z</time>
      </trkpt>
      <trkpt lat="41.4520020" lon="-8.7753240">
        <ele>5.3</ele>
        <time>2021-05-17T06:53:08Z</time>
      </trkpt>
      <trkpt lat="41.4520170" lon="-8.7753240">
        <ele>5.4</ele>
        <time>2021-05-17T06:53:09Z</time>
      </trkpt>
      <trkpt lat="41.4520310" lon="-8.7753250">
        <ele>5.5</ele>
        <time>2021-05-17T06:53:10Z</time>
      </trkpt>
      <trkpt lat="41.4520470" lon="-8.7753230">
        <ele>5.5</ele>
        <time>2021-05-17T06:53:11Z</time>
      </trkpt>
      <trkpt lat="41.4520600" lon="-8.7753340">
        <ele>5.6</ele>
        <time>2021-05-17T06:53:12Z</time>
      </trkpt>
      <trkpt lat="41.4520730" lon="-8.7753390">
        <ele>5.7</ele>
        <time>2021-05-17T06:53:13Z</time>
      </trkpt>
      <trkpt lat="41.4520860" lon="-8.7753440">
        <ele>5.7</ele>
        <time>2021-05-17T06:53:14Z</time>
      </trkpt>
      <trkpt lat="41.4521020" lon="-8.7753400">
        <ele>5.8</ele>
        <time>2021-05-17T06:53:15Z</time>
      </trkpt>
      <trkpt lat="41.4521190" lon="-8.7753390">
        <ele>5.9</ele>
        <time>2021-05-17T06:53:16Z</time>
      </trkpt>
      <trkpt lat="41.4521310" lon="-8.7753420">
        <ele>5.9</ele>
        <time>2021-05-17T06:53:17Z</time>
      </trkpt>
      <trkpt lat="41.4521450" lon="-8.7753430">
        <ele>6.0</ele>
        <time>2021-05-17T06:53:18Z</time>
      </trkpt>
      <trkpt lat="41.4521590" lon="-8.7753490">
        <ele>6.1</ele>
        <time>2021-05-17T06:53:19Z</time>
      </trkpt>
      <trkpt lat="41.4521790" lon="-8.7753490">
        <ele>6.2</ele>
        <time>2021-05-17T06:53:20Z</time>
      </trkpt>
      <trkpt lat="41.4521890" lon="-8.7753500">
        <ele>6.2</ele>
        <time>2021-05-17T06:53:21Z</time>
      </trkpt>
      <trkpt lat="41.4521990" lon="-8.7753500">
        <ele>6.3</ele>
        <time>2021-05-17T06:53:22Z</time>
      </trkpt>
      <trkpt lat="41.4522130" lon="-8.7753530">
        <ele>6.4</ele>
        <time>2021-05-17T06:53:23Z</time>
      </trkpt>
      <trkpt lat="41.4522290" lon="-8.7753510">
        <ele>6.4</ele>
        <time>2021-05-17T06:53:24Z</time>
      </trkpt>
      <trkpt lat="41.4522430" lon="-8.7753470">
        <ele>6.5</ele>
        <time>2021-05-17T06:53:25Z</time>
      </trkpt>
      <trkpt lat="41.4522580" lon="-8.7753500">
        <ele>6.6</ele>
        <time>2021-05-17T06:53:26Z</time>
      </trkpt>
      <trkpt lat="41.4522720" lon="-8.7753480">
        <ele>6.7</ele>
        <time>2021-05-17T06:53:27Z</time>
      </trkpt>
      <trkpt lat="41.4522860" lon="-8.7753470">
        <ele>6.7</ele>
        <time>2021-05-17T06:53:28Z</time>
      </trkpt>
      <trkpt lat="41.4523020" lon="-8.7753410">
        <ele>6.8</ele>
        <time>2021-05-17T06:53:29Z</time>
      </trkpt>
      <trkpt lat="41.4523160" lon="-8.7753450">
        <ele>6.9</ele>
        <time>2021-05-17T06:53:30Z</time>
      </trkpt>
      <trkpt lat="41.4523280" lon="-8.7753400">
        <ele>6.9</ele>
        <time>2021-05-17T06:53:31Z</time>
      </trkpt>
      <trkpt lat="41.4523420" lon="-8.7753280">
        <ele>7.0</ele>
        <time>2021-05-17T06:53:32Z</time>
      </trkpt>
      <trkpt lat="41.4523560" lon="-8.7753260">
        <ele>7.0</ele>
        <time>2021-05-17T06:53:33Z</time>
      </trkpt>
      <trkpt lat="41.4523690" lon="-8.7753250">
        <ele>7.1</ele>
        <time>2021-05-17T06:53:34Z</time>
      </trkpt>
      <trkpt lat="41.4523830" lon="-8.7753140">
        <ele>7.1</ele>
        <time>2021-05-17T06:53:35Z</time>
      </trkpt>
      <trkpt lat="41.4523970" lon="-8.7753020">
        <ele>7.2</ele>
        <time>2021-05-17T06:53:36Z</time>
      </trkpt>
      <trkpt lat="41.4524080" lon="-8.7752990">
        <ele>7.2</ele>
        <time>2021-05-17T06:53:37Z</time>
      </trkpt>
      <trkpt lat="41.4524220" lon="-8.7752870">
        <ele>7.2</ele>
        <time>2021-05-17T06:53:38Z</time>
      </trkpt>
      <trkpt lat="41.4524350" lon="-8.7752780">
        <ele>7.3</ele>
        <time>2021-05-17T06:53:39Z</time>
      </trkpt>
      <trkpt lat="41.4524480" lon="-8.7752670">
        <ele>7.3</ele>
        <time>2021-05-17T06:53:40Z</time>
      </trkpt>
      <trkpt lat="41.4524600" lon="-8.7752600">
        <ele>7.3</ele>
        <time>2021-05-17T06:53:41Z</time>
      </trkpt>
      <trkpt lat="41.4524740" lon="-8.7752520">
        <ele>7.4</ele>
        <time>2021-05-17T06:53:42Z</time>
      </trkpt>
      <trkpt lat="41.4524860" lon="-8.7752390">
        <ele>7.4</ele>
        <time>2021-05-17T06:53:43Z</time>
      </trkpt>
      <trkpt lat="41.4524990" lon="-8.7752370">
        <ele>7.4</ele>
        <time>2021-05-17T06:53:44Z</time>
      </trkpt>
      <trkpt lat="41.4525100" lon="-8.7752190">
        <ele>7.4</ele>
        <time>2021-05-17T06:53:45Z</time>
      </trkpt>
      <trkpt lat="41.4525260" lon="-8.7752220">
        <ele>7.5</ele>
        <time>2021-05-17T06:53:46Z</time>
      </trkpt>
      <trkpt lat="41.4525390" lon="-8.7752180">
        <ele>7.5</ele>
        <time>2021-05-17T06:53:47Z</time>
      </trkpt>
      <trkpt lat="41.4525520" lon="-8.7752070">
        <ele>7.5</ele>
        <time>2021-05-17T06:53:48Z</time>
      </trkpt>
      <trkpt lat="41.4525650" lon="-8.7751960">
        <ele>7.5</ele>
        <time>2021-05-17T06:53:49Z</time>
      </trkpt>
      <trkpt lat="41.4525770" lon="-8.7751870">
        <ele>7.5</ele>
        <time>2021-05-17T06:53:50Z</time>
      </trkpt>
      <trkpt lat="41.4525910" lon="-8.7751780">
        <ele>7.5</ele>
        <time>2021-05-17T06:53:51Z</time>
      </trkpt>
      <trkpt lat="41.4526020" lon="-8.7751670">
        <ele>7.5</ele>
        <time>2021-05-17T06:53:52Z</time>
      </trkpt>
      <trkpt lat="41.4526150" lon="-8.7751610">
        <ele>7.5</ele>
        <time>2021-05-17T06:53:53Z</time>
      </trkpt>
      <trkpt lat="41.4526280" lon="-8.7751460">
        <ele>7.6</ele>
        <time>2021-05-17T06:53:54Z</time>
      </trkpt>
      <trkpt lat="41.4526400" lon="-8.7751400">
        <ele>7.6</ele>
        <time>2021-05-17T06:53:55Z</time>
      </trkpt>
      <trkpt lat="41.4526520" lon="-8.7751290">
        <ele>7.6</ele>
        <time>2021-05-17T06:53:56Z</time>
      </trkpt>
      <trkpt lat="41.4526730" lon="-8.7751200">
        <ele>7.6</ele>
        <time>2021-05-17T06:53:57Z</time>
      </trkpt>
      <trkpt lat="41.4526810" lon="-8.7751180">
        <ele>7.6</ele>
        <time>2021-05-17T06:53:58Z</time>
      </trkpt>
      <trkpt lat="41.4526900" lon="-8.7751150">
        <ele>7.6</ele>
        <time>2021-05-17T06:53:59Z</time>
      </trkpt>
      <trkpt lat="41.4526990" lon="-8.7751040">
        <ele>7.6</ele>
        <time>2021-05-17T06:54:00Z</time>
      </trkpt>
      <trkpt lat="41.4527070" lon="-8.7751050">
        <ele>7.6</ele>
        <time>2021-05-17T06:54:01Z</time>
      </trkpt>
      <trkpt lat="41.4527170" lon="-8.7750930">
        <ele>7.6</ele>
        <time>2021-05-17T06:54:02Z</time>
      </trkpt>
      <trkpt lat="41.4527230" lon="-8.7750850">
        <ele>7.6</ele>
        <time>2021-05-17T06:54:03Z</time>
      </trkpt>
      <trkpt lat="41.4527350" lon="-8.7750710">
        <ele>7.6</ele>
        <time>2021-05-17T06:54:04Z</time>
      </trkpt>
      <trkpt lat="41.4527420" lon="-8.7750600">
        <ele>7.6</ele>
        <time>2021-05-17T06:54:05Z</time>
      </trkpt>
      <trkpt lat="41.4527540" lon="-8.7750570">
        <ele>7.5</ele>
        <time>2021-05-17T06:54:06Z</time>
      </trkpt>
      <trkpt lat="41.4527610" lon="-8.7750430">
        <ele>7.5</ele>
        <time>2021-05-17T06:54:07Z</time>
      </trkpt>
      <trkpt lat="41.4527720" lon="-8.7750380">
        <ele>7.5</ele>
        <time>2021-05-17T06:54:08Z</time>
      </trkpt>
      <trkpt lat="41.4527940" lon="-8.7750250">
        <ele>7.5</ele>
        <time>2021-05-17T06:54:09Z</time>
      </trkpt>
      <trkpt lat="41.4528000" lon="-8.7750220">
        <ele>7.5</ele>
        <time>2021-05-17T06:54:10Z</time>
      </trkpt>
      <trkpt lat="41.4528060" lon="-8.7750190">
        <ele>7.5</ele>
        <time>2021-05-17T06:54:11Z</time>
      </trkpt>
      <trkpt lat="41.4528150" lon="-8.7750170">
        <ele>7.5</ele>
        <time>2021-05-17T06:54:12Z</time>
      </trkpt>
      <trkpt lat="41.4528360" lon="-8.7750110">
        <ele>7.5</ele>
        <time>2021-05-17T06:54:13Z</time>
      </trkpt>
      <trkpt lat="41.4528660" lon="-8.7750040">
        <ele>7.5</ele>
        <time>2021-05-17T06:54:15Z</time>
      </trkpt>
      <trkpt lat="41.4528810" lon="-8.7750080">
        <ele>7.5</ele>
        <time>2021-05-17T06:54:16Z</time>
      </trkpt>
      <trkpt lat="41.4528980" lon="-8.7750020">
        <ele>7.5</ele>
        <time>2021-05-17T06:54:17Z</time>
      </trkpt>
      <trkpt lat="41.4529130" lon="-8.7749970">
        <ele>7.5</ele>
        <time>2021-05-17T06:54:18Z</time>
      </trkpt>
      <trkpt lat="41.4529300" lon="-8.7749900">
        <ele>7.5</ele>
        <time>2021-05-17T06:54:19Z</time>
      </trkpt>
      <trkpt lat="41.4529460" lon="-8.7749920">
        <ele>7.5</ele>
        <time>2021-05-17T06:54:20Z</time>
      </trkpt>
      <trkpt lat="41.4529640" lon="-8.7749930">
        <ele>7.5</ele>
        <time>2021-05-17T06:54:21Z</time>
      </trkpt>
      <trkpt lat="41.4529790" lon="-8.7749820">
        <ele>7.5</ele>
        <time>2021-05-17T06:54:22Z</time>
      </trkpt>
      <trkpt lat="41.4529930" lon="-8.7749810">
        <ele>7.4</ele>
        <time>2021-05-17T06:54:23Z</time>
      </trkpt>
      <trkpt lat="41.4530100" lon="-8.7749800">
        <ele>7.4</ele>
        <time>2021-05-17T06:54:24Z</time>
      </trkpt>
      <trkpt lat="41.4530270" lon="-8.7749810">
        <ele>7.4</ele>
        <time>2021-05-17T06:54:25Z</time>
      </trkpt>
      <trkpt lat="41.4530420" lon="-8.7749780">
        <ele>7.4</ele>
        <time>2021-05-17T06:54:26Z</time>
      </trkpt>
      <trkpt lat="41.4530570" lon="-8.7749840">
        <ele>7.4</ele>
        <time>2021-05-17T06:54:27Z</time>
      </trkpt>
      <trkpt lat="41.4530700" lon="-8.7749690">
        <ele>7.4</ele>
        <time>2021-05-17T06:54:28Z</time>
      </trkpt>
      <trkpt lat="41.4530850" lon="-8.7749670">
        <ele>7.4</ele>
        <time>2021-05-17T06:54:29Z</time>
      </trkpt>
      <trkpt lat="41.4531000" lon="-8.7749610">
        <ele>7.3</ele>
        <time>2021-05-17T06:54:30Z</time>
      </trkpt>
      <trkpt lat="41.4531150" lon="-8.7749600">
        <ele>7.3</ele>
        <time>2021-05-17T06:54:31Z</time>
      </trkpt>
      <trkpt lat="41.4531290" lon="-8.7749490">
        <ele>7.3</ele>
        <time>2021-05-17T06:54:32Z</time>
      </trkpt>
      <trkpt lat="41.4531430" lon="-8.7749450">
        <ele>7.3</ele>
        <time>2021-05-17T06:54:33Z</time>
      </trkpt>
      <trkpt lat="41.4531580" lon="-8.7749480">
        <ele>7.2</ele>
        <time>2021-05-17T06:54:34Z</time>
      </trkpt>
      <trkpt lat="41.4531700" lon="-8.7749450">
        <ele>7.2</ele>
        <time>2021-05-17T06:54:35Z</time>
      </trkpt>
      <trkpt lat="41.4531860" lon="-8.7749410">
        <ele>7.2</ele>
        <time>2021-05-17T06:54:36Z</time>
      </trkpt>
      <trkpt lat="41.4532010" lon="-8.7749410">
        <ele>7.2</ele>
        <time>2021-05-17T06:54:37Z</time>
      </trkpt>
      <trkpt lat="41.4532150" lon="-8.7749430">
        <ele>7.2</ele>
        <time>2021-05-17T06:54:38Z</time>
      </trkpt>
      <trkpt lat="41.4532260" lon="-8.7749520">
        <ele>7.1</ele>
        <time>2021-05-17T06:54:39Z</time>
      </trkpt>
      <trkpt lat="41.4532470" lon="-8.7749440">
        <ele>7.1</ele>
        <time>2021-05-17T06:54:40Z</time>
      </trkpt>
      <trkpt lat="41.4532530" lon="-8.7749360">
        <ele>7.1</ele>
        <time>2021-05-17T06:54:41Z</time>
      </trkpt>
      <trkpt lat="41.4532600" lon="-8.7749290">
        <ele>7.1</ele>
        <time>2021-05-17T06:54:42Z</time>
      </trkpt>
      <trkpt lat="41.4532670" lon="-8.7749230">
        <ele>7.0</ele>
        <time>2021-05-17T06:54:43Z</time>
      </trkpt>
      <trkpt lat="41.4532790" lon="-8.7749140">
        <ele>7.0</ele>
        <time>2021-05-17T06:54:44Z</time>
      </trkpt>
      <trkpt lat="41.4532900" lon="-8.7749140">
        <ele>7.0</ele>
        <time>2021-05-17T06:54:45Z</time>
      </trkpt>
      <trkpt lat="41.4533100" lon="-8.7749080">
        <ele>7.0</ele>
        <time>2021-05-17T06:54:46Z</time>
      </trkpt>
      <trkpt lat="41.4533200" lon="-8.7749080">
        <ele>6.9</ele>
        <time>2021-05-17T06:54:47Z</time>
      </trkpt>
      <trkpt lat="41.4533290" lon="-8.7749070">
        <ele>6.9</ele>
        <time>2021-05-17T06:54:48Z</time>
      </trkpt>
      <trkpt lat="41.4533400" lon="-8.7749020">
        <ele>6.9</ele>
        <time>2021-05-17T06:54:49Z</time>
      </trkpt>
      <trkpt lat="41.4533470" lon="-8.7748950">
        <ele>6.9</ele>
        <time>2021-05-17T06:54:50Z</time>
      </trkpt>
      <trkpt lat="41.4533560" lon="-8.7748880">
        <ele>6.8</ele>
        <time>2021-05-17T06:54:51Z</time>
      </trkpt>
      <trkpt lat="41.4533810" lon="-8.7748650">
        <ele>6.7</ele>
        <time>2021-05-17T06:54:52Z</time>
      </trkpt>
      <trkpt lat="41.4533870" lon="-8.7748600">
        <ele>6.7</ele>
        <time>2021-05-17T06:54:53Z</time>
      </trkpt>
      <trkpt lat="41.4534000" lon="-8.7748500">
        <ele>6.7</ele>
        <time>2021-05-17T06:54:54Z</time>
      </trkpt>
      <trkpt lat="41.4534130" lon="-8.7748370">
        <ele>6.7</ele>
        <time>2021-05-17T06:54:55Z</time>
      </trkpt>
      <trkpt lat="41.4534240" lon="-8.7748250">
        <ele>6.7</ele>
        <time>2021-05-17T06:54:56Z</time>
      </trkpt>
      <trkpt lat="41.4534300" lon="-8.7748030">
        <ele>6.7</ele>
        <time>2021-05-17T06:54:57Z</time>
      </trkpt>
      <trkpt lat="41.4534400" lon="-8.7747860">
        <ele>6.7</ele>
        <time>2021-05-17T06:54:58Z</time>
      </trkpt>
      <trkpt lat="41.4534500" lon="-8.7747710">
        <ele>6.8</ele>
        <time>2021-05-17T06:54:59Z</time>
      </trkpt>
      <trkpt lat="41.4534620" lon="-8.7747620">
        <ele>6.8</ele>
        <time>2021-05-17T06:55:00Z</time>
      </trkpt>
      <trkpt lat="41.4534640" lon="-8.7747480">
        <ele>6.8</ele>
        <time>2021-05-17T06:55:01Z</time>
      </trkpt>
      <trkpt lat="41.4534690" lon="-8.7747420">
        <ele>6.8</ele>
        <time>2021-05-17T06:55:02Z</time>
      </trkpt>
      <trkpt lat="41.4534830" lon="-8.7747420">
        <ele>6.8</ele>
        <time>2021-05-17T06:55:03Z</time>
      </trkpt>
      <trkpt lat="41.4534980" lon="-8.7747460">
        <ele>6.9</ele>
        <time>2021-05-17T06:55:04Z</time>
      </trkpt>
      <trkpt lat="41.4535090" lon="-8.7747440">
        <ele>6.9</ele>
        <time>2021-05-17T06:55:05Z</time>
      </trkpt>
      <trkpt lat="41.4535260" lon="-8.7747430">
        <ele>6.9</ele>
        <time>2021-05-17T06:55:06Z</time>
      </trkpt>
      <trkpt lat="41.4535380" lon="-8.7747470">
        <ele>6.9</ele>
        <time>2021-05-17T06:55:07Z</time>
      </trkpt>
      <trkpt lat="41.4535530" lon="-8.7747470">
        <ele>6.9</ele>
        <time>2021-05-17T06:55:08Z</time>
      </trkpt>
      <trkpt lat="41.4535660" lon="-8.7747410">
        <ele>6.9</ele>
        <time>2021-05-17T06:55:09Z</time>
      </trkpt>
      <trkpt lat="41.4535800" lon="-8.7747400">
        <ele>6.9</ele>
        <time>2021-05-17T06:55:10Z</time>
      </trkpt>
      <trkpt lat="41.4536020" lon="-8.7747480">
        <ele>7.0</ele>
        <time>2021-05-17T06:55:11Z</time>
      </trkpt>
      <trkpt lat="41.4536090" lon="-8.7747510">
        <ele>7.0</ele>
        <time>2021-05-17T06:55:12Z</time>
      </trkpt>
      <trkpt lat="41.4536170" lon="-8.7747550">
        <ele>7.0</ele>
        <time>2021-05-17T06:55:13Z</time>
      </trkpt>
      <trkpt lat="41.4536320" lon="-8.7747630">
        <ele>7.0</ele>
        <time>2021-05-17T06:55:14Z</time>
      </trkpt>
      <trkpt lat="41.4536410" lon="-8.7747690">
        <ele>7.0</ele>
        <time>2021-05-17T06:55:15Z</time>
      </trkpt>
      <trkpt lat="41.4536510" lon="-8.7747740">
        <ele>7.0</ele>
        <time>2021-05-17T06:55:16Z</time>
      </trkpt>
      <trkpt lat="41.4536700" lon="-8.7747830">
        <ele>7.0</ele>
        <time>2021-05-17T06:55:17Z</time>
      </trkpt>
      <trkpt lat="41.4536820" lon="-8.7747870">
        <ele>7.1</ele>
        <time>2021-05-17T06:55:18Z</time>
      </trkpt>
      <trkpt lat="41.4537110" lon="-8.7747990">
        <ele>7.1</ele>
        <time>2021-05-17T06:55:19Z</time>
      </trkpt>
      <trkpt lat="41.4537170" lon="-8.7748050">
        <ele>7.1</ele>
        <time>2021-05-17T06:55:20Z</time>
      </trkpt>
      <trkpt lat="41.4537340" lon="-8.7748140">
        <ele>7.1</ele>
        <time>2021-05-17T06:55:21Z</time>
      </trkpt>
      <trkpt lat="41.4537500" lon="-8.7748160">
        <ele>7.1</ele>
        <time>2021-05-17T06:55:22Z</time>
      </trkpt>
      <trkpt lat="41.4537660" lon="-8.7748220">
        <ele>7.2</ele>
        <time>2021-05-17T06:55:23Z</time>
      </trkpt>
      <trkpt lat="41.4537820" lon="-8.7748270">
        <ele>7.2</ele>
        <time>2021-05-17T06:55:24Z</time>
      </trkpt>
      <trkpt lat="41.4537970" lon="-8.7748340">
        <ele>7.2</ele>
        <time>2021-05-17T06:55:25Z</time>
      </trkpt>
      <trkpt lat="41.4538120" lon="-8.7748390">
        <ele>7.2</ele>
        <time>2021-05-17T06:55:26Z</time>
      </trkpt>
      <trkpt lat="41.4538260" lon="-8.7748420">
        <ele>7.2</ele>
        <time>2021-05-17T06:55:27Z</time>
      </trkpt>
      <trkpt lat="41.4538440" lon="-8.7748470">
        <ele>7.2</ele>
        <time>2021-05-17T06:55:28Z</time>
      </trkpt>
      <trkpt lat="41.4538570" lon="-8.7748590">
        <ele>7.2</ele>
        <time>2021-05-17T06:55:29Z</time>
      </trkpt>
      <trkpt lat="41.4538720" lon="-8.7748640">
        <ele>7.2</ele>
        <time>2021-05-17T06:55:30Z</time>
      </trkpt>
      <trkpt lat="41.4538880" lon="-8.7748680">
        <ele>7.3</ele>
        <time>2021-05-17T06:55:31Z</time>
      </trkpt>
      <trkpt lat="41.4539020" lon="-8.7748760">
        <ele>7.3</ele>
        <time>2021-05-17T06:55:32Z</time>
      </trkpt>
      <trkpt lat="41.4539190" lon="-8.7748800">
        <ele>7.3</ele>
        <time>2021-05-17T06:55:33Z</time>
      </trkpt>
      <trkpt lat="41.4539340" lon="-8.7748790">
        <ele>7.3</ele>
        <time>2021-05-17T06:55:34Z</time>
      </trkpt>
      <trkpt lat="41.4539480" lon="-8.7748970">
        <ele>7.3</ele>
        <time>2021-05-17T06:55:35Z</time>
      </trkpt>
      <trkpt lat="41.4539630" lon="-8.7748960">
        <ele>7.3</ele>
        <time>2021-05-17T06:55:36Z</time>
      </trkpt>
      <trkpt lat="41.4539780" lon="-8.7748980">
        <ele>7.3</ele>
        <time>2021-05-17T06:55:37Z</time>
      </trkpt>
      <trkpt lat="41.4539930" lon="-8.7749050">
        <ele>7.3</ele>
        <time>2021-05-17T06:55:38Z</time>
      </trkpt>
      <trkpt lat="41.4540060" lon="-8.7749110">
        <ele>7.3</ele>
        <time>2021-05-17T06:55:39Z</time>
      </trkpt>
      <trkpt lat="41.4540190" lon="-8.7749210">
        <ele>7.3</ele>
        <time>2021-05-17T06:55:40Z</time>
      </trkpt>
      <trkpt lat="41.4540330" lon="-8.7749270">
        <ele>7.3</ele>
        <time>2021-05-17T06:55:41Z</time>
      </trkpt>
      <trkpt lat="41.4540450" lon="-8.7749370">
        <ele>7.4</ele>
        <time>2021-05-17T06:55:42Z</time>
      </trkpt>
      <trkpt lat="41.4540610" lon="-8.7749380">
        <ele>7.4</ele>
        <time>2021-05-17T06:55:43Z</time>
      </trkpt>
      <trkpt lat="41.4540730" lon="-8.7749470">
        <ele>7.4</ele>
        <time>2021-05-17T06:55:44Z</time>
      </trkpt>
      <trkpt lat="41.4540900" lon="-8.7749460">
        <ele>7.4</ele>
        <time>2021-05-17T06:55:45Z</time>
      </trkpt>
      <trkpt lat="41.4541040" lon="-8.7749520">
        <ele>7.4</ele>
        <time>2021-05-17T06:55:46Z</time>
      </trkpt>
      <trkpt lat="41.4541180" lon="-8.7749600">
        <ele>7.4</ele>
        <time>2021-05-17T06:55:47Z</time>
      </trkpt>
      <trkpt lat="41.4541330" lon="-8.7749630">
        <ele>7.4</ele>
        <time>2021-05-17T06:55:48Z</time>
      </trkpt>
      <trkpt lat="41.4541460" lon="-8.7749650">
        <ele>7.4</ele>
        <time>2021-05-17T06:55:49Z</time>
      </trkpt>
      <trkpt lat="41.4541600" lon="-8.7749710">
        <ele>7.4</ele>
        <time>2021-05-17T06:55:50Z</time>
      </trkpt>
      <trkpt lat="41.4541740" lon="-8.7749730">
        <ele>7.4</ele>
        <time>2021-05-17T06:55:51Z</time>
      </trkpt>
      <trkpt lat="41.4541870" lon="-8.7749830">
        <ele>7.4</ele>
        <time>2021-05-17T06:55:52Z</time>
      </trkpt>
      <trkpt lat="41.4542010" lon="-8.7749870">
        <ele>7.4</ele>
        <time>2021-05-17T06:55:53Z</time>
      </trkpt>
      <trkpt lat="41.4542150" lon="-8.7749900">
        <ele>7.4</ele>
        <time>2021-05-17T06:55:54Z</time>
      </trkpt>
      <trkpt lat="41.4542290" lon="-8.7749970">
        <ele>7.4</ele>
        <time>2021-05-17T06:55:55Z</time>
      </trkpt>
      <trkpt lat="41.4542430" lon="-8.7749950">
        <ele>7.4</ele>
        <time>2021-05-17T06:55:56Z</time>
      </trkpt>
      <trkpt lat="41.4542580" lon="-8.7750020">
        <ele>7.4</ele>
        <time>2021-05-17T06:55:57Z</time>
      </trkpt>
      <trkpt lat="41.4542720" lon="-8.7750060">
        <ele>7.4</ele>
        <time>2021-05-17T06:55:58Z</time>
      </trkpt>
      <trkpt lat="41.4542870" lon="-8.7750080">
        <ele>7.4</ele>
        <time>2021-05-17T06:55:59Z</time>
      </trkpt>
      <trkpt lat="41.4542980" lon="-8.7750200">
        <ele>7.4</ele>
        <time>2021-05-17T06:56:00Z</time>
      </trkpt>
      <trkpt lat="41.4543120" lon="-8.7750280">
        <ele>7.4</ele>
        <time>2021-05-17T06:56:01Z</time>
      </trkpt>
      <trkpt lat="41.4543260" lon="-8.7750360">
        <ele>7.4</ele>
        <time>2021-05-17T06:56:02Z</time>
      </trkpt>
      <trkpt lat="41.4543400" lon="-8.7750420">
        <ele>7.4</ele>
        <time>2021-05-17T06:56:03Z</time>
      </trkpt>
      <trkpt lat="41.4543520" lon="-8.7750480">
        <ele>7.4</ele>
        <time>2021-05-17T06:56:04Z</time>
      </trkpt>
      <trkpt lat="41.4543670" lon="-8.7750550">
        <ele>7.4</ele>
        <time>2021-05-17T06:56:05Z</time>
      </trkpt>
      <trkpt lat="41.4543780" lon="-8.7750640">
        <ele>7.4</ele>
        <time>2021-05-17T06:56:06Z</time>
      </trkpt>
      <trkpt lat="41.4543930" lon="-8.7750680">
        <ele>7.4</ele>
        <time>2021-05-17T06:56:07Z</time>
      </trkpt>
      <trkpt lat="41.4544080" lon="-8.7750710">
        <ele>7.4</ele>
        <time>2021-05-17T06:56:09Z</time>
      </trkpt>
      <trkpt lat="41.4544210" lon="-8.7750790">
        <ele>7.4</ele>
        <time>2021-05-17T06:56:10Z</time>
      </trkpt>
      <trkpt lat="41.4544350" lon="-8.7750830">
        <ele>7.4</ele>
        <time>2021-05-17T06:56:11Z</time>
      </trkpt>
      <trkpt lat="41.4544500" lon="-8.7750840">
        <ele>7.4</ele>
        <time>2021-05-17T06:56:12Z</time>
      </trkpt>
      <trkpt lat="41.4544610" lon="-8.7750980">
        <ele>7.4</ele>
        <time>2021-05-17T06:56:13Z</time>
      </trkpt>
      <trkpt lat="41.4544750" lon="-8.7751010">
        <ele>7.4</ele>
        <time>2021-05-17T06:56:14Z</time>
      </trkpt>
      <trkpt lat="41.4544890" lon="-8.7751030">
        <ele>7.4</ele>
        <time>2021-05-17T06:56:15Z</time>
      </trkpt>
      <trkpt lat="41.4545070" lon="-8.7751160">
        <ele>7.4</ele>
        <time>2021-05-17T06:56:16Z</time>
      </trkpt>
      <trkpt lat="41.4545170" lon="-8.7751140">
        <ele>7.4</ele>
        <time>2021-05-17T06:56:17Z</time>
      </trkpt>
      <trkpt lat="41.4545260" lon="-8.7751130">
        <ele>7.4</ele>
        <time>2021-05-17T06:56:18Z</time>
      </trkpt>
      <trkpt lat="41.4545390" lon="-8.7751240">
        <ele>7.4</ele>
        <time>2021-05-17T06:56:19Z</time>
      </trkpt>
      <trkpt lat="41.4545540" lon="-8.7751280">
        <ele>7.4</ele>
        <time>2021-05-17T06:56:20Z</time>
      </trkpt>
      <trkpt lat="41.4545660" lon="-8.7751360">
        <ele>7.4</ele>
        <time>2021-05-17T06:56:21Z</time>
      </trkpt>
      <trkpt lat="41.4545950" lon="-8.7751470">
        <ele>7.4</ele>
        <time>2021-05-17T06:56:22Z</time>
      </trkpt>
      <trkpt lat="41.4546090" lon="-8.7751540">
        <ele>7.4</ele>
        <time>2021-05-17T06:56:23Z</time>
      </trkpt>
      <trkpt lat="41.4546250" lon="-8.7751580">
        <ele>7.4</ele>
        <time>2021-05-17T06:56:24Z</time>
      </trkpt>
      <trkpt lat="41.4546390" lon="-8.7751620">
        <ele>7.4</ele>
        <time>2021-05-17T06:56:25Z</time>
      </trkpt>
      <trkpt lat="41.4546550" lon="-8.7751650">
        <ele>7.4</ele>
        <time>2021-05-17T06:56:26Z</time>
      </trkpt>
      <trkpt lat="41.4546680" lon="-8.7751730">
        <ele>7.4</ele>
        <time>2021-05-17T06:56:27Z</time>
      </trkpt>
      <trkpt lat="41.4546830" lon="-8.7751680">
        <ele>7.4</ele>
        <time>2021-05-17T06:56:28Z</time>
      </trkpt>
      <trkpt lat="41.4546950" lon="-8.7751710">
        <ele>7.4</ele>
        <time>2021-05-17T06:56:29Z</time>
      </trkpt>
      <trkpt lat="41.4547090" lon="-8.7751810">
        <ele>7.4</ele>
        <time>2021-05-17T06:56:30Z</time>
      </trkpt>
      <trkpt lat="41.4547220" lon="-8.7751960">
        <ele>7.4</ele>
        <time>2021-05-17T06:56:31Z</time>
      </trkpt>
      <trkpt lat="41.4547360" lon="-8.7752000">
        <ele>7.3</ele>
        <time>2021-05-17T06:56:32Z</time>
      </trkpt>
      <trkpt lat="41.4547520" lon="-8.7752010">
        <ele>7.3</ele>
        <time>2021-05-17T06:56:33Z</time>
      </trkpt>
      <trkpt lat="41.4547670" lon="-8.7752030">
        <ele>7.3</ele>
        <time>2021-05-17T06:56:34Z</time>
      </trkpt>
      <trkpt lat="41.4547820" lon="-8.7752060">
        <ele>7.3</ele>
        <time>2021-05-17T06:56:35Z</time>
      </trkpt>
      <trkpt lat="41.4547970" lon="-8.7752100">
        <ele>7.3</ele>
        <time>2021-05-17T06:56:36Z</time>
      </trkpt>
      <trkpt lat="41.4548090" lon="-8.7752180">
        <ele>7.3</ele>
        <time>2021-05-17T06:56:37Z</time>
      </trkpt>
      <trkpt lat="41.4548310" lon="-8.7752300">
        <ele>7.3</ele>
        <time>2021-05-17T06:56:38Z</time>
      </trkpt>
      <trkpt lat="41.4548390" lon="-8.7752350">
        <ele>7.3</ele>
        <time>2021-05-17T06:56:39Z</time>
      </trkpt>
      <trkpt lat="41.4548480" lon="-8.7752410">
        <ele>7.3</ele>
        <time>2021-05-17T06:56:40Z</time>
      </trkpt>
      <trkpt lat="41.4548610" lon="-8.7752500">
        <ele>7.3</ele>
        <time>2021-05-17T06:56:41Z</time>
      </trkpt>
      <trkpt lat="41.4548760" lon="-8.7752550">
        <ele>7.3</ele>
        <time>2021-05-17T06:56:42Z</time>
      </trkpt>
      <trkpt lat="41.4548900" lon="-8.7752600">
        <ele>7.3</ele>
        <time>2021-05-17T06:56:43Z</time>
      </trkpt>
      <trkpt lat="41.4549050" lon="-8.7752610">
        <ele>7.3</ele>
        <time>2021-05-17T06:56:44Z</time>
      </trkpt>
      <trkpt lat="41.4549280" lon="-8.7752700">
        <ele>7.3</ele>
        <time>2021-05-17T06:56:45Z</time>
      </trkpt>
      <trkpt lat="41.4549360" lon="-8.7752700">
        <ele>7.3</ele>
        <time>2021-05-17T06:56:46Z</time>
      </trkpt>
      <trkpt lat="41.4549450" lon="-8.7752710">
        <ele>7.3</ele>
        <time>2021-05-17T06:56:47Z</time>
      </trkpt>
      <trkpt lat="41.4549660" lon="-8.7752810">
        <ele>7.3</ele>
        <time>2021-05-17T06:56:48Z</time>
      </trkpt>
      <trkpt lat="41.4549740" lon="-8.7752840">
        <ele>7.3</ele>
        <time>2021-05-17T06:56:49Z</time>
      </trkpt>
      <trkpt lat="41.4549830" lon="-8.7752880">
        <ele>7.3</ele>
        <time>2021-05-17T06:56:50Z</time>
      </trkpt>
      <trkpt lat="41.4549970" lon="-8.7752890">
        <ele>7.3</ele>
        <time>2021-05-17T06:56:51Z</time>
      </trkpt>
      <trkpt lat="41.4550110" lon="-8.7752940">
        <ele>7.3</ele>
        <time>2021-05-17T06:56:52Z</time>
      </trkpt>
      <trkpt lat="41.4550260" lon="-8.7753010">
        <ele>7.3</ele>
        <time>2021-05-17T06:56:53Z</time>
      </trkpt>
      <trkpt lat="41.4550380" lon="-8.7753060">
        <ele>7.3</ele>
        <time>2021-05-17T06:56:54Z</time>
      </trkpt>
      <trkpt lat="41.4550510" lon="-8.7753040">
        <ele>7.3</ele>
        <time>2021-05-17T06:56:55Z</time>
      </trkpt>
      <trkpt lat="41.4550650" lon="-8.7753120">
        <ele>7.3</ele>
        <time>2021-05-17T06:56:56Z</time>
      </trkpt>
      <trkpt lat="41.4550860" lon="-8.7753170">
        <ele>7.3</ele>
        <time>2021-05-17T06:56:57Z</time>
      </trkpt>
      <trkpt lat="41.4550950" lon="-8.7753180">
        <ele>7.3</ele>
        <time>2021-05-17T06:56:58Z</time>
      </trkpt>
      <trkpt lat="41.4551040" lon="-8.7753200">
        <ele>7.3</ele>
        <time>2021-05-17T06:56:59Z</time>
      </trkpt>
      <trkpt lat="41.4551170" lon="-8.7753250">
        <ele>7.3</ele>
        <time>2021-05-17T06:57:00Z</time>
      </trkpt>
      <trkpt lat="41.4551310" lon="-8.7753330">
        <ele>7.3</ele>
        <time>2021-05-17T06:57:01Z</time>
      </trkpt>
      <trkpt lat="41.4551440" lon="-8.7753380">
        <ele>7.3</ele>
        <time>2021-05-17T06:57:02Z</time>
      </trkpt>
      <trkpt lat="41.4551590" lon="-8.7753470">
        <ele>7.3</ele>
        <time>2021-05-17T06:57:03Z</time>
      </trkpt>
      <trkpt lat="41.4551720" lon="-8.7753570">
        <ele>7.3</ele>
        <time>2021-05-17T06:57:04Z</time>
      </trkpt>
      <trkpt lat="41.4551850" lon="-8.7753640">
        <ele>7.3</ele>
        <time>2021-05-17T06:57:05Z</time>
      </trkpt>
      <trkpt lat="41.4551990" lon="-8.7753640">
        <ele>7.3</ele>
        <time>2021-05-17T06:57:07Z</time>
      </trkpt>
      <trkpt lat="41.4552150" lon="-8.7753670">
        <ele>7.3</ele>
        <time>2021-05-17T06:57:08Z</time>
      </trkpt>
      <trkpt lat="41.4552280" lon="-8.7753780">
        <ele>7.3</ele>
        <time>2021-05-17T06:57:09Z</time>
      </trkpt>
      <trkpt lat="41.4552420" lon="-8.7753760">
        <ele>7.3</ele>
        <time>2021-05-17T06:57:10Z</time>
      </trkpt>
      <trkpt lat="41.4552650" lon="-8.7753710">
        <ele>7.4</ele>
        <time>2021-05-17T06:57:11Z</time>
      </trkpt>
      <trkpt lat="41.4552730" lon="-8.7753700">
        <ele>7.3</ele>
        <time>2021-05-17T06:57:12Z</time>
      </trkpt>
      <trkpt lat="41.4552820" lon="-8.7753680">
        <ele>7.3</ele>
        <time>2021-05-17T06:57:13Z</time>
      </trkpt>
      <trkpt lat="41.4552960" lon="-8.7753490">
        <ele>7.3</ele>
        <time>2021-05-17T06:57:14Z</time>
      </trkpt>
      <trkpt lat="41.4552970" lon="-8.7753250">
        <ele>7.3</ele>
        <time>2021-05-17T06:57:15Z</time>
      </trkpt>
      <trkpt lat="41.4552790" lon="-8.7752830">
        <ele>7.2</ele>
        <time>2021-05-17T06:57:16Z</time>
      </trkpt>
      <trkpt lat="41.4552750" lon="-8.7752700">
        <ele>7.2</ele>
        <time>2021-05-17T06:57:17Z</time>
      </trkpt>
      <trkpt lat="41.4552640" lon="-8.7752360">
        <ele>7.2</ele>
        <time>2021-05-17T06:57:18Z</time>
      </trkpt>
      <trkpt lat="41.4552610" lon="-8.7752250">
        <ele>7.2</ele>
        <time>2021-05-17T06:57:19Z</time>
      </trkpt>
      <trkpt lat="41.4552490" lon="-8.7751910">
        <ele>7.2</ele>
        <time>2021-05-17T06:57:20Z</time>
      </trkpt>
      <trkpt lat="41.4552480" lon="-8.7751790">
        <ele>7.2</ele>
        <time>2021-05-17T06:57:21Z</time>
      </trkpt>
      <trkpt lat="41.4552430" lon="-8.7751570">
        <ele>7.1</ele>
        <time>2021-05-17T06:57:22Z</time>
      </trkpt>
      <trkpt lat="41.4552360" lon="-8.7751380">
        <ele>7.2</ele>
        <time>2021-05-17T06:57:23Z</time>
      </trkpt>
      <trkpt lat="41.4552290" lon="-8.7751200">
        <ele>7.2</ele>
        <time>2021-05-17T06:57:24Z</time>
      </trkpt>
      <trkpt lat="41.4552200" lon="-8.7750990">
        <ele>7.1</ele>
        <time>2021-05-17T06:57:25Z</time>
      </trkpt>
      <trkpt lat="41.4552100" lon="-8.7750800">
        <ele>7.1</ele>
        <time>2021-05-17T06:57:26Z</time>
      </trkpt>
      <trkpt lat="41.4552020" lon="-8.7750600">
        <ele>7.1</ele>
        <time>2021-05-17T06:57:27Z</time>
      </trkpt>
      <trkpt lat="41.4551970" lon="-8.7750390">
        <ele>7.1</ele>
        <time>2021-05-17T06:57:28Z</time>
      </trkpt>
      <trkpt lat="41.4551900" lon="-8.7750170">
        <ele>7.0</ele>
        <time>2021-05-17T06:57:29Z</time>
      </trkpt>
      <trkpt lat="41.4551830" lon="-8.7750000">
        <ele>7.0</ele>
        <time>2021-05-17T06:57:30Z</time>
      </trkpt>
      <trkpt lat="41.4551740" lon="-8.7749810">
        <ele>7.0</ele>
        <time>2021-05-17T06:57:31Z</time>
      </trkpt>
      <trkpt lat="41.4551700" lon="-8.7749610">
        <ele>7.0</ele>
        <time>2021-05-17T06:57:32Z</time>
      </trkpt>
      <trkpt lat="41.4551620" lon="-8.7749420">
        <ele>6.9</ele>
        <time>2021-05-17T06:57:33Z</time>
      </trkpt>
      <trkpt lat="41.4551550" lon="-8.7749210">
        <ele>7.0</ele>
        <time>2021-05-17T06:57:34Z</time>
      </trkpt>
      <trkpt lat="41.4551480" lon="-8.7749020">
        <ele>7.0</ele>
        <time>2021-05-17T06:57:35Z</time>
      </trkpt>
      <trkpt lat="41.4551400" lon="-8.7748820">
        <ele>6.9</ele>
        <time>2021-05-17T06:57:36Z</time>
      </trkpt>
      <trkpt lat="41.4551330" lon="-8.7748640">
        <ele>6.9</ele>
        <time>2021-05-17T06:57:37Z</time>
      </trkpt>
      <trkpt lat="41.4551220" lon="-8.7748480">
        <ele>6.9</ele>
        <time>2021-05-17T06:57:38Z</time>
      </trkpt>
      <trkpt lat="41.4551170" lon="-8.7748290">
        <ele>6.9</ele>
        <time>2021-05-17T06:57:39Z</time>
      </trkpt>
      <trkpt lat="41.4551130" lon="-8.7748070">
        <ele>6.8</ele>
        <time>2021-05-17T06:57:40Z</time>
      </trkpt>
      <trkpt lat="41.4551070" lon="-8.7747870">
        <ele>6.8</ele>
        <time>2021-05-17T06:57:41Z</time>
      </trkpt>
      <trkpt lat="41.4551010" lon="-8.7747670">
        <ele>6.8</ele>
        <time>2021-05-17T06:57:42Z</time>
      </trkpt>
      <trkpt lat="41.4550920" lon="-8.7747490">
        <ele>6.8</ele>
        <time>2021-05-17T06:57:43Z</time>
      </trkpt>
      <trkpt lat="41.4550830" lon="-8.7747340">
        <ele>6.8</ele>
        <time>2021-05-17T06:57:44Z</time>
      </trkpt>
      <trkpt lat="41.4550800" lon="-8.7747130">
        <ele>6.7</ele>
        <time>2021-05-17T06:57:45Z</time>
      </trkpt>
      <trkpt lat="41.4550780" lon="-8.7746920">
        <ele>6.8</ele>
        <time>2021-05-17T06:57:46Z</time>
      </trkpt>
      <trkpt lat="41.4550690" lon="-8.7746730">
        <ele>6.7</ele>
        <time>2021-05-17T06:57:47Z</time>
      </trkpt>
      <trkpt lat="41.4550640" lon="-8.7746560">
        <ele>6.7</ele>
        <time>2021-05-17T06:57:48Z</time>
      </trkpt>
      <trkpt lat="41.4550590" lon="-8.7746360">
        <ele>6.7</ele>
        <time>2021-05-17T06:57:49Z</time>
      </trkpt>
      <trkpt lat="41.4550530" lon="-8.7746210">
        <ele>6.7</ele>
        <time>2021-05-17T06:57:50Z</time>
      </trkpt>
      <trkpt lat="41.4550460" lon="-8.7746030">
        <ele>6.7</ele>
        <time>2021-05-17T06:57:51Z</time>
      </trkpt>
      <trkpt lat="41.4550340" lon="-8.7745860">
        <ele>6.7</ele>
        <time>2021-05-17T06:57:52Z</time>
      </trkpt>
      <trkpt lat="41.4550300" lon="-8.7745670">
        <ele>6.7</ele>
        <time>2021-05-17T06:57:53Z</time>
      </trkpt>
      <trkpt lat="41.4550240" lon="-8.7745460">
        <ele>6.6</ele>
        <time>2021-05-17T06:57:54Z</time>
      </trkpt>
      <trkpt lat="41.4550180" lon="-8.7745260">
        <ele>6.6</ele>
        <time>2021-05-17T06:57:55Z</time>
      </trkpt>
      <trkpt lat="41.4550050" lon="-8.7745100">
        <ele>6.6</ele>
        <time>2021-05-17T06:57:56Z</time>
      </trkpt>
      <trkpt lat="41.4549980" lon="-8.7744920">
        <ele>6.6</ele>
        <time>2021-05-17T06:57:57Z</time>
      </trkpt>
      <trkpt lat="41.4549930" lon="-8.7744750">
        <ele>6.6</ele>
        <time>2021-05-17T06:57:58Z</time>
      </trkpt>
      <trkpt lat="41.4549920" lon="-8.7744550">
        <ele>6.5</ele>
        <time>2021-05-17T06:57:59Z</time>
      </trkpt>
      <trkpt lat="41.4549830" lon="-8.7744380">
        <ele>6.5</ele>
        <time>2021-05-17T06:58:00Z</time>
      </trkpt>
      <trkpt lat="41.4549780" lon="-8.7744220">
        <ele>6.5</ele>
        <time>2021-05-17T06:58:01Z</time>
      </trkpt>
      <trkpt lat="41.4549720" lon="-8.7744010">
        <ele>6.5</ele>
        <time>2021-05-17T06:58:02Z</time>
      </trkpt>
      <trkpt lat="41.4549650" lon="-8.7743810">
        <ele>6.5</ele>
        <time>2021-05-17T06:58:03Z</time>
      </trkpt>
      <trkpt lat="41.4549590" lon="-8.7743600">
        <ele>6.5</ele>
        <time>2021-05-17T06:58:04Z</time>
      </trkpt>
      <trkpt lat="41.4549550" lon="-8.7743390">
        <ele>6.4</ele>
        <time>2021-05-17T06:58:05Z</time>
      </trkpt>
      <trkpt lat="41.4549490" lon="-8.7743200">
        <ele>6.5</ele>
        <time>2021-05-17T06:58:06Z</time>
      </trkpt>
      <trkpt lat="41.4549430" lon="-8.7743030">
        <ele>6.5</ele>
        <time>2021-05-17T06:58:07Z</time>
      </trkpt>
      <trkpt lat="41.4549380" lon="-8.7742850">
        <ele>6.4</ele>
        <time>2021-05-17T06:58:08Z</time>
      </trkpt>
      <trkpt lat="41.4549330" lon="-8.7742660">
        <ele>6.4</ele>
        <time>2021-05-17T06:58:09Z</time>
      </trkpt>
      <trkpt lat="41.4549250" lon="-8.7742470">
        <ele>6.4</ele>
        <time>2021-05-17T06:58:10Z</time>
      </trkpt>
      <trkpt lat="41.4549190" lon="-8.7742290">
        <ele>6.4</ele>
        <time>2021-05-17T06:58:11Z</time>
      </trkpt>
      <trkpt lat="41.4549150" lon="-8.7742120">
        <ele>6.4</ele>
        <time>2021-05-17T06:58:12Z</time>
      </trkpt>
      <trkpt lat="41.4549090" lon="-8.7741950">
        <ele>6.4</ele>
        <time>2021-05-17T06:58:13Z</time>
      </trkpt>
      <trkpt lat="41.4549000" lon="-8.7741790">
        <ele>6.4</ele>
        <time>2021-05-17T06:58:14Z</time>
      </trkpt>
      <trkpt lat="41.4548970" lon="-8.7741600">
        <ele>6.4</ele>
        <time>2021-05-17T06:58:15Z</time>
      </trkpt>
      <trkpt lat="41.4548920" lon="-8.7741400">
        <ele>6.4</ele>
        <time>2021-05-17T06:58:16Z</time>
      </trkpt>
      <trkpt lat="41.4548860" lon="-8.7741270">
        <ele>6.4</ele>
        <time>2021-05-17T06:58:17Z</time>
      </trkpt>
      <trkpt lat="41.4548860" lon="-8.7741140">
        <ele>6.4</ele>
        <time>2021-05-17T06:58:18Z</time>
      </trkpt>
      <trkpt lat="41.4548860" lon="-8.7741130">
        <ele>6.4</ele>
        <time>2021-05-17T06:58:19Z</time>
      </trkpt>
      <trkpt lat="41.4549000" lon="-8.7741330">
        <ele>6.4</ele>
        <time>2021-05-17T06:58:20Z</time>
      </trkpt>
      <trkpt lat="41.4549200" lon="-8.7741320">
        <ele>6.4</ele>
        <time>2021-05-17T06:58:21Z</time>
      </trkpt>
      <trkpt lat="41.4549520" lon="-8.7741250">
        <ele>6.3</ele>
        <time>2021-05-17T06:58:22Z</time>
      </trkpt>
      <trkpt lat="41.4549620" lon="-8.7741240">
        <ele>6.4</ele>
        <time>2021-05-17T06:58:23Z</time>
      </trkpt>
      <trkpt lat="41.4549770" lon="-8.7741180">
        <ele>6.4</ele>
        <time>2021-05-17T06:58:24Z</time>
      </trkpt>
      <trkpt lat="41.4549930" lon="-8.7741190">
        <ele>6.3</ele>
        <time>2021-05-17T06:58:25Z</time>
      </trkpt>
      <trkpt lat="41.4550090" lon="-8.7741170">
        <ele>6.3</ele>
        <time>2021-05-17T06:58:26Z</time>
      </trkpt>
      <trkpt lat="41.4550260" lon="-8.7741040">
        <ele>6.3</ele>
        <time>2021-05-17T06:58:27Z</time>
      </trkpt>
      <trkpt lat="41.4550540" lon="-8.7740990">
        <ele>6.3</ele>
        <time>2021-05-17T06:58:28Z</time>
      </trkpt>
      <trkpt lat="41.4550810" lon="-8.7741000">
        <ele>6.3</ele>
        <time>2021-05-17T06:58:29Z</time>
      </trkpt>
      <trkpt lat="41.4550910" lon="-8.7741000">
        <ele>6.3</ele>
        <time>2021-05-17T06:58:31Z</time>
      </trkpt>
      <trkpt lat="41.4551020" lon="-8.7741010">
        <ele>6.4</ele>
        <time>2021-05-17T06:58:32Z</time>
      </trkpt>
      <trkpt lat="41.4551120" lon="-8.7741010">
        <ele>6.4</ele>
        <time>2021-05-17T06:58:33Z</time>
      </trkpt>
      <trkpt lat="41.4551230" lon="-8.7741010">
        <ele>6.4</ele>
        <time>2021-05-17T06:58:34Z</time>
      </trkpt>
      <trkpt lat="41.4551320" lon="-8.7740930">
        <ele>6.4</ele>
        <time>2021-05-17T06:58:35Z</time>
      </trkpt>
      <trkpt lat="41.4551560" lon="-8.7740850">
        <ele>6.4</ele>
        <time>2021-05-17T06:58:36Z</time>
      </trkpt>
      <trkpt lat="41.4551720" lon="-8.7740760">
        <ele>6.4</ele>
        <time>2021-05-17T06:58:37Z</time>
      </trkpt>
      <trkpt lat="41.4551890" lon="-8.7740660">
        <ele>6.4</ele>
        <time>2021-05-17T06:58:38Z</time>
      </trkpt>
      <trkpt lat="41.4552040" lon="-8.7740600">
        <ele>6.4</ele>
        <time>2021-05-17T06:58:39Z</time>
      </trkpt>
      <trkpt lat="41.4552150" lon="-8.7740540">
        <ele>6.4</ele>
        <time>2021-05-17T06:58:40Z</time>
      </trkpt>
      <trkpt lat="41.4552270" lon="-8.7740430">
        <ele>6.4</ele>
        <time>2021-05-17T06:58:41Z</time>
      </trkpt>
      <trkpt lat="41.4552410" lon="-8.7740390">
        <ele>6.4</ele>
        <time>2021-05-17T06:58:42Z</time>
      </trkpt>
      <trkpt lat="41.4552550" lon="-8.7740360">
        <ele>6.4</ele>
        <time>2021-05-17T06:58:43Z</time>
      </trkpt>
      <trkpt lat="41.4552690" lon="-8.7740320">
        <ele>6.4</ele>
        <time>2021-05-17T06:58:44Z</time>
      </trkpt>
      <trkpt lat="41.4552830" lon="-8.7740230">
        <ele>6.4</ele>
        <time>2021-05-17T06:58:45Z</time>
      </trkpt>
      <trkpt lat="41.4552960" lon="-8.7740130">
        <ele>6.5</ele>
        <time>2021-05-17T06:58:46Z</time>
      </trkpt>
      <trkpt lat="41.4553080" lon="-8.7740060">
        <ele>6.5</ele>
        <time>2021-05-17T06:58:47Z</time>
      </trkpt>
      <trkpt lat="41.4553240" lon="-8.7740010">
        <ele>6.5</ele>
        <time>2021-05-17T06:58:48Z</time>
      </trkpt>
      <trkpt lat="41.4553390" lon="-8.7740010">
        <ele>6.5</ele>
        <time>2021-05-17T06:58:49Z</time>
      </trkpt>
      <trkpt lat="41.4553540" lon="-8.7739970">
        <ele>6.5</ele>
        <time>2021-05-17T06:58:50Z</time>
      </trkpt>
      <trkpt lat="41.4553690" lon="-8.7739940">
        <ele>6.5</ele>
        <time>2021-05-17T06:58:51Z</time>
      </trkpt>
      <trkpt lat="41.4553850" lon="-8.7739860">
        <ele>6.5</ele>
        <time>2021-05-17T06:58:52Z</time>
      </trkpt>
      <trkpt lat="41.4554150" lon="-8.7739760">
        <ele>6.5</ele>
        <time>2021-05-17T06:58:53Z</time>
      </trkpt>
      <trkpt lat="41.4554310" lon="-8.7739740">
        <ele>6.5</ele>
        <time>2021-05-17T06:58:54Z</time>
      </trkpt>
      <trkpt lat="41.4554460" lon="-8.7739730">
        <ele>6.5</ele>
        <time>2021-05-17T06:58:55Z</time>
      </trkpt>
      <trkpt lat="41.4554590" lon="-8.7739580">
        <ele>6.5</ele>
        <time>2021-05-17T06:58:56Z</time>
      </trkpt>
      <trkpt lat="41.4554730" lon="-8.7739500">
        <ele>6.5</ele>
        <time>2021-05-17T06:58:57Z</time>
      </trkpt>
      <trkpt lat="41.4554900" lon="-8.7739480">
        <ele>6.5</ele>
        <time>2021-05-17T06:58:58Z</time>
      </trkpt>
      <trkpt lat="41.4555050" lon="-8.7739470">
        <ele>6.5</ele>
        <time>2021-05-17T06:58:59Z</time>
      </trkpt>
      <trkpt lat="41.4555190" lon="-8.7739390">
        <ele>6.5</ele>
        <time>2021-05-17T06:59:00Z</time>
      </trkpt>
      <trkpt lat="41.4555330" lon="-8.7739320">
        <ele>6.5</ele>
        <time>2021-05-17T06:59:01Z</time>
      </trkpt>
      <trkpt lat="41.4555460" lon="-8.7739270">
        <ele>6.5</ele>
        <time>2021-05-17T06:59:02Z</time>
      </trkpt>
      <trkpt lat="41.4555730" lon="-8.7739110">
        <ele>6.5</ele>
        <time>2021-05-17T06:59:04Z</time>
      </trkpt>
      <trkpt lat="41.4555860" lon="-8.7739010">
        <ele>6.5</ele>
        <time>2021-05-17T06:59:05Z</time>
      </trkpt>
      <trkpt lat="41.4555980" lon="-8.7738960">
        <ele>6.5</ele>
        <time>2021-05-17T06:59:06Z</time>
      </trkpt>
      <trkpt lat="41.4556130" lon="-8.7738970">
        <ele>6.5</ele>
        <time>2021-05-17T06:59:07Z</time>
      </trkpt>
      <trkpt lat="41.4556370" lon="-8.7738880">
        <ele>6.4</ele>
        <time>2021-05-17T06:59:08Z</time>
      </trkpt>
      <trkpt lat="41.4556480" lon="-8.7738840">
        <ele>6.4</ele>
        <time>2021-05-17T06:59:10Z</time>
      </trkpt>
      <trkpt lat="41.4556580" lon="-8.7738810">
        <ele>6.4</ele>
        <time>2021-05-17T06:59:11Z</time>
      </trkpt>
      <trkpt lat="41.4556690" lon="-8.7738770">
        <ele>6.4</ele>
        <time>2021-05-17T06:59:12Z</time>
      </trkpt>
      <trkpt lat="41.4556790" lon="-8.7738730">
        <ele>6.4</ele>
        <time>2021-05-17T06:59:13Z</time>
      </trkpt>
      <trkpt lat="41.4556920" lon="-8.7738620">
        <ele>6.4</ele>
        <time>2021-05-17T06:59:14Z</time>
      </trkpt>
      <trkpt lat="41.4557040" lon="-8.7738570">
        <ele>6.4</ele>
        <time>2021-05-17T06:59:15Z</time>
      </trkpt>
      <trkpt lat="41.4557170" lon="-8.7738490">
        <ele>6.4</ele>
        <time>2021-05-17T06:59:16Z</time>
      </trkpt>
      <trkpt lat="41.4557330" lon="-8.7738460">
        <ele>6.3</ele>
        <time>2021-05-17T06:59:17Z</time>
      </trkpt>
      <trkpt lat="41.4557440" lon="-8.7738360">
        <ele>6.3</ele>
        <time>2021-05-17T06:59:18Z</time>
      </trkpt>
      <trkpt lat="41.4557610" lon="-8.7738270">
        <ele>6.3</ele>
        <time>2021-05-17T06:59:19Z</time>
      </trkpt>
      <trkpt lat="41.4557750" lon="-8.7738220">
        <ele>6.3</ele>
        <time>2021-05-17T06:59:20Z</time>
      </trkpt>
      <trkpt lat="41.4557910" lon="-8.7738160">
        <ele>6.3</ele>
        <time>2021-05-17T06:59:21Z</time>
      </trkpt>
      <trkpt lat="41.4558040" lon="-8.7738110">
        <ele>6.3</ele>
        <time>2021-05-17T06:59:22Z</time>
      </trkpt>
      <trkpt lat="41.4558180" lon="-8.7738020">
        <ele>6.2</ele>
        <time>2021-05-17T06:59:23Z</time>
      </trkpt>
      <trkpt lat="41.4558370" lon="-8.7737920">
        <ele>6.2</ele>
        <time>2021-05-17T06:59:24Z</time>
      </trkpt>
      <trkpt lat="41.4558450" lon="-8.7737890">
        <ele>6.2</ele>
        <time>2021-05-17T06:59:25Z</time>
      </trkpt>
      <trkpt lat="41.4558530" lon="-8.7737850">
        <ele>6.2</ele>
        <time>2021-05-17T06:59:26Z</time>
      </trkpt>
      <trkpt lat="41.4558660" lon="-8.7737800">
        <ele>6.2</ele>
        <time>2021-05-17T06:59:27Z</time>
      </trkpt>
      <trkpt lat="41.4558760" lon="-8.7737850">
        <ele>6.2</ele>
        <time>2021-05-17T06:59:28Z</time>
      </trkpt>
      <trkpt lat="41.4558870" lon="-8.7737760">
        <ele>6.2</ele>
        <time>2021-05-17T06:59:29Z</time>
      </trkpt>
      <trkpt lat="41.4558890" lon="-8.7737660">
        <ele>6.1</ele>
        <time>2021-05-17T06:59:30Z</time>
      </trkpt>
      <trkpt lat="41.4559010" lon="-8.7737620">
        <ele>6.1</ele>
        <time>2021-05-17T06:59:31Z</time>
      </trkpt>
      <trkpt lat="41.4559100" lon="-8.7737530">
        <ele>6.1</ele>
        <time>2021-05-17T06:59:32Z</time>
      </trkpt>
      <trkpt lat="41.4559290" lon="-8.7737440">
        <ele>6.1</ele>
        <time>2021-05-17T06:59:33Z</time>
      </trkpt>
      <trkpt lat="41.4559370" lon="-8.7737400">
        <ele>6.1</ele>
        <time>2021-05-17T06:59:34Z</time>
      </trkpt>
      <trkpt lat="41.4559460" lon="-8.7737350">
        <ele>6.1</ele>
        <time>2021-05-17T06:59:35Z</time>
      </trkpt>
      <trkpt lat="41.4559550" lon="-8.7737260">
        <ele>6.1</ele>
        <time>2021-05-17T06:59:36Z</time>
      </trkpt>
      <trkpt lat="41.4559660" lon="-8.7737190">
        <ele>6.1</ele>
        <time>2021-05-17T06:59:37Z</time>
      </trkpt>
      <trkpt lat="41.4559750" lon="-8.7737130">
        <ele>6.1</ele>
        <time>2021-05-17T06:59:38Z</time>
      </trkpt>
      <trkpt lat="41.4559940" lon="-8.7737020">
        <ele>6.1</ele>
        <time>2021-05-17T06:59:39Z</time>
      </trkpt>
      <trkpt lat="41.4560030" lon="-8.7736990">
        <ele>6.1</ele>
        <time>2021-05-17T06:59:40Z</time>
      </trkpt>
      <trkpt lat="41.4560120" lon="-8.7736960">
        <ele>6.1</ele>
        <time>2021-05-17T06:59:41Z</time>
      </trkpt>
      <trkpt lat="41.4560240" lon="-8.7736920">
        <ele>6.1</ele>
        <time>2021-05-17T06:59:42Z</time>
      </trkpt>
      <trkpt lat="41.4560380" lon="-8.7736860">
        <ele>6.1</ele>
        <time>2021-05-17T06:59:43Z</time>
      </trkpt>
      <trkpt lat="41.4560490" lon="-8.7736830">
        <ele>6.1</ele>
        <time>2021-05-17T06:59:44Z</time>
      </trkpt>
      <trkpt lat="41.4560640" lon="-8.7736760">
        <ele>6.1</ele>
        <time>2021-05-17T06:59:45Z</time>
      </trkpt>
      <trkpt lat="41.4560690" lon="-8.7736700">
        <ele>6.1</ele>
        <time>2021-05-17T06:59:46Z</time>
      </trkpt>
      <trkpt lat="41.4560830" lon="-8.7736660">
        <ele>6.1</ele>
        <time>2021-05-17T06:59:47Z</time>
      </trkpt>
      <trkpt lat="41.4560990" lon="-8.7736620">
        <ele>6.1</ele>
        <time>2021-05-17T06:59:48Z</time>
      </trkpt>
      <trkpt lat="41.4561140" lon="-8.7736620">
        <ele>6.1</ele>
        <time>2021-05-17T06:59:49Z</time>
      </trkpt>
      <trkpt lat="41.4561250" lon="-8.7736540">
        <ele>6.1</ele>
        <time>2021-05-17T06:59:50Z</time>
      </trkpt>
      <trkpt lat="41.4561370" lon="-8.7736500">
        <ele>6.1</ele>
        <time>2021-05-17T06:59:51Z</time>
      </trkpt>
      <trkpt lat="41.4561540" lon="-8.7736440">
        <ele>6.0</ele>
        <time>2021-05-17T06:59:52Z</time>
      </trkpt>
      <trkpt lat="41.4561680" lon="-8.7736390">
        <ele>6.0</ele>
        <time>2021-05-17T06:59:53Z</time>
      </trkpt>
      <trkpt lat="41.4561840" lon="-8.7736360">
        <ele>6.0</ele>
        <time>2021-05-17T06:59:54Z</time>
      </trkpt>
      <trkpt lat="41.4561970" lon="-8.7736290">
        <ele>6.0</ele>
        <time>2021-05-17T06:59:55Z</time>
      </trkpt>
      <trkpt lat="41.4562160" lon="-8.7736270">
        <ele>6.0</ele>
        <time>2021-05-17T06:59:56Z</time>
      </trkpt>
      <trkpt lat="41.4562320" lon="-8.7736260">
        <ele>6.0</ele>
        <time>2021-05-17T06:59:57Z</time>
      </trkpt>
      <trkpt lat="41.4562480" lon="-8.7736260">
        <ele>6.0</ele>
        <time>2021-05-17T06:59:58Z</time>
      </trkpt>
      <trkpt lat="41.4562640" lon="-8.7736230">
        <ele>6.0</ele>
        <time>2021-05-17T06:59:59Z</time>
      </trkpt>
      <trkpt lat="41.4562800" lon="-8.7736140">
        <ele>6.0</ele>
        <time>2021-05-17T07:00:00Z</time>
      </trkpt>
      <trkpt lat="41.4562940" lon="-8.7736090">
        <ele>6.0</ele>
        <time>2021-05-17T07:00:01Z</time>
      </trkpt>
      <trkpt lat="41.4563070" lon="-8.7736020">
        <ele>6.0</ele>
        <time>2021-05-17T07:00:02Z</time>
      </trkpt>
      <trkpt lat="41.4563230" lon="-8.7736010">
        <ele>6.0</ele>
        <time>2021-05-17T07:00:03Z</time>
      </trkpt>
      <trkpt lat="41.4563370" lon="-8.7736030">
        <ele>6.0</ele>
        <time>2021-05-17T07:00:04Z</time>
      </trkpt>
      <trkpt lat="41.4563550" lon="-8.7735970">
        <ele>6.0</ele>
        <time>2021-05-17T07:00:05Z</time>
      </trkpt>
      <trkpt lat="41.4563720" lon="-8.7735950">
        <ele>6.0</ele>
        <time>2021-05-17T07:00:06Z</time>
      </trkpt>
      <trkpt lat="41.4563880" lon="-8.7735940">
        <ele>6.0</ele>
        <time>2021-05-17T07:00:07Z</time>
      </trkpt>
      <trkpt lat="41.4564030" lon="-8.7735960">
        <ele>6.0</ele>
        <time>2021-05-17T07:00:08Z</time>
      </trkpt>
      <trkpt lat="41.4564190" lon="-8.7735820">
        <ele>6.0</ele>
        <time>2021-05-17T07:00:09Z</time>
      </trkpt>
      <trkpt lat="41.4564340" lon="-8.7735790">
        <ele>6.0</ele>
        <time>2021-05-17T07:00:10Z</time>
      </trkpt>
      <trkpt lat="41.4564500" lon="-8.7735850">
        <ele>6.0</ele>
        <time>2021-05-17T07:00:11Z</time>
      </trkpt>
      <trkpt lat="41.4564650" lon="-8.7735760">
        <ele>6.0</ele>
        <time>2021-05-17T07:00:12Z</time>
      </trkpt>
      <trkpt lat="41.4564810" lon="-8.7735740">
        <ele>6.0</ele>
        <time>2021-05-17T07:00:13Z</time>
      </trkpt>
      <trkpt lat="41.4564960" lon="-8.7735650">
        <ele>6.0</ele>
        <time>2021-05-17T07:00:14Z</time>
      </trkpt>
      <trkpt lat="41.4565080" lon="-8.7735560">
        <ele>6.0</ele>
        <time>2021-05-17T07:00:15Z</time>
      </trkpt>
      <trkpt lat="41.4565240" lon="-8.7735610">
        <ele>6.0</ele>
        <time>2021-05-17T07:00:16Z</time>
      </trkpt>
      <trkpt lat="41.4565370" lon="-8.7735590">
        <ele>6.0</ele>
        <time>2021-05-17T07:00:17Z</time>
      </trkpt>
      <trkpt lat="41.4565530" lon="-8.7735540">
        <ele>6.0</ele>
        <time>2021-05-17T07:00:18Z</time>
      </trkpt>
      <trkpt lat="41.4565660" lon="-8.7735500">
        <ele>6.0</ele>
        <time>2021-05-17T07:00:19Z</time>
      </trkpt>
      <trkpt lat="41.4565810" lon="-8.7735500">
        <ele>6.0</ele>
        <time>2021-05-17T07:00:20Z</time>
      </trkpt>
      <trkpt lat="41.4565960" lon="-8.7735460">
        <ele>5.9</ele>
        <time>2021-05-17T07:00:21Z</time>
      </trkpt>
      <trkpt lat="41.4566110" lon="-8.7735450">
        <ele>5.9</ele>
        <time>2021-05-17T07:00:22Z</time>
      </trkpt>
      <trkpt lat="41.4566250" lon="-8.7735410">
        <ele>5.9</ele>
        <time>2021-05-17T07:00:23Z</time>
      </trkpt>
      <trkpt lat="41.4566380" lon="-8.7735370">
        <ele>5.9</ele>
        <time>2021-05-17T07:00:24Z</time>
      </trkpt>
      <trkpt lat="41.4566540" lon="-8.7735410">
        <ele>5.9</ele>
        <time>2021-05-17T07:00:25Z</time>
      </trkpt>
      <trkpt lat="41.4566670" lon="-8.7735390">
        <ele>5.9</ele>
        <time>2021-05-17T07:00:26Z</time>
      </trkpt>
      <trkpt lat="41.4566830" lon="-8.7735410">
        <ele>5.9</ele>
        <time>2021-05-17T07:00:27Z</time>
      </trkpt>
      <trkpt lat="41.4566970" lon="-8.7735470">
        <ele>5.9</ele>
        <time>2021-05-17T07:00:28Z</time>
      </trkpt>
      <trkpt lat="41.4567180" lon="-8.7735390">
        <ele>5.9</ele>
        <time>2021-05-17T07:00:29Z</time>
      </trkpt>
      <trkpt lat="41.4567260" lon="-8.7735360">
        <ele>5.9</ele>
        <time>2021-05-17T07:00:30Z</time>
      </trkpt>
      <trkpt lat="41.4567350" lon="-8.7735340">
        <ele>5.9</ele>
        <time>2021-05-17T07:00:31Z</time>
      </trkpt>
      <trkpt lat="41.4567620" lon="-8.7735280">
        <ele>5.9</ele>
        <time>2021-05-17T07:00:32Z</time>
      </trkpt>
      <trkpt lat="41.4567740" lon="-8.7735250">
        <ele>5.9</ele>
        <time>2021-05-17T07:00:33Z</time>
      </trkpt>
      <trkpt lat="41.4567870" lon="-8.7735220">
        <ele>5.9</ele>
        <time>2021-05-17T07:00:34Z</time>
      </trkpt>
      <trkpt lat="41.4568010" lon="-8.7735140">
        <ele>5.9</ele>
        <time>2021-05-17T07:00:36Z</time>
      </trkpt>
      <trkpt lat="41.4568140" lon="-8.7735090">
        <ele>5.9</ele>
        <time>2021-05-17T07:00:37Z</time>
      </trkpt>
      <trkpt lat="41.4568280" lon="-8.7735050">
        <ele>5.9</ele>
        <time>2021-05-17T07:00:38Z</time>
      </trkpt>
      <trkpt lat="41.4568430" lon="-8.7735040">
        <ele>5.9</ele>
        <time>2021-05-17T07:00:39Z</time>
      </trkpt>
      <trkpt lat="41.4568570" lon="-8.7735030">
        <ele>5.9</ele>
        <time>2021-05-17T07:00:40Z</time>
      </trkpt>
      <trkpt lat="41.4568790" lon="-8.7735050">
        <ele>5.9</ele>
        <time>2021-05-17T07:00:41Z</time>
      </trkpt>
      <trkpt lat="41.4568880" lon="-8.7735040">
        <ele>5.9</ele>
        <time>2021-05-17T07:00:42Z</time>
      </trkpt>
      <trkpt lat="41.4568970" lon="-8.7735020">
        <ele>5.9</ele>
        <time>2021-05-17T07:00:43Z</time>
      </trkpt>
      <trkpt lat="41.4569190" lon="-8.7735000">
        <ele>5.9</ele>
        <time>2021-05-17T07:00:44Z</time>
      </trkpt>
      <trkpt lat="41.4569270" lon="-8.7734970">
        <ele>5.9</ele>
        <time>2021-05-17T07:00:45Z</time>
      </trkpt>
      <trkpt lat="41.4569350" lon="-8.7734950">
        <ele>5.9</ele>
        <time>2021-05-17T07:00:46Z</time>
      </trkpt>
      <trkpt lat="41.4569530" lon="-8.7734920">
        <ele>5.9</ele>
        <time>2021-05-17T07:00:47Z</time>
      </trkpt>
      <trkpt lat="41.4569620" lon="-8.7734910">
        <ele>5.9</ele>
        <time>2021-05-17T07:00:48Z</time>
      </trkpt>
      <trkpt lat="41.4569710" lon="-8.7734910">
        <ele>5.9</ele>
        <time>2021-05-17T07:00:49Z</time>
      </trkpt>
      <trkpt lat="41.4569860" lon="-8.7734890">
        <ele>5.9</ele>
        <time>2021-05-17T07:00:50Z</time>
      </trkpt>
      <trkpt lat="41.4570010" lon="-8.7734870">
        <ele>5.9</ele>
        <time>2021-05-17T07:00:51Z</time>
      </trkpt>
      <trkpt lat="41.4570170" lon="-8.7734830">
        <ele>5.9</ele>
        <time>2021-05-17T07:00:52Z</time>
      </trkpt>
      <trkpt lat="41.4570280" lon="-8.7734810">
        <ele>5.9</ele>
        <time>2021-05-17T07:00:53Z</time>
      </trkpt>
      <trkpt lat="41.4570510" lon="-8.7734820">
        <ele>5.9</ele>
        <time>2021-05-17T07:00:54Z</time>
      </trkpt>
      <trkpt lat="41.4570590" lon="-8.7734800">
        <ele>5.9</ele>
        <time>2021-05-17T07:00:55Z</time>
      </trkpt>
      <trkpt lat="41.4570680" lon="-8.7734770">
        <ele>5.9</ele>
        <time>2021-05-17T07:00:56Z</time>
      </trkpt>
      <trkpt lat="41.4570920" lon="-8.7734710">
        <ele>5.9</ele>
        <time>2021-05-17T07:00:57Z</time>
      </trkpt>
      <trkpt lat="41.4571010" lon="-8.7734680">
        <ele>5.9</ele>
        <time>2021-05-17T07:00:58Z</time>
      </trkpt>
      <trkpt lat="41.4571110" lon="-8.7734660">
        <ele>5.9</ele>
        <time>2021-05-17T07:00:59Z</time>
      </trkpt>
      <trkpt lat="41.4571250" lon="-8.7734650">
        <ele>5.9</ele>
        <time>2021-05-17T07:01:00Z</time>
      </trkpt>
      <trkpt lat="41.4571380" lon="-8.7734550">
        <ele>5.9</ele>
        <time>2021-05-17T07:01:01Z</time>
      </trkpt>
      <trkpt lat="41.4571510" lon="-8.7734570">
        <ele>5.9</ele>
        <time>2021-05-17T07:01:02Z</time>
      </trkpt>
      <trkpt lat="41.4571650" lon="-8.7734590">
        <ele>5.9</ele>
        <time>2021-05-17T07:01:03Z</time>
      </trkpt>
      <trkpt lat="41.4571810" lon="-8.7734570">
        <ele>5.9</ele>
        <time>2021-05-17T07:01:04Z</time>
      </trkpt>
      <trkpt lat="41.4571940" lon="-8.7734480">
        <ele>5.9</ele>
        <time>2021-05-17T07:01:05Z</time>
      </trkpt>
      <trkpt lat="41.4572080" lon="-8.7734380">
        <ele>5.8</ele>
        <time>2021-05-17T07:01:06Z</time>
      </trkpt>
      <trkpt lat="41.4572210" lon="-8.7734330">
        <ele>5.8</ele>
        <time>2021-05-17T07:01:07Z</time>
      </trkpt>
      <trkpt lat="41.4572370" lon="-8.7734400">
        <ele>5.8</ele>
        <time>2021-05-17T07:01:08Z</time>
      </trkpt>
      <trkpt lat="41.4572500" lon="-8.7734300">
        <ele>5.8</ele>
        <time>2021-05-17T07:01:09Z</time>
      </trkpt>
      <trkpt lat="41.4572700" lon="-8.7734250">
        <ele>5.8</ele>
        <time>2021-05-17T07:01:10Z</time>
      </trkpt>
      <trkpt lat="41.4572790" lon="-8.7734240">
        <ele>5.8</ele>
        <time>2021-05-17T07:01:11Z</time>
      </trkpt>
      <trkpt lat="41.4572870" lon="-8.7734220">
        <ele>5.8</ele>
        <time>2021-05-17T07:01:12Z</time>
      </trkpt>
      <trkpt lat="41.4573090" lon="-8.7734160">
        <ele>5.7</ele>
        <time>2021-05-17T07:01:13Z</time>
      </trkpt>
      <trkpt lat="41.4573180" lon="-8.7734180">
        <ele>5.7</ele>
        <time>2021-05-17T07:01:14Z</time>
      </trkpt>
      <trkpt lat="41.4573280" lon="-8.7734200">
        <ele>5.7</ele>
        <time>2021-05-17T07:01:15Z</time>
      </trkpt>
      <trkpt lat="41.4573490" lon="-8.7734130">
        <ele>5.7</ele>
        <time>2021-05-17T07:01:16Z</time>
      </trkpt>
      <trkpt lat="41.4573580" lon="-8.7734100">
        <ele>5.7</ele>
        <time>2021-05-17T07:01:17Z</time>
      </trkpt>
      <trkpt lat="41.4573660" lon="-8.7734060">
        <ele>5.7</ele>
        <time>2021-05-17T07:01:18Z</time>
      </trkpt>
      <trkpt lat="41.4573810" lon="-8.7734020">
        <ele>5.6</ele>
        <time>2021-05-17T07:01:19Z</time>
      </trkpt>
      <trkpt lat="41.4573940" lon="-8.7734000">
        <ele>5.6</ele>
        <time>2021-05-17T07:01:20Z</time>
      </trkpt>
      <trkpt lat="41.4574070" lon="-8.7733940">
        <ele>5.6</ele>
        <time>2021-05-17T07:01:21Z</time>
      </trkpt>
      <trkpt lat="41.4574160" lon="-8.7733900">
        <ele>5.6</ele>
        <time>2021-05-17T07:01:22Z</time>
      </trkpt>
      <trkpt lat="41.4574270" lon="-8.7733880">
        <ele>5.6</ele>
        <time>2021-05-17T07:01:23Z</time>
      </trkpt>
      <trkpt lat="41.4574350" lon="-8.7733870">
        <ele>5.6</ele>
        <time>2021-05-17T07:01:24Z</time>
      </trkpt>
      <trkpt lat="41.4574440" lon="-8.7733850">
        <ele>5.6</ele>
        <time>2021-05-17T07:01:25Z</time>
      </trkpt>
      <trkpt lat="41.4574520" lon="-8.7733820">
        <ele>5.5</ele>
        <time>2021-05-17T07:01:26Z</time>
      </trkpt>
      <trkpt lat="41.4574580" lon="-8.7733790">
        <ele>5.5</ele>
        <time>2021-05-17T07:01:27Z</time>
      </trkpt>
      <trkpt lat="41.4574550" lon="-8.7733750">
        <ele>5.5</ele>
        <time>2021-05-17T07:01:28Z</time>
      </trkpt>
      <trkpt lat="41.4574440" lon="-8.7733740">
        <ele>5.5</ele>
        <time>2021-05-17T07:01:29Z</time>
      </trkpt>
      <trkpt lat="41.4574420" lon="-8.7733720">
        <ele>5.5</ele>
        <time>2021-05-17T07:01:30Z</time>
      </trkpt>
      <trkpt lat="41.4574240" lon="-8.7733800">
        <ele>5.5</ele>
        <time>2021-05-17T07:01:31Z</time>
      </trkpt>
      <trkpt lat="41.4574190" lon="-8.7733790">
        <ele>5.5</ele>
        <time>2021-05-17T07:01:32Z</time>
      </trkpt>
      <trkpt lat="41.4574120" lon="-8.7733780">
        <ele>5.5</ele>
        <time>2021-05-17T07:01:33Z</time>
      </trkpt>
      <trkpt lat="41.4574070" lon="-8.7733770">
        <ele>5.5</ele>
        <time>2021-05-17T07:01:34Z</time>
      </trkpt>
      <trkpt lat="41.4574000" lon="-8.7733760">
        <ele>5.5</ele>
        <time>2021-05-17T07:01:35Z</time>
      </trkpt>
      <trkpt lat="41.4573940" lon="-8.7733750">
        <ele>5.5</ele>
        <time>2021-05-17T07:01:36Z</time>
      </trkpt>
      <trkpt lat="41.4573880" lon="-8.7733740">
        <ele>5.4</ele>
        <time>2021-05-17T07:01:37Z</time>
      </trkpt>
      <trkpt lat="41.4573700" lon="-8.7733790">
        <ele>5.4</ele>
        <time>2021-05-17T07:01:38Z</time>
      </trkpt>
      <trkpt lat="41.4573610" lon="-8.7733800">
        <ele>5.4</ele>
        <time>2021-05-17T07:01:39Z</time>
      </trkpt>
      <trkpt lat="41.4573540" lon="-8.7733820">
        <ele>5.4</ele>
        <time>2021-05-17T07:01:40Z</time>
      </trkpt>
      <trkpt lat="41.4573540" lon="-8.7733820">
        <ele>5.4</ele>
        <time>2021-05-17T07:01:41Z</time>
      </trkpt>
      <trkpt lat="41.4573530" lon="-8.7733820">
        <ele>5.4</ele>
        <time>2021-05-17T07:01:42Z</time>
      </trkpt>
      <trkpt lat="41.4573530" lon="-8.7733820">
        <ele>5.4</ele>
        <time>2021-05-17T07:01:43Z</time>
      </trkpt>
      <trkpt lat="41.4573530" lon="-8.7733820">
        <ele>5.4</ele>
        <time>2021-05-17T07:01:44Z</time>
      </trkpt>
      <trkpt lat="41.4573530" lon="-8.7733810">
        <ele>5.4</ele>
        <time>2021-05-17T07:01:45Z</time>
      </trkpt>
      <trkpt lat="41.4573530" lon="-8.7733810">
        <ele>5.4</ele>
        <time>2021-05-17T07:01:46Z</time>
      </trkpt>
      <trkpt lat="41.4573530" lon="-8.7733810">
        <ele>5.4</ele>
        <time>2021-05-17T07:01:47Z</time>
      </trkpt>
      <trkpt lat="41.4573520" lon="-8.7733810">
        <ele>5.4</ele>
        <time>2021-05-17T07:01:48Z</time>
      </trkpt>
      <trkpt lat="41.4573520" lon="-8.7733810">
        <ele>5.4</ele>
        <time>2021-05-17T07:01:49Z</time>
      </trkpt>
      <trkpt lat="41.4573520" lon="-8.7733810">
        <ele>5.4</ele>
        <time>2021-05-17T07:01:50Z</time>
      </trkpt>
      <trkpt lat="41.4573520" lon="-8.7733810">
        <ele>5.4</ele>
        <time>2021-05-17T07:01:51Z</time>
      </trkpt>
      <trkpt lat="41.4573520" lon="-8.7733810">
        <ele>5.4</ele>
        <time>2021-05-17T07:01:52Z</time>
      </trkpt>
      <trkpt lat="41.4573510" lon="-8.7733810">
        <ele>5.4</ele>
        <time>2021-05-17T07:01:53Z</time>
      </trkpt>
      <trkpt lat="41.4573510" lon="-8.7733810">
        <ele>5.4</ele>
        <time>2021-05-17T07:01:54Z</time>
      </trkpt>
      <trkpt lat="41.4573510" lon="-8.7733810">
        <ele>5.4</ele>
        <time>2021-05-17T07:01:55Z</time>
      </trkpt>
      <trkpt lat="41.4573510" lon="-8.7733800">
        <ele>5.4</ele>
        <time>2021-05-17T07:01:56Z</time>
      </trkpt>
      <trkpt lat="41.4573510" lon="-8.7733800">
        <ele>5.4</ele>
        <time>2021-05-17T07:01:57Z</time>
      </trkpt>
      <trkpt lat="41.4573510" lon="-8.7733800">
        <ele>5.4</ele>
        <time>2021-05-17T07:01:58Z</time>
      </trkpt>
      <trkpt lat="41.4573500" lon="-8.7733800">
        <ele>5.4</ele>
        <time>2021-05-17T07:01:59Z</time>
      </trkpt>
      <trkpt lat="41.4573500" lon="-8.7733800">
        <ele>5.4</ele>
        <time>2021-05-17T07:02:00Z</time>
      </trkpt>
      <trkpt lat="41.4573500" lon="-8.7733800">
        <ele>5.4</ele>
        <time>2021-05-17T07:02:01Z</time>
      </trkpt>
      <trkpt lat="41.4573500" lon="-8.7733800">
        <ele>5.4</ele>
        <time>2021-05-17T07:02:02Z</time>
      </trkpt>
      <trkpt lat="41.4573500" lon="-8.7733800">
        <ele>5.4</ele>
        <time>2021-05-17T07:02:03Z</time>
      </trkpt>
      <trkpt lat="41.4573500" lon="-8.7733800">
        <ele>5.4</ele>
        <time>2021-05-17T07:02:04Z</time>
      </trkpt>
      <trkpt lat="41.4573490" lon="-8.7733800">
        <ele>5.4</ele>
        <time>2021-05-17T07:02:05Z</time>
      </trkpt>
      <trkpt lat="41.4573490" lon="-8.7733800">
        <ele>5.4</ele>
        <time>2021-05-17T07:02:06Z</time>
      </trkpt>
      <trkpt lat="41.4573490" lon="-8.7733790">
        <ele>5.4</ele>
        <time>2021-05-17T07:02:07Z</time>
      </trkpt>
      <trkpt lat="41.4573490" lon="-8.7733790">
        <ele>5.4</ele>
        <time>2021-05-17T07:02:08Z</time>
      </trkpt>
      <trkpt lat="41.4573490" lon="-8.7733790">
        <ele>5.4</ele>
        <time>2021-05-17T07:02:09Z</time>
      </trkpt>
      <trkpt lat="41.4573480" lon="-8.7733790">
        <ele>5.4</ele>
        <time>2021-05-17T07:02:10Z</time>
      </trkpt>
      <trkpt lat="41.4573480" lon="-8.7733790">
        <ele>5.4</ele>
        <time>2021-05-17T07:02:11Z</time>
      </trkpt>
      <trkpt lat="41.4573480" lon="-8.7733790">
        <ele>5.4</ele>
        <time>2021-05-17T07:02:12Z</time>
      </trkpt>
      <trkpt lat="41.4573480" lon="-8.7733790">
        <ele>5.4</ele>
        <time>2021-05-17T07:02:13Z</time>
      </trkpt>
      <trkpt lat="41.4573480" lon="-8.7733790">
        <ele>5.4</ele>
        <time>2021-05-17T07:02:14Z</time>
      </trkpt>
      <trkpt lat="41.4573480" lon="-8.7733790">
        <ele>5.4</ele>
        <time>2021-05-17T07:02:15Z</time>
      </trkpt>
      <trkpt lat="41.4573470" lon="-8.7733790">
        <ele>5.4</ele>
        <time>2021-05-17T07:02:16Z</time>
      </trkpt>
      <trkpt lat="41.4573470" lon="-8.7733790">
        <ele>5.4</ele>
        <time>2021-05-17T07:02:17Z</time>
      </trkpt>
      <trkpt lat="41.4573470" lon="-8.7733780">
        <ele>5.4</ele>
        <time>2021-05-17T07:02:18Z</time>
      </trkpt>
      <trkpt lat="41.4573470" lon="-8.7733780">
        <ele>5.4</ele>
        <time>2021-05-17T07:02:19Z</time>
      </trkpt>
      <trkpt lat="41.4573470" lon="-8.7733780">
        <ele>5.4</ele>
        <time>2021-05-17T07:02:20Z</time>
      </trkpt>
      <trkpt lat="41.4573460" lon="-8.7733780">
        <ele>5.4</ele>
        <time>2021-05-17T07:02:21Z</time>
      </trkpt>
      <trkpt lat="41.4573460" lon="-8.7733780">
        <ele>5.4</ele>
        <time>2021-05-17T07:02:22Z</time>
      </trkpt>
      <trkpt lat="41.4573460" lon="-8.7733780">
        <ele>5.4</ele>
        <time>2021-05-17T07:02:23Z</time>
      </trkpt>
      <trkpt lat="41.4573460" lon="-8.7733780">
        <ele>5.4</ele>
        <time>2021-05-17T07:02:24Z</time>
      </trkpt>
      <trkpt lat="41.4573460" lon="-8.7733780">
        <ele>5.4</ele>
        <time>2021-05-17T07:02:25Z</time>
      </trkpt>
      <trkpt lat="41.4573460" lon="-8.7733780">
        <ele>5.4</ele>
        <time>2021-05-17T07:02:26Z</time>
      </trkpt>
      <trkpt lat="41.4573450" lon="-8.7733780">
        <ele>5.4</ele>
        <time>2021-05-17T07:02:27Z</time>
      </trkpt>
      <trkpt lat="41.4573450" lon="-8.7733780">
        <ele>5.4</ele>
        <time>2021-05-17T07:02:28Z</time>
      </trkpt>
      <trkpt lat="41.4573450" lon="-8.7733780">
        <ele>5.4</ele>
        <time>2021-05-17T07:02:29Z</time>
      </trkpt>
      <trkpt lat="41.4573450" lon="-8.7733770">
        <ele>5.4</ele>
        <time>2021-05-17T07:02:30Z</time>
      </trkpt>
      <trkpt lat="41.4573450" lon="-8.7733770">
        <ele>5.4</ele>
        <time>2021-05-17T07:02:31Z</time>
      </trkpt>
      <trkpt lat="41.4573440" lon="-8.7733770">
        <ele>5.4</ele>
        <time>2021-05-17T07:02:32Z</time>
      </trkpt>
      <trkpt lat="41.4573440" lon="-8.7733770">
        <ele>5.4</ele>
        <time>2021-05-17T07:02:33Z</time>
      </trkpt>
      <trkpt lat="41.4573440" lon="-8.7733770">
        <ele>5.4</ele>
        <time>2021-05-17T07:02:34Z</time>
      </trkpt>
      <trkpt lat="41.4573440" lon="-8.7733770">
        <ele>5.4</ele>
        <time>2021-05-17T07:02:35Z</time>
      </trkpt>
      <trkpt lat="41.4573440" lon="-8.7733770">
        <ele>5.4</ele>
        <time>2021-05-17T07:02:36Z</time>
      </trkpt>
      <trkpt lat="41.4573440" lon="-8.7733770">
        <ele>5.4</ele>
        <time>2021-05-17T07:02:37Z</time>
      </trkpt>
      <trkpt lat="41.4573430" lon="-8.7733770">
        <ele>5.4</ele>
        <time>2021-05-17T07:02:38Z</time>
      </trkpt>
      <trkpt lat="41.4573430" lon="-8.7733770">
        <ele>5.4</ele>
        <time>2021-05-17T07:02:39Z</time>
      </trkpt>
      <trkpt lat="41.4573430" lon="-8.7733770">
        <ele>5.4</ele>
        <time>2021-05-17T07:02:40Z</time>
      </trkpt>
      <trkpt lat="41.4573430" lon="-8.7733760">
        <ele>5.4</ele>
        <time>2021-05-17T07:02:41Z</time>
      </trkpt>
      <trkpt lat="41.4573430" lon="-8.7733760">
        <ele>5.4</ele>
        <time>2021-05-17T07:02:42Z</time>
      </trkpt>
      <trkpt lat="41.4573430" lon="-8.7733760">
        <ele>5.4</ele>
        <time>2021-05-17T07:02:43Z</time>
      </trkpt>
      <trkpt lat="41.4573420" lon="-8.7733760">
        <ele>5.4</ele>
        <time>2021-05-17T07:02:45Z</time>
      </trkpt>
      <trkpt lat="41.4573420" lon="-8.7733760">
        <ele>5.4</ele>
        <time>2021-05-17T07:02:46Z</time>
      </trkpt>
      <trkpt lat="41.4573420" lon="-8.7733760">
        <ele>5.4</ele>
        <time>2021-05-17T07:02:47Z</time>
      </trkpt>
      <trkpt lat="41.4573420" lon="-8.7733760">
        <ele>5.4</ele>
        <time>2021-05-17T07:02:48Z</time>
      </trkpt>
      <trkpt lat="41.4573420" lon="-8.7733760">
        <ele>5.4</ele>
        <time>2021-05-17T07:02:49Z</time>
      </trkpt>
      <trkpt lat="41.4573410" lon="-8.7733760">
        <ele>5.4</ele>
        <time>2021-05-17T07:02:50Z</time>
      </trkpt>
      <trkpt lat="41.4573410" lon="-8.7733760">
        <ele>5.4</ele>
        <time>2021-05-17T07:02:51Z</time>
      </trkpt>
      <trkpt lat="41.4573410" lon="-8.7733760">
        <ele>5.4</ele>
        <time>2021-05-17T07:02:52Z</time>
      </trkpt>
      <trkpt lat="41.4573410" lon="-8.7733750">
        <ele>5.4</ele>
        <time>2021-05-17T07:02:54Z</time>
      </trkpt>
      <trkpt lat="41.4573410" lon="-8.7733750">
        <ele>5.4</ele>
        <time>2021-05-17T07:02:55Z</time>
      </trkpt>
      <trkpt lat="41.4573410" lon="-8.7733750">
        <ele>5.4</ele>
        <time>2021-05-17T07:02:56Z</time>
      </trkpt>
      <trkpt lat="41.4573400" lon="-8.7733750">
        <ele>5.4</ele>
        <time>2021-05-17T07:02:57Z</time>
      </trkpt>
      <trkpt lat="41.4573400" lon="-8.7733750">
        <ele>5.4</ele>
        <time>2021-05-17T07:02:58Z</time>
      </trkpt>
      <trkpt lat="41.4573400" lon="-8.7733750">
        <ele>5.4</ele>
        <time>2021-05-17T07:02:59Z</time>
      </trkpt>
      <trkpt lat="41.4573400" lon="-8.7733750">
        <ele>5.4</ele>
        <time>2021-05-17T07:03:01Z</time>
      </trkpt>
      <trkpt lat="41.4573400" lon="-8.7733750">
        <ele>5.4</ele>
        <time>2021-05-17T07:03:02Z</time>
      </trkpt>
      <trkpt lat="41.4573390" lon="-8.7733750">
        <ele>5.4</ele>
        <time>2021-05-17T07:03:03Z</time>
      </trkpt>
      <trkpt lat="41.4573390" lon="-8.7733750">
        <ele>5.4</ele>
        <time>2021-05-17T07:03:04Z</time>
      </trkpt>
      <trkpt lat="41.4573390" lon="-8.7733750">
        <ele>5.4</ele>
        <time>2021-05-17T07:03:05Z</time>
      </trkpt>
      <trkpt lat="41.4573390" lon="-8.7733740">
        <ele>5.4</ele>
        <time>2021-05-17T07:03:06Z</time>
      </trkpt>
      <trkpt lat="41.4573390" lon="-8.7733740">
        <ele>5.4</ele>
        <time>2021-05-17T07:03:07Z</time>
      </trkpt>
      <trkpt lat="41.4573390" lon="-8.7733740">
        <ele>5.4</ele>
        <time>2021-05-17T07:03:08Z</time>
      </trkpt>
      <trkpt lat="41.4573380" lon="-8.7733740">
        <ele>5.4</ele>
        <time>2021-05-17T07:03:09Z</time>
      </trkpt>
      <trkpt lat="41.4573380" lon="-8.7733740">
        <ele>5.4</ele>
        <time>2021-05-17T07:03:10Z</time>
      </trkpt>
      <trkpt lat="41.4573380" lon="-8.7733740">
        <ele>5.4</ele>
        <time>2021-05-17T07:03:11Z</time>
      </trkpt>
      <trkpt lat="41.4573380" lon="-8.7733740">
        <ele>5.4</ele>
        <time>2021-05-17T07:03:12Z</time>
      </trkpt>
      <trkpt lat="41.4573380" lon="-8.7733740">
        <ele>5.4</ele>
        <time>2021-05-17T07:03:13Z</time>
      </trkpt>
      <trkpt lat="41.4573370" lon="-8.7733740">
        <ele>5.4</ele>
        <time>2021-05-17T07:03:14Z</time>
      </trkpt>
      <trkpt lat="41.4573370" lon="-8.7733740">
        <ele>5.4</ele>
        <time>2021-05-17T07:03:15Z</time>
      </trkpt>
      <trkpt lat="41.4573370" lon="-8.7733740">
        <ele>5.4</ele>
        <time>2021-05-17T07:03:16Z</time>
      </trkpt>
      <trkpt lat="41.4573370" lon="-8.7733730">
        <ele>5.4</ele>
        <time>2021-05-17T07:03:17Z</time>
      </trkpt>
      <trkpt lat="41.4573370" lon="-8.7733730">
        <ele>5.4</ele>
        <time>2021-05-17T07:03:18Z</time>
      </trkpt>
      <trkpt lat="41.4573370" lon="-8.7733730">
        <ele>5.4</ele>
        <time>2021-05-17T07:03:19Z</time>
      </trkpt>
      <trkpt lat="41.4573360" lon="-8.7733730">
        <ele>5.4</ele>
        <time>2021-05-17T07:03:20Z</time>
      </trkpt>
      <trkpt lat="41.4573360" lon="-8.7733730">
        <ele>5.4</ele>
        <time>2021-05-17T07:03:21Z</time>
      </trkpt>
      <trkpt lat="41.4573360" lon="-8.7733730">
        <ele>5.4</ele>
        <time>2021-05-17T07:03:22Z</time>
      </trkpt>
      <trkpt lat="41.4573360" lon="-8.7733730">
        <ele>5.4</ele>
        <time>2021-05-17T07:03:23Z</time>
      </trkpt>
      <trkpt lat="41.4573360" lon="-8.7733730">
        <ele>5.4</ele>
        <time>2021-05-17T07:03:24Z</time>
      </trkpt>
      <trkpt lat="41.4573350" lon="-8.7733730">
        <ele>5.4</ele>
        <time>2021-05-17T07:03:25Z</time>
      </trkpt>
      <trkpt lat="41.4573350" lon="-8.7733730">
        <ele>5.4</ele>
        <time>2021-05-17T07:03:26Z</time>
      </trkpt>
      <trkpt lat="41.4573350" lon="-8.7733730">
        <ele>5.4</ele>
        <time>2021-05-17T07:03:27Z</time>
      </trkpt>
      <trkpt lat="41.4573350" lon="-8.7733720">
        <ele>5.4</ele>
        <time>2021-05-17T07:03:28Z</time>
      </trkpt>
      <trkpt lat="41.4573350" lon="-8.7733720">
        <ele>5.4</ele>
        <time>2021-05-17T07:03:29Z</time>
      </trkpt>
      <trkpt lat="41.4573350" lon="-8.7733720">
        <ele>5.4</ele>
        <time>2021-05-17T07:03:30Z</time>
      </trkpt>
      <trkpt lat="41.4573340" lon="-8.7733720">
        <ele>5.4</ele>
        <time>2021-05-17T07:03:31Z</time>
      </trkpt>
      <trkpt lat="41.4573340" lon="-8.7733720">
        <ele>5.4</ele>
        <time>2021-05-17T07:03:32Z</time>
      </trkpt>
      <trkpt lat="41.4573340" lon="-8.7733720">
        <ele>5.4</ele>
        <time>2021-05-17T07:03:33Z</time>
      </trkpt>
      <trkpt lat="41.4573340" lon="-8.7733720">
        <ele>5.4</ele>
        <time>2021-05-17T07:03:34Z</time>
      </trkpt>
      <trkpt lat="41.4573340" lon="-8.7733720">
        <ele>5.4</ele>
        <time>2021-05-17T07:03:35Z</time>
      </trkpt>
      <trkpt lat="41.4573340" lon="-8.7733720">
        <ele>5.4</ele>
        <time>2021-05-17T07:03:36Z</time>
      </trkpt>
      <trkpt lat="41.4573330" lon="-8.7733720">
        <ele>5.4</ele>
        <time>2021-05-17T07:03:37Z</time>
      </trkpt>
      <trkpt lat="41.4573330" lon="-8.7733720">
        <ele>5.4</ele>
        <time>2021-05-17T07:03:38Z</time>
      </trkpt>
      <trkpt lat="41.4573330" lon="-8.7733710">
        <ele>5.4</ele>
        <time>2021-05-17T07:03:39Z</time>
      </trkpt>
      <trkpt lat="41.4573330" lon="-8.7733710">
        <ele>5.4</ele>
        <time>2021-05-17T07:03:40Z</time>
      </trkpt>
      <trkpt lat="41.4573330" lon="-8.7733710">
        <ele>5.4</ele>
        <time>2021-05-17T07:03:41Z</time>
      </trkpt>
      <trkpt lat="41.4573320" lon="-8.7733710">
        <ele>5.4</ele>
        <time>2021-05-17T07:03:42Z</time>
      </trkpt>
      <trkpt lat="41.4573320" lon="-8.7733710">
        <ele>5.4</ele>
        <time>2021-05-17T07:03:43Z</time>
      </trkpt>
      <trkpt lat="41.4573320" lon="-8.7733710">
        <ele>5.4</ele>
        <time>2021-05-17T07:03:44Z</time>
      </trkpt>
      <trkpt lat="41.4573320" lon="-8.7733710">
        <ele>5.4</ele>
        <time>2021-05-17T07:03:45Z</time>
      </trkpt>
      <trkpt lat="41.4573320" lon="-8.7733710">
        <ele>5.4</ele>
        <time>2021-05-17T07:03:46Z</time>
      </trkpt>
      <trkpt lat="41.4573320" lon="-8.7733710">
        <ele>5.4</ele>
        <time>2021-05-17T07:03:47Z</time>
      </trkpt>
      <trkpt lat="41.4573310" lon="-8.7733710">
        <ele>5.4</ele>
        <time>2021-05-17T07:03:48Z</time>
      </trkpt>
      <trkpt lat="41.4573310" lon="-8.7733710">
        <ele>5.4</ele>
        <time>2021-05-17T07:03:49Z</time>
      </trkpt>
      <trkpt lat="41.4573310" lon="-8.7733710">
        <ele>5.4</ele>
        <time>2021-05-17T07:03:50Z</time>
      </trkpt>
      <trkpt lat="41.4573310" lon="-8.7733700">
        <ele>5.4</ele>
        <time>2021-05-17T07:03:51Z</time>
      </trkpt>
      <trkpt lat="41.4573310" lon="-8.7733700">
        <ele>5.4</ele>
        <time>2021-05-17T07:03:52Z</time>
      </trkpt>
      <trkpt lat="41.4573300" lon="-8.7733700">
        <ele>5.4</ele>
        <time>2021-05-17T07:03:53Z</time>
      </trkpt>
      <trkpt lat="41.4573300" lon="-8.7733700">
        <ele>5.4</ele>
        <time>2021-05-17T07:03:54Z</time>
      </trkpt>
      <trkpt lat="41.4573300" lon="-8.7733700">
        <ele>5.4</ele>
        <time>2021-05-17T07:03:55Z</time>
      </trkpt>
      <trkpt lat="41.4573300" lon="-8.7733700">
        <ele>5.4</ele>
        <time>2021-05-17T07:03:56Z</time>
      </trkpt>
      <trkpt lat="41.4573300" lon="-8.7733700">
        <ele>5.4</ele>
        <time>2021-05-17T07:03:57Z</time>
      </trkpt>
      <trkpt lat="41.4573300" lon="-8.7733700">
        <ele>5.4</ele>
        <time>2021-05-17T07:03:58Z</time>
      </trkpt>
      <trkpt lat="41.4573290" lon="-8.7733700">
        <ele>5.4</ele>
        <time>2021-05-17T07:03:59Z</time>
      </trkpt>
      <trkpt lat="41.4573290" lon="-8.7733700">
        <ele>5.4</ele>
        <time>2021-05-17T07:04:00Z</time>
      </trkpt>
      <trkpt lat="41.4573290" lon="-8.7733700">
        <ele>5.4</ele>
        <time>2021-05-17T07:04:01Z</time>
      </trkpt>
      <trkpt lat="41.4573290" lon="-8.7733690">
        <ele>5.4</ele>
        <time>2021-05-17T07:04:02Z</time>
      </trkpt>
      <trkpt lat="41.4573290" lon="-8.7733690">
        <ele>5.4</ele>
        <time>2021-05-17T07:04:03Z</time>
      </trkpt>
      <trkpt lat="41.4573280" lon="-8.7733690">
        <ele>5.4</ele>
        <time>2021-05-17T07:04:04Z</time>
      </trkpt>
      <trkpt lat="41.4573280" lon="-8.7733690">
        <ele>5.4</ele>
        <time>2021-05-17T07:04:05Z</time>
      </trkpt>
      <trkpt lat="41.4573280" lon="-8.7733690">
        <ele>5.4</ele>
        <time>2021-05-17T07:04:06Z</time>
      </trkpt>
      <trkpt lat="41.4573280" lon="-8.7733690">
        <ele>5.4</ele>
        <time>2021-05-17T07:04:07Z</time>
      </trkpt>
      <trkpt lat="41.4573280" lon="-8.7733690">
        <ele>5.4</ele>
        <time>2021-05-17T07:04:08Z</time>
      </trkpt>
      <trkpt lat="41.4573280" lon="-8.7733690">
        <ele>5.4</ele>
        <time>2021-05-17T07:04:09Z</time>
      </trkpt>
      <trkpt lat="41.4573270" lon="-8.7733690">
        <ele>5.4</ele>
        <time>2021-05-17T07:04:10Z</time>
      </trkpt>
      <trkpt lat="41.4573270" lon="-8.7733690">
        <ele>5.4</ele>
        <time>2021-05-17T07:04:11Z</time>
      </trkpt>
      <trkpt lat="41.4573270" lon="-8.7733690">
        <ele>5.4</ele>
        <time>2021-05-17T07:04:12Z</time>
      </trkpt>
      <trkpt lat="41.4573270" lon="-8.7733680">
        <ele>5.4</ele>
        <time>2021-05-17T07:04:13Z</time>
      </trkpt>
      <trkpt lat="41.4573270" lon="-8.7733680">
        <ele>5.4</ele>
        <time>2021-05-17T07:04:14Z</time>
      </trkpt>
      <trkpt lat="41.4573270" lon="-8.7733680">
        <ele>5.4</ele>
        <time>2021-05-17T07:04:15Z</time>
      </trkpt>
      <trkpt lat="41.4573260" lon="-8.7733680">
        <ele>5.4</ele>
        <time>2021-05-17T07:04:16Z</time>
      </trkpt>
      <trkpt lat="41.4573260" lon="-8.7733680">
        <ele>5.4</ele>
        <time>2021-05-17T07:04:17Z</time>
      </trkpt>
      <trkpt lat="41.4573260" lon="-8.7733680">
        <ele>5.4</ele>
        <time>2021-05-17T07:04:18Z</time>
      </trkpt>
      <trkpt lat="41.4573260" lon="-8.7733680">
        <ele>5.4</ele>
        <time>2021-05-17T07:04:19Z</time>
      </trkpt>
      <trkpt lat="41.4573260" lon="-8.7733680">
        <ele>5.4</ele>
        <time>2021-05-17T07:04:20Z</time>
      </trkpt>
      <trkpt lat="41.4573250" lon="-8.7733680">
        <ele>5.4</ele>
        <time>2021-05-17T07:04:21Z</time>
      </trkpt>
      <trkpt lat="41.4573250" lon="-8.7733680">
        <ele>5.4</ele>
        <time>2021-05-17T07:04:22Z</time>
      </trkpt>
      <trkpt lat="41.4573250" lon="-8.7733680">
        <ele>5.4</ele>
        <time>2021-05-17T07:04:23Z</time>
      </trkpt>
      <trkpt lat="41.4573250" lon="-8.7733670">
        <ele>5.4</ele>
        <time>2021-05-17T07:04:24Z</time>
      </trkpt>
      <trkpt lat="41.4573250" lon="-8.7733670">
        <ele>5.4</ele>
        <time>2021-05-17T07:04:25Z</time>
      </trkpt>
      <trkpt lat="41.4573250" lon="-8.7733670">
        <ele>5.4</ele>
        <time>2021-05-17T07:04:26Z</time>
      </trkpt>
      <trkpt lat="41.4573240" lon="-8.7733670">
        <ele>5.4</ele>
        <time>2021-05-17T07:04:27Z</time>
      </trkpt>
      <trkpt lat="41.4573240" lon="-8.7733670">
        <ele>5.4</ele>
        <time>2021-05-17T07:04:28Z</time>
      </trkpt>
      <trkpt lat="41.4573240" lon="-8.7733670">
        <ele>5.4</ele>
        <time>2021-05-17T07:04:29Z</time>
      </trkpt>
      <trkpt lat="41.4573250" lon="-8.7733700">
        <ele>5.4</ele>
        <time>2021-05-17T07:04:30Z</time>
      </trkpt>
      <trkpt lat="41.4573270" lon="-8.7733720">
        <ele>5.3</ele>
        <time>2021-05-17T07:04:31Z</time>
      </trkpt>
      <trkpt lat="41.4573270" lon="-8.7733700">
        <ele>5.3</ele>
        <time>2021-05-17T07:04:32Z</time>
      </trkpt>
      <trkpt lat="41.4573290" lon="-8.7733690">
        <ele>5.3</ele>
        <time>2021-05-17T07:04:33Z</time>
      </trkpt>
      <trkpt lat="41.4573270" lon="-8.7733720">
        <ele>5.3</ele>
        <time>2021-05-17T07:04:34Z</time>
      </trkpt>
      <trkpt lat="41.4573270" lon="-8.7733730">
        <ele>5.3</ele>
        <time>2021-05-17T07:04:35Z</time>
      </trkpt>
      <trkpt lat="41.4573370" lon="-8.7733810">
        <ele>5.3</ele>
        <time>2021-05-17T07:04:36Z</time>
      </trkpt>
      <trkpt lat="41.4573450" lon="-8.7733740">
        <ele>5.3</ele>
        <time>2021-05-17T07:04:37Z</time>
      </trkpt>
      <trkpt lat="41.4573580" lon="-8.7733680">
        <ele>5.3</ele>
        <time>2021-05-17T07:04:38Z</time>
      </trkpt>
      <trkpt lat="41.4573690" lon="-8.7733680">
        <ele>5.3</ele>
        <time>2021-05-17T07:04:39Z</time>
      </trkpt>
      <trkpt lat="41.4573880" lon="-8.7733640">
        <ele>5.3</ele>
        <time>2021-05-17T07:04:40Z</time>
      </trkpt>
      <trkpt lat="41.4574000" lon="-8.7733590">
        <ele>5.2</ele>
        <time>2021-05-17T07:04:41Z</time>
      </trkpt>
      <trkpt lat="41.4574120" lon="-8.7733560">
        <ele>5.2</ele>
        <time>2021-05-17T07:04:42Z</time>
      </trkpt>
      <trkpt lat="41.4574200" lon="-8.7733520">
        <ele>5.2</ele>
        <time>2021-05-17T07:04:43Z</time>
      </trkpt>
      <trkpt lat="41.4574320" lon="-8.7733550">
        <ele>5.2</ele>
        <time>2021-05-17T07:04:44Z</time>
      </trkpt>
      <trkpt lat="41.4574490" lon="-8.7733560">
        <ele>5.2</ele>
        <time>2021-05-17T07:04:45Z</time>
      </trkpt>
      <trkpt lat="41.4574640" lon="-8.7733610">
        <ele>5.2</ele>
        <time>2021-05-17T07:04:46Z</time>
      </trkpt>
      <trkpt lat="41.4574790" lon="-8.7733590">
        <ele>5.2</ele>
        <time>2021-05-17T07:04:47Z</time>
      </trkpt>
      <trkpt lat="41.4574960" lon="-8.7733530">
        <ele>5.1</ele>
        <time>2021-05-17T07:04:48Z</time>
      </trkpt>
      <trkpt lat="41.4575140" lon="-8.7733490">
        <ele>5.1</ele>
        <time>2021-05-17T07:04:49Z</time>
      </trkpt>
      <trkpt lat="41.4575280" lon="-8.7733410">
        <ele>5.1</ele>
        <time>2021-05-17T07:04:50Z</time>
      </trkpt>
      <trkpt lat="41.4575450" lon="-8.7733460">
        <ele>5.1</ele>
        <time>2021-05-17T07:04:51Z</time>
      </trkpt>
      <trkpt lat="41.4575660" lon="-8.7733360">
        <ele>5.1</ele>
        <time>2021-05-17T07:04:52Z</time>
      </trkpt>
      <trkpt lat="41.4575770" lon="-8.7733330">
        <ele>5.1</ele>
        <time>2021-05-17T07:04:53Z</time>
      </trkpt>
      <trkpt lat="41.4575870" lon="-8.7733290">
        <ele>5.1</ele>
        <time>2021-05-17T07:04:54Z</time>
      </trkpt>
      <trkpt lat="41.4576070" lon="-8.7733230">
        <ele>5.1</ele>
        <time>2021-05-17T07:04:55Z</time>
      </trkpt>
      <trkpt lat="41.4576160" lon="-8.7733200">
        <ele>5.1</ele>
        <time>2021-05-17T07:04:56Z</time>
      </trkpt>
      <trkpt lat="41.4576240" lon="-8.7733180">
        <ele>5.1</ele>
        <time>2021-05-17T07:04:57Z</time>
      </trkpt>
      <trkpt lat="41.4576510" lon="-8.7733140">
        <ele>5.1</ele>
        <time>2021-05-17T07:04:58Z</time>
      </trkpt>
      <trkpt lat="41.4576620" lon="-8.7733140">
        <ele>5.1</ele>
        <time>2021-05-17T07:04:59Z</time>
      </trkpt>
      <trkpt lat="41.4576770" lon="-8.7733100">
        <ele>5.2</ele>
        <time>2021-05-17T07:05:00Z</time>
      </trkpt>
      <trkpt lat="41.4576960" lon="-8.7733150">
        <ele>5.2</ele>
        <time>2021-05-17T07:05:01Z</time>
      </trkpt>
      <trkpt lat="41.4577110" lon="-8.7733150">
        <ele>5.2</ele>
        <time>2021-05-17T07:05:02Z</time>
      </trkpt>
      <trkpt lat="41.4577260" lon="-8.7733130">
        <ele>5.2</ele>
        <time>2021-05-17T07:05:03Z</time>
      </trkpt>
      <trkpt lat="41.4577410" lon="-8.7733120">
        <ele>5.2</ele>
        <time>2021-05-17T07:05:04Z</time>
      </trkpt>
      <trkpt lat="41.4577530" lon="-8.7733130">
        <ele>5.2</ele>
        <time>2021-05-17T07:05:05Z</time>
      </trkpt>
      <trkpt lat="41.4577700" lon="-8.7733100">
        <ele>5.2</ele>
        <time>2021-05-17T07:05:06Z</time>
      </trkpt>
      <trkpt lat="41.4577870" lon="-8.7733070">
        <ele>5.2</ele>
        <time>2021-05-17T07:05:07Z</time>
      </trkpt>
      <trkpt lat="41.4578110" lon="-8.7733090">
        <ele>5.2</ele>
        <time>2021-05-17T07:05:08Z</time>
      </trkpt>
      <trkpt lat="41.4578210" lon="-8.7733060">
        <ele>5.2</ele>
        <time>2021-05-17T07:05:09Z</time>
      </trkpt>
      <trkpt lat="41.4578320" lon="-8.7733030">
        <ele>5.3</ele>
        <time>2021-05-17T07:05:10Z</time>
      </trkpt>
      <trkpt lat="41.4578480" lon="-8.7732990">
        <ele>5.3</ele>
        <time>2021-05-17T07:05:11Z</time>
      </trkpt>
      <trkpt lat="41.4578620" lon="-8.7732880">
        <ele>5.3</ele>
        <time>2021-05-17T07:05:12Z</time>
      </trkpt>
      <trkpt lat="41.4578770" lon="-8.7732880">
        <ele>5.3</ele>
        <time>2021-05-17T07:05:13Z</time>
      </trkpt>
      <trkpt lat="41.4578900" lon="-8.7732830">
        <ele>5.3</ele>
        <time>2021-05-17T07:05:14Z</time>
      </trkpt>
      <trkpt lat="41.4579060" lon="-8.7732810">
        <ele>5.3</ele>
        <time>2021-05-17T07:05:15Z</time>
      </trkpt>
      <trkpt lat="41.4579190" lon="-8.7732800">
        <ele>5.3</ele>
        <time>2021-05-17T07:05:16Z</time>
      </trkpt>
      <trkpt lat="41.4579360" lon="-8.7732750">
        <ele>5.4</ele>
        <time>2021-05-17T07:05:17Z</time>
      </trkpt>
      <trkpt lat="41.4579450" lon="-8.7732710">
        <ele>5.4</ele>
        <time>2021-05-17T07:05:18Z</time>
      </trkpt>
      <trkpt lat="41.4579540" lon="-8.7732670">
        <ele>5.4</ele>
        <time>2021-05-17T07:05:19Z</time>
      </trkpt>
      <trkpt lat="41.4579700" lon="-8.7732650">
        <ele>5.4</ele>
        <time>2021-05-17T07:05:20Z</time>
      </trkpt>
      <trkpt lat="41.4579840" lon="-8.7732620">
        <ele>5.4</ele>
        <time>2021-05-17T07:05:21Z</time>
      </trkpt>
      <trkpt lat="41.4580000" lon="-8.7732660">
        <ele>5.4</ele>
        <time>2021-05-17T07:05:22Z</time>
      </trkpt>
      <trkpt lat="41.4580110" lon="-8.7732570">
        <ele>5.4</ele>
        <time>2021-05-17T07:05:23Z</time>
      </trkpt>
      <trkpt lat="41.4580260" lon="-8.7732480">
        <ele>5.5</ele>
        <time>2021-05-17T07:05:24Z</time>
      </trkpt>
      <trkpt lat="41.4580430" lon="-8.7732410">
        <ele>5.5</ele>
        <time>2021-05-17T07:05:25Z</time>
      </trkpt>
      <trkpt lat="41.4580610" lon="-8.7732420">
        <ele>5.5</ele>
        <time>2021-05-17T07:05:26Z</time>
      </trkpt>
      <trkpt lat="41.4580750" lon="-8.7732360">
        <ele>5.5</ele>
        <time>2021-05-17T07:05:27Z</time>
      </trkpt>
      <trkpt lat="41.4580900" lon="-8.7732410">
        <ele>5.5</ele>
        <time>2021-05-17T07:05:28Z</time>
      </trkpt>
      <trkpt lat="41.4581040" lon="-8.7732400">
        <ele>5.6</ele>
        <time>2021-05-17T07:05:29Z</time>
      </trkpt>
      <trkpt lat="41.4581180" lon="-8.7732320">
        <ele>5.6</ele>
        <time>2021-05-17T07:05:30Z</time>
      </trkpt>
      <trkpt lat="41.4581190" lon="-8.7732320">
        <ele>5.6</ele>
        <time>2021-05-17T07:05:31Z</time>
      </trkpt>
      <trkpt lat="41.4581210" lon="-8.7732320">
        <ele>5.6</ele>
        <time>2021-05-17T07:05:32Z</time>
      </trkpt>
      <trkpt lat="41.4581230" lon="-8.7732320">
        <ele>5.6</ele>
        <time>2021-05-17T07:05:33Z</time>
      </trkpt>
      <trkpt lat="41.4581240" lon="-8.7732320">
        <ele>5.6</ele>
        <time>2021-05-17T07:05:34Z</time>
      </trkpt>
      <trkpt lat="41.4581260" lon="-8.7732320">
        <ele>5.6</ele>
        <time>2021-05-17T07:05:35Z</time>
      </trkpt>
      <trkpt lat="41.4581280" lon="-8.7732320">
        <ele>5.6</ele>
        <time>2021-05-17T07:05:36Z</time>
      </trkpt>
      <trkpt lat="41.4581290" lon="-8.7732330">
        <ele>5.6</ele>
        <time>2021-05-17T07:05:37Z</time>
      </trkpt>
      <trkpt lat="41.4581310" lon="-8.7732330">
        <ele>5.6</ele>
        <time>2021-05-17T07:05:38Z</time>
      </trkpt>
      <trkpt lat="41.4581330" lon="-8.7732330">
        <ele>5.6</ele>
        <time>2021-05-17T07:05:39Z</time>
      </trkpt>
      <trkpt lat="41.4581340" lon="-8.7732330">
        <ele>5.6</ele>
        <time>2021-05-17T07:05:40Z</time>
      </trkpt>
      <trkpt lat="41.4581360" lon="-8.7732330">
        <ele>5.6</ele>
        <time>2021-05-17T07:05:41Z</time>
      </trkpt>
      <trkpt lat="41.4581380" lon="-8.7732330">
        <ele>5.6</ele>
        <time>2021-05-17T07:05:42Z</time>
      </trkpt>
      <trkpt lat="41.4581390" lon="-8.7732330">
        <ele>5.6</ele>
        <time>2021-05-17T07:05:43Z</time>
      </trkpt>
      <trkpt lat="41.4581410" lon="-8.7732330">
        <ele>5.6</ele>
        <time>2021-05-17T07:05:44Z</time>
      </trkpt>
      <trkpt lat="41.4581490" lon="-8.7732330">
        <ele>5.6</ele>
        <time>2021-05-17T07:05:45Z</time>
      </trkpt>
      <trkpt lat="41.4581570" lon="-8.7732310">
        <ele>5.6</ele>
        <time>2021-05-17T07:05:46Z</time>
      </trkpt>
      <trkpt lat="41.4581650" lon="-8.7732300">
        <ele>5.7</ele>
        <time>2021-05-17T07:05:47Z</time>
      </trkpt>
      <trkpt lat="41.4581730" lon="-8.7732280">
        <ele>5.7</ele>
        <time>2021-05-17T07:05:48Z</time>
      </trkpt>
      <trkpt lat="41.4581810" lon="-8.7732270">
        <ele>5.7</ele>
        <time>2021-05-17T07:05:49Z</time>
      </trkpt>
      <trkpt lat="41.4581910" lon="-8.7732190">
        <ele>5.7</ele>
        <time>2021-05-17T07:05:50Z</time>
      </trkpt>
      <trkpt lat="41.4582020" lon="-8.7732180">
        <ele>5.7</ele>
        <time>2021-05-17T07:05:51Z</time>
      </trkpt>
      <trkpt lat="41.4582110" lon="-8.7732160">
        <ele>5.7</ele>
        <time>2021-05-17T07:05:52Z</time>
      </trkpt>
      <trkpt lat="41.4582230" lon="-8.7732160">
        <ele>5.7</ele>
        <time>2021-05-17T07:05:53Z</time>
      </trkpt>
      <trkpt lat="41.4582330" lon="-8.7732100">
        <ele>5.7</ele>
        <time>2021-05-17T07:05:54Z</time>
      </trkpt>
      <trkpt lat="41.4582410" lon="-8.7732090">
        <ele>5.8</ele>
        <time>2021-05-17T07:05:55Z</time>
      </trkpt>
      <trkpt lat="41.4582610" lon="-8.7732010">
        <ele>5.8</ele>
        <time>2021-05-17T07:05:56Z</time>
      </trkpt>
      <trkpt lat="41.4582700" lon="-8.7731990">
        <ele>5.8</ele>
        <time>2021-05-17T07:05:57Z</time>
      </trkpt>
      <trkpt lat="41.4582790" lon="-8.7731970">
        <ele>5.8</ele>
        <time>2021-05-17T07:05:58Z</time>
      </trkpt>
      <trkpt lat="41.4582870" lon="-8.7731930">
        <ele>5.8</ele>
        <time>2021-05-17T07:05:59Z</time>
      </trkpt>
      <trkpt lat="41.4582990" lon="-8.7731850">
        <ele>5.8</ele>
        <time>2021-05-17T07:06:00Z</time>
      </trkpt>
      <trkpt lat="41.4583120" lon="-8.7731780">
        <ele>5.8</ele>
        <time>2021-05-17T07:06:01Z</time>
      </trkpt>
      <trkpt lat="41.4583320" lon="-8.7731740">
        <ele>5.8</ele>
        <time>2021-05-17T07:06:02Z</time>
      </trkpt>
      <trkpt lat="41.4583480" lon="-8.7731760">
        <ele>5.8</ele>
        <time>2021-05-17T07:06:03Z</time>
      </trkpt>
      <trkpt lat="41.4583710" lon="-8.7731760">
        <ele>5.8</ele>
        <time>2021-05-17T07:06:04Z</time>
      </trkpt>
      <trkpt lat="41.4583790" lon="-8.7731760">
        <ele>5.8</ele>
        <time>2021-05-17T07:06:05Z</time>
      </trkpt>
      <trkpt lat="41.4583870" lon="-8.7731760">
        <ele>5.8</ele>
        <time>2021-05-17T07:06:06Z</time>
      </trkpt>
      <trkpt lat="41.4584070" lon="-8.7731690">
        <ele>5.8</ele>
        <time>2021-05-17T07:06:07Z</time>
      </trkpt>
      <trkpt lat="41.4584150" lon="-8.7731640">
        <ele>5.8</ele>
        <time>2021-05-17T07:06:08Z</time>
      </trkpt>
      <trkpt lat="41.4584220" lon="-8.7731600">
        <ele>5.8</ele>
        <time>2021-05-17T07:06:09Z</time>
      </trkpt>
      <trkpt lat="41.4584420" lon="-8.7731530">
        <ele>5.8</ele>
        <time>2021-05-17T07:06:10Z</time>
      </trkpt>
      <trkpt lat="41.4584500" lon="-8.7731510">
        <ele>5.8</ele>
        <time>2021-05-17T07:06:11Z</time>
      </trkpt>
      <trkpt lat="41.4584580" lon="-8.7731480">
        <ele>5.8</ele>
        <time>2021-05-17T07:06:12Z</time>
      </trkpt>
      <trkpt lat="41.4584730" lon="-8.7731430">
        <ele>5.7</ele>
        <time>2021-05-17T07:06:13Z</time>
      </trkpt>
      <trkpt lat="41.4584900" lon="-8.7731340">
        <ele>5.7</ele>
        <time>2021-05-17T07:06:14Z</time>
      </trkpt>
      <trkpt lat="41.4584990" lon="-8.7731260">
        <ele>5.7</ele>
        <time>2021-05-17T07:06:15Z</time>
      </trkpt>
      <trkpt lat="41.4585140" lon="-8.7731180">
        <ele>5.7</ele>
        <time>2021-05-17T07:06:16Z</time>
      </trkpt>
      <trkpt lat="41.4585310" lon="-8.7731080">
        <ele>5.7</ele>
        <time>2021-05-17T07:06:17Z</time>
      </trkpt>
      <trkpt lat="41.4585410" lon="-8.7731070">
        <ele>5.6</ele>
        <time>2021-05-17T07:06:18Z</time>
      </trkpt>
      <trkpt lat="41.4585510" lon="-8.7731070">
        <ele>5.6</ele>
        <time>2021-05-17T07:06:19Z</time>
      </trkpt>
      <trkpt lat="41.4585640" lon="-8.7731020">
        <ele>5.6</ele>
        <time>2021-05-17T07:06:20Z</time>
      </trkpt>
      <trkpt lat="41.4585800" lon="-8.7731040">
        <ele>5.6</ele>
        <time>2021-05-17T07:06:21Z</time>
      </trkpt>
      <trkpt lat="41.4585930" lon="-8.7730990">
        <ele>5.6</ele>
        <time>2021-05-17T07:06:22Z</time>
      </trkpt>
      <trkpt lat="41.4586070" lon="-8.7730960">
        <ele>5.5</ele>
        <time>2021-05-17T07:06:23Z</time>
      </trkpt>
      <trkpt lat="41.4586210" lon="-8.7731000">
        <ele>5.5</ele>
        <time>2021-05-17T07:06:24Z</time>
      </trkpt>
      <trkpt lat="41.4586370" lon="-8.7730940">
        <ele>5.5</ele>
        <time>2021-05-17T07:06:25Z</time>
      </trkpt>
      <trkpt lat="41.4586510" lon="-8.7730980">
        <ele>5.4</ele>
        <time>2021-05-17T07:06:26Z</time>
      </trkpt>
      <trkpt lat="41.4586660" lon="-8.7730970">
        <ele>5.4</ele>
        <time>2021-05-17T07:06:27Z</time>
      </trkpt>
      <trkpt lat="41.4586800" lon="-8.7730940">
        <ele>5.4</ele>
        <time>2021-05-17T07:06:28Z</time>
      </trkpt>
      <trkpt lat="41.4586940" lon="-8.7730950">
        <ele>5.4</ele>
        <time>2021-05-17T07:06:29Z</time>
      </trkpt>
      <trkpt lat="41.4587160" lon="-8.7731000">
        <ele>5.3</ele>
        <time>2021-05-17T07:06:30Z</time>
      </trkpt>
      <trkpt lat="41.4587240" lon="-8.7730990">
        <ele>5.3</ele>
        <time>2021-05-17T07:06:31Z</time>
      </trkpt>
      <trkpt lat="41.4587330" lon="-8.7730980">
        <ele>5.3</ele>
        <time>2021-05-17T07:06:32Z</time>
      </trkpt>
      <trkpt lat="41.4587510" lon="-8.7730920">
        <ele>5.2</ele>
        <time>2021-05-17T07:06:33Z</time>
      </trkpt>
      <trkpt lat="41.4587640" lon="-8.7730870">
        <ele>5.2</ele>
        <time>2021-05-17T07:06:34Z</time>
      </trkpt>
      <trkpt lat="41.4587730" lon="-8.7730770">
        <ele>5.2</ele>
        <time>2021-05-17T07:06:35Z</time>
      </trkpt>
      <trkpt lat="41.4587850" lon="-8.7730780">
        <ele>5.2</ele>
        <time>2021-05-17T07:06:36Z</time>
      </trkpt>
      <trkpt lat="41.4587940" lon="-8.7730740">
        <ele>5.2</ele>
        <time>2021-05-17T07:06:37Z</time>
      </trkpt>
      <trkpt lat="41.4588080" lon="-8.7730710">
        <ele>5.1</ele>
        <time>2021-05-17T07:06:38Z</time>
      </trkpt>
      <trkpt lat="41.4588230" lon="-8.7730700">
        <ele>5.1</ele>
        <time>2021-05-17T07:06:39Z</time>
      </trkpt>
      <trkpt lat="41.4588410" lon="-8.7730700">
        <ele>5.1</ele>
        <time>2021-05-17T07:06:40Z</time>
      </trkpt>
      <trkpt lat="41.4588550" lon="-8.7730670">
        <ele>5.0</ele>
        <time>2021-05-17T07:06:41Z</time>
      </trkpt>
      <trkpt lat="41.4588780" lon="-8.7730630">
        <ele>5.0</ele>
        <time>2021-05-17T07:06:42Z</time>
      </trkpt>
      <trkpt lat="41.4588880" lon="-8.7730610">
        <ele>5.0</ele>
        <time>2021-05-17T07:06:43Z</time>
      </trkpt>
      <trkpt lat="41.4588990" lon="-8.7730600">
        <ele>5.0</ele>
        <time>2021-05-17T07:06:44Z</time>
      </trkpt>
      <trkpt lat="41.4589210" lon="-8.7730530">
        <ele>4.9</ele>
        <time>2021-05-17T07:06:45Z</time>
      </trkpt>
      <trkpt lat="41.4589310" lon="-8.7730470">
        <ele>4.9</ele>
        <time>2021-05-17T07:06:46Z</time>
      </trkpt>
      <trkpt lat="41.4589400" lon="-8.7730410">
        <ele>4.9</ele>
        <time>2021-05-17T07:06:47Z</time>
      </trkpt>
      <trkpt lat="41.4589550" lon="-8.7730320">
        <ele>4.9</ele>
        <time>2021-05-17T07:06:48Z</time>
      </trkpt>
      <trkpt lat="41.4589710" lon="-8.7730300">
        <ele>4.8</ele>
        <time>2021-05-17T07:06:49Z</time>
      </trkpt>
      <trkpt lat="41.4589910" lon="-8.7730180">
        <ele>4.8</ele>
        <time>2021-05-17T07:06:50Z</time>
      </trkpt>
      <trkpt lat="41.4589990" lon="-8.7730170">
        <ele>4.8</ele>
        <time>2021-05-17T07:06:51Z</time>
      </trkpt>
      <trkpt lat="41.4590080" lon="-8.7730150">
        <ele>4.8</ele>
        <time>2021-05-17T07:06:52Z</time>
      </trkpt>
      <trkpt lat="41.4590210" lon="-8.7730100">
        <ele>4.8</ele>
        <time>2021-05-17T07:06:53Z</time>
      </trkpt>
      <trkpt lat="41.4590380" lon="-8.7730040">
        <ele>4.8</ele>
        <time>2021-05-17T07:06:54Z</time>
      </trkpt>
      <trkpt lat="41.4590610" lon="-8.7729960">
        <ele>4.8</ele>
        <time>2021-05-17T07:06:55Z</time>
      </trkpt>
      <trkpt lat="41.4590720" lon="-8.7729930">
        <ele>4.7</ele>
        <time>2021-05-17T07:06:56Z</time>
      </trkpt>
      <trkpt lat="41.4590820" lon="-8.7729900">
        <ele>4.7</ele>
        <time>2021-05-17T07:06:57Z</time>
      </trkpt>
      <trkpt lat="41.4590910" lon="-8.7729880">
        <ele>4.7</ele>
        <time>2021-05-17T07:06:58Z</time>
      </trkpt>
      <trkpt lat="41.4591060" lon="-8.7729860">
        <ele>4.7</ele>
        <time>2021-05-17T07:06:59Z</time>
      </trkpt>
      <trkpt lat="41.4591120" lon="-8.7729770">
        <ele>4.7</ele>
        <time>2021-05-17T07:07:00Z</time>
      </trkpt>
      <trkpt lat="41.4591270" lon="-8.7729750">
        <ele>4.7</ele>
        <time>2021-05-17T07:07:01Z</time>
      </trkpt>
      <trkpt lat="41.4591430" lon="-8.7729690">
        <ele>4.7</ele>
        <time>2021-05-17T07:07:02Z</time>
      </trkpt>
      <trkpt lat="41.4591540" lon="-8.7729690">
        <ele>4.7</ele>
        <time>2021-05-17T07:07:03Z</time>
      </trkpt>
      <trkpt lat="41.4591730" lon="-8.7729600">
        <ele>4.7</ele>
        <time>2021-05-17T07:07:04Z</time>
      </trkpt>
      <trkpt lat="41.4591890" lon="-8.7729600">
        <ele>4.7</ele>
        <time>2021-05-17T07:07:05Z</time>
      </trkpt>
      <trkpt lat="41.4592070" lon="-8.7729540">
        <ele>4.7</ele>
        <time>2021-05-17T07:07:06Z</time>
      </trkpt>
      <trkpt lat="41.4592230" lon="-8.7729550">
        <ele>4.6</ele>
        <time>2021-05-17T07:07:07Z</time>
      </trkpt>
      <trkpt lat="41.4592400" lon="-8.7729540">
        <ele>4.6</ele>
        <time>2021-05-17T07:07:08Z</time>
      </trkpt>
      <trkpt lat="41.4592570" lon="-8.7729520">
        <ele>4.6</ele>
        <time>2021-05-17T07:07:09Z</time>
      </trkpt>
      <trkpt lat="41.4592720" lon="-8.7729540">
        <ele>4.6</ele>
        <time>2021-05-17T07:07:10Z</time>
      </trkpt>
      <trkpt lat="41.4592860" lon="-8.7729560">
        <ele>4.6</ele>
        <time>2021-05-17T07:07:11Z</time>
      </trkpt>
      <trkpt lat="41.4593000" lon="-8.7729510">
        <ele>4.6</ele>
        <time>2021-05-17T07:07:12Z</time>
      </trkpt>
      <trkpt lat="41.4593170" lon="-8.7729500">
        <ele>4.6</ele>
        <time>2021-05-17T07:07:13Z</time>
      </trkpt>
      <trkpt lat="41.4593310" lon="-8.7729510">
        <ele>4.6</ele>
        <time>2021-05-17T07:07:14Z</time>
      </trkpt>
      <trkpt lat="41.4593410" lon="-8.7729500">
        <ele>4.6</ele>
        <time>2021-05-17T07:07:15Z</time>
      </trkpt>
      <trkpt lat="41.4593540" lon="-8.7729500">
        <ele>4.6</ele>
        <time>2021-05-17T07:07:16Z</time>
      </trkpt>
      <trkpt lat="41.4593670" lon="-8.7729430">
        <ele>4.5</ele>
        <time>2021-05-17T07:07:17Z</time>
      </trkpt>
      <trkpt lat="41.4593860" lon="-8.7729390">
        <ele>4.5</ele>
        <time>2021-05-17T07:07:18Z</time>
      </trkpt>
      <trkpt lat="41.4593990" lon="-8.7729370">
        <ele>4.5</ele>
        <time>2021-05-17T07:07:19Z</time>
      </trkpt>
      <trkpt lat="41.4594150" lon="-8.7729370">
        <ele>4.5</ele>
        <time>2021-05-17T07:07:20Z</time>
      </trkpt>
      <trkpt lat="41.4594300" lon="-8.7729310">
        <ele>4.5</ele>
        <time>2021-05-17T07:07:21Z</time>
      </trkpt>
      <trkpt lat="41.4594460" lon="-8.7729290">
        <ele>4.5</ele>
        <time>2021-05-17T07:07:22Z</time>
      </trkpt>
      <trkpt lat="41.4594610" lon="-8.7729230">
        <ele>4.4</ele>
        <time>2021-05-17T07:07:23Z</time>
      </trkpt>
      <trkpt lat="41.4594780" lon="-8.7729220">
        <ele>4.4</ele>
        <time>2021-05-17T07:07:24Z</time>
      </trkpt>
      <trkpt lat="41.4594940" lon="-8.7729190">
        <ele>4.4</ele>
        <time>2021-05-17T07:07:25Z</time>
      </trkpt>
      <trkpt lat="41.4595090" lon="-8.7729140">
        <ele>4.4</ele>
        <time>2021-05-17T07:07:26Z</time>
      </trkpt>
      <trkpt lat="41.4595260" lon="-8.7729110">
        <ele>4.4</ele>
        <time>2021-05-17T07:07:27Z</time>
      </trkpt>
      <trkpt lat="41.4595430" lon="-8.7729120">
        <ele>4.4</ele>
        <time>2021-05-17T07:07:28Z</time>
      </trkpt>
      <trkpt lat="41.4595590" lon="-8.7729110">
        <ele>4.3</ele>
        <time>2021-05-17T07:07:29Z</time>
      </trkpt>
      <trkpt lat="41.4595730" lon="-8.7729040">
        <ele>4.3</ele>
        <time>2021-05-17T07:07:30Z</time>
      </trkpt>
      <trkpt lat="41.4595880" lon="-8.7729040">
        <ele>4.3</ele>
        <time>2021-05-17T07:07:31Z</time>
      </trkpt>
      <trkpt lat="41.4596050" lon="-8.7728950">
        <ele>4.3</ele>
        <time>2021-05-17T07:07:32Z</time>
      </trkpt>
      <trkpt lat="41.4596190" lon="-8.7728920">
        <ele>4.3</ele>
        <time>2021-05-17T07:07:33Z</time>
      </trkpt>
      <trkpt lat="41.4596340" lon="-8.7728890">
        <ele>4.3</ele>
        <time>2021-05-17T07:07:34Z</time>
      </trkpt>
      <trkpt lat="41.4596490" lon="-8.7728920">
        <ele>4.3</ele>
        <time>2021-05-17T07:07:35Z</time>
      </trkpt>
      <trkpt lat="41.4596620" lon="-8.7728860">
        <ele>4.2</ele>
        <time>2021-05-17T07:07:36Z</time>
      </trkpt>
      <trkpt lat="41.4596780" lon="-8.7728870">
        <ele>4.2</ele>
        <time>2021-05-17T07:07:37Z</time>
      </trkpt>
      <trkpt lat="41.4596950" lon="-8.7728810">
        <ele>4.2</ele>
        <time>2021-05-17T07:07:38Z</time>
      </trkpt>
      <trkpt lat="41.4597070" lon="-8.7728780">
        <ele>4.2</ele>
        <time>2021-05-17T07:07:39Z</time>
      </trkpt>
      <trkpt lat="41.4597220" lon="-8.7728770">
        <ele>4.2</ele>
        <time>2021-05-17T07:07:40Z</time>
      </trkpt>
      <trkpt lat="41.4597350" lon="-8.7728750">
        <ele>4.2</ele>
        <time>2021-05-17T07:07:41Z</time>
      </trkpt>
      <trkpt lat="41.4597460" lon="-8.7728670">
        <ele>4.2</ele>
        <time>2021-05-17T07:07:42Z</time>
      </trkpt>
      <trkpt lat="41.4597620" lon="-8.7728650">
        <ele>4.1</ele>
        <time>2021-05-17T07:07:43Z</time>
      </trkpt>
      <trkpt lat="41.4597840" lon="-8.7728610">
        <ele>4.1</ele>
        <time>2021-05-17T07:07:44Z</time>
      </trkpt>
      <trkpt lat="41.4597920" lon="-8.7728600">
        <ele>4.1</ele>
        <time>2021-05-17T07:07:45Z</time>
      </trkpt>
      <trkpt lat="41.4597990" lon="-8.7728590">
        <ele>4.1</ele>
        <time>2021-05-17T07:07:46Z</time>
      </trkpt>
      <trkpt lat="41.4598100" lon="-8.7728580">
        <ele>4.1</ele>
        <time>2021-05-17T07:07:47Z</time>
      </trkpt>
      <trkpt lat="41.4598270" lon="-8.7728520">
        <ele>4.1</ele>
        <time>2021-05-17T07:07:48Z</time>
      </trkpt>
      <trkpt lat="41.4598460" lon="-8.7728420">
        <ele>4.1</ele>
        <time>2021-05-17T07:07:49Z</time>
      </trkpt>
      <trkpt lat="41.4598540" lon="-8.7728370">
        <ele>4.1</ele>
        <time>2021-05-17T07:07:50Z</time>
      </trkpt>
      <trkpt lat="41.4598630" lon="-8.7728330">
        <ele>4.1</ele>
        <time>2021-05-17T07:07:51Z</time>
      </trkpt>
      <trkpt lat="41.4598720" lon="-8.7728260">
        <ele>4.1</ele>
        <time>2021-05-17T07:07:52Z</time>
      </trkpt>
      <trkpt lat="41.4598950" lon="-8.7728210">
        <ele>4.1</ele>
        <time>2021-05-17T07:07:53Z</time>
      </trkpt>
      <trkpt lat="41.4599110" lon="-8.7728120">
        <ele>4.1</ele>
        <time>2021-05-17T07:07:54Z</time>
      </trkpt>
      <trkpt lat="41.4599280" lon="-8.7728100">
        <ele>4.0</ele>
        <time>2021-05-17T07:07:55Z</time>
      </trkpt>
      <trkpt lat="41.4599440" lon="-8.7728090">
        <ele>4.0</ele>
        <time>2021-05-17T07:07:56Z</time>
      </trkpt>
      <trkpt lat="41.4599610" lon="-8.7728080">
        <ele>4.0</ele>
        <time>2021-05-17T07:07:57Z</time>
      </trkpt>
      <trkpt lat="41.4599740" lon="-8.7728020">
        <ele>4.0</ele>
        <time>2021-05-17T07:07:58Z</time>
      </trkpt>
      <trkpt lat="41.4599880" lon="-8.7727950">
        <ele>4.0</ele>
        <time>2021-05-17T07:07:59Z</time>
      </trkpt>
      <trkpt lat="41.4599960" lon="-8.7727870">
        <ele>4.0</ele>
        <time>2021-05-17T07:08:00Z</time>
      </trkpt>
      <trkpt lat="41.4600130" lon="-8.7727800">
        <ele>4.0</ele>
        <time>2021-05-17T07:08:01Z</time>
      </trkpt>
      <trkpt lat="41.4600240" lon="-8.7727700">
        <ele>4.0</ele>
        <time>2021-05-17T07:08:02Z</time>
      </trkpt>
      <trkpt lat="41.4600360" lon="-8.7727590">
        <ele>4.0</ele>
        <time>2021-05-17T07:08:03Z</time>
      </trkpt>
      <trkpt lat="41.4600510" lon="-8.7727470">
        <ele>4.0</ele>
        <time>2021-05-17T07:08:04Z</time>
      </trkpt>
      <trkpt lat="41.4600660" lon="-8.7727360">
        <ele>4.0</ele>
        <time>2021-05-17T07:08:05Z</time>
      </trkpt>
      <trkpt lat="41.4600810" lon="-8.7727320">
        <ele>4.0</ele>
        <time>2021-05-17T07:08:06Z</time>
      </trkpt>
      <trkpt lat="41.4600980" lon="-8.7727320">
        <ele>4.0</ele>
        <time>2021-05-17T07:08:07Z</time>
      </trkpt>
      <trkpt lat="41.4601130" lon="-8.7727280">
        <ele>3.9</ele>
        <time>2021-05-17T07:08:08Z</time>
      </trkpt>
      <trkpt lat="41.4601280" lon="-8.7727200">
        <ele>3.9</ele>
        <time>2021-05-17T07:08:09Z</time>
      </trkpt>
      <trkpt lat="41.4601450" lon="-8.7727160">
        <ele>3.9</ele>
        <time>2021-05-17T07:08:10Z</time>
      </trkpt>
      <trkpt lat="41.4601580" lon="-8.7727020">
        <ele>3.9</ele>
        <time>2021-05-17T07:08:11Z</time>
      </trkpt>
      <trkpt lat="41.4601750" lon="-8.7726990">
        <ele>3.9</ele>
        <time>2021-05-17T07:08:12Z</time>
      </trkpt>
      <trkpt lat="41.4601890" lon="-8.7726900">
        <ele>3.9</ele>
        <time>2021-05-17T07:08:13Z</time>
      </trkpt>
      <trkpt lat="41.4602030" lon="-8.7726820">
        <ele>3.9</ele>
        <time>2021-05-17T07:08:14Z</time>
      </trkpt>
      <trkpt lat="41.4602190" lon="-8.7726810">
        <ele>3.9</ele>
        <time>2021-05-17T07:08:15Z</time>
      </trkpt>
      <trkpt lat="41.4602360" lon="-8.7726860">
        <ele>3.9</ele>
        <time>2021-05-17T07:08:16Z</time>
      </trkpt>
      <trkpt lat="41.4602520" lon="-8.7726880">
        <ele>3.9</ele>
        <time>2021-05-17T07:08:17Z</time>
      </trkpt>
      <trkpt lat="41.4602680" lon="-8.7726840">
        <ele>3.9</ele>
        <time>2021-05-17T07:08:18Z</time>
      </trkpt>
      <trkpt lat="41.4602810" lon="-8.7726780">
        <ele>3.9</ele>
        <time>2021-05-17T07:08:19Z</time>
      </trkpt>
      <trkpt lat="41.4603030" lon="-8.7726750">
        <ele>3.9</ele>
        <time>2021-05-17T07:08:20Z</time>
      </trkpt>
      <trkpt lat="41.4603110" lon="-8.7726750">
        <ele>3.9</ele>
        <time>2021-05-17T07:08:21Z</time>
      </trkpt>
      <trkpt lat="41.4603200" lon="-8.7726750">
        <ele>3.9</ele>
        <time>2021-05-17T07:08:22Z</time>
      </trkpt>
      <trkpt lat="41.4603320" lon="-8.7726660">
        <ele>4.0</ele>
        <time>2021-05-17T07:08:23Z</time>
      </trkpt>
      <trkpt lat="41.4603450" lon="-8.7726610">
        <ele>4.0</ele>
        <time>2021-05-17T07:08:24Z</time>
      </trkpt>
      <trkpt lat="41.4603540" lon="-8.7726550">
        <ele>4.0</ele>
        <time>2021-05-17T07:08:25Z</time>
      </trkpt>
      <trkpt lat="41.4603650" lon="-8.7726520">
        <ele>4.0</ele>
        <time>2021-05-17T07:08:26Z</time>
      </trkpt>
      <trkpt lat="41.4603800" lon="-8.7726530">
        <ele>4.0</ele>
        <time>2021-05-17T07:08:27Z</time>
      </trkpt>
      <trkpt lat="41.4603990" lon="-8.7726480">
        <ele>4.0</ele>
        <time>2021-05-17T07:08:28Z</time>
      </trkpt>
      <trkpt lat="41.4604080" lon="-8.7726430">
        <ele>4.0</ele>
        <time>2021-05-17T07:08:29Z</time>
      </trkpt>
      <trkpt lat="41.4604170" lon="-8.7726390">
        <ele>4.0</ele>
        <time>2021-05-17T07:08:30Z</time>
      </trkpt>
      <trkpt lat="41.4604350" lon="-8.7726330">
        <ele>4.0</ele>
        <time>2021-05-17T07:08:31Z</time>
      </trkpt>
      <trkpt lat="41.4604460" lon="-8.7726270">
        <ele>4.0</ele>
        <time>2021-05-17T07:08:32Z</time>
      </trkpt>
      <trkpt lat="41.4604690" lon="-8.7726160">
        <ele>4.0</ele>
        <time>2021-05-17T07:08:33Z</time>
      </trkpt>
      <trkpt lat="41.4604790" lon="-8.7726140">
        <ele>4.0</ele>
        <time>2021-05-17T07:08:34Z</time>
      </trkpt>
      <trkpt lat="41.4604890" lon="-8.7726120">
        <ele>4.0</ele>
        <time>2021-05-17T07:08:35Z</time>
      </trkpt>
      <trkpt lat="41.4605040" lon="-8.7726090">
        <ele>4.0</ele>
        <time>2021-05-17T07:08:36Z</time>
      </trkpt>
      <trkpt lat="41.4605210" lon="-8.7726110">
        <ele>4.0</ele>
        <time>2021-05-17T07:08:37Z</time>
      </trkpt>
      <trkpt lat="41.4605360" lon="-8.7726080">
        <ele>4.0</ele>
        <time>2021-05-17T07:08:38Z</time>
      </trkpt>
      <trkpt lat="41.4605490" lon="-8.7726020">
        <ele>4.0</ele>
        <time>2021-05-17T07:08:39Z</time>
      </trkpt>
      <trkpt lat="41.4605680" lon="-8.7725860">
        <ele>4.1</ele>
        <time>2021-05-17T07:08:40Z</time>
      </trkpt>
      <trkpt lat="41.4605750" lon="-8.7725780">
        <ele>4.1</ele>
        <time>2021-05-17T07:08:41Z</time>
      </trkpt>
      <trkpt lat="41.4605820" lon="-8.7725710">
        <ele>4.1</ele>
        <time>2021-05-17T07:08:42Z</time>
      </trkpt>
      <trkpt lat="41.4605890" lon="-8.7725340">
        <ele>4.0</ele>
        <time>2021-05-17T07:08:43Z</time>
      </trkpt>
      <trkpt lat="41.4605910" lon="-8.7725220">
        <ele>4.0</ele>
        <time>2021-05-17T07:08:44Z</time>
      </trkpt>
      <trkpt lat="41.4605970" lon="-8.7725010">
        <ele>4.0</ele>
        <time>2021-05-17T07:08:45Z</time>
      </trkpt>
      <trkpt lat="41.4606020" lon="-8.7724810">
        <ele>4.0</ele>
        <time>2021-05-17T07:08:46Z</time>
      </trkpt>
      <trkpt lat="41.4605920" lon="-8.7724470">
        <ele>4.0</ele>
        <time>2021-05-17T07:08:47Z</time>
      </trkpt>
      <trkpt lat="41.4605860" lon="-8.7724380">
        <ele>4.0</ele>
        <time>2021-05-17T07:08:48Z</time>
      </trkpt>
      <trkpt lat="41.4605790" lon="-8.7724230">
        <ele>4.0</ele>
        <time>2021-05-17T07:08:49Z</time>
      </trkpt>
      <trkpt lat="41.4605690" lon="-8.7724070">
        <ele>4.0</ele>
        <time>2021-05-17T07:08:50Z</time>
      </trkpt>
      <trkpt lat="41.4605590" lon="-8.7723780">
        <ele>4.0</ele>
        <time>2021-05-17T07:08:51Z</time>
      </trkpt>
      <trkpt lat="41.4605530" lon="-8.7723660">
        <ele>4.0</ele>
        <time>2021-05-17T07:08:52Z</time>
      </trkpt>
      <trkpt lat="41.4605480" lon="-8.7723550">
        <ele>4.0</ele>
        <time>2021-05-17T07:08:53Z</time>
      </trkpt>
      <trkpt lat="41.4605440" lon="-8.7723330">
        <ele>4.0</ele>
        <time>2021-05-17T07:08:54Z</time>
      </trkpt>
      <trkpt lat="41.4605390" lon="-8.7723180">
        <ele>4.0</ele>
        <time>2021-05-17T07:08:55Z</time>
      </trkpt>
      <trkpt lat="41.4605300" lon="-8.7722950">
        <ele>4.0</ele>
        <time>2021-05-17T07:08:56Z</time>
      </trkpt>
      <trkpt lat="41.4605250" lon="-8.7722780">
        <ele>4.0</ele>
        <time>2021-05-17T07:08:57Z</time>
      </trkpt>
      <trkpt lat="41.4605190" lon="-8.7722590">
        <ele>4.0</ele>
        <time>2021-05-17T07:08:58Z</time>
      </trkpt>
      <trkpt lat="41.4605160" lon="-8.7722370">
        <ele>4.1</ele>
        <time>2021-05-17T07:08:59Z</time>
      </trkpt>
      <trkpt lat="41.4605090" lon="-8.7722200">
        <ele>4.1</ele>
        <time>2021-05-17T07:09:00Z</time>
      </trkpt>
      <trkpt lat="41.4604980" lon="-8.7722040">
        <ele>4.1</ele>
        <time>2021-05-17T07:09:01Z</time>
      </trkpt>
      <trkpt lat="41.4604920" lon="-8.7721880">
        <ele>4.1</ele>
        <time>2021-05-17T07:09:02Z</time>
      </trkpt>
      <trkpt lat="41.4604850" lon="-8.7721720">
        <ele>4.1</ele>
        <time>2021-05-17T07:09:03Z</time>
      </trkpt>
      <trkpt lat="41.4604790" lon="-8.7721410">
        <ele>4.1</ele>
        <time>2021-05-17T07:09:04Z</time>
      </trkpt>
      <trkpt lat="41.4604760" lon="-8.7721300">
        <ele>4.1</ele>
        <time>2021-05-17T07:09:05Z</time>
      </trkpt>
      <trkpt lat="41.4604740" lon="-8.7721180">
        <ele>4.1</ele>
        <time>2021-05-17T07:09:06Z</time>
      </trkpt>
      <trkpt lat="41.4604650" lon="-8.7721020">
        <ele>4.2</ele>
        <time>2021-05-17T07:09:07Z</time>
      </trkpt>
      <trkpt lat="41.4604560" lon="-8.7720840">
        <ele>4.2</ele>
        <time>2021-05-17T07:09:08Z</time>
      </trkpt>
      <trkpt lat="41.4604500" lon="-8.7720650">
        <ele>4.2</ele>
        <time>2021-05-17T07:09:09Z</time>
      </trkpt>
      <trkpt lat="41.4604460" lon="-8.7720430">
        <ele>4.2</ele>
        <time>2021-05-17T07:09:10Z</time>
      </trkpt>
      <trkpt lat="41.4604350" lon="-8.7720250">
        <ele>4.2</ele>
        <time>2021-05-17T07:09:11Z</time>
      </trkpt>
      <trkpt lat="41.4604320" lon="-8.7720050">
        <ele>4.2</ele>
        <time>2021-05-17T07:09:12Z</time>
      </trkpt>
      <trkpt lat="41.4604290" lon="-8.7719850">
        <ele>4.2</ele>
        <time>2021-05-17T07:09:13Z</time>
      </trkpt>
      <trkpt lat="41.4604230" lon="-8.7719660">
        <ele>4.2</ele>
        <time>2021-05-17T07:09:14Z</time>
      </trkpt>
      <trkpt lat="41.4604150" lon="-8.7719490">
        <ele>4.2</ele>
        <time>2021-05-17T07:09:15Z</time>
      </trkpt>
      <trkpt lat="41.4604090" lon="-8.7719340">
        <ele>4.3</ele>
        <time>2021-05-17T07:09:16Z</time>
      </trkpt>
      <trkpt lat="41.4603980" lon="-8.7719060">
        <ele>4.3</ele>
        <time>2021-05-17T07:09:17Z</time>
      </trkpt>
      <trkpt lat="41.4603950" lon="-8.7718950">
        <ele>4.3</ele>
        <time>2021-05-17T07:09:18Z</time>
      </trkpt>
      <trkpt lat="41.4603910" lon="-8.7718840">
        <ele>4.3</ele>
        <time>2021-05-17T07:09:19Z</time>
      </trkpt>
      <trkpt lat="41.4603890" lon="-8.7718630">
        <ele>4.3</ele>
        <time>2021-05-17T07:09:20Z</time>
      </trkpt>
      <trkpt lat="41.4603820" lon="-8.7718440">
        <ele>4.3</ele>
        <time>2021-05-17T07:09:21Z</time>
      </trkpt>
      <trkpt lat="41.4603750" lon="-8.7718250">
        <ele>4.3</ele>
        <time>2021-05-17T07:09:22Z</time>
      </trkpt>
      <trkpt lat="41.4603710" lon="-8.7718030">
        <ele>4.4</ele>
        <time>2021-05-17T07:09:23Z</time>
      </trkpt>
      <trkpt lat="41.4603640" lon="-8.7717860">
        <ele>4.4</ele>
        <time>2021-05-17T07:09:24Z</time>
      </trkpt>
      <trkpt lat="41.4603570" lon="-8.7717660">
        <ele>4.4</ele>
        <time>2021-05-17T07:09:25Z</time>
      </trkpt>
      <trkpt lat="41.4603520" lon="-8.7717490">
        <ele>4.4</ele>
        <time>2021-05-17T07:09:26Z</time>
      </trkpt>
      <trkpt lat="41.4603480" lon="-8.7717300">
        <ele>4.4</ele>
        <time>2021-05-17T07:09:27Z</time>
      </trkpt>
      <trkpt lat="41.4603400" lon="-8.7717150">
        <ele>4.5</ele>
        <time>2021-05-17T07:09:28Z</time>
      </trkpt>
      <trkpt lat="41.4603340" lon="-8.7716980">
        <ele>4.5</ele>
        <time>2021-05-17T07:09:29Z</time>
      </trkpt>
      <trkpt lat="41.4603280" lon="-8.7716830">
        <ele>4.5</ele>
        <time>2021-05-17T07:09:30Z</time>
      </trkpt>
      <trkpt lat="41.4603210" lon="-8.7716620">
        <ele>4.5</ele>
        <time>2021-05-17T07:09:31Z</time>
      </trkpt>
      <trkpt lat="41.4603140" lon="-8.7716460">
        <ele>4.5</ele>
        <time>2021-05-17T07:09:32Z</time>
      </trkpt>
      <trkpt lat="41.4603110" lon="-8.7716270">
        <ele>4.6</ele>
        <time>2021-05-17T07:09:33Z</time>
      </trkpt>
      <trkpt lat="41.4603000" lon="-8.7716100">
        <ele>4.6</ele>
        <time>2021-05-17T07:09:34Z</time>
      </trkpt>
      <trkpt lat="41.4602950" lon="-8.7715910">
        <ele>4.7</ele>
        <time>2021-05-17T07:09:35Z</time>
      </trkpt>
      <trkpt lat="41.4602900" lon="-8.7715720">
        <ele>4.7</ele>
        <time>2021-05-17T07:09:36Z</time>
      </trkpt>
      <trkpt lat="41.4602830" lon="-8.7715550">
        <ele>4.7</ele>
        <time>2021-05-17T07:09:37Z</time>
      </trkpt>
      <trkpt lat="41.4602690" lon="-8.7715390">
        <ele>4.8</ele>
        <time>2021-05-17T07:09:38Z</time>
      </trkpt>
      <trkpt lat="41.4602560" lon="-8.7715250">
        <ele>4.8</ele>
        <time>2021-05-17T07:09:39Z</time>
      </trkpt>
      <trkpt lat="41.4602420" lon="-8.7715020">
        <ele>4.9</ele>
        <time>2021-05-17T07:09:40Z</time>
      </trkpt>
      <trkpt lat="41.4602390" lon="-8.7714910">
        <ele>4.9</ele>
        <time>2021-05-17T07:09:41Z</time>
      </trkpt>
      <trkpt lat="41.4602360" lon="-8.7714810">
        <ele>4.9</ele>
        <time>2021-05-17T07:09:42Z</time>
      </trkpt>
      <trkpt lat="41.4602290" lon="-8.7714600">
        <ele>5.0</ele>
        <time>2021-05-17T07:09:43Z</time>
      </trkpt>
      <trkpt lat="41.4602260" lon="-8.7714450">
        <ele>5.0</ele>
        <time>2021-05-17T07:09:44Z</time>
      </trkpt>
      <trkpt lat="41.4602200" lon="-8.7714210">
        <ele>5.1</ele>
        <time>2021-05-17T07:09:45Z</time>
      </trkpt>
      <trkpt lat="41.4602180" lon="-8.7714100">
        <ele>5.1</ele>
        <time>2021-05-17T07:09:46Z</time>
      </trkpt>
      <trkpt lat="41.4602150" lon="-8.7713980">
        <ele>5.1</ele>
        <time>2021-05-17T07:09:47Z</time>
      </trkpt>
      <trkpt lat="41.4602080" lon="-8.7713740">
        <ele>5.3</ele>
        <time>2021-05-17T07:09:48Z</time>
      </trkpt>
      <trkpt lat="41.4602030" lon="-8.7713620">
        <ele>5.3</ele>
        <time>2021-05-17T07:09:49Z</time>
      </trkpt>
      <trkpt lat="41.4601970" lon="-8.7713510">
        <ele>5.3</ele>
        <time>2021-05-17T07:09:50Z</time>
      </trkpt>
      <trkpt lat="41.4601930" lon="-8.7713370">
        <ele>5.4</ele>
        <time>2021-05-17T07:09:51Z</time>
      </trkpt>
      <trkpt lat="41.4601860" lon="-8.7713190">
        <ele>5.4</ele>
        <time>2021-05-17T07:09:52Z</time>
      </trkpt>
      <trkpt lat="41.4601880" lon="-8.7713100">
        <ele>5.4</ele>
        <time>2021-05-17T07:09:53Z</time>
      </trkpt>
      <trkpt lat="41.4601840" lon="-8.7712820">
        <ele>5.5</ele>
        <time>2021-05-17T07:09:54Z</time>
      </trkpt>
      <trkpt lat="41.4601810" lon="-8.7712720">
        <ele>5.5</ele>
        <time>2021-05-17T07:09:55Z</time>
      </trkpt>
      <trkpt lat="41.4601790" lon="-8.7712620">
        <ele>5.5</ele>
        <time>2021-05-17T07:09:56Z</time>
      </trkpt>
      <trkpt lat="41.4601710" lon="-8.7712200">
        <ele>5.7</ele>
        <time>2021-05-17T07:09:57Z</time>
      </trkpt>
      <trkpt lat="41.4601690" lon="-8.7712110">
        <ele>5.7</ele>
        <time>2021-05-17T07:09:58Z</time>
      </trkpt>
      <trkpt lat="41.4601620" lon="-8.7711930">
        <ele>5.8</ele>
        <time>2021-05-17T07:09:59Z</time>
      </trkpt>
      <trkpt lat="41.4601580" lon="-8.7711720">
        <ele>5.8</ele>
        <time>2021-05-17T07:10:00Z</time>
      </trkpt>
      <trkpt lat="41.4601480" lon="-8.7711560">
        <ele>5.9</ele>
        <time>2021-05-17T07:10:01Z</time>
      </trkpt>
      <trkpt lat="41.4601440" lon="-8.7711370">
        <ele>5.9</ele>
        <time>2021-05-17T07:10:02Z</time>
      </trkpt>
      <trkpt lat="41.4601370" lon="-8.7711070">
        <ele>6.1</ele>
        <time>2021-05-17T07:10:03Z</time>
      </trkpt>
      <trkpt lat="41.4601340" lon="-8.7710980">
        <ele>6.1</ele>
        <time>2021-05-17T07:10:04Z</time>
      </trkpt>
      <trkpt lat="41.4601310" lon="-8.7710880">
        <ele>6.1</ele>
        <time>2021-05-17T07:10:05Z</time>
      </trkpt>
      <trkpt lat="41.4601270" lon="-8.7710660">
        <ele>6.1</ele>
        <time>2021-05-17T07:10:06Z</time>
      </trkpt>
      <trkpt lat="41.4601260" lon="-8.7710510">
        <ele>6.1</ele>
        <time>2021-05-17T07:10:07Z</time>
      </trkpt>
      <trkpt lat="41.4601260" lon="-8.7710370">
        <ele>6.3</ele>
        <time>2021-05-17T07:10:08Z</time>
      </trkpt>
      <trkpt lat="41.4601230" lon="-8.7710100">
        <ele>6.3</ele>
        <time>2021-05-17T07:10:09Z</time>
      </trkpt>
      <trkpt lat="41.4601250" lon="-8.7709990">
        <ele>6.3</ele>
        <time>2021-05-17T07:10:10Z</time>
      </trkpt>
      <trkpt lat="41.4601230" lon="-8.7709850">
        <ele>6.4</ele>
        <time>2021-05-17T07:10:11Z</time>
      </trkpt>
      <trkpt lat="41.4601190" lon="-8.7709670">
        <ele>6.4</ele>
        <time>2021-05-17T07:10:12Z</time>
      </trkpt>
      <trkpt lat="41.4601200" lon="-8.7709520">
        <ele>6.5</ele>
        <time>2021-05-17T07:10:13Z</time>
      </trkpt>
      <trkpt lat="41.4601070" lon="-8.7709170">
        <ele>6.5</ele>
        <time>2021-05-17T07:10:14Z</time>
      </trkpt>
      <trkpt lat="41.4601060" lon="-8.7709060">
        <ele>6.6</ele>
        <time>2021-05-17T07:10:15Z</time>
      </trkpt>
      <trkpt lat="41.4600970" lon="-8.7708790">
        <ele>6.6</ele>
        <time>2021-05-17T07:10:16Z</time>
      </trkpt>
      <trkpt lat="41.4600920" lon="-8.7708690">
        <ele>6.6</ele>
        <time>2021-05-17T07:10:17Z</time>
      </trkpt>
      <trkpt lat="41.4600880" lon="-8.7708590">
        <ele>6.7</ele>
        <time>2021-05-17T07:10:18Z</time>
      </trkpt>
      <trkpt lat="41.4600990" lon="-8.7708390">
        <ele>6.7</ele>
        <time>2021-05-17T07:10:19Z</time>
      </trkpt>
      <trkpt lat="41.4601040" lon="-8.7708250">
        <ele>6.7</ele>
        <time>2021-05-17T07:10:20Z</time>
      </trkpt>
      <trkpt lat="41.4601090" lon="-8.7708110">
        <ele>6.8</ele>
        <time>2021-05-17T07:10:21Z</time>
      </trkpt>
      <trkpt lat="41.4601260" lon="-8.7707940">
        <ele>6.8</ele>
        <time>2021-05-17T07:10:22Z</time>
      </trkpt>
      <trkpt lat="41.4601330" lon="-8.7707880">
        <ele>6.9</ele>
        <time>2021-05-17T07:10:23Z</time>
      </trkpt>
      <trkpt lat="41.4601410" lon="-8.7707820">
        <ele>6.9</ele>
        <time>2021-05-17T07:10:24Z</time>
      </trkpt>
      <trkpt lat="41.4601630" lon="-8.7707570">
        <ele>7.1</ele>
        <time>2021-05-17T07:10:25Z</time>
      </trkpt>
      <trkpt lat="41.4601680" lon="-8.7707490">
        <ele>7.1</ele>
        <time>2021-05-17T07:10:26Z</time>
      </trkpt>
      <trkpt lat="41.4601800" lon="-8.7707340">
        <ele>7.2</ele>
        <time>2021-05-17T07:10:27Z</time>
      </trkpt>
      <trkpt lat="41.4601900" lon="-8.7707240">
        <ele>7.2</ele>
        <time>2021-05-17T07:10:28Z</time>
      </trkpt>
      <trkpt lat="41.4602040" lon="-8.7707040">
        <ele>7.3</ele>
        <time>2021-05-17T07:10:29Z</time>
      </trkpt>
      <trkpt lat="41.4602080" lon="-8.7706950">
        <ele>7.3</ele>
        <time>2021-05-17T07:10:30Z</time>
      </trkpt>
      <trkpt lat="41.4602120" lon="-8.7706850">
        <ele>7.4</ele>
        <time>2021-05-17T07:10:31Z</time>
      </trkpt>
      <trkpt lat="41.4602230" lon="-8.7706760">
        <ele>7.4</ele>
        <time>2021-05-17T07:10:32Z</time>
      </trkpt>
      <trkpt lat="41.4602350" lon="-8.7706580">
        <ele>7.5</ele>
        <time>2021-05-17T07:10:33Z</time>
      </trkpt>
      <trkpt lat="41.4602440" lon="-8.7706460">
        <ele>7.5</ele>
        <time>2021-05-17T07:10:34Z</time>
      </trkpt>
      <trkpt lat="41.4602560" lon="-8.7706360">
        <ele>7.5</ele>
        <time>2021-05-17T07:10:35Z</time>
      </trkpt>
      <trkpt lat="41.4602710" lon="-8.7706240">
        <ele>7.6</ele>
        <time>2021-05-17T07:10:36Z</time>
      </trkpt>
      <trkpt lat="41.4602830" lon="-8.7706210">
        <ele>7.6</ele>
        <time>2021-05-17T07:10:37Z</time>
      </trkpt>
      <trkpt lat="41.4602940" lon="-8.7706130">
        <ele>7.7</ele>
        <time>2021-05-17T07:10:38Z</time>
      </trkpt>
      <trkpt lat="41.4603100" lon="-8.7706050">
        <ele>7.8</ele>
        <time>2021-05-17T07:10:39Z</time>
      </trkpt>
      <trkpt lat="41.4603280" lon="-8.7706010">
        <ele>7.9</ele>
        <time>2021-05-17T07:10:40Z</time>
      </trkpt>
      <trkpt lat="41.4603400" lon="-8.7705970">
        <ele>7.9</ele>
        <time>2021-05-17T07:10:41Z</time>
      </trkpt>
      <trkpt lat="41.4603500" lon="-8.7705920">
        <ele>7.9</ele>
        <time>2021-05-17T07:10:42Z</time>
      </trkpt>
      <trkpt lat="41.4603690" lon="-8.7705910">
        <ele>8.0</ele>
        <time>2021-05-17T07:10:43Z</time>
      </trkpt>
      <trkpt lat="41.4603820" lon="-8.7705910">
        <ele>8.0</ele>
        <time>2021-05-17T07:10:44Z</time>
      </trkpt>
      <trkpt lat="41.4603980" lon="-8.7705850">
        <ele>8.1</ele>
        <time>2021-05-17T07:10:45Z</time>
      </trkpt>
      <trkpt lat="41.4604140" lon="-8.7705710">
        <ele>8.1</ele>
        <time>2021-05-17T07:10:46Z</time>
      </trkpt>
      <trkpt lat="41.4604230" lon="-8.7705650">
        <ele>8.3</ele>
        <time>2021-05-17T07:10:47Z</time>
      </trkpt>
      <trkpt lat="41.4604330" lon="-8.7705590">
        <ele>8.3</ele>
        <time>2021-05-17T07:10:48Z</time>
      </trkpt>
      <trkpt lat="41.4604430" lon="-8.7705520">
        <ele>8.3</ele>
        <time>2021-05-17T07:10:49Z</time>
      </trkpt>
      <trkpt lat="41.4604590" lon="-8.7705490">
        <ele>8.4</ele>
        <time>2021-05-17T07:10:50Z</time>
      </trkpt>
      <trkpt lat="41.4604690" lon="-8.7705420">
        <ele>8.4</ele>
        <time>2021-05-17T07:10:51Z</time>
      </trkpt>
      <trkpt lat="41.4604740" lon="-8.7705330">
        <ele>8.4</ele>
        <time>2021-05-17T07:10:52Z</time>
      </trkpt>
      <trkpt lat="41.4604800" lon="-8.7705220">
        <ele>8.5</ele>
        <time>2021-05-17T07:10:53Z</time>
      </trkpt>
      <trkpt lat="41.4604810" lon="-8.7704940">
        <ele>8.5</ele>
        <time>2021-05-17T07:10:54Z</time>
      </trkpt>
      <trkpt lat="41.4604820" lon="-8.7704770">
        <ele>8.6</ele>
        <time>2021-05-17T07:10:55Z</time>
      </trkpt>
      <trkpt lat="41.4604810" lon="-8.7704510">
        <ele>8.5</ele>
        <time>2021-05-17T07:10:56Z</time>
      </trkpt>
      <trkpt lat="41.4604820" lon="-8.7704310">
        <ele>8.6</ele>
        <time>2021-05-17T07:10:57Z</time>
      </trkpt>
      <trkpt lat="41.4604780" lon="-8.7704150">
        <ele>8.6</ele>
        <time>2021-05-17T07:10:58Z</time>
      </trkpt>
      <trkpt lat="41.4604750" lon="-8.7703880">
        <ele>8.6</ele>
        <time>2021-05-17T07:10:59Z</time>
      </trkpt>
      <trkpt lat="41.4604750" lon="-8.7703700">
        <ele>8.6</ele>
        <time>2021-05-17T07:11:00Z</time>
      </trkpt>
      <trkpt lat="41.4604700" lon="-8.7703490">
        <ele>8.5</ele>
        <time>2021-05-17T07:11:01Z</time>
      </trkpt>
      <trkpt lat="41.4604680" lon="-8.7703350">
        <ele>8.5</ele>
        <time>2021-05-17T07:11:02Z</time>
      </trkpt>
      <trkpt lat="41.4604700" lon="-8.7703020">
        <ele>8.5</ele>
        <time>2021-05-17T07:11:03Z</time>
      </trkpt>
      <trkpt lat="41.4604670" lon="-8.7702840">
        <ele>8.5</ele>
        <time>2021-05-17T07:11:04Z</time>
      </trkpt>
      <trkpt lat="41.4604650" lon="-8.7702620">
        <ele>8.5</ele>
        <time>2021-05-17T07:11:05Z</time>
      </trkpt>
      <trkpt lat="41.4604620" lon="-8.7702420">
        <ele>8.5</ele>
        <time>2021-05-17T07:11:06Z</time>
      </trkpt>
      <trkpt lat="41.4604590" lon="-8.7702260">
        <ele>8.5</ele>
        <time>2021-05-17T07:11:07Z</time>
      </trkpt>
      <trkpt lat="41.4604550" lon="-8.7702130">
        <ele>8.5</ele>
        <time>2021-05-17T07:11:08Z</time>
      </trkpt>
      <trkpt lat="41.4604570" lon="-8.7701870">
        <ele>8.5</ele>
        <time>2021-05-17T07:11:09Z</time>
      </trkpt>
      <trkpt lat="41.4604570" lon="-8.7701710">
        <ele>8.4</ele>
        <time>2021-05-17T07:11:10Z</time>
      </trkpt>
      <trkpt lat="41.4604550" lon="-8.7701480">
        <ele>8.4</ele>
        <time>2021-05-17T07:11:11Z</time>
      </trkpt>
      <trkpt lat="41.4604500" lon="-8.7701350">
        <ele>8.4</ele>
        <time>2021-05-17T07:11:12Z</time>
      </trkpt>
      <trkpt lat="41.4604480" lon="-8.7701230">
        <ele>8.3</ele>
        <time>2021-05-17T07:11:13Z</time>
      </trkpt>
      <trkpt lat="41.4604470" lon="-8.7701020">
        <ele>8.3</ele>
        <time>2021-05-17T07:11:14Z</time>
      </trkpt>
      <trkpt lat="41.4604430" lon="-8.7700730">
        <ele>8.3</ele>
        <time>2021-05-17T07:11:15Z</time>
      </trkpt>
      <trkpt lat="41.4604410" lon="-8.7700620">
        <ele>8.3</ele>
        <time>2021-05-17T07:11:16Z</time>
      </trkpt>
      <trkpt lat="41.4604400" lon="-8.7700500">
        <ele>8.3</ele>
        <time>2021-05-17T07:11:17Z</time>
      </trkpt>
      <trkpt lat="41.4604360" lon="-8.7700320">
        <ele>8.3</ele>
        <time>2021-05-17T07:11:18Z</time>
      </trkpt>
      <trkpt lat="41.4604380" lon="-8.7700100">
        <ele>8.3</ele>
        <time>2021-05-17T07:11:19Z</time>
      </trkpt>
      <trkpt lat="41.4604340" lon="-8.7699970">
        <ele>8.2</ele>
        <time>2021-05-17T07:11:20Z</time>
      </trkpt>
      <trkpt lat="41.4604350" lon="-8.7699830">
        <ele>8.2</ele>
        <time>2021-05-17T07:11:21Z</time>
      </trkpt>
      <trkpt lat="41.4604340" lon="-8.7699690">
        <ele>8.2</ele>
        <time>2021-05-17T07:11:22Z</time>
      </trkpt>
      <trkpt lat="41.4604420" lon="-8.7699470">
        <ele>8.2</ele>
        <time>2021-05-17T07:11:23Z</time>
      </trkpt>
      <trkpt lat="41.4604480" lon="-8.7699350">
        <ele>8.2</ele>
        <time>2021-05-17T07:11:24Z</time>
      </trkpt>
      <trkpt lat="41.4604530" lon="-8.7699230">
        <ele>8.2</ele>
        <time>2021-05-17T07:11:25Z</time>
      </trkpt>
      <trkpt lat="41.4604600" lon="-8.7699050">
        <ele>8.2</ele>
        <time>2021-05-17T07:11:26Z</time>
      </trkpt>
      <trkpt lat="41.4604620" lon="-8.7698950">
        <ele>8.2</ele>
        <time>2021-05-17T07:11:27Z</time>
      </trkpt>
      <trkpt lat="41.4604640" lon="-8.7698790">
        <ele>8.1</ele>
        <time>2021-05-17T07:11:28Z</time>
      </trkpt>
      <trkpt lat="41.4604750" lon="-8.7698720">
        <ele>8.1</ele>
        <time>2021-05-17T07:11:29Z</time>
      </trkpt>
      <trkpt lat="41.4604940" lon="-8.7698670">
        <ele>8.1</ele>
        <time>2021-05-17T07:11:30Z</time>
      </trkpt>
      <trkpt lat="41.4605110" lon="-8.7698610">
        <ele>8.1</ele>
        <time>2021-05-17T07:11:31Z</time>
      </trkpt>
      <trkpt lat="41.4605230" lon="-8.7698660">
        <ele>8.1</ele>
        <time>2021-05-17T07:11:32Z</time>
      </trkpt>
      <trkpt lat="41.4605380" lon="-8.7698660">
        <ele>8.1</ele>
        <time>2021-05-17T07:11:33Z</time>
      </trkpt>
      <trkpt lat="41.4605540" lon="-8.7698700">
        <ele>8.1</ele>
        <time>2021-05-17T07:11:34Z</time>
      </trkpt>
      <trkpt lat="41.4605720" lon="-8.7698710">
        <ele>8.1</ele>
        <time>2021-05-17T07:11:35Z</time>
      </trkpt>
      <trkpt lat="41.4605890" lon="-8.7698710">
        <ele>8.1</ele>
        <time>2021-05-17T07:11:36Z</time>
      </trkpt>
      <trkpt lat="41.4606040" lon="-8.7698820">
        <ele>8.1</ele>
        <time>2021-05-17T07:11:37Z</time>
      </trkpt>
      <trkpt lat="41.4606180" lon="-8.7698810">
        <ele>8.1</ele>
        <time>2021-05-17T07:11:38Z</time>
      </trkpt>
      <trkpt lat="41.4606340" lon="-8.7698840">
        <ele>8.1</ele>
        <time>2021-05-17T07:11:39Z</time>
      </trkpt>
      <trkpt lat="41.4606490" lon="-8.7698830">
        <ele>8.0</ele>
        <time>2021-05-17T07:11:40Z</time>
      </trkpt>
      <trkpt lat="41.4606640" lon="-8.7698810">
        <ele>8.0</ele>
        <time>2021-05-17T07:11:41Z</time>
      </trkpt>
      <trkpt lat="41.4606760" lon="-8.7698740">
        <ele>8.0</ele>
        <time>2021-05-17T07:11:42Z</time>
      </trkpt>
      <trkpt lat="41.4606940" lon="-8.7698750">
        <ele>8.0</ele>
        <time>2021-05-17T07:11:43Z</time>
      </trkpt>
      <trkpt lat="41.4607060" lon="-8.7698710">
        <ele>8.0</ele>
        <time>2021-05-17T07:11:44Z</time>
      </trkpt>
      <trkpt lat="41.4607220" lon="-8.7698700">
        <ele>8.0</ele>
        <time>2021-05-17T07:11:45Z</time>
      </trkpt>
      <trkpt lat="41.4607330" lon="-8.7698650">
        <ele>8.0</ele>
        <time>2021-05-17T07:11:46Z</time>
      </trkpt>
      <trkpt lat="41.4607480" lon="-8.7698620">
        <ele>8.0</ele>
        <time>2021-05-17T07:11:47Z</time>
      </trkpt>
      <trkpt lat="41.4607610" lon="-8.7698580">
        <ele>8.0</ele>
        <time>2021-05-17T07:11:48Z</time>
      </trkpt>
      <trkpt lat="41.4607780" lon="-8.7698580">
        <ele>8.0</ele>
        <time>2021-05-17T07:11:49Z</time>
      </trkpt>
      <trkpt lat="41.4607900" lon="-8.7698540">
        <ele>8.0</ele>
        <time>2021-05-17T07:11:50Z</time>
      </trkpt>
      <trkpt lat="41.4608050" lon="-8.7698480">
        <ele>8.0</ele>
        <time>2021-05-17T07:11:51Z</time>
      </trkpt>
      <trkpt lat="41.4608210" lon="-8.7698490">
        <ele>8.0</ele>
        <time>2021-05-17T07:11:52Z</time>
      </trkpt>
      <trkpt lat="41.4608350" lon="-8.7698440">
        <ele>8.0</ele>
        <time>2021-05-17T07:11:53Z</time>
      </trkpt>
      <trkpt lat="41.4608500" lon="-8.7698390">
        <ele>8.0</ele>
        <time>2021-05-17T07:11:54Z</time>
      </trkpt>
      <trkpt lat="41.4608660" lon="-8.7698390">
        <ele>8.0</ele>
        <time>2021-05-17T07:11:55Z</time>
      </trkpt>
      <trkpt lat="41.4608830" lon="-8.7698420">
        <ele>8.0</ele>
        <time>2021-05-17T07:11:56Z</time>
      </trkpt>
      <trkpt lat="41.4609070" lon="-8.7698380">
        <ele>8.0</ele>
        <time>2021-05-17T07:11:57Z</time>
      </trkpt>
      <trkpt lat="41.4609180" lon="-8.7698350">
        <ele>8.0</ele>
        <time>2021-05-17T07:11:58Z</time>
      </trkpt>
      <trkpt lat="41.4609280" lon="-8.7698330">
        <ele>8.0</ele>
        <time>2021-05-17T07:11:59Z</time>
      </trkpt>
      <trkpt lat="41.4609430" lon="-8.7698330">
        <ele>8.0</ele>
        <time>2021-05-17T07:12:00Z</time>
      </trkpt>
      <trkpt lat="41.4609600" lon="-8.7698260">
        <ele>8.0</ele>
        <time>2021-05-17T07:12:01Z</time>
      </trkpt>
      <trkpt lat="41.4609750" lon="-8.7698270">
        <ele>8.0</ele>
        <time>2021-05-17T07:12:02Z</time>
      </trkpt>
      <trkpt lat="41.4609910" lon="-8.7698220">
        <ele>8.0</ele>
        <time>2021-05-17T07:12:03Z</time>
      </trkpt>
      <trkpt lat="41.4610060" lon="-8.7698240">
        <ele>8.0</ele>
        <time>2021-05-17T07:12:04Z</time>
      </trkpt>
      <trkpt lat="41.4610210" lon="-8.7698210">
        <ele>8.0</ele>
        <time>2021-05-17T07:12:05Z</time>
      </trkpt>
      <trkpt lat="41.4610370" lon="-8.7698140">
        <ele>8.0</ele>
        <time>2021-05-17T07:12:06Z</time>
      </trkpt>
      <trkpt lat="41.4610520" lon="-8.7698150">
        <ele>8.0</ele>
        <time>2021-05-17T07:12:07Z</time>
      </trkpt>
      <trkpt lat="41.4610700" lon="-8.7698200">
        <ele>8.0</ele>
        <time>2021-05-17T07:12:08Z</time>
      </trkpt>
      <trkpt lat="41.4610830" lon="-8.7698230">
        <ele>8.0</ele>
        <time>2021-05-17T07:12:09Z</time>
      </trkpt>
      <trkpt lat="41.4610990" lon="-8.7698250">
        <ele>8.0</ele>
        <time>2021-05-17T07:12:10Z</time>
      </trkpt>
      <trkpt lat="41.4611140" lon="-8.7698280">
        <ele>8.0</ele>
        <time>2021-05-17T07:12:11Z</time>
      </trkpt>
      <trkpt lat="41.4611290" lon="-8.7698270">
        <ele>8.0</ele>
        <time>2021-05-17T07:12:12Z</time>
      </trkpt>
      <trkpt lat="41.4611450" lon="-8.7698270">
        <ele>8.0</ele>
        <time>2021-05-17T07:12:13Z</time>
      </trkpt>
      <trkpt lat="41.4611600" lon="-8.7698310">
        <ele>8.0</ele>
        <time>2021-05-17T07:12:14Z</time>
      </trkpt>
      <trkpt lat="41.4611750" lon="-8.7698330">
        <ele>8.0</ele>
        <time>2021-05-17T07:12:15Z</time>
      </trkpt>
      <trkpt lat="41.4611910" lon="-8.7698420">
        <ele>8.0</ele>
        <time>2021-05-17T07:12:16Z</time>
      </trkpt>
      <trkpt lat="41.4612060" lon="-8.7698470">
        <ele>8.0</ele>
        <time>2021-05-17T07:12:17Z</time>
      </trkpt>
      <trkpt lat="41.4612210" lon="-8.7698500">
        <ele>8.1</ele>
        <time>2021-05-17T07:12:18Z</time>
      </trkpt>
      <trkpt lat="41.4612380" lon="-8.7698430">
        <ele>8.1</ele>
        <time>2021-05-17T07:12:19Z</time>
      </trkpt>
      <trkpt lat="41.4612660" lon="-8.7698380">
        <ele>8.1</ele>
        <time>2021-05-17T07:12:20Z</time>
      </trkpt>
      <trkpt lat="41.4612750" lon="-8.7698400">
        <ele>8.1</ele>
        <time>2021-05-17T07:12:21Z</time>
      </trkpt>
      <trkpt lat="41.4612920" lon="-8.7698420">
        <ele>8.1</ele>
        <time>2021-05-17T07:12:22Z</time>
      </trkpt>
      <trkpt lat="41.4613070" lon="-8.7698450">
        <ele>8.1</ele>
        <time>2021-05-17T07:12:23Z</time>
      </trkpt>
      <trkpt lat="41.4613240" lon="-8.7698460">
        <ele>8.1</ele>
        <time>2021-05-17T07:12:24Z</time>
      </trkpt>
      <trkpt lat="41.4613380" lon="-8.7698470">
        <ele>8.1</ele>
        <time>2021-05-17T07:12:25Z</time>
      </trkpt>
      <trkpt lat="41.4613540" lon="-8.7698430">
        <ele>8.1</ele>
        <time>2021-05-17T07:12:26Z</time>
      </trkpt>
      <trkpt lat="41.4613690" lon="-8.7698430">
        <ele>8.1</ele>
        <time>2021-05-17T07:12:27Z</time>
      </trkpt>
      <trkpt lat="41.4613840" lon="-8.7698540">
        <ele>8.1</ele>
        <time>2021-05-17T07:12:28Z</time>
      </trkpt>
      <trkpt lat="41.4613990" lon="-8.7698600">
        <ele>8.0</ele>
        <time>2021-05-17T07:12:29Z</time>
      </trkpt>
      <trkpt lat="41.4614140" lon="-8.7698650">
        <ele>8.0</ele>
        <time>2021-05-17T07:12:30Z</time>
      </trkpt>
      <trkpt lat="41.4614300" lon="-8.7698650">
        <ele>8.0</ele>
        <time>2021-05-17T07:12:31Z</time>
      </trkpt>
      <trkpt lat="41.4614460" lon="-8.7698680">
        <ele>8.0</ele>
        <time>2021-05-17T07:12:32Z</time>
      </trkpt>
      <trkpt lat="41.4614600" lon="-8.7698750">
        <ele>8.0</ele>
        <time>2021-05-17T07:12:33Z</time>
      </trkpt>
      <trkpt lat="41.4614720" lon="-8.7698820">
        <ele>8.0</ele>
        <time>2021-05-17T07:12:34Z</time>
      </trkpt>
      <trkpt lat="41.4614830" lon="-8.7698870">
        <ele>7.9</ele>
        <time>2021-05-17T07:12:35Z</time>
      </trkpt>
      <trkpt lat="41.4614890" lon="-8.7698900">
        <ele>7.9</ele>
        <time>2021-05-17T07:12:36Z</time>
      </trkpt>
      <trkpt lat="41.4615000" lon="-8.7698990">
        <ele>7.9</ele>
        <time>2021-05-17T07:12:37Z</time>
      </trkpt>
      <trkpt lat="41.4615100" lon="-8.7699060">
        <ele>7.9</ele>
        <time>2021-05-17T07:12:38Z</time>
      </trkpt>
      <trkpt lat="41.4615160" lon="-8.7699140">
        <ele>7.9</ele>
        <time>2021-05-17T07:12:39Z</time>
      </trkpt>
      <trkpt lat="41.4615340" lon="-8.7699340">
        <ele>7.9</ele>
        <time>2021-05-17T07:12:40Z</time>
      </trkpt>
      <trkpt lat="41.4615380" lon="-8.7699420">
        <ele>7.8</ele>
        <time>2021-05-17T07:12:41Z</time>
      </trkpt>
      <trkpt lat="41.4615430" lon="-8.7699510">
        <ele>7.8</ele>
        <time>2021-05-17T07:12:42Z</time>
      </trkpt>
      <trkpt lat="41.4615480" lon="-8.7699590">
        <ele>7.8</ele>
        <time>2021-05-17T07:12:43Z</time>
      </trkpt>
      <trkpt lat="41.4615610" lon="-8.7699670">
        <ele>7.8</ele>
        <time>2021-05-17T07:12:44Z</time>
      </trkpt>
      <trkpt lat="41.4615670" lon="-8.7699700">
        <ele>7.8</ele>
        <time>2021-05-17T07:12:45Z</time>
      </trkpt>
      <trkpt lat="41.4615790" lon="-8.7699840">
        <ele>7.8</ele>
        <time>2021-05-17T07:12:46Z</time>
      </trkpt>
      <trkpt lat="41.4615830" lon="-8.7699830">
        <ele>7.8</ele>
        <time>2021-05-17T07:12:47Z</time>
      </trkpt>
      <trkpt lat="41.4615860" lon="-8.7699760">
        <ele>7.8</ele>
        <time>2021-05-17T07:12:48Z</time>
      </trkpt>
      <trkpt lat="41.4615960" lon="-8.7699660">
        <ele>7.7</ele>
        <time>2021-05-17T07:12:49Z</time>
      </trkpt>
      <trkpt lat="41.4616020" lon="-8.7699500">
        <ele>7.7</ele>
        <time>2021-05-17T07:12:50Z</time>
      </trkpt>
      <trkpt lat="41.4616010" lon="-8.7699480">
        <ele>7.7</ele>
        <time>2021-05-17T07:12:51Z</time>
      </trkpt>
      <trkpt lat="41.4616000" lon="-8.7699450">
        <ele>7.7</ele>
        <time>2021-05-17T07:12:52Z</time>
      </trkpt>
      <trkpt lat="41.4615990" lon="-8.7699430">
        <ele>7.7</ele>
        <time>2021-05-17T07:12:53Z</time>
      </trkpt>
      <trkpt lat="41.4615980" lon="-8.7699400">
        <ele>7.7</ele>
        <time>2021-05-17T07:12:54Z</time>
      </trkpt>
      <trkpt lat="41.4615980" lon="-8.7699370">
        <ele>7.7</ele>
        <time>2021-05-17T07:12:55Z</time>
      </trkpt>
      <trkpt lat="41.4615970" lon="-8.7699350">
        <ele>7.7</ele>
        <time>2021-05-17T07:12:56Z</time>
      </trkpt>
      <trkpt lat="41.4615960" lon="-8.7699320">
        <ele>7.7</ele>
        <time>2021-05-17T07:12:57Z</time>
      </trkpt>
      <trkpt lat="41.4615950" lon="-8.7699300">
        <ele>7.7</ele>
        <time>2021-05-17T07:12:58Z</time>
      </trkpt>
      <trkpt lat="41.4615940" lon="-8.7699270">
        <ele>7.7</ele>
        <time>2021-05-17T07:12:59Z</time>
      </trkpt>
      <trkpt lat="41.4615930" lon="-8.7699240">
        <ele>7.7</ele>
        <time>2021-05-17T07:13:00Z</time>
      </trkpt>
      <trkpt lat="41.4615920" lon="-8.7699220">
        <ele>7.7</ele>
        <time>2021-05-17T07:13:01Z</time>
      </trkpt>
      <trkpt lat="41.4615910" lon="-8.7699190">
        <ele>7.7</ele>
        <time>2021-05-17T07:13:02Z</time>
      </trkpt>
      <trkpt lat="41.4615900" lon="-8.7699170">
        <ele>7.7</ele>
        <time>2021-05-17T07:13:03Z</time>
      </trkpt>
      <trkpt lat="41.4615890" lon="-8.7699140">
        <ele>7.7</ele>
        <time>2021-05-17T07:13:04Z</time>
      </trkpt>
      <trkpt lat="41.4615880" lon="-8.7699120">
        <ele>7.6</ele>
        <time>2021-05-17T07:13:05Z</time>
      </trkpt>
      <trkpt lat="41.4615880" lon="-8.7699090">
        <ele>7.6</ele>
        <time>2021-05-17T07:13:06Z</time>
      </trkpt>
      <trkpt lat="41.4615870" lon="-8.7699060">
        <ele>7.6</ele>
        <time>2021-05-17T07:13:07Z</time>
      </trkpt>
      <trkpt lat="41.4615860" lon="-8.7699040">
        <ele>7.6</ele>
        <time>2021-05-17T07:13:08Z</time>
      </trkpt>
      <trkpt lat="41.4615850" lon="-8.7699010">
        <ele>7.6</ele>
        <time>2021-05-17T07:13:09Z</time>
      </trkpt>
      <trkpt lat="41.4615840" lon="-8.7698990">
        <ele>7.6</ele>
        <time>2021-05-17T07:13:10Z</time>
      </trkpt>
      <trkpt lat="41.4615830" lon="-8.7698960">
        <ele>7.6</ele>
        <time>2021-05-17T07:13:11Z</time>
      </trkpt>
      <trkpt lat="41.4615940" lon="-8.7698790">
        <ele>7.6</ele>
        <time>2021-05-17T07:13:12Z</time>
      </trkpt>
      <trkpt lat="41.4616000" lon="-8.7698680">
        <ele>7.6</ele>
        <time>2021-05-17T07:13:13Z</time>
      </trkpt>
      <trkpt lat="41.4616030" lon="-8.7698590">
        <ele>7.5</ele>
        <time>2021-05-17T07:13:14Z</time>
      </trkpt>
      <trkpt lat="41.4616130" lon="-8.7698520">
        <ele>7.5</ele>
        <time>2021-05-17T07:13:15Z</time>
      </trkpt>
      <trkpt lat="41.4616140" lon="-8.7698590">
        <ele>7.5</ele>
        <time>2021-05-17T07:13:16Z</time>
      </trkpt>
      <trkpt lat="41.4616150" lon="-8.7698610">
        <ele>7.5</ele>
        <time>2021-05-17T07:13:17Z</time>
      </trkpt>
      <trkpt lat="41.4616150" lon="-8.7698560">
        <ele>7.5</ele>
        <time>2021-05-17T07:13:18Z</time>
      </trkpt>
      <trkpt lat="41.4616230" lon="-8.7698440">
        <ele>7.5</ele>
        <time>2021-05-17T07:13:19Z</time>
      </trkpt>
      <trkpt lat="41.4616300" lon="-8.7698380">
        <ele>7.5</ele>
        <time>2021-05-17T07:13:20Z</time>
      </trkpt>
      <trkpt lat="41.4616450" lon="-8.7698150">
        <ele>7.4</ele>
        <time>2021-05-17T07:13:21Z</time>
      </trkpt>
      <trkpt lat="41.4616470" lon="-8.7698060">
        <ele>7.4</ele>
        <time>2021-05-17T07:13:22Z</time>
      </trkpt>
      <trkpt lat="41.4616450" lon="-8.7697960">
        <ele>7.4</ele>
        <time>2021-05-17T07:13:23Z</time>
      </trkpt>
      <trkpt lat="41.4616620" lon="-8.7697740">
        <ele>7.3</ele>
        <time>2021-05-17T07:13:24Z</time>
      </trkpt>
      <trkpt lat="41.4616630" lon="-8.7697670">
        <ele>7.3</ele>
        <time>2021-05-17T07:13:25Z</time>
      </trkpt>
      <trkpt lat="41.4616680" lon="-8.7697550">
        <ele>7.3</ele>
        <time>2021-05-17T07:13:26Z</time>
      </trkpt>
      <trkpt lat="41.4616730" lon="-8.7697290">
        <ele>7.3</ele>
        <time>2021-05-17T07:13:27Z</time>
      </trkpt>
      <trkpt lat="41.4616770" lon="-8.7697140">
        <ele>7.2</ele>
        <time>2021-05-17T07:13:28Z</time>
      </trkpt>
      <trkpt lat="41.4616830" lon="-8.7696920">
        <ele>7.2</ele>
        <time>2021-05-17T07:13:29Z</time>
      </trkpt>
      <trkpt lat="41.4616930" lon="-8.7696710">
        <ele>7.2</ele>
        <time>2021-05-17T07:13:30Z</time>
      </trkpt>
      <trkpt lat="41.4616970" lon="-8.7696560">
        <ele>7.2</ele>
        <time>2021-05-17T07:13:31Z</time>
      </trkpt>
      <trkpt lat="41.4617070" lon="-8.7696410">
        <ele>7.1</ele>
        <time>2021-05-17T07:13:32Z</time>
      </trkpt>
      <trkpt lat="41.4617190" lon="-8.7696300">
        <ele>7.1</ele>
        <time>2021-05-17T07:13:33Z</time>
      </trkpt>
      <trkpt lat="41.4617310" lon="-8.7696050">
        <ele>7.1</ele>
        <time>2021-05-17T07:13:34Z</time>
      </trkpt>
      <trkpt lat="41.4617370" lon="-8.7695970">
        <ele>7.1</ele>
        <time>2021-05-17T07:13:35Z</time>
      </trkpt>
      <trkpt lat="41.4617430" lon="-8.7695880">
        <ele>7.1</ele>
        <time>2021-05-17T07:13:36Z</time>
      </trkpt>
      <trkpt lat="41.4617580" lon="-8.7695640">
        <ele>7.1</ele>
        <time>2021-05-17T07:13:37Z</time>
      </trkpt>
      <trkpt lat="41.4617670" lon="-8.7695530">
        <ele>7.1</ele>
        <time>2021-05-17T07:13:38Z</time>
      </trkpt>
      <trkpt lat="41.4617770" lon="-8.7695410">
        <ele>7.1</ele>
        <time>2021-05-17T07:13:39Z</time>
      </trkpt>
      <trkpt lat="41.4617880" lon="-8.7695240">
        <ele>7.1</ele>
        <time>2021-05-17T07:13:40Z</time>
      </trkpt>
      <trkpt lat="41.4618070" lon="-8.7694920">
        <ele>7.1</ele>
        <time>2021-05-17T07:13:41Z</time>
      </trkpt>
      <trkpt lat="41.4618140" lon="-8.7694790">
        <ele>7.1</ele>
        <time>2021-05-17T07:13:42Z</time>
      </trkpt>
      <trkpt lat="41.4618200" lon="-8.7694670">
        <ele>7.1</ele>
        <time>2021-05-17T07:13:43Z</time>
      </trkpt>
      <trkpt lat="41.4618250" lon="-8.7694590">
        <ele>7.1</ele>
        <time>2021-05-17T07:13:44Z</time>
      </trkpt>
      <trkpt lat="41.4618290" lon="-8.7694460">
        <ele>7.2</ele>
        <time>2021-05-17T07:13:45Z</time>
      </trkpt>
      <trkpt lat="41.4618410" lon="-8.7694340">
        <ele>7.2</ele>
        <time>2021-05-17T07:13:46Z</time>
      </trkpt>
      <trkpt lat="41.4618460" lon="-8.7694180">
        <ele>7.2</ele>
        <time>2021-05-17T07:13:47Z</time>
      </trkpt>
      <trkpt lat="41.4618670" lon="-8.7693890">
        <ele>7.2</ele>
        <time>2021-05-17T07:13:48Z</time>
      </trkpt>
      <trkpt lat="41.4618720" lon="-8.7693800">
        <ele>7.2</ele>
        <time>2021-05-17T07:13:49Z</time>
      </trkpt>
      <trkpt lat="41.4618870" lon="-8.7693650">
        <ele>7.3</ele>
        <time>2021-05-17T07:13:50Z</time>
      </trkpt>
      <trkpt lat="41.4618950" lon="-8.7693470">
        <ele>7.3</ele>
        <time>2021-05-17T07:13:51Z</time>
      </trkpt>
      <trkpt lat="41.4619070" lon="-8.7693300">
        <ele>7.3</ele>
        <time>2021-05-17T07:13:52Z</time>
      </trkpt>
      <trkpt lat="41.4619180" lon="-8.7693150">
        <ele>7.3</ele>
        <time>2021-05-17T07:13:53Z</time>
      </trkpt>
      <trkpt lat="41.4619300" lon="-8.7693060">
        <ele>7.3</ele>
        <time>2021-05-17T07:13:54Z</time>
      </trkpt>
      <trkpt lat="41.4619490" lon="-8.7693040">
        <ele>7.4</ele>
        <time>2021-05-17T07:13:55Z</time>
      </trkpt>
      <trkpt lat="41.4619620" lon="-8.7692990">
        <ele>7.4</ele>
        <time>2021-05-17T07:13:56Z</time>
      </trkpt>
      <trkpt lat="41.4619770" lon="-8.7692910">
        <ele>7.4</ele>
        <time>2021-05-17T07:13:57Z</time>
      </trkpt>
      <trkpt lat="41.4619930" lon="-8.7692840">
        <ele>7.4</ele>
        <time>2021-05-17T07:13:58Z</time>
      </trkpt>
      <trkpt lat="41.4620060" lon="-8.7692780">
        <ele>7.4</ele>
        <time>2021-05-17T07:13:59Z</time>
      </trkpt>
      <trkpt lat="41.4620200" lon="-8.7692760">
        <ele>7.5</ele>
        <time>2021-05-17T07:14:00Z</time>
      </trkpt>
      <trkpt lat="41.4620360" lon="-8.7692700">
        <ele>7.5</ele>
        <time>2021-05-17T07:14:01Z</time>
      </trkpt>
      <trkpt lat="41.4620440" lon="-8.7692590">
        <ele>7.5</ele>
        <time>2021-05-17T07:14:02Z</time>
      </trkpt>
      <trkpt lat="41.4620560" lon="-8.7692560">
        <ele>7.5</ele>
        <time>2021-05-17T07:14:03Z</time>
      </trkpt>
      <trkpt lat="41.4620630" lon="-8.7692530">
        <ele>7.5</ele>
        <time>2021-05-17T07:14:04Z</time>
      </trkpt>
      <trkpt lat="41.4620770" lon="-8.7692480">
        <ele>7.5</ele>
        <time>2021-05-17T07:14:05Z</time>
      </trkpt>
      <trkpt lat="41.4620900" lon="-8.7692420">
        <ele>7.6</ele>
        <time>2021-05-17T07:14:06Z</time>
      </trkpt>
      <trkpt lat="41.4621070" lon="-8.7692360">
        <ele>7.6</ele>
        <time>2021-05-17T07:14:07Z</time>
      </trkpt>
      <trkpt lat="41.4621180" lon="-8.7692300">
        <ele>7.6</ele>
        <time>2021-05-17T07:14:08Z</time>
      </trkpt>
      <trkpt lat="41.4621300" lon="-8.7692270">
        <ele>7.6</ele>
        <time>2021-05-17T07:14:09Z</time>
      </trkpt>
      <trkpt lat="41.4621480" lon="-8.7692200">
        <ele>7.6</ele>
        <time>2021-05-17T07:14:10Z</time>
      </trkpt>
      <trkpt lat="41.4621620" lon="-8.7692140">
        <ele>7.7</ele>
        <time>2021-05-17T07:14:11Z</time>
      </trkpt>
      <trkpt lat="41.4621770" lon="-8.7692100">
        <ele>7.7</ele>
        <time>2021-05-17T07:14:12Z</time>
      </trkpt>
      <trkpt lat="41.4621900" lon="-8.7692050">
        <ele>7.7</ele>
        <time>2021-05-17T07:14:13Z</time>
      </trkpt>
      <trkpt lat="41.4622040" lon="-8.7692040">
        <ele>7.7</ele>
        <time>2021-05-17T07:14:14Z</time>
      </trkpt>
      <trkpt lat="41.4622190" lon="-8.7692000">
        <ele>7.7</ele>
        <time>2021-05-17T07:14:15Z</time>
      </trkpt>
      <trkpt lat="41.4622340" lon="-8.7691930">
        <ele>7.8</ele>
        <time>2021-05-17T07:14:16Z</time>
      </trkpt>
      <trkpt lat="41.4622510" lon="-8.7691850">
        <ele>7.8</ele>
        <time>2021-05-17T07:14:17Z</time>
      </trkpt>
      <trkpt lat="41.4622650" lon="-8.7691810">
        <ele>7.8</ele>
        <time>2021-05-17T07:14:18Z</time>
      </trkpt>
      <trkpt lat="41.4622780" lon="-8.7691730">
        <ele>7.8</ele>
        <time>2021-05-17T07:14:19Z</time>
      </trkpt>
      <trkpt lat="41.4622910" lon="-8.7691680">
        <ele>7.9</ele>
        <time>2021-05-17T07:14:20Z</time>
      </trkpt>
      <trkpt lat="41.4623040" lon="-8.7691650">
        <ele>7.9</ele>
        <time>2021-05-17T07:14:21Z</time>
      </trkpt>
      <trkpt lat="41.4623170" lon="-8.7691610">
        <ele>7.9</ele>
        <time>2021-05-17T07:14:22Z</time>
      </trkpt>
      <trkpt lat="41.4623310" lon="-8.7691570">
        <ele>7.9</ele>
        <time>2021-05-17T07:14:23Z</time>
      </trkpt>
      <trkpt lat="41.4623450" lon="-8.7691520">
        <ele>8.0</ele>
        <time>2021-05-17T07:14:24Z</time>
      </trkpt>
      <trkpt lat="41.4623590" lon="-8.7691540">
        <ele>8.0</ele>
        <time>2021-05-17T07:14:25Z</time>
      </trkpt>
      <trkpt lat="41.4623750" lon="-8.7691510">
        <ele>8.0</ele>
        <time>2021-05-17T07:14:26Z</time>
      </trkpt>
      <trkpt lat="41.4623890" lon="-8.7691450">
        <ele>8.0</ele>
        <time>2021-05-17T07:14:27Z</time>
      </trkpt>
      <trkpt lat="41.4624020" lon="-8.7691360">
        <ele>8.0</ele>
        <time>2021-05-17T07:14:28Z</time>
      </trkpt>
      <trkpt lat="41.4624150" lon="-8.7691290">
        <ele>8.1</ele>
        <time>2021-05-17T07:14:29Z</time>
      </trkpt>
      <trkpt lat="41.4624290" lon="-8.7691240">
        <ele>8.1</ele>
        <time>2021-05-17T07:14:30Z</time>
      </trkpt>
      <trkpt lat="41.4624420" lon="-8.7691200">
        <ele>8.1</ele>
        <time>2021-05-17T07:14:31Z</time>
      </trkpt>
      <trkpt lat="41.4624570" lon="-8.7691150">
        <ele>8.1</ele>
        <time>2021-05-17T07:14:32Z</time>
      </trkpt>
      <trkpt lat="41.4624700" lon="-8.7691090">
        <ele>8.2</ele>
        <time>2021-05-17T07:14:33Z</time>
      </trkpt>
      <trkpt lat="41.4624840" lon="-8.7691050">
        <ele>8.2</ele>
        <time>2021-05-17T07:14:34Z</time>
      </trkpt>
      <trkpt lat="41.4624980" lon="-8.7691030">
        <ele>8.2</ele>
        <time>2021-05-17T07:14:35Z</time>
      </trkpt>
      <trkpt lat="41.4625100" lon="-8.7690950">
        <ele>8.2</ele>
        <time>2021-05-17T07:14:36Z</time>
      </trkpt>
      <trkpt lat="41.4625240" lon="-8.7690880">
        <ele>8.2</ele>
        <time>2021-05-17T07:14:37Z</time>
      </trkpt>
      <trkpt lat="41.4625390" lon="-8.7690870">
        <ele>8.3</ele>
        <time>2021-05-17T07:14:38Z</time>
      </trkpt>
      <trkpt lat="41.4625520" lon="-8.7690830">
        <ele>8.3</ele>
        <time>2021-05-17T07:14:39Z</time>
      </trkpt>
      <trkpt lat="41.4625680" lon="-8.7690740">
        <ele>8.3</ele>
        <time>2021-05-17T07:14:40Z</time>
      </trkpt>
      <trkpt lat="41.4625890" lon="-8.7690640">
        <ele>8.4</ele>
        <time>2021-05-17T07:14:41Z</time>
      </trkpt>
      <trkpt lat="41.4625980" lon="-8.7690610">
        <ele>8.4</ele>
        <time>2021-05-17T07:14:42Z</time>
      </trkpt>
      <trkpt lat="41.4626070" lon="-8.7690590">
        <ele>8.4</ele>
        <time>2021-05-17T07:14:43Z</time>
      </trkpt>
      <trkpt lat="41.4626240" lon="-8.7690590">
        <ele>8.4</ele>
        <time>2021-05-17T07:14:44Z</time>
      </trkpt>
      <trkpt lat="41.4626360" lon="-8.7690560">
        <ele>8.4</ele>
        <time>2021-05-17T07:14:45Z</time>
      </trkpt>
      <trkpt lat="41.4626500" lon="-8.7690520">
        <ele>8.4</ele>
        <time>2021-05-17T07:14:46Z</time>
      </trkpt>
      <trkpt lat="41.4626640" lon="-8.7690470">
        <ele>8.5</ele>
        <time>2021-05-17T07:14:47Z</time>
      </trkpt>
      <trkpt lat="41.4626850" lon="-8.7690410">
        <ele>8.5</ele>
        <time>2021-05-17T07:14:48Z</time>
      </trkpt>
      <trkpt lat="41.4626940" lon="-8.7690360">
        <ele>8.5</ele>
        <time>2021-05-17T07:14:49Z</time>
      </trkpt>
      <trkpt lat="41.4627020" lon="-8.7690300">
        <ele>8.5</ele>
        <time>2021-05-17T07:14:50Z</time>
      </trkpt>
      <trkpt lat="41.4627150" lon="-8.7690220">
        <ele>8.5</ele>
        <time>2021-05-17T07:14:51Z</time>
      </trkpt>
      <trkpt lat="41.4627270" lon="-8.7690120">
        <ele>8.6</ele>
        <time>2021-05-17T07:14:52Z</time>
      </trkpt>
      <trkpt lat="41.4627460" lon="-8.7689990">
        <ele>8.6</ele>
        <time>2021-05-17T07:14:53Z</time>
      </trkpt>
      <trkpt lat="41.4627530" lon="-8.7689940">
        <ele>8.6</ele>
        <time>2021-05-17T07:14:54Z</time>
      </trkpt>
      <trkpt lat="41.4627600" lon="-8.7689880">
        <ele>8.6</ele>
        <time>2021-05-17T07:14:55Z</time>
      </trkpt>
      <trkpt lat="41.4627730" lon="-8.7689850">
        <ele>8.6</ele>
        <time>2021-05-17T07:14:56Z</time>
      </trkpt>
      <trkpt lat="41.4627890" lon="-8.7689800">
        <ele>8.7</ele>
        <time>2021-05-17T07:14:57Z</time>
      </trkpt>
      <trkpt lat="41.4628010" lon="-8.7689750">
        <ele>8.7</ele>
        <time>2021-05-17T07:14:58Z</time>
      </trkpt>
      <trkpt lat="41.4628150" lon="-8.7689680">
        <ele>8.7</ele>
        <time>2021-05-17T07:14:59Z</time>
      </trkpt>
      <trkpt lat="41.4628370" lon="-8.7689650">
        <ele>8.7</ele>
        <time>2021-05-17T07:15:00Z</time>
      </trkpt>
      <trkpt lat="41.4628460" lon="-8.7689630">
        <ele>8.7</ele>
        <time>2021-05-17T07:15:01Z</time>
      </trkpt>
      <trkpt lat="41.4628540" lon="-8.7689610">
        <ele>8.7</ele>
        <time>2021-05-17T07:15:02Z</time>
      </trkpt>
      <trkpt lat="41.4628750" lon="-8.7689510">
        <ele>8.7</ele>
        <time>2021-05-17T07:15:03Z</time>
      </trkpt>
      <trkpt lat="41.4628810" lon="-8.7689460">
        <ele>8.7</ele>
        <time>2021-05-17T07:15:04Z</time>
      </trkpt>
      <trkpt lat="41.4628880" lon="-8.7689410">
        <ele>8.7</ele>
        <time>2021-05-17T07:15:05Z</time>
      </trkpt>
      <trkpt lat="41.4629030" lon="-8.7689400">
        <ele>8.6</ele>
        <time>2021-05-17T07:15:06Z</time>
      </trkpt>
      <trkpt lat="41.4629140" lon="-8.7689310">
        <ele>8.6</ele>
        <time>2021-05-17T07:15:07Z</time>
      </trkpt>
      <trkpt lat="41.4629310" lon="-8.7689270">
        <ele>8.6</ele>
        <time>2021-05-17T07:15:08Z</time>
      </trkpt>
      <trkpt lat="41.4629430" lon="-8.7689180">
        <ele>8.6</ele>
        <time>2021-05-17T07:15:09Z</time>
      </trkpt>
      <trkpt lat="41.4629640" lon="-8.7689060">
        <ele>8.6</ele>
        <time>2021-05-17T07:15:10Z</time>
      </trkpt>
      <trkpt lat="41.4629730" lon="-8.7689000">
        <ele>8.6</ele>
        <time>2021-05-17T07:15:11Z</time>
      </trkpt>
      <trkpt lat="41.4629810" lon="-8.7688930">
        <ele>8.6</ele>
        <time>2021-05-17T07:15:12Z</time>
      </trkpt>
      <trkpt lat="41.4629930" lon="-8.7688860">
        <ele>8.6</ele>
        <time>2021-05-17T07:15:13Z</time>
      </trkpt>
      <trkpt lat="41.4630060" lon="-8.7688780">
        <ele>8.6</ele>
        <time>2021-05-17T07:15:14Z</time>
      </trkpt>
      <trkpt lat="41.4630200" lon="-8.7688730">
        <ele>8.6</ele>
        <time>2021-05-17T07:15:15Z</time>
      </trkpt>
      <trkpt lat="41.4630340" lon="-8.7688690">
        <ele>8.6</ele>
        <time>2021-05-17T07:15:16Z</time>
      </trkpt>
      <trkpt lat="41.4630460" lon="-8.7688520">
        <ele>8.6</ele>
        <time>2021-05-17T07:15:17Z</time>
      </trkpt>
      <trkpt lat="41.4630600" lon="-8.7688480">
        <ele>8.6</ele>
        <time>2021-05-17T07:15:18Z</time>
      </trkpt>
      <trkpt lat="41.4630700" lon="-8.7688350">
        <ele>8.6</ele>
        <time>2021-05-17T07:15:19Z</time>
      </trkpt>
      <trkpt lat="41.4630860" lon="-8.7688320">
        <ele>8.6</ele>
        <time>2021-05-17T07:15:20Z</time>
      </trkpt>
      <trkpt lat="41.4630990" lon="-8.7688270">
        <ele>8.6</ele>
        <time>2021-05-17T07:15:21Z</time>
      </trkpt>
      <trkpt lat="41.4631150" lon="-8.7688170">
        <ele>8.6</ele>
        <time>2021-05-17T07:15:22Z</time>
      </trkpt>
      <trkpt lat="41.4631280" lon="-8.7688110">
        <ele>8.6</ele>
        <time>2021-05-17T07:15:23Z</time>
      </trkpt>
      <trkpt lat="41.4631420" lon="-8.7688090">
        <ele>8.6</ele>
        <time>2021-05-17T07:15:24Z</time>
      </trkpt>
      <trkpt lat="41.4631500" lon="-8.7688020">
        <ele>8.6</ele>
        <time>2021-05-17T07:15:25Z</time>
      </trkpt>
      <trkpt lat="41.4631600" lon="-8.7687960">
        <ele>8.6</ele>
        <time>2021-05-17T07:15:26Z</time>
      </trkpt>
      <trkpt lat="41.4631690" lon="-8.7687870">
        <ele>8.6</ele>
        <time>2021-05-17T07:15:27Z</time>
      </trkpt>
      <trkpt lat="41.4631830" lon="-8.7687860">
        <ele>8.6</ele>
        <time>2021-05-17T07:15:28Z</time>
      </trkpt>
      <trkpt lat="41.4631920" lon="-8.7687740">
        <ele>8.6</ele>
        <time>2021-05-17T07:15:29Z</time>
      </trkpt>
      <trkpt lat="41.4632020" lon="-8.7687680">
        <ele>8.6</ele>
        <time>2021-05-17T07:15:30Z</time>
      </trkpt>
      <trkpt lat="41.4632150" lon="-8.7687660">
        <ele>8.6</ele>
        <time>2021-05-17T07:15:31Z</time>
      </trkpt>
      <trkpt lat="41.4632320" lon="-8.7687540">
        <ele>8.7</ele>
        <time>2021-05-17T07:15:32Z</time>
      </trkpt>
      <trkpt lat="41.4632420" lon="-8.7687450">
        <ele>8.7</ele>
        <time>2021-05-17T07:15:33Z</time>
      </trkpt>
      <trkpt lat="41.4632500" lon="-8.7687410">
        <ele>8.7</ele>
        <time>2021-05-17T07:15:34Z</time>
      </trkpt>
      <trkpt lat="41.4632610" lon="-8.7687330">
        <ele>8.7</ele>
        <time>2021-05-17T07:15:35Z</time>
      </trkpt>
      <trkpt lat="41.4632710" lon="-8.7687320">
        <ele>8.7</ele>
        <time>2021-05-17T07:15:36Z</time>
      </trkpt>
      <trkpt lat="41.4632770" lon="-8.7687240">
        <ele>8.7</ele>
        <time>2021-05-17T07:15:37Z</time>
      </trkpt>
      <trkpt lat="41.4632870" lon="-8.7687230">
        <ele>8.7</ele>
        <time>2021-05-17T07:15:38Z</time>
      </trkpt>
      <trkpt lat="41.4632940" lon="-8.7687200">
        <ele>8.7</ele>
        <time>2021-05-17T07:15:39Z</time>
      </trkpt>
      <trkpt lat="41.4633150" lon="-8.7687160">
        <ele>8.7</ele>
        <time>2021-05-17T07:15:40Z</time>
      </trkpt>
      <trkpt lat="41.4633260" lon="-8.7687160">
        <ele>8.7</ele>
        <time>2021-05-17T07:15:41Z</time>
      </trkpt>
      <trkpt lat="41.4633360" lon="-8.7687150">
        <ele>8.7</ele>
        <time>2021-05-17T07:15:42Z</time>
      </trkpt>
      <trkpt lat="41.4633480" lon="-8.7687050">
        <ele>8.7</ele>
        <time>2021-05-17T07:15:43Z</time>
      </trkpt>
      <trkpt lat="41.4633550" lon="-8.7687000">
        <ele>8.7</ele>
        <time>2021-05-17T07:15:44Z</time>
      </trkpt>
      <trkpt lat="41.4633620" lon="-8.7686940">
        <ele>8.8</ele>
        <time>2021-05-17T07:15:45Z</time>
      </trkpt>
      <trkpt lat="41.4633690" lon="-8.7686880">
        <ele>8.8</ele>
        <time>2021-05-17T07:15:46Z</time>
      </trkpt>
      <trkpt lat="41.4633850" lon="-8.7686840">
        <ele>8.8</ele>
        <time>2021-05-17T07:15:47Z</time>
      </trkpt>
      <trkpt lat="41.4633990" lon="-8.7686820">
        <ele>8.8</ele>
        <time>2021-05-17T07:15:48Z</time>
      </trkpt>
      <trkpt lat="41.4634110" lon="-8.7686790">
        <ele>8.8</ele>
        <time>2021-05-17T07:15:49Z</time>
      </trkpt>
      <trkpt lat="41.4634290" lon="-8.7686680">
        <ele>8.8</ele>
        <time>2021-05-17T07:15:50Z</time>
      </trkpt>
      <trkpt lat="41.4634480" lon="-8.7686580">
        <ele>8.8</ele>
        <time>2021-05-17T07:15:51Z</time>
      </trkpt>
      <trkpt lat="41.4634560" lon="-8.7686540">
        <ele>8.8</ele>
        <time>2021-05-17T07:15:52Z</time>
      </trkpt>
      <trkpt lat="41.4634630" lon="-8.7686500">
        <ele>8.8</ele>
        <time>2021-05-17T07:15:53Z</time>
      </trkpt>
      <trkpt lat="41.4634770" lon="-8.7686450">
        <ele>8.9</ele>
        <time>2021-05-17T07:15:54Z</time>
      </trkpt>
      <trkpt lat="41.4634870" lon="-8.7686410">
        <ele>8.9</ele>
        <time>2021-05-17T07:15:55Z</time>
      </trkpt>
      <trkpt lat="41.4634970" lon="-8.7686380">
        <ele>8.9</ele>
        <time>2021-05-17T07:15:56Z</time>
      </trkpt>
      <trkpt lat="41.4635080" lon="-8.7686350">
        <ele>8.9</ele>
        <time>2021-05-17T07:15:57Z</time>
      </trkpt>
      <trkpt lat="41.4635240" lon="-8.7686290">
        <ele>8.9</ele>
        <time>2021-05-17T07:15:58Z</time>
      </trkpt>
      <trkpt lat="41.4635400" lon="-8.7686280">
        <ele>8.9</ele>
        <time>2021-05-17T07:15:59Z</time>
      </trkpt>
      <trkpt lat="41.4635560" lon="-8.7686210">
        <ele>9.0</ele>
        <time>2021-05-17T07:16:00Z</time>
      </trkpt>
      <trkpt lat="41.4635660" lon="-8.7686160">
        <ele>9.0</ele>
        <time>2021-05-17T07:16:01Z</time>
      </trkpt>
      <trkpt lat="41.4635770" lon="-8.7686120">
        <ele>9.0</ele>
        <time>2021-05-17T07:16:02Z</time>
      </trkpt>
      <trkpt lat="41.4635880" lon="-8.7686060">
        <ele>9.0</ele>
        <time>2021-05-17T07:16:03Z</time>
      </trkpt>
      <trkpt lat="41.4636060" lon="-8.7685940">
        <ele>9.0</ele>
        <time>2021-05-17T07:16:04Z</time>
      </trkpt>
      <trkpt lat="41.4636150" lon="-8.7685890">
        <ele>9.0</ele>
        <time>2021-05-17T07:16:05Z</time>
      </trkpt>
      <trkpt lat="41.4636240" lon="-8.7685850">
        <ele>9.0</ele>
        <time>2021-05-17T07:16:06Z</time>
      </trkpt>
      <trkpt lat="41.4636420" lon="-8.7685750">
        <ele>9.1</ele>
        <time>2021-05-17T07:16:07Z</time>
      </trkpt>
      <trkpt lat="41.4636520" lon="-8.7685720">
        <ele>9.1</ele>
        <time>2021-05-17T07:16:08Z</time>
      </trkpt>
      <trkpt lat="41.4636630" lon="-8.7685700">
        <ele>9.1</ele>
        <time>2021-05-17T07:16:09Z</time>
      </trkpt>
      <trkpt lat="41.4636920" lon="-8.7685630">
        <ele>9.1</ele>
        <time>2021-05-17T07:16:10Z</time>
      </trkpt>
      <trkpt lat="41.4637010" lon="-8.7685610">
        <ele>9.1</ele>
        <time>2021-05-17T07:16:11Z</time>
      </trkpt>
      <trkpt lat="41.4637230" lon="-8.7685530">
        <ele>9.1</ele>
        <time>2021-05-17T07:16:12Z</time>
      </trkpt>
      <trkpt lat="41.4637300" lon="-8.7685500">
        <ele>9.1</ele>
        <time>2021-05-17T07:16:13Z</time>
      </trkpt>
      <trkpt lat="41.4637380" lon="-8.7685470">
        <ele>9.1</ele>
        <time>2021-05-17T07:16:14Z</time>
      </trkpt>
      <trkpt lat="41.4637440" lon="-8.7685400">
        <ele>9.1</ele>
        <time>2021-05-17T07:16:15Z</time>
      </trkpt>
      <trkpt lat="41.4637640" lon="-8.7685330">
        <ele>9.2</ele>
        <time>2021-05-17T07:16:16Z</time>
      </trkpt>
      <trkpt lat="41.4637820" lon="-8.7685300">
        <ele>9.2</ele>
        <time>2021-05-17T07:16:17Z</time>
      </trkpt>
      <trkpt lat="41.4637900" lon="-8.7685240">
        <ele>9.2</ele>
        <time>2021-05-17T07:16:18Z</time>
      </trkpt>
      <trkpt lat="41.4638090" lon="-8.7685260">
        <ele>9.2</ele>
        <time>2021-05-17T07:16:19Z</time>
      </trkpt>
      <trkpt lat="41.4638190" lon="-8.7685240">
        <ele>9.2</ele>
        <time>2021-05-17T07:16:20Z</time>
      </trkpt>
      <trkpt lat="41.4638290" lon="-8.7685230">
        <ele>9.2</ele>
        <time>2021-05-17T07:16:21Z</time>
      </trkpt>
      <trkpt lat="41.4638580" lon="-8.7685130">
        <ele>9.2</ele>
        <time>2021-05-17T07:16:22Z</time>
      </trkpt>
      <trkpt lat="41.4638680" lon="-8.7685120">
        <ele>9.2</ele>
        <time>2021-05-17T07:16:23Z</time>
      </trkpt>
      <trkpt lat="41.4638810" lon="-8.7685050">
        <ele>9.2</ele>
        <time>2021-05-17T07:16:24Z</time>
      </trkpt>
      <trkpt lat="41.4638940" lon="-8.7684970">
        <ele>9.2</ele>
        <time>2021-05-17T07:16:25Z</time>
      </trkpt>
      <trkpt lat="41.4639270" lon="-8.7684900">
        <ele>9.3</ele>
        <time>2021-05-17T07:16:26Z</time>
      </trkpt>
      <trkpt lat="41.4639350" lon="-8.7684850">
        <ele>9.3</ele>
        <time>2021-05-17T07:16:27Z</time>
      </trkpt>
      <trkpt lat="41.4639500" lon="-8.7684790">
        <ele>9.3</ele>
        <time>2021-05-17T07:16:28Z</time>
      </trkpt>
      <trkpt lat="41.4639650" lon="-8.7684720">
        <ele>9.3</ele>
        <time>2021-05-17T07:16:29Z</time>
      </trkpt>
      <trkpt lat="41.4639790" lon="-8.7684680">
        <ele>9.3</ele>
        <time>2021-05-17T07:16:30Z</time>
      </trkpt>
      <trkpt lat="41.4639980" lon="-8.7684620">
        <ele>9.3</ele>
        <time>2021-05-17T07:16:31Z</time>
      </trkpt>
      <trkpt lat="41.4640090" lon="-8.7684590">
        <ele>9.3</ele>
        <time>2021-05-17T07:16:32Z</time>
      </trkpt>
      <trkpt lat="41.4640310" lon="-8.7684560">
        <ele>9.3</ele>
        <time>2021-05-17T07:16:33Z</time>
      </trkpt>
      <trkpt lat="41.4640530" lon="-8.7684470">
        <ele>9.4</ele>
        <time>2021-05-17T07:16:34Z</time>
      </trkpt>
      <trkpt lat="41.4640610" lon="-8.7684440">
        <ele>9.4</ele>
        <time>2021-05-17T07:16:35Z</time>
      </trkpt>
      <trkpt lat="41.4640680" lon="-8.7684400">
        <ele>9.4</ele>
        <time>2021-05-17T07:16:36Z</time>
      </trkpt>
      <trkpt lat="41.4641020" lon="-8.7684310">
        <ele>9.4</ele>
        <time>2021-05-17T07:16:38Z</time>
      </trkpt>
      <trkpt lat="41.4641120" lon="-8.7684300">
        <ele>9.4</ele>
        <time>2021-05-17T07:16:39Z</time>
      </trkpt>
      <trkpt lat="41.4641300" lon="-8.7684250">
        <ele>9.4</ele>
        <time>2021-05-17T07:16:40Z</time>
      </trkpt>
      <trkpt lat="41.4641450" lon="-8.7684190">
        <ele>9.4</ele>
        <time>2021-05-17T07:16:41Z</time>
      </trkpt>
      <trkpt lat="41.4641600" lon="-8.7684120">
        <ele>9.5</ele>
        <time>2021-05-17T07:16:42Z</time>
      </trkpt>
      <trkpt lat="41.4641710" lon="-8.7684050">
        <ele>9.5</ele>
        <time>2021-05-17T07:16:43Z</time>
      </trkpt>
      <trkpt lat="41.4641870" lon="-8.7683980">
        <ele>9.5</ele>
        <time>2021-05-17T07:16:44Z</time>
      </trkpt>
      <trkpt lat="41.4642060" lon="-8.7683970">
        <ele>9.5</ele>
        <time>2021-05-17T07:16:45Z</time>
      </trkpt>
      <trkpt lat="41.4642210" lon="-8.7683900">
        <ele>9.5</ele>
        <time>2021-05-17T07:16:46Z</time>
      </trkpt>
      <trkpt lat="41.4642330" lon="-8.7683880">
        <ele>9.6</ele>
        <time>2021-05-17T07:16:47Z</time>
      </trkpt>
      <trkpt lat="41.4642470" lon="-8.7683850">
        <ele>9.6</ele>
        <time>2021-05-17T07:16:48Z</time>
      </trkpt>
      <trkpt lat="41.4642620" lon="-8.7683810">
        <ele>9.6</ele>
        <time>2021-05-17T07:16:49Z</time>
      </trkpt>
      <trkpt lat="41.4642770" lon="-8.7683750">
        <ele>9.6</ele>
        <time>2021-05-17T07:16:50Z</time>
      </trkpt>
      <trkpt lat="41.4642930" lon="-8.7683700">
        <ele>9.7</ele>
        <time>2021-05-17T07:16:51Z</time>
      </trkpt>
      <trkpt lat="41.4643140" lon="-8.7683630">
        <ele>9.7</ele>
        <time>2021-05-17T07:16:52Z</time>
      </trkpt>
      <trkpt lat="41.4643250" lon="-8.7683610">
        <ele>9.7</ele>
        <time>2021-05-17T07:16:53Z</time>
      </trkpt>
      <trkpt lat="41.4643350" lon="-8.7683590">
        <ele>9.7</ele>
        <time>2021-05-17T07:16:54Z</time>
      </trkpt>
      <trkpt lat="41.4643420" lon="-8.7683520">
        <ele>9.7</ele>
        <time>2021-05-17T07:16:55Z</time>
      </trkpt>
      <trkpt lat="41.4643640" lon="-8.7683520">
        <ele>9.8</ele>
        <time>2021-05-17T07:16:56Z</time>
      </trkpt>
      <trkpt lat="41.4643750" lon="-8.7683430">
        <ele>9.8</ele>
        <time>2021-05-17T07:16:57Z</time>
      </trkpt>
      <trkpt lat="41.4643900" lon="-8.7683400">
        <ele>9.8</ele>
        <time>2021-05-17T07:16:58Z</time>
      </trkpt>
      <trkpt lat="41.4644090" lon="-8.7683300">
        <ele>9.8</ele>
        <time>2021-05-17T07:16:59Z</time>
      </trkpt>
      <trkpt lat="41.4644200" lon="-8.7683210">
        <ele>9.8</ele>
        <time>2021-05-17T07:17:00Z</time>
      </trkpt>
      <trkpt lat="41.4644330" lon="-8.7683130">
        <ele>9.9</ele>
        <time>2021-05-17T07:17:01Z</time>
      </trkpt>
      <trkpt lat="41.4644480" lon="-8.7683070">
        <ele>9.9</ele>
        <time>2021-05-17T07:17:02Z</time>
      </trkpt>
      <trkpt lat="41.4644670" lon="-8.7682980">
        <ele>9.9</ele>
        <time>2021-05-17T07:17:03Z</time>
      </trkpt>
      <trkpt lat="41.4644750" lon="-8.7682940">
        <ele>9.9</ele>
        <time>2021-05-17T07:17:04Z</time>
      </trkpt>
      <trkpt lat="41.4644840" lon="-8.7682890">
        <ele>9.9</ele>
        <time>2021-05-17T07:17:05Z</time>
      </trkpt>
      <trkpt lat="41.4644900" lon="-8.7682880">
        <ele>9.9</ele>
        <time>2021-05-17T07:17:06Z</time>
      </trkpt>
      <trkpt lat="41.4644990" lon="-8.7682790">
        <ele>9.9</ele>
        <time>2021-05-17T07:17:07Z</time>
      </trkpt>
      <trkpt lat="41.4645090" lon="-8.7682700">
        <ele>10.0</ele>
        <time>2021-05-17T07:17:08Z</time>
      </trkpt>
      <trkpt lat="41.4645250" lon="-8.7682610">
        <ele>10.0</ele>
        <time>2021-05-17T07:17:09Z</time>
      </trkpt>
      <trkpt lat="41.4645340" lon="-8.7682550">
        <ele>10.0</ele>
        <time>2021-05-17T07:17:10Z</time>
      </trkpt>
      <trkpt lat="41.4645470" lon="-8.7682500">
        <ele>10.0</ele>
        <time>2021-05-17T07:17:11Z</time>
      </trkpt>
      <trkpt lat="41.4645650" lon="-8.7682460">
        <ele>10.0</ele>
        <time>2021-05-17T07:17:12Z</time>
      </trkpt>
      <trkpt lat="41.4645940" lon="-8.7682370">
        <ele>10.1</ele>
        <time>2021-05-17T07:17:13Z</time>
      </trkpt>
      <trkpt lat="41.4646020" lon="-8.7682350">
        <ele>10.1</ele>
        <time>2021-05-17T07:17:14Z</time>
      </trkpt>
      <trkpt lat="41.4646070" lon="-8.7682270">
        <ele>10.1</ele>
        <time>2021-05-17T07:17:15Z</time>
      </trkpt>
      <trkpt lat="41.4646170" lon="-8.7682220">
        <ele>10.1</ele>
        <time>2021-05-17T07:17:16Z</time>
      </trkpt>
      <trkpt lat="41.4646330" lon="-8.7682160">
        <ele>10.1</ele>
        <time>2021-05-17T07:17:17Z</time>
      </trkpt>
      <trkpt lat="41.4646450" lon="-8.7682110">
        <ele>10.2</ele>
        <time>2021-05-17T07:17:18Z</time>
      </trkpt>
      <trkpt lat="41.4646600" lon="-8.7682010">
        <ele>10.2</ele>
        <time>2021-05-17T07:17:19Z</time>
      </trkpt>
      <trkpt lat="41.4646720" lon="-8.7682010">
        <ele>10.2</ele>
        <time>2021-05-17T07:17:20Z</time>
      </trkpt>
      <trkpt lat="41.4646870" lon="-8.7681920">
        <ele>10.2</ele>
        <time>2021-05-17T07:17:21Z</time>
      </trkpt>
      <trkpt lat="41.4646990" lon="-8.7681880">
        <ele>10.2</ele>
        <time>2021-05-17T07:17:22Z</time>
      </trkpt>
      <trkpt lat="41.4647180" lon="-8.7681910">
        <ele>10.3</ele>
        <time>2021-05-17T07:17:23Z</time>
      </trkpt>
      <trkpt lat="41.4647250" lon="-8.7681920">
        <ele>10.3</ele>
        <time>2021-05-17T07:17:24Z</time>
      </trkpt>
      <trkpt lat="41.4647370" lon="-8.7681930">
        <ele>10.3</ele>
        <time>2021-05-17T07:17:25Z</time>
      </trkpt>
      <trkpt lat="41.4647520" lon="-8.7681920">
        <ele>10.3</ele>
        <time>2021-05-17T07:17:26Z</time>
      </trkpt>
      <trkpt lat="41.4647670" lon="-8.7681860">
        <ele>10.3</ele>
        <time>2021-05-17T07:17:27Z</time>
      </trkpt>
      <trkpt lat="41.4647830" lon="-8.7681790">
        <ele>10.3</ele>
        <time>2021-05-17T07:17:28Z</time>
      </trkpt>
      <trkpt lat="41.4647980" lon="-8.7681710">
        <ele>10.3</ele>
        <time>2021-05-17T07:17:29Z</time>
      </trkpt>
      <trkpt lat="41.4648150" lon="-8.7681670">
        <ele>10.3</ele>
        <time>2021-05-17T07:17:30Z</time>
      </trkpt>
      <trkpt lat="41.4648270" lon="-8.7681610">
        <ele>10.3</ele>
        <time>2021-05-17T07:17:31Z</time>
      </trkpt>
      <trkpt lat="41.4648420" lon="-8.7681570">
        <ele>10.3</ele>
        <time>2021-05-17T07:17:32Z</time>
      </trkpt>
      <trkpt lat="41.4648550" lon="-8.7681590">
        <ele>10.3</ele>
        <time>2021-05-17T07:17:33Z</time>
      </trkpt>
      <trkpt lat="41.4648700" lon="-8.7681640">
        <ele>10.3</ele>
        <time>2021-05-17T07:17:34Z</time>
      </trkpt>
      <trkpt lat="41.4648830" lon="-8.7681610">
        <ele>10.3</ele>
        <time>2021-05-17T07:17:35Z</time>
      </trkpt>
      <trkpt lat="41.4648990" lon="-8.7681530">
        <ele>10.3</ele>
        <time>2021-05-17T07:17:36Z</time>
      </trkpt>
      <trkpt lat="41.4649190" lon="-8.7681460">
        <ele>10.3</ele>
        <time>2021-05-17T07:17:37Z</time>
      </trkpt>
      <trkpt lat="41.4649290" lon="-8.7681440">
        <ele>10.3</ele>
        <time>2021-05-17T07:17:38Z</time>
      </trkpt>
      <trkpt lat="41.4649390" lon="-8.7681420">
        <ele>10.3</ele>
        <time>2021-05-17T07:17:39Z</time>
      </trkpt>
      <trkpt lat="41.4649540" lon="-8.7681400">
        <ele>10.3</ele>
        <time>2021-05-17T07:17:40Z</time>
      </trkpt>
      <trkpt lat="41.4649660" lon="-8.7681370">
        <ele>10.3</ele>
        <time>2021-05-17T07:17:41Z</time>
      </trkpt>
      <trkpt lat="41.4649820" lon="-8.7681380">
        <ele>10.3</ele>
        <time>2021-05-17T07:17:42Z</time>
      </trkpt>
      <trkpt lat="41.4649980" lon="-8.7681430">
        <ele>10.3</ele>
        <time>2021-05-17T07:17:43Z</time>
      </trkpt>
      <trkpt lat="41.4650140" lon="-8.7681350">
        <ele>10.3</ele>
        <time>2021-05-17T07:17:44Z</time>
      </trkpt>
      <trkpt lat="41.4650250" lon="-8.7681340">
        <ele>10.3</ele>
        <time>2021-05-17T07:17:45Z</time>
      </trkpt>
      <trkpt lat="41.4650480" lon="-8.7681360">
        <ele>10.3</ele>
        <time>2021-05-17T07:17:46Z</time>
      </trkpt>
      <trkpt lat="41.4650580" lon="-8.7681350">
        <ele>10.3</ele>
        <time>2021-05-17T07:17:47Z</time>
      </trkpt>
      <trkpt lat="41.4650670" lon="-8.7681340">
        <ele>10.3</ele>
        <time>2021-05-17T07:17:48Z</time>
      </trkpt>
      <trkpt lat="41.4650990" lon="-8.7681320">
        <ele>10.3</ele>
        <time>2021-05-17T07:17:50Z</time>
      </trkpt>
      <trkpt lat="41.4651150" lon="-8.7681310">
        <ele>10.3</ele>
        <time>2021-05-17T07:17:51Z</time>
      </trkpt>
      <trkpt lat="41.4651290" lon="-8.7681300">
        <ele>10.3</ele>
        <time>2021-05-17T07:17:52Z</time>
      </trkpt>
      <trkpt lat="41.4651510" lon="-8.7681270">
        <ele>10.3</ele>
        <time>2021-05-17T07:17:53Z</time>
      </trkpt>
      <trkpt lat="41.4651620" lon="-8.7681250">
        <ele>10.3</ele>
        <time>2021-05-17T07:17:54Z</time>
      </trkpt>
      <trkpt lat="41.4651720" lon="-8.7681240">
        <ele>10.3</ele>
        <time>2021-05-17T07:17:55Z</time>
      </trkpt>
      <trkpt lat="41.4651830" lon="-8.7681290">
        <ele>10.3</ele>
        <time>2021-05-17T07:17:56Z</time>
      </trkpt>
      <trkpt lat="41.4652060" lon="-8.7681280">
        <ele>10.3</ele>
        <time>2021-05-17T07:17:57Z</time>
      </trkpt>
      <trkpt lat="41.4652350" lon="-8.7681310">
        <ele>10.3</ele>
        <time>2021-05-17T07:17:58Z</time>
      </trkpt>
      <trkpt lat="41.4652450" lon="-8.7681330">
        <ele>10.3</ele>
        <time>2021-05-17T07:17:59Z</time>
      </trkpt>
      <trkpt lat="41.4652750" lon="-8.7681460">
        <ele>10.3</ele>
        <time>2021-05-17T07:18:00Z</time>
      </trkpt>
      <trkpt lat="41.4652840" lon="-8.7681510">
        <ele>10.3</ele>
        <time>2021-05-17T07:18:01Z</time>
      </trkpt>
      <trkpt lat="41.4653110" lon="-8.7681510">
        <ele>10.3</ele>
        <time>2021-05-17T07:18:02Z</time>
      </trkpt>
      <trkpt lat="41.4653210" lon="-8.7681520">
        <ele>10.3</ele>
        <time>2021-05-17T07:18:03Z</time>
      </trkpt>
      <trkpt lat="41.4653400" lon="-8.7681490">
        <ele>10.3</ele>
        <time>2021-05-17T07:18:04Z</time>
      </trkpt>
      <trkpt lat="41.4653560" lon="-8.7681470">
        <ele>10.3</ele>
        <time>2021-05-17T07:18:05Z</time>
      </trkpt>
      <trkpt lat="41.4653710" lon="-8.7681500">
        <ele>10.3</ele>
        <time>2021-05-17T07:18:06Z</time>
      </trkpt>
      <trkpt lat="41.4653870" lon="-8.7681490">
        <ele>10.3</ele>
        <time>2021-05-17T07:18:07Z</time>
      </trkpt>
      <trkpt lat="41.4654020" lon="-8.7681520">
        <ele>10.3</ele>
        <time>2021-05-17T07:18:08Z</time>
      </trkpt>
      <trkpt lat="41.4654210" lon="-8.7681520">
        <ele>10.3</ele>
        <time>2021-05-17T07:18:09Z</time>
      </trkpt>
      <trkpt lat="41.4654380" lon="-8.7681520">
        <ele>10.3</ele>
        <time>2021-05-17T07:18:10Z</time>
      </trkpt>
      <trkpt lat="41.4654530" lon="-8.7681460">
        <ele>10.2</ele>
        <time>2021-05-17T07:18:11Z</time>
      </trkpt>
      <trkpt lat="41.4654690" lon="-8.7681460">
        <ele>10.2</ele>
        <time>2021-05-17T07:18:12Z</time>
      </trkpt>
      <trkpt lat="41.4654860" lon="-8.7681520">
        <ele>10.2</ele>
        <time>2021-05-17T07:18:13Z</time>
      </trkpt>
      <trkpt lat="41.4655010" lon="-8.7681530">
        <ele>10.2</ele>
        <time>2021-05-17T07:18:14Z</time>
      </trkpt>
      <trkpt lat="41.4655150" lon="-8.7681480">
        <ele>10.2</ele>
        <time>2021-05-17T07:18:15Z</time>
      </trkpt>
      <trkpt lat="41.4655240" lon="-8.7681440">
        <ele>10.2</ele>
        <time>2021-05-17T07:18:16Z</time>
      </trkpt>
      <trkpt lat="41.4655360" lon="-8.7681410">
        <ele>10.2</ele>
        <time>2021-05-17T07:18:17Z</time>
      </trkpt>
      <trkpt lat="41.4655440" lon="-8.7681400">
        <ele>10.2</ele>
        <time>2021-05-17T07:18:18Z</time>
      </trkpt>
      <trkpt lat="41.4655510" lon="-8.7681370">
        <ele>10.2</ele>
        <time>2021-05-17T07:18:19Z</time>
      </trkpt>
      <trkpt lat="41.4655560" lon="-8.7681300">
        <ele>10.2</ele>
        <time>2021-05-17T07:18:20Z</time>
      </trkpt>
      <trkpt lat="41.4655630" lon="-8.7681320">
        <ele>10.2</ele>
        <time>2021-05-17T07:18:21Z</time>
      </trkpt>
      <trkpt lat="41.4655750" lon="-8.7681310">
        <ele>10.2</ele>
        <time>2021-05-17T07:18:22Z</time>
      </trkpt>
      <trkpt lat="41.4655950" lon="-8.7681280">
        <ele>10.2</ele>
        <time>2021-05-17T07:18:23Z</time>
      </trkpt>
      <trkpt lat="41.4656100" lon="-8.7681300">
        <ele>10.2</ele>
        <time>2021-05-17T07:18:24Z</time>
      </trkpt>
      <trkpt lat="41.4656250" lon="-8.7681310">
        <ele>10.1</ele>
        <time>2021-05-17T07:18:25Z</time>
      </trkpt>
      <trkpt lat="41.4656440" lon="-8.7681370">
        <ele>10.1</ele>
        <time>2021-05-17T07:18:26Z</time>
      </trkpt>
      <trkpt lat="41.4656580" lon="-8.7681330">
        <ele>10.1</ele>
        <time>2021-05-17T07:18:27Z</time>
      </trkpt>
      <trkpt lat="41.4656750" lon="-8.7681400">
        <ele>10.1</ele>
        <time>2021-05-17T07:18:28Z</time>
      </trkpt>
      <trkpt lat="41.4656920" lon="-8.7681350">
        <ele>10.1</ele>
        <time>2021-05-17T07:18:29Z</time>
      </trkpt>
      <trkpt lat="41.4657080" lon="-8.7681380">
        <ele>10.1</ele>
        <time>2021-05-17T07:18:30Z</time>
      </trkpt>
      <trkpt lat="41.4657280" lon="-8.7681380">
        <ele>10.1</ele>
        <time>2021-05-17T07:18:31Z</time>
      </trkpt>
      <trkpt lat="41.4657450" lon="-8.7681350">
        <ele>10.1</ele>
        <time>2021-05-17T07:18:32Z</time>
      </trkpt>
      <trkpt lat="41.4657590" lon="-8.7681380">
        <ele>10.1</ele>
        <time>2021-05-17T07:18:33Z</time>
      </trkpt>
      <trkpt lat="41.4657770" lon="-8.7681400">
        <ele>10.1</ele>
        <time>2021-05-17T07:18:34Z</time>
      </trkpt>
      <trkpt lat="41.4657930" lon="-8.7681430">
        <ele>10.1</ele>
        <time>2021-05-17T07:18:35Z</time>
      </trkpt>
      <trkpt lat="41.4658100" lon="-8.7681440">
        <ele>10.1</ele>
        <time>2021-05-17T07:18:36Z</time>
      </trkpt>
      <trkpt lat="41.4658260" lon="-8.7681440">
        <ele>10.0</ele>
        <time>2021-05-17T07:18:37Z</time>
      </trkpt>
      <trkpt lat="41.4658400" lon="-8.7681360">
        <ele>10.0</ele>
        <time>2021-05-17T07:18:38Z</time>
      </trkpt>
      <trkpt lat="41.4658540" lon="-8.7681320">
        <ele>10.0</ele>
        <time>2021-05-17T07:18:39Z</time>
      </trkpt>
      <trkpt lat="41.4658710" lon="-8.7681300">
        <ele>10.0</ele>
        <time>2021-05-17T07:18:40Z</time>
      </trkpt>
      <trkpt lat="41.4658870" lon="-8.7681260">
        <ele>10.0</ele>
        <time>2021-05-17T07:18:41Z</time>
      </trkpt>
      <trkpt lat="41.4659020" lon="-8.7681240">
        <ele>10.0</ele>
        <time>2021-05-17T07:18:42Z</time>
      </trkpt>
      <trkpt lat="41.4659170" lon="-8.7681290">
        <ele>10.0</ele>
        <time>2021-05-17T07:18:43Z</time>
      </trkpt>
      <trkpt lat="41.4659330" lon="-8.7681350">
        <ele>10.0</ele>
        <time>2021-05-17T07:18:44Z</time>
      </trkpt>
      <trkpt lat="41.4659490" lon="-8.7681310">
        <ele>10.0</ele>
        <time>2021-05-17T07:18:45Z</time>
      </trkpt>
      <trkpt lat="41.4659630" lon="-8.7681320">
        <ele>10.0</ele>
        <time>2021-05-17T07:18:46Z</time>
      </trkpt>
      <trkpt lat="41.4659800" lon="-8.7681300">
        <ele>10.0</ele>
        <time>2021-05-17T07:18:47Z</time>
      </trkpt>
      <trkpt lat="41.4659930" lon="-8.7681360">
        <ele>10.0</ele>
        <time>2021-05-17T07:18:48Z</time>
      </trkpt>
      <trkpt lat="41.4660090" lon="-8.7681360">
        <ele>10.0</ele>
        <time>2021-05-17T07:18:49Z</time>
      </trkpt>
      <trkpt lat="41.4660240" lon="-8.7681370">
        <ele>10.0</ele>
        <time>2021-05-17T07:18:50Z</time>
      </trkpt>
      <trkpt lat="41.4660370" lon="-8.7681370">
        <ele>10.1</ele>
        <time>2021-05-17T07:18:51Z</time>
      </trkpt>
      <trkpt lat="41.4660520" lon="-8.7681390">
        <ele>10.1</ele>
        <time>2021-05-17T07:18:52Z</time>
      </trkpt>
      <trkpt lat="41.4660670" lon="-8.7681380">
        <ele>10.1</ele>
        <time>2021-05-17T07:18:53Z</time>
      </trkpt>
      <trkpt lat="41.4660830" lon="-8.7681410">
        <ele>10.1</ele>
        <time>2021-05-17T07:18:54Z</time>
      </trkpt>
      <trkpt lat="41.4660960" lon="-8.7681250">
        <ele>10.1</ele>
        <time>2021-05-17T07:18:55Z</time>
      </trkpt>
      <trkpt lat="41.4661090" lon="-8.7681220">
        <ele>10.1</ele>
        <time>2021-05-17T07:18:56Z</time>
      </trkpt>
      <trkpt lat="41.4661280" lon="-8.7681240">
        <ele>10.1</ele>
        <time>2021-05-17T07:18:57Z</time>
      </trkpt>
      <trkpt lat="41.4661420" lon="-8.7681210">
        <ele>10.1</ele>
        <time>2021-05-17T07:18:58Z</time>
      </trkpt>
      <trkpt lat="41.4661580" lon="-8.7681200">
        <ele>10.2</ele>
        <time>2021-05-17T07:18:59Z</time>
      </trkpt>
      <trkpt lat="41.4661720" lon="-8.7681210">
        <ele>10.2</ele>
        <time>2021-05-17T07:19:00Z</time>
      </trkpt>
      <trkpt lat="41.4661860" lon="-8.7681180">
        <ele>10.2</ele>
        <time>2021-05-17T07:19:01Z</time>
      </trkpt>
      <trkpt lat="41.4661960" lon="-8.7681120">
        <ele>10.2</ele>
        <time>2021-05-17T07:19:02Z</time>
      </trkpt>
      <trkpt lat="41.4662050" lon="-8.7681110">
        <ele>10.2</ele>
        <time>2021-05-17T07:19:03Z</time>
      </trkpt>
      <trkpt lat="41.4662140" lon="-8.7681040">
        <ele>10.2</ele>
        <time>2021-05-17T07:19:04Z</time>
      </trkpt>
      <trkpt lat="41.4662270" lon="-8.7681050">
        <ele>10.2</ele>
        <time>2021-05-17T07:19:05Z</time>
      </trkpt>
      <trkpt lat="41.4662410" lon="-8.7681010">
        <ele>10.3</ele>
        <time>2021-05-17T07:19:06Z</time>
      </trkpt>
      <trkpt lat="41.4662510" lon="-8.7680850">
        <ele>10.3</ele>
        <time>2021-05-17T07:19:07Z</time>
      </trkpt>
      <trkpt lat="41.4662550" lon="-8.7680790">
        <ele>10.3</ele>
        <time>2021-05-17T07:19:08Z</time>
      </trkpt>
      <trkpt lat="41.4662630" lon="-8.7680780">
        <ele>10.3</ele>
        <time>2021-05-17T07:19:09Z</time>
      </trkpt>
      <trkpt lat="41.4662670" lon="-8.7680830">
        <ele>10.3</ele>
        <time>2021-05-17T07:19:10Z</time>
      </trkpt>
      <trkpt lat="41.4662840" lon="-8.7680770">
        <ele>10.3</ele>
        <time>2021-05-17T07:19:11Z</time>
      </trkpt>
      <trkpt lat="41.4662950" lon="-8.7680720">
        <ele>10.4</ele>
        <time>2021-05-17T07:19:12Z</time>
      </trkpt>
      <trkpt lat="41.4663130" lon="-8.7680710">
        <ele>10.4</ele>
        <time>2021-05-17T07:19:13Z</time>
      </trkpt>
      <trkpt lat="41.4663290" lon="-8.7680670">
        <ele>10.4</ele>
        <time>2021-05-17T07:19:14Z</time>
      </trkpt>
      <trkpt lat="41.4663530" lon="-8.7680640">
        <ele>10.5</ele>
        <time>2021-05-17T07:19:15Z</time>
      </trkpt>
      <trkpt lat="41.4663610" lon="-8.7680610">
        <ele>10.5</ele>
        <time>2021-05-17T07:19:16Z</time>
      </trkpt>
      <trkpt lat="41.4663700" lon="-8.7680580">
        <ele>10.5</ele>
        <time>2021-05-17T07:19:17Z</time>
      </trkpt>
      <trkpt lat="41.4663820" lon="-8.7680560">
        <ele>10.5</ele>
        <time>2021-05-17T07:19:18Z</time>
      </trkpt>
      <trkpt lat="41.4664020" lon="-8.7680470">
        <ele>10.5</ele>
        <time>2021-05-17T07:19:19Z</time>
      </trkpt>
      <trkpt lat="41.4664070" lon="-8.7680450">
        <ele>10.5</ele>
        <time>2021-05-17T07:19:20Z</time>
      </trkpt>
      <trkpt lat="41.4664190" lon="-8.7680390">
        <ele>10.6</ele>
        <time>2021-05-17T07:19:21Z</time>
      </trkpt>
      <trkpt lat="41.4664360" lon="-8.7680390">
        <ele>10.6</ele>
        <time>2021-05-17T07:19:22Z</time>
      </trkpt>
      <trkpt lat="41.4664680" lon="-8.7680330">
        <ele>10.6</ele>
        <time>2021-05-17T07:19:23Z</time>
      </trkpt>
      <trkpt lat="41.4664760" lon="-8.7680340">
        <ele>10.6</ele>
        <time>2021-05-17T07:19:24Z</time>
      </trkpt>
      <trkpt lat="41.4665060" lon="-8.7680240">
        <ele>10.7</ele>
        <time>2021-05-17T07:19:25Z</time>
      </trkpt>
      <trkpt lat="41.4665140" lon="-8.7680200">
        <ele>10.7</ele>
        <time>2021-05-17T07:19:26Z</time>
      </trkpt>
      <trkpt lat="41.4665290" lon="-8.7680150">
        <ele>10.7</ele>
        <time>2021-05-17T07:19:27Z</time>
      </trkpt>
      <trkpt lat="41.4665440" lon="-8.7680070">
        <ele>10.7</ele>
        <time>2021-05-17T07:19:28Z</time>
      </trkpt>
      <trkpt lat="41.4665590" lon="-8.7680040">
        <ele>10.7</ele>
        <time>2021-05-17T07:19:29Z</time>
      </trkpt>
      <trkpt lat="41.4665740" lon="-8.7679970">
        <ele>10.7</ele>
        <time>2021-05-17T07:19:30Z</time>
      </trkpt>
      <trkpt lat="41.4665910" lon="-8.7679920">
        <ele>10.7</ele>
        <time>2021-05-17T07:19:31Z</time>
      </trkpt>
      <trkpt lat="41.4666070" lon="-8.7679800">
        <ele>10.7</ele>
        <time>2021-05-17T07:19:32Z</time>
      </trkpt>
      <trkpt lat="41.4666240" lon="-8.7679780">
        <ele>10.8</ele>
        <time>2021-05-17T07:19:33Z</time>
      </trkpt>
      <trkpt lat="41.4666370" lon="-8.7679670">
        <ele>10.8</ele>
        <time>2021-05-17T07:19:34Z</time>
      </trkpt>
      <trkpt lat="41.4666600" lon="-8.7679640">
        <ele>10.8</ele>
        <time>2021-05-17T07:19:35Z</time>
      </trkpt>
      <trkpt lat="41.4666690" lon="-8.7679610">
        <ele>10.8</ele>
        <time>2021-05-17T07:19:36Z</time>
      </trkpt>
      <trkpt lat="41.4666770" lon="-8.7679580">
        <ele>10.8</ele>
        <time>2021-05-17T07:19:37Z</time>
      </trkpt>
      <trkpt lat="41.4666830" lon="-8.7679560">
        <ele>10.8</ele>
        <time>2021-05-17T07:19:38Z</time>
      </trkpt>
      <trkpt lat="41.4667000" lon="-8.7679530">
        <ele>10.8</ele>
        <time>2021-05-17T07:19:39Z</time>
      </trkpt>
      <trkpt lat="41.4667080" lon="-8.7679400">
        <ele>10.8</ele>
        <time>2021-05-17T07:19:40Z</time>
      </trkpt>
      <trkpt lat="41.4667200" lon="-8.7679320">
        <ele>10.8</ele>
        <time>2021-05-17T07:19:41Z</time>
      </trkpt>
      <trkpt lat="41.4667300" lon="-8.7679270">
        <ele>10.9</ele>
        <time>2021-05-17T07:19:42Z</time>
      </trkpt>
      <trkpt lat="41.4667430" lon="-8.7679250">
        <ele>10.9</ele>
        <time>2021-05-17T07:19:43Z</time>
      </trkpt>
      <trkpt lat="41.4667630" lon="-8.7679160">
        <ele>10.9</ele>
        <time>2021-05-17T07:19:44Z</time>
      </trkpt>
      <trkpt lat="41.4667710" lon="-8.7679120">
        <ele>10.9</ele>
        <time>2021-05-17T07:19:45Z</time>
      </trkpt>
      <trkpt lat="41.4667780" lon="-8.7679090">
        <ele>10.9</ele>
        <time>2021-05-17T07:19:46Z</time>
      </trkpt>
      <trkpt lat="41.4667980" lon="-8.7679030">
        <ele>10.9</ele>
        <time>2021-05-17T07:19:47Z</time>
      </trkpt>
      <trkpt lat="41.4668120" lon="-8.7678980">
        <ele>10.9</ele>
        <time>2021-05-17T07:19:48Z</time>
      </trkpt>
      <trkpt lat="41.4668210" lon="-8.7678930">
        <ele>10.9</ele>
        <time>2021-05-17T07:19:49Z</time>
      </trkpt>
      <trkpt lat="41.4668270" lon="-8.7678920">
        <ele>10.9</ele>
        <time>2021-05-17T07:19:50Z</time>
      </trkpt>
      <trkpt lat="41.4668390" lon="-8.7678850">
        <ele>10.9</ele>
        <time>2021-05-17T07:19:51Z</time>
      </trkpt>
      <trkpt lat="41.4668620" lon="-8.7678770">
        <ele>11.0</ele>
        <time>2021-05-17T07:19:52Z</time>
      </trkpt>
      <trkpt lat="41.4668690" lon="-8.7678740">
        <ele>11.0</ele>
        <time>2021-05-17T07:19:53Z</time>
      </trkpt>
      <trkpt lat="41.4668770" lon="-8.7678700">
        <ele>11.0</ele>
        <time>2021-05-17T07:19:54Z</time>
      </trkpt>
      <trkpt lat="41.4668980" lon="-8.7678640">
        <ele>11.0</ele>
        <time>2021-05-17T07:19:55Z</time>
      </trkpt>
      <trkpt lat="41.4669080" lon="-8.7678610">
        <ele>11.0</ele>
        <time>2021-05-17T07:19:56Z</time>
      </trkpt>
      <trkpt lat="41.4669170" lon="-8.7678580">
        <ele>11.0</ele>
        <time>2021-05-17T07:19:57Z</time>
      </trkpt>
      <trkpt lat="41.4669250" lon="-8.7678540">
        <ele>11.0</ele>
        <time>2021-05-17T07:19:58Z</time>
      </trkpt>
      <trkpt lat="41.4669430" lon="-8.7678470">
        <ele>11.0</ele>
        <time>2021-05-17T07:19:59Z</time>
      </trkpt>
      <trkpt lat="41.4669520" lon="-8.7678430">
        <ele>11.0</ele>
        <time>2021-05-17T07:20:00Z</time>
      </trkpt>
      <trkpt lat="41.4669610" lon="-8.7678410">
        <ele>11.1</ele>
        <time>2021-05-17T07:20:01Z</time>
      </trkpt>
      <trkpt lat="41.4669720" lon="-8.7678410">
        <ele>11.1</ele>
        <time>2021-05-17T07:20:02Z</time>
      </trkpt>
      <trkpt lat="41.4669850" lon="-8.7678370">
        <ele>11.1</ele>
        <time>2021-05-17T07:20:03Z</time>
      </trkpt>
      <trkpt lat="41.4670030" lon="-8.7678350">
        <ele>11.1</ele>
        <time>2021-05-17T07:20:04Z</time>
      </trkpt>
      <trkpt lat="41.4670100" lon="-8.7678200">
        <ele>11.1</ele>
        <time>2021-05-17T07:20:05Z</time>
      </trkpt>
      <trkpt lat="41.4670250" lon="-8.7678080">
        <ele>11.1</ele>
        <time>2021-05-17T07:20:06Z</time>
      </trkpt>
      <trkpt lat="41.4670450" lon="-8.7677940">
        <ele>11.1</ele>
        <time>2021-05-17T07:20:07Z</time>
      </trkpt>
      <trkpt lat="41.4670520" lon="-8.7677910">
        <ele>11.1</ele>
        <time>2021-05-17T07:20:08Z</time>
      </trkpt>
      <trkpt lat="41.4670590" lon="-8.7677870">
        <ele>11.1</ele>
        <time>2021-05-17T07:20:09Z</time>
      </trkpt>
      <trkpt lat="41.4670680" lon="-8.7677770">
        <ele>11.2</ele>
        <time>2021-05-17T07:20:10Z</time>
      </trkpt>
      <trkpt lat="41.4670850" lon="-8.7677700">
        <ele>11.2</ele>
        <time>2021-05-17T07:20:11Z</time>
      </trkpt>
      <trkpt lat="41.4671000" lon="-8.7677670">
        <ele>11.2</ele>
        <time>2021-05-17T07:20:12Z</time>
      </trkpt>
      <trkpt lat="41.4671080" lon="-8.7677650">
        <ele>11.2</ele>
        <time>2021-05-17T07:20:13Z</time>
      </trkpt>
      <trkpt lat="41.4671180" lon="-8.7677600">
        <ele>11.2</ele>
        <time>2021-05-17T07:20:14Z</time>
      </trkpt>
      <trkpt lat="41.4671460" lon="-8.7677580">
        <ele>11.2</ele>
        <time>2021-05-17T07:20:15Z</time>
      </trkpt>
      <trkpt lat="41.4671550" lon="-8.7677560">
        <ele>11.2</ele>
        <time>2021-05-17T07:20:16Z</time>
      </trkpt>
      <trkpt lat="41.4671710" lon="-8.7677460">
        <ele>11.2</ele>
        <time>2021-05-17T07:20:17Z</time>
      </trkpt>
      <trkpt lat="41.4671840" lon="-8.7677430">
        <ele>11.2</ele>
        <time>2021-05-17T07:20:18Z</time>
      </trkpt>
      <trkpt lat="41.4672010" lon="-8.7677460">
        <ele>11.3</ele>
        <time>2021-05-17T07:20:19Z</time>
      </trkpt>
      <trkpt lat="41.4672180" lon="-8.7677410">
        <ele>11.3</ele>
        <time>2021-05-17T07:20:20Z</time>
      </trkpt>
      <trkpt lat="41.4672260" lon="-8.7677370">
        <ele>11.3</ele>
        <time>2021-05-17T07:20:21Z</time>
      </trkpt>
      <trkpt lat="41.4672350" lon="-8.7677290">
        <ele>11.3</ele>
        <time>2021-05-17T07:20:22Z</time>
      </trkpt>
      <trkpt lat="41.4672460" lon="-8.7677240">
        <ele>11.3</ele>
        <time>2021-05-17T07:20:23Z</time>
      </trkpt>
      <trkpt lat="41.4672650" lon="-8.7677140">
        <ele>11.3</ele>
        <time>2021-05-17T07:20:24Z</time>
      </trkpt>
      <trkpt lat="41.4672720" lon="-8.7677080">
        <ele>11.3</ele>
        <time>2021-05-17T07:20:25Z</time>
      </trkpt>
      <trkpt lat="41.4672800" lon="-8.7677020">
        <ele>11.3</ele>
        <time>2021-05-17T07:20:26Z</time>
      </trkpt>
      <trkpt lat="41.4672920" lon="-8.7676900">
        <ele>11.3</ele>
        <time>2021-05-17T07:20:27Z</time>
      </trkpt>
      <trkpt lat="41.4673070" lon="-8.7676840">
        <ele>11.3</ele>
        <time>2021-05-17T07:20:28Z</time>
      </trkpt>
      <trkpt lat="41.4673230" lon="-8.7676750">
        <ele>11.3</ele>
        <time>2021-05-17T07:20:29Z</time>
      </trkpt>
      <trkpt lat="41.4673330" lon="-8.7676650">
        <ele>11.3</ele>
        <time>2021-05-17T07:20:30Z</time>
      </trkpt>
      <trkpt lat="41.4673470" lon="-8.7676580">
        <ele>11.3</ele>
        <time>2021-05-17T07:20:31Z</time>
      </trkpt>
      <trkpt lat="41.4673590" lon="-8.7676370">
        <ele>11.3</ele>
        <time>2021-05-17T07:20:32Z</time>
      </trkpt>
      <trkpt lat="41.4673720" lon="-8.7676270">
        <ele>11.3</ele>
        <time>2021-05-17T07:20:33Z</time>
      </trkpt>
      <trkpt lat="41.4673810" lon="-8.7676130">
        <ele>11.4</ele>
        <time>2021-05-17T07:20:34Z</time>
      </trkpt>
      <trkpt lat="41.4673990" lon="-8.7675960">
        <ele>11.4</ele>
        <time>2021-05-17T07:20:35Z</time>
      </trkpt>
      <trkpt lat="41.4674050" lon="-8.7675800">
        <ele>11.4</ele>
        <time>2021-05-17T07:20:36Z</time>
      </trkpt>
      <trkpt lat="41.4674140" lon="-8.7675660">
        <ele>11.4</ele>
        <time>2021-05-17T07:20:37Z</time>
      </trkpt>
      <trkpt lat="41.4674250" lon="-8.7675470">
        <ele>11.4</ele>
        <time>2021-05-17T07:20:39Z</time>
      </trkpt>
      <trkpt lat="41.4674290" lon="-8.7675310">
        <ele>11.4</ele>
        <time>2021-05-17T07:20:40Z</time>
      </trkpt>
      <trkpt lat="41.4674330" lon="-8.7675140">
        <ele>11.4</ele>
        <time>2021-05-17T07:20:41Z</time>
      </trkpt>
      <trkpt lat="41.4674350" lon="-8.7675020">
        <ele>11.4</ele>
        <time>2021-05-17T07:20:42Z</time>
      </trkpt>
      <trkpt lat="41.4674480" lon="-8.7674710">
        <ele>11.4</ele>
        <time>2021-05-17T07:20:43Z</time>
      </trkpt>
      <trkpt lat="41.4674550" lon="-8.7674530">
        <ele>11.4</ele>
        <time>2021-05-17T07:20:45Z</time>
      </trkpt>
      <trkpt lat="41.4674630" lon="-8.7674360">
        <ele>11.4</ele>
        <time>2021-05-17T07:20:46Z</time>
      </trkpt>
      <trkpt lat="41.4674660" lon="-8.7674090">
        <ele>11.4</ele>
        <time>2021-05-17T07:20:48Z</time>
      </trkpt>
      <trkpt lat="41.4674660" lon="-8.7674010">
        <ele>11.4</ele>
        <time>2021-05-17T07:20:49Z</time>
      </trkpt>
      <trkpt lat="41.4674680" lon="-8.7673780">
        <ele>11.4</ele>
        <time>2021-05-17T07:20:50Z</time>
      </trkpt>
      <trkpt lat="41.4674700" lon="-8.7673580">
        <ele>11.4</ele>
        <time>2021-05-17T07:20:51Z</time>
      </trkpt>
      <trkpt lat="41.4674820" lon="-8.7673400">
        <ele>11.4</ele>
        <time>2021-05-17T07:20:52Z</time>
      </trkpt>
      <trkpt lat="41.4674890" lon="-8.7673270">
        <ele>11.4</ele>
        <time>2021-05-17T07:20:53Z</time>
      </trkpt>
      <trkpt lat="41.4674990" lon="-8.7673060">
        <ele>11.4</ele>
        <time>2021-05-17T07:20:54Z</time>
      </trkpt>
      <trkpt lat="41.4675020" lon="-8.7672850">
        <ele>11.4</ele>
        <time>2021-05-17T07:20:55Z</time>
      </trkpt>
      <trkpt lat="41.4675020" lon="-8.7672570">
        <ele>11.5</ele>
        <time>2021-05-17T07:20:56Z</time>
      </trkpt>
      <trkpt lat="41.4675030" lon="-8.7672420">
        <ele>11.5</ele>
        <time>2021-05-17T07:20:57Z</time>
      </trkpt>
      <trkpt lat="41.4675080" lon="-8.7672210">
        <ele>11.5</ele>
        <time>2021-05-17T07:20:58Z</time>
      </trkpt>
      <trkpt lat="41.4675140" lon="-8.7672070">
        <ele>11.5</ele>
        <time>2021-05-17T07:20:59Z</time>
      </trkpt>
      <trkpt lat="41.4675150" lon="-8.7671950">
        <ele>11.5</ele>
        <time>2021-05-17T07:21:00Z</time>
      </trkpt>
      <trkpt lat="41.4675200" lon="-8.7671840">
        <ele>11.5</ele>
        <time>2021-05-17T07:21:01Z</time>
      </trkpt>
      <trkpt lat="41.4675280" lon="-8.7671690">
        <ele>11.5</ele>
        <time>2021-05-17T07:21:02Z</time>
      </trkpt>
      <trkpt lat="41.4675340" lon="-8.7671340">
        <ele>11.5</ele>
        <time>2021-05-17T07:21:03Z</time>
      </trkpt>
      <trkpt lat="41.4675350" lon="-8.7671200">
        <ele>11.5</ele>
        <time>2021-05-17T07:21:04Z</time>
      </trkpt>
      <trkpt lat="41.4675370" lon="-8.7670940">
        <ele>11.5</ele>
        <time>2021-05-17T07:21:05Z</time>
      </trkpt>
      <trkpt lat="41.4675360" lon="-8.7670760">
        <ele>11.6</ele>
        <time>2021-05-17T07:21:06Z</time>
      </trkpt>
      <trkpt lat="41.4675430" lon="-8.7670500">
        <ele>11.6</ele>
        <time>2021-05-17T07:21:07Z</time>
      </trkpt>
      <trkpt lat="41.4675460" lon="-8.7670370">
        <ele>11.6</ele>
        <time>2021-05-17T07:21:08Z</time>
      </trkpt>
      <trkpt lat="41.4675490" lon="-8.7670240">
        <ele>11.6</ele>
        <time>2021-05-17T07:21:09Z</time>
      </trkpt>
      <trkpt lat="41.4675570" lon="-8.7670000">
        <ele>11.6</ele>
        <time>2021-05-17T07:21:10Z</time>
      </trkpt>
      <trkpt lat="41.4675590" lon="-8.7669880">
        <ele>11.6</ele>
        <time>2021-05-17T07:21:11Z</time>
      </trkpt>
      <trkpt lat="41.4675610" lon="-8.7669770">
        <ele>11.6</ele>
        <time>2021-05-17T07:21:12Z</time>
      </trkpt>
      <trkpt lat="41.4675590" lon="-8.7669600">
        <ele>11.6</ele>
        <time>2021-05-17T07:21:13Z</time>
      </trkpt>
      <trkpt lat="41.4675680" lon="-8.7669370">
        <ele>11.6</ele>
        <time>2021-05-17T07:21:14Z</time>
      </trkpt>
      <trkpt lat="41.4675690" lon="-8.7669140">
        <ele>11.6</ele>
        <time>2021-05-17T07:21:15Z</time>
      </trkpt>
      <trkpt lat="41.4675750" lon="-8.7668950">
        <ele>11.6</ele>
        <time>2021-05-17T07:21:16Z</time>
      </trkpt>
      <trkpt lat="41.4675770" lon="-8.7668740">
        <ele>11.7</ele>
        <time>2021-05-17T07:21:17Z</time>
      </trkpt>
      <trkpt lat="41.4675790" lon="-8.7668540">
        <ele>11.7</ele>
        <time>2021-05-17T07:21:18Z</time>
      </trkpt>
      <trkpt lat="41.4675830" lon="-8.7668270">
        <ele>11.7</ele>
        <time>2021-05-17T07:21:19Z</time>
      </trkpt>
      <trkpt lat="41.4675890" lon="-8.7668130">
        <ele>11.7</ele>
        <time>2021-05-17T07:21:20Z</time>
      </trkpt>
      <trkpt lat="41.4675930" lon="-8.7667840">
        <ele>11.7</ele>
        <time>2021-05-17T07:21:21Z</time>
      </trkpt>
      <trkpt lat="41.4675940" lon="-8.7667700">
        <ele>11.7</ele>
        <time>2021-05-17T07:21:22Z</time>
      </trkpt>
      <trkpt lat="41.4675960" lon="-8.7667550">
        <ele>11.7</ele>
        <time>2021-05-17T07:21:23Z</time>
      </trkpt>
      <trkpt lat="41.4675940" lon="-8.7667310">
        <ele>11.7</ele>
        <time>2021-05-17T07:21:24Z</time>
      </trkpt>
      <trkpt lat="41.4675960" lon="-8.7667090">
        <ele>11.7</ele>
        <time>2021-05-17T07:21:25Z</time>
      </trkpt>
      <trkpt lat="41.4676010" lon="-8.7666810">
        <ele>11.7</ele>
        <time>2021-05-17T07:21:26Z</time>
      </trkpt>
      <trkpt lat="41.4676040" lon="-8.7666680">
        <ele>11.7</ele>
        <time>2021-05-17T07:21:27Z</time>
      </trkpt>
      <trkpt lat="41.4676060" lon="-8.7666550">
        <ele>11.7</ele>
        <time>2021-05-17T07:21:28Z</time>
      </trkpt>
      <trkpt lat="41.4676110" lon="-8.7666340">
        <ele>11.7</ele>
        <time>2021-05-17T07:21:29Z</time>
      </trkpt>
      <trkpt lat="41.4676150" lon="-8.7666150">
        <ele>11.7</ele>
        <time>2021-05-17T07:21:30Z</time>
      </trkpt>
      <trkpt lat="41.4676230" lon="-8.7665940">
        <ele>11.7</ele>
        <time>2021-05-17T07:21:31Z</time>
      </trkpt>
      <trkpt lat="41.4676260" lon="-8.7665770">
        <ele>11.7</ele>
        <time>2021-05-17T07:21:32Z</time>
      </trkpt>
      <trkpt lat="41.4676340" lon="-8.7665620">
        <ele>11.7</ele>
        <time>2021-05-17T07:21:33Z</time>
      </trkpt>
      <trkpt lat="41.4676380" lon="-8.7665310">
        <ele>11.7</ele>
        <time>2021-05-17T07:21:34Z</time>
      </trkpt>
      <trkpt lat="41.4676390" lon="-8.7665140">
        <ele>11.7</ele>
        <time>2021-05-17T07:21:35Z</time>
      </trkpt>
      <trkpt lat="41.4676390" lon="-8.7664880">
        <ele>11.7</ele>
        <time>2021-05-17T07:21:36Z</time>
      </trkpt>
      <trkpt lat="41.4676410" lon="-8.7664580">
        <ele>11.7</ele>
        <time>2021-05-17T07:21:37Z</time>
      </trkpt>
      <trkpt lat="41.4676440" lon="-8.7664400">
        <ele>11.7</ele>
        <time>2021-05-17T07:21:39Z</time>
      </trkpt>
      <trkpt lat="41.4676420" lon="-8.7664290">
        <ele>11.7</ele>
        <time>2021-05-17T07:21:40Z</time>
      </trkpt>
      <trkpt lat="41.4676470" lon="-8.7664140">
        <ele>11.7</ele>
        <time>2021-05-17T07:21:41Z</time>
      </trkpt>
      <trkpt lat="41.4676580" lon="-8.7664020">
        <ele>11.7</ele>
        <time>2021-05-17T07:21:42Z</time>
      </trkpt>
      <trkpt lat="41.4676630" lon="-8.7663870">
        <ele>11.7</ele>
        <time>2021-05-17T07:21:43Z</time>
      </trkpt>
      <trkpt lat="41.4676820" lon="-8.7663530">
        <ele>11.7</ele>
        <time>2021-05-17T07:21:44Z</time>
      </trkpt>
      <trkpt lat="41.4676890" lon="-8.7663320">
        <ele>11.7</ele>
        <time>2021-05-17T07:21:45Z</time>
      </trkpt>
      <trkpt lat="41.4676910" lon="-8.7663230">
        <ele>11.7</ele>
        <time>2021-05-17T07:21:46Z</time>
      </trkpt>
      <trkpt lat="41.4676960" lon="-8.7663050">
        <ele>11.7</ele>
        <time>2021-05-17T07:21:47Z</time>
      </trkpt>
      <trkpt lat="41.4677040" lon="-8.7662830">
        <ele>11.7</ele>
        <time>2021-05-17T07:21:48Z</time>
      </trkpt>
      <trkpt lat="41.4677130" lon="-8.7662580">
        <ele>11.7</ele>
        <time>2021-05-17T07:21:49Z</time>
      </trkpt>
      <trkpt lat="41.4677170" lon="-8.7662420">
        <ele>11.7</ele>
        <time>2021-05-17T07:21:50Z</time>
      </trkpt>
      <trkpt lat="41.4677270" lon="-8.7662270">
        <ele>11.7</ele>
        <time>2021-05-17T07:21:51Z</time>
      </trkpt>
      <trkpt lat="41.4677300" lon="-8.7662060">
        <ele>11.7</ele>
        <time>2021-05-17T07:21:52Z</time>
      </trkpt>
      <trkpt lat="41.4677400" lon="-8.7661840">
        <ele>11.7</ele>
        <time>2021-05-17T07:21:53Z</time>
      </trkpt>
      <trkpt lat="41.4677460" lon="-8.7661740">
        <ele>11.7</ele>
        <time>2021-05-17T07:21:54Z</time>
      </trkpt>
      <trkpt lat="41.4677510" lon="-8.7661650">
        <ele>11.7</ele>
        <time>2021-05-17T07:21:55Z</time>
      </trkpt>
      <trkpt lat="41.4677570" lon="-8.7661470">
        <ele>11.7</ele>
        <time>2021-05-17T07:21:56Z</time>
      </trkpt>
      <trkpt lat="41.4677720" lon="-8.7661410">
        <ele>11.7</ele>
        <time>2021-05-17T07:21:57Z</time>
      </trkpt>
      <trkpt lat="41.4677850" lon="-8.7661420">
        <ele>11.7</ele>
        <time>2021-05-17T07:21:58Z</time>
      </trkpt>
      <trkpt lat="41.4678010" lon="-8.7661290">
        <ele>11.7</ele>
        <time>2021-05-17T07:21:59Z</time>
      </trkpt>
      <trkpt lat="41.4678260" lon="-8.7661150">
        <ele>11.8</ele>
        <time>2021-05-17T07:22:00Z</time>
      </trkpt>
      <trkpt lat="41.4678350" lon="-8.7661090">
        <ele>11.8</ele>
        <time>2021-05-17T07:22:01Z</time>
      </trkpt>
      <trkpt lat="41.4678460" lon="-8.7661070">
        <ele>11.8</ele>
        <time>2021-05-17T07:22:02Z</time>
      </trkpt>
      <trkpt lat="41.4678590" lon="-8.7660990">
        <ele>11.8</ele>
        <time>2021-05-17T07:22:03Z</time>
      </trkpt>
      <trkpt lat="41.4678680" lon="-8.7660950">
        <ele>11.8</ele>
        <time>2021-05-17T07:22:05Z</time>
      </trkpt>
      <trkpt lat="41.4678910" lon="-8.7660870">
        <ele>11.8</ele>
        <time>2021-05-17T07:22:06Z</time>
      </trkpt>
      <trkpt lat="41.4679060" lon="-8.7660870">
        <ele>11.8</ele>
        <time>2021-05-17T07:22:08Z</time>
      </trkpt>
      <trkpt lat="41.4679290" lon="-8.7660830">
        <ele>11.8</ele>
        <time>2021-05-17T07:22:09Z</time>
      </trkpt>
      <trkpt lat="41.4679390" lon="-8.7660820">
        <ele>11.8</ele>
        <time>2021-05-17T07:22:10Z</time>
      </trkpt>
      <trkpt lat="41.4679480" lon="-8.7660800">
        <ele>11.8</ele>
        <time>2021-05-17T07:22:11Z</time>
      </trkpt>
      <trkpt lat="41.4679690" lon="-8.7660760">
        <ele>11.8</ele>
        <time>2021-05-17T07:22:12Z</time>
      </trkpt>
      <trkpt lat="41.4679820" lon="-8.7660760">
        <ele>11.8</ele>
        <time>2021-05-17T07:22:13Z</time>
      </trkpt>
      <trkpt lat="41.4679980" lon="-8.7660740">
        <ele>11.8</ele>
        <time>2021-05-17T07:22:14Z</time>
      </trkpt>
      <trkpt lat="41.4680160" lon="-8.7660760">
        <ele>11.8</ele>
        <time>2021-05-17T07:22:15Z</time>
      </trkpt>
      <trkpt lat="41.4680280" lon="-8.7660680">
        <ele>11.8</ele>
        <time>2021-05-17T07:22:16Z</time>
      </trkpt>
      <trkpt lat="41.4680370" lon="-8.7660640">
        <ele>11.8</ele>
        <time>2021-05-17T07:22:17Z</time>
      </trkpt>
      <trkpt lat="41.4680490" lon="-8.7660560">
        <ele>11.8</ele>
        <time>2021-05-17T07:22:18Z</time>
      </trkpt>
      <trkpt lat="41.4680760" lon="-8.7660510">
        <ele>11.8</ele>
        <time>2021-05-17T07:22:19Z</time>
      </trkpt>
      <trkpt lat="41.4680850" lon="-8.7660470">
        <ele>11.8</ele>
        <time>2021-05-17T07:22:20Z</time>
      </trkpt>
      <trkpt lat="41.4681010" lon="-8.7660390">
        <ele>11.8</ele>
        <time>2021-05-17T07:22:21Z</time>
      </trkpt>
      <trkpt lat="41.4681130" lon="-8.7660370">
        <ele>11.8</ele>
        <time>2021-05-17T07:22:22Z</time>
      </trkpt>
      <trkpt lat="41.4681400" lon="-8.7660270">
        <ele>11.8</ele>
        <time>2021-05-17T07:22:23Z</time>
      </trkpt>
      <trkpt lat="41.4681500" lon="-8.7660230">
        <ele>11.8</ele>
        <time>2021-05-17T07:22:24Z</time>
      </trkpt>
      <trkpt lat="41.4681700" lon="-8.7660190">
        <ele>11.8</ele>
        <time>2021-05-17T07:22:25Z</time>
      </trkpt>
      <trkpt lat="41.4681850" lon="-8.7660160">
        <ele>11.8</ele>
        <time>2021-05-17T07:22:26Z</time>
      </trkpt>
      <trkpt lat="41.4682020" lon="-8.7660160">
        <ele>11.8</ele>
        <time>2021-05-17T07:22:27Z</time>
      </trkpt>
      <trkpt lat="41.4682170" lon="-8.7660110">
        <ele>11.8</ele>
        <time>2021-05-17T07:22:28Z</time>
      </trkpt>
      <trkpt lat="41.4682320" lon="-8.7660100">
        <ele>11.8</ele>
        <time>2021-05-17T07:22:29Z</time>
      </trkpt>
      <trkpt lat="41.4682440" lon="-8.7660080">
        <ele>11.8</ele>
        <time>2021-05-17T07:22:30Z</time>
      </trkpt>
      <trkpt lat="41.4682540" lon="-8.7659980">
        <ele>11.8</ele>
        <time>2021-05-17T07:22:31Z</time>
      </trkpt>
      <trkpt lat="41.4682660" lon="-8.7659840">
        <ele>11.8</ele>
        <time>2021-05-17T07:22:32Z</time>
      </trkpt>
      <trkpt lat="41.4682880" lon="-8.7659700">
        <ele>11.9</ele>
        <time>2021-05-17T07:22:33Z</time>
      </trkpt>
      <trkpt lat="41.4682960" lon="-8.7659640">
        <ele>11.9</ele>
        <time>2021-05-17T07:22:34Z</time>
      </trkpt>
      <trkpt lat="41.4683030" lon="-8.7659580">
        <ele>11.9</ele>
        <time>2021-05-17T07:22:35Z</time>
      </trkpt>
      <trkpt lat="41.4683140" lon="-8.7659500">
        <ele>11.9</ele>
        <time>2021-05-17T07:22:36Z</time>
      </trkpt>
      <trkpt lat="41.4683270" lon="-8.7659340">
        <ele>11.9</ele>
        <time>2021-05-17T07:22:37Z</time>
      </trkpt>
      <trkpt lat="41.4683410" lon="-8.7659200">
        <ele>11.9</ele>
        <time>2021-05-17T07:22:38Z</time>
      </trkpt>
      <trkpt lat="41.4683560" lon="-8.7659120">
        <ele>11.9</ele>
        <time>2021-05-17T07:22:39Z</time>
      </trkpt>
      <trkpt lat="41.4683680" lon="-8.7659050">
        <ele>11.9</ele>
        <time>2021-05-17T07:22:40Z</time>
      </trkpt>
      <trkpt lat="41.4683830" lon="-8.7658890">
        <ele>11.9</ele>
        <time>2021-05-17T07:22:41Z</time>
      </trkpt>
      <trkpt lat="41.4683950" lon="-8.7658750">
        <ele>11.9</ele>
        <time>2021-05-17T07:22:42Z</time>
      </trkpt>
      <trkpt lat="41.4684110" lon="-8.7658660">
        <ele>11.9</ele>
        <time>2021-05-17T07:22:43Z</time>
      </trkpt>
      <trkpt lat="41.4684220" lon="-8.7658470">
        <ele>11.9</ele>
        <time>2021-05-17T07:22:44Z</time>
      </trkpt>
      <trkpt lat="41.4684310" lon="-8.7658330">
        <ele>11.9</ele>
        <time>2021-05-17T07:22:45Z</time>
      </trkpt>
      <trkpt lat="41.4684390" lon="-8.7658160">
        <ele>11.9</ele>
        <time>2021-05-17T07:22:46Z</time>
      </trkpt>
      <trkpt lat="41.4684540" lon="-8.7658050">
        <ele>11.9</ele>
        <time>2021-05-17T07:22:47Z</time>
      </trkpt>
      <trkpt lat="41.4684660" lon="-8.7657910">
        <ele>11.9</ele>
        <time>2021-05-17T07:22:48Z</time>
      </trkpt>
      <trkpt lat="41.4684810" lon="-8.7657780">
        <ele>11.9</ele>
        <time>2021-05-17T07:22:49Z</time>
      </trkpt>
      <trkpt lat="41.4684910" lon="-8.7657630">
        <ele>11.9</ele>
        <time>2021-05-17T07:22:50Z</time>
      </trkpt>
      <trkpt lat="41.4685010" lon="-8.7657470">
        <ele>11.9</ele>
        <time>2021-05-17T07:22:51Z</time>
      </trkpt>
      <trkpt lat="41.4685110" lon="-8.7657300">
        <ele>11.9</ele>
        <time>2021-05-17T07:22:52Z</time>
      </trkpt>
      <trkpt lat="41.4685230" lon="-8.7657210">
        <ele>11.9</ele>
        <time>2021-05-17T07:22:53Z</time>
      </trkpt>
      <trkpt lat="41.4685330" lon="-8.7657080">
        <ele>11.9</ele>
        <time>2021-05-17T07:22:54Z</time>
      </trkpt>
      <trkpt lat="41.4685460" lon="-8.7656960">
        <ele>11.9</ele>
        <time>2021-05-17T07:22:55Z</time>
      </trkpt>
      <trkpt lat="41.4685570" lon="-8.7656820">
        <ele>11.9</ele>
        <time>2021-05-17T07:22:56Z</time>
      </trkpt>
      <trkpt lat="41.4685680" lon="-8.7656750">
        <ele>11.9</ele>
        <time>2021-05-17T07:22:57Z</time>
      </trkpt>
      <trkpt lat="41.4685800" lon="-8.7656590">
        <ele>11.9</ele>
        <time>2021-05-17T07:22:58Z</time>
      </trkpt>
      <trkpt lat="41.4685940" lon="-8.7656510">
        <ele>11.9</ele>
        <time>2021-05-17T07:22:59Z</time>
      </trkpt>
      <trkpt lat="41.4686080" lon="-8.7656290">
        <ele>11.9</ele>
        <time>2021-05-17T07:23:00Z</time>
      </trkpt>
      <trkpt lat="41.4686150" lon="-8.7656200">
        <ele>11.9</ele>
        <time>2021-05-17T07:23:01Z</time>
      </trkpt>
      <trkpt lat="41.4686210" lon="-8.7656110">
        <ele>11.9</ele>
        <time>2021-05-17T07:23:02Z</time>
      </trkpt>
      <trkpt lat="41.4686240" lon="-8.7656030">
        <ele>11.9</ele>
        <time>2021-05-17T07:23:03Z</time>
      </trkpt>
      <trkpt lat="41.4686300" lon="-8.7655930">
        <ele>11.9</ele>
        <time>2021-05-17T07:23:04Z</time>
      </trkpt>
      <trkpt lat="41.4686430" lon="-8.7655840">
        <ele>11.9</ele>
        <time>2021-05-17T07:23:05Z</time>
      </trkpt>
      <trkpt lat="41.4686540" lon="-8.7655650">
        <ele>11.9</ele>
        <time>2021-05-17T07:23:06Z</time>
      </trkpt>
      <trkpt lat="41.4686690" lon="-8.7655560">
        <ele>11.9</ele>
        <time>2021-05-17T07:23:07Z</time>
      </trkpt>
      <trkpt lat="41.4686860" lon="-8.7655390">
        <ele>11.9</ele>
        <time>2021-05-17T07:23:08Z</time>
      </trkpt>
      <trkpt lat="41.4686930" lon="-8.7655320">
        <ele>11.9</ele>
        <time>2021-05-17T07:23:09Z</time>
      </trkpt>
      <trkpt lat="41.4687010" lon="-8.7655250">
        <ele>11.9</ele>
        <time>2021-05-17T07:23:10Z</time>
      </trkpt>
      <trkpt lat="41.4687040" lon="-8.7655220">
        <ele>11.9</ele>
        <time>2021-05-17T07:23:11Z</time>
      </trkpt>
      <trkpt lat="41.4687160" lon="-8.7655120">
        <ele>12.0</ele>
        <time>2021-05-17T07:23:12Z</time>
      </trkpt>
      <trkpt lat="41.4687260" lon="-8.7654990">
        <ele>12.0</ele>
        <time>2021-05-17T07:23:13Z</time>
      </trkpt>
      <trkpt lat="41.4687440" lon="-8.7654800">
        <ele>12.0</ele>
        <time>2021-05-17T07:23:14Z</time>
      </trkpt>
      <trkpt lat="41.4687500" lon="-8.7654740">
        <ele>12.0</ele>
        <time>2021-05-17T07:23:15Z</time>
      </trkpt>
      <trkpt lat="41.4687570" lon="-8.7654670">
        <ele>12.0</ele>
        <time>2021-05-17T07:23:16Z</time>
      </trkpt>
      <trkpt lat="41.4687750" lon="-8.7654530">
        <ele>12.0</ele>
        <time>2021-05-17T07:23:17Z</time>
      </trkpt>
      <trkpt lat="41.4687840" lon="-8.7654340">
        <ele>12.0</ele>
        <time>2021-05-17T07:23:18Z</time>
      </trkpt>
      <trkpt lat="41.4687970" lon="-8.7654210">
        <ele>12.0</ele>
        <time>2021-05-17T07:23:19Z</time>
      </trkpt>
      <trkpt lat="41.4688100" lon="-8.7654060">
        <ele>12.0</ele>
        <time>2021-05-17T07:23:20Z</time>
      </trkpt>
      <trkpt lat="41.4688260" lon="-8.7653930">
        <ele>12.0</ele>
        <time>2021-05-17T07:23:21Z</time>
      </trkpt>
      <trkpt lat="41.4688400" lon="-8.7653840">
        <ele>12.0</ele>
        <time>2021-05-17T07:23:22Z</time>
      </trkpt>
      <trkpt lat="41.4688590" lon="-8.7653680">
        <ele>12.0</ele>
        <time>2021-05-17T07:23:23Z</time>
      </trkpt>
      <trkpt lat="41.4688680" lon="-8.7653640">
        <ele>12.0</ele>
        <time>2021-05-17T07:23:24Z</time>
      </trkpt>
      <trkpt lat="41.4688760" lon="-8.7653600">
        <ele>12.0</ele>
        <time>2021-05-17T07:23:25Z</time>
      </trkpt>
      <trkpt lat="41.4688870" lon="-8.7653520">
        <ele>12.1</ele>
        <time>2021-05-17T07:23:26Z</time>
      </trkpt>
      <trkpt lat="41.4688970" lon="-8.7653330">
        <ele>12.1</ele>
        <time>2021-05-17T07:23:27Z</time>
      </trkpt>
      <trkpt lat="41.4689130" lon="-8.7653180">
        <ele>12.1</ele>
        <time>2021-05-17T07:23:28Z</time>
      </trkpt>
      <trkpt lat="41.4689210" lon="-8.7653130">
        <ele>12.1</ele>
        <time>2021-05-17T07:23:29Z</time>
      </trkpt>
      <trkpt lat="41.4689280" lon="-8.7653080">
        <ele>12.1</ele>
        <time>2021-05-17T07:23:30Z</time>
      </trkpt>
      <trkpt lat="41.4689420" lon="-8.7652920">
        <ele>12.1</ele>
        <time>2021-05-17T07:23:31Z</time>
      </trkpt>
      <trkpt lat="41.4689510" lon="-8.7652780">
        <ele>12.1</ele>
        <time>2021-05-17T07:23:32Z</time>
      </trkpt>
      <trkpt lat="41.4689600" lon="-8.7652660">
        <ele>12.1</ele>
        <time>2021-05-17T07:23:33Z</time>
      </trkpt>
      <trkpt lat="41.4689760" lon="-8.7652530">
        <ele>12.1</ele>
        <time>2021-05-17T07:23:34Z</time>
      </trkpt>
      <trkpt lat="41.4689880" lon="-8.7652480">
        <ele>12.1</ele>
        <time>2021-05-17T07:23:35Z</time>
      </trkpt>
      <trkpt lat="41.4690030" lon="-8.7652330">
        <ele>12.1</ele>
        <time>2021-05-17T07:23:36Z</time>
      </trkpt>
      <trkpt lat="41.4690110" lon="-8.7652190">
        <ele>12.1</ele>
        <time>2021-05-17T07:23:37Z</time>
      </trkpt>
      <trkpt lat="41.4690210" lon="-8.7652100">
        <ele>12.1</ele>
        <time>2021-05-17T07:23:38Z</time>
      </trkpt>
      <trkpt lat="41.4690280" lon="-8.7651990">
        <ele>12.2</ele>
        <time>2021-05-17T07:23:39Z</time>
      </trkpt>
      <trkpt lat="41.4690560" lon="-8.7651750">
        <ele>12.2</ele>
        <time>2021-05-17T07:23:40Z</time>
      </trkpt>
      <trkpt lat="41.4690630" lon="-8.7651690">
        <ele>12.2</ele>
        <time>2021-05-17T07:23:41Z</time>
      </trkpt>
      <trkpt lat="41.4690760" lon="-8.7651600">
        <ele>12.2</ele>
        <time>2021-05-17T07:23:42Z</time>
      </trkpt>
      <trkpt lat="41.4690850" lon="-8.7651440">
        <ele>12.2</ele>
        <time>2021-05-17T07:23:43Z</time>
      </trkpt>
      <trkpt lat="41.4691060" lon="-8.7651260">
        <ele>12.2</ele>
        <time>2021-05-17T07:23:45Z</time>
      </trkpt>
      <trkpt lat="41.4691140" lon="-8.7651220">
        <ele>12.2</ele>
        <time>2021-05-17T07:23:46Z</time>
      </trkpt>
      <trkpt lat="41.4691220" lon="-8.7651170">
        <ele>12.2</ele>
        <time>2021-05-17T07:23:47Z</time>
      </trkpt>
      <trkpt lat="41.4691380" lon="-8.7651030">
        <ele>12.2</ele>
        <time>2021-05-17T07:23:48Z</time>
      </trkpt>
      <trkpt lat="41.4691490" lon="-8.7650970">
        <ele>12.2</ele>
        <time>2021-05-17T07:23:49Z</time>
      </trkpt>
      <trkpt lat="41.4691630" lon="-8.7650900">
        <ele>12.3</ele>
        <time>2021-05-17T07:23:50Z</time>
      </trkpt>
      <trkpt lat="41.4691760" lon="-8.7650840">
        <ele>12.3</ele>
        <time>2021-05-17T07:23:51Z</time>
      </trkpt>
      <trkpt lat="41.4691970" lon="-8.7650740">
        <ele>12.3</ele>
        <time>2021-05-17T07:23:52Z</time>
      </trkpt>
      <trkpt lat="41.4692060" lon="-8.7650700">
        <ele>12.3</ele>
        <time>2021-05-17T07:23:53Z</time>
      </trkpt>
      <trkpt lat="41.4692160" lon="-8.7650670">
        <ele>12.3</ele>
        <time>2021-05-17T07:23:54Z</time>
      </trkpt>
      <trkpt lat="41.4692250" lon="-8.7650640">
        <ele>12.3</ele>
        <time>2021-05-17T07:23:55Z</time>
      </trkpt>
      <trkpt lat="41.4692350" lon="-8.7650560">
        <ele>12.3</ele>
        <time>2021-05-17T07:23:56Z</time>
      </trkpt>
      <trkpt lat="41.4692450" lon="-8.7650460">
        <ele>12.3</ele>
        <time>2021-05-17T07:23:57Z</time>
      </trkpt>
      <trkpt lat="41.4692690" lon="-8.7650440">
        <ele>12.3</ele>
        <time>2021-05-17T07:23:58Z</time>
      </trkpt>
      <trkpt lat="41.4692810" lon="-8.7650410">
        <ele>12.3</ele>
        <time>2021-05-17T07:23:59Z</time>
      </trkpt>
      <trkpt lat="41.4692950" lon="-8.7650380">
        <ele>12.3</ele>
        <time>2021-05-17T07:24:00Z</time>
      </trkpt>
      <trkpt lat="41.4693110" lon="-8.7650320">
        <ele>12.4</ele>
        <time>2021-05-17T07:24:01Z</time>
      </trkpt>
      <trkpt lat="41.4693180" lon="-8.7650270">
        <ele>12.4</ele>
        <time>2021-05-17T07:24:02Z</time>
      </trkpt>
      <trkpt lat="41.4693300" lon="-8.7650190">
        <ele>12.4</ele>
        <time>2021-05-17T07:24:03Z</time>
      </trkpt>
      <trkpt lat="41.4693460" lon="-8.7650170">
        <ele>12.4</ele>
        <time>2021-05-17T07:24:04Z</time>
      </trkpt>
      <trkpt lat="41.4693600" lon="-8.7650100">
        <ele>12.4</ele>
        <time>2021-05-17T07:24:05Z</time>
      </trkpt>
      <trkpt lat="41.4693740" lon="-8.7650050">
        <ele>12.4</ele>
        <time>2021-05-17T07:24:06Z</time>
      </trkpt>
      <trkpt lat="41.4693870" lon="-8.7650030">
        <ele>12.4</ele>
        <time>2021-05-17T07:24:07Z</time>
      </trkpt>
      <trkpt lat="41.4694030" lon="-8.7649950">
        <ele>12.4</ele>
        <time>2021-05-17T07:24:08Z</time>
      </trkpt>
      <trkpt lat="41.4694220" lon="-8.7649870">
        <ele>12.4</ele>
        <time>2021-05-17T07:24:09Z</time>
      </trkpt>
      <trkpt lat="41.4694310" lon="-8.7649820">
        <ele>12.4</ele>
        <time>2021-05-17T07:24:10Z</time>
      </trkpt>
      <trkpt lat="41.4694520" lon="-8.7649750">
        <ele>12.4</ele>
        <time>2021-05-17T07:24:11Z</time>
      </trkpt>
      <trkpt lat="41.4694610" lon="-8.7649810">
        <ele>12.4</ele>
        <time>2021-05-17T07:24:12Z</time>
      </trkpt>
      <trkpt lat="41.4694740" lon="-8.7649780">
        <ele>12.4</ele>
        <time>2021-05-17T07:24:13Z</time>
      </trkpt>
      <trkpt lat="41.4694870" lon="-8.7649710">
        <ele>12.4</ele>
        <time>2021-05-17T07:24:14Z</time>
      </trkpt>
      <trkpt lat="41.4694970" lon="-8.7649690">
        <ele>12.4</ele>
        <time>2021-05-17T07:24:15Z</time>
      </trkpt>
      <trkpt lat="41.4695040" lon="-8.7649650">
        <ele>12.4</ele>
        <time>2021-05-17T07:24:16Z</time>
      </trkpt>
      <trkpt lat="41.4695170" lon="-8.7649570">
        <ele>12.4</ele>
        <time>2021-05-17T07:24:17Z</time>
      </trkpt>
      <trkpt lat="41.4695300" lon="-8.7649510">
        <ele>12.4</ele>
        <time>2021-05-17T07:24:18Z</time>
      </trkpt>
      <trkpt lat="41.4695350" lon="-8.7649460">
        <ele>12.4</ele>
        <time>2021-05-17T07:24:19Z</time>
      </trkpt>
      <trkpt lat="41.4695490" lon="-8.7649440">
        <ele>12.4</ele>
        <time>2021-05-17T07:24:20Z</time>
      </trkpt>
      <trkpt lat="41.4695670" lon="-8.7649390">
        <ele>12.4</ele>
        <time>2021-05-17T07:24:21Z</time>
      </trkpt>
      <trkpt lat="41.4695780" lon="-8.7649330">
        <ele>12.4</ele>
        <time>2021-05-17T07:24:22Z</time>
      </trkpt>
      <trkpt lat="41.4695960" lon="-8.7649210">
        <ele>12.4</ele>
        <time>2021-05-17T07:24:23Z</time>
      </trkpt>
      <trkpt lat="41.4696110" lon="-8.7649140">
        <ele>12.4</ele>
        <time>2021-05-17T07:24:24Z</time>
      </trkpt>
      <trkpt lat="41.4696270" lon="-8.7649130">
        <ele>12.4</ele>
        <time>2021-05-17T07:24:25Z</time>
      </trkpt>
      <trkpt lat="41.4696360" lon="-8.7649100">
        <ele>12.4</ele>
        <time>2021-05-17T07:24:26Z</time>
      </trkpt>
      <trkpt lat="41.4696440" lon="-8.7649060">
        <ele>12.4</ele>
        <time>2021-05-17T07:24:27Z</time>
      </trkpt>
      <trkpt lat="41.4696530" lon="-8.7649020">
        <ele>12.4</ele>
        <time>2021-05-17T07:24:28Z</time>
      </trkpt>
      <trkpt lat="41.4696730" lon="-8.7648930">
        <ele>12.4</ele>
        <time>2021-05-17T07:24:29Z</time>
      </trkpt>
      <trkpt lat="41.4696830" lon="-8.7648880">
        <ele>12.3</ele>
        <time>2021-05-17T07:24:30Z</time>
      </trkpt>
      <trkpt lat="41.4696920" lon="-8.7648840">
        <ele>12.3</ele>
        <time>2021-05-17T07:24:31Z</time>
      </trkpt>
      <trkpt lat="41.4697110" lon="-8.7648750">
        <ele>12.3</ele>
        <time>2021-05-17T07:24:32Z</time>
      </trkpt>
      <trkpt lat="41.4697200" lon="-8.7648700">
        <ele>12.3</ele>
        <time>2021-05-17T07:24:33Z</time>
      </trkpt>
      <trkpt lat="41.4697290" lon="-8.7648660">
        <ele>12.3</ele>
        <time>2021-05-17T07:24:34Z</time>
      </trkpt>
      <trkpt lat="41.4697390" lon="-8.7648650">
        <ele>12.3</ele>
        <time>2021-05-17T07:24:35Z</time>
      </trkpt>
      <trkpt lat="41.4697550" lon="-8.7648560">
        <ele>12.3</ele>
        <time>2021-05-17T07:24:36Z</time>
      </trkpt>
      <trkpt lat="41.4697720" lon="-8.7648490">
        <ele>12.3</ele>
        <time>2021-05-17T07:24:37Z</time>
      </trkpt>
      <trkpt lat="41.4697850" lon="-8.7648430">
        <ele>12.3</ele>
        <time>2021-05-17T07:24:38Z</time>
      </trkpt>
      <trkpt lat="41.4698120" lon="-8.7648350">
        <ele>12.3</ele>
        <time>2021-05-17T07:24:39Z</time>
      </trkpt>
      <trkpt lat="41.4698230" lon="-8.7648310">
        <ele>12.3</ele>
        <time>2021-05-17T07:24:40Z</time>
      </trkpt>
      <trkpt lat="41.4698340" lon="-8.7648280">
        <ele>12.3</ele>
        <time>2021-05-17T07:24:41Z</time>
      </trkpt>
      <trkpt lat="41.4698440" lon="-8.7648220">
        <ele>12.3</ele>
        <time>2021-05-17T07:24:42Z</time>
      </trkpt>
      <trkpt lat="41.4698530" lon="-8.7648190">
        <ele>12.3</ele>
        <time>2021-05-17T07:24:43Z</time>
      </trkpt>
      <trkpt lat="41.4698730" lon="-8.7648120">
        <ele>12.3</ele>
        <time>2021-05-17T07:24:44Z</time>
      </trkpt>
      <trkpt lat="41.4698820" lon="-8.7648100">
        <ele>12.3</ele>
        <time>2021-05-17T07:24:45Z</time>
      </trkpt>
      <trkpt lat="41.4698900" lon="-8.7648070">
        <ele>12.3</ele>
        <time>2021-05-17T07:24:46Z</time>
      </trkpt>
      <trkpt lat="41.4699010" lon="-8.7648010">
        <ele>12.3</ele>
        <time>2021-05-17T07:24:47Z</time>
      </trkpt>
      <trkpt lat="41.4699170" lon="-8.7648010">
        <ele>12.3</ele>
        <time>2021-05-17T07:24:48Z</time>
      </trkpt>
      <trkpt lat="41.4699400" lon="-8.7648000">
        <ele>12.3</ele>
        <time>2021-05-17T07:24:49Z</time>
      </trkpt>
      <trkpt lat="41.4699470" lon="-8.7648000">
        <ele>12.3</ele>
        <time>2021-05-17T07:24:50Z</time>
      </trkpt>
      <trkpt lat="41.4699550" lon="-8.7648000">
        <ele>12.3</ele>
        <time>2021-05-17T07:24:51Z</time>
      </trkpt>
      <trkpt lat="41.4699640" lon="-8.7647970">
        <ele>12.3</ele>
        <time>2021-05-17T07:24:52Z</time>
      </trkpt>
      <trkpt lat="41.4699790" lon="-8.7647980">
        <ele>12.3</ele>
        <time>2021-05-17T07:24:53Z</time>
      </trkpt>
      <trkpt lat="41.4699910" lon="-8.7647960">
        <ele>12.3</ele>
        <time>2021-05-17T07:24:54Z</time>
      </trkpt>
      <trkpt lat="41.4700050" lon="-8.7647960">
        <ele>12.3</ele>
        <time>2021-05-17T07:24:55Z</time>
      </trkpt>
      <trkpt lat="41.4700170" lon="-8.7647980">
        <ele>12.3</ele>
        <time>2021-05-17T07:24:56Z</time>
      </trkpt>
      <trkpt lat="41.4700270" lon="-8.7647940">
        <ele>12.3</ele>
        <time>2021-05-17T07:24:57Z</time>
      </trkpt>
      <trkpt lat="41.4700560" lon="-8.7647940">
        <ele>12.3</ele>
        <time>2021-05-17T07:24:58Z</time>
      </trkpt>
      <trkpt lat="41.4700640" lon="-8.7647920">
        <ele>12.3</ele>
        <time>2021-05-17T07:24:59Z</time>
      </trkpt>
      <trkpt lat="41.4700670" lon="-8.7647870">
        <ele>12.3</ele>
        <time>2021-05-17T07:25:00Z</time>
      </trkpt>
      <trkpt lat="41.4700780" lon="-8.7647790">
        <ele>12.3</ele>
        <time>2021-05-17T07:25:01Z</time>
      </trkpt>
      <trkpt lat="41.4700920" lon="-8.7647780">
        <ele>12.3</ele>
        <time>2021-05-17T07:25:02Z</time>
      </trkpt>
      <trkpt lat="41.4701110" lon="-8.7647670">
        <ele>12.3</ele>
        <time>2021-05-17T07:25:03Z</time>
      </trkpt>
      <trkpt lat="41.4701250" lon="-8.7647650">
        <ele>12.3</ele>
        <time>2021-05-17T07:25:04Z</time>
      </trkpt>
      <trkpt lat="41.4701390" lon="-8.7647610">
        <ele>12.3</ele>
        <time>2021-05-17T07:25:05Z</time>
      </trkpt>
      <trkpt lat="41.4701520" lon="-8.7647550">
        <ele>12.3</ele>
        <time>2021-05-17T07:25:06Z</time>
      </trkpt>
      <trkpt lat="41.4701810" lon="-8.7647430">
        <ele>12.2</ele>
        <time>2021-05-17T07:25:07Z</time>
      </trkpt>
      <trkpt lat="41.4701920" lon="-8.7647380">
        <ele>12.2</ele>
        <time>2021-05-17T07:25:08Z</time>
      </trkpt>
      <trkpt lat="41.4702070" lon="-8.7647390">
        <ele>12.2</ele>
        <time>2021-05-17T07:25:09Z</time>
      </trkpt>
      <trkpt lat="41.4702230" lon="-8.7647370">
        <ele>12.2</ele>
        <time>2021-05-17T07:25:10Z</time>
      </trkpt>
      <trkpt lat="41.4702510" lon="-8.7647380">
        <ele>12.2</ele>
        <time>2021-05-17T07:25:11Z</time>
      </trkpt>
      <trkpt lat="41.4702630" lon="-8.7647390">
        <ele>12.2</ele>
        <time>2021-05-17T07:25:12Z</time>
      </trkpt>
      <trkpt lat="41.4702790" lon="-8.7647450">
        <ele>12.2</ele>
        <time>2021-05-17T07:25:13Z</time>
      </trkpt>
      <trkpt lat="41.4702940" lon="-8.7647400">
        <ele>12.2</ele>
        <time>2021-05-17T07:25:14Z</time>
      </trkpt>
      <trkpt lat="41.4703290" lon="-8.7647450">
        <ele>12.2</ele>
        <time>2021-05-17T07:25:15Z</time>
      </trkpt>
      <trkpt lat="41.4703390" lon="-8.7647450">
        <ele>12.1</ele>
        <time>2021-05-17T07:25:16Z</time>
      </trkpt>
      <trkpt lat="41.4703490" lon="-8.7647430">
        <ele>12.1</ele>
        <time>2021-05-17T07:25:17Z</time>
      </trkpt>
      <trkpt lat="41.4703660" lon="-8.7647530">
        <ele>12.1</ele>
        <time>2021-05-17T07:25:18Z</time>
      </trkpt>
      <trkpt lat="41.4703740" lon="-8.7647560">
        <ele>12.1</ele>
        <time>2021-05-17T07:25:19Z</time>
      </trkpt>
      <trkpt lat="41.4703870" lon="-8.7647590">
        <ele>12.1</ele>
        <time>2021-05-17T07:25:20Z</time>
      </trkpt>
      <trkpt lat="41.4703960" lon="-8.7647620">
        <ele>12.1</ele>
        <time>2021-05-17T07:25:21Z</time>
      </trkpt>
      <trkpt lat="41.4704150" lon="-8.7647660">
        <ele>12.1</ele>
        <time>2021-05-17T07:25:22Z</time>
      </trkpt>
      <trkpt lat="41.4704300" lon="-8.7647700">
        <ele>12.1</ele>
        <time>2021-05-17T07:25:23Z</time>
      </trkpt>
      <trkpt lat="41.4704430" lon="-8.7647790">
        <ele>12.1</ele>
        <time>2021-05-17T07:25:24Z</time>
      </trkpt>
      <trkpt lat="41.4704570" lon="-8.7647870">
        <ele>12.1</ele>
        <time>2021-05-17T07:25:25Z</time>
      </trkpt>
      <trkpt lat="41.4704740" lon="-8.7647860">
        <ele>12.1</ele>
        <time>2021-05-17T07:25:26Z</time>
      </trkpt>
      <trkpt lat="41.4704870" lon="-8.7647910">
        <ele>12.1</ele>
        <time>2021-05-17T07:25:27Z</time>
      </trkpt>
      <trkpt lat="41.4705060" lon="-8.7648030">
        <ele>12.1</ele>
        <time>2021-05-17T07:25:28Z</time>
      </trkpt>
      <trkpt lat="41.4705150" lon="-8.7648020">
        <ele>12.1</ele>
        <time>2021-05-17T07:25:29Z</time>
      </trkpt>
      <trkpt lat="41.4705230" lon="-8.7648020">
        <ele>12.1</ele>
        <time>2021-05-17T07:25:30Z</time>
      </trkpt>
      <trkpt lat="41.4705370" lon="-8.7648050">
        <ele>12.1</ele>
        <time>2021-05-17T07:25:31Z</time>
      </trkpt>
      <trkpt lat="41.4705550" lon="-8.7648110">
        <ele>12.1</ele>
        <time>2021-05-17T07:25:32Z</time>
      </trkpt>
      <trkpt lat="41.4705700" lon="-8.7648210">
        <ele>12.1</ele>
        <time>2021-05-17T07:25:33Z</time>
      </trkpt>
      <trkpt lat="41.4705840" lon="-8.7648290">
        <ele>12.1</ele>
        <time>2021-05-17T07:25:34Z</time>
      </trkpt>
      <trkpt lat="41.4705950" lon="-8.7648330">
        <ele>12.1</ele>
        <time>2021-05-17T07:25:35Z</time>
      </trkpt>
      <trkpt lat="41.4706100" lon="-8.7648400">
        <ele>12.1</ele>
        <time>2021-05-17T07:25:36Z</time>
      </trkpt>
      <trkpt lat="41.4706350" lon="-8.7648500">
        <ele>12.1</ele>
        <time>2021-05-17T07:25:37Z</time>
      </trkpt>
      <trkpt lat="41.4706460" lon="-8.7648530">
        <ele>12.1</ele>
        <time>2021-05-17T07:25:38Z</time>
      </trkpt>
      <trkpt lat="41.4706700" lon="-8.7648640">
        <ele>12.1</ele>
        <time>2021-05-17T07:25:39Z</time>
      </trkpt>
      <trkpt lat="41.4706810" lon="-8.7648680">
        <ele>12.1</ele>
        <time>2021-05-17T07:25:40Z</time>
      </trkpt>
      <trkpt lat="41.4706980" lon="-8.7648720">
        <ele>12.1</ele>
        <time>2021-05-17T07:25:41Z</time>
      </trkpt>
      <trkpt lat="41.4707080" lon="-8.7648750">
        <ele>12.1</ele>
        <time>2021-05-17T07:25:42Z</time>
      </trkpt>
      <trkpt lat="41.4707190" lon="-8.7648780">
        <ele>12.1</ele>
        <time>2021-05-17T07:25:43Z</time>
      </trkpt>
      <trkpt lat="41.4707380" lon="-8.7648870">
        <ele>12.1</ele>
        <time>2021-05-17T07:25:44Z</time>
      </trkpt>
      <trkpt lat="41.4707510" lon="-8.7648880">
        <ele>12.1</ele>
        <time>2021-05-17T07:25:45Z</time>
      </trkpt>
      <trkpt lat="41.4707860" lon="-8.7648880">
        <ele>12.1</ele>
        <time>2021-05-17T07:25:46Z</time>
      </trkpt>
      <trkpt lat="41.4707940" lon="-8.7648920">
        <ele>12.1</ele>
        <time>2021-05-17T07:25:47Z</time>
      </trkpt>
      <trkpt lat="41.4708010" lon="-8.7649020">
        <ele>12.1</ele>
        <time>2021-05-17T07:25:48Z</time>
      </trkpt>
      <trkpt lat="41.4708260" lon="-8.7649130">
        <ele>12.1</ele>
        <time>2021-05-17T07:25:49Z</time>
      </trkpt>
      <trkpt lat="41.4708450" lon="-8.7649260">
        <ele>12.1</ele>
        <time>2021-05-17T07:25:50Z</time>
      </trkpt>
      <trkpt lat="41.4708540" lon="-8.7649320">
        <ele>12.1</ele>
        <time>2021-05-17T07:25:52Z</time>
      </trkpt>
      <trkpt lat="41.4708620" lon="-8.7649380">
        <ele>12.1</ele>
        <time>2021-05-17T07:25:53Z</time>
      </trkpt>
      <trkpt lat="41.4708690" lon="-8.7649390">
        <ele>12.1</ele>
        <time>2021-05-17T07:25:54Z</time>
      </trkpt>
      <trkpt lat="41.4708860" lon="-8.7649430">
        <ele>12.1</ele>
        <time>2021-05-17T07:25:55Z</time>
      </trkpt>
      <trkpt lat="41.4708950" lon="-8.7649490">
        <ele>12.1</ele>
        <time>2021-05-17T07:25:56Z</time>
      </trkpt>
      <trkpt lat="41.4709120" lon="-8.7649510">
        <ele>12.1</ele>
        <time>2021-05-17T07:25:57Z</time>
      </trkpt>
      <trkpt lat="41.4709220" lon="-8.7649560">
        <ele>12.1</ele>
        <time>2021-05-17T07:25:58Z</time>
      </trkpt>
      <trkpt lat="41.4709320" lon="-8.7649600">
        <ele>12.1</ele>
        <time>2021-05-17T07:25:59Z</time>
      </trkpt>
      <trkpt lat="41.4709580" lon="-8.7649630">
        <ele>12.1</ele>
        <time>2021-05-17T07:26:00Z</time>
      </trkpt>
      <trkpt lat="41.4709690" lon="-8.7649660">
        <ele>12.2</ele>
        <time>2021-05-17T07:26:01Z</time>
      </trkpt>
      <trkpt lat="41.4709800" lon="-8.7649680">
        <ele>12.2</ele>
        <time>2021-05-17T07:26:02Z</time>
      </trkpt>
      <trkpt lat="41.4709870" lon="-8.7649740">
        <ele>12.2</ele>
        <time>2021-05-17T07:26:03Z</time>
      </trkpt>
      <trkpt lat="41.4710070" lon="-8.7649830">
        <ele>12.2</ele>
        <time>2021-05-17T07:26:04Z</time>
      </trkpt>
      <trkpt lat="41.4710190" lon="-8.7649870">
        <ele>12.2</ele>
        <time>2021-05-17T07:26:06Z</time>
      </trkpt>
      <trkpt lat="41.4710400" lon="-8.7649930">
        <ele>12.2</ele>
        <time>2021-05-17T07:26:07Z</time>
      </trkpt>
      <trkpt lat="41.4710520" lon="-8.7650020">
        <ele>12.2</ele>
        <time>2021-05-17T07:26:08Z</time>
      </trkpt>
      <trkpt lat="41.4710720" lon="-8.7650100">
        <ele>12.2</ele>
        <time>2021-05-17T07:26:09Z</time>
      </trkpt>
      <trkpt lat="41.4710870" lon="-8.7650120">
        <ele>12.2</ele>
        <time>2021-05-17T07:26:10Z</time>
      </trkpt>
      <trkpt lat="41.4711010" lon="-8.7650180">
        <ele>12.2</ele>
        <time>2021-05-17T07:26:11Z</time>
      </trkpt>
      <trkpt lat="41.4711230" lon="-8.7650250">
        <ele>12.2</ele>
        <time>2021-05-17T07:26:12Z</time>
      </trkpt>
      <trkpt lat="41.4711340" lon="-8.7650310">
        <ele>12.2</ele>
        <time>2021-05-17T07:26:13Z</time>
      </trkpt>
      <trkpt lat="41.4711460" lon="-8.7650360">
        <ele>12.2</ele>
        <time>2021-05-17T07:26:14Z</time>
      </trkpt>
      <trkpt lat="41.4711610" lon="-8.7650360">
        <ele>12.2</ele>
        <time>2021-05-17T07:26:15Z</time>
      </trkpt>
      <trkpt lat="41.4711810" lon="-8.7650420">
        <ele>12.2</ele>
        <time>2021-05-17T07:26:16Z</time>
      </trkpt>
      <trkpt lat="41.4711980" lon="-8.7650410">
        <ele>12.2</ele>
        <time>2021-05-17T07:26:17Z</time>
      </trkpt>
      <trkpt lat="41.4712020" lon="-8.7650430">
        <ele>12.2</ele>
        <time>2021-05-17T07:26:18Z</time>
      </trkpt>
      <trkpt lat="41.4712110" lon="-8.7650440">
        <ele>12.2</ele>
        <time>2021-05-17T07:26:19Z</time>
      </trkpt>
      <trkpt lat="41.4712220" lon="-8.7650470">
        <ele>12.2</ele>
        <time>2021-05-17T07:26:20Z</time>
      </trkpt>
      <trkpt lat="41.4712390" lon="-8.7650490">
        <ele>12.1</ele>
        <time>2021-05-17T07:26:21Z</time>
      </trkpt>
      <trkpt lat="41.4712680" lon="-8.7650610">
        <ele>12.1</ele>
        <time>2021-05-17T07:26:22Z</time>
      </trkpt>
      <trkpt lat="41.4712750" lon="-8.7650670">
        <ele>12.1</ele>
        <time>2021-05-17T07:26:23Z</time>
      </trkpt>
      <trkpt lat="41.4712880" lon="-8.7650710">
        <ele>12.1</ele>
        <time>2021-05-17T07:26:24Z</time>
      </trkpt>
      <trkpt lat="41.4713060" lon="-8.7650740">
        <ele>12.1</ele>
        <time>2021-05-17T07:26:25Z</time>
      </trkpt>
      <trkpt lat="41.4713260" lon="-8.7650770">
        <ele>12.1</ele>
        <time>2021-05-17T07:26:26Z</time>
      </trkpt>
      <trkpt lat="41.4713340" lon="-8.7650760">
        <ele>12.1</ele>
        <time>2021-05-17T07:26:27Z</time>
      </trkpt>
      <trkpt lat="41.4713430" lon="-8.7650760">
        <ele>12.1</ele>
        <time>2021-05-17T07:26:28Z</time>
      </trkpt>
      <trkpt lat="41.4713640" lon="-8.7650840">
        <ele>12.1</ele>
        <time>2021-05-17T07:26:29Z</time>
      </trkpt>
      <trkpt lat="41.4713760" lon="-8.7650860">
        <ele>12.1</ele>
        <time>2021-05-17T07:26:30Z</time>
      </trkpt>
      <trkpt lat="41.4713950" lon="-8.7650930">
        <ele>12.1</ele>
        <time>2021-05-17T07:26:31Z</time>
      </trkpt>
      <trkpt lat="41.4714070" lon="-8.7650910">
        <ele>12.0</ele>
        <time>2021-05-17T07:26:32Z</time>
      </trkpt>
      <trkpt lat="41.4714280" lon="-8.7650960">
        <ele>12.0</ele>
        <time>2021-05-17T07:26:33Z</time>
      </trkpt>
      <trkpt lat="41.4714370" lon="-8.7651010">
        <ele>12.0</ele>
        <time>2021-05-17T07:26:34Z</time>
      </trkpt>
      <trkpt lat="41.4714460" lon="-8.7651050">
        <ele>12.0</ele>
        <time>2021-05-17T07:26:35Z</time>
      </trkpt>
      <trkpt lat="41.4714570" lon="-8.7651080">
        <ele>12.0</ele>
        <time>2021-05-17T07:26:36Z</time>
      </trkpt>
      <trkpt lat="41.4714670" lon="-8.7651090">
        <ele>12.0</ele>
        <time>2021-05-17T07:26:37Z</time>
      </trkpt>
      <trkpt lat="41.4714780" lon="-8.7651120">
        <ele>12.0</ele>
        <time>2021-05-17T07:26:38Z</time>
      </trkpt>
      <trkpt lat="41.4715020" lon="-8.7651160">
        <ele>12.0</ele>
        <time>2021-05-17T07:26:39Z</time>
      </trkpt>
      <trkpt lat="41.4715120" lon="-8.7651160">
        <ele>11.9</ele>
        <time>2021-05-17T07:26:40Z</time>
      </trkpt>
      <trkpt lat="41.4715210" lon="-8.7651170">
        <ele>11.9</ele>
        <time>2021-05-17T07:26:41Z</time>
      </trkpt>
      <trkpt lat="41.4715350" lon="-8.7651210">
        <ele>11.9</ele>
        <time>2021-05-17T07:26:42Z</time>
      </trkpt>
      <trkpt lat="41.4715530" lon="-8.7651320">
        <ele>11.9</ele>
        <time>2021-05-17T07:26:43Z</time>
      </trkpt>
      <trkpt lat="41.4715780" lon="-8.7651450">
        <ele>11.9</ele>
        <time>2021-05-17T07:26:44Z</time>
      </trkpt>
      <trkpt lat="41.4715860" lon="-8.7651480">
        <ele>11.9</ele>
        <time>2021-05-17T07:26:45Z</time>
      </trkpt>
      <trkpt lat="41.4715950" lon="-8.7651510">
        <ele>11.9</ele>
        <time>2021-05-17T07:26:46Z</time>
      </trkpt>
      <trkpt lat="41.4716090" lon="-8.7651510">
        <ele>11.9</ele>
        <time>2021-05-17T07:26:47Z</time>
      </trkpt>
      <trkpt lat="41.4716290" lon="-8.7651540">
        <ele>11.8</ele>
        <time>2021-05-17T07:26:48Z</time>
      </trkpt>
      <trkpt lat="41.4716460" lon="-8.7651570">
        <ele>11.8</ele>
        <time>2021-05-17T07:26:49Z</time>
      </trkpt>
      <trkpt lat="41.4716570" lon="-8.7651560">
        <ele>11.8</ele>
        <time>2021-05-17T07:26:50Z</time>
      </trkpt>
      <trkpt lat="41.4716700" lon="-8.7651610">
        <ele>11.8</ele>
        <time>2021-05-17T07:26:51Z</time>
      </trkpt>
      <trkpt lat="41.4716790" lon="-8.7651660">
        <ele>11.8</ele>
        <time>2021-05-17T07:26:52Z</time>
      </trkpt>
      <trkpt lat="41.4716900" lon="-8.7651690">
        <ele>11.8</ele>
        <time>2021-05-17T07:26:53Z</time>
      </trkpt>
      <trkpt lat="41.4717110" lon="-8.7651800">
        <ele>11.8</ele>
        <time>2021-05-17T07:26:54Z</time>
      </trkpt>
      <trkpt lat="41.4717200" lon="-8.7651830">
        <ele>11.8</ele>
        <time>2021-05-17T07:26:55Z</time>
      </trkpt>
      <trkpt lat="41.4717280" lon="-8.7651860">
        <ele>11.8</ele>
        <time>2021-05-17T07:26:56Z</time>
      </trkpt>
      <trkpt lat="41.4717490" lon="-8.7651890">
        <ele>11.8</ele>
        <time>2021-05-17T07:26:57Z</time>
      </trkpt>
      <trkpt lat="41.4717580" lon="-8.7651910">
        <ele>11.8</ele>
        <time>2021-05-17T07:26:58Z</time>
      </trkpt>
      <trkpt lat="41.4717660" lon="-8.7651930">
        <ele>11.8</ele>
        <time>2021-05-17T07:26:59Z</time>
      </trkpt>
      <trkpt lat="41.4717860" lon="-8.7651920">
        <ele>11.8</ele>
        <time>2021-05-17T07:27:00Z</time>
      </trkpt>
      <trkpt lat="41.4717970" lon="-8.7651920">
        <ele>11.8</ele>
        <time>2021-05-17T07:27:01Z</time>
      </trkpt>
      <trkpt lat="41.4718010" lon="-8.7651890">
        <ele>11.7</ele>
        <time>2021-05-17T07:27:02Z</time>
      </trkpt>
      <trkpt lat="41.4718100" lon="-8.7651920">
        <ele>11.7</ele>
        <time>2021-05-17T07:27:03Z</time>
      </trkpt>
      <trkpt lat="41.4718300" lon="-8.7652030">
        <ele>11.7</ele>
        <time>2021-05-17T07:27:04Z</time>
      </trkpt>
      <trkpt lat="41.4718420" lon="-8.7652090">
        <ele>11.7</ele>
        <time>2021-05-17T07:27:05Z</time>
      </trkpt>
      <trkpt lat="41.4718570" lon="-8.7652190">
        <ele>11.7</ele>
        <time>2021-05-17T07:27:06Z</time>
      </trkpt>
      <trkpt lat="41.4718790" lon="-8.7652240">
        <ele>11.7</ele>
        <time>2021-05-17T07:27:07Z</time>
      </trkpt>
      <trkpt lat="41.4718860" lon="-8.7652250">
        <ele>11.7</ele>
        <time>2021-05-17T07:27:08Z</time>
      </trkpt>
      <trkpt lat="41.4718940" lon="-8.7652260">
        <ele>11.7</ele>
        <time>2021-05-17T07:27:09Z</time>
      </trkpt>
      <trkpt lat="41.4719170" lon="-8.7652270">
        <ele>11.7</ele>
        <time>2021-05-17T07:27:10Z</time>
      </trkpt>
      <trkpt lat="41.4719230" lon="-8.7652300">
        <ele>11.7</ele>
        <time>2021-05-17T07:27:11Z</time>
      </trkpt>
      <trkpt lat="41.4719430" lon="-8.7652340">
        <ele>11.7</ele>
        <time>2021-05-17T07:27:12Z</time>
      </trkpt>
      <trkpt lat="41.4719520" lon="-8.7652310">
        <ele>11.7</ele>
        <time>2021-05-17T07:27:13Z</time>
      </trkpt>
      <trkpt lat="41.4719630" lon="-8.7652330">
        <ele>11.7</ele>
        <time>2021-05-17T07:27:14Z</time>
      </trkpt>
      <trkpt lat="41.4719700" lon="-8.7652350">
        <ele>11.7</ele>
        <time>2021-05-17T07:27:15Z</time>
      </trkpt>
      <trkpt lat="41.4719830" lon="-8.7652370">
        <ele>11.6</ele>
        <time>2021-05-17T07:27:16Z</time>
      </trkpt>
      <trkpt lat="41.4719980" lon="-8.7652390">
        <ele>11.6</ele>
        <time>2021-05-17T07:27:17Z</time>
      </trkpt>
      <trkpt lat="41.4720130" lon="-8.7652470">
        <ele>11.6</ele>
        <time>2021-05-17T07:27:18Z</time>
      </trkpt>
      <trkpt lat="41.4720280" lon="-8.7652550">
        <ele>11.6</ele>
        <time>2021-05-17T07:27:19Z</time>
      </trkpt>
      <trkpt lat="41.4720370" lon="-8.7652590">
        <ele>11.6</ele>
        <time>2021-05-17T07:27:20Z</time>
      </trkpt>
      <trkpt lat="41.4720460" lon="-8.7652610">
        <ele>11.6</ele>
        <time>2021-05-17T07:27:21Z</time>
      </trkpt>
      <trkpt lat="41.4720600" lon="-8.7652610">
        <ele>11.6</ele>
        <time>2021-05-17T07:27:22Z</time>
      </trkpt>
      <trkpt lat="41.4720780" lon="-8.7652670">
        <ele>11.6</ele>
        <time>2021-05-17T07:27:23Z</time>
      </trkpt>
      <trkpt lat="41.4720800" lon="-8.7652670">
        <ele>11.6</ele>
        <time>2021-05-17T07:27:24Z</time>
      </trkpt>
      <trkpt lat="41.4720930" lon="-8.7652770">
        <ele>11.6</ele>
        <time>2021-05-17T07:27:25Z</time>
      </trkpt>
      <trkpt lat="41.4721080" lon="-8.7652750">
        <ele>11.6</ele>
        <time>2021-05-17T07:27:26Z</time>
      </trkpt>
      <trkpt lat="41.4721390" lon="-8.7652790">
        <ele>11.5</ele>
        <time>2021-05-17T07:27:27Z</time>
      </trkpt>
      <trkpt lat="41.4721450" lon="-8.7652800">
        <ele>11.5</ele>
        <time>2021-05-17T07:27:28Z</time>
      </trkpt>
      <trkpt lat="41.4721740" lon="-8.7652900">
        <ele>11.5</ele>
        <time>2021-05-17T07:27:29Z</time>
      </trkpt>
      <trkpt lat="41.4721840" lon="-8.7652950">
        <ele>11.5</ele>
        <time>2021-05-17T07:27:30Z</time>
      </trkpt>
      <trkpt lat="41.4721990" lon="-8.7653060">
        <ele>11.5</ele>
        <time>2021-05-17T07:27:31Z</time>
      </trkpt>
      <trkpt lat="41.4722130" lon="-8.7653090">
        <ele>11.5</ele>
        <time>2021-05-17T07:27:32Z</time>
      </trkpt>
      <trkpt lat="41.4722260" lon="-8.7653120">
        <ele>11.5</ele>
        <time>2021-05-17T07:27:33Z</time>
      </trkpt>
      <trkpt lat="41.4722370" lon="-8.7653150">
        <ele>11.5</ele>
        <time>2021-05-17T07:27:34Z</time>
      </trkpt>
      <trkpt lat="41.4722480" lon="-8.7653160">
        <ele>11.5</ele>
        <time>2021-05-17T07:27:35Z</time>
      </trkpt>
      <trkpt lat="41.4722590" lon="-8.7653190">
        <ele>11.5</ele>
        <time>2021-05-17T07:27:36Z</time>
      </trkpt>
      <trkpt lat="41.4722920" lon="-8.7653300">
        <ele>11.5</ele>
        <time>2021-05-17T07:27:37Z</time>
      </trkpt>
      <trkpt lat="41.4723020" lon="-8.7653330">
        <ele>11.5</ele>
        <time>2021-05-17T07:27:38Z</time>
      </trkpt>
      <trkpt lat="41.4723180" lon="-8.7653390">
        <ele>11.5</ele>
        <time>2021-05-17T07:27:39Z</time>
      </trkpt>
      <trkpt lat="41.4723360" lon="-8.7653430">
        <ele>11.4</ele>
        <time>2021-05-17T07:27:40Z</time>
      </trkpt>
      <trkpt lat="41.4723670" lon="-8.7653530">
        <ele>11.4</ele>
        <time>2021-05-17T07:27:41Z</time>
      </trkpt>
      <trkpt lat="41.4723760" lon="-8.7653560">
        <ele>11.4</ele>
        <time>2021-05-17T07:27:42Z</time>
      </trkpt>
      <trkpt lat="41.4724040" lon="-8.7653610">
        <ele>11.4</ele>
        <time>2021-05-17T07:27:43Z</time>
      </trkpt>
      <trkpt lat="41.4724130" lon="-8.7653620">
        <ele>11.4</ele>
        <time>2021-05-17T07:27:44Z</time>
      </trkpt>
      <trkpt lat="41.4724290" lon="-8.7653660">
        <ele>11.4</ele>
        <time>2021-05-17T07:27:45Z</time>
      </trkpt>
      <trkpt lat="41.4724440" lon="-8.7653710">
        <ele>11.4</ele>
        <time>2021-05-17T07:27:46Z</time>
      </trkpt>
      <trkpt lat="41.4724600" lon="-8.7653740">
        <ele>11.4</ele>
        <time>2021-05-17T07:27:47Z</time>
      </trkpt>
      <trkpt lat="41.4724710" lon="-8.7653760">
        <ele>11.4</ele>
        <time>2021-05-17T07:27:48Z</time>
      </trkpt>
      <trkpt lat="41.4724950" lon="-8.7653840">
        <ele>11.4</ele>
        <time>2021-05-17T07:27:49Z</time>
      </trkpt>
      <trkpt lat="41.4725050" lon="-8.7653870">
        <ele>11.4</ele>
        <time>2021-05-17T07:27:50Z</time>
      </trkpt>
      <trkpt lat="41.4725160" lon="-8.7653910">
        <ele>11.4</ele>
        <time>2021-05-17T07:27:51Z</time>
      </trkpt>
      <trkpt lat="41.4725380" lon="-8.7653920">
        <ele>11.4</ele>
        <time>2021-05-17T07:27:52Z</time>
      </trkpt>
      <trkpt lat="41.4725520" lon="-8.7653970">
        <ele>11.4</ele>
        <time>2021-05-17T07:27:53Z</time>
      </trkpt>
      <trkpt lat="41.4725670" lon="-8.7654040">
        <ele>11.4</ele>
        <time>2021-05-17T07:27:55Z</time>
      </trkpt>
      <trkpt lat="41.4725790" lon="-8.7654090">
        <ele>11.4</ele>
        <time>2021-05-17T07:27:56Z</time>
      </trkpt>
      <trkpt lat="41.4725990" lon="-8.7654120">
        <ele>11.4</ele>
        <time>2021-05-17T07:27:57Z</time>
      </trkpt>
      <trkpt lat="41.4726120" lon="-8.7654190">
        <ele>11.4</ele>
        <time>2021-05-17T07:27:58Z</time>
      </trkpt>
      <trkpt lat="41.4726270" lon="-8.7654270">
        <ele>11.4</ele>
        <time>2021-05-17T07:27:59Z</time>
      </trkpt>
      <trkpt lat="41.4726400" lon="-8.7654310">
        <ele>11.3</ele>
        <time>2021-05-17T07:28:00Z</time>
      </trkpt>
      <trkpt lat="41.4726520" lon="-8.7654320">
        <ele>11.3</ele>
        <time>2021-05-17T07:28:01Z</time>
      </trkpt>
      <trkpt lat="41.4726640" lon="-8.7654400">
        <ele>11.3</ele>
        <time>2021-05-17T07:28:02Z</time>
      </trkpt>
      <trkpt lat="41.4726750" lon="-8.7654440">
        <ele>11.3</ele>
        <time>2021-05-17T07:28:03Z</time>
      </trkpt>
      <trkpt lat="41.4726960" lon="-8.7654500">
        <ele>11.3</ele>
        <time>2021-05-17T07:28:04Z</time>
      </trkpt>
      <trkpt lat="41.4727090" lon="-8.7654510">
        <ele>11.3</ele>
        <time>2021-05-17T07:28:05Z</time>
      </trkpt>
      <trkpt lat="41.4727310" lon="-8.7654600">
        <ele>11.3</ele>
        <time>2021-05-17T07:28:06Z</time>
      </trkpt>
      <trkpt lat="41.4727390" lon="-8.7654620">
        <ele>11.3</ele>
        <time>2021-05-17T07:28:07Z</time>
      </trkpt>
      <trkpt lat="41.4727480" lon="-8.7654630">
        <ele>11.3</ele>
        <time>2021-05-17T07:28:08Z</time>
      </trkpt>
      <trkpt lat="41.4727600" lon="-8.7654690">
        <ele>11.3</ele>
        <time>2021-05-17T07:28:09Z</time>
      </trkpt>
      <trkpt lat="41.4727780" lon="-8.7654730">
        <ele>11.3</ele>
        <time>2021-05-17T07:28:10Z</time>
      </trkpt>
      <trkpt lat="41.4728060" lon="-8.7654830">
        <ele>11.3</ele>
        <time>2021-05-17T07:28:11Z</time>
      </trkpt>
      <trkpt lat="41.4728160" lon="-8.7654850">
        <ele>11.3</ele>
        <time>2021-05-17T07:28:12Z</time>
      </trkpt>
      <trkpt lat="41.4728420" lon="-8.7654920">
        <ele>11.3</ele>
        <time>2021-05-17T07:28:13Z</time>
      </trkpt>
      <trkpt lat="41.4728510" lon="-8.7654950">
        <ele>11.3</ele>
        <time>2021-05-17T07:28:14Z</time>
      </trkpt>
      <trkpt lat="41.4728670" lon="-8.7654950">
        <ele>11.3</ele>
        <time>2021-05-17T07:28:15Z</time>
      </trkpt>
      <trkpt lat="41.4728850" lon="-8.7655000">
        <ele>11.3</ele>
        <time>2021-05-17T07:28:16Z</time>
      </trkpt>
      <trkpt lat="41.4729010" lon="-8.7655010">
        <ele>11.3</ele>
        <time>2021-05-17T07:28:17Z</time>
      </trkpt>
      <trkpt lat="41.4729180" lon="-8.7655110">
        <ele>11.3</ele>
        <time>2021-05-17T07:28:18Z</time>
      </trkpt>
      <trkpt lat="41.4729350" lon="-8.7655100">
        <ele>11.3</ele>
        <time>2021-05-17T07:28:19Z</time>
      </trkpt>
      <trkpt lat="41.4729500" lon="-8.7655110">
        <ele>11.3</ele>
        <time>2021-05-17T07:28:20Z</time>
      </trkpt>
      <trkpt lat="41.4729650" lon="-8.7655150">
        <ele>11.3</ele>
        <time>2021-05-17T07:28:21Z</time>
      </trkpt>
      <trkpt lat="41.4729810" lon="-8.7655180">
        <ele>11.3</ele>
        <time>2021-05-17T07:28:22Z</time>
      </trkpt>
      <trkpt lat="41.4729980" lon="-8.7655250">
        <ele>11.3</ele>
        <time>2021-05-17T07:28:23Z</time>
      </trkpt>
      <trkpt lat="41.4730160" lon="-8.7655230">
        <ele>11.3</ele>
        <time>2021-05-17T07:28:24Z</time>
      </trkpt>
      <trkpt lat="41.4730280" lon="-8.7655340">
        <ele>11.3</ele>
        <time>2021-05-17T07:28:25Z</time>
      </trkpt>
      <trkpt lat="41.4730440" lon="-8.7655360">
        <ele>11.4</ele>
        <time>2021-05-17T07:28:26Z</time>
      </trkpt>
      <trkpt lat="41.4730580" lon="-8.7655400">
        <ele>11.4</ele>
        <time>2021-05-17T07:28:27Z</time>
      </trkpt>
      <trkpt lat="41.4730750" lon="-8.7655440">
        <ele>11.4</ele>
        <time>2021-05-17T07:28:28Z</time>
      </trkpt>
      <trkpt lat="41.4730900" lon="-8.7655480">
        <ele>11.4</ele>
        <time>2021-05-17T07:28:29Z</time>
      </trkpt>
      <trkpt lat="41.4731090" lon="-8.7655450">
        <ele>11.4</ele>
        <time>2021-05-17T07:28:30Z</time>
      </trkpt>
      <trkpt lat="41.4731240" lon="-8.7655410">
        <ele>11.5</ele>
        <time>2021-05-17T07:28:31Z</time>
      </trkpt>
      <trkpt lat="41.4731410" lon="-8.7655410">
        <ele>11.5</ele>
        <time>2021-05-17T07:28:32Z</time>
      </trkpt>
      <trkpt lat="41.4731570" lon="-8.7655480">
        <ele>11.5</ele>
        <time>2021-05-17T07:28:33Z</time>
      </trkpt>
      <trkpt lat="41.4731710" lon="-8.7655480">
        <ele>11.5</ele>
        <time>2021-05-17T07:28:34Z</time>
      </trkpt>
      <trkpt lat="41.4731860" lon="-8.7655570">
        <ele>11.6</ele>
        <time>2021-05-17T07:28:35Z</time>
      </trkpt>
      <trkpt lat="41.4732020" lon="-8.7655610">
        <ele>11.6</ele>
        <time>2021-05-17T07:28:36Z</time>
      </trkpt>
      <trkpt lat="41.4732170" lon="-8.7655590">
        <ele>11.6</ele>
        <time>2021-05-17T07:28:37Z</time>
      </trkpt>
      <trkpt lat="41.4732360" lon="-8.7655600">
        <ele>11.6</ele>
        <time>2021-05-17T07:28:38Z</time>
      </trkpt>
      <trkpt lat="41.4732520" lon="-8.7655580">
        <ele>11.7</ele>
        <time>2021-05-17T07:28:39Z</time>
      </trkpt>
      <trkpt lat="41.4732680" lon="-8.7655560">
        <ele>11.7</ele>
        <time>2021-05-17T07:28:40Z</time>
      </trkpt>
      <trkpt lat="41.4732760" lon="-8.7655590">
        <ele>11.7</ele>
        <time>2021-05-17T07:28:41Z</time>
      </trkpt>
      <trkpt lat="41.4732790" lon="-8.7655530">
        <ele>11.7</ele>
        <time>2021-05-17T07:28:42Z</time>
      </trkpt>
      <trkpt lat="41.4732860" lon="-8.7655520">
        <ele>11.7</ele>
        <time>2021-05-17T07:28:43Z</time>
      </trkpt>
      <trkpt lat="41.4732960" lon="-8.7655530">
        <ele>11.7</ele>
        <time>2021-05-17T07:28:44Z</time>
      </trkpt>
      <trkpt lat="41.4733090" lon="-8.7655510">
        <ele>11.7</ele>
        <time>2021-05-17T07:28:45Z</time>
      </trkpt>
      <trkpt lat="41.4733180" lon="-8.7655510">
        <ele>11.8</ele>
        <time>2021-05-17T07:28:46Z</time>
      </trkpt>
      <trkpt lat="41.4733240" lon="-8.7655460">
        <ele>11.8</ele>
        <time>2021-05-17T07:28:47Z</time>
      </trkpt>
      <trkpt lat="41.4733360" lon="-8.7655500">
        <ele>11.8</ele>
        <time>2021-05-17T07:28:48Z</time>
      </trkpt>
      <trkpt lat="41.4733450" lon="-8.7655510">
        <ele>11.8</ele>
        <time>2021-05-17T07:28:49Z</time>
      </trkpt>
      <trkpt lat="41.4733530" lon="-8.7655530">
        <ele>11.8</ele>
        <time>2021-05-17T07:28:50Z</time>
      </trkpt>
      <trkpt lat="41.4733610" lon="-8.7655550">
        <ele>11.8</ele>
        <time>2021-05-17T07:28:51Z</time>
      </trkpt>
      <trkpt lat="41.4733630" lon="-8.7655520">
        <ele>11.8</ele>
        <time>2021-05-17T07:28:52Z</time>
      </trkpt>
      <trkpt lat="41.4733700" lon="-8.7655490">
        <ele>11.8</ele>
        <time>2021-05-17T07:28:53Z</time>
      </trkpt>
      <trkpt lat="41.4733870" lon="-8.7655420">
        <ele>11.9</ele>
        <time>2021-05-17T07:28:54Z</time>
      </trkpt>
      <trkpt lat="41.4734100" lon="-8.7655420">
        <ele>11.9</ele>
        <time>2021-05-17T07:28:55Z</time>
      </trkpt>
      <trkpt lat="41.4734200" lon="-8.7655440">
        <ele>11.9</ele>
        <time>2021-05-17T07:28:56Z</time>
      </trkpt>
      <trkpt lat="41.4734290" lon="-8.7655450">
        <ele>11.9</ele>
        <time>2021-05-17T07:28:57Z</time>
      </trkpt>
      <trkpt lat="41.4734490" lon="-8.7655430">
        <ele>11.9</ele>
        <time>2021-05-17T07:28:58Z</time>
      </trkpt>
      <trkpt lat="41.4734580" lon="-8.7655380">
        <ele>12.0</ele>
        <time>2021-05-17T07:28:59Z</time>
      </trkpt>
      <trkpt lat="41.4734710" lon="-8.7655320">
        <ele>12.0</ele>
        <time>2021-05-17T07:29:00Z</time>
      </trkpt>
      <trkpt lat="41.4734820" lon="-8.7655300">
        <ele>12.0</ele>
        <time>2021-05-17T07:29:01Z</time>
      </trkpt>
      <trkpt lat="41.4734820" lon="-8.7655330">
        <ele>12.0</ele>
        <time>2021-05-17T07:29:02Z</time>
      </trkpt>
      <trkpt lat="41.4734910" lon="-8.7655320">
        <ele>12.0</ele>
        <time>2021-05-17T07:29:03Z</time>
      </trkpt>
      <trkpt lat="41.4735190" lon="-8.7655330">
        <ele>12.0</ele>
        <time>2021-05-17T07:29:04Z</time>
      </trkpt>
      <trkpt lat="41.4735310" lon="-8.7655350">
        <ele>12.0</ele>
        <time>2021-05-17T07:29:05Z</time>
      </trkpt>
      <trkpt lat="41.4735600" lon="-8.7655310">
        <ele>12.1</ele>
        <time>2021-05-17T07:29:06Z</time>
      </trkpt>
      <trkpt lat="41.4735720" lon="-8.7655310">
        <ele>12.1</ele>
        <time>2021-05-17T07:29:07Z</time>
      </trkpt>
      <trkpt lat="41.4735830" lon="-8.7655300">
        <ele>12.1</ele>
        <time>2021-05-17T07:29:08Z</time>
      </trkpt>
      <trkpt lat="41.4736020" lon="-8.7655270">
        <ele>12.1</ele>
        <time>2021-05-17T07:29:09Z</time>
      </trkpt>
      <trkpt lat="41.4736120" lon="-8.7655300">
        <ele>12.1</ele>
        <time>2021-05-17T07:29:10Z</time>
      </trkpt>
      <trkpt lat="41.4736210" lon="-8.7655320">
        <ele>12.1</ele>
        <time>2021-05-17T07:29:11Z</time>
      </trkpt>
      <trkpt lat="41.4736340" lon="-8.7655340">
        <ele>12.1</ele>
        <time>2021-05-17T07:29:12Z</time>
      </trkpt>
      <trkpt lat="41.4736500" lon="-8.7655330">
        <ele>12.1</ele>
        <time>2021-05-17T07:29:13Z</time>
      </trkpt>
      <trkpt lat="41.4736660" lon="-8.7655330">
        <ele>12.2</ele>
        <time>2021-05-17T07:29:14Z</time>
      </trkpt>
      <trkpt lat="41.4736770" lon="-8.7655240">
        <ele>12.2</ele>
        <time>2021-05-17T07:29:15Z</time>
      </trkpt>
      <trkpt lat="41.4737020" lon="-8.7655300">
        <ele>12.2</ele>
        <time>2021-05-17T07:29:16Z</time>
      </trkpt>
      <trkpt lat="41.4737080" lon="-8.7655350">
        <ele>12.2</ele>
        <time>2021-05-17T07:29:17Z</time>
      </trkpt>
      <trkpt lat="41.4737310" lon="-8.7655410">
        <ele>12.2</ele>
        <time>2021-05-17T07:29:18Z</time>
      </trkpt>
      <trkpt lat="41.4737370" lon="-8.7655360">
        <ele>12.2</ele>
        <time>2021-05-17T07:29:19Z</time>
      </trkpt>
      <trkpt lat="41.4737470" lon="-8.7655410">
        <ele>12.2</ele>
        <time>2021-05-17T07:29:20Z</time>
      </trkpt>
      <trkpt lat="41.4737690" lon="-8.7655430">
        <ele>12.2</ele>
        <time>2021-05-17T07:29:21Z</time>
      </trkpt>
      <trkpt lat="41.4737730" lon="-8.7655380">
        <ele>12.2</ele>
        <time>2021-05-17T07:29:22Z</time>
      </trkpt>
      <trkpt lat="41.4737830" lon="-8.7655440">
        <ele>12.2</ele>
        <time>2021-05-17T07:29:23Z</time>
      </trkpt>
      <trkpt lat="41.4737960" lon="-8.7655540">
        <ele>12.2</ele>
        <time>2021-05-17T07:29:24Z</time>
      </trkpt>
      <trkpt lat="41.4738140" lon="-8.7655560">
        <ele>12.3</ele>
        <time>2021-05-17T07:29:25Z</time>
      </trkpt>
      <trkpt lat="41.4738240" lon="-8.7655540">
        <ele>12.3</ele>
        <time>2021-05-17T07:29:26Z</time>
      </trkpt>
      <trkpt lat="41.4738350" lon="-8.7655520">
        <ele>12.3</ele>
        <time>2021-05-17T07:29:27Z</time>
      </trkpt>
      <trkpt lat="41.4738530" lon="-8.7655550">
        <ele>12.3</ele>
        <time>2021-05-17T07:29:28Z</time>
      </trkpt>
      <trkpt lat="41.4738690" lon="-8.7655540">
        <ele>12.3</ele>
        <time>2021-05-17T07:29:29Z</time>
      </trkpt>
      <trkpt lat="41.4738830" lon="-8.7655620">
        <ele>12.3</ele>
        <time>2021-05-17T07:29:30Z</time>
      </trkpt>
      <trkpt lat="41.4738980" lon="-8.7655640">
        <ele>12.3</ele>
        <time>2021-05-17T07:29:31Z</time>
      </trkpt>
      <trkpt lat="41.4739200" lon="-8.7655640">
        <ele>12.3</ele>
        <time>2021-05-17T07:29:32Z</time>
      </trkpt>
      <trkpt lat="41.4739300" lon="-8.7655650">
        <ele>12.3</ele>
        <time>2021-05-17T07:29:33Z</time>
      </trkpt>
      <trkpt lat="41.4739390" lon="-8.7655660">
        <ele>12.3</ele>
        <time>2021-05-17T07:29:34Z</time>
      </trkpt>
      <trkpt lat="41.4739600" lon="-8.7655660">
        <ele>12.3</ele>
        <time>2021-05-17T07:29:35Z</time>
      </trkpt>
      <trkpt lat="41.4739740" lon="-8.7655740">
        <ele>12.3</ele>
        <time>2021-05-17T07:29:36Z</time>
      </trkpt>
      <trkpt lat="41.4739950" lon="-8.7655800">
        <ele>12.3</ele>
        <time>2021-05-17T07:29:37Z</time>
      </trkpt>
      <trkpt lat="41.4740080" lon="-8.7655800">
        <ele>12.4</ele>
        <time>2021-05-17T07:29:38Z</time>
      </trkpt>
      <trkpt lat="41.4740210" lon="-8.7655790">
        <ele>12.4</ele>
        <time>2021-05-17T07:29:39Z</time>
      </trkpt>
      <trkpt lat="41.4740430" lon="-8.7655790">
        <ele>12.4</ele>
        <time>2021-05-17T07:29:40Z</time>
      </trkpt>
      <trkpt lat="41.4740520" lon="-8.7655810">
        <ele>12.4</ele>
        <time>2021-05-17T07:29:41Z</time>
      </trkpt>
      <trkpt lat="41.4740610" lon="-8.7655830">
        <ele>12.4</ele>
        <time>2021-05-17T07:29:42Z</time>
      </trkpt>
      <trkpt lat="41.4740730" lon="-8.7655830">
        <ele>12.4</ele>
        <time>2021-05-17T07:29:43Z</time>
      </trkpt>
      <trkpt lat="41.4740870" lon="-8.7655860">
        <ele>12.4</ele>
        <time>2021-05-17T07:29:44Z</time>
      </trkpt>
      <trkpt lat="41.4740900" lon="-8.7655820">
        <ele>12.4</ele>
        <time>2021-05-17T07:29:45Z</time>
      </trkpt>
      <trkpt lat="41.4740980" lon="-8.7655820">
        <ele>12.4</ele>
        <time>2021-05-17T07:29:46Z</time>
      </trkpt>
      <trkpt lat="41.4741020" lon="-8.7655840">
        <ele>12.4</ele>
        <time>2021-05-17T07:29:47Z</time>
      </trkpt>
      <trkpt lat="41.4741250" lon="-8.7655790">
        <ele>12.4</ele>
        <time>2021-05-17T07:29:48Z</time>
      </trkpt>
      <trkpt lat="41.4741380" lon="-8.7655870">
        <ele>12.4</ele>
        <time>2021-05-17T07:29:49Z</time>
      </trkpt>
      <trkpt lat="41.4741540" lon="-8.7655890">
        <ele>12.4</ele>
        <time>2021-05-17T07:29:50Z</time>
      </trkpt>
      <trkpt lat="41.4741760" lon="-8.7655940">
        <ele>12.4</ele>
        <time>2021-05-17T07:29:51Z</time>
      </trkpt>
      <trkpt lat="41.4741880" lon="-8.7655980">
        <ele>12.4</ele>
        <time>2021-05-17T07:29:52Z</time>
      </trkpt>
      <trkpt lat="41.4741990" lon="-8.7656010">
        <ele>12.4</ele>
        <time>2021-05-17T07:29:53Z</time>
      </trkpt>
      <trkpt lat="41.4742150" lon="-8.7656050">
        <ele>12.4</ele>
        <time>2021-05-17T07:29:54Z</time>
      </trkpt>
      <trkpt lat="41.4742390" lon="-8.7656070">
        <ele>12.4</ele>
        <time>2021-05-17T07:29:55Z</time>
      </trkpt>
      <trkpt lat="41.4742480" lon="-8.7656090">
        <ele>12.4</ele>
        <time>2021-05-17T07:29:56Z</time>
      </trkpt>
      <trkpt lat="41.4742570" lon="-8.7656100">
        <ele>12.4</ele>
        <time>2021-05-17T07:29:57Z</time>
      </trkpt>
      <trkpt lat="41.4742730" lon="-8.7656140">
        <ele>12.4</ele>
        <time>2021-05-17T07:29:58Z</time>
      </trkpt>
      <trkpt lat="41.4742890" lon="-8.7656120">
        <ele>12.5</ele>
        <time>2021-05-17T07:29:59Z</time>
      </trkpt>
      <trkpt lat="41.4743060" lon="-8.7656150">
        <ele>12.5</ele>
        <time>2021-05-17T07:30:00Z</time>
      </trkpt>
      <trkpt lat="41.4743210" lon="-8.7656220">
        <ele>12.5</ele>
        <time>2021-05-17T07:30:01Z</time>
      </trkpt>
      <trkpt lat="41.4743290" lon="-8.7656190">
        <ele>12.5</ele>
        <time>2021-05-17T07:30:02Z</time>
      </trkpt>
      <trkpt lat="41.4743350" lon="-8.7656120">
        <ele>12.5</ele>
        <time>2021-05-17T07:30:03Z</time>
      </trkpt>
      <trkpt lat="41.4743450" lon="-8.7656020">
        <ele>12.5</ele>
        <time>2021-05-17T07:30:04Z</time>
      </trkpt>
      <trkpt lat="41.4743600" lon="-8.7656000">
        <ele>12.5</ele>
        <time>2021-05-17T07:30:05Z</time>
      </trkpt>
      <trkpt lat="41.4743750" lon="-8.7655980">
        <ele>12.5</ele>
        <time>2021-05-17T07:30:06Z</time>
      </trkpt>
      <trkpt lat="41.4743890" lon="-8.7655970">
        <ele>12.5</ele>
        <time>2021-05-17T07:30:07Z</time>
      </trkpt>
      <trkpt lat="41.4744060" lon="-8.7655970">
        <ele>12.5</ele>
        <time>2021-05-17T07:30:08Z</time>
      </trkpt>
      <trkpt lat="41.4744250" lon="-8.7655980">
        <ele>12.5</ele>
        <time>2021-05-17T07:30:09Z</time>
      </trkpt>
      <trkpt lat="41.4744360" lon="-8.7655980">
        <ele>12.5</ele>
        <time>2021-05-17T07:30:10Z</time>
      </trkpt>
      <trkpt lat="41.4744580" lon="-8.7655940">
        <ele>12.5</ele>
        <time>2021-05-17T07:30:11Z</time>
      </trkpt>
      <trkpt lat="41.4744670" lon="-8.7655920">
        <ele>12.5</ele>
        <time>2021-05-17T07:30:12Z</time>
      </trkpt>
      <trkpt lat="41.4744770" lon="-8.7655910">
        <ele>12.5</ele>
        <time>2021-05-17T07:30:13Z</time>
      </trkpt>
      <trkpt lat="41.4745080" lon="-8.7655850">
        <ele>12.5</ele>
        <time>2021-05-17T07:30:14Z</time>
      </trkpt>
      <trkpt lat="41.4745170" lon="-8.7655830">
        <ele>12.5</ele>
        <time>2021-05-17T07:30:15Z</time>
      </trkpt>
      <trkpt lat="41.4745280" lon="-8.7655840">
        <ele>12.5</ele>
        <time>2021-05-17T07:30:16Z</time>
      </trkpt>
      <trkpt lat="41.4745520" lon="-8.7655750">
        <ele>12.5</ele>
        <time>2021-05-17T07:30:17Z</time>
      </trkpt>
      <trkpt lat="41.4745720" lon="-8.7655710">
        <ele>12.5</ele>
        <time>2021-05-17T07:30:18Z</time>
      </trkpt>
      <trkpt lat="41.4745880" lon="-8.7655690">
        <ele>12.5</ele>
        <time>2021-05-17T07:30:19Z</time>
      </trkpt>
      <trkpt lat="41.4745960" lon="-8.7655650">
        <ele>12.5</ele>
        <time>2021-05-17T07:30:20Z</time>
      </trkpt>
      <trkpt lat="41.4746190" lon="-8.7655590">
        <ele>12.5</ele>
        <time>2021-05-17T07:30:21Z</time>
      </trkpt>
      <trkpt lat="41.4746360" lon="-8.7655590">
        <ele>12.5</ele>
        <time>2021-05-17T07:30:22Z</time>
      </trkpt>
      <trkpt lat="41.4746540" lon="-8.7655590">
        <ele>12.5</ele>
        <time>2021-05-17T07:30:23Z</time>
      </trkpt>
      <trkpt lat="41.4746700" lon="-8.7655490">
        <ele>12.5</ele>
        <time>2021-05-17T07:30:24Z</time>
      </trkpt>
      <trkpt lat="41.4746830" lon="-8.7655340">
        <ele>12.5</ele>
        <time>2021-05-17T07:30:25Z</time>
      </trkpt>
      <trkpt lat="41.4746970" lon="-8.7655250">
        <ele>12.5</ele>
        <time>2021-05-17T07:30:26Z</time>
      </trkpt>
      <trkpt lat="41.4747080" lon="-8.7655200">
        <ele>12.5</ele>
        <time>2021-05-17T07:30:27Z</time>
      </trkpt>
      <trkpt lat="41.4747220" lon="-8.7655120">
        <ele>12.5</ele>
        <time>2021-05-17T07:30:28Z</time>
      </trkpt>
      <trkpt lat="41.4747400" lon="-8.7655100">
        <ele>12.5</ele>
        <time>2021-05-17T07:30:29Z</time>
      </trkpt>
      <trkpt lat="41.4747670" lon="-8.7654980">
        <ele>12.5</ele>
        <time>2021-05-17T07:30:30Z</time>
      </trkpt>
      <trkpt lat="41.4747780" lon="-8.7654960">
        <ele>12.5</ele>
        <time>2021-05-17T07:30:31Z</time>
      </trkpt>
      <trkpt lat="41.4747920" lon="-8.7654980">
        <ele>12.5</ele>
        <time>2021-05-17T07:30:32Z</time>
      </trkpt>
      <trkpt lat="41.4748050" lon="-8.7654940">
        <ele>12.5</ele>
        <time>2021-05-17T07:30:33Z</time>
      </trkpt>
      <trkpt lat="41.4748330" lon="-8.7654830">
        <ele>12.5</ele>
        <time>2021-05-17T07:30:34Z</time>
      </trkpt>
      <trkpt lat="41.4748410" lon="-8.7654790">
        <ele>12.5</ele>
        <time>2021-05-17T07:30:35Z</time>
      </trkpt>
      <trkpt lat="41.4748650" lon="-8.7654710">
        <ele>12.5</ele>
        <time>2021-05-17T07:30:36Z</time>
      </trkpt>
      <trkpt lat="41.4748740" lon="-8.7654680">
        <ele>12.5</ele>
        <time>2021-05-17T07:30:37Z</time>
      </trkpt>
      <trkpt lat="41.4748830" lon="-8.7654640">
        <ele>12.5</ele>
        <time>2021-05-17T07:30:38Z</time>
      </trkpt>
      <trkpt lat="41.4748940" lon="-8.7654540">
        <ele>12.5</ele>
        <time>2021-05-17T07:30:39Z</time>
      </trkpt>
      <trkpt lat="41.4749100" lon="-8.7654430">
        <ele>12.5</ele>
        <time>2021-05-17T07:30:40Z</time>
      </trkpt>
      <trkpt lat="41.4749330" lon="-8.7654390">
        <ele>12.5</ele>
        <time>2021-05-17T07:30:41Z</time>
      </trkpt>
      <trkpt lat="41.4749420" lon="-8.7654380">
        <ele>12.5</ele>
        <time>2021-05-17T07:30:42Z</time>
      </trkpt>
      <trkpt lat="41.4749500" lon="-8.7654370">
        <ele>12.5</ele>
        <time>2021-05-17T07:30:43Z</time>
      </trkpt>
      <trkpt lat="41.4749680" lon="-8.7654260">
        <ele>12.5</ele>
        <time>2021-05-17T07:30:44Z</time>
      </trkpt>
      <trkpt lat="41.4749770" lon="-8.7654230">
        <ele>12.5</ele>
        <time>2021-05-17T07:30:45Z</time>
      </trkpt>
      <trkpt lat="41.4749870" lon="-8.7654190">
        <ele>12.5</ele>
        <time>2021-05-17T07:30:46Z</time>
      </trkpt>
      <trkpt lat="41.4750030" lon="-8.7654190">
        <ele>12.5</ele>
        <time>2021-05-17T07:30:47Z</time>
      </trkpt>
      <trkpt lat="41.4750150" lon="-8.7654130">
        <ele>12.5</ele>
        <time>2021-05-17T07:30:48Z</time>
      </trkpt>
      <trkpt lat="41.4750310" lon="-8.7653990">
        <ele>12.5</ele>
        <time>2021-05-17T07:30:49Z</time>
      </trkpt>
      <trkpt lat="41.4750400" lon="-8.7653930">
        <ele>12.5</ele>
        <time>2021-05-17T07:30:50Z</time>
      </trkpt>
      <trkpt lat="41.4750480" lon="-8.7653860">
        <ele>12.5</ele>
        <time>2021-05-17T07:30:51Z</time>
      </trkpt>
      <trkpt lat="41.4750640" lon="-8.7653830">
        <ele>12.5</ele>
        <time>2021-05-17T07:30:52Z</time>
      </trkpt>
      <trkpt lat="41.4750810" lon="-8.7653750">
        <ele>12.5</ele>
        <time>2021-05-17T07:30:53Z</time>
      </trkpt>
      <trkpt lat="41.4750990" lon="-8.7653620">
        <ele>12.5</ele>
        <time>2021-05-17T07:30:54Z</time>
      </trkpt>
      <trkpt lat="41.4751070" lon="-8.7653590">
        <ele>12.5</ele>
        <time>2021-05-17T07:30:55Z</time>
      </trkpt>
      <trkpt lat="41.4751160" lon="-8.7653550">
        <ele>12.6</ele>
        <time>2021-05-17T07:30:56Z</time>
      </trkpt>
      <trkpt lat="41.4751310" lon="-8.7653530">
        <ele>12.6</ele>
        <time>2021-05-17T07:30:57Z</time>
      </trkpt>
      <trkpt lat="41.4751400" lon="-8.7653530">
        <ele>12.6</ele>
        <time>2021-05-17T07:30:58Z</time>
      </trkpt>
      <trkpt lat="41.4751510" lon="-8.7653470">
        <ele>12.6</ele>
        <time>2021-05-17T07:30:59Z</time>
      </trkpt>
      <trkpt lat="41.4751670" lon="-8.7653370">
        <ele>12.6</ele>
        <time>2021-05-17T07:31:00Z</time>
      </trkpt>
      <trkpt lat="41.4751840" lon="-8.7653400">
        <ele>12.6</ele>
        <time>2021-05-17T07:31:01Z</time>
      </trkpt>
      <trkpt lat="41.4752010" lon="-8.7653370">
        <ele>12.6</ele>
        <time>2021-05-17T07:31:02Z</time>
      </trkpt>
      <trkpt lat="41.4752080" lon="-8.7653290">
        <ele>12.6</ele>
        <time>2021-05-17T07:31:03Z</time>
      </trkpt>
      <trkpt lat="41.4752170" lon="-8.7653230">
        <ele>12.6</ele>
        <time>2021-05-17T07:31:04Z</time>
      </trkpt>
      <trkpt lat="41.4752350" lon="-8.7653120">
        <ele>12.6</ele>
        <time>2021-05-17T07:31:05Z</time>
      </trkpt>
      <trkpt lat="41.4752480" lon="-8.7653080">
        <ele>12.6</ele>
        <time>2021-05-17T07:31:06Z</time>
      </trkpt>
      <trkpt lat="41.4752630" lon="-8.7653000">
        <ele>12.6</ele>
        <time>2021-05-17T07:31:07Z</time>
      </trkpt>
      <trkpt lat="41.4752700" lon="-8.7652980">
        <ele>12.6</ele>
        <time>2021-05-17T07:31:08Z</time>
      </trkpt>
      <trkpt lat="41.4752770" lon="-8.7652890">
        <ele>12.6</ele>
        <time>2021-05-17T07:31:09Z</time>
      </trkpt>
      <trkpt lat="41.4752930" lon="-8.7652900">
        <ele>12.6</ele>
        <time>2021-05-17T07:31:10Z</time>
      </trkpt>
      <trkpt lat="41.4753120" lon="-8.7652870">
        <ele>12.6</ele>
        <time>2021-05-17T07:31:11Z</time>
      </trkpt>
      <trkpt lat="41.4753260" lon="-8.7652800">
        <ele>12.6</ele>
        <time>2021-05-17T07:31:12Z</time>
      </trkpt>
      <trkpt lat="41.4753450" lon="-8.7652770">
        <ele>12.6</ele>
        <time>2021-05-17T07:31:13Z</time>
      </trkpt>
      <trkpt lat="41.4753680" lon="-8.7652640">
        <ele>12.6</ele>
        <time>2021-05-17T07:31:14Z</time>
      </trkpt>
      <trkpt lat="41.4753790" lon="-8.7652600">
        <ele>12.6</ele>
        <time>2021-05-17T07:31:15Z</time>
      </trkpt>
      <trkpt lat="41.4753900" lon="-8.7652560">
        <ele>12.6</ele>
        <time>2021-05-17T07:31:16Z</time>
      </trkpt>
      <trkpt lat="41.4754090" lon="-8.7652580">
        <ele>12.6</ele>
        <time>2021-05-17T07:31:17Z</time>
      </trkpt>
      <trkpt lat="41.4754180" lon="-8.7652590">
        <ele>12.6</ele>
        <time>2021-05-17T07:31:18Z</time>
      </trkpt>
      <trkpt lat="41.4754270" lon="-8.7652600">
        <ele>12.6</ele>
        <time>2021-05-17T07:31:19Z</time>
      </trkpt>
      <trkpt lat="41.4754280" lon="-8.7652580">
        <ele>12.6</ele>
        <time>2021-05-17T07:31:20Z</time>
      </trkpt>
      <trkpt lat="41.4754410" lon="-8.7652590">
        <ele>12.6</ele>
        <time>2021-05-17T07:31:21Z</time>
      </trkpt>
      <trkpt lat="41.4754560" lon="-8.7652480">
        <ele>12.6</ele>
        <time>2021-05-17T07:31:22Z</time>
      </trkpt>
      <trkpt lat="41.4754740" lon="-8.7652470">
        <ele>12.6</ele>
        <time>2021-05-17T07:31:23Z</time>
      </trkpt>
      <trkpt lat="41.4754890" lon="-8.7652380">
        <ele>12.6</ele>
        <time>2021-05-17T07:31:24Z</time>
      </trkpt>
      <trkpt lat="41.4755060" lon="-8.7652310">
        <ele>12.6</ele>
        <time>2021-05-17T07:31:25Z</time>
      </trkpt>
      <trkpt lat="41.4755190" lon="-8.7652220">
        <ele>12.6</ele>
        <time>2021-05-17T07:31:26Z</time>
      </trkpt>
      <trkpt lat="41.4755310" lon="-8.7652220">
        <ele>12.6</ele>
        <time>2021-05-17T07:31:27Z</time>
      </trkpt>
      <trkpt lat="41.4755350" lon="-8.7652140">
        <ele>12.6</ele>
        <time>2021-05-17T07:31:28Z</time>
      </trkpt>
      <trkpt lat="41.4755400" lon="-8.7652120">
        <ele>12.6</ele>
        <time>2021-05-17T07:31:29Z</time>
      </trkpt>
      <trkpt lat="41.4755490" lon="-8.7652090">
        <ele>12.6</ele>
        <time>2021-05-17T07:31:30Z</time>
      </trkpt>
      <trkpt lat="41.4755680" lon="-8.7652040">
        <ele>12.6</ele>
        <time>2021-05-17T07:31:31Z</time>
      </trkpt>
      <trkpt lat="41.4755770" lon="-8.7652010">
        <ele>12.6</ele>
        <time>2021-05-17T07:31:32Z</time>
      </trkpt>
      <trkpt lat="41.4755860" lon="-8.7651990">
        <ele>12.5</ele>
        <time>2021-05-17T07:31:33Z</time>
      </trkpt>
      <trkpt lat="41.4755980" lon="-8.7652110">
        <ele>12.5</ele>
        <time>2021-05-17T07:31:34Z</time>
      </trkpt>
      <trkpt lat="41.4756160" lon="-8.7652060">
        <ele>12.5</ele>
        <time>2021-05-17T07:31:35Z</time>
      </trkpt>
      <trkpt lat="41.4756330" lon="-8.7652090">
        <ele>12.5</ele>
        <time>2021-05-17T07:31:36Z</time>
      </trkpt>
      <trkpt lat="41.4756530" lon="-8.7652070">
        <ele>12.5</ele>
        <time>2021-05-17T07:31:37Z</time>
      </trkpt>
      <trkpt lat="41.4756610" lon="-8.7652090">
        <ele>12.5</ele>
        <time>2021-05-17T07:31:38Z</time>
      </trkpt>
      <trkpt lat="41.4756780" lon="-8.7652040">
        <ele>12.5</ele>
        <time>2021-05-17T07:31:39Z</time>
      </trkpt>
      <trkpt lat="41.4756870" lon="-8.7651960">
        <ele>12.5</ele>
        <time>2021-05-17T07:31:40Z</time>
      </trkpt>
      <trkpt lat="41.4757150" lon="-8.7651930">
        <ele>12.5</ele>
        <time>2021-05-17T07:31:41Z</time>
      </trkpt>
      <trkpt lat="41.4757360" lon="-8.7651850">
        <ele>12.5</ele>
        <time>2021-05-17T07:31:42Z</time>
      </trkpt>
      <trkpt lat="41.4757390" lon="-8.7651820">
        <ele>12.5</ele>
        <time>2021-05-17T07:31:43Z</time>
      </trkpt>
      <trkpt lat="41.4757430" lon="-8.7651780">
        <ele>12.5</ele>
        <time>2021-05-17T07:31:44Z</time>
      </trkpt>
      <trkpt lat="41.4757460" lon="-8.7651750">
        <ele>12.5</ele>
        <time>2021-05-17T07:31:45Z</time>
      </trkpt>
      <trkpt lat="41.4757500" lon="-8.7651710">
        <ele>12.5</ele>
        <time>2021-05-17T07:31:46Z</time>
      </trkpt>
      <trkpt lat="41.4757520" lon="-8.7651730">
        <ele>12.5</ele>
        <time>2021-05-17T07:31:47Z</time>
      </trkpt>
      <trkpt lat="41.4757560" lon="-8.7651720">
        <ele>12.5</ele>
        <time>2021-05-17T07:31:48Z</time>
      </trkpt>
      <trkpt lat="41.4757600" lon="-8.7651730">
        <ele>12.5</ele>
        <time>2021-05-17T07:31:49Z</time>
      </trkpt>
      <trkpt lat="41.4757700" lon="-8.7651720">
        <ele>12.4</ele>
        <time>2021-05-17T07:31:50Z</time>
      </trkpt>
      <trkpt lat="41.4757820" lon="-8.7651720">
        <ele>12.4</ele>
        <time>2021-05-17T07:31:51Z</time>
      </trkpt>
      <trkpt lat="41.4758010" lon="-8.7651720">
        <ele>12.4</ele>
        <time>2021-05-17T07:31:52Z</time>
      </trkpt>
      <trkpt lat="41.4758160" lon="-8.7651790">
        <ele>12.4</ele>
        <time>2021-05-17T07:31:53Z</time>
      </trkpt>
      <trkpt lat="41.4758280" lon="-8.7651860">
        <ele>12.4</ele>
        <time>2021-05-17T07:31:54Z</time>
      </trkpt>
      <trkpt lat="41.4758370" lon="-8.7651930">
        <ele>12.4</ele>
        <time>2021-05-17T07:31:55Z</time>
      </trkpt>
      <trkpt lat="41.4758500" lon="-8.7651950">
        <ele>12.4</ele>
        <time>2021-05-17T07:31:56Z</time>
      </trkpt>
      <trkpt lat="41.4758660" lon="-8.7652030">
        <ele>12.4</ele>
        <time>2021-05-17T07:31:57Z</time>
      </trkpt>
      <trkpt lat="41.4758760" lon="-8.7652050">
        <ele>12.4</ele>
        <time>2021-05-17T07:31:58Z</time>
      </trkpt>
      <trkpt lat="41.4758860" lon="-8.7652080">
        <ele>12.4</ele>
        <time>2021-05-17T07:31:59Z</time>
      </trkpt>
      <trkpt lat="41.4758950" lon="-8.7652080">
        <ele>12.4</ele>
        <time>2021-05-17T07:32:00Z</time>
      </trkpt>
      <trkpt lat="41.4759070" lon="-8.7652110">
        <ele>12.4</ele>
        <time>2021-05-17T07:32:01Z</time>
      </trkpt>
      <trkpt lat="41.4759230" lon="-8.7652090">
        <ele>12.4</ele>
        <time>2021-05-17T07:32:02Z</time>
      </trkpt>
      <trkpt lat="41.4759350" lon="-8.7652080">
        <ele>12.4</ele>
        <time>2021-05-17T07:32:03Z</time>
      </trkpt>
      <trkpt lat="41.4759460" lon="-8.7652110">
        <ele>12.3</ele>
        <time>2021-05-17T07:32:04Z</time>
      </trkpt>
      <trkpt lat="41.4759560" lon="-8.7652150">
        <ele>12.3</ele>
        <time>2021-05-17T07:32:05Z</time>
      </trkpt>
      <trkpt lat="41.4759680" lon="-8.7652160">
        <ele>12.3</ele>
        <time>2021-05-17T07:32:06Z</time>
      </trkpt>
      <trkpt lat="41.4759790" lon="-8.7652150">
        <ele>12.3</ele>
        <time>2021-05-17T07:32:07Z</time>
      </trkpt>
      <trkpt lat="41.4759920" lon="-8.7652170">
        <ele>12.3</ele>
        <time>2021-05-17T07:32:08Z</time>
      </trkpt>
      <trkpt lat="41.4760080" lon="-8.7652200">
        <ele>12.3</ele>
        <time>2021-05-17T07:32:09Z</time>
      </trkpt>
      <trkpt lat="41.4760140" lon="-8.7652190">
        <ele>12.3</ele>
        <time>2021-05-17T07:32:10Z</time>
      </trkpt>
      <trkpt lat="41.4760270" lon="-8.7652200">
        <ele>12.3</ele>
        <time>2021-05-17T07:32:11Z</time>
      </trkpt>
      <trkpt lat="41.4760400" lon="-8.7652200">
        <ele>12.3</ele>
        <time>2021-05-17T07:32:12Z</time>
      </trkpt>
      <trkpt lat="41.4760630" lon="-8.7652230">
        <ele>12.3</ele>
        <time>2021-05-17T07:32:13Z</time>
      </trkpt>
      <trkpt lat="41.4760840" lon="-8.7652330">
        <ele>12.2</ele>
        <time>2021-05-17T07:32:14Z</time>
      </trkpt>
      <trkpt lat="41.4760910" lon="-8.7652380">
        <ele>12.2</ele>
        <time>2021-05-17T07:32:15Z</time>
      </trkpt>
      <trkpt lat="41.4760980" lon="-8.7652420">
        <ele>12.2</ele>
        <time>2021-05-17T07:32:16Z</time>
      </trkpt>
      <trkpt lat="41.4761140" lon="-8.7652440">
        <ele>12.2</ele>
        <time>2021-05-17T07:32:17Z</time>
      </trkpt>
      <trkpt lat="41.4761330" lon="-8.7652400">
        <ele>12.2</ele>
        <time>2021-05-17T07:32:18Z</time>
      </trkpt>
      <trkpt lat="41.4761450" lon="-8.7652350">
        <ele>12.2</ele>
        <time>2021-05-17T07:32:19Z</time>
      </trkpt>
      <trkpt lat="41.4761520" lon="-8.7652330">
        <ele>12.2</ele>
        <time>2021-05-17T07:32:20Z</time>
      </trkpt>
      <trkpt lat="41.4761670" lon="-8.7652400">
        <ele>12.1</ele>
        <time>2021-05-17T07:32:21Z</time>
      </trkpt>
      <trkpt lat="41.4761790" lon="-8.7652470">
        <ele>12.1</ele>
        <time>2021-05-17T07:32:22Z</time>
      </trkpt>
      <trkpt lat="41.4761930" lon="-8.7652490">
        <ele>12.1</ele>
        <time>2021-05-17T07:32:23Z</time>
      </trkpt>
      <trkpt lat="41.4762100" lon="-8.7652440">
        <ele>12.1</ele>
        <time>2021-05-17T07:32:24Z</time>
      </trkpt>
      <trkpt lat="41.4762250" lon="-8.7652410">
        <ele>12.1</ele>
        <time>2021-05-17T07:32:25Z</time>
      </trkpt>
      <trkpt lat="41.4762500" lon="-8.7652470">
        <ele>12.0</ele>
        <time>2021-05-17T07:32:26Z</time>
      </trkpt>
      <trkpt lat="41.4762560" lon="-8.7652490">
        <ele>12.0</ele>
        <time>2021-05-17T07:32:27Z</time>
      </trkpt>
      <trkpt lat="41.4762610" lon="-8.7652500">
        <ele>12.0</ele>
        <time>2021-05-17T07:32:28Z</time>
      </trkpt>
      <trkpt lat="41.4762700" lon="-8.7652550">
        <ele>12.0</ele>
        <time>2021-05-17T07:32:29Z</time>
      </trkpt>
      <trkpt lat="41.4762800" lon="-8.7652580">
        <ele>12.0</ele>
        <time>2021-05-17T07:32:30Z</time>
      </trkpt>
      <trkpt lat="41.4762920" lon="-8.7652610">
        <ele>12.0</ele>
        <time>2021-05-17T07:32:31Z</time>
      </trkpt>
      <trkpt lat="41.4763040" lon="-8.7652570">
        <ele>12.0</ele>
        <time>2021-05-17T07:32:32Z</time>
      </trkpt>
      <trkpt lat="41.4763270" lon="-8.7652630">
        <ele>11.9</ele>
        <time>2021-05-17T07:32:33Z</time>
      </trkpt>
      <trkpt lat="41.4763600" lon="-8.7652670">
        <ele>11.9</ele>
        <time>2021-05-17T07:32:34Z</time>
      </trkpt>
      <trkpt lat="41.4763710" lon="-8.7652700">
        <ele>11.9</ele>
        <time>2021-05-17T07:32:35Z</time>
      </trkpt>
      <trkpt lat="41.4763880" lon="-8.7652670">
        <ele>11.9</ele>
        <time>2021-05-17T07:32:36Z</time>
      </trkpt>
      <trkpt lat="41.4764030" lon="-8.7652690">
        <ele>11.8</ele>
        <time>2021-05-17T07:32:37Z</time>
      </trkpt>
      <trkpt lat="41.4764220" lon="-8.7652800">
        <ele>11.8</ele>
        <time>2021-05-17T07:32:38Z</time>
      </trkpt>
      <trkpt lat="41.4764310" lon="-8.7652830">
        <ele>11.8</ele>
        <time>2021-05-17T07:32:39Z</time>
      </trkpt>
      <trkpt lat="41.4764400" lon="-8.7652870">
        <ele>11.8</ele>
        <time>2021-05-17T07:32:40Z</time>
      </trkpt>
      <trkpt lat="41.4764520" lon="-8.7652910">
        <ele>11.8</ele>
        <time>2021-05-17T07:32:41Z</time>
      </trkpt>
      <trkpt lat="41.4764710" lon="-8.7652910">
        <ele>11.8</ele>
        <time>2021-05-17T07:32:42Z</time>
      </trkpt>
      <trkpt lat="41.4764900" lon="-8.7652860">
        <ele>11.7</ele>
        <time>2021-05-17T07:32:43Z</time>
      </trkpt>
      <trkpt lat="41.4765000" lon="-8.7652860">
        <ele>11.7</ele>
        <time>2021-05-17T07:32:44Z</time>
      </trkpt>
      <trkpt lat="41.4765310" lon="-8.7652900">
        <ele>11.7</ele>
        <time>2021-05-17T07:32:45Z</time>
      </trkpt>
      <trkpt lat="41.4765390" lon="-8.7652910">
        <ele>11.7</ele>
        <time>2021-05-17T07:32:46Z</time>
      </trkpt>
      <trkpt lat="41.4765570" lon="-8.7652920">
        <ele>11.6</ele>
        <time>2021-05-17T07:32:47Z</time>
      </trkpt>
      <trkpt lat="41.4765680" lon="-8.7652970">
        <ele>11.6</ele>
        <time>2021-05-17T07:32:48Z</time>
      </trkpt>
      <trkpt lat="41.4765790" lon="-8.7652980">
        <ele>11.6</ele>
        <time>2021-05-17T07:32:49Z</time>
      </trkpt>
      <trkpt lat="41.4765960" lon="-8.7653020">
        <ele>11.6</ele>
        <time>2021-05-17T07:32:50Z</time>
      </trkpt>
      <trkpt lat="41.4766210" lon="-8.7653070">
        <ele>11.6</ele>
        <time>2021-05-17T07:32:51Z</time>
      </trkpt>
      <trkpt lat="41.4766290" lon="-8.7653100">
        <ele>11.6</ele>
        <time>2021-05-17T07:32:52Z</time>
      </trkpt>
      <trkpt lat="41.4766360" lon="-8.7653130">
        <ele>11.6</ele>
        <time>2021-05-17T07:32:53Z</time>
      </trkpt>
      <trkpt lat="41.4766660" lon="-8.7653240">
        <ele>11.6</ele>
        <time>2021-05-17T07:32:54Z</time>
      </trkpt>
      <trkpt lat="41.4766730" lon="-8.7653270">
        <ele>11.6</ele>
        <time>2021-05-17T07:32:55Z</time>
      </trkpt>
      <trkpt lat="41.4767050" lon="-8.7653210">
        <ele>11.5</ele>
        <time>2021-05-17T07:32:56Z</time>
      </trkpt>
      <trkpt lat="41.4767150" lon="-8.7653190">
        <ele>11.5</ele>
        <time>2021-05-17T07:32:57Z</time>
      </trkpt>
      <trkpt lat="41.4767430" lon="-8.7653170">
        <ele>11.5</ele>
        <time>2021-05-17T07:32:58Z</time>
      </trkpt>
      <trkpt lat="41.4767520" lon="-8.7653180">
        <ele>11.5</ele>
        <time>2021-05-17T07:32:59Z</time>
      </trkpt>
      <trkpt lat="41.4767700" lon="-8.7653240">
        <ele>11.5</ele>
        <time>2021-05-17T07:33:00Z</time>
      </trkpt>
      <trkpt lat="41.4767860" lon="-8.7653280">
        <ele>11.5</ele>
        <time>2021-05-17T07:33:01Z</time>
      </trkpt>
      <trkpt lat="41.4768180" lon="-8.7653270">
        <ele>11.5</ele>
        <time>2021-05-17T07:33:02Z</time>
      </trkpt>
      <trkpt lat="41.4768280" lon="-8.7653270">
        <ele>11.5</ele>
        <time>2021-05-17T07:33:03Z</time>
      </trkpt>
      <trkpt lat="41.4768460" lon="-8.7653300">
        <ele>11.4</ele>
        <time>2021-05-17T07:33:04Z</time>
      </trkpt>
      <trkpt lat="41.4768630" lon="-8.7653270">
        <ele>11.4</ele>
        <time>2021-05-17T07:33:05Z</time>
      </trkpt>
      <trkpt lat="41.4768800" lon="-8.7653270">
        <ele>11.4</ele>
        <time>2021-05-17T07:33:06Z</time>
      </trkpt>
      <trkpt lat="41.4768940" lon="-8.7653280">
        <ele>11.4</ele>
        <time>2021-05-17T07:33:07Z</time>
      </trkpt>
      <trkpt lat="41.4769110" lon="-8.7653270">
        <ele>11.4</ele>
        <time>2021-05-17T07:33:08Z</time>
      </trkpt>
      <trkpt lat="41.4769180" lon="-8.7653280">
        <ele>11.4</ele>
        <time>2021-05-17T07:33:09Z</time>
      </trkpt>
      <trkpt lat="41.4769240" lon="-8.7653300">
        <ele>11.4</ele>
        <time>2021-05-17T07:33:10Z</time>
      </trkpt>
      <trkpt lat="41.4769300" lon="-8.7653320">
        <ele>11.4</ele>
        <time>2021-05-17T07:33:11Z</time>
      </trkpt>
      <trkpt lat="41.4769480" lon="-8.7653320">
        <ele>11.4</ele>
        <time>2021-05-17T07:33:12Z</time>
      </trkpt>
      <trkpt lat="41.4769570" lon="-8.7653350">
        <ele>11.4</ele>
        <time>2021-05-17T07:33:13Z</time>
      </trkpt>
      <trkpt lat="41.4769670" lon="-8.7653370">
        <ele>11.4</ele>
        <time>2021-05-17T07:33:14Z</time>
      </trkpt>
      <trkpt lat="41.4769830" lon="-8.7653360">
        <ele>11.5</ele>
        <time>2021-05-17T07:33:15Z</time>
      </trkpt>
      <trkpt lat="41.4769980" lon="-8.7653370">
        <ele>11.5</ele>
        <time>2021-05-17T07:33:16Z</time>
      </trkpt>
      <trkpt lat="41.4770090" lon="-8.7653310">
        <ele>11.5</ele>
        <time>2021-05-17T07:33:17Z</time>
      </trkpt>
      <trkpt lat="41.4770210" lon="-8.7653290">
        <ele>11.5</ele>
        <time>2021-05-17T07:33:18Z</time>
      </trkpt>
      <trkpt lat="41.4770280" lon="-8.7653290">
        <ele>11.5</ele>
        <time>2021-05-17T07:33:19Z</time>
      </trkpt>
      <trkpt lat="41.4770420" lon="-8.7653290">
        <ele>11.5</ele>
        <time>2021-05-17T07:33:20Z</time>
      </trkpt>
      <trkpt lat="41.4770500" lon="-8.7653280">
        <ele>11.5</ele>
        <time>2021-05-17T07:33:21Z</time>
      </trkpt>
      <trkpt lat="41.4770540" lon="-8.7653230">
        <ele>11.5</ele>
        <time>2021-05-17T07:33:22Z</time>
      </trkpt>
      <trkpt lat="41.4770620" lon="-8.7653160">
        <ele>11.5</ele>
        <time>2021-05-17T07:33:23Z</time>
      </trkpt>
      <trkpt lat="41.4770760" lon="-8.7653230">
        <ele>11.5</ele>
        <time>2021-05-17T07:33:24Z</time>
      </trkpt>
      <trkpt lat="41.4770940" lon="-8.7653230">
        <ele>11.5</ele>
        <time>2021-05-17T07:33:25Z</time>
      </trkpt>
      <trkpt lat="41.4771040" lon="-8.7653280">
        <ele>11.5</ele>
        <time>2021-05-17T07:33:26Z</time>
      </trkpt>
      <trkpt lat="41.4771230" lon="-8.7653260">
        <ele>11.5</ele>
        <time>2021-05-17T07:33:27Z</time>
      </trkpt>
      <trkpt lat="41.4771420" lon="-8.7653320">
        <ele>11.5</ele>
        <time>2021-05-17T07:33:28Z</time>
      </trkpt>
      <trkpt lat="41.4771580" lon="-8.7653330">
        <ele>11.5</ele>
        <time>2021-05-17T07:33:29Z</time>
      </trkpt>
      <trkpt lat="41.4771900" lon="-8.7653450">
        <ele>11.5</ele>
        <time>2021-05-17T07:33:30Z</time>
      </trkpt>
      <trkpt lat="41.4772000" lon="-8.7653480">
        <ele>11.5</ele>
        <time>2021-05-17T07:33:31Z</time>
      </trkpt>
      <trkpt lat="41.4772180" lon="-8.7653470">
        <ele>11.5</ele>
        <time>2021-05-17T07:33:32Z</time>
      </trkpt>
      <trkpt lat="41.4772330" lon="-8.7653490">
        <ele>11.5</ele>
        <time>2021-05-17T07:33:33Z</time>
      </trkpt>
      <trkpt lat="41.4772520" lon="-8.7653450">
        <ele>11.5</ele>
        <time>2021-05-17T07:33:34Z</time>
      </trkpt>
      <trkpt lat="41.4772630" lon="-8.7653460">
        <ele>11.5</ele>
        <time>2021-05-17T07:33:35Z</time>
      </trkpt>
      <trkpt lat="41.4772740" lon="-8.7653460">
        <ele>11.5</ele>
        <time>2021-05-17T07:33:36Z</time>
      </trkpt>
      <trkpt lat="41.4772950" lon="-8.7653420">
        <ele>11.5</ele>
        <time>2021-05-17T07:33:37Z</time>
      </trkpt>
      <trkpt lat="41.4773060" lon="-8.7653410">
        <ele>11.5</ele>
        <time>2021-05-17T07:33:38Z</time>
      </trkpt>
      <trkpt lat="41.4773170" lon="-8.7653390">
        <ele>11.5</ele>
        <time>2021-05-17T07:33:39Z</time>
      </trkpt>
      <trkpt lat="41.4773470" lon="-8.7653350">
        <ele>11.5</ele>
        <time>2021-05-17T07:33:40Z</time>
      </trkpt>
      <trkpt lat="41.4773550" lon="-8.7653340">
        <ele>11.4</ele>
        <time>2021-05-17T07:33:41Z</time>
      </trkpt>
      <trkpt lat="41.4773670" lon="-8.7653380">
        <ele>11.4</ele>
        <time>2021-05-17T07:33:42Z</time>
      </trkpt>
      <trkpt lat="41.4773820" lon="-8.7653460">
        <ele>11.4</ele>
        <time>2021-05-17T07:33:43Z</time>
      </trkpt>
      <trkpt lat="41.4773930" lon="-8.7653460">
        <ele>11.4</ele>
        <time>2021-05-17T07:33:44Z</time>
      </trkpt>
      <trkpt lat="41.4774040" lon="-8.7653440">
        <ele>11.4</ele>
        <time>2021-05-17T07:33:45Z</time>
      </trkpt>
      <trkpt lat="41.4774160" lon="-8.7653420">
        <ele>11.4</ele>
        <time>2021-05-17T07:33:46Z</time>
      </trkpt>
      <trkpt lat="41.4774320" lon="-8.7653450">
        <ele>11.4</ele>
        <time>2021-05-17T07:33:47Z</time>
      </trkpt>
      <trkpt lat="41.4774440" lon="-8.7653450">
        <ele>11.4</ele>
        <time>2021-05-17T07:33:48Z</time>
      </trkpt>
      <trkpt lat="41.4774560" lon="-8.7653460">
        <ele>11.4</ele>
        <time>2021-05-17T07:33:49Z</time>
      </trkpt>
      <trkpt lat="41.4774660" lon="-8.7653410">
        <ele>11.4</ele>
        <time>2021-05-17T07:33:50Z</time>
      </trkpt>
      <trkpt lat="41.4774740" lon="-8.7653410">
        <ele>11.4</ele>
        <time>2021-05-17T07:33:51Z</time>
      </trkpt>
      <trkpt lat="41.4774890" lon="-8.7653410">
        <ele>11.4</ele>
        <time>2021-05-17T07:33:52Z</time>
      </trkpt>
      <trkpt lat="41.4775020" lon="-8.7653550">
        <ele>11.4</ele>
        <time>2021-05-17T07:33:53Z</time>
      </trkpt>
      <trkpt lat="41.4775240" lon="-8.7653520">
        <ele>11.4</ele>
        <time>2021-05-17T07:33:54Z</time>
      </trkpt>
      <trkpt lat="41.4775330" lon="-8.7653520">
        <ele>11.4</ele>
        <time>2021-05-17T07:33:55Z</time>
      </trkpt>
      <trkpt lat="41.4775430" lon="-8.7653520">
        <ele>11.4</ele>
        <time>2021-05-17T07:33:56Z</time>
      </trkpt>
      <trkpt lat="41.4775510" lon="-8.7653550">
        <ele>11.3</ele>
        <time>2021-05-17T07:33:57Z</time>
      </trkpt>
      <trkpt lat="41.4775650" lon="-8.7653570">
        <ele>11.3</ele>
        <time>2021-05-17T07:33:58Z</time>
      </trkpt>
      <trkpt lat="41.4775770" lon="-8.7653580">
        <ele>11.3</ele>
        <time>2021-05-17T07:33:59Z</time>
      </trkpt>
      <trkpt lat="41.4776050" lon="-8.7653570">
        <ele>11.3</ele>
        <time>2021-05-17T07:34:00Z</time>
      </trkpt>
      <trkpt lat="41.4776150" lon="-8.7653540">
        <ele>11.3</ele>
        <time>2021-05-17T07:34:01Z</time>
      </trkpt>
      <trkpt lat="41.4776450" lon="-8.7653600">
        <ele>11.3</ele>
        <time>2021-05-17T07:34:02Z</time>
      </trkpt>
      <trkpt lat="41.4776550" lon="-8.7653610">
        <ele>11.3</ele>
        <time>2021-05-17T07:34:03Z</time>
      </trkpt>
      <trkpt lat="41.4776750" lon="-8.7653600">
        <ele>11.3</ele>
        <time>2021-05-17T07:34:04Z</time>
      </trkpt>
      <trkpt lat="41.4776850" lon="-8.7653570">
        <ele>11.3</ele>
        <time>2021-05-17T07:34:05Z</time>
      </trkpt>
      <trkpt lat="41.4776960" lon="-8.7653540">
        <ele>11.3</ele>
        <time>2021-05-17T07:34:06Z</time>
      </trkpt>
      <trkpt lat="41.4777180" lon="-8.7653540">
        <ele>11.3</ele>
        <time>2021-05-17T07:34:07Z</time>
      </trkpt>
      <trkpt lat="41.4777260" lon="-8.7653560">
        <ele>11.3</ele>
        <time>2021-05-17T07:34:08Z</time>
      </trkpt>
      <trkpt lat="41.4777350" lon="-8.7653580">
        <ele>11.3</ele>
        <time>2021-05-17T07:34:09Z</time>
      </trkpt>
      <trkpt lat="41.4777470" lon="-8.7653610">
        <ele>11.2</ele>
        <time>2021-05-17T07:34:10Z</time>
      </trkpt>
      <trkpt lat="41.4777570" lon="-8.7653670">
        <ele>11.2</ele>
        <time>2021-05-17T07:34:11Z</time>
      </trkpt>
      <trkpt lat="41.4777640" lon="-8.7653640">
        <ele>11.2</ele>
        <time>2021-05-17T07:34:12Z</time>
      </trkpt>
      <trkpt lat="41.4777740" lon="-8.7653570">
        <ele>11.2</ele>
        <time>2021-05-17T07:34:13Z</time>
      </trkpt>
      <trkpt lat="41.4777910" lon="-8.7653460">
        <ele>11.2</ele>
        <time>2021-05-17T07:34:14Z</time>
      </trkpt>
      <trkpt lat="41.4778230" lon="-8.7653540">
        <ele>11.2</ele>
        <time>2021-05-17T07:34:15Z</time>
      </trkpt>
      <trkpt lat="41.4778340" lon="-8.7653570">
        <ele>11.2</ele>
        <time>2021-05-17T07:34:16Z</time>
      </trkpt>
      <trkpt lat="41.4778510" lon="-8.7653580">
        <ele>11.2</ele>
        <time>2021-05-17T07:34:17Z</time>
      </trkpt>
      <trkpt lat="41.4778680" lon="-8.7653600">
        <ele>11.2</ele>
        <time>2021-05-17T07:34:18Z</time>
      </trkpt>
      <trkpt lat="41.4778960" lon="-8.7653720">
        <ele>11.2</ele>
        <time>2021-05-17T07:34:19Z</time>
      </trkpt>
      <trkpt lat="41.4779070" lon="-8.7653760">
        <ele>11.2</ele>
        <time>2021-05-17T07:34:20Z</time>
      </trkpt>
      <trkpt lat="41.4779200" lon="-8.7653720">
        <ele>11.2</ele>
        <time>2021-05-17T07:34:21Z</time>
      </trkpt>
      <trkpt lat="41.4779320" lon="-8.7653620">
        <ele>11.2</ele>
        <time>2021-05-17T07:34:22Z</time>
      </trkpt>
      <trkpt lat="41.4779390" lon="-8.7653630">
        <ele>11.2</ele>
        <time>2021-05-17T07:34:23Z</time>
      </trkpt>
      <trkpt lat="41.4779620" lon="-8.7653660">
        <ele>11.1</ele>
        <time>2021-05-17T07:34:24Z</time>
      </trkpt>
      <trkpt lat="41.4779750" lon="-8.7653590">
        <ele>11.1</ele>
        <time>2021-05-17T07:34:25Z</time>
      </trkpt>
      <trkpt lat="41.4779910" lon="-8.7653560">
        <ele>11.1</ele>
        <time>2021-05-17T07:34:26Z</time>
      </trkpt>
      <trkpt lat="41.4780030" lon="-8.7653470">
        <ele>11.1</ele>
        <time>2021-05-17T07:34:27Z</time>
      </trkpt>
      <trkpt lat="41.4780120" lon="-8.7653480">
        <ele>11.1</ele>
        <time>2021-05-17T07:34:28Z</time>
      </trkpt>
      <trkpt lat="41.4780260" lon="-8.7653490">
        <ele>11.1</ele>
        <time>2021-05-17T07:34:29Z</time>
      </trkpt>
      <trkpt lat="41.4780410" lon="-8.7653530">
        <ele>11.1</ele>
        <time>2021-05-17T07:34:30Z</time>
      </trkpt>
      <trkpt lat="41.4780530" lon="-8.7653530">
        <ele>11.1</ele>
        <time>2021-05-17T07:34:31Z</time>
      </trkpt>
      <trkpt lat="41.4780640" lon="-8.7653540">
        <ele>11.1</ele>
        <time>2021-05-17T07:34:32Z</time>
      </trkpt>
      <trkpt lat="41.4780930" lon="-8.7653540">
        <ele>11.1</ele>
        <time>2021-05-17T07:34:33Z</time>
      </trkpt>
      <trkpt lat="41.4781020" lon="-8.7653560">
        <ele>11.1</ele>
        <time>2021-05-17T07:34:34Z</time>
      </trkpt>
      <trkpt lat="41.4781130" lon="-8.7653630">
        <ele>11.1</ele>
        <time>2021-05-17T07:34:35Z</time>
      </trkpt>
      <trkpt lat="41.4781280" lon="-8.7653690">
        <ele>11.1</ele>
        <time>2021-05-17T07:34:36Z</time>
      </trkpt>
      <trkpt lat="41.4781490" lon="-8.7653750">
        <ele>11.1</ele>
        <time>2021-05-17T07:34:37Z</time>
      </trkpt>
      <trkpt lat="41.4781630" lon="-8.7653710">
        <ele>11.1</ele>
        <time>2021-05-17T07:34:38Z</time>
      </trkpt>
      <trkpt lat="41.4781880" lon="-8.7653730">
        <ele>11.1</ele>
        <time>2021-05-17T07:34:39Z</time>
      </trkpt>
      <trkpt lat="41.4782000" lon="-8.7653720">
        <ele>11.1</ele>
        <time>2021-05-17T07:34:40Z</time>
      </trkpt>
      <trkpt lat="41.4782180" lon="-8.7653730">
        <ele>11.1</ele>
        <time>2021-05-17T07:34:41Z</time>
      </trkpt>
      <trkpt lat="41.4782300" lon="-8.7653740">
        <ele>11.1</ele>
        <time>2021-05-17T07:34:42Z</time>
      </trkpt>
      <trkpt lat="41.4782500" lon="-8.7653760">
        <ele>11.1</ele>
        <time>2021-05-17T07:34:43Z</time>
      </trkpt>
      <trkpt lat="41.4782580" lon="-8.7653780">
        <ele>11.1</ele>
        <time>2021-05-17T07:34:44Z</time>
      </trkpt>
      <trkpt lat="41.4782660" lon="-8.7653790">
        <ele>11.1</ele>
        <time>2021-05-17T07:34:45Z</time>
      </trkpt>
      <trkpt lat="41.4782730" lon="-8.7653860">
        <ele>11.1</ele>
        <time>2021-05-17T07:34:46Z</time>
      </trkpt>
      <trkpt lat="41.4782820" lon="-8.7653850">
        <ele>11.1</ele>
        <time>2021-05-17T07:34:47Z</time>
      </trkpt>
      <trkpt lat="41.4782960" lon="-8.7653910">
        <ele>11.1</ele>
        <time>2021-05-17T07:34:48Z</time>
      </trkpt>
      <trkpt lat="41.4783180" lon="-8.7653920">
        <ele>11.1</ele>
        <time>2021-05-17T07:34:49Z</time>
      </trkpt>
      <trkpt lat="41.4783310" lon="-8.7653910">
        <ele>11.1</ele>
        <time>2021-05-17T07:34:50Z</time>
      </trkpt>
      <trkpt lat="41.4783610" lon="-8.7653970">
        <ele>11.1</ele>
        <time>2021-05-17T07:34:51Z</time>
      </trkpt>
      <trkpt lat="41.4783690" lon="-8.7654010">
        <ele>11.1</ele>
        <time>2021-05-17T07:34:52Z</time>
      </trkpt>
      <trkpt lat="41.4783970" lon="-8.7654120">
        <ele>11.1</ele>
        <time>2021-05-17T07:34:53Z</time>
      </trkpt>
      <trkpt lat="41.4784050" lon="-8.7654140">
        <ele>11.1</ele>
        <time>2021-05-17T07:34:54Z</time>
      </trkpt>
      <trkpt lat="41.4784200" lon="-8.7654130">
        <ele>11.1</ele>
        <time>2021-05-17T07:34:55Z</time>
      </trkpt>
      <trkpt lat="41.4784380" lon="-8.7654250">
        <ele>11.1</ele>
        <time>2021-05-17T07:34:56Z</time>
      </trkpt>
      <trkpt lat="41.4784490" lon="-8.7654250">
        <ele>11.1</ele>
        <time>2021-05-17T07:34:57Z</time>
      </trkpt>
      <trkpt lat="41.4784490" lon="-8.7654260">
        <ele>11.1</ele>
        <time>2021-05-17T07:34:58Z</time>
      </trkpt>
      <trkpt lat="41.4784720" lon="-8.7654300">
        <ele>11.0</ele>
        <time>2021-05-17T07:34:59Z</time>
      </trkpt>
      <trkpt lat="41.4785020" lon="-8.7654270">
        <ele>11.0</ele>
        <time>2021-05-17T07:35:00Z</time>
      </trkpt>
      <trkpt lat="41.4785130" lon="-8.7654290">
        <ele>11.0</ele>
        <time>2021-05-17T07:35:01Z</time>
      </trkpt>
      <trkpt lat="41.4785380" lon="-8.7654220">
        <ele>11.0</ele>
        <time>2021-05-17T07:35:02Z</time>
      </trkpt>
      <trkpt lat="41.4785480" lon="-8.7654180">
        <ele>10.9</ele>
        <time>2021-05-17T07:35:03Z</time>
      </trkpt>
      <trkpt lat="41.4785650" lon="-8.7654120">
        <ele>10.9</ele>
        <time>2021-05-17T07:35:04Z</time>
      </trkpt>
      <trkpt lat="41.4785810" lon="-8.7654090">
        <ele>10.9</ele>
        <time>2021-05-17T07:35:05Z</time>
      </trkpt>
      <trkpt lat="41.4785880" lon="-8.7654060">
        <ele>10.9</ele>
        <time>2021-05-17T07:35:06Z</time>
      </trkpt>
      <trkpt lat="41.4785960" lon="-8.7654040">
        <ele>10.9</ele>
        <time>2021-05-17T07:35:07Z</time>
      </trkpt>
      <trkpt lat="41.4786100" lon="-8.7654020">
        <ele>10.9</ele>
        <time>2021-05-17T07:35:08Z</time>
      </trkpt>
      <trkpt lat="41.4786320" lon="-8.7654150">
        <ele>10.9</ele>
        <time>2021-05-17T07:35:09Z</time>
      </trkpt>
      <trkpt lat="41.4786410" lon="-8.7654220">
        <ele>10.8</ele>
        <time>2021-05-17T07:35:10Z</time>
      </trkpt>
      <trkpt lat="41.4786500" lon="-8.7654300">
        <ele>10.8</ele>
        <time>2021-05-17T07:35:11Z</time>
      </trkpt>
      <trkpt lat="41.4786760" lon="-8.7654440">
        <ele>10.8</ele>
        <time>2021-05-17T07:35:12Z</time>
      </trkpt>
      <trkpt lat="41.4786840" lon="-8.7654530">
        <ele>10.8</ele>
        <time>2021-05-17T07:35:13Z</time>
      </trkpt>
      <trkpt lat="41.4786910" lon="-8.7654680">
        <ele>10.8</ele>
        <time>2021-05-17T07:35:14Z</time>
      </trkpt>
      <trkpt lat="41.4787040" lon="-8.7654810">
        <ele>10.8</ele>
        <time>2021-05-17T07:35:15Z</time>
      </trkpt>
      <trkpt lat="41.4787190" lon="-8.7654920">
        <ele>10.8</ele>
        <time>2021-05-17T07:35:16Z</time>
      </trkpt>
      <trkpt lat="41.4787350" lon="-8.7655020">
        <ele>10.8</ele>
        <time>2021-05-17T07:35:17Z</time>
      </trkpt>
      <trkpt lat="41.4787500" lon="-8.7655110">
        <ele>10.8</ele>
        <time>2021-05-17T07:35:18Z</time>
      </trkpt>
      <trkpt lat="41.4787600" lon="-8.7655200">
        <ele>10.8</ele>
        <time>2021-05-17T07:35:19Z</time>
      </trkpt>
      <trkpt lat="41.4787760" lon="-8.7655240">
        <ele>10.8</ele>
        <time>2021-05-17T07:35:20Z</time>
      </trkpt>
      <trkpt lat="41.4787900" lon="-8.7655360">
        <ele>10.8</ele>
        <time>2021-05-17T07:35:21Z</time>
      </trkpt>
      <trkpt lat="41.4788060" lon="-8.7655410">
        <ele>10.8</ele>
        <time>2021-05-17T07:35:22Z</time>
      </trkpt>
      <trkpt lat="41.4788240" lon="-8.7655510">
        <ele>10.8</ele>
        <time>2021-05-17T07:35:23Z</time>
      </trkpt>
      <trkpt lat="41.4788460" lon="-8.7655540">
        <ele>10.8</ele>
        <time>2021-05-17T07:35:24Z</time>
      </trkpt>
      <trkpt lat="41.4788550" lon="-8.7655550">
        <ele>10.8</ele>
        <time>2021-05-17T07:35:25Z</time>
      </trkpt>
      <trkpt lat="41.4788630" lon="-8.7655550">
        <ele>10.8</ele>
        <time>2021-05-17T07:35:26Z</time>
      </trkpt>
      <trkpt lat="41.4788780" lon="-8.7655400">
        <ele>10.8</ele>
        <time>2021-05-17T07:35:27Z</time>
      </trkpt>
      <trkpt lat="41.4788880" lon="-8.7655360">
        <ele>10.8</ele>
        <time>2021-05-17T07:35:28Z</time>
      </trkpt>
      <trkpt lat="41.4788970" lon="-8.7655330">
        <ele>10.8</ele>
        <time>2021-05-17T07:35:29Z</time>
      </trkpt>
      <trkpt lat="41.4789030" lon="-8.7655260">
        <ele>10.8</ele>
        <time>2021-05-17T07:35:30Z</time>
      </trkpt>
      <trkpt lat="41.4789130" lon="-8.7655160">
        <ele>10.7</ele>
        <time>2021-05-17T07:35:31Z</time>
      </trkpt>
      <trkpt lat="41.4789290" lon="-8.7655130">
        <ele>10.7</ele>
        <time>2021-05-17T07:35:32Z</time>
      </trkpt>
      <trkpt lat="41.4789430" lon="-8.7655050">
        <ele>10.7</ele>
        <time>2021-05-17T07:35:33Z</time>
      </trkpt>
      <trkpt lat="41.4789550" lon="-8.7655000">
        <ele>10.7</ele>
        <time>2021-05-17T07:35:34Z</time>
      </trkpt>
      <trkpt lat="41.4789720" lon="-8.7654840">
        <ele>10.7</ele>
        <time>2021-05-17T07:35:35Z</time>
      </trkpt>
      <trkpt lat="41.4789790" lon="-8.7654790">
        <ele>10.7</ele>
        <time>2021-05-17T07:35:36Z</time>
      </trkpt>
      <trkpt lat="41.4789850" lon="-8.7654730">
        <ele>10.7</ele>
        <time>2021-05-17T07:35:37Z</time>
      </trkpt>
      <trkpt lat="41.4789900" lon="-8.7654550">
        <ele>10.6</ele>
        <time>2021-05-17T07:35:38Z</time>
      </trkpt>
      <trkpt lat="41.4790000" lon="-8.7654480">
        <ele>10.6</ele>
        <time>2021-05-17T07:35:39Z</time>
      </trkpt>
      <trkpt lat="41.4790120" lon="-8.7654420">
        <ele>10.6</ele>
        <time>2021-05-17T07:35:40Z</time>
      </trkpt>
      <trkpt lat="41.4790330" lon="-8.7654270">
        <ele>10.6</ele>
        <time>2021-05-17T07:35:41Z</time>
      </trkpt>
      <trkpt lat="41.4790400" lon="-8.7654200">
        <ele>10.6</ele>
        <time>2021-05-17T07:35:42Z</time>
      </trkpt>
      <trkpt lat="41.4790480" lon="-8.7654120">
        <ele>10.6</ele>
        <time>2021-05-17T07:35:43Z</time>
      </trkpt>
      <trkpt lat="41.4790600" lon="-8.7654050">
        <ele>10.6</ele>
        <time>2021-05-17T07:35:44Z</time>
      </trkpt>
      <trkpt lat="41.4790720" lon="-8.7654020">
        <ele>10.5</ele>
        <time>2021-05-17T07:35:45Z</time>
      </trkpt>
      <trkpt lat="41.4790740" lon="-8.7654010">
        <ele>10.5</ele>
        <time>2021-05-17T07:35:46Z</time>
      </trkpt>
      <trkpt lat="41.4791080" lon="-8.7653970">
        <ele>10.5</ele>
        <time>2021-05-17T07:35:47Z</time>
      </trkpt>
      <trkpt lat="41.4791170" lon="-8.7653920">
        <ele>10.5</ele>
        <time>2021-05-17T07:35:48Z</time>
      </trkpt>
      <trkpt lat="41.4791300" lon="-8.7653810">
        <ele>10.5</ele>
        <time>2021-05-17T07:35:49Z</time>
      </trkpt>
      <trkpt lat="41.4791410" lon="-8.7653670">
        <ele>10.5</ele>
        <time>2021-05-17T07:35:50Z</time>
      </trkpt>
      <trkpt lat="41.4791540" lon="-8.7653550">
        <ele>10.5</ele>
        <time>2021-05-17T07:35:51Z</time>
      </trkpt>
      <trkpt lat="41.4791680" lon="-8.7653430">
        <ele>10.5</ele>
        <time>2021-05-17T07:35:52Z</time>
      </trkpt>
      <trkpt lat="41.4791750" lon="-8.7653350">
        <ele>10.5</ele>
        <time>2021-05-17T07:35:53Z</time>
      </trkpt>
      <trkpt lat="41.4791940" lon="-8.7653320">
        <ele>10.4</ele>
        <time>2021-05-17T07:35:54Z</time>
      </trkpt>
      <trkpt lat="41.4792120" lon="-8.7653210">
        <ele>10.4</ele>
        <time>2021-05-17T07:35:55Z</time>
      </trkpt>
      <trkpt lat="41.4792190" lon="-8.7653140">
        <ele>10.4</ele>
        <time>2021-05-17T07:35:56Z</time>
      </trkpt>
      <trkpt lat="41.4792270" lon="-8.7653080">
        <ele>10.4</ele>
        <time>2021-05-17T07:35:57Z</time>
      </trkpt>
      <trkpt lat="41.4792350" lon="-8.7653030">
        <ele>10.4</ele>
        <time>2021-05-17T07:35:58Z</time>
      </trkpt>
      <trkpt lat="41.4792490" lon="-8.7652980">
        <ele>10.4</ele>
        <time>2021-05-17T07:35:59Z</time>
      </trkpt>
      <trkpt lat="41.4792610" lon="-8.7652940">
        <ele>10.4</ele>
        <time>2021-05-17T07:36:00Z</time>
      </trkpt>
      <trkpt lat="41.4792740" lon="-8.7652820">
        <ele>10.4</ele>
        <time>2021-05-17T07:36:01Z</time>
      </trkpt>
      <trkpt lat="41.4792870" lon="-8.7652800">
        <ele>10.4</ele>
        <time>2021-05-17T07:36:02Z</time>
      </trkpt>
      <trkpt lat="41.4792950" lon="-8.7652740">
        <ele>10.4</ele>
        <time>2021-05-17T07:36:03Z</time>
      </trkpt>
      <trkpt lat="41.4793100" lon="-8.7652710">
        <ele>10.4</ele>
        <time>2021-05-17T07:36:04Z</time>
      </trkpt>
      <trkpt lat="41.4793210" lon="-8.7652640">
        <ele>10.4</ele>
        <time>2021-05-17T07:36:05Z</time>
      </trkpt>
      <trkpt lat="41.4793310" lon="-8.7652550">
        <ele>10.4</ele>
        <time>2021-05-17T07:36:06Z</time>
      </trkpt>
      <trkpt lat="41.4793470" lon="-8.7652470">
        <ele>10.4</ele>
        <time>2021-05-17T07:36:07Z</time>
      </trkpt>
      <trkpt lat="41.4793620" lon="-8.7652430">
        <ele>10.4</ele>
        <time>2021-05-17T07:36:08Z</time>
      </trkpt>
      <trkpt lat="41.4793770" lon="-8.7652350">
        <ele>10.4</ele>
        <time>2021-05-17T07:36:09Z</time>
      </trkpt>
      <trkpt lat="41.4793950" lon="-8.7652310">
        <ele>10.4</ele>
        <time>2021-05-17T07:36:10Z</time>
      </trkpt>
      <trkpt lat="41.4794070" lon="-8.7652340">
        <ele>10.4</ele>
        <time>2021-05-17T07:36:11Z</time>
      </trkpt>
      <trkpt lat="41.4794140" lon="-8.7652320">
        <ele>10.4</ele>
        <time>2021-05-17T07:36:12Z</time>
      </trkpt>
      <trkpt lat="41.4794250" lon="-8.7652230">
        <ele>10.4</ele>
        <time>2021-05-17T07:36:13Z</time>
      </trkpt>
      <trkpt lat="41.4794300" lon="-8.7652270">
        <ele>10.4</ele>
        <time>2021-05-17T07:36:14Z</time>
      </trkpt>
      <trkpt lat="41.4794380" lon="-8.7652220">
        <ele>10.4</ele>
        <time>2021-05-17T07:36:15Z</time>
      </trkpt>
      <trkpt lat="41.4794540" lon="-8.7652180">
        <ele>10.4</ele>
        <time>2021-05-17T07:36:16Z</time>
      </trkpt>
      <trkpt lat="41.4794700" lon="-8.7652120">
        <ele>10.4</ele>
        <time>2021-05-17T07:36:17Z</time>
      </trkpt>
      <trkpt lat="41.4794870" lon="-8.7652110">
        <ele>10.4</ele>
        <time>2021-05-17T07:36:18Z</time>
      </trkpt>
      <trkpt lat="41.4794980" lon="-8.7652050">
        <ele>10.4</ele>
        <time>2021-05-17T07:36:19Z</time>
      </trkpt>
      <trkpt lat="41.4795090" lon="-8.7652000">
        <ele>10.4</ele>
        <time>2021-05-17T07:36:20Z</time>
      </trkpt>
      <trkpt lat="41.4795280" lon="-8.7652010">
        <ele>10.4</ele>
        <time>2021-05-17T07:36:21Z</time>
      </trkpt>
      <trkpt lat="41.4795470" lon="-8.7651900">
        <ele>10.4</ele>
        <time>2021-05-17T07:36:22Z</time>
      </trkpt>
      <trkpt lat="41.4795560" lon="-8.7651890">
        <ele>10.5</ele>
        <time>2021-05-17T07:36:23Z</time>
      </trkpt>
      <trkpt lat="41.4795650" lon="-8.7651880">
        <ele>10.5</ele>
        <time>2021-05-17T07:36:24Z</time>
      </trkpt>
      <trkpt lat="41.4795800" lon="-8.7651820">
        <ele>10.5</ele>
        <time>2021-05-17T07:36:25Z</time>
      </trkpt>
      <trkpt lat="41.4795970" lon="-8.7651740">
        <ele>10.5</ele>
        <time>2021-05-17T07:36:26Z</time>
      </trkpt>
      <trkpt lat="41.4796130" lon="-8.7651650">
        <ele>10.5</ele>
        <time>2021-05-17T07:36:27Z</time>
      </trkpt>
      <trkpt lat="41.4796330" lon="-8.7651650">
        <ele>10.5</ele>
        <time>2021-05-17T07:36:28Z</time>
      </trkpt>
      <trkpt lat="41.4796480" lon="-8.7651540">
        <ele>10.5</ele>
        <time>2021-05-17T07:36:29Z</time>
      </trkpt>
      <trkpt lat="41.4796660" lon="-8.7651520">
        <ele>10.5</ele>
        <time>2021-05-17T07:36:30Z</time>
      </trkpt>
      <trkpt lat="41.4796810" lon="-8.7651480">
        <ele>10.5</ele>
        <time>2021-05-17T07:36:31Z</time>
      </trkpt>
      <trkpt lat="41.4796960" lon="-8.7651400">
        <ele>10.5</ele>
        <time>2021-05-17T07:36:32Z</time>
      </trkpt>
      <trkpt lat="41.4797110" lon="-8.7651370">
        <ele>10.5</ele>
        <time>2021-05-17T07:36:33Z</time>
      </trkpt>
      <trkpt lat="41.4797260" lon="-8.7651320">
        <ele>10.6</ele>
        <time>2021-05-17T07:36:34Z</time>
      </trkpt>
      <trkpt lat="41.4797410" lon="-8.7651290">
        <ele>10.6</ele>
        <time>2021-05-17T07:36:35Z</time>
      </trkpt>
      <trkpt lat="41.4797590" lon="-8.7651310">
        <ele>10.6</ele>
        <time>2021-05-17T07:36:36Z</time>
      </trkpt>
      <trkpt lat="41.4797760" lon="-8.7651280">
        <ele>10.6</ele>
        <time>2021-05-17T07:36:37Z</time>
      </trkpt>
      <trkpt lat="41.4797920" lon="-8.7651280">
        <ele>10.6</ele>
        <time>2021-05-17T07:36:38Z</time>
      </trkpt>
      <trkpt lat="41.4798040" lon="-8.7651210">
        <ele>10.6</ele>
        <time>2021-05-17T07:36:39Z</time>
      </trkpt>
      <trkpt lat="41.4798220" lon="-8.7651220">
        <ele>10.5</ele>
        <time>2021-05-17T07:36:40Z</time>
      </trkpt>
      <trkpt lat="41.4798370" lon="-8.7651200">
        <ele>10.5</ele>
        <time>2021-05-17T07:36:41Z</time>
      </trkpt>
      <trkpt lat="41.4798490" lon="-8.7651110">
        <ele>10.5</ele>
        <time>2021-05-17T07:36:42Z</time>
      </trkpt>
      <trkpt lat="41.4798640" lon="-8.7651050">
        <ele>10.5</ele>
        <time>2021-05-17T07:36:43Z</time>
      </trkpt>
      <trkpt lat="41.4798780" lon="-8.7650980">
        <ele>10.5</ele>
        <time>2021-05-17T07:36:44Z</time>
      </trkpt>
      <trkpt lat="41.4798940" lon="-8.7650890">
        <ele>10.4</ele>
        <time>2021-05-17T07:36:45Z</time>
      </trkpt>
      <trkpt lat="41.4799050" lon="-8.7650780">
        <ele>10.4</ele>
        <time>2021-05-17T07:36:46Z</time>
      </trkpt>
      <trkpt lat="41.4799200" lon="-8.7650670">
        <ele>10.4</ele>
        <time>2021-05-17T07:36:47Z</time>
      </trkpt>
      <trkpt lat="41.4799340" lon="-8.7650590">
        <ele>10.4</ele>
        <time>2021-05-17T07:36:48Z</time>
      </trkpt>
      <trkpt lat="41.4799460" lon="-8.7650390">
        <ele>10.3</ele>
        <time>2021-05-17T07:36:49Z</time>
      </trkpt>
      <trkpt lat="41.4799520" lon="-8.7650310">
        <ele>10.3</ele>
        <time>2021-05-17T07:36:50Z</time>
      </trkpt>
      <trkpt lat="41.4799590" lon="-8.7650240">
        <ele>10.3</ele>
        <time>2021-05-17T07:36:51Z</time>
      </trkpt>
      <trkpt lat="41.4799690" lon="-8.7650120">
        <ele>10.3</ele>
        <time>2021-05-17T07:36:52Z</time>
      </trkpt>
      <trkpt lat="41.4799730" lon="-8.7649980">
        <ele>10.3</ele>
        <time>2021-05-17T07:36:53Z</time>
      </trkpt>
      <trkpt lat="41.4799860" lon="-8.7649940">
        <ele>10.3</ele>
        <time>2021-05-17T07:36:54Z</time>
      </trkpt>
      <trkpt lat="41.4799980" lon="-8.7649830">
        <ele>10.2</ele>
        <time>2021-05-17T07:36:55Z</time>
      </trkpt>
      <trkpt lat="41.4800160" lon="-8.7649720">
        <ele>10.2</ele>
        <time>2021-05-17T07:36:56Z</time>
      </trkpt>
      <trkpt lat="41.4800270" lon="-8.7649600">
        <ele>10.2</ele>
        <time>2021-05-17T07:36:57Z</time>
      </trkpt>
      <trkpt lat="41.4800400" lon="-8.7649450">
        <ele>10.1</ele>
        <time>2021-05-17T07:36:58Z</time>
      </trkpt>
      <trkpt lat="41.4800520" lon="-8.7649320">
        <ele>10.1</ele>
        <time>2021-05-17T07:36:59Z</time>
      </trkpt>
      <trkpt lat="41.4800640" lon="-8.7649220">
        <ele>10.1</ele>
        <time>2021-05-17T07:37:00Z</time>
      </trkpt>
      <trkpt lat="41.4800750" lon="-8.7649050">
        <ele>10.1</ele>
        <time>2021-05-17T07:37:01Z</time>
      </trkpt>
      <trkpt lat="41.4800850" lon="-8.7648890">
        <ele>10.0</ele>
        <time>2021-05-17T07:37:02Z</time>
      </trkpt>
      <trkpt lat="41.4800920" lon="-8.7648710">
        <ele>10.0</ele>
        <time>2021-05-17T07:37:03Z</time>
      </trkpt>
      <trkpt lat="41.4801040" lon="-8.7648620">
        <ele>10.0</ele>
        <time>2021-05-17T07:37:04Z</time>
      </trkpt>
      <trkpt lat="41.4801140" lon="-8.7648490">
        <ele>10.0</ele>
        <time>2021-05-17T07:37:05Z</time>
      </trkpt>
      <trkpt lat="41.4801250" lon="-8.7648400">
        <ele>9.9</ele>
        <time>2021-05-17T07:37:06Z</time>
      </trkpt>
      <trkpt lat="41.4801320" lon="-8.7648190">
        <ele>9.9</ele>
        <time>2021-05-17T07:37:07Z</time>
      </trkpt>
      <trkpt lat="41.4801470" lon="-8.7648060">
        <ele>9.9</ele>
        <time>2021-05-17T07:37:08Z</time>
      </trkpt>
      <trkpt lat="41.4801580" lon="-8.7647900">
        <ele>9.9</ele>
        <time>2021-05-17T07:37:09Z</time>
      </trkpt>
      <trkpt lat="41.4801690" lon="-8.7647780">
        <ele>9.8</ele>
        <time>2021-05-17T07:37:10Z</time>
      </trkpt>
      <trkpt lat="41.4801790" lon="-8.7647610">
        <ele>9.8</ele>
        <time>2021-05-17T07:37:11Z</time>
      </trkpt>
      <trkpt lat="41.4801900" lon="-8.7647480">
        <ele>9.8</ele>
        <time>2021-05-17T07:37:12Z</time>
      </trkpt>
      <trkpt lat="41.4802020" lon="-8.7647390">
        <ele>9.8</ele>
        <time>2021-05-17T07:37:13Z</time>
      </trkpt>
      <trkpt lat="41.4802150" lon="-8.7647310">
        <ele>9.7</ele>
        <time>2021-05-17T07:37:14Z</time>
      </trkpt>
      <trkpt lat="41.4802250" lon="-8.7647150">
        <ele>9.7</ele>
        <time>2021-05-17T07:37:15Z</time>
      </trkpt>
      <trkpt lat="41.4802420" lon="-8.7647090">
        <ele>9.7</ele>
        <time>2021-05-17T07:37:16Z</time>
      </trkpt>
      <trkpt lat="41.4802510" lon="-8.7646900">
        <ele>9.7</ele>
        <time>2021-05-17T07:37:17Z</time>
      </trkpt>
      <trkpt lat="41.4802610" lon="-8.7646760">
        <ele>9.6</ele>
        <time>2021-05-17T07:37:18Z</time>
      </trkpt>
      <trkpt lat="41.4802690" lon="-8.7646580">
        <ele>9.6</ele>
        <time>2021-05-17T07:37:19Z</time>
      </trkpt>
      <trkpt lat="41.4802840" lon="-8.7646490">
        <ele>9.6</ele>
        <time>2021-05-17T07:37:20Z</time>
      </trkpt>
      <trkpt lat="41.4803030" lon="-8.7646340">
        <ele>9.6</ele>
        <time>2021-05-17T07:37:21Z</time>
      </trkpt>
      <trkpt lat="41.4803110" lon="-8.7646270">
        <ele>9.6</ele>
        <time>2021-05-17T07:37:22Z</time>
      </trkpt>
      <trkpt lat="41.4803190" lon="-8.7646210">
        <ele>9.5</ele>
        <time>2021-05-17T07:37:23Z</time>
      </trkpt>
      <trkpt lat="41.4803350" lon="-8.7646010">
        <ele>9.5</ele>
        <time>2021-05-17T07:37:24Z</time>
      </trkpt>
      <trkpt lat="41.4803420" lon="-8.7645920">
        <ele>9.5</ele>
        <time>2021-05-17T07:37:25Z</time>
      </trkpt>
      <trkpt lat="41.4803490" lon="-8.7645830">
        <ele>9.5</ele>
        <time>2021-05-17T07:37:26Z</time>
      </trkpt>
      <trkpt lat="41.4803560" lon="-8.7645670">
        <ele>9.5</ele>
        <time>2021-05-17T07:37:27Z</time>
      </trkpt>
      <trkpt lat="41.4803690" lon="-8.7645600">
        <ele>9.4</ele>
        <time>2021-05-17T07:37:28Z</time>
      </trkpt>
      <trkpt lat="41.4803760" lon="-8.7645520">
        <ele>9.4</ele>
        <time>2021-05-17T07:37:29Z</time>
      </trkpt>
      <trkpt lat="41.4803840" lon="-8.7645390">
        <ele>9.4</ele>
        <time>2021-05-17T07:37:30Z</time>
      </trkpt>
      <trkpt lat="41.4803990" lon="-8.7645400">
        <ele>9.4</ele>
        <time>2021-05-17T07:37:31Z</time>
      </trkpt>
      <trkpt lat="41.4804150" lon="-8.7645230">
        <ele>9.4</ele>
        <time>2021-05-17T07:37:32Z</time>
      </trkpt>
      <trkpt lat="41.4804220" lon="-8.7645170">
        <ele>9.4</ele>
        <time>2021-05-17T07:37:33Z</time>
      </trkpt>
      <trkpt lat="41.4804300" lon="-8.7645110">
        <ele>9.4</ele>
        <time>2021-05-17T07:37:34Z</time>
      </trkpt>
      <trkpt lat="41.4804390" lon="-8.7645000">
        <ele>9.3</ele>
        <time>2021-05-17T07:37:35Z</time>
      </trkpt>
      <trkpt lat="41.4804470" lon="-8.7644910">
        <ele>9.3</ele>
        <time>2021-05-17T07:37:36Z</time>
      </trkpt>
      <trkpt lat="41.4804550" lon="-8.7644820">
        <ele>9.3</ele>
        <time>2021-05-17T07:37:37Z</time>
      </trkpt>
      <trkpt lat="41.4804700" lon="-8.7644710">
        <ele>9.3</ele>
        <time>2021-05-17T07:37:38Z</time>
      </trkpt>
      <trkpt lat="41.4804810" lon="-8.7644630">
        <ele>9.3</ele>
        <time>2021-05-17T07:37:39Z</time>
      </trkpt>
      <trkpt lat="41.4804930" lon="-8.7644520">
        <ele>9.3</ele>
        <time>2021-05-17T07:37:40Z</time>
      </trkpt>
      <trkpt lat="41.4805080" lon="-8.7644430">
        <ele>9.3</ele>
        <time>2021-05-17T07:37:41Z</time>
      </trkpt>
      <trkpt lat="41.4805210" lon="-8.7644290">
        <ele>9.3</ele>
        <time>2021-05-17T07:37:42Z</time>
      </trkpt>
      <trkpt lat="41.4805410" lon="-8.7644240">
        <ele>9.3</ele>
        <time>2021-05-17T07:37:43Z</time>
      </trkpt>
      <trkpt lat="41.4805550" lon="-8.7644090">
        <ele>9.3</ele>
        <time>2021-05-17T07:37:44Z</time>
      </trkpt>
      <trkpt lat="41.4805660" lon="-8.7643960">
        <ele>9.3</ele>
        <time>2021-05-17T07:37:45Z</time>
      </trkpt>
      <trkpt lat="41.4805780" lon="-8.7643810">
        <ele>9.2</ele>
        <time>2021-05-17T07:37:46Z</time>
      </trkpt>
      <trkpt lat="41.4805910" lon="-8.7643700">
        <ele>9.2</ele>
        <time>2021-05-17T07:37:47Z</time>
      </trkpt>
      <trkpt lat="41.4806010" lon="-8.7643530">
        <ele>9.2</ele>
        <time>2021-05-17T07:37:48Z</time>
      </trkpt>
      <trkpt lat="41.4806120" lon="-8.7643390">
        <ele>9.2</ele>
        <time>2021-05-17T07:37:49Z</time>
      </trkpt>
      <trkpt lat="41.4806260" lon="-8.7643260">
        <ele>9.2</ele>
        <time>2021-05-17T07:37:50Z</time>
      </trkpt>
      <trkpt lat="41.4806350" lon="-8.7643080">
        <ele>9.2</ele>
        <time>2021-05-17T07:37:51Z</time>
      </trkpt>
      <trkpt lat="41.4806470" lon="-8.7642970">
        <ele>9.2</ele>
        <time>2021-05-17T07:37:52Z</time>
      </trkpt>
      <trkpt lat="41.4806610" lon="-8.7642910">
        <ele>9.2</ele>
        <time>2021-05-17T07:37:53Z</time>
      </trkpt>
      <trkpt lat="41.4806750" lon="-8.7642800">
        <ele>9.1</ele>
        <time>2021-05-17T07:37:54Z</time>
      </trkpt>
      <trkpt lat="41.4806850" lon="-8.7642720">
        <ele>9.1</ele>
        <time>2021-05-17T07:37:55Z</time>
      </trkpt>
      <trkpt lat="41.4806900" lon="-8.7642640">
        <ele>9.1</ele>
        <time>2021-05-17T07:37:56Z</time>
      </trkpt>
      <trkpt lat="41.4806930" lon="-8.7642500">
        <ele>9.1</ele>
        <time>2021-05-17T07:37:57Z</time>
      </trkpt>
      <trkpt lat="41.4807000" lon="-8.7642400">
        <ele>9.1</ele>
        <time>2021-05-17T07:37:58Z</time>
      </trkpt>
      <trkpt lat="41.4807110" lon="-8.7642330">
        <ele>9.1</ele>
        <time>2021-05-17T07:37:59Z</time>
      </trkpt>
      <trkpt lat="41.4807230" lon="-8.7642270">
        <ele>9.1</ele>
        <time>2021-05-17T07:38:00Z</time>
      </trkpt>
      <trkpt lat="41.4807270" lon="-8.7642200">
        <ele>9.1</ele>
        <time>2021-05-17T07:38:01Z</time>
      </trkpt>
      <trkpt lat="41.4807370" lon="-8.7642070">
        <ele>9.1</ele>
        <time>2021-05-17T07:38:02Z</time>
      </trkpt>
      <trkpt lat="41.4807440" lon="-8.7642010">
        <ele>9.1</ele>
        <time>2021-05-17T07:38:03Z</time>
      </trkpt>
      <trkpt lat="41.4807570" lon="-8.7641990">
        <ele>9.1</ele>
        <time>2021-05-17T07:38:04Z</time>
      </trkpt>
      <trkpt lat="41.4807690" lon="-8.7641900">
        <ele>9.0</ele>
        <time>2021-05-17T07:38:05Z</time>
      </trkpt>
      <trkpt lat="41.4807760" lon="-8.7641810">
        <ele>9.0</ele>
        <time>2021-05-17T07:38:06Z</time>
      </trkpt>
      <trkpt lat="41.4807870" lon="-8.7641700">
        <ele>9.0</ele>
        <time>2021-05-17T07:38:07Z</time>
      </trkpt>
      <trkpt lat="41.4808010" lon="-8.7641640">
        <ele>9.0</ele>
        <time>2021-05-17T07:38:08Z</time>
      </trkpt>
      <trkpt lat="41.4808060" lon="-8.7641640">
        <ele>9.0</ele>
        <time>2021-05-17T07:38:09Z</time>
      </trkpt>
      <trkpt lat="41.4808210" lon="-8.7641590">
        <ele>9.0</ele>
        <time>2021-05-17T07:38:10Z</time>
      </trkpt>
      <trkpt lat="41.4808340" lon="-8.7641620">
        <ele>9.0</ele>
        <time>2021-05-17T07:38:11Z</time>
      </trkpt>
      <trkpt lat="41.4808470" lon="-8.7641480">
        <ele>9.0</ele>
        <time>2021-05-17T07:38:12Z</time>
      </trkpt>
      <trkpt lat="41.4808530" lon="-8.7641370">
        <ele>9.0</ele>
        <time>2021-05-17T07:38:13Z</time>
      </trkpt>
      <trkpt lat="41.4808690" lon="-8.7641400">
        <ele>9.0</ele>
        <time>2021-05-17T07:38:14Z</time>
      </trkpt>
      <trkpt lat="41.4808800" lon="-8.7641440">
        <ele>8.9</ele>
        <time>2021-05-17T07:38:15Z</time>
      </trkpt>
      <trkpt lat="41.4808930" lon="-8.7641460">
        <ele>8.9</ele>
        <time>2021-05-17T07:38:16Z</time>
      </trkpt>
      <trkpt lat="41.4808930" lon="-8.7641490">
        <ele>8.9</ele>
        <time>2021-05-17T07:38:17Z</time>
      </trkpt>
      <trkpt lat="41.4809020" lon="-8.7641440">
        <ele>8.9</ele>
        <time>2021-05-17T07:38:18Z</time>
      </trkpt>
      <trkpt lat="41.4809100" lon="-8.7641430">
        <ele>8.9</ele>
        <time>2021-05-17T07:38:19Z</time>
      </trkpt>
      <trkpt lat="41.4809170" lon="-8.7641310">
        <ele>8.9</ele>
        <time>2021-05-17T07:38:20Z</time>
      </trkpt>
      <trkpt lat="41.4809230" lon="-8.7641340">
        <ele>8.9</ele>
        <time>2021-05-17T07:38:21Z</time>
      </trkpt>
      <trkpt lat="41.4809420" lon="-8.7641330">
        <ele>8.9</ele>
        <time>2021-05-17T07:38:22Z</time>
      </trkpt>
      <trkpt lat="41.4809610" lon="-8.7641390">
        <ele>8.9</ele>
        <time>2021-05-17T07:38:23Z</time>
      </trkpt>
      <trkpt lat="41.4809710" lon="-8.7641410">
        <ele>8.9</ele>
        <time>2021-05-17T07:38:24Z</time>
      </trkpt>
      <trkpt lat="41.4809810" lon="-8.7641420">
        <ele>8.9</ele>
        <time>2021-05-17T07:38:25Z</time>
      </trkpt>
      <trkpt lat="41.4809930" lon="-8.7641400">
        <ele>8.9</ele>
        <time>2021-05-17T07:38:26Z</time>
      </trkpt>
      <trkpt lat="41.4810030" lon="-8.7641370">
        <ele>8.9</ele>
        <time>2021-05-17T07:38:27Z</time>
      </trkpt>
      <trkpt lat="41.4810130" lon="-8.7641410">
        <ele>8.9</ele>
        <time>2021-05-17T07:38:28Z</time>
      </trkpt>
      <trkpt lat="41.4810260" lon="-8.7641400">
        <ele>8.9</ele>
        <time>2021-05-17T07:38:29Z</time>
      </trkpt>
      <trkpt lat="41.4810420" lon="-8.7641450">
        <ele>8.9</ele>
        <time>2021-05-17T07:38:30Z</time>
      </trkpt>
      <trkpt lat="41.4810600" lon="-8.7641450">
        <ele>8.9</ele>
        <time>2021-05-17T07:38:31Z</time>
      </trkpt>
      <trkpt lat="41.4810690" lon="-8.7641460">
        <ele>8.9</ele>
        <time>2021-05-17T07:38:32Z</time>
      </trkpt>
      <trkpt lat="41.4810770" lon="-8.7641460">
        <ele>8.9</ele>
        <time>2021-05-17T07:38:33Z</time>
      </trkpt>
      <trkpt lat="41.4810860" lon="-8.7641470">
        <ele>8.9</ele>
        <time>2021-05-17T07:38:34Z</time>
      </trkpt>
      <trkpt lat="41.4811000" lon="-8.7641540">
        <ele>8.9</ele>
        <time>2021-05-17T07:38:35Z</time>
      </trkpt>
      <trkpt lat="41.4811030" lon="-8.7641550">
        <ele>8.9</ele>
        <time>2021-05-17T07:38:36Z</time>
      </trkpt>
      <trkpt lat="41.4811070" lon="-8.7641550">
        <ele>8.9</ele>
        <time>2021-05-17T07:38:37Z</time>
      </trkpt>
      <trkpt lat="41.4811140" lon="-8.7641590">
        <ele>8.9</ele>
        <time>2021-05-17T07:38:38Z</time>
      </trkpt>
      <trkpt lat="41.4811290" lon="-8.7641660">
        <ele>8.9</ele>
        <time>2021-05-17T07:38:39Z</time>
      </trkpt>
      <trkpt lat="41.4811410" lon="-8.7641730">
        <ele>8.9</ele>
        <time>2021-05-17T07:38:40Z</time>
      </trkpt>
      <trkpt lat="41.4811530" lon="-8.7641810">
        <ele>8.9</ele>
        <time>2021-05-17T07:38:41Z</time>
      </trkpt>
      <trkpt lat="41.4811750" lon="-8.7641860">
        <ele>8.8</ele>
        <time>2021-05-17T07:38:42Z</time>
      </trkpt>
      <trkpt lat="41.4812100" lon="-8.7641850">
        <ele>8.8</ele>
        <time>2021-05-17T07:38:43Z</time>
      </trkpt>
      <trkpt lat="41.4812190" lon="-8.7641860">
        <ele>8.8</ele>
        <time>2021-05-17T07:38:44Z</time>
      </trkpt>
      <trkpt lat="41.4812380" lon="-8.7641890">
        <ele>8.8</ele>
        <time>2021-05-17T07:38:45Z</time>
      </trkpt>
      <trkpt lat="41.4812510" lon="-8.7641880">
        <ele>8.8</ele>
        <time>2021-05-17T07:38:46Z</time>
      </trkpt>
      <trkpt lat="41.4812770" lon="-8.7641890">
        <ele>8.8</ele>
        <time>2021-05-17T07:38:47Z</time>
      </trkpt>
      <trkpt lat="41.4812870" lon="-8.7641950">
        <ele>8.8</ele>
        <time>2021-05-17T07:38:48Z</time>
      </trkpt>
      <trkpt lat="41.4813140" lon="-8.7642060">
        <ele>8.8</ele>
        <time>2021-05-17T07:38:49Z</time>
      </trkpt>
      <trkpt lat="41.4813320" lon="-8.7642140">
        <ele>8.8</ele>
        <time>2021-05-17T07:38:50Z</time>
      </trkpt>
      <trkpt lat="41.4813420" lon="-8.7642210">
        <ele>8.8</ele>
        <time>2021-05-17T07:38:51Z</time>
      </trkpt>
      <trkpt lat="41.4813530" lon="-8.7642270">
        <ele>8.8</ele>
        <time>2021-05-17T07:38:52Z</time>
      </trkpt>
      <trkpt lat="41.4813670" lon="-8.7642330">
        <ele>8.8</ele>
        <time>2021-05-17T07:38:53Z</time>
      </trkpt>
      <trkpt lat="41.4813940" lon="-8.7642360">
        <ele>8.8</ele>
        <time>2021-05-17T07:38:54Z</time>
      </trkpt>
      <trkpt lat="41.4814060" lon="-8.7642350">
        <ele>8.8</ele>
        <time>2021-05-17T07:38:55Z</time>
      </trkpt>
      <trkpt lat="41.4814210" lon="-8.7642340">
        <ele>8.8</ele>
        <time>2021-05-17T07:38:56Z</time>
      </trkpt>
      <trkpt lat="41.4814250" lon="-8.7642360">
        <ele>8.8</ele>
        <time>2021-05-17T07:38:57Z</time>
      </trkpt>
      <trkpt lat="41.4814400" lon="-8.7642440">
        <ele>8.8</ele>
        <time>2021-05-17T07:38:58Z</time>
      </trkpt>
      <trkpt lat="41.4814550" lon="-8.7642490">
        <ele>8.8</ele>
        <time>2021-05-17T07:38:59Z</time>
      </trkpt>
      <trkpt lat="41.4814690" lon="-8.7642500">
        <ele>8.8</ele>
        <time>2021-05-17T07:39:00Z</time>
      </trkpt>
      <trkpt lat="41.4814950" lon="-8.7642630">
        <ele>8.8</ele>
        <time>2021-05-17T07:39:01Z</time>
      </trkpt>
      <trkpt lat="41.4815040" lon="-8.7642690">
        <ele>8.8</ele>
        <time>2021-05-17T07:39:02Z</time>
      </trkpt>
      <trkpt lat="41.4815170" lon="-8.7642690">
        <ele>8.8</ele>
        <time>2021-05-17T07:39:03Z</time>
      </trkpt>
      <trkpt lat="41.4815340" lon="-8.7642680">
        <ele>8.8</ele>
        <time>2021-05-17T07:39:04Z</time>
      </trkpt>
      <trkpt lat="41.4815500" lon="-8.7642690">
        <ele>8.8</ele>
        <time>2021-05-17T07:39:05Z</time>
      </trkpt>
      <trkpt lat="41.4815610" lon="-8.7642760">
        <ele>8.9</ele>
        <time>2021-05-17T07:39:06Z</time>
      </trkpt>
      <trkpt lat="41.4815790" lon="-8.7642910">
        <ele>8.9</ele>
        <time>2021-05-17T07:39:07Z</time>
      </trkpt>
      <trkpt lat="41.4815860" lon="-8.7642940">
        <ele>8.9</ele>
        <time>2021-05-17T07:39:08Z</time>
      </trkpt>
      <trkpt lat="41.4815940" lon="-8.7642980">
        <ele>8.9</ele>
        <time>2021-05-17T07:39:09Z</time>
      </trkpt>
      <trkpt lat="41.4816030" lon="-8.7643010">
        <ele>8.9</ele>
        <time>2021-05-17T07:39:10Z</time>
      </trkpt>
      <trkpt lat="41.4816150" lon="-8.7643080">
        <ele>8.9</ele>
        <time>2021-05-17T07:39:11Z</time>
      </trkpt>
      <trkpt lat="41.4816260" lon="-8.7643120">
        <ele>8.9</ele>
        <time>2021-05-17T07:39:12Z</time>
      </trkpt>
      <trkpt lat="41.4816410" lon="-8.7643130">
        <ele>8.9</ele>
        <time>2021-05-17T07:39:13Z</time>
      </trkpt>
      <trkpt lat="41.4816550" lon="-8.7643140">
        <ele>8.9</ele>
        <time>2021-05-17T07:39:14Z</time>
      </trkpt>
      <trkpt lat="41.4816700" lon="-8.7643170">
        <ele>8.9</ele>
        <time>2021-05-17T07:39:15Z</time>
      </trkpt>
      <trkpt lat="41.4816770" lon="-8.7643240">
        <ele>8.9</ele>
        <time>2021-05-17T07:39:16Z</time>
      </trkpt>
      <trkpt lat="41.4816870" lon="-8.7643210">
        <ele>8.9</ele>
        <time>2021-05-17T07:39:17Z</time>
      </trkpt>
      <trkpt lat="41.4817110" lon="-8.7643280">
        <ele>8.9</ele>
        <time>2021-05-17T07:39:18Z</time>
      </trkpt>
      <trkpt lat="41.4817210" lon="-8.7643310">
        <ele>8.9</ele>
        <time>2021-05-17T07:39:19Z</time>
      </trkpt>
      <trkpt lat="41.4817310" lon="-8.7643330">
        <ele>8.9</ele>
        <time>2021-05-17T07:39:20Z</time>
      </trkpt>
      <trkpt lat="41.4817500" lon="-8.7643390">
        <ele>8.9</ele>
        <time>2021-05-17T07:39:21Z</time>
      </trkpt>
      <trkpt lat="41.4817600" lon="-8.7643430">
        <ele>8.9</ele>
        <time>2021-05-17T07:39:22Z</time>
      </trkpt>
      <trkpt lat="41.4817690" lon="-8.7643460">
        <ele>8.9</ele>
        <time>2021-05-17T07:39:23Z</time>
      </trkpt>
      <trkpt lat="41.4818000" lon="-8.7643540">
        <ele>9.0</ele>
        <time>2021-05-17T07:39:24Z</time>
      </trkpt>
      <trkpt lat="41.4818100" lon="-8.7643620">
        <ele>9.0</ele>
        <time>2021-05-17T07:39:25Z</time>
      </trkpt>
      <trkpt lat="41.4818280" lon="-8.7643670">
        <ele>9.0</ele>
        <time>2021-05-17T07:39:26Z</time>
      </trkpt>
      <trkpt lat="41.4818390" lon="-8.7643760">
        <ele>9.0</ele>
        <time>2021-05-17T07:39:27Z</time>
      </trkpt>
      <trkpt lat="41.4818530" lon="-8.7643830">
        <ele>9.0</ele>
        <time>2021-05-17T07:39:28Z</time>
      </trkpt>
      <trkpt lat="41.4818670" lon="-8.7643900">
        <ele>9.0</ele>
        <time>2021-05-17T07:39:29Z</time>
      </trkpt>
      <trkpt lat="41.4818750" lon="-8.7643890">
        <ele>9.0</ele>
        <time>2021-05-17T07:39:30Z</time>
      </trkpt>
      <trkpt lat="41.4818810" lon="-8.7643900">
        <ele>9.0</ele>
        <time>2021-05-17T07:39:31Z</time>
      </trkpt>
      <trkpt lat="41.4818990" lon="-8.7643950">
        <ele>9.0</ele>
        <time>2021-05-17T07:39:32Z</time>
      </trkpt>
      <trkpt lat="41.4819100" lon="-8.7644050">
        <ele>9.0</ele>
        <time>2021-05-17T07:39:33Z</time>
      </trkpt>
      <trkpt lat="41.4819230" lon="-8.7644190">
        <ele>9.1</ele>
        <time>2021-05-17T07:39:34Z</time>
      </trkpt>
      <trkpt lat="41.4819410" lon="-8.7644340">
        <ele>9.1</ele>
        <time>2021-05-17T07:39:35Z</time>
      </trkpt>
      <trkpt lat="41.4819480" lon="-8.7644400">
        <ele>9.1</ele>
        <time>2021-05-17T07:39:36Z</time>
      </trkpt>
      <trkpt lat="41.4819550" lon="-8.7644470">
        <ele>9.1</ele>
        <time>2021-05-17T07:39:37Z</time>
      </trkpt>
      <trkpt lat="41.4819740" lon="-8.7644560">
        <ele>9.1</ele>
        <time>2021-05-17T07:39:38Z</time>
      </trkpt>
      <trkpt lat="41.4819880" lon="-8.7644630">
        <ele>9.1</ele>
        <time>2021-05-17T07:39:39Z</time>
      </trkpt>
      <trkpt lat="41.4819990" lon="-8.7644660">
        <ele>9.2</ele>
        <time>2021-05-17T07:39:40Z</time>
      </trkpt>
      <trkpt lat="41.4820070" lon="-8.7644700">
        <ele>9.2</ele>
        <time>2021-05-17T07:39:41Z</time>
      </trkpt>
      <trkpt lat="41.4820170" lon="-8.7644730">
        <ele>9.2</ele>
        <time>2021-05-17T07:39:42Z</time>
      </trkpt>
      <trkpt lat="41.4820240" lon="-8.7644720">
        <ele>9.2</ele>
        <time>2021-05-17T07:39:43Z</time>
      </trkpt>
      <trkpt lat="41.4820350" lon="-8.7644820">
        <ele>9.2</ele>
        <time>2021-05-17T07:39:44Z</time>
      </trkpt>
      <trkpt lat="41.4820470" lon="-8.7644840">
        <ele>9.2</ele>
        <time>2021-05-17T07:39:45Z</time>
      </trkpt>
      <trkpt lat="41.4820620" lon="-8.7644950">
        <ele>9.2</ele>
        <time>2021-05-17T07:39:46Z</time>
      </trkpt>
      <trkpt lat="41.4820730" lon="-8.7645100">
        <ele>9.3</ele>
        <time>2021-05-17T07:39:47Z</time>
      </trkpt>
      <trkpt lat="41.4820810" lon="-8.7645200">
        <ele>9.3</ele>
        <time>2021-05-17T07:39:48Z</time>
      </trkpt>
      <trkpt lat="41.4820870" lon="-8.7645220">
        <ele>9.3</ele>
        <time>2021-05-17T07:39:49Z</time>
      </trkpt>
      <trkpt lat="41.4820920" lon="-8.7645250">
        <ele>9.3</ele>
        <time>2021-05-17T07:39:50Z</time>
      </trkpt>
      <trkpt lat="41.4820970" lon="-8.7645280">
        <ele>9.3</ele>
        <time>2021-05-17T07:39:51Z</time>
      </trkpt>
      <trkpt lat="41.4821030" lon="-8.7645300">
        <ele>9.3</ele>
        <time>2021-05-17T07:39:52Z</time>
      </trkpt>
      <trkpt lat="41.4821080" lon="-8.7645330">
        <ele>9.3</ele>
        <time>2021-05-17T07:39:53Z</time>
      </trkpt>
      <trkpt lat="41.4821240" lon="-8.7645420">
        <ele>9.3</ele>
        <time>2021-05-17T07:39:54Z</time>
      </trkpt>
      <trkpt lat="41.4821350" lon="-8.7645500">
        <ele>9.3</ele>
        <time>2021-05-17T07:39:55Z</time>
      </trkpt>
      <trkpt lat="41.4821580" lon="-8.7645640">
        <ele>9.4</ele>
        <time>2021-05-17T07:39:56Z</time>
      </trkpt>
      <trkpt lat="41.4821660" lon="-8.7645660">
        <ele>9.4</ele>
        <time>2021-05-17T07:39:57Z</time>
      </trkpt>
      <trkpt lat="41.4821730" lon="-8.7645670">
        <ele>9.4</ele>
        <time>2021-05-17T07:39:58Z</time>
      </trkpt>
      <trkpt lat="41.4822040" lon="-8.7645770">
        <ele>9.4</ele>
        <time>2021-05-17T07:39:59Z</time>
      </trkpt>
      <trkpt lat="41.4822160" lon="-8.7645810">
        <ele>9.4</ele>
        <time>2021-05-17T07:40:00Z</time>
      </trkpt>
      <trkpt lat="41.4822350" lon="-8.7645870">
        <ele>9.4</ele>
        <time>2021-05-17T07:40:01Z</time>
      </trkpt>
      <trkpt lat="41.4822480" lon="-8.7645880">
        <ele>9.5</ele>
        <time>2021-05-17T07:40:02Z</time>
      </trkpt>
      <trkpt lat="41.4822630" lon="-8.7645870">
        <ele>9.5</ele>
        <time>2021-05-17T07:40:03Z</time>
      </trkpt>
      <trkpt lat="41.4822810" lon="-8.7645930">
        <ele>9.5</ele>
        <time>2021-05-17T07:40:04Z</time>
      </trkpt>
      <trkpt lat="41.4822850" lon="-8.7645950">
        <ele>9.5</ele>
        <time>2021-05-17T07:40:05Z</time>
      </trkpt>
      <trkpt lat="41.4822910" lon="-8.7645980">
        <ele>9.5</ele>
        <time>2021-05-17T07:40:06Z</time>
      </trkpt>
      <trkpt lat="41.4822930" lon="-8.7646010">
        <ele>9.5</ele>
        <time>2021-05-17T07:40:07Z</time>
      </trkpt>
      <trkpt lat="41.4822960" lon="-8.7646030">
        <ele>9.5</ele>
        <time>2021-05-17T07:40:08Z</time>
      </trkpt>
      <trkpt lat="41.4822930" lon="-8.7646030">
        <ele>9.5</ele>
        <time>2021-05-17T07:40:09Z</time>
      </trkpt>
      <trkpt lat="41.4822920" lon="-8.7646020">
        <ele>9.5</ele>
        <time>2021-05-17T07:40:10Z</time>
      </trkpt>
      <trkpt lat="41.4822970" lon="-8.7645960">
        <ele>9.5</ele>
        <time>2021-05-17T07:40:11Z</time>
      </trkpt>
      <trkpt lat="41.4822970" lon="-8.7645960">
        <ele>9.5</ele>
        <time>2021-05-17T07:40:12Z</time>
      </trkpt>
      <trkpt lat="41.4822980" lon="-8.7645900">
        <ele>9.5</ele>
        <time>2021-05-17T07:40:13Z</time>
      </trkpt>
      <trkpt lat="41.4822980" lon="-8.7645890">
        <ele>9.5</ele>
        <time>2021-05-17T07:40:14Z</time>
      </trkpt>
      <trkpt lat="41.4822980" lon="-8.7645910">
        <ele>9.5</ele>
        <time>2021-05-17T07:40:15Z</time>
      </trkpt>
      <trkpt lat="41.4822980" lon="-8.7645910">
        <ele>9.5</ele>
        <time>2021-05-17T07:40:16Z</time>
      </trkpt>
      <trkpt lat="41.4822980" lon="-8.7645910">
        <ele>9.5</ele>
        <time>2021-05-17T07:40:17Z</time>
      </trkpt>
      <trkpt lat="41.4822980" lon="-8.7645910">
        <ele>9.5</ele>
        <time>2021-05-17T07:40:18Z</time>
      </trkpt>
      <trkpt lat="41.4823030" lon="-8.7645900">
        <ele>9.5</ele>
        <time>2021-05-17T07:40:19Z</time>
      </trkpt>
      <trkpt lat="41.4823030" lon="-8.7645940">
        <ele>9.5</ele>
        <time>2021-05-17T07:40:20Z</time>
      </trkpt>
      <trkpt lat="41.4823030" lon="-8.7645940">
        <ele>9.5</ele>
        <time>2021-05-17T07:40:21Z</time>
      </trkpt>
      <trkpt lat="41.4823040" lon="-8.7645910">
        <ele>9.5</ele>
        <time>2021-05-17T07:40:22Z</time>
      </trkpt>
      <trkpt lat="41.4823040" lon="-8.7645930">
        <ele>9.5</ele>
        <time>2021-05-17T07:40:23Z</time>
      </trkpt>
      <trkpt lat="41.4823040" lon="-8.7645920">
        <ele>9.5</ele>
        <time>2021-05-17T07:40:24Z</time>
      </trkpt>
      <trkpt lat="41.4823040" lon="-8.7645900">
        <ele>9.5</ele>
        <time>2021-05-17T07:40:25Z</time>
      </trkpt>
      <trkpt lat="41.4823040" lon="-8.7645900">
        <ele>9.5</ele>
        <time>2021-05-17T07:40:26Z</time>
      </trkpt>
      <trkpt lat="41.4823040" lon="-8.7645900">
        <ele>9.5</ele>
        <time>2021-05-17T07:40:27Z</time>
      </trkpt>
      <trkpt lat="41.4823040" lon="-8.7645900">
        <ele>9.5</ele>
        <time>2021-05-17T07:40:28Z</time>
      </trkpt>
      <trkpt lat="41.4823040" lon="-8.7645900">
        <ele>9.5</ele>
        <time>2021-05-17T07:40:29Z</time>
      </trkpt>
      <trkpt lat="41.4823040" lon="-8.7645900">
        <ele>9.5</ele>
        <time>2021-05-17T07:40:30Z</time>
      </trkpt>
      <trkpt lat="41.4823040" lon="-8.7645900">
        <ele>9.5</ele>
        <time>2021-05-17T07:40:31Z</time>
      </trkpt>
      <trkpt lat="41.4823080" lon="-8.7645770">
        <ele>9.6</ele>
        <time>2021-05-17T07:40:32Z</time>
      </trkpt>
      <trkpt lat="41.4823120" lon="-8.7645730">
        <ele>9.6</ele>
        <time>2021-05-17T07:40:33Z</time>
      </trkpt>
      <trkpt lat="41.4823120" lon="-8.7645760">
        <ele>9.6</ele>
        <time>2021-05-17T07:40:34Z</time>
      </trkpt>
      <trkpt lat="41.4823120" lon="-8.7645770">
        <ele>9.6</ele>
        <time>2021-05-17T07:40:35Z</time>
      </trkpt>
      <trkpt lat="41.4823120" lon="-8.7645770">
        <ele>9.6</ele>
        <time>2021-05-17T07:40:36Z</time>
      </trkpt>
      <trkpt lat="41.4823120" lon="-8.7645770">
        <ele>9.6</ele>
        <time>2021-05-17T07:40:37Z</time>
      </trkpt>
      <trkpt lat="41.4823120" lon="-8.7645770">
        <ele>9.6</ele>
        <time>2021-05-17T07:40:38Z</time>
      </trkpt>
      <trkpt lat="41.4823120" lon="-8.7645770">
        <ele>9.6</ele>
        <time>2021-05-17T07:40:39Z</time>
      </trkpt>
      <trkpt lat="41.4823120" lon="-8.7645770">
        <ele>9.6</ele>
        <time>2021-05-17T07:40:40Z</time>
      </trkpt>
      <trkpt lat="41.4823120" lon="-8.7645770">
        <ele>9.6</ele>
        <time>2021-05-17T07:40:41Z</time>
      </trkpt>
      <trkpt lat="41.4823120" lon="-8.7645770">
        <ele>9.6</ele>
        <time>2021-05-17T07:40:42Z</time>
      </trkpt>
      <trkpt lat="41.4823120" lon="-8.7645770">
        <ele>9.6</ele>
        <time>2021-05-17T07:40:43Z</time>
      </trkpt>
      <trkpt lat="41.4823120" lon="-8.7645770">
        <ele>9.6</ele>
        <time>2021-05-17T07:40:44Z</time>
      </trkpt>
      <trkpt lat="41.4823120" lon="-8.7645770">
        <ele>9.6</ele>
        <time>2021-05-17T07:40:45Z</time>
      </trkpt>
      <trkpt lat="41.4823120" lon="-8.7645770">
        <ele>9.6</ele>
        <time>2021-05-17T07:40:46Z</time>
      </trkpt>
      <trkpt lat="41.4823120" lon="-8.7645770">
        <ele>9.6</ele>
        <time>2021-05-17T07:40:47Z</time>
      </trkpt>
      <trkpt lat="41.4823000" lon="-8.7646020">
        <ele>9.6</ele>
        <time>2021-05-17T07:40:48Z</time>
      </trkpt>
      <trkpt lat="41.4823000" lon="-8.7646110">
        <ele>9.6</ele>
        <time>2021-05-17T07:40:49Z</time>
      </trkpt>
      <trkpt lat="41.4822980" lon="-8.7646200">
        <ele>9.6</ele>
        <time>2021-05-17T07:40:50Z</time>
      </trkpt>
      <trkpt lat="41.4822950" lon="-8.7646230">
        <ele>9.6</ele>
        <time>2021-05-17T07:40:51Z</time>
      </trkpt>
      <trkpt lat="41.4822950" lon="-8.7646240">
        <ele>9.6</ele>
        <time>2021-05-17T07:40:52Z</time>
      </trkpt>
      <trkpt lat="41.4822950" lon="-8.7646240">
        <ele>9.6</ele>
        <time>2021-05-17T07:40:53Z</time>
      </trkpt>
      <trkpt lat="41.4822950" lon="-8.7646240">
        <ele>9.6</ele>
        <time>2021-05-17T07:40:54Z</time>
      </trkpt>
      <trkpt lat="41.4822950" lon="-8.7646240">
        <ele>9.6</ele>
        <time>2021-05-17T07:40:55Z</time>
      </trkpt>
      <trkpt lat="41.4822950" lon="-8.7646240">
        <ele>9.6</ele>
        <time>2021-05-17T07:40:56Z</time>
      </trkpt>
      <trkpt lat="41.4822950" lon="-8.7646240">
        <ele>9.6</ele>
        <time>2021-05-17T07:40:57Z</time>
      </trkpt>
      <trkpt lat="41.4822890" lon="-8.7646370">
        <ele>9.6</ele>
        <time>2021-05-17T07:40:58Z</time>
      </trkpt>
      <trkpt lat="41.4822870" lon="-8.7646380">
        <ele>9.6</ele>
        <time>2021-05-17T07:40:59Z</time>
      </trkpt>
      <trkpt lat="41.4822870" lon="-8.7646390">
        <ele>9.6</ele>
        <time>2021-05-17T07:41:00Z</time>
      </trkpt>
      <trkpt lat="41.4822900" lon="-8.7646440">
        <ele>9.6</ele>
        <time>2021-05-17T07:41:01Z</time>
      </trkpt>
      <trkpt lat="41.4822990" lon="-8.7646540">
        <ele>9.7</ele>
        <time>2021-05-17T07:41:02Z</time>
      </trkpt>
      <trkpt lat="41.4823030" lon="-8.7646560">
        <ele>9.7</ele>
        <time>2021-05-17T07:41:03Z</time>
      </trkpt>
      <trkpt lat="41.4823200" lon="-8.7646490">
        <ele>9.7</ele>
        <time>2021-05-17T07:41:04Z</time>
      </trkpt>
      <trkpt lat="41.4823280" lon="-8.7646530">
        <ele>9.7</ele>
        <time>2021-05-17T07:41:05Z</time>
      </trkpt>
      <trkpt lat="41.4823370" lon="-8.7646500">
        <ele>9.7</ele>
        <time>2021-05-17T07:41:06Z</time>
      </trkpt>
      <trkpt lat="41.4823520" lon="-8.7646530">
        <ele>9.7</ele>
        <time>2021-05-17T07:41:07Z</time>
      </trkpt>
      <trkpt lat="41.4823620" lon="-8.7646580">
        <ele>9.8</ele>
        <time>2021-05-17T07:41:08Z</time>
      </trkpt>
      <trkpt lat="41.4823730" lon="-8.7646590">
        <ele>9.8</ele>
        <time>2021-05-17T07:41:09Z</time>
      </trkpt>
      <trkpt lat="41.4823820" lon="-8.7646680">
        <ele>9.8</ele>
        <time>2021-05-17T07:41:10Z</time>
      </trkpt>
      <trkpt lat="41.4823950" lon="-8.7646790">
        <ele>9.8</ele>
        <time>2021-05-17T07:41:11Z</time>
      </trkpt>
      <trkpt lat="41.4824070" lon="-8.7646980">
        <ele>9.8</ele>
        <time>2021-05-17T07:41:12Z</time>
      </trkpt>
      <trkpt lat="41.4824080" lon="-8.7647080">
        <ele>9.8</ele>
        <time>2021-05-17T07:41:13Z</time>
      </trkpt>
      <trkpt lat="41.4824110" lon="-8.7647130">
        <ele>9.8</ele>
        <time>2021-05-17T07:41:14Z</time>
      </trkpt>
      <trkpt lat="41.4824240" lon="-8.7647230">
        <ele>9.9</ele>
        <time>2021-05-17T07:41:15Z</time>
      </trkpt>
      <trkpt lat="41.4824370" lon="-8.7647260">
        <ele>9.9</ele>
        <time>2021-05-17T07:41:16Z</time>
      </trkpt>
      <trkpt lat="41.4824590" lon="-8.7647440">
        <ele>9.9</ele>
        <time>2021-05-17T07:41:17Z</time>
      </trkpt>
      <trkpt lat="41.4824650" lon="-8.7647520">
        <ele>9.9</ele>
        <time>2021-05-17T07:41:18Z</time>
      </trkpt>
      <trkpt lat="41.4824700" lon="-8.7647590">
        <ele>9.9</ele>
        <time>2021-05-17T07:41:19Z</time>
      </trkpt>
      <trkpt lat="41.4824840" lon="-8.7647770">
        <ele>10.0</ele>
        <time>2021-05-17T07:41:20Z</time>
      </trkpt>
      <trkpt lat="41.4824910" lon="-8.7647840">
        <ele>10.0</ele>
        <time>2021-05-17T07:41:21Z</time>
      </trkpt>
      <trkpt lat="41.4824990" lon="-8.7647920">
        <ele>10.0</ele>
        <time>2021-05-17T07:41:22Z</time>
      </trkpt>
      <trkpt lat="41.4824990" lon="-8.7647970">
        <ele>10.0</ele>
        <time>2021-05-17T07:41:23Z</time>
      </trkpt>
      <trkpt lat="41.4825150" lon="-8.7648000">
        <ele>10.0</ele>
        <time>2021-05-17T07:41:24Z</time>
      </trkpt>
      <trkpt lat="41.4825310" lon="-8.7648060">
        <ele>10.0</ele>
        <time>2021-05-17T07:41:25Z</time>
      </trkpt>
      <trkpt lat="41.4825470" lon="-8.7648140">
        <ele>10.0</ele>
        <time>2021-05-17T07:41:26Z</time>
      </trkpt>
      <trkpt lat="41.4825570" lon="-8.7648180">
        <ele>10.0</ele>
        <time>2021-05-17T07:41:27Z</time>
      </trkpt>
      <trkpt lat="41.4825660" lon="-8.7648270">
        <ele>10.1</ele>
        <time>2021-05-17T07:41:28Z</time>
      </trkpt>
      <trkpt lat="41.4825840" lon="-8.7648360">
        <ele>10.1</ele>
        <time>2021-05-17T07:41:29Z</time>
      </trkpt>
      <trkpt lat="41.4826100" lon="-8.7648580">
        <ele>10.1</ele>
        <time>2021-05-17T07:41:30Z</time>
      </trkpt>
      <trkpt lat="41.4826190" lon="-8.7648640">
        <ele>10.1</ele>
        <time>2021-05-17T07:41:31Z</time>
      </trkpt>
      <trkpt lat="41.4826440" lon="-8.7648540">
        <ele>10.1</ele>
        <time>2021-05-17T07:41:32Z</time>
      </trkpt>
      <trkpt lat="41.4826550" lon="-8.7648520">
        <ele>10.1</ele>
        <time>2021-05-17T07:41:33Z</time>
      </trkpt>
      <trkpt lat="41.4826780" lon="-8.7648540">
        <ele>10.1</ele>
        <time>2021-05-17T07:41:34Z</time>
      </trkpt>
      <trkpt lat="41.4826910" lon="-8.7648530">
        <ele>10.1</ele>
        <time>2021-05-17T07:41:35Z</time>
      </trkpt>
      <trkpt lat="41.4827030" lon="-8.7648530">
        <ele>10.2</ele>
        <time>2021-05-17T07:41:36Z</time>
      </trkpt>
      <trkpt lat="41.4827300" lon="-8.7648460">
        <ele>10.2</ele>
        <time>2021-05-17T07:41:37Z</time>
      </trkpt>
      <trkpt lat="41.4827390" lon="-8.7648500">
        <ele>10.2</ele>
        <time>2021-05-17T07:41:38Z</time>
      </trkpt>
      <trkpt lat="41.4827570" lon="-8.7648510">
        <ele>10.2</ele>
        <time>2021-05-17T07:41:39Z</time>
      </trkpt>
      <trkpt lat="41.4827750" lon="-8.7648560">
        <ele>10.2</ele>
        <time>2021-05-17T07:41:40Z</time>
      </trkpt>
      <trkpt lat="41.4828040" lon="-8.7648770">
        <ele>10.2</ele>
        <time>2021-05-17T07:41:41Z</time>
      </trkpt>
      <trkpt lat="41.4828120" lon="-8.7648810">
        <ele>10.2</ele>
        <time>2021-05-17T07:41:42Z</time>
      </trkpt>
      <trkpt lat="41.4828300" lon="-8.7648830">
        <ele>10.2</ele>
        <time>2021-05-17T07:41:43Z</time>
      </trkpt>
      <trkpt lat="41.4828400" lon="-8.7648810">
        <ele>10.2</ele>
        <time>2021-05-17T07:41:44Z</time>
      </trkpt>
      <trkpt lat="41.4828490" lon="-8.7648790">
        <ele>10.2</ele>
        <time>2021-05-17T07:41:45Z</time>
      </trkpt>
      <trkpt lat="41.4828570" lon="-8.7648920">
        <ele>10.2</ele>
        <time>2021-05-17T07:41:46Z</time>
      </trkpt>
      <trkpt lat="41.4828710" lon="-8.7648970">
        <ele>10.2</ele>
        <time>2021-05-17T07:41:47Z</time>
      </trkpt>
      <trkpt lat="41.4828800" lon="-8.7648960">
        <ele>10.2</ele>
        <time>2021-05-17T07:41:48Z</time>
      </trkpt>
      <trkpt lat="41.4828970" lon="-8.7649000">
        <ele>10.2</ele>
        <time>2021-05-17T07:41:49Z</time>
      </trkpt>
      <trkpt lat="41.4829120" lon="-8.7649010">
        <ele>10.2</ele>
        <time>2021-05-17T07:41:50Z</time>
      </trkpt>
      <trkpt lat="41.4829190" lon="-8.7648950">
        <ele>10.2</ele>
        <time>2021-05-17T07:41:51Z</time>
      </trkpt>
      <trkpt lat="41.4829330" lon="-8.7648930">
        <ele>10.2</ele>
        <time>2021-05-17T07:41:52Z</time>
      </trkpt>
      <trkpt lat="41.4829420" lon="-8.7648920">
        <ele>10.2</ele>
        <time>2021-05-17T07:41:53Z</time>
      </trkpt>
      <trkpt lat="41.4829610" lon="-8.7648980">
        <ele>10.2</ele>
        <time>2021-05-17T07:41:54Z</time>
      </trkpt>
      <trkpt lat="41.4829690" lon="-8.7649000">
        <ele>10.1</ele>
        <time>2021-05-17T07:41:55Z</time>
      </trkpt>
      <trkpt lat="41.4829780" lon="-8.7649010">
        <ele>10.1</ele>
        <time>2021-05-17T07:41:56Z</time>
      </trkpt>
      <trkpt lat="41.4830020" lon="-8.7648950">
        <ele>10.1</ele>
        <time>2021-05-17T07:41:57Z</time>
      </trkpt>
      <trkpt lat="41.4830110" lon="-8.7648890">
        <ele>10.1</ele>
        <time>2021-05-17T07:41:58Z</time>
      </trkpt>
      <trkpt lat="41.4830190" lon="-8.7648840">
        <ele>10.1</ele>
        <time>2021-05-17T07:41:59Z</time>
      </trkpt>
      <trkpt lat="41.4830320" lon="-8.7648850">
        <ele>10.1</ele>
        <time>2021-05-17T07:42:00Z</time>
      </trkpt>
      <trkpt lat="41.4830500" lon="-8.7648780">
        <ele>10.1</ele>
        <time>2021-05-17T07:42:01Z</time>
      </trkpt>
      <trkpt lat="41.4830630" lon="-8.7648660">
        <ele>10.1</ele>
        <time>2021-05-17T07:42:02Z</time>
      </trkpt>
      <trkpt lat="41.4830790" lon="-8.7648550">
        <ele>10.1</ele>
        <time>2021-05-17T07:42:03Z</time>
      </trkpt>
      <trkpt lat="41.4831010" lon="-8.7648530">
        <ele>10.1</ele>
        <time>2021-05-17T07:42:04Z</time>
      </trkpt>
      <trkpt lat="41.4831080" lon="-8.7648520">
        <ele>10.1</ele>
        <time>2021-05-17T07:42:05Z</time>
      </trkpt>
      <trkpt lat="41.4831160" lon="-8.7648510">
        <ele>10.1</ele>
        <time>2021-05-17T07:42:06Z</time>
      </trkpt>
      <trkpt lat="41.4831260" lon="-8.7648520">
        <ele>10.1</ele>
        <time>2021-05-17T07:42:07Z</time>
      </trkpt>
      <trkpt lat="41.4831360" lon="-8.7648490">
        <ele>10.1</ele>
        <time>2021-05-17T07:42:08Z</time>
      </trkpt>
      <trkpt lat="41.4831460" lon="-8.7648350">
        <ele>10.1</ele>
        <time>2021-05-17T07:42:09Z</time>
      </trkpt>
      <trkpt lat="41.4831640" lon="-8.7648380">
        <ele>10.1</ele>
        <time>2021-05-17T07:42:10Z</time>
      </trkpt>
      <trkpt lat="41.4831770" lon="-8.7648380">
        <ele>10.1</ele>
        <time>2021-05-17T07:42:11Z</time>
      </trkpt>
      <trkpt lat="41.4831970" lon="-8.7648330">
        <ele>10.1</ele>
        <time>2021-05-17T07:42:12Z</time>
      </trkpt>
      <trkpt lat="41.4832060" lon="-8.7648320">
        <ele>10.1</ele>
        <time>2021-05-17T07:42:13Z</time>
      </trkpt>
      <trkpt lat="41.4832150" lon="-8.7648320">
        <ele>10.1</ele>
        <time>2021-05-17T07:42:14Z</time>
      </trkpt>
      <trkpt lat="41.4832330" lon="-8.7648330">
        <ele>10.1</ele>
        <time>2021-05-17T07:42:15Z</time>
      </trkpt>
      <trkpt lat="41.4832470" lon="-8.7648300">
        <ele>10.1</ele>
        <time>2021-05-17T07:42:16Z</time>
      </trkpt>
      <trkpt lat="41.4832590" lon="-8.7648310">
        <ele>10.1</ele>
        <time>2021-05-17T07:42:17Z</time>
      </trkpt>
      <trkpt lat="41.4832670" lon="-8.7648340">
        <ele>10.1</ele>
        <time>2021-05-17T07:42:18Z</time>
      </trkpt>
      <trkpt lat="41.4832760" lon="-8.7648330">
        <ele>10.1</ele>
        <time>2021-05-17T07:42:19Z</time>
      </trkpt>
      <trkpt lat="41.4832920" lon="-8.7648330">
        <ele>10.1</ele>
        <time>2021-05-17T07:42:20Z</time>
      </trkpt>
      <trkpt lat="41.4833050" lon="-8.7648320">
        <ele>10.1</ele>
        <time>2021-05-17T07:42:21Z</time>
      </trkpt>
      <trkpt lat="41.4833150" lon="-8.7648340">
        <ele>10.1</ele>
        <time>2021-05-17T07:42:22Z</time>
      </trkpt>
      <trkpt lat="41.4833180" lon="-8.7648320">
        <ele>10.1</ele>
        <time>2021-05-17T07:42:23Z</time>
      </trkpt>
      <trkpt lat="41.4833340" lon="-8.7648280">
        <ele>10.1</ele>
        <time>2021-05-17T07:42:24Z</time>
      </trkpt>
      <trkpt lat="41.4833490" lon="-8.7648230">
        <ele>10.1</ele>
        <time>2021-05-17T07:42:25Z</time>
      </trkpt>
      <trkpt lat="41.4833660" lon="-8.7648150">
        <ele>10.1</ele>
        <time>2021-05-17T07:42:26Z</time>
      </trkpt>
      <trkpt lat="41.4833850" lon="-8.7648100">
        <ele>10.1</ele>
        <time>2021-05-17T07:42:27Z</time>
      </trkpt>
      <trkpt lat="41.4833940" lon="-8.7648070">
        <ele>10.1</ele>
        <time>2021-05-17T07:42:28Z</time>
      </trkpt>
      <trkpt lat="41.4834040" lon="-8.7648040">
        <ele>10.1</ele>
        <time>2021-05-17T07:42:29Z</time>
      </trkpt>
      <trkpt lat="41.4834130" lon="-8.7648010">
        <ele>10.1</ele>
        <time>2021-05-17T07:42:30Z</time>
      </trkpt>
      <trkpt lat="41.4834310" lon="-8.7647990">
        <ele>10.1</ele>
        <time>2021-05-17T07:42:31Z</time>
      </trkpt>
      <trkpt lat="41.4834410" lon="-8.7647990">
        <ele>10.1</ele>
        <time>2021-05-17T07:42:32Z</time>
      </trkpt>
      <trkpt lat="41.4834470" lon="-8.7648060">
        <ele>10.1</ele>
        <time>2021-05-17T07:42:33Z</time>
      </trkpt>
      <trkpt lat="41.4834640" lon="-8.7647990">
        <ele>10.1</ele>
        <time>2021-05-17T07:42:34Z</time>
      </trkpt>
      <trkpt lat="41.4834760" lon="-8.7648000">
        <ele>10.1</ele>
        <time>2021-05-17T07:42:35Z</time>
      </trkpt>
      <trkpt lat="41.4834920" lon="-8.7648010">
        <ele>10.1</ele>
        <time>2021-05-17T07:42:36Z</time>
      </trkpt>
      <trkpt lat="41.4835110" lon="-8.7648000">
        <ele>10.1</ele>
        <time>2021-05-17T07:42:37Z</time>
      </trkpt>
      <trkpt lat="41.4835410" lon="-8.7648010">
        <ele>10.1</ele>
        <time>2021-05-17T07:42:38Z</time>
      </trkpt>
      <trkpt lat="41.4835500" lon="-8.7647980">
        <ele>10.1</ele>
        <time>2021-05-17T07:42:39Z</time>
      </trkpt>
      <trkpt lat="41.4835600" lon="-8.7647920">
        <ele>10.1</ele>
        <time>2021-05-17T07:42:40Z</time>
      </trkpt>
      <trkpt lat="41.4835770" lon="-8.7647890">
        <ele>10.1</ele>
        <time>2021-05-17T07:42:41Z</time>
      </trkpt>
      <trkpt lat="41.4836080" lon="-8.7647870">
        <ele>10.1</ele>
        <time>2021-05-17T07:42:42Z</time>
      </trkpt>
      <trkpt lat="41.4836210" lon="-8.7647830">
        <ele>10.1</ele>
        <time>2021-05-17T07:42:43Z</time>
      </trkpt>
      <trkpt lat="41.4836310" lon="-8.7647810">
        <ele>10.1</ele>
        <time>2021-05-17T07:42:44Z</time>
      </trkpt>
      <trkpt lat="41.4836430" lon="-8.7647800">
        <ele>10.1</ele>
        <time>2021-05-17T07:42:45Z</time>
      </trkpt>
      <trkpt lat="41.4836510" lon="-8.7647730">
        <ele>10.1</ele>
        <time>2021-05-17T07:42:46Z</time>
      </trkpt>
      <trkpt lat="41.4836620" lon="-8.7647730">
        <ele>10.1</ele>
        <time>2021-05-17T07:42:47Z</time>
      </trkpt>
      <trkpt lat="41.4836780" lon="-8.7647760">
        <ele>10.1</ele>
        <time>2021-05-17T07:42:48Z</time>
      </trkpt>
      <trkpt lat="41.4836910" lon="-8.7647790">
        <ele>10.1</ele>
        <time>2021-05-17T07:42:49Z</time>
      </trkpt>
      <trkpt lat="41.4837050" lon="-8.7647730">
        <ele>10.1</ele>
        <time>2021-05-17T07:42:50Z</time>
      </trkpt>
      <trkpt lat="41.4837240" lon="-8.7647670">
        <ele>10.1</ele>
        <time>2021-05-17T07:42:51Z</time>
      </trkpt>
      <trkpt lat="41.4837410" lon="-8.7647690">
        <ele>10.1</ele>
        <time>2021-05-17T07:42:52Z</time>
      </trkpt>
      <trkpt lat="41.4837730" lon="-8.7647670">
        <ele>10.1</ele>
        <time>2021-05-17T07:42:53Z</time>
      </trkpt>
      <trkpt lat="41.4837850" lon="-8.7647640">
        <ele>10.1</ele>
        <time>2021-05-17T07:42:54Z</time>
      </trkpt>
      <trkpt lat="41.4838000" lon="-8.7647650">
        <ele>10.1</ele>
        <time>2021-05-17T07:42:55Z</time>
      </trkpt>
      <trkpt lat="41.4838120" lon="-8.7647630">
        <ele>10.1</ele>
        <time>2021-05-17T07:42:56Z</time>
      </trkpt>
      <trkpt lat="41.4838310" lon="-8.7647570">
        <ele>10.1</ele>
        <time>2021-05-17T07:42:57Z</time>
      </trkpt>
      <trkpt lat="41.4838460" lon="-8.7647550">
        <ele>10.1</ele>
        <time>2021-05-17T07:42:58Z</time>
      </trkpt>
      <trkpt lat="41.4838590" lon="-8.7647510">
        <ele>10.1</ele>
        <time>2021-05-17T07:42:59Z</time>
      </trkpt>
      <trkpt lat="41.4838710" lon="-8.7647410">
        <ele>10.1</ele>
        <time>2021-05-17T07:43:00Z</time>
      </trkpt>
      <trkpt lat="41.4838880" lon="-8.7647380">
        <ele>10.1</ele>
        <time>2021-05-17T07:43:01Z</time>
      </trkpt>
      <trkpt lat="41.4839020" lon="-8.7647350">
        <ele>10.1</ele>
        <time>2021-05-17T07:43:02Z</time>
      </trkpt>
      <trkpt lat="41.4839140" lon="-8.7647280">
        <ele>10.1</ele>
        <time>2021-05-17T07:43:03Z</time>
      </trkpt>
      <trkpt lat="41.4839290" lon="-8.7647170">
        <ele>10.1</ele>
        <time>2021-05-17T07:43:04Z</time>
      </trkpt>
      <trkpt lat="41.4839400" lon="-8.7647160">
        <ele>10.1</ele>
        <time>2021-05-17T07:43:05Z</time>
      </trkpt>
      <trkpt lat="41.4839590" lon="-8.7647090">
        <ele>10.1</ele>
        <time>2021-05-17T07:43:06Z</time>
      </trkpt>
      <trkpt lat="41.4839790" lon="-8.7647050">
        <ele>10.2</ele>
        <time>2021-05-17T07:43:07Z</time>
      </trkpt>
      <trkpt lat="41.4839880" lon="-8.7647020">
        <ele>10.2</ele>
        <time>2021-05-17T07:43:08Z</time>
      </trkpt>
      <trkpt lat="41.4839970" lon="-8.7646990">
        <ele>10.2</ele>
        <time>2021-05-17T07:43:09Z</time>
      </trkpt>
      <trkpt lat="41.4840230" lon="-8.7646900">
        <ele>10.2</ele>
        <time>2021-05-17T07:43:10Z</time>
      </trkpt>
      <trkpt lat="41.4840340" lon="-8.7646870">
        <ele>10.2</ele>
        <time>2021-05-17T07:43:11Z</time>
      </trkpt>
      <trkpt lat="41.4840530" lon="-8.7646790">
        <ele>10.2</ele>
        <time>2021-05-17T07:43:12Z</time>
      </trkpt>
      <trkpt lat="41.4840620" lon="-8.7646770">
        <ele>10.2</ele>
        <time>2021-05-17T07:43:13Z</time>
      </trkpt>
      <trkpt lat="41.4840700" lon="-8.7646760">
        <ele>10.2</ele>
        <time>2021-05-17T07:43:14Z</time>
      </trkpt>
      <trkpt lat="41.4840810" lon="-8.7646650">
        <ele>10.2</ele>
        <time>2021-05-17T07:43:15Z</time>
      </trkpt>
      <trkpt lat="41.4841020" lon="-8.7646570">
        <ele>10.2</ele>
        <time>2021-05-17T07:43:16Z</time>
      </trkpt>
      <trkpt lat="41.4841220" lon="-8.7646530">
        <ele>10.2</ele>
        <time>2021-05-17T07:43:17Z</time>
      </trkpt>
      <trkpt lat="41.4841270" lon="-8.7646470">
        <ele>10.3</ele>
        <time>2021-05-17T07:43:18Z</time>
      </trkpt>
      <trkpt lat="41.4841310" lon="-8.7646410">
        <ele>10.3</ele>
        <time>2021-05-17T07:43:19Z</time>
      </trkpt>
      <trkpt lat="41.4841360" lon="-8.7646350">
        <ele>10.3</ele>
        <time>2021-05-17T07:43:20Z</time>
      </trkpt>
      <trkpt lat="41.4841450" lon="-8.7646270">
        <ele>10.3</ele>
        <time>2021-05-17T07:43:21Z</time>
      </trkpt>
      <trkpt lat="41.4841530" lon="-8.7646200">
        <ele>10.3</ele>
        <time>2021-05-17T07:43:22Z</time>
      </trkpt>
      <trkpt lat="41.4841640" lon="-8.7646110">
        <ele>10.3</ele>
        <time>2021-05-17T07:43:23Z</time>
      </trkpt>
      <trkpt lat="41.4841720" lon="-8.7646020">
        <ele>10.3</ele>
        <time>2021-05-17T07:43:24Z</time>
      </trkpt>
      <trkpt lat="41.4841810" lon="-8.7645990">
        <ele>10.3</ele>
        <time>2021-05-17T07:43:25Z</time>
      </trkpt>
      <trkpt lat="41.4841900" lon="-8.7645910">
        <ele>10.3</ele>
        <time>2021-05-17T07:43:26Z</time>
      </trkpt>
      <trkpt lat="41.4842090" lon="-8.7645800">
        <ele>10.3</ele>
        <time>2021-05-17T07:43:27Z</time>
      </trkpt>
      <trkpt lat="41.4842160" lon="-8.7645740">
        <ele>10.3</ele>
        <time>2021-05-17T07:43:28Z</time>
      </trkpt>
      <trkpt lat="41.4842240" lon="-8.7645680">
        <ele>10.3</ele>
        <time>2021-05-17T07:43:29Z</time>
      </trkpt>
      <trkpt lat="41.4842360" lon="-8.7645610">
        <ele>10.3</ele>
        <time>2021-05-17T07:43:30Z</time>
      </trkpt>
      <trkpt lat="41.4842430" lon="-8.7645580">
        <ele>10.4</ele>
        <time>2021-05-17T07:43:31Z</time>
      </trkpt>
      <trkpt lat="41.4842560" lon="-8.7645470">
        <ele>10.4</ele>
        <time>2021-05-17T07:43:32Z</time>
      </trkpt>
      <trkpt lat="41.4842760" lon="-8.7645360">
        <ele>10.4</ele>
        <time>2021-05-17T07:43:33Z</time>
      </trkpt>
      <trkpt lat="41.4842850" lon="-8.7645340">
        <ele>10.4</ele>
        <time>2021-05-17T07:43:34Z</time>
      </trkpt>
      <trkpt lat="41.4842940" lon="-8.7645310">
        <ele>10.4</ele>
        <time>2021-05-17T07:43:35Z</time>
      </trkpt>
      <trkpt lat="41.4843290" lon="-8.7645240">
        <ele>10.4</ele>
        <time>2021-05-17T07:43:36Z</time>
      </trkpt>
      <trkpt lat="41.4843420" lon="-8.7645220">
        <ele>10.4</ele>
        <time>2021-05-17T07:43:37Z</time>
      </trkpt>
      <trkpt lat="41.4843720" lon="-8.7645150">
        <ele>10.4</ele>
        <time>2021-05-17T07:43:38Z</time>
      </trkpt>
      <trkpt lat="41.4843780" lon="-8.7645100">
        <ele>10.4</ele>
        <time>2021-05-17T07:43:39Z</time>
      </trkpt>
      <trkpt lat="41.4843930" lon="-8.7644990">
        <ele>10.4</ele>
        <time>2021-05-17T07:43:40Z</time>
      </trkpt>
      <trkpt lat="41.4844050" lon="-8.7644910">
        <ele>10.4</ele>
        <time>2021-05-17T07:43:41Z</time>
      </trkpt>
      <trkpt lat="41.4844150" lon="-8.7644810">
        <ele>10.4</ele>
        <time>2021-05-17T07:43:42Z</time>
      </trkpt>
      <trkpt lat="41.4844250" lon="-8.7644740">
        <ele>10.4</ele>
        <time>2021-05-17T07:43:43Z</time>
      </trkpt>
      <trkpt lat="41.4844370" lon="-8.7644720">
        <ele>10.4</ele>
        <time>2021-05-17T07:43:44Z</time>
      </trkpt>
      <trkpt lat="41.4844550" lon="-8.7644680">
        <ele>10.4</ele>
        <time>2021-05-17T07:43:45Z</time>
      </trkpt>
      <trkpt lat="41.4844660" lon="-8.7644650">
        <ele>10.4</ele>
        <time>2021-05-17T07:43:46Z</time>
      </trkpt>
      <trkpt lat="41.4844760" lon="-8.7644630">
        <ele>10.4</ele>
        <time>2021-05-17T07:43:47Z</time>
      </trkpt>
      <trkpt lat="41.4845000" lon="-8.7644460">
        <ele>10.4</ele>
        <time>2021-05-17T07:43:48Z</time>
      </trkpt>
      <trkpt lat="41.4845120" lon="-8.7644380">
        <ele>10.3</ele>
        <time>2021-05-17T07:43:49Z</time>
      </trkpt>
      <trkpt lat="41.4845250" lon="-8.7644300">
        <ele>10.3</ele>
        <time>2021-05-17T07:43:50Z</time>
      </trkpt>
      <trkpt lat="41.4845440" lon="-8.7644270">
        <ele>10.3</ele>
        <time>2021-05-17T07:43:51Z</time>
      </trkpt>
      <trkpt lat="41.4845520" lon="-8.7644230">
        <ele>10.3</ele>
        <time>2021-05-17T07:43:52Z</time>
      </trkpt>
      <trkpt lat="41.4845610" lon="-8.7644180">
        <ele>10.3</ele>
        <time>2021-05-17T07:43:53Z</time>
      </trkpt>
      <trkpt lat="41.4845830" lon="-8.7644200">
        <ele>10.3</ele>
        <time>2021-05-17T07:43:54Z</time>
      </trkpt>
      <trkpt lat="41.4845910" lon="-8.7644130">
        <ele>10.3</ele>
        <time>2021-05-17T07:43:55Z</time>
      </trkpt>
      <trkpt lat="41.4846040" lon="-8.7644160">
        <ele>10.3</ele>
        <time>2021-05-17T07:43:56Z</time>
      </trkpt>
      <trkpt lat="41.4846080" lon="-8.7644220">
        <ele>10.3</ele>
        <time>2021-05-17T07:43:57Z</time>
      </trkpt>
      <trkpt lat="41.4846080" lon="-8.7644050">
        <ele>10.2</ele>
        <time>2021-05-17T07:43:58Z</time>
      </trkpt>
      <trkpt lat="41.4846160" lon="-8.7644160">
        <ele>10.2</ele>
        <time>2021-05-17T07:43:59Z</time>
      </trkpt>
      <trkpt lat="41.4846270" lon="-8.7644180">
        <ele>10.2</ele>
        <time>2021-05-17T07:44:00Z</time>
      </trkpt>
      <trkpt lat="41.4846400" lon="-8.7644190">
        <ele>10.2</ele>
        <time>2021-05-17T07:44:01Z</time>
      </trkpt>
      <trkpt lat="41.4846510" lon="-8.7644170">
        <ele>10.2</ele>
        <time>2021-05-17T07:44:02Z</time>
      </trkpt>
      <trkpt lat="41.4846610" lon="-8.7644180">
        <ele>10.2</ele>
        <time>2021-05-17T07:44:03Z</time>
      </trkpt>
      <trkpt lat="41.4846690" lon="-8.7644190">
        <ele>10.2</ele>
        <time>2021-05-17T07:44:04Z</time>
      </trkpt>
      <trkpt lat="41.4846760" lon="-8.7644160">
        <ele>10.2</ele>
        <time>2021-05-17T07:44:05Z</time>
      </trkpt>
      <trkpt lat="41.4846830" lon="-8.7644140">
        <ele>10.2</ele>
        <time>2021-05-17T07:44:06Z</time>
      </trkpt>
      <trkpt lat="41.4846890" lon="-8.7644110">
        <ele>10.2</ele>
        <time>2021-05-17T07:44:07Z</time>
      </trkpt>
      <trkpt lat="41.4846960" lon="-8.7644080">
        <ele>10.2</ele>
        <time>2021-05-17T07:44:08Z</time>
      </trkpt>
      <trkpt lat="41.4847030" lon="-8.7644050">
        <ele>10.1</ele>
        <time>2021-05-17T07:44:09Z</time>
      </trkpt>
      <trkpt lat="41.4847310" lon="-8.7643970">
        <ele>10.1</ele>
        <time>2021-05-17T07:44:10Z</time>
      </trkpt>
      <trkpt lat="41.4847390" lon="-8.7644000">
        <ele>10.1</ele>
        <time>2021-05-17T07:44:11Z</time>
      </trkpt>
      <trkpt lat="41.4847560" lon="-8.7644010">
        <ele>10.1</ele>
        <time>2021-05-17T07:44:12Z</time>
      </trkpt>
      <trkpt lat="41.4847690" lon="-8.7643970">
        <ele>10.1</ele>
        <time>2021-05-17T07:44:13Z</time>
      </trkpt>
      <trkpt lat="41.4847800" lon="-8.7643930">
        <ele>10.1</ele>
        <time>2021-05-17T07:44:14Z</time>
      </trkpt>
      <trkpt lat="41.4848000" lon="-8.7643890">
        <ele>10.0</ele>
        <time>2021-05-17T07:44:15Z</time>
      </trkpt>
      <trkpt lat="41.4848160" lon="-8.7643760">
        <ele>10.0</ele>
        <time>2021-05-17T07:44:16Z</time>
      </trkpt>
      <trkpt lat="41.4848260" lon="-8.7643750">
        <ele>10.0</ele>
        <time>2021-05-17T07:44:17Z</time>
      </trkpt>
      <trkpt lat="41.4848370" lon="-8.7643740">
        <ele>10.0</ele>
        <time>2021-05-17T07:44:18Z</time>
      </trkpt>
      <trkpt lat="41.4848580" lon="-8.7643660">
        <ele>10.0</ele>
        <time>2021-05-17T07:44:19Z</time>
      </trkpt>
      <trkpt lat="41.4848780" lon="-8.7643710">
        <ele>10.0</ele>
        <time>2021-05-17T07:44:20Z</time>
      </trkpt>
      <trkpt lat="41.4848880" lon="-8.7643710">
        <ele>10.0</ele>
        <time>2021-05-17T07:44:21Z</time>
      </trkpt>
      <trkpt lat="41.4848990" lon="-8.7643700">
        <ele>10.0</ele>
        <time>2021-05-17T07:44:22Z</time>
      </trkpt>
      <trkpt lat="41.4849150" lon="-8.7643650">
        <ele>10.0</ele>
        <time>2021-05-17T07:44:23Z</time>
      </trkpt>
      <trkpt lat="41.4849260" lon="-8.7643580">
        <ele>9.9</ele>
        <time>2021-05-17T07:44:24Z</time>
      </trkpt>
      <trkpt lat="41.4849420" lon="-8.7643550">
        <ele>9.9</ele>
        <time>2021-05-17T07:44:25Z</time>
      </trkpt>
      <trkpt lat="41.4849590" lon="-8.7643500">
        <ele>9.9</ele>
        <time>2021-05-17T07:44:26Z</time>
      </trkpt>
      <trkpt lat="41.4849740" lon="-8.7643470">
        <ele>9.9</ele>
        <time>2021-05-17T07:44:27Z</time>
      </trkpt>
      <trkpt lat="41.4849900" lon="-8.7643490">
        <ele>9.9</ele>
        <time>2021-05-17T07:44:28Z</time>
      </trkpt>
      <trkpt lat="41.4850010" lon="-8.7643480">
        <ele>9.9</ele>
        <time>2021-05-17T07:44:29Z</time>
      </trkpt>
      <trkpt lat="41.4850190" lon="-8.7643470">
        <ele>9.9</ele>
        <time>2021-05-17T07:44:30Z</time>
      </trkpt>
      <trkpt lat="41.4850260" lon="-8.7643400">
        <ele>9.9</ele>
        <time>2021-05-17T07:44:31Z</time>
      </trkpt>
      <trkpt lat="41.4850430" lon="-8.7643290">
        <ele>9.9</ele>
        <time>2021-05-17T07:44:32Z</time>
      </trkpt>
      <trkpt lat="41.4850680" lon="-8.7643440">
        <ele>9.9</ele>
        <time>2021-05-17T07:44:33Z</time>
      </trkpt>
      <trkpt lat="41.4850780" lon="-8.7643500">
        <ele>9.9</ele>
        <time>2021-05-17T07:44:34Z</time>
      </trkpt>
      <trkpt lat="41.4851130" lon="-8.7643580">
        <ele>10.0</ele>
        <time>2021-05-17T07:44:35Z</time>
      </trkpt>
      <trkpt lat="41.4851290" lon="-8.7643580">
        <ele>10.0</ele>
        <time>2021-05-17T07:44:36Z</time>
      </trkpt>
      <trkpt lat="41.4851490" lon="-8.7643630">
        <ele>10.0</ele>
        <time>2021-05-17T07:44:37Z</time>
      </trkpt>
      <trkpt lat="41.4851630" lon="-8.7643650">
        <ele>10.0</ele>
        <time>2021-05-17T07:44:38Z</time>
      </trkpt>
      <trkpt lat="41.4851840" lon="-8.7643690">
        <ele>10.0</ele>
        <time>2021-05-17T07:44:39Z</time>
      </trkpt>
      <trkpt lat="41.4851980" lon="-8.7643640">
        <ele>10.0</ele>
        <time>2021-05-17T07:44:40Z</time>
      </trkpt>
      <trkpt lat="41.4852200" lon="-8.7643580">
        <ele>10.0</ele>
        <time>2021-05-17T07:44:41Z</time>
      </trkpt>
      <trkpt lat="41.4852290" lon="-8.7643530">
        <ele>10.0</ele>
        <time>2021-05-17T07:44:42Z</time>
      </trkpt>
      <trkpt lat="41.4852460" lon="-8.7643530">
        <ele>10.0</ele>
        <time>2021-05-17T07:44:43Z</time>
      </trkpt>
      <trkpt lat="41.4852550" lon="-8.7643520">
        <ele>10.1</ele>
        <time>2021-05-17T07:44:44Z</time>
      </trkpt>
      <trkpt lat="41.4852630" lon="-8.7643510">
        <ele>10.1</ele>
        <time>2021-05-17T07:44:45Z</time>
      </trkpt>
      <trkpt lat="41.4852710" lon="-8.7643500">
        <ele>10.1</ele>
        <time>2021-05-17T07:44:46Z</time>
      </trkpt>
      <trkpt lat="41.4852970" lon="-8.7643490">
        <ele>10.1</ele>
        <time>2021-05-17T07:44:47Z</time>
      </trkpt>
      <trkpt lat="41.4853080" lon="-8.7643480">
        <ele>10.1</ele>
        <time>2021-05-17T07:44:48Z</time>
      </trkpt>
      <trkpt lat="41.4853180" lon="-8.7643480">
        <ele>10.1</ele>
        <time>2021-05-17T07:44:49Z</time>
      </trkpt>
      <trkpt lat="41.4853290" lon="-8.7643470">
        <ele>10.1</ele>
        <time>2021-05-17T07:44:50Z</time>
      </trkpt>
      <trkpt lat="41.4853410" lon="-8.7643490">
        <ele>10.1</ele>
        <time>2021-05-17T07:44:51Z</time>
      </trkpt>
      <trkpt lat="41.4853540" lon="-8.7643440">
        <ele>10.1</ele>
        <time>2021-05-17T07:44:52Z</time>
      </trkpt>
      <trkpt lat="41.4853630" lon="-8.7643490">
        <ele>10.1</ele>
        <time>2021-05-17T07:44:53Z</time>
      </trkpt>
      <trkpt lat="41.4853720" lon="-8.7643580">
        <ele>10.1</ele>
        <time>2021-05-17T07:44:54Z</time>
      </trkpt>
      <trkpt lat="41.4853880" lon="-8.7643580">
        <ele>10.1</ele>
        <time>2021-05-17T07:44:55Z</time>
      </trkpt>
      <trkpt lat="41.4854040" lon="-8.7643580">
        <ele>10.2</ele>
        <time>2021-05-17T07:44:56Z</time>
      </trkpt>
      <trkpt lat="41.4854190" lon="-8.7643630">
        <ele>10.2</ele>
        <time>2021-05-17T07:44:57Z</time>
      </trkpt>
      <trkpt lat="41.4854440" lon="-8.7643620">
        <ele>10.2</ele>
        <time>2021-05-17T07:44:58Z</time>
      </trkpt>
      <trkpt lat="41.4854560" lon="-8.7643640">
        <ele>10.2</ele>
        <time>2021-05-17T07:44:59Z</time>
      </trkpt>
      <trkpt lat="41.4854670" lon="-8.7643650">
        <ele>10.2</ele>
        <time>2021-05-17T07:45:00Z</time>
      </trkpt>
      <trkpt lat="41.4854820" lon="-8.7643650">
        <ele>10.2</ele>
        <time>2021-05-17T07:45:01Z</time>
      </trkpt>
      <trkpt lat="41.4854910" lon="-8.7643650">
        <ele>10.2</ele>
        <time>2021-05-17T07:45:02Z</time>
      </trkpt>
      <trkpt lat="41.4855000" lon="-8.7643640">
        <ele>10.2</ele>
        <time>2021-05-17T07:45:03Z</time>
      </trkpt>
      <trkpt lat="41.4855090" lon="-8.7643630">
        <ele>10.2</ele>
        <time>2021-05-17T07:45:04Z</time>
      </trkpt>
      <trkpt lat="41.4855160" lon="-8.7643600">
        <ele>10.2</ele>
        <time>2021-05-17T07:45:05Z</time>
      </trkpt>
      <trkpt lat="41.4855350" lon="-8.7643540">
        <ele>10.2</ele>
        <time>2021-05-17T07:45:06Z</time>
      </trkpt>
      <trkpt lat="41.4855400" lon="-8.7643500">
        <ele>10.2</ele>
        <time>2021-05-17T07:45:07Z</time>
      </trkpt>
      <trkpt lat="41.4855490" lon="-8.7643550">
        <ele>10.2</ele>
        <time>2021-05-17T07:45:08Z</time>
      </trkpt>
      <trkpt lat="41.4855630" lon="-8.7643520">
        <ele>10.2</ele>
        <time>2021-05-17T07:45:09Z</time>
      </trkpt>
      <trkpt lat="41.4855780" lon="-8.7643580">
        <ele>10.2</ele>
        <time>2021-05-17T07:45:10Z</time>
      </trkpt>
      <trkpt lat="41.4855920" lon="-8.7643600">
        <ele>10.3</ele>
        <time>2021-05-17T07:45:11Z</time>
      </trkpt>
      <trkpt lat="41.4856050" lon="-8.7643640">
        <ele>10.3</ele>
        <time>2021-05-17T07:45:12Z</time>
      </trkpt>
      <trkpt lat="41.4856030" lon="-8.7643580">
        <ele>10.3</ele>
        <time>2021-05-17T07:45:13Z</time>
      </trkpt>
      <trkpt lat="41.4856000" lon="-8.7643530">
        <ele>10.3</ele>
        <time>2021-05-17T07:45:14Z</time>
      </trkpt>
      <trkpt lat="41.4856080" lon="-8.7643560">
        <ele>10.3</ele>
        <time>2021-05-17T07:45:15Z</time>
      </trkpt>
      <trkpt lat="41.4856200" lon="-8.7643500">
        <ele>10.3</ele>
        <time>2021-05-17T07:45:16Z</time>
      </trkpt>
      <trkpt lat="41.4856400" lon="-8.7643580">
        <ele>10.3</ele>
        <time>2021-05-17T07:45:17Z</time>
      </trkpt>
      <trkpt lat="41.4856470" lon="-8.7643620">
        <ele>10.3</ele>
        <time>2021-05-17T07:45:18Z</time>
      </trkpt>
      <trkpt lat="41.4856550" lon="-8.7643650">
        <ele>10.3</ele>
        <time>2021-05-17T07:45:19Z</time>
      </trkpt>
      <trkpt lat="41.4856710" lon="-8.7643600">
        <ele>10.3</ele>
        <time>2021-05-17T07:45:20Z</time>
      </trkpt>
      <trkpt lat="41.4856790" lon="-8.7643500">
        <ele>10.3</ele>
        <time>2021-05-17T07:45:21Z</time>
      </trkpt>
      <trkpt lat="41.4856890" lon="-8.7643500">
        <ele>10.3</ele>
        <time>2021-05-17T07:45:22Z</time>
      </trkpt>
      <trkpt lat="41.4857070" lon="-8.7643460">
        <ele>10.3</ele>
        <time>2021-05-17T07:45:23Z</time>
      </trkpt>
      <trkpt lat="41.4857190" lon="-8.7643400">
        <ele>10.3</ele>
        <time>2021-05-17T07:45:24Z</time>
      </trkpt>
      <trkpt lat="41.4857530" lon="-8.7643380">
        <ele>10.3</ele>
        <time>2021-05-17T07:45:25Z</time>
      </trkpt>
      <trkpt lat="41.4857600" lon="-8.7643350">
        <ele>10.3</ele>
        <time>2021-05-17T07:45:26Z</time>
      </trkpt>
      <trkpt lat="41.4857840" lon="-8.7643300">
        <ele>10.3</ele>
        <time>2021-05-17T07:45:27Z</time>
      </trkpt>
      <trkpt lat="41.4857910" lon="-8.7643280">
        <ele>10.3</ele>
        <time>2021-05-17T07:45:28Z</time>
      </trkpt>
      <trkpt lat="41.4857990" lon="-8.7643260">
        <ele>10.3</ele>
        <time>2021-05-17T07:45:29Z</time>
      </trkpt>
      <trkpt lat="41.4858220" lon="-8.7643240">
        <ele>10.3</ele>
        <time>2021-05-17T07:45:30Z</time>
      </trkpt>
      <trkpt lat="41.4858300" lon="-8.7643230">
        <ele>10.3</ele>
        <time>2021-05-17T07:45:31Z</time>
      </trkpt>
      <trkpt lat="41.4858380" lon="-8.7643230">
        <ele>10.3</ele>
        <time>2021-05-17T07:45:32Z</time>
      </trkpt>
      <trkpt lat="41.4858480" lon="-8.7643160">
        <ele>10.3</ele>
        <time>2021-05-17T07:45:33Z</time>
      </trkpt>
      <trkpt lat="41.4858600" lon="-8.7643160">
        <ele>10.3</ele>
        <time>2021-05-17T07:45:34Z</time>
      </trkpt>
      <trkpt lat="41.4858660" lon="-8.7643120">
        <ele>10.3</ele>
        <time>2021-05-17T07:45:35Z</time>
      </trkpt>
      <trkpt lat="41.4858770" lon="-8.7643100">
        <ele>10.3</ele>
        <time>2021-05-17T07:45:36Z</time>
      </trkpt>
      <trkpt lat="41.4858910" lon="-8.7643050">
        <ele>10.3</ele>
        <time>2021-05-17T07:45:37Z</time>
      </trkpt>
      <trkpt lat="41.4858980" lon="-8.7642970">
        <ele>10.3</ele>
        <time>2021-05-17T07:45:38Z</time>
      </trkpt>
      <trkpt lat="41.4859180" lon="-8.7642960">
        <ele>10.3</ele>
        <time>2021-05-17T07:45:39Z</time>
      </trkpt>
      <trkpt lat="41.4859350" lon="-8.7642920">
        <ele>10.3</ele>
        <time>2021-05-17T07:45:40Z</time>
      </trkpt>
      <trkpt lat="41.4859460" lon="-8.7642830">
        <ele>10.3</ele>
        <time>2021-05-17T07:45:41Z</time>
      </trkpt>
      <trkpt lat="41.4859540" lon="-8.7642810">
        <ele>10.3</ele>
        <time>2021-05-17T07:45:42Z</time>
      </trkpt>
      <trkpt lat="41.4859680" lon="-8.7642770">
        <ele>10.3</ele>
        <time>2021-05-17T07:45:43Z</time>
      </trkpt>
      <trkpt lat="41.4859790" lon="-8.7642750">
        <ele>10.3</ele>
        <time>2021-05-17T07:45:44Z</time>
      </trkpt>
      <trkpt lat="41.4859900" lon="-8.7642700">
        <ele>10.3</ele>
        <time>2021-05-17T07:45:45Z</time>
      </trkpt>
      <trkpt lat="41.4859990" lon="-8.7642710">
        <ele>10.3</ele>
        <time>2021-05-17T07:45:46Z</time>
      </trkpt>
      <trkpt lat="41.4860110" lon="-8.7642670">
        <ele>10.3</ele>
        <time>2021-05-17T07:45:47Z</time>
      </trkpt>
      <trkpt lat="41.4860210" lon="-8.7642700">
        <ele>10.3</ele>
        <time>2021-05-17T07:45:48Z</time>
      </trkpt>
      <trkpt lat="41.4860320" lon="-8.7642710">
        <ele>10.3</ele>
        <time>2021-05-17T07:45:49Z</time>
      </trkpt>
      <trkpt lat="41.4860370" lon="-8.7642720">
        <ele>10.3</ele>
        <time>2021-05-17T07:45:50Z</time>
      </trkpt>
      <trkpt lat="41.4860630" lon="-8.7642770">
        <ele>10.3</ele>
        <time>2021-05-17T07:45:51Z</time>
      </trkpt>
      <trkpt lat="41.4860970" lon="-8.7642770">
        <ele>10.3</ele>
        <time>2021-05-17T07:45:52Z</time>
      </trkpt>
      <trkpt lat="41.4861080" lon="-8.7642760">
        <ele>10.3</ele>
        <time>2021-05-17T07:45:53Z</time>
      </trkpt>
      <trkpt lat="41.4861270" lon="-8.7642720">
        <ele>10.3</ele>
        <time>2021-05-17T07:45:54Z</time>
      </trkpt>
      <trkpt lat="41.4861400" lon="-8.7642640">
        <ele>10.3</ele>
        <time>2021-05-17T07:45:55Z</time>
      </trkpt>
      <trkpt lat="41.4861600" lon="-8.7642610">
        <ele>10.3</ele>
        <time>2021-05-17T07:45:56Z</time>
      </trkpt>
      <trkpt lat="41.4861730" lon="-8.7642560">
        <ele>10.3</ele>
        <time>2021-05-17T07:45:57Z</time>
      </trkpt>
      <trkpt lat="41.4862080" lon="-8.7642520">
        <ele>10.3</ele>
        <time>2021-05-17T07:45:58Z</time>
      </trkpt>
      <trkpt lat="41.4862200" lon="-8.7642510">
        <ele>10.3</ele>
        <time>2021-05-17T07:45:59Z</time>
      </trkpt>
      <trkpt lat="41.4862350" lon="-8.7642570">
        <ele>10.3</ele>
        <time>2021-05-17T07:46:00Z</time>
      </trkpt>
      <trkpt lat="41.4862440" lon="-8.7642490">
        <ele>10.3</ele>
        <time>2021-05-17T07:46:01Z</time>
      </trkpt>
      <trkpt lat="41.4862500" lon="-8.7642520">
        <ele>10.3</ele>
        <time>2021-05-17T07:46:02Z</time>
      </trkpt>
      <trkpt lat="41.4862670" lon="-8.7642410">
        <ele>10.3</ele>
        <time>2021-05-17T07:46:03Z</time>
      </trkpt>
      <trkpt lat="41.4862780" lon="-8.7642430">
        <ele>10.3</ele>
        <time>2021-05-17T07:46:04Z</time>
      </trkpt>
      <trkpt lat="41.4862840" lon="-8.7642390">
        <ele>10.3</ele>
        <time>2021-05-17T07:46:05Z</time>
      </trkpt>
      <trkpt lat="41.4862900" lon="-8.7642310">
        <ele>10.3</ele>
        <time>2021-05-17T07:46:06Z</time>
      </trkpt>
      <trkpt lat="41.4863040" lon="-8.7642260">
        <ele>10.3</ele>
        <time>2021-05-17T07:46:07Z</time>
      </trkpt>
      <trkpt lat="41.4863190" lon="-8.7642210">
        <ele>10.3</ele>
        <time>2021-05-17T07:46:08Z</time>
      </trkpt>
      <trkpt lat="41.4863300" lon="-8.7642150">
        <ele>10.3</ele>
        <time>2021-05-17T07:46:09Z</time>
      </trkpt>
      <trkpt lat="41.4863460" lon="-8.7642060">
        <ele>10.3</ele>
        <time>2021-05-17T07:46:10Z</time>
      </trkpt>
      <trkpt lat="41.4863530" lon="-8.7642040">
        <ele>10.3</ele>
        <time>2021-05-17T07:46:11Z</time>
      </trkpt>
      <trkpt lat="41.4863590" lon="-8.7642010">
        <ele>10.3</ele>
        <time>2021-05-17T07:46:12Z</time>
      </trkpt>
      <trkpt lat="41.4863650" lon="-8.7641990">
        <ele>10.3</ele>
        <time>2021-05-17T07:46:13Z</time>
      </trkpt>
      <trkpt lat="41.4863730" lon="-8.7641990">
        <ele>10.3</ele>
        <time>2021-05-17T07:46:14Z</time>
      </trkpt>
      <trkpt lat="41.4863810" lon="-8.7641940">
        <ele>10.3</ele>
        <time>2021-05-17T07:46:15Z</time>
      </trkpt>
      <trkpt lat="41.4863930" lon="-8.7641920">
        <ele>10.3</ele>
        <time>2021-05-17T07:46:16Z</time>
      </trkpt>
      <trkpt lat="41.4864060" lon="-8.7641980">
        <ele>10.3</ele>
        <time>2021-05-17T07:46:17Z</time>
      </trkpt>
      <trkpt lat="41.4864210" lon="-8.7642050">
        <ele>10.3</ele>
        <time>2021-05-17T07:46:18Z</time>
      </trkpt>
      <trkpt lat="41.4864440" lon="-8.7642150">
        <ele>10.3</ele>
        <time>2021-05-17T07:46:19Z</time>
      </trkpt>
      <trkpt lat="41.4864560" lon="-8.7642080">
        <ele>10.3</ele>
        <time>2021-05-17T07:46:20Z</time>
      </trkpt>
      <trkpt lat="41.4864690" lon="-8.7642070">
        <ele>10.3</ele>
        <time>2021-05-17T07:46:21Z</time>
      </trkpt>
      <trkpt lat="41.4864840" lon="-8.7642140">
        <ele>10.3</ele>
        <time>2021-05-17T07:46:22Z</time>
      </trkpt>
      <trkpt lat="41.4865080" lon="-8.7642340">
        <ele>10.2</ele>
        <time>2021-05-17T07:46:23Z</time>
      </trkpt>
      <trkpt lat="41.4865160" lon="-8.7642450">
        <ele>10.2</ele>
        <time>2021-05-17T07:46:24Z</time>
      </trkpt>
      <trkpt lat="41.4865240" lon="-8.7642550">
        <ele>10.2</ele>
        <time>2021-05-17T07:46:25Z</time>
      </trkpt>
      <trkpt lat="41.4865290" lon="-8.7642580">
        <ele>10.2</ele>
        <time>2021-05-17T07:46:26Z</time>
      </trkpt>
      <trkpt lat="41.4865330" lon="-8.7642610">
        <ele>10.2</ele>
        <time>2021-05-17T07:46:27Z</time>
      </trkpt>
      <trkpt lat="41.4865390" lon="-8.7642810">
        <ele>10.2</ele>
        <time>2021-05-17T07:46:28Z</time>
      </trkpt>
      <trkpt lat="41.4865530" lon="-8.7642820">
        <ele>10.2</ele>
        <time>2021-05-17T07:46:29Z</time>
      </trkpt>
      <trkpt lat="41.4865810" lon="-8.7642920">
        <ele>10.1</ele>
        <time>2021-05-17T07:46:30Z</time>
      </trkpt>
      <trkpt lat="41.4865900" lon="-8.7642970">
        <ele>10.1</ele>
        <time>2021-05-17T07:46:31Z</time>
      </trkpt>
      <trkpt lat="41.4866050" lon="-8.7643120">
        <ele>10.1</ele>
        <time>2021-05-17T07:46:32Z</time>
      </trkpt>
      <trkpt lat="41.4866120" lon="-8.7643230">
        <ele>10.1</ele>
        <time>2021-05-17T07:46:33Z</time>
      </trkpt>
      <trkpt lat="41.4866140" lon="-8.7643300">
        <ele>10.1</ele>
        <time>2021-05-17T07:46:34Z</time>
      </trkpt>
      <trkpt lat="41.4866170" lon="-8.7643470">
        <ele>10.1</ele>
        <time>2021-05-17T07:46:35Z</time>
      </trkpt>
      <trkpt lat="41.4866250" lon="-8.7643560">
        <ele>10.0</ele>
        <time>2021-05-17T07:46:36Z</time>
      </trkpt>
      <trkpt lat="41.4866440" lon="-8.7643770">
        <ele>10.0</ele>
        <time>2021-05-17T07:46:37Z</time>
      </trkpt>
      <trkpt lat="41.4866550" lon="-8.7643820">
        <ele>10.0</ele>
        <time>2021-05-17T07:46:38Z</time>
      </trkpt>
      <trkpt lat="41.4866670" lon="-8.7643880">
        <ele>10.0</ele>
        <time>2021-05-17T07:46:39Z</time>
      </trkpt>
      <trkpt lat="41.4866980" lon="-8.7643990">
        <ele>9.9</ele>
        <time>2021-05-17T07:46:40Z</time>
      </trkpt>
      <trkpt lat="41.4867050" lon="-8.7644020">
        <ele>9.9</ele>
        <time>2021-05-17T07:46:41Z</time>
      </trkpt>
      <trkpt lat="41.4867260" lon="-8.7644080">
        <ele>9.9</ele>
        <time>2021-05-17T07:46:42Z</time>
      </trkpt>
      <trkpt lat="41.4867340" lon="-8.7644130">
        <ele>9.9</ele>
        <time>2021-05-17T07:46:43Z</time>
      </trkpt>
      <trkpt lat="41.4867420" lon="-8.7644180">
        <ele>9.9</ele>
        <time>2021-05-17T07:46:44Z</time>
      </trkpt>
      <trkpt lat="41.4867580" lon="-8.7644320">
        <ele>9.8</ele>
        <time>2021-05-17T07:46:45Z</time>
      </trkpt>
      <trkpt lat="41.4867670" lon="-8.7644360">
        <ele>9.8</ele>
        <time>2021-05-17T07:46:46Z</time>
      </trkpt>
      <trkpt lat="41.4867760" lon="-8.7644390">
        <ele>9.8</ele>
        <time>2021-05-17T07:46:47Z</time>
      </trkpt>
      <trkpt lat="41.4867940" lon="-8.7644480">
        <ele>9.8</ele>
        <time>2021-05-17T07:46:48Z</time>
      </trkpt>
      <trkpt lat="41.4868030" lon="-8.7644540">
        <ele>9.7</ele>
        <time>2021-05-17T07:46:49Z</time>
      </trkpt>
      <trkpt lat="41.4868220" lon="-8.7644600">
        <ele>9.7</ele>
        <time>2021-05-17T07:46:50Z</time>
      </trkpt>
      <trkpt lat="41.4868320" lon="-8.7644620">
        <ele>9.7</ele>
        <time>2021-05-17T07:46:51Z</time>
      </trkpt>
      <trkpt lat="41.4868410" lon="-8.7644640">
        <ele>9.7</ele>
        <time>2021-05-17T07:46:52Z</time>
      </trkpt>
      <trkpt lat="41.4868540" lon="-8.7644720">
        <ele>9.7</ele>
        <time>2021-05-17T07:46:53Z</time>
      </trkpt>
      <trkpt lat="41.4868670" lon="-8.7644770">
        <ele>9.6</ele>
        <time>2021-05-17T07:46:54Z</time>
      </trkpt>
      <trkpt lat="41.4868780" lon="-8.7644840">
        <ele>9.6</ele>
        <time>2021-05-17T07:46:55Z</time>
      </trkpt>
      <trkpt lat="41.4868980" lon="-8.7644960">
        <ele>9.6</ele>
        <time>2021-05-17T07:46:56Z</time>
      </trkpt>
      <trkpt lat="41.4869100" lon="-8.7645090">
        <ele>9.6</ele>
        <time>2021-05-17T07:46:57Z</time>
      </trkpt>
      <trkpt lat="41.4869250" lon="-8.7645270">
        <ele>9.5</ele>
        <time>2021-05-17T07:46:58Z</time>
      </trkpt>
      <trkpt lat="41.4869340" lon="-8.7645300">
        <ele>9.5</ele>
        <time>2021-05-17T07:46:59Z</time>
      </trkpt>
      <trkpt lat="41.4869570" lon="-8.7645390">
        <ele>9.5</ele>
        <time>2021-05-17T07:47:00Z</time>
      </trkpt>
      <trkpt lat="41.4869680" lon="-8.7645510">
        <ele>9.5</ele>
        <time>2021-05-17T07:47:01Z</time>
      </trkpt>
      <trkpt lat="41.4869710" lon="-8.7645630">
        <ele>9.4</ele>
        <time>2021-05-17T07:47:02Z</time>
      </trkpt>
      <trkpt lat="41.4869810" lon="-8.7645700">
        <ele>9.4</ele>
        <time>2021-05-17T07:47:03Z</time>
      </trkpt>
      <trkpt lat="41.4869860" lon="-8.7645840">
        <ele>9.4</ele>
        <time>2021-05-17T07:47:04Z</time>
      </trkpt>
      <trkpt lat="41.4870040" lon="-8.7645980">
        <ele>9.4</ele>
        <time>2021-05-17T07:47:05Z</time>
      </trkpt>
      <trkpt lat="41.4870140" lon="-8.7646130">
        <ele>9.4</ele>
        <time>2021-05-17T07:47:06Z</time>
      </trkpt>
      <trkpt lat="41.4870300" lon="-8.7646260">
        <ele>9.4</ele>
        <time>2021-05-17T07:47:07Z</time>
      </trkpt>
      <trkpt lat="41.4870590" lon="-8.7646480">
        <ele>9.3</ele>
        <time>2021-05-17T07:47:08Z</time>
      </trkpt>
      <trkpt lat="41.4870690" lon="-8.7646580">
        <ele>9.3</ele>
        <time>2021-05-17T07:47:09Z</time>
      </trkpt>
      <trkpt lat="41.4870860" lon="-8.7646680">
        <ele>9.3</ele>
        <time>2021-05-17T07:47:10Z</time>
      </trkpt>
      <trkpt lat="41.4870990" lon="-8.7646810">
        <ele>9.3</ele>
        <time>2021-05-17T07:47:11Z</time>
      </trkpt>
      <trkpt lat="41.4871300" lon="-8.7646910">
        <ele>9.3</ele>
        <time>2021-05-17T07:47:12Z</time>
      </trkpt>
      <trkpt lat="41.4871420" lon="-8.7646930">
        <ele>9.2</ele>
        <time>2021-05-17T07:47:13Z</time>
      </trkpt>
      <trkpt lat="41.4871590" lon="-8.7647000">
        <ele>9.2</ele>
        <time>2021-05-17T07:47:14Z</time>
      </trkpt>
      <trkpt lat="41.4871730" lon="-8.7647050">
        <ele>9.2</ele>
        <time>2021-05-17T07:47:15Z</time>
      </trkpt>
      <trkpt lat="41.4871880" lon="-8.7647170">
        <ele>9.2</ele>
        <time>2021-05-17T07:47:16Z</time>
      </trkpt>
      <trkpt lat="41.4872020" lon="-8.7647220">
        <ele>9.2</ele>
        <time>2021-05-17T07:47:17Z</time>
      </trkpt>
      <trkpt lat="41.4872180" lon="-8.7647320">
        <ele>9.2</ele>
        <time>2021-05-17T07:47:18Z</time>
      </trkpt>
      <trkpt lat="41.4872340" lon="-8.7647360">
        <ele>9.2</ele>
        <time>2021-05-17T07:47:19Z</time>
      </trkpt>
      <trkpt lat="41.4872500" lon="-8.7647420">
        <ele>9.2</ele>
        <time>2021-05-17T07:47:20Z</time>
      </trkpt>
      <trkpt lat="41.4872650" lon="-8.7647450">
        <ele>9.2</ele>
        <time>2021-05-17T07:47:21Z</time>
      </trkpt>
      <trkpt lat="41.4872790" lon="-8.7647540">
        <ele>9.1</ele>
        <time>2021-05-17T07:47:22Z</time>
      </trkpt>
      <trkpt lat="41.4872930" lon="-8.7647580">
        <ele>9.1</ele>
        <time>2021-05-17T07:47:23Z</time>
      </trkpt>
      <trkpt lat="41.4873030" lon="-8.7647570">
        <ele>9.1</ele>
        <time>2021-05-17T07:47:24Z</time>
      </trkpt>
      <trkpt lat="41.4873090" lon="-8.7647630">
        <ele>9.1</ele>
        <time>2021-05-17T07:47:25Z</time>
      </trkpt>
      <trkpt lat="41.4873140" lon="-8.7647730">
        <ele>9.1</ele>
        <time>2021-05-17T07:47:26Z</time>
      </trkpt>
      <trkpt lat="41.4873230" lon="-8.7647850">
        <ele>9.1</ele>
        <time>2021-05-17T07:47:27Z</time>
      </trkpt>
      <trkpt lat="41.4873360" lon="-8.7647930">
        <ele>9.1</ele>
        <time>2021-05-17T07:47:28Z</time>
      </trkpt>
      <trkpt lat="41.4873480" lon="-8.7648000">
        <ele>9.1</ele>
        <time>2021-05-17T07:47:29Z</time>
      </trkpt>
      <trkpt lat="41.4873580" lon="-8.7648100">
        <ele>9.1</ele>
        <time>2021-05-17T07:47:30Z</time>
      </trkpt>
      <trkpt lat="41.4873650" lon="-8.7648100">
        <ele>9.1</ele>
        <time>2021-05-17T07:47:31Z</time>
      </trkpt>
      <trkpt lat="41.4873740" lon="-8.7648140">
        <ele>9.1</ele>
        <time>2021-05-17T07:47:32Z</time>
      </trkpt>
      <trkpt lat="41.4873830" lon="-8.7648140">
        <ele>9.1</ele>
        <time>2021-05-17T07:47:33Z</time>
      </trkpt>
      <trkpt lat="41.4873930" lon="-8.7648200">
        <ele>9.0</ele>
        <time>2021-05-17T07:47:34Z</time>
      </trkpt>
      <trkpt lat="41.4874030" lon="-8.7648220">
        <ele>9.0</ele>
        <time>2021-05-17T07:47:35Z</time>
      </trkpt>
      <trkpt lat="41.4874190" lon="-8.7648270">
        <ele>9.0</ele>
        <time>2021-05-17T07:47:36Z</time>
      </trkpt>
      <trkpt lat="41.4874320" lon="-8.7648270">
        <ele>9.0</ele>
        <time>2021-05-17T07:47:37Z</time>
      </trkpt>
      <trkpt lat="41.4874530" lon="-8.7648340">
        <ele>9.0</ele>
        <time>2021-05-17T07:47:38Z</time>
      </trkpt>
      <trkpt lat="41.4874610" lon="-8.7648370">
        <ele>9.0</ele>
        <time>2021-05-17T07:47:39Z</time>
      </trkpt>
      <trkpt lat="41.4874690" lon="-8.7648400">
        <ele>9.0</ele>
        <time>2021-05-17T07:47:40Z</time>
      </trkpt>
      <trkpt lat="41.4874880" lon="-8.7648400">
        <ele>9.0</ele>
        <time>2021-05-17T07:47:41Z</time>
      </trkpt>
      <trkpt lat="41.4874970" lon="-8.7648420">
        <ele>9.0</ele>
        <time>2021-05-17T07:47:42Z</time>
      </trkpt>
      <trkpt lat="41.4875050" lon="-8.7648450">
        <ele>9.0</ele>
        <time>2021-05-17T07:47:43Z</time>
      </trkpt>
      <trkpt lat="41.4875140" lon="-8.7648470">
        <ele>9.0</ele>
        <time>2021-05-17T07:47:44Z</time>
      </trkpt>
      <trkpt lat="41.4875280" lon="-8.7648470">
        <ele>9.0</ele>
        <time>2021-05-17T07:47:45Z</time>
      </trkpt>
      <trkpt lat="41.4875360" lon="-8.7648400">
        <ele>9.0</ele>
        <time>2021-05-17T07:47:46Z</time>
      </trkpt>
      <trkpt lat="41.4875470" lon="-8.7648410">
        <ele>9.0</ele>
        <time>2021-05-17T07:47:47Z</time>
      </trkpt>
      <trkpt lat="41.4875610" lon="-8.7648350">
        <ele>9.0</ele>
        <time>2021-05-17T07:47:48Z</time>
      </trkpt>
      <trkpt lat="41.4875740" lon="-8.7648310">
        <ele>9.0</ele>
        <time>2021-05-17T07:47:49Z</time>
      </trkpt>
      <trkpt lat="41.4875940" lon="-8.7648260">
        <ele>9.0</ele>
        <time>2021-05-17T07:47:50Z</time>
      </trkpt>
      <trkpt lat="41.4876080" lon="-8.7648220">
        <ele>9.0</ele>
        <time>2021-05-17T07:47:51Z</time>
      </trkpt>
      <trkpt lat="41.4876160" lon="-8.7648260">
        <ele>9.0</ele>
        <time>2021-05-17T07:47:52Z</time>
      </trkpt>
      <trkpt lat="41.4876380" lon="-8.7648220">
        <ele>9.0</ele>
        <time>2021-05-17T07:47:53Z</time>
      </trkpt>
      <trkpt lat="41.4876520" lon="-8.7648180">
        <ele>9.0</ele>
        <time>2021-05-17T07:47:54Z</time>
      </trkpt>
      <trkpt lat="41.4876720" lon="-8.7648140">
        <ele>9.0</ele>
        <time>2021-05-17T07:47:55Z</time>
      </trkpt>
      <trkpt lat="41.4876940" lon="-8.7648040">
        <ele>9.0</ele>
        <time>2021-05-17T07:47:56Z</time>
      </trkpt>
      <trkpt lat="41.4877030" lon="-8.7647980">
        <ele>9.0</ele>
        <time>2021-05-17T07:47:57Z</time>
      </trkpt>
      <trkpt lat="41.4877130" lon="-8.7647910">
        <ele>9.0</ele>
        <time>2021-05-17T07:47:58Z</time>
      </trkpt>
      <trkpt lat="41.4877220" lon="-8.7647770">
        <ele>9.0</ele>
        <time>2021-05-17T07:47:59Z</time>
      </trkpt>
      <trkpt lat="41.4877410" lon="-8.7647700">
        <ele>9.0</ele>
        <time>2021-05-17T07:48:00Z</time>
      </trkpt>
      <trkpt lat="41.4877490" lon="-8.7647600">
        <ele>9.0</ele>
        <time>2021-05-17T07:48:01Z</time>
      </trkpt>
      <trkpt lat="41.4877630" lon="-8.7647470">
        <ele>9.0</ele>
        <time>2021-05-17T07:48:02Z</time>
      </trkpt>
      <trkpt lat="41.4877800" lon="-8.7647370">
        <ele>9.1</ele>
        <time>2021-05-17T07:48:03Z</time>
      </trkpt>
      <trkpt lat="41.4877890" lon="-8.7647330">
        <ele>9.1</ele>
        <time>2021-05-17T07:48:04Z</time>
      </trkpt>
      <trkpt lat="41.4877970" lon="-8.7647280">
        <ele>9.1</ele>
        <time>2021-05-17T07:48:05Z</time>
      </trkpt>
      <trkpt lat="41.4878050" lon="-8.7647240">
        <ele>9.1</ele>
        <time>2021-05-17T07:48:06Z</time>
      </trkpt>
      <trkpt lat="41.4878230" lon="-8.7647100">
        <ele>9.1</ele>
        <time>2021-05-17T07:48:07Z</time>
      </trkpt>
      <trkpt lat="41.4878330" lon="-8.7646980">
        <ele>9.1</ele>
        <time>2021-05-17T07:48:08Z</time>
      </trkpt>
      <trkpt lat="41.4878440" lon="-8.7647010">
        <ele>9.1</ele>
        <time>2021-05-17T07:48:09Z</time>
      </trkpt>
      <trkpt lat="41.4878540" lon="-8.7647020">
        <ele>9.1</ele>
        <time>2021-05-17T07:48:10Z</time>
      </trkpt>
      <trkpt lat="41.4878660" lon="-8.7647050">
        <ele>9.1</ele>
        <time>2021-05-17T07:48:11Z</time>
      </trkpt>
      <trkpt lat="41.4878770" lon="-8.7647070">
        <ele>9.2</ele>
        <time>2021-05-17T07:48:12Z</time>
      </trkpt>
      <trkpt lat="41.4878880" lon="-8.7647120">
        <ele>9.2</ele>
        <time>2021-05-17T07:48:13Z</time>
      </trkpt>
      <trkpt lat="41.4878940" lon="-8.7647150">
        <ele>9.2</ele>
        <time>2021-05-17T07:48:14Z</time>
      </trkpt>
      <trkpt lat="41.4878990" lon="-8.7647170">
        <ele>9.2</ele>
        <time>2021-05-17T07:48:15Z</time>
      </trkpt>
      <trkpt lat="41.4879100" lon="-8.7647240">
        <ele>9.2</ele>
        <time>2021-05-17T07:48:16Z</time>
      </trkpt>
      <trkpt lat="41.4879190" lon="-8.7647180">
        <ele>9.2</ele>
        <time>2021-05-17T07:48:17Z</time>
      </trkpt>
      <trkpt lat="41.4879350" lon="-8.7647180">
        <ele>9.2</ele>
        <time>2021-05-17T07:48:18Z</time>
      </trkpt>
      <trkpt lat="41.4879480" lon="-8.7647180">
        <ele>9.2</ele>
        <time>2021-05-17T07:48:19Z</time>
      </trkpt>
      <trkpt lat="41.4879560" lon="-8.7647160">
        <ele>9.2</ele>
        <time>2021-05-17T07:48:20Z</time>
      </trkpt>
      <trkpt lat="41.4879660" lon="-8.7647160">
        <ele>9.2</ele>
        <time>2021-05-17T07:48:21Z</time>
      </trkpt>
      <trkpt lat="41.4879840" lon="-8.7647230">
        <ele>9.2</ele>
        <time>2021-05-17T07:48:22Z</time>
      </trkpt>
      <trkpt lat="41.4880040" lon="-8.7647200">
        <ele>9.3</ele>
        <time>2021-05-17T07:48:23Z</time>
      </trkpt>
      <trkpt lat="41.4880150" lon="-8.7647250">
        <ele>9.3</ele>
        <time>2021-05-17T07:48:24Z</time>
      </trkpt>
      <trkpt lat="41.4880280" lon="-8.7647250">
        <ele>9.3</ele>
        <time>2021-05-17T07:48:25Z</time>
      </trkpt>
      <trkpt lat="41.4880480" lon="-8.7647260">
        <ele>9.3</ele>
        <time>2021-05-17T07:48:26Z</time>
      </trkpt>
      <trkpt lat="41.4880620" lon="-8.7647290">
        <ele>9.3</ele>
        <time>2021-05-17T07:48:27Z</time>
      </trkpt>
      <trkpt lat="41.4880790" lon="-8.7647290">
        <ele>9.3</ele>
        <time>2021-05-17T07:48:28Z</time>
      </trkpt>
      <trkpt lat="41.4880950" lon="-8.7647270">
        <ele>9.3</ele>
        <time>2021-05-17T07:48:29Z</time>
      </trkpt>
      <trkpt lat="41.4881100" lon="-8.7647310">
        <ele>9.4</ele>
        <time>2021-05-17T07:48:30Z</time>
      </trkpt>
      <trkpt lat="41.4881310" lon="-8.7647370">
        <ele>9.4</ele>
        <time>2021-05-17T07:48:31Z</time>
      </trkpt>
      <trkpt lat="41.4881400" lon="-8.7647380">
        <ele>9.4</ele>
        <time>2021-05-17T07:48:32Z</time>
      </trkpt>
      <trkpt lat="41.4881490" lon="-8.7647380">
        <ele>9.4</ele>
        <time>2021-05-17T07:48:33Z</time>
      </trkpt>
      <trkpt lat="41.4881630" lon="-8.7647310">
        <ele>9.4</ele>
        <time>2021-05-17T07:48:34Z</time>
      </trkpt>
      <trkpt lat="41.4881760" lon="-8.7647340">
        <ele>9.4</ele>
        <time>2021-05-17T07:48:35Z</time>
      </trkpt>
      <trkpt lat="41.4881910" lon="-8.7647310">
        <ele>9.4</ele>
        <time>2021-05-17T07:48:36Z</time>
      </trkpt>
      <trkpt lat="41.4882060" lon="-8.7647300">
        <ele>9.4</ele>
        <time>2021-05-17T07:48:37Z</time>
      </trkpt>
      <trkpt lat="41.4882350" lon="-8.7647350">
        <ele>9.5</ele>
        <time>2021-05-17T07:48:38Z</time>
      </trkpt>
      <trkpt lat="41.4882430" lon="-8.7647340">
        <ele>9.5</ele>
        <time>2021-05-17T07:48:39Z</time>
      </trkpt>
      <trkpt lat="41.4882570" lon="-8.7647360">
        <ele>9.5</ele>
        <time>2021-05-17T07:48:40Z</time>
      </trkpt>
      <trkpt lat="41.4882670" lon="-8.7647380">
        <ele>9.5</ele>
        <time>2021-05-17T07:48:41Z</time>
      </trkpt>
      <trkpt lat="41.4882770" lon="-8.7647320">
        <ele>9.5</ele>
        <time>2021-05-17T07:48:42Z</time>
      </trkpt>
      <trkpt lat="41.4883070" lon="-8.7647310">
        <ele>9.5</ele>
        <time>2021-05-17T07:48:43Z</time>
      </trkpt>
      <trkpt lat="41.4883160" lon="-8.7647310">
        <ele>9.5</ele>
        <time>2021-05-17T07:48:44Z</time>
      </trkpt>
      <trkpt lat="41.4883360" lon="-8.7647230">
        <ele>9.5</ele>
        <time>2021-05-17T07:48:45Z</time>
      </trkpt>
      <trkpt lat="41.4883510" lon="-8.7647270">
        <ele>9.5</ele>
        <time>2021-05-17T07:48:46Z</time>
      </trkpt>
      <trkpt lat="41.4883630" lon="-8.7647290">
        <ele>9.5</ele>
        <time>2021-05-17T07:48:47Z</time>
      </trkpt>
      <trkpt lat="41.4883820" lon="-8.7647320">
        <ele>9.5</ele>
        <time>2021-05-17T07:48:48Z</time>
      </trkpt>
      <trkpt lat="41.4883970" lon="-8.7647320">
        <ele>9.5</ele>
        <time>2021-05-17T07:48:49Z</time>
      </trkpt>
      <trkpt lat="41.4884110" lon="-8.7647360">
        <ele>9.5</ele>
        <time>2021-05-17T07:48:50Z</time>
      </trkpt>
      <trkpt lat="41.4884290" lon="-8.7647420">
        <ele>9.5</ele>
        <time>2021-05-17T07:48:51Z</time>
      </trkpt>
      <trkpt lat="41.4884460" lon="-8.7647480">
        <ele>9.5</ele>
        <time>2021-05-17T07:48:52Z</time>
      </trkpt>
      <trkpt lat="41.4884590" lon="-8.7647450">
        <ele>9.5</ele>
        <time>2021-05-17T07:48:53Z</time>
      </trkpt>
      <trkpt lat="41.4884760" lon="-8.7647450">
        <ele>9.5</ele>
        <time>2021-05-17T07:48:54Z</time>
      </trkpt>
      <trkpt lat="41.4884930" lon="-8.7647400">
        <ele>9.5</ele>
        <time>2021-05-17T07:48:55Z</time>
      </trkpt>
      <trkpt lat="41.4885050" lon="-8.7647420">
        <ele>9.5</ele>
        <time>2021-05-17T07:48:56Z</time>
      </trkpt>
      <trkpt lat="41.4885150" lon="-8.7647380">
        <ele>9.5</ele>
        <time>2021-05-17T07:48:57Z</time>
      </trkpt>
      <trkpt lat="41.4885290" lon="-8.7647350">
        <ele>9.5</ele>
        <time>2021-05-17T07:48:58Z</time>
      </trkpt>
      <trkpt lat="41.4885400" lon="-8.7647410">
        <ele>9.5</ele>
        <time>2021-05-17T07:48:59Z</time>
      </trkpt>
      <trkpt lat="41.4885450" lon="-8.7647450">
        <ele>9.5</ele>
        <time>2021-05-17T07:49:00Z</time>
      </trkpt>
      <trkpt lat="41.4885580" lon="-8.7647410">
        <ele>9.5</ele>
        <time>2021-05-17T07:49:01Z</time>
      </trkpt>
      <trkpt lat="41.4885710" lon="-8.7647360">
        <ele>9.5</ele>
        <time>2021-05-17T07:49:02Z</time>
      </trkpt>
      <trkpt lat="41.4885890" lon="-8.7647420">
        <ele>9.5</ele>
        <time>2021-05-17T07:49:03Z</time>
      </trkpt>
      <trkpt lat="41.4886040" lon="-8.7647430">
        <ele>9.5</ele>
        <time>2021-05-17T07:49:04Z</time>
      </trkpt>
      <trkpt lat="41.4886210" lon="-8.7647430">
        <ele>9.5</ele>
        <time>2021-05-17T07:49:05Z</time>
      </trkpt>
      <trkpt lat="41.4886350" lon="-8.7647420">
        <ele>9.5</ele>
        <time>2021-05-17T07:49:06Z</time>
      </trkpt>
      <trkpt lat="41.4886490" lon="-8.7647450">
        <ele>9.5</ele>
        <time>2021-05-17T07:49:07Z</time>
      </trkpt>
      <trkpt lat="41.4886610" lon="-8.7647530">
        <ele>9.5</ele>
        <time>2021-05-17T07:49:08Z</time>
      </trkpt>
      <trkpt lat="41.4886760" lon="-8.7647510">
        <ele>9.5</ele>
        <time>2021-05-17T07:49:09Z</time>
      </trkpt>
      <trkpt lat="41.4886930" lon="-8.7647550">
        <ele>9.5</ele>
        <time>2021-05-17T07:49:10Z</time>
      </trkpt>
      <trkpt lat="41.4887110" lon="-8.7647580">
        <ele>9.5</ele>
        <time>2021-05-17T07:49:11Z</time>
      </trkpt>
      <trkpt lat="41.4887270" lon="-8.7647590">
        <ele>9.5</ele>
        <time>2021-05-17T07:49:12Z</time>
      </trkpt>
      <trkpt lat="41.4887480" lon="-8.7647580">
        <ele>9.5</ele>
        <time>2021-05-17T07:49:13Z</time>
      </trkpt>
      <trkpt lat="41.4887570" lon="-8.7647570">
        <ele>9.5</ele>
        <time>2021-05-17T07:49:14Z</time>
      </trkpt>
      <trkpt lat="41.4887650" lon="-8.7647570">
        <ele>9.5</ele>
        <time>2021-05-17T07:49:15Z</time>
      </trkpt>
      <trkpt lat="41.4887810" lon="-8.7647600">
        <ele>9.5</ele>
        <time>2021-05-17T07:49:16Z</time>
      </trkpt>
      <trkpt lat="41.4887940" lon="-8.7647560">
        <ele>9.5</ele>
        <time>2021-05-17T07:49:17Z</time>
      </trkpt>
      <trkpt lat="41.4888090" lon="-8.7647570">
        <ele>9.5</ele>
        <time>2021-05-17T07:49:18Z</time>
      </trkpt>
      <trkpt lat="41.4888260" lon="-8.7647510">
        <ele>9.5</ele>
        <time>2021-05-17T07:49:19Z</time>
      </trkpt>
      <trkpt lat="41.4888420" lon="-8.7647600">
        <ele>9.5</ele>
        <time>2021-05-17T07:49:20Z</time>
      </trkpt>
      <trkpt lat="41.4888530" lon="-8.7647640">
        <ele>9.5</ele>
        <time>2021-05-17T07:49:21Z</time>
      </trkpt>
      <trkpt lat="41.4888810" lon="-8.7647610">
        <ele>9.5</ele>
        <time>2021-05-17T07:49:22Z</time>
      </trkpt>
      <trkpt lat="41.4888900" lon="-8.7647610">
        <ele>9.5</ele>
        <time>2021-05-17T07:49:23Z</time>
      </trkpt>
      <trkpt lat="41.4889030" lon="-8.7647620">
        <ele>9.5</ele>
        <time>2021-05-17T07:49:24Z</time>
      </trkpt>
      <trkpt lat="41.4889160" lon="-8.7647610">
        <ele>9.5</ele>
        <time>2021-05-17T07:49:25Z</time>
      </trkpt>
      <trkpt lat="41.4889240" lon="-8.7647660">
        <ele>9.5</ele>
        <time>2021-05-17T07:49:26Z</time>
      </trkpt>
      <trkpt lat="41.4889390" lon="-8.7647710">
        <ele>9.5</ele>
        <time>2021-05-17T07:49:27Z</time>
      </trkpt>
      <trkpt lat="41.4889550" lon="-8.7647670">
        <ele>9.5</ele>
        <time>2021-05-17T07:49:28Z</time>
      </trkpt>
      <trkpt lat="41.4889720" lon="-8.7647610">
        <ele>9.5</ele>
        <time>2021-05-17T07:49:29Z</time>
      </trkpt>
      <trkpt lat="41.4889830" lon="-8.7647630">
        <ele>9.5</ele>
        <time>2021-05-17T07:49:30Z</time>
      </trkpt>
      <trkpt lat="41.4889950" lon="-8.7647660">
        <ele>9.6</ele>
        <time>2021-05-17T07:49:31Z</time>
      </trkpt>
      <trkpt lat="41.4890130" lon="-8.7647680">
        <ele>9.6</ele>
        <time>2021-05-17T07:49:32Z</time>
      </trkpt>
      <trkpt lat="41.4890250" lon="-8.7647720">
        <ele>9.6</ele>
        <time>2021-05-17T07:49:33Z</time>
      </trkpt>
      <trkpt lat="41.4890310" lon="-8.7647690">
        <ele>9.6</ele>
        <time>2021-05-17T07:49:34Z</time>
      </trkpt>
      <trkpt lat="41.4890450" lon="-8.7647740">
        <ele>9.6</ele>
        <time>2021-05-17T07:49:35Z</time>
      </trkpt>
      <trkpt lat="41.4890590" lon="-8.7647770">
        <ele>9.6</ele>
        <time>2021-05-17T07:49:36Z</time>
      </trkpt>
      <trkpt lat="41.4890710" lon="-8.7647830">
        <ele>9.6</ele>
        <time>2021-05-17T07:49:37Z</time>
      </trkpt>
      <trkpt lat="41.4890870" lon="-8.7647850">
        <ele>9.6</ele>
        <time>2021-05-17T07:49:38Z</time>
      </trkpt>
      <trkpt lat="41.4890980" lon="-8.7647910">
        <ele>9.6</ele>
        <time>2021-05-17T07:49:39Z</time>
      </trkpt>
      <trkpt lat="41.4891160" lon="-8.7648000">
        <ele>9.6</ele>
        <time>2021-05-17T07:49:40Z</time>
      </trkpt>
      <trkpt lat="41.4891290" lon="-8.7648070">
        <ele>9.6</ele>
        <time>2021-05-17T07:49:41Z</time>
      </trkpt>
      <trkpt lat="41.4891460" lon="-8.7648160">
        <ele>9.6</ele>
        <time>2021-05-17T07:49:42Z</time>
      </trkpt>
      <trkpt lat="41.4891540" lon="-8.7648220">
        <ele>9.6</ele>
        <time>2021-05-17T07:49:43Z</time>
      </trkpt>
      <trkpt lat="41.4891720" lon="-8.7648230">
        <ele>9.6</ele>
        <time>2021-05-17T07:49:44Z</time>
      </trkpt>
      <trkpt lat="41.4891790" lon="-8.7648330">
        <ele>9.6</ele>
        <time>2021-05-17T07:49:45Z</time>
      </trkpt>
      <trkpt lat="41.4892000" lon="-8.7648420">
        <ele>9.6</ele>
        <time>2021-05-17T07:49:46Z</time>
      </trkpt>
      <trkpt lat="41.4892070" lon="-8.7648460">
        <ele>9.6</ele>
        <time>2021-05-17T07:49:47Z</time>
      </trkpt>
      <trkpt lat="41.4892140" lon="-8.7648500">
        <ele>9.6</ele>
        <time>2021-05-17T07:49:48Z</time>
      </trkpt>
      <trkpt lat="41.4892330" lon="-8.7648560">
        <ele>9.6</ele>
        <time>2021-05-17T07:49:49Z</time>
      </trkpt>
      <trkpt lat="41.4892490" lon="-8.7648530">
        <ele>9.6</ele>
        <time>2021-05-17T07:49:50Z</time>
      </trkpt>
      <trkpt lat="41.4892590" lon="-8.7648610">
        <ele>9.6</ele>
        <time>2021-05-17T07:49:51Z</time>
      </trkpt>
      <trkpt lat="41.4892750" lon="-8.7648630">
        <ele>9.6</ele>
        <time>2021-05-17T07:49:52Z</time>
      </trkpt>
      <trkpt lat="41.4892890" lon="-8.7648670">
        <ele>9.6</ele>
        <time>2021-05-17T07:49:53Z</time>
      </trkpt>
      <trkpt lat="41.4893020" lon="-8.7648710">
        <ele>9.6</ele>
        <time>2021-05-17T07:49:54Z</time>
      </trkpt>
      <trkpt lat="41.4893160" lon="-8.7648750">
        <ele>9.6</ele>
        <time>2021-05-17T07:49:55Z</time>
      </trkpt>
      <trkpt lat="41.4893330" lon="-8.7648790">
        <ele>9.7</ele>
        <time>2021-05-17T07:49:56Z</time>
      </trkpt>
      <trkpt lat="41.4893530" lon="-8.7648840">
        <ele>9.7</ele>
        <time>2021-05-17T07:49:57Z</time>
      </trkpt>
      <trkpt lat="41.4893610" lon="-8.7648850">
        <ele>9.7</ele>
        <time>2021-05-17T07:49:58Z</time>
      </trkpt>
      <trkpt lat="41.4893730" lon="-8.7648930">
        <ele>9.7</ele>
        <time>2021-05-17T07:49:59Z</time>
      </trkpt>
      <trkpt lat="41.4893920" lon="-8.7649000">
        <ele>9.7</ele>
        <time>2021-05-17T07:50:00Z</time>
      </trkpt>
      <trkpt lat="41.4894090" lon="-8.7649060">
        <ele>9.7</ele>
        <time>2021-05-17T07:50:01Z</time>
      </trkpt>
      <trkpt lat="41.4894240" lon="-8.7649050">
        <ele>9.7</ele>
        <time>2021-05-17T07:50:02Z</time>
      </trkpt>
      <trkpt lat="41.4894490" lon="-8.7649110">
        <ele>9.7</ele>
        <time>2021-05-17T07:50:03Z</time>
      </trkpt>
      <trkpt lat="41.4894570" lon="-8.7649130">
        <ele>9.7</ele>
        <time>2021-05-17T07:50:04Z</time>
      </trkpt>
      <trkpt lat="41.4894660" lon="-8.7649150">
        <ele>9.7</ele>
        <time>2021-05-17T07:50:05Z</time>
      </trkpt>
      <trkpt lat="41.4894800" lon="-8.7649150">
        <ele>9.7</ele>
        <time>2021-05-17T07:50:06Z</time>
      </trkpt>
      <trkpt lat="41.4894930" lon="-8.7649200">
        <ele>9.7</ele>
        <time>2021-05-17T07:50:07Z</time>
      </trkpt>
      <trkpt lat="41.4895030" lon="-8.7649300">
        <ele>9.7</ele>
        <time>2021-05-17T07:50:08Z</time>
      </trkpt>
      <trkpt lat="41.4895180" lon="-8.7649360">
        <ele>9.7</ele>
        <time>2021-05-17T07:50:09Z</time>
      </trkpt>
      <trkpt lat="41.4895360" lon="-8.7649380">
        <ele>9.7</ele>
        <time>2021-05-17T07:50:10Z</time>
      </trkpt>
      <trkpt lat="41.4895450" lon="-8.7649360">
        <ele>9.7</ele>
        <time>2021-05-17T07:50:11Z</time>
      </trkpt>
      <trkpt lat="41.4895550" lon="-8.7649350">
        <ele>9.7</ele>
        <time>2021-05-17T07:50:12Z</time>
      </trkpt>
      <trkpt lat="41.4895660" lon="-8.7649350">
        <ele>9.7</ele>
        <time>2021-05-17T07:50:13Z</time>
      </trkpt>
      <trkpt lat="41.4895800" lon="-8.7649340">
        <ele>9.7</ele>
        <time>2021-05-17T07:50:14Z</time>
      </trkpt>
      <trkpt lat="41.4895840" lon="-8.7649350">
        <ele>9.7</ele>
        <time>2021-05-17T07:50:15Z</time>
      </trkpt>
      <trkpt lat="41.4895970" lon="-8.7649360">
        <ele>9.7</ele>
        <time>2021-05-17T07:50:16Z</time>
      </trkpt>
      <trkpt lat="41.4896120" lon="-8.7649390">
        <ele>9.7</ele>
        <time>2021-05-17T07:50:17Z</time>
      </trkpt>
      <trkpt lat="41.4896260" lon="-8.7649450">
        <ele>9.7</ele>
        <time>2021-05-17T07:50:18Z</time>
      </trkpt>
      <trkpt lat="41.4896390" lon="-8.7649460">
        <ele>9.7</ele>
        <time>2021-05-17T07:50:19Z</time>
      </trkpt>
      <trkpt lat="41.4896490" lon="-8.7649530">
        <ele>9.7</ele>
        <time>2021-05-17T07:50:20Z</time>
      </trkpt>
      <trkpt lat="41.4896680" lon="-8.7649590">
        <ele>9.7</ele>
        <time>2021-05-17T07:50:21Z</time>
      </trkpt>
      <trkpt lat="41.4896770" lon="-8.7649680">
        <ele>9.7</ele>
        <time>2021-05-17T07:50:22Z</time>
      </trkpt>
      <trkpt lat="41.4896940" lon="-8.7649740">
        <ele>9.7</ele>
        <time>2021-05-17T07:50:23Z</time>
      </trkpt>
      <trkpt lat="41.4897140" lon="-8.7649760">
        <ele>9.7</ele>
        <time>2021-05-17T07:50:24Z</time>
      </trkpt>
      <trkpt lat="41.4897240" lon="-8.7649770">
        <ele>9.7</ele>
        <time>2021-05-17T07:50:25Z</time>
      </trkpt>
      <trkpt lat="41.4897330" lon="-8.7649790">
        <ele>9.7</ele>
        <time>2021-05-17T07:50:26Z</time>
      </trkpt>
      <trkpt lat="41.4897580" lon="-8.7649840">
        <ele>9.7</ele>
        <time>2021-05-17T07:50:27Z</time>
      </trkpt>
      <trkpt lat="41.4897670" lon="-8.7649890">
        <ele>9.7</ele>
        <time>2021-05-17T07:50:28Z</time>
      </trkpt>
      <trkpt lat="41.4897760" lon="-8.7649940">
        <ele>9.7</ele>
        <time>2021-05-17T07:50:29Z</time>
      </trkpt>
      <trkpt lat="41.4897890" lon="-8.7649960">
        <ele>9.6</ele>
        <time>2021-05-17T07:50:30Z</time>
      </trkpt>
      <trkpt lat="41.4898090" lon="-8.7650000">
        <ele>9.6</ele>
        <time>2021-05-17T07:50:31Z</time>
      </trkpt>
      <trkpt lat="41.4898280" lon="-8.7650030">
        <ele>9.6</ele>
        <time>2021-05-17T07:50:32Z</time>
      </trkpt>
      <trkpt lat="41.4898410" lon="-8.7650030">
        <ele>9.6</ele>
        <time>2021-05-17T07:50:33Z</time>
      </trkpt>
      <trkpt lat="41.4898570" lon="-8.7650040">
        <ele>9.6</ele>
        <time>2021-05-17T07:50:34Z</time>
      </trkpt>
      <trkpt lat="41.4898730" lon="-8.7650110">
        <ele>9.6</ele>
        <time>2021-05-17T07:50:35Z</time>
      </trkpt>
      <trkpt lat="41.4898880" lon="-8.7650090">
        <ele>9.6</ele>
        <time>2021-05-17T07:50:36Z</time>
      </trkpt>
      <trkpt lat="41.4899050" lon="-8.7650110">
        <ele>9.6</ele>
        <time>2021-05-17T07:50:37Z</time>
      </trkpt>
      <trkpt lat="41.4899240" lon="-8.7650100">
        <ele>9.6</ele>
        <time>2021-05-17T07:50:38Z</time>
      </trkpt>
      <trkpt lat="41.4899400" lon="-8.7650130">
        <ele>9.6</ele>
        <time>2021-05-17T07:50:39Z</time>
      </trkpt>
      <trkpt lat="41.4899560" lon="-8.7650130">
        <ele>9.6</ele>
        <time>2021-05-17T07:50:40Z</time>
      </trkpt>
      <trkpt lat="41.4899720" lon="-8.7650150">
        <ele>9.6</ele>
        <time>2021-05-17T07:50:41Z</time>
      </trkpt>
      <trkpt lat="41.4899870" lon="-8.7650120">
        <ele>9.6</ele>
        <time>2021-05-17T07:50:42Z</time>
      </trkpt>
      <trkpt lat="41.4900050" lon="-8.7650170">
        <ele>9.6</ele>
        <time>2021-05-17T07:50:43Z</time>
      </trkpt>
      <trkpt lat="41.4900200" lon="-8.7650220">
        <ele>9.6</ele>
        <time>2021-05-17T07:50:44Z</time>
      </trkpt>
      <trkpt lat="41.4900360" lon="-8.7650230">
        <ele>9.6</ele>
        <time>2021-05-17T07:50:45Z</time>
      </trkpt>
      <trkpt lat="41.4900520" lon="-8.7650250">
        <ele>9.6</ele>
        <time>2021-05-17T07:50:46Z</time>
      </trkpt>
      <trkpt lat="41.4900670" lon="-8.7650220">
        <ele>9.6</ele>
        <time>2021-05-17T07:50:47Z</time>
      </trkpt>
      <trkpt lat="41.4900840" lon="-8.7650260">
        <ele>9.6</ele>
        <time>2021-05-17T07:50:48Z</time>
      </trkpt>
      <trkpt lat="41.4900980" lon="-8.7650320">
        <ele>9.6</ele>
        <time>2021-05-17T07:50:49Z</time>
      </trkpt>
      <trkpt lat="41.4901120" lon="-8.7650360">
        <ele>9.6</ele>
        <time>2021-05-17T07:50:50Z</time>
      </trkpt>
      <trkpt lat="41.4901240" lon="-8.7650440">
        <ele>9.6</ele>
        <time>2021-05-17T07:50:51Z</time>
      </trkpt>
      <trkpt lat="41.4901390" lon="-8.7650500">
        <ele>9.6</ele>
        <time>2021-05-17T07:50:52Z</time>
      </trkpt>
      <trkpt lat="41.4901540" lon="-8.7650490">
        <ele>9.6</ele>
        <time>2021-05-17T07:50:53Z</time>
      </trkpt>
      <trkpt lat="41.4901700" lon="-8.7650530">
        <ele>9.7</ele>
        <time>2021-05-17T07:50:54Z</time>
      </trkpt>
      <trkpt lat="41.4901870" lon="-8.7650540">
        <ele>9.7</ele>
        <time>2021-05-17T07:50:55Z</time>
      </trkpt>
      <trkpt lat="41.4902020" lon="-8.7650560">
        <ele>9.7</ele>
        <time>2021-05-17T07:50:56Z</time>
      </trkpt>
      <trkpt lat="41.4902160" lon="-8.7650540">
        <ele>9.7</ele>
        <time>2021-05-17T07:50:57Z</time>
      </trkpt>
      <trkpt lat="41.4902300" lon="-8.7650520">
        <ele>9.7</ele>
        <time>2021-05-17T07:50:58Z</time>
      </trkpt>
      <trkpt lat="41.4902450" lon="-8.7650570">
        <ele>9.7</ele>
        <time>2021-05-17T07:50:59Z</time>
      </trkpt>
      <trkpt lat="41.4902600" lon="-8.7650520">
        <ele>9.7</ele>
        <time>2021-05-17T07:51:00Z</time>
      </trkpt>
      <trkpt lat="41.4902750" lon="-8.7650560">
        <ele>9.7</ele>
        <time>2021-05-17T07:51:01Z</time>
      </trkpt>
      <trkpt lat="41.4902910" lon="-8.7650630">
        <ele>9.7</ele>
        <time>2021-05-17T07:51:02Z</time>
      </trkpt>
      <trkpt lat="41.4903070" lon="-8.7650630">
        <ele>9.7</ele>
        <time>2021-05-17T07:51:03Z</time>
      </trkpt>
      <trkpt lat="41.4903200" lon="-8.7650580">
        <ele>9.7</ele>
        <time>2021-05-17T07:51:04Z</time>
      </trkpt>
      <trkpt lat="41.4903350" lon="-8.7650590">
        <ele>9.7</ele>
        <time>2021-05-17T07:51:05Z</time>
      </trkpt>
      <trkpt lat="41.4903570" lon="-8.7650660">
        <ele>9.7</ele>
        <time>2021-05-17T07:51:06Z</time>
      </trkpt>
      <trkpt lat="41.4903660" lon="-8.7650670">
        <ele>9.7</ele>
        <time>2021-05-17T07:51:07Z</time>
      </trkpt>
      <trkpt lat="41.4903750" lon="-8.7650680">
        <ele>9.7</ele>
        <time>2021-05-17T07:51:08Z</time>
      </trkpt>
      <trkpt lat="41.4903920" lon="-8.7650640">
        <ele>9.8</ele>
        <time>2021-05-17T07:51:09Z</time>
      </trkpt>
      <trkpt lat="41.4904060" lon="-8.7650680">
        <ele>9.8</ele>
        <time>2021-05-17T07:51:10Z</time>
      </trkpt>
      <trkpt lat="41.4904200" lon="-8.7650690">
        <ele>9.8</ele>
        <time>2021-05-17T07:51:11Z</time>
      </trkpt>
      <trkpt lat="41.4904360" lon="-8.7650680">
        <ele>9.8</ele>
        <time>2021-05-17T07:51:12Z</time>
      </trkpt>
      <trkpt lat="41.4904510" lon="-8.7650700">
        <ele>9.8</ele>
        <time>2021-05-17T07:51:13Z</time>
      </trkpt>
      <trkpt lat="41.4904670" lon="-8.7650830">
        <ele>9.8</ele>
        <time>2021-05-17T07:51:14Z</time>
      </trkpt>
      <trkpt lat="41.4904820" lon="-8.7650890">
        <ele>9.8</ele>
        <time>2021-05-17T07:51:15Z</time>
      </trkpt>
      <trkpt lat="41.4904970" lon="-8.7650890">
        <ele>9.8</ele>
        <time>2021-05-17T07:51:16Z</time>
      </trkpt>
      <trkpt lat="41.4905130" lon="-8.7650860">
        <ele>9.8</ele>
        <time>2021-05-17T07:51:17Z</time>
      </trkpt>
      <trkpt lat="41.4905260" lon="-8.7650870">
        <ele>9.8</ele>
        <time>2021-05-17T07:51:18Z</time>
      </trkpt>
      <trkpt lat="41.4905400" lon="-8.7650870">
        <ele>9.8</ele>
        <time>2021-05-17T07:51:19Z</time>
      </trkpt>
      <trkpt lat="41.4905540" lon="-8.7650900">
        <ele>9.8</ele>
        <time>2021-05-17T07:51:20Z</time>
      </trkpt>
      <trkpt lat="41.4905690" lon="-8.7650920">
        <ele>9.8</ele>
        <time>2021-05-17T07:51:21Z</time>
      </trkpt>
      <trkpt lat="41.4905840" lon="-8.7650950">
        <ele>9.8</ele>
        <time>2021-05-17T07:51:22Z</time>
      </trkpt>
      <trkpt lat="41.4906000" lon="-8.7650980">
        <ele>9.8</ele>
        <time>2021-05-17T07:51:23Z</time>
      </trkpt>
      <trkpt lat="41.4906120" lon="-8.7651040">
        <ele>9.8</ele>
        <time>2021-05-17T07:51:24Z</time>
      </trkpt>
      <trkpt lat="41.4906260" lon="-8.7651060">
        <ele>9.8</ele>
        <time>2021-05-17T07:51:25Z</time>
      </trkpt>
      <trkpt lat="41.4906390" lon="-8.7651090">
        <ele>9.8</ele>
        <time>2021-05-17T07:51:26Z</time>
      </trkpt>
      <trkpt lat="41.4906530" lon="-8.7651100">
        <ele>9.8</ele>
        <time>2021-05-17T07:51:27Z</time>
      </trkpt>
      <trkpt lat="41.4906680" lon="-8.7651050">
        <ele>9.9</ele>
        <time>2021-05-17T07:51:28Z</time>
      </trkpt>
      <trkpt lat="41.4906820" lon="-8.7651100">
        <ele>9.9</ele>
        <time>2021-05-17T07:51:29Z</time>
      </trkpt>
      <trkpt lat="41.4906950" lon="-8.7651140">
        <ele>9.9</ele>
        <time>2021-05-17T07:51:30Z</time>
      </trkpt>
      <trkpt lat="41.4907090" lon="-8.7651210">
        <ele>9.9</ele>
        <time>2021-05-17T07:51:31Z</time>
      </trkpt>
      <trkpt lat="41.4907210" lon="-8.7651250">
        <ele>9.9</ele>
        <time>2021-05-17T07:51:32Z</time>
      </trkpt>
      <trkpt lat="41.4907360" lon="-8.7651260">
        <ele>9.9</ele>
        <time>2021-05-17T07:51:33Z</time>
      </trkpt>
      <trkpt lat="41.4907500" lon="-8.7651260">
        <ele>9.9</ele>
        <time>2021-05-17T07:51:34Z</time>
      </trkpt>
      <trkpt lat="41.4907640" lon="-8.7651270">
        <ele>9.9</ele>
        <time>2021-05-17T07:51:35Z</time>
      </trkpt>
      <trkpt lat="41.4907790" lon="-8.7651280">
        <ele>9.9</ele>
        <time>2021-05-17T07:51:36Z</time>
      </trkpt>
      <trkpt lat="41.4907930" lon="-8.7651320">
        <ele>9.9</ele>
        <time>2021-05-17T07:51:37Z</time>
      </trkpt>
      <trkpt lat="41.4908100" lon="-8.7651340">
        <ele>9.9</ele>
        <time>2021-05-17T07:51:38Z</time>
      </trkpt>
      <trkpt lat="41.4908260" lon="-8.7651340">
        <ele>9.9</ele>
        <time>2021-05-17T07:51:39Z</time>
      </trkpt>
      <trkpt lat="41.4908410" lon="-8.7651310">
        <ele>9.9</ele>
        <time>2021-05-17T07:51:40Z</time>
      </trkpt>
      <trkpt lat="41.4908560" lon="-8.7651340">
        <ele>9.9</ele>
        <time>2021-05-17T07:51:41Z</time>
      </trkpt>
      <trkpt lat="41.4908720" lon="-8.7651370">
        <ele>9.9</ele>
        <time>2021-05-17T07:51:42Z</time>
      </trkpt>
      <trkpt lat="41.4908870" lon="-8.7651410">
        <ele>9.9</ele>
        <time>2021-05-17T07:51:43Z</time>
      </trkpt>
      <trkpt lat="41.4909010" lon="-8.7651500">
        <ele>9.9</ele>
        <time>2021-05-17T07:51:44Z</time>
      </trkpt>
      <trkpt lat="41.4909150" lon="-8.7651500">
        <ele>9.9</ele>
        <time>2021-05-17T07:51:45Z</time>
      </trkpt>
      <trkpt lat="41.4909290" lon="-8.7651510">
        <ele>9.9</ele>
        <time>2021-05-17T07:51:46Z</time>
      </trkpt>
      <trkpt lat="41.4909450" lon="-8.7651510">
        <ele>9.9</ele>
        <time>2021-05-17T07:51:47Z</time>
      </trkpt>
      <trkpt lat="41.4909580" lon="-8.7651480">
        <ele>9.9</ele>
        <time>2021-05-17T07:51:48Z</time>
      </trkpt>
      <trkpt lat="41.4909720" lon="-8.7651500">
        <ele>9.9</ele>
        <time>2021-05-17T07:51:49Z</time>
      </trkpt>
      <trkpt lat="41.4909880" lon="-8.7651540">
        <ele>9.9</ele>
        <time>2021-05-17T07:51:50Z</time>
      </trkpt>
      <trkpt lat="41.4910020" lon="-8.7651580">
        <ele>9.9</ele>
        <time>2021-05-17T07:51:51Z</time>
      </trkpt>
      <trkpt lat="41.4910180" lon="-8.7651580">
        <ele>9.9</ele>
        <time>2021-05-17T07:51:52Z</time>
      </trkpt>
      <trkpt lat="41.4910320" lon="-8.7651560">
        <ele>9.9</ele>
        <time>2021-05-17T07:51:53Z</time>
      </trkpt>
      <trkpt lat="41.4910470" lon="-8.7651590">
        <ele>9.9</ele>
        <time>2021-05-17T07:51:54Z</time>
      </trkpt>
      <trkpt lat="41.4910630" lon="-8.7651560">
        <ele>9.9</ele>
        <time>2021-05-17T07:51:55Z</time>
      </trkpt>
      <trkpt lat="41.4910760" lon="-8.7651620">
        <ele>9.9</ele>
        <time>2021-05-17T07:51:56Z</time>
      </trkpt>
      <trkpt lat="41.4910910" lon="-8.7651580">
        <ele>9.9</ele>
        <time>2021-05-17T07:51:57Z</time>
      </trkpt>
      <trkpt lat="41.4911060" lon="-8.7651610">
        <ele>9.9</ele>
        <time>2021-05-17T07:51:58Z</time>
      </trkpt>
      <trkpt lat="41.4911200" lon="-8.7651640">
        <ele>9.9</ele>
        <time>2021-05-17T07:51:59Z</time>
      </trkpt>
      <trkpt lat="41.4911330" lon="-8.7651630">
        <ele>9.9</ele>
        <time>2021-05-17T07:52:00Z</time>
      </trkpt>
      <trkpt lat="41.4911500" lon="-8.7651630">
        <ele>9.9</ele>
        <time>2021-05-17T07:52:01Z</time>
      </trkpt>
      <trkpt lat="41.4911670" lon="-8.7651600">
        <ele>9.9</ele>
        <time>2021-05-17T07:52:02Z</time>
      </trkpt>
      <trkpt lat="41.4911820" lon="-8.7651510">
        <ele>9.9</ele>
        <time>2021-05-17T07:52:03Z</time>
      </trkpt>
      <trkpt lat="41.4911960" lon="-8.7651470">
        <ele>9.9</ele>
        <time>2021-05-17T07:52:04Z</time>
      </trkpt>
      <trkpt lat="41.4912180" lon="-8.7651460">
        <ele>9.9</ele>
        <time>2021-05-17T07:52:05Z</time>
      </trkpt>
      <trkpt lat="41.4912290" lon="-8.7651490">
        <ele>9.9</ele>
        <time>2021-05-17T07:52:06Z</time>
      </trkpt>
      <trkpt lat="41.4912390" lon="-8.7651510">
        <ele>9.9</ele>
        <time>2021-05-17T07:52:07Z</time>
      </trkpt>
      <trkpt lat="41.4912540" lon="-8.7651480">
        <ele>9.9</ele>
        <time>2021-05-17T07:52:08Z</time>
      </trkpt>
      <trkpt lat="41.4912680" lon="-8.7651490">
        <ele>9.9</ele>
        <time>2021-05-17T07:52:09Z</time>
      </trkpt>
      <trkpt lat="41.4912810" lon="-8.7651490">
        <ele>9.9</ele>
        <time>2021-05-17T07:52:10Z</time>
      </trkpt>
      <trkpt lat="41.4912950" lon="-8.7651450">
        <ele>9.9</ele>
        <time>2021-05-17T07:52:11Z</time>
      </trkpt>
      <trkpt lat="41.4913080" lon="-8.7651440">
        <ele>9.8</ele>
        <time>2021-05-17T07:52:12Z</time>
      </trkpt>
      <trkpt lat="41.4913220" lon="-8.7651410">
        <ele>9.8</ele>
        <time>2021-05-17T07:52:13Z</time>
      </trkpt>
      <trkpt lat="41.4913360" lon="-8.7651390">
        <ele>9.8</ele>
        <time>2021-05-17T07:52:14Z</time>
      </trkpt>
      <trkpt lat="41.4913520" lon="-8.7651360">
        <ele>9.8</ele>
        <time>2021-05-17T07:52:15Z</time>
      </trkpt>
      <trkpt lat="41.4913740" lon="-8.7651310">
        <ele>9.8</ele>
        <time>2021-05-17T07:52:16Z</time>
      </trkpt>
      <trkpt lat="41.4913830" lon="-8.7651300">
        <ele>9.8</ele>
        <time>2021-05-17T07:52:17Z</time>
      </trkpt>
      <trkpt lat="41.4913920" lon="-8.7651300">
        <ele>9.8</ele>
        <time>2021-05-17T07:52:18Z</time>
      </trkpt>
      <trkpt lat="41.4914070" lon="-8.7651290">
        <ele>9.8</ele>
        <time>2021-05-17T07:52:19Z</time>
      </trkpt>
      <trkpt lat="41.4914200" lon="-8.7651280">
        <ele>9.8</ele>
        <time>2021-05-17T07:52:20Z</time>
      </trkpt>
      <trkpt lat="41.4914360" lon="-8.7651270">
        <ele>9.8</ele>
        <time>2021-05-17T07:52:21Z</time>
      </trkpt>
      <trkpt lat="41.4914490" lon="-8.7651280">
        <ele>9.8</ele>
        <time>2021-05-17T07:52:22Z</time>
      </trkpt>
      <trkpt lat="41.4914630" lon="-8.7651340">
        <ele>9.8</ele>
        <time>2021-05-17T07:52:23Z</time>
      </trkpt>
      <trkpt lat="41.4914770" lon="-8.7651310">
        <ele>9.8</ele>
        <time>2021-05-17T07:52:24Z</time>
      </trkpt>
      <trkpt lat="41.4914990" lon="-8.7651330">
        <ele>9.8</ele>
        <time>2021-05-17T07:52:25Z</time>
      </trkpt>
      <trkpt lat="41.4915080" lon="-8.7651340">
        <ele>9.8</ele>
        <time>2021-05-17T07:52:26Z</time>
      </trkpt>
      <trkpt lat="41.4915170" lon="-8.7651340">
        <ele>9.8</ele>
        <time>2021-05-17T07:52:27Z</time>
      </trkpt>
      <trkpt lat="41.4915300" lon="-8.7651290">
        <ele>9.8</ele>
        <time>2021-05-17T07:52:28Z</time>
      </trkpt>
      <trkpt lat="41.4915240" lon="-8.7651130">
        <ele>9.8</ele>
        <time>2021-05-17T07:52:29Z</time>
      </trkpt>
      <trkpt lat="41.4915050" lon="-8.7651160">
        <ele>9.8</ele>
        <time>2021-05-17T07:52:30Z</time>
      </trkpt>
      <trkpt lat="41.4914920" lon="-8.7651180">
        <ele>9.8</ele>
        <time>2021-05-17T07:52:31Z</time>
      </trkpt>
      <trkpt lat="41.4914860" lon="-8.7651140">
        <ele>9.8</ele>
        <time>2021-05-17T07:52:32Z</time>
      </trkpt>
      <trkpt lat="41.4914810" lon="-8.7651130">
        <ele>9.8</ele>
        <time>2021-05-17T07:52:33Z</time>
      </trkpt>
      <trkpt lat="41.4914750" lon="-8.7651140">
        <ele>9.8</ele>
        <time>2021-05-17T07:52:34Z</time>
      </trkpt>
      <trkpt lat="41.4914700" lon="-8.7651150">
        <ele>9.8</ele>
        <time>2021-05-17T07:52:35Z</time>
      </trkpt>
      <trkpt lat="41.4914670" lon="-8.7651160">
        <ele>9.8</ele>
        <time>2021-05-17T07:52:36Z</time>
      </trkpt>
      <trkpt lat="41.4914570" lon="-8.7651150">
        <ele>9.7</ele>
        <time>2021-05-17T07:52:37Z</time>
      </trkpt>
      <trkpt lat="41.4914560" lon="-8.7651200">
        <ele>9.7</ele>
        <time>2021-05-17T07:52:38Z</time>
      </trkpt>
      <trkpt lat="41.4914590" lon="-8.7651200">
        <ele>9.7</ele>
        <time>2021-05-17T07:52:39Z</time>
      </trkpt>
      <trkpt lat="41.4914610" lon="-8.7651190">
        <ele>9.7</ele>
        <time>2021-05-17T07:52:40Z</time>
      </trkpt>
      <trkpt lat="41.4914630" lon="-8.7651180">
        <ele>9.7</ele>
        <time>2021-05-17T07:52:41Z</time>
      </trkpt>
      <trkpt lat="41.4914660" lon="-8.7651170">
        <ele>9.7</ele>
        <time>2021-05-17T07:52:42Z</time>
      </trkpt>
      <trkpt lat="41.4914680" lon="-8.7651170">
        <ele>9.7</ele>
        <time>2021-05-17T07:52:43Z</time>
      </trkpt>
      <trkpt lat="41.4914700" lon="-8.7651160">
        <ele>9.7</ele>
        <time>2021-05-17T07:52:44Z</time>
      </trkpt>
      <trkpt lat="41.4914730" lon="-8.7651150">
        <ele>9.7</ele>
        <time>2021-05-17T07:52:45Z</time>
      </trkpt>
      <trkpt lat="41.4914750" lon="-8.7651150">
        <ele>9.7</ele>
        <time>2021-05-17T07:52:46Z</time>
      </trkpt>
      <trkpt lat="41.4914780" lon="-8.7651140">
        <ele>9.7</ele>
        <time>2021-05-17T07:52:47Z</time>
      </trkpt>
      <trkpt lat="41.4914800" lon="-8.7651130">
        <ele>9.7</ele>
        <time>2021-05-17T07:52:48Z</time>
      </trkpt>
      <trkpt lat="41.4914820" lon="-8.7651130">
        <ele>9.7</ele>
        <time>2021-05-17T07:52:49Z</time>
      </trkpt>
      <trkpt lat="41.4914850" lon="-8.7651120">
        <ele>9.7</ele>
        <time>2021-05-17T07:52:50Z</time>
      </trkpt>
      <trkpt lat="41.4914870" lon="-8.7651110">
        <ele>9.7</ele>
        <time>2021-05-17T07:52:51Z</time>
      </trkpt>
      <trkpt lat="41.4914890" lon="-8.7651100">
        <ele>9.7</ele>
        <time>2021-05-17T07:52:52Z</time>
      </trkpt>
      <trkpt lat="41.4914920" lon="-8.7651100">
        <ele>9.7</ele>
        <time>2021-05-17T07:52:53Z</time>
      </trkpt>
      <trkpt lat="41.4914940" lon="-8.7651090">
        <ele>9.7</ele>
        <time>2021-05-17T07:52:54Z</time>
      </trkpt>
      <trkpt lat="41.4915080" lon="-8.7651060">
        <ele>9.7</ele>
        <time>2021-05-17T07:52:55Z</time>
      </trkpt>
      <trkpt lat="41.4915240" lon="-8.7651010">
        <ele>9.7</ele>
        <time>2021-05-17T07:52:56Z</time>
      </trkpt>
      <trkpt lat="41.4915430" lon="-8.7651010">
        <ele>9.7</ele>
        <time>2021-05-17T07:52:57Z</time>
      </trkpt>
      <trkpt lat="41.4915540" lon="-8.7650990">
        <ele>9.7</ele>
        <time>2021-05-17T07:52:58Z</time>
      </trkpt>
      <trkpt lat="41.4915640" lon="-8.7650960">
        <ele>9.7</ele>
        <time>2021-05-17T07:52:59Z</time>
      </trkpt>
      <trkpt lat="41.4915860" lon="-8.7650910">
        <ele>9.7</ele>
        <time>2021-05-17T07:53:00Z</time>
      </trkpt>
      <trkpt lat="41.4915970" lon="-8.7650900">
        <ele>9.7</ele>
        <time>2021-05-17T07:53:01Z</time>
      </trkpt>
      <trkpt lat="41.4916070" lon="-8.7650900">
        <ele>9.7</ele>
        <time>2021-05-17T07:53:02Z</time>
      </trkpt>
      <trkpt lat="41.4916210" lon="-8.7650900">
        <ele>9.7</ele>
        <time>2021-05-17T07:53:03Z</time>
      </trkpt>
      <trkpt lat="41.4916530" lon="-8.7650860">
        <ele>9.7</ele>
        <time>2021-05-17T07:53:04Z</time>
      </trkpt>
      <trkpt lat="41.4916730" lon="-8.7650850">
        <ele>9.7</ele>
        <time>2021-05-17T07:53:05Z</time>
      </trkpt>
      <trkpt lat="41.4917040" lon="-8.7650750">
        <ele>9.7</ele>
        <time>2021-05-17T07:53:06Z</time>
      </trkpt>
      <trkpt lat="41.4917150" lon="-8.7650730">
        <ele>9.7</ele>
        <time>2021-05-17T07:53:07Z</time>
      </trkpt>
      <trkpt lat="41.4917320" lon="-8.7650730">
        <ele>9.7</ele>
        <time>2021-05-17T07:53:08Z</time>
      </trkpt>
      <trkpt lat="41.4917620" lon="-8.7650790">
        <ele>9.6</ele>
        <time>2021-05-17T07:53:10Z</time>
      </trkpt>
      <trkpt lat="41.4917800" lon="-8.7650810">
        <ele>9.6</ele>
        <time>2021-05-17T07:53:11Z</time>
      </trkpt>
      <trkpt lat="41.4917950" lon="-8.7650750">
        <ele>9.6</ele>
        <time>2021-05-17T07:53:12Z</time>
      </trkpt>
      <trkpt lat="41.4918110" lon="-8.7650700">
        <ele>9.6</ele>
        <time>2021-05-17T07:53:13Z</time>
      </trkpt>
      <trkpt lat="41.4918260" lon="-8.7650630">
        <ele>9.6</ele>
        <time>2021-05-17T07:53:15Z</time>
      </trkpt>
      <trkpt lat="41.4918400" lon="-8.7650620">
        <ele>9.6</ele>
        <time>2021-05-17T07:53:16Z</time>
      </trkpt>
      <trkpt lat="41.4918560" lon="-8.7650620">
        <ele>9.6</ele>
        <time>2021-05-17T07:53:17Z</time>
      </trkpt>
      <trkpt lat="41.4918700" lon="-8.7650570">
        <ele>9.6</ele>
        <time>2021-05-17T07:53:18Z</time>
      </trkpt>
      <trkpt lat="41.4918860" lon="-8.7650580">
        <ele>9.6</ele>
        <time>2021-05-17T07:53:19Z</time>
      </trkpt>
      <trkpt lat="41.4919010" lon="-8.7650620">
        <ele>9.6</ele>
        <time>2021-05-17T07:53:20Z</time>
      </trkpt>
      <trkpt lat="41.4919180" lon="-8.7650580">
        <ele>9.6</ele>
        <time>2021-05-17T07:53:21Z</time>
      </trkpt>
      <trkpt lat="41.4919340" lon="-8.7650580">
        <ele>9.6</ele>
        <time>2021-05-17T07:53:22Z</time>
      </trkpt>
      <trkpt lat="41.4919480" lon="-8.7650560">
        <ele>9.6</ele>
        <time>2021-05-17T07:53:23Z</time>
      </trkpt>
      <trkpt lat="41.4919630" lon="-8.7650490">
        <ele>9.6</ele>
        <time>2021-05-17T07:53:24Z</time>
      </trkpt>
      <trkpt lat="41.4919750" lon="-8.7650490">
        <ele>9.6</ele>
        <time>2021-05-17T07:53:25Z</time>
      </trkpt>
      <trkpt lat="41.4919890" lon="-8.7650510">
        <ele>9.6</ele>
        <time>2021-05-17T07:53:26Z</time>
      </trkpt>
      <trkpt lat="41.4919980" lon="-8.7650410">
        <ele>9.6</ele>
        <time>2021-05-17T07:53:27Z</time>
      </trkpt>
      <trkpt lat="41.4920090" lon="-8.7650390">
        <ele>9.6</ele>
        <time>2021-05-17T07:53:28Z</time>
      </trkpt>
      <trkpt lat="41.4920280" lon="-8.7650410">
        <ele>9.6</ele>
        <time>2021-05-17T07:53:29Z</time>
      </trkpt>
      <trkpt lat="41.4920510" lon="-8.7650390">
        <ele>9.6</ele>
        <time>2021-05-17T07:53:30Z</time>
      </trkpt>
      <trkpt lat="41.4920610" lon="-8.7650350">
        <ele>9.5</ele>
        <time>2021-05-17T07:53:31Z</time>
      </trkpt>
      <trkpt lat="41.4920710" lon="-8.7650310">
        <ele>9.5</ele>
        <time>2021-05-17T07:53:32Z</time>
      </trkpt>
      <trkpt lat="41.4920870" lon="-8.7650280">
        <ele>9.5</ele>
        <time>2021-05-17T07:53:33Z</time>
      </trkpt>
      <trkpt lat="41.4921050" lon="-8.7650350">
        <ele>9.5</ele>
        <time>2021-05-17T07:53:34Z</time>
      </trkpt>
      <trkpt lat="41.4921200" lon="-8.7650380">
        <ele>9.5</ele>
        <time>2021-05-17T07:53:35Z</time>
      </trkpt>
      <trkpt lat="41.4921340" lon="-8.7650310">
        <ele>9.5</ele>
        <time>2021-05-17T07:53:36Z</time>
      </trkpt>
      <trkpt lat="41.4921480" lon="-8.7650330">
        <ele>9.5</ele>
        <time>2021-05-17T07:53:37Z</time>
      </trkpt>
      <trkpt lat="41.4921620" lon="-8.7650320">
        <ele>9.5</ele>
        <time>2021-05-17T07:53:38Z</time>
      </trkpt>
      <trkpt lat="41.4921770" lon="-8.7650300">
        <ele>9.5</ele>
        <time>2021-05-17T07:53:39Z</time>
      </trkpt>
      <trkpt lat="41.4921920" lon="-8.7650370">
        <ele>9.5</ele>
        <time>2021-05-17T07:53:40Z</time>
      </trkpt>
      <trkpt lat="41.4922060" lon="-8.7650360">
        <ele>9.5</ele>
        <time>2021-05-17T07:53:41Z</time>
      </trkpt>
      <trkpt lat="41.4922210" lon="-8.7650380">
        <ele>9.5</ele>
        <time>2021-05-17T07:53:42Z</time>
      </trkpt>
      <trkpt lat="41.4922440" lon="-8.7650380">
        <ele>9.5</ele>
        <time>2021-05-17T07:53:43Z</time>
      </trkpt>
      <trkpt lat="41.4922520" lon="-8.7650400">
        <ele>9.5</ele>
        <time>2021-05-17T07:53:44Z</time>
      </trkpt>
      <trkpt lat="41.4922610" lon="-8.7650420">
        <ele>9.5</ele>
        <time>2021-05-17T07:53:45Z</time>
      </trkpt>
      <trkpt lat="41.4922840" lon="-8.7650440">
        <ele>9.5</ele>
        <time>2021-05-17T07:53:46Z</time>
      </trkpt>
      <trkpt lat="41.4922940" lon="-8.7650470">
        <ele>9.5</ele>
        <time>2021-05-17T07:53:47Z</time>
      </trkpt>
      <trkpt lat="41.4923030" lon="-8.7650510">
        <ele>9.5</ele>
        <time>2021-05-17T07:53:48Z</time>
      </trkpt>
      <trkpt lat="41.4923180" lon="-8.7650550">
        <ele>9.5</ele>
        <time>2021-05-17T07:53:49Z</time>
      </trkpt>
      <trkpt lat="41.4923320" lon="-8.7650630">
        <ele>9.5</ele>
        <time>2021-05-17T07:53:50Z</time>
      </trkpt>
      <trkpt lat="41.4923470" lon="-8.7650660">
        <ele>9.5</ele>
        <time>2021-05-17T07:53:51Z</time>
      </trkpt>
      <trkpt lat="41.4923590" lon="-8.7650730">
        <ele>9.5</ele>
        <time>2021-05-17T07:53:52Z</time>
      </trkpt>
      <trkpt lat="41.4923730" lon="-8.7650790">
        <ele>9.5</ele>
        <time>2021-05-17T07:53:53Z</time>
      </trkpt>
      <trkpt lat="41.4923880" lon="-8.7650850">
        <ele>9.5</ele>
        <time>2021-05-17T07:53:54Z</time>
      </trkpt>
      <trkpt lat="41.4924020" lon="-8.7650910">
        <ele>9.5</ele>
        <time>2021-05-17T07:53:55Z</time>
      </trkpt>
      <trkpt lat="41.4924160" lon="-8.7650980">
        <ele>9.5</ele>
        <time>2021-05-17T07:53:56Z</time>
      </trkpt>
      <trkpt lat="41.4924280" lon="-8.7651040">
        <ele>9.5</ele>
        <time>2021-05-17T07:53:57Z</time>
      </trkpt>
      <trkpt lat="41.4924440" lon="-8.7651070">
        <ele>9.5</ele>
        <time>2021-05-17T07:53:58Z</time>
      </trkpt>
      <trkpt lat="41.4924550" lon="-8.7651190">
        <ele>9.5</ele>
        <time>2021-05-17T07:53:59Z</time>
      </trkpt>
      <trkpt lat="41.4924700" lon="-8.7651210">
        <ele>9.5</ele>
        <time>2021-05-17T07:54:00Z</time>
      </trkpt>
      <trkpt lat="41.4924920" lon="-8.7651270">
        <ele>9.4</ele>
        <time>2021-05-17T07:54:01Z</time>
      </trkpt>
      <trkpt lat="41.4925010" lon="-8.7651300">
        <ele>9.4</ele>
        <time>2021-05-17T07:54:02Z</time>
      </trkpt>
      <trkpt lat="41.4925100" lon="-8.7651320">
        <ele>9.4</ele>
        <time>2021-05-17T07:54:03Z</time>
      </trkpt>
      <trkpt lat="41.4925220" lon="-8.7651280">
        <ele>9.4</ele>
        <time>2021-05-17T07:54:04Z</time>
      </trkpt>
      <trkpt lat="41.4925340" lon="-8.7651380">
        <ele>9.4</ele>
        <time>2021-05-17T07:54:05Z</time>
      </trkpt>
      <trkpt lat="41.4925430" lon="-8.7651350">
        <ele>9.4</ele>
        <time>2021-05-17T07:54:06Z</time>
      </trkpt>
      <trkpt lat="41.4925490" lon="-8.7651410">
        <ele>9.4</ele>
        <time>2021-05-17T07:54:07Z</time>
      </trkpt>
      <trkpt lat="41.4925650" lon="-8.7651370">
        <ele>9.4</ele>
        <time>2021-05-17T07:54:08Z</time>
      </trkpt>
      <trkpt lat="41.4925770" lon="-8.7651410">
        <ele>9.4</ele>
        <time>2021-05-17T07:54:09Z</time>
      </trkpt>
      <trkpt lat="41.4925930" lon="-8.7651510">
        <ele>9.4</ele>
        <time>2021-05-17T07:54:10Z</time>
      </trkpt>
      <trkpt lat="41.4926030" lon="-8.7651560">
        <ele>9.4</ele>
        <time>2021-05-17T07:54:11Z</time>
      </trkpt>
      <trkpt lat="41.4926130" lon="-8.7651600">
        <ele>9.4</ele>
        <time>2021-05-17T07:54:12Z</time>
      </trkpt>
      <trkpt lat="41.4926290" lon="-8.7651610">
        <ele>9.4</ele>
        <time>2021-05-17T07:54:13Z</time>
      </trkpt>
      <trkpt lat="41.4926430" lon="-8.7651600">
        <ele>9.4</ele>
        <time>2021-05-17T07:54:14Z</time>
      </trkpt>
      <trkpt lat="41.4926570" lon="-8.7651680">
        <ele>9.4</ele>
        <time>2021-05-17T07:54:15Z</time>
      </trkpt>
      <trkpt lat="41.4926690" lon="-8.7651730">
        <ele>9.4</ele>
        <time>2021-05-17T07:54:16Z</time>
      </trkpt>
      <trkpt lat="41.4926840" lon="-8.7651720">
        <ele>9.4</ele>
        <time>2021-05-17T07:54:17Z</time>
      </trkpt>
      <trkpt lat="41.4926980" lon="-8.7651750">
        <ele>9.4</ele>
        <time>2021-05-17T07:54:18Z</time>
      </trkpt>
      <trkpt lat="41.4927200" lon="-8.7651830">
        <ele>9.4</ele>
        <time>2021-05-17T07:54:19Z</time>
      </trkpt>
      <trkpt lat="41.4927280" lon="-8.7651870">
        <ele>9.4</ele>
        <time>2021-05-17T07:54:20Z</time>
      </trkpt>
      <trkpt lat="41.4927370" lon="-8.7651910">
        <ele>9.4</ele>
        <time>2021-05-17T07:54:21Z</time>
      </trkpt>
      <trkpt lat="41.4927510" lon="-8.7651930">
        <ele>9.4</ele>
        <time>2021-05-17T07:54:22Z</time>
      </trkpt>
      <trkpt lat="41.4927670" lon="-8.7651880">
        <ele>9.4</ele>
        <time>2021-05-17T07:54:23Z</time>
      </trkpt>
      <trkpt lat="41.4927820" lon="-8.7651890">
        <ele>9.4</ele>
        <time>2021-05-17T07:54:24Z</time>
      </trkpt>
      <trkpt lat="41.4927970" lon="-8.7651910">
        <ele>9.4</ele>
        <time>2021-05-17T07:54:25Z</time>
      </trkpt>
      <trkpt lat="41.4928120" lon="-8.7651970">
        <ele>9.3</ele>
        <time>2021-05-17T07:54:26Z</time>
      </trkpt>
      <trkpt lat="41.4928280" lon="-8.7651940">
        <ele>9.3</ele>
        <time>2021-05-17T07:54:27Z</time>
      </trkpt>
      <trkpt lat="41.4928480" lon="-8.7652080">
        <ele>9.3</ele>
        <time>2021-05-17T07:54:28Z</time>
      </trkpt>
      <trkpt lat="41.4928560" lon="-8.7652120">
        <ele>9.3</ele>
        <time>2021-05-17T07:54:29Z</time>
      </trkpt>
      <trkpt lat="41.4928640" lon="-8.7652160">
        <ele>9.3</ele>
        <time>2021-05-17T07:54:30Z</time>
      </trkpt>
      <trkpt lat="41.4928770" lon="-8.7652230">
        <ele>9.3</ele>
        <time>2021-05-17T07:54:31Z</time>
      </trkpt>
      <trkpt lat="41.4928910" lon="-8.7652250">
        <ele>9.3</ele>
        <time>2021-05-17T07:54:32Z</time>
      </trkpt>
      <trkpt lat="41.4929070" lon="-8.7652250">
        <ele>9.3</ele>
        <time>2021-05-17T07:54:33Z</time>
      </trkpt>
      <trkpt lat="41.4929220" lon="-8.7652350">
        <ele>9.3</ele>
        <time>2021-05-17T07:54:34Z</time>
      </trkpt>
      <trkpt lat="41.4929410" lon="-8.7652430">
        <ele>9.3</ele>
        <time>2021-05-17T07:54:35Z</time>
      </trkpt>
      <trkpt lat="41.4929500" lon="-8.7652460">
        <ele>9.3</ele>
        <time>2021-05-17T07:54:36Z</time>
      </trkpt>
      <trkpt lat="41.4929590" lon="-8.7652500">
        <ele>9.3</ele>
        <time>2021-05-17T07:54:37Z</time>
      </trkpt>
      <trkpt lat="41.4929790" lon="-8.7652600">
        <ele>9.2</ele>
        <time>2021-05-17T07:54:38Z</time>
      </trkpt>
      <trkpt lat="41.4929870" lon="-8.7652650">
        <ele>9.2</ele>
        <time>2021-05-17T07:54:39Z</time>
      </trkpt>
      <trkpt lat="41.4929940" lon="-8.7652700">
        <ele>9.2</ele>
        <time>2021-05-17T07:54:40Z</time>
      </trkpt>
      <trkpt lat="41.4930100" lon="-8.7652710">
        <ele>9.2</ele>
        <time>2021-05-17T07:54:41Z</time>
      </trkpt>
      <trkpt lat="41.4930270" lon="-8.7652770">
        <ele>9.2</ele>
        <time>2021-05-17T07:54:42Z</time>
      </trkpt>
      <trkpt lat="41.4930380" lon="-8.7652800">
        <ele>9.2</ele>
        <time>2021-05-17T07:54:43Z</time>
      </trkpt>
      <trkpt lat="41.4930510" lon="-8.7652840">
        <ele>9.2</ele>
        <time>2021-05-17T07:54:44Z</time>
      </trkpt>
      <trkpt lat="41.4930600" lon="-8.7652940">
        <ele>9.2</ele>
        <time>2021-05-17T07:54:45Z</time>
      </trkpt>
      <trkpt lat="41.4930730" lon="-8.7653030">
        <ele>9.2</ele>
        <time>2021-05-17T07:54:46Z</time>
      </trkpt>
      <trkpt lat="41.4930890" lon="-8.7653020">
        <ele>9.1</ele>
        <time>2021-05-17T07:54:47Z</time>
      </trkpt>
      <trkpt lat="41.4931120" lon="-8.7653100">
        <ele>9.1</ele>
        <time>2021-05-17T07:54:48Z</time>
      </trkpt>
      <trkpt lat="41.4931200" lon="-8.7653150">
        <ele>9.1</ele>
        <time>2021-05-17T07:54:49Z</time>
      </trkpt>
      <trkpt lat="41.4931280" lon="-8.7653210">
        <ele>9.1</ele>
        <time>2021-05-17T07:54:50Z</time>
      </trkpt>
      <trkpt lat="41.4931490" lon="-8.7653240">
        <ele>9.1</ele>
        <time>2021-05-17T07:54:51Z</time>
      </trkpt>
      <trkpt lat="41.4931550" lon="-8.7653310">
        <ele>9.1</ele>
        <time>2021-05-17T07:54:52Z</time>
      </trkpt>
      <trkpt lat="41.4931620" lon="-8.7653380">
        <ele>9.1</ele>
        <time>2021-05-17T07:54:53Z</time>
      </trkpt>
      <trkpt lat="41.4931770" lon="-8.7653420">
        <ele>9.1</ele>
        <time>2021-05-17T07:54:54Z</time>
      </trkpt>
      <trkpt lat="41.4931910" lon="-8.7653500">
        <ele>9.1</ele>
        <time>2021-05-17T07:54:55Z</time>
      </trkpt>
      <trkpt lat="41.4932100" lon="-8.7653640">
        <ele>9.1</ele>
        <time>2021-05-17T07:54:56Z</time>
      </trkpt>
      <trkpt lat="41.4932200" lon="-8.7653660">
        <ele>9.1</ele>
        <time>2021-05-17T07:54:57Z</time>
      </trkpt>
      <trkpt lat="41.4932290" lon="-8.7653680">
        <ele>9.1</ele>
        <time>2021-05-17T07:54:58Z</time>
      </trkpt>
      <trkpt lat="41.4932410" lon="-8.7653670">
        <ele>9.1</ele>
        <time>2021-05-17T07:54:59Z</time>
      </trkpt>
      <trkpt lat="41.4932560" lon="-8.7653750">
        <ele>9.1</ele>
        <time>2021-05-17T07:55:00Z</time>
      </trkpt>
      <trkpt lat="41.4932780" lon="-8.7653790">
        <ele>9.1</ele>
        <time>2021-05-17T07:55:01Z</time>
      </trkpt>
      <trkpt lat="41.4932860" lon="-8.7653790">
        <ele>9.1</ele>
        <time>2021-05-17T07:55:02Z</time>
      </trkpt>
      <trkpt lat="41.4932940" lon="-8.7653800">
        <ele>9.1</ele>
        <time>2021-05-17T07:55:03Z</time>
      </trkpt>
      <trkpt lat="41.4933100" lon="-8.7653890">
        <ele>9.1</ele>
        <time>2021-05-17T07:55:04Z</time>
      </trkpt>
      <trkpt lat="41.4933250" lon="-8.7653940">
        <ele>9.1</ele>
        <time>2021-05-17T07:55:05Z</time>
      </trkpt>
      <trkpt lat="41.4933410" lon="-8.7653900">
        <ele>9.1</ele>
        <time>2021-05-17T07:55:06Z</time>
      </trkpt>
      <trkpt lat="41.4933530" lon="-8.7653990">
        <ele>9.1</ele>
        <time>2021-05-17T07:55:07Z</time>
      </trkpt>
      <trkpt lat="41.4933750" lon="-8.7654010">
        <ele>9.1</ele>
        <time>2021-05-17T07:55:08Z</time>
      </trkpt>
      <trkpt lat="41.4933830" lon="-8.7654050">
        <ele>9.1</ele>
        <time>2021-05-17T07:55:09Z</time>
      </trkpt>
      <trkpt lat="41.4933910" lon="-8.7654080">
        <ele>9.1</ele>
        <time>2021-05-17T07:55:10Z</time>
      </trkpt>
      <trkpt lat="41.4934060" lon="-8.7654110">
        <ele>9.1</ele>
        <time>2021-05-17T07:55:11Z</time>
      </trkpt>
      <trkpt lat="41.4934200" lon="-8.7654170">
        <ele>9.1</ele>
        <time>2021-05-17T07:55:12Z</time>
      </trkpt>
      <trkpt lat="41.4934320" lon="-8.7654170">
        <ele>9.1</ele>
        <time>2021-05-17T07:55:13Z</time>
      </trkpt>
      <trkpt lat="41.4934430" lon="-8.7654280">
        <ele>9.1</ele>
        <time>2021-05-17T07:55:14Z</time>
      </trkpt>
      <trkpt lat="41.4934520" lon="-8.7654390">
        <ele>9.1</ele>
        <time>2021-05-17T07:55:15Z</time>
      </trkpt>
      <trkpt lat="41.4934660" lon="-8.7654470">
        <ele>9.1</ele>
        <time>2021-05-17T07:55:16Z</time>
      </trkpt>
      <trkpt lat="41.4934820" lon="-8.7654430">
        <ele>9.1</ele>
        <time>2021-05-17T07:55:17Z</time>
      </trkpt>
      <trkpt lat="41.4934920" lon="-8.7654560">
        <ele>9.1</ele>
        <time>2021-05-17T07:55:18Z</time>
      </trkpt>
      <trkpt lat="41.4934980" lon="-8.7654730">
        <ele>9.1</ele>
        <time>2021-05-17T07:55:19Z</time>
      </trkpt>
      <trkpt lat="41.4935100" lon="-8.7654970">
        <ele>9.1</ele>
        <time>2021-05-17T07:55:20Z</time>
      </trkpt>
      <trkpt lat="41.4935160" lon="-8.7655050">
        <ele>9.1</ele>
        <time>2021-05-17T07:55:21Z</time>
      </trkpt>
      <trkpt lat="41.4935210" lon="-8.7655140">
        <ele>9.1</ele>
        <time>2021-05-17T07:55:22Z</time>
      </trkpt>
      <trkpt lat="41.4935350" lon="-8.7655210">
        <ele>9.1</ele>
        <time>2021-05-17T07:55:23Z</time>
      </trkpt>
      <trkpt lat="41.4935470" lon="-8.7655280">
        <ele>9.1</ele>
        <time>2021-05-17T07:55:24Z</time>
      </trkpt>
      <trkpt lat="41.4935600" lon="-8.7655370">
        <ele>9.1</ele>
        <time>2021-05-17T07:55:25Z</time>
      </trkpt>
      <trkpt lat="41.4935730" lon="-8.7655390">
        <ele>9.1</ele>
        <time>2021-05-17T07:55:26Z</time>
      </trkpt>
      <trkpt lat="41.4935950" lon="-8.7655470">
        <ele>9.1</ele>
        <time>2021-05-17T07:55:27Z</time>
      </trkpt>
      <trkpt lat="41.4936050" lon="-8.7655490">
        <ele>9.1</ele>
        <time>2021-05-17T07:55:28Z</time>
      </trkpt>
      <trkpt lat="41.4936140" lon="-8.7655520">
        <ele>9.1</ele>
        <time>2021-05-17T07:55:29Z</time>
      </trkpt>
      <trkpt lat="41.4936280" lon="-8.7655570">
        <ele>9.1</ele>
        <time>2021-05-17T07:55:30Z</time>
      </trkpt>
      <trkpt lat="41.4936410" lon="-8.7655670">
        <ele>9.1</ele>
        <time>2021-05-17T07:55:31Z</time>
      </trkpt>
      <trkpt lat="41.4936480" lon="-8.7655890">
        <ele>9.1</ele>
        <time>2021-05-17T07:55:32Z</time>
      </trkpt>
      <trkpt lat="41.4936630" lon="-8.7655910">
        <ele>9.1</ele>
        <time>2021-05-17T07:55:33Z</time>
      </trkpt>
      <trkpt lat="41.4936810" lon="-8.7656040">
        <ele>9.0</ele>
        <time>2021-05-17T07:55:34Z</time>
      </trkpt>
      <trkpt lat="41.4936900" lon="-8.7656090">
        <ele>9.0</ele>
        <time>2021-05-17T07:55:35Z</time>
      </trkpt>
      <trkpt lat="41.4936980" lon="-8.7656130">
        <ele>9.0</ele>
        <time>2021-05-17T07:55:36Z</time>
      </trkpt>
      <trkpt lat="41.4937160" lon="-8.7656310">
        <ele>9.0</ele>
        <time>2021-05-17T07:55:37Z</time>
      </trkpt>
      <trkpt lat="41.4937240" lon="-8.7656350">
        <ele>9.0</ele>
        <time>2021-05-17T07:55:38Z</time>
      </trkpt>
      <trkpt lat="41.4937320" lon="-8.7656400">
        <ele>9.0</ele>
        <time>2021-05-17T07:55:39Z</time>
      </trkpt>
      <trkpt lat="41.4937480" lon="-8.7656610">
        <ele>9.0</ele>
        <time>2021-05-17T07:55:40Z</time>
      </trkpt>
      <trkpt lat="41.4937540" lon="-8.7656680">
        <ele>9.0</ele>
        <time>2021-05-17T07:55:41Z</time>
      </trkpt>
      <trkpt lat="41.4937590" lon="-8.7656760">
        <ele>9.0</ele>
        <time>2021-05-17T07:55:42Z</time>
      </trkpt>
      <trkpt lat="41.4937720" lon="-8.7656870">
        <ele>9.0</ele>
        <time>2021-05-17T07:55:43Z</time>
      </trkpt>
      <trkpt lat="41.4937730" lon="-8.7657030">
        <ele>9.0</ele>
        <time>2021-05-17T07:55:44Z</time>
      </trkpt>
      <trkpt lat="41.4937780" lon="-8.7657180">
        <ele>9.0</ele>
        <time>2021-05-17T07:55:45Z</time>
      </trkpt>
      <trkpt lat="41.4937860" lon="-8.7657310">
        <ele>9.0</ele>
        <time>2021-05-17T07:55:46Z</time>
      </trkpt>
      <trkpt lat="41.4937950" lon="-8.7657440">
        <ele>9.0</ele>
        <time>2021-05-17T07:55:47Z</time>
      </trkpt>
      <trkpt lat="41.4938030" lon="-8.7657520">
        <ele>9.0</ele>
        <time>2021-05-17T07:55:48Z</time>
      </trkpt>
      <trkpt lat="41.4938140" lon="-8.7657770">
        <ele>9.0</ele>
        <time>2021-05-17T07:55:49Z</time>
      </trkpt>
      <trkpt lat="41.4938170" lon="-8.7657880">
        <ele>9.0</ele>
        <time>2021-05-17T07:55:50Z</time>
      </trkpt>
      <trkpt lat="41.4938190" lon="-8.7657980">
        <ele>9.0</ele>
        <time>2021-05-17T07:55:51Z</time>
      </trkpt>
      <trkpt lat="41.4938190" lon="-8.7658110">
        <ele>9.0</ele>
        <time>2021-05-17T07:55:52Z</time>
      </trkpt>
      <trkpt lat="41.4938210" lon="-8.7658270">
        <ele>9.0</ele>
        <time>2021-05-17T07:55:53Z</time>
      </trkpt>
      <trkpt lat="41.4938250" lon="-8.7658370">
        <ele>9.0</ele>
        <time>2021-05-17T07:55:54Z</time>
      </trkpt>
      <trkpt lat="41.4938260" lon="-8.7658560">
        <ele>9.0</ele>
        <time>2021-05-17T07:55:55Z</time>
      </trkpt>
      <trkpt lat="41.4938340" lon="-8.7658770">
        <ele>9.0</ele>
        <time>2021-05-17T07:55:56Z</time>
      </trkpt>
      <trkpt lat="41.4938410" lon="-8.7658940">
        <ele>9.0</ele>
        <time>2021-05-17T07:55:57Z</time>
      </trkpt>
      <trkpt lat="41.4938480" lon="-8.7659110">
        <ele>9.0</ele>
        <time>2021-05-17T07:55:58Z</time>
      </trkpt>
      <trkpt lat="41.4938500" lon="-8.7659290">
        <ele>9.0</ele>
        <time>2021-05-17T07:55:59Z</time>
      </trkpt>
      <trkpt lat="41.4938580" lon="-8.7659460">
        <ele>9.0</ele>
        <time>2021-05-17T07:56:00Z</time>
      </trkpt>
      <trkpt lat="41.4938700" lon="-8.7659570">
        <ele>9.0</ele>
        <time>2021-05-17T07:56:01Z</time>
      </trkpt>
      <trkpt lat="41.4938760" lon="-8.7659730">
        <ele>9.0</ele>
        <time>2021-05-17T07:56:02Z</time>
      </trkpt>
      <trkpt lat="41.4938840" lon="-8.7659840">
        <ele>9.1</ele>
        <time>2021-05-17T07:56:03Z</time>
      </trkpt>
      <trkpt lat="41.4938940" lon="-8.7659890">
        <ele>9.1</ele>
        <time>2021-05-17T07:56:04Z</time>
      </trkpt>
      <trkpt lat="41.4939030" lon="-8.7659960">
        <ele>9.1</ele>
        <time>2021-05-17T07:56:05Z</time>
      </trkpt>
      <trkpt lat="41.4939180" lon="-8.7660050">
        <ele>9.2</ele>
        <time>2021-05-17T07:56:06Z</time>
      </trkpt>
      <trkpt lat="41.4939270" lon="-8.7660200">
        <ele>9.2</ele>
        <time>2021-05-17T07:56:07Z</time>
      </trkpt>
      <trkpt lat="41.4939460" lon="-8.7660270">
        <ele>9.2</ele>
        <time>2021-05-17T07:56:08Z</time>
      </trkpt>
      <trkpt lat="41.4939530" lon="-8.7660330">
        <ele>9.2</ele>
        <time>2021-05-17T07:56:09Z</time>
      </trkpt>
      <trkpt lat="41.4939610" lon="-8.7660390">
        <ele>9.2</ele>
        <time>2021-05-17T07:56:10Z</time>
      </trkpt>
      <trkpt lat="41.4939700" lon="-8.7660410">
        <ele>9.2</ele>
        <time>2021-05-17T07:56:11Z</time>
      </trkpt>
      <trkpt lat="41.4939810" lon="-8.7660420">
        <ele>9.3</ele>
        <time>2021-05-17T07:56:12Z</time>
      </trkpt>
      <trkpt lat="41.4939910" lon="-8.7660380">
        <ele>9.3</ele>
        <time>2021-05-17T07:56:13Z</time>
      </trkpt>
      <trkpt lat="41.4940170" lon="-8.7660440">
        <ele>9.3</ele>
        <time>2021-05-17T07:56:14Z</time>
      </trkpt>
      <trkpt lat="41.4940250" lon="-8.7660450">
        <ele>9.3</ele>
        <time>2021-05-17T07:56:15Z</time>
      </trkpt>
      <trkpt lat="41.4940340" lon="-8.7660470">
        <ele>9.4</ele>
        <time>2021-05-17T07:56:16Z</time>
      </trkpt>
      <trkpt lat="41.4940420" lon="-8.7660480">
        <ele>9.4</ele>
        <time>2021-05-17T07:56:17Z</time>
      </trkpt>
      <trkpt lat="41.4940510" lon="-8.7660490">
        <ele>9.4</ele>
        <time>2021-05-17T07:56:18Z</time>
      </trkpt>
      <trkpt lat="41.4940690" lon="-8.7660520">
        <ele>9.4</ele>
        <time>2021-05-17T07:56:19Z</time>
      </trkpt>
      <trkpt lat="41.4940910" lon="-8.7660550">
        <ele>9.5</ele>
        <time>2021-05-17T07:56:20Z</time>
      </trkpt>
      <trkpt lat="41.4940990" lon="-8.7660550">
        <ele>9.5</ele>
        <time>2021-05-17T07:56:21Z</time>
      </trkpt>
      <trkpt lat="41.4941060" lon="-8.7660550">
        <ele>9.5</ele>
        <time>2021-05-17T07:56:22Z</time>
      </trkpt>
      <trkpt lat="41.4941210" lon="-8.7660550">
        <ele>9.5</ele>
        <time>2021-05-17T07:56:23Z</time>
      </trkpt>
      <trkpt lat="41.4941350" lon="-8.7660540">
        <ele>9.5</ele>
        <time>2021-05-17T07:56:24Z</time>
      </trkpt>
      <trkpt lat="41.4941500" lon="-8.7660600">
        <ele>9.6</ele>
        <time>2021-05-17T07:56:25Z</time>
      </trkpt>
      <trkpt lat="41.4941570" lon="-8.7660610">
        <ele>9.6</ele>
        <time>2021-05-17T07:56:26Z</time>
      </trkpt>
      <trkpt lat="41.4941680" lon="-8.7660570">
        <ele>9.6</ele>
        <time>2021-05-17T07:56:27Z</time>
      </trkpt>
      <trkpt lat="41.4941870" lon="-8.7660640">
        <ele>9.6</ele>
        <time>2021-05-17T07:56:28Z</time>
      </trkpt>
      <trkpt lat="41.4941970" lon="-8.7660660">
        <ele>9.6</ele>
        <time>2021-05-17T07:56:29Z</time>
      </trkpt>
      <trkpt lat="41.4942070" lon="-8.7660690">
        <ele>9.7</ele>
        <time>2021-05-17T07:56:30Z</time>
      </trkpt>
      <trkpt lat="41.4942270" lon="-8.7660720">
        <ele>9.7</ele>
        <time>2021-05-17T07:56:31Z</time>
      </trkpt>
      <trkpt lat="41.4942410" lon="-8.7660760">
        <ele>9.7</ele>
        <time>2021-05-17T07:56:32Z</time>
      </trkpt>
      <trkpt lat="41.4942540" lon="-8.7660770">
        <ele>9.7</ele>
        <time>2021-05-17T07:56:33Z</time>
      </trkpt>
      <trkpt lat="41.4942750" lon="-8.7660790">
        <ele>9.8</ele>
        <time>2021-05-17T07:56:34Z</time>
      </trkpt>
      <trkpt lat="41.4942950" lon="-8.7660870">
        <ele>9.8</ele>
        <time>2021-05-17T07:56:35Z</time>
      </trkpt>
      <trkpt lat="41.4943040" lon="-8.7660880">
        <ele>9.8</ele>
        <time>2021-05-17T07:56:36Z</time>
      </trkpt>
      <trkpt lat="41.4943130" lon="-8.7660890">
        <ele>9.8</ele>
        <time>2021-05-17T07:56:37Z</time>
      </trkpt>
      <trkpt lat="41.4943220" lon="-8.7660970">
        <ele>9.9</ele>
        <time>2021-05-17T07:56:38Z</time>
      </trkpt>
      <trkpt lat="41.4943380" lon="-8.7661020">
        <ele>9.9</ele>
        <time>2021-05-17T07:56:39Z</time>
      </trkpt>
      <trkpt lat="41.4943600" lon="-8.7661040">
        <ele>9.9</ele>
        <time>2021-05-17T07:56:40Z</time>
      </trkpt>
      <trkpt lat="41.4943680" lon="-8.7661070">
        <ele>9.9</ele>
        <time>2021-05-17T07:56:41Z</time>
      </trkpt>
      <trkpt lat="41.4943770" lon="-8.7661100">
        <ele>10.0</ele>
        <time>2021-05-17T07:56:42Z</time>
      </trkpt>
      <trkpt lat="41.4943890" lon="-8.7661160">
        <ele>10.0</ele>
        <time>2021-05-17T07:56:43Z</time>
      </trkpt>
      <trkpt lat="41.4944000" lon="-8.7661200">
        <ele>10.0</ele>
        <time>2021-05-17T07:56:44Z</time>
      </trkpt>
      <trkpt lat="41.4944120" lon="-8.7661210">
        <ele>10.0</ele>
        <time>2021-05-17T07:56:45Z</time>
      </trkpt>
      <trkpt lat="41.4944300" lon="-8.7661230">
        <ele>10.0</ele>
        <time>2021-05-17T07:56:46Z</time>
      </trkpt>
      <trkpt lat="41.4944400" lon="-8.7661200">
        <ele>10.1</ele>
        <time>2021-05-17T07:56:47Z</time>
      </trkpt>
      <trkpt lat="41.4944490" lon="-8.7661170">
        <ele>10.1</ele>
        <time>2021-05-17T07:56:48Z</time>
      </trkpt>
      <trkpt lat="41.4944620" lon="-8.7661320">
        <ele>10.1</ele>
        <time>2021-05-17T07:56:49Z</time>
      </trkpt>
      <trkpt lat="41.4944790" lon="-8.7661390">
        <ele>10.1</ele>
        <time>2021-05-17T07:56:50Z</time>
      </trkpt>
      <trkpt lat="41.4944890" lon="-8.7661410">
        <ele>10.2</ele>
        <time>2021-05-17T07:56:51Z</time>
      </trkpt>
      <trkpt lat="41.4944990" lon="-8.7661450">
        <ele>10.2</ele>
        <time>2021-05-17T07:56:52Z</time>
      </trkpt>
      <trkpt lat="41.4945080" lon="-8.7661410">
        <ele>10.2</ele>
        <time>2021-05-17T07:56:53Z</time>
      </trkpt>
      <trkpt lat="41.4945310" lon="-8.7661400">
        <ele>10.2</ele>
        <time>2021-05-17T07:56:54Z</time>
      </trkpt>
      <trkpt lat="41.4945420" lon="-8.7661390">
        <ele>10.2</ele>
        <time>2021-05-17T07:56:55Z</time>
      </trkpt>
      <trkpt lat="41.4945540" lon="-8.7661380">
        <ele>10.2</ele>
        <time>2021-05-17T07:56:56Z</time>
      </trkpt>
      <trkpt lat="41.4945620" lon="-8.7661470">
        <ele>10.2</ele>
        <time>2021-05-17T07:56:57Z</time>
      </trkpt>
      <trkpt lat="41.4945880" lon="-8.7661460">
        <ele>10.3</ele>
        <time>2021-05-17T07:56:58Z</time>
      </trkpt>
      <trkpt lat="41.4946150" lon="-8.7661480">
        <ele>10.3</ele>
        <time>2021-05-17T07:56:59Z</time>
      </trkpt>
      <trkpt lat="41.4946250" lon="-8.7661500">
        <ele>10.3</ele>
        <time>2021-05-17T07:57:00Z</time>
      </trkpt>
      <trkpt lat="41.4946520" lon="-8.7661570">
        <ele>10.3</ele>
        <time>2021-05-17T07:57:01Z</time>
      </trkpt>
      <trkpt lat="41.4946610" lon="-8.7661560">
        <ele>10.3</ele>
        <time>2021-05-17T07:57:02Z</time>
      </trkpt>
      <trkpt lat="41.4946770" lon="-8.7661600">
        <ele>10.3</ele>
        <time>2021-05-17T07:57:03Z</time>
      </trkpt>
      <trkpt lat="41.4946930" lon="-8.7661640">
        <ele>10.3</ele>
        <time>2021-05-17T07:57:04Z</time>
      </trkpt>
      <trkpt lat="41.4947080" lon="-8.7661750">
        <ele>10.3</ele>
        <time>2021-05-17T07:57:05Z</time>
      </trkpt>
      <trkpt lat="41.4947240" lon="-8.7661780">
        <ele>10.3</ele>
        <time>2021-05-17T07:57:06Z</time>
      </trkpt>
      <trkpt lat="41.4947400" lon="-8.7661790">
        <ele>10.3</ele>
        <time>2021-05-17T07:57:07Z</time>
      </trkpt>
      <trkpt lat="41.4947580" lon="-8.7661770">
        <ele>10.3</ele>
        <time>2021-05-17T07:57:08Z</time>
      </trkpt>
      <trkpt lat="41.4947750" lon="-8.7661840">
        <ele>10.3</ele>
        <time>2021-05-17T07:57:09Z</time>
      </trkpt>
      <trkpt lat="41.4947900" lon="-8.7661890">
        <ele>10.3</ele>
        <time>2021-05-17T07:57:10Z</time>
      </trkpt>
      <trkpt lat="41.4948060" lon="-8.7662010">
        <ele>10.3</ele>
        <time>2021-05-17T07:57:11Z</time>
      </trkpt>
      <trkpt lat="41.4948230" lon="-8.7661990">
        <ele>10.2</ele>
        <time>2021-05-17T07:57:12Z</time>
      </trkpt>
      <trkpt lat="41.4948380" lon="-8.7662050">
        <ele>10.2</ele>
        <time>2021-05-17T07:57:13Z</time>
      </trkpt>
      <trkpt lat="41.4948560" lon="-8.7662140">
        <ele>10.2</ele>
        <time>2021-05-17T07:57:14Z</time>
      </trkpt>
      <trkpt lat="41.4948700" lon="-8.7662220">
        <ele>10.2</ele>
        <time>2021-05-17T07:57:15Z</time>
      </trkpt>
      <trkpt lat="41.4949030" lon="-8.7662220">
        <ele>10.2</ele>
        <time>2021-05-17T07:57:16Z</time>
      </trkpt>
      <trkpt lat="41.4949160" lon="-8.7662310">
        <ele>10.2</ele>
        <time>2021-05-17T07:57:17Z</time>
      </trkpt>
      <trkpt lat="41.4949310" lon="-8.7662410">
        <ele>10.2</ele>
        <time>2021-05-17T07:57:19Z</time>
      </trkpt>
      <trkpt lat="41.4949430" lon="-8.7662470">
        <ele>10.2</ele>
        <time>2021-05-17T07:57:20Z</time>
      </trkpt>
      <trkpt lat="41.4949540" lon="-8.7662560">
        <ele>10.2</ele>
        <time>2021-05-17T07:57:21Z</time>
      </trkpt>
      <trkpt lat="41.4949650" lon="-8.7662580">
        <ele>10.2</ele>
        <time>2021-05-17T07:57:22Z</time>
      </trkpt>
      <trkpt lat="41.4949720" lon="-8.7662630">
        <ele>10.1</ele>
        <time>2021-05-17T07:57:23Z</time>
      </trkpt>
      <trkpt lat="41.4949800" lon="-8.7662630">
        <ele>10.1</ele>
        <time>2021-05-17T07:57:24Z</time>
      </trkpt>
      <trkpt lat="41.4949930" lon="-8.7662610">
        <ele>10.1</ele>
        <time>2021-05-17T07:57:25Z</time>
      </trkpt>
      <trkpt lat="41.4950060" lon="-8.7662660">
        <ele>10.1</ele>
        <time>2021-05-17T07:57:26Z</time>
      </trkpt>
      <trkpt lat="41.4950270" lon="-8.7662750">
        <ele>10.1</ele>
        <time>2021-05-17T07:57:27Z</time>
      </trkpt>
      <trkpt lat="41.4950370" lon="-8.7662800">
        <ele>10.1</ele>
        <time>2021-05-17T07:57:28Z</time>
      </trkpt>
      <trkpt lat="41.4950460" lon="-8.7662840">
        <ele>10.1</ele>
        <time>2021-05-17T07:57:29Z</time>
      </trkpt>
      <trkpt lat="41.4950660" lon="-8.7662880">
        <ele>10.1</ele>
        <time>2021-05-17T07:57:30Z</time>
      </trkpt>
      <trkpt lat="41.4950730" lon="-8.7662910">
        <ele>10.1</ele>
        <time>2021-05-17T07:57:31Z</time>
      </trkpt>
      <trkpt lat="41.4950810" lon="-8.7662950">
        <ele>10.1</ele>
        <time>2021-05-17T07:57:32Z</time>
      </trkpt>
      <trkpt lat="41.4950940" lon="-8.7663000">
        <ele>10.1</ele>
        <time>2021-05-17T07:57:33Z</time>
      </trkpt>
      <trkpt lat="41.4951040" lon="-8.7663070">
        <ele>10.1</ele>
        <time>2021-05-17T07:57:34Z</time>
      </trkpt>
      <trkpt lat="41.4951140" lon="-8.7663140">
        <ele>10.1</ele>
        <time>2021-05-17T07:57:35Z</time>
      </trkpt>
      <trkpt lat="41.4951320" lon="-8.7663210">
        <ele>10.0</ele>
        <time>2021-05-17T07:57:36Z</time>
      </trkpt>
      <trkpt lat="41.4951410" lon="-8.7663230">
        <ele>10.0</ele>
        <time>2021-05-17T07:57:37Z</time>
      </trkpt>
      <trkpt lat="41.4951510" lon="-8.7663250">
        <ele>10.0</ele>
        <time>2021-05-17T07:57:38Z</time>
      </trkpt>
      <trkpt lat="41.4951560" lon="-8.7663200">
        <ele>10.0</ele>
        <time>2021-05-17T07:57:39Z</time>
      </trkpt>
      <trkpt lat="41.4951720" lon="-8.7663200">
        <ele>10.0</ele>
        <time>2021-05-17T07:57:40Z</time>
      </trkpt>
      <trkpt lat="41.4951860" lon="-8.7663230">
        <ele>10.0</ele>
        <time>2021-05-17T07:57:41Z</time>
      </trkpt>
      <trkpt lat="41.4951970" lon="-8.7663310">
        <ele>10.0</ele>
        <time>2021-05-17T07:57:42Z</time>
      </trkpt>
      <trkpt lat="41.4952140" lon="-8.7663470">
        <ele>10.0</ele>
        <time>2021-05-17T07:57:43Z</time>
      </trkpt>
      <trkpt lat="41.4952210" lon="-8.7663560">
        <ele>10.0</ele>
        <time>2021-05-17T07:57:44Z</time>
      </trkpt>
      <trkpt lat="41.4952310" lon="-8.7663650">
        <ele>10.0</ele>
        <time>2021-05-17T07:57:45Z</time>
      </trkpt>
      <trkpt lat="41.4952360" lon="-8.7663740">
        <ele>10.0</ele>
        <time>2021-05-17T07:57:46Z</time>
      </trkpt>
      <trkpt lat="41.4952500" lon="-8.7663840">
        <ele>10.0</ele>
        <time>2021-05-17T07:57:47Z</time>
      </trkpt>
      <trkpt lat="41.4952640" lon="-8.7663850">
        <ele>10.0</ele>
        <time>2021-05-17T07:57:48Z</time>
      </trkpt>
      <trkpt lat="41.4952700" lon="-8.7663900">
        <ele>10.0</ele>
        <time>2021-05-17T07:57:49Z</time>
      </trkpt>
      <trkpt lat="41.4952840" lon="-8.7663930">
        <ele>9.9</ele>
        <time>2021-05-17T07:57:50Z</time>
      </trkpt>
      <trkpt lat="41.4953000" lon="-8.7663910">
        <ele>9.9</ele>
        <time>2021-05-17T07:57:51Z</time>
      </trkpt>
      <trkpt lat="41.4953170" lon="-8.7664010">
        <ele>9.9</ele>
        <time>2021-05-17T07:57:52Z</time>
      </trkpt>
      <trkpt lat="41.4953260" lon="-8.7664050">
        <ele>9.9</ele>
        <time>2021-05-17T07:57:53Z</time>
      </trkpt>
      <trkpt lat="41.4953340" lon="-8.7664100">
        <ele>9.9</ele>
        <time>2021-05-17T07:57:54Z</time>
      </trkpt>
      <trkpt lat="41.4953570" lon="-8.7664180">
        <ele>9.9</ele>
        <time>2021-05-17T07:57:55Z</time>
      </trkpt>
      <trkpt lat="41.4953650" lon="-8.7664220">
        <ele>9.9</ele>
        <time>2021-05-17T07:57:56Z</time>
      </trkpt>
      <trkpt lat="41.4953720" lon="-8.7664250">
        <ele>9.9</ele>
        <time>2021-05-17T07:57:57Z</time>
      </trkpt>
      <trkpt lat="41.4953800" lon="-8.7664330">
        <ele>9.9</ele>
        <time>2021-05-17T07:57:58Z</time>
      </trkpt>
      <trkpt lat="41.4953870" lon="-8.7664390">
        <ele>9.9</ele>
        <time>2021-05-17T07:57:59Z</time>
      </trkpt>
      <trkpt lat="41.4954060" lon="-8.7664420">
        <ele>9.9</ele>
        <time>2021-05-17T07:58:00Z</time>
      </trkpt>
      <trkpt lat="41.4954250" lon="-8.7664500">
        <ele>9.9</ele>
        <time>2021-05-17T07:58:01Z</time>
      </trkpt>
      <trkpt lat="41.4954330" lon="-8.7664530">
        <ele>9.9</ele>
        <time>2021-05-17T07:58:02Z</time>
      </trkpt>
      <trkpt lat="41.4954410" lon="-8.7664560">
        <ele>9.9</ele>
        <time>2021-05-17T07:58:03Z</time>
      </trkpt>
      <trkpt lat="41.4954610" lon="-8.7664550">
        <ele>9.9</ele>
        <time>2021-05-17T07:58:04Z</time>
      </trkpt>
      <trkpt lat="41.4954700" lon="-8.7664550">
        <ele>9.9</ele>
        <time>2021-05-17T07:58:05Z</time>
      </trkpt>
      <trkpt lat="41.4954780" lon="-8.7664550">
        <ele>9.8</ele>
        <time>2021-05-17T07:58:06Z</time>
      </trkpt>
      <trkpt lat="41.4955000" lon="-8.7664600">
        <ele>9.8</ele>
        <time>2021-05-17T07:58:07Z</time>
      </trkpt>
      <trkpt lat="41.4955090" lon="-8.7664620">
        <ele>9.8</ele>
        <time>2021-05-17T07:58:08Z</time>
      </trkpt>
      <trkpt lat="41.4955190" lon="-8.7664650">
        <ele>9.8</ele>
        <time>2021-05-17T07:58:09Z</time>
      </trkpt>
      <trkpt lat="41.4955430" lon="-8.7664700">
        <ele>9.8</ele>
        <time>2021-05-17T07:58:10Z</time>
      </trkpt>
      <trkpt lat="41.4955500" lon="-8.7664730">
        <ele>9.8</ele>
        <time>2021-05-17T07:58:11Z</time>
      </trkpt>
      <trkpt lat="41.4955580" lon="-8.7664750">
        <ele>9.8</ele>
        <time>2021-05-17T07:58:12Z</time>
      </trkpt>
      <trkpt lat="41.4955690" lon="-8.7664770">
        <ele>9.8</ele>
        <time>2021-05-17T07:58:13Z</time>
      </trkpt>
      <trkpt lat="41.4955860" lon="-8.7664830">
        <ele>9.8</ele>
        <time>2021-05-17T07:58:14Z</time>
      </trkpt>
      <trkpt lat="41.4955980" lon="-8.7664850">
        <ele>9.8</ele>
        <time>2021-05-17T07:58:15Z</time>
      </trkpt>
      <trkpt lat="41.4956140" lon="-8.7664850">
        <ele>9.7</ele>
        <time>2021-05-17T07:58:16Z</time>
      </trkpt>
      <trkpt lat="41.4956330" lon="-8.7664950">
        <ele>9.7</ele>
        <time>2021-05-17T07:58:17Z</time>
      </trkpt>
      <trkpt lat="41.4956430" lon="-8.7664970">
        <ele>9.7</ele>
        <time>2021-05-17T07:58:18Z</time>
      </trkpt>
      <trkpt lat="41.4956530" lon="-8.7664980">
        <ele>9.7</ele>
        <time>2021-05-17T07:58:19Z</time>
      </trkpt>
      <trkpt lat="41.4956650" lon="-8.7664960">
        <ele>9.7</ele>
        <time>2021-05-17T07:58:20Z</time>
      </trkpt>
      <trkpt lat="41.4956800" lon="-8.7664990">
        <ele>9.7</ele>
        <time>2021-05-17T07:58:21Z</time>
      </trkpt>
      <trkpt lat="41.4956990" lon="-8.7665070">
        <ele>9.7</ele>
        <time>2021-05-17T07:58:22Z</time>
      </trkpt>
      <trkpt lat="41.4957080" lon="-8.7665120">
        <ele>9.6</ele>
        <time>2021-05-17T07:58:23Z</time>
      </trkpt>
      <trkpt lat="41.4957180" lon="-8.7665160">
        <ele>9.6</ele>
        <time>2021-05-17T07:58:24Z</time>
      </trkpt>
      <trkpt lat="41.4957310" lon="-8.7665190">
        <ele>9.6</ele>
        <time>2021-05-17T07:58:25Z</time>
      </trkpt>
      <trkpt lat="41.4957460" lon="-8.7665230">
        <ele>9.6</ele>
        <time>2021-05-17T07:58:26Z</time>
      </trkpt>
      <trkpt lat="41.4957620" lon="-8.7665290">
        <ele>9.6</ele>
        <time>2021-05-17T07:58:27Z</time>
      </trkpt>
      <trkpt lat="41.4957800" lon="-8.7665320">
        <ele>9.5</ele>
        <time>2021-05-17T07:58:28Z</time>
      </trkpt>
      <trkpt lat="41.4958070" lon="-8.7665420">
        <ele>9.5</ele>
        <time>2021-05-17T07:58:29Z</time>
      </trkpt>
      <trkpt lat="41.4958150" lon="-8.7665450">
        <ele>9.5</ele>
        <time>2021-05-17T07:58:30Z</time>
      </trkpt>
      <trkpt lat="41.4958290" lon="-8.7665530">
        <ele>9.5</ele>
        <time>2021-05-17T07:58:31Z</time>
      </trkpt>
      <trkpt lat="41.4958450" lon="-8.7665560">
        <ele>9.5</ele>
        <time>2021-05-17T07:58:32Z</time>
      </trkpt>
      <trkpt lat="41.4958600" lon="-8.7665710">
        <ele>9.4</ele>
        <time>2021-05-17T07:58:33Z</time>
      </trkpt>
      <trkpt lat="41.4958710" lon="-8.7665700">
        <ele>9.4</ele>
        <time>2021-05-17T07:58:34Z</time>
      </trkpt>
      <trkpt lat="41.4958940" lon="-8.7665730">
        <ele>9.4</ele>
        <time>2021-05-17T07:58:35Z</time>
      </trkpt>
      <trkpt lat="41.4959040" lon="-8.7665760">
        <ele>9.4</ele>
        <time>2021-05-17T07:58:36Z</time>
      </trkpt>
      <trkpt lat="41.4959150" lon="-8.7665790">
        <ele>9.4</ele>
        <time>2021-05-17T07:58:37Z</time>
      </trkpt>
      <trkpt lat="41.4959270" lon="-8.7665790">
        <ele>9.4</ele>
        <time>2021-05-17T07:58:38Z</time>
      </trkpt>
      <trkpt lat="41.4959480" lon="-8.7665840">
        <ele>9.3</ele>
        <time>2021-05-17T07:58:39Z</time>
      </trkpt>
      <trkpt lat="41.4959530" lon="-8.7666030">
        <ele>9.3</ele>
        <time>2021-05-17T07:58:40Z</time>
      </trkpt>
      <trkpt lat="41.4959670" lon="-8.7666090">
        <ele>9.3</ele>
        <time>2021-05-17T07:58:41Z</time>
      </trkpt>
      <trkpt lat="41.4959820" lon="-8.7666090">
        <ele>9.3</ele>
        <time>2021-05-17T07:58:42Z</time>
      </trkpt>
      <trkpt lat="41.4959940" lon="-8.7666190">
        <ele>9.3</ele>
        <time>2021-05-17T07:58:43Z</time>
      </trkpt>
      <trkpt lat="41.4960180" lon="-8.7666280">
        <ele>9.3</ele>
        <time>2021-05-17T07:58:44Z</time>
      </trkpt>
      <trkpt lat="41.4960260" lon="-8.7666300">
        <ele>9.3</ele>
        <time>2021-05-17T07:58:45Z</time>
      </trkpt>
      <trkpt lat="41.4960350" lon="-8.7666330">
        <ele>9.3</ele>
        <time>2021-05-17T07:58:46Z</time>
      </trkpt>
      <trkpt lat="41.4960490" lon="-8.7666270">
        <ele>9.2</ele>
        <time>2021-05-17T07:58:47Z</time>
      </trkpt>
      <trkpt lat="41.4960590" lon="-8.7666350">
        <ele>9.2</ele>
        <time>2021-05-17T07:58:48Z</time>
      </trkpt>
      <trkpt lat="41.4960670" lon="-8.7666410">
        <ele>9.2</ele>
        <time>2021-05-17T07:58:49Z</time>
      </trkpt>
      <trkpt lat="41.4960850" lon="-8.7666420">
        <ele>9.2</ele>
        <time>2021-05-17T07:58:50Z</time>
      </trkpt>
      <trkpt lat="41.4960960" lon="-8.7666390">
        <ele>9.2</ele>
        <time>2021-05-17T07:58:51Z</time>
      </trkpt>
      <trkpt lat="41.4961150" lon="-8.7666410">
        <ele>9.2</ele>
        <time>2021-05-17T07:58:52Z</time>
      </trkpt>
      <trkpt lat="41.4961310" lon="-8.7666440">
        <ele>9.2</ele>
        <time>2021-05-17T07:58:53Z</time>
      </trkpt>
      <trkpt lat="41.4961460" lon="-8.7666490">
        <ele>9.2</ele>
        <time>2021-05-17T07:58:54Z</time>
      </trkpt>
      <trkpt lat="41.4961630" lon="-8.7666550">
        <ele>9.2</ele>
        <time>2021-05-17T07:58:55Z</time>
      </trkpt>
      <trkpt lat="41.4961790" lon="-8.7666580">
        <ele>9.2</ele>
        <time>2021-05-17T07:58:56Z</time>
      </trkpt>
      <trkpt lat="41.4961890" lon="-8.7666600">
        <ele>9.2</ele>
        <time>2021-05-17T07:58:57Z</time>
      </trkpt>
      <trkpt lat="41.4961970" lon="-8.7666620">
        <ele>9.2</ele>
        <time>2021-05-17T07:58:58Z</time>
      </trkpt>
      <trkpt lat="41.4962150" lon="-8.7666610">
        <ele>9.2</ele>
        <time>2021-05-17T07:58:59Z</time>
      </trkpt>
      <trkpt lat="41.4962310" lon="-8.7666660">
        <ele>9.2</ele>
        <time>2021-05-17T07:59:00Z</time>
      </trkpt>
      <trkpt lat="41.4962470" lon="-8.7666760">
        <ele>9.2</ele>
        <time>2021-05-17T07:59:01Z</time>
      </trkpt>
      <trkpt lat="41.4962570" lon="-8.7666780">
        <ele>9.2</ele>
        <time>2021-05-17T07:59:02Z</time>
      </trkpt>
      <trkpt lat="41.4962770" lon="-8.7666780">
        <ele>9.2</ele>
        <time>2021-05-17T07:59:03Z</time>
      </trkpt>
      <trkpt lat="41.4962850" lon="-8.7666800">
        <ele>9.2</ele>
        <time>2021-05-17T07:59:04Z</time>
      </trkpt>
      <trkpt lat="41.4962940" lon="-8.7666820">
        <ele>9.2</ele>
        <time>2021-05-17T07:59:05Z</time>
      </trkpt>
      <trkpt lat="41.4963080" lon="-8.7666880">
        <ele>9.2</ele>
        <time>2021-05-17T07:59:06Z</time>
      </trkpt>
      <trkpt lat="41.4963240" lon="-8.7666910">
        <ele>9.2</ele>
        <time>2021-05-17T07:59:07Z</time>
      </trkpt>
      <trkpt lat="41.4963440" lon="-8.7666950">
        <ele>9.2</ele>
        <time>2021-05-17T07:59:08Z</time>
      </trkpt>
      <trkpt lat="41.4963530" lon="-8.7666950">
        <ele>9.2</ele>
        <time>2021-05-17T07:59:09Z</time>
      </trkpt>
      <trkpt lat="41.4963610" lon="-8.7666940">
        <ele>9.2</ele>
        <time>2021-05-17T07:59:10Z</time>
      </trkpt>
      <trkpt lat="41.4963790" lon="-8.7666930">
        <ele>9.2</ele>
        <time>2021-05-17T07:59:11Z</time>
      </trkpt>
      <trkpt lat="41.4963850" lon="-8.7666970">
        <ele>9.2</ele>
        <time>2021-05-17T07:59:12Z</time>
      </trkpt>
      <trkpt lat="41.4963900" lon="-8.7667020">
        <ele>9.2</ele>
        <time>2021-05-17T07:59:13Z</time>
      </trkpt>
      <trkpt lat="41.4963960" lon="-8.7667070">
        <ele>9.2</ele>
        <time>2021-05-17T07:59:14Z</time>
      </trkpt>
      <trkpt lat="41.4964250" lon="-8.7667150">
        <ele>9.2</ele>
        <time>2021-05-17T07:59:15Z</time>
      </trkpt>
      <trkpt lat="41.4964350" lon="-8.7667180">
        <ele>9.2</ele>
        <time>2021-05-17T07:59:16Z</time>
      </trkpt>
      <trkpt lat="41.4964490" lon="-8.7667200">
        <ele>9.2</ele>
        <time>2021-05-17T07:59:17Z</time>
      </trkpt>
      <trkpt lat="41.4964680" lon="-8.7667260">
        <ele>9.2</ele>
        <time>2021-05-17T07:59:18Z</time>
      </trkpt>
      <trkpt lat="41.4964930" lon="-8.7667350">
        <ele>9.2</ele>
        <time>2021-05-17T07:59:19Z</time>
      </trkpt>
      <trkpt lat="41.4965010" lon="-8.7667340">
        <ele>9.2</ele>
        <time>2021-05-17T07:59:20Z</time>
      </trkpt>
      <trkpt lat="41.4965090" lon="-8.7667340">
        <ele>9.2</ele>
        <time>2021-05-17T07:59:21Z</time>
      </trkpt>
      <trkpt lat="41.4965290" lon="-8.7667430">
        <ele>9.2</ele>
        <time>2021-05-17T07:59:22Z</time>
      </trkpt>
      <trkpt lat="41.4965360" lon="-8.7667450">
        <ele>9.2</ele>
        <time>2021-05-17T07:59:23Z</time>
      </trkpt>
      <trkpt lat="41.4965440" lon="-8.7667470">
        <ele>9.2</ele>
        <time>2021-05-17T07:59:24Z</time>
      </trkpt>
      <trkpt lat="41.4965610" lon="-8.7667520">
        <ele>9.2</ele>
        <time>2021-05-17T07:59:25Z</time>
      </trkpt>
      <trkpt lat="41.4965720" lon="-8.7667520">
        <ele>9.2</ele>
        <time>2021-05-17T07:59:26Z</time>
      </trkpt>
      <trkpt lat="41.4965840" lon="-8.7667490">
        <ele>9.2</ele>
        <time>2021-05-17T07:59:27Z</time>
      </trkpt>
      <trkpt lat="41.4966050" lon="-8.7667500">
        <ele>9.2</ele>
        <time>2021-05-17T07:59:28Z</time>
      </trkpt>
      <trkpt lat="41.4966290" lon="-8.7667580">
        <ele>9.2</ele>
        <time>2021-05-17T07:59:29Z</time>
      </trkpt>
      <trkpt lat="41.4966360" lon="-8.7667580">
        <ele>9.2</ele>
        <time>2021-05-17T07:59:30Z</time>
      </trkpt>
      <trkpt lat="41.4966440" lon="-8.7667590">
        <ele>9.2</ele>
        <time>2021-05-17T07:59:31Z</time>
      </trkpt>
      <trkpt lat="41.4966640" lon="-8.7667710">
        <ele>9.2</ele>
        <time>2021-05-17T07:59:32Z</time>
      </trkpt>
      <trkpt lat="41.4966720" lon="-8.7667730">
        <ele>9.2</ele>
        <time>2021-05-17T07:59:33Z</time>
      </trkpt>
      <trkpt lat="41.4966810" lon="-8.7667760">
        <ele>9.2</ele>
        <time>2021-05-17T07:59:34Z</time>
      </trkpt>
      <trkpt lat="41.4966910" lon="-8.7667780">
        <ele>9.2</ele>
        <time>2021-05-17T07:59:35Z</time>
      </trkpt>
      <trkpt lat="41.4967010" lon="-8.7667800">
        <ele>9.2</ele>
        <time>2021-05-17T07:59:36Z</time>
      </trkpt>
      <trkpt lat="41.4967140" lon="-8.7667780">
        <ele>9.2</ele>
        <time>2021-05-17T07:59:37Z</time>
      </trkpt>
      <trkpt lat="41.4967450" lon="-8.7667780">
        <ele>9.2</ele>
        <time>2021-05-17T07:59:38Z</time>
      </trkpt>
      <trkpt lat="41.4967540" lon="-8.7667790">
        <ele>9.2</ele>
        <time>2021-05-17T07:59:39Z</time>
      </trkpt>
      <trkpt lat="41.4967600" lon="-8.7667820">
        <ele>9.2</ele>
        <time>2021-05-17T07:59:40Z</time>
      </trkpt>
      <trkpt lat="41.4967720" lon="-8.7667890">
        <ele>9.2</ele>
        <time>2021-05-17T07:59:41Z</time>
      </trkpt>
      <trkpt lat="41.4967820" lon="-8.7667930">
        <ele>9.2</ele>
        <time>2021-05-17T07:59:42Z</time>
      </trkpt>
      <trkpt lat="41.4967870" lon="-8.7667940">
        <ele>9.2</ele>
        <time>2021-05-17T07:59:43Z</time>
      </trkpt>
      <trkpt lat="41.4967930" lon="-8.7668040">
        <ele>9.2</ele>
        <time>2021-05-17T07:59:44Z</time>
      </trkpt>
      <trkpt lat="41.4968080" lon="-8.7668050">
        <ele>9.2</ele>
        <time>2021-05-17T07:59:45Z</time>
      </trkpt>
      <trkpt lat="41.4968220" lon="-8.7668050">
        <ele>9.2</ele>
        <time>2021-05-17T07:59:46Z</time>
      </trkpt>
      <trkpt lat="41.4968370" lon="-8.7668120">
        <ele>9.2</ele>
        <time>2021-05-17T07:59:47Z</time>
      </trkpt>
      <trkpt lat="41.4968490" lon="-8.7668230">
        <ele>9.2</ele>
        <time>2021-05-17T07:59:48Z</time>
      </trkpt>
      <trkpt lat="41.4968650" lon="-8.7668320">
        <ele>9.2</ele>
        <time>2021-05-17T07:59:49Z</time>
      </trkpt>
      <trkpt lat="41.4968830" lon="-8.7668330">
        <ele>9.2</ele>
        <time>2021-05-17T07:59:50Z</time>
      </trkpt>
      <trkpt lat="41.4968990" lon="-8.7668330">
        <ele>9.2</ele>
        <time>2021-05-17T07:59:51Z</time>
      </trkpt>
      <trkpt lat="41.4969190" lon="-8.7668370">
        <ele>9.1</ele>
        <time>2021-05-17T07:59:52Z</time>
      </trkpt>
      <trkpt lat="41.4969280" lon="-8.7668390">
        <ele>9.1</ele>
        <time>2021-05-17T07:59:53Z</time>
      </trkpt>
      <trkpt lat="41.4969380" lon="-8.7668420">
        <ele>9.1</ele>
        <time>2021-05-17T07:59:54Z</time>
      </trkpt>
      <trkpt lat="41.4969550" lon="-8.7668470">
        <ele>9.1</ele>
        <time>2021-05-17T07:59:55Z</time>
      </trkpt>
      <trkpt lat="41.4969680" lon="-8.7668400">
        <ele>9.1</ele>
        <time>2021-05-17T07:59:56Z</time>
      </trkpt>
      <trkpt lat="41.4969860" lon="-8.7668520">
        <ele>9.1</ele>
        <time>2021-05-17T07:59:57Z</time>
      </trkpt>
      <trkpt lat="41.4969950" lon="-8.7668600">
        <ele>9.1</ele>
        <time>2021-05-17T07:59:58Z</time>
      </trkpt>
      <trkpt lat="41.4970030" lon="-8.7668670">
        <ele>9.1</ele>
        <time>2021-05-17T07:59:59Z</time>
      </trkpt>
      <trkpt lat="41.4970260" lon="-8.7668760">
        <ele>9.1</ele>
        <time>2021-05-17T08:00:00Z</time>
      </trkpt>
      <trkpt lat="41.4970340" lon="-8.7668820">
        <ele>9.1</ele>
        <time>2021-05-17T08:00:01Z</time>
      </trkpt>
      <trkpt lat="41.4970410" lon="-8.7668870">
        <ele>9.1</ele>
        <time>2021-05-17T08:00:02Z</time>
      </trkpt>
      <trkpt lat="41.4970710" lon="-8.7668910">
        <ele>9.1</ele>
        <time>2021-05-17T08:00:03Z</time>
      </trkpt>
      <trkpt lat="41.4970830" lon="-8.7668960">
        <ele>9.1</ele>
        <time>2021-05-17T08:00:04Z</time>
      </trkpt>
      <trkpt lat="41.4970970" lon="-8.7669030">
        <ele>9.0</ele>
        <time>2021-05-17T08:00:05Z</time>
      </trkpt>
      <trkpt lat="41.4971110" lon="-8.7669050">
        <ele>9.0</ele>
        <time>2021-05-17T08:00:06Z</time>
      </trkpt>
      <trkpt lat="41.4971190" lon="-8.7669100">
        <ele>9.0</ele>
        <time>2021-05-17T08:00:07Z</time>
      </trkpt>
      <trkpt lat="41.4971390" lon="-8.7669130">
        <ele>9.0</ele>
        <time>2021-05-17T08:00:08Z</time>
      </trkpt>
      <trkpt lat="41.4971580" lon="-8.7669180">
        <ele>9.0</ele>
        <time>2021-05-17T08:00:09Z</time>
      </trkpt>
      <trkpt lat="41.4971670" lon="-8.7669210">
        <ele>9.0</ele>
        <time>2021-05-17T08:00:10Z</time>
      </trkpt>
      <trkpt lat="41.4971750" lon="-8.7669240">
        <ele>9.0</ele>
        <time>2021-05-17T08:00:11Z</time>
      </trkpt>
      <trkpt lat="41.4971850" lon="-8.7669270">
        <ele>9.0</ele>
        <time>2021-05-17T08:00:12Z</time>
      </trkpt>
      <trkpt lat="41.4972090" lon="-8.7669350">
        <ele>9.0</ele>
        <time>2021-05-17T08:00:13Z</time>
      </trkpt>
      <trkpt lat="41.4972320" lon="-8.7669360">
        <ele>9.0</ele>
        <time>2021-05-17T08:00:14Z</time>
      </trkpt>
      <trkpt lat="41.4972410" lon="-8.7669370">
        <ele>9.0</ele>
        <time>2021-05-17T08:00:15Z</time>
      </trkpt>
      <trkpt lat="41.4972500" lon="-8.7669380">
        <ele>9.0</ele>
        <time>2021-05-17T08:00:16Z</time>
      </trkpt>
      <trkpt lat="41.4972580" lon="-8.7669340">
        <ele>9.0</ele>
        <time>2021-05-17T08:00:17Z</time>
      </trkpt>
      <trkpt lat="41.4972710" lon="-8.7669390">
        <ele>9.0</ele>
        <time>2021-05-17T08:00:18Z</time>
      </trkpt>
      <trkpt lat="41.4972810" lon="-8.7669450">
        <ele>9.0</ele>
        <time>2021-05-17T08:00:19Z</time>
      </trkpt>
      <trkpt lat="41.4972900" lon="-8.7669500">
        <ele>9.0</ele>
        <time>2021-05-17T08:00:20Z</time>
      </trkpt>
      <trkpt lat="41.4973010" lon="-8.7669540">
        <ele>9.0</ele>
        <time>2021-05-17T08:00:21Z</time>
      </trkpt>
      <trkpt lat="41.4973150" lon="-8.7669580">
        <ele>9.0</ele>
        <time>2021-05-17T08:00:22Z</time>
      </trkpt>
      <trkpt lat="41.4973290" lon="-8.7669630">
        <ele>9.0</ele>
        <time>2021-05-17T08:00:23Z</time>
      </trkpt>
      <trkpt lat="41.4973430" lon="-8.7669630">
        <ele>9.0</ele>
        <time>2021-05-17T08:00:24Z</time>
      </trkpt>
      <trkpt lat="41.4973490" lon="-8.7669600">
        <ele>9.0</ele>
        <time>2021-05-17T08:00:25Z</time>
      </trkpt>
      <trkpt lat="41.4973640" lon="-8.7669690">
        <ele>9.0</ele>
        <time>2021-05-17T08:00:26Z</time>
      </trkpt>
      <trkpt lat="41.4973750" lon="-8.7669750">
        <ele>9.0</ele>
        <time>2021-05-17T08:00:27Z</time>
      </trkpt>
      <trkpt lat="41.4973920" lon="-8.7669830">
        <ele>9.0</ele>
        <time>2021-05-17T08:00:28Z</time>
      </trkpt>
      <trkpt lat="41.4974030" lon="-8.7669880">
        <ele>9.0</ele>
        <time>2021-05-17T08:00:29Z</time>
      </trkpt>
      <trkpt lat="41.4974130" lon="-8.7669870">
        <ele>9.0</ele>
        <time>2021-05-17T08:00:30Z</time>
      </trkpt>
      <trkpt lat="41.4974250" lon="-8.7669890">
        <ele>9.0</ele>
        <time>2021-05-17T08:00:31Z</time>
      </trkpt>
      <trkpt lat="41.4974320" lon="-8.7669930">
        <ele>9.0</ele>
        <time>2021-05-17T08:00:32Z</time>
      </trkpt>
      <trkpt lat="41.4974450" lon="-8.7669940">
        <ele>9.0</ele>
        <time>2021-05-17T08:00:33Z</time>
      </trkpt>
      <trkpt lat="41.4974610" lon="-8.7669900">
        <ele>9.0</ele>
        <time>2021-05-17T08:00:34Z</time>
      </trkpt>
      <trkpt lat="41.4974740" lon="-8.7669920">
        <ele>9.0</ele>
        <time>2021-05-17T08:00:35Z</time>
      </trkpt>
      <trkpt lat="41.4974830" lon="-8.7669930">
        <ele>9.0</ele>
        <time>2021-05-17T08:00:36Z</time>
      </trkpt>
      <trkpt lat="41.4974930" lon="-8.7669960">
        <ele>9.0</ele>
        <time>2021-05-17T08:00:37Z</time>
      </trkpt>
      <trkpt lat="41.4975090" lon="-8.7669970">
        <ele>9.0</ele>
        <time>2021-05-17T08:00:38Z</time>
      </trkpt>
      <trkpt lat="41.4975230" lon="-8.7669970">
        <ele>9.0</ele>
        <time>2021-05-17T08:00:39Z</time>
      </trkpt>
      <trkpt lat="41.4975340" lon="-8.7670000">
        <ele>9.0</ele>
        <time>2021-05-17T08:00:40Z</time>
      </trkpt>
      <trkpt lat="41.4975420" lon="-8.7670030">
        <ele>9.0</ele>
        <time>2021-05-17T08:00:41Z</time>
      </trkpt>
      <trkpt lat="41.4975500" lon="-8.7670040">
        <ele>9.0</ele>
        <time>2021-05-17T08:00:42Z</time>
      </trkpt>
      <trkpt lat="41.4975550" lon="-8.7670100">
        <ele>9.0</ele>
        <time>2021-05-17T08:00:43Z</time>
      </trkpt>
      <trkpt lat="41.4975670" lon="-8.7670110">
        <ele>9.0</ele>
        <time>2021-05-17T08:00:44Z</time>
      </trkpt>
      <trkpt lat="41.4975790" lon="-8.7670140">
        <ele>9.0</ele>
        <time>2021-05-17T08:00:45Z</time>
      </trkpt>
      <trkpt lat="41.4976020" lon="-8.7670120">
        <ele>9.0</ele>
        <time>2021-05-17T08:00:46Z</time>
      </trkpt>
      <trkpt lat="41.4976150" lon="-8.7670090">
        <ele>9.0</ele>
        <time>2021-05-17T08:00:47Z</time>
      </trkpt>
      <trkpt lat="41.4976270" lon="-8.7670070">
        <ele>9.0</ele>
        <time>2021-05-17T08:00:48Z</time>
      </trkpt>
      <trkpt lat="41.4976450" lon="-8.7670090">
        <ele>9.0</ele>
        <time>2021-05-17T08:00:49Z</time>
      </trkpt>
      <trkpt lat="41.4976510" lon="-8.7670090">
        <ele>9.0</ele>
        <time>2021-05-17T08:00:50Z</time>
      </trkpt>
      <trkpt lat="41.4976580" lon="-8.7670100">
        <ele>9.0</ele>
        <time>2021-05-17T08:00:51Z</time>
      </trkpt>
      <trkpt lat="41.4976640" lon="-8.7670110">
        <ele>9.0</ele>
        <time>2021-05-17T08:00:52Z</time>
      </trkpt>
      <trkpt lat="41.4976770" lon="-8.7670110">
        <ele>9.0</ele>
        <time>2021-05-17T08:00:53Z</time>
      </trkpt>
      <trkpt lat="41.4976930" lon="-8.7670200">
        <ele>9.0</ele>
        <time>2021-05-17T08:00:54Z</time>
      </trkpt>
      <trkpt lat="41.4977070" lon="-8.7670240">
        <ele>9.0</ele>
        <time>2021-05-17T08:00:55Z</time>
      </trkpt>
      <trkpt lat="41.4977220" lon="-8.7670290">
        <ele>9.0</ele>
        <time>2021-05-17T08:00:56Z</time>
      </trkpt>
      <trkpt lat="41.4977370" lon="-8.7670370">
        <ele>9.0</ele>
        <time>2021-05-17T08:00:57Z</time>
      </trkpt>
      <trkpt lat="41.4977470" lon="-8.7670470">
        <ele>9.0</ele>
        <time>2021-05-17T08:00:58Z</time>
      </trkpt>
      <trkpt lat="41.4977630" lon="-8.7670610">
        <ele>9.0</ele>
        <time>2021-05-17T08:00:59Z</time>
      </trkpt>
      <trkpt lat="41.4977770" lon="-8.7670680">
        <ele>9.0</ele>
        <time>2021-05-17T08:01:00Z</time>
      </trkpt>
      <trkpt lat="41.4977900" lon="-8.7670760">
        <ele>9.0</ele>
        <time>2021-05-17T08:01:01Z</time>
      </trkpt>
      <trkpt lat="41.4977950" lon="-8.7670780">
        <ele>9.0</ele>
        <time>2021-05-17T08:01:02Z</time>
      </trkpt>
      <trkpt lat="41.4978050" lon="-8.7670800">
        <ele>9.0</ele>
        <time>2021-05-17T08:01:03Z</time>
      </trkpt>
      <trkpt lat="41.4978320" lon="-8.7670970">
        <ele>9.0</ele>
        <time>2021-05-17T08:01:04Z</time>
      </trkpt>
      <trkpt lat="41.4978410" lon="-8.7671030">
        <ele>9.0</ele>
        <time>2021-05-17T08:01:05Z</time>
      </trkpt>
      <trkpt lat="41.4978670" lon="-8.7671210">
        <ele>8.9</ele>
        <time>2021-05-17T08:01:06Z</time>
      </trkpt>
      <trkpt lat="41.4978740" lon="-8.7671280">
        <ele>8.9</ele>
        <time>2021-05-17T08:01:07Z</time>
      </trkpt>
      <trkpt lat="41.4978910" lon="-8.7671300">
        <ele>8.9</ele>
        <time>2021-05-17T08:01:08Z</time>
      </trkpt>
      <trkpt lat="41.4979020" lon="-8.7671360">
        <ele>8.9</ele>
        <time>2021-05-17T08:01:09Z</time>
      </trkpt>
      <trkpt lat="41.4979030" lon="-8.7671350">
        <ele>8.9</ele>
        <time>2021-05-17T08:01:10Z</time>
      </trkpt>
      <trkpt lat="41.4979200" lon="-8.7671330">
        <ele>8.9</ele>
        <time>2021-05-17T08:01:11Z</time>
      </trkpt>
      <trkpt lat="41.4979310" lon="-8.7671410">
        <ele>8.9</ele>
        <time>2021-05-17T08:01:12Z</time>
      </trkpt>
      <trkpt lat="41.4979480" lon="-8.7671470">
        <ele>8.9</ele>
        <time>2021-05-17T08:01:13Z</time>
      </trkpt>
      <trkpt lat="41.4979580" lon="-8.7671480">
        <ele>8.9</ele>
        <time>2021-05-17T08:01:14Z</time>
      </trkpt>
      <trkpt lat="41.4979680" lon="-8.7671500">
        <ele>8.9</ele>
        <time>2021-05-17T08:01:15Z</time>
      </trkpt>
      <trkpt lat="41.4979810" lon="-8.7671430">
        <ele>8.9</ele>
        <time>2021-05-17T08:01:16Z</time>
      </trkpt>
      <trkpt lat="41.4979980" lon="-8.7671380">
        <ele>8.9</ele>
        <time>2021-05-17T08:01:17Z</time>
      </trkpt>
      <trkpt lat="41.4980130" lon="-8.7671330">
        <ele>8.8</ele>
        <time>2021-05-17T08:01:18Z</time>
      </trkpt>
      <trkpt lat="41.4980310" lon="-8.7671210">
        <ele>8.8</ele>
        <time>2021-05-17T08:01:19Z</time>
      </trkpt>
      <trkpt lat="41.4980640" lon="-8.7671110">
        <ele>8.8</ele>
        <time>2021-05-17T08:01:20Z</time>
      </trkpt>
      <trkpt lat="41.4980700" lon="-8.7671050">
        <ele>8.8</ele>
        <time>2021-05-17T08:01:21Z</time>
      </trkpt>
      <trkpt lat="41.4981050" lon="-8.7670900">
        <ele>8.8</ele>
        <time>2021-05-17T08:01:22Z</time>
      </trkpt>
      <trkpt lat="41.4981150" lon="-8.7670870">
        <ele>8.8</ele>
        <time>2021-05-17T08:01:23Z</time>
      </trkpt>
      <trkpt lat="41.4981330" lon="-8.7670730">
        <ele>8.8</ele>
        <time>2021-05-17T08:01:24Z</time>
      </trkpt>
      <trkpt lat="41.4981460" lon="-8.7670600">
        <ele>8.8</ele>
        <time>2021-05-17T08:01:25Z</time>
      </trkpt>
      <trkpt lat="41.4981520" lon="-8.7670550">
        <ele>8.8</ele>
        <time>2021-05-17T08:01:26Z</time>
      </trkpt>
      <trkpt lat="41.4981610" lon="-8.7670460">
        <ele>8.8</ele>
        <time>2021-05-17T08:01:27Z</time>
      </trkpt>
      <trkpt lat="41.4981750" lon="-8.7670340">
        <ele>8.8</ele>
        <time>2021-05-17T08:01:28Z</time>
      </trkpt>
      <trkpt lat="41.4981870" lon="-8.7670350">
        <ele>8.7</ele>
        <time>2021-05-17T08:01:29Z</time>
      </trkpt>
      <trkpt lat="41.4982020" lon="-8.7670270">
        <ele>8.7</ele>
        <time>2021-05-17T08:01:30Z</time>
      </trkpt>
      <trkpt lat="41.4982080" lon="-8.7670240">
        <ele>8.7</ele>
        <time>2021-05-17T08:01:31Z</time>
      </trkpt>
      <trkpt lat="41.4982240" lon="-8.7670050">
        <ele>8.7</ele>
        <time>2021-05-17T08:01:32Z</time>
      </trkpt>
      <trkpt lat="41.4982200" lon="-8.7669990">
        <ele>8.7</ele>
        <time>2021-05-17T08:01:33Z</time>
      </trkpt>
      <trkpt lat="41.4982320" lon="-8.7669800">
        <ele>8.7</ele>
        <time>2021-05-17T08:01:34Z</time>
      </trkpt>
      <trkpt lat="41.4982510" lon="-8.7669780">
        <ele>8.7</ele>
        <time>2021-05-17T08:01:35Z</time>
      </trkpt>
      <trkpt lat="41.4982800" lon="-8.7669650">
        <ele>8.7</ele>
        <time>2021-05-17T08:01:36Z</time>
      </trkpt>
      <trkpt lat="41.4982920" lon="-8.7669550">
        <ele>8.7</ele>
        <time>2021-05-17T08:01:37Z</time>
      </trkpt>
      <trkpt lat="41.4983010" lon="-8.7669420">
        <ele>8.7</ele>
        <time>2021-05-17T08:01:38Z</time>
      </trkpt>
      <trkpt lat="41.4983160" lon="-8.7669250">
        <ele>8.7</ele>
        <time>2021-05-17T08:01:39Z</time>
      </trkpt>
      <trkpt lat="41.4983210" lon="-8.7669200">
        <ele>8.7</ele>
        <time>2021-05-17T08:01:40Z</time>
      </trkpt>
      <trkpt lat="41.4983260" lon="-8.7669150">
        <ele>8.7</ele>
        <time>2021-05-17T08:01:41Z</time>
      </trkpt>
      <trkpt lat="41.4983310" lon="-8.7669100">
        <ele>8.7</ele>
        <time>2021-05-17T08:01:42Z</time>
      </trkpt>
      <trkpt lat="41.4983540" lon="-8.7668900">
        <ele>8.7</ele>
        <time>2021-05-17T08:01:43Z</time>
      </trkpt>
      <trkpt lat="41.4983620" lon="-8.7668830">
        <ele>8.7</ele>
        <time>2021-05-17T08:01:44Z</time>
      </trkpt>
      <trkpt lat="41.4983760" lon="-8.7668580">
        <ele>8.7</ele>
        <time>2021-05-17T08:01:45Z</time>
      </trkpt>
      <trkpt lat="41.4983850" lon="-8.7668520">
        <ele>8.7</ele>
        <time>2021-05-17T08:01:46Z</time>
      </trkpt>
      <trkpt lat="41.4983930" lon="-8.7668470">
        <ele>8.7</ele>
        <time>2021-05-17T08:01:47Z</time>
      </trkpt>
      <trkpt lat="41.4984060" lon="-8.7668470">
        <ele>8.7</ele>
        <time>2021-05-17T08:01:48Z</time>
      </trkpt>
      <trkpt lat="41.4984280" lon="-8.7668420">
        <ele>8.7</ele>
        <time>2021-05-17T08:01:49Z</time>
      </trkpt>
      <trkpt lat="41.4984340" lon="-8.7668420">
        <ele>8.7</ele>
        <time>2021-05-17T08:01:50Z</time>
      </trkpt>
      <trkpt lat="41.4984480" lon="-8.7668400">
        <ele>8.7</ele>
        <time>2021-05-17T08:01:51Z</time>
      </trkpt>
      <trkpt lat="41.4984600" lon="-8.7668390">
        <ele>8.7</ele>
        <time>2021-05-17T08:01:52Z</time>
      </trkpt>
      <trkpt lat="41.4984880" lon="-8.7668240">
        <ele>8.7</ele>
        <time>2021-05-17T08:01:53Z</time>
      </trkpt>
      <trkpt lat="41.4984970" lon="-8.7668220">
        <ele>8.7</ele>
        <time>2021-05-17T08:01:54Z</time>
      </trkpt>
      <trkpt lat="41.4985250" lon="-8.7668170">
        <ele>8.7</ele>
        <time>2021-05-17T08:01:55Z</time>
      </trkpt>
      <trkpt lat="41.4985340" lon="-8.7668110">
        <ele>8.7</ele>
        <time>2021-05-17T08:01:56Z</time>
      </trkpt>
      <trkpt lat="41.4985510" lon="-8.7668040">
        <ele>8.7</ele>
        <time>2021-05-17T08:01:57Z</time>
      </trkpt>
      <trkpt lat="41.4985610" lon="-8.7668020">
        <ele>8.7</ele>
        <time>2021-05-17T08:01:58Z</time>
      </trkpt>
      <trkpt lat="41.4985820" lon="-8.7667930">
        <ele>8.7</ele>
        <time>2021-05-17T08:01:59Z</time>
      </trkpt>
      <trkpt lat="41.4985900" lon="-8.7667890">
        <ele>8.7</ele>
        <time>2021-05-17T08:02:00Z</time>
      </trkpt>
      <trkpt lat="41.4985970" lon="-8.7667840">
        <ele>8.7</ele>
        <time>2021-05-17T08:02:01Z</time>
      </trkpt>
      <trkpt lat="41.4986230" lon="-8.7667710">
        <ele>8.7</ele>
        <time>2021-05-17T08:02:02Z</time>
      </trkpt>
      <trkpt lat="41.4986280" lon="-8.7667660">
        <ele>8.8</ele>
        <time>2021-05-17T08:02:03Z</time>
      </trkpt>
      <trkpt lat="41.4986330" lon="-8.7667600">
        <ele>8.8</ele>
        <time>2021-05-17T08:02:04Z</time>
      </trkpt>
      <trkpt lat="41.4986440" lon="-8.7667450">
        <ele>8.8</ele>
        <time>2021-05-17T08:02:05Z</time>
      </trkpt>
      <trkpt lat="41.4986540" lon="-8.7667390">
        <ele>8.8</ele>
        <time>2021-05-17T08:02:06Z</time>
      </trkpt>
      <trkpt lat="41.4986620" lon="-8.7667390">
        <ele>8.8</ele>
        <time>2021-05-17T08:02:07Z</time>
      </trkpt>
      <trkpt lat="41.4986690" lon="-8.7667370">
        <ele>8.8</ele>
        <time>2021-05-17T08:02:08Z</time>
      </trkpt>
      <trkpt lat="41.4986760" lon="-8.7667290">
        <ele>8.8</ele>
        <time>2021-05-17T08:02:09Z</time>
      </trkpt>
      <trkpt lat="41.4986920" lon="-8.7667220">
        <ele>8.8</ele>
        <time>2021-05-17T08:02:10Z</time>
      </trkpt>
      <trkpt lat="41.4987110" lon="-8.7667170">
        <ele>8.8</ele>
        <time>2021-05-17T08:02:11Z</time>
      </trkpt>
      <trkpt lat="41.4987250" lon="-8.7667050">
        <ele>8.8</ele>
        <time>2021-05-17T08:02:12Z</time>
      </trkpt>
      <trkpt lat="41.4987360" lon="-8.7667080">
        <ele>8.8</ele>
        <time>2021-05-17T08:02:13Z</time>
      </trkpt>
      <trkpt lat="41.4987540" lon="-8.7666990">
        <ele>8.8</ele>
        <time>2021-05-17T08:02:14Z</time>
      </trkpt>
      <trkpt lat="41.4987680" lon="-8.7667030">
        <ele>8.8</ele>
        <time>2021-05-17T08:02:15Z</time>
      </trkpt>
      <trkpt lat="41.4987780" lon="-8.7666990">
        <ele>8.8</ele>
        <time>2021-05-17T08:02:16Z</time>
      </trkpt>
      <trkpt lat="41.4987880" lon="-8.7666940">
        <ele>8.8</ele>
        <time>2021-05-17T08:02:17Z</time>
      </trkpt>
      <trkpt lat="41.4988170" lon="-8.7666840">
        <ele>8.8</ele>
        <time>2021-05-17T08:02:18Z</time>
      </trkpt>
      <trkpt lat="41.4988240" lon="-8.7666800">
        <ele>8.8</ele>
        <time>2021-05-17T08:02:19Z</time>
      </trkpt>
      <trkpt lat="41.4988420" lon="-8.7666720">
        <ele>8.8</ele>
        <time>2021-05-17T08:02:20Z</time>
      </trkpt>
      <trkpt lat="41.4988520" lon="-8.7666690">
        <ele>8.9</ele>
        <time>2021-05-17T08:02:21Z</time>
      </trkpt>
      <trkpt lat="41.4988620" lon="-8.7666650">
        <ele>8.9</ele>
        <time>2021-05-17T08:02:22Z</time>
      </trkpt>
      <trkpt lat="41.4988800" lon="-8.7666610">
        <ele>8.9</ele>
        <time>2021-05-17T08:02:23Z</time>
      </trkpt>
      <trkpt lat="41.4988930" lon="-8.7666610">
        <ele>8.9</ele>
        <time>2021-05-17T08:02:24Z</time>
      </trkpt>
      <trkpt lat="41.4989000" lon="-8.7666650">
        <ele>8.9</ele>
        <time>2021-05-17T08:02:25Z</time>
      </trkpt>
      <trkpt lat="41.4989090" lon="-8.7666670">
        <ele>8.9</ele>
        <time>2021-05-17T08:02:26Z</time>
      </trkpt>
      <trkpt lat="41.4989260" lon="-8.7666740">
        <ele>8.9</ele>
        <time>2021-05-17T08:02:27Z</time>
      </trkpt>
      <trkpt lat="41.4989390" lon="-8.7666790">
        <ele>8.9</ele>
        <time>2021-05-17T08:02:28Z</time>
      </trkpt>
      <trkpt lat="41.4989600" lon="-8.7666850">
        <ele>8.9</ele>
        <time>2021-05-17T08:02:29Z</time>
      </trkpt>
      <trkpt lat="41.4989800" lon="-8.7666880">
        <ele>8.9</ele>
        <time>2021-05-17T08:02:30Z</time>
      </trkpt>
      <trkpt lat="41.4989960" lon="-8.7666920">
        <ele>8.9</ele>
        <time>2021-05-17T08:02:31Z</time>
      </trkpt>
      <trkpt lat="41.4990170" lon="-8.7666950">
        <ele>8.9</ele>
        <time>2021-05-17T08:02:32Z</time>
      </trkpt>
      <trkpt lat="41.4990270" lon="-8.7666970">
        <ele>8.8</ele>
        <time>2021-05-17T08:02:33Z</time>
      </trkpt>
      <trkpt lat="41.4990370" lon="-8.7666990">
        <ele>8.8</ele>
        <time>2021-05-17T08:02:34Z</time>
      </trkpt>
      <trkpt lat="41.4990480" lon="-8.7667060">
        <ele>8.8</ele>
        <time>2021-05-17T08:02:35Z</time>
      </trkpt>
      <trkpt lat="41.4990650" lon="-8.7667070">
        <ele>8.8</ele>
        <time>2021-05-17T08:02:36Z</time>
      </trkpt>
      <trkpt lat="41.4990740" lon="-8.7667140">
        <ele>8.8</ele>
        <time>2021-05-17T08:02:37Z</time>
      </trkpt>
      <trkpt lat="41.4990910" lon="-8.7667160">
        <ele>8.8</ele>
        <time>2021-05-17T08:02:38Z</time>
      </trkpt>
      <trkpt lat="41.4991100" lon="-8.7667190">
        <ele>8.8</ele>
        <time>2021-05-17T08:02:39Z</time>
      </trkpt>
      <trkpt lat="41.4991200" lon="-8.7667230">
        <ele>8.8</ele>
        <time>2021-05-17T08:02:40Z</time>
      </trkpt>
      <trkpt lat="41.4991290" lon="-8.7667260">
        <ele>8.8</ele>
        <time>2021-05-17T08:02:41Z</time>
      </trkpt>
      <trkpt lat="41.4991540" lon="-8.7667390">
        <ele>8.8</ele>
        <time>2021-05-17T08:02:42Z</time>
      </trkpt>
      <trkpt lat="41.4991660" lon="-8.7667410">
        <ele>8.8</ele>
        <time>2021-05-17T08:02:43Z</time>
      </trkpt>
      <trkpt lat="41.4991860" lon="-8.7667400">
        <ele>8.8</ele>
        <time>2021-05-17T08:02:44Z</time>
      </trkpt>
      <trkpt lat="41.4991990" lon="-8.7667390">
        <ele>8.8</ele>
        <time>2021-05-17T08:02:45Z</time>
      </trkpt>
      <trkpt lat="41.4992130" lon="-8.7667390">
        <ele>8.8</ele>
        <time>2021-05-17T08:02:46Z</time>
      </trkpt>
      <trkpt lat="41.4992200" lon="-8.7667470">
        <ele>8.8</ele>
        <time>2021-05-17T08:02:47Z</time>
      </trkpt>
      <trkpt lat="41.4992330" lon="-8.7667530">
        <ele>8.8</ele>
        <time>2021-05-17T08:02:48Z</time>
      </trkpt>
      <trkpt lat="41.4992550" lon="-8.7667650">
        <ele>8.8</ele>
        <time>2021-05-17T08:02:49Z</time>
      </trkpt>
      <trkpt lat="41.4992670" lon="-8.7667670">
        <ele>8.8</ele>
        <time>2021-05-17T08:02:50Z</time>
      </trkpt>
      <trkpt lat="41.4992780" lon="-8.7667700">
        <ele>8.7</ele>
        <time>2021-05-17T08:02:51Z</time>
      </trkpt>
      <trkpt lat="41.4992950" lon="-8.7667670">
        <ele>8.7</ele>
        <time>2021-05-17T08:02:52Z</time>
      </trkpt>
      <trkpt lat="41.4993060" lon="-8.7667650">
        <ele>8.7</ele>
        <time>2021-05-17T08:02:53Z</time>
      </trkpt>
      <trkpt lat="41.4993310" lon="-8.7667730">
        <ele>8.7</ele>
        <time>2021-05-17T08:02:54Z</time>
      </trkpt>
      <trkpt lat="41.4993380" lon="-8.7667770">
        <ele>8.7</ele>
        <time>2021-05-17T08:02:55Z</time>
      </trkpt>
      <trkpt lat="41.4993460" lon="-8.7667800">
        <ele>8.7</ele>
        <time>2021-05-17T08:02:56Z</time>
      </trkpt>
      <trkpt lat="41.4993560" lon="-8.7667820">
        <ele>8.7</ele>
        <time>2021-05-17T08:02:57Z</time>
      </trkpt>
      <trkpt lat="41.4993740" lon="-8.7667790">
        <ele>8.7</ele>
        <time>2021-05-17T08:02:58Z</time>
      </trkpt>
      <trkpt lat="41.4993920" lon="-8.7667780">
        <ele>8.7</ele>
        <time>2021-05-17T08:02:59Z</time>
      </trkpt>
      <trkpt lat="41.4994080" lon="-8.7667800">
        <ele>8.7</ele>
        <time>2021-05-17T08:03:00Z</time>
      </trkpt>
      <trkpt lat="41.4994340" lon="-8.7667840">
        <ele>8.7</ele>
        <time>2021-05-17T08:03:01Z</time>
      </trkpt>
      <trkpt lat="41.4994440" lon="-8.7667870">
        <ele>8.7</ele>
        <time>2021-05-17T08:03:02Z</time>
      </trkpt>
      <trkpt lat="41.4994630" lon="-8.7667830">
        <ele>8.6</ele>
        <time>2021-05-17T08:03:03Z</time>
      </trkpt>
      <trkpt lat="41.4994730" lon="-8.7667820">
        <ele>8.6</ele>
        <time>2021-05-17T08:03:04Z</time>
      </trkpt>
      <trkpt lat="41.4994820" lon="-8.7667860">
        <ele>8.6</ele>
        <time>2021-05-17T08:03:05Z</time>
      </trkpt>
      <trkpt lat="41.4994910" lon="-8.7667930">
        <ele>8.6</ele>
        <time>2021-05-17T08:03:06Z</time>
      </trkpt>
      <trkpt lat="41.4995010" lon="-8.7667950">
        <ele>8.6</ele>
        <time>2021-05-17T08:03:07Z</time>
      </trkpt>
      <trkpt lat="41.4995180" lon="-8.7668030">
        <ele>8.6</ele>
        <time>2021-05-17T08:03:08Z</time>
      </trkpt>
      <trkpt lat="41.4995280" lon="-8.7668070">
        <ele>8.6</ele>
        <time>2021-05-17T08:03:09Z</time>
      </trkpt>
      <trkpt lat="41.4995440" lon="-8.7668170">
        <ele>8.6</ele>
        <time>2021-05-17T08:03:10Z</time>
      </trkpt>
      <trkpt lat="41.4995540" lon="-8.7668210">
        <ele>8.6</ele>
        <time>2021-05-17T08:03:11Z</time>
      </trkpt>
      <trkpt lat="41.4995630" lon="-8.7668260">
        <ele>8.6</ele>
        <time>2021-05-17T08:03:12Z</time>
      </trkpt>
      <trkpt lat="41.4995780" lon="-8.7668260">
        <ele>8.6</ele>
        <time>2021-05-17T08:03:13Z</time>
      </trkpt>
      <trkpt lat="41.4995900" lon="-8.7668400">
        <ele>8.6</ele>
        <time>2021-05-17T08:03:14Z</time>
      </trkpt>
      <trkpt lat="41.4996000" lon="-8.7668500">
        <ele>8.6</ele>
        <time>2021-05-17T08:03:15Z</time>
      </trkpt>
      <trkpt lat="41.4996070" lon="-8.7668610">
        <ele>8.6</ele>
        <time>2021-05-17T08:03:16Z</time>
      </trkpt>
      <trkpt lat="41.4996140" lon="-8.7668670">
        <ele>8.6</ele>
        <time>2021-05-17T08:03:17Z</time>
      </trkpt>
      <trkpt lat="41.4996340" lon="-8.7668760">
        <ele>8.5</ele>
        <time>2021-05-17T08:03:18Z</time>
      </trkpt>
      <trkpt lat="41.4996420" lon="-8.7668790">
        <ele>8.5</ele>
        <time>2021-05-17T08:03:19Z</time>
      </trkpt>
      <trkpt lat="41.4996510" lon="-8.7668830">
        <ele>8.5</ele>
        <time>2021-05-17T08:03:20Z</time>
      </trkpt>
      <trkpt lat="41.4996790" lon="-8.7668930">
        <ele>8.5</ele>
        <time>2021-05-17T08:03:21Z</time>
      </trkpt>
      <trkpt lat="41.4996860" lon="-8.7668980">
        <ele>8.5</ele>
        <time>2021-05-17T08:03:22Z</time>
      </trkpt>
      <trkpt lat="41.4997050" lon="-8.7668980">
        <ele>8.5</ele>
        <time>2021-05-17T08:03:23Z</time>
      </trkpt>
      <trkpt lat="41.4997140" lon="-8.7669070">
        <ele>8.5</ele>
        <time>2021-05-17T08:03:24Z</time>
      </trkpt>
      <trkpt lat="41.4997200" lon="-8.7669100">
        <ele>8.5</ele>
        <time>2021-05-17T08:03:25Z</time>
      </trkpt>
      <trkpt lat="41.4997290" lon="-8.7669110">
        <ele>8.5</ele>
        <time>2021-05-17T08:03:26Z</time>
      </trkpt>
      <trkpt lat="41.4997390" lon="-8.7669170">
        <ele>8.5</ele>
        <time>2021-05-17T08:03:27Z</time>
      </trkpt>
      <trkpt lat="41.4997460" lon="-8.7669240">
        <ele>8.5</ele>
        <time>2021-05-17T08:03:28Z</time>
      </trkpt>
      <trkpt lat="41.4997540" lon="-8.7669270">
        <ele>8.5</ele>
        <time>2021-05-17T08:03:29Z</time>
      </trkpt>
      <trkpt lat="41.4997650" lon="-8.7669340">
        <ele>8.5</ele>
        <time>2021-05-17T08:03:30Z</time>
      </trkpt>
      <trkpt lat="41.4997780" lon="-8.7669400">
        <ele>8.5</ele>
        <time>2021-05-17T08:03:31Z</time>
      </trkpt>
      <trkpt lat="41.4997830" lon="-8.7669440">
        <ele>8.5</ele>
        <time>2021-05-17T08:03:32Z</time>
      </trkpt>
      <trkpt lat="41.4997990" lon="-8.7669480">
        <ele>8.5</ele>
        <time>2021-05-17T08:03:33Z</time>
      </trkpt>
      <trkpt lat="41.4998100" lon="-8.7669560">
        <ele>8.5</ele>
        <time>2021-05-17T08:03:34Z</time>
      </trkpt>
      <trkpt lat="41.4998230" lon="-8.7669550">
        <ele>8.5</ele>
        <time>2021-05-17T08:03:35Z</time>
      </trkpt>
      <trkpt lat="41.4998350" lon="-8.7669590">
        <ele>8.5</ele>
        <time>2021-05-17T08:03:36Z</time>
      </trkpt>
      <trkpt lat="41.4998420" lon="-8.7669650">
        <ele>8.5</ele>
        <time>2021-05-17T08:03:37Z</time>
      </trkpt>
      <trkpt lat="41.4998570" lon="-8.7669680">
        <ele>8.5</ele>
        <time>2021-05-17T08:03:38Z</time>
      </trkpt>
      <trkpt lat="41.4998740" lon="-8.7669700">
        <ele>8.5</ele>
        <time>2021-05-17T08:03:39Z</time>
      </trkpt>
      <trkpt lat="41.4998900" lon="-8.7669690">
        <ele>8.5</ele>
        <time>2021-05-17T08:03:40Z</time>
      </trkpt>
      <trkpt lat="41.4999090" lon="-8.7669710">
        <ele>8.5</ele>
        <time>2021-05-17T08:03:41Z</time>
      </trkpt>
      <trkpt lat="41.4999370" lon="-8.7669770">
        <ele>8.5</ele>
        <time>2021-05-17T08:03:42Z</time>
      </trkpt>
      <trkpt lat="41.4999470" lon="-8.7669800">
        <ele>8.5</ele>
        <time>2021-05-17T08:03:43Z</time>
      </trkpt>
      <trkpt lat="41.4999510" lon="-8.7669850">
        <ele>8.5</ele>
        <time>2021-05-17T08:03:44Z</time>
      </trkpt>
      <trkpt lat="41.4999680" lon="-8.7669830">
        <ele>8.5</ele>
        <time>2021-05-17T08:03:45Z</time>
      </trkpt>
      <trkpt lat="41.4999750" lon="-8.7669870">
        <ele>8.5</ele>
        <time>2021-05-17T08:03:46Z</time>
      </trkpt>
      <trkpt lat="41.4999880" lon="-8.7669910">
        <ele>8.5</ele>
        <time>2021-05-17T08:03:47Z</time>
      </trkpt>
      <trkpt lat="41.5000030" lon="-8.7669930">
        <ele>8.5</ele>
        <time>2021-05-17T08:03:48Z</time>
      </trkpt>
      <trkpt lat="41.5000250" lon="-8.7669960">
        <ele>8.5</ele>
        <time>2021-05-17T08:03:49Z</time>
      </trkpt>
      <trkpt lat="41.5000320" lon="-8.7670010">
        <ele>8.5</ele>
        <time>2021-05-17T08:03:50Z</time>
      </trkpt>
      <trkpt lat="41.5000390" lon="-8.7670060">
        <ele>8.5</ele>
        <time>2021-05-17T08:03:51Z</time>
      </trkpt>
      <trkpt lat="41.5000530" lon="-8.7670170">
        <ele>8.5</ele>
        <time>2021-05-17T08:03:52Z</time>
      </trkpt>
      <trkpt lat="41.5000710" lon="-8.7670180">
        <ele>8.5</ele>
        <time>2021-05-17T08:03:53Z</time>
      </trkpt>
      <trkpt lat="41.5000850" lon="-8.7670280">
        <ele>8.5</ele>
        <time>2021-05-17T08:03:54Z</time>
      </trkpt>
      <trkpt lat="41.5001030" lon="-8.7670320">
        <ele>8.5</ele>
        <time>2021-05-17T08:03:55Z</time>
      </trkpt>
      <trkpt lat="41.5001210" lon="-8.7670290">
        <ele>8.5</ele>
        <time>2021-05-17T08:03:56Z</time>
      </trkpt>
      <trkpt lat="41.5001320" lon="-8.7670340">
        <ele>8.5</ele>
        <time>2021-05-17T08:03:57Z</time>
      </trkpt>
      <trkpt lat="41.5001540" lon="-8.7670500">
        <ele>8.5</ele>
        <time>2021-05-17T08:03:58Z</time>
      </trkpt>
      <trkpt lat="41.5001640" lon="-8.7670560">
        <ele>8.5</ele>
        <time>2021-05-17T08:03:59Z</time>
      </trkpt>
      <trkpt lat="41.5001730" lon="-8.7670630">
        <ele>8.5</ele>
        <time>2021-05-17T08:04:00Z</time>
      </trkpt>
      <trkpt lat="41.5001880" lon="-8.7670700">
        <ele>8.5</ele>
        <time>2021-05-17T08:04:01Z</time>
      </trkpt>
      <trkpt lat="41.5002040" lon="-8.7670780">
        <ele>8.5</ele>
        <time>2021-05-17T08:04:02Z</time>
      </trkpt>
      <trkpt lat="41.5002220" lon="-8.7670850">
        <ele>8.5</ele>
        <time>2021-05-17T08:04:03Z</time>
      </trkpt>
      <trkpt lat="41.5002310" lon="-8.7670870">
        <ele>8.5</ele>
        <time>2021-05-17T08:04:04Z</time>
      </trkpt>
      <trkpt lat="41.5002390" lon="-8.7670900">
        <ele>8.5</ele>
        <time>2021-05-17T08:04:05Z</time>
      </trkpt>
      <trkpt lat="41.5002560" lon="-8.7670920">
        <ele>8.5</ele>
        <time>2021-05-17T08:04:06Z</time>
      </trkpt>
      <trkpt lat="41.5002650" lon="-8.7671010">
        <ele>8.5</ele>
        <time>2021-05-17T08:04:07Z</time>
      </trkpt>
      <trkpt lat="41.5002930" lon="-8.7671110">
        <ele>8.5</ele>
        <time>2021-05-17T08:04:08Z</time>
      </trkpt>
      <trkpt lat="41.5003010" lon="-8.7671170">
        <ele>8.5</ele>
        <time>2021-05-17T08:04:09Z</time>
      </trkpt>
      <trkpt lat="41.5003200" lon="-8.7671270">
        <ele>8.5</ele>
        <time>2021-05-17T08:04:10Z</time>
      </trkpt>
      <trkpt lat="41.5003280" lon="-8.7671310">
        <ele>8.5</ele>
        <time>2021-05-17T08:04:11Z</time>
      </trkpt>
      <trkpt lat="41.5003360" lon="-8.7671350">
        <ele>8.5</ele>
        <time>2021-05-17T08:04:12Z</time>
      </trkpt>
      <trkpt lat="41.5003470" lon="-8.7671410">
        <ele>8.5</ele>
        <time>2021-05-17T08:04:13Z</time>
      </trkpt>
      <trkpt lat="41.5003690" lon="-8.7671490">
        <ele>8.5</ele>
        <time>2021-05-17T08:04:14Z</time>
      </trkpt>
      <trkpt lat="41.5003810" lon="-8.7671590">
        <ele>8.5</ele>
        <time>2021-05-17T08:04:15Z</time>
      </trkpt>
      <trkpt lat="41.5003920" lon="-8.7671620">
        <ele>8.5</ele>
        <time>2021-05-17T08:04:16Z</time>
      </trkpt>
      <trkpt lat="41.5003980" lon="-8.7671670">
        <ele>8.5</ele>
        <time>2021-05-17T08:04:17Z</time>
      </trkpt>
      <trkpt lat="41.5004140" lon="-8.7671750">
        <ele>8.5</ele>
        <time>2021-05-17T08:04:18Z</time>
      </trkpt>
      <trkpt lat="41.5004310" lon="-8.7671760">
        <ele>8.5</ele>
        <time>2021-05-17T08:04:19Z</time>
      </trkpt>
      <trkpt lat="41.5004410" lon="-8.7671800">
        <ele>8.5</ele>
        <time>2021-05-17T08:04:20Z</time>
      </trkpt>
      <trkpt lat="41.5004570" lon="-8.7671880">
        <ele>8.5</ele>
        <time>2021-05-17T08:04:21Z</time>
      </trkpt>
      <trkpt lat="41.5004710" lon="-8.7672020">
        <ele>8.5</ele>
        <time>2021-05-17T08:04:22Z</time>
      </trkpt>
      <trkpt lat="41.5004860" lon="-8.7672070">
        <ele>8.5</ele>
        <time>2021-05-17T08:04:23Z</time>
      </trkpt>
      <trkpt lat="41.5005060" lon="-8.7672130">
        <ele>8.6</ele>
        <time>2021-05-17T08:04:24Z</time>
      </trkpt>
      <trkpt lat="41.5005140" lon="-8.7672160">
        <ele>8.6</ele>
        <time>2021-05-17T08:04:25Z</time>
      </trkpt>
      <trkpt lat="41.5005230" lon="-8.7672190">
        <ele>8.6</ele>
        <time>2021-05-17T08:04:26Z</time>
      </trkpt>
      <trkpt lat="41.5005300" lon="-8.7672200">
        <ele>8.6</ele>
        <time>2021-05-17T08:04:27Z</time>
      </trkpt>
      <trkpt lat="41.5005400" lon="-8.7672200">
        <ele>8.6</ele>
        <time>2021-05-17T08:04:28Z</time>
      </trkpt>
      <trkpt lat="41.5005520" lon="-8.7672260">
        <ele>8.6</ele>
        <time>2021-05-17T08:04:29Z</time>
      </trkpt>
      <trkpt lat="41.5005830" lon="-8.7672330">
        <ele>8.6</ele>
        <time>2021-05-17T08:04:30Z</time>
      </trkpt>
      <trkpt lat="41.5005920" lon="-8.7672350">
        <ele>8.6</ele>
        <time>2021-05-17T08:04:31Z</time>
      </trkpt>
      <trkpt lat="41.5006110" lon="-8.7672460">
        <ele>8.6</ele>
        <time>2021-05-17T08:04:32Z</time>
      </trkpt>
      <trkpt lat="41.5006190" lon="-8.7672490">
        <ele>8.6</ele>
        <time>2021-05-17T08:04:33Z</time>
      </trkpt>
      <trkpt lat="41.5006280" lon="-8.7672520">
        <ele>8.6</ele>
        <time>2021-05-17T08:04:34Z</time>
      </trkpt>
      <trkpt lat="41.5006410" lon="-8.7672570">
        <ele>8.6</ele>
        <time>2021-05-17T08:04:35Z</time>
      </trkpt>
      <trkpt lat="41.5006550" lon="-8.7672600">
        <ele>8.6</ele>
        <time>2021-05-17T08:04:36Z</time>
      </trkpt>
      <trkpt lat="41.5006640" lon="-8.7672620">
        <ele>8.6</ele>
        <time>2021-05-17T08:04:37Z</time>
      </trkpt>
      <trkpt lat="41.5006810" lon="-8.7672690">
        <ele>8.6</ele>
        <time>2021-05-17T08:04:38Z</time>
      </trkpt>
      <trkpt lat="41.5007090" lon="-8.7672770">
        <ele>8.6</ele>
        <time>2021-05-17T08:04:39Z</time>
      </trkpt>
      <trkpt lat="41.5007180" lon="-8.7672800">
        <ele>8.6</ele>
        <time>2021-05-17T08:04:40Z</time>
      </trkpt>
      <trkpt lat="41.5007230" lon="-8.7672790">
        <ele>8.6</ele>
        <time>2021-05-17T08:04:41Z</time>
      </trkpt>
      <trkpt lat="41.5007380" lon="-8.7672830">
        <ele>8.6</ele>
        <time>2021-05-17T08:04:42Z</time>
      </trkpt>
      <trkpt lat="41.5007470" lon="-8.7672910">
        <ele>8.6</ele>
        <time>2021-05-17T08:04:43Z</time>
      </trkpt>
      <trkpt lat="41.5007710" lon="-8.7673030">
        <ele>8.6</ele>
        <time>2021-05-17T08:04:44Z</time>
      </trkpt>
      <trkpt lat="41.5007770" lon="-8.7673090">
        <ele>8.6</ele>
        <time>2021-05-17T08:04:45Z</time>
      </trkpt>
      <trkpt lat="41.5007840" lon="-8.7673140">
        <ele>8.6</ele>
        <time>2021-05-17T08:04:46Z</time>
      </trkpt>
      <trkpt lat="41.5008040" lon="-8.7673250">
        <ele>8.6</ele>
        <time>2021-05-17T08:04:47Z</time>
      </trkpt>
      <trkpt lat="41.5008140" lon="-8.7673300">
        <ele>8.7</ele>
        <time>2021-05-17T08:04:48Z</time>
      </trkpt>
      <trkpt lat="41.5008380" lon="-8.7673390">
        <ele>8.7</ele>
        <time>2021-05-17T08:04:49Z</time>
      </trkpt>
      <trkpt lat="41.5008500" lon="-8.7673450">
        <ele>8.7</ele>
        <time>2021-05-17T08:04:50Z</time>
      </trkpt>
      <trkpt lat="41.5008770" lon="-8.7673610">
        <ele>8.7</ele>
        <time>2021-05-17T08:04:51Z</time>
      </trkpt>
      <trkpt lat="41.5008880" lon="-8.7673680">
        <ele>8.7</ele>
        <time>2021-05-17T08:04:52Z</time>
      </trkpt>
      <trkpt lat="41.5009160" lon="-8.7673850">
        <ele>8.7</ele>
        <time>2021-05-17T08:04:53Z</time>
      </trkpt>
      <trkpt lat="41.5009240" lon="-8.7673900">
        <ele>8.7</ele>
        <time>2021-05-17T08:04:54Z</time>
      </trkpt>
      <trkpt lat="41.5009310" lon="-8.7673900">
        <ele>8.7</ele>
        <time>2021-05-17T08:04:55Z</time>
      </trkpt>
      <trkpt lat="41.5009430" lon="-8.7673940">
        <ele>8.7</ele>
        <time>2021-05-17T08:04:56Z</time>
      </trkpt>
      <trkpt lat="41.5009540" lon="-8.7674030">
        <ele>8.7</ele>
        <time>2021-05-17T08:04:57Z</time>
      </trkpt>
      <trkpt lat="41.5009840" lon="-8.7674130">
        <ele>8.7</ele>
        <time>2021-05-17T08:04:58Z</time>
      </trkpt>
      <trkpt lat="41.5009920" lon="-8.7674180">
        <ele>8.7</ele>
        <time>2021-05-17T08:04:59Z</time>
      </trkpt>
      <trkpt lat="41.5010210" lon="-8.7674260">
        <ele>8.7</ele>
        <time>2021-05-17T08:05:00Z</time>
      </trkpt>
      <trkpt lat="41.5010290" lon="-8.7674270">
        <ele>8.7</ele>
        <time>2021-05-17T08:05:01Z</time>
      </trkpt>
      <trkpt lat="41.5010420" lon="-8.7674310">
        <ele>8.7</ele>
        <time>2021-05-17T08:05:02Z</time>
      </trkpt>
      <trkpt lat="41.5010610" lon="-8.7674420">
        <ele>8.7</ele>
        <time>2021-05-17T08:05:03Z</time>
      </trkpt>
      <trkpt lat="41.5010730" lon="-8.7674400">
        <ele>8.7</ele>
        <time>2021-05-17T08:05:04Z</time>
      </trkpt>
      <trkpt lat="41.5010760" lon="-8.7674460">
        <ele>8.7</ele>
        <time>2021-05-17T08:05:05Z</time>
      </trkpt>
      <trkpt lat="41.5010900" lon="-8.7674490">
        <ele>8.7</ele>
        <time>2021-05-17T08:05:06Z</time>
      </trkpt>
      <trkpt lat="41.5011070" lon="-8.7674510">
        <ele>8.7</ele>
        <time>2021-05-17T08:05:07Z</time>
      </trkpt>
      <trkpt lat="41.5011220" lon="-8.7674530">
        <ele>8.7</ele>
        <time>2021-05-17T08:05:08Z</time>
      </trkpt>
      <trkpt lat="41.5011400" lon="-8.7674640">
        <ele>8.7</ele>
        <time>2021-05-17T08:05:09Z</time>
      </trkpt>
      <trkpt lat="41.5011490" lon="-8.7674680">
        <ele>8.7</ele>
        <time>2021-05-17T08:05:10Z</time>
      </trkpt>
      <trkpt lat="41.5011580" lon="-8.7674720">
        <ele>8.7</ele>
        <time>2021-05-17T08:05:11Z</time>
      </trkpt>
      <trkpt lat="41.5011760" lon="-8.7674800">
        <ele>8.7</ele>
        <time>2021-05-17T08:05:12Z</time>
      </trkpt>
      <trkpt lat="41.5011860" lon="-8.7674840">
        <ele>8.7</ele>
        <time>2021-05-17T08:05:13Z</time>
      </trkpt>
      <trkpt lat="41.5011970" lon="-8.7674870">
        <ele>8.7</ele>
        <time>2021-05-17T08:05:14Z</time>
      </trkpt>
      <trkpt lat="41.5012120" lon="-8.7674890">
        <ele>8.7</ele>
        <time>2021-05-17T08:05:15Z</time>
      </trkpt>
      <trkpt lat="41.5012230" lon="-8.7674910">
        <ele>8.7</ele>
        <time>2021-05-17T08:05:16Z</time>
      </trkpt>
      <trkpt lat="41.5012260" lon="-8.7675000">
        <ele>8.7</ele>
        <time>2021-05-17T08:05:17Z</time>
      </trkpt>
      <trkpt lat="41.5012430" lon="-8.7675050">
        <ele>8.7</ele>
        <time>2021-05-17T08:05:18Z</time>
      </trkpt>
      <trkpt lat="41.5012580" lon="-8.7675060">
        <ele>8.7</ele>
        <time>2021-05-17T08:05:19Z</time>
      </trkpt>
      <trkpt lat="41.5012710" lon="-8.7675080">
        <ele>8.7</ele>
        <time>2021-05-17T08:05:20Z</time>
      </trkpt>
      <trkpt lat="41.5012810" lon="-8.7675150">
        <ele>8.7</ele>
        <time>2021-05-17T08:05:21Z</time>
      </trkpt>
      <trkpt lat="41.5012890" lon="-8.7675110">
        <ele>8.7</ele>
        <time>2021-05-17T08:05:22Z</time>
      </trkpt>
      <trkpt lat="41.5013200" lon="-8.7675260">
        <ele>8.6</ele>
        <time>2021-05-17T08:05:23Z</time>
      </trkpt>
      <trkpt lat="41.5013270" lon="-8.7675290">
        <ele>8.6</ele>
        <time>2021-05-17T08:05:24Z</time>
      </trkpt>
      <trkpt lat="41.5013450" lon="-8.7675270">
        <ele>8.6</ele>
        <time>2021-05-17T08:05:25Z</time>
      </trkpt>
      <trkpt lat="41.5013570" lon="-8.7675310">
        <ele>8.6</ele>
        <time>2021-05-17T08:05:26Z</time>
      </trkpt>
      <trkpt lat="41.5013670" lon="-8.7675420">
        <ele>8.6</ele>
        <time>2021-05-17T08:05:27Z</time>
      </trkpt>
      <trkpt lat="41.5013810" lon="-8.7675470">
        <ele>8.6</ele>
        <time>2021-05-17T08:05:28Z</time>
      </trkpt>
      <trkpt lat="41.5013930" lon="-8.7675570">
        <ele>8.6</ele>
        <time>2021-05-17T08:05:29Z</time>
      </trkpt>
      <trkpt lat="41.5013990" lon="-8.7675610">
        <ele>8.6</ele>
        <time>2021-05-17T08:05:30Z</time>
      </trkpt>
      <trkpt lat="41.5014140" lon="-8.7675660">
        <ele>8.6</ele>
        <time>2021-05-17T08:05:31Z</time>
      </trkpt>
      <trkpt lat="41.5014290" lon="-8.7675740">
        <ele>8.6</ele>
        <time>2021-05-17T08:05:32Z</time>
      </trkpt>
      <trkpt lat="41.5014460" lon="-8.7675780">
        <ele>8.6</ele>
        <time>2021-05-17T08:05:33Z</time>
      </trkpt>
      <trkpt lat="41.5014650" lon="-8.7675870">
        <ele>8.6</ele>
        <time>2021-05-17T08:05:34Z</time>
      </trkpt>
      <trkpt lat="41.5014750" lon="-8.7675910">
        <ele>8.6</ele>
        <time>2021-05-17T08:05:35Z</time>
      </trkpt>
      <trkpt lat="41.5014840" lon="-8.7675950">
        <ele>8.6</ele>
        <time>2021-05-17T08:05:36Z</time>
      </trkpt>
      <trkpt lat="41.5014960" lon="-8.7676010">
        <ele>8.6</ele>
        <time>2021-05-17T08:05:37Z</time>
      </trkpt>
      <trkpt lat="41.5015060" lon="-8.7676070">
        <ele>8.6</ele>
        <time>2021-05-17T08:05:38Z</time>
      </trkpt>
      <trkpt lat="41.5015180" lon="-8.7676110">
        <ele>8.6</ele>
        <time>2021-05-17T08:05:39Z</time>
      </trkpt>
      <trkpt lat="41.5015340" lon="-8.7676150">
        <ele>8.6</ele>
        <time>2021-05-17T08:05:40Z</time>
      </trkpt>
      <trkpt lat="41.5015510" lon="-8.7676220">
        <ele>8.6</ele>
        <time>2021-05-17T08:05:41Z</time>
      </trkpt>
      <trkpt lat="41.5015580" lon="-8.7676260">
        <ele>8.6</ele>
        <time>2021-05-17T08:05:42Z</time>
      </trkpt>
      <trkpt lat="41.5015700" lon="-8.7676290">
        <ele>8.6</ele>
        <time>2021-05-17T08:05:43Z</time>
      </trkpt>
      <trkpt lat="41.5015820" lon="-8.7676290">
        <ele>8.6</ele>
        <time>2021-05-17T08:05:44Z</time>
      </trkpt>
      <trkpt lat="41.5015980" lon="-8.7676320">
        <ele>8.6</ele>
        <time>2021-05-17T08:05:45Z</time>
      </trkpt>
      <trkpt lat="41.5016110" lon="-8.7676350">
        <ele>8.6</ele>
        <time>2021-05-17T08:05:46Z</time>
      </trkpt>
      <trkpt lat="41.5016320" lon="-8.7676400">
        <ele>8.6</ele>
        <time>2021-05-17T08:05:47Z</time>
      </trkpt>
      <trkpt lat="41.5016390" lon="-8.7676440">
        <ele>8.6</ele>
        <time>2021-05-17T08:05:48Z</time>
      </trkpt>
      <trkpt lat="41.5016470" lon="-8.7676470">
        <ele>8.6</ele>
        <time>2021-05-17T08:05:49Z</time>
      </trkpt>
      <trkpt lat="41.5016620" lon="-8.7676550">
        <ele>8.6</ele>
        <time>2021-05-17T08:05:50Z</time>
      </trkpt>
      <trkpt lat="41.5016760" lon="-8.7676590">
        <ele>8.6</ele>
        <time>2021-05-17T08:05:51Z</time>
      </trkpt>
      <trkpt lat="41.5016900" lon="-8.7676600">
        <ele>8.6</ele>
        <time>2021-05-17T08:05:52Z</time>
      </trkpt>
      <trkpt lat="41.5017030" lon="-8.7676700">
        <ele>8.6</ele>
        <time>2021-05-17T08:05:53Z</time>
      </trkpt>
      <trkpt lat="41.5017220" lon="-8.7676770">
        <ele>8.6</ele>
        <time>2021-05-17T08:05:54Z</time>
      </trkpt>
      <trkpt lat="41.5017310" lon="-8.7676820">
        <ele>8.6</ele>
        <time>2021-05-17T08:05:55Z</time>
      </trkpt>
      <trkpt lat="41.5017400" lon="-8.7676860">
        <ele>8.6</ele>
        <time>2021-05-17T08:05:56Z</time>
      </trkpt>
      <trkpt lat="41.5017630" lon="-8.7676940">
        <ele>8.6</ele>
        <time>2021-05-17T08:05:57Z</time>
      </trkpt>
      <trkpt lat="41.5017730" lon="-8.7676990">
        <ele>8.6</ele>
        <time>2021-05-17T08:05:58Z</time>
      </trkpt>
      <trkpt lat="41.5017820" lon="-8.7677040">
        <ele>8.6</ele>
        <time>2021-05-17T08:05:59Z</time>
      </trkpt>
      <trkpt lat="41.5017970" lon="-8.7677140">
        <ele>8.5</ele>
        <time>2021-05-17T08:06:00Z</time>
      </trkpt>
      <trkpt lat="41.5018070" lon="-8.7677180">
        <ele>8.5</ele>
        <time>2021-05-17T08:06:01Z</time>
      </trkpt>
      <trkpt lat="41.5018220" lon="-8.7677230">
        <ele>8.5</ele>
        <time>2021-05-17T08:06:02Z</time>
      </trkpt>
      <trkpt lat="41.5018370" lon="-8.7677320">
        <ele>8.5</ele>
        <time>2021-05-17T08:06:03Z</time>
      </trkpt>
      <trkpt lat="41.5018520" lon="-8.7677450">
        <ele>8.5</ele>
        <time>2021-05-17T08:06:04Z</time>
      </trkpt>
      <trkpt lat="41.5018620" lon="-8.7677510">
        <ele>8.5</ele>
        <time>2021-05-17T08:06:05Z</time>
      </trkpt>
      <trkpt lat="41.5018770" lon="-8.7677580">
        <ele>8.4</ele>
        <time>2021-05-17T08:06:06Z</time>
      </trkpt>
      <trkpt lat="41.5018910" lon="-8.7677640">
        <ele>8.4</ele>
        <time>2021-05-17T08:06:07Z</time>
      </trkpt>
      <trkpt lat="41.5019130" lon="-8.7677690">
        <ele>8.4</ele>
        <time>2021-05-17T08:06:08Z</time>
      </trkpt>
      <trkpt lat="41.5019190" lon="-8.7677770">
        <ele>8.4</ele>
        <time>2021-05-17T08:06:09Z</time>
      </trkpt>
      <trkpt lat="41.5019320" lon="-8.7677860">
        <ele>8.4</ele>
        <time>2021-05-17T08:06:10Z</time>
      </trkpt>
      <trkpt lat="41.5019450" lon="-8.7677950">
        <ele>8.4</ele>
        <time>2021-05-17T08:06:11Z</time>
      </trkpt>
      <trkpt lat="41.5019640" lon="-8.7678070">
        <ele>8.3</ele>
        <time>2021-05-17T08:06:12Z</time>
      </trkpt>
      <trkpt lat="41.5019730" lon="-8.7678090">
        <ele>8.3</ele>
        <time>2021-05-17T08:06:13Z</time>
      </trkpt>
      <trkpt lat="41.5019820" lon="-8.7678100">
        <ele>8.3</ele>
        <time>2021-05-17T08:06:14Z</time>
      </trkpt>
      <trkpt lat="41.5019960" lon="-8.7678120">
        <ele>8.3</ele>
        <time>2021-05-17T08:06:15Z</time>
      </trkpt>
      <trkpt lat="41.5020050" lon="-8.7678110">
        <ele>8.3</ele>
        <time>2021-05-17T08:06:16Z</time>
      </trkpt>
      <trkpt lat="41.5020150" lon="-8.7678190">
        <ele>8.3</ele>
        <time>2021-05-17T08:06:17Z</time>
      </trkpt>
      <trkpt lat="41.5020220" lon="-8.7678240">
        <ele>8.3</ele>
        <time>2021-05-17T08:06:18Z</time>
      </trkpt>
      <trkpt lat="41.5020290" lon="-8.7678240">
        <ele>8.3</ele>
        <time>2021-05-17T08:06:19Z</time>
      </trkpt>
      <trkpt lat="41.5020360" lon="-8.7678260">
        <ele>8.2</ele>
        <time>2021-05-17T08:06:20Z</time>
      </trkpt>
      <trkpt lat="41.5020480" lon="-8.7678300">
        <ele>8.2</ele>
        <time>2021-05-17T08:06:21Z</time>
      </trkpt>
      <trkpt lat="41.5020690" lon="-8.7678370">
        <ele>8.2</ele>
        <time>2021-05-17T08:06:22Z</time>
      </trkpt>
      <trkpt lat="41.5020760" lon="-8.7678420">
        <ele>8.2</ele>
        <time>2021-05-17T08:06:23Z</time>
      </trkpt>
      <trkpt lat="41.5020820" lon="-8.7678470">
        <ele>8.2</ele>
        <time>2021-05-17T08:06:24Z</time>
      </trkpt>
      <trkpt lat="41.5020970" lon="-8.7678470">
        <ele>8.1</ele>
        <time>2021-05-17T08:06:25Z</time>
      </trkpt>
      <trkpt lat="41.5021100" lon="-8.7678540">
        <ele>8.1</ele>
        <time>2021-05-17T08:06:26Z</time>
      </trkpt>
      <trkpt lat="41.5021280" lon="-8.7678560">
        <ele>8.1</ele>
        <time>2021-05-17T08:06:27Z</time>
      </trkpt>
      <trkpt lat="41.5021430" lon="-8.7678570">
        <ele>8.1</ele>
        <time>2021-05-17T08:06:28Z</time>
      </trkpt>
      <trkpt lat="41.5021520" lon="-8.7678640">
        <ele>8.1</ele>
        <time>2021-05-17T08:06:29Z</time>
      </trkpt>
      <trkpt lat="41.5021690" lon="-8.7678640">
        <ele>8.0</ele>
        <time>2021-05-17T08:06:30Z</time>
      </trkpt>
      <trkpt lat="41.5021760" lon="-8.7678650">
        <ele>8.0</ele>
        <time>2021-05-17T08:06:31Z</time>
      </trkpt>
      <trkpt lat="41.5021910" lon="-8.7678790">
        <ele>8.0</ele>
        <time>2021-05-17T08:06:32Z</time>
      </trkpt>
      <trkpt lat="41.5022030" lon="-8.7678820">
        <ele>8.0</ele>
        <time>2021-05-17T08:06:33Z</time>
      </trkpt>
      <trkpt lat="41.5022140" lon="-8.7678840">
        <ele>8.0</ele>
        <time>2021-05-17T08:06:34Z</time>
      </trkpt>
      <trkpt lat="41.5022260" lon="-8.7678850">
        <ele>8.0</ele>
        <time>2021-05-17T08:06:35Z</time>
      </trkpt>
      <trkpt lat="41.5022460" lon="-8.7678940">
        <ele>7.9</ele>
        <time>2021-05-17T08:06:36Z</time>
      </trkpt>
      <trkpt lat="41.5022760" lon="-8.7679000">
        <ele>7.9</ele>
        <time>2021-05-17T08:06:37Z</time>
      </trkpt>
      <trkpt lat="41.5022840" lon="-8.7679040">
        <ele>7.9</ele>
        <time>2021-05-17T08:06:38Z</time>
      </trkpt>
      <trkpt lat="41.5022980" lon="-8.7679110">
        <ele>7.9</ele>
        <time>2021-05-17T08:06:39Z</time>
      </trkpt>
      <trkpt lat="41.5023180" lon="-8.7679150">
        <ele>7.8</ele>
        <time>2021-05-17T08:06:40Z</time>
      </trkpt>
      <trkpt lat="41.5023300" lon="-8.7679230">
        <ele>7.8</ele>
        <time>2021-05-17T08:06:41Z</time>
      </trkpt>
      <trkpt lat="41.5023500" lon="-8.7679260">
        <ele>7.8</ele>
        <time>2021-05-17T08:06:42Z</time>
      </trkpt>
      <trkpt lat="41.5023680" lon="-8.7679370">
        <ele>7.8</ele>
        <time>2021-05-17T08:06:43Z</time>
      </trkpt>
      <trkpt lat="41.5023800" lon="-8.7679390">
        <ele>7.8</ele>
        <time>2021-05-17T08:06:44Z</time>
      </trkpt>
      <trkpt lat="41.5023920" lon="-8.7679410">
        <ele>7.7</ele>
        <time>2021-05-17T08:06:45Z</time>
      </trkpt>
      <trkpt lat="41.5024100" lon="-8.7679450">
        <ele>7.7</ele>
        <time>2021-05-17T08:06:46Z</time>
      </trkpt>
      <trkpt lat="41.5024210" lon="-8.7679500">
        <ele>7.7</ele>
        <time>2021-05-17T08:06:47Z</time>
      </trkpt>
      <trkpt lat="41.5024340" lon="-8.7679540">
        <ele>7.7</ele>
        <time>2021-05-17T08:06:48Z</time>
      </trkpt>
      <trkpt lat="41.5024550" lon="-8.7679590">
        <ele>7.7</ele>
        <time>2021-05-17T08:06:49Z</time>
      </trkpt>
      <trkpt lat="41.5024690" lon="-8.7679630">
        <ele>7.7</ele>
        <time>2021-05-17T08:06:50Z</time>
      </trkpt>
      <trkpt lat="41.5024870" lon="-8.7679700">
        <ele>7.6</ele>
        <time>2021-05-17T08:06:51Z</time>
      </trkpt>
      <trkpt lat="41.5025030" lon="-8.7679770">
        <ele>7.6</ele>
        <time>2021-05-17T08:06:52Z</time>
      </trkpt>
      <trkpt lat="41.5025140" lon="-8.7679890">
        <ele>7.6</ele>
        <time>2021-05-17T08:06:53Z</time>
      </trkpt>
      <trkpt lat="41.5025340" lon="-8.7679940">
        <ele>7.6</ele>
        <time>2021-05-17T08:06:54Z</time>
      </trkpt>
      <trkpt lat="41.5025430" lon="-8.7680000">
        <ele>7.6</ele>
        <time>2021-05-17T08:06:55Z</time>
      </trkpt>
      <trkpt lat="41.5025510" lon="-8.7680060">
        <ele>7.6</ele>
        <time>2021-05-17T08:06:56Z</time>
      </trkpt>
      <trkpt lat="41.5025650" lon="-8.7680110">
        <ele>7.6</ele>
        <time>2021-05-17T08:06:57Z</time>
      </trkpt>
      <trkpt lat="41.5025790" lon="-8.7680040">
        <ele>7.5</ele>
        <time>2021-05-17T08:06:58Z</time>
      </trkpt>
      <trkpt lat="41.5025950" lon="-8.7680130">
        <ele>7.5</ele>
        <time>2021-05-17T08:06:59Z</time>
      </trkpt>
      <trkpt lat="41.5026110" lon="-8.7680160">
        <ele>7.5</ele>
        <time>2021-05-17T08:07:00Z</time>
      </trkpt>
      <trkpt lat="41.5026290" lon="-8.7680190">
        <ele>7.5</ele>
        <time>2021-05-17T08:07:01Z</time>
      </trkpt>
      <trkpt lat="41.5026410" lon="-8.7680190">
        <ele>7.5</ele>
        <time>2021-05-17T08:07:02Z</time>
      </trkpt>
      <trkpt lat="41.5026520" lon="-8.7680250">
        <ele>7.5</ele>
        <time>2021-05-17T08:07:03Z</time>
      </trkpt>
      <trkpt lat="41.5026710" lon="-8.7680340">
        <ele>7.5</ele>
        <time>2021-05-17T08:07:04Z</time>
      </trkpt>
      <trkpt lat="41.5026810" lon="-8.7680440">
        <ele>7.5</ele>
        <time>2021-05-17T08:07:05Z</time>
      </trkpt>
      <trkpt lat="41.5027010" lon="-8.7680480">
        <ele>7.5</ele>
        <time>2021-05-17T08:07:06Z</time>
      </trkpt>
      <trkpt lat="41.5027160" lon="-8.7680640">
        <ele>7.5</ele>
        <time>2021-05-17T08:07:07Z</time>
      </trkpt>
      <trkpt lat="41.5027230" lon="-8.7680740">
        <ele>7.5</ele>
        <time>2021-05-17T08:07:08Z</time>
      </trkpt>
      <trkpt lat="41.5027420" lon="-8.7680880">
        <ele>7.5</ele>
        <time>2021-05-17T08:07:09Z</time>
      </trkpt>
      <trkpt lat="41.5027490" lon="-8.7680940">
        <ele>7.5</ele>
        <time>2021-05-17T08:07:10Z</time>
      </trkpt>
      <trkpt lat="41.5027560" lon="-8.7681000">
        <ele>7.5</ele>
        <time>2021-05-17T08:07:11Z</time>
      </trkpt>
      <trkpt lat="41.5027700" lon="-8.7681090">
        <ele>7.5</ele>
        <time>2021-05-17T08:07:12Z</time>
      </trkpt>
      <trkpt lat="41.5027840" lon="-8.7681160">
        <ele>7.4</ele>
        <time>2021-05-17T08:07:13Z</time>
      </trkpt>
      <trkpt lat="41.5027980" lon="-8.7681230">
        <ele>7.4</ele>
        <time>2021-05-17T08:07:14Z</time>
      </trkpt>
      <trkpt lat="41.5028110" lon="-8.7681280">
        <ele>7.4</ele>
        <time>2021-05-17T08:07:15Z</time>
      </trkpt>
      <trkpt lat="41.5028380" lon="-8.7681350">
        <ele>7.4</ele>
        <time>2021-05-17T08:07:16Z</time>
      </trkpt>
      <trkpt lat="41.5028500" lon="-8.7681400">
        <ele>7.4</ele>
        <time>2021-05-17T08:07:17Z</time>
      </trkpt>
      <trkpt lat="41.5028800" lon="-8.7681440">
        <ele>7.4</ele>
        <time>2021-05-17T08:07:18Z</time>
      </trkpt>
      <trkpt lat="41.5028900" lon="-8.7681470">
        <ele>7.4</ele>
        <time>2021-05-17T08:07:19Z</time>
      </trkpt>
      <trkpt lat="41.5029050" lon="-8.7681570">
        <ele>7.4</ele>
        <time>2021-05-17T08:07:20Z</time>
      </trkpt>
      <trkpt lat="41.5029220" lon="-8.7681620">
        <ele>7.4</ele>
        <time>2021-05-17T08:07:21Z</time>
      </trkpt>
      <trkpt lat="41.5029380" lon="-8.7681650">
        <ele>7.4</ele>
        <time>2021-05-17T08:07:22Z</time>
      </trkpt>
      <trkpt lat="41.5029550" lon="-8.7681700">
        <ele>7.3</ele>
        <time>2021-05-17T08:07:23Z</time>
      </trkpt>
      <trkpt lat="41.5029670" lon="-8.7681860">
        <ele>7.3</ele>
        <time>2021-05-17T08:07:24Z</time>
      </trkpt>
      <trkpt lat="41.5029850" lon="-8.7681910">
        <ele>7.3</ele>
        <time>2021-05-17T08:07:25Z</time>
      </trkpt>
      <trkpt lat="41.5029980" lon="-8.7681960">
        <ele>7.3</ele>
        <time>2021-05-17T08:07:26Z</time>
      </trkpt>
      <trkpt lat="41.5030120" lon="-8.7682000">
        <ele>7.3</ele>
        <time>2021-05-17T08:07:27Z</time>
      </trkpt>
      <trkpt lat="41.5030280" lon="-8.7682070">
        <ele>7.3</ele>
        <time>2021-05-17T08:07:28Z</time>
      </trkpt>
      <trkpt lat="41.5030440" lon="-8.7682090">
        <ele>7.3</ele>
        <time>2021-05-17T08:07:29Z</time>
      </trkpt>
      <trkpt lat="41.5030590" lon="-8.7682140">
        <ele>7.3</ele>
        <time>2021-05-17T08:07:30Z</time>
      </trkpt>
      <trkpt lat="41.5030720" lon="-8.7682180">
        <ele>7.3</ele>
        <time>2021-05-17T08:07:31Z</time>
      </trkpt>
      <trkpt lat="41.5030880" lon="-8.7682180">
        <ele>7.3</ele>
        <time>2021-05-17T08:07:32Z</time>
      </trkpt>
      <trkpt lat="41.5031020" lon="-8.7682180">
        <ele>7.3</ele>
        <time>2021-05-17T08:07:33Z</time>
      </trkpt>
      <trkpt lat="41.5031190" lon="-8.7682290">
        <ele>7.3</ele>
        <time>2021-05-17T08:07:34Z</time>
      </trkpt>
      <trkpt lat="41.5031320" lon="-8.7682370">
        <ele>7.3</ele>
        <time>2021-05-17T08:07:35Z</time>
      </trkpt>
      <trkpt lat="41.5031480" lon="-8.7682450">
        <ele>7.3</ele>
        <time>2021-05-17T08:07:36Z</time>
      </trkpt>
      <trkpt lat="41.5031600" lon="-8.7682550">
        <ele>7.3</ele>
        <time>2021-05-17T08:07:37Z</time>
      </trkpt>
      <trkpt lat="41.5031730" lon="-8.7682610">
        <ele>7.3</ele>
        <time>2021-05-17T08:07:38Z</time>
      </trkpt>
      <trkpt lat="41.5031820" lon="-8.7682650">
        <ele>7.2</ele>
        <time>2021-05-17T08:07:39Z</time>
      </trkpt>
      <trkpt lat="41.5031940" lon="-8.7682670">
        <ele>7.2</ele>
        <time>2021-05-17T08:07:40Z</time>
      </trkpt>
      <trkpt lat="41.5032070" lon="-8.7682720">
        <ele>7.2</ele>
        <time>2021-05-17T08:07:41Z</time>
      </trkpt>
      <trkpt lat="41.5032150" lon="-8.7682760">
        <ele>7.2</ele>
        <time>2021-05-17T08:07:42Z</time>
      </trkpt>
      <trkpt lat="41.5032220" lon="-8.7682800">
        <ele>7.2</ele>
        <time>2021-05-17T08:07:43Z</time>
      </trkpt>
      <trkpt lat="41.5032290" lon="-8.7682840">
        <ele>7.2</ele>
        <time>2021-05-17T08:07:44Z</time>
      </trkpt>
      <trkpt lat="41.5032520" lon="-8.7682910">
        <ele>7.2</ele>
        <time>2021-05-17T08:07:45Z</time>
      </trkpt>
      <trkpt lat="41.5032630" lon="-8.7682930">
        <ele>7.2</ele>
        <time>2021-05-17T08:07:46Z</time>
      </trkpt>
      <trkpt lat="41.5032760" lon="-8.7683000">
        <ele>7.2</ele>
        <time>2021-05-17T08:07:47Z</time>
      </trkpt>
      <trkpt lat="41.5032900" lon="-8.7683010">
        <ele>7.2</ele>
        <time>2021-05-17T08:07:48Z</time>
      </trkpt>
      <trkpt lat="41.5033050" lon="-8.7683070">
        <ele>7.2</ele>
        <time>2021-05-17T08:07:49Z</time>
      </trkpt>
      <trkpt lat="41.5033210" lon="-8.7683140">
        <ele>7.2</ele>
        <time>2021-05-17T08:07:50Z</time>
      </trkpt>
      <trkpt lat="41.5033330" lon="-8.7683230">
        <ele>7.2</ele>
        <time>2021-05-17T08:07:51Z</time>
      </trkpt>
      <trkpt lat="41.5033460" lon="-8.7683310">
        <ele>7.2</ele>
        <time>2021-05-17T08:07:52Z</time>
      </trkpt>
      <trkpt lat="41.5033610" lon="-8.7683340">
        <ele>7.2</ele>
        <time>2021-05-17T08:07:53Z</time>
      </trkpt>
      <trkpt lat="41.5033760" lon="-8.7683370">
        <ele>7.2</ele>
        <time>2021-05-17T08:07:54Z</time>
      </trkpt>
      <trkpt lat="41.5033920" lon="-8.7683460">
        <ele>7.2</ele>
        <time>2021-05-17T08:07:55Z</time>
      </trkpt>
      <trkpt lat="41.5034040" lon="-8.7683530">
        <ele>7.2</ele>
        <time>2021-05-17T08:07:56Z</time>
      </trkpt>
      <trkpt lat="41.5034170" lon="-8.7683580">
        <ele>7.2</ele>
        <time>2021-05-17T08:07:57Z</time>
      </trkpt>
      <trkpt lat="41.5034270" lon="-8.7683730">
        <ele>7.2</ele>
        <time>2021-05-17T08:07:58Z</time>
      </trkpt>
      <trkpt lat="41.5034380" lon="-8.7683740">
        <ele>7.2</ele>
        <time>2021-05-17T08:07:59Z</time>
      </trkpt>
      <trkpt lat="41.5034530" lon="-8.7683780">
        <ele>7.2</ele>
        <time>2021-05-17T08:08:00Z</time>
      </trkpt>
      <trkpt lat="41.5034600" lon="-8.7683880">
        <ele>7.2</ele>
        <time>2021-05-17T08:08:01Z</time>
      </trkpt>
      <trkpt lat="41.5034740" lon="-8.7683880">
        <ele>7.2</ele>
        <time>2021-05-17T08:08:02Z</time>
      </trkpt>
      <trkpt lat="41.5034830" lon="-8.7683930">
        <ele>7.2</ele>
        <time>2021-05-17T08:08:03Z</time>
      </trkpt>
      <trkpt lat="41.5034920" lon="-8.7684000">
        <ele>7.2</ele>
        <time>2021-05-17T08:08:04Z</time>
      </trkpt>
      <trkpt lat="41.5035050" lon="-8.7684000">
        <ele>7.1</ele>
        <time>2021-05-17T08:08:05Z</time>
      </trkpt>
      <trkpt lat="41.5035180" lon="-8.7684120">
        <ele>7.1</ele>
        <time>2021-05-17T08:08:06Z</time>
      </trkpt>
      <trkpt lat="41.5035300" lon="-8.7684170">
        <ele>7.1</ele>
        <time>2021-05-17T08:08:07Z</time>
      </trkpt>
      <trkpt lat="41.5035390" lon="-8.7684200">
        <ele>7.1</ele>
        <time>2021-05-17T08:08:08Z</time>
      </trkpt>
      <trkpt lat="41.5035500" lon="-8.7684180">
        <ele>7.1</ele>
        <time>2021-05-17T08:08:09Z</time>
      </trkpt>
      <trkpt lat="41.5035600" lon="-8.7684220">
        <ele>7.1</ele>
        <time>2021-05-17T08:08:10Z</time>
      </trkpt>
      <trkpt lat="41.5035680" lon="-8.7684250">
        <ele>7.1</ele>
        <time>2021-05-17T08:08:11Z</time>
      </trkpt>
      <trkpt lat="41.5035810" lon="-8.7684250">
        <ele>7.1</ele>
        <time>2021-05-17T08:08:12Z</time>
      </trkpt>
      <trkpt lat="41.5035950" lon="-8.7684310">
        <ele>7.1</ele>
        <time>2021-05-17T08:08:13Z</time>
      </trkpt>
      <trkpt lat="41.5036100" lon="-8.7684330">
        <ele>7.1</ele>
        <time>2021-05-17T08:08:14Z</time>
      </trkpt>
      <trkpt lat="41.5036210" lon="-8.7684350">
        <ele>7.1</ele>
        <time>2021-05-17T08:08:15Z</time>
      </trkpt>
      <trkpt lat="41.5036370" lon="-8.7684440">
        <ele>7.1</ele>
        <time>2021-05-17T08:08:16Z</time>
      </trkpt>
      <trkpt lat="41.5036510" lon="-8.7684490">
        <ele>7.1</ele>
        <time>2021-05-17T08:08:17Z</time>
      </trkpt>
      <trkpt lat="41.5036650" lon="-8.7684570">
        <ele>7.1</ele>
        <time>2021-05-17T08:08:18Z</time>
      </trkpt>
      <trkpt lat="41.5036800" lon="-8.7684620">
        <ele>7.1</ele>
        <time>2021-05-17T08:08:19Z</time>
      </trkpt>
      <trkpt lat="41.5036880" lon="-8.7684640">
        <ele>7.1</ele>
        <time>2021-05-17T08:08:20Z</time>
      </trkpt>
      <trkpt lat="41.5036960" lon="-8.7684670">
        <ele>7.1</ele>
        <time>2021-05-17T08:08:21Z</time>
      </trkpt>
      <trkpt lat="41.5037040" lon="-8.7684700">
        <ele>7.1</ele>
        <time>2021-05-17T08:08:22Z</time>
      </trkpt>
      <trkpt lat="41.5037160" lon="-8.7684810">
        <ele>7.1</ele>
        <time>2021-05-17T08:08:23Z</time>
      </trkpt>
      <trkpt lat="41.5037310" lon="-8.7684910">
        <ele>7.1</ele>
        <time>2021-05-17T08:08:24Z</time>
      </trkpt>
      <trkpt lat="41.5037540" lon="-8.7684970">
        <ele>7.0</ele>
        <time>2021-05-17T08:08:25Z</time>
      </trkpt>
      <trkpt lat="41.5037630" lon="-8.7685000">
        <ele>7.0</ele>
        <time>2021-05-17T08:08:26Z</time>
      </trkpt>
      <trkpt lat="41.5037720" lon="-8.7685040">
        <ele>7.0</ele>
        <time>2021-05-17T08:08:27Z</time>
      </trkpt>
      <trkpt lat="41.5037910" lon="-8.7685090">
        <ele>7.0</ele>
        <time>2021-05-17T08:08:28Z</time>
      </trkpt>
      <trkpt lat="41.5037990" lon="-8.7685120">
        <ele>7.0</ele>
        <time>2021-05-17T08:08:29Z</time>
      </trkpt>
      <trkpt lat="41.5038080" lon="-8.7685160">
        <ele>7.0</ele>
        <time>2021-05-17T08:08:30Z</time>
      </trkpt>
      <trkpt lat="41.5038150" lon="-8.7685210">
        <ele>7.0</ele>
        <time>2021-05-17T08:08:31Z</time>
      </trkpt>
      <trkpt lat="41.5038230" lon="-8.7685260">
        <ele>7.0</ele>
        <time>2021-05-17T08:08:32Z</time>
      </trkpt>
      <trkpt lat="41.5038390" lon="-8.7685340">
        <ele>7.0</ele>
        <time>2021-05-17T08:08:33Z</time>
      </trkpt>
      <trkpt lat="41.5038500" lon="-8.7685360">
        <ele>7.0</ele>
        <time>2021-05-17T08:08:34Z</time>
      </trkpt>
      <trkpt lat="41.5038570" lon="-8.7685340">
        <ele>7.0</ele>
        <time>2021-05-17T08:08:35Z</time>
      </trkpt>
      <trkpt lat="41.5038640" lon="-8.7685360">
        <ele>7.0</ele>
        <time>2021-05-17T08:08:36Z</time>
      </trkpt>
      <trkpt lat="41.5038630" lon="-8.7685390">
        <ele>7.0</ele>
        <time>2021-05-17T08:08:37Z</time>
      </trkpt>
      <trkpt lat="41.5038610" lon="-8.7685560">
        <ele>7.0</ele>
        <time>2021-05-17T08:08:38Z</time>
      </trkpt>
      <trkpt lat="41.5038720" lon="-8.7685660">
        <ele>7.0</ele>
        <time>2021-05-17T08:08:39Z</time>
      </trkpt>
      <trkpt lat="41.5038750" lon="-8.7685710">
        <ele>7.0</ele>
        <time>2021-05-17T08:08:40Z</time>
      </trkpt>
      <trkpt lat="41.5038920" lon="-8.7685650">
        <ele>7.0</ele>
        <time>2021-05-17T08:08:41Z</time>
      </trkpt>
      <trkpt lat="41.5038990" lon="-8.7685660">
        <ele>7.0</ele>
        <time>2021-05-17T08:08:42Z</time>
      </trkpt>
      <trkpt lat="41.5039190" lon="-8.7685630">
        <ele>6.9</ele>
        <time>2021-05-17T08:08:43Z</time>
      </trkpt>
      <trkpt lat="41.5039420" lon="-8.7685630">
        <ele>6.9</ele>
        <time>2021-05-17T08:08:44Z</time>
      </trkpt>
      <trkpt lat="41.5039500" lon="-8.7685640">
        <ele>6.9</ele>
        <time>2021-05-17T08:08:45Z</time>
      </trkpt>
      <trkpt lat="41.5039540" lon="-8.7685600">
        <ele>6.9</ele>
        <time>2021-05-17T08:08:46Z</time>
      </trkpt>
      <trkpt lat="41.5039600" lon="-8.7685640">
        <ele>6.9</ele>
        <time>2021-05-17T08:08:47Z</time>
      </trkpt>
      <trkpt lat="41.5039740" lon="-8.7685660">
        <ele>6.9</ele>
        <time>2021-05-17T08:08:48Z</time>
      </trkpt>
      <trkpt lat="41.5039820" lon="-8.7685650">
        <ele>6.9</ele>
        <time>2021-05-17T08:08:49Z</time>
      </trkpt>
      <trkpt lat="41.5039950" lon="-8.7685650">
        <ele>6.9</ele>
        <time>2021-05-17T08:08:50Z</time>
      </trkpt>
      <trkpt lat="41.5040150" lon="-8.7685650">
        <ele>6.9</ele>
        <time>2021-05-17T08:08:51Z</time>
      </trkpt>
      <trkpt lat="41.5040260" lon="-8.7685710">
        <ele>6.9</ele>
        <time>2021-05-17T08:08:52Z</time>
      </trkpt>
      <trkpt lat="41.5040450" lon="-8.7685720">
        <ele>6.8</ele>
        <time>2021-05-17T08:08:53Z</time>
      </trkpt>
      <trkpt lat="41.5040680" lon="-8.7685800">
        <ele>6.8</ele>
        <time>2021-05-17T08:08:54Z</time>
      </trkpt>
      <trkpt lat="41.5040770" lon="-8.7685830">
        <ele>6.8</ele>
        <time>2021-05-17T08:08:55Z</time>
      </trkpt>
      <trkpt lat="41.5040860" lon="-8.7685870">
        <ele>6.8</ele>
        <time>2021-05-17T08:08:56Z</time>
      </trkpt>
      <trkpt lat="41.5041080" lon="-8.7685920">
        <ele>6.8</ele>
        <time>2021-05-17T08:08:57Z</time>
      </trkpt>
      <trkpt lat="41.5041220" lon="-8.7685940">
        <ele>6.8</ele>
        <time>2021-05-17T08:08:58Z</time>
      </trkpt>
      <trkpt lat="41.5041350" lon="-8.7685970">
        <ele>6.8</ele>
        <time>2021-05-17T08:08:59Z</time>
      </trkpt>
      <trkpt lat="41.5041500" lon="-8.7686000">
        <ele>6.8</ele>
        <time>2021-05-17T08:09:00Z</time>
      </trkpt>
      <trkpt lat="41.5041650" lon="-8.7686090">
        <ele>6.8</ele>
        <time>2021-05-17T08:09:01Z</time>
      </trkpt>
      <trkpt lat="41.5041820" lon="-8.7686080">
        <ele>6.8</ele>
        <time>2021-05-17T08:09:02Z</time>
      </trkpt>
      <trkpt lat="41.5042030" lon="-8.7686070">
        <ele>6.8</ele>
        <time>2021-05-17T08:09:03Z</time>
      </trkpt>
      <trkpt lat="41.5042150" lon="-8.7686060">
        <ele>6.8</ele>
        <time>2021-05-17T08:09:04Z</time>
      </trkpt>
      <trkpt lat="41.5042270" lon="-8.7686040">
        <ele>6.8</ele>
        <time>2021-05-17T08:09:05Z</time>
      </trkpt>
      <trkpt lat="41.5042480" lon="-8.7686060">
        <ele>6.8</ele>
        <time>2021-05-17T08:09:06Z</time>
      </trkpt>
      <trkpt lat="41.5042630" lon="-8.7686090">
        <ele>6.8</ele>
        <time>2021-05-17T08:09:07Z</time>
      </trkpt>
      <trkpt lat="41.5042850" lon="-8.7686090">
        <ele>6.7</ele>
        <time>2021-05-17T08:09:08Z</time>
      </trkpt>
      <trkpt lat="41.5042940" lon="-8.7686110">
        <ele>6.7</ele>
        <time>2021-05-17T08:09:09Z</time>
      </trkpt>
      <trkpt lat="41.5043020" lon="-8.7686140">
        <ele>6.7</ele>
        <time>2021-05-17T08:09:10Z</time>
      </trkpt>
      <trkpt lat="41.5043220" lon="-8.7686200">
        <ele>6.7</ele>
        <time>2021-05-17T08:09:11Z</time>
      </trkpt>
      <trkpt lat="41.5043300" lon="-8.7686220">
        <ele>6.7</ele>
        <time>2021-05-17T08:09:12Z</time>
      </trkpt>
      <trkpt lat="41.5043380" lon="-8.7686250">
        <ele>6.7</ele>
        <time>2021-05-17T08:09:13Z</time>
      </trkpt>
      <trkpt lat="41.5043450" lon="-8.7686290">
        <ele>6.7</ele>
        <time>2021-05-17T08:09:14Z</time>
      </trkpt>
      <trkpt lat="41.5043510" lon="-8.7686310">
        <ele>6.7</ele>
        <time>2021-05-17T08:09:15Z</time>
      </trkpt>
      <trkpt lat="41.5043610" lon="-8.7686390">
        <ele>6.7</ele>
        <time>2021-05-17T08:09:16Z</time>
      </trkpt>
      <trkpt lat="41.5043700" lon="-8.7686440">
        <ele>6.7</ele>
        <time>2021-05-17T08:09:17Z</time>
      </trkpt>
      <trkpt lat="41.5043800" lon="-8.7686540">
        <ele>6.7</ele>
        <time>2021-05-17T08:09:18Z</time>
      </trkpt>
      <trkpt lat="41.5043870" lon="-8.7686600">
        <ele>6.7</ele>
        <time>2021-05-17T08:09:19Z</time>
      </trkpt>
      <trkpt lat="41.5043930" lon="-8.7686670">
        <ele>6.7</ele>
        <time>2021-05-17T08:09:20Z</time>
      </trkpt>
      <trkpt lat="41.5044000" lon="-8.7686730">
        <ele>6.7</ele>
        <time>2021-05-17T08:09:21Z</time>
      </trkpt>
      <trkpt lat="41.5044180" lon="-8.7686750">
        <ele>6.7</ele>
        <time>2021-05-17T08:09:22Z</time>
      </trkpt>
      <trkpt lat="41.5044360" lon="-8.7686790">
        <ele>6.7</ele>
        <time>2021-05-17T08:09:23Z</time>
      </trkpt>
      <trkpt lat="41.5044580" lon="-8.7686810">
        <ele>6.6</ele>
        <time>2021-05-17T08:09:24Z</time>
      </trkpt>
      <trkpt lat="41.5044670" lon="-8.7686840">
        <ele>6.6</ele>
        <time>2021-05-17T08:09:25Z</time>
      </trkpt>
      <trkpt lat="41.5044770" lon="-8.7686870">
        <ele>6.6</ele>
        <time>2021-05-17T08:09:26Z</time>
      </trkpt>
      <trkpt lat="41.5044900" lon="-8.7686970">
        <ele>6.6</ele>
        <time>2021-05-17T08:09:27Z</time>
      </trkpt>
      <trkpt lat="41.5045050" lon="-8.7687080">
        <ele>6.6</ele>
        <time>2021-05-17T08:09:28Z</time>
      </trkpt>
      <trkpt lat="41.5045190" lon="-8.7687140">
        <ele>6.6</ele>
        <time>2021-05-17T08:09:29Z</time>
      </trkpt>
      <trkpt lat="41.5045250" lon="-8.7687220">
        <ele>6.6</ele>
        <time>2021-05-17T08:09:30Z</time>
      </trkpt>
      <trkpt lat="41.5045360" lon="-8.7687280">
        <ele>6.6</ele>
        <time>2021-05-17T08:09:31Z</time>
      </trkpt>
      <trkpt lat="41.5045510" lon="-8.7687270">
        <ele>6.6</ele>
        <time>2021-05-17T08:09:32Z</time>
      </trkpt>
      <trkpt lat="41.5045700" lon="-8.7687350">
        <ele>6.6</ele>
        <time>2021-05-17T08:09:33Z</time>
      </trkpt>
      <trkpt lat="41.5045940" lon="-8.7687380">
        <ele>6.6</ele>
        <time>2021-05-17T08:09:34Z</time>
      </trkpt>
      <trkpt lat="41.5046030" lon="-8.7687400">
        <ele>6.5</ele>
        <time>2021-05-17T08:09:35Z</time>
      </trkpt>
      <trkpt lat="41.5046110" lon="-8.7687420">
        <ele>6.5</ele>
        <time>2021-05-17T08:09:36Z</time>
      </trkpt>
      <trkpt lat="41.5046320" lon="-8.7687530">
        <ele>6.5</ele>
        <time>2021-05-17T08:09:37Z</time>
      </trkpt>
      <trkpt lat="41.5046410" lon="-8.7687600">
        <ele>6.5</ele>
        <time>2021-05-17T08:09:38Z</time>
      </trkpt>
      <trkpt lat="41.5046490" lon="-8.7687660">
        <ele>6.5</ele>
        <time>2021-05-17T08:09:39Z</time>
      </trkpt>
      <trkpt lat="41.5046600" lon="-8.7687730">
        <ele>6.5</ele>
        <time>2021-05-17T08:09:40Z</time>
      </trkpt>
      <trkpt lat="41.5046740" lon="-8.7687790">
        <ele>6.5</ele>
        <time>2021-05-17T08:09:41Z</time>
      </trkpt>
      <trkpt lat="41.5047010" lon="-8.7687840">
        <ele>6.5</ele>
        <time>2021-05-17T08:09:42Z</time>
      </trkpt>
      <trkpt lat="41.5047140" lon="-8.7687880">
        <ele>6.4</ele>
        <time>2021-05-17T08:09:43Z</time>
      </trkpt>
      <trkpt lat="41.5047270" lon="-8.7687910">
        <ele>6.4</ele>
        <time>2021-05-17T08:09:44Z</time>
      </trkpt>
      <trkpt lat="41.5047480" lon="-8.7687980">
        <ele>6.4</ele>
        <time>2021-05-17T08:09:45Z</time>
      </trkpt>
      <trkpt lat="41.5047590" lon="-8.7688050">
        <ele>6.4</ele>
        <time>2021-05-17T08:09:46Z</time>
      </trkpt>
      <trkpt lat="41.5047800" lon="-8.7688170">
        <ele>6.4</ele>
        <time>2021-05-17T08:09:47Z</time>
      </trkpt>
      <trkpt lat="41.5048010" lon="-8.7688270">
        <ele>6.4</ele>
        <time>2021-05-17T08:09:48Z</time>
      </trkpt>
      <trkpt lat="41.5048150" lon="-8.7688310">
        <ele>6.3</ele>
        <time>2021-05-17T08:09:49Z</time>
      </trkpt>
      <trkpt lat="41.5048310" lon="-8.7688360">
        <ele>6.3</ele>
        <time>2021-05-17T08:09:50Z</time>
      </trkpt>
      <trkpt lat="41.5048360" lon="-8.7688400">
        <ele>6.3</ele>
        <time>2021-05-17T08:09:51Z</time>
      </trkpt>
      <trkpt lat="41.5048440" lon="-8.7688470">
        <ele>6.3</ele>
        <time>2021-05-17T08:09:52Z</time>
      </trkpt>
      <trkpt lat="41.5048750" lon="-8.7688560">
        <ele>6.3</ele>
        <time>2021-05-17T08:09:53Z</time>
      </trkpt>
      <trkpt lat="41.5048800" lon="-8.7688590">
        <ele>6.3</ele>
        <time>2021-05-17T08:09:54Z</time>
      </trkpt>
      <trkpt lat="41.5049020" lon="-8.7688650">
        <ele>6.2</ele>
        <time>2021-05-17T08:09:55Z</time>
      </trkpt>
      <trkpt lat="41.5049090" lon="-8.7688680">
        <ele>6.2</ele>
        <time>2021-05-17T08:09:56Z</time>
      </trkpt>
      <trkpt lat="41.5049170" lon="-8.7688700">
        <ele>6.2</ele>
        <time>2021-05-17T08:09:57Z</time>
      </trkpt>
      <trkpt lat="41.5049310" lon="-8.7688830">
        <ele>6.2</ele>
        <time>2021-05-17T08:09:58Z</time>
      </trkpt>
      <trkpt lat="41.5049420" lon="-8.7688860">
        <ele>6.2</ele>
        <time>2021-05-17T08:09:59Z</time>
      </trkpt>
      <trkpt lat="41.5049520" lon="-8.7688900">
        <ele>6.2</ele>
        <time>2021-05-17T08:10:00Z</time>
      </trkpt>
      <trkpt lat="41.5049660" lon="-8.7688960">
        <ele>6.2</ele>
        <time>2021-05-17T08:10:01Z</time>
      </trkpt>
      <trkpt lat="41.5049830" lon="-8.7689070">
        <ele>6.2</ele>
        <time>2021-05-17T08:10:02Z</time>
      </trkpt>
      <trkpt lat="41.5049980" lon="-8.7689170">
        <ele>6.2</ele>
        <time>2021-05-17T08:10:03Z</time>
      </trkpt>
      <trkpt lat="41.5050090" lon="-8.7689200">
        <ele>6.1</ele>
        <time>2021-05-17T08:10:04Z</time>
      </trkpt>
      <trkpt lat="41.5050330" lon="-8.7689220">
        <ele>6.1</ele>
        <time>2021-05-17T08:10:05Z</time>
      </trkpt>
      <trkpt lat="41.5050430" lon="-8.7689210">
        <ele>6.1</ele>
        <time>2021-05-17T08:10:06Z</time>
      </trkpt>
      <trkpt lat="41.5050560" lon="-8.7689240">
        <ele>6.1</ele>
        <time>2021-05-17T08:10:07Z</time>
      </trkpt>
      <trkpt lat="41.5050700" lon="-8.7689320">
        <ele>6.1</ele>
        <time>2021-05-17T08:10:08Z</time>
      </trkpt>
      <trkpt lat="41.5050900" lon="-8.7689410">
        <ele>6.1</ele>
        <time>2021-05-17T08:10:09Z</time>
      </trkpt>
      <trkpt lat="41.5051010" lon="-8.7689530">
        <ele>6.1</ele>
        <time>2021-05-17T08:10:10Z</time>
      </trkpt>
      <trkpt lat="41.5051250" lon="-8.7689530">
        <ele>6.0</ele>
        <time>2021-05-17T08:10:11Z</time>
      </trkpt>
      <trkpt lat="41.5051330" lon="-8.7689580">
        <ele>6.0</ele>
        <time>2021-05-17T08:10:12Z</time>
      </trkpt>
      <trkpt lat="41.5051410" lon="-8.7689620">
        <ele>6.0</ele>
        <time>2021-05-17T08:10:13Z</time>
      </trkpt>
      <trkpt lat="41.5051580" lon="-8.7689680">
        <ele>6.0</ele>
        <time>2021-05-17T08:10:14Z</time>
      </trkpt>
      <trkpt lat="41.5051680" lon="-8.7689710">
        <ele>6.0</ele>
        <time>2021-05-17T08:10:15Z</time>
      </trkpt>
      <trkpt lat="41.5051780" lon="-8.7689740">
        <ele>6.0</ele>
        <time>2021-05-17T08:10:16Z</time>
      </trkpt>
      <trkpt lat="41.5051890" lon="-8.7689780">
        <ele>6.0</ele>
        <time>2021-05-17T08:10:17Z</time>
      </trkpt>
      <trkpt lat="41.5052040" lon="-8.7689890">
        <ele>6.0</ele>
        <time>2021-05-17T08:10:18Z</time>
      </trkpt>
      <trkpt lat="41.5052350" lon="-8.7690020">
        <ele>5.9</ele>
        <time>2021-05-17T08:10:19Z</time>
      </trkpt>
      <trkpt lat="41.5052470" lon="-8.7690100">
        <ele>5.9</ele>
        <time>2021-05-17T08:10:20Z</time>
      </trkpt>
      <trkpt lat="41.5052660" lon="-8.7690120">
        <ele>5.9</ele>
        <time>2021-05-17T08:10:21Z</time>
      </trkpt>
      <trkpt lat="41.5052780" lon="-8.7690150">
        <ele>5.9</ele>
        <time>2021-05-17T08:10:22Z</time>
      </trkpt>
      <trkpt lat="41.5052890" lon="-8.7690190">
        <ele>5.9</ele>
        <time>2021-05-17T08:10:23Z</time>
      </trkpt>
      <trkpt lat="41.5053050" lon="-8.7690300">
        <ele>5.9</ele>
        <time>2021-05-17T08:10:24Z</time>
      </trkpt>
      <trkpt lat="41.5053180" lon="-8.7690420">
        <ele>5.9</ele>
        <time>2021-05-17T08:10:25Z</time>
      </trkpt>
      <trkpt lat="41.5053340" lon="-8.7690500">
        <ele>5.8</ele>
        <time>2021-05-17T08:10:26Z</time>
      </trkpt>
      <trkpt lat="41.5053490" lon="-8.7690620">
        <ele>5.8</ele>
        <time>2021-05-17T08:10:27Z</time>
      </trkpt>
      <trkpt lat="41.5053770" lon="-8.7690670">
        <ele>5.8</ele>
        <time>2021-05-17T08:10:28Z</time>
      </trkpt>
      <trkpt lat="41.5053860" lon="-8.7690670">
        <ele>5.8</ele>
        <time>2021-05-17T08:10:29Z</time>
      </trkpt>
      <trkpt lat="41.5054020" lon="-8.7690760">
        <ele>5.8</ele>
        <time>2021-05-17T08:10:30Z</time>
      </trkpt>
      <trkpt lat="41.5054190" lon="-8.7690780">
        <ele>5.8</ele>
        <time>2021-05-17T08:10:31Z</time>
      </trkpt>
      <trkpt lat="41.5054350" lon="-8.7690820">
        <ele>5.8</ele>
        <time>2021-05-17T08:10:32Z</time>
      </trkpt>
      <trkpt lat="41.5054500" lon="-8.7690830">
        <ele>5.8</ele>
        <time>2021-05-17T08:10:33Z</time>
      </trkpt>
      <trkpt lat="41.5054640" lon="-8.7690930">
        <ele>5.8</ele>
        <time>2021-05-17T08:10:34Z</time>
      </trkpt>
      <trkpt lat="41.5054780" lon="-8.7691010">
        <ele>5.8</ele>
        <time>2021-05-17T08:10:35Z</time>
      </trkpt>
      <trkpt lat="41.5054920" lon="-8.7691040">
        <ele>5.8</ele>
        <time>2021-05-17T08:10:36Z</time>
      </trkpt>
      <trkpt lat="41.5055050" lon="-8.7691040">
        <ele>5.8</ele>
        <time>2021-05-17T08:10:37Z</time>
      </trkpt>
      <trkpt lat="41.5055190" lon="-8.7691130">
        <ele>5.8</ele>
        <time>2021-05-17T08:10:38Z</time>
      </trkpt>
      <trkpt lat="41.5055350" lon="-8.7691190">
        <ele>5.8</ele>
        <time>2021-05-17T08:10:39Z</time>
      </trkpt>
      <trkpt lat="41.5055480" lon="-8.7691270">
        <ele>5.7</ele>
        <time>2021-05-17T08:10:40Z</time>
      </trkpt>
      <trkpt lat="41.5055650" lon="-8.7691270">
        <ele>5.7</ele>
        <time>2021-05-17T08:10:41Z</time>
      </trkpt>
      <trkpt lat="41.5055810" lon="-8.7691360">
        <ele>5.7</ele>
        <time>2021-05-17T08:10:42Z</time>
      </trkpt>
      <trkpt lat="41.5055950" lon="-8.7691500">
        <ele>5.7</ele>
        <time>2021-05-17T08:10:43Z</time>
      </trkpt>
      <trkpt lat="41.5056110" lon="-8.7691550">
        <ele>5.7</ele>
        <time>2021-05-17T08:10:44Z</time>
      </trkpt>
      <trkpt lat="41.5056270" lon="-8.7691610">
        <ele>5.7</ele>
        <time>2021-05-17T08:10:45Z</time>
      </trkpt>
      <trkpt lat="41.5056400" lon="-8.7691680">
        <ele>5.7</ele>
        <time>2021-05-17T08:10:46Z</time>
      </trkpt>
      <trkpt lat="41.5056530" lon="-8.7691770">
        <ele>5.7</ele>
        <time>2021-05-17T08:10:47Z</time>
      </trkpt>
      <trkpt lat="41.5056660" lon="-8.7691860">
        <ele>5.7</ele>
        <time>2021-05-17T08:10:48Z</time>
      </trkpt>
      <trkpt lat="41.5056790" lon="-8.7691860">
        <ele>5.7</ele>
        <time>2021-05-17T08:10:49Z</time>
      </trkpt>
      <trkpt lat="41.5056920" lon="-8.7691880">
        <ele>5.7</ele>
        <time>2021-05-17T08:10:50Z</time>
      </trkpt>
      <trkpt lat="41.5057080" lon="-8.7691920">
        <ele>5.7</ele>
        <time>2021-05-17T08:10:51Z</time>
      </trkpt>
      <trkpt lat="41.5057250" lon="-8.7692050">
        <ele>5.7</ele>
        <time>2021-05-17T08:10:52Z</time>
      </trkpt>
      <trkpt lat="41.5057340" lon="-8.7692110">
        <ele>5.6</ele>
        <time>2021-05-17T08:10:53Z</time>
      </trkpt>
      <trkpt lat="41.5057430" lon="-8.7692160">
        <ele>5.6</ele>
        <time>2021-05-17T08:10:54Z</time>
      </trkpt>
      <trkpt lat="41.5057610" lon="-8.7692240">
        <ele>5.6</ele>
        <time>2021-05-17T08:10:55Z</time>
      </trkpt>
      <trkpt lat="41.5057720" lon="-8.7692320">
        <ele>5.6</ele>
        <time>2021-05-17T08:10:56Z</time>
      </trkpt>
      <trkpt lat="41.5057820" lon="-8.7692390">
        <ele>5.6</ele>
        <time>2021-05-17T08:10:57Z</time>
      </trkpt>
      <trkpt lat="41.5057960" lon="-8.7692400">
        <ele>5.6</ele>
        <time>2021-05-17T08:10:58Z</time>
      </trkpt>
      <trkpt lat="41.5058110" lon="-8.7692440">
        <ele>5.6</ele>
        <time>2021-05-17T08:10:59Z</time>
      </trkpt>
      <trkpt lat="41.5058320" lon="-8.7692480">
        <ele>5.6</ele>
        <time>2021-05-17T08:11:00Z</time>
      </trkpt>
      <trkpt lat="41.5058410" lon="-8.7692500">
        <ele>5.6</ele>
        <time>2021-05-17T08:11:01Z</time>
      </trkpt>
      <trkpt lat="41.5058510" lon="-8.7692510">
        <ele>5.6</ele>
        <time>2021-05-17T08:11:02Z</time>
      </trkpt>
      <trkpt lat="41.5058640" lon="-8.7692590">
        <ele>5.5</ele>
        <time>2021-05-17T08:11:03Z</time>
      </trkpt>
      <trkpt lat="41.5058780" lon="-8.7692620">
        <ele>5.5</ele>
        <time>2021-05-17T08:11:04Z</time>
      </trkpt>
      <trkpt lat="41.5058930" lon="-8.7692670">
        <ele>5.5</ele>
        <time>2021-05-17T08:11:05Z</time>
      </trkpt>
      <trkpt lat="41.5059050" lon="-8.7692790">
        <ele>5.5</ele>
        <time>2021-05-17T08:11:06Z</time>
      </trkpt>
      <trkpt lat="41.5059210" lon="-8.7692790">
        <ele>5.5</ele>
        <time>2021-05-17T08:11:07Z</time>
      </trkpt>
      <trkpt lat="41.5059360" lon="-8.7692760">
        <ele>5.4</ele>
        <time>2021-05-17T08:11:08Z</time>
      </trkpt>
      <trkpt lat="41.5059500" lon="-8.7692840">
        <ele>5.4</ele>
        <time>2021-05-17T08:11:09Z</time>
      </trkpt>
      <trkpt lat="41.5059630" lon="-8.7692890">
        <ele>5.4</ele>
        <time>2021-05-17T08:11:10Z</time>
      </trkpt>
      <trkpt lat="41.5059770" lon="-8.7692970">
        <ele>5.4</ele>
        <time>2021-05-17T08:11:11Z</time>
      </trkpt>
      <trkpt lat="41.5059890" lon="-8.7693090">
        <ele>5.4</ele>
        <time>2021-05-17T08:11:12Z</time>
      </trkpt>
      <trkpt lat="41.5060030" lon="-8.7693170">
        <ele>5.3</ele>
        <time>2021-05-17T08:11:13Z</time>
      </trkpt>
      <trkpt lat="41.5060190" lon="-8.7693170">
        <ele>5.3</ele>
        <time>2021-05-17T08:11:14Z</time>
      </trkpt>
      <trkpt lat="41.5060310" lon="-8.7693270">
        <ele>5.3</ele>
        <time>2021-05-17T08:11:15Z</time>
      </trkpt>
      <trkpt lat="41.5060450" lon="-8.7693250">
        <ele>5.3</ele>
        <time>2021-05-17T08:11:16Z</time>
      </trkpt>
      <trkpt lat="41.5060600" lon="-8.7693310">
        <ele>5.2</ele>
        <time>2021-05-17T08:11:17Z</time>
      </trkpt>
      <trkpt lat="41.5060730" lon="-8.7693310">
        <ele>5.2</ele>
        <time>2021-05-17T08:11:18Z</time>
      </trkpt>
      <trkpt lat="41.5060950" lon="-8.7693400">
        <ele>5.2</ele>
        <time>2021-05-17T08:11:19Z</time>
      </trkpt>
      <trkpt lat="41.5061030" lon="-8.7693420">
        <ele>5.2</ele>
        <time>2021-05-17T08:11:20Z</time>
      </trkpt>
      <trkpt lat="41.5061110" lon="-8.7693430">
        <ele>5.2</ele>
        <time>2021-05-17T08:11:21Z</time>
      </trkpt>
      <trkpt lat="41.5061260" lon="-8.7693450">
        <ele>5.2</ele>
        <time>2021-05-17T08:11:22Z</time>
      </trkpt>
      <trkpt lat="41.5061410" lon="-8.7693480">
        <ele>5.2</ele>
        <time>2021-05-17T08:11:23Z</time>
      </trkpt>
      <trkpt lat="41.5061560" lon="-8.7693460">
        <ele>5.2</ele>
        <time>2021-05-17T08:11:24Z</time>
      </trkpt>
      <trkpt lat="41.5061710" lon="-8.7693510">
        <ele>5.1</ele>
        <time>2021-05-17T08:11:25Z</time>
      </trkpt>
      <trkpt lat="41.5061840" lon="-8.7693510">
        <ele>5.1</ele>
        <time>2021-05-17T08:11:26Z</time>
      </trkpt>
      <trkpt lat="41.5061980" lon="-8.7693480">
        <ele>5.1</ele>
        <time>2021-05-17T08:11:27Z</time>
      </trkpt>
      <trkpt lat="41.5062140" lon="-8.7693490">
        <ele>5.1</ele>
        <time>2021-05-17T08:11:28Z</time>
      </trkpt>
      <trkpt lat="41.5062270" lon="-8.7693510">
        <ele>5.1</ele>
        <time>2021-05-17T08:11:29Z</time>
      </trkpt>
      <trkpt lat="41.5062390" lon="-8.7693490">
        <ele>5.1</ele>
        <time>2021-05-17T08:11:30Z</time>
      </trkpt>
      <trkpt lat="41.5062490" lon="-8.7693500">
        <ele>5.1</ele>
        <time>2021-05-17T08:11:31Z</time>
      </trkpt>
      <trkpt lat="41.5062540" lon="-8.7693500">
        <ele>5.1</ele>
        <time>2021-05-17T08:11:32Z</time>
      </trkpt>
      <trkpt lat="41.5062650" lon="-8.7693360">
        <ele>5.1</ele>
        <time>2021-05-17T08:11:33Z</time>
      </trkpt>
      <trkpt lat="41.5062740" lon="-8.7693390">
        <ele>5.1</ele>
        <time>2021-05-17T08:11:34Z</time>
      </trkpt>
      <trkpt lat="41.5062830" lon="-8.7693420">
        <ele>5.1</ele>
        <time>2021-05-17T08:11:35Z</time>
      </trkpt>
      <trkpt lat="41.5063000" lon="-8.7693330">
        <ele>5.1</ele>
        <time>2021-05-17T08:11:36Z</time>
      </trkpt>
      <trkpt lat="41.5063110" lon="-8.7693330">
        <ele>5.1</ele>
        <time>2021-05-17T08:11:37Z</time>
      </trkpt>
      <trkpt lat="41.5063210" lon="-8.7693320">
        <ele>5.1</ele>
        <time>2021-05-17T08:11:38Z</time>
      </trkpt>
      <trkpt lat="41.5063310" lon="-8.7693310">
        <ele>5.1</ele>
        <time>2021-05-17T08:11:39Z</time>
      </trkpt>
      <trkpt lat="41.5063410" lon="-8.7693250">
        <ele>5.0</ele>
        <time>2021-05-17T08:11:40Z</time>
      </trkpt>
      <trkpt lat="41.5063490" lon="-8.7693120">
        <ele>5.0</ele>
        <time>2021-05-17T08:11:41Z</time>
      </trkpt>
      <trkpt lat="41.5063540" lon="-8.7693090">
        <ele>5.0</ele>
        <time>2021-05-17T08:11:42Z</time>
      </trkpt>
      <trkpt lat="41.5063660" lon="-8.7693090">
        <ele>5.0</ele>
        <time>2021-05-17T08:11:43Z</time>
      </trkpt>
      <trkpt lat="41.5063760" lon="-8.7693040">
        <ele>5.0</ele>
        <time>2021-05-17T08:11:44Z</time>
      </trkpt>
      <trkpt lat="41.5063950" lon="-8.7693020">
        <ele>5.0</ele>
        <time>2021-05-17T08:11:45Z</time>
      </trkpt>
      <trkpt lat="41.5064050" lon="-8.7693000">
        <ele>5.0</ele>
        <time>2021-05-17T08:11:46Z</time>
      </trkpt>
      <trkpt lat="41.5064140" lon="-8.7692980">
        <ele>5.0</ele>
        <time>2021-05-17T08:11:47Z</time>
      </trkpt>
      <trkpt lat="41.5064260" lon="-8.7693020">
        <ele>5.0</ele>
        <time>2021-05-17T08:11:48Z</time>
      </trkpt>
      <trkpt lat="41.5064370" lon="-8.7692990">
        <ele>5.0</ele>
        <time>2021-05-17T08:11:49Z</time>
      </trkpt>
      <trkpt lat="41.5064460" lon="-8.7692950">
        <ele>4.9</ele>
        <time>2021-05-17T08:11:50Z</time>
      </trkpt>
      <trkpt lat="41.5064610" lon="-8.7692940">
        <ele>4.9</ele>
        <time>2021-05-17T08:11:51Z</time>
      </trkpt>
      <trkpt lat="41.5064740" lon="-8.7692890">
        <ele>4.9</ele>
        <time>2021-05-17T08:11:52Z</time>
      </trkpt>
      <trkpt lat="41.5064940" lon="-8.7692950">
        <ele>4.9</ele>
        <time>2021-05-17T08:11:53Z</time>
      </trkpt>
      <trkpt lat="41.5065020" lon="-8.7692990">
        <ele>4.9</ele>
        <time>2021-05-17T08:11:54Z</time>
      </trkpt>
      <trkpt lat="41.5065110" lon="-8.7693030">
        <ele>4.9</ele>
        <time>2021-05-17T08:11:55Z</time>
      </trkpt>
      <trkpt lat="41.5065260" lon="-8.7692940">
        <ele>4.9</ele>
        <time>2021-05-17T08:11:56Z</time>
      </trkpt>
      <trkpt lat="41.5065390" lon="-8.7692910">
        <ele>4.9</ele>
        <time>2021-05-17T08:11:57Z</time>
      </trkpt>
      <trkpt lat="41.5065590" lon="-8.7692930">
        <ele>4.8</ele>
        <time>2021-05-17T08:11:58Z</time>
      </trkpt>
      <trkpt lat="41.5065680" lon="-8.7692910">
        <ele>4.8</ele>
        <time>2021-05-17T08:11:59Z</time>
      </trkpt>
      <trkpt lat="41.5065760" lon="-8.7692900">
        <ele>4.8</ele>
        <time>2021-05-17T08:12:00Z</time>
      </trkpt>
      <trkpt lat="41.5065890" lon="-8.7692960">
        <ele>4.8</ele>
        <time>2021-05-17T08:12:01Z</time>
      </trkpt>
      <trkpt lat="41.5066040" lon="-8.7693000">
        <ele>4.8</ele>
        <time>2021-05-17T08:12:02Z</time>
      </trkpt>
      <trkpt lat="41.5066140" lon="-8.7692910">
        <ele>4.8</ele>
        <time>2021-05-17T08:12:03Z</time>
      </trkpt>
      <trkpt lat="41.5066230" lon="-8.7692910">
        <ele>4.8</ele>
        <time>2021-05-17T08:12:04Z</time>
      </trkpt>
      <trkpt lat="41.5066370" lon="-8.7692920">
        <ele>4.8</ele>
        <time>2021-05-17T08:12:05Z</time>
      </trkpt>
      <trkpt lat="41.5066500" lon="-8.7692940">
        <ele>4.8</ele>
        <time>2021-05-17T08:12:06Z</time>
      </trkpt>
      <trkpt lat="41.5066640" lon="-8.7692940">
        <ele>4.8</ele>
        <time>2021-05-17T08:12:07Z</time>
      </trkpt>
      <trkpt lat="41.5066800" lon="-8.7692980">
        <ele>4.8</ele>
        <time>2021-05-17T08:12:08Z</time>
      </trkpt>
      <trkpt lat="41.5066960" lon="-8.7692950">
        <ele>4.8</ele>
        <time>2021-05-17T08:12:09Z</time>
      </trkpt>
      <trkpt lat="41.5067190" lon="-8.7692960">
        <ele>4.8</ele>
        <time>2021-05-17T08:12:10Z</time>
      </trkpt>
      <trkpt lat="41.5067270" lon="-8.7692980">
        <ele>4.7</ele>
        <time>2021-05-17T08:12:11Z</time>
      </trkpt>
      <trkpt lat="41.5067360" lon="-8.7692990">
        <ele>4.7</ele>
        <time>2021-05-17T08:12:12Z</time>
      </trkpt>
      <trkpt lat="41.5067550" lon="-8.7693000">
        <ele>4.7</ele>
        <time>2021-05-17T08:12:13Z</time>
      </trkpt>
      <trkpt lat="41.5067620" lon="-8.7693060">
        <ele>4.7</ele>
        <time>2021-05-17T08:12:14Z</time>
      </trkpt>
      <trkpt lat="41.5067880" lon="-8.7693130">
        <ele>4.7</ele>
        <time>2021-05-17T08:12:15Z</time>
      </trkpt>
      <trkpt lat="41.5067970" lon="-8.7693160">
        <ele>4.7</ele>
        <time>2021-05-17T08:12:16Z</time>
      </trkpt>
      <trkpt lat="41.5068070" lon="-8.7693200">
        <ele>4.7</ele>
        <time>2021-05-17T08:12:17Z</time>
      </trkpt>
      <trkpt lat="41.5068130" lon="-8.7693210">
        <ele>4.7</ele>
        <time>2021-05-17T08:12:18Z</time>
      </trkpt>
      <trkpt lat="41.5068270" lon="-8.7693220">
        <ele>4.7</ele>
        <time>2021-05-17T08:12:19Z</time>
      </trkpt>
      <trkpt lat="41.5068390" lon="-8.7693230">
        <ele>4.7</ele>
        <time>2021-05-17T08:12:20Z</time>
      </trkpt>
      <trkpt lat="41.5068580" lon="-8.7693310">
        <ele>4.7</ele>
        <time>2021-05-17T08:12:21Z</time>
      </trkpt>
      <trkpt lat="41.5068700" lon="-8.7693350">
        <ele>4.7</ele>
        <time>2021-05-17T08:12:22Z</time>
      </trkpt>
      <trkpt lat="41.5068810" lon="-8.7693400">
        <ele>4.7</ele>
        <time>2021-05-17T08:12:23Z</time>
      </trkpt>
      <trkpt lat="41.5068920" lon="-8.7693410">
        <ele>4.7</ele>
        <time>2021-05-17T08:12:24Z</time>
      </trkpt>
      <trkpt lat="41.5069130" lon="-8.7693550">
        <ele>4.7</ele>
        <time>2021-05-17T08:12:25Z</time>
      </trkpt>
      <trkpt lat="41.5069400" lon="-8.7693580">
        <ele>4.7</ele>
        <time>2021-05-17T08:12:26Z</time>
      </trkpt>
      <trkpt lat="41.5069500" lon="-8.7693570">
        <ele>4.7</ele>
        <time>2021-05-17T08:12:27Z</time>
      </trkpt>
      <trkpt lat="41.5069680" lon="-8.7693580">
        <ele>4.7</ele>
        <time>2021-05-17T08:12:28Z</time>
      </trkpt>
      <trkpt lat="41.5069860" lon="-8.7693590">
        <ele>4.7</ele>
        <time>2021-05-17T08:12:29Z</time>
      </trkpt>
      <trkpt lat="41.5070010" lon="-8.7693580">
        <ele>4.7</ele>
        <time>2021-05-17T08:12:30Z</time>
      </trkpt>
      <trkpt lat="41.5070150" lon="-8.7693590">
        <ele>4.7</ele>
        <time>2021-05-17T08:12:31Z</time>
      </trkpt>
      <trkpt lat="41.5070330" lon="-8.7693630">
        <ele>4.7</ele>
        <time>2021-05-17T08:12:32Z</time>
      </trkpt>
      <trkpt lat="41.5070490" lon="-8.7693680">
        <ele>4.7</ele>
        <time>2021-05-17T08:12:33Z</time>
      </trkpt>
      <trkpt lat="41.5070640" lon="-8.7693680">
        <ele>4.7</ele>
        <time>2021-05-17T08:12:34Z</time>
      </trkpt>
      <trkpt lat="41.5070790" lon="-8.7693790">
        <ele>4.7</ele>
        <time>2021-05-17T08:12:35Z</time>
      </trkpt>
      <trkpt lat="41.5070930" lon="-8.7693850">
        <ele>4.7</ele>
        <time>2021-05-17T08:12:36Z</time>
      </trkpt>
      <trkpt lat="41.5071070" lon="-8.7693840">
        <ele>4.7</ele>
        <time>2021-05-17T08:12:37Z</time>
      </trkpt>
      <trkpt lat="41.5071220" lon="-8.7693840">
        <ele>4.7</ele>
        <time>2021-05-17T08:12:38Z</time>
      </trkpt>
      <trkpt lat="41.5071370" lon="-8.7693870">
        <ele>4.7</ele>
        <time>2021-05-17T08:12:39Z</time>
      </trkpt>
      <trkpt lat="41.5071510" lon="-8.7693920">
        <ele>4.7</ele>
        <time>2021-05-17T08:12:40Z</time>
      </trkpt>
      <trkpt lat="41.5071670" lon="-8.7693930">
        <ele>4.7</ele>
        <time>2021-05-17T08:12:41Z</time>
      </trkpt>
      <trkpt lat="41.5071790" lon="-8.7693990">
        <ele>4.7</ele>
        <time>2021-05-17T08:12:42Z</time>
      </trkpt>
      <trkpt lat="41.5071930" lon="-8.7694050">
        <ele>4.7</ele>
        <time>2021-05-17T08:12:43Z</time>
      </trkpt>
      <trkpt lat="41.5072080" lon="-8.7694110">
        <ele>4.7</ele>
        <time>2021-05-17T08:12:44Z</time>
      </trkpt>
      <trkpt lat="41.5072220" lon="-8.7694130">
        <ele>4.7</ele>
        <time>2021-05-17T08:12:45Z</time>
      </trkpt>
      <trkpt lat="41.5072350" lon="-8.7694200">
        <ele>4.7</ele>
        <time>2021-05-17T08:12:46Z</time>
      </trkpt>
      <trkpt lat="41.5072500" lon="-8.7694240">
        <ele>4.7</ele>
        <time>2021-05-17T08:12:47Z</time>
      </trkpt>
      <trkpt lat="41.5072640" lon="-8.7694350">
        <ele>4.7</ele>
        <time>2021-05-17T08:12:48Z</time>
      </trkpt>
      <trkpt lat="41.5072770" lon="-8.7694310">
        <ele>4.7</ele>
        <time>2021-05-17T08:12:49Z</time>
      </trkpt>
      <trkpt lat="41.5072920" lon="-8.7694350">
        <ele>4.7</ele>
        <time>2021-05-17T08:12:50Z</time>
      </trkpt>
      <trkpt lat="41.5073090" lon="-8.7694330">
        <ele>4.7</ele>
        <time>2021-05-17T08:12:51Z</time>
      </trkpt>
      <trkpt lat="41.5073240" lon="-8.7694350">
        <ele>4.7</ele>
        <time>2021-05-17T08:12:52Z</time>
      </trkpt>
      <trkpt lat="41.5073390" lon="-8.7694370">
        <ele>4.7</ele>
        <time>2021-05-17T08:12:53Z</time>
      </trkpt>
      <trkpt lat="41.5073510" lon="-8.7694540">
        <ele>4.8</ele>
        <time>2021-05-17T08:12:54Z</time>
      </trkpt>
      <trkpt lat="41.5073660" lon="-8.7694530">
        <ele>4.8</ele>
        <time>2021-05-17T08:12:55Z</time>
      </trkpt>
      <trkpt lat="41.5073890" lon="-8.7694520">
        <ele>4.7</ele>
        <time>2021-05-17T08:12:56Z</time>
      </trkpt>
      <trkpt lat="41.5073970" lon="-8.7694520">
        <ele>4.7</ele>
        <time>2021-05-17T08:12:57Z</time>
      </trkpt>
      <trkpt lat="41.5074060" lon="-8.7694510">
        <ele>4.7</ele>
        <time>2021-05-17T08:12:58Z</time>
      </trkpt>
      <trkpt lat="41.5074200" lon="-8.7694390">
        <ele>4.7</ele>
        <time>2021-05-17T08:12:59Z</time>
      </trkpt>
      <trkpt lat="41.5074270" lon="-8.7694180">
        <ele>4.7</ele>
        <time>2021-05-17T08:13:00Z</time>
      </trkpt>
      <trkpt lat="41.5074320" lon="-8.7693980">
        <ele>4.6</ele>
        <time>2021-05-17T08:13:01Z</time>
      </trkpt>
      <trkpt lat="41.5074290" lon="-8.7693720">
        <ele>4.6</ele>
        <time>2021-05-17T08:13:02Z</time>
      </trkpt>
      <trkpt lat="41.5074340" lon="-8.7693540">
        <ele>4.6</ele>
        <time>2021-05-17T08:13:03Z</time>
      </trkpt>
      <trkpt lat="41.5074460" lon="-8.7693380">
        <ele>4.6</ele>
        <time>2021-05-17T08:13:04Z</time>
      </trkpt>
      <trkpt lat="41.5074530" lon="-8.7693110">
        <ele>4.5</ele>
        <time>2021-05-17T08:13:05Z</time>
      </trkpt>
      <trkpt lat="41.5074560" lon="-8.7692990">
        <ele>4.5</ele>
        <time>2021-05-17T08:13:06Z</time>
      </trkpt>
      <trkpt lat="41.5074590" lon="-8.7692860">
        <ele>4.5</ele>
        <time>2021-05-17T08:13:07Z</time>
      </trkpt>
      <trkpt lat="41.5074610" lon="-8.7692700">
        <ele>4.5</ele>
        <time>2021-05-17T08:13:08Z</time>
      </trkpt>
      <trkpt lat="41.5074600" lon="-8.7692540">
        <ele>4.5</ele>
        <time>2021-05-17T08:13:09Z</time>
      </trkpt>
      <trkpt lat="41.5074660" lon="-8.7692430">
        <ele>4.5</ele>
        <time>2021-05-17T08:13:10Z</time>
      </trkpt>
      <trkpt lat="41.5074660" lon="-8.7692160">
        <ele>4.4</ele>
        <time>2021-05-17T08:13:11Z</time>
      </trkpt>
      <trkpt lat="41.5074660" lon="-8.7692030">
        <ele>4.4</ele>
        <time>2021-05-17T08:13:12Z</time>
      </trkpt>
      <trkpt lat="41.5074650" lon="-8.7691910">
        <ele>4.4</ele>
        <time>2021-05-17T08:13:13Z</time>
      </trkpt>
      <trkpt lat="41.5074720" lon="-8.7691650">
        <ele>4.4</ele>
        <time>2021-05-17T08:13:14Z</time>
      </trkpt>
      <trkpt lat="41.5074760" lon="-8.7691460">
        <ele>4.4</ele>
        <time>2021-05-17T08:13:15Z</time>
      </trkpt>
      <trkpt lat="41.5074790" lon="-8.7691260">
        <ele>4.4</ele>
        <time>2021-05-17T08:13:16Z</time>
      </trkpt>
      <trkpt lat="41.5074840" lon="-8.7691060">
        <ele>4.3</ele>
        <time>2021-05-17T08:13:17Z</time>
      </trkpt>
      <trkpt lat="41.5074840" lon="-8.7690770">
        <ele>4.3</ele>
        <time>2021-05-17T08:13:18Z</time>
      </trkpt>
      <trkpt lat="41.5074830" lon="-8.7690650">
        <ele>4.3</ele>
        <time>2021-05-17T08:13:19Z</time>
      </trkpt>
      <trkpt lat="41.5074810" lon="-8.7690520">
        <ele>4.3</ele>
        <time>2021-05-17T08:13:20Z</time>
      </trkpt>
      <trkpt lat="41.5074840" lon="-8.7690310">
        <ele>4.3</ele>
        <time>2021-05-17T08:13:21Z</time>
      </trkpt>
      <trkpt lat="41.5074920" lon="-8.7690100">
        <ele>4.3</ele>
        <time>2021-05-17T08:13:22Z</time>
      </trkpt>
      <trkpt lat="41.5074990" lon="-8.7689900">
        <ele>4.3</ele>
        <time>2021-05-17T08:13:23Z</time>
      </trkpt>
      <trkpt lat="41.5074930" lon="-8.7689710">
        <ele>4.2</ele>
        <time>2021-05-17T08:13:24Z</time>
      </trkpt>
      <trkpt lat="41.5074950" lon="-8.7689540">
        <ele>4.2</ele>
        <time>2021-05-17T08:13:25Z</time>
      </trkpt>
      <trkpt lat="41.5074890" lon="-8.7689340">
        <ele>4.2</ele>
        <time>2021-05-17T08:13:26Z</time>
      </trkpt>
      <trkpt lat="41.5074890" lon="-8.7689170">
        <ele>4.2</ele>
        <time>2021-05-17T08:13:27Z</time>
      </trkpt>
      <trkpt lat="41.5074960" lon="-8.7689040">
        <ele>4.2</ele>
        <time>2021-05-17T08:13:28Z</time>
      </trkpt>
      <trkpt lat="41.5074980" lon="-8.7688910">
        <ele>4.2</ele>
        <time>2021-05-17T08:13:29Z</time>
      </trkpt>
      <trkpt lat="41.5074920" lon="-8.7688740">
        <ele>4.2</ele>
        <time>2021-05-17T08:13:30Z</time>
      </trkpt>
      <trkpt lat="41.5074930" lon="-8.7688520">
        <ele>4.2</ele>
        <time>2021-05-17T08:13:31Z</time>
      </trkpt>
      <trkpt lat="41.5074940" lon="-8.7688170">
        <ele>4.2</ele>
        <time>2021-05-17T08:13:32Z</time>
      </trkpt>
      <trkpt lat="41.5074910" lon="-8.7688060">
        <ele>4.2</ele>
        <time>2021-05-17T08:13:33Z</time>
      </trkpt>
      <trkpt lat="41.5074890" lon="-8.7687950">
        <ele>4.2</ele>
        <time>2021-05-17T08:13:34Z</time>
      </trkpt>
      <trkpt lat="41.5074870" lon="-8.7687680">
        <ele>4.1</ele>
        <time>2021-05-17T08:13:35Z</time>
      </trkpt>
      <trkpt lat="41.5074820" lon="-8.7687570">
        <ele>4.1</ele>
        <time>2021-05-17T08:13:36Z</time>
      </trkpt>
      <trkpt lat="41.5074720" lon="-8.7687330">
        <ele>4.1</ele>
        <time>2021-05-17T08:13:37Z</time>
      </trkpt>
      <trkpt lat="41.5074700" lon="-8.7687220">
        <ele>4.1</ele>
        <time>2021-05-17T08:13:38Z</time>
      </trkpt>
      <trkpt lat="41.5074670" lon="-8.7687100">
        <ele>4.1</ele>
        <time>2021-05-17T08:13:39Z</time>
      </trkpt>
      <trkpt lat="41.5074640" lon="-8.7686830">
        <ele>4.1</ele>
        <time>2021-05-17T08:13:40Z</time>
      </trkpt>
      <trkpt lat="41.5074630" lon="-8.7686720">
        <ele>4.1</ele>
        <time>2021-05-17T08:13:41Z</time>
      </trkpt>
      <trkpt lat="41.5074610" lon="-8.7686610">
        <ele>4.1</ele>
        <time>2021-05-17T08:13:42Z</time>
      </trkpt>
      <trkpt lat="41.5074570" lon="-8.7686390">
        <ele>4.1</ele>
        <time>2021-05-17T08:13:43Z</time>
      </trkpt>
      <trkpt lat="41.5074560" lon="-8.7686150">
        <ele>4.1</ele>
        <time>2021-05-17T08:13:44Z</time>
      </trkpt>
      <trkpt lat="41.5074560" lon="-8.7685970">
        <ele>4.1</ele>
        <time>2021-05-17T08:13:45Z</time>
      </trkpt>
      <trkpt lat="41.5074500" lon="-8.7685760">
        <ele>4.0</ele>
        <time>2021-05-17T08:13:46Z</time>
      </trkpt>
      <trkpt lat="41.5074460" lon="-8.7685580">
        <ele>4.0</ele>
        <time>2021-05-17T08:13:47Z</time>
      </trkpt>
      <trkpt lat="41.5074420" lon="-8.7685420">
        <ele>4.0</ele>
        <time>2021-05-17T08:13:48Z</time>
      </trkpt>
      <trkpt lat="41.5074400" lon="-8.7685240">
        <ele>4.0</ele>
        <time>2021-05-17T08:13:49Z</time>
      </trkpt>
      <trkpt lat="41.5074410" lon="-8.7685030">
        <ele>4.0</ele>
        <time>2021-05-17T08:13:50Z</time>
      </trkpt>
      <trkpt lat="41.5074400" lon="-8.7684770">
        <ele>4.0</ele>
        <time>2021-05-17T08:13:51Z</time>
      </trkpt>
      <trkpt lat="41.5074370" lon="-8.7684640">
        <ele>4.0</ele>
        <time>2021-05-17T08:13:52Z</time>
      </trkpt>
      <trkpt lat="41.5074350" lon="-8.7684510">
        <ele>4.0</ele>
        <time>2021-05-17T08:13:53Z</time>
      </trkpt>
      <trkpt lat="41.5074290" lon="-8.7684300">
        <ele>4.0</ele>
        <time>2021-05-17T08:13:54Z</time>
      </trkpt>
      <trkpt lat="41.5074280" lon="-8.7684150">
        <ele>4.0</ele>
        <time>2021-05-17T08:13:55Z</time>
      </trkpt>
      <trkpt lat="41.5074270" lon="-8.7683980">
        <ele>3.9</ele>
        <time>2021-05-17T08:13:56Z</time>
      </trkpt>
      <trkpt lat="41.5074230" lon="-8.7683830">
        <ele>3.9</ele>
        <time>2021-05-17T08:13:57Z</time>
      </trkpt>
      <trkpt lat="41.5074280" lon="-8.7683700">
        <ele>3.9</ele>
        <time>2021-05-17T08:13:58Z</time>
      </trkpt>
      <trkpt lat="41.5074280" lon="-8.7683400">
        <ele>3.9</ele>
        <time>2021-05-17T08:13:59Z</time>
      </trkpt>
      <trkpt lat="41.5074270" lon="-8.7683290">
        <ele>3.9</ele>
        <time>2021-05-17T08:14:00Z</time>
      </trkpt>
      <trkpt lat="41.5074270" lon="-8.7683180">
        <ele>3.9</ele>
        <time>2021-05-17T08:14:01Z</time>
      </trkpt>
      <trkpt lat="41.5074290" lon="-8.7683100">
        <ele>3.9</ele>
        <time>2021-05-17T08:14:02Z</time>
      </trkpt>
      <trkpt lat="41.5074320" lon="-8.7682950">
        <ele>3.9</ele>
        <time>2021-05-17T08:14:03Z</time>
      </trkpt>
      <trkpt lat="41.5074330" lon="-8.7682830">
        <ele>3.9</ele>
        <time>2021-05-17T08:14:04Z</time>
      </trkpt>
      <trkpt lat="41.5074340" lon="-8.7682610">
        <ele>3.9</ele>
        <time>2021-05-17T08:14:05Z</time>
      </trkpt>
      <trkpt lat="41.5074360" lon="-8.7682460">
        <ele>3.9</ele>
        <time>2021-05-17T08:14:06Z</time>
      </trkpt>
      <trkpt lat="41.5074380" lon="-8.7682170">
        <ele>3.9</ele>
        <time>2021-05-17T08:14:07Z</time>
      </trkpt>
      <trkpt lat="41.5074410" lon="-8.7682050">
        <ele>3.9</ele>
        <time>2021-05-17T08:14:08Z</time>
      </trkpt>
      <trkpt lat="41.5074440" lon="-8.7681940">
        <ele>3.8</ele>
        <time>2021-05-17T08:14:09Z</time>
      </trkpt>
      <trkpt lat="41.5074380" lon="-8.7681760">
        <ele>3.8</ele>
        <time>2021-05-17T08:14:10Z</time>
      </trkpt>
      <trkpt lat="41.5074360" lon="-8.7681540">
        <ele>3.8</ele>
        <time>2021-05-17T08:14:11Z</time>
      </trkpt>
      <trkpt lat="41.5074410" lon="-8.7681260">
        <ele>3.8</ele>
        <time>2021-05-17T08:14:12Z</time>
      </trkpt>
      <trkpt lat="41.5074420" lon="-8.7681150">
        <ele>3.8</ele>
        <time>2021-05-17T08:14:13Z</time>
      </trkpt>
      <trkpt lat="41.5074420" lon="-8.7681040">
        <ele>3.8</ele>
        <time>2021-05-17T08:14:14Z</time>
      </trkpt>
      <trkpt lat="41.5074450" lon="-8.7680750">
        <ele>3.8</ele>
        <time>2021-05-17T08:14:15Z</time>
      </trkpt>
      <trkpt lat="41.5074450" lon="-8.7680630">
        <ele>3.8</ele>
        <time>2021-05-17T08:14:16Z</time>
      </trkpt>
      <trkpt lat="41.5074450" lon="-8.7680500">
        <ele>3.8</ele>
        <time>2021-05-17T08:14:17Z</time>
      </trkpt>
      <trkpt lat="41.5074500" lon="-8.7680280">
        <ele>3.8</ele>
        <time>2021-05-17T08:14:18Z</time>
      </trkpt>
      <trkpt lat="41.5074530" lon="-8.7680080">
        <ele>3.8</ele>
        <time>2021-05-17T08:14:19Z</time>
      </trkpt>
      <trkpt lat="41.5074570" lon="-8.7679890">
        <ele>3.8</ele>
        <time>2021-05-17T08:14:20Z</time>
      </trkpt>
      <trkpt lat="41.5074530" lon="-8.7679710">
        <ele>3.8</ele>
        <time>2021-05-17T08:14:21Z</time>
      </trkpt>
      <trkpt lat="41.5074540" lon="-8.7679470">
        <ele>3.8</ele>
        <time>2021-05-17T08:14:22Z</time>
      </trkpt>
      <trkpt lat="41.5074540" lon="-8.7679330">
        <ele>3.8</ele>
        <time>2021-05-17T08:14:23Z</time>
      </trkpt>
      <trkpt lat="41.5074540" lon="-8.7679190">
        <ele>3.7</ele>
        <time>2021-05-17T08:14:24Z</time>
      </trkpt>
      <trkpt lat="41.5074590" lon="-8.7678980">
        <ele>3.7</ele>
        <time>2021-05-17T08:14:25Z</time>
      </trkpt>
      <trkpt lat="41.5074640" lon="-8.7678850">
        <ele>3.7</ele>
        <time>2021-05-17T08:14:26Z</time>
      </trkpt>
      <trkpt lat="41.5074680" lon="-8.7678720">
        <ele>3.7</ele>
        <time>2021-05-17T08:14:27Z</time>
      </trkpt>
      <trkpt lat="41.5074700" lon="-8.7678330">
        <ele>3.7</ele>
        <time>2021-05-17T08:14:28Z</time>
      </trkpt>
      <trkpt lat="41.5074730" lon="-8.7678220">
        <ele>3.7</ele>
        <time>2021-05-17T08:14:29Z</time>
      </trkpt>
      <trkpt lat="41.5074750" lon="-8.7678010">
        <ele>3.7</ele>
        <time>2021-05-17T08:14:30Z</time>
      </trkpt>
      <trkpt lat="41.5074760" lon="-8.7677740">
        <ele>3.7</ele>
        <time>2021-05-17T08:14:31Z</time>
      </trkpt>
      <trkpt lat="41.5074820" lon="-8.7677540">
        <ele>3.7</ele>
        <time>2021-05-17T08:14:32Z</time>
      </trkpt>
      <trkpt lat="41.5074860" lon="-8.7677340">
        <ele>3.7</ele>
        <time>2021-05-17T08:14:33Z</time>
      </trkpt>
      <trkpt lat="41.5074820" lon="-8.7677040">
        <ele>3.7</ele>
        <time>2021-05-17T08:14:34Z</time>
      </trkpt>
      <trkpt lat="41.5074800" lon="-8.7676920">
        <ele>3.7</ele>
        <time>2021-05-17T08:14:35Z</time>
      </trkpt>
      <trkpt lat="41.5074790" lon="-8.7676790">
        <ele>3.7</ele>
        <time>2021-05-17T08:14:36Z</time>
      </trkpt>
      <trkpt lat="41.5074720" lon="-8.7676570">
        <ele>3.7</ele>
        <time>2021-05-17T08:14:37Z</time>
      </trkpt>
      <trkpt lat="41.5074660" lon="-8.7676380">
        <ele>3.7</ele>
        <time>2021-05-17T08:14:38Z</time>
      </trkpt>
      <trkpt lat="41.5074600" lon="-8.7676170">
        <ele>3.7</ele>
        <time>2021-05-17T08:14:39Z</time>
      </trkpt>
      <trkpt lat="41.5074550" lon="-8.7676040">
        <ele>3.7</ele>
        <time>2021-05-17T08:14:40Z</time>
      </trkpt>
      <trkpt lat="41.5074500" lon="-8.7675800">
        <ele>3.6</ele>
        <time>2021-05-17T08:14:41Z</time>
      </trkpt>
      <trkpt lat="41.5074460" lon="-8.7675700">
        <ele>3.6</ele>
        <time>2021-05-17T08:14:42Z</time>
      </trkpt>
      <trkpt lat="41.5074420" lon="-8.7675590">
        <ele>3.6</ele>
        <time>2021-05-17T08:14:43Z</time>
      </trkpt>
      <trkpt lat="41.5074320" lon="-8.7675360">
        <ele>3.6</ele>
        <time>2021-05-17T08:14:44Z</time>
      </trkpt>
      <trkpt lat="41.5074250" lon="-8.7675200">
        <ele>3.6</ele>
        <time>2021-05-17T08:14:45Z</time>
      </trkpt>
      <trkpt lat="41.5074230" lon="-8.7674960">
        <ele>3.6</ele>
        <time>2021-05-17T08:14:46Z</time>
      </trkpt>
      <trkpt lat="41.5074130" lon="-8.7674810">
        <ele>3.6</ele>
        <time>2021-05-17T08:14:47Z</time>
      </trkpt>
      <trkpt lat="41.5074000" lon="-8.7674690">
        <ele>3.6</ele>
        <time>2021-05-17T08:14:48Z</time>
      </trkpt>
      <trkpt lat="41.5073930" lon="-8.7674560">
        <ele>3.6</ele>
        <time>2021-05-17T08:14:49Z</time>
      </trkpt>
      <trkpt lat="41.5073940" lon="-8.7674500">
        <ele>3.6</ele>
        <time>2021-05-17T08:14:50Z</time>
      </trkpt>
      <trkpt lat="41.5073830" lon="-8.7674380">
        <ele>3.6</ele>
        <time>2021-05-17T08:14:51Z</time>
      </trkpt>
      <trkpt lat="41.5073790" lon="-8.7674210">
        <ele>3.5</ele>
        <time>2021-05-17T08:14:52Z</time>
      </trkpt>
      <trkpt lat="41.5073590" lon="-8.7673890">
        <ele>3.5</ele>
        <time>2021-05-17T08:14:53Z</time>
      </trkpt>
      <trkpt lat="41.5073530" lon="-8.7673840">
        <ele>3.5</ele>
        <time>2021-05-17T08:14:54Z</time>
      </trkpt>
      <trkpt lat="41.5073330" lon="-8.7673570">
        <ele>3.5</ele>
        <time>2021-05-17T08:14:55Z</time>
      </trkpt>
      <trkpt lat="41.5073250" lon="-8.7673460">
        <ele>3.5</ele>
        <time>2021-05-17T08:14:56Z</time>
      </trkpt>
      <trkpt lat="41.5073190" lon="-8.7673290">
        <ele>3.5</ele>
        <time>2021-05-17T08:14:57Z</time>
      </trkpt>
      <trkpt lat="41.5073120" lon="-8.7673080">
        <ele>3.5</ele>
        <time>2021-05-17T08:14:58Z</time>
      </trkpt>
      <trkpt lat="41.5073090" lon="-8.7672910">
        <ele>3.5</ele>
        <time>2021-05-17T08:14:59Z</time>
      </trkpt>
      <trkpt lat="41.5073060" lon="-8.7672690">
        <ele>3.5</ele>
        <time>2021-05-17T08:15:00Z</time>
      </trkpt>
      <trkpt lat="41.5073110" lon="-8.7672410">
        <ele>3.5</ele>
        <time>2021-05-17T08:15:01Z</time>
      </trkpt>
      <trkpt lat="41.5073100" lon="-8.7672320">
        <ele>3.5</ele>
        <time>2021-05-17T08:15:02Z</time>
      </trkpt>
      <trkpt lat="41.5073090" lon="-8.7672110">
        <ele>3.5</ele>
        <time>2021-05-17T08:15:03Z</time>
      </trkpt>
      <trkpt lat="41.5073050" lon="-8.7671900">
        <ele>3.5</ele>
        <time>2021-05-17T08:15:04Z</time>
      </trkpt>
      <trkpt lat="41.5073030" lon="-8.7671720">
        <ele>3.4</ele>
        <time>2021-05-17T08:15:05Z</time>
      </trkpt>
      <trkpt lat="41.5073040" lon="-8.7671510">
        <ele>3.4</ele>
        <time>2021-05-17T08:15:06Z</time>
      </trkpt>
      <trkpt lat="41.5073040" lon="-8.7671280">
        <ele>3.4</ele>
        <time>2021-05-17T08:15:07Z</time>
      </trkpt>
      <trkpt lat="41.5073020" lon="-8.7671130">
        <ele>3.4</ele>
        <time>2021-05-17T08:15:08Z</time>
      </trkpt>
      <trkpt lat="41.5073000" lon="-8.7670990">
        <ele>3.4</ele>
        <time>2021-05-17T08:15:09Z</time>
      </trkpt>
      <trkpt lat="41.5072990" lon="-8.7670800">
        <ele>3.4</ele>
        <time>2021-05-17T08:15:10Z</time>
      </trkpt>
      <trkpt lat="41.5072950" lon="-8.7670620">
        <ele>3.4</ele>
        <time>2021-05-17T08:15:11Z</time>
      </trkpt>
      <trkpt lat="41.5072960" lon="-8.7670300">
        <ele>3.4</ele>
        <time>2021-05-17T08:15:12Z</time>
      </trkpt>
      <trkpt lat="41.5072960" lon="-8.7670190">
        <ele>3.4</ele>
        <time>2021-05-17T08:15:13Z</time>
      </trkpt>
      <trkpt lat="41.5072950" lon="-8.7670070">
        <ele>3.4</ele>
        <time>2021-05-17T08:15:14Z</time>
      </trkpt>
      <trkpt lat="41.5072960" lon="-8.7669970">
        <ele>3.4</ele>
        <time>2021-05-17T08:15:15Z</time>
      </trkpt>
      <trkpt lat="41.5072930" lon="-8.7669770">
        <ele>3.4</ele>
        <time>2021-05-17T08:15:16Z</time>
      </trkpt>
      <trkpt lat="41.5072940" lon="-8.7669600">
        <ele>3.4</ele>
        <time>2021-05-17T08:15:17Z</time>
      </trkpt>
      <trkpt lat="41.5073000" lon="-8.7669410">
        <ele>3.4</ele>
        <time>2021-05-17T08:15:18Z</time>
      </trkpt>
      <trkpt lat="41.5072950" lon="-8.7669220">
        <ele>3.4</ele>
        <time>2021-05-17T08:15:19Z</time>
      </trkpt>
      <trkpt lat="41.5073030" lon="-8.7669090">
        <ele>3.4</ele>
        <time>2021-05-17T08:15:20Z</time>
      </trkpt>
      <trkpt lat="41.5073070" lon="-8.7668890">
        <ele>3.4</ele>
        <time>2021-05-17T08:15:21Z</time>
      </trkpt>
      <trkpt lat="41.5073180" lon="-8.7668630">
        <ele>3.4</ele>
        <time>2021-05-17T08:15:22Z</time>
      </trkpt>
      <trkpt lat="41.5073230" lon="-8.7668540">
        <ele>3.4</ele>
        <time>2021-05-17T08:15:23Z</time>
      </trkpt>
      <trkpt lat="41.5073280" lon="-8.7668440">
        <ele>3.4</ele>
        <time>2021-05-17T08:15:24Z</time>
      </trkpt>
      <trkpt lat="41.5073360" lon="-8.7668220">
        <ele>3.4</ele>
        <time>2021-05-17T08:15:25Z</time>
      </trkpt>
      <trkpt lat="41.5073390" lon="-8.7668100">
        <ele>3.4</ele>
        <time>2021-05-17T08:15:26Z</time>
      </trkpt>
      <trkpt lat="41.5073420" lon="-8.7667980">
        <ele>3.4</ele>
        <time>2021-05-17T08:15:27Z</time>
      </trkpt>
      <trkpt lat="41.5073460" lon="-8.7667680">
        <ele>3.4</ele>
        <time>2021-05-17T08:15:28Z</time>
      </trkpt>
      <trkpt lat="41.5073450" lon="-8.7667550">
        <ele>3.4</ele>
        <time>2021-05-17T08:15:29Z</time>
      </trkpt>
      <trkpt lat="41.5073450" lon="-8.7667410">
        <ele>3.4</ele>
        <time>2021-05-17T08:15:30Z</time>
      </trkpt>
      <trkpt lat="41.5073520" lon="-8.7667270">
        <ele>3.5</ele>
        <time>2021-05-17T08:15:31Z</time>
      </trkpt>
      <trkpt lat="41.5073650" lon="-8.7667110">
        <ele>3.5</ele>
        <time>2021-05-17T08:15:32Z</time>
      </trkpt>
      <trkpt lat="41.5073700" lon="-8.7666820">
        <ele>3.5</ele>
        <time>2021-05-17T08:15:33Z</time>
      </trkpt>
      <trkpt lat="41.5073700" lon="-8.7666670">
        <ele>3.5</ele>
        <time>2021-05-17T08:15:34Z</time>
      </trkpt>
      <trkpt lat="41.5073710" lon="-8.7666520">
        <ele>3.5</ele>
        <time>2021-05-17T08:15:35Z</time>
      </trkpt>
      <trkpt lat="41.5073730" lon="-8.7666350">
        <ele>3.5</ele>
        <time>2021-05-17T08:15:36Z</time>
      </trkpt>
      <trkpt lat="41.5073810" lon="-8.7666110">
        <ele>3.6</ele>
        <time>2021-05-17T08:15:37Z</time>
      </trkpt>
      <trkpt lat="41.5073890" lon="-8.7665810">
        <ele>3.6</ele>
        <time>2021-05-17T08:15:38Z</time>
      </trkpt>
      <trkpt lat="41.5073940" lon="-8.7665700">
        <ele>3.6</ele>
        <time>2021-05-17T08:15:39Z</time>
      </trkpt>
      <trkpt lat="41.5073980" lon="-8.7665580">
        <ele>3.6</ele>
        <time>2021-05-17T08:15:40Z</time>
      </trkpt>
      <trkpt lat="41.5074090" lon="-8.7665390">
        <ele>3.6</ele>
        <time>2021-05-17T08:15:41Z</time>
      </trkpt>
      <trkpt lat="41.5074160" lon="-8.7665300">
        <ele>3.6</ele>
        <time>2021-05-17T08:15:42Z</time>
      </trkpt>
      <trkpt lat="41.5074220" lon="-8.7665200">
        <ele>3.7</ele>
        <time>2021-05-17T08:15:43Z</time>
      </trkpt>
      <trkpt lat="41.5074370" lon="-8.7665130">
        <ele>3.7</ele>
        <time>2021-05-17T08:15:44Z</time>
      </trkpt>
      <trkpt lat="41.5074510" lon="-8.7665110">
        <ele>3.6</ele>
        <time>2021-05-17T08:15:45Z</time>
      </trkpt>
      <trkpt lat="41.5074680" lon="-8.7665070">
        <ele>3.6</ele>
        <time>2021-05-17T08:15:46Z</time>
      </trkpt>
      <trkpt lat="41.5074810" lon="-8.7665130">
        <ele>3.6</ele>
        <time>2021-05-17T08:15:47Z</time>
      </trkpt>
      <trkpt lat="41.5074890" lon="-8.7665110">
        <ele>3.6</ele>
        <time>2021-05-17T08:15:48Z</time>
      </trkpt>
      <trkpt lat="41.5074980" lon="-8.7665130">
        <ele>3.6</ele>
        <time>2021-05-17T08:15:49Z</time>
      </trkpt>
      <trkpt lat="41.5075140" lon="-8.7665180">
        <ele>3.6</ele>
        <time>2021-05-17T08:15:50Z</time>
      </trkpt>
      <trkpt lat="41.5075260" lon="-8.7665260">
        <ele>3.6</ele>
        <time>2021-05-17T08:15:51Z</time>
      </trkpt>
      <trkpt lat="41.5075330" lon="-8.7665350">
        <ele>3.5</ele>
        <time>2021-05-17T08:15:52Z</time>
      </trkpt>
      <trkpt lat="41.5075390" lon="-8.7665360">
        <ele>3.5</ele>
        <time>2021-05-17T08:15:53Z</time>
      </trkpt>
      <trkpt lat="41.5075470" lon="-8.7665480">
        <ele>3.5</ele>
        <time>2021-05-17T08:15:54Z</time>
      </trkpt>
      <trkpt lat="41.5075600" lon="-8.7665540">
        <ele>3.5</ele>
        <time>2021-05-17T08:15:55Z</time>
      </trkpt>
      <trkpt lat="41.5075670" lon="-8.7665650">
        <ele>3.5</ele>
        <time>2021-05-17T08:15:56Z</time>
      </trkpt>
      <trkpt lat="41.5075710" lon="-8.7665770">
        <ele>3.5</ele>
        <time>2021-05-17T08:15:57Z</time>
      </trkpt>
      <trkpt lat="41.5075770" lon="-8.7665840">
        <ele>3.5</ele>
        <time>2021-05-17T08:15:58Z</time>
      </trkpt>
      <trkpt lat="41.5075820" lon="-8.7665880">
        <ele>3.5</ele>
        <time>2021-05-17T08:15:59Z</time>
      </trkpt>
      <trkpt lat="41.5075860" lon="-8.7665960">
        <ele>3.5</ele>
        <time>2021-05-17T08:16:00Z</time>
      </trkpt>
      <trkpt lat="41.5075980" lon="-8.7666000">
        <ele>3.5</ele>
        <time>2021-05-17T08:16:01Z</time>
      </trkpt>
      <trkpt lat="41.5076070" lon="-8.7666030">
        <ele>3.5</ele>
        <time>2021-05-17T08:16:02Z</time>
      </trkpt>
      <trkpt lat="41.5076170" lon="-8.7666050">
        <ele>3.5</ele>
        <time>2021-05-17T08:16:03Z</time>
      </trkpt>
      <trkpt lat="41.5076260" lon="-8.7666080">
        <ele>3.4</ele>
        <time>2021-05-17T08:16:04Z</time>
      </trkpt>
      <trkpt lat="41.5076550" lon="-8.7666160">
        <ele>3.4</ele>
        <time>2021-05-17T08:16:05Z</time>
      </trkpt>
      <trkpt lat="41.5076660" lon="-8.7666210">
        <ele>3.4</ele>
        <time>2021-05-17T08:16:06Z</time>
      </trkpt>
      <trkpt lat="41.5076720" lon="-8.7666250">
        <ele>3.4</ele>
        <time>2021-05-17T08:16:07Z</time>
      </trkpt>
      <trkpt lat="41.5076850" lon="-8.7666230">
        <ele>3.4</ele>
        <time>2021-05-17T08:16:08Z</time>
      </trkpt>
      <trkpt lat="41.5076940" lon="-8.7666200">
        <ele>3.4</ele>
        <time>2021-05-17T08:16:09Z</time>
      </trkpt>
      <trkpt lat="41.5077310" lon="-8.7666210">
        <ele>3.4</ele>
        <time>2021-05-17T08:16:10Z</time>
      </trkpt>
      <trkpt lat="41.5077520" lon="-8.7666240">
        <ele>3.3</ele>
        <time>2021-05-17T08:16:11Z</time>
      </trkpt>
      <trkpt lat="41.5077610" lon="-8.7666300">
        <ele>3.3</ele>
        <time>2021-05-17T08:16:12Z</time>
      </trkpt>
      <trkpt lat="41.5077700" lon="-8.7666350">
        <ele>3.3</ele>
        <time>2021-05-17T08:16:14Z</time>
      </trkpt>
      <trkpt lat="41.5077790" lon="-8.7666410">
        <ele>3.3</ele>
        <time>2021-05-17T08:16:15Z</time>
      </trkpt>
      <trkpt lat="41.5077880" lon="-8.7666460">
        <ele>3.3</ele>
        <time>2021-05-17T08:16:16Z</time>
      </trkpt>
      <trkpt lat="41.5077970" lon="-8.7666520">
        <ele>3.3</ele>
        <time>2021-05-17T08:16:17Z</time>
      </trkpt>
      <trkpt lat="41.5078210" lon="-8.7666690">
        <ele>3.3</ele>
        <time>2021-05-17T08:16:18Z</time>
      </trkpt>
      <trkpt lat="41.5078300" lon="-8.7666740">
        <ele>3.3</ele>
        <time>2021-05-17T08:16:19Z</time>
      </trkpt>
      <trkpt lat="41.5078470" lon="-8.7666840">
        <ele>3.3</ele>
        <time>2021-05-17T08:16:20Z</time>
      </trkpt>
      <trkpt lat="41.5078640" lon="-8.7666840">
        <ele>3.3</ele>
        <time>2021-05-17T08:16:21Z</time>
      </trkpt>
      <trkpt lat="41.5078950" lon="-8.7666910">
        <ele>3.3</ele>
        <time>2021-05-17T08:16:22Z</time>
      </trkpt>
      <trkpt lat="41.5079040" lon="-8.7666980">
        <ele>3.2</ele>
        <time>2021-05-17T08:16:23Z</time>
      </trkpt>
      <trkpt lat="41.5079170" lon="-8.7667050">
        <ele>3.2</ele>
        <time>2021-05-17T08:16:24Z</time>
      </trkpt>
      <trkpt lat="41.5079310" lon="-8.7666960">
        <ele>3.2</ele>
        <time>2021-05-17T08:16:25Z</time>
      </trkpt>
      <trkpt lat="41.5079380" lon="-8.7667130">
        <ele>3.2</ele>
        <time>2021-05-17T08:16:26Z</time>
      </trkpt>
      <trkpt lat="41.5079460" lon="-8.7667110">
        <ele>3.2</ele>
        <time>2021-05-17T08:16:27Z</time>
      </trkpt>
      <trkpt lat="41.5079690" lon="-8.7667050">
        <ele>3.2</ele>
        <time>2021-05-17T08:16:28Z</time>
      </trkpt>
      <trkpt lat="41.5079900" lon="-8.7667130">
        <ele>3.2</ele>
        <time>2021-05-17T08:16:29Z</time>
      </trkpt>
      <trkpt lat="41.5079980" lon="-8.7667170">
        <ele>3.2</ele>
        <time>2021-05-17T08:16:30Z</time>
      </trkpt>
      <trkpt lat="41.5080060" lon="-8.7667210">
        <ele>3.2</ele>
        <time>2021-05-17T08:16:31Z</time>
      </trkpt>
      <trkpt lat="41.5080170" lon="-8.7667210">
        <ele>3.2</ele>
        <time>2021-05-17T08:16:32Z</time>
      </trkpt>
      <trkpt lat="41.5080210" lon="-8.7667220">
        <ele>3.2</ele>
        <time>2021-05-17T08:16:33Z</time>
      </trkpt>
      <trkpt lat="41.5080380" lon="-8.7667300">
        <ele>3.2</ele>
        <time>2021-05-17T08:16:34Z</time>
      </trkpt>
      <trkpt lat="41.5080520" lon="-8.7667330">
        <ele>3.2</ele>
        <time>2021-05-17T08:16:35Z</time>
      </trkpt>
      <trkpt lat="41.5080590" lon="-8.7667410">
        <ele>3.2</ele>
        <time>2021-05-17T08:16:36Z</time>
      </trkpt>
      <trkpt lat="41.5080680" lon="-8.7667470">
        <ele>3.2</ele>
        <time>2021-05-17T08:16:37Z</time>
      </trkpt>
      <trkpt lat="41.5080890" lon="-8.7667560">
        <ele>3.1</ele>
        <time>2021-05-17T08:16:38Z</time>
      </trkpt>
      <trkpt lat="41.5080970" lon="-8.7667570">
        <ele>3.1</ele>
        <time>2021-05-17T08:16:39Z</time>
      </trkpt>
      <trkpt lat="41.5081060" lon="-8.7667590">
        <ele>3.1</ele>
        <time>2021-05-17T08:16:40Z</time>
      </trkpt>
      <trkpt lat="41.5081160" lon="-8.7667600">
        <ele>3.1</ele>
        <time>2021-05-17T08:16:41Z</time>
      </trkpt>
      <trkpt lat="41.5081330" lon="-8.7667700">
        <ele>3.1</ele>
        <time>2021-05-17T08:16:42Z</time>
      </trkpt>
      <trkpt lat="41.5081520" lon="-8.7667790">
        <ele>3.1</ele>
        <time>2021-05-17T08:16:43Z</time>
      </trkpt>
      <trkpt lat="41.5081610" lon="-8.7667810">
        <ele>3.1</ele>
        <time>2021-05-17T08:16:44Z</time>
      </trkpt>
      <trkpt lat="41.5081690" lon="-8.7667840">
        <ele>3.1</ele>
        <time>2021-05-17T08:16:45Z</time>
      </trkpt>
      <trkpt lat="41.5081840" lon="-8.7667820">
        <ele>3.1</ele>
        <time>2021-05-17T08:16:46Z</time>
      </trkpt>
      <trkpt lat="41.5082030" lon="-8.7667820">
        <ele>3.1</ele>
        <time>2021-05-17T08:16:47Z</time>
      </trkpt>
      <trkpt lat="41.5082200" lon="-8.7667790">
        <ele>3.1</ele>
        <time>2021-05-17T08:16:48Z</time>
      </trkpt>
      <trkpt lat="41.5082390" lon="-8.7667820">
        <ele>3.2</ele>
        <time>2021-05-17T08:16:49Z</time>
      </trkpt>
      <trkpt lat="41.5082500" lon="-8.7667890">
        <ele>3.2</ele>
        <time>2021-05-17T08:16:50Z</time>
      </trkpt>
      <trkpt lat="41.5082590" lon="-8.7667940">
        <ele>3.2</ele>
        <time>2021-05-17T08:16:51Z</time>
      </trkpt>
      <trkpt lat="41.5082650" lon="-8.7667910">
        <ele>3.2</ele>
        <time>2021-05-17T08:16:52Z</time>
      </trkpt>
      <trkpt lat="41.5082850" lon="-8.7667920">
        <ele>3.2</ele>
        <time>2021-05-17T08:16:53Z</time>
      </trkpt>
      <trkpt lat="41.5082970" lon="-8.7667880">
        <ele>3.2</ele>
        <time>2021-05-17T08:16:54Z</time>
      </trkpt>
      <trkpt lat="41.5083090" lon="-8.7667850">
        <ele>3.2</ele>
        <time>2021-05-17T08:16:55Z</time>
      </trkpt>
      <trkpt lat="41.5083250" lon="-8.7667930">
        <ele>3.2</ele>
        <time>2021-05-17T08:16:56Z</time>
      </trkpt>
      <trkpt lat="41.5083440" lon="-8.7667910">
        <ele>3.2</ele>
        <time>2021-05-17T08:16:57Z</time>
      </trkpt>
      <trkpt lat="41.5083730" lon="-8.7667890">
        <ele>3.2</ele>
        <time>2021-05-17T08:16:58Z</time>
      </trkpt>
      <trkpt lat="41.5083840" lon="-8.7667890">
        <ele>3.2</ele>
        <time>2021-05-17T08:16:59Z</time>
      </trkpt>
      <trkpt lat="41.5084010" lon="-8.7668020">
        <ele>3.2</ele>
        <time>2021-05-17T08:17:00Z</time>
      </trkpt>
      <trkpt lat="41.5084150" lon="-8.7668020">
        <ele>3.2</ele>
        <time>2021-05-17T08:17:01Z</time>
      </trkpt>
      <trkpt lat="41.5084260" lon="-8.7668080">
        <ele>3.2</ele>
        <time>2021-05-17T08:17:02Z</time>
      </trkpt>
      <trkpt lat="41.5084430" lon="-8.7668100">
        <ele>3.2</ele>
        <time>2021-05-17T08:17:03Z</time>
      </trkpt>
      <trkpt lat="41.5084600" lon="-8.7668130">
        <ele>3.2</ele>
        <time>2021-05-17T08:17:04Z</time>
      </trkpt>
      <trkpt lat="41.5084780" lon="-8.7668110">
        <ele>3.2</ele>
        <time>2021-05-17T08:17:05Z</time>
      </trkpt>
      <trkpt lat="41.5084990" lon="-8.7668160">
        <ele>3.2</ele>
        <time>2021-05-17T08:17:06Z</time>
      </trkpt>
      <trkpt lat="41.5085120" lon="-8.7668230">
        <ele>3.2</ele>
        <time>2021-05-17T08:17:07Z</time>
      </trkpt>
      <trkpt lat="41.5085320" lon="-8.7668250">
        <ele>3.2</ele>
        <time>2021-05-17T08:17:08Z</time>
      </trkpt>
      <trkpt lat="41.5085430" lon="-8.7668270">
        <ele>3.2</ele>
        <time>2021-05-17T08:17:09Z</time>
      </trkpt>
      <trkpt lat="41.5085540" lon="-8.7668300">
        <ele>3.2</ele>
        <time>2021-05-17T08:17:10Z</time>
      </trkpt>
      <trkpt lat="41.5085690" lon="-8.7668240">
        <ele>3.2</ele>
        <time>2021-05-17T08:17:11Z</time>
      </trkpt>
      <trkpt lat="41.5085840" lon="-8.7668370">
        <ele>3.2</ele>
        <time>2021-05-17T08:17:12Z</time>
      </trkpt>
      <trkpt lat="41.5086030" lon="-8.7668350">
        <ele>3.2</ele>
        <time>2021-05-17T08:17:13Z</time>
      </trkpt>
      <trkpt lat="41.5086190" lon="-8.7668300">
        <ele>3.2</ele>
        <time>2021-05-17T08:17:14Z</time>
      </trkpt>
      <trkpt lat="41.5086210" lon="-8.7668240">
        <ele>3.2</ele>
        <time>2021-05-17T08:17:15Z</time>
      </trkpt>
      <trkpt lat="41.5086380" lon="-8.7668190">
        <ele>3.2</ele>
        <time>2021-05-17T08:17:16Z</time>
      </trkpt>
      <trkpt lat="41.5086530" lon="-8.7668210">
        <ele>3.2</ele>
        <time>2021-05-17T08:17:17Z</time>
      </trkpt>
      <trkpt lat="41.5086850" lon="-8.7668160">
        <ele>3.2</ele>
        <time>2021-05-17T08:17:18Z</time>
      </trkpt>
      <trkpt lat="41.5086960" lon="-8.7668180">
        <ele>3.2</ele>
        <time>2021-05-17T08:17:19Z</time>
      </trkpt>
      <trkpt lat="41.5087110" lon="-8.7668240">
        <ele>3.3</ele>
        <time>2021-05-17T08:17:20Z</time>
      </trkpt>
      <trkpt lat="41.5087290" lon="-8.7668260">
        <ele>3.3</ele>
        <time>2021-05-17T08:17:21Z</time>
      </trkpt>
      <trkpt lat="41.5087480" lon="-8.7668330">
        <ele>3.3</ele>
        <time>2021-05-17T08:17:22Z</time>
      </trkpt>
      <trkpt lat="41.5087630" lon="-8.7668420">
        <ele>3.3</ele>
        <time>2021-05-17T08:17:23Z</time>
      </trkpt>
      <trkpt lat="41.5087800" lon="-8.7668470">
        <ele>3.3</ele>
        <time>2021-05-17T08:17:24Z</time>
      </trkpt>
      <trkpt lat="41.5087950" lon="-8.7668450">
        <ele>3.3</ele>
        <time>2021-05-17T08:17:25Z</time>
      </trkpt>
      <trkpt lat="41.5088140" lon="-8.7668420">
        <ele>3.3</ele>
        <time>2021-05-17T08:17:26Z</time>
      </trkpt>
      <trkpt lat="41.5088310" lon="-8.7668470">
        <ele>3.3</ele>
        <time>2021-05-17T08:17:27Z</time>
      </trkpt>
      <trkpt lat="41.5088470" lon="-8.7668540">
        <ele>3.3</ele>
        <time>2021-05-17T08:17:28Z</time>
      </trkpt>
      <trkpt lat="41.5088620" lon="-8.7668610">
        <ele>3.3</ele>
        <time>2021-05-17T08:17:29Z</time>
      </trkpt>
      <trkpt lat="41.5088790" lon="-8.7668630">
        <ele>3.4</ele>
        <time>2021-05-17T08:17:30Z</time>
      </trkpt>
      <trkpt lat="41.5088940" lon="-8.7668720">
        <ele>3.4</ele>
        <time>2021-05-17T08:17:31Z</time>
      </trkpt>
      <trkpt lat="41.5089070" lon="-8.7668800">
        <ele>3.4</ele>
        <time>2021-05-17T08:17:32Z</time>
      </trkpt>
      <trkpt lat="41.5089220" lon="-8.7668860">
        <ele>3.4</ele>
        <time>2021-05-17T08:17:33Z</time>
      </trkpt>
      <trkpt lat="41.5089380" lon="-8.7668940">
        <ele>3.4</ele>
        <time>2021-05-17T08:17:34Z</time>
      </trkpt>
      <trkpt lat="41.5089540" lon="-8.7668980">
        <ele>3.4</ele>
        <time>2021-05-17T08:17:35Z</time>
      </trkpt>
      <trkpt lat="41.5089700" lon="-8.7669030">
        <ele>3.4</ele>
        <time>2021-05-17T08:17:36Z</time>
      </trkpt>
      <trkpt lat="41.5089820" lon="-8.7669090">
        <ele>3.4</ele>
        <time>2021-05-17T08:17:37Z</time>
      </trkpt>
      <trkpt lat="41.5089980" lon="-8.7669130">
        <ele>3.4</ele>
        <time>2021-05-17T08:17:38Z</time>
      </trkpt>
      <trkpt lat="41.5090090" lon="-8.7669250">
        <ele>3.4</ele>
        <time>2021-05-17T08:17:39Z</time>
      </trkpt>
      <trkpt lat="41.5090230" lon="-8.7669330">
        <ele>3.3</ele>
        <time>2021-05-17T08:17:40Z</time>
      </trkpt>
      <trkpt lat="41.5090330" lon="-8.7669460">
        <ele>3.3</ele>
        <time>2021-05-17T08:17:41Z</time>
      </trkpt>
      <trkpt lat="41.5090470" lon="-8.7669530">
        <ele>3.3</ele>
        <time>2021-05-17T08:17:42Z</time>
      </trkpt>
      <trkpt lat="41.5090600" lon="-8.7669560">
        <ele>3.3</ele>
        <time>2021-05-17T08:17:43Z</time>
      </trkpt>
      <trkpt lat="41.5090750" lon="-8.7669740">
        <ele>3.3</ele>
        <time>2021-05-17T08:17:44Z</time>
      </trkpt>
      <trkpt lat="41.5090820" lon="-8.7669810">
        <ele>3.3</ele>
        <time>2021-05-17T08:17:45Z</time>
      </trkpt>
      <trkpt lat="41.5090880" lon="-8.7669870">
        <ele>3.3</ele>
        <time>2021-05-17T08:17:46Z</time>
      </trkpt>
      <trkpt lat="41.5090990" lon="-8.7669970">
        <ele>3.3</ele>
        <time>2021-05-17T08:17:47Z</time>
      </trkpt>
      <trkpt lat="41.5091120" lon="-8.7670040">
        <ele>3.3</ele>
        <time>2021-05-17T08:17:48Z</time>
      </trkpt>
      <trkpt lat="41.5091230" lon="-8.7670170">
        <ele>3.3</ele>
        <time>2021-05-17T08:17:49Z</time>
      </trkpt>
      <trkpt lat="41.5091320" lon="-8.7670290">
        <ele>3.3</ele>
        <time>2021-05-17T08:17:50Z</time>
      </trkpt>
      <trkpt lat="41.5091420" lon="-8.7670420">
        <ele>3.3</ele>
        <time>2021-05-17T08:17:51Z</time>
      </trkpt>
      <trkpt lat="41.5091520" lon="-8.7670560">
        <ele>3.3</ele>
        <time>2021-05-17T08:17:52Z</time>
      </trkpt>
      <trkpt lat="41.5091630" lon="-8.7670660">
        <ele>3.3</ele>
        <time>2021-05-17T08:17:53Z</time>
      </trkpt>
      <trkpt lat="41.5091740" lon="-8.7670780">
        <ele>3.3</ele>
        <time>2021-05-17T08:17:54Z</time>
      </trkpt>
      <trkpt lat="41.5091890" lon="-8.7670820">
        <ele>3.3</ele>
        <time>2021-05-17T08:17:55Z</time>
      </trkpt>
      <trkpt lat="41.5092020" lon="-8.7670940">
        <ele>3.3</ele>
        <time>2021-05-17T08:17:56Z</time>
      </trkpt>
      <trkpt lat="41.5092150" lon="-8.7671060">
        <ele>3.3</ele>
        <time>2021-05-17T08:17:57Z</time>
      </trkpt>
      <trkpt lat="41.5092260" lon="-8.7671160">
        <ele>3.3</ele>
        <time>2021-05-17T08:17:58Z</time>
      </trkpt>
      <trkpt lat="41.5092360" lon="-8.7671330">
        <ele>3.2</ele>
        <time>2021-05-17T08:17:59Z</time>
      </trkpt>
      <trkpt lat="41.5092510" lon="-8.7671370">
        <ele>3.2</ele>
        <time>2021-05-17T08:18:00Z</time>
      </trkpt>
      <trkpt lat="41.5092650" lon="-8.7671460">
        <ele>3.2</ele>
        <time>2021-05-17T08:18:01Z</time>
      </trkpt>
      <trkpt lat="41.5092770" lon="-8.7671510">
        <ele>3.2</ele>
        <time>2021-05-17T08:18:02Z</time>
      </trkpt>
      <trkpt lat="41.5092950" lon="-8.7671620">
        <ele>3.2</ele>
        <time>2021-05-17T08:18:03Z</time>
      </trkpt>
      <trkpt lat="41.5093010" lon="-8.7671700">
        <ele>3.2</ele>
        <time>2021-05-17T08:18:04Z</time>
      </trkpt>
      <trkpt lat="41.5093080" lon="-8.7671770">
        <ele>3.2</ele>
        <time>2021-05-17T08:18:05Z</time>
      </trkpt>
      <trkpt lat="41.5093140" lon="-8.7671850">
        <ele>3.2</ele>
        <time>2021-05-17T08:18:06Z</time>
      </trkpt>
      <trkpt lat="41.5093240" lon="-8.7671950">
        <ele>3.2</ele>
        <time>2021-05-17T08:18:07Z</time>
      </trkpt>
      <trkpt lat="41.5093290" lon="-8.7672080">
        <ele>3.2</ele>
        <time>2021-05-17T08:18:08Z</time>
      </trkpt>
      <trkpt lat="41.5093360" lon="-8.7672170">
        <ele>3.2</ele>
        <time>2021-05-17T08:18:09Z</time>
      </trkpt>
      <trkpt lat="41.5093450" lon="-8.7672280">
        <ele>3.2</ele>
        <time>2021-05-17T08:18:10Z</time>
      </trkpt>
      <trkpt lat="41.5093590" lon="-8.7672370">
        <ele>3.2</ele>
        <time>2021-05-17T08:18:11Z</time>
      </trkpt>
      <trkpt lat="41.5093700" lon="-8.7672470">
        <ele>3.2</ele>
        <time>2021-05-17T08:18:12Z</time>
      </trkpt>
      <trkpt lat="41.5093750" lon="-8.7672540">
        <ele>3.2</ele>
        <time>2021-05-17T08:18:13Z</time>
      </trkpt>
      <trkpt lat="41.5093870" lon="-8.7672640">
        <ele>3.2</ele>
        <time>2021-05-17T08:18:14Z</time>
      </trkpt>
      <trkpt lat="41.5093930" lon="-8.7672690">
        <ele>3.2</ele>
        <time>2021-05-17T08:18:15Z</time>
      </trkpt>
      <trkpt lat="41.5094150" lon="-8.7672890">
        <ele>3.2</ele>
        <time>2021-05-17T08:18:16Z</time>
      </trkpt>
      <trkpt lat="41.5094250" lon="-8.7673060">
        <ele>3.2</ele>
        <time>2021-05-17T08:18:17Z</time>
      </trkpt>
      <trkpt lat="41.5094360" lon="-8.7673240">
        <ele>3.2</ele>
        <time>2021-05-17T08:18:18Z</time>
      </trkpt>
      <trkpt lat="41.5094420" lon="-8.7673340">
        <ele>3.2</ele>
        <time>2021-05-17T08:18:19Z</time>
      </trkpt>
      <trkpt lat="41.5094500" lon="-8.7673400">
        <ele>3.2</ele>
        <time>2021-05-17T08:18:20Z</time>
      </trkpt>
      <trkpt lat="41.5094630" lon="-8.7673510">
        <ele>3.2</ele>
        <time>2021-05-17T08:18:21Z</time>
      </trkpt>
      <trkpt lat="41.5094820" lon="-8.7673620">
        <ele>3.2</ele>
        <time>2021-05-17T08:18:22Z</time>
      </trkpt>
      <trkpt lat="41.5094850" lon="-8.7673670">
        <ele>3.2</ele>
        <time>2021-05-17T08:18:23Z</time>
      </trkpt>
      <trkpt lat="41.5094920" lon="-8.7673760">
        <ele>3.2</ele>
        <time>2021-05-17T08:18:24Z</time>
      </trkpt>
      <trkpt lat="41.5094970" lon="-8.7673840">
        <ele>3.2</ele>
        <time>2021-05-17T08:18:25Z</time>
      </trkpt>
      <trkpt lat="41.5095120" lon="-8.7673930">
        <ele>3.2</ele>
        <time>2021-05-17T08:18:26Z</time>
      </trkpt>
      <trkpt lat="41.5095170" lon="-8.7674080">
        <ele>3.2</ele>
        <time>2021-05-17T08:18:27Z</time>
      </trkpt>
      <trkpt lat="41.5095350" lon="-8.7674180">
        <ele>3.2</ele>
        <time>2021-05-17T08:18:28Z</time>
      </trkpt>
      <trkpt lat="41.5095450" lon="-8.7674350">
        <ele>3.2</ele>
        <time>2021-05-17T08:18:29Z</time>
      </trkpt>
      <trkpt lat="41.5095540" lon="-8.7674550">
        <ele>3.2</ele>
        <time>2021-05-17T08:18:30Z</time>
      </trkpt>
      <trkpt lat="41.5095630" lon="-8.7674630">
        <ele>3.2</ele>
        <time>2021-05-17T08:18:31Z</time>
      </trkpt>
      <trkpt lat="41.5095710" lon="-8.7674700">
        <ele>3.2</ele>
        <time>2021-05-17T08:18:32Z</time>
      </trkpt>
      <trkpt lat="41.5095860" lon="-8.7674770">
        <ele>3.2</ele>
        <time>2021-05-17T08:18:33Z</time>
      </trkpt>
      <trkpt lat="41.5095990" lon="-8.7674920">
        <ele>3.2</ele>
        <time>2021-05-17T08:18:34Z</time>
      </trkpt>
      <trkpt lat="41.5096260" lon="-8.7675050">
        <ele>3.2</ele>
        <time>2021-05-17T08:18:35Z</time>
      </trkpt>
      <trkpt lat="41.5096330" lon="-8.7675130">
        <ele>3.2</ele>
        <time>2021-05-17T08:18:36Z</time>
      </trkpt>
      <trkpt lat="41.5096400" lon="-8.7675230">
        <ele>3.2</ele>
        <time>2021-05-17T08:18:37Z</time>
      </trkpt>
      <trkpt lat="41.5096530" lon="-8.7675370">
        <ele>3.2</ele>
        <time>2021-05-17T08:18:38Z</time>
      </trkpt>
      <trkpt lat="41.5096540" lon="-8.7675470">
        <ele>3.2</ele>
        <time>2021-05-17T08:18:39Z</time>
      </trkpt>
      <trkpt lat="41.5096610" lon="-8.7675480">
        <ele>3.2</ele>
        <time>2021-05-17T08:18:40Z</time>
      </trkpt>
      <trkpt lat="41.5096650" lon="-8.7675520">
        <ele>3.2</ele>
        <time>2021-05-17T08:18:41Z</time>
      </trkpt>
      <trkpt lat="41.5096730" lon="-8.7675570">
        <ele>3.2</ele>
        <time>2021-05-17T08:18:42Z</time>
      </trkpt>
      <trkpt lat="41.5096770" lon="-8.7675640">
        <ele>3.2</ele>
        <time>2021-05-17T08:18:44Z</time>
      </trkpt>
      <trkpt lat="41.5096750" lon="-8.7675580">
        <ele>3.2</ele>
        <time>2021-05-17T08:18:45Z</time>
      </trkpt>
      <trkpt lat="41.5096750" lon="-8.7675570">
        <ele>3.2</ele>
        <time>2021-05-17T08:18:46Z</time>
      </trkpt>
      <trkpt lat="41.5096790" lon="-8.7675550">
        <ele>3.2</ele>
        <time>2021-05-17T08:18:47Z</time>
      </trkpt>
      <trkpt lat="41.5096840" lon="-8.7675460">
        <ele>3.2</ele>
        <time>2021-05-17T08:18:48Z</time>
      </trkpt>
      <trkpt lat="41.5097000" lon="-8.7675180">
        <ele>3.2</ele>
        <time>2021-05-17T08:18:49Z</time>
      </trkpt>
      <trkpt lat="41.5097090" lon="-8.7675040">
        <ele>3.2</ele>
        <time>2021-05-17T08:18:50Z</time>
      </trkpt>
      <trkpt lat="41.5097230" lon="-8.7674940">
        <ele>3.2</ele>
        <time>2021-05-17T08:18:51Z</time>
      </trkpt>
      <trkpt lat="41.5097380" lon="-8.7674880">
        <ele>3.2</ele>
        <time>2021-05-17T08:18:52Z</time>
      </trkpt>
      <trkpt lat="41.5097610" lon="-8.7674880">
        <ele>3.2</ele>
        <time>2021-05-17T08:18:53Z</time>
      </trkpt>
      <trkpt lat="41.5097680" lon="-8.7674890">
        <ele>3.2</ele>
        <time>2021-05-17T08:18:54Z</time>
      </trkpt>
      <trkpt lat="41.5097760" lon="-8.7674910">
        <ele>3.2</ele>
        <time>2021-05-17T08:18:55Z</time>
      </trkpt>
      <trkpt lat="41.5097810" lon="-8.7675100">
        <ele>3.2</ele>
        <time>2021-05-17T08:18:56Z</time>
      </trkpt>
      <trkpt lat="41.5097980" lon="-8.7675150">
        <ele>3.2</ele>
        <time>2021-05-17T08:18:57Z</time>
      </trkpt>
      <trkpt lat="41.5098060" lon="-8.7675240">
        <ele>3.2</ele>
        <time>2021-05-17T08:18:58Z</time>
      </trkpt>
      <trkpt lat="41.5098220" lon="-8.7675360">
        <ele>3.3</ele>
        <time>2021-05-17T08:18:59Z</time>
      </trkpt>
      <trkpt lat="41.5098320" lon="-8.7675470">
        <ele>3.3</ele>
        <time>2021-05-17T08:19:00Z</time>
      </trkpt>
      <trkpt lat="41.5098440" lon="-8.7675650">
        <ele>3.3</ele>
        <time>2021-05-17T08:19:01Z</time>
      </trkpt>
      <trkpt lat="41.5098570" lon="-8.7675770">
        <ele>3.3</ele>
        <time>2021-05-17T08:19:02Z</time>
      </trkpt>
      <trkpt lat="41.5098690" lon="-8.7675820">
        <ele>3.3</ele>
        <time>2021-05-17T08:19:03Z</time>
      </trkpt>
      <trkpt lat="41.5098800" lon="-8.7676040">
        <ele>3.3</ele>
        <time>2021-05-17T08:19:04Z</time>
      </trkpt>
      <trkpt lat="41.5098900" lon="-8.7676170">
        <ele>3.3</ele>
        <time>2021-05-17T08:19:05Z</time>
      </trkpt>
      <trkpt lat="41.5099030" lon="-8.7676250">
        <ele>3.3</ele>
        <time>2021-05-17T08:19:06Z</time>
      </trkpt>
      <trkpt lat="41.5099130" lon="-8.7676360">
        <ele>3.3</ele>
        <time>2021-05-17T08:19:07Z</time>
      </trkpt>
      <trkpt lat="41.5099240" lon="-8.7676550">
        <ele>3.4</ele>
        <time>2021-05-17T08:19:08Z</time>
      </trkpt>
      <trkpt lat="41.5099320" lon="-8.7676660">
        <ele>3.4</ele>
        <time>2021-05-17T08:19:09Z</time>
      </trkpt>
      <trkpt lat="41.5099480" lon="-8.7676770">
        <ele>3.4</ele>
        <time>2021-05-17T08:19:10Z</time>
      </trkpt>
      <trkpt lat="41.5099580" lon="-8.7676880">
        <ele>3.4</ele>
        <time>2021-05-17T08:19:11Z</time>
      </trkpt>
      <trkpt lat="41.5099730" lon="-8.7677090">
        <ele>3.4</ele>
        <time>2021-05-17T08:19:12Z</time>
      </trkpt>
      <trkpt lat="41.5099850" lon="-8.7677060">
        <ele>3.4</ele>
        <time>2021-05-17T08:19:13Z</time>
      </trkpt>
      <trkpt lat="41.5099900" lon="-8.7677140">
        <ele>3.4</ele>
        <time>2021-05-17T08:19:14Z</time>
      </trkpt>
      <trkpt lat="41.5099990" lon="-8.7677190">
        <ele>3.4</ele>
        <time>2021-05-17T08:19:15Z</time>
      </trkpt>
      <trkpt lat="41.5100170" lon="-8.7677190">
        <ele>3.4</ele>
        <time>2021-05-17T08:19:16Z</time>
      </trkpt>
      <trkpt lat="41.5100290" lon="-8.7677140">
        <ele>3.4</ele>
        <time>2021-05-17T08:19:17Z</time>
      </trkpt>
      <trkpt lat="41.5100410" lon="-8.7677200">
        <ele>3.4</ele>
        <time>2021-05-17T08:19:18Z</time>
      </trkpt>
      <trkpt lat="41.5100470" lon="-8.7677210">
        <ele>3.4</ele>
        <time>2021-05-17T08:19:19Z</time>
      </trkpt>
      <trkpt lat="41.5100540" lon="-8.7677150">
        <ele>3.4</ele>
        <time>2021-05-17T08:19:20Z</time>
      </trkpt>
      <trkpt lat="41.5100520" lon="-8.7677140">
        <ele>3.4</ele>
        <time>2021-05-17T08:19:21Z</time>
      </trkpt>
      <trkpt lat="41.5100500" lon="-8.7677140">
        <ele>3.4</ele>
        <time>2021-05-17T08:19:22Z</time>
      </trkpt>
      <trkpt lat="41.5100510" lon="-8.7677120">
        <ele>3.4</ele>
        <time>2021-05-17T08:19:23Z</time>
      </trkpt>
      <trkpt lat="41.5100490" lon="-8.7677100">
        <ele>3.4</ele>
        <time>2021-05-17T08:19:24Z</time>
      </trkpt>
      <trkpt lat="41.5100420" lon="-8.7677070">
        <ele>3.4</ele>
        <time>2021-05-17T08:19:25Z</time>
      </trkpt>
      <trkpt lat="41.5100420" lon="-8.7677040">
        <ele>3.4</ele>
        <time>2021-05-17T08:19:26Z</time>
      </trkpt>
      <trkpt lat="41.5100410" lon="-8.7677050">
        <ele>3.4</ele>
        <time>2021-05-17T08:19:27Z</time>
      </trkpt>
      <trkpt lat="41.5100410" lon="-8.7677050">
        <ele>3.4</ele>
        <time>2021-05-17T08:19:28Z</time>
      </trkpt>
      <trkpt lat="41.5100400" lon="-8.7677030">
        <ele>3.4</ele>
        <time>2021-05-17T08:19:29Z</time>
      </trkpt>
      <trkpt lat="41.5100400" lon="-8.7677030">
        <ele>3.4</ele>
        <time>2021-05-17T08:19:30Z</time>
      </trkpt>
      <trkpt lat="41.5100420" lon="-8.7677020">
        <ele>3.4</ele>
        <time>2021-05-17T08:19:31Z</time>
      </trkpt>
      <trkpt lat="41.5100430" lon="-8.7677030">
        <ele>3.4</ele>
        <time>2021-05-17T08:19:32Z</time>
      </trkpt>
      <trkpt lat="41.5100440" lon="-8.7677050">
        <ele>3.4</ele>
        <time>2021-05-17T08:19:33Z</time>
      </trkpt>
      <trkpt lat="41.5100450" lon="-8.7677060">
        <ele>3.4</ele>
        <time>2021-05-17T08:19:34Z</time>
      </trkpt>
      <trkpt lat="41.5100450" lon="-8.7677060">
        <ele>3.4</ele>
        <time>2021-05-17T08:19:35Z</time>
      </trkpt>
      <trkpt lat="41.5100490" lon="-8.7677070">
        <ele>3.4</ele>
        <time>2021-05-17T08:19:36Z</time>
      </trkpt>
      <trkpt lat="41.5100490" lon="-8.7677070">
        <ele>3.4</ele>
        <time>2021-05-17T08:19:37Z</time>
      </trkpt>
      <trkpt lat="41.5100480" lon="-8.7677060">
        <ele>3.4</ele>
        <time>2021-05-17T08:19:38Z</time>
      </trkpt>
      <trkpt lat="41.5100470" lon="-8.7677050">
        <ele>3.4</ele>
        <time>2021-05-17T08:19:39Z</time>
      </trkpt>
      <trkpt lat="41.5100470" lon="-8.7677050">
        <ele>3.4</ele>
        <time>2021-05-17T08:19:40Z</time>
      </trkpt>
      <trkpt lat="41.5100420" lon="-8.7677040">
        <ele>3.4</ele>
        <time>2021-05-17T08:19:41Z</time>
      </trkpt>
      <trkpt lat="41.5100420" lon="-8.7677040">
        <ele>3.4</ele>
        <time>2021-05-17T08:19:42Z</time>
      </trkpt>
      <trkpt lat="41.5100420" lon="-8.7677040">
        <ele>3.4</ele>
        <time>2021-05-17T08:19:43Z</time>
      </trkpt>
      <trkpt lat="41.5100360" lon="-8.7677040">
        <ele>3.4</ele>
        <time>2021-05-17T08:19:44Z</time>
      </trkpt>
      <trkpt lat="41.5100350" lon="-8.7677030">
        <ele>3.4</ele>
        <time>2021-05-17T08:19:45Z</time>
      </trkpt>
      <trkpt lat="41.5100320" lon="-8.7677030">
        <ele>3.4</ele>
        <time>2021-05-17T08:19:46Z</time>
      </trkpt>
      <trkpt lat="41.5100300" lon="-8.7677020">
        <ele>3.4</ele>
        <time>2021-05-17T08:19:47Z</time>
      </trkpt>
      <trkpt lat="41.5100290" lon="-8.7677010">
        <ele>3.4</ele>
        <time>2021-05-17T08:19:48Z</time>
      </trkpt>
      <trkpt lat="41.5100260" lon="-8.7677010">
        <ele>3.4</ele>
        <time>2021-05-17T08:19:49Z</time>
      </trkpt>
      <trkpt lat="41.5100230" lon="-8.7677020">
        <ele>3.4</ele>
        <time>2021-05-17T08:19:50Z</time>
      </trkpt>
      <trkpt lat="41.5100230" lon="-8.7677010">
        <ele>3.4</ele>
        <time>2021-05-17T08:19:51Z</time>
      </trkpt>
      <trkpt lat="41.5100250" lon="-8.7677020">
        <ele>3.4</ele>
        <time>2021-05-17T08:19:52Z</time>
      </trkpt>
      <trkpt lat="41.5100260" lon="-8.7677020">
        <ele>3.4</ele>
        <time>2021-05-17T08:19:53Z</time>
      </trkpt>
      <trkpt lat="41.5100270" lon="-8.7677020">
        <ele>3.4</ele>
        <time>2021-05-17T08:19:54Z</time>
      </trkpt>
      <trkpt lat="41.5100280" lon="-8.7677030">
        <ele>3.4</ele>
        <time>2021-05-17T08:19:55Z</time>
      </trkpt>
      <trkpt lat="41.5100300" lon="-8.7677030">
        <ele>3.4</ele>
        <time>2021-05-17T08:19:56Z</time>
      </trkpt>
      <trkpt lat="41.5100310" lon="-8.7677040">
        <ele>3.4</ele>
        <time>2021-05-17T08:19:57Z</time>
      </trkpt>
      <trkpt lat="41.5100320" lon="-8.7677040">
        <ele>3.4</ele>
        <time>2021-05-17T08:19:58Z</time>
      </trkpt>
      <trkpt lat="41.5100330" lon="-8.7677040">
        <ele>3.4</ele>
        <time>2021-05-17T08:19:59Z</time>
      </trkpt>
      <trkpt lat="41.5100350" lon="-8.7677050">
        <ele>3.4</ele>
        <time>2021-05-17T08:20:00Z</time>
      </trkpt>
      <trkpt lat="41.5100360" lon="-8.7677050">
        <ele>3.4</ele>
        <time>2021-05-17T08:20:01Z</time>
      </trkpt>
      <trkpt lat="41.5100370" lon="-8.7677050">
        <ele>3.4</ele>
        <time>2021-05-17T08:20:02Z</time>
      </trkpt>
      <trkpt lat="41.5100380" lon="-8.7677060">
        <ele>3.4</ele>
        <time>2021-05-17T08:20:03Z</time>
      </trkpt>
      <trkpt lat="41.5100400" lon="-8.7677060">
        <ele>3.4</ele>
        <time>2021-05-17T08:20:04Z</time>
      </trkpt>
      <trkpt lat="41.5100410" lon="-8.7677060">
        <ele>3.4</ele>
        <time>2021-05-17T08:20:05Z</time>
      </trkpt>
      <trkpt lat="41.5100420" lon="-8.7677070">
        <ele>3.4</ele>
        <time>2021-05-17T08:20:06Z</time>
      </trkpt>
      <trkpt lat="41.5100440" lon="-8.7677070">
        <ele>3.4</ele>
        <time>2021-05-17T08:20:07Z</time>
      </trkpt>
      <trkpt lat="41.5100450" lon="-8.7677080">
        <ele>3.4</ele>
        <time>2021-05-17T08:20:08Z</time>
      </trkpt>
      <trkpt lat="41.5100460" lon="-8.7677080">
        <ele>3.4</ele>
        <time>2021-05-17T08:20:09Z</time>
      </trkpt>
      <trkpt lat="41.5100470" lon="-8.7677080">
        <ele>3.4</ele>
        <time>2021-05-17T08:20:10Z</time>
      </trkpt>
      <trkpt lat="41.5100490" lon="-8.7677090">
        <ele>3.4</ele>
        <time>2021-05-17T08:20:11Z</time>
      </trkpt>
      <trkpt lat="41.5100500" lon="-8.7677090">
        <ele>3.4</ele>
        <time>2021-05-17T08:20:12Z</time>
      </trkpt>
      <trkpt lat="41.5100510" lon="-8.7677090">
        <ele>3.4</ele>
        <time>2021-05-17T08:20:13Z</time>
      </trkpt>
      <trkpt lat="41.5100520" lon="-8.7677100">
        <ele>3.4</ele>
        <time>2021-05-17T08:20:14Z</time>
      </trkpt>
      <trkpt lat="41.5100540" lon="-8.7677100">
        <ele>3.4</ele>
        <time>2021-05-17T08:20:15Z</time>
      </trkpt>
      <trkpt lat="41.5100550" lon="-8.7677110">
        <ele>3.4</ele>
        <time>2021-05-17T08:20:16Z</time>
      </trkpt>
      <trkpt lat="41.5100560" lon="-8.7677110">
        <ele>3.4</ele>
        <time>2021-05-17T08:20:17Z</time>
      </trkpt>
      <trkpt lat="41.5100570" lon="-8.7677110">
        <ele>3.4</ele>
        <time>2021-05-17T08:20:18Z</time>
      </trkpt>
      <trkpt lat="41.5100590" lon="-8.7677120">
        <ele>3.4</ele>
        <time>2021-05-17T08:20:19Z</time>
      </trkpt>
      <trkpt lat="41.5100600" lon="-8.7677120">
        <ele>3.4</ele>
        <time>2021-05-17T08:20:20Z</time>
      </trkpt>
      <trkpt lat="41.5100780" lon="-8.7677340">
        <ele>3.4</ele>
        <time>2021-05-17T08:20:21Z</time>
      </trkpt>
      <trkpt lat="41.5100900" lon="-8.7677420">
        <ele>3.4</ele>
        <time>2021-05-17T08:20:22Z</time>
      </trkpt>
      <trkpt lat="41.5101060" lon="-8.7677570">
        <ele>3.4</ele>
        <time>2021-05-17T08:20:23Z</time>
      </trkpt>
      <trkpt lat="41.5101170" lon="-8.7677700">
        <ele>3.4</ele>
        <time>2021-05-17T08:20:24Z</time>
      </trkpt>
      <trkpt lat="41.5101360" lon="-8.7677870">
        <ele>3.4</ele>
        <time>2021-05-17T08:20:25Z</time>
      </trkpt>
      <trkpt lat="41.5101440" lon="-8.7677910">
        <ele>3.5</ele>
        <time>2021-05-17T08:20:26Z</time>
      </trkpt>
      <trkpt lat="41.5101520" lon="-8.7677940">
        <ele>3.5</ele>
        <time>2021-05-17T08:20:27Z</time>
      </trkpt>
      <trkpt lat="41.5101560" lon="-8.7678070">
        <ele>3.5</ele>
        <time>2021-05-17T08:20:28Z</time>
      </trkpt>
      <trkpt lat="41.5101690" lon="-8.7678160">
        <ele>3.5</ele>
        <time>2021-05-17T08:20:29Z</time>
      </trkpt>
      <trkpt lat="41.5101810" lon="-8.7678230">
        <ele>3.5</ele>
        <time>2021-05-17T08:20:30Z</time>
      </trkpt>
      <trkpt lat="41.5101990" lon="-8.7678410">
        <ele>3.5</ele>
        <time>2021-05-17T08:20:31Z</time>
      </trkpt>
      <trkpt lat="41.5102050" lon="-8.7678480">
        <ele>3.5</ele>
        <time>2021-05-17T08:20:32Z</time>
      </trkpt>
      <trkpt lat="41.5102110" lon="-8.7678560">
        <ele>3.5</ele>
        <time>2021-05-17T08:20:33Z</time>
      </trkpt>
      <trkpt lat="41.5102280" lon="-8.7678720">
        <ele>3.6</ele>
        <time>2021-05-17T08:20:34Z</time>
      </trkpt>
      <trkpt lat="41.5102380" lon="-8.7678820">
        <ele>3.6</ele>
        <time>2021-05-17T08:20:35Z</time>
      </trkpt>
      <trkpt lat="41.5102520" lon="-8.7678890">
        <ele>3.6</ele>
        <time>2021-05-17T08:20:36Z</time>
      </trkpt>
      <trkpt lat="41.5102660" lon="-8.7679040">
        <ele>3.6</ele>
        <time>2021-05-17T08:20:37Z</time>
      </trkpt>
      <trkpt lat="41.5102760" lon="-8.7679190">
        <ele>3.6</ele>
        <time>2021-05-17T08:20:38Z</time>
      </trkpt>
      <trkpt lat="41.5102780" lon="-8.7679190">
        <ele>3.6</ele>
        <time>2021-05-17T08:20:39Z</time>
      </trkpt>
      <trkpt lat="41.5102930" lon="-8.7679350">
        <ele>3.7</ele>
        <time>2021-05-17T08:20:40Z</time>
      </trkpt>
      <trkpt lat="41.5103000" lon="-8.7679470">
        <ele>3.7</ele>
        <time>2021-05-17T08:20:41Z</time>
      </trkpt>
      <trkpt lat="41.5103140" lon="-8.7679610">
        <ele>3.7</ele>
        <time>2021-05-17T08:20:42Z</time>
      </trkpt>
      <trkpt lat="41.5103300" lon="-8.7679780">
        <ele>3.7</ele>
        <time>2021-05-17T08:20:43Z</time>
      </trkpt>
      <trkpt lat="41.5103390" lon="-8.7679850">
        <ele>3.7</ele>
        <time>2021-05-17T08:20:45Z</time>
      </trkpt>
      <trkpt lat="41.5103490" lon="-8.7679920">
        <ele>3.7</ele>
        <time>2021-05-17T08:20:46Z</time>
      </trkpt>
      <trkpt lat="41.5103580" lon="-8.7680000">
        <ele>3.7</ele>
        <time>2021-05-17T08:20:47Z</time>
      </trkpt>
      <trkpt lat="41.5103680" lon="-8.7680070">
        <ele>3.7</ele>
        <time>2021-05-17T08:20:48Z</time>
      </trkpt>
      <trkpt lat="41.5103770" lon="-8.7680140">
        <ele>3.7</ele>
        <time>2021-05-17T08:20:49Z</time>
      </trkpt>
      <trkpt lat="41.5103940" lon="-8.7680340">
        <ele>3.7</ele>
        <time>2021-05-17T08:20:50Z</time>
      </trkpt>
      <trkpt lat="41.5104040" lon="-8.7680420">
        <ele>3.7</ele>
        <time>2021-05-17T08:20:51Z</time>
      </trkpt>
      <trkpt lat="41.5104130" lon="-8.7680590">
        <ele>3.7</ele>
        <time>2021-05-17T08:20:52Z</time>
      </trkpt>
      <trkpt lat="41.5104240" lon="-8.7680670">
        <ele>3.7</ele>
        <time>2021-05-17T08:20:53Z</time>
      </trkpt>
      <trkpt lat="41.5104390" lon="-8.7680820">
        <ele>3.7</ele>
        <time>2021-05-17T08:20:54Z</time>
      </trkpt>
      <trkpt lat="41.5104480" lon="-8.7680850">
        <ele>3.7</ele>
        <time>2021-05-17T08:20:55Z</time>
      </trkpt>
      <trkpt lat="41.5104570" lon="-8.7680960">
        <ele>3.7</ele>
        <time>2021-05-17T08:20:56Z</time>
      </trkpt>
      <trkpt lat="41.5104710" lon="-8.7681070">
        <ele>3.7</ele>
        <time>2021-05-17T08:20:57Z</time>
      </trkpt>
      <trkpt lat="41.5104840" lon="-8.7681160">
        <ele>3.7</ele>
        <time>2021-05-17T08:20:58Z</time>
      </trkpt>
      <trkpt lat="41.5104960" lon="-8.7681230">
        <ele>3.7</ele>
        <time>2021-05-17T08:20:59Z</time>
      </trkpt>
      <trkpt lat="41.5105070" lon="-8.7681360">
        <ele>3.7</ele>
        <time>2021-05-17T08:21:00Z</time>
      </trkpt>
      <trkpt lat="41.5105210" lon="-8.7681460">
        <ele>3.7</ele>
        <time>2021-05-17T08:21:01Z</time>
      </trkpt>
      <trkpt lat="41.5105410" lon="-8.7681680">
        <ele>3.7</ele>
        <time>2021-05-17T08:21:02Z</time>
      </trkpt>
      <trkpt lat="41.5105480" lon="-8.7681760">
        <ele>3.7</ele>
        <time>2021-05-17T08:21:03Z</time>
      </trkpt>
      <trkpt lat="41.5105550" lon="-8.7681840">
        <ele>3.8</ele>
        <time>2021-05-17T08:21:04Z</time>
      </trkpt>
      <trkpt lat="41.5105720" lon="-8.7681880">
        <ele>3.8</ele>
        <time>2021-05-17T08:21:05Z</time>
      </trkpt>
      <trkpt lat="41.5105820" lon="-8.7682000">
        <ele>3.8</ele>
        <time>2021-05-17T08:21:06Z</time>
      </trkpt>
      <trkpt lat="41.5105980" lon="-8.7682160">
        <ele>3.8</ele>
        <time>2021-05-17T08:21:07Z</time>
      </trkpt>
      <trkpt lat="41.5106060" lon="-8.7682230">
        <ele>3.8</ele>
        <time>2021-05-17T08:21:08Z</time>
      </trkpt>
      <trkpt lat="41.5106150" lon="-8.7682310">
        <ele>3.8</ele>
        <time>2021-05-17T08:21:09Z</time>
      </trkpt>
      <trkpt lat="41.5106250" lon="-8.7682420">
        <ele>3.8</ele>
        <time>2021-05-17T08:21:10Z</time>
      </trkpt>
      <trkpt lat="41.5106380" lon="-8.7682620">
        <ele>3.8</ele>
        <time>2021-05-17T08:21:11Z</time>
      </trkpt>
      <trkpt lat="41.5106470" lon="-8.7682670">
        <ele>3.8</ele>
        <time>2021-05-17T08:21:12Z</time>
      </trkpt>
      <trkpt lat="41.5106570" lon="-8.7682720">
        <ele>3.8</ele>
        <time>2021-05-17T08:21:13Z</time>
      </trkpt>
      <trkpt lat="41.5106670" lon="-8.7682820">
        <ele>3.8</ele>
        <time>2021-05-17T08:21:14Z</time>
      </trkpt>
      <trkpt lat="41.5106800" lon="-8.7682860">
        <ele>3.8</ele>
        <time>2021-05-17T08:21:15Z</time>
      </trkpt>
      <trkpt lat="41.5106910" lon="-8.7682990">
        <ele>3.8</ele>
        <time>2021-05-17T08:21:16Z</time>
      </trkpt>
      <trkpt lat="41.5107030" lon="-8.7683140">
        <ele>3.8</ele>
        <time>2021-05-17T08:21:17Z</time>
      </trkpt>
      <trkpt lat="41.5107120" lon="-8.7683330">
        <ele>3.8</ele>
        <time>2021-05-17T08:21:18Z</time>
      </trkpt>
      <trkpt lat="41.5107240" lon="-8.7683430">
        <ele>3.8</ele>
        <time>2021-05-17T08:21:19Z</time>
      </trkpt>
      <trkpt lat="41.5107380" lon="-8.7683510">
        <ele>3.8</ele>
        <time>2021-05-17T08:21:20Z</time>
      </trkpt>
      <trkpt lat="41.5107540" lon="-8.7683700">
        <ele>3.9</ele>
        <time>2021-05-17T08:21:21Z</time>
      </trkpt>
      <trkpt lat="41.5107600" lon="-8.7683770">
        <ele>3.9</ele>
        <time>2021-05-17T08:21:22Z</time>
      </trkpt>
      <trkpt lat="41.5107660" lon="-8.7683840">
        <ele>3.9</ele>
        <time>2021-05-17T08:21:23Z</time>
      </trkpt>
      <trkpt lat="41.5107830" lon="-8.7683960">
        <ele>3.9</ele>
        <time>2021-05-17T08:21:24Z</time>
      </trkpt>
      <trkpt lat="41.5107940" lon="-8.7684090">
        <ele>3.9</ele>
        <time>2021-05-17T08:21:25Z</time>
      </trkpt>
      <trkpt lat="41.5108050" lon="-8.7684260">
        <ele>3.9</ele>
        <time>2021-05-17T08:21:26Z</time>
      </trkpt>
      <trkpt lat="41.5108120" lon="-8.7684350">
        <ele>3.9</ele>
        <time>2021-05-17T08:21:27Z</time>
      </trkpt>
      <trkpt lat="41.5108190" lon="-8.7684440">
        <ele>3.9</ele>
        <time>2021-05-17T08:21:28Z</time>
      </trkpt>
      <trkpt lat="41.5108260" lon="-8.7684610">
        <ele>3.9</ele>
        <time>2021-05-17T08:21:29Z</time>
      </trkpt>
      <trkpt lat="41.5108320" lon="-8.7684710">
        <ele>3.9</ele>
        <time>2021-05-17T08:21:30Z</time>
      </trkpt>
      <trkpt lat="41.5108430" lon="-8.7684790">
        <ele>3.9</ele>
        <time>2021-05-17T08:21:31Z</time>
      </trkpt>
      <trkpt lat="41.5108570" lon="-8.7684850">
        <ele>3.9</ele>
        <time>2021-05-17T08:21:32Z</time>
      </trkpt>
      <trkpt lat="41.5108680" lon="-8.7685020">
        <ele>3.9</ele>
        <time>2021-05-17T08:21:33Z</time>
      </trkpt>
      <trkpt lat="41.5108800" lon="-8.7685080">
        <ele>3.9</ele>
        <time>2021-05-17T08:21:34Z</time>
      </trkpt>
      <trkpt lat="41.5108800" lon="-8.7685180">
        <ele>3.9</ele>
        <time>2021-05-17T08:21:35Z</time>
      </trkpt>
      <trkpt lat="41.5108940" lon="-8.7685240">
        <ele>3.9</ele>
        <time>2021-05-17T08:21:36Z</time>
      </trkpt>
      <trkpt lat="41.5109010" lon="-8.7685360">
        <ele>3.9</ele>
        <time>2021-05-17T08:21:37Z</time>
      </trkpt>
      <trkpt lat="41.5109100" lon="-8.7685410">
        <ele>3.9</ele>
        <time>2021-05-17T08:21:38Z</time>
      </trkpt>
      <trkpt lat="41.5109220" lon="-8.7685460">
        <ele>3.9</ele>
        <time>2021-05-17T08:21:39Z</time>
      </trkpt>
      <trkpt lat="41.5109320" lon="-8.7685540">
        <ele>4.0</ele>
        <time>2021-05-17T08:21:40Z</time>
      </trkpt>
      <trkpt lat="41.5109470" lon="-8.7685680">
        <ele>4.0</ele>
        <time>2021-05-17T08:21:41Z</time>
      </trkpt>
      <trkpt lat="41.5109570" lon="-8.7685740">
        <ele>4.0</ele>
        <time>2021-05-17T08:21:42Z</time>
      </trkpt>
      <trkpt lat="41.5109710" lon="-8.7685830">
        <ele>4.0</ele>
        <time>2021-05-17T08:21:43Z</time>
      </trkpt>
      <trkpt lat="41.5109780" lon="-8.7685890">
        <ele>4.0</ele>
        <time>2021-05-17T08:21:44Z</time>
      </trkpt>
      <trkpt lat="41.5109930" lon="-8.7686030">
        <ele>4.0</ele>
        <time>2021-05-17T08:21:45Z</time>
      </trkpt>
      <trkpt lat="41.5110010" lon="-8.7686120">
        <ele>4.0</ele>
        <time>2021-05-17T08:21:46Z</time>
      </trkpt>
      <trkpt lat="41.5110080" lon="-8.7686200">
        <ele>4.0</ele>
        <time>2021-05-17T08:21:47Z</time>
      </trkpt>
      <trkpt lat="41.5110210" lon="-8.7686360">
        <ele>4.0</ele>
        <time>2021-05-17T08:21:48Z</time>
      </trkpt>
      <trkpt lat="41.5110320" lon="-8.7686400">
        <ele>4.0</ele>
        <time>2021-05-17T08:21:49Z</time>
      </trkpt>
      <trkpt lat="41.5110420" lon="-8.7686440">
        <ele>4.0</ele>
        <time>2021-05-17T08:21:50Z</time>
      </trkpt>
      <trkpt lat="41.5110530" lon="-8.7686560">
        <ele>3.9</ele>
        <time>2021-05-17T08:21:51Z</time>
      </trkpt>
      <trkpt lat="41.5110540" lon="-8.7686680">
        <ele>3.9</ele>
        <time>2021-05-17T08:21:52Z</time>
      </trkpt>
      <trkpt lat="41.5110690" lon="-8.7686780">
        <ele>3.9</ele>
        <time>2021-05-17T08:21:53Z</time>
      </trkpt>
      <trkpt lat="41.5110840" lon="-8.7686850">
        <ele>3.9</ele>
        <time>2021-05-17T08:21:54Z</time>
      </trkpt>
      <trkpt lat="41.5110940" lon="-8.7686950">
        <ele>3.9</ele>
        <time>2021-05-17T08:21:55Z</time>
      </trkpt>
      <trkpt lat="41.5111090" lon="-8.7687040">
        <ele>3.9</ele>
        <time>2021-05-17T08:21:56Z</time>
      </trkpt>
      <trkpt lat="41.5111160" lon="-8.7687210">
        <ele>3.9</ele>
        <time>2021-05-17T08:21:57Z</time>
      </trkpt>
      <trkpt lat="41.5111220" lon="-8.7687260">
        <ele>3.9</ele>
        <time>2021-05-17T08:21:58Z</time>
      </trkpt>
      <trkpt lat="41.5111310" lon="-8.7687330">
        <ele>3.9</ele>
        <time>2021-05-17T08:21:59Z</time>
      </trkpt>
      <trkpt lat="41.5111410" lon="-8.7687470">
        <ele>3.9</ele>
        <time>2021-05-17T08:22:00Z</time>
      </trkpt>
      <trkpt lat="41.5111670" lon="-8.7687680">
        <ele>3.8</ele>
        <time>2021-05-17T08:22:01Z</time>
      </trkpt>
      <trkpt lat="41.5111750" lon="-8.7687740">
        <ele>3.8</ele>
        <time>2021-05-17T08:22:02Z</time>
      </trkpt>
      <trkpt lat="41.5111910" lon="-8.7687910">
        <ele>3.8</ele>
        <time>2021-05-17T08:22:03Z</time>
      </trkpt>
      <trkpt lat="41.5111990" lon="-8.7687960">
        <ele>3.8</ele>
        <time>2021-05-17T08:22:04Z</time>
      </trkpt>
      <trkpt lat="41.5112070" lon="-8.7688010">
        <ele>3.8</ele>
        <time>2021-05-17T08:22:05Z</time>
      </trkpt>
      <trkpt lat="41.5112140" lon="-8.7688080">
        <ele>3.8</ele>
        <time>2021-05-17T08:22:06Z</time>
      </trkpt>
      <trkpt lat="41.5112280" lon="-8.7688210">
        <ele>3.8</ele>
        <time>2021-05-17T08:22:07Z</time>
      </trkpt>
      <trkpt lat="41.5112330" lon="-8.7688300">
        <ele>3.8</ele>
        <time>2021-05-17T08:22:08Z</time>
      </trkpt>
      <trkpt lat="41.5112460" lon="-8.7688430">
        <ele>3.8</ele>
        <time>2021-05-17T08:22:09Z</time>
      </trkpt>
      <trkpt lat="41.5112510" lon="-8.7688470">
        <ele>3.8</ele>
        <time>2021-05-17T08:22:10Z</time>
      </trkpt>
      <trkpt lat="41.5112550" lon="-8.7688500">
        <ele>3.8</ele>
        <time>2021-05-17T08:22:11Z</time>
      </trkpt>
      <trkpt lat="41.5112600" lon="-8.7688540">
        <ele>3.8</ele>
        <time>2021-05-17T08:22:12Z</time>
      </trkpt>
      <trkpt lat="41.5112640" lon="-8.7688580">
        <ele>3.8</ele>
        <time>2021-05-17T08:22:13Z</time>
      </trkpt>
      <trkpt lat="41.5112810" lon="-8.7688720">
        <ele>3.7</ele>
        <time>2021-05-17T08:22:14Z</time>
      </trkpt>
      <trkpt lat="41.5112830" lon="-8.7688930">
        <ele>3.7</ele>
        <time>2021-05-17T08:22:15Z</time>
      </trkpt>
      <trkpt lat="41.5112920" lon="-8.7689180">
        <ele>3.7</ele>
        <time>2021-05-17T08:22:16Z</time>
      </trkpt>
      <trkpt lat="41.5112980" lon="-8.7689270">
        <ele>3.7</ele>
        <time>2021-05-17T08:22:17Z</time>
      </trkpt>
      <trkpt lat="41.5113040" lon="-8.7689350">
        <ele>3.7</ele>
        <time>2021-05-17T08:22:18Z</time>
      </trkpt>
      <trkpt lat="41.5113100" lon="-8.7689440">
        <ele>3.7</ele>
        <time>2021-05-17T08:22:19Z</time>
      </trkpt>
      <trkpt lat="41.5113230" lon="-8.7689480">
        <ele>3.7</ele>
        <time>2021-05-17T08:22:20Z</time>
      </trkpt>
      <trkpt lat="41.5113360" lon="-8.7689580">
        <ele>3.7</ele>
        <time>2021-05-17T08:22:21Z</time>
      </trkpt>
      <trkpt lat="41.5113590" lon="-8.7689780">
        <ele>3.7</ele>
        <time>2021-05-17T08:22:22Z</time>
      </trkpt>
      <trkpt lat="41.5113670" lon="-8.7689820">
        <ele>3.7</ele>
        <time>2021-05-17T08:22:23Z</time>
      </trkpt>
      <trkpt lat="41.5113760" lon="-8.7689860">
        <ele>3.7</ele>
        <time>2021-05-17T08:22:24Z</time>
      </trkpt>
      <trkpt lat="41.5113860" lon="-8.7689910">
        <ele>3.7</ele>
        <time>2021-05-17T08:22:25Z</time>
      </trkpt>
      <trkpt lat="41.5114020" lon="-8.7690050">
        <ele>3.6</ele>
        <time>2021-05-17T08:22:26Z</time>
      </trkpt>
      <trkpt lat="41.5114070" lon="-8.7690180">
        <ele>3.6</ele>
        <time>2021-05-17T08:22:27Z</time>
      </trkpt>
      <trkpt lat="41.5114120" lon="-8.7690330">
        <ele>3.6</ele>
        <time>2021-05-17T08:22:28Z</time>
      </trkpt>
      <trkpt lat="41.5114170" lon="-8.7690490">
        <ele>3.6</ele>
        <time>2021-05-17T08:22:29Z</time>
      </trkpt>
      <trkpt lat="41.5114310" lon="-8.7690600">
        <ele>3.6</ele>
        <time>2021-05-17T08:22:30Z</time>
      </trkpt>
      <trkpt lat="41.5114390" lon="-8.7690820">
        <ele>3.6</ele>
        <time>2021-05-17T08:22:31Z</time>
      </trkpt>
      <trkpt lat="41.5114460" lon="-8.7691020">
        <ele>3.6</ele>
        <time>2021-05-17T08:22:32Z</time>
      </trkpt>
      <trkpt lat="41.5114490" lon="-8.7691150">
        <ele>3.6</ele>
        <time>2021-05-17T08:22:33Z</time>
      </trkpt>
      <trkpt lat="41.5114510" lon="-8.7691280">
        <ele>3.6</ele>
        <time>2021-05-17T08:22:34Z</time>
      </trkpt>
      <trkpt lat="41.5114590" lon="-8.7691430">
        <ele>3.6</ele>
        <time>2021-05-17T08:22:35Z</time>
      </trkpt>
      <trkpt lat="41.5114650" lon="-8.7691530">
        <ele>3.6</ele>
        <time>2021-05-17T08:22:36Z</time>
      </trkpt>
      <trkpt lat="41.5114750" lon="-8.7691630">
        <ele>3.6</ele>
        <time>2021-05-17T08:22:37Z</time>
      </trkpt>
      <trkpt lat="41.5114790" lon="-8.7691740">
        <ele>3.6</ele>
        <time>2021-05-17T08:22:38Z</time>
      </trkpt>
      <trkpt lat="41.5114880" lon="-8.7691810">
        <ele>3.6</ele>
        <time>2021-05-17T08:22:39Z</time>
      </trkpt>
      <trkpt lat="41.5114960" lon="-8.7691920">
        <ele>3.6</ele>
        <time>2021-05-17T08:22:40Z</time>
      </trkpt>
      <trkpt lat="41.5115110" lon="-8.7692140">
        <ele>3.5</ele>
        <time>2021-05-17T08:22:41Z</time>
      </trkpt>
      <trkpt lat="41.5115170" lon="-8.7692220">
        <ele>3.5</ele>
        <time>2021-05-17T08:22:42Z</time>
      </trkpt>
      <trkpt lat="41.5115240" lon="-8.7692300">
        <ele>3.5</ele>
        <time>2021-05-17T08:22:43Z</time>
      </trkpt>
      <trkpt lat="41.5115380" lon="-8.7692480">
        <ele>3.5</ele>
        <time>2021-05-17T08:22:44Z</time>
      </trkpt>
      <trkpt lat="41.5115390" lon="-8.7692630">
        <ele>3.5</ele>
        <time>2021-05-17T08:22:45Z</time>
      </trkpt>
      <trkpt lat="41.5115570" lon="-8.7692990">
        <ele>3.5</ele>
        <time>2021-05-17T08:22:46Z</time>
      </trkpt>
      <trkpt lat="41.5115640" lon="-8.7693070">
        <ele>3.5</ele>
        <time>2021-05-17T08:22:47Z</time>
      </trkpt>
      <trkpt lat="41.5115720" lon="-8.7693190">
        <ele>3.5</ele>
        <time>2021-05-17T08:22:48Z</time>
      </trkpt>
      <trkpt lat="41.5115840" lon="-8.7693290">
        <ele>3.5</ele>
        <time>2021-05-17T08:22:49Z</time>
      </trkpt>
      <trkpt lat="41.5116000" lon="-8.7693520">
        <ele>3.5</ele>
        <time>2021-05-17T08:22:50Z</time>
      </trkpt>
      <trkpt lat="41.5116040" lon="-8.7693590">
        <ele>3.5</ele>
        <time>2021-05-17T08:22:51Z</time>
      </trkpt>
      <trkpt lat="41.5116080" lon="-8.7693670">
        <ele>3.5</ele>
        <time>2021-05-17T08:22:52Z</time>
      </trkpt>
      <trkpt lat="41.5116210" lon="-8.7693900">
        <ele>3.5</ele>
        <time>2021-05-17T08:22:54Z</time>
      </trkpt>
      <trkpt lat="41.5116290" lon="-8.7694000">
        <ele>3.4</ele>
        <time>2021-05-17T08:22:55Z</time>
      </trkpt>
      <trkpt lat="41.5116370" lon="-8.7694110">
        <ele>3.4</ele>
        <time>2021-05-17T08:22:56Z</time>
      </trkpt>
      <trkpt lat="41.5116410" lon="-8.7694260">
        <ele>3.4</ele>
        <time>2021-05-17T08:22:57Z</time>
      </trkpt>
      <trkpt lat="41.5116550" lon="-8.7694440">
        <ele>3.4</ele>
        <time>2021-05-17T08:22:58Z</time>
      </trkpt>
      <trkpt lat="41.5116610" lon="-8.7694490">
        <ele>3.4</ele>
        <time>2021-05-17T08:22:59Z</time>
      </trkpt>
      <trkpt lat="41.5116730" lon="-8.7694630">
        <ele>3.4</ele>
        <time>2021-05-17T08:23:00Z</time>
      </trkpt>
      <trkpt lat="41.5116770" lon="-8.7694790">
        <ele>3.4</ele>
        <time>2021-05-17T08:23:01Z</time>
      </trkpt>
      <trkpt lat="41.5116840" lon="-8.7695040">
        <ele>3.4</ele>
        <time>2021-05-17T08:23:02Z</time>
      </trkpt>
      <trkpt lat="41.5116930" lon="-8.7695160">
        <ele>3.4</ele>
        <time>2021-05-17T08:23:03Z</time>
      </trkpt>
      <trkpt lat="41.5117040" lon="-8.7695410">
        <ele>3.4</ele>
        <time>2021-05-17T08:23:04Z</time>
      </trkpt>
      <trkpt lat="41.5117120" lon="-8.7695560">
        <ele>3.4</ele>
        <time>2021-05-17T08:23:05Z</time>
      </trkpt>
      <trkpt lat="41.5117290" lon="-8.7695690">
        <ele>3.4</ele>
        <time>2021-05-17T08:23:06Z</time>
      </trkpt>
      <trkpt lat="41.5117350" lon="-8.7695800">
        <ele>3.4</ele>
        <time>2021-05-17T08:23:07Z</time>
      </trkpt>
      <trkpt lat="41.5117410" lon="-8.7695900">
        <ele>3.4</ele>
        <time>2021-05-17T08:23:08Z</time>
      </trkpt>
      <trkpt lat="41.5117530" lon="-8.7696040">
        <ele>3.4</ele>
        <time>2021-05-17T08:23:09Z</time>
      </trkpt>
      <trkpt lat="41.5117660" lon="-8.7696150">
        <ele>3.4</ele>
        <time>2021-05-17T08:23:10Z</time>
      </trkpt>
      <trkpt lat="41.5117720" lon="-8.7696250">
        <ele>3.4</ele>
        <time>2021-05-17T08:23:11Z</time>
      </trkpt>
      <trkpt lat="41.5117790" lon="-8.7696350">
        <ele>3.4</ele>
        <time>2021-05-17T08:23:12Z</time>
      </trkpt>
      <trkpt lat="41.5117860" lon="-8.7696460">
        <ele>3.4</ele>
        <time>2021-05-17T08:23:13Z</time>
      </trkpt>
      <trkpt lat="41.5117940" lon="-8.7696480">
        <ele>3.4</ele>
        <time>2021-05-17T08:23:14Z</time>
      </trkpt>
      <trkpt lat="41.5118030" lon="-8.7696560">
        <ele>3.4</ele>
        <time>2021-05-17T08:23:15Z</time>
      </trkpt>
      <trkpt lat="41.5118110" lon="-8.7696600">
        <ele>3.4</ele>
        <time>2021-05-17T08:23:16Z</time>
      </trkpt>
      <trkpt lat="41.5118330" lon="-8.7696830">
        <ele>3.4</ele>
        <time>2021-05-17T08:23:17Z</time>
      </trkpt>
      <trkpt lat="41.5118410" lon="-8.7696910">
        <ele>3.4</ele>
        <time>2021-05-17T08:23:18Z</time>
      </trkpt>
      <trkpt lat="41.5118480" lon="-8.7697000">
        <ele>3.4</ele>
        <time>2021-05-17T08:23:19Z</time>
      </trkpt>
      <trkpt lat="41.5118560" lon="-8.7697180">
        <ele>3.4</ele>
        <time>2021-05-17T08:23:20Z</time>
      </trkpt>
      <trkpt lat="41.5118560" lon="-8.7697110">
        <ele>3.4</ele>
        <time>2021-05-17T08:23:21Z</time>
      </trkpt>
      <trkpt lat="41.5118650" lon="-8.7697320">
        <ele>3.4</ele>
        <time>2021-05-17T08:23:22Z</time>
      </trkpt>
      <trkpt lat="41.5118680" lon="-8.7697480">
        <ele>3.4</ele>
        <time>2021-05-17T08:23:23Z</time>
      </trkpt>
      <trkpt lat="41.5118810" lon="-8.7697650">
        <ele>3.4</ele>
        <time>2021-05-17T08:23:24Z</time>
      </trkpt>
      <trkpt lat="41.5118910" lon="-8.7697900">
        <ele>3.4</ele>
        <time>2021-05-17T08:23:25Z</time>
      </trkpt>
      <trkpt lat="41.5119020" lon="-8.7698010">
        <ele>3.4</ele>
        <time>2021-05-17T08:23:26Z</time>
      </trkpt>
      <trkpt lat="41.5119120" lon="-8.7698120">
        <ele>3.5</ele>
        <time>2021-05-17T08:23:27Z</time>
      </trkpt>
      <trkpt lat="41.5119270" lon="-8.7698230">
        <ele>3.5</ele>
        <time>2021-05-17T08:23:28Z</time>
      </trkpt>
      <trkpt lat="41.5119360" lon="-8.7698360">
        <ele>3.5</ele>
        <time>2021-05-17T08:23:29Z</time>
      </trkpt>
      <trkpt lat="41.5119430" lon="-8.7698590">
        <ele>3.5</ele>
        <time>2021-05-17T08:23:30Z</time>
      </trkpt>
      <trkpt lat="41.5119510" lon="-8.7698690">
        <ele>3.5</ele>
        <time>2021-05-17T08:23:31Z</time>
      </trkpt>
      <trkpt lat="41.5119640" lon="-8.7698750">
        <ele>3.5</ele>
        <time>2021-05-17T08:23:32Z</time>
      </trkpt>
      <trkpt lat="41.5119590" lon="-8.7698800">
        <ele>3.5</ele>
        <time>2021-05-17T08:23:33Z</time>
      </trkpt>
      <trkpt lat="41.5119730" lon="-8.7699020">
        <ele>3.5</ele>
        <time>2021-05-17T08:23:34Z</time>
      </trkpt>
      <trkpt lat="41.5119840" lon="-8.7699350">
        <ele>3.5</ele>
        <time>2021-05-17T08:23:35Z</time>
      </trkpt>
      <trkpt lat="41.5119870" lon="-8.7699430">
        <ele>3.5</ele>
        <time>2021-05-17T08:23:36Z</time>
      </trkpt>
      <trkpt lat="41.5119910" lon="-8.7699510">
        <ele>3.5</ele>
        <time>2021-05-17T08:23:37Z</time>
      </trkpt>
      <trkpt lat="41.5120080" lon="-8.7699820">
        <ele>3.5</ele>
        <time>2021-05-17T08:23:38Z</time>
      </trkpt>
      <trkpt lat="41.5120100" lon="-8.7699950">
        <ele>3.5</ele>
        <time>2021-05-17T08:23:39Z</time>
      </trkpt>
      <trkpt lat="41.5120160" lon="-8.7700170">
        <ele>3.5</ele>
        <time>2021-05-17T08:23:40Z</time>
      </trkpt>
      <trkpt lat="41.5120310" lon="-8.7700480">
        <ele>3.5</ele>
        <time>2021-05-17T08:23:41Z</time>
      </trkpt>
      <trkpt lat="41.5120370" lon="-8.7700590">
        <ele>3.5</ele>
        <time>2021-05-17T08:23:42Z</time>
      </trkpt>
      <trkpt lat="41.5120400" lon="-8.7700770">
        <ele>3.5</ele>
        <time>2021-05-17T08:23:43Z</time>
      </trkpt>
      <trkpt lat="41.5120550" lon="-8.7700870">
        <ele>3.5</ele>
        <time>2021-05-17T08:23:44Z</time>
      </trkpt>
      <trkpt lat="41.5120600" lon="-8.7701000">
        <ele>3.6</ele>
        <time>2021-05-17T08:23:45Z</time>
      </trkpt>
      <trkpt lat="41.5120580" lon="-8.7701190">
        <ele>3.6</ele>
        <time>2021-05-17T08:23:46Z</time>
      </trkpt>
      <trkpt lat="41.5120600" lon="-8.7701300">
        <ele>3.6</ele>
        <time>2021-05-17T08:23:47Z</time>
      </trkpt>
      <trkpt lat="41.5120610" lon="-8.7701350">
        <ele>3.6</ele>
        <time>2021-05-17T08:23:48Z</time>
      </trkpt>
      <trkpt lat="41.5120610" lon="-8.7701480">
        <ele>3.6</ele>
        <time>2021-05-17T08:23:49Z</time>
      </trkpt>
      <trkpt lat="41.5120550" lon="-8.7701520">
        <ele>3.6</ele>
        <time>2021-05-17T08:23:50Z</time>
      </trkpt>
      <trkpt lat="41.5120610" lon="-8.7701680">
        <ele>3.6</ele>
        <time>2021-05-17T08:23:51Z</time>
      </trkpt>
      <trkpt lat="41.5120830" lon="-8.7701950">
        <ele>3.6</ele>
        <time>2021-05-17T08:23:52Z</time>
      </trkpt>
      <trkpt lat="41.5121010" lon="-8.7702050">
        <ele>3.6</ele>
        <time>2021-05-17T08:23:53Z</time>
      </trkpt>
      <trkpt lat="41.5121020" lon="-8.7702230">
        <ele>3.6</ele>
        <time>2021-05-17T08:23:54Z</time>
      </trkpt>
      <trkpt lat="41.5121080" lon="-8.7702400">
        <ele>3.6</ele>
        <time>2021-05-17T08:23:55Z</time>
      </trkpt>
      <trkpt lat="41.5121130" lon="-8.7702510">
        <ele>3.6</ele>
        <time>2021-05-17T08:23:56Z</time>
      </trkpt>
      <trkpt lat="41.5121190" lon="-8.7702610">
        <ele>3.6</ele>
        <time>2021-05-17T08:23:57Z</time>
      </trkpt>
      <trkpt lat="41.5121240" lon="-8.7702720">
        <ele>3.6</ele>
        <time>2021-05-17T08:23:58Z</time>
      </trkpt>
      <trkpt lat="41.5121340" lon="-8.7702870">
        <ele>3.6</ele>
        <time>2021-05-17T08:23:59Z</time>
      </trkpt>
      <trkpt lat="41.5121470" lon="-8.7702940">
        <ele>3.6</ele>
        <time>2021-05-17T08:24:00Z</time>
      </trkpt>
      <trkpt lat="41.5121640" lon="-8.7703020">
        <ele>3.6</ele>
        <time>2021-05-17T08:24:01Z</time>
      </trkpt>
      <trkpt lat="41.5121760" lon="-8.7703130">
        <ele>3.6</ele>
        <time>2021-05-17T08:24:02Z</time>
      </trkpt>
      <trkpt lat="41.5122120" lon="-8.7703160">
        <ele>3.6</ele>
        <time>2021-05-17T08:24:03Z</time>
      </trkpt>
      <trkpt lat="41.5122270" lon="-8.7703120">
        <ele>3.6</ele>
        <time>2021-05-17T08:24:04Z</time>
      </trkpt>
      <trkpt lat="41.5122340" lon="-8.7703150">
        <ele>3.6</ele>
        <time>2021-05-17T08:24:05Z</time>
      </trkpt>
      <trkpt lat="41.5122450" lon="-8.7703280">
        <ele>3.6</ele>
        <time>2021-05-17T08:24:06Z</time>
      </trkpt>
      <trkpt lat="41.5122560" lon="-8.7703310">
        <ele>3.6</ele>
        <time>2021-05-17T08:24:07Z</time>
      </trkpt>
      <trkpt lat="41.5122710" lon="-8.7703470">
        <ele>3.6</ele>
        <time>2021-05-17T08:24:08Z</time>
      </trkpt>
      <trkpt lat="41.5122780" lon="-8.7703560">
        <ele>3.6</ele>
        <time>2021-05-17T08:24:09Z</time>
      </trkpt>
      <trkpt lat="41.5122800" lon="-8.7703680">
        <ele>3.6</ele>
        <time>2021-05-17T08:24:10Z</time>
      </trkpt>
      <trkpt lat="41.5123010" lon="-8.7703720">
        <ele>3.6</ele>
        <time>2021-05-17T08:24:11Z</time>
      </trkpt>
      <trkpt lat="41.5123050" lon="-8.7703820">
        <ele>3.6</ele>
        <time>2021-05-17T08:24:12Z</time>
      </trkpt>
      <trkpt lat="41.5123120" lon="-8.7703900">
        <ele>3.6</ele>
        <time>2021-05-17T08:24:13Z</time>
      </trkpt>
      <trkpt lat="41.5123060" lon="-8.7704210">
        <ele>3.6</ele>
        <time>2021-05-17T08:24:14Z</time>
      </trkpt>
      <trkpt lat="41.5123070" lon="-8.7704320">
        <ele>3.6</ele>
        <time>2021-05-17T08:24:15Z</time>
      </trkpt>
      <trkpt lat="41.5123140" lon="-8.7704420">
        <ele>3.6</ele>
        <time>2021-05-17T08:24:16Z</time>
      </trkpt>
      <trkpt lat="41.5123310" lon="-8.7704550">
        <ele>3.6</ele>
        <time>2021-05-17T08:24:17Z</time>
      </trkpt>
      <trkpt lat="41.5123380" lon="-8.7704650">
        <ele>3.6</ele>
        <time>2021-05-17T08:24:18Z</time>
      </trkpt>
      <trkpt lat="41.5123420" lon="-8.7704720">
        <ele>3.6</ele>
        <time>2021-05-17T08:24:19Z</time>
      </trkpt>
      <trkpt lat="41.5123450" lon="-8.7704800">
        <ele>3.6</ele>
        <time>2021-05-17T08:24:20Z</time>
      </trkpt>
      <trkpt lat="41.5123490" lon="-8.7704870">
        <ele>3.6</ele>
        <time>2021-05-17T08:24:21Z</time>
      </trkpt>
      <trkpt lat="41.5123520" lon="-8.7704950">
        <ele>3.7</ele>
        <time>2021-05-17T08:24:22Z</time>
      </trkpt>
      <trkpt lat="41.5123510" lon="-8.7705010">
        <ele>3.7</ele>
        <time>2021-05-17T08:24:23Z</time>
      </trkpt>
      <trkpt lat="41.5123440" lon="-8.7705070">
        <ele>3.7</ele>
        <time>2021-05-17T08:24:24Z</time>
      </trkpt>
      <trkpt lat="41.5123510" lon="-8.7705180">
        <ele>3.7</ele>
        <time>2021-05-17T08:24:25Z</time>
      </trkpt>
      <trkpt lat="41.5123520" lon="-8.7705280">
        <ele>3.7</ele>
        <time>2021-05-17T08:24:26Z</time>
      </trkpt>
      <trkpt lat="41.5123540" lon="-8.7705350">
        <ele>3.7</ele>
        <time>2021-05-17T08:24:27Z</time>
      </trkpt>
      <trkpt lat="41.5123520" lon="-8.7705370">
        <ele>3.7</ele>
        <time>2021-05-17T08:24:28Z</time>
      </trkpt>
      <trkpt lat="41.5123520" lon="-8.7705380">
        <ele>3.7</ele>
        <time>2021-05-17T08:24:29Z</time>
      </trkpt>
      <trkpt lat="41.5123520" lon="-8.7705400">
        <ele>3.7</ele>
        <time>2021-05-17T08:24:30Z</time>
      </trkpt>
      <trkpt lat="41.5123510" lon="-8.7705410">
        <ele>3.7</ele>
        <time>2021-05-17T08:24:31Z</time>
      </trkpt>
      <trkpt lat="41.5123510" lon="-8.7705430">
        <ele>3.7</ele>
        <time>2021-05-17T08:24:32Z</time>
      </trkpt>
      <trkpt lat="41.5123510" lon="-8.7705440">
        <ele>3.7</ele>
        <time>2021-05-17T08:24:33Z</time>
      </trkpt>
      <trkpt lat="41.5123510" lon="-8.7705460">
        <ele>3.7</ele>
        <time>2021-05-17T08:24:34Z</time>
      </trkpt>
      <trkpt lat="41.5123510" lon="-8.7705480">
        <ele>3.7</ele>
        <time>2021-05-17T08:24:35Z</time>
      </trkpt>
      <trkpt lat="41.5123510" lon="-8.7705490">
        <ele>3.7</ele>
        <time>2021-05-17T08:24:36Z</time>
      </trkpt>
      <trkpt lat="41.5123500" lon="-8.7705510">
        <ele>3.7</ele>
        <time>2021-05-17T08:24:37Z</time>
      </trkpt>
      <trkpt lat="41.5123500" lon="-8.7705520">
        <ele>3.7</ele>
        <time>2021-05-17T08:24:38Z</time>
      </trkpt>
      <trkpt lat="41.5123500" lon="-8.7705540">
        <ele>3.7</ele>
        <time>2021-05-17T08:24:39Z</time>
      </trkpt>
      <trkpt lat="41.5123500" lon="-8.7705550">
        <ele>3.7</ele>
        <time>2021-05-17T08:24:40Z</time>
      </trkpt>
      <trkpt lat="41.5123500" lon="-8.7705570">
        <ele>3.7</ele>
        <time>2021-05-17T08:24:41Z</time>
      </trkpt>
      <trkpt lat="41.5123500" lon="-8.7705590">
        <ele>3.7</ele>
        <time>2021-05-17T08:24:42Z</time>
      </trkpt>
      <trkpt lat="41.5123500" lon="-8.7705600">
        <ele>3.7</ele>
        <time>2021-05-17T08:24:43Z</time>
      </trkpt>
      <trkpt lat="41.5123490" lon="-8.7705620">
        <ele>3.7</ele>
        <time>2021-05-17T08:24:44Z</time>
      </trkpt>
      <trkpt lat="41.5123490" lon="-8.7705630">
        <ele>3.7</ele>
        <time>2021-05-17T08:24:45Z</time>
      </trkpt>
      <trkpt lat="41.5123490" lon="-8.7705650">
        <ele>3.7</ele>
        <time>2021-05-17T08:24:46Z</time>
      </trkpt>
      <trkpt lat="41.5123490" lon="-8.7705670">
        <ele>3.7</ele>
        <time>2021-05-17T08:24:47Z</time>
      </trkpt>
      <trkpt lat="41.5123490" lon="-8.7705680">
        <ele>3.7</ele>
        <time>2021-05-17T08:24:48Z</time>
      </trkpt>
      <trkpt lat="41.5123490" lon="-8.7705700">
        <ele>3.7</ele>
        <time>2021-05-17T08:24:49Z</time>
      </trkpt>
      <trkpt lat="41.5123490" lon="-8.7705710">
        <ele>3.7</ele>
        <time>2021-05-17T08:24:50Z</time>
      </trkpt>
      <trkpt lat="41.5123480" lon="-8.7705730">
        <ele>3.7</ele>
        <time>2021-05-17T08:24:51Z</time>
      </trkpt>
      <trkpt lat="41.5123480" lon="-8.7705740">
        <ele>3.7</ele>
        <time>2021-05-17T08:24:52Z</time>
      </trkpt>
      <trkpt lat="41.5123480" lon="-8.7705760">
        <ele>3.7</ele>
        <time>2021-05-17T08:24:53Z</time>
      </trkpt>
      <trkpt lat="41.5123480" lon="-8.7705780">
        <ele>3.7</ele>
        <time>2021-05-17T08:24:54Z</time>
      </trkpt>
      <trkpt lat="41.5123480" lon="-8.7705790">
        <ele>3.7</ele>
        <time>2021-05-17T08:24:56Z</time>
      </trkpt>
      <trkpt lat="41.5123480" lon="-8.7705810">
        <ele>3.7</ele>
        <time>2021-05-17T08:24:57Z</time>
      </trkpt>
      <trkpt lat="41.5123470" lon="-8.7705820">
        <ele>3.7</ele>
        <time>2021-05-17T08:24:58Z</time>
      </trkpt>
      <trkpt lat="41.5123470" lon="-8.7705840">
        <ele>3.7</ele>
        <time>2021-05-17T08:24:59Z</time>
      </trkpt>
      <trkpt lat="41.5123470" lon="-8.7705850">
        <ele>3.7</ele>
        <time>2021-05-17T08:25:00Z</time>
      </trkpt>
      <trkpt lat="41.5123470" lon="-8.7705870">
        <ele>3.7</ele>
        <time>2021-05-17T08:25:01Z</time>
      </trkpt>
      <trkpt lat="41.5123440" lon="-8.7705860">
        <ele>3.7</ele>
        <time>2021-05-17T08:25:02Z</time>
      </trkpt>
      <trkpt lat="41.5123390" lon="-8.7705850">
        <ele>3.7</ele>
        <time>2021-05-17T08:25:03Z</time>
      </trkpt>
      <trkpt lat="41.5123310" lon="-8.7705810">
        <ele>3.7</ele>
        <time>2021-05-17T08:25:04Z</time>
      </trkpt>
      <trkpt lat="41.5123160" lon="-8.7705740">
        <ele>3.7</ele>
        <time>2021-05-17T08:25:05Z</time>
      </trkpt>
      <trkpt lat="41.5123130" lon="-8.7705750">
        <ele>3.7</ele>
        <time>2021-05-17T08:25:06Z</time>
      </trkpt>
      <trkpt lat="41.5123180" lon="-8.7705820">
        <ele>3.7</ele>
        <time>2021-05-17T08:25:07Z</time>
      </trkpt>
      <trkpt lat="41.5123190" lon="-8.7705850">
        <ele>3.7</ele>
        <time>2021-05-17T08:25:08Z</time>
      </trkpt>
      <trkpt lat="41.5123220" lon="-8.7705890">
        <ele>3.7</ele>
        <time>2021-05-17T08:25:09Z</time>
      </trkpt>
      <trkpt lat="41.5123280" lon="-8.7705590">
        <ele>3.7</ele>
        <time>2021-05-17T08:25:10Z</time>
      </trkpt>
      <trkpt lat="41.5123290" lon="-8.7705440">
        <ele>3.7</ele>
        <time>2021-05-17T08:25:11Z</time>
      </trkpt>
      <trkpt lat="41.5123360" lon="-8.7705460">
        <ele>3.7</ele>
        <time>2021-05-17T08:25:12Z</time>
      </trkpt>
      <trkpt lat="41.5123450" lon="-8.7705500">
        <ele>3.7</ele>
        <time>2021-05-17T08:25:13Z</time>
      </trkpt>
      <trkpt lat="41.5123620" lon="-8.7705750">
        <ele>3.7</ele>
        <time>2021-05-17T08:25:14Z</time>
      </trkpt>
      <trkpt lat="41.5123760" lon="-8.7705910">
        <ele>3.7</ele>
        <time>2021-05-17T08:25:15Z</time>
      </trkpt>
      <trkpt lat="41.5123770" lon="-8.7705990">
        <ele>3.7</ele>
        <time>2021-05-17T08:25:16Z</time>
      </trkpt>
      <trkpt lat="41.5123840" lon="-8.7706030">
        <ele>3.7</ele>
        <time>2021-05-17T08:25:17Z</time>
      </trkpt>
      <trkpt lat="41.5123950" lon="-8.7706240">
        <ele>3.7</ele>
        <time>2021-05-17T08:25:18Z</time>
      </trkpt>
      <trkpt lat="41.5124010" lon="-8.7706210">
        <ele>3.8</ele>
        <time>2021-05-17T08:25:19Z</time>
      </trkpt>
      <trkpt lat="41.5124060" lon="-8.7706070">
        <ele>3.8</ele>
        <time>2021-05-17T08:25:20Z</time>
      </trkpt>
      <trkpt lat="41.5124050" lon="-8.7706040">
        <ele>3.8</ele>
        <time>2021-05-17T08:25:21Z</time>
      </trkpt>
      <trkpt lat="41.5124070" lon="-8.7706010">
        <ele>3.8</ele>
        <time>2021-05-17T08:25:22Z</time>
      </trkpt>
      <trkpt lat="41.5124120" lon="-8.7705970">
        <ele>3.8</ele>
        <time>2021-05-17T08:25:23Z</time>
      </trkpt>
      <trkpt lat="41.5124200" lon="-8.7705930">
        <ele>3.8</ele>
        <time>2021-05-17T08:25:24Z</time>
      </trkpt>
      <trkpt lat="41.5124400" lon="-8.7705950">
        <ele>3.8</ele>
        <time>2021-05-17T08:25:25Z</time>
      </trkpt>
      <trkpt lat="41.5124520" lon="-8.7706140">
        <ele>3.9</ele>
        <time>2021-05-17T08:25:26Z</time>
      </trkpt>
      <trkpt lat="41.5124530" lon="-8.7706170">
        <ele>3.9</ele>
        <time>2021-05-17T08:25:27Z</time>
      </trkpt>
      <trkpt lat="41.5124560" lon="-8.7706190">
        <ele>3.9</ele>
        <time>2021-05-17T08:25:28Z</time>
      </trkpt>
      <trkpt lat="41.5124620" lon="-8.7706250">
        <ele>3.9</ele>
        <time>2021-05-17T08:25:29Z</time>
      </trkpt>
      <trkpt lat="41.5124700" lon="-8.7706290">
        <ele>3.9</ele>
        <time>2021-05-17T08:25:30Z</time>
      </trkpt>
      <trkpt lat="41.5124730" lon="-8.7706410">
        <ele>3.9</ele>
        <time>2021-05-17T08:25:31Z</time>
      </trkpt>
      <trkpt lat="41.5124850" lon="-8.7706530">
        <ele>3.9</ele>
        <time>2021-05-17T08:25:32Z</time>
      </trkpt>
      <trkpt lat="41.5125050" lon="-8.7706510">
        <ele>3.9</ele>
        <time>2021-05-17T08:25:33Z</time>
      </trkpt>
      <trkpt lat="41.5125200" lon="-8.7706660">
        <ele>4.0</ele>
        <time>2021-05-17T08:25:34Z</time>
      </trkpt>
      <trkpt lat="41.5125320" lon="-8.7706690">
        <ele>4.0</ele>
        <time>2021-05-17T08:25:35Z</time>
      </trkpt>
      <trkpt lat="41.5125400" lon="-8.7706710">
        <ele>4.0</ele>
        <time>2021-05-17T08:25:36Z</time>
      </trkpt>
      <trkpt lat="41.5125500" lon="-8.7706730">
        <ele>4.0</ele>
        <time>2021-05-17T08:25:37Z</time>
      </trkpt>
      <trkpt lat="41.5125560" lon="-8.7706890">
        <ele>4.0</ele>
        <time>2021-05-17T08:25:38Z</time>
      </trkpt>
      <trkpt lat="41.5125550" lon="-8.7706910">
        <ele>4.0</ele>
        <time>2021-05-17T08:25:39Z</time>
      </trkpt>
      <trkpt lat="41.5125660" lon="-8.7706940">
        <ele>4.1</ele>
        <time>2021-05-17T08:25:40Z</time>
      </trkpt>
      <trkpt lat="41.5125740" lon="-8.7707070">
        <ele>4.1</ele>
        <time>2021-05-17T08:25:41Z</time>
      </trkpt>
      <trkpt lat="41.5125880" lon="-8.7707050">
        <ele>4.1</ele>
        <time>2021-05-17T08:25:42Z</time>
      </trkpt>
      <trkpt lat="41.5125910" lon="-8.7707130">
        <ele>4.1</ele>
        <time>2021-05-17T08:25:43Z</time>
      </trkpt>
      <trkpt lat="41.5125970" lon="-8.7707300">
        <ele>4.1</ele>
        <time>2021-05-17T08:25:44Z</time>
      </trkpt>
      <trkpt lat="41.5126010" lon="-8.7707500">
        <ele>4.1</ele>
        <time>2021-05-17T08:25:45Z</time>
      </trkpt>
      <trkpt lat="41.5125920" lon="-8.7707710">
        <ele>4.2</ele>
        <time>2021-05-17T08:25:46Z</time>
      </trkpt>
      <trkpt lat="41.5126040" lon="-8.7707960">
        <ele>4.2</ele>
        <time>2021-05-17T08:25:47Z</time>
      </trkpt>
      <trkpt lat="41.5126050" lon="-8.7708060">
        <ele>4.2</ele>
        <time>2021-05-17T08:25:48Z</time>
      </trkpt>
      <trkpt lat="41.5126070" lon="-8.7708160">
        <ele>4.2</ele>
        <time>2021-05-17T08:25:49Z</time>
      </trkpt>
      <trkpt lat="41.5126110" lon="-8.7708300">
        <ele>4.2</ele>
        <time>2021-05-17T08:25:50Z</time>
      </trkpt>
      <trkpt lat="41.5126070" lon="-8.7708450">
        <ele>4.3</ele>
        <time>2021-05-17T08:25:51Z</time>
      </trkpt>
      <trkpt lat="41.5126080" lon="-8.7708570">
        <ele>4.3</ele>
        <time>2021-05-17T08:25:52Z</time>
      </trkpt>
      <trkpt lat="41.5126100" lon="-8.7708630">
        <ele>4.3</ele>
        <time>2021-05-17T08:25:53Z</time>
      </trkpt>
      <trkpt lat="41.5126160" lon="-8.7708760">
        <ele>4.3</ele>
        <time>2021-05-17T08:25:54Z</time>
      </trkpt>
      <trkpt lat="41.5126200" lon="-8.7708990">
        <ele>4.3</ele>
        <time>2021-05-17T08:25:55Z</time>
      </trkpt>
      <trkpt lat="41.5126350" lon="-8.7709110">
        <ele>4.4</ele>
        <time>2021-05-17T08:25:56Z</time>
      </trkpt>
      <trkpt lat="41.5126420" lon="-8.7709180">
        <ele>4.4</ele>
        <time>2021-05-17T08:25:57Z</time>
      </trkpt>
      <trkpt lat="41.5126480" lon="-8.7709240">
        <ele>4.4</ele>
        <time>2021-05-17T08:25:58Z</time>
      </trkpt>
      <trkpt lat="41.5126540" lon="-8.7709310">
        <ele>4.4</ele>
        <time>2021-05-17T08:25:59Z</time>
      </trkpt>
      <trkpt lat="41.5126640" lon="-8.7709400">
        <ele>4.5</ele>
        <time>2021-05-17T08:26:00Z</time>
      </trkpt>
      <trkpt lat="41.5126810" lon="-8.7709520">
        <ele>4.5</ele>
        <time>2021-05-17T08:26:01Z</time>
      </trkpt>
      <trkpt lat="41.5127040" lon="-8.7709630">
        <ele>4.5</ele>
        <time>2021-05-17T08:26:02Z</time>
      </trkpt>
      <trkpt lat="41.5127130" lon="-8.7709670">
        <ele>4.6</ele>
        <time>2021-05-17T08:26:03Z</time>
      </trkpt>
      <trkpt lat="41.5127220" lon="-8.7709720">
        <ele>4.6</ele>
        <time>2021-05-17T08:26:04Z</time>
      </trkpt>
      <trkpt lat="41.5127330" lon="-8.7709730">
        <ele>4.6</ele>
        <time>2021-05-17T08:26:05Z</time>
      </trkpt>
      <trkpt lat="41.5127480" lon="-8.7709820">
        <ele>4.6</ele>
        <time>2021-05-17T08:26:06Z</time>
      </trkpt>
      <trkpt lat="41.5127600" lon="-8.7709880">
        <ele>4.7</ele>
        <time>2021-05-17T08:26:07Z</time>
      </trkpt>
      <trkpt lat="41.5127750" lon="-8.7709950">
        <ele>4.7</ele>
        <time>2021-05-17T08:26:08Z</time>
      </trkpt>
      <trkpt lat="41.5128050" lon="-8.7710050">
        <ele>4.7</ele>
        <time>2021-05-17T08:26:09Z</time>
      </trkpt>
      <trkpt lat="41.5128140" lon="-8.7710100">
        <ele>4.8</ele>
        <time>2021-05-17T08:26:10Z</time>
      </trkpt>
      <trkpt lat="41.5128190" lon="-8.7710150">
        <ele>4.8</ele>
        <time>2021-05-17T08:26:11Z</time>
      </trkpt>
      <trkpt lat="41.5128330" lon="-8.7710240">
        <ele>4.8</ele>
        <time>2021-05-17T08:26:12Z</time>
      </trkpt>
      <trkpt lat="41.5128380" lon="-8.7710380">
        <ele>4.8</ele>
        <time>2021-05-17T08:26:13Z</time>
      </trkpt>
      <trkpt lat="41.5128470" lon="-8.7710480">
        <ele>4.8</ele>
        <time>2021-05-17T08:26:14Z</time>
      </trkpt>
      <trkpt lat="41.5128510" lon="-8.7710610">
        <ele>4.9</ele>
        <time>2021-05-17T08:26:15Z</time>
      </trkpt>
      <trkpt lat="41.5128690" lon="-8.7710580">
        <ele>4.9</ele>
        <time>2021-05-17T08:26:16Z</time>
      </trkpt>
      <trkpt lat="41.5128800" lon="-8.7710750">
        <ele>4.9</ele>
        <time>2021-05-17T08:26:17Z</time>
      </trkpt>
      <trkpt lat="41.5128920" lon="-8.7710920">
        <ele>5.0</ele>
        <time>2021-05-17T08:26:18Z</time>
      </trkpt>
      <trkpt lat="41.5128990" lon="-8.7711170">
        <ele>5.0</ele>
        <time>2021-05-17T08:26:19Z</time>
      </trkpt>
      <trkpt lat="41.5129000" lon="-8.7711340">
        <ele>5.0</ele>
        <time>2021-05-17T08:26:20Z</time>
      </trkpt>
      <trkpt lat="41.5129060" lon="-8.7711540">
        <ele>5.1</ele>
        <time>2021-05-17T08:26:21Z</time>
      </trkpt>
      <trkpt lat="41.5129130" lon="-8.7711660">
        <ele>5.1</ele>
        <time>2021-05-17T08:26:22Z</time>
      </trkpt>
      <trkpt lat="41.5129170" lon="-8.7711800">
        <ele>5.1</ele>
        <time>2021-05-17T08:26:23Z</time>
      </trkpt>
      <trkpt lat="41.5129220" lon="-8.7711920">
        <ele>5.1</ele>
        <time>2021-05-17T08:26:24Z</time>
      </trkpt>
      <trkpt lat="41.5129240" lon="-8.7712040">
        <ele>5.1</ele>
        <time>2021-05-17T08:26:25Z</time>
      </trkpt>
      <trkpt lat="41.5129360" lon="-8.7712190">
        <ele>5.1</ele>
        <time>2021-05-17T08:26:26Z</time>
      </trkpt>
      <trkpt lat="41.5129460" lon="-8.7712300">
        <ele>5.2</ele>
        <time>2021-05-17T08:26:27Z</time>
      </trkpt>
      <trkpt lat="41.5129540" lon="-8.7712460">
        <ele>5.2</ele>
        <time>2021-05-17T08:26:28Z</time>
      </trkpt>
      <trkpt lat="41.5129630" lon="-8.7712550">
        <ele>5.2</ele>
        <time>2021-05-17T08:26:29Z</time>
      </trkpt>
      <trkpt lat="41.5129670" lon="-8.7712570">
        <ele>5.2</ele>
        <time>2021-05-17T08:26:30Z</time>
      </trkpt>
      <trkpt lat="41.5129730" lon="-8.7712670">
        <ele>5.2</ele>
        <time>2021-05-17T08:26:31Z</time>
      </trkpt>
      <trkpt lat="41.5129810" lon="-8.7712770">
        <ele>5.2</ele>
        <time>2021-05-17T08:26:32Z</time>
      </trkpt>
      <trkpt lat="41.5129930" lon="-8.7712830">
        <ele>5.3</ele>
        <time>2021-05-17T08:26:33Z</time>
      </trkpt>
      <trkpt lat="41.5129990" lon="-8.7712970">
        <ele>5.3</ele>
        <time>2021-05-17T08:26:34Z</time>
      </trkpt>
      <trkpt lat="41.5130070" lon="-8.7713090">
        <ele>5.3</ele>
        <time>2021-05-17T08:26:35Z</time>
      </trkpt>
      <trkpt lat="41.5130080" lon="-8.7713200">
        <ele>5.3</ele>
        <time>2021-05-17T08:26:36Z</time>
      </trkpt>
      <trkpt lat="41.5130210" lon="-8.7713340">
        <ele>5.3</ele>
        <time>2021-05-17T08:26:37Z</time>
      </trkpt>
      <trkpt lat="41.5130320" lon="-8.7713370">
        <ele>5.4</ele>
        <time>2021-05-17T08:26:38Z</time>
      </trkpt>
      <trkpt lat="41.5130430" lon="-8.7713400">
        <ele>5.4</ele>
        <time>2021-05-17T08:26:39Z</time>
      </trkpt>
      <trkpt lat="41.5130740" lon="-8.7713550">
        <ele>5.4</ele>
        <time>2021-05-17T08:26:40Z</time>
      </trkpt>
      <trkpt lat="41.5130890" lon="-8.7713610">
        <ele>5.4</ele>
        <time>2021-05-17T08:26:41Z</time>
      </trkpt>
      <trkpt lat="41.5131080" lon="-8.7713560">
        <ele>5.5</ele>
        <time>2021-05-17T08:26:42Z</time>
      </trkpt>
      <trkpt lat="41.5131410" lon="-8.7713620">
        <ele>5.5</ele>
        <time>2021-05-17T08:26:43Z</time>
      </trkpt>
      <trkpt lat="41.5131530" lon="-8.7713640">
        <ele>5.5</ele>
        <time>2021-05-17T08:26:44Z</time>
      </trkpt>
      <trkpt lat="41.5131660" lon="-8.7713840">
        <ele>5.6</ele>
        <time>2021-05-17T08:26:45Z</time>
      </trkpt>
      <trkpt lat="41.5131820" lon="-8.7713860">
        <ele>5.6</ele>
        <time>2021-05-17T08:26:46Z</time>
      </trkpt>
      <trkpt lat="41.5131970" lon="-8.7713990">
        <ele>5.6</ele>
        <time>2021-05-17T08:26:47Z</time>
      </trkpt>
      <trkpt lat="41.5131980" lon="-8.7714130">
        <ele>5.6</ele>
        <time>2021-05-17T08:26:48Z</time>
      </trkpt>
      <trkpt lat="41.5132030" lon="-8.7714180">
        <ele>5.6</ele>
        <time>2021-05-17T08:26:49Z</time>
      </trkpt>
      <trkpt lat="41.5132130" lon="-8.7714260">
        <ele>5.6</ele>
        <time>2021-05-17T08:26:50Z</time>
      </trkpt>
      <trkpt lat="41.5132170" lon="-8.7714350">
        <ele>5.7</ele>
        <time>2021-05-17T08:26:51Z</time>
      </trkpt>
      <trkpt lat="41.5132170" lon="-8.7714360">
        <ele>5.7</ele>
        <time>2021-05-17T08:26:52Z</time>
      </trkpt>
      <trkpt lat="41.5132260" lon="-8.7714450">
        <ele>5.7</ele>
        <time>2021-05-17T08:26:53Z</time>
      </trkpt>
      <trkpt lat="41.5132340" lon="-8.7714500">
        <ele>5.7</ele>
        <time>2021-05-17T08:26:54Z</time>
      </trkpt>
      <trkpt lat="41.5132420" lon="-8.7714450">
        <ele>5.7</ele>
        <time>2021-05-17T08:26:55Z</time>
      </trkpt>
      <trkpt lat="41.5132520" lon="-8.7714350">
        <ele>5.7</ele>
        <time>2021-05-17T08:26:56Z</time>
      </trkpt>
      <trkpt lat="41.5132640" lon="-8.7714330">
        <ele>5.7</ele>
        <time>2021-05-17T08:26:57Z</time>
      </trkpt>
      <trkpt lat="41.5132680" lon="-8.7714250">
        <ele>5.7</ele>
        <time>2021-05-17T08:26:58Z</time>
      </trkpt>
      <trkpt lat="41.5132710" lon="-8.7714140">
        <ele>5.7</ele>
        <time>2021-05-17T08:26:59Z</time>
      </trkpt>
      <trkpt lat="41.5132790" lon="-8.7714060">
        <ele>5.7</ele>
        <time>2021-05-17T08:27:00Z</time>
      </trkpt>
      <trkpt lat="41.5132880" lon="-8.7714060">
        <ele>5.7</ele>
        <time>2021-05-17T08:27:01Z</time>
      </trkpt>
      <trkpt lat="41.5132920" lon="-8.7714020">
        <ele>5.7</ele>
        <time>2021-05-17T08:27:02Z</time>
      </trkpt>
      <trkpt lat="41.5132950" lon="-8.7713940">
        <ele>5.7</ele>
        <time>2021-05-17T08:27:03Z</time>
      </trkpt>
      <trkpt lat="41.5133050" lon="-8.7713930">
        <ele>5.7</ele>
        <time>2021-05-17T08:27:04Z</time>
      </trkpt>
      <trkpt lat="41.5133080" lon="-8.7713800">
        <ele>5.7</ele>
        <time>2021-05-17T08:27:05Z</time>
      </trkpt>
      <trkpt lat="41.5133040" lon="-8.7713730">
        <ele>5.7</ele>
        <time>2021-05-17T08:27:06Z</time>
      </trkpt>
      <trkpt lat="41.5133060" lon="-8.7713670">
        <ele>5.7</ele>
        <time>2021-05-17T08:27:07Z</time>
      </trkpt>
      <trkpt lat="41.5133130" lon="-8.7713610">
        <ele>5.7</ele>
        <time>2021-05-17T08:27:08Z</time>
      </trkpt>
      <trkpt lat="41.5133100" lon="-8.7713530">
        <ele>5.7</ele>
        <time>2021-05-17T08:27:09Z</time>
      </trkpt>
      <trkpt lat="41.5133060" lon="-8.7713520">
        <ele>5.7</ele>
        <time>2021-05-17T08:27:10Z</time>
      </trkpt>
      <trkpt lat="41.5133020" lon="-8.7713520">
        <ele>5.7</ele>
        <time>2021-05-17T08:27:11Z</time>
      </trkpt>
      <trkpt lat="41.5133020" lon="-8.7713510">
        <ele>5.7</ele>
        <time>2021-05-17T08:27:12Z</time>
      </trkpt>
      <trkpt lat="41.5133050" lon="-8.7713510">
        <ele>5.7</ele>
        <time>2021-05-17T08:27:14Z</time>
      </trkpt>
      <trkpt lat="41.5133070" lon="-8.7713510">
        <ele>5.7</ele>
        <time>2021-05-17T08:27:15Z</time>
      </trkpt>
      <trkpt lat="41.5133090" lon="-8.7713620">
        <ele>5.7</ele>
        <time>2021-05-17T08:27:16Z</time>
      </trkpt>
      <trkpt lat="41.5133120" lon="-8.7713580">
        <ele>5.7</ele>
        <time>2021-05-17T08:27:17Z</time>
      </trkpt>
      <trkpt lat="41.5133180" lon="-8.7713490">
        <ele>5.7</ele>
        <time>2021-05-17T08:27:18Z</time>
      </trkpt>
      <trkpt lat="41.5133200" lon="-8.7713410">
        <ele>5.7</ele>
        <time>2021-05-17T08:27:19Z</time>
      </trkpt>
      <trkpt lat="41.5133250" lon="-8.7713360">
        <ele>5.7</ele>
        <time>2021-05-17T08:27:20Z</time>
      </trkpt>
      <trkpt lat="41.5133260" lon="-8.7713350">
        <ele>5.7</ele>
        <time>2021-05-17T08:27:21Z</time>
      </trkpt>
      <trkpt lat="41.5133280" lon="-8.7713280">
        <ele>5.7</ele>
        <time>2021-05-17T08:27:22Z</time>
      </trkpt>
      <trkpt lat="41.5133320" lon="-8.7713240">
        <ele>5.7</ele>
        <time>2021-05-17T08:27:23Z</time>
      </trkpt>
      <trkpt lat="41.5133340" lon="-8.7713110">
        <ele>5.7</ele>
        <time>2021-05-17T08:27:24Z</time>
      </trkpt>
      <trkpt lat="41.5133350" lon="-8.7713080">
        <ele>5.7</ele>
        <time>2021-05-17T08:27:25Z</time>
      </trkpt>
      <trkpt lat="41.5133350" lon="-8.7713050">
        <ele>5.7</ele>
        <time>2021-05-17T08:27:26Z</time>
      </trkpt>
      <trkpt lat="41.5133350" lon="-8.7713020">
        <ele>5.7</ele>
        <time>2021-05-17T08:27:27Z</time>
      </trkpt>
      <trkpt lat="41.5133360" lon="-8.7712990">
        <ele>5.7</ele>
        <time>2021-05-17T08:27:28Z</time>
      </trkpt>
      <trkpt lat="41.5133360" lon="-8.7712960">
        <ele>5.7</ele>
        <time>2021-05-17T08:27:29Z</time>
      </trkpt>
      <trkpt lat="41.5133360" lon="-8.7712920">
        <ele>5.7</ele>
        <time>2021-05-17T08:27:30Z</time>
      </trkpt>
      <trkpt lat="41.5133360" lon="-8.7712890">
        <ele>5.7</ele>
        <time>2021-05-17T08:27:31Z</time>
      </trkpt>
      <trkpt lat="41.5133370" lon="-8.7712860">
        <ele>5.7</ele>
        <time>2021-05-17T08:27:32Z</time>
      </trkpt>
      <trkpt lat="41.5133370" lon="-8.7712830">
        <ele>5.7</ele>
        <time>2021-05-17T08:27:33Z</time>
      </trkpt>
      <trkpt lat="41.5133370" lon="-8.7712800">
        <ele>5.7</ele>
        <time>2021-05-17T08:27:34Z</time>
      </trkpt>
      <trkpt lat="41.5133380" lon="-8.7712770">
        <ele>5.7</ele>
        <time>2021-05-17T08:27:35Z</time>
      </trkpt>
      <trkpt lat="41.5133380" lon="-8.7712740">
        <ele>5.7</ele>
        <time>2021-05-17T08:27:36Z</time>
      </trkpt>
      <trkpt lat="41.5133340" lon="-8.7712540">
        <ele>5.7</ele>
        <time>2021-05-17T08:27:37Z</time>
      </trkpt>
      <trkpt lat="41.5133320" lon="-8.7712480">
        <ele>5.7</ele>
        <time>2021-05-17T08:27:38Z</time>
      </trkpt>
      <trkpt lat="41.5133300" lon="-8.7712430">
        <ele>5.7</ele>
        <time>2021-05-17T08:27:39Z</time>
      </trkpt>
      <trkpt lat="41.5133280" lon="-8.7712370">
        <ele>5.7</ele>
        <time>2021-05-17T08:27:40Z</time>
      </trkpt>
      <trkpt lat="41.5133250" lon="-8.7712310">
        <ele>5.7</ele>
        <time>2021-05-17T08:27:41Z</time>
      </trkpt>
      <trkpt lat="41.5133230" lon="-8.7712250">
        <ele>5.7</ele>
        <time>2021-05-17T08:27:42Z</time>
      </trkpt>
      <trkpt lat="41.5133210" lon="-8.7712200">
        <ele>5.7</ele>
        <time>2021-05-17T08:27:43Z</time>
      </trkpt>
      <trkpt lat="41.5133190" lon="-8.7712140">
        <ele>5.7</ele>
        <time>2021-05-17T08:27:44Z</time>
      </trkpt>
      <trkpt lat="41.5133210" lon="-8.7711970">
        <ele>5.7</ele>
        <time>2021-05-17T08:27:45Z</time>
      </trkpt>
      <trkpt lat="41.5133220" lon="-8.7711830">
        <ele>5.7</ele>
        <time>2021-05-17T08:27:46Z</time>
      </trkpt>
      <trkpt lat="41.5133230" lon="-8.7711750">
        <ele>5.7</ele>
        <time>2021-05-17T08:27:47Z</time>
      </trkpt>
      <trkpt lat="41.5133220" lon="-8.7711640">
        <ele>5.7</ele>
        <time>2021-05-17T08:27:48Z</time>
      </trkpt>
      <trkpt lat="41.5133240" lon="-8.7711550">
        <ele>5.7</ele>
        <time>2021-05-17T08:27:49Z</time>
      </trkpt>
      <trkpt lat="41.5133280" lon="-8.7711410">
        <ele>5.7</ele>
        <time>2021-05-17T08:27:50Z</time>
      </trkpt>
      <trkpt lat="41.5133280" lon="-8.7711320">
        <ele>5.7</ele>
        <time>2021-05-17T08:27:51Z</time>
      </trkpt>
      <trkpt lat="41.5133380" lon="-8.7711020">
        <ele>5.7</ele>
        <time>2021-05-17T08:27:52Z</time>
      </trkpt>
      <trkpt lat="41.5133460" lon="-8.7710880">
        <ele>5.7</ele>
        <time>2021-05-17T08:27:53Z</time>
      </trkpt>
      <trkpt lat="41.5133530" lon="-8.7710730">
        <ele>5.7</ele>
        <time>2021-05-17T08:27:54Z</time>
      </trkpt>
      <trkpt lat="41.5133520" lon="-8.7710590">
        <ele>5.7</ele>
        <time>2021-05-17T08:27:55Z</time>
      </trkpt>
      <trkpt lat="41.5133520" lon="-8.7710570">
        <ele>5.7</ele>
        <time>2021-05-17T08:27:56Z</time>
      </trkpt>
      <trkpt lat="41.5133520" lon="-8.7710570">
        <ele>5.7</ele>
        <time>2021-05-17T08:27:57Z</time>
      </trkpt>
      <trkpt lat="41.5133520" lon="-8.7710570">
        <ele>5.7</ele>
        <time>2021-05-17T08:27:58Z</time>
      </trkpt>
      <trkpt lat="41.5133520" lon="-8.7710570">
        <ele>5.7</ele>
        <time>2021-05-17T08:27:59Z</time>
      </trkpt>
      <trkpt lat="41.5133370" lon="-8.7711040">
        <ele>5.7</ele>
        <time>2021-05-17T08:28:00Z</time>
      </trkpt>
      <trkpt lat="41.5133440" lon="-8.7711470">
        <ele>5.7</ele>
        <time>2021-05-17T08:28:01Z</time>
      </trkpt>
      <trkpt lat="41.5133460" lon="-8.7711900">
        <ele>5.7</ele>
        <time>2021-05-17T08:28:02Z</time>
      </trkpt>
      <trkpt lat="41.5133480" lon="-8.7712320">
        <ele>5.7</ele>
        <time>2021-05-17T08:28:03Z</time>
      </trkpt>
      <trkpt lat="41.5133500" lon="-8.7712750">
        <ele>5.6</ele>
        <time>2021-05-17T08:28:04Z</time>
      </trkpt>
      <trkpt lat="41.5133520" lon="-8.7713170">
        <ele>5.5</ele>
        <time>2021-05-17T08:28:05Z</time>
      </trkpt>
      <trkpt lat="41.5133530" lon="-8.7713010">
        <ele>5.5</ele>
        <time>2021-05-17T08:28:06Z</time>
      </trkpt>
      <trkpt lat="41.5133540" lon="-8.7712950">
        <ele>5.5</ele>
        <time>2021-05-17T08:28:07Z</time>
      </trkpt>
      <trkpt lat="41.5133540" lon="-8.7712880">
        <ele>5.5</ele>
        <time>2021-05-17T08:28:08Z</time>
      </trkpt>
      <trkpt lat="41.5133540" lon="-8.7712810">
        <ele>5.5</ele>
        <time>2021-05-17T08:28:09Z</time>
      </trkpt>
      <trkpt lat="41.5133550" lon="-8.7712750">
        <ele>5.5</ele>
        <time>2021-05-17T08:28:10Z</time>
      </trkpt>
      <trkpt lat="41.5133550" lon="-8.7712680">
        <ele>5.5</ele>
        <time>2021-05-17T08:28:11Z</time>
      </trkpt>
      <trkpt lat="41.5133540" lon="-8.7712610">
        <ele>5.4</ele>
        <time>2021-05-17T08:28:12Z</time>
      </trkpt>
      <trkpt lat="41.5133550" lon="-8.7712420">
        <ele>5.4</ele>
        <time>2021-05-17T08:28:13Z</time>
      </trkpt>
      <trkpt lat="41.5133570" lon="-8.7712310">
        <ele>5.4</ele>
        <time>2021-05-17T08:28:14Z</time>
      </trkpt>
      <trkpt lat="41.5133630" lon="-8.7712330">
        <ele>5.4</ele>
        <time>2021-05-17T08:28:15Z</time>
      </trkpt>
      <trkpt lat="41.5133720" lon="-8.7712430">
        <ele>5.4</ele>
        <time>2021-05-17T08:28:16Z</time>
      </trkpt>
      <trkpt lat="41.5133810" lon="-8.7712540">
        <ele>5.4</ele>
        <time>2021-05-17T08:28:17Z</time>
      </trkpt>
      <trkpt lat="41.5133900" lon="-8.7712650">
        <ele>5.3</ele>
        <time>2021-05-17T08:28:18Z</time>
      </trkpt>
      <trkpt lat="41.5133910" lon="-8.7711870">
        <ele>5.2</ele>
        <time>2021-05-17T08:28:19Z</time>
      </trkpt>
      <trkpt lat="41.5133520" lon="-8.7712890">
        <ele>5.0</ele>
        <time>2021-05-17T08:28:20Z</time>
      </trkpt>
      <trkpt lat="41.5133570" lon="-8.7712980">
        <ele>5.0</ele>
        <time>2021-05-17T08:28:21Z</time>
      </trkpt>
      <trkpt lat="41.5133600" lon="-8.7712890">
        <ele>5.0</ele>
        <time>2021-05-17T08:28:22Z</time>
      </trkpt>
      <trkpt lat="41.5133630" lon="-8.7712810">
        <ele>5.0</ele>
        <time>2021-05-17T08:28:23Z</time>
      </trkpt>
      <trkpt lat="41.5133660" lon="-8.7712720">
        <ele>5.0</ele>
        <time>2021-05-17T08:28:24Z</time>
      </trkpt>
      <trkpt lat="41.5133690" lon="-8.7712640">
        <ele>5.0</ele>
        <time>2021-05-17T08:28:25Z</time>
      </trkpt>
      <trkpt lat="41.5133720" lon="-8.7712550">
        <ele>5.0</ele>
        <time>2021-05-17T08:28:26Z</time>
      </trkpt>
      <trkpt lat="41.5133750" lon="-8.7712470">
        <ele>4.9</ele>
        <time>2021-05-17T08:28:27Z</time>
      </trkpt>
      <trkpt lat="41.5133800" lon="-8.7712420">
        <ele>4.9</ele>
        <time>2021-05-17T08:28:28Z</time>
      </trkpt>
      <trkpt lat="41.5133810" lon="-8.7712440">
        <ele>4.9</ele>
        <time>2021-05-17T08:28:29Z</time>
      </trkpt>
      <trkpt lat="41.5133840" lon="-8.7712530">
        <ele>4.9</ele>
        <time>2021-05-17T08:28:30Z</time>
      </trkpt>
      <trkpt lat="41.5133880" lon="-8.7712390">
        <ele>4.9</ele>
        <time>2021-05-17T08:28:31Z</time>
      </trkpt>
      <trkpt lat="41.5133920" lon="-8.7712160">
        <ele>4.9</ele>
        <time>2021-05-17T08:28:32Z</time>
      </trkpt>
      <trkpt lat="41.5133840" lon="-8.7712260">
        <ele>4.8</ele>
        <time>2021-05-17T08:28:33Z</time>
      </trkpt>
      <trkpt lat="41.5133770" lon="-8.7712390">
        <ele>4.8</ele>
        <time>2021-05-17T08:28:34Z</time>
      </trkpt>
      <trkpt lat="41.5133790" lon="-8.7712450">
        <ele>4.8</ele>
        <time>2021-05-17T08:28:35Z</time>
      </trkpt>
      <trkpt lat="41.5133800" lon="-8.7712510">
        <ele>4.8</ele>
        <time>2021-05-17T08:28:36Z</time>
      </trkpt>
      <trkpt lat="41.5133850" lon="-8.7712510">
        <ele>4.8</ele>
        <time>2021-05-17T08:28:37Z</time>
      </trkpt>
      <trkpt lat="41.5133880" lon="-8.7712530">
        <ele>4.8</ele>
        <time>2021-05-17T08:28:38Z</time>
      </trkpt>
      <trkpt lat="41.5133920" lon="-8.7712560">
        <ele>4.8</ele>
        <time>2021-05-17T08:28:39Z</time>
      </trkpt>
      <trkpt lat="41.5133960" lon="-8.7712580">
        <ele>4.7</ele>
        <time>2021-05-17T08:28:40Z</time>
      </trkpt>
      <trkpt lat="41.5133990" lon="-8.7712600">
        <ele>4.7</ele>
        <time>2021-05-17T08:28:41Z</time>
      </trkpt>
      <trkpt lat="41.5134030" lon="-8.7712620">
        <ele>4.7</ele>
        <time>2021-05-17T08:28:42Z</time>
      </trkpt>
      <trkpt lat="41.5134060" lon="-8.7712640">
        <ele>4.7</ele>
        <time>2021-05-17T08:28:43Z</time>
      </trkpt>
      <trkpt lat="41.5134100" lon="-8.7712660">
        <ele>4.7</ele>
        <time>2021-05-17T08:28:44Z</time>
      </trkpt>
      <trkpt lat="41.5134140" lon="-8.7712690">
        <ele>4.7</ele>
        <time>2021-05-17T08:28:45Z</time>
      </trkpt>
      <trkpt lat="41.5134170" lon="-8.7712710">
        <ele>4.7</ele>
        <time>2021-05-17T08:28:46Z</time>
      </trkpt>
      <trkpt lat="41.5134210" lon="-8.7712730">
        <ele>4.7</ele>
        <time>2021-05-17T08:28:47Z</time>
      </trkpt>
      <trkpt lat="41.5134350" lon="-8.7712540">
        <ele>4.6</ele>
        <time>2021-05-17T08:28:48Z</time>
      </trkpt>
      <trkpt lat="41.5134430" lon="-8.7712450">
        <ele>4.6</ele>
        <time>2021-05-17T08:28:49Z</time>
      </trkpt>
      <trkpt lat="41.5134520" lon="-8.7712360">
        <ele>4.6</ele>
        <time>2021-05-17T08:28:50Z</time>
      </trkpt>
      <trkpt lat="41.5134720" lon="-8.7712590">
        <ele>4.5</ele>
        <time>2021-05-17T08:28:51Z</time>
      </trkpt>
      <trkpt lat="41.5134790" lon="-8.7712670">
        <ele>4.5</ele>
        <time>2021-05-17T08:28:52Z</time>
      </trkpt>
      <trkpt lat="41.5134850" lon="-8.7712740">
        <ele>4.5</ele>
        <time>2021-05-17T08:28:53Z</time>
      </trkpt>
      <trkpt lat="41.5134940" lon="-8.7712870">
        <ele>4.5</ele>
        <time>2021-05-17T08:28:54Z</time>
      </trkpt>
      <trkpt lat="41.5135080" lon="-8.7712970">
        <ele>4.5</ele>
        <time>2021-05-17T08:28:55Z</time>
      </trkpt>
      <trkpt lat="41.5135030" lon="-8.7713310">
        <ele>4.4</ele>
        <time>2021-05-17T08:28:56Z</time>
      </trkpt>
      <trkpt lat="41.5134980" lon="-8.7713490">
        <ele>4.3</ele>
        <time>2021-05-17T08:28:57Z</time>
      </trkpt>
      <trkpt lat="41.5134990" lon="-8.7713610">
        <ele>4.4</ele>
        <time>2021-05-17T08:28:58Z</time>
      </trkpt>
      <trkpt lat="41.5135230" lon="-8.7713660">
        <ele>4.4</ele>
        <time>2021-05-17T08:28:59Z</time>
      </trkpt>
      <trkpt lat="41.5135370" lon="-8.7713860">
        <ele>4.4</ele>
        <time>2021-05-17T08:29:00Z</time>
      </trkpt>
      <trkpt lat="41.5135420" lon="-8.7713990">
        <ele>4.4</ele>
        <time>2021-05-17T08:29:01Z</time>
      </trkpt>
      <trkpt lat="41.5135470" lon="-8.7714110">
        <ele>4.4</ele>
        <time>2021-05-17T08:29:02Z</time>
      </trkpt>
      <trkpt lat="41.5135490" lon="-8.7714270">
        <ele>4.4</ele>
        <time>2021-05-17T08:29:03Z</time>
      </trkpt>
      <trkpt lat="41.5135420" lon="-8.7714400">
        <ele>4.4</ele>
        <time>2021-05-17T08:29:04Z</time>
      </trkpt>
      <trkpt lat="41.5135280" lon="-8.7714450">
        <ele>4.4</ele>
        <time>2021-05-17T08:29:05Z</time>
      </trkpt>
      <trkpt lat="41.5135230" lon="-8.7714690">
        <ele>4.5</ele>
        <time>2021-05-17T08:29:06Z</time>
      </trkpt>
      <trkpt lat="41.5135140" lon="-8.7714860">
        <ele>4.5</ele>
        <time>2021-05-17T08:29:07Z</time>
      </trkpt>
      <trkpt lat="41.5135100" lon="-8.7715010">
        <ele>4.5</ele>
        <time>2021-05-17T08:29:08Z</time>
      </trkpt>
      <trkpt lat="41.5135300" lon="-8.7715180">
        <ele>4.5</ele>
        <time>2021-05-17T08:29:10Z</time>
      </trkpt>
      <trkpt lat="41.5135440" lon="-8.7715230">
        <ele>4.5</ele>
        <time>2021-05-17T08:29:11Z</time>
      </trkpt>
      <trkpt lat="41.5135560" lon="-8.7715410">
        <ele>4.5</ele>
        <time>2021-05-17T08:29:12Z</time>
      </trkpt>
      <trkpt lat="41.5135730" lon="-8.7715750">
        <ele>4.5</ele>
        <time>2021-05-17T08:29:13Z</time>
      </trkpt>
      <trkpt lat="41.5135810" lon="-8.7715830">
        <ele>4.5</ele>
        <time>2021-05-17T08:29:14Z</time>
      </trkpt>
      <trkpt lat="41.5135900" lon="-8.7715970">
        <ele>4.5</ele>
        <time>2021-05-17T08:29:15Z</time>
      </trkpt>
      <trkpt lat="41.5136040" lon="-8.7716050">
        <ele>4.5</ele>
        <time>2021-05-17T08:29:16Z</time>
      </trkpt>
      <trkpt lat="41.5136190" lon="-8.7716160">
        <ele>4.5</ele>
        <time>2021-05-17T08:29:17Z</time>
      </trkpt>
      <trkpt lat="41.5136310" lon="-8.7716300">
        <ele>4.4</ele>
        <time>2021-05-17T08:29:18Z</time>
      </trkpt>
      <trkpt lat="41.5136450" lon="-8.7716380">
        <ele>4.4</ele>
        <time>2021-05-17T08:29:19Z</time>
      </trkpt>
      <trkpt lat="41.5136600" lon="-8.7716550">
        <ele>4.4</ele>
        <time>2021-05-17T08:29:20Z</time>
      </trkpt>
      <trkpt lat="41.5136750" lon="-8.7716580">
        <ele>4.4</ele>
        <time>2021-05-17T08:29:21Z</time>
      </trkpt>
      <trkpt lat="41.5136850" lon="-8.7716760">
        <ele>4.4</ele>
        <time>2021-05-17T08:29:22Z</time>
      </trkpt>
      <trkpt lat="41.5136990" lon="-8.7716850">
        <ele>4.4</ele>
        <time>2021-05-17T08:29:23Z</time>
      </trkpt>
      <trkpt lat="41.5137060" lon="-8.7716990">
        <ele>4.4</ele>
        <time>2021-05-17T08:29:24Z</time>
      </trkpt>
      <trkpt lat="41.5137340" lon="-8.7717150">
        <ele>4.3</ele>
        <time>2021-05-17T08:29:25Z</time>
      </trkpt>
      <trkpt lat="41.5137440" lon="-8.7717190">
        <ele>4.3</ele>
        <time>2021-05-17T08:29:26Z</time>
      </trkpt>
      <trkpt lat="41.5137600" lon="-8.7717350">
        <ele>4.2</ele>
        <time>2021-05-17T08:29:27Z</time>
      </trkpt>
      <trkpt lat="41.5137670" lon="-8.7717410">
        <ele>4.2</ele>
        <time>2021-05-17T08:29:28Z</time>
      </trkpt>
      <trkpt lat="41.5137740" lon="-8.7717480">
        <ele>4.2</ele>
        <time>2021-05-17T08:29:29Z</time>
      </trkpt>
      <trkpt lat="41.5137960" lon="-8.7717580">
        <ele>4.0</ele>
        <time>2021-05-17T08:29:30Z</time>
      </trkpt>
      <trkpt lat="41.5138050" lon="-8.7717550">
        <ele>4.0</ele>
        <time>2021-05-17T08:29:31Z</time>
      </trkpt>
      <trkpt lat="41.5138140" lon="-8.7717530">
        <ele>4.0</ele>
        <time>2021-05-17T08:29:32Z</time>
      </trkpt>
      <trkpt lat="41.5138270" lon="-8.7717690">
        <ele>3.9</ele>
        <time>2021-05-17T08:29:33Z</time>
      </trkpt>
      <trkpt lat="41.5138390" lon="-8.7717770">
        <ele>3.8</ele>
        <time>2021-05-17T08:29:34Z</time>
      </trkpt>
      <trkpt lat="41.5138540" lon="-8.7717770">
        <ele>3.7</ele>
        <time>2021-05-17T08:29:35Z</time>
      </trkpt>
      <trkpt lat="41.5138690" lon="-8.7717810">
        <ele>3.7</ele>
        <time>2021-05-17T08:29:36Z</time>
      </trkpt>
      <trkpt lat="41.5138930" lon="-8.7717860">
        <ele>3.6</ele>
        <time>2021-05-17T08:29:37Z</time>
      </trkpt>
      <trkpt lat="41.5139030" lon="-8.7717930">
        <ele>3.5</ele>
        <time>2021-05-17T08:29:38Z</time>
      </trkpt>
      <trkpt lat="41.5139160" lon="-8.7717960">
        <ele>3.4</ele>
        <time>2021-05-17T08:29:39Z</time>
      </trkpt>
      <trkpt lat="41.5139220" lon="-8.7717990">
        <ele>3.4</ele>
        <time>2021-05-17T08:29:40Z</time>
      </trkpt>
      <trkpt lat="41.5139360" lon="-8.7718040">
        <ele>3.3</ele>
        <time>2021-05-17T08:29:41Z</time>
      </trkpt>
      <trkpt lat="41.5139450" lon="-8.7718050">
        <ele>3.3</ele>
        <time>2021-05-17T08:29:42Z</time>
      </trkpt>
      <trkpt lat="41.5139680" lon="-8.7718130">
        <ele>3.2</ele>
        <time>2021-05-17T08:29:43Z</time>
      </trkpt>
      <trkpt lat="41.5139720" lon="-8.7718250">
        <ele>3.2</ele>
        <time>2021-05-17T08:29:44Z</time>
      </trkpt>
      <trkpt lat="41.5139860" lon="-8.7718250">
        <ele>3.1</ele>
        <time>2021-05-17T08:29:45Z</time>
      </trkpt>
      <trkpt lat="41.5139930" lon="-8.7718310">
        <ele>3.1</ele>
        <time>2021-05-17T08:29:46Z</time>
      </trkpt>
      <trkpt lat="41.5140060" lon="-8.7718360">
        <ele>3.0</ele>
        <time>2021-05-17T08:29:47Z</time>
      </trkpt>
      <trkpt lat="41.5140170" lon="-8.7718350">
        <ele>3.0</ele>
        <time>2021-05-17T08:29:49Z</time>
      </trkpt>
      <trkpt lat="41.5140250" lon="-8.7718360">
        <ele>3.0</ele>
        <time>2021-05-17T08:29:50Z</time>
      </trkpt>
      <trkpt lat="41.5140410" lon="-8.7718450">
        <ele>2.9</ele>
        <time>2021-05-17T08:29:51Z</time>
      </trkpt>
      <trkpt lat="41.5140480" lon="-8.7718460">
        <ele>2.9</ele>
        <time>2021-05-17T08:29:52Z</time>
      </trkpt>
      <trkpt lat="41.5140560" lon="-8.7718470">
        <ele>2.9</ele>
        <time>2021-05-17T08:29:53Z</time>
      </trkpt>
      <trkpt lat="41.5140630" lon="-8.7718490">
        <ele>2.9</ele>
        <time>2021-05-17T08:29:54Z</time>
      </trkpt>
      <trkpt lat="41.5140700" lon="-8.7718500">
        <ele>2.9</ele>
        <time>2021-05-17T08:29:55Z</time>
      </trkpt>
      <trkpt lat="41.5140770" lon="-8.7718510">
        <ele>2.9</ele>
        <time>2021-05-17T08:29:56Z</time>
      </trkpt>
      <trkpt lat="41.5140890" lon="-8.7718430">
        <ele>2.9</ele>
        <time>2021-05-17T08:29:57Z</time>
      </trkpt>
      <trkpt lat="41.5141040" lon="-8.7718310">
        <ele>2.9</ele>
        <time>2021-05-17T08:29:58Z</time>
      </trkpt>
      <trkpt lat="41.5141180" lon="-8.7718230">
        <ele>2.9</ele>
        <time>2021-05-17T08:29:59Z</time>
      </trkpt>
      <trkpt lat="41.5141340" lon="-8.7718170">
        <ele>2.9</ele>
        <time>2021-05-17T08:30:00Z</time>
      </trkpt>
      <trkpt lat="41.5141520" lon="-8.7718130">
        <ele>2.9</ele>
        <time>2021-05-17T08:30:01Z</time>
      </trkpt>
      <trkpt lat="41.5141650" lon="-8.7718050">
        <ele>2.9</ele>
        <time>2021-05-17T08:30:02Z</time>
      </trkpt>
      <trkpt lat="41.5141830" lon="-8.7718020">
        <ele>2.9</ele>
        <time>2021-05-17T08:30:03Z</time>
      </trkpt>
      <trkpt lat="41.5141930" lon="-8.7717950">
        <ele>2.9</ele>
        <time>2021-05-17T08:30:04Z</time>
      </trkpt>
      <trkpt lat="41.5142030" lon="-8.7717880">
        <ele>2.9</ele>
        <time>2021-05-17T08:30:05Z</time>
      </trkpt>
      <trkpt lat="41.5142190" lon="-8.7717730">
        <ele>2.8</ele>
        <time>2021-05-17T08:30:06Z</time>
      </trkpt>
      <trkpt lat="41.5142290" lon="-8.7717730">
        <ele>2.8</ele>
        <time>2021-05-17T08:30:07Z</time>
      </trkpt>
      <trkpt lat="41.5142400" lon="-8.7717700">
        <ele>2.8</ele>
        <time>2021-05-17T08:30:08Z</time>
      </trkpt>
      <trkpt lat="41.5142480" lon="-8.7717580">
        <ele>2.8</ele>
        <time>2021-05-17T08:30:09Z</time>
      </trkpt>
      <trkpt lat="41.5142540" lon="-8.7717500">
        <ele>2.8</ele>
        <time>2021-05-17T08:30:10Z</time>
      </trkpt>
      <trkpt lat="41.5142600" lon="-8.7717440">
        <ele>2.8</ele>
        <time>2021-05-17T08:30:11Z</time>
      </trkpt>
      <trkpt lat="41.5142650" lon="-8.7717320">
        <ele>2.8</ele>
        <time>2021-05-17T08:30:12Z</time>
      </trkpt>
      <trkpt lat="41.5142600" lon="-8.7717340">
        <ele>2.8</ele>
        <time>2021-05-17T08:30:13Z</time>
      </trkpt>
      <trkpt lat="41.5142620" lon="-8.7717320">
        <ele>2.8</ele>
        <time>2021-05-17T08:30:14Z</time>
      </trkpt>
      <trkpt lat="41.5142660" lon="-8.7717260">
        <ele>2.8</ele>
        <time>2021-05-17T08:30:15Z</time>
      </trkpt>
      <trkpt lat="41.5142690" lon="-8.7717260">
        <ele>2.8</ele>
        <time>2021-05-17T08:30:16Z</time>
      </trkpt>
      <trkpt lat="41.5142720" lon="-8.7717260">
        <ele>2.8</ele>
        <time>2021-05-17T08:30:17Z</time>
      </trkpt>
      <trkpt lat="41.5142720" lon="-8.7717270">
        <ele>2.8</ele>
        <time>2021-05-17T08:30:18Z</time>
      </trkpt>
      <trkpt lat="41.5142710" lon="-8.7717300">
        <ele>2.8</ele>
        <time>2021-05-17T08:30:19Z</time>
      </trkpt>
      <trkpt lat="41.5142700" lon="-8.7717300">
        <ele>2.8</ele>
        <time>2021-05-17T08:30:20Z</time>
      </trkpt>
      <trkpt lat="41.5142710" lon="-8.7717320">
        <ele>2.8</ele>
        <time>2021-05-17T08:30:21Z</time>
      </trkpt>
      <trkpt lat="41.5142750" lon="-8.7717260">
        <ele>2.8</ele>
        <time>2021-05-17T08:30:22Z</time>
      </trkpt>
      <trkpt lat="41.5142760" lon="-8.7717270">
        <ele>2.7</ele>
        <time>2021-05-17T08:30:23Z</time>
      </trkpt>
      <trkpt lat="41.5142740" lon="-8.7717250">
        <ele>2.7</ele>
        <time>2021-05-17T08:30:24Z</time>
      </trkpt>
      <trkpt lat="41.5142700" lon="-8.7717240">
        <ele>2.7</ele>
        <time>2021-05-17T08:30:25Z</time>
      </trkpt>
      <trkpt lat="41.5142690" lon="-8.7717340">
        <ele>2.7</ele>
        <time>2021-05-17T08:30:26Z</time>
      </trkpt>
      <trkpt lat="41.5142740" lon="-8.7717440">
        <ele>2.7</ele>
        <time>2021-05-17T08:30:27Z</time>
      </trkpt>
      <trkpt lat="41.5142780" lon="-8.7717550">
        <ele>2.7</ele>
        <time>2021-05-17T08:30:28Z</time>
      </trkpt>
      <trkpt lat="41.5142820" lon="-8.7717680">
        <ele>2.7</ele>
        <time>2021-05-17T08:30:29Z</time>
      </trkpt>
      <trkpt lat="41.5142890" lon="-8.7717830">
        <ele>2.7</ele>
        <time>2021-05-17T08:30:30Z</time>
      </trkpt>
      <trkpt lat="41.5142970" lon="-8.7718000">
        <ele>2.7</ele>
        <time>2021-05-17T08:30:31Z</time>
      </trkpt>
      <trkpt lat="41.5143080" lon="-8.7718230">
        <ele>2.7</ele>
        <time>2021-05-17T08:30:32Z</time>
      </trkpt>
      <trkpt lat="41.5143110" lon="-8.7718440">
        <ele>2.6</ele>
        <time>2021-05-17T08:30:33Z</time>
      </trkpt>
      <trkpt lat="41.5143170" lon="-8.7718610">
        <ele>2.6</ele>
        <time>2021-05-17T08:30:34Z</time>
      </trkpt>
      <trkpt lat="41.5143280" lon="-8.7718800">
        <ele>2.6</ele>
        <time>2021-05-17T08:30:35Z</time>
      </trkpt>
      <trkpt lat="41.5143390" lon="-8.7719050">
        <ele>2.6</ele>
        <time>2021-05-17T08:30:36Z</time>
      </trkpt>
      <trkpt lat="41.5143430" lon="-8.7719170">
        <ele>2.6</ele>
        <time>2021-05-17T08:30:37Z</time>
      </trkpt>
      <trkpt lat="41.5143460" lon="-8.7719290">
        <ele>2.6</ele>
        <time>2021-05-17T08:30:38Z</time>
      </trkpt>
      <trkpt lat="41.5143570" lon="-8.7719470">
        <ele>2.6</ele>
        <time>2021-05-17T08:30:39Z</time>
      </trkpt>
      <trkpt lat="41.5143610" lon="-8.7719660">
        <ele>2.6</ele>
        <time>2021-05-17T08:30:40Z</time>
      </trkpt>
      <trkpt lat="41.5143670" lon="-8.7719900">
        <ele>2.6</ele>
        <time>2021-05-17T08:30:41Z</time>
      </trkpt>
      <trkpt lat="41.5143710" lon="-8.7720010">
        <ele>2.6</ele>
        <time>2021-05-17T08:30:42Z</time>
      </trkpt>
      <trkpt lat="41.5143750" lon="-8.7720130">
        <ele>2.6</ele>
        <time>2021-05-17T08:30:43Z</time>
      </trkpt>
      <trkpt lat="41.5143780" lon="-8.7720310">
        <ele>2.6</ele>
        <time>2021-05-17T08:30:44Z</time>
      </trkpt>
      <trkpt lat="41.5143960" lon="-8.7720500">
        <ele>2.6</ele>
        <time>2021-05-17T08:30:45Z</time>
      </trkpt>
      <trkpt lat="41.5143950" lon="-8.7720670">
        <ele>2.6</ele>
        <time>2021-05-17T08:30:46Z</time>
      </trkpt>
      <trkpt lat="41.5143980" lon="-8.7720810">
        <ele>2.6</ele>
        <time>2021-05-17T08:30:47Z</time>
      </trkpt>
      <trkpt lat="41.5144050" lon="-8.7720960">
        <ele>2.6</ele>
        <time>2021-05-17T08:30:48Z</time>
      </trkpt>
      <trkpt lat="41.5144090" lon="-8.7721120">
        <ele>2.6</ele>
        <time>2021-05-17T08:30:49Z</time>
      </trkpt>
      <trkpt lat="41.5144200" lon="-8.7721290">
        <ele>2.6</ele>
        <time>2021-05-17T08:30:50Z</time>
      </trkpt>
      <trkpt lat="41.5144410" lon="-8.7721670">
        <ele>2.6</ele>
        <time>2021-05-17T08:30:51Z</time>
      </trkpt>
      <trkpt lat="41.5144490" lon="-8.7721900">
        <ele>2.6</ele>
        <time>2021-05-17T08:30:52Z</time>
      </trkpt>
      <trkpt lat="41.5144610" lon="-8.7721990">
        <ele>2.6</ele>
        <time>2021-05-17T08:30:53Z</time>
      </trkpt>
      <trkpt lat="41.5144620" lon="-8.7722220">
        <ele>2.6</ele>
        <time>2021-05-17T08:30:54Z</time>
      </trkpt>
      <trkpt lat="41.5144640" lon="-8.7722390">
        <ele>2.6</ele>
        <time>2021-05-17T08:30:55Z</time>
      </trkpt>
      <trkpt lat="41.5144730" lon="-8.7722560">
        <ele>2.6</ele>
        <time>2021-05-17T08:30:56Z</time>
      </trkpt>
      <trkpt lat="41.5144800" lon="-8.7722700">
        <ele>2.6</ele>
        <time>2021-05-17T08:30:57Z</time>
      </trkpt>
      <trkpt lat="41.5144930" lon="-8.7722840">
        <ele>2.6</ele>
        <time>2021-05-17T08:30:58Z</time>
      </trkpt>
      <trkpt lat="41.5144990" lon="-8.7723080">
        <ele>2.6</ele>
        <time>2021-05-17T08:30:59Z</time>
      </trkpt>
      <trkpt lat="41.5145050" lon="-8.7723160">
        <ele>2.6</ele>
        <time>2021-05-17T08:31:00Z</time>
      </trkpt>
      <trkpt lat="41.5145170" lon="-8.7723330">
        <ele>2.6</ele>
        <time>2021-05-17T08:31:01Z</time>
      </trkpt>
      <trkpt lat="41.5145190" lon="-8.7723490">
        <ele>2.6</ele>
        <time>2021-05-17T08:31:02Z</time>
      </trkpt>
      <trkpt lat="41.5145270" lon="-8.7723640">
        <ele>2.6</ele>
        <time>2021-05-17T08:31:03Z</time>
      </trkpt>
      <trkpt lat="41.5145360" lon="-8.7723800">
        <ele>2.6</ele>
        <time>2021-05-17T08:31:04Z</time>
      </trkpt>
      <trkpt lat="41.5145420" lon="-8.7723970">
        <ele>2.6</ele>
        <time>2021-05-17T08:31:05Z</time>
      </trkpt>
      <trkpt lat="41.5145470" lon="-8.7724020">
        <ele>2.6</ele>
        <time>2021-05-17T08:31:06Z</time>
      </trkpt>
      <trkpt lat="41.5145540" lon="-8.7724140">
        <ele>2.6</ele>
        <time>2021-05-17T08:31:07Z</time>
      </trkpt>
      <trkpt lat="41.5145680" lon="-8.7724350">
        <ele>2.6</ele>
        <time>2021-05-17T08:31:08Z</time>
      </trkpt>
      <trkpt lat="41.5145710" lon="-8.7724460">
        <ele>2.6</ele>
        <time>2021-05-17T08:31:09Z</time>
      </trkpt>
      <trkpt lat="41.5145740" lon="-8.7724560">
        <ele>2.6</ele>
        <time>2021-05-17T08:31:10Z</time>
      </trkpt>
      <trkpt lat="41.5145840" lon="-8.7724740">
        <ele>2.6</ele>
        <time>2021-05-17T08:31:11Z</time>
      </trkpt>
      <trkpt lat="41.5145910" lon="-8.7724910">
        <ele>2.6</ele>
        <time>2021-05-17T08:31:12Z</time>
      </trkpt>
      <trkpt lat="41.5146040" lon="-8.7725130">
        <ele>2.6</ele>
        <time>2021-05-17T08:31:13Z</time>
      </trkpt>
      <trkpt lat="41.5146110" lon="-8.7725200">
        <ele>2.6</ele>
        <time>2021-05-17T08:31:14Z</time>
      </trkpt>
      <trkpt lat="41.5146180" lon="-8.7725280">
        <ele>2.7</ele>
        <time>2021-05-17T08:31:15Z</time>
      </trkpt>
      <trkpt lat="41.5146230" lon="-8.7725370">
        <ele>2.7</ele>
        <time>2021-05-17T08:31:16Z</time>
      </trkpt>
      <trkpt lat="41.5146270" lon="-8.7725400">
        <ele>2.7</ele>
        <time>2021-05-17T08:31:17Z</time>
      </trkpt>
      <trkpt lat="41.5146300" lon="-8.7725430">
        <ele>2.7</ele>
        <time>2021-05-17T08:31:18Z</time>
      </trkpt>
      <trkpt lat="41.5146410" lon="-8.7725550">
        <ele>2.7</ele>
        <time>2021-05-17T08:31:19Z</time>
      </trkpt>
      <trkpt lat="41.5146500" lon="-8.7725610">
        <ele>2.7</ele>
        <time>2021-05-17T08:31:20Z</time>
      </trkpt>
      <trkpt lat="41.5146550" lon="-8.7725710">
        <ele>2.7</ele>
        <time>2021-05-17T08:31:21Z</time>
      </trkpt>
      <trkpt lat="41.5146660" lon="-8.7725790">
        <ele>2.7</ele>
        <time>2021-05-17T08:31:22Z</time>
      </trkpt>
      <trkpt lat="41.5146800" lon="-8.7725950">
        <ele>2.7</ele>
        <time>2021-05-17T08:31:23Z</time>
      </trkpt>
      <trkpt lat="41.5146890" lon="-8.7726150">
        <ele>2.7</ele>
        <time>2021-05-17T08:31:24Z</time>
      </trkpt>
      <trkpt lat="41.5146960" lon="-8.7726250">
        <ele>2.7</ele>
        <time>2021-05-17T08:31:25Z</time>
      </trkpt>
      <trkpt lat="41.5147010" lon="-8.7726400">
        <ele>2.8</ele>
        <time>2021-05-17T08:31:26Z</time>
      </trkpt>
      <trkpt lat="41.5147050" lon="-8.7726550">
        <ele>2.8</ele>
        <time>2021-05-17T08:31:27Z</time>
      </trkpt>
      <trkpt lat="41.5147070" lon="-8.7726660">
        <ele>2.8</ele>
        <time>2021-05-17T08:31:28Z</time>
      </trkpt>
      <trkpt lat="41.5147090" lon="-8.7726860">
        <ele>2.8</ele>
        <time>2021-05-17T08:31:29Z</time>
      </trkpt>
      <trkpt lat="41.5147120" lon="-8.7726920">
        <ele>2.8</ele>
        <time>2021-05-17T08:31:30Z</time>
      </trkpt>
      <trkpt lat="41.5147110" lon="-8.7726940">
        <ele>2.8</ele>
        <time>2021-05-17T08:31:31Z</time>
      </trkpt>
      <trkpt lat="41.5147110" lon="-8.7726990">
        <ele>2.8</ele>
        <time>2021-05-17T08:31:32Z</time>
      </trkpt>
      <trkpt lat="41.5147110" lon="-8.7727030">
        <ele>2.8</ele>
        <time>2021-05-17T08:31:33Z</time>
      </trkpt>
      <trkpt lat="41.5147130" lon="-8.7727090">
        <ele>2.8</ele>
        <time>2021-05-17T08:31:34Z</time>
      </trkpt>
      <trkpt lat="41.5147140" lon="-8.7727110">
        <ele>2.8</ele>
        <time>2021-05-17T08:31:35Z</time>
      </trkpt>
      <trkpt lat="41.5147130" lon="-8.7727140">
        <ele>2.8</ele>
        <time>2021-05-17T08:31:36Z</time>
      </trkpt>
      <trkpt lat="41.5147140" lon="-8.7727170">
        <ele>2.8</ele>
        <time>2021-05-17T08:31:37Z</time>
      </trkpt>
      <trkpt lat="41.5147150" lon="-8.7727170">
        <ele>2.8</ele>
        <time>2021-05-17T08:31:38Z</time>
      </trkpt>
      <trkpt lat="41.5147160" lon="-8.7727200">
        <ele>2.8</ele>
        <time>2021-05-17T08:31:39Z</time>
      </trkpt>
      <trkpt lat="41.5147220" lon="-8.7727200">
        <ele>2.8</ele>
        <time>2021-05-17T08:31:40Z</time>
      </trkpt>
      <trkpt lat="41.5147220" lon="-8.7727170">
        <ele>2.8</ele>
        <time>2021-05-17T08:31:41Z</time>
      </trkpt>
      <trkpt lat="41.5147250" lon="-8.7727200">
        <ele>2.8</ele>
        <time>2021-05-17T08:31:42Z</time>
      </trkpt>
      <trkpt lat="41.5147250" lon="-8.7727190">
        <ele>2.8</ele>
        <time>2021-05-17T08:31:43Z</time>
      </trkpt>
      <trkpt lat="41.5147240" lon="-8.7727200">
        <ele>2.8</ele>
        <time>2021-05-17T08:31:44Z</time>
      </trkpt>
      <trkpt lat="41.5147240" lon="-8.7727200">
        <ele>2.8</ele>
        <time>2021-05-17T08:31:45Z</time>
      </trkpt>
      <trkpt lat="41.5147240" lon="-8.7727240">
        <ele>2.9</ele>
        <time>2021-05-17T08:31:46Z</time>
      </trkpt>
      <trkpt lat="41.5147250" lon="-8.7727230">
        <ele>2.9</ele>
        <time>2021-05-17T08:31:47Z</time>
      </trkpt>
      <trkpt lat="41.5147260" lon="-8.7727220">
        <ele>2.9</ele>
        <time>2021-05-17T08:31:48Z</time>
      </trkpt>
      <trkpt lat="41.5147280" lon="-8.7727290">
        <ele>2.9</ele>
        <time>2021-05-17T08:31:49Z</time>
      </trkpt>
      <trkpt lat="41.5147280" lon="-8.7727280">
        <ele>2.9</ele>
        <time>2021-05-17T08:31:50Z</time>
      </trkpt>
      <trkpt lat="41.5147280" lon="-8.7727240">
        <ele>2.9</ele>
        <time>2021-05-17T08:31:51Z</time>
      </trkpt>
      <trkpt lat="41.5147300" lon="-8.7727220">
        <ele>2.9</ele>
        <time>2021-05-17T08:31:52Z</time>
      </trkpt>
      <trkpt lat="41.5147330" lon="-8.7727240">
        <ele>2.9</ele>
        <time>2021-05-17T08:31:54Z</time>
      </trkpt>
      <trkpt lat="41.5147320" lon="-8.7727220">
        <ele>2.9</ele>
        <time>2021-05-17T08:31:55Z</time>
      </trkpt>
      <trkpt lat="41.5147330" lon="-8.7727220">
        <ele>2.9</ele>
        <time>2021-05-17T08:31:56Z</time>
      </trkpt>
      <trkpt lat="41.5147330" lon="-8.7727240">
        <ele>2.9</ele>
        <time>2021-05-17T08:31:57Z</time>
      </trkpt>
      <trkpt lat="41.5147330" lon="-8.7727240">
        <ele>2.9</ele>
        <time>2021-05-17T08:31:58Z</time>
      </trkpt>
      <trkpt lat="41.5147350" lon="-8.7727240">
        <ele>2.9</ele>
        <time>2021-05-17T08:31:59Z</time>
      </trkpt>
      <trkpt lat="41.5147350" lon="-8.7727270">
        <ele>2.9</ele>
        <time>2021-05-17T08:32:00Z</time>
      </trkpt>
      <trkpt lat="41.5147340" lon="-8.7727300">
        <ele>2.9</ele>
        <time>2021-05-17T08:32:01Z</time>
      </trkpt>
      <trkpt lat="41.5147340" lon="-8.7727330">
        <ele>2.9</ele>
        <time>2021-05-17T08:32:02Z</time>
      </trkpt>
      <trkpt lat="41.5147340" lon="-8.7727330">
        <ele>2.9</ele>
        <time>2021-05-17T08:32:03Z</time>
      </trkpt>
      <trkpt lat="41.5147340" lon="-8.7727330">
        <ele>2.9</ele>
        <time>2021-05-17T08:32:04Z</time>
      </trkpt>
      <trkpt lat="41.5147380" lon="-8.7727470">
        <ele>2.9</ele>
        <time>2021-05-17T08:32:05Z</time>
      </trkpt>
      <trkpt lat="41.5147380" lon="-8.7727560">
        <ele>2.9</ele>
        <time>2021-05-17T08:32:06Z</time>
      </trkpt>
      <trkpt lat="41.5147420" lon="-8.7727670">
        <ele>2.9</ele>
        <time>2021-05-17T08:32:07Z</time>
      </trkpt>
      <trkpt lat="41.5147420" lon="-8.7727740">
        <ele>2.9</ele>
        <time>2021-05-17T08:32:08Z</time>
      </trkpt>
      <trkpt lat="41.5147320" lon="-8.7727710">
        <ele>2.9</ele>
        <time>2021-05-17T08:32:09Z</time>
      </trkpt>
      <trkpt lat="41.5147230" lon="-8.7727630">
        <ele>2.9</ele>
        <time>2021-05-17T08:32:10Z</time>
      </trkpt>
      <trkpt lat="41.5147160" lon="-8.7727680">
        <ele>2.9</ele>
        <time>2021-05-17T08:32:11Z</time>
      </trkpt>
      <trkpt lat="41.5147130" lon="-8.7727760">
        <ele>2.9</ele>
        <time>2021-05-17T08:32:12Z</time>
      </trkpt>
      <trkpt lat="41.5147060" lon="-8.7727830">
        <ele>2.9</ele>
        <time>2021-05-17T08:32:13Z</time>
      </trkpt>
      <trkpt lat="41.5147000" lon="-8.7727920">
        <ele>2.9</ele>
        <time>2021-05-17T08:32:14Z</time>
      </trkpt>
      <trkpt lat="41.5147030" lon="-8.7727960">
        <ele>2.9</ele>
        <time>2021-05-17T08:32:15Z</time>
      </trkpt>
      <trkpt lat="41.5147000" lon="-8.7727970">
        <ele>2.9</ele>
        <time>2021-05-17T08:32:16Z</time>
      </trkpt>
      <trkpt lat="41.5146940" lon="-8.7727990">
        <ele>2.9</ele>
        <time>2021-05-17T08:32:17Z</time>
      </trkpt>
      <trkpt lat="41.5146970" lon="-8.7728110">
        <ele>4.5</ele>
        <time>2021-05-17T08:32:18Z</time>
      </trkpt>
      <trkpt lat="41.5147090" lon="-8.7728130">
        <ele>4.8</ele>
        <time>2021-05-17T08:32:19Z</time>
      </trkpt>
      <trkpt lat="41.5147120" lon="-8.7728150">
        <ele>4.9</ele>
        <time>2021-05-17T08:32:20Z</time>
      </trkpt>
      <trkpt lat="41.5147150" lon="-8.7728170">
        <ele>5.0</ele>
        <time>2021-05-17T08:32:21Z</time>
      </trkpt>
      <trkpt lat="41.5147190" lon="-8.7728190">
        <ele>5.1</ele>
        <time>2021-05-17T08:32:22Z</time>
      </trkpt>
      <trkpt lat="41.5147220" lon="-8.7728210">
        <ele>5.1</ele>
        <time>2021-05-17T08:32:23Z</time>
      </trkpt>
      <trkpt lat="41.5147250" lon="-8.7728230">
        <ele>5.2</ele>
        <time>2021-05-17T08:32:24Z</time>
      </trkpt>
      <trkpt lat="41.5147280" lon="-8.7728250">
        <ele>5.3</ele>
        <time>2021-05-17T08:32:25Z</time>
      </trkpt>
      <trkpt lat="41.5147310" lon="-8.7728270">
        <ele>5.4</ele>
        <time>2021-05-17T08:32:26Z</time>
      </trkpt>
      <trkpt lat="41.5147410" lon="-8.7728360">
        <ele>5.7</ele>
        <time>2021-05-17T08:32:27Z</time>
      </trkpt>
      <trkpt lat="41.5147550" lon="-8.7728450">
        <ele>6.1</ele>
        <time>2021-05-17T08:32:28Z</time>
      </trkpt>
      <trkpt lat="41.5147580" lon="-8.7728380">
        <ele>6.1</ele>
        <time>2021-05-17T08:32:29Z</time>
      </trkpt>
      <trkpt lat="41.5147660" lon="-8.7728360">
        <ele>6.1</ele>
        <time>2021-05-17T08:32:30Z</time>
      </trkpt>
      <trkpt lat="41.5147770" lon="-8.7728230">
        <ele>6.1</ele>
        <time>2021-05-17T08:32:31Z</time>
      </trkpt>
      <trkpt lat="41.5147970" lon="-8.7728050">
        <ele>6.1</ele>
        <time>2021-05-17T08:32:32Z</time>
      </trkpt>
      <trkpt lat="41.5148010" lon="-8.7727960">
        <ele>6.1</ele>
        <time>2021-05-17T08:32:33Z</time>
      </trkpt>
      <trkpt lat="41.5148050" lon="-8.7727880">
        <ele>6.1</ele>
        <time>2021-05-17T08:32:34Z</time>
      </trkpt>
      <trkpt lat="41.5148220" lon="-8.7727740">
        <ele>6.1</ele>
        <time>2021-05-17T08:32:35Z</time>
      </trkpt>
      <trkpt lat="41.5148290" lon="-8.7727670">
        <ele>6.1</ele>
        <time>2021-05-17T08:32:36Z</time>
      </trkpt>
      <trkpt lat="41.5148350" lon="-8.7727600">
        <ele>6.1</ele>
        <time>2021-05-17T08:32:37Z</time>
      </trkpt>
      <trkpt lat="41.5148520" lon="-8.7727500">
        <ele>6.1</ele>
        <time>2021-05-17T08:32:38Z</time>
      </trkpt>
      <trkpt lat="41.5148620" lon="-8.7727380">
        <ele>6.1</ele>
        <time>2021-05-17T08:32:39Z</time>
      </trkpt>
      <trkpt lat="41.5148800" lon="-8.7727320">
        <ele>6.1</ele>
        <time>2021-05-17T08:32:40Z</time>
      </trkpt>
      <trkpt lat="41.5148940" lon="-8.7727220">
        <ele>6.1</ele>
        <time>2021-05-17T08:32:41Z</time>
      </trkpt>
      <trkpt lat="41.5149070" lon="-8.7727070">
        <ele>6.1</ele>
        <time>2021-05-17T08:32:42Z</time>
      </trkpt>
      <trkpt lat="41.5149200" lon="-8.7727000">
        <ele>6.1</ele>
        <time>2021-05-17T08:32:43Z</time>
      </trkpt>
      <trkpt lat="41.5149310" lon="-8.7726860">
        <ele>6.1</ele>
        <time>2021-05-17T08:32:44Z</time>
      </trkpt>
      <trkpt lat="41.5149470" lon="-8.7726780">
        <ele>6.1</ele>
        <time>2021-05-17T08:32:45Z</time>
      </trkpt>
      <trkpt lat="41.5149570" lon="-8.7726650">
        <ele>6.1</ele>
        <time>2021-05-17T08:32:46Z</time>
      </trkpt>
      <trkpt lat="41.5149710" lon="-8.7726570">
        <ele>6.1</ele>
        <time>2021-05-17T08:32:47Z</time>
      </trkpt>
      <trkpt lat="41.5149840" lon="-8.7726460">
        <ele>6.1</ele>
        <time>2021-05-17T08:32:48Z</time>
      </trkpt>
      <trkpt lat="41.5149960" lon="-8.7726330">
        <ele>6.1</ele>
        <time>2021-05-17T08:32:49Z</time>
      </trkpt>
      <trkpt lat="41.5150100" lon="-8.7726240">
        <ele>6.1</ele>
        <time>2021-05-17T08:32:50Z</time>
      </trkpt>
      <trkpt lat="41.5150230" lon="-8.7726150">
        <ele>6.1</ele>
        <time>2021-05-17T08:32:51Z</time>
      </trkpt>
      <trkpt lat="41.5150350" lon="-8.7726030">
        <ele>6.1</ele>
        <time>2021-05-17T08:32:52Z</time>
      </trkpt>
      <trkpt lat="41.5150480" lon="-8.7725930">
        <ele>6.1</ele>
        <time>2021-05-17T08:32:53Z</time>
      </trkpt>
      <trkpt lat="41.5150640" lon="-8.7725760">
        <ele>6.1</ele>
        <time>2021-05-17T08:32:54Z</time>
      </trkpt>
      <trkpt lat="41.5150720" lon="-8.7725700">
        <ele>6.1</ele>
        <time>2021-05-17T08:32:55Z</time>
      </trkpt>
      <trkpt lat="41.5150790" lon="-8.7725650">
        <ele>6.1</ele>
        <time>2021-05-17T08:32:56Z</time>
      </trkpt>
      <trkpt lat="41.5150950" lon="-8.7725550">
        <ele>6.1</ele>
        <time>2021-05-17T08:32:57Z</time>
      </trkpt>
      <trkpt lat="41.5151160" lon="-8.7725310">
        <ele>6.1</ele>
        <time>2021-05-17T08:32:58Z</time>
      </trkpt>
      <trkpt lat="41.5151350" lon="-8.7725210">
        <ele>6.1</ele>
        <time>2021-05-17T08:32:59Z</time>
      </trkpt>
      <trkpt lat="41.5151420" lon="-8.7725170">
        <ele>6.1</ele>
        <time>2021-05-17T08:33:00Z</time>
      </trkpt>
      <trkpt lat="41.5151540" lon="-8.7725040">
        <ele>6.1</ele>
        <time>2021-05-17T08:33:01Z</time>
      </trkpt>
      <trkpt lat="41.5151670" lon="-8.7725010">
        <ele>6.1</ele>
        <time>2021-05-17T08:33:02Z</time>
      </trkpt>
      <trkpt lat="41.5151800" lon="-8.7724920">
        <ele>6.1</ele>
        <time>2021-05-17T08:33:03Z</time>
      </trkpt>
      <trkpt lat="41.5151960" lon="-8.7724890">
        <ele>6.1</ele>
        <time>2021-05-17T08:33:04Z</time>
      </trkpt>
      <trkpt lat="41.5152070" lon="-8.7724770">
        <ele>6.1</ele>
        <time>2021-05-17T08:33:05Z</time>
      </trkpt>
      <trkpt lat="41.5152170" lon="-8.7724640">
        <ele>6.1</ele>
        <time>2021-05-17T08:33:06Z</time>
      </trkpt>
      <trkpt lat="41.5152360" lon="-8.7724480">
        <ele>6.1</ele>
        <time>2021-05-17T08:33:07Z</time>
      </trkpt>
      <trkpt lat="41.5152430" lon="-8.7724400">
        <ele>6.2</ele>
        <time>2021-05-17T08:33:08Z</time>
      </trkpt>
      <trkpt lat="41.5152490" lon="-8.7724330">
        <ele>6.2</ele>
        <time>2021-05-17T08:33:09Z</time>
      </trkpt>
      <trkpt lat="41.5152640" lon="-8.7724200">
        <ele>6.2</ele>
        <time>2021-05-17T08:33:10Z</time>
      </trkpt>
      <trkpt lat="41.5152710" lon="-8.7724100">
        <ele>6.2</ele>
        <time>2021-05-17T08:33:11Z</time>
      </trkpt>
      <trkpt lat="41.5152770" lon="-8.7724010">
        <ele>6.2</ele>
        <time>2021-05-17T08:33:12Z</time>
      </trkpt>
      <trkpt lat="41.5152840" lon="-8.7724040">
        <ele>6.2</ele>
        <time>2021-05-17T08:33:13Z</time>
      </trkpt>
      <trkpt lat="41.5152910" lon="-8.7723890">
        <ele>6.2</ele>
        <time>2021-05-17T08:33:14Z</time>
      </trkpt>
      <trkpt lat="41.5153050" lon="-8.7723760">
        <ele>6.2</ele>
        <time>2021-05-17T08:33:15Z</time>
      </trkpt>
      <trkpt lat="41.5153200" lon="-8.7723620">
        <ele>6.2</ele>
        <time>2021-05-17T08:33:16Z</time>
      </trkpt>
      <trkpt lat="41.5153280" lon="-8.7723560">
        <ele>6.2</ele>
        <time>2021-05-17T08:33:17Z</time>
      </trkpt>
      <trkpt lat="41.5153370" lon="-8.7723490">
        <ele>6.2</ele>
        <time>2021-05-17T08:33:18Z</time>
      </trkpt>
      <trkpt lat="41.5153490" lon="-8.7723370">
        <ele>6.2</ele>
        <time>2021-05-17T08:33:19Z</time>
      </trkpt>
      <trkpt lat="41.5153610" lon="-8.7723300">
        <ele>6.2</ele>
        <time>2021-05-17T08:33:20Z</time>
      </trkpt>
      <trkpt lat="41.5153760" lon="-8.7723190">
        <ele>6.2</ele>
        <time>2021-05-17T08:33:21Z</time>
      </trkpt>
      <trkpt lat="41.5153870" lon="-8.7723080">
        <ele>6.2</ele>
        <time>2021-05-17T08:33:22Z</time>
      </trkpt>
      <trkpt lat="41.5154010" lon="-8.7722990">
        <ele>6.2</ele>
        <time>2021-05-17T08:33:23Z</time>
      </trkpt>
      <trkpt lat="41.5154130" lon="-8.7722910">
        <ele>6.2</ele>
        <time>2021-05-17T08:33:24Z</time>
      </trkpt>
      <trkpt lat="41.5154300" lon="-8.7722870">
        <ele>6.2</ele>
        <time>2021-05-17T08:33:25Z</time>
      </trkpt>
      <trkpt lat="41.5154410" lon="-8.7722750">
        <ele>6.2</ele>
        <time>2021-05-17T08:33:26Z</time>
      </trkpt>
      <trkpt lat="41.5154540" lon="-8.7722580">
        <ele>6.2</ele>
        <time>2021-05-17T08:33:27Z</time>
      </trkpt>
      <trkpt lat="41.5154670" lon="-8.7722480">
        <ele>6.2</ele>
        <time>2021-05-17T08:33:28Z</time>
      </trkpt>
      <trkpt lat="41.5154810" lon="-8.7722440">
        <ele>6.2</ele>
        <time>2021-05-17T08:33:29Z</time>
      </trkpt>
      <trkpt lat="41.5154930" lon="-8.7722330">
        <ele>6.2</ele>
        <time>2021-05-17T08:33:30Z</time>
      </trkpt>
      <trkpt lat="41.5155060" lon="-8.7722240">
        <ele>6.2</ele>
        <time>2021-05-17T08:33:31Z</time>
      </trkpt>
      <trkpt lat="41.5155190" lon="-8.7722170">
        <ele>6.2</ele>
        <time>2021-05-17T08:33:32Z</time>
      </trkpt>
      <trkpt lat="41.5155310" lon="-8.7722070">
        <ele>6.2</ele>
        <time>2021-05-17T08:33:33Z</time>
      </trkpt>
      <trkpt lat="41.5155430" lon="-8.7722010">
        <ele>6.3</ele>
        <time>2021-05-17T08:33:34Z</time>
      </trkpt>
      <trkpt lat="41.5155570" lon="-8.7721890">
        <ele>6.3</ele>
        <time>2021-05-17T08:33:35Z</time>
      </trkpt>
      <trkpt lat="41.5155690" lon="-8.7721780">
        <ele>6.3</ele>
        <time>2021-05-17T08:33:36Z</time>
      </trkpt>
      <trkpt lat="41.5155880" lon="-8.7721700">
        <ele>6.3</ele>
        <time>2021-05-17T08:33:37Z</time>
      </trkpt>
      <trkpt lat="41.5155970" lon="-8.7721650">
        <ele>6.3</ele>
        <time>2021-05-17T08:33:38Z</time>
      </trkpt>
      <trkpt lat="41.5156050" lon="-8.7721600">
        <ele>6.3</ele>
        <time>2021-05-17T08:33:39Z</time>
      </trkpt>
      <trkpt lat="41.5156130" lon="-8.7721390">
        <ele>6.3</ele>
        <time>2021-05-17T08:33:40Z</time>
      </trkpt>
      <trkpt lat="41.5156210" lon="-8.7721200">
        <ele>6.3</ele>
        <time>2021-05-17T08:33:41Z</time>
      </trkpt>
      <trkpt lat="41.5156300" lon="-8.7721190">
        <ele>6.3</ele>
        <time>2021-05-17T08:33:42Z</time>
      </trkpt>
      <trkpt lat="41.5156380" lon="-8.7721100">
        <ele>6.3</ele>
        <time>2021-05-17T08:33:43Z</time>
      </trkpt>
      <trkpt lat="41.5156490" lon="-8.7721030">
        <ele>6.3</ele>
        <time>2021-05-17T08:33:44Z</time>
      </trkpt>
      <trkpt lat="41.5156580" lon="-8.7720900">
        <ele>6.3</ele>
        <time>2021-05-17T08:33:45Z</time>
      </trkpt>
      <trkpt lat="41.5156740" lon="-8.7720810">
        <ele>6.3</ele>
        <time>2021-05-17T08:33:46Z</time>
      </trkpt>
      <trkpt lat="41.5156870" lon="-8.7720770">
        <ele>6.3</ele>
        <time>2021-05-17T08:33:47Z</time>
      </trkpt>
      <trkpt lat="41.5157000" lon="-8.7720620">
        <ele>6.3</ele>
        <time>2021-05-17T08:33:48Z</time>
      </trkpt>
      <trkpt lat="41.5157140" lon="-8.7720570">
        <ele>6.3</ele>
        <time>2021-05-17T08:33:49Z</time>
      </trkpt>
      <trkpt lat="41.5157270" lon="-8.7720480">
        <ele>6.3</ele>
        <time>2021-05-17T08:33:50Z</time>
      </trkpt>
      <trkpt lat="41.5157390" lon="-8.7720300">
        <ele>6.3</ele>
        <time>2021-05-17T08:33:51Z</time>
      </trkpt>
      <trkpt lat="41.5157510" lon="-8.7720170">
        <ele>6.3</ele>
        <time>2021-05-17T08:33:52Z</time>
      </trkpt>
      <trkpt lat="41.5157620" lon="-8.7720070">
        <ele>6.3</ele>
        <time>2021-05-17T08:33:53Z</time>
      </trkpt>
      <trkpt lat="41.5157750" lon="-8.7720000">
        <ele>6.3</ele>
        <time>2021-05-17T08:33:54Z</time>
      </trkpt>
      <trkpt lat="41.5157860" lon="-8.7719870">
        <ele>6.3</ele>
        <time>2021-05-17T08:33:55Z</time>
      </trkpt>
      <trkpt lat="41.5157990" lon="-8.7719810">
        <ele>6.3</ele>
        <time>2021-05-17T08:33:56Z</time>
      </trkpt>
      <trkpt lat="41.5158110" lon="-8.7719710">
        <ele>6.3</ele>
        <time>2021-05-17T08:33:57Z</time>
      </trkpt>
      <trkpt lat="41.5158250" lon="-8.7719690">
        <ele>6.3</ele>
        <time>2021-05-17T08:33:58Z</time>
      </trkpt>
      <trkpt lat="41.5158420" lon="-8.7719520">
        <ele>6.3</ele>
        <time>2021-05-17T08:33:59Z</time>
      </trkpt>
      <trkpt lat="41.5158470" lon="-8.7719420">
        <ele>6.3</ele>
        <time>2021-05-17T08:34:00Z</time>
      </trkpt>
      <trkpt lat="41.5158530" lon="-8.7719330">
        <ele>6.3</ele>
        <time>2021-05-17T08:34:01Z</time>
      </trkpt>
      <trkpt lat="41.5158640" lon="-8.7719210">
        <ele>6.3</ele>
        <time>2021-05-17T08:34:02Z</time>
      </trkpt>
      <trkpt lat="41.5158780" lon="-8.7719060">
        <ele>6.3</ele>
        <time>2021-05-17T08:34:03Z</time>
      </trkpt>
      <trkpt lat="41.5158920" lon="-8.7719020">
        <ele>6.3</ele>
        <time>2021-05-17T08:34:04Z</time>
      </trkpt>
      <trkpt lat="41.5159040" lon="-8.7718930">
        <ele>6.3</ele>
        <time>2021-05-17T08:34:05Z</time>
      </trkpt>
      <trkpt lat="41.5159140" lon="-8.7718780">
        <ele>6.3</ele>
        <time>2021-05-17T08:34:06Z</time>
      </trkpt>
      <trkpt lat="41.5159240" lon="-8.7718680">
        <ele>6.3</ele>
        <time>2021-05-17T08:34:07Z</time>
      </trkpt>
      <trkpt lat="41.5159360" lon="-8.7718600">
        <ele>6.3</ele>
        <time>2021-05-17T08:34:08Z</time>
      </trkpt>
      <trkpt lat="41.5159500" lon="-8.7718500">
        <ele>6.3</ele>
        <time>2021-05-17T08:34:10Z</time>
      </trkpt>
      <trkpt lat="41.5159650" lon="-8.7718430">
        <ele>6.3</ele>
        <time>2021-05-17T08:34:11Z</time>
      </trkpt>
      <trkpt lat="41.5159770" lon="-8.7718310">
        <ele>6.3</ele>
        <time>2021-05-17T08:34:12Z</time>
      </trkpt>
      <trkpt lat="41.5159910" lon="-8.7718230">
        <ele>6.3</ele>
        <time>2021-05-17T08:34:13Z</time>
      </trkpt>
      <trkpt lat="41.5160030" lon="-8.7718160">
        <ele>6.3</ele>
        <time>2021-05-17T08:34:14Z</time>
      </trkpt>
      <trkpt lat="41.5160170" lon="-8.7718070">
        <ele>6.3</ele>
        <time>2021-05-17T08:34:15Z</time>
      </trkpt>
      <trkpt lat="41.5160300" lon="-8.7717970">
        <ele>6.3</ele>
        <time>2021-05-17T08:34:16Z</time>
      </trkpt>
      <trkpt lat="41.5160470" lon="-8.7717800">
        <ele>6.3</ele>
        <time>2021-05-17T08:34:17Z</time>
      </trkpt>
      <trkpt lat="41.5160550" lon="-8.7717740">
        <ele>6.3</ele>
        <time>2021-05-17T08:34:18Z</time>
      </trkpt>
      <trkpt lat="41.5160630" lon="-8.7717690">
        <ele>6.3</ele>
        <time>2021-05-17T08:34:19Z</time>
      </trkpt>
      <trkpt lat="41.5160760" lon="-8.7717580">
        <ele>6.3</ele>
        <time>2021-05-17T08:34:20Z</time>
      </trkpt>
      <trkpt lat="41.5160860" lon="-8.7717480">
        <ele>6.3</ele>
        <time>2021-05-17T08:34:21Z</time>
      </trkpt>
      <trkpt lat="41.5161000" lon="-8.7717410">
        <ele>6.3</ele>
        <time>2021-05-17T08:34:22Z</time>
      </trkpt>
      <trkpt lat="41.5161100" lon="-8.7717280">
        <ele>6.3</ele>
        <time>2021-05-17T08:34:23Z</time>
      </trkpt>
      <trkpt lat="41.5161260" lon="-8.7717110">
        <ele>6.3</ele>
        <time>2021-05-17T08:34:24Z</time>
      </trkpt>
      <trkpt lat="41.5161340" lon="-8.7717030">
        <ele>6.3</ele>
        <time>2021-05-17T08:34:25Z</time>
      </trkpt>
      <trkpt lat="41.5161420" lon="-8.7716960">
        <ele>6.3</ele>
        <time>2021-05-17T08:34:26Z</time>
      </trkpt>
      <trkpt lat="41.5161600" lon="-8.7716800">
        <ele>6.3</ele>
        <time>2021-05-17T08:34:27Z</time>
      </trkpt>
      <trkpt lat="41.5161690" lon="-8.7716770">
        <ele>6.3</ele>
        <time>2021-05-17T08:34:28Z</time>
      </trkpt>
      <trkpt lat="41.5161790" lon="-8.7716740">
        <ele>6.3</ele>
        <time>2021-05-17T08:34:29Z</time>
      </trkpt>
      <trkpt lat="41.5161980" lon="-8.7716580">
        <ele>6.3</ele>
        <time>2021-05-17T08:34:30Z</time>
      </trkpt>
      <trkpt lat="41.5162050" lon="-8.7716490">
        <ele>6.3</ele>
        <time>2021-05-17T08:34:31Z</time>
      </trkpt>
      <trkpt lat="41.5162130" lon="-8.7716410">
        <ele>6.3</ele>
        <time>2021-05-17T08:34:32Z</time>
      </trkpt>
      <trkpt lat="41.5162250" lon="-8.7716290">
        <ele>6.3</ele>
        <time>2021-05-17T08:34:33Z</time>
      </trkpt>
      <trkpt lat="41.5162370" lon="-8.7716170">
        <ele>6.3</ele>
        <time>2021-05-17T08:34:34Z</time>
      </trkpt>
      <trkpt lat="41.5162600" lon="-8.7716070">
        <ele>6.2</ele>
        <time>2021-05-17T08:34:35Z</time>
      </trkpt>
      <trkpt lat="41.5162680" lon="-8.7715980">
        <ele>6.2</ele>
        <time>2021-05-17T08:34:36Z</time>
      </trkpt>
      <trkpt lat="41.5162750" lon="-8.7715900">
        <ele>6.2</ele>
        <time>2021-05-17T08:34:37Z</time>
      </trkpt>
      <trkpt lat="41.5162840" lon="-8.7715840">
        <ele>6.2</ele>
        <time>2021-05-17T08:34:38Z</time>
      </trkpt>
      <trkpt lat="41.5162840" lon="-8.7715730">
        <ele>6.2</ele>
        <time>2021-05-17T08:34:39Z</time>
      </trkpt>
      <trkpt lat="41.5162950" lon="-8.7715600">
        <ele>6.2</ele>
        <time>2021-05-17T08:34:40Z</time>
      </trkpt>
      <trkpt lat="41.5163080" lon="-8.7715540">
        <ele>6.2</ele>
        <time>2021-05-17T08:34:41Z</time>
      </trkpt>
      <trkpt lat="41.5163160" lon="-8.7715440">
        <ele>6.2</ele>
        <time>2021-05-17T08:34:42Z</time>
      </trkpt>
      <trkpt lat="41.5163240" lon="-8.7715480">
        <ele>6.2</ele>
        <time>2021-05-17T08:34:43Z</time>
      </trkpt>
      <trkpt lat="41.5163360" lon="-8.7715350">
        <ele>6.2</ele>
        <time>2021-05-17T08:34:44Z</time>
      </trkpt>
      <trkpt lat="41.5163450" lon="-8.7715220">
        <ele>6.2</ele>
        <time>2021-05-17T08:34:45Z</time>
      </trkpt>
      <trkpt lat="41.5163560" lon="-8.7715080">
        <ele>6.2</ele>
        <time>2021-05-17T08:34:46Z</time>
      </trkpt>
      <trkpt lat="41.5163630" lon="-8.7714940">
        <ele>6.2</ele>
        <time>2021-05-17T08:34:47Z</time>
      </trkpt>
      <trkpt lat="41.5163760" lon="-8.7714860">
        <ele>6.2</ele>
        <time>2021-05-17T08:34:48Z</time>
      </trkpt>
      <trkpt lat="41.5163870" lon="-8.7714730">
        <ele>6.2</ele>
        <time>2021-05-17T08:34:49Z</time>
      </trkpt>
      <trkpt lat="41.5164080" lon="-8.7714730">
        <ele>6.2</ele>
        <time>2021-05-17T08:34:50Z</time>
      </trkpt>
      <trkpt lat="41.5164190" lon="-8.7714630">
        <ele>6.2</ele>
        <time>2021-05-17T08:34:51Z</time>
      </trkpt>
      <trkpt lat="41.5164320" lon="-8.7714460">
        <ele>6.2</ele>
        <time>2021-05-17T08:34:52Z</time>
      </trkpt>
      <trkpt lat="41.5164460" lon="-8.7714400">
        <ele>6.2</ele>
        <time>2021-05-17T08:34:53Z</time>
      </trkpt>
      <trkpt lat="41.5164550" lon="-8.7714280">
        <ele>6.2</ele>
        <time>2021-05-17T08:34:54Z</time>
      </trkpt>
      <trkpt lat="41.5164640" lon="-8.7714060">
        <ele>6.2</ele>
        <time>2021-05-17T08:34:55Z</time>
      </trkpt>
      <trkpt lat="41.5164750" lon="-8.7713930">
        <ele>6.2</ele>
        <time>2021-05-17T08:34:56Z</time>
      </trkpt>
      <trkpt lat="41.5164910" lon="-8.7713890">
        <ele>6.2</ele>
        <time>2021-05-17T08:34:57Z</time>
      </trkpt>
      <trkpt lat="41.5165060" lon="-8.7713810">
        <ele>6.1</ele>
        <time>2021-05-17T08:34:58Z</time>
      </trkpt>
      <trkpt lat="41.5165120" lon="-8.7713640">
        <ele>6.1</ele>
        <time>2021-05-17T08:34:59Z</time>
      </trkpt>
      <trkpt lat="41.5165280" lon="-8.7713440">
        <ele>6.1</ele>
        <time>2021-05-17T08:35:00Z</time>
      </trkpt>
      <trkpt lat="41.5165370" lon="-8.7713390">
        <ele>6.1</ele>
        <time>2021-05-17T08:35:01Z</time>
      </trkpt>
      <trkpt lat="41.5165460" lon="-8.7713330">
        <ele>6.1</ele>
        <time>2021-05-17T08:35:02Z</time>
      </trkpt>
      <trkpt lat="41.5165580" lon="-8.7713240">
        <ele>6.1</ele>
        <time>2021-05-17T08:35:03Z</time>
      </trkpt>
      <trkpt lat="41.5165810" lon="-8.7713010">
        <ele>6.1</ele>
        <time>2021-05-17T08:35:04Z</time>
      </trkpt>
      <trkpt lat="41.5165940" lon="-8.7712920">
        <ele>6.1</ele>
        <time>2021-05-17T08:35:05Z</time>
      </trkpt>
      <trkpt lat="41.5166080" lon="-8.7712850">
        <ele>6.1</ele>
        <time>2021-05-17T08:35:06Z</time>
      </trkpt>
      <trkpt lat="41.5166210" lon="-8.7712720">
        <ele>6.1</ele>
        <time>2021-05-17T08:35:07Z</time>
      </trkpt>
      <trkpt lat="41.5166360" lon="-8.7712650">
        <ele>6.1</ele>
        <time>2021-05-17T08:35:08Z</time>
      </trkpt>
      <trkpt lat="41.5166480" lon="-8.7712520">
        <ele>6.1</ele>
        <time>2021-05-17T08:35:09Z</time>
      </trkpt>
      <trkpt lat="41.5166630" lon="-8.7712450">
        <ele>6.1</ele>
        <time>2021-05-17T08:35:10Z</time>
      </trkpt>
      <trkpt lat="41.5166770" lon="-8.7712380">
        <ele>6.1</ele>
        <time>2021-05-17T08:35:11Z</time>
      </trkpt>
      <trkpt lat="41.5166930" lon="-8.7712210">
        <ele>6.1</ele>
        <time>2021-05-17T08:35:12Z</time>
      </trkpt>
      <trkpt lat="41.5167010" lon="-8.7712140">
        <ele>6.1</ele>
        <time>2021-05-17T08:35:13Z</time>
      </trkpt>
      <trkpt lat="41.5167090" lon="-8.7712070">
        <ele>6.1</ele>
        <time>2021-05-17T08:35:14Z</time>
      </trkpt>
      <trkpt lat="41.5167190" lon="-8.7711930">
        <ele>6.1</ele>
        <time>2021-05-17T08:35:15Z</time>
      </trkpt>
      <trkpt lat="41.5167270" lon="-8.7711740">
        <ele>6.1</ele>
        <time>2021-05-17T08:35:16Z</time>
      </trkpt>
      <trkpt lat="41.5167380" lon="-8.7711640">
        <ele>6.1</ele>
        <time>2021-05-17T08:35:17Z</time>
      </trkpt>
      <trkpt lat="41.5167580" lon="-8.7711670">
        <ele>6.1</ele>
        <time>2021-05-17T08:35:18Z</time>
      </trkpt>
      <trkpt lat="41.5167750" lon="-8.7711530">
        <ele>6.1</ele>
        <time>2021-05-17T08:35:19Z</time>
      </trkpt>
      <trkpt lat="41.5167850" lon="-8.7711490">
        <ele>6.1</ele>
        <time>2021-05-17T08:35:20Z</time>
      </trkpt>
      <trkpt lat="41.5167940" lon="-8.7711460">
        <ele>6.1</ele>
        <time>2021-05-17T08:35:21Z</time>
      </trkpt>
      <trkpt lat="41.5168060" lon="-8.7711400">
        <ele>6.1</ele>
        <time>2021-05-17T08:35:22Z</time>
      </trkpt>
      <trkpt lat="41.5168170" lon="-8.7711240">
        <ele>6.1</ele>
        <time>2021-05-17T08:35:23Z</time>
      </trkpt>
      <trkpt lat="41.5168280" lon="-8.7711170">
        <ele>6.1</ele>
        <time>2021-05-17T08:35:24Z</time>
      </trkpt>
      <trkpt lat="41.5168370" lon="-8.7711050">
        <ele>6.1</ele>
        <time>2021-05-17T08:35:25Z</time>
      </trkpt>
      <trkpt lat="41.5168480" lon="-8.7710990">
        <ele>6.1</ele>
        <time>2021-05-17T08:35:26Z</time>
      </trkpt>
      <trkpt lat="41.5168700" lon="-8.7710870">
        <ele>6.1</ele>
        <time>2021-05-17T08:35:28Z</time>
      </trkpt>
      <trkpt lat="41.5168780" lon="-8.7710800">
        <ele>6.1</ele>
        <time>2021-05-17T08:35:29Z</time>
      </trkpt>
      <trkpt lat="41.5168870" lon="-8.7710740">
        <ele>6.1</ele>
        <time>2021-05-17T08:35:30Z</time>
      </trkpt>
      <trkpt lat="41.5169000" lon="-8.7710630">
        <ele>6.1</ele>
        <time>2021-05-17T08:35:31Z</time>
      </trkpt>
      <trkpt lat="41.5169120" lon="-8.7710510">
        <ele>6.1</ele>
        <time>2021-05-17T08:35:32Z</time>
      </trkpt>
      <trkpt lat="41.5169240" lon="-8.7710400">
        <ele>6.1</ele>
        <time>2021-05-17T08:35:33Z</time>
      </trkpt>
      <trkpt lat="41.5169410" lon="-8.7710350">
        <ele>6.0</ele>
        <time>2021-05-17T08:35:34Z</time>
      </trkpt>
      <trkpt lat="41.5169550" lon="-8.7710250">
        <ele>6.0</ele>
        <time>2021-05-17T08:35:35Z</time>
      </trkpt>
      <trkpt lat="41.5169680" lon="-8.7710160">
        <ele>6.0</ele>
        <time>2021-05-17T08:35:36Z</time>
      </trkpt>
      <trkpt lat="41.5169840" lon="-8.7710080">
        <ele>6.0</ele>
        <time>2021-05-17T08:35:37Z</time>
      </trkpt>
      <trkpt lat="41.5169980" lon="-8.7710000">
        <ele>6.0</ele>
        <time>2021-05-17T08:35:38Z</time>
      </trkpt>
      <trkpt lat="41.5170160" lon="-8.7709960">
        <ele>6.0</ele>
        <time>2021-05-17T08:35:39Z</time>
      </trkpt>
      <trkpt lat="41.5170270" lon="-8.7709830">
        <ele>6.0</ele>
        <time>2021-05-17T08:35:40Z</time>
      </trkpt>
      <trkpt lat="41.5170420" lon="-8.7709800">
        <ele>6.0</ele>
        <time>2021-05-17T08:35:41Z</time>
      </trkpt>
      <trkpt lat="41.5170550" lon="-8.7709720">
        <ele>6.0</ele>
        <time>2021-05-17T08:35:42Z</time>
      </trkpt>
      <trkpt lat="41.5170770" lon="-8.7709670">
        <ele>6.0</ele>
        <time>2021-05-17T08:35:43Z</time>
      </trkpt>
      <trkpt lat="41.5170860" lon="-8.7709630">
        <ele>6.0</ele>
        <time>2021-05-17T08:35:44Z</time>
      </trkpt>
      <trkpt lat="41.5170950" lon="-8.7709600">
        <ele>6.0</ele>
        <time>2021-05-17T08:35:45Z</time>
      </trkpt>
      <trkpt lat="41.5171090" lon="-8.7709590">
        <ele>5.9</ele>
        <time>2021-05-17T08:35:46Z</time>
      </trkpt>
      <trkpt lat="41.5171230" lon="-8.7709530">
        <ele>5.9</ele>
        <time>2021-05-17T08:35:47Z</time>
      </trkpt>
      <trkpt lat="41.5171350" lon="-8.7709470">
        <ele>5.9</ele>
        <time>2021-05-17T08:35:48Z</time>
      </trkpt>
      <trkpt lat="41.5171510" lon="-8.7709520">
        <ele>5.9</ele>
        <time>2021-05-17T08:35:49Z</time>
      </trkpt>
      <trkpt lat="41.5171660" lon="-8.7709520">
        <ele>5.9</ele>
        <time>2021-05-17T08:35:50Z</time>
      </trkpt>
      <trkpt lat="41.5171790" lon="-8.7709430">
        <ele>5.9</ele>
        <time>2021-05-17T08:35:51Z</time>
      </trkpt>
      <trkpt lat="41.5171960" lon="-8.7709500">
        <ele>5.9</ele>
        <time>2021-05-17T08:35:52Z</time>
      </trkpt>
      <trkpt lat="41.5172090" lon="-8.7709420">
        <ele>5.8</ele>
        <time>2021-05-17T08:35:53Z</time>
      </trkpt>
      <trkpt lat="41.5172290" lon="-8.7709370">
        <ele>5.8</ele>
        <time>2021-05-17T08:35:54Z</time>
      </trkpt>
      <trkpt lat="41.5172390" lon="-8.7709390">
        <ele>5.8</ele>
        <time>2021-05-17T08:35:55Z</time>
      </trkpt>
      <trkpt lat="41.5172480" lon="-8.7709420">
        <ele>5.8</ele>
        <time>2021-05-17T08:35:56Z</time>
      </trkpt>
      <trkpt lat="41.5172620" lon="-8.7709420">
        <ele>5.8</ele>
        <time>2021-05-17T08:35:57Z</time>
      </trkpt>
      <trkpt lat="41.5172770" lon="-8.7709490">
        <ele>5.8</ele>
        <time>2021-05-17T08:35:58Z</time>
      </trkpt>
      <trkpt lat="41.5172900" lon="-8.7709570">
        <ele>5.8</ele>
        <time>2021-05-17T08:35:59Z</time>
      </trkpt>
      <trkpt lat="41.5173070" lon="-8.7709510">
        <ele>5.7</ele>
        <time>2021-05-17T08:36:00Z</time>
      </trkpt>
      <trkpt lat="41.5173200" lon="-8.7709610">
        <ele>5.7</ele>
        <time>2021-05-17T08:36:01Z</time>
      </trkpt>
      <trkpt lat="41.5173380" lon="-8.7709640">
        <ele>5.7</ele>
        <time>2021-05-17T08:36:02Z</time>
      </trkpt>
      <trkpt lat="41.5173590" lon="-8.7709760">
        <ele>5.7</ele>
        <time>2021-05-17T08:36:03Z</time>
      </trkpt>
      <trkpt lat="41.5173680" lon="-8.7709790">
        <ele>5.7</ele>
        <time>2021-05-17T08:36:04Z</time>
      </trkpt>
      <trkpt lat="41.5173760" lon="-8.7709820">
        <ele>5.7</ele>
        <time>2021-05-17T08:36:05Z</time>
      </trkpt>
      <trkpt lat="41.5173890" lon="-8.7709900">
        <ele>5.7</ele>
        <time>2021-05-17T08:36:06Z</time>
      </trkpt>
      <trkpt lat="41.5174010" lon="-8.7709970">
        <ele>5.7</ele>
        <time>2021-05-17T08:36:07Z</time>
      </trkpt>
      <trkpt lat="41.5174230" lon="-8.7710040">
        <ele>5.7</ele>
        <time>2021-05-17T08:36:08Z</time>
      </trkpt>
      <trkpt lat="41.5174330" lon="-8.7710020">
        <ele>5.7</ele>
        <time>2021-05-17T08:36:09Z</time>
      </trkpt>
      <trkpt lat="41.5174420" lon="-8.7710000">
        <ele>5.6</ele>
        <time>2021-05-17T08:36:10Z</time>
      </trkpt>
      <trkpt lat="41.5174630" lon="-8.7710090">
        <ele>5.6</ele>
        <time>2021-05-17T08:36:11Z</time>
      </trkpt>
      <trkpt lat="41.5174710" lon="-8.7710170">
        <ele>5.6</ele>
        <time>2021-05-17T08:36:12Z</time>
      </trkpt>
      <trkpt lat="41.5174790" lon="-8.7710240">
        <ele>5.6</ele>
        <time>2021-05-17T08:36:13Z</time>
      </trkpt>
      <trkpt lat="41.5174890" lon="-8.7710310">
        <ele>5.6</ele>
        <time>2021-05-17T08:36:14Z</time>
      </trkpt>
      <trkpt lat="41.5175000" lon="-8.7710350">
        <ele>5.6</ele>
        <time>2021-05-17T08:36:15Z</time>
      </trkpt>
      <trkpt lat="41.5175130" lon="-8.7710370">
        <ele>5.6</ele>
        <time>2021-05-17T08:36:16Z</time>
      </trkpt>
      <trkpt lat="41.5175180" lon="-8.7710610">
        <ele>5.6</ele>
        <time>2021-05-17T08:36:17Z</time>
      </trkpt>
      <trkpt lat="41.5175300" lon="-8.7710680">
        <ele>5.6</ele>
        <time>2021-05-17T08:36:18Z</time>
      </trkpt>
      <trkpt lat="41.5175390" lon="-8.7710850">
        <ele>5.6</ele>
        <time>2021-05-17T08:36:19Z</time>
      </trkpt>
      <trkpt lat="41.5175490" lon="-8.7710940">
        <ele>5.6</ele>
        <time>2021-05-17T08:36:20Z</time>
      </trkpt>
      <trkpt lat="41.5175590" lon="-8.7711070">
        <ele>5.5</ele>
        <time>2021-05-17T08:36:21Z</time>
      </trkpt>
      <trkpt lat="41.5175710" lon="-8.7711210">
        <ele>5.5</ele>
        <time>2021-05-17T08:36:22Z</time>
      </trkpt>
      <trkpt lat="41.5175760" lon="-8.7711400">
        <ele>5.5</ele>
        <time>2021-05-17T08:36:23Z</time>
      </trkpt>
      <trkpt lat="41.5175900" lon="-8.7711500">
        <ele>5.5</ele>
        <time>2021-05-17T08:36:24Z</time>
      </trkpt>
      <trkpt lat="41.5175990" lon="-8.7711620">
        <ele>5.5</ele>
        <time>2021-05-17T08:36:25Z</time>
      </trkpt>
      <trkpt lat="41.5176110" lon="-8.7711740">
        <ele>5.5</ele>
        <time>2021-05-17T08:36:26Z</time>
      </trkpt>
      <trkpt lat="41.5176190" lon="-8.7711880">
        <ele>5.5</ele>
        <time>2021-05-17T08:36:27Z</time>
      </trkpt>
      <trkpt lat="41.5176250" lon="-8.7712070">
        <ele>5.5</ele>
        <time>2021-05-17T08:36:28Z</time>
      </trkpt>
      <trkpt lat="41.5176330" lon="-8.7712220">
        <ele>5.5</ele>
        <time>2021-05-17T08:36:29Z</time>
      </trkpt>
      <trkpt lat="41.5176440" lon="-8.7712340">
        <ele>5.4</ele>
        <time>2021-05-17T08:36:30Z</time>
      </trkpt>
      <trkpt lat="41.5176550" lon="-8.7712460">
        <ele>5.4</ele>
        <time>2021-05-17T08:36:31Z</time>
      </trkpt>
      <trkpt lat="41.5176690" lon="-8.7712530">
        <ele>5.4</ele>
        <time>2021-05-17T08:36:32Z</time>
      </trkpt>
      <trkpt lat="41.5176770" lon="-8.7712680">
        <ele>5.4</ele>
        <time>2021-05-17T08:36:33Z</time>
      </trkpt>
      <trkpt lat="41.5176890" lon="-8.7712830">
        <ele>5.4</ele>
        <time>2021-05-17T08:36:34Z</time>
      </trkpt>
      <trkpt lat="41.5176960" lon="-8.7712990">
        <ele>5.4</ele>
        <time>2021-05-17T08:36:35Z</time>
      </trkpt>
      <trkpt lat="41.5177100" lon="-8.7713070">
        <ele>5.4</ele>
        <time>2021-05-17T08:36:36Z</time>
      </trkpt>
      <trkpt lat="41.5177230" lon="-8.7713130">
        <ele>5.4</ele>
        <time>2021-05-17T08:36:37Z</time>
      </trkpt>
      <trkpt lat="41.5177400" lon="-8.7713220">
        <ele>5.4</ele>
        <time>2021-05-17T08:36:38Z</time>
      </trkpt>
      <trkpt lat="41.5177510" lon="-8.7713340">
        <ele>5.4</ele>
        <time>2021-05-17T08:36:39Z</time>
      </trkpt>
      <trkpt lat="41.5177680" lon="-8.7713390">
        <ele>5.3</ele>
        <time>2021-05-17T08:36:40Z</time>
      </trkpt>
      <trkpt lat="41.5177820" lon="-8.7713620">
        <ele>5.3</ele>
        <time>2021-05-17T08:36:41Z</time>
      </trkpt>
      <trkpt lat="41.5177890" lon="-8.7713680">
        <ele>5.3</ele>
        <time>2021-05-17T08:36:42Z</time>
      </trkpt>
      <trkpt lat="41.5177960" lon="-8.7713750">
        <ele>5.3</ele>
        <time>2021-05-17T08:36:43Z</time>
      </trkpt>
      <trkpt lat="41.5178030" lon="-8.7713910">
        <ele>5.3</ele>
        <time>2021-05-17T08:36:44Z</time>
      </trkpt>
      <trkpt lat="41.5178120" lon="-8.7714070">
        <ele>5.3</ele>
        <time>2021-05-17T08:36:45Z</time>
      </trkpt>
      <trkpt lat="41.5178230" lon="-8.7714190">
        <ele>5.3</ele>
        <time>2021-05-17T08:36:46Z</time>
      </trkpt>
      <trkpt lat="41.5178370" lon="-8.7714280">
        <ele>5.3</ele>
        <time>2021-05-17T08:36:47Z</time>
      </trkpt>
      <trkpt lat="41.5178480" lon="-8.7714370">
        <ele>5.2</ele>
        <time>2021-05-17T08:36:48Z</time>
      </trkpt>
      <trkpt lat="41.5178580" lon="-8.7714500">
        <ele>5.2</ele>
        <time>2021-05-17T08:36:49Z</time>
      </trkpt>
      <trkpt lat="41.5178770" lon="-8.7714700">
        <ele>5.2</ele>
        <time>2021-05-17T08:36:50Z</time>
      </trkpt>
      <trkpt lat="41.5178840" lon="-8.7714770">
        <ele>5.2</ele>
        <time>2021-05-17T08:36:51Z</time>
      </trkpt>
      <trkpt lat="41.5178920" lon="-8.7714840">
        <ele>5.2</ele>
        <time>2021-05-17T08:36:52Z</time>
      </trkpt>
      <trkpt lat="41.5179050" lon="-8.7714940">
        <ele>5.2</ele>
        <time>2021-05-17T08:36:53Z</time>
      </trkpt>
      <trkpt lat="41.5179180" lon="-8.7715050">
        <ele>5.2</ele>
        <time>2021-05-17T08:36:54Z</time>
      </trkpt>
      <trkpt lat="41.5179310" lon="-8.7715150">
        <ele>5.2</ele>
        <time>2021-05-17T08:36:55Z</time>
      </trkpt>
      <trkpt lat="41.5179440" lon="-8.7715220">
        <ele>5.1</ele>
        <time>2021-05-17T08:36:56Z</time>
      </trkpt>
      <trkpt lat="41.5179590" lon="-8.7715410">
        <ele>5.1</ele>
        <time>2021-05-17T08:36:57Z</time>
      </trkpt>
      <trkpt lat="41.5179670" lon="-8.7715480">
        <ele>5.1</ele>
        <time>2021-05-17T08:36:58Z</time>
      </trkpt>
      <trkpt lat="41.5179740" lon="-8.7715550">
        <ele>5.1</ele>
        <time>2021-05-17T08:36:59Z</time>
      </trkpt>
      <trkpt lat="41.5179870" lon="-8.7715650">
        <ele>5.1</ele>
        <time>2021-05-17T08:37:00Z</time>
      </trkpt>
      <trkpt lat="41.5179940" lon="-8.7715820">
        <ele>5.1</ele>
        <time>2021-05-17T08:37:01Z</time>
      </trkpt>
      <trkpt lat="41.5180020" lon="-8.7716000">
        <ele>5.1</ele>
        <time>2021-05-17T08:37:02Z</time>
      </trkpt>
      <trkpt lat="41.5180130" lon="-8.7716130">
        <ele>5.0</ele>
        <time>2021-05-17T08:37:03Z</time>
      </trkpt>
      <trkpt lat="41.5180190" lon="-8.7716280">
        <ele>5.0</ele>
        <time>2021-05-17T08:37:04Z</time>
      </trkpt>
      <trkpt lat="41.5180320" lon="-8.7716400">
        <ele>5.0</ele>
        <time>2021-05-17T08:37:05Z</time>
      </trkpt>
      <trkpt lat="41.5180430" lon="-8.7716520">
        <ele>5.0</ele>
        <time>2021-05-17T08:37:06Z</time>
      </trkpt>
      <trkpt lat="41.5180540" lon="-8.7716640">
        <ele>5.0</ele>
        <time>2021-05-17T08:37:07Z</time>
      </trkpt>
      <trkpt lat="41.5180660" lon="-8.7716760">
        <ele>5.0</ele>
        <time>2021-05-17T08:37:08Z</time>
      </trkpt>
      <trkpt lat="41.5180740" lon="-8.7716890">
        <ele>4.9</ele>
        <time>2021-05-17T08:37:09Z</time>
      </trkpt>
      <trkpt lat="41.5180880" lon="-8.7716990">
        <ele>4.9</ele>
        <time>2021-05-17T08:37:10Z</time>
      </trkpt>
      <trkpt lat="41.5181000" lon="-8.7717090">
        <ele>4.9</ele>
        <time>2021-05-17T08:37:11Z</time>
      </trkpt>
      <trkpt lat="41.5181140" lon="-8.7717290">
        <ele>4.9</ele>
        <time>2021-05-17T08:37:12Z</time>
      </trkpt>
      <trkpt lat="41.5181220" lon="-8.7717340">
        <ele>4.9</ele>
        <time>2021-05-17T08:37:13Z</time>
      </trkpt>
      <trkpt lat="41.5181290" lon="-8.7717400">
        <ele>4.9</ele>
        <time>2021-05-17T08:37:14Z</time>
      </trkpt>
      <trkpt lat="41.5181400" lon="-8.7717490">
        <ele>4.9</ele>
        <time>2021-05-17T08:37:15Z</time>
      </trkpt>
      <trkpt lat="41.5181590" lon="-8.7717470">
        <ele>4.8</ele>
        <time>2021-05-17T08:37:16Z</time>
      </trkpt>
      <trkpt lat="41.5181710" lon="-8.7717570">
        <ele>4.8</ele>
        <time>2021-05-17T08:37:17Z</time>
      </trkpt>
      <trkpt lat="41.5181840" lon="-8.7717700">
        <ele>4.8</ele>
        <time>2021-05-17T08:37:18Z</time>
      </trkpt>
      <trkpt lat="41.5182020" lon="-8.7717880">
        <ele>4.8</ele>
        <time>2021-05-17T08:37:19Z</time>
      </trkpt>
      <trkpt lat="41.5182080" lon="-8.7717960">
        <ele>4.8</ele>
        <time>2021-05-17T08:37:20Z</time>
      </trkpt>
      <trkpt lat="41.5182150" lon="-8.7718050">
        <ele>4.8</ele>
        <time>2021-05-17T08:37:21Z</time>
      </trkpt>
      <trkpt lat="41.5182340" lon="-8.7718200">
        <ele>4.7</ele>
        <time>2021-05-17T08:37:22Z</time>
      </trkpt>
      <trkpt lat="41.5182380" lon="-8.7718300">
        <ele>4.7</ele>
        <time>2021-05-17T08:37:23Z</time>
      </trkpt>
      <trkpt lat="41.5182420" lon="-8.7718390">
        <ele>4.7</ele>
        <time>2021-05-17T08:37:24Z</time>
      </trkpt>
      <trkpt lat="41.5182560" lon="-8.7718500">
        <ele>4.7</ele>
        <time>2021-05-17T08:37:25Z</time>
      </trkpt>
      <trkpt lat="41.5182630" lon="-8.7718640">
        <ele>4.7</ele>
        <time>2021-05-17T08:37:26Z</time>
      </trkpt>
      <trkpt lat="41.5182740" lon="-8.7718770">
        <ele>4.7</ele>
        <time>2021-05-17T08:37:27Z</time>
      </trkpt>
      <trkpt lat="41.5182830" lon="-8.7718890">
        <ele>4.7</ele>
        <time>2021-05-17T08:37:28Z</time>
      </trkpt>
      <trkpt lat="41.5183030" lon="-8.7719060">
        <ele>4.7</ele>
        <time>2021-05-17T08:37:29Z</time>
      </trkpt>
      <trkpt lat="41.5183090" lon="-8.7719150">
        <ele>4.6</ele>
        <time>2021-05-17T08:37:30Z</time>
      </trkpt>
      <trkpt lat="41.5183150" lon="-8.7719250">
        <ele>4.6</ele>
        <time>2021-05-17T08:37:31Z</time>
      </trkpt>
      <trkpt lat="41.5183220" lon="-8.7719420">
        <ele>4.6</ele>
        <time>2021-05-17T08:37:32Z</time>
      </trkpt>
      <trkpt lat="41.5183380" lon="-8.7719480">
        <ele>4.6</ele>
        <time>2021-05-17T08:37:33Z</time>
      </trkpt>
      <trkpt lat="41.5183480" lon="-8.7719610">
        <ele>4.6</ele>
        <time>2021-05-17T08:37:34Z</time>
      </trkpt>
      <trkpt lat="41.5183590" lon="-8.7719730">
        <ele>4.6</ele>
        <time>2021-05-17T08:37:35Z</time>
      </trkpt>
      <trkpt lat="41.5183750" lon="-8.7719960">
        <ele>4.6</ele>
        <time>2021-05-17T08:37:36Z</time>
      </trkpt>
      <trkpt lat="41.5183820" lon="-8.7720020">
        <ele>4.6</ele>
        <time>2021-05-17T08:37:37Z</time>
      </trkpt>
      <trkpt lat="41.5183900" lon="-8.7720090">
        <ele>4.6</ele>
        <time>2021-05-17T08:37:38Z</time>
      </trkpt>
      <trkpt lat="41.5184040" lon="-8.7720160">
        <ele>4.5</ele>
        <time>2021-05-17T08:37:39Z</time>
      </trkpt>
      <trkpt lat="41.5184150" lon="-8.7720250">
        <ele>4.5</ele>
        <time>2021-05-17T08:37:40Z</time>
      </trkpt>
      <trkpt lat="41.5184240" lon="-8.7720420">
        <ele>4.5</ele>
        <time>2021-05-17T08:37:41Z</time>
      </trkpt>
      <trkpt lat="41.5184370" lon="-8.7720520">
        <ele>4.5</ele>
        <time>2021-05-17T08:37:42Z</time>
      </trkpt>
      <trkpt lat="41.5184550" lon="-8.7720710">
        <ele>4.5</ele>
        <time>2021-05-17T08:37:43Z</time>
      </trkpt>
      <trkpt lat="41.5184620" lon="-8.7720780">
        <ele>4.5</ele>
        <time>2021-05-17T08:37:44Z</time>
      </trkpt>
      <trkpt lat="41.5184700" lon="-8.7720860">
        <ele>4.5</ele>
        <time>2021-05-17T08:37:45Z</time>
      </trkpt>
      <trkpt lat="41.5184770" lon="-8.7721030">
        <ele>4.5</ele>
        <time>2021-05-17T08:37:46Z</time>
      </trkpt>
      <trkpt lat="41.5184840" lon="-8.7721180">
        <ele>4.4</ele>
        <time>2021-05-17T08:37:47Z</time>
      </trkpt>
      <trkpt lat="41.5184940" lon="-8.7721290">
        <ele>4.4</ele>
        <time>2021-05-17T08:37:48Z</time>
      </trkpt>
      <trkpt lat="41.5185010" lon="-8.7721470">
        <ele>4.4</ele>
        <time>2021-05-17T08:37:49Z</time>
      </trkpt>
      <trkpt lat="41.5185150" lon="-8.7721560">
        <ele>4.4</ele>
        <time>2021-05-17T08:37:50Z</time>
      </trkpt>
      <trkpt lat="41.5185240" lon="-8.7721700">
        <ele>4.4</ele>
        <time>2021-05-17T08:37:51Z</time>
      </trkpt>
      <trkpt lat="41.5185330" lon="-8.7721850">
        <ele>4.4</ele>
        <time>2021-05-17T08:37:52Z</time>
      </trkpt>
      <trkpt lat="41.5185440" lon="-8.7721970">
        <ele>4.4</ele>
        <time>2021-05-17T08:37:53Z</time>
      </trkpt>
      <trkpt lat="41.5185560" lon="-8.7722100">
        <ele>4.3</ele>
        <time>2021-05-17T08:37:54Z</time>
      </trkpt>
      <trkpt lat="41.5185650" lon="-8.7722250">
        <ele>4.3</ele>
        <time>2021-05-17T08:37:55Z</time>
      </trkpt>
      <trkpt lat="41.5185800" lon="-8.7722320">
        <ele>4.3</ele>
        <time>2021-05-17T08:37:56Z</time>
      </trkpt>
      <trkpt lat="41.5185870" lon="-8.7722460">
        <ele>4.3</ele>
        <time>2021-05-17T08:37:57Z</time>
      </trkpt>
      <trkpt lat="41.5186030" lon="-8.7722530">
        <ele>4.3</ele>
        <time>2021-05-17T08:37:58Z</time>
      </trkpt>
      <trkpt lat="41.5186120" lon="-8.7722720">
        <ele>4.3</ele>
        <time>2021-05-17T08:37:59Z</time>
      </trkpt>
      <trkpt lat="41.5186260" lon="-8.7722930">
        <ele>4.2</ele>
        <time>2021-05-17T08:38:00Z</time>
      </trkpt>
      <trkpt lat="41.5186330" lon="-8.7723020">
        <ele>4.2</ele>
        <time>2021-05-17T08:38:01Z</time>
      </trkpt>
      <trkpt lat="41.5186400" lon="-8.7723100">
        <ele>4.2</ele>
        <time>2021-05-17T08:38:02Z</time>
      </trkpt>
      <trkpt lat="41.5186540" lon="-8.7723140">
        <ele>4.2</ele>
        <time>2021-05-17T08:38:03Z</time>
      </trkpt>
      <trkpt lat="41.5186650" lon="-8.7723240">
        <ele>4.2</ele>
        <time>2021-05-17T08:38:04Z</time>
      </trkpt>
      <trkpt lat="41.5186770" lon="-8.7723340">
        <ele>4.2</ele>
        <time>2021-05-17T08:38:05Z</time>
      </trkpt>
      <trkpt lat="41.5186880" lon="-8.7723430">
        <ele>4.2</ele>
        <time>2021-05-17T08:38:06Z</time>
      </trkpt>
      <trkpt lat="41.5186980" lon="-8.7723570">
        <ele>4.2</ele>
        <time>2021-05-17T08:38:07Z</time>
      </trkpt>
      <trkpt lat="41.5187060" lon="-8.7723720">
        <ele>4.1</ele>
        <time>2021-05-17T08:38:08Z</time>
      </trkpt>
      <trkpt lat="41.5187200" lon="-8.7723800">
        <ele>4.1</ele>
        <time>2021-05-17T08:38:09Z</time>
      </trkpt>
      <trkpt lat="41.5187300" lon="-8.7723910">
        <ele>4.1</ele>
        <time>2021-05-17T08:38:10Z</time>
      </trkpt>
      <trkpt lat="41.5187480" lon="-8.7724080">
        <ele>4.1</ele>
        <time>2021-05-17T08:38:11Z</time>
      </trkpt>
      <trkpt lat="41.5187550" lon="-8.7724160">
        <ele>4.1</ele>
        <time>2021-05-17T08:38:12Z</time>
      </trkpt>
      <trkpt lat="41.5187620" lon="-8.7724240">
        <ele>4.1</ele>
        <time>2021-05-17T08:38:13Z</time>
      </trkpt>
      <trkpt lat="41.5187720" lon="-8.7724350">
        <ele>4.1</ele>
        <time>2021-05-17T08:38:14Z</time>
      </trkpt>
      <trkpt lat="41.5187810" lon="-8.7724500">
        <ele>4.1</ele>
        <time>2021-05-17T08:38:15Z</time>
      </trkpt>
      <trkpt lat="41.5187890" lon="-8.7724660">
        <ele>4.1</ele>
        <time>2021-05-17T08:38:16Z</time>
      </trkpt>
      <trkpt lat="41.5187970" lon="-8.7724800">
        <ele>4.0</ele>
        <time>2021-05-17T08:38:17Z</time>
      </trkpt>
      <trkpt lat="41.5188090" lon="-8.7724940">
        <ele>4.0</ele>
        <time>2021-05-17T08:38:18Z</time>
      </trkpt>
      <trkpt lat="41.5188270" lon="-8.7725000">
        <ele>4.0</ele>
        <time>2021-05-17T08:38:19Z</time>
      </trkpt>
      <trkpt lat="41.5188370" lon="-8.7725090">
        <ele>4.0</ele>
        <time>2021-05-17T08:38:20Z</time>
      </trkpt>
      <trkpt lat="41.5188500" lon="-8.7725210">
        <ele>4.0</ele>
        <time>2021-05-17T08:38:21Z</time>
      </trkpt>
      <trkpt lat="41.5188630" lon="-8.7725300">
        <ele>4.0</ele>
        <time>2021-05-17T08:38:22Z</time>
      </trkpt>
      <trkpt lat="41.5188710" lon="-8.7725460">
        <ele>4.0</ele>
        <time>2021-05-17T08:38:23Z</time>
      </trkpt>
      <trkpt lat="41.5188830" lon="-8.7725570">
        <ele>4.0</ele>
        <time>2021-05-17T08:38:24Z</time>
      </trkpt>
      <trkpt lat="41.5188910" lon="-8.7725760">
        <ele>4.0</ele>
        <time>2021-05-17T08:38:25Z</time>
      </trkpt>
      <trkpt lat="41.5189040" lon="-8.7725850">
        <ele>4.0</ele>
        <time>2021-05-17T08:38:26Z</time>
      </trkpt>
      <trkpt lat="41.5189120" lon="-8.7726020">
        <ele>4.0</ele>
        <time>2021-05-17T08:38:27Z</time>
      </trkpt>
      <trkpt lat="41.5189260" lon="-8.7726120">
        <ele>4.0</ele>
        <time>2021-05-17T08:38:28Z</time>
      </trkpt>
      <trkpt lat="41.5189380" lon="-8.7726170">
        <ele>3.9</ele>
        <time>2021-05-17T08:38:29Z</time>
      </trkpt>
      <trkpt lat="41.5189530" lon="-8.7726240">
        <ele>3.9</ele>
        <time>2021-05-17T08:38:30Z</time>
      </trkpt>
      <trkpt lat="41.5189670" lon="-8.7726320">
        <ele>3.9</ele>
        <time>2021-05-17T08:38:31Z</time>
      </trkpt>
      <trkpt lat="41.5189840" lon="-8.7726530">
        <ele>3.9</ele>
        <time>2021-05-17T08:38:32Z</time>
      </trkpt>
      <trkpt lat="41.5189890" lon="-8.7726620">
        <ele>3.9</ele>
        <time>2021-05-17T08:38:33Z</time>
      </trkpt>
      <trkpt lat="41.5189950" lon="-8.7726700">
        <ele>3.9</ele>
        <time>2021-05-17T08:38:34Z</time>
      </trkpt>
      <trkpt lat="41.5190030" lon="-8.7726810">
        <ele>3.9</ele>
        <time>2021-05-17T08:38:35Z</time>
      </trkpt>
      <trkpt lat="41.5190200" lon="-8.7726850">
        <ele>3.9</ele>
        <time>2021-05-17T08:38:36Z</time>
      </trkpt>
      <trkpt lat="41.5190350" lon="-8.7727050">
        <ele>3.9</ele>
        <time>2021-05-17T08:38:37Z</time>
      </trkpt>
      <trkpt lat="41.5190420" lon="-8.7727130">
        <ele>3.9</ele>
        <time>2021-05-17T08:38:38Z</time>
      </trkpt>
      <trkpt lat="41.5190480" lon="-8.7727210">
        <ele>3.9</ele>
        <time>2021-05-17T08:38:39Z</time>
      </trkpt>
      <trkpt lat="41.5190600" lon="-8.7727340">
        <ele>3.9</ele>
        <time>2021-05-17T08:38:40Z</time>
      </trkpt>
      <trkpt lat="41.5190670" lon="-8.7727530">
        <ele>3.8</ele>
        <time>2021-05-17T08:38:41Z</time>
      </trkpt>
      <trkpt lat="41.5190840" lon="-8.7727710">
        <ele>3.8</ele>
        <time>2021-05-17T08:38:42Z</time>
      </trkpt>
      <trkpt lat="41.5190910" lon="-8.7727820">
        <ele>3.8</ele>
        <time>2021-05-17T08:38:43Z</time>
      </trkpt>
      <trkpt lat="41.5190970" lon="-8.7727920">
        <ele>3.8</ele>
        <time>2021-05-17T08:38:44Z</time>
      </trkpt>
      <trkpt lat="41.5191160" lon="-8.7728110">
        <ele>3.8</ele>
        <time>2021-05-17T08:38:45Z</time>
      </trkpt>
      <trkpt lat="41.5191210" lon="-8.7728210">
        <ele>3.8</ele>
        <time>2021-05-17T08:38:46Z</time>
      </trkpt>
      <trkpt lat="41.5191270" lon="-8.7728300">
        <ele>3.8</ele>
        <time>2021-05-17T08:38:47Z</time>
      </trkpt>
      <trkpt lat="41.5191430" lon="-8.7728520">
        <ele>3.8</ele>
        <time>2021-05-17T08:38:48Z</time>
      </trkpt>
      <trkpt lat="41.5191480" lon="-8.7728600">
        <ele>3.8</ele>
        <time>2021-05-17T08:38:49Z</time>
      </trkpt>
      <trkpt lat="41.5191540" lon="-8.7728690">
        <ele>3.8</ele>
        <time>2021-05-17T08:38:50Z</time>
      </trkpt>
      <trkpt lat="41.5191660" lon="-8.7728810">
        <ele>3.8</ele>
        <time>2021-05-17T08:38:51Z</time>
      </trkpt>
      <trkpt lat="41.5191750" lon="-8.7728970">
        <ele>3.7</ele>
        <time>2021-05-17T08:38:52Z</time>
      </trkpt>
      <trkpt lat="41.5191920" lon="-8.7729170">
        <ele>3.7</ele>
        <time>2021-05-17T08:38:53Z</time>
      </trkpt>
      <trkpt lat="41.5192010" lon="-8.7729230">
        <ele>3.7</ele>
        <time>2021-05-17T08:38:54Z</time>
      </trkpt>
      <trkpt lat="41.5192100" lon="-8.7729290">
        <ele>3.7</ele>
        <time>2021-05-17T08:38:55Z</time>
      </trkpt>
      <trkpt lat="41.5192220" lon="-8.7729570">
        <ele>3.7</ele>
        <time>2021-05-17T08:38:56Z</time>
      </trkpt>
      <trkpt lat="41.5192270" lon="-8.7729650">
        <ele>3.7</ele>
        <time>2021-05-17T08:38:57Z</time>
      </trkpt>
      <trkpt lat="41.5192320" lon="-8.7729730">
        <ele>3.7</ele>
        <time>2021-05-17T08:38:58Z</time>
      </trkpt>
      <trkpt lat="41.5192430" lon="-8.7729860">
        <ele>3.7</ele>
        <time>2021-05-17T08:38:59Z</time>
      </trkpt>
      <trkpt lat="41.5192480" lon="-8.7729960">
        <ele>3.7</ele>
        <time>2021-05-17T08:39:00Z</time>
      </trkpt>
      <trkpt lat="41.5192590" lon="-8.7730050">
        <ele>3.7</ele>
        <time>2021-05-17T08:39:01Z</time>
      </trkpt>
      <trkpt lat="41.5192690" lon="-8.7730160">
        <ele>3.6</ele>
        <time>2021-05-17T08:39:02Z</time>
      </trkpt>
      <trkpt lat="41.5192790" lon="-8.7730310">
        <ele>3.6</ele>
        <time>2021-05-17T08:39:03Z</time>
      </trkpt>
      <trkpt lat="41.5192850" lon="-8.7730440">
        <ele>3.6</ele>
        <time>2021-05-17T08:39:04Z</time>
      </trkpt>
      <trkpt lat="41.5192960" lon="-8.7730550">
        <ele>3.6</ele>
        <time>2021-05-17T08:39:05Z</time>
      </trkpt>
      <trkpt lat="41.5193030" lon="-8.7730690">
        <ele>3.6</ele>
        <time>2021-05-17T08:39:06Z</time>
      </trkpt>
      <trkpt lat="41.5193130" lon="-8.7730770">
        <ele>3.6</ele>
        <time>2021-05-17T08:39:07Z</time>
      </trkpt>
      <trkpt lat="41.5193220" lon="-8.7730940">
        <ele>3.6</ele>
        <time>2021-05-17T08:39:08Z</time>
      </trkpt>
      <trkpt lat="41.5193340" lon="-8.7731080">
        <ele>3.5</ele>
        <time>2021-05-17T08:39:09Z</time>
      </trkpt>
      <trkpt lat="41.5193440" lon="-8.7731150">
        <ele>3.5</ele>
        <time>2021-05-17T08:39:10Z</time>
      </trkpt>
      <trkpt lat="41.5193520" lon="-8.7731270">
        <ele>3.5</ele>
        <time>2021-05-17T08:39:11Z</time>
      </trkpt>
      <trkpt lat="41.5193660" lon="-8.7731450">
        <ele>3.5</ele>
        <time>2021-05-17T08:39:12Z</time>
      </trkpt>
      <trkpt lat="41.5193720" lon="-8.7731630">
        <ele>3.5</ele>
        <time>2021-05-17T08:39:13Z</time>
      </trkpt>
      <trkpt lat="41.5193840" lon="-8.7731740">
        <ele>3.5</ele>
        <time>2021-05-17T08:39:14Z</time>
      </trkpt>
      <trkpt lat="41.5193940" lon="-8.7731860">
        <ele>3.4</ele>
        <time>2021-05-17T08:39:15Z</time>
      </trkpt>
      <trkpt lat="41.5194100" lon="-8.7731950">
        <ele>3.4</ele>
        <time>2021-05-17T08:39:16Z</time>
      </trkpt>
      <trkpt lat="41.5194190" lon="-8.7732090">
        <ele>3.4</ele>
        <time>2021-05-17T08:39:17Z</time>
      </trkpt>
      <trkpt lat="41.5194280" lon="-8.7732220">
        <ele>3.4</ele>
        <time>2021-05-17T08:39:18Z</time>
      </trkpt>
      <trkpt lat="41.5194450" lon="-8.7732350">
        <ele>3.4</ele>
        <time>2021-05-17T08:39:19Z</time>
      </trkpt>
      <trkpt lat="41.5194530" lon="-8.7732450">
        <ele>3.4</ele>
        <time>2021-05-17T08:39:20Z</time>
      </trkpt>
      <trkpt lat="41.5194600" lon="-8.7732540">
        <ele>3.3</ele>
        <time>2021-05-17T08:39:21Z</time>
      </trkpt>
      <trkpt lat="41.5194710" lon="-8.7732680">
        <ele>3.3</ele>
        <time>2021-05-17T08:39:22Z</time>
      </trkpt>
      <trkpt lat="41.5194810" lon="-8.7732800">
        <ele>3.3</ele>
        <time>2021-05-17T08:39:23Z</time>
      </trkpt>
      <trkpt lat="41.5194970" lon="-8.7732990">
        <ele>3.3</ele>
        <time>2021-05-17T08:39:24Z</time>
      </trkpt>
      <trkpt lat="41.5195040" lon="-8.7733070">
        <ele>3.3</ele>
        <time>2021-05-17T08:39:25Z</time>
      </trkpt>
      <trkpt lat="41.5195100" lon="-8.7733150">
        <ele>3.3</ele>
        <time>2021-05-17T08:39:26Z</time>
      </trkpt>
      <trkpt lat="41.5195220" lon="-8.7733310">
        <ele>3.3</ele>
        <time>2021-05-17T08:39:27Z</time>
      </trkpt>
      <trkpt lat="41.5195350" lon="-8.7733420">
        <ele>3.3</ele>
        <time>2021-05-17T08:39:28Z</time>
      </trkpt>
      <trkpt lat="41.5195470" lon="-8.7733470">
        <ele>3.2</ele>
        <time>2021-05-17T08:39:29Z</time>
      </trkpt>
      <trkpt lat="41.5195560" lon="-8.7733690">
        <ele>3.2</ele>
        <time>2021-05-17T08:39:30Z</time>
      </trkpt>
      <trkpt lat="41.5195690" lon="-8.7733940">
        <ele>3.2</ele>
        <time>2021-05-17T08:39:31Z</time>
      </trkpt>
      <trkpt lat="41.5195760" lon="-8.7734040">
        <ele>3.2</ele>
        <time>2021-05-17T08:39:32Z</time>
      </trkpt>
      <trkpt lat="41.5195830" lon="-8.7734140">
        <ele>3.2</ele>
        <time>2021-05-17T08:39:33Z</time>
      </trkpt>
      <trkpt lat="41.5196010" lon="-8.7734290">
        <ele>3.2</ele>
        <time>2021-05-17T08:39:34Z</time>
      </trkpt>
      <trkpt lat="41.5196080" lon="-8.7734350">
        <ele>3.2</ele>
        <time>2021-05-17T08:39:35Z</time>
      </trkpt>
      <trkpt lat="41.5196160" lon="-8.7734400">
        <ele>3.2</ele>
        <time>2021-05-17T08:39:36Z</time>
      </trkpt>
      <trkpt lat="41.5196300" lon="-8.7734580">
        <ele>3.2</ele>
        <time>2021-05-17T08:39:37Z</time>
      </trkpt>
      <trkpt lat="41.5196370" lon="-8.7734660">
        <ele>3.2</ele>
        <time>2021-05-17T08:39:38Z</time>
      </trkpt>
      <trkpt lat="41.5196430" lon="-8.7734730">
        <ele>3.2</ele>
        <time>2021-05-17T08:39:39Z</time>
      </trkpt>
      <trkpt lat="41.5196540" lon="-8.7734790">
        <ele>3.2</ele>
        <time>2021-05-17T08:39:40Z</time>
      </trkpt>
      <trkpt lat="41.5196670" lon="-8.7734910">
        <ele>3.2</ele>
        <time>2021-05-17T08:39:41Z</time>
      </trkpt>
      <trkpt lat="41.5196770" lon="-8.7735070">
        <ele>3.2</ele>
        <time>2021-05-17T08:39:42Z</time>
      </trkpt>
      <trkpt lat="41.5196930" lon="-8.7735050">
        <ele>3.2</ele>
        <time>2021-05-17T08:39:43Z</time>
      </trkpt>
      <trkpt lat="41.5197050" lon="-8.7735160">
        <ele>3.2</ele>
        <time>2021-05-17T08:39:44Z</time>
      </trkpt>
      <trkpt lat="41.5197170" lon="-8.7735270">
        <ele>3.2</ele>
        <time>2021-05-17T08:39:45Z</time>
      </trkpt>
      <trkpt lat="41.5197330" lon="-8.7735470">
        <ele>3.2</ele>
        <time>2021-05-17T08:39:46Z</time>
      </trkpt>
      <trkpt lat="41.5197400" lon="-8.7735540">
        <ele>3.2</ele>
        <time>2021-05-17T08:39:47Z</time>
      </trkpt>
      <trkpt lat="41.5197470" lon="-8.7735620">
        <ele>3.2</ele>
        <time>2021-05-17T08:39:48Z</time>
      </trkpt>
      <trkpt lat="41.5197630" lon="-8.7735770">
        <ele>3.2</ele>
        <time>2021-05-17T08:39:49Z</time>
      </trkpt>
      <trkpt lat="41.5197690" lon="-8.7735860">
        <ele>3.2</ele>
        <time>2021-05-17T08:39:50Z</time>
      </trkpt>
      <trkpt lat="41.5197750" lon="-8.7735960">
        <ele>3.2</ele>
        <time>2021-05-17T08:39:51Z</time>
      </trkpt>
      <trkpt lat="41.5197920" lon="-8.7736150">
        <ele>3.1</ele>
        <time>2021-05-17T08:39:52Z</time>
      </trkpt>
      <trkpt lat="41.5198000" lon="-8.7736220">
        <ele>3.1</ele>
        <time>2021-05-17T08:39:53Z</time>
      </trkpt>
      <trkpt lat="41.5198080" lon="-8.7736290">
        <ele>3.1</ele>
        <time>2021-05-17T08:39:54Z</time>
      </trkpt>
      <trkpt lat="41.5198250" lon="-8.7736490">
        <ele>3.1</ele>
        <time>2021-05-17T08:39:55Z</time>
      </trkpt>
      <trkpt lat="41.5198330" lon="-8.7736570">
        <ele>3.1</ele>
        <time>2021-05-17T08:39:56Z</time>
      </trkpt>
      <trkpt lat="41.5198400" lon="-8.7736650">
        <ele>3.1</ele>
        <time>2021-05-17T08:39:57Z</time>
      </trkpt>
      <trkpt lat="41.5198460" lon="-8.7736720">
        <ele>3.1</ele>
        <time>2021-05-17T08:39:58Z</time>
      </trkpt>
      <trkpt lat="41.5198530" lon="-8.7736790">
        <ele>3.1</ele>
        <time>2021-05-17T08:39:59Z</time>
      </trkpt>
      <trkpt lat="41.5198530" lon="-8.7736810">
        <ele>3.1</ele>
        <time>2021-05-17T08:40:00Z</time>
      </trkpt>
      <trkpt lat="41.5198480" lon="-8.7736750">
        <ele>3.1</ele>
        <time>2021-05-17T08:40:01Z</time>
      </trkpt>
      <trkpt lat="41.5198460" lon="-8.7736730">
        <ele>3.1</ele>
        <time>2021-05-17T08:40:02Z</time>
      </trkpt>
      <trkpt lat="41.5198450" lon="-8.7736700">
        <ele>3.1</ele>
        <time>2021-05-17T08:40:03Z</time>
      </trkpt>
      <trkpt lat="41.5198570" lon="-8.7736850">
        <ele>3.1</ele>
        <time>2021-05-17T08:40:04Z</time>
      </trkpt>
      <trkpt lat="41.5198650" lon="-8.7736970">
        <ele>3.1</ele>
        <time>2021-05-17T08:40:05Z</time>
      </trkpt>
      <trkpt lat="41.5198760" lon="-8.7737110">
        <ele>3.1</ele>
        <time>2021-05-17T08:40:06Z</time>
      </trkpt>
      <trkpt lat="41.5198850" lon="-8.7737240">
        <ele>3.1</ele>
        <time>2021-05-17T08:40:07Z</time>
      </trkpt>
      <trkpt lat="41.5198950" lon="-8.7737390">
        <ele>3.1</ele>
        <time>2021-05-17T08:40:08Z</time>
      </trkpt>
      <trkpt lat="41.5199080" lon="-8.7737450">
        <ele>3.1</ele>
        <time>2021-05-17T08:40:09Z</time>
      </trkpt>
      <trkpt lat="41.5199140" lon="-8.7737620">
        <ele>3.1</ele>
        <time>2021-05-17T08:40:10Z</time>
      </trkpt>
      <trkpt lat="41.5199250" lon="-8.7737750">
        <ele>3.1</ele>
        <time>2021-05-17T08:40:11Z</time>
      </trkpt>
      <trkpt lat="41.5199360" lon="-8.7737860">
        <ele>3.1</ele>
        <time>2021-05-17T08:40:12Z</time>
      </trkpt>
      <trkpt lat="41.5199510" lon="-8.7738040">
        <ele>3.1</ele>
        <time>2021-05-17T08:40:13Z</time>
      </trkpt>
      <trkpt lat="41.5199600" lon="-8.7738180">
        <ele>3.1</ele>
        <time>2021-05-17T08:40:14Z</time>
      </trkpt>
      <trkpt lat="41.5199730" lon="-8.7738260">
        <ele>3.1</ele>
        <time>2021-05-17T08:40:15Z</time>
      </trkpt>
      <trkpt lat="41.5199830" lon="-8.7738410">
        <ele>3.2</ele>
        <time>2021-05-17T08:40:16Z</time>
      </trkpt>
      <trkpt lat="41.5199930" lon="-8.7738530">
        <ele>3.2</ele>
        <time>2021-05-17T08:40:17Z</time>
      </trkpt>
      <trkpt lat="41.5200110" lon="-8.7738700">
        <ele>3.2</ele>
        <time>2021-05-17T08:40:18Z</time>
      </trkpt>
      <trkpt lat="41.5200170" lon="-8.7738770">
        <ele>3.2</ele>
        <time>2021-05-17T08:40:19Z</time>
      </trkpt>
      <trkpt lat="41.5200230" lon="-8.7738850">
        <ele>3.2</ele>
        <time>2021-05-17T08:40:20Z</time>
      </trkpt>
      <trkpt lat="41.5200370" lon="-8.7738980">
        <ele>3.2</ele>
        <time>2021-05-17T08:40:21Z</time>
      </trkpt>
      <trkpt lat="41.5200470" lon="-8.7739020">
        <ele>3.2</ele>
        <time>2021-05-17T08:40:22Z</time>
      </trkpt>
      <trkpt lat="41.5200560" lon="-8.7739100">
        <ele>3.2</ele>
        <time>2021-05-17T08:40:23Z</time>
      </trkpt>
      <trkpt lat="41.5200660" lon="-8.7739080">
        <ele>3.2</ele>
        <time>2021-05-17T08:40:24Z</time>
      </trkpt>
      <trkpt lat="41.5200770" lon="-8.7739180">
        <ele>3.2</ele>
        <time>2021-05-17T08:40:25Z</time>
      </trkpt>
      <trkpt lat="41.5200850" lon="-8.7739330">
        <ele>3.2</ele>
        <time>2021-05-17T08:40:26Z</time>
      </trkpt>
      <trkpt lat="41.5201020" lon="-8.7739470">
        <ele>3.2</ele>
        <time>2021-05-17T08:40:27Z</time>
      </trkpt>
      <trkpt lat="41.5201020" lon="-8.7739460">
        <ele>3.2</ele>
        <time>2021-05-17T08:40:28Z</time>
      </trkpt>
      <trkpt lat="41.5201120" lon="-8.7739520">
        <ele>3.2</ele>
        <time>2021-05-17T08:40:29Z</time>
      </trkpt>
      <trkpt lat="41.5201220" lon="-8.7739720">
        <ele>3.2</ele>
        <time>2021-05-17T08:40:30Z</time>
      </trkpt>
      <trkpt lat="41.5201420" lon="-8.7739860">
        <ele>3.2</ele>
        <time>2021-05-17T08:40:31Z</time>
      </trkpt>
      <trkpt lat="41.5201500" lon="-8.7739910">
        <ele>3.2</ele>
        <time>2021-05-17T08:40:32Z</time>
      </trkpt>
      <trkpt lat="41.5201580" lon="-8.7739970">
        <ele>3.2</ele>
        <time>2021-05-17T08:40:33Z</time>
      </trkpt>
      <trkpt lat="41.5201650" lon="-8.7740060">
        <ele>3.2</ele>
        <time>2021-05-17T08:40:34Z</time>
      </trkpt>
      <trkpt lat="41.5201770" lon="-8.7740240">
        <ele>3.2</ele>
        <time>2021-05-17T08:40:35Z</time>
      </trkpt>
      <trkpt lat="41.5201940" lon="-8.7740380">
        <ele>3.2</ele>
        <time>2021-05-17T08:40:36Z</time>
      </trkpt>
      <trkpt lat="41.5202070" lon="-8.7740490">
        <ele>3.2</ele>
        <time>2021-05-17T08:40:37Z</time>
      </trkpt>
      <trkpt lat="41.5202260" lon="-8.7740650">
        <ele>3.2</ele>
        <time>2021-05-17T08:40:38Z</time>
      </trkpt>
      <trkpt lat="41.5202350" lon="-8.7740700">
        <ele>3.2</ele>
        <time>2021-05-17T08:40:39Z</time>
      </trkpt>
      <trkpt lat="41.5202430" lon="-8.7740760">
        <ele>3.2</ele>
        <time>2021-05-17T08:40:40Z</time>
      </trkpt>
      <trkpt lat="41.5202570" lon="-8.7740840">
        <ele>3.2</ele>
        <time>2021-05-17T08:40:41Z</time>
      </trkpt>
      <trkpt lat="41.5202690" lon="-8.7740940">
        <ele>3.2</ele>
        <time>2021-05-17T08:40:42Z</time>
      </trkpt>
      <trkpt lat="41.5202820" lon="-8.7741040">
        <ele>3.2</ele>
        <time>2021-05-17T08:40:43Z</time>
      </trkpt>
      <trkpt lat="41.5202950" lon="-8.7741120">
        <ele>3.2</ele>
        <time>2021-05-17T08:40:44Z</time>
      </trkpt>
      <trkpt lat="41.5203100" lon="-8.7741220">
        <ele>3.2</ele>
        <time>2021-05-17T08:40:45Z</time>
      </trkpt>
      <trkpt lat="41.5203180" lon="-8.7741360">
        <ele>3.2</ele>
        <time>2021-05-17T08:40:46Z</time>
      </trkpt>
      <trkpt lat="41.5203300" lon="-8.7741470">
        <ele>3.2</ele>
        <time>2021-05-17T08:40:47Z</time>
      </trkpt>
      <trkpt lat="41.5203450" lon="-8.7741550">
        <ele>3.2</ele>
        <time>2021-05-17T08:40:48Z</time>
      </trkpt>
      <trkpt lat="41.5203650" lon="-8.7741680">
        <ele>3.2</ele>
        <time>2021-05-17T08:40:49Z</time>
      </trkpt>
      <trkpt lat="41.5203750" lon="-8.7741730">
        <ele>3.2</ele>
        <time>2021-05-17T08:40:50Z</time>
      </trkpt>
      <trkpt lat="41.5203840" lon="-8.7741770">
        <ele>3.2</ele>
        <time>2021-05-17T08:40:51Z</time>
      </trkpt>
      <trkpt lat="41.5204070" lon="-8.7741860">
        <ele>3.2</ele>
        <time>2021-05-17T08:40:52Z</time>
      </trkpt>
      <trkpt lat="41.5204130" lon="-8.7741920">
        <ele>3.2</ele>
        <time>2021-05-17T08:40:53Z</time>
      </trkpt>
      <trkpt lat="41.5204200" lon="-8.7741970">
        <ele>3.2</ele>
        <time>2021-05-17T08:40:54Z</time>
      </trkpt>
      <trkpt lat="41.5204320" lon="-8.7742080">
        <ele>3.2</ele>
        <time>2021-05-17T08:40:55Z</time>
      </trkpt>
      <trkpt lat="41.5204450" lon="-8.7742230">
        <ele>3.2</ele>
        <time>2021-05-17T08:40:56Z</time>
      </trkpt>
      <trkpt lat="41.5204660" lon="-8.7742330">
        <ele>3.2</ele>
        <time>2021-05-17T08:40:57Z</time>
      </trkpt>
      <trkpt lat="41.5204750" lon="-8.7742390">
        <ele>3.2</ele>
        <time>2021-05-17T08:40:58Z</time>
      </trkpt>
      <trkpt lat="41.5204840" lon="-8.7742460">
        <ele>3.2</ele>
        <time>2021-05-17T08:40:59Z</time>
      </trkpt>
      <trkpt lat="41.5204960" lon="-8.7742510">
        <ele>3.2</ele>
        <time>2021-05-17T08:41:00Z</time>
      </trkpt>
      <trkpt lat="41.5205060" lon="-8.7742620">
        <ele>3.2</ele>
        <time>2021-05-17T08:41:01Z</time>
      </trkpt>
      <trkpt lat="41.5205120" lon="-8.7742720">
        <ele>3.2</ele>
        <time>2021-05-17T08:41:02Z</time>
      </trkpt>
      <trkpt lat="41.5205260" lon="-8.7742770">
        <ele>3.2</ele>
        <time>2021-05-17T08:41:03Z</time>
      </trkpt>
      <trkpt lat="41.5205390" lon="-8.7742860">
        <ele>3.2</ele>
        <time>2021-05-17T08:41:04Z</time>
      </trkpt>
      <trkpt lat="41.5205520" lon="-8.7742910">
        <ele>3.2</ele>
        <time>2021-05-17T08:41:05Z</time>
      </trkpt>
      <trkpt lat="41.5205640" lon="-8.7743080">
        <ele>3.2</ele>
        <time>2021-05-17T08:41:06Z</time>
      </trkpt>
      <trkpt lat="41.5205810" lon="-8.7743220">
        <ele>3.2</ele>
        <time>2021-05-17T08:41:07Z</time>
      </trkpt>
      <trkpt lat="41.5205900" lon="-8.7743300">
        <ele>3.2</ele>
        <time>2021-05-17T08:41:08Z</time>
      </trkpt>
      <trkpt lat="41.5205980" lon="-8.7743370">
        <ele>3.2</ele>
        <time>2021-05-17T08:41:09Z</time>
      </trkpt>
      <trkpt lat="41.5206130" lon="-8.7743360">
        <ele>3.2</ele>
        <time>2021-05-17T08:41:10Z</time>
      </trkpt>
      <trkpt lat="41.5206250" lon="-8.7743450">
        <ele>3.2</ele>
        <time>2021-05-17T08:41:11Z</time>
      </trkpt>
      <trkpt lat="41.5206390" lon="-8.7743550">
        <ele>3.2</ele>
        <time>2021-05-17T08:41:12Z</time>
      </trkpt>
      <trkpt lat="41.5206520" lon="-8.7743580">
        <ele>3.2</ele>
        <time>2021-05-17T08:41:13Z</time>
      </trkpt>
      <trkpt lat="41.5206660" lon="-8.7743600">
        <ele>3.2</ele>
        <time>2021-05-17T08:41:14Z</time>
      </trkpt>
      <trkpt lat="41.5206830" lon="-8.7743620">
        <ele>3.2</ele>
        <time>2021-05-17T08:41:15Z</time>
      </trkpt>
      <trkpt lat="41.5206930" lon="-8.7743650">
        <ele>3.2</ele>
        <time>2021-05-17T08:41:16Z</time>
      </trkpt>
      <trkpt lat="41.5207030" lon="-8.7743670">
        <ele>3.2</ele>
        <time>2021-05-17T08:41:17Z</time>
      </trkpt>
      <trkpt lat="41.5207160" lon="-8.7743760">
        <ele>3.2</ele>
        <time>2021-05-17T08:41:18Z</time>
      </trkpt>
      <trkpt lat="41.5207340" lon="-8.7743830">
        <ele>3.2</ele>
        <time>2021-05-17T08:41:19Z</time>
      </trkpt>
      <trkpt lat="41.5207490" lon="-8.7743890">
        <ele>3.2</ele>
        <time>2021-05-17T08:41:20Z</time>
      </trkpt>
      <trkpt lat="41.5207630" lon="-8.7743920">
        <ele>3.2</ele>
        <time>2021-05-17T08:41:21Z</time>
      </trkpt>
      <trkpt lat="41.5207750" lon="-8.7744000">
        <ele>3.2</ele>
        <time>2021-05-17T08:41:22Z</time>
      </trkpt>
      <trkpt lat="41.5207950" lon="-8.7744140">
        <ele>3.2</ele>
        <time>2021-05-17T08:41:23Z</time>
      </trkpt>
      <trkpt lat="41.5208030" lon="-8.7744190">
        <ele>3.2</ele>
        <time>2021-05-17T08:41:24Z</time>
      </trkpt>
      <trkpt lat="41.5208110" lon="-8.7744240">
        <ele>3.2</ele>
        <time>2021-05-17T08:41:25Z</time>
      </trkpt>
      <trkpt lat="41.5208310" lon="-8.7744320">
        <ele>3.2</ele>
        <time>2021-05-17T08:41:26Z</time>
      </trkpt>
      <trkpt lat="41.5208390" lon="-8.7744350">
        <ele>3.2</ele>
        <time>2021-05-17T08:41:27Z</time>
      </trkpt>
      <trkpt lat="41.5208480" lon="-8.7744380">
        <ele>3.2</ele>
        <time>2021-05-17T08:41:28Z</time>
      </trkpt>
      <trkpt lat="41.5208620" lon="-8.7744470">
        <ele>3.2</ele>
        <time>2021-05-17T08:41:29Z</time>
      </trkpt>
      <trkpt lat="41.5208730" lon="-8.7744570">
        <ele>3.2</ele>
        <time>2021-05-17T08:41:30Z</time>
      </trkpt>
      <trkpt lat="41.5208840" lon="-8.7744620">
        <ele>3.2</ele>
        <time>2021-05-17T08:41:31Z</time>
      </trkpt>
      <trkpt lat="41.5208980" lon="-8.7744730">
        <ele>3.2</ele>
        <time>2021-05-17T08:41:32Z</time>
      </trkpt>
      <trkpt lat="41.5209120" lon="-8.7744760">
        <ele>3.2</ele>
        <time>2021-05-17T08:41:33Z</time>
      </trkpt>
      <trkpt lat="41.5209250" lon="-8.7744850">
        <ele>3.2</ele>
        <time>2021-05-17T08:41:34Z</time>
      </trkpt>
      <trkpt lat="41.5209480" lon="-8.7744940">
        <ele>3.2</ele>
        <time>2021-05-17T08:41:35Z</time>
      </trkpt>
      <trkpt lat="41.5209560" lon="-8.7744970">
        <ele>3.2</ele>
        <time>2021-05-17T08:41:36Z</time>
      </trkpt>
      <trkpt lat="41.5209650" lon="-8.7745010">
        <ele>3.2</ele>
        <time>2021-05-17T08:41:37Z</time>
      </trkpt>
      <trkpt lat="41.5209780" lon="-8.7745090">
        <ele>3.2</ele>
        <time>2021-05-17T08:41:38Z</time>
      </trkpt>
      <trkpt lat="41.5209920" lon="-8.7745150">
        <ele>3.2</ele>
        <time>2021-05-17T08:41:39Z</time>
      </trkpt>
      <trkpt lat="41.5210060" lon="-8.7745250">
        <ele>3.2</ele>
        <time>2021-05-17T08:41:40Z</time>
      </trkpt>
      <trkpt lat="41.5210190" lon="-8.7745280">
        <ele>3.2</ele>
        <time>2021-05-17T08:41:41Z</time>
      </trkpt>
      <trkpt lat="41.5210380" lon="-8.7745380">
        <ele>3.2</ele>
        <time>2021-05-17T08:41:42Z</time>
      </trkpt>
      <trkpt lat="41.5210480" lon="-8.7745450">
        <ele>3.2</ele>
        <time>2021-05-17T08:41:43Z</time>
      </trkpt>
      <trkpt lat="41.5210580" lon="-8.7745530">
        <ele>3.2</ele>
        <time>2021-05-17T08:41:44Z</time>
      </trkpt>
      <trkpt lat="41.5210720" lon="-8.7745610">
        <ele>3.2</ele>
        <time>2021-05-17T08:41:45Z</time>
      </trkpt>
      <trkpt lat="41.5210860" lon="-8.7745650">
        <ele>3.2</ele>
        <time>2021-05-17T08:41:46Z</time>
      </trkpt>
      <trkpt lat="41.5211010" lon="-8.7745710">
        <ele>3.2</ele>
        <time>2021-05-17T08:41:47Z</time>
      </trkpt>
      <trkpt lat="41.5211150" lon="-8.7745780">
        <ele>3.2</ele>
        <time>2021-05-17T08:41:48Z</time>
      </trkpt>
      <trkpt lat="41.5211250" lon="-8.7745840">
        <ele>3.2</ele>
        <time>2021-05-17T08:41:49Z</time>
      </trkpt>
      <trkpt lat="41.5211370" lon="-8.7745880">
        <ele>3.2</ele>
        <time>2021-05-17T08:41:50Z</time>
      </trkpt>
      <trkpt lat="41.5211490" lon="-8.7745890">
        <ele>3.2</ele>
        <time>2021-05-17T08:41:51Z</time>
      </trkpt>
      <trkpt lat="41.5211620" lon="-8.7745950">
        <ele>3.2</ele>
        <time>2021-05-17T08:41:52Z</time>
      </trkpt>
      <trkpt lat="41.5211770" lon="-8.7746040">
        <ele>3.2</ele>
        <time>2021-05-17T08:41:53Z</time>
      </trkpt>
      <trkpt lat="41.5211900" lon="-8.7746110">
        <ele>3.2</ele>
        <time>2021-05-17T08:41:54Z</time>
      </trkpt>
      <trkpt lat="41.5212030" lon="-8.7746190">
        <ele>3.2</ele>
        <time>2021-05-17T08:41:55Z</time>
      </trkpt>
      <trkpt lat="41.5212140" lon="-8.7746280">
        <ele>3.2</ele>
        <time>2021-05-17T08:41:56Z</time>
      </trkpt>
      <trkpt lat="41.5212290" lon="-8.7746320">
        <ele>3.2</ele>
        <time>2021-05-17T08:41:57Z</time>
      </trkpt>
      <trkpt lat="41.5212420" lon="-8.7746380">
        <ele>3.2</ele>
        <time>2021-05-17T08:41:58Z</time>
      </trkpt>
      <trkpt lat="41.5212540" lon="-8.7746440">
        <ele>3.2</ele>
        <time>2021-05-17T08:41:59Z</time>
      </trkpt>
      <trkpt lat="41.5212640" lon="-8.7746480">
        <ele>3.2</ele>
        <time>2021-05-17T08:42:00Z</time>
      </trkpt>
      <trkpt lat="41.5212770" lon="-8.7746590">
        <ele>3.2</ele>
        <time>2021-05-17T08:42:01Z</time>
      </trkpt>
      <trkpt lat="41.5212910" lon="-8.7746680">
        <ele>3.2</ele>
        <time>2021-05-17T08:42:02Z</time>
      </trkpt>
      <trkpt lat="41.5213030" lon="-8.7746700">
        <ele>3.2</ele>
        <time>2021-05-17T08:42:03Z</time>
      </trkpt>
      <trkpt lat="41.5213150" lon="-8.7746760">
        <ele>3.2</ele>
        <time>2021-05-17T08:42:04Z</time>
      </trkpt>
      <trkpt lat="41.5213180" lon="-8.7746760">
        <ele>3.2</ele>
        <time>2021-05-17T08:42:05Z</time>
      </trkpt>
      <trkpt lat="41.5213430" lon="-8.7746960">
        <ele>3.2</ele>
        <time>2021-05-17T08:42:06Z</time>
      </trkpt>
      <trkpt lat="41.5213490" lon="-8.7747030">
        <ele>3.2</ele>
        <time>2021-05-17T08:42:07Z</time>
      </trkpt>
      <trkpt lat="41.5213660" lon="-8.7747140">
        <ele>3.2</ele>
        <time>2021-05-17T08:42:08Z</time>
      </trkpt>
      <trkpt lat="41.5213750" lon="-8.7747180">
        <ele>3.2</ele>
        <time>2021-05-17T08:42:09Z</time>
      </trkpt>
      <trkpt lat="41.5213850" lon="-8.7747230">
        <ele>3.2</ele>
        <time>2021-05-17T08:42:10Z</time>
      </trkpt>
      <trkpt lat="41.5213920" lon="-8.7747220">
        <ele>3.2</ele>
        <time>2021-05-17T08:42:11Z</time>
      </trkpt>
      <trkpt lat="41.5214090" lon="-8.7747320">
        <ele>3.2</ele>
        <time>2021-05-17T08:42:12Z</time>
      </trkpt>
      <trkpt lat="41.5214200" lon="-8.7747310">
        <ele>3.2</ele>
        <time>2021-05-17T08:42:13Z</time>
      </trkpt>
      <trkpt lat="41.5214230" lon="-8.7747350">
        <ele>3.2</ele>
        <time>2021-05-17T08:42:14Z</time>
      </trkpt>
      <trkpt lat="41.5214370" lon="-8.7747430">
        <ele>3.2</ele>
        <time>2021-05-17T08:42:15Z</time>
      </trkpt>
      <trkpt lat="41.5214500" lon="-8.7747520">
        <ele>3.2</ele>
        <time>2021-05-17T08:42:16Z</time>
      </trkpt>
      <trkpt lat="41.5214700" lon="-8.7747600">
        <ele>3.2</ele>
        <time>2021-05-17T08:42:17Z</time>
      </trkpt>
      <trkpt lat="41.5214790" lon="-8.7747640">
        <ele>3.2</ele>
        <time>2021-05-17T08:42:18Z</time>
      </trkpt>
      <trkpt lat="41.5214880" lon="-8.7747670">
        <ele>3.2</ele>
        <time>2021-05-17T08:42:19Z</time>
      </trkpt>
      <trkpt lat="41.5215120" lon="-8.7747820">
        <ele>3.2</ele>
        <time>2021-05-17T08:42:20Z</time>
      </trkpt>
      <trkpt lat="41.5215220" lon="-8.7747880">
        <ele>3.2</ele>
        <time>2021-05-17T08:42:21Z</time>
      </trkpt>
      <trkpt lat="41.5215390" lon="-8.7747940">
        <ele>3.2</ele>
        <time>2021-05-17T08:42:22Z</time>
      </trkpt>
      <trkpt lat="41.5215480" lon="-8.7747990">
        <ele>3.2</ele>
        <time>2021-05-17T08:42:23Z</time>
      </trkpt>
      <trkpt lat="41.5215540" lon="-8.7747990">
        <ele>3.2</ele>
        <time>2021-05-17T08:42:24Z</time>
      </trkpt>
      <trkpt lat="41.5215660" lon="-8.7748100">
        <ele>3.2</ele>
        <time>2021-05-17T08:42:25Z</time>
      </trkpt>
      <trkpt lat="41.5215740" lon="-8.7748140">
        <ele>3.2</ele>
        <time>2021-05-17T08:42:26Z</time>
      </trkpt>
      <trkpt lat="41.5215890" lon="-8.7748230">
        <ele>3.2</ele>
        <time>2021-05-17T08:42:27Z</time>
      </trkpt>
      <trkpt lat="41.5216040" lon="-8.7748290">
        <ele>3.2</ele>
        <time>2021-05-17T08:42:28Z</time>
      </trkpt>
      <trkpt lat="41.5216240" lon="-8.7748350">
        <ele>3.2</ele>
        <time>2021-05-17T08:42:29Z</time>
      </trkpt>
      <trkpt lat="41.5216310" lon="-8.7748430">
        <ele>3.2</ele>
        <time>2021-05-17T08:42:30Z</time>
      </trkpt>
      <trkpt lat="41.5216380" lon="-8.7748500">
        <ele>3.1</ele>
        <time>2021-05-17T08:42:31Z</time>
      </trkpt>
      <trkpt lat="41.5216520" lon="-8.7748570">
        <ele>3.1</ele>
        <time>2021-05-17T08:42:32Z</time>
      </trkpt>
      <trkpt lat="41.5216680" lon="-8.7748640">
        <ele>3.1</ele>
        <time>2021-05-17T08:42:33Z</time>
      </trkpt>
      <trkpt lat="41.5216790" lon="-8.7748710">
        <ele>3.1</ele>
        <time>2021-05-17T08:42:34Z</time>
      </trkpt>
      <trkpt lat="41.5216940" lon="-8.7748780">
        <ele>3.1</ele>
        <time>2021-05-17T08:42:35Z</time>
      </trkpt>
      <trkpt lat="41.5217080" lon="-8.7748820">
        <ele>3.1</ele>
        <time>2021-05-17T08:42:36Z</time>
      </trkpt>
      <trkpt lat="41.5217220" lon="-8.7748840">
        <ele>3.1</ele>
        <time>2021-05-17T08:42:37Z</time>
      </trkpt>
      <trkpt lat="41.5217360" lon="-8.7748940">
        <ele>3.1</ele>
        <time>2021-05-17T08:42:38Z</time>
      </trkpt>
      <trkpt lat="41.5217510" lon="-8.7749020">
        <ele>3.1</ele>
        <time>2021-05-17T08:42:39Z</time>
      </trkpt>
      <trkpt lat="41.5217630" lon="-8.7749080">
        <ele>3.1</ele>
        <time>2021-05-17T08:42:40Z</time>
      </trkpt>
      <trkpt lat="41.5217820" lon="-8.7749130">
        <ele>3.1</ele>
        <time>2021-05-17T08:42:41Z</time>
      </trkpt>
      <trkpt lat="41.5217900" lon="-8.7749170">
        <ele>3.1</ele>
        <time>2021-05-17T08:42:42Z</time>
      </trkpt>
      <trkpt lat="41.5218020" lon="-8.7749250">
        <ele>3.1</ele>
        <time>2021-05-17T08:42:43Z</time>
      </trkpt>
      <trkpt lat="41.5218130" lon="-8.7749310">
        <ele>3.1</ele>
        <time>2021-05-17T08:42:44Z</time>
      </trkpt>
      <trkpt lat="41.5218240" lon="-8.7749410">
        <ele>3.1</ele>
        <time>2021-05-17T08:42:45Z</time>
      </trkpt>
      <trkpt lat="41.5218380" lon="-8.7749460">
        <ele>3.1</ele>
        <time>2021-05-17T08:42:46Z</time>
      </trkpt>
      <trkpt lat="41.5218600" lon="-8.7749530">
        <ele>3.1</ele>
        <time>2021-05-17T08:42:47Z</time>
      </trkpt>
      <trkpt lat="41.5218680" lon="-8.7749560">
        <ele>3.1</ele>
        <time>2021-05-17T08:42:48Z</time>
      </trkpt>
      <trkpt lat="41.5218750" lon="-8.7749580">
        <ele>3.1</ele>
        <time>2021-05-17T08:42:49Z</time>
      </trkpt>
      <trkpt lat="41.5218930" lon="-8.7749630">
        <ele>3.1</ele>
        <time>2021-05-17T08:42:50Z</time>
      </trkpt>
      <trkpt lat="41.5219040" lon="-8.7749710">
        <ele>3.1</ele>
        <time>2021-05-17T08:42:51Z</time>
      </trkpt>
      <trkpt lat="41.5219150" lon="-8.7749760">
        <ele>3.1</ele>
        <time>2021-05-17T08:42:52Z</time>
      </trkpt>
      <trkpt lat="41.5219350" lon="-8.7749840">
        <ele>3.1</ele>
        <time>2021-05-17T08:42:53Z</time>
      </trkpt>
      <trkpt lat="41.5219420" lon="-8.7749910">
        <ele>3.1</ele>
        <time>2021-05-17T08:42:54Z</time>
      </trkpt>
      <trkpt lat="41.5219530" lon="-8.7750000">
        <ele>3.1</ele>
        <time>2021-05-17T08:42:55Z</time>
      </trkpt>
      <trkpt lat="41.5219660" lon="-8.7750100">
        <ele>3.1</ele>
        <time>2021-05-17T08:42:56Z</time>
      </trkpt>
      <trkpt lat="41.5219840" lon="-8.7750220">
        <ele>3.1</ele>
        <time>2021-05-17T08:42:57Z</time>
      </trkpt>
      <trkpt lat="41.5219920" lon="-8.7750260">
        <ele>3.1</ele>
        <time>2021-05-17T08:42:58Z</time>
      </trkpt>
      <trkpt lat="41.5220010" lon="-8.7750310">
        <ele>3.1</ele>
        <time>2021-05-17T08:42:59Z</time>
      </trkpt>
      <trkpt lat="41.5220210" lon="-8.7750380">
        <ele>3.1</ele>
        <time>2021-05-17T08:43:00Z</time>
      </trkpt>
      <trkpt lat="41.5220330" lon="-8.7750440">
        <ele>3.1</ele>
        <time>2021-05-17T08:43:01Z</time>
      </trkpt>
      <trkpt lat="41.5220550" lon="-8.7750560">
        <ele>3.1</ele>
        <time>2021-05-17T08:43:02Z</time>
      </trkpt>
      <trkpt lat="41.5220650" lon="-8.7750600">
        <ele>3.1</ele>
        <time>2021-05-17T08:43:03Z</time>
      </trkpt>
      <trkpt lat="41.5220740" lon="-8.7750650">
        <ele>3.1</ele>
        <time>2021-05-17T08:43:04Z</time>
      </trkpt>
      <trkpt lat="41.5220940" lon="-8.7750720">
        <ele>3.1</ele>
        <time>2021-05-17T08:43:05Z</time>
      </trkpt>
      <trkpt lat="41.5221060" lon="-8.7750720">
        <ele>3.1</ele>
        <time>2021-05-17T08:43:06Z</time>
      </trkpt>
      <trkpt lat="41.5221170" lon="-8.7750720">
        <ele>3.1</ele>
        <time>2021-05-17T08:43:07Z</time>
      </trkpt>
      <trkpt lat="41.5221320" lon="-8.7750760">
        <ele>3.1</ele>
        <time>2021-05-17T08:43:08Z</time>
      </trkpt>
      <trkpt lat="41.5221460" lon="-8.7750780">
        <ele>3.1</ele>
        <time>2021-05-17T08:43:09Z</time>
      </trkpt>
      <trkpt lat="41.5221600" lon="-8.7750860">
        <ele>3.1</ele>
        <time>2021-05-17T08:43:10Z</time>
      </trkpt>
      <trkpt lat="41.5221720" lon="-8.7750950">
        <ele>3.1</ele>
        <time>2021-05-17T08:43:11Z</time>
      </trkpt>
      <trkpt lat="41.5221920" lon="-8.7751120">
        <ele>3.1</ele>
        <time>2021-05-17T08:43:12Z</time>
      </trkpt>
      <trkpt lat="41.5222020" lon="-8.7751170">
        <ele>3.1</ele>
        <time>2021-05-17T08:43:13Z</time>
      </trkpt>
      <trkpt lat="41.5222110" lon="-8.7751210">
        <ele>3.1</ele>
        <time>2021-05-17T08:43:14Z</time>
      </trkpt>
      <trkpt lat="41.5222320" lon="-8.7751320">
        <ele>3.1</ele>
        <time>2021-05-17T08:43:15Z</time>
      </trkpt>
      <trkpt lat="41.5222410" lon="-8.7751350">
        <ele>3.1</ele>
        <time>2021-05-17T08:43:16Z</time>
      </trkpt>
      <trkpt lat="41.5222500" lon="-8.7751390">
        <ele>3.1</ele>
        <time>2021-05-17T08:43:17Z</time>
      </trkpt>
      <trkpt lat="41.5222650" lon="-8.7751460">
        <ele>3.1</ele>
        <time>2021-05-17T08:43:18Z</time>
      </trkpt>
      <trkpt lat="41.5222770" lon="-8.7751510">
        <ele>3.1</ele>
        <time>2021-05-17T08:43:19Z</time>
      </trkpt>
      <trkpt lat="41.5222870" lon="-8.7751570">
        <ele>3.1</ele>
        <time>2021-05-17T08:43:20Z</time>
      </trkpt>
      <trkpt lat="41.5222960" lon="-8.7751630">
        <ele>3.1</ele>
        <time>2021-05-17T08:43:21Z</time>
      </trkpt>
      <trkpt lat="41.5223070" lon="-8.7751730">
        <ele>3.1</ele>
        <time>2021-05-17T08:43:22Z</time>
      </trkpt>
      <trkpt lat="41.5223290" lon="-8.7751890">
        <ele>3.1</ele>
        <time>2021-05-17T08:43:23Z</time>
      </trkpt>
      <trkpt lat="41.5223340" lon="-8.7751950">
        <ele>3.1</ele>
        <time>2021-05-17T08:43:24Z</time>
      </trkpt>
      <trkpt lat="41.5223400" lon="-8.7752010">
        <ele>3.1</ele>
        <time>2021-05-17T08:43:25Z</time>
      </trkpt>
      <trkpt lat="41.5223610" lon="-8.7752110">
        <ele>3.1</ele>
        <time>2021-05-17T08:43:26Z</time>
      </trkpt>
      <trkpt lat="41.5223680" lon="-8.7752170">
        <ele>3.1</ele>
        <time>2021-05-17T08:43:27Z</time>
      </trkpt>
      <trkpt lat="41.5223760" lon="-8.7752220">
        <ele>3.1</ele>
        <time>2021-05-17T08:43:28Z</time>
      </trkpt>
      <trkpt lat="41.5223920" lon="-8.7752230">
        <ele>3.1</ele>
        <time>2021-05-17T08:43:29Z</time>
      </trkpt>
      <trkpt lat="41.5224060" lon="-8.7752320">
        <ele>3.1</ele>
        <time>2021-05-17T08:43:30Z</time>
      </trkpt>
      <trkpt lat="41.5224200" lon="-8.7752430">
        <ele>3.1</ele>
        <time>2021-05-17T08:43:31Z</time>
      </trkpt>
      <trkpt lat="41.5224390" lon="-8.7752480">
        <ele>3.1</ele>
        <time>2021-05-17T08:43:32Z</time>
      </trkpt>
      <trkpt lat="41.5224570" lon="-8.7752620">
        <ele>3.1</ele>
        <time>2021-05-17T08:43:33Z</time>
      </trkpt>
      <trkpt lat="41.5224660" lon="-8.7752660">
        <ele>3.1</ele>
        <time>2021-05-17T08:43:34Z</time>
      </trkpt>
      <trkpt lat="41.5224740" lon="-8.7752710">
        <ele>3.1</ele>
        <time>2021-05-17T08:43:35Z</time>
      </trkpt>
      <trkpt lat="41.5224850" lon="-8.7752770">
        <ele>3.1</ele>
        <time>2021-05-17T08:43:36Z</time>
      </trkpt>
      <trkpt lat="41.5225020" lon="-8.7752830">
        <ele>3.1</ele>
        <time>2021-05-17T08:43:37Z</time>
      </trkpt>
      <trkpt lat="41.5225140" lon="-8.7752900">
        <ele>3.1</ele>
        <time>2021-05-17T08:43:38Z</time>
      </trkpt>
      <trkpt lat="41.5225280" lon="-8.7752990">
        <ele>3.1</ele>
        <time>2021-05-17T08:43:39Z</time>
      </trkpt>
      <trkpt lat="41.5225400" lon="-8.7753120">
        <ele>3.1</ele>
        <time>2021-05-17T08:43:40Z</time>
      </trkpt>
      <trkpt lat="41.5225580" lon="-8.7753130">
        <ele>3.1</ele>
        <time>2021-05-17T08:43:41Z</time>
      </trkpt>
      <trkpt lat="41.5225830" lon="-8.7753190">
        <ele>3.1</ele>
        <time>2021-05-17T08:43:42Z</time>
      </trkpt>
      <trkpt lat="41.5225910" lon="-8.7753230">
        <ele>3.1</ele>
        <time>2021-05-17T08:43:43Z</time>
      </trkpt>
      <trkpt lat="41.5226000" lon="-8.7753260">
        <ele>3.1</ele>
        <time>2021-05-17T08:43:44Z</time>
      </trkpt>
      <trkpt lat="41.5226150" lon="-8.7753360">
        <ele>3.1</ele>
        <time>2021-05-17T08:43:45Z</time>
      </trkpt>
      <trkpt lat="41.5226270" lon="-8.7753460">
        <ele>3.1</ele>
        <time>2021-05-17T08:43:46Z</time>
      </trkpt>
      <trkpt lat="41.5226400" lon="-8.7753550">
        <ele>3.1</ele>
        <time>2021-05-17T08:43:47Z</time>
      </trkpt>
      <trkpt lat="41.5226540" lon="-8.7753600">
        <ele>3.1</ele>
        <time>2021-05-17T08:43:48Z</time>
      </trkpt>
      <trkpt lat="41.5226680" lon="-8.7753660">
        <ele>3.1</ele>
        <time>2021-05-17T08:43:49Z</time>
      </trkpt>
      <trkpt lat="41.5226770" lon="-8.7753730">
        <ele>3.1</ele>
        <time>2021-05-17T08:43:50Z</time>
      </trkpt>
      <trkpt lat="41.5226870" lon="-8.7753810">
        <ele>3.1</ele>
        <time>2021-05-17T08:43:51Z</time>
      </trkpt>
      <trkpt lat="41.5227080" lon="-8.7753880">
        <ele>3.1</ele>
        <time>2021-05-17T08:43:52Z</time>
      </trkpt>
      <trkpt lat="41.5227160" lon="-8.7753910">
        <ele>3.1</ele>
        <time>2021-05-17T08:43:53Z</time>
      </trkpt>
      <trkpt lat="41.5227240" lon="-8.7753930">
        <ele>3.1</ele>
        <time>2021-05-17T08:43:54Z</time>
      </trkpt>
      <trkpt lat="41.5227360" lon="-8.7754030">
        <ele>3.1</ele>
        <time>2021-05-17T08:43:55Z</time>
      </trkpt>
      <trkpt lat="41.5227530" lon="-8.7754120">
        <ele>3.1</ele>
        <time>2021-05-17T08:43:56Z</time>
      </trkpt>
      <trkpt lat="41.5227670" lon="-8.7754160">
        <ele>3.1</ele>
        <time>2021-05-17T08:43:57Z</time>
      </trkpt>
      <trkpt lat="41.5227800" lon="-8.7754240">
        <ele>3.1</ele>
        <time>2021-05-17T08:43:58Z</time>
      </trkpt>
      <trkpt lat="41.5227950" lon="-8.7754280">
        <ele>3.1</ele>
        <time>2021-05-17T08:43:59Z</time>
      </trkpt>
      <trkpt lat="41.5228080" lon="-8.7754330">
        <ele>3.1</ele>
        <time>2021-05-17T08:44:00Z</time>
      </trkpt>
      <trkpt lat="41.5228210" lon="-8.7754320">
        <ele>3.1</ele>
        <time>2021-05-17T08:44:01Z</time>
      </trkpt>
      <trkpt lat="41.5228350" lon="-8.7754370">
        <ele>3.1</ele>
        <time>2021-05-17T08:44:02Z</time>
      </trkpt>
      <trkpt lat="41.5228480" lon="-8.7754470">
        <ele>3.1</ele>
        <time>2021-05-17T08:44:03Z</time>
      </trkpt>
      <trkpt lat="41.5228600" lon="-8.7754580">
        <ele>3.1</ele>
        <time>2021-05-17T08:44:04Z</time>
      </trkpt>
      <trkpt lat="41.5228770" lon="-8.7754620">
        <ele>3.1</ele>
        <time>2021-05-17T08:44:05Z</time>
      </trkpt>
      <trkpt lat="41.5228920" lon="-8.7754690">
        <ele>3.1</ele>
        <time>2021-05-17T08:44:06Z</time>
      </trkpt>
      <trkpt lat="41.5229050" lon="-8.7754750">
        <ele>3.1</ele>
        <time>2021-05-17T08:44:07Z</time>
      </trkpt>
      <trkpt lat="41.5229160" lon="-8.7754860">
        <ele>3.1</ele>
        <time>2021-05-17T08:44:08Z</time>
      </trkpt>
      <trkpt lat="41.5229360" lon="-8.7754960">
        <ele>3.1</ele>
        <time>2021-05-17T08:44:09Z</time>
      </trkpt>
      <trkpt lat="41.5229420" lon="-8.7755020">
        <ele>3.1</ele>
        <time>2021-05-17T08:44:10Z</time>
      </trkpt>
      <trkpt lat="41.5229490" lon="-8.7755080">
        <ele>3.1</ele>
        <time>2021-05-17T08:44:11Z</time>
      </trkpt>
      <trkpt lat="41.5229540" lon="-8.7755090">
        <ele>3.1</ele>
        <time>2021-05-17T08:44:12Z</time>
      </trkpt>
      <trkpt lat="41.5229690" lon="-8.7755150">
        <ele>3.1</ele>
        <time>2021-05-17T08:44:13Z</time>
      </trkpt>
      <trkpt lat="41.5229800" lon="-8.7755210">
        <ele>3.1</ele>
        <time>2021-05-17T08:44:14Z</time>
      </trkpt>
      <trkpt lat="41.5230040" lon="-8.7755250">
        <ele>3.1</ele>
        <time>2021-05-17T08:44:15Z</time>
      </trkpt>
      <trkpt lat="41.5230140" lon="-8.7755280">
        <ele>3.1</ele>
        <time>2021-05-17T08:44:16Z</time>
      </trkpt>
      <trkpt lat="41.5230300" lon="-8.7755370">
        <ele>3.1</ele>
        <time>2021-05-17T08:44:17Z</time>
      </trkpt>
      <trkpt lat="41.5230380" lon="-8.7755460">
        <ele>3.1</ele>
        <time>2021-05-17T08:44:18Z</time>
      </trkpt>
      <trkpt lat="41.5230520" lon="-8.7755520">
        <ele>3.1</ele>
        <time>2021-05-17T08:44:19Z</time>
      </trkpt>
      <trkpt lat="41.5230620" lon="-8.7755680">
        <ele>3.1</ele>
        <time>2021-05-17T08:44:20Z</time>
      </trkpt>
      <trkpt lat="41.5230740" lon="-8.7755730">
        <ele>3.1</ele>
        <time>2021-05-17T08:44:21Z</time>
      </trkpt>
      <trkpt lat="41.5230890" lon="-8.7755780">
        <ele>3.1</ele>
        <time>2021-05-17T08:44:22Z</time>
      </trkpt>
      <trkpt lat="41.5231030" lon="-8.7755810">
        <ele>3.1</ele>
        <time>2021-05-17T08:44:23Z</time>
      </trkpt>
      <trkpt lat="41.5231170" lon="-8.7755870">
        <ele>3.1</ele>
        <time>2021-05-17T08:44:24Z</time>
      </trkpt>
      <trkpt lat="41.5231300" lon="-8.7755930">
        <ele>3.1</ele>
        <time>2021-05-17T08:44:25Z</time>
      </trkpt>
      <trkpt lat="41.5231440" lon="-8.7756030">
        <ele>3.1</ele>
        <time>2021-05-17T08:44:26Z</time>
      </trkpt>
      <trkpt lat="41.5231560" lon="-8.7756070">
        <ele>3.1</ele>
        <time>2021-05-17T08:44:27Z</time>
      </trkpt>
      <trkpt lat="41.5231640" lon="-8.7756140">
        <ele>3.1</ele>
        <time>2021-05-17T08:44:28Z</time>
      </trkpt>
      <trkpt lat="41.5231750" lon="-8.7756220">
        <ele>3.1</ele>
        <time>2021-05-17T08:44:29Z</time>
      </trkpt>
      <trkpt lat="41.5231940" lon="-8.7756330">
        <ele>3.1</ele>
        <time>2021-05-17T08:44:30Z</time>
      </trkpt>
      <trkpt lat="41.5232030" lon="-8.7756390">
        <ele>3.1</ele>
        <time>2021-05-17T08:44:31Z</time>
      </trkpt>
      <trkpt lat="41.5232120" lon="-8.7756440">
        <ele>3.1</ele>
        <time>2021-05-17T08:44:32Z</time>
      </trkpt>
      <trkpt lat="41.5232260" lon="-8.7756550">
        <ele>3.1</ele>
        <time>2021-05-17T08:44:33Z</time>
      </trkpt>
      <trkpt lat="41.5232430" lon="-8.7756600">
        <ele>3.1</ele>
        <time>2021-05-17T08:44:34Z</time>
      </trkpt>
      <trkpt lat="41.5232620" lon="-8.7756760">
        <ele>3.0</ele>
        <time>2021-05-17T08:44:35Z</time>
      </trkpt>
      <trkpt lat="41.5232690" lon="-8.7756840">
        <ele>3.0</ele>
        <time>2021-05-17T08:44:36Z</time>
      </trkpt>
      <trkpt lat="41.5232770" lon="-8.7756920">
        <ele>3.0</ele>
        <time>2021-05-17T08:44:37Z</time>
      </trkpt>
      <trkpt lat="41.5232880" lon="-8.7756990">
        <ele>3.0</ele>
        <time>2021-05-17T08:44:38Z</time>
      </trkpt>
      <trkpt lat="41.5232960" lon="-8.7757120">
        <ele>3.0</ele>
        <time>2021-05-17T08:44:39Z</time>
      </trkpt>
      <trkpt lat="41.5233050" lon="-8.7757080">
        <ele>3.0</ele>
        <time>2021-05-17T08:44:40Z</time>
      </trkpt>
      <trkpt lat="41.5233230" lon="-8.7757180">
        <ele>3.0</ele>
        <time>2021-05-17T08:44:41Z</time>
      </trkpt>
      <trkpt lat="41.5233330" lon="-8.7757270">
        <ele>3.0</ele>
        <time>2021-05-17T08:44:42Z</time>
      </trkpt>
      <trkpt lat="41.5233510" lon="-8.7757260">
        <ele>3.0</ele>
        <time>2021-05-17T08:44:43Z</time>
      </trkpt>
      <trkpt lat="41.5233600" lon="-8.7757360">
        <ele>3.0</ele>
        <time>2021-05-17T08:44:44Z</time>
      </trkpt>
      <trkpt lat="41.5233790" lon="-8.7757350">
        <ele>3.0</ele>
        <time>2021-05-17T08:44:45Z</time>
      </trkpt>
      <trkpt lat="41.5233950" lon="-8.7757380">
        <ele>3.0</ele>
        <time>2021-05-17T08:44:46Z</time>
      </trkpt>
      <trkpt lat="41.5234150" lon="-8.7757510">
        <ele>3.0</ele>
        <time>2021-05-17T08:44:47Z</time>
      </trkpt>
      <trkpt lat="41.5234230" lon="-8.7757570">
        <ele>3.0</ele>
        <time>2021-05-17T08:44:48Z</time>
      </trkpt>
      <trkpt lat="41.5234310" lon="-8.7757640">
        <ele>3.0</ele>
        <time>2021-05-17T08:44:49Z</time>
      </trkpt>
      <trkpt lat="41.5234470" lon="-8.7757660">
        <ele>3.0</ele>
        <time>2021-05-17T08:44:50Z</time>
      </trkpt>
      <trkpt lat="41.5234630" lon="-8.7757660">
        <ele>3.0</ele>
        <time>2021-05-17T08:44:51Z</time>
      </trkpt>
      <trkpt lat="41.5234740" lon="-8.7757790">
        <ele>3.0</ele>
        <time>2021-05-17T08:44:52Z</time>
      </trkpt>
      <trkpt lat="41.5234880" lon="-8.7757830">
        <ele>3.0</ele>
        <time>2021-05-17T08:44:53Z</time>
      </trkpt>
      <trkpt lat="41.5235060" lon="-8.7757860">
        <ele>3.0</ele>
        <time>2021-05-17T08:44:54Z</time>
      </trkpt>
      <trkpt lat="41.5235170" lon="-8.7757980">
        <ele>3.0</ele>
        <time>2021-05-17T08:44:55Z</time>
      </trkpt>
      <trkpt lat="41.5235290" lon="-8.7758070">
        <ele>3.0</ele>
        <time>2021-05-17T08:44:56Z</time>
      </trkpt>
      <trkpt lat="41.5235420" lon="-8.7758100">
        <ele>3.0</ele>
        <time>2021-05-17T08:44:57Z</time>
      </trkpt>
      <trkpt lat="41.5235560" lon="-8.7758220">
        <ele>3.0</ele>
        <time>2021-05-17T08:44:58Z</time>
      </trkpt>
      <trkpt lat="41.5235690" lon="-8.7758290">
        <ele>3.0</ele>
        <time>2021-05-17T08:44:59Z</time>
      </trkpt>
      <trkpt lat="41.5235810" lon="-8.7758310">
        <ele>3.0</ele>
        <time>2021-05-17T08:45:00Z</time>
      </trkpt>
      <trkpt lat="41.5235960" lon="-8.7758370">
        <ele>3.0</ele>
        <time>2021-05-17T08:45:01Z</time>
      </trkpt>
      <trkpt lat="41.5236090" lon="-8.7758430">
        <ele>3.0</ele>
        <time>2021-05-17T08:45:02Z</time>
      </trkpt>
      <trkpt lat="41.5236240" lon="-8.7758480">
        <ele>3.0</ele>
        <time>2021-05-17T08:45:03Z</time>
      </trkpt>
      <trkpt lat="41.5236430" lon="-8.7758610">
        <ele>3.0</ele>
        <time>2021-05-17T08:45:04Z</time>
      </trkpt>
      <trkpt lat="41.5236520" lon="-8.7758670">
        <ele>3.0</ele>
        <time>2021-05-17T08:45:05Z</time>
      </trkpt>
      <trkpt lat="41.5236600" lon="-8.7758720">
        <ele>3.0</ele>
        <time>2021-05-17T08:45:06Z</time>
      </trkpt>
      <trkpt lat="41.5236830" lon="-8.7758790">
        <ele>3.0</ele>
        <time>2021-05-17T08:45:07Z</time>
      </trkpt>
      <trkpt lat="41.5236900" lon="-8.7758840">
        <ele>3.0</ele>
        <time>2021-05-17T08:45:08Z</time>
      </trkpt>
      <trkpt lat="41.5236980" lon="-8.7758890">
        <ele>3.0</ele>
        <time>2021-05-17T08:45:09Z</time>
      </trkpt>
      <trkpt lat="41.5237140" lon="-8.7758900">
        <ele>3.0</ele>
        <time>2021-05-17T08:45:10Z</time>
      </trkpt>
      <trkpt lat="41.5237280" lon="-8.7758960">
        <ele>3.0</ele>
        <time>2021-05-17T08:45:11Z</time>
      </trkpt>
      <trkpt lat="41.5237430" lon="-8.7759000">
        <ele>3.0</ele>
        <time>2021-05-17T08:45:12Z</time>
      </trkpt>
      <trkpt lat="41.5237560" lon="-8.7759070">
        <ele>3.0</ele>
        <time>2021-05-17T08:45:13Z</time>
      </trkpt>
      <trkpt lat="41.5237680" lon="-8.7759160">
        <ele>3.0</ele>
        <time>2021-05-17T08:45:14Z</time>
      </trkpt>
      <trkpt lat="41.5237800" lon="-8.7759240">
        <ele>3.0</ele>
        <time>2021-05-17T08:45:15Z</time>
      </trkpt>
      <trkpt lat="41.5237940" lon="-8.7759330">
        <ele>3.0</ele>
        <time>2021-05-17T08:45:16Z</time>
      </trkpt>
      <trkpt lat="41.5238060" lon="-8.7759440">
        <ele>3.0</ele>
        <time>2021-05-17T08:45:17Z</time>
      </trkpt>
      <trkpt lat="41.5238210" lon="-8.7759500">
        <ele>3.0</ele>
        <time>2021-05-17T08:45:18Z</time>
      </trkpt>
      <trkpt lat="41.5238360" lon="-8.7759500">
        <ele>3.0</ele>
        <time>2021-05-17T08:45:19Z</time>
      </trkpt>
      <trkpt lat="41.5238460" lon="-8.7759610">
        <ele>3.0</ele>
        <time>2021-05-17T08:45:20Z</time>
      </trkpt>
      <trkpt lat="41.5238600" lon="-8.7759670">
        <ele>3.0</ele>
        <time>2021-05-17T08:45:21Z</time>
      </trkpt>
      <trkpt lat="41.5238760" lon="-8.7759710">
        <ele>3.0</ele>
        <time>2021-05-17T08:45:22Z</time>
      </trkpt>
      <trkpt lat="41.5238890" lon="-8.7759810">
        <ele>3.0</ele>
        <time>2021-05-17T08:45:23Z</time>
      </trkpt>
      <trkpt lat="41.5239040" lon="-8.7759820">
        <ele>3.0</ele>
        <time>2021-05-17T08:45:24Z</time>
      </trkpt>
      <trkpt lat="41.5239150" lon="-8.7759950">
        <ele>3.0</ele>
        <time>2021-05-17T08:45:25Z</time>
      </trkpt>
      <trkpt lat="41.5239290" lon="-8.7760030">
        <ele>3.0</ele>
        <time>2021-05-17T08:45:26Z</time>
      </trkpt>
      <trkpt lat="41.5239440" lon="-8.7760110">
        <ele>3.0</ele>
        <time>2021-05-17T08:45:27Z</time>
      </trkpt>
      <trkpt lat="41.5239530" lon="-8.7760170">
        <ele>3.0</ele>
        <time>2021-05-17T08:45:28Z</time>
      </trkpt>
      <trkpt lat="41.5239670" lon="-8.7760190">
        <ele>3.0</ele>
        <time>2021-05-17T08:45:29Z</time>
      </trkpt>
      <trkpt lat="41.5239720" lon="-8.7760270">
        <ele>3.0</ele>
        <time>2021-05-17T08:45:30Z</time>
      </trkpt>
      <trkpt lat="41.5239740" lon="-8.7760320">
        <ele>3.0</ele>
        <time>2021-05-17T08:45:31Z</time>
      </trkpt>
      <trkpt lat="41.5239890" lon="-8.7760390">
        <ele>3.0</ele>
        <time>2021-05-17T08:45:32Z</time>
      </trkpt>
      <trkpt lat="41.5240040" lon="-8.7760450">
        <ele>3.0</ele>
        <time>2021-05-17T08:45:33Z</time>
      </trkpt>
      <trkpt lat="41.5240190" lon="-8.7760570">
        <ele>3.0</ele>
        <time>2021-05-17T08:45:34Z</time>
      </trkpt>
      <trkpt lat="41.5240280" lon="-8.7760650">
        <ele>3.0</ele>
        <time>2021-05-17T08:45:35Z</time>
      </trkpt>
      <trkpt lat="41.5240410" lon="-8.7760720">
        <ele>3.0</ele>
        <time>2021-05-17T08:45:36Z</time>
      </trkpt>
      <trkpt lat="41.5240580" lon="-8.7760720">
        <ele>3.0</ele>
        <time>2021-05-17T08:45:37Z</time>
      </trkpt>
      <trkpt lat="41.5240770" lon="-8.7760850">
        <ele>3.0</ele>
        <time>2021-05-17T08:45:38Z</time>
      </trkpt>
      <trkpt lat="41.5240850" lon="-8.7760910">
        <ele>3.0</ele>
        <time>2021-05-17T08:45:39Z</time>
      </trkpt>
      <trkpt lat="41.5240920" lon="-8.7760960">
        <ele>3.0</ele>
        <time>2021-05-17T08:45:40Z</time>
      </trkpt>
      <trkpt lat="41.5241020" lon="-8.7761040">
        <ele>3.0</ele>
        <time>2021-05-17T08:45:41Z</time>
      </trkpt>
      <trkpt lat="41.5241120" lon="-8.7761130">
        <ele>3.0</ele>
        <time>2021-05-17T08:45:42Z</time>
      </trkpt>
      <trkpt lat="41.5241230" lon="-8.7761160">
        <ele>3.0</ele>
        <time>2021-05-17T08:45:43Z</time>
      </trkpt>
      <trkpt lat="41.5241340" lon="-8.7761260">
        <ele>3.0</ele>
        <time>2021-05-17T08:45:44Z</time>
      </trkpt>
      <trkpt lat="41.5241490" lon="-8.7761310">
        <ele>3.0</ele>
        <time>2021-05-17T08:45:45Z</time>
      </trkpt>
      <trkpt lat="41.5241590" lon="-8.7761360">
        <ele>3.0</ele>
        <time>2021-05-17T08:45:46Z</time>
      </trkpt>
      <trkpt lat="41.5241750" lon="-8.7761380">
        <ele>3.0</ele>
        <time>2021-05-17T08:45:47Z</time>
      </trkpt>
      <trkpt lat="41.5241850" lon="-8.7761420">
        <ele>3.0</ele>
        <time>2021-05-17T08:45:48Z</time>
      </trkpt>
      <trkpt lat="41.5241940" lon="-8.7761460">
        <ele>3.0</ele>
        <time>2021-05-17T08:45:49Z</time>
      </trkpt>
      <trkpt lat="41.5242050" lon="-8.7761520">
        <ele>3.0</ele>
        <time>2021-05-17T08:45:50Z</time>
      </trkpt>
      <trkpt lat="41.5242150" lon="-8.7761550">
        <ele>3.0</ele>
        <time>2021-05-17T08:45:51Z</time>
      </trkpt>
      <trkpt lat="41.5242250" lon="-8.7761590">
        <ele>3.0</ele>
        <time>2021-05-17T08:45:52Z</time>
      </trkpt>
      <trkpt lat="41.5242340" lon="-8.7761670">
        <ele>3.0</ele>
        <time>2021-05-17T08:45:53Z</time>
      </trkpt>
      <trkpt lat="41.5242570" lon="-8.7761790">
        <ele>3.0</ele>
        <time>2021-05-17T08:45:54Z</time>
      </trkpt>
      <trkpt lat="41.5242650" lon="-8.7761840">
        <ele>3.0</ele>
        <time>2021-05-17T08:45:55Z</time>
      </trkpt>
      <trkpt lat="41.5242720" lon="-8.7761900">
        <ele>3.0</ele>
        <time>2021-05-17T08:45:56Z</time>
      </trkpt>
      <trkpt lat="41.5242860" lon="-8.7761940">
        <ele>3.0</ele>
        <time>2021-05-17T08:45:57Z</time>
      </trkpt>
      <trkpt lat="41.5243010" lon="-8.7761990">
        <ele>3.0</ele>
        <time>2021-05-17T08:45:58Z</time>
      </trkpt>
      <trkpt lat="41.5243120" lon="-8.7762050">
        <ele>3.0</ele>
        <time>2021-05-17T08:45:59Z</time>
      </trkpt>
      <trkpt lat="41.5243290" lon="-8.7762070">
        <ele>3.0</ele>
        <time>2021-05-17T08:46:00Z</time>
      </trkpt>
      <trkpt lat="41.5243360" lon="-8.7762150">
        <ele>3.0</ele>
        <time>2021-05-17T08:46:01Z</time>
      </trkpt>
      <trkpt lat="41.5243540" lon="-8.7762250">
        <ele>3.0</ele>
        <time>2021-05-17T08:46:02Z</time>
      </trkpt>
      <trkpt lat="41.5243660" lon="-8.7762320">
        <ele>3.0</ele>
        <time>2021-05-17T08:46:03Z</time>
      </trkpt>
      <trkpt lat="41.5243800" lon="-8.7762430">
        <ele>3.0</ele>
        <time>2021-05-17T08:46:04Z</time>
      </trkpt>
      <trkpt lat="41.5243950" lon="-8.7762500">
        <ele>3.0</ele>
        <time>2021-05-17T08:46:05Z</time>
      </trkpt>
      <trkpt lat="41.5244110" lon="-8.7762500">
        <ele>3.0</ele>
        <time>2021-05-17T08:46:06Z</time>
      </trkpt>
      <trkpt lat="41.5244240" lon="-8.7762620">
        <ele>3.0</ele>
        <time>2021-05-17T08:46:07Z</time>
      </trkpt>
      <trkpt lat="41.5244390" lon="-8.7762660">
        <ele>3.0</ele>
        <time>2021-05-17T08:46:08Z</time>
      </trkpt>
      <trkpt lat="41.5244510" lon="-8.7762770">
        <ele>3.0</ele>
        <time>2021-05-17T08:46:09Z</time>
      </trkpt>
      <trkpt lat="41.5244650" lon="-8.7762820">
        <ele>3.0</ele>
        <time>2021-05-17T08:46:10Z</time>
      </trkpt>
      <trkpt lat="41.5244810" lon="-8.7762790">
        <ele>3.0</ele>
        <time>2021-05-17T08:46:11Z</time>
      </trkpt>
      <trkpt lat="41.5244930" lon="-8.7762890">
        <ele>3.0</ele>
        <time>2021-05-17T08:46:12Z</time>
      </trkpt>
      <trkpt lat="41.5245020" lon="-8.7762940">
        <ele>3.0</ele>
        <time>2021-05-17T08:46:13Z</time>
      </trkpt>
      <trkpt lat="41.5245170" lon="-8.7762990">
        <ele>3.0</ele>
        <time>2021-05-17T08:46:14Z</time>
      </trkpt>
      <trkpt lat="41.5245250" lon="-8.7763100">
        <ele>3.0</ele>
        <time>2021-05-17T08:46:15Z</time>
      </trkpt>
      <trkpt lat="41.5245410" lon="-8.7763310">
        <ele>3.0</ele>
        <time>2021-05-17T08:46:16Z</time>
      </trkpt>
      <trkpt lat="41.5245500" lon="-8.7763370">
        <ele>3.0</ele>
        <time>2021-05-17T08:46:17Z</time>
      </trkpt>
      <trkpt lat="41.5245580" lon="-8.7763420">
        <ele>3.0</ele>
        <time>2021-05-17T08:46:18Z</time>
      </trkpt>
      <trkpt lat="41.5245730" lon="-8.7763560">
        <ele>3.0</ele>
        <time>2021-05-17T08:46:19Z</time>
      </trkpt>
      <trkpt lat="41.5245860" lon="-8.7763580">
        <ele>3.0</ele>
        <time>2021-05-17T08:46:20Z</time>
      </trkpt>
      <trkpt lat="41.5246010" lon="-8.7763590">
        <ele>3.0</ele>
        <time>2021-05-17T08:46:21Z</time>
      </trkpt>
      <trkpt lat="41.5246130" lon="-8.7763650">
        <ele>3.0</ele>
        <time>2021-05-17T08:46:22Z</time>
      </trkpt>
      <trkpt lat="41.5246270" lon="-8.7763760">
        <ele>3.0</ele>
        <time>2021-05-17T08:46:23Z</time>
      </trkpt>
      <trkpt lat="41.5246420" lon="-8.7763830">
        <ele>3.0</ele>
        <time>2021-05-17T08:46:24Z</time>
      </trkpt>
      <trkpt lat="41.5246570" lon="-8.7763910">
        <ele>3.0</ele>
        <time>2021-05-17T08:46:25Z</time>
      </trkpt>
      <trkpt lat="41.5246760" lon="-8.7763960">
        <ele>3.0</ele>
        <time>2021-05-17T08:46:26Z</time>
      </trkpt>
      <trkpt lat="41.5246870" lon="-8.7764040">
        <ele>3.0</ele>
        <time>2021-05-17T08:46:27Z</time>
      </trkpt>
      <trkpt lat="41.5247030" lon="-8.7764050">
        <ele>3.0</ele>
        <time>2021-05-17T08:46:28Z</time>
      </trkpt>
      <trkpt lat="41.5247180" lon="-8.7764100">
        <ele>3.0</ele>
        <time>2021-05-17T08:46:29Z</time>
      </trkpt>
      <trkpt lat="41.5247320" lon="-8.7764120">
        <ele>3.0</ele>
        <time>2021-05-17T08:46:30Z</time>
      </trkpt>
      <trkpt lat="41.5247440" lon="-8.7764190">
        <ele>2.9</ele>
        <time>2021-05-17T08:46:31Z</time>
      </trkpt>
      <trkpt lat="41.5247550" lon="-8.7764340">
        <ele>2.9</ele>
        <time>2021-05-17T08:46:32Z</time>
      </trkpt>
      <trkpt lat="41.5247680" lon="-8.7764470">
        <ele>2.9</ele>
        <time>2021-05-17T08:46:33Z</time>
      </trkpt>
      <trkpt lat="41.5247810" lon="-8.7764560">
        <ele>2.9</ele>
        <time>2021-05-17T08:46:34Z</time>
      </trkpt>
      <trkpt lat="41.5247970" lon="-8.7764580">
        <ele>2.9</ele>
        <time>2021-05-17T08:46:35Z</time>
      </trkpt>
      <trkpt lat="41.5248090" lon="-8.7764650">
        <ele>2.9</ele>
        <time>2021-05-17T08:46:36Z</time>
      </trkpt>
      <trkpt lat="41.5248290" lon="-8.7764780">
        <ele>2.9</ele>
        <time>2021-05-17T08:46:37Z</time>
      </trkpt>
      <trkpt lat="41.5248350" lon="-8.7764850">
        <ele>2.9</ele>
        <time>2021-05-17T08:46:38Z</time>
      </trkpt>
      <trkpt lat="41.5248410" lon="-8.7764910">
        <ele>2.9</ele>
        <time>2021-05-17T08:46:39Z</time>
      </trkpt>
      <trkpt lat="41.5248510" lon="-8.7764980">
        <ele>2.9</ele>
        <time>2021-05-17T08:46:40Z</time>
      </trkpt>
      <trkpt lat="41.5248600" lon="-8.7765030">
        <ele>2.9</ele>
        <time>2021-05-17T08:46:41Z</time>
      </trkpt>
      <trkpt lat="41.5248670" lon="-8.7765130">
        <ele>2.9</ele>
        <time>2021-05-17T08:46:42Z</time>
      </trkpt>
      <trkpt lat="41.5248820" lon="-8.7765220">
        <ele>2.9</ele>
        <time>2021-05-17T08:46:43Z</time>
      </trkpt>
      <trkpt lat="41.5248910" lon="-8.7765270">
        <ele>2.9</ele>
        <time>2021-05-17T08:46:44Z</time>
      </trkpt>
      <trkpt lat="41.5248940" lon="-8.7765310">
        <ele>2.9</ele>
        <time>2021-05-17T08:46:45Z</time>
      </trkpt>
      <trkpt lat="41.5249040" lon="-8.7765400">
        <ele>2.9</ele>
        <time>2021-05-17T08:46:46Z</time>
      </trkpt>
      <trkpt lat="41.5249070" lon="-8.7765360">
        <ele>2.9</ele>
        <time>2021-05-17T08:46:47Z</time>
      </trkpt>
      <trkpt lat="41.5249170" lon="-8.7765510">
        <ele>2.9</ele>
        <time>2021-05-17T08:46:48Z</time>
      </trkpt>
      <trkpt lat="41.5249280" lon="-8.7765540">
        <ele>2.9</ele>
        <time>2021-05-17T08:46:49Z</time>
      </trkpt>
      <trkpt lat="41.5249400" lon="-8.7765620">
        <ele>2.9</ele>
        <time>2021-05-17T08:46:50Z</time>
      </trkpt>
      <trkpt lat="41.5249480" lon="-8.7765710">
        <ele>2.9</ele>
        <time>2021-05-17T08:46:51Z</time>
      </trkpt>
      <trkpt lat="41.5249610" lon="-8.7765850">
        <ele>2.9</ele>
        <time>2021-05-17T08:46:52Z</time>
      </trkpt>
      <trkpt lat="41.5249740" lon="-8.7765960">
        <ele>2.9</ele>
        <time>2021-05-17T08:46:53Z</time>
      </trkpt>
      <trkpt lat="41.5249910" lon="-8.7766090">
        <ele>2.9</ele>
        <time>2021-05-17T08:46:54Z</time>
      </trkpt>
      <trkpt lat="41.5249990" lon="-8.7766140">
        <ele>2.9</ele>
        <time>2021-05-17T08:46:55Z</time>
      </trkpt>
      <trkpt lat="41.5250080" lon="-8.7766200">
        <ele>2.9</ele>
        <time>2021-05-17T08:46:56Z</time>
      </trkpt>
      <trkpt lat="41.5250250" lon="-8.7766310">
        <ele>2.9</ele>
        <time>2021-05-17T08:46:57Z</time>
      </trkpt>
      <trkpt lat="41.5250340" lon="-8.7766360">
        <ele>2.9</ele>
        <time>2021-05-17T08:46:58Z</time>
      </trkpt>
      <trkpt lat="41.5250420" lon="-8.7766420">
        <ele>2.9</ele>
        <time>2021-05-17T08:46:59Z</time>
      </trkpt>
      <trkpt lat="41.5250530" lon="-8.7766480">
        <ele>2.9</ele>
        <time>2021-05-17T08:47:00Z</time>
      </trkpt>
      <trkpt lat="41.5250600" lon="-8.7766550">
        <ele>2.9</ele>
        <time>2021-05-17T08:47:01Z</time>
      </trkpt>
      <trkpt lat="41.5250740" lon="-8.7766620">
        <ele>2.9</ele>
        <time>2021-05-17T08:47:02Z</time>
      </trkpt>
      <trkpt lat="41.5250840" lon="-8.7766640">
        <ele>2.9</ele>
        <time>2021-05-17T08:47:03Z</time>
      </trkpt>
      <trkpt lat="41.5250880" lon="-8.7766640">
        <ele>2.9</ele>
        <time>2021-05-17T08:47:04Z</time>
      </trkpt>
      <trkpt lat="41.5250930" lon="-8.7766640">
        <ele>2.9</ele>
        <time>2021-05-17T08:47:05Z</time>
      </trkpt>
      <trkpt lat="41.5250960" lon="-8.7766710">
        <ele>2.9</ele>
        <time>2021-05-17T08:47:06Z</time>
      </trkpt>
      <trkpt lat="41.5250940" lon="-8.7766700">
        <ele>2.9</ele>
        <time>2021-05-17T08:47:07Z</time>
      </trkpt>
      <trkpt lat="41.5250940" lon="-8.7766680">
        <ele>2.9</ele>
        <time>2021-05-17T08:47:08Z</time>
      </trkpt>
      <trkpt lat="41.5250950" lon="-8.7766640">
        <ele>2.9</ele>
        <time>2021-05-17T08:47:09Z</time>
      </trkpt>
      <trkpt lat="41.5250950" lon="-8.7766640">
        <ele>2.9</ele>
        <time>2021-05-17T08:47:10Z</time>
      </trkpt>
      <trkpt lat="41.5250950" lon="-8.7766640">
        <ele>2.9</ele>
        <time>2021-05-17T08:47:11Z</time>
      </trkpt>
      <trkpt lat="41.5250940" lon="-8.7766630">
        <ele>2.9</ele>
        <time>2021-05-17T08:47:12Z</time>
      </trkpt>
      <trkpt lat="41.5250940" lon="-8.7766630">
        <ele>2.9</ele>
        <time>2021-05-17T08:47:13Z</time>
      </trkpt>
      <trkpt lat="41.5250980" lon="-8.7766630">
        <ele>2.9</ele>
        <time>2021-05-17T08:47:14Z</time>
      </trkpt>
      <trkpt lat="41.5250980" lon="-8.7766640">
        <ele>2.9</ele>
        <time>2021-05-17T08:47:15Z</time>
      </trkpt>
      <trkpt lat="41.5250970" lon="-8.7766640">
        <ele>2.9</ele>
        <time>2021-05-17T08:47:16Z</time>
      </trkpt>
      <trkpt lat="41.5250980" lon="-8.7766660">
        <ele>2.9</ele>
        <time>2021-05-17T08:47:17Z</time>
      </trkpt>
      <trkpt lat="41.5250970" lon="-8.7766670">
        <ele>2.9</ele>
        <time>2021-05-17T08:47:18Z</time>
      </trkpt>
      <trkpt lat="41.5250950" lon="-8.7766670">
        <ele>2.9</ele>
        <time>2021-05-17T08:47:19Z</time>
      </trkpt>
      <trkpt lat="41.5250920" lon="-8.7766690">
        <ele>2.9</ele>
        <time>2021-05-17T08:47:20Z</time>
      </trkpt>
      <trkpt lat="41.5250870" lon="-8.7766750">
        <ele>2.9</ele>
        <time>2021-05-17T08:47:21Z</time>
      </trkpt>
      <trkpt lat="41.5250870" lon="-8.7766760">
        <ele>2.9</ele>
        <time>2021-05-17T08:47:22Z</time>
      </trkpt>
      <trkpt lat="41.5250870" lon="-8.7766760">
        <ele>2.9</ele>
        <time>2021-05-17T08:47:23Z</time>
      </trkpt>
      <trkpt lat="41.5250870" lon="-8.7766760">
        <ele>2.9</ele>
        <time>2021-05-17T08:47:24Z</time>
      </trkpt>
      <trkpt lat="41.5250870" lon="-8.7766760">
        <ele>2.9</ele>
        <time>2021-05-17T08:47:25Z</time>
      </trkpt>
      <trkpt lat="41.5250870" lon="-8.7766760">
        <ele>2.9</ele>
        <time>2021-05-17T08:47:26Z</time>
      </trkpt>
      <trkpt lat="41.5250870" lon="-8.7766760">
        <ele>2.9</ele>
        <time>2021-05-17T08:47:27Z</time>
      </trkpt>
      <trkpt lat="41.5250870" lon="-8.7766760">
        <ele>2.9</ele>
        <time>2021-05-17T08:47:28Z</time>
      </trkpt>
      <trkpt lat="41.5250870" lon="-8.7766760">
        <ele>2.9</ele>
        <time>2021-05-17T08:47:29Z</time>
      </trkpt>
      <trkpt lat="41.5250870" lon="-8.7766760">
        <ele>2.9</ele>
        <time>2021-05-17T08:47:30Z</time>
      </trkpt>
      <trkpt lat="41.5250760" lon="-8.7766880">
        <ele>2.9</ele>
        <time>2021-05-17T08:47:31Z</time>
      </trkpt>
      <trkpt lat="41.5250800" lon="-8.7766910">
        <ele>2.9</ele>
        <time>2021-05-17T08:47:32Z</time>
      </trkpt>
      <trkpt lat="41.5250840" lon="-8.7766960">
        <ele>2.9</ele>
        <time>2021-05-17T08:47:33Z</time>
      </trkpt>
      <trkpt lat="41.5250830" lon="-8.7766950">
        <ele>2.9</ele>
        <time>2021-05-17T08:47:34Z</time>
      </trkpt>
      <trkpt lat="41.5250830" lon="-8.7766950">
        <ele>2.9</ele>
        <time>2021-05-17T08:47:35Z</time>
      </trkpt>
      <trkpt lat="41.5250770" lon="-8.7766910">
        <ele>2.9</ele>
        <time>2021-05-17T08:47:36Z</time>
      </trkpt>
      <trkpt lat="41.5250770" lon="-8.7766910">
        <ele>2.9</ele>
        <time>2021-05-17T08:47:37Z</time>
      </trkpt>
      <trkpt lat="41.5250770" lon="-8.7766910">
        <ele>2.9</ele>
        <time>2021-05-17T08:47:38Z</time>
      </trkpt>
      <trkpt lat="41.5250800" lon="-8.7766910">
        <ele>2.9</ele>
        <time>2021-05-17T08:47:39Z</time>
      </trkpt>
      <trkpt lat="41.5250810" lon="-8.7766910">
        <ele>2.9</ele>
        <time>2021-05-17T08:47:40Z</time>
      </trkpt>
      <trkpt lat="41.5250830" lon="-8.7766930">
        <ele>2.9</ele>
        <time>2021-05-17T08:47:41Z</time>
      </trkpt>
      <trkpt lat="41.5250830" lon="-8.7766920">
        <ele>2.9</ele>
        <time>2021-05-17T08:47:42Z</time>
      </trkpt>
      <trkpt lat="41.5250840" lon="-8.7766910">
        <ele>2.9</ele>
        <time>2021-05-17T08:47:43Z</time>
      </trkpt>
      <trkpt lat="41.5250850" lon="-8.7766910">
        <ele>2.9</ele>
        <time>2021-05-17T08:47:44Z</time>
      </trkpt>
      <trkpt lat="41.5250850" lon="-8.7766910">
        <ele>2.9</ele>
        <time>2021-05-17T08:47:45Z</time>
      </trkpt>
      <trkpt lat="41.5250890" lon="-8.7766950">
        <ele>2.9</ele>
        <time>2021-05-17T08:47:46Z</time>
      </trkpt>
      <trkpt lat="41.5250890" lon="-8.7766950">
        <ele>2.9</ele>
        <time>2021-05-17T08:47:47Z</time>
      </trkpt>
      <trkpt lat="41.5250890" lon="-8.7766950">
        <ele>2.9</ele>
        <time>2021-05-17T08:47:48Z</time>
      </trkpt>
      <trkpt lat="41.5250890" lon="-8.7766950">
        <ele>2.9</ele>
        <time>2021-05-17T08:47:49Z</time>
      </trkpt>
      <trkpt lat="41.5250930" lon="-8.7766990">
        <ele>2.9</ele>
        <time>2021-05-17T08:47:50Z</time>
      </trkpt>
      <trkpt lat="41.5250940" lon="-8.7766960">
        <ele>2.9</ele>
        <time>2021-05-17T08:47:51Z</time>
      </trkpt>
      <trkpt lat="41.5250930" lon="-8.7766980">
        <ele>2.9</ele>
        <time>2021-05-17T08:47:52Z</time>
      </trkpt>
      <trkpt lat="41.5250960" lon="-8.7766950">
        <ele>2.9</ele>
        <time>2021-05-17T08:47:53Z</time>
      </trkpt>
      <trkpt lat="41.5250970" lon="-8.7766930">
        <ele>2.9</ele>
        <time>2021-05-17T08:47:54Z</time>
      </trkpt>
      <trkpt lat="41.5250980" lon="-8.7766950">
        <ele>2.9</ele>
        <time>2021-05-17T08:47:55Z</time>
      </trkpt>
      <trkpt lat="41.5250990" lon="-8.7766980">
        <ele>2.9</ele>
        <time>2021-05-17T08:47:56Z</time>
      </trkpt>
      <trkpt lat="41.5250990" lon="-8.7767190">
        <ele>2.9</ele>
        <time>2021-05-17T08:47:57Z</time>
      </trkpt>
      <trkpt lat="41.5251020" lon="-8.7767350">
        <ele>2.9</ele>
        <time>2021-05-17T08:47:58Z</time>
      </trkpt>
      <trkpt lat="41.5251110" lon="-8.7767450">
        <ele>2.9</ele>
        <time>2021-05-17T08:47:59Z</time>
      </trkpt>
      <trkpt lat="41.5251200" lon="-8.7767650">
        <ele>2.9</ele>
        <time>2021-05-17T08:48:00Z</time>
      </trkpt>
      <trkpt lat="41.5251290" lon="-8.7767780">
        <ele>2.9</ele>
        <time>2021-05-17T08:48:01Z</time>
      </trkpt>
      <trkpt lat="41.5251370" lon="-8.7767850">
        <ele>2.9</ele>
        <time>2021-05-17T08:48:02Z</time>
      </trkpt>
      <trkpt lat="41.5251490" lon="-8.7767930">
        <ele>2.9</ele>
        <time>2021-05-17T08:48:03Z</time>
      </trkpt>
      <trkpt lat="41.5251600" lon="-8.7768050">
        <ele>2.9</ele>
        <time>2021-05-17T08:48:04Z</time>
      </trkpt>
      <trkpt lat="41.5251760" lon="-8.7768200">
        <ele>2.9</ele>
        <time>2021-05-17T08:48:05Z</time>
      </trkpt>
      <trkpt lat="41.5251910" lon="-8.7768300">
        <ele>2.9</ele>
        <time>2021-05-17T08:48:06Z</time>
      </trkpt>
      <trkpt lat="41.5251930" lon="-8.7768270">
        <ele>2.9</ele>
        <time>2021-05-17T08:48:07Z</time>
      </trkpt>
      <trkpt lat="41.5252070" lon="-8.7768360">
        <ele>2.9</ele>
        <time>2021-05-17T08:48:08Z</time>
      </trkpt>
      <trkpt lat="41.5252240" lon="-8.7768600">
        <ele>2.9</ele>
        <time>2021-05-17T08:48:09Z</time>
      </trkpt>
      <trkpt lat="41.5252320" lon="-8.7768670">
        <ele>2.9</ele>
        <time>2021-05-17T08:48:10Z</time>
      </trkpt>
      <trkpt lat="41.5252470" lon="-8.7768810">
        <ele>2.9</ele>
        <time>2021-05-17T08:48:11Z</time>
      </trkpt>
      <trkpt lat="41.5252600" lon="-8.7768940">
        <ele>2.9</ele>
        <time>2021-05-17T08:48:12Z</time>
      </trkpt>
      <trkpt lat="41.5252690" lon="-8.7769070">
        <ele>2.9</ele>
        <time>2021-05-17T08:48:13Z</time>
      </trkpt>
      <trkpt lat="41.5252810" lon="-8.7769230">
        <ele>2.9</ele>
        <time>2021-05-17T08:48:14Z</time>
      </trkpt>
      <trkpt lat="41.5252880" lon="-8.7769410">
        <ele>2.9</ele>
        <time>2021-05-17T08:48:15Z</time>
      </trkpt>
      <trkpt lat="41.5253010" lon="-8.7769520">
        <ele>2.9</ele>
        <time>2021-05-17T08:48:16Z</time>
      </trkpt>
      <trkpt lat="41.5253130" lon="-8.7769660">
        <ele>2.9</ele>
        <time>2021-05-17T08:48:17Z</time>
      </trkpt>
      <trkpt lat="41.5253260" lon="-8.7769730">
        <ele>2.8</ele>
        <time>2021-05-17T08:48:18Z</time>
      </trkpt>
      <trkpt lat="41.5253400" lon="-8.7769800">
        <ele>2.8</ele>
        <time>2021-05-17T08:48:19Z</time>
      </trkpt>
      <trkpt lat="41.5253520" lon="-8.7770000">
        <ele>2.8</ele>
        <time>2021-05-17T08:48:20Z</time>
      </trkpt>
      <trkpt lat="41.5253720" lon="-8.7770120">
        <ele>2.8</ele>
        <time>2021-05-17T08:48:21Z</time>
      </trkpt>
      <trkpt lat="41.5253800" lon="-8.7770190">
        <ele>2.8</ele>
        <time>2021-05-17T08:48:22Z</time>
      </trkpt>
      <trkpt lat="41.5253870" lon="-8.7770260">
        <ele>2.8</ele>
        <time>2021-05-17T08:48:23Z</time>
      </trkpt>
      <trkpt lat="41.5253950" lon="-8.7770420">
        <ele>2.8</ele>
        <time>2021-05-17T08:48:24Z</time>
      </trkpt>
      <trkpt lat="41.5254080" lon="-8.7770580">
        <ele>2.8</ele>
        <time>2021-05-17T08:48:25Z</time>
      </trkpt>
      <trkpt lat="41.5254170" lon="-8.7770740">
        <ele>2.8</ele>
        <time>2021-05-17T08:48:26Z</time>
      </trkpt>
      <trkpt lat="41.5254270" lon="-8.7770890">
        <ele>2.8</ele>
        <time>2021-05-17T08:48:27Z</time>
      </trkpt>
      <trkpt lat="41.5254390" lon="-8.7771020">
        <ele>2.8</ele>
        <time>2021-05-17T08:48:28Z</time>
      </trkpt>
      <trkpt lat="41.5254510" lon="-8.7771130">
        <ele>2.8</ele>
        <time>2021-05-17T08:48:29Z</time>
      </trkpt>
      <trkpt lat="41.5254620" lon="-8.7771260">
        <ele>2.7</ele>
        <time>2021-05-17T08:48:30Z</time>
      </trkpt>
      <trkpt lat="41.5254710" lon="-8.7771450">
        <ele>2.7</ele>
        <time>2021-05-17T08:48:31Z</time>
      </trkpt>
      <trkpt lat="41.5254810" lon="-8.7771590">
        <ele>2.7</ele>
        <time>2021-05-17T08:48:32Z</time>
      </trkpt>
      <trkpt lat="41.5254870" lon="-8.7771740">
        <ele>2.7</ele>
        <time>2021-05-17T08:48:33Z</time>
      </trkpt>
      <trkpt lat="41.5255010" lon="-8.7771900">
        <ele>2.7</ele>
        <time>2021-05-17T08:48:34Z</time>
      </trkpt>
      <trkpt lat="41.5255080" lon="-8.7772040">
        <ele>2.7</ele>
        <time>2021-05-17T08:48:35Z</time>
      </trkpt>
      <trkpt lat="41.5255300" lon="-8.7772200">
        <ele>2.7</ele>
        <time>2021-05-17T08:48:36Z</time>
      </trkpt>
      <trkpt lat="41.5255360" lon="-8.7772260">
        <ele>2.7</ele>
        <time>2021-05-17T08:48:37Z</time>
      </trkpt>
      <trkpt lat="41.5255430" lon="-8.7772310">
        <ele>2.7</ele>
        <time>2021-05-17T08:48:38Z</time>
      </trkpt>
      <trkpt lat="41.5255470" lon="-8.7772430">
        <ele>2.7</ele>
        <time>2021-05-17T08:48:39Z</time>
      </trkpt>
      <trkpt lat="41.5255560" lon="-8.7772530">
        <ele>2.7</ele>
        <time>2021-05-17T08:48:40Z</time>
      </trkpt>
      <trkpt lat="41.5255640" lon="-8.7772670">
        <ele>2.7</ele>
        <time>2021-05-17T08:48:41Z</time>
      </trkpt>
      <trkpt lat="41.5255640" lon="-8.7772760">
        <ele>2.7</ele>
        <time>2021-05-17T08:48:42Z</time>
      </trkpt>
      <trkpt lat="41.5255700" lon="-8.7772840">
        <ele>2.7</ele>
        <time>2021-05-17T08:48:43Z</time>
      </trkpt>
      <trkpt lat="41.5255800" lon="-8.7772970">
        <ele>2.7</ele>
        <time>2021-05-17T08:48:44Z</time>
      </trkpt>
      <trkpt lat="41.5255930" lon="-8.7773110">
        <ele>2.7</ele>
        <time>2021-05-17T08:48:45Z</time>
      </trkpt>
      <trkpt lat="41.5256070" lon="-8.7773260">
        <ele>2.7</ele>
        <time>2021-05-17T08:48:46Z</time>
      </trkpt>
      <trkpt lat="41.5256150" lon="-8.7773430">
        <ele>2.7</ele>
        <time>2021-05-17T08:48:47Z</time>
      </trkpt>
      <trkpt lat="41.5256260" lon="-8.7773550">
        <ele>2.7</ele>
        <time>2021-05-17T08:48:48Z</time>
      </trkpt>
      <trkpt lat="41.5256370" lon="-8.7773660">
        <ele>2.7</ele>
        <time>2021-05-17T08:48:49Z</time>
      </trkpt>
      <trkpt lat="41.5256530" lon="-8.7773750">
        <ele>2.6</ele>
        <time>2021-05-17T08:48:50Z</time>
      </trkpt>
      <trkpt lat="41.5256720" lon="-8.7773890">
        <ele>2.6</ele>
        <time>2021-05-17T08:48:51Z</time>
      </trkpt>
      <trkpt lat="41.5256780" lon="-8.7773980">
        <ele>2.6</ele>
        <time>2021-05-17T08:48:52Z</time>
      </trkpt>
      <trkpt lat="41.5256850" lon="-8.7774060">
        <ele>2.6</ele>
        <time>2021-05-17T08:48:53Z</time>
      </trkpt>
      <trkpt lat="41.5257020" lon="-8.7774260">
        <ele>2.6</ele>
        <time>2021-05-17T08:48:54Z</time>
      </trkpt>
      <trkpt lat="41.5257090" lon="-8.7774330">
        <ele>2.6</ele>
        <time>2021-05-17T08:48:55Z</time>
      </trkpt>
      <trkpt lat="41.5257160" lon="-8.7774410">
        <ele>2.6</ele>
        <time>2021-05-17T08:48:56Z</time>
      </trkpt>
      <trkpt lat="41.5257240" lon="-8.7774530">
        <ele>2.6</ele>
        <time>2021-05-17T08:48:57Z</time>
      </trkpt>
      <trkpt lat="41.5257310" lon="-8.7774670">
        <ele>2.6</ele>
        <time>2021-05-17T08:48:58Z</time>
      </trkpt>
      <trkpt lat="41.5257330" lon="-8.7774770">
        <ele>2.6</ele>
        <time>2021-05-17T08:48:59Z</time>
      </trkpt>
      <trkpt lat="41.5257390" lon="-8.7774890">
        <ele>2.6</ele>
        <time>2021-05-17T08:49:00Z</time>
      </trkpt>
      <trkpt lat="41.5257490" lon="-8.7774980">
        <ele>2.6</ele>
        <time>2021-05-17T08:49:01Z</time>
      </trkpt>
      <trkpt lat="41.5257550" lon="-8.7775090">
        <ele>2.6</ele>
        <time>2021-05-17T08:49:02Z</time>
      </trkpt>
      <trkpt lat="41.5257670" lon="-8.7775290">
        <ele>2.6</ele>
        <time>2021-05-17T08:49:03Z</time>
      </trkpt>
      <trkpt lat="41.5257770" lon="-8.7775450">
        <ele>2.6</ele>
        <time>2021-05-17T08:49:04Z</time>
      </trkpt>
      <trkpt lat="41.5257900" lon="-8.7775570">
        <ele>2.6</ele>
        <time>2021-05-17T08:49:05Z</time>
      </trkpt>
      <trkpt lat="41.5258000" lon="-8.7775730">
        <ele>2.6</ele>
        <time>2021-05-17T08:49:06Z</time>
      </trkpt>
      <trkpt lat="41.5258130" lon="-8.7775850">
        <ele>2.6</ele>
        <time>2021-05-17T08:49:07Z</time>
      </trkpt>
      <trkpt lat="41.5258220" lon="-8.7776010">
        <ele>2.6</ele>
        <time>2021-05-17T08:49:08Z</time>
      </trkpt>
      <trkpt lat="41.5258330" lon="-8.7776140">
        <ele>2.6</ele>
        <time>2021-05-17T08:49:09Z</time>
      </trkpt>
      <trkpt lat="41.5258490" lon="-8.7776240">
        <ele>2.6</ele>
        <time>2021-05-17T08:49:10Z</time>
      </trkpt>
      <trkpt lat="41.5258610" lon="-8.7776330">
        <ele>2.6</ele>
        <time>2021-05-17T08:49:11Z</time>
      </trkpt>
      <trkpt lat="41.5258710" lon="-8.7776480">
        <ele>2.6</ele>
        <time>2021-05-17T08:49:12Z</time>
      </trkpt>
      <trkpt lat="41.5258840" lon="-8.7776560">
        <ele>2.6</ele>
        <time>2021-05-17T08:49:13Z</time>
      </trkpt>
      <trkpt lat="41.5258950" lon="-8.7776720">
        <ele>2.6</ele>
        <time>2021-05-17T08:49:14Z</time>
      </trkpt>
      <trkpt lat="41.5259070" lon="-8.7776810">
        <ele>2.6</ele>
        <time>2021-05-17T08:49:15Z</time>
      </trkpt>
      <trkpt lat="41.5259160" lon="-8.7776980">
        <ele>2.6</ele>
        <time>2021-05-17T08:49:16Z</time>
      </trkpt>
      <trkpt lat="41.5259300" lon="-8.7777110">
        <ele>2.6</ele>
        <time>2021-05-17T08:49:17Z</time>
      </trkpt>
      <trkpt lat="41.5259390" lon="-8.7777320">
        <ele>2.6</ele>
        <time>2021-05-17T08:49:18Z</time>
      </trkpt>
      <trkpt lat="41.5259490" lon="-8.7777440">
        <ele>2.6</ele>
        <time>2021-05-17T08:49:19Z</time>
      </trkpt>
      <trkpt lat="41.5259600" lon="-8.7777620">
        <ele>2.6</ele>
        <time>2021-05-17T08:49:20Z</time>
      </trkpt>
      <trkpt lat="41.5259700" lon="-8.7777730">
        <ele>2.6</ele>
        <time>2021-05-17T08:49:21Z</time>
      </trkpt>
      <trkpt lat="41.5259790" lon="-8.7777820">
        <ele>2.6</ele>
        <time>2021-05-17T08:49:22Z</time>
      </trkpt>
      <trkpt lat="41.5259840" lon="-8.7777950">
        <ele>2.6</ele>
        <time>2021-05-17T08:49:23Z</time>
      </trkpt>
      <trkpt lat="41.5260010" lon="-8.7778150">
        <ele>2.6</ele>
        <time>2021-05-17T08:49:24Z</time>
      </trkpt>
      <trkpt lat="41.5260070" lon="-8.7778240">
        <ele>2.6</ele>
        <time>2021-05-17T08:49:25Z</time>
      </trkpt>
      <trkpt lat="41.5260120" lon="-8.7778340">
        <ele>2.6</ele>
        <time>2021-05-17T08:49:26Z</time>
      </trkpt>
      <trkpt lat="41.5260190" lon="-8.7778340">
        <ele>2.6</ele>
        <time>2021-05-17T08:49:27Z</time>
      </trkpt>
      <trkpt lat="41.5260310" lon="-8.7778450">
        <ele>2.6</ele>
        <time>2021-05-17T08:49:28Z</time>
      </trkpt>
      <trkpt lat="41.5260400" lon="-8.7778580">
        <ele>2.6</ele>
        <time>2021-05-17T08:49:29Z</time>
      </trkpt>
      <trkpt lat="41.5260520" lon="-8.7778750">
        <ele>2.6</ele>
        <time>2021-05-17T08:49:30Z</time>
      </trkpt>
      <trkpt lat="41.5260580" lon="-8.7778870">
        <ele>2.6</ele>
        <time>2021-05-17T08:49:31Z</time>
      </trkpt>
      <trkpt lat="41.5260650" lon="-8.7778990">
        <ele>2.6</ele>
        <time>2021-05-17T08:49:32Z</time>
      </trkpt>
      <trkpt lat="41.5260720" lon="-8.7779140">
        <ele>2.6</ele>
        <time>2021-05-17T08:49:33Z</time>
      </trkpt>
      <trkpt lat="41.5260830" lon="-8.7779270">
        <ele>2.6</ele>
        <time>2021-05-17T08:49:34Z</time>
      </trkpt>
      <trkpt lat="41.5260930" lon="-8.7779450">
        <ele>2.6</ele>
        <time>2021-05-17T08:49:35Z</time>
      </trkpt>
      <trkpt lat="41.5261040" lon="-8.7779570">
        <ele>2.6</ele>
        <time>2021-05-17T08:49:36Z</time>
      </trkpt>
      <trkpt lat="41.5261150" lon="-8.7779730">
        <ele>2.6</ele>
        <time>2021-05-17T08:49:37Z</time>
      </trkpt>
      <trkpt lat="41.5261290" lon="-8.7779860">
        <ele>2.6</ele>
        <time>2021-05-17T08:49:38Z</time>
      </trkpt>
      <trkpt lat="41.5261400" lon="-8.7779990">
        <ele>2.6</ele>
        <time>2021-05-17T08:49:39Z</time>
      </trkpt>
      <trkpt lat="41.5261480" lon="-8.7780130">
        <ele>2.6</ele>
        <time>2021-05-17T08:49:40Z</time>
      </trkpt>
      <trkpt lat="41.5261570" lon="-8.7780240">
        <ele>2.6</ele>
        <time>2021-05-17T08:49:41Z</time>
      </trkpt>
      <trkpt lat="41.5261660" lon="-8.7780390">
        <ele>2.6</ele>
        <time>2021-05-17T08:49:42Z</time>
      </trkpt>
      <trkpt lat="41.5261740" lon="-8.7780580">
        <ele>2.6</ele>
        <time>2021-05-17T08:49:43Z</time>
      </trkpt>
      <trkpt lat="41.5261790" lon="-8.7780620">
        <ele>2.6</ele>
        <time>2021-05-17T08:49:44Z</time>
      </trkpt>
      <trkpt lat="41.5261860" lon="-8.7780760">
        <ele>2.6</ele>
        <time>2021-05-17T08:49:45Z</time>
      </trkpt>
      <trkpt lat="41.5261990" lon="-8.7780900">
        <ele>2.6</ele>
        <time>2021-05-17T08:49:46Z</time>
      </trkpt>
      <trkpt lat="41.5262050" lon="-8.7781090">
        <ele>2.6</ele>
        <time>2021-05-17T08:49:47Z</time>
      </trkpt>
      <trkpt lat="41.5262200" lon="-8.7781290">
        <ele>2.6</ele>
        <time>2021-05-17T08:49:48Z</time>
      </trkpt>
      <trkpt lat="41.5262270" lon="-8.7781370">
        <ele>2.6</ele>
        <time>2021-05-17T08:49:49Z</time>
      </trkpt>
      <trkpt lat="41.5262330" lon="-8.7781460">
        <ele>2.6</ele>
        <time>2021-05-17T08:49:50Z</time>
      </trkpt>
      <trkpt lat="41.5262440" lon="-8.7781500">
        <ele>2.6</ele>
        <time>2021-05-17T08:49:51Z</time>
      </trkpt>
      <trkpt lat="41.5262480" lon="-8.7781610">
        <ele>2.6</ele>
        <time>2021-05-17T08:49:52Z</time>
      </trkpt>
      <trkpt lat="41.5262570" lon="-8.7781710">
        <ele>2.6</ele>
        <time>2021-05-17T08:49:53Z</time>
      </trkpt>
      <trkpt lat="41.5262730" lon="-8.7781900">
        <ele>2.6</ele>
        <time>2021-05-17T08:49:54Z</time>
      </trkpt>
      <trkpt lat="41.5262810" lon="-8.7782010">
        <ele>2.6</ele>
        <time>2021-05-17T08:49:55Z</time>
      </trkpt>
      <trkpt lat="41.5262880" lon="-8.7782130">
        <ele>2.6</ele>
        <time>2021-05-17T08:49:56Z</time>
      </trkpt>
      <trkpt lat="41.5263090" lon="-8.7782390">
        <ele>2.6</ele>
        <time>2021-05-17T08:49:57Z</time>
      </trkpt>
      <trkpt lat="41.5263140" lon="-8.7782490">
        <ele>2.6</ele>
        <time>2021-05-17T08:49:58Z</time>
      </trkpt>
      <trkpt lat="41.5263330" lon="-8.7782680">
        <ele>2.6</ele>
        <time>2021-05-17T08:49:59Z</time>
      </trkpt>
      <trkpt lat="41.5263400" lon="-8.7782760">
        <ele>2.6</ele>
        <time>2021-05-17T08:50:00Z</time>
      </trkpt>
      <trkpt lat="41.5263480" lon="-8.7782830">
        <ele>2.6</ele>
        <time>2021-05-17T08:50:01Z</time>
      </trkpt>
      <trkpt lat="41.5263570" lon="-8.7782980">
        <ele>2.6</ele>
        <time>2021-05-17T08:50:02Z</time>
      </trkpt>
      <trkpt lat="41.5263690" lon="-8.7783040">
        <ele>2.5</ele>
        <time>2021-05-17T08:50:03Z</time>
      </trkpt>
      <trkpt lat="41.5263770" lon="-8.7783130">
        <ele>2.5</ele>
        <time>2021-05-17T08:50:04Z</time>
      </trkpt>
      <trkpt lat="41.5263880" lon="-8.7783360">
        <ele>2.5</ele>
        <time>2021-05-17T08:50:05Z</time>
      </trkpt>
      <trkpt lat="41.5263940" lon="-8.7783470">
        <ele>2.5</ele>
        <time>2021-05-17T08:50:06Z</time>
      </trkpt>
      <trkpt lat="41.5264000" lon="-8.7783570">
        <ele>2.5</ele>
        <time>2021-05-17T08:50:07Z</time>
      </trkpt>
      <trkpt lat="41.5264070" lon="-8.7783680">
        <ele>2.5</ele>
        <time>2021-05-17T08:50:08Z</time>
      </trkpt>
      <trkpt lat="41.5264170" lon="-8.7783810">
        <ele>2.5</ele>
        <time>2021-05-17T08:50:09Z</time>
      </trkpt>
      <trkpt lat="41.5264230" lon="-8.7783870">
        <ele>2.5</ele>
        <time>2021-05-17T08:50:10Z</time>
      </trkpt>
      <trkpt lat="41.5264340" lon="-8.7783980">
        <ele>2.5</ele>
        <time>2021-05-17T08:50:11Z</time>
      </trkpt>
      <trkpt lat="41.5264490" lon="-8.7784160">
        <ele>2.5</ele>
        <time>2021-05-17T08:50:12Z</time>
      </trkpt>
      <trkpt lat="41.5264590" lon="-8.7784310">
        <ele>2.5</ele>
        <time>2021-05-17T08:50:13Z</time>
      </trkpt>
      <trkpt lat="41.5264690" lon="-8.7784460">
        <ele>2.5</ele>
        <time>2021-05-17T08:50:14Z</time>
      </trkpt>
      <trkpt lat="41.5264740" lon="-8.7784650">
        <ele>2.5</ele>
        <time>2021-05-17T08:50:15Z</time>
      </trkpt>
      <trkpt lat="41.5264830" lon="-8.7784780">
        <ele>2.5</ele>
        <time>2021-05-17T08:50:16Z</time>
      </trkpt>
      <trkpt lat="41.5264910" lon="-8.7784920">
        <ele>2.5</ele>
        <time>2021-05-17T08:50:17Z</time>
      </trkpt>
      <trkpt lat="41.5264960" lon="-8.7785000">
        <ele>2.5</ele>
        <time>2021-05-17T08:50:18Z</time>
      </trkpt>
      <trkpt lat="41.5265060" lon="-8.7785080">
        <ele>2.5</ele>
        <time>2021-05-17T08:50:19Z</time>
      </trkpt>
      <trkpt lat="41.5265150" lon="-8.7785220">
        <ele>2.5</ele>
        <time>2021-05-17T08:50:20Z</time>
      </trkpt>
      <trkpt lat="41.5265240" lon="-8.7785240">
        <ele>2.5</ele>
        <time>2021-05-17T08:50:21Z</time>
      </trkpt>
      <trkpt lat="41.5265360" lon="-8.7785330">
        <ele>2.5</ele>
        <time>2021-05-17T08:50:22Z</time>
      </trkpt>
      <trkpt lat="41.5265420" lon="-8.7785440">
        <ele>2.5</ele>
        <time>2021-05-17T08:50:23Z</time>
      </trkpt>
      <trkpt lat="41.5265520" lon="-8.7785440">
        <ele>2.5</ele>
        <time>2021-05-17T08:50:24Z</time>
      </trkpt>
      <trkpt lat="41.5265600" lon="-8.7785550">
        <ele>2.5</ele>
        <time>2021-05-17T08:50:25Z</time>
      </trkpt>
      <trkpt lat="41.5265660" lon="-8.7785670">
        <ele>2.5</ele>
        <time>2021-05-17T08:50:26Z</time>
      </trkpt>
      <trkpt lat="41.5265720" lon="-8.7785810">
        <ele>2.5</ele>
        <time>2021-05-17T08:50:27Z</time>
      </trkpt>
      <trkpt lat="41.5265720" lon="-8.7785850">
        <ele>2.5</ele>
        <time>2021-05-17T08:50:28Z</time>
      </trkpt>
      <trkpt lat="41.5265690" lon="-8.7785880">
        <ele>2.5</ele>
        <time>2021-05-17T08:50:29Z</time>
      </trkpt>
      <trkpt lat="41.5265650" lon="-8.7786000">
        <ele>2.5</ele>
        <time>2021-05-17T08:50:30Z</time>
      </trkpt>
      <trkpt lat="41.5265650" lon="-8.7786000">
        <ele>2.5</ele>
        <time>2021-05-17T08:50:31Z</time>
      </trkpt>
      <trkpt lat="41.5265560" lon="-8.7786270">
        <ele>2.5</ele>
        <time>2021-05-17T08:50:32Z</time>
      </trkpt>
      <trkpt lat="41.5265510" lon="-8.7786320">
        <ele>2.5</ele>
        <time>2021-05-17T08:50:33Z</time>
      </trkpt>
      <trkpt lat="41.5265450" lon="-8.7786380">
        <ele>2.5</ele>
        <time>2021-05-17T08:50:34Z</time>
      </trkpt>
      <trkpt lat="41.5265400" lon="-8.7786430">
        <ele>2.5</ele>
        <time>2021-05-17T08:50:35Z</time>
      </trkpt>
      <trkpt lat="41.5265370" lon="-8.7786480">
        <ele>2.5</ele>
        <time>2021-05-17T08:50:36Z</time>
      </trkpt>
      <trkpt lat="41.5265340" lon="-8.7786480">
        <ele>2.5</ele>
        <time>2021-05-17T08:50:37Z</time>
      </trkpt>
      <trkpt lat="41.5265300" lon="-8.7786500">
        <ele>2.5</ele>
        <time>2021-05-17T08:50:38Z</time>
      </trkpt>
      <trkpt lat="41.5265270" lon="-8.7786530">
        <ele>2.5</ele>
        <time>2021-05-17T08:50:39Z</time>
      </trkpt>
      <trkpt lat="41.5265280" lon="-8.7786540">
        <ele>2.5</ele>
        <time>2021-05-17T08:50:40Z</time>
      </trkpt>
      <trkpt lat="41.5265280" lon="-8.7786550">
        <ele>2.5</ele>
        <time>2021-05-17T08:50:41Z</time>
      </trkpt>
      <trkpt lat="41.5265280" lon="-8.7786580">
        <ele>2.5</ele>
        <time>2021-05-17T08:50:42Z</time>
      </trkpt>
      <trkpt lat="41.5265290" lon="-8.7786590">
        <ele>2.5</ele>
        <time>2021-05-17T08:50:43Z</time>
      </trkpt>
      <trkpt lat="41.5265290" lon="-8.7786590">
        <ele>2.5</ele>
        <time>2021-05-17T08:50:44Z</time>
      </trkpt>
      <trkpt lat="41.5265300" lon="-8.7786610">
        <ele>2.5</ele>
        <time>2021-05-17T08:50:45Z</time>
      </trkpt>
      <trkpt lat="41.5265280" lon="-8.7786620">
        <ele>2.5</ele>
        <time>2021-05-17T08:50:46Z</time>
      </trkpt>
      <trkpt lat="41.5265280" lon="-8.7786620">
        <ele>2.5</ele>
        <time>2021-05-17T08:50:47Z</time>
      </trkpt>
      <trkpt lat="41.5265280" lon="-8.7786620">
        <ele>2.5</ele>
        <time>2021-05-17T08:50:48Z</time>
      </trkpt>
      <trkpt lat="41.5265280" lon="-8.7786620">
        <ele>2.5</ele>
        <time>2021-05-17T08:50:49Z</time>
      </trkpt>
      <trkpt lat="41.5265280" lon="-8.7786620">
        <ele>2.5</ele>
        <time>2021-05-17T08:50:50Z</time>
      </trkpt>
      <trkpt lat="41.5265360" lon="-8.7786640">
        <ele>2.5</ele>
        <time>2021-05-17T08:50:51Z</time>
      </trkpt>
      <trkpt lat="41.5265370" lon="-8.7786630">
        <ele>2.5</ele>
        <time>2021-05-17T08:50:52Z</time>
      </trkpt>
      <trkpt lat="41.5265370" lon="-8.7786630">
        <ele>2.5</ele>
        <time>2021-05-17T08:50:53Z</time>
      </trkpt>
      <trkpt lat="41.5265440" lon="-8.7786680">
        <ele>2.5</ele>
        <time>2021-05-17T08:50:54Z</time>
      </trkpt>
      <trkpt lat="41.5265450" lon="-8.7786680">
        <ele>2.5</ele>
        <time>2021-05-17T08:50:55Z</time>
      </trkpt>
      <trkpt lat="41.5265470" lon="-8.7786670">
        <ele>2.5</ele>
        <time>2021-05-17T08:50:56Z</time>
      </trkpt>
      <trkpt lat="41.5265530" lon="-8.7786740">
        <ele>2.5</ele>
        <time>2021-05-17T08:50:57Z</time>
      </trkpt>
      <trkpt lat="41.5265630" lon="-8.7786890">
        <ele>2.5</ele>
        <time>2021-05-17T08:50:58Z</time>
      </trkpt>
      <trkpt lat="41.5265720" lon="-8.7787000">
        <ele>2.5</ele>
        <time>2021-05-17T08:50:59Z</time>
      </trkpt>
      <trkpt lat="41.5265880" lon="-8.7787220">
        <ele>2.5</ele>
        <time>2021-05-17T08:51:00Z</time>
      </trkpt>
      <trkpt lat="41.5265930" lon="-8.7787290">
        <ele>2.5</ele>
        <time>2021-05-17T08:51:01Z</time>
      </trkpt>
      <trkpt lat="41.5265970" lon="-8.7787370">
        <ele>2.5</ele>
        <time>2021-05-17T08:51:02Z</time>
      </trkpt>
      <trkpt lat="41.5266150" lon="-8.7787550">
        <ele>2.5</ele>
        <time>2021-05-17T08:51:03Z</time>
      </trkpt>
      <trkpt lat="41.5266220" lon="-8.7787630">
        <ele>2.5</ele>
        <time>2021-05-17T08:51:04Z</time>
      </trkpt>
      <trkpt lat="41.5266300" lon="-8.7787710">
        <ele>2.5</ele>
        <time>2021-05-17T08:51:05Z</time>
      </trkpt>
      <trkpt lat="41.5266390" lon="-8.7787820">
        <ele>2.5</ele>
        <time>2021-05-17T08:51:06Z</time>
      </trkpt>
      <trkpt lat="41.5266520" lon="-8.7787940">
        <ele>2.5</ele>
        <time>2021-05-17T08:51:07Z</time>
      </trkpt>
      <trkpt lat="41.5266610" lon="-8.7787980">
        <ele>2.5</ele>
        <time>2021-05-17T08:51:08Z</time>
      </trkpt>
      <trkpt lat="41.5266700" lon="-8.7788080">
        <ele>2.5</ele>
        <time>2021-05-17T08:51:09Z</time>
      </trkpt>
      <trkpt lat="41.5266800" lon="-8.7788210">
        <ele>2.5</ele>
        <time>2021-05-17T08:51:10Z</time>
      </trkpt>
      <trkpt lat="41.5266950" lon="-8.7788430">
        <ele>2.5</ele>
        <time>2021-05-17T08:51:11Z</time>
      </trkpt>
      <trkpt lat="41.5267010" lon="-8.7788500">
        <ele>2.5</ele>
        <time>2021-05-17T08:51:12Z</time>
      </trkpt>
      <trkpt lat="41.5267080" lon="-8.7788570">
        <ele>2.5</ele>
        <time>2021-05-17T08:51:13Z</time>
      </trkpt>
      <trkpt lat="41.5267210" lon="-8.7788670">
        <ele>2.5</ele>
        <time>2021-05-17T08:51:14Z</time>
      </trkpt>
      <trkpt lat="41.5267250" lon="-8.7788790">
        <ele>2.5</ele>
        <time>2021-05-17T08:51:15Z</time>
      </trkpt>
      <trkpt lat="41.5267310" lon="-8.7788850">
        <ele>2.5</ele>
        <time>2021-05-17T08:51:16Z</time>
      </trkpt>
      <trkpt lat="41.5267410" lon="-8.7788980">
        <ele>2.5</ele>
        <time>2021-05-17T08:51:17Z</time>
      </trkpt>
      <trkpt lat="41.5267580" lon="-8.7789080">
        <ele>2.5</ele>
        <time>2021-05-17T08:51:18Z</time>
      </trkpt>
      <trkpt lat="41.5267640" lon="-8.7789140">
        <ele>2.5</ele>
        <time>2021-05-17T08:51:19Z</time>
      </trkpt>
      <trkpt lat="41.5267720" lon="-8.7789210">
        <ele>2.5</ele>
        <time>2021-05-17T08:51:20Z</time>
      </trkpt>
      <trkpt lat="41.5267870" lon="-8.7789360">
        <ele>2.5</ele>
        <time>2021-05-17T08:51:21Z</time>
      </trkpt>
      <trkpt lat="41.5268100" lon="-8.7789610">
        <ele>2.5</ele>
        <time>2021-05-17T08:51:22Z</time>
      </trkpt>
      <trkpt lat="41.5268150" lon="-8.7789670">
        <ele>2.5</ele>
        <time>2021-05-17T08:51:23Z</time>
      </trkpt>
      <trkpt lat="41.5268270" lon="-8.7789840">
        <ele>2.5</ele>
        <time>2021-05-17T08:51:24Z</time>
      </trkpt>
      <trkpt lat="41.5268440" lon="-8.7789930">
        <ele>2.5</ele>
        <time>2021-05-17T08:51:25Z</time>
      </trkpt>
      <trkpt lat="41.5268530" lon="-8.7790120">
        <ele>2.5</ele>
        <time>2021-05-17T08:51:26Z</time>
      </trkpt>
      <trkpt lat="41.5268660" lon="-8.7790260">
        <ele>2.5</ele>
        <time>2021-05-17T08:51:27Z</time>
      </trkpt>
      <trkpt lat="41.5268750" lon="-8.7790410">
        <ele>2.5</ele>
        <time>2021-05-17T08:51:28Z</time>
      </trkpt>
      <trkpt lat="41.5268900" lon="-8.7790510">
        <ele>2.5</ele>
        <time>2021-05-17T08:51:29Z</time>
      </trkpt>
      <trkpt lat="41.5269050" lon="-8.7790620">
        <ele>2.5</ele>
        <time>2021-05-17T08:51:30Z</time>
      </trkpt>
      <trkpt lat="41.5269180" lon="-8.7790710">
        <ele>2.5</ele>
        <time>2021-05-17T08:51:31Z</time>
      </trkpt>
      <trkpt lat="41.5269270" lon="-8.7790810">
        <ele>2.5</ele>
        <time>2021-05-17T08:51:32Z</time>
      </trkpt>
      <trkpt lat="41.5269370" lon="-8.7790880">
        <ele>2.5</ele>
        <time>2021-05-17T08:51:33Z</time>
      </trkpt>
      <trkpt lat="41.5269400" lon="-8.7790950">
        <ele>2.5</ele>
        <time>2021-05-17T08:51:34Z</time>
      </trkpt>
      <trkpt lat="41.5269560" lon="-8.7791140">
        <ele>2.5</ele>
        <time>2021-05-17T08:51:35Z</time>
      </trkpt>
      <trkpt lat="41.5269620" lon="-8.7791210">
        <ele>2.5</ele>
        <time>2021-05-17T08:51:36Z</time>
      </trkpt>
      <trkpt lat="41.5269680" lon="-8.7791280">
        <ele>2.5</ele>
        <time>2021-05-17T08:51:37Z</time>
      </trkpt>
      <trkpt lat="41.5269860" lon="-8.7791490">
        <ele>2.5</ele>
        <time>2021-05-17T08:51:38Z</time>
      </trkpt>
      <trkpt lat="41.5269920" lon="-8.7791610">
        <ele>2.5</ele>
        <time>2021-05-17T08:51:39Z</time>
      </trkpt>
      <trkpt lat="41.5270050" lon="-8.7791760">
        <ele>2.5</ele>
        <time>2021-05-17T08:51:40Z</time>
      </trkpt>
      <trkpt lat="41.5270140" lon="-8.7791920">
        <ele>2.5</ele>
        <time>2021-05-17T08:51:41Z</time>
      </trkpt>
      <trkpt lat="41.5270300" lon="-8.7792100">
        <ele>2.5</ele>
        <time>2021-05-17T08:51:42Z</time>
      </trkpt>
      <trkpt lat="41.5270360" lon="-8.7792180">
        <ele>2.5</ele>
        <time>2021-05-17T08:51:43Z</time>
      </trkpt>
      <trkpt lat="41.5270420" lon="-8.7792270">
        <ele>2.5</ele>
        <time>2021-05-17T08:51:44Z</time>
      </trkpt>
      <trkpt lat="41.5270480" lon="-8.7792400">
        <ele>2.5</ele>
        <time>2021-05-17T08:51:45Z</time>
      </trkpt>
      <trkpt lat="41.5270530" lon="-8.7792450">
        <ele>2.5</ele>
        <time>2021-05-17T08:51:46Z</time>
      </trkpt>
      <trkpt lat="41.5270610" lon="-8.7792570">
        <ele>2.5</ele>
        <time>2021-05-17T08:51:47Z</time>
      </trkpt>
      <trkpt lat="41.5270730" lon="-8.7792640">
        <ele>2.5</ele>
        <time>2021-05-17T08:51:48Z</time>
      </trkpt>
      <trkpt lat="41.5270820" lon="-8.7792770">
        <ele>2.5</ele>
        <time>2021-05-17T08:51:49Z</time>
      </trkpt>
      <trkpt lat="41.5270890" lon="-8.7792890">
        <ele>2.4</ele>
        <time>2021-05-17T08:51:50Z</time>
      </trkpt>
      <trkpt lat="41.5270960" lon="-8.7793010">
        <ele>2.4</ele>
        <time>2021-05-17T08:51:51Z</time>
      </trkpt>
      <trkpt lat="41.5271100" lon="-8.7793190">
        <ele>2.4</ele>
        <time>2021-05-17T08:51:52Z</time>
      </trkpt>
      <trkpt lat="41.5271190" lon="-8.7793330">
        <ele>2.4</ele>
        <time>2021-05-17T08:51:53Z</time>
      </trkpt>
      <trkpt lat="41.5271360" lon="-8.7793460">
        <ele>2.4</ele>
        <time>2021-05-17T08:51:54Z</time>
      </trkpt>
      <trkpt lat="41.5271450" lon="-8.7793580">
        <ele>2.4</ele>
        <time>2021-05-17T08:51:55Z</time>
      </trkpt>
      <trkpt lat="41.5271630" lon="-8.7793750">
        <ele>2.4</ele>
        <time>2021-05-17T08:51:56Z</time>
      </trkpt>
      <trkpt lat="41.5271710" lon="-8.7793920">
        <ele>2.4</ele>
        <time>2021-05-17T08:51:57Z</time>
      </trkpt>
      <trkpt lat="41.5271810" lon="-8.7794050">
        <ele>2.4</ele>
        <time>2021-05-17T08:51:58Z</time>
      </trkpt>
      <trkpt lat="41.5271940" lon="-8.7794150">
        <ele>2.4</ele>
        <time>2021-05-17T08:51:59Z</time>
      </trkpt>
      <trkpt lat="41.5272060" lon="-8.7794290">
        <ele>2.4</ele>
        <time>2021-05-17T08:52:00Z</time>
      </trkpt>
      <trkpt lat="41.5272190" lon="-8.7794450">
        <ele>2.4</ele>
        <time>2021-05-17T08:52:01Z</time>
      </trkpt>
      <trkpt lat="41.5272330" lon="-8.7794580">
        <ele>2.4</ele>
        <time>2021-05-17T08:52:02Z</time>
      </trkpt>
      <trkpt lat="41.5272470" lon="-8.7794790">
        <ele>2.4</ele>
        <time>2021-05-17T08:52:03Z</time>
      </trkpt>
      <trkpt lat="41.5272540" lon="-8.7794870">
        <ele>2.4</ele>
        <time>2021-05-17T08:52:04Z</time>
      </trkpt>
      <trkpt lat="41.5272600" lon="-8.7794960">
        <ele>2.4</ele>
        <time>2021-05-17T08:52:05Z</time>
      </trkpt>
      <trkpt lat="41.5272690" lon="-8.7795080">
        <ele>2.4</ele>
        <time>2021-05-17T08:52:06Z</time>
      </trkpt>
      <trkpt lat="41.5272780" lon="-8.7795150">
        <ele>2.4</ele>
        <time>2021-05-17T08:52:07Z</time>
      </trkpt>
      <trkpt lat="41.5272840" lon="-8.7795210">
        <ele>2.4</ele>
        <time>2021-05-17T08:52:08Z</time>
      </trkpt>
      <trkpt lat="41.5273060" lon="-8.7795390">
        <ele>2.4</ele>
        <time>2021-05-17T08:52:09Z</time>
      </trkpt>
      <trkpt lat="41.5273120" lon="-8.7795440">
        <ele>2.4</ele>
        <time>2021-05-17T08:52:10Z</time>
      </trkpt>
      <trkpt lat="41.5273170" lon="-8.7795480">
        <ele>2.4</ele>
        <time>2021-05-17T08:52:11Z</time>
      </trkpt>
      <trkpt lat="41.5273310" lon="-8.7795680">
        <ele>2.4</ele>
        <time>2021-05-17T08:52:12Z</time>
      </trkpt>
      <trkpt lat="41.5273380" lon="-8.7795750">
        <ele>2.4</ele>
        <time>2021-05-17T08:52:13Z</time>
      </trkpt>
      <trkpt lat="41.5273450" lon="-8.7795820">
        <ele>2.4</ele>
        <time>2021-05-17T08:52:14Z</time>
      </trkpt>
      <trkpt lat="41.5273610" lon="-8.7796080">
        <ele>2.4</ele>
        <time>2021-05-17T08:52:15Z</time>
      </trkpt>
      <trkpt lat="41.5273660" lon="-8.7796150">
        <ele>2.4</ele>
        <time>2021-05-17T08:52:16Z</time>
      </trkpt>
      <trkpt lat="41.5273710" lon="-8.7796220">
        <ele>2.4</ele>
        <time>2021-05-17T08:52:17Z</time>
      </trkpt>
      <trkpt lat="41.5273750" lon="-8.7796320">
        <ele>2.4</ele>
        <time>2021-05-17T08:52:18Z</time>
      </trkpt>
      <trkpt lat="41.5273850" lon="-8.7796490">
        <ele>2.4</ele>
        <time>2021-05-17T08:52:19Z</time>
      </trkpt>
      <trkpt lat="41.5273900" lon="-8.7796540">
        <ele>2.4</ele>
        <time>2021-05-17T08:52:20Z</time>
      </trkpt>
      <trkpt lat="41.5274010" lon="-8.7796720">
        <ele>2.4</ele>
        <time>2021-05-17T08:52:21Z</time>
      </trkpt>
      <trkpt lat="41.5274120" lon="-8.7796820">
        <ele>2.4</ele>
        <time>2021-05-17T08:52:22Z</time>
      </trkpt>
      <trkpt lat="41.5274230" lon="-8.7796960">
        <ele>2.4</ele>
        <time>2021-05-17T08:52:23Z</time>
      </trkpt>
      <trkpt lat="41.5274330" lon="-8.7797060">
        <ele>2.4</ele>
        <time>2021-05-17T08:52:24Z</time>
      </trkpt>
      <trkpt lat="41.5274440" lon="-8.7797210">
        <ele>2.4</ele>
        <time>2021-05-17T08:52:25Z</time>
      </trkpt>
      <trkpt lat="41.5274560" lon="-8.7797370">
        <ele>2.4</ele>
        <time>2021-05-17T08:52:26Z</time>
      </trkpt>
      <trkpt lat="41.5274640" lon="-8.7797510">
        <ele>2.4</ele>
        <time>2021-05-17T08:52:27Z</time>
      </trkpt>
      <trkpt lat="41.5274760" lon="-8.7797670">
        <ele>2.4</ele>
        <time>2021-05-17T08:52:28Z</time>
      </trkpt>
      <trkpt lat="41.5274900" lon="-8.7797860">
        <ele>2.4</ele>
        <time>2021-05-17T08:52:29Z</time>
      </trkpt>
      <trkpt lat="41.5274960" lon="-8.7797940">
        <ele>2.4</ele>
        <time>2021-05-17T08:52:30Z</time>
      </trkpt>
      <trkpt lat="41.5275020" lon="-8.7798030">
        <ele>2.4</ele>
        <time>2021-05-17T08:52:31Z</time>
      </trkpt>
      <trkpt lat="41.5275180" lon="-8.7798190">
        <ele>2.4</ele>
        <time>2021-05-17T08:52:32Z</time>
      </trkpt>
      <trkpt lat="41.5275240" lon="-8.7798340">
        <ele>2.4</ele>
        <time>2021-05-17T08:52:33Z</time>
      </trkpt>
      <trkpt lat="41.5275400" lon="-8.7798500">
        <ele>2.4</ele>
        <time>2021-05-17T08:52:34Z</time>
      </trkpt>
      <trkpt lat="41.5275480" lon="-8.7798670">
        <ele>2.4</ele>
        <time>2021-05-17T08:52:35Z</time>
      </trkpt>
      <trkpt lat="41.5275580" lon="-8.7798860">
        <ele>2.4</ele>
        <time>2021-05-17T08:52:36Z</time>
      </trkpt>
      <trkpt lat="41.5275680" lon="-8.7799030">
        <ele>2.4</ele>
        <time>2021-05-17T08:52:37Z</time>
      </trkpt>
      <trkpt lat="41.5275790" lon="-8.7799200">
        <ele>2.4</ele>
        <time>2021-05-17T08:52:38Z</time>
      </trkpt>
      <trkpt lat="41.5275900" lon="-8.7799310">
        <ele>2.4</ele>
        <time>2021-05-17T08:52:39Z</time>
      </trkpt>
      <trkpt lat="41.5275990" lon="-8.7799480">
        <ele>2.4</ele>
        <time>2021-05-17T08:52:40Z</time>
      </trkpt>
      <trkpt lat="41.5276060" lon="-8.7799670">
        <ele>2.4</ele>
        <time>2021-05-17T08:52:41Z</time>
      </trkpt>
      <trkpt lat="41.5276140" lon="-8.7799850">
        <ele>2.4</ele>
        <time>2021-05-17T08:52:42Z</time>
      </trkpt>
      <trkpt lat="41.5276260" lon="-8.7799960">
        <ele>2.4</ele>
        <time>2021-05-17T08:52:43Z</time>
      </trkpt>
      <trkpt lat="41.5276340" lon="-8.7800100">
        <ele>2.4</ele>
        <time>2021-05-17T08:52:44Z</time>
      </trkpt>
      <trkpt lat="41.5276470" lon="-8.7800200">
        <ele>2.4</ele>
        <time>2021-05-17T08:52:45Z</time>
      </trkpt>
      <trkpt lat="41.5276620" lon="-8.7800440">
        <ele>2.4</ele>
        <time>2021-05-17T08:52:46Z</time>
      </trkpt>
      <trkpt lat="41.5276660" lon="-8.7800590">
        <ele>2.4</ele>
        <time>2021-05-17T08:52:47Z</time>
      </trkpt>
      <trkpt lat="41.5276710" lon="-8.7800730">
        <ele>2.4</ele>
        <time>2021-05-17T08:52:48Z</time>
      </trkpt>
      <trkpt lat="41.5276850" lon="-8.7801110">
        <ele>2.4</ele>
        <time>2021-05-17T08:52:49Z</time>
      </trkpt>
      <trkpt lat="41.5276910" lon="-8.7801220">
        <ele>2.4</ele>
        <time>2021-05-17T08:52:50Z</time>
      </trkpt>
      <trkpt lat="41.5277030" lon="-8.7801330">
        <ele>2.4</ele>
        <time>2021-05-17T08:52:51Z</time>
      </trkpt>
      <trkpt lat="41.5277170" lon="-8.7801430">
        <ele>2.4</ele>
        <time>2021-05-17T08:52:52Z</time>
      </trkpt>
      <trkpt lat="41.5277270" lon="-8.7801560">
        <ele>2.4</ele>
        <time>2021-05-17T08:52:53Z</time>
      </trkpt>
      <trkpt lat="41.5277410" lon="-8.7801700">
        <ele>2.4</ele>
        <time>2021-05-17T08:52:54Z</time>
      </trkpt>
      <trkpt lat="41.5277460" lon="-8.7801880">
        <ele>2.4</ele>
        <time>2021-05-17T08:52:55Z</time>
      </trkpt>
      <trkpt lat="41.5277620" lon="-8.7801980">
        <ele>2.4</ele>
        <time>2021-05-17T08:52:56Z</time>
      </trkpt>
      <trkpt lat="41.5277770" lon="-8.7802200">
        <ele>2.4</ele>
        <time>2021-05-17T08:52:57Z</time>
      </trkpt>
      <trkpt lat="41.5277820" lon="-8.7802280">
        <ele>2.4</ele>
        <time>2021-05-17T08:52:58Z</time>
      </trkpt>
      <trkpt lat="41.5277880" lon="-8.7802350">
        <ele>2.4</ele>
        <time>2021-05-17T08:52:59Z</time>
      </trkpt>
      <trkpt lat="41.5278030" lon="-8.7802530">
        <ele>2.4</ele>
        <time>2021-05-17T08:53:00Z</time>
      </trkpt>
      <trkpt lat="41.5278110" lon="-8.7802640">
        <ele>2.4</ele>
        <time>2021-05-17T08:53:01Z</time>
      </trkpt>
      <trkpt lat="41.5278180" lon="-8.7802740">
        <ele>2.4</ele>
        <time>2021-05-17T08:53:02Z</time>
      </trkpt>
      <trkpt lat="41.5278360" lon="-8.7802870">
        <ele>2.4</ele>
        <time>2021-05-17T08:53:03Z</time>
      </trkpt>
      <trkpt lat="41.5278440" lon="-8.7802950">
        <ele>2.4</ele>
        <time>2021-05-17T08:53:04Z</time>
      </trkpt>
      <trkpt lat="41.5278520" lon="-8.7803020">
        <ele>2.4</ele>
        <time>2021-05-17T08:53:05Z</time>
      </trkpt>
      <trkpt lat="41.5278690" lon="-8.7803190">
        <ele>2.4</ele>
        <time>2021-05-17T08:53:06Z</time>
      </trkpt>
      <trkpt lat="41.5278750" lon="-8.7803260">
        <ele>2.4</ele>
        <time>2021-05-17T08:53:07Z</time>
      </trkpt>
      <trkpt lat="41.5278800" lon="-8.7803330">
        <ele>2.4</ele>
        <time>2021-05-17T08:53:08Z</time>
      </trkpt>
      <trkpt lat="41.5278890" lon="-8.7803400">
        <ele>2.4</ele>
        <time>2021-05-17T08:53:09Z</time>
      </trkpt>
      <trkpt lat="41.5279000" lon="-8.7803500">
        <ele>2.4</ele>
        <time>2021-05-17T08:53:10Z</time>
      </trkpt>
      <trkpt lat="41.5279080" lon="-8.7803630">
        <ele>2.4</ele>
        <time>2021-05-17T08:53:11Z</time>
      </trkpt>
      <trkpt lat="41.5279250" lon="-8.7803850">
        <ele>2.4</ele>
        <time>2021-05-17T08:53:12Z</time>
      </trkpt>
      <trkpt lat="41.5279300" lon="-8.7803920">
        <ele>2.4</ele>
        <time>2021-05-17T08:53:13Z</time>
      </trkpt>
      <trkpt lat="41.5279350" lon="-8.7803990">
        <ele>2.4</ele>
        <time>2021-05-17T08:53:14Z</time>
      </trkpt>
      <trkpt lat="41.5279480" lon="-8.7804150">
        <ele>2.4</ele>
        <time>2021-05-17T08:53:15Z</time>
      </trkpt>
      <trkpt lat="41.5279560" lon="-8.7804310">
        <ele>2.4</ele>
        <time>2021-05-17T08:53:16Z</time>
      </trkpt>
      <trkpt lat="41.5279620" lon="-8.7804420">
        <ele>2.4</ele>
        <time>2021-05-17T08:53:17Z</time>
      </trkpt>
      <trkpt lat="41.5279770" lon="-8.7804570">
        <ele>2.4</ele>
        <time>2021-05-17T08:53:18Z</time>
      </trkpt>
      <trkpt lat="41.5279870" lon="-8.7804710">
        <ele>2.4</ele>
        <time>2021-05-17T08:53:19Z</time>
      </trkpt>
      <trkpt lat="41.5279900" lon="-8.7804800">
        <ele>2.4</ele>
        <time>2021-05-17T08:53:20Z</time>
      </trkpt>
      <trkpt lat="41.5279940" lon="-8.7804880">
        <ele>2.4</ele>
        <time>2021-05-17T08:53:21Z</time>
      </trkpt>
      <trkpt lat="41.5279970" lon="-8.7804970">
        <ele>2.4</ele>
        <time>2021-05-17T08:53:22Z</time>
      </trkpt>
      <trkpt lat="41.5280120" lon="-8.7805070">
        <ele>2.4</ele>
        <time>2021-05-17T08:53:23Z</time>
      </trkpt>
      <trkpt lat="41.5280190" lon="-8.7805240">
        <ele>2.4</ele>
        <time>2021-05-17T08:53:24Z</time>
      </trkpt>
      <trkpt lat="41.5280430" lon="-8.7805450">
        <ele>2.4</ele>
        <time>2021-05-17T08:53:25Z</time>
      </trkpt>
      <trkpt lat="41.5280490" lon="-8.7805510">
        <ele>2.4</ele>
        <time>2021-05-17T08:53:26Z</time>
      </trkpt>
      <trkpt lat="41.5280590" lon="-8.7805580">
        <ele>2.4</ele>
        <time>2021-05-17T08:53:27Z</time>
      </trkpt>
      <trkpt lat="41.5280660" lon="-8.7805620">
        <ele>2.4</ele>
        <time>2021-05-17T08:53:28Z</time>
      </trkpt>
      <trkpt lat="41.5280720" lon="-8.7805730">
        <ele>2.4</ele>
        <time>2021-05-17T08:53:29Z</time>
      </trkpt>
      <trkpt lat="41.5280850" lon="-8.7805790">
        <ele>2.4</ele>
        <time>2021-05-17T08:53:30Z</time>
      </trkpt>
      <trkpt lat="41.5280940" lon="-8.7805870">
        <ele>2.4</ele>
        <time>2021-05-17T08:53:31Z</time>
      </trkpt>
      <trkpt lat="41.5281010" lon="-8.7806020">
        <ele>2.4</ele>
        <time>2021-05-17T08:53:32Z</time>
      </trkpt>
      <trkpt lat="41.5281160" lon="-8.7806180">
        <ele>2.4</ele>
        <time>2021-05-17T08:53:33Z</time>
      </trkpt>
      <trkpt lat="41.5281210" lon="-8.7806290">
        <ele>2.4</ele>
        <time>2021-05-17T08:53:34Z</time>
      </trkpt>
      <trkpt lat="41.5281310" lon="-8.7806480">
        <ele>2.4</ele>
        <time>2021-05-17T08:53:35Z</time>
      </trkpt>
      <trkpt lat="41.5281400" lon="-8.7806650">
        <ele>2.4</ele>
        <time>2021-05-17T08:53:36Z</time>
      </trkpt>
      <trkpt lat="41.5281440" lon="-8.7806760">
        <ele>2.4</ele>
        <time>2021-05-17T08:53:37Z</time>
      </trkpt>
      <trkpt lat="41.5281510" lon="-8.7806870">
        <ele>2.4</ele>
        <time>2021-05-17T08:53:38Z</time>
      </trkpt>
      <trkpt lat="41.5281670" lon="-8.7806960">
        <ele>2.4</ele>
        <time>2021-05-17T08:53:39Z</time>
      </trkpt>
      <trkpt lat="41.5281770" lon="-8.7807090">
        <ele>2.4</ele>
        <time>2021-05-17T08:53:40Z</time>
      </trkpt>
      <trkpt lat="41.5281890" lon="-8.7807300">
        <ele>2.4</ele>
        <time>2021-05-17T08:53:41Z</time>
      </trkpt>
      <trkpt lat="41.5282140" lon="-8.7807520">
        <ele>2.4</ele>
        <time>2021-05-17T08:53:42Z</time>
      </trkpt>
      <trkpt lat="41.5282180" lon="-8.7807600">
        <ele>2.4</ele>
        <time>2021-05-17T08:53:43Z</time>
      </trkpt>
      <trkpt lat="41.5282260" lon="-8.7807800">
        <ele>2.4</ele>
        <time>2021-05-17T08:53:44Z</time>
      </trkpt>
      <trkpt lat="41.5282350" lon="-8.7807950">
        <ele>2.4</ele>
        <time>2021-05-17T08:53:45Z</time>
      </trkpt>
      <trkpt lat="41.5282460" lon="-8.7808070">
        <ele>2.4</ele>
        <time>2021-05-17T08:53:46Z</time>
      </trkpt>
      <trkpt lat="41.5282550" lon="-8.7808250">
        <ele>2.4</ele>
        <time>2021-05-17T08:53:47Z</time>
      </trkpt>
      <trkpt lat="41.5282670" lon="-8.7808380">
        <ele>2.4</ele>
        <time>2021-05-17T08:53:48Z</time>
      </trkpt>
      <trkpt lat="41.5282770" lon="-8.7808540">
        <ele>2.4</ele>
        <time>2021-05-17T08:53:49Z</time>
      </trkpt>
      <trkpt lat="41.5282890" lon="-8.7808710">
        <ele>2.4</ele>
        <time>2021-05-17T08:53:50Z</time>
      </trkpt>
      <trkpt lat="41.5283000" lon="-8.7808840">
        <ele>2.4</ele>
        <time>2021-05-17T08:53:51Z</time>
      </trkpt>
      <trkpt lat="41.5283110" lon="-8.7809000">
        <ele>2.4</ele>
        <time>2021-05-17T08:53:52Z</time>
      </trkpt>
      <trkpt lat="41.5283210" lon="-8.7809140">
        <ele>2.4</ele>
        <time>2021-05-17T08:53:53Z</time>
      </trkpt>
      <trkpt lat="41.5283350" lon="-8.7809250">
        <ele>2.4</ele>
        <time>2021-05-17T08:53:54Z</time>
      </trkpt>
      <trkpt lat="41.5283440" lon="-8.7809400">
        <ele>2.4</ele>
        <time>2021-05-17T08:53:55Z</time>
      </trkpt>
      <trkpt lat="41.5283530" lon="-8.7809520">
        <ele>2.4</ele>
        <time>2021-05-17T08:53:56Z</time>
      </trkpt>
      <trkpt lat="41.5283640" lon="-8.7809680">
        <ele>2.4</ele>
        <time>2021-05-17T08:53:57Z</time>
      </trkpt>
      <trkpt lat="41.5283730" lon="-8.7809830">
        <ele>2.4</ele>
        <time>2021-05-17T08:53:58Z</time>
      </trkpt>
      <trkpt lat="41.5283820" lon="-8.7809960">
        <ele>2.4</ele>
        <time>2021-05-17T08:53:59Z</time>
      </trkpt>
      <trkpt lat="41.5283920" lon="-8.7810080">
        <ele>2.4</ele>
        <time>2021-05-17T08:54:00Z</time>
      </trkpt>
      <trkpt lat="41.5284040" lon="-8.7810180">
        <ele>2.4</ele>
        <time>2021-05-17T08:54:01Z</time>
      </trkpt>
      <trkpt lat="41.5284110" lon="-8.7810340">
        <ele>2.4</ele>
        <time>2021-05-17T08:54:02Z</time>
      </trkpt>
      <trkpt lat="41.5284250" lon="-8.7810430">
        <ele>2.4</ele>
        <time>2021-05-17T08:54:03Z</time>
      </trkpt>
      <trkpt lat="41.5284390" lon="-8.7810630">
        <ele>2.4</ele>
        <time>2021-05-17T08:54:04Z</time>
      </trkpt>
      <trkpt lat="41.5284450" lon="-8.7810700">
        <ele>2.4</ele>
        <time>2021-05-17T08:54:05Z</time>
      </trkpt>
      <trkpt lat="41.5284520" lon="-8.7810760">
        <ele>2.4</ele>
        <time>2021-05-17T08:54:06Z</time>
      </trkpt>
      <trkpt lat="41.5284660" lon="-8.7810860">
        <ele>2.4</ele>
        <time>2021-05-17T08:54:07Z</time>
      </trkpt>
      <trkpt lat="41.5284790" lon="-8.7810980">
        <ele>2.4</ele>
        <time>2021-05-17T08:54:08Z</time>
      </trkpt>
      <trkpt lat="41.5284900" lon="-8.7811110">
        <ele>2.4</ele>
        <time>2021-05-17T08:54:09Z</time>
      </trkpt>
      <trkpt lat="41.5285040" lon="-8.7811210">
        <ele>2.4</ele>
        <time>2021-05-17T08:54:10Z</time>
      </trkpt>
      <trkpt lat="41.5285110" lon="-8.7811370">
        <ele>2.4</ele>
        <time>2021-05-17T08:54:11Z</time>
      </trkpt>
      <trkpt lat="41.5285270" lon="-8.7811440">
        <ele>2.4</ele>
        <time>2021-05-17T08:54:12Z</time>
      </trkpt>
      <trkpt lat="41.5285430" lon="-8.7811630">
        <ele>2.4</ele>
        <time>2021-05-17T08:54:13Z</time>
      </trkpt>
      <trkpt lat="41.5285490" lon="-8.7811720">
        <ele>2.4</ele>
        <time>2021-05-17T08:54:14Z</time>
      </trkpt>
      <trkpt lat="41.5285550" lon="-8.7811820">
        <ele>2.4</ele>
        <time>2021-05-17T08:54:15Z</time>
      </trkpt>
      <trkpt lat="41.5285630" lon="-8.7811970">
        <ele>2.5</ele>
        <time>2021-05-17T08:54:16Z</time>
      </trkpt>
      <trkpt lat="41.5285740" lon="-8.7812090">
        <ele>2.5</ele>
        <time>2021-05-17T08:54:17Z</time>
      </trkpt>
      <trkpt lat="41.5285920" lon="-8.7812300">
        <ele>2.5</ele>
        <time>2021-05-17T08:54:18Z</time>
      </trkpt>
      <trkpt lat="41.5285980" lon="-8.7812370">
        <ele>2.5</ele>
        <time>2021-05-17T08:54:19Z</time>
      </trkpt>
      <trkpt lat="41.5286050" lon="-8.7812450">
        <ele>2.5</ele>
        <time>2021-05-17T08:54:20Z</time>
      </trkpt>
      <trkpt lat="41.5286170" lon="-8.7812590">
        <ele>2.5</ele>
        <time>2021-05-17T08:54:21Z</time>
      </trkpt>
      <trkpt lat="41.5286240" lon="-8.7812720">
        <ele>2.5</ele>
        <time>2021-05-17T08:54:22Z</time>
      </trkpt>
      <trkpt lat="41.5286390" lon="-8.7812830">
        <ele>2.5</ele>
        <time>2021-05-17T08:54:23Z</time>
      </trkpt>
      <trkpt lat="41.5286510" lon="-8.7812910">
        <ele>2.5</ele>
        <time>2021-05-17T08:54:24Z</time>
      </trkpt>
      <trkpt lat="41.5286600" lon="-8.7813060">
        <ele>2.5</ele>
        <time>2021-05-17T08:54:25Z</time>
      </trkpt>
      <trkpt lat="41.5286720" lon="-8.7813130">
        <ele>2.5</ele>
        <time>2021-05-17T08:54:26Z</time>
      </trkpt>
      <trkpt lat="41.5286840" lon="-8.7813260">
        <ele>2.4</ele>
        <time>2021-05-17T08:54:27Z</time>
      </trkpt>
      <trkpt lat="41.5286950" lon="-8.7813380">
        <ele>2.4</ele>
        <time>2021-05-17T08:54:28Z</time>
      </trkpt>
      <trkpt lat="41.5287100" lon="-8.7813480">
        <ele>2.4</ele>
        <time>2021-05-17T08:54:29Z</time>
      </trkpt>
      <trkpt lat="41.5287200" lon="-8.7813600">
        <ele>2.4</ele>
        <time>2021-05-17T08:54:30Z</time>
      </trkpt>
      <trkpt lat="41.5287350" lon="-8.7813690">
        <ele>2.4</ele>
        <time>2021-05-17T08:54:31Z</time>
      </trkpt>
      <trkpt lat="41.5287440" lon="-8.7813810">
        <ele>2.4</ele>
        <time>2021-05-17T08:54:32Z</time>
      </trkpt>
      <trkpt lat="41.5287540" lon="-8.7813930">
        <ele>2.4</ele>
        <time>2021-05-17T08:54:33Z</time>
      </trkpt>
      <trkpt lat="41.5287670" lon="-8.7814030">
        <ele>2.4</ele>
        <time>2021-05-17T08:54:34Z</time>
      </trkpt>
      <trkpt lat="41.5287800" lon="-8.7814120">
        <ele>2.4</ele>
        <time>2021-05-17T08:54:35Z</time>
      </trkpt>
      <trkpt lat="41.5287920" lon="-8.7814250">
        <ele>2.4</ele>
        <time>2021-05-17T08:54:36Z</time>
      </trkpt>
      <trkpt lat="41.5288060" lon="-8.7814370">
        <ele>2.4</ele>
        <time>2021-05-17T08:54:37Z</time>
      </trkpt>
      <trkpt lat="41.5288200" lon="-8.7814420">
        <ele>2.4</ele>
        <time>2021-05-17T08:54:38Z</time>
      </trkpt>
      <trkpt lat="41.5288260" lon="-8.7814580">
        <ele>2.4</ele>
        <time>2021-05-17T08:54:39Z</time>
      </trkpt>
      <trkpt lat="41.5288350" lon="-8.7814740">
        <ele>2.4</ele>
        <time>2021-05-17T08:54:40Z</time>
      </trkpt>
      <trkpt lat="41.5288450" lon="-8.7814870">
        <ele>2.4</ele>
        <time>2021-05-17T08:54:41Z</time>
      </trkpt>
      <trkpt lat="41.5288600" lon="-8.7814940">
        <ele>2.4</ele>
        <time>2021-05-17T08:54:42Z</time>
      </trkpt>
      <trkpt lat="41.5288710" lon="-8.7815050">
        <ele>2.4</ele>
        <time>2021-05-17T08:54:43Z</time>
      </trkpt>
      <trkpt lat="41.5288840" lon="-8.7815160">
        <ele>2.4</ele>
        <time>2021-05-17T08:54:44Z</time>
      </trkpt>
      <trkpt lat="41.5288990" lon="-8.7815340">
        <ele>2.4</ele>
        <time>2021-05-17T08:54:45Z</time>
      </trkpt>
      <trkpt lat="41.5289070" lon="-8.7815400">
        <ele>2.4</ele>
        <time>2021-05-17T08:54:46Z</time>
      </trkpt>
      <trkpt lat="41.5289150" lon="-8.7815470">
        <ele>2.4</ele>
        <time>2021-05-17T08:54:47Z</time>
      </trkpt>
      <trkpt lat="41.5289280" lon="-8.7815590">
        <ele>2.4</ele>
        <time>2021-05-17T08:54:48Z</time>
      </trkpt>
      <trkpt lat="41.5289420" lon="-8.7815610">
        <ele>2.4</ele>
        <time>2021-05-17T08:54:49Z</time>
      </trkpt>
      <trkpt lat="41.5289520" lon="-8.7815760">
        <ele>2.4</ele>
        <time>2021-05-17T08:54:50Z</time>
      </trkpt>
      <trkpt lat="41.5289630" lon="-8.7815850">
        <ele>2.4</ele>
        <time>2021-05-17T08:54:51Z</time>
      </trkpt>
      <trkpt lat="41.5289770" lon="-8.7816070">
        <ele>2.4</ele>
        <time>2021-05-17T08:54:52Z</time>
      </trkpt>
      <trkpt lat="41.5289850" lon="-8.7816130">
        <ele>2.4</ele>
        <time>2021-05-17T08:54:53Z</time>
      </trkpt>
      <trkpt lat="41.5289930" lon="-8.7816200">
        <ele>2.4</ele>
        <time>2021-05-17T08:54:54Z</time>
      </trkpt>
      <trkpt lat="41.5290060" lon="-8.7816300">
        <ele>2.4</ele>
        <time>2021-05-17T08:54:55Z</time>
      </trkpt>
      <trkpt lat="41.5290200" lon="-8.7816380">
        <ele>2.4</ele>
        <time>2021-05-17T08:54:56Z</time>
      </trkpt>
      <trkpt lat="41.5290360" lon="-8.7816550">
        <ele>2.4</ele>
        <time>2021-05-17T08:54:57Z</time>
      </trkpt>
      <trkpt lat="41.5290460" lon="-8.7816590">
        <ele>2.4</ele>
        <time>2021-05-17T08:54:58Z</time>
      </trkpt>
      <trkpt lat="41.5290550" lon="-8.7816620">
        <ele>2.4</ele>
        <time>2021-05-17T08:54:59Z</time>
      </trkpt>
      <trkpt lat="41.5290610" lon="-8.7816720">
        <ele>2.4</ele>
        <time>2021-05-17T08:55:00Z</time>
      </trkpt>
      <trkpt lat="41.5290740" lon="-8.7816810">
        <ele>2.4</ele>
        <time>2021-05-17T08:55:01Z</time>
      </trkpt>
      <trkpt lat="41.5290790" lon="-8.7816960">
        <ele>2.4</ele>
        <time>2021-05-17T08:55:02Z</time>
      </trkpt>
      <trkpt lat="41.5290880" lon="-8.7817050">
        <ele>2.4</ele>
        <time>2021-05-17T08:55:03Z</time>
      </trkpt>
      <trkpt lat="41.5290950" lon="-8.7817160">
        <ele>2.4</ele>
        <time>2021-05-17T08:55:04Z</time>
      </trkpt>
      <trkpt lat="41.5291060" lon="-8.7817210">
        <ele>2.4</ele>
        <time>2021-05-17T08:55:05Z</time>
      </trkpt>
      <trkpt lat="41.5291130" lon="-8.7817280">
        <ele>2.4</ele>
        <time>2021-05-17T08:55:06Z</time>
      </trkpt>
      <trkpt lat="41.5291320" lon="-8.7817330">
        <ele>2.4</ele>
        <time>2021-05-17T08:55:07Z</time>
      </trkpt>
      <trkpt lat="41.5291390" lon="-8.7817390">
        <ele>2.4</ele>
        <time>2021-05-17T08:55:08Z</time>
      </trkpt>
      <trkpt lat="41.5291610" lon="-8.7817500">
        <ele>2.4</ele>
        <time>2021-05-17T08:55:09Z</time>
      </trkpt>
      <trkpt lat="41.5291680" lon="-8.7817550">
        <ele>2.4</ele>
        <time>2021-05-17T08:55:10Z</time>
      </trkpt>
      <trkpt lat="41.5291740" lon="-8.7817600">
        <ele>2.4</ele>
        <time>2021-05-17T08:55:11Z</time>
      </trkpt>
      <trkpt lat="41.5291900" lon="-8.7817680">
        <ele>2.4</ele>
        <time>2021-05-17T08:55:12Z</time>
      </trkpt>
      <trkpt lat="41.5292050" lon="-8.7817800">
        <ele>2.4</ele>
        <time>2021-05-17T08:55:13Z</time>
      </trkpt>
      <trkpt lat="41.5292190" lon="-8.7817900">
        <ele>2.4</ele>
        <time>2021-05-17T08:55:14Z</time>
      </trkpt>
      <trkpt lat="41.5292320" lon="-8.7817990">
        <ele>2.4</ele>
        <time>2021-05-17T08:55:15Z</time>
      </trkpt>
      <trkpt lat="41.5292410" lon="-8.7818120">
        <ele>2.4</ele>
        <time>2021-05-17T08:55:16Z</time>
      </trkpt>
      <trkpt lat="41.5292540" lon="-8.7818220">
        <ele>2.4</ele>
        <time>2021-05-17T08:55:17Z</time>
      </trkpt>
      <trkpt lat="41.5292700" lon="-8.7818370">
        <ele>2.4</ele>
        <time>2021-05-17T08:55:18Z</time>
      </trkpt>
      <trkpt lat="41.5292780" lon="-8.7818410">
        <ele>2.4</ele>
        <time>2021-05-17T08:55:19Z</time>
      </trkpt>
      <trkpt lat="41.5292850" lon="-8.7818450">
        <ele>2.4</ele>
        <time>2021-05-17T08:55:20Z</time>
      </trkpt>
      <trkpt lat="41.5292910" lon="-8.7818480">
        <ele>2.4</ele>
        <time>2021-05-17T08:55:21Z</time>
      </trkpt>
      <trkpt lat="41.5293030" lon="-8.7818600">
        <ele>2.4</ele>
        <time>2021-05-17T08:55:22Z</time>
      </trkpt>
      <trkpt lat="41.5293170" lon="-8.7818670">
        <ele>2.4</ele>
        <time>2021-05-17T08:55:23Z</time>
      </trkpt>
      <trkpt lat="41.5293270" lon="-8.7818740">
        <ele>2.4</ele>
        <time>2021-05-17T08:55:24Z</time>
      </trkpt>
      <trkpt lat="41.5293490" lon="-8.7818780">
        <ele>2.4</ele>
        <time>2021-05-17T08:55:25Z</time>
      </trkpt>
      <trkpt lat="41.5293610" lon="-8.7818890">
        <ele>2.4</ele>
        <time>2021-05-17T08:55:26Z</time>
      </trkpt>
      <trkpt lat="41.5293730" lon="-8.7818980">
        <ele>2.4</ele>
        <time>2021-05-17T08:55:27Z</time>
      </trkpt>
      <trkpt lat="41.5293920" lon="-8.7819030">
        <ele>2.4</ele>
        <time>2021-05-17T08:55:28Z</time>
      </trkpt>
      <trkpt lat="41.5294070" lon="-8.7819100">
        <ele>2.4</ele>
        <time>2021-05-17T08:55:29Z</time>
      </trkpt>
      <trkpt lat="41.5294210" lon="-8.7819290">
        <ele>2.4</ele>
        <time>2021-05-17T08:55:30Z</time>
      </trkpt>
      <trkpt lat="41.5294290" lon="-8.7819350">
        <ele>2.4</ele>
        <time>2021-05-17T08:55:31Z</time>
      </trkpt>
      <trkpt lat="41.5294360" lon="-8.7819420">
        <ele>2.4</ele>
        <time>2021-05-17T08:55:32Z</time>
      </trkpt>
      <trkpt lat="41.5294510" lon="-8.7819570">
        <ele>2.4</ele>
        <time>2021-05-17T08:55:33Z</time>
      </trkpt>
      <trkpt lat="41.5294630" lon="-8.7819630">
        <ele>2.4</ele>
        <time>2021-05-17T08:55:34Z</time>
      </trkpt>
      <trkpt lat="41.5294740" lon="-8.7819700">
        <ele>2.4</ele>
        <time>2021-05-17T08:55:35Z</time>
      </trkpt>
      <trkpt lat="41.5294910" lon="-8.7819750">
        <ele>2.4</ele>
        <time>2021-05-17T08:55:36Z</time>
      </trkpt>
      <trkpt lat="41.5295020" lon="-8.7819880">
        <ele>2.4</ele>
        <time>2021-05-17T08:55:37Z</time>
      </trkpt>
      <trkpt lat="41.5295140" lon="-8.7819920">
        <ele>2.4</ele>
        <time>2021-05-17T08:55:38Z</time>
      </trkpt>
      <trkpt lat="41.5295340" lon="-8.7819940">
        <ele>2.4</ele>
        <time>2021-05-17T08:55:39Z</time>
      </trkpt>
      <trkpt lat="41.5295530" lon="-8.7820060">
        <ele>2.4</ele>
        <time>2021-05-17T08:55:40Z</time>
      </trkpt>
      <trkpt lat="41.5295620" lon="-8.7820120">
        <ele>2.4</ele>
        <time>2021-05-17T08:55:41Z</time>
      </trkpt>
      <trkpt lat="41.5295700" lon="-8.7820180">
        <ele>2.4</ele>
        <time>2021-05-17T08:55:42Z</time>
      </trkpt>
      <trkpt lat="41.5295840" lon="-8.7820280">
        <ele>2.4</ele>
        <time>2021-05-17T08:55:43Z</time>
      </trkpt>
      <trkpt lat="41.5295940" lon="-8.7820400">
        <ele>2.4</ele>
        <time>2021-05-17T08:55:44Z</time>
      </trkpt>
      <trkpt lat="41.5296030" lon="-8.7820470">
        <ele>2.4</ele>
        <time>2021-05-17T08:55:45Z</time>
      </trkpt>
      <trkpt lat="41.5296170" lon="-8.7820460">
        <ele>2.4</ele>
        <time>2021-05-17T08:55:46Z</time>
      </trkpt>
      <trkpt lat="41.5296250" lon="-8.7820530">
        <ele>2.4</ele>
        <time>2021-05-17T08:55:47Z</time>
      </trkpt>
      <trkpt lat="41.5296390" lon="-8.7820640">
        <ele>2.4</ele>
        <time>2021-05-17T08:55:48Z</time>
      </trkpt>
      <trkpt lat="41.5296530" lon="-8.7820690">
        <ele>2.4</ele>
        <time>2021-05-17T08:55:49Z</time>
      </trkpt>
      <trkpt lat="41.5296650" lon="-8.7820720">
        <ele>2.4</ele>
        <time>2021-05-17T08:55:50Z</time>
      </trkpt>
      <trkpt lat="41.5296770" lon="-8.7820730">
        <ele>2.4</ele>
        <time>2021-05-17T08:55:51Z</time>
      </trkpt>
      <trkpt lat="41.5296880" lon="-8.7820780">
        <ele>2.4</ele>
        <time>2021-05-17T08:55:52Z</time>
      </trkpt>
      <trkpt lat="41.5296990" lon="-8.7820800">
        <ele>2.4</ele>
        <time>2021-05-17T08:55:53Z</time>
      </trkpt>
      <trkpt lat="41.5297070" lon="-8.7820840">
        <ele>2.4</ele>
        <time>2021-05-17T08:55:54Z</time>
      </trkpt>
      <trkpt lat="41.5297200" lon="-8.7820890">
        <ele>2.4</ele>
        <time>2021-05-17T08:55:55Z</time>
      </trkpt>
      <trkpt lat="41.5297340" lon="-8.7820960">
        <ele>2.4</ele>
        <time>2021-05-17T08:55:56Z</time>
      </trkpt>
      <trkpt lat="41.5297480" lon="-8.7821050">
        <ele>2.4</ele>
        <time>2021-05-17T08:55:57Z</time>
      </trkpt>
      <trkpt lat="41.5297600" lon="-8.7821130">
        <ele>2.4</ele>
        <time>2021-05-17T08:55:58Z</time>
      </trkpt>
      <trkpt lat="41.5297790" lon="-8.7821110">
        <ele>2.4</ele>
        <time>2021-05-17T08:55:59Z</time>
      </trkpt>
      <trkpt lat="41.5297920" lon="-8.7821210">
        <ele>2.4</ele>
        <time>2021-05-17T08:56:00Z</time>
      </trkpt>
      <trkpt lat="41.5298020" lon="-8.7821300">
        <ele>2.4</ele>
        <time>2021-05-17T08:56:01Z</time>
      </trkpt>
      <trkpt lat="41.5298130" lon="-8.7821330">
        <ele>2.4</ele>
        <time>2021-05-17T08:56:02Z</time>
      </trkpt>
      <trkpt lat="41.5298210" lon="-8.7821420">
        <ele>2.4</ele>
        <time>2021-05-17T08:56:03Z</time>
      </trkpt>
      <trkpt lat="41.5298330" lon="-8.7821510">
        <ele>2.4</ele>
        <time>2021-05-17T08:56:04Z</time>
      </trkpt>
      <trkpt lat="41.5298450" lon="-8.7821560">
        <ele>2.4</ele>
        <time>2021-05-17T08:56:05Z</time>
      </trkpt>
      <trkpt lat="41.5298620" lon="-8.7821600">
        <ele>2.4</ele>
        <time>2021-05-17T08:56:06Z</time>
      </trkpt>
      <trkpt lat="41.5298760" lon="-8.7821640">
        <ele>2.4</ele>
        <time>2021-05-17T08:56:07Z</time>
      </trkpt>
      <trkpt lat="41.5298920" lon="-8.7821710">
        <ele>2.4</ele>
        <time>2021-05-17T08:56:08Z</time>
      </trkpt>
      <trkpt lat="41.5299060" lon="-8.7821790">
        <ele>2.4</ele>
        <time>2021-05-17T08:56:09Z</time>
      </trkpt>
      <trkpt lat="41.5299200" lon="-8.7821750">
        <ele>2.4</ele>
        <time>2021-05-17T08:56:10Z</time>
      </trkpt>
      <trkpt lat="41.5299310" lon="-8.7821570">
        <ele>2.4</ele>
        <time>2021-05-17T08:56:11Z</time>
      </trkpt>
      <trkpt lat="41.5299330" lon="-8.7821400">
        <ele>2.4</ele>
        <time>2021-05-17T08:56:12Z</time>
      </trkpt>
      <trkpt lat="41.5299310" lon="-8.7821260">
        <ele>2.4</ele>
        <time>2021-05-17T08:56:13Z</time>
      </trkpt>
      <trkpt lat="41.5299350" lon="-8.7821190">
        <ele>2.4</ele>
        <time>2021-05-17T08:56:14Z</time>
      </trkpt>
      <trkpt lat="41.5299390" lon="-8.7821070">
        <ele>2.4</ele>
        <time>2021-05-17T08:56:15Z</time>
      </trkpt>
      <trkpt lat="41.5299410" lon="-8.7821020">
        <ele>2.4</ele>
        <time>2021-05-17T08:56:16Z</time>
      </trkpt>
      <trkpt lat="41.5299620" lon="-8.7820950">
        <ele>2.4</ele>
        <time>2021-05-17T08:56:17Z</time>
      </trkpt>
      <trkpt lat="41.5299720" lon="-8.7820900">
        <ele>2.4</ele>
        <time>2021-05-17T08:56:18Z</time>
      </trkpt>
      <trkpt lat="41.5299810" lon="-8.7820860">
        <ele>2.4</ele>
        <time>2021-05-17T08:56:19Z</time>
      </trkpt>
      <trkpt lat="41.5299900" lon="-8.7820800">
        <ele>2.4</ele>
        <time>2021-05-17T08:56:20Z</time>
      </trkpt>
      <trkpt lat="41.5300000" lon="-8.7820730">
        <ele>2.4</ele>
        <time>2021-05-17T08:56:21Z</time>
      </trkpt>
      <trkpt lat="41.5300120" lon="-8.7820750">
        <ele>2.4</ele>
        <time>2021-05-17T08:56:22Z</time>
      </trkpt>
      <trkpt lat="41.5300190" lon="-8.7820780">
        <ele>2.4</ele>
        <time>2021-05-17T08:56:23Z</time>
      </trkpt>
      <trkpt lat="41.5300330" lon="-8.7820780">
        <ele>2.4</ele>
        <time>2021-05-17T08:56:24Z</time>
      </trkpt>
      <trkpt lat="41.5300480" lon="-8.7820760">
        <ele>2.4</ele>
        <time>2021-05-17T08:56:25Z</time>
      </trkpt>
      <trkpt lat="41.5300600" lon="-8.7820700">
        <ele>2.4</ele>
        <time>2021-05-17T08:56:26Z</time>
      </trkpt>
      <trkpt lat="41.5300750" lon="-8.7820650">
        <ele>2.4</ele>
        <time>2021-05-17T08:56:27Z</time>
      </trkpt>
      <trkpt lat="41.5300830" lon="-8.7820630">
        <ele>2.4</ele>
        <time>2021-05-17T08:56:28Z</time>
      </trkpt>
      <trkpt lat="41.5300980" lon="-8.7820660">
        <ele>2.4</ele>
        <time>2021-05-17T08:56:29Z</time>
      </trkpt>
      <trkpt lat="41.5301050" lon="-8.7820610">
        <ele>2.3</ele>
        <time>2021-05-17T08:56:30Z</time>
      </trkpt>
      <trkpt lat="41.5301170" lon="-8.7820600">
        <ele>2.3</ele>
        <time>2021-05-17T08:56:31Z</time>
      </trkpt>
      <trkpt lat="41.5301270" lon="-8.7820600">
        <ele>2.3</ele>
        <time>2021-05-17T08:56:32Z</time>
      </trkpt>
      <trkpt lat="41.5301370" lon="-8.7820560">
        <ele>2.3</ele>
        <time>2021-05-17T08:56:33Z</time>
      </trkpt>
      <trkpt lat="41.5301440" lon="-8.7820550">
        <ele>2.3</ele>
        <time>2021-05-17T08:56:34Z</time>
      </trkpt>
      <trkpt lat="41.5301540" lon="-8.7820540">
        <ele>2.3</ele>
        <time>2021-05-17T08:56:35Z</time>
      </trkpt>
      <trkpt lat="41.5301600" lon="-8.7820660">
        <ele>2.3</ele>
        <time>2021-05-17T08:56:36Z</time>
      </trkpt>
      <trkpt lat="41.5301680" lon="-8.7820550">
        <ele>2.3</ele>
        <time>2021-05-17T08:56:37Z</time>
      </trkpt>
      <trkpt lat="41.5301720" lon="-8.7820570">
        <ele>2.3</ele>
        <time>2021-05-17T08:56:38Z</time>
      </trkpt>
      <trkpt lat="41.5301720" lon="-8.7820550">
        <ele>2.3</ele>
        <time>2021-05-17T08:56:39Z</time>
      </trkpt>
      <trkpt lat="41.5301720" lon="-8.7820560">
        <ele>2.3</ele>
        <time>2021-05-17T08:56:40Z</time>
      </trkpt>
      <trkpt lat="41.5301730" lon="-8.7820580">
        <ele>2.3</ele>
        <time>2021-05-17T08:56:41Z</time>
      </trkpt>
      <trkpt lat="41.5301700" lon="-8.7820630">
        <ele>2.3</ele>
        <time>2021-05-17T08:56:42Z</time>
      </trkpt>
      <trkpt lat="41.5301690" lon="-8.7820650">
        <ele>2.3</ele>
        <time>2021-05-17T08:56:43Z</time>
      </trkpt>
      <trkpt lat="41.5301670" lon="-8.7820590">
        <ele>2.3</ele>
        <time>2021-05-17T08:56:44Z</time>
      </trkpt>
      <trkpt lat="41.5301660" lon="-8.7820450">
        <ele>2.3</ele>
        <time>2021-05-17T08:56:45Z</time>
      </trkpt>
      <trkpt lat="41.5301610" lon="-8.7820490">
        <ele>2.3</ele>
        <time>2021-05-17T08:56:46Z</time>
      </trkpt>
      <trkpt lat="41.5301690" lon="-8.7820430">
        <ele>2.3</ele>
        <time>2021-05-17T08:56:47Z</time>
      </trkpt>
      <trkpt lat="41.5301700" lon="-8.7820400">
        <ele>2.3</ele>
        <time>2021-05-17T08:56:48Z</time>
      </trkpt>
      <trkpt lat="41.5301710" lon="-8.7820370">
        <ele>2.3</ele>
        <time>2021-05-17T08:56:49Z</time>
      </trkpt>
      <trkpt lat="41.5301740" lon="-8.7820320">
        <ele>2.3</ele>
        <time>2021-05-17T08:56:50Z</time>
      </trkpt>
      <trkpt lat="41.5301700" lon="-8.7820240">
        <ele>2.3</ele>
        <time>2021-05-17T08:56:51Z</time>
      </trkpt>
      <trkpt lat="41.5301690" lon="-8.7820190">
        <ele>2.3</ele>
        <time>2021-05-17T08:56:52Z</time>
      </trkpt>
      <trkpt lat="41.5301640" lon="-8.7820120">
        <ele>2.3</ele>
        <time>2021-05-17T08:56:53Z</time>
      </trkpt>
      <trkpt lat="41.5301550" lon="-8.7819970">
        <ele>2.3</ele>
        <time>2021-05-17T08:56:54Z</time>
      </trkpt>
      <trkpt lat="41.5301500" lon="-8.7819800">
        <ele>2.3</ele>
        <time>2021-05-17T08:56:55Z</time>
      </trkpt>
      <trkpt lat="41.5301500" lon="-8.7819790">
        <ele>2.3</ele>
        <time>2021-05-17T08:56:56Z</time>
      </trkpt>
      <trkpt lat="41.5301460" lon="-8.7819800">
        <ele>2.3</ele>
        <time>2021-05-17T08:56:57Z</time>
      </trkpt>
      <trkpt lat="41.5301520" lon="-8.7819790">
        <ele>2.3</ele>
        <time>2021-05-17T08:56:58Z</time>
      </trkpt>
      <trkpt lat="41.5301260" lon="-8.7820060">
        <ele>2.3</ele>
        <time>2021-05-17T08:56:59Z</time>
      </trkpt>
      <trkpt lat="41.5301730" lon="-8.7820000">
        <ele>2.3</ele>
        <time>2021-05-17T08:57:00Z</time>
      </trkpt>
      <trkpt lat="41.5301930" lon="-8.7820020">
        <ele>2.3</ele>
        <time>2021-05-17T08:57:01Z</time>
      </trkpt>
      <trkpt lat="41.5302100" lon="-8.7820140">
        <ele>2.3</ele>
        <time>2021-05-17T08:57:02Z</time>
      </trkpt>
      <trkpt lat="41.5302230" lon="-8.7820230">
        <ele>2.3</ele>
        <time>2021-05-17T08:57:03Z</time>
      </trkpt>
      <trkpt lat="41.5302360" lon="-8.7820350">
        <ele>2.3</ele>
        <time>2021-05-17T08:57:04Z</time>
      </trkpt>
      <trkpt lat="41.5302490" lon="-8.7820460">
        <ele>2.3</ele>
        <time>2021-05-17T08:57:05Z</time>
      </trkpt>
      <trkpt lat="41.5302630" lon="-8.7820570">
        <ele>2.3</ele>
        <time>2021-05-17T08:57:06Z</time>
      </trkpt>
      <trkpt lat="41.5302710" lon="-8.7820670">
        <ele>2.3</ele>
        <time>2021-05-17T08:57:07Z</time>
      </trkpt>
      <trkpt lat="41.5302790" lon="-8.7820750">
        <ele>2.3</ele>
        <time>2021-05-17T08:57:08Z</time>
      </trkpt>
      <trkpt lat="41.5302900" lon="-8.7820840">
        <ele>2.3</ele>
        <time>2021-05-17T08:57:09Z</time>
      </trkpt>
      <trkpt lat="41.5303030" lon="-8.7820790">
        <ele>2.3</ele>
        <time>2021-05-17T08:57:10Z</time>
      </trkpt>
      <trkpt lat="41.5303140" lon="-8.7820770">
        <ele>2.3</ele>
        <time>2021-05-17T08:57:11Z</time>
      </trkpt>
      <trkpt lat="41.5303150" lon="-8.7820820">
        <ele>2.3</ele>
        <time>2021-05-17T08:57:12Z</time>
      </trkpt>
      <trkpt lat="41.5303340" lon="-8.7820640">
        <ele>2.3</ele>
        <time>2021-05-17T08:57:13Z</time>
      </trkpt>
      <trkpt lat="41.5303350" lon="-8.7820860">
        <ele>2.3</ele>
        <time>2021-05-17T08:57:14Z</time>
      </trkpt>
      <trkpt lat="41.5303480" lon="-8.7820890">
        <ele>2.3</ele>
        <time>2021-05-17T08:57:15Z</time>
      </trkpt>
      <trkpt lat="41.5303650" lon="-8.7820870">
        <ele>2.3</ele>
        <time>2021-05-17T08:57:16Z</time>
      </trkpt>
      <trkpt lat="41.5304040" lon="-8.7820970">
        <ele>2.3</ele>
        <time>2021-05-17T08:57:17Z</time>
      </trkpt>
      <trkpt lat="41.5304170" lon="-8.7821040">
        <ele>2.3</ele>
        <time>2021-05-17T08:57:18Z</time>
      </trkpt>
      <trkpt lat="41.5304060" lon="-8.7821130">
        <ele>2.3</ele>
        <time>2021-05-17T08:57:19Z</time>
      </trkpt>
      <trkpt lat="41.5303960" lon="-8.7821080">
        <ele>2.3</ele>
        <time>2021-05-17T08:57:20Z</time>
      </trkpt>
      <trkpt lat="41.5303850" lon="-8.7821020">
        <ele>2.3</ele>
        <time>2021-05-17T08:57:21Z</time>
      </trkpt>
      <trkpt lat="41.5303740" lon="-8.7820970">
        <ele>2.3</ele>
        <time>2021-05-17T08:57:22Z</time>
      </trkpt>
      <trkpt lat="41.5303640" lon="-8.7820910">
        <ele>2.3</ele>
        <time>2021-05-17T08:57:23Z</time>
      </trkpt>
      <trkpt lat="41.5303530" lon="-8.7820860">
        <ele>2.3</ele>
        <time>2021-05-17T08:57:24Z</time>
      </trkpt>
      <trkpt lat="41.5303010" lon="-8.7820660">
        <ele>2.3</ele>
        <time>2021-05-17T08:57:25Z</time>
      </trkpt>
      <trkpt lat="41.5303020" lon="-8.7820660">
        <ele>2.3</ele>
        <time>2021-05-17T08:57:26Z</time>
      </trkpt>
      <trkpt lat="41.5302870" lon="-8.7820360">
        <ele>2.3</ele>
        <time>2021-05-17T08:57:27Z</time>
      </trkpt>
      <trkpt lat="41.5302840" lon="-8.7820250">
        <ele>2.3</ele>
        <time>2021-05-17T08:57:28Z</time>
      </trkpt>
      <trkpt lat="41.5302830" lon="-8.7820080">
        <ele>2.3</ele>
        <time>2021-05-17T08:57:29Z</time>
      </trkpt>
      <trkpt lat="41.5302790" lon="-8.7820180">
        <ele>2.3</ele>
        <time>2021-05-17T08:57:30Z</time>
      </trkpt>
      <trkpt lat="41.5302850" lon="-8.7820270">
        <ele>2.3</ele>
        <time>2021-05-17T08:57:31Z</time>
      </trkpt>
      <trkpt lat="41.5302830" lon="-8.7820320">
        <ele>2.3</ele>
        <time>2021-05-17T08:57:32Z</time>
      </trkpt>
      <trkpt lat="41.5302810" lon="-8.7820360">
        <ele>2.3</ele>
        <time>2021-05-17T08:57:33Z</time>
      </trkpt>
      <trkpt lat="41.5302860" lon="-8.7820480">
        <ele>2.3</ele>
        <time>2021-05-17T08:57:34Z</time>
      </trkpt>
      <trkpt lat="41.5302800" lon="-8.7820570">
        <ele>2.3</ele>
        <time>2021-05-17T08:57:35Z</time>
      </trkpt>
      <trkpt lat="41.5302660" lon="-8.7820640">
        <ele>2.3</ele>
        <time>2021-05-17T08:57:36Z</time>
      </trkpt>
      <trkpt lat="41.5302890" lon="-8.7820900">
        <ele>2.3</ele>
        <time>2021-05-17T08:57:37Z</time>
      </trkpt>
      <trkpt lat="41.5302850" lon="-8.7820830">
        <ele>2.3</ele>
        <time>2021-05-17T08:57:38Z</time>
      </trkpt>
      <trkpt lat="41.5302590" lon="-8.7820780">
        <ele>2.3</ele>
        <time>2021-05-17T08:57:39Z</time>
      </trkpt>
      <trkpt lat="41.5302130" lon="-8.7820710">
        <ele>2.3</ele>
        <time>2021-05-17T08:57:40Z</time>
      </trkpt>
      <trkpt lat="41.5302070" lon="-8.7820690">
        <ele>2.3</ele>
        <time>2021-05-17T08:57:41Z</time>
      </trkpt>
      <trkpt lat="41.5301800" lon="-8.7820670">
        <ele>2.3</ele>
        <time>2021-05-17T08:57:42Z</time>
      </trkpt>
      <trkpt lat="41.5301590" lon="-8.7820660">
        <ele>2.3</ele>
        <time>2021-05-17T08:57:43Z</time>
      </trkpt>
      <trkpt lat="41.5301530" lon="-8.7820720">
        <ele>2.3</ele>
        <time>2021-05-17T08:57:44Z</time>
      </trkpt>
      <trkpt lat="41.5301560" lon="-8.7820730">
        <ele>2.3</ele>
        <time>2021-05-17T08:57:45Z</time>
      </trkpt>
      <trkpt lat="41.5301600" lon="-8.7820690">
        <ele>2.3</ele>
        <time>2021-05-17T08:57:46Z</time>
      </trkpt>
      <trkpt lat="41.5301610" lon="-8.7820690">
        <ele>2.3</ele>
        <time>2021-05-17T08:57:47Z</time>
      </trkpt>
      <trkpt lat="41.5301670" lon="-8.7820680">
        <ele>2.3</ele>
        <time>2021-05-17T08:57:48Z</time>
      </trkpt>
      <trkpt lat="41.5301660" lon="-8.7820690">
        <ele>2.3</ele>
        <time>2021-05-17T08:57:49Z</time>
      </trkpt>
      <trkpt lat="41.5301620" lon="-8.7820660">
        <ele>2.3</ele>
        <time>2021-05-17T08:57:50Z</time>
      </trkpt>
      <trkpt lat="41.5301610" lon="-8.7820710">
        <ele>2.3</ele>
        <time>2021-05-17T08:57:51Z</time>
      </trkpt>
      <trkpt lat="41.5301610" lon="-8.7820710">
        <ele>2.3</ele>
        <time>2021-05-17T08:57:52Z</time>
      </trkpt>
      <trkpt lat="41.5301610" lon="-8.7820710">
        <ele>2.3</ele>
        <time>2021-05-17T08:57:53Z</time>
      </trkpt>
      <trkpt lat="41.5301610" lon="-8.7820710">
        <ele>2.3</ele>
        <time>2021-05-17T08:57:54Z</time>
      </trkpt>
      <trkpt lat="41.5301610" lon="-8.7820710">
        <ele>2.3</ele>
        <time>2021-05-17T08:57:55Z</time>
      </trkpt>
      <trkpt lat="41.5301610" lon="-8.7820710">
        <ele>2.3</ele>
        <time>2021-05-17T08:57:56Z</time>
      </trkpt>
      <trkpt lat="41.5301610" lon="-8.7820710">
        <ele>2.3</ele>
        <time>2021-05-17T08:57:57Z</time>
      </trkpt>
      <trkpt lat="41.5301530" lon="-8.7820630">
        <ele>2.3</ele>
        <time>2021-05-17T08:57:58Z</time>
      </trkpt>
      <trkpt lat="41.5301510" lon="-8.7820620">
        <ele>2.3</ele>
        <time>2021-05-17T08:57:59Z</time>
      </trkpt>
      <trkpt lat="41.5301500" lon="-8.7820630">
        <ele>2.3</ele>
        <time>2021-05-17T08:58:00Z</time>
      </trkpt>
      <trkpt lat="41.5301510" lon="-8.7820620">
        <ele>2.3</ele>
        <time>2021-05-17T08:58:01Z</time>
      </trkpt>
      <trkpt lat="41.5301480" lon="-8.7820640">
        <ele>2.3</ele>
        <time>2021-05-17T08:58:02Z</time>
      </trkpt>
      <trkpt lat="41.5301500" lon="-8.7820620">
        <ele>2.3</ele>
        <time>2021-05-17T08:58:03Z</time>
      </trkpt>
      <trkpt lat="41.5301480" lon="-8.7820640">
        <ele>2.3</ele>
        <time>2021-05-17T08:58:04Z</time>
      </trkpt>
      <trkpt lat="41.5301480" lon="-8.7820670">
        <ele>2.3</ele>
        <time>2021-05-17T08:58:05Z</time>
      </trkpt>
      <trkpt lat="41.5301520" lon="-8.7820640">
        <ele>2.3</ele>
        <time>2021-05-17T08:58:06Z</time>
      </trkpt>
      <trkpt lat="41.5301550" lon="-8.7820600">
        <ele>2.3</ele>
        <time>2021-05-17T08:58:07Z</time>
      </trkpt>
      <trkpt lat="41.5301570" lon="-8.7820570">
        <ele>2.3</ele>
        <time>2021-05-17T08:58:08Z</time>
      </trkpt>
      <trkpt lat="41.5301580" lon="-8.7820590">
        <ele>2.3</ele>
        <time>2021-05-17T08:58:09Z</time>
      </trkpt>
      <trkpt lat="41.5301680" lon="-8.7820530">
        <ele>2.3</ele>
        <time>2021-05-17T08:58:10Z</time>
      </trkpt>
      <trkpt lat="41.5301630" lon="-8.7820580">
        <ele>2.3</ele>
        <time>2021-05-17T08:58:11Z</time>
      </trkpt>
      <trkpt lat="41.5301640" lon="-8.7820700">
        <ele>2.3</ele>
        <time>2021-05-17T08:58:12Z</time>
      </trkpt>
      <trkpt lat="41.5301600" lon="-8.7820730">
        <ele>2.3</ele>
        <time>2021-05-17T08:58:13Z</time>
      </trkpt>
      <trkpt lat="41.5301560" lon="-8.7820760">
        <ele>2.3</ele>
        <time>2021-05-17T08:58:14Z</time>
      </trkpt>
      <trkpt lat="41.5301550" lon="-8.7820740">
        <ele>2.3</ele>
        <time>2021-05-17T08:58:15Z</time>
      </trkpt>
      <trkpt lat="41.5301550" lon="-8.7820790">
        <ele>2.3</ele>
        <time>2021-05-17T08:58:16Z</time>
      </trkpt>
      <trkpt lat="41.5301560" lon="-8.7820790">
        <ele>2.3</ele>
        <time>2021-05-17T08:58:17Z</time>
      </trkpt>
      <trkpt lat="41.5301580" lon="-8.7820860">
        <ele>2.3</ele>
        <time>2021-05-17T08:58:18Z</time>
      </trkpt>
      <trkpt lat="41.5301590" lon="-8.7820850">
        <ele>2.3</ele>
        <time>2021-05-17T08:58:19Z</time>
      </trkpt>
      <trkpt lat="41.5301600" lon="-8.7820780">
        <ele>2.3</ele>
        <time>2021-05-17T08:58:20Z</time>
      </trkpt>
      <trkpt lat="41.5301580" lon="-8.7820810">
        <ele>2.3</ele>
        <time>2021-05-17T08:58:21Z</time>
      </trkpt>
      <trkpt lat="41.5301480" lon="-8.7820850">
        <ele>2.3</ele>
        <time>2021-05-17T08:58:22Z</time>
      </trkpt>
      <trkpt lat="41.5301410" lon="-8.7820910">
        <ele>2.3</ele>
        <time>2021-05-17T08:58:23Z</time>
      </trkpt>
      <trkpt lat="41.5301370" lon="-8.7820930">
        <ele>2.3</ele>
        <time>2021-05-17T08:58:24Z</time>
      </trkpt>
      <trkpt lat="41.5301340" lon="-8.7820940">
        <ele>2.3</ele>
        <time>2021-05-17T08:58:25Z</time>
      </trkpt>
      <trkpt lat="41.5301330" lon="-8.7820940">
        <ele>2.3</ele>
        <time>2021-05-17T08:58:26Z</time>
      </trkpt>
      <trkpt lat="41.5301300" lon="-8.7820900">
        <ele>2.3</ele>
        <time>2021-05-17T08:58:27Z</time>
      </trkpt>
      <trkpt lat="41.5301290" lon="-8.7820920">
        <ele>2.3</ele>
        <time>2021-05-17T08:58:28Z</time>
      </trkpt>
      <trkpt lat="41.5301300" lon="-8.7820870">
        <ele>2.3</ele>
        <time>2021-05-17T08:58:29Z</time>
      </trkpt>
      <trkpt lat="41.5301320" lon="-8.7820860">
        <ele>2.3</ele>
        <time>2021-05-17T08:58:30Z</time>
      </trkpt>
      <trkpt lat="41.5301320" lon="-8.7820850">
        <ele>2.3</ele>
        <time>2021-05-17T08:58:31Z</time>
      </trkpt>
      <trkpt lat="41.5301350" lon="-8.7820830">
        <ele>2.3</ele>
        <time>2021-05-17T08:58:32Z</time>
      </trkpt>
      <trkpt lat="41.5301340" lon="-8.7820860">
        <ele>2.3</ele>
        <time>2021-05-17T08:58:33Z</time>
      </trkpt>
      <trkpt lat="41.5301330" lon="-8.7820860">
        <ele>2.3</ele>
        <time>2021-05-17T08:58:34Z</time>
      </trkpt>
      <trkpt lat="41.5301360" lon="-8.7820830">
        <ele>2.3</ele>
        <time>2021-05-17T08:58:35Z</time>
      </trkpt>
      <trkpt lat="41.5301370" lon="-8.7820800">
        <ele>2.3</ele>
        <time>2021-05-17T08:58:36Z</time>
      </trkpt>
      <trkpt lat="41.5301370" lon="-8.7820770">
        <ele>2.3</ele>
        <time>2021-05-17T08:58:37Z</time>
      </trkpt>
      <trkpt lat="41.5301410" lon="-8.7820730">
        <ele>2.3</ele>
        <time>2021-05-17T08:58:38Z</time>
      </trkpt>
      <trkpt lat="41.5301430" lon="-8.7820720">
        <ele>2.3</ele>
        <time>2021-05-17T08:58:39Z</time>
      </trkpt>
      <trkpt lat="41.5301450" lon="-8.7820710">
        <ele>2.3</ele>
        <time>2021-05-17T08:58:40Z</time>
      </trkpt>
      <trkpt lat="41.5301450" lon="-8.7820710">
        <ele>2.3</ele>
        <time>2021-05-17T08:58:41Z</time>
      </trkpt>
      <trkpt lat="41.5301450" lon="-8.7820710">
        <ele>2.3</ele>
        <time>2021-05-17T08:58:42Z</time>
      </trkpt>
      <trkpt lat="41.5301460" lon="-8.7820730">
        <ele>2.3</ele>
        <time>2021-05-17T08:58:43Z</time>
      </trkpt>
      <trkpt lat="41.5301460" lon="-8.7820730">
        <ele>2.3</ele>
        <time>2021-05-17T08:58:44Z</time>
      </trkpt>
      <trkpt lat="41.5301460" lon="-8.7820730">
        <ele>2.3</ele>
        <time>2021-05-17T08:58:45Z</time>
      </trkpt>
      <trkpt lat="41.5301460" lon="-8.7820730">
        <ele>2.3</ele>
        <time>2021-05-17T08:58:46Z</time>
      </trkpt>
      <trkpt lat="41.5301460" lon="-8.7820730">
        <ele>2.3</ele>
        <time>2021-05-17T08:58:47Z</time>
      </trkpt>
      <trkpt lat="41.5301460" lon="-8.7820730">
        <ele>2.3</ele>
        <time>2021-05-17T08:58:48Z</time>
      </trkpt>
      <trkpt lat="41.5301460" lon="-8.7820730">
        <ele>2.3</ele>
        <time>2021-05-17T08:58:49Z</time>
      </trkpt>
      <trkpt lat="41.5301460" lon="-8.7820730">
        <ele>2.3</ele>
        <time>2021-05-17T08:58:50Z</time>
      </trkpt>
      <trkpt lat="41.5301460" lon="-8.7820730">
        <ele>2.3</ele>
        <time>2021-05-17T08:58:51Z</time>
      </trkpt>
      <trkpt lat="41.5301460" lon="-8.7820730">
        <ele>2.3</ele>
        <time>2021-05-17T08:58:52Z</time>
      </trkpt>
      <trkpt lat="41.5301460" lon="-8.7820730">
        <ele>2.3</ele>
        <time>2021-05-17T08:58:53Z</time>
      </trkpt>
      <trkpt lat="41.5301540" lon="-8.7821020">
        <ele>2.3</ele>
        <time>2021-05-17T08:58:54Z</time>
      </trkpt>
      <trkpt lat="41.5301540" lon="-8.7821010">
        <ele>2.3</ele>
        <time>2021-05-17T08:58:55Z</time>
      </trkpt>
      <trkpt lat="41.5301550" lon="-8.7821000">
        <ele>2.3</ele>
        <time>2021-05-17T08:58:56Z</time>
      </trkpt>
      <trkpt lat="41.5301550" lon="-8.7821010">
        <ele>2.3</ele>
        <time>2021-05-17T08:58:57Z</time>
      </trkpt>
      <trkpt lat="41.5301540" lon="-8.7821080">
        <ele>2.3</ele>
        <time>2021-05-17T08:58:58Z</time>
      </trkpt>
      <trkpt lat="41.5301550" lon="-8.7821060">
        <ele>2.3</ele>
        <time>2021-05-17T08:58:59Z</time>
      </trkpt>
      <trkpt lat="41.5301550" lon="-8.7821060">
        <ele>2.3</ele>
        <time>2021-05-17T08:59:00Z</time>
      </trkpt>
      <trkpt lat="41.5301550" lon="-8.7821080">
        <ele>2.3</ele>
        <time>2021-05-17T08:59:01Z</time>
      </trkpt>
      <trkpt lat="41.5301560" lon="-8.7821090">
        <ele>2.3</ele>
        <time>2021-05-17T08:59:02Z</time>
      </trkpt>
      <trkpt lat="41.5301570" lon="-8.7821070">
        <ele>2.3</ele>
        <time>2021-05-17T08:59:03Z</time>
      </trkpt>
      <trkpt lat="41.5301560" lon="-8.7821100">
        <ele>2.3</ele>
        <time>2021-05-17T08:59:04Z</time>
      </trkpt>
      <trkpt lat="41.5301560" lon="-8.7821080">
        <ele>2.3</ele>
        <time>2021-05-17T08:59:05Z</time>
      </trkpt>
      <trkpt lat="41.5301550" lon="-8.7821100">
        <ele>2.3</ele>
        <time>2021-05-17T08:59:06Z</time>
      </trkpt>
      <trkpt lat="41.5301530" lon="-8.7821100">
        <ele>2.3</ele>
        <time>2021-05-17T08:59:07Z</time>
      </trkpt>
      <trkpt lat="41.5301510" lon="-8.7821080">
        <ele>2.3</ele>
        <time>2021-05-17T08:59:08Z</time>
      </trkpt>
      <trkpt lat="41.5301490" lon="-8.7821090">
        <ele>2.3</ele>
        <time>2021-05-17T08:59:09Z</time>
      </trkpt>
      <trkpt lat="41.5301490" lon="-8.7821070">
        <ele>2.3</ele>
        <time>2021-05-17T08:59:10Z</time>
      </trkpt>
      <trkpt lat="41.5301480" lon="-8.7821040">
        <ele>2.3</ele>
        <time>2021-05-17T08:59:11Z</time>
      </trkpt>
      <trkpt lat="41.5301460" lon="-8.7821000">
        <ele>2.3</ele>
        <time>2021-05-17T08:59:12Z</time>
      </trkpt>
      <trkpt lat="41.5301460" lon="-8.7821000">
        <ele>2.3</ele>
        <time>2021-05-17T08:59:13Z</time>
      </trkpt>
      <trkpt lat="41.5301430" lon="-8.7821070">
        <ele>2.3</ele>
        <time>2021-05-17T08:59:14Z</time>
      </trkpt>
      <trkpt lat="41.5301410" lon="-8.7821100">
        <ele>2.3</ele>
        <time>2021-05-17T08:59:15Z</time>
      </trkpt>
      <trkpt lat="41.5301400" lon="-8.7821180">
        <ele>2.3</ele>
        <time>2021-05-17T08:59:16Z</time>
      </trkpt>
      <trkpt lat="41.5301390" lon="-8.7821230">
        <ele>2.3</ele>
        <time>2021-05-17T08:59:17Z</time>
      </trkpt>
      <trkpt lat="41.5301360" lon="-8.7821260">
        <ele>2.3</ele>
        <time>2021-05-17T08:59:18Z</time>
      </trkpt>
      <trkpt lat="41.5301360" lon="-8.7821260">
        <ele>2.3</ele>
        <time>2021-05-17T08:59:19Z</time>
      </trkpt>
      <trkpt lat="41.5301360" lon="-8.7821260">
        <ele>2.3</ele>
        <time>2021-05-17T08:59:20Z</time>
      </trkpt>
      <trkpt lat="41.5301380" lon="-8.7821290">
        <ele>2.3</ele>
        <time>2021-05-17T08:59:21Z</time>
      </trkpt>
      <trkpt lat="41.5301360" lon="-8.7821320">
        <ele>2.3</ele>
        <time>2021-05-17T08:59:22Z</time>
      </trkpt>
      <trkpt lat="41.5301350" lon="-8.7821400">
        <ele>2.3</ele>
        <time>2021-05-17T08:59:23Z</time>
      </trkpt>
      <trkpt lat="41.5301340" lon="-8.7821410">
        <ele>2.3</ele>
        <time>2021-05-17T08:59:24Z</time>
      </trkpt>
      <trkpt lat="41.5301340" lon="-8.7821410">
        <ele>2.3</ele>
        <time>2021-05-17T08:59:25Z</time>
      </trkpt>
      <trkpt lat="41.5301340" lon="-8.7821410">
        <ele>2.3</ele>
        <time>2021-05-17T08:59:26Z</time>
      </trkpt>
      <trkpt lat="41.5301320" lon="-8.7821500">
        <ele>2.3</ele>
        <time>2021-05-17T08:59:27Z</time>
      </trkpt>
      <trkpt lat="41.5301330" lon="-8.7821510">
        <ele>2.3</ele>
        <time>2021-05-17T08:59:28Z</time>
      </trkpt>
      <trkpt lat="41.5301330" lon="-8.7821510">
        <ele>2.3</ele>
        <time>2021-05-17T08:59:29Z</time>
      </trkpt>
      <trkpt lat="41.5301310" lon="-8.7821540">
        <ele>2.3</ele>
        <time>2021-05-17T08:59:30Z</time>
      </trkpt>
      <trkpt lat="41.5301300" lon="-8.7821550">
        <ele>2.3</ele>
        <time>2021-05-17T08:59:31Z</time>
      </trkpt>
      <trkpt lat="41.5301310" lon="-8.7821540">
        <ele>2.3</ele>
        <time>2021-05-17T08:59:32Z</time>
      </trkpt>
      <trkpt lat="41.5301320" lon="-8.7821510">
        <ele>2.3</ele>
        <time>2021-05-17T08:59:33Z</time>
      </trkpt>
      <trkpt lat="41.5301320" lon="-8.7821510">
        <ele>2.3</ele>
        <time>2021-05-17T08:59:34Z</time>
      </trkpt>
      <trkpt lat="41.5301330" lon="-8.7821540">
        <ele>2.3</ele>
        <time>2021-05-17T08:59:35Z</time>
      </trkpt>
      <trkpt lat="41.5301370" lon="-8.7821510">
        <ele>2.3</ele>
        <time>2021-05-17T08:59:36Z</time>
      </trkpt>
      <trkpt lat="41.5301380" lon="-8.7821500">
        <ele>2.3</ele>
        <time>2021-05-17T08:59:37Z</time>
      </trkpt>
      <trkpt lat="41.5301390" lon="-8.7821460">
        <ele>2.3</ele>
        <time>2021-05-17T08:59:38Z</time>
      </trkpt>
      <trkpt lat="41.5301400" lon="-8.7821450">
        <ele>2.3</ele>
        <time>2021-05-17T08:59:39Z</time>
      </trkpt>
      <trkpt lat="41.5301400" lon="-8.7821450">
        <ele>2.3</ele>
        <time>2021-05-17T08:59:40Z</time>
      </trkpt>
      <trkpt lat="41.5301400" lon="-8.7821450">
        <ele>2.3</ele>
        <time>2021-05-17T08:59:41Z</time>
      </trkpt>
      <trkpt lat="41.5301400" lon="-8.7821450">
        <ele>2.3</ele>
        <time>2021-05-17T08:59:42Z</time>
      </trkpt>
      <trkpt lat="41.5301410" lon="-8.7821440">
        <ele>2.3</ele>
        <time>2021-05-17T08:59:43Z</time>
      </trkpt>
      <trkpt lat="41.5301420" lon="-8.7821420">
        <ele>2.3</ele>
        <time>2021-05-17T08:59:44Z</time>
      </trkpt>
      <trkpt lat="41.5301420" lon="-8.7821410">
        <ele>2.3</ele>
        <time>2021-05-17T08:59:45Z</time>
      </trkpt>
      <trkpt lat="41.5301460" lon="-8.7821380">
        <ele>2.3</ele>
        <time>2021-05-17T08:59:46Z</time>
      </trkpt>
      <trkpt lat="41.5301470" lon="-8.7821340">
        <ele>2.3</ele>
        <time>2021-05-17T08:59:47Z</time>
      </trkpt>
      <trkpt lat="41.5301470" lon="-8.7821330">
        <ele>2.3</ele>
        <time>2021-05-17T08:59:48Z</time>
      </trkpt>
      <trkpt lat="41.5301480" lon="-8.7821340">
        <ele>2.3</ele>
        <time>2021-05-17T08:59:49Z</time>
      </trkpt>
      <trkpt lat="41.5301500" lon="-8.7821350">
        <ele>2.3</ele>
        <time>2021-05-17T08:59:50Z</time>
      </trkpt>
      <trkpt lat="41.5301510" lon="-8.7821370">
        <ele>2.3</ele>
        <time>2021-05-17T08:59:51Z</time>
      </trkpt>
      <trkpt lat="41.5301530" lon="-8.7821350">
        <ele>2.3</ele>
        <time>2021-05-17T08:59:52Z</time>
      </trkpt>
      <trkpt lat="41.5301550" lon="-8.7821340">
        <ele>2.3</ele>
        <time>2021-05-17T08:59:53Z</time>
      </trkpt>
      <trkpt lat="41.5301550" lon="-8.7821320">
        <ele>2.3</ele>
        <time>2021-05-17T08:59:54Z</time>
      </trkpt>
      <trkpt lat="41.5301560" lon="-8.7821280">
        <ele>2.3</ele>
        <time>2021-05-17T08:59:55Z</time>
      </trkpt>
      <trkpt lat="41.5301580" lon="-8.7821270">
        <ele>2.3</ele>
        <time>2021-05-17T08:59:56Z</time>
      </trkpt>
      <trkpt lat="41.5301580" lon="-8.7821270">
        <ele>2.3</ele>
        <time>2021-05-17T08:59:57Z</time>
      </trkpt>
      <trkpt lat="41.5301580" lon="-8.7821270">
        <ele>2.3</ele>
        <time>2021-05-17T08:59:58Z</time>
      </trkpt>
      <trkpt lat="41.5301600" lon="-8.7821210">
        <ele>2.3</ele>
        <time>2021-05-17T08:59:59Z</time>
      </trkpt>
      <trkpt lat="41.5301600" lon="-8.7821160">
        <ele>2.3</ele>
        <time>2021-05-17T09:00:00Z</time>
      </trkpt>
      <trkpt lat="41.5301600" lon="-8.7821160">
        <ele>2.3</ele>
        <time>2021-05-17T09:00:01Z</time>
      </trkpt>
      <trkpt lat="41.5301620" lon="-8.7821130">
        <ele>2.3</ele>
        <time>2021-05-17T09:00:02Z</time>
      </trkpt>
      <trkpt lat="41.5301620" lon="-8.7821130">
        <ele>2.3</ele>
        <time>2021-05-17T09:00:03Z</time>
      </trkpt>
      <trkpt lat="41.5301620" lon="-8.7821130">
        <ele>2.3</ele>
        <time>2021-05-17T09:00:04Z</time>
      </trkpt>
      <trkpt lat="41.5301620" lon="-8.7821130">
        <ele>2.3</ele>
        <time>2021-05-17T09:00:05Z</time>
      </trkpt>
      <trkpt lat="41.5301620" lon="-8.7821130">
        <ele>2.3</ele>
        <time>2021-05-17T09:00:06Z</time>
      </trkpt>
      <trkpt lat="41.5301620" lon="-8.7821130">
        <ele>2.3</ele>
        <time>2021-05-17T09:00:07Z</time>
      </trkpt>
      <trkpt lat="41.5301650" lon="-8.7821010">
        <ele>2.3</ele>
        <time>2021-05-17T09:00:08Z</time>
      </trkpt>
      <trkpt lat="41.5301660" lon="-8.7820980">
        <ele>2.3</ele>
        <time>2021-05-17T09:00:09Z</time>
      </trkpt>
      <trkpt lat="41.5301680" lon="-8.7820930">
        <ele>2.3</ele>
        <time>2021-05-17T09:00:10Z</time>
      </trkpt>
      <trkpt lat="41.5301680" lon="-8.7820920">
        <ele>2.3</ele>
        <time>2021-05-17T09:00:11Z</time>
      </trkpt>
      <trkpt lat="41.5301680" lon="-8.7820910">
        <ele>2.3</ele>
        <time>2021-05-17T09:00:12Z</time>
      </trkpt>
      <trkpt lat="41.5301670" lon="-8.7820910">
        <ele>2.3</ele>
        <time>2021-05-17T09:00:13Z</time>
      </trkpt>
      <trkpt lat="41.5301680" lon="-8.7820870">
        <ele>2.3</ele>
        <time>2021-05-17T09:00:14Z</time>
      </trkpt>
      <trkpt lat="41.5301680" lon="-8.7820870">
        <ele>2.3</ele>
        <time>2021-05-17T09:00:15Z</time>
      </trkpt>
      <trkpt lat="41.5301700" lon="-8.7820810">
        <ele>2.3</ele>
        <time>2021-05-17T09:00:16Z</time>
      </trkpt>
      <trkpt lat="41.5301700" lon="-8.7820820">
        <ele>2.3</ele>
        <time>2021-05-17T09:00:17Z</time>
      </trkpt>
      <trkpt lat="41.5301700" lon="-8.7820810">
        <ele>2.3</ele>
        <time>2021-05-17T09:00:18Z</time>
      </trkpt>
      <trkpt lat="41.5301690" lon="-8.7820770">
        <ele>2.3</ele>
        <time>2021-05-17T09:00:19Z</time>
      </trkpt>
      <trkpt lat="41.5301710" lon="-8.7820760">
        <ele>2.3</ele>
        <time>2021-05-17T09:00:20Z</time>
      </trkpt>
      <trkpt lat="41.5301700" lon="-8.7820770">
        <ele>2.3</ele>
        <time>2021-05-17T09:00:21Z</time>
      </trkpt>
      <trkpt lat="41.5301710" lon="-8.7820810">
        <ele>2.3</ele>
        <time>2021-05-17T09:00:22Z</time>
      </trkpt>
      <trkpt lat="41.5301710" lon="-8.7820810">
        <ele>2.3</ele>
        <time>2021-05-17T09:00:23Z</time>
      </trkpt>
      <trkpt lat="41.5301700" lon="-8.7820820">
        <ele>2.3</ele>
        <time>2021-05-17T09:00:24Z</time>
      </trkpt>
      <trkpt lat="41.5301740" lon="-8.7820830">
        <ele>2.3</ele>
        <time>2021-05-17T09:00:25Z</time>
      </trkpt>
      <trkpt lat="41.5301740" lon="-8.7820830">
        <ele>2.3</ele>
        <time>2021-05-17T09:00:26Z</time>
      </trkpt>
      <trkpt lat="41.5301720" lon="-8.7820920">
        <ele>2.3</ele>
        <time>2021-05-17T09:00:27Z</time>
      </trkpt>
      <trkpt lat="41.5301720" lon="-8.7820960">
        <ele>2.3</ele>
        <time>2021-05-17T09:00:28Z</time>
      </trkpt>
      <trkpt lat="41.5301740" lon="-8.7820950">
        <ele>2.3</ele>
        <time>2021-05-17T09:00:29Z</time>
      </trkpt>
      <trkpt lat="41.5301710" lon="-8.7821030">
        <ele>2.3</ele>
        <time>2021-05-17T09:00:30Z</time>
      </trkpt>
      <trkpt lat="41.5301700" lon="-8.7821090">
        <ele>2.3</ele>
        <time>2021-05-17T09:00:31Z</time>
      </trkpt>
      <trkpt lat="41.5301690" lon="-8.7821140">
        <ele>2.3</ele>
        <time>2021-05-17T09:00:32Z</time>
      </trkpt>
      <trkpt lat="41.5301700" lon="-8.7821160">
        <ele>2.3</ele>
        <time>2021-05-17T09:00:33Z</time>
      </trkpt>
      <trkpt lat="41.5301720" lon="-8.7821180">
        <ele>2.3</ele>
        <time>2021-05-17T09:00:34Z</time>
      </trkpt>
      <trkpt lat="41.5301720" lon="-8.7821220">
        <ele>2.3</ele>
        <time>2021-05-17T09:00:35Z</time>
      </trkpt>
      <trkpt lat="41.5301720" lon="-8.7821220">
        <ele>2.3</ele>
        <time>2021-05-17T09:00:36Z</time>
      </trkpt>
      <trkpt lat="41.5301720" lon="-8.7821220">
        <ele>2.3</ele>
        <time>2021-05-17T09:00:37Z</time>
      </trkpt>
      <trkpt lat="41.5301720" lon="-8.7821210">
        <ele>2.3</ele>
        <time>2021-05-17T09:00:38Z</time>
      </trkpt>
      <trkpt lat="41.5301720" lon="-8.7821210">
        <ele>2.3</ele>
        <time>2021-05-17T09:00:39Z</time>
      </trkpt>
      <trkpt lat="41.5301720" lon="-8.7821210">
        <ele>2.3</ele>
        <time>2021-05-17T09:00:40Z</time>
      </trkpt>
      <trkpt lat="41.5301720" lon="-8.7821210">
        <ele>2.3</ele>
        <time>2021-05-17T09:00:41Z</time>
      </trkpt>
      <trkpt lat="41.5301720" lon="-8.7821210">
        <ele>2.3</ele>
        <time>2021-05-17T09:00:42Z</time>
      </trkpt>
      <trkpt lat="41.5301730" lon="-8.7821210">
        <ele>2.3</ele>
        <time>2021-05-17T09:00:43Z</time>
      </trkpt>
      <trkpt lat="41.5301730" lon="-8.7821210">
        <ele>2.3</ele>
        <time>2021-05-17T09:00:44Z</time>
      </trkpt>
      <trkpt lat="41.5301730" lon="-8.7821200">
        <ele>2.3</ele>
        <time>2021-05-17T09:00:45Z</time>
      </trkpt>
      <trkpt lat="41.5301730" lon="-8.7821200">
        <ele>2.3</ele>
        <time>2021-05-17T09:00:46Z</time>
      </trkpt>
      <trkpt lat="41.5301730" lon="-8.7821200">
        <ele>2.3</ele>
        <time>2021-05-17T09:00:47Z</time>
      </trkpt>
      <trkpt lat="41.5301730" lon="-8.7821200">
        <ele>2.3</ele>
        <time>2021-05-17T09:00:48Z</time>
      </trkpt>
      <trkpt lat="41.5301730" lon="-8.7821200">
        <ele>2.3</ele>
        <time>2021-05-17T09:00:49Z</time>
      </trkpt>
      <trkpt lat="41.5301730" lon="-8.7821200">
        <ele>2.3</ele>
        <time>2021-05-17T09:00:50Z</time>
      </trkpt>
      <trkpt lat="41.5301730" lon="-8.7821200">
        <ele>2.3</ele>
        <time>2021-05-17T09:00:51Z</time>
      </trkpt>
      <trkpt lat="41.5301730" lon="-8.7821190">
        <ele>2.3</ele>
        <time>2021-05-17T09:00:52Z</time>
      </trkpt>
      <trkpt lat="41.5301730" lon="-8.7821190">
        <ele>2.3</ele>
        <time>2021-05-17T09:00:53Z</time>
      </trkpt>
      <trkpt lat="41.5301730" lon="-8.7821190">
        <ele>2.3</ele>
        <time>2021-05-17T09:00:54Z</time>
      </trkpt>
      <trkpt lat="41.5301730" lon="-8.7821190">
        <ele>2.3</ele>
        <time>2021-05-17T09:00:55Z</time>
      </trkpt>
      <trkpt lat="41.5301730" lon="-8.7821190">
        <ele>2.3</ele>
        <time>2021-05-17T09:00:57Z</time>
      </trkpt>
      <trkpt lat="41.5301730" lon="-8.7821190">
        <ele>2.3</ele>
        <time>2021-05-17T09:00:58Z</time>
      </trkpt>
      <trkpt lat="41.5301730" lon="-8.7821190">
        <ele>2.3</ele>
        <time>2021-05-17T09:00:59Z</time>
      </trkpt>
      <trkpt lat="41.5301730" lon="-8.7821180">
        <ele>2.3</ele>
        <time>2021-05-17T09:01:00Z</time>
      </trkpt>
      <trkpt lat="41.5301730" lon="-8.7821180">
        <ele>2.3</ele>
        <time>2021-05-17T09:01:01Z</time>
      </trkpt>
      <trkpt lat="41.5301740" lon="-8.7821180">
        <ele>2.3</ele>
        <time>2021-05-17T09:01:02Z</time>
      </trkpt>
      <trkpt lat="41.5301740" lon="-8.7821180">
        <ele>2.3</ele>
        <time>2021-05-17T09:01:03Z</time>
      </trkpt>
      <trkpt lat="41.5301740" lon="-8.7821180">
        <ele>2.3</ele>
        <time>2021-05-17T09:01:04Z</time>
      </trkpt>
      <trkpt lat="41.5301740" lon="-8.7821180">
        <ele>2.3</ele>
        <time>2021-05-17T09:01:05Z</time>
      </trkpt>
      <trkpt lat="41.5301740" lon="-8.7821170">
        <ele>2.3</ele>
        <time>2021-05-17T09:01:06Z</time>
      </trkpt>
      <trkpt lat="41.5301740" lon="-8.7821170">
        <ele>2.3</ele>
        <time>2021-05-17T09:01:07Z</time>
      </trkpt>
      <trkpt lat="41.5301740" lon="-8.7821170">
        <ele>2.3</ele>
        <time>2021-05-17T09:01:08Z</time>
      </trkpt>
      <trkpt lat="41.5301740" lon="-8.7821170">
        <ele>2.3</ele>
        <time>2021-05-17T09:01:09Z</time>
      </trkpt>
      <trkpt lat="41.5301740" lon="-8.7821170">
        <ele>2.3</ele>
        <time>2021-05-17T09:01:10Z</time>
      </trkpt>
      <trkpt lat="41.5301740" lon="-8.7821170">
        <ele>2.3</ele>
        <time>2021-05-17T09:01:11Z</time>
      </trkpt>
      <trkpt lat="41.5301740" lon="-8.7821170">
        <ele>2.3</ele>
        <time>2021-05-17T09:01:12Z</time>
      </trkpt>
      <trkpt lat="41.5301740" lon="-8.7821160">
        <ele>2.3</ele>
        <time>2021-05-17T09:01:13Z</time>
      </trkpt>
      <trkpt lat="41.5301740" lon="-8.7821160">
        <ele>2.3</ele>
        <time>2021-05-17T09:01:14Z</time>
      </trkpt>
      <trkpt lat="41.5301740" lon="-8.7821160">
        <ele>2.3</ele>
        <time>2021-05-17T09:01:15Z</time>
      </trkpt>
      <trkpt lat="41.5301740" lon="-8.7821160">
        <ele>2.3</ele>
        <time>2021-05-17T09:01:16Z</time>
      </trkpt>
      <trkpt lat="41.5301740" lon="-8.7821160">
        <ele>2.3</ele>
        <time>2021-05-17T09:01:17Z</time>
      </trkpt>
      <trkpt lat="41.5301740" lon="-8.7821160">
        <ele>2.3</ele>
        <time>2021-05-17T09:01:18Z</time>
      </trkpt>
      <trkpt lat="41.5301740" lon="-8.7821160">
        <ele>2.3</ele>
        <time>2021-05-17T09:01:19Z</time>
      </trkpt>
      <trkpt lat="41.5301750" lon="-8.7821150">
        <ele>2.3</ele>
        <time>2021-05-17T09:01:20Z</time>
      </trkpt>
      <trkpt lat="41.5301750" lon="-8.7821150">
        <ele>2.3</ele>
        <time>2021-05-17T09:01:21Z</time>
      </trkpt>
      <trkpt lat="41.5301750" lon="-8.7821150">
        <ele>2.3</ele>
        <time>2021-05-17T09:01:22Z</time>
      </trkpt>
      <trkpt lat="41.5301750" lon="-8.7821150">
        <ele>2.3</ele>
        <time>2021-05-17T09:01:23Z</time>
      </trkpt>
      <trkpt lat="41.5301750" lon="-8.7821150">
        <ele>2.3</ele>
        <time>2021-05-17T09:01:24Z</time>
      </trkpt>
      <trkpt lat="41.5301750" lon="-8.7821150">
        <ele>2.3</ele>
        <time>2021-05-17T09:01:25Z</time>
      </trkpt>
      <trkpt lat="41.5301750" lon="-8.7821150">
        <ele>2.3</ele>
        <time>2021-05-17T09:01:26Z</time>
      </trkpt>
      <trkpt lat="41.5301750" lon="-8.7821140">
        <ele>2.3</ele>
        <time>2021-05-17T09:01:27Z</time>
      </trkpt>
      <trkpt lat="41.5301750" lon="-8.7821140">
        <ele>2.3</ele>
        <time>2021-05-17T09:01:28Z</time>
      </trkpt>
      <trkpt lat="41.5301750" lon="-8.7821140">
        <ele>2.3</ele>
        <time>2021-05-17T09:01:29Z</time>
      </trkpt>
      <trkpt lat="41.5301750" lon="-8.7821140">
        <ele>2.3</ele>
        <time>2021-05-17T09:01:30Z</time>
      </trkpt>
      <trkpt lat="41.5301750" lon="-8.7821140">
        <ele>2.3</ele>
        <time>2021-05-17T09:01:31Z</time>
      </trkpt>
      <trkpt lat="41.5301750" lon="-8.7821140">
        <ele>2.3</ele>
        <time>2021-05-17T09:01:32Z</time>
      </trkpt>
      <trkpt lat="41.5301750" lon="-8.7821140">
        <ele>2.3</ele>
        <time>2021-05-17T09:01:33Z</time>
      </trkpt>
      <trkpt lat="41.5301750" lon="-8.7821130">
        <ele>2.3</ele>
        <time>2021-05-17T09:01:34Z</time>
      </trkpt>
      <trkpt lat="41.5301750" lon="-8.7821130">
        <ele>2.3</ele>
        <time>2021-05-17T09:01:35Z</time>
      </trkpt>
      <trkpt lat="41.5301750" lon="-8.7821130">
        <ele>2.3</ele>
        <time>2021-05-17T09:01:36Z</time>
      </trkpt>
      <trkpt lat="41.5301750" lon="-8.7821130">
        <ele>2.3</ele>
        <time>2021-05-17T09:01:37Z</time>
      </trkpt>
      <trkpt lat="41.5301760" lon="-8.7821130">
        <ele>2.3</ele>
        <time>2021-05-17T09:01:38Z</time>
      </trkpt>
      <trkpt lat="41.5301760" lon="-8.7821130">
        <ele>2.3</ele>
        <time>2021-05-17T09:01:39Z</time>
      </trkpt>
      <trkpt lat="41.5301760" lon="-8.7821130">
        <ele>2.3</ele>
        <time>2021-05-17T09:01:40Z</time>
      </trkpt>
      <trkpt lat="41.5301760" lon="-8.7821120">
        <ele>2.3</ele>
        <time>2021-05-17T09:01:41Z</time>
      </trkpt>
      <trkpt lat="41.5301760" lon="-8.7821120">
        <ele>2.3</ele>
        <time>2021-05-17T09:01:42Z</time>
      </trkpt>
      <trkpt lat="41.5301760" lon="-8.7821120">
        <ele>2.3</ele>
        <time>2021-05-17T09:01:43Z</time>
      </trkpt>
      <trkpt lat="41.5301760" lon="-8.7821120">
        <ele>2.3</ele>
        <time>2021-05-17T09:01:44Z</time>
      </trkpt>
      <trkpt lat="41.5301760" lon="-8.7821120">
        <ele>2.3</ele>
        <time>2021-05-17T09:01:45Z</time>
      </trkpt>
      <trkpt lat="41.5301760" lon="-8.7821120">
        <ele>2.3</ele>
        <time>2021-05-17T09:01:46Z</time>
      </trkpt>
      <trkpt lat="41.5301760" lon="-8.7821120">
        <ele>2.3</ele>
        <time>2021-05-17T09:01:47Z</time>
      </trkpt>
      <trkpt lat="41.5301760" lon="-8.7821110">
        <ele>2.3</ele>
        <time>2021-05-17T09:01:48Z</time>
      </trkpt>
      <trkpt lat="41.5301760" lon="-8.7821110">
        <ele>2.3</ele>
        <time>2021-05-17T09:01:49Z</time>
      </trkpt>
      <trkpt lat="41.5301760" lon="-8.7821110">
        <ele>2.3</ele>
        <time>2021-05-17T09:01:50Z</time>
      </trkpt>
      <trkpt lat="41.5301760" lon="-8.7821110">
        <ele>2.3</ele>
        <time>2021-05-17T09:01:51Z</time>
      </trkpt>
      <trkpt lat="41.5301760" lon="-8.7821110">
        <ele>2.3</ele>
        <time>2021-05-17T09:01:52Z</time>
      </trkpt>
      <trkpt lat="41.5301760" lon="-8.7821110">
        <ele>2.3</ele>
        <time>2021-05-17T09:01:53Z</time>
      </trkpt>
      <trkpt lat="41.5301760" lon="-8.7821110">
        <ele>2.3</ele>
        <time>2021-05-17T09:01:54Z</time>
      </trkpt>
      <trkpt lat="41.5301760" lon="-8.7821100">
        <ele>2.3</ele>
        <time>2021-05-17T09:01:55Z</time>
      </trkpt>
      <trkpt lat="41.5301770" lon="-8.7821100">
        <ele>2.3</ele>
        <time>2021-05-17T09:01:56Z</time>
      </trkpt>
      <trkpt lat="41.5301770" lon="-8.7821100">
        <ele>2.3</ele>
        <time>2021-05-17T09:01:57Z</time>
      </trkpt>
      <trkpt lat="41.5301770" lon="-8.7821100">
        <ele>2.3</ele>
        <time>2021-05-17T09:01:58Z</time>
      </trkpt>
      <trkpt lat="41.5301770" lon="-8.7821100">
        <ele>2.3</ele>
        <time>2021-05-17T09:01:59Z</time>
      </trkpt>
      <trkpt lat="41.5301770" lon="-8.7821100">
        <ele>2.3</ele>
        <time>2021-05-17T09:02:00Z</time>
      </trkpt>
      <trkpt lat="41.5301770" lon="-8.7821090">
        <ele>2.3</ele>
        <time>2021-05-17T09:02:01Z</time>
      </trkpt>
      <trkpt lat="41.5301770" lon="-8.7821090">
        <ele>2.3</ele>
        <time>2021-05-17T09:02:02Z</time>
      </trkpt>
      <trkpt lat="41.5301770" lon="-8.7821090">
        <ele>2.3</ele>
        <time>2021-05-17T09:02:03Z</time>
      </trkpt>
      <trkpt lat="41.5301770" lon="-8.7821090">
        <ele>2.3</ele>
        <time>2021-05-17T09:02:04Z</time>
      </trkpt>
      <trkpt lat="41.5301770" lon="-8.7821090">
        <ele>2.3</ele>
        <time>2021-05-17T09:02:05Z</time>
      </trkpt>
      <trkpt lat="41.5301770" lon="-8.7821090">
        <ele>2.3</ele>
        <time>2021-05-17T09:02:06Z</time>
      </trkpt>
      <trkpt lat="41.5301770" lon="-8.7821090">
        <ele>2.3</ele>
        <time>2021-05-17T09:02:07Z</time>
      </trkpt>
      <trkpt lat="41.5301770" lon="-8.7821080">
        <ele>2.3</ele>
        <time>2021-05-17T09:02:08Z</time>
      </trkpt>
      <trkpt lat="41.5301770" lon="-8.7821080">
        <ele>2.3</ele>
        <time>2021-05-17T09:02:09Z</time>
      </trkpt>
      <trkpt lat="41.5301770" lon="-8.7821080">
        <ele>2.3</ele>
        <time>2021-05-17T09:02:10Z</time>
      </trkpt>
      <trkpt lat="41.5301770" lon="-8.7821080">
        <ele>2.3</ele>
        <time>2021-05-17T09:02:11Z</time>
      </trkpt>
      <trkpt lat="41.5301770" lon="-8.7821080">
        <ele>2.3</ele>
        <time>2021-05-17T09:02:12Z</time>
      </trkpt>
      <trkpt lat="41.5301770" lon="-8.7821080">
        <ele>2.3</ele>
        <time>2021-05-17T09:02:13Z</time>
      </trkpt>
      <trkpt lat="41.5301780" lon="-8.7821080">
        <ele>2.3</ele>
        <time>2021-05-17T09:02:14Z</time>
      </trkpt>
      <trkpt lat="41.5301780" lon="-8.7821070">
        <ele>2.3</ele>
        <time>2021-05-17T09:02:15Z</time>
      </trkpt>
      <trkpt lat="41.5301780" lon="-8.7821070">
        <ele>2.3</ele>
        <time>2021-05-17T09:02:16Z</time>
      </trkpt>
      <trkpt lat="41.5301780" lon="-8.7821070">
        <ele>2.3</ele>
        <time>2021-05-17T09:02:17Z</time>
      </trkpt>
      <trkpt lat="41.5301780" lon="-8.7821070">
        <ele>2.3</ele>
        <time>2021-05-17T09:02:18Z</time>
      </trkpt>
      <trkpt lat="41.5301780" lon="-8.7821070">
        <ele>2.3</ele>
        <time>2021-05-17T09:02:19Z</time>
      </trkpt>
      <trkpt lat="41.5301780" lon="-8.7821070">
        <ele>2.3</ele>
        <time>2021-05-17T09:02:20Z</time>
      </trkpt>
      <trkpt lat="41.5301780" lon="-8.7821070">
        <ele>2.3</ele>
        <time>2021-05-17T09:02:21Z</time>
      </trkpt>
      <trkpt lat="41.5301780" lon="-8.7821060">
        <ele>2.3</ele>
        <time>2021-05-17T09:02:22Z</time>
      </trkpt>
      <trkpt lat="41.5301780" lon="-8.7821060">
        <ele>2.3</ele>
        <time>2021-05-17T09:02:23Z</time>
      </trkpt>
      <trkpt lat="41.5301780" lon="-8.7821060">
        <ele>2.3</ele>
        <time>2021-05-17T09:02:24Z</time>
      </trkpt>
      <trkpt lat="41.5301780" lon="-8.7821060">
        <ele>2.3</ele>
        <time>2021-05-17T09:02:25Z</time>
      </trkpt>
      <trkpt lat="41.5301780" lon="-8.7821060">
        <ele>2.3</ele>
        <time>2021-05-17T09:02:26Z</time>
      </trkpt>
      <trkpt lat="41.5301780" lon="-8.7821060">
        <ele>2.3</ele>
        <time>2021-05-17T09:02:27Z</time>
      </trkpt>
      <trkpt lat="41.5301780" lon="-8.7821060">
        <ele>2.3</ele>
        <time>2021-05-17T09:02:28Z</time>
      </trkpt>
      <trkpt lat="41.5301780" lon="-8.7821050">
        <ele>2.3</ele>
        <time>2021-05-17T09:02:29Z</time>
      </trkpt>
      <trkpt lat="41.5301780" lon="-8.7821050">
        <ele>2.3</ele>
        <time>2021-05-17T09:02:30Z</time>
      </trkpt>
      <trkpt lat="41.5301780" lon="-8.7821050">
        <ele>2.3</ele>
        <time>2021-05-17T09:02:31Z</time>
      </trkpt>
      <trkpt lat="41.5301790" lon="-8.7821050">
        <ele>2.3</ele>
        <time>2021-05-17T09:02:32Z</time>
      </trkpt>
      <trkpt lat="41.5301790" lon="-8.7821050">
        <ele>2.3</ele>
        <time>2021-05-17T09:02:33Z</time>
      </trkpt>
      <trkpt lat="41.5301790" lon="-8.7821050">
        <ele>2.3</ele>
        <time>2021-05-17T09:02:34Z</time>
      </trkpt>
      <trkpt lat="41.5301790" lon="-8.7821050">
        <ele>2.3</ele>
        <time>2021-05-17T09:02:35Z</time>
      </trkpt>
      <trkpt lat="41.5301790" lon="-8.7821040">
        <ele>2.3</ele>
        <time>2021-05-17T09:02:36Z</time>
      </trkpt>
      <trkpt lat="41.5301790" lon="-8.7821040">
        <ele>2.3</ele>
        <time>2021-05-17T09:02:37Z</time>
      </trkpt>
      <trkpt lat="41.5301790" lon="-8.7821040">
        <ele>2.3</ele>
        <time>2021-05-17T09:02:38Z</time>
      </trkpt>
      <trkpt lat="41.5301790" lon="-8.7821040">
        <ele>2.3</ele>
        <time>2021-05-17T09:02:39Z</time>
      </trkpt>
      <trkpt lat="41.5301790" lon="-8.7821040">
        <ele>2.3</ele>
        <time>2021-05-17T09:02:40Z</time>
      </trkpt>
      <trkpt lat="41.5301790" lon="-8.7821040">
        <ele>2.3</ele>
        <time>2021-05-17T09:02:41Z</time>
      </trkpt>
      <trkpt lat="41.5301790" lon="-8.7821040">
        <ele>2.3</ele>
        <time>2021-05-17T09:02:42Z</time>
      </trkpt>
      <trkpt lat="41.5301790" lon="-8.7821030">
        <ele>2.3</ele>
        <time>2021-05-17T09:02:43Z</time>
      </trkpt>
      <trkpt lat="41.5301790" lon="-8.7821030">
        <ele>2.3</ele>
        <time>2021-05-17T09:02:44Z</time>
      </trkpt>
      <trkpt lat="41.5301790" lon="-8.7821030">
        <ele>2.3</ele>
        <time>2021-05-17T09:02:45Z</time>
      </trkpt>
      <trkpt lat="41.5301790" lon="-8.7821030">
        <ele>2.3</ele>
        <time>2021-05-17T09:02:46Z</time>
      </trkpt>
      <trkpt lat="41.5301790" lon="-8.7821030">
        <ele>2.3</ele>
        <time>2021-05-17T09:02:47Z</time>
      </trkpt>
      <trkpt lat="41.5301790" lon="-8.7821030">
        <ele>2.3</ele>
        <time>2021-05-17T09:02:48Z</time>
      </trkpt>
      <trkpt lat="41.5301790" lon="-8.7821030">
        <ele>2.3</ele>
        <time>2021-05-17T09:02:49Z</time>
      </trkpt>
      <trkpt lat="41.5301800" lon="-8.7821020">
        <ele>2.3</ele>
        <time>2021-05-17T09:02:50Z</time>
      </trkpt>
      <trkpt lat="41.5301800" lon="-8.7821020">
        <ele>2.3</ele>
        <time>2021-05-17T09:02:51Z</time>
      </trkpt>
      <trkpt lat="41.5301800" lon="-8.7821020">
        <ele>2.3</ele>
        <time>2021-05-17T09:02:52Z</time>
      </trkpt>
      <trkpt lat="41.5301800" lon="-8.7821020">
        <ele>2.3</ele>
        <time>2021-05-17T09:02:53Z</time>
      </trkpt>
      <trkpt lat="41.5301800" lon="-8.7821020">
        <ele>2.3</ele>
        <time>2021-05-17T09:02:54Z</time>
      </trkpt>
      <trkpt lat="41.5301800" lon="-8.7821020">
        <ele>2.3</ele>
        <time>2021-05-17T09:02:55Z</time>
      </trkpt>
      <trkpt lat="41.5301800" lon="-8.7821010">
        <ele>2.3</ele>
        <time>2021-05-17T09:02:56Z</time>
      </trkpt>
      <trkpt lat="41.5301800" lon="-8.7821010">
        <ele>2.3</ele>
        <time>2021-05-17T09:02:57Z</time>
      </trkpt>
      <trkpt lat="41.5301800" lon="-8.7821010">
        <ele>2.3</ele>
        <time>2021-05-17T09:02:58Z</time>
      </trkpt>
      <trkpt lat="41.5301800" lon="-8.7821010">
        <ele>2.3</ele>
        <time>2021-05-17T09:02:59Z</time>
      </trkpt>
      <trkpt lat="41.5301800" lon="-8.7821010">
        <ele>2.3</ele>
        <time>2021-05-17T09:03:00Z</time>
      </trkpt>
      <trkpt lat="41.5301800" lon="-8.7821010">
        <ele>2.3</ele>
        <time>2021-05-17T09:03:01Z</time>
      </trkpt>
      <trkpt lat="41.5301800" lon="-8.7821010">
        <ele>2.3</ele>
        <time>2021-05-17T09:03:02Z</time>
      </trkpt>
      <trkpt lat="41.5301800" lon="-8.7821000">
        <ele>2.3</ele>
        <time>2021-05-17T09:03:03Z</time>
      </trkpt>
      <trkpt lat="41.5301800" lon="-8.7821000">
        <ele>2.3</ele>
        <time>2021-05-17T09:03:05Z</time>
      </trkpt>
      <trkpt lat="41.5301800" lon="-8.7821000">
        <ele>2.3</ele>
        <time>2021-05-17T09:03:06Z</time>
      </trkpt>
      <trkpt lat="41.5301800" lon="-8.7821000">
        <ele>2.3</ele>
        <time>2021-05-17T09:03:07Z</time>
      </trkpt>
      <trkpt lat="41.5301800" lon="-8.7821000">
        <ele>2.3</ele>
        <time>2021-05-17T09:03:08Z</time>
      </trkpt>
      <trkpt lat="41.5301810" lon="-8.7821000">
        <ele>2.3</ele>
        <time>2021-05-17T09:03:09Z</time>
      </trkpt>
      <trkpt lat="41.5301810" lon="-8.7821000">
        <ele>2.3</ele>
        <time>2021-05-17T09:03:10Z</time>
      </trkpt>
      <trkpt lat="41.5301810" lon="-8.7820990">
        <ele>2.3</ele>
        <time>2021-05-17T09:03:11Z</time>
      </trkpt>
      <trkpt lat="41.5301810" lon="-8.7820990">
        <ele>2.3</ele>
        <time>2021-05-17T09:03:12Z</time>
      </trkpt>
      <trkpt lat="41.5301810" lon="-8.7820990">
        <ele>2.3</ele>
        <time>2021-05-17T09:03:13Z</time>
      </trkpt>
      <trkpt lat="41.5301810" lon="-8.7820990">
        <ele>2.3</ele>
        <time>2021-05-17T09:03:14Z</time>
      </trkpt>
      <trkpt lat="41.5301810" lon="-8.7820990">
        <ele>2.3</ele>
        <time>2021-05-17T09:03:15Z</time>
      </trkpt>
      <trkpt lat="41.5301810" lon="-8.7820990">
        <ele>2.3</ele>
        <time>2021-05-17T09:03:16Z</time>
      </trkpt>
      <trkpt lat="41.5301810" lon="-8.7820990">
        <ele>2.3</ele>
        <time>2021-05-17T09:03:17Z</time>
      </trkpt>
      <trkpt lat="41.5301810" lon="-8.7820980">
        <ele>2.3</ele>
        <time>2021-05-17T09:03:18Z</time>
      </trkpt>
      <trkpt lat="41.5301810" lon="-8.7820980">
        <ele>2.3</ele>
        <time>2021-05-17T09:03:19Z</time>
      </trkpt>
      <trkpt lat="41.5301810" lon="-8.7820980">
        <ele>2.3</ele>
        <time>2021-05-17T09:03:20Z</time>
      </trkpt>
      <trkpt lat="41.5301810" lon="-8.7820980">
        <ele>2.3</ele>
        <time>2021-05-17T09:03:21Z</time>
      </trkpt>
      <trkpt lat="41.5301810" lon="-8.7820980">
        <ele>2.3</ele>
        <time>2021-05-17T09:03:22Z</time>
      </trkpt>
      <trkpt lat="41.5301810" lon="-8.7820980">
        <ele>2.3</ele>
        <time>2021-05-17T09:03:23Z</time>
      </trkpt>
      <trkpt lat="41.5301810" lon="-8.7820980">
        <ele>2.3</ele>
        <time>2021-05-17T09:03:24Z</time>
      </trkpt>
      <trkpt lat="41.5301810" lon="-8.7820970">
        <ele>2.3</ele>
        <time>2021-05-17T09:03:25Z</time>
      </trkpt>
      <trkpt lat="41.5301810" lon="-8.7820970">
        <ele>2.3</ele>
        <time>2021-05-17T09:03:26Z</time>
      </trkpt>
      <trkpt lat="41.5301820" lon="-8.7820970">
        <ele>2.3</ele>
        <time>2021-05-17T09:03:27Z</time>
      </trkpt>
      <trkpt lat="41.5301820" lon="-8.7820970">
        <ele>2.3</ele>
        <time>2021-05-17T09:03:28Z</time>
      </trkpt>
      <trkpt lat="41.5301820" lon="-8.7820970">
        <ele>2.3</ele>
        <time>2021-05-17T09:03:29Z</time>
      </trkpt>
      <trkpt lat="41.5301820" lon="-8.7820970">
        <ele>2.3</ele>
        <time>2021-05-17T09:03:30Z</time>
      </trkpt>
      <trkpt lat="41.5301820" lon="-8.7820970">
        <ele>2.3</ele>
        <time>2021-05-17T09:03:31Z</time>
      </trkpt>
      <trkpt lat="41.5301820" lon="-8.7820960">
        <ele>2.3</ele>
        <time>2021-05-17T09:03:32Z</time>
      </trkpt>
      <trkpt lat="41.5301820" lon="-8.7820960">
        <ele>2.3</ele>
        <time>2021-05-17T09:03:33Z</time>
      </trkpt>
      <trkpt lat="41.5301820" lon="-8.7820960">
        <ele>2.3</ele>
        <time>2021-05-17T09:03:34Z</time>
      </trkpt>
      <trkpt lat="41.5301820" lon="-8.7820960">
        <ele>2.3</ele>
        <time>2021-05-17T09:03:35Z</time>
      </trkpt>
      <trkpt lat="41.5301820" lon="-8.7820960">
        <ele>2.3</ele>
        <time>2021-05-17T09:03:36Z</time>
      </trkpt>
      <trkpt lat="41.5301820" lon="-8.7820960">
        <ele>2.3</ele>
        <time>2021-05-17T09:03:37Z</time>
      </trkpt>
      <trkpt lat="41.5301820" lon="-8.7820960">
        <ele>2.3</ele>
        <time>2021-05-17T09:03:38Z</time>
      </trkpt>
      <trkpt lat="41.5301820" lon="-8.7820950">
        <ele>2.3</ele>
        <time>2021-05-17T09:03:39Z</time>
      </trkpt>
      <trkpt lat="41.5301820" lon="-8.7820950">
        <ele>2.3</ele>
        <time>2021-05-17T09:03:40Z</time>
      </trkpt>
      <trkpt lat="41.5301820" lon="-8.7820950">
        <ele>2.3</ele>
        <time>2021-05-17T09:03:41Z</time>
      </trkpt>
      <trkpt lat="41.5301820" lon="-8.7820950">
        <ele>2.3</ele>
        <time>2021-05-17T09:03:42Z</time>
      </trkpt>
      <trkpt lat="41.5301820" lon="-8.7820950">
        <ele>2.3</ele>
        <time>2021-05-17T09:03:43Z</time>
      </trkpt>
      <trkpt lat="41.5301820" lon="-8.7820950">
        <ele>2.3</ele>
        <time>2021-05-17T09:03:44Z</time>
      </trkpt>
      <trkpt lat="41.5301830" lon="-8.7820950">
        <ele>2.3</ele>
        <time>2021-05-17T09:03:45Z</time>
      </trkpt>
      <trkpt lat="41.5301830" lon="-8.7820940">
        <ele>2.3</ele>
        <time>2021-05-17T09:03:46Z</time>
      </trkpt>
      <trkpt lat="41.5301830" lon="-8.7820940">
        <ele>2.3</ele>
        <time>2021-05-17T09:03:47Z</time>
      </trkpt>
      <trkpt lat="41.5301830" lon="-8.7820940">
        <ele>2.3</ele>
        <time>2021-05-17T09:03:48Z</time>
      </trkpt>
      <trkpt lat="41.5301830" lon="-8.7820940">
        <ele>2.3</ele>
        <time>2021-05-17T09:03:49Z</time>
      </trkpt>
      <trkpt lat="41.5301830" lon="-8.7820940">
        <ele>2.3</ele>
        <time>2021-05-17T09:03:50Z</time>
      </trkpt>
      <trkpt lat="41.5301830" lon="-8.7820940">
        <ele>2.3</ele>
        <time>2021-05-17T09:03:51Z</time>
      </trkpt>
      <trkpt lat="41.5301830" lon="-8.7820930">
        <ele>2.3</ele>
        <time>2021-05-17T09:03:52Z</time>
      </trkpt>
      <trkpt lat="41.5301830" lon="-8.7820930">
        <ele>2.3</ele>
        <time>2021-05-17T09:03:53Z</time>
      </trkpt>
      <trkpt lat="41.5301830" lon="-8.7820930">
        <ele>2.3</ele>
        <time>2021-05-17T09:03:54Z</time>
      </trkpt>
      <trkpt lat="41.5301830" lon="-8.7820930">
        <ele>2.3</ele>
        <time>2021-05-17T09:03:55Z</time>
      </trkpt>
      <trkpt lat="41.5301830" lon="-8.7820930">
        <ele>2.3</ele>
        <time>2021-05-17T09:03:56Z</time>
      </trkpt>
      <trkpt lat="41.5301830" lon="-8.7820930">
        <ele>2.3</ele>
        <time>2021-05-17T09:03:57Z</time>
      </trkpt>
      <trkpt lat="41.5301830" lon="-8.7820930">
        <ele>2.3</ele>
        <time>2021-05-17T09:03:58Z</time>
      </trkpt>
      <trkpt lat="41.5301830" lon="-8.7820920">
        <ele>2.3</ele>
        <time>2021-05-17T09:03:59Z</time>
      </trkpt>
      <trkpt lat="41.5301830" lon="-8.7820920">
        <ele>2.3</ele>
        <time>2021-05-17T09:04:00Z</time>
      </trkpt>
      <trkpt lat="41.5301830" lon="-8.7820920">
        <ele>2.3</ele>
        <time>2021-05-17T09:04:01Z</time>
      </trkpt>
      <trkpt lat="41.5301830" lon="-8.7820920">
        <ele>2.3</ele>
        <time>2021-05-17T09:04:02Z</time>
      </trkpt>
      <trkpt lat="41.5301840" lon="-8.7820920">
        <ele>2.3</ele>
        <time>2021-05-17T09:04:03Z</time>
      </trkpt>
      <trkpt lat="41.5301840" lon="-8.7820920">
        <ele>2.3</ele>
        <time>2021-05-17T09:04:04Z</time>
      </trkpt>
      <trkpt lat="41.5301840" lon="-8.7820920">
        <ele>2.3</ele>
        <time>2021-05-17T09:04:05Z</time>
      </trkpt>
      <trkpt lat="41.5301840" lon="-8.7820910">
        <ele>2.3</ele>
        <time>2021-05-17T09:04:06Z</time>
      </trkpt>
      <trkpt lat="41.5301840" lon="-8.7820910">
        <ele>2.3</ele>
        <time>2021-05-17T09:04:07Z</time>
      </trkpt>
      <trkpt lat="41.5301840" lon="-8.7820910">
        <ele>2.3</ele>
        <time>2021-05-17T09:04:08Z</time>
      </trkpt>
      <trkpt lat="41.5301840" lon="-8.7820910">
        <ele>2.3</ele>
        <time>2021-05-17T09:04:09Z</time>
      </trkpt>
      <trkpt lat="41.5301840" lon="-8.7820910">
        <ele>2.3</ele>
        <time>2021-05-17T09:04:10Z</time>
      </trkpt>
      <trkpt lat="41.5301840" lon="-8.7820910">
        <ele>2.3</ele>
        <time>2021-05-17T09:04:11Z</time>
      </trkpt>
      <trkpt lat="41.5301840" lon="-8.7820910">
        <ele>2.3</ele>
        <time>2021-05-17T09:04:12Z</time>
      </trkpt>
      <trkpt lat="41.5301840" lon="-8.7820900">
        <ele>2.3</ele>
        <time>2021-05-17T09:04:13Z</time>
      </trkpt>
      <trkpt lat="41.5301840" lon="-8.7820900">
        <ele>2.3</ele>
        <time>2021-05-17T09:04:14Z</time>
      </trkpt>
      <trkpt lat="41.5301840" lon="-8.7820900">
        <ele>2.3</ele>
        <time>2021-05-17T09:04:15Z</time>
      </trkpt>
      <trkpt lat="41.5301840" lon="-8.7820900">
        <ele>2.3</ele>
        <time>2021-05-17T09:04:16Z</time>
      </trkpt>
      <trkpt lat="41.5301840" lon="-8.7820900">
        <ele>2.3</ele>
        <time>2021-05-17T09:04:17Z</time>
      </trkpt>
      <trkpt lat="41.5301840" lon="-8.7820900">
        <ele>2.3</ele>
        <time>2021-05-17T09:04:18Z</time>
      </trkpt>
      <trkpt lat="41.5301840" lon="-8.7820900">
        <ele>2.3</ele>
        <time>2021-05-17T09:04:19Z</time>
      </trkpt>
      <trkpt lat="41.5301840" lon="-8.7820890">
        <ele>2.3</ele>
        <time>2021-05-17T09:04:20Z</time>
      </trkpt>
      <trkpt lat="41.5301850" lon="-8.7820890">
        <ele>2.3</ele>
        <time>2021-05-17T09:04:21Z</time>
      </trkpt>
      <trkpt lat="41.5301850" lon="-8.7820890">
        <ele>2.3</ele>
        <time>2021-05-17T09:04:22Z</time>
      </trkpt>
      <trkpt lat="41.5301850" lon="-8.7820890">
        <ele>2.3</ele>
        <time>2021-05-17T09:04:23Z</time>
      </trkpt>
      <trkpt lat="41.5301850" lon="-8.7820890">
        <ele>2.3</ele>
        <time>2021-05-17T09:04:24Z</time>
      </trkpt>
      <trkpt lat="41.5301850" lon="-8.7820890">
        <ele>2.3</ele>
        <time>2021-05-17T09:04:25Z</time>
      </trkpt>
      <trkpt lat="41.5301850" lon="-8.7820890">
        <ele>2.3</ele>
        <time>2021-05-17T09:04:26Z</time>
      </trkpt>
      <trkpt lat="41.5301850" lon="-8.7820880">
        <ele>2.3</ele>
        <time>2021-05-17T09:04:27Z</time>
      </trkpt>
      <trkpt lat="41.5301850" lon="-8.7820880">
        <ele>2.3</ele>
        <time>2021-05-17T09:04:28Z</time>
      </trkpt>
      <trkpt lat="41.5301850" lon="-8.7820880">
        <ele>2.3</ele>
        <time>2021-05-17T09:04:29Z</time>
      </trkpt>
      <trkpt lat="41.5301850" lon="-8.7820880">
        <ele>2.3</ele>
        <time>2021-05-17T09:04:30Z</time>
      </trkpt>
      <trkpt lat="41.5301850" lon="-8.7820880">
        <ele>2.3</ele>
        <time>2021-05-17T09:04:31Z</time>
      </trkpt>
      <trkpt lat="41.5301850" lon="-8.7820880">
        <ele>2.3</ele>
        <time>2021-05-17T09:04:32Z</time>
      </trkpt>
      <trkpt lat="41.5301850" lon="-8.7820880">
        <ele>2.3</ele>
        <time>2021-05-17T09:04:33Z</time>
      </trkpt>
      <trkpt lat="41.5301850" lon="-8.7820870">
        <ele>2.3</ele>
        <time>2021-05-17T09:04:34Z</time>
      </trkpt>
      <trkpt lat="41.5301850" lon="-8.7820870">
        <ele>2.3</ele>
        <time>2021-05-17T09:04:35Z</time>
      </trkpt>
      <trkpt lat="41.5301850" lon="-8.7820870">
        <ele>2.3</ele>
        <time>2021-05-17T09:04:36Z</time>
      </trkpt>
      <trkpt lat="41.5301850" lon="-8.7820870">
        <ele>2.3</ele>
        <time>2021-05-17T09:04:37Z</time>
      </trkpt>
      <trkpt lat="41.5301850" lon="-8.7820870">
        <ele>2.3</ele>
        <time>2021-05-17T09:04:38Z</time>
      </trkpt>
      <trkpt lat="41.5301860" lon="-8.7820870">
        <ele>2.3</ele>
        <time>2021-05-17T09:04:39Z</time>
      </trkpt>
      <trkpt lat="41.5301860" lon="-8.7820860">
        <ele>2.3</ele>
        <time>2021-05-17T09:04:40Z</time>
      </trkpt>
      <trkpt lat="41.5301860" lon="-8.7820860">
        <ele>2.3</ele>
        <time>2021-05-17T09:04:41Z</time>
      </trkpt>
      <trkpt lat="41.5301860" lon="-8.7820860">
        <ele>2.3</ele>
        <time>2021-05-17T09:04:42Z</time>
      </trkpt>
      <trkpt lat="41.5301860" lon="-8.7820860">
        <ele>2.3</ele>
        <time>2021-05-17T09:04:43Z</time>
      </trkpt>
      <trkpt lat="41.5301860" lon="-8.7820860">
        <ele>2.3</ele>
        <time>2021-05-17T09:04:44Z</time>
      </trkpt>
      <trkpt lat="41.5301860" lon="-8.7820860">
        <ele>2.3</ele>
        <time>2021-05-17T09:04:45Z</time>
      </trkpt>
      <trkpt lat="41.5301860" lon="-8.7820860">
        <ele>2.3</ele>
        <time>2021-05-17T09:04:46Z</time>
      </trkpt>
      <trkpt lat="41.5301860" lon="-8.7820850">
        <ele>2.3</ele>
        <time>2021-05-17T09:04:47Z</time>
      </trkpt>
      <trkpt lat="41.5301860" lon="-8.7820850">
        <ele>2.3</ele>
        <time>2021-05-17T09:04:48Z</time>
      </trkpt>
      <trkpt lat="41.5301860" lon="-8.7820850">
        <ele>2.3</ele>
        <time>2021-05-17T09:04:49Z</time>
      </trkpt>
      <trkpt lat="41.5301860" lon="-8.7820850">
        <ele>2.3</ele>
        <time>2021-05-17T09:04:50Z</time>
      </trkpt>
      <trkpt lat="41.5301860" lon="-8.7820850">
        <ele>2.3</ele>
        <time>2021-05-17T09:04:51Z</time>
      </trkpt>
      <trkpt lat="41.5301860" lon="-8.7820850">
        <ele>2.3</ele>
        <time>2021-05-17T09:04:52Z</time>
      </trkpt>
      <trkpt lat="41.5301860" lon="-8.7820850">
        <ele>2.3</ele>
        <time>2021-05-17T09:04:53Z</time>
      </trkpt>
      <trkpt lat="41.5301860" lon="-8.7820840">
        <ele>2.3</ele>
        <time>2021-05-17T09:04:54Z</time>
      </trkpt>
      <trkpt lat="41.5301860" lon="-8.7820840">
        <ele>2.3</ele>
        <time>2021-05-17T09:04:55Z</time>
      </trkpt>
      <trkpt lat="41.5301860" lon="-8.7820840">
        <ele>2.3</ele>
        <time>2021-05-17T09:04:56Z</time>
      </trkpt>
      <trkpt lat="41.5301870" lon="-8.7820840">
        <ele>2.3</ele>
        <time>2021-05-17T09:04:57Z</time>
      </trkpt>
      <trkpt lat="41.5301870" lon="-8.7820840">
        <ele>2.3</ele>
        <time>2021-05-17T09:04:58Z</time>
      </trkpt>
      <trkpt lat="41.5301870" lon="-8.7820840">
        <ele>2.3</ele>
        <time>2021-05-17T09:04:59Z</time>
      </trkpt>
      <trkpt lat="41.5301870" lon="-8.7820840">
        <ele>2.3</ele>
        <time>2021-05-17T09:05:00Z</time>
      </trkpt>
      <trkpt lat="41.5301870" lon="-8.7820830">
        <ele>2.3</ele>
        <time>2021-05-17T09:05:01Z</time>
      </trkpt>
      <trkpt lat="41.5301870" lon="-8.7820830">
        <ele>2.3</ele>
        <time>2021-05-17T09:05:02Z</time>
      </trkpt>
      <trkpt lat="41.5301870" lon="-8.7820830">
        <ele>2.3</ele>
        <time>2021-05-17T09:05:03Z</time>
      </trkpt>
      <trkpt lat="41.5301870" lon="-8.7820830">
        <ele>2.3</ele>
        <time>2021-05-17T09:05:04Z</time>
      </trkpt>
      <trkpt lat="41.5301870" lon="-8.7820830">
        <ele>2.3</ele>
        <time>2021-05-17T09:05:05Z</time>
      </trkpt>
      <trkpt lat="41.5301870" lon="-8.7820830">
        <ele>2.3</ele>
        <time>2021-05-17T09:05:06Z</time>
      </trkpt>
      <trkpt lat="41.5301870" lon="-8.7820830">
        <ele>2.3</ele>
        <time>2021-05-17T09:05:07Z</time>
      </trkpt>
      <trkpt lat="41.5301870" lon="-8.7820820">
        <ele>2.3</ele>
        <time>2021-05-17T09:05:08Z</time>
      </trkpt>
      <trkpt lat="41.5301870" lon="-8.7820820">
        <ele>2.3</ele>
        <time>2021-05-17T09:05:09Z</time>
      </trkpt>
      <trkpt lat="41.5301870" lon="-8.7820820">
        <ele>2.3</ele>
        <time>2021-05-17T09:05:10Z</time>
      </trkpt>
      <trkpt lat="41.5301870" lon="-8.7820820">
        <ele>2.3</ele>
        <time>2021-05-17T09:05:11Z</time>
      </trkpt>
      <trkpt lat="41.5301870" lon="-8.7820820">
        <ele>2.3</ele>
        <time>2021-05-17T09:05:12Z</time>
      </trkpt>
      <trkpt lat="41.5301870" lon="-8.7820820">
        <ele>2.3</ele>
        <time>2021-05-17T09:05:13Z</time>
      </trkpt>
      <trkpt lat="41.5301870" lon="-8.7820820">
        <ele>2.3</ele>
        <time>2021-05-17T09:05:14Z</time>
      </trkpt>
      <trkpt lat="41.5301880" lon="-8.7820810">
        <ele>2.3</ele>
        <time>2021-05-17T09:05:15Z</time>
      </trkpt>
      <trkpt lat="41.5301880" lon="-8.7820810">
        <ele>2.3</ele>
        <time>2021-05-17T09:05:16Z</time>
      </trkpt>
      <trkpt lat="41.5301880" lon="-8.7820810">
        <ele>2.3</ele>
        <time>2021-05-17T09:05:17Z</time>
      </trkpt>
      <trkpt lat="41.5301880" lon="-8.7820810">
        <ele>2.3</ele>
        <time>2021-05-17T09:05:18Z</time>
      </trkpt>
      <trkpt lat="41.5301880" lon="-8.7820810">
        <ele>2.3</ele>
        <time>2021-05-17T09:05:19Z</time>
      </trkpt>
      <trkpt lat="41.5301880" lon="-8.7820810">
        <ele>2.3</ele>
        <time>2021-05-17T09:05:20Z</time>
      </trkpt>
      <trkpt lat="41.5301880" lon="-8.7820810">
        <ele>2.3</ele>
        <time>2021-05-17T09:05:21Z</time>
      </trkpt>
      <trkpt lat="41.5301880" lon="-8.7820800">
        <ele>2.3</ele>
        <time>2021-05-17T09:05:22Z</time>
      </trkpt>
      <trkpt lat="41.5301880" lon="-8.7820800">
        <ele>2.3</ele>
        <time>2021-05-17T09:05:23Z</time>
      </trkpt>
      <trkpt lat="41.5301880" lon="-8.7820800">
        <ele>2.3</ele>
        <time>2021-05-17T09:05:24Z</time>
      </trkpt>
      <trkpt lat="41.5301880" lon="-8.7820800">
        <ele>2.3</ele>
        <time>2021-05-17T09:05:25Z</time>
      </trkpt>
      <trkpt lat="41.5301880" lon="-8.7820800">
        <ele>2.3</ele>
        <time>2021-05-17T09:05:26Z</time>
      </trkpt>
      <trkpt lat="41.5301880" lon="-8.7820800">
        <ele>2.3</ele>
        <time>2021-05-17T09:05:27Z</time>
      </trkpt>
      <trkpt lat="41.5301880" lon="-8.7820800">
        <ele>2.3</ele>
        <time>2021-05-17T09:05:28Z</time>
      </trkpt>
      <trkpt lat="41.5301880" lon="-8.7820790">
        <ele>2.3</ele>
        <time>2021-05-17T09:05:29Z</time>
      </trkpt>
      <trkpt lat="41.5301880" lon="-8.7820790">
        <ele>2.3</ele>
        <time>2021-05-17T09:05:30Z</time>
      </trkpt>
      <trkpt lat="41.5301880" lon="-8.7820790">
        <ele>2.3</ele>
        <time>2021-05-17T09:05:31Z</time>
      </trkpt>
      <trkpt lat="41.5301880" lon="-8.7820790">
        <ele>2.3</ele>
        <time>2021-05-17T09:05:32Z</time>
      </trkpt>
      <trkpt lat="41.5301890" lon="-8.7820790">
        <ele>2.3</ele>
        <time>2021-05-17T09:05:33Z</time>
      </trkpt>
      <trkpt lat="41.5301890" lon="-8.7820790">
        <ele>2.3</ele>
        <time>2021-05-17T09:05:34Z</time>
      </trkpt>
      <trkpt lat="41.5301890" lon="-8.7820780">
        <ele>2.3</ele>
        <time>2021-05-17T09:05:35Z</time>
      </trkpt>
      <trkpt lat="41.5301890" lon="-8.7820780">
        <ele>2.3</ele>
        <time>2021-05-17T09:05:36Z</time>
      </trkpt>
      <trkpt lat="41.5301890" lon="-8.7820780">
        <ele>2.3</ele>
        <time>2021-05-17T09:05:37Z</time>
      </trkpt>
      <trkpt lat="41.5301890" lon="-8.7820780">
        <ele>2.3</ele>
        <time>2021-05-17T09:05:38Z</time>
      </trkpt>
      <trkpt lat="41.5301890" lon="-8.7820780">
        <ele>2.3</ele>
        <time>2021-05-17T09:05:39Z</time>
      </trkpt>
      <trkpt lat="41.5301890" lon="-8.7820780">
        <ele>2.3</ele>
        <time>2021-05-17T09:05:40Z</time>
      </trkpt>
      <trkpt lat="41.5301890" lon="-8.7820780">
        <ele>2.3</ele>
        <time>2021-05-17T09:05:41Z</time>
      </trkpt>
      <trkpt lat="41.5301890" lon="-8.7820770">
        <ele>2.3</ele>
        <time>2021-05-17T09:05:42Z</time>
      </trkpt>
      <trkpt lat="41.5301890" lon="-8.7820770">
        <ele>2.3</ele>
        <time>2021-05-17T09:05:43Z</time>
      </trkpt>
      <trkpt lat="41.5301890" lon="-8.7820770">
        <ele>2.3</ele>
        <time>2021-05-17T09:05:44Z</time>
      </trkpt>
      <trkpt lat="41.5301890" lon="-8.7820770">
        <ele>2.3</ele>
        <time>2021-05-17T09:05:45Z</time>
      </trkpt>
      <trkpt lat="41.5301890" lon="-8.7820770">
        <ele>2.3</ele>
        <time>2021-05-17T09:05:46Z</time>
      </trkpt>
      <trkpt lat="41.5301890" lon="-8.7820770">
        <ele>2.3</ele>
        <time>2021-05-17T09:05:47Z</time>
      </trkpt>
      <trkpt lat="41.5301890" lon="-8.7820770">
        <ele>2.3</ele>
        <time>2021-05-17T09:05:48Z</time>
      </trkpt>
      <trkpt lat="41.5301890" lon="-8.7820760">
        <ele>2.3</ele>
        <time>2021-05-17T09:05:49Z</time>
      </trkpt>
      <trkpt lat="41.5301890" lon="-8.7820760">
        <ele>2.3</ele>
        <time>2021-05-17T09:05:50Z</time>
      </trkpt>
      <trkpt lat="41.5301900" lon="-8.7820760">
        <ele>2.3</ele>
        <time>2021-05-17T09:05:51Z</time>
      </trkpt>
      <trkpt lat="41.5301900" lon="-8.7820760">
        <ele>2.3</ele>
        <time>2021-05-17T09:05:52Z</time>
      </trkpt>
      <trkpt lat="41.5301900" lon="-8.7820760">
        <ele>2.3</ele>
        <time>2021-05-17T09:05:53Z</time>
      </trkpt>
      <trkpt lat="41.5301900" lon="-8.7820760">
        <ele>2.3</ele>
        <time>2021-05-17T09:05:54Z</time>
      </trkpt>
      <trkpt lat="41.5301900" lon="-8.7820760">
        <ele>2.3</ele>
        <time>2021-05-17T09:05:55Z</time>
      </trkpt>
      <trkpt lat="41.5301900" lon="-8.7820750">
        <ele>2.3</ele>
        <time>2021-05-17T09:05:56Z</time>
      </trkpt>
      <trkpt lat="41.5301900" lon="-8.7820750">
        <ele>2.3</ele>
        <time>2021-05-17T09:05:57Z</time>
      </trkpt>
      <trkpt lat="41.5301900" lon="-8.7820750">
        <ele>2.3</ele>
        <time>2021-05-17T09:05:58Z</time>
      </trkpt>
      <trkpt lat="41.5301900" lon="-8.7820750">
        <ele>2.3</ele>
        <time>2021-05-17T09:05:59Z</time>
      </trkpt>
      <trkpt lat="41.5301900" lon="-8.7820750">
        <ele>2.3</ele>
        <time>2021-05-17T09:06:00Z</time>
      </trkpt>
      <trkpt lat="41.5301900" lon="-8.7820750">
        <ele>2.3</ele>
        <time>2021-05-17T09:06:01Z</time>
      </trkpt>
      <trkpt lat="41.5301900" lon="-8.7820750">
        <ele>2.3</ele>
        <time>2021-05-17T09:06:02Z</time>
      </trkpt>
      <trkpt lat="41.5301900" lon="-8.7820740">
        <ele>2.3</ele>
        <time>2021-05-17T09:06:03Z</time>
      </trkpt>
      <trkpt lat="41.5301900" lon="-8.7820740">
        <ele>2.3</ele>
        <time>2021-05-17T09:06:04Z</time>
      </trkpt>
      <trkpt lat="41.5301900" lon="-8.7820740">
        <ele>2.3</ele>
        <time>2021-05-17T09:06:05Z</time>
      </trkpt>
      <trkpt lat="41.5301900" lon="-8.7820740">
        <ele>2.3</ele>
        <time>2021-05-17T09:06:06Z</time>
      </trkpt>
      <trkpt lat="41.5301900" lon="-8.7820740">
        <ele>2.3</ele>
        <time>2021-05-17T09:06:07Z</time>
      </trkpt>
      <trkpt lat="41.5301900" lon="-8.7820740">
        <ele>2.3</ele>
        <time>2021-05-17T09:06:08Z</time>
      </trkpt>
      <trkpt lat="41.5301910" lon="-8.7820740">
        <ele>2.3</ele>
        <time>2021-05-17T09:06:09Z</time>
      </trkpt>
      <trkpt lat="41.5301910" lon="-8.7820730">
        <ele>2.3</ele>
        <time>2021-05-17T09:06:10Z</time>
      </trkpt>
      <trkpt lat="41.5301910" lon="-8.7820730">
        <ele>2.3</ele>
        <time>2021-05-17T09:06:11Z</time>
      </trkpt>
      <trkpt lat="41.5301910" lon="-8.7820730">
        <ele>2.3</ele>
        <time>2021-05-17T09:06:12Z</time>
      </trkpt>
      <trkpt lat="41.5301910" lon="-8.7820730">
        <ele>2.3</ele>
        <time>2021-05-17T09:06:13Z</time>
      </trkpt>
      <trkpt lat="41.5301910" lon="-8.7820730">
        <ele>2.3</ele>
        <time>2021-05-17T09:06:14Z</time>
      </trkpt>
      <trkpt lat="41.5301910" lon="-8.7820730">
        <ele>2.3</ele>
        <time>2021-05-17T09:06:15Z</time>
      </trkpt>
      <trkpt lat="41.5301910" lon="-8.7820730">
        <ele>2.3</ele>
        <time>2021-05-17T09:06:16Z</time>
      </trkpt>
      <trkpt lat="41.5301910" lon="-8.7820720">
        <ele>2.3</ele>
        <time>2021-05-17T09:06:17Z</time>
      </trkpt>
      <trkpt lat="41.5301910" lon="-8.7820720">
        <ele>2.3</ele>
        <time>2021-05-17T09:06:18Z</time>
      </trkpt>
      <trkpt lat="41.5301910" lon="-8.7820720">
        <ele>2.3</ele>
        <time>2021-05-17T09:06:19Z</time>
      </trkpt>
      <trkpt lat="41.5301910" lon="-8.7820720">
        <ele>2.3</ele>
        <time>2021-05-17T09:06:20Z</time>
      </trkpt>
      <trkpt lat="41.5301910" lon="-8.7820720">
        <ele>2.3</ele>
        <time>2021-05-17T09:06:21Z</time>
      </trkpt>
      <trkpt lat="41.5301910" lon="-8.7820720">
        <ele>2.3</ele>
        <time>2021-05-17T09:06:22Z</time>
      </trkpt>
      <trkpt lat="41.5301910" lon="-8.7820720">
        <ele>2.3</ele>
        <time>2021-05-17T09:06:23Z</time>
      </trkpt>
      <trkpt lat="41.5301910" lon="-8.7820710">
        <ele>2.3</ele>
        <time>2021-05-17T09:06:24Z</time>
      </trkpt>
      <trkpt lat="41.5301910" lon="-8.7820710">
        <ele>2.3</ele>
        <time>2021-05-17T09:06:25Z</time>
      </trkpt>
      <trkpt lat="41.5301910" lon="-8.7820710">
        <ele>2.3</ele>
        <time>2021-05-17T09:06:26Z</time>
      </trkpt>
      <trkpt lat="41.5301920" lon="-8.7820710">
        <ele>2.3</ele>
        <time>2021-05-17T09:06:27Z</time>
      </trkpt>
      <trkpt lat="41.5301920" lon="-8.7820710">
        <ele>2.3</ele>
        <time>2021-05-17T09:06:28Z</time>
      </trkpt>
      <trkpt lat="41.5301920" lon="-8.7820710">
        <ele>2.3</ele>
        <time>2021-05-17T09:06:29Z</time>
      </trkpt>
      <trkpt lat="41.5301920" lon="-8.7820700">
        <ele>2.3</ele>
        <time>2021-05-17T09:06:30Z</time>
      </trkpt>
      <trkpt lat="41.5301920" lon="-8.7820700">
        <ele>2.3</ele>
        <time>2021-05-17T09:06:31Z</time>
      </trkpt>
      <trkpt lat="41.5301920" lon="-8.7820700">
        <ele>2.3</ele>
        <time>2021-05-17T09:06:32Z</time>
      </trkpt>
      <trkpt lat="41.5301920" lon="-8.7820700">
        <ele>2.3</ele>
        <time>2021-05-17T09:06:33Z</time>
      </trkpt>
      <trkpt lat="41.5301920" lon="-8.7820700">
        <ele>2.3</ele>
        <time>2021-05-17T09:06:34Z</time>
      </trkpt>
      <trkpt lat="41.5301920" lon="-8.7820700">
        <ele>2.3</ele>
        <time>2021-05-17T09:06:35Z</time>
      </trkpt>
      <trkpt lat="41.5301920" lon="-8.7820700">
        <ele>2.3</ele>
        <time>2021-05-17T09:06:36Z</time>
      </trkpt>
      <trkpt lat="41.5301920" lon="-8.7820690">
        <ele>2.3</ele>
        <time>2021-05-17T09:06:37Z</time>
      </trkpt>
      <trkpt lat="41.5301920" lon="-8.7820690">
        <ele>2.3</ele>
        <time>2021-05-17T09:06:38Z</time>
      </trkpt>
      <trkpt lat="41.5301920" lon="-8.7820690">
        <ele>2.3</ele>
        <time>2021-05-17T09:06:39Z</time>
      </trkpt>
      <trkpt lat="41.5301920" lon="-8.7820690">
        <ele>2.3</ele>
        <time>2021-05-17T09:06:40Z</time>
      </trkpt>
      <trkpt lat="41.5301920" lon="-8.7820690">
        <ele>2.3</ele>
        <time>2021-05-17T09:06:41Z</time>
      </trkpt>
      <trkpt lat="41.5301920" lon="-8.7820690">
        <ele>2.3</ele>
        <time>2021-05-17T09:06:42Z</time>
      </trkpt>
      <trkpt lat="41.5301920" lon="-8.7820690">
        <ele>2.3</ele>
        <time>2021-05-17T09:06:43Z</time>
      </trkpt>
      <trkpt lat="41.5301920" lon="-8.7820680">
        <ele>2.3</ele>
        <time>2021-05-17T09:06:44Z</time>
      </trkpt>
      <trkpt lat="41.5301930" lon="-8.7820680">
        <ele>2.3</ele>
        <time>2021-05-17T09:06:45Z</time>
      </trkpt>
      <trkpt lat="41.5301930" lon="-8.7820680">
        <ele>2.3</ele>
        <time>2021-05-17T09:06:46Z</time>
      </trkpt>
      <trkpt lat="41.5301930" lon="-8.7820680">
        <ele>2.3</ele>
        <time>2021-05-17T09:06:47Z</time>
      </trkpt>
      <trkpt lat="41.5301930" lon="-8.7820680">
        <ele>2.3</ele>
        <time>2021-05-17T09:06:48Z</time>
      </trkpt>
      <trkpt lat="41.5301930" lon="-8.7820680">
        <ele>2.3</ele>
        <time>2021-05-17T09:06:49Z</time>
      </trkpt>
      <trkpt lat="41.5301930" lon="-8.7820680">
        <ele>2.3</ele>
        <time>2021-05-17T09:06:50Z</time>
      </trkpt>
      <trkpt lat="41.5301930" lon="-8.7820670">
        <ele>2.3</ele>
        <time>2021-05-17T09:06:51Z</time>
      </trkpt>
      <trkpt lat="41.5301930" lon="-8.7820670">
        <ele>2.3</ele>
        <time>2021-05-17T09:06:52Z</time>
      </trkpt>
      <trkpt lat="41.5301930" lon="-8.7820670">
        <ele>2.3</ele>
        <time>2021-05-17T09:06:53Z</time>
      </trkpt>
      <trkpt lat="41.5301930" lon="-8.7820670">
        <ele>2.3</ele>
        <time>2021-05-17T09:06:54Z</time>
      </trkpt>
      <trkpt lat="41.5301910" lon="-8.7820700">
        <ele>2.3</ele>
        <time>2021-05-17T09:06:55Z</time>
      </trkpt>
      <trkpt lat="41.5301900" lon="-8.7820710">
        <ele>2.3</ele>
        <time>2021-05-17T09:06:56Z</time>
      </trkpt>
      <trkpt lat="41.5301900" lon="-8.7820730">
        <ele>2.3</ele>
        <time>2021-05-17T09:06:57Z</time>
      </trkpt>
      <trkpt lat="41.5301890" lon="-8.7820750">
        <ele>2.3</ele>
        <time>2021-05-17T09:06:58Z</time>
      </trkpt>
      <trkpt lat="41.5301880" lon="-8.7820760">
        <ele>2.3</ele>
        <time>2021-05-17T09:06:59Z</time>
      </trkpt>
      <trkpt lat="41.5301870" lon="-8.7820780">
        <ele>2.3</ele>
        <time>2021-05-17T09:07:00Z</time>
      </trkpt>
      <trkpt lat="41.5301860" lon="-8.7820800">
        <ele>2.3</ele>
        <time>2021-05-17T09:07:01Z</time>
      </trkpt>
      <trkpt lat="41.5301850" lon="-8.7820810">
        <ele>2.3</ele>
        <time>2021-05-17T09:07:02Z</time>
      </trkpt>
      <trkpt lat="41.5301850" lon="-8.7820830">
        <ele>2.3</ele>
        <time>2021-05-17T09:07:03Z</time>
      </trkpt>
      <trkpt lat="41.5301840" lon="-8.7820850">
        <ele>2.3</ele>
        <time>2021-05-17T09:07:04Z</time>
      </trkpt>
      <trkpt lat="41.5301830" lon="-8.7820860">
        <ele>2.3</ele>
        <time>2021-05-17T09:07:05Z</time>
      </trkpt>
      <trkpt lat="41.5301820" lon="-8.7820880">
        <ele>2.3</ele>
        <time>2021-05-17T09:07:06Z</time>
      </trkpt>
      <trkpt lat="41.5301810" lon="-8.7820900">
        <ele>2.3</ele>
        <time>2021-05-17T09:07:07Z</time>
      </trkpt>
      <trkpt lat="41.5301810" lon="-8.7820910">
        <ele>2.3</ele>
        <time>2021-05-17T09:07:08Z</time>
      </trkpt>
      <trkpt lat="41.5301800" lon="-8.7820930">
        <ele>2.3</ele>
        <time>2021-05-17T09:07:09Z</time>
      </trkpt>
      <trkpt lat="41.5301790" lon="-8.7820950">
        <ele>2.3</ele>
        <time>2021-05-17T09:07:10Z</time>
      </trkpt>
      <trkpt lat="41.5301780" lon="-8.7820960">
        <ele>2.3</ele>
        <time>2021-05-17T09:07:11Z</time>
      </trkpt>
      <trkpt lat="41.5301770" lon="-8.7820980">
        <ele>2.3</ele>
        <time>2021-05-17T09:07:12Z</time>
      </trkpt>
      <trkpt lat="41.5301770" lon="-8.7821000">
        <ele>2.3</ele>
        <time>2021-05-17T09:07:13Z</time>
      </trkpt>
      <trkpt lat="41.5301760" lon="-8.7821010">
        <ele>2.3</ele>
        <time>2021-05-17T09:07:14Z</time>
      </trkpt>
      <trkpt lat="41.5301750" lon="-8.7821030">
        <ele>2.3</ele>
        <time>2021-05-17T09:07:15Z</time>
      </trkpt>
      <trkpt lat="41.5301740" lon="-8.7821050">
        <ele>2.3</ele>
        <time>2021-05-17T09:07:16Z</time>
      </trkpt>
      <trkpt lat="41.5301730" lon="-8.7821060">
        <ele>2.3</ele>
        <time>2021-05-17T09:07:17Z</time>
      </trkpt>
      <trkpt lat="41.5301720" lon="-8.7821080">
        <ele>2.3</ele>
        <time>2021-05-17T09:07:18Z</time>
      </trkpt>
      <trkpt lat="41.5301720" lon="-8.7821100">
        <ele>2.3</ele>
        <time>2021-05-17T09:07:19Z</time>
      </trkpt>
      <trkpt lat="41.5301710" lon="-8.7821110">
        <ele>2.3</ele>
        <time>2021-05-17T09:07:20Z</time>
      </trkpt>
      <trkpt lat="41.5301700" lon="-8.7821130">
        <ele>2.3</ele>
        <time>2021-05-17T09:07:21Z</time>
      </trkpt>
      <trkpt lat="41.5301700" lon="-8.7821130">
        <ele>2.3</ele>
        <time>2021-05-17T09:07:22Z</time>
      </trkpt>
      <trkpt lat="41.5301700" lon="-8.7821250">
        <ele>2.3</ele>
        <time>2021-05-17T09:07:23Z</time>
      </trkpt>
      <trkpt lat="41.5301700" lon="-8.7821250">
        <ele>2.3</ele>
        <time>2021-05-17T09:07:24Z</time>
      </trkpt>
      <trkpt lat="41.5301700" lon="-8.7821250">
        <ele>2.3</ele>
        <time>2021-05-17T09:07:25Z</time>
      </trkpt>
      <trkpt lat="41.5301700" lon="-8.7821250">
        <ele>2.3</ele>
        <time>2021-05-17T09:07:26Z</time>
      </trkpt>
      <trkpt lat="41.5301690" lon="-8.7821260">
        <ele>2.3</ele>
        <time>2021-05-17T09:07:27Z</time>
      </trkpt>
      <trkpt lat="41.5301680" lon="-8.7821260">
        <ele>2.3</ele>
        <time>2021-05-17T09:07:28Z</time>
      </trkpt>
      <trkpt lat="41.5301680" lon="-8.7821300">
        <ele>2.3</ele>
        <time>2021-05-17T09:07:29Z</time>
      </trkpt>
      <trkpt lat="41.5301640" lon="-8.7821330">
        <ele>2.3</ele>
        <time>2021-05-17T09:07:30Z</time>
      </trkpt>
      <trkpt lat="41.5301650" lon="-8.7821310">
        <ele>2.3</ele>
        <time>2021-05-17T09:07:31Z</time>
      </trkpt>
      <trkpt lat="41.5301620" lon="-8.7821310">
        <ele>2.3</ele>
        <time>2021-05-17T09:07:32Z</time>
      </trkpt>
      <trkpt lat="41.5301620" lon="-8.7821280">
        <ele>2.3</ele>
        <time>2021-05-17T09:07:33Z</time>
      </trkpt>
      <trkpt lat="41.5301620" lon="-8.7821280">
        <ele>2.3</ele>
        <time>2021-05-17T09:07:34Z</time>
      </trkpt>
      <trkpt lat="41.5301600" lon="-8.7821280">
        <ele>2.3</ele>
        <time>2021-05-17T09:07:35Z</time>
      </trkpt>
      <trkpt lat="41.5301590" lon="-8.7821280">
        <ele>2.3</ele>
        <time>2021-05-17T09:07:36Z</time>
      </trkpt>
      <trkpt lat="41.5301560" lon="-8.7821290">
        <ele>2.3</ele>
        <time>2021-05-17T09:07:37Z</time>
      </trkpt>
      <trkpt lat="41.5301540" lon="-8.7821280">
        <ele>2.3</ele>
        <time>2021-05-17T09:07:38Z</time>
      </trkpt>
      <trkpt lat="41.5301480" lon="-8.7821230">
        <ele>2.3</ele>
        <time>2021-05-17T09:07:39Z</time>
      </trkpt>
      <trkpt lat="41.5301480" lon="-8.7821230">
        <ele>2.3</ele>
        <time>2021-05-17T09:07:40Z</time>
      </trkpt>
      <trkpt lat="41.5301390" lon="-8.7821270">
        <ele>2.3</ele>
        <time>2021-05-17T09:07:41Z</time>
      </trkpt>
      <trkpt lat="41.5301390" lon="-8.7821270">
        <ele>2.3</ele>
        <time>2021-05-17T09:07:42Z</time>
      </trkpt>
      <trkpt lat="41.5301390" lon="-8.7821260">
        <ele>2.3</ele>
        <time>2021-05-17T09:07:43Z</time>
      </trkpt>
      <trkpt lat="41.5301390" lon="-8.7821260">
        <ele>2.3</ele>
        <time>2021-05-17T09:07:44Z</time>
      </trkpt>
      <trkpt lat="41.5301390" lon="-8.7821260">
        <ele>2.3</ele>
        <time>2021-05-17T09:07:45Z</time>
      </trkpt>
      <trkpt lat="41.5301390" lon="-8.7821250">
        <ele>2.3</ele>
        <time>2021-05-17T09:07:46Z</time>
      </trkpt>
      <trkpt lat="41.5301390" lon="-8.7821250">
        <ele>2.3</ele>
        <time>2021-05-17T09:07:47Z</time>
      </trkpt>
      <trkpt lat="41.5301390" lon="-8.7821250">
        <ele>2.3</ele>
        <time>2021-05-17T09:07:48Z</time>
      </trkpt>
      <trkpt lat="41.5301390" lon="-8.7821240">
        <ele>2.3</ele>
        <time>2021-05-17T09:07:49Z</time>
      </trkpt>
      <trkpt lat="41.5301380" lon="-8.7821240">
        <ele>2.3</ele>
        <time>2021-05-17T09:07:50Z</time>
      </trkpt>
      <trkpt lat="41.5301380" lon="-8.7821240">
        <ele>2.3</ele>
        <time>2021-05-17T09:07:51Z</time>
      </trkpt>
      <trkpt lat="41.5301380" lon="-8.7821230">
        <ele>2.3</ele>
        <time>2021-05-17T09:07:52Z</time>
      </trkpt>
      <trkpt lat="41.5301380" lon="-8.7821230">
        <ele>2.3</ele>
        <time>2021-05-17T09:07:53Z</time>
      </trkpt>
      <trkpt lat="41.5301380" lon="-8.7821230">
        <ele>2.3</ele>
        <time>2021-05-17T09:07:54Z</time>
      </trkpt>
      <trkpt lat="41.5301380" lon="-8.7821220">
        <ele>2.3</ele>
        <time>2021-05-17T09:07:55Z</time>
      </trkpt>
      <trkpt lat="41.5301380" lon="-8.7821220">
        <ele>2.3</ele>
        <time>2021-05-17T09:07:56Z</time>
      </trkpt>
      <trkpt lat="41.5301380" lon="-8.7821220">
        <ele>2.3</ele>
        <time>2021-05-17T09:07:57Z</time>
      </trkpt>
      <trkpt lat="41.5301380" lon="-8.7821210">
        <ele>2.3</ele>
        <time>2021-05-17T09:07:58Z</time>
      </trkpt>
      <trkpt lat="41.5301380" lon="-8.7821210">
        <ele>2.3</ele>
        <time>2021-05-17T09:07:59Z</time>
      </trkpt>
      <trkpt lat="41.5301380" lon="-8.7821210">
        <ele>2.3</ele>
        <time>2021-05-17T09:08:00Z</time>
      </trkpt>
      <trkpt lat="41.5301380" lon="-8.7821200">
        <ele>2.3</ele>
        <time>2021-05-17T09:08:01Z</time>
      </trkpt>
      <trkpt lat="41.5301380" lon="-8.7821200">
        <ele>2.3</ele>
        <time>2021-05-17T09:08:02Z</time>
      </trkpt>
      <trkpt lat="41.5301380" lon="-8.7821200">
        <ele>2.3</ele>
        <time>2021-05-17T09:08:03Z</time>
      </trkpt>
      <trkpt lat="41.5301380" lon="-8.7821190">
        <ele>2.3</ele>
        <time>2021-05-17T09:08:04Z</time>
      </trkpt>
      <trkpt lat="41.5301380" lon="-8.7821190">
        <ele>2.3</ele>
        <time>2021-05-17T09:08:05Z</time>
      </trkpt>
      <trkpt lat="41.5301370" lon="-8.7821190">
        <ele>2.3</ele>
        <time>2021-05-17T09:08:06Z</time>
      </trkpt>
      <trkpt lat="41.5301370" lon="-8.7821190">
        <ele>2.3</ele>
        <time>2021-05-17T09:08:07Z</time>
      </trkpt>
      <trkpt lat="41.5301370" lon="-8.7821180">
        <ele>2.3</ele>
        <time>2021-05-17T09:08:08Z</time>
      </trkpt>
      <trkpt lat="41.5301370" lon="-8.7821180">
        <ele>2.3</ele>
        <time>2021-05-17T09:08:09Z</time>
      </trkpt>
      <trkpt lat="41.5301370" lon="-8.7821180">
        <ele>2.3</ele>
        <time>2021-05-17T09:08:10Z</time>
      </trkpt>
      <trkpt lat="41.5301370" lon="-8.7821170">
        <ele>2.3</ele>
        <time>2021-05-17T09:08:11Z</time>
      </trkpt>
      <trkpt lat="41.5301370" lon="-8.7821170">
        <ele>2.3</ele>
        <time>2021-05-17T09:08:12Z</time>
      </trkpt>
      <trkpt lat="41.5301370" lon="-8.7821170">
        <ele>2.3</ele>
        <time>2021-05-17T09:08:13Z</time>
      </trkpt>
      <trkpt lat="41.5301370" lon="-8.7821160">
        <ele>2.3</ele>
        <time>2021-05-17T09:08:14Z</time>
      </trkpt>
      <trkpt lat="41.5301370" lon="-8.7821160">
        <ele>2.3</ele>
        <time>2021-05-17T09:08:15Z</time>
      </trkpt>
      <trkpt lat="41.5301370" lon="-8.7821160">
        <ele>2.3</ele>
        <time>2021-05-17T09:08:16Z</time>
      </trkpt>
      <trkpt lat="41.5301370" lon="-8.7821150">
        <ele>2.3</ele>
        <time>2021-05-17T09:08:17Z</time>
      </trkpt>
      <trkpt lat="41.5301370" lon="-8.7821150">
        <ele>2.3</ele>
        <time>2021-05-17T09:08:18Z</time>
      </trkpt>
      <trkpt lat="41.5301370" lon="-8.7821150">
        <ele>2.3</ele>
        <time>2021-05-17T09:08:19Z</time>
      </trkpt>
      <trkpt lat="41.5301370" lon="-8.7821140">
        <ele>2.3</ele>
        <time>2021-05-17T09:08:20Z</time>
      </trkpt>
      <trkpt lat="41.5301370" lon="-8.7821140">
        <ele>2.3</ele>
        <time>2021-05-17T09:08:21Z</time>
      </trkpt>
      <trkpt lat="41.5301360" lon="-8.7821140">
        <ele>2.3</ele>
        <time>2021-05-17T09:08:22Z</time>
      </trkpt>
      <trkpt lat="41.5301360" lon="-8.7821130">
        <ele>2.3</ele>
        <time>2021-05-17T09:08:23Z</time>
      </trkpt>
      <trkpt lat="41.5301360" lon="-8.7821130">
        <ele>2.3</ele>
        <time>2021-05-17T09:08:24Z</time>
      </trkpt>
      <trkpt lat="41.5301360" lon="-8.7821130">
        <ele>2.3</ele>
        <time>2021-05-17T09:08:25Z</time>
      </trkpt>
      <trkpt lat="41.5301360" lon="-8.7821120">
        <ele>2.3</ele>
        <time>2021-05-17T09:08:26Z</time>
      </trkpt>
      <trkpt lat="41.5301360" lon="-8.7821120">
        <ele>2.3</ele>
        <time>2021-05-17T09:08:27Z</time>
      </trkpt>
      <trkpt lat="41.5301360" lon="-8.7821120">
        <ele>2.3</ele>
        <time>2021-05-17T09:08:28Z</time>
      </trkpt>
      <trkpt lat="41.5301360" lon="-8.7821110">
        <ele>2.3</ele>
        <time>2021-05-17T09:08:29Z</time>
      </trkpt>
      <trkpt lat="41.5301360" lon="-8.7821110">
        <ele>2.3</ele>
        <time>2021-05-17T09:08:30Z</time>
      </trkpt>
      <trkpt lat="41.5301360" lon="-8.7821110">
        <ele>2.3</ele>
        <time>2021-05-17T09:08:31Z</time>
      </trkpt>
      <trkpt lat="41.5301360" lon="-8.7821100">
        <ele>2.3</ele>
        <time>2021-05-17T09:08:32Z</time>
      </trkpt>
      <trkpt lat="41.5301360" lon="-8.7821100">
        <ele>2.3</ele>
        <time>2021-05-17T09:08:33Z</time>
      </trkpt>
      <trkpt lat="41.5301360" lon="-8.7821100">
        <ele>2.3</ele>
        <time>2021-05-17T09:08:34Z</time>
      </trkpt>
      <trkpt lat="41.5301360" lon="-8.7821090">
        <ele>2.3</ele>
        <time>2021-05-17T09:08:35Z</time>
      </trkpt>
      <trkpt lat="41.5301360" lon="-8.7821090">
        <ele>2.3</ele>
        <time>2021-05-17T09:08:36Z</time>
      </trkpt>
      <trkpt lat="41.5301360" lon="-8.7821090">
        <ele>2.3</ele>
        <time>2021-05-17T09:08:37Z</time>
      </trkpt>
      <trkpt lat="41.5301350" lon="-8.7821080">
        <ele>2.3</ele>
        <time>2021-05-17T09:08:38Z</time>
      </trkpt>
      <trkpt lat="41.5301350" lon="-8.7821080">
        <ele>2.3</ele>
        <time>2021-05-17T09:08:39Z</time>
      </trkpt>
      <trkpt lat="41.5301350" lon="-8.7821080">
        <ele>2.3</ele>
        <time>2021-05-17T09:08:40Z</time>
      </trkpt>
      <trkpt lat="41.5301350" lon="-8.7821070">
        <ele>2.3</ele>
        <time>2021-05-17T09:08:41Z</time>
      </trkpt>
      <trkpt lat="41.5301350" lon="-8.7821070">
        <ele>2.3</ele>
        <time>2021-05-17T09:08:42Z</time>
      </trkpt>
      <trkpt lat="41.5301350" lon="-8.7821070">
        <ele>2.3</ele>
        <time>2021-05-17T09:08:43Z</time>
      </trkpt>
      <trkpt lat="41.5301350" lon="-8.7821060">
        <ele>2.3</ele>
        <time>2021-05-17T09:08:44Z</time>
      </trkpt>
      <trkpt lat="41.5301350" lon="-8.7821060">
        <ele>2.3</ele>
        <time>2021-05-17T09:08:45Z</time>
      </trkpt>
      <trkpt lat="41.5301350" lon="-8.7821060">
        <ele>2.3</ele>
        <time>2021-05-17T09:08:46Z</time>
      </trkpt>
      <trkpt lat="41.5301350" lon="-8.7821050">
        <ele>2.3</ele>
        <time>2021-05-17T09:08:47Z</time>
      </trkpt>
      <trkpt lat="41.5301350" lon="-8.7821050">
        <ele>2.3</ele>
        <time>2021-05-17T09:08:48Z</time>
      </trkpt>
      <trkpt lat="41.5301350" lon="-8.7821050">
        <ele>2.3</ele>
        <time>2021-05-17T09:08:49Z</time>
      </trkpt>
      <trkpt lat="41.5301350" lon="-8.7821040">
        <ele>2.3</ele>
        <time>2021-05-17T09:08:50Z</time>
      </trkpt>
      <trkpt lat="41.5301350" lon="-8.7821040">
        <ele>2.3</ele>
        <time>2021-05-17T09:08:51Z</time>
      </trkpt>
      <trkpt lat="41.5301350" lon="-8.7821040">
        <ele>2.3</ele>
        <time>2021-05-17T09:08:52Z</time>
      </trkpt>
      <trkpt lat="41.5301350" lon="-8.7821030">
        <ele>2.3</ele>
        <time>2021-05-17T09:08:53Z</time>
      </trkpt>
      <trkpt lat="41.5301340" lon="-8.7821030">
        <ele>2.3</ele>
        <time>2021-05-17T09:08:54Z</time>
      </trkpt>
      <trkpt lat="41.5301340" lon="-8.7821030">
        <ele>2.3</ele>
        <time>2021-05-17T09:08:55Z</time>
      </trkpt>
      <trkpt lat="41.5301340" lon="-8.7821030">
        <ele>2.3</ele>
        <time>2021-05-17T09:08:56Z</time>
      </trkpt>
      <trkpt lat="41.5301340" lon="-8.7821020">
        <ele>2.3</ele>
        <time>2021-05-17T09:08:57Z</time>
      </trkpt>
      <trkpt lat="41.5301340" lon="-8.7821020">
        <ele>2.3</ele>
        <time>2021-05-17T09:08:58Z</time>
      </trkpt>
      <trkpt lat="41.5301340" lon="-8.7821020">
        <ele>2.3</ele>
        <time>2021-05-17T09:08:59Z</time>
      </trkpt>
      <trkpt lat="41.5301340" lon="-8.7821010">
        <ele>2.3</ele>
        <time>2021-05-17T09:09:00Z</time>
      </trkpt>
      <trkpt lat="41.5301340" lon="-8.7821010">
        <ele>2.3</ele>
        <time>2021-05-17T09:09:01Z</time>
      </trkpt>
      <trkpt lat="41.5301340" lon="-8.7821010">
        <ele>2.3</ele>
        <time>2021-05-17T09:09:02Z</time>
      </trkpt>
      <trkpt lat="41.5301340" lon="-8.7821000">
        <ele>2.3</ele>
        <time>2021-05-17T09:09:03Z</time>
      </trkpt>
      <trkpt lat="41.5301340" lon="-8.7821000">
        <ele>2.3</ele>
        <time>2021-05-17T09:09:04Z</time>
      </trkpt>
      <trkpt lat="41.5301340" lon="-8.7821000">
        <ele>2.3</ele>
        <time>2021-05-17T09:09:05Z</time>
      </trkpt>
      <trkpt lat="41.5301340" lon="-8.7820990">
        <ele>2.3</ele>
        <time>2021-05-17T09:09:06Z</time>
      </trkpt>
      <trkpt lat="41.5301340" lon="-8.7820990">
        <ele>2.3</ele>
        <time>2021-05-17T09:09:07Z</time>
      </trkpt>
      <trkpt lat="41.5301340" lon="-8.7820990">
        <ele>2.3</ele>
        <time>2021-05-17T09:09:08Z</time>
      </trkpt>
      <trkpt lat="41.5301340" lon="-8.7820980">
        <ele>2.3</ele>
        <time>2021-05-17T09:09:09Z</time>
      </trkpt>
      <trkpt lat="41.5301330" lon="-8.7820980">
        <ele>2.3</ele>
        <time>2021-05-17T09:09:10Z</time>
      </trkpt>
      <trkpt lat="41.5301330" lon="-8.7820980">
        <ele>2.3</ele>
        <time>2021-05-17T09:09:11Z</time>
      </trkpt>
      <trkpt lat="41.5301330" lon="-8.7820970">
        <ele>2.3</ele>
        <time>2021-05-17T09:09:12Z</time>
      </trkpt>
      <trkpt lat="41.5301330" lon="-8.7820970">
        <ele>2.3</ele>
        <time>2021-05-17T09:09:13Z</time>
      </trkpt>
      <trkpt lat="41.5301330" lon="-8.7820970">
        <ele>2.3</ele>
        <time>2021-05-17T09:09:14Z</time>
      </trkpt>
      <trkpt lat="41.5301330" lon="-8.7820960">
        <ele>2.3</ele>
        <time>2021-05-17T09:09:15Z</time>
      </trkpt>
      <trkpt lat="41.5301330" lon="-8.7820960">
        <ele>2.3</ele>
        <time>2021-05-17T09:09:16Z</time>
      </trkpt>
      <trkpt lat="41.5301330" lon="-8.7820960">
        <ele>2.3</ele>
        <time>2021-05-17T09:09:17Z</time>
      </trkpt>
      <trkpt lat="41.5301330" lon="-8.7820950">
        <ele>2.3</ele>
        <time>2021-05-17T09:09:18Z</time>
      </trkpt>
      <trkpt lat="41.5301330" lon="-8.7820950">
        <ele>2.3</ele>
        <time>2021-05-17T09:09:19Z</time>
      </trkpt>
      <trkpt lat="41.5301330" lon="-8.7820950">
        <ele>2.3</ele>
        <time>2021-05-17T09:09:20Z</time>
      </trkpt>
      <trkpt lat="41.5301330" lon="-8.7820940">
        <ele>2.3</ele>
        <time>2021-05-17T09:09:21Z</time>
      </trkpt>
      <trkpt lat="41.5301330" lon="-8.7820940">
        <ele>2.3</ele>
        <time>2021-05-17T09:09:22Z</time>
      </trkpt>
      <trkpt lat="41.5301330" lon="-8.7820940">
        <ele>2.3</ele>
        <time>2021-05-17T09:09:23Z</time>
      </trkpt>
      <trkpt lat="41.5301330" lon="-8.7820930">
        <ele>2.3</ele>
        <time>2021-05-17T09:09:24Z</time>
      </trkpt>
      <trkpt lat="41.5301330" lon="-8.7820930">
        <ele>2.3</ele>
        <time>2021-05-17T09:09:25Z</time>
      </trkpt>
      <trkpt lat="41.5301320" lon="-8.7820930">
        <ele>2.3</ele>
        <time>2021-05-17T09:09:26Z</time>
      </trkpt>
      <trkpt lat="41.5301320" lon="-8.7820920">
        <ele>2.3</ele>
        <time>2021-05-17T09:09:27Z</time>
      </trkpt>
      <trkpt lat="41.5301320" lon="-8.7820920">
        <ele>2.3</ele>
        <time>2021-05-17T09:09:28Z</time>
      </trkpt>
      <trkpt lat="41.5301320" lon="-8.7820920">
        <ele>2.3</ele>
        <time>2021-05-17T09:09:29Z</time>
      </trkpt>
      <trkpt lat="41.5301320" lon="-8.7820910">
        <ele>2.3</ele>
        <time>2021-05-17T09:09:30Z</time>
      </trkpt>
      <trkpt lat="41.5301320" lon="-8.7820910">
        <ele>2.3</ele>
        <time>2021-05-17T09:09:31Z</time>
      </trkpt>
      <trkpt lat="41.5301320" lon="-8.7820910">
        <ele>2.3</ele>
        <time>2021-05-17T09:09:32Z</time>
      </trkpt>
      <trkpt lat="41.5301320" lon="-8.7820900">
        <ele>2.3</ele>
        <time>2021-05-17T09:09:33Z</time>
      </trkpt>
      <trkpt lat="41.5301320" lon="-8.7820900">
        <ele>2.3</ele>
        <time>2021-05-17T09:09:34Z</time>
      </trkpt>
      <trkpt lat="41.5301320" lon="-8.7820900">
        <ele>2.3</ele>
        <time>2021-05-17T09:09:35Z</time>
      </trkpt>
      <trkpt lat="41.5301320" lon="-8.7820890">
        <ele>2.3</ele>
        <time>2021-05-17T09:09:36Z</time>
      </trkpt>
      <trkpt lat="41.5301320" lon="-8.7820890">
        <ele>2.3</ele>
        <time>2021-05-17T09:09:37Z</time>
      </trkpt>
      <trkpt lat="41.5301320" lon="-8.7820890">
        <ele>2.3</ele>
        <time>2021-05-17T09:09:38Z</time>
      </trkpt>
      <trkpt lat="41.5301320" lon="-8.7820880">
        <ele>2.3</ele>
        <time>2021-05-17T09:09:39Z</time>
      </trkpt>
      <trkpt lat="41.5301320" lon="-8.7820880">
        <ele>2.3</ele>
        <time>2021-05-17T09:09:40Z</time>
      </trkpt>
      <trkpt lat="41.5301320" lon="-8.7820880">
        <ele>2.3</ele>
        <time>2021-05-17T09:09:41Z</time>
      </trkpt>
      <trkpt lat="41.5301310" lon="-8.7820880">
        <ele>2.3</ele>
        <time>2021-05-17T09:09:42Z</time>
      </trkpt>
      <trkpt lat="41.5301310" lon="-8.7820870">
        <ele>2.3</ele>
        <time>2021-05-17T09:09:43Z</time>
      </trkpt>
      <trkpt lat="41.5301310" lon="-8.7820870">
        <ele>2.3</ele>
        <time>2021-05-17T09:09:44Z</time>
      </trkpt>
      <trkpt lat="41.5301310" lon="-8.7820870">
        <ele>2.3</ele>
        <time>2021-05-17T09:09:45Z</time>
      </trkpt>
      <trkpt lat="41.5301310" lon="-8.7820860">
        <ele>2.3</ele>
        <time>2021-05-17T09:09:46Z</time>
      </trkpt>
      <trkpt lat="41.5301310" lon="-8.7820860">
        <ele>2.3</ele>
        <time>2021-05-17T09:09:47Z</time>
      </trkpt>
      <trkpt lat="41.5301310" lon="-8.7820860">
        <ele>2.3</ele>
        <time>2021-05-17T09:09:48Z</time>
      </trkpt>
      <trkpt lat="41.5301310" lon="-8.7820850">
        <ele>2.3</ele>
        <time>2021-05-17T09:09:49Z</time>
      </trkpt>
      <trkpt lat="41.5301310" lon="-8.7820850">
        <ele>2.3</ele>
        <time>2021-05-17T09:09:50Z</time>
      </trkpt>
      <trkpt lat="41.5301310" lon="-8.7820850">
        <ele>2.3</ele>
        <time>2021-05-17T09:09:51Z</time>
      </trkpt>
      <trkpt lat="41.5301310" lon="-8.7820840">
        <ele>2.3</ele>
        <time>2021-05-17T09:09:52Z</time>
      </trkpt>
      <trkpt lat="41.5301310" lon="-8.7820840">
        <ele>2.3</ele>
        <time>2021-05-17T09:09:53Z</time>
      </trkpt>
      <trkpt lat="41.5301310" lon="-8.7820840">
        <ele>2.3</ele>
        <time>2021-05-17T09:09:54Z</time>
      </trkpt>
      <trkpt lat="41.5301310" lon="-8.7820830">
        <ele>2.3</ele>
        <time>2021-05-17T09:09:55Z</time>
      </trkpt>
      <trkpt lat="41.5301310" lon="-8.7820830">
        <ele>2.3</ele>
        <time>2021-05-17T09:09:56Z</time>
      </trkpt>
      <trkpt lat="41.5301310" lon="-8.7820830">
        <ele>2.3</ele>
        <time>2021-05-17T09:09:57Z</time>
      </trkpt>
      <trkpt lat="41.5301300" lon="-8.7820820">
        <ele>2.3</ele>
        <time>2021-05-17T09:09:58Z</time>
      </trkpt>
      <trkpt lat="41.5301300" lon="-8.7820820">
        <ele>2.3</ele>
        <time>2021-05-17T09:09:59Z</time>
      </trkpt>
      <trkpt lat="41.5301300" lon="-8.7820820">
        <ele>2.3</ele>
        <time>2021-05-17T09:10:00Z</time>
      </trkpt>
      <trkpt lat="41.5301300" lon="-8.7820810">
        <ele>2.3</ele>
        <time>2021-05-17T09:10:01Z</time>
      </trkpt>
      <trkpt lat="41.5301300" lon="-8.7820810">
        <ele>2.3</ele>
        <time>2021-05-17T09:10:02Z</time>
      </trkpt>
      <trkpt lat="41.5301300" lon="-8.7820810">
        <ele>2.3</ele>
        <time>2021-05-17T09:10:03Z</time>
      </trkpt>
      <trkpt lat="41.5301300" lon="-8.7820800">
        <ele>2.3</ele>
        <time>2021-05-17T09:10:04Z</time>
      </trkpt>
      <trkpt lat="41.5301300" lon="-8.7820800">
        <ele>2.3</ele>
        <time>2021-05-17T09:10:05Z</time>
      </trkpt>
      <trkpt lat="41.5301300" lon="-8.7820780">
        <ele>2.3</ele>
        <time>2021-05-17T09:10:06Z</time>
      </trkpt>
      <trkpt lat="41.5301300" lon="-8.7820780">
        <ele>2.3</ele>
        <time>2021-05-17T09:10:07Z</time>
      </trkpt>
      <trkpt lat="41.5301320" lon="-8.7820680">
        <ele>2.3</ele>
        <time>2021-05-17T09:10:08Z</time>
      </trkpt>
      <trkpt lat="41.5301360" lon="-8.7820660">
        <ele>2.3</ele>
        <time>2021-05-17T09:10:09Z</time>
      </trkpt>
      <trkpt lat="41.5301380" lon="-8.7820660">
        <ele>2.3</ele>
        <time>2021-05-17T09:10:10Z</time>
      </trkpt>
      <trkpt lat="41.5301400" lon="-8.7820590">
        <ele>2.3</ele>
        <time>2021-05-17T09:10:11Z</time>
      </trkpt>
      <trkpt lat="41.5301420" lon="-8.7820580">
        <ele>2.3</ele>
        <time>2021-05-17T09:10:12Z</time>
      </trkpt>
      <trkpt lat="41.5301420" lon="-8.7820580">
        <ele>2.3</ele>
        <time>2021-05-17T09:10:13Z</time>
      </trkpt>
      <trkpt lat="41.5301420" lon="-8.7820580">
        <ele>2.3</ele>
        <time>2021-05-17T09:10:14Z</time>
      </trkpt>
      <trkpt lat="41.5301420" lon="-8.7820580">
        <ele>2.3</ele>
        <time>2021-05-17T09:10:15Z</time>
      </trkpt>
      <trkpt lat="41.5301420" lon="-8.7820580">
        <ele>2.3</ele>
        <time>2021-05-17T09:10:16Z</time>
      </trkpt>
      <trkpt lat="41.5301420" lon="-8.7820580">
        <ele>2.3</ele>
        <time>2021-05-17T09:10:17Z</time>
      </trkpt>
      <trkpt lat="41.5301440" lon="-8.7820850">
        <ele>2.3</ele>
        <time>2021-05-17T09:10:18Z</time>
      </trkpt>
      <trkpt lat="41.5301450" lon="-8.7820910">
        <ele>2.3</ele>
        <time>2021-05-17T09:10:19Z</time>
      </trkpt>
      <trkpt lat="41.5301470" lon="-8.7820940">
        <ele>2.3</ele>
        <time>2021-05-17T09:10:20Z</time>
      </trkpt>
      <trkpt lat="41.5301490" lon="-8.7820950">
        <ele>2.3</ele>
        <time>2021-05-17T09:10:21Z</time>
      </trkpt>
      <trkpt lat="41.5301500" lon="-8.7820910">
        <ele>2.3</ele>
        <time>2021-05-17T09:10:22Z</time>
      </trkpt>
      <trkpt lat="41.5301500" lon="-8.7820980">
        <ele>2.3</ele>
        <time>2021-05-17T09:10:23Z</time>
      </trkpt>
      <trkpt lat="41.5301490" lon="-8.7821000">
        <ele>2.3</ele>
        <time>2021-05-17T09:10:24Z</time>
      </trkpt>
      <trkpt lat="41.5301490" lon="-8.7821010">
        <ele>2.3</ele>
        <time>2021-05-17T09:10:25Z</time>
      </trkpt>
      <trkpt lat="41.5301470" lon="-8.7821050">
        <ele>2.3</ele>
        <time>2021-05-17T09:10:26Z</time>
      </trkpt>
      <trkpt lat="41.5301460" lon="-8.7821110">
        <ele>2.3</ele>
        <time>2021-05-17T09:10:27Z</time>
      </trkpt>
      <trkpt lat="41.5301460" lon="-8.7821110">
        <ele>2.3</ele>
        <time>2021-05-17T09:10:28Z</time>
      </trkpt>
      <trkpt lat="41.5301460" lon="-8.7821110">
        <ele>2.3</ele>
        <time>2021-05-17T09:10:29Z</time>
      </trkpt>
      <trkpt lat="41.5301450" lon="-8.7821130">
        <ele>2.3</ele>
        <time>2021-05-17T09:10:30Z</time>
      </trkpt>
      <trkpt lat="41.5301500" lon="-8.7821090">
        <ele>2.3</ele>
        <time>2021-05-17T09:10:31Z</time>
      </trkpt>
      <trkpt lat="41.5301520" lon="-8.7821050">
        <ele>2.3</ele>
        <time>2021-05-17T09:10:32Z</time>
      </trkpt>
      <trkpt lat="41.5301520" lon="-8.7821080">
        <ele>2.3</ele>
        <time>2021-05-17T09:10:33Z</time>
      </trkpt>
      <trkpt lat="41.5301510" lon="-8.7821090">
        <ele>2.3</ele>
        <time>2021-05-17T09:10:34Z</time>
      </trkpt>
      <trkpt lat="41.5301510" lon="-8.7820990">
        <ele>2.3</ele>
        <time>2021-05-17T09:10:35Z</time>
      </trkpt>
      <trkpt lat="41.5301630" lon="-8.7821000">
        <ele>2.3</ele>
        <time>2021-05-17T09:10:36Z</time>
      </trkpt>
      <trkpt lat="41.5301630" lon="-8.7820960">
        <ele>2.3</ele>
        <time>2021-05-17T09:10:37Z</time>
      </trkpt>
      <trkpt lat="41.5301660" lon="-8.7820950">
        <ele>2.3</ele>
        <time>2021-05-17T09:10:38Z</time>
      </trkpt>
      <trkpt lat="41.5301780" lon="-8.7820920">
        <ele>2.3</ele>
        <time>2021-05-17T09:10:39Z</time>
      </trkpt>
      <trkpt lat="41.5301820" lon="-8.7820900">
        <ele>2.3</ele>
        <time>2021-05-17T09:10:40Z</time>
      </trkpt>
      <trkpt lat="41.5301820" lon="-8.7820850">
        <ele>2.3</ele>
        <time>2021-05-17T09:10:41Z</time>
      </trkpt>
      <trkpt lat="41.5301810" lon="-8.7820860">
        <ele>2.3</ele>
        <time>2021-05-17T09:10:42Z</time>
      </trkpt>
      <trkpt lat="41.5301780" lon="-8.7820870">
        <ele>2.3</ele>
        <time>2021-05-17T09:10:43Z</time>
      </trkpt>
      <trkpt lat="41.5301710" lon="-8.7820790">
        <ele>2.3</ele>
        <time>2021-05-17T09:10:44Z</time>
      </trkpt>
      <trkpt lat="41.5301680" lon="-8.7820750">
        <ele>2.3</ele>
        <time>2021-05-17T09:10:45Z</time>
      </trkpt>
      <trkpt lat="41.5301650" lon="-8.7820690">
        <ele>2.3</ele>
        <time>2021-05-17T09:10:46Z</time>
      </trkpt>
      <trkpt lat="41.5301650" lon="-8.7820650">
        <ele>2.3</ele>
        <time>2021-05-17T09:10:47Z</time>
      </trkpt>
      <trkpt lat="41.5301660" lon="-8.7820650">
        <ele>2.3</ele>
        <time>2021-05-17T09:10:48Z</time>
      </trkpt>
      <trkpt lat="41.5301650" lon="-8.7820730">
        <ele>2.3</ele>
        <time>2021-05-17T09:10:49Z</time>
      </trkpt>
      <trkpt lat="41.5301660" lon="-8.7820570">
        <ele>2.3</ele>
        <time>2021-05-17T09:10:50Z</time>
      </trkpt>
      <trkpt lat="41.5301680" lon="-8.7820500">
        <ele>2.3</ele>
        <time>2021-05-17T09:10:51Z</time>
      </trkpt>
      <trkpt lat="41.5301570" lon="-8.7820380">
        <ele>2.3</ele>
        <time>2021-05-17T09:10:52Z</time>
      </trkpt>
      <trkpt lat="41.5301620" lon="-8.7820380">
        <ele>2.3</ele>
        <time>2021-05-17T09:10:53Z</time>
      </trkpt>
      <trkpt lat="41.5301610" lon="-8.7820420">
        <ele>2.3</ele>
        <time>2021-05-17T09:10:54Z</time>
      </trkpt>
      <trkpt lat="41.5301620" lon="-8.7820400">
        <ele>2.3</ele>
        <time>2021-05-17T09:10:55Z</time>
      </trkpt>
      <trkpt lat="41.5301620" lon="-8.7820370">
        <ele>2.3</ele>
        <time>2021-05-17T09:10:56Z</time>
      </trkpt>
      <trkpt lat="41.5301640" lon="-8.7820330">
        <ele>2.3</ele>
        <time>2021-05-17T09:10:57Z</time>
      </trkpt>
      <trkpt lat="41.5301590" lon="-8.7820230">
        <ele>2.3</ele>
        <time>2021-05-17T09:10:58Z</time>
      </trkpt>
      <trkpt lat="41.5301540" lon="-8.7820160">
        <ele>2.3</ele>
        <time>2021-05-17T09:10:59Z</time>
      </trkpt>
      <trkpt lat="41.5301460" lon="-8.7820130">
        <ele>2.3</ele>
        <time>2021-05-17T09:11:00Z</time>
      </trkpt>
      <trkpt lat="41.5301420" lon="-8.7820080">
        <ele>2.3</ele>
        <time>2021-05-17T09:11:01Z</time>
      </trkpt>
      <trkpt lat="41.5301440" lon="-8.7820060">
        <ele>2.3</ele>
        <time>2021-05-17T09:11:02Z</time>
      </trkpt>
      <trkpt lat="41.5301560" lon="-8.7820080">
        <ele>2.3</ele>
        <time>2021-05-17T09:11:03Z</time>
      </trkpt>
      <trkpt lat="41.5301590" lon="-8.7820120">
        <ele>2.3</ele>
        <time>2021-05-17T09:11:04Z</time>
      </trkpt>
      <trkpt lat="41.5301520" lon="-8.7820310">
        <ele>2.3</ele>
        <time>2021-05-17T09:11:05Z</time>
      </trkpt>
      <trkpt lat="41.5301510" lon="-8.7821110">
        <ele>2.3</ele>
        <time>2021-05-17T09:11:07Z</time>
      </trkpt>
      <trkpt lat="41.5301280" lon="-8.7821040">
        <ele>2.3</ele>
        <time>2021-05-17T09:11:08Z</time>
      </trkpt>
      <trkpt lat="41.5301410" lon="-8.7820950">
        <ele>2.3</ele>
        <time>2021-05-17T09:11:10Z</time>
      </trkpt>
      <trkpt lat="41.5301550" lon="-8.7820820">
        <ele>2.3</ele>
        <time>2021-05-17T09:11:11Z</time>
      </trkpt>
      <trkpt lat="41.5301700" lon="-8.7820820">
        <ele>2.3</ele>
        <time>2021-05-17T09:11:12Z</time>
      </trkpt>
      <trkpt lat="41.5301810" lon="-8.7820770">
        <ele>2.3</ele>
        <time>2021-05-17T09:11:13Z</time>
      </trkpt>
      <trkpt lat="41.5301810" lon="-8.7820790">
        <ele>2.3</ele>
        <time>2021-05-17T09:11:14Z</time>
      </trkpt>
      <trkpt lat="41.5301820" lon="-8.7820820">
        <ele>2.3</ele>
        <time>2021-05-17T09:11:15Z</time>
      </trkpt>
      <trkpt lat="41.5301820" lon="-8.7820840">
        <ele>2.3</ele>
        <time>2021-05-17T09:11:16Z</time>
      </trkpt>
      <trkpt lat="41.5301830" lon="-8.7820860">
        <ele>2.3</ele>
        <time>2021-05-17T09:11:17Z</time>
      </trkpt>
      <trkpt lat="41.5301830" lon="-8.7820880">
        <ele>2.3</ele>
        <time>2021-05-17T09:11:18Z</time>
      </trkpt>
      <trkpt lat="41.5301840" lon="-8.7820900">
        <ele>2.3</ele>
        <time>2021-05-17T09:11:19Z</time>
      </trkpt>
      <trkpt lat="41.5301840" lon="-8.7820930">
        <ele>2.3</ele>
        <time>2021-05-17T09:11:20Z</time>
      </trkpt>
      <trkpt lat="41.5301850" lon="-8.7820950">
        <ele>2.3</ele>
        <time>2021-05-17T09:11:21Z</time>
      </trkpt>
      <trkpt lat="41.5301850" lon="-8.7820970">
        <ele>2.3</ele>
        <time>2021-05-17T09:11:22Z</time>
      </trkpt>
      <trkpt lat="41.5301860" lon="-8.7820990">
        <ele>2.3</ele>
        <time>2021-05-17T09:11:23Z</time>
      </trkpt>
      <trkpt lat="41.5301860" lon="-8.7821010">
        <ele>2.3</ele>
        <time>2021-05-17T09:11:24Z</time>
      </trkpt>
      <trkpt lat="41.5301870" lon="-8.7821040">
        <ele>2.3</ele>
        <time>2021-05-17T09:11:25Z</time>
      </trkpt>
      <trkpt lat="41.5301870" lon="-8.7821060">
        <ele>2.3</ele>
        <time>2021-05-17T09:11:26Z</time>
      </trkpt>
      <trkpt lat="41.5301880" lon="-8.7821080">
        <ele>2.3</ele>
        <time>2021-05-17T09:11:27Z</time>
      </trkpt>
      <trkpt lat="41.5301880" lon="-8.7821100">
        <ele>2.3</ele>
        <time>2021-05-17T09:11:28Z</time>
      </trkpt>
      <trkpt lat="41.5301890" lon="-8.7821130">
        <ele>2.3</ele>
        <time>2021-05-17T09:11:29Z</time>
      </trkpt>
      <trkpt lat="41.5301890" lon="-8.7821150">
        <ele>2.3</ele>
        <time>2021-05-17T09:11:30Z</time>
      </trkpt>
      <trkpt lat="41.5301900" lon="-8.7821170">
        <ele>2.3</ele>
        <time>2021-05-17T09:11:31Z</time>
      </trkpt>
      <trkpt lat="41.5301900" lon="-8.7821190">
        <ele>2.3</ele>
        <time>2021-05-17T09:11:32Z</time>
      </trkpt>
      <trkpt lat="41.5301910" lon="-8.7821210">
        <ele>2.3</ele>
        <time>2021-05-17T09:11:33Z</time>
      </trkpt>
      <trkpt lat="41.5301910" lon="-8.7821240">
        <ele>2.3</ele>
        <time>2021-05-17T09:11:34Z</time>
      </trkpt>
      <trkpt lat="41.5301920" lon="-8.7821260">
        <ele>2.3</ele>
        <time>2021-05-17T09:11:35Z</time>
      </trkpt>
      <trkpt lat="41.5301920" lon="-8.7821280">
        <ele>2.3</ele>
        <time>2021-05-17T09:11:36Z</time>
      </trkpt>
      <trkpt lat="41.5301930" lon="-8.7821300">
        <ele>2.3</ele>
        <time>2021-05-17T09:11:37Z</time>
      </trkpt>
      <trkpt lat="41.5301930" lon="-8.7821320">
        <ele>2.3</ele>
        <time>2021-05-17T09:11:38Z</time>
      </trkpt>
      <trkpt lat="41.5301940" lon="-8.7821350">
        <ele>2.3</ele>
        <time>2021-05-17T09:11:39Z</time>
      </trkpt>
      <trkpt lat="41.5301940" lon="-8.7821370">
        <ele>2.3</ele>
        <time>2021-05-17T09:11:40Z</time>
      </trkpt>
      <trkpt lat="41.5301950" lon="-8.7821390">
        <ele>2.3</ele>
        <time>2021-05-17T09:11:41Z</time>
      </trkpt>
      <trkpt lat="41.5301950" lon="-8.7821380">
        <ele>2.3</ele>
        <time>2021-05-17T09:11:42Z</time>
      </trkpt>
      <trkpt lat="41.5301950" lon="-8.7821370">
        <ele>2.3</ele>
        <time>2021-05-17T09:11:43Z</time>
      </trkpt>
      <trkpt lat="41.5301950" lon="-8.7821350">
        <ele>2.3</ele>
        <time>2021-05-17T09:11:44Z</time>
      </trkpt>
      <trkpt lat="41.5301960" lon="-8.7821340">
        <ele>2.3</ele>
        <time>2021-05-17T09:11:45Z</time>
      </trkpt>
      <trkpt lat="41.5301960" lon="-8.7821330">
        <ele>2.3</ele>
        <time>2021-05-17T09:11:46Z</time>
      </trkpt>
      <trkpt lat="41.5301960" lon="-8.7821320">
        <ele>2.3</ele>
        <time>2021-05-17T09:11:47Z</time>
      </trkpt>
      <trkpt lat="41.5301960" lon="-8.7821300">
        <ele>2.3</ele>
        <time>2021-05-17T09:11:48Z</time>
      </trkpt>
      <trkpt lat="41.5301960" lon="-8.7821290">
        <ele>2.3</ele>
        <time>2021-05-17T09:11:49Z</time>
      </trkpt>
      <trkpt lat="41.5301960" lon="-8.7821280">
        <ele>2.3</ele>
        <time>2021-05-17T09:11:50Z</time>
      </trkpt>
      <trkpt lat="41.5301970" lon="-8.7821270">
        <ele>2.3</ele>
        <time>2021-05-17T09:11:51Z</time>
      </trkpt>
      <trkpt lat="41.5301970" lon="-8.7821250">
        <ele>2.3</ele>
        <time>2021-05-17T09:11:52Z</time>
      </trkpt>
      <trkpt lat="41.5301970" lon="-8.7821240">
        <ele>2.3</ele>
        <time>2021-05-17T09:11:53Z</time>
      </trkpt>
      <trkpt lat="41.5301970" lon="-8.7821230">
        <ele>2.3</ele>
        <time>2021-05-17T09:11:54Z</time>
      </trkpt>
      <trkpt lat="41.5301970" lon="-8.7821220">
        <ele>2.3</ele>
        <time>2021-05-17T09:11:55Z</time>
      </trkpt>
      <trkpt lat="41.5301970" lon="-8.7821200">
        <ele>2.3</ele>
        <time>2021-05-17T09:11:56Z</time>
      </trkpt>
      <trkpt lat="41.5301980" lon="-8.7821190">
        <ele>2.3</ele>
        <time>2021-05-17T09:11:57Z</time>
      </trkpt>
      <trkpt lat="41.5301980" lon="-8.7821180">
        <ele>2.3</ele>
        <time>2021-05-17T09:11:58Z</time>
      </trkpt>
      <trkpt lat="41.5301980" lon="-8.7821170">
        <ele>2.3</ele>
        <time>2021-05-17T09:11:59Z</time>
      </trkpt>
      <trkpt lat="41.5301980" lon="-8.7821150">
        <ele>2.3</ele>
        <time>2021-05-17T09:12:00Z</time>
      </trkpt>
      <trkpt lat="41.5301980" lon="-8.7821140">
        <ele>2.3</ele>
        <time>2021-05-17T09:12:01Z</time>
      </trkpt>
      <trkpt lat="41.5301980" lon="-8.7821130">
        <ele>2.3</ele>
        <time>2021-05-17T09:12:02Z</time>
      </trkpt>
      <trkpt lat="41.5301990" lon="-8.7821120">
        <ele>2.3</ele>
        <time>2021-05-17T09:12:03Z</time>
      </trkpt>
      <trkpt lat="41.5301990" lon="-8.7821100">
        <ele>2.3</ele>
        <time>2021-05-17T09:12:04Z</time>
      </trkpt>
      <trkpt lat="41.5301990" lon="-8.7821090">
        <ele>2.3</ele>
        <time>2021-05-17T09:12:05Z</time>
      </trkpt>
      <trkpt lat="41.5301990" lon="-8.7821080">
        <ele>2.3</ele>
        <time>2021-05-17T09:12:06Z</time>
      </trkpt>
      <trkpt lat="41.5301990" lon="-8.7821070">
        <ele>2.3</ele>
        <time>2021-05-17T09:12:07Z</time>
      </trkpt>
      <trkpt lat="41.5301990" lon="-8.7821050">
        <ele>2.3</ele>
        <time>2021-05-17T09:12:08Z</time>
      </trkpt>
      <trkpt lat="41.5301990" lon="-8.7821040">
        <ele>2.3</ele>
        <time>2021-05-17T09:12:09Z</time>
      </trkpt>
      <trkpt lat="41.5302000" lon="-8.7821030">
        <ele>2.3</ele>
        <time>2021-05-17T09:12:10Z</time>
      </trkpt>
      <trkpt lat="41.5302000" lon="-8.7821020">
        <ele>2.3</ele>
        <time>2021-05-17T09:12:11Z</time>
      </trkpt>
      <trkpt lat="41.5302000" lon="-8.7821000">
        <ele>2.3</ele>
        <time>2021-05-17T09:12:12Z</time>
      </trkpt>
      <trkpt lat="41.5302000" lon="-8.7820990">
        <ele>2.3</ele>
        <time>2021-05-17T09:12:13Z</time>
      </trkpt>
      <trkpt lat="41.5302000" lon="-8.7820980">
        <ele>2.3</ele>
        <time>2021-05-17T09:12:14Z</time>
      </trkpt>
      <trkpt lat="41.5302000" lon="-8.7820970">
        <ele>2.3</ele>
        <time>2021-05-17T09:12:15Z</time>
      </trkpt>
      <trkpt lat="41.5302010" lon="-8.7820950">
        <ele>2.3</ele>
        <time>2021-05-17T09:12:16Z</time>
      </trkpt>
      <trkpt lat="41.5302010" lon="-8.7820940">
        <ele>2.3</ele>
        <time>2021-05-17T09:12:17Z</time>
      </trkpt>
      <trkpt lat="41.5302010" lon="-8.7820930">
        <ele>2.3</ele>
        <time>2021-05-17T09:12:18Z</time>
      </trkpt>
      <trkpt lat="41.5302010" lon="-8.7820920">
        <ele>2.3</ele>
        <time>2021-05-17T09:12:19Z</time>
      </trkpt>
      <trkpt lat="41.5302010" lon="-8.7820900">
        <ele>2.3</ele>
        <time>2021-05-17T09:12:20Z</time>
      </trkpt>
      <trkpt lat="41.5302010" lon="-8.7820890">
        <ele>2.3</ele>
        <time>2021-05-17T09:12:21Z</time>
      </trkpt>
      <trkpt lat="41.5302020" lon="-8.7820880">
        <ele>2.3</ele>
        <time>2021-05-17T09:12:22Z</time>
      </trkpt>
      <trkpt lat="41.5302020" lon="-8.7820870">
        <ele>2.3</ele>
        <time>2021-05-17T09:12:23Z</time>
      </trkpt>
      <trkpt lat="41.5302020" lon="-8.7820850">
        <ele>2.3</ele>
        <time>2021-05-17T09:12:24Z</time>
      </trkpt>
      <trkpt lat="41.5302020" lon="-8.7820840">
        <ele>2.3</ele>
        <time>2021-05-17T09:12:25Z</time>
      </trkpt>
      <trkpt lat="41.5302040" lon="-8.7820830">
        <ele>2.3</ele>
        <time>2021-05-17T09:12:26Z</time>
      </trkpt>
      <trkpt lat="41.5302060" lon="-8.7820840">
        <ele>2.3</ele>
        <time>2021-05-17T09:12:27Z</time>
      </trkpt>
      <trkpt lat="41.5302070" lon="-8.7820790">
        <ele>2.3</ele>
        <time>2021-05-17T09:12:28Z</time>
      </trkpt>
      <trkpt lat="41.5302070" lon="-8.7820700">
        <ele>2.3</ele>
        <time>2021-05-17T09:12:29Z</time>
      </trkpt>
      <trkpt lat="41.5302070" lon="-8.7820610">
        <ele>2.3</ele>
        <time>2021-05-17T09:12:30Z</time>
      </trkpt>
      <trkpt lat="41.5302080" lon="-8.7820650">
        <ele>2.3</ele>
        <time>2021-05-17T09:12:31Z</time>
      </trkpt>
      <trkpt lat="41.5302100" lon="-8.7820600">
        <ele>2.3</ele>
        <time>2021-05-17T09:12:32Z</time>
      </trkpt>
      <trkpt lat="41.5302090" lon="-8.7820520">
        <ele>2.3</ele>
        <time>2021-05-17T09:12:33Z</time>
      </trkpt>
      <trkpt lat="41.5302090" lon="-8.7820540">
        <ele>2.3</ele>
        <time>2021-05-17T09:12:34Z</time>
      </trkpt>
      <trkpt lat="41.5302090" lon="-8.7820540">
        <ele>2.3</ele>
        <time>2021-05-17T09:12:35Z</time>
      </trkpt>
      <trkpt lat="41.5302090" lon="-8.7820540">
        <ele>2.3</ele>
        <time>2021-05-17T09:12:36Z</time>
      </trkpt>
      <trkpt lat="41.5302090" lon="-8.7820540">
        <ele>2.3</ele>
        <time>2021-05-17T09:12:37Z</time>
      </trkpt>
      <trkpt lat="41.5302020" lon="-8.7820610">
        <ele>2.3</ele>
        <time>2021-05-17T09:12:38Z</time>
      </trkpt>
      <trkpt lat="41.5302010" lon="-8.7820610">
        <ele>2.3</ele>
        <time>2021-05-17T09:12:39Z</time>
      </trkpt>
      <trkpt lat="41.5302020" lon="-8.7820650">
        <ele>2.3</ele>
        <time>2021-05-17T09:12:40Z</time>
      </trkpt>
      <trkpt lat="41.5302020" lon="-8.7820650">
        <ele>2.3</ele>
        <time>2021-05-17T09:12:41Z</time>
      </trkpt>
      <trkpt lat="41.5302020" lon="-8.7820650">
        <ele>2.3</ele>
        <time>2021-05-17T09:12:42Z</time>
      </trkpt>
      <trkpt lat="41.5302020" lon="-8.7820650">
        <ele>2.3</ele>
        <time>2021-05-17T09:12:43Z</time>
      </trkpt>
      <trkpt lat="41.5302020" lon="-8.7820650">
        <ele>2.3</ele>
        <time>2021-05-17T09:12:44Z</time>
      </trkpt>
      <trkpt lat="41.5301970" lon="-8.7820610">
        <ele>2.3</ele>
        <time>2021-05-17T09:12:45Z</time>
      </trkpt>
      <trkpt lat="41.5301920" lon="-8.7820650">
        <ele>2.3</ele>
        <time>2021-05-17T09:12:46Z</time>
      </trkpt>
      <trkpt lat="41.5301920" lon="-8.7820720">
        <ele>2.3</ele>
        <time>2021-05-17T09:12:47Z</time>
      </trkpt>
      <trkpt lat="41.5301900" lon="-8.7820770">
        <ele>2.3</ele>
        <time>2021-05-17T09:12:48Z</time>
      </trkpt>
      <trkpt lat="41.5301900" lon="-8.7820770">
        <ele>2.3</ele>
        <time>2021-05-17T09:12:49Z</time>
      </trkpt>
      <trkpt lat="41.5301900" lon="-8.7820770">
        <ele>2.3</ele>
        <time>2021-05-17T09:12:50Z</time>
      </trkpt>
      <trkpt lat="41.5301900" lon="-8.7820770">
        <ele>2.3</ele>
        <time>2021-05-17T09:12:51Z</time>
      </trkpt>
      <trkpt lat="41.5301900" lon="-8.7820770">
        <ele>2.3</ele>
        <time>2021-05-17T09:12:52Z</time>
      </trkpt>
      <trkpt lat="41.5301900" lon="-8.7820770">
        <ele>2.3</ele>
        <time>2021-05-17T09:12:53Z</time>
      </trkpt>
      <trkpt lat="41.5301910" lon="-8.7820780">
        <ele>2.3</ele>
        <time>2021-05-17T09:12:54Z</time>
      </trkpt>
      <trkpt lat="41.5301930" lon="-8.7820760">
        <ele>2.3</ele>
        <time>2021-05-17T09:12:55Z</time>
      </trkpt>
      <trkpt lat="41.5301950" lon="-8.7820690">
        <ele>2.3</ele>
        <time>2021-05-17T09:12:56Z</time>
      </trkpt>
      <trkpt lat="41.5302020" lon="-8.7820520">
        <ele>2.3</ele>
        <time>2021-05-17T09:12:57Z</time>
      </trkpt>
      <trkpt lat="41.5301990" lon="-8.7820520">
        <ele>2.3</ele>
        <time>2021-05-17T09:12:58Z</time>
      </trkpt>
      <trkpt lat="41.5301980" lon="-8.7820470">
        <ele>2.3</ele>
        <time>2021-05-17T09:12:59Z</time>
      </trkpt>
      <trkpt lat="41.5301980" lon="-8.7820470">
        <ele>2.3</ele>
        <time>2021-05-17T09:13:00Z</time>
      </trkpt>
      <trkpt lat="41.5301990" lon="-8.7820450">
        <ele>2.3</ele>
        <time>2021-05-17T09:13:01Z</time>
      </trkpt>
      <trkpt lat="41.5301990" lon="-8.7820450">
        <ele>2.3</ele>
        <time>2021-05-17T09:13:02Z</time>
      </trkpt>
      <trkpt lat="41.5301990" lon="-8.7820610">
        <ele>2.3</ele>
        <time>2021-05-17T09:13:03Z</time>
      </trkpt>
      <trkpt lat="41.5301990" lon="-8.7820610">
        <ele>2.3</ele>
        <time>2021-05-17T09:13:04Z</time>
      </trkpt>
      <trkpt lat="41.5301990" lon="-8.7820610">
        <ele>2.3</ele>
        <time>2021-05-17T09:13:05Z</time>
      </trkpt>
      <trkpt lat="41.5301990" lon="-8.7820610">
        <ele>2.3</ele>
        <time>2021-05-17T09:13:06Z</time>
      </trkpt>
      <trkpt lat="41.5301990" lon="-8.7820610">
        <ele>2.3</ele>
        <time>2021-05-17T09:13:07Z</time>
      </trkpt>
      <trkpt lat="41.5301970" lon="-8.7820670">
        <ele>2.3</ele>
        <time>2021-05-17T09:13:08Z</time>
      </trkpt>
      <trkpt lat="41.5301970" lon="-8.7820670">
        <ele>2.3</ele>
        <time>2021-05-17T09:13:09Z</time>
      </trkpt>
      <trkpt lat="41.5301970" lon="-8.7820670">
        <ele>2.3</ele>
        <time>2021-05-17T09:13:10Z</time>
      </trkpt>
      <trkpt lat="41.5301930" lon="-8.7820650">
        <ele>2.3</ele>
        <time>2021-05-17T09:13:11Z</time>
      </trkpt>
      <trkpt lat="41.5301930" lon="-8.7820650">
        <ele>2.3</ele>
        <time>2021-05-17T09:13:12Z</time>
      </trkpt>
      <trkpt lat="41.5301950" lon="-8.7820630">
        <ele>2.3</ele>
        <time>2021-05-17T09:13:13Z</time>
      </trkpt>
      <trkpt lat="41.5301950" lon="-8.7820630">
        <ele>2.3</ele>
        <time>2021-05-17T09:13:14Z</time>
      </trkpt>
      <trkpt lat="41.5301920" lon="-8.7820720">
        <ele>2.3</ele>
        <time>2021-05-17T09:13:15Z</time>
      </trkpt>
      <trkpt lat="41.5301920" lon="-8.7820720">
        <ele>2.3</ele>
        <time>2021-05-17T09:13:16Z</time>
      </trkpt>
      <trkpt lat="41.5301920" lon="-8.7820720">
        <ele>2.3</ele>
        <time>2021-05-17T09:13:17Z</time>
      </trkpt>
      <trkpt lat="41.5301920" lon="-8.7820720">
        <ele>2.3</ele>
        <time>2021-05-17T09:13:18Z</time>
      </trkpt>
      <trkpt lat="41.5301900" lon="-8.7820550">
        <ele>2.3</ele>
        <time>2021-05-17T09:13:19Z</time>
      </trkpt>
      <trkpt lat="41.5301900" lon="-8.7820550">
        <ele>2.3</ele>
        <time>2021-05-17T09:13:20Z</time>
      </trkpt>
      <trkpt lat="41.5301900" lon="-8.7820550">
        <ele>2.3</ele>
        <time>2021-05-17T09:13:21Z</time>
      </trkpt>
      <trkpt lat="41.5301900" lon="-8.7820550">
        <ele>2.3</ele>
        <time>2021-05-17T09:13:22Z</time>
      </trkpt>
      <trkpt lat="41.5301900" lon="-8.7820550">
        <ele>2.3</ele>
        <time>2021-05-17T09:13:23Z</time>
      </trkpt>
      <trkpt lat="41.5301900" lon="-8.7820550">
        <ele>2.3</ele>
        <time>2021-05-17T09:13:24Z</time>
      </trkpt>
      <trkpt lat="41.5301900" lon="-8.7820550">
        <ele>2.3</ele>
        <time>2021-05-17T09:13:25Z</time>
      </trkpt>
      <trkpt lat="41.5301900" lon="-8.7820550">
        <ele>2.3</ele>
        <time>2021-05-17T09:13:26Z</time>
      </trkpt>
      <trkpt lat="41.5301900" lon="-8.7820550">
        <ele>2.3</ele>
        <time>2021-05-17T09:13:27Z</time>
      </trkpt>
      <trkpt lat="41.5301900" lon="-8.7820550">
        <ele>2.3</ele>
        <time>2021-05-17T09:13:28Z</time>
      </trkpt>
      <trkpt lat="41.5301900" lon="-8.7820550">
        <ele>2.3</ele>
        <time>2021-05-17T09:13:29Z</time>
      </trkpt>
      <trkpt lat="41.5301900" lon="-8.7820550">
        <ele>2.3</ele>
        <time>2021-05-17T09:13:30Z</time>
      </trkpt>
      <trkpt lat="41.5301900" lon="-8.7820740">
        <ele>2.3</ele>
        <time>2021-05-17T09:13:31Z</time>
      </trkpt>
      <trkpt lat="41.5301940" lon="-8.7820780">
        <ele>2.3</ele>
        <time>2021-05-17T09:13:32Z</time>
      </trkpt>
      <trkpt lat="41.5301990" lon="-8.7820890">
        <ele>2.3</ele>
        <time>2021-05-17T09:13:33Z</time>
      </trkpt>
      <trkpt lat="41.5302020" lon="-8.7821030">
        <ele>2.3</ele>
        <time>2021-05-17T09:13:34Z</time>
      </trkpt>
      <trkpt lat="41.5302000" lon="-8.7821000">
        <ele>2.3</ele>
        <time>2021-05-17T09:13:35Z</time>
      </trkpt>
      <trkpt lat="41.5302000" lon="-8.7820960">
        <ele>2.3</ele>
        <time>2021-05-17T09:13:36Z</time>
      </trkpt>
      <trkpt lat="41.5302010" lon="-8.7820870">
        <ele>2.3</ele>
        <time>2021-05-17T09:13:37Z</time>
      </trkpt>
      <trkpt lat="41.5302030" lon="-8.7820920">
        <ele>2.3</ele>
        <time>2021-05-17T09:13:38Z</time>
      </trkpt>
      <trkpt lat="41.5302040" lon="-8.7820920">
        <ele>2.3</ele>
        <time>2021-05-17T09:13:39Z</time>
      </trkpt>
      <trkpt lat="41.5302070" lon="-8.7820900">
        <ele>2.3</ele>
        <time>2021-05-17T09:13:40Z</time>
      </trkpt>
      <trkpt lat="41.5302050" lon="-8.7820820">
        <ele>2.3</ele>
        <time>2021-05-17T09:13:41Z</time>
      </trkpt>
      <trkpt lat="41.5302030" lon="-8.7820830">
        <ele>2.3</ele>
        <time>2021-05-17T09:13:42Z</time>
      </trkpt>
      <trkpt lat="41.5302020" lon="-8.7820810">
        <ele>2.3</ele>
        <time>2021-05-17T09:13:43Z</time>
      </trkpt>
      <trkpt lat="41.5302030" lon="-8.7820840">
        <ele>2.3</ele>
        <time>2021-05-17T09:13:44Z</time>
      </trkpt>
      <trkpt lat="41.5302020" lon="-8.7820780">
        <ele>2.3</ele>
        <time>2021-05-17T09:13:45Z</time>
      </trkpt>
      <trkpt lat="41.5302030" lon="-8.7820700">
        <ele>2.3</ele>
        <time>2021-05-17T09:13:46Z</time>
      </trkpt>
      <trkpt lat="41.5302030" lon="-8.7820810">
        <ele>2.3</ele>
        <time>2021-05-17T09:13:47Z</time>
      </trkpt>
      <trkpt lat="41.5302040" lon="-8.7820720">
        <ele>2.3</ele>
        <time>2021-05-17T09:13:48Z</time>
      </trkpt>
      <trkpt lat="41.5302010" lon="-8.7820720">
        <ele>2.3</ele>
        <time>2021-05-17T09:13:49Z</time>
      </trkpt>
      <trkpt lat="41.5301990" lon="-8.7820730">
        <ele>2.3</ele>
        <time>2021-05-17T09:13:50Z</time>
      </trkpt>
      <trkpt lat="41.5302000" lon="-8.7820690">
        <ele>2.3</ele>
        <time>2021-05-17T09:13:51Z</time>
      </trkpt>
      <trkpt lat="41.5301980" lon="-8.7820850">
        <ele>2.3</ele>
        <time>2021-05-17T09:13:52Z</time>
      </trkpt>
      <trkpt lat="41.5301960" lon="-8.7820890">
        <ele>2.3</ele>
        <time>2021-05-17T09:13:53Z</time>
      </trkpt>
      <trkpt lat="41.5301960" lon="-8.7820950">
        <ele>2.3</ele>
        <time>2021-05-17T09:13:54Z</time>
      </trkpt>
      <trkpt lat="41.5301920" lon="-8.7821010">
        <ele>2.3</ele>
        <time>2021-05-17T09:13:55Z</time>
      </trkpt>
      <trkpt lat="41.5301900" lon="-8.7821030">
        <ele>2.3</ele>
        <time>2021-05-17T09:13:56Z</time>
      </trkpt>
      <trkpt lat="41.5301910" lon="-8.7821100">
        <ele>2.3</ele>
        <time>2021-05-17T09:13:57Z</time>
      </trkpt>
      <trkpt lat="41.5301900" lon="-8.7821140">
        <ele>2.3</ele>
        <time>2021-05-17T09:13:58Z</time>
      </trkpt>
      <trkpt lat="41.5301890" lon="-8.7821140">
        <ele>2.3</ele>
        <time>2021-05-17T09:13:59Z</time>
      </trkpt>
      <trkpt lat="41.5301900" lon="-8.7821040">
        <ele>2.3</ele>
        <time>2021-05-17T09:14:00Z</time>
      </trkpt>
      <trkpt lat="41.5301910" lon="-8.7821070">
        <ele>2.3</ele>
        <time>2021-05-17T09:14:01Z</time>
      </trkpt>
      <trkpt lat="41.5301900" lon="-8.7821060">
        <ele>2.3</ele>
        <time>2021-05-17T09:14:02Z</time>
      </trkpt>
      <trkpt lat="41.5301850" lon="-8.7821020">
        <ele>2.3</ele>
        <time>2021-05-17T09:14:03Z</time>
      </trkpt>
      <trkpt lat="41.5301820" lon="-8.7821050">
        <ele>2.3</ele>
        <time>2021-05-17T09:14:04Z</time>
      </trkpt>
      <trkpt lat="41.5301890" lon="-8.7821040">
        <ele>2.3</ele>
        <time>2021-05-17T09:14:05Z</time>
      </trkpt>
      <trkpt lat="41.5301890" lon="-8.7821020">
        <ele>2.3</ele>
        <time>2021-05-17T09:14:06Z</time>
      </trkpt>
      <trkpt lat="41.5301800" lon="-8.7820940">
        <ele>2.3</ele>
        <time>2021-05-17T09:14:07Z</time>
      </trkpt>
      <trkpt lat="41.5301820" lon="-8.7820930">
        <ele>2.3</ele>
        <time>2021-05-17T09:14:08Z</time>
      </trkpt>
      <trkpt lat="41.5301770" lon="-8.7820960">
        <ele>2.3</ele>
        <time>2021-05-17T09:14:09Z</time>
      </trkpt>
      <trkpt lat="41.5301720" lon="-8.7821000">
        <ele>2.3</ele>
        <time>2021-05-17T09:14:10Z</time>
      </trkpt>
      <trkpt lat="41.5301780" lon="-8.7821030">
        <ele>2.3</ele>
        <time>2021-05-17T09:14:11Z</time>
      </trkpt>
      <trkpt lat="41.5301780" lon="-8.7821040">
        <ele>2.3</ele>
        <time>2021-05-17T09:14:12Z</time>
      </trkpt>
      <trkpt lat="41.5301800" lon="-8.7821020">
        <ele>2.3</ele>
        <time>2021-05-17T09:14:13Z</time>
      </trkpt>
      <trkpt lat="41.5301780" lon="-8.7821040">
        <ele>2.3</ele>
        <time>2021-05-17T09:14:14Z</time>
      </trkpt>
      <trkpt lat="41.5301770" lon="-8.7821030">
        <ele>2.3</ele>
        <time>2021-05-17T09:14:15Z</time>
      </trkpt>
      <trkpt lat="41.5301750" lon="-8.7821030">
        <ele>2.3</ele>
        <time>2021-05-17T09:14:16Z</time>
      </trkpt>
      <trkpt lat="41.5301740" lon="-8.7820980">
        <ele>2.3</ele>
        <time>2021-05-17T09:14:17Z</time>
      </trkpt>
      <trkpt lat="41.5301750" lon="-8.7820940">
        <ele>2.3</ele>
        <time>2021-05-17T09:14:18Z</time>
      </trkpt>
      <trkpt lat="41.5301760" lon="-8.7820910">
        <ele>2.3</ele>
        <time>2021-05-17T09:14:19Z</time>
      </trkpt>
      <trkpt lat="41.5301760" lon="-8.7820930">
        <ele>2.3</ele>
        <time>2021-05-17T09:14:20Z</time>
      </trkpt>
      <trkpt lat="41.5301730" lon="-8.7820990">
        <ele>2.3</ele>
        <time>2021-05-17T09:14:21Z</time>
      </trkpt>
      <trkpt lat="41.5301720" lon="-8.7820950">
        <ele>2.3</ele>
        <time>2021-05-17T09:14:22Z</time>
      </trkpt>
      <trkpt lat="41.5301750" lon="-8.7820900">
        <ele>2.3</ele>
        <time>2021-05-17T09:14:23Z</time>
      </trkpt>
      <trkpt lat="41.5301780" lon="-8.7820890">
        <ele>2.3</ele>
        <time>2021-05-17T09:14:24Z</time>
      </trkpt>
      <trkpt lat="41.5301820" lon="-8.7820850">
        <ele>2.3</ele>
        <time>2021-05-17T09:14:25Z</time>
      </trkpt>
      <trkpt lat="41.5301850" lon="-8.7820810">
        <ele>2.3</ele>
        <time>2021-05-17T09:14:26Z</time>
      </trkpt>
      <trkpt lat="41.5301950" lon="-8.7820750">
        <ele>2.3</ele>
        <time>2021-05-17T09:14:27Z</time>
      </trkpt>
      <trkpt lat="41.5301960" lon="-8.7820770">
        <ele>2.3</ele>
        <time>2021-05-17T09:14:28Z</time>
      </trkpt>
      <trkpt lat="41.5302020" lon="-8.7820720">
        <ele>2.3</ele>
        <time>2021-05-17T09:14:29Z</time>
      </trkpt>
      <trkpt lat="41.5302090" lon="-8.7820680">
        <ele>2.3</ele>
        <time>2021-05-17T09:14:30Z</time>
      </trkpt>
      <trkpt lat="41.5302130" lon="-8.7820700">
        <ele>2.3</ele>
        <time>2021-05-17T09:14:31Z</time>
      </trkpt>
      <trkpt lat="41.5302150" lon="-8.7820680">
        <ele>2.3</ele>
        <time>2021-05-17T09:14:32Z</time>
      </trkpt>
      <trkpt lat="41.5302190" lon="-8.7820670">
        <ele>2.3</ele>
        <time>2021-05-17T09:14:33Z</time>
      </trkpt>
      <trkpt lat="41.5302170" lon="-8.7820630">
        <ele>2.3</ele>
        <time>2021-05-17T09:14:34Z</time>
      </trkpt>
      <trkpt lat="41.5302190" lon="-8.7820640">
        <ele>2.3</ele>
        <time>2021-05-17T09:14:35Z</time>
      </trkpt>
      <trkpt lat="41.5302170" lon="-8.7820580">
        <ele>2.3</ele>
        <time>2021-05-17T09:14:36Z</time>
      </trkpt>
      <trkpt lat="41.5302240" lon="-8.7820590">
        <ele>2.3</ele>
        <time>2021-05-17T09:14:37Z</time>
      </trkpt>
      <trkpt lat="41.5302250" lon="-8.7820550">
        <ele>2.3</ele>
        <time>2021-05-17T09:14:38Z</time>
      </trkpt>
      <trkpt lat="41.5302280" lon="-8.7820490">
        <ele>2.3</ele>
        <time>2021-05-17T09:14:39Z</time>
      </trkpt>
      <trkpt lat="41.5302370" lon="-8.7820440">
        <ele>2.3</ele>
        <time>2021-05-17T09:14:40Z</time>
      </trkpt>
      <trkpt lat="41.5302410" lon="-8.7820400">
        <ele>2.3</ele>
        <time>2021-05-17T09:14:41Z</time>
      </trkpt>
      <trkpt lat="41.5302400" lon="-8.7820320">
        <ele>2.3</ele>
        <time>2021-05-17T09:14:42Z</time>
      </trkpt>
      <trkpt lat="41.5302410" lon="-8.7820290">
        <ele>2.3</ele>
        <time>2021-05-17T09:14:43Z</time>
      </trkpt>
      <trkpt lat="41.5302450" lon="-8.7820270">
        <ele>2.3</ele>
        <time>2021-05-17T09:14:44Z</time>
      </trkpt>
      <trkpt lat="41.5302510" lon="-8.7820280">
        <ele>2.3</ele>
        <time>2021-05-17T09:14:45Z</time>
      </trkpt>
      <trkpt lat="41.5302550" lon="-8.7820220">
        <ele>2.3</ele>
        <time>2021-05-17T09:14:46Z</time>
      </trkpt>
      <trkpt lat="41.5302560" lon="-8.7820180">
        <ele>2.3</ele>
        <time>2021-05-17T09:14:47Z</time>
      </trkpt>
      <trkpt lat="41.5302610" lon="-8.7820120">
        <ele>2.3</ele>
        <time>2021-05-17T09:14:48Z</time>
      </trkpt>
      <trkpt lat="41.5302610" lon="-8.7820090">
        <ele>2.3</ele>
        <time>2021-05-17T09:14:49Z</time>
      </trkpt>
      <trkpt lat="41.5302590" lon="-8.7820070">
        <ele>2.3</ele>
        <time>2021-05-17T09:14:50Z</time>
      </trkpt>
      <trkpt lat="41.5302620" lon="-8.7820070">
        <ele>2.3</ele>
        <time>2021-05-17T09:14:51Z</time>
      </trkpt>
      <trkpt lat="41.5302660" lon="-8.7820100">
        <ele>2.3</ele>
        <time>2021-05-17T09:14:52Z</time>
      </trkpt>
      <trkpt lat="41.5302630" lon="-8.7820130">
        <ele>2.3</ele>
        <time>2021-05-17T09:14:53Z</time>
      </trkpt>
      <trkpt lat="41.5302640" lon="-8.7820110">
        <ele>2.3</ele>
        <time>2021-05-17T09:14:54Z</time>
      </trkpt>
      <trkpt lat="41.5302600" lon="-8.7820080">
        <ele>2.3</ele>
        <time>2021-05-17T09:14:55Z</time>
      </trkpt>
      <trkpt lat="41.5302630" lon="-8.7820020">
        <ele>2.3</ele>
        <time>2021-05-17T09:14:56Z</time>
      </trkpt>
      <trkpt lat="41.5302620" lon="-8.7819960">
        <ele>2.3</ele>
        <time>2021-05-17T09:14:57Z</time>
      </trkpt>
      <trkpt lat="41.5302670" lon="-8.7819960">
        <ele>2.3</ele>
        <time>2021-05-17T09:14:58Z</time>
      </trkpt>
      <trkpt lat="41.5302660" lon="-8.7819940">
        <ele>2.3</ele>
        <time>2021-05-17T09:14:59Z</time>
      </trkpt>
      <trkpt lat="41.5302660" lon="-8.7819960">
        <ele>2.3</ele>
        <time>2021-05-17T09:15:00Z</time>
      </trkpt>
      <trkpt lat="41.5302610" lon="-8.7819970">
        <ele>2.3</ele>
        <time>2021-05-17T09:15:01Z</time>
      </trkpt>
      <trkpt lat="41.5302600" lon="-8.7820000">
        <ele>2.3</ele>
        <time>2021-05-17T09:15:02Z</time>
      </trkpt>
      <trkpt lat="41.5302610" lon="-8.7820000">
        <ele>2.3</ele>
        <time>2021-05-17T09:15:03Z</time>
      </trkpt>
      <trkpt lat="41.5302610" lon="-8.7820000">
        <ele>2.3</ele>
        <time>2021-05-17T09:15:04Z</time>
      </trkpt>
      <trkpt lat="41.5302600" lon="-8.7819990">
        <ele>2.3</ele>
        <time>2021-05-17T09:15:05Z</time>
      </trkpt>
      <trkpt lat="41.5302610" lon="-8.7819990">
        <ele>2.3</ele>
        <time>2021-05-17T09:15:06Z</time>
      </trkpt>
      <trkpt lat="41.5302630" lon="-8.7819990">
        <ele>2.3</ele>
        <time>2021-05-17T09:15:07Z</time>
      </trkpt>
      <trkpt lat="41.5302590" lon="-8.7820010">
        <ele>2.3</ele>
        <time>2021-05-17T09:15:08Z</time>
      </trkpt>
      <trkpt lat="41.5302570" lon="-8.7820010">
        <ele>2.3</ele>
        <time>2021-05-17T09:15:09Z</time>
      </trkpt>
      <trkpt lat="41.5302580" lon="-8.7820000">
        <ele>2.3</ele>
        <time>2021-05-17T09:15:10Z</time>
      </trkpt>
      <trkpt lat="41.5302570" lon="-8.7820030">
        <ele>2.3</ele>
        <time>2021-05-17T09:15:11Z</time>
      </trkpt>
      <trkpt lat="41.5302530" lon="-8.7820080">
        <ele>2.3</ele>
        <time>2021-05-17T09:15:12Z</time>
      </trkpt>
      <trkpt lat="41.5302490" lon="-8.7820060">
        <ele>2.3</ele>
        <time>2021-05-17T09:15:13Z</time>
      </trkpt>
      <trkpt lat="41.5302500" lon="-8.7820040">
        <ele>2.3</ele>
        <time>2021-05-17T09:15:14Z</time>
      </trkpt>
      <trkpt lat="41.5302470" lon="-8.7820090">
        <ele>2.3</ele>
        <time>2021-05-17T09:15:15Z</time>
      </trkpt>
      <trkpt lat="41.5302500" lon="-8.7820110">
        <ele>2.3</ele>
        <time>2021-05-17T09:15:16Z</time>
      </trkpt>
      <trkpt lat="41.5302480" lon="-8.7820110">
        <ele>2.3</ele>
        <time>2021-05-17T09:15:17Z</time>
      </trkpt>
      <trkpt lat="41.5302470" lon="-8.7820170">
        <ele>2.3</ele>
        <time>2021-05-17T09:15:18Z</time>
      </trkpt>
      <trkpt lat="41.5302450" lon="-8.7820170">
        <ele>2.3</ele>
        <time>2021-05-17T09:15:19Z</time>
      </trkpt>
      <trkpt lat="41.5302430" lon="-8.7820190">
        <ele>2.3</ele>
        <time>2021-05-17T09:15:20Z</time>
      </trkpt>
      <trkpt lat="41.5302410" lon="-8.7820200">
        <ele>2.3</ele>
        <time>2021-05-17T09:15:21Z</time>
      </trkpt>
      <trkpt lat="41.5302440" lon="-8.7820180">
        <ele>2.3</ele>
        <time>2021-05-17T09:15:22Z</time>
      </trkpt>
      <trkpt lat="41.5302430" lon="-8.7820240">
        <ele>2.3</ele>
        <time>2021-05-17T09:15:23Z</time>
      </trkpt>
      <trkpt lat="41.5302440" lon="-8.7820240">
        <ele>2.3</ele>
        <time>2021-05-17T09:15:24Z</time>
      </trkpt>
      <trkpt lat="41.5302400" lon="-8.7820250">
        <ele>2.3</ele>
        <time>2021-05-17T09:15:25Z</time>
      </trkpt>
      <trkpt lat="41.5302370" lon="-8.7820260">
        <ele>2.3</ele>
        <time>2021-05-17T09:15:26Z</time>
      </trkpt>
      <trkpt lat="41.5302320" lon="-8.7820240">
        <ele>2.3</ele>
        <time>2021-05-17T09:15:27Z</time>
      </trkpt>
      <trkpt lat="41.5302290" lon="-8.7820240">
        <ele>2.3</ele>
        <time>2021-05-17T09:15:28Z</time>
      </trkpt>
      <trkpt lat="41.5302300" lon="-8.7820240">
        <ele>2.3</ele>
        <time>2021-05-17T09:15:29Z</time>
      </trkpt>
      <trkpt lat="41.5302260" lon="-8.7820290">
        <ele>2.3</ele>
        <time>2021-05-17T09:15:30Z</time>
      </trkpt>
      <trkpt lat="41.5302250" lon="-8.7820260">
        <ele>2.3</ele>
        <time>2021-05-17T09:15:31Z</time>
      </trkpt>
      <trkpt lat="41.5302360" lon="-8.7820090">
        <ele>2.3</ele>
        <time>2021-05-17T09:15:32Z</time>
      </trkpt>
      <trkpt lat="41.5302350" lon="-8.7820060">
        <ele>2.3</ele>
        <time>2021-05-17T09:15:33Z</time>
      </trkpt>
      <trkpt lat="41.5302350" lon="-8.7820240">
        <ele>2.3</ele>
        <time>2021-05-17T09:15:34Z</time>
      </trkpt>
      <trkpt lat="41.5302330" lon="-8.7820270">
        <ele>2.3</ele>
        <time>2021-05-17T09:15:35Z</time>
      </trkpt>
      <trkpt lat="41.5302290" lon="-8.7820330">
        <ele>2.3</ele>
        <time>2021-05-17T09:15:36Z</time>
      </trkpt>
      <trkpt lat="41.5302300" lon="-8.7820330">
        <ele>2.3</ele>
        <time>2021-05-17T09:15:37Z</time>
      </trkpt>
      <trkpt lat="41.5302260" lon="-8.7820360">
        <ele>2.3</ele>
        <time>2021-05-17T09:15:38Z</time>
      </trkpt>
      <trkpt lat="41.5302260" lon="-8.7820360">
        <ele>2.3</ele>
        <time>2021-05-17T09:15:39Z</time>
      </trkpt>
      <trkpt lat="41.5302250" lon="-8.7820420">
        <ele>2.3</ele>
        <time>2021-05-17T09:15:40Z</time>
      </trkpt>
      <trkpt lat="41.5302270" lon="-8.7820420">
        <ele>2.3</ele>
        <time>2021-05-17T09:15:41Z</time>
      </trkpt>
      <trkpt lat="41.5302270" lon="-8.7820480">
        <ele>2.3</ele>
        <time>2021-05-17T09:15:42Z</time>
      </trkpt>
      <trkpt lat="41.5302340" lon="-8.7820620">
        <ele>2.3</ele>
        <time>2021-05-17T09:15:43Z</time>
      </trkpt>
      <trkpt lat="41.5302350" lon="-8.7820660">
        <ele>2.3</ele>
        <time>2021-05-17T09:15:44Z</time>
      </trkpt>
      <trkpt lat="41.5302380" lon="-8.7820830">
        <ele>2.3</ele>
        <time>2021-05-17T09:15:45Z</time>
      </trkpt>
      <trkpt lat="41.5302470" lon="-8.7820970">
        <ele>2.3</ele>
        <time>2021-05-17T09:15:46Z</time>
      </trkpt>
      <trkpt lat="41.5302670" lon="-8.7821030">
        <ele>2.3</ele>
        <time>2021-05-17T09:15:47Z</time>
      </trkpt>
      <trkpt lat="41.5302760" lon="-8.7821080">
        <ele>2.3</ele>
        <time>2021-05-17T09:15:48Z</time>
      </trkpt>
      <trkpt lat="41.5302850" lon="-8.7821140">
        <ele>2.3</ele>
        <time>2021-05-17T09:15:49Z</time>
      </trkpt>
      <trkpt lat="41.5303030" lon="-8.7821260">
        <ele>2.3</ele>
        <time>2021-05-17T09:15:50Z</time>
      </trkpt>
      <trkpt lat="41.5303100" lon="-8.7821320">
        <ele>2.3</ele>
        <time>2021-05-17T09:15:51Z</time>
      </trkpt>
      <trkpt lat="41.5303180" lon="-8.7821380">
        <ele>2.3</ele>
        <time>2021-05-17T09:15:52Z</time>
      </trkpt>
      <trkpt lat="41.5303250" lon="-8.7821440">
        <ele>2.3</ele>
        <time>2021-05-17T09:15:53Z</time>
      </trkpt>
      <trkpt lat="41.5303310" lon="-8.7821510">
        <ele>2.3</ele>
        <time>2021-05-17T09:15:54Z</time>
      </trkpt>
      <trkpt lat="41.5303440" lon="-8.7821570">
        <ele>2.3</ele>
        <time>2021-05-17T09:15:55Z</time>
      </trkpt>
      <trkpt lat="41.5303500" lon="-8.7821600">
        <ele>2.3</ele>
        <time>2021-05-17T09:15:56Z</time>
      </trkpt>
      <trkpt lat="41.5303660" lon="-8.7821610">
        <ele>2.3</ele>
        <time>2021-05-17T09:15:57Z</time>
      </trkpt>
      <trkpt lat="41.5303820" lon="-8.7821700">
        <ele>2.3</ele>
        <time>2021-05-17T09:15:58Z</time>
      </trkpt>
      <trkpt lat="41.5304010" lon="-8.7821710">
        <ele>2.3</ele>
        <time>2021-05-17T09:15:59Z</time>
      </trkpt>
      <trkpt lat="41.5304070" lon="-8.7821770">
        <ele>2.3</ele>
        <time>2021-05-17T09:16:00Z</time>
      </trkpt>
      <trkpt lat="41.5304150" lon="-8.7821800">
        <ele>2.3</ele>
        <time>2021-05-17T09:16:01Z</time>
      </trkpt>
      <trkpt lat="41.5304340" lon="-8.7821910">
        <ele>2.3</ele>
        <time>2021-05-17T09:16:02Z</time>
      </trkpt>
      <trkpt lat="41.5304450" lon="-8.7821980">
        <ele>2.3</ele>
        <time>2021-05-17T09:16:03Z</time>
      </trkpt>
      <trkpt lat="41.5304670" lon="-8.7822030">
        <ele>2.3</ele>
        <time>2021-05-17T09:16:04Z</time>
      </trkpt>
      <trkpt lat="41.5304770" lon="-8.7822140">
        <ele>2.3</ele>
        <time>2021-05-17T09:16:05Z</time>
      </trkpt>
      <trkpt lat="41.5304860" lon="-8.7822240">
        <ele>2.3</ele>
        <time>2021-05-17T09:16:06Z</time>
      </trkpt>
      <trkpt lat="41.5305100" lon="-8.7822510">
        <ele>2.3</ele>
        <time>2021-05-17T09:16:07Z</time>
      </trkpt>
      <trkpt lat="41.5305170" lon="-8.7822580">
        <ele>2.3</ele>
        <time>2021-05-17T09:16:08Z</time>
      </trkpt>
      <trkpt lat="41.5305410" lon="-8.7822700">
        <ele>2.3</ele>
        <time>2021-05-17T09:16:09Z</time>
      </trkpt>
      <trkpt lat="41.5305510" lon="-8.7822740">
        <ele>2.3</ele>
        <time>2021-05-17T09:16:10Z</time>
      </trkpt>
      <trkpt lat="41.5305780" lon="-8.7822840">
        <ele>2.3</ele>
        <time>2021-05-17T09:16:11Z</time>
      </trkpt>
      <trkpt lat="41.5305860" lon="-8.7822910">
        <ele>2.3</ele>
        <time>2021-05-17T09:16:12Z</time>
      </trkpt>
      <trkpt lat="41.5306020" lon="-8.7822910">
        <ele>2.3</ele>
        <time>2021-05-17T09:16:13Z</time>
      </trkpt>
      <trkpt lat="41.5306200" lon="-8.7822870">
        <ele>2.3</ele>
        <time>2021-05-17T09:16:14Z</time>
      </trkpt>
      <trkpt lat="41.5306370" lon="-8.7822890">
        <ele>2.3</ele>
        <time>2021-05-17T09:16:15Z</time>
      </trkpt>
      <trkpt lat="41.5306500" lon="-8.7822920">
        <ele>2.3</ele>
        <time>2021-05-17T09:16:16Z</time>
      </trkpt>
      <trkpt lat="41.5306680" lon="-8.7822950">
        <ele>2.3</ele>
        <time>2021-05-17T09:16:17Z</time>
      </trkpt>
      <trkpt lat="41.5306720" lon="-8.7822990">
        <ele>2.3</ele>
        <time>2021-05-17T09:16:18Z</time>
      </trkpt>
      <trkpt lat="41.5306750" lon="-8.7823030">
        <ele>2.3</ele>
        <time>2021-05-17T09:16:19Z</time>
      </trkpt>
      <trkpt lat="41.5306790" lon="-8.7823070">
        <ele>2.3</ele>
        <time>2021-05-17T09:16:20Z</time>
      </trkpt>
      <trkpt lat="41.5306830" lon="-8.7823110">
        <ele>2.3</ele>
        <time>2021-05-17T09:16:21Z</time>
      </trkpt>
      <trkpt lat="41.5306870" lon="-8.7823150">
        <ele>2.3</ele>
        <time>2021-05-17T09:16:22Z</time>
      </trkpt>
      <trkpt lat="41.5306900" lon="-8.7823190">
        <ele>2.3</ele>
        <time>2021-05-17T09:16:23Z</time>
      </trkpt>
      <trkpt lat="41.5306940" lon="-8.7823230">
        <ele>2.3</ele>
        <time>2021-05-17T09:16:24Z</time>
      </trkpt>
      <trkpt lat="41.5306990" lon="-8.7823220">
        <ele>2.3</ele>
        <time>2021-05-17T09:16:25Z</time>
      </trkpt>
      <trkpt lat="41.5307060" lon="-8.7823310">
        <ele>2.3</ele>
        <time>2021-05-17T09:16:26Z</time>
      </trkpt>
      <trkpt lat="41.5307230" lon="-8.7823350">
        <ele>2.3</ele>
        <time>2021-05-17T09:16:27Z</time>
      </trkpt>
      <trkpt lat="41.5307370" lon="-8.7823420">
        <ele>2.3</ele>
        <time>2021-05-17T09:16:28Z</time>
      </trkpt>
      <trkpt lat="41.5307470" lon="-8.7823510">
        <ele>2.3</ele>
        <time>2021-05-17T09:16:29Z</time>
      </trkpt>
      <trkpt lat="41.5307540" lon="-8.7823540">
        <ele>2.3</ele>
        <time>2021-05-17T09:16:30Z</time>
      </trkpt>
      <trkpt lat="41.5307750" lon="-8.7823550">
        <ele>2.2</ele>
        <time>2021-05-17T09:16:31Z</time>
      </trkpt>
      <trkpt lat="41.5307870" lon="-8.7823580">
        <ele>2.2</ele>
        <time>2021-05-17T09:16:32Z</time>
      </trkpt>
      <trkpt lat="41.5308020" lon="-8.7823670">
        <ele>2.2</ele>
        <time>2021-05-17T09:16:33Z</time>
      </trkpt>
      <trkpt lat="41.5308080" lon="-8.7823700">
        <ele>2.2</ele>
        <time>2021-05-17T09:16:34Z</time>
      </trkpt>
      <trkpt lat="41.5308200" lon="-8.7823750">
        <ele>2.2</ele>
        <time>2021-05-17T09:16:35Z</time>
      </trkpt>
      <trkpt lat="41.5308290" lon="-8.7823730">
        <ele>2.2</ele>
        <time>2021-05-17T09:16:36Z</time>
      </trkpt>
      <trkpt lat="41.5308440" lon="-8.7823640">
        <ele>2.2</ele>
        <time>2021-05-17T09:16:37Z</time>
      </trkpt>
      <trkpt lat="41.5308500" lon="-8.7823640">
        <ele>2.2</ele>
        <time>2021-05-17T09:16:38Z</time>
      </trkpt>
      <trkpt lat="41.5308550" lon="-8.7823540">
        <ele>2.2</ele>
        <time>2021-05-17T09:16:39Z</time>
      </trkpt>
      <trkpt lat="41.5308610" lon="-8.7823450">
        <ele>2.2</ele>
        <time>2021-05-17T09:16:40Z</time>
      </trkpt>
      <trkpt lat="41.5308650" lon="-8.7823320">
        <ele>2.2</ele>
        <time>2021-05-17T09:16:41Z</time>
      </trkpt>
      <trkpt lat="41.5308650" lon="-8.7823260">
        <ele>2.2</ele>
        <time>2021-05-17T09:16:42Z</time>
      </trkpt>
      <trkpt lat="41.5308620" lon="-8.7823170">
        <ele>2.2</ele>
        <time>2021-05-17T09:16:43Z</time>
      </trkpt>
      <trkpt lat="41.5308610" lon="-8.7823180">
        <ele>2.2</ele>
        <time>2021-05-17T09:16:44Z</time>
      </trkpt>
      <trkpt lat="41.5308570" lon="-8.7823210">
        <ele>2.2</ele>
        <time>2021-05-17T09:16:45Z</time>
      </trkpt>
      <trkpt lat="41.5308560" lon="-8.7823240">
        <ele>2.2</ele>
        <time>2021-05-17T09:16:46Z</time>
      </trkpt>
      <trkpt lat="41.5308570" lon="-8.7823220">
        <ele>2.2</ele>
        <time>2021-05-17T09:16:47Z</time>
      </trkpt>
      <trkpt lat="41.5308550" lon="-8.7823230">
        <ele>2.2</ele>
        <time>2021-05-17T09:16:48Z</time>
      </trkpt>
      <trkpt lat="41.5308590" lon="-8.7823220">
        <ele>2.2</ele>
        <time>2021-05-17T09:16:49Z</time>
      </trkpt>
      <trkpt lat="41.5308620" lon="-8.7823190">
        <ele>2.2</ele>
        <time>2021-05-17T09:16:50Z</time>
      </trkpt>
      <trkpt lat="41.5308660" lon="-8.7823200">
        <ele>2.2</ele>
        <time>2021-05-17T09:16:51Z</time>
      </trkpt>
      <trkpt lat="41.5308720" lon="-8.7823270">
        <ele>2.2</ele>
        <time>2021-05-17T09:16:52Z</time>
      </trkpt>
      <trkpt lat="41.5308770" lon="-8.7823250">
        <ele>2.2</ele>
        <time>2021-05-17T09:16:53Z</time>
      </trkpt>
      <trkpt lat="41.5308830" lon="-8.7823250">
        <ele>2.2</ele>
        <time>2021-05-17T09:16:54Z</time>
      </trkpt>
      <trkpt lat="41.5308780" lon="-8.7823340">
        <ele>2.2</ele>
        <time>2021-05-17T09:16:55Z</time>
      </trkpt>
      <trkpt lat="41.5308800" lon="-8.7823360">
        <ele>2.2</ele>
        <time>2021-05-17T09:16:56Z</time>
      </trkpt>
      <trkpt lat="41.5308870" lon="-8.7823300">
        <ele>2.2</ele>
        <time>2021-05-17T09:16:57Z</time>
      </trkpt>
      <trkpt lat="41.5308920" lon="-8.7823140">
        <ele>2.2</ele>
        <time>2021-05-17T09:16:58Z</time>
      </trkpt>
      <trkpt lat="41.5308920" lon="-8.7823180">
        <ele>2.2</ele>
        <time>2021-05-17T09:16:59Z</time>
      </trkpt>
      <trkpt lat="41.5308890" lon="-8.7823220">
        <ele>2.2</ele>
        <time>2021-05-17T09:17:00Z</time>
      </trkpt>
      <trkpt lat="41.5308930" lon="-8.7823300">
        <ele>2.2</ele>
        <time>2021-05-17T09:17:01Z</time>
      </trkpt>
      <trkpt lat="41.5309000" lon="-8.7823390">
        <ele>2.2</ele>
        <time>2021-05-17T09:17:02Z</time>
      </trkpt>
      <trkpt lat="41.5308820" lon="-8.7823420">
        <ele>2.2</ele>
        <time>2021-05-17T09:17:03Z</time>
      </trkpt>
      <trkpt lat="41.5308890" lon="-8.7823400">
        <ele>2.2</ele>
        <time>2021-05-17T09:17:04Z</time>
      </trkpt>
      <trkpt lat="41.5308940" lon="-8.7823390">
        <ele>2.2</ele>
        <time>2021-05-17T09:17:05Z</time>
      </trkpt>
      <trkpt lat="41.5308960" lon="-8.7823370">
        <ele>2.2</ele>
        <time>2021-05-17T09:17:06Z</time>
      </trkpt>
      <trkpt lat="41.5308970" lon="-8.7823550">
        <ele>2.2</ele>
        <time>2021-05-17T09:17:07Z</time>
      </trkpt>
      <trkpt lat="41.5309090" lon="-8.7823710">
        <ele>2.2</ele>
        <time>2021-05-17T09:17:08Z</time>
      </trkpt>
      <trkpt lat="41.5309100" lon="-8.7823710">
        <ele>2.2</ele>
        <time>2021-05-17T09:17:09Z</time>
      </trkpt>
      <trkpt lat="41.5309100" lon="-8.7823690">
        <ele>2.2</ele>
        <time>2021-05-17T09:17:10Z</time>
      </trkpt>
      <trkpt lat="41.5309150" lon="-8.7823680">
        <ele>2.2</ele>
        <time>2021-05-17T09:17:11Z</time>
      </trkpt>
      <trkpt lat="41.5309170" lon="-8.7823680">
        <ele>2.2</ele>
        <time>2021-05-17T09:17:12Z</time>
      </trkpt>
      <trkpt lat="41.5309190" lon="-8.7823650">
        <ele>2.2</ele>
        <time>2021-05-17T09:17:13Z</time>
      </trkpt>
      <trkpt lat="41.5309150" lon="-8.7823640">
        <ele>2.2</ele>
        <time>2021-05-17T09:17:14Z</time>
      </trkpt>
      <trkpt lat="41.5309160" lon="-8.7823670">
        <ele>2.2</ele>
        <time>2021-05-17T09:17:15Z</time>
      </trkpt>
      <trkpt lat="41.5309190" lon="-8.7823700">
        <ele>2.2</ele>
        <time>2021-05-17T09:17:16Z</time>
      </trkpt>
      <trkpt lat="41.5309240" lon="-8.7823770">
        <ele>2.2</ele>
        <time>2021-05-17T09:17:17Z</time>
      </trkpt>
      <trkpt lat="41.5309240" lon="-8.7823830">
        <ele>2.2</ele>
        <time>2021-05-17T09:17:18Z</time>
      </trkpt>
      <trkpt lat="41.5309300" lon="-8.7823930">
        <ele>2.2</ele>
        <time>2021-05-17T09:17:19Z</time>
      </trkpt>
      <trkpt lat="41.5309400" lon="-8.7823860">
        <ele>2.2</ele>
        <time>2021-05-17T09:17:20Z</time>
      </trkpt>
      <trkpt lat="41.5309540" lon="-8.7823740">
        <ele>2.2</ele>
        <time>2021-05-17T09:17:21Z</time>
      </trkpt>
      <trkpt lat="41.5309830" lon="-8.7823730">
        <ele>2.2</ele>
        <time>2021-05-17T09:17:22Z</time>
      </trkpt>
      <trkpt lat="41.5309740" lon="-8.7823830">
        <ele>2.2</ele>
        <time>2021-05-17T09:17:23Z</time>
      </trkpt>
      <trkpt lat="41.5309760" lon="-8.7823750">
        <ele>2.2</ele>
        <time>2021-05-17T09:17:24Z</time>
      </trkpt>
      <trkpt lat="41.5309820" lon="-8.7823790">
        <ele>2.2</ele>
        <time>2021-05-17T09:17:25Z</time>
      </trkpt>
      <trkpt lat="41.5309850" lon="-8.7823760">
        <ele>2.2</ele>
        <time>2021-05-17T09:17:26Z</time>
      </trkpt>
      <trkpt lat="41.5309880" lon="-8.7823540">
        <ele>2.2</ele>
        <time>2021-05-17T09:17:27Z</time>
      </trkpt>
      <trkpt lat="41.5309860" lon="-8.7823490">
        <ele>2.2</ele>
        <time>2021-05-17T09:17:28Z</time>
      </trkpt>
      <trkpt lat="41.5309830" lon="-8.7823440">
        <ele>2.2</ele>
        <time>2021-05-17T09:17:29Z</time>
      </trkpt>
      <trkpt lat="41.5309810" lon="-8.7823350">
        <ele>2.2</ele>
        <time>2021-05-17T09:17:30Z</time>
      </trkpt>
      <trkpt lat="41.5309940" lon="-8.7823400">
        <ele>2.2</ele>
        <time>2021-05-17T09:17:31Z</time>
      </trkpt>
      <trkpt lat="41.5309940" lon="-8.7823440">
        <ele>2.2</ele>
        <time>2021-05-17T09:17:32Z</time>
      </trkpt>
      <trkpt lat="41.5309940" lon="-8.7823490">
        <ele>2.2</ele>
        <time>2021-05-17T09:17:33Z</time>
      </trkpt>
      <trkpt lat="41.5309940" lon="-8.7823530">
        <ele>2.2</ele>
        <time>2021-05-17T09:17:34Z</time>
      </trkpt>
      <trkpt lat="41.5309940" lon="-8.7823570">
        <ele>2.2</ele>
        <time>2021-05-17T09:17:35Z</time>
      </trkpt>
      <trkpt lat="41.5309940" lon="-8.7823610">
        <ele>2.2</ele>
        <time>2021-05-17T09:17:36Z</time>
      </trkpt>
      <trkpt lat="41.5309940" lon="-8.7823650">
        <ele>2.2</ele>
        <time>2021-05-17T09:17:37Z</time>
      </trkpt>
      <trkpt lat="41.5309950" lon="-8.7823700">
        <ele>2.2</ele>
        <time>2021-05-17T09:17:38Z</time>
      </trkpt>
      <trkpt lat="41.5309950" lon="-8.7823740">
        <ele>2.2</ele>
        <time>2021-05-17T09:17:39Z</time>
      </trkpt>
      <trkpt lat="41.5309950" lon="-8.7823780">
        <ele>2.2</ele>
        <time>2021-05-17T09:17:40Z</time>
      </trkpt>
      <trkpt lat="41.5309950" lon="-8.7823820">
        <ele>2.2</ele>
        <time>2021-05-17T09:17:41Z</time>
      </trkpt>
      <trkpt lat="41.5309950" lon="-8.7823860">
        <ele>2.2</ele>
        <time>2021-05-17T09:17:42Z</time>
      </trkpt>
      <trkpt lat="41.5309950" lon="-8.7823910">
        <ele>2.2</ele>
        <time>2021-05-17T09:17:43Z</time>
      </trkpt>
      <trkpt lat="41.5309950" lon="-8.7823950">
        <ele>2.2</ele>
        <time>2021-05-17T09:17:44Z</time>
      </trkpt>
      <trkpt lat="41.5309950" lon="-8.7823990">
        <ele>2.2</ele>
        <time>2021-05-17T09:17:45Z</time>
      </trkpt>
      <trkpt lat="41.5310250" lon="-8.7823840">
        <ele>2.2</ele>
        <time>2021-05-17T09:17:46Z</time>
      </trkpt>
      <trkpt lat="41.5310270" lon="-8.7823800">
        <ele>2.2</ele>
        <time>2021-05-17T09:17:47Z</time>
      </trkpt>
      <trkpt lat="41.5310300" lon="-8.7823760">
        <ele>2.2</ele>
        <time>2021-05-17T09:17:48Z</time>
      </trkpt>
      <trkpt lat="41.5310320" lon="-8.7823720">
        <ele>2.2</ele>
        <time>2021-05-17T09:17:49Z</time>
      </trkpt>
      <trkpt lat="41.5310340" lon="-8.7823680">
        <ele>2.2</ele>
        <time>2021-05-17T09:17:50Z</time>
      </trkpt>
      <trkpt lat="41.5310360" lon="-8.7823640">
        <ele>2.2</ele>
        <time>2021-05-17T09:17:51Z</time>
      </trkpt>
      <trkpt lat="41.5310390" lon="-8.7823600">
        <ele>2.2</ele>
        <time>2021-05-17T09:17:52Z</time>
      </trkpt>
      <trkpt lat="41.5310410" lon="-8.7823560">
        <ele>2.2</ele>
        <time>2021-05-17T09:17:53Z</time>
      </trkpt>
      <trkpt lat="41.5310430" lon="-8.7823510">
        <ele>2.2</ele>
        <time>2021-05-17T09:17:54Z</time>
      </trkpt>
      <trkpt lat="41.5310460" lon="-8.7823470">
        <ele>2.2</ele>
        <time>2021-05-17T09:17:55Z</time>
      </trkpt>
      <trkpt lat="41.5310480" lon="-8.7823430">
        <ele>2.2</ele>
        <time>2021-05-17T09:17:56Z</time>
      </trkpt>
      <trkpt lat="41.5310500" lon="-8.7823390">
        <ele>2.2</ele>
        <time>2021-05-17T09:17:57Z</time>
      </trkpt>
      <trkpt lat="41.5310520" lon="-8.7823350">
        <ele>2.2</ele>
        <time>2021-05-17T09:17:58Z</time>
      </trkpt>
      <trkpt lat="41.5310550" lon="-8.7823310">
        <ele>2.2</ele>
        <time>2021-05-17T09:17:59Z</time>
      </trkpt>
      <trkpt lat="41.5310570" lon="-8.7823270">
        <ele>2.2</ele>
        <time>2021-05-17T09:18:00Z</time>
      </trkpt>
      <trkpt lat="41.5310570" lon="-8.7823230">
        <ele>2.2</ele>
        <time>2021-05-17T09:18:01Z</time>
      </trkpt>
      <trkpt lat="41.5310520" lon="-8.7823190">
        <ele>2.2</ele>
        <time>2021-05-17T09:18:02Z</time>
      </trkpt>
      <trkpt lat="41.5310490" lon="-8.7823100">
        <ele>2.2</ele>
        <time>2021-05-17T09:18:03Z</time>
      </trkpt>
      <trkpt lat="41.5310540" lon="-8.7823190">
        <ele>2.2</ele>
        <time>2021-05-17T09:18:04Z</time>
      </trkpt>
      <trkpt lat="41.5310600" lon="-8.7823220">
        <ele>2.2</ele>
        <time>2021-05-17T09:18:05Z</time>
      </trkpt>
      <trkpt lat="41.5310600" lon="-8.7823220">
        <ele>2.2</ele>
        <time>2021-05-17T09:18:06Z</time>
      </trkpt>
      <trkpt lat="41.5310600" lon="-8.7823220">
        <ele>2.2</ele>
        <time>2021-05-17T09:18:07Z</time>
      </trkpt>
      <trkpt lat="41.5310600" lon="-8.7823220">
        <ele>2.2</ele>
        <time>2021-05-17T09:18:08Z</time>
      </trkpt>
      <trkpt lat="41.5310600" lon="-8.7823220">
        <ele>2.2</ele>
        <time>2021-05-17T09:18:09Z</time>
      </trkpt>
      <trkpt lat="41.5310600" lon="-8.7823220">
        <ele>2.2</ele>
        <time>2021-05-17T09:18:10Z</time>
      </trkpt>
      <trkpt lat="41.5310600" lon="-8.7823220">
        <ele>2.2</ele>
        <time>2021-05-17T09:18:11Z</time>
      </trkpt>
      <trkpt lat="41.5310810" lon="-8.7823020">
        <ele>2.2</ele>
        <time>2021-05-17T09:18:12Z</time>
      </trkpt>
      <trkpt lat="41.5310850" lon="-8.7822920">
        <ele>2.2</ele>
        <time>2021-05-17T09:18:13Z</time>
      </trkpt>
      <trkpt lat="41.5310870" lon="-8.7822810">
        <ele>2.2</ele>
        <time>2021-05-17T09:18:14Z</time>
      </trkpt>
      <trkpt lat="41.5310830" lon="-8.7822770">
        <ele>2.2</ele>
        <time>2021-05-17T09:18:15Z</time>
      </trkpt>
      <trkpt lat="41.5310790" lon="-8.7822710">
        <ele>2.2</ele>
        <time>2021-05-17T09:18:16Z</time>
      </trkpt>
      <trkpt lat="41.5310780" lon="-8.7822700">
        <ele>2.2</ele>
        <time>2021-05-17T09:18:17Z</time>
      </trkpt>
      <trkpt lat="41.5310810" lon="-8.7822710">
        <ele>2.2</ele>
        <time>2021-05-17T09:18:18Z</time>
      </trkpt>
      <trkpt lat="41.5310810" lon="-8.7822710">
        <ele>2.2</ele>
        <time>2021-05-17T09:18:19Z</time>
      </trkpt>
      <trkpt lat="41.5310740" lon="-8.7822860">
        <ele>2.2</ele>
        <time>2021-05-17T09:18:20Z</time>
      </trkpt>
      <trkpt lat="41.5310740" lon="-8.7822860">
        <ele>2.2</ele>
        <time>2021-05-17T09:18:21Z</time>
      </trkpt>
      <trkpt lat="41.5310740" lon="-8.7822970">
        <ele>2.2</ele>
        <time>2021-05-17T09:18:22Z</time>
      </trkpt>
      <trkpt lat="41.5310740" lon="-8.7822970">
        <ele>2.2</ele>
        <time>2021-05-17T09:18:23Z</time>
      </trkpt>
      <trkpt lat="41.5310740" lon="-8.7822970">
        <ele>2.2</ele>
        <time>2021-05-17T09:18:24Z</time>
      </trkpt>
      <trkpt lat="41.5310740" lon="-8.7822970">
        <ele>2.2</ele>
        <time>2021-05-17T09:18:25Z</time>
      </trkpt>
      <trkpt lat="41.5310740" lon="-8.7822970">
        <ele>2.2</ele>
        <time>2021-05-17T09:18:26Z</time>
      </trkpt>
      <trkpt lat="41.5310710" lon="-8.7823210">
        <ele>2.2</ele>
        <time>2021-05-17T09:18:27Z</time>
      </trkpt>
      <trkpt lat="41.5310760" lon="-8.7823190">
        <ele>2.2</ele>
        <time>2021-05-17T09:18:28Z</time>
      </trkpt>
      <trkpt lat="41.5310690" lon="-8.7823150">
        <ele>2.2</ele>
        <time>2021-05-17T09:18:29Z</time>
      </trkpt>
      <trkpt lat="41.5310650" lon="-8.7823200">
        <ele>2.2</ele>
        <time>2021-05-17T09:18:30Z</time>
      </trkpt>
      <trkpt lat="41.5310630" lon="-8.7823150">
        <ele>2.2</ele>
        <time>2021-05-17T09:18:31Z</time>
      </trkpt>
      <trkpt lat="41.5310590" lon="-8.7822880">
        <ele>2.2</ele>
        <time>2021-05-17T09:18:32Z</time>
      </trkpt>
      <trkpt lat="41.5310610" lon="-8.7823020">
        <ele>2.2</ele>
        <time>2021-05-17T09:18:33Z</time>
      </trkpt>
      <trkpt lat="41.5310620" lon="-8.7823080">
        <ele>2.2</ele>
        <time>2021-05-17T09:18:34Z</time>
      </trkpt>
      <trkpt lat="41.5310590" lon="-8.7823070">
        <ele>2.2</ele>
        <time>2021-05-17T09:18:35Z</time>
      </trkpt>
      <trkpt lat="41.5310620" lon="-8.7823060">
        <ele>2.2</ele>
        <time>2021-05-17T09:18:36Z</time>
      </trkpt>
      <trkpt lat="41.5310580" lon="-8.7823050">
        <ele>2.2</ele>
        <time>2021-05-17T09:18:37Z</time>
      </trkpt>
      <trkpt lat="41.5310500" lon="-8.7823120">
        <ele>2.2</ele>
        <time>2021-05-17T09:18:38Z</time>
      </trkpt>
      <trkpt lat="41.5310420" lon="-8.7823130">
        <ele>2.2</ele>
        <time>2021-05-17T09:18:39Z</time>
      </trkpt>
      <trkpt lat="41.5310390" lon="-8.7823130">
        <ele>2.2</ele>
        <time>2021-05-17T09:18:40Z</time>
      </trkpt>
      <trkpt lat="41.5310210" lon="-8.7823270">
        <ele>2.2</ele>
        <time>2021-05-17T09:18:41Z</time>
      </trkpt>
      <trkpt lat="41.5309990" lon="-8.7823200">
        <ele>2.2</ele>
        <time>2021-05-17T09:18:42Z</time>
      </trkpt>
      <trkpt lat="41.5309900" lon="-8.7823090">
        <ele>2.2</ele>
        <time>2021-05-17T09:18:43Z</time>
      </trkpt>
      <trkpt lat="41.5309860" lon="-8.7823040">
        <ele>2.2</ele>
        <time>2021-05-17T09:18:44Z</time>
      </trkpt>
      <trkpt lat="41.5309820" lon="-8.7822930">
        <ele>2.2</ele>
        <time>2021-05-17T09:18:45Z</time>
      </trkpt>
      <trkpt lat="41.5309780" lon="-8.7822900">
        <ele>2.2</ele>
        <time>2021-05-17T09:18:46Z</time>
      </trkpt>
      <trkpt lat="41.5309740" lon="-8.7822950">
        <ele>2.2</ele>
        <time>2021-05-17T09:18:47Z</time>
      </trkpt>
      <trkpt lat="41.5309690" lon="-8.7822960">
        <ele>2.2</ele>
        <time>2021-05-17T09:18:48Z</time>
      </trkpt>
      <trkpt lat="41.5309660" lon="-8.7822970">
        <ele>2.2</ele>
        <time>2021-05-17T09:18:49Z</time>
      </trkpt>
      <trkpt lat="41.5309630" lon="-8.7822960">
        <ele>2.2</ele>
        <time>2021-05-17T09:18:50Z</time>
      </trkpt>
      <trkpt lat="41.5309460" lon="-8.7822900">
        <ele>2.2</ele>
        <time>2021-05-17T09:18:51Z</time>
      </trkpt>
      <trkpt lat="41.5309360" lon="-8.7822860">
        <ele>2.2</ele>
        <time>2021-05-17T09:18:52Z</time>
      </trkpt>
      <trkpt lat="41.5309310" lon="-8.7822820">
        <ele>2.2</ele>
        <time>2021-05-17T09:18:53Z</time>
      </trkpt>
      <trkpt lat="41.5309210" lon="-8.7822770">
        <ele>2.2</ele>
        <time>2021-05-17T09:18:54Z</time>
      </trkpt>
      <trkpt lat="41.5309180" lon="-8.7822800">
        <ele>2.2</ele>
        <time>2021-05-17T09:18:55Z</time>
      </trkpt>
      <trkpt lat="41.5309090" lon="-8.7822840">
        <ele>2.2</ele>
        <time>2021-05-17T09:18:56Z</time>
      </trkpt>
      <trkpt lat="41.5309030" lon="-8.7822990">
        <ele>2.2</ele>
        <time>2021-05-17T09:18:57Z</time>
      </trkpt>
      <trkpt lat="41.5309040" lon="-8.7823030">
        <ele>2.2</ele>
        <time>2021-05-17T09:18:58Z</time>
      </trkpt>
      <trkpt lat="41.5309040" lon="-8.7823080">
        <ele>2.2</ele>
        <time>2021-05-17T09:18:59Z</time>
      </trkpt>
      <trkpt lat="41.5309050" lon="-8.7823120">
        <ele>2.2</ele>
        <time>2021-05-17T09:19:00Z</time>
      </trkpt>
      <trkpt lat="41.5309050" lon="-8.7823170">
        <ele>2.2</ele>
        <time>2021-05-17T09:19:01Z</time>
      </trkpt>
      <trkpt lat="41.5309060" lon="-8.7823210">
        <ele>2.2</ele>
        <time>2021-05-17T09:19:02Z</time>
      </trkpt>
      <trkpt lat="41.5309060" lon="-8.7823260">
        <ele>2.2</ele>
        <time>2021-05-17T09:19:03Z</time>
      </trkpt>
      <trkpt lat="41.5309070" lon="-8.7823300">
        <ele>2.2</ele>
        <time>2021-05-17T09:19:04Z</time>
      </trkpt>
      <trkpt lat="41.5309070" lon="-8.7823350">
        <ele>2.2</ele>
        <time>2021-05-17T09:19:05Z</time>
      </trkpt>
      <trkpt lat="41.5309070" lon="-8.7823400">
        <ele>2.2</ele>
        <time>2021-05-17T09:19:06Z</time>
      </trkpt>
      <trkpt lat="41.5309080" lon="-8.7823440">
        <ele>2.2</ele>
        <time>2021-05-17T09:19:07Z</time>
      </trkpt>
      <trkpt lat="41.5309080" lon="-8.7823490">
        <ele>2.2</ele>
        <time>2021-05-17T09:19:08Z</time>
      </trkpt>
      <trkpt lat="41.5309090" lon="-8.7823530">
        <ele>2.2</ele>
        <time>2021-05-17T09:19:09Z</time>
      </trkpt>
      <trkpt lat="41.5309090" lon="-8.7823580">
        <ele>2.2</ele>
        <time>2021-05-17T09:19:10Z</time>
      </trkpt>
      <trkpt lat="41.5309100" lon="-8.7823620">
        <ele>2.2</ele>
        <time>2021-05-17T09:19:11Z</time>
      </trkpt>
      <trkpt lat="41.5309100" lon="-8.7823670">
        <ele>2.2</ele>
        <time>2021-05-17T09:19:12Z</time>
      </trkpt>
      <trkpt lat="41.5309110" lon="-8.7823710">
        <ele>2.2</ele>
        <time>2021-05-17T09:19:13Z</time>
      </trkpt>
      <trkpt lat="41.5309110" lon="-8.7823760">
        <ele>2.2</ele>
        <time>2021-05-17T09:19:14Z</time>
      </trkpt>
      <trkpt lat="41.5309220" lon="-8.7823840">
        <ele>2.2</ele>
        <time>2021-05-17T09:19:15Z</time>
      </trkpt>
      <trkpt lat="41.5309330" lon="-8.7823880">
        <ele>2.2</ele>
        <time>2021-05-17T09:19:16Z</time>
      </trkpt>
      <trkpt lat="41.5309400" lon="-8.7823960">
        <ele>2.2</ele>
        <time>2021-05-17T09:19:17Z</time>
      </trkpt>
      <trkpt lat="41.5309700" lon="-8.7823930">
        <ele>2.2</ele>
        <time>2021-05-17T09:19:18Z</time>
      </trkpt>
      <trkpt lat="41.5309810" lon="-8.7823930">
        <ele>2.2</ele>
        <time>2021-05-17T09:19:19Z</time>
      </trkpt>
      <trkpt lat="41.5309950" lon="-8.7824040">
        <ele>2.2</ele>
        <time>2021-05-17T09:19:20Z</time>
      </trkpt>
      <trkpt lat="41.5310090" lon="-8.7824180">
        <ele>2.2</ele>
        <time>2021-05-17T09:19:21Z</time>
      </trkpt>
      <trkpt lat="41.5310320" lon="-8.7824200">
        <ele>2.2</ele>
        <time>2021-05-17T09:19:22Z</time>
      </trkpt>
      <trkpt lat="41.5310420" lon="-8.7824220">
        <ele>2.2</ele>
        <time>2021-05-17T09:19:23Z</time>
      </trkpt>
      <trkpt lat="41.5310530" lon="-8.7824240">
        <ele>2.2</ele>
        <time>2021-05-17T09:19:24Z</time>
      </trkpt>
      <trkpt lat="41.5310650" lon="-8.7824250">
        <ele>2.2</ele>
        <time>2021-05-17T09:19:25Z</time>
      </trkpt>
      <trkpt lat="41.5310810" lon="-8.7824350">
        <ele>2.2</ele>
        <time>2021-05-17T09:19:26Z</time>
      </trkpt>
      <trkpt lat="41.5310960" lon="-8.7824360">
        <ele>2.2</ele>
        <time>2021-05-17T09:19:27Z</time>
      </trkpt>
      <trkpt lat="41.5311010" lon="-8.7824490">
        <ele>2.2</ele>
        <time>2021-05-17T09:19:28Z</time>
      </trkpt>
      <trkpt lat="41.5311120" lon="-8.7824530">
        <ele>2.2</ele>
        <time>2021-05-17T09:19:29Z</time>
      </trkpt>
      <trkpt lat="41.5311190" lon="-8.7824600">
        <ele>2.2</ele>
        <time>2021-05-17T09:19:30Z</time>
      </trkpt>
      <trkpt lat="41.5311400" lon="-8.7824690">
        <ele>2.2</ele>
        <time>2021-05-17T09:19:31Z</time>
      </trkpt>
      <trkpt lat="41.5311520" lon="-8.7824750">
        <ele>2.2</ele>
        <time>2021-05-17T09:19:32Z</time>
      </trkpt>
      <trkpt lat="41.5311680" lon="-8.7824830">
        <ele>2.2</ele>
        <time>2021-05-17T09:19:33Z</time>
      </trkpt>
      <trkpt lat="41.5311830" lon="-8.7824930">
        <ele>2.2</ele>
        <time>2021-05-17T09:19:34Z</time>
      </trkpt>
      <trkpt lat="41.5311890" lon="-8.7825100">
        <ele>2.2</ele>
        <time>2021-05-17T09:19:35Z</time>
      </trkpt>
      <trkpt lat="41.5312060" lon="-8.7825290">
        <ele>2.2</ele>
        <time>2021-05-17T09:19:36Z</time>
      </trkpt>
      <trkpt lat="41.5312200" lon="-8.7825360">
        <ele>2.2</ele>
        <time>2021-05-17T09:19:37Z</time>
      </trkpt>
      <trkpt lat="41.5312350" lon="-8.7825410">
        <ele>2.2</ele>
        <time>2021-05-17T09:19:38Z</time>
      </trkpt>
      <trkpt lat="41.5312480" lon="-8.7825560">
        <ele>2.2</ele>
        <time>2021-05-17T09:19:39Z</time>
      </trkpt>
      <trkpt lat="41.5312580" lon="-8.7825600">
        <ele>2.2</ele>
        <time>2021-05-17T09:19:40Z</time>
      </trkpt>
      <trkpt lat="41.5312650" lon="-8.7825590">
        <ele>2.2</ele>
        <time>2021-05-17T09:19:41Z</time>
      </trkpt>
      <trkpt lat="41.5312780" lon="-8.7825670">
        <ele>2.2</ele>
        <time>2021-05-17T09:19:42Z</time>
      </trkpt>
      <trkpt lat="41.5312870" lon="-8.7825740">
        <ele>2.2</ele>
        <time>2021-05-17T09:19:43Z</time>
      </trkpt>
      <trkpt lat="41.5312940" lon="-8.7825720">
        <ele>2.2</ele>
        <time>2021-05-17T09:19:44Z</time>
      </trkpt>
      <trkpt lat="41.5313030" lon="-8.7825830">
        <ele>2.2</ele>
        <time>2021-05-17T09:19:45Z</time>
      </trkpt>
      <trkpt lat="41.5313250" lon="-8.7825850">
        <ele>2.2</ele>
        <time>2021-05-17T09:19:46Z</time>
      </trkpt>
      <trkpt lat="41.5313360" lon="-8.7825930">
        <ele>2.2</ele>
        <time>2021-05-17T09:19:47Z</time>
      </trkpt>
      <trkpt lat="41.5313470" lon="-8.7826000">
        <ele>2.2</ele>
        <time>2021-05-17T09:19:48Z</time>
      </trkpt>
      <trkpt lat="41.5313600" lon="-8.7826000">
        <ele>2.2</ele>
        <time>2021-05-17T09:19:49Z</time>
      </trkpt>
      <trkpt lat="41.5313760" lon="-8.7826050">
        <ele>2.2</ele>
        <time>2021-05-17T09:19:50Z</time>
      </trkpt>
      <trkpt lat="41.5314060" lon="-8.7826200">
        <ele>2.2</ele>
        <time>2021-05-17T09:19:51Z</time>
      </trkpt>
      <trkpt lat="41.5314150" lon="-8.7826210">
        <ele>2.2</ele>
        <time>2021-05-17T09:19:52Z</time>
      </trkpt>
      <trkpt lat="41.5314270" lon="-8.7826270">
        <ele>2.2</ele>
        <time>2021-05-17T09:19:53Z</time>
      </trkpt>
      <trkpt lat="41.5314410" lon="-8.7826340">
        <ele>2.2</ele>
        <time>2021-05-17T09:19:54Z</time>
      </trkpt>
      <trkpt lat="41.5314530" lon="-8.7826410">
        <ele>2.2</ele>
        <time>2021-05-17T09:19:55Z</time>
      </trkpt>
      <trkpt lat="41.5314720" lon="-8.7826520">
        <ele>2.2</ele>
        <time>2021-05-17T09:19:56Z</time>
      </trkpt>
      <trkpt lat="41.5314880" lon="-8.7826530">
        <ele>2.2</ele>
        <time>2021-05-17T09:19:57Z</time>
      </trkpt>
      <trkpt lat="41.5315010" lon="-8.7826620">
        <ele>2.2</ele>
        <time>2021-05-17T09:19:58Z</time>
      </trkpt>
      <trkpt lat="41.5315160" lon="-8.7826690">
        <ele>2.2</ele>
        <time>2021-05-17T09:19:59Z</time>
      </trkpt>
      <trkpt lat="41.5315270" lon="-8.7826790">
        <ele>2.2</ele>
        <time>2021-05-17T09:20:00Z</time>
      </trkpt>
      <trkpt lat="41.5315410" lon="-8.7826730">
        <ele>2.2</ele>
        <time>2021-05-17T09:20:01Z</time>
      </trkpt>
      <trkpt lat="41.5315600" lon="-8.7826840">
        <ele>2.2</ele>
        <time>2021-05-17T09:20:02Z</time>
      </trkpt>
      <trkpt lat="41.5315740" lon="-8.7826890">
        <ele>2.2</ele>
        <time>2021-05-17T09:20:03Z</time>
      </trkpt>
      <trkpt lat="41.5315930" lon="-8.7827040">
        <ele>2.2</ele>
        <time>2021-05-17T09:20:04Z</time>
      </trkpt>
      <trkpt lat="41.5316100" lon="-8.7827120">
        <ele>2.2</ele>
        <time>2021-05-17T09:20:05Z</time>
      </trkpt>
      <trkpt lat="41.5316270" lon="-8.7827170">
        <ele>2.2</ele>
        <time>2021-05-17T09:20:06Z</time>
      </trkpt>
      <trkpt lat="41.5316370" lon="-8.7827280">
        <ele>2.2</ele>
        <time>2021-05-17T09:20:07Z</time>
      </trkpt>
      <trkpt lat="41.5316520" lon="-8.7827430">
        <ele>2.2</ele>
        <time>2021-05-17T09:20:08Z</time>
      </trkpt>
      <trkpt lat="41.5316630" lon="-8.7827440">
        <ele>2.2</ele>
        <time>2021-05-17T09:20:09Z</time>
      </trkpt>
      <trkpt lat="41.5316740" lon="-8.7827520">
        <ele>2.2</ele>
        <time>2021-05-17T09:20:10Z</time>
      </trkpt>
      <trkpt lat="41.5316860" lon="-8.7827560">
        <ele>2.2</ele>
        <time>2021-05-17T09:20:11Z</time>
      </trkpt>
      <trkpt lat="41.5317020" lon="-8.7827640">
        <ele>2.2</ele>
        <time>2021-05-17T09:20:12Z</time>
      </trkpt>
      <trkpt lat="41.5317170" lon="-8.7827680">
        <ele>2.2</ele>
        <time>2021-05-17T09:20:13Z</time>
      </trkpt>
      <trkpt lat="41.5317370" lon="-8.7827730">
        <ele>2.2</ele>
        <time>2021-05-17T09:20:14Z</time>
      </trkpt>
      <trkpt lat="41.5317460" lon="-8.7827760">
        <ele>2.2</ele>
        <time>2021-05-17T09:20:15Z</time>
      </trkpt>
      <trkpt lat="41.5317560" lon="-8.7827780">
        <ele>2.2</ele>
        <time>2021-05-17T09:20:16Z</time>
      </trkpt>
      <trkpt lat="41.5317680" lon="-8.7827780">
        <ele>2.2</ele>
        <time>2021-05-17T09:20:17Z</time>
      </trkpt>
      <trkpt lat="41.5317820" lon="-8.7827880">
        <ele>2.2</ele>
        <time>2021-05-17T09:20:18Z</time>
      </trkpt>
      <trkpt lat="41.5317950" lon="-8.7827930">
        <ele>2.2</ele>
        <time>2021-05-17T09:20:19Z</time>
      </trkpt>
      <trkpt lat="41.5318140" lon="-8.7828050">
        <ele>2.2</ele>
        <time>2021-05-17T09:20:20Z</time>
      </trkpt>
      <trkpt lat="41.5318300" lon="-8.7828060">
        <ele>2.2</ele>
        <time>2021-05-17T09:20:21Z</time>
      </trkpt>
      <trkpt lat="41.5318430" lon="-8.7828070">
        <ele>2.2</ele>
        <time>2021-05-17T09:20:22Z</time>
      </trkpt>
      <trkpt lat="41.5318590" lon="-8.7828180">
        <ele>2.2</ele>
        <time>2021-05-17T09:20:23Z</time>
      </trkpt>
      <trkpt lat="41.5318750" lon="-8.7828210">
        <ele>2.2</ele>
        <time>2021-05-17T09:20:24Z</time>
      </trkpt>
      <trkpt lat="41.5318910" lon="-8.7828250">
        <ele>2.2</ele>
        <time>2021-05-17T09:20:25Z</time>
      </trkpt>
      <trkpt lat="41.5319040" lon="-8.7828310">
        <ele>2.2</ele>
        <time>2021-05-17T09:20:26Z</time>
      </trkpt>
      <trkpt lat="41.5319170" lon="-8.7828360">
        <ele>2.2</ele>
        <time>2021-05-17T09:20:27Z</time>
      </trkpt>
      <trkpt lat="41.5319260" lon="-8.7828410">
        <ele>2.2</ele>
        <time>2021-05-17T09:20:28Z</time>
      </trkpt>
      <trkpt lat="41.5319380" lon="-8.7828470">
        <ele>2.2</ele>
        <time>2021-05-17T09:20:29Z</time>
      </trkpt>
      <trkpt lat="41.5319680" lon="-8.7828500">
        <ele>2.2</ele>
        <time>2021-05-17T09:20:30Z</time>
      </trkpt>
      <trkpt lat="41.5319760" lon="-8.7828530">
        <ele>2.2</ele>
        <time>2021-05-17T09:20:31Z</time>
      </trkpt>
      <trkpt lat="41.5319930" lon="-8.7828560">
        <ele>2.2</ele>
        <time>2021-05-17T09:20:32Z</time>
      </trkpt>
      <trkpt lat="41.5320040" lon="-8.7828600">
        <ele>2.2</ele>
        <time>2021-05-17T09:20:33Z</time>
      </trkpt>
      <trkpt lat="41.5320210" lon="-8.7828660">
        <ele>2.2</ele>
        <time>2021-05-17T09:20:34Z</time>
      </trkpt>
      <trkpt lat="41.5320360" lon="-8.7828740">
        <ele>2.2</ele>
        <time>2021-05-17T09:20:35Z</time>
      </trkpt>
      <trkpt lat="41.5320480" lon="-8.7828820">
        <ele>2.2</ele>
        <time>2021-05-17T09:20:36Z</time>
      </trkpt>
      <trkpt lat="41.5320670" lon="-8.7828940">
        <ele>2.2</ele>
        <time>2021-05-17T09:20:37Z</time>
      </trkpt>
      <trkpt lat="41.5320770" lon="-8.7829010">
        <ele>2.2</ele>
        <time>2021-05-17T09:20:38Z</time>
      </trkpt>
      <trkpt lat="41.5320970" lon="-8.7829050">
        <ele>2.2</ele>
        <time>2021-05-17T09:20:39Z</time>
      </trkpt>
      <trkpt lat="41.5321200" lon="-8.7829170">
        <ele>2.2</ele>
        <time>2021-05-17T09:20:40Z</time>
      </trkpt>
      <trkpt lat="41.5321320" lon="-8.7829190">
        <ele>2.2</ele>
        <time>2021-05-17T09:20:41Z</time>
      </trkpt>
      <trkpt lat="41.5321430" lon="-8.7829220">
        <ele>2.2</ele>
        <time>2021-05-17T09:20:42Z</time>
      </trkpt>
      <trkpt lat="41.5321640" lon="-8.7829280">
        <ele>2.2</ele>
        <time>2021-05-17T09:20:43Z</time>
      </trkpt>
      <trkpt lat="41.5321740" lon="-8.7829320">
        <ele>2.2</ele>
        <time>2021-05-17T09:20:44Z</time>
      </trkpt>
      <trkpt lat="41.5321850" lon="-8.7829350">
        <ele>2.2</ele>
        <time>2021-05-17T09:20:45Z</time>
      </trkpt>
      <trkpt lat="41.5322000" lon="-8.7829440">
        <ele>2.2</ele>
        <time>2021-05-17T09:20:46Z</time>
      </trkpt>
      <trkpt lat="41.5322150" lon="-8.7829400">
        <ele>2.2</ele>
        <time>2021-05-17T09:20:47Z</time>
      </trkpt>
      <trkpt lat="41.5322280" lon="-8.7829240">
        <ele>2.2</ele>
        <time>2021-05-17T09:20:48Z</time>
      </trkpt>
      <trkpt lat="41.5322400" lon="-8.7829140">
        <ele>2.2</ele>
        <time>2021-05-17T09:20:49Z</time>
      </trkpt>
      <trkpt lat="41.5322550" lon="-8.7829060">
        <ele>2.2</ele>
        <time>2021-05-17T09:20:50Z</time>
      </trkpt>
      <trkpt lat="41.5322680" lon="-8.7828980">
        <ele>2.2</ele>
        <time>2021-05-17T09:20:51Z</time>
      </trkpt>
      <trkpt lat="41.5322910" lon="-8.7829130">
        <ele>2.2</ele>
        <time>2021-05-17T09:20:52Z</time>
      </trkpt>
      <trkpt lat="41.5323020" lon="-8.7829230">
        <ele>2.2</ele>
        <time>2021-05-17T09:20:53Z</time>
      </trkpt>
      <trkpt lat="41.5323120" lon="-8.7829330">
        <ele>2.2</ele>
        <time>2021-05-17T09:20:54Z</time>
      </trkpt>
      <trkpt lat="41.5323380" lon="-8.7829560">
        <ele>2.2</ele>
        <time>2021-05-17T09:20:55Z</time>
      </trkpt>
      <trkpt lat="41.5323440" lon="-8.7829610">
        <ele>2.2</ele>
        <time>2021-05-17T09:20:56Z</time>
      </trkpt>
      <trkpt lat="41.5323690" lon="-8.7829790">
        <ele>2.2</ele>
        <time>2021-05-17T09:20:57Z</time>
      </trkpt>
      <trkpt lat="41.5323760" lon="-8.7829870">
        <ele>2.2</ele>
        <time>2021-05-17T09:20:58Z</time>
      </trkpt>
      <trkpt lat="41.5323930" lon="-8.7830000">
        <ele>2.2</ele>
        <time>2021-05-17T09:20:59Z</time>
      </trkpt>
      <trkpt lat="41.5324070" lon="-8.7830060">
        <ele>2.2</ele>
        <time>2021-05-17T09:21:00Z</time>
      </trkpt>
      <trkpt lat="41.5324220" lon="-8.7830150">
        <ele>2.1</ele>
        <time>2021-05-17T09:21:01Z</time>
      </trkpt>
      <trkpt lat="41.5324330" lon="-8.7830270">
        <ele>2.1</ele>
        <time>2021-05-17T09:21:02Z</time>
      </trkpt>
      <trkpt lat="41.5324460" lon="-8.7830400">
        <ele>2.1</ele>
        <time>2021-05-17T09:21:03Z</time>
      </trkpt>
      <trkpt lat="41.5324640" lon="-8.7830510">
        <ele>2.1</ele>
        <time>2021-05-17T09:21:04Z</time>
      </trkpt>
      <trkpt lat="41.5324790" lon="-8.7830540">
        <ele>2.1</ele>
        <time>2021-05-17T09:21:05Z</time>
      </trkpt>
      <trkpt lat="41.5324940" lon="-8.7830670">
        <ele>2.1</ele>
        <time>2021-05-17T09:21:06Z</time>
      </trkpt>
      <trkpt lat="41.5325080" lon="-8.7830720">
        <ele>2.1</ele>
        <time>2021-05-17T09:21:07Z</time>
      </trkpt>
      <trkpt lat="41.5325250" lon="-8.7830750">
        <ele>2.1</ele>
        <time>2021-05-17T09:21:08Z</time>
      </trkpt>
      <trkpt lat="41.5325420" lon="-8.7830830">
        <ele>2.1</ele>
        <time>2021-05-17T09:21:09Z</time>
      </trkpt>
      <trkpt lat="41.5325540" lon="-8.7830930">
        <ele>2.1</ele>
        <time>2021-05-17T09:21:10Z</time>
      </trkpt>
      <trkpt lat="41.5325680" lon="-8.7831040">
        <ele>2.1</ele>
        <time>2021-05-17T09:21:11Z</time>
      </trkpt>
      <trkpt lat="41.5325820" lon="-8.7831100">
        <ele>2.1</ele>
        <time>2021-05-17T09:21:12Z</time>
      </trkpt>
      <trkpt lat="41.5326020" lon="-8.7831210">
        <ele>2.1</ele>
        <time>2021-05-17T09:21:13Z</time>
      </trkpt>
      <trkpt lat="41.5326110" lon="-8.7831240">
        <ele>2.1</ele>
        <time>2021-05-17T09:21:14Z</time>
      </trkpt>
      <trkpt lat="41.5326200" lon="-8.7831270">
        <ele>2.1</ele>
        <time>2021-05-17T09:21:15Z</time>
      </trkpt>
      <trkpt lat="41.5326300" lon="-8.7831340">
        <ele>2.1</ele>
        <time>2021-05-17T09:21:16Z</time>
      </trkpt>
      <trkpt lat="41.5326420" lon="-8.7831410">
        <ele>2.1</ele>
        <time>2021-05-17T09:21:17Z</time>
      </trkpt>
      <trkpt lat="41.5326510" lon="-8.7831520">
        <ele>2.1</ele>
        <time>2021-05-17T09:21:18Z</time>
      </trkpt>
      <trkpt lat="41.5326700" lon="-8.7831620">
        <ele>2.1</ele>
        <time>2021-05-17T09:21:19Z</time>
      </trkpt>
      <trkpt lat="41.5326800" lon="-8.7831650">
        <ele>2.1</ele>
        <time>2021-05-17T09:21:20Z</time>
      </trkpt>
      <trkpt lat="41.5326900" lon="-8.7831690">
        <ele>2.1</ele>
        <time>2021-05-17T09:21:21Z</time>
      </trkpt>
      <trkpt lat="41.5327010" lon="-8.7831800">
        <ele>2.1</ele>
        <time>2021-05-17T09:21:22Z</time>
      </trkpt>
      <trkpt lat="41.5327070" lon="-8.7831810">
        <ele>2.1</ele>
        <time>2021-05-17T09:21:23Z</time>
      </trkpt>
      <trkpt lat="41.5327180" lon="-8.7831930">
        <ele>2.1</ele>
        <time>2021-05-17T09:21:24Z</time>
      </trkpt>
      <trkpt lat="41.5327360" lon="-8.7832000">
        <ele>2.1</ele>
        <time>2021-05-17T09:21:25Z</time>
      </trkpt>
      <trkpt lat="41.5327480" lon="-8.7832040">
        <ele>2.1</ele>
        <time>2021-05-17T09:21:26Z</time>
      </trkpt>
      <trkpt lat="41.5327650" lon="-8.7832080">
        <ele>2.1</ele>
        <time>2021-05-17T09:21:27Z</time>
      </trkpt>
      <trkpt lat="41.5327750" lon="-8.7832150">
        <ele>2.1</ele>
        <time>2021-05-17T09:21:28Z</time>
      </trkpt>
      <trkpt lat="41.5327950" lon="-8.7832240">
        <ele>2.1</ele>
        <time>2021-05-17T09:21:29Z</time>
      </trkpt>
      <trkpt lat="41.5328030" lon="-8.7832300">
        <ele>2.1</ele>
        <time>2021-05-17T09:21:30Z</time>
      </trkpt>
      <trkpt lat="41.5328120" lon="-8.7832350">
        <ele>2.1</ele>
        <time>2021-05-17T09:21:31Z</time>
      </trkpt>
      <trkpt lat="41.5328260" lon="-8.7832370">
        <ele>2.1</ele>
        <time>2021-05-17T09:21:32Z</time>
      </trkpt>
      <trkpt lat="41.5328330" lon="-8.7832460">
        <ele>2.1</ele>
        <time>2021-05-17T09:21:33Z</time>
      </trkpt>
      <trkpt lat="41.5328390" lon="-8.7832490">
        <ele>2.1</ele>
        <time>2021-05-17T09:21:34Z</time>
      </trkpt>
      <trkpt lat="41.5328490" lon="-8.7832530">
        <ele>2.1</ele>
        <time>2021-05-17T09:21:35Z</time>
      </trkpt>
      <trkpt lat="41.5328540" lon="-8.7832510">
        <ele>2.1</ele>
        <time>2021-05-17T09:21:36Z</time>
      </trkpt>
      <trkpt lat="41.5328600" lon="-8.7832600">
        <ele>2.1</ele>
        <time>2021-05-17T09:21:37Z</time>
      </trkpt>
      <trkpt lat="41.5328720" lon="-8.7832600">
        <ele>2.1</ele>
        <time>2021-05-17T09:21:38Z</time>
      </trkpt>
      <trkpt lat="41.5328820" lon="-8.7832710">
        <ele>2.1</ele>
        <time>2021-05-17T09:21:39Z</time>
      </trkpt>
      <trkpt lat="41.5328900" lon="-8.7832730">
        <ele>2.1</ele>
        <time>2021-05-17T09:21:40Z</time>
      </trkpt>
      <trkpt lat="41.5328990" lon="-8.7832800">
        <ele>2.1</ele>
        <time>2021-05-17T09:21:41Z</time>
      </trkpt>
      <trkpt lat="41.5329050" lon="-8.7832810">
        <ele>2.1</ele>
        <time>2021-05-17T09:21:42Z</time>
      </trkpt>
      <trkpt lat="41.5329180" lon="-8.7832870">
        <ele>2.1</ele>
        <time>2021-05-17T09:21:43Z</time>
      </trkpt>
      <trkpt lat="41.5329260" lon="-8.7832950">
        <ele>2.1</ele>
        <time>2021-05-17T09:21:44Z</time>
      </trkpt>
      <trkpt lat="41.5329470" lon="-8.7833020">
        <ele>2.1</ele>
        <time>2021-05-17T09:21:45Z</time>
      </trkpt>
      <trkpt lat="41.5329570" lon="-8.7833090">
        <ele>2.1</ele>
        <time>2021-05-17T09:21:46Z</time>
      </trkpt>
      <trkpt lat="41.5329670" lon="-8.7833150">
        <ele>2.1</ele>
        <time>2021-05-17T09:21:47Z</time>
      </trkpt>
      <trkpt lat="41.5329800" lon="-8.7833250">
        <ele>2.1</ele>
        <time>2021-05-17T09:21:48Z</time>
      </trkpt>
      <trkpt lat="41.5329970" lon="-8.7833290">
        <ele>2.1</ele>
        <time>2021-05-17T09:21:49Z</time>
      </trkpt>
      <trkpt lat="41.5330120" lon="-8.7833380">
        <ele>2.1</ele>
        <time>2021-05-17T09:21:50Z</time>
      </trkpt>
      <trkpt lat="41.5330220" lon="-8.7833430">
        <ele>2.1</ele>
        <time>2021-05-17T09:21:51Z</time>
      </trkpt>
      <trkpt lat="41.5330490" lon="-8.7833570">
        <ele>2.1</ele>
        <time>2021-05-17T09:21:52Z</time>
      </trkpt>
      <trkpt lat="41.5330570" lon="-8.7833600">
        <ele>2.1</ele>
        <time>2021-05-17T09:21:53Z</time>
      </trkpt>
      <trkpt lat="41.5330900" lon="-8.7833740">
        <ele>2.1</ele>
        <time>2021-05-17T09:21:54Z</time>
      </trkpt>
      <trkpt lat="41.5330990" lon="-8.7833770">
        <ele>2.1</ele>
        <time>2021-05-17T09:21:55Z</time>
      </trkpt>
      <trkpt lat="41.5331270" lon="-8.7833890">
        <ele>2.1</ele>
        <time>2021-05-17T09:21:56Z</time>
      </trkpt>
      <trkpt lat="41.5331340" lon="-8.7833950">
        <ele>2.1</ele>
        <time>2021-05-17T09:21:57Z</time>
      </trkpt>
      <trkpt lat="41.5331520" lon="-8.7834000">
        <ele>2.1</ele>
        <time>2021-05-17T09:21:58Z</time>
      </trkpt>
      <trkpt lat="41.5331690" lon="-8.7834050">
        <ele>2.1</ele>
        <time>2021-05-17T09:21:59Z</time>
      </trkpt>
      <trkpt lat="41.5331810" lon="-8.7834160">
        <ele>2.1</ele>
        <time>2021-05-17T09:22:00Z</time>
      </trkpt>
      <trkpt lat="41.5332000" lon="-8.7834160">
        <ele>2.1</ele>
        <time>2021-05-17T09:22:01Z</time>
      </trkpt>
      <trkpt lat="41.5332150" lon="-8.7834260">
        <ele>2.1</ele>
        <time>2021-05-17T09:22:02Z</time>
      </trkpt>
      <trkpt lat="41.5332310" lon="-8.7834290">
        <ele>2.1</ele>
        <time>2021-05-17T09:22:03Z</time>
      </trkpt>
      <trkpt lat="41.5332450" lon="-8.7834380">
        <ele>2.1</ele>
        <time>2021-05-17T09:22:04Z</time>
      </trkpt>
      <trkpt lat="41.5332590" lon="-8.7834430">
        <ele>2.1</ele>
        <time>2021-05-17T09:22:05Z</time>
      </trkpt>
      <trkpt lat="41.5332870" lon="-8.7834530">
        <ele>2.1</ele>
        <time>2021-05-17T09:22:06Z</time>
      </trkpt>
      <trkpt lat="41.5332950" lon="-8.7834560">
        <ele>2.1</ele>
        <time>2021-05-17T09:22:07Z</time>
      </trkpt>
      <trkpt lat="41.5333090" lon="-8.7834650">
        <ele>2.1</ele>
        <time>2021-05-17T09:22:08Z</time>
      </trkpt>
      <trkpt lat="41.5333280" lon="-8.7834670">
        <ele>2.1</ele>
        <time>2021-05-17T09:22:09Z</time>
      </trkpt>
      <trkpt lat="41.5333440" lon="-8.7834760">
        <ele>2.1</ele>
        <time>2021-05-17T09:22:10Z</time>
      </trkpt>
      <trkpt lat="41.5333600" lon="-8.7834840">
        <ele>2.1</ele>
        <time>2021-05-17T09:22:11Z</time>
      </trkpt>
      <trkpt lat="41.5333780" lon="-8.7834880">
        <ele>2.1</ele>
        <time>2021-05-17T09:22:12Z</time>
      </trkpt>
      <trkpt lat="41.5333930" lon="-8.7834920">
        <ele>2.1</ele>
        <time>2021-05-17T09:22:13Z</time>
      </trkpt>
      <trkpt lat="41.5334060" lon="-8.7835020">
        <ele>2.1</ele>
        <time>2021-05-17T09:22:14Z</time>
      </trkpt>
      <trkpt lat="41.5334240" lon="-8.7835010">
        <ele>2.1</ele>
        <time>2021-05-17T09:22:15Z</time>
      </trkpt>
      <trkpt lat="41.5334370" lon="-8.7835160">
        <ele>2.1</ele>
        <time>2021-05-17T09:22:16Z</time>
      </trkpt>
      <trkpt lat="41.5334520" lon="-8.7835280">
        <ele>2.1</ele>
        <time>2021-05-17T09:22:17Z</time>
      </trkpt>
      <trkpt lat="41.5334670" lon="-8.7835240">
        <ele>2.1</ele>
        <time>2021-05-17T09:22:18Z</time>
      </trkpt>
      <trkpt lat="41.5334800" lon="-8.7835340">
        <ele>2.1</ele>
        <time>2021-05-17T09:22:19Z</time>
      </trkpt>
      <trkpt lat="41.5334970" lon="-8.7835410">
        <ele>2.1</ele>
        <time>2021-05-17T09:22:20Z</time>
      </trkpt>
      <trkpt lat="41.5335110" lon="-8.7835450">
        <ele>2.1</ele>
        <time>2021-05-17T09:22:21Z</time>
      </trkpt>
      <trkpt lat="41.5335270" lon="-8.7835430">
        <ele>2.1</ele>
        <time>2021-05-17T09:22:22Z</time>
      </trkpt>
      <trkpt lat="41.5335410" lon="-8.7835540">
        <ele>2.1</ele>
        <time>2021-05-17T09:22:23Z</time>
      </trkpt>
      <trkpt lat="41.5335560" lon="-8.7835590">
        <ele>2.1</ele>
        <time>2021-05-17T09:22:24Z</time>
      </trkpt>
      <trkpt lat="41.5335700" lon="-8.7835660">
        <ele>2.1</ele>
        <time>2021-05-17T09:22:25Z</time>
      </trkpt>
      <trkpt lat="41.5335850" lon="-8.7835760">
        <ele>2.1</ele>
        <time>2021-05-17T09:22:26Z</time>
      </trkpt>
      <trkpt lat="41.5335980" lon="-8.7835850">
        <ele>2.1</ele>
        <time>2021-05-17T09:22:27Z</time>
      </trkpt>
      <trkpt lat="41.5336140" lon="-8.7835910">
        <ele>2.2</ele>
        <time>2021-05-17T09:22:28Z</time>
      </trkpt>
      <trkpt lat="41.5336280" lon="-8.7835990">
        <ele>2.2</ele>
        <time>2021-05-17T09:22:29Z</time>
      </trkpt>
      <trkpt lat="41.5336440" lon="-8.7836050">
        <ele>2.2</ele>
        <time>2021-05-17T09:22:30Z</time>
      </trkpt>
      <trkpt lat="41.5336580" lon="-8.7836070">
        <ele>2.2</ele>
        <time>2021-05-17T09:22:31Z</time>
      </trkpt>
      <trkpt lat="41.5336730" lon="-8.7836130">
        <ele>2.2</ele>
        <time>2021-05-17T09:22:32Z</time>
      </trkpt>
      <trkpt lat="41.5336890" lon="-8.7836160">
        <ele>2.2</ele>
        <time>2021-05-17T09:22:33Z</time>
      </trkpt>
      <trkpt lat="41.5337010" lon="-8.7836250">
        <ele>2.2</ele>
        <time>2021-05-17T09:22:34Z</time>
      </trkpt>
      <trkpt lat="41.5337150" lon="-8.7836320">
        <ele>2.2</ele>
        <time>2021-05-17T09:22:35Z</time>
      </trkpt>
      <trkpt lat="41.5337280" lon="-8.7836400">
        <ele>2.2</ele>
        <time>2021-05-17T09:22:36Z</time>
      </trkpt>
      <trkpt lat="41.5337430" lon="-8.7836450">
        <ele>2.2</ele>
        <time>2021-05-17T09:22:37Z</time>
      </trkpt>
      <trkpt lat="41.5337610" lon="-8.7836600">
        <ele>2.2</ele>
        <time>2021-05-17T09:22:38Z</time>
      </trkpt>
      <trkpt lat="41.5337700" lon="-8.7836660">
        <ele>2.2</ele>
        <time>2021-05-17T09:22:39Z</time>
      </trkpt>
      <trkpt lat="41.5337780" lon="-8.7836720">
        <ele>2.2</ele>
        <time>2021-05-17T09:22:40Z</time>
      </trkpt>
      <trkpt lat="41.5338000" lon="-8.7836780">
        <ele>2.2</ele>
        <time>2021-05-17T09:22:41Z</time>
      </trkpt>
      <trkpt lat="41.5338080" lon="-8.7836830">
        <ele>2.2</ele>
        <time>2021-05-17T09:22:42Z</time>
      </trkpt>
      <trkpt lat="41.5338160" lon="-8.7836890">
        <ele>2.2</ele>
        <time>2021-05-17T09:22:43Z</time>
      </trkpt>
      <trkpt lat="41.5338310" lon="-8.7836830">
        <ele>2.2</ele>
        <time>2021-05-17T09:22:44Z</time>
      </trkpt>
      <trkpt lat="41.5338450" lon="-8.7836960">
        <ele>2.2</ele>
        <time>2021-05-17T09:22:45Z</time>
      </trkpt>
      <trkpt lat="41.5338590" lon="-8.7837010">
        <ele>2.2</ele>
        <time>2021-05-17T09:22:46Z</time>
      </trkpt>
      <trkpt lat="41.5338750" lon="-8.7837110">
        <ele>2.2</ele>
        <time>2021-05-17T09:22:47Z</time>
      </trkpt>
      <trkpt lat="41.5338880" lon="-8.7837180">
        <ele>2.2</ele>
        <time>2021-05-17T09:22:48Z</time>
      </trkpt>
      <trkpt lat="41.5339020" lon="-8.7837270">
        <ele>2.2</ele>
        <time>2021-05-17T09:22:49Z</time>
      </trkpt>
      <trkpt lat="41.5339130" lon="-8.7837340">
        <ele>2.2</ele>
        <time>2021-05-17T09:22:50Z</time>
      </trkpt>
      <trkpt lat="41.5339230" lon="-8.7837390">
        <ele>2.2</ele>
        <time>2021-05-17T09:22:51Z</time>
      </trkpt>
      <trkpt lat="41.5339330" lon="-8.7837500">
        <ele>2.2</ele>
        <time>2021-05-17T09:22:52Z</time>
      </trkpt>
      <trkpt lat="41.5339450" lon="-8.7837510">
        <ele>2.2</ele>
        <time>2021-05-17T09:22:53Z</time>
      </trkpt>
      <trkpt lat="41.5339570" lon="-8.7837550">
        <ele>2.2</ele>
        <time>2021-05-17T09:22:54Z</time>
      </trkpt>
      <trkpt lat="41.5339660" lon="-8.7837600">
        <ele>2.2</ele>
        <time>2021-05-17T09:22:55Z</time>
      </trkpt>
      <trkpt lat="41.5339810" lon="-8.7837640">
        <ele>2.2</ele>
        <time>2021-05-17T09:22:56Z</time>
      </trkpt>
      <trkpt lat="41.5339940" lon="-8.7837630">
        <ele>2.2</ele>
        <time>2021-05-17T09:22:57Z</time>
      </trkpt>
      <trkpt lat="41.5340080" lon="-8.7837670">
        <ele>2.2</ele>
        <time>2021-05-17T09:22:58Z</time>
      </trkpt>
      <trkpt lat="41.5340220" lon="-8.7837710">
        <ele>2.2</ele>
        <time>2021-05-17T09:22:59Z</time>
      </trkpt>
      <trkpt lat="41.5340340" lon="-8.7837710">
        <ele>2.2</ele>
        <time>2021-05-17T09:23:00Z</time>
      </trkpt>
      <trkpt lat="41.5340470" lon="-8.7837830">
        <ele>2.2</ele>
        <time>2021-05-17T09:23:01Z</time>
      </trkpt>
      <trkpt lat="41.5340690" lon="-8.7837890">
        <ele>2.2</ele>
        <time>2021-05-17T09:23:02Z</time>
      </trkpt>
      <trkpt lat="41.5340780" lon="-8.7837950">
        <ele>2.2</ele>
        <time>2021-05-17T09:23:03Z</time>
      </trkpt>
      <trkpt lat="41.5340860" lon="-8.7838000">
        <ele>2.2</ele>
        <time>2021-05-17T09:23:04Z</time>
      </trkpt>
      <trkpt lat="41.5341000" lon="-8.7838070">
        <ele>2.2</ele>
        <time>2021-05-17T09:23:05Z</time>
      </trkpt>
      <trkpt lat="41.5341140" lon="-8.7838130">
        <ele>2.2</ele>
        <time>2021-05-17T09:23:06Z</time>
      </trkpt>
      <trkpt lat="41.5341250" lon="-8.7838210">
        <ele>2.2</ele>
        <time>2021-05-17T09:23:07Z</time>
      </trkpt>
      <trkpt lat="41.5341410" lon="-8.7838260">
        <ele>2.2</ele>
        <time>2021-05-17T09:23:08Z</time>
      </trkpt>
      <trkpt lat="41.5341530" lon="-8.7838360">
        <ele>2.2</ele>
        <time>2021-05-17T09:23:09Z</time>
      </trkpt>
      <trkpt lat="41.5341680" lon="-8.7838480">
        <ele>2.2</ele>
        <time>2021-05-17T09:23:10Z</time>
      </trkpt>
      <trkpt lat="41.5341820" lon="-8.7838500">
        <ele>2.2</ele>
        <time>2021-05-17T09:23:11Z</time>
      </trkpt>
      <trkpt lat="41.5341960" lon="-8.7838540">
        <ele>2.2</ele>
        <time>2021-05-17T09:23:12Z</time>
      </trkpt>
      <trkpt lat="41.5342120" lon="-8.7838560">
        <ele>2.2</ele>
        <time>2021-05-17T09:23:13Z</time>
      </trkpt>
      <trkpt lat="41.5342250" lon="-8.7838730">
        <ele>2.2</ele>
        <time>2021-05-17T09:23:14Z</time>
      </trkpt>
      <trkpt lat="41.5342430" lon="-8.7838850">
        <ele>2.2</ele>
        <time>2021-05-17T09:23:15Z</time>
      </trkpt>
      <trkpt lat="41.5342510" lon="-8.7838900">
        <ele>2.2</ele>
        <time>2021-05-17T09:23:16Z</time>
      </trkpt>
      <trkpt lat="41.5342590" lon="-8.7838960">
        <ele>2.2</ele>
        <time>2021-05-17T09:23:17Z</time>
      </trkpt>
      <trkpt lat="41.5342750" lon="-8.7838960">
        <ele>2.2</ele>
        <time>2021-05-17T09:23:18Z</time>
      </trkpt>
      <trkpt lat="41.5342890" lon="-8.7838990">
        <ele>2.2</ele>
        <time>2021-05-17T09:23:19Z</time>
      </trkpt>
      <trkpt lat="41.5343040" lon="-8.7839020">
        <ele>2.2</ele>
        <time>2021-05-17T09:23:20Z</time>
      </trkpt>
      <trkpt lat="41.5343190" lon="-8.7839070">
        <ele>2.2</ele>
        <time>2021-05-17T09:23:21Z</time>
      </trkpt>
      <trkpt lat="41.5343420" lon="-8.7839170">
        <ele>2.2</ele>
        <time>2021-05-17T09:23:22Z</time>
      </trkpt>
      <trkpt lat="41.5343500" lon="-8.7839210">
        <ele>2.2</ele>
        <time>2021-05-17T09:23:23Z</time>
      </trkpt>
      <trkpt lat="41.5343590" lon="-8.7839260">
        <ele>2.2</ele>
        <time>2021-05-17T09:23:24Z</time>
      </trkpt>
      <trkpt lat="41.5343740" lon="-8.7839340">
        <ele>2.2</ele>
        <time>2021-05-17T09:23:25Z</time>
      </trkpt>
      <trkpt lat="41.5343860" lon="-8.7839440">
        <ele>2.2</ele>
        <time>2021-05-17T09:23:26Z</time>
      </trkpt>
      <trkpt lat="41.5343980" lon="-8.7839450">
        <ele>2.2</ele>
        <time>2021-05-17T09:23:27Z</time>
      </trkpt>
      <trkpt lat="41.5344120" lon="-8.7839530">
        <ele>2.2</ele>
        <time>2021-05-17T09:23:28Z</time>
      </trkpt>
      <trkpt lat="41.5344250" lon="-8.7839620">
        <ele>2.2</ele>
        <time>2021-05-17T09:23:29Z</time>
      </trkpt>
      <trkpt lat="41.5344380" lon="-8.7839670">
        <ele>2.2</ele>
        <time>2021-05-17T09:23:30Z</time>
      </trkpt>
      <trkpt lat="41.5344500" lon="-8.7839700">
        <ele>2.2</ele>
        <time>2021-05-17T09:23:31Z</time>
      </trkpt>
      <trkpt lat="41.5344630" lon="-8.7839840">
        <ele>2.2</ele>
        <time>2021-05-17T09:23:32Z</time>
      </trkpt>
      <trkpt lat="41.5344760" lon="-8.7839820">
        <ele>2.2</ele>
        <time>2021-05-17T09:23:33Z</time>
      </trkpt>
      <trkpt lat="41.5344840" lon="-8.7839880">
        <ele>2.2</ele>
        <time>2021-05-17T09:23:34Z</time>
      </trkpt>
      <trkpt lat="41.5344930" lon="-8.7839900">
        <ele>2.2</ele>
        <time>2021-05-17T09:23:35Z</time>
      </trkpt>
      <trkpt lat="41.5344930" lon="-8.7839910">
        <ele>2.2</ele>
        <time>2021-05-17T09:23:36Z</time>
      </trkpt>
      <trkpt lat="41.5345070" lon="-8.7839960">
        <ele>2.2</ele>
        <time>2021-05-17T09:23:37Z</time>
      </trkpt>
      <trkpt lat="41.5345220" lon="-8.7839990">
        <ele>2.2</ele>
        <time>2021-05-17T09:23:38Z</time>
      </trkpt>
      <trkpt lat="41.5345390" lon="-8.7840080">
        <ele>2.2</ele>
        <time>2021-05-17T09:23:39Z</time>
      </trkpt>
      <trkpt lat="41.5345550" lon="-8.7840110">
        <ele>2.2</ele>
        <time>2021-05-17T09:23:40Z</time>
      </trkpt>
      <trkpt lat="41.5345650" lon="-8.7840180">
        <ele>2.2</ele>
        <time>2021-05-17T09:23:41Z</time>
      </trkpt>
      <trkpt lat="41.5345720" lon="-8.7840250">
        <ele>2.2</ele>
        <time>2021-05-17T09:23:42Z</time>
      </trkpt>
      <trkpt lat="41.5345830" lon="-8.7840220">
        <ele>2.2</ele>
        <time>2021-05-17T09:23:43Z</time>
      </trkpt>
      <trkpt lat="41.5345950" lon="-8.7840310">
        <ele>2.2</ele>
        <time>2021-05-17T09:23:44Z</time>
      </trkpt>
      <trkpt lat="41.5346050" lon="-8.7840370">
        <ele>2.2</ele>
        <time>2021-05-17T09:23:45Z</time>
      </trkpt>
      <trkpt lat="41.5346140" lon="-8.7840480">
        <ele>2.2</ele>
        <time>2021-05-17T09:23:46Z</time>
      </trkpt>
      <trkpt lat="41.5346270" lon="-8.7840570">
        <ele>2.2</ele>
        <time>2021-05-17T09:23:47Z</time>
      </trkpt>
      <trkpt lat="41.5346310" lon="-8.7840580">
        <ele>2.2</ele>
        <time>2021-05-17T09:23:48Z</time>
      </trkpt>
      <trkpt lat="41.5346470" lon="-8.7840680">
        <ele>2.2</ele>
        <time>2021-05-17T09:23:49Z</time>
      </trkpt>
      <trkpt lat="41.5346730" lon="-8.7840740">
        <ele>2.2</ele>
        <time>2021-05-17T09:23:50Z</time>
      </trkpt>
      <trkpt lat="41.5346810" lon="-8.7840790">
        <ele>2.2</ele>
        <time>2021-05-17T09:23:51Z</time>
      </trkpt>
      <trkpt lat="41.5346900" lon="-8.7840840">
        <ele>2.2</ele>
        <time>2021-05-17T09:23:52Z</time>
      </trkpt>
      <trkpt lat="41.5347020" lon="-8.7840830">
        <ele>2.2</ele>
        <time>2021-05-17T09:23:53Z</time>
      </trkpt>
      <trkpt lat="41.5347170" lon="-8.7840900">
        <ele>2.2</ele>
        <time>2021-05-17T09:23:54Z</time>
      </trkpt>
      <trkpt lat="41.5347230" lon="-8.7840940">
        <ele>2.2</ele>
        <time>2021-05-17T09:23:55Z</time>
      </trkpt>
      <trkpt lat="41.5347370" lon="-8.7840990">
        <ele>2.2</ele>
        <time>2021-05-17T09:23:56Z</time>
      </trkpt>
      <trkpt lat="41.5347480" lon="-8.7841050">
        <ele>2.2</ele>
        <time>2021-05-17T09:23:57Z</time>
      </trkpt>
      <trkpt lat="41.5347560" lon="-8.7841160">
        <ele>2.2</ele>
        <time>2021-05-17T09:23:58Z</time>
      </trkpt>
      <trkpt lat="41.5347670" lon="-8.7841250">
        <ele>2.2</ele>
        <time>2021-05-17T09:23:59Z</time>
      </trkpt>
      <trkpt lat="41.5347750" lon="-8.7841320">
        <ele>2.2</ele>
        <time>2021-05-17T09:24:00Z</time>
      </trkpt>
      <trkpt lat="41.5347820" lon="-8.7841380">
        <ele>2.2</ele>
        <time>2021-05-17T09:24:01Z</time>
      </trkpt>
      <trkpt lat="41.5348020" lon="-8.7841440">
        <ele>2.2</ele>
        <time>2021-05-17T09:24:02Z</time>
      </trkpt>
      <trkpt lat="41.5348110" lon="-8.7841460">
        <ele>2.3</ele>
        <time>2021-05-17T09:24:03Z</time>
      </trkpt>
      <trkpt lat="41.5348200" lon="-8.7841490">
        <ele>2.3</ele>
        <time>2021-05-17T09:24:04Z</time>
      </trkpt>
      <trkpt lat="41.5348360" lon="-8.7841520">
        <ele>2.3</ele>
        <time>2021-05-17T09:24:05Z</time>
      </trkpt>
      <trkpt lat="41.5348550" lon="-8.7841600">
        <ele>2.3</ele>
        <time>2021-05-17T09:24:06Z</time>
      </trkpt>
      <trkpt lat="41.5348760" lon="-8.7841660">
        <ele>2.3</ele>
        <time>2021-05-17T09:24:07Z</time>
      </trkpt>
      <trkpt lat="41.5348830" lon="-8.7841720">
        <ele>2.3</ele>
        <time>2021-05-17T09:24:08Z</time>
      </trkpt>
      <trkpt lat="41.5348900" lon="-8.7841770">
        <ele>2.3</ele>
        <time>2021-05-17T09:24:09Z</time>
      </trkpt>
      <trkpt lat="41.5349090" lon="-8.7841840">
        <ele>2.3</ele>
        <time>2021-05-17T09:24:10Z</time>
      </trkpt>
      <trkpt lat="41.5349180" lon="-8.7841880">
        <ele>2.3</ele>
        <time>2021-05-17T09:24:11Z</time>
      </trkpt>
      <trkpt lat="41.5349260" lon="-8.7841910">
        <ele>2.3</ele>
        <time>2021-05-17T09:24:12Z</time>
      </trkpt>
      <trkpt lat="41.5349330" lon="-8.7842030">
        <ele>2.3</ele>
        <time>2021-05-17T09:24:13Z</time>
      </trkpt>
      <trkpt lat="41.5349490" lon="-8.7842080">
        <ele>2.3</ele>
        <time>2021-05-17T09:24:14Z</time>
      </trkpt>
      <trkpt lat="41.5349580" lon="-8.7842130">
        <ele>2.3</ele>
        <time>2021-05-17T09:24:15Z</time>
      </trkpt>
      <trkpt lat="41.5349700" lon="-8.7842210">
        <ele>2.3</ele>
        <time>2021-05-17T09:24:16Z</time>
      </trkpt>
      <trkpt lat="41.5349780" lon="-8.7842280">
        <ele>2.3</ele>
        <time>2021-05-17T09:24:17Z</time>
      </trkpt>
      <trkpt lat="41.5349860" lon="-8.7842330">
        <ele>2.3</ele>
        <time>2021-05-17T09:24:18Z</time>
      </trkpt>
      <trkpt lat="41.5350040" lon="-8.7842390">
        <ele>2.3</ele>
        <time>2021-05-17T09:24:19Z</time>
      </trkpt>
      <trkpt lat="41.5350200" lon="-8.7842350">
        <ele>2.3</ele>
        <time>2021-05-17T09:24:20Z</time>
      </trkpt>
      <trkpt lat="41.5350340" lon="-8.7842440">
        <ele>2.3</ele>
        <time>2021-05-17T09:24:21Z</time>
      </trkpt>
      <trkpt lat="41.5350410" lon="-8.7842470">
        <ele>2.3</ele>
        <time>2021-05-17T09:24:22Z</time>
      </trkpt>
      <trkpt lat="41.5350540" lon="-8.7842460">
        <ele>2.3</ele>
        <time>2021-05-17T09:24:23Z</time>
      </trkpt>
      <trkpt lat="41.5350630" lon="-8.7842520">
        <ele>2.3</ele>
        <time>2021-05-17T09:24:24Z</time>
      </trkpt>
      <trkpt lat="41.5350690" lon="-8.7842560">
        <ele>2.3</ele>
        <time>2021-05-17T09:24:25Z</time>
      </trkpt>
      <trkpt lat="41.5350840" lon="-8.7842680">
        <ele>2.3</ele>
        <time>2021-05-17T09:24:26Z</time>
      </trkpt>
      <trkpt lat="41.5350970" lon="-8.7842710">
        <ele>2.3</ele>
        <time>2021-05-17T09:24:27Z</time>
      </trkpt>
      <trkpt lat="41.5351120" lon="-8.7842800">
        <ele>2.3</ele>
        <time>2021-05-17T09:24:28Z</time>
      </trkpt>
      <trkpt lat="41.5351320" lon="-8.7842850">
        <ele>2.3</ele>
        <time>2021-05-17T09:24:29Z</time>
      </trkpt>
      <trkpt lat="41.5351450" lon="-8.7842900">
        <ele>2.3</ele>
        <time>2021-05-17T09:24:30Z</time>
      </trkpt>
      <trkpt lat="41.5351580" lon="-8.7842940">
        <ele>2.3</ele>
        <time>2021-05-17T09:24:31Z</time>
      </trkpt>
      <trkpt lat="41.5351670" lon="-8.7842980">
        <ele>2.3</ele>
        <time>2021-05-17T09:24:32Z</time>
      </trkpt>
      <trkpt lat="41.5351800" lon="-8.7843000">
        <ele>2.3</ele>
        <time>2021-05-17T09:24:33Z</time>
      </trkpt>
      <trkpt lat="41.5351900" lon="-8.7843100">
        <ele>2.3</ele>
        <time>2021-05-17T09:24:34Z</time>
      </trkpt>
      <trkpt lat="41.5352160" lon="-8.7843210">
        <ele>2.3</ele>
        <time>2021-05-17T09:24:35Z</time>
      </trkpt>
      <trkpt lat="41.5352230" lon="-8.7843250">
        <ele>2.3</ele>
        <time>2021-05-17T09:24:36Z</time>
      </trkpt>
      <trkpt lat="41.5352300" lon="-8.7843290">
        <ele>2.3</ele>
        <time>2021-05-17T09:24:37Z</time>
      </trkpt>
      <trkpt lat="41.5352440" lon="-8.7843350">
        <ele>2.3</ele>
        <time>2021-05-17T09:24:38Z</time>
      </trkpt>
      <trkpt lat="41.5352550" lon="-8.7843420">
        <ele>2.3</ele>
        <time>2021-05-17T09:24:39Z</time>
      </trkpt>
      <trkpt lat="41.5352760" lon="-8.7843510">
        <ele>2.3</ele>
        <time>2021-05-17T09:24:40Z</time>
      </trkpt>
      <trkpt lat="41.5352850" lon="-8.7843550">
        <ele>2.3</ele>
        <time>2021-05-17T09:24:41Z</time>
      </trkpt>
      <trkpt lat="41.5352940" lon="-8.7843580">
        <ele>2.3</ele>
        <time>2021-05-17T09:24:42Z</time>
      </trkpt>
      <trkpt lat="41.5353050" lon="-8.7843610">
        <ele>2.3</ele>
        <time>2021-05-17T09:24:43Z</time>
      </trkpt>
      <trkpt lat="41.5353220" lon="-8.7843700">
        <ele>2.3</ele>
        <time>2021-05-17T09:24:44Z</time>
      </trkpt>
      <trkpt lat="41.5353310" lon="-8.7843680">
        <ele>2.3</ele>
        <time>2021-05-17T09:24:45Z</time>
      </trkpt>
      <trkpt lat="41.5353460" lon="-8.7843820">
        <ele>2.3</ele>
        <time>2021-05-17T09:24:46Z</time>
      </trkpt>
      <trkpt lat="41.5353560" lon="-8.7843850">
        <ele>2.3</ele>
        <time>2021-05-17T09:24:47Z</time>
      </trkpt>
      <trkpt lat="41.5353680" lon="-8.7843930">
        <ele>2.3</ele>
        <time>2021-05-17T09:24:48Z</time>
      </trkpt>
      <trkpt lat="41.5353830" lon="-8.7843970">
        <ele>2.3</ele>
        <time>2021-05-17T09:24:49Z</time>
      </trkpt>
      <trkpt lat="41.5353920" lon="-8.7844070">
        <ele>2.3</ele>
        <time>2021-05-17T09:24:50Z</time>
      </trkpt>
      <trkpt lat="41.5354100" lon="-8.7844110">
        <ele>2.3</ele>
        <time>2021-05-17T09:24:51Z</time>
      </trkpt>
      <trkpt lat="41.5354160" lon="-8.7844190">
        <ele>2.3</ele>
        <time>2021-05-17T09:24:52Z</time>
      </trkpt>
      <trkpt lat="41.5354290" lon="-8.7844260">
        <ele>2.3</ele>
        <time>2021-05-17T09:24:53Z</time>
      </trkpt>
      <trkpt lat="41.5354410" lon="-8.7844380">
        <ele>2.3</ele>
        <time>2021-05-17T09:24:54Z</time>
      </trkpt>
      <trkpt lat="41.5354570" lon="-8.7844480">
        <ele>2.3</ele>
        <time>2021-05-17T09:24:55Z</time>
      </trkpt>
      <trkpt lat="41.5354720" lon="-8.7844490">
        <ele>2.3</ele>
        <time>2021-05-17T09:24:56Z</time>
      </trkpt>
      <trkpt lat="41.5354970" lon="-8.7844520">
        <ele>2.3</ele>
        <time>2021-05-17T09:24:57Z</time>
      </trkpt>
      <trkpt lat="41.5355060" lon="-8.7844540">
        <ele>2.3</ele>
        <time>2021-05-17T09:24:58Z</time>
      </trkpt>
      <trkpt lat="41.5355140" lon="-8.7844560">
        <ele>2.3</ele>
        <time>2021-05-17T09:24:59Z</time>
      </trkpt>
      <trkpt lat="41.5355270" lon="-8.7844640">
        <ele>2.3</ele>
        <time>2021-05-17T09:25:00Z</time>
      </trkpt>
      <trkpt lat="41.5355410" lon="-8.7844680">
        <ele>2.3</ele>
        <time>2021-05-17T09:25:01Z</time>
      </trkpt>
      <trkpt lat="41.5355510" lon="-8.7844690">
        <ele>2.3</ele>
        <time>2021-05-17T09:25:02Z</time>
      </trkpt>
      <trkpt lat="41.5355640" lon="-8.7844780">
        <ele>2.3</ele>
        <time>2021-05-17T09:25:03Z</time>
      </trkpt>
      <trkpt lat="41.5355740" lon="-8.7844790">
        <ele>2.3</ele>
        <time>2021-05-17T09:25:04Z</time>
      </trkpt>
      <trkpt lat="41.5355840" lon="-8.7844840">
        <ele>2.3</ele>
        <time>2021-05-17T09:25:05Z</time>
      </trkpt>
      <trkpt lat="41.5356010" lon="-8.7844890">
        <ele>2.3</ele>
        <time>2021-05-17T09:25:06Z</time>
      </trkpt>
      <trkpt lat="41.5356210" lon="-8.7844970">
        <ele>2.3</ele>
        <time>2021-05-17T09:25:07Z</time>
      </trkpt>
      <trkpt lat="41.5356300" lon="-8.7845020">
        <ele>2.3</ele>
        <time>2021-05-17T09:25:08Z</time>
      </trkpt>
      <trkpt lat="41.5356380" lon="-8.7845060">
        <ele>2.3</ele>
        <time>2021-05-17T09:25:09Z</time>
      </trkpt>
      <trkpt lat="41.5356540" lon="-8.7845120">
        <ele>2.3</ele>
        <time>2021-05-17T09:25:10Z</time>
      </trkpt>
      <trkpt lat="41.5356680" lon="-8.7845210">
        <ele>2.3</ele>
        <time>2021-05-17T09:25:11Z</time>
      </trkpt>
      <trkpt lat="41.5356820" lon="-8.7845240">
        <ele>2.3</ele>
        <time>2021-05-17T09:25:12Z</time>
      </trkpt>
      <trkpt lat="41.5356990" lon="-8.7845310">
        <ele>2.3</ele>
        <time>2021-05-17T09:25:13Z</time>
      </trkpt>
      <trkpt lat="41.5357220" lon="-8.7845370">
        <ele>2.3</ele>
        <time>2021-05-17T09:25:14Z</time>
      </trkpt>
      <trkpt lat="41.5357300" lon="-8.7845380">
        <ele>2.3</ele>
        <time>2021-05-17T09:25:15Z</time>
      </trkpt>
      <trkpt lat="41.5357380" lon="-8.7845400">
        <ele>2.3</ele>
        <time>2021-05-17T09:25:16Z</time>
      </trkpt>
      <trkpt lat="41.5357520" lon="-8.7845450">
        <ele>2.4</ele>
        <time>2021-05-17T09:25:17Z</time>
      </trkpt>
      <trkpt lat="41.5357650" lon="-8.7845540">
        <ele>2.4</ele>
        <time>2021-05-17T09:25:18Z</time>
      </trkpt>
      <trkpt lat="41.5357800" lon="-8.7845550">
        <ele>2.4</ele>
        <time>2021-05-17T09:25:19Z</time>
      </trkpt>
      <trkpt lat="41.5357920" lon="-8.7845590">
        <ele>2.4</ele>
        <time>2021-05-17T09:25:20Z</time>
      </trkpt>
      <trkpt lat="41.5358110" lon="-8.7845680">
        <ele>2.4</ele>
        <time>2021-05-17T09:25:21Z</time>
      </trkpt>
      <trkpt lat="41.5358200" lon="-8.7845720">
        <ele>2.4</ele>
        <time>2021-05-17T09:25:22Z</time>
      </trkpt>
      <trkpt lat="41.5358280" lon="-8.7845760">
        <ele>2.4</ele>
        <time>2021-05-17T09:25:23Z</time>
      </trkpt>
      <trkpt lat="41.5358560" lon="-8.7845870">
        <ele>2.4</ele>
        <time>2021-05-17T09:25:24Z</time>
      </trkpt>
      <trkpt lat="41.5358650" lon="-8.7845930">
        <ele>2.4</ele>
        <time>2021-05-17T09:25:25Z</time>
      </trkpt>
      <trkpt lat="41.5358790" lon="-8.7846020">
        <ele>2.4</ele>
        <time>2021-05-17T09:25:26Z</time>
      </trkpt>
      <trkpt lat="41.5358920" lon="-8.7846070">
        <ele>2.4</ele>
        <time>2021-05-17T09:25:27Z</time>
      </trkpt>
      <trkpt lat="41.5359100" lon="-8.7846110">
        <ele>2.4</ele>
        <time>2021-05-17T09:25:28Z</time>
      </trkpt>
      <trkpt lat="41.5359260" lon="-8.7846240">
        <ele>2.4</ele>
        <time>2021-05-17T09:25:29Z</time>
      </trkpt>
      <trkpt lat="41.5359430" lon="-8.7846240">
        <ele>2.4</ele>
        <time>2021-05-17T09:25:30Z</time>
      </trkpt>
      <trkpt lat="41.5359600" lon="-8.7846340">
        <ele>2.4</ele>
        <time>2021-05-17T09:25:31Z</time>
      </trkpt>
      <trkpt lat="41.5359750" lon="-8.7846430">
        <ele>2.4</ele>
        <time>2021-05-17T09:25:32Z</time>
      </trkpt>
      <trkpt lat="41.5359910" lon="-8.7846490">
        <ele>2.4</ele>
        <time>2021-05-17T09:25:33Z</time>
      </trkpt>
      <trkpt lat="41.5360050" lon="-8.7846570">
        <ele>2.4</ele>
        <time>2021-05-17T09:25:34Z</time>
      </trkpt>
      <trkpt lat="41.5360200" lon="-8.7846620">
        <ele>2.4</ele>
        <time>2021-05-17T09:25:35Z</time>
      </trkpt>
      <trkpt lat="41.5360370" lon="-8.7846690">
        <ele>2.4</ele>
        <time>2021-05-17T09:25:36Z</time>
      </trkpt>
      <trkpt lat="41.5360520" lon="-8.7846740">
        <ele>2.4</ele>
        <time>2021-05-17T09:25:37Z</time>
      </trkpt>
      <trkpt lat="41.5360660" lon="-8.7846810">
        <ele>2.4</ele>
        <time>2021-05-17T09:25:38Z</time>
      </trkpt>
      <trkpt lat="41.5360830" lon="-8.7846790">
        <ele>2.4</ele>
        <time>2021-05-17T09:25:39Z</time>
      </trkpt>
      <trkpt lat="41.5360970" lon="-8.7846830">
        <ele>2.4</ele>
        <time>2021-05-17T09:25:40Z</time>
      </trkpt>
      <trkpt lat="41.5361140" lon="-8.7846830">
        <ele>2.4</ele>
        <time>2021-05-17T09:25:41Z</time>
      </trkpt>
      <trkpt lat="41.5361230" lon="-8.7846950">
        <ele>2.4</ele>
        <time>2021-05-17T09:25:42Z</time>
      </trkpt>
      <trkpt lat="41.5361260" lon="-8.7846970">
        <ele>2.4</ele>
        <time>2021-05-17T09:25:43Z</time>
      </trkpt>
      <trkpt lat="41.5361360" lon="-8.7847110">
        <ele>2.4</ele>
        <time>2021-05-17T09:25:44Z</time>
      </trkpt>
      <trkpt lat="41.5361470" lon="-8.7847150">
        <ele>2.4</ele>
        <time>2021-05-17T09:25:45Z</time>
      </trkpt>
      <trkpt lat="41.5361570" lon="-8.7847210">
        <ele>2.4</ele>
        <time>2021-05-17T09:25:46Z</time>
      </trkpt>
      <trkpt lat="41.5361650" lon="-8.7847320">
        <ele>2.4</ele>
        <time>2021-05-17T09:25:47Z</time>
      </trkpt>
      <trkpt lat="41.5361870" lon="-8.7847410">
        <ele>2.4</ele>
        <time>2021-05-17T09:25:48Z</time>
      </trkpt>
      <trkpt lat="41.5361970" lon="-8.7847430">
        <ele>2.4</ele>
        <time>2021-05-17T09:25:49Z</time>
      </trkpt>
      <trkpt lat="41.5362070" lon="-8.7847460">
        <ele>2.4</ele>
        <time>2021-05-17T09:25:50Z</time>
      </trkpt>
      <trkpt lat="41.5362170" lon="-8.7847500">
        <ele>2.4</ele>
        <time>2021-05-17T09:25:51Z</time>
      </trkpt>
      <trkpt lat="41.5362260" lon="-8.7847460">
        <ele>2.4</ele>
        <time>2021-05-17T09:25:52Z</time>
      </trkpt>
      <trkpt lat="41.5362390" lon="-8.7847650">
        <ele>2.4</ele>
        <time>2021-05-17T09:25:53Z</time>
      </trkpt>
      <trkpt lat="41.5362520" lon="-8.7847730">
        <ele>2.4</ele>
        <time>2021-05-17T09:25:54Z</time>
      </trkpt>
      <trkpt lat="41.5362530" lon="-8.7847780">
        <ele>2.4</ele>
        <time>2021-05-17T09:25:55Z</time>
      </trkpt>
      <trkpt lat="41.5362640" lon="-8.7847800">
        <ele>2.4</ele>
        <time>2021-05-17T09:25:56Z</time>
      </trkpt>
      <trkpt lat="41.5362770" lon="-8.7847910">
        <ele>2.4</ele>
        <time>2021-05-17T09:25:57Z</time>
      </trkpt>
      <trkpt lat="41.5362880" lon="-8.7847970">
        <ele>2.4</ele>
        <time>2021-05-17T09:25:58Z</time>
      </trkpt>
      <trkpt lat="41.5363010" lon="-8.7848050">
        <ele>2.4</ele>
        <time>2021-05-17T09:25:59Z</time>
      </trkpt>
      <trkpt lat="41.5363150" lon="-8.7848090">
        <ele>2.4</ele>
        <time>2021-05-17T09:26:00Z</time>
      </trkpt>
      <trkpt lat="41.5363270" lon="-8.7848160">
        <ele>2.4</ele>
        <time>2021-05-17T09:26:01Z</time>
      </trkpt>
      <trkpt lat="41.5363430" lon="-8.7848240">
        <ele>2.5</ele>
        <time>2021-05-17T09:26:02Z</time>
      </trkpt>
      <trkpt lat="41.5363570" lon="-8.7848300">
        <ele>2.5</ele>
        <time>2021-05-17T09:26:03Z</time>
      </trkpt>
      <trkpt lat="41.5363710" lon="-8.7848390">
        <ele>2.5</ele>
        <time>2021-05-17T09:26:04Z</time>
      </trkpt>
      <trkpt lat="41.5363940" lon="-8.7848460">
        <ele>2.5</ele>
        <time>2021-05-17T09:26:05Z</time>
      </trkpt>
      <trkpt lat="41.5364030" lon="-8.7848490">
        <ele>2.5</ele>
        <time>2021-05-17T09:26:06Z</time>
      </trkpt>
      <trkpt lat="41.5364120" lon="-8.7848530">
        <ele>2.5</ele>
        <time>2021-05-17T09:26:07Z</time>
      </trkpt>
      <trkpt lat="41.5364230" lon="-8.7848640">
        <ele>2.5</ele>
        <time>2021-05-17T09:26:08Z</time>
      </trkpt>
      <trkpt lat="41.5364390" lon="-8.7848740">
        <ele>2.5</ele>
        <time>2021-05-17T09:26:09Z</time>
      </trkpt>
      <trkpt lat="41.5364520" lon="-8.7848810">
        <ele>2.5</ele>
        <time>2021-05-17T09:26:10Z</time>
      </trkpt>
      <trkpt lat="41.5364720" lon="-8.7848870">
        <ele>2.6</ele>
        <time>2021-05-17T09:26:11Z</time>
      </trkpt>
      <trkpt lat="41.5364830" lon="-8.7848920">
        <ele>2.6</ele>
        <time>2021-05-17T09:26:12Z</time>
      </trkpt>
      <trkpt lat="41.5365020" lon="-8.7848920">
        <ele>2.6</ele>
        <time>2021-05-17T09:26:13Z</time>
      </trkpt>
      <trkpt lat="41.5365190" lon="-8.7849000">
        <ele>2.6</ele>
        <time>2021-05-17T09:26:14Z</time>
      </trkpt>
      <trkpt lat="41.5365320" lon="-8.7849100">
        <ele>2.6</ele>
        <time>2021-05-17T09:26:15Z</time>
      </trkpt>
      <trkpt lat="41.5365480" lon="-8.7849130">
        <ele>2.7</ele>
        <time>2021-05-17T09:26:16Z</time>
      </trkpt>
      <trkpt lat="41.5365610" lon="-8.7849180">
        <ele>2.7</ele>
        <time>2021-05-17T09:26:17Z</time>
      </trkpt>
      <trkpt lat="41.5365750" lon="-8.7849220">
        <ele>2.7</ele>
        <time>2021-05-17T09:26:18Z</time>
      </trkpt>
      <trkpt lat="41.5365910" lon="-8.7849270">
        <ele>2.7</ele>
        <time>2021-05-17T09:26:19Z</time>
      </trkpt>
      <trkpt lat="41.5366050" lon="-8.7849370">
        <ele>2.7</ele>
        <time>2021-05-17T09:26:20Z</time>
      </trkpt>
      <trkpt lat="41.5366200" lon="-8.7849460">
        <ele>2.7</ele>
        <time>2021-05-17T09:26:21Z</time>
      </trkpt>
      <trkpt lat="41.5366370" lon="-8.7849470">
        <ele>2.8</ele>
        <time>2021-05-17T09:26:22Z</time>
      </trkpt>
      <trkpt lat="41.5366520" lon="-8.7849530">
        <ele>2.7</ele>
        <time>2021-05-17T09:26:23Z</time>
      </trkpt>
      <trkpt lat="41.5366690" lon="-8.7849570">
        <ele>2.7</ele>
        <time>2021-05-17T09:26:24Z</time>
      </trkpt>
      <trkpt lat="41.5366800" lon="-8.7849680">
        <ele>2.7</ele>
        <time>2021-05-17T09:26:25Z</time>
      </trkpt>
      <trkpt lat="41.5366970" lon="-8.7849720">
        <ele>2.7</ele>
        <time>2021-05-17T09:26:26Z</time>
      </trkpt>
      <trkpt lat="41.5367100" lon="-8.7849760">
        <ele>2.6</ele>
        <time>2021-05-17T09:26:27Z</time>
      </trkpt>
      <trkpt lat="41.5367260" lon="-8.7849830">
        <ele>2.6</ele>
        <time>2021-05-17T09:26:28Z</time>
      </trkpt>
      <trkpt lat="41.5367390" lon="-8.7849950">
        <ele>2.6</ele>
        <time>2021-05-17T09:26:29Z</time>
      </trkpt>
      <trkpt lat="41.5367540" lon="-8.7850010">
        <ele>2.6</ele>
        <time>2021-05-17T09:26:30Z</time>
      </trkpt>
      <trkpt lat="41.5367660" lon="-8.7850070">
        <ele>2.6</ele>
        <time>2021-05-17T09:26:31Z</time>
      </trkpt>
      <trkpt lat="41.5367720" lon="-8.7850110">
        <ele>2.6</ele>
        <time>2021-05-17T09:26:32Z</time>
      </trkpt>
      <trkpt lat="41.5367790" lon="-8.7850070">
        <ele>2.6</ele>
        <time>2021-05-17T09:26:33Z</time>
      </trkpt>
      <trkpt lat="41.5367920" lon="-8.7850150">
        <ele>2.6</ele>
        <time>2021-05-17T09:26:34Z</time>
      </trkpt>
      <trkpt lat="41.5367980" lon="-8.7850180">
        <ele>2.6</ele>
        <time>2021-05-17T09:26:35Z</time>
      </trkpt>
      <trkpt lat="41.5368070" lon="-8.7850250">
        <ele>2.6</ele>
        <time>2021-05-17T09:26:36Z</time>
      </trkpt>
      <trkpt lat="41.5368200" lon="-8.7850310">
        <ele>2.5</ele>
        <time>2021-05-17T09:26:37Z</time>
      </trkpt>
      <trkpt lat="41.5368290" lon="-8.7850350">
        <ele>2.5</ele>
        <time>2021-05-17T09:26:38Z</time>
      </trkpt>
      <trkpt lat="41.5368500" lon="-8.7850380">
        <ele>2.5</ele>
        <time>2021-05-17T09:26:39Z</time>
      </trkpt>
      <trkpt lat="41.5368590" lon="-8.7850400">
        <ele>2.5</ele>
        <time>2021-05-17T09:26:40Z</time>
      </trkpt>
      <trkpt lat="41.5368680" lon="-8.7850430">
        <ele>2.5</ele>
        <time>2021-05-17T09:26:41Z</time>
      </trkpt>
      <trkpt lat="41.5368870" lon="-8.7850510">
        <ele>2.5</ele>
        <time>2021-05-17T09:26:42Z</time>
      </trkpt>
      <trkpt lat="41.5368990" lon="-8.7850550">
        <ele>2.5</ele>
        <time>2021-05-17T09:26:43Z</time>
      </trkpt>
      <trkpt lat="41.5369100" lon="-8.7850580">
        <ele>2.5</ele>
        <time>2021-05-17T09:26:44Z</time>
      </trkpt>
      <trkpt lat="41.5369140" lon="-8.7850660">
        <ele>2.5</ele>
        <time>2021-05-17T09:26:45Z</time>
      </trkpt>
      <trkpt lat="41.5369290" lon="-8.7850680">
        <ele>2.5</ele>
        <time>2021-05-17T09:26:46Z</time>
      </trkpt>
      <trkpt lat="41.5369430" lon="-8.7850700">
        <ele>2.5</ele>
        <time>2021-05-17T09:26:47Z</time>
      </trkpt>
      <trkpt lat="41.5369460" lon="-8.7850760">
        <ele>2.5</ele>
        <time>2021-05-17T09:26:48Z</time>
      </trkpt>
      <trkpt lat="41.5369590" lon="-8.7850860">
        <ele>2.5</ele>
        <time>2021-05-17T09:26:49Z</time>
      </trkpt>
      <trkpt lat="41.5369760" lon="-8.7850900">
        <ele>2.5</ele>
        <time>2021-05-17T09:26:50Z</time>
      </trkpt>
      <trkpt lat="41.5369850" lon="-8.7850930">
        <ele>2.5</ele>
        <time>2021-05-17T09:26:51Z</time>
      </trkpt>
      <trkpt lat="41.5369960" lon="-8.7850960">
        <ele>2.5</ele>
        <time>2021-05-17T09:26:52Z</time>
      </trkpt>
      <trkpt lat="41.5370110" lon="-8.7851030">
        <ele>2.5</ele>
        <time>2021-05-17T09:26:53Z</time>
      </trkpt>
      <trkpt lat="41.5370240" lon="-8.7851130">
        <ele>2.5</ele>
        <time>2021-05-17T09:26:54Z</time>
      </trkpt>
      <trkpt lat="41.5370370" lon="-8.7851170">
        <ele>2.5</ele>
        <time>2021-05-17T09:26:55Z</time>
      </trkpt>
      <trkpt lat="41.5370510" lon="-8.7851280">
        <ele>2.5</ele>
        <time>2021-05-17T09:26:56Z</time>
      </trkpt>
      <trkpt lat="41.5370640" lon="-8.7851370">
        <ele>2.5</ele>
        <time>2021-05-17T09:26:57Z</time>
      </trkpt>
      <trkpt lat="41.5370770" lon="-8.7851400">
        <ele>2.5</ele>
        <time>2021-05-17T09:26:58Z</time>
      </trkpt>
      <trkpt lat="41.5370920" lon="-8.7851490">
        <ele>2.5</ele>
        <time>2021-05-17T09:26:59Z</time>
      </trkpt>
      <trkpt lat="41.5371030" lon="-8.7851530">
        <ele>2.5</ele>
        <time>2021-05-17T09:27:00Z</time>
      </trkpt>
      <trkpt lat="41.5371100" lon="-8.7851560">
        <ele>2.5</ele>
        <time>2021-05-17T09:27:01Z</time>
      </trkpt>
      <trkpt lat="41.5371270" lon="-8.7851630">
        <ele>2.5</ele>
        <time>2021-05-17T09:27:02Z</time>
      </trkpt>
      <trkpt lat="41.5371370" lon="-8.7851700">
        <ele>2.5</ele>
        <time>2021-05-17T09:27:03Z</time>
      </trkpt>
      <trkpt lat="41.5371480" lon="-8.7851770">
        <ele>2.5</ele>
        <time>2021-05-17T09:27:04Z</time>
      </trkpt>
      <trkpt lat="41.5371550" lon="-8.7851850">
        <ele>2.5</ele>
        <time>2021-05-17T09:27:05Z</time>
      </trkpt>
      <trkpt lat="41.5371780" lon="-8.7851930">
        <ele>2.5</ele>
        <time>2021-05-17T09:27:06Z</time>
      </trkpt>
      <trkpt lat="41.5371840" lon="-8.7851970">
        <ele>2.5</ele>
        <time>2021-05-17T09:27:07Z</time>
      </trkpt>
      <trkpt lat="41.5371910" lon="-8.7852020">
        <ele>2.5</ele>
        <time>2021-05-17T09:27:08Z</time>
      </trkpt>
      <trkpt lat="41.5372160" lon="-8.7852130">
        <ele>2.5</ele>
        <time>2021-05-17T09:27:09Z</time>
      </trkpt>
      <trkpt lat="41.5372250" lon="-8.7852190">
        <ele>2.5</ele>
        <time>2021-05-17T09:27:10Z</time>
      </trkpt>
      <trkpt lat="41.5372340" lon="-8.7852250">
        <ele>2.5</ele>
        <time>2021-05-17T09:27:11Z</time>
      </trkpt>
      <trkpt lat="41.5372490" lon="-8.7852340">
        <ele>2.5</ele>
        <time>2021-05-17T09:27:12Z</time>
      </trkpt>
      <trkpt lat="41.5372660" lon="-8.7852430">
        <ele>2.5</ele>
        <time>2021-05-17T09:27:13Z</time>
      </trkpt>
      <trkpt lat="41.5372840" lon="-8.7852470">
        <ele>2.5</ele>
        <time>2021-05-17T09:27:14Z</time>
      </trkpt>
      <trkpt lat="41.5373010" lon="-8.7852540">
        <ele>2.5</ele>
        <time>2021-05-17T09:27:15Z</time>
      </trkpt>
      <trkpt lat="41.5373190" lon="-8.7852540">
        <ele>2.5</ele>
        <time>2021-05-17T09:27:16Z</time>
      </trkpt>
      <trkpt lat="41.5373350" lon="-8.7852610">
        <ele>2.5</ele>
        <time>2021-05-17T09:27:17Z</time>
      </trkpt>
      <trkpt lat="41.5373500" lon="-8.7852650">
        <ele>2.5</ele>
        <time>2021-05-17T09:27:18Z</time>
      </trkpt>
      <trkpt lat="41.5373670" lon="-8.7852740">
        <ele>2.5</ele>
        <time>2021-05-17T09:27:19Z</time>
      </trkpt>
      <trkpt lat="41.5373830" lon="-8.7852780">
        <ele>2.5</ele>
        <time>2021-05-17T09:27:20Z</time>
      </trkpt>
      <trkpt lat="41.5373980" lon="-8.7852830">
        <ele>2.5</ele>
        <time>2021-05-17T09:27:21Z</time>
      </trkpt>
      <trkpt lat="41.5374130" lon="-8.7852900">
        <ele>2.5</ele>
        <time>2021-05-17T09:27:22Z</time>
      </trkpt>
      <trkpt lat="41.5374280" lon="-8.7853040">
        <ele>2.5</ele>
        <time>2021-05-17T09:27:23Z</time>
      </trkpt>
      <trkpt lat="41.5374400" lon="-8.7853120">
        <ele>2.5</ele>
        <time>2021-05-17T09:27:24Z</time>
      </trkpt>
      <trkpt lat="41.5374550" lon="-8.7853140">
        <ele>2.5</ele>
        <time>2021-05-17T09:27:25Z</time>
      </trkpt>
      <trkpt lat="41.5374710" lon="-8.7853170">
        <ele>2.5</ele>
        <time>2021-05-17T09:27:26Z</time>
      </trkpt>
      <trkpt lat="41.5374860" lon="-8.7853210">
        <ele>2.5</ele>
        <time>2021-05-17T09:27:27Z</time>
      </trkpt>
      <trkpt lat="41.5375020" lon="-8.7853310">
        <ele>2.5</ele>
        <time>2021-05-17T09:27:28Z</time>
      </trkpt>
      <trkpt lat="41.5375150" lon="-8.7853390">
        <ele>2.5</ele>
        <time>2021-05-17T09:27:29Z</time>
      </trkpt>
      <trkpt lat="41.5375320" lon="-8.7853400">
        <ele>2.5</ele>
        <time>2021-05-17T09:27:30Z</time>
      </trkpt>
      <trkpt lat="41.5375450" lon="-8.7853490">
        <ele>2.5</ele>
        <time>2021-05-17T09:27:31Z</time>
      </trkpt>
      <trkpt lat="41.5375530" lon="-8.7853620">
        <ele>2.5</ele>
        <time>2021-05-17T09:27:32Z</time>
      </trkpt>
      <trkpt lat="41.5375650" lon="-8.7853690">
        <ele>2.5</ele>
        <time>2021-05-17T09:27:33Z</time>
      </trkpt>
      <trkpt lat="41.5375750" lon="-8.7853690">
        <ele>2.5</ele>
        <time>2021-05-17T09:27:34Z</time>
      </trkpt>
      <trkpt lat="41.5375830" lon="-8.7853700">
        <ele>2.5</ele>
        <time>2021-05-17T09:27:35Z</time>
      </trkpt>
      <trkpt lat="41.5375990" lon="-8.7853750">
        <ele>2.5</ele>
        <time>2021-05-17T09:27:36Z</time>
      </trkpt>
      <trkpt lat="41.5376050" lon="-8.7853840">
        <ele>2.5</ele>
        <time>2021-05-17T09:27:37Z</time>
      </trkpt>
      <trkpt lat="41.5376290" lon="-8.7853920">
        <ele>2.5</ele>
        <time>2021-05-17T09:27:38Z</time>
      </trkpt>
      <trkpt lat="41.5376340" lon="-8.7853960">
        <ele>2.5</ele>
        <time>2021-05-17T09:27:39Z</time>
      </trkpt>
      <trkpt lat="41.5376400" lon="-8.7854000">
        <ele>2.5</ele>
        <time>2021-05-17T09:27:40Z</time>
      </trkpt>
      <trkpt lat="41.5376440" lon="-8.7854020">
        <ele>2.5</ele>
        <time>2021-05-17T09:27:41Z</time>
      </trkpt>
      <trkpt lat="41.5376540" lon="-8.7853990">
        <ele>2.5</ele>
        <time>2021-05-17T09:27:42Z</time>
      </trkpt>
      <trkpt lat="41.5376660" lon="-8.7854040">
        <ele>2.5</ele>
        <time>2021-05-17T09:27:43Z</time>
      </trkpt>
      <trkpt lat="41.5376740" lon="-8.7854100">
        <ele>2.5</ele>
        <time>2021-05-17T09:27:44Z</time>
      </trkpt>
      <trkpt lat="41.5376870" lon="-8.7854140">
        <ele>2.5</ele>
        <time>2021-05-17T09:27:45Z</time>
      </trkpt>
      <trkpt lat="41.5377010" lon="-8.7854220">
        <ele>2.5</ele>
        <time>2021-05-17T09:27:46Z</time>
      </trkpt>
      <trkpt lat="41.5377170" lon="-8.7854250">
        <ele>2.5</ele>
        <time>2021-05-17T09:27:47Z</time>
      </trkpt>
      <trkpt lat="41.5377290" lon="-8.7854300">
        <ele>2.5</ele>
        <time>2021-05-17T09:27:48Z</time>
      </trkpt>
      <trkpt lat="41.5377420" lon="-8.7854330">
        <ele>2.5</ele>
        <time>2021-05-17T09:27:49Z</time>
      </trkpt>
      <trkpt lat="41.5377550" lon="-8.7854410">
        <ele>2.5</ele>
        <time>2021-05-17T09:27:50Z</time>
      </trkpt>
      <trkpt lat="41.5377660" lon="-8.7854490">
        <ele>2.5</ele>
        <time>2021-05-17T09:27:51Z</time>
      </trkpt>
      <trkpt lat="41.5377770" lon="-8.7854540">
        <ele>2.5</ele>
        <time>2021-05-17T09:27:52Z</time>
      </trkpt>
      <trkpt lat="41.5377860" lon="-8.7854600">
        <ele>2.5</ele>
        <time>2021-05-17T09:27:53Z</time>
      </trkpt>
      <trkpt lat="41.5377950" lon="-8.7854730">
        <ele>2.5</ele>
        <time>2021-05-17T09:27:54Z</time>
      </trkpt>
      <trkpt lat="41.5378010" lon="-8.7854880">
        <ele>2.5</ele>
        <time>2021-05-17T09:27:55Z</time>
      </trkpt>
      <trkpt lat="41.5378100" lon="-8.7854920">
        <ele>2.5</ele>
        <time>2021-05-17T09:27:56Z</time>
      </trkpt>
      <trkpt lat="41.5378230" lon="-8.7854960">
        <ele>2.5</ele>
        <time>2021-05-17T09:27:57Z</time>
      </trkpt>
      <trkpt lat="41.5378370" lon="-8.7855050">
        <ele>2.5</ele>
        <time>2021-05-17T09:27:58Z</time>
      </trkpt>
      <trkpt lat="41.5378470" lon="-8.7855080">
        <ele>2.5</ele>
        <time>2021-05-17T09:27:59Z</time>
      </trkpt>
      <trkpt lat="41.5378580" lon="-8.7855120">
        <ele>2.5</ele>
        <time>2021-05-17T09:28:00Z</time>
      </trkpt>
      <trkpt lat="41.5378710" lon="-8.7855190">
        <ele>2.5</ele>
        <time>2021-05-17T09:28:01Z</time>
      </trkpt>
      <trkpt lat="41.5378920" lon="-8.7855240">
        <ele>2.5</ele>
        <time>2021-05-17T09:28:02Z</time>
      </trkpt>
      <trkpt lat="41.5379010" lon="-8.7855260">
        <ele>2.5</ele>
        <time>2021-05-17T09:28:03Z</time>
      </trkpt>
      <trkpt lat="41.5379090" lon="-8.7855280">
        <ele>2.5</ele>
        <time>2021-05-17T09:28:04Z</time>
      </trkpt>
      <trkpt lat="41.5379240" lon="-8.7855350">
        <ele>2.5</ele>
        <time>2021-05-17T09:28:05Z</time>
      </trkpt>
      <trkpt lat="41.5379320" lon="-8.7855370">
        <ele>2.5</ele>
        <time>2021-05-17T09:28:06Z</time>
      </trkpt>
      <trkpt lat="41.5379400" lon="-8.7855400">
        <ele>2.5</ele>
        <time>2021-05-17T09:28:07Z</time>
      </trkpt>
      <trkpt lat="41.5379480" lon="-8.7855430">
        <ele>2.5</ele>
        <time>2021-05-17T09:28:08Z</time>
      </trkpt>
      <trkpt lat="41.5379600" lon="-8.7855440">
        <ele>2.5</ele>
        <time>2021-05-17T09:28:09Z</time>
      </trkpt>
      <trkpt lat="41.5379700" lon="-8.7855550">
        <ele>2.5</ele>
        <time>2021-05-17T09:28:10Z</time>
      </trkpt>
      <trkpt lat="41.5379790" lon="-8.7855560">
        <ele>2.5</ele>
        <time>2021-05-17T09:28:11Z</time>
      </trkpt>
      <trkpt lat="41.5379850" lon="-8.7855680">
        <ele>2.5</ele>
        <time>2021-05-17T09:28:12Z</time>
      </trkpt>
      <trkpt lat="41.5380020" lon="-8.7855760">
        <ele>2.5</ele>
        <time>2021-05-17T09:28:13Z</time>
      </trkpt>
      <trkpt lat="41.5380270" lon="-8.7855800">
        <ele>2.5</ele>
        <time>2021-05-17T09:28:14Z</time>
      </trkpt>
      <trkpt lat="41.5380360" lon="-8.7855820">
        <ele>2.5</ele>
        <time>2021-05-17T09:28:15Z</time>
      </trkpt>
      <trkpt lat="41.5380450" lon="-8.7855850">
        <ele>2.5</ele>
        <time>2021-05-17T09:28:16Z</time>
      </trkpt>
      <trkpt lat="41.5380580" lon="-8.7855900">
        <ele>2.5</ele>
        <time>2021-05-17T09:28:17Z</time>
      </trkpt>
      <trkpt lat="41.5380630" lon="-8.7855980">
        <ele>2.5</ele>
        <time>2021-05-17T09:28:18Z</time>
      </trkpt>
      <trkpt lat="41.5380770" lon="-8.7856060">
        <ele>2.5</ele>
        <time>2021-05-17T09:28:19Z</time>
      </trkpt>
      <trkpt lat="41.5380860" lon="-8.7856160">
        <ele>2.5</ele>
        <time>2021-05-17T09:28:20Z</time>
      </trkpt>
      <trkpt lat="41.5380980" lon="-8.7856180">
        <ele>2.5</ele>
        <time>2021-05-17T09:28:21Z</time>
      </trkpt>
      <trkpt lat="41.5381080" lon="-8.7856170">
        <ele>2.5</ele>
        <time>2021-05-17T09:28:22Z</time>
      </trkpt>
      <trkpt lat="41.5381240" lon="-8.7856230">
        <ele>2.6</ele>
        <time>2021-05-17T09:28:23Z</time>
      </trkpt>
      <trkpt lat="41.5381390" lon="-8.7856300">
        <ele>2.6</ele>
        <time>2021-05-17T09:28:24Z</time>
      </trkpt>
      <trkpt lat="41.5381470" lon="-8.7856340">
        <ele>2.6</ele>
        <time>2021-05-17T09:28:25Z</time>
      </trkpt>
      <trkpt lat="41.5381680" lon="-8.7856450">
        <ele>2.6</ele>
        <time>2021-05-17T09:28:26Z</time>
      </trkpt>
      <trkpt lat="41.5381820" lon="-8.7856550">
        <ele>2.6</ele>
        <time>2021-05-17T09:28:27Z</time>
      </trkpt>
      <trkpt lat="41.5381960" lon="-8.7856640">
        <ele>2.6</ele>
        <time>2021-05-17T09:28:28Z</time>
      </trkpt>
      <trkpt lat="41.5382040" lon="-8.7856640">
        <ele>2.6</ele>
        <time>2021-05-17T09:28:29Z</time>
      </trkpt>
      <trkpt lat="41.5382210" lon="-8.7856730">
        <ele>2.6</ele>
        <time>2021-05-17T09:28:30Z</time>
      </trkpt>
      <trkpt lat="41.5382310" lon="-8.7856750">
        <ele>2.6</ele>
        <time>2021-05-17T09:28:31Z</time>
      </trkpt>
      <trkpt lat="41.5382590" lon="-8.7856840">
        <ele>2.6</ele>
        <time>2021-05-17T09:28:32Z</time>
      </trkpt>
      <trkpt lat="41.5382700" lon="-8.7856890">
        <ele>2.6</ele>
        <time>2021-05-17T09:28:33Z</time>
      </trkpt>
      <trkpt lat="41.5382830" lon="-8.7857010">
        <ele>2.6</ele>
        <time>2021-05-17T09:28:34Z</time>
      </trkpt>
      <trkpt lat="41.5383020" lon="-8.7857070">
        <ele>2.6</ele>
        <time>2021-05-17T09:28:35Z</time>
      </trkpt>
      <trkpt lat="41.5383200" lon="-8.7857090">
        <ele>2.6</ele>
        <time>2021-05-17T09:28:36Z</time>
      </trkpt>
      <trkpt lat="41.5383370" lon="-8.7857120">
        <ele>2.6</ele>
        <time>2021-05-17T09:28:37Z</time>
      </trkpt>
      <trkpt lat="41.5383530" lon="-8.7857250">
        <ele>2.6</ele>
        <time>2021-05-17T09:28:38Z</time>
      </trkpt>
      <trkpt lat="41.5383680" lon="-8.7857300">
        <ele>2.6</ele>
        <time>2021-05-17T09:28:39Z</time>
      </trkpt>
      <trkpt lat="41.5383810" lon="-8.7857390">
        <ele>2.7</ele>
        <time>2021-05-17T09:28:40Z</time>
      </trkpt>
      <trkpt lat="41.5383950" lon="-8.7857390">
        <ele>2.7</ele>
        <time>2021-05-17T09:28:41Z</time>
      </trkpt>
      <trkpt lat="41.5384090" lon="-8.7857440">
        <ele>2.7</ele>
        <time>2021-05-17T09:28:42Z</time>
      </trkpt>
      <trkpt lat="41.5384250" lon="-8.7857500">
        <ele>2.7</ele>
        <time>2021-05-17T09:28:43Z</time>
      </trkpt>
      <trkpt lat="41.5384360" lon="-8.7857640">
        <ele>2.7</ele>
        <time>2021-05-17T09:28:44Z</time>
      </trkpt>
      <trkpt lat="41.5384500" lon="-8.7857700">
        <ele>2.7</ele>
        <time>2021-05-17T09:28:45Z</time>
      </trkpt>
      <trkpt lat="41.5384640" lon="-8.7857760">
        <ele>2.7</ele>
        <time>2021-05-17T09:28:46Z</time>
      </trkpt>
      <trkpt lat="41.5384790" lon="-8.7857820">
        <ele>2.7</ele>
        <time>2021-05-17T09:28:47Z</time>
      </trkpt>
      <trkpt lat="41.5384930" lon="-8.7857840">
        <ele>2.7</ele>
        <time>2021-05-17T09:28:48Z</time>
      </trkpt>
      <trkpt lat="41.5385060" lon="-8.7857920">
        <ele>2.7</ele>
        <time>2021-05-17T09:28:49Z</time>
      </trkpt>
      <trkpt lat="41.5385170" lon="-8.7858010">
        <ele>2.7</ele>
        <time>2021-05-17T09:28:50Z</time>
      </trkpt>
      <trkpt lat="41.5385320" lon="-8.7858070">
        <ele>2.7</ele>
        <time>2021-05-17T09:28:51Z</time>
      </trkpt>
      <trkpt lat="41.5385460" lon="-8.7858150">
        <ele>2.7</ele>
        <time>2021-05-17T09:28:52Z</time>
      </trkpt>
      <trkpt lat="41.5385580" lon="-8.7858240">
        <ele>2.7</ele>
        <time>2021-05-17T09:28:53Z</time>
      </trkpt>
      <trkpt lat="41.5385740" lon="-8.7858260">
        <ele>2.7</ele>
        <time>2021-05-17T09:28:54Z</time>
      </trkpt>
      <trkpt lat="41.5385900" lon="-8.7858330">
        <ele>2.7</ele>
        <time>2021-05-17T09:28:55Z</time>
      </trkpt>
      <trkpt lat="41.5386050" lon="-8.7858390">
        <ele>2.7</ele>
        <time>2021-05-17T09:28:56Z</time>
      </trkpt>
      <trkpt lat="41.5386190" lon="-8.7858490">
        <ele>2.7</ele>
        <time>2021-05-17T09:28:57Z</time>
      </trkpt>
      <trkpt lat="41.5386350" lon="-8.7858470">
        <ele>2.8</ele>
        <time>2021-05-17T09:28:58Z</time>
      </trkpt>
      <trkpt lat="41.5386510" lon="-8.7858520">
        <ele>2.8</ele>
        <time>2021-05-17T09:28:59Z</time>
      </trkpt>
      <trkpt lat="41.5386660" lon="-8.7858560">
        <ele>2.8</ele>
        <time>2021-05-17T09:29:00Z</time>
      </trkpt>
      <trkpt lat="41.5386820" lon="-8.7858580">
        <ele>2.8</ele>
        <time>2021-05-17T09:29:01Z</time>
      </trkpt>
      <trkpt lat="41.5386970" lon="-8.7858620">
        <ele>2.8</ele>
        <time>2021-05-17T09:29:02Z</time>
      </trkpt>
      <trkpt lat="41.5387110" lon="-8.7858710">
        <ele>2.8</ele>
        <time>2021-05-17T09:29:03Z</time>
      </trkpt>
      <trkpt lat="41.5387250" lon="-8.7858760">
        <ele>2.8</ele>
        <time>2021-05-17T09:29:04Z</time>
      </trkpt>
      <trkpt lat="41.5387370" lon="-8.7858830">
        <ele>2.8</ele>
        <time>2021-05-17T09:29:05Z</time>
      </trkpt>
      <trkpt lat="41.5387500" lon="-8.7858870">
        <ele>2.8</ele>
        <time>2021-05-17T09:29:06Z</time>
      </trkpt>
      <trkpt lat="41.5387610" lon="-8.7858940">
        <ele>2.8</ele>
        <time>2021-05-17T09:29:07Z</time>
      </trkpt>
      <trkpt lat="41.5387670" lon="-8.7858960">
        <ele>2.8</ele>
        <time>2021-05-17T09:29:08Z</time>
      </trkpt>
      <trkpt lat="41.5387770" lon="-8.7859040">
        <ele>2.8</ele>
        <time>2021-05-17T09:29:09Z</time>
      </trkpt>
      <trkpt lat="41.5387880" lon="-8.7859100">
        <ele>2.8</ele>
        <time>2021-05-17T09:29:10Z</time>
      </trkpt>
      <trkpt lat="41.5388000" lon="-8.7859170">
        <ele>2.8</ele>
        <time>2021-05-17T09:29:11Z</time>
      </trkpt>
      <trkpt lat="41.5388100" lon="-8.7859250">
        <ele>2.8</ele>
        <time>2021-05-17T09:29:12Z</time>
      </trkpt>
      <trkpt lat="41.5388250" lon="-8.7859310">
        <ele>2.8</ele>
        <time>2021-05-17T09:29:13Z</time>
      </trkpt>
      <trkpt lat="41.5388370" lon="-8.7859320">
        <ele>2.9</ele>
        <time>2021-05-17T09:29:14Z</time>
      </trkpt>
      <trkpt lat="41.5388470" lon="-8.7859360">
        <ele>2.9</ele>
        <time>2021-05-17T09:29:15Z</time>
      </trkpt>
      <trkpt lat="41.5388570" lon="-8.7859370">
        <ele>2.9</ele>
        <time>2021-05-17T09:29:16Z</time>
      </trkpt>
      <trkpt lat="41.5388600" lon="-8.7859470">
        <ele>2.9</ele>
        <time>2021-05-17T09:29:17Z</time>
      </trkpt>
      <trkpt lat="41.5388680" lon="-8.7859520">
        <ele>2.9</ele>
        <time>2021-05-17T09:29:18Z</time>
      </trkpt>
      <trkpt lat="41.5388710" lon="-8.7859560">
        <ele>2.9</ele>
        <time>2021-05-17T09:29:19Z</time>
      </trkpt>
      <trkpt lat="41.5388800" lon="-8.7859590">
        <ele>2.9</ele>
        <time>2021-05-17T09:29:20Z</time>
      </trkpt>
      <trkpt lat="41.5388860" lon="-8.7859600">
        <ele>2.9</ele>
        <time>2021-05-17T09:29:21Z</time>
      </trkpt>
      <trkpt lat="41.5388860" lon="-8.7859610">
        <ele>2.9</ele>
        <time>2021-05-17T09:29:22Z</time>
      </trkpt>
      <trkpt lat="41.5388990" lon="-8.7859660">
        <ele>2.9</ele>
        <time>2021-05-17T09:29:23Z</time>
      </trkpt>
      <trkpt lat="41.5389060" lon="-8.7859700">
        <ele>2.9</ele>
        <time>2021-05-17T09:29:24Z</time>
      </trkpt>
      <trkpt lat="41.5389150" lon="-8.7859800">
        <ele>2.9</ele>
        <time>2021-05-17T09:29:25Z</time>
      </trkpt>
      <trkpt lat="41.5389290" lon="-8.7859860">
        <ele>2.9</ele>
        <time>2021-05-17T09:29:26Z</time>
      </trkpt>
      <trkpt lat="41.5389360" lon="-8.7859920">
        <ele>2.9</ele>
        <time>2021-05-17T09:29:27Z</time>
      </trkpt>
      <trkpt lat="41.5389570" lon="-8.7859990">
        <ele>2.9</ele>
        <time>2021-05-17T09:29:28Z</time>
      </trkpt>
      <trkpt lat="41.5389650" lon="-8.7860020">
        <ele>2.9</ele>
        <time>2021-05-17T09:29:29Z</time>
      </trkpt>
      <trkpt lat="41.5389740" lon="-8.7860050">
        <ele>2.9</ele>
        <time>2021-05-17T09:29:30Z</time>
      </trkpt>
      <trkpt lat="41.5389890" lon="-8.7860090">
        <ele>2.9</ele>
        <time>2021-05-17T09:29:31Z</time>
      </trkpt>
      <trkpt lat="41.5390030" lon="-8.7860110">
        <ele>2.9</ele>
        <time>2021-05-17T09:29:32Z</time>
      </trkpt>
      <trkpt lat="41.5390220" lon="-8.7860250">
        <ele>2.9</ele>
        <time>2021-05-17T09:29:33Z</time>
      </trkpt>
      <trkpt lat="41.5390310" lon="-8.7860320">
        <ele>2.9</ele>
        <time>2021-05-17T09:29:34Z</time>
      </trkpt>
      <trkpt lat="41.5390390" lon="-8.7860380">
        <ele>2.9</ele>
        <time>2021-05-17T09:29:35Z</time>
      </trkpt>
      <trkpt lat="41.5390530" lon="-8.7860440">
        <ele>2.9</ele>
        <time>2021-05-17T09:29:36Z</time>
      </trkpt>
      <trkpt lat="41.5390650" lon="-8.7860510">
        <ele>2.9</ele>
        <time>2021-05-17T09:29:37Z</time>
      </trkpt>
      <trkpt lat="41.5390860" lon="-8.7860540">
        <ele>2.9</ele>
        <time>2021-05-17T09:29:38Z</time>
      </trkpt>
      <trkpt lat="41.5390950" lon="-8.7860600">
        <ele>2.9</ele>
        <time>2021-05-17T09:29:39Z</time>
      </trkpt>
      <trkpt lat="41.5391040" lon="-8.7860660">
        <ele>2.9</ele>
        <time>2021-05-17T09:29:40Z</time>
      </trkpt>
      <trkpt lat="41.5391240" lon="-8.7860740">
        <ele>2.9</ele>
        <time>2021-05-17T09:29:41Z</time>
      </trkpt>
      <trkpt lat="41.5391310" lon="-8.7860780">
        <ele>2.9</ele>
        <time>2021-05-17T09:29:42Z</time>
      </trkpt>
      <trkpt lat="41.5391390" lon="-8.7860830">
        <ele>2.9</ele>
        <time>2021-05-17T09:29:43Z</time>
      </trkpt>
      <trkpt lat="41.5391500" lon="-8.7860890">
        <ele>2.9</ele>
        <time>2021-05-17T09:29:44Z</time>
      </trkpt>
      <trkpt lat="41.5391570" lon="-8.7860990">
        <ele>2.9</ele>
        <time>2021-05-17T09:29:45Z</time>
      </trkpt>
      <trkpt lat="41.5391670" lon="-8.7861030">
        <ele>2.9</ele>
        <time>2021-05-17T09:29:46Z</time>
      </trkpt>
      <trkpt lat="41.5391750" lon="-8.7861030">
        <ele>2.9</ele>
        <time>2021-05-17T09:29:47Z</time>
      </trkpt>
      <trkpt lat="41.5391870" lon="-8.7861100">
        <ele>2.9</ele>
        <time>2021-05-17T09:29:48Z</time>
      </trkpt>
      <trkpt lat="41.5391950" lon="-8.7861170">
        <ele>2.9</ele>
        <time>2021-05-17T09:29:49Z</time>
      </trkpt>
      <trkpt lat="41.5392080" lon="-8.7861220">
        <ele>2.9</ele>
        <time>2021-05-17T09:29:50Z</time>
      </trkpt>
      <trkpt lat="41.5392270" lon="-8.7861270">
        <ele>2.9</ele>
        <time>2021-05-17T09:29:51Z</time>
      </trkpt>
      <trkpt lat="41.5392420" lon="-8.7861310">
        <ele>2.9</ele>
        <time>2021-05-17T09:29:52Z</time>
      </trkpt>
      <trkpt lat="41.5392540" lon="-8.7861420">
        <ele>2.9</ele>
        <time>2021-05-17T09:29:53Z</time>
      </trkpt>
      <trkpt lat="41.5392660" lon="-8.7861360">
        <ele>2.9</ele>
        <time>2021-05-17T09:29:54Z</time>
      </trkpt>
      <trkpt lat="41.5392820" lon="-8.7861450">
        <ele>2.9</ele>
        <time>2021-05-17T09:29:55Z</time>
      </trkpt>
      <trkpt lat="41.5392940" lon="-8.7861440">
        <ele>2.9</ele>
        <time>2021-05-17T09:29:56Z</time>
      </trkpt>
      <trkpt lat="41.5393030" lon="-8.7861430">
        <ele>2.9</ele>
        <time>2021-05-17T09:29:57Z</time>
      </trkpt>
      <trkpt lat="41.5393150" lon="-8.7861530">
        <ele>2.9</ele>
        <time>2021-05-17T09:29:58Z</time>
      </trkpt>
      <trkpt lat="41.5393330" lon="-8.7861570">
        <ele>2.9</ele>
        <time>2021-05-17T09:29:59Z</time>
      </trkpt>
      <trkpt lat="41.5393490" lon="-8.7861670">
        <ele>2.9</ele>
        <time>2021-05-17T09:30:00Z</time>
      </trkpt>
      <trkpt lat="41.5393670" lon="-8.7861800">
        <ele>2.9</ele>
        <time>2021-05-17T09:30:01Z</time>
      </trkpt>
      <trkpt lat="41.5393780" lon="-8.7861830">
        <ele>2.9</ele>
        <time>2021-05-17T09:30:02Z</time>
      </trkpt>
      <trkpt lat="41.5393880" lon="-8.7861860">
        <ele>2.9</ele>
        <time>2021-05-17T09:30:03Z</time>
      </trkpt>
      <trkpt lat="41.5394100" lon="-8.7862000">
        <ele>2.9</ele>
        <time>2021-05-17T09:30:04Z</time>
      </trkpt>
      <trkpt lat="41.5394180" lon="-8.7862070">
        <ele>2.9</ele>
        <time>2021-05-17T09:30:05Z</time>
      </trkpt>
      <trkpt lat="41.5394270" lon="-8.7862140">
        <ele>2.9</ele>
        <time>2021-05-17T09:30:06Z</time>
      </trkpt>
      <trkpt lat="41.5394420" lon="-8.7862180">
        <ele>2.9</ele>
        <time>2021-05-17T09:30:07Z</time>
      </trkpt>
      <trkpt lat="41.5394610" lon="-8.7862180">
        <ele>2.9</ele>
        <time>2021-05-17T09:30:08Z</time>
      </trkpt>
      <trkpt lat="41.5394760" lon="-8.7862260">
        <ele>2.9</ele>
        <time>2021-05-17T09:30:09Z</time>
      </trkpt>
      <trkpt lat="41.5394870" lon="-8.7862330">
        <ele>2.9</ele>
        <time>2021-05-17T09:30:10Z</time>
      </trkpt>
      <trkpt lat="41.5394960" lon="-8.7862410">
        <ele>2.9</ele>
        <time>2021-05-17T09:30:11Z</time>
      </trkpt>
      <trkpt lat="41.5395070" lon="-8.7862430">
        <ele>2.9</ele>
        <time>2021-05-17T09:30:12Z</time>
      </trkpt>
      <trkpt lat="41.5395120" lon="-8.7862480">
        <ele>2.9</ele>
        <time>2021-05-17T09:30:13Z</time>
      </trkpt>
      <trkpt lat="41.5395250" lon="-8.7862530">
        <ele>2.9</ele>
        <time>2021-05-17T09:30:14Z</time>
      </trkpt>
      <trkpt lat="41.5395400" lon="-8.7862610">
        <ele>2.9</ele>
        <time>2021-05-17T09:30:15Z</time>
      </trkpt>
      <trkpt lat="41.5395560" lon="-8.7862700">
        <ele>2.9</ele>
        <time>2021-05-17T09:30:16Z</time>
      </trkpt>
      <trkpt lat="41.5395670" lon="-8.7862780">
        <ele>2.9</ele>
        <time>2021-05-17T09:30:17Z</time>
      </trkpt>
      <trkpt lat="41.5395890" lon="-8.7862890">
        <ele>2.9</ele>
        <time>2021-05-17T09:30:18Z</time>
      </trkpt>
      <trkpt lat="41.5395980" lon="-8.7862920">
        <ele>2.9</ele>
        <time>2021-05-17T09:30:19Z</time>
      </trkpt>
      <trkpt lat="41.5396060" lon="-8.7862950">
        <ele>2.9</ele>
        <time>2021-05-17T09:30:20Z</time>
      </trkpt>
      <trkpt lat="41.5396160" lon="-8.7862960">
        <ele>2.9</ele>
        <time>2021-05-17T09:30:21Z</time>
      </trkpt>
      <trkpt lat="41.5396280" lon="-8.7863000">
        <ele>2.9</ele>
        <time>2021-05-17T09:30:22Z</time>
      </trkpt>
      <trkpt lat="41.5396380" lon="-8.7862960">
        <ele>2.9</ele>
        <time>2021-05-17T09:30:23Z</time>
      </trkpt>
      <trkpt lat="41.5396590" lon="-8.7863010">
        <ele>2.8</ele>
        <time>2021-05-17T09:30:24Z</time>
      </trkpt>
      <trkpt lat="41.5396660" lon="-8.7862980">
        <ele>2.8</ele>
        <time>2021-05-17T09:30:25Z</time>
      </trkpt>
      <trkpt lat="41.5396830" lon="-8.7863110">
        <ele>2.8</ele>
        <time>2021-05-17T09:30:26Z</time>
      </trkpt>
      <trkpt lat="41.5396980" lon="-8.7863170">
        <ele>2.8</ele>
        <time>2021-05-17T09:30:27Z</time>
      </trkpt>
      <trkpt lat="41.5397130" lon="-8.7863200">
        <ele>2.8</ele>
        <time>2021-05-17T09:30:28Z</time>
      </trkpt>
      <trkpt lat="41.5397270" lon="-8.7863270">
        <ele>2.9</ele>
        <time>2021-05-17T09:30:29Z</time>
      </trkpt>
      <trkpt lat="41.5397410" lon="-8.7863380">
        <ele>2.9</ele>
        <time>2021-05-17T09:30:30Z</time>
      </trkpt>
      <trkpt lat="41.5397530" lon="-8.7863450">
        <ele>2.9</ele>
        <time>2021-05-17T09:30:31Z</time>
      </trkpt>
      <trkpt lat="41.5397700" lon="-8.7863490">
        <ele>2.9</ele>
        <time>2021-05-17T09:30:32Z</time>
      </trkpt>
      <trkpt lat="41.5397830" lon="-8.7863570">
        <ele>2.9</ele>
        <time>2021-05-17T09:30:33Z</time>
      </trkpt>
      <trkpt lat="41.5398030" lon="-8.7863750">
        <ele>2.9</ele>
        <time>2021-05-17T09:30:34Z</time>
      </trkpt>
      <trkpt lat="41.5398110" lon="-8.7863800">
        <ele>2.9</ele>
        <time>2021-05-17T09:30:35Z</time>
      </trkpt>
      <trkpt lat="41.5398180" lon="-8.7863850">
        <ele>2.9</ele>
        <time>2021-05-17T09:30:36Z</time>
      </trkpt>
      <trkpt lat="41.5398310" lon="-8.7863950">
        <ele>2.9</ele>
        <time>2021-05-17T09:30:37Z</time>
      </trkpt>
      <trkpt lat="41.5398500" lon="-8.7864000">
        <ele>2.9</ele>
        <time>2021-05-17T09:30:38Z</time>
      </trkpt>
      <trkpt lat="41.5398650" lon="-8.7864080">
        <ele>2.9</ele>
        <time>2021-05-17T09:30:39Z</time>
      </trkpt>
      <trkpt lat="41.5398840" lon="-8.7864130">
        <ele>2.9</ele>
        <time>2021-05-17T09:30:40Z</time>
      </trkpt>
      <trkpt lat="41.5398980" lon="-8.7864140">
        <ele>2.9</ele>
        <time>2021-05-17T09:30:41Z</time>
      </trkpt>
      <trkpt lat="41.5399100" lon="-8.7864240">
        <ele>2.9</ele>
        <time>2021-05-17T09:30:42Z</time>
      </trkpt>
      <trkpt lat="41.5399310" lon="-8.7864380">
        <ele>2.9</ele>
        <time>2021-05-17T09:30:43Z</time>
      </trkpt>
      <trkpt lat="41.5399400" lon="-8.7864430">
        <ele>2.9</ele>
        <time>2021-05-17T09:30:44Z</time>
      </trkpt>
      <trkpt lat="41.5399490" lon="-8.7864490">
        <ele>2.9</ele>
        <time>2021-05-17T09:30:45Z</time>
      </trkpt>
      <trkpt lat="41.5399610" lon="-8.7864510">
        <ele>2.9</ele>
        <time>2021-05-17T09:30:46Z</time>
      </trkpt>
      <trkpt lat="41.5399780" lon="-8.7864580">
        <ele>2.9</ele>
        <time>2021-05-17T09:30:47Z</time>
      </trkpt>
      <trkpt lat="41.5399960" lon="-8.7864730">
        <ele>2.9</ele>
        <time>2021-05-17T09:30:48Z</time>
      </trkpt>
      <trkpt lat="41.5400030" lon="-8.7864780">
        <ele>2.9</ele>
        <time>2021-05-17T09:30:49Z</time>
      </trkpt>
      <trkpt lat="41.5400100" lon="-8.7864820">
        <ele>2.9</ele>
        <time>2021-05-17T09:30:50Z</time>
      </trkpt>
      <trkpt lat="41.5400140" lon="-8.7864840">
        <ele>2.9</ele>
        <time>2021-05-17T09:30:51Z</time>
      </trkpt>
      <trkpt lat="41.5400260" lon="-8.7864890">
        <ele>2.9</ele>
        <time>2021-05-17T09:30:52Z</time>
      </trkpt>
      <trkpt lat="41.5400410" lon="-8.7864880">
        <ele>3.0</ele>
        <time>2021-05-17T09:30:53Z</time>
      </trkpt>
      <trkpt lat="41.5400530" lon="-8.7864880">
        <ele>3.0</ele>
        <time>2021-05-17T09:30:54Z</time>
      </trkpt>
      <trkpt lat="41.5400630" lon="-8.7864900">
        <ele>3.0</ele>
        <time>2021-05-17T09:30:55Z</time>
      </trkpt>
      <trkpt lat="41.5400730" lon="-8.7864960">
        <ele>3.0</ele>
        <time>2021-05-17T09:30:56Z</time>
      </trkpt>
      <trkpt lat="41.5400890" lon="-8.7865070">
        <ele>3.0</ele>
        <time>2021-05-17T09:30:57Z</time>
      </trkpt>
      <trkpt lat="41.5401020" lon="-8.7865080">
        <ele>3.0</ele>
        <time>2021-05-17T09:30:58Z</time>
      </trkpt>
      <trkpt lat="41.5401120" lon="-8.7865170">
        <ele>3.0</ele>
        <time>2021-05-17T09:30:59Z</time>
      </trkpt>
      <trkpt lat="41.5401260" lon="-8.7865190">
        <ele>3.0</ele>
        <time>2021-05-17T09:31:00Z</time>
      </trkpt>
      <trkpt lat="41.5401360" lon="-8.7865190">
        <ele>3.2</ele>
        <time>2021-05-17T09:31:01Z</time>
      </trkpt>
      <trkpt lat="41.5401580" lon="-8.7865160">
        <ele>3.2</ele>
        <time>2021-05-17T09:31:02Z</time>
      </trkpt>
      <trkpt lat="41.5401650" lon="-8.7865120">
        <ele>3.2</ele>
        <time>2021-05-17T09:31:03Z</time>
      </trkpt>
      <trkpt lat="41.5401720" lon="-8.7865070">
        <ele>3.2</ele>
        <time>2021-05-17T09:31:04Z</time>
      </trkpt>
      <trkpt lat="41.5401820" lon="-8.7865040">
        <ele>3.3</ele>
        <time>2021-05-17T09:31:05Z</time>
      </trkpt>
      <trkpt lat="41.5401890" lon="-8.7865100">
        <ele>3.2</ele>
        <time>2021-05-17T09:31:06Z</time>
      </trkpt>
      <trkpt lat="41.5401980" lon="-8.7865080">
        <ele>3.2</ele>
        <time>2021-05-17T09:31:07Z</time>
      </trkpt>
      <trkpt lat="41.5402030" lon="-8.7865100">
        <ele>3.2</ele>
        <time>2021-05-17T09:31:08Z</time>
      </trkpt>
      <trkpt lat="41.5402050" lon="-8.7865110">
        <ele>3.2</ele>
        <time>2021-05-17T09:31:09Z</time>
      </trkpt>
      <trkpt lat="41.5402040" lon="-8.7865100">
        <ele>3.2</ele>
        <time>2021-05-17T09:31:10Z</time>
      </trkpt>
      <trkpt lat="41.5402070" lon="-8.7865120">
        <ele>3.2</ele>
        <time>2021-05-17T09:31:11Z</time>
      </trkpt>
      <trkpt lat="41.5402120" lon="-8.7865070">
        <ele>3.2</ele>
        <time>2021-05-17T09:31:12Z</time>
      </trkpt>
      <trkpt lat="41.5402260" lon="-8.7865060">
        <ele>3.2</ele>
        <time>2021-05-17T09:31:13Z</time>
      </trkpt>
      <trkpt lat="41.5402340" lon="-8.7865090">
        <ele>3.2</ele>
        <time>2021-05-17T09:31:14Z</time>
      </trkpt>
      <trkpt lat="41.5402420" lon="-8.7865100">
        <ele>3.2</ele>
        <time>2021-05-17T09:31:15Z</time>
      </trkpt>
      <trkpt lat="41.5402450" lon="-8.7865100">
        <ele>3.2</ele>
        <time>2021-05-17T09:31:16Z</time>
      </trkpt>
      <trkpt lat="41.5402420" lon="-8.7864990">
        <ele>3.2</ele>
        <time>2021-05-17T09:31:17Z</time>
      </trkpt>
      <trkpt lat="41.5402440" lon="-8.7864990">
        <ele>3.2</ele>
        <time>2021-05-17T09:31:18Z</time>
      </trkpt>
      <trkpt lat="41.5402550" lon="-8.7865050">
        <ele>3.2</ele>
        <time>2021-05-17T09:31:19Z</time>
      </trkpt>
      <trkpt lat="41.5402610" lon="-8.7865180">
        <ele>3.2</ele>
        <time>2021-05-17T09:31:20Z</time>
      </trkpt>
      <trkpt lat="41.5402680" lon="-8.7865310">
        <ele>3.2</ele>
        <time>2021-05-17T09:31:21Z</time>
      </trkpt>
      <trkpt lat="41.5402720" lon="-8.7865400">
        <ele>3.2</ele>
        <time>2021-05-17T09:31:22Z</time>
      </trkpt>
      <trkpt lat="41.5402780" lon="-8.7865550">
        <ele>3.2</ele>
        <time>2021-05-17T09:31:23Z</time>
      </trkpt>
      <trkpt lat="41.5402770" lon="-8.7865790">
        <ele>3.1</ele>
        <time>2021-05-17T09:31:24Z</time>
      </trkpt>
      <trkpt lat="41.5402810" lon="-8.7865910">
        <ele>3.1</ele>
        <time>2021-05-17T09:31:25Z</time>
      </trkpt>
      <trkpt lat="41.5402930" lon="-8.7866120">
        <ele>3.0</ele>
        <time>2021-05-17T09:31:26Z</time>
      </trkpt>
      <trkpt lat="41.5403030" lon="-8.7866170">
        <ele>3.0</ele>
        <time>2021-05-17T09:31:27Z</time>
      </trkpt>
      <trkpt lat="41.5403240" lon="-8.7866360">
        <ele>3.0</ele>
        <time>2021-05-17T09:31:28Z</time>
      </trkpt>
      <trkpt lat="41.5403320" lon="-8.7866440">
        <ele>3.0</ele>
        <time>2021-05-17T09:31:29Z</time>
      </trkpt>
      <trkpt lat="41.5403410" lon="-8.7866510">
        <ele>3.0</ele>
        <time>2021-05-17T09:31:30Z</time>
      </trkpt>
      <trkpt lat="41.5403520" lon="-8.7866580">
        <ele>3.0</ele>
        <time>2021-05-17T09:31:31Z</time>
      </trkpt>
      <trkpt lat="41.5403660" lon="-8.7866650">
        <ele>3.0</ele>
        <time>2021-05-17T09:31:32Z</time>
      </trkpt>
      <trkpt lat="41.5403780" lon="-8.7866730">
        <ele>3.0</ele>
        <time>2021-05-17T09:31:33Z</time>
      </trkpt>
      <trkpt lat="41.5403910" lon="-8.7866870">
        <ele>3.0</ele>
        <time>2021-05-17T09:31:34Z</time>
      </trkpt>
      <trkpt lat="41.5403950" lon="-8.7866990">
        <ele>3.0</ele>
        <time>2021-05-17T09:31:35Z</time>
      </trkpt>
      <trkpt lat="41.5404020" lon="-8.7867080">
        <ele>3.0</ele>
        <time>2021-05-17T09:31:36Z</time>
      </trkpt>
      <trkpt lat="41.5404180" lon="-8.7867130">
        <ele>3.0</ele>
        <time>2021-05-17T09:31:37Z</time>
      </trkpt>
      <trkpt lat="41.5404290" lon="-8.7867120">
        <ele>3.0</ele>
        <time>2021-05-17T09:31:38Z</time>
      </trkpt>
      <trkpt lat="41.5404380" lon="-8.7867200">
        <ele>3.0</ele>
        <time>2021-05-17T09:31:39Z</time>
      </trkpt>
      <trkpt lat="41.5404490" lon="-8.7867270">
        <ele>3.0</ele>
        <time>2021-05-17T09:31:40Z</time>
      </trkpt>
      <trkpt lat="41.5404560" lon="-8.7867390">
        <ele>3.0</ele>
        <time>2021-05-17T09:31:41Z</time>
      </trkpt>
      <trkpt lat="41.5404630" lon="-8.7867450">
        <ele>3.0</ele>
        <time>2021-05-17T09:31:42Z</time>
      </trkpt>
      <trkpt lat="41.5404780" lon="-8.7867540">
        <ele>3.0</ele>
        <time>2021-05-17T09:31:43Z</time>
      </trkpt>
      <trkpt lat="41.5404860" lon="-8.7867610">
        <ele>3.0</ele>
        <time>2021-05-17T09:31:44Z</time>
      </trkpt>
      <trkpt lat="41.5404990" lon="-8.7867690">
        <ele>3.0</ele>
        <time>2021-05-17T09:31:45Z</time>
      </trkpt>
      <trkpt lat="41.5405080" lon="-8.7867700">
        <ele>3.0</ele>
        <time>2021-05-17T09:31:46Z</time>
      </trkpt>
      <trkpt lat="41.5405220" lon="-8.7867730">
        <ele>3.0</ele>
        <time>2021-05-17T09:31:47Z</time>
      </trkpt>
      <trkpt lat="41.5405300" lon="-8.7867750">
        <ele>3.0</ele>
        <time>2021-05-17T09:31:48Z</time>
      </trkpt>
      <trkpt lat="41.5405370" lon="-8.7867850">
        <ele>3.0</ele>
        <time>2021-05-17T09:31:49Z</time>
      </trkpt>
      <trkpt lat="41.5405300" lon="-8.7867830">
        <ele>3.0</ele>
        <time>2021-05-17T09:31:50Z</time>
      </trkpt>
      <trkpt lat="41.5405310" lon="-8.7867850">
        <ele>3.0</ele>
        <time>2021-05-17T09:31:51Z</time>
      </trkpt>
      <trkpt lat="41.5405350" lon="-8.7867870">
        <ele>3.0</ele>
        <time>2021-05-17T09:31:52Z</time>
      </trkpt>
      <trkpt lat="41.5405390" lon="-8.7867870">
        <ele>3.0</ele>
        <time>2021-05-17T09:31:53Z</time>
      </trkpt>
      <trkpt lat="41.5405420" lon="-8.7867860">
        <ele>3.0</ele>
        <time>2021-05-17T09:31:54Z</time>
      </trkpt>
      <trkpt lat="41.5405410" lon="-8.7867940">
        <ele>3.0</ele>
        <time>2021-05-17T09:31:55Z</time>
      </trkpt>
      <trkpt lat="41.5405460" lon="-8.7867940">
        <ele>3.0</ele>
        <time>2021-05-17T09:31:56Z</time>
      </trkpt>
      <trkpt lat="41.5405460" lon="-8.7867930">
        <ele>3.0</ele>
        <time>2021-05-17T09:31:57Z</time>
      </trkpt>
      <trkpt lat="41.5405480" lon="-8.7867930">
        <ele>3.0</ele>
        <time>2021-05-17T09:31:58Z</time>
      </trkpt>
      <trkpt lat="41.5405480" lon="-8.7867920">
        <ele>3.0</ele>
        <time>2021-05-17T09:31:59Z</time>
      </trkpt>
      <trkpt lat="41.5405480" lon="-8.7867970">
        <ele>3.0</ele>
        <time>2021-05-17T09:32:00Z</time>
      </trkpt>
      <trkpt lat="41.5405470" lon="-8.7868050">
        <ele>3.0</ele>
        <time>2021-05-17T09:32:01Z</time>
      </trkpt>
      <trkpt lat="41.5405470" lon="-8.7868080">
        <ele>3.0</ele>
        <time>2021-05-17T09:32:02Z</time>
      </trkpt>
      <trkpt lat="41.5405500" lon="-8.7868190">
        <ele>3.0</ele>
        <time>2021-05-17T09:32:03Z</time>
      </trkpt>
      <trkpt lat="41.5405450" lon="-8.7868250">
        <ele>3.0</ele>
        <time>2021-05-17T09:32:04Z</time>
      </trkpt>
      <trkpt lat="41.5405450" lon="-8.7868270">
        <ele>3.0</ele>
        <time>2021-05-17T09:32:05Z</time>
      </trkpt>
      <trkpt lat="41.5405460" lon="-8.7868290">
        <ele>3.0</ele>
        <time>2021-05-17T09:32:06Z</time>
      </trkpt>
      <trkpt lat="41.5405470" lon="-8.7868340">
        <ele>3.0</ele>
        <time>2021-05-17T09:32:07Z</time>
      </trkpt>
      <trkpt lat="41.5405490" lon="-8.7868390">
        <ele>3.0</ele>
        <time>2021-05-17T09:32:08Z</time>
      </trkpt>
      <trkpt lat="41.5405480" lon="-8.7868440">
        <ele>3.0</ele>
        <time>2021-05-17T09:32:09Z</time>
      </trkpt>
      <trkpt lat="41.5405470" lon="-8.7868490">
        <ele>3.0</ele>
        <time>2021-05-17T09:32:10Z</time>
      </trkpt>
      <trkpt lat="41.5405450" lon="-8.7868570">
        <ele>3.0</ele>
        <time>2021-05-17T09:32:11Z</time>
      </trkpt>
      <trkpt lat="41.5405450" lon="-8.7868570">
        <ele>3.0</ele>
        <time>2021-05-17T09:32:12Z</time>
      </trkpt>
      <trkpt lat="41.5405430" lon="-8.7868630">
        <ele>3.0</ele>
        <time>2021-05-17T09:32:13Z</time>
      </trkpt>
      <trkpt lat="41.5405420" lon="-8.7868640">
        <ele>3.0</ele>
        <time>2021-05-17T09:32:14Z</time>
      </trkpt>
      <trkpt lat="41.5405400" lon="-8.7868660">
        <ele>3.0</ele>
        <time>2021-05-17T09:32:15Z</time>
      </trkpt>
      <trkpt lat="41.5405390" lon="-8.7868670">
        <ele>3.0</ele>
        <time>2021-05-17T09:32:16Z</time>
      </trkpt>
      <trkpt lat="41.5405370" lon="-8.7868660">
        <ele>3.0</ele>
        <time>2021-05-17T09:32:17Z</time>
      </trkpt>
      <trkpt lat="41.5405360" lon="-8.7868670">
        <ele>3.0</ele>
        <time>2021-05-17T09:32:18Z</time>
      </trkpt>
      <trkpt lat="41.5405350" lon="-8.7868720">
        <ele>3.0</ele>
        <time>2021-05-17T09:32:19Z</time>
      </trkpt>
      <trkpt lat="41.5405350" lon="-8.7868720">
        <ele>3.0</ele>
        <time>2021-05-17T09:32:20Z</time>
      </trkpt>
      <trkpt lat="41.5405350" lon="-8.7868670">
        <ele>3.0</ele>
        <time>2021-05-17T09:32:21Z</time>
      </trkpt>
      <trkpt lat="41.5405350" lon="-8.7868680">
        <ele>3.0</ele>
        <time>2021-05-17T09:32:22Z</time>
      </trkpt>
      <trkpt lat="41.5405350" lon="-8.7868690">
        <ele>3.0</ele>
        <time>2021-05-17T09:32:23Z</time>
      </trkpt>
      <trkpt lat="41.5405360" lon="-8.7868670">
        <ele>3.0</ele>
        <time>2021-05-17T09:32:24Z</time>
      </trkpt>
      <trkpt lat="41.5405350" lon="-8.7868680">
        <ele>3.0</ele>
        <time>2021-05-17T09:32:25Z</time>
      </trkpt>
      <trkpt lat="41.5405360" lon="-8.7868630">
        <ele>3.0</ele>
        <time>2021-05-17T09:32:26Z</time>
      </trkpt>
      <trkpt lat="41.5405380" lon="-8.7868600">
        <ele>3.0</ele>
        <time>2021-05-17T09:32:27Z</time>
      </trkpt>
      <trkpt lat="41.5405360" lon="-8.7868660">
        <ele>3.0</ele>
        <time>2021-05-17T09:32:28Z</time>
      </trkpt>
      <trkpt lat="41.5405340" lon="-8.7868680">
        <ele>3.1</ele>
        <time>2021-05-17T09:32:29Z</time>
      </trkpt>
      <trkpt lat="41.5405330" lon="-8.7868680">
        <ele>3.1</ele>
        <time>2021-05-17T09:32:30Z</time>
      </trkpt>
      <trkpt lat="41.5405330" lon="-8.7868680">
        <ele>3.1</ele>
        <time>2021-05-17T09:32:31Z</time>
      </trkpt>
      <trkpt lat="41.5405330" lon="-8.7868660">
        <ele>3.1</ele>
        <time>2021-05-17T09:32:32Z</time>
      </trkpt>
      <trkpt lat="41.5405330" lon="-8.7868680">
        <ele>3.1</ele>
        <time>2021-05-17T09:32:33Z</time>
      </trkpt>
      <trkpt lat="41.5405320" lon="-8.7868710">
        <ele>3.1</ele>
        <time>2021-05-17T09:32:34Z</time>
      </trkpt>
      <trkpt lat="41.5405310" lon="-8.7868740">
        <ele>3.1</ele>
        <time>2021-05-17T09:32:35Z</time>
      </trkpt>
      <trkpt lat="41.5405300" lon="-8.7868730">
        <ele>3.1</ele>
        <time>2021-05-17T09:32:36Z</time>
      </trkpt>
      <trkpt lat="41.5405300" lon="-8.7868730">
        <ele>3.1</ele>
        <time>2021-05-17T09:32:37Z</time>
      </trkpt>
      <trkpt lat="41.5405250" lon="-8.7868790">
        <ele>3.1</ele>
        <time>2021-05-17T09:32:38Z</time>
      </trkpt>
      <trkpt lat="41.5405250" lon="-8.7868800">
        <ele>3.1</ele>
        <time>2021-05-17T09:32:39Z</time>
      </trkpt>
      <trkpt lat="41.5405220" lon="-8.7868880">
        <ele>3.1</ele>
        <time>2021-05-17T09:32:40Z</time>
      </trkpt>
      <trkpt lat="41.5405210" lon="-8.7868900">
        <ele>3.1</ele>
        <time>2021-05-17T09:32:41Z</time>
      </trkpt>
      <trkpt lat="41.5405210" lon="-8.7868940">
        <ele>3.1</ele>
        <time>2021-05-17T09:32:42Z</time>
      </trkpt>
      <trkpt lat="41.5405210" lon="-8.7868950">
        <ele>3.1</ele>
        <time>2021-05-17T09:32:43Z</time>
      </trkpt>
      <trkpt lat="41.5405220" lon="-8.7868970">
        <ele>3.1</ele>
        <time>2021-05-17T09:32:44Z</time>
      </trkpt>
      <trkpt lat="41.5405220" lon="-8.7868990">
        <ele>3.1</ele>
        <time>2021-05-17T09:32:45Z</time>
      </trkpt>
      <trkpt lat="41.5405210" lon="-8.7869050">
        <ele>3.1</ele>
        <time>2021-05-17T09:32:46Z</time>
      </trkpt>
      <trkpt lat="41.5405200" lon="-8.7869080">
        <ele>3.1</ele>
        <time>2021-05-17T09:32:47Z</time>
      </trkpt>
      <trkpt lat="41.5405160" lon="-8.7869090">
        <ele>3.1</ele>
        <time>2021-05-17T09:32:48Z</time>
      </trkpt>
      <trkpt lat="41.5405150" lon="-8.7869130">
        <ele>3.1</ele>
        <time>2021-05-17T09:32:49Z</time>
      </trkpt>
      <trkpt lat="41.5405130" lon="-8.7869160">
        <ele>3.1</ele>
        <time>2021-05-17T09:32:50Z</time>
      </trkpt>
      <trkpt lat="41.5405130" lon="-8.7869200">
        <ele>3.1</ele>
        <time>2021-05-17T09:32:51Z</time>
      </trkpt>
      <trkpt lat="41.5405170" lon="-8.7869160">
        <ele>3.1</ele>
        <time>2021-05-17T09:32:52Z</time>
      </trkpt>
      <trkpt lat="41.5405170" lon="-8.7869090">
        <ele>3.1</ele>
        <time>2021-05-17T09:32:53Z</time>
      </trkpt>
      <trkpt lat="41.5405160" lon="-8.7869080">
        <ele>3.1</ele>
        <time>2021-05-17T09:32:54Z</time>
      </trkpt>
      <trkpt lat="41.5405200" lon="-8.7869140">
        <ele>3.1</ele>
        <time>2021-05-17T09:32:55Z</time>
      </trkpt>
      <trkpt lat="41.5405320" lon="-8.7869130">
        <ele>3.1</ele>
        <time>2021-05-17T09:32:56Z</time>
      </trkpt>
      <trkpt lat="41.5405490" lon="-8.7869090">
        <ele>3.1</ele>
        <time>2021-05-17T09:32:57Z</time>
      </trkpt>
      <trkpt lat="41.5405680" lon="-8.7869150">
        <ele>3.1</ele>
        <time>2021-05-17T09:32:58Z</time>
      </trkpt>
      <trkpt lat="41.5405780" lon="-8.7869160">
        <ele>3.1</ele>
        <time>2021-05-17T09:32:59Z</time>
      </trkpt>
      <trkpt lat="41.5405870" lon="-8.7869160">
        <ele>3.1</ele>
        <time>2021-05-17T09:33:00Z</time>
      </trkpt>
      <trkpt lat="41.5405930" lon="-8.7869190">
        <ele>3.1</ele>
        <time>2021-05-17T09:33:01Z</time>
      </trkpt>
      <trkpt lat="41.5406060" lon="-8.7869290">
        <ele>3.1</ele>
        <time>2021-05-17T09:33:02Z</time>
      </trkpt>
      <trkpt lat="41.5406110" lon="-8.7869310">
        <ele>3.1</ele>
        <time>2021-05-17T09:33:03Z</time>
      </trkpt>
      <trkpt lat="41.5406210" lon="-8.7869450">
        <ele>3.1</ele>
        <time>2021-05-17T09:33:04Z</time>
      </trkpt>
      <trkpt lat="41.5406350" lon="-8.7869490">
        <ele>3.1</ele>
        <time>2021-05-17T09:33:05Z</time>
      </trkpt>
      <trkpt lat="41.5406390" lon="-8.7869510">
        <ele>3.1</ele>
        <time>2021-05-17T09:33:06Z</time>
      </trkpt>
      <trkpt lat="41.5406520" lon="-8.7869610">
        <ele>3.1</ele>
        <time>2021-05-17T09:33:07Z</time>
      </trkpt>
      <trkpt lat="41.5406630" lon="-8.7869700">
        <ele>3.1</ele>
        <time>2021-05-17T09:33:08Z</time>
      </trkpt>
      <trkpt lat="41.5406770" lon="-8.7869760">
        <ele>3.1</ele>
        <time>2021-05-17T09:33:09Z</time>
      </trkpt>
      <trkpt lat="41.5406850" lon="-8.7869800">
        <ele>3.1</ele>
        <time>2021-05-17T09:33:10Z</time>
      </trkpt>
      <trkpt lat="41.5406900" lon="-8.7869880">
        <ele>3.1</ele>
        <time>2021-05-17T09:33:11Z</time>
      </trkpt>
      <trkpt lat="41.5406970" lon="-8.7870000">
        <ele>3.1</ele>
        <time>2021-05-17T09:33:12Z</time>
      </trkpt>
      <trkpt lat="41.5407130" lon="-8.7870110">
        <ele>3.1</ele>
        <time>2021-05-17T09:33:13Z</time>
      </trkpt>
      <trkpt lat="41.5407200" lon="-8.7870120">
        <ele>3.1</ele>
        <time>2021-05-17T09:33:14Z</time>
      </trkpt>
      <trkpt lat="41.5407210" lon="-8.7870270">
        <ele>3.1</ele>
        <time>2021-05-17T09:33:15Z</time>
      </trkpt>
      <trkpt lat="41.5407270" lon="-8.7870430">
        <ele>3.1</ele>
        <time>2021-05-17T09:33:16Z</time>
      </trkpt>
      <trkpt lat="41.5407280" lon="-8.7870650">
        <ele>3.1</ele>
        <time>2021-05-17T09:33:17Z</time>
      </trkpt>
      <trkpt lat="41.5407330" lon="-8.7870810">
        <ele>3.1</ele>
        <time>2021-05-17T09:33:18Z</time>
      </trkpt>
      <trkpt lat="41.5407350" lon="-8.7870990">
        <ele>3.1</ele>
        <time>2021-05-17T09:33:19Z</time>
      </trkpt>
      <trkpt lat="41.5407370" lon="-8.7871120">
        <ele>3.1</ele>
        <time>2021-05-17T09:33:20Z</time>
      </trkpt>
      <trkpt lat="41.5407410" lon="-8.7871260">
        <ele>3.1</ele>
        <time>2021-05-17T09:33:21Z</time>
      </trkpt>
      <trkpt lat="41.5407560" lon="-8.7871490">
        <ele>3.1</ele>
        <time>2021-05-17T09:33:22Z</time>
      </trkpt>
      <trkpt lat="41.5407630" lon="-8.7871560">
        <ele>3.1</ele>
        <time>2021-05-17T09:33:23Z</time>
      </trkpt>
      <trkpt lat="41.5407700" lon="-8.7871640">
        <ele>3.1</ele>
        <time>2021-05-17T09:33:24Z</time>
      </trkpt>
      <trkpt lat="41.5407830" lon="-8.7871890">
        <ele>3.1</ele>
        <time>2021-05-17T09:33:25Z</time>
      </trkpt>
      <trkpt lat="41.5407860" lon="-8.7871980">
        <ele>3.1</ele>
        <time>2021-05-17T09:33:26Z</time>
      </trkpt>
      <trkpt lat="41.5407900" lon="-8.7872080">
        <ele>3.1</ele>
        <time>2021-05-17T09:33:27Z</time>
      </trkpt>
      <trkpt lat="41.5407960" lon="-8.7872260">
        <ele>3.1</ele>
        <time>2021-05-17T09:33:28Z</time>
      </trkpt>
      <trkpt lat="41.5408040" lon="-8.7872410">
        <ele>3.1</ele>
        <time>2021-05-17T09:33:29Z</time>
      </trkpt>
      <trkpt lat="41.5408090" lon="-8.7872520">
        <ele>3.1</ele>
        <time>2021-05-17T09:33:30Z</time>
      </trkpt>
      <trkpt lat="41.5408220" lon="-8.7872700">
        <ele>3.1</ele>
        <time>2021-05-17T09:33:31Z</time>
      </trkpt>
      <trkpt lat="41.5408330" lon="-8.7872770">
        <ele>3.1</ele>
        <time>2021-05-17T09:33:32Z</time>
      </trkpt>
      <trkpt lat="41.5408470" lon="-8.7872830">
        <ele>3.1</ele>
        <time>2021-05-17T09:33:33Z</time>
      </trkpt>
      <trkpt lat="41.5408630" lon="-8.7872880">
        <ele>3.1</ele>
        <time>2021-05-17T09:33:34Z</time>
      </trkpt>
      <trkpt lat="41.5408740" lon="-8.7873050">
        <ele>3.1</ele>
        <time>2021-05-17T09:33:35Z</time>
      </trkpt>
      <trkpt lat="41.5408840" lon="-8.7873090">
        <ele>3.1</ele>
        <time>2021-05-17T09:33:36Z</time>
      </trkpt>
      <trkpt lat="41.5408950" lon="-8.7873190">
        <ele>3.1</ele>
        <time>2021-05-17T09:33:37Z</time>
      </trkpt>
      <trkpt lat="41.5409030" lon="-8.7873310">
        <ele>3.1</ele>
        <time>2021-05-17T09:33:38Z</time>
      </trkpt>
      <trkpt lat="41.5409120" lon="-8.7873410">
        <ele>3.1</ele>
        <time>2021-05-17T09:33:39Z</time>
      </trkpt>
      <trkpt lat="41.5409270" lon="-8.7873610">
        <ele>3.1</ele>
        <time>2021-05-17T09:33:40Z</time>
      </trkpt>
      <trkpt lat="41.5409390" lon="-8.7873760">
        <ele>3.1</ele>
        <time>2021-05-17T09:33:41Z</time>
      </trkpt>
      <trkpt lat="41.5409520" lon="-8.7873870">
        <ele>3.1</ele>
        <time>2021-05-17T09:33:42Z</time>
      </trkpt>
      <trkpt lat="41.5409650" lon="-8.7873960">
        <ele>3.1</ele>
        <time>2021-05-17T09:33:43Z</time>
      </trkpt>
      <trkpt lat="41.5409780" lon="-8.7874060">
        <ele>3.1</ele>
        <time>2021-05-17T09:33:44Z</time>
      </trkpt>
      <trkpt lat="41.5409900" lon="-8.7874200">
        <ele>3.1</ele>
        <time>2021-05-17T09:33:45Z</time>
      </trkpt>
      <trkpt lat="41.5410040" lon="-8.7874300">
        <ele>3.1</ele>
        <time>2021-05-17T09:33:46Z</time>
      </trkpt>
      <trkpt lat="41.5410160" lon="-8.7874390">
        <ele>3.1</ele>
        <time>2021-05-17T09:33:47Z</time>
      </trkpt>
      <trkpt lat="41.5410290" lon="-8.7874420">
        <ele>3.1</ele>
        <time>2021-05-17T09:33:48Z</time>
      </trkpt>
      <trkpt lat="41.5410400" lon="-8.7874580">
        <ele>3.1</ele>
        <time>2021-05-17T09:33:49Z</time>
      </trkpt>
      <trkpt lat="41.5410510" lon="-8.7874660">
        <ele>3.1</ele>
        <time>2021-05-17T09:33:50Z</time>
      </trkpt>
      <trkpt lat="41.5410760" lon="-8.7874820">
        <ele>3.1</ele>
        <time>2021-05-17T09:33:51Z</time>
      </trkpt>
      <trkpt lat="41.5410870" lon="-8.7874910">
        <ele>3.1</ele>
        <time>2021-05-17T09:33:52Z</time>
      </trkpt>
      <trkpt lat="41.5411010" lon="-8.7874970">
        <ele>3.1</ele>
        <time>2021-05-17T09:33:53Z</time>
      </trkpt>
      <trkpt lat="41.5411130" lon="-8.7875060">
        <ele>3.1</ele>
        <time>2021-05-17T09:33:54Z</time>
      </trkpt>
      <trkpt lat="41.5411250" lon="-8.7875150">
        <ele>3.1</ele>
        <time>2021-05-17T09:33:55Z</time>
      </trkpt>
      <trkpt lat="41.5411390" lon="-8.7875200">
        <ele>3.1</ele>
        <time>2021-05-17T09:33:56Z</time>
      </trkpt>
      <trkpt lat="41.5411500" lon="-8.7875320">
        <ele>3.1</ele>
        <time>2021-05-17T09:33:57Z</time>
      </trkpt>
      <trkpt lat="41.5411630" lon="-8.7875420">
        <ele>3.1</ele>
        <time>2021-05-17T09:33:58Z</time>
      </trkpt>
      <trkpt lat="41.5411740" lon="-8.7875510">
        <ele>3.1</ele>
        <time>2021-05-17T09:33:59Z</time>
      </trkpt>
      <trkpt lat="41.5411850" lon="-8.7875650">
        <ele>3.1</ele>
        <time>2021-05-17T09:34:00Z</time>
      </trkpt>
      <trkpt lat="41.5412000" lon="-8.7875710">
        <ele>3.1</ele>
        <time>2021-05-17T09:34:01Z</time>
      </trkpt>
      <trkpt lat="41.5412150" lon="-8.7875720">
        <ele>3.1</ele>
        <time>2021-05-17T09:34:02Z</time>
      </trkpt>
      <trkpt lat="41.5412310" lon="-8.7875730">
        <ele>3.1</ele>
        <time>2021-05-17T09:34:03Z</time>
      </trkpt>
      <trkpt lat="41.5412420" lon="-8.7875890">
        <ele>3.1</ele>
        <time>2021-05-17T09:34:04Z</time>
      </trkpt>
      <trkpt lat="41.5412530" lon="-8.7875980">
        <ele>3.1</ele>
        <time>2021-05-17T09:34:05Z</time>
      </trkpt>
      <trkpt lat="41.5412640" lon="-8.7876090">
        <ele>3.1</ele>
        <time>2021-05-17T09:34:06Z</time>
      </trkpt>
      <trkpt lat="41.5412780" lon="-8.7876140">
        <ele>3.1</ele>
        <time>2021-05-17T09:34:07Z</time>
      </trkpt>
      <trkpt lat="41.5412900" lon="-8.7876210">
        <ele>3.1</ele>
        <time>2021-05-17T09:34:08Z</time>
      </trkpt>
      <trkpt lat="41.5413080" lon="-8.7876440">
        <ele>3.1</ele>
        <time>2021-05-17T09:34:09Z</time>
      </trkpt>
      <trkpt lat="41.5413170" lon="-8.7876510">
        <ele>3.1</ele>
        <time>2021-05-17T09:34:10Z</time>
      </trkpt>
      <trkpt lat="41.5413270" lon="-8.7876590">
        <ele>3.1</ele>
        <time>2021-05-17T09:34:12Z</time>
      </trkpt>
      <trkpt lat="41.5413370" lon="-8.7876670">
        <ele>3.1</ele>
        <time>2021-05-17T09:34:13Z</time>
      </trkpt>
      <trkpt lat="41.5413460" lon="-8.7876740">
        <ele>3.1</ele>
        <time>2021-05-17T09:34:14Z</time>
      </trkpt>
      <trkpt lat="41.5413560" lon="-8.7876820">
        <ele>3.1</ele>
        <time>2021-05-17T09:34:15Z</time>
      </trkpt>
      <trkpt lat="41.5413690" lon="-8.7876890">
        <ele>3.1</ele>
        <time>2021-05-17T09:34:16Z</time>
      </trkpt>
      <trkpt lat="41.5413790" lon="-8.7877050">
        <ele>3.1</ele>
        <time>2021-05-17T09:34:17Z</time>
      </trkpt>
      <trkpt lat="41.5413920" lon="-8.7877130">
        <ele>3.1</ele>
        <time>2021-05-17T09:34:18Z</time>
      </trkpt>
      <trkpt lat="41.5414030" lon="-8.7877250">
        <ele>3.1</ele>
        <time>2021-05-17T09:34:19Z</time>
      </trkpt>
      <trkpt lat="41.5414150" lon="-8.7877340">
        <ele>3.1</ele>
        <time>2021-05-17T09:34:20Z</time>
      </trkpt>
      <trkpt lat="41.5414250" lon="-8.7877470">
        <ele>3.1</ele>
        <time>2021-05-17T09:34:21Z</time>
      </trkpt>
      <trkpt lat="41.5414460" lon="-8.7877600">
        <ele>3.2</ele>
        <time>2021-05-17T09:34:22Z</time>
      </trkpt>
      <trkpt lat="41.5414520" lon="-8.7877680">
        <ele>3.2</ele>
        <time>2021-05-17T09:34:23Z</time>
      </trkpt>
      <trkpt lat="41.5414590" lon="-8.7877760">
        <ele>3.2</ele>
        <time>2021-05-17T09:34:24Z</time>
      </trkpt>
      <trkpt lat="41.5414690" lon="-8.7877890">
        <ele>3.2</ele>
        <time>2021-05-17T09:34:25Z</time>
      </trkpt>
      <trkpt lat="41.5414810" lon="-8.7877990">
        <ele>3.2</ele>
        <time>2021-05-17T09:34:26Z</time>
      </trkpt>
      <trkpt lat="41.5415000" lon="-8.7878140">
        <ele>3.2</ele>
        <time>2021-05-17T09:34:27Z</time>
      </trkpt>
      <trkpt lat="41.5415090" lon="-8.7878190">
        <ele>3.2</ele>
        <time>2021-05-17T09:34:28Z</time>
      </trkpt>
      <trkpt lat="41.5415170" lon="-8.7878230">
        <ele>3.2</ele>
        <time>2021-05-17T09:34:29Z</time>
      </trkpt>
      <trkpt lat="41.5415290" lon="-8.7878380">
        <ele>3.2</ele>
        <time>2021-05-17T09:34:30Z</time>
      </trkpt>
      <trkpt lat="41.5415400" lon="-8.7878490">
        <ele>3.2</ele>
        <time>2021-05-17T09:34:31Z</time>
      </trkpt>
      <trkpt lat="41.5415510" lon="-8.7878580">
        <ele>3.2</ele>
        <time>2021-05-17T09:34:32Z</time>
      </trkpt>
      <trkpt lat="41.5415630" lon="-8.7878680">
        <ele>3.4</ele>
        <time>2021-05-17T09:34:33Z</time>
      </trkpt>
      <trkpt lat="41.5415780" lon="-8.7878790">
        <ele>3.4</ele>
        <time>2021-05-17T09:34:34Z</time>
      </trkpt>
      <trkpt lat="41.5415880" lon="-8.7878880">
        <ele>3.4</ele>
        <time>2021-05-17T09:34:35Z</time>
      </trkpt>
      <trkpt lat="41.5416020" lon="-8.7879020">
        <ele>3.4</ele>
        <time>2021-05-17T09:34:36Z</time>
      </trkpt>
      <trkpt lat="41.5416140" lon="-8.7879100">
        <ele>3.4</ele>
        <time>2021-05-17T09:34:37Z</time>
      </trkpt>
      <trkpt lat="41.5416270" lon="-8.7879220">
        <ele>3.4</ele>
        <time>2021-05-17T09:34:38Z</time>
      </trkpt>
      <trkpt lat="41.5416380" lon="-8.7879310">
        <ele>3.4</ele>
        <time>2021-05-17T09:34:39Z</time>
      </trkpt>
      <trkpt lat="41.5416500" lon="-8.7879410">
        <ele>3.4</ele>
        <time>2021-05-17T09:34:40Z</time>
      </trkpt>
      <trkpt lat="41.5416650" lon="-8.7879470">
        <ele>3.4</ele>
        <time>2021-05-17T09:34:41Z</time>
      </trkpt>
      <trkpt lat="41.5416850" lon="-8.7879640">
        <ele>3.4</ele>
        <time>2021-05-17T09:34:42Z</time>
      </trkpt>
      <trkpt lat="41.5416930" lon="-8.7879700">
        <ele>3.5</ele>
        <time>2021-05-17T09:34:43Z</time>
      </trkpt>
      <trkpt lat="41.5417010" lon="-8.7879750">
        <ele>3.5</ele>
        <time>2021-05-17T09:34:44Z</time>
      </trkpt>
      <trkpt lat="41.5417150" lon="-8.7879830">
        <ele>3.5</ele>
        <time>2021-05-17T09:34:45Z</time>
      </trkpt>
      <trkpt lat="41.5417270" lon="-8.7879910">
        <ele>3.5</ele>
        <time>2021-05-17T09:34:46Z</time>
      </trkpt>
      <trkpt lat="41.5417400" lon="-8.7880160">
        <ele>3.5</ele>
        <time>2021-05-17T09:34:47Z</time>
      </trkpt>
      <trkpt lat="41.5417470" lon="-8.7880220">
        <ele>3.5</ele>
        <time>2021-05-17T09:34:48Z</time>
      </trkpt>
      <trkpt lat="41.5417530" lon="-8.7880290">
        <ele>3.5</ele>
        <time>2021-05-17T09:34:49Z</time>
      </trkpt>
      <trkpt lat="41.5417730" lon="-8.7880330">
        <ele>3.5</ele>
        <time>2021-05-17T09:34:50Z</time>
      </trkpt>
      <trkpt lat="41.5417820" lon="-8.7880380">
        <ele>3.5</ele>
        <time>2021-05-17T09:34:51Z</time>
      </trkpt>
      <trkpt lat="41.5417910" lon="-8.7880420">
        <ele>3.5</ele>
        <time>2021-05-17T09:34:52Z</time>
      </trkpt>
      <trkpt lat="41.5418040" lon="-8.7880600">
        <ele>3.5</ele>
        <time>2021-05-17T09:34:53Z</time>
      </trkpt>
      <trkpt lat="41.5418150" lon="-8.7880730">
        <ele>3.5</ele>
        <time>2021-05-17T09:34:54Z</time>
      </trkpt>
      <trkpt lat="41.5418260" lon="-8.7880860">
        <ele>3.5</ele>
        <time>2021-05-17T09:34:55Z</time>
      </trkpt>
      <trkpt lat="41.5418390" lon="-8.7880940">
        <ele>3.5</ele>
        <time>2021-05-17T09:34:56Z</time>
      </trkpt>
      <trkpt lat="41.5418530" lon="-8.7881010">
        <ele>3.5</ele>
        <time>2021-05-17T09:34:57Z</time>
      </trkpt>
      <trkpt lat="41.5418640" lon="-8.7881100">
        <ele>3.5</ele>
        <time>2021-05-17T09:34:58Z</time>
      </trkpt>
      <trkpt lat="41.5418760" lon="-8.7881220">
        <ele>3.5</ele>
        <time>2021-05-17T09:34:59Z</time>
      </trkpt>
      <trkpt lat="41.5418890" lon="-8.7881340">
        <ele>3.5</ele>
        <time>2021-05-17T09:35:00Z</time>
      </trkpt>
      <trkpt lat="41.5419000" lon="-8.7881490">
        <ele>3.5</ele>
        <time>2021-05-17T09:35:01Z</time>
      </trkpt>
      <trkpt lat="41.5419130" lon="-8.7881560">
        <ele>3.5</ele>
        <time>2021-05-17T09:35:02Z</time>
      </trkpt>
      <trkpt lat="41.5419250" lon="-8.7881670">
        <ele>3.5</ele>
        <time>2021-05-17T09:35:03Z</time>
      </trkpt>
      <trkpt lat="41.5419360" lon="-8.7881780">
        <ele>3.5</ele>
        <time>2021-05-17T09:35:04Z</time>
      </trkpt>
      <trkpt lat="41.5419540" lon="-8.7881950">
        <ele>3.5</ele>
        <time>2021-05-17T09:35:05Z</time>
      </trkpt>
      <trkpt lat="41.5419610" lon="-8.7882010">
        <ele>3.5</ele>
        <time>2021-05-17T09:35:06Z</time>
      </trkpt>
      <trkpt lat="41.5419690" lon="-8.7882060">
        <ele>3.5</ele>
        <time>2021-05-17T09:35:07Z</time>
      </trkpt>
      <trkpt lat="41.5419830" lon="-8.7882130">
        <ele>3.5</ele>
        <time>2021-05-17T09:35:08Z</time>
      </trkpt>
      <trkpt lat="41.5419950" lon="-8.7882220">
        <ele>3.5</ele>
        <time>2021-05-17T09:35:09Z</time>
      </trkpt>
      <trkpt lat="41.5420080" lon="-8.7882320">
        <ele>3.5</ele>
        <time>2021-05-17T09:35:10Z</time>
      </trkpt>
      <trkpt lat="41.5420170" lon="-8.7882440">
        <ele>3.5</ele>
        <time>2021-05-17T09:35:11Z</time>
      </trkpt>
      <trkpt lat="41.5420360" lon="-8.7882600">
        <ele>3.5</ele>
        <time>2021-05-17T09:35:12Z</time>
      </trkpt>
      <trkpt lat="41.5420430" lon="-8.7882670">
        <ele>3.5</ele>
        <time>2021-05-17T09:35:13Z</time>
      </trkpt>
      <trkpt lat="41.5420510" lon="-8.7882730">
        <ele>3.5</ele>
        <time>2021-05-17T09:35:14Z</time>
      </trkpt>
      <trkpt lat="41.5420650" lon="-8.7882820">
        <ele>3.5</ele>
        <time>2021-05-17T09:35:15Z</time>
      </trkpt>
      <trkpt lat="41.5420760" lon="-8.7882920">
        <ele>3.5</ele>
        <time>2021-05-17T09:35:16Z</time>
      </trkpt>
      <trkpt lat="41.5420890" lon="-8.7882970">
        <ele>3.5</ele>
        <time>2021-05-17T09:35:17Z</time>
      </trkpt>
      <trkpt lat="41.5421020" lon="-8.7883100">
        <ele>3.5</ele>
        <time>2021-05-17T09:35:18Z</time>
      </trkpt>
      <trkpt lat="41.5421180" lon="-8.7883310">
        <ele>3.5</ele>
        <time>2021-05-17T09:35:19Z</time>
      </trkpt>
      <trkpt lat="41.5421250" lon="-8.7883380">
        <ele>3.5</ele>
        <time>2021-05-17T09:35:20Z</time>
      </trkpt>
      <trkpt lat="41.5421320" lon="-8.7883460">
        <ele>3.5</ele>
        <time>2021-05-17T09:35:21Z</time>
      </trkpt>
      <trkpt lat="41.5421430" lon="-8.7883560">
        <ele>3.5</ele>
        <time>2021-05-17T09:35:22Z</time>
      </trkpt>
      <trkpt lat="41.5421560" lon="-8.7883650">
        <ele>3.5</ele>
        <time>2021-05-17T09:35:23Z</time>
      </trkpt>
      <trkpt lat="41.5421680" lon="-8.7883770">
        <ele>3.5</ele>
        <time>2021-05-17T09:35:24Z</time>
      </trkpt>
      <trkpt lat="41.5421810" lon="-8.7883820">
        <ele>3.6</ele>
        <time>2021-05-17T09:35:25Z</time>
      </trkpt>
      <trkpt lat="41.5421930" lon="-8.7883910">
        <ele>3.6</ele>
        <time>2021-05-17T09:35:26Z</time>
      </trkpt>
      <trkpt lat="41.5422060" lon="-8.7883980">
        <ele>3.6</ele>
        <time>2021-05-17T09:35:27Z</time>
      </trkpt>
      <trkpt lat="41.5422150" lon="-8.7884110">
        <ele>3.6</ele>
        <time>2021-05-17T09:35:28Z</time>
      </trkpt>
      <trkpt lat="41.5422310" lon="-8.7884170">
        <ele>3.6</ele>
        <time>2021-05-17T09:35:29Z</time>
      </trkpt>
      <trkpt lat="41.5422400" lon="-8.7884330">
        <ele>3.6</ele>
        <time>2021-05-17T09:35:30Z</time>
      </trkpt>
      <trkpt lat="41.5422550" lon="-8.7884440">
        <ele>3.6</ele>
        <time>2021-05-17T09:35:31Z</time>
      </trkpt>
      <trkpt lat="41.5422650" lon="-8.7884560">
        <ele>3.6</ele>
        <time>2021-05-17T09:35:32Z</time>
      </trkpt>
      <trkpt lat="41.5422760" lon="-8.7884660">
        <ele>3.6</ele>
        <time>2021-05-17T09:35:33Z</time>
      </trkpt>
      <trkpt lat="41.5422880" lon="-8.7884750">
        <ele>3.6</ele>
        <time>2021-05-17T09:35:34Z</time>
      </trkpt>
      <trkpt lat="41.5423020" lon="-8.7884850">
        <ele>3.6</ele>
        <time>2021-05-17T09:35:35Z</time>
      </trkpt>
      <trkpt lat="41.5423170" lon="-8.7884990">
        <ele>3.6</ele>
        <time>2021-05-17T09:35:36Z</time>
      </trkpt>
      <trkpt lat="41.5423250" lon="-8.7885080">
        <ele>3.6</ele>
        <time>2021-05-17T09:35:37Z</time>
      </trkpt>
      <trkpt lat="41.5423320" lon="-8.7885160">
        <ele>3.6</ele>
        <time>2021-05-17T09:35:38Z</time>
      </trkpt>
      <trkpt lat="41.5423520" lon="-8.7885360">
        <ele>3.6</ele>
        <time>2021-05-17T09:35:39Z</time>
      </trkpt>
      <trkpt lat="41.5423590" lon="-8.7885420">
        <ele>3.6</ele>
        <time>2021-05-17T09:35:40Z</time>
      </trkpt>
      <trkpt lat="41.5423660" lon="-8.7885480">
        <ele>3.6</ele>
        <time>2021-05-17T09:35:41Z</time>
      </trkpt>
      <trkpt lat="41.5423790" lon="-8.7885600">
        <ele>3.5</ele>
        <time>2021-05-17T09:35:42Z</time>
      </trkpt>
      <trkpt lat="41.5423900" lon="-8.7885660">
        <ele>3.5</ele>
        <time>2021-05-17T09:35:43Z</time>
      </trkpt>
      <trkpt lat="41.5424040" lon="-8.7885810">
        <ele>3.5</ele>
        <time>2021-05-17T09:35:44Z</time>
      </trkpt>
      <trkpt lat="41.5424140" lon="-8.7885920">
        <ele>3.5</ele>
        <time>2021-05-17T09:35:45Z</time>
      </trkpt>
      <trkpt lat="41.5424280" lon="-8.7886030">
        <ele>3.5</ele>
        <time>2021-05-17T09:35:46Z</time>
      </trkpt>
      <trkpt lat="41.5424400" lon="-8.7886080">
        <ele>3.5</ele>
        <time>2021-05-17T09:35:47Z</time>
      </trkpt>
      <trkpt lat="41.5424510" lon="-8.7886210">
        <ele>3.5</ele>
        <time>2021-05-17T09:35:48Z</time>
      </trkpt>
      <trkpt lat="41.5424660" lon="-8.7886250">
        <ele>3.5</ele>
        <time>2021-05-17T09:35:49Z</time>
      </trkpt>
      <trkpt lat="41.5424770" lon="-8.7886390">
        <ele>3.5</ele>
        <time>2021-05-17T09:35:50Z</time>
      </trkpt>
      <trkpt lat="41.5424940" lon="-8.7886430">
        <ele>3.5</ele>
        <time>2021-05-17T09:35:51Z</time>
      </trkpt>
      <trkpt lat="41.5425040" lon="-8.7886540">
        <ele>3.5</ele>
        <time>2021-05-17T09:35:52Z</time>
      </trkpt>
      <trkpt lat="41.5425160" lon="-8.7886650">
        <ele>3.5</ele>
        <time>2021-05-17T09:35:53Z</time>
      </trkpt>
      <trkpt lat="41.5425270" lon="-8.7886740">
        <ele>3.5</ele>
        <time>2021-05-17T09:35:54Z</time>
      </trkpt>
      <trkpt lat="41.5425390" lon="-8.7886890">
        <ele>3.5</ele>
        <time>2021-05-17T09:35:55Z</time>
      </trkpt>
      <trkpt lat="41.5425510" lon="-8.7886950">
        <ele>3.5</ele>
        <time>2021-05-17T09:35:56Z</time>
      </trkpt>
      <trkpt lat="41.5425660" lon="-8.7887090">
        <ele>3.5</ele>
        <time>2021-05-17T09:35:57Z</time>
      </trkpt>
      <trkpt lat="41.5425790" lon="-8.7887080">
        <ele>3.5</ele>
        <time>2021-05-17T09:35:58Z</time>
      </trkpt>
      <trkpt lat="41.5425930" lon="-8.7887200">
        <ele>3.5</ele>
        <time>2021-05-17T09:35:59Z</time>
      </trkpt>
      <trkpt lat="41.5426030" lon="-8.7887280">
        <ele>3.5</ele>
        <time>2021-05-17T09:36:00Z</time>
      </trkpt>
      <trkpt lat="41.5426170" lon="-8.7887340">
        <ele>3.5</ele>
        <time>2021-05-17T09:36:01Z</time>
      </trkpt>
      <trkpt lat="41.5426280" lon="-8.7887470">
        <ele>3.5</ele>
        <time>2021-05-17T09:36:02Z</time>
      </trkpt>
      <trkpt lat="41.5426410" lon="-8.7887620">
        <ele>3.5</ele>
        <time>2021-05-17T09:36:03Z</time>
      </trkpt>
      <trkpt lat="41.5426500" lon="-8.7887770">
        <ele>3.5</ele>
        <time>2021-05-17T09:36:04Z</time>
      </trkpt>
      <trkpt lat="41.5426660" lon="-8.7887810">
        <ele>3.5</ele>
        <time>2021-05-17T09:36:05Z</time>
      </trkpt>
      <trkpt lat="41.5426850" lon="-8.7887940">
        <ele>3.5</ele>
        <time>2021-05-17T09:36:06Z</time>
      </trkpt>
      <trkpt lat="41.5426920" lon="-8.7888010">
        <ele>3.5</ele>
        <time>2021-05-17T09:36:07Z</time>
      </trkpt>
      <trkpt lat="41.5426990" lon="-8.7888080">
        <ele>3.5</ele>
        <time>2021-05-17T09:36:08Z</time>
      </trkpt>
      <trkpt lat="41.5427120" lon="-8.7888150">
        <ele>3.5</ele>
        <time>2021-05-17T09:36:09Z</time>
      </trkpt>
      <trkpt lat="41.5427250" lon="-8.7888290">
        <ele>3.5</ele>
        <time>2021-05-17T09:36:10Z</time>
      </trkpt>
      <trkpt lat="41.5427360" lon="-8.7888440">
        <ele>3.5</ele>
        <time>2021-05-17T09:36:11Z</time>
      </trkpt>
      <trkpt lat="41.5427490" lon="-8.7888550">
        <ele>3.5</ele>
        <time>2021-05-17T09:36:12Z</time>
      </trkpt>
      <trkpt lat="41.5427580" lon="-8.7888700">
        <ele>3.5</ele>
        <time>2021-05-17T09:36:13Z</time>
      </trkpt>
      <trkpt lat="41.5427740" lon="-8.7888800">
        <ele>3.5</ele>
        <time>2021-05-17T09:36:14Z</time>
      </trkpt>
      <trkpt lat="41.5427870" lon="-8.7888910">
        <ele>3.5</ele>
        <time>2021-05-17T09:36:15Z</time>
      </trkpt>
      <trkpt lat="41.5428010" lon="-8.7889000">
        <ele>3.5</ele>
        <time>2021-05-17T09:36:16Z</time>
      </trkpt>
      <trkpt lat="41.5428200" lon="-8.7889140">
        <ele>3.5</ele>
        <time>2021-05-17T09:36:17Z</time>
      </trkpt>
      <trkpt lat="41.5428270" lon="-8.7889260">
        <ele>3.5</ele>
        <time>2021-05-17T09:36:18Z</time>
      </trkpt>
      <trkpt lat="41.5428340" lon="-8.7889370">
        <ele>3.5</ele>
        <time>2021-05-17T09:36:19Z</time>
      </trkpt>
      <trkpt lat="41.5428490" lon="-8.7889430">
        <ele>3.5</ele>
        <time>2021-05-17T09:36:20Z</time>
      </trkpt>
      <trkpt lat="41.5428610" lon="-8.7889550">
        <ele>3.5</ele>
        <time>2021-05-17T09:36:21Z</time>
      </trkpt>
      <trkpt lat="41.5428730" lon="-8.7889620">
        <ele>3.5</ele>
        <time>2021-05-17T09:36:22Z</time>
      </trkpt>
      <trkpt lat="41.5428840" lon="-8.7889730">
        <ele>3.5</ele>
        <time>2021-05-17T09:36:23Z</time>
      </trkpt>
      <trkpt lat="41.5428920" lon="-8.7889780">
        <ele>3.5</ele>
        <time>2021-05-17T09:36:24Z</time>
      </trkpt>
      <trkpt lat="41.5429100" lon="-8.7889950">
        <ele>3.5</ele>
        <time>2021-05-17T09:36:25Z</time>
      </trkpt>
      <trkpt lat="41.5429170" lon="-8.7890010">
        <ele>3.5</ele>
        <time>2021-05-17T09:36:26Z</time>
      </trkpt>
      <trkpt lat="41.5429240" lon="-8.7890080">
        <ele>3.5</ele>
        <time>2021-05-17T09:36:27Z</time>
      </trkpt>
      <trkpt lat="41.5429400" lon="-8.7890190">
        <ele>3.5</ele>
        <time>2021-05-17T09:36:28Z</time>
      </trkpt>
      <trkpt lat="41.5429490" lon="-8.7890240">
        <ele>3.5</ele>
        <time>2021-05-17T09:36:29Z</time>
      </trkpt>
      <trkpt lat="41.5429580" lon="-8.7890290">
        <ele>3.5</ele>
        <time>2021-05-17T09:36:30Z</time>
      </trkpt>
      <trkpt lat="41.5429640" lon="-8.7890330">
        <ele>3.5</ele>
        <time>2021-05-17T09:36:31Z</time>
      </trkpt>
      <trkpt lat="41.5429770" lon="-8.7890470">
        <ele>3.5</ele>
        <time>2021-05-17T09:36:32Z</time>
      </trkpt>
      <trkpt lat="41.5429840" lon="-8.7890470">
        <ele>3.5</ele>
        <time>2021-05-17T09:36:33Z</time>
      </trkpt>
      <trkpt lat="41.5430080" lon="-8.7890710">
        <ele>3.5</ele>
        <time>2021-05-17T09:36:34Z</time>
      </trkpt>
      <trkpt lat="41.5430130" lon="-8.7890770">
        <ele>3.5</ele>
        <time>2021-05-17T09:36:35Z</time>
      </trkpt>
      <trkpt lat="41.5430280" lon="-8.7890910">
        <ele>3.5</ele>
        <time>2021-05-17T09:36:36Z</time>
      </trkpt>
      <trkpt lat="41.5430400" lon="-8.7891030">
        <ele>3.5</ele>
        <time>2021-05-17T09:36:37Z</time>
      </trkpt>
      <trkpt lat="41.5430500" lon="-8.7891140">
        <ele>3.5</ele>
        <time>2021-05-17T09:36:38Z</time>
      </trkpt>
      <trkpt lat="41.5430650" lon="-8.7891240">
        <ele>3.5</ele>
        <time>2021-05-17T09:36:39Z</time>
      </trkpt>
      <trkpt lat="41.5430760" lon="-8.7891270">
        <ele>3.5</ele>
        <time>2021-05-17T09:36:40Z</time>
      </trkpt>
      <trkpt lat="41.5430890" lon="-8.7891430">
        <ele>3.5</ele>
        <time>2021-05-17T09:36:41Z</time>
      </trkpt>
      <trkpt lat="41.5431020" lon="-8.7891470">
        <ele>3.5</ele>
        <time>2021-05-17T09:36:42Z</time>
      </trkpt>
      <trkpt lat="41.5431140" lon="-8.7891630">
        <ele>3.5</ele>
        <time>2021-05-17T09:36:43Z</time>
      </trkpt>
      <trkpt lat="41.5431290" lon="-8.7891720">
        <ele>3.5</ele>
        <time>2021-05-17T09:36:44Z</time>
      </trkpt>
      <trkpt lat="41.5431400" lon="-8.7891820">
        <ele>3.5</ele>
        <time>2021-05-17T09:36:45Z</time>
      </trkpt>
      <trkpt lat="41.5431530" lon="-8.7891960">
        <ele>3.5</ele>
        <time>2021-05-17T09:36:46Z</time>
      </trkpt>
      <trkpt lat="41.5431650" lon="-8.7891990">
        <ele>3.5</ele>
        <time>2021-05-17T09:36:47Z</time>
      </trkpt>
      <trkpt lat="41.5431840" lon="-8.7892130">
        <ele>3.5</ele>
        <time>2021-05-17T09:36:48Z</time>
      </trkpt>
      <trkpt lat="41.5431920" lon="-8.7892170">
        <ele>3.5</ele>
        <time>2021-05-17T09:36:49Z</time>
      </trkpt>
      <trkpt lat="41.5432000" lon="-8.7892210">
        <ele>3.5</ele>
        <time>2021-05-17T09:36:50Z</time>
      </trkpt>
      <trkpt lat="41.5432170" lon="-8.7892360">
        <ele>3.5</ele>
        <time>2021-05-17T09:36:51Z</time>
      </trkpt>
      <trkpt lat="41.5432240" lon="-8.7892430">
        <ele>3.5</ele>
        <time>2021-05-17T09:36:52Z</time>
      </trkpt>
      <trkpt lat="41.5432310" lon="-8.7892510">
        <ele>3.5</ele>
        <time>2021-05-17T09:36:53Z</time>
      </trkpt>
      <trkpt lat="41.5432500" lon="-8.7892700">
        <ele>3.5</ele>
        <time>2021-05-17T09:36:54Z</time>
      </trkpt>
      <trkpt lat="41.5432560" lon="-8.7892770">
        <ele>3.5</ele>
        <time>2021-05-17T09:36:55Z</time>
      </trkpt>
      <trkpt lat="41.5432630" lon="-8.7892850">
        <ele>3.5</ele>
        <time>2021-05-17T09:36:56Z</time>
      </trkpt>
      <trkpt lat="41.5432700" lon="-8.7892980">
        <ele>3.5</ele>
        <time>2021-05-17T09:36:57Z</time>
      </trkpt>
      <trkpt lat="41.5432840" lon="-8.7893080">
        <ele>3.5</ele>
        <time>2021-05-17T09:36:58Z</time>
      </trkpt>
      <trkpt lat="41.5433020" lon="-8.7893210">
        <ele>3.5</ele>
        <time>2021-05-17T09:36:59Z</time>
      </trkpt>
      <trkpt lat="41.5433090" lon="-8.7893260">
        <ele>3.5</ele>
        <time>2021-05-17T09:37:00Z</time>
      </trkpt>
      <trkpt lat="41.5433170" lon="-8.7893310">
        <ele>3.5</ele>
        <time>2021-05-17T09:37:01Z</time>
      </trkpt>
      <trkpt lat="41.5433200" lon="-8.7893320">
        <ele>3.5</ele>
        <time>2021-05-17T09:37:02Z</time>
      </trkpt>
      <trkpt lat="41.5433330" lon="-8.7893380">
        <ele>3.5</ele>
        <time>2021-05-17T09:37:03Z</time>
      </trkpt>
      <trkpt lat="41.5433460" lon="-8.7893480">
        <ele>3.4</ele>
        <time>2021-05-17T09:37:04Z</time>
      </trkpt>
      <trkpt lat="41.5433630" lon="-8.7893640">
        <ele>3.4</ele>
        <time>2021-05-17T09:37:05Z</time>
      </trkpt>
      <trkpt lat="41.5433700" lon="-8.7893710">
        <ele>3.4</ele>
        <time>2021-05-17T09:37:06Z</time>
      </trkpt>
      <trkpt lat="41.5433770" lon="-8.7893790">
        <ele>3.4</ele>
        <time>2021-05-17T09:37:07Z</time>
      </trkpt>
      <trkpt lat="41.5433890" lon="-8.7893880">
        <ele>3.4</ele>
        <time>2021-05-17T09:37:08Z</time>
      </trkpt>
      <trkpt lat="41.5434020" lon="-8.7894000">
        <ele>3.4</ele>
        <time>2021-05-17T09:37:09Z</time>
      </trkpt>
      <trkpt lat="41.5434110" lon="-8.7894070">
        <ele>3.4</ele>
        <time>2021-05-17T09:37:10Z</time>
      </trkpt>
      <trkpt lat="41.5434250" lon="-8.7894190">
        <ele>3.4</ele>
        <time>2021-05-17T09:37:11Z</time>
      </trkpt>
      <trkpt lat="41.5434370" lon="-8.7894320">
        <ele>3.4</ele>
        <time>2021-05-17T09:37:12Z</time>
      </trkpt>
      <trkpt lat="41.5434490" lon="-8.7894440">
        <ele>3.4</ele>
        <time>2021-05-17T09:37:13Z</time>
      </trkpt>
      <trkpt lat="41.5434650" lon="-8.7894600">
        <ele>3.4</ele>
        <time>2021-05-17T09:37:14Z</time>
      </trkpt>
      <trkpt lat="41.5434760" lon="-8.7894720">
        <ele>3.4</ele>
        <time>2021-05-17T09:37:15Z</time>
      </trkpt>
      <trkpt lat="41.5434860" lon="-8.7894780">
        <ele>3.4</ele>
        <time>2021-05-17T09:37:16Z</time>
      </trkpt>
      <trkpt lat="41.5434990" lon="-8.7894870">
        <ele>3.4</ele>
        <time>2021-05-17T09:37:17Z</time>
      </trkpt>
      <trkpt lat="41.5435030" lon="-8.7894920">
        <ele>3.4</ele>
        <time>2021-05-17T09:37:18Z</time>
      </trkpt>
      <trkpt lat="41.5435170" lon="-8.7895070">
        <ele>3.4</ele>
        <time>2021-05-17T09:37:19Z</time>
      </trkpt>
      <trkpt lat="41.5435270" lon="-8.7895130">
        <ele>3.4</ele>
        <time>2021-05-17T09:37:20Z</time>
      </trkpt>
      <trkpt lat="41.5435390" lon="-8.7895190">
        <ele>3.4</ele>
        <time>2021-05-17T09:37:21Z</time>
      </trkpt>
      <trkpt lat="41.5435510" lon="-8.7895310">
        <ele>3.4</ele>
        <time>2021-05-17T09:37:22Z</time>
      </trkpt>
      <trkpt lat="41.5435700" lon="-8.7895460">
        <ele>3.4</ele>
        <time>2021-05-17T09:37:23Z</time>
      </trkpt>
      <trkpt lat="41.5435780" lon="-8.7895520">
        <ele>3.4</ele>
        <time>2021-05-17T09:37:24Z</time>
      </trkpt>
      <trkpt lat="41.5435860" lon="-8.7895590">
        <ele>3.4</ele>
        <time>2021-05-17T09:37:25Z</time>
      </trkpt>
      <trkpt lat="41.5435970" lon="-8.7895700">
        <ele>3.4</ele>
        <time>2021-05-17T09:37:26Z</time>
      </trkpt>
      <trkpt lat="41.5436150" lon="-8.7895760">
        <ele>3.4</ele>
        <time>2021-05-17T09:37:27Z</time>
      </trkpt>
      <trkpt lat="41.5436270" lon="-8.7895950">
        <ele>3.4</ele>
        <time>2021-05-17T09:37:28Z</time>
      </trkpt>
      <trkpt lat="41.5436410" lon="-8.7896010">
        <ele>3.4</ele>
        <time>2021-05-17T09:37:29Z</time>
      </trkpt>
      <trkpt lat="41.5436550" lon="-8.7896150">
        <ele>3.4</ele>
        <time>2021-05-17T09:37:30Z</time>
      </trkpt>
      <trkpt lat="41.5436680" lon="-8.7896220">
        <ele>3.4</ele>
        <time>2021-05-17T09:37:31Z</time>
      </trkpt>
      <trkpt lat="41.5436770" lon="-8.7896360">
        <ele>3.4</ele>
        <time>2021-05-17T09:37:32Z</time>
      </trkpt>
      <trkpt lat="41.5436880" lon="-8.7896490">
        <ele>3.4</ele>
        <time>2021-05-17T09:37:33Z</time>
      </trkpt>
      <trkpt lat="41.5437070" lon="-8.7896580">
        <ele>3.4</ele>
        <time>2021-05-17T09:37:34Z</time>
      </trkpt>
      <trkpt lat="41.5437160" lon="-8.7896660">
        <ele>3.4</ele>
        <time>2021-05-17T09:37:35Z</time>
      </trkpt>
      <trkpt lat="41.5437240" lon="-8.7896750">
        <ele>3.4</ele>
        <time>2021-05-17T09:37:36Z</time>
      </trkpt>
      <trkpt lat="41.5437380" lon="-8.7896880">
        <ele>3.4</ele>
        <time>2021-05-17T09:37:37Z</time>
      </trkpt>
      <trkpt lat="41.5437510" lon="-8.7896960">
        <ele>3.4</ele>
        <time>2021-05-17T09:37:38Z</time>
      </trkpt>
      <trkpt lat="41.5437700" lon="-8.7897090">
        <ele>3.4</ele>
        <time>2021-05-17T09:37:39Z</time>
      </trkpt>
      <trkpt lat="41.5437770" lon="-8.7897130">
        <ele>3.4</ele>
        <time>2021-05-17T09:37:40Z</time>
      </trkpt>
      <trkpt lat="41.5437830" lon="-8.7897180">
        <ele>3.4</ele>
        <time>2021-05-17T09:37:41Z</time>
      </trkpt>
      <trkpt lat="41.5437910" lon="-8.7897240">
        <ele>3.4</ele>
        <time>2021-05-17T09:37:42Z</time>
      </trkpt>
      <trkpt lat="41.5438040" lon="-8.7897370">
        <ele>3.4</ele>
        <time>2021-05-17T09:37:43Z</time>
      </trkpt>
      <trkpt lat="41.5438090" lon="-8.7897360">
        <ele>3.4</ele>
        <time>2021-05-17T09:37:44Z</time>
      </trkpt>
      <trkpt lat="41.5438180" lon="-8.7897470">
        <ele>3.4</ele>
        <time>2021-05-17T09:37:45Z</time>
      </trkpt>
      <trkpt lat="41.5438340" lon="-8.7897610">
        <ele>3.4</ele>
        <time>2021-05-17T09:37:46Z</time>
      </trkpt>
      <trkpt lat="41.5438470" lon="-8.7897740">
        <ele>3.4</ele>
        <time>2021-05-17T09:37:47Z</time>
      </trkpt>
      <trkpt lat="41.5438610" lon="-8.7897840">
        <ele>3.4</ele>
        <time>2021-05-17T09:37:48Z</time>
      </trkpt>
      <trkpt lat="41.5438700" lon="-8.7897910">
        <ele>3.4</ele>
        <time>2021-05-17T09:37:49Z</time>
      </trkpt>
      <trkpt lat="41.5438840" lon="-8.7898050">
        <ele>3.4</ele>
        <time>2021-05-17T09:37:50Z</time>
      </trkpt>
      <trkpt lat="41.5438980" lon="-8.7898140">
        <ele>3.4</ele>
        <time>2021-05-17T09:37:51Z</time>
      </trkpt>
      <trkpt lat="41.5439090" lon="-8.7898220">
        <ele>3.4</ele>
        <time>2021-05-17T09:37:52Z</time>
      </trkpt>
      <trkpt lat="41.5439200" lon="-8.7898320">
        <ele>3.4</ele>
        <time>2021-05-17T09:37:53Z</time>
      </trkpt>
      <trkpt lat="41.5439310" lon="-8.7898370">
        <ele>3.4</ele>
        <time>2021-05-17T09:37:54Z</time>
      </trkpt>
      <trkpt lat="41.5439400" lon="-8.7898420">
        <ele>3.4</ele>
        <time>2021-05-17T09:37:55Z</time>
      </trkpt>
      <trkpt lat="41.5439670" lon="-8.7898580">
        <ele>3.4</ele>
        <time>2021-05-17T09:37:56Z</time>
      </trkpt>
      <trkpt lat="41.5439730" lon="-8.7898680">
        <ele>3.4</ele>
        <time>2021-05-17T09:37:57Z</time>
      </trkpt>
      <trkpt lat="41.5439880" lon="-8.7898770">
        <ele>3.4</ele>
        <time>2021-05-17T09:37:58Z</time>
      </trkpt>
      <trkpt lat="41.5440030" lon="-8.7898840">
        <ele>3.4</ele>
        <time>2021-05-17T09:37:59Z</time>
      </trkpt>
      <trkpt lat="41.5440190" lon="-8.7899000">
        <ele>3.4</ele>
        <time>2021-05-17T09:38:00Z</time>
      </trkpt>
      <trkpt lat="41.5440320" lon="-8.7899100">
        <ele>3.4</ele>
        <time>2021-05-17T09:38:01Z</time>
      </trkpt>
      <trkpt lat="41.5440450" lon="-8.7899240">
        <ele>3.4</ele>
        <time>2021-05-17T09:38:02Z</time>
      </trkpt>
      <trkpt lat="41.5440590" lon="-8.7899350">
        <ele>3.4</ele>
        <time>2021-05-17T09:38:03Z</time>
      </trkpt>
      <trkpt lat="41.5440740" lon="-8.7899490">
        <ele>3.4</ele>
        <time>2021-05-17T09:38:04Z</time>
      </trkpt>
      <trkpt lat="41.5440900" lon="-8.7899610">
        <ele>3.4</ele>
        <time>2021-05-17T09:38:05Z</time>
      </trkpt>
      <trkpt lat="41.5441060" lon="-8.7899750">
        <ele>3.4</ele>
        <time>2021-05-17T09:38:06Z</time>
      </trkpt>
      <trkpt lat="41.5441160" lon="-8.7899930">
        <ele>3.5</ele>
        <time>2021-05-17T09:38:07Z</time>
      </trkpt>
      <trkpt lat="41.5441260" lon="-8.7900150">
        <ele>3.5</ele>
        <time>2021-05-17T09:38:08Z</time>
      </trkpt>
      <trkpt lat="41.5441280" lon="-8.7900230">
        <ele>3.5</ele>
        <time>2021-05-17T09:38:09Z</time>
      </trkpt>
      <trkpt lat="41.5441300" lon="-8.7900300">
        <ele>3.5</ele>
        <time>2021-05-17T09:38:10Z</time>
      </trkpt>
      <trkpt lat="41.5441320" lon="-8.7900380">
        <ele>3.5</ele>
        <time>2021-05-17T09:38:11Z</time>
      </trkpt>
      <trkpt lat="41.5441340" lon="-8.7900450">
        <ele>3.5</ele>
        <time>2021-05-17T09:38:12Z</time>
      </trkpt>
      <trkpt lat="41.5441360" lon="-8.7900530">
        <ele>3.5</ele>
        <time>2021-05-17T09:38:13Z</time>
      </trkpt>
      <trkpt lat="41.5441420" lon="-8.7900660">
        <ele>3.5</ele>
        <time>2021-05-17T09:38:14Z</time>
      </trkpt>
      <trkpt lat="41.5441510" lon="-8.7900860">
        <ele>3.5</ele>
        <time>2021-05-17T09:38:15Z</time>
      </trkpt>
      <trkpt lat="41.5441730" lon="-8.7901090">
        <ele>3.5</ele>
        <time>2021-05-17T09:38:16Z</time>
      </trkpt>
      <trkpt lat="41.5441830" lon="-8.7901230">
        <ele>3.5</ele>
        <time>2021-05-17T09:38:17Z</time>
      </trkpt>
      <trkpt lat="41.5441950" lon="-8.7901280">
        <ele>3.5</ele>
        <time>2021-05-17T09:38:18Z</time>
      </trkpt>
      <trkpt lat="41.5442090" lon="-8.7901370">
        <ele>3.5</ele>
        <time>2021-05-17T09:38:19Z</time>
      </trkpt>
      <trkpt lat="41.5442220" lon="-8.7901450">
        <ele>3.5</ele>
        <time>2021-05-17T09:38:20Z</time>
      </trkpt>
      <trkpt lat="41.5442350" lon="-8.7901590">
        <ele>3.5</ele>
        <time>2021-05-17T09:38:21Z</time>
      </trkpt>
      <trkpt lat="41.5442500" lon="-8.7901610">
        <ele>3.5</ele>
        <time>2021-05-17T09:38:22Z</time>
      </trkpt>
      <trkpt lat="41.5442650" lon="-8.7901600">
        <ele>3.5</ele>
        <time>2021-05-17T09:38:23Z</time>
      </trkpt>
      <trkpt lat="41.5442750" lon="-8.7901550">
        <ele>3.5</ele>
        <time>2021-05-17T09:38:24Z</time>
      </trkpt>
      <trkpt lat="41.5442850" lon="-8.7901650">
        <ele>3.5</ele>
        <time>2021-05-17T09:38:25Z</time>
      </trkpt>
      <trkpt lat="41.5442930" lon="-8.7901690">
        <ele>3.5</ele>
        <time>2021-05-17T09:38:26Z</time>
      </trkpt>
      <trkpt lat="41.5443170" lon="-8.7901720">
        <ele>3.5</ele>
        <time>2021-05-17T09:38:27Z</time>
      </trkpt>
      <trkpt lat="41.5443280" lon="-8.7901730">
        <ele>3.5</ele>
        <time>2021-05-17T09:38:28Z</time>
      </trkpt>
      <trkpt lat="41.5443380" lon="-8.7901730">
        <ele>3.5</ele>
        <time>2021-05-17T09:38:29Z</time>
      </trkpt>
      <trkpt lat="41.5443490" lon="-8.7901860">
        <ele>3.5</ele>
        <time>2021-05-17T09:38:30Z</time>
      </trkpt>
      <trkpt lat="41.5443660" lon="-8.7901890">
        <ele>3.5</ele>
        <time>2021-05-17T09:38:31Z</time>
      </trkpt>
      <trkpt lat="41.5443780" lon="-8.7902020">
        <ele>3.6</ele>
        <time>2021-05-17T09:38:32Z</time>
      </trkpt>
      <trkpt lat="41.5443890" lon="-8.7902090">
        <ele>3.6</ele>
        <time>2021-05-17T09:38:33Z</time>
      </trkpt>
      <trkpt lat="41.5444010" lon="-8.7902250">
        <ele>3.6</ele>
        <time>2021-05-17T09:38:34Z</time>
      </trkpt>
      <trkpt lat="41.5444140" lon="-8.7902370">
        <ele>3.6</ele>
        <time>2021-05-17T09:38:35Z</time>
      </trkpt>
      <trkpt lat="41.5444340" lon="-8.7902540">
        <ele>3.6</ele>
        <time>2021-05-17T09:38:36Z</time>
      </trkpt>
      <trkpt lat="41.5444420" lon="-8.7902600">
        <ele>3.6</ele>
        <time>2021-05-17T09:38:37Z</time>
      </trkpt>
      <trkpt lat="41.5444500" lon="-8.7902660">
        <ele>3.6</ele>
        <time>2021-05-17T09:38:38Z</time>
      </trkpt>
      <trkpt lat="41.5444630" lon="-8.7902780">
        <ele>3.6</ele>
        <time>2021-05-17T09:38:39Z</time>
      </trkpt>
      <trkpt lat="41.5444780" lon="-8.7902880">
        <ele>3.6</ele>
        <time>2021-05-17T09:38:40Z</time>
      </trkpt>
      <trkpt lat="41.5444950" lon="-8.7903010">
        <ele>3.6</ele>
        <time>2021-05-17T09:38:41Z</time>
      </trkpt>
      <trkpt lat="41.5445020" lon="-8.7903050">
        <ele>3.6</ele>
        <time>2021-05-17T09:38:42Z</time>
      </trkpt>
      <trkpt lat="41.5445100" lon="-8.7903100">
        <ele>3.6</ele>
        <time>2021-05-17T09:38:43Z</time>
      </trkpt>
      <trkpt lat="41.5445230" lon="-8.7903230">
        <ele>3.6</ele>
        <time>2021-05-17T09:38:44Z</time>
      </trkpt>
      <trkpt lat="41.5445330" lon="-8.7903360">
        <ele>3.6</ele>
        <time>2021-05-17T09:38:45Z</time>
      </trkpt>
      <trkpt lat="41.5445450" lon="-8.7903510">
        <ele>3.6</ele>
        <time>2021-05-17T09:38:46Z</time>
      </trkpt>
      <trkpt lat="41.5445560" lon="-8.7903660">
        <ele>3.6</ele>
        <time>2021-05-17T09:38:47Z</time>
      </trkpt>
      <trkpt lat="41.5445720" lon="-8.7903830">
        <ele>3.7</ele>
        <time>2021-05-17T09:38:48Z</time>
      </trkpt>
      <trkpt lat="41.5445810" lon="-8.7903890">
        <ele>3.7</ele>
        <time>2021-05-17T09:38:49Z</time>
      </trkpt>
      <trkpt lat="41.5445900" lon="-8.7903940">
        <ele>3.7</ele>
        <time>2021-05-17T09:38:50Z</time>
      </trkpt>
      <trkpt lat="41.5446020" lon="-8.7903990">
        <ele>3.7</ele>
        <time>2021-05-17T09:38:51Z</time>
      </trkpt>
      <trkpt lat="41.5446140" lon="-8.7904120">
        <ele>3.7</ele>
        <time>2021-05-17T09:38:52Z</time>
      </trkpt>
      <trkpt lat="41.5446260" lon="-8.7904210">
        <ele>3.7</ele>
        <time>2021-05-17T09:38:53Z</time>
      </trkpt>
      <trkpt lat="41.5446400" lon="-8.7904350">
        <ele>3.7</ele>
        <time>2021-05-17T09:38:54Z</time>
      </trkpt>
      <trkpt lat="41.5446520" lon="-8.7904460">
        <ele>3.7</ele>
        <time>2021-05-17T09:38:55Z</time>
      </trkpt>
      <trkpt lat="41.5446650" lon="-8.7904560">
        <ele>3.7</ele>
        <time>2021-05-17T09:38:56Z</time>
      </trkpt>
      <trkpt lat="41.5446780" lon="-8.7904690">
        <ele>3.7</ele>
        <time>2021-05-17T09:38:57Z</time>
      </trkpt>
      <trkpt lat="41.5446930" lon="-8.7904820">
        <ele>3.7</ele>
        <time>2021-05-17T09:38:58Z</time>
      </trkpt>
      <trkpt lat="41.5447120" lon="-8.7904940">
        <ele>3.8</ele>
        <time>2021-05-17T09:38:59Z</time>
      </trkpt>
      <trkpt lat="41.5447190" lon="-8.7904990">
        <ele>3.8</ele>
        <time>2021-05-17T09:39:00Z</time>
      </trkpt>
      <trkpt lat="41.5447250" lon="-8.7905040">
        <ele>3.8</ele>
        <time>2021-05-17T09:39:01Z</time>
      </trkpt>
      <trkpt lat="41.5447390" lon="-8.7905190">
        <ele>3.8</ele>
        <time>2021-05-17T09:39:02Z</time>
      </trkpt>
      <trkpt lat="41.5447470" lon="-8.7905260">
        <ele>3.8</ele>
        <time>2021-05-17T09:39:03Z</time>
      </trkpt>
      <trkpt lat="41.5447630" lon="-8.7905350">
        <ele>3.8</ele>
        <time>2021-05-17T09:39:04Z</time>
      </trkpt>
      <trkpt lat="41.5447730" lon="-8.7905470">
        <ele>3.8</ele>
        <time>2021-05-17T09:39:05Z</time>
      </trkpt>
      <trkpt lat="41.5447890" lon="-8.7905560">
        <ele>3.8</ele>
        <time>2021-05-17T09:39:06Z</time>
      </trkpt>
      <trkpt lat="41.5448000" lon="-8.7905610">
        <ele>3.8</ele>
        <time>2021-05-17T09:39:07Z</time>
      </trkpt>
      <trkpt lat="41.5448130" lon="-8.7905780">
        <ele>3.8</ele>
        <time>2021-05-17T09:39:08Z</time>
      </trkpt>
      <trkpt lat="41.5448230" lon="-8.7905890">
        <ele>3.8</ele>
        <time>2021-05-17T09:39:09Z</time>
      </trkpt>
      <trkpt lat="41.5448350" lon="-8.7905950">
        <ele>3.9</ele>
        <time>2021-05-17T09:39:10Z</time>
      </trkpt>
      <trkpt lat="41.5448480" lon="-8.7906070">
        <ele>3.9</ele>
        <time>2021-05-17T09:39:11Z</time>
      </trkpt>
      <trkpt lat="41.5448710" lon="-8.7906160">
        <ele>3.9</ele>
        <time>2021-05-17T09:39:12Z</time>
      </trkpt>
      <trkpt lat="41.5448780" lon="-8.7906210">
        <ele>3.9</ele>
        <time>2021-05-17T09:39:13Z</time>
      </trkpt>
      <trkpt lat="41.5448850" lon="-8.7906260">
        <ele>3.9</ele>
        <time>2021-05-17T09:39:14Z</time>
      </trkpt>
      <trkpt lat="41.5448950" lon="-8.7906360">
        <ele>3.9</ele>
        <time>2021-05-17T09:39:15Z</time>
      </trkpt>
      <trkpt lat="41.5449110" lon="-8.7906470">
        <ele>3.9</ele>
        <time>2021-05-17T09:39:16Z</time>
      </trkpt>
      <trkpt lat="41.5449220" lon="-8.7906580">
        <ele>3.9</ele>
        <time>2021-05-17T09:39:17Z</time>
      </trkpt>
      <trkpt lat="41.5449340" lon="-8.7906680">
        <ele>3.9</ele>
        <time>2021-05-17T09:39:18Z</time>
      </trkpt>
      <trkpt lat="41.5449440" lon="-8.7906770">
        <ele>3.9</ele>
        <time>2021-05-17T09:39:19Z</time>
      </trkpt>
      <trkpt lat="41.5449520" lon="-8.7906890">
        <ele>3.9</ele>
        <time>2021-05-17T09:39:20Z</time>
      </trkpt>
      <trkpt lat="41.5449640" lon="-8.7906960">
        <ele>4.0</ele>
        <time>2021-05-17T09:39:21Z</time>
      </trkpt>
      <trkpt lat="41.5449780" lon="-8.7907070">
        <ele>4.0</ele>
        <time>2021-05-17T09:39:22Z</time>
      </trkpt>
      <trkpt lat="41.5449890" lon="-8.7907170">
        <ele>4.0</ele>
        <time>2021-05-17T09:39:23Z</time>
      </trkpt>
      <trkpt lat="41.5450020" lon="-8.7907270">
        <ele>4.0</ele>
        <time>2021-05-17T09:39:24Z</time>
      </trkpt>
      <trkpt lat="41.5450180" lon="-8.7907380">
        <ele>4.0</ele>
        <time>2021-05-17T09:39:25Z</time>
      </trkpt>
      <trkpt lat="41.5450320" lon="-8.7907550">
        <ele>4.0</ele>
        <time>2021-05-17T09:39:26Z</time>
      </trkpt>
      <trkpt lat="41.5450440" lon="-8.7907650">
        <ele>4.0</ele>
        <time>2021-05-17T09:39:27Z</time>
      </trkpt>
      <trkpt lat="41.5450620" lon="-8.7907670">
        <ele>4.0</ele>
        <time>2021-05-17T09:39:28Z</time>
      </trkpt>
      <trkpt lat="41.5450760" lon="-8.7907760">
        <ele>4.0</ele>
        <time>2021-05-17T09:39:29Z</time>
      </trkpt>
      <trkpt lat="41.5450880" lon="-8.7907860">
        <ele>4.0</ele>
        <time>2021-05-17T09:39:30Z</time>
      </trkpt>
      <trkpt lat="41.5451030" lon="-8.7907910">
        <ele>4.0</ele>
        <time>2021-05-17T09:39:31Z</time>
      </trkpt>
      <trkpt lat="41.5451190" lon="-8.7908120">
        <ele>4.1</ele>
        <time>2021-05-17T09:39:32Z</time>
      </trkpt>
      <trkpt lat="41.5451250" lon="-8.7908170">
        <ele>4.1</ele>
        <time>2021-05-17T09:39:33Z</time>
      </trkpt>
      <trkpt lat="41.5451310" lon="-8.7908230">
        <ele>4.1</ele>
        <time>2021-05-17T09:39:34Z</time>
      </trkpt>
      <trkpt lat="41.5451510" lon="-8.7908340">
        <ele>4.1</ele>
        <time>2021-05-17T09:39:35Z</time>
      </trkpt>
      <trkpt lat="41.5451590" lon="-8.7908400">
        <ele>4.1</ele>
        <time>2021-05-17T09:39:36Z</time>
      </trkpt>
      <trkpt lat="41.5451670" lon="-8.7908470">
        <ele>4.1</ele>
        <time>2021-05-17T09:39:37Z</time>
      </trkpt>
      <trkpt lat="41.5451760" lon="-8.7908570">
        <ele>4.1</ele>
        <time>2021-05-17T09:39:38Z</time>
      </trkpt>
      <trkpt lat="41.5451860" lon="-8.7908580">
        <ele>4.1</ele>
        <time>2021-05-17T09:39:39Z</time>
      </trkpt>
      <trkpt lat="41.5451960" lon="-8.7908670">
        <ele>4.1</ele>
        <time>2021-05-17T09:39:40Z</time>
      </trkpt>
      <trkpt lat="41.5452020" lon="-8.7908730">
        <ele>4.1</ele>
        <time>2021-05-17T09:39:41Z</time>
      </trkpt>
      <trkpt lat="41.5452110" lon="-8.7908760">
        <ele>4.1</ele>
        <time>2021-05-17T09:39:42Z</time>
      </trkpt>
      <trkpt lat="41.5452190" lon="-8.7908850">
        <ele>4.1</ele>
        <time>2021-05-17T09:39:43Z</time>
      </trkpt>
      <trkpt lat="41.5452380" lon="-8.7908970">
        <ele>4.1</ele>
        <time>2021-05-17T09:39:44Z</time>
      </trkpt>
      <trkpt lat="41.5452490" lon="-8.7909020">
        <ele>4.1</ele>
        <time>2021-05-17T09:39:45Z</time>
      </trkpt>
      <trkpt lat="41.5452640" lon="-8.7909140">
        <ele>4.2</ele>
        <time>2021-05-17T09:39:46Z</time>
      </trkpt>
      <trkpt lat="41.5452810" lon="-8.7909230">
        <ele>4.2</ele>
        <time>2021-05-17T09:39:47Z</time>
      </trkpt>
      <trkpt lat="41.5453020" lon="-8.7909280">
        <ele>4.2</ele>
        <time>2021-05-17T09:39:48Z</time>
      </trkpt>
      <trkpt lat="41.5453120" lon="-8.7909330">
        <ele>4.2</ele>
        <time>2021-05-17T09:39:49Z</time>
      </trkpt>
      <trkpt lat="41.5453210" lon="-8.7909380">
        <ele>4.2</ele>
        <time>2021-05-17T09:39:50Z</time>
      </trkpt>
      <trkpt lat="41.5453430" lon="-8.7909500">
        <ele>4.2</ele>
        <time>2021-05-17T09:39:51Z</time>
      </trkpt>
      <trkpt lat="41.5453520" lon="-8.7909530">
        <ele>4.2</ele>
        <time>2021-05-17T09:39:52Z</time>
      </trkpt>
      <trkpt lat="41.5453610" lon="-8.7909560">
        <ele>4.2</ele>
        <time>2021-05-17T09:39:53Z</time>
      </trkpt>
      <trkpt lat="41.5453760" lon="-8.7909680">
        <ele>4.3</ele>
        <time>2021-05-17T09:39:54Z</time>
      </trkpt>
      <trkpt lat="41.5453870" lon="-8.7909710">
        <ele>4.3</ele>
        <time>2021-05-17T09:39:55Z</time>
      </trkpt>
      <trkpt lat="41.5453990" lon="-8.7909780">
        <ele>4.3</ele>
        <time>2021-05-17T09:39:56Z</time>
      </trkpt>
      <trkpt lat="41.5454110" lon="-8.7909910">
        <ele>4.3</ele>
        <time>2021-05-17T09:39:57Z</time>
      </trkpt>
      <trkpt lat="41.5454280" lon="-8.7909920">
        <ele>4.3</ele>
        <time>2021-05-17T09:39:58Z</time>
      </trkpt>
      <trkpt lat="41.5454420" lon="-8.7909960">
        <ele>4.3</ele>
        <time>2021-05-17T09:39:59Z</time>
      </trkpt>
      <trkpt lat="41.5454560" lon="-8.7910050">
        <ele>4.3</ele>
        <time>2021-05-17T09:40:00Z</time>
      </trkpt>
      <trkpt lat="41.5454690" lon="-8.7910080">
        <ele>4.3</ele>
        <time>2021-05-17T09:40:01Z</time>
      </trkpt>
      <trkpt lat="41.5454780" lon="-8.7910120">
        <ele>4.3</ele>
        <time>2021-05-17T09:40:02Z</time>
      </trkpt>
      <trkpt lat="41.5454890" lon="-8.7910210">
        <ele>4.4</ele>
        <time>2021-05-17T09:40:03Z</time>
      </trkpt>
      <trkpt lat="41.5455010" lon="-8.7910280">
        <ele>4.4</ele>
        <time>2021-05-17T09:40:04Z</time>
      </trkpt>
      <trkpt lat="41.5455190" lon="-8.7910310">
        <ele>4.4</ele>
        <time>2021-05-17T09:40:05Z</time>
      </trkpt>
      <trkpt lat="41.5455280" lon="-8.7910350">
        <ele>4.4</ele>
        <time>2021-05-17T09:40:06Z</time>
      </trkpt>
      <trkpt lat="41.5455370" lon="-8.7910380">
        <ele>4.4</ele>
        <time>2021-05-17T09:40:07Z</time>
      </trkpt>
      <trkpt lat="41.5455510" lon="-8.7910490">
        <ele>4.4</ele>
        <time>2021-05-17T09:40:08Z</time>
      </trkpt>
      <trkpt lat="41.5455650" lon="-8.7910500">
        <ele>4.4</ele>
        <time>2021-05-17T09:40:09Z</time>
      </trkpt>
      <trkpt lat="41.5455850" lon="-8.7910510">
        <ele>4.4</ele>
        <time>2021-05-17T09:40:10Z</time>
      </trkpt>
      <trkpt lat="41.5455940" lon="-8.7910500">
        <ele>4.4</ele>
        <time>2021-05-17T09:40:11Z</time>
      </trkpt>
      <trkpt lat="41.5456030" lon="-8.7910500">
        <ele>4.5</ele>
        <time>2021-05-17T09:40:12Z</time>
      </trkpt>
      <trkpt lat="41.5456190" lon="-8.7910560">
        <ele>4.5</ele>
        <time>2021-05-17T09:40:13Z</time>
      </trkpt>
      <trkpt lat="41.5456260" lon="-8.7910570">
        <ele>4.5</ele>
        <time>2021-05-17T09:40:14Z</time>
      </trkpt>
      <trkpt lat="41.5456330" lon="-8.7910590">
        <ele>4.5</ele>
        <time>2021-05-17T09:40:15Z</time>
      </trkpt>
      <trkpt lat="41.5456490" lon="-8.7910640">
        <ele>4.5</ele>
        <time>2021-05-17T09:40:16Z</time>
      </trkpt>
      <trkpt lat="41.5456610" lon="-8.7910740">
        <ele>4.5</ele>
        <time>2021-05-17T09:40:17Z</time>
      </trkpt>
      <trkpt lat="41.5456760" lon="-8.7910740">
        <ele>4.5</ele>
        <time>2021-05-17T09:40:18Z</time>
      </trkpt>
      <trkpt lat="41.5456950" lon="-8.7910860">
        <ele>4.5</ele>
        <time>2021-05-17T09:40:19Z</time>
      </trkpt>
      <trkpt lat="41.5457120" lon="-8.7910950">
        <ele>4.5</ele>
        <time>2021-05-17T09:40:20Z</time>
      </trkpt>
      <trkpt lat="41.5457280" lon="-8.7910980">
        <ele>4.6</ele>
        <time>2021-05-17T09:40:21Z</time>
      </trkpt>
      <trkpt lat="41.5457410" lon="-8.7911040">
        <ele>4.6</ele>
        <time>2021-05-17T09:40:22Z</time>
      </trkpt>
      <trkpt lat="41.5457570" lon="-8.7911080">
        <ele>4.6</ele>
        <time>2021-05-17T09:40:23Z</time>
      </trkpt>
      <trkpt lat="41.5457690" lon="-8.7911200">
        <ele>4.6</ele>
        <time>2021-05-17T09:40:24Z</time>
      </trkpt>
      <trkpt lat="41.5457840" lon="-8.7911190">
        <ele>4.6</ele>
        <time>2021-05-17T09:40:25Z</time>
      </trkpt>
      <trkpt lat="41.5457990" lon="-8.7911210">
        <ele>4.6</ele>
        <time>2021-05-17T09:40:26Z</time>
      </trkpt>
      <trkpt lat="41.5458150" lon="-8.7911270">
        <ele>4.6</ele>
        <time>2021-05-17T09:40:27Z</time>
      </trkpt>
      <trkpt lat="41.5458330" lon="-8.7911240">
        <ele>4.6</ele>
        <time>2021-05-17T09:40:28Z</time>
      </trkpt>
      <trkpt lat="41.5458490" lon="-8.7911330">
        <ele>4.6</ele>
        <time>2021-05-17T09:40:29Z</time>
      </trkpt>
      <trkpt lat="41.5458650" lon="-8.7911370">
        <ele>4.6</ele>
        <time>2021-05-17T09:40:30Z</time>
      </trkpt>
      <trkpt lat="41.5458790" lon="-8.7911350">
        <ele>4.6</ele>
        <time>2021-05-17T09:40:31Z</time>
      </trkpt>
      <trkpt lat="41.5458960" lon="-8.7911370">
        <ele>4.6</ele>
        <time>2021-05-17T09:40:32Z</time>
      </trkpt>
      <trkpt lat="41.5459100" lon="-8.7911350">
        <ele>4.7</ele>
        <time>2021-05-17T09:40:33Z</time>
      </trkpt>
      <trkpt lat="41.5459250" lon="-8.7911380">
        <ele>4.7</ele>
        <time>2021-05-17T09:40:34Z</time>
      </trkpt>
      <trkpt lat="41.5459390" lon="-8.7911350">
        <ele>4.7</ele>
        <time>2021-05-17T09:40:35Z</time>
      </trkpt>
      <trkpt lat="41.5459550" lon="-8.7911430">
        <ele>4.7</ele>
        <time>2021-05-17T09:40:36Z</time>
      </trkpt>
      <trkpt lat="41.5459670" lon="-8.7911320">
        <ele>4.7</ele>
        <time>2021-05-17T09:40:37Z</time>
      </trkpt>
      <trkpt lat="41.5459830" lon="-8.7911330">
        <ele>4.7</ele>
        <time>2021-05-17T09:40:38Z</time>
      </trkpt>
      <trkpt lat="41.5459960" lon="-8.7911270">
        <ele>4.7</ele>
        <time>2021-05-17T09:40:39Z</time>
      </trkpt>
      <trkpt lat="41.5460240" lon="-8.7911250">
        <ele>4.7</ele>
        <time>2021-05-17T09:40:40Z</time>
      </trkpt>
      <trkpt lat="41.5460330" lon="-8.7911230">
        <ele>4.7</ele>
        <time>2021-05-17T09:40:41Z</time>
      </trkpt>
      <trkpt lat="41.5460490" lon="-8.7911190">
        <ele>4.8</ele>
        <time>2021-05-17T09:40:42Z</time>
      </trkpt>
      <trkpt lat="41.5460660" lon="-8.7911210">
        <ele>4.8</ele>
        <time>2021-05-17T09:40:43Z</time>
      </trkpt>
      <trkpt lat="41.5460790" lon="-8.7911230">
        <ele>4.8</ele>
        <time>2021-05-17T09:40:44Z</time>
      </trkpt>
      <trkpt lat="41.5460940" lon="-8.7911150">
        <ele>4.8</ele>
        <time>2021-05-17T09:40:45Z</time>
      </trkpt>
      <trkpt lat="41.5461060" lon="-8.7911160">
        <ele>4.8</ele>
        <time>2021-05-17T09:40:46Z</time>
      </trkpt>
      <trkpt lat="41.5461220" lon="-8.7911080">
        <ele>4.8</ele>
        <time>2021-05-17T09:40:47Z</time>
      </trkpt>
      <trkpt lat="41.5461460" lon="-8.7911080">
        <ele>4.9</ele>
        <time>2021-05-17T09:40:48Z</time>
      </trkpt>
      <trkpt lat="41.5461550" lon="-8.7911070">
        <ele>4.9</ele>
        <time>2021-05-17T09:40:49Z</time>
      </trkpt>
      <trkpt lat="41.5461650" lon="-8.7911070">
        <ele>4.9</ele>
        <time>2021-05-17T09:40:50Z</time>
      </trkpt>
      <trkpt lat="41.5461780" lon="-8.7911030">
        <ele>4.9</ele>
        <time>2021-05-17T09:40:51Z</time>
      </trkpt>
      <trkpt lat="41.5461930" lon="-8.7911000">
        <ele>4.9</ele>
        <time>2021-05-17T09:40:52Z</time>
      </trkpt>
      <trkpt lat="41.5462140" lon="-8.7910990">
        <ele>4.9</ele>
        <time>2021-05-17T09:40:53Z</time>
      </trkpt>
      <trkpt lat="41.5462230" lon="-8.7910970">
        <ele>4.9</ele>
        <time>2021-05-17T09:40:54Z</time>
      </trkpt>
      <trkpt lat="41.5462330" lon="-8.7910950">
        <ele>4.9</ele>
        <time>2021-05-17T09:40:55Z</time>
      </trkpt>
      <trkpt lat="41.5462550" lon="-8.7910940">
        <ele>5.0</ele>
        <time>2021-05-17T09:40:56Z</time>
      </trkpt>
      <trkpt lat="41.5462650" lon="-8.7910900">
        <ele>5.0</ele>
        <time>2021-05-17T09:40:57Z</time>
      </trkpt>
      <trkpt lat="41.5462740" lon="-8.7910850">
        <ele>5.0</ele>
        <time>2021-05-17T09:40:58Z</time>
      </trkpt>
      <trkpt lat="41.5462990" lon="-8.7910800">
        <ele>5.0</ele>
        <time>2021-05-17T09:40:59Z</time>
      </trkpt>
      <trkpt lat="41.5463070" lon="-8.7910800">
        <ele>5.0</ele>
        <time>2021-05-17T09:41:00Z</time>
      </trkpt>
      <trkpt lat="41.5463160" lon="-8.7910790">
        <ele>5.0</ele>
        <time>2021-05-17T09:41:01Z</time>
      </trkpt>
      <trkpt lat="41.5463270" lon="-8.7910780">
        <ele>5.0</ele>
        <time>2021-05-17T09:41:02Z</time>
      </trkpt>
      <trkpt lat="41.5463470" lon="-8.7910710">
        <ele>5.0</ele>
        <time>2021-05-17T09:41:03Z</time>
      </trkpt>
      <trkpt lat="41.5463670" lon="-8.7910640">
        <ele>5.1</ele>
        <time>2021-05-17T09:41:04Z</time>
      </trkpt>
      <trkpt lat="41.5463770" lon="-8.7910610">
        <ele>5.1</ele>
        <time>2021-05-17T09:41:05Z</time>
      </trkpt>
      <trkpt lat="41.5463860" lon="-8.7910570">
        <ele>5.1</ele>
        <time>2021-05-17T09:41:06Z</time>
      </trkpt>
      <trkpt lat="41.5464010" lon="-8.7910450">
        <ele>5.1</ele>
        <time>2021-05-17T09:41:07Z</time>
      </trkpt>
      <trkpt lat="41.5464140" lon="-8.7910480">
        <ele>5.1</ele>
        <time>2021-05-17T09:41:08Z</time>
      </trkpt>
      <trkpt lat="41.5464270" lon="-8.7910390">
        <ele>5.1</ele>
        <time>2021-05-17T09:41:09Z</time>
      </trkpt>
      <trkpt lat="41.5464400" lon="-8.7910380">
        <ele>5.1</ele>
        <time>2021-05-17T09:41:10Z</time>
      </trkpt>
      <trkpt lat="41.5464640" lon="-8.7910260">
        <ele>5.1</ele>
        <time>2021-05-17T09:41:11Z</time>
      </trkpt>
      <trkpt lat="41.5464730" lon="-8.7910240">
        <ele>5.2</ele>
        <time>2021-05-17T09:41:12Z</time>
      </trkpt>
      <trkpt lat="41.5464820" lon="-8.7910230">
        <ele>5.2</ele>
        <time>2021-05-17T09:41:13Z</time>
      </trkpt>
      <trkpt lat="41.5465030" lon="-8.7910190">
        <ele>5.2</ele>
        <time>2021-05-17T09:41:14Z</time>
      </trkpt>
      <trkpt lat="41.5465110" lon="-8.7910170">
        <ele>5.2</ele>
        <time>2021-05-17T09:41:15Z</time>
      </trkpt>
      <trkpt lat="41.5465180" lon="-8.7910140">
        <ele>5.2</ele>
        <time>2021-05-17T09:41:16Z</time>
      </trkpt>
      <trkpt lat="41.5465340" lon="-8.7910070">
        <ele>5.2</ele>
        <time>2021-05-17T09:41:17Z</time>
      </trkpt>
      <trkpt lat="41.5465410" lon="-8.7910030">
        <ele>5.2</ele>
        <time>2021-05-17T09:41:18Z</time>
      </trkpt>
      <trkpt lat="41.5465470" lon="-8.7909980">
        <ele>5.2</ele>
        <time>2021-05-17T09:41:19Z</time>
      </trkpt>
      <trkpt lat="41.5465530" lon="-8.7909940">
        <ele>5.2</ele>
        <time>2021-05-17T09:41:20Z</time>
      </trkpt>
      <trkpt lat="41.5465700" lon="-8.7909820">
        <ele>5.2</ele>
        <time>2021-05-17T09:41:21Z</time>
      </trkpt>
      <trkpt lat="41.5465820" lon="-8.7909790">
        <ele>5.2</ele>
        <time>2021-05-17T09:41:22Z</time>
      </trkpt>
      <trkpt lat="41.5466040" lon="-8.7909730">
        <ele>5.2</ele>
        <time>2021-05-17T09:41:23Z</time>
      </trkpt>
      <trkpt lat="41.5466130" lon="-8.7909690">
        <ele>5.2</ele>
        <time>2021-05-17T09:41:24Z</time>
      </trkpt>
      <trkpt lat="41.5466230" lon="-8.7909650">
        <ele>5.2</ele>
        <time>2021-05-17T09:41:25Z</time>
      </trkpt>
      <trkpt lat="41.5466450" lon="-8.7909590">
        <ele>5.3</ele>
        <time>2021-05-17T09:41:26Z</time>
      </trkpt>
      <trkpt lat="41.5466540" lon="-8.7909560">
        <ele>5.3</ele>
        <time>2021-05-17T09:41:27Z</time>
      </trkpt>
      <trkpt lat="41.5466640" lon="-8.7909520">
        <ele>5.3</ele>
        <time>2021-05-17T09:41:28Z</time>
      </trkpt>
      <trkpt lat="41.5466850" lon="-8.7909440">
        <ele>5.3</ele>
        <time>2021-05-17T09:41:29Z</time>
      </trkpt>
      <trkpt lat="41.5466950" lon="-8.7909410">
        <ele>5.3</ele>
        <time>2021-05-17T09:41:30Z</time>
      </trkpt>
      <trkpt lat="41.5467050" lon="-8.7909390">
        <ele>5.3</ele>
        <time>2021-05-17T09:41:31Z</time>
      </trkpt>
      <trkpt lat="41.5467230" lon="-8.7909330">
        <ele>5.3</ele>
        <time>2021-05-17T09:41:32Z</time>
      </trkpt>
      <trkpt lat="41.5467380" lon="-8.7909240">
        <ele>5.3</ele>
        <time>2021-05-17T09:41:33Z</time>
      </trkpt>
      <trkpt lat="41.5467520" lon="-8.7909190">
        <ele>5.3</ele>
        <time>2021-05-17T09:41:34Z</time>
      </trkpt>
      <trkpt lat="41.5467660" lon="-8.7909140">
        <ele>5.3</ele>
        <time>2021-05-17T09:41:35Z</time>
      </trkpt>
      <trkpt lat="41.5467880" lon="-8.7909060">
        <ele>5.3</ele>
        <time>2021-05-17T09:41:36Z</time>
      </trkpt>
      <trkpt lat="41.5467970" lon="-8.7909020">
        <ele>5.3</ele>
        <time>2021-05-17T09:41:37Z</time>
      </trkpt>
      <trkpt lat="41.5468060" lon="-8.7908970">
        <ele>5.3</ele>
        <time>2021-05-17T09:41:38Z</time>
      </trkpt>
      <trkpt lat="41.5468220" lon="-8.7908900">
        <ele>5.4</ele>
        <time>2021-05-17T09:41:39Z</time>
      </trkpt>
      <trkpt lat="41.5468410" lon="-8.7908840">
        <ele>5.4</ele>
        <time>2021-05-17T09:41:40Z</time>
      </trkpt>
      <trkpt lat="41.5468580" lon="-8.7908810">
        <ele>5.4</ele>
        <time>2021-05-17T09:41:41Z</time>
      </trkpt>
      <trkpt lat="41.5468710" lon="-8.7908690">
        <ele>5.4</ele>
        <time>2021-05-17T09:41:42Z</time>
      </trkpt>
      <trkpt lat="41.5468850" lon="-8.7908690">
        <ele>5.4</ele>
        <time>2021-05-17T09:41:43Z</time>
      </trkpt>
      <trkpt lat="41.5469010" lon="-8.7908620">
        <ele>5.4</ele>
        <time>2021-05-17T09:41:44Z</time>
      </trkpt>
      <trkpt lat="41.5469160" lon="-8.7908570">
        <ele>5.4</ele>
        <time>2021-05-17T09:41:45Z</time>
      </trkpt>
      <trkpt lat="41.5469310" lon="-8.7908470">
        <ele>5.4</ele>
        <time>2021-05-17T09:41:46Z</time>
      </trkpt>
      <trkpt lat="41.5469440" lon="-8.7908330">
        <ele>5.4</ele>
        <time>2021-05-17T09:41:47Z</time>
      </trkpt>
      <trkpt lat="41.5469600" lon="-8.7908250">
        <ele>5.5</ele>
        <time>2021-05-17T09:41:48Z</time>
      </trkpt>
      <trkpt lat="41.5469810" lon="-8.7908230">
        <ele>5.5</ele>
        <time>2021-05-17T09:41:49Z</time>
      </trkpt>
      <trkpt lat="41.5469900" lon="-8.7908200">
        <ele>5.5</ele>
        <time>2021-05-17T09:41:50Z</time>
      </trkpt>
      <trkpt lat="41.5469980" lon="-8.7908160">
        <ele>5.5</ele>
        <time>2021-05-17T09:41:51Z</time>
      </trkpt>
      <trkpt lat="41.5470140" lon="-8.7908050">
        <ele>5.5</ele>
        <time>2021-05-17T09:41:52Z</time>
      </trkpt>
      <trkpt lat="41.5470290" lon="-8.7908050">
        <ele>5.5</ele>
        <time>2021-05-17T09:41:53Z</time>
      </trkpt>
      <trkpt lat="41.5470430" lon="-8.7907950">
        <ele>5.5</ele>
        <time>2021-05-17T09:41:54Z</time>
      </trkpt>
      <trkpt lat="41.5470590" lon="-8.7907950">
        <ele>5.5</ele>
        <time>2021-05-17T09:41:55Z</time>
      </trkpt>
      <trkpt lat="41.5470730" lon="-8.7907800">
        <ele>5.5</ele>
        <time>2021-05-17T09:41:56Z</time>
      </trkpt>
      <trkpt lat="41.5470860" lon="-8.7907800">
        <ele>5.5</ele>
        <time>2021-05-17T09:41:57Z</time>
      </trkpt>
      <trkpt lat="41.5471000" lon="-8.7907810">
        <ele>5.5</ele>
        <time>2021-05-17T09:41:58Z</time>
      </trkpt>
      <trkpt lat="41.5471140" lon="-8.7907750">
        <ele>5.6</ele>
        <time>2021-05-17T09:41:59Z</time>
      </trkpt>
      <trkpt lat="41.5471280" lon="-8.7907650">
        <ele>5.6</ele>
        <time>2021-05-17T09:42:00Z</time>
      </trkpt>
      <trkpt lat="41.5471390" lon="-8.7907600">
        <ele>5.6</ele>
        <time>2021-05-17T09:42:01Z</time>
      </trkpt>
      <trkpt lat="41.5471540" lon="-8.7907460">
        <ele>5.6</ele>
        <time>2021-05-17T09:42:02Z</time>
      </trkpt>
      <trkpt lat="41.5471690" lon="-8.7907400">
        <ele>5.6</ele>
        <time>2021-05-17T09:42:03Z</time>
      </trkpt>
      <trkpt lat="41.5471850" lon="-8.7907320">
        <ele>5.6</ele>
        <time>2021-05-17T09:42:04Z</time>
      </trkpt>
      <trkpt lat="41.5472010" lon="-8.7907290">
        <ele>5.6</ele>
        <time>2021-05-17T09:42:05Z</time>
      </trkpt>
      <trkpt lat="41.5472140" lon="-8.7907230">
        <ele>5.6</ele>
        <time>2021-05-17T09:42:06Z</time>
      </trkpt>
      <trkpt lat="41.5472290" lon="-8.7907120">
        <ele>5.6</ele>
        <time>2021-05-17T09:42:07Z</time>
      </trkpt>
      <trkpt lat="41.5472480" lon="-8.7907050">
        <ele>5.7</ele>
        <time>2021-05-17T09:42:08Z</time>
      </trkpt>
      <trkpt lat="41.5472570" lon="-8.7907010">
        <ele>5.7</ele>
        <time>2021-05-17T09:42:09Z</time>
      </trkpt>
      <trkpt lat="41.5472660" lon="-8.7906970">
        <ele>5.7</ele>
        <time>2021-05-17T09:42:10Z</time>
      </trkpt>
      <trkpt lat="41.5472890" lon="-8.7906890">
        <ele>5.7</ele>
        <time>2021-05-17T09:42:11Z</time>
      </trkpt>
      <trkpt lat="41.5472980" lon="-8.7906850">
        <ele>5.7</ele>
        <time>2021-05-17T09:42:12Z</time>
      </trkpt>
      <trkpt lat="41.5473080" lon="-8.7906820">
        <ele>5.7</ele>
        <time>2021-05-17T09:42:13Z</time>
      </trkpt>
      <trkpt lat="41.5473240" lon="-8.7906770">
        <ele>5.7</ele>
        <time>2021-05-17T09:42:14Z</time>
      </trkpt>
      <trkpt lat="41.5473380" lon="-8.7906700">
        <ele>5.7</ele>
        <time>2021-05-17T09:42:15Z</time>
      </trkpt>
      <trkpt lat="41.5473510" lon="-8.7906670">
        <ele>5.7</ele>
        <time>2021-05-17T09:42:16Z</time>
      </trkpt>
      <trkpt lat="41.5473620" lon="-8.7906600">
        <ele>5.8</ele>
        <time>2021-05-17T09:42:17Z</time>
      </trkpt>
      <trkpt lat="41.5473690" lon="-8.7906550">
        <ele>5.8</ele>
        <time>2021-05-17T09:42:18Z</time>
      </trkpt>
      <trkpt lat="41.5473820" lon="-8.7906490">
        <ele>5.8</ele>
        <time>2021-05-17T09:42:19Z</time>
      </trkpt>
      <trkpt lat="41.5473860" lon="-8.7906490">
        <ele>5.8</ele>
        <time>2021-05-17T09:42:20Z</time>
      </trkpt>
      <trkpt lat="41.5474010" lon="-8.7906430">
        <ele>5.8</ele>
        <time>2021-05-17T09:42:21Z</time>
      </trkpt>
      <trkpt lat="41.5474150" lon="-8.7906390">
        <ele>5.8</ele>
        <time>2021-05-17T09:42:22Z</time>
      </trkpt>
      <trkpt lat="41.5474360" lon="-8.7906330">
        <ele>5.8</ele>
        <time>2021-05-17T09:42:23Z</time>
      </trkpt>
      <trkpt lat="41.5474510" lon="-8.7906280">
        <ele>5.8</ele>
        <time>2021-05-17T09:42:24Z</time>
      </trkpt>
      <trkpt lat="41.5474620" lon="-8.7906200">
        <ele>5.8</ele>
        <time>2021-05-17T09:42:25Z</time>
      </trkpt>
      <trkpt lat="41.5474730" lon="-8.7906160">
        <ele>5.9</ele>
        <time>2021-05-17T09:42:26Z</time>
      </trkpt>
      <trkpt lat="41.5474870" lon="-8.7906090">
        <ele>5.9</ele>
        <time>2021-05-17T09:42:27Z</time>
      </trkpt>
      <trkpt lat="41.5475010" lon="-8.7905990">
        <ele>5.9</ele>
        <time>2021-05-17T09:42:28Z</time>
      </trkpt>
      <trkpt lat="41.5475140" lon="-8.7905950">
        <ele>5.9</ele>
        <time>2021-05-17T09:42:29Z</time>
      </trkpt>
      <trkpt lat="41.5475300" lon="-8.7905890">
        <ele>5.9</ele>
        <time>2021-05-17T09:42:30Z</time>
      </trkpt>
      <trkpt lat="41.5475430" lon="-8.7905880">
        <ele>5.9</ele>
        <time>2021-05-17T09:42:31Z</time>
      </trkpt>
      <trkpt lat="41.5475580" lon="-8.7905800">
        <ele>5.9</ele>
        <time>2021-05-17T09:42:32Z</time>
      </trkpt>
      <trkpt lat="41.5475730" lon="-8.7905700">
        <ele>6.0</ele>
        <time>2021-05-17T09:42:33Z</time>
      </trkpt>
      <trkpt lat="41.5475950" lon="-8.7905570">
        <ele>6.0</ele>
        <time>2021-05-17T09:42:34Z</time>
      </trkpt>
      <trkpt lat="41.5476030" lon="-8.7905520">
        <ele>6.0</ele>
        <time>2021-05-17T09:42:35Z</time>
      </trkpt>
      <trkpt lat="41.5476120" lon="-8.7905480">
        <ele>6.0</ele>
        <time>2021-05-17T09:42:36Z</time>
      </trkpt>
      <trkpt lat="41.5476270" lon="-8.7905380">
        <ele>6.0</ele>
        <time>2021-05-17T09:42:37Z</time>
      </trkpt>
      <trkpt lat="41.5476370" lon="-8.7905320">
        <ele>6.0</ele>
        <time>2021-05-17T09:42:38Z</time>
      </trkpt>
      <trkpt lat="41.5476490" lon="-8.7905330">
        <ele>6.0</ele>
        <time>2021-05-17T09:42:39Z</time>
      </trkpt>
      <trkpt lat="41.5476650" lon="-8.7905240">
        <ele>6.0</ele>
        <time>2021-05-17T09:42:40Z</time>
      </trkpt>
      <trkpt lat="41.5476860" lon="-8.7905130">
        <ele>6.0</ele>
        <time>2021-05-17T09:42:41Z</time>
      </trkpt>
      <trkpt lat="41.5476950" lon="-8.7905110">
        <ele>6.0</ele>
        <time>2021-05-17T09:42:42Z</time>
      </trkpt>
      <trkpt lat="41.5477030" lon="-8.7905090">
        <ele>6.0</ele>
        <time>2021-05-17T09:42:43Z</time>
      </trkpt>
      <trkpt lat="41.5477180" lon="-8.7905030">
        <ele>6.0</ele>
        <time>2021-05-17T09:42:44Z</time>
      </trkpt>
      <trkpt lat="41.5477290" lon="-8.7904970">
        <ele>6.0</ele>
        <time>2021-05-17T09:42:45Z</time>
      </trkpt>
      <trkpt lat="41.5477420" lon="-8.7904810">
        <ele>6.0</ele>
        <time>2021-05-17T09:42:46Z</time>
      </trkpt>
      <trkpt lat="41.5477540" lon="-8.7904830">
        <ele>6.0</ele>
        <time>2021-05-17T09:42:47Z</time>
      </trkpt>
      <trkpt lat="41.5477630" lon="-8.7904790">
        <ele>6.0</ele>
        <time>2021-05-17T09:42:48Z</time>
      </trkpt>
      <trkpt lat="41.5477650" lon="-8.7904710">
        <ele>6.0</ele>
        <time>2021-05-17T09:42:49Z</time>
      </trkpt>
      <trkpt lat="41.5477750" lon="-8.7904680">
        <ele>5.9</ele>
        <time>2021-05-17T09:42:50Z</time>
      </trkpt>
      <trkpt lat="41.5477790" lon="-8.7904640">
        <ele>5.9</ele>
        <time>2021-05-17T09:42:51Z</time>
      </trkpt>
      <trkpt lat="41.5477770" lon="-8.7904600">
        <ele>5.9</ele>
        <time>2021-05-17T09:42:52Z</time>
      </trkpt>
      <trkpt lat="41.5477800" lon="-8.7904570">
        <ele>5.9</ele>
        <time>2021-05-17T09:42:53Z</time>
      </trkpt>
      <trkpt lat="41.5477850" lon="-8.7904520">
        <ele>5.9</ele>
        <time>2021-05-17T09:42:54Z</time>
      </trkpt>
      <trkpt lat="41.5477830" lon="-8.7904530">
        <ele>5.9</ele>
        <time>2021-05-17T09:42:55Z</time>
      </trkpt>
      <trkpt lat="41.5477840" lon="-8.7904530">
        <ele>5.9</ele>
        <time>2021-05-17T09:42:56Z</time>
      </trkpt>
      <trkpt lat="41.5477850" lon="-8.7904530">
        <ele>5.9</ele>
        <time>2021-05-17T09:42:57Z</time>
      </trkpt>
      <trkpt lat="41.5477860" lon="-8.7904530">
        <ele>5.9</ele>
        <time>2021-05-17T09:42:58Z</time>
      </trkpt>
      <trkpt lat="41.5477870" lon="-8.7904540">
        <ele>5.9</ele>
        <time>2021-05-17T09:42:59Z</time>
      </trkpt>
      <trkpt lat="41.5477880" lon="-8.7904540">
        <ele>5.9</ele>
        <time>2021-05-17T09:43:00Z</time>
      </trkpt>
      <trkpt lat="41.5477890" lon="-8.7904540">
        <ele>5.9</ele>
        <time>2021-05-17T09:43:01Z</time>
      </trkpt>
      <trkpt lat="41.5477900" lon="-8.7904540">
        <ele>5.9</ele>
        <time>2021-05-17T09:43:02Z</time>
      </trkpt>
      <trkpt lat="41.5477910" lon="-8.7904540">
        <ele>5.9</ele>
        <time>2021-05-17T09:43:03Z</time>
      </trkpt>
      <trkpt lat="41.5477920" lon="-8.7904540">
        <ele>5.9</ele>
        <time>2021-05-17T09:43:04Z</time>
      </trkpt>
      <trkpt lat="41.5477930" lon="-8.7904540">
        <ele>5.9</ele>
        <time>2021-05-17T09:43:05Z</time>
      </trkpt>
      <trkpt lat="41.5477940" lon="-8.7904540">
        <ele>5.9</ele>
        <time>2021-05-17T09:43:06Z</time>
      </trkpt>
      <trkpt lat="41.5477950" lon="-8.7904540">
        <ele>5.9</ele>
        <time>2021-05-17T09:43:07Z</time>
      </trkpt>
      <trkpt lat="41.5477960" lon="-8.7904540">
        <ele>5.9</ele>
        <time>2021-05-17T09:43:08Z</time>
      </trkpt>
      <trkpt lat="41.5477970" lon="-8.7904550">
        <ele>5.9</ele>
        <time>2021-05-17T09:43:09Z</time>
      </trkpt>
      <trkpt lat="41.5477980" lon="-8.7904550">
        <ele>5.9</ele>
        <time>2021-05-17T09:43:10Z</time>
      </trkpt>
      <trkpt lat="41.5477990" lon="-8.7904550">
        <ele>5.9</ele>
        <time>2021-05-17T09:43:11Z</time>
      </trkpt>
      <trkpt lat="41.5478000" lon="-8.7904550">
        <ele>5.9</ele>
        <time>2021-05-17T09:43:12Z</time>
      </trkpt>
      <trkpt lat="41.5478010" lon="-8.7904550">
        <ele>5.9</ele>
        <time>2021-05-17T09:43:13Z</time>
      </trkpt>
      <trkpt lat="41.5478030" lon="-8.7904550">
        <ele>5.9</ele>
        <time>2021-05-17T09:43:14Z</time>
      </trkpt>
      <trkpt lat="41.5478040" lon="-8.7904550">
        <ele>5.9</ele>
        <time>2021-05-17T09:43:15Z</time>
      </trkpt>
      <trkpt lat="41.5478050" lon="-8.7904550">
        <ele>5.9</ele>
        <time>2021-05-17T09:43:16Z</time>
      </trkpt>
      <trkpt lat="41.5478060" lon="-8.7904550">
        <ele>5.9</ele>
        <time>2021-05-17T09:43:17Z</time>
      </trkpt>
      <trkpt lat="41.5478070" lon="-8.7904550">
        <ele>5.9</ele>
        <time>2021-05-17T09:43:18Z</time>
      </trkpt>
      <trkpt lat="41.5478080" lon="-8.7904560">
        <ele>5.9</ele>
        <time>2021-05-17T09:43:19Z</time>
      </trkpt>
      <trkpt lat="41.5478090" lon="-8.7904560">
        <ele>5.9</ele>
        <time>2021-05-17T09:43:20Z</time>
      </trkpt>
      <trkpt lat="41.5478100" lon="-8.7904560">
        <ele>5.9</ele>
        <time>2021-05-17T09:43:21Z</time>
      </trkpt>
      <trkpt lat="41.5478110" lon="-8.7904560">
        <ele>5.9</ele>
        <time>2021-05-17T09:43:22Z</time>
      </trkpt>
      <trkpt lat="41.5478120" lon="-8.7904560">
        <ele>5.9</ele>
        <time>2021-05-17T09:43:23Z</time>
      </trkpt>
      <trkpt lat="41.5478130" lon="-8.7904560">
        <ele>5.9</ele>
        <time>2021-05-17T09:43:24Z</time>
      </trkpt>
      <trkpt lat="41.5478140" lon="-8.7904560">
        <ele>5.9</ele>
        <time>2021-05-17T09:43:25Z</time>
      </trkpt>
      <trkpt lat="41.5478150" lon="-8.7904560">
        <ele>5.9</ele>
        <time>2021-05-17T09:43:26Z</time>
      </trkpt>
      <trkpt lat="41.5478160" lon="-8.7904560">
        <ele>5.9</ele>
        <time>2021-05-17T09:43:27Z</time>
      </trkpt>
      <trkpt lat="41.5478170" lon="-8.7904560">
        <ele>5.9</ele>
        <time>2021-05-17T09:43:28Z</time>
      </trkpt>
      <trkpt lat="41.5478180" lon="-8.7904570">
        <ele>5.9</ele>
        <time>2021-05-17T09:43:29Z</time>
      </trkpt>
      <trkpt lat="41.5478190" lon="-8.7904570">
        <ele>5.9</ele>
        <time>2021-05-17T09:43:30Z</time>
      </trkpt>
      <trkpt lat="41.5478200" lon="-8.7904570">
        <ele>5.9</ele>
        <time>2021-05-17T09:43:31Z</time>
      </trkpt>
      <trkpt lat="41.5478210" lon="-8.7904570">
        <ele>5.9</ele>
        <time>2021-05-17T09:43:32Z</time>
      </trkpt>
      <trkpt lat="41.5478220" lon="-8.7904570">
        <ele>5.9</ele>
        <time>2021-05-17T09:43:33Z</time>
      </trkpt>
      <trkpt lat="41.5478410" lon="-8.7904520">
        <ele>5.8</ele>
        <time>2021-05-17T09:43:34Z</time>
      </trkpt>
      <trkpt lat="41.5478550" lon="-8.7904450">
        <ele>5.8</ele>
        <time>2021-05-17T09:43:35Z</time>
      </trkpt>
      <trkpt lat="41.5478690" lon="-8.7904400">
        <ele>5.8</ele>
        <time>2021-05-17T09:43:36Z</time>
      </trkpt>
      <trkpt lat="41.5478830" lon="-8.7904310">
        <ele>5.8</ele>
        <time>2021-05-17T09:43:37Z</time>
      </trkpt>
      <trkpt lat="41.5478950" lon="-8.7904220">
        <ele>5.8</ele>
        <time>2021-05-17T09:43:38Z</time>
      </trkpt>
      <trkpt lat="41.5479080" lon="-8.7904180">
        <ele>5.7</ele>
        <time>2021-05-17T09:43:39Z</time>
      </trkpt>
      <trkpt lat="41.5479220" lon="-8.7904110">
        <ele>5.7</ele>
        <time>2021-05-17T09:43:40Z</time>
      </trkpt>
      <trkpt lat="41.5479420" lon="-8.7904030">
        <ele>5.7</ele>
        <time>2021-05-17T09:43:41Z</time>
      </trkpt>
      <trkpt lat="41.5479510" lon="-8.7903970">
        <ele>5.7</ele>
        <time>2021-05-17T09:43:42Z</time>
      </trkpt>
      <trkpt lat="41.5479710" lon="-8.7903870">
        <ele>5.6</ele>
        <time>2021-05-17T09:43:43Z</time>
      </trkpt>
      <trkpt lat="41.5479940" lon="-8.7903740">
        <ele>5.6</ele>
        <time>2021-05-17T09:43:44Z</time>
      </trkpt>
      <trkpt lat="41.5480050" lon="-8.7903690">
        <ele>5.6</ele>
        <time>2021-05-17T09:43:45Z</time>
      </trkpt>
      <trkpt lat="41.5480160" lon="-8.7903630">
        <ele>5.6</ele>
        <time>2021-05-17T09:43:46Z</time>
      </trkpt>
      <trkpt lat="41.5480270" lon="-8.7903580">
        <ele>5.6</ele>
        <time>2021-05-17T09:43:47Z</time>
      </trkpt>
      <trkpt lat="41.5480470" lon="-8.7903490">
        <ele>5.5</ele>
        <time>2021-05-17T09:43:48Z</time>
      </trkpt>
      <trkpt lat="41.5480620" lon="-8.7903450">
        <ele>5.5</ele>
        <time>2021-05-17T09:43:49Z</time>
      </trkpt>
      <trkpt lat="41.5480760" lon="-8.7903310">
        <ele>5.5</ele>
        <time>2021-05-17T09:43:50Z</time>
      </trkpt>
      <trkpt lat="41.5480940" lon="-8.7903280">
        <ele>5.5</ele>
        <time>2021-05-17T09:43:51Z</time>
      </trkpt>
      <trkpt lat="41.5481110" lon="-8.7903280">
        <ele>5.5</ele>
        <time>2021-05-17T09:43:52Z</time>
      </trkpt>
      <trkpt lat="41.5481240" lon="-8.7903160">
        <ele>5.4</ele>
        <time>2021-05-17T09:43:53Z</time>
      </trkpt>
      <trkpt lat="41.5481420" lon="-8.7903110">
        <ele>5.4</ele>
        <time>2021-05-17T09:43:54Z</time>
      </trkpt>
      <trkpt lat="41.5481570" lon="-8.7903070">
        <ele>5.4</ele>
        <time>2021-05-17T09:43:55Z</time>
      </trkpt>
      <trkpt lat="41.5481750" lon="-8.7902960">
        <ele>5.4</ele>
        <time>2021-05-17T09:43:56Z</time>
      </trkpt>
      <trkpt lat="41.5481840" lon="-8.7902880">
        <ele>5.4</ele>
        <time>2021-05-17T09:43:57Z</time>
      </trkpt>
      <trkpt lat="41.5481990" lon="-8.7902740">
        <ele>5.4</ele>
        <time>2021-05-17T09:43:58Z</time>
      </trkpt>
      <trkpt lat="41.5482200" lon="-8.7902620">
        <ele>5.4</ele>
        <time>2021-05-17T09:43:59Z</time>
      </trkpt>
      <trkpt lat="41.5482280" lon="-8.7902590">
        <ele>5.4</ele>
        <time>2021-05-17T09:44:00Z</time>
      </trkpt>
      <trkpt lat="41.5482370" lon="-8.7902550">
        <ele>5.4</ele>
        <time>2021-05-17T09:44:01Z</time>
      </trkpt>
      <trkpt lat="41.5482570" lon="-8.7902490">
        <ele>5.4</ele>
        <time>2021-05-17T09:44:02Z</time>
      </trkpt>
      <trkpt lat="41.5482650" lon="-8.7902440">
        <ele>5.4</ele>
        <time>2021-05-17T09:44:03Z</time>
      </trkpt>
      <trkpt lat="41.5482740" lon="-8.7902400">
        <ele>5.4</ele>
        <time>2021-05-17T09:44:04Z</time>
      </trkpt>
      <trkpt lat="41.5482880" lon="-8.7902310">
        <ele>5.4</ele>
        <time>2021-05-17T09:44:05Z</time>
      </trkpt>
      <trkpt lat="41.5483040" lon="-8.7902230">
        <ele>5.4</ele>
        <time>2021-05-17T09:44:06Z</time>
      </trkpt>
      <trkpt lat="41.5483200" lon="-8.7902130">
        <ele>5.4</ele>
        <time>2021-05-17T09:44:07Z</time>
      </trkpt>
      <trkpt lat="41.5483320" lon="-8.7902060">
        <ele>5.4</ele>
        <time>2021-05-17T09:44:08Z</time>
      </trkpt>
      <trkpt lat="41.5483500" lon="-8.7901930">
        <ele>5.4</ele>
        <time>2021-05-17T09:44:09Z</time>
      </trkpt>
      <trkpt lat="41.5483570" lon="-8.7901840">
        <ele>5.4</ele>
        <time>2021-05-17T09:44:10Z</time>
      </trkpt>
      <trkpt lat="41.5483630" lon="-8.7901760">
        <ele>5.4</ele>
        <time>2021-05-17T09:44:11Z</time>
      </trkpt>
      <trkpt lat="41.5483750" lon="-8.7901690">
        <ele>5.4</ele>
        <time>2021-05-17T09:44:12Z</time>
      </trkpt>
      <trkpt lat="41.5483850" lon="-8.7901580">
        <ele>5.4</ele>
        <time>2021-05-17T09:44:13Z</time>
      </trkpt>
      <trkpt lat="41.5483930" lon="-8.7901550">
        <ele>5.4</ele>
        <time>2021-05-17T09:44:14Z</time>
      </trkpt>
      <trkpt lat="41.5484020" lon="-8.7901390">
        <ele>5.4</ele>
        <time>2021-05-17T09:44:15Z</time>
      </trkpt>
      <trkpt lat="41.5484160" lon="-8.7901350">
        <ele>5.4</ele>
        <time>2021-05-17T09:44:16Z</time>
      </trkpt>
      <trkpt lat="41.5484300" lon="-8.7901230">
        <ele>5.4</ele>
        <time>2021-05-17T09:44:17Z</time>
      </trkpt>
      <trkpt lat="41.5484460" lon="-8.7901150">
        <ele>5.4</ele>
        <time>2021-05-17T09:44:18Z</time>
      </trkpt>
      <trkpt lat="41.5484630" lon="-8.7901030">
        <ele>5.4</ele>
        <time>2021-05-17T09:44:19Z</time>
      </trkpt>
      <trkpt lat="41.5484750" lon="-8.7900950">
        <ele>5.5</ele>
        <time>2021-05-17T09:44:20Z</time>
      </trkpt>
      <trkpt lat="41.5484880" lon="-8.7900830">
        <ele>5.5</ele>
        <time>2021-05-17T09:44:21Z</time>
      </trkpt>
      <trkpt lat="41.5485030" lon="-8.7900750">
        <ele>5.5</ele>
        <time>2021-05-17T09:44:22Z</time>
      </trkpt>
      <trkpt lat="41.5485160" lon="-8.7900680">
        <ele>5.5</ele>
        <time>2021-05-17T09:44:23Z</time>
      </trkpt>
      <trkpt lat="41.5485280" lon="-8.7900590">
        <ele>5.5</ele>
        <time>2021-05-17T09:44:24Z</time>
      </trkpt>
      <trkpt lat="41.5485420" lon="-8.7900440">
        <ele>5.5</ele>
        <time>2021-05-17T09:44:25Z</time>
      </trkpt>
      <trkpt lat="41.5485560" lon="-8.7900320">
        <ele>5.5</ele>
        <time>2021-05-17T09:44:26Z</time>
      </trkpt>
      <trkpt lat="41.5485730" lon="-8.7900240">
        <ele>5.5</ele>
        <time>2021-05-17T09:44:27Z</time>
      </trkpt>
      <trkpt lat="41.5485870" lon="-8.7900170">
        <ele>5.5</ele>
        <time>2021-05-17T09:44:28Z</time>
      </trkpt>
      <trkpt lat="41.5486070" lon="-8.7900010">
        <ele>5.5</ele>
        <time>2021-05-17T09:44:29Z</time>
      </trkpt>
      <trkpt lat="41.5486150" lon="-8.7899930">
        <ele>5.5</ele>
        <time>2021-05-17T09:44:30Z</time>
      </trkpt>
      <trkpt lat="41.5486220" lon="-8.7899840">
        <ele>5.5</ele>
        <time>2021-05-17T09:44:31Z</time>
      </trkpt>
      <trkpt lat="41.5486320" lon="-8.7899780">
        <ele>5.5</ele>
        <time>2021-05-17T09:44:32Z</time>
      </trkpt>
      <trkpt lat="41.5486400" lon="-8.7899710">
        <ele>5.5</ele>
        <time>2021-05-17T09:44:33Z</time>
      </trkpt>
      <trkpt lat="41.5486550" lon="-8.7899670">
        <ele>5.5</ele>
        <time>2021-05-17T09:44:34Z</time>
      </trkpt>
      <trkpt lat="41.5486640" lon="-8.7899500">
        <ele>5.5</ele>
        <time>2021-05-17T09:44:35Z</time>
      </trkpt>
      <trkpt lat="41.5486710" lon="-8.7899430">
        <ele>5.5</ele>
        <time>2021-05-17T09:44:36Z</time>
      </trkpt>
      <trkpt lat="41.5486780" lon="-8.7899350">
        <ele>5.5</ele>
        <time>2021-05-17T09:44:37Z</time>
      </trkpt>
      <trkpt lat="41.5486850" lon="-8.7899280">
        <ele>5.5</ele>
        <time>2021-05-17T09:44:38Z</time>
      </trkpt>
      <trkpt lat="41.5486980" lon="-8.7899200">
        <ele>5.5</ele>
        <time>2021-05-17T09:44:39Z</time>
      </trkpt>
      <trkpt lat="41.5487100" lon="-8.7899140">
        <ele>5.5</ele>
        <time>2021-05-17T09:44:40Z</time>
      </trkpt>
      <trkpt lat="41.5487240" lon="-8.7899110">
        <ele>5.5</ele>
        <time>2021-05-17T09:44:41Z</time>
      </trkpt>
      <trkpt lat="41.5487360" lon="-8.7898990">
        <ele>5.5</ele>
        <time>2021-05-17T09:44:42Z</time>
      </trkpt>
      <trkpt lat="41.5487480" lon="-8.7898870">
        <ele>5.5</ele>
        <time>2021-05-17T09:44:43Z</time>
      </trkpt>
      <trkpt lat="41.5487500" lon="-8.7898840">
        <ele>5.5</ele>
        <time>2021-05-17T09:44:44Z</time>
      </trkpt>
      <trkpt lat="41.5487590" lon="-8.7898690">
        <ele>5.4</ele>
        <time>2021-05-17T09:44:45Z</time>
      </trkpt>
      <trkpt lat="41.5487770" lon="-8.7898600">
        <ele>5.4</ele>
        <time>2021-05-17T09:44:46Z</time>
      </trkpt>
      <trkpt lat="41.5487850" lon="-8.7898550">
        <ele>5.4</ele>
        <time>2021-05-17T09:44:47Z</time>
      </trkpt>
      <trkpt lat="41.5487930" lon="-8.7898490">
        <ele>5.4</ele>
        <time>2021-05-17T09:44:48Z</time>
      </trkpt>
      <trkpt lat="41.5487970" lon="-8.7898460">
        <ele>5.4</ele>
        <time>2021-05-17T09:44:49Z</time>
      </trkpt>
      <trkpt lat="41.5488020" lon="-8.7898470">
        <ele>5.4</ele>
        <time>2021-05-17T09:44:50Z</time>
      </trkpt>
      <trkpt lat="41.5488090" lon="-8.7898480">
        <ele>5.4</ele>
        <time>2021-05-17T09:44:51Z</time>
      </trkpt>
      <trkpt lat="41.5488210" lon="-8.7898500">
        <ele>5.4</ele>
        <time>2021-05-17T09:44:52Z</time>
      </trkpt>
      <trkpt lat="41.5488390" lon="-8.7898340">
        <ele>5.4</ele>
        <time>2021-05-17T09:44:53Z</time>
      </trkpt>
      <trkpt lat="41.5488480" lon="-8.7898400">
        <ele>5.3</ele>
        <time>2021-05-17T09:44:54Z</time>
      </trkpt>
      <trkpt lat="41.5488780" lon="-8.7898270">
        <ele>5.3</ele>
        <time>2021-05-17T09:44:55Z</time>
      </trkpt>
      <trkpt lat="41.5488840" lon="-8.7898230">
        <ele>5.3</ele>
        <time>2021-05-17T09:44:56Z</time>
      </trkpt>
      <trkpt lat="41.5489150" lon="-8.7898110">
        <ele>5.3</ele>
        <time>2021-05-17T09:44:57Z</time>
      </trkpt>
      <trkpt lat="41.5489230" lon="-8.7898070">
        <ele>5.2</ele>
        <time>2021-05-17T09:44:58Z</time>
      </trkpt>
      <trkpt lat="41.5489450" lon="-8.7898100">
        <ele>5.2</ele>
        <time>2021-05-17T09:44:59Z</time>
      </trkpt>
      <trkpt lat="41.5489530" lon="-8.7898120">
        <ele>5.2</ele>
        <time>2021-05-17T09:45:00Z</time>
      </trkpt>
      <trkpt lat="41.5489620" lon="-8.7898130">
        <ele>5.2</ele>
        <time>2021-05-17T09:45:01Z</time>
      </trkpt>
      <trkpt lat="41.5489790" lon="-8.7898140">
        <ele>5.2</ele>
        <time>2021-05-17T09:45:02Z</time>
      </trkpt>
      <trkpt lat="41.5489980" lon="-8.7898140">
        <ele>5.1</ele>
        <time>2021-05-17T09:45:03Z</time>
      </trkpt>
      <trkpt lat="41.5490140" lon="-8.7898150">
        <ele>5.1</ele>
        <time>2021-05-17T09:45:04Z</time>
      </trkpt>
      <trkpt lat="41.5490280" lon="-8.7898210">
        <ele>5.1</ele>
        <time>2021-05-17T09:45:05Z</time>
      </trkpt>
      <trkpt lat="41.5490580" lon="-8.7898230">
        <ele>5.1</ele>
        <time>2021-05-17T09:45:06Z</time>
      </trkpt>
      <trkpt lat="41.5490660" lon="-8.7898270">
        <ele>5.1</ele>
        <time>2021-05-17T09:45:07Z</time>
      </trkpt>
      <trkpt lat="41.5490970" lon="-8.7898320">
        <ele>5.0</ele>
        <time>2021-05-17T09:45:08Z</time>
      </trkpt>
      <trkpt lat="41.5491060" lon="-8.7898340">
        <ele>5.0</ele>
        <time>2021-05-17T09:45:09Z</time>
      </trkpt>
      <trkpt lat="41.5491250" lon="-8.7898410">
        <ele>5.0</ele>
        <time>2021-05-17T09:45:10Z</time>
      </trkpt>
      <trkpt lat="41.5491400" lon="-8.7898500">
        <ele>5.0</ele>
        <time>2021-05-17T09:45:11Z</time>
      </trkpt>
      <trkpt lat="41.5491550" lon="-8.7898560">
        <ele>5.0</ele>
        <time>2021-05-17T09:45:12Z</time>
      </trkpt>
      <trkpt lat="41.5491700" lon="-8.7898630">
        <ele>5.0</ele>
        <time>2021-05-17T09:45:13Z</time>
      </trkpt>
      <trkpt lat="41.5491840" lon="-8.7898720">
        <ele>5.0</ele>
        <time>2021-05-17T09:45:14Z</time>
      </trkpt>
      <trkpt lat="41.5491980" lon="-8.7898740">
        <ele>5.0</ele>
        <time>2021-05-17T09:45:15Z</time>
      </trkpt>
      <trkpt lat="41.5492160" lon="-8.7898820">
        <ele>5.0</ele>
        <time>2021-05-17T09:45:16Z</time>
      </trkpt>
      <trkpt lat="41.5492320" lon="-8.7898850">
        <ele>5.0</ele>
        <time>2021-05-17T09:45:17Z</time>
      </trkpt>
      <trkpt lat="41.5492530" lon="-8.7898890">
        <ele>4.9</ele>
        <time>2021-05-17T09:45:18Z</time>
      </trkpt>
      <trkpt lat="41.5492600" lon="-8.7898920">
        <ele>4.9</ele>
        <time>2021-05-17T09:45:19Z</time>
      </trkpt>
      <trkpt lat="41.5492680" lon="-8.7898950">
        <ele>4.9</ele>
        <time>2021-05-17T09:45:20Z</time>
      </trkpt>
      <trkpt lat="41.5492850" lon="-8.7899040">
        <ele>4.9</ele>
        <time>2021-05-17T09:45:21Z</time>
      </trkpt>
      <trkpt lat="41.5493020" lon="-8.7899080">
        <ele>4.9</ele>
        <time>2021-05-17T09:45:22Z</time>
      </trkpt>
      <trkpt lat="41.5493180" lon="-8.7899150">
        <ele>4.9</ele>
        <time>2021-05-17T09:45:23Z</time>
      </trkpt>
      <trkpt lat="41.5493370" lon="-8.7899220">
        <ele>4.9</ele>
        <time>2021-05-17T09:45:24Z</time>
      </trkpt>
      <trkpt lat="41.5493600" lon="-8.7899330">
        <ele>4.9</ele>
        <time>2021-05-17T09:45:25Z</time>
      </trkpt>
      <trkpt lat="41.5493700" lon="-8.7899380">
        <ele>4.9</ele>
        <time>2021-05-17T09:45:26Z</time>
      </trkpt>
      <trkpt lat="41.5493800" lon="-8.7899430">
        <ele>4.9</ele>
        <time>2021-05-17T09:45:27Z</time>
      </trkpt>
      <trkpt lat="41.5493920" lon="-8.7899490">
        <ele>4.9</ele>
        <time>2021-05-17T09:45:28Z</time>
      </trkpt>
      <trkpt lat="41.5494090" lon="-8.7899490">
        <ele>4.8</ele>
        <time>2021-05-17T09:45:29Z</time>
      </trkpt>
      <trkpt lat="41.5494190" lon="-8.7899590">
        <ele>4.8</ele>
        <time>2021-05-17T09:45:30Z</time>
      </trkpt>
      <trkpt lat="41.5494330" lon="-8.7899630">
        <ele>4.8</ele>
        <time>2021-05-17T09:45:31Z</time>
      </trkpt>
      <trkpt lat="41.5494410" lon="-8.7899670">
        <ele>4.8</ele>
        <time>2021-05-17T09:45:32Z</time>
      </trkpt>
      <trkpt lat="41.5494570" lon="-8.7899720">
        <ele>4.8</ele>
        <time>2021-05-17T09:45:33Z</time>
      </trkpt>
      <trkpt lat="41.5494700" lon="-8.7899760">
        <ele>4.8</ele>
        <time>2021-05-17T09:45:34Z</time>
      </trkpt>
      <trkpt lat="41.5494790" lon="-8.7899850">
        <ele>4.8</ele>
        <time>2021-05-17T09:45:35Z</time>
      </trkpt>
      <trkpt lat="41.5494970" lon="-8.7899910">
        <ele>4.8</ele>
        <time>2021-05-17T09:45:36Z</time>
      </trkpt>
      <trkpt lat="41.5495190" lon="-8.7899950">
        <ele>4.8</ele>
        <time>2021-05-17T09:45:37Z</time>
      </trkpt>
      <trkpt lat="41.5495290" lon="-8.7899980">
        <ele>4.8</ele>
        <time>2021-05-17T09:45:38Z</time>
      </trkpt>
      <trkpt lat="41.5495400" lon="-8.7900010">
        <ele>4.8</ele>
        <time>2021-05-17T09:45:39Z</time>
      </trkpt>
      <trkpt lat="41.5495440" lon="-8.7900040">
        <ele>4.8</ele>
        <time>2021-05-17T09:45:40Z</time>
      </trkpt>
      <trkpt lat="41.5495590" lon="-8.7900120">
        <ele>4.7</ele>
        <time>2021-05-17T09:45:41Z</time>
      </trkpt>
      <trkpt lat="41.5495730" lon="-8.7900180">
        <ele>4.7</ele>
        <time>2021-05-17T09:45:42Z</time>
      </trkpt>
      <trkpt lat="41.5495900" lon="-8.7900260">
        <ele>4.7</ele>
        <time>2021-05-17T09:45:43Z</time>
      </trkpt>
      <trkpt lat="41.5496080" lon="-8.7900310">
        <ele>4.7</ele>
        <time>2021-05-17T09:45:44Z</time>
      </trkpt>
      <trkpt lat="41.5496220" lon="-8.7900400">
        <ele>4.7</ele>
        <time>2021-05-17T09:45:45Z</time>
      </trkpt>
      <trkpt lat="41.5496370" lon="-8.7900390">
        <ele>4.7</ele>
        <time>2021-05-17T09:45:46Z</time>
      </trkpt>
      <trkpt lat="41.5496550" lon="-8.7900430">
        <ele>4.7</ele>
        <time>2021-05-17T09:45:47Z</time>
      </trkpt>
      <trkpt lat="41.5496680" lon="-8.7900510">
        <ele>4.7</ele>
        <time>2021-05-17T09:45:48Z</time>
      </trkpt>
      <trkpt lat="41.5496840" lon="-8.7900560">
        <ele>4.7</ele>
        <time>2021-05-17T09:45:49Z</time>
      </trkpt>
      <trkpt lat="41.5497000" lon="-8.7900660">
        <ele>4.7</ele>
        <time>2021-05-17T09:45:50Z</time>
      </trkpt>
      <trkpt lat="41.5497110" lon="-8.7900720">
        <ele>4.7</ele>
        <time>2021-05-17T09:45:51Z</time>
      </trkpt>
      <trkpt lat="41.5497290" lon="-8.7900750">
        <ele>4.7</ele>
        <time>2021-05-17T09:45:52Z</time>
      </trkpt>
      <trkpt lat="41.5497430" lon="-8.7900810">
        <ele>4.7</ele>
        <time>2021-05-17T09:45:53Z</time>
      </trkpt>
      <trkpt lat="41.5497590" lon="-8.7900830">
        <ele>4.7</ele>
        <time>2021-05-17T09:45:54Z</time>
      </trkpt>
      <trkpt lat="41.5497680" lon="-8.7900880">
        <ele>4.7</ele>
        <time>2021-05-17T09:45:55Z</time>
      </trkpt>
      <trkpt lat="41.5497760" lon="-8.7900950">
        <ele>4.7</ele>
        <time>2021-05-17T09:45:56Z</time>
      </trkpt>
      <trkpt lat="41.5497900" lon="-8.7901050">
        <ele>4.7</ele>
        <time>2021-05-17T09:45:57Z</time>
      </trkpt>
      <trkpt lat="41.5498130" lon="-8.7901110">
        <ele>4.6</ele>
        <time>2021-05-17T09:45:58Z</time>
      </trkpt>
      <trkpt lat="41.5498240" lon="-8.7901160">
        <ele>4.6</ele>
        <time>2021-05-17T09:45:59Z</time>
      </trkpt>
      <trkpt lat="41.5498340" lon="-8.7901200">
        <ele>4.6</ele>
        <time>2021-05-17T09:46:00Z</time>
      </trkpt>
      <trkpt lat="41.5498510" lon="-8.7901250">
        <ele>4.6</ele>
        <time>2021-05-17T09:46:01Z</time>
      </trkpt>
      <trkpt lat="41.5498620" lon="-8.7901310">
        <ele>4.6</ele>
        <time>2021-05-17T09:46:02Z</time>
      </trkpt>
      <trkpt lat="41.5498910" lon="-8.7901290">
        <ele>4.6</ele>
        <time>2021-05-17T09:46:03Z</time>
      </trkpt>
      <trkpt lat="41.5498990" lon="-8.7901270">
        <ele>4.6</ele>
        <time>2021-05-17T09:46:04Z</time>
      </trkpt>
      <trkpt lat="41.5499180" lon="-8.7901360">
        <ele>4.6</ele>
        <time>2021-05-17T09:46:05Z</time>
      </trkpt>
      <trkpt lat="41.5499280" lon="-8.7901400">
        <ele>4.6</ele>
        <time>2021-05-17T09:46:06Z</time>
      </trkpt>
      <trkpt lat="41.5499370" lon="-8.7901430">
        <ele>4.6</ele>
        <time>2021-05-17T09:46:07Z</time>
      </trkpt>
      <trkpt lat="41.5499490" lon="-8.7901510">
        <ele>4.6</ele>
        <time>2021-05-17T09:46:08Z</time>
      </trkpt>
      <trkpt lat="41.5499610" lon="-8.7901660">
        <ele>4.6</ele>
        <time>2021-05-17T09:46:09Z</time>
      </trkpt>
      <trkpt lat="41.5499760" lon="-8.7901750">
        <ele>4.6</ele>
        <time>2021-05-17T09:46:10Z</time>
      </trkpt>
      <trkpt lat="41.5499910" lon="-8.7901810">
        <ele>4.6</ele>
        <time>2021-05-17T09:46:11Z</time>
      </trkpt>
      <trkpt lat="41.5500120" lon="-8.7901870">
        <ele>4.6</ele>
        <time>2021-05-17T09:46:12Z</time>
      </trkpt>
      <trkpt lat="41.5500220" lon="-8.7901900">
        <ele>4.6</ele>
        <time>2021-05-17T09:46:13Z</time>
      </trkpt>
      <trkpt lat="41.5500310" lon="-8.7901940">
        <ele>4.6</ele>
        <time>2021-05-17T09:46:14Z</time>
      </trkpt>
      <trkpt lat="41.5500530" lon="-8.7902090">
        <ele>4.6</ele>
        <time>2021-05-17T09:46:15Z</time>
      </trkpt>
      <trkpt lat="41.5500610" lon="-8.7902120">
        <ele>4.6</ele>
        <time>2021-05-17T09:46:16Z</time>
      </trkpt>
      <trkpt lat="41.5500700" lon="-8.7902140">
        <ele>4.6</ele>
        <time>2021-05-17T09:46:17Z</time>
      </trkpt>
      <trkpt lat="41.5500770" lon="-8.7902250">
        <ele>4.6</ele>
        <time>2021-05-17T09:46:18Z</time>
      </trkpt>
      <trkpt lat="41.5500870" lon="-8.7902310">
        <ele>4.6</ele>
        <time>2021-05-17T09:46:19Z</time>
      </trkpt>
      <trkpt lat="41.5501010" lon="-8.7902400">
        <ele>4.6</ele>
        <time>2021-05-17T09:46:20Z</time>
      </trkpt>
      <trkpt lat="41.5501130" lon="-8.7902500">
        <ele>4.6</ele>
        <time>2021-05-17T09:46:21Z</time>
      </trkpt>
      <trkpt lat="41.5501200" lon="-8.7902630">
        <ele>4.6</ele>
        <time>2021-05-17T09:46:22Z</time>
      </trkpt>
      <trkpt lat="41.5501200" lon="-8.7902690">
        <ele>4.6</ele>
        <time>2021-05-17T09:46:23Z</time>
      </trkpt>
      <trkpt lat="41.5501280" lon="-8.7902920">
        <ele>4.6</ele>
        <time>2021-05-17T09:46:24Z</time>
      </trkpt>
      <trkpt lat="41.5501200" lon="-8.7903070">
        <ele>4.6</ele>
        <time>2021-05-17T09:46:25Z</time>
      </trkpt>
      <trkpt lat="41.5501200" lon="-8.7903290">
        <ele>4.6</ele>
        <time>2021-05-17T09:46:26Z</time>
      </trkpt>
      <trkpt lat="41.5501170" lon="-8.7903540">
        <ele>4.6</ele>
        <time>2021-05-17T09:46:27Z</time>
      </trkpt>
      <trkpt lat="41.5501200" lon="-8.7903790">
        <ele>4.7</ele>
        <time>2021-05-17T09:46:28Z</time>
      </trkpt>
      <trkpt lat="41.5501240" lon="-8.7903930">
        <ele>4.7</ele>
        <time>2021-05-17T09:46:29Z</time>
      </trkpt>
      <trkpt lat="41.5501270" lon="-8.7904060">
        <ele>4.7</ele>
        <time>2021-05-17T09:46:30Z</time>
      </trkpt>
      <trkpt lat="41.5501300" lon="-8.7904300">
        <ele>4.7</ele>
        <time>2021-05-17T09:46:31Z</time>
      </trkpt>
      <trkpt lat="41.5501350" lon="-8.7904470">
        <ele>4.7</ele>
        <time>2021-05-17T09:46:32Z</time>
      </trkpt>
      <trkpt lat="41.5501460" lon="-8.7904650">
        <ele>4.6</ele>
        <time>2021-05-17T09:46:33Z</time>
      </trkpt>
      <trkpt lat="41.5501620" lon="-8.7904740">
        <ele>4.6</ele>
        <time>2021-05-17T09:46:34Z</time>
      </trkpt>
      <trkpt lat="41.5501750" lon="-8.7904810">
        <ele>4.6</ele>
        <time>2021-05-17T09:46:35Z</time>
      </trkpt>
      <trkpt lat="41.5501880" lon="-8.7904840">
        <ele>4.6</ele>
        <time>2021-05-17T09:46:36Z</time>
      </trkpt>
      <trkpt lat="41.5502040" lon="-8.7904860">
        <ele>4.6</ele>
        <time>2021-05-17T09:46:37Z</time>
      </trkpt>
      <trkpt lat="41.5502180" lon="-8.7904840">
        <ele>4.6</ele>
        <time>2021-05-17T09:46:38Z</time>
      </trkpt>
      <trkpt lat="41.5502340" lon="-8.7904850">
        <ele>4.6</ele>
        <time>2021-05-17T09:46:39Z</time>
      </trkpt>
      <trkpt lat="41.5502520" lon="-8.7904910">
        <ele>4.5</ele>
        <time>2021-05-17T09:46:40Z</time>
      </trkpt>
      <trkpt lat="41.5502710" lon="-8.7904890">
        <ele>4.5</ele>
        <time>2021-05-17T09:46:41Z</time>
      </trkpt>
      <trkpt lat="41.5502850" lon="-8.7904940">
        <ele>4.5</ele>
        <time>2021-05-17T09:46:42Z</time>
      </trkpt>
      <trkpt lat="41.5502990" lon="-8.7904970">
        <ele>4.5</ele>
        <time>2021-05-17T09:46:43Z</time>
      </trkpt>
      <trkpt lat="41.5503130" lon="-8.7905010">
        <ele>4.5</ele>
        <time>2021-05-17T09:46:44Z</time>
      </trkpt>
      <trkpt lat="41.5503290" lon="-8.7905050">
        <ele>4.5</ele>
        <time>2021-05-17T09:46:45Z</time>
      </trkpt>
      <trkpt lat="41.5503440" lon="-8.7905070">
        <ele>4.5</ele>
        <time>2021-05-17T09:46:46Z</time>
      </trkpt>
      <trkpt lat="41.5503570" lon="-8.7905120">
        <ele>4.5</ele>
        <time>2021-05-17T09:46:47Z</time>
      </trkpt>
      <trkpt lat="41.5503750" lon="-8.7905150">
        <ele>4.5</ele>
        <time>2021-05-17T09:46:48Z</time>
      </trkpt>
      <trkpt lat="41.5503910" lon="-8.7905170">
        <ele>4.5</ele>
        <time>2021-05-17T09:46:49Z</time>
      </trkpt>
      <trkpt lat="41.5504080" lon="-8.7905210">
        <ele>4.5</ele>
        <time>2021-05-17T09:46:50Z</time>
      </trkpt>
      <trkpt lat="41.5504200" lon="-8.7905260">
        <ele>4.5</ele>
        <time>2021-05-17T09:46:51Z</time>
      </trkpt>
      <trkpt lat="41.5504360" lon="-8.7905290">
        <ele>4.5</ele>
        <time>2021-05-17T09:46:52Z</time>
      </trkpt>
      <trkpt lat="41.5504490" lon="-8.7905320">
        <ele>4.5</ele>
        <time>2021-05-17T09:46:53Z</time>
      </trkpt>
      <trkpt lat="41.5504650" lon="-8.7905400">
        <ele>4.5</ele>
        <time>2021-05-17T09:46:54Z</time>
      </trkpt>
      <trkpt lat="41.5504770" lon="-8.7905420">
        <ele>4.5</ele>
        <time>2021-05-17T09:46:55Z</time>
      </trkpt>
      <trkpt lat="41.5504930" lon="-8.7905420">
        <ele>4.5</ele>
        <time>2021-05-17T09:46:56Z</time>
      </trkpt>
      <trkpt lat="41.5505070" lon="-8.7905480">
        <ele>4.5</ele>
        <time>2021-05-17T09:46:57Z</time>
      </trkpt>
      <trkpt lat="41.5505210" lon="-8.7905530">
        <ele>4.5</ele>
        <time>2021-05-17T09:46:58Z</time>
      </trkpt>
      <trkpt lat="41.5505370" lon="-8.7905570">
        <ele>4.5</ele>
        <time>2021-05-17T09:46:59Z</time>
      </trkpt>
      <trkpt lat="41.5505530" lon="-8.7905570">
        <ele>4.5</ele>
        <time>2021-05-17T09:47:00Z</time>
      </trkpt>
      <trkpt lat="41.5505740" lon="-8.7905580">
        <ele>4.5</ele>
        <time>2021-05-17T09:47:01Z</time>
      </trkpt>
      <trkpt lat="41.5505830" lon="-8.7905600">
        <ele>4.5</ele>
        <time>2021-05-17T09:47:02Z</time>
      </trkpt>
      <trkpt lat="41.5505910" lon="-8.7905610">
        <ele>4.5</ele>
        <time>2021-05-17T09:47:03Z</time>
      </trkpt>
      <trkpt lat="41.5506070" lon="-8.7905650">
        <ele>4.5</ele>
        <time>2021-05-17T09:47:04Z</time>
      </trkpt>
      <trkpt lat="41.5506230" lon="-8.7905680">
        <ele>4.6</ele>
        <time>2021-05-17T09:47:05Z</time>
      </trkpt>
      <trkpt lat="41.5506380" lon="-8.7905710">
        <ele>4.6</ele>
        <time>2021-05-17T09:47:06Z</time>
      </trkpt>
      <trkpt lat="41.5506530" lon="-8.7905740">
        <ele>4.6</ele>
        <time>2021-05-17T09:47:07Z</time>
      </trkpt>
      <trkpt lat="41.5506680" lon="-8.7905830">
        <ele>4.6</ele>
        <time>2021-05-17T09:47:08Z</time>
      </trkpt>
      <trkpt lat="41.5506840" lon="-8.7905810">
        <ele>4.6</ele>
        <time>2021-05-17T09:47:09Z</time>
      </trkpt>
      <trkpt lat="41.5506980" lon="-8.7905900">
        <ele>4.6</ele>
        <time>2021-05-17T09:47:10Z</time>
      </trkpt>
      <trkpt lat="41.5507130" lon="-8.7905940">
        <ele>4.6</ele>
        <time>2021-05-17T09:47:11Z</time>
      </trkpt>
      <trkpt lat="41.5507330" lon="-8.7905990">
        <ele>4.7</ele>
        <time>2021-05-17T09:47:12Z</time>
      </trkpt>
      <trkpt lat="41.5507410" lon="-8.7906010">
        <ele>4.7</ele>
        <time>2021-05-17T09:47:13Z</time>
      </trkpt>
      <trkpt lat="41.5507500" lon="-8.7906030">
        <ele>4.7</ele>
        <time>2021-05-17T09:47:14Z</time>
      </trkpt>
      <trkpt lat="41.5507700" lon="-8.7906080">
        <ele>4.7</ele>
        <time>2021-05-17T09:47:15Z</time>
      </trkpt>
      <trkpt lat="41.5507780" lon="-8.7906100">
        <ele>4.7</ele>
        <time>2021-05-17T09:47:16Z</time>
      </trkpt>
      <trkpt lat="41.5507860" lon="-8.7906120">
        <ele>4.7</ele>
        <time>2021-05-17T09:47:17Z</time>
      </trkpt>
      <trkpt lat="41.5508010" lon="-8.7906270">
        <ele>4.8</ele>
        <time>2021-05-17T09:47:18Z</time>
      </trkpt>
      <trkpt lat="41.5508100" lon="-8.7906360">
        <ele>4.8</ele>
        <time>2021-05-17T09:47:19Z</time>
      </trkpt>
      <trkpt lat="41.5508330" lon="-8.7906400">
        <ele>4.8</ele>
        <time>2021-05-17T09:47:20Z</time>
      </trkpt>
      <trkpt lat="41.5508410" lon="-8.7906470">
        <ele>4.8</ele>
        <time>2021-05-17T09:47:21Z</time>
      </trkpt>
      <trkpt lat="41.5508490" lon="-8.7906530">
        <ele>4.9</ele>
        <time>2021-05-17T09:47:22Z</time>
      </trkpt>
      <trkpt lat="41.5508580" lon="-8.7906630">
        <ele>4.9</ele>
        <time>2021-05-17T09:47:23Z</time>
      </trkpt>
      <trkpt lat="41.5508670" lon="-8.7906790">
        <ele>4.9</ele>
        <time>2021-05-17T09:47:24Z</time>
      </trkpt>
      <trkpt lat="41.5508670" lon="-8.7907070">
        <ele>4.9</ele>
        <time>2021-05-17T09:47:25Z</time>
      </trkpt>
      <trkpt lat="41.5508710" lon="-8.7907260">
        <ele>5.0</ele>
        <time>2021-05-17T09:47:26Z</time>
      </trkpt>
      <trkpt lat="41.5508730" lon="-8.7907470">
        <ele>5.0</ele>
        <time>2021-05-17T09:47:27Z</time>
      </trkpt>
      <trkpt lat="41.5508770" lon="-8.7907640">
        <ele>5.0</ele>
        <time>2021-05-17T09:47:28Z</time>
      </trkpt>
      <trkpt lat="41.5508800" lon="-8.7907810">
        <ele>5.0</ele>
        <time>2021-05-17T09:47:29Z</time>
      </trkpt>
      <trkpt lat="41.5508820" lon="-8.7908040">
        <ele>5.0</ele>
        <time>2021-05-17T09:47:30Z</time>
      </trkpt>
      <trkpt lat="41.5508840" lon="-8.7908250">
        <ele>5.1</ele>
        <time>2021-05-17T09:47:31Z</time>
      </trkpt>
      <trkpt lat="41.5508880" lon="-8.7908410">
        <ele>5.1</ele>
        <time>2021-05-17T09:47:32Z</time>
      </trkpt>
      <trkpt lat="41.5508960" lon="-8.7908560">
        <ele>5.1</ele>
        <time>2021-05-17T09:47:33Z</time>
      </trkpt>
      <trkpt lat="41.5509040" lon="-8.7908730">
        <ele>5.1</ele>
        <time>2021-05-17T09:47:34Z</time>
      </trkpt>
      <trkpt lat="41.5509140" lon="-8.7908770">
        <ele>5.1</ele>
        <time>2021-05-17T09:47:35Z</time>
      </trkpt>
      <trkpt lat="41.5509270" lon="-8.7908800">
        <ele>5.1</ele>
        <time>2021-05-17T09:47:36Z</time>
      </trkpt>
      <trkpt lat="41.5509350" lon="-8.7908830">
        <ele>5.1</ele>
        <time>2021-05-17T09:47:37Z</time>
      </trkpt>
      <trkpt lat="41.5509520" lon="-8.7908850">
        <ele>5.1</ele>
        <time>2021-05-17T09:47:38Z</time>
      </trkpt>
      <trkpt lat="41.5509660" lon="-8.7908870">
        <ele>5.1</ele>
        <time>2021-05-17T09:47:39Z</time>
      </trkpt>
      <trkpt lat="41.5509850" lon="-8.7908940">
        <ele>5.1</ele>
        <time>2021-05-17T09:47:40Z</time>
      </trkpt>
      <trkpt lat="41.5509930" lon="-8.7908970">
        <ele>5.2</ele>
        <time>2021-05-17T09:47:41Z</time>
      </trkpt>
      <trkpt lat="41.5510020" lon="-8.7909010">
        <ele>5.2</ele>
        <time>2021-05-17T09:47:42Z</time>
      </trkpt>
      <trkpt lat="41.5510120" lon="-8.7909010">
        <ele>5.2</ele>
        <time>2021-05-17T09:47:43Z</time>
      </trkpt>
      <trkpt lat="41.5510260" lon="-8.7909040">
        <ele>5.2</ele>
        <time>2021-05-17T09:47:44Z</time>
      </trkpt>
      <trkpt lat="41.5510360" lon="-8.7909110">
        <ele>5.2</ele>
        <time>2021-05-17T09:47:45Z</time>
      </trkpt>
      <trkpt lat="41.5510550" lon="-8.7909200">
        <ele>5.2</ele>
        <time>2021-05-17T09:47:46Z</time>
      </trkpt>
      <trkpt lat="41.5510680" lon="-8.7909240">
        <ele>5.2</ele>
        <time>2021-05-17T09:47:47Z</time>
      </trkpt>
      <trkpt lat="41.5510850" lon="-8.7909280">
        <ele>5.2</ele>
        <time>2021-05-17T09:47:48Z</time>
      </trkpt>
      <trkpt lat="41.5510960" lon="-8.7909310">
        <ele>5.2</ele>
        <time>2021-05-17T09:47:49Z</time>
      </trkpt>
      <trkpt lat="41.5511090" lon="-8.7909380">
        <ele>5.2</ele>
        <time>2021-05-17T09:47:50Z</time>
      </trkpt>
      <trkpt lat="41.5511230" lon="-8.7909390">
        <ele>5.2</ele>
        <time>2021-05-17T09:47:51Z</time>
      </trkpt>
      <trkpt lat="41.5511380" lon="-8.7909460">
        <ele>5.2</ele>
        <time>2021-05-17T09:47:52Z</time>
      </trkpt>
      <trkpt lat="41.5511500" lon="-8.7909530">
        <ele>5.2</ele>
        <time>2021-05-17T09:47:53Z</time>
      </trkpt>
      <trkpt lat="41.5511640" lon="-8.7909590">
        <ele>5.3</ele>
        <time>2021-05-17T09:47:54Z</time>
      </trkpt>
      <trkpt lat="41.5511770" lon="-8.7909580">
        <ele>5.3</ele>
        <time>2021-05-17T09:47:55Z</time>
      </trkpt>
      <trkpt lat="41.5511970" lon="-8.7909670">
        <ele>5.3</ele>
        <time>2021-05-17T09:47:56Z</time>
      </trkpt>
      <trkpt lat="41.5512070" lon="-8.7909690">
        <ele>5.3</ele>
        <time>2021-05-17T09:47:57Z</time>
      </trkpt>
      <trkpt lat="41.5512160" lon="-8.7909710">
        <ele>5.3</ele>
        <time>2021-05-17T09:47:58Z</time>
      </trkpt>
      <trkpt lat="41.5512310" lon="-8.7909820">
        <ele>5.3</ele>
        <time>2021-05-17T09:47:59Z</time>
      </trkpt>
      <trkpt lat="41.5512450" lon="-8.7909850">
        <ele>5.3</ele>
        <time>2021-05-17T09:48:00Z</time>
      </trkpt>
      <trkpt lat="41.5512600" lon="-8.7909890">
        <ele>5.4</ele>
        <time>2021-05-17T09:48:01Z</time>
      </trkpt>
      <trkpt lat="41.5512750" lon="-8.7909980">
        <ele>5.4</ele>
        <time>2021-05-17T09:48:02Z</time>
      </trkpt>
      <trkpt lat="41.5512960" lon="-8.7909970">
        <ele>5.4</ele>
        <time>2021-05-17T09:48:03Z</time>
      </trkpt>
      <trkpt lat="41.5513060" lon="-8.7910010">
        <ele>5.4</ele>
        <time>2021-05-17T09:48:04Z</time>
      </trkpt>
      <trkpt lat="41.5513150" lon="-8.7910040">
        <ele>5.4</ele>
        <time>2021-05-17T09:48:05Z</time>
      </trkpt>
      <trkpt lat="41.5513320" lon="-8.7910140">
        <ele>5.4</ele>
        <time>2021-05-17T09:48:06Z</time>
      </trkpt>
      <trkpt lat="41.5513460" lon="-8.7910180">
        <ele>5.4</ele>
        <time>2021-05-17T09:48:07Z</time>
      </trkpt>
      <trkpt lat="41.5513600" lon="-8.7910240">
        <ele>5.5</ele>
        <time>2021-05-17T09:48:08Z</time>
      </trkpt>
      <trkpt lat="41.5513750" lon="-8.7910310">
        <ele>5.5</ele>
        <time>2021-05-17T09:48:09Z</time>
      </trkpt>
      <trkpt lat="41.5513920" lon="-8.7910380">
        <ele>5.5</ele>
        <time>2021-05-17T09:48:10Z</time>
      </trkpt>
      <trkpt lat="41.5514040" lon="-8.7910400">
        <ele>5.5</ele>
        <time>2021-05-17T09:48:11Z</time>
      </trkpt>
      <trkpt lat="41.5514190" lon="-8.7910460">
        <ele>5.5</ele>
        <time>2021-05-17T09:48:12Z</time>
      </trkpt>
      <trkpt lat="41.5514330" lon="-8.7910560">
        <ele>5.5</ele>
        <time>2021-05-17T09:48:13Z</time>
      </trkpt>
      <trkpt lat="41.5514480" lon="-8.7910580">
        <ele>5.6</ele>
        <time>2021-05-17T09:48:14Z</time>
      </trkpt>
      <trkpt lat="41.5514630" lon="-8.7910630">
        <ele>5.6</ele>
        <time>2021-05-17T09:48:15Z</time>
      </trkpt>
      <trkpt lat="41.5514780" lon="-8.7910660">
        <ele>5.6</ele>
        <time>2021-05-17T09:48:16Z</time>
      </trkpt>
      <trkpt lat="41.5514950" lon="-8.7910710">
        <ele>5.6</ele>
        <time>2021-05-17T09:48:17Z</time>
      </trkpt>
      <trkpt lat="41.5515090" lon="-8.7910770">
        <ele>5.6</ele>
        <time>2021-05-17T09:48:18Z</time>
      </trkpt>
      <trkpt lat="41.5515230" lon="-8.7910760">
        <ele>5.6</ele>
        <time>2021-05-17T09:48:19Z</time>
      </trkpt>
      <trkpt lat="41.5515370" lon="-8.7910850">
        <ele>5.6</ele>
        <time>2021-05-17T09:48:20Z</time>
      </trkpt>
      <trkpt lat="41.5515520" lon="-8.7910880">
        <ele>5.7</ele>
        <time>2021-05-17T09:48:21Z</time>
      </trkpt>
      <trkpt lat="41.5515660" lon="-8.7910920">
        <ele>5.7</ele>
        <time>2021-05-17T09:48:22Z</time>
      </trkpt>
      <trkpt lat="41.5515810" lon="-8.7910970">
        <ele>5.7</ele>
        <time>2021-05-17T09:48:23Z</time>
      </trkpt>
      <trkpt lat="41.5515930" lon="-8.7911040">
        <ele>5.7</ele>
        <time>2021-05-17T09:48:24Z</time>
      </trkpt>
      <trkpt lat="41.5516080" lon="-8.7911080">
        <ele>5.7</ele>
        <time>2021-05-17T09:48:25Z</time>
      </trkpt>
      <trkpt lat="41.5516280" lon="-8.7911210">
        <ele>5.7</ele>
        <time>2021-05-17T09:48:26Z</time>
      </trkpt>
      <trkpt lat="41.5516380" lon="-8.7911230">
        <ele>5.8</ele>
        <time>2021-05-17T09:48:27Z</time>
      </trkpt>
      <trkpt lat="41.5516470" lon="-8.7911260">
        <ele>5.8</ele>
        <time>2021-05-17T09:48:28Z</time>
      </trkpt>
      <trkpt lat="41.5516600" lon="-8.7911340">
        <ele>5.8</ele>
        <time>2021-05-17T09:48:29Z</time>
      </trkpt>
      <trkpt lat="41.5516760" lon="-8.7911440">
        <ele>5.8</ele>
        <time>2021-05-17T09:48:30Z</time>
      </trkpt>
      <trkpt lat="41.5516890" lon="-8.7911430">
        <ele>5.8</ele>
        <time>2021-05-17T09:48:31Z</time>
      </trkpt>
      <trkpt lat="41.5517050" lon="-8.7911510">
        <ele>5.8</ele>
        <time>2021-05-17T09:48:32Z</time>
      </trkpt>
      <trkpt lat="41.5517200" lon="-8.7911590">
        <ele>5.8</ele>
        <time>2021-05-17T09:48:33Z</time>
      </trkpt>
      <trkpt lat="41.5517350" lon="-8.7911600">
        <ele>5.9</ele>
        <time>2021-05-17T09:48:34Z</time>
      </trkpt>
      <trkpt lat="41.5517500" lon="-8.7911620">
        <ele>5.9</ele>
        <time>2021-05-17T09:48:35Z</time>
      </trkpt>
      <trkpt lat="41.5517620" lon="-8.7911640">
        <ele>5.9</ele>
        <time>2021-05-17T09:48:36Z</time>
      </trkpt>
      <trkpt lat="41.5517740" lon="-8.7911700">
        <ele>5.9</ele>
        <time>2021-05-17T09:48:37Z</time>
      </trkpt>
      <trkpt lat="41.5517880" lon="-8.7911820">
        <ele>5.9</ele>
        <time>2021-05-17T09:48:38Z</time>
      </trkpt>
      <trkpt lat="41.5518010" lon="-8.7911870">
        <ele>5.9</ele>
        <time>2021-05-17T09:48:39Z</time>
      </trkpt>
      <trkpt lat="41.5518160" lon="-8.7911930">
        <ele>6.0</ele>
        <time>2021-05-17T09:48:40Z</time>
      </trkpt>
      <trkpt lat="41.5518300" lon="-8.7911940">
        <ele>6.0</ele>
        <time>2021-05-17T09:48:41Z</time>
      </trkpt>
      <trkpt lat="41.5518440" lon="-8.7911980">
        <ele>6.0</ele>
        <time>2021-05-17T09:48:42Z</time>
      </trkpt>
      <trkpt lat="41.5518540" lon="-8.7912020">
        <ele>6.0</ele>
        <time>2021-05-17T09:48:43Z</time>
      </trkpt>
      <trkpt lat="41.5518710" lon="-8.7912060">
        <ele>6.0</ele>
        <time>2021-05-17T09:48:44Z</time>
      </trkpt>
      <trkpt lat="41.5518880" lon="-8.7912080">
        <ele>6.0</ele>
        <time>2021-05-17T09:48:45Z</time>
      </trkpt>
      <trkpt lat="41.5519010" lon="-8.7912160">
        <ele>6.0</ele>
        <time>2021-05-17T09:48:46Z</time>
      </trkpt>
      <trkpt lat="41.5519180" lon="-8.7912310">
        <ele>6.1</ele>
        <time>2021-05-17T09:48:47Z</time>
      </trkpt>
      <trkpt lat="41.5519280" lon="-8.7912260">
        <ele>6.1</ele>
        <time>2021-05-17T09:48:48Z</time>
      </trkpt>
      <trkpt lat="41.5519420" lon="-8.7912330">
        <ele>6.1</ele>
        <time>2021-05-17T09:48:49Z</time>
      </trkpt>
      <trkpt lat="41.5519540" lon="-8.7912350">
        <ele>6.1</ele>
        <time>2021-05-17T09:48:50Z</time>
      </trkpt>
      <trkpt lat="41.5519740" lon="-8.7912480">
        <ele>6.1</ele>
        <time>2021-05-17T09:48:51Z</time>
      </trkpt>
      <trkpt lat="41.5519810" lon="-8.7912530">
        <ele>6.1</ele>
        <time>2021-05-17T09:48:52Z</time>
      </trkpt>
      <trkpt lat="41.5519890" lon="-8.7912570">
        <ele>6.1</ele>
        <time>2021-05-17T09:48:53Z</time>
      </trkpt>
      <trkpt lat="41.5520050" lon="-8.7912590">
        <ele>6.2</ele>
        <time>2021-05-17T09:48:54Z</time>
      </trkpt>
      <trkpt lat="41.5520190" lon="-8.7912660">
        <ele>6.2</ele>
        <time>2021-05-17T09:48:55Z</time>
      </trkpt>
      <trkpt lat="41.5520330" lon="-8.7912700">
        <ele>6.2</ele>
        <time>2021-05-17T09:48:56Z</time>
      </trkpt>
      <trkpt lat="41.5520460" lon="-8.7912790">
        <ele>6.2</ele>
        <time>2021-05-17T09:48:57Z</time>
      </trkpt>
      <trkpt lat="41.5520600" lon="-8.7912830">
        <ele>6.2</ele>
        <time>2021-05-17T09:48:58Z</time>
      </trkpt>
      <trkpt lat="41.5520730" lon="-8.7912910">
        <ele>6.2</ele>
        <time>2021-05-17T09:48:59Z</time>
      </trkpt>
      <trkpt lat="41.5520870" lon="-8.7913030">
        <ele>6.3</ele>
        <time>2021-05-17T09:49:00Z</time>
      </trkpt>
      <trkpt lat="41.5521000" lon="-8.7913020">
        <ele>6.3</ele>
        <time>2021-05-17T09:49:01Z</time>
      </trkpt>
      <trkpt lat="41.5521200" lon="-8.7913110">
        <ele>6.3</ele>
        <time>2021-05-17T09:49:02Z</time>
      </trkpt>
      <trkpt lat="41.5521280" lon="-8.7913150">
        <ele>6.3</ele>
        <time>2021-05-17T09:49:03Z</time>
      </trkpt>
      <trkpt lat="41.5521370" lon="-8.7913190">
        <ele>6.3</ele>
        <time>2021-05-17T09:49:04Z</time>
      </trkpt>
      <trkpt lat="41.5521490" lon="-8.7913190">
        <ele>6.4</ele>
        <time>2021-05-17T09:49:05Z</time>
      </trkpt>
      <trkpt lat="41.5521600" lon="-8.7913230">
        <ele>6.4</ele>
        <time>2021-05-17T09:49:06Z</time>
      </trkpt>
      <trkpt lat="41.5521690" lon="-8.7913260">
        <ele>6.4</ele>
        <time>2021-05-17T09:49:07Z</time>
      </trkpt>
      <trkpt lat="41.5521830" lon="-8.7913340">
        <ele>6.4</ele>
        <time>2021-05-17T09:49:08Z</time>
      </trkpt>
      <trkpt lat="41.5521980" lon="-8.7913390">
        <ele>6.4</ele>
        <time>2021-05-17T09:49:09Z</time>
      </trkpt>
      <trkpt lat="41.5522180" lon="-8.7913490">
        <ele>6.5</ele>
        <time>2021-05-17T09:49:10Z</time>
      </trkpt>
      <trkpt lat="41.5522280" lon="-8.7913540">
        <ele>6.5</ele>
        <time>2021-05-17T09:49:11Z</time>
      </trkpt>
      <trkpt lat="41.5522390" lon="-8.7913600">
        <ele>6.5</ele>
        <time>2021-05-17T09:49:12Z</time>
      </trkpt>
      <trkpt lat="41.5522520" lon="-8.7913610">
        <ele>6.5</ele>
        <time>2021-05-17T09:49:13Z</time>
      </trkpt>
      <trkpt lat="41.5522680" lon="-8.7913630">
        <ele>6.5</ele>
        <time>2021-05-17T09:49:14Z</time>
      </trkpt>
      <trkpt lat="41.5522920" lon="-8.7913810">
        <ele>6.6</ele>
        <time>2021-05-17T09:49:15Z</time>
      </trkpt>
      <trkpt lat="41.5522990" lon="-8.7913890">
        <ele>6.6</ele>
        <time>2021-05-17T09:49:16Z</time>
      </trkpt>
      <trkpt lat="41.5523100" lon="-8.7913920">
        <ele>6.6</ele>
        <time>2021-05-17T09:49:17Z</time>
      </trkpt>
      <trkpt lat="41.5523260" lon="-8.7913960">
        <ele>6.6</ele>
        <time>2021-05-17T09:49:18Z</time>
      </trkpt>
      <trkpt lat="41.5523390" lon="-8.7913990">
        <ele>6.6</ele>
        <time>2021-05-17T09:49:19Z</time>
      </trkpt>
      <trkpt lat="41.5523510" lon="-8.7914030">
        <ele>6.7</ele>
        <time>2021-05-17T09:49:20Z</time>
      </trkpt>
      <trkpt lat="41.5523610" lon="-8.7914020">
        <ele>6.7</ele>
        <time>2021-05-17T09:49:21Z</time>
      </trkpt>
      <trkpt lat="41.5523770" lon="-8.7914080">
        <ele>6.7</ele>
        <time>2021-05-17T09:49:22Z</time>
      </trkpt>
      <trkpt lat="41.5523900" lon="-8.7914120">
        <ele>6.7</ele>
        <time>2021-05-17T09:49:23Z</time>
      </trkpt>
      <trkpt lat="41.5524060" lon="-8.7914180">
        <ele>6.7</ele>
        <time>2021-05-17T09:49:24Z</time>
      </trkpt>
      <trkpt lat="41.5524170" lon="-8.7914190">
        <ele>6.7</ele>
        <time>2021-05-17T09:49:25Z</time>
      </trkpt>
      <trkpt lat="41.5524290" lon="-8.7914200">
        <ele>6.7</ele>
        <time>2021-05-17T09:49:26Z</time>
      </trkpt>
      <trkpt lat="41.5524500" lon="-8.7914310">
        <ele>6.8</ele>
        <time>2021-05-17T09:49:27Z</time>
      </trkpt>
      <trkpt lat="41.5524590" lon="-8.7914350">
        <ele>6.8</ele>
        <time>2021-05-17T09:49:28Z</time>
      </trkpt>
      <trkpt lat="41.5524680" lon="-8.7914400">
        <ele>6.8</ele>
        <time>2021-05-17T09:49:29Z</time>
      </trkpt>
      <trkpt lat="41.5524890" lon="-8.7914430">
        <ele>6.8</ele>
        <time>2021-05-17T09:49:30Z</time>
      </trkpt>
      <trkpt lat="41.5524980" lon="-8.7914460">
        <ele>6.8</ele>
        <time>2021-05-17T09:49:31Z</time>
      </trkpt>
      <trkpt lat="41.5525070" lon="-8.7914500">
        <ele>6.8</ele>
        <time>2021-05-17T09:49:32Z</time>
      </trkpt>
      <trkpt lat="41.5525280" lon="-8.7914520">
        <ele>6.8</ele>
        <time>2021-05-17T09:49:33Z</time>
      </trkpt>
      <trkpt lat="41.5525390" lon="-8.7914560">
        <ele>6.8</ele>
        <time>2021-05-17T09:49:34Z</time>
      </trkpt>
      <trkpt lat="41.5525490" lon="-8.7914600">
        <ele>6.8</ele>
        <time>2021-05-17T09:49:35Z</time>
      </trkpt>
      <trkpt lat="41.5525690" lon="-8.7914670">
        <ele>6.8</ele>
        <time>2021-05-17T09:49:36Z</time>
      </trkpt>
      <trkpt lat="41.5525760" lon="-8.7914720">
        <ele>6.8</ele>
        <time>2021-05-17T09:49:37Z</time>
      </trkpt>
      <trkpt lat="41.5525830" lon="-8.7914770">
        <ele>6.8</ele>
        <time>2021-05-17T09:49:38Z</time>
      </trkpt>
      <trkpt lat="41.5525970" lon="-8.7914820">
        <ele>6.8</ele>
        <time>2021-05-17T09:49:39Z</time>
      </trkpt>
      <trkpt lat="41.5526130" lon="-8.7914910">
        <ele>6.8</ele>
        <time>2021-05-17T09:49:40Z</time>
      </trkpt>
      <trkpt lat="41.5526360" lon="-8.7914980">
        <ele>6.8</ele>
        <time>2021-05-17T09:49:41Z</time>
      </trkpt>
      <trkpt lat="41.5526460" lon="-8.7915020">
        <ele>6.8</ele>
        <time>2021-05-17T09:49:42Z</time>
      </trkpt>
      <trkpt lat="41.5526570" lon="-8.7915050">
        <ele>6.8</ele>
        <time>2021-05-17T09:49:43Z</time>
      </trkpt>
      <trkpt lat="41.5526690" lon="-8.7915110">
        <ele>6.8</ele>
        <time>2021-05-17T09:49:44Z</time>
      </trkpt>
      <trkpt lat="41.5526880" lon="-8.7915160">
        <ele>6.8</ele>
        <time>2021-05-17T09:49:45Z</time>
      </trkpt>
      <trkpt lat="41.5527050" lon="-8.7915240">
        <ele>6.8</ele>
        <time>2021-05-17T09:49:46Z</time>
      </trkpt>
      <trkpt lat="41.5527200" lon="-8.7915330">
        <ele>6.8</ele>
        <time>2021-05-17T09:49:47Z</time>
      </trkpt>
      <trkpt lat="41.5527360" lon="-8.7915300">
        <ele>6.8</ele>
        <time>2021-05-17T09:49:48Z</time>
      </trkpt>
      <trkpt lat="41.5527510" lon="-8.7915410">
        <ele>6.8</ele>
        <time>2021-05-17T09:49:49Z</time>
      </trkpt>
      <trkpt lat="41.5527660" lon="-8.7915530">
        <ele>6.7</ele>
        <time>2021-05-17T09:49:50Z</time>
      </trkpt>
      <trkpt lat="41.5527800" lon="-8.7915600">
        <ele>6.7</ele>
        <time>2021-05-17T09:49:51Z</time>
      </trkpt>
      <trkpt lat="41.5527920" lon="-8.7915700">
        <ele>6.7</ele>
        <time>2021-05-17T09:49:52Z</time>
      </trkpt>
      <trkpt lat="41.5528060" lon="-8.7915720">
        <ele>6.7</ele>
        <time>2021-05-17T09:49:53Z</time>
      </trkpt>
      <trkpt lat="41.5528280" lon="-8.7915790">
        <ele>6.7</ele>
        <time>2021-05-17T09:49:54Z</time>
      </trkpt>
      <trkpt lat="41.5528360" lon="-8.7915830">
        <ele>6.7</ele>
        <time>2021-05-17T09:49:55Z</time>
      </trkpt>
      <trkpt lat="41.5528440" lon="-8.7915870">
        <ele>6.7</ele>
        <time>2021-05-17T09:49:56Z</time>
      </trkpt>
      <trkpt lat="41.5528590" lon="-8.7916030">
        <ele>6.6</ele>
        <time>2021-05-17T09:49:57Z</time>
      </trkpt>
      <trkpt lat="41.5528680" lon="-8.7916090">
        <ele>6.6</ele>
        <time>2021-05-17T09:49:58Z</time>
      </trkpt>
      <trkpt lat="41.5528760" lon="-8.7916140">
        <ele>6.6</ele>
        <time>2021-05-17T09:49:59Z</time>
      </trkpt>
      <trkpt lat="41.5528920" lon="-8.7916380">
        <ele>6.6</ele>
        <time>2021-05-17T09:50:00Z</time>
      </trkpt>
      <trkpt lat="41.5528980" lon="-8.7916460">
        <ele>6.6</ele>
        <time>2021-05-17T09:50:01Z</time>
      </trkpt>
      <trkpt lat="41.5529050" lon="-8.7916550">
        <ele>6.6</ele>
        <time>2021-05-17T09:50:02Z</time>
      </trkpt>
      <trkpt lat="41.5529130" lon="-8.7916690">
        <ele>6.5</ele>
        <time>2021-05-17T09:50:03Z</time>
      </trkpt>
      <trkpt lat="41.5529210" lon="-8.7916910">
        <ele>6.5</ele>
        <time>2021-05-17T09:50:04Z</time>
      </trkpt>
      <trkpt lat="41.5529300" lon="-8.7916940">
        <ele>6.5</ele>
        <time>2021-05-17T09:50:05Z</time>
      </trkpt>
      <trkpt lat="41.5529340" lon="-8.7917100">
        <ele>6.5</ele>
        <time>2021-05-17T09:50:06Z</time>
      </trkpt>
      <trkpt lat="41.5529470" lon="-8.7917150">
        <ele>6.4</ele>
        <time>2021-05-17T09:50:07Z</time>
      </trkpt>
      <trkpt lat="41.5529620" lon="-8.7917360">
        <ele>6.4</ele>
        <time>2021-05-17T09:50:08Z</time>
      </trkpt>
      <trkpt lat="41.5529750" lon="-8.7917430">
        <ele>6.4</ele>
        <time>2021-05-17T09:50:09Z</time>
      </trkpt>
      <trkpt lat="41.5529860" lon="-8.7917600">
        <ele>6.4</ele>
        <time>2021-05-17T09:50:10Z</time>
      </trkpt>
      <trkpt lat="41.5530030" lon="-8.7917680">
        <ele>6.3</ele>
        <time>2021-05-17T09:50:11Z</time>
      </trkpt>
      <trkpt lat="41.5530170" lon="-8.7917800">
        <ele>6.3</ele>
        <time>2021-05-17T09:50:12Z</time>
      </trkpt>
      <trkpt lat="41.5530290" lon="-8.7917850">
        <ele>6.3</ele>
        <time>2021-05-17T09:50:13Z</time>
      </trkpt>
      <trkpt lat="41.5530460" lon="-8.7918010">
        <ele>6.3</ele>
        <time>2021-05-17T09:50:14Z</time>
      </trkpt>
      <trkpt lat="41.5530540" lon="-8.7918040">
        <ele>6.2</ele>
        <time>2021-05-17T09:50:15Z</time>
      </trkpt>
      <trkpt lat="41.5530620" lon="-8.7918070">
        <ele>6.2</ele>
        <time>2021-05-17T09:50:16Z</time>
      </trkpt>
      <trkpt lat="41.5530860" lon="-8.7918140">
        <ele>6.2</ele>
        <time>2021-05-17T09:50:17Z</time>
      </trkpt>
      <trkpt lat="41.5530970" lon="-8.7918160">
        <ele>6.2</ele>
        <time>2021-05-17T09:50:18Z</time>
      </trkpt>
      <trkpt lat="41.5531090" lon="-8.7918180">
        <ele>6.2</ele>
        <time>2021-05-17T09:50:19Z</time>
      </trkpt>
      <trkpt lat="41.5531200" lon="-8.7918200">
        <ele>6.1</ele>
        <time>2021-05-17T09:50:20Z</time>
      </trkpt>
      <trkpt lat="41.5531370" lon="-8.7918350">
        <ele>6.1</ele>
        <time>2021-05-17T09:50:21Z</time>
      </trkpt>
      <trkpt lat="41.5531480" lon="-8.7918420">
        <ele>6.1</ele>
        <time>2021-05-17T09:50:22Z</time>
      </trkpt>
      <trkpt lat="41.5531620" lon="-8.7918490">
        <ele>6.1</ele>
        <time>2021-05-17T09:50:23Z</time>
      </trkpt>
      <trkpt lat="41.5531790" lon="-8.7918550">
        <ele>6.1</ele>
        <time>2021-05-17T09:50:24Z</time>
      </trkpt>
      <trkpt lat="41.5531930" lon="-8.7918680">
        <ele>6.1</ele>
        <time>2021-05-17T09:50:25Z</time>
      </trkpt>
      <trkpt lat="41.5532030" lon="-8.7918740">
        <ele>6.0</ele>
        <time>2021-05-17T09:50:26Z</time>
      </trkpt>
      <trkpt lat="41.5532170" lon="-8.7918850">
        <ele>6.0</ele>
        <time>2021-05-17T09:50:27Z</time>
      </trkpt>
      <trkpt lat="41.5532270" lon="-8.7918960">
        <ele>6.0</ele>
        <time>2021-05-17T09:50:28Z</time>
      </trkpt>
      <trkpt lat="41.5532450" lon="-8.7919020">
        <ele>6.0</ele>
        <time>2021-05-17T09:50:29Z</time>
      </trkpt>
      <trkpt lat="41.5532560" lon="-8.7919080">
        <ele>6.0</ele>
        <time>2021-05-17T09:50:30Z</time>
      </trkpt>
      <trkpt lat="41.5532720" lon="-8.7919180">
        <ele>6.0</ele>
        <time>2021-05-17T09:50:31Z</time>
      </trkpt>
      <trkpt lat="41.5532840" lon="-8.7919280">
        <ele>6.0</ele>
        <time>2021-05-17T09:50:32Z</time>
      </trkpt>
      <trkpt lat="41.5532970" lon="-8.7919370">
        <ele>5.9</ele>
        <time>2021-05-17T09:50:33Z</time>
      </trkpt>
      <trkpt lat="41.5533030" lon="-8.7919590">
        <ele>5.9</ele>
        <time>2021-05-17T09:50:34Z</time>
      </trkpt>
      <trkpt lat="41.5533140" lon="-8.7919700">
        <ele>5.9</ele>
        <time>2021-05-17T09:50:35Z</time>
      </trkpt>
      <trkpt lat="41.5533280" lon="-8.7919760">
        <ele>5.9</ele>
        <time>2021-05-17T09:50:36Z</time>
      </trkpt>
      <trkpt lat="41.5533440" lon="-8.7919760">
        <ele>5.9</ele>
        <time>2021-05-17T09:50:37Z</time>
      </trkpt>
      <trkpt lat="41.5533580" lon="-8.7919790">
        <ele>5.9</ele>
        <time>2021-05-17T09:50:38Z</time>
      </trkpt>
      <trkpt lat="41.5533700" lon="-8.7919900">
        <ele>5.9</ele>
        <time>2021-05-17T09:50:39Z</time>
      </trkpt>
      <trkpt lat="41.5533810" lon="-8.7920010">
        <ele>5.9</ele>
        <time>2021-05-17T09:50:40Z</time>
      </trkpt>
      <trkpt lat="41.5533910" lon="-8.7920070">
        <ele>5.9</ele>
        <time>2021-05-17T09:50:41Z</time>
      </trkpt>
      <trkpt lat="41.5533990" lon="-8.7920030">
        <ele>5.9</ele>
        <time>2021-05-17T09:50:42Z</time>
      </trkpt>
      <trkpt lat="41.5534080" lon="-8.7920070">
        <ele>5.9</ele>
        <time>2021-05-17T09:50:43Z</time>
      </trkpt>
      <trkpt lat="41.5534100" lon="-8.7920080">
        <ele>5.9</ele>
        <time>2021-05-17T09:50:44Z</time>
      </trkpt>
      <trkpt lat="41.5534080" lon="-8.7920070">
        <ele>5.9</ele>
        <time>2021-05-17T09:50:45Z</time>
      </trkpt>
      <trkpt lat="41.5534060" lon="-8.7920010">
        <ele>5.9</ele>
        <time>2021-05-17T09:50:46Z</time>
      </trkpt>
      <trkpt lat="41.5534120" lon="-8.7919980">
        <ele>5.9</ele>
        <time>2021-05-17T09:50:47Z</time>
      </trkpt>
      <trkpt lat="41.5534130" lon="-8.7919980">
        <ele>5.9</ele>
        <time>2021-05-17T09:50:48Z</time>
      </trkpt>
      <trkpt lat="41.5534120" lon="-8.7920010">
        <ele>5.9</ele>
        <time>2021-05-17T09:50:49Z</time>
      </trkpt>
      <trkpt lat="41.5534100" lon="-8.7919990">
        <ele>5.9</ele>
        <time>2021-05-17T09:50:50Z</time>
      </trkpt>
      <trkpt lat="41.5534090" lon="-8.7920000">
        <ele>5.9</ele>
        <time>2021-05-17T09:50:51Z</time>
      </trkpt>
      <trkpt lat="41.5534090" lon="-8.7919990">
        <ele>5.9</ele>
        <time>2021-05-17T09:50:52Z</time>
      </trkpt>
      <trkpt lat="41.5534080" lon="-8.7919980">
        <ele>5.9</ele>
        <time>2021-05-17T09:50:53Z</time>
      </trkpt>
      <trkpt lat="41.5534080" lon="-8.7919980">
        <ele>5.9</ele>
        <time>2021-05-17T09:50:54Z</time>
      </trkpt>
      <trkpt lat="41.5534050" lon="-8.7919990">
        <ele>5.9</ele>
        <time>2021-05-17T09:50:55Z</time>
      </trkpt>
      <trkpt lat="41.5534050" lon="-8.7919970">
        <ele>5.9</ele>
        <time>2021-05-17T09:50:56Z</time>
      </trkpt>
      <trkpt lat="41.5534070" lon="-8.7919970">
        <ele>5.9</ele>
        <time>2021-05-17T09:50:57Z</time>
      </trkpt>
      <trkpt lat="41.5534090" lon="-8.7919960">
        <ele>5.9</ele>
        <time>2021-05-17T09:50:58Z</time>
      </trkpt>
      <trkpt lat="41.5534070" lon="-8.7919970">
        <ele>5.9</ele>
        <time>2021-05-17T09:50:59Z</time>
      </trkpt>
      <trkpt lat="41.5534070" lon="-8.7919970">
        <ele>5.9</ele>
        <time>2021-05-17T09:51:00Z</time>
      </trkpt>
      <trkpt lat="41.5534080" lon="-8.7919960">
        <ele>5.9</ele>
        <time>2021-05-17T09:51:01Z</time>
      </trkpt>
      <trkpt lat="41.5534080" lon="-8.7919980">
        <ele>5.9</ele>
        <time>2021-05-17T09:51:02Z</time>
      </trkpt>
      <trkpt lat="41.5534050" lon="-8.7920000">
        <ele>5.9</ele>
        <time>2021-05-17T09:51:03Z</time>
      </trkpt>
      <trkpt lat="41.5534030" lon="-8.7920030">
        <ele>5.9</ele>
        <time>2021-05-17T09:51:04Z</time>
      </trkpt>
      <trkpt lat="41.5534030" lon="-8.7920030">
        <ele>5.9</ele>
        <time>2021-05-17T09:51:05Z</time>
      </trkpt>
      <trkpt lat="41.5534030" lon="-8.7920030">
        <ele>5.9</ele>
        <time>2021-05-17T09:51:06Z</time>
      </trkpt>
      <trkpt lat="41.5534030" lon="-8.7920040">
        <ele>5.9</ele>
        <time>2021-05-17T09:51:07Z</time>
      </trkpt>
      <trkpt lat="41.5534020" lon="-8.7920040">
        <ele>5.9</ele>
        <time>2021-05-17T09:51:08Z</time>
      </trkpt>
      <trkpt lat="41.5534020" lon="-8.7920040">
        <ele>5.9</ele>
        <time>2021-05-17T09:51:09Z</time>
      </trkpt>
      <trkpt lat="41.5534000" lon="-8.7920060">
        <ele>5.9</ele>
        <time>2021-05-17T09:51:10Z</time>
      </trkpt>
      <trkpt lat="41.5534000" lon="-8.7920060">
        <ele>5.9</ele>
        <time>2021-05-17T09:51:11Z</time>
      </trkpt>
      <trkpt lat="41.5534020" lon="-8.7920080">
        <ele>5.9</ele>
        <time>2021-05-17T09:51:12Z</time>
      </trkpt>
      <trkpt lat="41.5534030" lon="-8.7920100">
        <ele>5.9</ele>
        <time>2021-05-17T09:51:13Z</time>
      </trkpt>
      <trkpt lat="41.5534030" lon="-8.7920070">
        <ele>5.9</ele>
        <time>2021-05-17T09:51:14Z</time>
      </trkpt>
      <trkpt lat="41.5534050" lon="-8.7920090">
        <ele>5.9</ele>
        <time>2021-05-17T09:51:15Z</time>
      </trkpt>
      <trkpt lat="41.5534050" lon="-8.7920090">
        <ele>5.9</ele>
        <time>2021-05-17T09:51:16Z</time>
      </trkpt>
      <trkpt lat="41.5534050" lon="-8.7920080">
        <ele>5.9</ele>
        <time>2021-05-17T09:51:17Z</time>
      </trkpt>
      <trkpt lat="41.5534060" lon="-8.7920080">
        <ele>5.9</ele>
        <time>2021-05-17T09:51:18Z</time>
      </trkpt>
      <trkpt lat="41.5534080" lon="-8.7920110">
        <ele>5.9</ele>
        <time>2021-05-17T09:51:19Z</time>
      </trkpt>
      <trkpt lat="41.5534080" lon="-8.7920110">
        <ele>5.9</ele>
        <time>2021-05-17T09:51:20Z</time>
      </trkpt>
      <trkpt lat="41.5534090" lon="-8.7920100">
        <ele>5.9</ele>
        <time>2021-05-17T09:51:21Z</time>
      </trkpt>
      <trkpt lat="41.5534090" lon="-8.7920100">
        <ele>5.9</ele>
        <time>2021-05-17T09:51:22Z</time>
      </trkpt>
      <trkpt lat="41.5534080" lon="-8.7920080">
        <ele>5.9</ele>
        <time>2021-05-17T09:51:23Z</time>
      </trkpt>
      <trkpt lat="41.5534090" lon="-8.7920080">
        <ele>5.9</ele>
        <time>2021-05-17T09:51:24Z</time>
      </trkpt>
      <trkpt lat="41.5534100" lon="-8.7920050">
        <ele>5.9</ele>
        <time>2021-05-17T09:51:25Z</time>
      </trkpt>
      <trkpt lat="41.5534100" lon="-8.7920050">
        <ele>5.9</ele>
        <time>2021-05-17T09:51:26Z</time>
      </trkpt>
      <trkpt lat="41.5534110" lon="-8.7920050">
        <ele>5.9</ele>
        <time>2021-05-17T09:51:27Z</time>
      </trkpt>
      <trkpt lat="41.5534110" lon="-8.7920060">
        <ele>5.9</ele>
        <time>2021-05-17T09:51:28Z</time>
      </trkpt>
      <trkpt lat="41.5534110" lon="-8.7920060">
        <ele>5.9</ele>
        <time>2021-05-17T09:51:29Z</time>
      </trkpt>
      <trkpt lat="41.5534120" lon="-8.7920060">
        <ele>5.9</ele>
        <time>2021-05-17T09:51:30Z</time>
      </trkpt>
      <trkpt lat="41.5534130" lon="-8.7920060">
        <ele>5.9</ele>
        <time>2021-05-17T09:51:31Z</time>
      </trkpt>
      <trkpt lat="41.5534120" lon="-8.7920070">
        <ele>5.9</ele>
        <time>2021-05-17T09:51:32Z</time>
      </trkpt>
      <trkpt lat="41.5534120" lon="-8.7920060">
        <ele>5.9</ele>
        <time>2021-05-17T09:51:33Z</time>
      </trkpt>
      <trkpt lat="41.5534120" lon="-8.7920060">
        <ele>5.9</ele>
        <time>2021-05-17T09:51:34Z</time>
      </trkpt>
      <trkpt lat="41.5534130" lon="-8.7920040">
        <ele>5.9</ele>
        <time>2021-05-17T09:51:35Z</time>
      </trkpt>
      <trkpt lat="41.5534130" lon="-8.7920030">
        <ele>5.9</ele>
        <time>2021-05-17T09:51:36Z</time>
      </trkpt>
      <trkpt lat="41.5534140" lon="-8.7920030">
        <ele>5.9</ele>
        <time>2021-05-17T09:51:37Z</time>
      </trkpt>
      <trkpt lat="41.5534130" lon="-8.7920000">
        <ele>5.8</ele>
        <time>2021-05-17T09:51:38Z</time>
      </trkpt>
      <trkpt lat="41.5534120" lon="-8.7919990">
        <ele>5.8</ele>
        <time>2021-05-17T09:51:39Z</time>
      </trkpt>
      <trkpt lat="41.5534130" lon="-8.7919990">
        <ele>5.8</ele>
        <time>2021-05-17T09:51:40Z</time>
      </trkpt>
      <trkpt lat="41.5534130" lon="-8.7920000">
        <ele>5.8</ele>
        <time>2021-05-17T09:51:41Z</time>
      </trkpt>
      <trkpt lat="41.5534190" lon="-8.7920060">
        <ele>5.8</ele>
        <time>2021-05-17T09:51:42Z</time>
      </trkpt>
      <trkpt lat="41.5534340" lon="-8.7920110">
        <ele>5.8</ele>
        <time>2021-05-17T09:51:43Z</time>
      </trkpt>
      <trkpt lat="41.5534620" lon="-8.7920230">
        <ele>5.8</ele>
        <time>2021-05-17T09:51:44Z</time>
      </trkpt>
      <trkpt lat="41.5534690" lon="-8.7920290">
        <ele>5.8</ele>
        <time>2021-05-17T09:51:45Z</time>
      </trkpt>
      <trkpt lat="41.5534740" lon="-8.7920300">
        <ele>5.8</ele>
        <time>2021-05-17T09:51:46Z</time>
      </trkpt>
      <trkpt lat="41.5534860" lon="-8.7920370">
        <ele>5.8</ele>
        <time>2021-05-17T09:51:47Z</time>
      </trkpt>
      <trkpt lat="41.5535010" lon="-8.7920430">
        <ele>5.8</ele>
        <time>2021-05-17T09:51:48Z</time>
      </trkpt>
      <trkpt lat="41.5535130" lon="-8.7920440">
        <ele>5.8</ele>
        <time>2021-05-17T09:51:49Z</time>
      </trkpt>
      <trkpt lat="41.5535240" lon="-8.7920460">
        <ele>5.8</ele>
        <time>2021-05-17T09:51:50Z</time>
      </trkpt>
      <trkpt lat="41.5535330" lon="-8.7920480">
        <ele>5.8</ele>
        <time>2021-05-17T09:51:51Z</time>
      </trkpt>
      <trkpt lat="41.5535500" lon="-8.7920570">
        <ele>5.8</ele>
        <time>2021-05-17T09:51:52Z</time>
      </trkpt>
      <trkpt lat="41.5535570" lon="-8.7920720">
        <ele>5.8</ele>
        <time>2021-05-17T09:51:53Z</time>
      </trkpt>
      <trkpt lat="41.5535780" lon="-8.7920760">
        <ele>5.8</ele>
        <time>2021-05-17T09:51:54Z</time>
      </trkpt>
      <trkpt lat="41.5535850" lon="-8.7920820">
        <ele>5.8</ele>
        <time>2021-05-17T09:51:55Z</time>
      </trkpt>
      <trkpt lat="41.5535920" lon="-8.7920890">
        <ele>5.8</ele>
        <time>2021-05-17T09:51:56Z</time>
      </trkpt>
      <trkpt lat="41.5536130" lon="-8.7921050">
        <ele>5.8</ele>
        <time>2021-05-17T09:51:57Z</time>
      </trkpt>
      <trkpt lat="41.5536220" lon="-8.7921100">
        <ele>5.8</ele>
        <time>2021-05-17T09:51:58Z</time>
      </trkpt>
      <trkpt lat="41.5536320" lon="-8.7921140">
        <ele>5.8</ele>
        <time>2021-05-17T09:51:59Z</time>
      </trkpt>
      <trkpt lat="41.5536440" lon="-8.7921210">
        <ele>5.8</ele>
        <time>2021-05-17T09:52:00Z</time>
      </trkpt>
      <trkpt lat="41.5536600" lon="-8.7921280">
        <ele>5.8</ele>
        <time>2021-05-17T09:52:01Z</time>
      </trkpt>
      <trkpt lat="41.5536730" lon="-8.7921310">
        <ele>5.8</ele>
        <time>2021-05-17T09:52:02Z</time>
      </trkpt>
      <trkpt lat="41.5536900" lon="-8.7921360">
        <ele>5.8</ele>
        <time>2021-05-17T09:52:03Z</time>
      </trkpt>
      <trkpt lat="41.5537010" lon="-8.7921380">
        <ele>5.8</ele>
        <time>2021-05-17T09:52:04Z</time>
      </trkpt>
      <trkpt lat="41.5537130" lon="-8.7921440">
        <ele>5.8</ele>
        <time>2021-05-17T09:52:05Z</time>
      </trkpt>
      <trkpt lat="41.5537240" lon="-8.7921360">
        <ele>5.8</ele>
        <time>2021-05-17T09:52:06Z</time>
      </trkpt>
      <trkpt lat="41.5537380" lon="-8.7921410">
        <ele>5.8</ele>
        <time>2021-05-17T09:52:07Z</time>
      </trkpt>
      <trkpt lat="41.5537550" lon="-8.7921480">
        <ele>5.8</ele>
        <time>2021-05-17T09:52:08Z</time>
      </trkpt>
      <trkpt lat="41.5537880" lon="-8.7921590">
        <ele>5.8</ele>
        <time>2021-05-17T09:52:09Z</time>
      </trkpt>
      <trkpt lat="41.5537960" lon="-8.7921630">
        <ele>5.8</ele>
        <time>2021-05-17T09:52:10Z</time>
      </trkpt>
      <trkpt lat="41.5538130" lon="-8.7921710">
        <ele>5.8</ele>
        <time>2021-05-17T09:52:11Z</time>
      </trkpt>
      <trkpt lat="41.5538310" lon="-8.7921710">
        <ele>5.8</ele>
        <time>2021-05-17T09:52:12Z</time>
      </trkpt>
      <trkpt lat="41.5538590" lon="-8.7921690">
        <ele>5.7</ele>
        <time>2021-05-17T09:52:13Z</time>
      </trkpt>
      <trkpt lat="41.5538690" lon="-8.7921670">
        <ele>5.7</ele>
        <time>2021-05-17T09:52:14Z</time>
      </trkpt>
      <trkpt lat="41.5538830" lon="-8.7921720">
        <ele>5.7</ele>
        <time>2021-05-17T09:52:15Z</time>
      </trkpt>
      <trkpt lat="41.5538990" lon="-8.7921710">
        <ele>5.7</ele>
        <time>2021-05-17T09:52:16Z</time>
      </trkpt>
      <trkpt lat="41.5539160" lon="-8.7921750">
        <ele>5.7</ele>
        <time>2021-05-17T09:52:17Z</time>
      </trkpt>
      <trkpt lat="41.5539310" lon="-8.7921820">
        <ele>5.7</ele>
        <time>2021-05-17T09:52:18Z</time>
      </trkpt>
      <trkpt lat="41.5539460" lon="-8.7921760">
        <ele>5.7</ele>
        <time>2021-05-17T09:52:19Z</time>
      </trkpt>
      <trkpt lat="41.5539640" lon="-8.7921800">
        <ele>5.7</ele>
        <time>2021-05-17T09:52:20Z</time>
      </trkpt>
      <trkpt lat="41.5539810" lon="-8.7921820">
        <ele>5.7</ele>
        <time>2021-05-17T09:52:21Z</time>
      </trkpt>
      <trkpt lat="41.5539900" lon="-8.7921880">
        <ele>5.7</ele>
        <time>2021-05-17T09:52:22Z</time>
      </trkpt>
      <trkpt lat="41.5539920" lon="-8.7921910">
        <ele>5.7</ele>
        <time>2021-05-17T09:52:23Z</time>
      </trkpt>
      <trkpt lat="41.5539960" lon="-8.7921880">
        <ele>5.7</ele>
        <time>2021-05-17T09:52:24Z</time>
      </trkpt>
      <trkpt lat="41.5540180" lon="-8.7921980">
        <ele>5.6</ele>
        <time>2021-05-17T09:52:25Z</time>
      </trkpt>
      <trkpt lat="41.5540360" lon="-8.7922070">
        <ele>5.6</ele>
        <time>2021-05-17T09:52:26Z</time>
      </trkpt>
      <trkpt lat="41.5540500" lon="-8.7922140">
        <ele>5.6</ele>
        <time>2021-05-17T09:52:27Z</time>
      </trkpt>
      <trkpt lat="41.5540610" lon="-8.7922280">
        <ele>5.6</ele>
        <time>2021-05-17T09:52:28Z</time>
      </trkpt>
      <trkpt lat="41.5540790" lon="-8.7922320">
        <ele>5.6</ele>
        <time>2021-05-17T09:52:29Z</time>
      </trkpt>
      <trkpt lat="41.5541010" lon="-8.7922380">
        <ele>5.6</ele>
        <time>2021-05-17T09:52:30Z</time>
      </trkpt>
      <trkpt lat="41.5541110" lon="-8.7922380">
        <ele>5.6</ele>
        <time>2021-05-17T09:52:31Z</time>
      </trkpt>
      <trkpt lat="41.5541200" lon="-8.7922380">
        <ele>5.6</ele>
        <time>2021-05-17T09:52:32Z</time>
      </trkpt>
      <trkpt lat="41.5541270" lon="-8.7922520">
        <ele>5.6</ele>
        <time>2021-05-17T09:52:33Z</time>
      </trkpt>
      <trkpt lat="41.5541460" lon="-8.7922590">
        <ele>5.6</ele>
        <time>2021-05-17T09:52:34Z</time>
      </trkpt>
      <trkpt lat="41.5541540" lon="-8.7922690">
        <ele>5.6</ele>
        <time>2021-05-17T09:52:35Z</time>
      </trkpt>
      <trkpt lat="41.5541670" lon="-8.7922750">
        <ele>5.6</ele>
        <time>2021-05-17T09:52:36Z</time>
      </trkpt>
      <trkpt lat="41.5541740" lon="-8.7922700">
        <ele>5.6</ele>
        <time>2021-05-17T09:52:37Z</time>
      </trkpt>
      <trkpt lat="41.5542050" lon="-8.7922700">
        <ele>5.6</ele>
        <time>2021-05-17T09:52:38Z</time>
      </trkpt>
      <trkpt lat="41.5542160" lon="-8.7922700">
        <ele>5.6</ele>
        <time>2021-05-17T09:52:39Z</time>
      </trkpt>
      <trkpt lat="41.5542440" lon="-8.7922600">
        <ele>5.6</ele>
        <time>2021-05-17T09:52:40Z</time>
      </trkpt>
      <trkpt lat="41.5542530" lon="-8.7922590">
        <ele>5.6</ele>
        <time>2021-05-17T09:52:41Z</time>
      </trkpt>
      <trkpt lat="41.5542650" lon="-8.7922650">
        <ele>5.6</ele>
        <time>2021-05-17T09:52:42Z</time>
      </trkpt>
      <trkpt lat="41.5542880" lon="-8.7922680">
        <ele>5.6</ele>
        <time>2021-05-17T09:52:43Z</time>
      </trkpt>
      <trkpt lat="41.5543050" lon="-8.7922560">
        <ele>5.6</ele>
        <time>2021-05-17T09:52:44Z</time>
      </trkpt>
      <trkpt lat="41.5543220" lon="-8.7922580">
        <ele>5.6</ele>
        <time>2021-05-17T09:52:45Z</time>
      </trkpt>
      <trkpt lat="41.5543550" lon="-8.7922550">
        <ele>5.5</ele>
        <time>2021-05-17T09:52:46Z</time>
      </trkpt>
      <trkpt lat="41.5543700" lon="-8.7922540">
        <ele>5.5</ele>
        <time>2021-05-17T09:52:47Z</time>
      </trkpt>
      <trkpt lat="41.5543880" lon="-8.7922570">
        <ele>5.5</ele>
        <time>2021-05-17T09:52:48Z</time>
      </trkpt>
      <trkpt lat="41.5544040" lon="-8.7922540">
        <ele>5.5</ele>
        <time>2021-05-17T09:52:49Z</time>
      </trkpt>
      <trkpt lat="41.5544170" lon="-8.7922480">
        <ele>5.5</ele>
        <time>2021-05-17T09:52:50Z</time>
      </trkpt>
      <trkpt lat="41.5544300" lon="-8.7922410">
        <ele>5.5</ele>
        <time>2021-05-17T09:52:51Z</time>
      </trkpt>
      <trkpt lat="41.5544430" lon="-8.7922330">
        <ele>5.5</ele>
        <time>2021-05-17T09:52:52Z</time>
      </trkpt>
      <trkpt lat="41.5544500" lon="-8.7922130">
        <ele>5.5</ele>
        <time>2021-05-17T09:52:53Z</time>
      </trkpt>
      <trkpt lat="41.5544520" lon="-8.7921980">
        <ele>5.5</ele>
        <time>2021-05-17T09:52:54Z</time>
      </trkpt>
      <trkpt lat="41.5544480" lon="-8.7921690">
        <ele>5.5</ele>
        <time>2021-05-17T09:52:55Z</time>
      </trkpt>
      <trkpt lat="41.5544480" lon="-8.7921560">
        <ele>5.5</ele>
        <time>2021-05-17T09:52:56Z</time>
      </trkpt>
      <trkpt lat="41.5544470" lon="-8.7921440">
        <ele>5.5</ele>
        <time>2021-05-17T09:52:57Z</time>
      </trkpt>
      <trkpt lat="41.5544490" lon="-8.7921320">
        <ele>5.5</ele>
        <time>2021-05-17T09:52:58Z</time>
      </trkpt>
      <trkpt lat="41.5544450" lon="-8.7921190">
        <ele>5.5</ele>
        <time>2021-05-17T09:52:59Z</time>
      </trkpt>
      <trkpt lat="41.5544510" lon="-8.7921070">
        <ele>5.5</ele>
        <time>2021-05-17T09:53:00Z</time>
      </trkpt>
      <trkpt lat="41.5544540" lon="-8.7920930">
        <ele>5.5</ele>
        <time>2021-05-17T09:53:01Z</time>
      </trkpt>
      <trkpt lat="41.5544610" lon="-8.7920870">
        <ele>5.4</ele>
        <time>2021-05-17T09:53:02Z</time>
      </trkpt>
      <trkpt lat="41.5544620" lon="-8.7920700">
        <ele>5.4</ele>
        <time>2021-05-17T09:53:03Z</time>
      </trkpt>
      <trkpt lat="41.5544690" lon="-8.7920410">
        <ele>5.4</ele>
        <time>2021-05-17T09:53:04Z</time>
      </trkpt>
      <trkpt lat="41.5544680" lon="-8.7920270">
        <ele>5.4</ele>
        <time>2021-05-17T09:53:05Z</time>
      </trkpt>
      <trkpt lat="41.5544680" lon="-8.7920120">
        <ele>5.4</ele>
        <time>2021-05-17T09:53:06Z</time>
      </trkpt>
      <trkpt lat="41.5544690" lon="-8.7919870">
        <ele>5.4</ele>
        <time>2021-05-17T09:53:07Z</time>
      </trkpt>
      <trkpt lat="41.5544710" lon="-8.7919710">
        <ele>5.4</ele>
        <time>2021-05-17T09:53:08Z</time>
      </trkpt>
      <trkpt lat="41.5544730" lon="-8.7919560">
        <ele>5.4</ele>
        <time>2021-05-17T09:53:09Z</time>
      </trkpt>
      <trkpt lat="41.5544730" lon="-8.7919170">
        <ele>5.4</ele>
        <time>2021-05-17T09:53:10Z</time>
      </trkpt>
      <trkpt lat="41.5544750" lon="-8.7919020">
        <ele>5.4</ele>
        <time>2021-05-17T09:53:12Z</time>
      </trkpt>
      <trkpt lat="41.5544780" lon="-8.7918880">
        <ele>5.4</ele>
        <time>2021-05-17T09:53:13Z</time>
      </trkpt>
      <trkpt lat="41.5544800" lon="-8.7918730">
        <ele>5.4</ele>
        <time>2021-05-17T09:53:14Z</time>
      </trkpt>
      <trkpt lat="41.5544830" lon="-8.7918580">
        <ele>5.4</ele>
        <time>2021-05-17T09:53:15Z</time>
      </trkpt>
      <trkpt lat="41.5544820" lon="-8.7918140">
        <ele>5.4</ele>
        <time>2021-05-17T09:53:16Z</time>
      </trkpt>
      <trkpt lat="41.5544800" lon="-8.7918010">
        <ele>5.4</ele>
        <time>2021-05-17T09:53:17Z</time>
      </trkpt>
      <trkpt lat="41.5544800" lon="-8.7917750">
        <ele>5.4</ele>
        <time>2021-05-17T09:53:18Z</time>
      </trkpt>
      <trkpt lat="41.5544830" lon="-8.7917570">
        <ele>5.4</ele>
        <time>2021-05-17T09:53:19Z</time>
      </trkpt>
      <trkpt lat="41.5544850" lon="-8.7917390">
        <ele>5.4</ele>
        <time>2021-05-17T09:53:20Z</time>
      </trkpt>
      <trkpt lat="41.5544820" lon="-8.7917160">
        <ele>5.4</ele>
        <time>2021-05-17T09:53:21Z</time>
      </trkpt>
      <trkpt lat="41.5544830" lon="-8.7916860">
        <ele>5.4</ele>
        <time>2021-05-17T09:53:22Z</time>
      </trkpt>
      <trkpt lat="41.5544830" lon="-8.7916740">
        <ele>5.4</ele>
        <time>2021-05-17T09:53:23Z</time>
      </trkpt>
      <trkpt lat="41.5544830" lon="-8.7916610">
        <ele>5.4</ele>
        <time>2021-05-17T09:53:24Z</time>
      </trkpt>
      <trkpt lat="41.5544870" lon="-8.7916260">
        <ele>5.5</ele>
        <time>2021-05-17T09:53:25Z</time>
      </trkpt>
      <trkpt lat="41.5544920" lon="-8.7916130">
        <ele>5.5</ele>
        <time>2021-05-17T09:53:26Z</time>
      </trkpt>
      <trkpt lat="41.5544920" lon="-8.7915870">
        <ele>5.5</ele>
        <time>2021-05-17T09:53:27Z</time>
      </trkpt>
      <trkpt lat="41.5544980" lon="-8.7915670">
        <ele>5.5</ele>
        <time>2021-05-17T09:53:28Z</time>
      </trkpt>
      <trkpt lat="41.5544980" lon="-8.7915460">
        <ele>5.5</ele>
        <time>2021-05-17T09:53:29Z</time>
      </trkpt>
      <trkpt lat="41.5545040" lon="-8.7915250">
        <ele>5.5</ele>
        <time>2021-05-17T09:53:30Z</time>
      </trkpt>
      <trkpt lat="41.5545060" lon="-8.7915060">
        <ele>5.5</ele>
        <time>2021-05-17T09:53:31Z</time>
      </trkpt>
      <trkpt lat="41.5545100" lon="-8.7914910">
        <ele>5.5</ele>
        <time>2021-05-17T09:53:32Z</time>
      </trkpt>
      <trkpt lat="41.5545040" lon="-8.7914820">
        <ele>5.5</ele>
        <time>2021-05-17T09:53:33Z</time>
      </trkpt>
      <trkpt lat="41.5545050" lon="-8.7914640">
        <ele>5.5</ele>
        <time>2021-05-17T09:53:34Z</time>
      </trkpt>
      <trkpt lat="41.5545100" lon="-8.7914500">
        <ele>5.5</ele>
        <time>2021-05-17T09:53:35Z</time>
      </trkpt>
      <trkpt lat="41.5545130" lon="-8.7914370">
        <ele>5.5</ele>
        <time>2021-05-17T09:53:36Z</time>
      </trkpt>
      <trkpt lat="41.5545200" lon="-8.7914100">
        <ele>5.5</ele>
        <time>2021-05-17T09:53:37Z</time>
      </trkpt>
      <trkpt lat="41.5545290" lon="-8.7913950">
        <ele>5.5</ele>
        <time>2021-05-17T09:53:38Z</time>
      </trkpt>
      <trkpt lat="41.5545300" lon="-8.7913800">
        <ele>5.5</ele>
        <time>2021-05-17T09:53:39Z</time>
      </trkpt>
      <trkpt lat="41.5545310" lon="-8.7913570">
        <ele>5.5</ele>
        <time>2021-05-17T09:53:40Z</time>
      </trkpt>
      <trkpt lat="41.5545300" lon="-8.7913430">
        <ele>5.5</ele>
        <time>2021-05-17T09:53:41Z</time>
      </trkpt>
      <trkpt lat="41.5545380" lon="-8.7913210">
        <ele>5.5</ele>
        <time>2021-05-17T09:53:42Z</time>
      </trkpt>
      <trkpt lat="41.5545450" lon="-8.7913010">
        <ele>5.5</ele>
        <time>2021-05-17T09:53:43Z</time>
      </trkpt>
      <trkpt lat="41.5545490" lon="-8.7912830">
        <ele>5.6</ele>
        <time>2021-05-17T09:53:44Z</time>
      </trkpt>
      <trkpt lat="41.5545480" lon="-8.7912680">
        <ele>5.6</ele>
        <time>2021-05-17T09:53:45Z</time>
      </trkpt>
      <trkpt lat="41.5545400" lon="-8.7912490">
        <ele>5.6</ele>
        <time>2021-05-17T09:53:46Z</time>
      </trkpt>
      <trkpt lat="41.5545440" lon="-8.7912310">
        <ele>5.6</ele>
        <time>2021-05-17T09:53:47Z</time>
      </trkpt>
      <trkpt lat="41.5545500" lon="-8.7912130">
        <ele>5.6</ele>
        <time>2021-05-17T09:53:48Z</time>
      </trkpt>
      <trkpt lat="41.5545600" lon="-8.7911900">
        <ele>5.6</ele>
        <time>2021-05-17T09:53:49Z</time>
      </trkpt>
      <trkpt lat="41.5545620" lon="-8.7911760">
        <ele>5.6</ele>
        <time>2021-05-17T09:53:50Z</time>
      </trkpt>
      <trkpt lat="41.5545650" lon="-8.7911610">
        <ele>5.6</ele>
        <time>2021-05-17T09:53:51Z</time>
      </trkpt>
      <trkpt lat="41.5545660" lon="-8.7911420">
        <ele>5.6</ele>
        <time>2021-05-17T09:53:52Z</time>
      </trkpt>
      <trkpt lat="41.5545660" lon="-8.7911270">
        <ele>5.6</ele>
        <time>2021-05-17T09:53:53Z</time>
      </trkpt>
      <trkpt lat="41.5545660" lon="-8.7911160">
        <ele>5.7</ele>
        <time>2021-05-17T09:53:54Z</time>
      </trkpt>
      <trkpt lat="41.5545730" lon="-8.7910930">
        <ele>5.7</ele>
        <time>2021-05-17T09:53:55Z</time>
      </trkpt>
      <trkpt lat="41.5545770" lon="-8.7910760">
        <ele>5.7</ele>
        <time>2021-05-17T09:53:56Z</time>
      </trkpt>
      <trkpt lat="41.5545820" lon="-8.7910510">
        <ele>5.7</ele>
        <time>2021-05-17T09:53:57Z</time>
      </trkpt>
      <trkpt lat="41.5545910" lon="-8.7910320">
        <ele>5.7</ele>
        <time>2021-05-17T09:53:58Z</time>
      </trkpt>
      <trkpt lat="41.5545920" lon="-8.7910230">
        <ele>5.7</ele>
        <time>2021-05-17T09:53:59Z</time>
      </trkpt>
      <trkpt lat="41.5545950" lon="-8.7910010">
        <ele>5.7</ele>
        <time>2021-05-17T09:54:00Z</time>
      </trkpt>
      <trkpt lat="41.5545990" lon="-8.7909860">
        <ele>5.7</ele>
        <time>2021-05-17T09:54:01Z</time>
      </trkpt>
      <trkpt lat="41.5546060" lon="-8.7909590">
        <ele>5.8</ele>
        <time>2021-05-17T09:54:02Z</time>
      </trkpt>
      <trkpt lat="41.5546070" lon="-8.7909450">
        <ele>5.8</ele>
        <time>2021-05-17T09:54:03Z</time>
      </trkpt>
      <trkpt lat="41.5546090" lon="-8.7909310">
        <ele>5.8</ele>
        <time>2021-05-17T09:54:04Z</time>
      </trkpt>
      <trkpt lat="41.5546100" lon="-8.7909170">
        <ele>5.8</ele>
        <time>2021-05-17T09:54:05Z</time>
      </trkpt>
      <trkpt lat="41.5546110" lon="-8.7909010">
        <ele>5.8</ele>
        <time>2021-05-17T09:54:06Z</time>
      </trkpt>
      <trkpt lat="41.5546140" lon="-8.7908830">
        <ele>5.8</ele>
        <time>2021-05-17T09:54:07Z</time>
      </trkpt>
      <trkpt lat="41.5546210" lon="-8.7908670">
        <ele>5.8</ele>
        <time>2021-05-17T09:54:08Z</time>
      </trkpt>
      <trkpt lat="41.5546200" lon="-8.7908450">
        <ele>5.8</ele>
        <time>2021-05-17T09:54:09Z</time>
      </trkpt>
      <trkpt lat="41.5546240" lon="-8.7908310">
        <ele>5.9</ele>
        <time>2021-05-17T09:54:10Z</time>
      </trkpt>
      <trkpt lat="41.5546270" lon="-8.7908090">
        <ele>5.9</ele>
        <time>2021-05-17T09:54:11Z</time>
      </trkpt>
      <trkpt lat="41.5546330" lon="-8.7907940">
        <ele>5.9</ele>
        <time>2021-05-17T09:54:12Z</time>
      </trkpt>
      <trkpt lat="41.5546370" lon="-8.7907840">
        <ele>5.9</ele>
        <time>2021-05-17T09:54:13Z</time>
      </trkpt>
      <trkpt lat="41.5546390" lon="-8.7907730">
        <ele>5.9</ele>
        <time>2021-05-17T09:54:14Z</time>
      </trkpt>
      <trkpt lat="41.5546360" lon="-8.7907610">
        <ele>5.9</ele>
        <time>2021-05-17T09:54:15Z</time>
      </trkpt>
      <trkpt lat="41.5546360" lon="-8.7907350">
        <ele>5.9</ele>
        <time>2021-05-17T09:54:16Z</time>
      </trkpt>
      <trkpt lat="41.5546230" lon="-8.7907200">
        <ele>6.0</ele>
        <time>2021-05-17T09:54:17Z</time>
      </trkpt>
      <trkpt lat="41.5546270" lon="-8.7907000">
        <ele>6.0</ele>
        <time>2021-05-17T09:54:18Z</time>
      </trkpt>
      <trkpt lat="41.5546350" lon="-8.7906750">
        <ele>6.0</ele>
        <time>2021-05-17T09:54:19Z</time>
      </trkpt>
      <trkpt lat="41.5546390" lon="-8.7906630">
        <ele>6.0</ele>
        <time>2021-05-17T09:54:20Z</time>
      </trkpt>
      <trkpt lat="41.5546420" lon="-8.7906510">
        <ele>6.0</ele>
        <time>2021-05-17T09:54:21Z</time>
      </trkpt>
      <trkpt lat="41.5546480" lon="-8.7906140">
        <ele>6.1</ele>
        <time>2021-05-17T09:54:22Z</time>
      </trkpt>
      <trkpt lat="41.5546540" lon="-8.7906020">
        <ele>6.1</ele>
        <time>2021-05-17T09:54:23Z</time>
      </trkpt>
      <trkpt lat="41.5546660" lon="-8.7905760">
        <ele>6.1</ele>
        <time>2021-05-17T09:54:24Z</time>
      </trkpt>
      <trkpt lat="41.5546690" lon="-8.7905650">
        <ele>6.1</ele>
        <time>2021-05-17T09:54:25Z</time>
      </trkpt>
      <trkpt lat="41.5546730" lon="-8.7905550">
        <ele>6.1</ele>
        <time>2021-05-17T09:54:26Z</time>
      </trkpt>
      <trkpt lat="41.5546810" lon="-8.7905330">
        <ele>6.1</ele>
        <time>2021-05-17T09:54:27Z</time>
      </trkpt>
      <trkpt lat="41.5546860" lon="-8.7905190">
        <ele>6.1</ele>
        <time>2021-05-17T09:54:28Z</time>
      </trkpt>
      <trkpt lat="41.5546920" lon="-8.7905060">
        <ele>6.1</ele>
        <time>2021-05-17T09:54:29Z</time>
      </trkpt>
      <trkpt lat="41.5546940" lon="-8.7904770">
        <ele>6.2</ele>
        <time>2021-05-17T09:54:30Z</time>
      </trkpt>
      <trkpt lat="41.5546940" lon="-8.7904670">
        <ele>6.2</ele>
        <time>2021-05-17T09:54:31Z</time>
      </trkpt>
      <trkpt lat="41.5546960" lon="-8.7904430">
        <ele>6.2</ele>
        <time>2021-05-17T09:54:32Z</time>
      </trkpt>
      <trkpt lat="41.5546950" lon="-8.7904290">
        <ele>6.2</ele>
        <time>2021-05-17T09:54:33Z</time>
      </trkpt>
      <trkpt lat="41.5546960" lon="-8.7904090">
        <ele>6.2</ele>
        <time>2021-05-17T09:54:34Z</time>
      </trkpt>
      <trkpt lat="41.5546980" lon="-8.7903930">
        <ele>6.2</ele>
        <time>2021-05-17T09:54:35Z</time>
      </trkpt>
      <trkpt lat="41.5546940" lon="-8.7903670">
        <ele>6.3</ele>
        <time>2021-05-17T09:54:36Z</time>
      </trkpt>
      <trkpt lat="41.5547010" lon="-8.7903570">
        <ele>6.3</ele>
        <time>2021-05-17T09:54:37Z</time>
      </trkpt>
      <trkpt lat="41.5547000" lon="-8.7903190">
        <ele>6.3</ele>
        <time>2021-05-17T09:54:38Z</time>
      </trkpt>
      <trkpt lat="41.5547020" lon="-8.7903070">
        <ele>6.3</ele>
        <time>2021-05-17T09:54:39Z</time>
      </trkpt>
      <trkpt lat="41.5547040" lon="-8.7902950">
        <ele>6.3</ele>
        <time>2021-05-17T09:54:40Z</time>
      </trkpt>
      <trkpt lat="41.5547050" lon="-8.7902770">
        <ele>6.3</ele>
        <time>2021-05-17T09:54:41Z</time>
      </trkpt>
      <trkpt lat="41.5547070" lon="-8.7902720">
        <ele>6.3</ele>
        <time>2021-05-17T09:54:42Z</time>
      </trkpt>
      <trkpt lat="41.5547110" lon="-8.7902520">
        <ele>6.3</ele>
        <time>2021-05-17T09:54:43Z</time>
      </trkpt>
      <trkpt lat="41.5547160" lon="-8.7902250">
        <ele>6.4</ele>
        <time>2021-05-17T09:54:44Z</time>
      </trkpt>
      <trkpt lat="41.5547220" lon="-8.7902090">
        <ele>6.4</ele>
        <time>2021-05-17T09:54:45Z</time>
      </trkpt>
      <trkpt lat="41.5547370" lon="-8.7901760">
        <ele>6.4</ele>
        <time>2021-05-17T09:54:46Z</time>
      </trkpt>
      <trkpt lat="41.5547410" lon="-8.7901670">
        <ele>6.4</ele>
        <time>2021-05-17T09:54:47Z</time>
      </trkpt>
      <trkpt lat="41.5547610" lon="-8.7901350">
        <ele>6.4</ele>
        <time>2021-05-17T09:54:48Z</time>
      </trkpt>
      <trkpt lat="41.5547650" lon="-8.7901240">
        <ele>6.5</ele>
        <time>2021-05-17T09:54:49Z</time>
      </trkpt>
      <trkpt lat="41.5547740" lon="-8.7900930">
        <ele>6.5</ele>
        <time>2021-05-17T09:54:50Z</time>
      </trkpt>
      <trkpt lat="41.5547750" lon="-8.7900790">
        <ele>6.5</ele>
        <time>2021-05-17T09:54:51Z</time>
      </trkpt>
      <trkpt lat="41.5547770" lon="-8.7900660">
        <ele>6.5</ele>
        <time>2021-05-17T09:54:52Z</time>
      </trkpt>
      <trkpt lat="41.5547770" lon="-8.7900410">
        <ele>6.5</ele>
        <time>2021-05-17T09:54:53Z</time>
      </trkpt>
      <trkpt lat="41.5547860" lon="-8.7900260">
        <ele>6.5</ele>
        <time>2021-05-17T09:54:54Z</time>
      </trkpt>
      <trkpt lat="41.5547910" lon="-8.7899960">
        <ele>6.5</ele>
        <time>2021-05-17T09:54:55Z</time>
      </trkpt>
      <trkpt lat="41.5547890" lon="-8.7899820">
        <ele>6.5</ele>
        <time>2021-05-17T09:54:56Z</time>
      </trkpt>
      <trkpt lat="41.5547880" lon="-8.7899680">
        <ele>6.5</ele>
        <time>2021-05-17T09:54:57Z</time>
      </trkpt>
      <trkpt lat="41.5547950" lon="-8.7899320">
        <ele>6.6</ele>
        <time>2021-05-17T09:54:58Z</time>
      </trkpt>
      <trkpt lat="41.5547960" lon="-8.7899190">
        <ele>6.6</ele>
        <time>2021-05-17T09:54:59Z</time>
      </trkpt>
      <trkpt lat="41.5548000" lon="-8.7898830">
        <ele>6.6</ele>
        <time>2021-05-17T09:55:00Z</time>
      </trkpt>
      <trkpt lat="41.5548010" lon="-8.7898690">
        <ele>6.6</ele>
        <time>2021-05-17T09:55:01Z</time>
      </trkpt>
      <trkpt lat="41.5548070" lon="-8.7898470">
        <ele>6.6</ele>
        <time>2021-05-17T09:55:02Z</time>
      </trkpt>
      <trkpt lat="41.5548070" lon="-8.7898220">
        <ele>6.6</ele>
        <time>2021-05-17T09:55:03Z</time>
      </trkpt>
      <trkpt lat="41.5548090" lon="-8.7898000">
        <ele>6.6</ele>
        <time>2021-05-17T09:55:04Z</time>
      </trkpt>
      <trkpt lat="41.5548120" lon="-8.7897800">
        <ele>6.6</ele>
        <time>2021-05-17T09:55:05Z</time>
      </trkpt>
      <trkpt lat="41.5548170" lon="-8.7897600">
        <ele>6.6</ele>
        <time>2021-05-17T09:55:06Z</time>
      </trkpt>
      <trkpt lat="41.5548170" lon="-8.7897360">
        <ele>6.7</ele>
        <time>2021-05-17T09:55:07Z</time>
      </trkpt>
      <trkpt lat="41.5548250" lon="-8.7897190">
        <ele>6.7</ele>
        <time>2021-05-17T09:55:08Z</time>
      </trkpt>
      <trkpt lat="41.5548250" lon="-8.7896970">
        <ele>6.7</ele>
        <time>2021-05-17T09:55:09Z</time>
      </trkpt>
      <trkpt lat="41.5548350" lon="-8.7896810">
        <ele>6.7</ele>
        <time>2021-05-17T09:55:10Z</time>
      </trkpt>
      <trkpt lat="41.5548390" lon="-8.7896600">
        <ele>6.7</ele>
        <time>2021-05-17T09:55:11Z</time>
      </trkpt>
      <trkpt lat="41.5548460" lon="-8.7896390">
        <ele>6.7</ele>
        <time>2021-05-17T09:55:12Z</time>
      </trkpt>
      <trkpt lat="41.5548460" lon="-8.7896170">
        <ele>6.7</ele>
        <time>2021-05-17T09:55:13Z</time>
      </trkpt>
      <trkpt lat="41.5548530" lon="-8.7896000">
        <ele>6.7</ele>
        <time>2021-05-17T09:55:14Z</time>
      </trkpt>
      <trkpt lat="41.5548520" lon="-8.7895790">
        <ele>6.7</ele>
        <time>2021-05-17T09:55:15Z</time>
      </trkpt>
      <trkpt lat="41.5548530" lon="-8.7895610">
        <ele>6.8</ele>
        <time>2021-05-17T09:55:16Z</time>
      </trkpt>
      <trkpt lat="41.5548540" lon="-8.7895450">
        <ele>6.8</ele>
        <time>2021-05-17T09:55:17Z</time>
      </trkpt>
      <trkpt lat="41.5548600" lon="-8.7895340">
        <ele>6.8</ele>
        <time>2021-05-17T09:55:18Z</time>
      </trkpt>
      <trkpt lat="41.5548590" lon="-8.7895260">
        <ele>6.8</ele>
        <time>2021-05-17T09:55:19Z</time>
      </trkpt>
      <trkpt lat="41.5548620" lon="-8.7895120">
        <ele>6.8</ele>
        <time>2021-05-17T09:55:20Z</time>
      </trkpt>
      <trkpt lat="41.5548660" lon="-8.7894870">
        <ele>6.8</ele>
        <time>2021-05-17T09:55:21Z</time>
      </trkpt>
      <trkpt lat="41.5548680" lon="-8.7894700">
        <ele>6.8</ele>
        <time>2021-05-17T09:55:22Z</time>
      </trkpt>
      <trkpt lat="41.5548700" lon="-8.7894440">
        <ele>6.8</ele>
        <time>2021-05-17T09:55:23Z</time>
      </trkpt>
      <trkpt lat="41.5548820" lon="-8.7894290">
        <ele>6.8</ele>
        <time>2021-05-17T09:55:24Z</time>
      </trkpt>
      <trkpt lat="41.5548830" lon="-8.7894090">
        <ele>6.8</ele>
        <time>2021-05-17T09:55:25Z</time>
      </trkpt>
      <trkpt lat="41.5548890" lon="-8.7893830">
        <ele>6.9</ele>
        <time>2021-05-17T09:55:26Z</time>
      </trkpt>
      <trkpt lat="41.5548940" lon="-8.7893730">
        <ele>6.9</ele>
        <time>2021-05-17T09:55:27Z</time>
      </trkpt>
      <trkpt lat="41.5548980" lon="-8.7893640">
        <ele>6.9</ele>
        <time>2021-05-17T09:55:28Z</time>
      </trkpt>
      <trkpt lat="41.5548960" lon="-8.7893460">
        <ele>6.9</ele>
        <time>2021-05-17T09:55:29Z</time>
      </trkpt>
      <trkpt lat="41.5549030" lon="-8.7893190">
        <ele>6.9</ele>
        <time>2021-05-17T09:55:30Z</time>
      </trkpt>
      <trkpt lat="41.5549100" lon="-8.7892920">
        <ele>6.9</ele>
        <time>2021-05-17T09:55:31Z</time>
      </trkpt>
      <trkpt lat="41.5549150" lon="-8.7892830">
        <ele>6.9</ele>
        <time>2021-05-17T09:55:32Z</time>
      </trkpt>
      <trkpt lat="41.5549210" lon="-8.7892750">
        <ele>6.9</ele>
        <time>2021-05-17T09:55:33Z</time>
      </trkpt>
      <trkpt lat="41.5549210" lon="-8.7892540">
        <ele>6.9</ele>
        <time>2021-05-17T09:55:34Z</time>
      </trkpt>
      <trkpt lat="41.5549210" lon="-8.7892330">
        <ele>7.0</ele>
        <time>2021-05-17T09:55:35Z</time>
      </trkpt>
      <trkpt lat="41.5549240" lon="-8.7892160">
        <ele>7.0</ele>
        <time>2021-05-17T09:55:36Z</time>
      </trkpt>
      <trkpt lat="41.5549330" lon="-8.7891990">
        <ele>7.0</ele>
        <time>2021-05-17T09:55:37Z</time>
      </trkpt>
      <trkpt lat="41.5549360" lon="-8.7891800">
        <ele>7.0</ele>
        <time>2021-05-17T09:55:38Z</time>
      </trkpt>
      <trkpt lat="41.5549350" lon="-8.7891620">
        <ele>7.0</ele>
        <time>2021-05-17T09:55:39Z</time>
      </trkpt>
      <trkpt lat="41.5549430" lon="-8.7891430">
        <ele>7.0</ele>
        <time>2021-05-17T09:55:40Z</time>
      </trkpt>
      <trkpt lat="41.5549510" lon="-8.7891270">
        <ele>7.0</ele>
        <time>2021-05-17T09:55:41Z</time>
      </trkpt>
      <trkpt lat="41.5549530" lon="-8.7890880">
        <ele>7.1</ele>
        <time>2021-05-17T09:55:42Z</time>
      </trkpt>
      <trkpt lat="41.5549520" lon="-8.7890810">
        <ele>7.1</ele>
        <time>2021-05-17T09:55:43Z</time>
      </trkpt>
      <trkpt lat="41.5549510" lon="-8.7890730">
        <ele>7.1</ele>
        <time>2021-05-17T09:55:44Z</time>
      </trkpt>
      <trkpt lat="41.5549510" lon="-8.7890560">
        <ele>7.1</ele>
        <time>2021-05-17T09:55:45Z</time>
      </trkpt>
      <trkpt lat="41.5549550" lon="-8.7890270">
        <ele>7.1</ele>
        <time>2021-05-17T09:55:46Z</time>
      </trkpt>
      <trkpt lat="41.5549600" lon="-8.7890000">
        <ele>7.1</ele>
        <time>2021-05-17T09:55:47Z</time>
      </trkpt>
      <trkpt lat="41.5549620" lon="-8.7889870">
        <ele>7.1</ele>
        <time>2021-05-17T09:55:48Z</time>
      </trkpt>
      <trkpt lat="41.5549650" lon="-8.7889740">
        <ele>7.1</ele>
        <time>2021-05-17T09:55:49Z</time>
      </trkpt>
      <trkpt lat="41.5549690" lon="-8.7889480">
        <ele>7.1</ele>
        <time>2021-05-17T09:55:50Z</time>
      </trkpt>
      <trkpt lat="41.5549710" lon="-8.7889320">
        <ele>7.2</ele>
        <time>2021-05-17T09:55:51Z</time>
      </trkpt>
      <trkpt lat="41.5549720" lon="-8.7889050">
        <ele>7.2</ele>
        <time>2021-05-17T09:55:52Z</time>
      </trkpt>
      <trkpt lat="41.5549740" lon="-8.7888870">
        <ele>7.2</ele>
        <time>2021-05-17T09:55:53Z</time>
      </trkpt>
      <trkpt lat="41.5549780" lon="-8.7888720">
        <ele>7.2</ele>
        <time>2021-05-17T09:55:54Z</time>
      </trkpt>
      <trkpt lat="41.5549810" lon="-8.7888610">
        <ele>7.2</ele>
        <time>2021-05-17T09:55:55Z</time>
      </trkpt>
      <trkpt lat="41.5549820" lon="-8.7888540">
        <ele>7.2</ele>
        <time>2021-05-17T09:55:56Z</time>
      </trkpt>
      <trkpt lat="41.5549840" lon="-8.7888410">
        <ele>7.2</ele>
        <time>2021-05-17T09:55:57Z</time>
      </trkpt>
      <trkpt lat="41.5549980" lon="-8.7888040">
        <ele>7.3</ele>
        <time>2021-05-17T09:55:58Z</time>
      </trkpt>
      <trkpt lat="41.5549990" lon="-8.7887950">
        <ele>7.3</ele>
        <time>2021-05-17T09:55:59Z</time>
      </trkpt>
      <trkpt lat="41.5549970" lon="-8.7887800">
        <ele>7.3</ele>
        <time>2021-05-17T09:56:00Z</time>
      </trkpt>
      <trkpt lat="41.5550100" lon="-8.7887610">
        <ele>7.3</ele>
        <time>2021-05-17T09:56:01Z</time>
      </trkpt>
      <trkpt lat="41.5550140" lon="-8.7887440">
        <ele>7.3</ele>
        <time>2021-05-17T09:56:02Z</time>
      </trkpt>
      <trkpt lat="41.5550180" lon="-8.7887230">
        <ele>7.3</ele>
        <time>2021-05-17T09:56:03Z</time>
      </trkpt>
      <trkpt lat="41.5550230" lon="-8.7887070">
        <ele>7.4</ele>
        <time>2021-05-17T09:56:04Z</time>
      </trkpt>
      <trkpt lat="41.5550250" lon="-8.7886880">
        <ele>7.4</ele>
        <time>2021-05-17T09:56:05Z</time>
      </trkpt>
      <trkpt lat="41.5550220" lon="-8.7886700">
        <ele>7.4</ele>
        <time>2021-05-17T09:56:06Z</time>
      </trkpt>
      <trkpt lat="41.5550330" lon="-8.7886470">
        <ele>7.4</ele>
        <time>2021-05-17T09:56:07Z</time>
      </trkpt>
      <trkpt lat="41.5550500" lon="-8.7886130">
        <ele>7.4</ele>
        <time>2021-05-17T09:56:08Z</time>
      </trkpt>
      <trkpt lat="41.5550560" lon="-8.7886020">
        <ele>7.5</ele>
        <time>2021-05-17T09:56:09Z</time>
      </trkpt>
      <trkpt lat="41.5550600" lon="-8.7885910">
        <ele>7.5</ele>
        <time>2021-05-17T09:56:10Z</time>
      </trkpt>
      <trkpt lat="41.5550750" lon="-8.7885670">
        <ele>7.5</ele>
        <time>2021-05-17T09:56:11Z</time>
      </trkpt>
      <trkpt lat="41.5550750" lon="-8.7885730">
        <ele>7.5</ele>
        <time>2021-05-17T09:56:12Z</time>
      </trkpt>
      <trkpt lat="41.5550850" lon="-8.7885440">
        <ele>7.5</ele>
        <time>2021-05-17T09:56:13Z</time>
      </trkpt>
      <trkpt lat="41.5550840" lon="-8.7885260">
        <ele>7.5</ele>
        <time>2021-05-17T09:56:14Z</time>
      </trkpt>
      <trkpt lat="41.5550950" lon="-8.7885060">
        <ele>7.4</ele>
        <time>2021-05-17T09:56:15Z</time>
      </trkpt>
      <trkpt lat="41.5550990" lon="-8.7884900">
        <ele>7.4</ele>
        <time>2021-05-17T09:56:16Z</time>
      </trkpt>
      <trkpt lat="41.5551030" lon="-8.7884770">
        <ele>7.4</ele>
        <time>2021-05-17T09:56:17Z</time>
      </trkpt>
      <trkpt lat="41.5551110" lon="-8.7884530">
        <ele>7.4</ele>
        <time>2021-05-17T09:56:18Z</time>
      </trkpt>
      <trkpt lat="41.5551100" lon="-8.7884410">
        <ele>7.4</ele>
        <time>2021-05-17T09:56:19Z</time>
      </trkpt>
      <trkpt lat="41.5551070" lon="-8.7884270">
        <ele>7.4</ele>
        <time>2021-05-17T09:56:20Z</time>
      </trkpt>
      <trkpt lat="41.5551120" lon="-8.7884210">
        <ele>7.4</ele>
        <time>2021-05-17T09:56:21Z</time>
      </trkpt>
      <trkpt lat="41.5551160" lon="-8.7884090">
        <ele>7.4</ele>
        <time>2021-05-17T09:56:22Z</time>
      </trkpt>
      <trkpt lat="41.5551190" lon="-8.7883860">
        <ele>7.4</ele>
        <time>2021-05-17T09:56:23Z</time>
      </trkpt>
      <trkpt lat="41.5551210" lon="-8.7883670">
        <ele>7.4</ele>
        <time>2021-05-17T09:56:24Z</time>
      </trkpt>
      <trkpt lat="41.5551300" lon="-8.7883260">
        <ele>7.4</ele>
        <time>2021-05-17T09:56:25Z</time>
      </trkpt>
      <trkpt lat="41.5551310" lon="-8.7883160">
        <ele>7.4</ele>
        <time>2021-05-17T09:56:26Z</time>
      </trkpt>
      <trkpt lat="41.5551270" lon="-8.7883030">
        <ele>7.4</ele>
        <time>2021-05-17T09:56:27Z</time>
      </trkpt>
      <trkpt lat="41.5551280" lon="-8.7882730">
        <ele>7.4</ele>
        <time>2021-05-17T09:56:28Z</time>
      </trkpt>
      <trkpt lat="41.5551230" lon="-8.7882510">
        <ele>7.4</ele>
        <time>2021-05-17T09:56:29Z</time>
      </trkpt>
      <trkpt lat="41.5551180" lon="-8.7882440">
        <ele>7.4</ele>
        <time>2021-05-17T09:56:30Z</time>
      </trkpt>
      <trkpt lat="41.5551160" lon="-8.7882300">
        <ele>7.4</ele>
        <time>2021-05-17T09:56:31Z</time>
      </trkpt>
      <trkpt lat="41.5551200" lon="-8.7882220">
        <ele>7.4</ele>
        <time>2021-05-17T09:56:32Z</time>
      </trkpt>
      <trkpt lat="41.5551200" lon="-8.7882050">
        <ele>7.4</ele>
        <time>2021-05-17T09:56:33Z</time>
      </trkpt>
      <trkpt lat="41.5551200" lon="-8.7881910">
        <ele>7.4</ele>
        <time>2021-05-17T09:56:34Z</time>
      </trkpt>
      <trkpt lat="41.5551170" lon="-8.7881590">
        <ele>7.4</ele>
        <time>2021-05-17T09:56:35Z</time>
      </trkpt>
      <trkpt lat="41.5551120" lon="-8.7881480">
        <ele>7.4</ele>
        <time>2021-05-17T09:56:36Z</time>
      </trkpt>
      <trkpt lat="41.5551070" lon="-8.7881360">
        <ele>7.4</ele>
        <time>2021-05-17T09:56:37Z</time>
      </trkpt>
      <trkpt lat="41.5551020" lon="-8.7881000">
        <ele>7.4</ele>
        <time>2021-05-17T09:56:38Z</time>
      </trkpt>
      <trkpt lat="41.5551000" lon="-8.7880870">
        <ele>7.4</ele>
        <time>2021-05-17T09:56:39Z</time>
      </trkpt>
      <trkpt lat="41.5551060" lon="-8.7880610">
        <ele>7.4</ele>
        <time>2021-05-17T09:56:40Z</time>
      </trkpt>
      <trkpt lat="41.5551080" lon="-8.7880440">
        <ele>7.4</ele>
        <time>2021-05-17T09:56:41Z</time>
      </trkpt>
      <trkpt lat="41.5551100" lon="-8.7880450">
        <ele>7.4</ele>
        <time>2021-05-17T09:56:42Z</time>
      </trkpt>
      <trkpt lat="41.5551130" lon="-8.7880320">
        <ele>7.4</ele>
        <time>2021-05-17T09:56:43Z</time>
      </trkpt>
      <trkpt lat="41.5551120" lon="-8.7880150">
        <ele>7.4</ele>
        <time>2021-05-17T09:56:44Z</time>
      </trkpt>
      <trkpt lat="41.5551130" lon="-8.7880020">
        <ele>7.4</ele>
        <time>2021-05-17T09:56:45Z</time>
      </trkpt>
      <trkpt lat="41.5550960" lon="-8.7879890">
        <ele>7.4</ele>
        <time>2021-05-17T09:56:46Z</time>
      </trkpt>
      <trkpt lat="41.5550900" lon="-8.7879780">
        <ele>7.4</ele>
        <time>2021-05-17T09:56:47Z</time>
      </trkpt>
      <trkpt lat="41.5550840" lon="-8.7879660">
        <ele>7.4</ele>
        <time>2021-05-17T09:56:48Z</time>
      </trkpt>
      <trkpt lat="41.5550860" lon="-8.7879460">
        <ele>7.4</ele>
        <time>2021-05-17T09:56:49Z</time>
      </trkpt>
      <trkpt lat="41.5550790" lon="-8.7879370">
        <ele>7.4</ele>
        <time>2021-05-17T09:56:50Z</time>
      </trkpt>
      <trkpt lat="41.5550730" lon="-8.7879280">
        <ele>7.4</ele>
        <time>2021-05-17T09:56:51Z</time>
      </trkpt>
      <trkpt lat="41.5550740" lon="-8.7879300">
        <ele>7.4</ele>
        <time>2021-05-17T09:56:52Z</time>
      </trkpt>
      <trkpt lat="41.5550690" lon="-8.7879250">
        <ele>7.4</ele>
        <time>2021-05-17T09:56:53Z</time>
      </trkpt>
      <trkpt lat="41.5550660" lon="-8.7879160">
        <ele>7.4</ele>
        <time>2021-05-17T09:56:54Z</time>
      </trkpt>
      <trkpt lat="41.5550550" lon="-8.7879010">
        <ele>7.4</ele>
        <time>2021-05-17T09:56:55Z</time>
      </trkpt>
      <trkpt lat="41.5550480" lon="-8.7878940">
        <ele>7.4</ele>
        <time>2021-05-17T09:56:56Z</time>
      </trkpt>
      <trkpt lat="41.5550420" lon="-8.7878870">
        <ele>7.4</ele>
        <time>2021-05-17T09:56:57Z</time>
      </trkpt>
      <trkpt lat="41.5550350" lon="-8.7878890">
        <ele>7.4</ele>
        <time>2021-05-17T09:56:58Z</time>
      </trkpt>
      <trkpt lat="41.5550350" lon="-8.7878880">
        <ele>7.4</ele>
        <time>2021-05-17T09:56:59Z</time>
      </trkpt>
      <trkpt lat="41.5550340" lon="-8.7878930">
        <ele>7.4</ele>
        <time>2021-05-17T09:57:00Z</time>
      </trkpt>
      <trkpt lat="41.5550320" lon="-8.7878900">
        <ele>7.4</ele>
        <time>2021-05-17T09:57:01Z</time>
      </trkpt>
      <trkpt lat="41.5550350" lon="-8.7878910">
        <ele>7.4</ele>
        <time>2021-05-17T09:57:02Z</time>
      </trkpt>
      <trkpt lat="41.5550360" lon="-8.7878850">
        <ele>7.4</ele>
        <time>2021-05-17T09:57:03Z</time>
      </trkpt>
      <trkpt lat="41.5550360" lon="-8.7878720">
        <ele>7.4</ele>
        <time>2021-05-17T09:57:04Z</time>
      </trkpt>
      <trkpt lat="41.5550380" lon="-8.7878710">
        <ele>7.4</ele>
        <time>2021-05-17T09:57:05Z</time>
      </trkpt>
      <trkpt lat="41.5550380" lon="-8.7878720">
        <ele>7.4</ele>
        <time>2021-05-17T09:57:06Z</time>
      </trkpt>
      <trkpt lat="41.5550360" lon="-8.7878690">
        <ele>7.4</ele>
        <time>2021-05-17T09:57:07Z</time>
      </trkpt>
      <trkpt lat="41.5550390" lon="-8.7878670">
        <ele>7.4</ele>
        <time>2021-05-17T09:57:08Z</time>
      </trkpt>
      <trkpt lat="41.5550420" lon="-8.7878630">
        <ele>7.4</ele>
        <time>2021-05-17T09:57:09Z</time>
      </trkpt>
      <trkpt lat="41.5550410" lon="-8.7878630">
        <ele>7.4</ele>
        <time>2021-05-17T09:57:10Z</time>
      </trkpt>
      <trkpt lat="41.5550420" lon="-8.7878620">
        <ele>7.4</ele>
        <time>2021-05-17T09:57:11Z</time>
      </trkpt>
      <trkpt lat="41.5550430" lon="-8.7878600">
        <ele>7.4</ele>
        <time>2021-05-17T09:57:12Z</time>
      </trkpt>
      <trkpt lat="41.5550380" lon="-8.7878580">
        <ele>7.4</ele>
        <time>2021-05-17T09:57:13Z</time>
      </trkpt>
      <trkpt lat="41.5550360" lon="-8.7878480">
        <ele>7.4</ele>
        <time>2021-05-17T09:57:14Z</time>
      </trkpt>
      <trkpt lat="41.5550360" lon="-8.7878490">
        <ele>7.4</ele>
        <time>2021-05-17T09:57:15Z</time>
      </trkpt>
      <trkpt lat="41.5550390" lon="-8.7878500">
        <ele>7.4</ele>
        <time>2021-05-17T09:57:16Z</time>
      </trkpt>
      <trkpt lat="41.5550430" lon="-8.7878580">
        <ele>7.4</ele>
        <time>2021-05-17T09:57:17Z</time>
      </trkpt>
      <trkpt lat="41.5550400" lon="-8.7878550">
        <ele>7.4</ele>
        <time>2021-05-17T09:57:18Z</time>
      </trkpt>
      <trkpt lat="41.5550420" lon="-8.7878530">
        <ele>7.4</ele>
        <time>2021-05-17T09:57:19Z</time>
      </trkpt>
      <trkpt lat="41.5550370" lon="-8.7878570">
        <ele>7.4</ele>
        <time>2021-05-17T09:57:20Z</time>
      </trkpt>
      <trkpt lat="41.5550390" lon="-8.7878660">
        <ele>7.4</ele>
        <time>2021-05-17T09:57:21Z</time>
      </trkpt>
      <trkpt lat="41.5550410" lon="-8.7878650">
        <ele>7.4</ele>
        <time>2021-05-17T09:57:22Z</time>
      </trkpt>
      <trkpt lat="41.5550350" lon="-8.7878530">
        <ele>7.4</ele>
        <time>2021-05-17T09:57:23Z</time>
      </trkpt>
      <trkpt lat="41.5550370" lon="-8.7878390">
        <ele>7.4</ele>
        <time>2021-05-17T09:57:24Z</time>
      </trkpt>
      <trkpt lat="41.5550360" lon="-8.7878300">
        <ele>7.4</ele>
        <time>2021-05-17T09:57:25Z</time>
      </trkpt>
      <trkpt lat="41.5550330" lon="-8.7878190">
        <ele>7.4</ele>
        <time>2021-05-17T09:57:26Z</time>
      </trkpt>
      <trkpt lat="41.5550330" lon="-8.7878240">
        <ele>7.4</ele>
        <time>2021-05-17T09:57:27Z</time>
      </trkpt>
      <trkpt lat="41.5550370" lon="-8.7878320">
        <ele>7.4</ele>
        <time>2021-05-17T09:57:28Z</time>
      </trkpt>
      <trkpt lat="41.5550370" lon="-8.7878290">
        <ele>7.4</ele>
        <time>2021-05-17T09:57:29Z</time>
      </trkpt>
      <trkpt lat="41.5550260" lon="-8.7878230">
        <ele>7.4</ele>
        <time>2021-05-17T09:57:30Z</time>
      </trkpt>
      <trkpt lat="41.5550270" lon="-8.7878130">
        <ele>7.4</ele>
        <time>2021-05-17T09:57:31Z</time>
      </trkpt>
      <trkpt lat="41.5550170" lon="-8.7878090">
        <ele>7.4</ele>
        <time>2021-05-17T09:57:32Z</time>
      </trkpt>
      <trkpt lat="41.5550130" lon="-8.7878020">
        <ele>7.4</ele>
        <time>2021-05-17T09:57:33Z</time>
      </trkpt>
      <trkpt lat="41.5550200" lon="-8.7878060">
        <ele>7.4</ele>
        <time>2021-05-17T09:57:34Z</time>
      </trkpt>
      <trkpt lat="41.5550190" lon="-8.7878020">
        <ele>7.4</ele>
        <time>2021-05-17T09:57:35Z</time>
      </trkpt>
      <trkpt lat="41.5550170" lon="-8.7877980">
        <ele>7.4</ele>
        <time>2021-05-17T09:57:36Z</time>
      </trkpt>
      <trkpt lat="41.5550160" lon="-8.7877940">
        <ele>7.4</ele>
        <time>2021-05-17T09:57:37Z</time>
      </trkpt>
      <trkpt lat="41.5550140" lon="-8.7877900">
        <ele>7.4</ele>
        <time>2021-05-17T09:57:38Z</time>
      </trkpt>
      <trkpt lat="41.5550120" lon="-8.7877860">
        <ele>7.4</ele>
        <time>2021-05-17T09:57:39Z</time>
      </trkpt>
      <trkpt lat="41.5550110" lon="-8.7877820">
        <ele>7.4</ele>
        <time>2021-05-17T09:57:40Z</time>
      </trkpt>
      <trkpt lat="41.5550090" lon="-8.7877790">
        <ele>7.4</ele>
        <time>2021-05-17T09:57:41Z</time>
      </trkpt>
      <trkpt lat="41.5550080" lon="-8.7877750">
        <ele>7.4</ele>
        <time>2021-05-17T09:57:42Z</time>
      </trkpt>
      <trkpt lat="41.5550060" lon="-8.7877710">
        <ele>7.4</ele>
        <time>2021-05-17T09:57:43Z</time>
      </trkpt>
      <trkpt lat="41.5550040" lon="-8.7877670">
        <ele>7.4</ele>
        <time>2021-05-17T09:57:44Z</time>
      </trkpt>
      <trkpt lat="41.5550030" lon="-8.7877630">
        <ele>7.4</ele>
        <time>2021-05-17T09:57:45Z</time>
      </trkpt>
      <trkpt lat="41.5550010" lon="-8.7877590">
        <ele>7.4</ele>
        <time>2021-05-17T09:57:46Z</time>
      </trkpt>
      <trkpt lat="41.5550000" lon="-8.7877550">
        <ele>7.4</ele>
        <time>2021-05-17T09:57:47Z</time>
      </trkpt>
      <trkpt lat="41.5549980" lon="-8.7877510">
        <ele>7.4</ele>
        <time>2021-05-17T09:57:48Z</time>
      </trkpt>
      <trkpt lat="41.5550000" lon="-8.7877630">
        <ele>7.4</ele>
        <time>2021-05-17T09:57:49Z</time>
      </trkpt>
      <trkpt lat="41.5550070" lon="-8.7877750">
        <ele>7.4</ele>
        <time>2021-05-17T09:57:50Z</time>
      </trkpt>
      <trkpt lat="41.5550130" lon="-8.7877870">
        <ele>7.4</ele>
        <time>2021-05-17T09:57:51Z</time>
      </trkpt>
      <trkpt lat="41.5550190" lon="-8.7877990">
        <ele>7.4</ele>
        <time>2021-05-17T09:57:52Z</time>
      </trkpt>
      <trkpt lat="41.5550060" lon="-8.7878010">
        <ele>7.4</ele>
        <time>2021-05-17T09:57:53Z</time>
      </trkpt>
      <trkpt lat="41.5549920" lon="-8.7878140">
        <ele>7.4</ele>
        <time>2021-05-17T09:57:54Z</time>
      </trkpt>
      <trkpt lat="41.5549770" lon="-8.7878210">
        <ele>7.4</ele>
        <time>2021-05-17T09:57:55Z</time>
      </trkpt>
      <trkpt lat="41.5549680" lon="-8.7878160">
        <ele>7.4</ele>
        <time>2021-05-17T09:57:56Z</time>
      </trkpt>
      <trkpt lat="41.5549600" lon="-8.7878120">
        <ele>7.4</ele>
        <time>2021-05-17T09:57:57Z</time>
      </trkpt>
      <trkpt lat="41.5549510" lon="-8.7878080">
        <ele>7.4</ele>
        <time>2021-05-17T09:57:58Z</time>
      </trkpt>
      <trkpt lat="41.5549380" lon="-8.7877920">
        <ele>7.4</ele>
        <time>2021-05-17T09:57:59Z</time>
      </trkpt>
      <trkpt lat="41.5549260" lon="-8.7877850">
        <ele>7.4</ele>
        <time>2021-05-17T09:58:00Z</time>
      </trkpt>
      <trkpt lat="41.5549150" lon="-8.7877780">
        <ele>7.4</ele>
        <time>2021-05-17T09:58:01Z</time>
      </trkpt>
      <trkpt lat="41.5549100" lon="-8.7877630">
        <ele>7.4</ele>
        <time>2021-05-17T09:58:02Z</time>
      </trkpt>
      <trkpt lat="41.5549010" lon="-8.7877530">
        <ele>7.4</ele>
        <time>2021-05-17T09:58:03Z</time>
      </trkpt>
      <trkpt lat="41.5548940" lon="-8.7877420">
        <ele>7.4</ele>
        <time>2021-05-17T09:58:04Z</time>
      </trkpt>
      <trkpt lat="41.5548900" lon="-8.7877280">
        <ele>7.5</ele>
        <time>2021-05-17T09:58:05Z</time>
      </trkpt>
      <trkpt lat="41.5548850" lon="-8.7877220">
        <ele>7.5</ele>
        <time>2021-05-17T09:58:06Z</time>
      </trkpt>
      <trkpt lat="41.5548780" lon="-8.7877090">
        <ele>7.5</ele>
        <time>2021-05-17T09:58:07Z</time>
      </trkpt>
      <trkpt lat="41.5548640" lon="-8.7876770">
        <ele>7.5</ele>
        <time>2021-05-17T09:58:08Z</time>
      </trkpt>
      <trkpt lat="41.5548560" lon="-8.7876640">
        <ele>7.5</ele>
        <time>2021-05-17T09:58:09Z</time>
      </trkpt>
      <trkpt lat="41.5548480" lon="-8.7876500">
        <ele>7.5</ele>
        <time>2021-05-17T09:58:10Z</time>
      </trkpt>
      <trkpt lat="41.5548470" lon="-8.7876470">
        <ele>7.5</ele>
        <time>2021-05-17T09:58:11Z</time>
      </trkpt>
      <trkpt lat="41.5548490" lon="-8.7876460">
        <ele>7.5</ele>
        <time>2021-05-17T09:58:12Z</time>
      </trkpt>
      <trkpt lat="41.5548410" lon="-8.7876390">
        <ele>7.5</ele>
        <time>2021-05-17T09:58:13Z</time>
      </trkpt>
      <trkpt lat="41.5548360" lon="-8.7876340">
        <ele>7.5</ele>
        <time>2021-05-17T09:58:14Z</time>
      </trkpt>
      <trkpt lat="41.5550510" lon="-8.7887930">
        <ele>7.3</ele>
        <time>2021-05-17T09:58:44Z</time>
      </trkpt>
      <trkpt lat="41.5550150" lon="-8.7884010">
        <ele>7.5</ele>
        <time>2021-05-17T09:58:45Z</time>
      </trkpt>
      <trkpt lat="41.5550170" lon="-8.7884080">
        <ele>7.4</ele>
        <time>2021-05-17T09:58:58Z</time>
      </trkpt>
      <trkpt lat="41.5550180" lon="-8.7884140">
        <ele>7.4</ele>
        <time>2021-05-17T09:58:59Z</time>
      </trkpt>
      <trkpt lat="41.5550190" lon="-8.7884210">
        <ele>7.4</ele>
        <time>2021-05-17T09:59:07Z</time>
      </trkpt>
      <trkpt lat="41.5550210" lon="-8.7884270">
        <ele>7.4</ele>
        <time>2021-05-17T09:59:15Z</time>
      </trkpt>
      <trkpt lat="41.5550220" lon="-8.7884340">
        <ele>7.4</ele>
        <time>2021-05-17T09:59:21Z</time>
      </trkpt>
      <trkpt lat="41.5550230" lon="-8.7884400">
        <ele>7.4</ele>
        <time>2021-05-17T09:59:22Z</time>
      </trkpt>
      <trkpt lat="41.5550250" lon="-8.7884470">
        <ele>7.4</ele>
        <time>2021-05-17T09:59:23Z</time>
      </trkpt>
      <trkpt lat="41.5550260" lon="-8.7884530">
        <ele>7.4</ele>
        <time>2021-05-17T09:59:24Z</time>
      </trkpt>
      <trkpt lat="41.5550070" lon="-8.7884210">
        <ele>7.4</ele>
        <time>2021-05-17T09:59:25Z</time>
      </trkpt>
      <trkpt lat="41.5549930" lon="-8.7883900">
        <ele>7.4</ele>
        <time>2021-05-17T09:59:26Z</time>
      </trkpt>
      <trkpt lat="41.5549990" lon="-8.7883850">
        <ele>7.4</ele>
        <time>2021-05-17T09:59:27Z</time>
      </trkpt>
      <trkpt lat="41.5549880" lon="-8.7883020">
        <ele>7.4</ele>
        <time>2021-05-17T09:59:28Z</time>
      </trkpt>
      <trkpt lat="41.5549830" lon="-8.7882460">
        <ele>7.4</ele>
        <time>2021-05-17T09:59:29Z</time>
      </trkpt>
      <trkpt lat="41.5549790" lon="-8.7882010">
        <ele>7.4</ele>
        <time>2021-05-17T09:59:30Z</time>
      </trkpt>
      <trkpt lat="41.5549740" lon="-8.7881560">
        <ele>7.4</ele>
        <time>2021-05-17T09:59:31Z</time>
      </trkpt>
      <trkpt lat="41.5549720" lon="-8.7881070">
        <ele>7.4</ele>
        <time>2021-05-17T09:59:32Z</time>
      </trkpt>
      <trkpt lat="41.5549660" lon="-8.7880590">
        <ele>7.4</ele>
        <time>2021-05-17T09:59:33Z</time>
      </trkpt>
      <trkpt lat="41.5549780" lon="-8.7880160">
        <ele>7.4</ele>
        <time>2021-05-17T09:59:34Z</time>
      </trkpt>
      <trkpt lat="41.5549860" lon="-8.7877420">
        <ele>7.4</ele>
        <time>2021-05-17T09:59:35Z</time>
      </trkpt>
      <trkpt lat="41.5549800" lon="-8.7877260">
        <ele>7.4</ele>
        <time>2021-05-17T09:59:36Z</time>
      </trkpt>
      <trkpt lat="41.5549800" lon="-8.7876780">
        <ele>7.4</ele>
        <time>2021-05-17T09:59:37Z</time>
      </trkpt>
      <trkpt lat="41.5549510" lon="-8.7876760">
        <ele>7.4</ele>
        <time>2021-05-17T09:59:38Z</time>
      </trkpt>
      <trkpt lat="41.5549340" lon="-8.7876540">
        <ele>7.4</ele>
        <time>2021-05-17T09:59:39Z</time>
      </trkpt>
      <trkpt lat="41.5549360" lon="-8.7877150">
        <ele>7.4</ele>
        <time>2021-05-17T09:59:40Z</time>
      </trkpt>
      <trkpt lat="41.5549380" lon="-8.7877480">
        <ele>7.4</ele>
        <time>2021-05-17T09:59:41Z</time>
      </trkpt>
      <trkpt lat="41.5549530" lon="-8.7877850">
        <ele>7.4</ele>
        <time>2021-05-17T09:59:42Z</time>
      </trkpt>
      <trkpt lat="41.5549590" lon="-8.7878240">
        <ele>7.4</ele>
        <time>2021-05-17T09:59:43Z</time>
      </trkpt>
      <trkpt lat="41.5549640" lon="-8.7878610">
        <ele>7.4</ele>
        <time>2021-05-17T09:59:44Z</time>
      </trkpt>
      <trkpt lat="41.5549710" lon="-8.7878780">
        <ele>7.4</ele>
        <time>2021-05-17T09:59:45Z</time>
      </trkpt>
      <trkpt lat="41.5549740" lon="-8.7878840">
        <ele>7.4</ele>
        <time>2021-05-17T09:59:46Z</time>
      </trkpt>
      <trkpt lat="41.5549720" lon="-8.7878930">
        <ele>7.4</ele>
        <time>2021-05-17T09:59:47Z</time>
      </trkpt>
      <trkpt lat="41.5549640" lon="-8.7878840">
        <ele>7.4</ele>
        <time>2021-05-17T09:59:48Z</time>
      </trkpt>
      <trkpt lat="41.5549530" lon="-8.7878240">
        <ele>7.5</ele>
        <time>2021-05-17T09:59:49Z</time>
      </trkpt>
      <trkpt lat="41.5549520" lon="-8.7878000">
        <ele>7.5</ele>
        <time>2021-05-17T09:59:50Z</time>
      </trkpt>
      <trkpt lat="41.5549510" lon="-8.7877770">
        <ele>7.5</ele>
        <time>2021-05-17T09:59:51Z</time>
      </trkpt>
      <trkpt lat="41.5549370" lon="-8.7877980">
        <ele>7.5</ele>
        <time>2021-05-17T09:59:52Z</time>
      </trkpt>
      <trkpt lat="41.5549240" lon="-8.7878140">
        <ele>7.5</ele>
        <time>2021-05-17T09:59:53Z</time>
      </trkpt>
      <trkpt lat="41.5549120" lon="-8.7878290">
        <ele>7.5</ele>
        <time>2021-05-17T09:59:54Z</time>
      </trkpt>
      <trkpt lat="41.5548990" lon="-8.7878450">
        <ele>7.5</ele>
        <time>2021-05-17T09:59:55Z</time>
      </trkpt>
      <trkpt lat="41.5548760" lon="-8.7878920">
        <ele>7.5</ele>
        <time>2021-05-17T09:59:56Z</time>
      </trkpt>
      <trkpt lat="41.5548530" lon="-8.7879390">
        <ele>7.5</ele>
        <time>2021-05-17T09:59:57Z</time>
      </trkpt>
      <trkpt lat="41.5548290" lon="-8.7879850">
        <ele>7.5</ele>
        <time>2021-05-17T09:59:58Z</time>
      </trkpt>
      <trkpt lat="41.5548060" lon="-8.7880320">
        <ele>7.5</ele>
        <time>2021-05-17T09:59:59Z</time>
      </trkpt>
      <trkpt lat="41.5548040" lon="-8.7879960">
        <ele>7.5</ele>
        <time>2021-05-17T10:00:00Z</time>
      </trkpt>
      <trkpt lat="41.5548130" lon="-8.7879500">
        <ele>7.5</ele>
        <time>2021-05-17T10:00:01Z</time>
      </trkpt>
      <trkpt lat="41.5548210" lon="-8.7879040">
        <ele>7.5</ele>
        <time>2021-05-17T10:00:02Z</time>
      </trkpt>
      <trkpt lat="41.5548440" lon="-8.7878650">
        <ele>7.6</ele>
        <time>2021-05-17T10:00:03Z</time>
      </trkpt>
      <trkpt lat="41.5548760" lon="-8.7878430">
        <ele>7.6</ele>
        <time>2021-05-17T10:00:04Z</time>
      </trkpt>
      <trkpt lat="41.5548790" lon="-8.7878930">
        <ele>7.6</ele>
        <time>2021-05-17T10:00:05Z</time>
      </trkpt>
      <trkpt lat="41.5548820" lon="-8.7879400">
        <ele>7.6</ele>
        <time>2021-05-17T10:00:06Z</time>
      </trkpt>
      <trkpt lat="41.5548860" lon="-8.7879880">
        <ele>7.6</ele>
        <time>2021-05-17T10:00:07Z</time>
      </trkpt>
      <trkpt lat="41.5549390" lon="-8.7880300">
        <ele>7.6</ele>
        <time>2021-05-17T10:00:08Z</time>
      </trkpt>
      <trkpt lat="41.5549520" lon="-8.7879630">
        <ele>7.7</ele>
        <time>2021-05-17T10:00:09Z</time>
      </trkpt>
      <trkpt lat="41.5549470" lon="-8.7879760">
        <ele>7.7</ele>
        <time>2021-05-17T10:00:10Z</time>
      </trkpt>
      <trkpt lat="41.5549310" lon="-8.7879680">
        <ele>7.7</ele>
        <time>2021-05-17T10:00:11Z</time>
      </trkpt>
      <trkpt lat="41.5549600" lon="-8.7879940">
        <ele>7.7</ele>
        <time>2021-05-17T10:00:12Z</time>
      </trkpt>
      <trkpt lat="41.5549850" lon="-8.7879430">
        <ele>7.7</ele>
        <time>2021-05-17T10:00:13Z</time>
      </trkpt>
      <trkpt lat="41.5549840" lon="-8.7879370">
        <ele>7.7</ele>
        <time>2021-05-17T10:00:14Z</time>
      </trkpt>
      <trkpt lat="41.5549840" lon="-8.7879300">
        <ele>7.7</ele>
        <time>2021-05-17T10:00:15Z</time>
      </trkpt>
      <trkpt lat="41.5549840" lon="-8.7879240">
        <ele>7.7</ele>
        <time>2021-05-17T10:00:16Z</time>
      </trkpt>
      <trkpt lat="41.5549840" lon="-8.7879170">
        <ele>7.7</ele>
        <time>2021-05-17T10:00:17Z</time>
      </trkpt>
      <trkpt lat="41.5549840" lon="-8.7879110">
        <ele>7.7</ele>
        <time>2021-05-17T10:00:18Z</time>
      </trkpt>
      <trkpt lat="41.5549840" lon="-8.7879040">
        <ele>7.7</ele>
        <time>2021-05-17T10:00:19Z</time>
      </trkpt>
      <trkpt lat="41.5549850" lon="-8.7878980">
        <ele>7.7</ele>
        <time>2021-05-17T10:00:20Z</time>
      </trkpt>
      <trkpt lat="41.5549850" lon="-8.7878910">
        <ele>7.7</ele>
        <time>2021-05-17T10:00:21Z</time>
      </trkpt>
      <trkpt lat="41.5549850" lon="-8.7878850">
        <ele>7.7</ele>
        <time>2021-05-17T10:00:22Z</time>
      </trkpt>
      <trkpt lat="41.5549850" lon="-8.7878780">
        <ele>7.7</ele>
        <time>2021-05-17T10:00:23Z</time>
      </trkpt>
      <trkpt lat="41.5549850" lon="-8.7878720">
        <ele>7.7</ele>
        <time>2021-05-17T10:00:24Z</time>
      </trkpt>
      <trkpt lat="41.5549850" lon="-8.7878650">
        <ele>7.7</ele>
        <time>2021-05-17T10:00:25Z</time>
      </trkpt>
      <trkpt lat="41.5549850" lon="-8.7878590">
        <ele>7.7</ele>
        <time>2021-05-17T10:00:26Z</time>
      </trkpt>
      <trkpt lat="41.5549850" lon="-8.7878520">
        <ele>7.7</ele>
        <time>2021-05-17T10:00:27Z</time>
      </trkpt>
      <trkpt lat="41.5549880" lon="-8.7878520">
        <ele>7.7</ele>
        <time>2021-05-17T10:00:28Z</time>
      </trkpt>
      <trkpt lat="41.5549950" lon="-8.7878520">
        <ele>7.7</ele>
        <time>2021-05-17T10:00:29Z</time>
      </trkpt>
      <trkpt lat="41.5550020" lon="-8.7878530">
        <ele>7.7</ele>
        <time>2021-05-17T10:00:30Z</time>
      </trkpt>
      <trkpt lat="41.5550080" lon="-8.7878540">
        <ele>7.7</ele>
        <time>2021-05-17T10:00:31Z</time>
      </trkpt>
      <trkpt lat="41.5550100" lon="-8.7878540">
        <ele>7.7</ele>
        <time>2021-05-17T10:00:32Z</time>
      </trkpt>
      <trkpt lat="41.5550080" lon="-8.7878540">
        <ele>7.7</ele>
        <time>2021-05-17T10:00:33Z</time>
      </trkpt>
      <trkpt lat="41.5550050" lon="-8.7878510">
        <ele>7.7</ele>
        <time>2021-05-17T10:00:34Z</time>
      </trkpt>
      <trkpt lat="41.5550030" lon="-8.7878540">
        <ele>7.7</ele>
        <time>2021-05-17T10:00:35Z</time>
      </trkpt>
      <trkpt lat="41.5550140" lon="-8.7878280">
        <ele>7.8</ele>
        <time>2021-05-17T10:00:36Z</time>
      </trkpt>
      <trkpt lat="41.5550430" lon="-8.7878270">
        <ele>7.8</ele>
        <time>2021-05-17T10:00:37Z</time>
      </trkpt>
      <trkpt lat="41.5550560" lon="-8.7878500">
        <ele>7.8</ele>
        <time>2021-05-17T10:00:38Z</time>
      </trkpt>
      <trkpt lat="41.5550510" lon="-8.7878480">
        <ele>7.8</ele>
        <time>2021-05-17T10:00:39Z</time>
      </trkpt>
      <trkpt lat="41.5550620" lon="-8.7878650">
        <ele>7.8</ele>
        <time>2021-05-17T10:00:40Z</time>
      </trkpt>
      <trkpt lat="41.5550720" lon="-8.7878470">
        <ele>7.8</ele>
        <time>2021-05-17T10:00:41Z</time>
      </trkpt>
      <trkpt lat="41.5550770" lon="-8.7878240">
        <ele>7.8</ele>
        <time>2021-05-17T10:00:42Z</time>
      </trkpt>
      <trkpt lat="41.5550820" lon="-8.7878010">
        <ele>7.8</ele>
        <time>2021-05-17T10:00:43Z</time>
      </trkpt>
      <trkpt lat="41.5550880" lon="-8.7877720">
        <ele>7.8</ele>
        <time>2021-05-17T10:00:44Z</time>
      </trkpt>
      <trkpt lat="41.5550930" lon="-8.7877420">
        <ele>7.8</ele>
        <time>2021-05-17T10:00:45Z</time>
      </trkpt>
      <trkpt lat="41.5551130" lon="-8.7877760">
        <ele>7.8</ele>
        <time>2021-05-17T10:00:46Z</time>
      </trkpt>
      <trkpt lat="41.5551190" lon="-8.7878160">
        <ele>7.9</ele>
        <time>2021-05-17T10:00:47Z</time>
      </trkpt>
      <trkpt lat="41.5551260" lon="-8.7878550">
        <ele>7.9</ele>
        <time>2021-05-17T10:00:48Z</time>
      </trkpt>
      <trkpt lat="41.5551320" lon="-8.7878950">
        <ele>7.9</ele>
        <time>2021-05-17T10:00:49Z</time>
      </trkpt>
      <trkpt lat="41.5551380" lon="-8.7879340">
        <ele>7.9</ele>
        <time>2021-05-17T10:00:50Z</time>
      </trkpt>
      <trkpt lat="41.5551280" lon="-8.7879750">
        <ele>7.9</ele>
        <time>2021-05-17T10:00:51Z</time>
      </trkpt>
      <trkpt lat="41.5551180" lon="-8.7880160">
        <ele>7.9</ele>
        <time>2021-05-17T10:00:52Z</time>
      </trkpt>
      <trkpt lat="41.5551210" lon="-8.7880500">
        <ele>8.0</ele>
        <time>2021-05-17T10:00:53Z</time>
      </trkpt>
      <trkpt lat="41.5551150" lon="-8.7880650">
        <ele>8.0</ele>
        <time>2021-05-17T10:00:54Z</time>
      </trkpt>
      <trkpt lat="41.5550940" lon="-8.7880320">
        <ele>8.0</ele>
        <time>2021-05-17T10:00:55Z</time>
      </trkpt>
      <trkpt lat="41.5550800" lon="-8.7880100">
        <ele>8.0</ele>
        <time>2021-05-17T10:00:56Z</time>
      </trkpt>
      <trkpt lat="41.5550730" lon="-8.7880030">
        <ele>8.0</ele>
        <time>2021-05-17T10:00:57Z</time>
      </trkpt>
      <trkpt lat="41.5550670" lon="-8.7879950">
        <ele>8.0</ele>
        <time>2021-05-17T10:00:58Z</time>
      </trkpt>
      <trkpt lat="41.5550600" lon="-8.7879880">
        <ele>8.0</ele>
        <time>2021-05-17T10:00:59Z</time>
      </trkpt>
      <trkpt lat="41.5550540" lon="-8.7879800">
        <ele>8.0</ele>
        <time>2021-05-17T10:01:00Z</time>
      </trkpt>
      <trkpt lat="41.5550460" lon="-8.7879750">
        <ele>8.0</ele>
        <time>2021-05-17T10:01:01Z</time>
      </trkpt>
      <trkpt lat="41.5550370" lon="-8.7879710">
        <ele>8.0</ele>
        <time>2021-05-17T10:01:02Z</time>
      </trkpt>
      <trkpt lat="41.5550290" lon="-8.7879660">
        <ele>8.0</ele>
        <time>2021-05-17T10:01:03Z</time>
      </trkpt>
      <trkpt lat="41.5550200" lon="-8.7879620">
        <ele>8.0</ele>
        <time>2021-05-17T10:01:04Z</time>
      </trkpt>
      <trkpt lat="41.5550400" lon="-8.7879970">
        <ele>8.1</ele>
        <time>2021-05-17T10:01:05Z</time>
      </trkpt>
      <trkpt lat="41.5550460" lon="-8.7880020">
        <ele>8.1</ele>
        <time>2021-05-17T10:01:06Z</time>
      </trkpt>
      <trkpt lat="41.5550510" lon="-8.7880080">
        <ele>8.1</ele>
        <time>2021-05-17T10:01:07Z</time>
      </trkpt>
      <trkpt lat="41.5550560" lon="-8.7880130">
        <ele>8.1</ele>
        <time>2021-05-17T10:01:08Z</time>
      </trkpt>
      <trkpt lat="41.5550590" lon="-8.7880090">
        <ele>8.1</ele>
        <time>2021-05-17T10:01:09Z</time>
      </trkpt>
      <trkpt lat="41.5550760" lon="-8.7880030">
        <ele>8.1</ele>
        <time>2021-05-17T10:01:10Z</time>
      </trkpt>
      <trkpt lat="41.5550310" lon="-8.7880040">
        <ele>8.1</ele>
        <time>2021-05-17T10:01:11Z</time>
      </trkpt>
      <trkpt lat="41.5550660" lon="-8.7880460">
        <ele>8.2</ele>
        <time>2021-05-17T10:01:12Z</time>
      </trkpt>
      <trkpt lat="41.5550740" lon="-8.7880540">
        <ele>8.2</ele>
        <time>2021-05-17T10:01:13Z</time>
      </trkpt>
      <trkpt lat="41.5550760" lon="-8.7880170">
        <ele>8.2</ele>
        <time>2021-05-17T10:01:14Z</time>
      </trkpt>
      <trkpt lat="41.5550730" lon="-8.7879990">
        <ele>8.2</ele>
        <time>2021-05-17T10:01:15Z</time>
      </trkpt>
      <trkpt lat="41.5550020" lon="-8.7879560">
        <ele>8.3</ele>
        <time>2021-05-17T10:01:16Z</time>
      </trkpt>
      <trkpt lat="41.5550140" lon="-8.7879450">
        <ele>8.3</ele>
        <time>2021-05-17T10:01:17Z</time>
      </trkpt>
      <trkpt lat="41.5550280" lon="-8.7879450">
        <ele>8.3</ele>
        <time>2021-05-17T10:01:18Z</time>
      </trkpt>
      <trkpt lat="41.5550430" lon="-8.7879460">
        <ele>8.3</ele>
        <time>2021-05-17T10:01:19Z</time>
      </trkpt>
      <trkpt lat="41.5550410" lon="-8.7879610">
        <ele>8.3</ele>
        <time>2021-05-17T10:01:20Z</time>
      </trkpt>
      <trkpt lat="41.5550300" lon="-8.7879720">
        <ele>8.3</ele>
        <time>2021-05-17T10:01:21Z</time>
      </trkpt>
      <trkpt lat="41.5550190" lon="-8.7879820">
        <ele>8.3</ele>
        <time>2021-05-17T10:01:22Z</time>
      </trkpt>
      <trkpt lat="41.5550080" lon="-8.7879920">
        <ele>8.3</ele>
        <time>2021-05-17T10:01:23Z</time>
      </trkpt>
      <trkpt lat="41.5550190" lon="-8.7880040">
        <ele>8.4</ele>
        <time>2021-05-17T10:01:24Z</time>
      </trkpt>
      <trkpt lat="41.5550260" lon="-8.7880170">
        <ele>8.4</ele>
        <time>2021-05-17T10:01:25Z</time>
      </trkpt>
      <trkpt lat="41.5550320" lon="-8.7880290">
        <ele>8.4</ele>
        <time>2021-05-17T10:01:26Z</time>
      </trkpt>
      <trkpt lat="41.5550380" lon="-8.7880420">
        <ele>8.4</ele>
        <time>2021-05-17T10:01:27Z</time>
      </trkpt>
      <trkpt lat="41.5550450" lon="-8.7880540">
        <ele>8.4</ele>
        <time>2021-05-17T10:01:28Z</time>
      </trkpt>
      <trkpt lat="41.5550510" lon="-8.7880670">
        <ele>8.4</ele>
        <time>2021-05-17T10:01:29Z</time>
      </trkpt>
      <trkpt lat="41.5550570" lon="-8.7880790">
        <ele>8.4</ele>
        <time>2021-05-17T10:01:30Z</time>
      </trkpt>
      <trkpt lat="41.5550640" lon="-8.7880920">
        <ele>8.4</ele>
        <time>2021-05-17T10:01:31Z</time>
      </trkpt>
      <trkpt lat="41.5550700" lon="-8.7881040">
        <ele>8.4</ele>
        <time>2021-05-17T10:01:32Z</time>
      </trkpt>
      <trkpt lat="41.5550650" lon="-8.7881010">
        <ele>8.4</ele>
        <time>2021-05-17T10:01:33Z</time>
      </trkpt>
      <trkpt lat="41.5550640" lon="-8.7880970">
        <ele>8.4</ele>
        <time>2021-05-17T10:01:34Z</time>
      </trkpt>
      <trkpt lat="41.5550480" lon="-8.7880790">
        <ele>8.4</ele>
        <time>2021-05-17T10:01:35Z</time>
      </trkpt>
      <trkpt lat="41.5550400" lon="-8.7880560">
        <ele>8.5</ele>
        <time>2021-05-17T10:01:36Z</time>
      </trkpt>
      <trkpt lat="41.5550330" lon="-8.7880370">
        <ele>8.5</ele>
        <time>2021-05-17T10:01:37Z</time>
      </trkpt>
      <trkpt lat="41.5550250" lon="-8.7880190">
        <ele>8.5</ele>
        <time>2021-05-17T10:01:38Z</time>
      </trkpt>
      <trkpt lat="41.5550250" lon="-8.7880190">
        <ele>8.5</ele>
        <time>2021-05-17T10:01:39Z</time>
      </trkpt>
      <trkpt lat="41.5550410" lon="-8.7880600">
        <ele>8.5</ele>
        <time>2021-05-17T10:01:40Z</time>
      </trkpt>
      <trkpt lat="41.5550390" lon="-8.7880570">
        <ele>8.5</ele>
        <time>2021-05-17T10:01:41Z</time>
      </trkpt>
      <trkpt lat="41.5550390" lon="-8.7880570">
        <ele>8.5</ele>
        <time>2021-05-17T10:01:42Z</time>
      </trkpt>
      <trkpt lat="41.5550490" lon="-8.7881040">
        <ele>8.5</ele>
        <time>2021-05-17T10:01:43Z</time>
      </trkpt>
      <trkpt lat="41.5550370" lon="-8.7881080">
        <ele>8.5</ele>
        <time>2021-05-17T10:01:44Z</time>
      </trkpt>
      <trkpt lat="41.5550370" lon="-8.7881080">
        <ele>8.5</ele>
        <time>2021-05-17T10:01:45Z</time>
      </trkpt>
      <trkpt lat="41.5550370" lon="-8.7881080">
        <ele>8.5</ele>
        <time>2021-05-17T10:01:46Z</time>
      </trkpt>
      <trkpt lat="41.5550370" lon="-8.7881080">
        <ele>8.5</ele>
        <time>2021-05-17T10:01:47Z</time>
      </trkpt>
      <trkpt lat="41.5550370" lon="-8.7881080">
        <ele>8.5</ele>
        <time>2021-05-17T10:01:48Z</time>
      </trkpt>
      <trkpt lat="41.5550370" lon="-8.7881080">
        <ele>8.5</ele>
        <time>2021-05-17T10:01:49Z</time>
      </trkpt>
      <trkpt lat="41.5550460" lon="-8.7880650">
        <ele>8.6</ele>
        <time>2021-05-17T10:01:50Z</time>
      </trkpt>
      <trkpt lat="41.5550430" lon="-8.7880610">
        <ele>8.6</ele>
        <time>2021-05-17T10:01:51Z</time>
      </trkpt>
      <trkpt lat="41.5550410" lon="-8.7880590">
        <ele>8.6</ele>
        <time>2021-05-17T10:01:52Z</time>
      </trkpt>
      <trkpt lat="41.5550380" lon="-8.7880580">
        <ele>8.6</ele>
        <time>2021-05-17T10:01:53Z</time>
      </trkpt>
      <trkpt lat="41.5550360" lon="-8.7880560">
        <ele>8.6</ele>
        <time>2021-05-17T10:01:54Z</time>
      </trkpt>
      <trkpt lat="41.5550330" lon="-8.7880540">
        <ele>8.6</ele>
        <time>2021-05-17T10:01:55Z</time>
      </trkpt>
      <trkpt lat="41.5550300" lon="-8.7880520">
        <ele>8.6</ele>
        <time>2021-05-17T10:01:56Z</time>
      </trkpt>
      <trkpt lat="41.5550280" lon="-8.7880500">
        <ele>8.6</ele>
        <time>2021-05-17T10:01:57Z</time>
      </trkpt>
      <trkpt lat="41.5550250" lon="-8.7880490">
        <ele>8.6</ele>
        <time>2021-05-17T10:01:58Z</time>
      </trkpt>
      <trkpt lat="41.5550230" lon="-8.7880470">
        <ele>8.6</ele>
        <time>2021-05-17T10:01:59Z</time>
      </trkpt>
      <trkpt lat="41.5550200" lon="-8.7880450">
        <ele>8.6</ele>
        <time>2021-05-17T10:02:00Z</time>
      </trkpt>
      <trkpt lat="41.5550170" lon="-8.7880430">
        <ele>8.6</ele>
        <time>2021-05-17T10:02:01Z</time>
      </trkpt>
      <trkpt lat="41.5550150" lon="-8.7880410">
        <ele>8.6</ele>
        <time>2021-05-17T10:02:02Z</time>
      </trkpt>
      <trkpt lat="41.5550120" lon="-8.7880400">
        <ele>8.6</ele>
        <time>2021-05-17T10:02:03Z</time>
      </trkpt>
      <trkpt lat="41.5550100" lon="-8.7880380">
        <ele>8.6</ele>
        <time>2021-05-17T10:02:04Z</time>
      </trkpt>
      <trkpt lat="41.5550070" lon="-8.7880360">
        <ele>8.6</ele>
        <time>2021-05-17T10:02:05Z</time>
      </trkpt>
      <trkpt lat="41.5550070" lon="-8.7880350">
        <ele>8.6</ele>
        <time>2021-05-17T10:02:06Z</time>
      </trkpt>
      <trkpt lat="41.5550080" lon="-8.7880320">
        <ele>8.6</ele>
        <time>2021-05-17T10:02:07Z</time>
      </trkpt>
      <trkpt lat="41.5550100" lon="-8.7880290">
        <ele>8.6</ele>
        <time>2021-05-17T10:02:08Z</time>
      </trkpt>
      <trkpt lat="41.5550140" lon="-8.7880280">
        <ele>8.6</ele>
        <time>2021-05-17T10:02:09Z</time>
      </trkpt>
      <trkpt lat="41.5550150" lon="-8.7880290">
        <ele>8.6</ele>
        <time>2021-05-17T10:02:10Z</time>
      </trkpt>
      <trkpt lat="41.5550150" lon="-8.7880290">
        <ele>8.6</ele>
        <time>2021-05-17T10:02:11Z</time>
      </trkpt>
      <trkpt lat="41.5550030" lon="-8.7880310">
        <ele>8.6</ele>
        <time>2021-05-17T10:02:12Z</time>
      </trkpt>
      <trkpt lat="41.5550050" lon="-8.7880380">
        <ele>8.6</ele>
        <time>2021-05-17T10:02:13Z</time>
      </trkpt>
      <trkpt lat="41.5550080" lon="-8.7880450">
        <ele>8.6</ele>
        <time>2021-05-17T10:02:14Z</time>
      </trkpt>
      <trkpt lat="41.5550090" lon="-8.7880480">
        <ele>8.6</ele>
        <time>2021-05-17T10:02:15Z</time>
      </trkpt>
      <trkpt lat="41.5550130" lon="-8.7880400">
        <ele>8.6</ele>
        <time>2021-05-17T10:02:16Z</time>
      </trkpt>
      <trkpt lat="41.5550100" lon="-8.7880260">
        <ele>8.6</ele>
        <time>2021-05-17T10:02:17Z</time>
      </trkpt>
      <trkpt lat="41.5550120" lon="-8.7880200">
        <ele>8.6</ele>
        <time>2021-05-17T10:02:18Z</time>
      </trkpt>
      <trkpt lat="41.5550120" lon="-8.7880200">
        <ele>8.6</ele>
        <time>2021-05-17T10:02:19Z</time>
      </trkpt>
      <trkpt lat="41.5550120" lon="-8.7880200">
        <ele>8.6</ele>
        <time>2021-05-17T10:02:20Z</time>
      </trkpt>
      <trkpt lat="41.5550170" lon="-8.7880180">
        <ele>8.7</ele>
        <time>2021-05-17T10:02:21Z</time>
      </trkpt>
      <trkpt lat="41.5550170" lon="-8.7880170">
        <ele>8.7</ele>
        <time>2021-05-17T10:02:22Z</time>
      </trkpt>
      <trkpt lat="41.5550190" lon="-8.7880000">
        <ele>8.7</ele>
        <time>2021-05-17T10:02:23Z</time>
      </trkpt>
      <trkpt lat="41.5550190" lon="-8.7880000">
        <ele>8.7</ele>
        <time>2021-05-17T10:02:24Z</time>
      </trkpt>
      <trkpt lat="41.5550080" lon="-8.7879830">
        <ele>8.7</ele>
        <time>2021-05-17T10:02:25Z</time>
      </trkpt>
      <trkpt lat="41.5550060" lon="-8.7879680">
        <ele>8.7</ele>
        <time>2021-05-17T10:02:26Z</time>
      </trkpt>
      <trkpt lat="41.5550170" lon="-8.7879780">
        <ele>8.7</ele>
        <time>2021-05-17T10:02:27Z</time>
      </trkpt>
      <trkpt lat="41.5550170" lon="-8.7879650">
        <ele>8.7</ele>
        <time>2021-05-17T10:02:28Z</time>
      </trkpt>
      <trkpt lat="41.5550220" lon="-8.7879460">
        <ele>8.7</ele>
        <time>2021-05-17T10:02:29Z</time>
      </trkpt>
      <trkpt lat="41.5550220" lon="-8.7879340">
        <ele>8.7</ele>
        <time>2021-05-17T10:02:30Z</time>
      </trkpt>
      <trkpt lat="41.5550230" lon="-8.7879200">
        <ele>8.7</ele>
        <time>2021-05-17T10:02:31Z</time>
      </trkpt>
      <trkpt lat="41.5550210" lon="-8.7879110">
        <ele>8.7</ele>
        <time>2021-05-17T10:02:32Z</time>
      </trkpt>
      <trkpt lat="41.5550210" lon="-8.7879110">
        <ele>8.7</ele>
        <time>2021-05-17T10:02:33Z</time>
      </trkpt>
      <trkpt lat="41.5550210" lon="-8.7879110">
        <ele>8.7</ele>
        <time>2021-05-17T10:02:34Z</time>
      </trkpt>
      <trkpt lat="41.5550210" lon="-8.7879110">
        <ele>8.7</ele>
        <time>2021-05-17T10:02:35Z</time>
      </trkpt>
      <trkpt lat="41.5550210" lon="-8.7879110">
        <ele>8.7</ele>
        <time>2021-05-17T10:02:36Z</time>
      </trkpt>
      <trkpt lat="41.5550210" lon="-8.7879110">
        <ele>8.7</ele>
        <time>2021-05-17T10:02:37Z</time>
      </trkpt>
      <trkpt lat="41.5550210" lon="-8.7879110">
        <ele>8.7</ele>
        <time>2021-05-17T10:02:38Z</time>
      </trkpt>
      <trkpt lat="41.5550210" lon="-8.7879110">
        <ele>8.7</ele>
        <time>2021-05-17T10:02:39Z</time>
      </trkpt>
      <trkpt lat="41.5550210" lon="-8.7879110">
        <ele>8.7</ele>
        <time>2021-05-17T10:02:40Z</time>
      </trkpt>
      <trkpt lat="41.5550210" lon="-8.7879110">
        <ele>8.7</ele>
        <time>2021-05-17T10:02:41Z</time>
      </trkpt>
      <trkpt lat="41.5550210" lon="-8.7879110">
        <ele>8.7</ele>
        <time>2021-05-17T10:02:42Z</time>
      </trkpt>
      <trkpt lat="41.5550150" lon="-8.7879020">
        <ele>8.7</ele>
        <time>2021-05-17T10:02:43Z</time>
      </trkpt>
      <trkpt lat="41.5550150" lon="-8.7879020">
        <ele>8.7</ele>
        <time>2021-05-17T10:02:44Z</time>
      </trkpt>
      <trkpt lat="41.5550150" lon="-8.7879020">
        <ele>8.7</ele>
        <time>2021-05-17T10:02:45Z</time>
      </trkpt>
      <trkpt lat="41.5550150" lon="-8.7879020">
        <ele>8.7</ele>
        <time>2021-05-17T10:02:46Z</time>
      </trkpt>
      <trkpt lat="41.5550210" lon="-8.7879070">
        <ele>8.7</ele>
        <time>2021-05-17T10:02:47Z</time>
      </trkpt>
      <trkpt lat="41.5550200" lon="-8.7879020">
        <ele>8.7</ele>
        <time>2021-05-17T10:02:48Z</time>
      </trkpt>
      <trkpt lat="41.5550190" lon="-8.7878980">
        <ele>8.7</ele>
        <time>2021-05-17T10:02:49Z</time>
      </trkpt>
      <trkpt lat="41.5550130" lon="-8.7878890">
        <ele>8.7</ele>
        <time>2021-05-17T10:02:50Z</time>
      </trkpt>
      <trkpt lat="41.5550140" lon="-8.7878820">
        <ele>8.7</ele>
        <time>2021-05-17T10:02:51Z</time>
      </trkpt>
      <trkpt lat="41.5550120" lon="-8.7878820">
        <ele>8.7</ele>
        <time>2021-05-17T10:02:52Z</time>
      </trkpt>
      <trkpt lat="41.5550080" lon="-8.7878810">
        <ele>8.7</ele>
        <time>2021-05-17T10:02:53Z</time>
      </trkpt>
      <trkpt lat="41.5550070" lon="-8.7878870">
        <ele>8.7</ele>
        <time>2021-05-17T10:02:54Z</time>
      </trkpt>
      <trkpt lat="41.5550060" lon="-8.7878890">
        <ele>8.7</ele>
        <time>2021-05-17T10:02:55Z</time>
      </trkpt>
      <trkpt lat="41.5550090" lon="-8.7878980">
        <ele>8.7</ele>
        <time>2021-05-17T10:02:56Z</time>
      </trkpt>
      <trkpt lat="41.5550070" lon="-8.7879020">
        <ele>8.7</ele>
        <time>2021-05-17T10:02:57Z</time>
      </trkpt>
      <trkpt lat="41.5550110" lon="-8.7878890">
        <ele>8.8</ele>
        <time>2021-05-17T10:02:58Z</time>
      </trkpt>
      <trkpt lat="41.5550180" lon="-8.7878910">
        <ele>8.8</ele>
        <time>2021-05-17T10:02:59Z</time>
      </trkpt>
      <trkpt lat="41.5550180" lon="-8.7878980">
        <ele>8.8</ele>
        <time>2021-05-17T10:03:00Z</time>
      </trkpt>
      <trkpt lat="41.5550190" lon="-8.7879050">
        <ele>8.8</ele>
        <time>2021-05-17T10:03:01Z</time>
      </trkpt>
      <trkpt lat="41.5550190" lon="-8.7879010">
        <ele>8.8</ele>
        <time>2021-05-17T10:03:02Z</time>
      </trkpt>
      <trkpt lat="41.5550210" lon="-8.7879050">
        <ele>8.8</ele>
        <time>2021-05-17T10:03:03Z</time>
      </trkpt>
      <trkpt lat="41.5550200" lon="-8.7879170">
        <ele>8.8</ele>
        <time>2021-05-17T10:03:04Z</time>
      </trkpt>
      <trkpt lat="41.5550250" lon="-8.7879220">
        <ele>8.8</ele>
        <time>2021-05-17T10:03:05Z</time>
      </trkpt>
      <trkpt lat="41.5550300" lon="-8.7879160">
        <ele>8.8</ele>
        <time>2021-05-17T10:03:06Z</time>
      </trkpt>
      <trkpt lat="41.5550340" lon="-8.7879180">
        <ele>8.8</ele>
        <time>2021-05-17T10:03:07Z</time>
      </trkpt>
      <trkpt lat="41.5550350" lon="-8.7879160">
        <ele>8.8</ele>
        <time>2021-05-17T10:03:08Z</time>
      </trkpt>
      <trkpt lat="41.5550340" lon="-8.7879180">
        <ele>8.8</ele>
        <time>2021-05-17T10:03:09Z</time>
      </trkpt>
      <trkpt lat="41.5550340" lon="-8.7879150">
        <ele>8.8</ele>
        <time>2021-05-17T10:03:10Z</time>
      </trkpt>
      <trkpt lat="41.5550360" lon="-8.7879160">
        <ele>8.8</ele>
        <time>2021-05-17T10:03:11Z</time>
      </trkpt>
      <trkpt lat="41.5550400" lon="-8.7879110">
        <ele>8.8</ele>
        <time>2021-05-17T10:03:12Z</time>
      </trkpt>
      <trkpt lat="41.5550380" lon="-8.7879100">
        <ele>8.8</ele>
        <time>2021-05-17T10:03:13Z</time>
      </trkpt>
      <trkpt lat="41.5550410" lon="-8.7879120">
        <ele>8.8</ele>
        <time>2021-05-17T10:03:14Z</time>
      </trkpt>
      <trkpt lat="41.5550420" lon="-8.7879100">
        <ele>8.8</ele>
        <time>2021-05-17T10:03:15Z</time>
      </trkpt>
      <trkpt lat="41.5550430" lon="-8.7879030">
        <ele>8.8</ele>
        <time>2021-05-17T10:03:16Z</time>
      </trkpt>
      <trkpt lat="41.5550430" lon="-8.7878960">
        <ele>8.8</ele>
        <time>2021-05-17T10:03:17Z</time>
      </trkpt>
      <trkpt lat="41.5550420" lon="-8.7878970">
        <ele>8.8</ele>
        <time>2021-05-17T10:03:18Z</time>
      </trkpt>
      <trkpt lat="41.5550420" lon="-8.7879010">
        <ele>8.8</ele>
        <time>2021-05-17T10:03:19Z</time>
      </trkpt>
      <trkpt lat="41.5550380" lon="-8.7879230">
        <ele>8.8</ele>
        <time>2021-05-17T10:03:20Z</time>
      </trkpt>
      <trkpt lat="41.5550390" lon="-8.7879580">
        <ele>8.8</ele>
        <time>2021-05-17T10:03:21Z</time>
      </trkpt>
      <trkpt lat="41.5550420" lon="-8.7879250">
        <ele>8.8</ele>
        <time>2021-05-17T10:03:22Z</time>
      </trkpt>
      <trkpt lat="41.5550430" lon="-8.7879120">
        <ele>8.8</ele>
        <time>2021-05-17T10:03:23Z</time>
      </trkpt>
      <trkpt lat="41.5550460" lon="-8.7878870">
        <ele>8.9</ele>
        <time>2021-05-17T10:03:24Z</time>
      </trkpt>
      <trkpt lat="41.5550510" lon="-8.7878720">
        <ele>8.9</ele>
        <time>2021-05-17T10:03:25Z</time>
      </trkpt>
      <trkpt lat="41.5550700" lon="-8.7878500">
        <ele>8.9</ele>
        <time>2021-05-17T10:03:26Z</time>
      </trkpt>
      <trkpt lat="41.5550780" lon="-8.7878380">
        <ele>8.9</ele>
        <time>2021-05-17T10:03:27Z</time>
      </trkpt>
      <trkpt lat="41.5550900" lon="-8.7878320">
        <ele>8.9</ele>
        <time>2021-05-17T10:03:28Z</time>
      </trkpt>
      <trkpt lat="41.5550930" lon="-8.7878130">
        <ele>8.9</ele>
        <time>2021-05-17T10:03:29Z</time>
      </trkpt>
      <trkpt lat="41.5551010" lon="-8.7878030">
        <ele>8.9</ele>
        <time>2021-05-17T10:03:30Z</time>
      </trkpt>
      <trkpt lat="41.5550920" lon="-8.7877830">
        <ele>8.9</ele>
        <time>2021-05-17T10:03:31Z</time>
      </trkpt>
      <trkpt lat="41.5551060" lon="-8.7877670">
        <ele>8.9</ele>
        <time>2021-05-17T10:03:32Z</time>
      </trkpt>
      <trkpt lat="41.5551120" lon="-8.7877580">
        <ele>8.9</ele>
        <time>2021-05-17T10:03:33Z</time>
      </trkpt>
      <trkpt lat="41.5551150" lon="-8.7877450">
        <ele>8.9</ele>
        <time>2021-05-17T10:03:34Z</time>
      </trkpt>
      <trkpt lat="41.5551150" lon="-8.7877250">
        <ele>8.9</ele>
        <time>2021-05-17T10:03:35Z</time>
      </trkpt>
      <trkpt lat="41.5551060" lon="-8.7877140">
        <ele>8.9</ele>
        <time>2021-05-17T10:03:36Z</time>
      </trkpt>
      <trkpt lat="41.5550960" lon="-8.7876890">
        <ele>9.0</ele>
        <time>2021-05-17T10:03:37Z</time>
      </trkpt>
      <trkpt lat="41.5550980" lon="-8.7876720">
        <ele>9.0</ele>
        <time>2021-05-17T10:03:38Z</time>
      </trkpt>
      <trkpt lat="41.5551050" lon="-8.7876480">
        <ele>9.0</ele>
        <time>2021-05-17T10:03:39Z</time>
      </trkpt>
      <trkpt lat="41.5551360" lon="-8.7876330">
        <ele>9.0</ele>
        <time>2021-05-17T10:03:40Z</time>
      </trkpt>
      <trkpt lat="41.5551470" lon="-8.7876290">
        <ele>9.0</ele>
        <time>2021-05-17T10:03:41Z</time>
      </trkpt>
      <trkpt lat="41.5551750" lon="-8.7876120">
        <ele>9.0</ele>
        <time>2021-05-17T10:03:42Z</time>
      </trkpt>
      <trkpt lat="41.5551990" lon="-8.7875870">
        <ele>9.0</ele>
        <time>2021-05-17T10:03:43Z</time>
      </trkpt>
      <trkpt lat="41.5552020" lon="-8.7875750">
        <ele>9.0</ele>
        <time>2021-05-17T10:03:44Z</time>
      </trkpt>
      <trkpt lat="41.5552210" lon="-8.7875430">
        <ele>9.1</ele>
        <time>2021-05-17T10:03:45Z</time>
      </trkpt>
      <trkpt lat="41.5552290" lon="-8.7875320">
        <ele>9.1</ele>
        <time>2021-05-17T10:03:46Z</time>
      </trkpt>
      <trkpt lat="41.5552360" lon="-8.7875010">
        <ele>9.1</ele>
        <time>2021-05-17T10:03:47Z</time>
      </trkpt>
      <trkpt lat="41.5552390" lon="-8.7874890">
        <ele>9.1</ele>
        <time>2021-05-17T10:03:48Z</time>
      </trkpt>
      <trkpt lat="41.5552420" lon="-8.7874780">
        <ele>9.1</ele>
        <time>2021-05-17T10:03:49Z</time>
      </trkpt>
      <trkpt lat="41.5552500" lon="-8.7874520">
        <ele>9.1</ele>
        <time>2021-05-17T10:03:50Z</time>
      </trkpt>
      <trkpt lat="41.5552530" lon="-8.7874410">
        <ele>9.1</ele>
        <time>2021-05-17T10:03:51Z</time>
      </trkpt>
      <trkpt lat="41.5552550" lon="-8.7874310">
        <ele>9.1</ele>
        <time>2021-05-17T10:03:52Z</time>
      </trkpt>
      <trkpt lat="41.5552580" lon="-8.7874120">
        <ele>9.1</ele>
        <time>2021-05-17T10:03:53Z</time>
      </trkpt>
      <trkpt lat="41.5552660" lon="-8.7873940">
        <ele>9.1</ele>
        <time>2021-05-17T10:03:54Z</time>
      </trkpt>
      <trkpt lat="41.5552720" lon="-8.7873700">
        <ele>9.1</ele>
        <time>2021-05-17T10:03:55Z</time>
      </trkpt>
      <trkpt lat="41.5552760" lon="-8.7873590">
        <ele>9.1</ele>
        <time>2021-05-17T10:03:56Z</time>
      </trkpt>
      <trkpt lat="41.5552800" lon="-8.7873470">
        <ele>9.2</ele>
        <time>2021-05-17T10:03:57Z</time>
      </trkpt>
      <trkpt lat="41.5552830" lon="-8.7873290">
        <ele>9.2</ele>
        <time>2021-05-17T10:03:58Z</time>
      </trkpt>
      <trkpt lat="41.5552860" lon="-8.7873190">
        <ele>9.2</ele>
        <time>2021-05-17T10:03:59Z</time>
      </trkpt>
      <trkpt lat="41.5552900" lon="-8.7873080">
        <ele>9.2</ele>
        <time>2021-05-17T10:04:00Z</time>
      </trkpt>
      <trkpt lat="41.5552930" lon="-8.7872980">
        <ele>9.2</ele>
        <time>2021-05-17T10:04:01Z</time>
      </trkpt>
      <trkpt lat="41.5552960" lon="-8.7872870">
        <ele>9.2</ele>
        <time>2021-05-17T10:04:02Z</time>
      </trkpt>
      <trkpt lat="41.5553030" lon="-8.7872640">
        <ele>9.2</ele>
        <time>2021-05-17T10:04:03Z</time>
      </trkpt>
      <trkpt lat="41.5553100" lon="-8.7872460">
        <ele>9.2</ele>
        <time>2021-05-17T10:04:04Z</time>
      </trkpt>
      <trkpt lat="41.5553300" lon="-8.7872190">
        <ele>9.2</ele>
        <time>2021-05-17T10:04:05Z</time>
      </trkpt>
      <trkpt lat="41.5553340" lon="-8.7872030">
        <ele>9.2</ele>
        <time>2021-05-17T10:04:06Z</time>
      </trkpt>
      <trkpt lat="41.5553380" lon="-8.7871880">
        <ele>9.3</ele>
        <time>2021-05-17T10:04:07Z</time>
      </trkpt>
      <trkpt lat="41.5553420" lon="-8.7871720">
        <ele>9.3</ele>
        <time>2021-05-17T10:04:08Z</time>
      </trkpt>
      <trkpt lat="41.5553530" lon="-8.7871580">
        <ele>9.3</ele>
        <time>2021-05-17T10:04:09Z</time>
      </trkpt>
      <trkpt lat="41.5553540" lon="-8.7871440">
        <ele>9.3</ele>
        <time>2021-05-17T10:04:10Z</time>
      </trkpt>
      <trkpt lat="41.5553610" lon="-8.7871300">
        <ele>9.3</ele>
        <time>2021-05-17T10:04:11Z</time>
      </trkpt>
      <trkpt lat="41.5553650" lon="-8.7871190">
        <ele>9.3</ele>
        <time>2021-05-17T10:04:12Z</time>
      </trkpt>
      <trkpt lat="41.5553710" lon="-8.7871030">
        <ele>9.3</ele>
        <time>2021-05-17T10:04:13Z</time>
      </trkpt>
      <trkpt lat="41.5553760" lon="-8.7870800">
        <ele>9.3</ele>
        <time>2021-05-17T10:04:14Z</time>
      </trkpt>
      <trkpt lat="41.5553800" lon="-8.7870640">
        <ele>9.3</ele>
        <time>2021-05-17T10:04:15Z</time>
      </trkpt>
      <trkpt lat="41.5553850" lon="-8.7870450">
        <ele>9.3</ele>
        <time>2021-05-17T10:04:16Z</time>
      </trkpt>
      <trkpt lat="41.5553870" lon="-8.7870250">
        <ele>9.3</ele>
        <time>2021-05-17T10:04:17Z</time>
      </trkpt>
      <trkpt lat="41.5553850" lon="-8.7870010">
        <ele>9.4</ele>
        <time>2021-05-17T10:04:18Z</time>
      </trkpt>
      <trkpt lat="41.5553890" lon="-8.7869750">
        <ele>9.4</ele>
        <time>2021-05-17T10:04:19Z</time>
      </trkpt>
      <trkpt lat="41.5553930" lon="-8.7869640">
        <ele>9.4</ele>
        <time>2021-05-17T10:04:20Z</time>
      </trkpt>
      <trkpt lat="41.5553960" lon="-8.7869540">
        <ele>9.4</ele>
        <time>2021-05-17T10:04:21Z</time>
      </trkpt>
      <trkpt lat="41.5553990" lon="-8.7869440">
        <ele>9.4</ele>
        <time>2021-05-17T10:04:22Z</time>
      </trkpt>
      <trkpt lat="41.5554020" lon="-8.7869260">
        <ele>9.4</ele>
        <time>2021-05-17T10:04:23Z</time>
      </trkpt>
      <trkpt lat="41.5554050" lon="-8.7869150">
        <ele>9.4</ele>
        <time>2021-05-17T10:04:24Z</time>
      </trkpt>
      <trkpt lat="41.5554140" lon="-8.7868890">
        <ele>9.4</ele>
        <time>2021-05-17T10:04:25Z</time>
      </trkpt>
      <trkpt lat="41.5554180" lon="-8.7868790">
        <ele>9.4</ele>
        <time>2021-05-17T10:04:26Z</time>
      </trkpt>
      <trkpt lat="41.5554210" lon="-8.7868680">
        <ele>9.4</ele>
        <time>2021-05-17T10:04:27Z</time>
      </trkpt>
      <trkpt lat="41.5554360" lon="-8.7868530">
        <ele>9.5</ele>
        <time>2021-05-17T10:04:28Z</time>
      </trkpt>
      <trkpt lat="41.5554380" lon="-8.7868330">
        <ele>9.5</ele>
        <time>2021-05-17T10:04:29Z</time>
      </trkpt>
      <trkpt lat="41.5554460" lon="-8.7868210">
        <ele>9.5</ele>
        <time>2021-05-17T10:04:30Z</time>
      </trkpt>
      <trkpt lat="41.5554550" lon="-8.7867990">
        <ele>9.5</ele>
        <time>2021-05-17T10:04:31Z</time>
      </trkpt>
      <trkpt lat="41.5554620" lon="-8.7867740">
        <ele>9.5</ele>
        <time>2021-05-17T10:04:32Z</time>
      </trkpt>
      <trkpt lat="41.5554660" lon="-8.7867630">
        <ele>9.5</ele>
        <time>2021-05-17T10:04:33Z</time>
      </trkpt>
      <trkpt lat="41.5554700" lon="-8.7867530">
        <ele>9.5</ele>
        <time>2021-05-17T10:04:34Z</time>
      </trkpt>
      <trkpt lat="41.5554730" lon="-8.7867380">
        <ele>9.5</ele>
        <time>2021-05-17T10:04:35Z</time>
      </trkpt>
      <trkpt lat="41.5554760" lon="-8.7867170">
        <ele>9.5</ele>
        <time>2021-05-17T10:04:36Z</time>
      </trkpt>
      <trkpt lat="41.5554780" lon="-8.7866970">
        <ele>9.5</ele>
        <time>2021-05-17T10:04:37Z</time>
      </trkpt>
      <trkpt lat="41.5554840" lon="-8.7866780">
        <ele>9.6</ele>
        <time>2021-05-17T10:04:38Z</time>
      </trkpt>
      <trkpt lat="41.5554910" lon="-8.7866650">
        <ele>9.6</ele>
        <time>2021-05-17T10:04:39Z</time>
      </trkpt>
      <trkpt lat="41.5554990" lon="-8.7866580">
        <ele>9.6</ele>
        <time>2021-05-17T10:04:40Z</time>
      </trkpt>
      <trkpt lat="41.5555030" lon="-8.7866370">
        <ele>9.6</ele>
        <time>2021-05-17T10:04:41Z</time>
      </trkpt>
      <trkpt lat="41.5555180" lon="-8.7865970">
        <ele>9.6</ele>
        <time>2021-05-17T10:04:42Z</time>
      </trkpt>
      <trkpt lat="41.5555230" lon="-8.7865860">
        <ele>9.6</ele>
        <time>2021-05-17T10:04:43Z</time>
      </trkpt>
      <trkpt lat="41.5555340" lon="-8.7865630">
        <ele>9.6</ele>
        <time>2021-05-17T10:04:44Z</time>
      </trkpt>
      <trkpt lat="41.5555400" lon="-8.7865430">
        <ele>9.6</ele>
        <time>2021-05-17T10:04:45Z</time>
      </trkpt>
      <trkpt lat="41.5555550" lon="-8.7865260">
        <ele>9.7</ele>
        <time>2021-05-17T10:04:46Z</time>
      </trkpt>
      <trkpt lat="41.5555600" lon="-8.7865060">
        <ele>9.7</ele>
        <time>2021-05-17T10:04:47Z</time>
      </trkpt>
      <trkpt lat="41.5555670" lon="-8.7864900">
        <ele>9.7</ele>
        <time>2021-05-17T10:04:48Z</time>
      </trkpt>
      <trkpt lat="41.5555780" lon="-8.7864690">
        <ele>9.7</ele>
        <time>2021-05-17T10:04:49Z</time>
      </trkpt>
      <trkpt lat="41.5555890" lon="-8.7864560">
        <ele>9.7</ele>
        <time>2021-05-17T10:04:50Z</time>
      </trkpt>
      <trkpt lat="41.5555950" lon="-8.7864380">
        <ele>9.7</ele>
        <time>2021-05-17T10:04:51Z</time>
      </trkpt>
      <trkpt lat="41.5556040" lon="-8.7864210">
        <ele>9.7</ele>
        <time>2021-05-17T10:04:52Z</time>
      </trkpt>
      <trkpt lat="41.5556050" lon="-8.7864010">
        <ele>9.7</ele>
        <time>2021-05-17T10:04:53Z</time>
      </trkpt>
      <trkpt lat="41.5556190" lon="-8.7863790">
        <ele>9.8</ele>
        <time>2021-05-17T10:04:54Z</time>
      </trkpt>
      <trkpt lat="41.5556240" lon="-8.7863680">
        <ele>9.8</ele>
        <time>2021-05-17T10:04:55Z</time>
      </trkpt>
      <trkpt lat="41.5556400" lon="-8.7863410">
        <ele>9.8</ele>
        <time>2021-05-17T10:04:56Z</time>
      </trkpt>
      <trkpt lat="41.5556450" lon="-8.7863330">
        <ele>9.8</ele>
        <time>2021-05-17T10:04:57Z</time>
      </trkpt>
      <trkpt lat="41.5556510" lon="-8.7863240">
        <ele>9.8</ele>
        <time>2021-05-17T10:04:58Z</time>
      </trkpt>
      <trkpt lat="41.5556620" lon="-8.7863070">
        <ele>9.8</ele>
        <time>2021-05-17T10:04:59Z</time>
      </trkpt>
      <trkpt lat="41.5556750" lon="-8.7862900">
        <ele>9.8</ele>
        <time>2021-05-17T10:05:00Z</time>
      </trkpt>
      <trkpt lat="41.5556790" lon="-8.7862880">
        <ele>9.8</ele>
        <time>2021-05-17T10:05:01Z</time>
      </trkpt>
      <trkpt lat="41.5556990" lon="-8.7862700">
        <ele>9.9</ele>
        <time>2021-05-17T10:05:02Z</time>
      </trkpt>
      <trkpt lat="41.5557070" lon="-8.7862460">
        <ele>9.9</ele>
        <time>2021-05-17T10:05:03Z</time>
      </trkpt>
      <trkpt lat="41.5557150" lon="-8.7862370">
        <ele>9.9</ele>
        <time>2021-05-17T10:05:04Z</time>
      </trkpt>
      <trkpt lat="41.5557220" lon="-8.7862270">
        <ele>10.0</ele>
        <time>2021-05-17T10:05:05Z</time>
      </trkpt>
      <trkpt lat="41.5557290" lon="-8.7862030">
        <ele>10.0</ele>
        <time>2021-05-17T10:05:06Z</time>
      </trkpt>
      <trkpt lat="41.5557360" lon="-8.7861930">
        <ele>10.0</ele>
        <time>2021-05-17T10:05:07Z</time>
      </trkpt>
      <trkpt lat="41.5557500" lon="-8.7861700">
        <ele>10.1</ele>
        <time>2021-05-17T10:05:08Z</time>
      </trkpt>
      <trkpt lat="41.5557520" lon="-8.7861570">
        <ele>10.1</ele>
        <time>2021-05-17T10:05:09Z</time>
      </trkpt>
      <trkpt lat="41.5557550" lon="-8.7861450">
        <ele>10.1</ele>
        <time>2021-05-17T10:05:10Z</time>
      </trkpt>
      <trkpt lat="41.5557600" lon="-8.7861260">
        <ele>10.1</ele>
        <time>2021-05-17T10:05:11Z</time>
      </trkpt>
      <trkpt lat="41.5557710" lon="-8.7861040">
        <ele>10.2</ele>
        <time>2021-05-17T10:05:12Z</time>
      </trkpt>
      <trkpt lat="41.5557960" lon="-8.7860720">
        <ele>10.2</ele>
        <time>2021-05-17T10:05:13Z</time>
      </trkpt>
      <trkpt lat="41.5558020" lon="-8.7860630">
        <ele>10.3</ele>
        <time>2021-05-17T10:05:14Z</time>
      </trkpt>
      <trkpt lat="41.5558070" lon="-8.7860410">
        <ele>10.3</ele>
        <time>2021-05-17T10:05:15Z</time>
      </trkpt>
      <trkpt lat="41.5558150" lon="-8.7860230">
        <ele>10.3</ele>
        <time>2021-05-17T10:05:16Z</time>
      </trkpt>
      <trkpt lat="41.5558290" lon="-8.7859990">
        <ele>10.3</ele>
        <time>2021-05-17T10:05:17Z</time>
      </trkpt>
      <trkpt lat="41.5558350" lon="-8.7859910">
        <ele>10.4</ele>
        <time>2021-05-17T10:05:18Z</time>
      </trkpt>
      <trkpt lat="41.5558400" lon="-8.7859820">
        <ele>10.4</ele>
        <time>2021-05-17T10:05:19Z</time>
      </trkpt>
      <trkpt lat="41.5558500" lon="-8.7859580">
        <ele>10.4</ele>
        <time>2021-05-17T10:05:20Z</time>
      </trkpt>
      <trkpt lat="41.5558540" lon="-8.7859470">
        <ele>10.4</ele>
        <time>2021-05-17T10:05:21Z</time>
      </trkpt>
      <trkpt lat="41.5558570" lon="-8.7859360">
        <ele>10.4</ele>
        <time>2021-05-17T10:05:22Z</time>
      </trkpt>
      <trkpt lat="41.5558600" lon="-8.7859100">
        <ele>10.5</ele>
        <time>2021-05-17T10:05:23Z</time>
      </trkpt>
      <trkpt lat="41.5558590" lon="-8.7858940">
        <ele>10.5</ele>
        <time>2021-05-17T10:05:24Z</time>
      </trkpt>
      <trkpt lat="41.5558590" lon="-8.7858790">
        <ele>10.5</ele>
        <time>2021-05-17T10:05:25Z</time>
      </trkpt>
      <trkpt lat="41.5558670" lon="-8.7858600">
        <ele>10.5</ele>
        <time>2021-05-17T10:05:26Z</time>
      </trkpt>
      <trkpt lat="41.5558730" lon="-8.7858480">
        <ele>10.5</ele>
        <time>2021-05-17T10:05:27Z</time>
      </trkpt>
      <trkpt lat="41.5558770" lon="-8.7858280">
        <ele>10.6</ele>
        <time>2021-05-17T10:05:28Z</time>
      </trkpt>
      <trkpt lat="41.5558840" lon="-8.7858050">
        <ele>10.6</ele>
        <time>2021-05-17T10:05:29Z</time>
      </trkpt>
      <trkpt lat="41.5558930" lon="-8.7857770">
        <ele>10.6</ele>
        <time>2021-05-17T10:05:30Z</time>
      </trkpt>
      <trkpt lat="41.5558970" lon="-8.7857690">
        <ele>10.7</ele>
        <time>2021-05-17T10:05:31Z</time>
      </trkpt>
      <trkpt lat="41.5559010" lon="-8.7857600">
        <ele>10.7</ele>
        <time>2021-05-17T10:05:32Z</time>
      </trkpt>
      <trkpt lat="41.5559060" lon="-8.7857390">
        <ele>10.7</ele>
        <time>2021-05-17T10:05:33Z</time>
      </trkpt>
      <trkpt lat="41.5559040" lon="-8.7857280">
        <ele>10.7</ele>
        <time>2021-05-17T10:05:34Z</time>
      </trkpt>
      <trkpt lat="41.5559020" lon="-8.7857180">
        <ele>10.7</ele>
        <time>2021-05-17T10:05:35Z</time>
      </trkpt>
      <trkpt lat="41.5559000" lon="-8.7857070">
        <ele>10.7</ele>
        <time>2021-05-17T10:05:36Z</time>
      </trkpt>
      <trkpt lat="41.5559030" lon="-8.7856840">
        <ele>10.8</ele>
        <time>2021-05-17T10:05:37Z</time>
      </trkpt>
      <trkpt lat="41.5558990" lon="-8.7856600">
        <ele>10.8</ele>
        <time>2021-05-17T10:05:38Z</time>
      </trkpt>
      <trkpt lat="41.5559040" lon="-8.7856290">
        <ele>10.8</ele>
        <time>2021-05-17T10:05:39Z</time>
      </trkpt>
      <trkpt lat="41.5559060" lon="-8.7856130">
        <ele>10.8</ele>
        <time>2021-05-17T10:05:40Z</time>
      </trkpt>
      <trkpt lat="41.5559060" lon="-8.7855710">
        <ele>10.9</ele>
        <time>2021-05-17T10:05:41Z</time>
      </trkpt>
      <trkpt lat="41.5559060" lon="-8.7855590">
        <ele>10.9</ele>
        <time>2021-05-17T10:05:42Z</time>
      </trkpt>
      <trkpt lat="41.5559070" lon="-8.7855360">
        <ele>10.9</ele>
        <time>2021-05-17T10:05:43Z</time>
      </trkpt>
      <trkpt lat="41.5559020" lon="-8.7855120">
        <ele>10.9</ele>
        <time>2021-05-17T10:05:44Z</time>
      </trkpt>
      <trkpt lat="41.5559090" lon="-8.7854990">
        <ele>11.0</ele>
        <time>2021-05-17T10:05:45Z</time>
      </trkpt>
      <trkpt lat="41.5559160" lon="-8.7854880">
        <ele>11.0</ele>
        <time>2021-05-17T10:05:46Z</time>
      </trkpt>
      <trkpt lat="41.5559170" lon="-8.7854740">
        <ele>11.0</ele>
        <time>2021-05-17T10:05:47Z</time>
      </trkpt>
      <trkpt lat="41.5559170" lon="-8.7854410">
        <ele>11.0</ele>
        <time>2021-05-17T10:05:48Z</time>
      </trkpt>
      <trkpt lat="41.5559160" lon="-8.7854320">
        <ele>11.0</ele>
        <time>2021-05-17T10:05:49Z</time>
      </trkpt>
      <trkpt lat="41.5559150" lon="-8.7854220">
        <ele>11.0</ele>
        <time>2021-05-17T10:05:50Z</time>
      </trkpt>
      <trkpt lat="41.5559170" lon="-8.7854020">
        <ele>11.1</ele>
        <time>2021-05-17T10:05:51Z</time>
      </trkpt>
      <trkpt lat="41.5559220" lon="-8.7853790">
        <ele>11.1</ele>
        <time>2021-05-17T10:05:52Z</time>
      </trkpt>
      <trkpt lat="41.5559200" lon="-8.7853690">
        <ele>11.1</ele>
        <time>2021-05-17T10:05:53Z</time>
      </trkpt>
      <trkpt lat="41.5559200" lon="-8.7853380">
        <ele>11.1</ele>
        <time>2021-05-17T10:05:54Z</time>
      </trkpt>
      <trkpt lat="41.5559220" lon="-8.7853150">
        <ele>11.2</ele>
        <time>2021-05-17T10:05:55Z</time>
      </trkpt>
      <trkpt lat="41.5559250" lon="-8.7852930">
        <ele>11.2</ele>
        <time>2021-05-17T10:05:56Z</time>
      </trkpt>
      <trkpt lat="41.5559250" lon="-8.7852830">
        <ele>11.2</ele>
        <time>2021-05-17T10:05:57Z</time>
      </trkpt>
      <trkpt lat="41.5559320" lon="-8.7852640">
        <ele>11.2</ele>
        <time>2021-05-17T10:05:58Z</time>
      </trkpt>
      <trkpt lat="41.5559400" lon="-8.7852530">
        <ele>11.2</ele>
        <time>2021-05-17T10:05:59Z</time>
      </trkpt>
      <trkpt lat="41.5559500" lon="-8.7852470">
        <ele>11.2</ele>
        <time>2021-05-17T10:06:00Z</time>
      </trkpt>
      <trkpt lat="41.5559530" lon="-8.7852360">
        <ele>11.2</ele>
        <time>2021-05-17T10:06:01Z</time>
      </trkpt>
      <trkpt lat="41.5559530" lon="-8.7852200">
        <ele>11.2</ele>
        <time>2021-05-17T10:06:02Z</time>
      </trkpt>
      <trkpt lat="41.5559550" lon="-8.7852070">
        <ele>11.3</ele>
        <time>2021-05-17T10:06:03Z</time>
      </trkpt>
      <trkpt lat="41.5559560" lon="-8.7852000">
        <ele>11.3</ele>
        <time>2021-05-17T10:06:04Z</time>
      </trkpt>
      <trkpt lat="41.5559610" lon="-8.7851940">
        <ele>11.3</ele>
        <time>2021-05-17T10:06:05Z</time>
      </trkpt>
      <trkpt lat="41.5559630" lon="-8.7851800">
        <ele>11.3</ele>
        <time>2021-05-17T10:06:06Z</time>
      </trkpt>
      <trkpt lat="41.5559700" lon="-8.7851660">
        <ele>11.3</ele>
        <time>2021-05-17T10:06:07Z</time>
      </trkpt>
      <trkpt lat="41.5559770" lon="-8.7851540">
        <ele>11.3</ele>
        <time>2021-05-17T10:06:08Z</time>
      </trkpt>
      <trkpt lat="41.5559780" lon="-8.7851480">
        <ele>11.3</ele>
        <time>2021-05-17T10:06:09Z</time>
      </trkpt>
      <trkpt lat="41.5559810" lon="-8.7851470">
        <ele>11.3</ele>
        <time>2021-05-17T10:06:10Z</time>
      </trkpt>
      <trkpt lat="41.5559770" lon="-8.7851410">
        <ele>11.3</ele>
        <time>2021-05-17T10:06:11Z</time>
      </trkpt>
      <trkpt lat="41.5559750" lon="-8.7851450">
        <ele>11.3</ele>
        <time>2021-05-17T10:06:12Z</time>
      </trkpt>
      <trkpt lat="41.5559770" lon="-8.7851430">
        <ele>11.3</ele>
        <time>2021-05-17T10:06:13Z</time>
      </trkpt>
      <trkpt lat="41.5559810" lon="-8.7851450">
        <ele>11.3</ele>
        <time>2021-05-17T10:06:14Z</time>
      </trkpt>
      <trkpt lat="41.5559830" lon="-8.7851460">
        <ele>11.3</ele>
        <time>2021-05-17T10:06:15Z</time>
      </trkpt>
      <trkpt lat="41.5559850" lon="-8.7851520">
        <ele>11.3</ele>
        <time>2021-05-17T10:06:16Z</time>
      </trkpt>
      <trkpt lat="41.5559830" lon="-8.7851620">
        <ele>11.3</ele>
        <time>2021-05-17T10:06:17Z</time>
      </trkpt>
      <trkpt lat="41.5559750" lon="-8.7851670">
        <ele>11.3</ele>
        <time>2021-05-17T10:06:18Z</time>
      </trkpt>
      <trkpt lat="41.5559750" lon="-8.7851660">
        <ele>11.3</ele>
        <time>2021-05-17T10:06:19Z</time>
      </trkpt>
      <trkpt lat="41.5559760" lon="-8.7851650">
        <ele>11.3</ele>
        <time>2021-05-17T10:06:20Z</time>
      </trkpt>
      <trkpt lat="41.5559750" lon="-8.7851660">
        <ele>11.3</ele>
        <time>2021-05-17T10:06:21Z</time>
      </trkpt>
      <trkpt lat="41.5559740" lon="-8.7851640">
        <ele>11.3</ele>
        <time>2021-05-17T10:06:22Z</time>
      </trkpt>
      <trkpt lat="41.5559750" lon="-8.7851660">
        <ele>11.3</ele>
        <time>2021-05-17T10:06:23Z</time>
      </trkpt>
      <trkpt lat="41.5559740" lon="-8.7851660">
        <ele>11.3</ele>
        <time>2021-05-17T10:06:24Z</time>
      </trkpt>
      <trkpt lat="41.5559750" lon="-8.7851680">
        <ele>11.3</ele>
        <time>2021-05-17T10:06:25Z</time>
      </trkpt>
      <trkpt lat="41.5559690" lon="-8.7851680">
        <ele>11.4</ele>
        <time>2021-05-17T10:06:26Z</time>
      </trkpt>
      <trkpt lat="41.5559650" lon="-8.7851640">
        <ele>11.4</ele>
        <time>2021-05-17T10:06:27Z</time>
      </trkpt>
      <trkpt lat="41.5559670" lon="-8.7851460">
        <ele>11.4</ele>
        <time>2021-05-17T10:06:28Z</time>
      </trkpt>
      <trkpt lat="41.5559710" lon="-8.7851250">
        <ele>11.4</ele>
        <time>2021-05-17T10:06:29Z</time>
      </trkpt>
      <trkpt lat="41.5559830" lon="-8.7851120">
        <ele>11.4</ele>
        <time>2021-05-17T10:06:30Z</time>
      </trkpt>
      <trkpt lat="41.5560030" lon="-8.7850820">
        <ele>11.4</ele>
        <time>2021-05-17T10:06:31Z</time>
      </trkpt>
      <trkpt lat="41.5560100" lon="-8.7850660">
        <ele>11.4</ele>
        <time>2021-05-17T10:06:32Z</time>
      </trkpt>
      <trkpt lat="41.5560210" lon="-8.7850460">
        <ele>11.4</ele>
        <time>2021-05-17T10:06:33Z</time>
      </trkpt>
      <trkpt lat="41.5560330" lon="-8.7850320">
        <ele>11.4</ele>
        <time>2021-05-17T10:06:34Z</time>
      </trkpt>
      <trkpt lat="41.5560390" lon="-8.7850080">
        <ele>11.5</ele>
        <time>2021-05-17T10:06:35Z</time>
      </trkpt>
      <trkpt lat="41.5560440" lon="-8.7849940">
        <ele>11.5</ele>
        <time>2021-05-17T10:06:36Z</time>
      </trkpt>
      <trkpt lat="41.5560500" lon="-8.7849810">
        <ele>11.5</ele>
        <time>2021-05-17T10:06:37Z</time>
      </trkpt>
      <trkpt lat="41.5560600" lon="-8.7849510">
        <ele>11.5</ele>
        <time>2021-05-17T10:06:38Z</time>
      </trkpt>
      <trkpt lat="41.5560640" lon="-8.7849410">
        <ele>11.5</ele>
        <time>2021-05-17T10:06:39Z</time>
      </trkpt>
      <trkpt lat="41.5560670" lon="-8.7849300">
        <ele>11.5</ele>
        <time>2021-05-17T10:06:40Z</time>
      </trkpt>
      <trkpt lat="41.5560690" lon="-8.7849080">
        <ele>11.5</ele>
        <time>2021-05-17T10:06:41Z</time>
      </trkpt>
      <trkpt lat="41.5560780" lon="-8.7848920">
        <ele>11.5</ele>
        <time>2021-05-17T10:06:42Z</time>
      </trkpt>
      <trkpt lat="41.5560830" lon="-8.7848500">
        <ele>11.6</ele>
        <time>2021-05-17T10:06:43Z</time>
      </trkpt>
      <trkpt lat="41.5560850" lon="-8.7848420">
        <ele>11.6</ele>
        <time>2021-05-17T10:06:44Z</time>
      </trkpt>
      <trkpt lat="41.5560880" lon="-8.7848260">
        <ele>11.6</ele>
        <time>2021-05-17T10:06:45Z</time>
      </trkpt>
      <trkpt lat="41.5560990" lon="-8.7848070">
        <ele>11.6</ele>
        <time>2021-05-17T10:06:46Z</time>
      </trkpt>
      <trkpt lat="41.5561080" lon="-8.7847870">
        <ele>11.6</ele>
        <time>2021-05-17T10:06:47Z</time>
      </trkpt>
      <trkpt lat="41.5561130" lon="-8.7847710">
        <ele>11.6</ele>
        <time>2021-05-17T10:06:48Z</time>
      </trkpt>
      <trkpt lat="41.5561170" lon="-8.7847630">
        <ele>11.6</ele>
        <time>2021-05-17T10:06:49Z</time>
      </trkpt>
      <trkpt lat="41.5561200" lon="-8.7847450">
        <ele>11.7</ele>
        <time>2021-05-17T10:06:50Z</time>
      </trkpt>
      <trkpt lat="41.5561240" lon="-8.7847310">
        <ele>11.7</ele>
        <time>2021-05-17T10:06:51Z</time>
      </trkpt>
      <trkpt lat="41.5561310" lon="-8.7847100">
        <ele>11.7</ele>
        <time>2021-05-17T10:06:52Z</time>
      </trkpt>
      <trkpt lat="41.5561480" lon="-8.7847030">
        <ele>11.7</ele>
        <time>2021-05-17T10:06:53Z</time>
      </trkpt>
      <trkpt lat="41.5561580" lon="-8.7846790">
        <ele>11.7</ele>
        <time>2021-05-17T10:06:54Z</time>
      </trkpt>
      <trkpt lat="41.5561600" lon="-8.7846660">
        <ele>11.7</ele>
        <time>2021-05-17T10:06:55Z</time>
      </trkpt>
      <trkpt lat="41.5561620" lon="-8.7846530">
        <ele>11.7</ele>
        <time>2021-05-17T10:06:56Z</time>
      </trkpt>
      <trkpt lat="41.5561650" lon="-8.7846350">
        <ele>11.7</ele>
        <time>2021-05-17T10:06:57Z</time>
      </trkpt>
      <trkpt lat="41.5561620" lon="-8.7846180">
        <ele>11.8</ele>
        <time>2021-05-17T10:06:58Z</time>
      </trkpt>
      <trkpt lat="41.5561670" lon="-8.7846080">
        <ele>11.8</ele>
        <time>2021-05-17T10:06:59Z</time>
      </trkpt>
      <trkpt lat="41.5561750" lon="-8.7845910">
        <ele>11.8</ele>
        <time>2021-05-17T10:07:00Z</time>
      </trkpt>
      <trkpt lat="41.5561810" lon="-8.7845730">
        <ele>11.8</ele>
        <time>2021-05-17T10:07:01Z</time>
      </trkpt>
      <trkpt lat="41.5561870" lon="-8.7845490">
        <ele>11.8</ele>
        <time>2021-05-17T10:07:02Z</time>
      </trkpt>
      <trkpt lat="41.5561860" lon="-8.7845300">
        <ele>11.8</ele>
        <time>2021-05-17T10:07:03Z</time>
      </trkpt>
      <trkpt lat="41.5561820" lon="-8.7845120">
        <ele>11.8</ele>
        <time>2021-05-17T10:07:04Z</time>
      </trkpt>
      <trkpt lat="41.5561920" lon="-8.7844890">
        <ele>11.8</ele>
        <time>2021-05-17T10:07:05Z</time>
      </trkpt>
      <trkpt lat="41.5562040" lon="-8.7844680">
        <ele>11.8</ele>
        <time>2021-05-17T10:07:06Z</time>
      </trkpt>
      <trkpt lat="41.5562140" lon="-8.7844560">
        <ele>11.8</ele>
        <time>2021-05-17T10:07:07Z</time>
      </trkpt>
      <trkpt lat="41.5562170" lon="-8.7844290">
        <ele>11.8</ele>
        <time>2021-05-17T10:07:08Z</time>
      </trkpt>
      <trkpt lat="41.5562210" lon="-8.7844130">
        <ele>11.9</ele>
        <time>2021-05-17T10:07:09Z</time>
      </trkpt>
      <trkpt lat="41.5562240" lon="-8.7843980">
        <ele>11.9</ele>
        <time>2021-05-17T10:07:10Z</time>
      </trkpt>
      <trkpt lat="41.5562290" lon="-8.7843830">
        <ele>11.9</ele>
        <time>2021-05-17T10:07:11Z</time>
      </trkpt>
      <trkpt lat="41.5562390" lon="-8.7843600">
        <ele>11.9</ele>
        <time>2021-05-17T10:07:12Z</time>
      </trkpt>
      <trkpt lat="41.5562460" lon="-8.7843360">
        <ele>11.9</ele>
        <time>2021-05-17T10:07:13Z</time>
      </trkpt>
      <trkpt lat="41.5562500" lon="-8.7843250">
        <ele>11.9</ele>
        <time>2021-05-17T10:07:14Z</time>
      </trkpt>
      <trkpt lat="41.5562540" lon="-8.7843150">
        <ele>11.9</ele>
        <time>2021-05-17T10:07:15Z</time>
      </trkpt>
      <trkpt lat="41.5562610" lon="-8.7842970">
        <ele>12.0</ele>
        <time>2021-05-17T10:07:16Z</time>
      </trkpt>
      <trkpt lat="41.5562630" lon="-8.7842760">
        <ele>12.0</ele>
        <time>2021-05-17T10:07:17Z</time>
      </trkpt>
      <trkpt lat="41.5562630" lon="-8.7842520">
        <ele>12.0</ele>
        <time>2021-05-17T10:07:18Z</time>
      </trkpt>
      <trkpt lat="41.5562740" lon="-8.7842390">
        <ele>12.0</ele>
        <time>2021-05-17T10:07:19Z</time>
      </trkpt>
      <trkpt lat="41.5562790" lon="-8.7841990">
        <ele>12.1</ele>
        <time>2021-05-17T10:07:20Z</time>
      </trkpt>
      <trkpt lat="41.5562830" lon="-8.7841860">
        <ele>12.1</ele>
        <time>2021-05-17T10:07:21Z</time>
      </trkpt>
      <trkpt lat="41.5562800" lon="-8.7841640">
        <ele>12.1</ele>
        <time>2021-05-17T10:07:22Z</time>
      </trkpt>
      <trkpt lat="41.5562900" lon="-8.7841410">
        <ele>12.2</ele>
        <time>2021-05-17T10:07:23Z</time>
      </trkpt>
      <trkpt lat="41.5562900" lon="-8.7841180">
        <ele>12.2</ele>
        <time>2021-05-17T10:07:24Z</time>
      </trkpt>
      <trkpt lat="41.5562930" lon="-8.7841010">
        <ele>12.2</ele>
        <time>2021-05-17T10:07:25Z</time>
      </trkpt>
      <trkpt lat="41.5562930" lon="-8.7840780">
        <ele>12.3</ele>
        <time>2021-05-17T10:07:26Z</time>
      </trkpt>
      <trkpt lat="41.5562940" lon="-8.7840570">
        <ele>12.3</ele>
        <time>2021-05-17T10:07:27Z</time>
      </trkpt>
      <trkpt lat="41.5563000" lon="-8.7840380">
        <ele>12.3</ele>
        <time>2021-05-17T10:07:28Z</time>
      </trkpt>
      <trkpt lat="41.5562980" lon="-8.7840190">
        <ele>12.3</ele>
        <time>2021-05-17T10:07:29Z</time>
      </trkpt>
      <trkpt lat="41.5562960" lon="-8.7839960">
        <ele>12.4</ele>
        <time>2021-05-17T10:07:30Z</time>
      </trkpt>
      <trkpt lat="41.5563020" lon="-8.7839790">
        <ele>12.4</ele>
        <time>2021-05-17T10:07:31Z</time>
      </trkpt>
      <trkpt lat="41.5563000" lon="-8.7839590">
        <ele>12.4</ele>
        <time>2021-05-17T10:07:32Z</time>
      </trkpt>
      <trkpt lat="41.5563100" lon="-8.7839430">
        <ele>12.5</ele>
        <time>2021-05-17T10:07:33Z</time>
      </trkpt>
      <trkpt lat="41.5563090" lon="-8.7839180">
        <ele>12.5</ele>
        <time>2021-05-17T10:07:34Z</time>
      </trkpt>
      <trkpt lat="41.5563050" lon="-8.7839060">
        <ele>12.5</ele>
        <time>2021-05-17T10:07:35Z</time>
      </trkpt>
      <trkpt lat="41.5563020" lon="-8.7838930">
        <ele>12.6</ele>
        <time>2021-05-17T10:07:36Z</time>
      </trkpt>
      <trkpt lat="41.5563050" lon="-8.7838820">
        <ele>12.6</ele>
        <time>2021-05-17T10:07:37Z</time>
      </trkpt>
      <trkpt lat="41.5563070" lon="-8.7838550">
        <ele>12.6</ele>
        <time>2021-05-17T10:07:38Z</time>
      </trkpt>
      <trkpt lat="41.5563100" lon="-8.7838400">
        <ele>12.6</ele>
        <time>2021-05-17T10:07:39Z</time>
      </trkpt>
      <trkpt lat="41.5563120" lon="-8.7838260">
        <ele>12.7</ele>
        <time>2021-05-17T10:07:40Z</time>
      </trkpt>
      <trkpt lat="41.5563150" lon="-8.7838120">
        <ele>12.7</ele>
        <time>2021-05-17T10:07:41Z</time>
      </trkpt>
      <trkpt lat="41.5563140" lon="-8.7837970">
        <ele>12.7</ele>
        <time>2021-05-17T10:07:42Z</time>
      </trkpt>
      <trkpt lat="41.5563160" lon="-8.7837830">
        <ele>12.7</ele>
        <time>2021-05-17T10:07:43Z</time>
      </trkpt>
      <trkpt lat="41.5563200" lon="-8.7837710">
        <ele>12.8</ele>
        <time>2021-05-17T10:07:44Z</time>
      </trkpt>
      <trkpt lat="41.5563230" lon="-8.7837510">
        <ele>12.8</ele>
        <time>2021-05-17T10:07:45Z</time>
      </trkpt>
      <trkpt lat="41.5563180" lon="-8.7837270">
        <ele>12.9</ele>
        <time>2021-05-17T10:07:46Z</time>
      </trkpt>
      <trkpt lat="41.5563270" lon="-8.7836940">
        <ele>12.9</ele>
        <time>2021-05-17T10:07:47Z</time>
      </trkpt>
      <trkpt lat="41.5563290" lon="-8.7836830">
        <ele>12.9</ele>
        <time>2021-05-17T10:07:48Z</time>
      </trkpt>
      <trkpt lat="41.5563310" lon="-8.7836710">
        <ele>13.0</ele>
        <time>2021-05-17T10:07:49Z</time>
      </trkpt>
      <trkpt lat="41.5563340" lon="-8.7836570">
        <ele>13.0</ele>
        <time>2021-05-17T10:07:50Z</time>
      </trkpt>
      <trkpt lat="41.5563360" lon="-8.7836420">
        <ele>13.0</ele>
        <time>2021-05-17T10:07:51Z</time>
      </trkpt>
      <trkpt lat="41.5563400" lon="-8.7836290">
        <ele>13.1</ele>
        <time>2021-05-17T10:07:52Z</time>
      </trkpt>
      <trkpt lat="41.5563440" lon="-8.7836060">
        <ele>13.1</ele>
        <time>2021-05-17T10:07:53Z</time>
      </trkpt>
      <trkpt lat="41.5563430" lon="-8.7835910">
        <ele>13.1</ele>
        <time>2021-05-17T10:07:54Z</time>
      </trkpt>
      <trkpt lat="41.5563480" lon="-8.7835770">
        <ele>13.2</ele>
        <time>2021-05-17T10:07:55Z</time>
      </trkpt>
      <trkpt lat="41.5563550" lon="-8.7835590">
        <ele>13.2</ele>
        <time>2021-05-17T10:07:56Z</time>
      </trkpt>
      <trkpt lat="41.5563660" lon="-8.7835280">
        <ele>13.3</ele>
        <time>2021-05-17T10:07:57Z</time>
      </trkpt>
      <trkpt lat="41.5563690" lon="-8.7835180">
        <ele>13.3</ele>
        <time>2021-05-17T10:07:58Z</time>
      </trkpt>
      <trkpt lat="41.5563710" lon="-8.7835070">
        <ele>13.4</ele>
        <time>2021-05-17T10:07:59Z</time>
      </trkpt>
      <trkpt lat="41.5563710" lon="-8.7834970">
        <ele>13.4</ele>
        <time>2021-05-17T10:08:00Z</time>
      </trkpt>
      <trkpt lat="41.5563740" lon="-8.7834780">
        <ele>13.4</ele>
        <time>2021-05-17T10:08:01Z</time>
      </trkpt>
      <trkpt lat="41.5563760" lon="-8.7834600">
        <ele>13.5</ele>
        <time>2021-05-17T10:08:02Z</time>
      </trkpt>
      <trkpt lat="41.5563840" lon="-8.7834450">
        <ele>13.5</ele>
        <time>2021-05-17T10:08:03Z</time>
      </trkpt>
      <trkpt lat="41.5563910" lon="-8.7834240">
        <ele>13.6</ele>
        <time>2021-05-17T10:08:04Z</time>
      </trkpt>
      <trkpt lat="41.5563990" lon="-8.7834090">
        <ele>13.6</ele>
        <time>2021-05-17T10:08:05Z</time>
      </trkpt>
      <trkpt lat="41.5564030" lon="-8.7833980">
        <ele>13.6</ele>
        <time>2021-05-17T10:08:06Z</time>
      </trkpt>
      <trkpt lat="41.5564050" lon="-8.7833820">
        <ele>13.7</ele>
        <time>2021-05-17T10:08:07Z</time>
      </trkpt>
      <trkpt lat="41.5564100" lon="-8.7833620">
        <ele>13.7</ele>
        <time>2021-05-17T10:08:08Z</time>
      </trkpt>
      <trkpt lat="41.5564110" lon="-8.7833540">
        <ele>13.8</ele>
        <time>2021-05-17T10:08:09Z</time>
      </trkpt>
      <trkpt lat="41.5564130" lon="-8.7833390">
        <ele>13.8</ele>
        <time>2021-05-17T10:08:10Z</time>
      </trkpt>
      <trkpt lat="41.5564150" lon="-8.7833290">
        <ele>13.8</ele>
        <time>2021-05-17T10:08:11Z</time>
      </trkpt>
      <trkpt lat="41.5564250" lon="-8.7833170">
        <ele>14.0</ele>
        <time>2021-05-17T10:08:12Z</time>
      </trkpt>
      <trkpt lat="41.5564250" lon="-8.7833140">
        <ele>14.0</ele>
        <time>2021-05-17T10:08:13Z</time>
      </trkpt>
      <trkpt lat="41.5564240" lon="-8.7833140">
        <ele>14.0</ele>
        <time>2021-05-17T10:08:14Z</time>
      </trkpt>
      <trkpt lat="41.5564250" lon="-8.7833170">
        <ele>14.0</ele>
        <time>2021-05-17T10:08:15Z</time>
      </trkpt>
      <trkpt lat="41.5564260" lon="-8.7833170">
        <ele>14.0</ele>
        <time>2021-05-17T10:08:16Z</time>
      </trkpt>
      <trkpt lat="41.5564210" lon="-8.7833110">
        <ele>14.0</ele>
        <time>2021-05-17T10:08:17Z</time>
      </trkpt>
      <trkpt lat="41.5564190" lon="-8.7833110">
        <ele>14.0</ele>
        <time>2021-05-17T10:08:18Z</time>
      </trkpt>
      <trkpt lat="41.5564190" lon="-8.7833110">
        <ele>14.0</ele>
        <time>2021-05-17T10:08:19Z</time>
      </trkpt>
      <trkpt lat="41.5564170" lon="-8.7833090">
        <ele>14.0</ele>
        <time>2021-05-17T10:08:20Z</time>
      </trkpt>
      <trkpt lat="41.5564170" lon="-8.7833090">
        <ele>14.0</ele>
        <time>2021-05-17T10:08:21Z</time>
      </trkpt>
      <trkpt lat="41.5564160" lon="-8.7833030">
        <ele>14.0</ele>
        <time>2021-05-17T10:08:22Z</time>
      </trkpt>
      <trkpt lat="41.5564150" lon="-8.7833010">
        <ele>14.0</ele>
        <time>2021-05-17T10:08:23Z</time>
      </trkpt>
      <trkpt lat="41.5564170" lon="-8.7832990">
        <ele>14.0</ele>
        <time>2021-05-17T10:08:24Z</time>
      </trkpt>
      <trkpt lat="41.5564190" lon="-8.7832960">
        <ele>14.0</ele>
        <time>2021-05-17T10:08:25Z</time>
      </trkpt>
      <trkpt lat="41.5564210" lon="-8.7832940">
        <ele>14.0</ele>
        <time>2021-05-17T10:08:26Z</time>
      </trkpt>
      <trkpt lat="41.5564230" lon="-8.7832920">
        <ele>14.0</ele>
        <time>2021-05-17T10:08:27Z</time>
      </trkpt>
      <trkpt lat="41.5564250" lon="-8.7832900">
        <ele>14.0</ele>
        <time>2021-05-17T10:08:28Z</time>
      </trkpt>
      <trkpt lat="41.5564270" lon="-8.7832870">
        <ele>14.0</ele>
        <time>2021-05-17T10:08:29Z</time>
      </trkpt>
      <trkpt lat="41.5564300" lon="-8.7832850">
        <ele>14.0</ele>
        <time>2021-05-17T10:08:30Z</time>
      </trkpt>
      <trkpt lat="41.5564320" lon="-8.7832830">
        <ele>14.0</ele>
        <time>2021-05-17T10:08:31Z</time>
      </trkpt>
      <trkpt lat="41.5564340" lon="-8.7832810">
        <ele>14.0</ele>
        <time>2021-05-17T10:08:32Z</time>
      </trkpt>
      <trkpt lat="41.5564360" lon="-8.7832780">
        <ele>14.0</ele>
        <time>2021-05-17T10:08:33Z</time>
      </trkpt>
      <trkpt lat="41.5564380" lon="-8.7832760">
        <ele>14.0</ele>
        <time>2021-05-17T10:08:34Z</time>
      </trkpt>
      <trkpt lat="41.5564400" lon="-8.7832740">
        <ele>14.0</ele>
        <time>2021-05-17T10:08:35Z</time>
      </trkpt>
      <trkpt lat="41.5564420" lon="-8.7832720">
        <ele>14.0</ele>
        <time>2021-05-17T10:08:36Z</time>
      </trkpt>
      <trkpt lat="41.5564440" lon="-8.7832690">
        <ele>14.0</ele>
        <time>2021-05-17T10:08:37Z</time>
      </trkpt>
      <trkpt lat="41.5564460" lon="-8.7832670">
        <ele>14.0</ele>
        <time>2021-05-17T10:08:38Z</time>
      </trkpt>
      <trkpt lat="41.5564480" lon="-8.7832650">
        <ele>14.0</ele>
        <time>2021-05-17T10:08:39Z</time>
      </trkpt>
      <trkpt lat="41.5564500" lon="-8.7832630">
        <ele>14.0</ele>
        <time>2021-05-17T10:08:40Z</time>
      </trkpt>
      <trkpt lat="41.5564520" lon="-8.7832600">
        <ele>14.0</ele>
        <time>2021-05-17T10:08:41Z</time>
      </trkpt>
      <trkpt lat="41.5564550" lon="-8.7832580">
        <ele>14.0</ele>
        <time>2021-05-17T10:08:42Z</time>
      </trkpt>
      <trkpt lat="41.5564570" lon="-8.7832560">
        <ele>14.0</ele>
        <time>2021-05-17T10:08:43Z</time>
      </trkpt>
      <trkpt lat="41.5564590" lon="-8.7832540">
        <ele>14.0</ele>
        <time>2021-05-17T10:08:44Z</time>
      </trkpt>
      <trkpt lat="41.5564610" lon="-8.7832510">
        <ele>14.0</ele>
        <time>2021-05-17T10:08:45Z</time>
      </trkpt>
      <trkpt lat="41.5564630" lon="-8.7832490">
        <ele>14.1</ele>
        <time>2021-05-17T10:08:46Z</time>
      </trkpt>
      <trkpt lat="41.5564650" lon="-8.7832470">
        <ele>14.1</ele>
        <time>2021-05-17T10:08:47Z</time>
      </trkpt>
      <trkpt lat="41.5564670" lon="-8.7832450">
        <ele>14.1</ele>
        <time>2021-05-17T10:08:48Z</time>
      </trkpt>
      <trkpt lat="41.5564690" lon="-8.7832420">
        <ele>14.1</ele>
        <time>2021-05-17T10:08:49Z</time>
      </trkpt>
      <trkpt lat="41.5564710" lon="-8.7832400">
        <ele>14.1</ele>
        <time>2021-05-17T10:08:50Z</time>
      </trkpt>
      <trkpt lat="41.5564730" lon="-8.7832380">
        <ele>14.1</ele>
        <time>2021-05-17T10:08:51Z</time>
      </trkpt>
      <trkpt lat="41.5564750" lon="-8.7832350">
        <ele>14.1</ele>
        <time>2021-05-17T10:08:52Z</time>
      </trkpt>
      <trkpt lat="41.5564770" lon="-8.7832330">
        <ele>14.1</ele>
        <time>2021-05-17T10:08:53Z</time>
      </trkpt>
      <trkpt lat="41.5564790" lon="-8.7832310">
        <ele>14.1</ele>
        <time>2021-05-17T10:08:54Z</time>
      </trkpt>
      <trkpt lat="41.5564820" lon="-8.7832290">
        <ele>14.1</ele>
        <time>2021-05-17T10:08:55Z</time>
      </trkpt>
      <trkpt lat="41.5564840" lon="-8.7832260">
        <ele>14.1</ele>
        <time>2021-05-17T10:08:56Z</time>
      </trkpt>
      <trkpt lat="41.5564860" lon="-8.7832240">
        <ele>14.1</ele>
        <time>2021-05-17T10:08:57Z</time>
      </trkpt>
      <trkpt lat="41.5564880" lon="-8.7832220">
        <ele>14.1</ele>
        <time>2021-05-17T10:08:58Z</time>
      </trkpt>
      <trkpt lat="41.5564900" lon="-8.7832200">
        <ele>14.2</ele>
        <time>2021-05-17T10:08:59Z</time>
      </trkpt>
      <trkpt lat="41.5564920" lon="-8.7832170">
        <ele>14.2</ele>
        <time>2021-05-17T10:09:00Z</time>
      </trkpt>
      <trkpt lat="41.5564940" lon="-8.7832150">
        <ele>14.2</ele>
        <time>2021-05-17T10:09:01Z</time>
      </trkpt>
      <trkpt lat="41.5564960" lon="-8.7832130">
        <ele>14.2</ele>
        <time>2021-05-17T10:09:02Z</time>
      </trkpt>
      <trkpt lat="41.5564980" lon="-8.7832110">
        <ele>14.2</ele>
        <time>2021-05-17T10:09:03Z</time>
      </trkpt>
      <trkpt lat="41.5565000" lon="-8.7832080">
        <ele>14.2</ele>
        <time>2021-05-17T10:09:04Z</time>
      </trkpt>
      <trkpt lat="41.5565020" lon="-8.7832060">
        <ele>14.2</ele>
        <time>2021-05-17T10:09:05Z</time>
      </trkpt>
      <trkpt lat="41.5565040" lon="-8.7832040">
        <ele>14.2</ele>
        <time>2021-05-17T10:09:06Z</time>
      </trkpt>
      <trkpt lat="41.5565070" lon="-8.7832020">
        <ele>14.2</ele>
        <time>2021-05-17T10:09:07Z</time>
      </trkpt>
      <trkpt lat="41.5565090" lon="-8.7831990">
        <ele>14.2</ele>
        <time>2021-05-17T10:09:08Z</time>
      </trkpt>
      <trkpt lat="41.5565110" lon="-8.7831970">
        <ele>14.2</ele>
        <time>2021-05-17T10:09:09Z</time>
      </trkpt>
      <trkpt lat="41.5565130" lon="-8.7831950">
        <ele>14.2</ele>
        <time>2021-05-17T10:09:10Z</time>
      </trkpt>
      <trkpt lat="41.5565150" lon="-8.7831930">
        <ele>14.2</ele>
        <time>2021-05-17T10:09:11Z</time>
      </trkpt>
      <trkpt lat="41.5565170" lon="-8.7831900">
        <ele>14.3</ele>
        <time>2021-05-17T10:09:12Z</time>
      </trkpt>
      <trkpt lat="41.5565190" lon="-8.7831880">
        <ele>14.3</ele>
        <time>2021-05-17T10:09:13Z</time>
      </trkpt>
      <trkpt lat="41.5565090" lon="-8.7831750">
        <ele>14.3</ele>
        <time>2021-05-17T10:09:14Z</time>
      </trkpt>
      <trkpt lat="41.5565080" lon="-8.7831500">
        <ele>14.3</ele>
        <time>2021-05-17T10:09:15Z</time>
      </trkpt>
      <trkpt lat="41.5565000" lon="-8.7831360">
        <ele>14.4</ele>
        <time>2021-05-17T10:09:16Z</time>
      </trkpt>
      <trkpt lat="41.5564990" lon="-8.7831230">
        <ele>14.4</ele>
        <time>2021-05-17T10:09:17Z</time>
      </trkpt>
      <trkpt lat="41.5564940" lon="-8.7831090">
        <ele>14.4</ele>
        <time>2021-05-17T10:09:18Z</time>
      </trkpt>
      <trkpt lat="41.5565020" lon="-8.7830890">
        <ele>14.5</ele>
        <time>2021-05-17T10:09:19Z</time>
      </trkpt>
      <trkpt lat="41.5565070" lon="-8.7830690">
        <ele>14.5</ele>
        <time>2021-05-17T10:09:20Z</time>
      </trkpt>
      <trkpt lat="41.5565190" lon="-8.7830390">
        <ele>14.6</ele>
        <time>2021-05-17T10:09:21Z</time>
      </trkpt>
      <trkpt lat="41.5565240" lon="-8.7830290">
        <ele>14.6</ele>
        <time>2021-05-17T10:09:22Z</time>
      </trkpt>
      <trkpt lat="41.5565280" lon="-8.7830180">
        <ele>14.6</ele>
        <time>2021-05-17T10:09:23Z</time>
      </trkpt>
      <trkpt lat="41.5565320" lon="-8.7830050">
        <ele>14.7</ele>
        <time>2021-05-17T10:09:24Z</time>
      </trkpt>
      <trkpt lat="41.5565440" lon="-8.7829840">
        <ele>14.7</ele>
        <time>2021-05-17T10:09:25Z</time>
      </trkpt>
      <trkpt lat="41.5565490" lon="-8.7829680">
        <ele>14.7</ele>
        <time>2021-05-17T10:09:26Z</time>
      </trkpt>
      <trkpt lat="41.5565610" lon="-8.7829460">
        <ele>14.8</ele>
        <time>2021-05-17T10:09:27Z</time>
      </trkpt>
      <trkpt lat="41.5565680" lon="-8.7829230">
        <ele>14.8</ele>
        <time>2021-05-17T10:09:28Z</time>
      </trkpt>
      <trkpt lat="41.5565710" lon="-8.7829090">
        <ele>14.9</ele>
        <time>2021-05-17T10:09:29Z</time>
      </trkpt>
      <trkpt lat="41.5565730" lon="-8.7828940">
        <ele>14.9</ele>
        <time>2021-05-17T10:09:30Z</time>
      </trkpt>
      <trkpt lat="41.5565850" lon="-8.7828650">
        <ele>15.0</ele>
        <time>2021-05-17T10:09:31Z</time>
      </trkpt>
      <trkpt lat="41.5565900" lon="-8.7828550">
        <ele>15.0</ele>
        <time>2021-05-17T10:09:32Z</time>
      </trkpt>
      <trkpt lat="41.5565940" lon="-8.7828450">
        <ele>15.0</ele>
        <time>2021-05-17T10:09:33Z</time>
      </trkpt>
      <trkpt lat="41.5565970" lon="-8.7828330">
        <ele>15.1</ele>
        <time>2021-05-17T10:09:34Z</time>
      </trkpt>
      <trkpt lat="41.5566010" lon="-8.7828240">
        <ele>15.1</ele>
        <time>2021-05-17T10:09:35Z</time>
      </trkpt>
      <trkpt lat="41.5565970" lon="-8.7828070">
        <ele>15.1</ele>
        <time>2021-05-17T10:09:36Z</time>
      </trkpt>
      <trkpt lat="41.5566160" lon="-8.7827720">
        <ele>15.2</ele>
        <time>2021-05-17T10:09:37Z</time>
      </trkpt>
      <trkpt lat="41.5566170" lon="-8.7827600">
        <ele>15.2</ele>
        <time>2021-05-17T10:09:38Z</time>
      </trkpt>
      <trkpt lat="41.5566340" lon="-8.7827390">
        <ele>15.3</ele>
        <time>2021-05-17T10:09:39Z</time>
      </trkpt>
      <trkpt lat="41.5566420" lon="-8.7827280">
        <ele>15.3</ele>
        <time>2021-05-17T10:09:40Z</time>
      </trkpt>
      <trkpt lat="41.5566490" lon="-8.7827170">
        <ele>15.3</ele>
        <time>2021-05-17T10:09:41Z</time>
      </trkpt>
      <trkpt lat="41.5566510" lon="-8.7826850">
        <ele>15.3</ele>
        <time>2021-05-17T10:09:42Z</time>
      </trkpt>
      <trkpt lat="41.5566540" lon="-8.7826730">
        <ele>15.3</ele>
        <time>2021-05-17T10:09:43Z</time>
      </trkpt>
      <trkpt lat="41.5566560" lon="-8.7826600">
        <ele>15.4</ele>
        <time>2021-05-17T10:09:44Z</time>
      </trkpt>
      <trkpt lat="41.5566670" lon="-8.7826320">
        <ele>15.4</ele>
        <time>2021-05-17T10:09:45Z</time>
      </trkpt>
      <trkpt lat="41.5566680" lon="-8.7826220">
        <ele>15.4</ele>
        <time>2021-05-17T10:09:46Z</time>
      </trkpt>
      <trkpt lat="41.5566700" lon="-8.7826130">
        <ele>15.4</ele>
        <time>2021-05-17T10:09:47Z</time>
      </trkpt>
      <trkpt lat="41.5566750" lon="-8.7825920">
        <ele>15.4</ele>
        <time>2021-05-17T10:09:48Z</time>
      </trkpt>
      <trkpt lat="41.5566780" lon="-8.7825730">
        <ele>15.5</ele>
        <time>2021-05-17T10:09:49Z</time>
      </trkpt>
      <trkpt lat="41.5566830" lon="-8.7825550">
        <ele>15.5</ele>
        <time>2021-05-17T10:09:50Z</time>
      </trkpt>
      <trkpt lat="41.5566870" lon="-8.7825390">
        <ele>15.5</ele>
        <time>2021-05-17T10:09:51Z</time>
      </trkpt>
      <trkpt lat="41.5566930" lon="-8.7825200">
        <ele>15.5</ele>
        <time>2021-05-17T10:09:52Z</time>
      </trkpt>
      <trkpt lat="41.5567050" lon="-8.7825000">
        <ele>15.6</ele>
        <time>2021-05-17T10:09:53Z</time>
      </trkpt>
      <trkpt lat="41.5567110" lon="-8.7824800">
        <ele>15.6</ele>
        <time>2021-05-17T10:09:54Z</time>
      </trkpt>
      <trkpt lat="41.5567160" lon="-8.7824650">
        <ele>15.6</ele>
        <time>2021-05-17T10:09:55Z</time>
      </trkpt>
      <trkpt lat="41.5567170" lon="-8.7824480">
        <ele>15.6</ele>
        <time>2021-05-17T10:09:56Z</time>
      </trkpt>
      <trkpt lat="41.5567240" lon="-8.7824320">
        <ele>15.6</ele>
        <time>2021-05-17T10:09:57Z</time>
      </trkpt>
      <trkpt lat="41.5567240" lon="-8.7824230">
        <ele>15.7</ele>
        <time>2021-05-17T10:09:58Z</time>
      </trkpt>
      <trkpt lat="41.5567300" lon="-8.7823980">
        <ele>15.7</ele>
        <time>2021-05-17T10:09:59Z</time>
      </trkpt>
      <trkpt lat="41.5567310" lon="-8.7823850">
        <ele>15.7</ele>
        <time>2021-05-17T10:10:00Z</time>
      </trkpt>
      <trkpt lat="41.5567360" lon="-8.7823690">
        <ele>15.8</ele>
        <time>2021-05-17T10:10:01Z</time>
      </trkpt>
      <trkpt lat="41.5567360" lon="-8.7823560">
        <ele>15.8</ele>
        <time>2021-05-17T10:10:02Z</time>
      </trkpt>
      <trkpt lat="41.5567410" lon="-8.7823460">
        <ele>15.8</ele>
        <time>2021-05-17T10:10:03Z</time>
      </trkpt>
      <trkpt lat="41.5567470" lon="-8.7823270">
        <ele>15.8</ele>
        <time>2021-05-17T10:10:04Z</time>
      </trkpt>
      <trkpt lat="41.5567500" lon="-8.7823060">
        <ele>15.9</ele>
        <time>2021-05-17T10:10:05Z</time>
      </trkpt>
      <trkpt lat="41.5567590" lon="-8.7822850">
        <ele>15.9</ele>
        <time>2021-05-17T10:10:06Z</time>
      </trkpt>
      <trkpt lat="41.5567620" lon="-8.7822670">
        <ele>15.9</ele>
        <time>2021-05-17T10:10:07Z</time>
      </trkpt>
      <trkpt lat="41.5567720" lon="-8.7822420">
        <ele>16.0</ele>
        <time>2021-05-17T10:10:08Z</time>
      </trkpt>
      <trkpt lat="41.5567760" lon="-8.7822290">
        <ele>16.0</ele>
        <time>2021-05-17T10:10:09Z</time>
      </trkpt>
      <trkpt lat="41.5567810" lon="-8.7822150">
        <ele>16.0</ele>
        <time>2021-05-17T10:10:10Z</time>
      </trkpt>
      <trkpt lat="41.5567810" lon="-8.7821880">
        <ele>16.1</ele>
        <time>2021-05-17T10:10:11Z</time>
      </trkpt>
      <trkpt lat="41.5567840" lon="-8.7821780">
        <ele>16.1</ele>
        <time>2021-05-17T10:10:12Z</time>
      </trkpt>
      <trkpt lat="41.5567860" lon="-8.7821670">
        <ele>16.1</ele>
        <time>2021-05-17T10:10:13Z</time>
      </trkpt>
      <trkpt lat="41.5567930" lon="-8.7821400">
        <ele>16.1</ele>
        <time>2021-05-17T10:10:14Z</time>
      </trkpt>
      <trkpt lat="41.5567990" lon="-8.7821300">
        <ele>16.2</ele>
        <time>2021-05-17T10:10:15Z</time>
      </trkpt>
      <trkpt lat="41.5568060" lon="-8.7821200">
        <ele>16.2</ele>
        <time>2021-05-17T10:10:16Z</time>
      </trkpt>
      <trkpt lat="41.5568130" lon="-8.7820930">
        <ele>16.2</ele>
        <time>2021-05-17T10:10:17Z</time>
      </trkpt>
      <trkpt lat="41.5568180" lon="-8.7820830">
        <ele>16.2</ele>
        <time>2021-05-17T10:10:18Z</time>
      </trkpt>
      <trkpt lat="41.5568220" lon="-8.7820730">
        <ele>16.2</ele>
        <time>2021-05-17T10:10:19Z</time>
      </trkpt>
      <trkpt lat="41.5568290" lon="-8.7820580">
        <ele>16.3</ele>
        <time>2021-05-17T10:10:20Z</time>
      </trkpt>
      <trkpt lat="41.5568310" lon="-8.7820330">
        <ele>16.3</ele>
        <time>2021-05-17T10:10:21Z</time>
      </trkpt>
      <trkpt lat="41.5568400" lon="-8.7820140">
        <ele>16.4</ele>
        <time>2021-05-17T10:10:22Z</time>
      </trkpt>
      <trkpt lat="41.5568440" lon="-8.7819970">
        <ele>16.4</ele>
        <time>2021-05-17T10:10:23Z</time>
      </trkpt>
      <trkpt lat="41.5568580" lon="-8.7819750">
        <ele>16.4</ele>
        <time>2021-05-17T10:10:24Z</time>
      </trkpt>
      <trkpt lat="41.5568590" lon="-8.7819560">
        <ele>16.5</ele>
        <time>2021-05-17T10:10:25Z</time>
      </trkpt>
      <trkpt lat="41.5568690" lon="-8.7819390">
        <ele>16.5</ele>
        <time>2021-05-17T10:10:26Z</time>
      </trkpt>
      <trkpt lat="41.5568660" lon="-8.7819150">
        <ele>16.5</ele>
        <time>2021-05-17T10:10:27Z</time>
      </trkpt>
      <trkpt lat="41.5568880" lon="-8.7819030">
        <ele>16.6</ele>
        <time>2021-05-17T10:10:28Z</time>
      </trkpt>
      <trkpt lat="41.5568870" lon="-8.7818850">
        <ele>16.6</ele>
        <time>2021-05-17T10:10:29Z</time>
      </trkpt>
      <trkpt lat="41.5568960" lon="-8.7818690">
        <ele>16.7</ele>
        <time>2021-05-17T10:10:30Z</time>
      </trkpt>
      <trkpt lat="41.5568990" lon="-8.7818520">
        <ele>16.7</ele>
        <time>2021-05-17T10:10:31Z</time>
      </trkpt>
      <trkpt lat="41.5569040" lon="-8.7818300">
        <ele>16.7</ele>
        <time>2021-05-17T10:10:32Z</time>
      </trkpt>
      <trkpt lat="41.5569010" lon="-8.7818090">
        <ele>16.8</ele>
        <time>2021-05-17T10:10:33Z</time>
      </trkpt>
      <trkpt lat="41.5569120" lon="-8.7817890">
        <ele>16.8</ele>
        <time>2021-05-17T10:10:34Z</time>
      </trkpt>
      <trkpt lat="41.5569180" lon="-8.7817710">
        <ele>16.8</ele>
        <time>2021-05-17T10:10:35Z</time>
      </trkpt>
      <trkpt lat="41.5569270" lon="-8.7817560">
        <ele>16.9</ele>
        <time>2021-05-17T10:10:36Z</time>
      </trkpt>
      <trkpt lat="41.5569320" lon="-8.7817380">
        <ele>16.9</ele>
        <time>2021-05-17T10:10:37Z</time>
      </trkpt>
      <trkpt lat="41.5569370" lon="-8.7817170">
        <ele>16.9</ele>
        <time>2021-05-17T10:10:38Z</time>
      </trkpt>
      <trkpt lat="41.5569460" lon="-8.7816970">
        <ele>17.0</ele>
        <time>2021-05-17T10:10:39Z</time>
      </trkpt>
      <trkpt lat="41.5569510" lon="-8.7816820">
        <ele>17.0</ele>
        <time>2021-05-17T10:10:40Z</time>
      </trkpt>
      <trkpt lat="41.5569610" lon="-8.7816650">
        <ele>17.0</ele>
        <time>2021-05-17T10:10:41Z</time>
      </trkpt>
      <trkpt lat="41.5569620" lon="-8.7816450">
        <ele>17.1</ele>
        <time>2021-05-17T10:10:42Z</time>
      </trkpt>
      <trkpt lat="41.5569730" lon="-8.7816280">
        <ele>17.1</ele>
        <time>2021-05-17T10:10:43Z</time>
      </trkpt>
      <trkpt lat="41.5569730" lon="-8.7816030">
        <ele>17.1</ele>
        <time>2021-05-17T10:10:44Z</time>
      </trkpt>
      <trkpt lat="41.5569860" lon="-8.7815880">
        <ele>17.2</ele>
        <time>2021-05-17T10:10:45Z</time>
      </trkpt>
      <trkpt lat="41.5569890" lon="-8.7815630">
        <ele>17.2</ele>
        <time>2021-05-17T10:10:46Z</time>
      </trkpt>
      <trkpt lat="41.5569980" lon="-8.7815440">
        <ele>17.2</ele>
        <time>2021-05-17T10:10:47Z</time>
      </trkpt>
      <trkpt lat="41.5570070" lon="-8.7815290">
        <ele>17.3</ele>
        <time>2021-05-17T10:10:48Z</time>
      </trkpt>
      <trkpt lat="41.5570180" lon="-8.7815130">
        <ele>17.3</ele>
        <time>2021-05-17T10:10:49Z</time>
      </trkpt>
      <trkpt lat="41.5570280" lon="-8.7814950">
        <ele>17.3</ele>
        <time>2021-05-17T10:10:50Z</time>
      </trkpt>
      <trkpt lat="41.5570330" lon="-8.7814770">
        <ele>17.4</ele>
        <time>2021-05-17T10:10:51Z</time>
      </trkpt>
      <trkpt lat="41.5570450" lon="-8.7814600">
        <ele>17.4</ele>
        <time>2021-05-17T10:10:52Z</time>
      </trkpt>
      <trkpt lat="41.5570470" lon="-8.7814360">
        <ele>17.5</ele>
        <time>2021-05-17T10:10:53Z</time>
      </trkpt>
      <trkpt lat="41.5570580" lon="-8.7814170">
        <ele>17.5</ele>
        <time>2021-05-17T10:10:54Z</time>
      </trkpt>
      <trkpt lat="41.5570600" lon="-8.7813980">
        <ele>17.6</ele>
        <time>2021-05-17T10:10:55Z</time>
      </trkpt>
      <trkpt lat="41.5570710" lon="-8.7813790">
        <ele>17.6</ele>
        <time>2021-05-17T10:10:56Z</time>
      </trkpt>
      <trkpt lat="41.5570790" lon="-8.7813630">
        <ele>17.6</ele>
        <time>2021-05-17T10:10:57Z</time>
      </trkpt>
      <trkpt lat="41.5570840" lon="-8.7813450">
        <ele>17.7</ele>
        <time>2021-05-17T10:10:58Z</time>
      </trkpt>
      <trkpt lat="41.5570870" lon="-8.7813250">
        <ele>17.7</ele>
        <time>2021-05-17T10:10:59Z</time>
      </trkpt>
      <trkpt lat="41.5570950" lon="-8.7813080">
        <ele>17.8</ele>
        <time>2021-05-17T10:11:00Z</time>
      </trkpt>
      <trkpt lat="41.5570980" lon="-8.7812890">
        <ele>17.8</ele>
        <time>2021-05-17T10:11:01Z</time>
      </trkpt>
      <trkpt lat="41.5571100" lon="-8.7812740">
        <ele>17.9</ele>
        <time>2021-05-17T10:11:02Z</time>
      </trkpt>
      <trkpt lat="41.5571170" lon="-8.7812590">
        <ele>17.9</ele>
        <time>2021-05-17T10:11:03Z</time>
      </trkpt>
      <trkpt lat="41.5571260" lon="-8.7812440">
        <ele>17.9</ele>
        <time>2021-05-17T10:11:04Z</time>
      </trkpt>
      <trkpt lat="41.5571330" lon="-8.7812280">
        <ele>18.0</ele>
        <time>2021-05-17T10:11:05Z</time>
      </trkpt>
      <trkpt lat="41.5571390" lon="-8.7812130">
        <ele>18.0</ele>
        <time>2021-05-17T10:11:06Z</time>
      </trkpt>
      <trkpt lat="41.5571470" lon="-8.7812030">
        <ele>18.4</ele>
        <time>2021-05-17T10:11:07Z</time>
      </trkpt>
      <trkpt lat="41.5571550" lon="-8.7811920">
        <ele>18.4</ele>
        <time>2021-05-17T10:11:08Z</time>
      </trkpt>
      <trkpt lat="41.5571580" lon="-8.7811840">
        <ele>18.4</ele>
        <time>2021-05-17T10:11:09Z</time>
      </trkpt>
      <trkpt lat="41.5571680" lon="-8.7811770">
        <ele>18.4</ele>
        <time>2021-05-17T10:11:10Z</time>
      </trkpt>
      <trkpt lat="41.5571730" lon="-8.7811680">
        <ele>18.5</ele>
        <time>2021-05-17T10:11:11Z</time>
      </trkpt>
      <trkpt lat="41.5571840" lon="-8.7811690">
        <ele>18.5</ele>
        <time>2021-05-17T10:11:12Z</time>
      </trkpt>
      <trkpt lat="41.5571960" lon="-8.7811690">
        <ele>18.5</ele>
        <time>2021-05-17T10:11:13Z</time>
      </trkpt>
      <trkpt lat="41.5572100" lon="-8.7811580">
        <ele>18.5</ele>
        <time>2021-05-17T10:11:14Z</time>
      </trkpt>
      <trkpt lat="41.5572170" lon="-8.7811630">
        <ele>18.5</ele>
        <time>2021-05-17T10:11:15Z</time>
      </trkpt>
      <trkpt lat="41.5572280" lon="-8.7811660">
        <ele>18.5</ele>
        <time>2021-05-17T10:11:16Z</time>
      </trkpt>
      <trkpt lat="41.5572350" lon="-8.7811650">
        <ele>18.6</ele>
        <time>2021-05-17T10:11:17Z</time>
      </trkpt>
      <trkpt lat="41.5572500" lon="-8.7811710">
        <ele>18.6</ele>
        <time>2021-05-17T10:11:18Z</time>
      </trkpt>
      <trkpt lat="41.5572700" lon="-8.7811670">
        <ele>18.6</ele>
        <time>2021-05-17T10:11:19Z</time>
      </trkpt>
      <trkpt lat="41.5572790" lon="-8.7811670">
        <ele>18.6</ele>
        <time>2021-05-17T10:11:20Z</time>
      </trkpt>
      <trkpt lat="41.5572830" lon="-8.7811690">
        <ele>18.6</ele>
        <time>2021-05-17T10:11:21Z</time>
      </trkpt>
      <trkpt lat="41.5573020" lon="-8.7811720">
        <ele>18.6</ele>
        <time>2021-05-17T10:11:22Z</time>
      </trkpt>
      <trkpt lat="41.5573130" lon="-8.7811700">
        <ele>18.6</ele>
        <time>2021-05-17T10:11:23Z</time>
      </trkpt>
      <trkpt lat="41.5573300" lon="-8.7811940">
        <ele>18.6</ele>
        <time>2021-05-17T10:11:24Z</time>
      </trkpt>
      <trkpt lat="41.5573360" lon="-8.7812010">
        <ele>18.6</ele>
        <time>2021-05-17T10:11:25Z</time>
      </trkpt>
      <trkpt lat="41.5573420" lon="-8.7812090">
        <ele>18.6</ele>
        <time>2021-05-17T10:11:26Z</time>
      </trkpt>
      <trkpt lat="41.5573540" lon="-8.7812180">
        <ele>18.6</ele>
        <time>2021-05-17T10:11:27Z</time>
      </trkpt>
      <trkpt lat="41.5573680" lon="-8.7812330">
        <ele>18.6</ele>
        <time>2021-05-17T10:11:28Z</time>
      </trkpt>
      <trkpt lat="41.5573840" lon="-8.7812360">
        <ele>18.6</ele>
        <time>2021-05-17T10:11:29Z</time>
      </trkpt>
      <trkpt lat="41.5573980" lon="-8.7812560">
        <ele>18.6</ele>
        <time>2021-05-17T10:11:30Z</time>
      </trkpt>
      <trkpt lat="41.5574080" lon="-8.7812550">
        <ele>18.6</ele>
        <time>2021-05-17T10:11:31Z</time>
      </trkpt>
      <trkpt lat="41.5574240" lon="-8.7812700">
        <ele>18.6</ele>
        <time>2021-05-17T10:11:32Z</time>
      </trkpt>
      <trkpt lat="41.5574370" lon="-8.7812830">
        <ele>18.6</ele>
        <time>2021-05-17T10:11:33Z</time>
      </trkpt>
      <trkpt lat="41.5574480" lon="-8.7813000">
        <ele>18.6</ele>
        <time>2021-05-17T10:11:34Z</time>
      </trkpt>
      <trkpt lat="41.5574540" lon="-8.7813150">
        <ele>18.6</ele>
        <time>2021-05-17T10:11:35Z</time>
      </trkpt>
      <trkpt lat="41.5574590" lon="-8.7813250">
        <ele>18.6</ele>
        <time>2021-05-17T10:11:36Z</time>
      </trkpt>
      <trkpt lat="41.5574670" lon="-8.7813350">
        <ele>18.6</ele>
        <time>2021-05-17T10:11:37Z</time>
      </trkpt>
      <trkpt lat="41.5574720" lon="-8.7813470">
        <ele>18.6</ele>
        <time>2021-05-17T10:11:38Z</time>
      </trkpt>
      <trkpt lat="41.5574820" lon="-8.7813620">
        <ele>18.6</ele>
        <time>2021-05-17T10:11:39Z</time>
      </trkpt>
      <trkpt lat="41.5574880" lon="-8.7813600">
        <ele>18.6</ele>
        <time>2021-05-17T10:11:40Z</time>
      </trkpt>
      <trkpt lat="41.5574970" lon="-8.7813730">
        <ele>18.6</ele>
        <time>2021-05-17T10:11:41Z</time>
      </trkpt>
      <trkpt lat="41.5575130" lon="-8.7813900">
        <ele>18.6</ele>
        <time>2021-05-17T10:11:42Z</time>
      </trkpt>
      <trkpt lat="41.5575390" lon="-8.7814140">
        <ele>18.7</ele>
        <time>2021-05-17T10:11:43Z</time>
      </trkpt>
      <trkpt lat="41.5575460" lon="-8.7814190">
        <ele>18.7</ele>
        <time>2021-05-17T10:11:44Z</time>
      </trkpt>
      <trkpt lat="41.5575600" lon="-8.7814290">
        <ele>18.7</ele>
        <time>2021-05-17T10:11:45Z</time>
      </trkpt>
      <trkpt lat="41.5575750" lon="-8.7814390">
        <ele>18.7</ele>
        <time>2021-05-17T10:11:46Z</time>
      </trkpt>
      <trkpt lat="41.5575930" lon="-8.7814490">
        <ele>18.7</ele>
        <time>2021-05-17T10:11:47Z</time>
      </trkpt>
      <trkpt lat="41.5576060" lon="-8.7814610">
        <ele>18.7</ele>
        <time>2021-05-17T10:11:48Z</time>
      </trkpt>
      <trkpt lat="41.5576270" lon="-8.7814640">
        <ele>18.7</ele>
        <time>2021-05-17T10:11:49Z</time>
      </trkpt>
      <trkpt lat="41.5576350" lon="-8.7814860">
        <ele>18.7</ele>
        <time>2021-05-17T10:11:50Z</time>
      </trkpt>
      <trkpt lat="41.5576520" lon="-8.7814910">
        <ele>18.7</ele>
        <time>2021-05-17T10:11:51Z</time>
      </trkpt>
      <trkpt lat="41.5576660" lon="-8.7815080">
        <ele>18.7</ele>
        <time>2021-05-17T10:11:52Z</time>
      </trkpt>
      <trkpt lat="41.5576790" lon="-8.7815190">
        <ele>18.7</ele>
        <time>2021-05-17T10:11:53Z</time>
      </trkpt>
      <trkpt lat="41.5576970" lon="-8.7815210">
        <ele>18.7</ele>
        <time>2021-05-17T10:11:54Z</time>
      </trkpt>
      <trkpt lat="41.5577090" lon="-8.7815360">
        <ele>18.7</ele>
        <time>2021-05-17T10:11:55Z</time>
      </trkpt>
      <trkpt lat="41.5577230" lon="-8.7815510">
        <ele>18.7</ele>
        <time>2021-05-17T10:11:56Z</time>
      </trkpt>
      <trkpt lat="41.5577360" lon="-8.7815650">
        <ele>18.7</ele>
        <time>2021-05-17T10:11:57Z</time>
      </trkpt>
      <trkpt lat="41.5577490" lon="-8.7815770">
        <ele>18.7</ele>
        <time>2021-05-17T10:11:58Z</time>
      </trkpt>
      <trkpt lat="41.5577630" lon="-8.7815860">
        <ele>18.7</ele>
        <time>2021-05-17T10:11:59Z</time>
      </trkpt>
      <trkpt lat="41.5577700" lon="-8.7816010">
        <ele>18.7</ele>
        <time>2021-05-17T10:12:00Z</time>
      </trkpt>
      <trkpt lat="41.5577870" lon="-8.7816080">
        <ele>18.7</ele>
        <time>2021-05-17T10:12:01Z</time>
      </trkpt>
      <trkpt lat="41.5578000" lon="-8.7816190">
        <ele>18.7</ele>
        <time>2021-05-17T10:12:02Z</time>
      </trkpt>
      <trkpt lat="41.5578180" lon="-8.7816250">
        <ele>18.7</ele>
        <time>2021-05-17T10:12:03Z</time>
      </trkpt>
      <trkpt lat="41.5578320" lon="-8.7816280">
        <ele>18.7</ele>
        <time>2021-05-17T10:12:04Z</time>
      </trkpt>
      <trkpt lat="41.5578480" lon="-8.7816220">
        <ele>18.7</ele>
        <time>2021-05-17T10:12:05Z</time>
      </trkpt>
      <trkpt lat="41.5578630" lon="-8.7816220">
        <ele>18.7</ele>
        <time>2021-05-17T10:12:06Z</time>
      </trkpt>
      <trkpt lat="41.5578780" lon="-8.7816200">
        <ele>18.7</ele>
        <time>2021-05-17T10:12:07Z</time>
      </trkpt>
      <trkpt lat="41.5578940" lon="-8.7816160">
        <ele>18.7</ele>
        <time>2021-05-17T10:12:08Z</time>
      </trkpt>
      <trkpt lat="41.5579110" lon="-8.7816190">
        <ele>18.7</ele>
        <time>2021-05-17T10:12:09Z</time>
      </trkpt>
      <trkpt lat="41.5579270" lon="-8.7816100">
        <ele>18.7</ele>
        <time>2021-05-17T10:12:10Z</time>
      </trkpt>
      <trkpt lat="41.5579420" lon="-8.7816160">
        <ele>18.7</ele>
        <time>2021-05-17T10:12:11Z</time>
      </trkpt>
      <trkpt lat="41.5579550" lon="-8.7816180">
        <ele>18.7</ele>
        <time>2021-05-17T10:12:12Z</time>
      </trkpt>
      <trkpt lat="41.5579760" lon="-8.7816200">
        <ele>18.7</ele>
        <time>2021-05-17T10:12:13Z</time>
      </trkpt>
      <trkpt lat="41.5579880" lon="-8.7816280">
        <ele>18.7</ele>
        <time>2021-05-17T10:12:14Z</time>
      </trkpt>
      <trkpt lat="41.5580020" lon="-8.7816420">
        <ele>18.7</ele>
        <time>2021-05-17T10:12:15Z</time>
      </trkpt>
      <trkpt lat="41.5580140" lon="-8.7816530">
        <ele>18.7</ele>
        <time>2021-05-17T10:12:16Z</time>
      </trkpt>
      <trkpt lat="41.5580210" lon="-8.7816650">
        <ele>18.7</ele>
        <time>2021-05-17T10:12:17Z</time>
      </trkpt>
      <trkpt lat="41.5580220" lon="-8.7816760">
        <ele>18.7</ele>
        <time>2021-05-17T10:12:18Z</time>
      </trkpt>
      <trkpt lat="41.5580240" lon="-8.7816760">
        <ele>18.7</ele>
        <time>2021-05-17T10:12:19Z</time>
      </trkpt>
      <trkpt lat="41.5580200" lon="-8.7816740">
        <ele>18.7</ele>
        <time>2021-05-17T10:12:20Z</time>
      </trkpt>
      <trkpt lat="41.5580150" lon="-8.7816680">
        <ele>18.7</ele>
        <time>2021-05-17T10:12:21Z</time>
      </trkpt>
      <trkpt lat="41.5580130" lon="-8.7816650">
        <ele>18.7</ele>
        <time>2021-05-17T10:12:22Z</time>
      </trkpt>
      <trkpt lat="41.5580110" lon="-8.7816640">
        <ele>18.7</ele>
        <time>2021-05-17T10:12:23Z</time>
      </trkpt>
      <trkpt lat="41.5580090" lon="-8.7816640">
        <ele>18.7</ele>
        <time>2021-05-17T10:12:24Z</time>
      </trkpt>
      <trkpt lat="41.5580080" lon="-8.7816630">
        <ele>18.7</ele>
        <time>2021-05-17T10:12:25Z</time>
      </trkpt>
      <trkpt lat="41.5580080" lon="-8.7816630">
        <ele>18.7</ele>
        <time>2021-05-17T10:12:26Z</time>
      </trkpt>
      <trkpt lat="41.5580030" lon="-8.7816600">
        <ele>18.7</ele>
        <time>2021-05-17T10:12:27Z</time>
      </trkpt>
      <trkpt lat="41.5580000" lon="-8.7816600">
        <ele>18.7</ele>
        <time>2021-05-17T10:12:28Z</time>
      </trkpt>
      <trkpt lat="41.5579970" lon="-8.7816590">
        <ele>18.7</ele>
        <time>2021-05-17T10:12:29Z</time>
      </trkpt>
      <trkpt lat="41.5579940" lon="-8.7816590">
        <ele>18.7</ele>
        <time>2021-05-17T10:12:30Z</time>
      </trkpt>
      <trkpt lat="41.5579950" lon="-8.7816600">
        <ele>18.7</ele>
        <time>2021-05-17T10:12:31Z</time>
      </trkpt>
      <trkpt lat="41.5579950" lon="-8.7816600">
        <ele>18.7</ele>
        <time>2021-05-17T10:12:32Z</time>
      </trkpt>
      <trkpt lat="41.5579780" lon="-8.7816540">
        <ele>18.7</ele>
        <time>2021-05-17T10:12:33Z</time>
      </trkpt>
      <trkpt lat="41.5579790" lon="-8.7816580">
        <ele>18.7</ele>
        <time>2021-05-17T10:12:34Z</time>
      </trkpt>
      <trkpt lat="41.5579800" lon="-8.7816630">
        <ele>18.7</ele>
        <time>2021-05-17T10:12:35Z</time>
      </trkpt>
      <trkpt lat="41.5579820" lon="-8.7816670">
        <ele>18.7</ele>
        <time>2021-05-17T10:12:36Z</time>
      </trkpt>
      <trkpt lat="41.5579830" lon="-8.7816710">
        <ele>18.7</ele>
        <time>2021-05-17T10:12:37Z</time>
      </trkpt>
      <trkpt lat="41.5579850" lon="-8.7816760">
        <ele>18.7</ele>
        <time>2021-05-17T10:12:38Z</time>
      </trkpt>
      <trkpt lat="41.5579860" lon="-8.7816800">
        <ele>18.7</ele>
        <time>2021-05-17T10:12:39Z</time>
      </trkpt>
      <trkpt lat="41.5579880" lon="-8.7816850">
        <ele>18.7</ele>
        <time>2021-05-17T10:12:40Z</time>
      </trkpt>
      <trkpt lat="41.5579890" lon="-8.7816890">
        <ele>18.7</ele>
        <time>2021-05-17T10:12:41Z</time>
      </trkpt>
      <trkpt lat="41.5579910" lon="-8.7816930">
        <ele>18.7</ele>
        <time>2021-05-17T10:12:42Z</time>
      </trkpt>
      <trkpt lat="41.5579920" lon="-8.7816980">
        <ele>18.7</ele>
        <time>2021-05-17T10:12:43Z</time>
      </trkpt>
      <trkpt lat="41.5579940" lon="-8.7817020">
        <ele>18.7</ele>
        <time>2021-05-17T10:12:44Z</time>
      </trkpt>
      <trkpt lat="41.5580010" lon="-8.7817040">
        <ele>18.7</ele>
        <time>2021-05-17T10:12:45Z</time>
      </trkpt>
      <trkpt lat="41.5580070" lon="-8.7817030">
        <ele>18.7</ele>
        <time>2021-05-17T10:12:46Z</time>
      </trkpt>
      <trkpt lat="41.5580240" lon="-8.7817100">
        <ele>18.7</ele>
        <time>2021-05-17T10:12:47Z</time>
      </trkpt>
      <trkpt lat="41.5580480" lon="-8.7817230">
        <ele>18.7</ele>
        <time>2021-05-17T10:12:48Z</time>
      </trkpt>
      <trkpt lat="41.5580570" lon="-8.7817280">
        <ele>18.7</ele>
        <time>2021-05-17T10:12:49Z</time>
      </trkpt>
      <trkpt lat="41.5580670" lon="-8.7817340">
        <ele>18.7</ele>
        <time>2021-05-17T10:12:50Z</time>
      </trkpt>
      <trkpt lat="41.5580730" lon="-8.7817510">
        <ele>18.7</ele>
        <time>2021-05-17T10:12:51Z</time>
      </trkpt>
      <trkpt lat="41.5580800" lon="-8.7817570">
        <ele>18.7</ele>
        <time>2021-05-17T10:12:52Z</time>
      </trkpt>
      <trkpt lat="41.5580880" lon="-8.7817640">
        <ele>18.7</ele>
        <time>2021-05-17T10:12:53Z</time>
      </trkpt>
      <trkpt lat="41.5580950" lon="-8.7817710">
        <ele>18.7</ele>
        <time>2021-05-17T10:12:54Z</time>
      </trkpt>
      <trkpt lat="41.5581050" lon="-8.7817870">
        <ele>18.7</ele>
        <time>2021-05-17T10:12:55Z</time>
      </trkpt>
      <trkpt lat="41.5581130" lon="-8.7818080">
        <ele>18.7</ele>
        <time>2021-05-17T10:12:56Z</time>
      </trkpt>
      <trkpt lat="41.5581270" lon="-8.7818170">
        <ele>18.7</ele>
        <time>2021-05-17T10:12:57Z</time>
      </trkpt>
      <trkpt lat="41.5581390" lon="-8.7818230">
        <ele>18.7</ele>
        <time>2021-05-17T10:12:58Z</time>
      </trkpt>
      <trkpt lat="41.5581560" lon="-8.7818360">
        <ele>18.7</ele>
        <time>2021-05-17T10:12:59Z</time>
      </trkpt>
      <trkpt lat="41.5581660" lon="-8.7818480">
        <ele>18.7</ele>
        <time>2021-05-17T10:13:00Z</time>
      </trkpt>
      <trkpt lat="41.5581780" lon="-8.7818550">
        <ele>18.7</ele>
        <time>2021-05-17T10:13:01Z</time>
      </trkpt>
      <trkpt lat="41.5581890" lon="-8.7818700">
        <ele>18.8</ele>
        <time>2021-05-17T10:13:02Z</time>
      </trkpt>
      <trkpt lat="41.5582030" lon="-8.7818840">
        <ele>18.8</ele>
        <time>2021-05-17T10:13:03Z</time>
      </trkpt>
      <trkpt lat="41.5582140" lon="-8.7818940">
        <ele>18.8</ele>
        <time>2021-05-17T10:13:04Z</time>
      </trkpt>
      <trkpt lat="41.5582310" lon="-8.7819060">
        <ele>18.8</ele>
        <time>2021-05-17T10:13:05Z</time>
      </trkpt>
      <trkpt lat="41.5582430" lon="-8.7819140">
        <ele>18.8</ele>
        <time>2021-05-17T10:13:06Z</time>
      </trkpt>
      <trkpt lat="41.5582600" lon="-8.7819200">
        <ele>18.8</ele>
        <time>2021-05-17T10:13:07Z</time>
      </trkpt>
      <trkpt lat="41.5582730" lon="-8.7819300">
        <ele>18.8</ele>
        <time>2021-05-17T10:13:08Z</time>
      </trkpt>
      <trkpt lat="41.5582840" lon="-8.7819500">
        <ele>18.8</ele>
        <time>2021-05-17T10:13:09Z</time>
      </trkpt>
      <trkpt lat="41.5582990" lon="-8.7819580">
        <ele>18.8</ele>
        <time>2021-05-17T10:13:10Z</time>
      </trkpt>
      <trkpt lat="41.5583100" lon="-8.7819670">
        <ele>18.8</ele>
        <time>2021-05-17T10:13:11Z</time>
      </trkpt>
      <trkpt lat="41.5583210" lon="-8.7819800">
        <ele>18.8</ele>
        <time>2021-05-17T10:13:12Z</time>
      </trkpt>
      <trkpt lat="41.5583380" lon="-8.7819880">
        <ele>18.8</ele>
        <time>2021-05-17T10:13:13Z</time>
      </trkpt>
      <trkpt lat="41.5583550" lon="-8.7819890">
        <ele>18.8</ele>
        <time>2021-05-17T10:13:14Z</time>
      </trkpt>
      <trkpt lat="41.5583670" lon="-8.7820040">
        <ele>18.8</ele>
        <time>2021-05-17T10:13:15Z</time>
      </trkpt>
      <trkpt lat="41.5583790" lon="-8.7820160">
        <ele>18.8</ele>
        <time>2021-05-17T10:13:16Z</time>
      </trkpt>
      <trkpt lat="41.5583880" lon="-8.7820290">
        <ele>18.8</ele>
        <time>2021-05-17T10:13:17Z</time>
      </trkpt>
      <trkpt lat="41.5583980" lon="-8.7820370">
        <ele>18.8</ele>
        <time>2021-05-17T10:13:18Z</time>
      </trkpt>
      <trkpt lat="41.5584070" lon="-8.7820460">
        <ele>18.8</ele>
        <time>2021-05-17T10:13:19Z</time>
      </trkpt>
      <trkpt lat="41.5584180" lon="-8.7820500">
        <ele>18.8</ele>
        <time>2021-05-17T10:13:20Z</time>
      </trkpt>
      <trkpt lat="41.5584350" lon="-8.7820380">
        <ele>18.8</ele>
        <time>2021-05-17T10:13:21Z</time>
      </trkpt>
      <trkpt lat="41.5584480" lon="-8.7820620">
        <ele>18.8</ele>
        <time>2021-05-17T10:13:22Z</time>
      </trkpt>
      <trkpt lat="41.5584560" lon="-8.7820680">
        <ele>18.8</ele>
        <time>2021-05-17T10:13:23Z</time>
      </trkpt>
      <trkpt lat="41.5584650" lon="-8.7820740">
        <ele>18.8</ele>
        <time>2021-05-17T10:13:24Z</time>
      </trkpt>
      <trkpt lat="41.5584860" lon="-8.7820790">
        <ele>18.8</ele>
        <time>2021-05-17T10:13:25Z</time>
      </trkpt>
      <trkpt lat="41.5584930" lon="-8.7820820">
        <ele>18.8</ele>
        <time>2021-05-17T10:13:26Z</time>
      </trkpt>
      <trkpt lat="41.5585010" lon="-8.7820860">
        <ele>18.8</ele>
        <time>2021-05-17T10:13:27Z</time>
      </trkpt>
      <trkpt lat="41.5585020" lon="-8.7821160">
        <ele>18.8</ele>
        <time>2021-05-17T10:13:28Z</time>
      </trkpt>
      <trkpt lat="41.5585180" lon="-8.7821180">
        <ele>18.8</ele>
        <time>2021-05-17T10:13:29Z</time>
      </trkpt>
      <trkpt lat="41.5585310" lon="-8.7821160">
        <ele>18.8</ele>
        <time>2021-05-17T10:13:30Z</time>
      </trkpt>
      <trkpt lat="41.5585430" lon="-8.7821180">
        <ele>18.7</ele>
        <time>2021-05-17T10:13:31Z</time>
      </trkpt>
      <trkpt lat="41.5585540" lon="-8.7821200">
        <ele>18.7</ele>
        <time>2021-05-17T10:13:32Z</time>
      </trkpt>
      <trkpt lat="41.5585570" lon="-8.7821420">
        <ele>18.7</ele>
        <time>2021-05-17T10:13:33Z</time>
      </trkpt>
      <trkpt lat="41.5585700" lon="-8.7821550">
        <ele>18.7</ele>
        <time>2021-05-17T10:13:34Z</time>
      </trkpt>
      <trkpt lat="41.5585820" lon="-8.7821540">
        <ele>18.7</ele>
        <time>2021-05-17T10:13:35Z</time>
      </trkpt>
      <trkpt lat="41.5585920" lon="-8.7821460">
        <ele>18.7</ele>
        <time>2021-05-17T10:13:36Z</time>
      </trkpt>
      <trkpt lat="41.5586000" lon="-8.7821650">
        <ele>18.7</ele>
        <time>2021-05-17T10:13:37Z</time>
      </trkpt>
      <trkpt lat="41.5586200" lon="-8.7821810">
        <ele>18.7</ele>
        <time>2021-05-17T10:13:38Z</time>
      </trkpt>
      <trkpt lat="41.5586270" lon="-8.7821860">
        <ele>18.7</ele>
        <time>2021-05-17T10:13:39Z</time>
      </trkpt>
      <trkpt lat="41.5586340" lon="-8.7821920">
        <ele>18.7</ele>
        <time>2021-05-17T10:13:40Z</time>
      </trkpt>
      <trkpt lat="41.5586530" lon="-8.7822040">
        <ele>18.7</ele>
        <time>2021-05-17T10:13:41Z</time>
      </trkpt>
      <trkpt lat="41.5586600" lon="-8.7822110">
        <ele>18.7</ele>
        <time>2021-05-17T10:13:42Z</time>
      </trkpt>
      <trkpt lat="41.5586670" lon="-8.7822170">
        <ele>18.7</ele>
        <time>2021-05-17T10:13:43Z</time>
      </trkpt>
      <trkpt lat="41.5586890" lon="-8.7822430">
        <ele>18.7</ele>
        <time>2021-05-17T10:13:44Z</time>
      </trkpt>
      <trkpt lat="41.5586960" lon="-8.7822530">
        <ele>18.7</ele>
        <time>2021-05-17T10:13:45Z</time>
      </trkpt>
      <trkpt lat="41.5587080" lon="-8.7822670">
        <ele>18.7</ele>
        <time>2021-05-17T10:13:46Z</time>
      </trkpt>
      <trkpt lat="41.5587210" lon="-8.7822760">
        <ele>18.7</ele>
        <time>2021-05-17T10:13:47Z</time>
      </trkpt>
      <trkpt lat="41.5587320" lon="-8.7822860">
        <ele>18.7</ele>
        <time>2021-05-17T10:13:48Z</time>
      </trkpt>
      <trkpt lat="41.5587460" lon="-8.7822990">
        <ele>18.7</ele>
        <time>2021-05-17T10:13:49Z</time>
      </trkpt>
      <trkpt lat="41.5587570" lon="-8.7823120">
        <ele>18.7</ele>
        <time>2021-05-17T10:13:50Z</time>
      </trkpt>
      <trkpt lat="41.5587640" lon="-8.7823260">
        <ele>18.7</ele>
        <time>2021-05-17T10:13:51Z</time>
      </trkpt>
      <trkpt lat="41.5587790" lon="-8.7823300">
        <ele>18.7</ele>
        <time>2021-05-17T10:13:52Z</time>
      </trkpt>
      <trkpt lat="41.5587800" lon="-8.7823320">
        <ele>18.7</ele>
        <time>2021-05-17T10:13:53Z</time>
      </trkpt>
      <trkpt lat="41.5587810" lon="-8.7823330">
        <ele>18.7</ele>
        <time>2021-05-17T10:13:54Z</time>
      </trkpt>
      <trkpt lat="41.5587820" lon="-8.7823350">
        <ele>18.7</ele>
        <time>2021-05-17T10:13:55Z</time>
      </trkpt>
      <trkpt lat="41.5587830" lon="-8.7823360">
        <ele>18.7</ele>
        <time>2021-05-17T10:13:56Z</time>
      </trkpt>
      <trkpt lat="41.5587850" lon="-8.7823380">
        <ele>18.7</ele>
        <time>2021-05-17T10:13:57Z</time>
      </trkpt>
      <trkpt lat="41.5587860" lon="-8.7823390">
        <ele>18.7</ele>
        <time>2021-05-17T10:13:58Z</time>
      </trkpt>
      <trkpt lat="41.5587870" lon="-8.7823410">
        <ele>18.7</ele>
        <time>2021-05-17T10:13:59Z</time>
      </trkpt>
      <trkpt lat="41.5587880" lon="-8.7823420">
        <ele>18.7</ele>
        <time>2021-05-17T10:14:00Z</time>
      </trkpt>
      <trkpt lat="41.5587890" lon="-8.7823440">
        <ele>18.7</ele>
        <time>2021-05-17T10:14:01Z</time>
      </trkpt>
      <trkpt lat="41.5587900" lon="-8.7823450">
        <ele>18.7</ele>
        <time>2021-05-17T10:14:02Z</time>
      </trkpt>
      <trkpt lat="41.5587910" lon="-8.7823470">
        <ele>18.7</ele>
        <time>2021-05-17T10:14:03Z</time>
      </trkpt>
      <trkpt lat="41.5587920" lon="-8.7823480">
        <ele>18.7</ele>
        <time>2021-05-17T10:14:04Z</time>
      </trkpt>
      <trkpt lat="41.5587930" lon="-8.7823500">
        <ele>18.7</ele>
        <time>2021-05-17T10:14:05Z</time>
      </trkpt>
      <trkpt lat="41.5587940" lon="-8.7823510">
        <ele>18.7</ele>
        <time>2021-05-17T10:14:06Z</time>
      </trkpt>
      <trkpt lat="41.5587950" lon="-8.7823530">
        <ele>18.7</ele>
        <time>2021-05-17T10:14:07Z</time>
      </trkpt>
      <trkpt lat="41.5587970" lon="-8.7823540">
        <ele>18.7</ele>
        <time>2021-05-17T10:14:08Z</time>
      </trkpt>
      <trkpt lat="41.5587980" lon="-8.7823560">
        <ele>18.7</ele>
        <time>2021-05-17T10:14:09Z</time>
      </trkpt>
      <trkpt lat="41.5587990" lon="-8.7823570">
        <ele>18.7</ele>
        <time>2021-05-17T10:14:10Z</time>
      </trkpt>
      <trkpt lat="41.5588000" lon="-8.7823590">
        <ele>18.7</ele>
        <time>2021-05-17T10:14:11Z</time>
      </trkpt>
      <trkpt lat="41.5588010" lon="-8.7823600">
        <ele>18.7</ele>
        <time>2021-05-17T10:14:12Z</time>
      </trkpt>
      <trkpt lat="41.5588020" lon="-8.7823620">
        <ele>18.7</ele>
        <time>2021-05-17T10:14:13Z</time>
      </trkpt>
      <trkpt lat="41.5588140" lon="-8.7823650">
        <ele>18.6</ele>
        <time>2021-05-17T10:14:14Z</time>
      </trkpt>
      <trkpt lat="41.5588230" lon="-8.7823760">
        <ele>18.6</ele>
        <time>2021-05-17T10:14:15Z</time>
      </trkpt>
      <trkpt lat="41.5588450" lon="-8.7823900">
        <ele>18.6</ele>
        <time>2021-05-17T10:14:16Z</time>
      </trkpt>
      <trkpt lat="41.5588520" lon="-8.7823950">
        <ele>18.6</ele>
        <time>2021-05-17T10:14:17Z</time>
      </trkpt>
      <trkpt lat="41.5588600" lon="-8.7824010">
        <ele>18.6</ele>
        <time>2021-05-17T10:14:18Z</time>
      </trkpt>
      <trkpt lat="41.5588760" lon="-8.7824060">
        <ele>18.6</ele>
        <time>2021-05-17T10:14:19Z</time>
      </trkpt>
      <trkpt lat="41.5588860" lon="-8.7824140">
        <ele>18.6</ele>
        <time>2021-05-17T10:14:20Z</time>
      </trkpt>
      <trkpt lat="41.5588980" lon="-8.7824210">
        <ele>18.6</ele>
        <time>2021-05-17T10:14:21Z</time>
      </trkpt>
      <trkpt lat="41.5589120" lon="-8.7824390">
        <ele>18.6</ele>
        <time>2021-05-17T10:14:22Z</time>
      </trkpt>
      <trkpt lat="41.5589320" lon="-8.7824500">
        <ele>18.6</ele>
        <time>2021-05-17T10:14:23Z</time>
      </trkpt>
      <trkpt lat="41.5589390" lon="-8.7824530">
        <ele>18.6</ele>
        <time>2021-05-17T10:14:24Z</time>
      </trkpt>
      <trkpt lat="41.5589470" lon="-8.7824570">
        <ele>18.6</ele>
        <time>2021-05-17T10:14:25Z</time>
      </trkpt>
      <trkpt lat="41.5589670" lon="-8.7824740">
        <ele>18.6</ele>
        <time>2021-05-17T10:14:26Z</time>
      </trkpt>
      <trkpt lat="41.5589730" lon="-8.7824800">
        <ele>18.6</ele>
        <time>2021-05-17T10:14:27Z</time>
      </trkpt>
      <trkpt lat="41.5589800" lon="-8.7824870">
        <ele>18.6</ele>
        <time>2021-05-17T10:14:28Z</time>
      </trkpt>
      <trkpt lat="41.5589850" lon="-8.7825040">
        <ele>18.6</ele>
        <time>2021-05-17T10:14:29Z</time>
      </trkpt>
      <trkpt lat="41.5589960" lon="-8.7825100">
        <ele>18.6</ele>
        <time>2021-05-17T10:14:30Z</time>
      </trkpt>
      <trkpt lat="41.5590010" lon="-8.7825170">
        <ele>18.6</ele>
        <time>2021-05-17T10:14:31Z</time>
      </trkpt>
      <trkpt lat="41.5590150" lon="-8.7825310">
        <ele>18.6</ele>
        <time>2021-05-17T10:14:32Z</time>
      </trkpt>
      <trkpt lat="41.5590250" lon="-8.7825420">
        <ele>18.6</ele>
        <time>2021-05-17T10:14:33Z</time>
      </trkpt>
      <trkpt lat="41.5590380" lon="-8.7825560">
        <ele>18.6</ele>
        <time>2021-05-17T10:14:34Z</time>
      </trkpt>
      <trkpt lat="41.5590470" lon="-8.7825620">
        <ele>18.6</ele>
        <time>2021-05-17T10:14:35Z</time>
      </trkpt>
      <trkpt lat="41.5590520" lon="-8.7825690">
        <ele>18.6</ele>
        <time>2021-05-17T10:14:36Z</time>
      </trkpt>
      <trkpt lat="41.5590630" lon="-8.7825830">
        <ele>18.6</ele>
        <time>2021-05-17T10:14:37Z</time>
      </trkpt>
      <trkpt lat="41.5590780" lon="-8.7825830">
        <ele>18.6</ele>
        <time>2021-05-17T10:14:38Z</time>
      </trkpt>
      <trkpt lat="41.5590920" lon="-8.7825740">
        <ele>18.6</ele>
        <time>2021-05-17T10:14:39Z</time>
      </trkpt>
      <trkpt lat="41.5590980" lon="-8.7825670">
        <ele>18.6</ele>
        <time>2021-05-17T10:14:40Z</time>
      </trkpt>
      <trkpt lat="41.5591040" lon="-8.7825600">
        <ele>18.6</ele>
        <time>2021-05-17T10:14:41Z</time>
      </trkpt>
      <trkpt lat="41.5591100" lon="-8.7825530">
        <ele>18.6</ele>
        <time>2021-05-17T10:14:42Z</time>
      </trkpt>
      <trkpt lat="41.5591160" lon="-8.7825460">
        <ele>18.8</ele>
        <time>2021-05-17T10:14:43Z</time>
      </trkpt>
      <trkpt lat="41.5591230" lon="-8.7825400">
        <ele>18.8</ele>
        <time>2021-05-17T10:14:44Z</time>
      </trkpt>
      <trkpt lat="41.5591330" lon="-8.7825340">
        <ele>18.8</ele>
        <time>2021-05-17T10:14:45Z</time>
      </trkpt>
      <trkpt lat="41.5591400" lon="-8.7825260">
        <ele>18.8</ele>
        <time>2021-05-17T10:14:46Z</time>
      </trkpt>
      <trkpt lat="41.5591380" lon="-8.7825290">
        <ele>18.8</ele>
        <time>2021-05-17T10:14:47Z</time>
      </trkpt>
      <trkpt lat="41.5591420" lon="-8.7825210">
        <ele>18.8</ele>
        <time>2021-05-17T10:14:48Z</time>
      </trkpt>
      <trkpt lat="41.5591450" lon="-8.7825180">
        <ele>18.8</ele>
        <time>2021-05-17T10:14:49Z</time>
      </trkpt>
      <trkpt lat="41.5591400" lon="-8.7825130">
        <ele>18.8</ele>
        <time>2021-05-17T10:14:50Z</time>
      </trkpt>
      <trkpt lat="41.5591420" lon="-8.7825100">
        <ele>18.8</ele>
        <time>2021-05-17T10:14:51Z</time>
      </trkpt>
      <trkpt lat="41.5591340" lon="-8.7825200">
        <ele>18.8</ele>
        <time>2021-05-17T10:14:52Z</time>
      </trkpt>
      <trkpt lat="41.5591420" lon="-8.7825120">
        <ele>18.8</ele>
        <time>2021-05-17T10:14:53Z</time>
      </trkpt>
      <trkpt lat="41.5591540" lon="-8.7825100">
        <ele>18.8</ele>
        <time>2021-05-17T10:14:54Z</time>
      </trkpt>
      <trkpt lat="41.5591470" lon="-8.7825180">
        <ele>18.9</ele>
        <time>2021-05-17T10:14:55Z</time>
      </trkpt>
      <trkpt lat="41.5591450" lon="-8.7825200">
        <ele>18.9</ele>
        <time>2021-05-17T10:14:56Z</time>
      </trkpt>
      <trkpt lat="41.5591490" lon="-8.7825170">
        <ele>18.9</ele>
        <time>2021-05-17T10:14:57Z</time>
      </trkpt>
      <trkpt lat="41.5591390" lon="-8.7825090">
        <ele>18.9</ele>
        <time>2021-05-17T10:14:58Z</time>
      </trkpt>
      <trkpt lat="41.5591380" lon="-8.7825080">
        <ele>18.9</ele>
        <time>2021-05-17T10:14:59Z</time>
      </trkpt>
      <trkpt lat="41.5591330" lon="-8.7825080">
        <ele>18.9</ele>
        <time>2021-05-17T10:15:00Z</time>
      </trkpt>
      <trkpt lat="41.5591370" lon="-8.7825010">
        <ele>18.9</ele>
        <time>2021-05-17T10:15:01Z</time>
      </trkpt>
      <trkpt lat="41.5591370" lon="-8.7824870">
        <ele>18.9</ele>
        <time>2021-05-17T10:15:02Z</time>
      </trkpt>
      <trkpt lat="41.5591420" lon="-8.7824760">
        <ele>18.9</ele>
        <time>2021-05-17T10:15:03Z</time>
      </trkpt>
      <trkpt lat="41.5591480" lon="-8.7824740">
        <ele>18.9</ele>
        <time>2021-05-17T10:15:04Z</time>
      </trkpt>
      <trkpt lat="41.5591470" lon="-8.7824600">
        <ele>18.9</ele>
        <time>2021-05-17T10:15:05Z</time>
      </trkpt>
      <trkpt lat="41.5591440" lon="-8.7824480">
        <ele>18.9</ele>
        <time>2021-05-17T10:15:06Z</time>
      </trkpt>
      <trkpt lat="41.5591460" lon="-8.7823980">
        <ele>18.9</ele>
        <time>2021-05-17T10:15:07Z</time>
      </trkpt>
      <trkpt lat="41.5591440" lon="-8.7823830">
        <ele>18.8</ele>
        <time>2021-05-17T10:15:08Z</time>
      </trkpt>
      <trkpt lat="41.5591390" lon="-8.7823860">
        <ele>18.8</ele>
        <time>2021-05-17T10:15:09Z</time>
      </trkpt>
      <trkpt lat="41.5591400" lon="-8.7823870">
        <ele>18.8</ele>
        <time>2021-05-17T10:15:10Z</time>
      </trkpt>
      <trkpt lat="41.5591400" lon="-8.7823870">
        <ele>18.8</ele>
        <time>2021-05-17T10:15:11Z</time>
      </trkpt>
      <trkpt lat="41.5591410" lon="-8.7823870">
        <ele>18.8</ele>
        <time>2021-05-17T10:15:12Z</time>
      </trkpt>
      <trkpt lat="41.5591410" lon="-8.7823880">
        <ele>18.8</ele>
        <time>2021-05-17T10:15:13Z</time>
      </trkpt>
      <trkpt lat="41.5591420" lon="-8.7823880">
        <ele>18.8</ele>
        <time>2021-05-17T10:15:14Z</time>
      </trkpt>
      <trkpt lat="41.5591420" lon="-8.7823890">
        <ele>18.8</ele>
        <time>2021-05-17T10:15:15Z</time>
      </trkpt>
      <trkpt lat="41.5591430" lon="-8.7823890">
        <ele>18.8</ele>
        <time>2021-05-17T10:15:16Z</time>
      </trkpt>
      <trkpt lat="41.5591430" lon="-8.7823890">
        <ele>18.8</ele>
        <time>2021-05-17T10:15:17Z</time>
      </trkpt>
      <trkpt lat="41.5591440" lon="-8.7823900">
        <ele>18.8</ele>
        <time>2021-05-17T10:15:18Z</time>
      </trkpt>
      <trkpt lat="41.5591440" lon="-8.7823900">
        <ele>18.8</ele>
        <time>2021-05-17T10:15:19Z</time>
      </trkpt>
      <trkpt lat="41.5591450" lon="-8.7823900">
        <ele>18.8</ele>
        <time>2021-05-17T10:15:20Z</time>
      </trkpt>
      <trkpt lat="41.5591450" lon="-8.7823910">
        <ele>18.8</ele>
        <time>2021-05-17T10:15:21Z</time>
      </trkpt>
      <trkpt lat="41.5591460" lon="-8.7823910">
        <ele>18.8</ele>
        <time>2021-05-17T10:15:22Z</time>
      </trkpt>
      <trkpt lat="41.5591460" lon="-8.7823910">
        <ele>18.8</ele>
        <time>2021-05-17T10:15:23Z</time>
      </trkpt>
      <trkpt lat="41.5591470" lon="-8.7823920">
        <ele>18.8</ele>
        <time>2021-05-17T10:15:24Z</time>
      </trkpt>
      <trkpt lat="41.5591470" lon="-8.7823920">
        <ele>18.8</ele>
        <time>2021-05-17T10:15:25Z</time>
      </trkpt>
      <trkpt lat="41.5591480" lon="-8.7823920">
        <ele>18.8</ele>
        <time>2021-05-17T10:15:26Z</time>
      </trkpt>
      <trkpt lat="41.5591480" lon="-8.7823930">
        <ele>18.8</ele>
        <time>2021-05-17T10:15:27Z</time>
      </trkpt>
      <trkpt lat="41.5591490" lon="-8.7823930">
        <ele>18.8</ele>
        <time>2021-05-17T10:15:28Z</time>
      </trkpt>
      <trkpt lat="41.5591490" lon="-8.7823940">
        <ele>18.8</ele>
        <time>2021-05-17T10:15:29Z</time>
      </trkpt>
      <trkpt lat="41.5591490" lon="-8.7823940">
        <ele>18.8</ele>
        <time>2021-05-17T10:15:30Z</time>
      </trkpt>
      <trkpt lat="41.5591500" lon="-8.7823940">
        <ele>18.8</ele>
        <time>2021-05-17T10:15:43Z</time>
      </trkpt>
      <trkpt lat="41.5591500" lon="-8.7823950">
        <ele>18.8</ele>
        <time>2021-05-17T10:15:46Z</time>
      </trkpt>
      <trkpt lat="41.5591510" lon="-8.7823950">
        <ele>18.8</ele>
        <time>2021-05-17T10:15:47Z</time>
      </trkpt>
      <trkpt lat="41.5591510" lon="-8.7823950">
        <ele>18.8</ele>
        <time>2021-05-17T10:15:48Z</time>
      </trkpt>
      <trkpt lat="41.5591520" lon="-8.7823960">
        <ele>18.8</ele>
        <time>2021-05-17T10:15:49Z</time>
      </trkpt>
      <trkpt lat="41.5591520" lon="-8.7823960">
        <ele>18.8</ele>
        <time>2021-05-17T10:15:50Z</time>
      </trkpt>
      <trkpt lat="41.5591530" lon="-8.7823960">
        <ele>18.8</ele>
        <time>2021-05-17T10:15:51Z</time>
      </trkpt>
      <trkpt lat="41.5591530" lon="-8.7823970">
        <ele>18.8</ele>
        <time>2021-05-17T10:15:52Z</time>
      </trkpt>
      <trkpt lat="41.5591540" lon="-8.7823970">
        <ele>18.8</ele>
        <time>2021-05-17T10:15:53Z</time>
      </trkpt>
      <trkpt lat="41.5591540" lon="-8.7823980">
        <ele>18.8</ele>
        <time>2021-05-17T10:15:54Z</time>
      </trkpt>
      <trkpt lat="41.5591550" lon="-8.7823980">
        <ele>18.8</ele>
        <time>2021-05-17T10:15:55Z</time>
      </trkpt>
      <trkpt lat="41.5591550" lon="-8.7823980">
        <ele>18.8</ele>
        <time>2021-05-17T10:15:56Z</time>
      </trkpt>
      <trkpt lat="41.5591560" lon="-8.7823990">
        <ele>18.8</ele>
        <time>2021-05-17T10:15:57Z</time>
      </trkpt>
      <trkpt lat="41.5591560" lon="-8.7823990">
        <ele>18.8</ele>
        <time>2021-05-17T10:15:58Z</time>
      </trkpt>
      <trkpt lat="41.5591570" lon="-8.7823990">
        <ele>18.8</ele>
        <time>2021-05-17T10:15:59Z</time>
      </trkpt>
      <trkpt lat="41.5591570" lon="-8.7824000">
        <ele>18.8</ele>
        <time>2021-05-17T10:16:00Z</time>
      </trkpt>
      <trkpt lat="41.5591580" lon="-8.7824000">
        <ele>18.8</ele>
        <time>2021-05-17T10:16:01Z</time>
      </trkpt>
      <trkpt lat="41.5591580" lon="-8.7824000">
        <ele>18.8</ele>
        <time>2021-05-17T10:16:02Z</time>
      </trkpt>
      <trkpt lat="41.5591590" lon="-8.7824010">
        <ele>18.8</ele>
        <time>2021-05-17T10:16:03Z</time>
      </trkpt>
      <trkpt lat="41.5591590" lon="-8.7824010">
        <ele>18.8</ele>
        <time>2021-05-17T10:16:04Z</time>
      </trkpt>
      <trkpt lat="41.5591600" lon="-8.7824010">
        <ele>18.8</ele>
        <time>2021-05-17T10:16:05Z</time>
      </trkpt>
      <trkpt lat="41.5591600" lon="-8.7824020">
        <ele>18.8</ele>
        <time>2021-05-17T10:16:06Z</time>
      </trkpt>
      <trkpt lat="41.5591600" lon="-8.7824020">
        <ele>18.8</ele>
        <time>2021-05-17T10:16:07Z</time>
      </trkpt>
      <trkpt lat="41.5591610" lon="-8.7824030">
        <ele>18.8</ele>
        <time>2021-05-17T10:16:08Z</time>
      </trkpt>
      <trkpt lat="41.5591610" lon="-8.7824030">
        <ele>18.8</ele>
        <time>2021-05-17T10:16:09Z</time>
      </trkpt>
      <trkpt lat="41.5591620" lon="-8.7824030">
        <ele>18.8</ele>
        <time>2021-05-17T10:16:10Z</time>
      </trkpt>
      <trkpt lat="41.5591620" lon="-8.7824040">
        <ele>18.8</ele>
        <time>2021-05-17T10:16:11Z</time>
      </trkpt>
      <trkpt lat="41.5591630" lon="-8.7824040">
        <ele>18.8</ele>
        <time>2021-05-17T10:16:12Z</time>
      </trkpt>
      <trkpt lat="41.5591630" lon="-8.7824040">
        <ele>18.8</ele>
        <time>2021-05-17T10:16:13Z</time>
      </trkpt>
      <trkpt lat="41.5591640" lon="-8.7824050">
        <ele>18.8</ele>
        <time>2021-05-17T10:16:14Z</time>
      </trkpt>
      <trkpt lat="41.5591640" lon="-8.7824050">
        <ele>18.8</ele>
        <time>2021-05-17T10:16:15Z</time>
      </trkpt>
      <trkpt lat="41.5591650" lon="-8.7824050">
        <ele>18.8</ele>
        <time>2021-05-17T10:16:16Z</time>
      </trkpt>
      <trkpt lat="41.5591650" lon="-8.7824060">
        <ele>18.8</ele>
        <time>2021-05-17T10:16:17Z</time>
      </trkpt>
      <trkpt lat="41.5591660" lon="-8.7824060">
        <ele>18.8</ele>
        <time>2021-05-17T10:16:18Z</time>
      </trkpt>
      <trkpt lat="41.5591660" lon="-8.7824070">
        <ele>18.8</ele>
        <time>2021-05-17T10:16:19Z</time>
      </trkpt>
      <trkpt lat="41.5591670" lon="-8.7824070">
        <ele>18.8</ele>
        <time>2021-05-17T10:16:20Z</time>
      </trkpt>
      <trkpt lat="41.5591670" lon="-8.7824070">
        <ele>18.8</ele>
        <time>2021-05-17T10:16:21Z</time>
      </trkpt>
      <trkpt lat="41.5591680" lon="-8.7824080">
        <ele>18.8</ele>
        <time>2021-05-17T10:16:22Z</time>
      </trkpt>
      <trkpt lat="41.5591680" lon="-8.7824080">
        <ele>18.8</ele>
        <time>2021-05-17T10:16:24Z</time>
      </trkpt>
      <trkpt lat="41.5591690" lon="-8.7824080">
        <ele>18.8</ele>
        <time>2021-05-17T10:16:25Z</time>
      </trkpt>
      <trkpt lat="41.5591690" lon="-8.7824090">
        <ele>18.8</ele>
        <time>2021-05-17T10:16:26Z</time>
      </trkpt>
      <trkpt lat="41.5591700" lon="-8.7824090">
        <ele>18.8</ele>
        <time>2021-05-17T10:16:27Z</time>
      </trkpt>
      <trkpt lat="41.5591700" lon="-8.7824090">
        <ele>18.8</ele>
        <time>2021-05-17T10:16:28Z</time>
      </trkpt>
      <trkpt lat="41.5591700" lon="-8.7824100">
        <ele>18.8</ele>
        <time>2021-05-17T10:16:29Z</time>
      </trkpt>
      <trkpt lat="41.5591710" lon="-8.7824100">
        <ele>18.8</ele>
        <time>2021-05-17T10:16:30Z</time>
      </trkpt>
      <trkpt lat="41.5591710" lon="-8.7824110">
        <ele>18.8</ele>
        <time>2021-05-17T10:16:31Z</time>
      </trkpt>
      <trkpt lat="41.5591720" lon="-8.7824110">
        <ele>18.8</ele>
        <time>2021-05-17T10:16:32Z</time>
      </trkpt>
      <trkpt lat="41.5591720" lon="-8.7824110">
        <ele>18.8</ele>
        <time>2021-05-17T10:16:33Z</time>
      </trkpt>
      <trkpt lat="41.5591730" lon="-8.7824120">
        <ele>18.8</ele>
        <time>2021-05-17T10:16:34Z</time>
      </trkpt>
      <trkpt lat="41.5591730" lon="-8.7824120">
        <ele>18.8</ele>
        <time>2021-05-17T10:16:35Z</time>
      </trkpt>
      <trkpt lat="41.5591740" lon="-8.7824120">
        <ele>18.8</ele>
        <time>2021-05-17T10:16:36Z</time>
      </trkpt>
      <trkpt lat="41.5591740" lon="-8.7824130">
        <ele>18.8</ele>
        <time>2021-05-17T10:16:37Z</time>
      </trkpt>
      <trkpt lat="41.5591750" lon="-8.7824130">
        <ele>18.8</ele>
        <time>2021-05-17T10:16:38Z</time>
      </trkpt>
      <trkpt lat="41.5591750" lon="-8.7824130">
        <ele>18.8</ele>
        <time>2021-05-17T10:16:39Z</time>
      </trkpt>
      <trkpt lat="41.5591760" lon="-8.7824140">
        <ele>18.8</ele>
        <time>2021-05-17T10:16:40Z</time>
      </trkpt>
      <trkpt lat="41.5591760" lon="-8.7824140">
        <ele>18.8</ele>
        <time>2021-05-17T10:16:41Z</time>
      </trkpt>
      <trkpt lat="41.5591770" lon="-8.7824140">
        <ele>18.8</ele>
        <time>2021-05-17T10:16:42Z</time>
      </trkpt>
      <trkpt lat="41.5591770" lon="-8.7824150">
        <ele>18.8</ele>
        <time>2021-05-17T10:16:43Z</time>
      </trkpt>
      <trkpt lat="41.5591780" lon="-8.7824150">
        <ele>18.8</ele>
        <time>2021-05-17T10:16:44Z</time>
      </trkpt>
      <trkpt lat="41.5591780" lon="-8.7824160">
        <ele>18.8</ele>
        <time>2021-05-17T10:16:45Z</time>
      </trkpt>
      <trkpt lat="41.5591790" lon="-8.7824160">
        <ele>18.8</ele>
        <time>2021-05-17T10:16:46Z</time>
      </trkpt>
      <trkpt lat="41.5591790" lon="-8.7824160">
        <ele>18.8</ele>
        <time>2021-05-17T10:16:47Z</time>
      </trkpt>
      <trkpt lat="41.5591800" lon="-8.7824170">
        <ele>18.8</ele>
        <time>2021-05-17T10:16:48Z</time>
      </trkpt>
      <trkpt lat="41.5591800" lon="-8.7824170">
        <ele>18.8</ele>
        <time>2021-05-17T10:16:49Z</time>
      </trkpt>
      <trkpt lat="41.5591810" lon="-8.7824290">
        <ele>18.8</ele>
        <time>2021-05-17T10:16:50Z</time>
      </trkpt>
      <trkpt lat="41.5591920" lon="-8.7824370">
        <ele>18.8</ele>
        <time>2021-05-17T10:16:51Z</time>
      </trkpt>
      <trkpt lat="41.5592040" lon="-8.7824450">
        <ele>18.8</ele>
        <time>2021-05-17T10:16:52Z</time>
      </trkpt>
      <trkpt lat="41.5592150" lon="-8.7824530">
        <ele>18.8</ele>
        <time>2021-05-17T10:16:53Z</time>
      </trkpt>
      <trkpt lat="41.5592430" lon="-8.7824590">
        <ele>18.7</ele>
        <time>2021-05-17T10:16:54Z</time>
      </trkpt>
      <trkpt lat="41.5592520" lon="-8.7824640">
        <ele>18.7</ele>
        <time>2021-05-17T10:16:55Z</time>
      </trkpt>
      <trkpt lat="41.5592630" lon="-8.7824380">
        <ele>18.7</ele>
        <time>2021-05-17T10:16:56Z</time>
      </trkpt>
      <trkpt lat="41.5592660" lon="-8.7824230">
        <ele>18.7</ele>
        <time>2021-05-17T10:16:57Z</time>
      </trkpt>
      <trkpt lat="41.5592700" lon="-8.7824090">
        <ele>18.7</ele>
        <time>2021-05-17T10:16:58Z</time>
      </trkpt>
      <trkpt lat="41.5592770" lon="-8.7823730">
        <ele>18.7</ele>
        <time>2021-05-17T10:16:59Z</time>
      </trkpt>
      <trkpt lat="41.5592840" lon="-8.7823600">
        <ele>18.7</ele>
        <time>2021-05-17T10:17:00Z</time>
      </trkpt>
      <trkpt lat="41.5592900" lon="-8.7823480">
        <ele>18.7</ele>
        <time>2021-05-17T10:17:01Z</time>
      </trkpt>
      <trkpt lat="41.5592950" lon="-8.7823270">
        <ele>18.6</ele>
        <time>2021-05-17T10:17:02Z</time>
      </trkpt>
      <trkpt lat="41.5592980" lon="-8.7823170">
        <ele>18.6</ele>
        <time>2021-05-17T10:17:03Z</time>
      </trkpt>
      <trkpt lat="41.5593010" lon="-8.7823060">
        <ele>18.6</ele>
        <time>2021-05-17T10:17:04Z</time>
      </trkpt>
      <trkpt lat="41.5593040" lon="-8.7822960">
        <ele>18.6</ele>
        <time>2021-05-17T10:17:05Z</time>
      </trkpt>
      <trkpt lat="41.5593100" lon="-8.7822780">
        <ele>18.6</ele>
        <time>2021-05-17T10:17:06Z</time>
      </trkpt>
      <trkpt lat="41.5593090" lon="-8.7822620">
        <ele>18.6</ele>
        <time>2021-05-17T10:17:07Z</time>
      </trkpt>
      <trkpt lat="41.5593090" lon="-8.7822500">
        <ele>18.6</ele>
        <time>2021-05-17T10:17:08Z</time>
      </trkpt>
      <trkpt lat="41.5593080" lon="-8.7822300">
        <ele>18.6</ele>
        <time>2021-05-17T10:17:09Z</time>
      </trkpt>
      <trkpt lat="41.5593180" lon="-8.7822130">
        <ele>18.6</ele>
        <time>2021-05-17T10:17:10Z</time>
      </trkpt>
      <trkpt lat="41.5593250" lon="-8.7821870">
        <ele>18.6</ele>
        <time>2021-05-17T10:17:11Z</time>
      </trkpt>
      <trkpt lat="41.5593310" lon="-8.7821760">
        <ele>18.6</ele>
        <time>2021-05-17T10:17:12Z</time>
      </trkpt>
      <trkpt lat="41.5593360" lon="-8.7821640">
        <ele>18.6</ele>
        <time>2021-05-17T10:17:13Z</time>
      </trkpt>
      <trkpt lat="41.5593460" lon="-8.7821500">
        <ele>18.6</ele>
        <time>2021-05-17T10:17:14Z</time>
      </trkpt>
      <trkpt lat="41.5593590" lon="-8.7821320">
        <ele>18.6</ele>
        <time>2021-05-17T10:17:15Z</time>
      </trkpt>
      <trkpt lat="41.5593830" lon="-8.7821130">
        <ele>18.5</ele>
        <time>2021-05-17T10:17:16Z</time>
      </trkpt>
      <trkpt lat="41.5593900" lon="-8.7821040">
        <ele>18.5</ele>
        <time>2021-05-17T10:17:17Z</time>
      </trkpt>
      <trkpt lat="41.5593990" lon="-8.7820910">
        <ele>18.5</ele>
        <time>2021-05-17T10:17:18Z</time>
      </trkpt>
      <trkpt lat="41.5594090" lon="-8.7820790">
        <ele>18.5</ele>
        <time>2021-05-17T10:17:19Z</time>
      </trkpt>
      <trkpt lat="41.5594070" lon="-8.7820720">
        <ele>18.5</ele>
        <time>2021-05-17T10:17:20Z</time>
      </trkpt>
      <trkpt lat="41.5594140" lon="-8.7820620">
        <ele>18.5</ele>
        <time>2021-05-17T10:17:21Z</time>
      </trkpt>
      <trkpt lat="41.5594310" lon="-8.7820460">
        <ele>18.5</ele>
        <time>2021-05-17T10:17:22Z</time>
      </trkpt>
      <trkpt lat="41.5594390" lon="-8.7820290">
        <ele>18.5</ele>
        <time>2021-05-17T10:17:23Z</time>
      </trkpt>
      <trkpt lat="41.5594460" lon="-8.7820100">
        <ele>18.5</ele>
        <time>2021-05-17T10:17:24Z</time>
      </trkpt>
      <trkpt lat="41.5594560" lon="-8.7819890">
        <ele>18.5</ele>
        <time>2021-05-17T10:17:25Z</time>
      </trkpt>
      <trkpt lat="41.5594600" lon="-8.7819780">
        <ele>18.5</ele>
        <time>2021-05-17T10:17:26Z</time>
      </trkpt>
      <trkpt lat="41.5594650" lon="-8.7819680">
        <ele>18.5</ele>
        <time>2021-05-17T10:17:27Z</time>
      </trkpt>
      <trkpt lat="41.5594720" lon="-8.7819580">
        <ele>18.5</ele>
        <time>2021-05-17T10:17:28Z</time>
      </trkpt>
      <trkpt lat="41.5594800" lon="-8.7819430">
        <ele>18.5</ele>
        <time>2021-05-17T10:17:29Z</time>
      </trkpt>
      <trkpt lat="41.5594850" lon="-8.7819280">
        <ele>18.5</ele>
        <time>2021-05-17T10:17:30Z</time>
      </trkpt>
      <trkpt lat="41.5594910" lon="-8.7819090">
        <ele>18.5</ele>
        <time>2021-05-17T10:17:31Z</time>
      </trkpt>
      <trkpt lat="41.5595020" lon="-8.7818880">
        <ele>18.5</ele>
        <time>2021-05-17T10:17:32Z</time>
      </trkpt>
      <trkpt lat="41.5595090" lon="-8.7818770">
        <ele>18.5</ele>
        <time>2021-05-17T10:17:33Z</time>
      </trkpt>
      <trkpt lat="41.5595160" lon="-8.7818670">
        <ele>18.5</ele>
        <time>2021-05-17T10:17:34Z</time>
      </trkpt>
      <trkpt lat="41.5595200" lon="-8.7818460">
        <ele>18.4</ele>
        <time>2021-05-17T10:17:35Z</time>
      </trkpt>
      <trkpt lat="41.5595300" lon="-8.7818220">
        <ele>18.4</ele>
        <time>2021-05-17T10:17:36Z</time>
      </trkpt>
      <trkpt lat="41.5595320" lon="-8.7818120">
        <ele>18.4</ele>
        <time>2021-05-17T10:17:37Z</time>
      </trkpt>
      <trkpt lat="41.5595390" lon="-8.7818010">
        <ele>18.4</ele>
        <time>2021-05-17T10:17:38Z</time>
      </trkpt>
      <trkpt lat="41.5595560" lon="-8.7817850">
        <ele>18.4</ele>
        <time>2021-05-17T10:17:39Z</time>
      </trkpt>
      <trkpt lat="41.5595650" lon="-8.7817650">
        <ele>18.4</ele>
        <time>2021-05-17T10:17:40Z</time>
      </trkpt>
      <trkpt lat="41.5595690" lon="-8.7817610">
        <ele>18.4</ele>
        <time>2021-05-17T10:17:41Z</time>
      </trkpt>
      <trkpt lat="41.5595750" lon="-8.7817540">
        <ele>18.4</ele>
        <time>2021-05-17T10:17:42Z</time>
      </trkpt>
      <trkpt lat="41.5595890" lon="-8.7817210">
        <ele>18.4</ele>
        <time>2021-05-17T10:17:43Z</time>
      </trkpt>
      <trkpt lat="41.5595900" lon="-8.7817090">
        <ele>18.4</ele>
        <time>2021-05-17T10:17:44Z</time>
      </trkpt>
      <trkpt lat="41.5595910" lon="-8.7816960">
        <ele>18.4</ele>
        <time>2021-05-17T10:17:45Z</time>
      </trkpt>
      <trkpt lat="41.5596010" lon="-8.7816900">
        <ele>18.4</ele>
        <time>2021-05-17T10:17:46Z</time>
      </trkpt>
      <trkpt lat="41.5596170" lon="-8.7816820">
        <ele>18.4</ele>
        <time>2021-05-17T10:17:47Z</time>
      </trkpt>
      <trkpt lat="41.5596360" lon="-8.7816610">
        <ele>18.4</ele>
        <time>2021-05-17T10:17:48Z</time>
      </trkpt>
      <trkpt lat="41.5596410" lon="-8.7816540">
        <ele>18.4</ele>
        <time>2021-05-17T10:17:49Z</time>
      </trkpt>
      <trkpt lat="41.5596460" lon="-8.7816470">
        <ele>18.4</ele>
        <time>2021-05-17T10:17:50Z</time>
      </trkpt>
      <trkpt lat="41.5596570" lon="-8.7816430">
        <ele>18.4</ele>
        <time>2021-05-17T10:17:51Z</time>
      </trkpt>
      <trkpt lat="41.5596700" lon="-8.7816190">
        <ele>18.4</ele>
        <time>2021-05-17T10:17:52Z</time>
      </trkpt>
      <trkpt lat="41.5596820" lon="-8.7816000">
        <ele>18.4</ele>
        <time>2021-05-17T10:17:53Z</time>
      </trkpt>
      <trkpt lat="41.5597000" lon="-8.7815930">
        <ele>18.4</ele>
        <time>2021-05-17T10:17:54Z</time>
      </trkpt>
      <trkpt lat="41.5597160" lon="-8.7815750">
        <ele>18.4</ele>
        <time>2021-05-17T10:17:55Z</time>
      </trkpt>
      <trkpt lat="41.5597230" lon="-8.7815690">
        <ele>18.4</ele>
        <time>2021-05-17T10:17:56Z</time>
      </trkpt>
      <trkpt lat="41.5597300" lon="-8.7815640">
        <ele>18.4</ele>
        <time>2021-05-17T10:17:57Z</time>
      </trkpt>
      <trkpt lat="41.5597460" lon="-8.7815560">
        <ele>18.4</ele>
        <time>2021-05-17T10:17:58Z</time>
      </trkpt>
      <trkpt lat="41.5597540" lon="-8.7815350">
        <ele>18.4</ele>
        <time>2021-05-17T10:17:59Z</time>
      </trkpt>
      <trkpt lat="41.5597770" lon="-8.7815200">
        <ele>18.4</ele>
        <time>2021-05-17T10:18:00Z</time>
      </trkpt>
      <trkpt lat="41.5597860" lon="-8.7815140">
        <ele>18.4</ele>
        <time>2021-05-17T10:18:01Z</time>
      </trkpt>
      <trkpt lat="41.5597950" lon="-8.7815070">
        <ele>18.4</ele>
        <time>2021-05-17T10:18:02Z</time>
      </trkpt>
      <trkpt lat="41.5598040" lon="-8.7814960">
        <ele>18.4</ele>
        <time>2021-05-17T10:18:03Z</time>
      </trkpt>
      <trkpt lat="41.5598130" lon="-8.7814750">
        <ele>18.4</ele>
        <time>2021-05-17T10:18:04Z</time>
      </trkpt>
      <trkpt lat="41.5598270" lon="-8.7814600">
        <ele>18.4</ele>
        <time>2021-05-17T10:18:05Z</time>
      </trkpt>
      <trkpt lat="41.5598390" lon="-8.7814470">
        <ele>18.4</ele>
        <time>2021-05-17T10:18:06Z</time>
      </trkpt>
      <trkpt lat="41.5598520" lon="-8.7814350">
        <ele>18.4</ele>
        <time>2021-05-17T10:18:07Z</time>
      </trkpt>
      <trkpt lat="41.5598610" lon="-8.7814220">
        <ele>18.4</ele>
        <time>2021-05-17T10:18:08Z</time>
      </trkpt>
      <trkpt lat="41.5598740" lon="-8.7814140">
        <ele>18.4</ele>
        <time>2021-05-17T10:18:09Z</time>
      </trkpt>
      <trkpt lat="41.5598810" lon="-8.7814070">
        <ele>18.4</ele>
        <time>2021-05-17T10:18:10Z</time>
      </trkpt>
      <trkpt lat="41.5598890" lon="-8.7814010">
        <ele>18.4</ele>
        <time>2021-05-17T10:18:11Z</time>
      </trkpt>
      <trkpt lat="41.5599000" lon="-8.7813890">
        <ele>18.4</ele>
        <time>2021-05-17T10:18:12Z</time>
      </trkpt>
      <trkpt lat="41.5599140" lon="-8.7813680">
        <ele>18.4</ele>
        <time>2021-05-17T10:18:13Z</time>
      </trkpt>
      <trkpt lat="41.5599190" lon="-8.7813560">
        <ele>18.4</ele>
        <time>2021-05-17T10:18:14Z</time>
      </trkpt>
      <trkpt lat="41.5599280" lon="-8.7813420">
        <ele>18.4</ele>
        <time>2021-05-17T10:18:15Z</time>
      </trkpt>
      <trkpt lat="41.5599400" lon="-8.7813360">
        <ele>18.4</ele>
        <time>2021-05-17T10:18:16Z</time>
      </trkpt>
      <trkpt lat="41.5599500" lon="-8.7813340">
        <ele>18.4</ele>
        <time>2021-05-17T10:18:17Z</time>
      </trkpt>
      <trkpt lat="41.5599600" lon="-8.7813200">
        <ele>18.4</ele>
        <time>2021-05-17T10:18:18Z</time>
      </trkpt>
      <trkpt lat="41.5599710" lon="-8.7813120">
        <ele>18.4</ele>
        <time>2021-05-17T10:18:19Z</time>
      </trkpt>
      <trkpt lat="41.5599840" lon="-8.7812940">
        <ele>18.5</ele>
        <time>2021-05-17T10:18:20Z</time>
      </trkpt>
      <trkpt lat="41.5599900" lon="-8.7812850">
        <ele>18.5</ele>
        <time>2021-05-17T10:18:21Z</time>
      </trkpt>
      <trkpt lat="41.5599970" lon="-8.7812760">
        <ele>18.5</ele>
        <time>2021-05-17T10:18:22Z</time>
      </trkpt>
      <trkpt lat="41.5600040" lon="-8.7812680">
        <ele>18.5</ele>
        <time>2021-05-17T10:18:23Z</time>
      </trkpt>
      <trkpt lat="41.5600120" lon="-8.7812440">
        <ele>18.5</ele>
        <time>2021-05-17T10:18:24Z</time>
      </trkpt>
      <trkpt lat="41.5600210" lon="-8.7812380">
        <ele>18.5</ele>
        <time>2021-05-17T10:18:25Z</time>
      </trkpt>
      <trkpt lat="41.5600350" lon="-8.7812170">
        <ele>18.5</ele>
        <time>2021-05-17T10:18:26Z</time>
      </trkpt>
      <trkpt lat="41.5600510" lon="-8.7811960">
        <ele>18.5</ele>
        <time>2021-05-17T10:18:27Z</time>
      </trkpt>
      <trkpt lat="41.5600560" lon="-8.7811850">
        <ele>18.5</ele>
        <time>2021-05-17T10:18:28Z</time>
      </trkpt>
      <trkpt lat="41.5600620" lon="-8.7811750">
        <ele>18.5</ele>
        <time>2021-05-17T10:18:29Z</time>
      </trkpt>
      <trkpt lat="41.5600790" lon="-8.7811550">
        <ele>18.5</ele>
        <time>2021-05-17T10:18:30Z</time>
      </trkpt>
      <trkpt lat="41.5600850" lon="-8.7811460">
        <ele>18.5</ele>
        <time>2021-05-17T10:18:31Z</time>
      </trkpt>
      <trkpt lat="41.5600910" lon="-8.7811360">
        <ele>18.6</ele>
        <time>2021-05-17T10:18:32Z</time>
      </trkpt>
      <trkpt lat="41.5601040" lon="-8.7811230">
        <ele>18.6</ele>
        <time>2021-05-17T10:18:33Z</time>
      </trkpt>
      <trkpt lat="41.5601170" lon="-8.7811120">
        <ele>18.6</ele>
        <time>2021-05-17T10:18:34Z</time>
      </trkpt>
      <trkpt lat="41.5601450" lon="-8.7810880">
        <ele>18.6</ele>
        <time>2021-05-17T10:18:35Z</time>
      </trkpt>
      <trkpt lat="41.5601510" lon="-8.7810830">
        <ele>18.6</ele>
        <time>2021-05-17T10:18:36Z</time>
      </trkpt>
      <trkpt lat="41.5601570" lon="-8.7810730">
        <ele>18.6</ele>
        <time>2021-05-17T10:18:37Z</time>
      </trkpt>
      <trkpt lat="41.5601670" lon="-8.7810620">
        <ele>18.6</ele>
        <time>2021-05-17T10:18:38Z</time>
      </trkpt>
      <trkpt lat="41.5601770" lon="-8.7810540">
        <ele>18.6</ele>
        <time>2021-05-17T10:18:39Z</time>
      </trkpt>
      <trkpt lat="41.5601860" lon="-8.7810410">
        <ele>18.7</ele>
        <time>2021-05-17T10:18:40Z</time>
      </trkpt>
      <trkpt lat="41.5602000" lon="-8.7810280">
        <ele>18.7</ele>
        <time>2021-05-17T10:18:41Z</time>
      </trkpt>
      <trkpt lat="41.5602110" lon="-8.7810130">
        <ele>18.7</ele>
        <time>2021-05-17T10:18:42Z</time>
      </trkpt>
      <trkpt lat="41.5602260" lon="-8.7809950">
        <ele>18.7</ele>
        <time>2021-05-17T10:18:43Z</time>
      </trkpt>
      <trkpt lat="41.5602430" lon="-8.7809780">
        <ele>18.8</ele>
        <time>2021-05-17T10:18:44Z</time>
      </trkpt>
      <trkpt lat="41.5602490" lon="-8.7809690">
        <ele>18.8</ele>
        <time>2021-05-17T10:18:45Z</time>
      </trkpt>
      <trkpt lat="41.5602540" lon="-8.7809600">
        <ele>18.8</ele>
        <time>2021-05-17T10:18:46Z</time>
      </trkpt>
      <trkpt lat="41.5602690" lon="-8.7809540">
        <ele>18.8</ele>
        <time>2021-05-17T10:18:47Z</time>
      </trkpt>
      <trkpt lat="41.5602810" lon="-8.7809360">
        <ele>18.9</ele>
        <time>2021-05-17T10:18:48Z</time>
      </trkpt>
      <trkpt lat="41.5602940" lon="-8.7809250">
        <ele>18.9</ele>
        <time>2021-05-17T10:18:49Z</time>
      </trkpt>
      <trkpt lat="41.5603060" lon="-8.7809150">
        <ele>18.9</ele>
        <time>2021-05-17T10:18:50Z</time>
      </trkpt>
      <trkpt lat="41.5603240" lon="-8.7808950">
        <ele>19.0</ele>
        <time>2021-05-17T10:18:51Z</time>
      </trkpt>
      <trkpt lat="41.5603330" lon="-8.7808880">
        <ele>19.0</ele>
        <time>2021-05-17T10:18:52Z</time>
      </trkpt>
      <trkpt lat="41.5603430" lon="-8.7808810">
        <ele>19.0</ele>
        <time>2021-05-17T10:18:53Z</time>
      </trkpt>
      <trkpt lat="41.5603520" lon="-8.7808690">
        <ele>19.1</ele>
        <time>2021-05-17T10:18:54Z</time>
      </trkpt>
      <trkpt lat="41.5603620" lon="-8.7808600">
        <ele>19.1</ele>
        <time>2021-05-17T10:18:55Z</time>
      </trkpt>
      <trkpt lat="41.5603710" lon="-8.7808520">
        <ele>19.2</ele>
        <time>2021-05-17T10:18:56Z</time>
      </trkpt>
      <trkpt lat="41.5603800" lon="-8.7808430">
        <ele>19.2</ele>
        <time>2021-05-17T10:18:57Z</time>
      </trkpt>
      <trkpt lat="41.5603970" lon="-8.7808340">
        <ele>19.3</ele>
        <time>2021-05-17T10:18:58Z</time>
      </trkpt>
      <trkpt lat="41.5604050" lon="-8.7808240">
        <ele>19.3</ele>
        <time>2021-05-17T10:18:59Z</time>
      </trkpt>
      <trkpt lat="41.5604140" lon="-8.7808140">
        <ele>19.4</ele>
        <time>2021-05-17T10:19:00Z</time>
      </trkpt>
      <trkpt lat="41.5604190" lon="-8.7808000">
        <ele>19.4</ele>
        <time>2021-05-17T10:19:01Z</time>
      </trkpt>
      <trkpt lat="41.5604220" lon="-8.7807930">
        <ele>19.5</ele>
        <time>2021-05-17T10:19:02Z</time>
      </trkpt>
      <trkpt lat="41.5604320" lon="-8.7807830">
        <ele>19.5</ele>
        <time>2021-05-17T10:19:03Z</time>
      </trkpt>
      <trkpt lat="41.5604410" lon="-8.7807740">
        <ele>19.6</ele>
        <time>2021-05-17T10:19:04Z</time>
      </trkpt>
      <trkpt lat="41.5604520" lon="-8.7807670">
        <ele>19.7</ele>
        <time>2021-05-17T10:19:05Z</time>
      </trkpt>
      <trkpt lat="41.5604680" lon="-8.7807450">
        <ele>19.8</ele>
        <time>2021-05-17T10:19:06Z</time>
      </trkpt>
      <trkpt lat="41.5604760" lon="-8.7807350">
        <ele>19.8</ele>
        <time>2021-05-17T10:19:07Z</time>
      </trkpt>
      <trkpt lat="41.5604840" lon="-8.7807260">
        <ele>19.9</ele>
        <time>2021-05-17T10:19:08Z</time>
      </trkpt>
      <trkpt lat="41.5604960" lon="-8.7807140">
        <ele>20.0</ele>
        <time>2021-05-17T10:19:09Z</time>
      </trkpt>
      <trkpt lat="41.5604990" lon="-8.7807070">
        <ele>20.0</ele>
        <time>2021-05-17T10:19:10Z</time>
      </trkpt>
      <trkpt lat="41.5605080" lon="-8.7806970">
        <ele>20.1</ele>
        <time>2021-05-17T10:19:11Z</time>
      </trkpt>
      <trkpt lat="41.5605220" lon="-8.7806770">
        <ele>20.3</ele>
        <time>2021-05-17T10:19:12Z</time>
      </trkpt>
      <trkpt lat="41.5605280" lon="-8.7806680">
        <ele>20.3</ele>
        <time>2021-05-17T10:19:13Z</time>
      </trkpt>
      <trkpt lat="41.5605340" lon="-8.7806590">
        <ele>20.4</ele>
        <time>2021-05-17T10:19:14Z</time>
      </trkpt>
      <trkpt lat="41.5605510" lon="-8.7806380">
        <ele>20.6</ele>
        <time>2021-05-17T10:19:15Z</time>
      </trkpt>
      <trkpt lat="41.5605580" lon="-8.7806290">
        <ele>20.6</ele>
        <time>2021-05-17T10:19:16Z</time>
      </trkpt>
      <trkpt lat="41.5605640" lon="-8.7806200">
        <ele>20.7</ele>
        <time>2021-05-17T10:19:17Z</time>
      </trkpt>
      <trkpt lat="41.5605770" lon="-8.7805990">
        <ele>20.9</ele>
        <time>2021-05-17T10:19:18Z</time>
      </trkpt>
      <trkpt lat="41.5605820" lon="-8.7805900">
        <ele>20.9</ele>
        <time>2021-05-17T10:19:19Z</time>
      </trkpt>
      <trkpt lat="41.5605870" lon="-8.7805800">
        <ele>21.0</ele>
        <time>2021-05-17T10:19:20Z</time>
      </trkpt>
      <trkpt lat="41.5605980" lon="-8.7805630">
        <ele>21.1</ele>
        <time>2021-05-17T10:19:21Z</time>
      </trkpt>
      <trkpt lat="41.5606070" lon="-8.7805570">
        <ele>21.2</ele>
        <time>2021-05-17T10:19:22Z</time>
      </trkpt>
      <trkpt lat="41.5606120" lon="-8.7805440">
        <ele>21.3</ele>
        <time>2021-05-17T10:19:23Z</time>
      </trkpt>
      <trkpt lat="41.5606220" lon="-8.7805340">
        <ele>21.4</ele>
        <time>2021-05-17T10:19:24Z</time>
      </trkpt>
      <trkpt lat="41.5606260" lon="-8.7805210">
        <ele>21.5</ele>
        <time>2021-05-17T10:19:25Z</time>
      </trkpt>
      <trkpt lat="41.5606330" lon="-8.7805110">
        <ele>21.6</ele>
        <time>2021-05-17T10:19:26Z</time>
      </trkpt>
      <trkpt lat="41.5606450" lon="-8.7804880">
        <ele>21.8</ele>
        <time>2021-05-17T10:19:27Z</time>
      </trkpt>
      <trkpt lat="41.5606500" lon="-8.7804780">
        <ele>21.9</ele>
        <time>2021-05-17T10:19:28Z</time>
      </trkpt>
      <trkpt lat="41.5606550" lon="-8.7804690">
        <ele>22.0</ele>
        <time>2021-05-17T10:19:29Z</time>
      </trkpt>
      <trkpt lat="41.5606620" lon="-8.7804580">
        <ele>22.1</ele>
        <time>2021-05-17T10:19:30Z</time>
      </trkpt>
      <trkpt lat="41.5606700" lon="-8.7804470">
        <ele>22.2</ele>
        <time>2021-05-17T10:19:31Z</time>
      </trkpt>
      <trkpt lat="41.5606800" lon="-8.7804380">
        <ele>22.3</ele>
        <time>2021-05-17T10:19:32Z</time>
      </trkpt>
      <trkpt lat="41.5606930" lon="-8.7804160">
        <ele>22.5</ele>
        <time>2021-05-17T10:19:33Z</time>
      </trkpt>
      <trkpt lat="41.5606970" lon="-8.7804060">
        <ele>22.6</ele>
        <time>2021-05-17T10:19:34Z</time>
      </trkpt>
      <trkpt lat="41.5607040" lon="-8.7803910">
        <ele>22.7</ele>
        <time>2021-05-17T10:19:35Z</time>
      </trkpt>
      <trkpt lat="41.5607120" lon="-8.7803770">
        <ele>22.8</ele>
        <time>2021-05-17T10:19:36Z</time>
      </trkpt>
      <trkpt lat="41.5607160" lon="-8.7803680">
        <ele>22.9</ele>
        <time>2021-05-17T10:19:37Z</time>
      </trkpt>
      <trkpt lat="41.5607220" lon="-8.7803510">
        <ele>23.0</ele>
        <time>2021-05-17T10:19:38Z</time>
      </trkpt>
      <trkpt lat="41.5607320" lon="-8.7803300">
        <ele>23.2</ele>
        <time>2021-05-17T10:19:39Z</time>
      </trkpt>
      <trkpt lat="41.5607410" lon="-8.7803140">
        <ele>23.4</ele>
        <time>2021-05-17T10:19:40Z</time>
      </trkpt>
      <trkpt lat="41.5607500" lon="-8.7802970">
        <ele>23.5</ele>
        <time>2021-05-17T10:19:41Z</time>
      </trkpt>
      <trkpt lat="41.5607570" lon="-8.7802740">
        <ele>23.7</ele>
        <time>2021-05-17T10:19:42Z</time>
      </trkpt>
      <trkpt lat="41.5607600" lon="-8.7802670">
        <ele>23.8</ele>
        <time>2021-05-17T10:19:43Z</time>
      </trkpt>
      <trkpt lat="41.5607690" lon="-8.7802580">
        <ele>23.9</ele>
        <time>2021-05-17T10:19:44Z</time>
      </trkpt>
      <trkpt lat="41.5607830" lon="-8.7802380">
        <ele>24.1</ele>
        <time>2021-05-17T10:19:45Z</time>
      </trkpt>
      <trkpt lat="41.5607880" lon="-8.7802290">
        <ele>24.2</ele>
        <time>2021-05-17T10:19:46Z</time>
      </trkpt>
      <trkpt lat="41.5607930" lon="-8.7802210">
        <ele>24.3</ele>
        <time>2021-05-17T10:19:47Z</time>
      </trkpt>
      <trkpt lat="41.5607990" lon="-8.7802150">
        <ele>24.3</ele>
        <time>2021-05-17T10:19:48Z</time>
      </trkpt>
      <trkpt lat="41.5608080" lon="-8.7802010">
        <ele>24.5</ele>
        <time>2021-05-17T10:19:49Z</time>
      </trkpt>
      <trkpt lat="41.5608110" lon="-8.7801810">
        <ele>24.6</ele>
        <time>2021-05-17T10:19:50Z</time>
      </trkpt>
      <trkpt lat="41.5608110" lon="-8.7801620">
        <ele>24.8</ele>
        <time>2021-05-17T10:19:51Z</time>
      </trkpt>
      <trkpt lat="41.5608200" lon="-8.7801420">
        <ele>25.0</ele>
        <time>2021-05-17T10:19:52Z</time>
      </trkpt>
      <trkpt lat="41.5608310" lon="-8.7801180">
        <ele>25.2</ele>
        <time>2021-05-17T10:19:53Z</time>
      </trkpt>
      <trkpt lat="41.5608370" lon="-8.7801080">
        <ele>25.3</ele>
        <time>2021-05-17T10:19:54Z</time>
      </trkpt>
      <trkpt lat="41.5608440" lon="-8.7800980">
        <ele>25.4</ele>
        <time>2021-05-17T10:19:55Z</time>
      </trkpt>
      <trkpt lat="41.5608500" lon="-8.7800810">
        <ele>25.6</ele>
        <time>2021-05-17T10:19:56Z</time>
      </trkpt>
      <trkpt lat="41.5608640" lon="-8.7800680">
        <ele>25.7</ele>
        <time>2021-05-17T10:19:57Z</time>
      </trkpt>
      <trkpt lat="41.5608720" lon="-8.7800590">
        <ele>25.8</ele>
        <time>2021-05-17T10:19:58Z</time>
      </trkpt>
      <trkpt lat="41.5608790" lon="-8.7800530">
        <ele>25.9</ele>
        <time>2021-05-17T10:19:59Z</time>
      </trkpt>
      <trkpt lat="41.5608870" lon="-8.7800390">
        <ele>26.1</ele>
        <time>2021-05-17T10:20:00Z</time>
      </trkpt>
      <trkpt lat="41.5608990" lon="-8.7800300">
        <ele>26.2</ele>
        <time>2021-05-17T10:20:01Z</time>
      </trkpt>
      <trkpt lat="41.5609110" lon="-8.7800130">
        <ele>26.4</ele>
        <time>2021-05-17T10:20:02Z</time>
      </trkpt>
      <trkpt lat="41.5609200" lon="-8.7800000">
        <ele>26.5</ele>
        <time>2021-05-17T10:20:03Z</time>
      </trkpt>
      <trkpt lat="41.5609270" lon="-8.7799800">
        <ele>26.7</ele>
        <time>2021-05-17T10:20:04Z</time>
      </trkpt>
      <trkpt lat="41.5609390" lon="-8.7799590">
        <ele>26.9</ele>
        <time>2021-05-17T10:20:05Z</time>
      </trkpt>
      <trkpt lat="41.5609460" lon="-8.7799500">
        <ele>27.0</ele>
        <time>2021-05-17T10:20:06Z</time>
      </trkpt>
      <trkpt lat="41.5609520" lon="-8.7799410">
        <ele>27.1</ele>
        <time>2021-05-17T10:20:07Z</time>
      </trkpt>
      <trkpt lat="41.5609520" lon="-8.7799260">
        <ele>27.2</ele>
        <time>2021-05-17T10:20:08Z</time>
      </trkpt>
      <trkpt lat="41.5609610" lon="-8.7799100">
        <ele>27.4</ele>
        <time>2021-05-17T10:20:09Z</time>
      </trkpt>
      <trkpt lat="41.5609680" lon="-8.7799020">
        <ele>27.5</ele>
        <time>2021-05-17T10:20:10Z</time>
      </trkpt>
      <trkpt lat="41.5609780" lon="-8.7798880">
        <ele>27.6</ele>
        <time>2021-05-17T10:20:11Z</time>
      </trkpt>
      <trkpt lat="41.5609900" lon="-8.7798730">
        <ele>27.8</ele>
        <time>2021-05-17T10:20:12Z</time>
      </trkpt>
      <trkpt lat="41.5610000" lon="-8.7798600">
        <ele>28.0</ele>
        <time>2021-05-17T10:20:13Z</time>
      </trkpt>
      <trkpt lat="41.5610030" lon="-8.7798430">
        <ele>28.1</ele>
        <time>2021-05-17T10:20:14Z</time>
      </trkpt>
      <trkpt lat="41.5610060" lon="-8.7798330">
        <ele>28.2</ele>
        <time>2021-05-17T10:20:15Z</time>
      </trkpt>
      <trkpt lat="41.5610150" lon="-8.7798180">
        <ele>28.3</ele>
        <time>2021-05-17T10:20:16Z</time>
      </trkpt>
      <trkpt lat="41.5610190" lon="-8.7798120">
        <ele>28.4</ele>
        <time>2021-05-17T10:20:17Z</time>
      </trkpt>
      <trkpt lat="41.5610230" lon="-8.7798000">
        <ele>28.5</ele>
        <time>2021-05-17T10:20:18Z</time>
      </trkpt>
      <trkpt lat="41.5610300" lon="-8.7797810">
        <ele>28.7</ele>
        <time>2021-05-17T10:20:19Z</time>
      </trkpt>
      <trkpt lat="41.5610350" lon="-8.7797710">
        <ele>28.8</ele>
        <time>2021-05-17T10:20:20Z</time>
      </trkpt>
      <trkpt lat="41.5610390" lon="-8.7797610">
        <ele>28.9</ele>
        <time>2021-05-17T10:20:21Z</time>
      </trkpt>
      <trkpt lat="41.5610490" lon="-8.7797410">
        <ele>29.0</ele>
        <time>2021-05-17T10:20:22Z</time>
      </trkpt>
      <trkpt lat="41.5610550" lon="-8.7797240">
        <ele>29.2</ele>
        <time>2021-05-17T10:20:23Z</time>
      </trkpt>
      <trkpt lat="41.5610640" lon="-8.7797090">
        <ele>29.3</ele>
        <time>2021-05-17T10:20:24Z</time>
      </trkpt>
      <trkpt lat="41.5610730" lon="-8.7797000">
        <ele>29.4</ele>
        <time>2021-05-17T10:20:25Z</time>
      </trkpt>
      <trkpt lat="41.5610790" lon="-8.7796900">
        <ele>29.5</ele>
        <time>2021-05-17T10:20:26Z</time>
      </trkpt>
      <trkpt lat="41.5610860" lon="-8.7796670">
        <ele>29.7</ele>
        <time>2021-05-17T10:20:27Z</time>
      </trkpt>
      <trkpt lat="41.5610910" lon="-8.7796570">
        <ele>29.8</ele>
        <time>2021-05-17T10:20:28Z</time>
      </trkpt>
      <trkpt lat="41.5610960" lon="-8.7796470">
        <ele>29.9</ele>
        <time>2021-05-17T10:20:29Z</time>
      </trkpt>
      <trkpt lat="41.5611020" lon="-8.7796330">
        <ele>30.0</ele>
        <time>2021-05-17T10:20:30Z</time>
      </trkpt>
      <trkpt lat="41.5611100" lon="-8.7796170">
        <ele>30.1</ele>
        <time>2021-05-17T10:20:31Z</time>
      </trkpt>
      <trkpt lat="41.5611140" lon="-8.7796060">
        <ele>30.2</ele>
        <time>2021-05-17T10:20:32Z</time>
      </trkpt>
      <trkpt lat="41.5611200" lon="-8.7795960">
        <ele>30.3</ele>
        <time>2021-05-17T10:20:33Z</time>
      </trkpt>
      <trkpt lat="41.5611300" lon="-8.7795810">
        <ele>30.4</ele>
        <time>2021-05-17T10:20:34Z</time>
      </trkpt>
      <trkpt lat="41.5611390" lon="-8.7795740">
        <ele>30.5</ele>
        <time>2021-05-17T10:20:35Z</time>
      </trkpt>
      <trkpt lat="41.5611470" lon="-8.7795590">
        <ele>30.6</ele>
        <time>2021-05-17T10:20:36Z</time>
      </trkpt>
      <trkpt lat="41.5611570" lon="-8.7795440">
        <ele>30.8</ele>
        <time>2021-05-17T10:20:37Z</time>
      </trkpt>
      <trkpt lat="41.5611660" lon="-8.7795320">
        <ele>30.9</ele>
        <time>2021-05-17T10:20:38Z</time>
      </trkpt>
      <trkpt lat="41.5611680" lon="-8.7795190">
        <ele>30.9</ele>
        <time>2021-05-17T10:20:39Z</time>
      </trkpt>
      <trkpt lat="41.5611680" lon="-8.7795000">
        <ele>31.0</ele>
        <time>2021-05-17T10:20:40Z</time>
      </trkpt>
      <trkpt lat="41.5611740" lon="-8.7794680">
        <ele>31.2</ele>
        <time>2021-05-17T10:20:41Z</time>
      </trkpt>
      <trkpt lat="41.5611790" lon="-8.7794570">
        <ele>31.3</ele>
        <time>2021-05-17T10:20:42Z</time>
      </trkpt>
      <trkpt lat="41.5611830" lon="-8.7794450">
        <ele>31.4</ele>
        <time>2021-05-17T10:20:43Z</time>
      </trkpt>
      <trkpt lat="41.5611850" lon="-8.7794300">
        <ele>31.4</ele>
        <time>2021-05-17T10:20:44Z</time>
      </trkpt>
      <trkpt lat="41.5611990" lon="-8.7794100">
        <ele>31.6</ele>
        <time>2021-05-17T10:20:45Z</time>
      </trkpt>
      <trkpt lat="41.5612100" lon="-8.7794000">
        <ele>31.7</ele>
        <time>2021-05-17T10:20:46Z</time>
      </trkpt>
      <trkpt lat="41.5612160" lon="-8.7793850">
        <ele>31.8</ele>
        <time>2021-05-17T10:20:47Z</time>
      </trkpt>
      <trkpt lat="41.5612180" lon="-8.7793790">
        <ele>31.8</ele>
        <time>2021-05-17T10:20:48Z</time>
      </trkpt>
      <trkpt lat="41.5612260" lon="-8.7793600">
        <ele>31.9</ele>
        <time>2021-05-17T10:20:49Z</time>
      </trkpt>
      <trkpt lat="41.5612360" lon="-8.7793440">
        <ele>32.0</ele>
        <time>2021-05-17T10:20:50Z</time>
      </trkpt>
      <trkpt lat="41.5612470" lon="-8.7793240">
        <ele>32.1</ele>
        <time>2021-05-17T10:20:51Z</time>
      </trkpt>
      <trkpt lat="41.5612550" lon="-8.7793070">
        <ele>32.2</ele>
        <time>2021-05-17T10:20:52Z</time>
      </trkpt>
      <trkpt lat="41.5612630" lon="-8.7792960">
        <ele>32.3</ele>
        <time>2021-05-17T10:20:53Z</time>
      </trkpt>
      <trkpt lat="41.5612690" lon="-8.7792860">
        <ele>32.4</ele>
        <time>2021-05-17T10:20:54Z</time>
      </trkpt>
      <trkpt lat="41.5612770" lon="-8.7792730">
        <ele>32.4</ele>
        <time>2021-05-17T10:20:55Z</time>
      </trkpt>
      <trkpt lat="41.5612850" lon="-8.7792570">
        <ele>32.5</ele>
        <time>2021-05-17T10:20:56Z</time>
      </trkpt>
      <trkpt lat="41.5612930" lon="-8.7792490">
        <ele>32.6</ele>
        <time>2021-05-17T10:20:57Z</time>
      </trkpt>
      <trkpt lat="41.5612960" lon="-8.7792400">
        <ele>32.6</ele>
        <time>2021-05-17T10:20:58Z</time>
      </trkpt>
      <trkpt lat="41.5613110" lon="-8.7792230">
        <ele>32.7</ele>
        <time>2021-05-17T10:20:59Z</time>
      </trkpt>
      <trkpt lat="41.5613170" lon="-8.7792140">
        <ele>32.8</ele>
        <time>2021-05-17T10:21:00Z</time>
      </trkpt>
      <trkpt lat="41.5613240" lon="-8.7792060">
        <ele>32.9</ele>
        <time>2021-05-17T10:21:01Z</time>
      </trkpt>
      <trkpt lat="41.5613310" lon="-8.7791880">
        <ele>32.9</ele>
        <time>2021-05-17T10:21:02Z</time>
      </trkpt>
      <trkpt lat="41.5613440" lon="-8.7791770">
        <ele>33.0</ele>
        <time>2021-05-17T10:21:03Z</time>
      </trkpt>
      <trkpt lat="41.5613480" lon="-8.7791590">
        <ele>33.1</ele>
        <time>2021-05-17T10:21:04Z</time>
      </trkpt>
      <trkpt lat="41.5613570" lon="-8.7791440">
        <ele>33.2</ele>
        <time>2021-05-17T10:21:05Z</time>
      </trkpt>
      <trkpt lat="41.5613710" lon="-8.7791220">
        <ele>33.3</ele>
        <time>2021-05-17T10:21:06Z</time>
      </trkpt>
      <trkpt lat="41.5613750" lon="-8.7791130">
        <ele>33.3</ele>
        <time>2021-05-17T10:21:07Z</time>
      </trkpt>
      <trkpt lat="41.5613790" lon="-8.7791030">
        <ele>33.4</ele>
        <time>2021-05-17T10:21:08Z</time>
      </trkpt>
      <trkpt lat="41.5613890" lon="-8.7790950">
        <ele>33.4</ele>
        <time>2021-05-17T10:21:09Z</time>
      </trkpt>
      <trkpt lat="41.5613910" lon="-8.7790820">
        <ele>33.5</ele>
        <time>2021-05-17T10:21:10Z</time>
      </trkpt>
      <trkpt lat="41.5613980" lon="-8.7790700">
        <ele>33.5</ele>
        <time>2021-05-17T10:21:11Z</time>
      </trkpt>
      <trkpt lat="41.5614070" lon="-8.7790470">
        <ele>33.6</ele>
        <time>2021-05-17T10:21:12Z</time>
      </trkpt>
      <trkpt lat="41.5614110" lon="-8.7790370">
        <ele>33.7</ele>
        <time>2021-05-17T10:21:13Z</time>
      </trkpt>
      <trkpt lat="41.5614150" lon="-8.7790260">
        <ele>33.7</ele>
        <time>2021-05-17T10:21:14Z</time>
      </trkpt>
      <trkpt lat="41.5614190" lon="-8.7790160">
        <ele>33.8</ele>
        <time>2021-05-17T10:21:15Z</time>
      </trkpt>
      <trkpt lat="41.5614240" lon="-8.7790040">
        <ele>33.8</ele>
        <time>2021-05-17T10:21:16Z</time>
      </trkpt>
      <trkpt lat="41.5614250" lon="-8.7789910">
        <ele>33.9</ele>
        <time>2021-05-17T10:21:17Z</time>
      </trkpt>
      <trkpt lat="41.5614360" lon="-8.7789750">
        <ele>33.9</ele>
        <time>2021-05-17T10:21:18Z</time>
      </trkpt>
      <trkpt lat="41.5614400" lon="-8.7789570">
        <ele>34.0</ele>
        <time>2021-05-17T10:21:19Z</time>
      </trkpt>
      <trkpt lat="41.5614490" lon="-8.7789430">
        <ele>34.1</ele>
        <time>2021-05-17T10:21:20Z</time>
      </trkpt>
      <trkpt lat="41.5614670" lon="-8.7789260">
        <ele>34.2</ele>
        <time>2021-05-17T10:21:21Z</time>
      </trkpt>
      <trkpt lat="41.5614700" lon="-8.7789160">
        <ele>34.2</ele>
        <time>2021-05-17T10:21:22Z</time>
      </trkpt>
      <trkpt lat="41.5614780" lon="-8.7789050">
        <ele>34.2</ele>
        <time>2021-05-17T10:21:23Z</time>
      </trkpt>
      <trkpt lat="41.5614840" lon="-8.7788910">
        <ele>34.3</ele>
        <time>2021-05-17T10:21:24Z</time>
      </trkpt>
      <trkpt lat="41.5614840" lon="-8.7788740">
        <ele>34.3</ele>
        <time>2021-05-17T10:21:25Z</time>
      </trkpt>
      <trkpt lat="41.5614950" lon="-8.7788550">
        <ele>34.4</ele>
        <time>2021-05-17T10:21:26Z</time>
      </trkpt>
      <trkpt lat="41.5614970" lon="-8.7788400">
        <ele>34.5</ele>
        <time>2021-05-17T10:21:27Z</time>
      </trkpt>
      <trkpt lat="41.5615020" lon="-8.7788300">
        <ele>34.5</ele>
        <time>2021-05-17T10:21:28Z</time>
      </trkpt>
      <trkpt lat="41.5615060" lon="-8.7788140">
        <ele>34.5</ele>
        <time>2021-05-17T10:21:29Z</time>
      </trkpt>
      <trkpt lat="41.5615110" lon="-8.7788000">
        <ele>34.6</ele>
        <time>2021-05-17T10:21:30Z</time>
      </trkpt>
      <trkpt lat="41.5615170" lon="-8.7787870">
        <ele>34.6</ele>
        <time>2021-05-17T10:21:31Z</time>
      </trkpt>
      <trkpt lat="41.5615220" lon="-8.7787710">
        <ele>34.7</ele>
        <time>2021-05-17T10:21:32Z</time>
      </trkpt>
      <trkpt lat="41.5615300" lon="-8.7787520">
        <ele>34.7</ele>
        <time>2021-05-17T10:21:33Z</time>
      </trkpt>
      <trkpt lat="41.5615340" lon="-8.7787380">
        <ele>34.8</ele>
        <time>2021-05-17T10:21:34Z</time>
      </trkpt>
      <trkpt lat="41.5615390" lon="-8.7787250">
        <ele>34.8</ele>
        <time>2021-05-17T10:21:35Z</time>
      </trkpt>
      <trkpt lat="41.5615560" lon="-8.7787140">
        <ele>34.9</ele>
        <time>2021-05-17T10:21:36Z</time>
      </trkpt>
      <trkpt lat="41.5615620" lon="-8.7787050">
        <ele>34.9</ele>
        <time>2021-05-17T10:21:37Z</time>
      </trkpt>
      <trkpt lat="41.5615690" lon="-8.7787050">
        <ele>35.0</ele>
        <time>2021-05-17T10:21:38Z</time>
      </trkpt>
      <trkpt lat="41.5615790" lon="-8.7786990">
        <ele>35.0</ele>
        <time>2021-05-17T10:21:39Z</time>
      </trkpt>
      <trkpt lat="41.5615910" lon="-8.7787040">
        <ele>35.1</ele>
        <time>2021-05-17T10:21:40Z</time>
      </trkpt>
      <trkpt lat="41.5616020" lon="-8.7786990">
        <ele>35.1</ele>
        <time>2021-05-17T10:21:41Z</time>
      </trkpt>
      <trkpt lat="41.5616120" lon="-8.7787080">
        <ele>35.1</ele>
        <time>2021-05-17T10:21:42Z</time>
      </trkpt>
      <trkpt lat="41.5616210" lon="-8.7787090">
        <ele>35.1</ele>
        <time>2021-05-17T10:21:43Z</time>
      </trkpt>
      <trkpt lat="41.5616390" lon="-8.7787180">
        <ele>35.1</ele>
        <time>2021-05-17T10:21:44Z</time>
      </trkpt>
      <trkpt lat="41.5616510" lon="-8.7787180">
        <ele>35.2</ele>
        <time>2021-05-17T10:21:45Z</time>
      </trkpt>
      <trkpt lat="41.5616610" lon="-8.7787230">
        <ele>35.2</ele>
        <time>2021-05-17T10:21:46Z</time>
      </trkpt>
      <trkpt lat="41.5616740" lon="-8.7787260">
        <ele>35.2</ele>
        <time>2021-05-17T10:21:47Z</time>
      </trkpt>
      <trkpt lat="41.5616860" lon="-8.7787260">
        <ele>35.2</ele>
        <time>2021-05-17T10:21:48Z</time>
      </trkpt>
      <trkpt lat="41.5617040" lon="-8.7787370">
        <ele>35.2</ele>
        <time>2021-05-17T10:21:49Z</time>
      </trkpt>
      <trkpt lat="41.5617170" lon="-8.7787340">
        <ele>35.2</ele>
        <time>2021-05-17T10:21:50Z</time>
      </trkpt>
      <trkpt lat="41.5617440" lon="-8.7787450">
        <ele>35.2</ele>
        <time>2021-05-17T10:21:51Z</time>
      </trkpt>
      <trkpt lat="41.5617540" lon="-8.7787510">
        <ele>35.3</ele>
        <time>2021-05-17T10:21:52Z</time>
      </trkpt>
      <trkpt lat="41.5617640" lon="-8.7787580">
        <ele>35.3</ele>
        <time>2021-05-17T10:21:53Z</time>
      </trkpt>
      <trkpt lat="41.5617770" lon="-8.7787570">
        <ele>35.3</ele>
        <time>2021-05-17T10:21:54Z</time>
      </trkpt>
      <trkpt lat="41.5617840" lon="-8.7787630">
        <ele>35.3</ele>
        <time>2021-05-17T10:21:55Z</time>
      </trkpt>
      <trkpt lat="41.5617910" lon="-8.7787700">
        <ele>35.3</ele>
        <time>2021-05-17T10:21:56Z</time>
      </trkpt>
      <trkpt lat="41.5617980" lon="-8.7787760">
        <ele>35.3</ele>
        <time>2021-05-17T10:21:57Z</time>
      </trkpt>
      <trkpt lat="41.5618150" lon="-8.7787720">
        <ele>35.3</ele>
        <time>2021-05-17T10:21:58Z</time>
      </trkpt>
      <trkpt lat="41.5618290" lon="-8.7787880">
        <ele>35.3</ele>
        <time>2021-05-17T10:21:59Z</time>
      </trkpt>
      <trkpt lat="41.5618340" lon="-8.7787930">
        <ele>35.3</ele>
        <time>2021-05-17T10:22:00Z</time>
      </trkpt>
      <trkpt lat="41.5618460" lon="-8.7788010">
        <ele>35.3</ele>
        <time>2021-05-17T10:22:01Z</time>
      </trkpt>
      <trkpt lat="41.5618510" lon="-8.7788040">
        <ele>35.3</ele>
        <time>2021-05-17T10:22:02Z</time>
      </trkpt>
      <trkpt lat="41.5618620" lon="-8.7788100">
        <ele>35.4</ele>
        <time>2021-05-17T10:22:03Z</time>
      </trkpt>
      <trkpt lat="41.5618840" lon="-8.7788190">
        <ele>35.4</ele>
        <time>2021-05-17T10:22:04Z</time>
      </trkpt>
      <trkpt lat="41.5618910" lon="-8.7788220">
        <ele>35.4</ele>
        <time>2021-05-17T10:22:05Z</time>
      </trkpt>
      <trkpt lat="41.5618980" lon="-8.7788260">
        <ele>35.4</ele>
        <time>2021-05-17T10:22:06Z</time>
      </trkpt>
      <trkpt lat="41.5619260" lon="-8.7788330">
        <ele>35.4</ele>
        <time>2021-05-17T10:22:07Z</time>
      </trkpt>
      <trkpt lat="41.5619340" lon="-8.7788390">
        <ele>35.4</ele>
        <time>2021-05-17T10:22:08Z</time>
      </trkpt>
      <trkpt lat="41.5619560" lon="-8.7788420">
        <ele>35.4</ele>
        <time>2021-05-17T10:22:09Z</time>
      </trkpt>
      <trkpt lat="41.5619640" lon="-8.7788480">
        <ele>35.4</ele>
        <time>2021-05-17T10:22:10Z</time>
      </trkpt>
      <trkpt lat="41.5619730" lon="-8.7788530">
        <ele>35.4</ele>
        <time>2021-05-17T10:22:11Z</time>
      </trkpt>
      <trkpt lat="41.5619900" lon="-8.7788630">
        <ele>35.4</ele>
        <time>2021-05-17T10:22:12Z</time>
      </trkpt>
      <trkpt lat="41.5620010" lon="-8.7788670">
        <ele>35.4</ele>
        <time>2021-05-17T10:22:13Z</time>
      </trkpt>
      <trkpt lat="41.5620070" lon="-8.7788690">
        <ele>35.4</ele>
        <time>2021-05-17T10:22:14Z</time>
      </trkpt>
      <trkpt lat="41.5620130" lon="-8.7788770">
        <ele>35.5</ele>
        <time>2021-05-17T10:22:15Z</time>
      </trkpt>
      <trkpt lat="41.5620280" lon="-8.7788840">
        <ele>35.5</ele>
        <time>2021-05-17T10:22:16Z</time>
      </trkpt>
      <trkpt lat="41.5620460" lon="-8.7788870">
        <ele>35.5</ele>
        <time>2021-05-17T10:22:17Z</time>
      </trkpt>
      <trkpt lat="41.5620560" lon="-8.7788880">
        <ele>35.5</ele>
        <time>2021-05-17T10:22:18Z</time>
      </trkpt>
      <trkpt lat="41.5620670" lon="-8.7788890">
        <ele>35.5</ele>
        <time>2021-05-17T10:22:19Z</time>
      </trkpt>
      <trkpt lat="41.5620770" lon="-8.7788920">
        <ele>35.5</ele>
        <time>2021-05-17T10:22:20Z</time>
      </trkpt>
      <trkpt lat="41.5620860" lon="-8.7788940">
        <ele>35.5</ele>
        <time>2021-05-17T10:22:21Z</time>
      </trkpt>
      <trkpt lat="41.5621020" lon="-8.7788940">
        <ele>35.5</ele>
        <time>2021-05-17T10:22:22Z</time>
      </trkpt>
      <trkpt lat="41.5621090" lon="-8.7788980">
        <ele>35.5</ele>
        <time>2021-05-17T10:22:23Z</time>
      </trkpt>
      <trkpt lat="41.5621190" lon="-8.7788980">
        <ele>35.5</ele>
        <time>2021-05-17T10:22:24Z</time>
      </trkpt>
      <trkpt lat="41.5621360" lon="-8.7789000">
        <ele>35.5</ele>
        <time>2021-05-17T10:22:25Z</time>
      </trkpt>
      <trkpt lat="41.5621440" lon="-8.7789070">
        <ele>35.5</ele>
        <time>2021-05-17T10:22:26Z</time>
      </trkpt>
      <trkpt lat="41.5621700" lon="-8.7789150">
        <ele>35.5</ele>
        <time>2021-05-17T10:22:27Z</time>
      </trkpt>
      <trkpt lat="41.5622000" lon="-8.7789160">
        <ele>35.5</ele>
        <time>2021-05-17T10:22:28Z</time>
      </trkpt>
      <trkpt lat="41.5622080" lon="-8.7789190">
        <ele>35.5</ele>
        <time>2021-05-17T10:22:29Z</time>
      </trkpt>
      <trkpt lat="41.5622250" lon="-8.7789310">
        <ele>35.5</ele>
        <time>2021-05-17T10:22:30Z</time>
      </trkpt>
      <trkpt lat="41.5622340" lon="-8.7789360">
        <ele>35.5</ele>
        <time>2021-05-17T10:22:31Z</time>
      </trkpt>
      <trkpt lat="41.5622420" lon="-8.7789420">
        <ele>35.5</ele>
        <time>2021-05-17T10:22:32Z</time>
      </trkpt>
      <trkpt lat="41.5622500" lon="-8.7789380">
        <ele>35.5</ele>
        <time>2021-05-17T10:22:33Z</time>
      </trkpt>
      <trkpt lat="41.5622600" lon="-8.7789410">
        <ele>35.5</ele>
        <time>2021-05-17T10:22:34Z</time>
      </trkpt>
      <trkpt lat="41.5622640" lon="-8.7789440">
        <ele>35.5</ele>
        <time>2021-05-17T10:22:35Z</time>
      </trkpt>
      <trkpt lat="41.5622660" lon="-8.7789460">
        <ele>35.5</ele>
        <time>2021-05-17T10:22:36Z</time>
      </trkpt>
      <trkpt lat="41.5622690" lon="-8.7789450">
        <ele>35.5</ele>
        <time>2021-05-17T10:22:37Z</time>
      </trkpt>
      <trkpt lat="41.5622740" lon="-8.7789410">
        <ele>35.5</ele>
        <time>2021-05-17T10:22:38Z</time>
      </trkpt>
      <trkpt lat="41.5622740" lon="-8.7789410">
        <ele>35.5</ele>
        <time>2021-05-17T10:22:39Z</time>
      </trkpt>
      <trkpt lat="41.5622780" lon="-8.7789410">
        <ele>35.5</ele>
        <time>2021-05-17T10:22:40Z</time>
      </trkpt>
      <trkpt lat="41.5622790" lon="-8.7789400">
        <ele>35.5</ele>
        <time>2021-05-17T10:22:41Z</time>
      </trkpt>
      <trkpt lat="41.5622820" lon="-8.7789400">
        <ele>35.5</ele>
        <time>2021-05-17T10:22:42Z</time>
      </trkpt>
      <trkpt lat="41.5622880" lon="-8.7789370">
        <ele>35.5</ele>
        <time>2021-05-17T10:22:43Z</time>
      </trkpt>
      <trkpt lat="41.5622890" lon="-8.7789370">
        <ele>35.5</ele>
        <time>2021-05-17T10:22:44Z</time>
      </trkpt>
      <trkpt lat="41.5622860" lon="-8.7789350">
        <ele>35.5</ele>
        <time>2021-05-17T10:22:45Z</time>
      </trkpt>
      <trkpt lat="41.5622790" lon="-8.7789380">
        <ele>35.5</ele>
        <time>2021-05-17T10:22:46Z</time>
      </trkpt>
      <trkpt lat="41.5622980" lon="-8.7789340">
        <ele>35.5</ele>
        <time>2021-05-17T10:22:47Z</time>
      </trkpt>
      <trkpt lat="41.5623050" lon="-8.7789450">
        <ele>35.5</ele>
        <time>2021-05-17T10:22:48Z</time>
      </trkpt>
      <trkpt lat="41.5623310" lon="-8.7789410">
        <ele>35.5</ele>
        <time>2021-05-17T10:22:49Z</time>
      </trkpt>
      <trkpt lat="41.5623540" lon="-8.7789430">
        <ele>35.5</ele>
        <time>2021-05-17T10:22:50Z</time>
      </trkpt>
      <trkpt lat="41.5623630" lon="-8.7789450">
        <ele>35.5</ele>
        <time>2021-05-17T10:22:51Z</time>
      </trkpt>
      <trkpt lat="41.5623730" lon="-8.7789470">
        <ele>35.5</ele>
        <time>2021-05-17T10:22:52Z</time>
      </trkpt>
      <trkpt lat="41.5623910" lon="-8.7789450">
        <ele>35.5</ele>
        <time>2021-05-17T10:22:53Z</time>
      </trkpt>
      <trkpt lat="41.5624000" lon="-8.7789510">
        <ele>35.5</ele>
        <time>2021-05-17T10:22:54Z</time>
      </trkpt>
      <trkpt lat="41.5624090" lon="-8.7789580">
        <ele>35.5</ele>
        <time>2021-05-17T10:22:55Z</time>
      </trkpt>
      <trkpt lat="41.5624180" lon="-8.7789650">
        <ele>35.5</ele>
        <time>2021-05-17T10:22:56Z</time>
      </trkpt>
      <trkpt lat="41.5624260" lon="-8.7789720">
        <ele>35.5</ele>
        <time>2021-05-17T10:22:57Z</time>
      </trkpt>
      <trkpt lat="41.5624320" lon="-8.7789780">
        <ele>35.5</ele>
        <time>2021-05-17T10:22:58Z</time>
      </trkpt>
      <trkpt lat="41.5624440" lon="-8.7789840">
        <ele>35.5</ele>
        <time>2021-05-17T10:22:59Z</time>
      </trkpt>
      <trkpt lat="41.5624640" lon="-8.7789940">
        <ele>35.5</ele>
        <time>2021-05-17T10:23:00Z</time>
      </trkpt>
      <trkpt lat="41.5624710" lon="-8.7790010">
        <ele>35.5</ele>
        <time>2021-05-17T10:23:01Z</time>
      </trkpt>
      <trkpt lat="41.5624780" lon="-8.7790070">
        <ele>35.5</ele>
        <time>2021-05-17T10:23:02Z</time>
      </trkpt>
      <trkpt lat="41.5625010" lon="-8.7790240">
        <ele>35.4</ele>
        <time>2021-05-17T10:23:03Z</time>
      </trkpt>
      <trkpt lat="41.5625160" lon="-8.7790300">
        <ele>35.4</ele>
        <time>2021-05-17T10:23:04Z</time>
      </trkpt>
      <trkpt lat="41.5625350" lon="-8.7790360">
        <ele>35.4</ele>
        <time>2021-05-17T10:23:05Z</time>
      </trkpt>
      <trkpt lat="41.5625450" lon="-8.7790390">
        <ele>35.4</ele>
        <time>2021-05-17T10:23:06Z</time>
      </trkpt>
      <trkpt lat="41.5625540" lon="-8.7790410">
        <ele>35.4</ele>
        <time>2021-05-17T10:23:07Z</time>
      </trkpt>
      <trkpt lat="41.5625670" lon="-8.7790450">
        <ele>35.4</ele>
        <time>2021-05-17T10:23:08Z</time>
      </trkpt>
      <trkpt lat="41.5625820" lon="-8.7790540">
        <ele>35.4</ele>
        <time>2021-05-17T10:23:09Z</time>
      </trkpt>
      <trkpt lat="41.5625970" lon="-8.7790490">
        <ele>35.4</ele>
        <time>2021-05-17T10:23:10Z</time>
      </trkpt>
      <trkpt lat="41.5626090" lon="-8.7790550">
        <ele>35.4</ele>
        <time>2021-05-17T10:23:11Z</time>
      </trkpt>
      <trkpt lat="41.5626200" lon="-8.7790580">
        <ele>35.4</ele>
        <time>2021-05-17T10:23:12Z</time>
      </trkpt>
      <trkpt lat="41.5626350" lon="-8.7790680">
        <ele>35.4</ele>
        <time>2021-05-17T10:23:13Z</time>
      </trkpt>
      <trkpt lat="41.5626390" lon="-8.7790740">
        <ele>35.4</ele>
        <time>2021-05-17T10:23:14Z</time>
      </trkpt>
      <trkpt lat="41.5626570" lon="-8.7790900">
        <ele>35.4</ele>
        <time>2021-05-17T10:23:15Z</time>
      </trkpt>
      <trkpt lat="41.5626730" lon="-8.7790910">
        <ele>35.4</ele>
        <time>2021-05-17T10:23:16Z</time>
      </trkpt>
      <trkpt lat="41.5626850" lon="-8.7790940">
        <ele>35.4</ele>
        <time>2021-05-17T10:23:17Z</time>
      </trkpt>
      <trkpt lat="41.5627000" lon="-8.7791060">
        <ele>35.4</ele>
        <time>2021-05-17T10:23:18Z</time>
      </trkpt>
      <trkpt lat="41.5627120" lon="-8.7791100">
        <ele>35.4</ele>
        <time>2021-05-17T10:23:19Z</time>
      </trkpt>
      <trkpt lat="41.5627220" lon="-8.7791180">
        <ele>35.4</ele>
        <time>2021-05-17T10:23:20Z</time>
      </trkpt>
      <trkpt lat="41.5627310" lon="-8.7791230">
        <ele>35.4</ele>
        <time>2021-05-17T10:23:21Z</time>
      </trkpt>
      <trkpt lat="41.5627440" lon="-8.7791290">
        <ele>35.4</ele>
        <time>2021-05-17T10:23:22Z</time>
      </trkpt>
      <trkpt lat="41.5627680" lon="-8.7791390">
        <ele>35.4</ele>
        <time>2021-05-17T10:23:23Z</time>
      </trkpt>
      <trkpt lat="41.5627760" lon="-8.7791430">
        <ele>35.4</ele>
        <time>2021-05-17T10:23:24Z</time>
      </trkpt>
      <trkpt lat="41.5627850" lon="-8.7791560">
        <ele>35.4</ele>
        <time>2021-05-17T10:23:25Z</time>
      </trkpt>
      <trkpt lat="41.5627970" lon="-8.7791610">
        <ele>35.4</ele>
        <time>2021-05-17T10:23:26Z</time>
      </trkpt>
      <trkpt lat="41.5628060" lon="-8.7791620">
        <ele>35.4</ele>
        <time>2021-05-17T10:23:27Z</time>
      </trkpt>
      <trkpt lat="41.5628300" lon="-8.7791720">
        <ele>35.4</ele>
        <time>2021-05-17T10:23:28Z</time>
      </trkpt>
      <trkpt lat="41.5628380" lon="-8.7791780">
        <ele>35.4</ele>
        <time>2021-05-17T10:23:29Z</time>
      </trkpt>
      <trkpt lat="41.5628470" lon="-8.7791830">
        <ele>35.4</ele>
        <time>2021-05-17T10:23:30Z</time>
      </trkpt>
      <trkpt lat="41.5628510" lon="-8.7791810">
        <ele>35.4</ele>
        <time>2021-05-17T10:23:31Z</time>
      </trkpt>
      <trkpt lat="41.5628610" lon="-8.7791890">
        <ele>35.4</ele>
        <time>2021-05-17T10:23:32Z</time>
      </trkpt>
      <trkpt lat="41.5628800" lon="-8.7791990">
        <ele>35.4</ele>
        <time>2021-05-17T10:23:33Z</time>
      </trkpt>
      <trkpt lat="41.5628970" lon="-8.7792120">
        <ele>35.4</ele>
        <time>2021-05-17T10:23:34Z</time>
      </trkpt>
      <trkpt lat="41.5629070" lon="-8.7792150">
        <ele>35.4</ele>
        <time>2021-05-17T10:23:35Z</time>
      </trkpt>
      <trkpt lat="41.5629180" lon="-8.7792190">
        <ele>35.4</ele>
        <time>2021-05-17T10:23:36Z</time>
      </trkpt>
      <trkpt lat="41.5629270" lon="-8.7792340">
        <ele>35.4</ele>
        <time>2021-05-17T10:23:37Z</time>
      </trkpt>
      <trkpt lat="41.5629320" lon="-8.7792340">
        <ele>35.4</ele>
        <time>2021-05-17T10:23:38Z</time>
      </trkpt>
      <trkpt lat="41.5629440" lon="-8.7792410">
        <ele>35.4</ele>
        <time>2021-05-17T10:23:39Z</time>
      </trkpt>
      <trkpt lat="41.5629560" lon="-8.7792420">
        <ele>35.4</ele>
        <time>2021-05-17T10:23:40Z</time>
      </trkpt>
      <trkpt lat="41.5629670" lon="-8.7792560">
        <ele>35.4</ele>
        <time>2021-05-17T10:23:41Z</time>
      </trkpt>
      <trkpt lat="41.5629750" lon="-8.7792550">
        <ele>35.4</ele>
        <time>2021-05-17T10:23:42Z</time>
      </trkpt>
      <trkpt lat="41.5629980" lon="-8.7792660">
        <ele>35.4</ele>
        <time>2021-05-17T10:23:43Z</time>
      </trkpt>
      <trkpt lat="41.5630060" lon="-8.7792730">
        <ele>35.4</ele>
        <time>2021-05-17T10:23:44Z</time>
      </trkpt>
      <trkpt lat="41.5630150" lon="-8.7792790">
        <ele>35.4</ele>
        <time>2021-05-17T10:23:45Z</time>
      </trkpt>
      <trkpt lat="41.5630300" lon="-8.7792740">
        <ele>35.4</ele>
        <time>2021-05-17T10:23:46Z</time>
      </trkpt>
      <trkpt lat="41.5630450" lon="-8.7792790">
        <ele>35.4</ele>
        <time>2021-05-17T10:23:47Z</time>
      </trkpt>
      <trkpt lat="41.5630500" lon="-8.7792880">
        <ele>35.4</ele>
        <time>2021-05-17T10:23:48Z</time>
      </trkpt>
      <trkpt lat="41.5630610" lon="-8.7792890">
        <ele>35.4</ele>
        <time>2021-05-17T10:23:49Z</time>
      </trkpt>
      <trkpt lat="41.5630750" lon="-8.7793010">
        <ele>35.4</ele>
        <time>2021-05-17T10:23:50Z</time>
      </trkpt>
      <trkpt lat="41.5631030" lon="-8.7793140">
        <ele>35.4</ele>
        <time>2021-05-17T10:23:51Z</time>
      </trkpt>
      <trkpt lat="41.5631110" lon="-8.7793180">
        <ele>35.4</ele>
        <time>2021-05-17T10:23:52Z</time>
      </trkpt>
      <trkpt lat="41.5631410" lon="-8.7793260">
        <ele>35.4</ele>
        <time>2021-05-17T10:23:53Z</time>
      </trkpt>
      <trkpt lat="41.5631490" lon="-8.7793300">
        <ele>35.4</ele>
        <time>2021-05-17T10:23:54Z</time>
      </trkpt>
      <trkpt lat="41.5631610" lon="-8.7793410">
        <ele>35.4</ele>
        <time>2021-05-17T10:23:55Z</time>
      </trkpt>
      <trkpt lat="41.5631770" lon="-8.7793470">
        <ele>35.4</ele>
        <time>2021-05-17T10:23:56Z</time>
      </trkpt>
      <trkpt lat="41.5631940" lon="-8.7793600">
        <ele>35.5</ele>
        <time>2021-05-17T10:23:57Z</time>
      </trkpt>
      <trkpt lat="41.5632040" lon="-8.7793660">
        <ele>35.5</ele>
        <time>2021-05-17T10:23:58Z</time>
      </trkpt>
      <trkpt lat="41.5632150" lon="-8.7793720">
        <ele>35.5</ele>
        <time>2021-05-17T10:23:59Z</time>
      </trkpt>
      <trkpt lat="41.5632230" lon="-8.7793790">
        <ele>35.5</ele>
        <time>2021-05-17T10:24:00Z</time>
      </trkpt>
      <trkpt lat="41.5632310" lon="-8.7793850">
        <ele>35.5</ele>
        <time>2021-05-17T10:24:01Z</time>
      </trkpt>
      <trkpt lat="41.5632470" lon="-8.7793940">
        <ele>35.5</ele>
        <time>2021-05-17T10:24:02Z</time>
      </trkpt>
      <trkpt lat="41.5632470" lon="-8.7793990">
        <ele>35.5</ele>
        <time>2021-05-17T10:24:03Z</time>
      </trkpt>
      <trkpt lat="41.5632530" lon="-8.7794100">
        <ele>35.5</ele>
        <time>2021-05-17T10:24:04Z</time>
      </trkpt>
      <trkpt lat="41.5632620" lon="-8.7794190">
        <ele>35.5</ele>
        <time>2021-05-17T10:24:05Z</time>
      </trkpt>
      <trkpt lat="41.5632690" lon="-8.7794310">
        <ele>35.5</ele>
        <time>2021-05-17T10:24:06Z</time>
      </trkpt>
      <trkpt lat="41.5632810" lon="-8.7794370">
        <ele>35.5</ele>
        <time>2021-05-17T10:24:07Z</time>
      </trkpt>
      <trkpt lat="41.5632880" lon="-8.7794450">
        <ele>35.5</ele>
        <time>2021-05-17T10:24:08Z</time>
      </trkpt>
      <trkpt lat="41.5632950" lon="-8.7794520">
        <ele>35.5</ele>
        <time>2021-05-17T10:24:09Z</time>
      </trkpt>
      <trkpt lat="41.5633080" lon="-8.7794660">
        <ele>35.5</ele>
        <time>2021-05-17T10:24:10Z</time>
      </trkpt>
      <trkpt lat="41.5633160" lon="-8.7794760">
        <ele>35.5</ele>
        <time>2021-05-17T10:24:11Z</time>
      </trkpt>
      <trkpt lat="41.5633280" lon="-8.7794930">
        <ele>35.5</ele>
        <time>2021-05-17T10:24:12Z</time>
      </trkpt>
      <trkpt lat="41.5633380" lon="-8.7795050">
        <ele>35.5</ele>
        <time>2021-05-17T10:24:13Z</time>
      </trkpt>
      <trkpt lat="41.5633530" lon="-8.7795140">
        <ele>35.5</ele>
        <time>2021-05-17T10:24:14Z</time>
      </trkpt>
      <trkpt lat="41.5633630" lon="-8.7795200">
        <ele>35.5</ele>
        <time>2021-05-17T10:24:15Z</time>
      </trkpt>
      <trkpt lat="41.5633820" lon="-8.7795300">
        <ele>35.5</ele>
        <time>2021-05-17T10:24:16Z</time>
      </trkpt>
      <trkpt lat="41.5633910" lon="-8.7795330">
        <ele>35.5</ele>
        <time>2021-05-17T10:24:17Z</time>
      </trkpt>
      <trkpt lat="41.5634010" lon="-8.7795360">
        <ele>35.5</ele>
        <time>2021-05-17T10:24:18Z</time>
      </trkpt>
      <trkpt lat="41.5634120" lon="-8.7795530">
        <ele>35.5</ele>
        <time>2021-05-17T10:24:19Z</time>
      </trkpt>
      <trkpt lat="41.5634200" lon="-8.7795670">
        <ele>35.5</ele>
        <time>2021-05-17T10:24:20Z</time>
      </trkpt>
      <trkpt lat="41.5634330" lon="-8.7795760">
        <ele>35.5</ele>
        <time>2021-05-17T10:24:21Z</time>
      </trkpt>
      <trkpt lat="41.5634470" lon="-8.7795880">
        <ele>35.5</ele>
        <time>2021-05-17T10:24:22Z</time>
      </trkpt>
      <trkpt lat="41.5634530" lon="-8.7795920">
        <ele>35.6</ele>
        <time>2021-05-17T10:24:23Z</time>
      </trkpt>
      <trkpt lat="41.5634650" lon="-8.7796120">
        <ele>35.6</ele>
        <time>2021-05-17T10:24:24Z</time>
      </trkpt>
      <trkpt lat="41.5634780" lon="-8.7796120">
        <ele>35.6</ele>
        <time>2021-05-17T10:24:25Z</time>
      </trkpt>
      <trkpt lat="41.5634830" lon="-8.7796250">
        <ele>35.6</ele>
        <time>2021-05-17T10:24:26Z</time>
      </trkpt>
      <trkpt lat="41.5635040" lon="-8.7796280">
        <ele>35.6</ele>
        <time>2021-05-17T10:24:27Z</time>
      </trkpt>
      <trkpt lat="41.5635140" lon="-8.7796560">
        <ele>35.6</ele>
        <time>2021-05-17T10:24:28Z</time>
      </trkpt>
      <trkpt lat="41.5635210" lon="-8.7796650">
        <ele>35.6</ele>
        <time>2021-05-17T10:24:29Z</time>
      </trkpt>
      <trkpt lat="41.5635280" lon="-8.7796750">
        <ele>35.6</ele>
        <time>2021-05-17T10:24:30Z</time>
      </trkpt>
      <trkpt lat="41.5635370" lon="-8.7796890">
        <ele>35.6</ele>
        <time>2021-05-17T10:24:31Z</time>
      </trkpt>
      <trkpt lat="41.5635420" lon="-8.7796980">
        <ele>35.6</ele>
        <time>2021-05-17T10:24:32Z</time>
      </trkpt>
      <trkpt lat="41.5635570" lon="-8.7797030">
        <ele>35.6</ele>
        <time>2021-05-17T10:24:33Z</time>
      </trkpt>
      <trkpt lat="41.5635660" lon="-8.7797110">
        <ele>35.6</ele>
        <time>2021-05-17T10:24:34Z</time>
      </trkpt>
      <trkpt lat="41.5635790" lon="-8.7797190">
        <ele>35.6</ele>
        <time>2021-05-17T10:24:35Z</time>
      </trkpt>
      <trkpt lat="41.5635900" lon="-8.7797200">
        <ele>35.6</ele>
        <time>2021-05-17T10:24:36Z</time>
      </trkpt>
      <trkpt lat="41.5636010" lon="-8.7797290">
        <ele>35.6</ele>
        <time>2021-05-17T10:24:37Z</time>
      </trkpt>
      <trkpt lat="41.5636050" lon="-8.7797460">
        <ele>35.7</ele>
        <time>2021-05-17T10:24:38Z</time>
      </trkpt>
      <trkpt lat="41.5636140" lon="-8.7797490">
        <ele>35.7</ele>
        <time>2021-05-17T10:24:39Z</time>
      </trkpt>
      <trkpt lat="41.5636390" lon="-8.7797730">
        <ele>35.7</ele>
        <time>2021-05-17T10:24:40Z</time>
      </trkpt>
      <trkpt lat="41.5636470" lon="-8.7797780">
        <ele>35.7</ele>
        <time>2021-05-17T10:24:41Z</time>
      </trkpt>
      <trkpt lat="41.5636550" lon="-8.7798050">
        <ele>35.7</ele>
        <time>2021-05-17T10:24:42Z</time>
      </trkpt>
      <trkpt lat="41.5636580" lon="-8.7798140">
        <ele>35.7</ele>
        <time>2021-05-17T10:24:43Z</time>
      </trkpt>
      <trkpt lat="41.5636620" lon="-8.7798220">
        <ele>35.7</ele>
        <time>2021-05-17T10:24:44Z</time>
      </trkpt>
      <trkpt lat="41.5636760" lon="-8.7798380">
        <ele>35.7</ele>
        <time>2021-05-17T10:24:45Z</time>
      </trkpt>
      <trkpt lat="41.5636830" lon="-8.7798480">
        <ele>35.7</ele>
        <time>2021-05-17T10:24:46Z</time>
      </trkpt>
      <trkpt lat="41.5636900" lon="-8.7798570">
        <ele>35.8</ele>
        <time>2021-05-17T10:24:47Z</time>
      </trkpt>
      <trkpt lat="41.5636990" lon="-8.7798650">
        <ele>35.8</ele>
        <time>2021-05-17T10:24:48Z</time>
      </trkpt>
      <trkpt lat="41.5637080" lon="-8.7798670">
        <ele>35.8</ele>
        <time>2021-05-17T10:24:49Z</time>
      </trkpt>
      <trkpt lat="41.5637230" lon="-8.7798730">
        <ele>35.8</ele>
        <time>2021-05-17T10:24:50Z</time>
      </trkpt>
      <trkpt lat="41.5637330" lon="-8.7798840">
        <ele>35.8</ele>
        <time>2021-05-17T10:24:51Z</time>
      </trkpt>
      <trkpt lat="41.5637490" lon="-8.7798960">
        <ele>35.8</ele>
        <time>2021-05-17T10:24:52Z</time>
      </trkpt>
      <trkpt lat="41.5637610" lon="-8.7799050">
        <ele>35.8</ele>
        <time>2021-05-17T10:24:53Z</time>
      </trkpt>
      <trkpt lat="41.5637780" lon="-8.7799170">
        <ele>35.8</ele>
        <time>2021-05-17T10:24:54Z</time>
      </trkpt>
      <trkpt lat="41.5637880" lon="-8.7799270">
        <ele>35.9</ele>
        <time>2021-05-17T10:24:55Z</time>
      </trkpt>
      <trkpt lat="41.5638070" lon="-8.7799390">
        <ele>35.9</ele>
        <time>2021-05-17T10:24:56Z</time>
      </trkpt>
      <trkpt lat="41.5638220" lon="-8.7799630">
        <ele>35.9</ele>
        <time>2021-05-17T10:24:57Z</time>
      </trkpt>
      <trkpt lat="41.5638300" lon="-8.7799680">
        <ele>35.9</ele>
        <time>2021-05-17T10:24:58Z</time>
      </trkpt>
      <trkpt lat="41.5638370" lon="-8.7799730">
        <ele>35.9</ele>
        <time>2021-05-17T10:24:59Z</time>
      </trkpt>
      <trkpt lat="41.5638510" lon="-8.7799790">
        <ele>35.9</ele>
        <time>2021-05-17T10:25:00Z</time>
      </trkpt>
      <trkpt lat="41.5638630" lon="-8.7799930">
        <ele>35.9</ele>
        <time>2021-05-17T10:25:01Z</time>
      </trkpt>
      <trkpt lat="41.5638720" lon="-8.7800010">
        <ele>36.0</ele>
        <time>2021-05-17T10:25:02Z</time>
      </trkpt>
      <trkpt lat="41.5638880" lon="-8.7800060">
        <ele>36.0</ele>
        <time>2021-05-17T10:25:03Z</time>
      </trkpt>
      <trkpt lat="41.5639030" lon="-8.7800100">
        <ele>36.0</ele>
        <time>2021-05-17T10:25:04Z</time>
      </trkpt>
      <trkpt lat="41.5639150" lon="-8.7800110">
        <ele>36.0</ele>
        <time>2021-05-17T10:25:05Z</time>
      </trkpt>
      <trkpt lat="41.5639370" lon="-8.7800260">
        <ele>36.1</ele>
        <time>2021-05-17T10:25:06Z</time>
      </trkpt>
      <trkpt lat="41.5639450" lon="-8.7800310">
        <ele>36.1</ele>
        <time>2021-05-17T10:25:07Z</time>
      </trkpt>
      <trkpt lat="41.5639540" lon="-8.7800360">
        <ele>36.1</ele>
        <time>2021-05-17T10:25:08Z</time>
      </trkpt>
      <trkpt lat="41.5639640" lon="-8.7800390">
        <ele>36.2</ele>
        <time>2021-05-17T10:25:09Z</time>
      </trkpt>
      <trkpt lat="41.5639850" lon="-8.7800480">
        <ele>36.2</ele>
        <time>2021-05-17T10:25:10Z</time>
      </trkpt>
      <trkpt lat="41.5640060" lon="-8.7800480">
        <ele>36.3</ele>
        <time>2021-05-17T10:25:11Z</time>
      </trkpt>
      <trkpt lat="41.5640140" lon="-8.7800480">
        <ele>36.3</ele>
        <time>2021-05-17T10:25:12Z</time>
      </trkpt>
      <trkpt lat="41.5640220" lon="-8.7800490">
        <ele>36.3</ele>
        <time>2021-05-17T10:25:13Z</time>
      </trkpt>
      <trkpt lat="41.5640320" lon="-8.7800460">
        <ele>36.3</ele>
        <time>2021-05-17T10:25:14Z</time>
      </trkpt>
      <trkpt lat="41.5640540" lon="-8.7800500">
        <ele>36.4</ele>
        <time>2021-05-17T10:25:15Z</time>
      </trkpt>
      <trkpt lat="41.5640650" lon="-8.7800520">
        <ele>36.4</ele>
        <time>2021-05-17T10:25:16Z</time>
      </trkpt>
      <trkpt lat="41.5640740" lon="-8.7800530">
        <ele>36.4</ele>
        <time>2021-05-17T10:25:17Z</time>
      </trkpt>
      <trkpt lat="41.5640830" lon="-8.7800550">
        <ele>36.5</ele>
        <time>2021-05-17T10:25:18Z</time>
      </trkpt>
      <trkpt lat="41.5640920" lon="-8.7800560">
        <ele>36.5</ele>
        <time>2021-05-17T10:25:19Z</time>
      </trkpt>
      <trkpt lat="41.5641220" lon="-8.7800710">
        <ele>36.6</ele>
        <time>2021-05-17T10:25:20Z</time>
      </trkpt>
      <trkpt lat="41.5641280" lon="-8.7800760">
        <ele>36.6</ele>
        <time>2021-05-17T10:25:21Z</time>
      </trkpt>
      <trkpt lat="41.5641500" lon="-8.7800740">
        <ele>36.7</ele>
        <time>2021-05-17T10:25:22Z</time>
      </trkpt>
      <trkpt lat="41.5641580" lon="-8.7800740">
        <ele>36.7</ele>
        <time>2021-05-17T10:25:23Z</time>
      </trkpt>
      <trkpt lat="41.5641650" lon="-8.7800740">
        <ele>36.7</ele>
        <time>2021-05-17T10:25:24Z</time>
      </trkpt>
      <trkpt lat="41.5641830" lon="-8.7800790">
        <ele>36.8</ele>
        <time>2021-05-17T10:25:25Z</time>
      </trkpt>
      <trkpt lat="41.5641900" lon="-8.7800870">
        <ele>36.8</ele>
        <time>2021-05-17T10:25:26Z</time>
      </trkpt>
      <trkpt lat="41.5641990" lon="-8.7800920">
        <ele>36.8</ele>
        <time>2021-05-17T10:25:27Z</time>
      </trkpt>
      <trkpt lat="41.5642210" lon="-8.7800880">
        <ele>36.9</ele>
        <time>2021-05-17T10:25:28Z</time>
      </trkpt>
      <trkpt lat="41.5642290" lon="-8.7800880">
        <ele>36.9</ele>
        <time>2021-05-17T10:25:29Z</time>
      </trkpt>
      <trkpt lat="41.5642380" lon="-8.7800880">
        <ele>37.0</ele>
        <time>2021-05-17T10:25:30Z</time>
      </trkpt>
      <trkpt lat="41.5642530" lon="-8.7800990">
        <ele>37.0</ele>
        <time>2021-05-17T10:25:31Z</time>
      </trkpt>
      <trkpt lat="41.5642650" lon="-8.7801010">
        <ele>37.1</ele>
        <time>2021-05-17T10:25:32Z</time>
      </trkpt>
      <trkpt lat="41.5642780" lon="-8.7801090">
        <ele>37.1</ele>
        <time>2021-05-17T10:25:33Z</time>
      </trkpt>
      <trkpt lat="41.5642920" lon="-8.7801090">
        <ele>37.2</ele>
        <time>2021-05-17T10:25:34Z</time>
      </trkpt>
      <trkpt lat="41.5642970" lon="-8.7801020">
        <ele>37.2</ele>
        <time>2021-05-17T10:25:35Z</time>
      </trkpt>
      <trkpt lat="41.5643070" lon="-8.7801010">
        <ele>37.2</ele>
        <time>2021-05-17T10:25:36Z</time>
      </trkpt>
      <trkpt lat="41.5643240" lon="-8.7801060">
        <ele>37.3</ele>
        <time>2021-05-17T10:25:37Z</time>
      </trkpt>
      <trkpt lat="41.5643540" lon="-8.7801060">
        <ele>37.4</ele>
        <time>2021-05-17T10:25:38Z</time>
      </trkpt>
      <trkpt lat="41.5643620" lon="-8.7801070">
        <ele>37.4</ele>
        <time>2021-05-17T10:25:39Z</time>
      </trkpt>
      <trkpt lat="41.5643810" lon="-8.7801120">
        <ele>37.5</ele>
        <time>2021-05-17T10:25:40Z</time>
      </trkpt>
      <trkpt lat="41.5643930" lon="-8.7801110">
        <ele>37.5</ele>
        <time>2021-05-17T10:25:41Z</time>
      </trkpt>
      <trkpt lat="41.5644080" lon="-8.7801190">
        <ele>37.6</ele>
        <time>2021-05-17T10:25:42Z</time>
      </trkpt>
      <trkpt lat="41.5644240" lon="-8.7801260">
        <ele>37.6</ele>
        <time>2021-05-17T10:25:43Z</time>
      </trkpt>
      <trkpt lat="41.5644420" lon="-8.7801250">
        <ele>37.7</ele>
        <time>2021-05-17T10:25:44Z</time>
      </trkpt>
      <trkpt lat="41.5644570" lon="-8.7801330">
        <ele>37.7</ele>
        <time>2021-05-17T10:25:45Z</time>
      </trkpt>
      <trkpt lat="41.5644720" lon="-8.7801370">
        <ele>37.8</ele>
        <time>2021-05-17T10:25:46Z</time>
      </trkpt>
      <trkpt lat="41.5644860" lon="-8.7801430">
        <ele>37.8</ele>
        <time>2021-05-17T10:25:47Z</time>
      </trkpt>
      <trkpt lat="41.5645030" lon="-8.7801510">
        <ele>37.9</ele>
        <time>2021-05-17T10:25:48Z</time>
      </trkpt>
      <trkpt lat="41.5645100" lon="-8.7801600">
        <ele>37.9</ele>
        <time>2021-05-17T10:25:49Z</time>
      </trkpt>
      <trkpt lat="41.5645180" lon="-8.7801680">
        <ele>37.9</ele>
        <time>2021-05-17T10:25:50Z</time>
      </trkpt>
      <trkpt lat="41.5645410" lon="-8.7801700">
        <ele>38.0</ele>
        <time>2021-05-17T10:25:51Z</time>
      </trkpt>
      <trkpt lat="41.5645480" lon="-8.7801720">
        <ele>38.0</ele>
        <time>2021-05-17T10:25:52Z</time>
      </trkpt>
      <trkpt lat="41.5645560" lon="-8.7801750">
        <ele>38.1</ele>
        <time>2021-05-17T10:25:53Z</time>
      </trkpt>
      <trkpt lat="41.5645650" lon="-8.7801780">
        <ele>38.1</ele>
        <time>2021-05-17T10:25:54Z</time>
      </trkpt>
      <trkpt lat="41.5645880" lon="-8.7801820">
        <ele>38.2</ele>
        <time>2021-05-17T10:25:55Z</time>
      </trkpt>
      <trkpt lat="41.5646130" lon="-8.7801800">
        <ele>38.2</ele>
        <time>2021-05-17T10:25:56Z</time>
      </trkpt>
      <trkpt lat="41.5646220" lon="-8.7801800">
        <ele>38.3</ele>
        <time>2021-05-17T10:25:57Z</time>
      </trkpt>
      <trkpt lat="41.5646320" lon="-8.7801800">
        <ele>38.3</ele>
        <time>2021-05-17T10:25:58Z</time>
      </trkpt>
      <trkpt lat="41.5646450" lon="-8.7801870">
        <ele>38.4</ele>
        <time>2021-05-17T10:25:59Z</time>
      </trkpt>
      <trkpt lat="41.5646550" lon="-8.7801840">
        <ele>38.4</ele>
        <time>2021-05-17T10:26:00Z</time>
      </trkpt>
      <trkpt lat="41.5646680" lon="-8.7801800">
        <ele>38.4</ele>
        <time>2021-05-17T10:26:01Z</time>
      </trkpt>
      <trkpt lat="41.5646810" lon="-8.7801790">
        <ele>38.5</ele>
        <time>2021-05-17T10:26:02Z</time>
      </trkpt>
      <trkpt lat="41.5646960" lon="-8.7801770">
        <ele>38.5</ele>
        <time>2021-05-17T10:26:03Z</time>
      </trkpt>
      <trkpt lat="41.5647240" lon="-8.7801810">
        <ele>38.6</ele>
        <time>2021-05-17T10:26:04Z</time>
      </trkpt>
      <trkpt lat="41.5647360" lon="-8.7801850">
        <ele>38.7</ele>
        <time>2021-05-17T10:26:05Z</time>
      </trkpt>
      <trkpt lat="41.5647580" lon="-8.7801760">
        <ele>38.7</ele>
        <time>2021-05-17T10:26:06Z</time>
      </trkpt>
      <trkpt lat="41.5647710" lon="-8.7801750">
        <ele>38.8</ele>
        <time>2021-05-17T10:26:07Z</time>
      </trkpt>
      <trkpt lat="41.5647960" lon="-8.7801800">
        <ele>38.9</ele>
        <time>2021-05-17T10:26:08Z</time>
      </trkpt>
      <trkpt lat="41.5648020" lon="-8.7801780">
        <ele>38.9</ele>
        <time>2021-05-17T10:26:09Z</time>
      </trkpt>
      <trkpt lat="41.5648080" lon="-8.7801770">
        <ele>38.9</ele>
        <time>2021-05-17T10:26:10Z</time>
      </trkpt>
      <trkpt lat="41.5648200" lon="-8.7801750">
        <ele>39.0</ele>
        <time>2021-05-17T10:26:11Z</time>
      </trkpt>
      <trkpt lat="41.5648400" lon="-8.7801770">
        <ele>39.0</ele>
        <time>2021-05-17T10:26:12Z</time>
      </trkpt>
      <trkpt lat="41.5648520" lon="-8.7801750">
        <ele>39.1</ele>
        <time>2021-05-17T10:26:13Z</time>
      </trkpt>
      <trkpt lat="41.5648640" lon="-8.7801770">
        <ele>39.1</ele>
        <time>2021-05-17T10:26:14Z</time>
      </trkpt>
      <trkpt lat="41.5648740" lon="-8.7801710">
        <ele>39.1</ele>
        <time>2021-05-17T10:26:15Z</time>
      </trkpt>
      <trkpt lat="41.5648880" lon="-8.7801680">
        <ele>39.2</ele>
        <time>2021-05-17T10:26:16Z</time>
      </trkpt>
      <trkpt lat="41.5649040" lon="-8.7801620">
        <ele>39.2</ele>
        <time>2021-05-17T10:26:17Z</time>
      </trkpt>
      <trkpt lat="41.5649220" lon="-8.7801620">
        <ele>39.3</ele>
        <time>2021-05-17T10:26:18Z</time>
      </trkpt>
      <trkpt lat="41.5649280" lon="-8.7801640">
        <ele>39.3</ele>
        <time>2021-05-17T10:26:19Z</time>
      </trkpt>
      <trkpt lat="41.5649380" lon="-8.7801650">
        <ele>39.3</ele>
        <time>2021-05-17T10:26:20Z</time>
      </trkpt>
      <trkpt lat="41.5649510" lon="-8.7801620">
        <ele>39.4</ele>
        <time>2021-05-17T10:26:21Z</time>
      </trkpt>
      <trkpt lat="41.5649650" lon="-8.7801540">
        <ele>39.4</ele>
        <time>2021-05-17T10:26:22Z</time>
      </trkpt>
      <trkpt lat="41.5649830" lon="-8.7801390">
        <ele>39.5</ele>
        <time>2021-05-17T10:26:23Z</time>
      </trkpt>
      <trkpt lat="41.5649900" lon="-8.7801360">
        <ele>39.5</ele>
        <time>2021-05-17T10:26:24Z</time>
      </trkpt>
      <trkpt lat="41.5649960" lon="-8.7801330">
        <ele>39.5</ele>
        <time>2021-05-17T10:26:25Z</time>
      </trkpt>
      <trkpt lat="41.5650020" lon="-8.7801300">
        <ele>39.5</ele>
        <time>2021-05-17T10:26:26Z</time>
      </trkpt>
      <trkpt lat="41.5650190" lon="-8.7801280">
        <ele>39.5</ele>
        <time>2021-05-17T10:26:27Z</time>
      </trkpt>
      <trkpt lat="41.5650310" lon="-8.7801240">
        <ele>39.6</ele>
        <time>2021-05-17T10:26:28Z</time>
      </trkpt>
      <trkpt lat="41.5650380" lon="-8.7801240">
        <ele>39.6</ele>
        <time>2021-05-17T10:26:29Z</time>
      </trkpt>
      <trkpt lat="41.5650520" lon="-8.7801180">
        <ele>39.6</ele>
        <time>2021-05-17T10:26:30Z</time>
      </trkpt>
      <trkpt lat="41.5650620" lon="-8.7801180">
        <ele>39.6</ele>
        <time>2021-05-17T10:26:31Z</time>
      </trkpt>
      <trkpt lat="41.5650910" lon="-8.7801150">
        <ele>39.7</ele>
        <time>2021-05-17T10:26:32Z</time>
      </trkpt>
      <trkpt lat="41.5650980" lon="-8.7801160">
        <ele>39.7</ele>
        <time>2021-05-17T10:26:33Z</time>
      </trkpt>
      <trkpt lat="41.5651200" lon="-8.7801110">
        <ele>39.7</ele>
        <time>2021-05-17T10:26:34Z</time>
      </trkpt>
      <trkpt lat="41.5651300" lon="-8.7801100">
        <ele>39.7</ele>
        <time>2021-05-17T10:26:35Z</time>
      </trkpt>
      <trkpt lat="41.5651390" lon="-8.7801080">
        <ele>39.7</ele>
        <time>2021-05-17T10:26:36Z</time>
      </trkpt>
      <trkpt lat="41.5651520" lon="-8.7801050">
        <ele>39.7</ele>
        <time>2021-05-17T10:26:37Z</time>
      </trkpt>
      <trkpt lat="41.5651630" lon="-8.7801060">
        <ele>39.7</ele>
        <time>2021-05-17T10:26:38Z</time>
      </trkpt>
      <trkpt lat="41.5651730" lon="-8.7801060">
        <ele>39.7</ele>
        <time>2021-05-17T10:26:39Z</time>
      </trkpt>
      <trkpt lat="41.5651830" lon="-8.7801070">
        <ele>39.7</ele>
        <time>2021-05-17T10:26:40Z</time>
      </trkpt>
      <trkpt lat="41.5652010" lon="-8.7801050">
        <ele>39.8</ele>
        <time>2021-05-17T10:26:41Z</time>
      </trkpt>
      <trkpt lat="41.5652140" lon="-8.7801100">
        <ele>39.8</ele>
        <time>2021-05-17T10:26:42Z</time>
      </trkpt>
      <trkpt lat="41.5652260" lon="-8.7801120">
        <ele>39.8</ele>
        <time>2021-05-17T10:26:43Z</time>
      </trkpt>
      <trkpt lat="41.5652500" lon="-8.7801110">
        <ele>39.8</ele>
        <time>2021-05-17T10:26:44Z</time>
      </trkpt>
      <trkpt lat="41.5652710" lon="-8.7801110">
        <ele>39.8</ele>
        <time>2021-05-17T10:26:45Z</time>
      </trkpt>
      <trkpt lat="41.5652800" lon="-8.7801110">
        <ele>39.8</ele>
        <time>2021-05-17T10:26:46Z</time>
      </trkpt>
      <trkpt lat="41.5652880" lon="-8.7801110">
        <ele>39.8</ele>
        <time>2021-05-17T10:26:47Z</time>
      </trkpt>
      <trkpt lat="41.5653010" lon="-8.7801190">
        <ele>39.8</ele>
        <time>2021-05-17T10:26:48Z</time>
      </trkpt>
      <trkpt lat="41.5653120" lon="-8.7801170">
        <ele>39.8</ele>
        <time>2021-05-17T10:26:49Z</time>
      </trkpt>
      <trkpt lat="41.5653150" lon="-8.7801160">
        <ele>39.8</ele>
        <time>2021-05-17T10:26:50Z</time>
      </trkpt>
      <trkpt lat="41.5653470" lon="-8.7801200">
        <ele>39.9</ele>
        <time>2021-05-17T10:26:51Z</time>
      </trkpt>
      <trkpt lat="41.5653540" lon="-8.7801180">
        <ele>39.9</ele>
        <time>2021-05-17T10:26:52Z</time>
      </trkpt>
      <trkpt lat="41.5653680" lon="-8.7801220">
        <ele>39.9</ele>
        <time>2021-05-17T10:26:53Z</time>
      </trkpt>
      <trkpt lat="41.5653840" lon="-8.7801190">
        <ele>39.9</ele>
        <time>2021-05-17T10:26:54Z</time>
      </trkpt>
      <trkpt lat="41.5653950" lon="-8.7801220">
        <ele>39.9</ele>
        <time>2021-05-17T10:26:55Z</time>
      </trkpt>
      <trkpt lat="41.5654160" lon="-8.7801190">
        <ele>39.9</ele>
        <time>2021-05-17T10:26:56Z</time>
      </trkpt>
      <trkpt lat="41.5654260" lon="-8.7801130">
        <ele>39.9</ele>
        <time>2021-05-17T10:26:57Z</time>
      </trkpt>
      <trkpt lat="41.5654380" lon="-8.7801180">
        <ele>39.9</ele>
        <time>2021-05-17T10:26:58Z</time>
      </trkpt>
      <trkpt lat="41.5654450" lon="-8.7801240">
        <ele>39.9</ele>
        <time>2021-05-17T10:26:59Z</time>
      </trkpt>
      <trkpt lat="41.5654580" lon="-8.7801160">
        <ele>39.9</ele>
        <time>2021-05-17T10:27:00Z</time>
      </trkpt>
      <trkpt lat="41.5654680" lon="-8.7801200">
        <ele>39.9</ele>
        <time>2021-05-17T10:27:01Z</time>
      </trkpt>
      <trkpt lat="41.5654740" lon="-8.7801320">
        <ele>39.9</ele>
        <time>2021-05-17T10:27:02Z</time>
      </trkpt>
      <trkpt lat="41.5654900" lon="-8.7801340">
        <ele>39.9</ele>
        <time>2021-05-17T10:27:03Z</time>
      </trkpt>
      <trkpt lat="41.5655080" lon="-8.7801340">
        <ele>39.9</ele>
        <time>2021-05-17T10:27:04Z</time>
      </trkpt>
      <trkpt lat="41.5655150" lon="-8.7801340">
        <ele>39.9</ele>
        <time>2021-05-17T10:27:05Z</time>
      </trkpt>
      <trkpt lat="41.5655220" lon="-8.7801350">
        <ele>39.9</ele>
        <time>2021-05-17T10:27:06Z</time>
      </trkpt>
      <trkpt lat="41.5655270" lon="-8.7801330">
        <ele>39.9</ele>
        <time>2021-05-17T10:27:07Z</time>
      </trkpt>
      <trkpt lat="41.5655400" lon="-8.7801320">
        <ele>39.9</ele>
        <time>2021-05-17T10:27:08Z</time>
      </trkpt>
      <trkpt lat="41.5655690" lon="-8.7801320">
        <ele>40.0</ele>
        <time>2021-05-17T10:27:09Z</time>
      </trkpt>
      <trkpt lat="41.5655980" lon="-8.7801240">
        <ele>40.0</ele>
        <time>2021-05-17T10:27:10Z</time>
      </trkpt>
      <trkpt lat="41.5656110" lon="-8.7801260">
        <ele>40.0</ele>
        <time>2021-05-17T10:27:11Z</time>
      </trkpt>
      <trkpt lat="41.5656430" lon="-8.7801230">
        <ele>40.0</ele>
        <time>2021-05-17T10:27:12Z</time>
      </trkpt>
      <trkpt lat="41.5656570" lon="-8.7801220">
        <ele>40.0</ele>
        <time>2021-05-17T10:27:13Z</time>
      </trkpt>
      <trkpt lat="41.5656850" lon="-8.7801100">
        <ele>40.0</ele>
        <time>2021-05-17T10:27:14Z</time>
      </trkpt>
      <trkpt lat="41.5656940" lon="-8.7801080">
        <ele>40.0</ele>
        <time>2021-05-17T10:27:15Z</time>
      </trkpt>
      <trkpt lat="41.5657140" lon="-8.7801080">
        <ele>40.0</ele>
        <time>2021-05-17T10:27:16Z</time>
      </trkpt>
      <trkpt lat="41.5657300" lon="-8.7801100">
        <ele>40.0</ele>
        <time>2021-05-17T10:27:17Z</time>
      </trkpt>
      <trkpt lat="41.5657580" lon="-8.7801060">
        <ele>40.0</ele>
        <time>2021-05-17T10:27:18Z</time>
      </trkpt>
      <trkpt lat="41.5657670" lon="-8.7801050">
        <ele>40.0</ele>
        <time>2021-05-17T10:27:19Z</time>
      </trkpt>
      <trkpt lat="41.5657850" lon="-8.7801000">
        <ele>40.0</ele>
        <time>2021-05-17T10:27:20Z</time>
      </trkpt>
      <trkpt lat="41.5658020" lon="-8.7801010">
        <ele>40.0</ele>
        <time>2021-05-17T10:27:21Z</time>
      </trkpt>
      <trkpt lat="41.5658140" lon="-8.7801060">
        <ele>40.0</ele>
        <time>2021-05-17T10:27:22Z</time>
      </trkpt>
      <trkpt lat="41.5658270" lon="-8.7801050">
        <ele>40.0</ele>
        <time>2021-05-17T10:27:23Z</time>
      </trkpt>
      <trkpt lat="41.5658380" lon="-8.7801020">
        <ele>39.9</ele>
        <time>2021-05-17T10:27:24Z</time>
      </trkpt>
      <trkpt lat="41.5658450" lon="-8.7800990">
        <ele>39.9</ele>
        <time>2021-05-17T10:27:25Z</time>
      </trkpt>
      <trkpt lat="41.5658470" lon="-8.7800910">
        <ele>39.9</ele>
        <time>2021-05-17T10:27:26Z</time>
      </trkpt>
      <trkpt lat="41.5658630" lon="-8.7800870">
        <ele>39.9</ele>
        <time>2021-05-17T10:27:27Z</time>
      </trkpt>
      <trkpt lat="41.5658740" lon="-8.7800850">
        <ele>39.9</ele>
        <time>2021-05-17T10:27:28Z</time>
      </trkpt>
      <trkpt lat="41.5658910" lon="-8.7800820">
        <ele>39.9</ele>
        <time>2021-05-17T10:27:29Z</time>
      </trkpt>
      <trkpt lat="41.5659120" lon="-8.7800840">
        <ele>39.9</ele>
        <time>2021-05-17T10:27:30Z</time>
      </trkpt>
      <trkpt lat="41.5659220" lon="-8.7800860">
        <ele>39.9</ele>
        <time>2021-05-17T10:27:31Z</time>
      </trkpt>
      <trkpt lat="41.5659310" lon="-8.7800890">
        <ele>39.9</ele>
        <time>2021-05-17T10:27:32Z</time>
      </trkpt>
      <trkpt lat="41.5659430" lon="-8.7800870">
        <ele>39.9</ele>
        <time>2021-05-17T10:27:33Z</time>
      </trkpt>
      <trkpt lat="41.5659590" lon="-8.7800920">
        <ele>39.9</ele>
        <time>2021-05-17T10:27:34Z</time>
      </trkpt>
      <trkpt lat="41.5659740" lon="-8.7800910">
        <ele>39.9</ele>
        <time>2021-05-17T10:27:35Z</time>
      </trkpt>
      <trkpt lat="41.5659820" lon="-8.7800890">
        <ele>39.9</ele>
        <time>2021-05-17T10:27:36Z</time>
      </trkpt>
      <trkpt lat="41.5659890" lon="-8.7800880">
        <ele>39.9</ele>
        <time>2021-05-17T10:27:37Z</time>
      </trkpt>
      <trkpt lat="41.5659970" lon="-8.7800860">
        <ele>39.9</ele>
        <time>2021-05-17T10:27:38Z</time>
      </trkpt>
      <trkpt lat="41.5660200" lon="-8.7800790">
        <ele>39.9</ele>
        <time>2021-05-17T10:27:39Z</time>
      </trkpt>
      <trkpt lat="41.5660280" lon="-8.7800800">
        <ele>39.9</ele>
        <time>2021-05-17T10:27:40Z</time>
      </trkpt>
      <trkpt lat="41.5660370" lon="-8.7800810">
        <ele>39.9</ele>
        <time>2021-05-17T10:27:41Z</time>
      </trkpt>
      <trkpt lat="41.5660470" lon="-8.7800850">
        <ele>39.9</ele>
        <time>2021-05-17T10:27:42Z</time>
      </trkpt>
      <trkpt lat="41.5660490" lon="-8.7800910">
        <ele>39.9</ele>
        <time>2021-05-17T10:27:43Z</time>
      </trkpt>
      <trkpt lat="41.5660590" lon="-8.7800930">
        <ele>39.9</ele>
        <time>2021-05-17T10:27:44Z</time>
      </trkpt>
      <trkpt lat="41.5660610" lon="-8.7800980">
        <ele>39.9</ele>
        <time>2021-05-17T10:27:45Z</time>
      </trkpt>
      <trkpt lat="41.5660760" lon="-8.7801030">
        <ele>39.9</ele>
        <time>2021-05-17T10:27:46Z</time>
      </trkpt>
      <trkpt lat="41.5660930" lon="-8.7800990">
        <ele>39.9</ele>
        <time>2021-05-17T10:27:47Z</time>
      </trkpt>
      <trkpt lat="41.5661050" lon="-8.7800960">
        <ele>39.9</ele>
        <time>2021-05-17T10:27:48Z</time>
      </trkpt>
      <trkpt lat="41.5661160" lon="-8.7800970">
        <ele>39.9</ele>
        <time>2021-05-17T10:27:49Z</time>
      </trkpt>
      <trkpt lat="41.5661270" lon="-8.7800930">
        <ele>39.9</ele>
        <time>2021-05-17T10:27:50Z</time>
      </trkpt>
      <trkpt lat="41.5661470" lon="-8.7801020">
        <ele>39.9</ele>
        <time>2021-05-17T10:27:51Z</time>
      </trkpt>
      <trkpt lat="41.5661590" lon="-8.7801010">
        <ele>39.8</ele>
        <time>2021-05-17T10:27:52Z</time>
      </trkpt>
      <trkpt lat="41.5661710" lon="-8.7800970">
        <ele>39.8</ele>
        <time>2021-05-17T10:27:53Z</time>
      </trkpt>
      <trkpt lat="41.5661800" lon="-8.7800960">
        <ele>39.8</ele>
        <time>2021-05-17T10:27:54Z</time>
      </trkpt>
      <trkpt lat="41.5661930" lon="-8.7800940">
        <ele>39.8</ele>
        <time>2021-05-17T10:27:55Z</time>
      </trkpt>
      <trkpt lat="41.5662130" lon="-8.7800950">
        <ele>39.8</ele>
        <time>2021-05-17T10:27:56Z</time>
      </trkpt>
      <trkpt lat="41.5662250" lon="-8.7800840">
        <ele>39.8</ele>
        <time>2021-05-17T10:27:57Z</time>
      </trkpt>
      <trkpt lat="41.5662550" lon="-8.7800690">
        <ele>39.8</ele>
        <time>2021-05-17T10:27:58Z</time>
      </trkpt>
      <trkpt lat="41.5662640" lon="-8.7800600">
        <ele>39.8</ele>
        <time>2021-05-17T10:27:59Z</time>
      </trkpt>
      <trkpt lat="41.5662820" lon="-8.7800590">
        <ele>39.8</ele>
        <time>2021-05-17T10:28:00Z</time>
      </trkpt>
      <trkpt lat="41.5662920" lon="-8.7800600">
        <ele>39.8</ele>
        <time>2021-05-17T10:28:01Z</time>
      </trkpt>
      <trkpt lat="41.5663030" lon="-8.7800600">
        <ele>39.8</ele>
        <time>2021-05-17T10:28:02Z</time>
      </trkpt>
      <trkpt lat="41.5663270" lon="-8.7800610">
        <ele>39.8</ele>
        <time>2021-05-17T10:28:03Z</time>
      </trkpt>
      <trkpt lat="41.5663380" lon="-8.7800620">
        <ele>39.8</ele>
        <time>2021-05-17T10:28:04Z</time>
      </trkpt>
      <trkpt lat="41.5663490" lon="-8.7800620">
        <ele>39.7</ele>
        <time>2021-05-17T10:28:05Z</time>
      </trkpt>
      <trkpt lat="41.5663550" lon="-8.7800500">
        <ele>39.7</ele>
        <time>2021-05-17T10:28:06Z</time>
      </trkpt>
      <trkpt lat="41.5663650" lon="-8.7800590">
        <ele>39.7</ele>
        <time>2021-05-17T10:28:07Z</time>
      </trkpt>
      <trkpt lat="41.5663780" lon="-8.7800490">
        <ele>39.7</ele>
        <time>2021-05-17T10:28:08Z</time>
      </trkpt>
      <trkpt lat="41.5663880" lon="-8.7800510">
        <ele>39.7</ele>
        <time>2021-05-17T10:28:09Z</time>
      </trkpt>
      <trkpt lat="41.5663940" lon="-8.7800440">
        <ele>39.7</ele>
        <time>2021-05-17T10:28:10Z</time>
      </trkpt>
      <trkpt lat="41.5664110" lon="-8.7800460">
        <ele>39.7</ele>
        <time>2021-05-17T10:28:11Z</time>
      </trkpt>
      <trkpt lat="41.5664240" lon="-8.7800510">
        <ele>39.7</ele>
        <time>2021-05-17T10:28:12Z</time>
      </trkpt>
      <trkpt lat="41.5664420" lon="-8.7800550">
        <ele>39.7</ele>
        <time>2021-05-17T10:28:13Z</time>
      </trkpt>
      <trkpt lat="41.5664520" lon="-8.7800570">
        <ele>39.7</ele>
        <time>2021-05-17T10:28:14Z</time>
      </trkpt>
      <trkpt lat="41.5664590" lon="-8.7800500">
        <ele>39.6</ele>
        <time>2021-05-17T10:28:15Z</time>
      </trkpt>
      <trkpt lat="41.5664730" lon="-8.7800550">
        <ele>39.6</ele>
        <time>2021-05-17T10:28:16Z</time>
      </trkpt>
      <trkpt lat="41.5664910" lon="-8.7800560">
        <ele>39.6</ele>
        <time>2021-05-17T10:28:17Z</time>
      </trkpt>
      <trkpt lat="41.5665050" lon="-8.7800570">
        <ele>39.6</ele>
        <time>2021-05-17T10:28:18Z</time>
      </trkpt>
      <trkpt lat="41.5665270" lon="-8.7800540">
        <ele>39.6</ele>
        <time>2021-05-17T10:28:19Z</time>
      </trkpt>
      <trkpt lat="41.5665250" lon="-8.7800410">
        <ele>39.6</ele>
        <time>2021-05-17T10:28:20Z</time>
      </trkpt>
      <trkpt lat="41.5665390" lon="-8.7800530">
        <ele>39.5</ele>
        <time>2021-05-17T10:28:21Z</time>
      </trkpt>
      <trkpt lat="41.5665710" lon="-8.7800510">
        <ele>39.5</ele>
        <time>2021-05-17T10:28:22Z</time>
      </trkpt>
      <trkpt lat="41.5665840" lon="-8.7800550">
        <ele>39.4</ele>
        <time>2021-05-17T10:28:23Z</time>
      </trkpt>
      <trkpt lat="41.5665990" lon="-8.7800450">
        <ele>39.4</ele>
        <time>2021-05-17T10:28:24Z</time>
      </trkpt>
      <trkpt lat="41.5666100" lon="-8.7800460">
        <ele>39.4</ele>
        <time>2021-05-17T10:28:25Z</time>
      </trkpt>
      <trkpt lat="41.5666010" lon="-8.7800430">
        <ele>39.4</ele>
        <time>2021-05-17T10:28:26Z</time>
      </trkpt>
      <trkpt lat="41.5666150" lon="-8.7800490">
        <ele>39.3</ele>
        <time>2021-05-17T10:28:27Z</time>
      </trkpt>
      <trkpt lat="41.5666210" lon="-8.7800440">
        <ele>39.3</ele>
        <time>2021-05-17T10:28:28Z</time>
      </trkpt>
      <trkpt lat="41.5666460" lon="-8.7800440">
        <ele>39.3</ele>
        <time>2021-05-17T10:28:29Z</time>
      </trkpt>
      <trkpt lat="41.5666730" lon="-8.7800440">
        <ele>39.2</ele>
        <time>2021-05-17T10:28:30Z</time>
      </trkpt>
      <trkpt lat="41.5666800" lon="-8.7800470">
        <ele>39.2</ele>
        <time>2021-05-17T10:28:31Z</time>
      </trkpt>
      <trkpt lat="41.5666870" lon="-8.7800500">
        <ele>39.2</ele>
        <time>2021-05-17T10:28:32Z</time>
      </trkpt>
      <trkpt lat="41.5667000" lon="-8.7800480">
        <ele>39.1</ele>
        <time>2021-05-17T10:28:33Z</time>
      </trkpt>
      <trkpt lat="41.5667170" lon="-8.7800410">
        <ele>39.1</ele>
        <time>2021-05-17T10:28:34Z</time>
      </trkpt>
      <trkpt lat="41.5667330" lon="-8.7800340">
        <ele>39.1</ele>
        <time>2021-05-17T10:28:35Z</time>
      </trkpt>
      <trkpt lat="41.5667440" lon="-8.7800310">
        <ele>39.0</ele>
        <time>2021-05-17T10:28:36Z</time>
      </trkpt>
      <trkpt lat="41.5667540" lon="-8.7800270">
        <ele>39.0</ele>
        <time>2021-05-17T10:28:37Z</time>
      </trkpt>
      <trkpt lat="41.5667660" lon="-8.7800150">
        <ele>39.0</ele>
        <time>2021-05-17T10:28:38Z</time>
      </trkpt>
      <trkpt lat="41.5667680" lon="-8.7800120">
        <ele>39.0</ele>
        <time>2021-05-17T10:28:39Z</time>
      </trkpt>
      <trkpt lat="41.5667710" lon="-8.7800030">
        <ele>39.0</ele>
        <time>2021-05-17T10:28:40Z</time>
      </trkpt>
      <trkpt lat="41.5667790" lon="-8.7799990">
        <ele>38.9</ele>
        <time>2021-05-17T10:28:41Z</time>
      </trkpt>
      <trkpt lat="41.5667850" lon="-8.7799920">
        <ele>38.9</ele>
        <time>2021-05-17T10:28:42Z</time>
      </trkpt>
      <trkpt lat="41.5667880" lon="-8.7799910">
        <ele>38.9</ele>
        <time>2021-05-17T10:28:43Z</time>
      </trkpt>
      <trkpt lat="41.5667920" lon="-8.7799890">
        <ele>38.9</ele>
        <time>2021-05-17T10:28:44Z</time>
      </trkpt>
      <trkpt lat="41.5667960" lon="-8.7799870">
        <ele>38.9</ele>
        <time>2021-05-17T10:28:45Z</time>
      </trkpt>
      <trkpt lat="41.5667990" lon="-8.7799860">
        <ele>38.9</ele>
        <time>2021-05-17T10:28:46Z</time>
      </trkpt>
      <trkpt lat="41.5668030" lon="-8.7799840">
        <ele>38.9</ele>
        <time>2021-05-17T10:28:47Z</time>
      </trkpt>
      <trkpt lat="41.5668060" lon="-8.7799830">
        <ele>38.9</ele>
        <time>2021-05-17T10:28:48Z</time>
      </trkpt>
      <trkpt lat="41.5668100" lon="-8.7799810">
        <ele>38.9</ele>
        <time>2021-05-17T10:28:49Z</time>
      </trkpt>
      <trkpt lat="41.5668140" lon="-8.7799790">
        <ele>38.9</ele>
        <time>2021-05-17T10:28:50Z</time>
      </trkpt>
      <trkpt lat="41.5668170" lon="-8.7799780">
        <ele>38.8</ele>
        <time>2021-05-17T10:28:51Z</time>
      </trkpt>
      <trkpt lat="41.5668210" lon="-8.7799760">
        <ele>38.8</ele>
        <time>2021-05-17T10:28:52Z</time>
      </trkpt>
      <trkpt lat="41.5668360" lon="-8.7799740">
        <ele>38.8</ele>
        <time>2021-05-17T10:28:53Z</time>
      </trkpt>
      <trkpt lat="41.5668450" lon="-8.7799690">
        <ele>38.8</ele>
        <time>2021-05-17T10:28:54Z</time>
      </trkpt>
      <trkpt lat="41.5668540" lon="-8.7799640">
        <ele>38.8</ele>
        <time>2021-05-17T10:28:55Z</time>
      </trkpt>
      <trkpt lat="41.5668630" lon="-8.7799590">
        <ele>38.7</ele>
        <time>2021-05-17T10:28:56Z</time>
      </trkpt>
      <trkpt lat="41.5668940" lon="-8.7799480">
        <ele>38.7</ele>
        <time>2021-05-17T10:28:57Z</time>
      </trkpt>
      <trkpt lat="41.5669090" lon="-8.7799440">
        <ele>38.6</ele>
        <time>2021-05-17T10:28:58Z</time>
      </trkpt>
      <trkpt lat="41.5669170" lon="-8.7799330">
        <ele>38.6</ele>
        <time>2021-05-17T10:28:59Z</time>
      </trkpt>
      <trkpt lat="41.5669320" lon="-8.7799180">
        <ele>38.6</ele>
        <time>2021-05-17T10:29:00Z</time>
      </trkpt>
      <trkpt lat="41.5669450" lon="-8.7799070">
        <ele>38.5</ele>
        <time>2021-05-17T10:29:01Z</time>
      </trkpt>
      <trkpt lat="41.5669610" lon="-8.7798980">
        <ele>38.5</ele>
        <time>2021-05-17T10:29:02Z</time>
      </trkpt>
      <trkpt lat="41.5669750" lon="-8.7798870">
        <ele>38.5</ele>
        <time>2021-05-17T10:29:03Z</time>
      </trkpt>
      <trkpt lat="41.5669930" lon="-8.7798830">
        <ele>38.4</ele>
        <time>2021-05-17T10:29:04Z</time>
      </trkpt>
      <trkpt lat="41.5670070" lon="-8.7798730">
        <ele>38.4</ele>
        <time>2021-05-17T10:29:05Z</time>
      </trkpt>
      <trkpt lat="41.5670270" lon="-8.7798680">
        <ele>38.4</ele>
        <time>2021-05-17T10:29:06Z</time>
      </trkpt>
      <trkpt lat="41.5670410" lon="-8.7798580">
        <ele>38.3</ele>
        <time>2021-05-17T10:29:07Z</time>
      </trkpt>
      <trkpt lat="41.5670600" lon="-8.7798540">
        <ele>38.3</ele>
        <time>2021-05-17T10:29:08Z</time>
      </trkpt>
      <trkpt lat="41.5670750" lon="-8.7798450">
        <ele>38.3</ele>
        <time>2021-05-17T10:29:09Z</time>
      </trkpt>
      <trkpt lat="41.5670860" lon="-8.7798260">
        <ele>38.2</ele>
        <time>2021-05-17T10:29:10Z</time>
      </trkpt>
      <trkpt lat="41.5671010" lon="-8.7798170">
        <ele>38.2</ele>
        <time>2021-05-17T10:29:11Z</time>
      </trkpt>
      <trkpt lat="41.5671160" lon="-8.7798100">
        <ele>38.2</ele>
        <time>2021-05-17T10:29:12Z</time>
      </trkpt>
      <trkpt lat="41.5671300" lon="-8.7798060">
        <ele>38.1</ele>
        <time>2021-05-17T10:29:13Z</time>
      </trkpt>
      <trkpt lat="41.5671380" lon="-8.7798020">
        <ele>38.1</ele>
        <time>2021-05-17T10:29:14Z</time>
      </trkpt>
      <trkpt lat="41.5671410" lon="-8.7797950">
        <ele>38.1</ele>
        <time>2021-05-17T10:29:15Z</time>
      </trkpt>
      <trkpt lat="41.5671540" lon="-8.7797890">
        <ele>38.1</ele>
        <time>2021-05-17T10:29:16Z</time>
      </trkpt>
      <trkpt lat="41.5671690" lon="-8.7797810">
        <ele>38.1</ele>
        <time>2021-05-17T10:29:17Z</time>
      </trkpt>
      <trkpt lat="41.5671830" lon="-8.7797870">
        <ele>38.1</ele>
        <time>2021-05-17T10:29:18Z</time>
      </trkpt>
      <trkpt lat="41.5671930" lon="-8.7797820">
        <ele>38.1</ele>
        <time>2021-05-17T10:29:19Z</time>
      </trkpt>
      <trkpt lat="41.5672030" lon="-8.7797800">
        <ele>38.1</ele>
        <time>2021-05-17T10:29:20Z</time>
      </trkpt>
      <trkpt lat="41.5672090" lon="-8.7797810">
        <ele>38.1</ele>
        <time>2021-05-17T10:29:21Z</time>
      </trkpt>
      <trkpt lat="41.5672200" lon="-8.7797820">
        <ele>38.1</ele>
        <time>2021-05-17T10:29:22Z</time>
      </trkpt>
      <trkpt lat="41.5672170" lon="-8.7797870">
        <ele>38.1</ele>
        <time>2021-05-17T10:29:23Z</time>
      </trkpt>
      <trkpt lat="41.5672200" lon="-8.7797870">
        <ele>38.1</ele>
        <time>2021-05-17T10:29:24Z</time>
      </trkpt>
      <trkpt lat="41.5672270" lon="-8.7797880">
        <ele>38.1</ele>
        <time>2021-05-17T10:29:25Z</time>
      </trkpt>
      <trkpt lat="41.5672320" lon="-8.7797900">
        <ele>38.1</ele>
        <time>2021-05-17T10:29:26Z</time>
      </trkpt>
      <trkpt lat="41.5672310" lon="-8.7797980">
        <ele>38.1</ele>
        <time>2021-05-17T10:29:27Z</time>
      </trkpt>
      <trkpt lat="41.5672290" lon="-8.7798080">
        <ele>38.1</ele>
        <time>2021-05-17T10:29:28Z</time>
      </trkpt>
      <trkpt lat="41.5672220" lon="-8.7798200">
        <ele>38.1</ele>
        <time>2021-05-17T10:29:29Z</time>
      </trkpt>
      <trkpt lat="41.5672120" lon="-8.7798280">
        <ele>38.1</ele>
        <time>2021-05-17T10:29:30Z</time>
      </trkpt>
      <trkpt lat="41.5672140" lon="-8.7798330">
        <ele>38.1</ele>
        <time>2021-05-17T10:29:31Z</time>
      </trkpt>
      <trkpt lat="41.5672140" lon="-8.7798480">
        <ele>38.1</ele>
        <time>2021-05-17T10:29:32Z</time>
      </trkpt>
      <trkpt lat="41.5672110" lon="-8.7798540">
        <ele>38.1</ele>
        <time>2021-05-17T10:29:33Z</time>
      </trkpt>
      <trkpt lat="41.5672090" lon="-8.7798560">
        <ele>38.1</ele>
        <time>2021-05-17T10:29:34Z</time>
      </trkpt>
      <trkpt lat="41.5672060" lon="-8.7798640">
        <ele>38.1</ele>
        <time>2021-05-17T10:29:35Z</time>
      </trkpt>
      <trkpt lat="41.5672050" lon="-8.7798670">
        <ele>38.1</ele>
        <time>2021-05-17T10:29:36Z</time>
      </trkpt>
      <trkpt lat="41.5672080" lon="-8.7798670">
        <ele>38.1</ele>
        <time>2021-05-17T10:29:37Z</time>
      </trkpt>
      <trkpt lat="41.5672100" lon="-8.7798660">
        <ele>38.1</ele>
        <time>2021-05-17T10:29:38Z</time>
      </trkpt>
      <trkpt lat="41.5672120" lon="-8.7798650">
        <ele>38.1</ele>
        <time>2021-05-17T10:29:39Z</time>
      </trkpt>
      <trkpt lat="41.5672150" lon="-8.7798650">
        <ele>38.1</ele>
        <time>2021-05-17T10:29:40Z</time>
      </trkpt>
      <trkpt lat="41.5672170" lon="-8.7798640">
        <ele>38.1</ele>
        <time>2021-05-17T10:29:41Z</time>
      </trkpt>
      <trkpt lat="41.5672190" lon="-8.7798630">
        <ele>38.1</ele>
        <time>2021-05-17T10:29:42Z</time>
      </trkpt>
      <trkpt lat="41.5672220" lon="-8.7798630">
        <ele>38.1</ele>
        <time>2021-05-17T10:29:43Z</time>
      </trkpt>
      <trkpt lat="41.5672240" lon="-8.7798620">
        <ele>38.1</ele>
        <time>2021-05-17T10:29:44Z</time>
      </trkpt>
      <trkpt lat="41.5672270" lon="-8.7798620">
        <ele>38.1</ele>
        <time>2021-05-17T10:29:45Z</time>
      </trkpt>
      <trkpt lat="41.5672290" lon="-8.7798610">
        <ele>38.1</ele>
        <time>2021-05-17T10:29:46Z</time>
      </trkpt>
      <trkpt lat="41.5672310" lon="-8.7798600">
        <ele>38.1</ele>
        <time>2021-05-17T10:29:47Z</time>
      </trkpt>
      <trkpt lat="41.5672340" lon="-8.7798600">
        <ele>38.1</ele>
        <time>2021-05-17T10:29:48Z</time>
      </trkpt>
      <trkpt lat="41.5672360" lon="-8.7798590">
        <ele>38.1</ele>
        <time>2021-05-17T10:29:49Z</time>
      </trkpt>
      <trkpt lat="41.5672380" lon="-8.7798580">
        <ele>38.1</ele>
        <time>2021-05-17T10:29:50Z</time>
      </trkpt>
      <trkpt lat="41.5672410" lon="-8.7798580">
        <ele>38.1</ele>
        <time>2021-05-17T10:29:51Z</time>
      </trkpt>
      <trkpt lat="41.5672430" lon="-8.7798570">
        <ele>38.1</ele>
        <time>2021-05-17T10:29:52Z</time>
      </trkpt>
      <trkpt lat="41.5672450" lon="-8.7798560">
        <ele>38.1</ele>
        <time>2021-05-17T10:29:53Z</time>
      </trkpt>
      <trkpt lat="41.5672480" lon="-8.7798560">
        <ele>38.1</ele>
        <time>2021-05-17T10:29:54Z</time>
      </trkpt>
      <trkpt lat="41.5672500" lon="-8.7798550">
        <ele>38.1</ele>
        <time>2021-05-17T10:29:55Z</time>
      </trkpt>
      <trkpt lat="41.5672610" lon="-8.7798430">
        <ele>38.1</ele>
        <time>2021-05-17T10:29:56Z</time>
      </trkpt>
      <trkpt lat="41.5672710" lon="-8.7798380">
        <ele>38.1</ele>
        <time>2021-05-17T10:29:57Z</time>
      </trkpt>
      <trkpt lat="41.5672780" lon="-8.7798370">
        <ele>38.1</ele>
        <time>2021-05-17T10:29:58Z</time>
      </trkpt>
      <trkpt lat="41.5672960" lon="-8.7798280">
        <ele>38.1</ele>
        <time>2021-05-17T10:29:59Z</time>
      </trkpt>
      <trkpt lat="41.5673100" lon="-8.7798320">
        <ele>38.1</ele>
        <time>2021-05-17T10:30:00Z</time>
      </trkpt>
      <trkpt lat="41.5673350" lon="-8.7798400">
        <ele>38.1</ele>
        <time>2021-05-17T10:30:01Z</time>
      </trkpt>
      <trkpt lat="41.5673410" lon="-8.7798400">
        <ele>38.1</ele>
        <time>2021-05-17T10:30:02Z</time>
      </trkpt>
      <trkpt lat="41.5673460" lon="-8.7798390">
        <ele>38.1</ele>
        <time>2021-05-17T10:30:03Z</time>
      </trkpt>
      <trkpt lat="41.5673650" lon="-8.7798390">
        <ele>38.1</ele>
        <time>2021-05-17T10:30:04Z</time>
      </trkpt>
      <trkpt lat="41.5673740" lon="-8.7798410">
        <ele>38.1</ele>
        <time>2021-05-17T10:30:05Z</time>
      </trkpt>
      <trkpt lat="41.5673830" lon="-8.7798430">
        <ele>38.1</ele>
        <time>2021-05-17T10:30:06Z</time>
      </trkpt>
      <trkpt lat="41.5673940" lon="-8.7798440">
        <ele>38.1</ele>
        <time>2021-05-17T10:30:07Z</time>
      </trkpt>
      <trkpt lat="41.5673990" lon="-8.7798410">
        <ele>38.1</ele>
        <time>2021-05-17T10:30:08Z</time>
      </trkpt>
      <trkpt lat="41.5674190" lon="-8.7798400">
        <ele>38.1</ele>
        <time>2021-05-17T10:30:09Z</time>
      </trkpt>
      <trkpt lat="41.5674400" lon="-8.7798390">
        <ele>38.1</ele>
        <time>2021-05-17T10:30:10Z</time>
      </trkpt>
      <trkpt lat="41.5674490" lon="-8.7798380">
        <ele>38.1</ele>
        <time>2021-05-17T10:30:11Z</time>
      </trkpt>
      <trkpt lat="41.5674570" lon="-8.7798360">
        <ele>38.1</ele>
        <time>2021-05-17T10:30:12Z</time>
      </trkpt>
      <trkpt lat="41.5674770" lon="-8.7798420">
        <ele>38.1</ele>
        <time>2021-05-17T10:30:13Z</time>
      </trkpt>
      <trkpt lat="41.5674930" lon="-8.7798390">
        <ele>38.2</ele>
        <time>2021-05-17T10:30:14Z</time>
      </trkpt>
      <trkpt lat="41.5675170" lon="-8.7798420">
        <ele>38.2</ele>
        <time>2021-05-17T10:30:15Z</time>
      </trkpt>
      <trkpt lat="41.5675270" lon="-8.7798400">
        <ele>38.2</ele>
        <time>2021-05-17T10:30:16Z</time>
      </trkpt>
      <trkpt lat="41.5675360" lon="-8.7798380">
        <ele>38.2</ele>
        <time>2021-05-17T10:30:17Z</time>
      </trkpt>
      <trkpt lat="41.5675530" lon="-8.7798350">
        <ele>38.3</ele>
        <time>2021-05-17T10:30:18Z</time>
      </trkpt>
      <trkpt lat="41.5675680" lon="-8.7798380">
        <ele>38.3</ele>
        <time>2021-05-17T10:30:19Z</time>
      </trkpt>
      <trkpt lat="41.5675800" lon="-8.7798390">
        <ele>38.3</ele>
        <time>2021-05-17T10:30:20Z</time>
      </trkpt>
      <trkpt lat="41.5675890" lon="-8.7798460">
        <ele>38.3</ele>
        <time>2021-05-17T10:30:21Z</time>
      </trkpt>
      <trkpt lat="41.5675990" lon="-8.7798400">
        <ele>38.3</ele>
        <time>2021-05-17T10:30:22Z</time>
      </trkpt>
      <trkpt lat="41.5676060" lon="-8.7798380">
        <ele>38.4</ele>
        <time>2021-05-17T10:30:23Z</time>
      </trkpt>
      <trkpt lat="41.5676300" lon="-8.7798340">
        <ele>38.4</ele>
        <time>2021-05-17T10:30:24Z</time>
      </trkpt>
      <trkpt lat="41.5676530" lon="-8.7798280">
        <ele>38.5</ele>
        <time>2021-05-17T10:30:25Z</time>
      </trkpt>
      <trkpt lat="41.5676620" lon="-8.7798250">
        <ele>38.5</ele>
        <time>2021-05-17T10:30:26Z</time>
      </trkpt>
      <trkpt lat="41.5676700" lon="-8.7798220">
        <ele>38.5</ele>
        <time>2021-05-17T10:30:27Z</time>
      </trkpt>
      <trkpt lat="41.5676880" lon="-8.7798240">
        <ele>38.6</ele>
        <time>2021-05-17T10:30:28Z</time>
      </trkpt>
      <trkpt lat="41.5677040" lon="-8.7798270">
        <ele>38.6</ele>
        <time>2021-05-17T10:30:29Z</time>
      </trkpt>
      <trkpt lat="41.5677180" lon="-8.7798260">
        <ele>38.7</ele>
        <time>2021-05-17T10:30:30Z</time>
      </trkpt>
      <trkpt lat="41.5677280" lon="-8.7798310">
        <ele>38.7</ele>
        <time>2021-05-17T10:30:31Z</time>
      </trkpt>
      <trkpt lat="41.5677320" lon="-8.7798330">
        <ele>38.7</ele>
        <time>2021-05-17T10:30:32Z</time>
      </trkpt>
      <trkpt lat="41.5677470" lon="-8.7798390">
        <ele>38.8</ele>
        <time>2021-05-17T10:30:33Z</time>
      </trkpt>
      <trkpt lat="41.5677630" lon="-8.7798480">
        <ele>38.8</ele>
        <time>2021-05-17T10:30:34Z</time>
      </trkpt>
      <trkpt lat="41.5677770" lon="-8.7798460">
        <ele>38.9</ele>
        <time>2021-05-17T10:30:35Z</time>
      </trkpt>
      <trkpt lat="41.5677880" lon="-8.7798480">
        <ele>38.9</ele>
        <time>2021-05-17T10:30:36Z</time>
      </trkpt>
      <trkpt lat="41.5677930" lon="-8.7798510">
        <ele>38.9</ele>
        <time>2021-05-17T10:30:37Z</time>
      </trkpt>
      <trkpt lat="41.5677960" lon="-8.7798530">
        <ele>38.9</ele>
        <time>2021-05-17T10:30:38Z</time>
      </trkpt>
      <trkpt lat="41.5678120" lon="-8.7798520">
        <ele>39.0</ele>
        <time>2021-05-17T10:30:39Z</time>
      </trkpt>
      <trkpt lat="41.5678220" lon="-8.7798520">
        <ele>39.0</ele>
        <time>2021-05-17T10:30:40Z</time>
      </trkpt>
      <trkpt lat="41.5678560" lon="-8.7798680">
        <ele>39.2</ele>
        <time>2021-05-17T10:30:41Z</time>
      </trkpt>
      <trkpt lat="41.5678650" lon="-8.7798700">
        <ele>39.2</ele>
        <time>2021-05-17T10:30:42Z</time>
      </trkpt>
      <trkpt lat="41.5678810" lon="-8.7798680">
        <ele>39.3</ele>
        <time>2021-05-17T10:30:43Z</time>
      </trkpt>
      <trkpt lat="41.5678990" lon="-8.7798630">
        <ele>39.4</ele>
        <time>2021-05-17T10:30:44Z</time>
      </trkpt>
      <trkpt lat="41.5679120" lon="-8.7798660">
        <ele>39.4</ele>
        <time>2021-05-17T10:30:45Z</time>
      </trkpt>
      <trkpt lat="41.5679280" lon="-8.7798630">
        <ele>39.5</ele>
        <time>2021-05-17T10:30:46Z</time>
      </trkpt>
      <trkpt lat="41.5679420" lon="-8.7798580">
        <ele>39.6</ele>
        <time>2021-05-17T10:30:47Z</time>
      </trkpt>
      <trkpt lat="41.5679590" lon="-8.7798610">
        <ele>39.6</ele>
        <time>2021-05-17T10:30:48Z</time>
      </trkpt>
      <trkpt lat="41.5679750" lon="-8.7798580">
        <ele>39.7</ele>
        <time>2021-05-17T10:30:49Z</time>
      </trkpt>
      <trkpt lat="41.5679930" lon="-8.7798600">
        <ele>39.8</ele>
        <time>2021-05-17T10:30:50Z</time>
      </trkpt>
      <trkpt lat="41.5680060" lon="-8.7798680">
        <ele>39.9</ele>
        <time>2021-05-17T10:30:51Z</time>
      </trkpt>
      <trkpt lat="41.5680240" lon="-8.7798710">
        <ele>40.0</ele>
        <time>2021-05-17T10:30:52Z</time>
      </trkpt>
      <trkpt lat="41.5680380" lon="-8.7798630">
        <ele>40.0</ele>
        <time>2021-05-17T10:30:53Z</time>
      </trkpt>
      <trkpt lat="41.5680540" lon="-8.7798720">
        <ele>40.1</ele>
        <time>2021-05-17T10:30:54Z</time>
      </trkpt>
      <trkpt lat="41.5680660" lon="-8.7798760">
        <ele>40.2</ele>
        <time>2021-05-17T10:30:55Z</time>
      </trkpt>
      <trkpt lat="41.5680810" lon="-8.7798820">
        <ele>40.2</ele>
        <time>2021-05-17T10:30:56Z</time>
      </trkpt>
      <trkpt lat="41.5680940" lon="-8.7798870">
        <ele>40.3</ele>
        <time>2021-05-17T10:30:57Z</time>
      </trkpt>
      <trkpt lat="41.5681090" lon="-8.7798860">
        <ele>40.4</ele>
        <time>2021-05-17T10:30:58Z</time>
      </trkpt>
      <trkpt lat="41.5681250" lon="-8.7798850">
        <ele>40.5</ele>
        <time>2021-05-17T10:30:59Z</time>
      </trkpt>
      <trkpt lat="41.5681370" lon="-8.7798850">
        <ele>40.5</ele>
        <time>2021-05-17T10:31:00Z</time>
      </trkpt>
      <trkpt lat="41.5681540" lon="-8.7798830">
        <ele>40.6</ele>
        <time>2021-05-17T10:31:01Z</time>
      </trkpt>
      <trkpt lat="41.5681700" lon="-8.7798850">
        <ele>40.7</ele>
        <time>2021-05-17T10:31:02Z</time>
      </trkpt>
      <trkpt lat="41.5681840" lon="-8.7798890">
        <ele>40.7</ele>
        <time>2021-05-17T10:31:03Z</time>
      </trkpt>
      <trkpt lat="41.5682000" lon="-8.7798880">
        <ele>40.8</ele>
        <time>2021-05-17T10:31:04Z</time>
      </trkpt>
      <trkpt lat="41.5682150" lon="-8.7798940">
        <ele>40.9</ele>
        <time>2021-05-17T10:31:05Z</time>
      </trkpt>
      <trkpt lat="41.5682290" lon="-8.7798990">
        <ele>41.0</ele>
        <time>2021-05-17T10:31:06Z</time>
      </trkpt>
      <trkpt lat="41.5682370" lon="-8.7799020">
        <ele>41.0</ele>
        <time>2021-05-17T10:31:07Z</time>
      </trkpt>
      <trkpt lat="41.5682470" lon="-8.7799010">
        <ele>41.0</ele>
        <time>2021-05-17T10:31:08Z</time>
      </trkpt>
      <trkpt lat="41.5682540" lon="-8.7799030">
        <ele>41.1</ele>
        <time>2021-05-17T10:31:09Z</time>
      </trkpt>
      <trkpt lat="41.5682630" lon="-8.7799100">
        <ele>41.1</ele>
        <time>2021-05-17T10:31:10Z</time>
      </trkpt>
      <trkpt lat="41.5682730" lon="-8.7799240">
        <ele>41.2</ele>
        <time>2021-05-17T10:31:11Z</time>
      </trkpt>
      <trkpt lat="41.5682850" lon="-8.7799210">
        <ele>41.2</ele>
        <time>2021-05-17T10:31:12Z</time>
      </trkpt>
      <trkpt lat="41.5682940" lon="-8.7799260">
        <ele>41.3</ele>
        <time>2021-05-17T10:31:13Z</time>
      </trkpt>
      <trkpt lat="41.5683030" lon="-8.7799320">
        <ele>41.3</ele>
        <time>2021-05-17T10:31:14Z</time>
      </trkpt>
      <trkpt lat="41.5683110" lon="-8.7799280">
        <ele>41.4</ele>
        <time>2021-05-17T10:31:15Z</time>
      </trkpt>
      <trkpt lat="41.5683230" lon="-8.7799270">
        <ele>41.4</ele>
        <time>2021-05-17T10:31:16Z</time>
      </trkpt>
      <trkpt lat="41.5683400" lon="-8.7799400">
        <ele>41.5</ele>
        <time>2021-05-17T10:31:17Z</time>
      </trkpt>
      <trkpt lat="41.5683530" lon="-8.7799440">
        <ele>41.5</ele>
        <time>2021-05-17T10:31:18Z</time>
      </trkpt>
      <trkpt lat="41.5683620" lon="-8.7799520">
        <ele>41.6</ele>
        <time>2021-05-17T10:31:19Z</time>
      </trkpt>
      <trkpt lat="41.5683690" lon="-8.7799500">
        <ele>41.6</ele>
        <time>2021-05-17T10:31:20Z</time>
      </trkpt>
      <trkpt lat="41.5683850" lon="-8.7799480">
        <ele>41.6</ele>
        <time>2021-05-17T10:31:21Z</time>
      </trkpt>
      <trkpt lat="41.5684060" lon="-8.7799500">
        <ele>41.7</ele>
        <time>2021-05-17T10:31:22Z</time>
      </trkpt>
      <trkpt lat="41.5684150" lon="-8.7799530">
        <ele>41.7</ele>
        <time>2021-05-17T10:31:23Z</time>
      </trkpt>
      <trkpt lat="41.5684240" lon="-8.7799570">
        <ele>41.8</ele>
        <time>2021-05-17T10:31:24Z</time>
      </trkpt>
      <trkpt lat="41.5684470" lon="-8.7799640">
        <ele>41.8</ele>
        <time>2021-05-17T10:31:25Z</time>
      </trkpt>
      <trkpt lat="41.5684550" lon="-8.7799690">
        <ele>41.8</ele>
        <time>2021-05-17T10:31:26Z</time>
      </trkpt>
      <trkpt lat="41.5684640" lon="-8.7799730">
        <ele>41.9</ele>
        <time>2021-05-17T10:31:27Z</time>
      </trkpt>
      <trkpt lat="41.5684840" lon="-8.7799750">
        <ele>41.9</ele>
        <time>2021-05-17T10:31:28Z</time>
      </trkpt>
      <trkpt lat="41.5684930" lon="-8.7799730">
        <ele>41.9</ele>
        <time>2021-05-17T10:31:29Z</time>
      </trkpt>
      <trkpt lat="41.5685030" lon="-8.7799720">
        <ele>42.0</ele>
        <time>2021-05-17T10:31:30Z</time>
      </trkpt>
      <trkpt lat="41.5685160" lon="-8.7799720">
        <ele>42.0</ele>
        <time>2021-05-17T10:31:31Z</time>
      </trkpt>
      <trkpt lat="41.5685320" lon="-8.7799670">
        <ele>42.0</ele>
        <time>2021-05-17T10:31:32Z</time>
      </trkpt>
      <trkpt lat="41.5685460" lon="-8.7799790">
        <ele>42.1</ele>
        <time>2021-05-17T10:31:33Z</time>
      </trkpt>
      <trkpt lat="41.5685610" lon="-8.7799770">
        <ele>42.1</ele>
        <time>2021-05-17T10:31:34Z</time>
      </trkpt>
      <trkpt lat="41.5685810" lon="-8.7799760">
        <ele>42.1</ele>
        <time>2021-05-17T10:31:35Z</time>
      </trkpt>
      <trkpt lat="41.5685920" lon="-8.7799760">
        <ele>42.1</ele>
        <time>2021-05-17T10:31:36Z</time>
      </trkpt>
      <trkpt lat="41.5686030" lon="-8.7799770">
        <ele>42.2</ele>
        <time>2021-05-17T10:31:37Z</time>
      </trkpt>
      <trkpt lat="41.5686210" lon="-8.7799860">
        <ele>42.2</ele>
        <time>2021-05-17T10:31:38Z</time>
      </trkpt>
      <trkpt lat="41.5686300" lon="-8.7799880">
        <ele>42.2</ele>
        <time>2021-05-17T10:31:39Z</time>
      </trkpt>
      <trkpt lat="41.5686380" lon="-8.7799910">
        <ele>42.2</ele>
        <time>2021-05-17T10:31:40Z</time>
      </trkpt>
      <trkpt lat="41.5686470" lon="-8.7799940">
        <ele>42.2</ele>
        <time>2021-05-17T10:31:41Z</time>
      </trkpt>
      <trkpt lat="41.5686590" lon="-8.7799960">
        <ele>42.3</ele>
        <time>2021-05-17T10:31:42Z</time>
      </trkpt>
      <trkpt lat="41.5686660" lon="-8.7799960">
        <ele>42.3</ele>
        <time>2021-05-17T10:31:43Z</time>
      </trkpt>
      <trkpt lat="41.5686850" lon="-8.7800000">
        <ele>42.3</ele>
        <time>2021-05-17T10:31:44Z</time>
      </trkpt>
      <trkpt lat="41.5686940" lon="-8.7800050">
        <ele>42.3</ele>
        <time>2021-05-17T10:31:45Z</time>
      </trkpt>
      <trkpt lat="41.5687150" lon="-8.7800170">
        <ele>42.4</ele>
        <time>2021-05-17T10:31:46Z</time>
      </trkpt>
      <trkpt lat="41.5687230" lon="-8.7800210">
        <ele>42.4</ele>
        <time>2021-05-17T10:31:47Z</time>
      </trkpt>
      <trkpt lat="41.5687310" lon="-8.7800260">
        <ele>42.4</ele>
        <time>2021-05-17T10:31:48Z</time>
      </trkpt>
      <trkpt lat="41.5687560" lon="-8.7800210">
        <ele>42.4</ele>
        <time>2021-05-17T10:31:49Z</time>
      </trkpt>
      <trkpt lat="41.5687650" lon="-8.7800240">
        <ele>42.4</ele>
        <time>2021-05-17T10:31:50Z</time>
      </trkpt>
      <trkpt lat="41.5687750" lon="-8.7800260">
        <ele>42.4</ele>
        <time>2021-05-17T10:31:51Z</time>
      </trkpt>
      <trkpt lat="41.5687860" lon="-8.7800290">
        <ele>42.4</ele>
        <time>2021-05-17T10:31:52Z</time>
      </trkpt>
      <trkpt lat="41.5688060" lon="-8.7800290">
        <ele>42.4</ele>
        <time>2021-05-17T10:31:53Z</time>
      </trkpt>
      <trkpt lat="41.5688180" lon="-8.7800360">
        <ele>42.5</ele>
        <time>2021-05-17T10:31:54Z</time>
      </trkpt>
      <trkpt lat="41.5688350" lon="-8.7800450">
        <ele>42.5</ele>
        <time>2021-05-17T10:31:55Z</time>
      </trkpt>
      <trkpt lat="41.5688600" lon="-8.7800540">
        <ele>42.5</ele>
        <time>2021-05-17T10:31:56Z</time>
      </trkpt>
      <trkpt lat="41.5688700" lon="-8.7800580">
        <ele>42.5</ele>
        <time>2021-05-17T10:31:57Z</time>
      </trkpt>
      <trkpt lat="41.5688870" lon="-8.7800580">
        <ele>42.5</ele>
        <time>2021-05-17T10:31:58Z</time>
      </trkpt>
      <trkpt lat="41.5689010" lon="-8.7800730">
        <ele>42.5</ele>
        <time>2021-05-17T10:31:59Z</time>
      </trkpt>
      <trkpt lat="41.5689170" lon="-8.7800780">
        <ele>42.5</ele>
        <time>2021-05-17T10:32:00Z</time>
      </trkpt>
      <trkpt lat="41.5689310" lon="-8.7800940">
        <ele>42.5</ele>
        <time>2021-05-17T10:32:01Z</time>
      </trkpt>
      <trkpt lat="41.5689430" lon="-8.7801040">
        <ele>42.5</ele>
        <time>2021-05-17T10:32:02Z</time>
      </trkpt>
      <trkpt lat="41.5689560" lon="-8.7801130">
        <ele>42.5</ele>
        <time>2021-05-17T10:32:03Z</time>
      </trkpt>
      <trkpt lat="41.5689710" lon="-8.7801160">
        <ele>42.6</ele>
        <time>2021-05-17T10:32:04Z</time>
      </trkpt>
      <trkpt lat="41.5689800" lon="-8.7801240">
        <ele>42.6</ele>
        <time>2021-05-17T10:32:05Z</time>
      </trkpt>
      <trkpt lat="41.5689880" lon="-8.7801320">
        <ele>42.6</ele>
        <time>2021-05-17T10:32:06Z</time>
      </trkpt>
      <trkpt lat="41.5689950" lon="-8.7801430">
        <ele>42.6</ele>
        <time>2021-05-17T10:32:07Z</time>
      </trkpt>
      <trkpt lat="41.5690020" lon="-8.7801530">
        <ele>42.6</ele>
        <time>2021-05-17T10:32:08Z</time>
      </trkpt>
      <trkpt lat="41.5690130" lon="-8.7801610">
        <ele>42.6</ele>
        <time>2021-05-17T10:32:09Z</time>
      </trkpt>
      <trkpt lat="41.5690170" lon="-8.7801670">
        <ele>42.6</ele>
        <time>2021-05-17T10:32:10Z</time>
      </trkpt>
      <trkpt lat="41.5690340" lon="-8.7801670">
        <ele>42.6</ele>
        <time>2021-05-17T10:32:11Z</time>
      </trkpt>
      <trkpt lat="41.5690460" lon="-8.7801760">
        <ele>42.6</ele>
        <time>2021-05-17T10:32:12Z</time>
      </trkpt>
      <trkpt lat="41.5690530" lon="-8.7801710">
        <ele>42.6</ele>
        <time>2021-05-17T10:32:13Z</time>
      </trkpt>
      <trkpt lat="41.5690590" lon="-8.7801730">
        <ele>42.7</ele>
        <time>2021-05-17T10:32:14Z</time>
      </trkpt>
      <trkpt lat="41.5690750" lon="-8.7801790">
        <ele>42.7</ele>
        <time>2021-05-17T10:32:15Z</time>
      </trkpt>
      <trkpt lat="41.5690910" lon="-8.7801800">
        <ele>42.7</ele>
        <time>2021-05-17T10:32:16Z</time>
      </trkpt>
      <trkpt lat="41.5690950" lon="-8.7801810">
        <ele>42.7</ele>
        <time>2021-05-17T10:32:17Z</time>
      </trkpt>
      <trkpt lat="41.5691120" lon="-8.7801810">
        <ele>42.8</ele>
        <time>2021-05-17T10:32:18Z</time>
      </trkpt>
      <trkpt lat="41.5691390" lon="-8.7801800">
        <ele>42.8</ele>
        <time>2021-05-17T10:32:19Z</time>
      </trkpt>
      <trkpt lat="41.5691510" lon="-8.7801790">
        <ele>42.8</ele>
        <time>2021-05-17T10:32:20Z</time>
      </trkpt>
      <trkpt lat="41.5691820" lon="-8.7801830">
        <ele>42.9</ele>
        <time>2021-05-17T10:32:21Z</time>
      </trkpt>
      <trkpt lat="41.5691910" lon="-8.7801820">
        <ele>42.9</ele>
        <time>2021-05-17T10:32:22Z</time>
      </trkpt>
      <trkpt lat="41.5692060" lon="-8.7801810">
        <ele>42.9</ele>
        <time>2021-05-17T10:32:23Z</time>
      </trkpt>
      <trkpt lat="41.5692210" lon="-8.7801840">
        <ele>43.0</ele>
        <time>2021-05-17T10:32:24Z</time>
      </trkpt>
      <trkpt lat="41.5692380" lon="-8.7801860">
        <ele>43.0</ele>
        <time>2021-05-17T10:32:25Z</time>
      </trkpt>
      <trkpt lat="41.5692510" lon="-8.7801890">
        <ele>43.0</ele>
        <time>2021-05-17T10:32:26Z</time>
      </trkpt>
      <trkpt lat="41.5692690" lon="-8.7801900">
        <ele>43.1</ele>
        <time>2021-05-17T10:32:27Z</time>
      </trkpt>
      <trkpt lat="41.5692830" lon="-8.7801880">
        <ele>43.1</ele>
        <time>2021-05-17T10:32:28Z</time>
      </trkpt>
      <trkpt lat="41.5692920" lon="-8.7801890">
        <ele>43.1</ele>
        <time>2021-05-17T10:32:29Z</time>
      </trkpt>
      <trkpt lat="41.5693130" lon="-8.7801910">
        <ele>43.1</ele>
        <time>2021-05-17T10:32:30Z</time>
      </trkpt>
      <trkpt lat="41.5693200" lon="-8.7801910">
        <ele>43.2</ele>
        <time>2021-05-17T10:32:31Z</time>
      </trkpt>
      <trkpt lat="41.5693410" lon="-8.7801920">
        <ele>43.2</ele>
        <time>2021-05-17T10:32:32Z</time>
      </trkpt>
      <trkpt lat="41.5693560" lon="-8.7801960">
        <ele>43.2</ele>
        <time>2021-05-17T10:32:33Z</time>
      </trkpt>
      <trkpt lat="41.5693640" lon="-8.7802000">
        <ele>43.2</ele>
        <time>2021-05-17T10:32:34Z</time>
      </trkpt>
      <trkpt lat="41.5693730" lon="-8.7802030">
        <ele>43.3</ele>
        <time>2021-05-17T10:32:35Z</time>
      </trkpt>
      <trkpt lat="41.5693810" lon="-8.7802070">
        <ele>43.3</ele>
        <time>2021-05-17T10:32:36Z</time>
      </trkpt>
      <trkpt lat="41.5693990" lon="-8.7802160">
        <ele>43.3</ele>
        <time>2021-05-17T10:32:37Z</time>
      </trkpt>
      <trkpt lat="41.5694090" lon="-8.7802200">
        <ele>43.3</ele>
        <time>2021-05-17T10:32:38Z</time>
      </trkpt>
      <trkpt lat="41.5694180" lon="-8.7802250">
        <ele>43.4</ele>
        <time>2021-05-17T10:32:39Z</time>
      </trkpt>
      <trkpt lat="41.5694340" lon="-8.7802300">
        <ele>43.4</ele>
        <time>2021-05-17T10:32:40Z</time>
      </trkpt>
      <trkpt lat="41.5694520" lon="-8.7802330">
        <ele>43.4</ele>
        <time>2021-05-17T10:32:41Z</time>
      </trkpt>
      <trkpt lat="41.5694670" lon="-8.7802240">
        <ele>43.5</ele>
        <time>2021-05-17T10:32:42Z</time>
      </trkpt>
      <trkpt lat="41.5694810" lon="-8.7802300">
        <ele>43.5</ele>
        <time>2021-05-17T10:32:43Z</time>
      </trkpt>
      <trkpt lat="41.5694950" lon="-8.7802380">
        <ele>43.5</ele>
        <time>2021-05-17T10:32:44Z</time>
      </trkpt>
      <trkpt lat="41.5695010" lon="-8.7802400">
        <ele>43.5</ele>
        <time>2021-05-17T10:32:45Z</time>
      </trkpt>
      <trkpt lat="41.5695080" lon="-8.7802430">
        <ele>43.6</ele>
        <time>2021-05-17T10:32:46Z</time>
      </trkpt>
      <trkpt lat="41.5695140" lon="-8.7802450">
        <ele>43.6</ele>
        <time>2021-05-17T10:32:47Z</time>
      </trkpt>
      <trkpt lat="41.5695200" lon="-8.7802470">
        <ele>43.6</ele>
        <time>2021-05-17T10:32:48Z</time>
      </trkpt>
      <trkpt lat="41.5695430" lon="-8.7802480">
        <ele>43.6</ele>
        <time>2021-05-17T10:32:49Z</time>
      </trkpt>
      <trkpt lat="41.5695500" lon="-8.7802500">
        <ele>43.6</ele>
        <time>2021-05-17T10:32:50Z</time>
      </trkpt>
      <trkpt lat="41.5695580" lon="-8.7802520">
        <ele>43.7</ele>
        <time>2021-05-17T10:32:51Z</time>
      </trkpt>
      <trkpt lat="41.5695650" lon="-8.7802540">
        <ele>43.7</ele>
        <time>2021-05-17T10:32:52Z</time>
      </trkpt>
      <trkpt lat="41.5695800" lon="-8.7802540">
        <ele>43.7</ele>
        <time>2021-05-17T10:32:53Z</time>
      </trkpt>
      <trkpt lat="41.5695960" lon="-8.7802530">
        <ele>43.7</ele>
        <time>2021-05-17T10:32:54Z</time>
      </trkpt>
      <trkpt lat="41.5696250" lon="-8.7802560">
        <ele>43.8</ele>
        <time>2021-05-17T10:32:55Z</time>
      </trkpt>
      <trkpt lat="41.5696330" lon="-8.7802590">
        <ele>43.8</ele>
        <time>2021-05-17T10:32:56Z</time>
      </trkpt>
      <trkpt lat="41.5696450" lon="-8.7802530">
        <ele>43.8</ele>
        <time>2021-05-17T10:32:57Z</time>
      </trkpt>
      <trkpt lat="41.5696600" lon="-8.7802550">
        <ele>43.9</ele>
        <time>2021-05-17T10:32:58Z</time>
      </trkpt>
      <trkpt lat="41.5696770" lon="-8.7802550">
        <ele>43.9</ele>
        <time>2021-05-17T10:32:59Z</time>
      </trkpt>
      <trkpt lat="41.5696950" lon="-8.7802540">
        <ele>43.9</ele>
        <time>2021-05-17T10:33:00Z</time>
      </trkpt>
      <trkpt lat="41.5697120" lon="-8.7802620">
        <ele>44.0</ele>
        <time>2021-05-17T10:33:01Z</time>
      </trkpt>
      <trkpt lat="41.5697280" lon="-8.7802570">
        <ele>44.0</ele>
        <time>2021-05-17T10:33:02Z</time>
      </trkpt>
      <trkpt lat="41.5697440" lon="-8.7802580">
        <ele>44.0</ele>
        <time>2021-05-17T10:33:03Z</time>
      </trkpt>
      <trkpt lat="41.5697590" lon="-8.7802590">
        <ele>44.0</ele>
        <time>2021-05-17T10:33:04Z</time>
      </trkpt>
      <trkpt lat="41.5697740" lon="-8.7802530">
        <ele>44.0</ele>
        <time>2021-05-17T10:33:05Z</time>
      </trkpt>
      <trkpt lat="41.5697930" lon="-8.7802590">
        <ele>44.1</ele>
        <time>2021-05-17T10:33:06Z</time>
      </trkpt>
      <trkpt lat="41.5698210" lon="-8.7802570">
        <ele>44.1</ele>
        <time>2021-05-17T10:33:07Z</time>
      </trkpt>
      <trkpt lat="41.5698290" lon="-8.7802500">
        <ele>44.1</ele>
        <time>2021-05-17T10:33:08Z</time>
      </trkpt>
      <trkpt lat="41.5698450" lon="-8.7802480">
        <ele>44.1</ele>
        <time>2021-05-17T10:33:09Z</time>
      </trkpt>
      <trkpt lat="41.5698610" lon="-8.7802450">
        <ele>44.1</ele>
        <time>2021-05-17T10:33:10Z</time>
      </trkpt>
      <trkpt lat="41.5698770" lon="-8.7802430">
        <ele>44.2</ele>
        <time>2021-05-17T10:33:11Z</time>
      </trkpt>
      <trkpt lat="41.5698930" lon="-8.7802470">
        <ele>44.2</ele>
        <time>2021-05-17T10:33:12Z</time>
      </trkpt>
      <trkpt lat="41.5699070" lon="-8.7802410">
        <ele>44.2</ele>
        <time>2021-05-17T10:33:13Z</time>
      </trkpt>
      <trkpt lat="41.5699220" lon="-8.7802460">
        <ele>44.2</ele>
        <time>2021-05-17T10:33:14Z</time>
      </trkpt>
      <trkpt lat="41.5699370" lon="-8.7802490">
        <ele>44.2</ele>
        <time>2021-05-17T10:33:15Z</time>
      </trkpt>
      <trkpt lat="41.5699490" lon="-8.7802610">
        <ele>44.2</ele>
        <time>2021-05-17T10:33:16Z</time>
      </trkpt>
      <trkpt lat="41.5699630" lon="-8.7802690">
        <ele>44.2</ele>
        <time>2021-05-17T10:33:17Z</time>
      </trkpt>
      <trkpt lat="41.5699780" lon="-8.7802770">
        <ele>44.2</ele>
        <time>2021-05-17T10:33:18Z</time>
      </trkpt>
      <trkpt lat="41.5699940" lon="-8.7802830">
        <ele>44.2</ele>
        <time>2021-05-17T10:33:19Z</time>
      </trkpt>
      <trkpt lat="41.5700100" lon="-8.7802900">
        <ele>44.2</ele>
        <time>2021-05-17T10:33:20Z</time>
      </trkpt>
      <trkpt lat="41.5700240" lon="-8.7802970">
        <ele>44.2</ele>
        <time>2021-05-17T10:33:21Z</time>
      </trkpt>
      <trkpt lat="41.5700450" lon="-8.7802980">
        <ele>44.2</ele>
        <time>2021-05-17T10:33:22Z</time>
      </trkpt>
      <trkpt lat="41.5700630" lon="-8.7803120">
        <ele>44.2</ele>
        <time>2021-05-17T10:33:23Z</time>
      </trkpt>
      <trkpt lat="41.5700710" lon="-8.7803180">
        <ele>44.2</ele>
        <time>2021-05-17T10:33:24Z</time>
      </trkpt>
      <trkpt lat="41.5700780" lon="-8.7803230">
        <ele>44.2</ele>
        <time>2021-05-17T10:33:25Z</time>
      </trkpt>
      <trkpt lat="41.5700850" lon="-8.7803260">
        <ele>44.2</ele>
        <time>2021-05-17T10:33:26Z</time>
      </trkpt>
      <trkpt lat="41.5700830" lon="-8.7803260">
        <ele>44.2</ele>
        <time>2021-05-17T10:33:27Z</time>
      </trkpt>
      <trkpt lat="41.5700820" lon="-8.7803260">
        <ele>44.2</ele>
        <time>2021-05-17T10:33:28Z</time>
      </trkpt>
      <trkpt lat="41.5700800" lon="-8.7803260">
        <ele>44.2</ele>
        <time>2021-05-17T10:33:29Z</time>
      </trkpt>
      <trkpt lat="41.5700790" lon="-8.7803260">
        <ele>44.2</ele>
        <time>2021-05-17T10:33:30Z</time>
      </trkpt>
      <trkpt lat="41.5700770" lon="-8.7803260">
        <ele>44.2</ele>
        <time>2021-05-17T10:33:31Z</time>
      </trkpt>
      <trkpt lat="41.5700760" lon="-8.7803260">
        <ele>44.2</ele>
        <time>2021-05-17T10:33:32Z</time>
      </trkpt>
      <trkpt lat="41.5700740" lon="-8.7803260">
        <ele>44.2</ele>
        <time>2021-05-17T10:33:33Z</time>
      </trkpt>
      <trkpt lat="41.5700730" lon="-8.7803260">
        <ele>44.2</ele>
        <time>2021-05-17T10:33:34Z</time>
      </trkpt>
      <trkpt lat="41.5700710" lon="-8.7803260">
        <ele>44.2</ele>
        <time>2021-05-17T10:33:35Z</time>
      </trkpt>
      <trkpt lat="41.5700700" lon="-8.7803260">
        <ele>44.2</ele>
        <time>2021-05-17T10:33:36Z</time>
      </trkpt>
      <trkpt lat="41.5700690" lon="-8.7803260">
        <ele>44.2</ele>
        <time>2021-05-17T10:33:37Z</time>
      </trkpt>
      <trkpt lat="41.5700670" lon="-8.7803260">
        <ele>44.2</ele>
        <time>2021-05-17T10:33:38Z</time>
      </trkpt>
      <trkpt lat="41.5700660" lon="-8.7803260">
        <ele>44.2</ele>
        <time>2021-05-17T10:33:39Z</time>
      </trkpt>
      <trkpt lat="41.5700640" lon="-8.7803260">
        <ele>44.2</ele>
        <time>2021-05-17T10:33:40Z</time>
      </trkpt>
      <trkpt lat="41.5700630" lon="-8.7803260">
        <ele>44.2</ele>
        <time>2021-05-17T10:33:41Z</time>
      </trkpt>
      <trkpt lat="41.5700610" lon="-8.7803260">
        <ele>44.2</ele>
        <time>2021-05-17T10:33:42Z</time>
      </trkpt>
      <trkpt lat="41.5700600" lon="-8.7803260">
        <ele>44.2</ele>
        <time>2021-05-17T10:33:43Z</time>
      </trkpt>
      <trkpt lat="41.5700580" lon="-8.7803260">
        <ele>44.2</ele>
        <time>2021-05-17T10:33:44Z</time>
      </trkpt>
      <trkpt lat="41.5700570" lon="-8.7803260">
        <ele>44.2</ele>
        <time>2021-05-17T10:33:45Z</time>
      </trkpt>
      <trkpt lat="41.5700550" lon="-8.7803260">
        <ele>44.2</ele>
        <time>2021-05-17T10:33:46Z</time>
      </trkpt>
      <trkpt lat="41.5700540" lon="-8.7803260">
        <ele>44.2</ele>
        <time>2021-05-17T10:33:47Z</time>
      </trkpt>
      <trkpt lat="41.5700520" lon="-8.7803260">
        <ele>44.2</ele>
        <time>2021-05-17T10:33:48Z</time>
      </trkpt>
      <trkpt lat="41.5700510" lon="-8.7803260">
        <ele>44.2</ele>
        <time>2021-05-17T10:33:49Z</time>
      </trkpt>
      <trkpt lat="41.5700500" lon="-8.7803260">
        <ele>44.2</ele>
        <time>2021-05-17T10:33:50Z</time>
      </trkpt>
      <trkpt lat="41.5700480" lon="-8.7803260">
        <ele>44.2</ele>
        <time>2021-05-17T10:33:51Z</time>
      </trkpt>
      <trkpt lat="41.5700470" lon="-8.7803260">
        <ele>44.2</ele>
        <time>2021-05-17T10:33:52Z</time>
      </trkpt>
      <trkpt lat="41.5700450" lon="-8.7803260">
        <ele>44.1</ele>
        <time>2021-05-17T10:33:53Z</time>
      </trkpt>
      <trkpt lat="41.5700440" lon="-8.7803260">
        <ele>44.1</ele>
        <time>2021-05-17T10:33:54Z</time>
      </trkpt>
      <trkpt lat="41.5700420" lon="-8.7803260">
        <ele>44.1</ele>
        <time>2021-05-17T10:33:55Z</time>
      </trkpt>
      <trkpt lat="41.5700410" lon="-8.7803260">
        <ele>44.1</ele>
        <time>2021-05-17T10:33:56Z</time>
      </trkpt>
      <trkpt lat="41.5700390" lon="-8.7803260">
        <ele>44.1</ele>
        <time>2021-05-17T10:33:57Z</time>
      </trkpt>
      <trkpt lat="41.5700380" lon="-8.7803260">
        <ele>44.1</ele>
        <time>2021-05-17T10:33:58Z</time>
      </trkpt>
      <trkpt lat="41.5700360" lon="-8.7803260">
        <ele>44.1</ele>
        <time>2021-05-17T10:33:59Z</time>
      </trkpt>
      <trkpt lat="41.5700350" lon="-8.7803260">
        <ele>44.1</ele>
        <time>2021-05-17T10:34:00Z</time>
      </trkpt>
      <trkpt lat="41.5700340" lon="-8.7803260">
        <ele>44.1</ele>
        <time>2021-05-17T10:34:01Z</time>
      </trkpt>
      <trkpt lat="41.5700320" lon="-8.7803260">
        <ele>44.1</ele>
        <time>2021-05-17T10:34:02Z</time>
      </trkpt>
      <trkpt lat="41.5700310" lon="-8.7803260">
        <ele>44.1</ele>
        <time>2021-05-17T10:34:03Z</time>
      </trkpt>
      <trkpt lat="41.5700290" lon="-8.7803260">
        <ele>44.1</ele>
        <time>2021-05-17T10:34:04Z</time>
      </trkpt>
      <trkpt lat="41.5700280" lon="-8.7803260">
        <ele>44.1</ele>
        <time>2021-05-17T10:34:05Z</time>
      </trkpt>
      <trkpt lat="41.5700260" lon="-8.7803260">
        <ele>44.1</ele>
        <time>2021-05-17T10:34:06Z</time>
      </trkpt>
      <trkpt lat="41.5700250" lon="-8.7803270">
        <ele>44.1</ele>
        <time>2021-05-17T10:34:07Z</time>
      </trkpt>
      <trkpt lat="41.5700230" lon="-8.7803270">
        <ele>44.1</ele>
        <time>2021-05-17T10:34:08Z</time>
      </trkpt>
      <trkpt lat="41.5700220" lon="-8.7803270">
        <ele>44.1</ele>
        <time>2021-05-17T10:34:09Z</time>
      </trkpt>
      <trkpt lat="41.5700200" lon="-8.7803270">
        <ele>44.1</ele>
        <time>2021-05-17T10:34:10Z</time>
      </trkpt>
      <trkpt lat="41.5700190" lon="-8.7803270">
        <ele>44.1</ele>
        <time>2021-05-17T10:34:11Z</time>
      </trkpt>
      <trkpt lat="41.5700170" lon="-8.7803270">
        <ele>44.1</ele>
        <time>2021-05-17T10:34:12Z</time>
      </trkpt>
      <trkpt lat="41.5700160" lon="-8.7803270">
        <ele>44.1</ele>
        <time>2021-05-17T10:34:13Z</time>
      </trkpt>
      <trkpt lat="41.5700150" lon="-8.7803270">
        <ele>44.1</ele>
        <time>2021-05-17T10:34:14Z</time>
      </trkpt>
      <trkpt lat="41.5700130" lon="-8.7803270">
        <ele>44.1</ele>
        <time>2021-05-17T10:34:15Z</time>
      </trkpt>
      <trkpt lat="41.5700120" lon="-8.7803270">
        <ele>44.1</ele>
        <time>2021-05-17T10:34:16Z</time>
      </trkpt>
      <trkpt lat="41.5700100" lon="-8.7803270">
        <ele>44.1</ele>
        <time>2021-05-17T10:34:17Z</time>
      </trkpt>
      <trkpt lat="41.5700090" lon="-8.7803270">
        <ele>44.1</ele>
        <time>2021-05-17T10:34:18Z</time>
      </trkpt>
      <trkpt lat="41.5700070" lon="-8.7803270">
        <ele>44.1</ele>
        <time>2021-05-17T10:34:19Z</time>
      </trkpt>
      <trkpt lat="41.5700060" lon="-8.7803270">
        <ele>44.1</ele>
        <time>2021-05-17T10:34:20Z</time>
      </trkpt>
      <trkpt lat="41.5700040" lon="-8.7803270">
        <ele>44.1</ele>
        <time>2021-05-17T10:34:21Z</time>
      </trkpt>
      <trkpt lat="41.5700030" lon="-8.7803270">
        <ele>44.1</ele>
        <time>2021-05-17T10:34:22Z</time>
      </trkpt>
      <trkpt lat="41.5700010" lon="-8.7803270">
        <ele>44.1</ele>
        <time>2021-05-17T10:34:23Z</time>
      </trkpt>
      <trkpt lat="41.5700000" lon="-8.7803270">
        <ele>44.1</ele>
        <time>2021-05-17T10:34:24Z</time>
      </trkpt>
      <trkpt lat="41.5699990" lon="-8.7803270">
        <ele>44.1</ele>
        <time>2021-05-17T10:34:25Z</time>
      </trkpt>
      <trkpt lat="41.5699970" lon="-8.7803270">
        <ele>44.1</ele>
        <time>2021-05-17T10:34:26Z</time>
      </trkpt>
      <trkpt lat="41.5699960" lon="-8.7803270">
        <ele>44.1</ele>
        <time>2021-05-17T10:34:27Z</time>
      </trkpt>
      <trkpt lat="41.5699940" lon="-8.7803270">
        <ele>44.1</ele>
        <time>2021-05-17T10:34:28Z</time>
      </trkpt>
      <trkpt lat="41.5699930" lon="-8.7803270">
        <ele>44.1</ele>
        <time>2021-05-17T10:34:29Z</time>
      </trkpt>
      <trkpt lat="41.5699910" lon="-8.7803270">
        <ele>44.1</ele>
        <time>2021-05-17T10:34:30Z</time>
      </trkpt>
      <trkpt lat="41.5699900" lon="-8.7803270">
        <ele>44.1</ele>
        <time>2021-05-17T10:34:31Z</time>
      </trkpt>
      <trkpt lat="41.5699880" lon="-8.7803270">
        <ele>44.1</ele>
        <time>2021-05-17T10:34:32Z</time>
      </trkpt>
      <trkpt lat="41.5699870" lon="-8.7803270">
        <ele>44.1</ele>
        <time>2021-05-17T10:34:33Z</time>
      </trkpt>
      <trkpt lat="41.5699850" lon="-8.7803270">
        <ele>44.1</ele>
        <time>2021-05-17T10:34:34Z</time>
      </trkpt>
      <trkpt lat="41.5699840" lon="-8.7803270">
        <ele>44.1</ele>
        <time>2021-05-17T10:34:35Z</time>
      </trkpt>
      <trkpt lat="41.5699820" lon="-8.7803270">
        <ele>44.1</ele>
        <time>2021-05-17T10:34:36Z</time>
      </trkpt>
      <trkpt lat="41.5699810" lon="-8.7803270">
        <ele>44.1</ele>
        <time>2021-05-17T10:34:37Z</time>
      </trkpt>
      <trkpt lat="41.5699800" lon="-8.7803270">
        <ele>44.1</ele>
        <time>2021-05-17T10:34:38Z</time>
      </trkpt>
      <trkpt lat="41.5699780" lon="-8.7803270">
        <ele>44.1</ele>
        <time>2021-05-17T10:34:39Z</time>
      </trkpt>
      <trkpt lat="41.5699770" lon="-8.7803270">
        <ele>44.1</ele>
        <time>2021-05-17T10:34:40Z</time>
      </trkpt>
      <trkpt lat="41.5699750" lon="-8.7803270">
        <ele>44.1</ele>
        <time>2021-05-17T10:34:41Z</time>
      </trkpt>
      <trkpt lat="41.5699740" lon="-8.7803270">
        <ele>44.1</ele>
        <time>2021-05-17T10:34:42Z</time>
      </trkpt>
      <trkpt lat="41.5699720" lon="-8.7803270">
        <ele>44.1</ele>
        <time>2021-05-17T10:34:43Z</time>
      </trkpt>
      <trkpt lat="41.5699710" lon="-8.7803270">
        <ele>44.1</ele>
        <time>2021-05-17T10:34:44Z</time>
      </trkpt>
      <trkpt lat="41.5699690" lon="-8.7803270">
        <ele>44.1</ele>
        <time>2021-05-17T10:34:45Z</time>
      </trkpt>
      <trkpt lat="41.5699680" lon="-8.7803270">
        <ele>44.1</ele>
        <time>2021-05-17T10:34:46Z</time>
      </trkpt>
      <trkpt lat="41.5699660" lon="-8.7803270">
        <ele>44.1</ele>
        <time>2021-05-17T10:34:47Z</time>
      </trkpt>
      <trkpt lat="41.5699650" lon="-8.7803270">
        <ele>44.1</ele>
        <time>2021-05-17T10:34:48Z</time>
      </trkpt>
      <trkpt lat="41.5699800" lon="-8.7803270">
        <ele>44.0</ele>
        <time>2021-05-17T10:34:49Z</time>
      </trkpt>
      <trkpt lat="41.5699990" lon="-8.7803210">
        <ele>44.0</ele>
        <time>2021-05-17T10:34:50Z</time>
      </trkpt>
      <trkpt lat="41.5700300" lon="-8.7803260">
        <ele>44.0</ele>
        <time>2021-05-17T10:34:51Z</time>
      </trkpt>
      <trkpt lat="41.5700390" lon="-8.7803280">
        <ele>44.0</ele>
        <time>2021-05-17T10:34:52Z</time>
      </trkpt>
      <trkpt lat="41.5700630" lon="-8.7803310">
        <ele>43.9</ele>
        <time>2021-05-17T10:34:53Z</time>
      </trkpt>
      <trkpt lat="41.5700750" lon="-8.7803300">
        <ele>43.9</ele>
        <time>2021-05-17T10:34:54Z</time>
      </trkpt>
      <trkpt lat="41.5700860" lon="-8.7803290">
        <ele>43.9</ele>
        <time>2021-05-17T10:34:55Z</time>
      </trkpt>
      <trkpt lat="41.5701090" lon="-8.7803300">
        <ele>43.8</ele>
        <time>2021-05-17T10:34:56Z</time>
      </trkpt>
      <trkpt lat="41.5701180" lon="-8.7803360">
        <ele>43.8</ele>
        <time>2021-05-17T10:34:57Z</time>
      </trkpt>
      <trkpt lat="41.5701270" lon="-8.7803420">
        <ele>43.8</ele>
        <time>2021-05-17T10:34:58Z</time>
      </trkpt>
      <trkpt lat="41.5701480" lon="-8.7803450">
        <ele>43.8</ele>
        <time>2021-05-17T10:34:59Z</time>
      </trkpt>
      <trkpt lat="41.5701620" lon="-8.7803470">
        <ele>43.8</ele>
        <time>2021-05-17T10:35:00Z</time>
      </trkpt>
      <trkpt lat="41.5701750" lon="-8.7803500">
        <ele>43.7</ele>
        <time>2021-05-17T10:35:01Z</time>
      </trkpt>
      <trkpt lat="41.5701900" lon="-8.7803500">
        <ele>43.7</ele>
        <time>2021-05-17T10:35:02Z</time>
      </trkpt>
      <trkpt lat="41.5702070" lon="-8.7803460">
        <ele>43.7</ele>
        <time>2021-05-17T10:35:03Z</time>
      </trkpt>
      <trkpt lat="41.5702220" lon="-8.7803450">
        <ele>43.7</ele>
        <time>2021-05-17T10:35:04Z</time>
      </trkpt>
      <trkpt lat="41.5702400" lon="-8.7803430">
        <ele>43.6</ele>
        <time>2021-05-17T10:35:05Z</time>
      </trkpt>
      <trkpt lat="41.5702520" lon="-8.7803450">
        <ele>43.6</ele>
        <time>2021-05-17T10:35:06Z</time>
      </trkpt>
      <trkpt lat="41.5702660" lon="-8.7803500">
        <ele>43.6</ele>
        <time>2021-05-17T10:35:07Z</time>
      </trkpt>
      <trkpt lat="41.5702830" lon="-8.7803450">
        <ele>43.6</ele>
        <time>2021-05-17T10:35:08Z</time>
      </trkpt>
      <trkpt lat="41.5702930" lon="-8.7803460">
        <ele>43.5</ele>
        <time>2021-05-17T10:35:09Z</time>
      </trkpt>
      <trkpt lat="41.5702900" lon="-8.7803410">
        <ele>43.5</ele>
        <time>2021-05-17T10:35:10Z</time>
      </trkpt>
      <trkpt lat="41.5702840" lon="-8.7803400">
        <ele>43.5</ele>
        <time>2021-05-17T10:35:11Z</time>
      </trkpt>
      <trkpt lat="41.5702820" lon="-8.7803370">
        <ele>43.5</ele>
        <time>2021-05-17T10:35:12Z</time>
      </trkpt>
      <trkpt lat="41.5702840" lon="-8.7803380">
        <ele>43.5</ele>
        <time>2021-05-17T10:35:13Z</time>
      </trkpt>
      <trkpt lat="41.5702810" lon="-8.7803330">
        <ele>43.5</ele>
        <time>2021-05-17T10:35:14Z</time>
      </trkpt>
      <trkpt lat="41.5702780" lon="-8.7803340">
        <ele>43.5</ele>
        <time>2021-05-17T10:35:15Z</time>
      </trkpt>
      <trkpt lat="41.5702780" lon="-8.7803310">
        <ele>43.5</ele>
        <time>2021-05-17T10:35:16Z</time>
      </trkpt>
      <trkpt lat="41.5702780" lon="-8.7803250">
        <ele>43.5</ele>
        <time>2021-05-17T10:35:17Z</time>
      </trkpt>
      <trkpt lat="41.5702770" lon="-8.7803270">
        <ele>43.5</ele>
        <time>2021-05-17T10:35:18Z</time>
      </trkpt>
      <trkpt lat="41.5702710" lon="-8.7803300">
        <ele>43.5</ele>
        <time>2021-05-17T10:35:19Z</time>
      </trkpt>
      <trkpt lat="41.5702700" lon="-8.7803290">
        <ele>43.5</ele>
        <time>2021-05-17T10:35:20Z</time>
      </trkpt>
      <trkpt lat="41.5702650" lon="-8.7803320">
        <ele>43.5</ele>
        <time>2021-05-17T10:35:21Z</time>
      </trkpt>
      <trkpt lat="41.5702620" lon="-8.7803320">
        <ele>43.5</ele>
        <time>2021-05-17T10:35:22Z</time>
      </trkpt>
      <trkpt lat="41.5702530" lon="-8.7803370">
        <ele>43.4</ele>
        <time>2021-05-17T10:35:23Z</time>
      </trkpt>
      <trkpt lat="41.5702510" lon="-8.7803390">
        <ele>43.4</ele>
        <time>2021-05-17T10:35:24Z</time>
      </trkpt>
      <trkpt lat="41.5702550" lon="-8.7803350">
        <ele>43.4</ele>
        <time>2021-05-17T10:35:25Z</time>
      </trkpt>
      <trkpt lat="41.5702570" lon="-8.7803320">
        <ele>43.4</ele>
        <time>2021-05-17T10:35:26Z</time>
      </trkpt>
      <trkpt lat="41.5702560" lon="-8.7803270">
        <ele>43.4</ele>
        <time>2021-05-17T10:35:27Z</time>
      </trkpt>
      <trkpt lat="41.5702560" lon="-8.7803220">
        <ele>43.4</ele>
        <time>2021-05-17T10:35:28Z</time>
      </trkpt>
      <trkpt lat="41.5702570" lon="-8.7803180">
        <ele>43.4</ele>
        <time>2021-05-17T10:35:29Z</time>
      </trkpt>
      <trkpt lat="41.5702600" lon="-8.7803040">
        <ele>43.4</ele>
        <time>2021-05-17T10:35:30Z</time>
      </trkpt>
      <trkpt lat="41.5702600" lon="-8.7803040">
        <ele>43.4</ele>
        <time>2021-05-17T10:35:31Z</time>
      </trkpt>
      <trkpt lat="41.5702610" lon="-8.7803050">
        <ele>43.4</ele>
        <time>2021-05-17T10:35:32Z</time>
      </trkpt>
      <trkpt lat="41.5702610" lon="-8.7803100">
        <ele>43.4</ele>
        <time>2021-05-17T10:35:33Z</time>
      </trkpt>
      <trkpt lat="41.5702640" lon="-8.7803120">
        <ele>43.4</ele>
        <time>2021-05-17T10:35:34Z</time>
      </trkpt>
      <trkpt lat="41.5702700" lon="-8.7803080">
        <ele>43.4</ele>
        <time>2021-05-17T10:35:35Z</time>
      </trkpt>
      <trkpt lat="41.5702780" lon="-8.7803040">
        <ele>43.3</ele>
        <time>2021-05-17T10:35:36Z</time>
      </trkpt>
      <trkpt lat="41.5702870" lon="-8.7803060">
        <ele>43.3</ele>
        <time>2021-05-17T10:35:37Z</time>
      </trkpt>
      <trkpt lat="41.5703050" lon="-8.7803170">
        <ele>43.3</ele>
        <time>2021-05-17T10:35:38Z</time>
      </trkpt>
      <trkpt lat="41.5703130" lon="-8.7803160">
        <ele>43.3</ele>
        <time>2021-05-17T10:35:39Z</time>
      </trkpt>
      <trkpt lat="41.5703330" lon="-8.7803170">
        <ele>43.2</ele>
        <time>2021-05-17T10:35:40Z</time>
      </trkpt>
      <trkpt lat="41.5703410" lon="-8.7803180">
        <ele>43.2</ele>
        <time>2021-05-17T10:35:41Z</time>
      </trkpt>
      <trkpt lat="41.5703500" lon="-8.7803180">
        <ele>43.2</ele>
        <time>2021-05-17T10:35:42Z</time>
      </trkpt>
      <trkpt lat="41.5703640" lon="-8.7803190">
        <ele>43.1</ele>
        <time>2021-05-17T10:35:43Z</time>
      </trkpt>
      <trkpt lat="41.5703800" lon="-8.7803240">
        <ele>43.1</ele>
        <time>2021-05-17T10:35:44Z</time>
      </trkpt>
      <trkpt lat="41.5703870" lon="-8.7803250">
        <ele>43.1</ele>
        <time>2021-05-17T10:35:45Z</time>
      </trkpt>
      <trkpt lat="41.5704050" lon="-8.7803210">
        <ele>43.0</ele>
        <time>2021-05-17T10:35:46Z</time>
      </trkpt>
      <trkpt lat="41.5704120" lon="-8.7803330">
        <ele>43.0</ele>
        <time>2021-05-17T10:35:47Z</time>
      </trkpt>
      <trkpt lat="41.5704300" lon="-8.7803360">
        <ele>42.9</ele>
        <time>2021-05-17T10:35:48Z</time>
      </trkpt>
      <trkpt lat="41.5704400" lon="-8.7803390">
        <ele>42.9</ele>
        <time>2021-05-17T10:35:49Z</time>
      </trkpt>
      <trkpt lat="41.5704570" lon="-8.7803430">
        <ele>42.9</ele>
        <time>2021-05-17T10:35:50Z</time>
      </trkpt>
      <trkpt lat="41.5704640" lon="-8.7803460">
        <ele>42.8</ele>
        <time>2021-05-17T10:35:51Z</time>
      </trkpt>
      <trkpt lat="41.5704710" lon="-8.7803480">
        <ele>42.8</ele>
        <time>2021-05-17T10:35:52Z</time>
      </trkpt>
      <trkpt lat="41.5704780" lon="-8.7803510">
        <ele>42.8</ele>
        <time>2021-05-17T10:35:53Z</time>
      </trkpt>
      <trkpt lat="41.5705060" lon="-8.7803610">
        <ele>42.7</ele>
        <time>2021-05-17T10:35:54Z</time>
      </trkpt>
      <trkpt lat="41.5705130" lon="-8.7803660">
        <ele>42.6</ele>
        <time>2021-05-17T10:35:55Z</time>
      </trkpt>
      <trkpt lat="41.5705420" lon="-8.7803760">
        <ele>42.5</ele>
        <time>2021-05-17T10:35:56Z</time>
      </trkpt>
      <trkpt lat="41.5705520" lon="-8.7803770">
        <ele>42.5</ele>
        <time>2021-05-17T10:35:57Z</time>
      </trkpt>
      <trkpt lat="41.5705820" lon="-8.7803920">
        <ele>42.4</ele>
        <time>2021-05-17T10:35:58Z</time>
      </trkpt>
      <trkpt lat="41.5705910" lon="-8.7804010">
        <ele>42.4</ele>
        <time>2021-05-17T10:35:59Z</time>
      </trkpt>
      <trkpt lat="41.5706050" lon="-8.7804150">
        <ele>42.3</ele>
        <time>2021-05-17T10:36:00Z</time>
      </trkpt>
      <trkpt lat="41.5706210" lon="-8.7804160">
        <ele>42.2</ele>
        <time>2021-05-17T10:36:01Z</time>
      </trkpt>
      <trkpt lat="41.5706380" lon="-8.7804160">
        <ele>42.2</ele>
        <time>2021-05-17T10:36:02Z</time>
      </trkpt>
      <trkpt lat="41.5706540" lon="-8.7804140">
        <ele>42.1</ele>
        <time>2021-05-17T10:36:03Z</time>
      </trkpt>
      <trkpt lat="41.5706690" lon="-8.7804160">
        <ele>42.1</ele>
        <time>2021-05-17T10:36:04Z</time>
      </trkpt>
      <trkpt lat="41.5706830" lon="-8.7804260">
        <ele>42.0</ele>
        <time>2021-05-17T10:36:05Z</time>
      </trkpt>
      <trkpt lat="41.5706960" lon="-8.7804310">
        <ele>42.0</ele>
        <time>2021-05-17T10:36:06Z</time>
      </trkpt>
      <trkpt lat="41.5707090" lon="-8.7804360">
        <ele>42.0</ele>
        <time>2021-05-17T10:36:07Z</time>
      </trkpt>
      <trkpt lat="41.5707330" lon="-8.7804420">
        <ele>41.9</ele>
        <time>2021-05-17T10:36:08Z</time>
      </trkpt>
      <trkpt lat="41.5707420" lon="-8.7804430">
        <ele>41.9</ele>
        <time>2021-05-17T10:36:09Z</time>
      </trkpt>
      <trkpt lat="41.5707520" lon="-8.7804430">
        <ele>41.8</ele>
        <time>2021-05-17T10:36:10Z</time>
      </trkpt>
      <trkpt lat="41.5707670" lon="-8.7804400">
        <ele>41.8</ele>
        <time>2021-05-17T10:36:11Z</time>
      </trkpt>
      <trkpt lat="41.5707820" lon="-8.7804420">
        <ele>41.8</ele>
        <time>2021-05-17T10:36:12Z</time>
      </trkpt>
      <trkpt lat="41.5708040" lon="-8.7804360">
        <ele>41.7</ele>
        <time>2021-05-17T10:36:13Z</time>
      </trkpt>
      <trkpt lat="41.5708120" lon="-8.7804380">
        <ele>41.7</ele>
        <time>2021-05-17T10:36:14Z</time>
      </trkpt>
      <trkpt lat="41.5708200" lon="-8.7804390">
        <ele>41.7</ele>
        <time>2021-05-17T10:36:15Z</time>
      </trkpt>
      <trkpt lat="41.5708350" lon="-8.7804400">
        <ele>41.7</ele>
        <time>2021-05-17T10:36:16Z</time>
      </trkpt>
      <trkpt lat="41.5708490" lon="-8.7804360">
        <ele>41.7</ele>
        <time>2021-05-17T10:36:17Z</time>
      </trkpt>
      <trkpt lat="41.5708630" lon="-8.7804350">
        <ele>41.7</ele>
        <time>2021-05-17T10:36:18Z</time>
      </trkpt>
      <trkpt lat="41.5708770" lon="-8.7804410">
        <ele>41.7</ele>
        <time>2021-05-17T10:36:19Z</time>
      </trkpt>
      <trkpt lat="41.5708920" lon="-8.7804370">
        <ele>41.7</ele>
        <time>2021-05-17T10:36:20Z</time>
      </trkpt>
      <trkpt lat="41.5709080" lon="-8.7804390">
        <ele>41.6</ele>
        <time>2021-05-17T10:36:21Z</time>
      </trkpt>
      <trkpt lat="41.5709240" lon="-8.7804360">
        <ele>41.6</ele>
        <time>2021-05-17T10:36:22Z</time>
      </trkpt>
      <trkpt lat="41.5709410" lon="-8.7804370">
        <ele>41.6</ele>
        <time>2021-05-17T10:36:23Z</time>
      </trkpt>
      <trkpt lat="41.5709560" lon="-8.7804380">
        <ele>41.6</ele>
        <time>2021-05-17T10:36:24Z</time>
      </trkpt>
      <trkpt lat="41.5709720" lon="-8.7804390">
        <ele>41.6</ele>
        <time>2021-05-17T10:36:25Z</time>
      </trkpt>
      <trkpt lat="41.5709960" lon="-8.7804440">
        <ele>41.6</ele>
        <time>2021-05-17T10:36:26Z</time>
      </trkpt>
      <trkpt lat="41.5710050" lon="-8.7804430">
        <ele>41.6</ele>
        <time>2021-05-17T10:36:27Z</time>
      </trkpt>
      <trkpt lat="41.5710150" lon="-8.7804430">
        <ele>41.6</ele>
        <time>2021-05-17T10:36:28Z</time>
      </trkpt>
      <trkpt lat="41.5710290" lon="-8.7804430">
        <ele>41.6</ele>
        <time>2021-05-17T10:36:29Z</time>
      </trkpt>
      <trkpt lat="41.5710440" lon="-8.7804390">
        <ele>41.6</ele>
        <time>2021-05-17T10:36:30Z</time>
      </trkpt>
      <trkpt lat="41.5710580" lon="-8.7804420">
        <ele>41.5</ele>
        <time>2021-05-17T10:36:31Z</time>
      </trkpt>
      <trkpt lat="41.5710740" lon="-8.7804420">
        <ele>41.5</ele>
        <time>2021-05-17T10:36:32Z</time>
      </trkpt>
      <trkpt lat="41.5710890" lon="-8.7804370">
        <ele>41.5</ele>
        <time>2021-05-17T10:36:33Z</time>
      </trkpt>
      <trkpt lat="41.5711050" lon="-8.7804380">
        <ele>41.5</ele>
        <time>2021-05-17T10:36:34Z</time>
      </trkpt>
      <trkpt lat="41.5711200" lon="-8.7804350">
        <ele>41.5</ele>
        <time>2021-05-17T10:36:35Z</time>
      </trkpt>
      <trkpt lat="41.5711350" lon="-8.7804360">
        <ele>41.5</ele>
        <time>2021-05-17T10:36:36Z</time>
      </trkpt>
      <trkpt lat="41.5711520" lon="-8.7804320">
        <ele>41.5</ele>
        <time>2021-05-17T10:36:37Z</time>
      </trkpt>
      <trkpt lat="41.5711680" lon="-8.7804350">
        <ele>41.5</ele>
        <time>2021-05-17T10:36:38Z</time>
      </trkpt>
      <trkpt lat="41.5711840" lon="-8.7804350">
        <ele>41.5</ele>
        <time>2021-05-17T10:36:39Z</time>
      </trkpt>
      <trkpt lat="41.5712000" lon="-8.7804290">
        <ele>41.6</ele>
        <time>2021-05-17T10:36:40Z</time>
      </trkpt>
      <trkpt lat="41.5712140" lon="-8.7804310">
        <ele>41.6</ele>
        <time>2021-05-17T10:36:41Z</time>
      </trkpt>
      <trkpt lat="41.5712300" lon="-8.7804270">
        <ele>41.6</ele>
        <time>2021-05-17T10:36:42Z</time>
      </trkpt>
      <trkpt lat="41.5712440" lon="-8.7804260">
        <ele>41.6</ele>
        <time>2021-05-17T10:36:43Z</time>
      </trkpt>
      <trkpt lat="41.5712580" lon="-8.7804320">
        <ele>41.6</ele>
        <time>2021-05-17T10:36:44Z</time>
      </trkpt>
      <trkpt lat="41.5712750" lon="-8.7804390">
        <ele>41.6</ele>
        <time>2021-05-17T10:36:45Z</time>
      </trkpt>
      <trkpt lat="41.5712900" lon="-8.7804430">
        <ele>41.7</ele>
        <time>2021-05-17T10:36:46Z</time>
      </trkpt>
      <trkpt lat="41.5713060" lon="-8.7804540">
        <ele>41.7</ele>
        <time>2021-05-17T10:36:47Z</time>
      </trkpt>
      <trkpt lat="41.5713210" lon="-8.7804560">
        <ele>41.7</ele>
        <time>2021-05-17T10:36:48Z</time>
      </trkpt>
      <trkpt lat="41.5713370" lon="-8.7804590">
        <ele>41.7</ele>
        <time>2021-05-17T10:36:49Z</time>
      </trkpt>
      <trkpt lat="41.5713520" lon="-8.7804670">
        <ele>41.7</ele>
        <time>2021-05-17T10:36:50Z</time>
      </trkpt>
      <trkpt lat="41.5713680" lon="-8.7804630">
        <ele>41.7</ele>
        <time>2021-05-17T10:36:51Z</time>
      </trkpt>
      <trkpt lat="41.5713820" lon="-8.7804670">
        <ele>41.8</ele>
        <time>2021-05-17T10:36:52Z</time>
      </trkpt>
      <trkpt lat="41.5714080" lon="-8.7804810">
        <ele>41.8</ele>
        <time>2021-05-17T10:36:53Z</time>
      </trkpt>
      <trkpt lat="41.5714200" lon="-8.7804890">
        <ele>41.8</ele>
        <time>2021-05-17T10:36:54Z</time>
      </trkpt>
      <trkpt lat="41.5714320" lon="-8.7805010">
        <ele>41.8</ele>
        <time>2021-05-17T10:36:55Z</time>
      </trkpt>
      <trkpt lat="41.5714360" lon="-8.7805090">
        <ele>41.9</ele>
        <time>2021-05-17T10:36:56Z</time>
      </trkpt>
      <trkpt lat="41.5714410" lon="-8.7805160">
        <ele>41.9</ele>
        <time>2021-05-17T10:36:57Z</time>
      </trkpt>
      <trkpt lat="41.5714450" lon="-8.7805240">
        <ele>41.9</ele>
        <time>2021-05-17T10:36:58Z</time>
      </trkpt>
      <trkpt lat="41.5714490" lon="-8.7805240">
        <ele>41.9</ele>
        <time>2021-05-17T10:36:59Z</time>
      </trkpt>
      <trkpt lat="41.5714540" lon="-8.7805270">
        <ele>41.9</ele>
        <time>2021-05-17T10:37:00Z</time>
      </trkpt>
      <trkpt lat="41.5714660" lon="-8.7805330">
        <ele>42.0</ele>
        <time>2021-05-17T10:37:01Z</time>
      </trkpt>
      <trkpt lat="41.5714710" lon="-8.7805350">
        <ele>42.0</ele>
        <time>2021-05-17T10:37:02Z</time>
      </trkpt>
      <trkpt lat="41.5714790" lon="-8.7805380">
        <ele>42.0</ele>
        <time>2021-05-17T10:37:03Z</time>
      </trkpt>
      <trkpt lat="41.5714960" lon="-8.7805480">
        <ele>42.0</ele>
        <time>2021-05-17T10:37:04Z</time>
      </trkpt>
      <trkpt lat="41.5715050" lon="-8.7805540">
        <ele>42.1</ele>
        <time>2021-05-17T10:37:05Z</time>
      </trkpt>
      <trkpt lat="41.5715130" lon="-8.7805590">
        <ele>42.1</ele>
        <time>2021-05-17T10:37:06Z</time>
      </trkpt>
      <trkpt lat="41.5715260" lon="-8.7805670">
        <ele>42.1</ele>
        <time>2021-05-17T10:37:07Z</time>
      </trkpt>
      <trkpt lat="41.5715400" lon="-8.7805770">
        <ele>42.2</ele>
        <time>2021-05-17T10:37:08Z</time>
      </trkpt>
      <trkpt lat="41.5715520" lon="-8.7805890">
        <ele>42.2</ele>
        <time>2021-05-17T10:37:09Z</time>
      </trkpt>
      <trkpt lat="41.5715630" lon="-8.7805970">
        <ele>42.3</ele>
        <time>2021-05-17T10:37:10Z</time>
      </trkpt>
      <trkpt lat="41.5715710" lon="-8.7806100">
        <ele>42.3</ele>
        <time>2021-05-17T10:37:11Z</time>
      </trkpt>
      <trkpt lat="41.5715840" lon="-8.7806210">
        <ele>42.4</ele>
        <time>2021-05-17T10:37:12Z</time>
      </trkpt>
      <trkpt lat="41.5715900" lon="-8.7806250">
        <ele>42.4</ele>
        <time>2021-05-17T10:37:13Z</time>
      </trkpt>
      <trkpt lat="41.5716030" lon="-8.7806340">
        <ele>42.5</ele>
        <time>2021-05-17T10:37:15Z</time>
      </trkpt>
      <trkpt lat="41.5716100" lon="-8.7806430">
        <ele>42.5</ele>
        <time>2021-05-17T10:37:16Z</time>
      </trkpt>
      <trkpt lat="41.5716180" lon="-8.7806530">
        <ele>42.6</ele>
        <time>2021-05-17T10:37:17Z</time>
      </trkpt>
      <trkpt lat="41.5716330" lon="-8.7806650">
        <ele>42.8</ele>
        <time>2021-05-17T10:37:18Z</time>
      </trkpt>
      <trkpt lat="41.5716440" lon="-8.7806770">
        <ele>42.9</ele>
        <time>2021-05-17T10:37:19Z</time>
      </trkpt>
      <trkpt lat="41.5716600" lon="-8.7806870">
        <ele>43.0</ele>
        <time>2021-05-17T10:37:20Z</time>
      </trkpt>
      <trkpt lat="41.5716740" lon="-8.7807020">
        <ele>43.2</ele>
        <time>2021-05-17T10:37:21Z</time>
      </trkpt>
      <trkpt lat="41.5716850" lon="-8.7807190">
        <ele>43.3</ele>
        <time>2021-05-17T10:37:22Z</time>
      </trkpt>
      <trkpt lat="41.5716960" lon="-8.7807350">
        <ele>43.4</ele>
        <time>2021-05-17T10:37:23Z</time>
      </trkpt>
      <trkpt lat="41.5717100" lon="-8.7807430">
        <ele>43.6</ele>
        <time>2021-05-17T10:37:24Z</time>
      </trkpt>
      <trkpt lat="41.5717240" lon="-8.7807530">
        <ele>43.7</ele>
        <time>2021-05-17T10:37:25Z</time>
      </trkpt>
      <trkpt lat="41.5717360" lon="-8.7807640">
        <ele>43.8</ele>
        <time>2021-05-17T10:37:26Z</time>
      </trkpt>
      <trkpt lat="41.5717550" lon="-8.7807720">
        <ele>44.0</ele>
        <time>2021-05-17T10:37:27Z</time>
      </trkpt>
      <trkpt lat="41.5717650" lon="-8.7807770">
        <ele>44.0</ele>
        <time>2021-05-17T10:37:28Z</time>
      </trkpt>
      <trkpt lat="41.5717740" lon="-8.7807810">
        <ele>44.1</ele>
        <time>2021-05-17T10:37:29Z</time>
      </trkpt>
      <trkpt lat="41.5717840" lon="-8.7807970">
        <ele>44.2</ele>
        <time>2021-05-17T10:37:30Z</time>
      </trkpt>
      <trkpt lat="41.5717970" lon="-8.7808090">
        <ele>44.4</ele>
        <time>2021-05-17T10:37:31Z</time>
      </trkpt>
      <trkpt lat="41.5718090" lon="-8.7808210">
        <ele>44.5</ele>
        <time>2021-05-17T10:37:32Z</time>
      </trkpt>
      <trkpt lat="41.5718220" lon="-8.7808270">
        <ele>44.6</ele>
        <time>2021-05-17T10:37:33Z</time>
      </trkpt>
      <trkpt lat="41.5718350" lon="-8.7808410">
        <ele>44.7</ele>
        <time>2021-05-17T10:37:34Z</time>
      </trkpt>
      <trkpt lat="41.5718480" lon="-8.7808490">
        <ele>44.8</ele>
        <time>2021-05-17T10:37:35Z</time>
      </trkpt>
      <trkpt lat="41.5718570" lon="-8.7808640">
        <ele>44.9</ele>
        <time>2021-05-17T10:37:36Z</time>
      </trkpt>
      <trkpt lat="41.5718710" lon="-8.7808710">
        <ele>45.0</ele>
        <time>2021-05-17T10:37:37Z</time>
      </trkpt>
      <trkpt lat="41.5718840" lon="-8.7808790">
        <ele>45.1</ele>
        <time>2021-05-17T10:37:38Z</time>
      </trkpt>
      <trkpt lat="41.5718980" lon="-8.7808900">
        <ele>45.2</ele>
        <time>2021-05-17T10:37:39Z</time>
      </trkpt>
      <trkpt lat="41.5719090" lon="-8.7808980">
        <ele>45.3</ele>
        <time>2021-05-17T10:37:40Z</time>
      </trkpt>
      <trkpt lat="41.5719210" lon="-8.7809120">
        <ele>45.4</ele>
        <time>2021-05-17T10:37:41Z</time>
      </trkpt>
      <trkpt lat="41.5719340" lon="-8.7809190">
        <ele>45.5</ele>
        <time>2021-05-17T10:37:42Z</time>
      </trkpt>
      <trkpt lat="41.5719450" lon="-8.7809310">
        <ele>45.6</ele>
        <time>2021-05-17T10:37:43Z</time>
      </trkpt>
      <trkpt lat="41.5719540" lon="-8.7809450">
        <ele>45.7</ele>
        <time>2021-05-17T10:37:44Z</time>
      </trkpt>
      <trkpt lat="41.5719680" lon="-8.7809550">
        <ele>45.9</ele>
        <time>2021-05-17T10:37:45Z</time>
      </trkpt>
      <trkpt lat="41.5719760" lon="-8.7809680">
        <ele>46.0</ele>
        <time>2021-05-17T10:37:46Z</time>
      </trkpt>
      <trkpt lat="41.5719890" lon="-8.7809770">
        <ele>46.1</ele>
        <time>2021-05-17T10:37:47Z</time>
      </trkpt>
      <trkpt lat="41.5720050" lon="-8.7809970">
        <ele>46.2</ele>
        <time>2021-05-17T10:37:48Z</time>
      </trkpt>
      <trkpt lat="41.5720130" lon="-8.7810020">
        <ele>46.3</ele>
        <time>2021-05-17T10:37:49Z</time>
      </trkpt>
      <trkpt lat="41.5720200" lon="-8.7810080">
        <ele>46.4</ele>
        <time>2021-05-17T10:37:50Z</time>
      </trkpt>
      <trkpt lat="41.5720390" lon="-8.7810210">
        <ele>46.5</ele>
        <time>2021-05-17T10:37:51Z</time>
      </trkpt>
      <trkpt lat="41.5720440" lon="-8.7810300">
        <ele>46.6</ele>
        <time>2021-05-17T10:37:52Z</time>
      </trkpt>
      <trkpt lat="41.5720500" lon="-8.7810380">
        <ele>46.7</ele>
        <time>2021-05-17T10:37:53Z</time>
      </trkpt>
      <trkpt lat="41.5720680" lon="-8.7810520">
        <ele>46.8</ele>
        <time>2021-05-17T10:37:54Z</time>
      </trkpt>
      <trkpt lat="41.5720760" lon="-8.7810590">
        <ele>46.9</ele>
        <time>2021-05-17T10:37:55Z</time>
      </trkpt>
      <trkpt lat="41.5720830" lon="-8.7810660">
        <ele>47.0</ele>
        <time>2021-05-17T10:37:56Z</time>
      </trkpt>
      <trkpt lat="41.5720960" lon="-8.7810750">
        <ele>47.1</ele>
        <time>2021-05-17T10:37:57Z</time>
      </trkpt>
      <trkpt lat="41.5721090" lon="-8.7810820">
        <ele>47.2</ele>
        <time>2021-05-17T10:37:58Z</time>
      </trkpt>
      <trkpt lat="41.5721200" lon="-8.7810930">
        <ele>47.3</ele>
        <time>2021-05-17T10:37:59Z</time>
      </trkpt>
      <trkpt lat="41.5721370" lon="-8.7811010">
        <ele>47.4</ele>
        <time>2021-05-17T10:38:00Z</time>
      </trkpt>
      <trkpt lat="41.5721500" lon="-8.7811110">
        <ele>47.5</ele>
        <time>2021-05-17T10:38:01Z</time>
      </trkpt>
      <trkpt lat="41.5721650" lon="-8.7811200">
        <ele>47.7</ele>
        <time>2021-05-17T10:38:02Z</time>
      </trkpt>
      <trkpt lat="41.5721840" lon="-8.7811350">
        <ele>47.8</ele>
        <time>2021-05-17T10:38:03Z</time>
      </trkpt>
      <trkpt lat="41.5721910" lon="-8.7811410">
        <ele>47.9</ele>
        <time>2021-05-17T10:38:04Z</time>
      </trkpt>
      <trkpt lat="41.5721980" lon="-8.7811460">
        <ele>48.0</ele>
        <time>2021-05-17T10:38:05Z</time>
      </trkpt>
      <trkpt lat="41.5722050" lon="-8.7811490">
        <ele>48.0</ele>
        <time>2021-05-17T10:38:06Z</time>
      </trkpt>
      <trkpt lat="41.5722150" lon="-8.7811570">
        <ele>48.1</ele>
        <time>2021-05-17T10:38:07Z</time>
      </trkpt>
      <trkpt lat="41.5722250" lon="-8.7811640">
        <ele>48.2</ele>
        <time>2021-05-17T10:38:08Z</time>
      </trkpt>
      <trkpt lat="41.5722450" lon="-8.7811770">
        <ele>48.4</ele>
        <time>2021-05-17T10:38:09Z</time>
      </trkpt>
      <trkpt lat="41.5722550" lon="-8.7811830">
        <ele>48.5</ele>
        <time>2021-05-17T10:38:10Z</time>
      </trkpt>
      <trkpt lat="41.5722640" lon="-8.7811880">
        <ele>48.5</ele>
        <time>2021-05-17T10:38:11Z</time>
      </trkpt>
      <trkpt lat="41.5722790" lon="-8.7811940">
        <ele>48.6</ele>
        <time>2021-05-17T10:38:12Z</time>
      </trkpt>
      <trkpt lat="41.5722920" lon="-8.7812040">
        <ele>48.8</ele>
        <time>2021-05-17T10:38:13Z</time>
      </trkpt>
      <trkpt lat="41.5723020" lon="-8.7812180">
        <ele>48.9</ele>
        <time>2021-05-17T10:38:14Z</time>
      </trkpt>
      <trkpt lat="41.5723150" lon="-8.7812270">
        <ele>49.0</ele>
        <time>2021-05-17T10:38:15Z</time>
      </trkpt>
      <trkpt lat="41.5723300" lon="-8.7812390">
        <ele>49.1</ele>
        <time>2021-05-17T10:38:16Z</time>
      </trkpt>
      <trkpt lat="41.5723420" lon="-8.7812490">
        <ele>49.2</ele>
        <time>2021-05-17T10:38:17Z</time>
      </trkpt>
      <trkpt lat="41.5723500" lon="-8.7812640">
        <ele>49.3</ele>
        <time>2021-05-17T10:38:18Z</time>
      </trkpt>
      <trkpt lat="41.5723580" lon="-8.7812820">
        <ele>49.4</ele>
        <time>2021-05-17T10:38:19Z</time>
      </trkpt>
      <trkpt lat="41.5723710" lon="-8.7812940">
        <ele>49.5</ele>
        <time>2021-05-17T10:38:20Z</time>
      </trkpt>
      <trkpt lat="41.5723840" lon="-8.7813030">
        <ele>49.6</ele>
        <time>2021-05-17T10:38:21Z</time>
      </trkpt>
      <trkpt lat="41.5723950" lon="-8.7813160">
        <ele>49.6</ele>
        <time>2021-05-17T10:38:22Z</time>
      </trkpt>
      <trkpt lat="41.5724150" lon="-8.7813180">
        <ele>49.6</ele>
        <time>2021-05-17T10:38:23Z</time>
      </trkpt>
      <trkpt lat="41.5724270" lon="-8.7813310">
        <ele>49.7</ele>
        <time>2021-05-17T10:38:24Z</time>
      </trkpt>
      <trkpt lat="41.5724430" lon="-8.7813370">
        <ele>49.7</ele>
        <time>2021-05-17T10:38:25Z</time>
      </trkpt>
      <trkpt lat="41.5724600" lon="-8.7813420">
        <ele>49.8</ele>
        <time>2021-05-17T10:38:26Z</time>
      </trkpt>
      <trkpt lat="41.5724680" lon="-8.7813600">
        <ele>49.8</ele>
        <time>2021-05-17T10:38:27Z</time>
      </trkpt>
      <trkpt lat="41.5724780" lon="-8.7813720">
        <ele>49.9</ele>
        <time>2021-05-17T10:38:28Z</time>
      </trkpt>
      <trkpt lat="41.5724880" lon="-8.7813890">
        <ele>49.9</ele>
        <time>2021-05-17T10:38:29Z</time>
      </trkpt>
      <trkpt lat="41.5724980" lon="-8.7814040">
        <ele>50.0</ele>
        <time>2021-05-17T10:38:30Z</time>
      </trkpt>
      <trkpt lat="41.5725110" lon="-8.7814110">
        <ele>50.0</ele>
        <time>2021-05-17T10:38:31Z</time>
      </trkpt>
      <trkpt lat="41.5725250" lon="-8.7814160">
        <ele>50.1</ele>
        <time>2021-05-17T10:38:32Z</time>
      </trkpt>
      <trkpt lat="41.5725340" lon="-8.7814320">
        <ele>50.1</ele>
        <time>2021-05-17T10:38:33Z</time>
      </trkpt>
      <trkpt lat="41.5725430" lon="-8.7814470">
        <ele>50.2</ele>
        <time>2021-05-17T10:38:34Z</time>
      </trkpt>
      <trkpt lat="41.5725530" lon="-8.7814580">
        <ele>50.2</ele>
        <time>2021-05-17T10:38:35Z</time>
      </trkpt>
      <trkpt lat="41.5725630" lon="-8.7814710">
        <ele>50.3</ele>
        <time>2021-05-17T10:38:36Z</time>
      </trkpt>
      <trkpt lat="41.5725760" lon="-8.7814800">
        <ele>50.3</ele>
        <time>2021-05-17T10:38:37Z</time>
      </trkpt>
      <trkpt lat="41.5725890" lon="-8.7814880">
        <ele>50.4</ele>
        <time>2021-05-17T10:38:38Z</time>
      </trkpt>
      <trkpt lat="41.5726020" lon="-8.7814950">
        <ele>50.4</ele>
        <time>2021-05-17T10:38:39Z</time>
      </trkpt>
      <trkpt lat="41.5726150" lon="-8.7815020">
        <ele>50.5</ele>
        <time>2021-05-17T10:38:40Z</time>
      </trkpt>
      <trkpt lat="41.5726280" lon="-8.7815110">
        <ele>50.5</ele>
        <time>2021-05-17T10:38:41Z</time>
      </trkpt>
      <trkpt lat="41.5726460" lon="-8.7815050">
        <ele>50.6</ele>
        <time>2021-05-17T10:38:42Z</time>
      </trkpt>
      <trkpt lat="41.5726580" lon="-8.7815110">
        <ele>50.6</ele>
        <time>2021-05-17T10:38:43Z</time>
      </trkpt>
      <trkpt lat="41.5726780" lon="-8.7815200">
        <ele>50.7</ele>
        <time>2021-05-17T10:38:44Z</time>
      </trkpt>
      <trkpt lat="41.5726870" lon="-8.7815230">
        <ele>50.7</ele>
        <time>2021-05-17T10:38:45Z</time>
      </trkpt>
      <trkpt lat="41.5726950" lon="-8.7815270">
        <ele>50.8</ele>
        <time>2021-05-17T10:38:46Z</time>
      </trkpt>
      <trkpt lat="41.5727070" lon="-8.7815340">
        <ele>50.8</ele>
        <time>2021-05-17T10:38:47Z</time>
      </trkpt>
      <trkpt lat="41.5727170" lon="-8.7815370">
        <ele>50.9</ele>
        <time>2021-05-17T10:38:48Z</time>
      </trkpt>
      <trkpt lat="41.5727300" lon="-8.7815400">
        <ele>50.9</ele>
        <time>2021-05-17T10:38:49Z</time>
      </trkpt>
      <trkpt lat="41.5727500" lon="-8.7815490">
        <ele>51.0</ele>
        <time>2021-05-17T10:38:50Z</time>
      </trkpt>
      <trkpt lat="41.5727590" lon="-8.7815520">
        <ele>51.0</ele>
        <time>2021-05-17T10:38:51Z</time>
      </trkpt>
      <trkpt lat="41.5727670" lon="-8.7815560">
        <ele>51.1</ele>
        <time>2021-05-17T10:38:52Z</time>
      </trkpt>
      <trkpt lat="41.5727880" lon="-8.7815650">
        <ele>51.2</ele>
        <time>2021-05-17T10:38:53Z</time>
      </trkpt>
      <trkpt lat="41.5727980" lon="-8.7815670">
        <ele>51.2</ele>
        <time>2021-05-17T10:38:54Z</time>
      </trkpt>
      <trkpt lat="41.5728070" lon="-8.7815690">
        <ele>51.2</ele>
        <time>2021-05-17T10:38:55Z</time>
      </trkpt>
      <trkpt lat="41.5728200" lon="-8.7815810">
        <ele>51.3</ele>
        <time>2021-05-17T10:38:56Z</time>
      </trkpt>
      <trkpt lat="41.5728320" lon="-8.7815910">
        <ele>51.3</ele>
        <time>2021-05-17T10:38:57Z</time>
      </trkpt>
      <trkpt lat="41.5728470" lon="-8.7815950">
        <ele>51.4</ele>
        <time>2021-05-17T10:38:58Z</time>
      </trkpt>
      <trkpt lat="41.5728630" lon="-8.7815920">
        <ele>51.5</ele>
        <time>2021-05-17T10:38:59Z</time>
      </trkpt>
      <trkpt lat="41.5728780" lon="-8.7815970">
        <ele>51.5</ele>
        <time>2021-05-17T10:39:00Z</time>
      </trkpt>
      <trkpt lat="41.5728920" lon="-8.7815990">
        <ele>51.6</ele>
        <time>2021-05-17T10:39:01Z</time>
      </trkpt>
      <trkpt lat="41.5729060" lon="-8.7816030">
        <ele>51.6</ele>
        <time>2021-05-17T10:39:02Z</time>
      </trkpt>
      <trkpt lat="41.5729200" lon="-8.7816080">
        <ele>51.7</ele>
        <time>2021-05-17T10:39:03Z</time>
      </trkpt>
      <trkpt lat="41.5729290" lon="-8.7816080">
        <ele>51.7</ele>
        <time>2021-05-17T10:39:04Z</time>
      </trkpt>
      <trkpt lat="41.5729400" lon="-8.7816190">
        <ele>51.8</ele>
        <time>2021-05-17T10:39:05Z</time>
      </trkpt>
      <trkpt lat="41.5729450" lon="-8.7816220">
        <ele>51.8</ele>
        <time>2021-05-17T10:39:06Z</time>
      </trkpt>
      <trkpt lat="41.5729510" lon="-8.7816260">
        <ele>51.8</ele>
        <time>2021-05-17T10:39:07Z</time>
      </trkpt>
      <trkpt lat="41.5729560" lon="-8.7816300">
        <ele>51.8</ele>
        <time>2021-05-17T10:39:08Z</time>
      </trkpt>
      <trkpt lat="41.5729660" lon="-8.7816310">
        <ele>51.9</ele>
        <time>2021-05-17T10:39:09Z</time>
      </trkpt>
      <trkpt lat="41.5729730" lon="-8.7816330">
        <ele>51.9</ele>
        <time>2021-05-17T10:39:10Z</time>
      </trkpt>
      <trkpt lat="41.5729800" lon="-8.7816410">
        <ele>51.9</ele>
        <time>2021-05-17T10:39:11Z</time>
      </trkpt>
      <trkpt lat="41.5729870" lon="-8.7816450">
        <ele>52.0</ele>
        <time>2021-05-17T10:39:12Z</time>
      </trkpt>
      <trkpt lat="41.5729990" lon="-8.7816440">
        <ele>52.0</ele>
        <time>2021-05-17T10:39:13Z</time>
      </trkpt>
      <trkpt lat="41.5730140" lon="-8.7816530">
        <ele>52.1</ele>
        <time>2021-05-17T10:39:14Z</time>
      </trkpt>
      <trkpt lat="41.5730180" lon="-8.7816520">
        <ele>52.1</ele>
        <time>2021-05-17T10:39:15Z</time>
      </trkpt>
      <trkpt lat="41.5730320" lon="-8.7816610">
        <ele>52.1</ele>
        <time>2021-05-17T10:39:16Z</time>
      </trkpt>
      <trkpt lat="41.5730460" lon="-8.7816660">
        <ele>52.2</ele>
        <time>2021-05-17T10:39:17Z</time>
      </trkpt>
      <trkpt lat="41.5730560" lon="-8.7816730">
        <ele>52.2</ele>
        <time>2021-05-17T10:39:18Z</time>
      </trkpt>
      <trkpt lat="41.5730620" lon="-8.7816770">
        <ele>52.2</ele>
        <time>2021-05-17T10:39:19Z</time>
      </trkpt>
      <trkpt lat="41.5730740" lon="-8.7816800">
        <ele>52.3</ele>
        <time>2021-05-17T10:39:20Z</time>
      </trkpt>
      <trkpt lat="41.5730830" lon="-8.7816890">
        <ele>52.3</ele>
        <time>2021-05-17T10:39:21Z</time>
      </trkpt>
      <trkpt lat="41.5730900" lon="-8.7816930">
        <ele>52.3</ele>
        <time>2021-05-17T10:39:22Z</time>
      </trkpt>
      <trkpt lat="41.5731060" lon="-8.7816970">
        <ele>52.3</ele>
        <time>2021-05-17T10:39:23Z</time>
      </trkpt>
      <trkpt lat="41.5731150" lon="-8.7817020">
        <ele>52.4</ele>
        <time>2021-05-17T10:39:24Z</time>
      </trkpt>
      <trkpt lat="41.5731200" lon="-8.7817060">
        <ele>52.4</ele>
        <time>2021-05-17T10:39:25Z</time>
      </trkpt>
      <trkpt lat="41.5731260" lon="-8.7817160">
        <ele>52.4</ele>
        <time>2021-05-17T10:39:26Z</time>
      </trkpt>
      <trkpt lat="41.5731320" lon="-8.7817210">
        <ele>52.4</ele>
        <time>2021-05-17T10:39:27Z</time>
      </trkpt>
      <trkpt lat="41.5731440" lon="-8.7817240">
        <ele>52.4</ele>
        <time>2021-05-17T10:39:28Z</time>
      </trkpt>
      <trkpt lat="41.5731570" lon="-8.7817270">
        <ele>52.4</ele>
        <time>2021-05-17T10:39:29Z</time>
      </trkpt>
      <trkpt lat="41.5731650" lon="-8.7817280">
        <ele>52.4</ele>
        <time>2021-05-17T10:39:30Z</time>
      </trkpt>
      <trkpt lat="41.5731770" lon="-8.7817350">
        <ele>52.5</ele>
        <time>2021-05-17T10:39:31Z</time>
      </trkpt>
      <trkpt lat="41.5731850" lon="-8.7817420">
        <ele>52.5</ele>
        <time>2021-05-17T10:39:32Z</time>
      </trkpt>
      <trkpt lat="41.5731950" lon="-8.7817520">
        <ele>52.5</ele>
        <time>2021-05-17T10:39:33Z</time>
      </trkpt>
      <trkpt lat="41.5732040" lon="-8.7817620">
        <ele>52.5</ele>
        <time>2021-05-17T10:39:34Z</time>
      </trkpt>
      <trkpt lat="41.5732140" lon="-8.7817800">
        <ele>52.5</ele>
        <time>2021-05-17T10:39:35Z</time>
      </trkpt>
      <trkpt lat="41.5732270" lon="-8.7817910">
        <ele>52.5</ele>
        <time>2021-05-17T10:39:36Z</time>
      </trkpt>
      <trkpt lat="41.5732410" lon="-8.7818070">
        <ele>52.5</ele>
        <time>2021-05-17T10:39:37Z</time>
      </trkpt>
      <trkpt lat="41.5732530" lon="-8.7818190">
        <ele>52.5</ele>
        <time>2021-05-17T10:39:38Z</time>
      </trkpt>
      <trkpt lat="41.5732660" lon="-8.7818330">
        <ele>52.5</ele>
        <time>2021-05-17T10:39:39Z</time>
      </trkpt>
      <trkpt lat="41.5732770" lon="-8.7818480">
        <ele>52.5</ele>
        <time>2021-05-17T10:39:40Z</time>
      </trkpt>
      <trkpt lat="41.5732840" lon="-8.7818700">
        <ele>52.4</ele>
        <time>2021-05-17T10:39:41Z</time>
      </trkpt>
      <trkpt lat="41.5732970" lon="-8.7818810">
        <ele>52.4</ele>
        <time>2021-05-17T10:39:42Z</time>
      </trkpt>
      <trkpt lat="41.5733030" lon="-8.7818970">
        <ele>52.4</ele>
        <time>2021-05-17T10:39:43Z</time>
      </trkpt>
      <trkpt lat="41.5733160" lon="-8.7819090">
        <ele>52.4</ele>
        <time>2021-05-17T10:39:44Z</time>
      </trkpt>
      <trkpt lat="41.5733300" lon="-8.7819200">
        <ele>52.4</ele>
        <time>2021-05-17T10:39:45Z</time>
      </trkpt>
      <trkpt lat="41.5733400" lon="-8.7819360">
        <ele>52.4</ele>
        <time>2021-05-17T10:39:46Z</time>
      </trkpt>
      <trkpt lat="41.5733540" lon="-8.7819440">
        <ele>52.3</ele>
        <time>2021-05-17T10:39:47Z</time>
      </trkpt>
      <trkpt lat="41.5733700" lon="-8.7819550">
        <ele>52.3</ele>
        <time>2021-05-17T10:39:48Z</time>
      </trkpt>
      <trkpt lat="41.5733800" lon="-8.7819740">
        <ele>52.3</ele>
        <time>2021-05-17T10:39:49Z</time>
      </trkpt>
      <trkpt lat="41.5733910" lon="-8.7819930">
        <ele>52.3</ele>
        <time>2021-05-17T10:39:50Z</time>
      </trkpt>
      <trkpt lat="41.5734010" lon="-8.7820050">
        <ele>52.2</ele>
        <time>2021-05-17T10:39:51Z</time>
      </trkpt>
      <trkpt lat="41.5734160" lon="-8.7820290">
        <ele>52.2</ele>
        <time>2021-05-17T10:39:52Z</time>
      </trkpt>
      <trkpt lat="41.5734230" lon="-8.7820350">
        <ele>52.2</ele>
        <time>2021-05-17T10:39:53Z</time>
      </trkpt>
      <trkpt lat="41.5734310" lon="-8.7820420">
        <ele>52.2</ele>
        <time>2021-05-17T10:39:54Z</time>
      </trkpt>
      <trkpt lat="41.5734380" lon="-8.7820480">
        <ele>52.2</ele>
        <time>2021-05-17T10:39:55Z</time>
      </trkpt>
      <trkpt lat="41.5734450" lon="-8.7820640">
        <ele>52.1</ele>
        <time>2021-05-17T10:39:56Z</time>
      </trkpt>
      <trkpt lat="41.5734560" lon="-8.7820690">
        <ele>52.1</ele>
        <time>2021-05-17T10:39:57Z</time>
      </trkpt>
      <trkpt lat="41.5734660" lon="-8.7820780">
        <ele>52.1</ele>
        <time>2021-05-17T10:39:58Z</time>
      </trkpt>
      <trkpt lat="41.5734760" lon="-8.7820790">
        <ele>52.1</ele>
        <time>2021-05-17T10:39:59Z</time>
      </trkpt>
      <trkpt lat="41.5734860" lon="-8.7820890">
        <ele>52.1</ele>
        <time>2021-05-17T10:40:00Z</time>
      </trkpt>
      <trkpt lat="41.5734980" lon="-8.7820970">
        <ele>52.0</ele>
        <time>2021-05-17T10:40:01Z</time>
      </trkpt>
      <trkpt lat="41.5735070" lon="-8.7821140">
        <ele>52.0</ele>
        <time>2021-05-17T10:40:02Z</time>
      </trkpt>
      <trkpt lat="41.5735120" lon="-8.7821270">
        <ele>52.0</ele>
        <time>2021-05-17T10:40:03Z</time>
      </trkpt>
      <trkpt lat="41.5735220" lon="-8.7821380">
        <ele>52.0</ele>
        <time>2021-05-17T10:40:04Z</time>
      </trkpt>
      <trkpt lat="41.5735290" lon="-8.7821490">
        <ele>52.0</ele>
        <time>2021-05-17T10:40:05Z</time>
      </trkpt>
      <trkpt lat="41.5735420" lon="-8.7821570">
        <ele>51.9</ele>
        <time>2021-05-17T10:40:06Z</time>
      </trkpt>
      <trkpt lat="41.5735560" lon="-8.7821690">
        <ele>51.9</ele>
        <time>2021-05-17T10:40:07Z</time>
      </trkpt>
      <trkpt lat="41.5735760" lon="-8.7821850">
        <ele>51.9</ele>
        <time>2021-05-17T10:40:08Z</time>
      </trkpt>
      <trkpt lat="41.5735830" lon="-8.7821930">
        <ele>51.9</ele>
        <time>2021-05-17T10:40:09Z</time>
      </trkpt>
      <trkpt lat="41.5735890" lon="-8.7822010">
        <ele>51.8</ele>
        <time>2021-05-17T10:40:10Z</time>
      </trkpt>
      <trkpt lat="41.5736020" lon="-8.7822130">
        <ele>51.8</ele>
        <time>2021-05-17T10:40:11Z</time>
      </trkpt>
      <trkpt lat="41.5736110" lon="-8.7822270">
        <ele>51.8</ele>
        <time>2021-05-17T10:40:12Z</time>
      </trkpt>
      <trkpt lat="41.5736260" lon="-8.7822350">
        <ele>51.8</ele>
        <time>2021-05-17T10:40:13Z</time>
      </trkpt>
      <trkpt lat="41.5736400" lon="-8.7822420">
        <ele>51.8</ele>
        <time>2021-05-17T10:40:14Z</time>
      </trkpt>
      <trkpt lat="41.5736510" lon="-8.7822500">
        <ele>51.7</ele>
        <time>2021-05-17T10:40:15Z</time>
      </trkpt>
      <trkpt lat="41.5736660" lon="-8.7822580">
        <ele>51.7</ele>
        <time>2021-05-17T10:40:16Z</time>
      </trkpt>
      <trkpt lat="41.5736820" lon="-8.7822600">
        <ele>51.7</ele>
        <time>2021-05-17T10:40:17Z</time>
      </trkpt>
      <trkpt lat="41.5736950" lon="-8.7822660">
        <ele>51.7</ele>
        <time>2021-05-17T10:40:18Z</time>
      </trkpt>
      <trkpt lat="41.5737100" lon="-8.7822650">
        <ele>51.7</ele>
        <time>2021-05-17T10:40:19Z</time>
      </trkpt>
      <trkpt lat="41.5737230" lon="-8.7822820">
        <ele>51.7</ele>
        <time>2021-05-17T10:40:20Z</time>
      </trkpt>
      <trkpt lat="41.5737360" lon="-8.7822900">
        <ele>51.7</ele>
        <time>2021-05-17T10:40:21Z</time>
      </trkpt>
      <trkpt lat="41.5737520" lon="-8.7822900">
        <ele>51.6</ele>
        <time>2021-05-17T10:40:22Z</time>
      </trkpt>
      <trkpt lat="41.5737660" lon="-8.7822950">
        <ele>51.6</ele>
        <time>2021-05-17T10:40:23Z</time>
      </trkpt>
      <trkpt lat="41.5737790" lon="-8.7823050">
        <ele>51.6</ele>
        <time>2021-05-17T10:40:24Z</time>
      </trkpt>
      <trkpt lat="41.5737950" lon="-8.7823040">
        <ele>51.6</ele>
        <time>2021-05-17T10:40:25Z</time>
      </trkpt>
      <trkpt lat="41.5738080" lon="-8.7823100">
        <ele>51.6</ele>
        <time>2021-05-17T10:40:26Z</time>
      </trkpt>
      <trkpt lat="41.5738240" lon="-8.7823140">
        <ele>51.5</ele>
        <time>2021-05-17T10:40:27Z</time>
      </trkpt>
      <trkpt lat="41.5738390" lon="-8.7823140">
        <ele>51.5</ele>
        <time>2021-05-17T10:40:28Z</time>
      </trkpt>
      <trkpt lat="41.5738540" lon="-8.7823130">
        <ele>51.5</ele>
        <time>2021-05-17T10:40:29Z</time>
      </trkpt>
      <trkpt lat="41.5738670" lon="-8.7823160">
        <ele>51.5</ele>
        <time>2021-05-17T10:40:30Z</time>
      </trkpt>
      <trkpt lat="41.5738810" lon="-8.7823250">
        <ele>51.5</ele>
        <time>2021-05-17T10:40:31Z</time>
      </trkpt>
      <trkpt lat="41.5738940" lon="-8.7823330">
        <ele>51.4</ele>
        <time>2021-05-17T10:40:32Z</time>
      </trkpt>
      <trkpt lat="41.5739100" lon="-8.7823350">
        <ele>51.4</ele>
        <time>2021-05-17T10:40:33Z</time>
      </trkpt>
      <trkpt lat="41.5739220" lon="-8.7823440">
        <ele>51.4</ele>
        <time>2021-05-17T10:40:34Z</time>
      </trkpt>
      <trkpt lat="41.5739430" lon="-8.7823540">
        <ele>51.3</ele>
        <time>2021-05-17T10:40:35Z</time>
      </trkpt>
      <trkpt lat="41.5739500" lon="-8.7823600">
        <ele>51.3</ele>
        <time>2021-05-17T10:40:36Z</time>
      </trkpt>
      <trkpt lat="41.5739580" lon="-8.7823650">
        <ele>51.3</ele>
        <time>2021-05-17T10:40:37Z</time>
      </trkpt>
      <trkpt lat="41.5739740" lon="-8.7823680">
        <ele>51.3</ele>
        <time>2021-05-17T10:40:38Z</time>
      </trkpt>
      <trkpt lat="41.5739870" lon="-8.7823650">
        <ele>51.3</ele>
        <time>2021-05-17T10:40:39Z</time>
      </trkpt>
      <trkpt lat="41.5739960" lon="-8.7823690">
        <ele>51.3</ele>
        <time>2021-05-17T10:40:40Z</time>
      </trkpt>
      <trkpt lat="41.5740060" lon="-8.7823680">
        <ele>51.2</ele>
        <time>2021-05-17T10:40:41Z</time>
      </trkpt>
      <trkpt lat="41.5740220" lon="-8.7823670">
        <ele>51.2</ele>
        <time>2021-05-17T10:40:42Z</time>
      </trkpt>
      <trkpt lat="41.5740380" lon="-8.7823710">
        <ele>51.2</ele>
        <time>2021-05-17T10:40:43Z</time>
      </trkpt>
      <trkpt lat="41.5740490" lon="-8.7823870">
        <ele>51.2</ele>
        <time>2021-05-17T10:40:44Z</time>
      </trkpt>
      <trkpt lat="41.5740640" lon="-8.7823910">
        <ele>51.2</ele>
        <time>2021-05-17T10:40:45Z</time>
      </trkpt>
      <trkpt lat="41.5740760" lon="-8.7823940">
        <ele>51.2</ele>
        <time>2021-05-17T10:40:46Z</time>
      </trkpt>
      <trkpt lat="41.5740950" lon="-8.7824040">
        <ele>51.1</ele>
        <time>2021-05-17T10:40:47Z</time>
      </trkpt>
      <trkpt lat="41.5741030" lon="-8.7824070">
        <ele>51.1</ele>
        <time>2021-05-17T10:40:48Z</time>
      </trkpt>
      <trkpt lat="41.5741110" lon="-8.7824100">
        <ele>51.1</ele>
        <time>2021-05-17T10:40:49Z</time>
      </trkpt>
      <trkpt lat="41.5741260" lon="-8.7824190">
        <ele>51.1</ele>
        <time>2021-05-17T10:40:50Z</time>
      </trkpt>
      <trkpt lat="41.5741400" lon="-8.7824210">
        <ele>51.1</ele>
        <time>2021-05-17T10:40:51Z</time>
      </trkpt>
      <trkpt lat="41.5741560" lon="-8.7824210">
        <ele>51.1</ele>
        <time>2021-05-17T10:40:52Z</time>
      </trkpt>
      <trkpt lat="41.5741700" lon="-8.7824210">
        <ele>51.1</ele>
        <time>2021-05-17T10:40:53Z</time>
      </trkpt>
      <trkpt lat="41.5741850" lon="-8.7824190">
        <ele>51.1</ele>
        <time>2021-05-17T10:40:54Z</time>
      </trkpt>
      <trkpt lat="41.5741990" lon="-8.7824230">
        <ele>51.1</ele>
        <time>2021-05-17T10:40:55Z</time>
      </trkpt>
      <trkpt lat="41.5742140" lon="-8.7824340">
        <ele>51.1</ele>
        <time>2021-05-17T10:40:56Z</time>
      </trkpt>
      <trkpt lat="41.5742270" lon="-8.7824420">
        <ele>51.0</ele>
        <time>2021-05-17T10:40:57Z</time>
      </trkpt>
      <trkpt lat="41.5742410" lon="-8.7824500">
        <ele>51.0</ele>
        <time>2021-05-17T10:40:58Z</time>
      </trkpt>
      <trkpt lat="41.5742570" lon="-8.7824480">
        <ele>51.0</ele>
        <time>2021-05-17T10:40:59Z</time>
      </trkpt>
      <trkpt lat="41.5742680" lon="-8.7824530">
        <ele>51.0</ele>
        <time>2021-05-17T10:41:00Z</time>
      </trkpt>
      <trkpt lat="41.5742850" lon="-8.7824500">
        <ele>51.0</ele>
        <time>2021-05-17T10:41:01Z</time>
      </trkpt>
      <trkpt lat="41.5742990" lon="-8.7824540">
        <ele>51.0</ele>
        <time>2021-05-17T10:41:02Z</time>
      </trkpt>
      <trkpt lat="41.5743120" lon="-8.7824620">
        <ele>51.0</ele>
        <time>2021-05-17T10:41:03Z</time>
      </trkpt>
      <trkpt lat="41.5743230" lon="-8.7824710">
        <ele>51.0</ele>
        <time>2021-05-17T10:41:04Z</time>
      </trkpt>
      <trkpt lat="41.5743370" lon="-8.7824720">
        <ele>51.0</ele>
        <time>2021-05-17T10:41:05Z</time>
      </trkpt>
      <trkpt lat="41.5743460" lon="-8.7824790">
        <ele>51.0</ele>
        <time>2021-05-17T10:41:06Z</time>
      </trkpt>
      <trkpt lat="41.5743570" lon="-8.7824860">
        <ele>51.0</ele>
        <time>2021-05-17T10:41:07Z</time>
      </trkpt>
      <trkpt lat="41.5743690" lon="-8.7825000">
        <ele>51.0</ele>
        <time>2021-05-17T10:41:08Z</time>
      </trkpt>
      <trkpt lat="41.5743830" lon="-8.7825110">
        <ele>51.0</ele>
        <time>2021-05-17T10:41:09Z</time>
      </trkpt>
      <trkpt lat="41.5743960" lon="-8.7825230">
        <ele>51.0</ele>
        <time>2021-05-17T10:41:10Z</time>
      </trkpt>
      <trkpt lat="41.5744070" lon="-8.7825340">
        <ele>51.0</ele>
        <time>2021-05-17T10:41:11Z</time>
      </trkpt>
      <trkpt lat="41.5744190" lon="-8.7825430">
        <ele>51.0</ele>
        <time>2021-05-17T10:41:12Z</time>
      </trkpt>
      <trkpt lat="41.5744350" lon="-8.7825510">
        <ele>51.0</ele>
        <time>2021-05-17T10:41:13Z</time>
      </trkpt>
      <trkpt lat="41.5744480" lon="-8.7825600">
        <ele>51.0</ele>
        <time>2021-05-17T10:41:14Z</time>
      </trkpt>
      <trkpt lat="41.5744610" lon="-8.7825670">
        <ele>51.1</ele>
        <time>2021-05-17T10:41:15Z</time>
      </trkpt>
      <trkpt lat="41.5744750" lon="-8.7825780">
        <ele>51.1</ele>
        <time>2021-05-17T10:41:16Z</time>
      </trkpt>
      <trkpt lat="41.5744970" lon="-8.7825880">
        <ele>51.1</ele>
        <time>2021-05-17T10:41:17Z</time>
      </trkpt>
      <trkpt lat="41.5745050" lon="-8.7825910">
        <ele>51.1</ele>
        <time>2021-05-17T10:41:18Z</time>
      </trkpt>
      <trkpt lat="41.5745130" lon="-8.7825950">
        <ele>51.1</ele>
        <time>2021-05-17T10:41:19Z</time>
      </trkpt>
      <trkpt lat="41.5745290" lon="-8.7826120">
        <ele>51.1</ele>
        <time>2021-05-17T10:41:20Z</time>
      </trkpt>
      <trkpt lat="41.5745370" lon="-8.7826160">
        <ele>51.1</ele>
        <time>2021-05-17T10:41:21Z</time>
      </trkpt>
      <trkpt lat="41.5745440" lon="-8.7826210">
        <ele>51.1</ele>
        <time>2021-05-17T10:41:22Z</time>
      </trkpt>
      <trkpt lat="41.5745650" lon="-8.7826320">
        <ele>51.1</ele>
        <time>2021-05-17T10:41:23Z</time>
      </trkpt>
      <trkpt lat="41.5745740" lon="-8.7826360">
        <ele>51.1</ele>
        <time>2021-05-17T10:41:24Z</time>
      </trkpt>
      <trkpt lat="41.5745820" lon="-8.7826400">
        <ele>51.1</ele>
        <time>2021-05-17T10:41:25Z</time>
      </trkpt>
      <trkpt lat="41.5745930" lon="-8.7826440">
        <ele>51.1</ele>
        <time>2021-05-17T10:41:26Z</time>
      </trkpt>
      <trkpt lat="41.5746010" lon="-8.7826550">
        <ele>51.1</ele>
        <time>2021-05-17T10:41:27Z</time>
      </trkpt>
      <trkpt lat="41.5746110" lon="-8.7826620">
        <ele>51.1</ele>
        <time>2021-05-17T10:41:28Z</time>
      </trkpt>
      <trkpt lat="41.5746210" lon="-8.7826720">
        <ele>51.1</ele>
        <time>2021-05-17T10:41:29Z</time>
      </trkpt>
      <trkpt lat="41.5746310" lon="-8.7826750">
        <ele>51.1</ele>
        <time>2021-05-17T10:41:30Z</time>
      </trkpt>
      <trkpt lat="41.5746400" lon="-8.7826800">
        <ele>51.1</ele>
        <time>2021-05-17T10:41:31Z</time>
      </trkpt>
      <trkpt lat="41.5746570" lon="-8.7826910">
        <ele>51.1</ele>
        <time>2021-05-17T10:41:32Z</time>
      </trkpt>
      <trkpt lat="41.5746650" lon="-8.7826950">
        <ele>51.1</ele>
        <time>2021-05-17T10:41:33Z</time>
      </trkpt>
      <trkpt lat="41.5746730" lon="-8.7827000">
        <ele>51.1</ele>
        <time>2021-05-17T10:41:34Z</time>
      </trkpt>
      <trkpt lat="41.5746820" lon="-8.7827080">
        <ele>51.1</ele>
        <time>2021-05-17T10:41:35Z</time>
      </trkpt>
      <trkpt lat="41.5746880" lon="-8.7827140">
        <ele>51.1</ele>
        <time>2021-05-17T10:41:36Z</time>
      </trkpt>
      <trkpt lat="41.5747010" lon="-8.7827210">
        <ele>51.1</ele>
        <time>2021-05-17T10:41:37Z</time>
      </trkpt>
      <trkpt lat="41.5747160" lon="-8.7827410">
        <ele>51.2</ele>
        <time>2021-05-17T10:41:38Z</time>
      </trkpt>
      <trkpt lat="41.5747230" lon="-8.7827460">
        <ele>51.2</ele>
        <time>2021-05-17T10:41:39Z</time>
      </trkpt>
      <trkpt lat="41.5747300" lon="-8.7827510">
        <ele>51.2</ele>
        <time>2021-05-17T10:41:40Z</time>
      </trkpt>
      <trkpt lat="41.5747400" lon="-8.7827650">
        <ele>51.2</ele>
        <time>2021-05-17T10:41:41Z</time>
      </trkpt>
      <trkpt lat="41.5747500" lon="-8.7827770">
        <ele>51.2</ele>
        <time>2021-05-17T10:41:42Z</time>
      </trkpt>
      <trkpt lat="41.5747600" lon="-8.7827900">
        <ele>51.2</ele>
        <time>2021-05-17T10:41:43Z</time>
      </trkpt>
      <trkpt lat="41.5747720" lon="-8.7827990">
        <ele>51.2</ele>
        <time>2021-05-17T10:41:44Z</time>
      </trkpt>
      <trkpt lat="41.5747870" lon="-8.7828030">
        <ele>51.2</ele>
        <time>2021-05-17T10:41:45Z</time>
      </trkpt>
      <trkpt lat="41.5748000" lon="-8.7828120">
        <ele>51.2</ele>
        <time>2021-05-17T10:41:46Z</time>
      </trkpt>
      <trkpt lat="41.5748130" lon="-8.7828160">
        <ele>51.2</ele>
        <time>2021-05-17T10:41:47Z</time>
      </trkpt>
      <trkpt lat="41.5748230" lon="-8.7828250">
        <ele>51.2</ele>
        <time>2021-05-17T10:41:48Z</time>
      </trkpt>
      <trkpt lat="41.5748280" lon="-8.7828220">
        <ele>51.2</ele>
        <time>2021-05-17T10:41:49Z</time>
      </trkpt>
      <trkpt lat="41.5748330" lon="-8.7828250">
        <ele>51.2</ele>
        <time>2021-05-17T10:41:50Z</time>
      </trkpt>
      <trkpt lat="41.5748470" lon="-8.7828310">
        <ele>51.2</ele>
        <time>2021-05-17T10:41:51Z</time>
      </trkpt>
      <trkpt lat="41.5748570" lon="-8.7828320">
        <ele>51.2</ele>
        <time>2021-05-17T10:41:52Z</time>
      </trkpt>
      <trkpt lat="41.5748630" lon="-8.7828390">
        <ele>51.2</ele>
        <time>2021-05-17T10:41:53Z</time>
      </trkpt>
      <trkpt lat="41.5748720" lon="-8.7828360">
        <ele>51.2</ele>
        <time>2021-05-17T10:41:54Z</time>
      </trkpt>
      <trkpt lat="41.5748780" lon="-8.7828390">
        <ele>51.2</ele>
        <time>2021-05-17T10:41:55Z</time>
      </trkpt>
      <trkpt lat="41.5748910" lon="-8.7828360">
        <ele>51.1</ele>
        <time>2021-05-17T10:41:56Z</time>
      </trkpt>
      <trkpt lat="41.5748980" lon="-8.7828470">
        <ele>51.1</ele>
        <time>2021-05-17T10:41:57Z</time>
      </trkpt>
      <trkpt lat="41.5749110" lon="-8.7828510">
        <ele>51.1</ele>
        <time>2021-05-17T10:41:58Z</time>
      </trkpt>
      <trkpt lat="41.5749150" lon="-8.7828530">
        <ele>51.1</ele>
        <time>2021-05-17T10:41:59Z</time>
      </trkpt>
      <trkpt lat="41.5749340" lon="-8.7828560">
        <ele>51.1</ele>
        <time>2021-05-17T10:42:00Z</time>
      </trkpt>
      <trkpt lat="41.5749430" lon="-8.7828600">
        <ele>51.1</ele>
        <time>2021-05-17T10:42:01Z</time>
      </trkpt>
      <trkpt lat="41.5749510" lon="-8.7828630">
        <ele>51.1</ele>
        <time>2021-05-17T10:42:02Z</time>
      </trkpt>
      <trkpt lat="41.5749630" lon="-8.7828620">
        <ele>51.1</ele>
        <time>2021-05-17T10:42:03Z</time>
      </trkpt>
      <trkpt lat="41.5749730" lon="-8.7828680">
        <ele>51.1</ele>
        <time>2021-05-17T10:42:04Z</time>
      </trkpt>
      <trkpt lat="41.5749810" lon="-8.7828700">
        <ele>51.1</ele>
        <time>2021-05-17T10:42:05Z</time>
      </trkpt>
      <trkpt lat="41.5749930" lon="-8.7828730">
        <ele>51.1</ele>
        <time>2021-05-17T10:42:06Z</time>
      </trkpt>
      <trkpt lat="41.5750090" lon="-8.7828760">
        <ele>51.1</ele>
        <time>2021-05-17T10:42:07Z</time>
      </trkpt>
      <trkpt lat="41.5750320" lon="-8.7828800">
        <ele>51.1</ele>
        <time>2021-05-17T10:42:08Z</time>
      </trkpt>
      <trkpt lat="41.5750410" lon="-8.7828800">
        <ele>51.0</ele>
        <time>2021-05-17T10:42:09Z</time>
      </trkpt>
      <trkpt lat="41.5750500" lon="-8.7828800">
        <ele>51.0</ele>
        <time>2021-05-17T10:42:10Z</time>
      </trkpt>
      <trkpt lat="41.5750590" lon="-8.7828830">
        <ele>51.0</ele>
        <time>2021-05-17T10:42:11Z</time>
      </trkpt>
      <trkpt lat="41.5750700" lon="-8.7828800">
        <ele>51.0</ele>
        <time>2021-05-17T10:42:12Z</time>
      </trkpt>
      <trkpt lat="41.5750810" lon="-8.7828890">
        <ele>51.0</ele>
        <time>2021-05-17T10:42:13Z</time>
      </trkpt>
      <trkpt lat="41.5751030" lon="-8.7828890">
        <ele>51.0</ele>
        <time>2021-05-17T10:42:14Z</time>
      </trkpt>
      <trkpt lat="41.5751130" lon="-8.7828900">
        <ele>51.0</ele>
        <time>2021-05-17T10:42:15Z</time>
      </trkpt>
      <trkpt lat="41.5751230" lon="-8.7828900">
        <ele>51.0</ele>
        <time>2021-05-17T10:42:16Z</time>
      </trkpt>
      <trkpt lat="41.5751340" lon="-8.7828860">
        <ele>51.0</ele>
        <time>2021-05-17T10:42:17Z</time>
      </trkpt>
      <trkpt lat="41.5751440" lon="-8.7828850">
        <ele>50.9</ele>
        <time>2021-05-17T10:42:18Z</time>
      </trkpt>
      <trkpt lat="41.5751520" lon="-8.7828900">
        <ele>50.9</ele>
        <time>2021-05-17T10:42:19Z</time>
      </trkpt>
      <trkpt lat="41.5751580" lon="-8.7828960">
        <ele>50.9</ele>
        <time>2021-05-17T10:42:20Z</time>
      </trkpt>
      <trkpt lat="41.5751760" lon="-8.7828960">
        <ele>50.9</ele>
        <time>2021-05-17T10:42:21Z</time>
      </trkpt>
      <trkpt lat="41.5751870" lon="-8.7829010">
        <ele>50.9</ele>
        <time>2021-05-17T10:42:22Z</time>
      </trkpt>
      <trkpt lat="41.5752160" lon="-8.7829020">
        <ele>50.9</ele>
        <time>2021-05-17T10:42:23Z</time>
      </trkpt>
      <trkpt lat="41.5752270" lon="-8.7829010">
        <ele>50.9</ele>
        <time>2021-05-17T10:42:24Z</time>
      </trkpt>
      <trkpt lat="41.5752410" lon="-8.7828990">
        <ele>50.9</ele>
        <time>2021-05-17T10:42:25Z</time>
      </trkpt>
      <trkpt lat="41.5752540" lon="-8.7828950">
        <ele>50.8</ele>
        <time>2021-05-17T10:42:26Z</time>
      </trkpt>
      <trkpt lat="41.5752850" lon="-8.7828970">
        <ele>50.8</ele>
        <time>2021-05-17T10:42:27Z</time>
      </trkpt>
      <trkpt lat="41.5752910" lon="-8.7828980">
        <ele>50.8</ele>
        <time>2021-05-17T10:42:28Z</time>
      </trkpt>
      <trkpt lat="41.5753050" lon="-8.7829050">
        <ele>50.8</ele>
        <time>2021-05-17T10:42:29Z</time>
      </trkpt>
      <trkpt lat="41.5753210" lon="-8.7829110">
        <ele>50.8</ele>
        <time>2021-05-17T10:42:30Z</time>
      </trkpt>
      <trkpt lat="41.5753380" lon="-8.7829100">
        <ele>50.8</ele>
        <time>2021-05-17T10:42:31Z</time>
      </trkpt>
      <trkpt lat="41.5753550" lon="-8.7829060">
        <ele>50.7</ele>
        <time>2021-05-17T10:42:32Z</time>
      </trkpt>
      <trkpt lat="41.5753700" lon="-8.7829040">
        <ele>50.7</ele>
        <time>2021-05-17T10:42:33Z</time>
      </trkpt>
      <trkpt lat="41.5753860" lon="-8.7828980">
        <ele>50.7</ele>
        <time>2021-05-17T10:42:34Z</time>
      </trkpt>
      <trkpt lat="41.5754000" lon="-8.7828870">
        <ele>50.7</ele>
        <time>2021-05-17T10:42:35Z</time>
      </trkpt>
      <trkpt lat="41.5754130" lon="-8.7828770">
        <ele>50.7</ele>
        <time>2021-05-17T10:42:36Z</time>
      </trkpt>
      <trkpt lat="41.5754250" lon="-8.7828700">
        <ele>50.7</ele>
        <time>2021-05-17T10:42:37Z</time>
      </trkpt>
      <trkpt lat="41.5754360" lon="-8.7828650">
        <ele>50.7</ele>
        <time>2021-05-17T10:42:38Z</time>
      </trkpt>
      <trkpt lat="41.5754460" lon="-8.7828590">
        <ele>50.6</ele>
        <time>2021-05-17T10:42:39Z</time>
      </trkpt>
      <trkpt lat="41.5754330" lon="-8.7828640">
        <ele>50.6</ele>
        <time>2021-05-17T10:42:40Z</time>
      </trkpt>
      <trkpt lat="41.5754230" lon="-8.7828690">
        <ele>50.6</ele>
        <time>2021-05-17T10:42:41Z</time>
      </trkpt>
      <trkpt lat="41.5754120" lon="-8.7828730">
        <ele>50.6</ele>
        <time>2021-05-17T10:42:42Z</time>
      </trkpt>
      <trkpt lat="41.5754010" lon="-8.7828770">
        <ele>50.6</ele>
        <time>2021-05-17T10:42:43Z</time>
      </trkpt>
      <trkpt lat="41.5754000" lon="-8.7828770">
        <ele>50.6</ele>
        <time>2021-05-17T10:42:44Z</time>
      </trkpt>
      <trkpt lat="41.5754000" lon="-8.7828770">
        <ele>50.6</ele>
        <time>2021-05-17T10:42:45Z</time>
      </trkpt>
      <trkpt lat="41.5754000" lon="-8.7828770">
        <ele>50.6</ele>
        <time>2021-05-17T10:42:46Z</time>
      </trkpt>
      <trkpt lat="41.5754000" lon="-8.7828770">
        <ele>50.6</ele>
        <time>2021-05-17T10:42:47Z</time>
      </trkpt>
      <trkpt lat="41.5754000" lon="-8.7828770">
        <ele>50.6</ele>
        <time>2021-05-17T10:42:48Z</time>
      </trkpt>
      <trkpt lat="41.5753870" lon="-8.7828840">
        <ele>50.6</ele>
        <time>2021-05-17T10:42:49Z</time>
      </trkpt>
      <trkpt lat="41.5753900" lon="-8.7828810">
        <ele>50.6</ele>
        <time>2021-05-17T10:42:50Z</time>
      </trkpt>
      <trkpt lat="41.5754020" lon="-8.7828800">
        <ele>50.6</ele>
        <time>2021-05-17T10:42:51Z</time>
      </trkpt>
      <trkpt lat="41.5754010" lon="-8.7828880">
        <ele>50.6</ele>
        <time>2021-05-17T10:42:52Z</time>
      </trkpt>
      <trkpt lat="41.5754110" lon="-8.7828930">
        <ele>50.6</ele>
        <time>2021-05-17T10:42:53Z</time>
      </trkpt>
      <trkpt lat="41.5754270" lon="-8.7828930">
        <ele>50.6</ele>
        <time>2021-05-17T10:42:54Z</time>
      </trkpt>
      <trkpt lat="41.5754290" lon="-8.7829010">
        <ele>50.6</ele>
        <time>2021-05-17T10:42:55Z</time>
      </trkpt>
      <trkpt lat="41.5754400" lon="-8.7829120">
        <ele>50.5</ele>
        <time>2021-05-17T10:42:56Z</time>
      </trkpt>
      <trkpt lat="41.5754550" lon="-8.7829090">
        <ele>50.5</ele>
        <time>2021-05-17T10:42:57Z</time>
      </trkpt>
      <trkpt lat="41.5754650" lon="-8.7829030">
        <ele>50.5</ele>
        <time>2021-05-17T10:42:58Z</time>
      </trkpt>
      <trkpt lat="41.5754790" lon="-8.7829040">
        <ele>50.5</ele>
        <time>2021-05-17T10:42:59Z</time>
      </trkpt>
      <trkpt lat="41.5754870" lon="-8.7829070">
        <ele>50.5</ele>
        <time>2021-05-17T10:43:00Z</time>
      </trkpt>
      <trkpt lat="41.5754960" lon="-8.7829080">
        <ele>50.5</ele>
        <time>2021-05-17T10:43:01Z</time>
      </trkpt>
      <trkpt lat="41.5755140" lon="-8.7829040">
        <ele>50.5</ele>
        <time>2021-05-17T10:43:02Z</time>
      </trkpt>
      <trkpt lat="41.5755200" lon="-8.7829070">
        <ele>50.5</ele>
        <time>2021-05-17T10:43:03Z</time>
      </trkpt>
      <trkpt lat="41.5755390" lon="-8.7829120">
        <ele>50.5</ele>
        <time>2021-05-17T10:43:04Z</time>
      </trkpt>
      <trkpt lat="41.5755530" lon="-8.7829130">
        <ele>50.4</ele>
        <time>2021-05-17T10:43:05Z</time>
      </trkpt>
      <trkpt lat="41.5755670" lon="-8.7829210">
        <ele>50.4</ele>
        <time>2021-05-17T10:43:06Z</time>
      </trkpt>
      <trkpt lat="41.5755810" lon="-8.7829280">
        <ele>50.4</ele>
        <time>2021-05-17T10:43:07Z</time>
      </trkpt>
      <trkpt lat="41.5755960" lon="-8.7829340">
        <ele>50.4</ele>
        <time>2021-05-17T10:43:08Z</time>
      </trkpt>
      <trkpt lat="41.5756120" lon="-8.7829340">
        <ele>50.4</ele>
        <time>2021-05-17T10:43:09Z</time>
      </trkpt>
      <trkpt lat="41.5756280" lon="-8.7829320">
        <ele>50.4</ele>
        <time>2021-05-17T10:43:10Z</time>
      </trkpt>
      <trkpt lat="41.5756420" lon="-8.7829400">
        <ele>50.4</ele>
        <time>2021-05-17T10:43:11Z</time>
      </trkpt>
      <trkpt lat="41.5756590" lon="-8.7829350">
        <ele>50.4</ele>
        <time>2021-05-17T10:43:12Z</time>
      </trkpt>
      <trkpt lat="41.5756780" lon="-8.7829420">
        <ele>50.4</ele>
        <time>2021-05-17T10:43:13Z</time>
      </trkpt>
      <trkpt lat="41.5756950" lon="-8.7829500">
        <ele>50.4</ele>
        <time>2021-05-17T10:43:14Z</time>
      </trkpt>
      <trkpt lat="41.5757040" lon="-8.7829540">
        <ele>50.4</ele>
        <time>2021-05-17T10:43:15Z</time>
      </trkpt>
      <trkpt lat="41.5757140" lon="-8.7829580">
        <ele>50.4</ele>
        <time>2021-05-17T10:43:16Z</time>
      </trkpt>
      <trkpt lat="41.5757270" lon="-8.7829620">
        <ele>50.4</ele>
        <time>2021-05-17T10:43:17Z</time>
      </trkpt>
      <trkpt lat="41.5757390" lon="-8.7829730">
        <ele>50.4</ele>
        <time>2021-05-17T10:43:18Z</time>
      </trkpt>
      <trkpt lat="41.5757530" lon="-8.7829750">
        <ele>50.4</ele>
        <time>2021-05-17T10:43:19Z</time>
      </trkpt>
      <trkpt lat="41.5757650" lon="-8.7829810">
        <ele>50.4</ele>
        <time>2021-05-17T10:43:20Z</time>
      </trkpt>
      <trkpt lat="41.5757770" lon="-8.7829900">
        <ele>50.4</ele>
        <time>2021-05-17T10:43:21Z</time>
      </trkpt>
      <trkpt lat="41.5757910" lon="-8.7829970">
        <ele>50.4</ele>
        <time>2021-05-17T10:43:22Z</time>
      </trkpt>
      <trkpt lat="41.5758140" lon="-8.7830000">
        <ele>50.4</ele>
        <time>2021-05-17T10:43:23Z</time>
      </trkpt>
      <trkpt lat="41.5758220" lon="-8.7830010">
        <ele>50.4</ele>
        <time>2021-05-17T10:43:24Z</time>
      </trkpt>
      <trkpt lat="41.5758310" lon="-8.7830010">
        <ele>50.4</ele>
        <time>2021-05-17T10:43:25Z</time>
      </trkpt>
      <trkpt lat="41.5758450" lon="-8.7830030">
        <ele>50.4</ele>
        <time>2021-05-17T10:43:26Z</time>
      </trkpt>
      <trkpt lat="41.5758600" lon="-8.7830130">
        <ele>50.4</ele>
        <time>2021-05-17T10:43:27Z</time>
      </trkpt>
      <trkpt lat="41.5758740" lon="-8.7830170">
        <ele>50.4</ele>
        <time>2021-05-17T10:43:28Z</time>
      </trkpt>
      <trkpt lat="41.5758860" lon="-8.7830230">
        <ele>50.4</ele>
        <time>2021-05-17T10:43:29Z</time>
      </trkpt>
      <trkpt lat="41.5759010" lon="-8.7830230">
        <ele>50.4</ele>
        <time>2021-05-17T10:43:30Z</time>
      </trkpt>
      <trkpt lat="41.5759160" lon="-8.7830230">
        <ele>50.4</ele>
        <time>2021-05-17T10:43:31Z</time>
      </trkpt>
      <trkpt lat="41.5759360" lon="-8.7830340">
        <ele>50.4</ele>
        <time>2021-05-17T10:43:32Z</time>
      </trkpt>
      <trkpt lat="41.5759430" lon="-8.7830360">
        <ele>50.4</ele>
        <time>2021-05-17T10:43:33Z</time>
      </trkpt>
      <trkpt lat="41.5759510" lon="-8.7830390">
        <ele>50.4</ele>
        <time>2021-05-17T10:43:34Z</time>
      </trkpt>
      <trkpt lat="41.5759600" lon="-8.7830410">
        <ele>50.4</ele>
        <time>2021-05-17T10:43:35Z</time>
      </trkpt>
      <trkpt lat="41.5759720" lon="-8.7830430">
        <ele>50.4</ele>
        <time>2021-05-17T10:43:36Z</time>
      </trkpt>
      <trkpt lat="41.5759820" lon="-8.7830340">
        <ele>50.4</ele>
        <time>2021-05-17T10:43:37Z</time>
      </trkpt>
      <trkpt lat="41.5759900" lon="-8.7830410">
        <ele>50.4</ele>
        <time>2021-05-17T10:43:38Z</time>
      </trkpt>
      <trkpt lat="41.5760020" lon="-8.7830430">
        <ele>50.4</ele>
        <time>2021-05-17T10:43:39Z</time>
      </trkpt>
      <trkpt lat="41.5760090" lon="-8.7830530">
        <ele>50.4</ele>
        <time>2021-05-17T10:43:40Z</time>
      </trkpt>
      <trkpt lat="41.5760180" lon="-8.7830570">
        <ele>50.4</ele>
        <time>2021-05-17T10:43:41Z</time>
      </trkpt>
      <trkpt lat="41.5760250" lon="-8.7830620">
        <ele>50.4</ele>
        <time>2021-05-17T10:43:42Z</time>
      </trkpt>
      <trkpt lat="41.5760330" lon="-8.7830730">
        <ele>50.4</ele>
        <time>2021-05-17T10:43:43Z</time>
      </trkpt>
      <trkpt lat="41.5760390" lon="-8.7830750">
        <ele>50.4</ele>
        <time>2021-05-17T10:43:44Z</time>
      </trkpt>
      <trkpt lat="41.5760640" lon="-8.7830850">
        <ele>50.4</ele>
        <time>2021-05-17T10:43:45Z</time>
      </trkpt>
      <trkpt lat="41.5760790" lon="-8.7830880">
        <ele>50.4</ele>
        <time>2021-05-17T10:43:46Z</time>
      </trkpt>
      <trkpt lat="41.5760950" lon="-8.7830960">
        <ele>50.4</ele>
        <time>2021-05-17T10:43:47Z</time>
      </trkpt>
      <trkpt lat="41.5761090" lon="-8.7831020">
        <ele>50.4</ele>
        <time>2021-05-17T10:43:48Z</time>
      </trkpt>
      <trkpt lat="41.5761230" lon="-8.7831140">
        <ele>50.4</ele>
        <time>2021-05-17T10:43:49Z</time>
      </trkpt>
      <trkpt lat="41.5761410" lon="-8.7831150">
        <ele>50.4</ele>
        <time>2021-05-17T10:43:50Z</time>
      </trkpt>
      <trkpt lat="41.5761580" lon="-8.7831190">
        <ele>50.5</ele>
        <time>2021-05-17T10:43:51Z</time>
      </trkpt>
      <trkpt lat="41.5761730" lon="-8.7831250">
        <ele>50.5</ele>
        <time>2021-05-17T10:43:52Z</time>
      </trkpt>
      <trkpt lat="41.5761900" lon="-8.7831260">
        <ele>50.5</ele>
        <time>2021-05-17T10:43:53Z</time>
      </trkpt>
      <trkpt lat="41.5762090" lon="-8.7831200">
        <ele>50.5</ele>
        <time>2021-05-17T10:43:54Z</time>
      </trkpt>
      <trkpt lat="41.5762260" lon="-8.7831240">
        <ele>50.5</ele>
        <time>2021-05-17T10:43:55Z</time>
      </trkpt>
      <trkpt lat="41.5762420" lon="-8.7831230">
        <ele>50.5</ele>
        <time>2021-05-17T10:43:56Z</time>
      </trkpt>
      <trkpt lat="41.5762580" lon="-8.7831240">
        <ele>50.5</ele>
        <time>2021-05-17T10:43:57Z</time>
      </trkpt>
      <trkpt lat="41.5762730" lon="-8.7831280">
        <ele>50.5</ele>
        <time>2021-05-17T10:43:58Z</time>
      </trkpt>
      <trkpt lat="41.5762840" lon="-8.7831430">
        <ele>50.5</ele>
        <time>2021-05-17T10:43:59Z</time>
      </trkpt>
      <trkpt lat="41.5762930" lon="-8.7831460">
        <ele>50.5</ele>
        <time>2021-05-17T10:44:00Z</time>
      </trkpt>
      <trkpt lat="41.5763030" lon="-8.7831480">
        <ele>50.5</ele>
        <time>2021-05-17T10:44:01Z</time>
      </trkpt>
      <trkpt lat="41.5763100" lon="-8.7831490">
        <ele>50.5</ele>
        <time>2021-05-17T10:44:02Z</time>
      </trkpt>
      <trkpt lat="41.5763180" lon="-8.7831540">
        <ele>50.5</ele>
        <time>2021-05-17T10:44:03Z</time>
      </trkpt>
      <trkpt lat="41.5763240" lon="-8.7831590">
        <ele>50.5</ele>
        <time>2021-05-17T10:44:04Z</time>
      </trkpt>
      <trkpt lat="41.5763380" lon="-8.7831600">
        <ele>50.5</ele>
        <time>2021-05-17T10:44:05Z</time>
      </trkpt>
      <trkpt lat="41.5763440" lon="-8.7831670">
        <ele>50.5</ele>
        <time>2021-05-17T10:44:06Z</time>
      </trkpt>
      <trkpt lat="41.5763540" lon="-8.7831700">
        <ele>50.5</ele>
        <time>2021-05-17T10:44:07Z</time>
      </trkpt>
      <trkpt lat="41.5763640" lon="-8.7831790">
        <ele>50.5</ele>
        <time>2021-05-17T10:44:08Z</time>
      </trkpt>
      <trkpt lat="41.5763830" lon="-8.7831840">
        <ele>50.5</ele>
        <time>2021-05-17T10:44:09Z</time>
      </trkpt>
      <trkpt lat="41.5763900" lon="-8.7831850">
        <ele>50.5</ele>
        <time>2021-05-17T10:44:10Z</time>
      </trkpt>
      <trkpt lat="41.5763980" lon="-8.7831850">
        <ele>50.5</ele>
        <time>2021-05-17T10:44:11Z</time>
      </trkpt>
      <trkpt lat="41.5764050" lon="-8.7831860">
        <ele>50.5</ele>
        <time>2021-05-17T10:44:12Z</time>
      </trkpt>
      <trkpt lat="41.5764170" lon="-8.7831910">
        <ele>50.5</ele>
        <time>2021-05-17T10:44:13Z</time>
      </trkpt>
      <trkpt lat="41.5764270" lon="-8.7831960">
        <ele>50.5</ele>
        <time>2021-05-17T10:44:14Z</time>
      </trkpt>
      <trkpt lat="41.5764390" lon="-8.7831990">
        <ele>50.5</ele>
        <time>2021-05-17T10:44:15Z</time>
      </trkpt>
      <trkpt lat="41.5764480" lon="-8.7831980">
        <ele>50.5</ele>
        <time>2021-05-17T10:44:16Z</time>
      </trkpt>
      <trkpt lat="41.5764460" lon="-8.7832080">
        <ele>50.5</ele>
        <time>2021-05-17T10:44:17Z</time>
      </trkpt>
      <trkpt lat="41.5764640" lon="-8.7832140">
        <ele>50.5</ele>
        <time>2021-05-17T10:44:18Z</time>
      </trkpt>
      <trkpt lat="41.5764820" lon="-8.7832210">
        <ele>50.5</ele>
        <time>2021-05-17T10:44:19Z</time>
      </trkpt>
      <trkpt lat="41.5764910" lon="-8.7832220">
        <ele>50.5</ele>
        <time>2021-05-17T10:44:20Z</time>
      </trkpt>
      <trkpt lat="41.5765000" lon="-8.7832220">
        <ele>50.5</ele>
        <time>2021-05-17T10:44:21Z</time>
      </trkpt>
      <trkpt lat="41.5765200" lon="-8.7832400">
        <ele>50.5</ele>
        <time>2021-05-17T10:44:22Z</time>
      </trkpt>
      <trkpt lat="41.5765270" lon="-8.7832440">
        <ele>50.5</ele>
        <time>2021-05-17T10:44:23Z</time>
      </trkpt>
      <trkpt lat="41.5765330" lon="-8.7832470">
        <ele>50.5</ele>
        <time>2021-05-17T10:44:24Z</time>
      </trkpt>
      <trkpt lat="41.5765510" lon="-8.7832600">
        <ele>50.5</ele>
        <time>2021-05-17T10:44:25Z</time>
      </trkpt>
      <trkpt lat="41.5765580" lon="-8.7832640">
        <ele>50.5</ele>
        <time>2021-05-17T10:44:26Z</time>
      </trkpt>
      <trkpt lat="41.5765660" lon="-8.7832680">
        <ele>50.5</ele>
        <time>2021-05-17T10:44:27Z</time>
      </trkpt>
      <trkpt lat="41.5765790" lon="-8.7832780">
        <ele>50.5</ele>
        <time>2021-05-17T10:44:28Z</time>
      </trkpt>
      <trkpt lat="41.5765950" lon="-8.7832800">
        <ele>50.5</ele>
        <time>2021-05-17T10:44:29Z</time>
      </trkpt>
      <trkpt lat="41.5766060" lon="-8.7832910">
        <ele>50.5</ele>
        <time>2021-05-17T10:44:30Z</time>
      </trkpt>
      <trkpt lat="41.5766210" lon="-8.7832930">
        <ele>50.5</ele>
        <time>2021-05-17T10:44:31Z</time>
      </trkpt>
      <trkpt lat="41.5766410" lon="-8.7832920">
        <ele>50.5</ele>
        <time>2021-05-17T10:44:32Z</time>
      </trkpt>
      <trkpt lat="41.5766500" lon="-8.7832940">
        <ele>50.5</ele>
        <time>2021-05-17T10:44:33Z</time>
      </trkpt>
      <trkpt lat="41.5766580" lon="-8.7832950">
        <ele>50.5</ele>
        <time>2021-05-17T10:44:34Z</time>
      </trkpt>
      <trkpt lat="41.5766710" lon="-8.7832950">
        <ele>50.5</ele>
        <time>2021-05-17T10:44:35Z</time>
      </trkpt>
      <trkpt lat="41.5766750" lon="-8.7833000">
        <ele>50.5</ele>
        <time>2021-05-17T10:44:36Z</time>
      </trkpt>
      <trkpt lat="41.5766850" lon="-8.7833060">
        <ele>50.5</ele>
        <time>2021-05-17T10:44:37Z</time>
      </trkpt>
      <trkpt lat="41.5767010" lon="-8.7833040">
        <ele>50.5</ele>
        <time>2021-05-17T10:44:38Z</time>
      </trkpt>
      <trkpt lat="41.5767180" lon="-8.7833050">
        <ele>50.5</ele>
        <time>2021-05-17T10:44:39Z</time>
      </trkpt>
      <trkpt lat="41.5767320" lon="-8.7833130">
        <ele>50.5</ele>
        <time>2021-05-17T10:44:40Z</time>
      </trkpt>
      <trkpt lat="41.5767500" lon="-8.7833150">
        <ele>50.5</ele>
        <time>2021-05-17T10:44:41Z</time>
      </trkpt>
      <trkpt lat="41.5767650" lon="-8.7833240">
        <ele>50.5</ele>
        <time>2021-05-17T10:44:42Z</time>
      </trkpt>
      <trkpt lat="41.5767830" lon="-8.7833230">
        <ele>50.5</ele>
        <time>2021-05-17T10:44:43Z</time>
      </trkpt>
      <trkpt lat="41.5767980" lon="-8.7833270">
        <ele>50.5</ele>
        <time>2021-05-17T10:44:44Z</time>
      </trkpt>
      <trkpt lat="41.5768150" lon="-8.7833240">
        <ele>50.4</ele>
        <time>2021-05-17T10:44:45Z</time>
      </trkpt>
      <trkpt lat="41.5768310" lon="-8.7833260">
        <ele>50.4</ele>
        <time>2021-05-17T10:44:46Z</time>
      </trkpt>
      <trkpt lat="41.5768480" lon="-8.7833260">
        <ele>50.4</ele>
        <time>2021-05-17T10:44:47Z</time>
      </trkpt>
      <trkpt lat="41.5768620" lon="-8.7833420">
        <ele>50.4</ele>
        <time>2021-05-17T10:44:48Z</time>
      </trkpt>
      <trkpt lat="41.5768780" lon="-8.7833440">
        <ele>50.4</ele>
        <time>2021-05-17T10:44:49Z</time>
      </trkpt>
      <trkpt lat="41.5768900" lon="-8.7833580">
        <ele>50.4</ele>
        <time>2021-05-17T10:44:50Z</time>
      </trkpt>
      <trkpt lat="41.5769030" lon="-8.7833610">
        <ele>50.4</ele>
        <time>2021-05-17T10:44:51Z</time>
      </trkpt>
      <trkpt lat="41.5769190" lon="-8.7833650">
        <ele>50.4</ele>
        <time>2021-05-17T10:44:52Z</time>
      </trkpt>
      <trkpt lat="41.5769330" lon="-8.7833660">
        <ele>50.4</ele>
        <time>2021-05-17T10:44:53Z</time>
      </trkpt>
      <trkpt lat="41.5769530" lon="-8.7833680">
        <ele>50.3</ele>
        <time>2021-05-17T10:44:54Z</time>
      </trkpt>
      <trkpt lat="41.5769620" lon="-8.7833710">
        <ele>50.3</ele>
        <time>2021-05-17T10:44:55Z</time>
      </trkpt>
      <trkpt lat="41.5769700" lon="-8.7833740">
        <ele>50.3</ele>
        <time>2021-05-17T10:44:56Z</time>
      </trkpt>
      <trkpt lat="41.5769750" lon="-8.7833840">
        <ele>50.3</ele>
        <time>2021-05-17T10:44:57Z</time>
      </trkpt>
      <trkpt lat="41.5769860" lon="-8.7833860">
        <ele>50.3</ele>
        <time>2021-05-17T10:44:58Z</time>
      </trkpt>
      <trkpt lat="41.5770010" lon="-8.7833820">
        <ele>50.3</ele>
        <time>2021-05-17T10:44:59Z</time>
      </trkpt>
      <trkpt lat="41.5770240" lon="-8.7833910">
        <ele>50.3</ele>
        <time>2021-05-17T10:45:00Z</time>
      </trkpt>
      <trkpt lat="41.5770340" lon="-8.7833930">
        <ele>50.3</ele>
        <time>2021-05-17T10:45:01Z</time>
      </trkpt>
      <trkpt lat="41.5770430" lon="-8.7833940">
        <ele>50.3</ele>
        <time>2021-05-17T10:45:02Z</time>
      </trkpt>
      <trkpt lat="41.5770570" lon="-8.7833960">
        <ele>50.2</ele>
        <time>2021-05-17T10:45:03Z</time>
      </trkpt>
      <trkpt lat="41.5770710" lon="-8.7834000">
        <ele>50.2</ele>
        <time>2021-05-17T10:45:04Z</time>
      </trkpt>
      <trkpt lat="41.5770930" lon="-8.7834030">
        <ele>50.2</ele>
        <time>2021-05-17T10:45:05Z</time>
      </trkpt>
      <trkpt lat="41.5771010" lon="-8.7834030">
        <ele>50.2</ele>
        <time>2021-05-17T10:45:06Z</time>
      </trkpt>
      <trkpt lat="41.5771090" lon="-8.7834040">
        <ele>50.2</ele>
        <time>2021-05-17T10:45:07Z</time>
      </trkpt>
      <trkpt lat="41.5771230" lon="-8.7834110">
        <ele>50.2</ele>
        <time>2021-05-17T10:45:08Z</time>
      </trkpt>
      <trkpt lat="41.5771370" lon="-8.7834210">
        <ele>50.1</ele>
        <time>2021-05-17T10:45:09Z</time>
      </trkpt>
      <trkpt lat="41.5771500" lon="-8.7834290">
        <ele>50.1</ele>
        <time>2021-05-17T10:45:10Z</time>
      </trkpt>
      <trkpt lat="41.5771610" lon="-8.7834390">
        <ele>50.1</ele>
        <time>2021-05-17T10:45:11Z</time>
      </trkpt>
      <trkpt lat="41.5771760" lon="-8.7834420">
        <ele>50.1</ele>
        <time>2021-05-17T10:45:12Z</time>
      </trkpt>
      <trkpt lat="41.5771890" lon="-8.7834500">
        <ele>50.1</ele>
        <time>2021-05-17T10:45:13Z</time>
      </trkpt>
      <trkpt lat="41.5772080" lon="-8.7834540">
        <ele>50.1</ele>
        <time>2021-05-17T10:45:14Z</time>
      </trkpt>
      <trkpt lat="41.5772160" lon="-8.7834580">
        <ele>50.0</ele>
        <time>2021-05-17T10:45:15Z</time>
      </trkpt>
      <trkpt lat="41.5772240" lon="-8.7834620">
        <ele>50.0</ele>
        <time>2021-05-17T10:45:16Z</time>
      </trkpt>
      <trkpt lat="41.5772460" lon="-8.7834630">
        <ele>50.0</ele>
        <time>2021-05-17T10:45:17Z</time>
      </trkpt>
      <trkpt lat="41.5772560" lon="-8.7834630">
        <ele>50.0</ele>
        <time>2021-05-17T10:45:18Z</time>
      </trkpt>
      <trkpt lat="41.5772670" lon="-8.7834630">
        <ele>50.0</ele>
        <time>2021-05-17T10:45:19Z</time>
      </trkpt>
      <trkpt lat="41.5772860" lon="-8.7834780">
        <ele>49.9</ele>
        <time>2021-05-17T10:45:20Z</time>
      </trkpt>
      <trkpt lat="41.5772930" lon="-8.7834830">
        <ele>49.9</ele>
        <time>2021-05-17T10:45:21Z</time>
      </trkpt>
      <trkpt lat="41.5773000" lon="-8.7834890">
        <ele>49.9</ele>
        <time>2021-05-17T10:45:22Z</time>
      </trkpt>
      <trkpt lat="41.5773100" lon="-8.7834890">
        <ele>49.9</ele>
        <time>2021-05-17T10:45:23Z</time>
      </trkpt>
      <trkpt lat="41.5773220" lon="-8.7834950">
        <ele>49.9</ele>
        <time>2021-05-17T10:45:24Z</time>
      </trkpt>
      <trkpt lat="41.5773360" lon="-8.7834960">
        <ele>49.8</ele>
        <time>2021-05-17T10:45:25Z</time>
      </trkpt>
      <trkpt lat="41.5773530" lon="-8.7835100">
        <ele>49.8</ele>
        <time>2021-05-17T10:45:26Z</time>
      </trkpt>
      <trkpt lat="41.5773600" lon="-8.7835140">
        <ele>49.8</ele>
        <time>2021-05-17T10:45:27Z</time>
      </trkpt>
      <trkpt lat="41.5773680" lon="-8.7835190">
        <ele>49.8</ele>
        <time>2021-05-17T10:45:28Z</time>
      </trkpt>
      <trkpt lat="41.5773850" lon="-8.7835350">
        <ele>49.7</ele>
        <time>2021-05-17T10:45:29Z</time>
      </trkpt>
      <trkpt lat="41.5773900" lon="-8.7835450">
        <ele>49.7</ele>
        <time>2021-05-17T10:45:30Z</time>
      </trkpt>
      <trkpt lat="41.5773960" lon="-8.7835540">
        <ele>49.7</ele>
        <time>2021-05-17T10:45:31Z</time>
      </trkpt>
      <trkpt lat="41.5774080" lon="-8.7835620">
        <ele>49.7</ele>
        <time>2021-05-17T10:45:32Z</time>
      </trkpt>
      <trkpt lat="41.5774210" lon="-8.7835670">
        <ele>49.6</ele>
        <time>2021-05-17T10:45:33Z</time>
      </trkpt>
      <trkpt lat="41.5774270" lon="-8.7835710">
        <ele>49.6</ele>
        <time>2021-05-17T10:45:34Z</time>
      </trkpt>
      <trkpt lat="41.5774430" lon="-8.7835900">
        <ele>49.5</ele>
        <time>2021-05-17T10:45:35Z</time>
      </trkpt>
      <trkpt lat="41.5774490" lon="-8.7835960">
        <ele>49.5</ele>
        <time>2021-05-17T10:45:36Z</time>
      </trkpt>
      <trkpt lat="41.5774560" lon="-8.7836020">
        <ele>49.4</ele>
        <time>2021-05-17T10:45:37Z</time>
      </trkpt>
      <trkpt lat="41.5774650" lon="-8.7836100">
        <ele>49.4</ele>
        <time>2021-05-17T10:45:38Z</time>
      </trkpt>
      <trkpt lat="41.5774740" lon="-8.7836180">
        <ele>49.3</ele>
        <time>2021-05-17T10:45:39Z</time>
      </trkpt>
      <trkpt lat="41.5774870" lon="-8.7836260">
        <ele>49.3</ele>
        <time>2021-05-17T10:45:40Z</time>
      </trkpt>
      <trkpt lat="41.5775010" lon="-8.7836390">
        <ele>49.2</ele>
        <time>2021-05-17T10:45:41Z</time>
      </trkpt>
      <trkpt lat="41.5775100" lon="-8.7836540">
        <ele>49.1</ele>
        <time>2021-05-17T10:45:42Z</time>
      </trkpt>
      <trkpt lat="41.5775190" lon="-8.7836700">
        <ele>49.0</ele>
        <time>2021-05-17T10:45:43Z</time>
      </trkpt>
      <trkpt lat="41.5775220" lon="-8.7836940">
        <ele>48.9</ele>
        <time>2021-05-17T10:45:44Z</time>
      </trkpt>
      <trkpt lat="41.5775260" lon="-8.7837100">
        <ele>48.8</ele>
        <time>2021-05-17T10:45:45Z</time>
      </trkpt>
      <trkpt lat="41.5775280" lon="-8.7837290">
        <ele>48.7</ele>
        <time>2021-05-17T10:45:46Z</time>
      </trkpt>
      <trkpt lat="41.5775370" lon="-8.7837540">
        <ele>48.6</ele>
        <time>2021-05-17T10:45:47Z</time>
      </trkpt>
      <trkpt lat="41.5775420" lon="-8.7837640">
        <ele>48.5</ele>
        <time>2021-05-17T10:45:48Z</time>
      </trkpt>
      <trkpt lat="41.5775470" lon="-8.7837750">
        <ele>48.4</ele>
        <time>2021-05-17T10:45:49Z</time>
      </trkpt>
      <trkpt lat="41.5775540" lon="-8.7838030">
        <ele>48.3</ele>
        <time>2021-05-17T10:45:50Z</time>
      </trkpt>
      <trkpt lat="41.5775550" lon="-8.7838130">
        <ele>48.2</ele>
        <time>2021-05-17T10:45:51Z</time>
      </trkpt>
      <trkpt lat="41.5775570" lon="-8.7838230">
        <ele>48.1</ele>
        <time>2021-05-17T10:45:52Z</time>
      </trkpt>
      <trkpt lat="41.5775560" lon="-8.7838360">
        <ele>48.1</ele>
        <time>2021-05-17T10:45:53Z</time>
      </trkpt>
      <trkpt lat="41.5775590" lon="-8.7838480">
        <ele>48.0</ele>
        <time>2021-05-17T10:45:54Z</time>
      </trkpt>
      <trkpt lat="41.5775570" lon="-8.7838590">
        <ele>47.9</ele>
        <time>2021-05-17T10:45:55Z</time>
      </trkpt>
      <trkpt lat="41.5775510" lon="-8.7838780">
        <ele>47.8</ele>
        <time>2021-05-17T10:45:56Z</time>
      </trkpt>
      <trkpt lat="41.5775510" lon="-8.7838920">
        <ele>47.7</ele>
        <time>2021-05-17T10:45:57Z</time>
      </trkpt>
      <trkpt lat="41.5775550" lon="-8.7839030">
        <ele>47.6</ele>
        <time>2021-05-17T10:45:58Z</time>
      </trkpt>
      <trkpt lat="41.5775500" lon="-8.7839340">
        <ele>47.4</ele>
        <time>2021-05-17T10:45:59Z</time>
      </trkpt>
      <trkpt lat="41.5775470" lon="-8.7839430">
        <ele>47.4</ele>
        <time>2021-05-17T10:46:00Z</time>
      </trkpt>
      <trkpt lat="41.5775450" lon="-8.7839530">
        <ele>47.3</ele>
        <time>2021-05-17T10:46:01Z</time>
      </trkpt>
      <trkpt lat="41.5775420" lon="-8.7839740">
        <ele>47.2</ele>
        <time>2021-05-17T10:46:02Z</time>
      </trkpt>
      <trkpt lat="41.5775390" lon="-8.7839950">
        <ele>47.0</ele>
        <time>2021-05-17T10:46:03Z</time>
      </trkpt>
      <trkpt lat="41.5775360" lon="-8.7840140">
        <ele>46.9</ele>
        <time>2021-05-17T10:46:04Z</time>
      </trkpt>
      <trkpt lat="41.5775270" lon="-8.7840330">
        <ele>46.8</ele>
        <time>2021-05-17T10:46:05Z</time>
      </trkpt>
      <trkpt lat="41.5775320" lon="-8.7840530">
        <ele>46.7</ele>
        <time>2021-05-17T10:46:06Z</time>
      </trkpt>
      <trkpt lat="41.5775220" lon="-8.7840710">
        <ele>46.6</ele>
        <time>2021-05-17T10:46:07Z</time>
      </trkpt>
      <trkpt lat="41.5775240" lon="-8.7840930">
        <ele>46.4</ele>
        <time>2021-05-17T10:46:08Z</time>
      </trkpt>
      <trkpt lat="41.5775210" lon="-8.7841080">
        <ele>46.4</ele>
        <time>2021-05-17T10:46:09Z</time>
      </trkpt>
      <trkpt lat="41.5775100" lon="-8.7841260">
        <ele>46.2</ele>
        <time>2021-05-17T10:46:10Z</time>
      </trkpt>
      <trkpt lat="41.5775070" lon="-8.7841450">
        <ele>46.1</ele>
        <time>2021-05-17T10:46:11Z</time>
      </trkpt>
      <trkpt lat="41.5775080" lon="-8.7841690">
        <ele>46.0</ele>
        <time>2021-05-17T10:46:12Z</time>
      </trkpt>
      <trkpt lat="41.5775060" lon="-8.7841870">
        <ele>45.9</ele>
        <time>2021-05-17T10:46:13Z</time>
      </trkpt>
      <trkpt lat="41.5775050" lon="-8.7842030">
        <ele>45.8</ele>
        <time>2021-05-17T10:46:14Z</time>
      </trkpt>
      <trkpt lat="41.5775080" lon="-8.7842240">
        <ele>45.7</ele>
        <time>2021-05-17T10:46:15Z</time>
      </trkpt>
      <trkpt lat="41.5775160" lon="-8.7842410">
        <ele>45.6</ele>
        <time>2021-05-17T10:46:16Z</time>
      </trkpt>
      <trkpt lat="41.5775230" lon="-8.7842580">
        <ele>45.5</ele>
        <time>2021-05-17T10:46:17Z</time>
      </trkpt>
      <trkpt lat="41.5775270" lon="-8.7842760">
        <ele>45.4</ele>
        <time>2021-05-17T10:46:18Z</time>
      </trkpt>
      <trkpt lat="41.5775280" lon="-8.7842940">
        <ele>45.3</ele>
        <time>2021-05-17T10:46:19Z</time>
      </trkpt>
      <trkpt lat="41.5775220" lon="-8.7843130">
        <ele>45.3</ele>
        <time>2021-05-17T10:46:20Z</time>
      </trkpt>
      <trkpt lat="41.5775310" lon="-8.7843310">
        <ele>45.2</ele>
        <time>2021-05-17T10:46:21Z</time>
      </trkpt>
      <trkpt lat="41.5775350" lon="-8.7843630">
        <ele>45.0</ele>
        <time>2021-05-17T10:46:22Z</time>
      </trkpt>
      <trkpt lat="41.5775350" lon="-8.7843750">
        <ele>45.0</ele>
        <time>2021-05-17T10:46:23Z</time>
      </trkpt>
      <trkpt lat="41.5775360" lon="-8.7843880">
        <ele>45.0</ele>
        <time>2021-05-17T10:46:24Z</time>
      </trkpt>
      <trkpt lat="41.5775460" lon="-8.7844040">
        <ele>44.9</ele>
        <time>2021-05-17T10:46:25Z</time>
      </trkpt>
      <trkpt lat="41.5775620" lon="-8.7844200">
        <ele>44.8</ele>
        <time>2021-05-17T10:46:26Z</time>
      </trkpt>
      <trkpt lat="41.5775660" lon="-8.7844400">
        <ele>44.7</ele>
        <time>2021-05-17T10:46:27Z</time>
      </trkpt>
      <trkpt lat="41.5775740" lon="-8.7844550">
        <ele>44.6</ele>
        <time>2021-05-17T10:46:28Z</time>
      </trkpt>
      <trkpt lat="41.5775860" lon="-8.7844680">
        <ele>44.6</ele>
        <time>2021-05-17T10:46:29Z</time>
      </trkpt>
      <trkpt lat="41.5776020" lon="-8.7844740">
        <ele>44.5</ele>
        <time>2021-05-17T10:46:30Z</time>
      </trkpt>
      <trkpt lat="41.5776200" lon="-8.7844810">
        <ele>44.4</ele>
        <time>2021-05-17T10:46:31Z</time>
      </trkpt>
      <trkpt lat="41.5776350" lon="-8.7844920">
        <ele>44.4</ele>
        <time>2021-05-17T10:46:32Z</time>
      </trkpt>
      <trkpt lat="41.5776490" lon="-8.7845060">
        <ele>44.3</ele>
        <time>2021-05-17T10:46:33Z</time>
      </trkpt>
      <trkpt lat="41.5776620" lon="-8.7845110">
        <ele>44.2</ele>
        <time>2021-05-17T10:46:34Z</time>
      </trkpt>
      <trkpt lat="41.5776750" lon="-8.7845230">
        <ele>44.2</ele>
        <time>2021-05-17T10:46:35Z</time>
      </trkpt>
      <trkpt lat="41.5776880" lon="-8.7845340">
        <ele>44.1</ele>
        <time>2021-05-17T10:46:36Z</time>
      </trkpt>
      <trkpt lat="41.5777020" lon="-8.7845410">
        <ele>44.0</ele>
        <time>2021-05-17T10:46:37Z</time>
      </trkpt>
      <trkpt lat="41.5777120" lon="-8.7845630">
        <ele>44.0</ele>
        <time>2021-05-17T10:46:38Z</time>
      </trkpt>
      <trkpt lat="41.5777250" lon="-8.7845730">
        <ele>43.9</ele>
        <time>2021-05-17T10:46:39Z</time>
      </trkpt>
      <trkpt lat="41.5777340" lon="-8.7845850">
        <ele>43.8</ele>
        <time>2021-05-17T10:46:40Z</time>
      </trkpt>
      <trkpt lat="41.5777530" lon="-8.7845880">
        <ele>43.8</ele>
        <time>2021-05-17T10:46:41Z</time>
      </trkpt>
      <trkpt lat="41.5777630" lon="-8.7845940">
        <ele>43.7</ele>
        <time>2021-05-17T10:46:42Z</time>
      </trkpt>
      <trkpt lat="41.5777720" lon="-8.7846000">
        <ele>43.7</ele>
        <time>2021-05-17T10:46:43Z</time>
      </trkpt>
      <trkpt lat="41.5777820" lon="-8.7846060">
        <ele>43.6</ele>
        <time>2021-05-17T10:46:44Z</time>
      </trkpt>
      <trkpt lat="41.5777890" lon="-8.7846140">
        <ele>43.6</ele>
        <time>2021-05-17T10:46:45Z</time>
      </trkpt>
      <trkpt lat="41.5777990" lon="-8.7846270">
        <ele>43.6</ele>
        <time>2021-05-17T10:46:46Z</time>
      </trkpt>
      <trkpt lat="41.5778060" lon="-8.7846360">
        <ele>43.5</ele>
        <time>2021-05-17T10:46:47Z</time>
      </trkpt>
      <trkpt lat="41.5778260" lon="-8.7846450">
        <ele>43.4</ele>
        <time>2021-05-17T10:46:48Z</time>
      </trkpt>
      <trkpt lat="41.5778360" lon="-8.7846500">
        <ele>43.4</ele>
        <time>2021-05-17T10:46:49Z</time>
      </trkpt>
      <trkpt lat="41.5778450" lon="-8.7846540">
        <ele>43.4</ele>
        <time>2021-05-17T10:46:50Z</time>
      </trkpt>
      <trkpt lat="41.5778620" lon="-8.7846620">
        <ele>43.3</ele>
        <time>2021-05-17T10:46:51Z</time>
      </trkpt>
      <trkpt lat="41.5778700" lon="-8.7846690">
        <ele>43.3</ele>
        <time>2021-05-17T10:46:52Z</time>
      </trkpt>
      <trkpt lat="41.5778780" lon="-8.7846750">
        <ele>43.2</ele>
        <time>2021-05-17T10:46:53Z</time>
      </trkpt>
      <trkpt lat="41.5778900" lon="-8.7846900">
        <ele>43.2</ele>
        <time>2021-05-17T10:46:54Z</time>
      </trkpt>
      <trkpt lat="41.5778970" lon="-8.7846860">
        <ele>43.2</ele>
        <time>2021-05-17T10:46:55Z</time>
      </trkpt>
      <trkpt lat="41.5779080" lon="-8.7846920">
        <ele>43.1</ele>
        <time>2021-05-17T10:46:56Z</time>
      </trkpt>
      <trkpt lat="41.5779080" lon="-8.7846990">
        <ele>43.1</ele>
        <time>2021-05-17T10:46:57Z</time>
      </trkpt>
      <trkpt lat="41.5779170" lon="-8.7847110">
        <ele>43.1</ele>
        <time>2021-05-17T10:46:58Z</time>
      </trkpt>
      <trkpt lat="41.5779270" lon="-8.7847190">
        <ele>43.0</ele>
        <time>2021-05-17T10:46:59Z</time>
      </trkpt>
      <trkpt lat="41.5779560" lon="-8.7847350">
        <ele>43.0</ele>
        <time>2021-05-17T10:47:00Z</time>
      </trkpt>
      <trkpt lat="41.5779630" lon="-8.7847390">
        <ele>42.9</ele>
        <time>2021-05-17T10:47:01Z</time>
      </trkpt>
      <trkpt lat="41.5779810" lon="-8.7847490">
        <ele>42.9</ele>
        <time>2021-05-17T10:47:02Z</time>
      </trkpt>
      <trkpt lat="41.5779960" lon="-8.7847590">
        <ele>42.8</ele>
        <time>2021-05-17T10:47:03Z</time>
      </trkpt>
      <trkpt lat="41.5780140" lon="-8.7847600">
        <ele>42.8</ele>
        <time>2021-05-17T10:47:04Z</time>
      </trkpt>
      <trkpt lat="41.5780320" lon="-8.7847650">
        <ele>42.8</ele>
        <time>2021-05-17T10:47:05Z</time>
      </trkpt>
      <trkpt lat="41.5780450" lon="-8.7847720">
        <ele>42.8</ele>
        <time>2021-05-17T10:47:06Z</time>
      </trkpt>
      <trkpt lat="41.5780580" lon="-8.7847830">
        <ele>42.7</ele>
        <time>2021-05-17T10:47:07Z</time>
      </trkpt>
      <trkpt lat="41.5780720" lon="-8.7847870">
        <ele>42.7</ele>
        <time>2021-05-17T10:47:08Z</time>
      </trkpt>
      <trkpt lat="41.5780850" lon="-8.7847970">
        <ele>42.7</ele>
        <time>2021-05-17T10:47:09Z</time>
      </trkpt>
      <trkpt lat="41.5780960" lon="-8.7848040">
        <ele>42.7</ele>
        <time>2021-05-17T10:47:10Z</time>
      </trkpt>
      <trkpt lat="41.5781100" lon="-8.7848190">
        <ele>42.6</ele>
        <time>2021-05-17T10:47:11Z</time>
      </trkpt>
      <trkpt lat="41.5781210" lon="-8.7848330">
        <ele>42.6</ele>
        <time>2021-05-17T10:47:12Z</time>
      </trkpt>
      <trkpt lat="41.5781320" lon="-8.7848480">
        <ele>42.6</ele>
        <time>2021-05-17T10:47:13Z</time>
      </trkpt>
      <trkpt lat="41.5781460" lon="-8.7848580">
        <ele>42.6</ele>
        <time>2021-05-17T10:47:14Z</time>
      </trkpt>
      <trkpt lat="41.5781550" lon="-8.7848700">
        <ele>42.6</ele>
        <time>2021-05-17T10:47:15Z</time>
      </trkpt>
      <trkpt lat="41.5781640" lon="-8.7848830">
        <ele>42.5</ele>
        <time>2021-05-17T10:47:16Z</time>
      </trkpt>
      <trkpt lat="41.5781790" lon="-8.7848880">
        <ele>42.5</ele>
        <time>2021-05-17T10:47:17Z</time>
      </trkpt>
      <trkpt lat="41.5781890" lon="-8.7848970">
        <ele>42.5</ele>
        <time>2021-05-17T10:47:18Z</time>
      </trkpt>
      <trkpt lat="41.5781950" lon="-8.7849130">
        <ele>42.5</ele>
        <time>2021-05-17T10:47:19Z</time>
      </trkpt>
      <trkpt lat="41.5782050" lon="-8.7849210">
        <ele>42.5</ele>
        <time>2021-05-17T10:47:20Z</time>
      </trkpt>
      <trkpt lat="41.5782200" lon="-8.7849390">
        <ele>42.5</ele>
        <time>2021-05-17T10:47:21Z</time>
      </trkpt>
      <trkpt lat="41.5782280" lon="-8.7849450">
        <ele>42.5</ele>
        <time>2021-05-17T10:47:22Z</time>
      </trkpt>
      <trkpt lat="41.5782350" lon="-8.7849500">
        <ele>42.5</ele>
        <time>2021-05-17T10:47:23Z</time>
      </trkpt>
      <trkpt lat="41.5782440" lon="-8.7849630">
        <ele>42.5</ele>
        <time>2021-05-17T10:47:24Z</time>
      </trkpt>
      <trkpt lat="41.5782550" lon="-8.7849750">
        <ele>42.4</ele>
        <time>2021-05-17T10:47:25Z</time>
      </trkpt>
      <trkpt lat="41.5782680" lon="-8.7849830">
        <ele>42.4</ele>
        <time>2021-05-17T10:47:26Z</time>
      </trkpt>
      <trkpt lat="41.5782780" lon="-8.7849970">
        <ele>42.4</ele>
        <time>2021-05-17T10:47:27Z</time>
      </trkpt>
      <trkpt lat="41.5782980" lon="-8.7850090">
        <ele>42.4</ele>
        <time>2021-05-17T10:47:28Z</time>
      </trkpt>
      <trkpt lat="41.5783060" lon="-8.7850140">
        <ele>42.4</ele>
        <time>2021-05-17T10:47:29Z</time>
      </trkpt>
      <trkpt lat="41.5783140" lon="-8.7850190">
        <ele>42.4</ele>
        <time>2021-05-17T10:47:30Z</time>
      </trkpt>
      <trkpt lat="41.5783270" lon="-8.7850260">
        <ele>42.4</ele>
        <time>2021-05-17T10:47:31Z</time>
      </trkpt>
      <trkpt lat="41.5783410" lon="-8.7850280">
        <ele>42.4</ele>
        <time>2021-05-17T10:47:32Z</time>
      </trkpt>
      <trkpt lat="41.5783520" lon="-8.7850380">
        <ele>42.4</ele>
        <time>2021-05-17T10:47:33Z</time>
      </trkpt>
      <trkpt lat="41.5783580" lon="-8.7850570">
        <ele>42.4</ele>
        <time>2021-05-17T10:47:34Z</time>
      </trkpt>
      <trkpt lat="41.5783770" lon="-8.7850700">
        <ele>42.4</ele>
        <time>2021-05-17T10:47:35Z</time>
      </trkpt>
      <trkpt lat="41.5783860" lon="-8.7850750">
        <ele>42.4</ele>
        <time>2021-05-17T10:47:36Z</time>
      </trkpt>
      <trkpt lat="41.5783950" lon="-8.7850790">
        <ele>42.4</ele>
        <time>2021-05-17T10:47:37Z</time>
      </trkpt>
      <trkpt lat="41.5784090" lon="-8.7850790">
        <ele>42.4</ele>
        <time>2021-05-17T10:47:38Z</time>
      </trkpt>
      <trkpt lat="41.5784240" lon="-8.7850900">
        <ele>42.4</ele>
        <time>2021-05-17T10:47:39Z</time>
      </trkpt>
      <trkpt lat="41.5784400" lon="-8.7850880">
        <ele>42.4</ele>
        <time>2021-05-17T10:47:40Z</time>
      </trkpt>
      <trkpt lat="41.5784520" lon="-8.7850950">
        <ele>42.4</ele>
        <time>2021-05-17T10:47:41Z</time>
      </trkpt>
      <trkpt lat="41.5784680" lon="-8.7850990">
        <ele>42.4</ele>
        <time>2021-05-17T10:47:42Z</time>
      </trkpt>
      <trkpt lat="41.5784830" lon="-8.7851060">
        <ele>42.4</ele>
        <time>2021-05-17T10:47:43Z</time>
      </trkpt>
      <trkpt lat="41.5784980" lon="-8.7851150">
        <ele>42.4</ele>
        <time>2021-05-17T10:47:44Z</time>
      </trkpt>
      <trkpt lat="41.5785150" lon="-8.7851200">
        <ele>42.4</ele>
        <time>2021-05-17T10:47:45Z</time>
      </trkpt>
      <trkpt lat="41.5785300" lon="-8.7851250">
        <ele>42.5</ele>
        <time>2021-05-17T10:47:46Z</time>
      </trkpt>
      <trkpt lat="41.5785420" lon="-8.7851320">
        <ele>42.5</ele>
        <time>2021-05-17T10:47:47Z</time>
      </trkpt>
      <trkpt lat="41.5785580" lon="-8.7851250">
        <ele>42.5</ele>
        <time>2021-05-17T10:47:48Z</time>
      </trkpt>
      <trkpt lat="41.5785720" lon="-8.7851250">
        <ele>42.5</ele>
        <time>2021-05-17T10:47:49Z</time>
      </trkpt>
      <trkpt lat="41.5785920" lon="-8.7851350">
        <ele>42.5</ele>
        <time>2021-05-17T10:47:50Z</time>
      </trkpt>
      <trkpt lat="41.5786010" lon="-8.7851380">
        <ele>42.5</ele>
        <time>2021-05-17T10:47:51Z</time>
      </trkpt>
      <trkpt lat="41.5786100" lon="-8.7851420">
        <ele>42.5</ele>
        <time>2021-05-17T10:47:52Z</time>
      </trkpt>
      <trkpt lat="41.5786190" lon="-8.7851430">
        <ele>42.5</ele>
        <time>2021-05-17T10:47:53Z</time>
      </trkpt>
      <trkpt lat="41.5786270" lon="-8.7851520">
        <ele>42.5</ele>
        <time>2021-05-17T10:47:54Z</time>
      </trkpt>
      <trkpt lat="41.5786400" lon="-8.7851490">
        <ele>42.5</ele>
        <time>2021-05-17T10:47:55Z</time>
      </trkpt>
      <trkpt lat="41.5786540" lon="-8.7851450">
        <ele>42.5</ele>
        <time>2021-05-17T10:47:56Z</time>
      </trkpt>
      <trkpt lat="41.5786680" lon="-8.7851520">
        <ele>42.5</ele>
        <time>2021-05-17T10:47:57Z</time>
      </trkpt>
      <trkpt lat="41.5786820" lon="-8.7851480">
        <ele>42.5</ele>
        <time>2021-05-17T10:47:58Z</time>
      </trkpt>
      <trkpt lat="41.5786960" lon="-8.7851540">
        <ele>42.5</ele>
        <time>2021-05-17T10:47:59Z</time>
      </trkpt>
      <trkpt lat="41.5787160" lon="-8.7851560">
        <ele>42.5</ele>
        <time>2021-05-17T10:48:00Z</time>
      </trkpt>
      <trkpt lat="41.5787250" lon="-8.7851620">
        <ele>42.5</ele>
        <time>2021-05-17T10:48:01Z</time>
      </trkpt>
      <trkpt lat="41.5787330" lon="-8.7851670">
        <ele>42.5</ele>
        <time>2021-05-17T10:48:02Z</time>
      </trkpt>
      <trkpt lat="41.5787530" lon="-8.7851760">
        <ele>42.5</ele>
        <time>2021-05-17T10:48:03Z</time>
      </trkpt>
      <trkpt lat="41.5787600" lon="-8.7851800">
        <ele>42.5</ele>
        <time>2021-05-17T10:48:04Z</time>
      </trkpt>
      <trkpt lat="41.5787680" lon="-8.7851840">
        <ele>42.5</ele>
        <time>2021-05-17T10:48:05Z</time>
      </trkpt>
      <trkpt lat="41.5787800" lon="-8.7851830">
        <ele>42.6</ele>
        <time>2021-05-17T10:48:06Z</time>
      </trkpt>
      <trkpt lat="41.5787930" lon="-8.7851760">
        <ele>42.6</ele>
        <time>2021-05-17T10:48:07Z</time>
      </trkpt>
      <trkpt lat="41.5788040" lon="-8.7851780">
        <ele>42.6</ele>
        <time>2021-05-17T10:48:08Z</time>
      </trkpt>
      <trkpt lat="41.5788130" lon="-8.7851700">
        <ele>42.6</ele>
        <time>2021-05-17T10:48:09Z</time>
      </trkpt>
      <trkpt lat="41.5788250" lon="-8.7851660">
        <ele>42.6</ele>
        <time>2021-05-17T10:48:10Z</time>
      </trkpt>
      <trkpt lat="41.5788340" lon="-8.7851670">
        <ele>42.6</ele>
        <time>2021-05-17T10:48:11Z</time>
      </trkpt>
      <trkpt lat="41.5788400" lon="-8.7851700">
        <ele>42.6</ele>
        <time>2021-05-17T10:48:12Z</time>
      </trkpt>
      <trkpt lat="41.5788530" lon="-8.7851780">
        <ele>42.6</ele>
        <time>2021-05-17T10:48:13Z</time>
      </trkpt>
      <trkpt lat="41.5788630" lon="-8.7851800">
        <ele>42.6</ele>
        <time>2021-05-17T10:48:14Z</time>
      </trkpt>
      <trkpt lat="41.5788820" lon="-8.7851800">
        <ele>42.6</ele>
        <time>2021-05-17T10:48:15Z</time>
      </trkpt>
      <trkpt lat="41.5788910" lon="-8.7851810">
        <ele>42.7</ele>
        <time>2021-05-17T10:48:16Z</time>
      </trkpt>
      <trkpt lat="41.5789000" lon="-8.7851810">
        <ele>42.7</ele>
        <time>2021-05-17T10:48:17Z</time>
      </trkpt>
      <trkpt lat="41.5789140" lon="-8.7851860">
        <ele>42.7</ele>
        <time>2021-05-17T10:48:18Z</time>
      </trkpt>
      <trkpt lat="41.5789160" lon="-8.7851910">
        <ele>42.7</ele>
        <time>2021-05-17T10:48:19Z</time>
      </trkpt>
      <trkpt lat="41.5789250" lon="-8.7851870">
        <ele>42.7</ele>
        <time>2021-05-17T10:48:20Z</time>
      </trkpt>
      <trkpt lat="41.5789350" lon="-8.7851870">
        <ele>42.7</ele>
        <time>2021-05-17T10:48:21Z</time>
      </trkpt>
      <trkpt lat="41.5789420" lon="-8.7851880">
        <ele>42.7</ele>
        <time>2021-05-17T10:48:22Z</time>
      </trkpt>
      <trkpt lat="41.5789490" lon="-8.7851910">
        <ele>42.7</ele>
        <time>2021-05-17T10:48:23Z</time>
      </trkpt>
      <trkpt lat="41.5789610" lon="-8.7851910">
        <ele>42.7</ele>
        <time>2021-05-17T10:48:24Z</time>
      </trkpt>
      <trkpt lat="41.5789700" lon="-8.7851940">
        <ele>42.7</ele>
        <time>2021-05-17T10:48:25Z</time>
      </trkpt>
      <trkpt lat="41.5789830" lon="-8.7851930">
        <ele>42.7</ele>
        <time>2021-05-17T10:48:26Z</time>
      </trkpt>
      <trkpt lat="41.5789900" lon="-8.7851990">
        <ele>42.7</ele>
        <time>2021-05-17T10:48:27Z</time>
      </trkpt>
      <trkpt lat="41.5790020" lon="-8.7851980">
        <ele>42.7</ele>
        <time>2021-05-17T10:48:28Z</time>
      </trkpt>
      <trkpt lat="41.5790160" lon="-8.7852010">
        <ele>42.7</ele>
        <time>2021-05-17T10:48:29Z</time>
      </trkpt>
      <trkpt lat="41.5790240" lon="-8.7852040">
        <ele>42.7</ele>
        <time>2021-05-17T10:48:30Z</time>
      </trkpt>
      <trkpt lat="41.5790350" lon="-8.7852010">
        <ele>42.8</ele>
        <time>2021-05-17T10:48:31Z</time>
      </trkpt>
      <trkpt lat="41.5790540" lon="-8.7851990">
        <ele>42.8</ele>
        <time>2021-05-17T10:48:32Z</time>
      </trkpt>
      <trkpt lat="41.5790620" lon="-8.7852030">
        <ele>42.8</ele>
        <time>2021-05-17T10:48:33Z</time>
      </trkpt>
      <trkpt lat="41.5790710" lon="-8.7852070">
        <ele>42.8</ele>
        <time>2021-05-17T10:48:34Z</time>
      </trkpt>
      <trkpt lat="41.5790890" lon="-8.7852110">
        <ele>42.8</ele>
        <time>2021-05-17T10:48:35Z</time>
      </trkpt>
      <trkpt lat="41.5791010" lon="-8.7852120">
        <ele>42.8</ele>
        <time>2021-05-17T10:48:36Z</time>
      </trkpt>
      <trkpt lat="41.5791120" lon="-8.7852130">
        <ele>42.8</ele>
        <time>2021-05-17T10:48:37Z</time>
      </trkpt>
      <trkpt lat="41.5791230" lon="-8.7852120">
        <ele>42.8</ele>
        <time>2021-05-17T10:48:38Z</time>
      </trkpt>
      <trkpt lat="41.5791370" lon="-8.7852120">
        <ele>42.8</ele>
        <time>2021-05-17T10:48:39Z</time>
      </trkpt>
      <trkpt lat="41.5791440" lon="-8.7852210">
        <ele>42.8</ele>
        <time>2021-05-17T10:48:40Z</time>
      </trkpt>
      <trkpt lat="41.5791480" lon="-8.7852310">
        <ele>42.8</ele>
        <time>2021-05-17T10:48:41Z</time>
      </trkpt>
      <trkpt lat="41.5791620" lon="-8.7852350">
        <ele>42.8</ele>
        <time>2021-05-17T10:48:42Z</time>
      </trkpt>
      <trkpt lat="41.5791720" lon="-8.7852320">
        <ele>42.8</ele>
        <time>2021-05-17T10:48:43Z</time>
      </trkpt>
      <trkpt lat="41.5791950" lon="-8.7852370">
        <ele>42.8</ele>
        <time>2021-05-17T10:48:44Z</time>
      </trkpt>
      <trkpt lat="41.5792020" lon="-8.7852390">
        <ele>42.8</ele>
        <time>2021-05-17T10:48:45Z</time>
      </trkpt>
      <trkpt lat="41.5792100" lon="-8.7852410">
        <ele>42.8</ele>
        <time>2021-05-17T10:48:46Z</time>
      </trkpt>
      <trkpt lat="41.5792280" lon="-8.7852390">
        <ele>42.8</ele>
        <time>2021-05-17T10:48:47Z</time>
      </trkpt>
      <trkpt lat="41.5792410" lon="-8.7852400">
        <ele>42.9</ele>
        <time>2021-05-17T10:48:48Z</time>
      </trkpt>
      <trkpt lat="41.5792560" lon="-8.7852440">
        <ele>42.9</ele>
        <time>2021-05-17T10:48:49Z</time>
      </trkpt>
      <trkpt lat="41.5792720" lon="-8.7852390">
        <ele>42.9</ele>
        <time>2021-05-17T10:48:50Z</time>
      </trkpt>
      <trkpt lat="41.5792910" lon="-8.7852390">
        <ele>42.9</ele>
        <time>2021-05-17T10:48:51Z</time>
      </trkpt>
      <trkpt lat="41.5793050" lon="-8.7852390">
        <ele>42.9</ele>
        <time>2021-05-17T10:48:52Z</time>
      </trkpt>
      <trkpt lat="41.5793280" lon="-8.7852480">
        <ele>42.9</ele>
        <time>2021-05-17T10:48:53Z</time>
      </trkpt>
      <trkpt lat="41.5793360" lon="-8.7852530">
        <ele>42.9</ele>
        <time>2021-05-17T10:48:54Z</time>
      </trkpt>
      <trkpt lat="41.5793450" lon="-8.7852570">
        <ele>42.9</ele>
        <time>2021-05-17T10:48:55Z</time>
      </trkpt>
      <trkpt lat="41.5793620" lon="-8.7852620">
        <ele>42.9</ele>
        <time>2021-05-17T10:48:56Z</time>
      </trkpt>
      <trkpt lat="41.5793720" lon="-8.7852710">
        <ele>42.9</ele>
        <time>2021-05-17T10:48:57Z</time>
      </trkpt>
      <trkpt lat="41.5793920" lon="-8.7852810">
        <ele>42.9</ele>
        <time>2021-05-17T10:48:58Z</time>
      </trkpt>
      <trkpt lat="41.5794030" lon="-8.7852860">
        <ele>42.9</ele>
        <time>2021-05-17T10:48:59Z</time>
      </trkpt>
      <trkpt lat="41.5794140" lon="-8.7852910">
        <ele>42.9</ele>
        <time>2021-05-17T10:49:00Z</time>
      </trkpt>
      <trkpt lat="41.5794310" lon="-8.7852970">
        <ele>42.9</ele>
        <time>2021-05-17T10:49:01Z</time>
      </trkpt>
      <trkpt lat="41.5794480" lon="-8.7853010">
        <ele>42.9</ele>
        <time>2021-05-17T10:49:02Z</time>
      </trkpt>
      <trkpt lat="41.5794610" lon="-8.7853130">
        <ele>43.0</ele>
        <time>2021-05-17T10:49:03Z</time>
      </trkpt>
      <trkpt lat="41.5794760" lon="-8.7853160">
        <ele>43.0</ele>
        <time>2021-05-17T10:49:04Z</time>
      </trkpt>
      <trkpt lat="41.5794920" lon="-8.7853190">
        <ele>43.0</ele>
        <time>2021-05-17T10:49:05Z</time>
      </trkpt>
      <trkpt lat="41.5795060" lon="-8.7853300">
        <ele>43.0</ele>
        <time>2021-05-17T10:49:06Z</time>
      </trkpt>
      <trkpt lat="41.5795200" lon="-8.7853460">
        <ele>43.0</ele>
        <time>2021-05-17T10:49:07Z</time>
      </trkpt>
      <trkpt lat="41.5795350" lon="-8.7853510">
        <ele>43.0</ele>
        <time>2021-05-17T10:49:08Z</time>
      </trkpt>
      <trkpt lat="41.5795480" lon="-8.7853450">
        <ele>43.0</ele>
        <time>2021-05-17T10:49:09Z</time>
      </trkpt>
      <trkpt lat="41.5795570" lon="-8.7853440">
        <ele>43.0</ele>
        <time>2021-05-17T10:49:10Z</time>
      </trkpt>
      <trkpt lat="41.5795660" lon="-8.7853530">
        <ele>43.0</ele>
        <time>2021-05-17T10:49:11Z</time>
      </trkpt>
      <trkpt lat="41.5795760" lon="-8.7853580">
        <ele>43.0</ele>
        <time>2021-05-17T10:49:12Z</time>
      </trkpt>
      <trkpt lat="41.5795890" lon="-8.7853610">
        <ele>43.0</ele>
        <time>2021-05-17T10:49:13Z</time>
      </trkpt>
      <trkpt lat="41.5795970" lon="-8.7853760">
        <ele>43.0</ele>
        <time>2021-05-17T10:49:14Z</time>
      </trkpt>
      <trkpt lat="41.5795990" lon="-8.7853860">
        <ele>43.0</ele>
        <time>2021-05-17T10:49:15Z</time>
      </trkpt>
      <trkpt lat="41.5796020" lon="-8.7853890">
        <ele>43.0</ele>
        <time>2021-05-17T10:49:16Z</time>
      </trkpt>
      <trkpt lat="41.5796210" lon="-8.7853900">
        <ele>42.9</ele>
        <time>2021-05-17T10:49:17Z</time>
      </trkpt>
      <trkpt lat="41.5796290" lon="-8.7853950">
        <ele>42.9</ele>
        <time>2021-05-17T10:49:18Z</time>
      </trkpt>
      <trkpt lat="41.5796450" lon="-8.7854010">
        <ele>42.9</ele>
        <time>2021-05-17T10:49:19Z</time>
      </trkpt>
      <trkpt lat="41.5796570" lon="-8.7854080">
        <ele>42.9</ele>
        <time>2021-05-17T10:49:20Z</time>
      </trkpt>
      <trkpt lat="41.5796710" lon="-8.7854100">
        <ele>42.9</ele>
        <time>2021-05-17T10:49:21Z</time>
      </trkpt>
      <trkpt lat="41.5796810" lon="-8.7854210">
        <ele>42.9</ele>
        <time>2021-05-17T10:49:22Z</time>
      </trkpt>
      <trkpt lat="41.5796910" lon="-8.7854140">
        <ele>42.9</ele>
        <time>2021-05-17T10:49:23Z</time>
      </trkpt>
      <trkpt lat="41.5797130" lon="-8.7854270">
        <ele>42.9</ele>
        <time>2021-05-17T10:49:24Z</time>
      </trkpt>
      <trkpt lat="41.5797230" lon="-8.7854300">
        <ele>42.9</ele>
        <time>2021-05-17T10:49:25Z</time>
      </trkpt>
      <trkpt lat="41.5797320" lon="-8.7854330">
        <ele>42.9</ele>
        <time>2021-05-17T10:49:26Z</time>
      </trkpt>
      <trkpt lat="41.5797460" lon="-8.7854330">
        <ele>42.9</ele>
        <time>2021-05-17T10:49:27Z</time>
      </trkpt>
      <trkpt lat="41.5797650" lon="-8.7854380">
        <ele>42.9</ele>
        <time>2021-05-17T10:49:28Z</time>
      </trkpt>
      <trkpt lat="41.5797750" lon="-8.7854480">
        <ele>42.9</ele>
        <time>2021-05-17T10:49:29Z</time>
      </trkpt>
      <trkpt lat="41.5797820" lon="-8.7854510">
        <ele>42.9</ele>
        <time>2021-05-17T10:49:30Z</time>
      </trkpt>
      <trkpt lat="41.5797980" lon="-8.7854530">
        <ele>42.9</ele>
        <time>2021-05-17T10:49:31Z</time>
      </trkpt>
      <trkpt lat="41.5798150" lon="-8.7854600">
        <ele>42.8</ele>
        <time>2021-05-17T10:49:32Z</time>
      </trkpt>
      <trkpt lat="41.5798280" lon="-8.7854620">
        <ele>42.8</ele>
        <time>2021-05-17T10:49:33Z</time>
      </trkpt>
      <trkpt lat="41.5798370" lon="-8.7854680">
        <ele>42.8</ele>
        <time>2021-05-17T10:49:34Z</time>
      </trkpt>
      <trkpt lat="41.5798550" lon="-8.7854760">
        <ele>42.8</ele>
        <time>2021-05-17T10:49:35Z</time>
      </trkpt>
      <trkpt lat="41.5798650" lon="-8.7854830">
        <ele>42.8</ele>
        <time>2021-05-17T10:49:36Z</time>
      </trkpt>
      <trkpt lat="41.5798760" lon="-8.7854860">
        <ele>42.8</ele>
        <time>2021-05-17T10:49:37Z</time>
      </trkpt>
      <trkpt lat="41.5798820" lon="-8.7854890">
        <ele>42.8</ele>
        <time>2021-05-17T10:49:38Z</time>
      </trkpt>
      <trkpt lat="41.5798990" lon="-8.7854990">
        <ele>42.8</ele>
        <time>2021-05-17T10:49:39Z</time>
      </trkpt>
      <trkpt lat="41.5799090" lon="-8.7855010">
        <ele>42.8</ele>
        <time>2021-05-17T10:49:40Z</time>
      </trkpt>
      <trkpt lat="41.5799200" lon="-8.7855030">
        <ele>42.8</ele>
        <time>2021-05-17T10:49:41Z</time>
      </trkpt>
      <trkpt lat="41.5799440" lon="-8.7855110">
        <ele>42.8</ele>
        <time>2021-05-17T10:49:42Z</time>
      </trkpt>
      <trkpt lat="41.5799520" lon="-8.7855170">
        <ele>42.7</ele>
        <time>2021-05-17T10:49:43Z</time>
      </trkpt>
      <trkpt lat="41.5799600" lon="-8.7855230">
        <ele>42.7</ele>
        <time>2021-05-17T10:49:44Z</time>
      </trkpt>
      <trkpt lat="41.5799730" lon="-8.7855270">
        <ele>42.7</ele>
        <time>2021-05-17T10:49:45Z</time>
      </trkpt>
      <trkpt lat="41.5799840" lon="-8.7855310">
        <ele>42.7</ele>
        <time>2021-05-17T10:49:46Z</time>
      </trkpt>
      <trkpt lat="41.5799960" lon="-8.7855310">
        <ele>42.7</ele>
        <time>2021-05-17T10:49:47Z</time>
      </trkpt>
      <trkpt lat="41.5800190" lon="-8.7855490">
        <ele>42.6</ele>
        <time>2021-05-17T10:49:48Z</time>
      </trkpt>
      <trkpt lat="41.5800290" lon="-8.7855560">
        <ele>42.6</ele>
        <time>2021-05-17T10:49:49Z</time>
      </trkpt>
      <trkpt lat="41.5800380" lon="-8.7855620">
        <ele>42.6</ele>
        <time>2021-05-17T10:49:50Z</time>
      </trkpt>
      <trkpt lat="41.5800570" lon="-8.7855570">
        <ele>42.6</ele>
        <time>2021-05-17T10:49:51Z</time>
      </trkpt>
      <trkpt lat="41.5800690" lon="-8.7855520">
        <ele>42.6</ele>
        <time>2021-05-17T10:49:52Z</time>
      </trkpt>
      <trkpt lat="41.5800800" lon="-8.7855460">
        <ele>42.6</ele>
        <time>2021-05-17T10:49:53Z</time>
      </trkpt>
      <trkpt lat="41.5801020" lon="-8.7855440">
        <ele>42.5</ele>
        <time>2021-05-17T10:49:54Z</time>
      </trkpt>
      <trkpt lat="41.5801140" lon="-8.7855470">
        <ele>42.5</ele>
        <time>2021-05-17T10:49:55Z</time>
      </trkpt>
      <trkpt lat="41.5801170" lon="-8.7855440">
        <ele>42.5</ele>
        <time>2021-05-17T10:49:56Z</time>
      </trkpt>
      <trkpt lat="41.5801360" lon="-8.7855440">
        <ele>42.5</ele>
        <time>2021-05-17T10:49:57Z</time>
      </trkpt>
      <trkpt lat="41.5801420" lon="-8.7855460">
        <ele>42.5</ele>
        <time>2021-05-17T10:49:58Z</time>
      </trkpt>
      <trkpt lat="41.5801610" lon="-8.7855490">
        <ele>42.4</ele>
        <time>2021-05-17T10:49:59Z</time>
      </trkpt>
      <trkpt lat="41.5801720" lon="-8.7855480">
        <ele>42.4</ele>
        <time>2021-05-17T10:50:00Z</time>
      </trkpt>
      <trkpt lat="41.5801820" lon="-8.7855480">
        <ele>42.4</ele>
        <time>2021-05-17T10:50:01Z</time>
      </trkpt>
      <trkpt lat="41.5801980" lon="-8.7855580">
        <ele>42.4</ele>
        <time>2021-05-17T10:50:02Z</time>
      </trkpt>
      <trkpt lat="41.5802100" lon="-8.7855640">
        <ele>42.4</ele>
        <time>2021-05-17T10:50:03Z</time>
      </trkpt>
      <trkpt lat="41.5802330" lon="-8.7855620">
        <ele>42.3</ele>
        <time>2021-05-17T10:50:04Z</time>
      </trkpt>
      <trkpt lat="41.5802430" lon="-8.7855670">
        <ele>42.3</ele>
        <time>2021-05-17T10:50:05Z</time>
      </trkpt>
      <trkpt lat="41.5802540" lon="-8.7855710">
        <ele>42.3</ele>
        <time>2021-05-17T10:50:06Z</time>
      </trkpt>
      <trkpt lat="41.5802680" lon="-8.7855840">
        <ele>42.2</ele>
        <time>2021-05-17T10:50:07Z</time>
      </trkpt>
      <trkpt lat="41.5802810" lon="-8.7855790">
        <ele>42.2</ele>
        <time>2021-05-17T10:50:08Z</time>
      </trkpt>
      <trkpt lat="41.5802950" lon="-8.7855830">
        <ele>42.2</ele>
        <time>2021-05-17T10:50:09Z</time>
      </trkpt>
      <trkpt lat="41.5803080" lon="-8.7855800">
        <ele>42.2</ele>
        <time>2021-05-17T10:50:10Z</time>
      </trkpt>
      <trkpt lat="41.5803230" lon="-8.7855790">
        <ele>42.1</ele>
        <time>2021-05-17T10:50:11Z</time>
      </trkpt>
      <trkpt lat="41.5803360" lon="-8.7855800">
        <ele>42.1</ele>
        <time>2021-05-17T10:50:12Z</time>
      </trkpt>
      <trkpt lat="41.5803450" lon="-8.7855920">
        <ele>42.1</ele>
        <time>2021-05-17T10:50:13Z</time>
      </trkpt>
      <trkpt lat="41.5803670" lon="-8.7856040">
        <ele>42.0</ele>
        <time>2021-05-17T10:50:14Z</time>
      </trkpt>
      <trkpt lat="41.5803950" lon="-8.7856010">
        <ele>42.0</ele>
        <time>2021-05-17T10:50:15Z</time>
      </trkpt>
      <trkpt lat="41.5804060" lon="-8.7856030">
        <ele>41.9</ele>
        <time>2021-05-17T10:50:16Z</time>
      </trkpt>
      <trkpt lat="41.5804220" lon="-8.7856090">
        <ele>41.8</ele>
        <time>2021-05-17T10:50:17Z</time>
      </trkpt>
      <trkpt lat="41.5804400" lon="-8.7856070">
        <ele>41.8</ele>
        <time>2021-05-17T10:50:18Z</time>
      </trkpt>
      <trkpt lat="41.5804550" lon="-8.7856030">
        <ele>41.8</ele>
        <time>2021-05-17T10:50:19Z</time>
      </trkpt>
      <trkpt lat="41.5804720" lon="-8.7855990">
        <ele>41.7</ele>
        <time>2021-05-17T10:50:20Z</time>
      </trkpt>
      <trkpt lat="41.5804980" lon="-8.7855840">
        <ele>41.5</ele>
        <time>2021-05-17T10:50:21Z</time>
      </trkpt>
      <trkpt lat="41.5805060" lon="-8.7855810">
        <ele>41.5</ele>
        <time>2021-05-17T10:50:22Z</time>
      </trkpt>
      <trkpt lat="41.5805220" lon="-8.7855760">
        <ele>41.4</ele>
        <time>2021-05-17T10:50:23Z</time>
      </trkpt>
      <trkpt lat="41.5805360" lon="-8.7855700">
        <ele>41.4</ele>
        <time>2021-05-17T10:50:24Z</time>
      </trkpt>
      <trkpt lat="41.5805520" lon="-8.7855580">
        <ele>41.3</ele>
        <time>2021-05-17T10:50:25Z</time>
      </trkpt>
      <trkpt lat="41.5805660" lon="-8.7855510">
        <ele>41.2</ele>
        <time>2021-05-17T10:50:26Z</time>
      </trkpt>
      <trkpt lat="41.5805830" lon="-8.7855500">
        <ele>41.1</ele>
        <time>2021-05-17T10:50:27Z</time>
      </trkpt>
      <trkpt lat="41.5805970" lon="-8.7855480">
        <ele>41.0</ele>
        <time>2021-05-17T10:50:28Z</time>
      </trkpt>
      <trkpt lat="41.5806140" lon="-8.7855520">
        <ele>40.9</ele>
        <time>2021-05-17T10:50:29Z</time>
      </trkpt>
      <trkpt lat="41.5806290" lon="-8.7855490">
        <ele>40.8</ele>
        <time>2021-05-17T10:50:30Z</time>
      </trkpt>
      <trkpt lat="41.5806420" lon="-8.7855340">
        <ele>40.7</ele>
        <time>2021-05-17T10:50:31Z</time>
      </trkpt>
      <trkpt lat="41.5806510" lon="-8.7855170">
        <ele>40.6</ele>
        <time>2021-05-17T10:50:32Z</time>
      </trkpt>
      <trkpt lat="41.5806660" lon="-8.7855110">
        <ele>40.5</ele>
        <time>2021-05-17T10:50:33Z</time>
      </trkpt>
      <trkpt lat="41.5806810" lon="-8.7855030">
        <ele>40.3</ele>
        <time>2021-05-17T10:50:34Z</time>
      </trkpt>
      <trkpt lat="41.5806980" lon="-8.7854980">
        <ele>40.2</ele>
        <time>2021-05-17T10:50:35Z</time>
      </trkpt>
      <trkpt lat="41.5807140" lon="-8.7854920">
        <ele>40.1</ele>
        <time>2021-05-17T10:50:36Z</time>
      </trkpt>
      <trkpt lat="41.5807280" lon="-8.7854820">
        <ele>40.0</ele>
        <time>2021-05-17T10:50:37Z</time>
      </trkpt>
      <trkpt lat="41.5807410" lon="-8.7854740">
        <ele>39.9</ele>
        <time>2021-05-17T10:50:38Z</time>
      </trkpt>
      <trkpt lat="41.5807570" lon="-8.7854760">
        <ele>39.7</ele>
        <time>2021-05-17T10:50:39Z</time>
      </trkpt>
      <trkpt lat="41.5807730" lon="-8.7854680">
        <ele>39.6</ele>
        <time>2021-05-17T10:50:40Z</time>
      </trkpt>
      <trkpt lat="41.5807850" lon="-8.7854550">
        <ele>39.5</ele>
        <time>2021-05-17T10:50:41Z</time>
      </trkpt>
      <trkpt lat="41.5808010" lon="-8.7854550">
        <ele>39.4</ele>
        <time>2021-05-17T10:50:42Z</time>
      </trkpt>
      <trkpt lat="41.5808230" lon="-8.7854440">
        <ele>39.2</ele>
        <time>2021-05-17T10:50:43Z</time>
      </trkpt>
      <trkpt lat="41.5808310" lon="-8.7854380">
        <ele>39.1</ele>
        <time>2021-05-17T10:50:44Z</time>
      </trkpt>
      <trkpt lat="41.5808390" lon="-8.7854330">
        <ele>39.1</ele>
        <time>2021-05-17T10:50:45Z</time>
      </trkpt>
      <trkpt lat="41.5808520" lon="-8.7854250">
        <ele>39.0</ele>
        <time>2021-05-17T10:50:46Z</time>
      </trkpt>
      <trkpt lat="41.5808670" lon="-8.7854220">
        <ele>38.9</ele>
        <time>2021-05-17T10:50:47Z</time>
      </trkpt>
      <trkpt lat="41.5808810" lon="-8.7854210">
        <ele>38.8</ele>
        <time>2021-05-17T10:50:48Z</time>
      </trkpt>
      <trkpt lat="41.5808950" lon="-8.7854150">
        <ele>38.7</ele>
        <time>2021-05-17T10:50:49Z</time>
      </trkpt>
      <trkpt lat="41.5809070" lon="-8.7854030">
        <ele>38.5</ele>
        <time>2021-05-17T10:50:50Z</time>
      </trkpt>
      <trkpt lat="41.5809200" lon="-8.7853940">
        <ele>38.4</ele>
        <time>2021-05-17T10:50:51Z</time>
      </trkpt>
      <trkpt lat="41.5809340" lon="-8.7853870">
        <ele>38.3</ele>
        <time>2021-05-17T10:50:52Z</time>
      </trkpt>
      <trkpt lat="41.5809470" lon="-8.7853840">
        <ele>38.3</ele>
        <time>2021-05-17T10:50:53Z</time>
      </trkpt>
      <trkpt lat="41.5809620" lon="-8.7853810">
        <ele>38.2</ele>
        <time>2021-05-17T10:50:54Z</time>
      </trkpt>
      <trkpt lat="41.5809730" lon="-8.7853680">
        <ele>38.1</ele>
        <time>2021-05-17T10:50:55Z</time>
      </trkpt>
      <trkpt lat="41.5809950" lon="-8.7853600">
        <ele>37.9</ele>
        <time>2021-05-17T10:50:56Z</time>
      </trkpt>
      <trkpt lat="41.5810050" lon="-8.7853580">
        <ele>37.9</ele>
        <time>2021-05-17T10:50:57Z</time>
      </trkpt>
      <trkpt lat="41.5810140" lon="-8.7853550">
        <ele>37.8</ele>
        <time>2021-05-17T10:50:58Z</time>
      </trkpt>
      <trkpt lat="41.5810260" lon="-8.7853480">
        <ele>37.7</ele>
        <time>2021-05-17T10:50:59Z</time>
      </trkpt>
      <trkpt lat="41.5810410" lon="-8.7853420">
        <ele>37.7</ele>
        <time>2021-05-17T10:51:00Z</time>
      </trkpt>
      <trkpt lat="41.5810570" lon="-8.7853360">
        <ele>37.6</ele>
        <time>2021-05-17T10:51:01Z</time>
      </trkpt>
      <trkpt lat="41.5810720" lon="-8.7853330">
        <ele>37.5</ele>
        <time>2021-05-17T10:51:02Z</time>
      </trkpt>
      <trkpt lat="41.5810820" lon="-8.7853290">
        <ele>37.4</ele>
        <time>2021-05-17T10:51:03Z</time>
      </trkpt>
      <trkpt lat="41.5810900" lon="-8.7853440">
        <ele>37.4</ele>
        <time>2021-05-17T10:51:04Z</time>
      </trkpt>
      <trkpt lat="41.5810970" lon="-8.7853540">
        <ele>37.3</ele>
        <time>2021-05-17T10:51:05Z</time>
      </trkpt>
      <trkpt lat="41.5811010" lon="-8.7853640">
        <ele>37.3</ele>
        <time>2021-05-17T10:51:06Z</time>
      </trkpt>
      <trkpt lat="41.5811100" lon="-8.7853780">
        <ele>37.2</ele>
        <time>2021-05-17T10:51:07Z</time>
      </trkpt>
      <trkpt lat="41.5811130" lon="-8.7853920">
        <ele>37.2</ele>
        <time>2021-05-17T10:51:08Z</time>
      </trkpt>
      <trkpt lat="41.5811270" lon="-8.7854150">
        <ele>37.1</ele>
        <time>2021-05-17T10:51:09Z</time>
      </trkpt>
      <trkpt lat="41.5811310" lon="-8.7854260">
        <ele>37.1</ele>
        <time>2021-05-17T10:51:10Z</time>
      </trkpt>
      <trkpt lat="41.5811350" lon="-8.7854370">
        <ele>37.0</ele>
        <time>2021-05-17T10:51:11Z</time>
      </trkpt>
      <trkpt lat="41.5811370" lon="-8.7854370">
        <ele>37.0</ele>
        <time>2021-05-17T10:51:12Z</time>
      </trkpt>
      <trkpt lat="41.5811400" lon="-8.7854400">
        <ele>37.0</ele>
        <time>2021-05-17T10:51:13Z</time>
      </trkpt>
      <trkpt lat="41.5811490" lon="-8.7854580">
        <ele>36.9</ele>
        <time>2021-05-17T10:51:14Z</time>
      </trkpt>
      <trkpt lat="41.5811510" lon="-8.7854660">
        <ele>36.9</ele>
        <time>2021-05-17T10:51:15Z</time>
      </trkpt>
      <trkpt lat="41.5811550" lon="-8.7854740">
        <ele>36.9</ele>
        <time>2021-05-17T10:51:16Z</time>
      </trkpt>
      <trkpt lat="41.5811680" lon="-8.7854760">
        <ele>36.9</ele>
        <time>2021-05-17T10:51:17Z</time>
      </trkpt>
      <trkpt lat="41.5811770" lon="-8.7854860">
        <ele>36.8</ele>
        <time>2021-05-17T10:51:18Z</time>
      </trkpt>
      <trkpt lat="41.5811840" lon="-8.7854990">
        <ele>36.8</ele>
        <time>2021-05-17T10:51:19Z</time>
      </trkpt>
      <trkpt lat="41.5811950" lon="-8.7855060">
        <ele>36.8</ele>
        <time>2021-05-17T10:51:20Z</time>
      </trkpt>
      <trkpt lat="41.5812040" lon="-8.7855090">
        <ele>36.7</ele>
        <time>2021-05-17T10:51:21Z</time>
      </trkpt>
      <trkpt lat="41.5812070" lon="-8.7855160">
        <ele>36.7</ele>
        <time>2021-05-17T10:51:22Z</time>
      </trkpt>
      <trkpt lat="41.5812220" lon="-8.7855280">
        <ele>36.7</ele>
        <time>2021-05-17T10:51:23Z</time>
      </trkpt>
      <trkpt lat="41.5812320" lon="-8.7855270">
        <ele>36.6</ele>
        <time>2021-05-17T10:51:24Z</time>
      </trkpt>
      <trkpt lat="41.5812440" lon="-8.7855290">
        <ele>36.6</ele>
        <time>2021-05-17T10:51:25Z</time>
      </trkpt>
      <trkpt lat="41.5812530" lon="-8.7855350">
        <ele>36.6</ele>
        <time>2021-05-17T10:51:26Z</time>
      </trkpt>
      <trkpt lat="41.5812630" lon="-8.7855450">
        <ele>36.5</ele>
        <time>2021-05-17T10:51:27Z</time>
      </trkpt>
      <trkpt lat="41.5812820" lon="-8.7855600">
        <ele>36.5</ele>
        <time>2021-05-17T10:51:28Z</time>
      </trkpt>
      <trkpt lat="41.5812910" lon="-8.7855680">
        <ele>36.5</ele>
        <time>2021-05-17T10:51:29Z</time>
      </trkpt>
      <trkpt lat="41.5813010" lon="-8.7855760">
        <ele>36.4</ele>
        <time>2021-05-17T10:51:30Z</time>
      </trkpt>
      <trkpt lat="41.5813080" lon="-8.7855830">
        <ele>36.4</ele>
        <time>2021-05-17T10:51:31Z</time>
      </trkpt>
      <trkpt lat="41.5813180" lon="-8.7855940">
        <ele>36.4</ele>
        <time>2021-05-17T10:51:32Z</time>
      </trkpt>
      <trkpt lat="41.5813160" lon="-8.7855980">
        <ele>36.4</ele>
        <time>2021-05-17T10:51:33Z</time>
      </trkpt>
      <trkpt lat="41.5813100" lon="-8.7855960">
        <ele>36.4</ele>
        <time>2021-05-17T10:51:34Z</time>
      </trkpt>
      <trkpt lat="41.5813090" lon="-8.7856000">
        <ele>36.4</ele>
        <time>2021-05-17T10:51:35Z</time>
      </trkpt>
      <trkpt lat="41.5813120" lon="-8.7856090">
        <ele>36.3</ele>
        <time>2021-05-17T10:51:36Z</time>
      </trkpt>
      <trkpt lat="41.5813170" lon="-8.7855990">
        <ele>36.3</ele>
        <time>2021-05-17T10:51:37Z</time>
      </trkpt>
      <trkpt lat="41.5813130" lon="-8.7856010">
        <ele>36.3</ele>
        <time>2021-05-17T10:51:38Z</time>
      </trkpt>
      <trkpt lat="41.5813150" lon="-8.7856070">
        <ele>36.3</ele>
        <time>2021-05-17T10:51:39Z</time>
      </trkpt>
      <trkpt lat="41.5813130" lon="-8.7856050">
        <ele>36.3</ele>
        <time>2021-05-17T10:51:40Z</time>
      </trkpt>
      <trkpt lat="41.5813130" lon="-8.7856050">
        <ele>36.3</ele>
        <time>2021-05-17T10:51:41Z</time>
      </trkpt>
      <trkpt lat="41.5813140" lon="-8.7856060">
        <ele>36.3</ele>
        <time>2021-05-17T10:51:42Z</time>
      </trkpt>
      <trkpt lat="41.5813150" lon="-8.7856070">
        <ele>36.3</ele>
        <time>2021-05-17T10:51:43Z</time>
      </trkpt>
      <trkpt lat="41.5813140" lon="-8.7856120">
        <ele>36.3</ele>
        <time>2021-05-17T10:51:44Z</time>
      </trkpt>
      <trkpt lat="41.5813170" lon="-8.7856160">
        <ele>36.3</ele>
        <time>2021-05-17T10:51:45Z</time>
      </trkpt>
      <trkpt lat="41.5813170" lon="-8.7856160">
        <ele>36.3</ele>
        <time>2021-05-17T10:51:46Z</time>
      </trkpt>
      <trkpt lat="41.5813220" lon="-8.7856230">
        <ele>36.3</ele>
        <time>2021-05-17T10:51:47Z</time>
      </trkpt>
      <trkpt lat="41.5813240" lon="-8.7856210">
        <ele>36.2</ele>
        <time>2021-05-17T10:51:48Z</time>
      </trkpt>
      <trkpt lat="41.5813260" lon="-8.7856240">
        <ele>36.2</ele>
        <time>2021-05-17T10:51:49Z</time>
      </trkpt>
      <trkpt lat="41.5813250" lon="-8.7856270">
        <ele>36.2</ele>
        <time>2021-05-17T10:51:50Z</time>
      </trkpt>
      <trkpt lat="41.5813250" lon="-8.7856260">
        <ele>36.2</ele>
        <time>2021-05-17T10:51:51Z</time>
      </trkpt>
      <trkpt lat="41.5813250" lon="-8.7856240">
        <ele>36.2</ele>
        <time>2021-05-17T10:51:52Z</time>
      </trkpt>
      <trkpt lat="41.5813230" lon="-8.7856270">
        <ele>36.2</ele>
        <time>2021-05-17T10:51:53Z</time>
      </trkpt>
      <trkpt lat="41.5813200" lon="-8.7856390">
        <ele>36.2</ele>
        <time>2021-05-17T10:51:54Z</time>
      </trkpt>
      <trkpt lat="41.5813150" lon="-8.7856420">
        <ele>36.2</ele>
        <time>2021-05-17T10:51:55Z</time>
      </trkpt>
      <trkpt lat="41.5813140" lon="-8.7856410">
        <ele>36.2</ele>
        <time>2021-05-17T10:51:56Z</time>
      </trkpt>
      <trkpt lat="41.5813120" lon="-8.7856370">
        <ele>36.2</ele>
        <time>2021-05-17T10:51:57Z</time>
      </trkpt>
      <trkpt lat="41.5813090" lon="-8.7856360">
        <ele>36.2</ele>
        <time>2021-05-17T10:51:58Z</time>
      </trkpt>
      <trkpt lat="41.5813080" lon="-8.7856390">
        <ele>36.2</ele>
        <time>2021-05-17T10:51:59Z</time>
      </trkpt>
      <trkpt lat="41.5813070" lon="-8.7856370">
        <ele>36.2</ele>
        <time>2021-05-17T10:52:00Z</time>
      </trkpt>
      <trkpt lat="41.5813050" lon="-8.7856380">
        <ele>36.2</ele>
        <time>2021-05-17T10:52:01Z</time>
      </trkpt>
      <trkpt lat="41.5813030" lon="-8.7856360">
        <ele>36.2</ele>
        <time>2021-05-17T10:52:02Z</time>
      </trkpt>
      <trkpt lat="41.5813010" lon="-8.7856370">
        <ele>36.2</ele>
        <time>2021-05-17T10:52:03Z</time>
      </trkpt>
      <trkpt lat="41.5813020" lon="-8.7856390">
        <ele>36.2</ele>
        <time>2021-05-17T10:52:04Z</time>
      </trkpt>
      <trkpt lat="41.5813020" lon="-8.7856360">
        <ele>36.1</ele>
        <time>2021-05-17T10:52:05Z</time>
      </trkpt>
      <trkpt lat="41.5813030" lon="-8.7856410">
        <ele>36.1</ele>
        <time>2021-05-17T10:52:06Z</time>
      </trkpt>
      <trkpt lat="41.5813040" lon="-8.7856430">
        <ele>36.1</ele>
        <time>2021-05-17T10:52:07Z</time>
      </trkpt>
      <trkpt lat="41.5813060" lon="-8.7856420">
        <ele>36.1</ele>
        <time>2021-05-17T10:52:08Z</time>
      </trkpt>
      <trkpt lat="41.5813050" lon="-8.7856450">
        <ele>36.1</ele>
        <time>2021-05-17T10:52:09Z</time>
      </trkpt>
      <trkpt lat="41.5813040" lon="-8.7856480">
        <ele>36.1</ele>
        <time>2021-05-17T10:52:10Z</time>
      </trkpt>
      <trkpt lat="41.5813040" lon="-8.7856500">
        <ele>36.1</ele>
        <time>2021-05-17T10:52:11Z</time>
      </trkpt>
      <trkpt lat="41.5813020" lon="-8.7856520">
        <ele>36.1</ele>
        <time>2021-05-17T10:52:12Z</time>
      </trkpt>
      <trkpt lat="41.5813030" lon="-8.7856460">
        <ele>36.1</ele>
        <time>2021-05-17T10:52:13Z</time>
      </trkpt>
      <trkpt lat="41.5813040" lon="-8.7856430">
        <ele>36.1</ele>
        <time>2021-05-17T10:52:14Z</time>
      </trkpt>
      <trkpt lat="41.5813040" lon="-8.7856430">
        <ele>36.1</ele>
        <time>2021-05-17T10:52:15Z</time>
      </trkpt>
      <trkpt lat="41.5813040" lon="-8.7856430">
        <ele>36.1</ele>
        <time>2021-05-17T10:52:16Z</time>
      </trkpt>
      <trkpt lat="41.5813050" lon="-8.7856430">
        <ele>36.1</ele>
        <time>2021-05-17T10:52:17Z</time>
      </trkpt>
      <trkpt lat="41.5813050" lon="-8.7856440">
        <ele>36.1</ele>
        <time>2021-05-17T10:52:18Z</time>
      </trkpt>
      <trkpt lat="41.5813050" lon="-8.7856470">
        <ele>36.1</ele>
        <time>2021-05-17T10:52:19Z</time>
      </trkpt>
      <trkpt lat="41.5813030" lon="-8.7856510">
        <ele>36.1</ele>
        <time>2021-05-17T10:52:20Z</time>
      </trkpt>
      <trkpt lat="41.5813000" lon="-8.7856480">
        <ele>36.1</ele>
        <time>2021-05-17T10:52:21Z</time>
      </trkpt>
      <trkpt lat="41.5812990" lon="-8.7856420">
        <ele>36.1</ele>
        <time>2021-05-17T10:52:22Z</time>
      </trkpt>
      <trkpt lat="41.5812980" lon="-8.7856330">
        <ele>36.1</ele>
        <time>2021-05-17T10:52:23Z</time>
      </trkpt>
      <trkpt lat="41.5812960" lon="-8.7856300">
        <ele>36.1</ele>
        <time>2021-05-17T10:52:24Z</time>
      </trkpt>
      <trkpt lat="41.5812950" lon="-8.7856320">
        <ele>36.1</ele>
        <time>2021-05-17T10:52:25Z</time>
      </trkpt>
      <trkpt lat="41.5812950" lon="-8.7856300">
        <ele>36.1</ele>
        <time>2021-05-17T10:52:26Z</time>
      </trkpt>
      <trkpt lat="41.5812950" lon="-8.7856280">
        <ele>36.0</ele>
        <time>2021-05-17T10:52:27Z</time>
      </trkpt>
      <trkpt lat="41.5812940" lon="-8.7856260">
        <ele>36.0</ele>
        <time>2021-05-17T10:52:28Z</time>
      </trkpt>
      <trkpt lat="41.5812900" lon="-8.7856300">
        <ele>36.0</ele>
        <time>2021-05-17T10:52:29Z</time>
      </trkpt>
      <trkpt lat="41.5812920" lon="-8.7856300">
        <ele>36.0</ele>
        <time>2021-05-17T10:52:30Z</time>
      </trkpt>
      <trkpt lat="41.5812920" lon="-8.7856300">
        <ele>36.0</ele>
        <time>2021-05-17T10:52:31Z</time>
      </trkpt>
      <trkpt lat="41.5812920" lon="-8.7856300">
        <ele>36.0</ele>
        <time>2021-05-17T10:52:32Z</time>
      </trkpt>
      <trkpt lat="41.5812930" lon="-8.7856260">
        <ele>36.0</ele>
        <time>2021-05-17T10:52:33Z</time>
      </trkpt>
      <trkpt lat="41.5812950" lon="-8.7856270">
        <ele>36.0</ele>
        <time>2021-05-17T10:52:34Z</time>
      </trkpt>
      <trkpt lat="41.5812960" lon="-8.7856270">
        <ele>36.0</ele>
        <time>2021-05-17T10:52:35Z</time>
      </trkpt>
      <trkpt lat="41.5812950" lon="-8.7856250">
        <ele>36.0</ele>
        <time>2021-05-17T10:52:36Z</time>
      </trkpt>
      <trkpt lat="41.5812930" lon="-8.7856260">
        <ele>36.0</ele>
        <time>2021-05-17T10:52:37Z</time>
      </trkpt>
      <trkpt lat="41.5812910" lon="-8.7856240">
        <ele>36.0</ele>
        <time>2021-05-17T10:52:38Z</time>
      </trkpt>
      <trkpt lat="41.5812910" lon="-8.7856240">
        <ele>36.0</ele>
        <time>2021-05-17T10:52:39Z</time>
      </trkpt>
      <trkpt lat="41.5812920" lon="-8.7856100">
        <ele>36.0</ele>
        <time>2021-05-17T10:52:40Z</time>
      </trkpt>
      <trkpt lat="41.5812920" lon="-8.7856100">
        <ele>36.0</ele>
        <time>2021-05-17T10:52:41Z</time>
      </trkpt>
      <trkpt lat="41.5812920" lon="-8.7856080">
        <ele>36.0</ele>
        <time>2021-05-17T10:52:42Z</time>
      </trkpt>
      <trkpt lat="41.5812910" lon="-8.7856090">
        <ele>36.0</ele>
        <time>2021-05-17T10:52:43Z</time>
      </trkpt>
      <trkpt lat="41.5812880" lon="-8.7856110">
        <ele>36.0</ele>
        <time>2021-05-17T10:52:44Z</time>
      </trkpt>
      <trkpt lat="41.5812860" lon="-8.7856150">
        <ele>36.0</ele>
        <time>2021-05-17T10:52:45Z</time>
      </trkpt>
      <trkpt lat="41.5812830" lon="-8.7856180">
        <ele>36.0</ele>
        <time>2021-05-17T10:52:46Z</time>
      </trkpt>
      <trkpt lat="41.5812810" lon="-8.7856200">
        <ele>36.0</ele>
        <time>2021-05-17T10:52:47Z</time>
      </trkpt>
      <trkpt lat="41.5812790" lon="-8.7856200">
        <ele>36.0</ele>
        <time>2021-05-17T10:52:48Z</time>
      </trkpt>
      <trkpt lat="41.5812800" lon="-8.7856180">
        <ele>36.0</ele>
        <time>2021-05-17T10:52:49Z</time>
      </trkpt>
      <trkpt lat="41.5812810" lon="-8.7856160">
        <ele>35.9</ele>
        <time>2021-05-17T10:52:50Z</time>
      </trkpt>
      <trkpt lat="41.5812810" lon="-8.7856160">
        <ele>35.9</ele>
        <time>2021-05-17T10:52:51Z</time>
      </trkpt>
      <trkpt lat="41.5812830" lon="-8.7856110">
        <ele>35.9</ele>
        <time>2021-05-17T10:52:52Z</time>
      </trkpt>
      <trkpt lat="41.5812870" lon="-8.7856100">
        <ele>35.9</ele>
        <time>2021-05-17T10:52:53Z</time>
      </trkpt>
      <trkpt lat="41.5812910" lon="-8.7856090">
        <ele>35.9</ele>
        <time>2021-05-17T10:52:54Z</time>
      </trkpt>
      <trkpt lat="41.5812910" lon="-8.7856130">
        <ele>35.9</ele>
        <time>2021-05-17T10:52:55Z</time>
      </trkpt>
      <trkpt lat="41.5812910" lon="-8.7856140">
        <ele>35.9</ele>
        <time>2021-05-17T10:52:56Z</time>
      </trkpt>
      <trkpt lat="41.5812910" lon="-8.7856140">
        <ele>35.9</ele>
        <time>2021-05-17T10:52:57Z</time>
      </trkpt>
      <trkpt lat="41.5812930" lon="-8.7856200">
        <ele>35.9</ele>
        <time>2021-05-17T10:52:58Z</time>
      </trkpt>
      <trkpt lat="41.5812860" lon="-8.7856240">
        <ele>35.9</ele>
        <time>2021-05-17T10:52:59Z</time>
      </trkpt>
      <trkpt lat="41.5812930" lon="-8.7856190">
        <ele>35.9</ele>
        <time>2021-05-17T10:53:00Z</time>
      </trkpt>
      <trkpt lat="41.5812950" lon="-8.7856300">
        <ele>35.9</ele>
        <time>2021-05-17T10:53:01Z</time>
      </trkpt>
      <trkpt lat="41.5812980" lon="-8.7856330">
        <ele>35.9</ele>
        <time>2021-05-17T10:53:02Z</time>
      </trkpt>
      <trkpt lat="41.5813010" lon="-8.7856370">
        <ele>35.9</ele>
        <time>2021-05-17T10:53:03Z</time>
      </trkpt>
      <trkpt lat="41.5813050" lon="-8.7856410">
        <ele>35.9</ele>
        <time>2021-05-17T10:53:04Z</time>
      </trkpt>
      <trkpt lat="41.5813080" lon="-8.7856450">
        <ele>35.9</ele>
        <time>2021-05-17T10:53:05Z</time>
      </trkpt>
      <trkpt lat="41.5813110" lon="-8.7856480">
        <ele>35.8</ele>
        <time>2021-05-17T10:53:06Z</time>
      </trkpt>
      <trkpt lat="41.5813140" lon="-8.7856520">
        <ele>35.8</ele>
        <time>2021-05-17T10:53:07Z</time>
      </trkpt>
      <trkpt lat="41.5813170" lon="-8.7856560">
        <ele>35.8</ele>
        <time>2021-05-17T10:53:08Z</time>
      </trkpt>
      <trkpt lat="41.5813270" lon="-8.7856610">
        <ele>35.8</ele>
        <time>2021-05-17T10:53:09Z</time>
      </trkpt>
      <trkpt lat="41.5813370" lon="-8.7856600">
        <ele>35.8</ele>
        <time>2021-05-17T10:53:10Z</time>
      </trkpt>
      <trkpt lat="41.5813490" lon="-8.7856650">
        <ele>35.8</ele>
        <time>2021-05-17T10:53:11Z</time>
      </trkpt>
      <trkpt lat="41.5813650" lon="-8.7856680">
        <ele>35.8</ele>
        <time>2021-05-17T10:53:12Z</time>
      </trkpt>
      <trkpt lat="41.5813750" lon="-8.7856640">
        <ele>35.8</ele>
        <time>2021-05-17T10:53:13Z</time>
      </trkpt>
      <trkpt lat="41.5813820" lon="-8.7856700">
        <ele>35.8</ele>
        <time>2021-05-17T10:53:14Z</time>
      </trkpt>
      <trkpt lat="41.5813960" lon="-8.7856840">
        <ele>35.7</ele>
        <time>2021-05-17T10:53:15Z</time>
      </trkpt>
      <trkpt lat="41.5814060" lon="-8.7856920">
        <ele>35.7</ele>
        <time>2021-05-17T10:53:16Z</time>
      </trkpt>
      <trkpt lat="41.5814280" lon="-8.7856940">
        <ele>35.7</ele>
        <time>2021-05-17T10:53:17Z</time>
      </trkpt>
      <trkpt lat="41.5814350" lon="-8.7856980">
        <ele>35.7</ele>
        <time>2021-05-17T10:53:18Z</time>
      </trkpt>
      <trkpt lat="41.5814430" lon="-8.7857010">
        <ele>35.7</ele>
        <time>2021-05-17T10:53:19Z</time>
      </trkpt>
      <trkpt lat="41.5814640" lon="-8.7857080">
        <ele>35.7</ele>
        <time>2021-05-17T10:53:20Z</time>
      </trkpt>
      <trkpt lat="41.5814720" lon="-8.7857150">
        <ele>35.7</ele>
        <time>2021-05-17T10:53:21Z</time>
      </trkpt>
      <trkpt lat="41.5814790" lon="-8.7857210">
        <ele>35.7</ele>
        <time>2021-05-17T10:53:22Z</time>
      </trkpt>
      <trkpt lat="41.5814880" lon="-8.7857240">
        <ele>35.7</ele>
        <time>2021-05-17T10:53:23Z</time>
      </trkpt>
      <trkpt lat="41.5815030" lon="-8.7857290">
        <ele>35.7</ele>
        <time>2021-05-17T10:53:24Z</time>
      </trkpt>
      <trkpt lat="41.5815110" lon="-8.7857390">
        <ele>35.7</ele>
        <time>2021-05-17T10:53:25Z</time>
      </trkpt>
      <trkpt lat="41.5815200" lon="-8.7857490">
        <ele>35.6</ele>
        <time>2021-05-17T10:53:26Z</time>
      </trkpt>
      <trkpt lat="41.5815400" lon="-8.7857550">
        <ele>35.6</ele>
        <time>2021-05-17T10:53:27Z</time>
      </trkpt>
      <trkpt lat="41.5815450" lon="-8.7857640">
        <ele>35.6</ele>
        <time>2021-05-17T10:53:28Z</time>
      </trkpt>
      <trkpt lat="41.5815550" lon="-8.7857690">
        <ele>35.6</ele>
        <time>2021-05-17T10:53:29Z</time>
      </trkpt>
      <trkpt lat="41.5815680" lon="-8.7857760">
        <ele>35.6</ele>
        <time>2021-05-17T10:53:30Z</time>
      </trkpt>
      <trkpt lat="41.5815900" lon="-8.7857810">
        <ele>35.6</ele>
        <time>2021-05-17T10:53:31Z</time>
      </trkpt>
      <trkpt lat="41.5816000" lon="-8.7857860">
        <ele>35.6</ele>
        <time>2021-05-17T10:53:32Z</time>
      </trkpt>
      <trkpt lat="41.5816090" lon="-8.7857900">
        <ele>35.6</ele>
        <time>2021-05-17T10:53:33Z</time>
      </trkpt>
      <trkpt lat="41.5816330" lon="-8.7857880">
        <ele>35.6</ele>
        <time>2021-05-17T10:53:34Z</time>
      </trkpt>
      <trkpt lat="41.5816430" lon="-8.7857900">
        <ele>35.5</ele>
        <time>2021-05-17T10:53:35Z</time>
      </trkpt>
      <trkpt lat="41.5816520" lon="-8.7857930">
        <ele>35.5</ele>
        <time>2021-05-17T10:53:36Z</time>
      </trkpt>
      <trkpt lat="41.5816780" lon="-8.7858140">
        <ele>35.5</ele>
        <time>2021-05-17T10:53:37Z</time>
      </trkpt>
      <trkpt lat="41.5816850" lon="-8.7858230">
        <ele>35.5</ele>
        <time>2021-05-17T10:53:38Z</time>
      </trkpt>
      <trkpt lat="41.5816990" lon="-8.7858340">
        <ele>35.5</ele>
        <time>2021-05-17T10:53:39Z</time>
      </trkpt>
      <trkpt lat="41.5817160" lon="-8.7858370">
        <ele>35.5</ele>
        <time>2021-05-17T10:53:40Z</time>
      </trkpt>
      <trkpt lat="41.5817290" lon="-8.7858500">
        <ele>35.5</ele>
        <time>2021-05-17T10:53:41Z</time>
      </trkpt>
      <trkpt lat="41.5817650" lon="-8.7858570">
        <ele>35.5</ele>
        <time>2021-05-17T10:53:42Z</time>
      </trkpt>
      <trkpt lat="41.5817790" lon="-8.7858590">
        <ele>35.5</ele>
        <time>2021-05-17T10:53:43Z</time>
      </trkpt>
      <trkpt lat="41.5817920" lon="-8.7858650">
        <ele>35.5</ele>
        <time>2021-05-17T10:53:44Z</time>
      </trkpt>
      <trkpt lat="41.5818060" lon="-8.7858820">
        <ele>35.5</ele>
        <time>2021-05-17T10:53:45Z</time>
      </trkpt>
      <trkpt lat="41.5818220" lon="-8.7858860">
        <ele>35.5</ele>
        <time>2021-05-17T10:53:46Z</time>
      </trkpt>
      <trkpt lat="41.5818370" lon="-8.7858930">
        <ele>35.4</ele>
        <time>2021-05-17T10:53:47Z</time>
      </trkpt>
      <trkpt lat="41.5818520" lon="-8.7858940">
        <ele>35.4</ele>
        <time>2021-05-17T10:53:48Z</time>
      </trkpt>
      <trkpt lat="41.5818640" lon="-8.7859050">
        <ele>35.4</ele>
        <time>2021-05-17T10:53:49Z</time>
      </trkpt>
      <trkpt lat="41.5818830" lon="-8.7859240">
        <ele>35.4</ele>
        <time>2021-05-17T10:53:50Z</time>
      </trkpt>
      <trkpt lat="41.5818910" lon="-8.7859310">
        <ele>35.4</ele>
        <time>2021-05-17T10:53:51Z</time>
      </trkpt>
      <trkpt lat="41.5818990" lon="-8.7859380">
        <ele>35.4</ele>
        <time>2021-05-17T10:53:52Z</time>
      </trkpt>
      <trkpt lat="41.5819130" lon="-8.7859480">
        <ele>35.4</ele>
        <time>2021-05-17T10:53:53Z</time>
      </trkpt>
      <trkpt lat="41.5819330" lon="-8.7859510">
        <ele>35.4</ele>
        <time>2021-05-17T10:53:54Z</time>
      </trkpt>
      <trkpt lat="41.5819500" lon="-8.7859600">
        <ele>35.4</ele>
        <time>2021-05-17T10:53:55Z</time>
      </trkpt>
      <trkpt lat="41.5819650" lon="-8.7859700">
        <ele>35.4</ele>
        <time>2021-05-17T10:53:56Z</time>
      </trkpt>
      <trkpt lat="41.5819770" lon="-8.7859810">
        <ele>35.4</ele>
        <time>2021-05-17T10:53:57Z</time>
      </trkpt>
      <trkpt lat="41.5819860" lon="-8.7859960">
        <ele>35.4</ele>
        <time>2021-05-17T10:53:58Z</time>
      </trkpt>
      <trkpt lat="41.5819920" lon="-8.7860170">
        <ele>35.4</ele>
        <time>2021-05-17T10:53:59Z</time>
      </trkpt>
      <trkpt lat="41.5820020" lon="-8.7860290">
        <ele>35.3</ele>
        <time>2021-05-17T10:54:00Z</time>
      </trkpt>
      <trkpt lat="41.5820120" lon="-8.7860360">
        <ele>35.3</ele>
        <time>2021-05-17T10:54:01Z</time>
      </trkpt>
      <trkpt lat="41.5820150" lon="-8.7860360">
        <ele>35.3</ele>
        <time>2021-05-17T10:54:02Z</time>
      </trkpt>
      <trkpt lat="41.5820240" lon="-8.7860490">
        <ele>35.3</ele>
        <time>2021-05-17T10:54:03Z</time>
      </trkpt>
      <trkpt lat="41.5820310" lon="-8.7860490">
        <ele>35.3</ele>
        <time>2021-05-17T10:54:04Z</time>
      </trkpt>
      <trkpt lat="41.5820480" lon="-8.7860590">
        <ele>35.3</ele>
        <time>2021-05-17T10:54:05Z</time>
      </trkpt>
      <trkpt lat="41.5820590" lon="-8.7860620">
        <ele>35.3</ele>
        <time>2021-05-17T10:54:06Z</time>
      </trkpt>
      <trkpt lat="41.5820700" lon="-8.7860660">
        <ele>35.3</ele>
        <time>2021-05-17T10:54:07Z</time>
      </trkpt>
      <trkpt lat="41.5820890" lon="-8.7860650">
        <ele>35.3</ele>
        <time>2021-05-17T10:54:08Z</time>
      </trkpt>
      <trkpt lat="41.5821000" lon="-8.7860620">
        <ele>35.3</ele>
        <time>2021-05-17T10:54:09Z</time>
      </trkpt>
      <trkpt lat="41.5821220" lon="-8.7860540">
        <ele>35.3</ele>
        <time>2021-05-17T10:54:10Z</time>
      </trkpt>
      <trkpt lat="41.5821300" lon="-8.7860570">
        <ele>35.3</ele>
        <time>2021-05-17T10:54:11Z</time>
      </trkpt>
      <trkpt lat="41.5821370" lon="-8.7860590">
        <ele>35.3</ele>
        <time>2021-05-17T10:54:12Z</time>
      </trkpt>
      <trkpt lat="41.5821540" lon="-8.7860620">
        <ele>35.3</ele>
        <time>2021-05-17T10:54:13Z</time>
      </trkpt>
      <trkpt lat="41.5821680" lon="-8.7860650">
        <ele>35.3</ele>
        <time>2021-05-17T10:54:14Z</time>
      </trkpt>
      <trkpt lat="41.5821780" lon="-8.7860720">
        <ele>35.3</ele>
        <time>2021-05-17T10:54:15Z</time>
      </trkpt>
      <trkpt lat="41.5821980" lon="-8.7860770">
        <ele>35.3</ele>
        <time>2021-05-17T10:54:16Z</time>
      </trkpt>
      <trkpt lat="41.5822180" lon="-8.7860760">
        <ele>35.3</ele>
        <time>2021-05-17T10:54:17Z</time>
      </trkpt>
      <trkpt lat="41.5822270" lon="-8.7860790">
        <ele>35.3</ele>
        <time>2021-05-17T10:54:18Z</time>
      </trkpt>
      <trkpt lat="41.5822360" lon="-8.7860830">
        <ele>35.3</ele>
        <time>2021-05-17T10:54:19Z</time>
      </trkpt>
      <trkpt lat="41.5822520" lon="-8.7860810">
        <ele>35.3</ele>
        <time>2021-05-17T10:54:20Z</time>
      </trkpt>
      <trkpt lat="41.5822450" lon="-8.7860840">
        <ele>35.3</ele>
        <time>2021-05-17T10:54:22Z</time>
      </trkpt>
      <trkpt lat="41.5822630" lon="-8.7860950">
        <ele>35.4</ele>
        <time>2021-05-17T10:54:23Z</time>
      </trkpt>
      <trkpt lat="41.5822770" lon="-8.7860900">
        <ele>35.4</ele>
        <time>2021-05-17T10:54:24Z</time>
      </trkpt>
      <trkpt lat="41.5822890" lon="-8.7860920">
        <ele>35.4</ele>
        <time>2021-05-17T10:54:25Z</time>
      </trkpt>
      <trkpt lat="41.5822950" lon="-8.7860900">
        <ele>35.4</ele>
        <time>2021-05-17T10:54:26Z</time>
      </trkpt>
      <trkpt lat="41.5823040" lon="-8.7860960">
        <ele>35.4</ele>
        <time>2021-05-17T10:54:27Z</time>
      </trkpt>
      <trkpt lat="41.5823190" lon="-8.7861040">
        <ele>35.4</ele>
        <time>2021-05-17T10:54:28Z</time>
      </trkpt>
      <trkpt lat="41.5823280" lon="-8.7861090">
        <ele>35.4</ele>
        <time>2021-05-17T10:54:29Z</time>
      </trkpt>
      <trkpt lat="41.5823400" lon="-8.7861140">
        <ele>35.4</ele>
        <time>2021-05-17T10:54:30Z</time>
      </trkpt>
      <trkpt lat="41.5823540" lon="-8.7861250">
        <ele>35.4</ele>
        <time>2021-05-17T10:54:31Z</time>
      </trkpt>
      <trkpt lat="41.5823640" lon="-8.7861330">
        <ele>35.4</ele>
        <time>2021-05-17T10:54:32Z</time>
      </trkpt>
      <trkpt lat="41.5823710" lon="-8.7861300">
        <ele>35.4</ele>
        <time>2021-05-17T10:54:33Z</time>
      </trkpt>
      <trkpt lat="41.5823820" lon="-8.7861470">
        <ele>35.4</ele>
        <time>2021-05-17T10:54:34Z</time>
      </trkpt>
      <trkpt lat="41.5824010" lon="-8.7861580">
        <ele>35.4</ele>
        <time>2021-05-17T10:54:35Z</time>
      </trkpt>
      <trkpt lat="41.5824100" lon="-8.7861670">
        <ele>35.4</ele>
        <time>2021-05-17T10:54:36Z</time>
      </trkpt>
      <trkpt lat="41.5824150" lon="-8.7861750">
        <ele>35.5</ele>
        <time>2021-05-17T10:54:37Z</time>
      </trkpt>
      <trkpt lat="41.5824170" lon="-8.7861900">
        <ele>35.5</ele>
        <time>2021-05-17T10:54:38Z</time>
      </trkpt>
      <trkpt lat="41.5824220" lon="-8.7861960">
        <ele>35.5</ele>
        <time>2021-05-17T10:54:39Z</time>
      </trkpt>
      <trkpt lat="41.5824300" lon="-8.7862050">
        <ele>35.5</ele>
        <time>2021-05-17T10:54:40Z</time>
      </trkpt>
      <trkpt lat="41.5824380" lon="-8.7862160">
        <ele>35.5</ele>
        <time>2021-05-17T10:54:41Z</time>
      </trkpt>
      <trkpt lat="41.5824470" lon="-8.7862240">
        <ele>35.5</ele>
        <time>2021-05-17T10:54:42Z</time>
      </trkpt>
      <trkpt lat="41.5824530" lon="-8.7862420">
        <ele>35.5</ele>
        <time>2021-05-17T10:54:43Z</time>
      </trkpt>
      <trkpt lat="41.5824600" lon="-8.7862500">
        <ele>35.5</ele>
        <time>2021-05-17T10:54:44Z</time>
      </trkpt>
      <trkpt lat="41.5824660" lon="-8.7862750">
        <ele>35.6</ele>
        <time>2021-05-17T10:54:45Z</time>
      </trkpt>
      <trkpt lat="41.5824720" lon="-8.7862890">
        <ele>35.6</ele>
        <time>2021-05-17T10:54:46Z</time>
      </trkpt>
      <trkpt lat="41.5824810" lon="-8.7862960">
        <ele>35.6</ele>
        <time>2021-05-17T10:54:47Z</time>
      </trkpt>
      <trkpt lat="41.5824870" lon="-8.7863050">
        <ele>35.6</ele>
        <time>2021-05-17T10:54:48Z</time>
      </trkpt>
      <trkpt lat="41.5825010" lon="-8.7863240">
        <ele>35.7</ele>
        <time>2021-05-17T10:54:49Z</time>
      </trkpt>
      <trkpt lat="41.5825070" lon="-8.7863320">
        <ele>35.7</ele>
        <time>2021-05-17T10:54:50Z</time>
      </trkpt>
      <trkpt lat="41.5825140" lon="-8.7863410">
        <ele>35.7</ele>
        <time>2021-05-17T10:54:51Z</time>
      </trkpt>
      <trkpt lat="41.5825260" lon="-8.7863610">
        <ele>35.7</ele>
        <time>2021-05-17T10:54:52Z</time>
      </trkpt>
      <trkpt lat="41.5825310" lon="-8.7863710">
        <ele>35.8</ele>
        <time>2021-05-17T10:54:53Z</time>
      </trkpt>
      <trkpt lat="41.5825370" lon="-8.7863810">
        <ele>35.8</ele>
        <time>2021-05-17T10:54:54Z</time>
      </trkpt>
      <trkpt lat="41.5825400" lon="-8.7863920">
        <ele>35.8</ele>
        <time>2021-05-17T10:54:55Z</time>
      </trkpt>
      <trkpt lat="41.5825510" lon="-8.7863960">
        <ele>35.9</ele>
        <time>2021-05-17T10:54:56Z</time>
      </trkpt>
      <trkpt lat="41.5825600" lon="-8.7864110">
        <ele>35.9</ele>
        <time>2021-05-17T10:54:57Z</time>
      </trkpt>
      <trkpt lat="41.5825650" lon="-8.7864330">
        <ele>36.0</ele>
        <time>2021-05-17T10:54:58Z</time>
      </trkpt>
      <trkpt lat="41.5825700" lon="-8.7864470">
        <ele>36.0</ele>
        <time>2021-05-17T10:54:59Z</time>
      </trkpt>
      <trkpt lat="41.5825760" lon="-8.7864710">
        <ele>36.1</ele>
        <time>2021-05-17T10:55:00Z</time>
      </trkpt>
      <trkpt lat="41.5825770" lon="-8.7864840">
        <ele>36.2</ele>
        <time>2021-05-17T10:55:01Z</time>
      </trkpt>
      <trkpt lat="41.5825780" lon="-8.7864960">
        <ele>36.2</ele>
        <time>2021-05-17T10:55:02Z</time>
      </trkpt>
      <trkpt lat="41.5825950" lon="-8.7865150">
        <ele>36.3</ele>
        <time>2021-05-17T10:55:03Z</time>
      </trkpt>
      <trkpt lat="41.5826020" lon="-8.7865260">
        <ele>36.4</ele>
        <time>2021-05-17T10:55:04Z</time>
      </trkpt>
      <trkpt lat="41.5826080" lon="-8.7865380">
        <ele>36.4</ele>
        <time>2021-05-17T10:55:05Z</time>
      </trkpt>
      <trkpt lat="41.5826160" lon="-8.7865560">
        <ele>36.5</ele>
        <time>2021-05-17T10:55:06Z</time>
      </trkpt>
      <trkpt lat="41.5826220" lon="-8.7865800">
        <ele>36.6</ele>
        <time>2021-05-17T10:55:07Z</time>
      </trkpt>
      <trkpt lat="41.5826330" lon="-8.7865990">
        <ele>36.7</ele>
        <time>2021-05-17T10:55:08Z</time>
      </trkpt>
      <trkpt lat="41.5826400" lon="-8.7866100">
        <ele>36.8</ele>
        <time>2021-05-17T10:55:09Z</time>
      </trkpt>
      <trkpt lat="41.5826460" lon="-8.7866210">
        <ele>36.8</ele>
        <time>2021-05-17T10:55:10Z</time>
      </trkpt>
      <trkpt lat="41.5826580" lon="-8.7866550">
        <ele>37.0</ele>
        <time>2021-05-17T10:55:11Z</time>
      </trkpt>
      <trkpt lat="41.5826630" lon="-8.7866650">
        <ele>37.1</ele>
        <time>2021-05-17T10:55:12Z</time>
      </trkpt>
      <trkpt lat="41.5826680" lon="-8.7866760">
        <ele>37.2</ele>
        <time>2021-05-17T10:55:13Z</time>
      </trkpt>
      <trkpt lat="41.5826780" lon="-8.7866890">
        <ele>37.3</ele>
        <time>2021-05-17T10:55:14Z</time>
      </trkpt>
      <trkpt lat="41.5826860" lon="-8.7866980">
        <ele>37.3</ele>
        <time>2021-05-17T10:55:15Z</time>
      </trkpt>
      <trkpt lat="41.5826890" lon="-8.7867200">
        <ele>37.4</ele>
        <time>2021-05-17T10:55:16Z</time>
      </trkpt>
      <trkpt lat="41.5826890" lon="-8.7867370">
        <ele>37.5</ele>
        <time>2021-05-17T10:55:17Z</time>
      </trkpt>
      <trkpt lat="41.5826940" lon="-8.7867570">
        <ele>37.6</ele>
        <time>2021-05-17T10:55:18Z</time>
      </trkpt>
      <trkpt lat="41.5827010" lon="-8.7867620">
        <ele>37.7</ele>
        <time>2021-05-17T10:55:19Z</time>
      </trkpt>
      <trkpt lat="41.5827030" lon="-8.7867770">
        <ele>37.8</ele>
        <time>2021-05-17T10:55:20Z</time>
      </trkpt>
      <trkpt lat="41.5827090" lon="-8.7867880">
        <ele>37.8</ele>
        <time>2021-05-17T10:55:21Z</time>
      </trkpt>
      <trkpt lat="41.5827190" lon="-8.7867950">
        <ele>37.9</ele>
        <time>2021-05-17T10:55:22Z</time>
      </trkpt>
      <trkpt lat="41.5827190" lon="-8.7868160">
        <ele>38.0</ele>
        <time>2021-05-17T10:55:23Z</time>
      </trkpt>
      <trkpt lat="41.5827250" lon="-8.7868410">
        <ele>38.1</ele>
        <time>2021-05-17T10:55:24Z</time>
      </trkpt>
      <trkpt lat="41.5827380" lon="-8.7868510">
        <ele>38.2</ele>
        <time>2021-05-17T10:55:25Z</time>
      </trkpt>
      <trkpt lat="41.5827420" lon="-8.7868780">
        <ele>38.3</ele>
        <time>2021-05-17T10:55:26Z</time>
      </trkpt>
      <trkpt lat="41.5827520" lon="-8.7868930">
        <ele>38.4</ele>
        <time>2021-05-17T10:55:27Z</time>
      </trkpt>
      <trkpt lat="41.5827660" lon="-8.7869150">
        <ele>38.5</ele>
        <time>2021-05-17T10:55:28Z</time>
      </trkpt>
      <trkpt lat="41.5827740" lon="-8.7869240">
        <ele>38.5</ele>
        <time>2021-05-17T10:55:29Z</time>
      </trkpt>
      <trkpt lat="41.5827820" lon="-8.7869330">
        <ele>38.6</ele>
        <time>2021-05-17T10:55:30Z</time>
      </trkpt>
      <trkpt lat="41.5828030" lon="-8.7869560">
        <ele>38.7</ele>
        <time>2021-05-17T10:55:31Z</time>
      </trkpt>
      <trkpt lat="41.5828120" lon="-8.7869640">
        <ele>38.7</ele>
        <time>2021-05-17T10:55:32Z</time>
      </trkpt>
      <trkpt lat="41.5828230" lon="-8.7869720">
        <ele>38.9</ele>
        <time>2021-05-17T10:55:33Z</time>
      </trkpt>
      <trkpt lat="41.5828390" lon="-8.7869820">
        <ele>38.9</ele>
        <time>2021-05-17T10:55:34Z</time>
      </trkpt>
      <trkpt lat="41.5828640" lon="-8.7870040">
        <ele>38.9</ele>
        <time>2021-05-17T10:55:35Z</time>
      </trkpt>
      <trkpt lat="41.5828700" lon="-8.7870120">
        <ele>38.9</ele>
        <time>2021-05-17T10:55:36Z</time>
      </trkpt>
      <trkpt lat="41.5828910" lon="-8.7870040">
        <ele>39.0</ele>
        <time>2021-05-17T10:55:37Z</time>
      </trkpt>
      <trkpt lat="41.5829020" lon="-8.7869970">
        <ele>39.0</ele>
        <time>2021-05-17T10:55:38Z</time>
      </trkpt>
      <trkpt lat="41.5829130" lon="-8.7869890">
        <ele>39.0</ele>
        <time>2021-05-17T10:55:39Z</time>
      </trkpt>
      <trkpt lat="41.5829410" lon="-8.7869660">
        <ele>39.0</ele>
        <time>2021-05-17T10:55:40Z</time>
      </trkpt>
      <trkpt lat="41.5829490" lon="-8.7869610">
        <ele>39.1</ele>
        <time>2021-05-17T10:55:41Z</time>
      </trkpt>
      <trkpt lat="41.5829810" lon="-8.7869500">
        <ele>39.1</ele>
        <time>2021-05-17T10:55:42Z</time>
      </trkpt>
      <trkpt lat="41.5829920" lon="-8.7869490">
        <ele>39.1</ele>
        <time>2021-05-17T10:55:43Z</time>
      </trkpt>
      <trkpt lat="41.5830070" lon="-8.7869400">
        <ele>39.2</ele>
        <time>2021-05-17T10:55:44Z</time>
      </trkpt>
      <trkpt lat="41.5830200" lon="-8.7869370">
        <ele>39.2</ele>
        <time>2021-05-17T10:55:45Z</time>
      </trkpt>
      <trkpt lat="41.5830450" lon="-8.7869210">
        <ele>39.2</ele>
        <time>2021-05-17T10:55:46Z</time>
      </trkpt>
      <trkpt lat="41.5830540" lon="-8.7869180">
        <ele>39.3</ele>
        <time>2021-05-17T10:55:47Z</time>
      </trkpt>
      <trkpt lat="41.5830680" lon="-8.7869020">
        <ele>39.3</ele>
        <time>2021-05-17T10:55:48Z</time>
      </trkpt>
      <trkpt lat="41.5830840" lon="-8.7868940">
        <ele>39.3</ele>
        <time>2021-05-17T10:55:49Z</time>
      </trkpt>
      <trkpt lat="41.5831000" lon="-8.7868860">
        <ele>39.4</ele>
        <time>2021-05-17T10:55:50Z</time>
      </trkpt>
      <trkpt lat="41.5831160" lon="-8.7868780">
        <ele>39.4</ele>
        <time>2021-05-17T10:55:51Z</time>
      </trkpt>
      <trkpt lat="41.5831300" lon="-8.7868680">
        <ele>39.4</ele>
        <time>2021-05-17T10:55:52Z</time>
      </trkpt>
      <trkpt lat="41.5831430" lon="-8.7868640">
        <ele>39.4</ele>
        <time>2021-05-17T10:55:53Z</time>
      </trkpt>
      <trkpt lat="41.5831580" lon="-8.7868460">
        <ele>39.5</ele>
        <time>2021-05-17T10:55:54Z</time>
      </trkpt>
      <trkpt lat="41.5831740" lon="-8.7868420">
        <ele>39.5</ele>
        <time>2021-05-17T10:55:55Z</time>
      </trkpt>
      <trkpt lat="41.5831870" lon="-8.7868310">
        <ele>39.5</ele>
        <time>2021-05-17T10:55:56Z</time>
      </trkpt>
      <trkpt lat="41.5832050" lon="-8.7868330">
        <ele>39.5</ele>
        <time>2021-05-17T10:55:57Z</time>
      </trkpt>
      <trkpt lat="41.5832180" lon="-8.7868240">
        <ele>39.5</ele>
        <time>2021-05-17T10:55:58Z</time>
      </trkpt>
      <trkpt lat="41.5832310" lon="-8.7868160">
        <ele>39.5</ele>
        <time>2021-05-17T10:55:59Z</time>
      </trkpt>
      <trkpt lat="41.5832450" lon="-8.7868070">
        <ele>39.5</ele>
        <time>2021-05-17T10:56:00Z</time>
      </trkpt>
      <trkpt lat="41.5832590" lon="-8.7867990">
        <ele>39.5</ele>
        <time>2021-05-17T10:56:01Z</time>
      </trkpt>
      <trkpt lat="41.5832730" lon="-8.7867890">
        <ele>39.5</ele>
        <time>2021-05-17T10:56:02Z</time>
      </trkpt>
      <trkpt lat="41.5832880" lon="-8.7867850">
        <ele>39.5</ele>
        <time>2021-05-17T10:56:03Z</time>
      </trkpt>
      <trkpt lat="41.5833040" lon="-8.7867760">
        <ele>39.5</ele>
        <time>2021-05-17T10:56:04Z</time>
      </trkpt>
      <trkpt lat="41.5833170" lon="-8.7867700">
        <ele>39.5</ele>
        <time>2021-05-17T10:56:05Z</time>
      </trkpt>
      <trkpt lat="41.5833340" lon="-8.7867630">
        <ele>39.5</ele>
        <time>2021-05-17T10:56:06Z</time>
      </trkpt>
      <trkpt lat="41.5833430" lon="-8.7867460">
        <ele>39.5</ele>
        <time>2021-05-17T10:56:07Z</time>
      </trkpt>
      <trkpt lat="41.5833580" lon="-8.7867420">
        <ele>39.5</ele>
        <time>2021-05-17T10:56:08Z</time>
      </trkpt>
      <trkpt lat="41.5833720" lon="-8.7867380">
        <ele>39.5</ele>
        <time>2021-05-17T10:56:09Z</time>
      </trkpt>
      <trkpt lat="41.5833850" lon="-8.7867320">
        <ele>39.5</ele>
        <time>2021-05-17T10:56:10Z</time>
      </trkpt>
      <trkpt lat="41.5834020" lon="-8.7867350">
        <ele>39.5</ele>
        <time>2021-05-17T10:56:11Z</time>
      </trkpt>
      <trkpt lat="41.5834170" lon="-8.7867340">
        <ele>39.4</ele>
        <time>2021-05-17T10:56:12Z</time>
      </trkpt>
      <trkpt lat="41.5834310" lon="-8.7867180">
        <ele>39.4</ele>
        <time>2021-05-17T10:56:13Z</time>
      </trkpt>
      <trkpt lat="41.5834440" lon="-8.7867060">
        <ele>39.4</ele>
        <time>2021-05-17T10:56:14Z</time>
      </trkpt>
      <trkpt lat="41.5834570" lon="-8.7867010">
        <ele>39.4</ele>
        <time>2021-05-17T10:56:15Z</time>
      </trkpt>
      <trkpt lat="41.5834740" lon="-8.7866940">
        <ele>39.3</ele>
        <time>2021-05-17T10:56:16Z</time>
      </trkpt>
      <trkpt lat="41.5834910" lon="-8.7866850">
        <ele>39.3</ele>
        <time>2021-05-17T10:56:17Z</time>
      </trkpt>
      <trkpt lat="41.5835070" lon="-8.7866810">
        <ele>39.3</ele>
        <time>2021-05-17T10:56:18Z</time>
      </trkpt>
      <trkpt lat="41.5835210" lon="-8.7866750">
        <ele>39.3</ele>
        <time>2021-05-17T10:56:19Z</time>
      </trkpt>
      <trkpt lat="41.5835340" lon="-8.7866640">
        <ele>39.2</ele>
        <time>2021-05-17T10:56:20Z</time>
      </trkpt>
      <trkpt lat="41.5835480" lon="-8.7866540">
        <ele>39.2</ele>
        <time>2021-05-17T10:56:21Z</time>
      </trkpt>
      <trkpt lat="41.5835630" lon="-8.7866490">
        <ele>39.2</ele>
        <time>2021-05-17T10:56:22Z</time>
      </trkpt>
      <trkpt lat="41.5835780" lon="-8.7866530">
        <ele>39.2</ele>
        <time>2021-05-17T10:56:23Z</time>
      </trkpt>
      <trkpt lat="41.5835940" lon="-8.7866490">
        <ele>39.1</ele>
        <time>2021-05-17T10:56:24Z</time>
      </trkpt>
      <trkpt lat="41.5836090" lon="-8.7866460">
        <ele>39.1</ele>
        <time>2021-05-17T10:56:25Z</time>
      </trkpt>
      <trkpt lat="41.5836230" lon="-8.7866450">
        <ele>39.1</ele>
        <time>2021-05-17T10:56:26Z</time>
      </trkpt>
      <trkpt lat="41.5836370" lon="-8.7866340">
        <ele>39.1</ele>
        <time>2021-05-17T10:56:27Z</time>
      </trkpt>
      <trkpt lat="41.5836530" lon="-8.7866370">
        <ele>39.1</ele>
        <time>2021-05-17T10:56:28Z</time>
      </trkpt>
      <trkpt lat="41.5836660" lon="-8.7866330">
        <ele>39.1</ele>
        <time>2021-05-17T10:56:29Z</time>
      </trkpt>
      <trkpt lat="41.5836790" lon="-8.7866320">
        <ele>39.0</ele>
        <time>2021-05-17T10:56:30Z</time>
      </trkpt>
      <trkpt lat="41.5836930" lon="-8.7866270">
        <ele>39.0</ele>
        <time>2021-05-17T10:56:31Z</time>
      </trkpt>
      <trkpt lat="41.5837090" lon="-8.7866250">
        <ele>39.0</ele>
        <time>2021-05-17T10:56:32Z</time>
      </trkpt>
      <trkpt lat="41.5837240" lon="-8.7866230">
        <ele>39.0</ele>
        <time>2021-05-17T10:56:33Z</time>
      </trkpt>
      <trkpt lat="41.5837390" lon="-8.7866190">
        <ele>39.0</ele>
        <time>2021-05-17T10:56:34Z</time>
      </trkpt>
      <trkpt lat="41.5837520" lon="-8.7866220">
        <ele>39.0</ele>
        <time>2021-05-17T10:56:35Z</time>
      </trkpt>
      <trkpt lat="41.5837670" lon="-8.7866180">
        <ele>39.0</ele>
        <time>2021-05-17T10:56:36Z</time>
      </trkpt>
      <trkpt lat="41.5837790" lon="-8.7866070">
        <ele>38.9</ele>
        <time>2021-05-17T10:56:37Z</time>
      </trkpt>
      <trkpt lat="41.5838000" lon="-8.7866030">
        <ele>38.9</ele>
        <time>2021-05-17T10:56:38Z</time>
      </trkpt>
      <trkpt lat="41.5838080" lon="-8.7865990">
        <ele>38.9</ele>
        <time>2021-05-17T10:56:39Z</time>
      </trkpt>
      <trkpt lat="41.5838160" lon="-8.7865960">
        <ele>38.9</ele>
        <time>2021-05-17T10:56:40Z</time>
      </trkpt>
      <trkpt lat="41.5838300" lon="-8.7865940">
        <ele>38.9</ele>
        <time>2021-05-17T10:56:41Z</time>
      </trkpt>
      <trkpt lat="41.5838450" lon="-8.7865980">
        <ele>38.9</ele>
        <time>2021-05-17T10:56:42Z</time>
      </trkpt>
      <trkpt lat="41.5838560" lon="-8.7866060">
        <ele>38.9</ele>
        <time>2021-05-17T10:56:43Z</time>
      </trkpt>
      <trkpt lat="41.5838680" lon="-8.7866050">
        <ele>38.9</ele>
        <time>2021-05-17T10:56:44Z</time>
      </trkpt>
      <trkpt lat="41.5838760" lon="-8.7866110">
        <ele>38.9</ele>
        <time>2021-05-17T10:56:45Z</time>
      </trkpt>
      <trkpt lat="41.5838970" lon="-8.7866200">
        <ele>38.9</ele>
        <time>2021-05-17T10:56:46Z</time>
      </trkpt>
      <trkpt lat="41.5839050" lon="-8.7866190">
        <ele>38.9</ele>
        <time>2021-05-17T10:56:47Z</time>
      </trkpt>
      <trkpt lat="41.5839130" lon="-8.7866190">
        <ele>38.9</ele>
        <time>2021-05-17T10:56:48Z</time>
      </trkpt>
      <trkpt lat="41.5839330" lon="-8.7866180">
        <ele>38.9</ele>
        <time>2021-05-17T10:56:49Z</time>
      </trkpt>
      <trkpt lat="41.5839420" lon="-8.7866210">
        <ele>38.9</ele>
        <time>2021-05-17T10:56:50Z</time>
      </trkpt>
      <trkpt lat="41.5839510" lon="-8.7866230">
        <ele>38.9</ele>
        <time>2021-05-17T10:56:51Z</time>
      </trkpt>
      <trkpt lat="41.5839640" lon="-8.7866240">
        <ele>38.9</ele>
        <time>2021-05-17T10:56:52Z</time>
      </trkpt>
      <trkpt lat="41.5839780" lon="-8.7866220">
        <ele>38.9</ele>
        <time>2021-05-17T10:56:53Z</time>
      </trkpt>
      <trkpt lat="41.5839980" lon="-8.7866230">
        <ele>38.9</ele>
        <time>2021-05-17T10:56:54Z</time>
      </trkpt>
      <trkpt lat="41.5840060" lon="-8.7866220">
        <ele>38.9</ele>
        <time>2021-05-17T10:56:55Z</time>
      </trkpt>
      <trkpt lat="41.5840140" lon="-8.7866220">
        <ele>38.9</ele>
        <time>2021-05-17T10:56:56Z</time>
      </trkpt>
      <trkpt lat="41.5840280" lon="-8.7866210">
        <ele>38.9</ele>
        <time>2021-05-17T10:56:57Z</time>
      </trkpt>
      <trkpt lat="41.5840430" lon="-8.7866200">
        <ele>39.0</ele>
        <time>2021-05-17T10:56:58Z</time>
      </trkpt>
      <trkpt lat="41.5840580" lon="-8.7866170">
        <ele>39.0</ele>
        <time>2021-05-17T10:56:59Z</time>
      </trkpt>
      <trkpt lat="41.5840720" lon="-8.7866100">
        <ele>39.0</ele>
        <time>2021-05-17T10:57:00Z</time>
      </trkpt>
      <trkpt lat="41.5840870" lon="-8.7865990">
        <ele>39.0</ele>
        <time>2021-05-17T10:57:01Z</time>
      </trkpt>
      <trkpt lat="41.5841000" lon="-8.7865960">
        <ele>39.1</ele>
        <time>2021-05-17T10:57:02Z</time>
      </trkpt>
      <trkpt lat="41.5841120" lon="-8.7865940">
        <ele>39.1</ele>
        <time>2021-05-17T10:57:03Z</time>
      </trkpt>
      <trkpt lat="41.5841270" lon="-8.7865900">
        <ele>39.1</ele>
        <time>2021-05-17T10:57:04Z</time>
      </trkpt>
      <trkpt lat="41.5841400" lon="-8.7865840">
        <ele>39.1</ele>
        <time>2021-05-17T10:57:05Z</time>
      </trkpt>
      <trkpt lat="41.5841560" lon="-8.7865830">
        <ele>39.2</ele>
        <time>2021-05-17T10:57:06Z</time>
      </trkpt>
      <trkpt lat="41.5841720" lon="-8.7865830">
        <ele>39.2</ele>
        <time>2021-05-17T10:57:07Z</time>
      </trkpt>
      <trkpt lat="41.5841860" lon="-8.7865770">
        <ele>39.3</ele>
        <time>2021-05-17T10:57:08Z</time>
      </trkpt>
      <trkpt lat="41.5841990" lon="-8.7865670">
        <ele>39.3</ele>
        <time>2021-05-17T10:57:09Z</time>
      </trkpt>
      <trkpt lat="41.5842130" lon="-8.7865640">
        <ele>39.4</ele>
        <time>2021-05-17T10:57:10Z</time>
      </trkpt>
      <trkpt lat="41.5842220" lon="-8.7865510">
        <ele>39.4</ele>
        <time>2021-05-17T10:57:11Z</time>
      </trkpt>
      <trkpt lat="41.5842370" lon="-8.7865360">
        <ele>39.5</ele>
        <time>2021-05-17T10:57:12Z</time>
      </trkpt>
      <trkpt lat="41.5842510" lon="-8.7865220">
        <ele>39.5</ele>
        <time>2021-05-17T10:57:13Z</time>
      </trkpt>
      <trkpt lat="41.5842660" lon="-8.7865100">
        <ele>39.6</ele>
        <time>2021-05-17T10:57:14Z</time>
      </trkpt>
      <trkpt lat="41.5842800" lon="-8.7864950">
        <ele>39.7</ele>
        <time>2021-05-17T10:57:15Z</time>
      </trkpt>
      <trkpt lat="41.5842950" lon="-8.7864840">
        <ele>39.8</ele>
        <time>2021-05-17T10:57:16Z</time>
      </trkpt>
      <trkpt lat="41.5843080" lon="-8.7864700">
        <ele>39.8</ele>
        <time>2021-05-17T10:57:17Z</time>
      </trkpt>
      <trkpt lat="41.5843230" lon="-8.7864630">
        <ele>39.9</ele>
        <time>2021-05-17T10:57:18Z</time>
      </trkpt>
      <trkpt lat="41.5843350" lon="-8.7864520">
        <ele>40.0</ele>
        <time>2021-05-17T10:57:19Z</time>
      </trkpt>
      <trkpt lat="41.5843490" lon="-8.7864440">
        <ele>40.1</ele>
        <time>2021-05-17T10:57:20Z</time>
      </trkpt>
      <trkpt lat="41.5843610" lon="-8.7864290">
        <ele>40.2</ele>
        <time>2021-05-17T10:57:21Z</time>
      </trkpt>
      <trkpt lat="41.5843720" lon="-8.7864190">
        <ele>40.3</ele>
        <time>2021-05-17T10:57:22Z</time>
      </trkpt>
      <trkpt lat="41.5843830" lon="-8.7864090">
        <ele>40.4</ele>
        <time>2021-05-17T10:57:23Z</time>
      </trkpt>
      <trkpt lat="41.5843990" lon="-8.7864010">
        <ele>40.5</ele>
        <time>2021-05-17T10:57:24Z</time>
      </trkpt>
      <trkpt lat="41.5844130" lon="-8.7863810">
        <ele>40.6</ele>
        <time>2021-05-17T10:57:25Z</time>
      </trkpt>
      <trkpt lat="41.5844200" lon="-8.7863740">
        <ele>40.7</ele>
        <time>2021-05-17T10:57:26Z</time>
      </trkpt>
      <trkpt lat="41.5844270" lon="-8.7863660">
        <ele>40.7</ele>
        <time>2021-05-17T10:57:27Z</time>
      </trkpt>
      <trkpt lat="41.5844410" lon="-8.7863440">
        <ele>40.9</ele>
        <time>2021-05-17T10:57:28Z</time>
      </trkpt>
      <trkpt lat="41.5844460" lon="-8.7863350">
        <ele>41.0</ele>
        <time>2021-05-17T10:57:29Z</time>
      </trkpt>
      <trkpt lat="41.5844500" lon="-8.7863250">
        <ele>41.0</ele>
        <time>2021-05-17T10:57:30Z</time>
      </trkpt>
      <trkpt lat="41.5844530" lon="-8.7863070">
        <ele>41.1</ele>
        <time>2021-05-17T10:57:31Z</time>
      </trkpt>
      <trkpt lat="41.5844560" lon="-8.7862870">
        <ele>41.2</ele>
        <time>2021-05-17T10:57:32Z</time>
      </trkpt>
      <trkpt lat="41.5844590" lon="-8.7862690">
        <ele>41.3</ele>
        <time>2021-05-17T10:57:33Z</time>
      </trkpt>
      <trkpt lat="41.5844650" lon="-8.7862550">
        <ele>41.4</ele>
        <time>2021-05-17T10:57:34Z</time>
      </trkpt>
      <trkpt lat="41.5844590" lon="-8.7862390">
        <ele>41.6</ele>
        <time>2021-05-17T10:57:35Z</time>
      </trkpt>
      <trkpt lat="41.5844610" lon="-8.7862230">
        <ele>41.7</ele>
        <time>2021-05-17T10:57:36Z</time>
      </trkpt>
      <trkpt lat="41.5844550" lon="-8.7862140">
        <ele>41.7</ele>
        <time>2021-05-17T10:57:37Z</time>
      </trkpt>
      <trkpt lat="41.5844490" lon="-8.7861990">
        <ele>41.8</ele>
        <time>2021-05-17T10:57:38Z</time>
      </trkpt>
      <trkpt lat="41.5844500" lon="-8.7861930">
        <ele>41.9</ele>
        <time>2021-05-17T10:57:39Z</time>
      </trkpt>
      <trkpt lat="41.5844490" lon="-8.7861760">
        <ele>42.0</ele>
        <time>2021-05-17T10:57:40Z</time>
      </trkpt>
      <trkpt lat="41.5844440" lon="-8.7861660">
        <ele>42.0</ele>
        <time>2021-05-17T10:57:41Z</time>
      </trkpt>
      <trkpt lat="41.5844450" lon="-8.7861540">
        <ele>42.1</ele>
        <time>2021-05-17T10:57:42Z</time>
      </trkpt>
      <trkpt lat="41.5844440" lon="-8.7861270">
        <ele>42.3</ele>
        <time>2021-05-17T10:57:43Z</time>
      </trkpt>
      <trkpt lat="41.5844420" lon="-8.7861160">
        <ele>42.4</ele>
        <time>2021-05-17T10:57:44Z</time>
      </trkpt>
      <trkpt lat="41.5844390" lon="-8.7861050">
        <ele>42.4</ele>
        <time>2021-05-17T10:57:45Z</time>
      </trkpt>
      <trkpt lat="41.5844360" lon="-8.7860800">
        <ele>42.6</ele>
        <time>2021-05-17T10:57:46Z</time>
      </trkpt>
      <trkpt lat="41.5844360" lon="-8.7860690">
        <ele>42.7</ele>
        <time>2021-05-17T10:57:47Z</time>
      </trkpt>
      <trkpt lat="41.5844360" lon="-8.7860570">
        <ele>42.7</ele>
        <time>2021-05-17T10:57:48Z</time>
      </trkpt>
      <trkpt lat="41.5844360" lon="-8.7860460">
        <ele>42.8</ele>
        <time>2021-05-17T10:57:49Z</time>
      </trkpt>
      <trkpt lat="41.5844290" lon="-8.7860310">
        <ele>42.9</ele>
        <time>2021-05-17T10:57:50Z</time>
      </trkpt>
      <trkpt lat="41.5844360" lon="-8.7860080">
        <ele>43.0</ele>
        <time>2021-05-17T10:57:51Z</time>
      </trkpt>
      <trkpt lat="41.5844330" lon="-8.7859910">
        <ele>43.1</ele>
        <time>2021-05-17T10:57:52Z</time>
      </trkpt>
      <trkpt lat="41.5844320" lon="-8.7859790">
        <ele>43.2</ele>
        <time>2021-05-17T10:57:53Z</time>
      </trkpt>
      <trkpt lat="41.5844350" lon="-8.7859610">
        <ele>43.2</ele>
        <time>2021-05-17T10:57:54Z</time>
      </trkpt>
      <trkpt lat="41.5844370" lon="-8.7859580">
        <ele>43.3</ele>
        <time>2021-05-17T10:57:55Z</time>
      </trkpt>
      <trkpt lat="41.5844420" lon="-8.7859500">
        <ele>43.3</ele>
        <time>2021-05-17T10:57:56Z</time>
      </trkpt>
      <trkpt lat="41.5844440" lon="-8.7859260">
        <ele>43.4</ele>
        <time>2021-05-17T10:57:57Z</time>
      </trkpt>
      <trkpt lat="41.5844530" lon="-8.7859060">
        <ele>43.5</ele>
        <time>2021-05-17T10:57:58Z</time>
      </trkpt>
      <trkpt lat="41.5844590" lon="-8.7858960">
        <ele>43.5</ele>
        <time>2021-05-17T10:57:59Z</time>
      </trkpt>
      <trkpt lat="41.5844660" lon="-8.7858860">
        <ele>43.6</ele>
        <time>2021-05-17T10:58:00Z</time>
      </trkpt>
      <trkpt lat="41.5844830" lon="-8.7858650">
        <ele>43.7</ele>
        <time>2021-05-17T10:58:01Z</time>
      </trkpt>
      <trkpt lat="41.5844900" lon="-8.7858590">
        <ele>43.7</ele>
        <time>2021-05-17T10:58:02Z</time>
      </trkpt>
      <trkpt lat="41.5844980" lon="-8.7858530">
        <ele>43.7</ele>
        <time>2021-05-17T10:58:03Z</time>
      </trkpt>
      <trkpt lat="41.5845100" lon="-8.7858330">
        <ele>43.8</ele>
        <time>2021-05-17T10:58:04Z</time>
      </trkpt>
      <trkpt lat="41.5845240" lon="-8.7858300">
        <ele>43.8</ele>
        <time>2021-05-17T10:58:05Z</time>
      </trkpt>
      <trkpt lat="41.5845340" lon="-8.7858270">
        <ele>43.9</ele>
        <time>2021-05-17T10:58:06Z</time>
      </trkpt>
      <trkpt lat="41.5845450" lon="-8.7858200">
        <ele>43.9</ele>
        <time>2021-05-17T10:58:07Z</time>
      </trkpt>
      <trkpt lat="41.5845530" lon="-8.7858160">
        <ele>43.9</ele>
        <time>2021-05-17T10:58:08Z</time>
      </trkpt>
      <trkpt lat="41.5845690" lon="-8.7858040">
        <ele>43.9</ele>
        <time>2021-05-17T10:58:09Z</time>
      </trkpt>
      <trkpt lat="41.5845820" lon="-8.7857890">
        <ele>44.0</ele>
        <time>2021-05-17T10:58:10Z</time>
      </trkpt>
      <trkpt lat="41.5845920" lon="-8.7857830">
        <ele>44.0</ele>
        <time>2021-05-17T10:58:11Z</time>
      </trkpt>
      <trkpt lat="41.5846100" lon="-8.7857760">
        <ele>44.0</ele>
        <time>2021-05-17T10:58:12Z</time>
      </trkpt>
      <trkpt lat="41.5846240" lon="-8.7857610">
        <ele>44.0</ele>
        <time>2021-05-17T10:58:13Z</time>
      </trkpt>
      <trkpt lat="41.5846360" lon="-8.7857480">
        <ele>44.0</ele>
        <time>2021-05-17T10:58:14Z</time>
      </trkpt>
      <trkpt lat="41.5846500" lon="-8.7857400">
        <ele>44.0</ele>
        <time>2021-05-17T10:58:15Z</time>
      </trkpt>
      <trkpt lat="41.5846630" lon="-8.7857320">
        <ele>44.0</ele>
        <time>2021-05-17T10:58:16Z</time>
      </trkpt>
      <trkpt lat="41.5846780" lon="-8.7857190">
        <ele>44.0</ele>
        <time>2021-05-17T10:58:17Z</time>
      </trkpt>
      <trkpt lat="41.5846970" lon="-8.7857200">
        <ele>44.0</ele>
        <time>2021-05-17T10:58:18Z</time>
      </trkpt>
      <trkpt lat="41.5847090" lon="-8.7857100">
        <ele>44.0</ele>
        <time>2021-05-17T10:58:19Z</time>
      </trkpt>
      <trkpt lat="41.5847220" lon="-8.7857010">
        <ele>44.0</ele>
        <time>2021-05-17T10:58:20Z</time>
      </trkpt>
      <trkpt lat="41.5847360" lon="-8.7856910">
        <ele>44.0</ele>
        <time>2021-05-17T10:58:21Z</time>
      </trkpt>
      <trkpt lat="41.5847500" lon="-8.7856800">
        <ele>43.9</ele>
        <time>2021-05-17T10:58:22Z</time>
      </trkpt>
      <trkpt lat="41.5847630" lon="-8.7856670">
        <ele>43.9</ele>
        <time>2021-05-17T10:58:23Z</time>
      </trkpt>
      <trkpt lat="41.5847750" lon="-8.7856620">
        <ele>43.9</ele>
        <time>2021-05-17T10:58:24Z</time>
      </trkpt>
      <trkpt lat="41.5847850" lon="-8.7856440">
        <ele>43.9</ele>
        <time>2021-05-17T10:58:25Z</time>
      </trkpt>
      <trkpt lat="41.5847950" lon="-8.7856360">
        <ele>43.9</ele>
        <time>2021-05-17T10:58:26Z</time>
      </trkpt>
      <trkpt lat="41.5848060" lon="-8.7856270">
        <ele>43.9</ele>
        <time>2021-05-17T10:58:27Z</time>
      </trkpt>
      <trkpt lat="41.5848200" lon="-8.7856160">
        <ele>43.9</ele>
        <time>2021-05-17T10:58:28Z</time>
      </trkpt>
      <trkpt lat="41.5848280" lon="-8.7856080">
        <ele>43.8</ele>
        <time>2021-05-17T10:58:29Z</time>
      </trkpt>
      <trkpt lat="41.5848240" lon="-8.7856090">
        <ele>43.8</ele>
        <time>2021-05-17T10:58:30Z</time>
      </trkpt>
      <trkpt lat="41.5848330" lon="-8.7856000">
        <ele>43.8</ele>
        <time>2021-05-17T10:58:31Z</time>
      </trkpt>
      <trkpt lat="41.5848470" lon="-8.7855960">
        <ele>43.8</ele>
        <time>2021-05-17T10:58:32Z</time>
      </trkpt>
      <trkpt lat="41.5848530" lon="-8.7855870">
        <ele>43.8</ele>
        <time>2021-05-17T10:58:33Z</time>
      </trkpt>
      <trkpt lat="41.5848630" lon="-8.7855800">
        <ele>43.8</ele>
        <time>2021-05-17T10:58:34Z</time>
      </trkpt>
      <trkpt lat="41.5848770" lon="-8.7855820">
        <ele>43.8</ele>
        <time>2021-05-17T10:58:35Z</time>
      </trkpt>
      <trkpt lat="41.5848990" lon="-8.7855620">
        <ele>43.7</ele>
        <time>2021-05-17T10:58:36Z</time>
      </trkpt>
      <trkpt lat="41.5849050" lon="-8.7855590">
        <ele>43.7</ele>
        <time>2021-05-17T10:58:37Z</time>
      </trkpt>
      <trkpt lat="41.5849110" lon="-8.7855560">
        <ele>43.7</ele>
        <time>2021-05-17T10:58:38Z</time>
      </trkpt>
      <trkpt lat="41.5849220" lon="-8.7855570">
        <ele>43.7</ele>
        <time>2021-05-17T10:58:39Z</time>
      </trkpt>
      <trkpt lat="41.5849380" lon="-8.7855450">
        <ele>43.7</ele>
        <time>2021-05-17T10:58:40Z</time>
      </trkpt>
      <trkpt lat="41.5849520" lon="-8.7855360">
        <ele>43.6</ele>
        <time>2021-05-17T10:58:41Z</time>
      </trkpt>
      <trkpt lat="41.5849670" lon="-8.7855320">
        <ele>43.6</ele>
        <time>2021-05-17T10:58:42Z</time>
      </trkpt>
      <trkpt lat="41.5849810" lon="-8.7855230">
        <ele>43.6</ele>
        <time>2021-05-17T10:58:43Z</time>
      </trkpt>
      <trkpt lat="41.5849970" lon="-8.7855230">
        <ele>43.6</ele>
        <time>2021-05-17T10:58:44Z</time>
      </trkpt>
      <trkpt lat="41.5850100" lon="-8.7855190">
        <ele>43.6</ele>
        <time>2021-05-17T10:58:45Z</time>
      </trkpt>
      <trkpt lat="41.5850250" lon="-8.7855140">
        <ele>43.6</ele>
        <time>2021-05-17T10:58:46Z</time>
      </trkpt>
      <trkpt lat="41.5850400" lon="-8.7855030">
        <ele>43.5</ele>
        <time>2021-05-17T10:58:47Z</time>
      </trkpt>
      <trkpt lat="41.5850600" lon="-8.7855040">
        <ele>43.5</ele>
        <time>2021-05-17T10:58:48Z</time>
      </trkpt>
      <trkpt lat="41.5850750" lon="-8.7854910">
        <ele>43.5</ele>
        <time>2021-05-17T10:58:49Z</time>
      </trkpt>
      <trkpt lat="41.5850910" lon="-8.7854860">
        <ele>43.5</ele>
        <time>2021-05-17T10:58:50Z</time>
      </trkpt>
      <trkpt lat="41.5851040" lon="-8.7854740">
        <ele>43.4</ele>
        <time>2021-05-17T10:58:51Z</time>
      </trkpt>
      <trkpt lat="41.5851180" lon="-8.7854720">
        <ele>43.4</ele>
        <time>2021-05-17T10:58:52Z</time>
      </trkpt>
      <trkpt lat="41.5851300" lon="-8.7854690">
        <ele>43.4</ele>
        <time>2021-05-17T10:58:53Z</time>
      </trkpt>
      <trkpt lat="41.5851440" lon="-8.7854580">
        <ele>43.4</ele>
        <time>2021-05-17T10:58:54Z</time>
      </trkpt>
      <trkpt lat="41.5851590" lon="-8.7854510">
        <ele>43.4</ele>
        <time>2021-05-17T10:58:55Z</time>
      </trkpt>
      <trkpt lat="41.5851740" lon="-8.7854420">
        <ele>43.3</ele>
        <time>2021-05-17T10:58:56Z</time>
      </trkpt>
      <trkpt lat="41.5851860" lon="-8.7854330">
        <ele>43.3</ele>
        <time>2021-05-17T10:58:57Z</time>
      </trkpt>
      <trkpt lat="41.5852020" lon="-8.7854310">
        <ele>43.3</ele>
        <time>2021-05-17T10:58:58Z</time>
      </trkpt>
      <trkpt lat="41.5852170" lon="-8.7854190">
        <ele>43.2</ele>
        <time>2021-05-17T10:58:59Z</time>
      </trkpt>
      <trkpt lat="41.5852320" lon="-8.7854100">
        <ele>43.2</ele>
        <time>2021-05-17T10:59:00Z</time>
      </trkpt>
      <trkpt lat="41.5852430" lon="-8.7854000">
        <ele>43.2</ele>
        <time>2021-05-17T10:59:01Z</time>
      </trkpt>
      <trkpt lat="41.5852560" lon="-8.7853920">
        <ele>43.2</ele>
        <time>2021-05-17T10:59:02Z</time>
      </trkpt>
      <trkpt lat="41.5852700" lon="-8.7853860">
        <ele>43.1</ele>
        <time>2021-05-17T10:59:03Z</time>
      </trkpt>
      <trkpt lat="41.5852850" lon="-8.7853800">
        <ele>43.1</ele>
        <time>2021-05-17T10:59:04Z</time>
      </trkpt>
      <trkpt lat="41.5852990" lon="-8.7853670">
        <ele>43.0</ele>
        <time>2021-05-17T10:59:05Z</time>
      </trkpt>
      <trkpt lat="41.5853140" lon="-8.7853550">
        <ele>43.0</ele>
        <time>2021-05-17T10:59:06Z</time>
      </trkpt>
      <trkpt lat="41.5853280" lon="-8.7853420">
        <ele>42.9</ele>
        <time>2021-05-17T10:59:07Z</time>
      </trkpt>
      <trkpt lat="41.5853430" lon="-8.7853390">
        <ele>42.8</ele>
        <time>2021-05-17T10:59:08Z</time>
      </trkpt>
      <trkpt lat="41.5853510" lon="-8.7853160">
        <ele>42.8</ele>
        <time>2021-05-17T10:59:09Z</time>
      </trkpt>
      <trkpt lat="41.5853640" lon="-8.7853070">
        <ele>42.7</ele>
        <time>2021-05-17T10:59:10Z</time>
      </trkpt>
      <trkpt lat="41.5853790" lon="-8.7852950">
        <ele>42.6</ele>
        <time>2021-05-17T10:59:11Z</time>
      </trkpt>
      <trkpt lat="41.5853950" lon="-8.7852920">
        <ele>42.6</ele>
        <time>2021-05-17T10:59:12Z</time>
      </trkpt>
      <trkpt lat="41.5854090" lon="-8.7852830">
        <ele>42.5</ele>
        <time>2021-05-17T10:59:13Z</time>
      </trkpt>
      <trkpt lat="41.5854230" lon="-8.7852750">
        <ele>42.4</ele>
        <time>2021-05-17T10:59:14Z</time>
      </trkpt>
      <trkpt lat="41.5854350" lon="-8.7852680">
        <ele>42.3</ele>
        <time>2021-05-17T10:59:15Z</time>
      </trkpt>
      <trkpt lat="41.5854470" lon="-8.7852490">
        <ele>42.2</ele>
        <time>2021-05-17T10:59:16Z</time>
      </trkpt>
      <trkpt lat="41.5854620" lon="-8.7852460">
        <ele>42.1</ele>
        <time>2021-05-17T10:59:17Z</time>
      </trkpt>
      <trkpt lat="41.5854720" lon="-8.7852260">
        <ele>42.0</ele>
        <time>2021-05-17T10:59:18Z</time>
      </trkpt>
      <trkpt lat="41.5854840" lon="-8.7852140">
        <ele>41.9</ele>
        <time>2021-05-17T10:59:19Z</time>
      </trkpt>
      <trkpt lat="41.5854950" lon="-8.7851990">
        <ele>41.8</ele>
        <time>2021-05-17T10:59:20Z</time>
      </trkpt>
      <trkpt lat="41.5855070" lon="-8.7851870">
        <ele>41.7</ele>
        <time>2021-05-17T10:59:21Z</time>
      </trkpt>
      <trkpt lat="41.5855170" lon="-8.7851720">
        <ele>41.6</ele>
        <time>2021-05-17T10:59:22Z</time>
      </trkpt>
      <trkpt lat="41.5855280" lon="-8.7851590">
        <ele>41.5</ele>
        <time>2021-05-17T10:59:23Z</time>
      </trkpt>
      <trkpt lat="41.5855360" lon="-8.7851450">
        <ele>41.4</ele>
        <time>2021-05-17T10:59:24Z</time>
      </trkpt>
      <trkpt lat="41.5855420" lon="-8.7851340">
        <ele>41.3</ele>
        <time>2021-05-17T10:59:25Z</time>
      </trkpt>
      <trkpt lat="41.5855470" lon="-8.7851160">
        <ele>41.2</ele>
        <time>2021-05-17T10:59:26Z</time>
      </trkpt>
      <trkpt lat="41.5855560" lon="-8.7851080">
        <ele>41.1</ele>
        <time>2021-05-17T10:59:27Z</time>
      </trkpt>
      <trkpt lat="41.5855600" lon="-8.7851050">
        <ele>41.1</ele>
        <time>2021-05-17T10:59:28Z</time>
      </trkpt>
      <trkpt lat="41.5855800" lon="-8.7850830">
        <ele>40.9</ele>
        <time>2021-05-17T10:59:29Z</time>
      </trkpt>
      <trkpt lat="41.5855860" lon="-8.7850800">
        <ele>40.9</ele>
        <time>2021-05-17T10:59:30Z</time>
      </trkpt>
      <trkpt lat="41.5856000" lon="-8.7850700">
        <ele>40.7</ele>
        <time>2021-05-17T10:59:31Z</time>
      </trkpt>
      <trkpt lat="41.5856100" lon="-8.7850750">
        <ele>40.7</ele>
        <time>2021-05-17T10:59:32Z</time>
      </trkpt>
      <trkpt lat="41.5856220" lon="-8.7850570">
        <ele>40.5</ele>
        <time>2021-05-17T10:59:33Z</time>
      </trkpt>
      <trkpt lat="41.5856370" lon="-8.7850580">
        <ele>40.4</ele>
        <time>2021-05-17T10:59:34Z</time>
      </trkpt>
      <trkpt lat="41.5856400" lon="-8.7850620">
        <ele>40.4</ele>
        <time>2021-05-17T10:59:35Z</time>
      </trkpt>
      <trkpt lat="41.5856470" lon="-8.7850650">
        <ele>40.3</ele>
        <time>2021-05-17T10:59:36Z</time>
      </trkpt>
      <trkpt lat="41.5856580" lon="-8.7850500">
        <ele>40.2</ele>
        <time>2021-05-17T10:59:37Z</time>
      </trkpt>
      <trkpt lat="41.5856610" lon="-8.7850380">
        <ele>40.1</ele>
        <time>2021-05-17T10:59:38Z</time>
      </trkpt>
      <trkpt lat="41.5856670" lon="-8.7850250">
        <ele>40.1</ele>
        <time>2021-05-17T10:59:39Z</time>
      </trkpt>
      <trkpt lat="41.5856750" lon="-8.7850160">
        <ele>40.0</ele>
        <time>2021-05-17T10:59:40Z</time>
      </trkpt>
      <trkpt lat="41.5856840" lon="-8.7850090">
        <ele>39.9</ele>
        <time>2021-05-17T10:59:41Z</time>
      </trkpt>
      <trkpt lat="41.5856950" lon="-8.7849970">
        <ele>39.8</ele>
        <time>2021-05-17T10:59:42Z</time>
      </trkpt>
      <trkpt lat="41.5857040" lon="-8.7849850">
        <ele>39.7</ele>
        <time>2021-05-17T10:59:43Z</time>
      </trkpt>
      <trkpt lat="41.5857110" lon="-8.7849740">
        <ele>39.7</ele>
        <time>2021-05-17T10:59:44Z</time>
      </trkpt>
      <trkpt lat="41.5857200" lon="-8.7849640">
        <ele>39.6</ele>
        <time>2021-05-17T10:59:45Z</time>
      </trkpt>
      <trkpt lat="41.5857300" lon="-8.7849520">
        <ele>39.5</ele>
        <time>2021-05-17T10:59:46Z</time>
      </trkpt>
      <trkpt lat="41.5857450" lon="-8.7849360">
        <ele>39.4</ele>
        <time>2021-05-17T10:59:47Z</time>
      </trkpt>
      <trkpt lat="41.5857540" lon="-8.7849290">
        <ele>39.3</ele>
        <time>2021-05-17T10:59:48Z</time>
      </trkpt>
      <trkpt lat="41.5857640" lon="-8.7849210">
        <ele>39.2</ele>
        <time>2021-05-17T10:59:49Z</time>
      </trkpt>
      <trkpt lat="41.5857890" lon="-8.7849040">
        <ele>39.1</ele>
        <time>2021-05-17T10:59:50Z</time>
      </trkpt>
      <trkpt lat="41.5857960" lon="-8.7848970">
        <ele>38.9</ele>
        <time>2021-05-17T10:59:51Z</time>
      </trkpt>
      <trkpt lat="41.5858060" lon="-8.7848790">
        <ele>38.8</ele>
        <time>2021-05-17T10:59:52Z</time>
      </trkpt>
      <trkpt lat="41.5858190" lon="-8.7848710">
        <ele>38.7</ele>
        <time>2021-05-17T10:59:53Z</time>
      </trkpt>
      <trkpt lat="41.5858340" lon="-8.7848590">
        <ele>38.5</ele>
        <time>2021-05-17T10:59:54Z</time>
      </trkpt>
      <trkpt lat="41.5858490" lon="-8.7848460">
        <ele>38.4</ele>
        <time>2021-05-17T10:59:55Z</time>
      </trkpt>
      <trkpt lat="41.5858650" lon="-8.7848280">
        <ele>38.3</ele>
        <time>2021-05-17T10:59:56Z</time>
      </trkpt>
      <trkpt lat="41.5858730" lon="-8.7848210">
        <ele>38.2</ele>
        <time>2021-05-17T10:59:57Z</time>
      </trkpt>
      <trkpt lat="41.5858800" lon="-8.7848150">
        <ele>38.2</ele>
        <time>2021-05-17T10:59:58Z</time>
      </trkpt>
      <trkpt lat="41.5858960" lon="-8.7848120">
        <ele>38.1</ele>
        <time>2021-05-17T10:59:59Z</time>
      </trkpt>
      <trkpt lat="41.5859100" lon="-8.7848050">
        <ele>38.0</ele>
        <time>2021-05-17T11:00:00Z</time>
      </trkpt>
      <trkpt lat="41.5859210" lon="-8.7847940">
        <ele>37.9</ele>
        <time>2021-05-17T11:00:01Z</time>
      </trkpt>
      <trkpt lat="41.5859320" lon="-8.7847800">
        <ele>37.8</ele>
        <time>2021-05-17T11:00:02Z</time>
      </trkpt>
      <trkpt lat="41.5859440" lon="-8.7847650">
        <ele>37.7</ele>
        <time>2021-05-17T11:00:03Z</time>
      </trkpt>
      <trkpt lat="41.5859600" lon="-8.7847590">
        <ele>37.6</ele>
        <time>2021-05-17T11:00:04Z</time>
      </trkpt>
      <trkpt lat="41.5859740" lon="-8.7847530">
        <ele>37.5</ele>
        <time>2021-05-17T11:00:05Z</time>
      </trkpt>
      <trkpt lat="41.5859910" lon="-8.7847510">
        <ele>37.4</ele>
        <time>2021-05-17T11:00:06Z</time>
      </trkpt>
      <trkpt lat="41.5860030" lon="-8.7847410">
        <ele>37.3</ele>
        <time>2021-05-17T11:00:07Z</time>
      </trkpt>
      <trkpt lat="41.5860200" lon="-8.7847440">
        <ele>37.2</ele>
        <time>2021-05-17T11:00:08Z</time>
      </trkpt>
      <trkpt lat="41.5860340" lon="-8.7847330">
        <ele>37.1</ele>
        <time>2021-05-17T11:00:09Z</time>
      </trkpt>
      <trkpt lat="41.5860490" lon="-8.7847250">
        <ele>37.0</ele>
        <time>2021-05-17T11:00:10Z</time>
      </trkpt>
      <trkpt lat="41.5860640" lon="-8.7847160">
        <ele>36.9</ele>
        <time>2021-05-17T11:00:11Z</time>
      </trkpt>
      <trkpt lat="41.5860810" lon="-8.7847190">
        <ele>36.8</ele>
        <time>2021-05-17T11:00:12Z</time>
      </trkpt>
      <trkpt lat="41.5860960" lon="-8.7847140">
        <ele>36.7</ele>
        <time>2021-05-17T11:00:13Z</time>
      </trkpt>
      <trkpt lat="41.5861110" lon="-8.7847060">
        <ele>36.6</ele>
        <time>2021-05-17T11:00:14Z</time>
      </trkpt>
      <trkpt lat="41.5861240" lon="-8.7846990">
        <ele>36.5</ele>
        <time>2021-05-17T11:00:15Z</time>
      </trkpt>
      <trkpt lat="41.5861400" lon="-8.7846970">
        <ele>36.4</ele>
        <time>2021-05-17T11:00:16Z</time>
      </trkpt>
      <trkpt lat="41.5861560" lon="-8.7846900">
        <ele>36.3</ele>
        <time>2021-05-17T11:00:17Z</time>
      </trkpt>
      <trkpt lat="41.5861710" lon="-8.7846850">
        <ele>36.3</ele>
        <time>2021-05-17T11:00:18Z</time>
      </trkpt>
      <trkpt lat="41.5861860" lon="-8.7846830">
        <ele>36.2</ele>
        <time>2021-05-17T11:00:19Z</time>
      </trkpt>
      <trkpt lat="41.5862020" lon="-8.7846860">
        <ele>36.1</ele>
        <time>2021-05-17T11:00:20Z</time>
      </trkpt>
      <trkpt lat="41.5862150" lon="-8.7846760">
        <ele>36.0</ele>
        <time>2021-05-17T11:00:21Z</time>
      </trkpt>
      <trkpt lat="41.5862310" lon="-8.7846720">
        <ele>35.9</ele>
        <time>2021-05-17T11:00:22Z</time>
      </trkpt>
      <trkpt lat="41.5862440" lon="-8.7846650">
        <ele>35.9</ele>
        <time>2021-05-17T11:00:23Z</time>
      </trkpt>
      <trkpt lat="41.5862580" lon="-8.7846630">
        <ele>35.8</ele>
        <time>2021-05-17T11:00:24Z</time>
      </trkpt>
      <trkpt lat="41.5862740" lon="-8.7846600">
        <ele>35.7</ele>
        <time>2021-05-17T11:00:25Z</time>
      </trkpt>
      <trkpt lat="41.5862870" lon="-8.7846570">
        <ele>35.7</ele>
        <time>2021-05-17T11:00:26Z</time>
      </trkpt>
      <trkpt lat="41.5863000" lon="-8.7846510">
        <ele>35.6</ele>
        <time>2021-05-17T11:00:27Z</time>
      </trkpt>
      <trkpt lat="41.5863130" lon="-8.7846440">
        <ele>35.6</ele>
        <time>2021-05-17T11:00:28Z</time>
      </trkpt>
      <trkpt lat="41.5863270" lon="-8.7846490">
        <ele>35.5</ele>
        <time>2021-05-17T11:00:29Z</time>
      </trkpt>
      <trkpt lat="41.5863420" lon="-8.7846460">
        <ele>35.4</ele>
        <time>2021-05-17T11:00:30Z</time>
      </trkpt>
      <trkpt lat="41.5863540" lon="-8.7846350">
        <ele>35.4</ele>
        <time>2021-05-17T11:00:31Z</time>
      </trkpt>
      <trkpt lat="41.5863680" lon="-8.7846330">
        <ele>35.3</ele>
        <time>2021-05-17T11:00:32Z</time>
      </trkpt>
      <trkpt lat="41.5863900" lon="-8.7846270">
        <ele>35.3</ele>
        <time>2021-05-17T11:00:33Z</time>
      </trkpt>
      <trkpt lat="41.5864000" lon="-8.7846270">
        <ele>35.2</ele>
        <time>2021-05-17T11:00:34Z</time>
      </trkpt>
      <trkpt lat="41.5864090" lon="-8.7846270">
        <ele>35.2</ele>
        <time>2021-05-17T11:00:35Z</time>
      </trkpt>
      <trkpt lat="41.5864230" lon="-8.7846160">
        <ele>35.1</ele>
        <time>2021-05-17T11:00:36Z</time>
      </trkpt>
      <trkpt lat="41.5864350" lon="-8.7846060">
        <ele>35.1</ele>
        <time>2021-05-17T11:00:37Z</time>
      </trkpt>
      <trkpt lat="41.5864470" lon="-8.7846050">
        <ele>35.0</ele>
        <time>2021-05-17T11:00:38Z</time>
      </trkpt>
      <trkpt lat="41.5864610" lon="-8.7845950">
        <ele>35.0</ele>
        <time>2021-05-17T11:00:39Z</time>
      </trkpt>
      <trkpt lat="41.5864750" lon="-8.7845890">
        <ele>35.0</ele>
        <time>2021-05-17T11:00:40Z</time>
      </trkpt>
      <trkpt lat="41.5864870" lon="-8.7845800">
        <ele>34.9</ele>
        <time>2021-05-17T11:00:41Z</time>
      </trkpt>
      <trkpt lat="41.5865080" lon="-8.7845720">
        <ele>34.9</ele>
        <time>2021-05-17T11:00:42Z</time>
      </trkpt>
      <trkpt lat="41.5865150" lon="-8.7845690">
        <ele>34.8</ele>
        <time>2021-05-17T11:00:43Z</time>
      </trkpt>
      <trkpt lat="41.5865230" lon="-8.7845670">
        <ele>34.8</ele>
        <time>2021-05-17T11:00:44Z</time>
      </trkpt>
      <trkpt lat="41.5865380" lon="-8.7845610">
        <ele>34.8</ele>
        <time>2021-05-17T11:00:45Z</time>
      </trkpt>
      <trkpt lat="41.5865510" lon="-8.7845530">
        <ele>34.7</ele>
        <time>2021-05-17T11:00:46Z</time>
      </trkpt>
      <trkpt lat="41.5865710" lon="-8.7845410">
        <ele>34.7</ele>
        <time>2021-05-17T11:00:47Z</time>
      </trkpt>
      <trkpt lat="41.5865800" lon="-8.7845390">
        <ele>34.7</ele>
        <time>2021-05-17T11:00:48Z</time>
      </trkpt>
      <trkpt lat="41.5865880" lon="-8.7845380">
        <ele>34.7</ele>
        <time>2021-05-17T11:00:49Z</time>
      </trkpt>
      <trkpt lat="41.5866010" lon="-8.7845240">
        <ele>34.7</ele>
        <time>2021-05-17T11:00:50Z</time>
      </trkpt>
      <trkpt lat="41.5866140" lon="-8.7845130">
        <ele>34.7</ele>
        <time>2021-05-17T11:00:51Z</time>
      </trkpt>
      <trkpt lat="41.5866280" lon="-8.7845080">
        <ele>34.7</ele>
        <time>2021-05-17T11:00:52Z</time>
      </trkpt>
      <trkpt lat="41.5866420" lon="-8.7845000">
        <ele>34.7</ele>
        <time>2021-05-17T11:00:53Z</time>
      </trkpt>
      <trkpt lat="41.5866640" lon="-8.7844960">
        <ele>34.6</ele>
        <time>2021-05-17T11:00:54Z</time>
      </trkpt>
      <trkpt lat="41.5866730" lon="-8.7845000">
        <ele>34.6</ele>
        <time>2021-05-17T11:00:55Z</time>
      </trkpt>
      <trkpt lat="41.5866830" lon="-8.7845040">
        <ele>34.6</ele>
        <time>2021-05-17T11:00:56Z</time>
      </trkpt>
      <trkpt lat="41.5867040" lon="-8.7845080">
        <ele>34.6</ele>
        <time>2021-05-17T11:00:57Z</time>
      </trkpt>
      <trkpt lat="41.5867130" lon="-8.7845090">
        <ele>34.6</ele>
        <time>2021-05-17T11:00:58Z</time>
      </trkpt>
      <trkpt lat="41.5867220" lon="-8.7845110">
        <ele>34.6</ele>
        <time>2021-05-17T11:00:59Z</time>
      </trkpt>
      <trkpt lat="41.5867330" lon="-8.7845170">
        <ele>34.6</ele>
        <time>2021-05-17T11:01:00Z</time>
      </trkpt>
      <trkpt lat="41.5867470" lon="-8.7845180">
        <ele>34.6</ele>
        <time>2021-05-17T11:01:01Z</time>
      </trkpt>
      <trkpt lat="41.5867510" lon="-8.7845160">
        <ele>34.6</ele>
        <time>2021-05-17T11:01:02Z</time>
      </trkpt>
      <trkpt lat="41.5867570" lon="-8.7845120">
        <ele>34.6</ele>
        <time>2021-05-17T11:01:03Z</time>
      </trkpt>
      <trkpt lat="41.5867610" lon="-8.7845040">
        <ele>34.6</ele>
        <time>2021-05-17T11:01:04Z</time>
      </trkpt>
      <trkpt lat="41.5867660" lon="-8.7844960">
        <ele>34.6</ele>
        <time>2021-05-17T11:01:05Z</time>
      </trkpt>
      <trkpt lat="41.5867710" lon="-8.7844870">
        <ele>34.6</ele>
        <time>2021-05-17T11:01:06Z</time>
      </trkpt>
      <trkpt lat="41.5867750" lon="-8.7844790">
        <ele>34.6</ele>
        <time>2021-05-17T11:01:07Z</time>
      </trkpt>
      <trkpt lat="41.5867800" lon="-8.7844710">
        <ele>34.6</ele>
        <time>2021-05-17T11:01:08Z</time>
      </trkpt>
      <trkpt lat="41.5867870" lon="-8.7844700">
        <ele>34.6</ele>
        <time>2021-05-17T11:01:09Z</time>
      </trkpt>
      <trkpt lat="41.5867930" lon="-8.7844670">
        <ele>34.6</ele>
        <time>2021-05-17T11:01:10Z</time>
      </trkpt>
      <trkpt lat="41.5868000" lon="-8.7844610">
        <ele>34.5</ele>
        <time>2021-05-17T11:01:11Z</time>
      </trkpt>
      <trkpt lat="41.5868040" lon="-8.7844580">
        <ele>34.5</ele>
        <time>2021-05-17T11:01:12Z</time>
      </trkpt>
      <trkpt lat="41.5868120" lon="-8.7844520">
        <ele>34.5</ele>
        <time>2021-05-17T11:01:13Z</time>
      </trkpt>
      <trkpt lat="41.5868160" lon="-8.7844500">
        <ele>34.5</ele>
        <time>2021-05-17T11:01:14Z</time>
      </trkpt>
      <trkpt lat="41.5868170" lon="-8.7844500">
        <ele>34.5</ele>
        <time>2021-05-17T11:01:15Z</time>
      </trkpt>
      <trkpt lat="41.5868220" lon="-8.7844470">
        <ele>34.5</ele>
        <time>2021-05-17T11:01:16Z</time>
      </trkpt>
      <trkpt lat="41.5868310" lon="-8.7844470">
        <ele>34.5</ele>
        <time>2021-05-17T11:01:17Z</time>
      </trkpt>
      <trkpt lat="41.5868460" lon="-8.7844490">
        <ele>34.5</ele>
        <time>2021-05-17T11:01:18Z</time>
      </trkpt>
      <trkpt lat="41.5868560" lon="-8.7844460">
        <ele>34.4</ele>
        <time>2021-05-17T11:01:19Z</time>
      </trkpt>
      <trkpt lat="41.5868630" lon="-8.7844420">
        <ele>34.4</ele>
        <time>2021-05-17T11:01:20Z</time>
      </trkpt>
      <trkpt lat="41.5868680" lon="-8.7844380">
        <ele>34.4</ele>
        <time>2021-05-17T11:01:21Z</time>
      </trkpt>
      <trkpt lat="41.5868790" lon="-8.7844340">
        <ele>34.4</ele>
        <time>2021-05-17T11:01:22Z</time>
      </trkpt>
      <trkpt lat="41.5869010" lon="-8.7844270">
        <ele>34.4</ele>
        <time>2021-05-17T11:01:23Z</time>
      </trkpt>
      <trkpt lat="41.5869130" lon="-8.7844240">
        <ele>34.3</ele>
        <time>2021-05-17T11:01:24Z</time>
      </trkpt>
      <trkpt lat="41.5869270" lon="-8.7844200">
        <ele>34.3</ele>
        <time>2021-05-17T11:01:25Z</time>
      </trkpt>
      <trkpt lat="41.5869340" lon="-8.7844240">
        <ele>34.3</ele>
        <time>2021-05-17T11:01:26Z</time>
      </trkpt>
      <trkpt lat="41.5869480" lon="-8.7844150">
        <ele>34.3</ele>
        <time>2021-05-17T11:01:27Z</time>
      </trkpt>
      <trkpt lat="41.5869610" lon="-8.7844150">
        <ele>34.3</ele>
        <time>2021-05-17T11:01:28Z</time>
      </trkpt>
      <trkpt lat="41.5869760" lon="-8.7844140">
        <ele>34.2</ele>
        <time>2021-05-17T11:01:29Z</time>
      </trkpt>
      <trkpt lat="41.5869820" lon="-8.7844120">
        <ele>34.2</ele>
        <time>2021-05-17T11:01:30Z</time>
      </trkpt>
      <trkpt lat="41.5869820" lon="-8.7844130">
        <ele>34.2</ele>
        <time>2021-05-17T11:01:31Z</time>
      </trkpt>
      <trkpt lat="41.5869990" lon="-8.7844100">
        <ele>34.2</ele>
        <time>2021-05-17T11:01:32Z</time>
      </trkpt>
      <trkpt lat="41.5870050" lon="-8.7844060">
        <ele>34.2</ele>
        <time>2021-05-17T11:01:33Z</time>
      </trkpt>
      <trkpt lat="41.5870150" lon="-8.7844060">
        <ele>34.2</ele>
        <time>2021-05-17T11:01:34Z</time>
      </trkpt>
      <trkpt lat="41.5870260" lon="-8.7844010">
        <ele>34.1</ele>
        <time>2021-05-17T11:01:35Z</time>
      </trkpt>
      <trkpt lat="41.5870380" lon="-8.7843940">
        <ele>34.1</ele>
        <time>2021-05-17T11:01:36Z</time>
      </trkpt>
      <trkpt lat="41.5870540" lon="-8.7843850">
        <ele>34.1</ele>
        <time>2021-05-17T11:01:37Z</time>
      </trkpt>
      <trkpt lat="41.5870630" lon="-8.7843850">
        <ele>34.1</ele>
        <time>2021-05-17T11:01:38Z</time>
      </trkpt>
      <trkpt lat="41.5870730" lon="-8.7843840">
        <ele>34.1</ele>
        <time>2021-05-17T11:01:39Z</time>
      </trkpt>
      <trkpt lat="41.5870910" lon="-8.7843820">
        <ele>34.0</ele>
        <time>2021-05-17T11:01:40Z</time>
      </trkpt>
      <trkpt lat="41.5870970" lon="-8.7843810">
        <ele>34.0</ele>
        <time>2021-05-17T11:01:41Z</time>
      </trkpt>
      <trkpt lat="41.5871040" lon="-8.7843790">
        <ele>34.0</ele>
        <time>2021-05-17T11:01:42Z</time>
      </trkpt>
      <trkpt lat="41.5871100" lon="-8.7843780">
        <ele>34.0</ele>
        <time>2021-05-17T11:01:43Z</time>
      </trkpt>
      <trkpt lat="41.5871270" lon="-8.7843690">
        <ele>34.0</ele>
        <time>2021-05-17T11:01:44Z</time>
      </trkpt>
      <trkpt lat="41.5871360" lon="-8.7843640">
        <ele>33.9</ele>
        <time>2021-05-17T11:01:45Z</time>
      </trkpt>
      <trkpt lat="41.5871560" lon="-8.7843540">
        <ele>33.9</ele>
        <time>2021-05-17T11:01:46Z</time>
      </trkpt>
      <trkpt lat="41.5871650" lon="-8.7843510">
        <ele>33.9</ele>
        <time>2021-05-17T11:01:47Z</time>
      </trkpt>
      <trkpt lat="41.5871730" lon="-8.7843470">
        <ele>33.9</ele>
        <time>2021-05-17T11:01:48Z</time>
      </trkpt>
      <trkpt lat="41.5871910" lon="-8.7843410">
        <ele>33.8</ele>
        <time>2021-05-17T11:01:49Z</time>
      </trkpt>
      <trkpt lat="41.5872050" lon="-8.7843340">
        <ele>33.8</ele>
        <time>2021-05-17T11:01:50Z</time>
      </trkpt>
      <trkpt lat="41.5872230" lon="-8.7843260">
        <ele>33.8</ele>
        <time>2021-05-17T11:01:51Z</time>
      </trkpt>
      <trkpt lat="41.5872370" lon="-8.7843320">
        <ele>33.8</ele>
        <time>2021-05-17T11:01:52Z</time>
      </trkpt>
      <trkpt lat="41.5872530" lon="-8.7843370">
        <ele>33.7</ele>
        <time>2021-05-17T11:01:53Z</time>
      </trkpt>
      <trkpt lat="41.5872630" lon="-8.7843330">
        <ele>33.7</ele>
        <time>2021-05-17T11:01:54Z</time>
      </trkpt>
      <trkpt lat="41.5872710" lon="-8.7843280">
        <ele>33.7</ele>
        <time>2021-05-17T11:01:55Z</time>
      </trkpt>
      <trkpt lat="41.5872880" lon="-8.7843260">
        <ele>33.7</ele>
        <time>2021-05-17T11:01:56Z</time>
      </trkpt>
      <trkpt lat="41.5873070" lon="-8.7843220">
        <ele>33.7</ele>
        <time>2021-05-17T11:01:57Z</time>
      </trkpt>
      <trkpt lat="41.5873280" lon="-8.7843210">
        <ele>33.6</ele>
        <time>2021-05-17T11:01:58Z</time>
      </trkpt>
      <trkpt lat="41.5873360" lon="-8.7843190">
        <ele>33.6</ele>
        <time>2021-05-17T11:01:59Z</time>
      </trkpt>
      <trkpt lat="41.5873450" lon="-8.7843180">
        <ele>33.6</ele>
        <time>2021-05-17T11:02:00Z</time>
      </trkpt>
      <trkpt lat="41.5873560" lon="-8.7843110">
        <ele>33.6</ele>
        <time>2021-05-17T11:02:01Z</time>
      </trkpt>
      <trkpt lat="41.5873790" lon="-8.7843090">
        <ele>33.6</ele>
        <time>2021-05-17T11:02:02Z</time>
      </trkpt>
      <trkpt lat="41.5873960" lon="-8.7843050">
        <ele>33.5</ele>
        <time>2021-05-17T11:02:03Z</time>
      </trkpt>
      <trkpt lat="41.5874120" lon="-8.7843000">
        <ele>33.5</ele>
        <time>2021-05-17T11:02:04Z</time>
      </trkpt>
      <trkpt lat="41.5874260" lon="-8.7842920">
        <ele>33.5</ele>
        <time>2021-05-17T11:02:05Z</time>
      </trkpt>
      <trkpt lat="41.5874340" lon="-8.7842890">
        <ele>33.5</ele>
        <time>2021-05-17T11:02:06Z</time>
      </trkpt>
      <trkpt lat="41.5874370" lon="-8.7842830">
        <ele>33.5</ele>
        <time>2021-05-17T11:02:07Z</time>
      </trkpt>
      <trkpt lat="41.5874610" lon="-8.7842660">
        <ele>33.5</ele>
        <time>2021-05-17T11:02:08Z</time>
      </trkpt>
      <trkpt lat="41.5874740" lon="-8.7842560">
        <ele>33.5</ele>
        <time>2021-05-17T11:02:09Z</time>
      </trkpt>
      <trkpt lat="41.5874920" lon="-8.7842430">
        <ele>33.4</ele>
        <time>2021-05-17T11:02:10Z</time>
      </trkpt>
      <trkpt lat="41.5874990" lon="-8.7842360">
        <ele>33.4</ele>
        <time>2021-05-17T11:02:11Z</time>
      </trkpt>
      <trkpt lat="41.5875050" lon="-8.7842290">
        <ele>33.4</ele>
        <time>2021-05-17T11:02:12Z</time>
      </trkpt>
      <trkpt lat="41.5875160" lon="-8.7842210">
        <ele>33.4</ele>
        <time>2021-05-17T11:02:13Z</time>
      </trkpt>
      <trkpt lat="41.5875270" lon="-8.7842080">
        <ele>33.4</ele>
        <time>2021-05-17T11:02:14Z</time>
      </trkpt>
      <trkpt lat="41.5875500" lon="-8.7842010">
        <ele>33.4</ele>
        <time>2021-05-17T11:02:15Z</time>
      </trkpt>
      <trkpt lat="41.5875540" lon="-8.7841940">
        <ele>33.4</ele>
        <time>2021-05-17T11:02:16Z</time>
      </trkpt>
      <trkpt lat="41.5875750" lon="-8.7841760">
        <ele>33.4</ele>
        <time>2021-05-17T11:02:17Z</time>
      </trkpt>
      <trkpt lat="41.5875810" lon="-8.7841690">
        <ele>33.4</ele>
        <time>2021-05-17T11:02:18Z</time>
      </trkpt>
      <trkpt lat="41.5875870" lon="-8.7841630">
        <ele>33.3</ele>
        <time>2021-05-17T11:02:19Z</time>
      </trkpt>
      <trkpt lat="41.5876090" lon="-8.7841570">
        <ele>33.3</ele>
        <time>2021-05-17T11:02:20Z</time>
      </trkpt>
      <trkpt lat="41.5876180" lon="-8.7841440">
        <ele>33.3</ele>
        <time>2021-05-17T11:02:21Z</time>
      </trkpt>
      <trkpt lat="41.5876260" lon="-8.7841350">
        <ele>33.3</ele>
        <time>2021-05-17T11:02:22Z</time>
      </trkpt>
      <trkpt lat="41.5876340" lon="-8.7841330">
        <ele>33.3</ele>
        <time>2021-05-17T11:02:23Z</time>
      </trkpt>
      <trkpt lat="41.5876490" lon="-8.7841290">
        <ele>33.3</ele>
        <time>2021-05-17T11:02:24Z</time>
      </trkpt>
      <trkpt lat="41.5876630" lon="-8.7841230">
        <ele>33.3</ele>
        <time>2021-05-17T11:02:25Z</time>
      </trkpt>
      <trkpt lat="41.5876810" lon="-8.7841230">
        <ele>33.3</ele>
        <time>2021-05-17T11:02:26Z</time>
      </trkpt>
      <trkpt lat="41.5876960" lon="-8.7841180">
        <ele>33.2</ele>
        <time>2021-05-17T11:02:27Z</time>
      </trkpt>
      <trkpt lat="41.5877100" lon="-8.7841080">
        <ele>33.2</ele>
        <time>2021-05-17T11:02:28Z</time>
      </trkpt>
      <trkpt lat="41.5877280" lon="-8.7841000">
        <ele>33.2</ele>
        <time>2021-05-17T11:02:29Z</time>
      </trkpt>
      <trkpt lat="41.5877450" lon="-8.7840950">
        <ele>33.2</ele>
        <time>2021-05-17T11:02:30Z</time>
      </trkpt>
      <trkpt lat="41.5877610" lon="-8.7840930">
        <ele>33.2</ele>
        <time>2021-05-17T11:02:31Z</time>
      </trkpt>
      <trkpt lat="41.5877770" lon="-8.7840870">
        <ele>33.2</ele>
        <time>2021-05-17T11:02:32Z</time>
      </trkpt>
      <trkpt lat="41.5877920" lon="-8.7840790">
        <ele>33.2</ele>
        <time>2021-05-17T11:02:33Z</time>
      </trkpt>
      <trkpt lat="41.5878010" lon="-8.7840740">
        <ele>33.2</ele>
        <time>2021-05-17T11:02:34Z</time>
      </trkpt>
      <trkpt lat="41.5878110" lon="-8.7840690">
        <ele>33.2</ele>
        <time>2021-05-17T11:02:35Z</time>
      </trkpt>
      <trkpt lat="41.5878290" lon="-8.7840470">
        <ele>33.2</ele>
        <time>2021-05-17T11:02:36Z</time>
      </trkpt>
      <trkpt lat="41.5878350" lon="-8.7840400">
        <ele>33.2</ele>
        <time>2021-05-17T11:02:37Z</time>
      </trkpt>
      <trkpt lat="41.5878400" lon="-8.7840340">
        <ele>33.1</ele>
        <time>2021-05-17T11:02:38Z</time>
      </trkpt>
      <trkpt lat="41.5878480" lon="-8.7840260">
        <ele>33.1</ele>
        <time>2021-05-17T11:02:39Z</time>
      </trkpt>
      <trkpt lat="41.5878560" lon="-8.7840280">
        <ele>33.1</ele>
        <time>2021-05-17T11:02:40Z</time>
      </trkpt>
      <trkpt lat="41.5878680" lon="-8.7840140">
        <ele>33.1</ele>
        <time>2021-05-17T11:02:41Z</time>
      </trkpt>
      <trkpt lat="41.5878800" lon="-8.7840060">
        <ele>33.1</ele>
        <time>2021-05-17T11:02:42Z</time>
      </trkpt>
      <trkpt lat="41.5878910" lon="-8.7839940">
        <ele>33.1</ele>
        <time>2021-05-17T11:02:43Z</time>
      </trkpt>
      <trkpt lat="41.5879020" lon="-8.7839930">
        <ele>33.1</ele>
        <time>2021-05-17T11:02:44Z</time>
      </trkpt>
      <trkpt lat="41.5879180" lon="-8.7839820">
        <ele>33.1</ele>
        <time>2021-05-17T11:02:45Z</time>
      </trkpt>
      <trkpt lat="41.5879350" lon="-8.7839710">
        <ele>33.1</ele>
        <time>2021-05-17T11:02:46Z</time>
      </trkpt>
      <trkpt lat="41.5879430" lon="-8.7839670">
        <ele>33.1</ele>
        <time>2021-05-17T11:02:47Z</time>
      </trkpt>
      <trkpt lat="41.5879510" lon="-8.7839620">
        <ele>33.1</ele>
        <time>2021-05-17T11:02:48Z</time>
      </trkpt>
      <trkpt lat="41.5879690" lon="-8.7839490">
        <ele>33.1</ele>
        <time>2021-05-17T11:02:49Z</time>
      </trkpt>
      <trkpt lat="41.5879790" lon="-8.7839410">
        <ele>33.1</ele>
        <time>2021-05-17T11:02:50Z</time>
      </trkpt>
      <trkpt lat="41.5879900" lon="-8.7839330">
        <ele>33.1</ele>
        <time>2021-05-17T11:02:51Z</time>
      </trkpt>
      <trkpt lat="41.5880050" lon="-8.7839230">
        <ele>33.1</ele>
        <time>2021-05-17T11:02:52Z</time>
      </trkpt>
      <trkpt lat="41.5880170" lon="-8.7839090">
        <ele>33.1</ele>
        <time>2021-05-17T11:02:53Z</time>
      </trkpt>
      <trkpt lat="41.5880330" lon="-8.7839030">
        <ele>33.1</ele>
        <time>2021-05-17T11:02:54Z</time>
      </trkpt>
      <trkpt lat="41.5880510" lon="-8.7838950">
        <ele>33.1</ele>
        <time>2021-05-17T11:02:55Z</time>
      </trkpt>
      <trkpt lat="41.5880670" lon="-8.7838900">
        <ele>33.1</ele>
        <time>2021-05-17T11:02:56Z</time>
      </trkpt>
      <trkpt lat="41.5880840" lon="-8.7838880">
        <ele>33.0</ele>
        <time>2021-05-17T11:02:57Z</time>
      </trkpt>
      <trkpt lat="41.5881000" lon="-8.7838840">
        <ele>33.0</ele>
        <time>2021-05-17T11:02:58Z</time>
      </trkpt>
      <trkpt lat="41.5881160" lon="-8.7838800">
        <ele>33.0</ele>
        <time>2021-05-17T11:02:59Z</time>
      </trkpt>
      <trkpt lat="41.5881310" lon="-8.7838700">
        <ele>33.0</ele>
        <time>2021-05-17T11:03:00Z</time>
      </trkpt>
      <trkpt lat="41.5881440" lon="-8.7838600">
        <ele>33.0</ele>
        <time>2021-05-17T11:03:01Z</time>
      </trkpt>
      <trkpt lat="41.5881590" lon="-8.7838500">
        <ele>33.0</ele>
        <time>2021-05-17T11:03:02Z</time>
      </trkpt>
      <trkpt lat="41.5881740" lon="-8.7838430">
        <ele>33.0</ele>
        <time>2021-05-17T11:03:03Z</time>
      </trkpt>
      <trkpt lat="41.5881900" lon="-8.7838410">
        <ele>33.0</ele>
        <time>2021-05-17T11:03:04Z</time>
      </trkpt>
      <trkpt lat="41.5882050" lon="-8.7838330">
        <ele>33.0</ele>
        <time>2021-05-17T11:03:05Z</time>
      </trkpt>
      <trkpt lat="41.5882240" lon="-8.7838310">
        <ele>33.0</ele>
        <time>2021-05-17T11:03:06Z</time>
      </trkpt>
      <trkpt lat="41.5882390" lon="-8.7838280">
        <ele>33.0</ele>
        <time>2021-05-17T11:03:07Z</time>
      </trkpt>
      <trkpt lat="41.5882600" lon="-8.7838270">
        <ele>33.0</ele>
        <time>2021-05-17T11:03:08Z</time>
      </trkpt>
      <trkpt lat="41.5882670" lon="-8.7838250">
        <ele>33.0</ele>
        <time>2021-05-17T11:03:09Z</time>
      </trkpt>
      <trkpt lat="41.5882750" lon="-8.7838240">
        <ele>33.0</ele>
        <time>2021-05-17T11:03:10Z</time>
      </trkpt>
      <trkpt lat="41.5882910" lon="-8.7838150">
        <ele>33.0</ele>
        <time>2021-05-17T11:03:11Z</time>
      </trkpt>
      <trkpt lat="41.5883070" lon="-8.7838110">
        <ele>33.0</ele>
        <time>2021-05-17T11:03:12Z</time>
      </trkpt>
      <trkpt lat="41.5883210" lon="-8.7838070">
        <ele>33.0</ele>
        <time>2021-05-17T11:03:13Z</time>
      </trkpt>
      <trkpt lat="41.5883340" lon="-8.7838080">
        <ele>33.0</ele>
        <time>2021-05-17T11:03:14Z</time>
      </trkpt>
      <trkpt lat="41.5883480" lon="-8.7838000">
        <ele>33.0</ele>
        <time>2021-05-17T11:03:15Z</time>
      </trkpt>
      <trkpt lat="41.5883620" lon="-8.7837920">
        <ele>33.0</ele>
        <time>2021-05-17T11:03:16Z</time>
      </trkpt>
      <trkpt lat="41.5883780" lon="-8.7837860">
        <ele>33.0</ele>
        <time>2021-05-17T11:03:17Z</time>
      </trkpt>
      <trkpt lat="41.5883920" lon="-8.7837810">
        <ele>33.0</ele>
        <time>2021-05-17T11:03:18Z</time>
      </trkpt>
      <trkpt lat="41.5884070" lon="-8.7837740">
        <ele>33.0</ele>
        <time>2021-05-17T11:03:19Z</time>
      </trkpt>
      <trkpt lat="41.5884200" lon="-8.7837620">
        <ele>33.0</ele>
        <time>2021-05-17T11:03:20Z</time>
      </trkpt>
      <trkpt lat="41.5884350" lon="-8.7837550">
        <ele>33.0</ele>
        <time>2021-05-17T11:03:21Z</time>
      </trkpt>
      <trkpt lat="41.5884510" lon="-8.7837510">
        <ele>33.0</ele>
        <time>2021-05-17T11:03:22Z</time>
      </trkpt>
      <trkpt lat="41.5884650" lon="-8.7837440">
        <ele>33.0</ele>
        <time>2021-05-17T11:03:23Z</time>
      </trkpt>
      <trkpt lat="41.5884780" lon="-8.7837300">
        <ele>33.0</ele>
        <time>2021-05-17T11:03:24Z</time>
      </trkpt>
      <trkpt lat="41.5884950" lon="-8.7837210">
        <ele>33.0</ele>
        <time>2021-05-17T11:03:25Z</time>
      </trkpt>
      <trkpt lat="41.5885110" lon="-8.7837120">
        <ele>33.0</ele>
        <time>2021-05-17T11:03:26Z</time>
      </trkpt>
      <trkpt lat="41.5885270" lon="-8.7837040">
        <ele>33.0</ele>
        <time>2021-05-17T11:03:27Z</time>
      </trkpt>
      <trkpt lat="41.5885410" lon="-8.7836960">
        <ele>33.0</ele>
        <time>2021-05-17T11:03:28Z</time>
      </trkpt>
      <trkpt lat="41.5885550" lon="-8.7836880">
        <ele>33.0</ele>
        <time>2021-05-17T11:03:29Z</time>
      </trkpt>
      <trkpt lat="41.5885700" lon="-8.7836830">
        <ele>33.0</ele>
        <time>2021-05-17T11:03:30Z</time>
      </trkpt>
      <trkpt lat="41.5885900" lon="-8.7836740">
        <ele>33.0</ele>
        <time>2021-05-17T11:03:31Z</time>
      </trkpt>
      <trkpt lat="41.5885990" lon="-8.7836720">
        <ele>33.0</ele>
        <time>2021-05-17T11:03:32Z</time>
      </trkpt>
      <trkpt lat="41.5886070" lon="-8.7836690">
        <ele>33.0</ele>
        <time>2021-05-17T11:03:33Z</time>
      </trkpt>
      <trkpt lat="41.5886200" lon="-8.7836670">
        <ele>33.0</ele>
        <time>2021-05-17T11:03:34Z</time>
      </trkpt>
      <trkpt lat="41.5886340" lon="-8.7836500">
        <ele>33.0</ele>
        <time>2021-05-17T11:03:35Z</time>
      </trkpt>
      <trkpt lat="41.5886540" lon="-8.7836370">
        <ele>33.0</ele>
        <time>2021-05-17T11:03:36Z</time>
      </trkpt>
      <trkpt lat="41.5886610" lon="-8.7836340">
        <ele>33.0</ele>
        <time>2021-05-17T11:03:37Z</time>
      </trkpt>
      <trkpt lat="41.5886690" lon="-8.7836300">
        <ele>32.9</ele>
        <time>2021-05-17T11:03:38Z</time>
      </trkpt>
      <trkpt lat="41.5886800" lon="-8.7836260">
        <ele>32.9</ele>
        <time>2021-05-17T11:03:39Z</time>
      </trkpt>
      <trkpt lat="41.5886900" lon="-8.7836170">
        <ele>32.9</ele>
        <time>2021-05-17T11:03:40Z</time>
      </trkpt>
      <trkpt lat="41.5887010" lon="-8.7836180">
        <ele>32.9</ele>
        <time>2021-05-17T11:03:41Z</time>
      </trkpt>
      <trkpt lat="41.5887070" lon="-8.7836170">
        <ele>32.9</ele>
        <time>2021-05-17T11:03:42Z</time>
      </trkpt>
      <trkpt lat="41.5887140" lon="-8.7836250">
        <ele>32.9</ele>
        <time>2021-05-17T11:03:43Z</time>
      </trkpt>
      <trkpt lat="41.5887250" lon="-8.7836240">
        <ele>32.9</ele>
        <time>2021-05-17T11:03:44Z</time>
      </trkpt>
      <trkpt lat="41.5887330" lon="-8.7836180">
        <ele>32.9</ele>
        <time>2021-05-17T11:03:45Z</time>
      </trkpt>
      <trkpt lat="41.5887500" lon="-8.7836230">
        <ele>32.9</ele>
        <time>2021-05-17T11:03:46Z</time>
      </trkpt>
      <trkpt lat="41.5887580" lon="-8.7836200">
        <ele>32.9</ele>
        <time>2021-05-17T11:03:47Z</time>
      </trkpt>
      <trkpt lat="41.5887560" lon="-8.7836190">
        <ele>32.9</ele>
        <time>2021-05-17T11:03:48Z</time>
      </trkpt>
      <trkpt lat="41.5887540" lon="-8.7836170">
        <ele>32.9</ele>
        <time>2021-05-17T11:03:49Z</time>
      </trkpt>
      <trkpt lat="41.5887650" lon="-8.7836200">
        <ele>32.9</ele>
        <time>2021-05-17T11:03:50Z</time>
      </trkpt>
      <trkpt lat="41.5887780" lon="-8.7836170">
        <ele>32.9</ele>
        <time>2021-05-17T11:03:51Z</time>
      </trkpt>
      <trkpt lat="41.5887900" lon="-8.7836160">
        <ele>32.9</ele>
        <time>2021-05-17T11:03:52Z</time>
      </trkpt>
      <trkpt lat="41.5888000" lon="-8.7836220">
        <ele>32.9</ele>
        <time>2021-05-17T11:03:53Z</time>
      </trkpt>
      <trkpt lat="41.5888170" lon="-8.7836270">
        <ele>32.9</ele>
        <time>2021-05-17T11:03:54Z</time>
      </trkpt>
      <trkpt lat="41.5888310" lon="-8.7836340">
        <ele>32.9</ele>
        <time>2021-05-17T11:03:55Z</time>
      </trkpt>
      <trkpt lat="41.5888430" lon="-8.7836400">
        <ele>32.9</ele>
        <time>2021-05-17T11:03:56Z</time>
      </trkpt>
      <trkpt lat="41.5888620" lon="-8.7836340">
        <ele>32.9</ele>
        <time>2021-05-17T11:03:57Z</time>
      </trkpt>
      <trkpt lat="41.5888790" lon="-8.7836300">
        <ele>32.9</ele>
        <time>2021-05-17T11:03:58Z</time>
      </trkpt>
      <trkpt lat="41.5888960" lon="-8.7836320">
        <ele>32.9</ele>
        <time>2021-05-17T11:03:59Z</time>
      </trkpt>
      <trkpt lat="41.5889140" lon="-8.7836280">
        <ele>32.9</ele>
        <time>2021-05-17T11:04:00Z</time>
      </trkpt>
      <trkpt lat="41.5889310" lon="-8.7836290">
        <ele>32.9</ele>
        <time>2021-05-17T11:04:01Z</time>
      </trkpt>
      <trkpt lat="41.5889490" lon="-8.7836310">
        <ele>32.9</ele>
        <time>2021-05-17T11:04:02Z</time>
      </trkpt>
      <trkpt lat="41.5889650" lon="-8.7836360">
        <ele>32.9</ele>
        <time>2021-05-17T11:04:03Z</time>
      </trkpt>
      <trkpt lat="41.5889800" lon="-8.7836410">
        <ele>32.9</ele>
        <time>2021-05-17T11:04:04Z</time>
      </trkpt>
      <trkpt lat="41.5889950" lon="-8.7836480">
        <ele>32.9</ele>
        <time>2021-05-17T11:04:05Z</time>
      </trkpt>
      <trkpt lat="41.5890100" lon="-8.7836510">
        <ele>32.9</ele>
        <time>2021-05-17T11:04:06Z</time>
      </trkpt>
      <trkpt lat="41.5890240" lon="-8.7836600">
        <ele>32.9</ele>
        <time>2021-05-17T11:04:07Z</time>
      </trkpt>
      <trkpt lat="41.5890360" lon="-8.7836690">
        <ele>32.9</ele>
        <time>2021-05-17T11:04:08Z</time>
      </trkpt>
      <trkpt lat="41.5890470" lon="-8.7836680">
        <ele>32.9</ele>
        <time>2021-05-17T11:04:09Z</time>
      </trkpt>
      <trkpt lat="41.5890500" lon="-8.7836790">
        <ele>32.9</ele>
        <time>2021-05-17T11:04:10Z</time>
      </trkpt>
      <trkpt lat="41.5890540" lon="-8.7836770">
        <ele>32.9</ele>
        <time>2021-05-17T11:04:11Z</time>
      </trkpt>
      <trkpt lat="41.5890620" lon="-8.7836780">
        <ele>32.9</ele>
        <time>2021-05-17T11:04:12Z</time>
      </trkpt>
      <trkpt lat="41.5890690" lon="-8.7836760">
        <ele>32.9</ele>
        <time>2021-05-17T11:04:13Z</time>
      </trkpt>
      <trkpt lat="41.5890820" lon="-8.7836830">
        <ele>32.9</ele>
        <time>2021-05-17T11:04:14Z</time>
      </trkpt>
      <trkpt lat="41.5890940" lon="-8.7836870">
        <ele>32.9</ele>
        <time>2021-05-17T11:04:15Z</time>
      </trkpt>
      <trkpt lat="41.5891010" lon="-8.7836890">
        <ele>32.9</ele>
        <time>2021-05-17T11:04:16Z</time>
      </trkpt>
      <trkpt lat="41.5891060" lon="-8.7836850">
        <ele>32.9</ele>
        <time>2021-05-17T11:04:17Z</time>
      </trkpt>
      <trkpt lat="41.5891120" lon="-8.7836840">
        <ele>32.9</ele>
        <time>2021-05-17T11:04:18Z</time>
      </trkpt>
      <trkpt lat="41.5891270" lon="-8.7836900">
        <ele>32.9</ele>
        <time>2021-05-17T11:04:19Z</time>
      </trkpt>
      <trkpt lat="41.5891390" lon="-8.7836910">
        <ele>32.9</ele>
        <time>2021-05-17T11:04:20Z</time>
      </trkpt>
      <trkpt lat="41.5891470" lon="-8.7836950">
        <ele>32.9</ele>
        <time>2021-05-17T11:04:21Z</time>
      </trkpt>
      <trkpt lat="41.5891660" lon="-8.7836930">
        <ele>32.9</ele>
        <time>2021-05-17T11:04:22Z</time>
      </trkpt>
      <trkpt lat="41.5891970" lon="-8.7836920">
        <ele>32.9</ele>
        <time>2021-05-17T11:04:23Z</time>
      </trkpt>
      <trkpt lat="41.5892040" lon="-8.7836880">
        <ele>32.9</ele>
        <time>2021-05-17T11:04:24Z</time>
      </trkpt>
      <trkpt lat="41.5892130" lon="-8.7836890">
        <ele>32.9</ele>
        <time>2021-05-17T11:04:25Z</time>
      </trkpt>
      <trkpt lat="41.5892150" lon="-8.7836920">
        <ele>32.9</ele>
        <time>2021-05-17T11:04:26Z</time>
      </trkpt>
      <trkpt lat="41.5892220" lon="-8.7836990">
        <ele>32.9</ele>
        <time>2021-05-17T11:04:27Z</time>
      </trkpt>
      <trkpt lat="41.5892340" lon="-8.7836950">
        <ele>32.9</ele>
        <time>2021-05-17T11:04:28Z</time>
      </trkpt>
      <trkpt lat="41.5892480" lon="-8.7836900">
        <ele>32.9</ele>
        <time>2021-05-17T11:04:29Z</time>
      </trkpt>
      <trkpt lat="41.5892610" lon="-8.7836900">
        <ele>32.9</ele>
        <time>2021-05-17T11:04:30Z</time>
      </trkpt>
      <trkpt lat="41.5892820" lon="-8.7836850">
        <ele>32.9</ele>
        <time>2021-05-17T11:04:31Z</time>
      </trkpt>
      <trkpt lat="41.5892820" lon="-8.7836850">
        <ele>32.9</ele>
        <time>2021-05-17T11:04:32Z</time>
      </trkpt>
      <trkpt lat="41.5892920" lon="-8.7836800">
        <ele>32.9</ele>
        <time>2021-05-17T11:04:33Z</time>
      </trkpt>
      <trkpt lat="41.5893060" lon="-8.7836780">
        <ele>32.9</ele>
        <time>2021-05-17T11:04:34Z</time>
      </trkpt>
      <trkpt lat="41.5893220" lon="-8.7836780">
        <ele>32.9</ele>
        <time>2021-05-17T11:04:35Z</time>
      </trkpt>
      <trkpt lat="41.5893400" lon="-8.7836740">
        <ele>32.9</ele>
        <time>2021-05-17T11:04:36Z</time>
      </trkpt>
      <trkpt lat="41.5893550" lon="-8.7836710">
        <ele>32.9</ele>
        <time>2021-05-17T11:04:37Z</time>
      </trkpt>
      <trkpt lat="41.5893660" lon="-8.7836690">
        <ele>32.9</ele>
        <time>2021-05-17T11:04:38Z</time>
      </trkpt>
      <trkpt lat="41.5893700" lon="-8.7836700">
        <ele>32.9</ele>
        <time>2021-05-17T11:04:39Z</time>
      </trkpt>
      <trkpt lat="41.5893800" lon="-8.7836660">
        <ele>32.9</ele>
        <time>2021-05-17T11:04:40Z</time>
      </trkpt>
      <trkpt lat="41.5893830" lon="-8.7836740">
        <ele>32.9</ele>
        <time>2021-05-17T11:04:41Z</time>
      </trkpt>
      <trkpt lat="41.5893840" lon="-8.7836720">
        <ele>32.9</ele>
        <time>2021-05-17T11:04:42Z</time>
      </trkpt>
      <trkpt lat="41.5893980" lon="-8.7836690">
        <ele>32.9</ele>
        <time>2021-05-17T11:04:43Z</time>
      </trkpt>
      <trkpt lat="41.5894120" lon="-8.7836690">
        <ele>32.9</ele>
        <time>2021-05-17T11:04:44Z</time>
      </trkpt>
      <trkpt lat="41.5894300" lon="-8.7836630">
        <ele>33.0</ele>
        <time>2021-05-17T11:04:45Z</time>
      </trkpt>
      <trkpt lat="41.5894410" lon="-8.7836610">
        <ele>33.0</ele>
        <time>2021-05-17T11:04:46Z</time>
      </trkpt>
      <trkpt lat="41.5894690" lon="-8.7836540">
        <ele>33.0</ele>
        <time>2021-05-17T11:04:47Z</time>
      </trkpt>
      <trkpt lat="41.5894800" lon="-8.7836560">
        <ele>33.0</ele>
        <time>2021-05-17T11:04:48Z</time>
      </trkpt>
      <trkpt lat="41.5894880" lon="-8.7836590">
        <ele>33.0</ele>
        <time>2021-05-17T11:04:49Z</time>
      </trkpt>
      <trkpt lat="41.5895010" lon="-8.7836590">
        <ele>33.0</ele>
        <time>2021-05-17T11:04:50Z</time>
      </trkpt>
      <trkpt lat="41.5895120" lon="-8.7836550">
        <ele>33.0</ele>
        <time>2021-05-17T11:04:51Z</time>
      </trkpt>
      <trkpt lat="41.5895290" lon="-8.7836470">
        <ele>33.0</ele>
        <time>2021-05-17T11:04:52Z</time>
      </trkpt>
      <trkpt lat="41.5895430" lon="-8.7836430">
        <ele>33.0</ele>
        <time>2021-05-17T11:04:53Z</time>
      </trkpt>
      <trkpt lat="41.5895630" lon="-8.7836440">
        <ele>33.1</ele>
        <time>2021-05-17T11:04:54Z</time>
      </trkpt>
      <trkpt lat="41.5895700" lon="-8.7836370">
        <ele>33.1</ele>
        <time>2021-05-17T11:04:55Z</time>
      </trkpt>
      <trkpt lat="41.5895900" lon="-8.7836230">
        <ele>33.1</ele>
        <time>2021-05-17T11:04:56Z</time>
      </trkpt>
      <trkpt lat="41.5895980" lon="-8.7836230">
        <ele>33.1</ele>
        <time>2021-05-17T11:04:57Z</time>
      </trkpt>
      <trkpt lat="41.5896060" lon="-8.7836240">
        <ele>33.1</ele>
        <time>2021-05-17T11:04:58Z</time>
      </trkpt>
      <trkpt lat="41.5896330" lon="-8.7836200">
        <ele>33.1</ele>
        <time>2021-05-17T11:04:59Z</time>
      </trkpt>
      <trkpt lat="41.5896410" lon="-8.7836200">
        <ele>33.1</ele>
        <time>2021-05-17T11:05:00Z</time>
      </trkpt>
      <trkpt lat="41.5896560" lon="-8.7836210">
        <ele>33.1</ele>
        <time>2021-05-17T11:05:01Z</time>
      </trkpt>
      <trkpt lat="41.5896650" lon="-8.7836150">
        <ele>33.1</ele>
        <time>2021-05-17T11:05:02Z</time>
      </trkpt>
      <trkpt lat="41.5896750" lon="-8.7836170">
        <ele>33.2</ele>
        <time>2021-05-17T11:05:03Z</time>
      </trkpt>
      <trkpt lat="41.5896840" lon="-8.7836180">
        <ele>33.2</ele>
        <time>2021-05-17T11:05:04Z</time>
      </trkpt>
      <trkpt lat="41.5897000" lon="-8.7836200">
        <ele>33.2</ele>
        <time>2021-05-17T11:05:05Z</time>
      </trkpt>
      <trkpt lat="41.5897070" lon="-8.7836190">
        <ele>33.2</ele>
        <time>2021-05-17T11:05:06Z</time>
      </trkpt>
      <trkpt lat="41.5897240" lon="-8.7836170">
        <ele>33.2</ele>
        <time>2021-05-17T11:05:07Z</time>
      </trkpt>
      <trkpt lat="41.5897360" lon="-8.7836160">
        <ele>33.2</ele>
        <time>2021-05-17T11:05:08Z</time>
      </trkpt>
      <trkpt lat="41.5897500" lon="-8.7836090">
        <ele>33.2</ele>
        <time>2021-05-17T11:05:09Z</time>
      </trkpt>
      <trkpt lat="41.5897700" lon="-8.7836080">
        <ele>33.3</ele>
        <time>2021-05-17T11:05:10Z</time>
      </trkpt>
      <trkpt lat="41.5897850" lon="-8.7836070">
        <ele>33.3</ele>
        <time>2021-05-17T11:05:11Z</time>
      </trkpt>
      <trkpt lat="41.5897970" lon="-8.7836080">
        <ele>33.3</ele>
        <time>2021-05-17T11:05:12Z</time>
      </trkpt>
      <trkpt lat="41.5898260" lon="-8.7836030">
        <ele>33.3</ele>
        <time>2021-05-17T11:05:13Z</time>
      </trkpt>
      <trkpt lat="41.5898360" lon="-8.7836020">
        <ele>33.4</ele>
        <time>2021-05-17T11:05:14Z</time>
      </trkpt>
      <trkpt lat="41.5898470" lon="-8.7835960">
        <ele>33.4</ele>
        <time>2021-05-17T11:05:15Z</time>
      </trkpt>
      <trkpt lat="41.5898630" lon="-8.7835870">
        <ele>33.4</ele>
        <time>2021-05-17T11:05:16Z</time>
      </trkpt>
      <trkpt lat="41.5898790" lon="-8.7835860">
        <ele>33.4</ele>
        <time>2021-05-17T11:05:17Z</time>
      </trkpt>
      <trkpt lat="41.5898910" lon="-8.7835830">
        <ele>33.5</ele>
        <time>2021-05-17T11:05:18Z</time>
      </trkpt>
      <trkpt lat="41.5899020" lon="-8.7835810">
        <ele>33.5</ele>
        <time>2021-05-17T11:05:19Z</time>
      </trkpt>
      <trkpt lat="41.5899220" lon="-8.7835820">
        <ele>33.5</ele>
        <time>2021-05-17T11:05:20Z</time>
      </trkpt>
      <trkpt lat="41.5899360" lon="-8.7835850">
        <ele>33.6</ele>
        <time>2021-05-17T11:05:21Z</time>
      </trkpt>
      <trkpt lat="41.5899530" lon="-8.7835780">
        <ele>33.6</ele>
        <time>2021-05-17T11:05:22Z</time>
      </trkpt>
      <trkpt lat="41.5899700" lon="-8.7835870">
        <ele>33.6</ele>
        <time>2021-05-17T11:05:23Z</time>
      </trkpt>
      <trkpt lat="41.5899890" lon="-8.7835790">
        <ele>33.7</ele>
        <time>2021-05-17T11:05:24Z</time>
      </trkpt>
      <trkpt lat="41.5899980" lon="-8.7835770">
        <ele>33.7</ele>
        <time>2021-05-17T11:05:25Z</time>
      </trkpt>
      <trkpt lat="41.5900070" lon="-8.7835740">
        <ele>33.7</ele>
        <time>2021-05-17T11:05:26Z</time>
      </trkpt>
      <trkpt lat="41.5900290" lon="-8.7835740">
        <ele>33.8</ele>
        <time>2021-05-17T11:05:27Z</time>
      </trkpt>
      <trkpt lat="41.5900380" lon="-8.7835730">
        <ele>33.8</ele>
        <time>2021-05-17T11:05:28Z</time>
      </trkpt>
      <trkpt lat="41.5900470" lon="-8.7835710">
        <ele>33.8</ele>
        <time>2021-05-17T11:05:29Z</time>
      </trkpt>
      <trkpt lat="41.5900690" lon="-8.7835660">
        <ele>33.8</ele>
        <time>2021-05-17T11:05:30Z</time>
      </trkpt>
      <trkpt lat="41.5900800" lon="-8.7835670">
        <ele>33.9</ele>
        <time>2021-05-17T11:05:31Z</time>
      </trkpt>
      <trkpt lat="41.5900990" lon="-8.7835640">
        <ele>33.9</ele>
        <time>2021-05-17T11:05:32Z</time>
      </trkpt>
      <trkpt lat="41.5901130" lon="-8.7835620">
        <ele>34.0</ele>
        <time>2021-05-17T11:05:33Z</time>
      </trkpt>
      <trkpt lat="41.5901410" lon="-8.7835580">
        <ele>34.0</ele>
        <time>2021-05-17T11:05:34Z</time>
      </trkpt>
      <trkpt lat="41.5901510" lon="-8.7835540">
        <ele>34.1</ele>
        <time>2021-05-17T11:05:35Z</time>
      </trkpt>
      <trkpt lat="41.5901700" lon="-8.7835540">
        <ele>34.1</ele>
        <time>2021-05-17T11:05:36Z</time>
      </trkpt>
      <trkpt lat="41.5901870" lon="-8.7835520">
        <ele>34.2</ele>
        <time>2021-05-17T11:05:37Z</time>
      </trkpt>
      <trkpt lat="41.5902050" lon="-8.7835480">
        <ele>34.2</ele>
        <time>2021-05-17T11:05:38Z</time>
      </trkpt>
      <trkpt lat="41.5902220" lon="-8.7835500">
        <ele>34.3</ele>
        <time>2021-05-17T11:05:39Z</time>
      </trkpt>
      <trkpt lat="41.5902390" lon="-8.7835560">
        <ele>34.3</ele>
        <time>2021-05-17T11:05:40Z</time>
      </trkpt>
      <trkpt lat="41.5902570" lon="-8.7835520">
        <ele>34.4</ele>
        <time>2021-05-17T11:05:41Z</time>
      </trkpt>
      <trkpt lat="41.5902730" lon="-8.7835530">
        <ele>34.4</ele>
        <time>2021-05-17T11:05:42Z</time>
      </trkpt>
      <trkpt lat="41.5902900" lon="-8.7835480">
        <ele>34.5</ele>
        <time>2021-05-17T11:05:43Z</time>
      </trkpt>
      <trkpt lat="41.5903060" lon="-8.7835520">
        <ele>34.5</ele>
        <time>2021-05-17T11:05:44Z</time>
      </trkpt>
      <trkpt lat="41.5903230" lon="-8.7835540">
        <ele>34.6</ele>
        <time>2021-05-17T11:05:45Z</time>
      </trkpt>
      <trkpt lat="41.5903380" lon="-8.7835620">
        <ele>34.6</ele>
        <time>2021-05-17T11:05:46Z</time>
      </trkpt>
      <trkpt lat="41.5903530" lon="-8.7835580">
        <ele>34.7</ele>
        <time>2021-05-17T11:05:47Z</time>
      </trkpt>
      <trkpt lat="41.5903700" lon="-8.7835580">
        <ele>34.7</ele>
        <time>2021-05-17T11:05:48Z</time>
      </trkpt>
      <trkpt lat="41.5903870" lon="-8.7835500">
        <ele>34.8</ele>
        <time>2021-05-17T11:05:49Z</time>
      </trkpt>
      <trkpt lat="41.5904040" lon="-8.7835540">
        <ele>34.9</ele>
        <time>2021-05-17T11:05:50Z</time>
      </trkpt>
      <trkpt lat="41.5904190" lon="-8.7835400">
        <ele>34.9</ele>
        <time>2021-05-17T11:05:51Z</time>
      </trkpt>
      <trkpt lat="41.5904360" lon="-8.7835460">
        <ele>35.0</ele>
        <time>2021-05-17T11:05:52Z</time>
      </trkpt>
      <trkpt lat="41.5904540" lon="-8.7835420">
        <ele>35.0</ele>
        <time>2021-05-17T11:05:53Z</time>
      </trkpt>
      <trkpt lat="41.5904690" lon="-8.7835360">
        <ele>35.0</ele>
        <time>2021-05-17T11:05:54Z</time>
      </trkpt>
      <trkpt lat="41.5904850" lon="-8.7835380">
        <ele>35.1</ele>
        <time>2021-05-17T11:05:55Z</time>
      </trkpt>
      <trkpt lat="41.5905000" lon="-8.7835300">
        <ele>35.1</ele>
        <time>2021-05-17T11:05:56Z</time>
      </trkpt>
      <trkpt lat="41.5905160" lon="-8.7835210">
        <ele>35.2</ele>
        <time>2021-05-17T11:05:57Z</time>
      </trkpt>
      <trkpt lat="41.5905300" lon="-8.7835200">
        <ele>35.2</ele>
        <time>2021-05-17T11:05:58Z</time>
      </trkpt>
      <trkpt lat="41.5905460" lon="-8.7835200">
        <ele>35.3</ele>
        <time>2021-05-17T11:05:59Z</time>
      </trkpt>
      <trkpt lat="41.5905610" lon="-8.7835050">
        <ele>35.3</ele>
        <time>2021-05-17T11:06:00Z</time>
      </trkpt>
      <trkpt lat="41.5905770" lon="-8.7835070">
        <ele>35.4</ele>
        <time>2021-05-17T11:06:01Z</time>
      </trkpt>
      <trkpt lat="41.5905900" lon="-8.7835000">
        <ele>35.4</ele>
        <time>2021-05-17T11:06:02Z</time>
      </trkpt>
      <trkpt lat="41.5906060" lon="-8.7835000">
        <ele>35.5</ele>
        <time>2021-05-17T11:06:03Z</time>
      </trkpt>
      <trkpt lat="41.5906220" lon="-8.7834900">
        <ele>35.5</ele>
        <time>2021-05-17T11:06:04Z</time>
      </trkpt>
      <trkpt lat="41.5906380" lon="-8.7834890">
        <ele>35.6</ele>
        <time>2021-05-17T11:06:05Z</time>
      </trkpt>
      <trkpt lat="41.5906540" lon="-8.7834800">
        <ele>35.6</ele>
        <time>2021-05-17T11:06:06Z</time>
      </trkpt>
      <trkpt lat="41.5906700" lon="-8.7834870">
        <ele>35.7</ele>
        <time>2021-05-17T11:06:07Z</time>
      </trkpt>
      <trkpt lat="41.5906860" lon="-8.7834890">
        <ele>35.7</ele>
        <time>2021-05-17T11:06:08Z</time>
      </trkpt>
      <trkpt lat="41.5907000" lon="-8.7834860">
        <ele>35.8</ele>
        <time>2021-05-17T11:06:09Z</time>
      </trkpt>
      <trkpt lat="41.5907170" lon="-8.7834820">
        <ele>35.8</ele>
        <time>2021-05-17T11:06:10Z</time>
      </trkpt>
      <trkpt lat="41.5907310" lon="-8.7834890">
        <ele>35.9</ele>
        <time>2021-05-17T11:06:11Z</time>
      </trkpt>
      <trkpt lat="41.5907540" lon="-8.7834850">
        <ele>36.0</ele>
        <time>2021-05-17T11:06:12Z</time>
      </trkpt>
      <trkpt lat="41.5907620" lon="-8.7834890">
        <ele>36.0</ele>
        <time>2021-05-17T11:06:13Z</time>
      </trkpt>
      <trkpt lat="41.5907690" lon="-8.7834930">
        <ele>36.0</ele>
        <time>2021-05-17T11:06:14Z</time>
      </trkpt>
      <trkpt lat="41.5907830" lon="-8.7834900">
        <ele>36.1</ele>
        <time>2021-05-17T11:06:15Z</time>
      </trkpt>
      <trkpt lat="41.5907970" lon="-8.7834900">
        <ele>36.1</ele>
        <time>2021-05-17T11:06:16Z</time>
      </trkpt>
      <trkpt lat="41.5908180" lon="-8.7834820">
        <ele>36.2</ele>
        <time>2021-05-17T11:06:17Z</time>
      </trkpt>
      <trkpt lat="41.5908260" lon="-8.7834790">
        <ele>36.3</ele>
        <time>2021-05-17T11:06:18Z</time>
      </trkpt>
      <trkpt lat="41.5908330" lon="-8.7834770">
        <ele>36.3</ele>
        <time>2021-05-17T11:06:19Z</time>
      </trkpt>
      <trkpt lat="41.5908420" lon="-8.7834730">
        <ele>36.3</ele>
        <time>2021-05-17T11:06:20Z</time>
      </trkpt>
      <trkpt lat="41.5908540" lon="-8.7834740">
        <ele>36.4</ele>
        <time>2021-05-17T11:06:21Z</time>
      </trkpt>
      <trkpt lat="41.5908650" lon="-8.7834680">
        <ele>36.4</ele>
        <time>2021-05-17T11:06:22Z</time>
      </trkpt>
      <trkpt lat="41.5908880" lon="-8.7834640">
        <ele>36.5</ele>
        <time>2021-05-17T11:06:23Z</time>
      </trkpt>
      <trkpt lat="41.5908980" lon="-8.7834610">
        <ele>36.6</ele>
        <time>2021-05-17T11:06:24Z</time>
      </trkpt>
      <trkpt lat="41.5909070" lon="-8.7834570">
        <ele>36.6</ele>
        <time>2021-05-17T11:06:25Z</time>
      </trkpt>
      <trkpt lat="41.5909210" lon="-8.7834630">
        <ele>36.7</ele>
        <time>2021-05-17T11:06:26Z</time>
      </trkpt>
      <trkpt lat="41.5909340" lon="-8.7834650">
        <ele>36.7</ele>
        <time>2021-05-17T11:06:27Z</time>
      </trkpt>
      <trkpt lat="41.5909490" lon="-8.7834670">
        <ele>36.8</ele>
        <time>2021-05-17T11:06:28Z</time>
      </trkpt>
      <trkpt lat="41.5909630" lon="-8.7834630">
        <ele>36.8</ele>
        <time>2021-05-17T11:06:29Z</time>
      </trkpt>
      <trkpt lat="41.5909790" lon="-8.7834630">
        <ele>36.9</ele>
        <time>2021-05-17T11:06:30Z</time>
      </trkpt>
      <trkpt lat="41.5909960" lon="-8.7834580">
        <ele>37.0</ele>
        <time>2021-05-17T11:06:31Z</time>
      </trkpt>
      <trkpt lat="41.5910130" lon="-8.7834610">
        <ele>37.1</ele>
        <time>2021-05-17T11:06:32Z</time>
      </trkpt>
      <trkpt lat="41.5910280" lon="-8.7834570">
        <ele>37.1</ele>
        <time>2021-05-17T11:06:33Z</time>
      </trkpt>
      <trkpt lat="41.5910440" lon="-8.7834530">
        <ele>37.2</ele>
        <time>2021-05-17T11:06:34Z</time>
      </trkpt>
      <trkpt lat="41.5910600" lon="-8.7834540">
        <ele>37.3</ele>
        <time>2021-05-17T11:06:35Z</time>
      </trkpt>
      <trkpt lat="41.5910840" lon="-8.7834540">
        <ele>37.4</ele>
        <time>2021-05-17T11:06:36Z</time>
      </trkpt>
      <trkpt lat="41.5910930" lon="-8.7834500">
        <ele>37.4</ele>
        <time>2021-05-17T11:06:37Z</time>
      </trkpt>
      <trkpt lat="41.5911030" lon="-8.7834460">
        <ele>37.5</ele>
        <time>2021-05-17T11:06:38Z</time>
      </trkpt>
      <trkpt lat="41.5911310" lon="-8.7834490">
        <ele>37.6</ele>
        <time>2021-05-17T11:06:39Z</time>
      </trkpt>
      <trkpt lat="41.5911400" lon="-8.7834480">
        <ele>37.6</ele>
        <time>2021-05-17T11:06:40Z</time>
      </trkpt>
      <trkpt lat="41.5911590" lon="-8.7834440">
        <ele>37.7</ele>
        <time>2021-05-17T11:06:41Z</time>
      </trkpt>
      <trkpt lat="41.5911750" lon="-8.7834420">
        <ele>37.7</ele>
        <time>2021-05-17T11:06:42Z</time>
      </trkpt>
      <trkpt lat="41.5911920" lon="-8.7834390">
        <ele>37.8</ele>
        <time>2021-05-17T11:06:43Z</time>
      </trkpt>
      <trkpt lat="41.5912080" lon="-8.7834400">
        <ele>37.9</ele>
        <time>2021-05-17T11:06:44Z</time>
      </trkpt>
      <trkpt lat="41.5912240" lon="-8.7834370">
        <ele>37.9</ele>
        <time>2021-05-17T11:06:45Z</time>
      </trkpt>
      <trkpt lat="41.5912400" lon="-8.7834300">
        <ele>38.0</ele>
        <time>2021-05-17T11:06:46Z</time>
      </trkpt>
      <trkpt lat="41.5912550" lon="-8.7834260">
        <ele>38.0</ele>
        <time>2021-05-17T11:06:47Z</time>
      </trkpt>
      <trkpt lat="41.5912700" lon="-8.7834250">
        <ele>38.1</ele>
        <time>2021-05-17T11:06:48Z</time>
      </trkpt>
      <trkpt lat="41.5912860" lon="-8.7834250">
        <ele>38.2</ele>
        <time>2021-05-17T11:06:49Z</time>
      </trkpt>
      <trkpt lat="41.5913000" lon="-8.7834250">
        <ele>38.2</ele>
        <time>2021-05-17T11:06:50Z</time>
      </trkpt>
      <trkpt lat="41.5913150" lon="-8.7834280">
        <ele>38.2</ele>
        <time>2021-05-17T11:06:51Z</time>
      </trkpt>
      <trkpt lat="41.5913290" lon="-8.7834210">
        <ele>38.3</ele>
        <time>2021-05-17T11:06:52Z</time>
      </trkpt>
      <trkpt lat="41.5913450" lon="-8.7834230">
        <ele>38.3</ele>
        <time>2021-05-17T11:06:53Z</time>
      </trkpt>
      <trkpt lat="41.5913600" lon="-8.7834270">
        <ele>38.4</ele>
        <time>2021-05-17T11:06:54Z</time>
      </trkpt>
      <trkpt lat="41.5913830" lon="-8.7834250">
        <ele>38.4</ele>
        <time>2021-05-17T11:06:55Z</time>
      </trkpt>
      <trkpt lat="41.5913910" lon="-8.7834230">
        <ele>38.5</ele>
        <time>2021-05-17T11:06:56Z</time>
      </trkpt>
      <trkpt lat="41.5914000" lon="-8.7834200">
        <ele>38.5</ele>
        <time>2021-05-17T11:06:57Z</time>
      </trkpt>
      <trkpt lat="41.5914100" lon="-8.7834230">
        <ele>38.5</ele>
        <time>2021-05-17T11:06:58Z</time>
      </trkpt>
      <trkpt lat="41.5914130" lon="-8.7834160">
        <ele>38.5</ele>
        <time>2021-05-17T11:06:59Z</time>
      </trkpt>
      <trkpt lat="41.5914090" lon="-8.7834140">
        <ele>38.5</ele>
        <time>2021-05-17T11:07:00Z</time>
      </trkpt>
      <trkpt lat="41.5914180" lon="-8.7834140">
        <ele>38.6</ele>
        <time>2021-05-17T11:07:01Z</time>
      </trkpt>
      <trkpt lat="41.5914230" lon="-8.7834130">
        <ele>38.6</ele>
        <time>2021-05-17T11:07:02Z</time>
      </trkpt>
      <trkpt lat="41.5914290" lon="-8.7834100">
        <ele>38.6</ele>
        <time>2021-05-17T11:07:03Z</time>
      </trkpt>
      <trkpt lat="41.5914380" lon="-8.7834080">
        <ele>38.6</ele>
        <time>2021-05-17T11:07:04Z</time>
      </trkpt>
      <trkpt lat="41.5914420" lon="-8.7834070">
        <ele>38.6</ele>
        <time>2021-05-17T11:07:05Z</time>
      </trkpt>
      <trkpt lat="41.5914430" lon="-8.7834020">
        <ele>38.6</ele>
        <time>2021-05-17T11:07:06Z</time>
      </trkpt>
      <trkpt lat="41.5914410" lon="-8.7834130">
        <ele>38.6</ele>
        <time>2021-05-17T11:07:07Z</time>
      </trkpt>
      <trkpt lat="41.5914520" lon="-8.7834170">
        <ele>38.7</ele>
        <time>2021-05-17T11:07:08Z</time>
      </trkpt>
      <trkpt lat="41.5914570" lon="-8.7834200">
        <ele>38.7</ele>
        <time>2021-05-17T11:07:09Z</time>
      </trkpt>
      <trkpt lat="41.5914820" lon="-8.7834230">
        <ele>38.7</ele>
        <time>2021-05-17T11:07:10Z</time>
      </trkpt>
      <trkpt lat="41.5914900" lon="-8.7834210">
        <ele>38.7</ele>
        <time>2021-05-17T11:07:11Z</time>
      </trkpt>
      <trkpt lat="41.5914970" lon="-8.7834180">
        <ele>38.8</ele>
        <time>2021-05-17T11:07:12Z</time>
      </trkpt>
      <trkpt lat="41.5915050" lon="-8.7834240">
        <ele>38.8</ele>
        <time>2021-05-17T11:07:13Z</time>
      </trkpt>
      <trkpt lat="41.5915140" lon="-8.7834310">
        <ele>38.8</ele>
        <time>2021-05-17T11:07:14Z</time>
      </trkpt>
      <trkpt lat="41.5915170" lon="-8.7834280">
        <ele>38.8</ele>
        <time>2021-05-17T11:07:15Z</time>
      </trkpt>
      <trkpt lat="41.5915290" lon="-8.7834350">
        <ele>38.8</ele>
        <time>2021-05-17T11:07:16Z</time>
      </trkpt>
      <trkpt lat="41.5915350" lon="-8.7834330">
        <ele>38.8</ele>
        <time>2021-05-17T11:07:17Z</time>
      </trkpt>
      <trkpt lat="41.5915480" lon="-8.7834390">
        <ele>38.9</ele>
        <time>2021-05-17T11:07:18Z</time>
      </trkpt>
      <trkpt lat="41.5915620" lon="-8.7834410">
        <ele>38.9</ele>
        <time>2021-05-17T11:07:19Z</time>
      </trkpt>
      <trkpt lat="41.5915610" lon="-8.7834470">
        <ele>38.9</ele>
        <time>2021-05-17T11:07:20Z</time>
      </trkpt>
      <trkpt lat="41.5915590" lon="-8.7834450">
        <ele>38.9</ele>
        <time>2021-05-17T11:07:21Z</time>
      </trkpt>
      <trkpt lat="41.5915610" lon="-8.7834410">
        <ele>38.9</ele>
        <time>2021-05-17T11:07:22Z</time>
      </trkpt>
      <trkpt lat="41.5915610" lon="-8.7834410">
        <ele>38.9</ele>
        <time>2021-05-17T11:07:23Z</time>
      </trkpt>
      <trkpt lat="41.5915660" lon="-8.7834420">
        <ele>38.9</ele>
        <time>2021-05-17T11:07:24Z</time>
      </trkpt>
      <trkpt lat="41.5915720" lon="-8.7834390">
        <ele>38.9</ele>
        <time>2021-05-17T11:07:25Z</time>
      </trkpt>
      <trkpt lat="41.5915770" lon="-8.7834370">
        <ele>38.9</ele>
        <time>2021-05-17T11:07:26Z</time>
      </trkpt>
      <trkpt lat="41.5915910" lon="-8.7834330">
        <ele>38.9</ele>
        <time>2021-05-17T11:07:27Z</time>
      </trkpt>
      <trkpt lat="41.5916040" lon="-8.7834310">
        <ele>38.9</ele>
        <time>2021-05-17T11:07:28Z</time>
      </trkpt>
      <trkpt lat="41.5916210" lon="-8.7834300">
        <ele>38.9</ele>
        <time>2021-05-17T11:07:29Z</time>
      </trkpt>
      <trkpt lat="41.5916270" lon="-8.7834360">
        <ele>38.9</ele>
        <time>2021-05-17T11:07:30Z</time>
      </trkpt>
      <trkpt lat="41.5916380" lon="-8.7834330">
        <ele>38.9</ele>
        <time>2021-05-17T11:07:31Z</time>
      </trkpt>
      <trkpt lat="41.5916500" lon="-8.7834390">
        <ele>38.9</ele>
        <time>2021-05-17T11:07:32Z</time>
      </trkpt>
      <trkpt lat="41.5916490" lon="-8.7834330">
        <ele>38.9</ele>
        <time>2021-05-17T11:07:33Z</time>
      </trkpt>
      <trkpt lat="41.5916380" lon="-8.7834280">
        <ele>38.9</ele>
        <time>2021-05-17T11:07:34Z</time>
      </trkpt>
      <trkpt lat="41.5916240" lon="-8.7834300">
        <ele>38.9</ele>
        <time>2021-05-17T11:07:35Z</time>
      </trkpt>
      <trkpt lat="41.5915950" lon="-8.7834340">
        <ele>38.9</ele>
        <time>2021-05-17T11:07:36Z</time>
      </trkpt>
      <trkpt lat="41.5915830" lon="-8.7834370">
        <ele>38.9</ele>
        <time>2021-05-17T11:07:37Z</time>
      </trkpt>
      <trkpt lat="41.5915700" lon="-8.7834390">
        <ele>38.9</ele>
        <time>2021-05-17T11:07:38Z</time>
      </trkpt>
      <trkpt lat="41.5915600" lon="-8.7834410">
        <ele>38.9</ele>
        <time>2021-05-17T11:07:39Z</time>
      </trkpt>
      <trkpt lat="41.5915550" lon="-8.7834410">
        <ele>38.9</ele>
        <time>2021-05-17T11:07:40Z</time>
      </trkpt>
      <trkpt lat="41.5915340" lon="-8.7834440">
        <ele>38.9</ele>
        <time>2021-05-17T11:07:41Z</time>
      </trkpt>
      <trkpt lat="41.5915290" lon="-8.7834420">
        <ele>38.9</ele>
        <time>2021-05-17T11:07:42Z</time>
      </trkpt>
      <trkpt lat="41.5915230" lon="-8.7834440">
        <ele>38.8</ele>
        <time>2021-05-17T11:07:43Z</time>
      </trkpt>
      <trkpt lat="41.5915250" lon="-8.7834410">
        <ele>38.8</ele>
        <time>2021-05-17T11:07:44Z</time>
      </trkpt>
      <trkpt lat="41.5915250" lon="-8.7834400">
        <ele>38.8</ele>
        <time>2021-05-17T11:07:45Z</time>
      </trkpt>
      <trkpt lat="41.5915250" lon="-8.7834340">
        <ele>38.8</ele>
        <time>2021-05-17T11:07:46Z</time>
      </trkpt>
      <trkpt lat="41.5915180" lon="-8.7834320">
        <ele>38.8</ele>
        <time>2021-05-17T11:07:47Z</time>
      </trkpt>
      <trkpt lat="41.5915150" lon="-8.7834330">
        <ele>38.8</ele>
        <time>2021-05-17T11:07:48Z</time>
      </trkpt>
      <trkpt lat="41.5915160" lon="-8.7834420">
        <ele>38.8</ele>
        <time>2021-05-17T11:07:49Z</time>
      </trkpt>
      <trkpt lat="41.5915190" lon="-8.7834380">
        <ele>38.8</ele>
        <time>2021-05-17T11:07:50Z</time>
      </trkpt>
      <trkpt lat="41.5915190" lon="-8.7834190">
        <ele>38.8</ele>
        <time>2021-05-17T11:07:51Z</time>
      </trkpt>
      <trkpt lat="41.5915210" lon="-8.7834260">
        <ele>38.8</ele>
        <time>2021-05-17T11:07:52Z</time>
      </trkpt>
      <trkpt lat="41.5915090" lon="-8.7834230">
        <ele>38.8</ele>
        <time>2021-05-17T11:07:53Z</time>
      </trkpt>
      <trkpt lat="41.5915100" lon="-8.7834200">
        <ele>38.8</ele>
        <time>2021-05-17T11:07:54Z</time>
      </trkpt>
      <trkpt lat="41.5915180" lon="-8.7834150">
        <ele>38.8</ele>
        <time>2021-05-17T11:07:55Z</time>
      </trkpt>
      <trkpt lat="41.5915090" lon="-8.7834000">
        <ele>38.8</ele>
        <time>2021-05-17T11:07:56Z</time>
      </trkpt>
      <trkpt lat="41.5915070" lon="-8.7833990">
        <ele>38.8</ele>
        <time>2021-05-17T11:07:57Z</time>
      </trkpt>
      <trkpt lat="41.5914970" lon="-8.7833990">
        <ele>38.8</ele>
        <time>2021-05-17T11:07:58Z</time>
      </trkpt>
      <trkpt lat="41.5914950" lon="-8.7834080">
        <ele>38.8</ele>
        <time>2021-05-17T11:07:59Z</time>
      </trkpt>
      <trkpt lat="41.5914840" lon="-8.7833980">
        <ele>38.8</ele>
        <time>2021-05-17T11:08:00Z</time>
      </trkpt>
      <trkpt lat="41.5914810" lon="-8.7833970">
        <ele>38.8</ele>
        <time>2021-05-17T11:08:01Z</time>
      </trkpt>
      <trkpt lat="41.5914770" lon="-8.7833970">
        <ele>38.8</ele>
        <time>2021-05-17T11:08:02Z</time>
      </trkpt>
      <trkpt lat="41.5914750" lon="-8.7833980">
        <ele>38.8</ele>
        <time>2021-05-17T11:08:03Z</time>
      </trkpt>
      <trkpt lat="41.5914900" lon="-8.7833680">
        <ele>38.8</ele>
        <time>2021-05-17T11:08:04Z</time>
      </trkpt>
      <trkpt lat="41.5914550" lon="-8.7833850">
        <ele>38.8</ele>
        <time>2021-05-17T11:08:05Z</time>
      </trkpt>
      <trkpt lat="41.5914570" lon="-8.7833970">
        <ele>38.8</ele>
        <time>2021-05-17T11:08:06Z</time>
      </trkpt>
      <trkpt lat="41.5914660" lon="-8.7834100">
        <ele>38.8</ele>
        <time>2021-05-17T11:08:07Z</time>
      </trkpt>
      <trkpt lat="41.5914740" lon="-8.7834230">
        <ele>38.8</ele>
        <time>2021-05-17T11:08:08Z</time>
      </trkpt>
      <trkpt lat="41.5914830" lon="-8.7834360">
        <ele>38.8</ele>
        <time>2021-05-17T11:08:09Z</time>
      </trkpt>
      <trkpt lat="41.5914920" lon="-8.7834490">
        <ele>38.8</ele>
        <time>2021-05-17T11:08:10Z</time>
      </trkpt>
      <trkpt lat="41.5914960" lon="-8.7834430">
        <ele>38.8</ele>
        <time>2021-05-17T11:08:11Z</time>
      </trkpt>
      <trkpt lat="41.5915140" lon="-8.7834410">
        <ele>38.7</ele>
        <time>2021-05-17T11:08:12Z</time>
      </trkpt>
      <trkpt lat="41.5915270" lon="-8.7834550">
        <ele>38.7</ele>
        <time>2021-05-17T11:08:13Z</time>
      </trkpt>
      <trkpt lat="41.5915290" lon="-8.7834710">
        <ele>38.7</ele>
        <time>2021-05-17T11:08:14Z</time>
      </trkpt>
      <trkpt lat="41.5915410" lon="-8.7834720">
        <ele>38.7</ele>
        <time>2021-05-17T11:08:15Z</time>
      </trkpt>
      <trkpt lat="41.5915520" lon="-8.7834680">
        <ele>38.7</ele>
        <time>2021-05-17T11:08:16Z</time>
      </trkpt>
      <trkpt lat="41.5915520" lon="-8.7834800">
        <ele>38.7</ele>
        <time>2021-05-17T11:08:17Z</time>
      </trkpt>
      <trkpt lat="41.5915520" lon="-8.7834820">
        <ele>38.7</ele>
        <time>2021-05-17T11:08:18Z</time>
      </trkpt>
      <trkpt lat="41.5915630" lon="-8.7834800">
        <ele>38.7</ele>
        <time>2021-05-17T11:08:19Z</time>
      </trkpt>
      <trkpt lat="41.5915630" lon="-8.7834800">
        <ele>38.7</ele>
        <time>2021-05-17T11:08:20Z</time>
      </trkpt>
      <trkpt lat="41.5915580" lon="-8.7834760">
        <ele>38.7</ele>
        <time>2021-05-17T11:08:21Z</time>
      </trkpt>
      <trkpt lat="41.5915540" lon="-8.7834690">
        <ele>38.7</ele>
        <time>2021-05-17T11:08:22Z</time>
      </trkpt>
      <trkpt lat="41.5915460" lon="-8.7834780">
        <ele>38.7</ele>
        <time>2021-05-17T11:08:23Z</time>
      </trkpt>
      <trkpt lat="41.5915410" lon="-8.7834800">
        <ele>38.7</ele>
        <time>2021-05-17T11:08:24Z</time>
      </trkpt>
      <trkpt lat="41.5915380" lon="-8.7834800">
        <ele>38.7</ele>
        <time>2021-05-17T11:08:25Z</time>
      </trkpt>
      <trkpt lat="41.5915250" lon="-8.7834780">
        <ele>38.7</ele>
        <time>2021-05-17T11:08:26Z</time>
      </trkpt>
      <trkpt lat="41.5915160" lon="-8.7834780">
        <ele>38.7</ele>
        <time>2021-05-17T11:08:27Z</time>
      </trkpt>
      <trkpt lat="41.5915110" lon="-8.7834820">
        <ele>38.7</ele>
        <time>2021-05-17T11:08:28Z</time>
      </trkpt>
      <trkpt lat="41.5915080" lon="-8.7834820">
        <ele>38.7</ele>
        <time>2021-05-17T11:08:29Z</time>
      </trkpt>
      <trkpt lat="41.5915050" lon="-8.7834820">
        <ele>38.7</ele>
        <time>2021-05-17T11:08:30Z</time>
      </trkpt>
      <trkpt lat="41.5915010" lon="-8.7834850">
        <ele>38.7</ele>
        <time>2021-05-17T11:08:31Z</time>
      </trkpt>
      <trkpt lat="41.5914940" lon="-8.7834870">
        <ele>38.7</ele>
        <time>2021-05-17T11:08:32Z</time>
      </trkpt>
      <trkpt lat="41.5914860" lon="-8.7834640">
        <ele>38.7</ele>
        <time>2021-05-17T11:08:33Z</time>
      </trkpt>
      <trkpt lat="41.5914810" lon="-8.7834410">
        <ele>38.7</ele>
        <time>2021-05-17T11:08:34Z</time>
      </trkpt>
      <trkpt lat="41.5914710" lon="-8.7834270">
        <ele>38.7</ele>
        <time>2021-05-17T11:08:35Z</time>
      </trkpt>
      <trkpt lat="41.5914540" lon="-8.7834670">
        <ele>38.7</ele>
        <time>2021-05-17T11:08:36Z</time>
      </trkpt>
      <trkpt lat="41.5914160" lon="-8.7834250">
        <ele>38.6</ele>
        <time>2021-05-17T11:08:37Z</time>
      </trkpt>
      <trkpt lat="41.5913750" lon="-8.7834010">
        <ele>38.4</ele>
        <time>2021-05-17T11:08:38Z</time>
      </trkpt>
      <trkpt lat="41.5913330" lon="-8.7833760">
        <ele>38.3</ele>
        <time>2021-05-17T11:08:39Z</time>
      </trkpt>
      <trkpt lat="41.5912920" lon="-8.7833520">
        <ele>38.2</ele>
        <time>2021-05-17T11:08:40Z</time>
      </trkpt>
      <trkpt lat="41.5911800" lon="-8.7833430">
        <ele>37.8</ele>
        <time>2021-05-17T11:08:41Z</time>
      </trkpt>
      <trkpt lat="41.5912520" lon="-8.7833260">
        <ele>38.1</ele>
        <time>2021-05-17T11:08:42Z</time>
      </trkpt>
      <trkpt lat="41.5913200" lon="-8.7833310">
        <ele>38.3</ele>
        <time>2021-05-17T11:08:43Z</time>
      </trkpt>
      <trkpt lat="41.5913870" lon="-8.7833350">
        <ele>38.4</ele>
        <time>2021-05-17T11:08:44Z</time>
      </trkpt>
      <trkpt lat="41.5914330" lon="-8.7833920">
        <ele>38.6</ele>
        <time>2021-05-17T11:08:45Z</time>
      </trkpt>
      <trkpt lat="41.5914690" lon="-8.7833640">
        <ele>38.7</ele>
        <time>2021-05-17T11:08:46Z</time>
      </trkpt>
      <trkpt lat="41.5914780" lon="-8.7833390">
        <ele>38.7</ele>
        <time>2021-05-17T11:08:47Z</time>
      </trkpt>
      <trkpt lat="41.5914870" lon="-8.7833860">
        <ele>38.8</ele>
        <time>2021-05-17T11:08:48Z</time>
      </trkpt>
      <trkpt lat="41.5914910" lon="-8.7834400">
        <ele>38.9</ele>
        <time>2021-05-17T11:08:49Z</time>
      </trkpt>
      <trkpt lat="41.5915030" lon="-8.7834610">
        <ele>38.9</ele>
        <time>2021-05-17T11:08:50Z</time>
      </trkpt>
      <trkpt lat="41.5915160" lon="-8.7834570">
        <ele>38.9</ele>
        <time>2021-05-17T11:08:51Z</time>
      </trkpt>
      <trkpt lat="41.5915230" lon="-8.7834620">
        <ele>38.9</ele>
        <time>2021-05-17T11:08:52Z</time>
      </trkpt>
      <trkpt lat="41.5915300" lon="-8.7834620">
        <ele>38.9</ele>
        <time>2021-05-17T11:08:53Z</time>
      </trkpt>
      <trkpt lat="41.5915380" lon="-8.7834670">
        <ele>39.0</ele>
        <time>2021-05-17T11:08:54Z</time>
      </trkpt>
      <trkpt lat="41.5915400" lon="-8.7834550">
        <ele>39.0</ele>
        <time>2021-05-17T11:08:55Z</time>
      </trkpt>
      <trkpt lat="41.5915490" lon="-8.7834570">
        <ele>39.0</ele>
        <time>2021-05-17T11:08:56Z</time>
      </trkpt>
      <trkpt lat="41.5915620" lon="-8.7834550">
        <ele>39.0</ele>
        <time>2021-05-17T11:08:57Z</time>
      </trkpt>
      <trkpt lat="41.5915780" lon="-8.7834540">
        <ele>39.0</ele>
        <time>2021-05-17T11:08:58Z</time>
      </trkpt>
      <trkpt lat="41.5916040" lon="-8.7834480">
        <ele>39.1</ele>
        <time>2021-05-17T11:08:59Z</time>
      </trkpt>
      <trkpt lat="41.5916150" lon="-8.7834470">
        <ele>39.1</ele>
        <time>2021-05-17T11:09:00Z</time>
      </trkpt>
      <trkpt lat="41.5916180" lon="-8.7834520">
        <ele>39.1</ele>
        <time>2021-05-17T11:09:01Z</time>
      </trkpt>
      <trkpt lat="41.5916270" lon="-8.7834610">
        <ele>39.1</ele>
        <time>2021-05-17T11:09:02Z</time>
      </trkpt>
      <trkpt lat="41.5916480" lon="-8.7834650">
        <ele>39.2</ele>
        <time>2021-05-17T11:09:03Z</time>
      </trkpt>
      <trkpt lat="41.5916560" lon="-8.7834620">
        <ele>39.2</ele>
        <time>2021-05-17T11:09:04Z</time>
      </trkpt>
      <trkpt lat="41.5916610" lon="-8.7834640">
        <ele>39.2</ele>
        <time>2021-05-17T11:09:05Z</time>
      </trkpt>
      <trkpt lat="41.5916610" lon="-8.7834640">
        <ele>39.2</ele>
        <time>2021-05-17T11:09:06Z</time>
      </trkpt>
      <trkpt lat="41.5916770" lon="-8.7834530">
        <ele>39.2</ele>
        <time>2021-05-17T11:09:07Z</time>
      </trkpt>
      <trkpt lat="41.5916790" lon="-8.7834520">
        <ele>39.2</ele>
        <time>2021-05-17T11:09:08Z</time>
      </trkpt>
      <trkpt lat="41.5916790" lon="-8.7834520">
        <ele>39.2</ele>
        <time>2021-05-17T11:09:09Z</time>
      </trkpt>
      <trkpt lat="41.5917020" lon="-8.7834540">
        <ele>39.3</ele>
        <time>2021-05-17T11:09:10Z</time>
      </trkpt>
      <trkpt lat="41.5917100" lon="-8.7834470">
        <ele>39.3</ele>
        <time>2021-05-17T11:09:11Z</time>
      </trkpt>
      <trkpt lat="41.5917240" lon="-8.7834430">
        <ele>39.3</ele>
        <time>2021-05-17T11:09:12Z</time>
      </trkpt>
      <trkpt lat="41.5917310" lon="-8.7834440">
        <ele>39.3</ele>
        <time>2021-05-17T11:09:13Z</time>
      </trkpt>
      <trkpt lat="41.5917370" lon="-8.7834450">
        <ele>39.3</ele>
        <time>2021-05-17T11:09:14Z</time>
      </trkpt>
      <trkpt lat="41.5917440" lon="-8.7834460">
        <ele>39.4</ele>
        <time>2021-05-17T11:09:15Z</time>
      </trkpt>
      <trkpt lat="41.5917510" lon="-8.7834470">
        <ele>39.4</ele>
        <time>2021-05-17T11:09:16Z</time>
      </trkpt>
      <trkpt lat="41.5917680" lon="-8.7834580">
        <ele>39.4</ele>
        <time>2021-05-17T11:09:17Z</time>
      </trkpt>
      <trkpt lat="41.5917750" lon="-8.7834610">
        <ele>39.4</ele>
        <time>2021-05-17T11:09:18Z</time>
      </trkpt>
      <trkpt lat="41.5917810" lon="-8.7834650">
        <ele>39.4</ele>
        <time>2021-05-17T11:09:19Z</time>
      </trkpt>
      <trkpt lat="41.5917880" lon="-8.7834690">
        <ele>39.4</ele>
        <time>2021-05-17T11:09:20Z</time>
      </trkpt>
      <trkpt lat="41.5918110" lon="-8.7834760">
        <ele>39.5</ele>
        <time>2021-05-17T11:09:21Z</time>
      </trkpt>
      <trkpt lat="41.5918210" lon="-8.7834780">
        <ele>39.5</ele>
        <time>2021-05-17T11:09:22Z</time>
      </trkpt>
      <trkpt lat="41.5918300" lon="-8.7834800">
        <ele>39.5</ele>
        <time>2021-05-17T11:09:23Z</time>
      </trkpt>
      <trkpt lat="41.5918420" lon="-8.7834860">
        <ele>39.5</ele>
        <time>2021-05-17T11:09:24Z</time>
      </trkpt>
      <trkpt lat="41.5918500" lon="-8.7834900">
        <ele>39.6</ele>
        <time>2021-05-17T11:09:25Z</time>
      </trkpt>
      <trkpt lat="41.5918570" lon="-8.7834950">
        <ele>39.6</ele>
        <time>2021-05-17T11:09:26Z</time>
      </trkpt>
      <trkpt lat="41.5918640" lon="-8.7835000">
        <ele>39.6</ele>
        <time>2021-05-17T11:09:27Z</time>
      </trkpt>
      <trkpt lat="41.5918760" lon="-8.7835130">
        <ele>39.6</ele>
        <time>2021-05-17T11:09:28Z</time>
      </trkpt>
      <trkpt lat="41.5918930" lon="-8.7835230">
        <ele>39.7</ele>
        <time>2021-05-17T11:09:29Z</time>
      </trkpt>
      <trkpt lat="41.5918990" lon="-8.7835230">
        <ele>39.7</ele>
        <time>2021-05-17T11:09:30Z</time>
      </trkpt>
      <trkpt lat="41.5919110" lon="-8.7835310">
        <ele>39.7</ele>
        <time>2021-05-17T11:09:31Z</time>
      </trkpt>
      <trkpt lat="41.5919200" lon="-8.7835420">
        <ele>39.7</ele>
        <time>2021-05-17T11:09:32Z</time>
      </trkpt>
      <trkpt lat="41.5919330" lon="-8.7835480">
        <ele>39.7</ele>
        <time>2021-05-17T11:09:33Z</time>
      </trkpt>
      <trkpt lat="41.5919420" lon="-8.7835360">
        <ele>39.8</ele>
        <time>2021-05-17T11:09:34Z</time>
      </trkpt>
      <trkpt lat="41.5919490" lon="-8.7835380">
        <ele>39.8</ele>
        <time>2021-05-17T11:09:35Z</time>
      </trkpt>
      <trkpt lat="41.5919660" lon="-8.7835480">
        <ele>39.8</ele>
        <time>2021-05-17T11:09:36Z</time>
      </trkpt>
      <trkpt lat="41.5919750" lon="-8.7835560">
        <ele>39.8</ele>
        <time>2021-05-17T11:09:37Z</time>
      </trkpt>
      <trkpt lat="41.5919820" lon="-8.7835650">
        <ele>39.8</ele>
        <time>2021-05-17T11:09:38Z</time>
      </trkpt>
      <trkpt lat="41.5919900" lon="-8.7835620">
        <ele>39.8</ele>
        <time>2021-05-17T11:09:39Z</time>
      </trkpt>
      <trkpt lat="41.5920040" lon="-8.7835600">
        <ele>39.9</ele>
        <time>2021-05-17T11:09:40Z</time>
      </trkpt>
      <trkpt lat="41.5920170" lon="-8.7835610">
        <ele>39.9</ele>
        <time>2021-05-17T11:09:41Z</time>
      </trkpt>
      <trkpt lat="41.5920360" lon="-8.7835580">
        <ele>39.9</ele>
        <time>2021-05-17T11:09:42Z</time>
      </trkpt>
      <trkpt lat="41.5920460" lon="-8.7835680">
        <ele>39.9</ele>
        <time>2021-05-17T11:09:43Z</time>
      </trkpt>
      <trkpt lat="41.5920690" lon="-8.7835710">
        <ele>40.0</ele>
        <time>2021-05-17T11:09:44Z</time>
      </trkpt>
      <trkpt lat="41.5921000" lon="-8.7835770">
        <ele>40.0</ele>
        <time>2021-05-17T11:09:45Z</time>
      </trkpt>
      <trkpt lat="41.5921060" lon="-8.7835830">
        <ele>40.0</ele>
        <time>2021-05-17T11:09:46Z</time>
      </trkpt>
      <trkpt lat="41.5921240" lon="-8.7835840">
        <ele>40.0</ele>
        <time>2021-05-17T11:09:47Z</time>
      </trkpt>
      <trkpt lat="41.5921420" lon="-8.7835870">
        <ele>40.1</ele>
        <time>2021-05-17T11:09:48Z</time>
      </trkpt>
      <trkpt lat="41.5921610" lon="-8.7835800">
        <ele>40.1</ele>
        <time>2021-05-17T11:09:49Z</time>
      </trkpt>
      <trkpt lat="41.5921750" lon="-8.7835830">
        <ele>40.1</ele>
        <time>2021-05-17T11:09:50Z</time>
      </trkpt>
      <trkpt lat="41.5921940" lon="-8.7835840">
        <ele>40.2</ele>
        <time>2021-05-17T11:09:51Z</time>
      </trkpt>
      <trkpt lat="41.5922090" lon="-8.7835810">
        <ele>40.2</ele>
        <time>2021-05-17T11:09:52Z</time>
      </trkpt>
      <trkpt lat="41.5922250" lon="-8.7835790">
        <ele>40.2</ele>
        <time>2021-05-17T11:09:53Z</time>
      </trkpt>
      <trkpt lat="41.5922410" lon="-8.7835780">
        <ele>40.2</ele>
        <time>2021-05-17T11:09:54Z</time>
      </trkpt>
      <trkpt lat="41.5922570" lon="-8.7835800">
        <ele>40.2</ele>
        <time>2021-05-17T11:09:55Z</time>
      </trkpt>
      <trkpt lat="41.5922700" lon="-8.7835930">
        <ele>40.3</ele>
        <time>2021-05-17T11:09:56Z</time>
      </trkpt>
      <trkpt lat="41.5922920" lon="-8.7835900">
        <ele>40.3</ele>
        <time>2021-05-17T11:09:57Z</time>
      </trkpt>
      <trkpt lat="41.5923000" lon="-8.7835860">
        <ele>40.3</ele>
        <time>2021-05-17T11:09:58Z</time>
      </trkpt>
      <trkpt lat="41.5923090" lon="-8.7835830">
        <ele>40.3</ele>
        <time>2021-05-17T11:09:59Z</time>
      </trkpt>
      <trkpt lat="41.5923180" lon="-8.7835840">
        <ele>40.4</ele>
        <time>2021-05-17T11:10:00Z</time>
      </trkpt>
      <trkpt lat="41.5923230" lon="-8.7835770">
        <ele>40.4</ele>
        <time>2021-05-17T11:10:01Z</time>
      </trkpt>
      <trkpt lat="41.5923270" lon="-8.7835770">
        <ele>40.4</ele>
        <time>2021-05-17T11:10:02Z</time>
      </trkpt>
      <trkpt lat="41.5923400" lon="-8.7835760">
        <ele>40.4</ele>
        <time>2021-05-17T11:10:03Z</time>
      </trkpt>
      <trkpt lat="41.5923510" lon="-8.7835760">
        <ele>40.4</ele>
        <time>2021-05-17T11:10:04Z</time>
      </trkpt>
      <trkpt lat="41.5923560" lon="-8.7835780">
        <ele>40.4</ele>
        <time>2021-05-17T11:10:05Z</time>
      </trkpt>
      <trkpt lat="41.5923620" lon="-8.7835780">
        <ele>40.4</ele>
        <time>2021-05-17T11:10:06Z</time>
      </trkpt>
      <trkpt lat="41.5923680" lon="-8.7835790">
        <ele>40.4</ele>
        <time>2021-05-17T11:10:07Z</time>
      </trkpt>
      <trkpt lat="41.5923790" lon="-8.7835810">
        <ele>40.5</ele>
        <time>2021-05-17T11:10:08Z</time>
      </trkpt>
      <trkpt lat="41.5923950" lon="-8.7835790">
        <ele>40.5</ele>
        <time>2021-05-17T11:10:09Z</time>
      </trkpt>
      <trkpt lat="41.5924160" lon="-8.7835830">
        <ele>40.5</ele>
        <time>2021-05-17T11:10:10Z</time>
      </trkpt>
      <trkpt lat="41.5924240" lon="-8.7835850">
        <ele>40.5</ele>
        <time>2021-05-17T11:10:11Z</time>
      </trkpt>
      <trkpt lat="41.5924330" lon="-8.7835860">
        <ele>40.5</ele>
        <time>2021-05-17T11:10:12Z</time>
      </trkpt>
      <trkpt lat="41.5924480" lon="-8.7835860">
        <ele>40.6</ele>
        <time>2021-05-17T11:10:13Z</time>
      </trkpt>
      <trkpt lat="41.5924620" lon="-8.7835810">
        <ele>40.6</ele>
        <time>2021-05-17T11:10:14Z</time>
      </trkpt>
      <trkpt lat="41.5924910" lon="-8.7835710">
        <ele>40.6</ele>
        <time>2021-05-17T11:10:15Z</time>
      </trkpt>
      <trkpt lat="41.5924990" lon="-8.7835690">
        <ele>40.6</ele>
        <time>2021-05-17T11:10:16Z</time>
      </trkpt>
      <trkpt lat="41.5925130" lon="-8.7835600">
        <ele>40.7</ele>
        <time>2021-05-17T11:10:17Z</time>
      </trkpt>
      <trkpt lat="41.5925260" lon="-8.7835610">
        <ele>40.7</ele>
        <time>2021-05-17T11:10:18Z</time>
      </trkpt>
      <trkpt lat="41.5925390" lon="-8.7835580">
        <ele>40.7</ele>
        <time>2021-05-17T11:10:19Z</time>
      </trkpt>
      <trkpt lat="41.5925420" lon="-8.7835570">
        <ele>40.7</ele>
        <time>2021-05-17T11:10:20Z</time>
      </trkpt>
      <trkpt lat="41.5925570" lon="-8.7835560">
        <ele>40.7</ele>
        <time>2021-05-17T11:10:21Z</time>
      </trkpt>
      <trkpt lat="41.5925750" lon="-8.7835610">
        <ele>40.8</ele>
        <time>2021-05-17T11:10:22Z</time>
      </trkpt>
      <trkpt lat="41.5925820" lon="-8.7835580">
        <ele>40.8</ele>
        <time>2021-05-17T11:10:23Z</time>
      </trkpt>
      <trkpt lat="41.5925890" lon="-8.7835590">
        <ele>40.8</ele>
        <time>2021-05-17T11:10:24Z</time>
      </trkpt>
      <trkpt lat="41.5926150" lon="-8.7835480">
        <ele>40.8</ele>
        <time>2021-05-17T11:10:25Z</time>
      </trkpt>
      <trkpt lat="41.5926280" lon="-8.7835380">
        <ele>40.9</ele>
        <time>2021-05-17T11:10:26Z</time>
      </trkpt>
      <trkpt lat="41.5926500" lon="-8.7835370">
        <ele>40.9</ele>
        <time>2021-05-17T11:10:27Z</time>
      </trkpt>
      <trkpt lat="41.5926590" lon="-8.7835360">
        <ele>40.9</ele>
        <time>2021-05-17T11:10:28Z</time>
      </trkpt>
      <trkpt lat="41.5926690" lon="-8.7835350">
        <ele>40.9</ele>
        <time>2021-05-17T11:10:29Z</time>
      </trkpt>
      <trkpt lat="41.5926890" lon="-8.7835190">
        <ele>41.0</ele>
        <time>2021-05-17T11:10:30Z</time>
      </trkpt>
      <trkpt lat="41.5927010" lon="-8.7835230">
        <ele>41.0</ele>
        <time>2021-05-17T11:10:31Z</time>
      </trkpt>
      <trkpt lat="41.5927260" lon="-8.7835190">
        <ele>41.0</ele>
        <time>2021-05-17T11:10:32Z</time>
      </trkpt>
      <trkpt lat="41.5927330" lon="-8.7835190">
        <ele>41.0</ele>
        <time>2021-05-17T11:10:33Z</time>
      </trkpt>
      <trkpt lat="41.5927530" lon="-8.7835190">
        <ele>41.0</ele>
        <time>2021-05-17T11:10:34Z</time>
      </trkpt>
      <trkpt lat="41.5927670" lon="-8.7835170">
        <ele>41.0</ele>
        <time>2021-05-17T11:10:35Z</time>
      </trkpt>
      <trkpt lat="41.5927830" lon="-8.7835150">
        <ele>41.1</ele>
        <time>2021-05-17T11:10:36Z</time>
      </trkpt>
      <trkpt lat="41.5928000" lon="-8.7835130">
        <ele>41.1</ele>
        <time>2021-05-17T11:10:37Z</time>
      </trkpt>
      <trkpt lat="41.5928090" lon="-8.7835160">
        <ele>41.1</ele>
        <time>2021-05-17T11:10:38Z</time>
      </trkpt>
      <trkpt lat="41.5928280" lon="-8.7835170">
        <ele>41.1</ele>
        <time>2021-05-17T11:10:39Z</time>
      </trkpt>
      <trkpt lat="41.5928550" lon="-8.7835200">
        <ele>41.1</ele>
        <time>2021-05-17T11:10:40Z</time>
      </trkpt>
      <trkpt lat="41.5928650" lon="-8.7835190">
        <ele>41.1</ele>
        <time>2021-05-17T11:10:41Z</time>
      </trkpt>
      <trkpt lat="41.5928740" lon="-8.7835190">
        <ele>41.1</ele>
        <time>2021-05-17T11:10:42Z</time>
      </trkpt>
      <trkpt lat="41.5928860" lon="-8.7835200">
        <ele>41.1</ele>
        <time>2021-05-17T11:10:43Z</time>
      </trkpt>
      <trkpt lat="41.5929010" lon="-8.7835200">
        <ele>41.1</ele>
        <time>2021-05-17T11:10:44Z</time>
      </trkpt>
      <trkpt lat="41.5929270" lon="-8.7835180">
        <ele>41.1</ele>
        <time>2021-05-17T11:10:45Z</time>
      </trkpt>
      <trkpt lat="41.5929370" lon="-8.7835170">
        <ele>41.1</ele>
        <time>2021-05-17T11:10:46Z</time>
      </trkpt>
      <trkpt lat="41.5929670" lon="-8.7835150">
        <ele>41.1</ele>
        <time>2021-05-17T11:10:47Z</time>
      </trkpt>
      <trkpt lat="41.5929760" lon="-8.7835170">
        <ele>41.2</ele>
        <time>2021-05-17T11:10:48Z</time>
      </trkpt>
      <trkpt lat="41.5929930" lon="-8.7835210">
        <ele>41.2</ele>
        <time>2021-05-17T11:10:49Z</time>
      </trkpt>
      <trkpt lat="41.5930090" lon="-8.7835230">
        <ele>41.2</ele>
        <time>2021-05-17T11:10:50Z</time>
      </trkpt>
      <trkpt lat="41.5930250" lon="-8.7835280">
        <ele>41.2</ele>
        <time>2021-05-17T11:10:51Z</time>
      </trkpt>
      <trkpt lat="41.5930390" lon="-8.7835300">
        <ele>41.2</ele>
        <time>2021-05-17T11:10:52Z</time>
      </trkpt>
      <trkpt lat="41.5930560" lon="-8.7835340">
        <ele>41.2</ele>
        <time>2021-05-17T11:10:53Z</time>
      </trkpt>
      <trkpt lat="41.5930740" lon="-8.7835380">
        <ele>41.2</ele>
        <time>2021-05-17T11:10:54Z</time>
      </trkpt>
      <trkpt lat="41.5930900" lon="-8.7835420">
        <ele>41.2</ele>
        <time>2021-05-17T11:10:55Z</time>
      </trkpt>
      <trkpt lat="41.5931090" lon="-8.7835340">
        <ele>41.1</ele>
        <time>2021-05-17T11:10:56Z</time>
      </trkpt>
      <trkpt lat="41.5931270" lon="-8.7835310">
        <ele>41.1</ele>
        <time>2021-05-17T11:10:57Z</time>
      </trkpt>
      <trkpt lat="41.5931440" lon="-8.7835250">
        <ele>41.1</ele>
        <time>2021-05-17T11:10:58Z</time>
      </trkpt>
      <trkpt lat="41.5931620" lon="-8.7835270">
        <ele>41.1</ele>
        <time>2021-05-17T11:10:59Z</time>
      </trkpt>
      <trkpt lat="41.5931780" lon="-8.7835250">
        <ele>41.1</ele>
        <time>2021-05-17T11:11:00Z</time>
      </trkpt>
      <trkpt lat="41.5931930" lon="-8.7835250">
        <ele>41.1</ele>
        <time>2021-05-17T11:11:01Z</time>
      </trkpt>
      <trkpt lat="41.5932090" lon="-8.7835240">
        <ele>41.1</ele>
        <time>2021-05-17T11:11:02Z</time>
      </trkpt>
      <trkpt lat="41.5932230" lon="-8.7835220">
        <ele>41.1</ele>
        <time>2021-05-17T11:11:03Z</time>
      </trkpt>
      <trkpt lat="41.5932420" lon="-8.7835170">
        <ele>41.1</ele>
        <time>2021-05-17T11:11:04Z</time>
      </trkpt>
      <trkpt lat="41.5932690" lon="-8.7835080">
        <ele>41.1</ele>
        <time>2021-05-17T11:11:05Z</time>
      </trkpt>
      <trkpt lat="41.5932770" lon="-8.7835030">
        <ele>41.1</ele>
        <time>2021-05-17T11:11:06Z</time>
      </trkpt>
      <trkpt lat="41.5932910" lon="-8.7835010">
        <ele>41.1</ele>
        <time>2021-05-17T11:11:07Z</time>
      </trkpt>
      <trkpt lat="41.5933050" lon="-8.7834990">
        <ele>41.1</ele>
        <time>2021-05-17T11:11:08Z</time>
      </trkpt>
      <trkpt lat="41.5933180" lon="-8.7835010">
        <ele>41.1</ele>
        <time>2021-05-17T11:11:09Z</time>
      </trkpt>
      <trkpt lat="41.5933320" lon="-8.7835010">
        <ele>41.1</ele>
        <time>2021-05-17T11:11:10Z</time>
      </trkpt>
      <trkpt lat="41.5933480" lon="-8.7834940">
        <ele>41.1</ele>
        <time>2021-05-17T11:11:11Z</time>
      </trkpt>
      <trkpt lat="41.5933580" lon="-8.7834800">
        <ele>41.1</ele>
        <time>2021-05-17T11:11:12Z</time>
      </trkpt>
      <trkpt lat="41.5933670" lon="-8.7834720">
        <ele>41.1</ele>
        <time>2021-05-17T11:11:13Z</time>
      </trkpt>
      <trkpt lat="41.5933730" lon="-8.7834700">
        <ele>41.1</ele>
        <time>2021-05-17T11:11:14Z</time>
      </trkpt>
      <trkpt lat="41.5933800" lon="-8.7834710">
        <ele>41.1</ele>
        <time>2021-05-17T11:11:15Z</time>
      </trkpt>
      <trkpt lat="41.5933880" lon="-8.7834580">
        <ele>41.1</ele>
        <time>2021-05-17T11:11:16Z</time>
      </trkpt>
      <trkpt lat="41.5933990" lon="-8.7834490">
        <ele>41.1</ele>
        <time>2021-05-17T11:11:17Z</time>
      </trkpt>
      <trkpt lat="41.5934070" lon="-8.7834440">
        <ele>41.1</ele>
        <time>2021-05-17T11:11:18Z</time>
      </trkpt>
      <trkpt lat="41.5934110" lon="-8.7834360">
        <ele>41.1</ele>
        <time>2021-05-17T11:11:19Z</time>
      </trkpt>
      <trkpt lat="41.5934330" lon="-8.7834260">
        <ele>41.2</ele>
        <time>2021-05-17T11:11:20Z</time>
      </trkpt>
      <trkpt lat="41.5934450" lon="-8.7834210">
        <ele>41.2</ele>
        <time>2021-05-17T11:11:21Z</time>
      </trkpt>
      <trkpt lat="41.5934560" lon="-8.7834150">
        <ele>41.2</ele>
        <time>2021-05-17T11:11:22Z</time>
      </trkpt>
      <trkpt lat="41.5934710" lon="-8.7834110">
        <ele>41.2</ele>
        <time>2021-05-17T11:11:23Z</time>
      </trkpt>
      <trkpt lat="41.5934840" lon="-8.7834040">
        <ele>41.2</ele>
        <time>2021-05-17T11:11:24Z</time>
      </trkpt>
      <trkpt lat="41.5934950" lon="-8.7833890">
        <ele>41.2</ele>
        <time>2021-05-17T11:11:25Z</time>
      </trkpt>
      <trkpt lat="41.5935130" lon="-8.7833780">
        <ele>41.2</ele>
        <time>2021-05-17T11:11:26Z</time>
      </trkpt>
      <trkpt lat="41.5935270" lon="-8.7833700">
        <ele>41.2</ele>
        <time>2021-05-17T11:11:27Z</time>
      </trkpt>
      <trkpt lat="41.5935420" lon="-8.7833650">
        <ele>41.3</ele>
        <time>2021-05-17T11:11:28Z</time>
      </trkpt>
      <trkpt lat="41.5935610" lon="-8.7833590">
        <ele>41.3</ele>
        <time>2021-05-17T11:11:29Z</time>
      </trkpt>
      <trkpt lat="41.5935760" lon="-8.7833500">
        <ele>41.3</ele>
        <time>2021-05-17T11:11:30Z</time>
      </trkpt>
      <trkpt lat="41.5935930" lon="-8.7833470">
        <ele>41.3</ele>
        <time>2021-05-17T11:11:31Z</time>
      </trkpt>
      <trkpt lat="41.5936080" lon="-8.7833370">
        <ele>41.3</ele>
        <time>2021-05-17T11:11:32Z</time>
      </trkpt>
      <trkpt lat="41.5936210" lon="-8.7833270">
        <ele>41.3</ele>
        <time>2021-05-17T11:11:33Z</time>
      </trkpt>
      <trkpt lat="41.5936400" lon="-8.7833260">
        <ele>41.4</ele>
        <time>2021-05-17T11:11:34Z</time>
      </trkpt>
      <trkpt lat="41.5936560" lon="-8.7833140">
        <ele>41.4</ele>
        <time>2021-05-17T11:11:35Z</time>
      </trkpt>
      <trkpt lat="41.5936700" lon="-8.7833030">
        <ele>41.4</ele>
        <time>2021-05-17T11:11:36Z</time>
      </trkpt>
      <trkpt lat="41.5936850" lon="-8.7832920">
        <ele>41.4</ele>
        <time>2021-05-17T11:11:37Z</time>
      </trkpt>
      <trkpt lat="41.5937020" lon="-8.7832870">
        <ele>41.5</ele>
        <time>2021-05-17T11:11:38Z</time>
      </trkpt>
      <trkpt lat="41.5937160" lon="-8.7832830">
        <ele>41.5</ele>
        <time>2021-05-17T11:11:39Z</time>
      </trkpt>
      <trkpt lat="41.5937300" lon="-8.7832740">
        <ele>41.5</ele>
        <time>2021-05-17T11:11:40Z</time>
      </trkpt>
      <trkpt lat="41.5937430" lon="-8.7832650">
        <ele>41.5</ele>
        <time>2021-05-17T11:11:41Z</time>
      </trkpt>
      <trkpt lat="41.5937570" lon="-8.7832560">
        <ele>41.6</ele>
        <time>2021-05-17T11:11:42Z</time>
      </trkpt>
      <trkpt lat="41.5937690" lon="-8.7832550">
        <ele>41.6</ele>
        <time>2021-05-17T11:11:43Z</time>
      </trkpt>
      <trkpt lat="41.5937830" lon="-8.7832450">
        <ele>41.6</ele>
        <time>2021-05-17T11:11:44Z</time>
      </trkpt>
      <trkpt lat="41.5937980" lon="-8.7832430">
        <ele>41.7</ele>
        <time>2021-05-17T11:11:45Z</time>
      </trkpt>
      <trkpt lat="41.5938090" lon="-8.7832270">
        <ele>41.7</ele>
        <time>2021-05-17T11:11:46Z</time>
      </trkpt>
      <trkpt lat="41.5938240" lon="-8.7832230">
        <ele>41.7</ele>
        <time>2021-05-17T11:11:47Z</time>
      </trkpt>
      <trkpt lat="41.5938340" lon="-8.7832060">
        <ele>41.7</ele>
        <time>2021-05-17T11:11:48Z</time>
      </trkpt>
      <trkpt lat="41.5938500" lon="-8.7831970">
        <ele>41.8</ele>
        <time>2021-05-17T11:11:49Z</time>
      </trkpt>
      <trkpt lat="41.5938620" lon="-8.7831900">
        <ele>41.8</ele>
        <time>2021-05-17T11:11:50Z</time>
      </trkpt>
      <trkpt lat="41.5938760" lon="-8.7831760">
        <ele>41.8</ele>
        <time>2021-05-17T11:11:51Z</time>
      </trkpt>
      <trkpt lat="41.5938880" lon="-8.7831660">
        <ele>41.8</ele>
        <time>2021-05-17T11:11:52Z</time>
      </trkpt>
      <trkpt lat="41.5939030" lon="-8.7831600">
        <ele>41.8</ele>
        <time>2021-05-17T11:11:53Z</time>
      </trkpt>
      <trkpt lat="41.5939130" lon="-8.7831490">
        <ele>41.9</ele>
        <time>2021-05-17T11:11:54Z</time>
      </trkpt>
      <trkpt lat="41.5939220" lon="-8.7831370">
        <ele>41.9</ele>
        <time>2021-05-17T11:11:55Z</time>
      </trkpt>
      <trkpt lat="41.5939370" lon="-8.7831310">
        <ele>41.9</ele>
        <time>2021-05-17T11:11:56Z</time>
      </trkpt>
      <trkpt lat="41.5939480" lon="-8.7831200">
        <ele>41.9</ele>
        <time>2021-05-17T11:11:57Z</time>
      </trkpt>
      <trkpt lat="41.5939580" lon="-8.7831040">
        <ele>41.9</ele>
        <time>2021-05-17T11:11:58Z</time>
      </trkpt>
      <trkpt lat="41.5939730" lon="-8.7830840">
        <ele>41.9</ele>
        <time>2021-05-17T11:11:59Z</time>
      </trkpt>
      <trkpt lat="41.5939810" lon="-8.7830760">
        <ele>42.0</ele>
        <time>2021-05-17T11:12:00Z</time>
      </trkpt>
      <trkpt lat="41.5939880" lon="-8.7830670">
        <ele>42.0</ele>
        <time>2021-05-17T11:12:01Z</time>
      </trkpt>
      <trkpt lat="41.5940010" lon="-8.7830630">
        <ele>42.0</ele>
        <time>2021-05-17T11:12:02Z</time>
      </trkpt>
      <trkpt lat="41.5940150" lon="-8.7830560">
        <ele>42.0</ele>
        <time>2021-05-17T11:12:03Z</time>
      </trkpt>
      <trkpt lat="41.5940300" lon="-8.7830470">
        <ele>42.0</ele>
        <time>2021-05-17T11:12:04Z</time>
      </trkpt>
      <trkpt lat="41.5940430" lon="-8.7830370">
        <ele>42.0</ele>
        <time>2021-05-17T11:12:05Z</time>
      </trkpt>
      <trkpt lat="41.5940580" lon="-8.7830340">
        <ele>42.0</ele>
        <time>2021-05-17T11:12:06Z</time>
      </trkpt>
      <trkpt lat="41.5940730" lon="-8.7830300">
        <ele>42.0</ele>
        <time>2021-05-17T11:12:07Z</time>
      </trkpt>
      <trkpt lat="41.5940900" lon="-8.7830250">
        <ele>42.0</ele>
        <time>2021-05-17T11:12:08Z</time>
      </trkpt>
      <trkpt lat="41.5941080" lon="-8.7830210">
        <ele>42.1</ele>
        <time>2021-05-17T11:12:09Z</time>
      </trkpt>
      <trkpt lat="41.5941260" lon="-8.7830170">
        <ele>42.1</ele>
        <time>2021-05-17T11:12:10Z</time>
      </trkpt>
      <trkpt lat="41.5941400" lon="-8.7830000">
        <ele>42.1</ele>
        <time>2021-05-17T11:12:11Z</time>
      </trkpt>
      <trkpt lat="41.5941580" lon="-8.7829920">
        <ele>42.1</ele>
        <time>2021-05-17T11:12:12Z</time>
      </trkpt>
      <trkpt lat="41.5941750" lon="-8.7829890">
        <ele>42.1</ele>
        <time>2021-05-17T11:12:13Z</time>
      </trkpt>
      <trkpt lat="41.5941900" lon="-8.7829880">
        <ele>42.1</ele>
        <time>2021-05-17T11:12:14Z</time>
      </trkpt>
      <trkpt lat="41.5942060" lon="-8.7829770">
        <ele>42.1</ele>
        <time>2021-05-17T11:12:15Z</time>
      </trkpt>
      <trkpt lat="41.5942210" lon="-8.7829670">
        <ele>42.1</ele>
        <time>2021-05-17T11:12:16Z</time>
      </trkpt>
      <trkpt lat="41.5942370" lon="-8.7829600">
        <ele>42.1</ele>
        <time>2021-05-17T11:12:17Z</time>
      </trkpt>
      <trkpt lat="41.5942520" lon="-8.7829570">
        <ele>42.1</ele>
        <time>2021-05-17T11:12:18Z</time>
      </trkpt>
      <trkpt lat="41.5942690" lon="-8.7829440">
        <ele>42.1</ele>
        <time>2021-05-17T11:12:19Z</time>
      </trkpt>
      <trkpt lat="41.5942830" lon="-8.7829390">
        <ele>42.1</ele>
        <time>2021-05-17T11:12:20Z</time>
      </trkpt>
      <trkpt lat="41.5942990" lon="-8.7829260">
        <ele>42.1</ele>
        <time>2021-05-17T11:12:21Z</time>
      </trkpt>
      <trkpt lat="41.5943160" lon="-8.7829210">
        <ele>42.1</ele>
        <time>2021-05-17T11:12:22Z</time>
      </trkpt>
      <trkpt lat="41.5943320" lon="-8.7829190">
        <ele>42.1</ele>
        <time>2021-05-17T11:12:23Z</time>
      </trkpt>
      <trkpt lat="41.5943460" lon="-8.7829110">
        <ele>42.1</ele>
        <time>2021-05-17T11:12:24Z</time>
      </trkpt>
      <trkpt lat="41.5943610" lon="-8.7829010">
        <ele>42.1</ele>
        <time>2021-05-17T11:12:25Z</time>
      </trkpt>
      <trkpt lat="41.5943770" lon="-8.7828960">
        <ele>42.1</ele>
        <time>2021-05-17T11:12:26Z</time>
      </trkpt>
      <trkpt lat="41.5943890" lon="-8.7828800">
        <ele>42.1</ele>
        <time>2021-05-17T11:12:27Z</time>
      </trkpt>
      <trkpt lat="41.5944040" lon="-8.7828740">
        <ele>42.1</ele>
        <time>2021-05-17T11:12:28Z</time>
      </trkpt>
      <trkpt lat="41.5944130" lon="-8.7828560">
        <ele>42.1</ele>
        <time>2021-05-17T11:12:29Z</time>
      </trkpt>
      <trkpt lat="41.5944270" lon="-8.7828520">
        <ele>42.1</ele>
        <time>2021-05-17T11:12:30Z</time>
      </trkpt>
      <trkpt lat="41.5944430" lon="-8.7828420">
        <ele>42.1</ele>
        <time>2021-05-17T11:12:31Z</time>
      </trkpt>
      <trkpt lat="41.5944600" lon="-8.7828390">
        <ele>42.1</ele>
        <time>2021-05-17T11:12:32Z</time>
      </trkpt>
      <trkpt lat="41.5944740" lon="-8.7828400">
        <ele>42.1</ele>
        <time>2021-05-17T11:12:33Z</time>
      </trkpt>
      <trkpt lat="41.5944950" lon="-8.7828310">
        <ele>42.1</ele>
        <time>2021-05-17T11:12:34Z</time>
      </trkpt>
      <trkpt lat="41.5945020" lon="-8.7828250">
        <ele>42.1</ele>
        <time>2021-05-17T11:12:35Z</time>
      </trkpt>
      <trkpt lat="41.5945100" lon="-8.7828190">
        <ele>42.1</ele>
        <time>2021-05-17T11:12:36Z</time>
      </trkpt>
      <trkpt lat="41.5945170" lon="-8.7828040">
        <ele>42.1</ele>
        <time>2021-05-17T11:12:37Z</time>
      </trkpt>
      <trkpt lat="41.5945230" lon="-8.7827950">
        <ele>42.1</ele>
        <time>2021-05-17T11:12:38Z</time>
      </trkpt>
      <trkpt lat="41.5945310" lon="-8.7827880">
        <ele>42.1</ele>
        <time>2021-05-17T11:12:39Z</time>
      </trkpt>
      <trkpt lat="41.5945400" lon="-8.7827880">
        <ele>42.1</ele>
        <time>2021-05-17T11:12:40Z</time>
      </trkpt>
      <trkpt lat="41.5945450" lon="-8.7827840">
        <ele>42.1</ele>
        <time>2021-05-17T11:12:41Z</time>
      </trkpt>
      <trkpt lat="41.5945480" lon="-8.7827760">
        <ele>42.1</ele>
        <time>2021-05-17T11:12:42Z</time>
      </trkpt>
      <trkpt lat="41.5945520" lon="-8.7827740">
        <ele>42.1</ele>
        <time>2021-05-17T11:12:43Z</time>
      </trkpt>
      <trkpt lat="41.5945580" lon="-8.7827770">
        <ele>42.1</ele>
        <time>2021-05-17T11:12:44Z</time>
      </trkpt>
      <trkpt lat="41.5945610" lon="-8.7827730">
        <ele>42.1</ele>
        <time>2021-05-17T11:12:45Z</time>
      </trkpt>
      <trkpt lat="41.5945710" lon="-8.7827690">
        <ele>42.1</ele>
        <time>2021-05-17T11:12:46Z</time>
      </trkpt>
      <trkpt lat="41.5945760" lon="-8.7827570">
        <ele>42.1</ele>
        <time>2021-05-17T11:12:47Z</time>
      </trkpt>
      <trkpt lat="41.5945840" lon="-8.7827430">
        <ele>42.2</ele>
        <time>2021-05-17T11:12:48Z</time>
      </trkpt>
      <trkpt lat="41.5945870" lon="-8.7827290">
        <ele>42.2</ele>
        <time>2021-05-17T11:12:49Z</time>
      </trkpt>
      <trkpt lat="41.5945880" lon="-8.7827300">
        <ele>42.2</ele>
        <time>2021-05-17T11:12:50Z</time>
      </trkpt>
      <trkpt lat="41.5945930" lon="-8.7827230">
        <ele>42.2</ele>
        <time>2021-05-17T11:12:51Z</time>
      </trkpt>
      <trkpt lat="41.5946050" lon="-8.7827150">
        <ele>42.2</ele>
        <time>2021-05-17T11:12:52Z</time>
      </trkpt>
      <trkpt lat="41.5946090" lon="-8.7827130">
        <ele>42.2</ele>
        <time>2021-05-17T11:12:53Z</time>
      </trkpt>
      <trkpt lat="41.5946220" lon="-8.7826920">
        <ele>42.2</ele>
        <time>2021-05-17T11:12:54Z</time>
      </trkpt>
      <trkpt lat="41.5946280" lon="-8.7826880">
        <ele>42.2</ele>
        <time>2021-05-17T11:12:55Z</time>
      </trkpt>
      <trkpt lat="41.5946440" lon="-8.7826750">
        <ele>42.2</ele>
        <time>2021-05-17T11:12:56Z</time>
      </trkpt>
      <trkpt lat="41.5946550" lon="-8.7826600">
        <ele>42.2</ele>
        <time>2021-05-17T11:12:57Z</time>
      </trkpt>
      <trkpt lat="41.5946760" lon="-8.7826460">
        <ele>42.2</ele>
        <time>2021-05-17T11:12:58Z</time>
      </trkpt>
      <trkpt lat="41.5946850" lon="-8.7826390">
        <ele>42.2</ele>
        <time>2021-05-17T11:12:59Z</time>
      </trkpt>
      <trkpt lat="41.5946940" lon="-8.7826330">
        <ele>42.2</ele>
        <time>2021-05-17T11:13:00Z</time>
      </trkpt>
      <trkpt lat="41.5947070" lon="-8.7826240">
        <ele>42.3</ele>
        <time>2021-05-17T11:13:01Z</time>
      </trkpt>
      <trkpt lat="41.5947190" lon="-8.7826130">
        <ele>42.3</ele>
        <time>2021-05-17T11:13:02Z</time>
      </trkpt>
      <trkpt lat="41.5947370" lon="-8.7826070">
        <ele>42.3</ele>
        <time>2021-05-17T11:13:03Z</time>
      </trkpt>
      <trkpt lat="41.5947540" lon="-8.7826030">
        <ele>42.3</ele>
        <time>2021-05-17T11:13:04Z</time>
      </trkpt>
      <trkpt lat="41.5947690" lon="-8.7826020">
        <ele>42.3</ele>
        <time>2021-05-17T11:13:05Z</time>
      </trkpt>
      <trkpt lat="41.5947820" lon="-8.7825970">
        <ele>42.3</ele>
        <time>2021-05-17T11:13:06Z</time>
      </trkpt>
      <trkpt lat="41.5947990" lon="-8.7825830">
        <ele>42.4</ele>
        <time>2021-05-17T11:13:07Z</time>
      </trkpt>
      <trkpt lat="41.5948130" lon="-8.7825780">
        <ele>42.4</ele>
        <time>2021-05-17T11:13:08Z</time>
      </trkpt>
      <trkpt lat="41.5948250" lon="-8.7825710">
        <ele>42.4</ele>
        <time>2021-05-17T11:13:09Z</time>
      </trkpt>
      <trkpt lat="41.5948420" lon="-8.7825730">
        <ele>42.4</ele>
        <time>2021-05-17T11:13:10Z</time>
      </trkpt>
      <trkpt lat="41.5948560" lon="-8.7825640">
        <ele>42.4</ele>
        <time>2021-05-17T11:13:11Z</time>
      </trkpt>
      <trkpt lat="41.5948690" lon="-8.7825570">
        <ele>42.4</ele>
        <time>2021-05-17T11:13:12Z</time>
      </trkpt>
      <trkpt lat="41.5948860" lon="-8.7825520">
        <ele>42.4</ele>
        <time>2021-05-17T11:13:13Z</time>
      </trkpt>
      <trkpt lat="41.5949030" lon="-8.7825470">
        <ele>42.5</ele>
        <time>2021-05-17T11:13:14Z</time>
      </trkpt>
      <trkpt lat="41.5949150" lon="-8.7825400">
        <ele>42.5</ele>
        <time>2021-05-17T11:13:15Z</time>
      </trkpt>
      <trkpt lat="41.5949310" lon="-8.7825270">
        <ele>42.5</ele>
        <time>2021-05-17T11:13:16Z</time>
      </trkpt>
      <trkpt lat="41.5949490" lon="-8.7825210">
        <ele>42.5</ele>
        <time>2021-05-17T11:13:17Z</time>
      </trkpt>
      <trkpt lat="41.5949640" lon="-8.7825220">
        <ele>42.5</ele>
        <time>2021-05-17T11:13:18Z</time>
      </trkpt>
      <trkpt lat="41.5949800" lon="-8.7825180">
        <ele>42.5</ele>
        <time>2021-05-17T11:13:19Z</time>
      </trkpt>
      <trkpt lat="41.5949970" lon="-8.7825180">
        <ele>42.6</ele>
        <time>2021-05-17T11:13:20Z</time>
      </trkpt>
      <trkpt lat="41.5950150" lon="-8.7825050">
        <ele>42.6</ele>
        <time>2021-05-17T11:13:21Z</time>
      </trkpt>
      <trkpt lat="41.5950320" lon="-8.7825060">
        <ele>42.6</ele>
        <time>2021-05-17T11:13:22Z</time>
      </trkpt>
      <trkpt lat="41.5950470" lon="-8.7825020">
        <ele>42.6</ele>
        <time>2021-05-17T11:13:23Z</time>
      </trkpt>
      <trkpt lat="41.5950620" lon="-8.7824960">
        <ele>42.6</ele>
        <time>2021-05-17T11:13:24Z</time>
      </trkpt>
      <trkpt lat="41.5950800" lon="-8.7824970">
        <ele>42.6</ele>
        <time>2021-05-17T11:13:25Z</time>
      </trkpt>
      <trkpt lat="41.5950950" lon="-8.7824970">
        <ele>42.7</ele>
        <time>2021-05-17T11:13:26Z</time>
      </trkpt>
      <trkpt lat="41.5951170" lon="-8.7824890">
        <ele>42.7</ele>
        <time>2021-05-17T11:13:27Z</time>
      </trkpt>
      <trkpt lat="41.5951270" lon="-8.7824910">
        <ele>42.7</ele>
        <time>2021-05-17T11:13:28Z</time>
      </trkpt>
      <trkpt lat="41.5951380" lon="-8.7824930">
        <ele>42.7</ele>
        <time>2021-05-17T11:13:29Z</time>
      </trkpt>
      <trkpt lat="41.5951550" lon="-8.7824990">
        <ele>42.7</ele>
        <time>2021-05-17T11:13:30Z</time>
      </trkpt>
      <trkpt lat="41.5951720" lon="-8.7825000">
        <ele>42.7</ele>
        <time>2021-05-17T11:13:31Z</time>
      </trkpt>
      <trkpt lat="41.5951890" lon="-8.7825080">
        <ele>42.7</ele>
        <time>2021-05-17T11:13:32Z</time>
      </trkpt>
      <trkpt lat="41.5952050" lon="-8.7825090">
        <ele>42.8</ele>
        <time>2021-05-17T11:13:33Z</time>
      </trkpt>
      <trkpt lat="41.5952210" lon="-8.7825090">
        <ele>42.8</ele>
        <time>2021-05-17T11:13:34Z</time>
      </trkpt>
      <trkpt lat="41.5952390" lon="-8.7825110">
        <ele>42.8</ele>
        <time>2021-05-17T11:13:35Z</time>
      </trkpt>
      <trkpt lat="41.5952530" lon="-8.7825100">
        <ele>42.8</ele>
        <time>2021-05-17T11:13:36Z</time>
      </trkpt>
      <trkpt lat="41.5952670" lon="-8.7825150">
        <ele>42.8</ele>
        <time>2021-05-17T11:13:37Z</time>
      </trkpt>
      <trkpt lat="41.5952800" lon="-8.7825200">
        <ele>42.8</ele>
        <time>2021-05-17T11:13:38Z</time>
      </trkpt>
      <trkpt lat="41.5952950" lon="-8.7825160">
        <ele>42.7</ele>
        <time>2021-05-17T11:13:39Z</time>
      </trkpt>
      <trkpt lat="41.5953170" lon="-8.7825170">
        <ele>42.7</ele>
        <time>2021-05-17T11:13:40Z</time>
      </trkpt>
      <trkpt lat="41.5953250" lon="-8.7825160">
        <ele>42.7</ele>
        <time>2021-05-17T11:13:41Z</time>
      </trkpt>
      <trkpt lat="41.5953330" lon="-8.7825150">
        <ele>42.7</ele>
        <time>2021-05-17T11:13:42Z</time>
      </trkpt>
      <trkpt lat="41.5953450" lon="-8.7825220">
        <ele>42.7</ele>
        <time>2021-05-17T11:13:43Z</time>
      </trkpt>
      <trkpt lat="41.5953550" lon="-8.7825270">
        <ele>42.7</ele>
        <time>2021-05-17T11:13:44Z</time>
      </trkpt>
      <trkpt lat="41.5953630" lon="-8.7825350">
        <ele>42.6</ele>
        <time>2021-05-17T11:13:45Z</time>
      </trkpt>
      <trkpt lat="41.5953610" lon="-8.7825450">
        <ele>42.6</ele>
        <time>2021-05-17T11:13:46Z</time>
      </trkpt>
      <trkpt lat="41.5953680" lon="-8.7825540">
        <ele>42.6</ele>
        <time>2021-05-17T11:13:47Z</time>
      </trkpt>
      <trkpt lat="41.5953720" lon="-8.7825610">
        <ele>42.6</ele>
        <time>2021-05-17T11:13:48Z</time>
      </trkpt>
      <trkpt lat="41.5953740" lon="-8.7825690">
        <ele>42.6</ele>
        <time>2021-05-17T11:13:49Z</time>
      </trkpt>
      <trkpt lat="41.5953880" lon="-8.7825800">
        <ele>42.6</ele>
        <time>2021-05-17T11:13:50Z</time>
      </trkpt>
      <trkpt lat="41.5953970" lon="-8.7825900">
        <ele>42.5</ele>
        <time>2021-05-17T11:13:51Z</time>
      </trkpt>
      <trkpt lat="41.5954060" lon="-8.7825990">
        <ele>42.5</ele>
        <time>2021-05-17T11:13:52Z</time>
      </trkpt>
      <trkpt lat="41.5954200" lon="-8.7826120">
        <ele>42.5</ele>
        <time>2021-05-17T11:13:53Z</time>
      </trkpt>
      <trkpt lat="41.5954270" lon="-8.7826200">
        <ele>42.5</ele>
        <time>2021-05-17T11:13:54Z</time>
      </trkpt>
      <trkpt lat="41.5954360" lon="-8.7826260">
        <ele>42.4</ele>
        <time>2021-05-17T11:13:55Z</time>
      </trkpt>
      <trkpt lat="41.5954520" lon="-8.7826380">
        <ele>42.4</ele>
        <time>2021-05-17T11:13:56Z</time>
      </trkpt>
      <trkpt lat="41.5954610" lon="-8.7826460">
        <ele>42.4</ele>
        <time>2021-05-17T11:13:57Z</time>
      </trkpt>
      <trkpt lat="41.5954730" lon="-8.7826540">
        <ele>42.4</ele>
        <time>2021-05-17T11:13:58Z</time>
      </trkpt>
      <trkpt lat="41.5954750" lon="-8.7826680">
        <ele>42.3</ele>
        <time>2021-05-17T11:13:59Z</time>
      </trkpt>
      <trkpt lat="41.5954790" lon="-8.7826860">
        <ele>42.3</ele>
        <time>2021-05-17T11:14:00Z</time>
      </trkpt>
      <trkpt lat="41.5954860" lon="-8.7826990">
        <ele>42.3</ele>
        <time>2021-05-17T11:14:01Z</time>
      </trkpt>
      <trkpt lat="41.5954890" lon="-8.7827110">
        <ele>42.2</ele>
        <time>2021-05-17T11:14:02Z</time>
      </trkpt>
      <trkpt lat="41.5954920" lon="-8.7827280">
        <ele>42.2</ele>
        <time>2021-05-17T11:14:03Z</time>
      </trkpt>
      <trkpt lat="41.5954940" lon="-8.7827450">
        <ele>42.2</ele>
        <time>2021-05-17T11:14:04Z</time>
      </trkpt>
      <trkpt lat="41.5955150" lon="-8.7827620">
        <ele>42.1</ele>
        <time>2021-05-17T11:14:05Z</time>
      </trkpt>
      <trkpt lat="41.5955200" lon="-8.7827860">
        <ele>42.1</ele>
        <time>2021-05-17T11:14:06Z</time>
      </trkpt>
      <trkpt lat="41.5955270" lon="-8.7828030">
        <ele>42.1</ele>
        <time>2021-05-17T11:14:07Z</time>
      </trkpt>
      <trkpt lat="41.5955340" lon="-8.7828170">
        <ele>42.0</ele>
        <time>2021-05-17T11:14:08Z</time>
      </trkpt>
      <trkpt lat="41.5955380" lon="-8.7828380">
        <ele>42.0</ele>
        <time>2021-05-17T11:14:09Z</time>
      </trkpt>
      <trkpt lat="41.5955450" lon="-8.7828530">
        <ele>42.0</ele>
        <time>2021-05-17T11:14:10Z</time>
      </trkpt>
      <trkpt lat="41.5955530" lon="-8.7828760">
        <ele>41.9</ele>
        <time>2021-05-17T11:14:11Z</time>
      </trkpt>
      <trkpt lat="41.5955520" lon="-8.7828870">
        <ele>41.9</ele>
        <time>2021-05-17T11:14:12Z</time>
      </trkpt>
      <trkpt lat="41.5955630" lon="-8.7828920">
        <ele>41.9</ele>
        <time>2021-05-17T11:14:13Z</time>
      </trkpt>
      <trkpt lat="41.5955730" lon="-8.7829100">
        <ele>41.8</ele>
        <time>2021-05-17T11:14:14Z</time>
      </trkpt>
      <trkpt lat="41.5955760" lon="-8.7829210">
        <ele>41.8</ele>
        <time>2021-05-17T11:14:15Z</time>
      </trkpt>
      <trkpt lat="41.5955750" lon="-8.7829420">
        <ele>41.8</ele>
        <time>2021-05-17T11:14:16Z</time>
      </trkpt>
      <trkpt lat="41.5955820" lon="-8.7829550">
        <ele>41.8</ele>
        <time>2021-05-17T11:14:17Z</time>
      </trkpt>
      <trkpt lat="41.5955890" lon="-8.7829680">
        <ele>41.7</ele>
        <time>2021-05-17T11:14:18Z</time>
      </trkpt>
      <trkpt lat="41.5956020" lon="-8.7829760">
        <ele>41.7</ele>
        <time>2021-05-17T11:14:19Z</time>
      </trkpt>
      <trkpt lat="41.5956090" lon="-8.7829830">
        <ele>41.7</ele>
        <time>2021-05-17T11:14:20Z</time>
      </trkpt>
      <trkpt lat="41.5956190" lon="-8.7830010">
        <ele>41.7</ele>
        <time>2021-05-17T11:14:21Z</time>
      </trkpt>
      <trkpt lat="41.5956220" lon="-8.7830170">
        <ele>41.6</ele>
        <time>2021-05-17T11:14:22Z</time>
      </trkpt>
      <trkpt lat="41.5956310" lon="-8.7830390">
        <ele>41.6</ele>
        <time>2021-05-17T11:14:23Z</time>
      </trkpt>
      <trkpt lat="41.5956440" lon="-8.7830540">
        <ele>41.6</ele>
        <time>2021-05-17T11:14:24Z</time>
      </trkpt>
      <trkpt lat="41.5956520" lon="-8.7830760">
        <ele>41.5</ele>
        <time>2021-05-17T11:14:25Z</time>
      </trkpt>
      <trkpt lat="41.5956570" lon="-8.7830870">
        <ele>41.5</ele>
        <time>2021-05-17T11:14:26Z</time>
      </trkpt>
      <trkpt lat="41.5956610" lon="-8.7830990">
        <ele>41.5</ele>
        <time>2021-05-17T11:14:27Z</time>
      </trkpt>
      <trkpt lat="41.5956720" lon="-8.7831240">
        <ele>41.4</ele>
        <time>2021-05-17T11:14:28Z</time>
      </trkpt>
      <trkpt lat="41.5956790" lon="-8.7831310">
        <ele>41.4</ele>
        <time>2021-05-17T11:14:29Z</time>
      </trkpt>
      <trkpt lat="41.5956860" lon="-8.7831380">
        <ele>41.4</ele>
        <time>2021-05-17T11:14:30Z</time>
      </trkpt>
      <trkpt lat="41.5956910" lon="-8.7831460">
        <ele>41.4</ele>
        <time>2021-05-17T11:14:31Z</time>
      </trkpt>
      <trkpt lat="41.5956940" lon="-8.7831560">
        <ele>41.4</ele>
        <time>2021-05-17T11:14:32Z</time>
      </trkpt>
      <trkpt lat="41.5957040" lon="-8.7831700">
        <ele>41.3</ele>
        <time>2021-05-17T11:14:33Z</time>
      </trkpt>
      <trkpt lat="41.5957100" lon="-8.7831820">
        <ele>41.3</ele>
        <time>2021-05-17T11:14:34Z</time>
      </trkpt>
      <trkpt lat="41.5957170" lon="-8.7831940">
        <ele>41.3</ele>
        <time>2021-05-17T11:14:35Z</time>
      </trkpt>
      <trkpt lat="41.5957280" lon="-8.7832010">
        <ele>41.3</ele>
        <time>2021-05-17T11:14:36Z</time>
      </trkpt>
      <trkpt lat="41.5957350" lon="-8.7832110">
        <ele>41.3</ele>
        <time>2021-05-17T11:14:37Z</time>
      </trkpt>
      <trkpt lat="41.5957430" lon="-8.7832190">
        <ele>41.2</ele>
        <time>2021-05-17T11:14:38Z</time>
      </trkpt>
      <trkpt lat="41.5957510" lon="-8.7832290">
        <ele>41.2</ele>
        <time>2021-05-17T11:14:39Z</time>
      </trkpt>
      <trkpt lat="41.5957620" lon="-8.7832410">
        <ele>41.2</ele>
        <time>2021-05-17T11:14:40Z</time>
      </trkpt>
      <trkpt lat="41.5957670" lon="-8.7832540">
        <ele>41.2</ele>
        <time>2021-05-17T11:14:41Z</time>
      </trkpt>
      <trkpt lat="41.5957740" lon="-8.7832590">
        <ele>41.1</ele>
        <time>2021-05-17T11:14:42Z</time>
      </trkpt>
      <trkpt lat="41.5957880" lon="-8.7832640">
        <ele>41.1</ele>
        <time>2021-05-17T11:14:43Z</time>
      </trkpt>
      <trkpt lat="41.5958050" lon="-8.7832650">
        <ele>41.1</ele>
        <time>2021-05-17T11:14:44Z</time>
      </trkpt>
      <trkpt lat="41.5958190" lon="-8.7832730">
        <ele>41.0</ele>
        <time>2021-05-17T11:14:45Z</time>
      </trkpt>
      <trkpt lat="41.5958360" lon="-8.7832790">
        <ele>41.0</ele>
        <time>2021-05-17T11:14:46Z</time>
      </trkpt>
      <trkpt lat="41.5958440" lon="-8.7832900">
        <ele>41.0</ele>
        <time>2021-05-17T11:14:47Z</time>
      </trkpt>
      <trkpt lat="41.5958580" lon="-8.7833000">
        <ele>40.9</ele>
        <time>2021-05-17T11:14:48Z</time>
      </trkpt>
      <trkpt lat="41.5958750" lon="-8.7833080">
        <ele>40.9</ele>
        <time>2021-05-17T11:14:49Z</time>
      </trkpt>
      <trkpt lat="41.5958860" lon="-8.7833240">
        <ele>40.8</ele>
        <time>2021-05-17T11:14:50Z</time>
      </trkpt>
      <trkpt lat="41.5959050" lon="-8.7833380">
        <ele>40.8</ele>
        <time>2021-05-17T11:14:51Z</time>
      </trkpt>
      <trkpt lat="41.5959150" lon="-8.7833450">
        <ele>40.8</ele>
        <time>2021-05-17T11:14:52Z</time>
      </trkpt>
      <trkpt lat="41.5959250" lon="-8.7833520">
        <ele>40.7</ele>
        <time>2021-05-17T11:14:53Z</time>
      </trkpt>
      <trkpt lat="41.5959410" lon="-8.7833640">
        <ele>40.7</ele>
        <time>2021-05-17T11:14:54Z</time>
      </trkpt>
      <trkpt lat="41.5959550" lon="-8.7833720">
        <ele>40.7</ele>
        <time>2021-05-17T11:14:55Z</time>
      </trkpt>
      <trkpt lat="41.5959810" lon="-8.7833900">
        <ele>40.6</ele>
        <time>2021-05-17T11:14:56Z</time>
      </trkpt>
      <trkpt lat="41.5959890" lon="-8.7833970">
        <ele>40.6</ele>
        <time>2021-05-17T11:14:57Z</time>
      </trkpt>
      <trkpt lat="41.5960060" lon="-8.7834100">
        <ele>40.5</ele>
        <time>2021-05-17T11:14:58Z</time>
      </trkpt>
      <trkpt lat="41.5960150" lon="-8.7834150">
        <ele>40.5</ele>
        <time>2021-05-17T11:14:59Z</time>
      </trkpt>
      <trkpt lat="41.5960250" lon="-8.7834210">
        <ele>40.5</ele>
        <time>2021-05-17T11:15:00Z</time>
      </trkpt>
      <trkpt lat="41.5960430" lon="-8.7834300">
        <ele>40.4</ele>
        <time>2021-05-17T11:15:01Z</time>
      </trkpt>
      <trkpt lat="41.5960580" lon="-8.7834360">
        <ele>40.4</ele>
        <time>2021-05-17T11:15:02Z</time>
      </trkpt>
      <trkpt lat="41.5960760" lon="-8.7834370">
        <ele>40.3</ele>
        <time>2021-05-17T11:15:03Z</time>
      </trkpt>
      <trkpt lat="41.5960930" lon="-8.7834420">
        <ele>40.3</ele>
        <time>2021-05-17T11:15:04Z</time>
      </trkpt>
      <trkpt lat="41.5961050" lon="-8.7834500">
        <ele>40.3</ele>
        <time>2021-05-17T11:15:05Z</time>
      </trkpt>
      <trkpt lat="41.5961170" lon="-8.7834590">
        <ele>40.3</ele>
        <time>2021-05-17T11:15:06Z</time>
      </trkpt>
      <trkpt lat="41.5961440" lon="-8.7834650">
        <ele>40.2</ele>
        <time>2021-05-17T11:15:07Z</time>
      </trkpt>
      <trkpt lat="41.5961530" lon="-8.7834720">
        <ele>40.2</ele>
        <time>2021-05-17T11:15:08Z</time>
      </trkpt>
      <trkpt lat="41.5961730" lon="-8.7834820">
        <ele>40.2</ele>
        <time>2021-05-17T11:15:09Z</time>
      </trkpt>
      <trkpt lat="41.5961790" lon="-8.7834880">
        <ele>40.1</ele>
        <time>2021-05-17T11:15:10Z</time>
      </trkpt>
      <trkpt lat="41.5961860" lon="-8.7834940">
        <ele>40.1</ele>
        <time>2021-05-17T11:15:11Z</time>
      </trkpt>
      <trkpt lat="41.5961960" lon="-8.7835010">
        <ele>40.1</ele>
        <time>2021-05-17T11:15:12Z</time>
      </trkpt>
      <trkpt lat="41.5961970" lon="-8.7835060">
        <ele>40.1</ele>
        <time>2021-05-17T11:15:13Z</time>
      </trkpt>
      <trkpt lat="41.5962120" lon="-8.7835080">
        <ele>40.1</ele>
        <time>2021-05-17T11:15:14Z</time>
      </trkpt>
      <trkpt lat="41.5962430" lon="-8.7835220">
        <ele>40.0</ele>
        <time>2021-05-17T11:15:15Z</time>
      </trkpt>
      <trkpt lat="41.5962510" lon="-8.7835270">
        <ele>40.0</ele>
        <time>2021-05-17T11:15:16Z</time>
      </trkpt>
      <trkpt lat="41.5962790" lon="-8.7835360">
        <ele>40.0</ele>
        <time>2021-05-17T11:15:17Z</time>
      </trkpt>
      <trkpt lat="41.5962870" lon="-8.7835380">
        <ele>40.0</ele>
        <time>2021-05-17T11:15:18Z</time>
      </trkpt>
      <trkpt lat="41.5963090" lon="-8.7835520">
        <ele>39.9</ele>
        <time>2021-05-17T11:15:19Z</time>
      </trkpt>
      <trkpt lat="41.5963190" lon="-8.7835540">
        <ele>39.9</ele>
        <time>2021-05-17T11:15:20Z</time>
      </trkpt>
      <trkpt lat="41.5963280" lon="-8.7835550">
        <ele>39.9</ele>
        <time>2021-05-17T11:15:21Z</time>
      </trkpt>
      <trkpt lat="41.5963400" lon="-8.7835560">
        <ele>39.9</ele>
        <time>2021-05-17T11:15:22Z</time>
      </trkpt>
      <trkpt lat="41.5963550" lon="-8.7835630">
        <ele>39.9</ele>
        <time>2021-05-17T11:15:23Z</time>
      </trkpt>
      <trkpt lat="41.5963750" lon="-8.7835530">
        <ele>39.9</ele>
        <time>2021-05-17T11:15:24Z</time>
      </trkpt>
      <trkpt lat="41.5963850" lon="-8.7835510">
        <ele>39.9</ele>
        <time>2021-05-17T11:15:25Z</time>
      </trkpt>
      <trkpt lat="41.5963940" lon="-8.7835490">
        <ele>39.9</ele>
        <time>2021-05-17T11:15:26Z</time>
      </trkpt>
      <trkpt lat="41.5964110" lon="-8.7835360">
        <ele>39.9</ele>
        <time>2021-05-17T11:15:27Z</time>
      </trkpt>
      <trkpt lat="41.5964220" lon="-8.7835360">
        <ele>39.9</ele>
        <time>2021-05-17T11:15:28Z</time>
      </trkpt>
      <trkpt lat="41.5964400" lon="-8.7835330">
        <ele>39.9</ele>
        <time>2021-05-17T11:15:29Z</time>
      </trkpt>
      <trkpt lat="41.5964510" lon="-8.7835340">
        <ele>39.9</ele>
        <time>2021-05-17T11:15:30Z</time>
      </trkpt>
      <trkpt lat="41.5964630" lon="-8.7835340">
        <ele>39.9</ele>
        <time>2021-05-17T11:15:31Z</time>
      </trkpt>
      <trkpt lat="41.5964790" lon="-8.7835330">
        <ele>40.0</ele>
        <time>2021-05-17T11:15:32Z</time>
      </trkpt>
      <trkpt lat="41.5964900" lon="-8.7835260">
        <ele>40.0</ele>
        <time>2021-05-17T11:15:33Z</time>
      </trkpt>
      <trkpt lat="41.5964980" lon="-8.7835110">
        <ele>40.0</ele>
        <time>2021-05-17T11:15:34Z</time>
      </trkpt>
      <trkpt lat="41.5965140" lon="-8.7835060">
        <ele>40.0</ele>
        <time>2021-05-17T11:15:35Z</time>
      </trkpt>
      <trkpt lat="41.5965410" lon="-8.7835040">
        <ele>40.0</ele>
        <time>2021-05-17T11:15:36Z</time>
      </trkpt>
      <trkpt lat="41.5965470" lon="-8.7835000">
        <ele>40.0</ele>
        <time>2021-05-17T11:15:37Z</time>
      </trkpt>
      <trkpt lat="41.5965520" lon="-8.7834970">
        <ele>40.0</ele>
        <time>2021-05-17T11:15:38Z</time>
      </trkpt>
      <trkpt lat="41.5965590" lon="-8.7834910">
        <ele>40.0</ele>
        <time>2021-05-17T11:15:39Z</time>
      </trkpt>
      <trkpt lat="41.5965650" lon="-8.7834870">
        <ele>40.0</ele>
        <time>2021-05-17T11:15:40Z</time>
      </trkpt>
      <trkpt lat="41.5965690" lon="-8.7834800">
        <ele>40.0</ele>
        <time>2021-05-17T11:15:41Z</time>
      </trkpt>
      <trkpt lat="41.5965610" lon="-8.7834880">
        <ele>40.0</ele>
        <time>2021-05-17T11:15:42Z</time>
      </trkpt>
      <trkpt lat="41.5965870" lon="-8.7834900">
        <ele>40.0</ele>
        <time>2021-05-17T11:15:43Z</time>
      </trkpt>
      <trkpt lat="41.5966180" lon="-8.7834760">
        <ele>40.0</ele>
        <time>2021-05-17T11:15:44Z</time>
      </trkpt>
      <trkpt lat="41.5966270" lon="-8.7834680">
        <ele>40.0</ele>
        <time>2021-05-17T11:15:45Z</time>
      </trkpt>
      <trkpt lat="41.5966450" lon="-8.7834590">
        <ele>40.0</ele>
        <time>2021-05-17T11:15:46Z</time>
      </trkpt>
      <trkpt lat="41.5966580" lon="-8.7834470">
        <ele>40.0</ele>
        <time>2021-05-17T11:15:47Z</time>
      </trkpt>
      <trkpt lat="41.5966750" lon="-8.7834460">
        <ele>40.0</ele>
        <time>2021-05-17T11:15:48Z</time>
      </trkpt>
      <trkpt lat="41.5966880" lon="-8.7834450">
        <ele>40.0</ele>
        <time>2021-05-17T11:15:49Z</time>
      </trkpt>
      <trkpt lat="41.5967050" lon="-8.7834440">
        <ele>40.0</ele>
        <time>2021-05-17T11:15:50Z</time>
      </trkpt>
      <trkpt lat="41.5967160" lon="-8.7834430">
        <ele>40.0</ele>
        <time>2021-05-17T11:15:51Z</time>
      </trkpt>
      <trkpt lat="41.5967260" lon="-8.7834430">
        <ele>40.0</ele>
        <time>2021-05-17T11:15:52Z</time>
      </trkpt>
      <trkpt lat="41.5967480" lon="-8.7834320">
        <ele>40.0</ele>
        <time>2021-05-17T11:15:53Z</time>
      </trkpt>
      <trkpt lat="41.5967580" lon="-8.7834270">
        <ele>40.0</ele>
        <time>2021-05-17T11:15:54Z</time>
      </trkpt>
      <trkpt lat="41.5967670" lon="-8.7834210">
        <ele>40.0</ele>
        <time>2021-05-17T11:15:55Z</time>
      </trkpt>
      <trkpt lat="41.5967820" lon="-8.7834150">
        <ele>40.0</ele>
        <time>2021-05-17T11:15:56Z</time>
      </trkpt>
      <trkpt lat="41.5967960" lon="-8.7834040">
        <ele>40.0</ele>
        <time>2021-05-17T11:15:57Z</time>
      </trkpt>
      <trkpt lat="41.5968150" lon="-8.7833870">
        <ele>40.0</ele>
        <time>2021-05-17T11:15:58Z</time>
      </trkpt>
      <trkpt lat="41.5968210" lon="-8.7833820">
        <ele>40.0</ele>
        <time>2021-05-17T11:15:59Z</time>
      </trkpt>
      <trkpt lat="41.5968270" lon="-8.7833760">
        <ele>40.0</ele>
        <time>2021-05-17T11:16:00Z</time>
      </trkpt>
      <trkpt lat="41.5968340" lon="-8.7833570">
        <ele>40.0</ele>
        <time>2021-05-17T11:16:01Z</time>
      </trkpt>
      <trkpt lat="41.5968380" lon="-8.7833440">
        <ele>40.0</ele>
        <time>2021-05-17T11:16:02Z</time>
      </trkpt>
      <trkpt lat="41.5968440" lon="-8.7833400">
        <ele>40.0</ele>
        <time>2021-05-17T11:16:03Z</time>
      </trkpt>
      <trkpt lat="41.5968490" lon="-8.7833270">
        <ele>40.0</ele>
        <time>2021-05-17T11:16:04Z</time>
      </trkpt>
      <trkpt lat="41.5968570" lon="-8.7833190">
        <ele>40.0</ele>
        <time>2021-05-17T11:16:05Z</time>
      </trkpt>
      <trkpt lat="41.5968690" lon="-8.7833070">
        <ele>40.0</ele>
        <time>2021-05-17T11:16:06Z</time>
      </trkpt>
      <trkpt lat="41.5968740" lon="-8.7832870">
        <ele>40.0</ele>
        <time>2021-05-17T11:16:07Z</time>
      </trkpt>
      <trkpt lat="41.5968820" lon="-8.7832750">
        <ele>40.0</ele>
        <time>2021-05-17T11:16:08Z</time>
      </trkpt>
      <trkpt lat="41.5968890" lon="-8.7832700">
        <ele>40.0</ele>
        <time>2021-05-17T11:16:09Z</time>
      </trkpt>
      <trkpt lat="41.5968940" lon="-8.7832590">
        <ele>40.0</ele>
        <time>2021-05-17T11:16:10Z</time>
      </trkpt>
      <trkpt lat="41.5969060" lon="-8.7832490">
        <ele>40.0</ele>
        <time>2021-05-17T11:16:11Z</time>
      </trkpt>
      <trkpt lat="41.5969190" lon="-8.7832440">
        <ele>40.0</ele>
        <time>2021-05-17T11:16:12Z</time>
      </trkpt>
      <trkpt lat="41.5969320" lon="-8.7832370">
        <ele>40.0</ele>
        <time>2021-05-17T11:16:13Z</time>
      </trkpt>
      <trkpt lat="41.5969570" lon="-8.7832200">
        <ele>40.0</ele>
        <time>2021-05-17T11:16:14Z</time>
      </trkpt>
      <trkpt lat="41.5969680" lon="-8.7832160">
        <ele>40.0</ele>
        <time>2021-05-17T11:16:15Z</time>
      </trkpt>
      <trkpt lat="41.5969890" lon="-8.7832140">
        <ele>40.0</ele>
        <time>2021-05-17T11:16:16Z</time>
      </trkpt>
      <trkpt lat="41.5970030" lon="-8.7832050">
        <ele>40.0</ele>
        <time>2021-05-17T11:16:17Z</time>
      </trkpt>
      <trkpt lat="41.5970110" lon="-8.7831990">
        <ele>40.0</ele>
        <time>2021-05-17T11:16:18Z</time>
      </trkpt>
      <trkpt lat="41.5970270" lon="-8.7831870">
        <ele>40.0</ele>
        <time>2021-05-17T11:16:19Z</time>
      </trkpt>
      <trkpt lat="41.5970430" lon="-8.7831810">
        <ele>40.0</ele>
        <time>2021-05-17T11:16:20Z</time>
      </trkpt>
      <trkpt lat="41.5970580" lon="-8.7831660">
        <ele>40.0</ele>
        <time>2021-05-17T11:16:21Z</time>
      </trkpt>
      <trkpt lat="41.5970830" lon="-8.7831470">
        <ele>40.0</ele>
        <time>2021-05-17T11:16:22Z</time>
      </trkpt>
      <trkpt lat="41.5970900" lon="-8.7831420">
        <ele>39.9</ele>
        <time>2021-05-17T11:16:23Z</time>
      </trkpt>
      <trkpt lat="41.5971060" lon="-8.7831390">
        <ele>39.9</ele>
        <time>2021-05-17T11:16:24Z</time>
      </trkpt>
      <trkpt lat="41.5971200" lon="-8.7831280">
        <ele>39.9</ele>
        <time>2021-05-17T11:16:25Z</time>
      </trkpt>
      <trkpt lat="41.5971350" lon="-8.7831300">
        <ele>39.9</ele>
        <time>2021-05-17T11:16:26Z</time>
      </trkpt>
      <trkpt lat="41.5971520" lon="-8.7831280">
        <ele>39.9</ele>
        <time>2021-05-17T11:16:27Z</time>
      </trkpt>
      <trkpt lat="41.5971810" lon="-8.7831160">
        <ele>39.9</ele>
        <time>2021-05-17T11:16:28Z</time>
      </trkpt>
      <trkpt lat="41.5971900" lon="-8.7831150">
        <ele>39.9</ele>
        <time>2021-05-17T11:16:29Z</time>
      </trkpt>
      <trkpt lat="41.5972000" lon="-8.7831080">
        <ele>39.9</ele>
        <time>2021-05-17T11:16:30Z</time>
      </trkpt>
      <trkpt lat="41.5972150" lon="-8.7831000">
        <ele>39.9</ele>
        <time>2021-05-17T11:16:31Z</time>
      </trkpt>
      <trkpt lat="41.5972310" lon="-8.7830960">
        <ele>39.9</ele>
        <time>2021-05-17T11:16:32Z</time>
      </trkpt>
      <trkpt lat="41.5972420" lon="-8.7830890">
        <ele>39.9</ele>
        <time>2021-05-17T11:16:33Z</time>
      </trkpt>
      <trkpt lat="41.5972590" lon="-8.7830820">
        <ele>39.9</ele>
        <time>2021-05-17T11:16:34Z</time>
      </trkpt>
      <trkpt lat="41.5972750" lon="-8.7830760">
        <ele>39.9</ele>
        <time>2021-05-17T11:16:35Z</time>
      </trkpt>
      <trkpt lat="41.5972890" lon="-8.7830590">
        <ele>39.9</ele>
        <time>2021-05-17T11:16:36Z</time>
      </trkpt>
      <trkpt lat="41.5972960" lon="-8.7830520">
        <ele>39.9</ele>
        <time>2021-05-17T11:16:37Z</time>
      </trkpt>
      <trkpt lat="41.5973040" lon="-8.7830440">
        <ele>39.9</ele>
        <time>2021-05-17T11:16:38Z</time>
      </trkpt>
      <trkpt lat="41.5973210" lon="-8.7830390">
        <ele>39.9</ele>
        <time>2021-05-17T11:16:39Z</time>
      </trkpt>
      <trkpt lat="41.5973380" lon="-8.7830320">
        <ele>39.9</ele>
        <time>2021-05-17T11:16:40Z</time>
      </trkpt>
      <trkpt lat="41.5973510" lon="-8.7830250">
        <ele>39.9</ele>
        <time>2021-05-17T11:16:41Z</time>
      </trkpt>
      <trkpt lat="41.5973620" lon="-8.7830150">
        <ele>39.9</ele>
        <time>2021-05-17T11:16:42Z</time>
      </trkpt>
      <trkpt lat="41.5973780" lon="-8.7830120">
        <ele>39.9</ele>
        <time>2021-05-17T11:16:43Z</time>
      </trkpt>
      <trkpt lat="41.5973930" lon="-8.7830100">
        <ele>39.9</ele>
        <time>2021-05-17T11:16:44Z</time>
      </trkpt>
      <trkpt lat="41.5974090" lon="-8.7830050">
        <ele>39.9</ele>
        <time>2021-05-17T11:16:45Z</time>
      </trkpt>
      <trkpt lat="41.5974250" lon="-8.7830030">
        <ele>39.9</ele>
        <time>2021-05-17T11:16:46Z</time>
      </trkpt>
      <trkpt lat="41.5974420" lon="-8.7830040">
        <ele>39.9</ele>
        <time>2021-05-17T11:16:47Z</time>
      </trkpt>
      <trkpt lat="41.5974580" lon="-8.7830060">
        <ele>39.9</ele>
        <time>2021-05-17T11:16:48Z</time>
      </trkpt>
      <trkpt lat="41.5974730" lon="-8.7829940">
        <ele>39.9</ele>
        <time>2021-05-17T11:16:49Z</time>
      </trkpt>
      <trkpt lat="41.5974850" lon="-8.7829970">
        <ele>39.9</ele>
        <time>2021-05-17T11:16:50Z</time>
      </trkpt>
      <trkpt lat="41.5974950" lon="-8.7830000">
        <ele>39.9</ele>
        <time>2021-05-17T11:16:51Z</time>
      </trkpt>
      <trkpt lat="41.5975010" lon="-8.7829930">
        <ele>39.9</ele>
        <time>2021-05-17T11:16:52Z</time>
      </trkpt>
      <trkpt lat="41.5975070" lon="-8.7829950">
        <ele>39.9</ele>
        <time>2021-05-17T11:16:53Z</time>
      </trkpt>
      <trkpt lat="41.5975140" lon="-8.7829950">
        <ele>39.9</ele>
        <time>2021-05-17T11:16:54Z</time>
      </trkpt>
      <trkpt lat="41.5975340" lon="-8.7830080">
        <ele>39.9</ele>
        <time>2021-05-17T11:16:55Z</time>
      </trkpt>
      <trkpt lat="41.5975420" lon="-8.7830090">
        <ele>39.9</ele>
        <time>2021-05-17T11:16:56Z</time>
      </trkpt>
      <trkpt lat="41.5975500" lon="-8.7830100">
        <ele>39.9</ele>
        <time>2021-05-17T11:16:57Z</time>
      </trkpt>
      <trkpt lat="41.5975630" lon="-8.7830000">
        <ele>39.9</ele>
        <time>2021-05-17T11:16:58Z</time>
      </trkpt>
      <trkpt lat="41.5975730" lon="-8.7829990">
        <ele>39.9</ele>
        <time>2021-05-17T11:16:59Z</time>
      </trkpt>
      <trkpt lat="41.5975770" lon="-8.7830000">
        <ele>39.9</ele>
        <time>2021-05-17T11:17:00Z</time>
      </trkpt>
      <trkpt lat="41.5975870" lon="-8.7829990">
        <ele>39.9</ele>
        <time>2021-05-17T11:17:01Z</time>
      </trkpt>
      <trkpt lat="41.5975910" lon="-8.7829950">
        <ele>39.9</ele>
        <time>2021-05-17T11:17:02Z</time>
      </trkpt>
      <trkpt lat="41.5976020" lon="-8.7829930">
        <ele>39.9</ele>
        <time>2021-05-17T11:17:03Z</time>
      </trkpt>
      <trkpt lat="41.5976120" lon="-8.7829960">
        <ele>39.9</ele>
        <time>2021-05-17T11:17:04Z</time>
      </trkpt>
      <trkpt lat="41.5976170" lon="-8.7829990">
        <ele>39.9</ele>
        <time>2021-05-17T11:17:05Z</time>
      </trkpt>
      <trkpt lat="41.5976280" lon="-8.7830030">
        <ele>39.9</ele>
        <time>2021-05-17T11:17:06Z</time>
      </trkpt>
      <trkpt lat="41.5976420" lon="-8.7830090">
        <ele>39.9</ele>
        <time>2021-05-17T11:17:07Z</time>
      </trkpt>
      <trkpt lat="41.5976640" lon="-8.7830170">
        <ele>39.9</ele>
        <time>2021-05-17T11:17:08Z</time>
      </trkpt>
      <trkpt lat="41.5976670" lon="-8.7830380">
        <ele>39.9</ele>
        <time>2021-05-17T11:17:09Z</time>
      </trkpt>
      <trkpt lat="41.5976750" lon="-8.7830480">
        <ele>39.9</ele>
        <time>2021-05-17T11:17:10Z</time>
      </trkpt>
      <trkpt lat="41.5976830" lon="-8.7830610">
        <ele>39.9</ele>
        <time>2021-05-17T11:17:11Z</time>
      </trkpt>
      <trkpt lat="41.5976920" lon="-8.7830650">
        <ele>39.9</ele>
        <time>2021-05-17T11:17:12Z</time>
      </trkpt>
      <trkpt lat="41.5977040" lon="-8.7830740">
        <ele>39.9</ele>
        <time>2021-05-17T11:17:13Z</time>
      </trkpt>
      <trkpt lat="41.5977210" lon="-8.7830910">
        <ele>39.9</ele>
        <time>2021-05-17T11:17:14Z</time>
      </trkpt>
      <trkpt lat="41.5977380" lon="-8.7831070">
        <ele>39.9</ele>
        <time>2021-05-17T11:17:15Z</time>
      </trkpt>
      <trkpt lat="41.5977520" lon="-8.7831100">
        <ele>39.9</ele>
        <time>2021-05-17T11:17:16Z</time>
      </trkpt>
      <trkpt lat="41.5977680" lon="-8.7831250">
        <ele>39.9</ele>
        <time>2021-05-17T11:17:17Z</time>
      </trkpt>
      <trkpt lat="41.5977760" lon="-8.7831310">
        <ele>39.9</ele>
        <time>2021-05-17T11:17:18Z</time>
      </trkpt>
      <trkpt lat="41.5977820" lon="-8.7831330">
        <ele>39.9</ele>
        <time>2021-05-17T11:17:19Z</time>
      </trkpt>
      <trkpt lat="41.5977960" lon="-8.7831510">
        <ele>39.9</ele>
        <time>2021-05-17T11:17:20Z</time>
      </trkpt>
      <trkpt lat="41.5978040" lon="-8.7831560">
        <ele>39.9</ele>
        <time>2021-05-17T11:17:21Z</time>
      </trkpt>
      <trkpt lat="41.5978290" lon="-8.7831760">
        <ele>39.9</ele>
        <time>2021-05-17T11:17:22Z</time>
      </trkpt>
      <trkpt lat="41.5978380" lon="-8.7831750">
        <ele>39.9</ele>
        <time>2021-05-17T11:17:23Z</time>
      </trkpt>
      <trkpt lat="41.5978470" lon="-8.7831740">
        <ele>39.9</ele>
        <time>2021-05-17T11:17:24Z</time>
      </trkpt>
      <trkpt lat="41.5978570" lon="-8.7831800">
        <ele>39.8</ele>
        <time>2021-05-17T11:17:25Z</time>
      </trkpt>
      <trkpt lat="41.5978650" lon="-8.7831840">
        <ele>39.8</ele>
        <time>2021-05-17T11:17:26Z</time>
      </trkpt>
      <trkpt lat="41.5978770" lon="-8.7831840">
        <ele>39.8</ele>
        <time>2021-05-17T11:17:27Z</time>
      </trkpt>
      <trkpt lat="41.5978960" lon="-8.7831890">
        <ele>39.8</ele>
        <time>2021-05-17T11:17:28Z</time>
      </trkpt>
      <trkpt lat="41.5979050" lon="-8.7831920">
        <ele>39.8</ele>
        <time>2021-05-17T11:17:29Z</time>
      </trkpt>
      <trkpt lat="41.5979130" lon="-8.7831940">
        <ele>39.8</ele>
        <time>2021-05-17T11:17:30Z</time>
      </trkpt>
      <trkpt lat="41.5979240" lon="-8.7831950">
        <ele>39.8</ele>
        <time>2021-05-17T11:17:31Z</time>
      </trkpt>
      <trkpt lat="41.5979340" lon="-8.7831930">
        <ele>39.8</ele>
        <time>2021-05-17T11:17:32Z</time>
      </trkpt>
      <trkpt lat="41.5979450" lon="-8.7832020">
        <ele>39.8</ele>
        <time>2021-05-17T11:17:33Z</time>
      </trkpt>
      <trkpt lat="41.5979660" lon="-8.7831970">
        <ele>39.8</ele>
        <time>2021-05-17T11:17:34Z</time>
      </trkpt>
      <trkpt lat="41.5979760" lon="-8.7831940">
        <ele>39.8</ele>
        <time>2021-05-17T11:17:35Z</time>
      </trkpt>
      <trkpt lat="41.5979870" lon="-8.7831900">
        <ele>39.8</ele>
        <time>2021-05-17T11:17:36Z</time>
      </trkpt>
      <trkpt lat="41.5979960" lon="-8.7831870">
        <ele>39.8</ele>
        <time>2021-05-17T11:17:37Z</time>
      </trkpt>
      <trkpt lat="41.5980020" lon="-8.7831790">
        <ele>39.8</ele>
        <time>2021-05-17T11:17:38Z</time>
      </trkpt>
      <trkpt lat="41.5980100" lon="-8.7831820">
        <ele>39.8</ele>
        <time>2021-05-17T11:17:39Z</time>
      </trkpt>
      <trkpt lat="41.5980220" lon="-8.7831810">
        <ele>39.8</ele>
        <time>2021-05-17T11:17:40Z</time>
      </trkpt>
      <trkpt lat="41.5980350" lon="-8.7831700">
        <ele>39.8</ele>
        <time>2021-05-17T11:17:41Z</time>
      </trkpt>
      <trkpt lat="41.5980420" lon="-8.7831680">
        <ele>39.8</ele>
        <time>2021-05-17T11:17:42Z</time>
      </trkpt>
      <trkpt lat="41.5980510" lon="-8.7831630">
        <ele>39.8</ele>
        <time>2021-05-17T11:17:43Z</time>
      </trkpt>
      <trkpt lat="41.5980490" lon="-8.7831660">
        <ele>39.8</ele>
        <time>2021-05-17T11:17:44Z</time>
      </trkpt>
      <trkpt lat="41.5980620" lon="-8.7831680">
        <ele>39.8</ele>
        <time>2021-05-17T11:17:45Z</time>
      </trkpt>
      <trkpt lat="41.5980680" lon="-8.7831770">
        <ele>39.8</ele>
        <time>2021-05-17T11:17:46Z</time>
      </trkpt>
      <trkpt lat="41.5980800" lon="-8.7831780">
        <ele>39.8</ele>
        <time>2021-05-17T11:17:47Z</time>
      </trkpt>
      <trkpt lat="41.5981070" lon="-8.7831870">
        <ele>39.8</ele>
        <time>2021-05-17T11:17:48Z</time>
      </trkpt>
      <trkpt lat="41.5981160" lon="-8.7831900">
        <ele>39.8</ele>
        <time>2021-05-17T11:17:49Z</time>
      </trkpt>
      <trkpt lat="41.5981320" lon="-8.7831820">
        <ele>39.8</ele>
        <time>2021-05-17T11:17:50Z</time>
      </trkpt>
      <trkpt lat="41.5981450" lon="-8.7831730">
        <ele>39.8</ele>
        <time>2021-05-17T11:17:51Z</time>
      </trkpt>
      <trkpt lat="41.5981560" lon="-8.7831710">
        <ele>39.8</ele>
        <time>2021-05-17T11:17:52Z</time>
      </trkpt>
      <trkpt lat="41.5981720" lon="-8.7831690">
        <ele>39.9</ele>
        <time>2021-05-17T11:17:53Z</time>
      </trkpt>
      <trkpt lat="41.5981900" lon="-8.7831710">
        <ele>39.9</ele>
        <time>2021-05-17T11:17:54Z</time>
      </trkpt>
      <trkpt lat="41.5982000" lon="-8.7831710">
        <ele>39.9</ele>
        <time>2021-05-17T11:17:55Z</time>
      </trkpt>
      <trkpt lat="41.5982090" lon="-8.7831700">
        <ele>39.9</ele>
        <time>2021-05-17T11:17:56Z</time>
      </trkpt>
      <trkpt lat="41.5982210" lon="-8.7831670">
        <ele>39.9</ele>
        <time>2021-05-17T11:17:57Z</time>
      </trkpt>
      <trkpt lat="41.5982400" lon="-8.7831610">
        <ele>40.0</ele>
        <time>2021-05-17T11:17:58Z</time>
      </trkpt>
      <trkpt lat="41.5982510" lon="-8.7831580">
        <ele>40.0</ele>
        <time>2021-05-17T11:17:59Z</time>
      </trkpt>
      <trkpt lat="41.5982700" lon="-8.7831570">
        <ele>40.0</ele>
        <time>2021-05-17T11:18:00Z</time>
      </trkpt>
      <trkpt lat="41.5982790" lon="-8.7831620">
        <ele>40.0</ele>
        <time>2021-05-17T11:18:01Z</time>
      </trkpt>
      <trkpt lat="41.5982990" lon="-8.7831720">
        <ele>40.0</ele>
        <time>2021-05-17T11:18:02Z</time>
      </trkpt>
      <trkpt lat="41.5983110" lon="-8.7831800">
        <ele>40.1</ele>
        <time>2021-05-17T11:18:03Z</time>
      </trkpt>
      <trkpt lat="41.5983340" lon="-8.7831740">
        <ele>40.1</ele>
        <time>2021-05-17T11:18:04Z</time>
      </trkpt>
      <trkpt lat="41.5983510" lon="-8.7831770">
        <ele>40.1</ele>
        <time>2021-05-17T11:18:05Z</time>
      </trkpt>
      <trkpt lat="41.5983620" lon="-8.7831750">
        <ele>40.1</ele>
        <time>2021-05-17T11:18:06Z</time>
      </trkpt>
      <trkpt lat="41.5983770" lon="-8.7831690">
        <ele>40.1</ele>
        <time>2021-05-17T11:18:07Z</time>
      </trkpt>
      <trkpt lat="41.5983930" lon="-8.7831670">
        <ele>40.2</ele>
        <time>2021-05-17T11:18:08Z</time>
      </trkpt>
      <trkpt lat="41.5984160" lon="-8.7831670">
        <ele>40.2</ele>
        <time>2021-05-17T11:18:09Z</time>
      </trkpt>
      <trkpt lat="41.5984240" lon="-8.7831720">
        <ele>40.2</ele>
        <time>2021-05-17T11:18:10Z</time>
      </trkpt>
      <trkpt lat="41.5984320" lon="-8.7831780">
        <ele>40.2</ele>
        <time>2021-05-17T11:18:11Z</time>
      </trkpt>
      <trkpt lat="41.5984480" lon="-8.7831850">
        <ele>40.3</ele>
        <time>2021-05-17T11:18:12Z</time>
      </trkpt>
      <trkpt lat="41.5984630" lon="-8.7831830">
        <ele>40.3</ele>
        <time>2021-05-17T11:18:13Z</time>
      </trkpt>
      <trkpt lat="41.5984800" lon="-8.7831860">
        <ele>40.3</ele>
        <time>2021-05-17T11:18:14Z</time>
      </trkpt>
      <trkpt lat="41.5984930" lon="-8.7831830">
        <ele>40.3</ele>
        <time>2021-05-17T11:18:15Z</time>
      </trkpt>
      <trkpt lat="41.5985010" lon="-8.7831850">
        <ele>40.3</ele>
        <time>2021-05-17T11:18:16Z</time>
      </trkpt>
      <trkpt lat="41.5985180" lon="-8.7831740">
        <ele>40.4</ele>
        <time>2021-05-17T11:18:17Z</time>
      </trkpt>
      <trkpt lat="41.5985230" lon="-8.7831710">
        <ele>40.4</ele>
        <time>2021-05-17T11:18:18Z</time>
      </trkpt>
      <trkpt lat="41.5985450" lon="-8.7831720">
        <ele>40.4</ele>
        <time>2021-05-17T11:18:19Z</time>
      </trkpt>
      <trkpt lat="41.5985570" lon="-8.7831730">
        <ele>40.4</ele>
        <time>2021-05-17T11:18:20Z</time>
      </trkpt>
      <trkpt lat="41.5985770" lon="-8.7831600">
        <ele>40.4</ele>
        <time>2021-05-17T11:18:21Z</time>
      </trkpt>
      <trkpt lat="41.5985870" lon="-8.7831590">
        <ele>40.5</ele>
        <time>2021-05-17T11:18:22Z</time>
      </trkpt>
      <trkpt lat="41.5986130" lon="-8.7831520">
        <ele>40.5</ele>
        <time>2021-05-17T11:18:23Z</time>
      </trkpt>
      <trkpt lat="41.5986190" lon="-8.7831490">
        <ele>40.5</ele>
        <time>2021-05-17T11:18:24Z</time>
      </trkpt>
      <trkpt lat="41.5986250" lon="-8.7831470">
        <ele>40.5</ele>
        <time>2021-05-17T11:18:25Z</time>
      </trkpt>
      <trkpt lat="41.5986410" lon="-8.7831420">
        <ele>40.5</ele>
        <time>2021-05-17T11:18:26Z</time>
      </trkpt>
      <trkpt lat="41.5986570" lon="-8.7831440">
        <ele>40.5</ele>
        <time>2021-05-17T11:18:27Z</time>
      </trkpt>
      <trkpt lat="41.5986700" lon="-8.7831380">
        <ele>40.6</ele>
        <time>2021-05-17T11:18:28Z</time>
      </trkpt>
      <trkpt lat="41.5986870" lon="-8.7831370">
        <ele>40.6</ele>
        <time>2021-05-17T11:18:29Z</time>
      </trkpt>
      <trkpt lat="41.5986990" lon="-8.7831320">
        <ele>40.6</ele>
        <time>2021-05-17T11:18:30Z</time>
      </trkpt>
      <trkpt lat="41.5987130" lon="-8.7831210">
        <ele>40.6</ele>
        <time>2021-05-17T11:18:31Z</time>
      </trkpt>
      <trkpt lat="41.5987400" lon="-8.7831150">
        <ele>40.6</ele>
        <time>2021-05-17T11:18:32Z</time>
      </trkpt>
      <trkpt lat="41.5987510" lon="-8.7831110">
        <ele>40.7</ele>
        <time>2021-05-17T11:18:33Z</time>
      </trkpt>
      <trkpt lat="41.5987600" lon="-8.7831050">
        <ele>40.7</ele>
        <time>2021-05-17T11:18:34Z</time>
      </trkpt>
      <trkpt lat="41.5987760" lon="-8.7831010">
        <ele>40.7</ele>
        <time>2021-05-17T11:18:35Z</time>
      </trkpt>
      <trkpt lat="41.5987970" lon="-8.7830860">
        <ele>40.7</ele>
        <time>2021-05-17T11:18:36Z</time>
      </trkpt>
      <trkpt lat="41.5988050" lon="-8.7830810">
        <ele>40.7</ele>
        <time>2021-05-17T11:18:37Z</time>
      </trkpt>
      <trkpt lat="41.5988120" lon="-8.7830760">
        <ele>40.7</ele>
        <time>2021-05-17T11:18:38Z</time>
      </trkpt>
      <trkpt lat="41.5988350" lon="-8.7830650">
        <ele>40.7</ele>
        <time>2021-05-17T11:18:39Z</time>
      </trkpt>
      <trkpt lat="41.5988470" lon="-8.7830600">
        <ele>40.7</ele>
        <time>2021-05-17T11:18:40Z</time>
      </trkpt>
      <trkpt lat="41.5988580" lon="-8.7830560">
        <ele>40.8</ele>
        <time>2021-05-17T11:18:41Z</time>
      </trkpt>
      <trkpt lat="41.5988600" lon="-8.7830460">
        <ele>40.8</ele>
        <time>2021-05-17T11:18:42Z</time>
      </trkpt>
      <trkpt lat="41.5988690" lon="-8.7830400">
        <ele>40.8</ele>
        <time>2021-05-17T11:18:43Z</time>
      </trkpt>
      <trkpt lat="41.5988800" lon="-8.7830320">
        <ele>40.8</ele>
        <time>2021-05-17T11:18:44Z</time>
      </trkpt>
      <trkpt lat="41.5988940" lon="-8.7830270">
        <ele>40.8</ele>
        <time>2021-05-17T11:18:45Z</time>
      </trkpt>
      <trkpt lat="41.5989070" lon="-8.7830170">
        <ele>40.8</ele>
        <time>2021-05-17T11:18:46Z</time>
      </trkpt>
      <trkpt lat="41.5989250" lon="-8.7830060">
        <ele>40.8</ele>
        <time>2021-05-17T11:18:47Z</time>
      </trkpt>
      <trkpt lat="41.5989340" lon="-8.7829990">
        <ele>40.8</ele>
        <time>2021-05-17T11:18:48Z</time>
      </trkpt>
      <trkpt lat="41.5989420" lon="-8.7829920">
        <ele>40.8</ele>
        <time>2021-05-17T11:18:49Z</time>
      </trkpt>
      <trkpt lat="41.5989650" lon="-8.7829860">
        <ele>40.9</ele>
        <time>2021-05-17T11:18:50Z</time>
      </trkpt>
      <trkpt lat="41.5989750" lon="-8.7829810">
        <ele>40.9</ele>
        <time>2021-05-17T11:18:51Z</time>
      </trkpt>
      <trkpt lat="41.5989860" lon="-8.7829770">
        <ele>40.9</ele>
        <time>2021-05-17T11:18:52Z</time>
      </trkpt>
      <trkpt lat="41.5990040" lon="-8.7829690">
        <ele>40.9</ele>
        <time>2021-05-17T11:18:53Z</time>
      </trkpt>
      <trkpt lat="41.5990200" lon="-8.7829630">
        <ele>40.9</ele>
        <time>2021-05-17T11:18:54Z</time>
      </trkpt>
      <trkpt lat="41.5990390" lon="-8.7829590">
        <ele>40.9</ele>
        <time>2021-05-17T11:18:55Z</time>
      </trkpt>
      <trkpt lat="41.5990530" lon="-8.7829450">
        <ele>40.9</ele>
        <time>2021-05-17T11:18:56Z</time>
      </trkpt>
      <trkpt lat="41.5990690" lon="-8.7829380">
        <ele>41.0</ele>
        <time>2021-05-17T11:18:57Z</time>
      </trkpt>
      <trkpt lat="41.5990850" lon="-8.7829300">
        <ele>41.0</ele>
        <time>2021-05-17T11:18:58Z</time>
      </trkpt>
      <trkpt lat="41.5990980" lon="-8.7829240">
        <ele>41.0</ele>
        <time>2021-05-17T11:18:59Z</time>
      </trkpt>
      <trkpt lat="41.5991140" lon="-8.7829200">
        <ele>41.0</ele>
        <time>2021-05-17T11:19:00Z</time>
      </trkpt>
      <trkpt lat="41.5991300" lon="-8.7829160">
        <ele>41.0</ele>
        <time>2021-05-17T11:19:01Z</time>
      </trkpt>
      <trkpt lat="41.5991400" lon="-8.7829050">
        <ele>41.0</ele>
        <time>2021-05-17T11:19:02Z</time>
      </trkpt>
      <trkpt lat="41.5991520" lon="-8.7828950">
        <ele>41.0</ele>
        <time>2021-05-17T11:19:03Z</time>
      </trkpt>
      <trkpt lat="41.5991690" lon="-8.7828910">
        <ele>41.0</ele>
        <time>2021-05-17T11:19:04Z</time>
      </trkpt>
      <trkpt lat="41.5991860" lon="-8.7828860">
        <ele>41.1</ele>
        <time>2021-05-17T11:19:05Z</time>
      </trkpt>
      <trkpt lat="41.5992000" lon="-8.7828800">
        <ele>41.1</ele>
        <time>2021-05-17T11:19:06Z</time>
      </trkpt>
      <trkpt lat="41.5992140" lon="-8.7828790">
        <ele>41.1</ele>
        <time>2021-05-17T11:19:07Z</time>
      </trkpt>
      <trkpt lat="41.5992280" lon="-8.7828730">
        <ele>41.1</ele>
        <time>2021-05-17T11:19:08Z</time>
      </trkpt>
      <trkpt lat="41.5992420" lon="-8.7828680">
        <ele>41.1</ele>
        <time>2021-05-17T11:19:09Z</time>
      </trkpt>
      <trkpt lat="41.5992550" lon="-8.7828620">
        <ele>41.1</ele>
        <time>2021-05-17T11:19:10Z</time>
      </trkpt>
      <trkpt lat="41.5992740" lon="-8.7828600">
        <ele>41.1</ele>
        <time>2021-05-17T11:19:11Z</time>
      </trkpt>
      <trkpt lat="41.5992900" lon="-8.7828590">
        <ele>41.1</ele>
        <time>2021-05-17T11:19:12Z</time>
      </trkpt>
      <trkpt lat="41.5993080" lon="-8.7828600">
        <ele>41.2</ele>
        <time>2021-05-17T11:19:13Z</time>
      </trkpt>
      <trkpt lat="41.5993240" lon="-8.7828560">
        <ele>41.2</ele>
        <time>2021-05-17T11:19:14Z</time>
      </trkpt>
      <trkpt lat="41.5993420" lon="-8.7828550">
        <ele>41.2</ele>
        <time>2021-05-17T11:19:15Z</time>
      </trkpt>
      <trkpt lat="41.5993580" lon="-8.7828520">
        <ele>41.2</ele>
        <time>2021-05-17T11:19:16Z</time>
      </trkpt>
      <trkpt lat="41.5993740" lon="-8.7828550">
        <ele>41.2</ele>
        <time>2021-05-17T11:19:17Z</time>
      </trkpt>
      <trkpt lat="41.5993890" lon="-8.7828560">
        <ele>41.2</ele>
        <time>2021-05-17T11:19:18Z</time>
      </trkpt>
      <trkpt lat="41.5994050" lon="-8.7828490">
        <ele>41.2</ele>
        <time>2021-05-17T11:19:19Z</time>
      </trkpt>
      <trkpt lat="41.5994210" lon="-8.7828540">
        <ele>41.2</ele>
        <time>2021-05-17T11:19:20Z</time>
      </trkpt>
      <trkpt lat="41.5994360" lon="-8.7828440">
        <ele>41.2</ele>
        <time>2021-05-17T11:19:21Z</time>
      </trkpt>
      <trkpt lat="41.5994510" lon="-8.7828470">
        <ele>41.2</ele>
        <time>2021-05-17T11:19:22Z</time>
      </trkpt>
      <trkpt lat="41.5994690" lon="-8.7828450">
        <ele>41.2</ele>
        <time>2021-05-17T11:19:23Z</time>
      </trkpt>
      <trkpt lat="41.5994850" lon="-8.7828530">
        <ele>41.2</ele>
        <time>2021-05-17T11:19:24Z</time>
      </trkpt>
      <trkpt lat="41.5995020" lon="-8.7828430">
        <ele>41.2</ele>
        <time>2021-05-17T11:19:25Z</time>
      </trkpt>
      <trkpt lat="41.5995170" lon="-8.7828500">
        <ele>41.2</ele>
        <time>2021-05-17T11:19:26Z</time>
      </trkpt>
      <trkpt lat="41.5995320" lon="-8.7828490">
        <ele>41.3</ele>
        <time>2021-05-17T11:19:27Z</time>
      </trkpt>
      <trkpt lat="41.5995440" lon="-8.7828530">
        <ele>41.3</ele>
        <time>2021-05-17T11:19:28Z</time>
      </trkpt>
      <trkpt lat="41.5995580" lon="-8.7828570">
        <ele>41.3</ele>
        <time>2021-05-17T11:19:29Z</time>
      </trkpt>
      <trkpt lat="41.5995730" lon="-8.7828580">
        <ele>41.3</ele>
        <time>2021-05-17T11:19:30Z</time>
      </trkpt>
      <trkpt lat="41.5995880" lon="-8.7828560">
        <ele>41.3</ele>
        <time>2021-05-17T11:19:31Z</time>
      </trkpt>
      <trkpt lat="41.5996000" lon="-8.7828540">
        <ele>41.3</ele>
        <time>2021-05-17T11:19:32Z</time>
      </trkpt>
      <trkpt lat="41.5996160" lon="-8.7828510">
        <ele>41.3</ele>
        <time>2021-05-17T11:19:33Z</time>
      </trkpt>
      <trkpt lat="41.5996310" lon="-8.7828580">
        <ele>41.3</ele>
        <time>2021-05-17T11:19:34Z</time>
      </trkpt>
      <trkpt lat="41.5996520" lon="-8.7828550">
        <ele>41.3</ele>
        <time>2021-05-17T11:19:35Z</time>
      </trkpt>
      <trkpt lat="41.5996610" lon="-8.7828540">
        <ele>41.3</ele>
        <time>2021-05-17T11:19:36Z</time>
      </trkpt>
      <trkpt lat="41.5996700" lon="-8.7828540">
        <ele>41.3</ele>
        <time>2021-05-17T11:19:37Z</time>
      </trkpt>
      <trkpt lat="41.5996920" lon="-8.7828540">
        <ele>41.3</ele>
        <time>2021-05-17T11:19:38Z</time>
      </trkpt>
      <trkpt lat="41.5997000" lon="-8.7828550">
        <ele>41.3</ele>
        <time>2021-05-17T11:19:39Z</time>
      </trkpt>
      <trkpt lat="41.5997080" lon="-8.7828550">
        <ele>41.3</ele>
        <time>2021-05-17T11:19:40Z</time>
      </trkpt>
      <trkpt lat="41.5997280" lon="-8.7828610">
        <ele>41.3</ele>
        <time>2021-05-17T11:19:41Z</time>
      </trkpt>
      <trkpt lat="41.5997380" lon="-8.7828600">
        <ele>41.3</ele>
        <time>2021-05-17T11:19:42Z</time>
      </trkpt>
      <trkpt lat="41.5997470" lon="-8.7828600">
        <ele>41.3</ele>
        <time>2021-05-17T11:19:43Z</time>
      </trkpt>
      <trkpt lat="41.5997700" lon="-8.7828560">
        <ele>41.3</ele>
        <time>2021-05-17T11:19:44Z</time>
      </trkpt>
      <trkpt lat="41.5997790" lon="-8.7828550">
        <ele>41.3</ele>
        <time>2021-05-17T11:19:45Z</time>
      </trkpt>
      <trkpt lat="41.5997870" lon="-8.7828540">
        <ele>41.3</ele>
        <time>2021-05-17T11:19:46Z</time>
      </trkpt>
      <trkpt lat="41.5998010" lon="-8.7828560">
        <ele>41.3</ele>
        <time>2021-05-17T11:19:47Z</time>
      </trkpt>
      <trkpt lat="41.5998150" lon="-8.7828640">
        <ele>41.3</ele>
        <time>2021-05-17T11:19:48Z</time>
      </trkpt>
      <trkpt lat="41.5998280" lon="-8.7828710">
        <ele>41.3</ele>
        <time>2021-05-17T11:19:49Z</time>
      </trkpt>
      <trkpt lat="41.5998400" lon="-8.7828830">
        <ele>41.3</ele>
        <time>2021-05-17T11:19:50Z</time>
      </trkpt>
      <trkpt lat="41.5998550" lon="-8.7828770">
        <ele>41.3</ele>
        <time>2021-05-17T11:19:51Z</time>
      </trkpt>
      <trkpt lat="41.5998700" lon="-8.7828790">
        <ele>41.3</ele>
        <time>2021-05-17T11:19:52Z</time>
      </trkpt>
      <trkpt lat="41.5998850" lon="-8.7828820">
        <ele>41.3</ele>
        <time>2021-05-17T11:19:53Z</time>
      </trkpt>
      <trkpt lat="41.5998960" lon="-8.7828920">
        <ele>41.3</ele>
        <time>2021-05-17T11:19:54Z</time>
      </trkpt>
      <trkpt lat="41.5999080" lon="-8.7828870">
        <ele>41.3</ele>
        <time>2021-05-17T11:19:55Z</time>
      </trkpt>
      <trkpt lat="41.5999210" lon="-8.7828850">
        <ele>41.3</ele>
        <time>2021-05-17T11:19:56Z</time>
      </trkpt>
      <trkpt lat="41.5999310" lon="-8.7828830">
        <ele>41.3</ele>
        <time>2021-05-17T11:19:57Z</time>
      </trkpt>
      <trkpt lat="41.5999440" lon="-8.7828900">
        <ele>41.3</ele>
        <time>2021-05-17T11:19:58Z</time>
      </trkpt>
      <trkpt lat="41.5999550" lon="-8.7828950">
        <ele>41.3</ele>
        <time>2021-05-17T11:19:59Z</time>
      </trkpt>
      <trkpt lat="41.5999650" lon="-8.7828970">
        <ele>41.3</ele>
        <time>2021-05-17T11:20:00Z</time>
      </trkpt>
      <trkpt lat="41.5999850" lon="-8.7828970">
        <ele>41.3</ele>
        <time>2021-05-17T11:20:01Z</time>
      </trkpt>
      <trkpt lat="41.5999950" lon="-8.7828940">
        <ele>41.3</ele>
        <time>2021-05-17T11:20:02Z</time>
      </trkpt>
      <trkpt lat="41.6000040" lon="-8.7828920">
        <ele>41.3</ele>
        <time>2021-05-17T11:20:03Z</time>
      </trkpt>
      <trkpt lat="41.6000170" lon="-8.7828950">
        <ele>41.3</ele>
        <time>2021-05-17T11:20:04Z</time>
      </trkpt>
      <trkpt lat="41.6000320" lon="-8.7828970">
        <ele>41.3</ele>
        <time>2021-05-17T11:20:05Z</time>
      </trkpt>
      <trkpt lat="41.6000470" lon="-8.7828990">
        <ele>41.3</ele>
        <time>2021-05-17T11:20:06Z</time>
      </trkpt>
      <trkpt lat="41.6000610" lon="-8.7829060">
        <ele>41.3</ele>
        <time>2021-05-17T11:20:07Z</time>
      </trkpt>
      <trkpt lat="41.6000750" lon="-8.7829110">
        <ele>41.3</ele>
        <time>2021-05-17T11:20:08Z</time>
      </trkpt>
      <trkpt lat="41.6000880" lon="-8.7829140">
        <ele>41.3</ele>
        <time>2021-05-17T11:20:09Z</time>
      </trkpt>
      <trkpt lat="41.6001020" lon="-8.7829150">
        <ele>41.3</ele>
        <time>2021-05-17T11:20:10Z</time>
      </trkpt>
      <trkpt lat="41.6001150" lon="-8.7829230">
        <ele>41.3</ele>
        <time>2021-05-17T11:20:11Z</time>
      </trkpt>
      <trkpt lat="41.6001280" lon="-8.7829390">
        <ele>41.3</ele>
        <time>2021-05-17T11:20:12Z</time>
      </trkpt>
      <trkpt lat="41.6001440" lon="-8.7829410">
        <ele>41.2</ele>
        <time>2021-05-17T11:20:13Z</time>
      </trkpt>
      <trkpt lat="41.6001620" lon="-8.7829320">
        <ele>41.2</ele>
        <time>2021-05-17T11:20:14Z</time>
      </trkpt>
      <trkpt lat="41.6001780" lon="-8.7829270">
        <ele>41.2</ele>
        <time>2021-05-17T11:20:15Z</time>
      </trkpt>
      <trkpt lat="41.6001920" lon="-8.7829300">
        <ele>41.2</ele>
        <time>2021-05-17T11:20:16Z</time>
      </trkpt>
      <trkpt lat="41.6002070" lon="-8.7829300">
        <ele>41.2</ele>
        <time>2021-05-17T11:20:17Z</time>
      </trkpt>
      <trkpt lat="41.6002230" lon="-8.7829310">
        <ele>41.2</ele>
        <time>2021-05-17T11:20:18Z</time>
      </trkpt>
      <trkpt lat="41.6002380" lon="-8.7829330">
        <ele>41.1</ele>
        <time>2021-05-17T11:20:19Z</time>
      </trkpt>
      <trkpt lat="41.6002520" lon="-8.7829350">
        <ele>41.1</ele>
        <time>2021-05-17T11:20:20Z</time>
      </trkpt>
      <trkpt lat="41.6002650" lon="-8.7829350">
        <ele>41.1</ele>
        <time>2021-05-17T11:20:21Z</time>
      </trkpt>
      <trkpt lat="41.6002810" lon="-8.7829410">
        <ele>41.1</ele>
        <time>2021-05-17T11:20:22Z</time>
      </trkpt>
      <trkpt lat="41.6002960" lon="-8.7829380">
        <ele>41.1</ele>
        <time>2021-05-17T11:20:23Z</time>
      </trkpt>
      <trkpt lat="41.6003110" lon="-8.7829350">
        <ele>41.0</ele>
        <time>2021-05-17T11:20:24Z</time>
      </trkpt>
      <trkpt lat="41.6003220" lon="-8.7829510">
        <ele>41.0</ele>
        <time>2021-05-17T11:20:25Z</time>
      </trkpt>
      <trkpt lat="41.6003470" lon="-8.7829360">
        <ele>41.0</ele>
        <time>2021-05-17T11:20:26Z</time>
      </trkpt>
      <trkpt lat="41.6003560" lon="-8.7829290">
        <ele>41.0</ele>
        <time>2021-05-17T11:20:27Z</time>
      </trkpt>
      <trkpt lat="41.6003710" lon="-8.7829260">
        <ele>41.0</ele>
        <time>2021-05-17T11:20:28Z</time>
      </trkpt>
      <trkpt lat="41.6003860" lon="-8.7829190">
        <ele>40.9</ele>
        <time>2021-05-17T11:20:29Z</time>
      </trkpt>
      <trkpt lat="41.6004010" lon="-8.7829190">
        <ele>40.9</ele>
        <time>2021-05-17T11:20:30Z</time>
      </trkpt>
      <trkpt lat="41.6004130" lon="-8.7829170">
        <ele>40.9</ele>
        <time>2021-05-17T11:20:31Z</time>
      </trkpt>
      <trkpt lat="41.6004170" lon="-8.7829200">
        <ele>40.9</ele>
        <time>2021-05-17T11:20:32Z</time>
      </trkpt>
      <trkpt lat="41.6004260" lon="-8.7829190">
        <ele>40.9</ele>
        <time>2021-05-17T11:20:33Z</time>
      </trkpt>
      <trkpt lat="41.6004340" lon="-8.7829260">
        <ele>40.9</ele>
        <time>2021-05-17T11:20:34Z</time>
      </trkpt>
      <trkpt lat="41.6004430" lon="-8.7829310">
        <ele>40.9</ele>
        <time>2021-05-17T11:20:35Z</time>
      </trkpt>
      <trkpt lat="41.6004560" lon="-8.7829290">
        <ele>40.9</ele>
        <time>2021-05-17T11:20:36Z</time>
      </trkpt>
      <trkpt lat="41.6004610" lon="-8.7829340">
        <ele>40.9</ele>
        <time>2021-05-17T11:20:37Z</time>
      </trkpt>
      <trkpt lat="41.6004710" lon="-8.7829330">
        <ele>40.8</ele>
        <time>2021-05-17T11:20:38Z</time>
      </trkpt>
      <trkpt lat="41.6004800" lon="-8.7829340">
        <ele>40.8</ele>
        <time>2021-05-17T11:20:39Z</time>
      </trkpt>
      <trkpt lat="41.6004880" lon="-8.7829290">
        <ele>40.8</ele>
        <time>2021-05-17T11:20:40Z</time>
      </trkpt>
      <trkpt lat="41.6004940" lon="-8.7829290">
        <ele>40.8</ele>
        <time>2021-05-17T11:20:41Z</time>
      </trkpt>
      <trkpt lat="41.6005020" lon="-8.7829360">
        <ele>40.8</ele>
        <time>2021-05-17T11:20:42Z</time>
      </trkpt>
      <trkpt lat="41.6005160" lon="-8.7829510">
        <ele>40.8</ele>
        <time>2021-05-17T11:20:43Z</time>
      </trkpt>
      <trkpt lat="41.6005200" lon="-8.7829440">
        <ele>40.8</ele>
        <time>2021-05-17T11:20:44Z</time>
      </trkpt>
      <trkpt lat="41.6005270" lon="-8.7829580">
        <ele>40.8</ele>
        <time>2021-05-17T11:20:45Z</time>
      </trkpt>
      <trkpt lat="41.6005320" lon="-8.7829550">
        <ele>40.8</ele>
        <time>2021-05-17T11:20:46Z</time>
      </trkpt>
      <trkpt lat="41.6005410" lon="-8.7829470">
        <ele>40.8</ele>
        <time>2021-05-17T11:20:47Z</time>
      </trkpt>
      <trkpt lat="41.6005510" lon="-8.7829500">
        <ele>40.8</ele>
        <time>2021-05-17T11:20:48Z</time>
      </trkpt>
      <trkpt lat="41.6005570" lon="-8.7829460">
        <ele>40.8</ele>
        <time>2021-05-17T11:20:49Z</time>
      </trkpt>
      <trkpt lat="41.6005670" lon="-8.7829480">
        <ele>40.8</ele>
        <time>2021-05-17T11:20:50Z</time>
      </trkpt>
      <trkpt lat="41.6005730" lon="-8.7829490">
        <ele>40.8</ele>
        <time>2021-05-17T11:20:51Z</time>
      </trkpt>
      <trkpt lat="41.6005840" lon="-8.7829510">
        <ele>40.8</ele>
        <time>2021-05-17T11:20:52Z</time>
      </trkpt>
      <trkpt lat="41.6005940" lon="-8.7829530">
        <ele>40.8</ele>
        <time>2021-05-17T11:20:53Z</time>
      </trkpt>
      <trkpt lat="41.6005970" lon="-8.7829530">
        <ele>40.8</ele>
        <time>2021-05-17T11:20:54Z</time>
      </trkpt>
      <trkpt lat="41.6006050" lon="-8.7829560">
        <ele>40.8</ele>
        <time>2021-05-17T11:20:55Z</time>
      </trkpt>
      <trkpt lat="41.6006180" lon="-8.7829580">
        <ele>40.8</ele>
        <time>2021-05-17T11:20:56Z</time>
      </trkpt>
      <trkpt lat="41.6006230" lon="-8.7829480">
        <ele>40.8</ele>
        <time>2021-05-17T11:20:57Z</time>
      </trkpt>
      <trkpt lat="41.6006340" lon="-8.7829520">
        <ele>40.8</ele>
        <time>2021-05-17T11:20:58Z</time>
      </trkpt>
      <trkpt lat="41.6006470" lon="-8.7829560">
        <ele>40.8</ele>
        <time>2021-05-17T11:20:59Z</time>
      </trkpt>
      <trkpt lat="41.6006620" lon="-8.7829680">
        <ele>40.8</ele>
        <time>2021-05-17T11:21:00Z</time>
      </trkpt>
      <trkpt lat="41.6006710" lon="-8.7829660">
        <ele>40.9</ele>
        <time>2021-05-17T11:21:01Z</time>
      </trkpt>
      <trkpt lat="41.6006780" lon="-8.7829640">
        <ele>40.9</ele>
        <time>2021-05-17T11:21:02Z</time>
      </trkpt>
      <trkpt lat="41.6006850" lon="-8.7829570">
        <ele>40.9</ele>
        <time>2021-05-17T11:21:03Z</time>
      </trkpt>
      <trkpt lat="41.6006930" lon="-8.7829550">
        <ele>40.9</ele>
        <time>2021-05-17T11:21:04Z</time>
      </trkpt>
      <trkpt lat="41.6007040" lon="-8.7829530">
        <ele>40.9</ele>
        <time>2021-05-17T11:21:05Z</time>
      </trkpt>
      <trkpt lat="41.6007240" lon="-8.7829470">
        <ele>40.9</ele>
        <time>2021-05-17T11:21:06Z</time>
      </trkpt>
      <trkpt lat="41.6007330" lon="-8.7829460">
        <ele>40.9</ele>
        <time>2021-05-17T11:21:07Z</time>
      </trkpt>
      <trkpt lat="41.6007410" lon="-8.7829440">
        <ele>40.9</ele>
        <time>2021-05-17T11:21:08Z</time>
      </trkpt>
      <trkpt lat="41.6007450" lon="-8.7829400">
        <ele>40.9</ele>
        <time>2021-05-17T11:21:09Z</time>
      </trkpt>
      <trkpt lat="41.6007530" lon="-8.7829410">
        <ele>40.9</ele>
        <time>2021-05-17T11:21:10Z</time>
      </trkpt>
      <trkpt lat="41.6007660" lon="-8.7829410">
        <ele>40.9</ele>
        <time>2021-05-17T11:21:11Z</time>
      </trkpt>
      <trkpt lat="41.6007720" lon="-8.7829450">
        <ele>40.9</ele>
        <time>2021-05-17T11:21:12Z</time>
      </trkpt>
      <trkpt lat="41.6007860" lon="-8.7829390">
        <ele>41.0</ele>
        <time>2021-05-17T11:21:13Z</time>
      </trkpt>
      <trkpt lat="41.6008000" lon="-8.7829380">
        <ele>41.0</ele>
        <time>2021-05-17T11:21:14Z</time>
      </trkpt>
      <trkpt lat="41.6008090" lon="-8.7829350">
        <ele>41.0</ele>
        <time>2021-05-17T11:21:15Z</time>
      </trkpt>
      <trkpt lat="41.6008200" lon="-8.7829310">
        <ele>41.0</ele>
        <time>2021-05-17T11:21:16Z</time>
      </trkpt>
      <trkpt lat="41.6008270" lon="-8.7829250">
        <ele>41.0</ele>
        <time>2021-05-17T11:21:17Z</time>
      </trkpt>
      <trkpt lat="41.6008470" lon="-8.7829120">
        <ele>41.1</ele>
        <time>2021-05-17T11:21:18Z</time>
      </trkpt>
      <trkpt lat="41.6008600" lon="-8.7829130">
        <ele>41.1</ele>
        <time>2021-05-17T11:21:19Z</time>
      </trkpt>
      <trkpt lat="41.6008730" lon="-8.7829130">
        <ele>41.1</ele>
        <time>2021-05-17T11:21:20Z</time>
      </trkpt>
      <trkpt lat="41.6008820" lon="-8.7829170">
        <ele>41.1</ele>
        <time>2021-05-17T11:21:21Z</time>
      </trkpt>
      <trkpt lat="41.6008920" lon="-8.7829210">
        <ele>41.1</ele>
        <time>2021-05-17T11:21:22Z</time>
      </trkpt>
      <trkpt lat="41.6009030" lon="-8.7829190">
        <ele>41.1</ele>
        <time>2021-05-17T11:21:23Z</time>
      </trkpt>
      <trkpt lat="41.6009230" lon="-8.7829050">
        <ele>41.2</ele>
        <time>2021-05-17T11:21:24Z</time>
      </trkpt>
      <trkpt lat="41.6009370" lon="-8.7829070">
        <ele>41.2</ele>
        <time>2021-05-17T11:21:25Z</time>
      </trkpt>
      <trkpt lat="41.6009560" lon="-8.7829040">
        <ele>41.3</ele>
        <time>2021-05-17T11:21:26Z</time>
      </trkpt>
      <trkpt lat="41.6009720" lon="-8.7829210">
        <ele>41.3</ele>
        <time>2021-05-17T11:21:27Z</time>
      </trkpt>
      <trkpt lat="41.6009900" lon="-8.7829190">
        <ele>41.3</ele>
        <time>2021-05-17T11:21:28Z</time>
      </trkpt>
      <trkpt lat="41.6010100" lon="-8.7829130">
        <ele>41.4</ele>
        <time>2021-05-17T11:21:29Z</time>
      </trkpt>
      <trkpt lat="41.6010210" lon="-8.7829160">
        <ele>41.4</ele>
        <time>2021-05-17T11:21:30Z</time>
      </trkpt>
      <trkpt lat="41.6010410" lon="-8.7829030">
        <ele>41.5</ele>
        <time>2021-05-17T11:21:31Z</time>
      </trkpt>
      <trkpt lat="41.6010450" lon="-8.7828940">
        <ele>41.5</ele>
        <time>2021-05-17T11:21:32Z</time>
      </trkpt>
      <trkpt lat="41.6010720" lon="-8.7828870">
        <ele>41.6</ele>
        <time>2021-05-17T11:21:33Z</time>
      </trkpt>
      <trkpt lat="41.6010810" lon="-8.7828860">
        <ele>41.6</ele>
        <time>2021-05-17T11:21:34Z</time>
      </trkpt>
      <trkpt lat="41.6011060" lon="-8.7828680">
        <ele>41.7</ele>
        <time>2021-05-17T11:21:35Z</time>
      </trkpt>
      <trkpt lat="41.6011180" lon="-8.7828580">
        <ele>41.8</ele>
        <time>2021-05-17T11:21:36Z</time>
      </trkpt>
      <trkpt lat="41.6011350" lon="-8.7828500">
        <ele>41.8</ele>
        <time>2021-05-17T11:21:37Z</time>
      </trkpt>
      <trkpt lat="41.6011520" lon="-8.7828420">
        <ele>41.9</ele>
        <time>2021-05-17T11:21:38Z</time>
      </trkpt>
      <trkpt lat="41.6011680" lon="-8.7828400">
        <ele>42.0</ele>
        <time>2021-05-17T11:21:39Z</time>
      </trkpt>
      <trkpt lat="41.6011780" lon="-8.7828190">
        <ele>42.0</ele>
        <time>2021-05-17T11:21:40Z</time>
      </trkpt>
      <trkpt lat="41.6011940" lon="-8.7828140">
        <ele>42.1</ele>
        <time>2021-05-17T11:21:41Z</time>
      </trkpt>
      <trkpt lat="41.6012070" lon="-8.7828010">
        <ele>42.2</ele>
        <time>2021-05-17T11:21:42Z</time>
      </trkpt>
      <trkpt lat="41.6012200" lon="-8.7827920">
        <ele>42.2</ele>
        <time>2021-05-17T11:21:43Z</time>
      </trkpt>
      <trkpt lat="41.6012330" lon="-8.7827860">
        <ele>42.3</ele>
        <time>2021-05-17T11:21:44Z</time>
      </trkpt>
      <trkpt lat="41.6012370" lon="-8.7827800">
        <ele>42.3</ele>
        <time>2021-05-17T11:21:45Z</time>
      </trkpt>
      <trkpt lat="41.6012410" lon="-8.7827680">
        <ele>42.4</ele>
        <time>2021-05-17T11:21:46Z</time>
      </trkpt>
      <trkpt lat="41.6012530" lon="-8.7827650">
        <ele>42.4</ele>
        <time>2021-05-17T11:21:47Z</time>
      </trkpt>
      <trkpt lat="41.6012550" lon="-8.7827490">
        <ele>42.5</ele>
        <time>2021-05-17T11:21:48Z</time>
      </trkpt>
      <trkpt lat="41.6012700" lon="-8.7827350">
        <ele>42.6</ele>
        <time>2021-05-17T11:21:49Z</time>
      </trkpt>
      <trkpt lat="41.6012820" lon="-8.7827250">
        <ele>42.7</ele>
        <time>2021-05-17T11:21:50Z</time>
      </trkpt>
      <trkpt lat="41.6012950" lon="-8.7827210">
        <ele>42.7</ele>
        <time>2021-05-17T11:21:51Z</time>
      </trkpt>
      <trkpt lat="41.6013000" lon="-8.7827170">
        <ele>42.8</ele>
        <time>2021-05-17T11:21:52Z</time>
      </trkpt>
      <trkpt lat="41.6013110" lon="-8.7827040">
        <ele>42.9</ele>
        <time>2021-05-17T11:21:53Z</time>
      </trkpt>
      <trkpt lat="41.6013210" lon="-8.7826980">
        <ele>42.9</ele>
        <time>2021-05-17T11:21:54Z</time>
      </trkpt>
      <trkpt lat="41.6013340" lon="-8.7826900">
        <ele>43.0</ele>
        <time>2021-05-17T11:21:55Z</time>
      </trkpt>
      <trkpt lat="41.6013420" lon="-8.7826800">
        <ele>43.1</ele>
        <time>2021-05-17T11:21:56Z</time>
      </trkpt>
      <trkpt lat="41.6013600" lon="-8.7826670">
        <ele>43.2</ele>
        <time>2021-05-17T11:21:57Z</time>
      </trkpt>
      <trkpt lat="41.6013680" lon="-8.7826630">
        <ele>43.2</ele>
        <time>2021-05-17T11:21:58Z</time>
      </trkpt>
      <trkpt lat="41.6013750" lon="-8.7826580">
        <ele>43.3</ele>
        <time>2021-05-17T11:21:59Z</time>
      </trkpt>
      <trkpt lat="41.6013860" lon="-8.7826500">
        <ele>43.4</ele>
        <time>2021-05-17T11:22:00Z</time>
      </trkpt>
      <trkpt lat="41.6014010" lon="-8.7826400">
        <ele>43.4</ele>
        <time>2021-05-17T11:22:01Z</time>
      </trkpt>
      <trkpt lat="41.6014160" lon="-8.7826210">
        <ele>43.6</ele>
        <time>2021-05-17T11:22:02Z</time>
      </trkpt>
      <trkpt lat="41.6014220" lon="-8.7826140">
        <ele>43.6</ele>
        <time>2021-05-17T11:22:03Z</time>
      </trkpt>
      <trkpt lat="41.6014290" lon="-8.7826070">
        <ele>43.7</ele>
        <time>2021-05-17T11:22:04Z</time>
      </trkpt>
      <trkpt lat="41.6014490" lon="-8.7825900">
        <ele>43.8</ele>
        <time>2021-05-17T11:22:05Z</time>
      </trkpt>
      <trkpt lat="41.6014540" lon="-8.7825820">
        <ele>43.8</ele>
        <time>2021-05-17T11:22:06Z</time>
      </trkpt>
      <trkpt lat="41.6014580" lon="-8.7825730">
        <ele>43.9</ele>
        <time>2021-05-17T11:22:07Z</time>
      </trkpt>
      <trkpt lat="41.6014690" lon="-8.7825710">
        <ele>44.0</ele>
        <time>2021-05-17T11:22:08Z</time>
      </trkpt>
      <trkpt lat="41.6014800" lon="-8.7825670">
        <ele>44.0</ele>
        <time>2021-05-17T11:22:09Z</time>
      </trkpt>
      <trkpt lat="41.6014880" lon="-8.7825540">
        <ele>44.1</ele>
        <time>2021-05-17T11:22:10Z</time>
      </trkpt>
      <trkpt lat="41.6015030" lon="-8.7825570">
        <ele>44.2</ele>
        <time>2021-05-17T11:22:11Z</time>
      </trkpt>
      <trkpt lat="41.6015150" lon="-8.7825570">
        <ele>44.2</ele>
        <time>2021-05-17T11:22:12Z</time>
      </trkpt>
      <trkpt lat="41.6015270" lon="-8.7825570">
        <ele>44.3</ele>
        <time>2021-05-17T11:22:13Z</time>
      </trkpt>
      <trkpt lat="41.6015530" lon="-8.7825450">
        <ele>44.4</ele>
        <time>2021-05-17T11:22:14Z</time>
      </trkpt>
      <trkpt lat="41.6015620" lon="-8.7825430">
        <ele>44.5</ele>
        <time>2021-05-17T11:22:15Z</time>
      </trkpt>
      <trkpt lat="41.6015790" lon="-8.7825380">
        <ele>44.6</ele>
        <time>2021-05-17T11:22:16Z</time>
      </trkpt>
      <trkpt lat="41.6015930" lon="-8.7825430">
        <ele>44.6</ele>
        <time>2021-05-17T11:22:17Z</time>
      </trkpt>
      <trkpt lat="41.6016080" lon="-8.7825490">
        <ele>44.7</ele>
        <time>2021-05-17T11:22:18Z</time>
      </trkpt>
      <trkpt lat="41.6016160" lon="-8.7825540">
        <ele>44.8</ele>
        <time>2021-05-17T11:22:19Z</time>
      </trkpt>
      <trkpt lat="41.6016280" lon="-8.7825530">
        <ele>44.8</ele>
        <time>2021-05-17T11:22:20Z</time>
      </trkpt>
      <trkpt lat="41.6016340" lon="-8.7825500">
        <ele>44.8</ele>
        <time>2021-05-17T11:22:21Z</time>
      </trkpt>
      <trkpt lat="41.6016420" lon="-8.7825440">
        <ele>44.9</ele>
        <time>2021-05-17T11:22:22Z</time>
      </trkpt>
      <trkpt lat="41.6016560" lon="-8.7825490">
        <ele>44.9</ele>
        <time>2021-05-17T11:22:23Z</time>
      </trkpt>
      <trkpt lat="41.6016650" lon="-8.7825460">
        <ele>45.0</ele>
        <time>2021-05-17T11:22:24Z</time>
      </trkpt>
      <trkpt lat="41.6016720" lon="-8.7825480">
        <ele>45.0</ele>
        <time>2021-05-17T11:22:25Z</time>
      </trkpt>
      <trkpt lat="41.6016740" lon="-8.7825470">
        <ele>45.0</ele>
        <time>2021-05-17T11:22:26Z</time>
      </trkpt>
      <trkpt lat="41.6016790" lon="-8.7825520">
        <ele>45.0</ele>
        <time>2021-05-17T11:22:27Z</time>
      </trkpt>
      <trkpt lat="41.6016870" lon="-8.7825620">
        <ele>45.1</ele>
        <time>2021-05-17T11:22:28Z</time>
      </trkpt>
      <trkpt lat="41.6017050" lon="-8.7825630">
        <ele>45.2</ele>
        <time>2021-05-17T11:22:29Z</time>
      </trkpt>
      <trkpt lat="41.6017150" lon="-8.7825630">
        <ele>45.2</ele>
        <time>2021-05-17T11:22:30Z</time>
      </trkpt>
      <trkpt lat="41.6017250" lon="-8.7825620">
        <ele>45.2</ele>
        <time>2021-05-17T11:22:31Z</time>
      </trkpt>
      <trkpt lat="41.6017350" lon="-8.7825610">
        <ele>45.3</ele>
        <time>2021-05-17T11:22:32Z</time>
      </trkpt>
      <trkpt lat="41.6017630" lon="-8.7825590">
        <ele>45.4</ele>
        <time>2021-05-17T11:22:33Z</time>
      </trkpt>
      <trkpt lat="41.6017860" lon="-8.7825750">
        <ele>45.5</ele>
        <time>2021-05-17T11:22:34Z</time>
      </trkpt>
      <trkpt lat="41.6017940" lon="-8.7825810">
        <ele>45.5</ele>
        <time>2021-05-17T11:22:35Z</time>
      </trkpt>
      <trkpt lat="41.6018020" lon="-8.7825880">
        <ele>45.6</ele>
        <time>2021-05-17T11:22:36Z</time>
      </trkpt>
      <trkpt lat="41.6018230" lon="-8.7825900">
        <ele>45.6</ele>
        <time>2021-05-17T11:22:37Z</time>
      </trkpt>
      <trkpt lat="41.6018340" lon="-8.7825890">
        <ele>45.7</ele>
        <time>2021-05-17T11:22:38Z</time>
      </trkpt>
      <trkpt lat="41.6018450" lon="-8.7825890">
        <ele>45.7</ele>
        <time>2021-05-17T11:22:39Z</time>
      </trkpt>
      <trkpt lat="41.6018630" lon="-8.7825790">
        <ele>45.8</ele>
        <time>2021-05-17T11:22:40Z</time>
      </trkpt>
      <trkpt lat="41.6018720" lon="-8.7825730">
        <ele>45.8</ele>
        <time>2021-05-17T11:22:41Z</time>
      </trkpt>
      <trkpt lat="41.6018800" lon="-8.7825660">
        <ele>45.9</ele>
        <time>2021-05-17T11:22:42Z</time>
      </trkpt>
      <trkpt lat="41.6019060" lon="-8.7825640">
        <ele>46.0</ele>
        <time>2021-05-17T11:22:43Z</time>
      </trkpt>
      <trkpt lat="41.6019130" lon="-8.7825620">
        <ele>46.0</ele>
        <time>2021-05-17T11:22:44Z</time>
      </trkpt>
      <trkpt lat="41.6019290" lon="-8.7825590">
        <ele>46.1</ele>
        <time>2021-05-17T11:22:45Z</time>
      </trkpt>
      <trkpt lat="41.6019450" lon="-8.7825490">
        <ele>46.1</ele>
        <time>2021-05-17T11:22:46Z</time>
      </trkpt>
      <trkpt lat="41.6019670" lon="-8.7825370">
        <ele>46.2</ele>
        <time>2021-05-17T11:22:47Z</time>
      </trkpt>
      <trkpt lat="41.6019750" lon="-8.7825330">
        <ele>46.3</ele>
        <time>2021-05-17T11:22:48Z</time>
      </trkpt>
      <trkpt lat="41.6019820" lon="-8.7825280">
        <ele>46.3</ele>
        <time>2021-05-17T11:22:49Z</time>
      </trkpt>
      <trkpt lat="41.6019970" lon="-8.7825150">
        <ele>46.4</ele>
        <time>2021-05-17T11:22:50Z</time>
      </trkpt>
      <trkpt lat="41.6020090" lon="-8.7825100">
        <ele>46.4</ele>
        <time>2021-05-17T11:22:51Z</time>
      </trkpt>
      <trkpt lat="41.6020210" lon="-8.7825060">
        <ele>46.5</ele>
        <time>2021-05-17T11:22:52Z</time>
      </trkpt>
      <trkpt lat="41.6020400" lon="-8.7824970">
        <ele>46.6</ele>
        <time>2021-05-17T11:22:53Z</time>
      </trkpt>
      <trkpt lat="41.6020670" lon="-8.7824770">
        <ele>46.7</ele>
        <time>2021-05-17T11:22:54Z</time>
      </trkpt>
      <trkpt lat="41.6020750" lon="-8.7824690">
        <ele>46.8</ele>
        <time>2021-05-17T11:22:55Z</time>
      </trkpt>
      <trkpt lat="41.6020870" lon="-8.7824650">
        <ele>46.8</ele>
        <time>2021-05-17T11:22:56Z</time>
      </trkpt>
      <trkpt lat="41.6021020" lon="-8.7824490">
        <ele>46.9</ele>
        <time>2021-05-17T11:22:57Z</time>
      </trkpt>
      <trkpt lat="41.6021140" lon="-8.7824440">
        <ele>47.0</ele>
        <time>2021-05-17T11:22:58Z</time>
      </trkpt>
      <trkpt lat="41.6021190" lon="-8.7824490">
        <ele>47.0</ele>
        <time>2021-05-17T11:22:59Z</time>
      </trkpt>
      <trkpt lat="41.6021320" lon="-8.7824450">
        <ele>47.1</ele>
        <time>2021-05-17T11:23:00Z</time>
      </trkpt>
      <trkpt lat="41.6021500" lon="-8.7824370">
        <ele>47.2</ele>
        <time>2021-05-17T11:23:01Z</time>
      </trkpt>
      <trkpt lat="41.6021610" lon="-8.7824280">
        <ele>47.3</ele>
        <time>2021-05-17T11:23:02Z</time>
      </trkpt>
      <trkpt lat="41.6021780" lon="-8.7824270">
        <ele>47.4</ele>
        <time>2021-05-17T11:23:03Z</time>
      </trkpt>
      <trkpt lat="41.6021970" lon="-8.7824170">
        <ele>47.5</ele>
        <time>2021-05-17T11:23:04Z</time>
      </trkpt>
      <trkpt lat="41.6022100" lon="-8.7824150">
        <ele>47.6</ele>
        <time>2021-05-17T11:23:05Z</time>
      </trkpt>
      <trkpt lat="41.6022250" lon="-8.7824110">
        <ele>47.7</ele>
        <time>2021-05-17T11:23:06Z</time>
      </trkpt>
      <trkpt lat="41.6022440" lon="-8.7824090">
        <ele>47.8</ele>
        <time>2021-05-17T11:23:07Z</time>
      </trkpt>
      <trkpt lat="41.6022550" lon="-8.7824010">
        <ele>47.9</ele>
        <time>2021-05-17T11:23:08Z</time>
      </trkpt>
      <trkpt lat="41.6022750" lon="-8.7823760">
        <ele>48.1</ele>
        <time>2021-05-17T11:23:09Z</time>
      </trkpt>
      <trkpt lat="41.6022830" lon="-8.7823680">
        <ele>48.1</ele>
        <time>2021-05-17T11:23:10Z</time>
      </trkpt>
      <trkpt lat="41.6022890" lon="-8.7823580">
        <ele>48.2</ele>
        <time>2021-05-17T11:23:11Z</time>
      </trkpt>
      <trkpt lat="41.6023070" lon="-8.7823500">
        <ele>48.3</ele>
        <time>2021-05-17T11:23:12Z</time>
      </trkpt>
      <trkpt lat="41.6023150" lon="-8.7823410">
        <ele>48.4</ele>
        <time>2021-05-17T11:23:13Z</time>
      </trkpt>
      <trkpt lat="41.6023280" lon="-8.7823190">
        <ele>48.5</ele>
        <time>2021-05-17T11:23:14Z</time>
      </trkpt>
      <trkpt lat="41.6023380" lon="-8.7823070">
        <ele>48.6</ele>
        <time>2021-05-17T11:23:15Z</time>
      </trkpt>
      <trkpt lat="41.6023450" lon="-8.7822980">
        <ele>48.7</ele>
        <time>2021-05-17T11:23:16Z</time>
      </trkpt>
      <trkpt lat="41.6023520" lon="-8.7822880">
        <ele>48.8</ele>
        <time>2021-05-17T11:23:17Z</time>
      </trkpt>
      <trkpt lat="41.6023590" lon="-8.7822790">
        <ele>48.8</ele>
        <time>2021-05-17T11:23:18Z</time>
      </trkpt>
      <trkpt lat="41.6023670" lon="-8.7822700">
        <ele>48.9</ele>
        <time>2021-05-17T11:23:19Z</time>
      </trkpt>
      <trkpt lat="41.6023750" lon="-8.7822640">
        <ele>49.0</ele>
        <time>2021-05-17T11:23:20Z</time>
      </trkpt>
      <trkpt lat="41.6023840" lon="-8.7822480">
        <ele>49.1</ele>
        <time>2021-05-17T11:23:21Z</time>
      </trkpt>
      <trkpt lat="41.6023900" lon="-8.7822330">
        <ele>49.2</ele>
        <time>2021-05-17T11:23:22Z</time>
      </trkpt>
      <trkpt lat="41.6024050" lon="-8.7822180">
        <ele>49.3</ele>
        <time>2021-05-17T11:23:23Z</time>
      </trkpt>
      <trkpt lat="41.6024120" lon="-8.7822230">
        <ele>49.4</ele>
        <time>2021-05-17T11:23:24Z</time>
      </trkpt>
      <trkpt lat="41.6024300" lon="-8.7822180">
        <ele>49.5</ele>
        <time>2021-05-17T11:23:25Z</time>
      </trkpt>
      <trkpt lat="41.6024390" lon="-8.7822140">
        <ele>49.5</ele>
        <time>2021-05-17T11:23:26Z</time>
      </trkpt>
      <trkpt lat="41.6024540" lon="-8.7821960">
        <ele>49.7</ele>
        <time>2021-05-17T11:23:27Z</time>
      </trkpt>
      <trkpt lat="41.6024660" lon="-8.7821830">
        <ele>49.8</ele>
        <time>2021-05-17T11:23:28Z</time>
      </trkpt>
      <trkpt lat="41.6024790" lon="-8.7821810">
        <ele>49.9</ele>
        <time>2021-05-17T11:23:29Z</time>
      </trkpt>
      <trkpt lat="41.6024980" lon="-8.7821680">
        <ele>50.0</ele>
        <time>2021-05-17T11:23:30Z</time>
      </trkpt>
      <trkpt lat="41.6025020" lon="-8.7821620">
        <ele>50.0</ele>
        <time>2021-05-17T11:23:31Z</time>
      </trkpt>
      <trkpt lat="41.6025200" lon="-8.7821460">
        <ele>50.2</ele>
        <time>2021-05-17T11:23:32Z</time>
      </trkpt>
      <trkpt lat="41.6025360" lon="-8.7821330">
        <ele>50.3</ele>
        <time>2021-05-17T11:23:33Z</time>
      </trkpt>
      <trkpt lat="41.6025420" lon="-8.7821210">
        <ele>50.4</ele>
        <time>2021-05-17T11:23:34Z</time>
      </trkpt>
      <trkpt lat="41.6025490" lon="-8.7821100">
        <ele>50.4</ele>
        <time>2021-05-17T11:23:35Z</time>
      </trkpt>
      <trkpt lat="41.6025640" lon="-8.7820880">
        <ele>50.5</ele>
        <time>2021-05-17T11:23:36Z</time>
      </trkpt>
      <trkpt lat="41.6025720" lon="-8.7820770">
        <ele>50.6</ele>
        <time>2021-05-17T11:23:37Z</time>
      </trkpt>
      <trkpt lat="41.6025800" lon="-8.7820660">
        <ele>50.7</ele>
        <time>2021-05-17T11:23:38Z</time>
      </trkpt>
      <trkpt lat="41.6025870" lon="-8.7820590">
        <ele>50.7</ele>
        <time>2021-05-17T11:23:39Z</time>
      </trkpt>
      <trkpt lat="41.6025930" lon="-8.7820560">
        <ele>50.7</ele>
        <time>2021-05-17T11:23:40Z</time>
      </trkpt>
      <trkpt lat="41.6026030" lon="-8.7820480">
        <ele>50.8</ele>
        <time>2021-05-17T11:23:41Z</time>
      </trkpt>
      <trkpt lat="41.6026250" lon="-8.7820250">
        <ele>50.9</ele>
        <time>2021-05-17T11:23:42Z</time>
      </trkpt>
      <trkpt lat="41.6026370" lon="-8.7820170">
        <ele>51.0</ele>
        <time>2021-05-17T11:23:43Z</time>
      </trkpt>
      <trkpt lat="41.6026510" lon="-8.7820090">
        <ele>51.1</ele>
        <time>2021-05-17T11:23:44Z</time>
      </trkpt>
      <trkpt lat="41.6026650" lon="-8.7820000">
        <ele>51.1</ele>
        <time>2021-05-17T11:23:45Z</time>
      </trkpt>
      <trkpt lat="41.6026760" lon="-8.7819920">
        <ele>51.1</ele>
        <time>2021-05-17T11:23:46Z</time>
      </trkpt>
      <trkpt lat="41.6026870" lon="-8.7819840">
        <ele>51.2</ele>
        <time>2021-05-17T11:23:47Z</time>
      </trkpt>
      <trkpt lat="41.6027010" lon="-8.7819720">
        <ele>51.2</ele>
        <time>2021-05-17T11:23:48Z</time>
      </trkpt>
      <trkpt lat="41.6027020" lon="-8.7819720">
        <ele>51.2</ele>
        <time>2021-05-17T11:23:49Z</time>
      </trkpt>
      <trkpt lat="41.6027040" lon="-8.7819730">
        <ele>51.2</ele>
        <time>2021-05-17T11:23:50Z</time>
      </trkpt>
      <trkpt lat="41.6027050" lon="-8.7819740">
        <ele>51.2</ele>
        <time>2021-05-17T11:23:51Z</time>
      </trkpt>
      <trkpt lat="41.6027070" lon="-8.7819750">
        <ele>51.2</ele>
        <time>2021-05-17T11:23:52Z</time>
      </trkpt>
      <trkpt lat="41.6027080" lon="-8.7819750">
        <ele>51.3</ele>
        <time>2021-05-17T11:23:53Z</time>
      </trkpt>
      <trkpt lat="41.6027100" lon="-8.7819760">
        <ele>51.3</ele>
        <time>2021-05-17T11:23:54Z</time>
      </trkpt>
      <trkpt lat="41.6027110" lon="-8.7819770">
        <ele>51.3</ele>
        <time>2021-05-17T11:23:55Z</time>
      </trkpt>
      <trkpt lat="41.6027130" lon="-8.7819770">
        <ele>51.3</ele>
        <time>2021-05-17T11:23:56Z</time>
      </trkpt>
      <trkpt lat="41.6027140" lon="-8.7819780">
        <ele>51.3</ele>
        <time>2021-05-17T11:23:57Z</time>
      </trkpt>
      <trkpt lat="41.6027160" lon="-8.7819790">
        <ele>51.3</ele>
        <time>2021-05-17T11:23:58Z</time>
      </trkpt>
      <trkpt lat="41.6027170" lon="-8.7819790">
        <ele>51.3</ele>
        <time>2021-05-17T11:23:59Z</time>
      </trkpt>
      <trkpt lat="41.6027190" lon="-8.7819800">
        <ele>51.3</ele>
        <time>2021-05-17T11:24:00Z</time>
      </trkpt>
      <trkpt lat="41.6027200" lon="-8.7819810">
        <ele>51.3</ele>
        <time>2021-05-17T11:24:01Z</time>
      </trkpt>
      <trkpt lat="41.6027220" lon="-8.7819820">
        <ele>51.3</ele>
        <time>2021-05-17T11:24:02Z</time>
      </trkpt>
      <trkpt lat="41.6027230" lon="-8.7819820">
        <ele>51.3</ele>
        <time>2021-05-17T11:24:03Z</time>
      </trkpt>
      <trkpt lat="41.6027250" lon="-8.7819830">
        <ele>51.3</ele>
        <time>2021-05-17T11:24:04Z</time>
      </trkpt>
      <trkpt lat="41.6027300" lon="-8.7819770">
        <ele>51.3</ele>
        <time>2021-05-17T11:24:05Z</time>
      </trkpt>
      <trkpt lat="41.6027420" lon="-8.7819640">
        <ele>51.3</ele>
        <time>2021-05-17T11:24:06Z</time>
      </trkpt>
      <trkpt lat="41.6027530" lon="-8.7819550">
        <ele>51.4</ele>
        <time>2021-05-17T11:24:07Z</time>
      </trkpt>
      <trkpt lat="41.6027670" lon="-8.7819360">
        <ele>51.4</ele>
        <time>2021-05-17T11:24:08Z</time>
      </trkpt>
      <trkpt lat="41.6027790" lon="-8.7819290">
        <ele>51.4</ele>
        <time>2021-05-17T11:24:09Z</time>
      </trkpt>
      <trkpt lat="41.6027980" lon="-8.7819160">
        <ele>51.5</ele>
        <time>2021-05-17T11:24:10Z</time>
      </trkpt>
      <trkpt lat="41.6028010" lon="-8.7819100">
        <ele>51.5</ele>
        <time>2021-05-17T11:24:11Z</time>
      </trkpt>
      <trkpt lat="41.6028030" lon="-8.7819030">
        <ele>51.5</ele>
        <time>2021-05-17T11:24:12Z</time>
      </trkpt>
      <trkpt lat="41.6028180" lon="-8.7818900">
        <ele>51.5</ele>
        <time>2021-05-17T11:24:13Z</time>
      </trkpt>
      <trkpt lat="41.6028330" lon="-8.7818790">
        <ele>51.5</ele>
        <time>2021-05-17T11:24:14Z</time>
      </trkpt>
      <trkpt lat="41.6028420" lon="-8.7818730">
        <ele>51.5</ele>
        <time>2021-05-17T11:24:15Z</time>
      </trkpt>
      <trkpt lat="41.6028480" lon="-8.7818640">
        <ele>51.5</ele>
        <time>2021-05-17T11:24:16Z</time>
      </trkpt>
      <trkpt lat="41.6028610" lon="-8.7818580">
        <ele>51.5</ele>
        <time>2021-05-17T11:24:17Z</time>
      </trkpt>
      <trkpt lat="41.6028800" lon="-8.7818470">
        <ele>51.5</ele>
        <time>2021-05-17T11:24:18Z</time>
      </trkpt>
      <trkpt lat="41.6028870" lon="-8.7818420">
        <ele>51.5</ele>
        <time>2021-05-17T11:24:19Z</time>
      </trkpt>
      <trkpt lat="41.6028940" lon="-8.7818380">
        <ele>51.5</ele>
        <time>2021-05-17T11:24:20Z</time>
      </trkpt>
      <trkpt lat="41.6029050" lon="-8.7818280">
        <ele>51.5</ele>
        <time>2021-05-17T11:24:21Z</time>
      </trkpt>
      <trkpt lat="41.6029210" lon="-8.7818160">
        <ele>51.5</ele>
        <time>2021-05-17T11:24:22Z</time>
      </trkpt>
      <trkpt lat="41.6029330" lon="-8.7818060">
        <ele>51.5</ele>
        <time>2021-05-17T11:24:23Z</time>
      </trkpt>
      <trkpt lat="41.6029370" lon="-8.7817980">
        <ele>51.5</ele>
        <time>2021-05-17T11:24:24Z</time>
      </trkpt>
      <trkpt lat="41.6029410" lon="-8.7817840">
        <ele>51.5</ele>
        <time>2021-05-17T11:24:25Z</time>
      </trkpt>
      <trkpt lat="41.6029510" lon="-8.7817830">
        <ele>51.5</ele>
        <time>2021-05-17T11:24:26Z</time>
      </trkpt>
      <trkpt lat="41.6029660" lon="-8.7817730">
        <ele>51.5</ele>
        <time>2021-05-17T11:24:27Z</time>
      </trkpt>
      <trkpt lat="41.6029710" lon="-8.7817580">
        <ele>51.5</ele>
        <time>2021-05-17T11:24:28Z</time>
      </trkpt>
      <trkpt lat="41.6029800" lon="-8.7817480">
        <ele>51.5</ele>
        <time>2021-05-17T11:24:29Z</time>
      </trkpt>
      <trkpt lat="41.6029880" lon="-8.7817420">
        <ele>51.5</ele>
        <time>2021-05-17T11:24:30Z</time>
      </trkpt>
      <trkpt lat="41.6029990" lon="-8.7817390">
        <ele>51.5</ele>
        <time>2021-05-17T11:24:31Z</time>
      </trkpt>
      <trkpt lat="41.6030160" lon="-8.7817300">
        <ele>51.5</ele>
        <time>2021-05-17T11:24:32Z</time>
      </trkpt>
      <trkpt lat="41.6030290" lon="-8.7817200">
        <ele>51.5</ele>
        <time>2021-05-17T11:24:33Z</time>
      </trkpt>
      <trkpt lat="41.6030400" lon="-8.7817050">
        <ele>51.5</ele>
        <time>2021-05-17T11:24:34Z</time>
      </trkpt>
      <trkpt lat="41.6030500" lon="-8.7816950">
        <ele>51.5</ele>
        <time>2021-05-17T11:24:35Z</time>
      </trkpt>
      <trkpt lat="41.6030610" lon="-8.7816770">
        <ele>51.5</ele>
        <time>2021-05-17T11:24:36Z</time>
      </trkpt>
      <trkpt lat="41.6030780" lon="-8.7816650">
        <ele>51.5</ele>
        <time>2021-05-17T11:24:37Z</time>
      </trkpt>
      <trkpt lat="41.6030970" lon="-8.7816530">
        <ele>51.5</ele>
        <time>2021-05-17T11:24:38Z</time>
      </trkpt>
      <trkpt lat="41.6031090" lon="-8.7816490">
        <ele>51.4</ele>
        <time>2021-05-17T11:24:39Z</time>
      </trkpt>
      <trkpt lat="41.6031220" lon="-8.7816310">
        <ele>51.4</ele>
        <time>2021-05-17T11:24:40Z</time>
      </trkpt>
      <trkpt lat="41.6031430" lon="-8.7816320">
        <ele>51.4</ele>
        <time>2021-05-17T11:24:41Z</time>
      </trkpt>
      <trkpt lat="41.6031590" lon="-8.7816210">
        <ele>51.4</ele>
        <time>2021-05-17T11:24:42Z</time>
      </trkpt>
      <trkpt lat="41.6031740" lon="-8.7816150">
        <ele>51.4</ele>
        <time>2021-05-17T11:24:43Z</time>
      </trkpt>
      <trkpt lat="41.6031890" lon="-8.7815970">
        <ele>51.4</ele>
        <time>2021-05-17T11:24:44Z</time>
      </trkpt>
      <trkpt lat="41.6032030" lon="-8.7815920">
        <ele>51.4</ele>
        <time>2021-05-17T11:24:45Z</time>
      </trkpt>
      <trkpt lat="41.6032250" lon="-8.7815650">
        <ele>51.4</ele>
        <time>2021-05-17T11:24:46Z</time>
      </trkpt>
      <trkpt lat="41.6032320" lon="-8.7815610">
        <ele>51.4</ele>
        <time>2021-05-17T11:24:47Z</time>
      </trkpt>
      <trkpt lat="41.6032470" lon="-8.7815550">
        <ele>51.4</ele>
        <time>2021-05-17T11:24:48Z</time>
      </trkpt>
      <trkpt lat="41.6032600" lon="-8.7815430">
        <ele>51.4</ele>
        <time>2021-05-17T11:24:49Z</time>
      </trkpt>
      <trkpt lat="41.6032740" lon="-8.7815330">
        <ele>51.3</ele>
        <time>2021-05-17T11:24:50Z</time>
      </trkpt>
      <trkpt lat="41.6032910" lon="-8.7815210">
        <ele>51.3</ele>
        <time>2021-05-17T11:24:51Z</time>
      </trkpt>
      <trkpt lat="41.6033070" lon="-8.7815090">
        <ele>51.3</ele>
        <time>2021-05-17T11:24:52Z</time>
      </trkpt>
      <trkpt lat="41.6033180" lon="-8.7814940">
        <ele>51.3</ele>
        <time>2021-05-17T11:24:53Z</time>
      </trkpt>
      <trkpt lat="41.6033320" lon="-8.7814850">
        <ele>51.3</ele>
        <time>2021-05-17T11:24:54Z</time>
      </trkpt>
      <trkpt lat="41.6033440" lon="-8.7814730">
        <ele>51.3</ele>
        <time>2021-05-17T11:24:55Z</time>
      </trkpt>
      <trkpt lat="41.6033590" lon="-8.7814670">
        <ele>51.3</ele>
        <time>2021-05-17T11:24:56Z</time>
      </trkpt>
      <trkpt lat="41.6033710" lon="-8.7814560">
        <ele>51.3</ele>
        <time>2021-05-17T11:24:57Z</time>
      </trkpt>
      <trkpt lat="41.6033760" lon="-8.7814450">
        <ele>51.3</ele>
        <time>2021-05-17T11:24:58Z</time>
      </trkpt>
      <trkpt lat="41.6033770" lon="-8.7814410">
        <ele>51.3</ele>
        <time>2021-05-17T11:24:59Z</time>
      </trkpt>
      <trkpt lat="41.6033790" lon="-8.7814320">
        <ele>51.3</ele>
        <time>2021-05-17T11:25:00Z</time>
      </trkpt>
      <trkpt lat="41.6033840" lon="-8.7814240">
        <ele>51.3</ele>
        <time>2021-05-17T11:25:01Z</time>
      </trkpt>
      <trkpt lat="41.6033970" lon="-8.7814070">
        <ele>51.3</ele>
        <time>2021-05-17T11:25:02Z</time>
      </trkpt>
      <trkpt lat="41.6034040" lon="-8.7813970">
        <ele>51.3</ele>
        <time>2021-05-17T11:25:03Z</time>
      </trkpt>
      <trkpt lat="41.6034100" lon="-8.7813860">
        <ele>51.3</ele>
        <time>2021-05-17T11:25:04Z</time>
      </trkpt>
      <trkpt lat="41.6034290" lon="-8.7813640">
        <ele>51.2</ele>
        <time>2021-05-17T11:25:05Z</time>
      </trkpt>
      <trkpt lat="41.6034380" lon="-8.7813530">
        <ele>51.2</ele>
        <time>2021-05-17T11:25:06Z</time>
      </trkpt>
      <trkpt lat="41.6034520" lon="-8.7813490">
        <ele>51.2</ele>
        <time>2021-05-17T11:25:07Z</time>
      </trkpt>
      <trkpt lat="41.6034690" lon="-8.7813380">
        <ele>51.2</ele>
        <time>2021-05-17T11:25:08Z</time>
      </trkpt>
      <trkpt lat="41.6034830" lon="-8.7813310">
        <ele>51.2</ele>
        <time>2021-05-17T11:25:09Z</time>
      </trkpt>
      <trkpt lat="41.6034960" lon="-8.7813220">
        <ele>51.2</ele>
        <time>2021-05-17T11:25:10Z</time>
      </trkpt>
      <trkpt lat="41.6035100" lon="-8.7813140">
        <ele>51.2</ele>
        <time>2021-05-17T11:25:11Z</time>
      </trkpt>
      <trkpt lat="41.6035260" lon="-8.7813060">
        <ele>51.2</ele>
        <time>2021-05-17T11:25:12Z</time>
      </trkpt>
      <trkpt lat="41.6035370" lon="-8.7812990">
        <ele>51.2</ele>
        <time>2021-05-17T11:25:13Z</time>
      </trkpt>
      <trkpt lat="41.6035540" lon="-8.7812930">
        <ele>51.2</ele>
        <time>2021-05-17T11:25:14Z</time>
      </trkpt>
      <trkpt lat="41.6035660" lon="-8.7812900">
        <ele>51.2</ele>
        <time>2021-05-17T11:25:15Z</time>
      </trkpt>
      <trkpt lat="41.6035780" lon="-8.7812770">
        <ele>51.1</ele>
        <time>2021-05-17T11:25:16Z</time>
      </trkpt>
      <trkpt lat="41.6035950" lon="-8.7812680">
        <ele>51.1</ele>
        <time>2021-05-17T11:25:17Z</time>
      </trkpt>
      <trkpt lat="41.6036070" lon="-8.7812540">
        <ele>51.1</ele>
        <time>2021-05-17T11:25:18Z</time>
      </trkpt>
      <trkpt lat="41.6036190" lon="-8.7812480">
        <ele>51.1</ele>
        <time>2021-05-17T11:25:19Z</time>
      </trkpt>
      <trkpt lat="41.6036320" lon="-8.7812350">
        <ele>51.1</ele>
        <time>2021-05-17T11:25:20Z</time>
      </trkpt>
      <trkpt lat="41.6036480" lon="-8.7812250">
        <ele>51.1</ele>
        <time>2021-05-17T11:25:21Z</time>
      </trkpt>
      <trkpt lat="41.6036580" lon="-8.7812140">
        <ele>51.1</ele>
        <time>2021-05-17T11:25:22Z</time>
      </trkpt>
      <trkpt lat="41.6036680" lon="-8.7812010">
        <ele>51.1</ele>
        <time>2021-05-17T11:25:23Z</time>
      </trkpt>
      <trkpt lat="41.6036840" lon="-8.7811960">
        <ele>51.0</ele>
        <time>2021-05-17T11:25:24Z</time>
      </trkpt>
      <trkpt lat="41.6036950" lon="-8.7811810">
        <ele>51.0</ele>
        <time>2021-05-17T11:25:25Z</time>
      </trkpt>
      <trkpt lat="41.6037110" lon="-8.7811710">
        <ele>51.0</ele>
        <time>2021-05-17T11:25:26Z</time>
      </trkpt>
      <trkpt lat="41.6037250" lon="-8.7811610">
        <ele>51.0</ele>
        <time>2021-05-17T11:25:27Z</time>
      </trkpt>
      <trkpt lat="41.6037390" lon="-8.7811600">
        <ele>51.0</ele>
        <time>2021-05-17T11:25:28Z</time>
      </trkpt>
      <trkpt lat="41.6037530" lon="-8.7811490">
        <ele>51.0</ele>
        <time>2021-05-17T11:25:29Z</time>
      </trkpt>
      <trkpt lat="41.6037650" lon="-8.7811390">
        <ele>51.0</ele>
        <time>2021-05-17T11:25:30Z</time>
      </trkpt>
      <trkpt lat="41.6037760" lon="-8.7811280">
        <ele>51.0</ele>
        <time>2021-05-17T11:25:31Z</time>
      </trkpt>
      <trkpt lat="41.6037890" lon="-8.7811210">
        <ele>50.9</ele>
        <time>2021-05-17T11:25:32Z</time>
      </trkpt>
      <trkpt lat="41.6038040" lon="-8.7811110">
        <ele>50.9</ele>
        <time>2021-05-17T11:25:33Z</time>
      </trkpt>
      <trkpt lat="41.6038140" lon="-8.7810970">
        <ele>50.9</ele>
        <time>2021-05-17T11:25:34Z</time>
      </trkpt>
      <trkpt lat="41.6038320" lon="-8.7810850">
        <ele>50.9</ele>
        <time>2021-05-17T11:25:35Z</time>
      </trkpt>
      <trkpt lat="41.6038400" lon="-8.7810800">
        <ele>50.9</ele>
        <time>2021-05-17T11:25:36Z</time>
      </trkpt>
      <trkpt lat="41.6038480" lon="-8.7810740">
        <ele>50.9</ele>
        <time>2021-05-17T11:25:37Z</time>
      </trkpt>
      <trkpt lat="41.6038580" lon="-8.7810740">
        <ele>50.9</ele>
        <time>2021-05-17T11:25:38Z</time>
      </trkpt>
      <trkpt lat="41.6038690" lon="-8.7810620">
        <ele>50.9</ele>
        <time>2021-05-17T11:25:39Z</time>
      </trkpt>
      <trkpt lat="41.6038780" lon="-8.7810500">
        <ele>50.8</ele>
        <time>2021-05-17T11:25:40Z</time>
      </trkpt>
      <trkpt lat="41.6038960" lon="-8.7810400">
        <ele>50.8</ele>
        <time>2021-05-17T11:25:41Z</time>
      </trkpt>
      <trkpt lat="41.6039050" lon="-8.7810370">
        <ele>50.8</ele>
        <time>2021-05-17T11:25:42Z</time>
      </trkpt>
      <trkpt lat="41.6039130" lon="-8.7810350">
        <ele>50.8</ele>
        <time>2021-05-17T11:25:43Z</time>
      </trkpt>
      <trkpt lat="41.6039220" lon="-8.7810240">
        <ele>50.8</ele>
        <time>2021-05-17T11:25:44Z</time>
      </trkpt>
      <trkpt lat="41.6039350" lon="-8.7810170">
        <ele>50.8</ele>
        <time>2021-05-17T11:25:45Z</time>
      </trkpt>
      <trkpt lat="41.6039440" lon="-8.7810130">
        <ele>50.8</ele>
        <time>2021-05-17T11:25:46Z</time>
      </trkpt>
      <trkpt lat="41.6039530" lon="-8.7810090">
        <ele>50.8</ele>
        <time>2021-05-17T11:25:47Z</time>
      </trkpt>
      <trkpt lat="41.6039580" lon="-8.7810020">
        <ele>50.8</ele>
        <time>2021-05-17T11:25:48Z</time>
      </trkpt>
      <trkpt lat="41.6039700" lon="-8.7809950">
        <ele>50.8</ele>
        <time>2021-05-17T11:25:49Z</time>
      </trkpt>
      <trkpt lat="41.6039790" lon="-8.7809870">
        <ele>50.8</ele>
        <time>2021-05-17T11:25:50Z</time>
      </trkpt>
      <trkpt lat="41.6039870" lon="-8.7809800">
        <ele>50.8</ele>
        <time>2021-05-17T11:25:51Z</time>
      </trkpt>
      <trkpt lat="41.6039890" lon="-8.7809720">
        <ele>50.8</ele>
        <time>2021-05-17T11:25:52Z</time>
      </trkpt>
      <trkpt lat="41.6039940" lon="-8.7809590">
        <ele>50.8</ele>
        <time>2021-05-17T11:25:53Z</time>
      </trkpt>
      <trkpt lat="41.6040020" lon="-8.7809430">
        <ele>50.8</ele>
        <time>2021-05-17T11:25:54Z</time>
      </trkpt>
      <trkpt lat="41.6040140" lon="-8.7809320">
        <ele>50.8</ele>
        <time>2021-05-17T11:25:55Z</time>
      </trkpt>
      <trkpt lat="41.6040160" lon="-8.7809240">
        <ele>50.8</ele>
        <time>2021-05-17T11:25:56Z</time>
      </trkpt>
      <trkpt lat="41.6040230" lon="-8.7809210">
        <ele>50.8</ele>
        <time>2021-05-17T11:25:57Z</time>
      </trkpt>
      <trkpt lat="41.6040320" lon="-8.7809040">
        <ele>50.8</ele>
        <time>2021-05-17T11:25:58Z</time>
      </trkpt>
      <trkpt lat="41.6040440" lon="-8.7808940">
        <ele>50.7</ele>
        <time>2021-05-17T11:25:59Z</time>
      </trkpt>
      <trkpt lat="41.6040630" lon="-8.7808830">
        <ele>50.7</ele>
        <time>2021-05-17T11:26:00Z</time>
      </trkpt>
      <trkpt lat="41.6040740" lon="-8.7808770">
        <ele>50.7</ele>
        <time>2021-05-17T11:26:01Z</time>
      </trkpt>
      <trkpt lat="41.6040860" lon="-8.7808580">
        <ele>50.7</ele>
        <time>2021-05-17T11:26:02Z</time>
      </trkpt>
      <trkpt lat="41.6041010" lon="-8.7808550">
        <ele>50.7</ele>
        <time>2021-05-17T11:26:03Z</time>
      </trkpt>
      <trkpt lat="41.6041140" lon="-8.7808460">
        <ele>50.7</ele>
        <time>2021-05-17T11:26:04Z</time>
      </trkpt>
      <trkpt lat="41.6041230" lon="-8.7808380">
        <ele>50.7</ele>
        <time>2021-05-17T11:26:05Z</time>
      </trkpt>
      <trkpt lat="41.6041330" lon="-8.7808260">
        <ele>50.7</ele>
        <time>2021-05-17T11:26:06Z</time>
      </trkpt>
      <trkpt lat="41.6041390" lon="-8.7808220">
        <ele>50.7</ele>
        <time>2021-05-17T11:26:07Z</time>
      </trkpt>
      <trkpt lat="41.6041650" lon="-8.7808080">
        <ele>50.7</ele>
        <time>2021-05-17T11:26:08Z</time>
      </trkpt>
      <trkpt lat="41.6041790" lon="-8.7808130">
        <ele>50.7</ele>
        <time>2021-05-17T11:26:09Z</time>
      </trkpt>
      <trkpt lat="41.6041850" lon="-8.7808030">
        <ele>50.7</ele>
        <time>2021-05-17T11:26:10Z</time>
      </trkpt>
      <trkpt lat="41.6041980" lon="-8.7807940">
        <ele>50.7</ele>
        <time>2021-05-17T11:26:11Z</time>
      </trkpt>
      <trkpt lat="41.6042020" lon="-8.7807900">
        <ele>50.7</ele>
        <time>2021-05-17T11:26:12Z</time>
      </trkpt>
      <trkpt lat="41.6042120" lon="-8.7807820">
        <ele>50.6</ele>
        <time>2021-05-17T11:26:13Z</time>
      </trkpt>
      <trkpt lat="41.6042210" lon="-8.7807670">
        <ele>50.6</ele>
        <time>2021-05-17T11:26:14Z</time>
      </trkpt>
      <trkpt lat="41.6042340" lon="-8.7807540">
        <ele>50.6</ele>
        <time>2021-05-17T11:26:15Z</time>
      </trkpt>
      <trkpt lat="41.6042420" lon="-8.7807470">
        <ele>50.6</ele>
        <time>2021-05-17T11:26:16Z</time>
      </trkpt>
      <trkpt lat="41.6042500" lon="-8.7807410">
        <ele>50.6</ele>
        <time>2021-05-17T11:26:17Z</time>
      </trkpt>
      <trkpt lat="41.6042590" lon="-8.7807310">
        <ele>50.6</ele>
        <time>2021-05-17T11:26:18Z</time>
      </trkpt>
      <trkpt lat="41.6042680" lon="-8.7807210">
        <ele>50.6</ele>
        <time>2021-05-17T11:26:19Z</time>
      </trkpt>
      <trkpt lat="41.6042760" lon="-8.7807150">
        <ele>50.6</ele>
        <time>2021-05-17T11:26:20Z</time>
      </trkpt>
      <trkpt lat="41.6042860" lon="-8.7807160">
        <ele>50.6</ele>
        <time>2021-05-17T11:26:21Z</time>
      </trkpt>
      <trkpt lat="41.6042960" lon="-8.7807090">
        <ele>50.6</ele>
        <time>2021-05-17T11:26:22Z</time>
      </trkpt>
      <trkpt lat="41.6043010" lon="-8.7806950">
        <ele>50.6</ele>
        <time>2021-05-17T11:26:23Z</time>
      </trkpt>
      <trkpt lat="41.6043090" lon="-8.7806850">
        <ele>50.5</ele>
        <time>2021-05-17T11:26:24Z</time>
      </trkpt>
      <trkpt lat="41.6043240" lon="-8.7806720">
        <ele>50.5</ele>
        <time>2021-05-17T11:26:25Z</time>
      </trkpt>
      <trkpt lat="41.6043330" lon="-8.7806590">
        <ele>50.5</ele>
        <time>2021-05-17T11:26:26Z</time>
      </trkpt>
      <trkpt lat="41.6043380" lon="-8.7806500">
        <ele>50.5</ele>
        <time>2021-05-17T11:26:27Z</time>
      </trkpt>
      <trkpt lat="41.6043470" lon="-8.7806400">
        <ele>50.5</ele>
        <time>2021-05-17T11:26:28Z</time>
      </trkpt>
      <trkpt lat="41.6043610" lon="-8.7806300">
        <ele>50.5</ele>
        <time>2021-05-17T11:26:29Z</time>
      </trkpt>
      <trkpt lat="41.6043670" lon="-8.7806150">
        <ele>50.5</ele>
        <time>2021-05-17T11:26:30Z</time>
      </trkpt>
      <trkpt lat="41.6043840" lon="-8.7805970">
        <ele>50.5</ele>
        <time>2021-05-17T11:26:31Z</time>
      </trkpt>
      <trkpt lat="41.6043910" lon="-8.7805880">
        <ele>50.5</ele>
        <time>2021-05-17T11:26:32Z</time>
      </trkpt>
      <trkpt lat="41.6043980" lon="-8.7805800">
        <ele>50.5</ele>
        <time>2021-05-17T11:26:33Z</time>
      </trkpt>
      <trkpt lat="41.6044040" lon="-8.7805740">
        <ele>50.5</ele>
        <time>2021-05-17T11:26:34Z</time>
      </trkpt>
      <trkpt lat="41.6044170" lon="-8.7805570">
        <ele>50.5</ele>
        <time>2021-05-17T11:26:35Z</time>
      </trkpt>
      <trkpt lat="41.6044220" lon="-8.7805470">
        <ele>50.5</ele>
        <time>2021-05-17T11:26:36Z</time>
      </trkpt>
      <trkpt lat="41.6044360" lon="-8.7805220">
        <ele>50.5</ele>
        <time>2021-05-17T11:26:37Z</time>
      </trkpt>
      <trkpt lat="41.6044450" lon="-8.7805190">
        <ele>50.5</ele>
        <time>2021-05-17T11:26:38Z</time>
      </trkpt>
      <trkpt lat="41.6044530" lon="-8.7805010">
        <ele>50.5</ele>
        <time>2021-05-17T11:26:39Z</time>
      </trkpt>
      <trkpt lat="41.6044620" lon="-8.7804860">
        <ele>50.5</ele>
        <time>2021-05-17T11:26:40Z</time>
      </trkpt>
      <trkpt lat="41.6044680" lon="-8.7804780">
        <ele>50.5</ele>
        <time>2021-05-17T11:26:41Z</time>
      </trkpt>
      <trkpt lat="41.6044710" lon="-8.7804680">
        <ele>50.5</ele>
        <time>2021-05-17T11:26:42Z</time>
      </trkpt>
      <trkpt lat="41.6044830" lon="-8.7804540">
        <ele>50.5</ele>
        <time>2021-05-17T11:26:43Z</time>
      </trkpt>
      <trkpt lat="41.6044920" lon="-8.7804440">
        <ele>50.5</ele>
        <time>2021-05-17T11:26:44Z</time>
      </trkpt>
      <trkpt lat="41.6045000" lon="-8.7804290">
        <ele>50.5</ele>
        <time>2021-05-17T11:26:45Z</time>
      </trkpt>
      <trkpt lat="41.6045050" lon="-8.7804270">
        <ele>50.5</ele>
        <time>2021-05-17T11:26:46Z</time>
      </trkpt>
      <trkpt lat="41.6045100" lon="-8.7804130">
        <ele>50.5</ele>
        <time>2021-05-17T11:26:47Z</time>
      </trkpt>
      <trkpt lat="41.6045170" lon="-8.7804090">
        <ele>50.5</ele>
        <time>2021-05-17T11:26:48Z</time>
      </trkpt>
      <trkpt lat="41.6045240" lon="-8.7804030">
        <ele>50.5</ele>
        <time>2021-05-17T11:26:49Z</time>
      </trkpt>
      <trkpt lat="41.6045200" lon="-8.7803950">
        <ele>50.5</ele>
        <time>2021-05-17T11:26:50Z</time>
      </trkpt>
      <trkpt lat="41.6045330" lon="-8.7803830">
        <ele>50.5</ele>
        <time>2021-05-17T11:26:51Z</time>
      </trkpt>
      <trkpt lat="41.6045390" lon="-8.7803780">
        <ele>50.5</ele>
        <time>2021-05-17T11:26:52Z</time>
      </trkpt>
      <trkpt lat="41.6045420" lon="-8.7803710">
        <ele>50.4</ele>
        <time>2021-05-17T11:26:53Z</time>
      </trkpt>
      <trkpt lat="41.6045450" lon="-8.7803650">
        <ele>50.4</ele>
        <time>2021-05-17T11:26:54Z</time>
      </trkpt>
      <trkpt lat="41.6045500" lon="-8.7803560">
        <ele>50.4</ele>
        <time>2021-05-17T11:26:55Z</time>
      </trkpt>
      <trkpt lat="41.6045530" lon="-8.7803560">
        <ele>50.4</ele>
        <time>2021-05-17T11:26:56Z</time>
      </trkpt>
      <trkpt lat="41.6045630" lon="-8.7803480">
        <ele>50.4</ele>
        <time>2021-05-17T11:26:57Z</time>
      </trkpt>
      <trkpt lat="41.6045710" lon="-8.7803410">
        <ele>50.4</ele>
        <time>2021-05-17T11:26:58Z</time>
      </trkpt>
      <trkpt lat="41.6045820" lon="-8.7803370">
        <ele>50.4</ele>
        <time>2021-05-17T11:26:59Z</time>
      </trkpt>
      <trkpt lat="41.6045950" lon="-8.7803340">
        <ele>50.4</ele>
        <time>2021-05-17T11:27:00Z</time>
      </trkpt>
      <trkpt lat="41.6046060" lon="-8.7803290">
        <ele>50.4</ele>
        <time>2021-05-17T11:27:01Z</time>
      </trkpt>
      <trkpt lat="41.6046130" lon="-8.7803300">
        <ele>50.4</ele>
        <time>2021-05-17T11:27:02Z</time>
      </trkpt>
      <trkpt lat="41.6046290" lon="-8.7803270">
        <ele>50.3</ele>
        <time>2021-05-17T11:27:03Z</time>
      </trkpt>
      <trkpt lat="41.6046380" lon="-8.7803320">
        <ele>50.3</ele>
        <time>2021-05-17T11:27:04Z</time>
      </trkpt>
      <trkpt lat="41.6046500" lon="-8.7803290">
        <ele>50.3</ele>
        <time>2021-05-17T11:27:05Z</time>
      </trkpt>
      <trkpt lat="41.6046570" lon="-8.7803300">
        <ele>50.3</ele>
        <time>2021-05-17T11:27:06Z</time>
      </trkpt>
      <trkpt lat="41.6046800" lon="-8.7803290">
        <ele>50.3</ele>
        <time>2021-05-17T11:27:07Z</time>
      </trkpt>
      <trkpt lat="41.6046880" lon="-8.7803310">
        <ele>50.3</ele>
        <time>2021-05-17T11:27:08Z</time>
      </trkpt>
      <trkpt lat="41.6046950" lon="-8.7803330">
        <ele>50.3</ele>
        <time>2021-05-17T11:27:09Z</time>
      </trkpt>
      <trkpt lat="41.6046910" lon="-8.7803370">
        <ele>50.3</ele>
        <time>2021-05-17T11:27:10Z</time>
      </trkpt>
      <trkpt lat="41.6047000" lon="-8.7803380">
        <ele>50.3</ele>
        <time>2021-05-17T11:27:11Z</time>
      </trkpt>
      <trkpt lat="41.6047080" lon="-8.7803410">
        <ele>50.3</ele>
        <time>2021-05-17T11:27:12Z</time>
      </trkpt>
      <trkpt lat="41.6047110" lon="-8.7803400">
        <ele>50.3</ele>
        <time>2021-05-17T11:27:13Z</time>
      </trkpt>
      <trkpt lat="41.6047160" lon="-8.7803330">
        <ele>50.2</ele>
        <time>2021-05-17T11:27:14Z</time>
      </trkpt>
      <trkpt lat="41.6047170" lon="-8.7803270">
        <ele>50.2</ele>
        <time>2021-05-17T11:27:15Z</time>
      </trkpt>
      <trkpt lat="41.6047200" lon="-8.7803250">
        <ele>50.2</ele>
        <time>2021-05-17T11:27:16Z</time>
      </trkpt>
      <trkpt lat="41.6047190" lon="-8.7803270">
        <ele>50.2</ele>
        <time>2021-05-17T11:27:17Z</time>
      </trkpt>
      <trkpt lat="41.6047180" lon="-8.7803300">
        <ele>50.2</ele>
        <time>2021-05-17T11:27:18Z</time>
      </trkpt>
      <trkpt lat="41.6047160" lon="-8.7803290">
        <ele>50.2</ele>
        <time>2021-05-17T11:27:19Z</time>
      </trkpt>
      <trkpt lat="41.6047160" lon="-8.7803290">
        <ele>50.2</ele>
        <time>2021-05-17T11:27:20Z</time>
      </trkpt>
      <trkpt lat="41.6047140" lon="-8.7803290">
        <ele>50.2</ele>
        <time>2021-05-17T11:27:21Z</time>
      </trkpt>
      <trkpt lat="41.6047140" lon="-8.7803300">
        <ele>50.2</ele>
        <time>2021-05-17T11:27:22Z</time>
      </trkpt>
      <trkpt lat="41.6047150" lon="-8.7803350">
        <ele>50.2</ele>
        <time>2021-05-17T11:27:23Z</time>
      </trkpt>
      <trkpt lat="41.6047150" lon="-8.7803350">
        <ele>50.2</ele>
        <time>2021-05-17T11:27:24Z</time>
      </trkpt>
      <trkpt lat="41.6047150" lon="-8.7803350">
        <ele>50.2</ele>
        <time>2021-05-17T11:27:25Z</time>
      </trkpt>
      <trkpt lat="41.6047150" lon="-8.7803350">
        <ele>50.2</ele>
        <time>2021-05-17T11:27:26Z</time>
      </trkpt>
      <trkpt lat="41.6047100" lon="-8.7803350">
        <ele>50.2</ele>
        <time>2021-05-17T11:27:27Z</time>
      </trkpt>
      <trkpt lat="41.6047100" lon="-8.7803350">
        <ele>50.2</ele>
        <time>2021-05-17T11:27:28Z</time>
      </trkpt>
      <trkpt lat="41.6047100" lon="-8.7803350">
        <ele>50.2</ele>
        <time>2021-05-17T11:27:29Z</time>
      </trkpt>
      <trkpt lat="41.6047100" lon="-8.7803350">
        <ele>50.2</ele>
        <time>2021-05-17T11:27:30Z</time>
      </trkpt>
      <trkpt lat="41.6047100" lon="-8.7803350">
        <ele>50.2</ele>
        <time>2021-05-17T11:27:31Z</time>
      </trkpt>
      <trkpt lat="41.6047090" lon="-8.7803290">
        <ele>50.2</ele>
        <time>2021-05-17T11:27:32Z</time>
      </trkpt>
      <trkpt lat="41.6047100" lon="-8.7803290">
        <ele>50.2</ele>
        <time>2021-05-17T11:27:33Z</time>
      </trkpt>
      <trkpt lat="41.6047090" lon="-8.7803290">
        <ele>50.2</ele>
        <time>2021-05-17T11:27:34Z</time>
      </trkpt>
      <trkpt lat="41.6047100" lon="-8.7803280">
        <ele>50.2</ele>
        <time>2021-05-17T11:27:35Z</time>
      </trkpt>
      <trkpt lat="41.6047090" lon="-8.7803290">
        <ele>50.2</ele>
        <time>2021-05-17T11:27:36Z</time>
      </trkpt>
      <trkpt lat="41.6047110" lon="-8.7803280">
        <ele>50.2</ele>
        <time>2021-05-17T11:27:37Z</time>
      </trkpt>
      <trkpt lat="41.6047110" lon="-8.7803270">
        <ele>50.2</ele>
        <time>2021-05-17T11:27:38Z</time>
      </trkpt>
      <trkpt lat="41.6047110" lon="-8.7803270">
        <ele>50.2</ele>
        <time>2021-05-17T11:27:39Z</time>
      </trkpt>
      <trkpt lat="41.6047130" lon="-8.7803270">
        <ele>50.2</ele>
        <time>2021-05-17T11:27:40Z</time>
      </trkpt>
      <trkpt lat="41.6047120" lon="-8.7803270">
        <ele>50.2</ele>
        <time>2021-05-17T11:27:41Z</time>
      </trkpt>
      <trkpt lat="41.6047130" lon="-8.7803310">
        <ele>50.2</ele>
        <time>2021-05-17T11:27:42Z</time>
      </trkpt>
      <trkpt lat="41.6047110" lon="-8.7803290">
        <ele>50.2</ele>
        <time>2021-05-17T11:27:43Z</time>
      </trkpt>
      <trkpt lat="41.6047110" lon="-8.7803320">
        <ele>50.2</ele>
        <time>2021-05-17T11:27:44Z</time>
      </trkpt>
      <trkpt lat="41.6047060" lon="-8.7803340">
        <ele>50.2</ele>
        <time>2021-05-17T11:27:45Z</time>
      </trkpt>
      <trkpt lat="41.6047030" lon="-8.7803300">
        <ele>50.2</ele>
        <time>2021-05-17T11:27:46Z</time>
      </trkpt>
      <trkpt lat="41.6047020" lon="-8.7803320">
        <ele>50.2</ele>
        <time>2021-05-17T11:27:47Z</time>
      </trkpt>
      <trkpt lat="41.6046990" lon="-8.7803300">
        <ele>50.2</ele>
        <time>2021-05-17T11:27:48Z</time>
      </trkpt>
      <trkpt lat="41.6046990" lon="-8.7803320">
        <ele>50.2</ele>
        <time>2021-05-17T11:27:49Z</time>
      </trkpt>
      <trkpt lat="41.6046970" lon="-8.7803310">
        <ele>50.2</ele>
        <time>2021-05-17T11:27:50Z</time>
      </trkpt>
      <trkpt lat="41.6046960" lon="-8.7803310">
        <ele>50.2</ele>
        <time>2021-05-17T11:27:51Z</time>
      </trkpt>
      <trkpt lat="41.6046970" lon="-8.7803340">
        <ele>50.2</ele>
        <time>2021-05-17T11:27:52Z</time>
      </trkpt>
      <trkpt lat="41.6046960" lon="-8.7803350">
        <ele>50.2</ele>
        <time>2021-05-17T11:27:53Z</time>
      </trkpt>
      <trkpt lat="41.6046960" lon="-8.7803380">
        <ele>50.2</ele>
        <time>2021-05-17T11:27:54Z</time>
      </trkpt>
      <trkpt lat="41.6046940" lon="-8.7803380">
        <ele>50.2</ele>
        <time>2021-05-17T11:27:55Z</time>
      </trkpt>
      <trkpt lat="41.6046930" lon="-8.7803390">
        <ele>50.2</ele>
        <time>2021-05-17T11:27:56Z</time>
      </trkpt>
      <trkpt lat="41.6046920" lon="-8.7803380">
        <ele>50.2</ele>
        <time>2021-05-17T11:27:57Z</time>
      </trkpt>
      <trkpt lat="41.6046920" lon="-8.7803380">
        <ele>50.2</ele>
        <time>2021-05-17T11:27:58Z</time>
      </trkpt>
      <trkpt lat="41.6046920" lon="-8.7803350">
        <ele>50.2</ele>
        <time>2021-05-17T11:27:59Z</time>
      </trkpt>
      <trkpt lat="41.6046930" lon="-8.7803340">
        <ele>50.2</ele>
        <time>2021-05-17T11:28:00Z</time>
      </trkpt>
      <trkpt lat="41.6046960" lon="-8.7803240">
        <ele>50.2</ele>
        <time>2021-05-17T11:28:01Z</time>
      </trkpt>
      <trkpt lat="41.6047010" lon="-8.7803230">
        <ele>50.2</ele>
        <time>2021-05-17T11:28:02Z</time>
      </trkpt>
      <trkpt lat="41.6047010" lon="-8.7803240">
        <ele>50.2</ele>
        <time>2021-05-17T11:28:03Z</time>
      </trkpt>
      <trkpt lat="41.6046980" lon="-8.7803240">
        <ele>50.2</ele>
        <time>2021-05-17T11:28:04Z</time>
      </trkpt>
      <trkpt lat="41.6046960" lon="-8.7803220">
        <ele>50.1</ele>
        <time>2021-05-17T11:28:05Z</time>
      </trkpt>
      <trkpt lat="41.6046950" lon="-8.7803230">
        <ele>50.1</ele>
        <time>2021-05-17T11:28:06Z</time>
      </trkpt>
      <trkpt lat="41.6046930" lon="-8.7803260">
        <ele>50.1</ele>
        <time>2021-05-17T11:28:07Z</time>
      </trkpt>
      <trkpt lat="41.6046930" lon="-8.7803260">
        <ele>50.1</ele>
        <time>2021-05-17T11:28:08Z</time>
      </trkpt>
      <trkpt lat="41.6046940" lon="-8.7803300">
        <ele>50.1</ele>
        <time>2021-05-17T11:28:09Z</time>
      </trkpt>
      <trkpt lat="41.6046940" lon="-8.7803300">
        <ele>50.1</ele>
        <time>2021-05-17T11:28:10Z</time>
      </trkpt>
      <trkpt lat="41.6046940" lon="-8.7803300">
        <ele>50.1</ele>
        <time>2021-05-17T11:28:11Z</time>
      </trkpt>
      <trkpt lat="41.6046940" lon="-8.7803300">
        <ele>50.1</ele>
        <time>2021-05-17T11:28:12Z</time>
      </trkpt>
      <trkpt lat="41.6046980" lon="-8.7803290">
        <ele>50.1</ele>
        <time>2021-05-17T11:28:13Z</time>
      </trkpt>
      <trkpt lat="41.6047010" lon="-8.7803270">
        <ele>50.1</ele>
        <time>2021-05-17T11:28:14Z</time>
      </trkpt>
      <trkpt lat="41.6047020" lon="-8.7803260">
        <ele>50.1</ele>
        <time>2021-05-17T11:28:15Z</time>
      </trkpt>
      <trkpt lat="41.6047040" lon="-8.7803240">
        <ele>50.1</ele>
        <time>2021-05-17T11:28:16Z</time>
      </trkpt>
      <trkpt lat="41.6047050" lon="-8.7803230">
        <ele>50.1</ele>
        <time>2021-05-17T11:28:17Z</time>
      </trkpt>
      <trkpt lat="41.6047060" lon="-8.7803220">
        <ele>50.1</ele>
        <time>2021-05-17T11:28:18Z</time>
      </trkpt>
      <trkpt lat="41.6047060" lon="-8.7803220">
        <ele>50.1</ele>
        <time>2021-05-17T11:28:19Z</time>
      </trkpt>
      <trkpt lat="41.6047090" lon="-8.7803230">
        <ele>50.1</ele>
        <time>2021-05-17T11:28:20Z</time>
      </trkpt>
      <trkpt lat="41.6047110" lon="-8.7803230">
        <ele>50.1</ele>
        <time>2021-05-17T11:28:21Z</time>
      </trkpt>
      <trkpt lat="41.6047120" lon="-8.7803230">
        <ele>50.1</ele>
        <time>2021-05-17T11:28:22Z</time>
      </trkpt>
      <trkpt lat="41.6047130" lon="-8.7803210">
        <ele>50.1</ele>
        <time>2021-05-17T11:28:23Z</time>
      </trkpt>
      <trkpt lat="41.6047140" lon="-8.7803220">
        <ele>50.1</ele>
        <time>2021-05-17T11:28:24Z</time>
      </trkpt>
      <trkpt lat="41.6047150" lon="-8.7803200">
        <ele>50.1</ele>
        <time>2021-05-17T11:28:25Z</time>
      </trkpt>
      <trkpt lat="41.6047170" lon="-8.7803200">
        <ele>50.1</ele>
        <time>2021-05-17T11:28:26Z</time>
      </trkpt>
      <trkpt lat="41.6047180" lon="-8.7803200">
        <ele>50.1</ele>
        <time>2021-05-17T11:28:27Z</time>
      </trkpt>
      <trkpt lat="41.6047190" lon="-8.7803210">
        <ele>50.1</ele>
        <time>2021-05-17T11:28:28Z</time>
      </trkpt>
      <trkpt lat="41.6047180" lon="-8.7803230">
        <ele>50.1</ele>
        <time>2021-05-17T11:28:29Z</time>
      </trkpt>
      <trkpt lat="41.6047180" lon="-8.7803250">
        <ele>50.1</ele>
        <time>2021-05-17T11:28:30Z</time>
      </trkpt>
      <trkpt lat="41.6047180" lon="-8.7803250">
        <ele>50.1</ele>
        <time>2021-05-17T11:28:31Z</time>
      </trkpt>
      <trkpt lat="41.6047180" lon="-8.7803250">
        <ele>50.1</ele>
        <time>2021-05-17T11:28:32Z</time>
      </trkpt>
      <trkpt lat="41.6047180" lon="-8.7803250">
        <ele>50.1</ele>
        <time>2021-05-17T11:28:33Z</time>
      </trkpt>
      <trkpt lat="41.6047200" lon="-8.7803270">
        <ele>50.1</ele>
        <time>2021-05-17T11:28:34Z</time>
      </trkpt>
      <trkpt lat="41.6047200" lon="-8.7803280">
        <ele>50.1</ele>
        <time>2021-05-17T11:28:35Z</time>
      </trkpt>
      <trkpt lat="41.6047190" lon="-8.7803310">
        <ele>50.1</ele>
        <time>2021-05-17T11:28:36Z</time>
      </trkpt>
      <trkpt lat="41.6047190" lon="-8.7803310">
        <ele>50.1</ele>
        <time>2021-05-17T11:28:37Z</time>
      </trkpt>
      <trkpt lat="41.6047190" lon="-8.7803320">
        <ele>50.1</ele>
        <time>2021-05-17T11:28:38Z</time>
      </trkpt>
      <trkpt lat="41.6047190" lon="-8.7803350">
        <ele>50.1</ele>
        <time>2021-05-17T11:28:39Z</time>
      </trkpt>
      <trkpt lat="41.6047190" lon="-8.7803370">
        <ele>50.1</ele>
        <time>2021-05-17T11:28:40Z</time>
      </trkpt>
      <trkpt lat="41.6047200" lon="-8.7803380">
        <ele>50.1</ele>
        <time>2021-05-17T11:28:41Z</time>
      </trkpt>
      <trkpt lat="41.6047200" lon="-8.7803360">
        <ele>50.1</ele>
        <time>2021-05-17T11:28:42Z</time>
      </trkpt>
      <trkpt lat="41.6047200" lon="-8.7803370">
        <ele>50.1</ele>
        <time>2021-05-17T11:28:43Z</time>
      </trkpt>
      <trkpt lat="41.6047180" lon="-8.7803360">
        <ele>50.1</ele>
        <time>2021-05-17T11:28:44Z</time>
      </trkpt>
      <trkpt lat="41.6047190" lon="-8.7803350">
        <ele>50.1</ele>
        <time>2021-05-17T11:28:45Z</time>
      </trkpt>
      <trkpt lat="41.6047190" lon="-8.7803350">
        <ele>50.1</ele>
        <time>2021-05-17T11:28:46Z</time>
      </trkpt>
      <trkpt lat="41.6047190" lon="-8.7803350">
        <ele>50.1</ele>
        <time>2021-05-17T11:28:47Z</time>
      </trkpt>
      <trkpt lat="41.6047190" lon="-8.7803280">
        <ele>50.1</ele>
        <time>2021-05-17T11:28:48Z</time>
      </trkpt>
      <trkpt lat="41.6047190" lon="-8.7803260">
        <ele>50.1</ele>
        <time>2021-05-17T11:28:49Z</time>
      </trkpt>
      <trkpt lat="41.6047190" lon="-8.7803240">
        <ele>50.1</ele>
        <time>2021-05-17T11:28:50Z</time>
      </trkpt>
      <trkpt lat="41.6047180" lon="-8.7803210">
        <ele>50.1</ele>
        <time>2021-05-17T11:28:51Z</time>
      </trkpt>
      <trkpt lat="41.6047200" lon="-8.7803190">
        <ele>50.1</ele>
        <time>2021-05-17T11:28:52Z</time>
      </trkpt>
      <trkpt lat="41.6047210" lon="-8.7803180">
        <ele>50.1</ele>
        <time>2021-05-17T11:28:53Z</time>
      </trkpt>
      <trkpt lat="41.6047240" lon="-8.7803160">
        <ele>50.1</ele>
        <time>2021-05-17T11:28:54Z</time>
      </trkpt>
      <trkpt lat="41.6047260" lon="-8.7803200">
        <ele>50.1</ele>
        <time>2021-05-17T11:28:55Z</time>
      </trkpt>
      <trkpt lat="41.6047290" lon="-8.7803230">
        <ele>50.1</ele>
        <time>2021-05-17T11:28:56Z</time>
      </trkpt>
      <trkpt lat="41.6047320" lon="-8.7803270">
        <ele>50.1</ele>
        <time>2021-05-17T11:28:57Z</time>
      </trkpt>
      <trkpt lat="41.6047340" lon="-8.7803300">
        <ele>50.1</ele>
        <time>2021-05-17T11:28:58Z</time>
      </trkpt>
      <trkpt lat="41.6047370" lon="-8.7803330">
        <ele>50.1</ele>
        <time>2021-05-17T11:28:59Z</time>
      </trkpt>
      <trkpt lat="41.6047400" lon="-8.7803370">
        <ele>50.1</ele>
        <time>2021-05-17T11:29:00Z</time>
      </trkpt>
      <trkpt lat="41.6047420" lon="-8.7803400">
        <ele>50.1</ele>
        <time>2021-05-17T11:29:01Z</time>
      </trkpt>
      <trkpt lat="41.6047450" lon="-8.7803440">
        <ele>50.0</ele>
        <time>2021-05-17T11:29:02Z</time>
      </trkpt>
      <trkpt lat="41.6047480" lon="-8.7803470">
        <ele>50.0</ele>
        <time>2021-05-17T11:29:03Z</time>
      </trkpt>
      <trkpt lat="41.6047500" lon="-8.7803510">
        <ele>50.0</ele>
        <time>2021-05-17T11:29:04Z</time>
      </trkpt>
      <trkpt lat="41.6047530" lon="-8.7803540">
        <ele>50.0</ele>
        <time>2021-05-17T11:29:05Z</time>
      </trkpt>
      <trkpt lat="41.6047590" lon="-8.7803560">
        <ele>50.0</ele>
        <time>2021-05-17T11:29:06Z</time>
      </trkpt>
      <trkpt lat="41.6047820" lon="-8.7803680">
        <ele>49.9</ele>
        <time>2021-05-17T11:29:07Z</time>
      </trkpt>
      <trkpt lat="41.6048050" lon="-8.7803760">
        <ele>49.9</ele>
        <time>2021-05-17T11:29:08Z</time>
      </trkpt>
      <trkpt lat="41.6048160" lon="-8.7803740">
        <ele>49.9</ele>
        <time>2021-05-17T11:29:09Z</time>
      </trkpt>
      <trkpt lat="41.6048300" lon="-8.7803740">
        <ele>49.8</ele>
        <time>2021-05-17T11:29:10Z</time>
      </trkpt>
      <trkpt lat="41.6048340" lon="-8.7803800">
        <ele>49.8</ele>
        <time>2021-05-17T11:29:11Z</time>
      </trkpt>
      <trkpt lat="41.6048420" lon="-8.7803840">
        <ele>49.8</ele>
        <time>2021-05-17T11:29:12Z</time>
      </trkpt>
      <trkpt lat="41.6048570" lon="-8.7803870">
        <ele>49.8</ele>
        <time>2021-05-17T11:29:13Z</time>
      </trkpt>
      <trkpt lat="41.6048630" lon="-8.7803850">
        <ele>49.7</ele>
        <time>2021-05-17T11:29:14Z</time>
      </trkpt>
      <trkpt lat="41.6048760" lon="-8.7803940">
        <ele>49.7</ele>
        <time>2021-05-17T11:29:15Z</time>
      </trkpt>
      <trkpt lat="41.6048960" lon="-8.7803940">
        <ele>49.7</ele>
        <time>2021-05-17T11:29:16Z</time>
      </trkpt>
      <trkpt lat="41.6049060" lon="-8.7803980">
        <ele>49.6</ele>
        <time>2021-05-17T11:29:17Z</time>
      </trkpt>
      <trkpt lat="41.6049150" lon="-8.7804020">
        <ele>49.6</ele>
        <time>2021-05-17T11:29:18Z</time>
      </trkpt>
      <trkpt lat="41.6049270" lon="-8.7804100">
        <ele>49.6</ele>
        <time>2021-05-17T11:29:19Z</time>
      </trkpt>
      <trkpt lat="41.6049440" lon="-8.7804200">
        <ele>49.5</ele>
        <time>2021-05-17T11:29:20Z</time>
      </trkpt>
      <trkpt lat="41.6049580" lon="-8.7804210">
        <ele>49.5</ele>
        <time>2021-05-17T11:29:21Z</time>
      </trkpt>
      <trkpt lat="41.6049710" lon="-8.7804190">
        <ele>49.5</ele>
        <time>2021-05-17T11:29:22Z</time>
      </trkpt>
      <trkpt lat="41.6049910" lon="-8.7804200">
        <ele>49.4</ele>
        <time>2021-05-17T11:29:23Z</time>
      </trkpt>
      <trkpt lat="41.6050010" lon="-8.7804230">
        <ele>49.4</ele>
        <time>2021-05-17T11:29:24Z</time>
      </trkpt>
      <trkpt lat="41.6050100" lon="-8.7804250">
        <ele>49.4</ele>
        <time>2021-05-17T11:29:25Z</time>
      </trkpt>
      <trkpt lat="41.6050260" lon="-8.7804380">
        <ele>49.3</ele>
        <time>2021-05-17T11:29:26Z</time>
      </trkpt>
      <trkpt lat="41.6050400" lon="-8.7804420">
        <ele>49.3</ele>
        <time>2021-05-17T11:29:27Z</time>
      </trkpt>
      <trkpt lat="41.6050560" lon="-8.7804380">
        <ele>49.3</ele>
        <time>2021-05-17T11:29:28Z</time>
      </trkpt>
      <trkpt lat="41.6050700" lon="-8.7804450">
        <ele>49.2</ele>
        <time>2021-05-17T11:29:29Z</time>
      </trkpt>
      <trkpt lat="41.6050850" lon="-8.7804540">
        <ele>49.2</ele>
        <time>2021-05-17T11:29:30Z</time>
      </trkpt>
      <trkpt lat="41.6051020" lon="-8.7804560">
        <ele>49.1</ele>
        <time>2021-05-17T11:29:31Z</time>
      </trkpt>
      <trkpt lat="41.6051170" lon="-8.7804590">
        <ele>49.1</ele>
        <time>2021-05-17T11:29:32Z</time>
      </trkpt>
      <trkpt lat="41.6051320" lon="-8.7804620">
        <ele>49.1</ele>
        <time>2021-05-17T11:29:33Z</time>
      </trkpt>
      <trkpt lat="41.6051460" lon="-8.7804660">
        <ele>49.0</ele>
        <time>2021-05-17T11:29:34Z</time>
      </trkpt>
      <trkpt lat="41.6051620" lon="-8.7804680">
        <ele>49.0</ele>
        <time>2021-05-17T11:29:35Z</time>
      </trkpt>
      <trkpt lat="41.6051760" lon="-8.7804700">
        <ele>48.9</ele>
        <time>2021-05-17T11:29:36Z</time>
      </trkpt>
      <trkpt lat="41.6051910" lon="-8.7804770">
        <ele>48.9</ele>
        <time>2021-05-17T11:29:37Z</time>
      </trkpt>
      <trkpt lat="41.6052050" lon="-8.7804830">
        <ele>48.8</ele>
        <time>2021-05-17T11:29:38Z</time>
      </trkpt>
      <trkpt lat="41.6052190" lon="-8.7804900">
        <ele>48.8</ele>
        <time>2021-05-17T11:29:39Z</time>
      </trkpt>
      <trkpt lat="41.6052400" lon="-8.7804990">
        <ele>48.7</ele>
        <time>2021-05-17T11:29:40Z</time>
      </trkpt>
      <trkpt lat="41.6052490" lon="-8.7805020">
        <ele>48.7</ele>
        <time>2021-05-17T11:29:41Z</time>
      </trkpt>
      <trkpt lat="41.6052580" lon="-8.7805050">
        <ele>48.7</ele>
        <time>2021-05-17T11:29:42Z</time>
      </trkpt>
      <trkpt lat="41.6052700" lon="-8.7805130">
        <ele>48.6</ele>
        <time>2021-05-17T11:29:43Z</time>
      </trkpt>
      <trkpt lat="41.6052840" lon="-8.7805170">
        <ele>48.6</ele>
        <time>2021-05-17T11:29:44Z</time>
      </trkpt>
      <trkpt lat="41.6052980" lon="-8.7805260">
        <ele>48.5</ele>
        <time>2021-05-17T11:29:45Z</time>
      </trkpt>
      <trkpt lat="41.6053090" lon="-8.7805350">
        <ele>48.5</ele>
        <time>2021-05-17T11:29:46Z</time>
      </trkpt>
      <trkpt lat="41.6053220" lon="-8.7805380">
        <ele>48.4</ele>
        <time>2021-05-17T11:29:47Z</time>
      </trkpt>
      <trkpt lat="41.6053330" lon="-8.7805410">
        <ele>48.4</ele>
        <time>2021-05-17T11:29:48Z</time>
      </trkpt>
      <trkpt lat="41.6053420" lon="-8.7805470">
        <ele>48.4</ele>
        <time>2021-05-17T11:29:49Z</time>
      </trkpt>
      <trkpt lat="41.6053520" lon="-8.7805610">
        <ele>48.3</ele>
        <time>2021-05-17T11:29:50Z</time>
      </trkpt>
      <trkpt lat="41.6053670" lon="-8.7805690">
        <ele>48.3</ele>
        <time>2021-05-17T11:29:51Z</time>
      </trkpt>
      <trkpt lat="41.6053850" lon="-8.7805760">
        <ele>48.2</ele>
        <time>2021-05-17T11:29:52Z</time>
      </trkpt>
      <trkpt lat="41.6053930" lon="-8.7805780">
        <ele>48.2</ele>
        <time>2021-05-17T11:29:53Z</time>
      </trkpt>
      <trkpt lat="41.6054020" lon="-8.7805810">
        <ele>48.2</ele>
        <time>2021-05-17T11:29:54Z</time>
      </trkpt>
      <trkpt lat="41.6054120" lon="-8.7805870">
        <ele>48.2</ele>
        <time>2021-05-17T11:29:55Z</time>
      </trkpt>
      <trkpt lat="41.6054230" lon="-8.7805970">
        <ele>48.1</ele>
        <time>2021-05-17T11:29:56Z</time>
      </trkpt>
      <trkpt lat="41.6054330" lon="-8.7806050">
        <ele>48.1</ele>
        <time>2021-05-17T11:29:57Z</time>
      </trkpt>
      <trkpt lat="41.6054540" lon="-8.7806170">
        <ele>48.0</ele>
        <time>2021-05-17T11:29:58Z</time>
      </trkpt>
      <trkpt lat="41.6054620" lon="-8.7806220">
        <ele>48.0</ele>
        <time>2021-05-17T11:29:59Z</time>
      </trkpt>
      <trkpt lat="41.6054700" lon="-8.7806280">
        <ele>48.0</ele>
        <time>2021-05-17T11:30:00Z</time>
      </trkpt>
      <trkpt lat="41.6054870" lon="-8.7806260">
        <ele>47.9</ele>
        <time>2021-05-17T11:30:01Z</time>
      </trkpt>
      <trkpt lat="41.6055010" lon="-8.7806330">
        <ele>47.9</ele>
        <time>2021-05-17T11:30:02Z</time>
      </trkpt>
      <trkpt lat="41.6055150" lon="-8.7806440">
        <ele>47.9</ele>
        <time>2021-05-17T11:30:03Z</time>
      </trkpt>
      <trkpt lat="41.6055260" lon="-8.7806540">
        <ele>47.8</ele>
        <time>2021-05-17T11:30:04Z</time>
      </trkpt>
      <trkpt lat="41.6055370" lon="-8.7806690">
        <ele>47.8</ele>
        <time>2021-05-17T11:30:05Z</time>
      </trkpt>
      <trkpt lat="41.6055470" lon="-8.7806800">
        <ele>47.8</ele>
        <time>2021-05-17T11:30:06Z</time>
      </trkpt>
      <trkpt lat="41.6055550" lon="-8.7806890">
        <ele>47.8</ele>
        <time>2021-05-17T11:30:07Z</time>
      </trkpt>
      <trkpt lat="41.6055600" lon="-8.7806950">
        <ele>47.7</ele>
        <time>2021-05-17T11:30:08Z</time>
      </trkpt>
      <trkpt lat="41.6055700" lon="-8.7807030">
        <ele>47.7</ele>
        <time>2021-05-17T11:30:09Z</time>
      </trkpt>
      <trkpt lat="41.6055770" lon="-8.7807190">
        <ele>47.7</ele>
        <time>2021-05-17T11:30:10Z</time>
      </trkpt>
      <trkpt lat="41.6055900" lon="-8.7807310">
        <ele>47.7</ele>
        <time>2021-05-17T11:30:11Z</time>
      </trkpt>
      <trkpt lat="41.6055950" lon="-8.7807390">
        <ele>47.6</ele>
        <time>2021-05-17T11:30:12Z</time>
      </trkpt>
      <trkpt lat="41.6056080" lon="-8.7807480">
        <ele>47.6</ele>
        <time>2021-05-17T11:30:13Z</time>
      </trkpt>
      <trkpt lat="41.6056160" lon="-8.7807580">
        <ele>47.6</ele>
        <time>2021-05-17T11:30:14Z</time>
      </trkpt>
      <trkpt lat="41.6056270" lon="-8.7807600">
        <ele>47.6</ele>
        <time>2021-05-17T11:30:15Z</time>
      </trkpt>
      <trkpt lat="41.6056350" lon="-8.7807720">
        <ele>47.5</ele>
        <time>2021-05-17T11:30:16Z</time>
      </trkpt>
      <trkpt lat="41.6056440" lon="-8.7807840">
        <ele>47.5</ele>
        <time>2021-05-17T11:30:17Z</time>
      </trkpt>
      <trkpt lat="41.6056500" lon="-8.7807960">
        <ele>47.5</ele>
        <time>2021-05-17T11:30:18Z</time>
      </trkpt>
      <trkpt lat="41.6056570" lon="-8.7807980">
        <ele>47.5</ele>
        <time>2021-05-17T11:30:19Z</time>
      </trkpt>
      <trkpt lat="41.6056670" lon="-8.7808050">
        <ele>47.4</ele>
        <time>2021-05-17T11:30:20Z</time>
      </trkpt>
      <trkpt lat="41.6056840" lon="-8.7808280">
        <ele>47.4</ele>
        <time>2021-05-17T11:30:21Z</time>
      </trkpt>
      <trkpt lat="41.6056880" lon="-8.7808370">
        <ele>47.4</ele>
        <time>2021-05-17T11:30:22Z</time>
      </trkpt>
      <trkpt lat="41.6056920" lon="-8.7808450">
        <ele>47.4</ele>
        <time>2021-05-17T11:30:23Z</time>
      </trkpt>
      <trkpt lat="41.6056980" lon="-8.7808540">
        <ele>47.3</ele>
        <time>2021-05-17T11:30:24Z</time>
      </trkpt>
      <trkpt lat="41.6057100" lon="-8.7808620">
        <ele>47.3</ele>
        <time>2021-05-17T11:30:25Z</time>
      </trkpt>
      <trkpt lat="41.6057190" lon="-8.7808690">
        <ele>47.3</ele>
        <time>2021-05-17T11:30:26Z</time>
      </trkpt>
      <trkpt lat="41.6057290" lon="-8.7808750">
        <ele>47.3</ele>
        <time>2021-05-17T11:30:27Z</time>
      </trkpt>
      <trkpt lat="41.6057350" lon="-8.7808830">
        <ele>47.2</ele>
        <time>2021-05-17T11:30:28Z</time>
      </trkpt>
      <trkpt lat="41.6057450" lon="-8.7808910">
        <ele>47.2</ele>
        <time>2021-05-17T11:30:29Z</time>
      </trkpt>
      <trkpt lat="41.6057550" lon="-8.7808980">
        <ele>47.2</ele>
        <time>2021-05-17T11:30:30Z</time>
      </trkpt>
      <trkpt lat="41.6057690" lon="-8.7809020">
        <ele>47.2</ele>
        <time>2021-05-17T11:30:31Z</time>
      </trkpt>
      <trkpt lat="41.6057780" lon="-8.7809050">
        <ele>47.1</ele>
        <time>2021-05-17T11:30:32Z</time>
      </trkpt>
      <trkpt lat="41.6057910" lon="-8.7809200">
        <ele>47.1</ele>
        <time>2021-05-17T11:30:33Z</time>
      </trkpt>
      <trkpt lat="41.6057980" lon="-8.7809310">
        <ele>47.1</ele>
        <time>2021-05-17T11:30:34Z</time>
      </trkpt>
      <trkpt lat="41.6058070" lon="-8.7809450">
        <ele>47.1</ele>
        <time>2021-05-17T11:30:35Z</time>
      </trkpt>
      <trkpt lat="41.6058140" lon="-8.7809640">
        <ele>47.0</ele>
        <time>2021-05-17T11:30:36Z</time>
      </trkpt>
      <trkpt lat="41.6058180" lon="-8.7809730">
        <ele>47.0</ele>
        <time>2021-05-17T11:30:37Z</time>
      </trkpt>
      <trkpt lat="41.6058240" lon="-8.7809780">
        <ele>47.0</ele>
        <time>2021-05-17T11:30:38Z</time>
      </trkpt>
      <trkpt lat="41.6058310" lon="-8.7809950">
        <ele>47.0</ele>
        <time>2021-05-17T11:30:39Z</time>
      </trkpt>
      <trkpt lat="41.6058430" lon="-8.7810030">
        <ele>46.9</ele>
        <time>2021-05-17T11:30:40Z</time>
      </trkpt>
      <trkpt lat="41.6058440" lon="-8.7810170">
        <ele>46.9</ele>
        <time>2021-05-17T11:30:41Z</time>
      </trkpt>
      <trkpt lat="41.6058520" lon="-8.7810230">
        <ele>46.9</ele>
        <time>2021-05-17T11:30:42Z</time>
      </trkpt>
      <trkpt lat="41.6058620" lon="-8.7810350">
        <ele>46.9</ele>
        <time>2021-05-17T11:30:43Z</time>
      </trkpt>
      <trkpt lat="41.6058630" lon="-8.7810370">
        <ele>46.9</ele>
        <time>2021-05-17T11:30:44Z</time>
      </trkpt>
      <trkpt lat="41.6058660" lon="-8.7810350">
        <ele>46.9</ele>
        <time>2021-05-17T11:30:45Z</time>
      </trkpt>
      <trkpt lat="41.6058680" lon="-8.7810320">
        <ele>46.9</ele>
        <time>2021-05-17T11:30:46Z</time>
      </trkpt>
      <trkpt lat="41.6058750" lon="-8.7810390">
        <ele>46.8</ele>
        <time>2021-05-17T11:30:47Z</time>
      </trkpt>
      <trkpt lat="41.6058700" lon="-8.7810360">
        <ele>46.8</ele>
        <time>2021-05-17T11:30:48Z</time>
      </trkpt>
      <trkpt lat="41.6058670" lon="-8.7810350">
        <ele>46.8</ele>
        <time>2021-05-17T11:30:49Z</time>
      </trkpt>
      <trkpt lat="41.6058630" lon="-8.7810330">
        <ele>46.8</ele>
        <time>2021-05-17T11:30:50Z</time>
      </trkpt>
      <trkpt lat="41.6058660" lon="-8.7810320">
        <ele>46.8</ele>
        <time>2021-05-17T11:30:51Z</time>
      </trkpt>
      <trkpt lat="41.6058640" lon="-8.7810320">
        <ele>46.8</ele>
        <time>2021-05-17T11:30:52Z</time>
      </trkpt>
      <trkpt lat="41.6058630" lon="-8.7810310">
        <ele>46.8</ele>
        <time>2021-05-17T11:30:53Z</time>
      </trkpt>
      <trkpt lat="41.6058680" lon="-8.7810260">
        <ele>46.8</ele>
        <time>2021-05-17T11:30:54Z</time>
      </trkpt>
      <trkpt lat="41.6058700" lon="-8.7810240">
        <ele>46.8</ele>
        <time>2021-05-17T11:30:55Z</time>
      </trkpt>
      <trkpt lat="41.6058710" lon="-8.7810250">
        <ele>46.8</ele>
        <time>2021-05-17T11:30:56Z</time>
      </trkpt>
      <trkpt lat="41.6058700" lon="-8.7810240">
        <ele>46.8</ele>
        <time>2021-05-17T11:30:57Z</time>
      </trkpt>
      <trkpt lat="41.6058680" lon="-8.7810250">
        <ele>46.8</ele>
        <time>2021-05-17T11:30:58Z</time>
      </trkpt>
      <trkpt lat="41.6058620" lon="-8.7810290">
        <ele>46.8</ele>
        <time>2021-05-17T11:30:59Z</time>
      </trkpt>
      <trkpt lat="41.6058620" lon="-8.7810320">
        <ele>46.8</ele>
        <time>2021-05-17T11:31:00Z</time>
      </trkpt>
      <trkpt lat="41.6058740" lon="-8.7810370">
        <ele>46.7</ele>
        <time>2021-05-17T11:31:01Z</time>
      </trkpt>
      <trkpt lat="41.6058760" lon="-8.7810380">
        <ele>46.7</ele>
        <time>2021-05-17T11:31:02Z</time>
      </trkpt>
      <trkpt lat="41.6058730" lon="-8.7810340">
        <ele>46.7</ele>
        <time>2021-05-17T11:31:03Z</time>
      </trkpt>
      <trkpt lat="41.6058690" lon="-8.7810330">
        <ele>46.7</ele>
        <time>2021-05-17T11:31:04Z</time>
      </trkpt>
      <trkpt lat="41.6058690" lon="-8.7810330">
        <ele>46.7</ele>
        <time>2021-05-17T11:31:05Z</time>
      </trkpt>
      <trkpt lat="41.6058760" lon="-8.7810300">
        <ele>46.7</ele>
        <time>2021-05-17T11:31:06Z</time>
      </trkpt>
      <trkpt lat="41.6058750" lon="-8.7810300">
        <ele>46.7</ele>
        <time>2021-05-17T11:31:07Z</time>
      </trkpt>
      <trkpt lat="41.6058750" lon="-8.7810290">
        <ele>46.7</ele>
        <time>2021-05-17T11:31:08Z</time>
      </trkpt>
      <trkpt lat="41.6058750" lon="-8.7810300">
        <ele>46.7</ele>
        <time>2021-05-17T11:31:09Z</time>
      </trkpt>
      <trkpt lat="41.6058740" lon="-8.7810290">
        <ele>46.7</ele>
        <time>2021-05-17T11:31:10Z</time>
      </trkpt>
      <trkpt lat="41.6058740" lon="-8.7810290">
        <ele>46.7</ele>
        <time>2021-05-17T11:31:11Z</time>
      </trkpt>
      <trkpt lat="41.6058730" lon="-8.7810290">
        <ele>46.7</ele>
        <time>2021-05-17T11:31:12Z</time>
      </trkpt>
      <trkpt lat="41.6058730" lon="-8.7810280">
        <ele>46.7</ele>
        <time>2021-05-17T11:31:13Z</time>
      </trkpt>
      <trkpt lat="41.6058700" lon="-8.7810350">
        <ele>46.7</ele>
        <time>2021-05-17T11:31:14Z</time>
      </trkpt>
      <trkpt lat="41.6058690" lon="-8.7810340">
        <ele>46.7</ele>
        <time>2021-05-17T11:31:15Z</time>
      </trkpt>
      <trkpt lat="41.6058700" lon="-8.7810320">
        <ele>46.7</ele>
        <time>2021-05-17T11:31:16Z</time>
      </trkpt>
      <trkpt lat="41.6058700" lon="-8.7810330">
        <ele>46.7</ele>
        <time>2021-05-17T11:31:17Z</time>
      </trkpt>
      <trkpt lat="41.6058740" lon="-8.7810370">
        <ele>46.7</ele>
        <time>2021-05-17T11:31:18Z</time>
      </trkpt>
      <trkpt lat="41.6058740" lon="-8.7810410">
        <ele>46.7</ele>
        <time>2021-05-17T11:31:19Z</time>
      </trkpt>
      <trkpt lat="41.6058840" lon="-8.7810460">
        <ele>46.6</ele>
        <time>2021-05-17T11:31:20Z</time>
      </trkpt>
      <trkpt lat="41.6059050" lon="-8.7810540">
        <ele>46.6</ele>
        <time>2021-05-17T11:31:21Z</time>
      </trkpt>
      <trkpt lat="41.6059110" lon="-8.7810620">
        <ele>46.6</ele>
        <time>2021-05-17T11:31:22Z</time>
      </trkpt>
      <trkpt lat="41.6059160" lon="-8.7810700">
        <ele>46.6</ele>
        <time>2021-05-17T11:31:23Z</time>
      </trkpt>
      <trkpt lat="41.6059260" lon="-8.7810780">
        <ele>46.5</ele>
        <time>2021-05-17T11:31:24Z</time>
      </trkpt>
      <trkpt lat="41.6059350" lon="-8.7810970">
        <ele>46.5</ele>
        <time>2021-05-17T11:31:25Z</time>
      </trkpt>
      <trkpt lat="41.6059440" lon="-8.7811260">
        <ele>46.5</ele>
        <time>2021-05-17T11:31:26Z</time>
      </trkpt>
      <trkpt lat="41.6059520" lon="-8.7811380">
        <ele>46.4</ele>
        <time>2021-05-17T11:31:27Z</time>
      </trkpt>
      <trkpt lat="41.6059700" lon="-8.7811570">
        <ele>46.4</ele>
        <time>2021-05-17T11:31:28Z</time>
      </trkpt>
      <trkpt lat="41.6059780" lon="-8.7811650">
        <ele>46.4</ele>
        <time>2021-05-17T11:31:29Z</time>
      </trkpt>
      <trkpt lat="41.6059850" lon="-8.7811740">
        <ele>46.3</ele>
        <time>2021-05-17T11:31:30Z</time>
      </trkpt>
      <trkpt lat="41.6059980" lon="-8.7811930">
        <ele>46.3</ele>
        <time>2021-05-17T11:31:31Z</time>
      </trkpt>
      <trkpt lat="41.6060030" lon="-8.7812050">
        <ele>46.3</ele>
        <time>2021-05-17T11:31:32Z</time>
      </trkpt>
      <trkpt lat="41.6060090" lon="-8.7812190">
        <ele>46.3</ele>
        <time>2021-05-17T11:31:33Z</time>
      </trkpt>
      <trkpt lat="41.6060200" lon="-8.7812390">
        <ele>46.3</ele>
        <time>2021-05-17T11:31:34Z</time>
      </trkpt>
      <trkpt lat="41.6060260" lon="-8.7812470">
        <ele>46.3</ele>
        <time>2021-05-17T11:31:35Z</time>
      </trkpt>
      <trkpt lat="41.6060340" lon="-8.7812540">
        <ele>46.3</ele>
        <time>2021-05-17T11:31:36Z</time>
      </trkpt>
      <trkpt lat="41.6060450" lon="-8.7812720">
        <ele>46.2</ele>
        <time>2021-05-17T11:31:37Z</time>
      </trkpt>
      <trkpt lat="41.6060520" lon="-8.7812940">
        <ele>46.2</ele>
        <time>2021-05-17T11:31:38Z</time>
      </trkpt>
      <trkpt lat="41.6060550" lon="-8.7813130">
        <ele>46.2</ele>
        <time>2021-05-17T11:31:39Z</time>
      </trkpt>
      <trkpt lat="41.6060600" lon="-8.7813320">
        <ele>46.2</ele>
        <time>2021-05-17T11:31:40Z</time>
      </trkpt>
      <trkpt lat="41.6060650" lon="-8.7813540">
        <ele>46.2</ele>
        <time>2021-05-17T11:31:41Z</time>
      </trkpt>
      <trkpt lat="41.6060750" lon="-8.7813710">
        <ele>46.1</ele>
        <time>2021-05-17T11:31:42Z</time>
      </trkpt>
      <trkpt lat="41.6060840" lon="-8.7813870">
        <ele>46.1</ele>
        <time>2021-05-17T11:31:43Z</time>
      </trkpt>
      <trkpt lat="41.6060960" lon="-8.7814010">
        <ele>46.1</ele>
        <time>2021-05-17T11:31:44Z</time>
      </trkpt>
      <trkpt lat="41.6060990" lon="-8.7814240">
        <ele>46.1</ele>
        <time>2021-05-17T11:31:45Z</time>
      </trkpt>
      <trkpt lat="41.6061070" lon="-8.7814410">
        <ele>46.1</ele>
        <time>2021-05-17T11:31:46Z</time>
      </trkpt>
      <trkpt lat="41.6061110" lon="-8.7814600">
        <ele>46.1</ele>
        <time>2021-05-17T11:31:47Z</time>
      </trkpt>
      <trkpt lat="41.6061190" lon="-8.7814730">
        <ele>46.0</ele>
        <time>2021-05-17T11:31:48Z</time>
      </trkpt>
      <trkpt lat="41.6061280" lon="-8.7814830">
        <ele>46.0</ele>
        <time>2021-05-17T11:31:49Z</time>
      </trkpt>
      <trkpt lat="41.6061330" lon="-8.7814870">
        <ele>45.9</ele>
        <time>2021-05-17T11:31:50Z</time>
      </trkpt>
      <trkpt lat="41.6061420" lon="-8.7814880">
        <ele>45.9</ele>
        <time>2021-05-17T11:31:51Z</time>
      </trkpt>
      <trkpt lat="41.6061560" lon="-8.7814970">
        <ele>45.9</ele>
        <time>2021-05-17T11:31:52Z</time>
      </trkpt>
      <trkpt lat="41.6061620" lon="-8.7814990">
        <ele>45.8</ele>
        <time>2021-05-17T11:31:53Z</time>
      </trkpt>
      <trkpt lat="41.6061830" lon="-8.7814990">
        <ele>45.8</ele>
        <time>2021-05-17T11:31:54Z</time>
      </trkpt>
      <trkpt lat="41.6061910" lon="-8.7815040">
        <ele>45.7</ele>
        <time>2021-05-17T11:31:55Z</time>
      </trkpt>
      <trkpt lat="41.6062000" lon="-8.7815090">
        <ele>45.7</ele>
        <time>2021-05-17T11:31:56Z</time>
      </trkpt>
      <trkpt lat="41.6062130" lon="-8.7815090">
        <ele>45.6</ele>
        <time>2021-05-17T11:31:57Z</time>
      </trkpt>
      <trkpt lat="41.6062220" lon="-8.7815080">
        <ele>45.6</ele>
        <time>2021-05-17T11:31:58Z</time>
      </trkpt>
      <trkpt lat="41.6062340" lon="-8.7815100">
        <ele>45.6</ele>
        <time>2021-05-17T11:31:59Z</time>
      </trkpt>
      <trkpt lat="41.6062450" lon="-8.7815140">
        <ele>45.5</ele>
        <time>2021-05-17T11:32:00Z</time>
      </trkpt>
      <trkpt lat="41.6062540" lon="-8.7815120">
        <ele>45.5</ele>
        <time>2021-05-17T11:32:01Z</time>
      </trkpt>
      <trkpt lat="41.6062690" lon="-8.7815180">
        <ele>45.4</ele>
        <time>2021-05-17T11:32:02Z</time>
      </trkpt>
      <trkpt lat="41.6062850" lon="-8.7815210">
        <ele>45.3</ele>
        <time>2021-05-17T11:32:03Z</time>
      </trkpt>
      <trkpt lat="41.6063030" lon="-8.7815190">
        <ele>45.3</ele>
        <time>2021-05-17T11:32:04Z</time>
      </trkpt>
      <trkpt lat="41.6063210" lon="-8.7815240">
        <ele>45.2</ele>
        <time>2021-05-17T11:32:05Z</time>
      </trkpt>
      <trkpt lat="41.6063340" lon="-8.7815200">
        <ele>45.1</ele>
        <time>2021-05-17T11:32:06Z</time>
      </trkpt>
      <trkpt lat="41.6063440" lon="-8.7815250">
        <ele>45.1</ele>
        <time>2021-05-17T11:32:07Z</time>
      </trkpt>
      <trkpt lat="41.6063610" lon="-8.7815270">
        <ele>45.0</ele>
        <time>2021-05-17T11:32:08Z</time>
      </trkpt>
      <trkpt lat="41.6063700" lon="-8.7815260">
        <ele>45.0</ele>
        <time>2021-05-17T11:32:09Z</time>
      </trkpt>
      <trkpt lat="41.6063810" lon="-8.7815230">
        <ele>44.9</ele>
        <time>2021-05-17T11:32:10Z</time>
      </trkpt>
      <trkpt lat="41.6064060" lon="-8.7815230">
        <ele>44.8</ele>
        <time>2021-05-17T11:32:11Z</time>
      </trkpt>
      <trkpt lat="41.6064130" lon="-8.7815240">
        <ele>44.8</ele>
        <time>2021-05-17T11:32:12Z</time>
      </trkpt>
      <trkpt lat="41.6064220" lon="-8.7815230">
        <ele>44.7</ele>
        <time>2021-05-17T11:32:13Z</time>
      </trkpt>
      <trkpt lat="41.6064380" lon="-8.7815250">
        <ele>44.7</ele>
        <time>2021-05-17T11:32:14Z</time>
      </trkpt>
      <trkpt lat="41.6064720" lon="-8.7815190">
        <ele>44.5</ele>
        <time>2021-05-17T11:32:15Z</time>
      </trkpt>
      <trkpt lat="41.6064810" lon="-8.7815090">
        <ele>44.5</ele>
        <time>2021-05-17T11:32:16Z</time>
      </trkpt>
      <trkpt lat="41.6065120" lon="-8.7814970">
        <ele>44.3</ele>
        <time>2021-05-17T11:32:17Z</time>
      </trkpt>
      <trkpt lat="41.6065200" lon="-8.7814940">
        <ele>44.3</ele>
        <time>2021-05-17T11:32:18Z</time>
      </trkpt>
      <trkpt lat="41.6065490" lon="-8.7814770">
        <ele>44.1</ele>
        <time>2021-05-17T11:32:19Z</time>
      </trkpt>
      <trkpt lat="41.6065590" lon="-8.7814740">
        <ele>44.1</ele>
        <time>2021-05-17T11:32:20Z</time>
      </trkpt>
      <trkpt lat="41.6065900" lon="-8.7814610">
        <ele>43.9</ele>
        <time>2021-05-17T11:32:21Z</time>
      </trkpt>
      <trkpt lat="41.6066000" lon="-8.7814590">
        <ele>43.9</ele>
        <time>2021-05-17T11:32:22Z</time>
      </trkpt>
      <trkpt lat="41.6066300" lon="-8.7814560">
        <ele>43.8</ele>
        <time>2021-05-17T11:32:23Z</time>
      </trkpt>
      <trkpt lat="41.6066390" lon="-8.7814590">
        <ele>43.7</ele>
        <time>2021-05-17T11:32:24Z</time>
      </trkpt>
      <trkpt lat="41.6066660" lon="-8.7814490">
        <ele>43.6</ele>
        <time>2021-05-17T11:32:25Z</time>
      </trkpt>
      <trkpt lat="41.6066740" lon="-8.7814460">
        <ele>43.6</ele>
        <time>2021-05-17T11:32:26Z</time>
      </trkpt>
      <trkpt lat="41.6066890" lon="-8.7814390">
        <ele>43.5</ele>
        <time>2021-05-17T11:32:27Z</time>
      </trkpt>
      <trkpt lat="41.6067050" lon="-8.7814350">
        <ele>43.5</ele>
        <time>2021-05-17T11:32:28Z</time>
      </trkpt>
      <trkpt lat="41.6067280" lon="-8.7814270">
        <ele>43.4</ele>
        <time>2021-05-17T11:32:29Z</time>
      </trkpt>
      <trkpt lat="41.6067370" lon="-8.7814240">
        <ele>43.4</ele>
        <time>2021-05-17T11:32:30Z</time>
      </trkpt>
      <trkpt lat="41.6067460" lon="-8.7814220">
        <ele>43.3</ele>
        <time>2021-05-17T11:32:31Z</time>
      </trkpt>
      <trkpt lat="41.6067610" lon="-8.7814210">
        <ele>43.3</ele>
        <time>2021-05-17T11:32:32Z</time>
      </trkpt>
      <trkpt lat="41.6067770" lon="-8.7814140">
        <ele>43.2</ele>
        <time>2021-05-17T11:32:33Z</time>
      </trkpt>
      <trkpt lat="41.6067900" lon="-8.7814130">
        <ele>43.2</ele>
        <time>2021-05-17T11:32:34Z</time>
      </trkpt>
      <trkpt lat="41.6068050" lon="-8.7814040">
        <ele>43.1</ele>
        <time>2021-05-17T11:32:35Z</time>
      </trkpt>
      <trkpt lat="41.6068190" lon="-8.7814040">
        <ele>43.1</ele>
        <time>2021-05-17T11:32:36Z</time>
      </trkpt>
      <trkpt lat="41.6068340" lon="-8.7814000">
        <ele>43.0</ele>
        <time>2021-05-17T11:32:37Z</time>
      </trkpt>
      <trkpt lat="41.6068490" lon="-8.7814080">
        <ele>43.0</ele>
        <time>2021-05-17T11:32:38Z</time>
      </trkpt>
      <trkpt lat="41.6068640" lon="-8.7814030">
        <ele>42.9</ele>
        <time>2021-05-17T11:32:39Z</time>
      </trkpt>
      <trkpt lat="41.6068770" lon="-8.7814000">
        <ele>42.9</ele>
        <time>2021-05-17T11:32:40Z</time>
      </trkpt>
      <trkpt lat="41.6068920" lon="-8.7814000">
        <ele>42.9</ele>
        <time>2021-05-17T11:32:41Z</time>
      </trkpt>
      <trkpt lat="41.6069030" lon="-8.7814000">
        <ele>42.8</ele>
        <time>2021-05-17T11:32:42Z</time>
      </trkpt>
      <trkpt lat="41.6069110" lon="-8.7813920">
        <ele>42.8</ele>
        <time>2021-05-17T11:32:43Z</time>
      </trkpt>
      <trkpt lat="41.6069140" lon="-8.7813870">
        <ele>42.8</ele>
        <time>2021-05-17T11:32:44Z</time>
      </trkpt>
      <trkpt lat="41.6069190" lon="-8.7813790">
        <ele>42.7</ele>
        <time>2021-05-17T11:32:45Z</time>
      </trkpt>
      <trkpt lat="41.6069280" lon="-8.7813770">
        <ele>42.7</ele>
        <time>2021-05-17T11:32:46Z</time>
      </trkpt>
      <trkpt lat="41.6069320" lon="-8.7813710">
        <ele>42.7</ele>
        <time>2021-05-17T11:32:47Z</time>
      </trkpt>
      <trkpt lat="41.6069410" lon="-8.7813680">
        <ele>42.7</ele>
        <time>2021-05-17T11:32:48Z</time>
      </trkpt>
      <trkpt lat="41.6069540" lon="-8.7813680">
        <ele>42.6</ele>
        <time>2021-05-17T11:32:49Z</time>
      </trkpt>
      <trkpt lat="41.6069650" lon="-8.7813660">
        <ele>42.6</ele>
        <time>2021-05-17T11:32:50Z</time>
      </trkpt>
      <trkpt lat="41.6069770" lon="-8.7813660">
        <ele>42.6</ele>
        <time>2021-05-17T11:32:51Z</time>
      </trkpt>
      <trkpt lat="41.6069910" lon="-8.7813660">
        <ele>42.5</ele>
        <time>2021-05-17T11:32:52Z</time>
      </trkpt>
      <trkpt lat="41.6070040" lon="-8.7813580">
        <ele>42.5</ele>
        <time>2021-05-17T11:32:53Z</time>
      </trkpt>
      <trkpt lat="41.6070170" lon="-8.7813490">
        <ele>42.4</ele>
        <time>2021-05-17T11:32:54Z</time>
      </trkpt>
      <trkpt lat="41.6070210" lon="-8.7813490">
        <ele>42.4</ele>
        <time>2021-05-17T11:32:55Z</time>
      </trkpt>
      <trkpt lat="41.6070290" lon="-8.7813450">
        <ele>42.4</ele>
        <time>2021-05-17T11:32:56Z</time>
      </trkpt>
      <trkpt lat="41.6070450" lon="-8.7813390">
        <ele>42.4</ele>
        <time>2021-05-17T11:32:57Z</time>
      </trkpt>
      <trkpt lat="41.6070500" lon="-8.7813340">
        <ele>42.3</ele>
        <time>2021-05-17T11:32:58Z</time>
      </trkpt>
      <trkpt lat="41.6070620" lon="-8.7813260">
        <ele>42.3</ele>
        <time>2021-05-17T11:32:59Z</time>
      </trkpt>
      <trkpt lat="41.6070750" lon="-8.7813280">
        <ele>42.3</ele>
        <time>2021-05-17T11:33:00Z</time>
      </trkpt>
      <trkpt lat="41.6070920" lon="-8.7813200">
        <ele>42.2</ele>
        <time>2021-05-17T11:33:01Z</time>
      </trkpt>
      <trkpt lat="41.6070990" lon="-8.7813180">
        <ele>42.2</ele>
        <time>2021-05-17T11:33:02Z</time>
      </trkpt>
      <trkpt lat="41.6071060" lon="-8.7813160">
        <ele>42.2</ele>
        <time>2021-05-17T11:33:03Z</time>
      </trkpt>
      <trkpt lat="41.6071170" lon="-8.7813170">
        <ele>42.2</ele>
        <time>2021-05-17T11:33:04Z</time>
      </trkpt>
      <trkpt lat="41.6071310" lon="-8.7813120">
        <ele>42.1</ele>
        <time>2021-05-17T11:33:05Z</time>
      </trkpt>
      <trkpt lat="41.6071410" lon="-8.7813110">
        <ele>42.1</ele>
        <time>2021-05-17T11:33:06Z</time>
      </trkpt>
      <trkpt lat="41.6071560" lon="-8.7813140">
        <ele>42.1</ele>
        <time>2021-05-17T11:33:07Z</time>
      </trkpt>
      <trkpt lat="41.6071710" lon="-8.7813140">
        <ele>42.0</ele>
        <time>2021-05-17T11:33:08Z</time>
      </trkpt>
      <trkpt lat="41.6071820" lon="-8.7813090">
        <ele>42.0</ele>
        <time>2021-05-17T11:33:09Z</time>
      </trkpt>
      <trkpt lat="41.6071890" lon="-8.7813060">
        <ele>42.0</ele>
        <time>2021-05-17T11:33:10Z</time>
      </trkpt>
      <trkpt lat="41.6072000" lon="-8.7813040">
        <ele>42.0</ele>
        <time>2021-05-17T11:33:11Z</time>
      </trkpt>
      <trkpt lat="41.6072050" lon="-8.7812950">
        <ele>41.9</ele>
        <time>2021-05-17T11:33:12Z</time>
      </trkpt>
      <trkpt lat="41.6072200" lon="-8.7812970">
        <ele>41.9</ele>
        <time>2021-05-17T11:33:13Z</time>
      </trkpt>
      <trkpt lat="41.6072350" lon="-8.7813040">
        <ele>41.9</ele>
        <time>2021-05-17T11:33:14Z</time>
      </trkpt>
      <trkpt lat="41.6072450" lon="-8.7813050">
        <ele>41.9</ele>
        <time>2021-05-17T11:33:15Z</time>
      </trkpt>
      <trkpt lat="41.6072520" lon="-8.7813030">
        <ele>41.8</ele>
        <time>2021-05-17T11:33:16Z</time>
      </trkpt>
      <trkpt lat="41.6072690" lon="-8.7813060">
        <ele>41.8</ele>
        <time>2021-05-17T11:33:17Z</time>
      </trkpt>
      <trkpt lat="41.6072800" lon="-8.7813090">
        <ele>41.8</ele>
        <time>2021-05-17T11:33:18Z</time>
      </trkpt>
      <trkpt lat="41.6072910" lon="-8.7813070">
        <ele>41.7</ele>
        <time>2021-05-17T11:33:19Z</time>
      </trkpt>
      <trkpt lat="41.6073020" lon="-8.7813110">
        <ele>41.7</ele>
        <time>2021-05-17T11:33:20Z</time>
      </trkpt>
      <trkpt lat="41.6073170" lon="-8.7813080">
        <ele>41.7</ele>
        <time>2021-05-17T11:33:21Z</time>
      </trkpt>
      <trkpt lat="41.6073330" lon="-8.7813030">
        <ele>41.7</ele>
        <time>2021-05-17T11:33:22Z</time>
      </trkpt>
      <trkpt lat="41.6073490" lon="-8.7813090">
        <ele>41.6</ele>
        <time>2021-05-17T11:33:23Z</time>
      </trkpt>
      <trkpt lat="41.6073600" lon="-8.7813110">
        <ele>41.6</ele>
        <time>2021-05-17T11:33:24Z</time>
      </trkpt>
      <trkpt lat="41.6073720" lon="-8.7813130">
        <ele>41.6</ele>
        <time>2021-05-17T11:33:25Z</time>
      </trkpt>
      <trkpt lat="41.6073930" lon="-8.7813140">
        <ele>41.5</ele>
        <time>2021-05-17T11:33:26Z</time>
      </trkpt>
      <trkpt lat="41.6074020" lon="-8.7813160">
        <ele>41.5</ele>
        <time>2021-05-17T11:33:27Z</time>
      </trkpt>
      <trkpt lat="41.6074160" lon="-8.7813240">
        <ele>41.5</ele>
        <time>2021-05-17T11:33:28Z</time>
      </trkpt>
      <trkpt lat="41.6074190" lon="-8.7813170">
        <ele>41.5</ele>
        <time>2021-05-17T11:33:29Z</time>
      </trkpt>
      <trkpt lat="41.6074300" lon="-8.7813250">
        <ele>41.4</ele>
        <time>2021-05-17T11:33:30Z</time>
      </trkpt>
      <trkpt lat="41.6074530" lon="-8.7813210">
        <ele>41.4</ele>
        <time>2021-05-17T11:33:31Z</time>
      </trkpt>
      <trkpt lat="41.6074590" lon="-8.7813220">
        <ele>41.3</ele>
        <time>2021-05-17T11:33:32Z</time>
      </trkpt>
      <trkpt lat="41.6074640" lon="-8.7813230">
        <ele>41.3</ele>
        <time>2021-05-17T11:33:33Z</time>
      </trkpt>
      <trkpt lat="41.6074700" lon="-8.7813240">
        <ele>41.3</ele>
        <time>2021-05-17T11:33:34Z</time>
      </trkpt>
      <trkpt lat="41.6075030" lon="-8.7813140">
        <ele>41.2</ele>
        <time>2021-05-17T11:33:35Z</time>
      </trkpt>
      <trkpt lat="41.6075140" lon="-8.7813120">
        <ele>41.2</ele>
        <time>2021-05-17T11:33:36Z</time>
      </trkpt>
      <trkpt lat="41.6075140" lon="-8.7813080">
        <ele>41.2</ele>
        <time>2021-05-17T11:33:37Z</time>
      </trkpt>
      <trkpt lat="41.6075090" lon="-8.7813110">
        <ele>41.1</ele>
        <time>2021-05-17T11:33:38Z</time>
      </trkpt>
      <trkpt lat="41.6075120" lon="-8.7813150">
        <ele>41.1</ele>
        <time>2021-05-17T11:33:39Z</time>
      </trkpt>
      <trkpt lat="41.6075140" lon="-8.7813160">
        <ele>41.1</ele>
        <time>2021-05-17T11:33:40Z</time>
      </trkpt>
      <trkpt lat="41.6075150" lon="-8.7813210">
        <ele>41.1</ele>
        <time>2021-05-17T11:33:41Z</time>
      </trkpt>
      <trkpt lat="41.6075140" lon="-8.7813230">
        <ele>41.1</ele>
        <time>2021-05-17T11:33:42Z</time>
      </trkpt>
      <trkpt lat="41.6075160" lon="-8.7813260">
        <ele>41.1</ele>
        <time>2021-05-17T11:33:43Z</time>
      </trkpt>
      <trkpt lat="41.6075130" lon="-8.7813290">
        <ele>41.1</ele>
        <time>2021-05-17T11:33:44Z</time>
      </trkpt>
      <trkpt lat="41.6075110" lon="-8.7813300">
        <ele>41.1</ele>
        <time>2021-05-17T11:33:45Z</time>
      </trkpt>
      <trkpt lat="41.6075100" lon="-8.7813260">
        <ele>41.1</ele>
        <time>2021-05-17T11:33:46Z</time>
      </trkpt>
      <trkpt lat="41.6075140" lon="-8.7813240">
        <ele>41.0</ele>
        <time>2021-05-17T11:33:47Z</time>
      </trkpt>
      <trkpt lat="41.6075190" lon="-8.7813280">
        <ele>41.0</ele>
        <time>2021-05-17T11:33:48Z</time>
      </trkpt>
      <trkpt lat="41.6075190" lon="-8.7813280">
        <ele>41.0</ele>
        <time>2021-05-17T11:33:49Z</time>
      </trkpt>
      <trkpt lat="41.6075190" lon="-8.7813260">
        <ele>41.0</ele>
        <time>2021-05-17T11:33:50Z</time>
      </trkpt>
      <trkpt lat="41.6075200" lon="-8.7813230">
        <ele>41.0</ele>
        <time>2021-05-17T11:33:51Z</time>
      </trkpt>
      <trkpt lat="41.6075240" lon="-8.7813240">
        <ele>41.0</ele>
        <time>2021-05-17T11:33:52Z</time>
      </trkpt>
      <trkpt lat="41.6075280" lon="-8.7813180">
        <ele>41.0</ele>
        <time>2021-05-17T11:33:53Z</time>
      </trkpt>
      <trkpt lat="41.6075360" lon="-8.7813140">
        <ele>40.9</ele>
        <time>2021-05-17T11:33:54Z</time>
      </trkpt>
      <trkpt lat="41.6075400" lon="-8.7813130">
        <ele>40.9</ele>
        <time>2021-05-17T11:33:55Z</time>
      </trkpt>
      <trkpt lat="41.6075450" lon="-8.7813190">
        <ele>40.9</ele>
        <time>2021-05-17T11:33:56Z</time>
      </trkpt>
      <trkpt lat="41.6075550" lon="-8.7813290">
        <ele>40.9</ele>
        <time>2021-05-17T11:33:57Z</time>
      </trkpt>
      <trkpt lat="41.6075630" lon="-8.7813330">
        <ele>40.8</ele>
        <time>2021-05-17T11:33:58Z</time>
      </trkpt>
      <trkpt lat="41.6075780" lon="-8.7813350">
        <ele>40.8</ele>
        <time>2021-05-17T11:33:59Z</time>
      </trkpt>
      <trkpt lat="41.6075890" lon="-8.7813410">
        <ele>40.7</ele>
        <time>2021-05-17T11:34:00Z</time>
      </trkpt>
      <trkpt lat="41.6076000" lon="-8.7813490">
        <ele>40.7</ele>
        <time>2021-05-17T11:34:01Z</time>
      </trkpt>
      <trkpt lat="41.6076050" lon="-8.7813560">
        <ele>40.7</ele>
        <time>2021-05-17T11:34:02Z</time>
      </trkpt>
      <trkpt lat="41.6076180" lon="-8.7813660">
        <ele>40.6</ele>
        <time>2021-05-17T11:34:03Z</time>
      </trkpt>
      <trkpt lat="41.6076290" lon="-8.7813740">
        <ele>40.6</ele>
        <time>2021-05-17T11:34:04Z</time>
      </trkpt>
      <trkpt lat="41.6076460" lon="-8.7813830">
        <ele>40.5</ele>
        <time>2021-05-17T11:34:05Z</time>
      </trkpt>
      <trkpt lat="41.6076570" lon="-8.7813810">
        <ele>40.5</ele>
        <time>2021-05-17T11:34:06Z</time>
      </trkpt>
      <trkpt lat="41.6076830" lon="-8.7813810">
        <ele>40.3</ele>
        <time>2021-05-17T11:34:07Z</time>
      </trkpt>
      <trkpt lat="41.6076900" lon="-8.7813810">
        <ele>40.3</ele>
        <time>2021-05-17T11:34:08Z</time>
      </trkpt>
      <trkpt lat="41.6076980" lon="-8.7813800">
        <ele>40.3</ele>
        <time>2021-05-17T11:34:09Z</time>
      </trkpt>
      <trkpt lat="41.6077180" lon="-8.7813800">
        <ele>40.2</ele>
        <time>2021-05-17T11:34:10Z</time>
      </trkpt>
      <trkpt lat="41.6077330" lon="-8.7813660">
        <ele>40.1</ele>
        <time>2021-05-17T11:34:11Z</time>
      </trkpt>
      <trkpt lat="41.6077490" lon="-8.7813520">
        <ele>40.1</ele>
        <time>2021-05-17T11:34:12Z</time>
      </trkpt>
      <trkpt lat="41.6077590" lon="-8.7813440">
        <ele>40.0</ele>
        <time>2021-05-17T11:34:13Z</time>
      </trkpt>
      <trkpt lat="41.6077700" lon="-8.7813370">
        <ele>40.0</ele>
        <time>2021-05-17T11:34:14Z</time>
      </trkpt>
      <trkpt lat="41.6077830" lon="-8.7813360">
        <ele>39.9</ele>
        <time>2021-05-17T11:34:15Z</time>
      </trkpt>
      <trkpt lat="41.6078040" lon="-8.7813240">
        <ele>39.8</ele>
        <time>2021-05-17T11:34:16Z</time>
      </trkpt>
      <trkpt lat="41.6078200" lon="-8.7813070">
        <ele>39.8</ele>
        <time>2021-05-17T11:34:17Z</time>
      </trkpt>
      <trkpt lat="41.6078280" lon="-8.7812990">
        <ele>39.7</ele>
        <time>2021-05-17T11:34:18Z</time>
      </trkpt>
      <trkpt lat="41.6078360" lon="-8.7812900">
        <ele>39.7</ele>
        <time>2021-05-17T11:34:19Z</time>
      </trkpt>
      <trkpt lat="41.6078440" lon="-8.7812900">
        <ele>39.7</ele>
        <time>2021-05-17T11:34:20Z</time>
      </trkpt>
      <trkpt lat="41.6078600" lon="-8.7812730">
        <ele>39.6</ele>
        <time>2021-05-17T11:34:21Z</time>
      </trkpt>
      <trkpt lat="41.6078630" lon="-8.7812730">
        <ele>39.6</ele>
        <time>2021-05-17T11:34:22Z</time>
      </trkpt>
      <trkpt lat="41.6078840" lon="-8.7812540">
        <ele>39.5</ele>
        <time>2021-05-17T11:34:23Z</time>
      </trkpt>
      <trkpt lat="41.6078970" lon="-8.7812560">
        <ele>39.4</ele>
        <time>2021-05-17T11:34:24Z</time>
      </trkpt>
      <trkpt lat="41.6079160" lon="-8.7812480">
        <ele>39.4</ele>
        <time>2021-05-17T11:34:25Z</time>
      </trkpt>
      <trkpt lat="41.6079470" lon="-8.7812500">
        <ele>39.3</ele>
        <time>2021-05-17T11:34:26Z</time>
      </trkpt>
      <trkpt lat="41.6079570" lon="-8.7812490">
        <ele>39.2</ele>
        <time>2021-05-17T11:34:27Z</time>
      </trkpt>
      <trkpt lat="41.6079790" lon="-8.7812390">
        <ele>39.1</ele>
        <time>2021-05-17T11:34:28Z</time>
      </trkpt>
      <trkpt lat="41.6079850" lon="-8.7812350">
        <ele>39.1</ele>
        <time>2021-05-17T11:34:29Z</time>
      </trkpt>
      <trkpt lat="41.6079910" lon="-8.7812310">
        <ele>39.1</ele>
        <time>2021-05-17T11:34:30Z</time>
      </trkpt>
      <trkpt lat="41.6080050" lon="-8.7812330">
        <ele>39.1</ele>
        <time>2021-05-17T11:34:31Z</time>
      </trkpt>
      <trkpt lat="41.6080200" lon="-8.7812350">
        <ele>39.0</ele>
        <time>2021-05-17T11:34:32Z</time>
      </trkpt>
      <trkpt lat="41.6080260" lon="-8.7812370">
        <ele>39.0</ele>
        <time>2021-05-17T11:34:33Z</time>
      </trkpt>
      <trkpt lat="41.6080400" lon="-8.7812340">
        <ele>38.9</ele>
        <time>2021-05-17T11:34:34Z</time>
      </trkpt>
      <trkpt lat="41.6080510" lon="-8.7812290">
        <ele>38.9</ele>
        <time>2021-05-17T11:34:35Z</time>
      </trkpt>
      <trkpt lat="41.6080680" lon="-8.7812270">
        <ele>38.8</ele>
        <time>2021-05-17T11:34:36Z</time>
      </trkpt>
      <trkpt lat="41.6080800" lon="-8.7812230">
        <ele>38.8</ele>
        <time>2021-05-17T11:34:37Z</time>
      </trkpt>
      <trkpt lat="41.6080940" lon="-8.7812240">
        <ele>38.7</ele>
        <time>2021-05-17T11:34:38Z</time>
      </trkpt>
      <trkpt lat="41.6081030" lon="-8.7812190">
        <ele>38.7</ele>
        <time>2021-05-17T11:34:39Z</time>
      </trkpt>
      <trkpt lat="41.6081140" lon="-8.7812220">
        <ele>38.6</ele>
        <time>2021-05-17T11:34:40Z</time>
      </trkpt>
      <trkpt lat="41.6081250" lon="-8.7812260">
        <ele>38.6</ele>
        <time>2021-05-17T11:34:41Z</time>
      </trkpt>
      <trkpt lat="41.6081300" lon="-8.7812270">
        <ele>38.6</ele>
        <time>2021-05-17T11:34:42Z</time>
      </trkpt>
      <trkpt lat="41.6081380" lon="-8.7812290">
        <ele>38.5</ele>
        <time>2021-05-17T11:34:43Z</time>
      </trkpt>
      <trkpt lat="41.6081470" lon="-8.7812370">
        <ele>38.5</ele>
        <time>2021-05-17T11:34:44Z</time>
      </trkpt>
      <trkpt lat="41.6081620" lon="-8.7812460">
        <ele>38.4</ele>
        <time>2021-05-17T11:34:45Z</time>
      </trkpt>
      <trkpt lat="41.6081750" lon="-8.7812480">
        <ele>38.4</ele>
        <time>2021-05-17T11:34:46Z</time>
      </trkpt>
      <trkpt lat="41.6081830" lon="-8.7812440">
        <ele>38.4</ele>
        <time>2021-05-17T11:34:47Z</time>
      </trkpt>
      <trkpt lat="41.6081940" lon="-8.7812430">
        <ele>38.3</ele>
        <time>2021-05-17T11:34:48Z</time>
      </trkpt>
      <trkpt lat="41.6082030" lon="-8.7812510">
        <ele>38.3</ele>
        <time>2021-05-17T11:34:49Z</time>
      </trkpt>
      <trkpt lat="41.6082350" lon="-8.7812530">
        <ele>38.2</ele>
        <time>2021-05-17T11:34:50Z</time>
      </trkpt>
      <trkpt lat="41.6082420" lon="-8.7812530">
        <ele>38.1</ele>
        <time>2021-05-17T11:34:51Z</time>
      </trkpt>
      <trkpt lat="41.6082490" lon="-8.7812520">
        <ele>38.1</ele>
        <time>2021-05-17T11:34:52Z</time>
      </trkpt>
      <trkpt lat="41.6082590" lon="-8.7812560">
        <ele>38.1</ele>
        <time>2021-05-17T11:34:53Z</time>
      </trkpt>
      <trkpt lat="41.6082750" lon="-8.7812590">
        <ele>38.0</ele>
        <time>2021-05-17T11:34:54Z</time>
      </trkpt>
      <trkpt lat="41.6082940" lon="-8.7812580">
        <ele>37.9</ele>
        <time>2021-05-17T11:34:55Z</time>
      </trkpt>
      <trkpt lat="41.6083030" lon="-8.7812590">
        <ele>37.9</ele>
        <time>2021-05-17T11:34:56Z</time>
      </trkpt>
      <trkpt lat="41.6083120" lon="-8.7812590">
        <ele>37.8</ele>
        <time>2021-05-17T11:34:57Z</time>
      </trkpt>
      <trkpt lat="41.6083290" lon="-8.7812550">
        <ele>37.8</ele>
        <time>2021-05-17T11:34:58Z</time>
      </trkpt>
      <trkpt lat="41.6083390" lon="-8.7812550">
        <ele>37.7</ele>
        <time>2021-05-17T11:34:59Z</time>
      </trkpt>
      <trkpt lat="41.6083500" lon="-8.7812540">
        <ele>37.7</ele>
        <time>2021-05-17T11:35:00Z</time>
      </trkpt>
      <trkpt lat="41.6083760" lon="-8.7812510">
        <ele>37.6</ele>
        <time>2021-05-17T11:35:01Z</time>
      </trkpt>
      <trkpt lat="41.6083870" lon="-8.7812470">
        <ele>37.5</ele>
        <time>2021-05-17T11:35:02Z</time>
      </trkpt>
      <trkpt lat="41.6084140" lon="-8.7812370">
        <ele>37.4</ele>
        <time>2021-05-17T11:35:03Z</time>
      </trkpt>
      <trkpt lat="41.6084260" lon="-8.7812230">
        <ele>37.3</ele>
        <time>2021-05-17T11:35:04Z</time>
      </trkpt>
      <trkpt lat="41.6084430" lon="-8.7812100">
        <ele>37.2</ele>
        <time>2021-05-17T11:35:05Z</time>
      </trkpt>
      <trkpt lat="41.6084570" lon="-8.7811980">
        <ele>37.1</ele>
        <time>2021-05-17T11:35:06Z</time>
      </trkpt>
      <trkpt lat="41.6084810" lon="-8.7811960">
        <ele>37.0</ele>
        <time>2021-05-17T11:35:07Z</time>
      </trkpt>
      <trkpt lat="41.6084890" lon="-8.7811960">
        <ele>37.0</ele>
        <time>2021-05-17T11:35:08Z</time>
      </trkpt>
      <trkpt lat="41.6084960" lon="-8.7811970">
        <ele>37.0</ele>
        <time>2021-05-17T11:35:09Z</time>
      </trkpt>
      <trkpt lat="41.6085110" lon="-8.7811970">
        <ele>36.9</ele>
        <time>2021-05-17T11:35:10Z</time>
      </trkpt>
      <trkpt lat="41.6085200" lon="-8.7811970">
        <ele>36.9</ele>
        <time>2021-05-17T11:35:11Z</time>
      </trkpt>
      <trkpt lat="41.6085270" lon="-8.7812000">
        <ele>36.8</ele>
        <time>2021-05-17T11:35:12Z</time>
      </trkpt>
      <trkpt lat="41.6085390" lon="-8.7811990">
        <ele>36.8</ele>
        <time>2021-05-17T11:35:13Z</time>
      </trkpt>
      <trkpt lat="41.6085490" lon="-8.7811990">
        <ele>36.7</ele>
        <time>2021-05-17T11:35:14Z</time>
      </trkpt>
      <trkpt lat="41.6085600" lon="-8.7811970">
        <ele>36.7</ele>
        <time>2021-05-17T11:35:15Z</time>
      </trkpt>
      <trkpt lat="41.6085720" lon="-8.7812030">
        <ele>36.6</ele>
        <time>2021-05-17T11:35:16Z</time>
      </trkpt>
      <trkpt lat="41.6085900" lon="-8.7811990">
        <ele>36.6</ele>
        <time>2021-05-17T11:35:17Z</time>
      </trkpt>
      <trkpt lat="41.6086180" lon="-8.7812000">
        <ele>36.4</ele>
        <time>2021-05-17T11:35:18Z</time>
      </trkpt>
      <trkpt lat="41.6086270" lon="-8.7812020">
        <ele>36.4</ele>
        <time>2021-05-17T11:35:19Z</time>
      </trkpt>
      <trkpt lat="41.6086410" lon="-8.7811980">
        <ele>36.4</ele>
        <time>2021-05-17T11:35:20Z</time>
      </trkpt>
      <trkpt lat="41.6086570" lon="-8.7811910">
        <ele>36.3</ele>
        <time>2021-05-17T11:35:21Z</time>
      </trkpt>
      <trkpt lat="41.6086710" lon="-8.7811900">
        <ele>36.3</ele>
        <time>2021-05-17T11:35:22Z</time>
      </trkpt>
      <trkpt lat="41.6086740" lon="-8.7811970">
        <ele>36.3</ele>
        <time>2021-05-17T11:35:23Z</time>
      </trkpt>
      <trkpt lat="41.6086760" lon="-8.7812080">
        <ele>36.2</ele>
        <time>2021-05-17T11:35:24Z</time>
      </trkpt>
      <trkpt lat="41.6086930" lon="-8.7811910">
        <ele>36.2</ele>
        <time>2021-05-17T11:35:25Z</time>
      </trkpt>
      <trkpt lat="41.6087100" lon="-8.7811890">
        <ele>36.1</ele>
        <time>2021-05-17T11:35:26Z</time>
      </trkpt>
      <trkpt lat="41.6087220" lon="-8.7811880">
        <ele>36.1</ele>
        <time>2021-05-17T11:35:27Z</time>
      </trkpt>
      <trkpt lat="41.6087370" lon="-8.7811920">
        <ele>36.1</ele>
        <time>2021-05-17T11:35:28Z</time>
      </trkpt>
      <trkpt lat="41.6087490" lon="-8.7811870">
        <ele>36.1</ele>
        <time>2021-05-17T11:35:29Z</time>
      </trkpt>
      <trkpt lat="41.6087690" lon="-8.7811920">
        <ele>36.0</ele>
        <time>2021-05-17T11:35:30Z</time>
      </trkpt>
      <trkpt lat="41.6087790" lon="-8.7811930">
        <ele>36.0</ele>
        <time>2021-05-17T11:35:31Z</time>
      </trkpt>
      <trkpt lat="41.6087890" lon="-8.7811930">
        <ele>36.0</ele>
        <time>2021-05-17T11:35:32Z</time>
      </trkpt>
      <trkpt lat="41.6087950" lon="-8.7811890">
        <ele>36.0</ele>
        <time>2021-05-17T11:35:33Z</time>
      </trkpt>
      <trkpt lat="41.6088040" lon="-8.7811920">
        <ele>36.0</ele>
        <time>2021-05-17T11:35:34Z</time>
      </trkpt>
      <trkpt lat="41.6088220" lon="-8.7811970">
        <ele>36.0</ele>
        <time>2021-05-17T11:35:35Z</time>
      </trkpt>
      <trkpt lat="41.6088350" lon="-8.7812000">
        <ele>36.0</ele>
        <time>2021-05-17T11:35:36Z</time>
      </trkpt>
      <trkpt lat="41.6088510" lon="-8.7812010">
        <ele>35.9</ele>
        <time>2021-05-17T11:35:37Z</time>
      </trkpt>
      <trkpt lat="41.6088600" lon="-8.7812030">
        <ele>35.9</ele>
        <time>2021-05-17T11:35:38Z</time>
      </trkpt>
      <trkpt lat="41.6088680" lon="-8.7812050">
        <ele>35.9</ele>
        <time>2021-05-17T11:35:39Z</time>
      </trkpt>
      <trkpt lat="41.6088830" lon="-8.7812080">
        <ele>35.9</ele>
        <time>2021-05-17T11:35:40Z</time>
      </trkpt>
      <trkpt lat="41.6089010" lon="-8.7812120">
        <ele>35.9</ele>
        <time>2021-05-17T11:35:41Z</time>
      </trkpt>
      <trkpt lat="41.6089120" lon="-8.7812060">
        <ele>35.9</ele>
        <time>2021-05-17T11:35:42Z</time>
      </trkpt>
      <trkpt lat="41.6089240" lon="-8.7812070">
        <ele>35.9</ele>
        <time>2021-05-17T11:35:43Z</time>
      </trkpt>
      <trkpt lat="41.6089410" lon="-8.7812110">
        <ele>35.9</ele>
        <time>2021-05-17T11:35:44Z</time>
      </trkpt>
      <trkpt lat="41.6089520" lon="-8.7812110">
        <ele>35.9</ele>
        <time>2021-05-17T11:35:45Z</time>
      </trkpt>
      <trkpt lat="41.6089600" lon="-8.7812210">
        <ele>35.9</ele>
        <time>2021-05-17T11:35:46Z</time>
      </trkpt>
      <trkpt lat="41.6089740" lon="-8.7812250">
        <ele>35.9</ele>
        <time>2021-05-17T11:35:47Z</time>
      </trkpt>
      <trkpt lat="41.6089880" lon="-8.7812330">
        <ele>35.9</ele>
        <time>2021-05-17T11:35:48Z</time>
      </trkpt>
      <trkpt lat="41.6090060" lon="-8.7812430">
        <ele>35.8</ele>
        <time>2021-05-17T11:35:49Z</time>
      </trkpt>
      <trkpt lat="41.6090250" lon="-8.7812440">
        <ele>35.8</ele>
        <time>2021-05-17T11:35:50Z</time>
      </trkpt>
      <trkpt lat="41.6090380" lon="-8.7812530">
        <ele>35.7</ele>
        <time>2021-05-17T11:35:51Z</time>
      </trkpt>
      <trkpt lat="41.6090570" lon="-8.7812650">
        <ele>35.7</ele>
        <time>2021-05-17T11:35:52Z</time>
      </trkpt>
      <trkpt lat="41.6090660" lon="-8.7812710">
        <ele>35.6</ele>
        <time>2021-05-17T11:35:53Z</time>
      </trkpt>
      <trkpt lat="41.6090740" lon="-8.7812760">
        <ele>35.6</ele>
        <time>2021-05-17T11:35:54Z</time>
      </trkpt>
      <trkpt lat="41.6090910" lon="-8.7812840">
        <ele>35.6</ele>
        <time>2021-05-17T11:35:55Z</time>
      </trkpt>
      <trkpt lat="41.6090990" lon="-8.7812930">
        <ele>35.5</ele>
        <time>2021-05-17T11:35:56Z</time>
      </trkpt>
      <trkpt lat="41.6091070" lon="-8.7813010">
        <ele>35.5</ele>
        <time>2021-05-17T11:35:57Z</time>
      </trkpt>
      <trkpt lat="41.6091240" lon="-8.7813140">
        <ele>35.4</ele>
        <time>2021-05-17T11:35:58Z</time>
      </trkpt>
      <trkpt lat="41.6091320" lon="-8.7813210">
        <ele>35.4</ele>
        <time>2021-05-17T11:35:59Z</time>
      </trkpt>
      <trkpt lat="41.6091390" lon="-8.7813280">
        <ele>35.3</ele>
        <time>2021-05-17T11:36:00Z</time>
      </trkpt>
      <trkpt lat="41.6091520" lon="-8.7813350">
        <ele>35.3</ele>
        <time>2021-05-17T11:36:01Z</time>
      </trkpt>
      <trkpt lat="41.6091600" lon="-8.7813450">
        <ele>35.3</ele>
        <time>2021-05-17T11:36:02Z</time>
      </trkpt>
      <trkpt lat="41.6091670" lon="-8.7813480">
        <ele>35.2</ele>
        <time>2021-05-17T11:36:03Z</time>
      </trkpt>
      <trkpt lat="41.6091750" lon="-8.7813530">
        <ele>35.2</ele>
        <time>2021-05-17T11:36:04Z</time>
      </trkpt>
      <trkpt lat="41.6091910" lon="-8.7813640">
        <ele>35.1</ele>
        <time>2021-05-17T11:36:05Z</time>
      </trkpt>
      <trkpt lat="41.6091920" lon="-8.7813710">
        <ele>35.1</ele>
        <time>2021-05-17T11:36:06Z</time>
      </trkpt>
      <trkpt lat="41.6092100" lon="-8.7813780">
        <ele>35.0</ele>
        <time>2021-05-17T11:36:07Z</time>
      </trkpt>
      <trkpt lat="41.6092240" lon="-8.7813810">
        <ele>35.0</ele>
        <time>2021-05-17T11:36:08Z</time>
      </trkpt>
      <trkpt lat="41.6092330" lon="-8.7813900">
        <ele>34.9</ele>
        <time>2021-05-17T11:36:09Z</time>
      </trkpt>
      <trkpt lat="41.6092430" lon="-8.7813960">
        <ele>34.9</ele>
        <time>2021-05-17T11:36:10Z</time>
      </trkpt>
      <trkpt lat="41.6092540" lon="-8.7814050">
        <ele>34.8</ele>
        <time>2021-05-17T11:36:11Z</time>
      </trkpt>
      <trkpt lat="41.6092630" lon="-8.7814130">
        <ele>34.8</ele>
        <time>2021-05-17T11:36:12Z</time>
      </trkpt>
      <trkpt lat="41.6092790" lon="-8.7814210">
        <ele>34.7</ele>
        <time>2021-05-17T11:36:13Z</time>
      </trkpt>
      <trkpt lat="41.6092940" lon="-8.7814360">
        <ele>34.6</ele>
        <time>2021-05-17T11:36:14Z</time>
      </trkpt>
      <trkpt lat="41.6093080" lon="-8.7814460">
        <ele>34.6</ele>
        <time>2021-05-17T11:36:15Z</time>
      </trkpt>
      <trkpt lat="41.6093220" lon="-8.7814580">
        <ele>34.5</ele>
        <time>2021-05-17T11:36:16Z</time>
      </trkpt>
      <trkpt lat="41.6093310" lon="-8.7814650">
        <ele>34.4</ele>
        <time>2021-05-17T11:36:17Z</time>
      </trkpt>
      <trkpt lat="41.6093410" lon="-8.7814710">
        <ele>34.4</ele>
        <time>2021-05-17T11:36:18Z</time>
      </trkpt>
      <trkpt lat="41.6093490" lon="-8.7814800">
        <ele>34.3</ele>
        <time>2021-05-17T11:36:19Z</time>
      </trkpt>
      <trkpt lat="41.6093670" lon="-8.7814940">
        <ele>34.3</ele>
        <time>2021-05-17T11:36:20Z</time>
      </trkpt>
      <trkpt lat="41.6093760" lon="-8.7815020">
        <ele>34.2</ele>
        <time>2021-05-17T11:36:21Z</time>
      </trkpt>
      <trkpt lat="41.6093800" lon="-8.7815050">
        <ele>34.2</ele>
        <time>2021-05-17T11:36:22Z</time>
      </trkpt>
      <trkpt lat="41.6093910" lon="-8.7815200">
        <ele>34.1</ele>
        <time>2021-05-17T11:36:23Z</time>
      </trkpt>
      <trkpt lat="41.6094060" lon="-8.7815330">
        <ele>34.0</ele>
        <time>2021-05-17T11:36:24Z</time>
      </trkpt>
      <trkpt lat="41.6094180" lon="-8.7815410">
        <ele>34.0</ele>
        <time>2021-05-17T11:36:25Z</time>
      </trkpt>
      <trkpt lat="41.6094310" lon="-8.7815600">
        <ele>33.9</ele>
        <time>2021-05-17T11:36:26Z</time>
      </trkpt>
      <trkpt lat="41.6094440" lon="-8.7815720">
        <ele>33.8</ele>
        <time>2021-05-17T11:36:27Z</time>
      </trkpt>
      <trkpt lat="41.6094530" lon="-8.7815720">
        <ele>33.8</ele>
        <time>2021-05-17T11:36:28Z</time>
      </trkpt>
      <trkpt lat="41.6094640" lon="-8.7815840">
        <ele>33.7</ele>
        <time>2021-05-17T11:36:29Z</time>
      </trkpt>
      <trkpt lat="41.6094740" lon="-8.7815840">
        <ele>33.7</ele>
        <time>2021-05-17T11:36:30Z</time>
      </trkpt>
      <trkpt lat="41.6094940" lon="-8.7815930">
        <ele>33.6</ele>
        <time>2021-05-17T11:36:31Z</time>
      </trkpt>
      <trkpt lat="41.6095030" lon="-8.7815920">
        <ele>33.6</ele>
        <time>2021-05-17T11:36:32Z</time>
      </trkpt>
      <trkpt lat="41.6095120" lon="-8.7815920">
        <ele>33.5</ele>
        <time>2021-05-17T11:36:33Z</time>
      </trkpt>
      <trkpt lat="41.6095200" lon="-8.7816070">
        <ele>33.5</ele>
        <time>2021-05-17T11:36:34Z</time>
      </trkpt>
      <trkpt lat="41.6095300" lon="-8.7816230">
        <ele>33.4</ele>
        <time>2021-05-17T11:36:35Z</time>
      </trkpt>
      <trkpt lat="41.6095490" lon="-8.7816320">
        <ele>33.3</ele>
        <time>2021-05-17T11:36:36Z</time>
      </trkpt>
      <trkpt lat="41.6095600" lon="-8.7816370">
        <ele>33.3</ele>
        <time>2021-05-17T11:36:37Z</time>
      </trkpt>
      <trkpt lat="41.6095700" lon="-8.7816410">
        <ele>33.2</ele>
        <time>2021-05-17T11:36:38Z</time>
      </trkpt>
      <trkpt lat="41.6095910" lon="-8.7816350">
        <ele>33.1</ele>
        <time>2021-05-17T11:36:39Z</time>
      </trkpt>
      <trkpt lat="41.6096020" lon="-8.7816390">
        <ele>33.1</ele>
        <time>2021-05-17T11:36:40Z</time>
      </trkpt>
      <trkpt lat="41.6096150" lon="-8.7816490">
        <ele>33.0</ele>
        <time>2021-05-17T11:36:41Z</time>
      </trkpt>
      <trkpt lat="41.6096220" lon="-8.7816540">
        <ele>33.0</ele>
        <time>2021-05-17T11:36:42Z</time>
      </trkpt>
      <trkpt lat="41.6096280" lon="-8.7816590">
        <ele>33.0</ele>
        <time>2021-05-17T11:36:43Z</time>
      </trkpt>
      <trkpt lat="41.6096350" lon="-8.7816640">
        <ele>33.0</ele>
        <time>2021-05-17T11:36:44Z</time>
      </trkpt>
      <trkpt lat="41.6096430" lon="-8.7816630">
        <ele>32.9</ele>
        <time>2021-05-17T11:36:45Z</time>
      </trkpt>
      <trkpt lat="41.6096530" lon="-8.7816670">
        <ele>32.9</ele>
        <time>2021-05-17T11:36:46Z</time>
      </trkpt>
      <trkpt lat="41.6096660" lon="-8.7816690">
        <ele>32.9</ele>
        <time>2021-05-17T11:36:47Z</time>
      </trkpt>
      <trkpt lat="41.6096880" lon="-8.7816800">
        <ele>32.8</ele>
        <time>2021-05-17T11:36:48Z</time>
      </trkpt>
      <trkpt lat="41.6096940" lon="-8.7816820">
        <ele>32.8</ele>
        <time>2021-05-17T11:36:49Z</time>
      </trkpt>
      <trkpt lat="41.6097010" lon="-8.7816850">
        <ele>32.7</ele>
        <time>2021-05-17T11:36:50Z</time>
      </trkpt>
      <trkpt lat="41.6097210" lon="-8.7816900">
        <ele>32.7</ele>
        <time>2021-05-17T11:36:51Z</time>
      </trkpt>
      <trkpt lat="41.6097310" lon="-8.7816950">
        <ele>32.6</ele>
        <time>2021-05-17T11:36:52Z</time>
      </trkpt>
      <trkpt lat="41.6097400" lon="-8.7817000">
        <ele>32.6</ele>
        <time>2021-05-17T11:36:53Z</time>
      </trkpt>
      <trkpt lat="41.6097490" lon="-8.7817030">
        <ele>32.6</ele>
        <time>2021-05-17T11:36:54Z</time>
      </trkpt>
      <trkpt lat="41.6097590" lon="-8.7817030">
        <ele>32.5</ele>
        <time>2021-05-17T11:36:55Z</time>
      </trkpt>
      <trkpt lat="41.6097700" lon="-8.7817030">
        <ele>32.5</ele>
        <time>2021-05-17T11:36:56Z</time>
      </trkpt>
      <trkpt lat="41.6097820" lon="-8.7817000">
        <ele>32.4</ele>
        <time>2021-05-17T11:36:57Z</time>
      </trkpt>
      <trkpt lat="41.6097850" lon="-8.7816950">
        <ele>32.4</ele>
        <time>2021-05-17T11:36:58Z</time>
      </trkpt>
      <trkpt lat="41.6098020" lon="-8.7817030">
        <ele>32.3</ele>
        <time>2021-05-17T11:36:59Z</time>
      </trkpt>
      <trkpt lat="41.6098130" lon="-8.7817020">
        <ele>32.3</ele>
        <time>2021-05-17T11:37:00Z</time>
      </trkpt>
      <trkpt lat="41.6098200" lon="-8.7817030">
        <ele>32.3</ele>
        <time>2021-05-17T11:37:01Z</time>
      </trkpt>
      <trkpt lat="41.6098380" lon="-8.7817130">
        <ele>32.2</ele>
        <time>2021-05-17T11:37:02Z</time>
      </trkpt>
      <trkpt lat="41.6098490" lon="-8.7817200">
        <ele>32.1</ele>
        <time>2021-05-17T11:37:03Z</time>
      </trkpt>
      <trkpt lat="41.6098560" lon="-8.7817270">
        <ele>32.1</ele>
        <time>2021-05-17T11:37:04Z</time>
      </trkpt>
      <trkpt lat="41.6098710" lon="-8.7817300">
        <ele>32.1</ele>
        <time>2021-05-17T11:37:05Z</time>
      </trkpt>
      <trkpt lat="41.6098850" lon="-8.7817310">
        <ele>32.0</ele>
        <time>2021-05-17T11:37:06Z</time>
      </trkpt>
      <trkpt lat="41.6099040" lon="-8.7817400">
        <ele>31.9</ele>
        <time>2021-05-17T11:37:07Z</time>
      </trkpt>
      <trkpt lat="41.6099320" lon="-8.7817410">
        <ele>31.8</ele>
        <time>2021-05-17T11:37:08Z</time>
      </trkpt>
      <trkpt lat="41.6099430" lon="-8.7817390">
        <ele>31.8</ele>
        <time>2021-05-17T11:37:09Z</time>
      </trkpt>
      <trkpt lat="41.6099620" lon="-8.7817470">
        <ele>31.7</ele>
        <time>2021-05-17T11:37:10Z</time>
      </trkpt>
      <trkpt lat="41.6099750" lon="-8.7817490">
        <ele>31.6</ele>
        <time>2021-05-17T11:37:11Z</time>
      </trkpt>
      <trkpt lat="41.6099960" lon="-8.7817530">
        <ele>31.6</ele>
        <time>2021-05-17T11:37:12Z</time>
      </trkpt>
      <trkpt lat="41.6100060" lon="-8.7817550">
        <ele>31.5</ele>
        <time>2021-05-17T11:37:13Z</time>
      </trkpt>
      <trkpt lat="41.6100160" lon="-8.7817570">
        <ele>31.5</ele>
        <time>2021-05-17T11:37:14Z</time>
      </trkpt>
      <trkpt lat="41.6100340" lon="-8.7817600">
        <ele>31.4</ele>
        <time>2021-05-17T11:37:15Z</time>
      </trkpt>
      <trkpt lat="41.6100430" lon="-8.7817600">
        <ele>31.4</ele>
        <time>2021-05-17T11:37:16Z</time>
      </trkpt>
      <trkpt lat="41.6100520" lon="-8.7817590">
        <ele>31.4</ele>
        <time>2021-05-17T11:37:17Z</time>
      </trkpt>
      <trkpt lat="41.6100750" lon="-8.7817480">
        <ele>31.3</ele>
        <time>2021-05-17T11:37:18Z</time>
      </trkpt>
      <trkpt lat="41.6100840" lon="-8.7817440">
        <ele>31.3</ele>
        <time>2021-05-17T11:37:19Z</time>
      </trkpt>
      <trkpt lat="41.6100920" lon="-8.7817400">
        <ele>31.2</ele>
        <time>2021-05-17T11:37:20Z</time>
      </trkpt>
      <trkpt lat="41.6101210" lon="-8.7817340">
        <ele>31.1</ele>
        <time>2021-05-17T11:37:21Z</time>
      </trkpt>
      <trkpt lat="41.6101340" lon="-8.7817340">
        <ele>31.1</ele>
        <time>2021-05-17T11:37:22Z</time>
      </trkpt>
      <trkpt lat="41.6101490" lon="-8.7817160">
        <ele>31.1</ele>
        <time>2021-05-17T11:37:23Z</time>
      </trkpt>
      <trkpt lat="41.6101640" lon="-8.7817070">
        <ele>31.0</ele>
        <time>2021-05-17T11:37:24Z</time>
      </trkpt>
      <trkpt lat="41.6101780" lon="-8.7816900">
        <ele>31.0</ele>
        <time>2021-05-17T11:37:25Z</time>
      </trkpt>
      <trkpt lat="41.6101890" lon="-8.7816860">
        <ele>30.9</ele>
        <time>2021-05-17T11:37:26Z</time>
      </trkpt>
      <trkpt lat="41.6102000" lon="-8.7816810">
        <ele>30.9</ele>
        <time>2021-05-17T11:37:27Z</time>
      </trkpt>
      <trkpt lat="41.6102170" lon="-8.7816690">
        <ele>30.9</ele>
        <time>2021-05-17T11:37:28Z</time>
      </trkpt>
      <trkpt lat="41.6102320" lon="-8.7816600">
        <ele>30.8</ele>
        <time>2021-05-17T11:37:29Z</time>
      </trkpt>
      <trkpt lat="41.6102420" lon="-8.7816520">
        <ele>30.8</ele>
        <time>2021-05-17T11:37:30Z</time>
      </trkpt>
      <trkpt lat="41.6102550" lon="-8.7816320">
        <ele>30.8</ele>
        <time>2021-05-17T11:37:31Z</time>
      </trkpt>
      <trkpt lat="41.6102700" lon="-8.7816120">
        <ele>30.7</ele>
        <time>2021-05-17T11:37:32Z</time>
      </trkpt>
      <trkpt lat="41.6102780" lon="-8.7816020">
        <ele>30.7</ele>
        <time>2021-05-17T11:37:33Z</time>
      </trkpt>
      <trkpt lat="41.6102850" lon="-8.7815910">
        <ele>30.7</ele>
        <time>2021-05-17T11:37:34Z</time>
      </trkpt>
      <trkpt lat="41.6102940" lon="-8.7815740">
        <ele>30.7</ele>
        <time>2021-05-17T11:37:35Z</time>
      </trkpt>
      <trkpt lat="41.6103110" lon="-8.7815590">
        <ele>30.6</ele>
        <time>2021-05-17T11:37:36Z</time>
      </trkpt>
      <trkpt lat="41.6103270" lon="-8.7815470">
        <ele>30.6</ele>
        <time>2021-05-17T11:37:37Z</time>
      </trkpt>
      <trkpt lat="41.6103360" lon="-8.7815420">
        <ele>30.6</ele>
        <time>2021-05-17T11:37:38Z</time>
      </trkpt>
      <trkpt lat="41.6103440" lon="-8.7815360">
        <ele>30.5</ele>
        <time>2021-05-17T11:37:39Z</time>
      </trkpt>
      <trkpt lat="41.6103590" lon="-8.7815270">
        <ele>30.5</ele>
        <time>2021-05-17T11:37:40Z</time>
      </trkpt>
      <trkpt lat="41.6103700" lon="-8.7815180">
        <ele>30.5</ele>
        <time>2021-05-17T11:37:41Z</time>
      </trkpt>
      <trkpt lat="41.6103870" lon="-8.7815040">
        <ele>30.4</ele>
        <time>2021-05-17T11:37:42Z</time>
      </trkpt>
      <trkpt lat="41.6103950" lon="-8.7814970">
        <ele>30.4</ele>
        <time>2021-05-17T11:37:43Z</time>
      </trkpt>
      <trkpt lat="41.6104050" lon="-8.7814830">
        <ele>30.4</ele>
        <time>2021-05-17T11:37:44Z</time>
      </trkpt>
      <trkpt lat="41.6104210" lon="-8.7814730">
        <ele>30.3</ele>
        <time>2021-05-17T11:37:45Z</time>
      </trkpt>
      <trkpt lat="41.6104260" lon="-8.7814710">
        <ele>30.3</ele>
        <time>2021-05-17T11:37:46Z</time>
      </trkpt>
      <trkpt lat="41.6104400" lon="-8.7814610">
        <ele>30.3</ele>
        <time>2021-05-17T11:37:47Z</time>
      </trkpt>
      <trkpt lat="41.6104510" lon="-8.7814500">
        <ele>30.2</ele>
        <time>2021-05-17T11:37:48Z</time>
      </trkpt>
      <trkpt lat="41.6104680" lon="-8.7814360">
        <ele>30.2</ele>
        <time>2021-05-17T11:37:49Z</time>
      </trkpt>
      <trkpt lat="41.6104780" lon="-8.7814190">
        <ele>30.1</ele>
        <time>2021-05-17T11:37:50Z</time>
      </trkpt>
      <trkpt lat="41.6104830" lon="-8.7814110">
        <ele>30.1</ele>
        <time>2021-05-17T11:37:51Z</time>
      </trkpt>
      <trkpt lat="41.6104830" lon="-8.7814190">
        <ele>30.1</ele>
        <time>2021-05-17T11:37:52Z</time>
      </trkpt>
      <trkpt lat="41.6104930" lon="-8.7814310">
        <ele>30.0</ele>
        <time>2021-05-17T11:37:53Z</time>
      </trkpt>
      <trkpt lat="41.6105000" lon="-8.7814420">
        <ele>30.0</ele>
        <time>2021-05-17T11:37:54Z</time>
      </trkpt>
      <trkpt lat="41.6105030" lon="-8.7814480">
        <ele>30.0</ele>
        <time>2021-05-17T11:37:55Z</time>
      </trkpt>
      <trkpt lat="41.6105120" lon="-8.7814540">
        <ele>29.9</ele>
        <time>2021-05-17T11:37:56Z</time>
      </trkpt>
      <trkpt lat="41.6105210" lon="-8.7814710">
        <ele>29.9</ele>
        <time>2021-05-17T11:37:57Z</time>
      </trkpt>
      <trkpt lat="41.6105290" lon="-8.7814770">
        <ele>29.9</ele>
        <time>2021-05-17T11:37:58Z</time>
      </trkpt>
      <trkpt lat="41.6105420" lon="-8.7814810">
        <ele>29.8</ele>
        <time>2021-05-17T11:37:59Z</time>
      </trkpt>
      <trkpt lat="41.6105540" lon="-8.7814870">
        <ele>29.8</ele>
        <time>2021-05-17T11:38:00Z</time>
      </trkpt>
      <trkpt lat="41.6105660" lon="-8.7814890">
        <ele>29.7</ele>
        <time>2021-05-17T11:38:01Z</time>
      </trkpt>
      <trkpt lat="41.6105760" lon="-8.7814930">
        <ele>29.7</ele>
        <time>2021-05-17T11:38:02Z</time>
      </trkpt>
      <trkpt lat="41.6105850" lon="-8.7814980">
        <ele>29.6</ele>
        <time>2021-05-17T11:38:03Z</time>
      </trkpt>
      <trkpt lat="41.6105950" lon="-8.7815030">
        <ele>29.6</ele>
        <time>2021-05-17T11:38:04Z</time>
      </trkpt>
      <trkpt lat="41.6106130" lon="-8.7815140">
        <ele>29.5</ele>
        <time>2021-05-17T11:38:05Z</time>
      </trkpt>
      <trkpt lat="41.6106210" lon="-8.7815190">
        <ele>29.5</ele>
        <time>2021-05-17T11:38:06Z</time>
      </trkpt>
      <trkpt lat="41.6106280" lon="-8.7815230">
        <ele>29.5</ele>
        <time>2021-05-17T11:38:07Z</time>
      </trkpt>
      <trkpt lat="41.6106470" lon="-8.7815310">
        <ele>29.4</ele>
        <time>2021-05-17T11:38:08Z</time>
      </trkpt>
      <trkpt lat="41.6106530" lon="-8.7815320">
        <ele>29.4</ele>
        <time>2021-05-17T11:38:09Z</time>
      </trkpt>
      <trkpt lat="41.6106600" lon="-8.7815330">
        <ele>29.3</ele>
        <time>2021-05-17T11:38:10Z</time>
      </trkpt>
      <trkpt lat="41.6106660" lon="-8.7815340">
        <ele>29.3</ele>
        <time>2021-05-17T11:38:11Z</time>
      </trkpt>
      <trkpt lat="41.6106960" lon="-8.7815370">
        <ele>29.2</ele>
        <time>2021-05-17T11:38:12Z</time>
      </trkpt>
      <trkpt lat="41.6107040" lon="-8.7815400">
        <ele>29.2</ele>
        <time>2021-05-17T11:38:13Z</time>
      </trkpt>
      <trkpt lat="41.6107170" lon="-8.7815470">
        <ele>29.1</ele>
        <time>2021-05-17T11:38:14Z</time>
      </trkpt>
      <trkpt lat="41.6107320" lon="-8.7815460">
        <ele>29.1</ele>
        <time>2021-05-17T11:38:15Z</time>
      </trkpt>
      <trkpt lat="41.6107410" lon="-8.7815530">
        <ele>29.0</ele>
        <time>2021-05-17T11:38:16Z</time>
      </trkpt>
      <trkpt lat="41.6107440" lon="-8.7815550">
        <ele>29.0</ele>
        <time>2021-05-17T11:38:17Z</time>
      </trkpt>
      <trkpt lat="41.6107540" lon="-8.7815620">
        <ele>29.0</ele>
        <time>2021-05-17T11:38:18Z</time>
      </trkpt>
      <trkpt lat="41.6107600" lon="-8.7815680">
        <ele>28.9</ele>
        <time>2021-05-17T11:38:19Z</time>
      </trkpt>
      <trkpt lat="41.6107790" lon="-8.7815740">
        <ele>28.8</ele>
        <time>2021-05-17T11:38:20Z</time>
      </trkpt>
      <trkpt lat="41.6107880" lon="-8.7815780">
        <ele>28.8</ele>
        <time>2021-05-17T11:38:21Z</time>
      </trkpt>
      <trkpt lat="41.6107970" lon="-8.7815810">
        <ele>28.8</ele>
        <time>2021-05-17T11:38:22Z</time>
      </trkpt>
      <trkpt lat="41.6108060" lon="-8.7815850">
        <ele>28.7</ele>
        <time>2021-05-17T11:38:23Z</time>
      </trkpt>
      <trkpt lat="41.6108200" lon="-8.7815790">
        <ele>28.7</ele>
        <time>2021-05-17T11:38:24Z</time>
      </trkpt>
      <trkpt lat="41.6108400" lon="-8.7815740">
        <ele>28.6</ele>
        <time>2021-05-17T11:38:25Z</time>
      </trkpt>
      <trkpt lat="41.6108550" lon="-8.7815770">
        <ele>28.5</ele>
        <time>2021-05-17T11:38:26Z</time>
      </trkpt>
      <trkpt lat="41.6108750" lon="-8.7815880">
        <ele>28.4</ele>
        <time>2021-05-17T11:38:27Z</time>
      </trkpt>
      <trkpt lat="41.6108870" lon="-8.7815920">
        <ele>28.3</ele>
        <time>2021-05-17T11:38:28Z</time>
      </trkpt>
      <trkpt lat="41.6109040" lon="-8.7816060">
        <ele>28.2</ele>
        <time>2021-05-17T11:38:29Z</time>
      </trkpt>
      <trkpt lat="41.6109240" lon="-8.7816160">
        <ele>28.1</ele>
        <time>2021-05-17T11:38:30Z</time>
      </trkpt>
      <trkpt lat="41.6109360" lon="-8.7816190">
        <ele>28.1</ele>
        <time>2021-05-17T11:38:31Z</time>
      </trkpt>
      <trkpt lat="41.6109540" lon="-8.7816180">
        <ele>28.0</ele>
        <time>2021-05-17T11:38:32Z</time>
      </trkpt>
      <trkpt lat="41.6109680" lon="-8.7816240">
        <ele>27.9</ele>
        <time>2021-05-17T11:38:33Z</time>
      </trkpt>
      <trkpt lat="41.6109790" lon="-8.7816290">
        <ele>27.8</ele>
        <time>2021-05-17T11:38:34Z</time>
      </trkpt>
      <trkpt lat="41.6109870" lon="-8.7816370">
        <ele>27.8</ele>
        <time>2021-05-17T11:38:35Z</time>
      </trkpt>
      <trkpt lat="41.6109940" lon="-8.7816500">
        <ele>27.7</ele>
        <time>2021-05-17T11:38:36Z</time>
      </trkpt>
      <trkpt lat="41.6110150" lon="-8.7816620">
        <ele>27.6</ele>
        <time>2021-05-17T11:38:37Z</time>
      </trkpt>
      <trkpt lat="41.6110260" lon="-8.7816670">
        <ele>27.6</ele>
        <time>2021-05-17T11:38:38Z</time>
      </trkpt>
      <trkpt lat="41.6110360" lon="-8.7816730">
        <ele>27.5</ele>
        <time>2021-05-17T11:38:39Z</time>
      </trkpt>
      <trkpt lat="41.6110480" lon="-8.7816780">
        <ele>27.4</ele>
        <time>2021-05-17T11:38:40Z</time>
      </trkpt>
      <trkpt lat="41.6110530" lon="-8.7816830">
        <ele>27.4</ele>
        <time>2021-05-17T11:38:41Z</time>
      </trkpt>
      <trkpt lat="41.6110640" lon="-8.7816910">
        <ele>27.3</ele>
        <time>2021-05-17T11:38:42Z</time>
      </trkpt>
      <trkpt lat="41.6110760" lon="-8.7816980">
        <ele>27.3</ele>
        <time>2021-05-17T11:38:43Z</time>
      </trkpt>
      <trkpt lat="41.6110830" lon="-8.7817040">
        <ele>27.2</ele>
        <time>2021-05-17T11:38:44Z</time>
      </trkpt>
      <trkpt lat="41.6110890" lon="-8.7817130">
        <ele>27.2</ele>
        <time>2021-05-17T11:38:45Z</time>
      </trkpt>
      <trkpt lat="41.6111040" lon="-8.7817270">
        <ele>27.1</ele>
        <time>2021-05-17T11:38:46Z</time>
      </trkpt>
      <trkpt lat="41.6111140" lon="-8.7817350">
        <ele>27.0</ele>
        <time>2021-05-17T11:38:47Z</time>
      </trkpt>
      <trkpt lat="41.6111240" lon="-8.7817420">
        <ele>27.0</ele>
        <time>2021-05-17T11:38:48Z</time>
      </trkpt>
      <trkpt lat="41.6111310" lon="-8.7817490">
        <ele>26.9</ele>
        <time>2021-05-17T11:38:49Z</time>
      </trkpt>
      <trkpt lat="41.6111440" lon="-8.7817680">
        <ele>26.8</ele>
        <time>2021-05-17T11:38:50Z</time>
      </trkpt>
      <trkpt lat="41.6111490" lon="-8.7817820">
        <ele>26.8</ele>
        <time>2021-05-17T11:38:51Z</time>
      </trkpt>
      <trkpt lat="41.6111590" lon="-8.7817930">
        <ele>26.7</ele>
        <time>2021-05-17T11:38:52Z</time>
      </trkpt>
      <trkpt lat="41.6111670" lon="-8.7817930">
        <ele>26.7</ele>
        <time>2021-05-17T11:38:53Z</time>
      </trkpt>
      <trkpt lat="41.6111820" lon="-8.7818070">
        <ele>26.6</ele>
        <time>2021-05-17T11:38:54Z</time>
      </trkpt>
      <trkpt lat="41.6111900" lon="-8.7818140">
        <ele>26.6</ele>
        <time>2021-05-17T11:38:55Z</time>
      </trkpt>
      <trkpt lat="41.6111970" lon="-8.7818220">
        <ele>26.5</ele>
        <time>2021-05-17T11:38:56Z</time>
      </trkpt>
      <trkpt lat="41.6112040" lon="-8.7818290">
        <ele>26.5</ele>
        <time>2021-05-17T11:38:57Z</time>
      </trkpt>
      <trkpt lat="41.6112240" lon="-8.7818610">
        <ele>26.4</ele>
        <time>2021-05-17T11:38:58Z</time>
      </trkpt>
      <trkpt lat="41.6112300" lon="-8.7818710">
        <ele>26.3</ele>
        <time>2021-05-17T11:38:59Z</time>
      </trkpt>
      <trkpt lat="41.6112380" lon="-8.7818880">
        <ele>26.3</ele>
        <time>2021-05-17T11:39:00Z</time>
      </trkpt>
      <trkpt lat="41.6112460" lon="-8.7819020">
        <ele>26.2</ele>
        <time>2021-05-17T11:39:01Z</time>
      </trkpt>
      <trkpt lat="41.6112530" lon="-8.7819040">
        <ele>26.2</ele>
        <time>2021-05-17T11:39:02Z</time>
      </trkpt>
      <trkpt lat="41.6112590" lon="-8.7819200">
        <ele>26.2</ele>
        <time>2021-05-17T11:39:03Z</time>
      </trkpt>
      <trkpt lat="41.6112730" lon="-8.7819220">
        <ele>26.1</ele>
        <time>2021-05-17T11:39:04Z</time>
      </trkpt>
      <trkpt lat="41.6112840" lon="-8.7819290">
        <ele>26.1</ele>
        <time>2021-05-17T11:39:05Z</time>
      </trkpt>
      <trkpt lat="41.6112950" lon="-8.7819400">
        <ele>26.0</ele>
        <time>2021-05-17T11:39:06Z</time>
      </trkpt>
      <trkpt lat="41.6113010" lon="-8.7819370">
        <ele>26.0</ele>
        <time>2021-05-17T11:39:07Z</time>
      </trkpt>
      <trkpt lat="41.6113180" lon="-8.7819330">
        <ele>25.9</ele>
        <time>2021-05-17T11:39:08Z</time>
      </trkpt>
      <trkpt lat="41.6113360" lon="-8.7819400">
        <ele>25.9</ele>
        <time>2021-05-17T11:39:09Z</time>
      </trkpt>
      <trkpt lat="41.6113520" lon="-8.7819470">
        <ele>25.8</ele>
        <time>2021-05-17T11:39:10Z</time>
      </trkpt>
      <trkpt lat="41.6113610" lon="-8.7819480">
        <ele>25.8</ele>
        <time>2021-05-17T11:39:11Z</time>
      </trkpt>
      <trkpt lat="41.6113700" lon="-8.7819510">
        <ele>25.7</ele>
        <time>2021-05-17T11:39:12Z</time>
      </trkpt>
      <trkpt lat="41.6113840" lon="-8.7819500">
        <ele>25.7</ele>
        <time>2021-05-17T11:39:13Z</time>
      </trkpt>
      <trkpt lat="41.6113860" lon="-8.7819520">
        <ele>25.7</ele>
        <time>2021-05-17T11:39:14Z</time>
      </trkpt>
      <trkpt lat="41.6113970" lon="-8.7819600">
        <ele>25.6</ele>
        <time>2021-05-17T11:39:15Z</time>
      </trkpt>
      <trkpt lat="41.6114070" lon="-8.7819660">
        <ele>25.6</ele>
        <time>2021-05-17T11:39:16Z</time>
      </trkpt>
      <trkpt lat="41.6114240" lon="-8.7819760">
        <ele>25.5</ele>
        <time>2021-05-17T11:39:17Z</time>
      </trkpt>
      <trkpt lat="41.6114360" lon="-8.7819850">
        <ele>25.4</ele>
        <time>2021-05-17T11:39:18Z</time>
      </trkpt>
      <trkpt lat="41.6114500" lon="-8.7819910">
        <ele>25.4</ele>
        <time>2021-05-17T11:39:19Z</time>
      </trkpt>
      <trkpt lat="41.6114620" lon="-8.7819840">
        <ele>25.3</ele>
        <time>2021-05-17T11:39:20Z</time>
      </trkpt>
      <trkpt lat="41.6114740" lon="-8.7819840">
        <ele>25.3</ele>
        <time>2021-05-17T11:39:21Z</time>
      </trkpt>
      <trkpt lat="41.6114770" lon="-8.7819810">
        <ele>25.3</ele>
        <time>2021-05-17T11:39:22Z</time>
      </trkpt>
      <trkpt lat="41.6114780" lon="-8.7819820">
        <ele>25.3</ele>
        <time>2021-05-17T11:39:23Z</time>
      </trkpt>
      <trkpt lat="41.6114830" lon="-8.7819840">
        <ele>25.2</ele>
        <time>2021-05-17T11:39:24Z</time>
      </trkpt>
      <trkpt lat="41.6114900" lon="-8.7819800">
        <ele>25.2</ele>
        <time>2021-05-17T11:39:25Z</time>
      </trkpt>
      <trkpt lat="41.6114880" lon="-8.7819780">
        <ele>25.2</ele>
        <time>2021-05-17T11:39:26Z</time>
      </trkpt>
      <trkpt lat="41.6114900" lon="-8.7819840">
        <ele>25.2</ele>
        <time>2021-05-17T11:39:27Z</time>
      </trkpt>
      <trkpt lat="41.6114900" lon="-8.7819860">
        <ele>25.2</ele>
        <time>2021-05-17T11:39:28Z</time>
      </trkpt>
      <trkpt lat="41.6114940" lon="-8.7819820">
        <ele>25.1</ele>
        <time>2021-05-17T11:39:29Z</time>
      </trkpt>
      <trkpt lat="41.6114910" lon="-8.7819860">
        <ele>25.1</ele>
        <time>2021-05-17T11:39:30Z</time>
      </trkpt>
      <trkpt lat="41.6114840" lon="-8.7819940">
        <ele>25.1</ele>
        <time>2021-05-17T11:39:31Z</time>
      </trkpt>
      <trkpt lat="41.6114860" lon="-8.7819930">
        <ele>25.0</ele>
        <time>2021-05-17T11:39:32Z</time>
      </trkpt>
      <trkpt lat="41.6114880" lon="-8.7819890">
        <ele>25.0</ele>
        <time>2021-05-17T11:39:33Z</time>
      </trkpt>
      <trkpt lat="41.6114910" lon="-8.7819890">
        <ele>25.0</ele>
        <time>2021-05-17T11:39:34Z</time>
      </trkpt>
      <trkpt lat="41.6115050" lon="-8.7819870">
        <ele>24.9</ele>
        <time>2021-05-17T11:39:35Z</time>
      </trkpt>
      <trkpt lat="41.6115060" lon="-8.7819880">
        <ele>24.9</ele>
        <time>2021-05-17T11:39:36Z</time>
      </trkpt>
      <trkpt lat="41.6115140" lon="-8.7819920">
        <ele>24.9</ele>
        <time>2021-05-17T11:39:37Z</time>
      </trkpt>
      <trkpt lat="41.6115140" lon="-8.7819920">
        <ele>24.9</ele>
        <time>2021-05-17T11:39:38Z</time>
      </trkpt>
      <trkpt lat="41.6115150" lon="-8.7819920">
        <ele>24.9</ele>
        <time>2021-05-17T11:39:39Z</time>
      </trkpt>
      <trkpt lat="41.6115150" lon="-8.7819880">
        <ele>24.9</ele>
        <time>2021-05-17T11:39:40Z</time>
      </trkpt>
      <trkpt lat="41.6115200" lon="-8.7819850">
        <ele>24.8</ele>
        <time>2021-05-17T11:39:41Z</time>
      </trkpt>
      <trkpt lat="41.6115190" lon="-8.7819830">
        <ele>24.8</ele>
        <time>2021-05-17T11:39:42Z</time>
      </trkpt>
      <trkpt lat="41.6115200" lon="-8.7819740">
        <ele>24.8</ele>
        <time>2021-05-17T11:39:43Z</time>
      </trkpt>
      <trkpt lat="41.6115210" lon="-8.7819750">
        <ele>24.8</ele>
        <time>2021-05-17T11:39:44Z</time>
      </trkpt>
      <trkpt lat="41.6115250" lon="-8.7819730">
        <ele>24.7</ele>
        <time>2021-05-17T11:39:45Z</time>
      </trkpt>
      <trkpt lat="41.6115260" lon="-8.7819710">
        <ele>24.7</ele>
        <time>2021-05-17T11:39:46Z</time>
      </trkpt>
      <trkpt lat="41.6115170" lon="-8.7819750">
        <ele>24.7</ele>
        <time>2021-05-17T11:39:47Z</time>
      </trkpt>
      <trkpt lat="41.6115170" lon="-8.7819750">
        <ele>24.7</ele>
        <time>2021-05-17T11:39:48Z</time>
      </trkpt>
      <trkpt lat="41.6115120" lon="-8.7819680">
        <ele>24.6</ele>
        <time>2021-05-17T11:39:49Z</time>
      </trkpt>
      <trkpt lat="41.6115150" lon="-8.7819680">
        <ele>24.6</ele>
        <time>2021-05-17T11:39:50Z</time>
      </trkpt>
      <trkpt lat="41.6115210" lon="-8.7819730">
        <ele>24.6</ele>
        <time>2021-05-17T11:39:51Z</time>
      </trkpt>
      <trkpt lat="41.6115260" lon="-8.7819810">
        <ele>24.5</ele>
        <time>2021-05-17T11:39:52Z</time>
      </trkpt>
      <trkpt lat="41.6115260" lon="-8.7819870">
        <ele>24.5</ele>
        <time>2021-05-17T11:39:53Z</time>
      </trkpt>
      <trkpt lat="41.6115310" lon="-8.7820000">
        <ele>24.4</ele>
        <time>2021-05-17T11:39:54Z</time>
      </trkpt>
      <trkpt lat="41.6115450" lon="-8.7820180">
        <ele>24.3</ele>
        <time>2021-05-17T11:39:55Z</time>
      </trkpt>
      <trkpt lat="41.6115520" lon="-8.7820200">
        <ele>24.2</ele>
        <time>2021-05-17T11:39:56Z</time>
      </trkpt>
      <trkpt lat="41.6115580" lon="-8.7820230">
        <ele>24.2</ele>
        <time>2021-05-17T11:39:57Z</time>
      </trkpt>
      <trkpt lat="41.6115640" lon="-8.7820260">
        <ele>24.1</ele>
        <time>2021-05-17T11:39:58Z</time>
      </trkpt>
      <trkpt lat="41.6115720" lon="-8.7820330">
        <ele>24.0</ele>
        <time>2021-05-17T11:39:59Z</time>
      </trkpt>
      <trkpt lat="41.6115760" lon="-8.7820320">
        <ele>24.0</ele>
        <time>2021-05-17T11:40:00Z</time>
      </trkpt>
      <trkpt lat="41.6115880" lon="-8.7820320">
        <ele>23.9</ele>
        <time>2021-05-17T11:40:01Z</time>
      </trkpt>
      <trkpt lat="41.6115920" lon="-8.7820290">
        <ele>23.9</ele>
        <time>2021-05-17T11:40:02Z</time>
      </trkpt>
      <trkpt lat="41.6116030" lon="-8.7820310">
        <ele>23.8</ele>
        <time>2021-05-17T11:40:03Z</time>
      </trkpt>
      <trkpt lat="41.6116110" lon="-8.7820300">
        <ele>23.7</ele>
        <time>2021-05-17T11:40:04Z</time>
      </trkpt>
      <trkpt lat="41.6116200" lon="-8.7820300">
        <ele>23.7</ele>
        <time>2021-05-17T11:40:05Z</time>
      </trkpt>
      <trkpt lat="41.6116280" lon="-8.7820290">
        <ele>23.7</ele>
        <time>2021-05-17T11:40:06Z</time>
      </trkpt>
      <trkpt lat="41.6116410" lon="-8.7820400">
        <ele>23.6</ele>
        <time>2021-05-17T11:40:07Z</time>
      </trkpt>
      <trkpt lat="41.6116480" lon="-8.7820520">
        <ele>23.6</ele>
        <time>2021-05-17T11:40:08Z</time>
      </trkpt>
      <trkpt lat="41.6116550" lon="-8.7820630">
        <ele>23.6</ele>
        <time>2021-05-17T11:40:09Z</time>
      </trkpt>
      <trkpt lat="41.6116680" lon="-8.7820850">
        <ele>23.5</ele>
        <time>2021-05-17T11:40:10Z</time>
      </trkpt>
      <trkpt lat="41.6116760" lon="-8.7820920">
        <ele>23.5</ele>
        <time>2021-05-17T11:40:11Z</time>
      </trkpt>
      <trkpt lat="41.6116800" lon="-8.7820980">
        <ele>23.5</ele>
        <time>2021-05-17T11:40:12Z</time>
      </trkpt>
      <trkpt lat="41.6116760" lon="-8.7821130">
        <ele>23.5</ele>
        <time>2021-05-17T11:40:13Z</time>
      </trkpt>
      <trkpt lat="41.6116730" lon="-8.7821300">
        <ele>23.5</ele>
        <time>2021-05-17T11:40:14Z</time>
      </trkpt>
      <trkpt lat="41.6116670" lon="-8.7821600">
        <ele>23.4</ele>
        <time>2021-05-17T11:40:15Z</time>
      </trkpt>
      <trkpt lat="41.6116650" lon="-8.7821690">
        <ele>23.4</ele>
        <time>2021-05-17T11:40:16Z</time>
      </trkpt>
      <trkpt lat="41.6116630" lon="-8.7821790">
        <ele>23.4</ele>
        <time>2021-05-17T11:40:17Z</time>
      </trkpt>
      <trkpt lat="41.6116650" lon="-8.7821970">
        <ele>23.4</ele>
        <time>2021-05-17T11:40:18Z</time>
      </trkpt>
      <trkpt lat="41.6116610" lon="-8.7822110">
        <ele>23.4</ele>
        <time>2021-05-17T11:40:19Z</time>
      </trkpt>
      <trkpt lat="41.6116570" lon="-8.7822240">
        <ele>23.4</ele>
        <time>2021-05-17T11:40:20Z</time>
      </trkpt>
      <trkpt lat="41.6116520" lon="-8.7822430">
        <ele>23.4</ele>
        <time>2021-05-17T11:40:21Z</time>
      </trkpt>
      <trkpt lat="41.6116510" lon="-8.7822550">
        <ele>23.3</ele>
        <time>2021-05-17T11:40:22Z</time>
      </trkpt>
      <trkpt lat="41.6116490" lon="-8.7822690">
        <ele>23.3</ele>
        <time>2021-05-17T11:40:23Z</time>
      </trkpt>
      <trkpt lat="41.6116450" lon="-8.7822890">
        <ele>23.3</ele>
        <time>2021-05-17T11:40:24Z</time>
      </trkpt>
      <trkpt lat="41.6116370" lon="-8.7823030">
        <ele>23.3</ele>
        <time>2021-05-17T11:40:25Z</time>
      </trkpt>
      <trkpt lat="41.6116280" lon="-8.7823090">
        <ele>23.3</ele>
        <time>2021-05-17T11:40:26Z</time>
      </trkpt>
      <trkpt lat="41.6116190" lon="-8.7823170">
        <ele>23.2</ele>
        <time>2021-05-17T11:40:27Z</time>
      </trkpt>
      <trkpt lat="41.6116130" lon="-8.7823260">
        <ele>23.2</ele>
        <time>2021-05-17T11:40:28Z</time>
      </trkpt>
      <trkpt lat="41.6116090" lon="-8.7823380">
        <ele>23.2</ele>
        <time>2021-05-17T11:40:29Z</time>
      </trkpt>
      <trkpt lat="41.6116000" lon="-8.7823580">
        <ele>23.2</ele>
        <time>2021-05-17T11:40:30Z</time>
      </trkpt>
      <trkpt lat="41.6115940" lon="-8.7823710">
        <ele>23.1</ele>
        <time>2021-05-17T11:40:31Z</time>
      </trkpt>
      <trkpt lat="41.6115850" lon="-8.7823780">
        <ele>23.1</ele>
        <time>2021-05-17T11:40:32Z</time>
      </trkpt>
      <trkpt lat="41.6115780" lon="-8.7823890">
        <ele>23.1</ele>
        <time>2021-05-17T11:40:33Z</time>
      </trkpt>
      <trkpt lat="41.6115680" lon="-8.7824000">
        <ele>23.0</ele>
        <time>2021-05-17T11:40:34Z</time>
      </trkpt>
      <trkpt lat="41.6115620" lon="-8.7824100">
        <ele>23.0</ele>
        <time>2021-05-17T11:40:35Z</time>
      </trkpt>
      <trkpt lat="41.6115540" lon="-8.7824180">
        <ele>23.0</ele>
        <time>2021-05-17T11:40:36Z</time>
      </trkpt>
      <trkpt lat="41.6115420" lon="-8.7824380">
        <ele>22.9</ele>
        <time>2021-05-17T11:40:37Z</time>
      </trkpt>
      <trkpt lat="41.6115290" lon="-8.7824450">
        <ele>22.8</ele>
        <time>2021-05-17T11:40:38Z</time>
      </trkpt>
      <trkpt lat="41.6115200" lon="-8.7824630">
        <ele>22.8</ele>
        <time>2021-05-17T11:40:39Z</time>
      </trkpt>
      <trkpt lat="41.6115160" lon="-8.7824790">
        <ele>22.7</ele>
        <time>2021-05-17T11:40:40Z</time>
      </trkpt>
      <trkpt lat="41.6115030" lon="-8.7825100">
        <ele>22.6</ele>
        <time>2021-05-17T11:40:41Z</time>
      </trkpt>
      <trkpt lat="41.6114980" lon="-8.7825220">
        <ele>22.5</ele>
        <time>2021-05-17T11:40:42Z</time>
      </trkpt>
      <trkpt lat="41.6114920" lon="-8.7825350">
        <ele>22.5</ele>
        <time>2021-05-17T11:40:43Z</time>
      </trkpt>
      <trkpt lat="41.6114860" lon="-8.7825520">
        <ele>22.4</ele>
        <time>2021-05-17T11:40:44Z</time>
      </trkpt>
      <trkpt lat="41.6114850" lon="-8.7825690">
        <ele>22.4</ele>
        <time>2021-05-17T11:40:45Z</time>
      </trkpt>
      <trkpt lat="41.6114800" lon="-8.7825730">
        <ele>22.3</ele>
        <time>2021-05-17T11:40:46Z</time>
      </trkpt>
      <trkpt lat="41.6114760" lon="-8.7825910">
        <ele>22.3</ele>
        <time>2021-05-17T11:40:47Z</time>
      </trkpt>
      <trkpt lat="41.6114730" lon="-8.7826030">
        <ele>22.2</ele>
        <time>2021-05-17T11:40:48Z</time>
      </trkpt>
      <trkpt lat="41.6114710" lon="-8.7826140">
        <ele>22.2</ele>
        <time>2021-05-17T11:40:49Z</time>
      </trkpt>
      <trkpt lat="41.6114680" lon="-8.7826260">
        <ele>22.2</ele>
        <time>2021-05-17T11:40:50Z</time>
      </trkpt>
      <trkpt lat="41.6114650" lon="-8.7826510">
        <ele>22.1</ele>
        <time>2021-05-17T11:40:51Z</time>
      </trkpt>
      <trkpt lat="41.6114550" lon="-8.7826670">
        <ele>22.0</ele>
        <time>2021-05-17T11:40:52Z</time>
      </trkpt>
      <trkpt lat="41.6114460" lon="-8.7826900">
        <ele>22.0</ele>
        <time>2021-05-17T11:40:53Z</time>
      </trkpt>
      <trkpt lat="41.6114360" lon="-8.7827030">
        <ele>21.9</ele>
        <time>2021-05-17T11:40:54Z</time>
      </trkpt>
      <trkpt lat="41.6114230" lon="-8.7827360">
        <ele>21.8</ele>
        <time>2021-05-17T11:40:55Z</time>
      </trkpt>
      <trkpt lat="41.6114170" lon="-8.7827460">
        <ele>21.8</ele>
        <time>2021-05-17T11:40:56Z</time>
      </trkpt>
      <trkpt lat="41.6114130" lon="-8.7827590">
        <ele>21.8</ele>
        <time>2021-05-17T11:40:57Z</time>
      </trkpt>
      <trkpt lat="41.6114150" lon="-8.7827690">
        <ele>21.8</ele>
        <time>2021-05-17T11:40:58Z</time>
      </trkpt>
      <trkpt lat="41.6114120" lon="-8.7827720">
        <ele>21.8</ele>
        <time>2021-05-17T11:40:59Z</time>
      </trkpt>
      <trkpt lat="41.6114040" lon="-8.7827720">
        <ele>21.8</ele>
        <time>2021-05-17T11:41:00Z</time>
      </trkpt>
      <trkpt lat="41.6113930" lon="-8.7827770">
        <ele>21.7</ele>
        <time>2021-05-17T11:41:01Z</time>
      </trkpt>
      <trkpt lat="41.6113870" lon="-8.7827950">
        <ele>21.7</ele>
        <time>2021-05-17T11:41:02Z</time>
      </trkpt>
      <trkpt lat="41.6113860" lon="-8.7828060">
        <ele>21.7</ele>
        <time>2021-05-17T11:41:03Z</time>
      </trkpt>
      <trkpt lat="41.6113840" lon="-8.7828160">
        <ele>21.7</ele>
        <time>2021-05-17T11:41:04Z</time>
      </trkpt>
      <trkpt lat="41.6113830" lon="-8.7828260">
        <ele>21.7</ele>
        <time>2021-05-17T11:41:05Z</time>
      </trkpt>
      <trkpt lat="41.6113890" lon="-8.7828440">
        <ele>21.7</ele>
        <time>2021-05-17T11:41:06Z</time>
      </trkpt>
      <trkpt lat="41.6113910" lon="-8.7828550">
        <ele>21.6</ele>
        <time>2021-05-17T11:41:07Z</time>
      </trkpt>
      <trkpt lat="41.6113880" lon="-8.7828650">
        <ele>21.6</ele>
        <time>2021-05-17T11:41:08Z</time>
      </trkpt>
      <trkpt lat="41.6113870" lon="-8.7828810">
        <ele>21.6</ele>
        <time>2021-05-17T11:41:09Z</time>
      </trkpt>
      <trkpt lat="41.6113890" lon="-8.7828850">
        <ele>21.6</ele>
        <time>2021-05-17T11:41:10Z</time>
      </trkpt>
      <trkpt lat="41.6113880" lon="-8.7828940">
        <ele>21.6</ele>
        <time>2021-05-17T11:41:11Z</time>
      </trkpt>
      <trkpt lat="41.6113910" lon="-8.7829030">
        <ele>21.6</ele>
        <time>2021-05-17T11:41:12Z</time>
      </trkpt>
      <trkpt lat="41.6113970" lon="-8.7829020">
        <ele>21.6</ele>
        <time>2021-05-17T11:41:13Z</time>
      </trkpt>
      <trkpt lat="41.6113970" lon="-8.7829020">
        <ele>21.6</ele>
        <time>2021-05-17T11:41:14Z</time>
      </trkpt>
      <trkpt lat="41.6114150" lon="-8.7828980">
        <ele>21.6</ele>
        <time>2021-05-17T11:41:15Z</time>
      </trkpt>
      <trkpt lat="41.6114140" lon="-8.7828950">
        <ele>21.6</ele>
        <time>2021-05-17T11:41:16Z</time>
      </trkpt>
      <trkpt lat="41.6114120" lon="-8.7828910">
        <ele>21.6</ele>
        <time>2021-05-17T11:41:17Z</time>
      </trkpt>
      <trkpt lat="41.6114120" lon="-8.7828930">
        <ele>21.6</ele>
        <time>2021-05-17T11:41:18Z</time>
      </trkpt>
      <trkpt lat="41.6114110" lon="-8.7829000">
        <ele>21.6</ele>
        <time>2021-05-17T11:41:19Z</time>
      </trkpt>
      <trkpt lat="41.6114080" lon="-8.7829150">
        <ele>21.6</ele>
        <time>2021-05-17T11:41:20Z</time>
      </trkpt>
      <trkpt lat="41.6114040" lon="-8.7829270">
        <ele>21.6</ele>
        <time>2021-05-17T11:41:21Z</time>
      </trkpt>
      <trkpt lat="41.6113950" lon="-8.7829270">
        <ele>21.6</ele>
        <time>2021-05-17T11:41:22Z</time>
      </trkpt>
      <trkpt lat="41.6113960" lon="-8.7829420">
        <ele>21.6</ele>
        <time>2021-05-17T11:41:23Z</time>
      </trkpt>
      <trkpt lat="41.6113980" lon="-8.7829460">
        <ele>21.6</ele>
        <time>2021-05-17T11:41:24Z</time>
      </trkpt>
      <trkpt lat="41.6114000" lon="-8.7829580">
        <ele>21.6</ele>
        <time>2021-05-17T11:41:25Z</time>
      </trkpt>
      <trkpt lat="41.6114050" lon="-8.7829810">
        <ele>21.6</ele>
        <time>2021-05-17T11:41:26Z</time>
      </trkpt>
      <trkpt lat="41.6114020" lon="-8.7830210">
        <ele>21.6</ele>
        <time>2021-05-17T11:41:27Z</time>
      </trkpt>
      <trkpt lat="41.6114000" lon="-8.7830360">
        <ele>21.6</ele>
        <time>2021-05-17T11:41:28Z</time>
      </trkpt>
      <trkpt lat="41.6113990" lon="-8.7830490">
        <ele>21.6</ele>
        <time>2021-05-17T11:41:29Z</time>
      </trkpt>
      <trkpt lat="41.6113990" lon="-8.7830630">
        <ele>21.6</ele>
        <time>2021-05-17T11:41:30Z</time>
      </trkpt>
      <trkpt lat="41.6113960" lon="-8.7830710">
        <ele>21.6</ele>
        <time>2021-05-17T11:41:31Z</time>
      </trkpt>
      <trkpt lat="41.6113980" lon="-8.7830830">
        <ele>21.6</ele>
        <time>2021-05-17T11:41:32Z</time>
      </trkpt>
      <trkpt lat="41.6113980" lon="-8.7831040">
        <ele>21.7</ele>
        <time>2021-05-17T11:41:33Z</time>
      </trkpt>
      <trkpt lat="41.6113980" lon="-8.7831190">
        <ele>21.7</ele>
        <time>2021-05-17T11:41:34Z</time>
      </trkpt>
      <trkpt lat="41.6113990" lon="-8.7831390">
        <ele>21.7</ele>
        <time>2021-05-17T11:41:35Z</time>
      </trkpt>
      <trkpt lat="41.6113930" lon="-8.7831550">
        <ele>21.7</ele>
        <time>2021-05-17T11:41:36Z</time>
      </trkpt>
      <trkpt lat="41.6113920" lon="-8.7831750">
        <ele>21.7</ele>
        <time>2021-05-17T11:41:37Z</time>
      </trkpt>
      <trkpt lat="41.6113900" lon="-8.7831950">
        <ele>21.7</ele>
        <time>2021-05-17T11:41:38Z</time>
      </trkpt>
      <trkpt lat="41.6113880" lon="-8.7832130">
        <ele>21.8</ele>
        <time>2021-05-17T11:41:39Z</time>
      </trkpt>
      <trkpt lat="41.6113880" lon="-8.7832360">
        <ele>21.8</ele>
        <time>2021-05-17T11:41:40Z</time>
      </trkpt>
      <trkpt lat="41.6113790" lon="-8.7832630">
        <ele>21.8</ele>
        <time>2021-05-17T11:41:41Z</time>
      </trkpt>
      <trkpt lat="41.6113770" lon="-8.7832750">
        <ele>21.9</ele>
        <time>2021-05-17T11:41:42Z</time>
      </trkpt>
      <trkpt lat="41.6113740" lon="-8.7832880">
        <ele>21.9</ele>
        <time>2021-05-17T11:41:43Z</time>
      </trkpt>
      <trkpt lat="41.6113700" lon="-8.7833160">
        <ele>21.9</ele>
        <time>2021-05-17T11:41:44Z</time>
      </trkpt>
      <trkpt lat="41.6113710" lon="-8.7833270">
        <ele>22.0</ele>
        <time>2021-05-17T11:41:45Z</time>
      </trkpt>
      <trkpt lat="41.6113710" lon="-8.7833380">
        <ele>22.0</ele>
        <time>2021-05-17T11:41:46Z</time>
      </trkpt>
      <trkpt lat="41.6113760" lon="-8.7833750">
        <ele>22.1</ele>
        <time>2021-05-17T11:41:47Z</time>
      </trkpt>
      <trkpt lat="41.6113820" lon="-8.7833970">
        <ele>22.1</ele>
        <time>2021-05-17T11:41:48Z</time>
      </trkpt>
      <trkpt lat="41.6113820" lon="-8.7834060">
        <ele>22.2</ele>
        <time>2021-05-17T11:41:49Z</time>
      </trkpt>
      <trkpt lat="41.6113830" lon="-8.7834200">
        <ele>22.2</ele>
        <time>2021-05-17T11:41:50Z</time>
      </trkpt>
      <trkpt lat="41.6113830" lon="-8.7834390">
        <ele>22.3</ele>
        <time>2021-05-17T11:41:51Z</time>
      </trkpt>
      <trkpt lat="41.6113820" lon="-8.7834620">
        <ele>22.3</ele>
        <time>2021-05-17T11:41:52Z</time>
      </trkpt>
      <trkpt lat="41.6113840" lon="-8.7834740">
        <ele>22.4</ele>
        <time>2021-05-17T11:41:53Z</time>
      </trkpt>
      <trkpt lat="41.6113860" lon="-8.7834910">
        <ele>22.4</ele>
        <time>2021-05-17T11:41:54Z</time>
      </trkpt>
      <trkpt lat="41.6113810" lon="-8.7835030">
        <ele>22.5</ele>
        <time>2021-05-17T11:41:55Z</time>
      </trkpt>
      <trkpt lat="41.6113820" lon="-8.7835420">
        <ele>22.6</ele>
        <time>2021-05-17T11:41:56Z</time>
      </trkpt>
      <trkpt lat="41.6113820" lon="-8.7835520">
        <ele>22.7</ele>
        <time>2021-05-17T11:41:57Z</time>
      </trkpt>
      <trkpt lat="41.6113860" lon="-8.7835750">
        <ele>22.7</ele>
        <time>2021-05-17T11:41:58Z</time>
      </trkpt>
      <trkpt lat="41.6113940" lon="-8.7835890">
        <ele>22.8</ele>
        <time>2021-05-17T11:41:59Z</time>
      </trkpt>
      <trkpt lat="41.6113950" lon="-8.7836040">
        <ele>22.9</ele>
        <time>2021-05-17T11:42:00Z</time>
      </trkpt>
      <trkpt lat="41.6113950" lon="-8.7836180">
        <ele>22.9</ele>
        <time>2021-05-17T11:42:01Z</time>
      </trkpt>
      <trkpt lat="41.6113980" lon="-8.7836340">
        <ele>23.0</ele>
        <time>2021-05-17T11:42:02Z</time>
      </trkpt>
      <trkpt lat="41.6114080" lon="-8.7836660">
        <ele>23.1</ele>
        <time>2021-05-17T11:42:03Z</time>
      </trkpt>
      <trkpt lat="41.6114120" lon="-8.7836760">
        <ele>23.1</ele>
        <time>2021-05-17T11:42:04Z</time>
      </trkpt>
      <trkpt lat="41.6114160" lon="-8.7836850">
        <ele>23.2</ele>
        <time>2021-05-17T11:42:05Z</time>
      </trkpt>
      <trkpt lat="41.6114210" lon="-8.7836980">
        <ele>23.2</ele>
        <time>2021-05-17T11:42:06Z</time>
      </trkpt>
      <trkpt lat="41.6114290" lon="-8.7837170">
        <ele>23.3</ele>
        <time>2021-05-17T11:42:07Z</time>
      </trkpt>
      <trkpt lat="41.6114420" lon="-8.7837310">
        <ele>23.4</ele>
        <time>2021-05-17T11:42:08Z</time>
      </trkpt>
      <trkpt lat="41.6114400" lon="-8.7837480">
        <ele>23.4</ele>
        <time>2021-05-17T11:42:09Z</time>
      </trkpt>
      <trkpt lat="41.6114420" lon="-8.7837520">
        <ele>23.5</ele>
        <time>2021-05-17T11:42:10Z</time>
      </trkpt>
      <trkpt lat="41.6114390" lon="-8.7837650">
        <ele>23.5</ele>
        <time>2021-05-17T11:42:11Z</time>
      </trkpt>
      <trkpt lat="41.6114280" lon="-8.7837700">
        <ele>23.5</ele>
        <time>2021-05-17T11:42:12Z</time>
      </trkpt>
      <trkpt lat="41.6114260" lon="-8.7837790">
        <ele>23.6</ele>
        <time>2021-05-17T11:42:13Z</time>
      </trkpt>
      <trkpt lat="41.6114260" lon="-8.7837870">
        <ele>23.6</ele>
        <time>2021-05-17T11:42:14Z</time>
      </trkpt>
      <trkpt lat="41.6114290" lon="-8.7837900">
        <ele>23.6</ele>
        <time>2021-05-17T11:42:15Z</time>
      </trkpt>
      <trkpt lat="41.6114310" lon="-8.7837900">
        <ele>23.6</ele>
        <time>2021-05-17T11:42:16Z</time>
      </trkpt>
      <trkpt lat="41.6114330" lon="-8.7837910">
        <ele>23.6</ele>
        <time>2021-05-17T11:42:17Z</time>
      </trkpt>
      <trkpt lat="41.6114350" lon="-8.7837910">
        <ele>23.6</ele>
        <time>2021-05-17T11:42:18Z</time>
      </trkpt>
      <trkpt lat="41.6114380" lon="-8.7837920">
        <ele>23.6</ele>
        <time>2021-05-17T11:42:19Z</time>
      </trkpt>
      <trkpt lat="41.6114400" lon="-8.7837920">
        <ele>23.7</ele>
        <time>2021-05-17T11:42:20Z</time>
      </trkpt>
      <trkpt lat="41.6114420" lon="-8.7837930">
        <ele>23.7</ele>
        <time>2021-05-17T11:42:21Z</time>
      </trkpt>
      <trkpt lat="41.6114440" lon="-8.7837930">
        <ele>23.7</ele>
        <time>2021-05-17T11:42:22Z</time>
      </trkpt>
      <trkpt lat="41.6114460" lon="-8.7837940">
        <ele>23.7</ele>
        <time>2021-05-17T11:42:23Z</time>
      </trkpt>
      <trkpt lat="41.6114480" lon="-8.7837940">
        <ele>23.7</ele>
        <time>2021-05-17T11:42:24Z</time>
      </trkpt>
      <trkpt lat="41.6114500" lon="-8.7837950">
        <ele>23.7</ele>
        <time>2021-05-17T11:42:25Z</time>
      </trkpt>
      <trkpt lat="41.6114520" lon="-8.7837950">
        <ele>23.7</ele>
        <time>2021-05-17T11:42:26Z</time>
      </trkpt>
      <trkpt lat="41.6114540" lon="-8.7837960">
        <ele>23.7</ele>
        <time>2021-05-17T11:42:27Z</time>
      </trkpt>
      <trkpt lat="41.6114560" lon="-8.7837960">
        <ele>23.7</ele>
        <time>2021-05-17T11:42:28Z</time>
      </trkpt>
      <trkpt lat="41.6114590" lon="-8.7837970">
        <ele>23.7</ele>
        <time>2021-05-17T11:42:29Z</time>
      </trkpt>
      <trkpt lat="41.6114610" lon="-8.7837970">
        <ele>23.7</ele>
        <time>2021-05-17T11:42:30Z</time>
      </trkpt>
      <trkpt lat="41.6114630" lon="-8.7837980">
        <ele>23.7</ele>
        <time>2021-05-17T11:42:31Z</time>
      </trkpt>
      <trkpt lat="41.6114650" lon="-8.7837980">
        <ele>23.7</ele>
        <time>2021-05-17T11:42:32Z</time>
      </trkpt>
      <trkpt lat="41.6114670" lon="-8.7837990">
        <ele>23.7</ele>
        <time>2021-05-17T11:42:33Z</time>
      </trkpt>
      <trkpt lat="41.6114900" lon="-8.7838090">
        <ele>23.8</ele>
        <time>2021-05-17T11:42:34Z</time>
      </trkpt>
      <trkpt lat="41.6114970" lon="-8.7838140">
        <ele>23.8</ele>
        <time>2021-05-17T11:42:35Z</time>
      </trkpt>
      <trkpt lat="41.6115050" lon="-8.7838200">
        <ele>23.9</ele>
        <time>2021-05-17T11:42:36Z</time>
      </trkpt>
      <trkpt lat="41.6115210" lon="-8.7838260">
        <ele>23.9</ele>
        <time>2021-05-17T11:42:37Z</time>
      </trkpt>
      <trkpt lat="41.6115180" lon="-8.7838220">
        <ele>23.9</ele>
        <time>2021-05-17T11:42:38Z</time>
      </trkpt>
      <trkpt lat="41.6115210" lon="-8.7838190">
        <ele>23.9</ele>
        <time>2021-05-17T11:42:39Z</time>
      </trkpt>
      <trkpt lat="41.6115230" lon="-8.7838190">
        <ele>23.9</ele>
        <time>2021-05-17T11:42:40Z</time>
      </trkpt>
      <trkpt lat="41.6115220" lon="-8.7838190">
        <ele>23.9</ele>
        <time>2021-05-17T11:42:41Z</time>
      </trkpt>
      <trkpt lat="41.6115290" lon="-8.7838150">
        <ele>23.9</ele>
        <time>2021-05-17T11:42:42Z</time>
      </trkpt>
      <trkpt lat="41.6115260" lon="-8.7838090">
        <ele>23.9</ele>
        <time>2021-05-17T11:42:43Z</time>
      </trkpt>
      <trkpt lat="41.6115310" lon="-8.7838090">
        <ele>24.0</ele>
        <time>2021-05-17T11:42:44Z</time>
      </trkpt>
      <trkpt lat="41.6115270" lon="-8.7838080">
        <ele>24.0</ele>
        <time>2021-05-17T11:42:45Z</time>
      </trkpt>
      <trkpt lat="41.6115200" lon="-8.7838030">
        <ele>24.0</ele>
        <time>2021-05-17T11:42:46Z</time>
      </trkpt>
      <trkpt lat="41.6115070" lon="-8.7837910">
        <ele>24.0</ele>
        <time>2021-05-17T11:42:47Z</time>
      </trkpt>
      <trkpt lat="41.6114900" lon="-8.7837830">
        <ele>24.0</ele>
        <time>2021-05-17T11:42:48Z</time>
      </trkpt>
      <trkpt lat="41.6114820" lon="-8.7837760">
        <ele>24.0</ele>
        <time>2021-05-17T11:42:49Z</time>
      </trkpt>
      <trkpt lat="41.6114780" lon="-8.7837670">
        <ele>24.0</ele>
        <time>2021-05-17T11:42:50Z</time>
      </trkpt>
      <trkpt lat="41.6114690" lon="-8.7837620">
        <ele>24.0</ele>
        <time>2021-05-17T11:42:51Z</time>
      </trkpt>
      <trkpt lat="41.6114640" lon="-8.7837690">
        <ele>24.0</ele>
        <time>2021-05-17T11:42:52Z</time>
      </trkpt>
      <trkpt lat="41.6114650" lon="-8.7837680">
        <ele>24.0</ele>
        <time>2021-05-17T11:42:53Z</time>
      </trkpt>
      <trkpt lat="41.6114550" lon="-8.7837700">
        <ele>24.1</ele>
        <time>2021-05-17T11:42:54Z</time>
      </trkpt>
      <trkpt lat="41.6114530" lon="-8.7837960">
        <ele>24.1</ele>
        <time>2021-05-17T11:42:55Z</time>
      </trkpt>
      <trkpt lat="41.6114570" lon="-8.7838080">
        <ele>24.1</ele>
        <time>2021-05-17T11:42:56Z</time>
      </trkpt>
      <trkpt lat="41.6114610" lon="-8.7838190">
        <ele>24.1</ele>
        <time>2021-05-17T11:42:57Z</time>
      </trkpt>
      <trkpt lat="41.6114590" lon="-8.7838440">
        <ele>24.1</ele>
        <time>2021-05-17T11:42:58Z</time>
      </trkpt>
      <trkpt lat="41.6114550" lon="-8.7838560">
        <ele>24.1</ele>
        <time>2021-05-17T11:42:59Z</time>
      </trkpt>
      <trkpt lat="41.6114500" lon="-8.7838690">
        <ele>24.1</ele>
        <time>2021-05-17T11:43:00Z</time>
      </trkpt>
      <trkpt lat="41.6114540" lon="-8.7838830">
        <ele>24.1</ele>
        <time>2021-05-17T11:43:01Z</time>
      </trkpt>
      <trkpt lat="41.6114520" lon="-8.7838910">
        <ele>24.1</ele>
        <time>2021-05-17T11:43:02Z</time>
      </trkpt>
      <trkpt lat="41.6114550" lon="-8.7838980">
        <ele>24.1</ele>
        <time>2021-05-17T11:43:03Z</time>
      </trkpt>
      <trkpt lat="41.6114580" lon="-8.7838990">
        <ele>24.1</ele>
        <time>2021-05-17T11:43:04Z</time>
      </trkpt>
      <trkpt lat="41.6114550" lon="-8.7839150">
        <ele>24.1</ele>
        <time>2021-05-17T11:43:05Z</time>
      </trkpt>
      <trkpt lat="41.6114450" lon="-8.7839350">
        <ele>24.1</ele>
        <time>2021-05-17T11:43:06Z</time>
      </trkpt>
      <trkpt lat="41.6114590" lon="-8.7839610">
        <ele>24.1</ele>
        <time>2021-05-17T11:43:07Z</time>
      </trkpt>
      <trkpt lat="41.6114630" lon="-8.7839810">
        <ele>24.1</ele>
        <time>2021-05-17T11:43:08Z</time>
      </trkpt>
      <trkpt lat="41.6114680" lon="-8.7840020">
        <ele>24.1</ele>
        <time>2021-05-17T11:43:09Z</time>
      </trkpt>
      <trkpt lat="41.6114620" lon="-8.7840270">
        <ele>24.1</ele>
        <time>2021-05-17T11:43:10Z</time>
      </trkpt>
      <trkpt lat="41.6114570" lon="-8.7840390">
        <ele>24.1</ele>
        <time>2021-05-17T11:43:11Z</time>
      </trkpt>
      <trkpt lat="41.6114530" lon="-8.7840510">
        <ele>24.1</ele>
        <time>2021-05-17T11:43:12Z</time>
      </trkpt>
      <trkpt lat="41.6114540" lon="-8.7840600">
        <ele>24.1</ele>
        <time>2021-05-17T11:43:13Z</time>
      </trkpt>
      <trkpt lat="41.6114530" lon="-8.7840870">
        <ele>24.0</ele>
        <time>2021-05-17T11:43:14Z</time>
      </trkpt>
      <trkpt lat="41.6114510" lon="-8.7840930">
        <ele>24.0</ele>
        <time>2021-05-17T11:43:15Z</time>
      </trkpt>
      <trkpt lat="41.6114520" lon="-8.7840970">
        <ele>24.0</ele>
        <time>2021-05-17T11:43:16Z</time>
      </trkpt>
      <trkpt lat="41.6114520" lon="-8.7840990">
        <ele>24.0</ele>
        <time>2021-05-17T11:43:17Z</time>
      </trkpt>
      <trkpt lat="41.6114500" lon="-8.7840980">
        <ele>24.0</ele>
        <time>2021-05-17T11:43:18Z</time>
      </trkpt>
      <trkpt lat="41.6114530" lon="-8.7841060">
        <ele>24.0</ele>
        <time>2021-05-17T11:43:19Z</time>
      </trkpt>
      <trkpt lat="41.6114570" lon="-8.7841260">
        <ele>23.9</ele>
        <time>2021-05-17T11:43:20Z</time>
      </trkpt>
      <trkpt lat="41.6114600" lon="-8.7841370">
        <ele>23.9</ele>
        <time>2021-05-17T11:43:21Z</time>
      </trkpt>
      <trkpt lat="41.6114660" lon="-8.7841570">
        <ele>23.8</ele>
        <time>2021-05-17T11:43:22Z</time>
      </trkpt>
      <trkpt lat="41.6114720" lon="-8.7841750">
        <ele>23.8</ele>
        <time>2021-05-17T11:43:23Z</time>
      </trkpt>
      <trkpt lat="41.6114690" lon="-8.7841830">
        <ele>23.7</ele>
        <time>2021-05-17T11:43:24Z</time>
      </trkpt>
      <trkpt lat="41.6114720" lon="-8.7842060">
        <ele>23.7</ele>
        <time>2021-05-17T11:43:25Z</time>
      </trkpt>
      <trkpt lat="41.6114770" lon="-8.7842160">
        <ele>23.6</ele>
        <time>2021-05-17T11:43:26Z</time>
      </trkpt>
      <trkpt lat="41.6114850" lon="-8.7842270">
        <ele>23.6</ele>
        <time>2021-05-17T11:43:27Z</time>
      </trkpt>
      <trkpt lat="41.6114850" lon="-8.7842430">
        <ele>23.5</ele>
        <time>2021-05-17T11:43:28Z</time>
      </trkpt>
      <trkpt lat="41.6114940" lon="-8.7842500">
        <ele>23.5</ele>
        <time>2021-05-17T11:43:29Z</time>
      </trkpt>
      <trkpt lat="41.6114980" lon="-8.7842640">
        <ele>23.4</ele>
        <time>2021-05-17T11:43:30Z</time>
      </trkpt>
      <trkpt lat="41.6115020" lon="-8.7842870">
        <ele>23.3</ele>
        <time>2021-05-17T11:43:31Z</time>
      </trkpt>
      <trkpt lat="41.6115000" lon="-8.7843030">
        <ele>23.3</ele>
        <time>2021-05-17T11:43:32Z</time>
      </trkpt>
      <trkpt lat="41.6115010" lon="-8.7843140">
        <ele>23.2</ele>
        <time>2021-05-17T11:43:33Z</time>
      </trkpt>
      <trkpt lat="41.6115030" lon="-8.7843260">
        <ele>23.2</ele>
        <time>2021-05-17T11:43:34Z</time>
      </trkpt>
      <trkpt lat="41.6115040" lon="-8.7843380">
        <ele>23.1</ele>
        <time>2021-05-17T11:43:35Z</time>
      </trkpt>
      <trkpt lat="41.6115070" lon="-8.7843600">
        <ele>23.1</ele>
        <time>2021-05-17T11:43:36Z</time>
      </trkpt>
      <trkpt lat="41.6115150" lon="-8.7843800">
        <ele>23.0</ele>
        <time>2021-05-17T11:43:37Z</time>
      </trkpt>
      <trkpt lat="41.6115180" lon="-8.7843900">
        <ele>23.0</ele>
        <time>2021-05-17T11:43:38Z</time>
      </trkpt>
      <trkpt lat="41.6115210" lon="-8.7844050">
        <ele>22.9</ele>
        <time>2021-05-17T11:43:39Z</time>
      </trkpt>
      <trkpt lat="41.6115230" lon="-8.7844200">
        <ele>22.9</ele>
        <time>2021-05-17T11:43:40Z</time>
      </trkpt>
      <trkpt lat="41.6115180" lon="-8.7844340">
        <ele>22.8</ele>
        <time>2021-05-17T11:43:41Z</time>
      </trkpt>
      <trkpt lat="41.6115180" lon="-8.7844530">
        <ele>22.8</ele>
        <time>2021-05-17T11:43:42Z</time>
      </trkpt>
      <trkpt lat="41.6115180" lon="-8.7844610">
        <ele>22.7</ele>
        <time>2021-05-17T11:43:43Z</time>
      </trkpt>
      <trkpt lat="41.6115140" lon="-8.7844900">
        <ele>22.6</ele>
        <time>2021-05-17T11:43:44Z</time>
      </trkpt>
      <trkpt lat="41.6115130" lon="-8.7845020">
        <ele>22.6</ele>
        <time>2021-05-17T11:43:45Z</time>
      </trkpt>
      <trkpt lat="41.6115130" lon="-8.7845150">
        <ele>22.6</ele>
        <time>2021-05-17T11:43:46Z</time>
      </trkpt>
      <trkpt lat="41.6115200" lon="-8.7845340">
        <ele>22.5</ele>
        <time>2021-05-17T11:43:47Z</time>
      </trkpt>
      <trkpt lat="41.6115190" lon="-8.7845590">
        <ele>22.4</ele>
        <time>2021-05-17T11:43:48Z</time>
      </trkpt>
      <trkpt lat="41.6115270" lon="-8.7845880">
        <ele>22.3</ele>
        <time>2021-05-17T11:43:49Z</time>
      </trkpt>
      <trkpt lat="41.6115320" lon="-8.7846000">
        <ele>22.3</ele>
        <time>2021-05-17T11:43:50Z</time>
      </trkpt>
      <trkpt lat="41.6115340" lon="-8.7846200">
        <ele>22.2</ele>
        <time>2021-05-17T11:43:51Z</time>
      </trkpt>
      <trkpt lat="41.6115370" lon="-8.7846340">
        <ele>22.2</ele>
        <time>2021-05-17T11:43:52Z</time>
      </trkpt>
      <trkpt lat="41.6115410" lon="-8.7846490">
        <ele>22.1</ele>
        <time>2021-05-17T11:43:53Z</time>
      </trkpt>
      <trkpt lat="41.6115440" lon="-8.7846630">
        <ele>22.0</ele>
        <time>2021-05-17T11:43:54Z</time>
      </trkpt>
      <trkpt lat="41.6115520" lon="-8.7846800">
        <ele>22.0</ele>
        <time>2021-05-17T11:43:55Z</time>
      </trkpt>
      <trkpt lat="41.6115550" lon="-8.7846830">
        <ele>21.9</ele>
        <time>2021-05-17T11:43:56Z</time>
      </trkpt>
      <trkpt lat="41.6115570" lon="-8.7846990">
        <ele>21.9</ele>
        <time>2021-05-17T11:43:57Z</time>
      </trkpt>
      <trkpt lat="41.6115670" lon="-8.7846960">
        <ele>21.8</ele>
        <time>2021-05-17T11:43:58Z</time>
      </trkpt>
      <trkpt lat="41.6115730" lon="-8.7847120">
        <ele>21.7</ele>
        <time>2021-05-17T11:43:59Z</time>
      </trkpt>
      <trkpt lat="41.6115730" lon="-8.7847240">
        <ele>21.7</ele>
        <time>2021-05-17T11:44:00Z</time>
      </trkpt>
      <trkpt lat="41.6115780" lon="-8.7847350">
        <ele>21.6</ele>
        <time>2021-05-17T11:44:01Z</time>
      </trkpt>
      <trkpt lat="41.6115820" lon="-8.7847650">
        <ele>21.5</ele>
        <time>2021-05-17T11:44:02Z</time>
      </trkpt>
      <trkpt lat="41.6115800" lon="-8.7847730">
        <ele>21.4</ele>
        <time>2021-05-17T11:44:03Z</time>
      </trkpt>
      <trkpt lat="41.6115890" lon="-8.7848150">
        <ele>21.2</ele>
        <time>2021-05-17T11:44:04Z</time>
      </trkpt>
      <trkpt lat="41.6115910" lon="-8.7848230">
        <ele>21.1</ele>
        <time>2021-05-17T11:44:05Z</time>
      </trkpt>
      <trkpt lat="41.6116070" lon="-8.7848350">
        <ele>21.0</ele>
        <time>2021-05-17T11:44:06Z</time>
      </trkpt>
      <trkpt lat="41.6116170" lon="-8.7848390">
        <ele>20.9</ele>
        <time>2021-05-17T11:44:07Z</time>
      </trkpt>
      <trkpt lat="41.6116280" lon="-8.7848420">
        <ele>20.8</ele>
        <time>2021-05-17T11:44:08Z</time>
      </trkpt>
      <trkpt lat="41.6116350" lon="-8.7848530">
        <ele>20.7</ele>
        <time>2021-05-17T11:44:09Z</time>
      </trkpt>
      <trkpt lat="41.6116410" lon="-8.7848670">
        <ele>20.6</ele>
        <time>2021-05-17T11:44:10Z</time>
      </trkpt>
      <trkpt lat="41.6116500" lon="-8.7848790">
        <ele>20.5</ele>
        <time>2021-05-17T11:44:11Z</time>
      </trkpt>
      <trkpt lat="41.6116590" lon="-8.7848970">
        <ele>20.4</ele>
        <time>2021-05-17T11:44:12Z</time>
      </trkpt>
      <trkpt lat="41.6116610" lon="-8.7849040">
        <ele>20.3</ele>
        <time>2021-05-17T11:44:13Z</time>
      </trkpt>
      <trkpt lat="41.6116660" lon="-8.7849150">
        <ele>20.3</ele>
        <time>2021-05-17T11:44:14Z</time>
      </trkpt>
      <trkpt lat="41.6116710" lon="-8.7849340">
        <ele>20.1</ele>
        <time>2021-05-17T11:44:15Z</time>
      </trkpt>
      <trkpt lat="41.6116750" lon="-8.7849500">
        <ele>20.0</ele>
        <time>2021-05-17T11:44:16Z</time>
      </trkpt>
      <trkpt lat="41.6116770" lon="-8.7849780">
        <ele>19.8</ele>
        <time>2021-05-17T11:44:17Z</time>
      </trkpt>
      <trkpt lat="41.6116760" lon="-8.7849920">
        <ele>19.7</ele>
        <time>2021-05-17T11:44:18Z</time>
      </trkpt>
      <trkpt lat="41.6116760" lon="-8.7850070">
        <ele>19.6</ele>
        <time>2021-05-17T11:44:19Z</time>
      </trkpt>
      <trkpt lat="41.6116820" lon="-8.7850270">
        <ele>19.5</ele>
        <time>2021-05-17T11:44:20Z</time>
      </trkpt>
      <trkpt lat="41.6116810" lon="-8.7850370">
        <ele>19.4</ele>
        <time>2021-05-17T11:44:21Z</time>
      </trkpt>
      <trkpt lat="41.6116800" lon="-8.7850460">
        <ele>19.4</ele>
        <time>2021-05-17T11:44:22Z</time>
      </trkpt>
      <trkpt lat="41.6116790" lon="-8.7850560">
        <ele>19.3</ele>
        <time>2021-05-17T11:44:23Z</time>
      </trkpt>
      <trkpt lat="41.6116780" lon="-8.7850660">
        <ele>19.2</ele>
        <time>2021-05-17T11:44:24Z</time>
      </trkpt>
      <trkpt lat="41.6116830" lon="-8.7850740">
        <ele>19.1</ele>
        <time>2021-05-17T11:44:25Z</time>
      </trkpt>
      <trkpt lat="41.6116860" lon="-8.7851000">
        <ele>18.9</ele>
        <time>2021-05-17T11:44:26Z</time>
      </trkpt>
      <trkpt lat="41.6116810" lon="-8.7851140">
        <ele>18.8</ele>
        <time>2021-05-17T11:44:27Z</time>
      </trkpt>
      <trkpt lat="41.6116730" lon="-8.7851240">
        <ele>18.7</ele>
        <time>2021-05-17T11:44:28Z</time>
      </trkpt>
      <trkpt lat="41.6116790" lon="-8.7851420">
        <ele>18.6</ele>
        <time>2021-05-17T11:44:29Z</time>
      </trkpt>
      <trkpt lat="41.6116860" lon="-8.7851550">
        <ele>18.5</ele>
        <time>2021-05-17T11:44:30Z</time>
      </trkpt>
      <trkpt lat="41.6116920" lon="-8.7851720">
        <ele>18.3</ele>
        <time>2021-05-17T11:44:31Z</time>
      </trkpt>
      <trkpt lat="41.6116980" lon="-8.7851800">
        <ele>18.2</ele>
        <time>2021-05-17T11:44:32Z</time>
      </trkpt>
      <trkpt lat="41.6117050" lon="-8.7851940">
        <ele>18.1</ele>
        <time>2021-05-17T11:44:33Z</time>
      </trkpt>
      <trkpt lat="41.6117170" lon="-8.7852100">
        <ele>17.9</ele>
        <time>2021-05-17T11:44:34Z</time>
      </trkpt>
      <trkpt lat="41.6117250" lon="-8.7852190">
        <ele>17.8</ele>
        <time>2021-05-17T11:44:35Z</time>
      </trkpt>
      <trkpt lat="41.6117310" lon="-8.7852190">
        <ele>17.8</ele>
        <time>2021-05-17T11:44:36Z</time>
      </trkpt>
      <trkpt lat="41.6117400" lon="-8.7852370">
        <ele>17.6</ele>
        <time>2021-05-17T11:44:37Z</time>
      </trkpt>
      <trkpt lat="41.6117450" lon="-8.7852370">
        <ele>17.5</ele>
        <time>2021-05-17T11:44:38Z</time>
      </trkpt>
      <trkpt lat="41.6117520" lon="-8.7852390">
        <ele>17.4</ele>
        <time>2021-05-17T11:44:39Z</time>
      </trkpt>
      <trkpt lat="41.6117590" lon="-8.7852500">
        <ele>17.3</ele>
        <time>2021-05-17T11:44:40Z</time>
      </trkpt>
      <trkpt lat="41.6117660" lon="-8.7852620">
        <ele>17.2</ele>
        <time>2021-05-17T11:44:41Z</time>
      </trkpt>
      <trkpt lat="41.6117720" lon="-8.7852770">
        <ele>17.1</ele>
        <time>2021-05-17T11:44:42Z</time>
      </trkpt>
      <trkpt lat="41.6117780" lon="-8.7852920">
        <ele>16.9</ele>
        <time>2021-05-17T11:44:43Z</time>
      </trkpt>
      <trkpt lat="41.6117780" lon="-8.7853010">
        <ele>16.9</ele>
        <time>2021-05-17T11:44:44Z</time>
      </trkpt>
      <trkpt lat="41.6117820" lon="-8.7853050">
        <ele>16.8</ele>
        <time>2021-05-17T11:44:45Z</time>
      </trkpt>
      <trkpt lat="41.6117820" lon="-8.7853020">
        <ele>16.8</ele>
        <time>2021-05-17T11:44:46Z</time>
      </trkpt>
      <trkpt lat="41.6117880" lon="-8.7853050">
        <ele>16.7</ele>
        <time>2021-05-17T11:44:47Z</time>
      </trkpt>
      <trkpt lat="41.6117900" lon="-8.7853110">
        <ele>16.7</ele>
        <time>2021-05-17T11:44:48Z</time>
      </trkpt>
      <trkpt lat="41.6118010" lon="-8.7853160">
        <ele>16.5</ele>
        <time>2021-05-17T11:44:49Z</time>
      </trkpt>
      <trkpt lat="41.6118030" lon="-8.7853290">
        <ele>16.4</ele>
        <time>2021-05-17T11:44:50Z</time>
      </trkpt>
      <trkpt lat="41.6117990" lon="-8.7853400">
        <ele>16.3</ele>
        <time>2021-05-17T11:44:51Z</time>
      </trkpt>
      <trkpt lat="41.6117990" lon="-8.7853460">
        <ele>16.3</ele>
        <time>2021-05-17T11:44:52Z</time>
      </trkpt>
      <trkpt lat="41.6117950" lon="-8.7853530">
        <ele>16.2</ele>
        <time>2021-05-17T11:44:53Z</time>
      </trkpt>
      <trkpt lat="41.6118000" lon="-8.7853620">
        <ele>16.1</ele>
        <time>2021-05-17T11:44:54Z</time>
      </trkpt>
      <trkpt lat="41.6118060" lon="-8.7853710">
        <ele>16.1</ele>
        <time>2021-05-17T11:44:55Z</time>
      </trkpt>
      <trkpt lat="41.6118090" lon="-8.7853840">
        <ele>16.0</ele>
        <time>2021-05-17T11:44:56Z</time>
      </trkpt>
      <trkpt lat="41.6118040" lon="-8.7854060">
        <ele>15.8</ele>
        <time>2021-05-17T11:44:57Z</time>
      </trkpt>
      <trkpt lat="41.6118010" lon="-8.7854190">
        <ele>15.7</ele>
        <time>2021-05-17T11:44:58Z</time>
      </trkpt>
      <trkpt lat="41.6118090" lon="-8.7854260">
        <ele>15.6</ele>
        <time>2021-05-17T11:44:59Z</time>
      </trkpt>
      <trkpt lat="41.6118080" lon="-8.7854380">
        <ele>15.6</ele>
        <time>2021-05-17T11:45:00Z</time>
      </trkpt>
      <trkpt lat="41.6118170" lon="-8.7854600">
        <ele>15.4</ele>
        <time>2021-05-17T11:45:01Z</time>
      </trkpt>
      <trkpt lat="41.6118240" lon="-8.7855000">
        <ele>15.3</ele>
        <time>2021-05-17T11:45:02Z</time>
      </trkpt>
      <trkpt lat="41.6118250" lon="-8.7855130">
        <ele>15.2</ele>
        <time>2021-05-17T11:45:03Z</time>
      </trkpt>
      <trkpt lat="41.6118290" lon="-8.7855250">
        <ele>15.2</ele>
        <time>2021-05-17T11:45:04Z</time>
      </trkpt>
      <trkpt lat="41.6118250" lon="-8.7855240">
        <ele>15.2</ele>
        <time>2021-05-17T11:45:05Z</time>
      </trkpt>
      <trkpt lat="41.6118240" lon="-8.7855330">
        <ele>15.1</ele>
        <time>2021-05-17T11:45:06Z</time>
      </trkpt>
      <trkpt lat="41.6118280" lon="-8.7855520">
        <ele>15.1</ele>
        <time>2021-05-17T11:45:07Z</time>
      </trkpt>
      <trkpt lat="41.6118320" lon="-8.7855740">
        <ele>15.0</ele>
        <time>2021-05-17T11:45:08Z</time>
      </trkpt>
      <trkpt lat="41.6118310" lon="-8.7855960">
        <ele>15.0</ele>
        <time>2021-05-17T11:45:09Z</time>
      </trkpt>
      <trkpt lat="41.6118360" lon="-8.7856050">
        <ele>15.0</ele>
        <time>2021-05-17T11:45:10Z</time>
      </trkpt>
      <trkpt lat="41.6118440" lon="-8.7856220">
        <ele>15.0</ele>
        <time>2021-05-17T11:45:11Z</time>
      </trkpt>
      <trkpt lat="41.6118450" lon="-8.7856320">
        <ele>15.0</ele>
        <time>2021-05-17T11:45:12Z</time>
      </trkpt>
      <trkpt lat="41.6118500" lon="-8.7856440">
        <ele>15.0</ele>
        <time>2021-05-17T11:45:13Z</time>
      </trkpt>
      <trkpt lat="41.6118580" lon="-8.7856700">
        <ele>15.0</ele>
        <time>2021-05-17T11:45:14Z</time>
      </trkpt>
      <trkpt lat="41.6118800" lon="-8.7856870">
        <ele>15.1</ele>
        <time>2021-05-17T11:45:15Z</time>
      </trkpt>
      <trkpt lat="41.6118870" lon="-8.7856890">
        <ele>15.1</ele>
        <time>2021-05-17T11:45:16Z</time>
      </trkpt>
      <trkpt lat="41.6118930" lon="-8.7856920">
        <ele>15.1</ele>
        <time>2021-05-17T11:45:17Z</time>
      </trkpt>
      <trkpt lat="41.6119090" lon="-8.7856900">
        <ele>15.1</ele>
        <time>2021-05-17T11:45:18Z</time>
      </trkpt>
      <trkpt lat="41.6119210" lon="-8.7856930">
        <ele>15.2</ele>
        <time>2021-05-17T11:45:19Z</time>
      </trkpt>
      <trkpt lat="41.6119300" lon="-8.7857030">
        <ele>15.2</ele>
        <time>2021-05-17T11:45:20Z</time>
      </trkpt>
      <trkpt lat="41.6119370" lon="-8.7857120">
        <ele>15.2</ele>
        <time>2021-05-17T11:45:21Z</time>
      </trkpt>
      <trkpt lat="41.6119440" lon="-8.7857200">
        <ele>15.3</ele>
        <time>2021-05-17T11:45:22Z</time>
      </trkpt>
      <trkpt lat="41.6119510" lon="-8.7857290">
        <ele>15.3</ele>
        <time>2021-05-17T11:45:23Z</time>
      </trkpt>
      <trkpt lat="41.6119610" lon="-8.7857440">
        <ele>15.3</ele>
        <time>2021-05-17T11:45:24Z</time>
      </trkpt>
      <trkpt lat="41.6119730" lon="-8.7857570">
        <ele>15.4</ele>
        <time>2021-05-17T11:45:25Z</time>
      </trkpt>
      <trkpt lat="41.6119840" lon="-8.7857690">
        <ele>15.4</ele>
        <time>2021-05-17T11:45:26Z</time>
      </trkpt>
      <trkpt lat="41.6119910" lon="-8.7857870">
        <ele>15.5</ele>
        <time>2021-05-17T11:45:27Z</time>
      </trkpt>
      <trkpt lat="41.6119980" lon="-8.7858080">
        <ele>15.5</ele>
        <time>2021-05-17T11:45:28Z</time>
      </trkpt>
      <trkpt lat="41.6119990" lon="-8.7858230">
        <ele>15.5</ele>
        <time>2021-05-17T11:45:29Z</time>
      </trkpt>
      <trkpt lat="41.6120050" lon="-8.7858550">
        <ele>15.6</ele>
        <time>2021-05-17T11:45:30Z</time>
      </trkpt>
      <trkpt lat="41.6120070" lon="-8.7858660">
        <ele>15.6</ele>
        <time>2021-05-17T11:45:31Z</time>
      </trkpt>
      <trkpt lat="41.6120080" lon="-8.7858780">
        <ele>15.6</ele>
        <time>2021-05-17T11:45:32Z</time>
      </trkpt>
      <trkpt lat="41.6120140" lon="-8.7859020">
        <ele>15.7</ele>
        <time>2021-05-17T11:45:33Z</time>
      </trkpt>
      <trkpt lat="41.6120230" lon="-8.7859110">
        <ele>15.7</ele>
        <time>2021-05-17T11:45:34Z</time>
      </trkpt>
      <trkpt lat="41.6120340" lon="-8.7859320">
        <ele>15.7</ele>
        <time>2021-05-17T11:45:35Z</time>
      </trkpt>
      <trkpt lat="41.6120400" lon="-8.7859400">
        <ele>15.7</ele>
        <time>2021-05-17T11:45:36Z</time>
      </trkpt>
      <trkpt lat="41.6120470" lon="-8.7859490">
        <ele>15.7</ele>
        <time>2021-05-17T11:45:37Z</time>
      </trkpt>
      <trkpt lat="41.6120550" lon="-8.7859630">
        <ele>15.7</ele>
        <time>2021-05-17T11:45:38Z</time>
      </trkpt>
      <trkpt lat="41.6120620" lon="-8.7859770">
        <ele>15.7</ele>
        <time>2021-05-17T11:45:39Z</time>
      </trkpt>
      <trkpt lat="41.6120730" lon="-8.7859810">
        <ele>15.7</ele>
        <time>2021-05-17T11:45:40Z</time>
      </trkpt>
      <trkpt lat="41.6120740" lon="-8.7859850">
        <ele>15.7</ele>
        <time>2021-05-17T11:45:41Z</time>
      </trkpt>
      <trkpt lat="41.6120750" lon="-8.7859930">
        <ele>15.7</ele>
        <time>2021-05-17T11:45:42Z</time>
      </trkpt>
      <trkpt lat="41.6120840" lon="-8.7859920">
        <ele>15.7</ele>
        <time>2021-05-17T11:45:43Z</time>
      </trkpt>
      <trkpt lat="41.6120960" lon="-8.7860010">
        <ele>15.7</ele>
        <time>2021-05-17T11:45:44Z</time>
      </trkpt>
      <trkpt lat="41.6121140" lon="-8.7860000">
        <ele>15.7</ele>
        <time>2021-05-17T11:45:45Z</time>
      </trkpt>
      <trkpt lat="41.6121190" lon="-8.7860060">
        <ele>15.7</ele>
        <time>2021-05-17T11:45:46Z</time>
      </trkpt>
      <trkpt lat="41.6121260" lon="-8.7860050">
        <ele>15.7</ele>
        <time>2021-05-17T11:45:47Z</time>
      </trkpt>
      <trkpt lat="41.6121280" lon="-8.7860090">
        <ele>15.7</ele>
        <time>2021-05-17T11:45:48Z</time>
      </trkpt>
      <trkpt lat="41.6121450" lon="-8.7860080">
        <ele>15.6</ele>
        <time>2021-05-17T11:45:49Z</time>
      </trkpt>
      <trkpt lat="41.6121550" lon="-8.7860110">
        <ele>15.6</ele>
        <time>2021-05-17T11:45:50Z</time>
      </trkpt>
      <trkpt lat="41.6121760" lon="-8.7860210">
        <ele>15.5</ele>
        <time>2021-05-17T11:45:51Z</time>
      </trkpt>
      <trkpt lat="41.6121790" lon="-8.7860230">
        <ele>15.5</ele>
        <time>2021-05-17T11:45:52Z</time>
      </trkpt>
      <trkpt lat="41.6121820" lon="-8.7860240">
        <ele>15.4</ele>
        <time>2021-05-17T11:45:53Z</time>
      </trkpt>
      <trkpt lat="41.6121830" lon="-8.7860350">
        <ele>15.4</ele>
        <time>2021-05-17T11:45:54Z</time>
      </trkpt>
      <trkpt lat="41.6121940" lon="-8.7860380">
        <ele>15.3</ele>
        <time>2021-05-17T11:45:55Z</time>
      </trkpt>
      <trkpt lat="41.6122090" lon="-8.7860180">
        <ele>15.2</ele>
        <time>2021-05-17T11:45:56Z</time>
      </trkpt>
      <trkpt lat="41.6122310" lon="-8.7860290">
        <ele>15.0</ele>
        <time>2021-05-17T11:45:57Z</time>
      </trkpt>
      <trkpt lat="41.6122390" lon="-8.7860330">
        <ele>15.0</ele>
        <time>2021-05-17T11:45:58Z</time>
      </trkpt>
      <trkpt lat="41.6122460" lon="-8.7860370">
        <ele>14.9</ele>
        <time>2021-05-17T11:45:59Z</time>
      </trkpt>
      <trkpt lat="41.6122550" lon="-8.7860710">
        <ele>14.7</ele>
        <time>2021-05-17T11:46:00Z</time>
      </trkpt>
      <trkpt lat="41.6122530" lon="-8.7860860">
        <ele>14.6</ele>
        <time>2021-05-17T11:46:01Z</time>
      </trkpt>
      <trkpt lat="41.6122500" lon="-8.7860990">
        <ele>14.5</ele>
        <time>2021-05-17T11:46:02Z</time>
      </trkpt>
      <trkpt lat="41.6122540" lon="-8.7861180">
        <ele>14.3</ele>
        <time>2021-05-17T11:46:03Z</time>
      </trkpt>
      <trkpt lat="41.6122680" lon="-8.7861220">
        <ele>14.2</ele>
        <time>2021-05-17T11:46:04Z</time>
      </trkpt>
      <trkpt lat="41.6122720" lon="-8.7861360">
        <ele>14.0</ele>
        <time>2021-05-17T11:46:05Z</time>
      </trkpt>
      <trkpt lat="41.6122830" lon="-8.7861380">
        <ele>13.9</ele>
        <time>2021-05-17T11:46:06Z</time>
      </trkpt>
      <trkpt lat="41.6122910" lon="-8.7861590">
        <ele>13.6</ele>
        <time>2021-05-17T11:46:07Z</time>
      </trkpt>
      <trkpt lat="41.6122960" lon="-8.7861620">
        <ele>13.6</ele>
        <time>2021-05-17T11:46:08Z</time>
      </trkpt>
      <trkpt lat="41.6123100" lon="-8.7861630">
        <ele>13.4</ele>
        <time>2021-05-17T11:46:09Z</time>
      </trkpt>
      <trkpt lat="41.6123130" lon="-8.7861610">
        <ele>13.3</ele>
        <time>2021-05-17T11:46:10Z</time>
      </trkpt>
      <trkpt lat="41.6123160" lon="-8.7861800">
        <ele>13.1</ele>
        <time>2021-05-17T11:46:11Z</time>
      </trkpt>
      <trkpt lat="41.6123220" lon="-8.7861930">
        <ele>13.0</ele>
        <time>2021-05-17T11:46:12Z</time>
      </trkpt>
      <trkpt lat="41.6123270" lon="-8.7862010">
        <ele>12.9</ele>
        <time>2021-05-17T11:46:13Z</time>
      </trkpt>
      <trkpt lat="41.6123370" lon="-8.7862130">
        <ele>12.7</ele>
        <time>2021-05-17T11:46:14Z</time>
      </trkpt>
      <trkpt lat="41.6123440" lon="-8.7862120">
        <ele>12.6</ele>
        <time>2021-05-17T11:46:15Z</time>
      </trkpt>
      <trkpt lat="41.6123520" lon="-8.7862200">
        <ele>12.4</ele>
        <time>2021-05-17T11:46:16Z</time>
      </trkpt>
      <trkpt lat="41.6123520" lon="-8.7862370">
        <ele>12.2</ele>
        <time>2021-05-17T11:46:17Z</time>
      </trkpt>
      <trkpt lat="41.6123560" lon="-8.7862380">
        <ele>12.2</ele>
        <time>2021-05-17T11:46:18Z</time>
      </trkpt>
      <trkpt lat="41.6123600" lon="-8.7862360">
        <ele>12.1</ele>
        <time>2021-05-17T11:46:19Z</time>
      </trkpt>
      <trkpt lat="41.6123630" lon="-8.7862350">
        <ele>12.1</ele>
        <time>2021-05-17T11:46:20Z</time>
      </trkpt>
      <trkpt lat="41.6123700" lon="-8.7862380">
        <ele>12.0</ele>
        <time>2021-05-17T11:46:21Z</time>
      </trkpt>
      <trkpt lat="41.6123740" lon="-8.7862350">
        <ele>11.9</ele>
        <time>2021-05-17T11:46:22Z</time>
      </trkpt>
      <trkpt lat="41.6123880" lon="-8.7862360">
        <ele>11.7</ele>
        <time>2021-05-17T11:46:23Z</time>
      </trkpt>
      <trkpt lat="41.6123880" lon="-8.7862420">
        <ele>11.6</ele>
        <time>2021-05-17T11:46:24Z</time>
      </trkpt>
      <trkpt lat="41.6123990" lon="-8.7862370">
        <ele>11.5</ele>
        <time>2021-05-17T11:46:25Z</time>
      </trkpt>
      <trkpt lat="41.6124050" lon="-8.7862430">
        <ele>11.3</ele>
        <time>2021-05-17T11:46:26Z</time>
      </trkpt>
      <trkpt lat="41.6123990" lon="-8.7862440">
        <ele>11.2</ele>
        <time>2021-05-17T11:46:27Z</time>
      </trkpt>
      <trkpt lat="41.6124090" lon="-8.7862530">
        <ele>11.1</ele>
        <time>2021-05-17T11:46:28Z</time>
      </trkpt>
      <trkpt lat="41.6124150" lon="-8.7862620">
        <ele>10.9</ele>
        <time>2021-05-17T11:46:29Z</time>
      </trkpt>
      <trkpt lat="41.6124150" lon="-8.7862800">
        <ele>10.7</ele>
        <time>2021-05-17T11:46:30Z</time>
      </trkpt>
      <trkpt lat="41.6124140" lon="-8.7863060">
        <ele>10.5</ele>
        <time>2021-05-17T11:46:31Z</time>
      </trkpt>
      <trkpt lat="41.6124180" lon="-8.7863440">
        <ele>10.1</ele>
        <time>2021-05-17T11:46:32Z</time>
      </trkpt>
      <trkpt lat="41.6124200" lon="-8.7863550">
        <ele>10.0</ele>
        <time>2021-05-17T11:46:33Z</time>
      </trkpt>
      <trkpt lat="41.6124170" lon="-8.7863860">
        <ele>9.7</ele>
        <time>2021-05-17T11:46:34Z</time>
      </trkpt>
      <trkpt lat="41.6124150" lon="-8.7863990">
        <ele>9.5</ele>
        <time>2021-05-17T11:46:35Z</time>
      </trkpt>
      <trkpt lat="41.6124080" lon="-8.7864350">
        <ele>9.2</ele>
        <time>2021-05-17T11:46:36Z</time>
      </trkpt>
      <trkpt lat="41.6124190" lon="-8.7864720">
        <ele>8.9</ele>
        <time>2021-05-17T11:46:37Z</time>
      </trkpt>
      <trkpt lat="41.6124200" lon="-8.7864850">
        <ele>8.8</ele>
        <time>2021-05-17T11:46:38Z</time>
      </trkpt>
      <trkpt lat="41.6124360" lon="-8.7864890">
        <ele>8.6</ele>
        <time>2021-05-17T11:46:39Z</time>
      </trkpt>
      <trkpt lat="41.6124480" lon="-8.7865060">
        <ele>8.5</ele>
        <time>2021-05-17T11:46:40Z</time>
      </trkpt>
      <trkpt lat="41.6124670" lon="-8.7865240">
        <ele>8.3</ele>
        <time>2021-05-17T11:46:41Z</time>
      </trkpt>
      <trkpt lat="41.6124740" lon="-8.7865330">
        <ele>8.2</ele>
        <time>2021-05-17T11:46:42Z</time>
      </trkpt>
      <trkpt lat="41.6124820" lon="-8.7865420">
        <ele>8.1</ele>
        <time>2021-05-17T11:46:43Z</time>
      </trkpt>
      <trkpt lat="41.6124900" lon="-8.7865440">
        <ele>8.1</ele>
        <time>2021-05-17T11:46:44Z</time>
      </trkpt>
      <trkpt lat="41.6125010" lon="-8.7865550">
        <ele>8.0</ele>
        <time>2021-05-17T11:46:45Z</time>
      </trkpt>
      <trkpt lat="41.6125120" lon="-8.7865600">
        <ele>7.9</ele>
        <time>2021-05-17T11:46:46Z</time>
      </trkpt>
      <trkpt lat="41.6125190" lon="-8.7865740">
        <ele>7.8</ele>
        <time>2021-05-17T11:46:47Z</time>
      </trkpt>
      <trkpt lat="41.6125290" lon="-8.7865860">
        <ele>7.7</ele>
        <time>2021-05-17T11:46:48Z</time>
      </trkpt>
      <trkpt lat="41.6125280" lon="-8.7866000">
        <ele>7.7</ele>
        <time>2021-05-17T11:46:49Z</time>
      </trkpt>
      <trkpt lat="41.6125300" lon="-8.7866180">
        <ele>7.6</ele>
        <time>2021-05-17T11:46:50Z</time>
      </trkpt>
      <trkpt lat="41.6125350" lon="-8.7866400">
        <ele>7.5</ele>
        <time>2021-05-17T11:46:51Z</time>
      </trkpt>
      <trkpt lat="41.6125370" lon="-8.7866360">
        <ele>7.5</ele>
        <time>2021-05-17T11:46:52Z</time>
      </trkpt>
      <trkpt lat="41.6125430" lon="-8.7866400">
        <ele>7.5</ele>
        <time>2021-05-17T11:46:53Z</time>
      </trkpt>
      <trkpt lat="41.6125570" lon="-8.7866490">
        <ele>7.4</ele>
        <time>2021-05-17T11:46:54Z</time>
      </trkpt>
      <trkpt lat="41.6125560" lon="-8.7866340">
        <ele>7.3</ele>
        <time>2021-05-17T11:46:55Z</time>
      </trkpt>
      <trkpt lat="41.6125620" lon="-8.7866190">
        <ele>7.3</ele>
        <time>2021-05-17T11:46:56Z</time>
      </trkpt>
      <trkpt lat="41.6125660" lon="-8.7866080">
        <ele>7.3</ele>
        <time>2021-05-17T11:46:57Z</time>
      </trkpt>
      <trkpt lat="41.6125690" lon="-8.7865970">
        <ele>7.3</ele>
        <time>2021-05-17T11:46:58Z</time>
      </trkpt>
      <trkpt lat="41.6125670" lon="-8.7865960">
        <ele>7.3</ele>
        <time>2021-05-17T11:46:59Z</time>
      </trkpt>
      <trkpt lat="41.6125700" lon="-8.7865930">
        <ele>7.2</ele>
        <time>2021-05-17T11:47:00Z</time>
      </trkpt>
      <trkpt lat="41.6125640" lon="-8.7865960">
        <ele>7.2</ele>
        <time>2021-05-17T11:47:01Z</time>
      </trkpt>
      <trkpt lat="41.6125670" lon="-8.7865960">
        <ele>7.2</ele>
        <time>2021-05-17T11:47:02Z</time>
      </trkpt>
      <trkpt lat="41.6125730" lon="-8.7865950">
        <ele>7.2</ele>
        <time>2021-05-17T11:47:03Z</time>
      </trkpt>
      <trkpt lat="41.6125690" lon="-8.7865810">
        <ele>7.2</ele>
        <time>2021-05-17T11:47:04Z</time>
      </trkpt>
      <trkpt lat="41.6125730" lon="-8.7865870">
        <ele>7.2</ele>
        <time>2021-05-17T11:47:05Z</time>
      </trkpt>
      <trkpt lat="41.6125710" lon="-8.7865860">
        <ele>7.2</ele>
        <time>2021-05-17T11:47:06Z</time>
      </trkpt>
      <trkpt lat="41.6125640" lon="-8.7865930">
        <ele>7.2</ele>
        <time>2021-05-17T11:47:07Z</time>
      </trkpt>
      <trkpt lat="41.6125610" lon="-8.7865940">
        <ele>7.2</ele>
        <time>2021-05-17T11:47:08Z</time>
      </trkpt>
      <trkpt lat="41.6125470" lon="-8.7865990">
        <ele>7.1</ele>
        <time>2021-05-17T11:47:09Z</time>
      </trkpt>
      <trkpt lat="41.6125430" lon="-8.7865970">
        <ele>7.1</ele>
        <time>2021-05-17T11:47:10Z</time>
      </trkpt>
      <trkpt lat="41.6125460" lon="-8.7865890">
        <ele>7.1</ele>
        <time>2021-05-17T11:47:11Z</time>
      </trkpt>
      <trkpt lat="41.6125500" lon="-8.7865840">
        <ele>7.1</ele>
        <time>2021-05-17T11:47:12Z</time>
      </trkpt>
      <trkpt lat="41.6125530" lon="-8.7865790">
        <ele>7.1</ele>
        <time>2021-05-17T11:47:13Z</time>
      </trkpt>
      <trkpt lat="41.6125560" lon="-8.7865740">
        <ele>7.1</ele>
        <time>2021-05-17T11:47:14Z</time>
      </trkpt>
      <trkpt lat="41.6125600" lon="-8.7865690">
        <ele>7.1</ele>
        <time>2021-05-17T11:47:15Z</time>
      </trkpt>
      <trkpt lat="41.6125630" lon="-8.7865640">
        <ele>7.1</ele>
        <time>2021-05-17T11:47:16Z</time>
      </trkpt>
      <trkpt lat="41.6125660" lon="-8.7865590">
        <ele>7.1</ele>
        <time>2021-05-17T11:47:17Z</time>
      </trkpt>
      <trkpt lat="41.6125700" lon="-8.7865540">
        <ele>7.1</ele>
        <time>2021-05-17T11:47:18Z</time>
      </trkpt>
      <trkpt lat="41.6125730" lon="-8.7865490">
        <ele>7.1</ele>
        <time>2021-05-17T11:47:19Z</time>
      </trkpt>
      <trkpt lat="41.6125760" lon="-8.7865450">
        <ele>7.1</ele>
        <time>2021-05-17T11:47:20Z</time>
      </trkpt>
      <trkpt lat="41.6125750" lon="-8.7865470">
        <ele>7.1</ele>
        <time>2021-05-17T11:47:21Z</time>
      </trkpt>
      <trkpt lat="41.6125760" lon="-8.7865490">
        <ele>7.1</ele>
        <time>2021-05-17T11:47:22Z</time>
      </trkpt>
      <trkpt lat="41.6125810" lon="-8.7865510">
        <ele>7.1</ele>
        <time>2021-05-17T11:47:23Z</time>
      </trkpt>
      <trkpt lat="41.6125830" lon="-8.7865430">
        <ele>7.1</ele>
        <time>2021-05-17T11:47:24Z</time>
      </trkpt>
      <trkpt lat="41.6125820" lon="-8.7865510">
        <ele>7.1</ele>
        <time>2021-05-17T11:47:25Z</time>
      </trkpt>
      <trkpt lat="41.6125800" lon="-8.7865680">
        <ele>7.2</ele>
        <time>2021-05-17T11:47:26Z</time>
      </trkpt>
      <trkpt lat="41.6125810" lon="-8.7865930">
        <ele>7.2</ele>
        <time>2021-05-17T11:47:27Z</time>
      </trkpt>
      <trkpt lat="41.6125670" lon="-8.7866140">
        <ele>7.2</ele>
        <time>2021-05-17T11:47:28Z</time>
      </trkpt>
      <trkpt lat="41.6125600" lon="-8.7866210">
        <ele>7.2</ele>
        <time>2021-05-17T11:47:29Z</time>
      </trkpt>
      <trkpt lat="41.6125460" lon="-8.7866490">
        <ele>7.2</ele>
        <time>2021-05-17T11:47:30Z</time>
      </trkpt>
      <trkpt lat="41.6125380" lon="-8.7866630">
        <ele>7.2</ele>
        <time>2021-05-17T11:47:31Z</time>
      </trkpt>
      <trkpt lat="41.6125180" lon="-8.7866970">
        <ele>7.3</ele>
        <time>2021-05-17T11:47:32Z</time>
      </trkpt>
      <trkpt lat="41.6125130" lon="-8.7867050">
        <ele>7.3</ele>
        <time>2021-05-17T11:47:33Z</time>
      </trkpt>
      <trkpt lat="41.6124980" lon="-8.7867460">
        <ele>7.4</ele>
        <time>2021-05-17T11:47:34Z</time>
      </trkpt>
      <trkpt lat="41.6124950" lon="-8.7867560">
        <ele>7.4</ele>
        <time>2021-05-17T11:47:35Z</time>
      </trkpt>
      <trkpt lat="41.6124820" lon="-8.7867880">
        <ele>7.5</ele>
        <time>2021-05-17T11:47:36Z</time>
      </trkpt>
      <trkpt lat="41.6124760" lon="-8.7868010">
        <ele>7.5</ele>
        <time>2021-05-17T11:47:37Z</time>
      </trkpt>
      <trkpt lat="41.6124640" lon="-8.7868160">
        <ele>7.6</ele>
        <time>2021-05-17T11:47:38Z</time>
      </trkpt>
      <trkpt lat="41.6124640" lon="-8.7868370">
        <ele>7.6</ele>
        <time>2021-05-17T11:47:39Z</time>
      </trkpt>
      <trkpt lat="41.6124490" lon="-8.7868750">
        <ele>7.7</ele>
        <time>2021-05-17T11:47:40Z</time>
      </trkpt>
      <trkpt lat="41.6124450" lon="-8.7868860">
        <ele>7.7</ele>
        <time>2021-05-17T11:47:41Z</time>
      </trkpt>
      <trkpt lat="41.6124400" lon="-8.7869290">
        <ele>7.8</ele>
        <time>2021-05-17T11:47:42Z</time>
      </trkpt>
      <trkpt lat="41.6124400" lon="-8.7869460">
        <ele>7.9</ele>
        <time>2021-05-17T11:47:43Z</time>
      </trkpt>
      <trkpt lat="41.6124370" lon="-8.7869730">
        <ele>7.9</ele>
        <time>2021-05-17T11:47:44Z</time>
      </trkpt>
      <trkpt lat="41.6124350" lon="-8.7869860">
        <ele>8.0</ele>
        <time>2021-05-17T11:47:45Z</time>
      </trkpt>
      <trkpt lat="41.6124330" lon="-8.7870000">
        <ele>8.0</ele>
        <time>2021-05-17T11:47:46Z</time>
      </trkpt>
      <trkpt lat="41.6124260" lon="-8.7870140">
        <ele>8.1</ele>
        <time>2021-05-17T11:47:47Z</time>
      </trkpt>
      <trkpt lat="41.6124250" lon="-8.7870360">
        <ele>8.1</ele>
        <time>2021-05-17T11:47:48Z</time>
      </trkpt>
      <trkpt lat="41.6124270" lon="-8.7870640">
        <ele>8.2</ele>
        <time>2021-05-17T11:47:49Z</time>
      </trkpt>
      <trkpt lat="41.6124260" lon="-8.7870760">
        <ele>8.3</ele>
        <time>2021-05-17T11:47:50Z</time>
      </trkpt>
      <trkpt lat="41.6124240" lon="-8.7870880">
        <ele>8.3</ele>
        <time>2021-05-17T11:47:51Z</time>
      </trkpt>
      <trkpt lat="41.6124240" lon="-8.7870990">
        <ele>8.4</ele>
        <time>2021-05-17T11:47:52Z</time>
      </trkpt>
      <trkpt lat="41.6124230" lon="-8.7871160">
        <ele>8.4</ele>
        <time>2021-05-17T11:47:53Z</time>
      </trkpt>
      <trkpt lat="41.6124220" lon="-8.7871320">
        <ele>8.5</ele>
        <time>2021-05-17T11:47:54Z</time>
      </trkpt>
      <trkpt lat="41.6124210" lon="-8.7871480">
        <ele>8.5</ele>
        <time>2021-05-17T11:47:55Z</time>
      </trkpt>
      <trkpt lat="41.6124250" lon="-8.7871770">
        <ele>8.7</ele>
        <time>2021-05-17T11:47:56Z</time>
      </trkpt>
      <trkpt lat="41.6124250" lon="-8.7871930">
        <ele>8.7</ele>
        <time>2021-05-17T11:47:57Z</time>
      </trkpt>
      <trkpt lat="41.6124250" lon="-8.7872090">
        <ele>8.8</ele>
        <time>2021-05-17T11:47:58Z</time>
      </trkpt>
      <trkpt lat="41.6124260" lon="-8.7872270">
        <ele>8.8</ele>
        <time>2021-05-17T11:47:59Z</time>
      </trkpt>
      <trkpt lat="41.6124200" lon="-8.7872430">
        <ele>8.9</ele>
        <time>2021-05-17T11:48:00Z</time>
      </trkpt>
      <trkpt lat="41.6124170" lon="-8.7872480">
        <ele>8.9</ele>
        <time>2021-05-17T11:48:01Z</time>
      </trkpt>
      <trkpt lat="41.6124140" lon="-8.7872510">
        <ele>8.9</ele>
        <time>2021-05-17T11:48:02Z</time>
      </trkpt>
      <trkpt lat="41.6124180" lon="-8.7872720">
        <ele>9.0</ele>
        <time>2021-05-17T11:48:03Z</time>
      </trkpt>
      <trkpt lat="41.6124170" lon="-8.7872870">
        <ele>9.1</ele>
        <time>2021-05-17T11:48:04Z</time>
      </trkpt>
      <trkpt lat="41.6124110" lon="-8.7873000">
        <ele>9.1</ele>
        <time>2021-05-17T11:48:05Z</time>
      </trkpt>
      <trkpt lat="41.6124030" lon="-8.7873150">
        <ele>9.2</ele>
        <time>2021-05-17T11:48:06Z</time>
      </trkpt>
      <trkpt lat="41.6123960" lon="-8.7873160">
        <ele>9.2</ele>
        <time>2021-05-17T11:48:07Z</time>
      </trkpt>
      <trkpt lat="41.6123950" lon="-8.7873110">
        <ele>9.2</ele>
        <time>2021-05-17T11:48:08Z</time>
      </trkpt>
      <trkpt lat="41.6124030" lon="-8.7873040">
        <ele>9.2</ele>
        <time>2021-05-17T11:48:09Z</time>
      </trkpt>
      <trkpt lat="41.6124160" lon="-8.7872980">
        <ele>9.3</ele>
        <time>2021-05-17T11:48:10Z</time>
      </trkpt>
      <trkpt lat="41.6124230" lon="-8.7872890">
        <ele>9.3</ele>
        <time>2021-05-17T11:48:11Z</time>
      </trkpt>
      <trkpt lat="41.6124210" lon="-8.7872990">
        <ele>9.3</ele>
        <time>2021-05-17T11:48:12Z</time>
      </trkpt>
      <trkpt lat="41.6124190" lon="-8.7873140">
        <ele>9.4</ele>
        <time>2021-05-17T11:48:13Z</time>
      </trkpt>
      <trkpt lat="41.6124270" lon="-8.7873120">
        <ele>9.4</ele>
        <time>2021-05-17T11:48:14Z</time>
      </trkpt>
      <trkpt lat="41.6124260" lon="-8.7873130">
        <ele>9.4</ele>
        <time>2021-05-17T11:48:15Z</time>
      </trkpt>
      <trkpt lat="41.6124250" lon="-8.7873110">
        <ele>9.4</ele>
        <time>2021-05-17T11:48:16Z</time>
      </trkpt>
      <trkpt lat="41.6124300" lon="-8.7873220">
        <ele>9.4</ele>
        <time>2021-05-17T11:48:17Z</time>
      </trkpt>
      <trkpt lat="41.6124320" lon="-8.7873260">
        <ele>9.4</ele>
        <time>2021-05-17T11:48:18Z</time>
      </trkpt>
      <trkpt lat="41.6124280" lon="-8.7873320">
        <ele>9.4</ele>
        <time>2021-05-17T11:48:19Z</time>
      </trkpt>
      <trkpt lat="41.6124240" lon="-8.7873310">
        <ele>9.4</ele>
        <time>2021-05-17T11:48:20Z</time>
      </trkpt>
      <trkpt lat="41.6124230" lon="-8.7873400">
        <ele>9.4</ele>
        <time>2021-05-17T11:48:21Z</time>
      </trkpt>
      <trkpt lat="41.6124240" lon="-8.7873460">
        <ele>9.4</ele>
        <time>2021-05-17T11:48:22Z</time>
      </trkpt>
      <trkpt lat="41.6124180" lon="-8.7873580">
        <ele>9.4</ele>
        <time>2021-05-17T11:48:23Z</time>
      </trkpt>
      <trkpt lat="41.6124130" lon="-8.7873860">
        <ele>9.4</ele>
        <time>2021-05-17T11:48:24Z</time>
      </trkpt>
      <trkpt lat="41.6124130" lon="-8.7873950">
        <ele>9.4</ele>
        <time>2021-05-17T11:48:25Z</time>
      </trkpt>
      <trkpt lat="41.6124010" lon="-8.7874100">
        <ele>9.4</ele>
        <time>2021-05-17T11:48:26Z</time>
      </trkpt>
      <trkpt lat="41.6123910" lon="-8.7874220">
        <ele>9.4</ele>
        <time>2021-05-17T11:48:27Z</time>
      </trkpt>
      <trkpt lat="41.6123820" lon="-8.7874330">
        <ele>9.4</ele>
        <time>2021-05-17T11:48:28Z</time>
      </trkpt>
      <trkpt lat="41.6123750" lon="-8.7874520">
        <ele>9.3</ele>
        <time>2021-05-17T11:48:29Z</time>
      </trkpt>
      <trkpt lat="41.6123700" lon="-8.7874660">
        <ele>9.3</ele>
        <time>2021-05-17T11:48:30Z</time>
      </trkpt>
      <trkpt lat="41.6123620" lon="-8.7874960">
        <ele>9.2</ele>
        <time>2021-05-17T11:48:31Z</time>
      </trkpt>
      <trkpt lat="41.6123570" lon="-8.7875120">
        <ele>9.2</ele>
        <time>2021-05-17T11:48:32Z</time>
      </trkpt>
      <trkpt lat="41.6123520" lon="-8.7875280">
        <ele>9.2</ele>
        <time>2021-05-17T11:48:33Z</time>
      </trkpt>
      <trkpt lat="41.6123450" lon="-8.7875380">
        <ele>9.1</ele>
        <time>2021-05-17T11:48:34Z</time>
      </trkpt>
      <trkpt lat="41.6123460" lon="-8.7875570">
        <ele>9.1</ele>
        <time>2021-05-17T11:48:35Z</time>
      </trkpt>
      <trkpt lat="41.6123470" lon="-8.7875630">
        <ele>9.1</ele>
        <time>2021-05-17T11:48:36Z</time>
      </trkpt>
      <trkpt lat="41.6123490" lon="-8.7875660">
        <ele>9.0</ele>
        <time>2021-05-17T11:48:37Z</time>
      </trkpt>
      <trkpt lat="41.6123490" lon="-8.7875900">
        <ele>9.0</ele>
        <time>2021-05-17T11:48:38Z</time>
      </trkpt>
      <trkpt lat="41.6123540" lon="-8.7876040">
        <ele>8.9</ele>
        <time>2021-05-17T11:48:39Z</time>
      </trkpt>
      <trkpt lat="41.6123580" lon="-8.7876170">
        <ele>8.9</ele>
        <time>2021-05-17T11:48:40Z</time>
      </trkpt>
      <trkpt lat="41.6123570" lon="-8.7876250">
        <ele>8.9</ele>
        <time>2021-05-17T11:48:41Z</time>
      </trkpt>
      <trkpt lat="41.6123540" lon="-8.7876440">
        <ele>8.8</ele>
        <time>2021-05-17T11:48:42Z</time>
      </trkpt>
      <trkpt lat="41.6123580" lon="-8.7876630">
        <ele>8.8</ele>
        <time>2021-05-17T11:48:43Z</time>
      </trkpt>
      <trkpt lat="41.6123530" lon="-8.7876860">
        <ele>8.7</ele>
        <time>2021-05-17T11:48:44Z</time>
      </trkpt>
      <trkpt lat="41.6123530" lon="-8.7877090">
        <ele>8.7</ele>
        <time>2021-05-17T11:48:45Z</time>
      </trkpt>
      <trkpt lat="41.6123460" lon="-8.7877270">
        <ele>8.6</ele>
        <time>2021-05-17T11:48:46Z</time>
      </trkpt>
      <trkpt lat="41.6123460" lon="-8.7877490">
        <ele>8.6</ele>
        <time>2021-05-17T11:48:47Z</time>
      </trkpt>
      <trkpt lat="41.6123440" lon="-8.7877730">
        <ele>8.6</ele>
        <time>2021-05-17T11:48:48Z</time>
      </trkpt>
      <trkpt lat="41.6123390" lon="-8.7877870">
        <ele>8.6</ele>
        <time>2021-05-17T11:48:49Z</time>
      </trkpt>
      <trkpt lat="41.6123350" lon="-8.7878000">
        <ele>8.5</ele>
        <time>2021-05-17T11:48:50Z</time>
      </trkpt>
      <trkpt lat="41.6123180" lon="-8.7878190">
        <ele>8.5</ele>
        <time>2021-05-17T11:48:51Z</time>
      </trkpt>
      <trkpt lat="41.6123080" lon="-8.7878270">
        <ele>8.5</ele>
        <time>2021-05-17T11:48:52Z</time>
      </trkpt>
      <trkpt lat="41.6122980" lon="-8.7878350">
        <ele>8.5</ele>
        <time>2021-05-17T11:48:53Z</time>
      </trkpt>
      <trkpt lat="41.6122910" lon="-8.7878450">
        <ele>8.5</ele>
        <time>2021-05-17T11:48:54Z</time>
      </trkpt>
      <trkpt lat="41.6122780" lon="-8.7878560">
        <ele>8.5</ele>
        <time>2021-05-17T11:48:55Z</time>
      </trkpt>
      <trkpt lat="41.6122700" lon="-8.7878630">
        <ele>8.5</ele>
        <time>2021-05-17T11:48:56Z</time>
      </trkpt>
      <trkpt lat="41.6122490" lon="-8.7878750">
        <ele>8.5</ele>
        <time>2021-05-17T11:48:57Z</time>
      </trkpt>
      <trkpt lat="41.6122390" lon="-8.7878800">
        <ele>8.5</ele>
        <time>2021-05-17T11:48:58Z</time>
      </trkpt>
      <trkpt lat="41.6122290" lon="-8.7878850">
        <ele>8.4</ele>
        <time>2021-05-17T11:48:59Z</time>
      </trkpt>
      <trkpt lat="41.6122060" lon="-8.7878940">
        <ele>8.4</ele>
        <time>2021-05-17T11:49:00Z</time>
      </trkpt>
      <trkpt lat="41.6121960" lon="-8.7879000">
        <ele>8.4</ele>
        <time>2021-05-17T11:49:01Z</time>
      </trkpt>
      <trkpt lat="41.6121850" lon="-8.7879070">
        <ele>8.4</ele>
        <time>2021-05-17T11:49:02Z</time>
      </trkpt>
      <trkpt lat="41.6121740" lon="-8.7879120">
        <ele>8.4</ele>
        <time>2021-05-17T11:49:03Z</time>
      </trkpt>
      <trkpt lat="41.6121560" lon="-8.7879090">
        <ele>8.4</ele>
        <time>2021-05-17T11:49:04Z</time>
      </trkpt>
      <trkpt lat="41.6121370" lon="-8.7879250">
        <ele>8.4</ele>
        <time>2021-05-17T11:49:05Z</time>
      </trkpt>
      <trkpt lat="41.6121320" lon="-8.7879340">
        <ele>8.4</ele>
        <time>2021-05-17T11:49:06Z</time>
      </trkpt>
      <trkpt lat="41.6121260" lon="-8.7879420">
        <ele>8.4</ele>
        <time>2021-05-17T11:49:07Z</time>
      </trkpt>
      <trkpt lat="41.6121000" lon="-8.7879520">
        <ele>8.3</ele>
        <time>2021-05-17T11:49:08Z</time>
      </trkpt>
      <trkpt lat="41.6120940" lon="-8.7879570">
        <ele>8.3</ele>
        <time>2021-05-17T11:49:09Z</time>
      </trkpt>
      <trkpt lat="41.6120880" lon="-8.7879630">
        <ele>8.3</ele>
        <time>2021-05-17T11:49:10Z</time>
      </trkpt>
      <trkpt lat="41.6120680" lon="-8.7879760">
        <ele>8.2</ele>
        <time>2021-05-17T11:49:11Z</time>
      </trkpt>
      <trkpt lat="41.6120600" lon="-8.7879780">
        <ele>8.2</ele>
        <time>2021-05-17T11:49:12Z</time>
      </trkpt>
      <trkpt lat="41.6120520" lon="-8.7879800">
        <ele>8.2</ele>
        <time>2021-05-17T11:49:13Z</time>
      </trkpt>
      <trkpt lat="41.6120240" lon="-8.7879820">
        <ele>8.1</ele>
        <time>2021-05-17T11:49:14Z</time>
      </trkpt>
      <trkpt lat="41.6120170" lon="-8.7880000">
        <ele>8.1</ele>
        <time>2021-05-17T11:49:15Z</time>
      </trkpt>
      <trkpt lat="41.6120110" lon="-8.7880120">
        <ele>8.0</ele>
        <time>2021-05-17T11:49:16Z</time>
      </trkpt>
      <trkpt lat="41.6120060" lon="-8.7880170">
        <ele>8.0</ele>
        <time>2021-05-17T11:49:17Z</time>
      </trkpt>
      <trkpt lat="41.6119990" lon="-8.7880260">
        <ele>8.0</ele>
        <time>2021-05-17T11:49:18Z</time>
      </trkpt>
      <trkpt lat="41.6119950" lon="-8.7880290">
        <ele>8.0</ele>
        <time>2021-05-17T11:49:19Z</time>
      </trkpt>
      <trkpt lat="41.6119880" lon="-8.7880330">
        <ele>7.9</ele>
        <time>2021-05-17T11:49:20Z</time>
      </trkpt>
      <trkpt lat="41.6119800" lon="-8.7880300">
        <ele>7.9</ele>
        <time>2021-05-17T11:49:21Z</time>
      </trkpt>
      <trkpt lat="41.6119540" lon="-8.7880200">
        <ele>7.8</ele>
        <time>2021-05-17T11:49:22Z</time>
      </trkpt>
      <trkpt lat="41.6119490" lon="-8.7880200">
        <ele>7.8</ele>
        <time>2021-05-17T11:49:23Z</time>
      </trkpt>
      <trkpt lat="41.6119430" lon="-8.7880190">
        <ele>7.8</ele>
        <time>2021-05-17T11:49:24Z</time>
      </trkpt>
      <trkpt lat="41.6119280" lon="-8.7880520">
        <ele>7.6</ele>
        <time>2021-05-17T11:49:25Z</time>
      </trkpt>
      <trkpt lat="41.6119150" lon="-8.7880650">
        <ele>7.5</ele>
        <time>2021-05-17T11:49:26Z</time>
      </trkpt>
      <trkpt lat="41.6118970" lon="-8.7880910">
        <ele>7.4</ele>
        <time>2021-05-17T11:49:27Z</time>
      </trkpt>
      <trkpt lat="41.6118910" lon="-8.7881040">
        <ele>7.3</ele>
        <time>2021-05-17T11:49:28Z</time>
      </trkpt>
      <trkpt lat="41.6118860" lon="-8.7881130">
        <ele>7.3</ele>
        <time>2021-05-17T11:49:29Z</time>
      </trkpt>
      <trkpt lat="41.6118760" lon="-8.7881100">
        <ele>7.2</ele>
        <time>2021-05-17T11:49:30Z</time>
      </trkpt>
      <trkpt lat="41.6118670" lon="-8.7881240">
        <ele>7.2</ele>
        <time>2021-05-17T11:49:31Z</time>
      </trkpt>
      <trkpt lat="41.6118580" lon="-8.7881470">
        <ele>7.0</ele>
        <time>2021-05-17T11:49:32Z</time>
      </trkpt>
      <trkpt lat="41.6118430" lon="-8.7881610">
        <ele>6.9</ele>
        <time>2021-05-17T11:49:33Z</time>
      </trkpt>
      <trkpt lat="41.6118260" lon="-8.7881690">
        <ele>6.8</ele>
        <time>2021-05-17T11:49:34Z</time>
      </trkpt>
      <trkpt lat="41.6118180" lon="-8.7881770">
        <ele>6.8</ele>
        <time>2021-05-17T11:49:35Z</time>
      </trkpt>
      <trkpt lat="41.6118100" lon="-8.7881840">
        <ele>6.7</ele>
        <time>2021-05-17T11:49:36Z</time>
      </trkpt>
      <trkpt lat="41.6117990" lon="-8.7881760">
        <ele>6.6</ele>
        <time>2021-05-17T11:49:37Z</time>
      </trkpt>
      <trkpt lat="41.6117840" lon="-8.7881930">
        <ele>6.5</ele>
        <time>2021-05-17T11:49:38Z</time>
      </trkpt>
      <trkpt lat="41.6117700" lon="-8.7881950">
        <ele>6.4</ele>
        <time>2021-05-17T11:49:39Z</time>
      </trkpt>
      <trkpt lat="41.6117650" lon="-8.7882160">
        <ele>6.3</ele>
        <time>2021-05-17T11:49:40Z</time>
      </trkpt>
      <trkpt lat="41.6117570" lon="-8.7882250">
        <ele>6.8</ele>
        <time>2021-05-17T11:49:41Z</time>
      </trkpt>
      <trkpt lat="41.6117500" lon="-8.7882510">
        <ele>6.9</ele>
        <time>2021-05-17T11:49:42Z</time>
      </trkpt>
      <trkpt lat="41.6117460" lon="-8.7882630">
        <ele>7.0</ele>
        <time>2021-05-17T11:49:43Z</time>
      </trkpt>
      <trkpt lat="41.6117430" lon="-8.7882750">
        <ele>7.0</ele>
        <time>2021-05-17T11:49:44Z</time>
      </trkpt>
      <trkpt lat="41.6117430" lon="-8.7882910">
        <ele>7.1</ele>
        <time>2021-05-17T11:49:45Z</time>
      </trkpt>
      <trkpt lat="41.6117450" lon="-8.7882940">
        <ele>7.1</ele>
        <time>2021-05-17T11:49:46Z</time>
      </trkpt>
      <trkpt lat="41.6117430" lon="-8.7883170">
        <ele>7.2</ele>
        <time>2021-05-17T11:49:47Z</time>
      </trkpt>
      <trkpt lat="41.6117470" lon="-8.7883370">
        <ele>7.3</ele>
        <time>2021-05-17T11:49:48Z</time>
      </trkpt>
      <trkpt lat="41.6117500" lon="-8.7883490">
        <ele>7.3</ele>
        <time>2021-05-17T11:49:49Z</time>
      </trkpt>
      <trkpt lat="41.6117520" lon="-8.7883600">
        <ele>7.4</ele>
        <time>2021-05-17T11:49:50Z</time>
      </trkpt>
      <trkpt lat="41.6117540" lon="-8.7883720">
        <ele>7.4</ele>
        <time>2021-05-17T11:49:51Z</time>
      </trkpt>
      <trkpt lat="41.6117710" lon="-8.7883650">
        <ele>7.5</ele>
        <time>2021-05-17T11:49:52Z</time>
      </trkpt>
      <trkpt lat="41.6117710" lon="-8.7883810">
        <ele>7.6</ele>
        <time>2021-05-17T11:49:53Z</time>
      </trkpt>
      <trkpt lat="41.6117780" lon="-8.7883900">
        <ele>7.7</ele>
        <time>2021-05-17T11:49:54Z</time>
      </trkpt>
      <trkpt lat="41.6117730" lon="-8.7884130">
        <ele>7.8</ele>
        <time>2021-05-17T11:49:55Z</time>
      </trkpt>
      <trkpt lat="41.6117740" lon="-8.7884290">
        <ele>7.8</ele>
        <time>2021-05-17T11:49:56Z</time>
      </trkpt>
      <trkpt lat="41.6117790" lon="-8.7884380">
        <ele>7.9</ele>
        <time>2021-05-17T11:49:57Z</time>
      </trkpt>
      <trkpt lat="41.6117760" lon="-8.7884330">
        <ele>7.9</ele>
        <time>2021-05-17T11:49:58Z</time>
      </trkpt>
      <trkpt lat="41.6117710" lon="-8.7884360">
        <ele>7.9</ele>
        <time>2021-05-17T11:49:59Z</time>
      </trkpt>
      <trkpt lat="41.6117720" lon="-8.7884420">
        <ele>8.0</ele>
        <time>2021-05-17T11:50:00Z</time>
      </trkpt>
      <trkpt lat="41.6117710" lon="-8.7884540">
        <ele>8.0</ele>
        <time>2021-05-17T11:50:01Z</time>
      </trkpt>
      <trkpt lat="41.6117710" lon="-8.7884750">
        <ele>8.1</ele>
        <time>2021-05-17T11:50:02Z</time>
      </trkpt>
      <trkpt lat="41.6117670" lon="-8.7884840">
        <ele>8.1</ele>
        <time>2021-05-17T11:50:03Z</time>
      </trkpt>
      <trkpt lat="41.6117660" lon="-8.7884830">
        <ele>8.1</ele>
        <time>2021-05-17T11:50:04Z</time>
      </trkpt>
      <trkpt lat="41.6117630" lon="-8.7884810">
        <ele>8.2</ele>
        <time>2021-05-17T11:50:05Z</time>
      </trkpt>
      <trkpt lat="41.6117600" lon="-8.7884800">
        <ele>8.2</ele>
        <time>2021-05-17T11:50:06Z</time>
      </trkpt>
      <trkpt lat="41.6117620" lon="-8.7884770">
        <ele>8.2</ele>
        <time>2021-05-17T11:50:07Z</time>
      </trkpt>
      <trkpt lat="41.6117630" lon="-8.7884760">
        <ele>8.2</ele>
        <time>2021-05-17T11:50:08Z</time>
      </trkpt>
      <trkpt lat="41.6117700" lon="-8.7884700">
        <ele>8.2</ele>
        <time>2021-05-17T11:50:09Z</time>
      </trkpt>
      <trkpt lat="41.6117750" lon="-8.7884780">
        <ele>8.3</ele>
        <time>2021-05-17T11:50:10Z</time>
      </trkpt>
      <trkpt lat="41.6117690" lon="-8.7884880">
        <ele>8.3</ele>
        <time>2021-05-17T11:50:11Z</time>
      </trkpt>
      <trkpt lat="41.6117780" lon="-8.7884960">
        <ele>8.4</ele>
        <time>2021-05-17T11:50:12Z</time>
      </trkpt>
      <trkpt lat="41.6117670" lon="-8.7884840">
        <ele>8.5</ele>
        <time>2021-05-17T11:50:13Z</time>
      </trkpt>
      <trkpt lat="41.6117670" lon="-8.7884890">
        <ele>8.5</ele>
        <time>2021-05-17T11:50:14Z</time>
      </trkpt>
      <trkpt lat="41.6117690" lon="-8.7884930">
        <ele>8.5</ele>
        <time>2021-05-17T11:50:15Z</time>
      </trkpt>
      <trkpt lat="41.6117700" lon="-8.7884920">
        <ele>8.5</ele>
        <time>2021-05-17T11:50:16Z</time>
      </trkpt>
      <trkpt lat="41.6117730" lon="-8.7884910">
        <ele>8.5</ele>
        <time>2021-05-17T11:50:17Z</time>
      </trkpt>
      <trkpt lat="41.6117740" lon="-8.7884880">
        <ele>8.6</ele>
        <time>2021-05-17T11:50:18Z</time>
      </trkpt>
      <trkpt lat="41.6117760" lon="-8.7884870">
        <ele>8.6</ele>
        <time>2021-05-17T11:50:19Z</time>
      </trkpt>
      <trkpt lat="41.6117760" lon="-8.7884870">
        <ele>8.6</ele>
        <time>2021-05-17T11:50:20Z</time>
      </trkpt>
      <trkpt lat="41.6117760" lon="-8.7884870">
        <ele>8.6</ele>
        <time>2021-05-17T11:50:21Z</time>
      </trkpt>
      <trkpt lat="41.6117870" lon="-8.7884820">
        <ele>8.6</ele>
        <time>2021-05-17T11:50:22Z</time>
      </trkpt>
      <trkpt lat="41.6117890" lon="-8.7884800">
        <ele>8.6</ele>
        <time>2021-05-17T11:50:23Z</time>
      </trkpt>
      <trkpt lat="41.6117900" lon="-8.7884780">
        <ele>8.7</ele>
        <time>2021-05-17T11:50:24Z</time>
      </trkpt>
      <trkpt lat="41.6117920" lon="-8.7884760">
        <ele>8.7</ele>
        <time>2021-05-17T11:50:25Z</time>
      </trkpt>
      <trkpt lat="41.6117910" lon="-8.7884770">
        <ele>8.7</ele>
        <time>2021-05-17T11:50:26Z</time>
      </trkpt>
      <trkpt lat="41.6117930" lon="-8.7884740">
        <ele>8.7</ele>
        <time>2021-05-17T11:50:27Z</time>
      </trkpt>
      <trkpt lat="41.6117930" lon="-8.7884760">
        <ele>8.7</ele>
        <time>2021-05-17T11:50:28Z</time>
      </trkpt>
      <trkpt lat="41.6117950" lon="-8.7884740">
        <ele>8.7</ele>
        <time>2021-05-17T11:50:29Z</time>
      </trkpt>
      <trkpt lat="41.6117970" lon="-8.7884760">
        <ele>8.7</ele>
        <time>2021-05-17T11:50:30Z</time>
      </trkpt>
      <trkpt lat="41.6118000" lon="-8.7884760">
        <ele>8.7</ele>
        <time>2021-05-17T11:50:31Z</time>
      </trkpt>
      <trkpt lat="41.6118000" lon="-8.7884710">
        <ele>8.8</ele>
        <time>2021-05-17T11:50:32Z</time>
      </trkpt>
      <trkpt lat="41.6118010" lon="-8.7884770">
        <ele>8.8</ele>
        <time>2021-05-17T11:50:33Z</time>
      </trkpt>
      <trkpt lat="41.6117990" lon="-8.7884840">
        <ele>8.8</ele>
        <time>2021-05-17T11:50:34Z</time>
      </trkpt>
      <trkpt lat="41.6117970" lon="-8.7884750">
        <ele>8.9</ele>
        <time>2021-05-17T11:50:35Z</time>
      </trkpt>
      <trkpt lat="41.6117960" lon="-8.7884730">
        <ele>8.9</ele>
        <time>2021-05-17T11:50:36Z</time>
      </trkpt>
      <trkpt lat="41.6117970" lon="-8.7884720">
        <ele>8.9</ele>
        <time>2021-05-17T11:50:37Z</time>
      </trkpt>
      <trkpt lat="41.6117980" lon="-8.7884660">
        <ele>8.9</ele>
        <time>2021-05-17T11:50:38Z</time>
      </trkpt>
      <trkpt lat="41.6118020" lon="-8.7884650">
        <ele>8.9</ele>
        <time>2021-05-17T11:50:39Z</time>
      </trkpt>
      <trkpt lat="41.6117990" lon="-8.7884690">
        <ele>9.0</ele>
        <time>2021-05-17T11:50:40Z</time>
      </trkpt>
      <trkpt lat="41.6117990" lon="-8.7884700">
        <ele>9.0</ele>
        <time>2021-05-17T11:50:41Z</time>
      </trkpt>
      <trkpt lat="41.6117990" lon="-8.7884700">
        <ele>9.0</ele>
        <time>2021-05-17T11:50:42Z</time>
      </trkpt>
      <trkpt lat="41.6117970" lon="-8.7884700">
        <ele>9.0</ele>
        <time>2021-05-17T11:50:43Z</time>
      </trkpt>
      <trkpt lat="41.6117950" lon="-8.7884680">
        <ele>9.0</ele>
        <time>2021-05-17T11:50:44Z</time>
      </trkpt>
      <trkpt lat="41.6117900" lon="-8.7884580">
        <ele>9.0</ele>
        <time>2021-05-17T11:50:45Z</time>
      </trkpt>
      <trkpt lat="41.6117900" lon="-8.7884560">
        <ele>9.0</ele>
        <time>2021-05-17T11:50:46Z</time>
      </trkpt>
      <trkpt lat="41.6117900" lon="-8.7884560">
        <ele>9.0</ele>
        <time>2021-05-17T11:50:47Z</time>
      </trkpt>
      <trkpt lat="41.6117950" lon="-8.7884570">
        <ele>9.1</ele>
        <time>2021-05-17T11:50:48Z</time>
      </trkpt>
      <trkpt lat="41.6117920" lon="-8.7884570">
        <ele>9.1</ele>
        <time>2021-05-17T11:50:49Z</time>
      </trkpt>
      <trkpt lat="41.6117920" lon="-8.7884620">
        <ele>9.1</ele>
        <time>2021-05-17T11:50:50Z</time>
      </trkpt>
      <trkpt lat="41.6117960" lon="-8.7884650">
        <ele>9.1</ele>
        <time>2021-05-17T11:50:51Z</time>
      </trkpt>
      <trkpt lat="41.6117950" lon="-8.7884630">
        <ele>9.1</ele>
        <time>2021-05-17T11:50:52Z</time>
      </trkpt>
      <trkpt lat="41.6117950" lon="-8.7884670">
        <ele>9.2</ele>
        <time>2021-05-17T11:50:53Z</time>
      </trkpt>
      <trkpt lat="41.6117930" lon="-8.7884610">
        <ele>9.2</ele>
        <time>2021-05-17T11:50:54Z</time>
      </trkpt>
      <trkpt lat="41.6117940" lon="-8.7884600">
        <ele>9.2</ele>
        <time>2021-05-17T11:50:55Z</time>
      </trkpt>
      <trkpt lat="41.6117930" lon="-8.7884580">
        <ele>9.2</ele>
        <time>2021-05-17T11:50:56Z</time>
      </trkpt>
      <trkpt lat="41.6117880" lon="-8.7884500">
        <ele>9.2</ele>
        <time>2021-05-17T11:50:57Z</time>
      </trkpt>
      <trkpt lat="41.6117870" lon="-8.7884410">
        <ele>9.3</ele>
        <time>2021-05-17T11:50:58Z</time>
      </trkpt>
      <trkpt lat="41.6117860" lon="-8.7884370">
        <ele>9.3</ele>
        <time>2021-05-17T11:50:59Z</time>
      </trkpt>
      <trkpt lat="41.6117840" lon="-8.7884340">
        <ele>9.3</ele>
        <time>2021-05-17T11:51:00Z</time>
      </trkpt>
      <trkpt lat="41.6117760" lon="-8.7884350">
        <ele>9.4</ele>
        <time>2021-05-17T11:51:01Z</time>
      </trkpt>
      <trkpt lat="41.6117760" lon="-8.7884370">
        <ele>9.4</ele>
        <time>2021-05-17T11:51:02Z</time>
      </trkpt>
      <trkpt lat="41.6117740" lon="-8.7884400">
        <ele>9.4</ele>
        <time>2021-05-17T11:51:03Z</time>
      </trkpt>
      <trkpt lat="41.6117680" lon="-8.7884450">
        <ele>9.4</ele>
        <time>2021-05-17T11:51:04Z</time>
      </trkpt>
      <trkpt lat="41.6117650" lon="-8.7884460">
        <ele>9.4</ele>
        <time>2021-05-17T11:51:05Z</time>
      </trkpt>
      <trkpt lat="41.6117610" lon="-8.7884470">
        <ele>9.5</ele>
        <time>2021-05-17T11:51:06Z</time>
      </trkpt>
      <trkpt lat="41.6117620" lon="-8.7884480">
        <ele>9.5</ele>
        <time>2021-05-17T11:51:07Z</time>
      </trkpt>
      <trkpt lat="41.6117630" lon="-8.7884430">
        <ele>9.5</ele>
        <time>2021-05-17T11:51:08Z</time>
      </trkpt>
      <trkpt lat="41.6117610" lon="-8.7884480">
        <ele>9.5</ele>
        <time>2021-05-17T11:51:09Z</time>
      </trkpt>
      <trkpt lat="41.6117580" lon="-8.7884510">
        <ele>9.5</ele>
        <time>2021-05-17T11:51:10Z</time>
      </trkpt>
      <trkpt lat="41.6117590" lon="-8.7884550">
        <ele>9.6</ele>
        <time>2021-05-17T11:51:11Z</time>
      </trkpt>
      <trkpt lat="41.6117590" lon="-8.7884580">
        <ele>9.6</ele>
        <time>2021-05-17T11:51:12Z</time>
      </trkpt>
      <trkpt lat="41.6117580" lon="-8.7884610">
        <ele>9.6</ele>
        <time>2021-05-17T11:51:13Z</time>
      </trkpt>
      <trkpt lat="41.6117530" lon="-8.7884590">
        <ele>9.6</ele>
        <time>2021-05-17T11:51:14Z</time>
      </trkpt>
      <trkpt lat="41.6117470" lon="-8.7884530">
        <ele>9.7</ele>
        <time>2021-05-17T11:51:15Z</time>
      </trkpt>
      <trkpt lat="41.6117500" lon="-8.7884520">
        <ele>9.7</ele>
        <time>2021-05-17T11:51:16Z</time>
      </trkpt>
      <trkpt lat="41.6117470" lon="-8.7884610">
        <ele>9.7</ele>
        <time>2021-05-17T11:51:17Z</time>
      </trkpt>
      <trkpt lat="41.6117510" lon="-8.7884650">
        <ele>9.7</ele>
        <time>2021-05-17T11:51:18Z</time>
      </trkpt>
      <trkpt lat="41.6117480" lon="-8.7884550">
        <ele>9.8</ele>
        <time>2021-05-17T11:51:19Z</time>
      </trkpt>
      <trkpt lat="41.6117500" lon="-8.7884480">
        <ele>9.8</ele>
        <time>2021-05-17T11:51:20Z</time>
      </trkpt>
      <trkpt lat="41.6117460" lon="-8.7884500">
        <ele>9.8</ele>
        <time>2021-05-17T11:51:21Z</time>
      </trkpt>
      <trkpt lat="41.6117550" lon="-8.7884590">
        <ele>9.9</ele>
        <time>2021-05-17T11:51:22Z</time>
      </trkpt>
      <trkpt lat="41.6117730" lon="-8.7884670">
        <ele>10.0</ele>
        <time>2021-05-17T11:51:23Z</time>
      </trkpt>
      <trkpt lat="41.6117690" lon="-8.7884900">
        <ele>10.1</ele>
        <time>2021-05-17T11:51:24Z</time>
      </trkpt>
      <trkpt lat="41.6117710" lon="-8.7884890">
        <ele>10.1</ele>
        <time>2021-05-17T11:51:25Z</time>
      </trkpt>
      <trkpt lat="41.6117750" lon="-8.7884900">
        <ele>10.1</ele>
        <time>2021-05-17T11:51:26Z</time>
      </trkpt>
      <trkpt lat="41.6117840" lon="-8.7884860">
        <ele>10.2</ele>
        <time>2021-05-17T11:51:27Z</time>
      </trkpt>
      <trkpt lat="41.6117910" lon="-8.7884850">
        <ele>10.2</ele>
        <time>2021-05-17T11:51:28Z</time>
      </trkpt>
      <trkpt lat="41.6117890" lon="-8.7884850">
        <ele>10.2</ele>
        <time>2021-05-17T11:51:29Z</time>
      </trkpt>
      <trkpt lat="41.6117870" lon="-8.7884810">
        <ele>10.3</ele>
        <time>2021-05-17T11:51:30Z</time>
      </trkpt>
      <trkpt lat="41.6117870" lon="-8.7884920">
        <ele>10.3</ele>
        <time>2021-05-17T11:51:31Z</time>
      </trkpt>
      <trkpt lat="41.6117850" lon="-8.7884940">
        <ele>10.3</ele>
        <time>2021-05-17T11:51:32Z</time>
      </trkpt>
      <trkpt lat="41.6117870" lon="-8.7884890">
        <ele>10.3</ele>
        <time>2021-05-17T11:51:33Z</time>
      </trkpt>
      <trkpt lat="41.6117820" lon="-8.7884990">
        <ele>10.4</ele>
        <time>2021-05-17T11:51:34Z</time>
      </trkpt>
      <trkpt lat="41.6117780" lon="-8.7885040">
        <ele>10.4</ele>
        <time>2021-05-17T11:51:35Z</time>
      </trkpt>
      <trkpt lat="41.6117780" lon="-8.7885070">
        <ele>10.4</ele>
        <time>2021-05-17T11:51:36Z</time>
      </trkpt>
      <trkpt lat="41.6117780" lon="-8.7885040">
        <ele>10.4</ele>
        <time>2021-05-17T11:51:37Z</time>
      </trkpt>
      <trkpt lat="41.6117810" lon="-8.7885040">
        <ele>10.5</ele>
        <time>2021-05-17T11:51:38Z</time>
      </trkpt>
      <trkpt lat="41.6117860" lon="-8.7884940">
        <ele>10.5</ele>
        <time>2021-05-17T11:51:39Z</time>
      </trkpt>
      <trkpt lat="41.6117890" lon="-8.7884860">
        <ele>10.5</ele>
        <time>2021-05-17T11:51:40Z</time>
      </trkpt>
      <trkpt lat="41.6117970" lon="-8.7884770">
        <ele>10.6</ele>
        <time>2021-05-17T11:51:41Z</time>
      </trkpt>
      <trkpt lat="41.6117990" lon="-8.7884720">
        <ele>10.6</ele>
        <time>2021-05-17T11:51:42Z</time>
      </trkpt>
      <trkpt lat="41.6117970" lon="-8.7884670">
        <ele>10.7</ele>
        <time>2021-05-17T11:51:43Z</time>
      </trkpt>
      <trkpt lat="41.6118020" lon="-8.7884710">
        <ele>10.7</ele>
        <time>2021-05-17T11:51:44Z</time>
      </trkpt>
      <trkpt lat="41.6117970" lon="-8.7884630">
        <ele>10.7</ele>
        <time>2021-05-17T11:51:45Z</time>
      </trkpt>
      <trkpt lat="41.6117960" lon="-8.7884670">
        <ele>10.7</ele>
        <time>2021-05-17T11:51:46Z</time>
      </trkpt>
      <trkpt lat="41.6117930" lon="-8.7884610">
        <ele>10.8</ele>
        <time>2021-05-17T11:51:47Z</time>
      </trkpt>
      <trkpt lat="41.6117970" lon="-8.7884780">
        <ele>10.9</ele>
        <time>2021-05-17T11:51:48Z</time>
      </trkpt>
      <trkpt lat="41.6117920" lon="-8.7884720">
        <ele>10.9</ele>
        <time>2021-05-17T11:51:49Z</time>
      </trkpt>
      <trkpt lat="41.6117870" lon="-8.7884730">
        <ele>10.9</ele>
        <time>2021-05-17T11:51:50Z</time>
      </trkpt>
      <trkpt lat="41.6117850" lon="-8.7884630">
        <ele>11.0</ele>
        <time>2021-05-17T11:51:51Z</time>
      </trkpt>
      <trkpt lat="41.6117840" lon="-8.7884610">
        <ele>11.0</ele>
        <time>2021-05-17T11:51:52Z</time>
      </trkpt>
      <trkpt lat="41.6117870" lon="-8.7884570">
        <ele>11.0</ele>
        <time>2021-05-17T11:51:53Z</time>
      </trkpt>
      <trkpt lat="41.6117870" lon="-8.7884590">
        <ele>11.0</ele>
        <time>2021-05-17T11:51:54Z</time>
      </trkpt>
      <trkpt lat="41.6117870" lon="-8.7884540">
        <ele>11.0</ele>
        <time>2021-05-17T11:51:55Z</time>
      </trkpt>
      <trkpt lat="41.6117820" lon="-8.7884510">
        <ele>11.1</ele>
        <time>2021-05-17T11:51:56Z</time>
      </trkpt>
      <trkpt lat="41.6117830" lon="-8.7884510">
        <ele>11.1</ele>
        <time>2021-05-17T11:51:57Z</time>
      </trkpt>
      <trkpt lat="41.6117830" lon="-8.7884510">
        <ele>11.1</ele>
        <time>2021-05-17T11:51:58Z</time>
      </trkpt>
      <trkpt lat="41.6117830" lon="-8.7884490">
        <ele>11.1</ele>
        <time>2021-05-17T11:51:59Z</time>
      </trkpt>
      <trkpt lat="41.6117790" lon="-8.7884500">
        <ele>11.1</ele>
        <time>2021-05-17T11:52:00Z</time>
      </trkpt>
      <trkpt lat="41.6117800" lon="-8.7884480">
        <ele>11.1</ele>
        <time>2021-05-17T11:52:01Z</time>
      </trkpt>
      <trkpt lat="41.6117810" lon="-8.7884450">
        <ele>11.1</ele>
        <time>2021-05-17T11:52:02Z</time>
      </trkpt>
      <trkpt lat="41.6117770" lon="-8.7884420">
        <ele>11.1</ele>
        <time>2021-05-17T11:52:03Z</time>
      </trkpt>
      <trkpt lat="41.6117770" lon="-8.7884420">
        <ele>11.1</ele>
        <time>2021-05-17T11:52:04Z</time>
      </trkpt>
      <trkpt lat="41.6117770" lon="-8.7884420">
        <ele>11.1</ele>
        <time>2021-05-17T11:52:05Z</time>
      </trkpt>
      <trkpt lat="41.6117770" lon="-8.7884420">
        <ele>11.1</ele>
        <time>2021-05-17T11:52:06Z</time>
      </trkpt>
      <trkpt lat="41.6117570" lon="-8.7884200">
        <ele>11.3</ele>
        <time>2021-05-17T11:52:07Z</time>
      </trkpt>
      <trkpt lat="41.6117580" lon="-8.7884230">
        <ele>11.3</ele>
        <time>2021-05-17T11:52:08Z</time>
      </trkpt>
      <trkpt lat="41.6117540" lon="-8.7884230">
        <ele>11.3</ele>
        <time>2021-05-17T11:52:09Z</time>
      </trkpt>
      <trkpt lat="41.6117530" lon="-8.7884220">
        <ele>11.3</ele>
        <time>2021-05-17T11:52:10Z</time>
      </trkpt>
      <trkpt lat="41.6117510" lon="-8.7884210">
        <ele>11.3</ele>
        <time>2021-05-17T11:52:11Z</time>
      </trkpt>
      <trkpt lat="41.6117520" lon="-8.7884240">
        <ele>11.3</ele>
        <time>2021-05-17T11:52:12Z</time>
      </trkpt>
      <trkpt lat="41.6117540" lon="-8.7884260">
        <ele>11.4</ele>
        <time>2021-05-17T11:52:13Z</time>
      </trkpt>
      <trkpt lat="41.6117540" lon="-8.7884270">
        <ele>11.4</ele>
        <time>2021-05-17T11:52:14Z</time>
      </trkpt>
      <trkpt lat="41.6117580" lon="-8.7884270">
        <ele>11.4</ele>
        <time>2021-05-17T11:52:15Z</time>
      </trkpt>
      <trkpt lat="41.6117600" lon="-8.7884290">
        <ele>11.4</ele>
        <time>2021-05-17T11:52:16Z</time>
      </trkpt>
      <trkpt lat="41.6117680" lon="-8.7884320">
        <ele>11.4</ele>
        <time>2021-05-17T11:52:17Z</time>
      </trkpt>
      <trkpt lat="41.6117710" lon="-8.7884330">
        <ele>11.5</ele>
        <time>2021-05-17T11:52:18Z</time>
      </trkpt>
      <trkpt lat="41.6117750" lon="-8.7884320">
        <ele>11.5</ele>
        <time>2021-05-17T11:52:19Z</time>
      </trkpt>
      <trkpt lat="41.6117780" lon="-8.7884370">
        <ele>11.5</ele>
        <time>2021-05-17T11:52:20Z</time>
      </trkpt>
      <trkpt lat="41.6117790" lon="-8.7884350">
        <ele>11.5</ele>
        <time>2021-05-17T11:52:21Z</time>
      </trkpt>
      <trkpt lat="41.6117820" lon="-8.7884370">
        <ele>11.5</ele>
        <time>2021-05-17T11:52:22Z</time>
      </trkpt>
      <trkpt lat="41.6117840" lon="-8.7884410">
        <ele>11.6</ele>
        <time>2021-05-17T11:52:23Z</time>
      </trkpt>
      <trkpt lat="41.6117860" lon="-8.7884460">
        <ele>11.6</ele>
        <time>2021-05-17T11:52:24Z</time>
      </trkpt>
      <trkpt lat="41.6117870" lon="-8.7884540">
        <ele>11.6</ele>
        <time>2021-05-17T11:52:25Z</time>
      </trkpt>
      <trkpt lat="41.6117860" lon="-8.7884580">
        <ele>11.6</ele>
        <time>2021-05-17T11:52:26Z</time>
      </trkpt>
      <trkpt lat="41.6117850" lon="-8.7884720">
        <ele>11.7</ele>
        <time>2021-05-17T11:52:27Z</time>
      </trkpt>
      <trkpt lat="41.6117870" lon="-8.7884670">
        <ele>11.7</ele>
        <time>2021-05-17T11:52:28Z</time>
      </trkpt>
      <trkpt lat="41.6117820" lon="-8.7884710">
        <ele>11.8</ele>
        <time>2021-05-17T11:52:29Z</time>
      </trkpt>
      <trkpt lat="41.6117840" lon="-8.7884770">
        <ele>11.8</ele>
        <time>2021-05-17T11:52:30Z</time>
      </trkpt>
      <trkpt lat="41.6117860" lon="-8.7884820">
        <ele>11.8</ele>
        <time>2021-05-17T11:52:31Z</time>
      </trkpt>
      <trkpt lat="41.6117880" lon="-8.7884890">
        <ele>11.8</ele>
        <time>2021-05-17T11:52:32Z</time>
      </trkpt>
      <trkpt lat="41.6117880" lon="-8.7884940">
        <ele>11.9</ele>
        <time>2021-05-17T11:52:33Z</time>
      </trkpt>
      <trkpt lat="41.6117890" lon="-8.7884960">
        <ele>11.9</ele>
        <time>2021-05-17T11:52:34Z</time>
      </trkpt>
      <trkpt lat="41.6117890" lon="-8.7884980">
        <ele>11.9</ele>
        <time>2021-05-17T11:52:35Z</time>
      </trkpt>
      <trkpt lat="41.6117900" lon="-8.7885000">
        <ele>11.9</ele>
        <time>2021-05-17T11:52:36Z</time>
      </trkpt>
      <trkpt lat="41.6117900" lon="-8.7885030">
        <ele>11.9</ele>
        <time>2021-05-17T11:52:37Z</time>
      </trkpt>
      <trkpt lat="41.6117900" lon="-8.7885080">
        <ele>11.9</ele>
        <time>2021-05-17T11:52:38Z</time>
      </trkpt>
      <trkpt lat="41.6117900" lon="-8.7885070">
        <ele>11.9</ele>
        <time>2021-05-17T11:52:39Z</time>
      </trkpt>
      <trkpt lat="41.6117880" lon="-8.7885040">
        <ele>11.9</ele>
        <time>2021-05-17T11:52:40Z</time>
      </trkpt>
      <trkpt lat="41.6117900" lon="-8.7885050">
        <ele>11.9</ele>
        <time>2021-05-17T11:52:41Z</time>
      </trkpt>
      <trkpt lat="41.6117910" lon="-8.7885030">
        <ele>12.0</ele>
        <time>2021-05-17T11:52:42Z</time>
      </trkpt>
      <trkpt lat="41.6117910" lon="-8.7884990">
        <ele>12.0</ele>
        <time>2021-05-17T11:52:43Z</time>
      </trkpt>
      <trkpt lat="41.6117900" lon="-8.7884990">
        <ele>12.0</ele>
        <time>2021-05-17T11:52:44Z</time>
      </trkpt>
      <trkpt lat="41.6117910" lon="-8.7884980">
        <ele>12.0</ele>
        <time>2021-05-17T11:52:45Z</time>
      </trkpt>
      <trkpt lat="41.6117930" lon="-8.7884970">
        <ele>12.0</ele>
        <time>2021-05-17T11:52:46Z</time>
      </trkpt>
      <trkpt lat="41.6117930" lon="-8.7884950">
        <ele>12.0</ele>
        <time>2021-05-17T11:52:47Z</time>
      </trkpt>
      <trkpt lat="41.6117920" lon="-8.7884900">
        <ele>12.0</ele>
        <time>2021-05-17T11:52:48Z</time>
      </trkpt>
      <trkpt lat="41.6117910" lon="-8.7884900">
        <ele>12.0</ele>
        <time>2021-05-17T11:52:49Z</time>
      </trkpt>
      <trkpt lat="41.6117880" lon="-8.7884880">
        <ele>12.1</ele>
        <time>2021-05-17T11:52:50Z</time>
      </trkpt>
      <trkpt lat="41.6117910" lon="-8.7884840">
        <ele>12.1</ele>
        <time>2021-05-17T11:52:51Z</time>
      </trkpt>
      <trkpt lat="41.6117870" lon="-8.7884800">
        <ele>12.1</ele>
        <time>2021-05-17T11:52:52Z</time>
      </trkpt>
      <trkpt lat="41.6117860" lon="-8.7884770">
        <ele>12.1</ele>
        <time>2021-05-17T11:52:53Z</time>
      </trkpt>
      <trkpt lat="41.6117850" lon="-8.7884720">
        <ele>12.1</ele>
        <time>2021-05-17T11:52:54Z</time>
      </trkpt>
      <trkpt lat="41.6117840" lon="-8.7884720">
        <ele>12.1</ele>
        <time>2021-05-17T11:52:55Z</time>
      </trkpt>
      <trkpt lat="41.6117830" lon="-8.7884730">
        <ele>12.2</ele>
        <time>2021-05-17T11:52:56Z</time>
      </trkpt>
      <trkpt lat="41.6117880" lon="-8.7884650">
        <ele>12.2</ele>
        <time>2021-05-17T11:52:57Z</time>
      </trkpt>
      <trkpt lat="41.6117870" lon="-8.7884620">
        <ele>12.2</ele>
        <time>2021-05-17T11:52:58Z</time>
      </trkpt>
      <trkpt lat="41.6117850" lon="-8.7884610">
        <ele>12.2</ele>
        <time>2021-05-17T11:52:59Z</time>
      </trkpt>
      <trkpt lat="41.6117860" lon="-8.7884680">
        <ele>12.2</ele>
        <time>2021-05-17T11:53:00Z</time>
      </trkpt>
      <trkpt lat="41.6117860" lon="-8.7884740">
        <ele>12.3</ele>
        <time>2021-05-17T11:53:01Z</time>
      </trkpt>
      <trkpt lat="41.6117850" lon="-8.7884790">
        <ele>12.3</ele>
        <time>2021-05-17T11:53:02Z</time>
      </trkpt>
      <trkpt lat="41.6117870" lon="-8.7884810">
        <ele>12.3</ele>
        <time>2021-05-17T11:53:03Z</time>
      </trkpt>
      <trkpt lat="41.6117860" lon="-8.7884800">
        <ele>12.3</ele>
        <time>2021-05-17T11:53:04Z</time>
      </trkpt>
      <trkpt lat="41.6117850" lon="-8.7884810">
        <ele>12.3</ele>
        <time>2021-05-17T11:53:05Z</time>
      </trkpt>
      <trkpt lat="41.6117850" lon="-8.7884780">
        <ele>12.3</ele>
        <time>2021-05-17T11:53:06Z</time>
      </trkpt>
      <trkpt lat="41.6117890" lon="-8.7884740">
        <ele>12.4</ele>
        <time>2021-05-17T11:53:07Z</time>
      </trkpt>
      <trkpt lat="41.6117910" lon="-8.7884670">
        <ele>12.4</ele>
        <time>2021-05-17T11:53:08Z</time>
      </trkpt>
      <trkpt lat="41.6117910" lon="-8.7884670">
        <ele>12.4</ele>
        <time>2021-05-17T11:53:09Z</time>
      </trkpt>
      <trkpt lat="41.6117910" lon="-8.7884670">
        <ele>12.4</ele>
        <time>2021-05-17T11:53:10Z</time>
      </trkpt>
      <trkpt lat="41.6117900" lon="-8.7884750">
        <ele>12.4</ele>
        <time>2021-05-17T11:53:11Z</time>
      </trkpt>
      <trkpt lat="41.6117920" lon="-8.7884790">
        <ele>12.4</ele>
        <time>2021-05-17T11:53:12Z</time>
      </trkpt>
      <trkpt lat="41.6117940" lon="-8.7884860">
        <ele>12.5</ele>
        <time>2021-05-17T11:53:13Z</time>
      </trkpt>
      <trkpt lat="41.6117970" lon="-8.7884930">
        <ele>12.5</ele>
        <time>2021-05-17T11:53:14Z</time>
      </trkpt>
      <trkpt lat="41.6117980" lon="-8.7884950">
        <ele>12.5</ele>
        <time>2021-05-17T11:53:15Z</time>
      </trkpt>
      <trkpt lat="41.6118010" lon="-8.7884940">
        <ele>12.5</ele>
        <time>2021-05-17T11:53:16Z</time>
      </trkpt>
      <trkpt lat="41.6118040" lon="-8.7884940">
        <ele>12.6</ele>
        <time>2021-05-17T11:53:17Z</time>
      </trkpt>
      <trkpt lat="41.6118070" lon="-8.7884930">
        <ele>12.6</ele>
        <time>2021-05-17T11:53:18Z</time>
      </trkpt>
      <trkpt lat="41.6118120" lon="-8.7884910">
        <ele>12.6</ele>
        <time>2021-05-17T11:53:19Z</time>
      </trkpt>
      <trkpt lat="41.6118150" lon="-8.7884920">
        <ele>12.6</ele>
        <time>2021-05-17T11:53:20Z</time>
      </trkpt>
      <trkpt lat="41.6118160" lon="-8.7884950">
        <ele>12.6</ele>
        <time>2021-05-17T11:53:21Z</time>
      </trkpt>
      <trkpt lat="41.6118180" lon="-8.7885050">
        <ele>12.7</ele>
        <time>2021-05-17T11:53:22Z</time>
      </trkpt>
      <trkpt lat="41.6118180" lon="-8.7885080">
        <ele>12.7</ele>
        <time>2021-05-17T11:53:23Z</time>
      </trkpt>
      <trkpt lat="41.6118190" lon="-8.7885070">
        <ele>12.7</ele>
        <time>2021-05-17T11:53:24Z</time>
      </trkpt>
      <trkpt lat="41.6118180" lon="-8.7885130">
        <ele>12.7</ele>
        <time>2021-05-17T11:53:25Z</time>
      </trkpt>
      <trkpt lat="41.6118170" lon="-8.7885120">
        <ele>12.7</ele>
        <time>2021-05-17T11:53:26Z</time>
      </trkpt>
      <trkpt lat="41.6118180" lon="-8.7885090">
        <ele>12.7</ele>
        <time>2021-05-17T11:53:27Z</time>
      </trkpt>
      <trkpt lat="41.6118160" lon="-8.7885100">
        <ele>12.8</ele>
        <time>2021-05-17T11:53:28Z</time>
      </trkpt>
      <trkpt lat="41.6118140" lon="-8.7885120">
        <ele>12.8</ele>
        <time>2021-05-17T11:53:29Z</time>
      </trkpt>
      <trkpt lat="41.6118120" lon="-8.7885150">
        <ele>12.8</ele>
        <time>2021-05-17T11:53:30Z</time>
      </trkpt>
      <trkpt lat="41.6118120" lon="-8.7885110">
        <ele>12.8</ele>
        <time>2021-05-17T11:53:31Z</time>
      </trkpt>
      <trkpt lat="41.6118120" lon="-8.7885150">
        <ele>12.8</ele>
        <time>2021-05-17T11:53:32Z</time>
      </trkpt>
      <trkpt lat="41.6118120" lon="-8.7885190">
        <ele>12.8</ele>
        <time>2021-05-17T11:53:33Z</time>
      </trkpt>
      <trkpt lat="41.6118100" lon="-8.7885180">
        <ele>12.8</ele>
        <time>2021-05-17T11:53:34Z</time>
      </trkpt>
      <trkpt lat="41.6118080" lon="-8.7885180">
        <ele>12.9</ele>
        <time>2021-05-17T11:53:35Z</time>
      </trkpt>
      <trkpt lat="41.6118060" lon="-8.7885190">
        <ele>12.9</ele>
        <time>2021-05-17T11:53:36Z</time>
      </trkpt>
      <trkpt lat="41.6118050" lon="-8.7885200">
        <ele>12.9</ele>
        <time>2021-05-17T11:53:37Z</time>
      </trkpt>
      <trkpt lat="41.6118080" lon="-8.7885240">
        <ele>12.9</ele>
        <time>2021-05-17T11:53:38Z</time>
      </trkpt>
      <trkpt lat="41.6118150" lon="-8.7885310">
        <ele>12.9</ele>
        <time>2021-05-17T11:53:39Z</time>
      </trkpt>
      <trkpt lat="41.6118090" lon="-8.7885260">
        <ele>13.0</ele>
        <time>2021-05-17T11:53:40Z</time>
      </trkpt>
      <trkpt lat="41.6118260" lon="-8.7885440">
        <ele>13.1</ele>
        <time>2021-05-17T11:53:41Z</time>
      </trkpt>
      <trkpt lat="41.6118250" lon="-8.7885440">
        <ele>13.1</ele>
        <time>2021-05-17T11:53:42Z</time>
      </trkpt>
      <trkpt lat="41.6118360" lon="-8.7885620">
        <ele>13.2</ele>
        <time>2021-05-17T11:53:43Z</time>
      </trkpt>
      <trkpt lat="41.6118480" lon="-8.7885720">
        <ele>13.3</ele>
        <time>2021-05-17T11:53:44Z</time>
      </trkpt>
      <trkpt lat="41.6118450" lon="-8.7885610">
        <ele>13.3</ele>
        <time>2021-05-17T11:53:45Z</time>
      </trkpt>
      <trkpt lat="41.6118440" lon="-8.7885540">
        <ele>13.4</ele>
        <time>2021-05-17T11:53:46Z</time>
      </trkpt>
      <trkpt lat="41.6118460" lon="-8.7885340">
        <ele>13.4</ele>
        <time>2021-05-17T11:53:47Z</time>
      </trkpt>
      <trkpt lat="41.6118480" lon="-8.7885300">
        <ele>13.5</ele>
        <time>2021-05-17T11:53:48Z</time>
      </trkpt>
      <trkpt lat="41.6118500" lon="-8.7885300">
        <ele>13.5</ele>
        <time>2021-05-17T11:53:49Z</time>
      </trkpt>
      <trkpt lat="41.6118490" lon="-8.7885250">
        <ele>13.5</ele>
        <time>2021-05-17T11:53:50Z</time>
      </trkpt>
      <trkpt lat="41.6118510" lon="-8.7885270">
        <ele>13.5</ele>
        <time>2021-05-17T11:53:51Z</time>
      </trkpt>
      <trkpt lat="41.6118490" lon="-8.7885250">
        <ele>13.5</ele>
        <time>2021-05-17T11:53:52Z</time>
      </trkpt>
      <trkpt lat="41.6118450" lon="-8.7885220">
        <ele>13.6</ele>
        <time>2021-05-17T11:53:53Z</time>
      </trkpt>
      <trkpt lat="41.6118430" lon="-8.7885120">
        <ele>13.6</ele>
        <time>2021-05-17T11:53:54Z</time>
      </trkpt>
      <trkpt lat="41.6118350" lon="-8.7885070">
        <ele>13.6</ele>
        <time>2021-05-17T11:53:55Z</time>
      </trkpt>
      <trkpt lat="41.6118300" lon="-8.7885010">
        <ele>13.7</ele>
        <time>2021-05-17T11:53:56Z</time>
      </trkpt>
      <trkpt lat="41.6118250" lon="-8.7884970">
        <ele>13.7</ele>
        <time>2021-05-17T11:53:57Z</time>
      </trkpt>
      <trkpt lat="41.6118190" lon="-8.7884930">
        <ele>13.8</ele>
        <time>2021-05-17T11:53:58Z</time>
      </trkpt>
      <trkpt lat="41.6118240" lon="-8.7884870">
        <ele>13.8</ele>
        <time>2021-05-17T11:53:59Z</time>
      </trkpt>
      <trkpt lat="41.6118220" lon="-8.7884840">
        <ele>13.8</ele>
        <time>2021-05-17T11:54:00Z</time>
      </trkpt>
      <trkpt lat="41.6118270" lon="-8.7884860">
        <ele>13.8</ele>
        <time>2021-05-17T11:54:01Z</time>
      </trkpt>
      <trkpt lat="41.6118260" lon="-8.7884820">
        <ele>13.9</ele>
        <time>2021-05-17T11:54:02Z</time>
      </trkpt>
      <trkpt lat="41.6118250" lon="-8.7884820">
        <ele>13.9</ele>
        <time>2021-05-17T11:54:03Z</time>
      </trkpt>
      <trkpt lat="41.6118260" lon="-8.7884760">
        <ele>13.9</ele>
        <time>2021-05-17T11:54:04Z</time>
      </trkpt>
      <trkpt lat="41.6118280" lon="-8.7884740">
        <ele>13.9</ele>
        <time>2021-05-17T11:54:05Z</time>
      </trkpt>
      <trkpt lat="41.6118230" lon="-8.7884710">
        <ele>13.9</ele>
        <time>2021-05-17T11:54:06Z</time>
      </trkpt>
      <trkpt lat="41.6118260" lon="-8.7884690">
        <ele>13.9</ele>
        <time>2021-05-17T11:54:07Z</time>
      </trkpt>
      <trkpt lat="41.6118250" lon="-8.7884640">
        <ele>14.0</ele>
        <time>2021-05-17T11:54:08Z</time>
      </trkpt>
      <trkpt lat="41.6118230" lon="-8.7884670">
        <ele>14.0</ele>
        <time>2021-05-17T11:54:09Z</time>
      </trkpt>
      <trkpt lat="41.6118230" lon="-8.7884670">
        <ele>14.0</ele>
        <time>2021-05-17T11:54:10Z</time>
      </trkpt>
      <trkpt lat="41.6118270" lon="-8.7884670">
        <ele>14.0</ele>
        <time>2021-05-17T11:54:11Z</time>
      </trkpt>
      <trkpt lat="41.6118270" lon="-8.7884680">
        <ele>14.0</ele>
        <time>2021-05-17T11:54:12Z</time>
      </trkpt>
      <trkpt lat="41.6118220" lon="-8.7884650">
        <ele>14.0</ele>
        <time>2021-05-17T11:54:13Z</time>
      </trkpt>
      <trkpt lat="41.6118140" lon="-8.7884670">
        <ele>14.1</ele>
        <time>2021-05-17T11:54:14Z</time>
      </trkpt>
      <trkpt lat="41.6118100" lon="-8.7884680">
        <ele>14.1</ele>
        <time>2021-05-17T11:54:15Z</time>
      </trkpt>
      <trkpt lat="41.6118100" lon="-8.7884700">
        <ele>14.1</ele>
        <time>2021-05-17T11:54:16Z</time>
      </trkpt>
      <trkpt lat="41.6118060" lon="-8.7884680">
        <ele>14.1</ele>
        <time>2021-05-17T11:54:17Z</time>
      </trkpt>
      <trkpt lat="41.6118080" lon="-8.7884740">
        <ele>14.2</ele>
        <time>2021-05-17T11:54:18Z</time>
      </trkpt>
      <trkpt lat="41.6118070" lon="-8.7884740">
        <ele>14.2</ele>
        <time>2021-05-17T11:54:19Z</time>
      </trkpt>
      <trkpt lat="41.6118050" lon="-8.7884750">
        <ele>14.2</ele>
        <time>2021-05-17T11:54:20Z</time>
      </trkpt>
      <trkpt lat="41.6118140" lon="-8.7885020">
        <ele>14.3</ele>
        <time>2021-05-17T11:54:21Z</time>
      </trkpt>
      <trkpt lat="41.6118030" lon="-8.7884840">
        <ele>14.4</ele>
        <time>2021-05-17T11:54:22Z</time>
      </trkpt>
      <trkpt lat="41.6118000" lon="-8.7884620">
        <ele>14.5</ele>
        <time>2021-05-17T11:54:23Z</time>
      </trkpt>
      <trkpt lat="41.6118000" lon="-8.7884570">
        <ele>14.5</ele>
        <time>2021-05-17T11:54:24Z</time>
      </trkpt>
      <trkpt lat="41.6118000" lon="-8.7884550">
        <ele>14.5</ele>
        <time>2021-05-17T11:54:25Z</time>
      </trkpt>
      <trkpt lat="41.6118000" lon="-8.7884500">
        <ele>14.5</ele>
        <time>2021-05-17T11:54:26Z</time>
      </trkpt>
      <trkpt lat="41.6117980" lon="-8.7884370">
        <ele>14.6</ele>
        <time>2021-05-17T11:54:27Z</time>
      </trkpt>
      <trkpt lat="41.6117910" lon="-8.7884360">
        <ele>14.6</ele>
        <time>2021-05-17T11:54:28Z</time>
      </trkpt>
      <trkpt lat="41.6117860" lon="-8.7884290">
        <ele>14.7</ele>
        <time>2021-05-17T11:54:29Z</time>
      </trkpt>
      <trkpt lat="41.6117780" lon="-8.7884240">
        <ele>14.7</ele>
        <time>2021-05-17T11:54:30Z</time>
      </trkpt>
      <trkpt lat="41.6117710" lon="-8.7884330">
        <ele>14.8</ele>
        <time>2021-05-17T11:54:31Z</time>
      </trkpt>
      <trkpt lat="41.6117600" lon="-8.7884520">
        <ele>14.9</ele>
        <time>2021-05-17T11:54:32Z</time>
      </trkpt>
      <trkpt lat="41.6117550" lon="-8.7884370">
        <ele>14.9</ele>
        <time>2021-05-17T11:54:33Z</time>
      </trkpt>
      <trkpt lat="41.6117590" lon="-8.7884280">
        <ele>15.0</ele>
        <time>2021-05-17T11:54:34Z</time>
      </trkpt>
      <trkpt lat="41.6117700" lon="-8.7884220">
        <ele>15.1</ele>
        <time>2021-05-17T11:54:35Z</time>
      </trkpt>
      <trkpt lat="41.6117760" lon="-8.7884190">
        <ele>15.1</ele>
        <time>2021-05-17T11:54:36Z</time>
      </trkpt>
      <trkpt lat="41.6117700" lon="-8.7884340">
        <ele>15.2</ele>
        <time>2021-05-17T11:54:37Z</time>
      </trkpt>
      <trkpt lat="41.6117700" lon="-8.7884390">
        <ele>15.2</ele>
        <time>2021-05-17T11:54:38Z</time>
      </trkpt>
      <trkpt lat="41.6117690" lon="-8.7884450">
        <ele>15.2</ele>
        <time>2021-05-17T11:54:39Z</time>
      </trkpt>
      <trkpt lat="41.6117680" lon="-8.7884510">
        <ele>15.2</ele>
        <time>2021-05-17T11:54:40Z</time>
      </trkpt>
      <trkpt lat="41.6117670" lon="-8.7884560">
        <ele>15.3</ele>
        <time>2021-05-17T11:54:41Z</time>
      </trkpt>
      <trkpt lat="41.6117670" lon="-8.7884620">
        <ele>15.3</ele>
        <time>2021-05-17T11:54:42Z</time>
      </trkpt>
      <trkpt lat="41.6117660" lon="-8.7884670">
        <ele>15.3</ele>
        <time>2021-05-17T11:54:43Z</time>
      </trkpt>
      <trkpt lat="41.6117650" lon="-8.7884730">
        <ele>15.3</ele>
        <time>2021-05-17T11:54:44Z</time>
      </trkpt>
      <trkpt lat="41.6117680" lon="-8.7884740">
        <ele>15.3</ele>
        <time>2021-05-17T11:54:45Z</time>
      </trkpt>
      <trkpt lat="41.6117690" lon="-8.7884590">
        <ele>15.4</ele>
        <time>2021-05-17T11:54:46Z</time>
      </trkpt>
      <trkpt lat="41.6117700" lon="-8.7884530">
        <ele>15.5</ele>
        <time>2021-05-17T11:54:47Z</time>
      </trkpt>
      <trkpt lat="41.6117700" lon="-8.7884490">
        <ele>15.6</ele>
        <time>2021-05-17T11:54:48Z</time>
      </trkpt>
      <trkpt lat="41.6117710" lon="-8.7884490">
        <ele>15.6</ele>
        <time>2021-05-17T11:54:49Z</time>
      </trkpt>
      <trkpt lat="41.6117680" lon="-8.7884460">
        <ele>15.7</ele>
        <time>2021-05-17T11:54:50Z</time>
      </trkpt>
      <trkpt lat="41.6117640" lon="-8.7884510">
        <ele>15.7</ele>
        <time>2021-05-17T11:54:51Z</time>
      </trkpt>
      <trkpt lat="41.6117640" lon="-8.7884490">
        <ele>15.7</ele>
        <time>2021-05-17T11:54:52Z</time>
      </trkpt>
      <trkpt lat="41.6117640" lon="-8.7884520">
        <ele>15.7</ele>
        <time>2021-05-17T11:54:53Z</time>
      </trkpt>
      <trkpt lat="41.6117640" lon="-8.7884500">
        <ele>15.8</ele>
        <time>2021-05-17T11:54:54Z</time>
      </trkpt>
      <trkpt lat="41.6117580" lon="-8.7884370">
        <ele>15.9</ele>
        <time>2021-05-17T11:54:55Z</time>
      </trkpt>
      <trkpt lat="41.6117650" lon="-8.7884300">
        <ele>15.9</ele>
        <time>2021-05-17T11:54:56Z</time>
      </trkpt>
      <trkpt lat="41.6117740" lon="-8.7884270">
        <ele>16.0</ele>
        <time>2021-05-17T11:54:57Z</time>
      </trkpt>
      <trkpt lat="41.6117850" lon="-8.7884230">
        <ele>16.1</ele>
        <time>2021-05-17T11:54:58Z</time>
      </trkpt>
      <trkpt lat="41.6117870" lon="-8.7884240">
        <ele>16.1</ele>
        <time>2021-05-17T11:54:59Z</time>
      </trkpt>
      <trkpt lat="41.6117910" lon="-8.7884290">
        <ele>16.2</ele>
        <time>2021-05-17T11:55:00Z</time>
      </trkpt>
      <trkpt lat="41.6117880" lon="-8.7884350">
        <ele>16.2</ele>
        <time>2021-05-17T11:55:01Z</time>
      </trkpt>
      <trkpt lat="41.6117870" lon="-8.7884410">
        <ele>16.3</ele>
        <time>2021-05-17T11:55:02Z</time>
      </trkpt>
      <trkpt lat="41.6117830" lon="-8.7884470">
        <ele>16.3</ele>
        <time>2021-05-17T11:55:03Z</time>
      </trkpt>
      <trkpt lat="41.6117840" lon="-8.7884510">
        <ele>16.3</ele>
        <time>2021-05-17T11:55:04Z</time>
      </trkpt>
      <trkpt lat="41.6117830" lon="-8.7884500">
        <ele>16.3</ele>
        <time>2021-05-17T11:55:05Z</time>
      </trkpt>
      <trkpt lat="41.6117810" lon="-8.7884630">
        <ele>16.4</ele>
        <time>2021-05-17T11:55:06Z</time>
      </trkpt>
      <trkpt lat="41.6117810" lon="-8.7884730">
        <ele>16.4</ele>
        <time>2021-05-17T11:55:07Z</time>
      </trkpt>
      <trkpt lat="41.6117820" lon="-8.7884660">
        <ele>16.4</ele>
        <time>2021-05-17T11:55:08Z</time>
      </trkpt>
      <trkpt lat="41.6117830" lon="-8.7884630">
        <ele>16.5</ele>
        <time>2021-05-17T11:55:09Z</time>
      </trkpt>
      <trkpt lat="41.6117820" lon="-8.7884590">
        <ele>16.6</ele>
        <time>2021-05-17T11:55:10Z</time>
      </trkpt>
      <trkpt lat="41.6117790" lon="-8.7884540">
        <ele>16.6</ele>
        <time>2021-05-17T11:55:11Z</time>
      </trkpt>
      <trkpt lat="41.6117860" lon="-8.7884510">
        <ele>16.6</ele>
        <time>2021-05-17T11:55:12Z</time>
      </trkpt>
      <trkpt lat="41.6117900" lon="-8.7884470">
        <ele>16.6</ele>
        <time>2021-05-17T11:55:13Z</time>
      </trkpt>
      <trkpt lat="41.6117970" lon="-8.7884370">
        <ele>16.6</ele>
        <time>2021-05-17T11:55:14Z</time>
      </trkpt>
      <trkpt lat="41.6118010" lon="-8.7884360">
        <ele>16.7</ele>
        <time>2021-05-17T11:55:15Z</time>
      </trkpt>
      <trkpt lat="41.6118030" lon="-8.7884350">
        <ele>16.7</ele>
        <time>2021-05-17T11:55:16Z</time>
      </trkpt>
      <trkpt lat="41.6118010" lon="-8.7884330">
        <ele>16.7</ele>
        <time>2021-05-17T11:55:17Z</time>
      </trkpt>
      <trkpt lat="41.6117960" lon="-8.7884290">
        <ele>16.8</ele>
        <time>2021-05-17T11:55:18Z</time>
      </trkpt>
      <trkpt lat="41.6117950" lon="-8.7884290">
        <ele>16.8</ele>
        <time>2021-05-17T11:55:19Z</time>
      </trkpt>
      <trkpt lat="41.6117970" lon="-8.7884250">
        <ele>16.8</ele>
        <time>2021-05-17T11:55:20Z</time>
      </trkpt>
      <trkpt lat="41.6117980" lon="-8.7884340">
        <ele>16.8</ele>
        <time>2021-05-17T11:55:21Z</time>
      </trkpt>
      <trkpt lat="41.6117940" lon="-8.7884370">
        <ele>16.8</ele>
        <time>2021-05-17T11:55:22Z</time>
      </trkpt>
      <trkpt lat="41.6117880" lon="-8.7884360">
        <ele>16.8</ele>
        <time>2021-05-17T11:55:23Z</time>
      </trkpt>
      <trkpt lat="41.6117820" lon="-8.7884350">
        <ele>16.9</ele>
        <time>2021-05-17T11:55:24Z</time>
      </trkpt>
      <trkpt lat="41.6117810" lon="-8.7884430">
        <ele>16.9</ele>
        <time>2021-05-17T11:55:25Z</time>
      </trkpt>
      <trkpt lat="41.6117790" lon="-8.7884500">
        <ele>16.9</ele>
        <time>2021-05-17T11:55:26Z</time>
      </trkpt>
      <trkpt lat="41.6117800" lon="-8.7884500">
        <ele>16.9</ele>
        <time>2021-05-17T11:55:27Z</time>
      </trkpt>
      <trkpt lat="41.6117810" lon="-8.7884520">
        <ele>16.9</ele>
        <time>2021-05-17T11:55:28Z</time>
      </trkpt>
      <trkpt lat="41.6117820" lon="-8.7884560">
        <ele>17.0</ele>
        <time>2021-05-17T11:55:29Z</time>
      </trkpt>
      <trkpt lat="41.6117800" lon="-8.7884630">
        <ele>17.0</ele>
        <time>2021-05-17T11:55:30Z</time>
      </trkpt>
      <trkpt lat="41.6117800" lon="-8.7884660">
        <ele>16.9</ele>
        <time>2021-05-17T11:55:31Z</time>
      </trkpt>
      <trkpt lat="41.6117790" lon="-8.7884590">
        <ele>16.9</ele>
        <time>2021-05-17T11:55:32Z</time>
      </trkpt>
      <trkpt lat="41.6117820" lon="-8.7884610">
        <ele>17.0</ele>
        <time>2021-05-17T11:55:33Z</time>
      </trkpt>
      <trkpt lat="41.6117830" lon="-8.7884540">
        <ele>17.0</ele>
        <time>2021-05-17T11:55:34Z</time>
      </trkpt>
      <trkpt lat="41.6117830" lon="-8.7884510">
        <ele>17.0</ele>
        <time>2021-05-17T11:55:35Z</time>
      </trkpt>
      <trkpt lat="41.6117840" lon="-8.7884500">
        <ele>17.0</ele>
        <time>2021-05-17T11:55:36Z</time>
      </trkpt>
      <trkpt lat="41.6117900" lon="-8.7884670">
        <ele>17.0</ele>
        <time>2021-05-17T11:55:37Z</time>
      </trkpt>
      <trkpt lat="41.6117990" lon="-8.7884700">
        <ele>17.0</ele>
        <time>2021-05-17T11:55:38Z</time>
      </trkpt>
      <trkpt lat="41.6118030" lon="-8.7884710">
        <ele>17.0</ele>
        <time>2021-05-17T11:55:39Z</time>
      </trkpt>
      <trkpt lat="41.6118010" lon="-8.7884620">
        <ele>17.0</ele>
        <time>2021-05-17T11:55:40Z</time>
      </trkpt>
      <trkpt lat="41.6117960" lon="-8.7884640">
        <ele>17.0</ele>
        <time>2021-05-17T11:55:41Z</time>
      </trkpt>
      <trkpt lat="41.6117870" lon="-8.7884700">
        <ele>17.0</ele>
        <time>2021-05-17T11:55:42Z</time>
      </trkpt>
      <trkpt lat="41.6117820" lon="-8.7884650">
        <ele>16.9</ele>
        <time>2021-05-17T11:55:43Z</time>
      </trkpt>
      <trkpt lat="41.6117790" lon="-8.7884670">
        <ele>16.9</ele>
        <time>2021-05-17T11:55:44Z</time>
      </trkpt>
      <trkpt lat="41.6117770" lon="-8.7884660">
        <ele>16.9</ele>
        <time>2021-05-17T11:55:45Z</time>
      </trkpt>
      <trkpt lat="41.6117750" lon="-8.7884630">
        <ele>17.0</ele>
        <time>2021-05-17T11:55:46Z</time>
      </trkpt>
      <trkpt lat="41.6117750" lon="-8.7884590">
        <ele>16.9</ele>
        <time>2021-05-17T11:55:47Z</time>
      </trkpt>
      <trkpt lat="41.6117730" lon="-8.7884540">
        <ele>16.9</ele>
        <time>2021-05-17T11:55:48Z</time>
      </trkpt>
      <trkpt lat="41.6117720" lon="-8.7884540">
        <ele>16.9</ele>
        <time>2021-05-17T11:55:49Z</time>
      </trkpt>
      <trkpt lat="41.6117720" lon="-8.7884540">
        <ele>16.9</ele>
        <time>2021-05-17T11:55:50Z</time>
      </trkpt>
      <trkpt lat="41.6117720" lon="-8.7884490">
        <ele>16.9</ele>
        <time>2021-05-17T11:55:51Z</time>
      </trkpt>
      <trkpt lat="41.6117750" lon="-8.7884480">
        <ele>16.9</ele>
        <time>2021-05-17T11:55:52Z</time>
      </trkpt>
      <trkpt lat="41.6117800" lon="-8.7884480">
        <ele>16.9</ele>
        <time>2021-05-17T11:55:53Z</time>
      </trkpt>
      <trkpt lat="41.6117820" lon="-8.7884510">
        <ele>16.9</ele>
        <time>2021-05-17T11:55:54Z</time>
      </trkpt>
      <trkpt lat="41.6117800" lon="-8.7884540">
        <ele>16.9</ele>
        <time>2021-05-17T11:55:55Z</time>
      </trkpt>
      <trkpt lat="41.6117740" lon="-8.7884610">
        <ele>16.8</ele>
        <time>2021-05-17T11:55:56Z</time>
      </trkpt>
      <trkpt lat="41.6117750" lon="-8.7884600">
        <ele>16.9</ele>
        <time>2021-05-17T11:55:57Z</time>
      </trkpt>
      <trkpt lat="41.6117730" lon="-8.7884630">
        <ele>16.8</ele>
        <time>2021-05-17T11:55:58Z</time>
      </trkpt>
      <trkpt lat="41.6117710" lon="-8.7884610">
        <ele>16.8</ele>
        <time>2021-05-17T11:55:59Z</time>
      </trkpt>
      <trkpt lat="41.6117760" lon="-8.7884510">
        <ele>16.8</ele>
        <time>2021-05-17T11:56:00Z</time>
      </trkpt>
      <trkpt lat="41.6117830" lon="-8.7884650">
        <ele>16.7</ele>
        <time>2021-05-17T11:56:01Z</time>
      </trkpt>
      <trkpt lat="41.6117790" lon="-8.7884590">
        <ele>16.7</ele>
        <time>2021-05-17T11:56:02Z</time>
      </trkpt>
      <trkpt lat="41.6117790" lon="-8.7884580">
        <ele>16.7</ele>
        <time>2021-05-17T11:56:03Z</time>
      </trkpt>
      <trkpt lat="41.6117870" lon="-8.7884820">
        <ele>16.6</ele>
        <time>2021-05-17T11:56:04Z</time>
      </trkpt>
      <trkpt lat="41.6117850" lon="-8.7884700">
        <ele>16.6</ele>
        <time>2021-05-17T11:56:05Z</time>
      </trkpt>
      <trkpt lat="41.6117940" lon="-8.7884680">
        <ele>16.5</ele>
        <time>2021-05-17T11:56:06Z</time>
      </trkpt>
      <trkpt lat="41.6117940" lon="-8.7884680">
        <ele>16.5</ele>
        <time>2021-05-17T11:56:07Z</time>
      </trkpt>
      <trkpt lat="41.6117940" lon="-8.7884680">
        <ele>16.4</ele>
        <time>2021-05-17T11:56:08Z</time>
      </trkpt>
      <trkpt lat="41.6118020" lon="-8.7884740">
        <ele>16.4</ele>
        <time>2021-05-17T11:56:09Z</time>
      </trkpt>
      <trkpt lat="41.6118090" lon="-8.7884910">
        <ele>16.4</ele>
        <time>2021-05-17T11:56:10Z</time>
      </trkpt>
      <trkpt lat="41.6118100" lon="-8.7884870">
        <ele>16.3</ele>
        <time>2021-05-17T11:56:11Z</time>
      </trkpt>
      <trkpt lat="41.6118030" lon="-8.7884790">
        <ele>16.2</ele>
        <time>2021-05-17T11:56:12Z</time>
      </trkpt>
      <trkpt lat="41.6118070" lon="-8.7884810">
        <ele>16.2</ele>
        <time>2021-05-17T11:56:13Z</time>
      </trkpt>
      <trkpt lat="41.6118110" lon="-8.7884830">
        <ele>16.2</ele>
        <time>2021-05-17T11:56:14Z</time>
      </trkpt>
      <trkpt lat="41.6118130" lon="-8.7884840">
        <ele>16.2</ele>
        <time>2021-05-17T11:56:15Z</time>
      </trkpt>
      <trkpt lat="41.6118060" lon="-8.7884800">
        <ele>16.1</ele>
        <time>2021-05-17T11:56:16Z</time>
      </trkpt>
      <trkpt lat="41.6118030" lon="-8.7884800">
        <ele>16.1</ele>
        <time>2021-05-17T11:56:17Z</time>
      </trkpt>
      <trkpt lat="41.6118020" lon="-8.7884790">
        <ele>16.0</ele>
        <time>2021-05-17T11:56:18Z</time>
      </trkpt>
      <trkpt lat="41.6118000" lon="-8.7884840">
        <ele>16.0</ele>
        <time>2021-05-17T11:56:19Z</time>
      </trkpt>
      <trkpt lat="41.6118000" lon="-8.7884840">
        <ele>16.0</ele>
        <time>2021-05-17T11:56:20Z</time>
      </trkpt>
      <trkpt lat="41.6117930" lon="-8.7884840">
        <ele>15.9</ele>
        <time>2021-05-17T11:56:21Z</time>
      </trkpt>
      <trkpt lat="41.6117920" lon="-8.7884770">
        <ele>15.9</ele>
        <time>2021-05-17T11:56:22Z</time>
      </trkpt>
      <trkpt lat="41.6117900" lon="-8.7884810">
        <ele>15.8</ele>
        <time>2021-05-17T11:56:23Z</time>
      </trkpt>
      <trkpt lat="41.6117920" lon="-8.7884860">
        <ele>15.7</ele>
        <time>2021-05-17T11:56:24Z</time>
      </trkpt>
      <trkpt lat="41.6117850" lon="-8.7884780">
        <ele>15.7</ele>
        <time>2021-05-17T11:56:25Z</time>
      </trkpt>
      <trkpt lat="41.6117850" lon="-8.7884780">
        <ele>15.7</ele>
        <time>2021-05-17T11:56:26Z</time>
      </trkpt>
      <trkpt lat="41.6117850" lon="-8.7884780">
        <ele>15.7</ele>
        <time>2021-05-17T11:56:27Z</time>
      </trkpt>
      <trkpt lat="41.6117850" lon="-8.7884780">
        <ele>15.7</ele>
        <time>2021-05-17T11:56:28Z</time>
      </trkpt>
      <trkpt lat="41.6117850" lon="-8.7884780">
        <ele>15.7</ele>
        <time>2021-05-17T11:56:29Z</time>
      </trkpt>
      <trkpt lat="41.6117780" lon="-8.7884680">
        <ele>15.6</ele>
        <time>2021-05-17T11:56:30Z</time>
      </trkpt>
      <trkpt lat="41.6117790" lon="-8.7884700">
        <ele>15.6</ele>
        <time>2021-05-17T11:56:31Z</time>
      </trkpt>
      <trkpt lat="41.6117770" lon="-8.7884740">
        <ele>15.6</ele>
        <time>2021-05-17T11:56:32Z</time>
      </trkpt>
      <trkpt lat="41.6117810" lon="-8.7884780">
        <ele>15.6</ele>
        <time>2021-05-17T11:56:33Z</time>
      </trkpt>
      <trkpt lat="41.6117810" lon="-8.7884800">
        <ele>15.6</ele>
        <time>2021-05-17T11:56:34Z</time>
      </trkpt>
      <trkpt lat="41.6117800" lon="-8.7884890">
        <ele>15.5</ele>
        <time>2021-05-17T11:56:35Z</time>
      </trkpt>
      <trkpt lat="41.6117880" lon="-8.7884910">
        <ele>15.5</ele>
        <time>2021-05-17T11:56:36Z</time>
      </trkpt>
      <trkpt lat="41.6117880" lon="-8.7884790">
        <ele>15.4</ele>
        <time>2021-05-17T11:56:37Z</time>
      </trkpt>
      <trkpt lat="41.6117830" lon="-8.7884710">
        <ele>15.4</ele>
        <time>2021-05-17T11:56:38Z</time>
      </trkpt>
      <trkpt lat="41.6117820" lon="-8.7884740">
        <ele>15.4</ele>
        <time>2021-05-17T11:56:39Z</time>
      </trkpt>
      <trkpt lat="41.6117880" lon="-8.7884740">
        <ele>15.3</ele>
        <time>2021-05-17T11:56:40Z</time>
      </trkpt>
      <trkpt lat="41.6117830" lon="-8.7884650">
        <ele>15.3</ele>
        <time>2021-05-17T11:56:41Z</time>
      </trkpt>
      <trkpt lat="41.6117770" lon="-8.7884380">
        <ele>15.1</ele>
        <time>2021-05-17T11:56:42Z</time>
      </trkpt>
      <trkpt lat="41.6117740" lon="-8.7884380">
        <ele>15.1</ele>
        <time>2021-05-17T11:56:43Z</time>
      </trkpt>
      <trkpt lat="41.6117730" lon="-8.7884420">
        <ele>15.1</ele>
        <time>2021-05-17T11:56:44Z</time>
      </trkpt>
      <trkpt lat="41.6117700" lon="-8.7884430">
        <ele>15.1</ele>
        <time>2021-05-17T11:56:45Z</time>
      </trkpt>
      <trkpt lat="41.6117700" lon="-8.7884350">
        <ele>15.1</ele>
        <time>2021-05-17T11:56:46Z</time>
      </trkpt>
      <trkpt lat="41.6117720" lon="-8.7884340">
        <ele>15.0</ele>
        <time>2021-05-17T11:56:47Z</time>
      </trkpt>
      <trkpt lat="41.6117760" lon="-8.7884470">
        <ele>15.0</ele>
        <time>2021-05-17T11:56:48Z</time>
      </trkpt>
      <trkpt lat="41.6117820" lon="-8.7884440">
        <ele>14.9</ele>
        <time>2021-05-17T11:56:49Z</time>
      </trkpt>
      <trkpt lat="41.6117850" lon="-8.7884420">
        <ele>14.9</ele>
        <time>2021-05-17T11:56:50Z</time>
      </trkpt>
      <trkpt lat="41.6117920" lon="-8.7884420">
        <ele>14.9</ele>
        <time>2021-05-17T11:56:51Z</time>
      </trkpt>
      <trkpt lat="41.6117910" lon="-8.7884320">
        <ele>14.8</ele>
        <time>2021-05-17T11:56:52Z</time>
      </trkpt>
      <trkpt lat="41.6117900" lon="-8.7884320">
        <ele>14.8</ele>
        <time>2021-05-17T11:56:53Z</time>
      </trkpt>
      <trkpt lat="41.6117900" lon="-8.7884320">
        <ele>14.8</ele>
        <time>2021-05-17T11:56:54Z</time>
      </trkpt>
      <trkpt lat="41.6117900" lon="-8.7884320">
        <ele>14.8</ele>
        <time>2021-05-17T11:56:55Z</time>
      </trkpt>
      <trkpt lat="41.6117990" lon="-8.7884210">
        <ele>14.8</ele>
        <time>2021-05-17T11:56:56Z</time>
      </trkpt>
      <trkpt lat="41.6117990" lon="-8.7884220">
        <ele>14.8</ele>
        <time>2021-05-17T11:56:57Z</time>
      </trkpt>
      <trkpt lat="41.6117990" lon="-8.7884120">
        <ele>14.7</ele>
        <time>2021-05-17T11:56:58Z</time>
      </trkpt>
      <trkpt lat="41.6117990" lon="-8.7884120">
        <ele>14.7</ele>
        <time>2021-05-17T11:56:59Z</time>
      </trkpt>
      <trkpt lat="41.6117930" lon="-8.7884020">
        <ele>14.7</ele>
        <time>2021-05-17T11:57:00Z</time>
      </trkpt>
      <trkpt lat="41.6117860" lon="-8.7884000">
        <ele>14.6</ele>
        <time>2021-05-17T11:57:01Z</time>
      </trkpt>
      <trkpt lat="41.6117930" lon="-8.7884070">
        <ele>14.6</ele>
        <time>2021-05-17T11:57:02Z</time>
      </trkpt>
      <trkpt lat="41.6117910" lon="-8.7884140">
        <ele>14.5</ele>
        <time>2021-05-17T11:57:03Z</time>
      </trkpt>
      <trkpt lat="41.6117930" lon="-8.7884170">
        <ele>14.5</ele>
        <time>2021-05-17T11:57:04Z</time>
      </trkpt>
      <trkpt lat="41.6117910" lon="-8.7884170">
        <ele>14.5</ele>
        <time>2021-05-17T11:57:05Z</time>
      </trkpt>
      <trkpt lat="41.6117850" lon="-8.7884190">
        <ele>14.5</ele>
        <time>2021-05-17T11:57:06Z</time>
      </trkpt>
      <trkpt lat="41.6117770" lon="-8.7884190">
        <ele>14.4</ele>
        <time>2021-05-17T11:57:07Z</time>
      </trkpt>
      <trkpt lat="41.6117790" lon="-8.7884160">
        <ele>14.4</ele>
        <time>2021-05-17T11:57:08Z</time>
      </trkpt>
      <trkpt lat="41.6117780" lon="-8.7884130">
        <ele>14.4</ele>
        <time>2021-05-17T11:57:09Z</time>
      </trkpt>
      <trkpt lat="41.6117860" lon="-8.7884140">
        <ele>14.3</ele>
        <time>2021-05-17T11:57:10Z</time>
      </trkpt>
      <trkpt lat="41.6117900" lon="-8.7884130">
        <ele>14.3</ele>
        <time>2021-05-17T11:57:11Z</time>
      </trkpt>
      <trkpt lat="41.6117960" lon="-8.7884130">
        <ele>14.3</ele>
        <time>2021-05-17T11:57:12Z</time>
      </trkpt>
      <trkpt lat="41.6117950" lon="-8.7884150">
        <ele>14.3</ele>
        <time>2021-05-17T11:57:13Z</time>
      </trkpt>
      <trkpt lat="41.6117950" lon="-8.7884150">
        <ele>14.3</ele>
        <time>2021-05-17T11:57:14Z</time>
      </trkpt>
      <trkpt lat="41.6117950" lon="-8.7884150">
        <ele>14.3</ele>
        <time>2021-05-17T11:57:15Z</time>
      </trkpt>
      <trkpt lat="41.6117980" lon="-8.7884010">
        <ele>14.2</ele>
        <time>2021-05-17T11:57:16Z</time>
      </trkpt>
      <trkpt lat="41.6117920" lon="-8.7884030">
        <ele>14.2</ele>
        <time>2021-05-17T11:57:17Z</time>
      </trkpt>
      <trkpt lat="41.6117950" lon="-8.7884070">
        <ele>14.1</ele>
        <time>2021-05-17T11:57:18Z</time>
      </trkpt>
      <trkpt lat="41.6117980" lon="-8.7884100">
        <ele>14.1</ele>
        <time>2021-05-17T11:57:19Z</time>
      </trkpt>
      <trkpt lat="41.6117940" lon="-8.7884150">
        <ele>14.1</ele>
        <time>2021-05-17T11:57:20Z</time>
      </trkpt>
      <trkpt lat="41.6117840" lon="-8.7884160">
        <ele>14.0</ele>
        <time>2021-05-17T11:57:21Z</time>
      </trkpt>
      <trkpt lat="41.6117820" lon="-8.7884180">
        <ele>14.0</ele>
        <time>2021-05-17T11:57:22Z</time>
      </trkpt>
      <trkpt lat="41.6117810" lon="-8.7884240">
        <ele>14.0</ele>
        <time>2021-05-17T11:57:23Z</time>
      </trkpt>
      <trkpt lat="41.6117810" lon="-8.7884250">
        <ele>14.0</ele>
        <time>2021-05-17T11:57:24Z</time>
      </trkpt>
      <trkpt lat="41.6117810" lon="-8.7884250">
        <ele>14.0</ele>
        <time>2021-05-17T11:57:25Z</time>
      </trkpt>
      <trkpt lat="41.6117880" lon="-8.7884280">
        <ele>13.9</ele>
        <time>2021-05-17T11:57:26Z</time>
      </trkpt>
      <trkpt lat="41.6117850" lon="-8.7884280">
        <ele>13.9</ele>
        <time>2021-05-17T11:57:27Z</time>
      </trkpt>
      <trkpt lat="41.6117790" lon="-8.7884200">
        <ele>13.9</ele>
        <time>2021-05-17T11:57:28Z</time>
      </trkpt>
      <trkpt lat="41.6117790" lon="-8.7884170">
        <ele>13.9</ele>
        <time>2021-05-17T11:57:29Z</time>
      </trkpt>
      <trkpt lat="41.6117830" lon="-8.7884230">
        <ele>13.8</ele>
        <time>2021-05-17T11:57:30Z</time>
      </trkpt>
      <trkpt lat="41.6117940" lon="-8.7884250">
        <ele>13.8</ele>
        <time>2021-05-17T11:57:31Z</time>
      </trkpt>
      <trkpt lat="41.6118030" lon="-8.7884310">
        <ele>13.7</ele>
        <time>2021-05-17T11:57:32Z</time>
      </trkpt>
      <trkpt lat="41.6118040" lon="-8.7884280">
        <ele>13.7</ele>
        <time>2021-05-17T11:57:33Z</time>
      </trkpt>
      <trkpt lat="41.6118120" lon="-8.7884290">
        <ele>13.6</ele>
        <time>2021-05-17T11:57:34Z</time>
      </trkpt>
      <trkpt lat="41.6118230" lon="-8.7884370">
        <ele>13.6</ele>
        <time>2021-05-17T11:57:35Z</time>
      </trkpt>
      <trkpt lat="41.6118510" lon="-8.7884690">
        <ele>13.3</ele>
        <time>2021-05-17T11:57:36Z</time>
      </trkpt>
      <trkpt lat="41.6118620" lon="-8.7884840">
        <ele>13.3</ele>
        <time>2021-05-17T11:57:37Z</time>
      </trkpt>
      <trkpt lat="41.6118710" lon="-8.7885000">
        <ele>13.2</ele>
        <time>2021-05-17T11:57:38Z</time>
      </trkpt>
      <trkpt lat="41.6118890" lon="-8.7885140">
        <ele>13.0</ele>
        <time>2021-05-17T11:57:39Z</time>
      </trkpt>
      <trkpt lat="41.6118940" lon="-8.7885270">
        <ele>13.0</ele>
        <time>2021-05-17T11:57:41Z</time>
      </trkpt>
      <trkpt lat="41.6118990" lon="-8.7885420">
        <ele>12.9</ele>
        <time>2021-05-17T11:57:42Z</time>
      </trkpt>
      <trkpt lat="41.6119050" lon="-8.7885570">
        <ele>12.8</ele>
        <time>2021-05-17T11:57:43Z</time>
      </trkpt>
      <trkpt lat="41.6119120" lon="-8.7885620">
        <ele>12.8</ele>
        <time>2021-05-17T11:57:44Z</time>
      </trkpt>
      <trkpt lat="41.6119130" lon="-8.7885790">
        <ele>12.7</ele>
        <time>2021-05-17T11:57:45Z</time>
      </trkpt>
      <trkpt lat="41.6119180" lon="-8.7885830">
        <ele>12.7</ele>
        <time>2021-05-17T11:57:46Z</time>
      </trkpt>
      <trkpt lat="41.6119280" lon="-8.7885830">
        <ele>12.6</ele>
        <time>2021-05-17T11:57:47Z</time>
      </trkpt>
      <trkpt lat="41.6119220" lon="-8.7885710">
        <ele>12.6</ele>
        <time>2021-05-17T11:57:48Z</time>
      </trkpt>
      <trkpt lat="41.6119210" lon="-8.7885680">
        <ele>12.5</ele>
        <time>2021-05-17T11:57:49Z</time>
      </trkpt>
      <trkpt lat="41.6119210" lon="-8.7885680">
        <ele>12.5</ele>
        <time>2021-05-17T11:57:50Z</time>
      </trkpt>
      <trkpt lat="41.6119230" lon="-8.7885660">
        <ele>12.5</ele>
        <time>2021-05-17T11:57:51Z</time>
      </trkpt>
      <trkpt lat="41.6119240" lon="-8.7885670">
        <ele>12.5</ele>
        <time>2021-05-17T11:57:52Z</time>
      </trkpt>
      <trkpt lat="41.6119270" lon="-8.7885640">
        <ele>12.5</ele>
        <time>2021-05-17T11:57:53Z</time>
      </trkpt>
      <trkpt lat="41.6119280" lon="-8.7885610">
        <ele>12.5</ele>
        <time>2021-05-17T11:57:54Z</time>
      </trkpt>
      <trkpt lat="41.6119270" lon="-8.7885600">
        <ele>12.5</ele>
        <time>2021-05-17T11:57:55Z</time>
      </trkpt>
      <trkpt lat="41.6119250" lon="-8.7885630">
        <ele>12.5</ele>
        <time>2021-05-17T11:57:56Z</time>
      </trkpt>
      <trkpt lat="41.6119210" lon="-8.7885680">
        <ele>12.4</ele>
        <time>2021-05-17T11:57:57Z</time>
      </trkpt>
      <trkpt lat="41.6119200" lon="-8.7885700">
        <ele>12.4</ele>
        <time>2021-05-17T11:57:58Z</time>
      </trkpt>
      <trkpt lat="41.6119190" lon="-8.7885720">
        <ele>12.4</ele>
        <time>2021-05-17T11:57:59Z</time>
      </trkpt>
      <trkpt lat="41.6119200" lon="-8.7885710">
        <ele>12.4</ele>
        <time>2021-05-17T11:58:00Z</time>
      </trkpt>
      <trkpt lat="41.6119200" lon="-8.7885630">
        <ele>12.4</ele>
        <time>2021-05-17T11:58:01Z</time>
      </trkpt>
      <trkpt lat="41.6119230" lon="-8.7885560">
        <ele>12.3</ele>
        <time>2021-05-17T11:58:02Z</time>
      </trkpt>
      <trkpt lat="41.6119230" lon="-8.7885560">
        <ele>12.3</ele>
        <time>2021-05-17T11:58:03Z</time>
      </trkpt>
      <trkpt lat="41.6119230" lon="-8.7885630">
        <ele>12.3</ele>
        <time>2021-05-17T11:58:04Z</time>
      </trkpt>
      <trkpt lat="41.6119210" lon="-8.7885640">
        <ele>12.3</ele>
        <time>2021-05-17T11:58:05Z</time>
      </trkpt>
      <trkpt lat="41.6119180" lon="-8.7885640">
        <ele>12.3</ele>
        <time>2021-05-17T11:58:06Z</time>
      </trkpt>
      <trkpt lat="41.6119150" lon="-8.7885670">
        <ele>12.2</ele>
        <time>2021-05-17T11:58:07Z</time>
      </trkpt>
      <trkpt lat="41.6119130" lon="-8.7885710">
        <ele>12.2</ele>
        <time>2021-05-17T11:58:08Z</time>
      </trkpt>
      <trkpt lat="41.6119110" lon="-8.7885700">
        <ele>12.2</ele>
        <time>2021-05-17T11:58:09Z</time>
      </trkpt>
      <trkpt lat="41.6119100" lon="-8.7885730">
        <ele>12.2</ele>
        <time>2021-05-17T11:58:10Z</time>
      </trkpt>
      <trkpt lat="41.6119110" lon="-8.7885740">
        <ele>12.2</ele>
        <time>2021-05-17T11:58:11Z</time>
      </trkpt>
      <trkpt lat="41.6119130" lon="-8.7885790">
        <ele>12.2</ele>
        <time>2021-05-17T11:58:12Z</time>
      </trkpt>
      <trkpt lat="41.6119160" lon="-8.7885860">
        <ele>12.1</ele>
        <time>2021-05-17T11:58:13Z</time>
      </trkpt>
      <trkpt lat="41.6119170" lon="-8.7885910">
        <ele>12.1</ele>
        <time>2021-05-17T11:58:14Z</time>
      </trkpt>
      <trkpt lat="41.6119140" lon="-8.7885920">
        <ele>12.1</ele>
        <time>2021-05-17T11:58:15Z</time>
      </trkpt>
      <trkpt lat="41.6119080" lon="-8.7885830">
        <ele>12.0</ele>
        <time>2021-05-17T11:58:16Z</time>
      </trkpt>
      <trkpt lat="41.6119100" lon="-8.7885820">
        <ele>12.0</ele>
        <time>2021-05-17T11:58:17Z</time>
      </trkpt>
      <trkpt lat="41.6119140" lon="-8.7885820">
        <ele>12.0</ele>
        <time>2021-05-17T11:58:18Z</time>
      </trkpt>
      <trkpt lat="41.6119150" lon="-8.7885710">
        <ele>11.9</ele>
        <time>2021-05-17T11:58:19Z</time>
      </trkpt>
      <trkpt lat="41.6119090" lon="-8.7885650">
        <ele>11.9</ele>
        <time>2021-05-17T11:58:20Z</time>
      </trkpt>
      <trkpt lat="41.6119020" lon="-8.7885680">
        <ele>11.9</ele>
        <time>2021-05-17T11:58:21Z</time>
      </trkpt>
      <trkpt lat="41.6119050" lon="-8.7885760">
        <ele>11.8</ele>
        <time>2021-05-17T11:58:22Z</time>
      </trkpt>
      <trkpt lat="41.6119120" lon="-8.7885770">
        <ele>11.8</ele>
        <time>2021-05-17T11:58:23Z</time>
      </trkpt>
      <trkpt lat="41.6119110" lon="-8.7885730">
        <ele>11.8</ele>
        <time>2021-05-17T11:58:24Z</time>
      </trkpt>
      <trkpt lat="41.6119080" lon="-8.7885700">
        <ele>11.7</ele>
        <time>2021-05-17T11:58:25Z</time>
      </trkpt>
      <trkpt lat="41.6119040" lon="-8.7885610">
        <ele>11.7</ele>
        <time>2021-05-17T11:58:26Z</time>
      </trkpt>
      <trkpt lat="41.6118970" lon="-8.7885580">
        <ele>11.6</ele>
        <time>2021-05-17T11:58:27Z</time>
      </trkpt>
      <trkpt lat="41.6118980" lon="-8.7885620">
        <ele>11.6</ele>
        <time>2021-05-17T11:58:28Z</time>
      </trkpt>
      <trkpt lat="41.6118990" lon="-8.7885570">
        <ele>11.6</ele>
        <time>2021-05-17T11:58:29Z</time>
      </trkpt>
      <trkpt lat="41.6118990" lon="-8.7885500">
        <ele>11.6</ele>
        <time>2021-05-17T11:58:30Z</time>
      </trkpt>
      <trkpt lat="41.6118970" lon="-8.7885370">
        <ele>11.5</ele>
        <time>2021-05-17T11:58:31Z</time>
      </trkpt>
      <trkpt lat="41.6118930" lon="-8.7885260">
        <ele>11.5</ele>
        <time>2021-05-17T11:58:32Z</time>
      </trkpt>
      <trkpt lat="41.6118920" lon="-8.7885340">
        <ele>11.4</ele>
        <time>2021-05-17T11:58:33Z</time>
      </trkpt>
      <trkpt lat="41.6118900" lon="-8.7885320">
        <ele>11.4</ele>
        <time>2021-05-17T11:58:34Z</time>
      </trkpt>
      <trkpt lat="41.6118900" lon="-8.7885330">
        <ele>11.4</ele>
        <time>2021-05-17T11:58:35Z</time>
      </trkpt>
      <trkpt lat="41.6118870" lon="-8.7885350">
        <ele>11.4</ele>
        <time>2021-05-17T11:58:36Z</time>
      </trkpt>
      <trkpt lat="41.6118880" lon="-8.7885470">
        <ele>11.3</ele>
        <time>2021-05-17T11:58:37Z</time>
      </trkpt>
      <trkpt lat="41.6118840" lon="-8.7885430">
        <ele>11.3</ele>
        <time>2021-05-17T11:58:38Z</time>
      </trkpt>
      <trkpt lat="41.6118840" lon="-8.7885430">
        <ele>11.3</ele>
        <time>2021-05-17T11:58:39Z</time>
      </trkpt>
      <trkpt lat="41.6118940" lon="-8.7885600">
        <ele>11.2</ele>
        <time>2021-05-17T11:58:40Z</time>
      </trkpt>
      <trkpt lat="41.6118940" lon="-8.7885580">
        <ele>11.2</ele>
        <time>2021-05-17T11:58:41Z</time>
      </trkpt>
      <trkpt lat="41.6118980" lon="-8.7885610">
        <ele>11.2</ele>
        <time>2021-05-17T11:58:42Z</time>
      </trkpt>
      <trkpt lat="41.6119030" lon="-8.7885550">
        <ele>11.1</ele>
        <time>2021-05-17T11:58:43Z</time>
      </trkpt>
      <trkpt lat="41.6119100" lon="-8.7885450">
        <ele>11.1</ele>
        <time>2021-05-17T11:58:44Z</time>
      </trkpt>
      <trkpt lat="41.6119100" lon="-8.7885380">
        <ele>11.0</ele>
        <time>2021-05-17T11:58:45Z</time>
      </trkpt>
      <trkpt lat="41.6119100" lon="-8.7885370">
        <ele>11.0</ele>
        <time>2021-05-17T11:58:46Z</time>
      </trkpt>
      <trkpt lat="41.6119110" lon="-8.7885430">
        <ele>11.0</ele>
        <time>2021-05-17T11:58:47Z</time>
      </trkpt>
      <trkpt lat="41.6119050" lon="-8.7885360">
        <ele>11.0</ele>
        <time>2021-05-17T11:58:48Z</time>
      </trkpt>
      <trkpt lat="41.6118980" lon="-8.7885290">
        <ele>10.9</ele>
        <time>2021-05-17T11:58:49Z</time>
      </trkpt>
      <trkpt lat="41.6118930" lon="-8.7885280">
        <ele>10.9</ele>
        <time>2021-05-17T11:58:50Z</time>
      </trkpt>
      <trkpt lat="41.6118930" lon="-8.7885320">
        <ele>10.9</ele>
        <time>2021-05-17T11:58:51Z</time>
      </trkpt>
      <trkpt lat="41.6118920" lon="-8.7885360">
        <ele>10.8</ele>
        <time>2021-05-17T11:58:52Z</time>
      </trkpt>
      <trkpt lat="41.6118960" lon="-8.7885370">
        <ele>10.8</ele>
        <time>2021-05-17T11:58:53Z</time>
      </trkpt>
      <trkpt lat="41.6118980" lon="-8.7885400">
        <ele>10.8</ele>
        <time>2021-05-17T11:58:54Z</time>
      </trkpt>
      <trkpt lat="41.6118960" lon="-8.7885400">
        <ele>10.8</ele>
        <time>2021-05-17T11:58:55Z</time>
      </trkpt>
      <trkpt lat="41.6119020" lon="-8.7885420">
        <ele>10.8</ele>
        <time>2021-05-17T11:58:56Z</time>
      </trkpt>
      <trkpt lat="41.6119070" lon="-8.7885430">
        <ele>10.7</ele>
        <time>2021-05-17T11:58:57Z</time>
      </trkpt>
      <trkpt lat="41.6119080" lon="-8.7885420">
        <ele>10.7</ele>
        <time>2021-05-17T11:58:58Z</time>
      </trkpt>
      <trkpt lat="41.6119050" lon="-8.7885390">
        <ele>10.7</ele>
        <time>2021-05-17T11:58:59Z</time>
      </trkpt>
      <trkpt lat="41.6119060" lon="-8.7885380">
        <ele>10.7</ele>
        <time>2021-05-17T11:59:00Z</time>
      </trkpt>
      <trkpt lat="41.6119090" lon="-8.7885390">
        <ele>10.7</ele>
        <time>2021-05-17T11:59:01Z</time>
      </trkpt>
      <trkpt lat="41.6119080" lon="-8.7885390">
        <ele>10.7</ele>
        <time>2021-05-17T11:59:02Z</time>
      </trkpt>
      <trkpt lat="41.6119070" lon="-8.7885380">
        <ele>10.7</ele>
        <time>2021-05-17T11:59:03Z</time>
      </trkpt>
      <trkpt lat="41.6119080" lon="-8.7885340">
        <ele>10.6</ele>
        <time>2021-05-17T11:59:04Z</time>
      </trkpt>
      <trkpt lat="41.6119110" lon="-8.7885290">
        <ele>10.6</ele>
        <time>2021-05-17T11:59:05Z</time>
      </trkpt>
      <trkpt lat="41.6119070" lon="-8.7885200">
        <ele>10.6</ele>
        <time>2021-05-17T11:59:06Z</time>
      </trkpt>
      <trkpt lat="41.6119000" lon="-8.7885280">
        <ele>10.5</ele>
        <time>2021-05-17T11:59:07Z</time>
      </trkpt>
      <trkpt lat="41.6118920" lon="-8.7885220">
        <ele>10.5</ele>
        <time>2021-05-17T11:59:08Z</time>
      </trkpt>
      <trkpt lat="41.6118890" lon="-8.7885230">
        <ele>10.4</ele>
        <time>2021-05-17T11:59:09Z</time>
      </trkpt>
      <trkpt lat="41.6118830" lon="-8.7885180">
        <ele>10.4</ele>
        <time>2021-05-17T11:59:10Z</time>
      </trkpt>
      <trkpt lat="41.6118810" lon="-8.7885180">
        <ele>10.4</ele>
        <time>2021-05-17T11:59:11Z</time>
      </trkpt>
      <trkpt lat="41.6118790" lon="-8.7885240">
        <ele>10.4</ele>
        <time>2021-05-17T11:59:12Z</time>
      </trkpt>
      <trkpt lat="41.6118800" lon="-8.7885370">
        <ele>10.3</ele>
        <time>2021-05-17T11:59:13Z</time>
      </trkpt>
      <trkpt lat="41.6118840" lon="-8.7885420">
        <ele>10.3</ele>
        <time>2021-05-17T11:59:14Z</time>
      </trkpt>
      <trkpt lat="41.6118840" lon="-8.7885480">
        <ele>10.2</ele>
        <time>2021-05-17T11:59:15Z</time>
      </trkpt>
      <trkpt lat="41.6118860" lon="-8.7885530">
        <ele>10.2</ele>
        <time>2021-05-17T11:59:16Z</time>
      </trkpt>
      <trkpt lat="41.6118860" lon="-8.7885570">
        <ele>10.2</ele>
        <time>2021-05-17T11:59:17Z</time>
      </trkpt>
      <trkpt lat="41.6118870" lon="-8.7885570">
        <ele>10.2</ele>
        <time>2021-05-17T11:59:18Z</time>
      </trkpt>
      <trkpt lat="41.6118880" lon="-8.7885550">
        <ele>10.2</ele>
        <time>2021-05-17T11:59:19Z</time>
      </trkpt>
      <trkpt lat="41.6118890" lon="-8.7885570">
        <ele>10.2</ele>
        <time>2021-05-17T11:59:20Z</time>
      </trkpt>
      <trkpt lat="41.6118870" lon="-8.7885520">
        <ele>10.1</ele>
        <time>2021-05-17T11:59:21Z</time>
      </trkpt>
      <trkpt lat="41.6118860" lon="-8.7885550">
        <ele>10.1</ele>
        <time>2021-05-17T11:59:22Z</time>
      </trkpt>
      <trkpt lat="41.6118850" lon="-8.7885560">
        <ele>10.1</ele>
        <time>2021-05-17T11:59:23Z</time>
      </trkpt>
      <trkpt lat="41.6118870" lon="-8.7885590">
        <ele>10.1</ele>
        <time>2021-05-17T11:59:24Z</time>
      </trkpt>
      <trkpt lat="41.6118900" lon="-8.7885590">
        <ele>10.1</ele>
        <time>2021-05-17T11:59:25Z</time>
      </trkpt>
      <trkpt lat="41.6118940" lon="-8.7885490">
        <ele>10.0</ele>
        <time>2021-05-17T11:59:26Z</time>
      </trkpt>
      <trkpt lat="41.6118960" lon="-8.7885520">
        <ele>10.0</ele>
        <time>2021-05-17T11:59:27Z</time>
      </trkpt>
      <trkpt lat="41.6118890" lon="-8.7885520">
        <ele>10.0</ele>
        <time>2021-05-17T11:59:28Z</time>
      </trkpt>
      <trkpt lat="41.6118890" lon="-8.7885540">
        <ele>10.0</ele>
        <time>2021-05-17T11:59:29Z</time>
      </trkpt>
      <trkpt lat="41.6118940" lon="-8.7885620">
        <ele>9.9</ele>
        <time>2021-05-17T11:59:30Z</time>
      </trkpt>
      <trkpt lat="41.6118920" lon="-8.7885690">
        <ele>9.9</ele>
        <time>2021-05-17T11:59:31Z</time>
      </trkpt>
      <trkpt lat="41.6118920" lon="-8.7885760">
        <ele>9.9</ele>
        <time>2021-05-17T11:59:32Z</time>
      </trkpt>
      <trkpt lat="41.6118910" lon="-8.7885790">
        <ele>9.8</ele>
        <time>2021-05-17T11:59:33Z</time>
      </trkpt>
      <trkpt lat="41.6118980" lon="-8.7885840">
        <ele>9.8</ele>
        <time>2021-05-17T11:59:34Z</time>
      </trkpt>
      <trkpt lat="41.6119090" lon="-8.7885790">
        <ele>9.7</ele>
        <time>2021-05-17T11:59:35Z</time>
      </trkpt>
      <trkpt lat="41.6119000" lon="-8.7885820">
        <ele>9.7</ele>
        <time>2021-05-17T11:59:36Z</time>
      </trkpt>
      <trkpt lat="41.6118980" lon="-8.7885820">
        <ele>9.7</ele>
        <time>2021-05-17T11:59:37Z</time>
      </trkpt>
      <trkpt lat="41.6118990" lon="-8.7885760">
        <ele>9.6</ele>
        <time>2021-05-17T11:59:38Z</time>
      </trkpt>
      <trkpt lat="41.6118970" lon="-8.7885660">
        <ele>9.6</ele>
        <time>2021-05-17T11:59:39Z</time>
      </trkpt>
      <trkpt lat="41.6118990" lon="-8.7885640">
        <ele>9.6</ele>
        <time>2021-05-17T11:59:40Z</time>
      </trkpt>
      <trkpt lat="41.6119010" lon="-8.7885540">
        <ele>9.5</ele>
        <time>2021-05-17T11:59:41Z</time>
      </trkpt>
      <trkpt lat="41.6119140" lon="-8.7885430">
        <ele>9.4</ele>
        <time>2021-05-17T11:59:42Z</time>
      </trkpt>
      <trkpt lat="41.6119210" lon="-8.7885410">
        <ele>9.4</ele>
        <time>2021-05-17T11:59:43Z</time>
      </trkpt>
      <trkpt lat="41.6119220" lon="-8.7885400">
        <ele>9.4</ele>
        <time>2021-05-17T11:59:44Z</time>
      </trkpt>
      <trkpt lat="41.6119220" lon="-8.7885400">
        <ele>9.4</ele>
        <time>2021-05-17T11:59:45Z</time>
      </trkpt>
      <trkpt lat="41.6119240" lon="-8.7885440">
        <ele>9.4</ele>
        <time>2021-05-17T11:59:46Z</time>
      </trkpt>
      <trkpt lat="41.6119250" lon="-8.7885430">
        <ele>9.4</ele>
        <time>2021-05-17T11:59:47Z</time>
      </trkpt>
      <trkpt lat="41.6119300" lon="-8.7885380">
        <ele>9.3</ele>
        <time>2021-05-17T11:59:48Z</time>
      </trkpt>
      <trkpt lat="41.6119370" lon="-8.7885340">
        <ele>9.3</ele>
        <time>2021-05-17T11:59:50Z</time>
      </trkpt>
      <trkpt lat="41.6119400" lon="-8.7885430">
        <ele>9.2</ele>
        <time>2021-05-17T11:59:51Z</time>
      </trkpt>
      <trkpt lat="41.6119490" lon="-8.7885450">
        <ele>9.2</ele>
        <time>2021-05-17T11:59:52Z</time>
      </trkpt>
      <trkpt lat="41.6119550" lon="-8.7885550">
        <ele>9.1</ele>
        <time>2021-05-17T11:59:53Z</time>
      </trkpt>
      <trkpt lat="41.6119570" lon="-8.7885890">
        <ele>9.0</ele>
        <time>2021-05-17T11:59:54Z</time>
      </trkpt>
      <trkpt lat="41.6119700" lon="-8.7885970">
        <ele>8.9</ele>
        <time>2021-05-17T11:59:55Z</time>
      </trkpt>
      <trkpt lat="41.6119740" lon="-8.7885990">
        <ele>8.9</ele>
        <time>2021-05-17T11:59:56Z</time>
      </trkpt>
      <trkpt lat="41.6119870" lon="-8.7886050">
        <ele>8.8</ele>
        <time>2021-05-17T11:59:57Z</time>
      </trkpt>
      <trkpt lat="41.6120010" lon="-8.7886230">
        <ele>8.7</ele>
        <time>2021-05-17T11:59:58Z</time>
      </trkpt>
      <trkpt lat="41.6120080" lon="-8.7886350">
        <ele>8.6</ele>
        <time>2021-05-17T11:59:59Z</time>
      </trkpt>
      <trkpt lat="41.6120140" lon="-8.7886470">
        <ele>8.5</ele>
        <time>2021-05-17T12:00:00Z</time>
      </trkpt>
      <trkpt lat="41.6120280" lon="-8.7886690">
        <ele>8.4</ele>
        <time>2021-05-17T12:00:01Z</time>
      </trkpt>
      <trkpt lat="41.6120350" lon="-8.7886800">
        <ele>8.4</ele>
        <time>2021-05-17T12:00:02Z</time>
      </trkpt>
      <trkpt lat="41.6120420" lon="-8.7886910">
        <ele>8.3</ele>
        <time>2021-05-17T12:00:03Z</time>
      </trkpt>
      <trkpt lat="41.6120550" lon="-8.7887130">
        <ele>8.2</ele>
        <time>2021-05-17T12:00:04Z</time>
      </trkpt>
      <trkpt lat="41.6120600" lon="-8.7887210">
        <ele>8.1</ele>
        <time>2021-05-17T12:00:05Z</time>
      </trkpt>
      <trkpt lat="41.6120660" lon="-8.7887280">
        <ele>8.1</ele>
        <time>2021-05-17T12:00:06Z</time>
      </trkpt>
      <trkpt lat="41.6120820" lon="-8.7887470">
        <ele>7.9</ele>
        <time>2021-05-17T12:00:07Z</time>
      </trkpt>
      <trkpt lat="41.6120900" lon="-8.7887540">
        <ele>7.9</ele>
        <time>2021-05-17T12:00:08Z</time>
      </trkpt>
      <trkpt lat="41.6120940" lon="-8.7887650">
        <ele>7.8</ele>
        <time>2021-05-17T12:00:09Z</time>
      </trkpt>
      <trkpt lat="41.6121050" lon="-8.7887820">
        <ele>7.7</ele>
        <time>2021-05-17T12:00:10Z</time>
      </trkpt>
      <trkpt lat="41.6121090" lon="-8.7887910">
        <ele>6.3</ele>
        <time>2021-05-17T12:00:11Z</time>
      </trkpt>
      <trkpt lat="41.6121220" lon="-8.7888040">
        <ele>6.3</ele>
        <time>2021-05-17T12:00:12Z</time>
      </trkpt>
      <trkpt lat="41.6121300" lon="-8.7888190">
        <ele>6.3</ele>
        <time>2021-05-17T12:00:13Z</time>
      </trkpt>
      <trkpt lat="41.6121400" lon="-8.7888320">
        <ele>6.4</ele>
        <time>2021-05-17T12:00:14Z</time>
      </trkpt>
      <trkpt lat="41.6121490" lon="-8.7888380">
        <ele>6.4</ele>
        <time>2021-05-17T12:00:15Z</time>
      </trkpt>
      <trkpt lat="41.6121550" lon="-8.7888470">
        <ele>6.4</ele>
        <time>2021-05-17T12:00:16Z</time>
      </trkpt>
      <trkpt lat="41.6121570" lon="-8.7888620">
        <ele>6.4</ele>
        <time>2021-05-17T12:00:17Z</time>
      </trkpt>
      <trkpt lat="41.6121600" lon="-8.7888590">
        <ele>6.4</ele>
        <time>2021-05-17T12:00:18Z</time>
      </trkpt>
      <trkpt lat="41.6121630" lon="-8.7888570">
        <ele>6.4</ele>
        <time>2021-05-17T12:00:19Z</time>
      </trkpt>
      <trkpt lat="41.6121660" lon="-8.7888550">
        <ele>6.4</ele>
        <time>2021-05-17T12:00:20Z</time>
      </trkpt>
      <trkpt lat="41.6121690" lon="-8.7888520">
        <ele>6.4</ele>
        <time>2021-05-17T12:00:21Z</time>
      </trkpt>
      <trkpt lat="41.6121720" lon="-8.7888500">
        <ele>6.4</ele>
        <time>2021-05-17T12:00:22Z</time>
      </trkpt>
      <trkpt lat="41.6121750" lon="-8.7888480">
        <ele>6.4</ele>
        <time>2021-05-17T12:00:23Z</time>
      </trkpt>
      <trkpt lat="41.6121770" lon="-8.7888450">
        <ele>6.4</ele>
        <time>2021-05-17T12:00:24Z</time>
      </trkpt>
      <trkpt lat="41.6121800" lon="-8.7888430">
        <ele>6.4</ele>
        <time>2021-05-17T12:00:25Z</time>
      </trkpt>
      <trkpt lat="41.6121830" lon="-8.7888410">
        <ele>6.4</ele>
        <time>2021-05-17T12:00:26Z</time>
      </trkpt>
      <trkpt lat="41.6121860" lon="-8.7888380">
        <ele>6.4</ele>
        <time>2021-05-17T12:00:27Z</time>
      </trkpt>
      <trkpt lat="41.6121890" lon="-8.7888360">
        <ele>6.4</ele>
        <time>2021-05-17T12:00:28Z</time>
      </trkpt>
      <trkpt lat="41.6121920" lon="-8.7888340">
        <ele>6.4</ele>
        <time>2021-05-17T12:00:29Z</time>
      </trkpt>
      <trkpt lat="41.6121950" lon="-8.7888310">
        <ele>6.4</ele>
        <time>2021-05-17T12:00:30Z</time>
      </trkpt>
      <trkpt lat="41.6121980" lon="-8.7888290">
        <ele>6.4</ele>
        <time>2021-05-17T12:00:31Z</time>
      </trkpt>
      <trkpt lat="41.6122160" lon="-8.7887970">
        <ele>6.5</ele>
        <time>2021-05-17T12:00:32Z</time>
      </trkpt>
      <trkpt lat="41.6122220" lon="-8.7887870">
        <ele>6.5</ele>
        <time>2021-05-17T12:00:33Z</time>
      </trkpt>
      <trkpt lat="41.6122320" lon="-8.7887740">
        <ele>6.5</ele>
        <time>2021-05-17T12:00:34Z</time>
      </trkpt>
      <trkpt lat="41.6122440" lon="-8.7887590">
        <ele>6.5</ele>
        <time>2021-05-17T12:00:35Z</time>
      </trkpt>
      <trkpt lat="41.6122540" lon="-8.7887480">
        <ele>6.5</ele>
        <time>2021-05-17T12:00:36Z</time>
      </trkpt>
      <trkpt lat="41.6122580" lon="-8.7887380">
        <ele>6.5</ele>
        <time>2021-05-17T12:00:37Z</time>
      </trkpt>
      <trkpt lat="41.6122670" lon="-8.7887230">
        <ele>6.6</ele>
        <time>2021-05-17T12:00:38Z</time>
      </trkpt>
      <trkpt lat="41.6122800" lon="-8.7887020">
        <ele>6.6</ele>
        <time>2021-05-17T12:00:39Z</time>
      </trkpt>
      <trkpt lat="41.6122890" lon="-8.7886870">
        <ele>6.7</ele>
        <time>2021-05-17T12:00:40Z</time>
      </trkpt>
      <trkpt lat="41.6123040" lon="-8.7886720">
        <ele>6.8</ele>
        <time>2021-05-17T12:00:41Z</time>
      </trkpt>
      <trkpt lat="41.6123180" lon="-8.7886650">
        <ele>6.9</ele>
        <time>2021-05-17T12:00:42Z</time>
      </trkpt>
      <trkpt lat="41.6123380" lon="-8.7886570">
        <ele>7.0</ele>
        <time>2021-05-17T12:00:43Z</time>
      </trkpt>
      <trkpt lat="41.6123480" lon="-8.7886480">
        <ele>7.1</ele>
        <time>2021-05-17T12:00:44Z</time>
      </trkpt>
      <trkpt lat="41.6123590" lon="-8.7886390">
        <ele>7.2</ele>
        <time>2021-05-17T12:00:45Z</time>
      </trkpt>
      <trkpt lat="41.6123670" lon="-8.7886330">
        <ele>7.2</ele>
        <time>2021-05-17T12:00:46Z</time>
      </trkpt>
      <trkpt lat="41.6123830" lon="-8.7886160">
        <ele>7.4</ele>
        <time>2021-05-17T12:00:47Z</time>
      </trkpt>
      <trkpt lat="41.6123990" lon="-8.7886040">
        <ele>7.5</ele>
        <time>2021-05-17T12:00:48Z</time>
      </trkpt>
      <trkpt lat="41.6124080" lon="-8.7885980">
        <ele>7.5</ele>
        <time>2021-05-17T12:00:49Z</time>
      </trkpt>
      <trkpt lat="41.6124160" lon="-8.7885910">
        <ele>7.6</ele>
        <time>2021-05-17T12:00:50Z</time>
      </trkpt>
      <trkpt lat="41.6124270" lon="-8.7885770">
        <ele>7.7</ele>
        <time>2021-05-17T12:00:51Z</time>
      </trkpt>
      <trkpt lat="41.6124430" lon="-8.7885720">
        <ele>7.8</ele>
        <time>2021-05-17T12:00:52Z</time>
      </trkpt>
      <trkpt lat="41.6124590" lon="-8.7885640">
        <ele>7.9</ele>
        <time>2021-05-17T12:00:53Z</time>
      </trkpt>
      <trkpt lat="41.6124860" lon="-8.7885500">
        <ele>8.1</ele>
        <time>2021-05-17T12:00:54Z</time>
      </trkpt>
      <trkpt lat="41.6125010" lon="-8.7885430">
        <ele>8.2</ele>
        <time>2021-05-17T12:00:55Z</time>
      </trkpt>
      <trkpt lat="41.6125150" lon="-8.7885320">
        <ele>8.4</ele>
        <time>2021-05-17T12:00:56Z</time>
      </trkpt>
      <trkpt lat="41.6125310" lon="-8.7885270">
        <ele>8.5</ele>
        <time>2021-05-17T12:00:57Z</time>
      </trkpt>
      <trkpt lat="41.6125510" lon="-8.7885280">
        <ele>8.7</ele>
        <time>2021-05-17T12:00:58Z</time>
      </trkpt>
      <trkpt lat="41.6125590" lon="-8.7885250">
        <ele>8.7</ele>
        <time>2021-05-17T12:00:59Z</time>
      </trkpt>
      <trkpt lat="41.6125680" lon="-8.7885210">
        <ele>8.8</ele>
        <time>2021-05-17T12:01:00Z</time>
      </trkpt>
      <trkpt lat="41.6125770" lon="-8.7885120">
        <ele>8.9</ele>
        <time>2021-05-17T12:01:01Z</time>
      </trkpt>
      <trkpt lat="41.6125940" lon="-8.7885040">
        <ele>9.1</ele>
        <time>2021-05-17T12:01:02Z</time>
      </trkpt>
      <trkpt lat="41.6126130" lon="-8.7884870">
        <ele>9.3</ele>
        <time>2021-05-17T12:01:03Z</time>
      </trkpt>
      <trkpt lat="41.6126220" lon="-8.7884830">
        <ele>9.4</ele>
        <time>2021-05-17T12:01:04Z</time>
      </trkpt>
      <trkpt lat="41.6126300" lon="-8.7884800">
        <ele>9.4</ele>
        <time>2021-05-17T12:01:05Z</time>
      </trkpt>
      <trkpt lat="41.6126430" lon="-8.7884640">
        <ele>9.6</ele>
        <time>2021-05-17T12:01:06Z</time>
      </trkpt>
      <trkpt lat="41.6126540" lon="-8.7884560">
        <ele>9.7</ele>
        <time>2021-05-17T12:01:07Z</time>
      </trkpt>
      <trkpt lat="41.6126680" lon="-8.7884470">
        <ele>9.8</ele>
        <time>2021-05-17T12:01:08Z</time>
      </trkpt>
      <trkpt lat="41.6126800" lon="-8.7884380">
        <ele>10.0</ele>
        <time>2021-05-17T12:01:09Z</time>
      </trkpt>
      <trkpt lat="41.6127010" lon="-8.7884280">
        <ele>10.2</ele>
        <time>2021-05-17T12:01:10Z</time>
      </trkpt>
      <trkpt lat="41.6127090" lon="-8.7884230">
        <ele>10.3</ele>
        <time>2021-05-17T12:01:11Z</time>
      </trkpt>
      <trkpt lat="41.6127170" lon="-8.7884170">
        <ele>10.4</ele>
        <time>2021-05-17T12:01:12Z</time>
      </trkpt>
      <trkpt lat="41.6127330" lon="-8.7884120">
        <ele>10.5</ele>
        <time>2021-05-17T12:01:13Z</time>
      </trkpt>
      <trkpt lat="41.6127510" lon="-8.7884020">
        <ele>10.7</ele>
        <time>2021-05-17T12:01:14Z</time>
      </trkpt>
      <trkpt lat="41.6127640" lon="-8.7883920">
        <ele>10.8</ele>
        <time>2021-05-17T12:01:15Z</time>
      </trkpt>
      <trkpt lat="41.6127800" lon="-8.7883830">
        <ele>11.0</ele>
        <time>2021-05-17T12:01:16Z</time>
      </trkpt>
      <trkpt lat="41.6127960" lon="-8.7883800">
        <ele>11.2</ele>
        <time>2021-05-17T12:01:17Z</time>
      </trkpt>
      <trkpt lat="41.6128080" lon="-8.7883660">
        <ele>11.3</ele>
        <time>2021-05-17T12:01:18Z</time>
      </trkpt>
      <trkpt lat="41.6128220" lon="-8.7883630">
        <ele>11.4</ele>
        <time>2021-05-17T12:01:19Z</time>
      </trkpt>
      <trkpt lat="41.6128380" lon="-8.7883630">
        <ele>11.6</ele>
        <time>2021-05-17T12:01:20Z</time>
      </trkpt>
      <trkpt lat="41.6128510" lon="-8.7883500">
        <ele>11.7</ele>
        <time>2021-05-17T12:01:21Z</time>
      </trkpt>
      <trkpt lat="41.6128640" lon="-8.7883470">
        <ele>11.8</ele>
        <time>2021-05-17T12:01:22Z</time>
      </trkpt>
      <trkpt lat="41.6128810" lon="-8.7883390">
        <ele>11.9</ele>
        <time>2021-05-17T12:01:23Z</time>
      </trkpt>
      <trkpt lat="41.6128930" lon="-8.7883280">
        <ele>12.0</ele>
        <time>2021-05-17T12:01:24Z</time>
      </trkpt>
      <trkpt lat="41.6129040" lon="-8.7883160">
        <ele>12.1</ele>
        <time>2021-05-17T12:01:25Z</time>
      </trkpt>
      <trkpt lat="41.6129050" lon="-8.7883190">
        <ele>12.1</ele>
        <time>2021-05-17T12:01:26Z</time>
      </trkpt>
      <trkpt lat="41.6129170" lon="-8.7883080">
        <ele>12.2</ele>
        <time>2021-05-17T12:01:27Z</time>
      </trkpt>
      <trkpt lat="41.6129390" lon="-8.7882990">
        <ele>12.4</ele>
        <time>2021-05-17T12:01:28Z</time>
      </trkpt>
      <trkpt lat="41.6129470" lon="-8.7882960">
        <ele>12.4</ele>
        <time>2021-05-17T12:01:29Z</time>
      </trkpt>
      <trkpt lat="41.6129550" lon="-8.7882940">
        <ele>12.5</ele>
        <time>2021-05-17T12:01:30Z</time>
      </trkpt>
      <trkpt lat="41.6129650" lon="-8.7882820">
        <ele>12.5</ele>
        <time>2021-05-17T12:01:31Z</time>
      </trkpt>
      <trkpt lat="41.6129810" lon="-8.7882740">
        <ele>12.6</ele>
        <time>2021-05-17T12:01:32Z</time>
      </trkpt>
      <trkpt lat="41.6130020" lon="-8.7882580">
        <ele>12.8</ele>
        <time>2021-05-17T12:01:33Z</time>
      </trkpt>
      <trkpt lat="41.6130100" lon="-8.7882540">
        <ele>12.8</ele>
        <time>2021-05-17T12:01:34Z</time>
      </trkpt>
      <trkpt lat="41.6130190" lon="-8.7882490">
        <ele>12.9</ele>
        <time>2021-05-17T12:01:35Z</time>
      </trkpt>
      <trkpt lat="41.6130400" lon="-8.7882350">
        <ele>13.0</ele>
        <time>2021-05-17T12:01:36Z</time>
      </trkpt>
      <trkpt lat="41.6130480" lon="-8.7882320">
        <ele>13.1</ele>
        <time>2021-05-17T12:01:37Z</time>
      </trkpt>
      <trkpt lat="41.6130560" lon="-8.7882280">
        <ele>13.1</ele>
        <time>2021-05-17T12:01:38Z</time>
      </trkpt>
      <trkpt lat="41.6130640" lon="-8.7882200">
        <ele>13.2</ele>
        <time>2021-05-17T12:01:39Z</time>
      </trkpt>
      <trkpt lat="41.6130770" lon="-8.7882190">
        <ele>13.2</ele>
        <time>2021-05-17T12:01:40Z</time>
      </trkpt>
      <trkpt lat="41.6130900" lon="-8.7882120">
        <ele>13.3</ele>
        <time>2021-05-17T12:01:41Z</time>
      </trkpt>
      <trkpt lat="41.6131090" lon="-8.7882120">
        <ele>13.4</ele>
        <time>2021-05-17T12:01:42Z</time>
      </trkpt>
      <trkpt lat="41.6131190" lon="-8.7882090">
        <ele>13.5</ele>
        <time>2021-05-17T12:01:43Z</time>
      </trkpt>
      <trkpt lat="41.6131290" lon="-8.7882050">
        <ele>13.5</ele>
        <time>2021-05-17T12:01:44Z</time>
      </trkpt>
      <trkpt lat="41.6131490" lon="-8.7881990">
        <ele>13.6</ele>
        <time>2021-05-17T12:01:45Z</time>
      </trkpt>
      <trkpt lat="41.6131570" lon="-8.7881950">
        <ele>13.7</ele>
        <time>2021-05-17T12:01:46Z</time>
      </trkpt>
      <trkpt lat="41.6131660" lon="-8.7881920">
        <ele>13.7</ele>
        <time>2021-05-17T12:01:47Z</time>
      </trkpt>
      <trkpt lat="41.6131900" lon="-8.7881930">
        <ele>13.8</ele>
        <time>2021-05-17T12:01:48Z</time>
      </trkpt>
      <trkpt lat="41.6131990" lon="-8.7881930">
        <ele>13.9</ele>
        <time>2021-05-17T12:01:49Z</time>
      </trkpt>
      <trkpt lat="41.6132090" lon="-8.7881920">
        <ele>13.9</ele>
        <time>2021-05-17T12:01:50Z</time>
      </trkpt>
      <trkpt lat="41.6132340" lon="-8.7881930">
        <ele>14.0</ele>
        <time>2021-05-17T12:01:51Z</time>
      </trkpt>
      <trkpt lat="41.6132430" lon="-8.7881950">
        <ele>14.1</ele>
        <time>2021-05-17T12:01:52Z</time>
      </trkpt>
      <trkpt lat="41.6132520" lon="-8.7881970">
        <ele>14.1</ele>
        <time>2021-05-17T12:01:53Z</time>
      </trkpt>
      <trkpt lat="41.6132630" lon="-8.7882000">
        <ele>14.1</ele>
        <time>2021-05-17T12:01:54Z</time>
      </trkpt>
      <trkpt lat="41.6132770" lon="-8.7881990">
        <ele>14.2</ele>
        <time>2021-05-17T12:01:55Z</time>
      </trkpt>
      <trkpt lat="41.6132870" lon="-8.7882060">
        <ele>14.3</ele>
        <time>2021-05-17T12:01:56Z</time>
      </trkpt>
      <trkpt lat="41.6133010" lon="-8.7882030">
        <ele>14.3</ele>
        <time>2021-05-17T12:01:57Z</time>
      </trkpt>
      <trkpt lat="41.6133180" lon="-8.7882100">
        <ele>14.4</ele>
        <time>2021-05-17T12:01:58Z</time>
      </trkpt>
      <trkpt lat="41.6133260" lon="-8.7882110">
        <ele>14.4</ele>
        <time>2021-05-17T12:02:00Z</time>
      </trkpt>
      <trkpt lat="41.6133360" lon="-8.7882140">
        <ele>14.4</ele>
        <time>2021-05-17T12:02:01Z</time>
      </trkpt>
      <trkpt lat="41.6133520" lon="-8.7882220">
        <ele>14.5</ele>
        <time>2021-05-17T12:02:02Z</time>
      </trkpt>
      <trkpt lat="41.6133670" lon="-8.7882280">
        <ele>14.5</ele>
        <time>2021-05-17T12:02:03Z</time>
      </trkpt>
      <trkpt lat="41.6133830" lon="-8.7882310">
        <ele>14.6</ele>
        <time>2021-05-17T12:02:04Z</time>
      </trkpt>
      <trkpt lat="41.6134030" lon="-8.7882430">
        <ele>14.6</ele>
        <time>2021-05-17T12:02:05Z</time>
      </trkpt>
      <trkpt lat="41.6134110" lon="-8.7882480">
        <ele>14.6</ele>
        <time>2021-05-17T12:02:06Z</time>
      </trkpt>
      <trkpt lat="41.6134200" lon="-8.7882520">
        <ele>14.7</ele>
        <time>2021-05-17T12:02:07Z</time>
      </trkpt>
      <trkpt lat="41.6134400" lon="-8.7882590">
        <ele>14.7</ele>
        <time>2021-05-17T12:02:08Z</time>
      </trkpt>
      <trkpt lat="41.6134490" lon="-8.7882630">
        <ele>14.8</ele>
        <time>2021-05-17T12:02:09Z</time>
      </trkpt>
      <trkpt lat="41.6134570" lon="-8.7882670">
        <ele>14.8</ele>
        <time>2021-05-17T12:02:10Z</time>
      </trkpt>
      <trkpt lat="41.6134830" lon="-8.7882860">
        <ele>14.9</ele>
        <time>2021-05-17T12:02:11Z</time>
      </trkpt>
      <trkpt lat="41.6134930" lon="-8.7882950">
        <ele>14.9</ele>
        <time>2021-05-17T12:02:12Z</time>
      </trkpt>
      <trkpt lat="41.6135110" lon="-8.7883080">
        <ele>15.0</ele>
        <time>2021-05-17T12:02:13Z</time>
      </trkpt>
      <trkpt lat="41.6135180" lon="-8.7883160">
        <ele>15.1</ele>
        <time>2021-05-17T12:02:14Z</time>
      </trkpt>
      <trkpt lat="41.6135260" lon="-8.7883240">
        <ele>15.1</ele>
        <time>2021-05-17T12:02:15Z</time>
      </trkpt>
      <trkpt lat="41.6135350" lon="-8.7883350">
        <ele>15.2</ele>
        <time>2021-05-17T12:02:16Z</time>
      </trkpt>
      <trkpt lat="41.6135500" lon="-8.7883440">
        <ele>15.4</ele>
        <time>2021-05-17T12:02:17Z</time>
      </trkpt>
      <trkpt lat="41.6135650" lon="-8.7883560">
        <ele>15.5</ele>
        <time>2021-05-17T12:02:18Z</time>
      </trkpt>
      <trkpt lat="41.6135740" lon="-8.7883720">
        <ele>15.6</ele>
        <time>2021-05-17T12:02:19Z</time>
      </trkpt>
      <trkpt lat="41.6135850" lon="-8.7883930">
        <ele>15.8</ele>
        <time>2021-05-17T12:02:20Z</time>
      </trkpt>
      <trkpt lat="41.6135900" lon="-8.7884070">
        <ele>15.9</ele>
        <time>2021-05-17T12:02:21Z</time>
      </trkpt>
      <trkpt lat="41.6136050" lon="-8.7884280">
        <ele>16.1</ele>
        <time>2021-05-17T12:02:22Z</time>
      </trkpt>
      <trkpt lat="41.6136120" lon="-8.7884400">
        <ele>16.2</ele>
        <time>2021-05-17T12:02:23Z</time>
      </trkpt>
      <trkpt lat="41.6136190" lon="-8.7884470">
        <ele>16.3</ele>
        <time>2021-05-17T12:02:24Z</time>
      </trkpt>
      <trkpt lat="41.6136260" lon="-8.7884580">
        <ele>16.4</ele>
        <time>2021-05-17T12:02:25Z</time>
      </trkpt>
      <trkpt lat="41.6136360" lon="-8.7884690">
        <ele>16.6</ele>
        <time>2021-05-17T12:02:26Z</time>
      </trkpt>
      <trkpt lat="41.6136500" lon="-8.7884900">
        <ele>16.8</ele>
        <time>2021-05-17T12:02:27Z</time>
      </trkpt>
      <trkpt lat="41.6136570" lon="-8.7884990">
        <ele>16.9</ele>
        <time>2021-05-17T12:02:28Z</time>
      </trkpt>
      <trkpt lat="41.6136650" lon="-8.7885090">
        <ele>17.1</ele>
        <time>2021-05-17T12:02:29Z</time>
      </trkpt>
      <trkpt lat="41.6136760" lon="-8.7885190">
        <ele>17.2</ele>
        <time>2021-05-17T12:02:30Z</time>
      </trkpt>
      <trkpt lat="41.6136840" lon="-8.7885380">
        <ele>17.4</ele>
        <time>2021-05-17T12:02:31Z</time>
      </trkpt>
      <trkpt lat="41.6136930" lon="-8.7885500">
        <ele>17.6</ele>
        <time>2021-05-17T12:02:32Z</time>
      </trkpt>
      <trkpt lat="41.6137070" lon="-8.7885600">
        <ele>17.8</ele>
        <time>2021-05-17T12:02:33Z</time>
      </trkpt>
      <trkpt lat="41.6137240" lon="-8.7885810">
        <ele>18.1</ele>
        <time>2021-05-17T12:02:34Z</time>
      </trkpt>
      <trkpt lat="41.6137290" lon="-8.7885910">
        <ele>18.3</ele>
        <time>2021-05-17T12:02:35Z</time>
      </trkpt>
      <trkpt lat="41.6137350" lon="-8.7886020">
        <ele>18.4</ele>
        <time>2021-05-17T12:02:36Z</time>
      </trkpt>
      <trkpt lat="41.6137370" lon="-8.7886040">
        <ele>18.4</ele>
        <time>2021-05-17T12:02:37Z</time>
      </trkpt>
      <trkpt lat="41.6137480" lon="-8.7886180">
        <ele>18.7</ele>
        <time>2021-05-17T12:02:38Z</time>
      </trkpt>
      <trkpt lat="41.6137580" lon="-8.7886280">
        <ele>18.8</ele>
        <time>2021-05-17T12:02:39Z</time>
      </trkpt>
      <trkpt lat="41.6137650" lon="-8.7886360">
        <ele>19.0</ele>
        <time>2021-05-17T12:02:40Z</time>
      </trkpt>
      <trkpt lat="41.6137780" lon="-8.7886510">
        <ele>19.2</ele>
        <time>2021-05-17T12:02:41Z</time>
      </trkpt>
      <trkpt lat="41.6137850" lon="-8.7886560">
        <ele>19.3</ele>
        <time>2021-05-17T12:02:42Z</time>
      </trkpt>
      <trkpt lat="41.6138000" lon="-8.7886770">
        <ele>19.7</ele>
        <time>2021-05-17T12:02:43Z</time>
      </trkpt>
      <trkpt lat="41.6138060" lon="-8.7886820">
        <ele>19.8</ele>
        <time>2021-05-17T12:02:44Z</time>
      </trkpt>
      <trkpt lat="41.6138130" lon="-8.7886870">
        <ele>19.9</ele>
        <time>2021-05-17T12:02:45Z</time>
      </trkpt>
      <trkpt lat="41.6138270" lon="-8.7886960">
        <ele>20.2</ele>
        <time>2021-05-17T12:02:46Z</time>
      </trkpt>
      <trkpt lat="41.6138380" lon="-8.7887030">
        <ele>20.3</ele>
        <time>2021-05-17T12:02:47Z</time>
      </trkpt>
      <trkpt lat="41.6138540" lon="-8.7887040">
        <ele>20.6</ele>
        <time>2021-05-17T12:02:48Z</time>
      </trkpt>
      <trkpt lat="41.6138680" lon="-8.7887100">
        <ele>20.8</ele>
        <time>2021-05-17T12:02:49Z</time>
      </trkpt>
      <trkpt lat="41.6138740" lon="-8.7887050">
        <ele>20.9</ele>
        <time>2021-05-17T12:02:50Z</time>
      </trkpt>
      <trkpt lat="41.6138890" lon="-8.7887130">
        <ele>21.2</ele>
        <time>2021-05-17T12:02:51Z</time>
      </trkpt>
      <trkpt lat="41.6139000" lon="-8.7887150">
        <ele>21.4</ele>
        <time>2021-05-17T12:02:52Z</time>
      </trkpt>
      <trkpt lat="41.6139160" lon="-8.7887310">
        <ele>21.7</ele>
        <time>2021-05-17T12:02:53Z</time>
      </trkpt>
      <trkpt lat="41.6139250" lon="-8.7887350">
        <ele>21.9</ele>
        <time>2021-05-17T12:02:54Z</time>
      </trkpt>
      <trkpt lat="41.6139340" lon="-8.7887400">
        <ele>22.0</ele>
        <time>2021-05-17T12:02:55Z</time>
      </trkpt>
      <trkpt lat="41.6139430" lon="-8.7887420">
        <ele>22.2</ele>
        <time>2021-05-17T12:02:56Z</time>
      </trkpt>
      <trkpt lat="41.6139560" lon="-8.7887440">
        <ele>22.4</ele>
        <time>2021-05-17T12:02:57Z</time>
      </trkpt>
      <trkpt lat="41.6139700" lon="-8.7887460">
        <ele>22.6</ele>
        <time>2021-05-17T12:02:58Z</time>
      </trkpt>
      <trkpt lat="41.6139810" lon="-8.7887540">
        <ele>22.8</ele>
        <time>2021-05-17T12:02:59Z</time>
      </trkpt>
      <trkpt lat="41.6140030" lon="-8.7887720">
        <ele>23.2</ele>
        <time>2021-05-17T12:03:00Z</time>
      </trkpt>
      <trkpt lat="41.6140170" lon="-8.7887720">
        <ele>23.4</ele>
        <time>2021-05-17T12:03:01Z</time>
      </trkpt>
      <trkpt lat="41.6140290" lon="-8.7887880">
        <ele>23.7</ele>
        <time>2021-05-17T12:03:02Z</time>
      </trkpt>
      <trkpt lat="41.6140370" lon="-8.7888030">
        <ele>23.9</ele>
        <time>2021-05-17T12:03:03Z</time>
      </trkpt>
      <trkpt lat="41.6140490" lon="-8.7888010">
        <ele>24.1</ele>
        <time>2021-05-17T12:03:04Z</time>
      </trkpt>
      <trkpt lat="41.6140650" lon="-8.7887920">
        <ele>24.4</ele>
        <time>2021-05-17T12:03:05Z</time>
      </trkpt>
      <trkpt lat="41.6140840" lon="-8.7887920">
        <ele>24.6</ele>
        <time>2021-05-17T12:03:06Z</time>
      </trkpt>
      <trkpt lat="41.6140940" lon="-8.7887920">
        <ele>24.8</ele>
        <time>2021-05-17T12:03:07Z</time>
      </trkpt>
      <trkpt lat="41.6141050" lon="-8.7887910">
        <ele>25.0</ele>
        <time>2021-05-17T12:03:08Z</time>
      </trkpt>
      <trkpt lat="41.6141240" lon="-8.7887970">
        <ele>25.2</ele>
        <time>2021-05-17T12:03:09Z</time>
      </trkpt>
      <trkpt lat="41.6141370" lon="-8.7888000">
        <ele>25.4</ele>
        <time>2021-05-17T12:03:10Z</time>
      </trkpt>
      <trkpt lat="41.6141510" lon="-8.7888030">
        <ele>25.6</ele>
        <time>2021-05-17T12:03:11Z</time>
      </trkpt>
      <trkpt lat="41.6141680" lon="-8.7888050">
        <ele>25.9</ele>
        <time>2021-05-17T12:03:12Z</time>
      </trkpt>
      <trkpt lat="41.6141830" lon="-8.7888220">
        <ele>26.1</ele>
        <time>2021-05-17T12:03:13Z</time>
      </trkpt>
      <trkpt lat="41.6142000" lon="-8.7888170">
        <ele>26.4</ele>
        <time>2021-05-17T12:03:14Z</time>
      </trkpt>
      <trkpt lat="41.6142140" lon="-8.7888210">
        <ele>26.6</ele>
        <time>2021-05-17T12:03:15Z</time>
      </trkpt>
      <trkpt lat="41.6142210" lon="-8.7888230">
        <ele>26.7</ele>
        <time>2021-05-17T12:03:16Z</time>
      </trkpt>
      <trkpt lat="41.6142290" lon="-8.7888280">
        <ele>26.8</ele>
        <time>2021-05-17T12:03:17Z</time>
      </trkpt>
      <trkpt lat="41.6142370" lon="-8.7888300">
        <ele>26.9</ele>
        <time>2021-05-17T12:03:18Z</time>
      </trkpt>
      <trkpt lat="41.6142440" lon="-8.7888410">
        <ele>27.0</ele>
        <time>2021-05-17T12:03:19Z</time>
      </trkpt>
      <trkpt lat="41.6142500" lon="-8.7888400">
        <ele>27.1</ele>
        <time>2021-05-17T12:03:20Z</time>
      </trkpt>
      <trkpt lat="41.6142480" lon="-8.7888360">
        <ele>27.1</ele>
        <time>2021-05-17T12:03:21Z</time>
      </trkpt>
      <trkpt lat="41.6142490" lon="-8.7888360">
        <ele>27.2</ele>
        <time>2021-05-17T12:03:22Z</time>
      </trkpt>
      <trkpt lat="41.6142600" lon="-8.7888400">
        <ele>27.3</ele>
        <time>2021-05-17T12:03:23Z</time>
      </trkpt>
      <trkpt lat="41.6142720" lon="-8.7888460">
        <ele>27.5</ele>
        <time>2021-05-17T12:03:24Z</time>
      </trkpt>
      <trkpt lat="41.6142780" lon="-8.7888530">
        <ele>27.6</ele>
        <time>2021-05-17T12:03:25Z</time>
      </trkpt>
      <trkpt lat="41.6142880" lon="-8.7888590">
        <ele>27.7</ele>
        <time>2021-05-17T12:03:26Z</time>
      </trkpt>
      <trkpt lat="41.6143160" lon="-8.7888740">
        <ele>28.1</ele>
        <time>2021-05-17T12:03:27Z</time>
      </trkpt>
      <trkpt lat="41.6143240" lon="-8.7888790">
        <ele>28.2</ele>
        <time>2021-05-17T12:03:28Z</time>
      </trkpt>
      <trkpt lat="41.6143280" lon="-8.7888890">
        <ele>28.3</ele>
        <time>2021-05-17T12:03:30Z</time>
      </trkpt>
      <trkpt lat="41.6143330" lon="-8.7888970">
        <ele>28.3</ele>
        <time>2021-05-17T12:03:31Z</time>
      </trkpt>
      <trkpt lat="41.6143430" lon="-8.7889090">
        <ele>28.5</ele>
        <time>2021-05-17T12:03:32Z</time>
      </trkpt>
      <trkpt lat="41.6143610" lon="-8.7889180">
        <ele>28.7</ele>
        <time>2021-05-17T12:03:33Z</time>
      </trkpt>
      <trkpt lat="41.6143700" lon="-8.7889190">
        <ele>28.8</ele>
        <time>2021-05-17T12:03:34Z</time>
      </trkpt>
      <trkpt lat="41.6143790" lon="-8.7889200">
        <ele>28.9</ele>
        <time>2021-05-17T12:03:35Z</time>
      </trkpt>
      <trkpt lat="41.6144040" lon="-8.7889180">
        <ele>29.2</ele>
        <time>2021-05-17T12:03:36Z</time>
      </trkpt>
      <trkpt lat="41.6144140" lon="-8.7889150">
        <ele>29.3</ele>
        <time>2021-05-17T12:03:37Z</time>
      </trkpt>
      <trkpt lat="41.6144230" lon="-8.7889130">
        <ele>29.4</ele>
        <time>2021-05-17T12:03:38Z</time>
      </trkpt>
      <trkpt lat="41.6144470" lon="-8.7889100">
        <ele>29.6</ele>
        <time>2021-05-17T12:03:39Z</time>
      </trkpt>
      <trkpt lat="41.6144530" lon="-8.7889100">
        <ele>29.9</ele>
        <time>2021-05-17T12:03:40Z</time>
      </trkpt>
      <trkpt lat="41.6144590" lon="-8.7889090">
        <ele>30.0</ele>
        <time>2021-05-17T12:03:41Z</time>
      </trkpt>
      <trkpt lat="41.6144800" lon="-8.7889140">
        <ele>30.1</ele>
        <time>2021-05-17T12:03:42Z</time>
      </trkpt>
      <trkpt lat="41.6144890" lon="-8.7889110">
        <ele>30.2</ele>
        <time>2021-05-17T12:03:43Z</time>
      </trkpt>
      <trkpt lat="41.6144980" lon="-8.7889090">
        <ele>30.3</ele>
        <time>2021-05-17T12:03:44Z</time>
      </trkpt>
      <trkpt lat="41.6145060" lon="-8.7889100">
        <ele>30.3</ele>
        <time>2021-05-17T12:03:45Z</time>
      </trkpt>
      <trkpt lat="41.6145170" lon="-8.7889060">
        <ele>30.4</ele>
        <time>2021-05-17T12:03:46Z</time>
      </trkpt>
      <trkpt lat="41.6145310" lon="-8.7889070">
        <ele>30.5</ele>
        <time>2021-05-17T12:03:47Z</time>
      </trkpt>
      <trkpt lat="41.6145400" lon="-8.7889030">
        <ele>30.6</ele>
        <time>2021-05-17T12:03:48Z</time>
      </trkpt>
      <trkpt lat="41.6145520" lon="-8.7889000">
        <ele>30.7</ele>
        <time>2021-05-17T12:03:49Z</time>
      </trkpt>
      <trkpt lat="41.6145640" lon="-8.7888940">
        <ele>30.8</ele>
        <time>2021-05-17T12:03:50Z</time>
      </trkpt>
      <trkpt lat="41.6145770" lon="-8.7888760">
        <ele>30.9</ele>
        <time>2021-05-17T12:03:51Z</time>
      </trkpt>
      <trkpt lat="41.6145880" lon="-8.7888640">
        <ele>31.0</ele>
        <time>2021-05-17T12:03:52Z</time>
      </trkpt>
      <trkpt lat="41.6146010" lon="-8.7888490">
        <ele>31.1</ele>
        <time>2021-05-17T12:03:53Z</time>
      </trkpt>
      <trkpt lat="41.6146120" lon="-8.7888330">
        <ele>31.2</ele>
        <time>2021-05-17T12:03:54Z</time>
      </trkpt>
      <trkpt lat="41.6146240" lon="-8.7888100">
        <ele>31.4</ele>
        <time>2021-05-17T12:03:55Z</time>
      </trkpt>
      <trkpt lat="41.6146290" lon="-8.7888000">
        <ele>31.4</ele>
        <time>2021-05-17T12:03:56Z</time>
      </trkpt>
      <trkpt lat="41.6146350" lon="-8.7887910">
        <ele>31.5</ele>
        <time>2021-05-17T12:03:57Z</time>
      </trkpt>
      <trkpt lat="41.6146510" lon="-8.7887710">
        <ele>31.7</ele>
        <time>2021-05-17T12:03:58Z</time>
      </trkpt>
      <trkpt lat="41.6146580" lon="-8.7887640">
        <ele>31.7</ele>
        <time>2021-05-17T12:03:59Z</time>
      </trkpt>
      <trkpt lat="41.6146640" lon="-8.7887580">
        <ele>31.8</ele>
        <time>2021-05-17T12:04:00Z</time>
      </trkpt>
      <trkpt lat="41.6146700" lon="-8.7887510">
        <ele>31.8</ele>
        <time>2021-05-17T12:04:01Z</time>
      </trkpt>
      <trkpt lat="41.6146760" lon="-8.7887490">
        <ele>31.9</ele>
        <time>2021-05-17T12:04:02Z</time>
      </trkpt>
      <trkpt lat="41.6146800" lon="-8.7887180">
        <ele>32.1</ele>
        <time>2021-05-17T12:04:03Z</time>
      </trkpt>
      <trkpt lat="41.6146880" lon="-8.7886930">
        <ele>32.2</ele>
        <time>2021-05-17T12:04:04Z</time>
      </trkpt>
      <trkpt lat="41.6146910" lon="-8.7886820">
        <ele>32.3</ele>
        <time>2021-05-17T12:04:05Z</time>
      </trkpt>
      <trkpt lat="41.6146950" lon="-8.7886720">
        <ele>32.4</ele>
        <time>2021-05-17T12:04:06Z</time>
      </trkpt>
      <trkpt lat="41.6147000" lon="-8.7886550">
        <ele>32.5</ele>
        <time>2021-05-17T12:04:07Z</time>
      </trkpt>
      <trkpt lat="41.6147020" lon="-8.7886400">
        <ele>32.6</ele>
        <time>2021-05-17T12:04:08Z</time>
      </trkpt>
      <trkpt lat="41.6147130" lon="-8.7886370">
        <ele>32.7</ele>
        <time>2021-05-17T12:04:09Z</time>
      </trkpt>
      <trkpt lat="41.6147220" lon="-8.7886110">
        <ele>32.9</ele>
        <time>2021-05-17T12:04:10Z</time>
      </trkpt>
      <trkpt lat="41.6147270" lon="-8.7886000">
        <ele>33.0</ele>
        <time>2021-05-17T12:04:11Z</time>
      </trkpt>
      <trkpt lat="41.6147310" lon="-8.7885880">
        <ele>33.1</ele>
        <time>2021-05-17T12:04:12Z</time>
      </trkpt>
      <trkpt lat="41.6147350" lon="-8.7885750">
        <ele>33.2</ele>
        <time>2021-05-17T12:04:13Z</time>
      </trkpt>
      <trkpt lat="41.6147390" lon="-8.7885630">
        <ele>33.3</ele>
        <time>2021-05-17T12:04:14Z</time>
      </trkpt>
      <trkpt lat="41.6147440" lon="-8.7885450">
        <ele>33.5</ele>
        <time>2021-05-17T12:04:15Z</time>
      </trkpt>
      <trkpt lat="41.6147430" lon="-8.7885310">
        <ele>33.6</ele>
        <time>2021-05-17T12:04:16Z</time>
      </trkpt>
      <trkpt lat="41.6147430" lon="-8.7885050">
        <ele>33.9</ele>
        <time>2021-05-17T12:04:17Z</time>
      </trkpt>
      <trkpt lat="41.6147490" lon="-8.7884900">
        <ele>34.0</ele>
        <time>2021-05-17T12:04:18Z</time>
      </trkpt>
      <trkpt lat="41.6147540" lon="-8.7884660">
        <ele>34.3</ele>
        <time>2021-05-17T12:04:19Z</time>
      </trkpt>
      <trkpt lat="41.6147570" lon="-8.7884560">
        <ele>34.4</ele>
        <time>2021-05-17T12:04:20Z</time>
      </trkpt>
      <trkpt lat="41.6147680" lon="-8.7884460">
        <ele>34.5</ele>
        <time>2021-05-17T12:04:21Z</time>
      </trkpt>
      <trkpt lat="41.6147770" lon="-8.7884370">
        <ele>34.7</ele>
        <time>2021-05-17T12:04:22Z</time>
      </trkpt>
      <trkpt lat="41.6147890" lon="-8.7884220">
        <ele>34.9</ele>
        <time>2021-05-17T12:04:23Z</time>
      </trkpt>
      <trkpt lat="41.6147940" lon="-8.7884160">
        <ele>35.0</ele>
        <time>2021-05-17T12:04:24Z</time>
      </trkpt>
      <trkpt lat="41.6147980" lon="-8.7884090">
        <ele>35.1</ele>
        <time>2021-05-17T12:04:25Z</time>
      </trkpt>
      <trkpt lat="41.6148030" lon="-8.7884030">
        <ele>35.2</ele>
        <time>2021-05-17T12:04:26Z</time>
      </trkpt>
      <trkpt lat="41.6148180" lon="-8.7883980">
        <ele>35.4</ele>
        <time>2021-05-17T12:04:27Z</time>
      </trkpt>
      <trkpt lat="41.6148220" lon="-8.7883870">
        <ele>35.6</ele>
        <time>2021-05-17T12:04:28Z</time>
      </trkpt>
      <trkpt lat="41.6148350" lon="-8.7883830">
        <ele>35.7</ele>
        <time>2021-05-17T12:04:29Z</time>
      </trkpt>
      <trkpt lat="41.6148490" lon="-8.7883740">
        <ele>36.0</ele>
        <time>2021-05-17T12:04:30Z</time>
      </trkpt>
      <trkpt lat="41.6148620" lon="-8.7883740">
        <ele>36.2</ele>
        <time>2021-05-17T12:04:31Z</time>
      </trkpt>
      <trkpt lat="41.6148780" lon="-8.7883680">
        <ele>36.4</ele>
        <time>2021-05-17T12:04:32Z</time>
      </trkpt>
      <trkpt lat="41.6148880" lon="-8.7883670">
        <ele>36.6</ele>
        <time>2021-05-17T12:04:33Z</time>
      </trkpt>
      <trkpt lat="41.6148980" lon="-8.7883660">
        <ele>36.8</ele>
        <time>2021-05-17T12:04:34Z</time>
      </trkpt>
      <trkpt lat="41.6149110" lon="-8.7883680">
        <ele>37.0</ele>
        <time>2021-05-17T12:04:35Z</time>
      </trkpt>
      <trkpt lat="41.6149260" lon="-8.7883590">
        <ele>37.2</ele>
        <time>2021-05-17T12:04:36Z</time>
      </trkpt>
      <trkpt lat="41.6149350" lon="-8.7883670">
        <ele>37.4</ele>
        <time>2021-05-17T12:04:37Z</time>
      </trkpt>
      <trkpt lat="41.6149450" lon="-8.7883660">
        <ele>37.6</ele>
        <time>2021-05-17T12:04:38Z</time>
      </trkpt>
      <trkpt lat="41.6149580" lon="-8.7883570">
        <ele>37.8</ele>
        <time>2021-05-17T12:04:39Z</time>
      </trkpt>
      <trkpt lat="41.6149710" lon="-8.7883500">
        <ele>38.0</ele>
        <time>2021-05-17T12:04:40Z</time>
      </trkpt>
      <trkpt lat="41.6149810" lon="-8.7883490">
        <ele>38.2</ele>
        <time>2021-05-17T12:04:41Z</time>
      </trkpt>
      <trkpt lat="41.6149900" lon="-8.7883470">
        <ele>38.4</ele>
        <time>2021-05-17T12:04:42Z</time>
      </trkpt>
      <trkpt lat="41.6149990" lon="-8.7883450">
        <ele>38.5</ele>
        <time>2021-05-17T12:04:43Z</time>
      </trkpt>
      <trkpt lat="41.6150100" lon="-8.7883440">
        <ele>38.7</ele>
        <time>2021-05-17T12:04:44Z</time>
      </trkpt>
      <trkpt lat="41.6150280" lon="-8.7883470">
        <ele>39.0</ele>
        <time>2021-05-17T12:04:45Z</time>
      </trkpt>
      <trkpt lat="41.6150350" lon="-8.7883520">
        <ele>39.2</ele>
        <time>2021-05-17T12:04:46Z</time>
      </trkpt>
      <trkpt lat="41.6150480" lon="-8.7883490">
        <ele>39.4</ele>
        <time>2021-05-17T12:04:47Z</time>
      </trkpt>
      <trkpt lat="41.6150560" lon="-8.7883500">
        <ele>39.5</ele>
        <time>2021-05-17T12:04:48Z</time>
      </trkpt>
      <trkpt lat="41.6150700" lon="-8.7883560">
        <ele>39.8</ele>
        <time>2021-05-17T12:04:49Z</time>
      </trkpt>
      <trkpt lat="41.6150800" lon="-8.7883560">
        <ele>40.0</ele>
        <time>2021-05-17T12:04:50Z</time>
      </trkpt>
      <trkpt lat="41.6150890" lon="-8.7883550">
        <ele>40.1</ele>
        <time>2021-05-17T12:04:51Z</time>
      </trkpt>
      <trkpt lat="41.6150990" lon="-8.7883550">
        <ele>40.3</ele>
        <time>2021-05-17T12:04:52Z</time>
      </trkpt>
      <trkpt lat="41.6151110" lon="-8.7883600">
        <ele>40.4</ele>
        <time>2021-05-17T12:04:53Z</time>
      </trkpt>
      <trkpt lat="41.6151290" lon="-8.7883630">
        <ele>40.6</ele>
        <time>2021-05-17T12:04:54Z</time>
      </trkpt>
      <trkpt lat="41.6151510" lon="-8.7883630">
        <ele>40.8</ele>
        <time>2021-05-17T12:04:55Z</time>
      </trkpt>
      <trkpt lat="41.6151610" lon="-8.7883620">
        <ele>40.9</ele>
        <time>2021-05-17T12:04:56Z</time>
      </trkpt>
      <trkpt lat="41.6151710" lon="-8.7883610">
        <ele>41.0</ele>
        <time>2021-05-17T12:04:57Z</time>
      </trkpt>
      <trkpt lat="41.6151850" lon="-8.7883670">
        <ele>41.1</ele>
        <time>2021-05-17T12:04:58Z</time>
      </trkpt>
      <trkpt lat="41.6151940" lon="-8.7883700">
        <ele>41.2</ele>
        <time>2021-05-17T12:04:59Z</time>
      </trkpt>
      <trkpt lat="41.6152040" lon="-8.7883700">
        <ele>41.3</ele>
        <time>2021-05-17T12:05:00Z</time>
      </trkpt>
      <trkpt lat="41.6152240" lon="-8.7883720">
        <ele>41.5</ele>
        <time>2021-05-17T12:05:01Z</time>
      </trkpt>
      <trkpt lat="41.6152330" lon="-8.7883740">
        <ele>41.6</ele>
        <time>2021-05-17T12:05:02Z</time>
      </trkpt>
      <trkpt lat="41.6152410" lon="-8.7883760">
        <ele>41.7</ele>
        <time>2021-05-17T12:05:03Z</time>
      </trkpt>
      <trkpt lat="41.6152460" lon="-8.7883820">
        <ele>41.7</ele>
        <time>2021-05-17T12:05:04Z</time>
      </trkpt>
      <trkpt lat="41.6152580" lon="-8.7883830">
        <ele>41.9</ele>
        <time>2021-05-17T12:05:05Z</time>
      </trkpt>
      <trkpt lat="41.6152720" lon="-8.7883760">
        <ele>42.0</ele>
        <time>2021-05-17T12:05:06Z</time>
      </trkpt>
      <trkpt lat="41.6152860" lon="-8.7883790">
        <ele>42.1</ele>
        <time>2021-05-17T12:05:07Z</time>
      </trkpt>
      <trkpt lat="41.6152990" lon="-8.7883740">
        <ele>42.3</ele>
        <time>2021-05-17T12:05:08Z</time>
      </trkpt>
      <trkpt lat="41.6153070" lon="-8.7883710">
        <ele>42.4</ele>
        <time>2021-05-17T12:05:09Z</time>
      </trkpt>
      <trkpt lat="41.6153220" lon="-8.7883650">
        <ele>42.5</ele>
        <time>2021-05-17T12:05:10Z</time>
      </trkpt>
      <trkpt lat="41.6153330" lon="-8.7883670">
        <ele>42.6</ele>
        <time>2021-05-17T12:05:11Z</time>
      </trkpt>
      <trkpt lat="41.6153420" lon="-8.7883620">
        <ele>42.7</ele>
        <time>2021-05-17T12:05:12Z</time>
      </trkpt>
      <trkpt lat="41.6153540" lon="-8.7883560">
        <ele>42.9</ele>
        <time>2021-05-17T12:05:13Z</time>
      </trkpt>
      <trkpt lat="41.6153700" lon="-8.7883560">
        <ele>43.0</ele>
        <time>2021-05-17T12:05:14Z</time>
      </trkpt>
      <trkpt lat="41.6153800" lon="-8.7883510">
        <ele>43.2</ele>
        <time>2021-05-17T12:05:15Z</time>
      </trkpt>
      <trkpt lat="41.6153900" lon="-8.7883420">
        <ele>43.3</ele>
        <time>2021-05-17T12:05:16Z</time>
      </trkpt>
      <trkpt lat="41.6154000" lon="-8.7883440">
        <ele>43.4</ele>
        <time>2021-05-17T12:05:17Z</time>
      </trkpt>
      <trkpt lat="41.6154160" lon="-8.7883390">
        <ele>43.6</ele>
        <time>2021-05-17T12:05:18Z</time>
      </trkpt>
      <trkpt lat="41.6154300" lon="-8.7883320">
        <ele>43.8</ele>
        <time>2021-05-17T12:05:19Z</time>
      </trkpt>
      <trkpt lat="41.6154570" lon="-8.7883280">
        <ele>44.1</ele>
        <time>2021-05-17T12:05:20Z</time>
      </trkpt>
      <trkpt lat="41.6154670" lon="-8.7883270">
        <ele>44.2</ele>
        <time>2021-05-17T12:05:21Z</time>
      </trkpt>
      <trkpt lat="41.6154800" lon="-8.7883290">
        <ele>44.4</ele>
        <time>2021-05-17T12:05:22Z</time>
      </trkpt>
      <trkpt lat="41.6154960" lon="-8.7883270">
        <ele>44.5</ele>
        <time>2021-05-17T12:05:23Z</time>
      </trkpt>
      <trkpt lat="41.6155180" lon="-8.7883100">
        <ele>44.9</ele>
        <time>2021-05-17T12:05:24Z</time>
      </trkpt>
      <trkpt lat="41.6155240" lon="-8.7883070">
        <ele>44.9</ele>
        <time>2021-05-17T12:05:25Z</time>
      </trkpt>
      <trkpt lat="41.6155310" lon="-8.7883040">
        <ele>45.0</ele>
        <time>2021-05-17T12:05:26Z</time>
      </trkpt>
      <trkpt lat="41.6155450" lon="-8.7883060">
        <ele>45.2</ele>
        <time>2021-05-17T12:05:27Z</time>
      </trkpt>
      <trkpt lat="41.6155620" lon="-8.7883010">
        <ele>45.4</ele>
        <time>2021-05-17T12:05:28Z</time>
      </trkpt>
      <trkpt lat="41.6155710" lon="-8.7883060">
        <ele>45.5</ele>
        <time>2021-05-17T12:05:29Z</time>
      </trkpt>
      <trkpt lat="41.6155820" lon="-8.7883000">
        <ele>45.7</ele>
        <time>2021-05-17T12:05:30Z</time>
      </trkpt>
      <trkpt lat="41.6155960" lon="-8.7883090">
        <ele>45.8</ele>
        <time>2021-05-17T12:05:31Z</time>
      </trkpt>
      <trkpt lat="41.6156030" lon="-8.7883050">
        <ele>45.9</ele>
        <time>2021-05-17T12:05:32Z</time>
      </trkpt>
      <trkpt lat="41.6156100" lon="-8.7883140">
        <ele>46.0</ele>
        <time>2021-05-17T12:05:33Z</time>
      </trkpt>
      <trkpt lat="41.6156240" lon="-8.7883150">
        <ele>46.2</ele>
        <time>2021-05-17T12:05:34Z</time>
      </trkpt>
      <trkpt lat="41.6156350" lon="-8.7883200">
        <ele>46.3</ele>
        <time>2021-05-17T12:05:35Z</time>
      </trkpt>
      <trkpt lat="41.6156440" lon="-8.7883250">
        <ele>46.4</ele>
        <time>2021-05-17T12:05:36Z</time>
      </trkpt>
      <trkpt lat="41.6156560" lon="-8.7883340">
        <ele>46.6</ele>
        <time>2021-05-17T12:05:37Z</time>
      </trkpt>
      <trkpt lat="41.6156660" lon="-8.7883400">
        <ele>46.7</ele>
        <time>2021-05-17T12:05:38Z</time>
      </trkpt>
      <trkpt lat="41.6156740" lon="-8.7883380">
        <ele>46.8</ele>
        <time>2021-05-17T12:05:39Z</time>
      </trkpt>
      <trkpt lat="41.6156880" lon="-8.7883460">
        <ele>47.0</ele>
        <time>2021-05-17T12:05:40Z</time>
      </trkpt>
      <trkpt lat="41.6156970" lon="-8.7883560">
        <ele>47.1</ele>
        <time>2021-05-17T12:05:41Z</time>
      </trkpt>
      <trkpt lat="41.6157060" lon="-8.7883610">
        <ele>47.2</ele>
        <time>2021-05-17T12:05:42Z</time>
      </trkpt>
      <trkpt lat="41.6157160" lon="-8.7883550">
        <ele>47.3</ele>
        <time>2021-05-17T12:05:43Z</time>
      </trkpt>
      <trkpt lat="41.6157340" lon="-8.7883550">
        <ele>47.5</ele>
        <time>2021-05-17T12:05:44Z</time>
      </trkpt>
      <trkpt lat="41.6157450" lon="-8.7883450">
        <ele>47.6</ele>
        <time>2021-05-17T12:05:45Z</time>
      </trkpt>
      <trkpt lat="41.6157600" lon="-8.7883430">
        <ele>47.8</ele>
        <time>2021-05-17T12:05:46Z</time>
      </trkpt>
      <trkpt lat="41.6157750" lon="-8.7883480">
        <ele>48.0</ele>
        <time>2021-05-17T12:05:47Z</time>
      </trkpt>
      <trkpt lat="41.6157920" lon="-8.7883530">
        <ele>48.1</ele>
        <time>2021-05-17T12:05:48Z</time>
      </trkpt>
      <trkpt lat="41.6158030" lon="-8.7883570">
        <ele>48.3</ele>
        <time>2021-05-17T12:05:49Z</time>
      </trkpt>
      <trkpt lat="41.6158130" lon="-8.7883610">
        <ele>48.4</ele>
        <time>2021-05-17T12:05:50Z</time>
      </trkpt>
      <trkpt lat="41.6158220" lon="-8.7883700">
        <ele>48.5</ele>
        <time>2021-05-17T12:05:51Z</time>
      </trkpt>
      <trkpt lat="41.6158290" lon="-8.7883720">
        <ele>48.5</ele>
        <time>2021-05-17T12:05:52Z</time>
      </trkpt>
      <trkpt lat="41.6158470" lon="-8.7883650">
        <ele>48.7</ele>
        <time>2021-05-17T12:05:53Z</time>
      </trkpt>
      <trkpt lat="41.6158590" lon="-8.7883710">
        <ele>48.8</ele>
        <time>2021-05-17T12:05:54Z</time>
      </trkpt>
      <trkpt lat="41.6158680" lon="-8.7883730">
        <ele>48.9</ele>
        <time>2021-05-17T12:05:55Z</time>
      </trkpt>
      <trkpt lat="41.6158730" lon="-8.7883800">
        <ele>49.0</ele>
        <time>2021-05-17T12:05:56Z</time>
      </trkpt>
      <trkpt lat="41.6158760" lon="-8.7883800">
        <ele>49.0</ele>
        <time>2021-05-17T12:05:57Z</time>
      </trkpt>
      <trkpt lat="41.6158780" lon="-8.7883780">
        <ele>49.0</ele>
        <time>2021-05-17T12:05:58Z</time>
      </trkpt>
      <trkpt lat="41.6158740" lon="-8.7883790">
        <ele>49.1</ele>
        <time>2021-05-17T12:05:59Z</time>
      </trkpt>
      <trkpt lat="41.6158730" lon="-8.7883830">
        <ele>49.1</ele>
        <time>2021-05-17T12:06:00Z</time>
      </trkpt>
      <trkpt lat="41.6158720" lon="-8.7883820">
        <ele>49.1</ele>
        <time>2021-05-17T12:06:01Z</time>
      </trkpt>
      <trkpt lat="41.6158680" lon="-8.7883840">
        <ele>49.2</ele>
        <time>2021-05-17T12:06:02Z</time>
      </trkpt>
      <trkpt lat="41.6158650" lon="-8.7883840">
        <ele>49.2</ele>
        <time>2021-05-17T12:06:03Z</time>
      </trkpt>
      <trkpt lat="41.6158670" lon="-8.7883840">
        <ele>49.2</ele>
        <time>2021-05-17T12:06:04Z</time>
      </trkpt>
      <trkpt lat="41.6158790" lon="-8.7883810">
        <ele>49.3</ele>
        <time>2021-05-17T12:06:05Z</time>
      </trkpt>
      <trkpt lat="41.6158820" lon="-8.7883820">
        <ele>49.4</ele>
        <time>2021-05-17T12:06:06Z</time>
      </trkpt>
      <trkpt lat="41.6158840" lon="-8.7883840">
        <ele>49.4</ele>
        <time>2021-05-17T12:06:07Z</time>
      </trkpt>
      <trkpt lat="41.6158860" lon="-8.7883850">
        <ele>49.4</ele>
        <time>2021-05-17T12:06:08Z</time>
      </trkpt>
      <trkpt lat="41.6158910" lon="-8.7883800">
        <ele>49.5</ele>
        <time>2021-05-17T12:06:09Z</time>
      </trkpt>
      <trkpt lat="41.6158920" lon="-8.7883810">
        <ele>49.5</ele>
        <time>2021-05-17T12:06:10Z</time>
      </trkpt>
      <trkpt lat="41.6158940" lon="-8.7883820">
        <ele>49.5</ele>
        <time>2021-05-17T12:06:11Z</time>
      </trkpt>
      <trkpt lat="41.6158960" lon="-8.7883830">
        <ele>49.5</ele>
        <time>2021-05-17T12:06:12Z</time>
      </trkpt>
      <trkpt lat="41.6158980" lon="-8.7883850">
        <ele>49.5</ele>
        <time>2021-05-17T12:06:13Z</time>
      </trkpt>
      <trkpt lat="41.6158990" lon="-8.7883860">
        <ele>49.6</ele>
        <time>2021-05-17T12:06:14Z</time>
      </trkpt>
      <trkpt lat="41.6159010" lon="-8.7883870">
        <ele>49.6</ele>
        <time>2021-05-17T12:06:15Z</time>
      </trkpt>
      <trkpt lat="41.6159030" lon="-8.7883880">
        <ele>49.6</ele>
        <time>2021-05-17T12:06:16Z</time>
      </trkpt>
      <trkpt lat="41.6159050" lon="-8.7883890">
        <ele>49.6</ele>
        <time>2021-05-17T12:06:17Z</time>
      </trkpt>
      <trkpt lat="41.6159060" lon="-8.7883900">
        <ele>49.6</ele>
        <time>2021-05-17T12:06:18Z</time>
      </trkpt>
      <trkpt lat="41.6159080" lon="-8.7883910">
        <ele>49.6</ele>
        <time>2021-05-17T12:06:19Z</time>
      </trkpt>
      <trkpt lat="41.6159100" lon="-8.7883920">
        <ele>49.7</ele>
        <time>2021-05-17T12:06:20Z</time>
      </trkpt>
      <trkpt lat="41.6159120" lon="-8.7883930">
        <ele>49.7</ele>
        <time>2021-05-17T12:06:21Z</time>
      </trkpt>
      <trkpt lat="41.6159130" lon="-8.7883940">
        <ele>49.7</ele>
        <time>2021-05-17T12:06:22Z</time>
      </trkpt>
      <trkpt lat="41.6159150" lon="-8.7883960">
        <ele>49.7</ele>
        <time>2021-05-17T12:06:23Z</time>
      </trkpt>
      <trkpt lat="41.6159170" lon="-8.7883970">
        <ele>49.7</ele>
        <time>2021-05-17T12:06:24Z</time>
      </trkpt>
      <trkpt lat="41.6159190" lon="-8.7883980">
        <ele>49.8</ele>
        <time>2021-05-17T12:06:25Z</time>
      </trkpt>
      <trkpt lat="41.6159200" lon="-8.7883990">
        <ele>49.8</ele>
        <time>2021-05-17T12:06:26Z</time>
      </trkpt>
      <trkpt lat="41.6159220" lon="-8.7884000">
        <ele>49.8</ele>
        <time>2021-05-17T12:06:27Z</time>
      </trkpt>
      <trkpt lat="41.6159280" lon="-8.7884000">
        <ele>49.8</ele>
        <time>2021-05-17T12:06:28Z</time>
      </trkpt>
      <trkpt lat="41.6159360" lon="-8.7884020">
        <ele>49.9</ele>
        <time>2021-05-17T12:06:29Z</time>
      </trkpt>
      <trkpt lat="41.6159480" lon="-8.7884090">
        <ele>50.0</ele>
        <time>2021-05-17T12:06:30Z</time>
      </trkpt>
      <trkpt lat="41.6159520" lon="-8.7884100">
        <ele>50.0</ele>
        <time>2021-05-17T12:06:31Z</time>
      </trkpt>
      <trkpt lat="41.6159610" lon="-8.7884120">
        <ele>50.1</ele>
        <time>2021-05-17T12:06:32Z</time>
      </trkpt>
      <trkpt lat="41.6159690" lon="-8.7884130">
        <ele>50.2</ele>
        <time>2021-05-17T12:06:33Z</time>
      </trkpt>
      <trkpt lat="41.6159840" lon="-8.7884170">
        <ele>50.3</ele>
        <time>2021-05-17T12:06:34Z</time>
      </trkpt>
      <trkpt lat="41.6160010" lon="-8.7884190">
        <ele>50.5</ele>
        <time>2021-05-17T12:06:35Z</time>
      </trkpt>
      <trkpt lat="41.6160140" lon="-8.7884220">
        <ele>50.6</ele>
        <time>2021-05-17T12:06:36Z</time>
      </trkpt>
      <trkpt lat="41.6160240" lon="-8.7884240">
        <ele>50.7</ele>
        <time>2021-05-17T12:06:37Z</time>
      </trkpt>
      <trkpt lat="41.6160380" lon="-8.7884230">
        <ele>50.8</ele>
        <time>2021-05-17T12:06:38Z</time>
      </trkpt>
      <trkpt lat="41.6160490" lon="-8.7884280">
        <ele>50.8</ele>
        <time>2021-05-17T12:06:39Z</time>
      </trkpt>
      <trkpt lat="41.6160700" lon="-8.7884410">
        <ele>51.0</ele>
        <time>2021-05-17T12:06:40Z</time>
      </trkpt>
      <trkpt lat="41.6160690" lon="-8.7884380">
        <ele>51.0</ele>
        <time>2021-05-17T12:06:41Z</time>
      </trkpt>
      <trkpt lat="41.6160710" lon="-8.7884300">
        <ele>51.1</ele>
        <time>2021-05-17T12:06:42Z</time>
      </trkpt>
      <trkpt lat="41.6160800" lon="-8.7884260">
        <ele>51.1</ele>
        <time>2021-05-17T12:06:43Z</time>
      </trkpt>
      <trkpt lat="41.6161020" lon="-8.7884300">
        <ele>51.3</ele>
        <time>2021-05-17T12:06:44Z</time>
      </trkpt>
      <trkpt lat="41.6161090" lon="-8.7884340">
        <ele>51.4</ele>
        <time>2021-05-17T12:06:45Z</time>
      </trkpt>
      <trkpt lat="41.6161160" lon="-8.7884390">
        <ele>51.4</ele>
        <time>2021-05-17T12:06:46Z</time>
      </trkpt>
      <trkpt lat="41.6161270" lon="-8.7884450">
        <ele>51.5</ele>
        <time>2021-05-17T12:06:47Z</time>
      </trkpt>
      <trkpt lat="41.6161410" lon="-8.7884580">
        <ele>51.6</ele>
        <time>2021-05-17T12:06:48Z</time>
      </trkpt>
      <trkpt lat="41.6161610" lon="-8.7884730">
        <ele>51.7</ele>
        <time>2021-05-17T12:06:49Z</time>
      </trkpt>
      <trkpt lat="41.6161710" lon="-8.7884810">
        <ele>51.8</ele>
        <time>2021-05-17T12:06:50Z</time>
      </trkpt>
      <trkpt lat="41.6161800" lon="-8.7884900">
        <ele>51.9</ele>
        <time>2021-05-17T12:06:51Z</time>
      </trkpt>
      <trkpt lat="41.6161880" lon="-8.7884890">
        <ele>51.9</ele>
        <time>2021-05-17T12:06:52Z</time>
      </trkpt>
      <trkpt lat="41.6161960" lon="-8.7884960">
        <ele>52.0</ele>
        <time>2021-05-17T12:06:53Z</time>
      </trkpt>
      <trkpt lat="41.6162110" lon="-8.7885070">
        <ele>52.1</ele>
        <time>2021-05-17T12:06:54Z</time>
      </trkpt>
      <trkpt lat="41.6162280" lon="-8.7885110">
        <ele>52.2</ele>
        <time>2021-05-17T12:06:55Z</time>
      </trkpt>
      <trkpt lat="41.6162380" lon="-8.7885200">
        <ele>52.3</ele>
        <time>2021-05-17T12:06:56Z</time>
      </trkpt>
      <trkpt lat="41.6162570" lon="-8.7885270">
        <ele>52.4</ele>
        <time>2021-05-17T12:06:57Z</time>
      </trkpt>
      <trkpt lat="41.6162660" lon="-8.7885310">
        <ele>52.5</ele>
        <time>2021-05-17T12:06:58Z</time>
      </trkpt>
      <trkpt lat="41.6162910" lon="-8.7885440">
        <ele>52.6</ele>
        <time>2021-05-17T12:06:59Z</time>
      </trkpt>
      <trkpt lat="41.6163030" lon="-8.7885490">
        <ele>52.7</ele>
        <time>2021-05-17T12:07:00Z</time>
      </trkpt>
      <trkpt lat="41.6163170" lon="-8.7885510">
        <ele>52.8</ele>
        <time>2021-05-17T12:07:01Z</time>
      </trkpt>
      <trkpt lat="41.6163300" lon="-8.7885580">
        <ele>52.8</ele>
        <time>2021-05-17T12:07:02Z</time>
      </trkpt>
      <trkpt lat="41.6163460" lon="-8.7885560">
        <ele>52.9</ele>
        <time>2021-05-17T12:07:03Z</time>
      </trkpt>
      <trkpt lat="41.6163610" lon="-8.7885650">
        <ele>53.0</ele>
        <time>2021-05-17T12:07:04Z</time>
      </trkpt>
      <trkpt lat="41.6163740" lon="-8.7885710">
        <ele>53.1</ele>
        <time>2021-05-17T12:07:05Z</time>
      </trkpt>
      <trkpt lat="41.6163880" lon="-8.7885750">
        <ele>53.1</ele>
        <time>2021-05-17T12:07:06Z</time>
      </trkpt>
      <trkpt lat="41.6164010" lon="-8.7885800">
        <ele>53.2</ele>
        <time>2021-05-17T12:07:07Z</time>
      </trkpt>
      <trkpt lat="41.6164150" lon="-8.7885890">
        <ele>53.3</ele>
        <time>2021-05-17T12:07:08Z</time>
      </trkpt>
      <trkpt lat="41.6164310" lon="-8.7885930">
        <ele>53.4</ele>
        <time>2021-05-17T12:07:09Z</time>
      </trkpt>
      <trkpt lat="41.6164420" lon="-8.7886030">
        <ele>53.4</ele>
        <time>2021-05-17T12:07:10Z</time>
      </trkpt>
      <trkpt lat="41.6164570" lon="-8.7886030">
        <ele>53.5</ele>
        <time>2021-05-17T12:07:11Z</time>
      </trkpt>
      <trkpt lat="41.6164700" lon="-8.7886070">
        <ele>53.5</ele>
        <time>2021-05-17T12:07:12Z</time>
      </trkpt>
      <trkpt lat="41.6164810" lon="-8.7886120">
        <ele>53.5</ele>
        <time>2021-05-17T12:07:13Z</time>
      </trkpt>
      <trkpt lat="41.6164910" lon="-8.7886210">
        <ele>53.6</ele>
        <time>2021-05-17T12:07:14Z</time>
      </trkpt>
      <trkpt lat="41.6164990" lon="-8.7886280">
        <ele>53.6</ele>
        <time>2021-05-17T12:07:15Z</time>
      </trkpt>
      <trkpt lat="41.6165090" lon="-8.7886400">
        <ele>53.6</ele>
        <time>2021-05-17T12:07:16Z</time>
      </trkpt>
      <trkpt lat="41.6165170" lon="-8.7886470">
        <ele>53.7</ele>
        <time>2021-05-17T12:07:17Z</time>
      </trkpt>
      <trkpt lat="41.6165240" lon="-8.7886550">
        <ele>53.7</ele>
        <time>2021-05-17T12:07:18Z</time>
      </trkpt>
      <trkpt lat="41.6165310" lon="-8.7886630">
        <ele>53.7</ele>
        <time>2021-05-17T12:07:19Z</time>
      </trkpt>
      <trkpt lat="41.6165360" lon="-8.7886760">
        <ele>53.8</ele>
        <time>2021-05-17T12:07:20Z</time>
      </trkpt>
      <trkpt lat="41.6165460" lon="-8.7886840">
        <ele>53.8</ele>
        <time>2021-05-17T12:07:21Z</time>
      </trkpt>
      <trkpt lat="41.6165540" lon="-8.7887000">
        <ele>53.8</ele>
        <time>2021-05-17T12:07:22Z</time>
      </trkpt>
      <trkpt lat="41.6165650" lon="-8.7887130">
        <ele>53.9</ele>
        <time>2021-05-17T12:07:23Z</time>
      </trkpt>
      <trkpt lat="41.6165750" lon="-8.7887230">
        <ele>53.9</ele>
        <time>2021-05-17T12:07:24Z</time>
      </trkpt>
      <trkpt lat="41.6165850" lon="-8.7887260">
        <ele>53.9</ele>
        <time>2021-05-17T12:07:25Z</time>
      </trkpt>
      <trkpt lat="41.6165970" lon="-8.7887340">
        <ele>54.0</ele>
        <time>2021-05-17T12:07:26Z</time>
      </trkpt>
      <trkpt lat="41.6166060" lon="-8.7887380">
        <ele>54.0</ele>
        <time>2021-05-17T12:07:27Z</time>
      </trkpt>
      <trkpt lat="41.6166200" lon="-8.7887530">
        <ele>54.1</ele>
        <time>2021-05-17T12:07:28Z</time>
      </trkpt>
      <trkpt lat="41.6166270" lon="-8.7887620">
        <ele>54.1</ele>
        <time>2021-05-17T12:07:29Z</time>
      </trkpt>
      <trkpt lat="41.6166470" lon="-8.7887740">
        <ele>54.2</ele>
        <time>2021-05-17T12:07:30Z</time>
      </trkpt>
      <trkpt lat="41.6166550" lon="-8.7887800">
        <ele>54.2</ele>
        <time>2021-05-17T12:07:31Z</time>
      </trkpt>
      <trkpt lat="41.6166640" lon="-8.7887860">
        <ele>54.2</ele>
        <time>2021-05-17T12:07:32Z</time>
      </trkpt>
      <trkpt lat="41.6166750" lon="-8.7887900">
        <ele>54.2</ele>
        <time>2021-05-17T12:07:33Z</time>
      </trkpt>
      <trkpt lat="41.6166900" lon="-8.7887980">
        <ele>54.3</ele>
        <time>2021-05-17T12:07:34Z</time>
      </trkpt>
      <trkpt lat="41.6167080" lon="-8.7888120">
        <ele>54.3</ele>
        <time>2021-05-17T12:07:35Z</time>
      </trkpt>
      <trkpt lat="41.6167160" lon="-8.7888190">
        <ele>54.4</ele>
        <time>2021-05-17T12:07:36Z</time>
      </trkpt>
      <trkpt lat="41.6167250" lon="-8.7888250">
        <ele>54.4</ele>
        <time>2021-05-17T12:07:37Z</time>
      </trkpt>
      <trkpt lat="41.6167390" lon="-8.7888310">
        <ele>54.4</ele>
        <time>2021-05-17T12:07:38Z</time>
      </trkpt>
      <trkpt lat="41.6167510" lon="-8.7888370">
        <ele>54.5</ele>
        <time>2021-05-17T12:07:39Z</time>
      </trkpt>
      <trkpt lat="41.6167630" lon="-8.7888430">
        <ele>54.5</ele>
        <time>2021-05-17T12:07:40Z</time>
      </trkpt>
      <trkpt lat="41.6167730" lon="-8.7888510">
        <ele>54.6</ele>
        <time>2021-05-17T12:07:41Z</time>
      </trkpt>
      <trkpt lat="41.6167810" lon="-8.7888560">
        <ele>54.6</ele>
        <time>2021-05-17T12:07:42Z</time>
      </trkpt>
      <trkpt lat="41.6168030" lon="-8.7888610">
        <ele>54.7</ele>
        <time>2021-05-17T12:07:43Z</time>
      </trkpt>
      <trkpt lat="41.6168110" lon="-8.7888630">
        <ele>54.7</ele>
        <time>2021-05-17T12:07:44Z</time>
      </trkpt>
      <trkpt lat="41.6168180" lon="-8.7888650">
        <ele>54.7</ele>
        <time>2021-05-17T12:07:45Z</time>
      </trkpt>
      <trkpt lat="41.6168310" lon="-8.7888640">
        <ele>54.8</ele>
        <time>2021-05-17T12:07:46Z</time>
      </trkpt>
      <trkpt lat="41.6168510" lon="-8.7888660">
        <ele>54.9</ele>
        <time>2021-05-17T12:07:47Z</time>
      </trkpt>
      <trkpt lat="41.6168650" lon="-8.7888610">
        <ele>54.9</ele>
        <time>2021-05-17T12:07:48Z</time>
      </trkpt>
      <trkpt lat="41.6168810" lon="-8.7888600">
        <ele>55.0</ele>
        <time>2021-05-17T12:07:49Z</time>
      </trkpt>
      <trkpt lat="41.6168970" lon="-8.7888580">
        <ele>55.1</ele>
        <time>2021-05-17T12:07:50Z</time>
      </trkpt>
      <trkpt lat="41.6169130" lon="-8.7888570">
        <ele>55.2</ele>
        <time>2021-05-17T12:07:51Z</time>
      </trkpt>
      <trkpt lat="41.6169290" lon="-8.7888550">
        <ele>55.3</ele>
        <time>2021-05-17T12:07:52Z</time>
      </trkpt>
      <trkpt lat="41.6169430" lon="-8.7888440">
        <ele>55.5</ele>
        <time>2021-05-17T12:07:53Z</time>
      </trkpt>
      <trkpt lat="41.6169620" lon="-8.7888150">
        <ele>55.7</ele>
        <time>2021-05-17T12:07:54Z</time>
      </trkpt>
      <trkpt lat="41.6169670" lon="-8.7888060">
        <ele>55.7</ele>
        <time>2021-05-17T12:07:55Z</time>
      </trkpt>
      <trkpt lat="41.6169730" lon="-8.7887840">
        <ele>55.9</ele>
        <time>2021-05-17T12:07:56Z</time>
      </trkpt>
      <trkpt lat="41.6169840" lon="-8.7887650">
        <ele>56.0</ele>
        <time>2021-05-17T12:07:57Z</time>
      </trkpt>
      <trkpt lat="41.6169950" lon="-8.7887510">
        <ele>56.1</ele>
        <time>2021-05-17T12:07:58Z</time>
      </trkpt>
      <trkpt lat="41.6169990" lon="-8.7887260">
        <ele>56.3</ele>
        <time>2021-05-17T12:07:59Z</time>
      </trkpt>
      <trkpt lat="41.6170020" lon="-8.7887050">
        <ele>56.4</ele>
        <time>2021-05-17T12:08:00Z</time>
      </trkpt>
      <trkpt lat="41.6170120" lon="-8.7886870">
        <ele>56.5</ele>
        <time>2021-05-17T12:08:01Z</time>
      </trkpt>
      <trkpt lat="41.6170170" lon="-8.7886720">
        <ele>56.5</ele>
        <time>2021-05-17T12:08:02Z</time>
      </trkpt>
      <trkpt lat="41.6170210" lon="-8.7886620">
        <ele>56.6</ele>
        <time>2021-05-17T12:08:03Z</time>
      </trkpt>
      <trkpt lat="41.6170240" lon="-8.7886530">
        <ele>56.6</ele>
        <time>2021-05-17T12:08:04Z</time>
      </trkpt>
      <trkpt lat="41.6170290" lon="-8.7886320">
        <ele>56.7</ele>
        <time>2021-05-17T12:08:05Z</time>
      </trkpt>
      <trkpt lat="41.6170340" lon="-8.7886140">
        <ele>56.8</ele>
        <time>2021-05-17T12:08:06Z</time>
      </trkpt>
      <trkpt lat="41.6170470" lon="-8.7885910">
        <ele>56.9</ele>
        <time>2021-05-17T12:08:07Z</time>
      </trkpt>
      <trkpt lat="41.6170500" lon="-8.7885820">
        <ele>57.0</ele>
        <time>2021-05-17T12:08:08Z</time>
      </trkpt>
      <trkpt lat="41.6170520" lon="-8.7885720">
        <ele>57.0</ele>
        <time>2021-05-17T12:08:09Z</time>
      </trkpt>
      <trkpt lat="41.6170610" lon="-8.7885530">
        <ele>57.1</ele>
        <time>2021-05-17T12:08:10Z</time>
      </trkpt>
      <trkpt lat="41.6170650" lon="-8.7885320">
        <ele>57.2</ele>
        <time>2021-05-17T12:08:11Z</time>
      </trkpt>
      <trkpt lat="41.6170790" lon="-8.7885180">
        <ele>57.3</ele>
        <time>2021-05-17T12:08:12Z</time>
      </trkpt>
      <trkpt lat="41.6170870" lon="-8.7885040">
        <ele>57.3</ele>
        <time>2021-05-17T12:08:13Z</time>
      </trkpt>
      <trkpt lat="41.6170890" lon="-8.7884900">
        <ele>57.4</ele>
        <time>2021-05-17T12:08:14Z</time>
      </trkpt>
      <trkpt lat="41.6170910" lon="-8.7884750">
        <ele>57.4</ele>
        <time>2021-05-17T12:08:15Z</time>
      </trkpt>
      <trkpt lat="41.6170960" lon="-8.7884620">
        <ele>57.5</ele>
        <time>2021-05-17T12:08:16Z</time>
      </trkpt>
      <trkpt lat="41.6171010" lon="-8.7884470">
        <ele>57.5</ele>
        <time>2021-05-17T12:08:17Z</time>
      </trkpt>
      <trkpt lat="41.6171090" lon="-8.7884290">
        <ele>57.6</ele>
        <time>2021-05-17T12:08:18Z</time>
      </trkpt>
      <trkpt lat="41.6171190" lon="-8.7884100">
        <ele>57.7</ele>
        <time>2021-05-17T12:08:19Z</time>
      </trkpt>
      <trkpt lat="41.6171270" lon="-8.7883970">
        <ele>57.7</ele>
        <time>2021-05-17T12:08:20Z</time>
      </trkpt>
      <trkpt lat="41.6171350" lon="-8.7883820">
        <ele>57.8</ele>
        <time>2021-05-17T12:08:21Z</time>
      </trkpt>
      <trkpt lat="41.6171430" lon="-8.7883690">
        <ele>57.8</ele>
        <time>2021-05-17T12:08:22Z</time>
      </trkpt>
      <trkpt lat="41.6171480" lon="-8.7883590">
        <ele>57.8</ele>
        <time>2021-05-17T12:08:23Z</time>
      </trkpt>
      <trkpt lat="41.6171600" lon="-8.7883450">
        <ele>57.9</ele>
        <time>2021-05-17T12:08:24Z</time>
      </trkpt>
      <trkpt lat="41.6171690" lon="-8.7883300">
        <ele>57.9</ele>
        <time>2021-05-17T12:08:25Z</time>
      </trkpt>
      <trkpt lat="41.6171750" lon="-8.7883230">
        <ele>57.9</ele>
        <time>2021-05-17T12:08:26Z</time>
      </trkpt>
      <trkpt lat="41.6171840" lon="-8.7883100">
        <ele>58.0</ele>
        <time>2021-05-17T12:08:27Z</time>
      </trkpt>
      <trkpt lat="41.6171880" lon="-8.7883000">
        <ele>58.0</ele>
        <time>2021-05-17T12:08:28Z</time>
      </trkpt>
      <trkpt lat="41.6172050" lon="-8.7882790">
        <ele>58.1</ele>
        <time>2021-05-17T12:08:29Z</time>
      </trkpt>
      <trkpt lat="41.6172100" lon="-8.7882650">
        <ele>58.1</ele>
        <time>2021-05-17T12:08:30Z</time>
      </trkpt>
      <trkpt lat="41.6172220" lon="-8.7882510">
        <ele>58.1</ele>
        <time>2021-05-17T12:08:31Z</time>
      </trkpt>
      <trkpt lat="41.6172370" lon="-8.7882420">
        <ele>58.1</ele>
        <time>2021-05-17T12:08:32Z</time>
      </trkpt>
      <trkpt lat="41.6172400" lon="-8.7882380">
        <ele>58.1</ele>
        <time>2021-05-17T12:08:33Z</time>
      </trkpt>
      <trkpt lat="41.6172470" lon="-8.7882270">
        <ele>58.2</ele>
        <time>2021-05-17T12:08:34Z</time>
      </trkpt>
      <trkpt lat="41.6172550" lon="-8.7882220">
        <ele>58.2</ele>
        <time>2021-05-17T12:08:35Z</time>
      </trkpt>
      <trkpt lat="41.6172650" lon="-8.7882120">
        <ele>58.2</ele>
        <time>2021-05-17T12:08:36Z</time>
      </trkpt>
      <trkpt lat="41.6172800" lon="-8.7881980">
        <ele>58.2</ele>
        <time>2021-05-17T12:08:37Z</time>
      </trkpt>
      <trkpt lat="41.6172870" lon="-8.7881900">
        <ele>58.2</ele>
        <time>2021-05-17T12:08:38Z</time>
      </trkpt>
      <trkpt lat="41.6172940" lon="-8.7881820">
        <ele>58.2</ele>
        <time>2021-05-17T12:08:39Z</time>
      </trkpt>
      <trkpt lat="41.6173040" lon="-8.7881750">
        <ele>58.2</ele>
        <time>2021-05-17T12:08:40Z</time>
      </trkpt>
      <trkpt lat="41.6173160" lon="-8.7881710">
        <ele>58.2</ele>
        <time>2021-05-17T12:08:41Z</time>
      </trkpt>
      <trkpt lat="41.6173210" lon="-8.7881680">
        <ele>58.2</ele>
        <time>2021-05-17T12:08:42Z</time>
      </trkpt>
      <trkpt lat="41.6173320" lon="-8.7881640">
        <ele>58.2</ele>
        <time>2021-05-17T12:08:43Z</time>
      </trkpt>
      <trkpt lat="41.6173370" lon="-8.7881600">
        <ele>58.2</ele>
        <time>2021-05-17T12:08:44Z</time>
      </trkpt>
      <trkpt lat="41.6173520" lon="-8.7881480">
        <ele>58.2</ele>
        <time>2021-05-17T12:08:45Z</time>
      </trkpt>
      <trkpt lat="41.6173650" lon="-8.7881360">
        <ele>58.2</ele>
        <time>2021-05-17T12:08:46Z</time>
      </trkpt>
      <trkpt lat="41.6173780" lon="-8.7881350">
        <ele>58.2</ele>
        <time>2021-05-17T12:08:47Z</time>
      </trkpt>
      <trkpt lat="41.6173930" lon="-8.7881300">
        <ele>58.2</ele>
        <time>2021-05-17T12:08:48Z</time>
      </trkpt>
      <trkpt lat="41.6174070" lon="-8.7881230">
        <ele>58.1</ele>
        <time>2021-05-17T12:08:49Z</time>
      </trkpt>
      <trkpt lat="41.6174200" lon="-8.7881110">
        <ele>58.1</ele>
        <time>2021-05-17T12:08:50Z</time>
      </trkpt>
      <trkpt lat="41.6174350" lon="-8.7881020">
        <ele>58.1</ele>
        <time>2021-05-17T12:08:51Z</time>
      </trkpt>
      <trkpt lat="41.6174480" lon="-8.7880930">
        <ele>58.1</ele>
        <time>2021-05-17T12:08:52Z</time>
      </trkpt>
      <trkpt lat="41.6174610" lon="-8.7880880">
        <ele>58.0</ele>
        <time>2021-05-17T12:08:53Z</time>
      </trkpt>
      <trkpt lat="41.6174740" lon="-8.7880890">
        <ele>58.0</ele>
        <time>2021-05-17T12:08:54Z</time>
      </trkpt>
      <trkpt lat="41.6174930" lon="-8.7880870">
        <ele>58.0</ele>
        <time>2021-05-17T12:08:55Z</time>
      </trkpt>
      <trkpt lat="41.6175060" lon="-8.7880870">
        <ele>57.9</ele>
        <time>2021-05-17T12:08:56Z</time>
      </trkpt>
      <trkpt lat="41.6175190" lon="-8.7880760">
        <ele>57.9</ele>
        <time>2021-05-17T12:08:57Z</time>
      </trkpt>
      <trkpt lat="41.6175330" lon="-8.7880710">
        <ele>57.8</ele>
        <time>2021-05-17T12:08:58Z</time>
      </trkpt>
      <trkpt lat="41.6175460" lon="-8.7880610">
        <ele>57.8</ele>
        <time>2021-05-17T12:08:59Z</time>
      </trkpt>
      <trkpt lat="41.6175610" lon="-8.7880530">
        <ele>57.8</ele>
        <time>2021-05-17T12:09:00Z</time>
      </trkpt>
      <trkpt lat="41.6175750" lon="-8.7880520">
        <ele>57.7</ele>
        <time>2021-05-17T12:09:01Z</time>
      </trkpt>
      <trkpt lat="41.6175880" lon="-8.7880460">
        <ele>57.7</ele>
        <time>2021-05-17T12:09:02Z</time>
      </trkpt>
      <trkpt lat="41.6176030" lon="-8.7880320">
        <ele>57.6</ele>
        <time>2021-05-17T12:09:03Z</time>
      </trkpt>
      <trkpt lat="41.6176150" lon="-8.7880180">
        <ele>57.6</ele>
        <time>2021-05-17T12:09:04Z</time>
      </trkpt>
      <trkpt lat="41.6176320" lon="-8.7880150">
        <ele>57.5</ele>
        <time>2021-05-17T12:09:05Z</time>
      </trkpt>
      <trkpt lat="41.6176460" lon="-8.7880060">
        <ele>57.5</ele>
        <time>2021-05-17T12:09:06Z</time>
      </trkpt>
      <trkpt lat="41.6176600" lon="-8.7879900">
        <ele>57.4</ele>
        <time>2021-05-17T12:09:07Z</time>
      </trkpt>
      <trkpt lat="41.6176730" lon="-8.7879870">
        <ele>57.4</ele>
        <time>2021-05-17T12:09:08Z</time>
      </trkpt>
      <trkpt lat="41.6176870" lon="-8.7879760">
        <ele>57.3</ele>
        <time>2021-05-17T12:09:09Z</time>
      </trkpt>
      <trkpt lat="41.6177010" lon="-8.7879660">
        <ele>57.2</ele>
        <time>2021-05-17T12:09:10Z</time>
      </trkpt>
      <trkpt lat="41.6177130" lon="-8.7879580">
        <ele>57.2</ele>
        <time>2021-05-17T12:09:11Z</time>
      </trkpt>
      <trkpt lat="41.6177260" lon="-8.7879540">
        <ele>57.1</ele>
        <time>2021-05-17T12:09:12Z</time>
      </trkpt>
      <trkpt lat="41.6177390" lon="-8.7879400">
        <ele>57.1</ele>
        <time>2021-05-17T12:09:13Z</time>
      </trkpt>
      <trkpt lat="41.6177520" lon="-8.7879290">
        <ele>57.0</ele>
        <time>2021-05-17T12:09:14Z</time>
      </trkpt>
      <trkpt lat="41.6177650" lon="-8.7879240">
        <ele>57.0</ele>
        <time>2021-05-17T12:09:15Z</time>
      </trkpt>
      <trkpt lat="41.6177800" lon="-8.7879270">
        <ele>56.9</ele>
        <time>2021-05-17T12:09:16Z</time>
      </trkpt>
      <trkpt lat="41.6177940" lon="-8.7879160">
        <ele>56.8</ele>
        <time>2021-05-17T12:09:17Z</time>
      </trkpt>
      <trkpt lat="41.6178070" lon="-8.7879090">
        <ele>56.8</ele>
        <time>2021-05-17T12:09:18Z</time>
      </trkpt>
      <trkpt lat="41.6178220" lon="-8.7879090">
        <ele>56.7</ele>
        <time>2021-05-17T12:09:19Z</time>
      </trkpt>
      <trkpt lat="41.6178440" lon="-8.7879040">
        <ele>56.6</ele>
        <time>2021-05-17T12:09:20Z</time>
      </trkpt>
      <trkpt lat="41.6178530" lon="-8.7879000">
        <ele>56.6</ele>
        <time>2021-05-17T12:09:21Z</time>
      </trkpt>
      <trkpt lat="41.6178620" lon="-8.7878970">
        <ele>56.5</ele>
        <time>2021-05-17T12:09:22Z</time>
      </trkpt>
      <trkpt lat="41.6178760" lon="-8.7878940">
        <ele>56.5</ele>
        <time>2021-05-17T12:09:23Z</time>
      </trkpt>
      <trkpt lat="41.6178900" lon="-8.7878890">
        <ele>56.4</ele>
        <time>2021-05-17T12:09:24Z</time>
      </trkpt>
      <trkpt lat="41.6179000" lon="-8.7878660">
        <ele>56.3</ele>
        <time>2021-05-17T12:09:25Z</time>
      </trkpt>
      <trkpt lat="41.6179140" lon="-8.7878590">
        <ele>56.2</ele>
        <time>2021-05-17T12:09:26Z</time>
      </trkpt>
      <trkpt lat="41.6179260" lon="-8.7878450">
        <ele>56.2</ele>
        <time>2021-05-17T12:09:27Z</time>
      </trkpt>
      <trkpt lat="41.6179380" lon="-8.7878300">
        <ele>56.1</ele>
        <time>2021-05-17T12:09:28Z</time>
      </trkpt>
      <trkpt lat="41.6179500" lon="-8.7878150">
        <ele>56.0</ele>
        <time>2021-05-17T12:09:29Z</time>
      </trkpt>
      <trkpt lat="41.6179600" lon="-8.7878020">
        <ele>55.9</ele>
        <time>2021-05-17T12:09:30Z</time>
      </trkpt>
      <trkpt lat="41.6179700" lon="-8.7877850">
        <ele>55.8</ele>
        <time>2021-05-17T12:09:31Z</time>
      </trkpt>
      <trkpt lat="41.6179820" lon="-8.7877800">
        <ele>55.8</ele>
        <time>2021-05-17T12:09:32Z</time>
      </trkpt>
      <trkpt lat="41.6180000" lon="-8.7877610">
        <ele>55.7</ele>
        <time>2021-05-17T12:09:33Z</time>
      </trkpt>
      <trkpt lat="41.6180090" lon="-8.7877560">
        <ele>55.6</ele>
        <time>2021-05-17T12:09:34Z</time>
      </trkpt>
      <trkpt lat="41.6180170" lon="-8.7877510">
        <ele>55.6</ele>
        <time>2021-05-17T12:09:35Z</time>
      </trkpt>
      <trkpt lat="41.6180320" lon="-8.7877370">
        <ele>55.5</ele>
        <time>2021-05-17T12:09:36Z</time>
      </trkpt>
      <trkpt lat="41.6180430" lon="-8.7877180">
        <ele>55.4</ele>
        <time>2021-05-17T12:09:37Z</time>
      </trkpt>
      <trkpt lat="41.6180540" lon="-8.7877080">
        <ele>55.3</ele>
        <time>2021-05-17T12:09:38Z</time>
      </trkpt>
      <trkpt lat="41.6180680" lon="-8.7877040">
        <ele>55.2</ele>
        <time>2021-05-17T12:09:39Z</time>
      </trkpt>
      <trkpt lat="41.6180810" lon="-8.7876920">
        <ele>55.2</ele>
        <time>2021-05-17T12:09:40Z</time>
      </trkpt>
      <trkpt lat="41.6180950" lon="-8.7876920">
        <ele>55.1</ele>
        <time>2021-05-17T12:09:41Z</time>
      </trkpt>
      <trkpt lat="41.6181060" lon="-8.7876820">
        <ele>55.0</ele>
        <time>2021-05-17T12:09:42Z</time>
      </trkpt>
      <trkpt lat="41.6181190" lon="-8.7876760">
        <ele>55.0</ele>
        <time>2021-05-17T12:09:43Z</time>
      </trkpt>
      <trkpt lat="41.6181340" lon="-8.7876710">
        <ele>54.9</ele>
        <time>2021-05-17T12:09:44Z</time>
      </trkpt>
      <trkpt lat="41.6181480" lon="-8.7876630">
        <ele>54.8</ele>
        <time>2021-05-17T12:09:45Z</time>
      </trkpt>
      <trkpt lat="41.6181590" lon="-8.7876390">
        <ele>54.8</ele>
        <time>2021-05-17T12:09:46Z</time>
      </trkpt>
      <trkpt lat="41.6181730" lon="-8.7876380">
        <ele>54.7</ele>
        <time>2021-05-17T12:09:47Z</time>
      </trkpt>
      <trkpt lat="41.6181770" lon="-8.7876160">
        <ele>54.6</ele>
        <time>2021-05-17T12:09:48Z</time>
      </trkpt>
      <trkpt lat="41.6181810" lon="-8.7876100">
        <ele>54.6</ele>
        <time>2021-05-17T12:09:49Z</time>
      </trkpt>
      <trkpt lat="41.6181920" lon="-8.7876050">
        <ele>54.6</ele>
        <time>2021-05-17T12:09:50Z</time>
      </trkpt>
      <trkpt lat="41.6182010" lon="-8.7876000">
        <ele>54.5</ele>
        <time>2021-05-17T12:09:51Z</time>
      </trkpt>
      <trkpt lat="41.6182080" lon="-8.7875920">
        <ele>54.5</ele>
        <time>2021-05-17T12:09:52Z</time>
      </trkpt>
      <trkpt lat="41.6182160" lon="-8.7875840">
        <ele>54.4</ele>
        <time>2021-05-17T12:09:53Z</time>
      </trkpt>
      <trkpt lat="41.6182250" lon="-8.7875910">
        <ele>54.4</ele>
        <time>2021-05-17T12:09:54Z</time>
      </trkpt>
      <trkpt lat="41.6182290" lon="-8.7875790">
        <ele>54.4</ele>
        <time>2021-05-17T12:09:55Z</time>
      </trkpt>
      <trkpt lat="41.6182390" lon="-8.7875570">
        <ele>54.3</ele>
        <time>2021-05-17T12:09:56Z</time>
      </trkpt>
      <trkpt lat="41.6182450" lon="-8.7875530">
        <ele>54.3</ele>
        <time>2021-05-17T12:09:57Z</time>
      </trkpt>
      <trkpt lat="41.6182530" lon="-8.7875440">
        <ele>54.2</ele>
        <time>2021-05-17T12:09:58Z</time>
      </trkpt>
      <trkpt lat="41.6182660" lon="-8.7875340">
        <ele>54.1</ele>
        <time>2021-05-17T12:09:59Z</time>
      </trkpt>
      <trkpt lat="41.6182870" lon="-8.7875310">
        <ele>54.1</ele>
        <time>2021-05-17T12:10:00Z</time>
      </trkpt>
      <trkpt lat="41.6182930" lon="-8.7875190">
        <ele>54.0</ele>
        <time>2021-05-17T12:10:01Z</time>
      </trkpt>
      <trkpt lat="41.6182980" lon="-8.7875070">
        <ele>54.0</ele>
        <time>2021-05-17T12:10:02Z</time>
      </trkpt>
      <trkpt lat="41.6182980" lon="-8.7875000">
        <ele>53.9</ele>
        <time>2021-05-17T12:10:03Z</time>
      </trkpt>
      <trkpt lat="41.6183070" lon="-8.7874920">
        <ele>53.9</ele>
        <time>2021-05-17T12:10:04Z</time>
      </trkpt>
      <trkpt lat="41.6183130" lon="-8.7874760">
        <ele>53.8</ele>
        <time>2021-05-17T12:10:05Z</time>
      </trkpt>
      <trkpt lat="41.6183200" lon="-8.7874520">
        <ele>53.7</ele>
        <time>2021-05-17T12:10:06Z</time>
      </trkpt>
      <trkpt lat="41.6183250" lon="-8.7874400">
        <ele>53.7</ele>
        <time>2021-05-17T12:10:07Z</time>
      </trkpt>
      <trkpt lat="41.6183300" lon="-8.7874270">
        <ele>53.6</ele>
        <time>2021-05-17T12:10:08Z</time>
      </trkpt>
      <trkpt lat="41.6183500" lon="-8.7873960">
        <ele>53.5</ele>
        <time>2021-05-17T12:10:09Z</time>
      </trkpt>
      <trkpt lat="41.6183580" lon="-8.7873890">
        <ele>53.4</ele>
        <time>2021-05-17T12:10:10Z</time>
      </trkpt>
      <trkpt lat="41.6183660" lon="-8.7873690">
        <ele>53.3</ele>
        <time>2021-05-17T12:10:11Z</time>
      </trkpt>
      <trkpt lat="41.6183790" lon="-8.7873580">
        <ele>53.3</ele>
        <time>2021-05-17T12:10:12Z</time>
      </trkpt>
      <trkpt lat="41.6183930" lon="-8.7873450">
        <ele>53.2</ele>
        <time>2021-05-17T12:10:13Z</time>
      </trkpt>
      <trkpt lat="41.6184010" lon="-8.7873230">
        <ele>53.0</ele>
        <time>2021-05-17T12:10:14Z</time>
      </trkpt>
      <trkpt lat="41.6184110" lon="-8.7873070">
        <ele>52.9</ele>
        <time>2021-05-17T12:10:15Z</time>
      </trkpt>
      <trkpt lat="41.6184190" lon="-8.7872870">
        <ele>52.8</ele>
        <time>2021-05-17T12:10:16Z</time>
      </trkpt>
      <trkpt lat="41.6184260" lon="-8.7872730">
        <ele>52.7</ele>
        <time>2021-05-17T12:10:17Z</time>
      </trkpt>
      <trkpt lat="41.6184310" lon="-8.7872530">
        <ele>52.6</ele>
        <time>2021-05-17T12:10:18Z</time>
      </trkpt>
      <trkpt lat="41.6184330" lon="-8.7872320">
        <ele>52.3</ele>
        <time>2021-05-17T12:10:19Z</time>
      </trkpt>
      <trkpt lat="41.6184420" lon="-8.7872160">
        <ele>52.3</ele>
        <time>2021-05-17T12:10:20Z</time>
      </trkpt>
      <trkpt lat="41.6184470" lon="-8.7872090">
        <ele>52.3</ele>
        <time>2021-05-17T12:10:21Z</time>
      </trkpt>
      <trkpt lat="41.6184580" lon="-8.7872020">
        <ele>52.3</ele>
        <time>2021-05-17T12:10:22Z</time>
      </trkpt>
      <trkpt lat="41.6184570" lon="-8.7872000">
        <ele>52.2</ele>
        <time>2021-05-17T12:10:23Z</time>
      </trkpt>
      <trkpt lat="41.6184650" lon="-8.7872020">
        <ele>52.2</ele>
        <time>2021-05-17T12:10:24Z</time>
      </trkpt>
      <trkpt lat="41.6184720" lon="-8.7872170">
        <ele>52.2</ele>
        <time>2021-05-17T12:10:25Z</time>
      </trkpt>
      <trkpt lat="41.6184850" lon="-8.7872330">
        <ele>52.1</ele>
        <time>2021-05-17T12:10:26Z</time>
      </trkpt>
      <trkpt lat="41.6184960" lon="-8.7872440">
        <ele>52.1</ele>
        <time>2021-05-17T12:10:27Z</time>
      </trkpt>
      <trkpt lat="41.6185050" lon="-8.7872540">
        <ele>52.1</ele>
        <time>2021-05-17T12:10:28Z</time>
      </trkpt>
      <trkpt lat="41.6185210" lon="-8.7872730">
        <ele>52.0</ele>
        <time>2021-05-17T12:10:29Z</time>
      </trkpt>
      <trkpt lat="41.6185360" lon="-8.7872870">
        <ele>52.0</ele>
        <time>2021-05-17T12:10:30Z</time>
      </trkpt>
      <trkpt lat="41.6185470" lon="-8.7873020">
        <ele>52.0</ele>
        <time>2021-05-17T12:10:31Z</time>
      </trkpt>
      <trkpt lat="41.6185620" lon="-8.7873090">
        <ele>51.9</ele>
        <time>2021-05-17T12:10:32Z</time>
      </trkpt>
      <trkpt lat="41.6185770" lon="-8.7873190">
        <ele>51.9</ele>
        <time>2021-05-17T12:10:33Z</time>
      </trkpt>
      <trkpt lat="41.6185910" lon="-8.7873300">
        <ele>51.8</ele>
        <time>2021-05-17T12:10:34Z</time>
      </trkpt>
      <trkpt lat="41.6186060" lon="-8.7873330">
        <ele>51.8</ele>
        <time>2021-05-17T12:10:35Z</time>
      </trkpt>
      <trkpt lat="41.6186240" lon="-8.7873410">
        <ele>51.8</ele>
        <time>2021-05-17T12:10:36Z</time>
      </trkpt>
      <trkpt lat="41.6186380" lon="-8.7873500">
        <ele>51.7</ele>
        <time>2021-05-17T12:10:37Z</time>
      </trkpt>
      <trkpt lat="41.6186560" lon="-8.7873550">
        <ele>51.7</ele>
        <time>2021-05-17T12:10:38Z</time>
      </trkpt>
      <trkpt lat="41.6186720" lon="-8.7873580">
        <ele>51.7</ele>
        <time>2021-05-17T12:10:39Z</time>
      </trkpt>
      <trkpt lat="41.6186900" lon="-8.7873570">
        <ele>51.6</ele>
        <time>2021-05-17T12:10:40Z</time>
      </trkpt>
      <trkpt lat="41.6187060" lon="-8.7873550">
        <ele>51.6</ele>
        <time>2021-05-17T12:10:41Z</time>
      </trkpt>
      <trkpt lat="41.6187210" lon="-8.7873580">
        <ele>51.6</ele>
        <time>2021-05-17T12:10:42Z</time>
      </trkpt>
      <trkpt lat="41.6187350" lon="-8.7873690">
        <ele>51.6</ele>
        <time>2021-05-17T12:10:43Z</time>
      </trkpt>
      <trkpt lat="41.6187520" lon="-8.7873720">
        <ele>51.6</ele>
        <time>2021-05-17T12:10:44Z</time>
      </trkpt>
      <trkpt lat="41.6187700" lon="-8.7873670">
        <ele>51.6</ele>
        <time>2021-05-17T12:10:45Z</time>
      </trkpt>
      <trkpt lat="41.6187850" lon="-8.7873730">
        <ele>51.6</ele>
        <time>2021-05-17T12:10:46Z</time>
      </trkpt>
      <trkpt lat="41.6188000" lon="-8.7873770">
        <ele>51.6</ele>
        <time>2021-05-17T12:10:47Z</time>
      </trkpt>
      <trkpt lat="41.6188120" lon="-8.7873720">
        <ele>51.7</ele>
        <time>2021-05-17T12:10:48Z</time>
      </trkpt>
      <trkpt lat="41.6188180" lon="-8.7873630">
        <ele>51.7</ele>
        <time>2021-05-17T12:10:49Z</time>
      </trkpt>
      <trkpt lat="41.6188230" lon="-8.7873540">
        <ele>51.7</ele>
        <time>2021-05-17T12:10:50Z</time>
      </trkpt>
      <trkpt lat="41.6188320" lon="-8.7873420">
        <ele>51.7</ele>
        <time>2021-05-17T12:10:51Z</time>
      </trkpt>
      <trkpt lat="41.6188420" lon="-8.7873420">
        <ele>51.7</ele>
        <time>2021-05-17T12:10:52Z</time>
      </trkpt>
      <trkpt lat="41.6188560" lon="-8.7873410">
        <ele>51.8</ele>
        <time>2021-05-17T12:10:53Z</time>
      </trkpt>
      <trkpt lat="41.6188660" lon="-8.7873340">
        <ele>51.8</ele>
        <time>2021-05-17T12:10:54Z</time>
      </trkpt>
      <trkpt lat="41.6188790" lon="-8.7873430">
        <ele>51.8</ele>
        <time>2021-05-17T12:10:55Z</time>
      </trkpt>
      <trkpt lat="41.6188870" lon="-8.7873390">
        <ele>51.8</ele>
        <time>2021-05-17T12:10:56Z</time>
      </trkpt>
      <trkpt lat="41.6189120" lon="-8.7873440">
        <ele>51.9</ele>
        <time>2021-05-17T12:10:57Z</time>
      </trkpt>
      <trkpt lat="41.6189270" lon="-8.7873410">
        <ele>51.9</ele>
        <time>2021-05-17T12:10:58Z</time>
      </trkpt>
      <trkpt lat="41.6189450" lon="-8.7873340">
        <ele>52.0</ele>
        <time>2021-05-17T12:10:59Z</time>
      </trkpt>
      <trkpt lat="41.6189550" lon="-8.7873290">
        <ele>52.0</ele>
        <time>2021-05-17T12:11:00Z</time>
      </trkpt>
      <trkpt lat="41.6189640" lon="-8.7873250">
        <ele>52.0</ele>
        <time>2021-05-17T12:11:01Z</time>
      </trkpt>
      <trkpt lat="41.6189800" lon="-8.7873340">
        <ele>52.1</ele>
        <time>2021-05-17T12:11:02Z</time>
      </trkpt>
      <trkpt lat="41.6189840" lon="-8.7873300">
        <ele>52.1</ele>
        <time>2021-05-17T12:11:03Z</time>
      </trkpt>
      <trkpt lat="41.6189980" lon="-8.7873260">
        <ele>52.1</ele>
        <time>2021-05-17T12:11:04Z</time>
      </trkpt>
      <trkpt lat="41.6190140" lon="-8.7873210">
        <ele>52.2</ele>
        <time>2021-05-17T12:11:05Z</time>
      </trkpt>
      <trkpt lat="41.6190200" lon="-8.7873170">
        <ele>52.2</ele>
        <time>2021-05-17T12:11:06Z</time>
      </trkpt>
      <trkpt lat="41.6190290" lon="-8.7873130">
        <ele>52.2</ele>
        <time>2021-05-17T12:11:07Z</time>
      </trkpt>
      <trkpt lat="41.6190360" lon="-8.7873070">
        <ele>52.3</ele>
        <time>2021-05-17T12:11:08Z</time>
      </trkpt>
      <trkpt lat="41.6190450" lon="-8.7873030">
        <ele>52.3</ele>
        <time>2021-05-17T12:11:09Z</time>
      </trkpt>
      <trkpt lat="41.6190620" lon="-8.7873110">
        <ele>52.4</ele>
        <time>2021-05-17T12:11:10Z</time>
      </trkpt>
      <trkpt lat="41.6190750" lon="-8.7873060">
        <ele>52.4</ele>
        <time>2021-05-17T12:11:11Z</time>
      </trkpt>
      <trkpt lat="41.6190910" lon="-8.7873030">
        <ele>52.5</ele>
        <time>2021-05-17T12:11:12Z</time>
      </trkpt>
      <trkpt lat="41.6191120" lon="-8.7872960">
        <ele>52.6</ele>
        <time>2021-05-17T12:11:13Z</time>
      </trkpt>
      <trkpt lat="41.6191210" lon="-8.7872950">
        <ele>52.6</ele>
        <time>2021-05-17T12:11:14Z</time>
      </trkpt>
      <trkpt lat="41.6191310" lon="-8.7872930">
        <ele>52.6</ele>
        <time>2021-05-17T12:11:15Z</time>
      </trkpt>
      <trkpt lat="41.6191450" lon="-8.7872920">
        <ele>52.7</ele>
        <time>2021-05-17T12:11:16Z</time>
      </trkpt>
      <trkpt lat="41.6191500" lon="-8.7872890">
        <ele>52.7</ele>
        <time>2021-05-17T12:11:17Z</time>
      </trkpt>
      <trkpt lat="41.6191640" lon="-8.7872880">
        <ele>52.8</ele>
        <time>2021-05-17T12:11:18Z</time>
      </trkpt>
      <trkpt lat="41.6191790" lon="-8.7872850">
        <ele>52.9</ele>
        <time>2021-05-17T12:11:19Z</time>
      </trkpt>
      <trkpt lat="41.6191970" lon="-8.7872880">
        <ele>53.0</ele>
        <time>2021-05-17T12:11:20Z</time>
      </trkpt>
      <trkpt lat="41.6192190" lon="-8.7872860">
        <ele>53.1</ele>
        <time>2021-05-17T12:11:21Z</time>
      </trkpt>
      <trkpt lat="41.6192290" lon="-8.7872830">
        <ele>53.2</ele>
        <time>2021-05-17T12:11:22Z</time>
      </trkpt>
      <trkpt lat="41.6192400" lon="-8.7872790">
        <ele>53.3</ele>
        <time>2021-05-17T12:11:23Z</time>
      </trkpt>
      <trkpt lat="41.6192450" lon="-8.7872790">
        <ele>53.3</ele>
        <time>2021-05-17T12:11:24Z</time>
      </trkpt>
      <trkpt lat="41.6192560" lon="-8.7872770">
        <ele>53.4</ele>
        <time>2021-05-17T12:11:25Z</time>
      </trkpt>
      <trkpt lat="41.6192670" lon="-8.7872800">
        <ele>53.4</ele>
        <time>2021-05-17T12:11:26Z</time>
      </trkpt>
      <trkpt lat="41.6192780" lon="-8.7872850">
        <ele>53.5</ele>
        <time>2021-05-17T12:11:27Z</time>
      </trkpt>
      <trkpt lat="41.6192840" lon="-8.7872820">
        <ele>53.5</ele>
        <time>2021-05-17T12:11:28Z</time>
      </trkpt>
      <trkpt lat="41.6192950" lon="-8.7872810">
        <ele>53.6</ele>
        <time>2021-05-17T12:11:29Z</time>
      </trkpt>
      <trkpt lat="41.6193090" lon="-8.7872830">
        <ele>53.7</ele>
        <time>2021-05-17T12:11:30Z</time>
      </trkpt>
      <trkpt lat="41.6193270" lon="-8.7872790">
        <ele>53.8</ele>
        <time>2021-05-17T12:11:31Z</time>
      </trkpt>
      <trkpt lat="41.6193490" lon="-8.7872970">
        <ele>54.0</ele>
        <time>2021-05-17T12:11:32Z</time>
      </trkpt>
      <trkpt lat="41.6193590" lon="-8.7873010">
        <ele>54.1</ele>
        <time>2021-05-17T12:11:33Z</time>
      </trkpt>
      <trkpt lat="41.6193680" lon="-8.7873050">
        <ele>54.1</ele>
        <time>2021-05-17T12:11:34Z</time>
      </trkpt>
      <trkpt lat="41.6193850" lon="-8.7873130">
        <ele>54.3</ele>
        <time>2021-05-17T12:11:35Z</time>
      </trkpt>
      <trkpt lat="41.6193970" lon="-8.7873090">
        <ele>54.3</ele>
        <time>2021-05-17T12:11:36Z</time>
      </trkpt>
      <trkpt lat="41.6194120" lon="-8.7873090">
        <ele>54.4</ele>
        <time>2021-05-17T12:11:37Z</time>
      </trkpt>
      <trkpt lat="41.6194250" lon="-8.7873120">
        <ele>54.5</ele>
        <time>2021-05-17T12:11:38Z</time>
      </trkpt>
      <trkpt lat="41.6194330" lon="-8.7873210">
        <ele>54.6</ele>
        <time>2021-05-17T12:11:39Z</time>
      </trkpt>
      <trkpt lat="41.6194480" lon="-8.7873240">
        <ele>54.7</ele>
        <time>2021-05-17T12:11:40Z</time>
      </trkpt>
      <trkpt lat="41.6194580" lon="-8.7873240">
        <ele>54.7</ele>
        <time>2021-05-17T12:11:41Z</time>
      </trkpt>
      <trkpt lat="41.6194700" lon="-8.7873260">
        <ele>54.8</ele>
        <time>2021-05-17T12:11:42Z</time>
      </trkpt>
      <trkpt lat="41.6194790" lon="-8.7873320">
        <ele>54.9</ele>
        <time>2021-05-17T12:11:43Z</time>
      </trkpt>
      <trkpt lat="41.6194890" lon="-8.7873400">
        <ele>55.0</ele>
        <time>2021-05-17T12:11:44Z</time>
      </trkpt>
      <trkpt lat="41.6195080" lon="-8.7873440">
        <ele>55.1</ele>
        <time>2021-05-17T12:11:45Z</time>
      </trkpt>
      <trkpt lat="41.6195210" lon="-8.7873520">
        <ele>55.2</ele>
        <time>2021-05-17T12:11:46Z</time>
      </trkpt>
      <trkpt lat="41.6195400" lon="-8.7873670">
        <ele>55.3</ele>
        <time>2021-05-17T12:11:47Z</time>
      </trkpt>
      <trkpt lat="41.6195500" lon="-8.7873700">
        <ele>55.3</ele>
        <time>2021-05-17T12:11:48Z</time>
      </trkpt>
      <trkpt lat="41.6195600" lon="-8.7873740">
        <ele>55.4</ele>
        <time>2021-05-17T12:11:49Z</time>
      </trkpt>
      <trkpt lat="41.6195720" lon="-8.7873820">
        <ele>55.5</ele>
        <time>2021-05-17T12:11:50Z</time>
      </trkpt>
      <trkpt lat="41.6195870" lon="-8.7873850">
        <ele>55.6</ele>
        <time>2021-05-17T12:11:51Z</time>
      </trkpt>
      <trkpt lat="41.6196090" lon="-8.7873910">
        <ele>55.7</ele>
        <time>2021-05-17T12:11:52Z</time>
      </trkpt>
      <trkpt lat="41.6196160" lon="-8.7873960">
        <ele>55.9</ele>
        <time>2021-05-17T12:11:53Z</time>
      </trkpt>
      <trkpt lat="41.6196240" lon="-8.7874010">
        <ele>55.9</ele>
        <time>2021-05-17T12:11:54Z</time>
      </trkpt>
      <trkpt lat="41.6196420" lon="-8.7874090">
        <ele>56.0</ele>
        <time>2021-05-17T12:11:55Z</time>
      </trkpt>
      <trkpt lat="41.6196470" lon="-8.7874130">
        <ele>56.1</ele>
        <time>2021-05-17T12:11:56Z</time>
      </trkpt>
      <trkpt lat="41.6196530" lon="-8.7874180">
        <ele>56.1</ele>
        <time>2021-05-17T12:11:57Z</time>
      </trkpt>
      <trkpt lat="41.6196580" lon="-8.7874220">
        <ele>56.2</ele>
        <time>2021-05-17T12:11:58Z</time>
      </trkpt>
      <trkpt lat="41.6196770" lon="-8.7874360">
        <ele>56.3</ele>
        <time>2021-05-17T12:11:59Z</time>
      </trkpt>
      <trkpt lat="41.6196850" lon="-8.7874420">
        <ele>56.4</ele>
        <time>2021-05-17T12:12:00Z</time>
      </trkpt>
      <trkpt lat="41.6197010" lon="-8.7874510">
        <ele>56.5</ele>
        <time>2021-05-17T12:12:01Z</time>
      </trkpt>
      <trkpt lat="41.6197160" lon="-8.7874650">
        <ele>56.6</ele>
        <time>2021-05-17T12:12:02Z</time>
      </trkpt>
      <trkpt lat="41.6197260" lon="-8.7874670">
        <ele>56.7</ele>
        <time>2021-05-17T12:12:03Z</time>
      </trkpt>
      <trkpt lat="41.6197330" lon="-8.7874760">
        <ele>56.7</ele>
        <time>2021-05-17T12:12:04Z</time>
      </trkpt>
      <trkpt lat="41.6197430" lon="-8.7874820">
        <ele>56.8</ele>
        <time>2021-05-17T12:12:05Z</time>
      </trkpt>
      <trkpt lat="41.6197480" lon="-8.7874910">
        <ele>56.9</ele>
        <time>2021-05-17T12:12:06Z</time>
      </trkpt>
      <trkpt lat="41.6197580" lon="-8.7874990">
        <ele>57.0</ele>
        <time>2021-05-17T12:12:07Z</time>
      </trkpt>
      <trkpt lat="41.6197680" lon="-8.7875010">
        <ele>57.0</ele>
        <time>2021-05-17T12:12:08Z</time>
      </trkpt>
      <trkpt lat="41.6197830" lon="-8.7875080">
        <ele>57.1</ele>
        <time>2021-05-17T12:12:09Z</time>
      </trkpt>
      <trkpt lat="41.6197920" lon="-8.7875170">
        <ele>57.2</ele>
        <time>2021-05-17T12:12:10Z</time>
      </trkpt>
      <trkpt lat="41.6198010" lon="-8.7875260">
        <ele>57.3</ele>
        <time>2021-05-17T12:12:11Z</time>
      </trkpt>
      <trkpt lat="41.6198170" lon="-8.7875330">
        <ele>57.4</ele>
        <time>2021-05-17T12:12:12Z</time>
      </trkpt>
      <trkpt lat="41.6198270" lon="-8.7875380">
        <ele>57.5</ele>
        <time>2021-05-17T12:12:13Z</time>
      </trkpt>
      <trkpt lat="41.6198340" lon="-8.7875510">
        <ele>57.6</ele>
        <time>2021-05-17T12:12:14Z</time>
      </trkpt>
      <trkpt lat="41.6198440" lon="-8.7875690">
        <ele>57.7</ele>
        <time>2021-05-17T12:12:15Z</time>
      </trkpt>
      <trkpt lat="41.6198560" lon="-8.7875800">
        <ele>57.8</ele>
        <time>2021-05-17T12:12:16Z</time>
      </trkpt>
      <trkpt lat="41.6198690" lon="-8.7875970">
        <ele>57.9</ele>
        <time>2021-05-17T12:12:17Z</time>
      </trkpt>
      <trkpt lat="41.6198880" lon="-8.7876260">
        <ele>58.1</ele>
        <time>2021-05-17T12:12:18Z</time>
      </trkpt>
      <trkpt lat="41.6198950" lon="-8.7876340">
        <ele>58.2</ele>
        <time>2021-05-17T12:12:19Z</time>
      </trkpt>
      <trkpt lat="41.6199090" lon="-8.7876560">
        <ele>58.3</ele>
        <time>2021-05-17T12:12:20Z</time>
      </trkpt>
      <trkpt lat="41.6199180" lon="-8.7876640">
        <ele>58.4</ele>
        <time>2021-05-17T12:12:21Z</time>
      </trkpt>
      <trkpt lat="41.6199270" lon="-8.7876730">
        <ele>58.5</ele>
        <time>2021-05-17T12:12:22Z</time>
      </trkpt>
      <trkpt lat="41.6199340" lon="-8.7876910">
        <ele>58.6</ele>
        <time>2021-05-17T12:12:23Z</time>
      </trkpt>
      <trkpt lat="41.6199480" lon="-8.7877020">
        <ele>58.7</ele>
        <time>2021-05-17T12:12:24Z</time>
      </trkpt>
      <trkpt lat="41.6199630" lon="-8.7877210">
        <ele>58.8</ele>
        <time>2021-05-17T12:12:25Z</time>
      </trkpt>
      <trkpt lat="41.6199700" lon="-8.7877290">
        <ele>58.9</ele>
        <time>2021-05-17T12:12:26Z</time>
      </trkpt>
      <trkpt lat="41.6199760" lon="-8.7877370">
        <ele>58.9</ele>
        <time>2021-05-17T12:12:27Z</time>
      </trkpt>
      <trkpt lat="41.6199950" lon="-8.7877580">
        <ele>59.1</ele>
        <time>2021-05-17T12:12:28Z</time>
      </trkpt>
      <trkpt lat="41.6200030" lon="-8.7877680">
        <ele>59.1</ele>
        <time>2021-05-17T12:12:29Z</time>
      </trkpt>
      <trkpt lat="41.6200110" lon="-8.7877790">
        <ele>59.2</ele>
        <time>2021-05-17T12:12:30Z</time>
      </trkpt>
      <trkpt lat="41.6200250" lon="-8.7877940">
        <ele>59.3</ele>
        <time>2021-05-17T12:12:31Z</time>
      </trkpt>
      <trkpt lat="41.6200370" lon="-8.7877980">
        <ele>59.4</ele>
        <time>2021-05-17T12:12:32Z</time>
      </trkpt>
      <trkpt lat="41.6200460" lon="-8.7877990">
        <ele>59.4</ele>
        <time>2021-05-17T12:12:33Z</time>
      </trkpt>
      <trkpt lat="41.6200510" lon="-8.7878010">
        <ele>59.5</ele>
        <time>2021-05-17T12:12:34Z</time>
      </trkpt>
      <trkpt lat="41.6200630" lon="-8.7878110">
        <ele>59.5</ele>
        <time>2021-05-17T12:12:35Z</time>
      </trkpt>
      <trkpt lat="41.6200650" lon="-8.7878280">
        <ele>59.6</ele>
        <time>2021-05-17T12:12:36Z</time>
      </trkpt>
      <trkpt lat="41.6200660" lon="-8.7878360">
        <ele>59.6</ele>
        <time>2021-05-17T12:12:37Z</time>
      </trkpt>
      <trkpt lat="41.6200740" lon="-8.7878450">
        <ele>59.7</ele>
        <time>2021-05-17T12:12:38Z</time>
      </trkpt>
      <trkpt lat="41.6200840" lon="-8.7878650">
        <ele>59.8</ele>
        <time>2021-05-17T12:12:39Z</time>
      </trkpt>
      <trkpt lat="41.6200960" lon="-8.7878750">
        <ele>59.9</ele>
        <time>2021-05-17T12:12:40Z</time>
      </trkpt>
      <trkpt lat="41.6201250" lon="-8.7878860">
        <ele>60.0</ele>
        <time>2021-05-17T12:12:41Z</time>
      </trkpt>
      <trkpt lat="41.6201330" lon="-8.7878890">
        <ele>60.1</ele>
        <time>2021-05-17T12:12:42Z</time>
      </trkpt>
      <trkpt lat="41.6201520" lon="-8.7879070">
        <ele>60.2</ele>
        <time>2021-05-17T12:12:43Z</time>
      </trkpt>
      <trkpt lat="41.6201610" lon="-8.7879160">
        <ele>60.2</ele>
        <time>2021-05-17T12:12:44Z</time>
      </trkpt>
      <trkpt lat="41.6201830" lon="-8.7879340">
        <ele>60.4</ele>
        <time>2021-05-17T12:12:45Z</time>
      </trkpt>
      <trkpt lat="41.6201930" lon="-8.7879380">
        <ele>60.4</ele>
        <time>2021-05-17T12:12:46Z</time>
      </trkpt>
      <trkpt lat="41.6202040" lon="-8.7879420">
        <ele>60.5</ele>
        <time>2021-05-17T12:12:47Z</time>
      </trkpt>
      <trkpt lat="41.6202150" lon="-8.7879490">
        <ele>60.6</ele>
        <time>2021-05-17T12:12:48Z</time>
      </trkpt>
      <trkpt lat="41.6202250" lon="-8.7879740">
        <ele>60.7</ele>
        <time>2021-05-17T12:12:49Z</time>
      </trkpt>
      <trkpt lat="41.6202360" lon="-8.7879890">
        <ele>60.8</ele>
        <time>2021-05-17T12:12:50Z</time>
      </trkpt>
      <trkpt lat="41.6202490" lon="-8.7879980">
        <ele>60.9</ele>
        <time>2021-05-17T12:12:51Z</time>
      </trkpt>
      <trkpt lat="41.6202410" lon="-8.7880130">
        <ele>60.9</ele>
        <time>2021-05-17T12:12:52Z</time>
      </trkpt>
      <trkpt lat="41.6202420" lon="-8.7880310">
        <ele>61.0</ele>
        <time>2021-05-17T12:12:53Z</time>
      </trkpt>
      <trkpt lat="41.6202520" lon="-8.7880440">
        <ele>61.1</ele>
        <time>2021-05-17T12:12:54Z</time>
      </trkpt>
      <trkpt lat="41.6202540" lon="-8.7880660">
        <ele>61.2</ele>
        <time>2021-05-17T12:12:55Z</time>
      </trkpt>
      <trkpt lat="41.6202560" lon="-8.7880830">
        <ele>61.3</ele>
        <time>2021-05-17T12:12:56Z</time>
      </trkpt>
      <trkpt lat="41.6202650" lon="-8.7881050">
        <ele>61.4</ele>
        <time>2021-05-17T12:12:57Z</time>
      </trkpt>
      <trkpt lat="41.6202750" lon="-8.7881170">
        <ele>61.5</ele>
        <time>2021-05-17T12:12:58Z</time>
      </trkpt>
      <trkpt lat="41.6202840" lon="-8.7881290">
        <ele>61.6</ele>
        <time>2021-05-17T12:12:59Z</time>
      </trkpt>
      <trkpt lat="41.6202960" lon="-8.7881410">
        <ele>61.7</ele>
        <time>2021-05-17T12:13:00Z</time>
      </trkpt>
      <trkpt lat="41.6203080" lon="-8.7881610">
        <ele>61.9</ele>
        <time>2021-05-17T12:13:01Z</time>
      </trkpt>
      <trkpt lat="41.6203170" lon="-8.7881680">
        <ele>62.0</ele>
        <time>2021-05-17T12:13:02Z</time>
      </trkpt>
      <trkpt lat="41.6203230" lon="-8.7881840">
        <ele>62.1</ele>
        <time>2021-05-17T12:13:03Z</time>
      </trkpt>
      <trkpt lat="41.6203310" lon="-8.7881980">
        <ele>62.2</ele>
        <time>2021-05-17T12:13:04Z</time>
      </trkpt>
      <trkpt lat="41.6203330" lon="-8.7882030">
        <ele>62.2</ele>
        <time>2021-05-17T12:13:05Z</time>
      </trkpt>
      <trkpt lat="41.6203480" lon="-8.7882160">
        <ele>62.4</ele>
        <time>2021-05-17T12:13:06Z</time>
      </trkpt>
      <trkpt lat="41.6203550" lon="-8.7882240">
        <ele>62.5</ele>
        <time>2021-05-17T12:13:07Z</time>
      </trkpt>
      <trkpt lat="41.6203710" lon="-8.7882470">
        <ele>62.7</ele>
        <time>2021-05-17T12:13:08Z</time>
      </trkpt>
      <trkpt lat="41.6203750" lon="-8.7882580">
        <ele>62.8</ele>
        <time>2021-05-17T12:13:09Z</time>
      </trkpt>
      <trkpt lat="41.6203800" lon="-8.7882700">
        <ele>62.9</ele>
        <time>2021-05-17T12:13:10Z</time>
      </trkpt>
      <trkpt lat="41.6203900" lon="-8.7882900">
        <ele>63.1</ele>
        <time>2021-05-17T12:13:11Z</time>
      </trkpt>
      <trkpt lat="41.6203930" lon="-8.7883050">
        <ele>63.3</ele>
        <time>2021-05-17T12:13:12Z</time>
      </trkpt>
      <trkpt lat="41.6203970" lon="-8.7883200">
        <ele>63.4</ele>
        <time>2021-05-17T12:13:13Z</time>
      </trkpt>
      <trkpt lat="41.6204010" lon="-8.7883290">
        <ele>63.5</ele>
        <time>2021-05-17T12:13:14Z</time>
      </trkpt>
      <trkpt lat="41.6204060" lon="-8.7883400">
        <ele>63.6</ele>
        <time>2021-05-17T12:13:15Z</time>
      </trkpt>
      <trkpt lat="41.6204150" lon="-8.7883550">
        <ele>63.8</ele>
        <time>2021-05-17T12:13:16Z</time>
      </trkpt>
      <trkpt lat="41.6204240" lon="-8.7883680">
        <ele>63.9</ele>
        <time>2021-05-17T12:13:17Z</time>
      </trkpt>
      <trkpt lat="41.6204310" lon="-8.7883740">
        <ele>64.0</ele>
        <time>2021-05-17T12:13:18Z</time>
      </trkpt>
      <trkpt lat="41.6204400" lon="-8.7883830">
        <ele>64.3</ele>
        <time>2021-05-17T12:13:19Z</time>
      </trkpt>
      <trkpt lat="41.6204510" lon="-8.7883890">
        <ele>64.3</ele>
        <time>2021-05-17T12:13:20Z</time>
      </trkpt>
      <trkpt lat="41.6204590" lon="-8.7884010">
        <ele>64.4</ele>
        <time>2021-05-17T12:13:21Z</time>
      </trkpt>
      <trkpt lat="41.6204680" lon="-8.7884080">
        <ele>64.4</ele>
        <time>2021-05-17T12:13:22Z</time>
      </trkpt>
      <trkpt lat="41.6204780" lon="-8.7884130">
        <ele>64.4</ele>
        <time>2021-05-17T12:13:23Z</time>
      </trkpt>
      <trkpt lat="41.6204950" lon="-8.7884190">
        <ele>64.5</ele>
        <time>2021-05-17T12:13:24Z</time>
      </trkpt>
      <trkpt lat="41.6205070" lon="-8.7884180">
        <ele>64.5</ele>
        <time>2021-05-17T12:13:25Z</time>
      </trkpt>
      <trkpt lat="41.6205170" lon="-8.7884200">
        <ele>64.6</ele>
        <time>2021-05-17T12:13:26Z</time>
      </trkpt>
      <trkpt lat="41.6205250" lon="-8.7884280">
        <ele>64.6</ele>
        <time>2021-05-17T12:13:27Z</time>
      </trkpt>
      <trkpt lat="41.6205330" lon="-8.7884250">
        <ele>64.6</ele>
        <time>2021-05-17T12:13:28Z</time>
      </trkpt>
      <trkpt lat="41.6205370" lon="-8.7884260">
        <ele>64.7</ele>
        <time>2021-05-17T12:13:29Z</time>
      </trkpt>
      <trkpt lat="41.6205510" lon="-8.7884330">
        <ele>64.7</ele>
        <time>2021-05-17T12:13:30Z</time>
      </trkpt>
      <trkpt lat="41.6205570" lon="-8.7884360">
        <ele>64.7</ele>
        <time>2021-05-17T12:13:31Z</time>
      </trkpt>
      <trkpt lat="41.6205650" lon="-8.7884420">
        <ele>64.7</ele>
        <time>2021-05-17T12:13:32Z</time>
      </trkpt>
      <trkpt lat="41.6205830" lon="-8.7884410">
        <ele>64.8</ele>
        <time>2021-05-17T12:13:33Z</time>
      </trkpt>
      <trkpt lat="41.6205920" lon="-8.7884500">
        <ele>64.8</ele>
        <time>2021-05-17T12:13:34Z</time>
      </trkpt>
      <trkpt lat="41.6206100" lon="-8.7884550">
        <ele>64.9</ele>
        <time>2021-05-17T12:13:35Z</time>
      </trkpt>
      <trkpt lat="41.6206270" lon="-8.7884620">
        <ele>64.9</ele>
        <time>2021-05-17T12:13:36Z</time>
      </trkpt>
      <trkpt lat="41.6206430" lon="-8.7884770">
        <ele>65.0</ele>
        <time>2021-05-17T12:13:37Z</time>
      </trkpt>
      <trkpt lat="41.6206530" lon="-8.7884820">
        <ele>65.0</ele>
        <time>2021-05-17T12:13:38Z</time>
      </trkpt>
      <trkpt lat="41.6206620" lon="-8.7884870">
        <ele>65.0</ele>
        <time>2021-05-17T12:13:39Z</time>
      </trkpt>
      <trkpt lat="41.6206790" lon="-8.7884980">
        <ele>65.1</ele>
        <time>2021-05-17T12:13:40Z</time>
      </trkpt>
      <trkpt lat="41.6206920" lon="-8.7884990">
        <ele>65.1</ele>
        <time>2021-05-17T12:13:41Z</time>
      </trkpt>
      <trkpt lat="41.6207060" lon="-8.7885070">
        <ele>65.2</ele>
        <time>2021-05-17T12:13:42Z</time>
      </trkpt>
      <trkpt lat="41.6207210" lon="-8.7885140">
        <ele>65.2</ele>
        <time>2021-05-17T12:13:43Z</time>
      </trkpt>
      <trkpt lat="41.6207320" lon="-8.7885160">
        <ele>65.2</ele>
        <time>2021-05-17T12:13:44Z</time>
      </trkpt>
      <trkpt lat="41.6207470" lon="-8.7885270">
        <ele>65.3</ele>
        <time>2021-05-17T12:13:45Z</time>
      </trkpt>
      <trkpt lat="41.6207660" lon="-8.7885280">
        <ele>65.4</ele>
        <time>2021-05-17T12:13:46Z</time>
      </trkpt>
      <trkpt lat="41.6207820" lon="-8.7885330">
        <ele>65.4</ele>
        <time>2021-05-17T12:13:47Z</time>
      </trkpt>
      <trkpt lat="41.6208100" lon="-8.7885470">
        <ele>65.5</ele>
        <time>2021-05-17T12:13:48Z</time>
      </trkpt>
      <trkpt lat="41.6208180" lon="-8.7885530">
        <ele>65.5</ele>
        <time>2021-05-17T12:13:49Z</time>
      </trkpt>
      <trkpt lat="41.6208340" lon="-8.7885620">
        <ele>65.6</ele>
        <time>2021-05-17T12:13:50Z</time>
      </trkpt>
      <trkpt lat="41.6208500" lon="-8.7885740">
        <ele>65.7</ele>
        <time>2021-05-17T12:13:51Z</time>
      </trkpt>
      <trkpt lat="41.6208640" lon="-8.7885870">
        <ele>65.7</ele>
        <time>2021-05-17T12:13:52Z</time>
      </trkpt>
      <trkpt lat="41.6208800" lon="-8.7885950">
        <ele>65.8</ele>
        <time>2021-05-17T12:13:53Z</time>
      </trkpt>
      <trkpt lat="41.6208950" lon="-8.7886030">
        <ele>65.8</ele>
        <time>2021-05-17T12:13:54Z</time>
      </trkpt>
      <trkpt lat="41.6209120" lon="-8.7886100">
        <ele>65.9</ele>
        <time>2021-05-17T12:13:55Z</time>
      </trkpt>
      <trkpt lat="41.6209270" lon="-8.7886140">
        <ele>65.9</ele>
        <time>2021-05-17T12:13:56Z</time>
      </trkpt>
      <trkpt lat="41.6209430" lon="-8.7886210">
        <ele>66.0</ele>
        <time>2021-05-17T12:13:57Z</time>
      </trkpt>
      <trkpt lat="41.6209570" lon="-8.7886320">
        <ele>66.1</ele>
        <time>2021-05-17T12:13:58Z</time>
      </trkpt>
      <trkpt lat="41.6209690" lon="-8.7886420">
        <ele>66.1</ele>
        <time>2021-05-17T12:13:59Z</time>
      </trkpt>
      <trkpt lat="41.6209890" lon="-8.7886490">
        <ele>66.2</ele>
        <time>2021-05-17T12:14:00Z</time>
      </trkpt>
      <trkpt lat="41.6210010" lon="-8.7886600">
        <ele>66.2</ele>
        <time>2021-05-17T12:14:01Z</time>
      </trkpt>
      <trkpt lat="41.6210140" lon="-8.7886730">
        <ele>66.3</ele>
        <time>2021-05-17T12:14:02Z</time>
      </trkpt>
      <trkpt lat="41.6210290" lon="-8.7886790">
        <ele>66.3</ele>
        <time>2021-05-17T12:14:03Z</time>
      </trkpt>
      <trkpt lat="41.6210410" lon="-8.7886840">
        <ele>66.4</ele>
        <time>2021-05-17T12:14:04Z</time>
      </trkpt>
      <trkpt lat="41.6210560" lon="-8.7886880">
        <ele>66.5</ele>
        <time>2021-05-17T12:14:05Z</time>
      </trkpt>
      <trkpt lat="41.6210770" lon="-8.7886960">
        <ele>66.5</ele>
        <time>2021-05-17T12:14:06Z</time>
      </trkpt>
      <trkpt lat="41.6210870" lon="-8.7886960">
        <ele>66.6</ele>
        <time>2021-05-17T12:14:07Z</time>
      </trkpt>
      <trkpt lat="41.6210960" lon="-8.7886960">
        <ele>66.6</ele>
        <time>2021-05-17T12:14:08Z</time>
      </trkpt>
      <trkpt lat="41.6211070" lon="-8.7887030">
        <ele>66.7</ele>
        <time>2021-05-17T12:14:09Z</time>
      </trkpt>
      <trkpt lat="41.6211150" lon="-8.7887130">
        <ele>66.7</ele>
        <time>2021-05-17T12:14:10Z</time>
      </trkpt>
      <trkpt lat="41.6211170" lon="-8.7887080">
        <ele>66.7</ele>
        <time>2021-05-17T12:14:11Z</time>
      </trkpt>
      <trkpt lat="41.6211230" lon="-8.7887050">
        <ele>66.8</ele>
        <time>2021-05-17T12:14:12Z</time>
      </trkpt>
      <trkpt lat="41.6211340" lon="-8.7887080">
        <ele>66.8</ele>
        <time>2021-05-17T12:14:13Z</time>
      </trkpt>
      <trkpt lat="41.6211430" lon="-8.7887150">
        <ele>66.8</ele>
        <time>2021-05-17T12:14:14Z</time>
      </trkpt>
      <trkpt lat="41.6211550" lon="-8.7887190">
        <ele>66.9</ele>
        <time>2021-05-17T12:14:15Z</time>
      </trkpt>
      <trkpt lat="41.6211680" lon="-8.7887270">
        <ele>67.0</ele>
        <time>2021-05-17T12:14:16Z</time>
      </trkpt>
      <trkpt lat="41.6211820" lon="-8.7887340">
        <ele>67.0</ele>
        <time>2021-05-17T12:14:17Z</time>
      </trkpt>
      <trkpt lat="41.6211950" lon="-8.7887390">
        <ele>67.1</ele>
        <time>2021-05-17T12:14:18Z</time>
      </trkpt>
      <trkpt lat="41.6212110" lon="-8.7887450">
        <ele>67.2</ele>
        <time>2021-05-17T12:14:19Z</time>
      </trkpt>
      <trkpt lat="41.6212380" lon="-8.7887560">
        <ele>67.3</ele>
        <time>2021-05-17T12:14:20Z</time>
      </trkpt>
      <trkpt lat="41.6212470" lon="-8.7887560">
        <ele>67.3</ele>
        <time>2021-05-17T12:14:21Z</time>
      </trkpt>
      <trkpt lat="41.6212630" lon="-8.7887540">
        <ele>67.4</ele>
        <time>2021-05-17T12:14:22Z</time>
      </trkpt>
      <trkpt lat="41.6212810" lon="-8.7887690">
        <ele>67.5</ele>
        <time>2021-05-17T12:14:23Z</time>
      </trkpt>
      <trkpt lat="41.6212970" lon="-8.7887750">
        <ele>67.6</ele>
        <time>2021-05-17T12:14:24Z</time>
      </trkpt>
      <trkpt lat="41.6213100" lon="-8.7887770">
        <ele>67.7</ele>
        <time>2021-05-17T12:14:25Z</time>
      </trkpt>
      <trkpt lat="41.6213270" lon="-8.7887810">
        <ele>67.7</ele>
        <time>2021-05-17T12:14:26Z</time>
      </trkpt>
      <trkpt lat="41.6213430" lon="-8.7887910">
        <ele>67.8</ele>
        <time>2021-05-17T12:14:27Z</time>
      </trkpt>
      <trkpt lat="41.6213590" lon="-8.7887940">
        <ele>67.9</ele>
        <time>2021-05-17T12:14:28Z</time>
      </trkpt>
      <trkpt lat="41.6213740" lon="-8.7887940">
        <ele>68.0</ele>
        <time>2021-05-17T12:14:29Z</time>
      </trkpt>
      <trkpt lat="41.6213880" lon="-8.7887980">
        <ele>68.1</ele>
        <time>2021-05-17T12:14:30Z</time>
      </trkpt>
      <trkpt lat="41.6214030" lon="-8.7888000">
        <ele>68.2</ele>
        <time>2021-05-17T12:14:31Z</time>
      </trkpt>
      <trkpt lat="41.6214170" lon="-8.7888030">
        <ele>68.2</ele>
        <time>2021-05-17T12:14:32Z</time>
      </trkpt>
      <trkpt lat="41.6214280" lon="-8.7888030">
        <ele>68.3</ele>
        <time>2021-05-17T12:14:33Z</time>
      </trkpt>
      <trkpt lat="41.6214370" lon="-8.7888000">
        <ele>68.4</ele>
        <time>2021-05-17T12:14:34Z</time>
      </trkpt>
      <trkpt lat="41.6214530" lon="-8.7888080">
        <ele>68.4</ele>
        <time>2021-05-17T12:14:35Z</time>
      </trkpt>
      <trkpt lat="41.6214600" lon="-8.7888100">
        <ele>68.5</ele>
        <time>2021-05-17T12:14:36Z</time>
      </trkpt>
      <trkpt lat="41.6214670" lon="-8.7888130">
        <ele>68.5</ele>
        <time>2021-05-17T12:14:37Z</time>
      </trkpt>
      <trkpt lat="41.6214740" lon="-8.7888150">
        <ele>68.6</ele>
        <time>2021-05-17T12:14:38Z</time>
      </trkpt>
      <trkpt lat="41.6214830" lon="-8.7888130">
        <ele>68.6</ele>
        <time>2021-05-17T12:14:39Z</time>
      </trkpt>
      <trkpt lat="41.6214940" lon="-8.7888240">
        <ele>68.7</ele>
        <time>2021-05-17T12:14:40Z</time>
      </trkpt>
      <trkpt lat="41.6215070" lon="-8.7888230">
        <ele>68.8</ele>
        <time>2021-05-17T12:14:41Z</time>
      </trkpt>
      <trkpt lat="41.6215160" lon="-8.7888180">
        <ele>68.8</ele>
        <time>2021-05-17T12:14:42Z</time>
      </trkpt>
      <trkpt lat="41.6215340" lon="-8.7888200">
        <ele>68.8</ele>
        <time>2021-05-17T12:14:43Z</time>
      </trkpt>
      <trkpt lat="41.6215420" lon="-8.7888170">
        <ele>68.9</ele>
        <time>2021-05-17T12:14:44Z</time>
      </trkpt>
      <trkpt lat="41.6215460" lon="-8.7888110">
        <ele>68.9</ele>
        <time>2021-05-17T12:14:45Z</time>
      </trkpt>
      <trkpt lat="41.6215560" lon="-8.7888100">
        <ele>68.9</ele>
        <time>2021-05-17T12:14:46Z</time>
      </trkpt>
      <trkpt lat="41.6215680" lon="-8.7888070">
        <ele>68.9</ele>
        <time>2021-05-17T12:14:47Z</time>
      </trkpt>
      <trkpt lat="41.6215790" lon="-8.7888020">
        <ele>68.9</ele>
        <time>2021-05-17T12:14:48Z</time>
      </trkpt>
      <trkpt lat="41.6215930" lon="-8.7887910">
        <ele>69.0</ele>
        <time>2021-05-17T12:14:49Z</time>
      </trkpt>
      <trkpt lat="41.6216100" lon="-8.7887790">
        <ele>69.0</ele>
        <time>2021-05-17T12:14:50Z</time>
      </trkpt>
      <trkpt lat="41.6216230" lon="-8.7887630">
        <ele>69.0</ele>
        <time>2021-05-17T12:14:51Z</time>
      </trkpt>
      <trkpt lat="41.6216370" lon="-8.7887490">
        <ele>69.1</ele>
        <time>2021-05-17T12:14:52Z</time>
      </trkpt>
      <trkpt lat="41.6216490" lon="-8.7887360">
        <ele>69.1</ele>
        <time>2021-05-17T12:14:53Z</time>
      </trkpt>
      <trkpt lat="41.6216710" lon="-8.7887140">
        <ele>69.1</ele>
        <time>2021-05-17T12:14:54Z</time>
      </trkpt>
      <trkpt lat="41.6216790" lon="-8.7887080">
        <ele>69.1</ele>
        <time>2021-05-17T12:14:55Z</time>
      </trkpt>
      <trkpt lat="41.6216960" lon="-8.7887060">
        <ele>69.2</ele>
        <time>2021-05-17T12:14:56Z</time>
      </trkpt>
      <trkpt lat="41.6217140" lon="-8.7887110">
        <ele>69.2</ele>
        <time>2021-05-17T12:14:57Z</time>
      </trkpt>
      <trkpt lat="41.6217270" lon="-8.7887110">
        <ele>69.2</ele>
        <time>2021-05-17T12:14:58Z</time>
      </trkpt>
      <trkpt lat="41.6217330" lon="-8.7887110">
        <ele>69.2</ele>
        <time>2021-05-17T12:14:59Z</time>
      </trkpt>
      <trkpt lat="41.6217470" lon="-8.7887120">
        <ele>69.2</ele>
        <time>2021-05-17T12:15:00Z</time>
      </trkpt>
      <trkpt lat="41.6217510" lon="-8.7887070">
        <ele>69.2</ele>
        <time>2021-05-17T12:15:01Z</time>
      </trkpt>
      <trkpt lat="41.6217650" lon="-8.7887000">
        <ele>69.2</ele>
        <time>2021-05-17T12:15:02Z</time>
      </trkpt>
      <trkpt lat="41.6217720" lon="-8.7886840">
        <ele>69.2</ele>
        <time>2021-05-17T12:15:03Z</time>
      </trkpt>
      <trkpt lat="41.6217730" lon="-8.7886640">
        <ele>69.2</ele>
        <time>2021-05-17T12:15:04Z</time>
      </trkpt>
      <trkpt lat="41.6217750" lon="-8.7886480">
        <ele>69.2</ele>
        <time>2021-05-17T12:15:05Z</time>
      </trkpt>
      <trkpt lat="41.6217810" lon="-8.7886320">
        <ele>69.3</ele>
        <time>2021-05-17T12:15:06Z</time>
      </trkpt>
      <trkpt lat="41.6217900" lon="-8.7886180">
        <ele>69.3</ele>
        <time>2021-05-17T12:15:07Z</time>
      </trkpt>
      <trkpt lat="41.6217990" lon="-8.7886010">
        <ele>69.6</ele>
        <time>2021-05-17T12:15:08Z</time>
      </trkpt>
      <trkpt lat="41.6218110" lon="-8.7885850">
        <ele>69.7</ele>
        <time>2021-05-17T12:15:09Z</time>
      </trkpt>
      <trkpt lat="41.6218190" lon="-8.7885810">
        <ele>69.8</ele>
        <time>2021-05-17T12:15:10Z</time>
      </trkpt>
      <trkpt lat="41.6218350" lon="-8.7885760">
        <ele>69.9</ele>
        <time>2021-05-17T12:15:11Z</time>
      </trkpt>
      <trkpt lat="41.6218380" lon="-8.7885750">
        <ele>69.9</ele>
        <time>2021-05-17T12:15:12Z</time>
      </trkpt>
      <trkpt lat="41.6218400" lon="-8.7885740">
        <ele>69.9</ele>
        <time>2021-05-17T12:15:13Z</time>
      </trkpt>
      <trkpt lat="41.6218450" lon="-8.7885610">
        <ele>70.0</ele>
        <time>2021-05-17T12:15:14Z</time>
      </trkpt>
      <trkpt lat="41.6218500" lon="-8.7885530">
        <ele>70.1</ele>
        <time>2021-05-17T12:15:15Z</time>
      </trkpt>
      <trkpt lat="41.6218550" lon="-8.7885510">
        <ele>70.1</ele>
        <time>2021-05-17T12:15:16Z</time>
      </trkpt>
      <trkpt lat="41.6218590" lon="-8.7885530">
        <ele>70.1</ele>
        <time>2021-05-17T12:15:17Z</time>
      </trkpt>
      <trkpt lat="41.6218750" lon="-8.7885610">
        <ele>70.3</ele>
        <time>2021-05-17T12:15:18Z</time>
      </trkpt>
      <trkpt lat="41.6218840" lon="-8.7885680">
        <ele>70.4</ele>
        <time>2021-05-17T12:15:19Z</time>
      </trkpt>
      <trkpt lat="41.6218930" lon="-8.7885750">
        <ele>70.5</ele>
        <time>2021-05-17T12:15:20Z</time>
      </trkpt>
      <trkpt lat="41.6219010" lon="-8.7885790">
        <ele>70.5</ele>
        <time>2021-05-17T12:15:21Z</time>
      </trkpt>
      <trkpt lat="41.6219100" lon="-8.7885830">
        <ele>70.6</ele>
        <time>2021-05-17T12:15:22Z</time>
      </trkpt>
      <trkpt lat="41.6219180" lon="-8.7885960">
        <ele>70.7</ele>
        <time>2021-05-17T12:15:23Z</time>
      </trkpt>
      <trkpt lat="41.6219340" lon="-8.7886040">
        <ele>70.9</ele>
        <time>2021-05-17T12:15:24Z</time>
      </trkpt>
      <trkpt lat="41.6219430" lon="-8.7886090">
        <ele>71.0</ele>
        <time>2021-05-17T12:15:25Z</time>
      </trkpt>
      <trkpt lat="41.6219520" lon="-8.7886140">
        <ele>71.0</ele>
        <time>2021-05-17T12:15:26Z</time>
      </trkpt>
      <trkpt lat="41.6219640" lon="-8.7886110">
        <ele>71.2</ele>
        <time>2021-05-17T12:15:27Z</time>
      </trkpt>
      <trkpt lat="41.6219800" lon="-8.7886190">
        <ele>71.3</ele>
        <time>2021-05-17T12:15:28Z</time>
      </trkpt>
      <trkpt lat="41.6219900" lon="-8.7886300">
        <ele>71.4</ele>
        <time>2021-05-17T12:15:29Z</time>
      </trkpt>
      <trkpt lat="41.6220110" lon="-8.7886340">
        <ele>71.6</ele>
        <time>2021-05-17T12:15:30Z</time>
      </trkpt>
      <trkpt lat="41.6220290" lon="-8.7886300">
        <ele>71.8</ele>
        <time>2021-05-17T12:15:31Z</time>
      </trkpt>
      <trkpt lat="41.6220410" lon="-8.7886290">
        <ele>71.9</ele>
        <time>2021-05-17T12:15:32Z</time>
      </trkpt>
      <trkpt lat="41.6220570" lon="-8.7886160">
        <ele>72.0</ele>
        <time>2021-05-17T12:15:33Z</time>
      </trkpt>
      <trkpt lat="41.6220670" lon="-8.7886090">
        <ele>72.1</ele>
        <time>2021-05-17T12:15:34Z</time>
      </trkpt>
      <trkpt lat="41.6220720" lon="-8.7886020">
        <ele>72.2</ele>
        <time>2021-05-17T12:15:35Z</time>
      </trkpt>
      <trkpt lat="41.6220830" lon="-8.7885990">
        <ele>72.2</ele>
        <time>2021-05-17T12:15:36Z</time>
      </trkpt>
      <trkpt lat="41.6220940" lon="-8.7885970">
        <ele>72.3</ele>
        <time>2021-05-17T12:15:37Z</time>
      </trkpt>
      <trkpt lat="41.6221050" lon="-8.7885940">
        <ele>72.4</ele>
        <time>2021-05-17T12:15:38Z</time>
      </trkpt>
      <trkpt lat="41.6221210" lon="-8.7885860">
        <ele>72.6</ele>
        <time>2021-05-17T12:15:39Z</time>
      </trkpt>
      <trkpt lat="41.6221310" lon="-8.7885850">
        <ele>72.6</ele>
        <time>2021-05-17T12:15:40Z</time>
      </trkpt>
      <trkpt lat="41.6221420" lon="-8.7885850">
        <ele>72.7</ele>
        <time>2021-05-17T12:15:41Z</time>
      </trkpt>
      <trkpt lat="41.6221520" lon="-8.7886020">
        <ele>72.9</ele>
        <time>2021-05-17T12:15:42Z</time>
      </trkpt>
      <trkpt lat="41.6221680" lon="-8.7885930">
        <ele>73.0</ele>
        <time>2021-05-17T12:15:43Z</time>
      </trkpt>
      <trkpt lat="41.6221870" lon="-8.7885890">
        <ele>73.2</ele>
        <time>2021-05-17T12:15:44Z</time>
      </trkpt>
      <trkpt lat="41.6221960" lon="-8.7885840">
        <ele>73.2</ele>
        <time>2021-05-17T12:15:45Z</time>
      </trkpt>
      <trkpt lat="41.6222050" lon="-8.7885800">
        <ele>73.3</ele>
        <time>2021-05-17T12:15:46Z</time>
      </trkpt>
      <trkpt lat="41.6222110" lon="-8.7885860">
        <ele>73.4</ele>
        <time>2021-05-17T12:15:47Z</time>
      </trkpt>
      <trkpt lat="41.6222120" lon="-8.7885910">
        <ele>73.4</ele>
        <time>2021-05-17T12:15:48Z</time>
      </trkpt>
      <trkpt lat="41.6222140" lon="-8.7885940">
        <ele>73.4</ele>
        <time>2021-05-17T12:15:49Z</time>
      </trkpt>
      <trkpt lat="41.6222310" lon="-8.7885940">
        <ele>73.6</ele>
        <time>2021-05-17T12:15:50Z</time>
      </trkpt>
      <trkpt lat="41.6222580" lon="-8.7886110">
        <ele>73.8</ele>
        <time>2021-05-17T12:15:51Z</time>
      </trkpt>
      <trkpt lat="41.6222640" lon="-8.7886140">
        <ele>73.9</ele>
        <time>2021-05-17T12:15:52Z</time>
      </trkpt>
      <trkpt lat="41.6222720" lon="-8.7886150">
        <ele>74.0</ele>
        <time>2021-05-17T12:15:53Z</time>
      </trkpt>
      <trkpt lat="41.6222860" lon="-8.7886210">
        <ele>74.1</ele>
        <time>2021-05-17T12:15:54Z</time>
      </trkpt>
      <trkpt lat="41.6222920" lon="-8.7886270">
        <ele>74.2</ele>
        <time>2021-05-17T12:15:55Z</time>
      </trkpt>
      <trkpt lat="41.6223170" lon="-8.7886450">
        <ele>74.4</ele>
        <time>2021-05-17T12:15:56Z</time>
      </trkpt>
      <trkpt lat="41.6223290" lon="-8.7886490">
        <ele>74.5</ele>
        <time>2021-05-17T12:15:57Z</time>
      </trkpt>
      <trkpt lat="41.6223410" lon="-8.7886470">
        <ele>74.6</ele>
        <time>2021-05-17T12:15:58Z</time>
      </trkpt>
      <trkpt lat="41.6223550" lon="-8.7886420">
        <ele>74.7</ele>
        <time>2021-05-17T12:15:59Z</time>
      </trkpt>
      <trkpt lat="41.6223640" lon="-8.7886390">
        <ele>74.8</ele>
        <time>2021-05-17T12:16:00Z</time>
      </trkpt>
      <trkpt lat="41.6223790" lon="-8.7886330">
        <ele>74.9</ele>
        <time>2021-05-17T12:16:01Z</time>
      </trkpt>
      <trkpt lat="41.6223990" lon="-8.7886320">
        <ele>75.1</ele>
        <time>2021-05-17T12:16:02Z</time>
      </trkpt>
      <trkpt lat="41.6224170" lon="-8.7886320">
        <ele>75.3</ele>
        <time>2021-05-17T12:16:03Z</time>
      </trkpt>
      <trkpt lat="41.6224320" lon="-8.7886280">
        <ele>75.4</ele>
        <time>2021-05-17T12:16:04Z</time>
      </trkpt>
      <trkpt lat="41.6224500" lon="-8.7886290">
        <ele>75.5</ele>
        <time>2021-05-17T12:16:05Z</time>
      </trkpt>
      <trkpt lat="41.6224600" lon="-8.7886300">
        <ele>75.6</ele>
        <time>2021-05-17T12:16:06Z</time>
      </trkpt>
      <trkpt lat="41.6224710" lon="-8.7886320">
        <ele>75.7</ele>
        <time>2021-05-17T12:16:07Z</time>
      </trkpt>
      <trkpt lat="41.6224860" lon="-8.7886350">
        <ele>75.9</ele>
        <time>2021-05-17T12:16:08Z</time>
      </trkpt>
      <trkpt lat="41.6225030" lon="-8.7886370">
        <ele>76.0</ele>
        <time>2021-05-17T12:16:09Z</time>
      </trkpt>
      <trkpt lat="41.6225150" lon="-8.7886370">
        <ele>76.1</ele>
        <time>2021-05-17T12:16:10Z</time>
      </trkpt>
      <trkpt lat="41.6225320" lon="-8.7886390">
        <ele>76.2</ele>
        <time>2021-05-17T12:16:11Z</time>
      </trkpt>
      <trkpt lat="41.6225430" lon="-8.7886370">
        <ele>76.3</ele>
        <time>2021-05-17T12:16:12Z</time>
      </trkpt>
      <trkpt lat="41.6225550" lon="-8.7886370">
        <ele>76.4</ele>
        <time>2021-05-17T12:16:13Z</time>
      </trkpt>
      <trkpt lat="41.6225670" lon="-8.7886430">
        <ele>76.6</ele>
        <time>2021-05-17T12:16:14Z</time>
      </trkpt>
      <trkpt lat="41.6225830" lon="-8.7886450">
        <ele>76.7</ele>
        <time>2021-05-17T12:16:15Z</time>
      </trkpt>
      <trkpt lat="41.6225950" lon="-8.7886530">
        <ele>76.8</ele>
        <time>2021-05-17T12:16:16Z</time>
      </trkpt>
      <trkpt lat="41.6226110" lon="-8.7886640">
        <ele>77.0</ele>
        <time>2021-05-17T12:16:17Z</time>
      </trkpt>
      <trkpt lat="41.6226230" lon="-8.7886740">
        <ele>77.2</ele>
        <time>2021-05-17T12:16:18Z</time>
      </trkpt>
      <trkpt lat="41.6226300" lon="-8.7886750">
        <ele>77.2</ele>
        <time>2021-05-17T12:16:19Z</time>
      </trkpt>
      <trkpt lat="41.6226380" lon="-8.7886870">
        <ele>77.4</ele>
        <time>2021-05-17T12:16:20Z</time>
      </trkpt>
      <trkpt lat="41.6226490" lon="-8.7886960">
        <ele>77.5</ele>
        <time>2021-05-17T12:16:21Z</time>
      </trkpt>
      <trkpt lat="41.6226690" lon="-8.7887130">
        <ele>77.7</ele>
        <time>2021-05-17T12:16:22Z</time>
      </trkpt>
      <trkpt lat="41.6226770" lon="-8.7887190">
        <ele>77.8</ele>
        <time>2021-05-17T12:16:23Z</time>
      </trkpt>
      <trkpt lat="41.6226850" lon="-8.7887240">
        <ele>77.9</ele>
        <time>2021-05-17T12:16:24Z</time>
      </trkpt>
      <trkpt lat="41.6227030" lon="-8.7887330">
        <ele>78.1</ele>
        <time>2021-05-17T12:16:25Z</time>
      </trkpt>
      <trkpt lat="41.6227130" lon="-8.7887400">
        <ele>78.2</ele>
        <time>2021-05-17T12:16:26Z</time>
      </trkpt>
      <trkpt lat="41.6227240" lon="-8.7887510">
        <ele>78.4</ele>
        <time>2021-05-17T12:16:27Z</time>
      </trkpt>
      <trkpt lat="41.6227370" lon="-8.7887510">
        <ele>78.5</ele>
        <time>2021-05-17T12:16:28Z</time>
      </trkpt>
      <trkpt lat="41.6227430" lon="-8.7887570">
        <ele>78.6</ele>
        <time>2021-05-17T12:16:29Z</time>
      </trkpt>
      <trkpt lat="41.6227680" lon="-8.7887600">
        <ele>78.8</ele>
        <time>2021-05-17T12:16:30Z</time>
      </trkpt>
      <trkpt lat="41.6227780" lon="-8.7887670">
        <ele>78.9</ele>
        <time>2021-05-17T12:16:31Z</time>
      </trkpt>
      <trkpt lat="41.6227890" lon="-8.7887810">
        <ele>79.1</ele>
        <time>2021-05-17T12:16:32Z</time>
      </trkpt>
      <trkpt lat="41.6227930" lon="-8.7887790">
        <ele>79.1</ele>
        <time>2021-05-17T12:16:33Z</time>
      </trkpt>
      <trkpt lat="41.6228040" lon="-8.7887890">
        <ele>79.2</ele>
        <time>2021-05-17T12:16:34Z</time>
      </trkpt>
      <trkpt lat="41.6228160" lon="-8.7887960">
        <ele>79.3</ele>
        <time>2021-05-17T12:16:35Z</time>
      </trkpt>
      <trkpt lat="41.6228280" lon="-8.7888060">
        <ele>79.4</ele>
        <time>2021-05-17T12:16:36Z</time>
      </trkpt>
      <trkpt lat="41.6228460" lon="-8.7888180">
        <ele>79.6</ele>
        <time>2021-05-17T12:16:37Z</time>
      </trkpt>
      <trkpt lat="41.6228560" lon="-8.7888250">
        <ele>79.7</ele>
        <time>2021-05-17T12:16:38Z</time>
      </trkpt>
      <trkpt lat="41.6228650" lon="-8.7888330">
        <ele>79.7</ele>
        <time>2021-05-17T12:16:39Z</time>
      </trkpt>
      <trkpt lat="41.6228790" lon="-8.7888400">
        <ele>79.8</ele>
        <time>2021-05-17T12:16:40Z</time>
      </trkpt>
      <trkpt lat="41.6228910" lon="-8.7888490">
        <ele>79.9</ele>
        <time>2021-05-17T12:16:41Z</time>
      </trkpt>
      <trkpt lat="41.6229030" lon="-8.7888590">
        <ele>80.0</ele>
        <time>2021-05-17T12:16:42Z</time>
      </trkpt>
      <trkpt lat="41.6229110" lon="-8.7888750">
        <ele>80.1</ele>
        <time>2021-05-17T12:16:43Z</time>
      </trkpt>
      <trkpt lat="41.6229230" lon="-8.7888860">
        <ele>80.2</ele>
        <time>2021-05-17T12:16:44Z</time>
      </trkpt>
      <trkpt lat="41.6229300" lon="-8.7888920">
        <ele>80.2</ele>
        <time>2021-05-17T12:16:45Z</time>
      </trkpt>
      <trkpt lat="41.6229370" lon="-8.7889050">
        <ele>80.2</ele>
        <time>2021-05-17T12:16:46Z</time>
      </trkpt>
      <trkpt lat="41.6229450" lon="-8.7889220">
        <ele>80.3</ele>
        <time>2021-05-17T12:16:47Z</time>
      </trkpt>
      <trkpt lat="41.6229590" lon="-8.7889380">
        <ele>80.4</ele>
        <time>2021-05-17T12:16:48Z</time>
      </trkpt>
      <trkpt lat="41.6229700" lon="-8.7889490">
        <ele>80.4</ele>
        <time>2021-05-17T12:16:49Z</time>
      </trkpt>
      <trkpt lat="41.6229810" lon="-8.7889620">
        <ele>80.4</ele>
        <time>2021-05-17T12:16:50Z</time>
      </trkpt>
      <trkpt lat="41.6229840" lon="-8.7889640">
        <ele>80.4</ele>
        <time>2021-05-17T12:16:51Z</time>
      </trkpt>
      <trkpt lat="41.6229960" lon="-8.7889660">
        <ele>80.5</ele>
        <time>2021-05-17T12:16:52Z</time>
      </trkpt>
      <trkpt lat="41.6230080" lon="-8.7889720">
        <ele>80.5</ele>
        <time>2021-05-17T12:16:53Z</time>
      </trkpt>
      <trkpt lat="41.6230220" lon="-8.7889860">
        <ele>80.5</ele>
        <time>2021-05-17T12:16:54Z</time>
      </trkpt>
      <trkpt lat="41.6230310" lon="-8.7889920">
        <ele>80.5</ele>
        <time>2021-05-17T12:16:55Z</time>
      </trkpt>
      <trkpt lat="41.6230390" lon="-8.7889990">
        <ele>80.5</ele>
        <time>2021-05-17T12:16:56Z</time>
      </trkpt>
      <trkpt lat="41.6230480" lon="-8.7890050">
        <ele>80.5</ele>
        <time>2021-05-17T12:16:57Z</time>
      </trkpt>
      <trkpt lat="41.6230750" lon="-8.7890100">
        <ele>80.6</ele>
        <time>2021-05-17T12:16:58Z</time>
      </trkpt>
      <trkpt lat="41.6230840" lon="-8.7890130">
        <ele>80.6</ele>
        <time>2021-05-17T12:16:59Z</time>
      </trkpt>
      <trkpt lat="41.6231090" lon="-8.7890310">
        <ele>80.6</ele>
        <time>2021-05-17T12:17:00Z</time>
      </trkpt>
      <trkpt lat="41.6231180" lon="-8.7890350">
        <ele>80.6</ele>
        <time>2021-05-17T12:17:01Z</time>
      </trkpt>
      <trkpt lat="41.6231410" lon="-8.7890470">
        <ele>80.6</ele>
        <time>2021-05-17T12:17:02Z</time>
      </trkpt>
      <trkpt lat="41.6231490" lon="-8.7890510">
        <ele>80.6</ele>
        <time>2021-05-17T12:17:03Z</time>
      </trkpt>
      <trkpt lat="41.6231580" lon="-8.7890550">
        <ele>80.6</ele>
        <time>2021-05-17T12:17:04Z</time>
      </trkpt>
      <trkpt lat="41.6231650" lon="-8.7890530">
        <ele>80.6</ele>
        <time>2021-05-17T12:17:05Z</time>
      </trkpt>
      <trkpt lat="41.6231700" lon="-8.7890600">
        <ele>80.6</ele>
        <time>2021-05-17T12:17:06Z</time>
      </trkpt>
      <trkpt lat="41.6231780" lon="-8.7890630">
        <ele>80.6</ele>
        <time>2021-05-17T12:17:07Z</time>
      </trkpt>
      <trkpt lat="41.6231850" lon="-8.7890700">
        <ele>80.6</ele>
        <time>2021-05-17T12:17:08Z</time>
      </trkpt>
      <trkpt lat="41.6231980" lon="-8.7890680">
        <ele>80.6</ele>
        <time>2021-05-17T12:17:09Z</time>
      </trkpt>
      <trkpt lat="41.6232060" lon="-8.7890730">
        <ele>80.6</ele>
        <time>2021-05-17T12:17:10Z</time>
      </trkpt>
      <trkpt lat="41.6232130" lon="-8.7890620">
        <ele>80.6</ele>
        <time>2021-05-17T12:17:11Z</time>
      </trkpt>
      <trkpt lat="41.6232320" lon="-8.7890420">
        <ele>80.7</ele>
        <time>2021-05-17T12:17:12Z</time>
      </trkpt>
      <trkpt lat="41.6232380" lon="-8.7890340">
        <ele>80.7</ele>
        <time>2021-05-17T12:17:13Z</time>
      </trkpt>
      <trkpt lat="41.6232430" lon="-8.7890260">
        <ele>80.8</ele>
        <time>2021-05-17T12:17:14Z</time>
      </trkpt>
      <trkpt lat="41.6232530" lon="-8.7890130">
        <ele>80.8</ele>
        <time>2021-05-17T12:17:15Z</time>
      </trkpt>
      <trkpt lat="41.6232600" lon="-8.7890060">
        <ele>80.8</ele>
        <time>2021-05-17T12:17:16Z</time>
      </trkpt>
      <trkpt lat="41.6232660" lon="-8.7889940">
        <ele>80.9</ele>
        <time>2021-05-17T12:17:17Z</time>
      </trkpt>
      <trkpt lat="41.6232810" lon="-8.7889820">
        <ele>81.0</ele>
        <time>2021-05-17T12:17:18Z</time>
      </trkpt>
      <trkpt lat="41.6232980" lon="-8.7889780">
        <ele>81.0</ele>
        <time>2021-05-17T12:17:19Z</time>
      </trkpt>
      <trkpt lat="41.6233130" lon="-8.7889660">
        <ele>81.1</ele>
        <time>2021-05-17T12:17:20Z</time>
      </trkpt>
      <trkpt lat="41.6233250" lon="-8.7889610">
        <ele>81.2</ele>
        <time>2021-05-17T12:17:21Z</time>
      </trkpt>
      <trkpt lat="41.6233360" lon="-8.7889570">
        <ele>81.2</ele>
        <time>2021-05-17T12:17:22Z</time>
      </trkpt>
      <trkpt lat="41.6233480" lon="-8.7889510">
        <ele>81.3</ele>
        <time>2021-05-17T12:17:23Z</time>
      </trkpt>
      <trkpt lat="41.6233580" lon="-8.7889450">
        <ele>81.3</ele>
        <time>2021-05-17T12:17:24Z</time>
      </trkpt>
      <trkpt lat="41.6233650" lon="-8.7889460">
        <ele>81.3</ele>
        <time>2021-05-17T12:17:25Z</time>
      </trkpt>
      <trkpt lat="41.6233900" lon="-8.7889380">
        <ele>81.5</ele>
        <time>2021-05-17T12:17:26Z</time>
      </trkpt>
      <trkpt lat="41.6233980" lon="-8.7889370">
        <ele>81.5</ele>
        <time>2021-05-17T12:17:27Z</time>
      </trkpt>
      <trkpt lat="41.6234060" lon="-8.7889360">
        <ele>81.6</ele>
        <time>2021-05-17T12:17:28Z</time>
      </trkpt>
      <trkpt lat="41.6234220" lon="-8.7889350">
        <ele>81.6</ele>
        <time>2021-05-17T12:17:29Z</time>
      </trkpt>
      <trkpt lat="41.6234350" lon="-8.7889360">
        <ele>81.7</ele>
        <time>2021-05-17T12:17:30Z</time>
      </trkpt>
      <trkpt lat="41.6234560" lon="-8.7889400">
        <ele>81.8</ele>
        <time>2021-05-17T12:17:31Z</time>
      </trkpt>
      <trkpt lat="41.6234650" lon="-8.7889420">
        <ele>81.9</ele>
        <time>2021-05-17T12:17:32Z</time>
      </trkpt>
      <trkpt lat="41.6234730" lon="-8.7889430">
        <ele>81.9</ele>
        <time>2021-05-17T12:17:33Z</time>
      </trkpt>
      <trkpt lat="41.6234950" lon="-8.7889460">
        <ele>82.0</ele>
        <time>2021-05-17T12:17:34Z</time>
      </trkpt>
      <trkpt lat="41.6235050" lon="-8.7889450">
        <ele>82.1</ele>
        <time>2021-05-17T12:17:35Z</time>
      </trkpt>
      <trkpt lat="41.6235150" lon="-8.7889450">
        <ele>82.1</ele>
        <time>2021-05-17T12:17:36Z</time>
      </trkpt>
      <trkpt lat="41.6235180" lon="-8.7889500">
        <ele>82.2</ele>
        <time>2021-05-17T12:17:37Z</time>
      </trkpt>
      <trkpt lat="41.6235260" lon="-8.7889590">
        <ele>82.2</ele>
        <time>2021-05-17T12:17:38Z</time>
      </trkpt>
      <trkpt lat="41.6235370" lon="-8.7889710">
        <ele>82.3</ele>
        <time>2021-05-17T12:17:39Z</time>
      </trkpt>
      <trkpt lat="41.6235540" lon="-8.7889840">
        <ele>82.4</ele>
        <time>2021-05-17T12:17:40Z</time>
      </trkpt>
      <trkpt lat="41.6235610" lon="-8.7889920">
        <ele>82.5</ele>
        <time>2021-05-17T12:17:41Z</time>
      </trkpt>
      <trkpt lat="41.6235680" lon="-8.7889980">
        <ele>82.5</ele>
        <time>2021-05-17T12:17:42Z</time>
      </trkpt>
      <trkpt lat="41.6235800" lon="-8.7890080">
        <ele>82.6</ele>
        <time>2021-05-17T12:17:43Z</time>
      </trkpt>
      <trkpt lat="41.6235890" lon="-8.7890150">
        <ele>82.7</ele>
        <time>2021-05-17T12:17:44Z</time>
      </trkpt>
      <trkpt lat="41.6236070" lon="-8.7890310">
        <ele>82.9</ele>
        <time>2021-05-17T12:17:45Z</time>
      </trkpt>
      <trkpt lat="41.6236140" lon="-8.7890390">
        <ele>82.9</ele>
        <time>2021-05-17T12:17:46Z</time>
      </trkpt>
      <trkpt lat="41.6236210" lon="-8.7890470">
        <ele>83.0</ele>
        <time>2021-05-17T12:17:47Z</time>
      </trkpt>
      <trkpt lat="41.6236320" lon="-8.7890600">
        <ele>83.1</ele>
        <time>2021-05-17T12:17:48Z</time>
      </trkpt>
      <trkpt lat="41.6236410" lon="-8.7890700">
        <ele>83.2</ele>
        <time>2021-05-17T12:17:49Z</time>
      </trkpt>
      <trkpt lat="41.6236500" lon="-8.7890790">
        <ele>83.3</ele>
        <time>2021-05-17T12:17:50Z</time>
      </trkpt>
      <trkpt lat="41.6236710" lon="-8.7891040">
        <ele>83.5</ele>
        <time>2021-05-17T12:17:51Z</time>
      </trkpt>
      <trkpt lat="41.6236780" lon="-8.7891140">
        <ele>83.6</ele>
        <time>2021-05-17T12:17:52Z</time>
      </trkpt>
      <trkpt lat="41.6236930" lon="-8.7891230">
        <ele>83.7</ele>
        <time>2021-05-17T12:17:53Z</time>
      </trkpt>
      <trkpt lat="41.6237080" lon="-8.7891300">
        <ele>83.8</ele>
        <time>2021-05-17T12:17:54Z</time>
      </trkpt>
      <trkpt lat="41.6237240" lon="-8.7891400">
        <ele>84.0</ele>
        <time>2021-05-17T12:17:55Z</time>
      </trkpt>
      <trkpt lat="41.6237310" lon="-8.7891460">
        <ele>84.1</ele>
        <time>2021-05-17T12:17:56Z</time>
      </trkpt>
      <trkpt lat="41.6237370" lon="-8.7891530">
        <ele>84.1</ele>
        <time>2021-05-17T12:17:57Z</time>
      </trkpt>
      <trkpt lat="41.6237440" lon="-8.7891600">
        <ele>84.2</ele>
        <time>2021-05-17T12:17:58Z</time>
      </trkpt>
      <trkpt lat="41.6237630" lon="-8.7891670">
        <ele>84.4</ele>
        <time>2021-05-17T12:17:59Z</time>
      </trkpt>
      <trkpt lat="41.6237710" lon="-8.7891720">
        <ele>84.5</ele>
        <time>2021-05-17T12:18:00Z</time>
      </trkpt>
      <trkpt lat="41.6237790" lon="-8.7891760">
        <ele>84.6</ele>
        <time>2021-05-17T12:18:01Z</time>
      </trkpt>
      <trkpt lat="41.6237930" lon="-8.7891840">
        <ele>84.7</ele>
        <time>2021-05-17T12:18:02Z</time>
      </trkpt>
      <trkpt lat="41.6238030" lon="-8.7891820">
        <ele>84.8</ele>
        <time>2021-05-17T12:18:03Z</time>
      </trkpt>
      <trkpt lat="41.6238080" lon="-8.7891850">
        <ele>84.9</ele>
        <time>2021-05-17T12:18:04Z</time>
      </trkpt>
      <trkpt lat="41.6238230" lon="-8.7891820">
        <ele>85.1</ele>
        <time>2021-05-17T12:18:05Z</time>
      </trkpt>
      <trkpt lat="41.6238330" lon="-8.7891820">
        <ele>85.2</ele>
        <time>2021-05-17T12:18:06Z</time>
      </trkpt>
      <trkpt lat="41.6238390" lon="-8.7891790">
        <ele>85.2</ele>
        <time>2021-05-17T12:18:07Z</time>
      </trkpt>
      <trkpt lat="41.6238560" lon="-8.7891760">
        <ele>85.4</ele>
        <time>2021-05-17T12:18:08Z</time>
      </trkpt>
      <trkpt lat="41.6238640" lon="-8.7891760">
        <ele>85.5</ele>
        <time>2021-05-17T12:18:09Z</time>
      </trkpt>
      <trkpt lat="41.6238710" lon="-8.7891770">
        <ele>85.6</ele>
        <time>2021-05-17T12:18:10Z</time>
      </trkpt>
      <trkpt lat="41.6238780" lon="-8.7891770">
        <ele>85.7</ele>
        <time>2021-05-17T12:18:11Z</time>
      </trkpt>
      <trkpt lat="41.6238940" lon="-8.7891720">
        <ele>85.9</ele>
        <time>2021-05-17T12:18:12Z</time>
      </trkpt>
      <trkpt lat="41.6239000" lon="-8.7891720">
        <ele>85.9</ele>
        <time>2021-05-17T12:18:13Z</time>
      </trkpt>
      <trkpt lat="41.6239110" lon="-8.7891640">
        <ele>86.1</ele>
        <time>2021-05-17T12:18:14Z</time>
      </trkpt>
      <trkpt lat="41.6239280" lon="-8.7891500">
        <ele>86.3</ele>
        <time>2021-05-17T12:18:15Z</time>
      </trkpt>
      <trkpt lat="41.6239360" lon="-8.7891460">
        <ele>86.4</ele>
        <time>2021-05-17T12:18:16Z</time>
      </trkpt>
      <trkpt lat="41.6239450" lon="-8.7891430">
        <ele>86.5</ele>
        <time>2021-05-17T12:18:17Z</time>
      </trkpt>
      <trkpt lat="41.6239470" lon="-8.7891350">
        <ele>86.6</ele>
        <time>2021-05-17T12:18:18Z</time>
      </trkpt>
      <trkpt lat="41.6239610" lon="-8.7891300">
        <ele>86.8</ele>
        <time>2021-05-17T12:18:19Z</time>
      </trkpt>
      <trkpt lat="41.6239730" lon="-8.7891160">
        <ele>87.0</ele>
        <time>2021-05-17T12:18:20Z</time>
      </trkpt>
      <trkpt lat="41.6240020" lon="-8.7891080">
        <ele>87.4</ele>
        <time>2021-05-17T12:18:21Z</time>
      </trkpt>
      <trkpt lat="41.6240120" lon="-8.7891070">
        <ele>87.5</ele>
        <time>2021-05-17T12:18:22Z</time>
      </trkpt>
      <trkpt lat="41.6240250" lon="-8.7891000">
        <ele>87.7</ele>
        <time>2021-05-17T12:18:23Z</time>
      </trkpt>
      <trkpt lat="41.6240310" lon="-8.7890920">
        <ele>87.8</ele>
        <time>2021-05-17T12:18:24Z</time>
      </trkpt>
      <trkpt lat="41.6240400" lon="-8.7890790">
        <ele>87.9</ele>
        <time>2021-05-17T12:18:25Z</time>
      </trkpt>
      <trkpt lat="41.6240470" lon="-8.7890670">
        <ele>88.1</ele>
        <time>2021-05-17T12:18:26Z</time>
      </trkpt>
      <trkpt lat="41.6240550" lon="-8.7890600">
        <ele>88.2</ele>
        <time>2021-05-17T12:18:27Z</time>
      </trkpt>
      <trkpt lat="41.6240670" lon="-8.7890490">
        <ele>88.4</ele>
        <time>2021-05-17T12:18:28Z</time>
      </trkpt>
      <trkpt lat="41.6240760" lon="-8.7890330">
        <ele>88.6</ele>
        <time>2021-05-17T12:18:29Z</time>
      </trkpt>
      <trkpt lat="41.6240850" lon="-8.7890270">
        <ele>88.7</ele>
        <time>2021-05-17T12:18:30Z</time>
      </trkpt>
      <trkpt lat="41.6240900" lon="-8.7890250">
        <ele>88.8</ele>
        <time>2021-05-17T12:18:31Z</time>
      </trkpt>
      <trkpt lat="41.6240960" lon="-8.7890130">
        <ele>88.9</ele>
        <time>2021-05-17T12:18:32Z</time>
      </trkpt>
      <trkpt lat="41.6240960" lon="-8.7890010">
        <ele>89.0</ele>
        <time>2021-05-17T12:18:33Z</time>
      </trkpt>
      <trkpt lat="41.6241000" lon="-8.7889910">
        <ele>89.1</ele>
        <time>2021-05-17T12:18:34Z</time>
      </trkpt>
      <trkpt lat="41.6240990" lon="-8.7889860">
        <ele>89.2</ele>
        <time>2021-05-17T12:18:35Z</time>
      </trkpt>
      <trkpt lat="41.6241080" lon="-8.7889720">
        <ele>89.4</ele>
        <time>2021-05-17T12:18:36Z</time>
      </trkpt>
      <trkpt lat="41.6241190" lon="-8.7889600">
        <ele>89.6</ele>
        <time>2021-05-17T12:18:37Z</time>
      </trkpt>
      <trkpt lat="41.6241360" lon="-8.7889450">
        <ele>89.8</ele>
        <time>2021-05-17T12:18:38Z</time>
      </trkpt>
      <trkpt lat="41.6241410" lon="-8.7889360">
        <ele>89.9</ele>
        <time>2021-05-17T12:18:39Z</time>
      </trkpt>
      <trkpt lat="41.6241530" lon="-8.7889270">
        <ele>90.1</ele>
        <time>2021-05-17T12:18:40Z</time>
      </trkpt>
      <trkpt lat="41.6241610" lon="-8.7889250">
        <ele>90.2</ele>
        <time>2021-05-17T12:18:41Z</time>
      </trkpt>
      <trkpt lat="41.6241750" lon="-8.7889300">
        <ele>90.4</ele>
        <time>2021-05-17T12:18:42Z</time>
      </trkpt>
      <trkpt lat="41.6241850" lon="-8.7889280">
        <ele>90.6</ele>
        <time>2021-05-17T12:18:43Z</time>
      </trkpt>
      <trkpt lat="41.6241930" lon="-8.7889230">
        <ele>90.7</ele>
        <time>2021-05-17T12:18:44Z</time>
      </trkpt>
      <trkpt lat="41.6242070" lon="-8.7889150">
        <ele>90.9</ele>
        <time>2021-05-17T12:18:45Z</time>
      </trkpt>
      <trkpt lat="41.6242120" lon="-8.7889130">
        <ele>91.0</ele>
        <time>2021-05-17T12:18:46Z</time>
      </trkpt>
      <trkpt lat="41.6242210" lon="-8.7889110">
        <ele>91.1</ele>
        <time>2021-05-17T12:18:47Z</time>
      </trkpt>
      <trkpt lat="41.6242270" lon="-8.7889130">
        <ele>91.2</ele>
        <time>2021-05-17T12:18:48Z</time>
      </trkpt>
      <trkpt lat="41.6242370" lon="-8.7889170">
        <ele>91.3</ele>
        <time>2021-05-17T12:18:49Z</time>
      </trkpt>
      <trkpt lat="41.6242390" lon="-8.7889180">
        <ele>91.3</ele>
        <time>2021-05-17T12:18:50Z</time>
      </trkpt>
      <trkpt lat="41.6242440" lon="-8.7889120">
        <ele>91.4</ele>
        <time>2021-05-17T12:18:51Z</time>
      </trkpt>
      <trkpt lat="41.6242430" lon="-8.7889000">
        <ele>91.6</ele>
        <time>2021-05-17T12:18:52Z</time>
      </trkpt>
      <trkpt lat="41.6242440" lon="-8.7888950">
        <ele>91.6</ele>
        <time>2021-05-17T12:18:53Z</time>
      </trkpt>
      <trkpt lat="41.6242440" lon="-8.7888890">
        <ele>91.7</ele>
        <time>2021-05-17T12:18:54Z</time>
      </trkpt>
      <trkpt lat="41.6242470" lon="-8.7888880">
        <ele>91.7</ele>
        <time>2021-05-17T12:18:55Z</time>
      </trkpt>
      <trkpt lat="41.6242470" lon="-8.7888860">
        <ele>91.7</ele>
        <time>2021-05-17T12:18:56Z</time>
      </trkpt>
      <trkpt lat="41.6242480" lon="-8.7888860">
        <ele>91.7</ele>
        <time>2021-05-17T12:18:57Z</time>
      </trkpt>
      <trkpt lat="41.6242480" lon="-8.7888840">
        <ele>91.8</ele>
        <time>2021-05-17T12:18:58Z</time>
      </trkpt>
      <trkpt lat="41.6242480" lon="-8.7888820">
        <ele>91.8</ele>
        <time>2021-05-17T12:18:59Z</time>
      </trkpt>
      <trkpt lat="41.6242540" lon="-8.7888780">
        <ele>91.9</ele>
        <time>2021-05-17T12:19:00Z</time>
      </trkpt>
      <trkpt lat="41.6242540" lon="-8.7888780">
        <ele>91.9</ele>
        <time>2021-05-17T12:19:01Z</time>
      </trkpt>
      <trkpt lat="41.6242530" lon="-8.7888730">
        <ele>91.9</ele>
        <time>2021-05-17T12:19:02Z</time>
      </trkpt>
      <trkpt lat="41.6242600" lon="-8.7888740">
        <ele>92.0</ele>
        <time>2021-05-17T12:19:03Z</time>
      </trkpt>
      <trkpt lat="41.6242650" lon="-8.7888710">
        <ele>92.4</ele>
        <time>2021-05-17T12:19:04Z</time>
      </trkpt>
      <trkpt lat="41.6242690" lon="-8.7888710">
        <ele>92.5</ele>
        <time>2021-05-17T12:19:05Z</time>
      </trkpt>
      <trkpt lat="41.6242770" lon="-8.7888760">
        <ele>92.6</ele>
        <time>2021-05-17T12:19:06Z</time>
      </trkpt>
      <trkpt lat="41.6242880" lon="-8.7888900">
        <ele>92.8</ele>
        <time>2021-05-17T12:19:07Z</time>
      </trkpt>
      <trkpt lat="41.6242860" lon="-8.7888840">
        <ele>92.8</ele>
        <time>2021-05-17T12:19:08Z</time>
      </trkpt>
      <trkpt lat="41.6242850" lon="-8.7888800">
        <ele>92.9</ele>
        <time>2021-05-17T12:19:09Z</time>
      </trkpt>
      <trkpt lat="41.6242860" lon="-8.7888780">
        <ele>92.9</ele>
        <time>2021-05-17T12:19:10Z</time>
      </trkpt>
      <trkpt lat="41.6242860" lon="-8.7888790">
        <ele>92.9</ele>
        <time>2021-05-17T12:19:11Z</time>
      </trkpt>
      <trkpt lat="41.6242850" lon="-8.7888820">
        <ele>92.9</ele>
        <time>2021-05-17T12:19:12Z</time>
      </trkpt>
      <trkpt lat="41.6242860" lon="-8.7888810">
        <ele>92.9</ele>
        <time>2021-05-17T12:19:13Z</time>
      </trkpt>
      <trkpt lat="41.6242840" lon="-8.7888790">
        <ele>93.0</ele>
        <time>2021-05-17T12:19:14Z</time>
      </trkpt>
      <trkpt lat="41.6242850" lon="-8.7888820">
        <ele>93.0</ele>
        <time>2021-05-17T12:19:15Z</time>
      </trkpt>
      <trkpt lat="41.6242870" lon="-8.7888930">
        <ele>93.1</ele>
        <time>2021-05-17T12:19:16Z</time>
      </trkpt>
      <trkpt lat="41.6242840" lon="-8.7888910">
        <ele>93.2</ele>
        <time>2021-05-17T12:19:17Z</time>
      </trkpt>
      <trkpt lat="41.6242930" lon="-8.7889060">
        <ele>93.3</ele>
        <time>2021-05-17T12:19:18Z</time>
      </trkpt>
      <trkpt lat="41.6243040" lon="-8.7889260">
        <ele>93.6</ele>
        <time>2021-05-17T12:19:19Z</time>
      </trkpt>
      <trkpt lat="41.6243100" lon="-8.7889310">
        <ele>93.6</ele>
        <time>2021-05-17T12:19:20Z</time>
      </trkpt>
      <trkpt lat="41.6243150" lon="-8.7889370">
        <ele>93.7</ele>
        <time>2021-05-17T12:19:21Z</time>
      </trkpt>
      <trkpt lat="41.6243210" lon="-8.7889420">
        <ele>93.8</ele>
        <time>2021-05-17T12:19:22Z</time>
      </trkpt>
      <trkpt lat="41.6243270" lon="-8.7889520">
        <ele>93.9</ele>
        <time>2021-05-17T12:19:23Z</time>
      </trkpt>
      <trkpt lat="41.6243390" lon="-8.7889630">
        <ele>94.1</ele>
        <time>2021-05-17T12:19:24Z</time>
      </trkpt>
      <trkpt lat="41.6243390" lon="-8.7889770">
        <ele>94.2</ele>
        <time>2021-05-17T12:19:25Z</time>
      </trkpt>
      <trkpt lat="41.6243400" lon="-8.7890040">
        <ele>94.4</ele>
        <time>2021-05-17T12:19:26Z</time>
      </trkpt>
      <trkpt lat="41.6243400" lon="-8.7890170">
        <ele>94.5</ele>
        <time>2021-05-17T12:19:27Z</time>
      </trkpt>
      <trkpt lat="41.6243390" lon="-8.7890300">
        <ele>94.6</ele>
        <time>2021-05-17T12:19:28Z</time>
      </trkpt>
      <trkpt lat="41.6243390" lon="-8.7890480">
        <ele>94.8</ele>
        <time>2021-05-17T12:19:29Z</time>
      </trkpt>
      <trkpt lat="41.6243410" lon="-8.7890660">
        <ele>94.9</ele>
        <time>2021-05-17T12:19:30Z</time>
      </trkpt>
      <trkpt lat="41.6243420" lon="-8.7890830">
        <ele>95.1</ele>
        <time>2021-05-17T12:19:31Z</time>
      </trkpt>
      <trkpt lat="41.6243420" lon="-8.7891010">
        <ele>95.2</ele>
        <time>2021-05-17T12:19:32Z</time>
      </trkpt>
      <trkpt lat="41.6243440" lon="-8.7891140">
        <ele>95.3</ele>
        <time>2021-05-17T12:19:33Z</time>
      </trkpt>
      <trkpt lat="41.6243500" lon="-8.7891460">
        <ele>95.5</ele>
        <time>2021-05-17T12:19:34Z</time>
      </trkpt>
      <trkpt lat="41.6243520" lon="-8.7891580">
        <ele>95.6</ele>
        <time>2021-05-17T12:19:35Z</time>
      </trkpt>
      <trkpt lat="41.6243540" lon="-8.7891700">
        <ele>95.7</ele>
        <time>2021-05-17T12:19:36Z</time>
      </trkpt>
      <trkpt lat="41.6243530" lon="-8.7891860">
        <ele>95.8</ele>
        <time>2021-05-17T12:19:37Z</time>
      </trkpt>
      <trkpt lat="41.6243540" lon="-8.7891930">
        <ele>95.9</ele>
        <time>2021-05-17T12:19:38Z</time>
      </trkpt>
      <trkpt lat="41.6243560" lon="-8.7892060">
        <ele>96.0</ele>
        <time>2021-05-17T12:19:39Z</time>
      </trkpt>
      <trkpt lat="41.6243540" lon="-8.7892220">
        <ele>96.1</ele>
        <time>2021-05-17T12:19:40Z</time>
      </trkpt>
      <trkpt lat="41.6243560" lon="-8.7892330">
        <ele>96.2</ele>
        <time>2021-05-17T12:19:41Z</time>
      </trkpt>
      <trkpt lat="41.6243580" lon="-8.7892450">
        <ele>96.3</ele>
        <time>2021-05-17T12:19:42Z</time>
      </trkpt>
      <trkpt lat="41.6243600" lon="-8.7892560">
        <ele>96.3</ele>
        <time>2021-05-17T12:19:43Z</time>
      </trkpt>
      <trkpt lat="41.6243630" lon="-8.7892700">
        <ele>96.4</ele>
        <time>2021-05-17T12:19:44Z</time>
      </trkpt>
      <trkpt lat="41.6243670" lon="-8.7892830">
        <ele>96.6</ele>
        <time>2021-05-17T12:19:45Z</time>
      </trkpt>
      <trkpt lat="41.6243710" lon="-8.7893020">
        <ele>96.7</ele>
        <time>2021-05-17T12:19:46Z</time>
      </trkpt>
      <trkpt lat="41.6243710" lon="-8.7893110">
        <ele>96.8</ele>
        <time>2021-05-17T12:19:47Z</time>
      </trkpt>
      <trkpt lat="41.6243750" lon="-8.7893140">
        <ele>96.8</ele>
        <time>2021-05-17T12:19:48Z</time>
      </trkpt>
      <trkpt lat="41.6243820" lon="-8.7893330">
        <ele>96.9</ele>
        <time>2021-05-17T12:19:49Z</time>
      </trkpt>
      <trkpt lat="41.6243830" lon="-8.7893420">
        <ele>97.0</ele>
        <time>2021-05-17T12:19:50Z</time>
      </trkpt>
      <trkpt lat="41.6243840" lon="-8.7893720">
        <ele>97.2</ele>
        <time>2021-05-17T12:19:51Z</time>
      </trkpt>
      <trkpt lat="41.6243860" lon="-8.7893840">
        <ele>97.3</ele>
        <time>2021-05-17T12:19:52Z</time>
      </trkpt>
      <trkpt lat="41.6243870" lon="-8.7893950">
        <ele>97.4</ele>
        <time>2021-05-17T12:19:53Z</time>
      </trkpt>
      <trkpt lat="41.6243910" lon="-8.7894160">
        <ele>97.5</ele>
        <time>2021-05-17T12:19:54Z</time>
      </trkpt>
      <trkpt lat="41.6243920" lon="-8.7894360">
        <ele>97.6</ele>
        <time>2021-05-17T12:19:55Z</time>
      </trkpt>
      <trkpt lat="41.6243960" lon="-8.7894530">
        <ele>97.8</ele>
        <time>2021-05-17T12:19:56Z</time>
      </trkpt>
      <trkpt lat="41.6243990" lon="-8.7894580">
        <ele>97.8</ele>
        <time>2021-05-17T12:19:57Z</time>
      </trkpt>
      <trkpt lat="41.6244080" lon="-8.7894800">
        <ele>98.0</ele>
        <time>2021-05-17T12:19:58Z</time>
      </trkpt>
      <trkpt lat="41.6244130" lon="-8.7895050">
        <ele>98.1</ele>
        <time>2021-05-17T12:19:59Z</time>
      </trkpt>
      <trkpt lat="41.6244170" lon="-8.7895160">
        <ele>98.2</ele>
        <time>2021-05-17T12:20:00Z</time>
      </trkpt>
      <trkpt lat="41.6244200" lon="-8.7895260">
        <ele>98.3</ele>
        <time>2021-05-17T12:20:01Z</time>
      </trkpt>
      <trkpt lat="41.6244230" lon="-8.7895410">
        <ele>98.5</ele>
        <time>2021-05-17T12:20:02Z</time>
      </trkpt>
      <trkpt lat="41.6244240" lon="-8.7895460">
        <ele>98.5</ele>
        <time>2021-05-17T12:20:03Z</time>
      </trkpt>
      <trkpt lat="41.6244250" lon="-8.7895500">
        <ele>98.6</ele>
        <time>2021-05-17T12:20:04Z</time>
      </trkpt>
      <trkpt lat="41.6244270" lon="-8.7895540">
        <ele>98.6</ele>
        <time>2021-05-17T12:20:05Z</time>
      </trkpt>
      <trkpt lat="41.6244280" lon="-8.7895590">
        <ele>98.7</ele>
        <time>2021-05-17T12:20:06Z</time>
      </trkpt>
      <trkpt lat="41.6244290" lon="-8.7895630">
        <ele>98.7</ele>
        <time>2021-05-17T12:20:07Z</time>
      </trkpt>
      <trkpt lat="41.6244300" lon="-8.7895680">
        <ele>98.8</ele>
        <time>2021-05-17T12:20:08Z</time>
      </trkpt>
      <trkpt lat="41.6244310" lon="-8.7895720">
        <ele>98.8</ele>
        <time>2021-05-17T12:20:09Z</time>
      </trkpt>
      <trkpt lat="41.6244390" lon="-8.7895900">
        <ele>99.0</ele>
        <time>2021-05-17T12:20:10Z</time>
      </trkpt>
      <trkpt lat="41.6244520" lon="-8.7895910">
        <ele>99.2</ele>
        <time>2021-05-17T12:20:11Z</time>
      </trkpt>
      <trkpt lat="41.6244640" lon="-8.7895910">
        <ele>99.4</ele>
        <time>2021-05-17T12:20:12Z</time>
      </trkpt>
      <trkpt lat="41.6244700" lon="-8.7895930">
        <ele>99.5</ele>
        <time>2021-05-17T12:20:13Z</time>
      </trkpt>
      <trkpt lat="41.6244840" lon="-8.7895930">
        <ele>99.7</ele>
        <time>2021-05-17T12:20:14Z</time>
      </trkpt>
      <trkpt lat="41.6244960" lon="-8.7895950">
        <ele>99.8</ele>
        <time>2021-05-17T12:20:15Z</time>
      </trkpt>
      <trkpt lat="41.6245000" lon="-8.7896000">
        <ele>99.9</ele>
        <time>2021-05-17T12:20:16Z</time>
      </trkpt>
      <trkpt lat="41.6245100" lon="-8.7896040">
        <ele>100.0</ele>
        <time>2021-05-17T12:20:17Z</time>
      </trkpt>
      <trkpt lat="41.6245140" lon="-8.7896080">
        <ele>100.1</ele>
        <time>2021-05-17T12:20:18Z</time>
      </trkpt>
      <trkpt lat="41.6245220" lon="-8.7896100">
        <ele>100.2</ele>
        <time>2021-05-17T12:20:19Z</time>
      </trkpt>
      <trkpt lat="41.6245270" lon="-8.7896090">
        <ele>100.3</ele>
        <time>2021-05-17T12:20:20Z</time>
      </trkpt>
      <trkpt lat="41.6245400" lon="-8.7896130">
        <ele>100.5</ele>
        <time>2021-05-17T12:20:21Z</time>
      </trkpt>
      <trkpt lat="41.6245570" lon="-8.7896130">
        <ele>100.7</ele>
        <time>2021-05-17T12:20:22Z</time>
      </trkpt>
      <trkpt lat="41.6245710" lon="-8.7896100">
        <ele>100.9</ele>
        <time>2021-05-17T12:20:23Z</time>
      </trkpt>
      <trkpt lat="41.6245770" lon="-8.7896200">
        <ele>101.0</ele>
        <time>2021-05-17T12:20:24Z</time>
      </trkpt>
      <trkpt lat="41.6245850" lon="-8.7896260">
        <ele>101.2</ele>
        <time>2021-05-17T12:20:25Z</time>
      </trkpt>
      <trkpt lat="41.6245920" lon="-8.7896290">
        <ele>101.3</ele>
        <time>2021-05-17T12:20:26Z</time>
      </trkpt>
      <trkpt lat="41.6246020" lon="-8.7896430">
        <ele>101.5</ele>
        <time>2021-05-17T12:20:27Z</time>
      </trkpt>
      <trkpt lat="41.6246150" lon="-8.7896400">
        <ele>101.6</ele>
        <time>2021-05-17T12:20:28Z</time>
      </trkpt>
      <trkpt lat="41.6246230" lon="-8.7896320">
        <ele>101.8</ele>
        <time>2021-05-17T12:20:29Z</time>
      </trkpt>
      <trkpt lat="41.6246410" lon="-8.7896300">
        <ele>102.0</ele>
        <time>2021-05-17T12:20:30Z</time>
      </trkpt>
      <trkpt lat="41.6246580" lon="-8.7896180">
        <ele>102.3</ele>
        <time>2021-05-17T12:20:31Z</time>
      </trkpt>
      <trkpt lat="41.6246660" lon="-8.7896140">
        <ele>102.4</ele>
        <time>2021-05-17T12:20:32Z</time>
      </trkpt>
      <trkpt lat="41.6246750" lon="-8.7896110">
        <ele>102.5</ele>
        <time>2021-05-17T12:20:33Z</time>
      </trkpt>
      <trkpt lat="41.6246860" lon="-8.7896110">
        <ele>102.7</ele>
        <time>2021-05-17T12:20:34Z</time>
      </trkpt>
      <trkpt lat="41.6246890" lon="-8.7896110">
        <ele>102.7</ele>
        <time>2021-05-17T12:20:35Z</time>
      </trkpt>
      <trkpt lat="41.6246990" lon="-8.7896060">
        <ele>102.9</ele>
        <time>2021-05-17T12:20:36Z</time>
      </trkpt>
      <trkpt lat="41.6247090" lon="-8.7896030">
        <ele>103.0</ele>
        <time>2021-05-17T12:20:37Z</time>
      </trkpt>
      <trkpt lat="41.6247180" lon="-8.7896030">
        <ele>103.1</ele>
        <time>2021-05-17T12:20:38Z</time>
      </trkpt>
      <trkpt lat="41.6247270" lon="-8.7896000">
        <ele>103.3</ele>
        <time>2021-05-17T12:20:39Z</time>
      </trkpt>
      <trkpt lat="41.6247390" lon="-8.7896030">
        <ele>103.4</ele>
        <time>2021-05-17T12:20:40Z</time>
      </trkpt>
      <trkpt lat="41.6247480" lon="-8.7896060">
        <ele>103.5</ele>
        <time>2021-05-17T12:20:41Z</time>
      </trkpt>
      <trkpt lat="41.6247580" lon="-8.7896040">
        <ele>103.7</ele>
        <time>2021-05-17T12:20:42Z</time>
      </trkpt>
      <trkpt lat="41.6247560" lon="-8.7896010">
        <ele>103.7</ele>
        <time>2021-05-17T12:20:43Z</time>
      </trkpt>
      <trkpt lat="41.6247670" lon="-8.7895870">
        <ele>103.9</ele>
        <time>2021-05-17T12:20:44Z</time>
      </trkpt>
      <trkpt lat="41.6247740" lon="-8.7895680">
        <ele>104.1</ele>
        <time>2021-05-17T12:20:45Z</time>
      </trkpt>
      <trkpt lat="41.6247840" lon="-8.7895580">
        <ele>104.3</ele>
        <time>2021-05-17T12:20:46Z</time>
      </trkpt>
      <trkpt lat="41.6247940" lon="-8.7895510">
        <ele>104.4</ele>
        <time>2021-05-17T12:20:47Z</time>
      </trkpt>
      <trkpt lat="41.6248030" lon="-8.7895420">
        <ele>104.6</ele>
        <time>2021-05-17T12:20:48Z</time>
      </trkpt>
      <trkpt lat="41.6248080" lon="-8.7895270">
        <ele>104.8</ele>
        <time>2021-05-17T12:20:49Z</time>
      </trkpt>
      <trkpt lat="41.6248150" lon="-8.7895140">
        <ele>104.9</ele>
        <time>2021-05-17T12:20:50Z</time>
      </trkpt>
      <trkpt lat="41.6248230" lon="-8.7894990">
        <ele>105.1</ele>
        <time>2021-05-17T12:20:51Z</time>
      </trkpt>
      <trkpt lat="41.6248320" lon="-8.7894970">
        <ele>105.2</ele>
        <time>2021-05-17T12:20:52Z</time>
      </trkpt>
      <trkpt lat="41.6248350" lon="-8.7894800">
        <ele>105.4</ele>
        <time>2021-05-17T12:20:53Z</time>
      </trkpt>
      <trkpt lat="41.6248410" lon="-8.7894740">
        <ele>105.5</ele>
        <time>2021-05-17T12:20:54Z</time>
      </trkpt>
      <trkpt lat="41.6248460" lon="-8.7894580">
        <ele>105.7</ele>
        <time>2021-05-17T12:20:55Z</time>
      </trkpt>
      <trkpt lat="41.6248590" lon="-8.7894340">
        <ele>106.0</ele>
        <time>2021-05-17T12:20:56Z</time>
      </trkpt>
      <trkpt lat="41.6248610" lon="-8.7894240">
        <ele>106.1</ele>
        <time>2021-05-17T12:20:57Z</time>
      </trkpt>
      <trkpt lat="41.6248640" lon="-8.7894150">
        <ele>106.2</ele>
        <time>2021-05-17T12:20:58Z</time>
      </trkpt>
      <trkpt lat="41.6248700" lon="-8.7894060">
        <ele>106.3</ele>
        <time>2021-05-17T12:20:59Z</time>
      </trkpt>
      <trkpt lat="41.6248720" lon="-8.7893920">
        <ele>106.5</ele>
        <time>2021-05-17T12:21:00Z</time>
      </trkpt>
      <trkpt lat="41.6248810" lon="-8.7893790">
        <ele>106.6</ele>
        <time>2021-05-17T12:21:01Z</time>
      </trkpt>
      <trkpt lat="41.6248870" lon="-8.7893720">
        <ele>106.7</ele>
        <time>2021-05-17T12:21:02Z</time>
      </trkpt>
      <trkpt lat="41.6248950" lon="-8.7893630">
        <ele>106.9</ele>
        <time>2021-05-17T12:21:03Z</time>
      </trkpt>
      <trkpt lat="41.6248980" lon="-8.7893530">
        <ele>107.0</ele>
        <time>2021-05-17T12:21:04Z</time>
      </trkpt>
      <trkpt lat="41.6249050" lon="-8.7893480">
        <ele>107.1</ele>
        <time>2021-05-17T12:21:05Z</time>
      </trkpt>
      <trkpt lat="41.6249190" lon="-8.7893310">
        <ele>107.3</ele>
        <time>2021-05-17T12:21:06Z</time>
      </trkpt>
      <trkpt lat="41.6249290" lon="-8.7893200">
        <ele>107.5</ele>
        <time>2021-05-17T12:21:07Z</time>
      </trkpt>
      <trkpt lat="41.6249430" lon="-8.7893020">
        <ele>107.7</ele>
        <time>2021-05-17T12:21:08Z</time>
      </trkpt>
      <trkpt lat="41.6249500" lon="-8.7892940">
        <ele>107.8</ele>
        <time>2021-05-17T12:21:09Z</time>
      </trkpt>
      <trkpt lat="41.6249580" lon="-8.7892860">
        <ele>108.0</ele>
        <time>2021-05-17T12:21:10Z</time>
      </trkpt>
      <trkpt lat="41.6249680" lon="-8.7892700">
        <ele>108.2</ele>
        <time>2021-05-17T12:21:11Z</time>
      </trkpt>
      <trkpt lat="41.6249720" lon="-8.7892510">
        <ele>108.3</ele>
        <time>2021-05-17T12:21:12Z</time>
      </trkpt>
      <trkpt lat="41.6249770" lon="-8.7892400">
        <ele>108.5</ele>
        <time>2021-05-17T12:21:13Z</time>
      </trkpt>
      <trkpt lat="41.6249850" lon="-8.7892250">
        <ele>108.6</ele>
        <time>2021-05-17T12:21:14Z</time>
      </trkpt>
      <trkpt lat="41.6249960" lon="-8.7892240">
        <ele>108.8</ele>
        <time>2021-05-17T12:21:15Z</time>
      </trkpt>
      <trkpt lat="41.6250080" lon="-8.7892050">
        <ele>109.0</ele>
        <time>2021-05-17T12:21:16Z</time>
      </trkpt>
      <trkpt lat="41.6250170" lon="-8.7891980">
        <ele>109.1</ele>
        <time>2021-05-17T12:21:17Z</time>
      </trkpt>
      <trkpt lat="41.6250250" lon="-8.7891910">
        <ele>109.3</ele>
        <time>2021-05-17T12:21:18Z</time>
      </trkpt>
      <trkpt lat="41.6250380" lon="-8.7891790">
        <ele>109.5</ele>
        <time>2021-05-17T12:21:19Z</time>
      </trkpt>
      <trkpt lat="41.6250440" lon="-8.7891610">
        <ele>109.6</ele>
        <time>2021-05-17T12:21:20Z</time>
      </trkpt>
      <trkpt lat="41.6250560" lon="-8.7891490">
        <ele>109.8</ele>
        <time>2021-05-17T12:21:21Z</time>
      </trkpt>
      <trkpt lat="41.6250580" lon="-8.7891410">
        <ele>109.9</ele>
        <time>2021-05-17T12:21:22Z</time>
      </trkpt>
      <trkpt lat="41.6250660" lon="-8.7891280">
        <ele>110.1</ele>
        <time>2021-05-17T12:21:23Z</time>
      </trkpt>
      <trkpt lat="41.6250700" lon="-8.7891140">
        <ele>110.2</ele>
        <time>2021-05-17T12:21:24Z</time>
      </trkpt>
      <trkpt lat="41.6250700" lon="-8.7890960">
        <ele>110.4</ele>
        <time>2021-05-17T12:21:25Z</time>
      </trkpt>
      <trkpt lat="41.6250810" lon="-8.7890850">
        <ele>110.5</ele>
        <time>2021-05-17T12:21:26Z</time>
      </trkpt>
      <trkpt lat="41.6250910" lon="-8.7890810">
        <ele>110.6</ele>
        <time>2021-05-17T12:21:27Z</time>
      </trkpt>
      <trkpt lat="41.6251060" lon="-8.7890710">
        <ele>110.8</ele>
        <time>2021-05-17T12:21:28Z</time>
      </trkpt>
      <trkpt lat="41.6251190" lon="-8.7890550">
        <ele>111.0</ele>
        <time>2021-05-17T12:21:29Z</time>
      </trkpt>
      <trkpt lat="41.6251270" lon="-8.7890470">
        <ele>111.1</ele>
        <time>2021-05-17T12:21:30Z</time>
      </trkpt>
      <trkpt lat="41.6251340" lon="-8.7890400">
        <ele>111.2</ele>
        <time>2021-05-17T12:21:31Z</time>
      </trkpt>
      <trkpt lat="41.6251450" lon="-8.7890380">
        <ele>111.4</ele>
        <time>2021-05-17T12:21:32Z</time>
      </trkpt>
      <trkpt lat="41.6251500" lon="-8.7890330">
        <ele>111.4</ele>
        <time>2021-05-17T12:21:33Z</time>
      </trkpt>
      <trkpt lat="41.6251630" lon="-8.7890180">
        <ele>111.6</ele>
        <time>2021-05-17T12:21:34Z</time>
      </trkpt>
      <trkpt lat="41.6251760" lon="-8.7890040">
        <ele>111.8</ele>
        <time>2021-05-17T12:21:35Z</time>
      </trkpt>
      <trkpt lat="41.6251870" lon="-8.7889920">
        <ele>111.9</ele>
        <time>2021-05-17T12:21:36Z</time>
      </trkpt>
      <trkpt lat="41.6251920" lon="-8.7889900">
        <ele>111.9</ele>
        <time>2021-05-17T12:21:37Z</time>
      </trkpt>
      <trkpt lat="41.6252020" lon="-8.7889880">
        <ele>111.9</ele>
        <time>2021-05-17T12:21:38Z</time>
      </trkpt>
      <trkpt lat="41.6252110" lon="-8.7889740">
        <ele>111.9</ele>
        <time>2021-05-17T12:21:39Z</time>
      </trkpt>
      <trkpt lat="41.6252120" lon="-8.7889610">
        <ele>111.9</ele>
        <time>2021-05-17T12:21:40Z</time>
      </trkpt>
      <trkpt lat="41.6252190" lon="-8.7889530">
        <ele>111.9</ele>
        <time>2021-05-17T12:21:41Z</time>
      </trkpt>
      <trkpt lat="41.6252260" lon="-8.7889480">
        <ele>111.9</ele>
        <time>2021-05-17T12:21:42Z</time>
      </trkpt>
      <trkpt lat="41.6252310" lon="-8.7889440">
        <ele>111.9</ele>
        <time>2021-05-17T12:21:43Z</time>
      </trkpt>
      <trkpt lat="41.6252390" lon="-8.7889350">
        <ele>111.9</ele>
        <time>2021-05-17T12:21:44Z</time>
      </trkpt>
      <trkpt lat="41.6252450" lon="-8.7889300">
        <ele>111.9</ele>
        <time>2021-05-17T12:21:45Z</time>
      </trkpt>
      <trkpt lat="41.6252520" lon="-8.7889200">
        <ele>111.9</ele>
        <time>2021-05-17T12:21:46Z</time>
      </trkpt>
      <trkpt lat="41.6252620" lon="-8.7889130">
        <ele>111.9</ele>
        <time>2021-05-17T12:21:47Z</time>
      </trkpt>
      <trkpt lat="41.6252670" lon="-8.7889070">
        <ele>111.9</ele>
        <time>2021-05-17T12:21:48Z</time>
      </trkpt>
      <trkpt lat="41.6252800" lon="-8.7888920">
        <ele>111.9</ele>
        <time>2021-05-17T12:21:49Z</time>
      </trkpt>
      <trkpt lat="41.6252840" lon="-8.7888820">
        <ele>111.9</ele>
        <time>2021-05-17T12:21:50Z</time>
      </trkpt>
      <trkpt lat="41.6252880" lon="-8.7888740">
        <ele>111.9</ele>
        <time>2021-05-17T12:21:51Z</time>
      </trkpt>
      <trkpt lat="41.6252910" lon="-8.7888700">
        <ele>111.9</ele>
        <time>2021-05-17T12:21:52Z</time>
      </trkpt>
      <trkpt lat="41.6252940" lon="-8.7888680">
        <ele>111.9</ele>
        <time>2021-05-17T12:21:53Z</time>
      </trkpt>
      <trkpt lat="41.6253000" lon="-8.7888710">
        <ele>111.9</ele>
        <time>2021-05-17T12:21:54Z</time>
      </trkpt>
      <trkpt lat="41.6253040" lon="-8.7888700">
        <ele>111.9</ele>
        <time>2021-05-17T12:21:55Z</time>
      </trkpt>
      <trkpt lat="41.6253050" lon="-8.7888710">
        <ele>111.9</ele>
        <time>2021-05-17T12:21:56Z</time>
      </trkpt>
      <trkpt lat="41.6253040" lon="-8.7888730">
        <ele>111.9</ele>
        <time>2021-05-17T12:21:57Z</time>
      </trkpt>
      <trkpt lat="41.6253040" lon="-8.7888750">
        <ele>111.9</ele>
        <time>2021-05-17T12:21:58Z</time>
      </trkpt>
      <trkpt lat="41.6253040" lon="-8.7888770">
        <ele>111.9</ele>
        <time>2021-05-17T12:21:59Z</time>
      </trkpt>
      <trkpt lat="41.6253040" lon="-8.7888790">
        <ele>111.9</ele>
        <time>2021-05-17T12:22:00Z</time>
      </trkpt>
      <trkpt lat="41.6253030" lon="-8.7888810">
        <ele>111.9</ele>
        <time>2021-05-17T12:22:01Z</time>
      </trkpt>
      <trkpt lat="41.6253030" lon="-8.7888830">
        <ele>111.9</ele>
        <time>2021-05-17T12:22:02Z</time>
      </trkpt>
      <trkpt lat="41.6253030" lon="-8.7888840">
        <ele>111.9</ele>
        <time>2021-05-17T12:22:03Z</time>
      </trkpt>
      <trkpt lat="41.6253020" lon="-8.7888860">
        <ele>111.9</ele>
        <time>2021-05-17T12:22:04Z</time>
      </trkpt>
      <trkpt lat="41.6253020" lon="-8.7888880">
        <ele>111.9</ele>
        <time>2021-05-17T12:22:05Z</time>
      </trkpt>
      <trkpt lat="41.6253020" lon="-8.7888900">
        <ele>111.9</ele>
        <time>2021-05-17T12:22:06Z</time>
      </trkpt>
      <trkpt lat="41.6253020" lon="-8.7888920">
        <ele>111.9</ele>
        <time>2021-05-17T12:22:07Z</time>
      </trkpt>
      <trkpt lat="41.6253010" lon="-8.7888940">
        <ele>111.9</ele>
        <time>2021-05-17T12:22:08Z</time>
      </trkpt>
      <trkpt lat="41.6253010" lon="-8.7888960">
        <ele>111.9</ele>
        <time>2021-05-17T12:22:09Z</time>
      </trkpt>
      <trkpt lat="41.6253010" lon="-8.7888980">
        <ele>111.9</ele>
        <time>2021-05-17T12:22:10Z</time>
      </trkpt>
      <trkpt lat="41.6253000" lon="-8.7889000">
        <ele>111.9</ele>
        <time>2021-05-17T12:22:11Z</time>
      </trkpt>
      <trkpt lat="41.6253000" lon="-8.7889020">
        <ele>111.9</ele>
        <time>2021-05-17T12:22:12Z</time>
      </trkpt>
      <trkpt lat="41.6253000" lon="-8.7889040">
        <ele>111.9</ele>
        <time>2021-05-17T12:22:13Z</time>
      </trkpt>
      <trkpt lat="41.6253000" lon="-8.7889060">
        <ele>111.9</ele>
        <time>2021-05-17T12:22:14Z</time>
      </trkpt>
      <trkpt lat="41.6252990" lon="-8.7889080">
        <ele>111.9</ele>
        <time>2021-05-17T12:22:15Z</time>
      </trkpt>
      <trkpt lat="41.6252990" lon="-8.7889100">
        <ele>111.9</ele>
        <time>2021-05-17T12:22:16Z</time>
      </trkpt>
      <trkpt lat="41.6252990" lon="-8.7889110">
        <ele>111.9</ele>
        <time>2021-05-17T12:22:17Z</time>
      </trkpt>
      <trkpt lat="41.6252980" lon="-8.7889130">
        <ele>111.9</ele>
        <time>2021-05-17T12:22:18Z</time>
      </trkpt>
      <trkpt lat="41.6252980" lon="-8.7889150">
        <ele>111.9</ele>
        <time>2021-05-17T12:22:19Z</time>
      </trkpt>
      <trkpt lat="41.6252980" lon="-8.7889170">
        <ele>111.9</ele>
        <time>2021-05-17T12:22:20Z</time>
      </trkpt>
      <trkpt lat="41.6252980" lon="-8.7889190">
        <ele>111.9</ele>
        <time>2021-05-17T12:22:21Z</time>
      </trkpt>
      <trkpt lat="41.6252970" lon="-8.7889210">
        <ele>111.9</ele>
        <time>2021-05-17T12:22:22Z</time>
      </trkpt>
      <trkpt lat="41.6252970" lon="-8.7889230">
        <ele>111.9</ele>
        <time>2021-05-17T12:22:23Z</time>
      </trkpt>
      <trkpt lat="41.6252780" lon="-8.7889350">
        <ele>111.9</ele>
        <time>2021-05-17T12:22:24Z</time>
      </trkpt>
      <trkpt lat="41.6252730" lon="-8.7889510">
        <ele>111.9</ele>
        <time>2021-05-17T12:22:25Z</time>
      </trkpt>
      <trkpt lat="41.6252670" lon="-8.7889590">
        <ele>111.9</ele>
        <time>2021-05-17T12:22:26Z</time>
      </trkpt>
      <trkpt lat="41.6252610" lon="-8.7889730">
        <ele>111.9</ele>
        <time>2021-05-17T12:22:27Z</time>
      </trkpt>
      <trkpt lat="41.6252540" lon="-8.7889880">
        <ele>111.9</ele>
        <time>2021-05-17T12:22:28Z</time>
      </trkpt>
      <trkpt lat="41.6252470" lon="-8.7890020">
        <ele>111.9</ele>
        <time>2021-05-17T12:22:29Z</time>
      </trkpt>
      <trkpt lat="41.6252490" lon="-8.7890190">
        <ele>112.0</ele>
        <time>2021-05-17T12:22:30Z</time>
      </trkpt>
      <trkpt lat="41.6252420" lon="-8.7890260">
        <ele>112.1</ele>
        <time>2021-05-17T12:22:31Z</time>
      </trkpt>
      <trkpt lat="41.6252300" lon="-8.7890430">
        <ele>112.2</ele>
        <time>2021-05-17T12:22:32Z</time>
      </trkpt>
      <trkpt lat="41.6252220" lon="-8.7890510">
        <ele>112.2</ele>
        <time>2021-05-17T12:22:33Z</time>
      </trkpt>
      <trkpt lat="41.6252150" lon="-8.7890600">
        <ele>112.3</ele>
        <time>2021-05-17T12:22:34Z</time>
      </trkpt>
      <trkpt lat="41.6252060" lon="-8.7890770">
        <ele>112.3</ele>
        <time>2021-05-17T12:22:35Z</time>
      </trkpt>
      <trkpt lat="41.6252020" lon="-8.7890850">
        <ele>112.4</ele>
        <time>2021-05-17T12:22:36Z</time>
      </trkpt>
      <trkpt lat="41.6251930" lon="-8.7890910">
        <ele>112.4</ele>
        <time>2021-05-17T12:22:37Z</time>
      </trkpt>
      <trkpt lat="41.6251840" lon="-8.7891050">
        <ele>112.5</ele>
        <time>2021-05-17T12:22:38Z</time>
      </trkpt>
      <trkpt lat="41.6251760" lon="-8.7891150">
        <ele>112.6</ele>
        <time>2021-05-17T12:22:39Z</time>
      </trkpt>
      <trkpt lat="41.6251720" lon="-8.7891200">
        <ele>112.6</ele>
        <time>2021-05-17T12:22:40Z</time>
      </trkpt>
      <trkpt lat="41.6251640" lon="-8.7891260">
        <ele>112.6</ele>
        <time>2021-05-17T12:22:41Z</time>
      </trkpt>
      <trkpt lat="41.6251610" lon="-8.7891340">
        <ele>112.7</ele>
        <time>2021-05-17T12:22:42Z</time>
      </trkpt>
      <trkpt lat="41.6251620" lon="-8.7891340">
        <ele>112.7</ele>
        <time>2021-05-17T12:22:43Z</time>
      </trkpt>
      <trkpt lat="41.6251620" lon="-8.7891320">
        <ele>112.7</ele>
        <time>2021-05-17T12:22:44Z</time>
      </trkpt>
      <trkpt lat="41.6251640" lon="-8.7891300">
        <ele>112.7</ele>
        <time>2021-05-17T12:22:45Z</time>
      </trkpt>
      <trkpt lat="41.6251650" lon="-8.7891310">
        <ele>112.7</ele>
        <time>2021-05-17T12:22:46Z</time>
      </trkpt>
      <trkpt lat="41.6251650" lon="-8.7891340">
        <ele>112.7</ele>
        <time>2021-05-17T12:22:47Z</time>
      </trkpt>
      <trkpt lat="41.6251590" lon="-8.7891390">
        <ele>112.8</ele>
        <time>2021-05-17T12:22:48Z</time>
      </trkpt>
      <trkpt lat="41.6251540" lon="-8.7891400">
        <ele>112.8</ele>
        <time>2021-05-17T12:22:49Z</time>
      </trkpt>
      <trkpt lat="41.6251520" lon="-8.7891420">
        <ele>112.8</ele>
        <time>2021-05-17T12:22:50Z</time>
      </trkpt>
      <trkpt lat="41.6251460" lon="-8.7891440">
        <ele>112.8</ele>
        <time>2021-05-17T12:22:51Z</time>
      </trkpt>
      <trkpt lat="41.6251520" lon="-8.7891480">
        <ele>112.9</ele>
        <time>2021-05-17T12:22:52Z</time>
      </trkpt>
      <trkpt lat="41.6251560" lon="-8.7891500">
        <ele>112.9</ele>
        <time>2021-05-17T12:22:53Z</time>
      </trkpt>
      <trkpt lat="41.6251570" lon="-8.7891560">
        <ele>112.9</ele>
        <time>2021-05-17T12:22:54Z</time>
      </trkpt>
      <trkpt lat="41.6251600" lon="-8.7891550">
        <ele>112.9</ele>
        <time>2021-05-17T12:22:55Z</time>
      </trkpt>
      <trkpt lat="41.6251620" lon="-8.7891580">
        <ele>112.9</ele>
        <time>2021-05-17T12:22:56Z</time>
      </trkpt>
      <trkpt lat="41.6251640" lon="-8.7891590">
        <ele>112.9</ele>
        <time>2021-05-17T12:22:57Z</time>
      </trkpt>
      <trkpt lat="41.6251670" lon="-8.7891630">
        <ele>113.0</ele>
        <time>2021-05-17T12:22:58Z</time>
      </trkpt>
      <trkpt lat="41.6251700" lon="-8.7891670">
        <ele>113.0</ele>
        <time>2021-05-17T12:22:59Z</time>
      </trkpt>
      <trkpt lat="41.6251710" lon="-8.7891710">
        <ele>113.0</ele>
        <time>2021-05-17T12:23:00Z</time>
      </trkpt>
      <trkpt lat="41.6251720" lon="-8.7891770">
        <ele>113.0</ele>
        <time>2021-05-17T12:23:01Z</time>
      </trkpt>
      <trkpt lat="41.6251730" lon="-8.7891790">
        <ele>113.0</ele>
        <time>2021-05-17T12:23:02Z</time>
      </trkpt>
      <trkpt lat="41.6251740" lon="-8.7891790">
        <ele>113.0</ele>
        <time>2021-05-17T12:23:03Z</time>
      </trkpt>
      <trkpt lat="41.6251760" lon="-8.7891860">
        <ele>113.1</ele>
        <time>2021-05-17T12:23:04Z</time>
      </trkpt>
      <trkpt lat="41.6251740" lon="-8.7891980">
        <ele>113.1</ele>
        <time>2021-05-17T12:23:05Z</time>
      </trkpt>
      <trkpt lat="41.6251720" lon="-8.7892140">
        <ele>113.2</ele>
        <time>2021-05-17T12:23:06Z</time>
      </trkpt>
      <trkpt lat="41.6251700" lon="-8.7892260">
        <ele>113.2</ele>
        <time>2021-05-17T12:23:07Z</time>
      </trkpt>
      <trkpt lat="41.6251660" lon="-8.7892390">
        <ele>113.2</ele>
        <time>2021-05-17T12:23:08Z</time>
      </trkpt>
      <trkpt lat="41.6251640" lon="-8.7892530">
        <ele>113.3</ele>
        <time>2021-05-17T12:23:09Z</time>
      </trkpt>
      <trkpt lat="41.6251610" lon="-8.7892670">
        <ele>113.3</ele>
        <time>2021-05-17T12:23:10Z</time>
      </trkpt>
      <trkpt lat="41.6251530" lon="-8.7892780">
        <ele>113.4</ele>
        <time>2021-05-17T12:23:11Z</time>
      </trkpt>
      <trkpt lat="41.6251380" lon="-8.7892790">
        <ele>113.5</ele>
        <time>2021-05-17T12:23:12Z</time>
      </trkpt>
      <trkpt lat="41.6251290" lon="-8.7892850">
        <ele>113.5</ele>
        <time>2021-05-17T12:23:13Z</time>
      </trkpt>
      <trkpt lat="41.6251210" lon="-8.7892920">
        <ele>113.5</ele>
        <time>2021-05-17T12:23:14Z</time>
      </trkpt>
      <trkpt lat="41.6251120" lon="-8.7893030">
        <ele>113.6</ele>
        <time>2021-05-17T12:23:15Z</time>
      </trkpt>
      <trkpt lat="41.6251030" lon="-8.7893100">
        <ele>113.6</ele>
        <time>2021-05-17T12:23:16Z</time>
      </trkpt>
      <trkpt lat="41.6250950" lon="-8.7893200">
        <ele>113.7</ele>
        <time>2021-05-17T12:23:17Z</time>
      </trkpt>
      <trkpt lat="41.6250920" lon="-8.7893230">
        <ele>113.7</ele>
        <time>2021-05-17T12:23:18Z</time>
      </trkpt>
      <trkpt lat="41.6250910" lon="-8.7893240">
        <ele>113.7</ele>
        <time>2021-05-17T12:23:19Z</time>
      </trkpt>
      <trkpt lat="41.6250920" lon="-8.7893180">
        <ele>113.7</ele>
        <time>2021-05-17T12:23:20Z</time>
      </trkpt>
      <trkpt lat="41.6250960" lon="-8.7893230">
        <ele>113.7</ele>
        <time>2021-05-17T12:23:21Z</time>
      </trkpt>
      <trkpt lat="41.6251000" lon="-8.7893220">
        <ele>113.8</ele>
        <time>2021-05-17T12:23:22Z</time>
      </trkpt>
      <trkpt lat="41.6250980" lon="-8.7893220">
        <ele>113.8</ele>
        <time>2021-05-17T12:23:23Z</time>
      </trkpt>
      <trkpt lat="41.6250950" lon="-8.7893210">
        <ele>113.8</ele>
        <time>2021-05-17T12:23:24Z</time>
      </trkpt>
      <trkpt lat="41.6250910" lon="-8.7893190">
        <ele>113.8</ele>
        <time>2021-05-17T12:23:25Z</time>
      </trkpt>
      <trkpt lat="41.6250970" lon="-8.7893190">
        <ele>113.8</ele>
        <time>2021-05-17T12:23:26Z</time>
      </trkpt>
      <trkpt lat="41.6250990" lon="-8.7893110">
        <ele>113.8</ele>
        <time>2021-05-17T12:23:27Z</time>
      </trkpt>
      <trkpt lat="41.6251000" lon="-8.7893100">
        <ele>113.8</ele>
        <time>2021-05-17T12:23:28Z</time>
      </trkpt>
      <trkpt lat="41.6251000" lon="-8.7893060">
        <ele>113.9</ele>
        <time>2021-05-17T12:23:29Z</time>
      </trkpt>
      <trkpt lat="41.6251080" lon="-8.7893010">
        <ele>113.9</ele>
        <time>2021-05-17T12:23:30Z</time>
      </trkpt>
      <trkpt lat="41.6251160" lon="-8.7893060">
        <ele>113.9</ele>
        <time>2021-05-17T12:23:31Z</time>
      </trkpt>
      <trkpt lat="41.6251220" lon="-8.7893070">
        <ele>114.0</ele>
        <time>2021-05-17T12:23:32Z</time>
      </trkpt>
      <trkpt lat="41.6251220" lon="-8.7893110">
        <ele>114.0</ele>
        <time>2021-05-17T12:23:33Z</time>
      </trkpt>
      <trkpt lat="41.6251190" lon="-8.7893050">
        <ele>114.0</ele>
        <time>2021-05-17T12:23:34Z</time>
      </trkpt>
      <trkpt lat="41.6251150" lon="-8.7893040">
        <ele>114.0</ele>
        <time>2021-05-17T12:23:35Z</time>
      </trkpt>
      <trkpt lat="41.6251110" lon="-8.7893040">
        <ele>114.0</ele>
        <time>2021-05-17T12:23:36Z</time>
      </trkpt>
      <trkpt lat="41.6251060" lon="-8.7893010">
        <ele>114.0</ele>
        <time>2021-05-17T12:23:37Z</time>
      </trkpt>
      <trkpt lat="41.6251060" lon="-8.7893010">
        <ele>114.0</ele>
        <time>2021-05-17T12:23:38Z</time>
      </trkpt>
      <trkpt lat="41.6251030" lon="-8.7892990">
        <ele>114.1</ele>
        <time>2021-05-17T12:23:39Z</time>
      </trkpt>
      <trkpt lat="41.6251030" lon="-8.7893020">
        <ele>114.1</ele>
        <time>2021-05-17T12:23:40Z</time>
      </trkpt>
      <trkpt lat="41.6251060" lon="-8.7893030">
        <ele>114.1</ele>
        <time>2021-05-17T12:23:41Z</time>
      </trkpt>
      <trkpt lat="41.6251030" lon="-8.7893020">
        <ele>114.1</ele>
        <time>2021-05-17T12:23:42Z</time>
      </trkpt>
      <trkpt lat="41.6251030" lon="-8.7893100">
        <ele>114.1</ele>
        <time>2021-05-17T12:23:43Z</time>
      </trkpt>
      <trkpt lat="41.6251050" lon="-8.7893170">
        <ele>114.1</ele>
        <time>2021-05-17T12:23:44Z</time>
      </trkpt>
      <trkpt lat="41.6251090" lon="-8.7893320">
        <ele>114.2</ele>
        <time>2021-05-17T12:23:45Z</time>
      </trkpt>
      <trkpt lat="41.6251010" lon="-8.7893470">
        <ele>114.2</ele>
        <time>2021-05-17T12:23:46Z</time>
      </trkpt>
      <trkpt lat="41.6251030" lon="-8.7893620">
        <ele>114.3</ele>
        <time>2021-05-17T12:23:47Z</time>
      </trkpt>
      <trkpt lat="41.6250980" lon="-8.7893750">
        <ele>114.3</ele>
        <time>2021-05-17T12:23:48Z</time>
      </trkpt>
      <trkpt lat="41.6250940" lon="-8.7893880">
        <ele>114.4</ele>
        <time>2021-05-17T12:23:49Z</time>
      </trkpt>
      <trkpt lat="41.6250910" lon="-8.7894020">
        <ele>114.4</ele>
        <time>2021-05-17T12:23:50Z</time>
      </trkpt>
      <trkpt lat="41.6250900" lon="-8.7894180">
        <ele>114.5</ele>
        <time>2021-05-17T12:23:51Z</time>
      </trkpt>
      <trkpt lat="41.6250850" lon="-8.7894320">
        <ele>114.5</ele>
        <time>2021-05-17T12:23:52Z</time>
      </trkpt>
      <trkpt lat="41.6250780" lon="-8.7894580">
        <ele>114.6</ele>
        <time>2021-05-17T12:23:53Z</time>
      </trkpt>
      <trkpt lat="41.6250750" lon="-8.7894710">
        <ele>114.6</ele>
        <time>2021-05-17T12:23:54Z</time>
      </trkpt>
      <trkpt lat="41.6250710" lon="-8.7894830">
        <ele>114.6</ele>
        <time>2021-05-17T12:23:55Z</time>
      </trkpt>
      <trkpt lat="41.6250630" lon="-8.7895010">
        <ele>114.7</ele>
        <time>2021-05-17T12:23:56Z</time>
      </trkpt>
      <trkpt lat="41.6250570" lon="-8.7895210">
        <ele>114.8</ele>
        <time>2021-05-17T12:23:57Z</time>
      </trkpt>
      <trkpt lat="41.6250510" lon="-8.7895460">
        <ele>114.8</ele>
        <time>2021-05-17T12:23:58Z</time>
      </trkpt>
      <trkpt lat="41.6250480" lon="-8.7895590">
        <ele>114.9</ele>
        <time>2021-05-17T12:23:59Z</time>
      </trkpt>
      <trkpt lat="41.6250460" lon="-8.7895710">
        <ele>114.9</ele>
        <time>2021-05-17T12:24:00Z</time>
      </trkpt>
      <trkpt lat="41.6250390" lon="-8.7895940">
        <ele>115.0</ele>
        <time>2021-05-17T12:24:01Z</time>
      </trkpt>
      <trkpt lat="41.6250350" lon="-8.7896050">
        <ele>115.0</ele>
        <time>2021-05-17T12:24:02Z</time>
      </trkpt>
      <trkpt lat="41.6250310" lon="-8.7896170">
        <ele>115.0</ele>
        <time>2021-05-17T12:24:03Z</time>
      </trkpt>
      <trkpt lat="41.6250250" lon="-8.7896340">
        <ele>115.1</ele>
        <time>2021-05-17T12:24:04Z</time>
      </trkpt>
      <trkpt lat="41.6250180" lon="-8.7896490">
        <ele>115.1</ele>
        <time>2021-05-17T12:24:05Z</time>
      </trkpt>
      <trkpt lat="41.6250150" lon="-8.7896640">
        <ele>115.2</ele>
        <time>2021-05-17T12:24:06Z</time>
      </trkpt>
      <trkpt lat="41.6250140" lon="-8.7896820">
        <ele>115.2</ele>
        <time>2021-05-17T12:24:07Z</time>
      </trkpt>
      <trkpt lat="41.6250120" lon="-8.7896960">
        <ele>115.3</ele>
        <time>2021-05-17T12:24:08Z</time>
      </trkpt>
      <trkpt lat="41.6250100" lon="-8.7897080">
        <ele>115.3</ele>
        <time>2021-05-17T12:24:09Z</time>
      </trkpt>
      <trkpt lat="41.6250050" lon="-8.7897190">
        <ele>115.3</ele>
        <time>2021-05-17T12:24:10Z</time>
      </trkpt>
      <trkpt lat="41.6250010" lon="-8.7897330">
        <ele>115.4</ele>
        <time>2021-05-17T12:24:11Z</time>
      </trkpt>
      <trkpt lat="41.6250000" lon="-8.7897600">
        <ele>115.5</ele>
        <time>2021-05-17T12:24:12Z</time>
      </trkpt>
      <trkpt lat="41.6249990" lon="-8.7897700">
        <ele>115.5</ele>
        <time>2021-05-17T12:24:13Z</time>
      </trkpt>
      <trkpt lat="41.6249970" lon="-8.7897810">
        <ele>115.5</ele>
        <time>2021-05-17T12:24:14Z</time>
      </trkpt>
      <trkpt lat="41.6249960" lon="-8.7898010">
        <ele>115.6</ele>
        <time>2021-05-17T12:24:15Z</time>
      </trkpt>
      <trkpt lat="41.6249920" lon="-8.7898200">
        <ele>115.6</ele>
        <time>2021-05-17T12:24:16Z</time>
      </trkpt>
      <trkpt lat="41.6249900" lon="-8.7898320">
        <ele>115.7</ele>
        <time>2021-05-17T12:24:17Z</time>
      </trkpt>
      <trkpt lat="41.6249900" lon="-8.7898480">
        <ele>115.7</ele>
        <time>2021-05-17T12:24:18Z</time>
      </trkpt>
      <trkpt lat="41.6249860" lon="-8.7898650">
        <ele>115.8</ele>
        <time>2021-05-17T12:24:19Z</time>
      </trkpt>
      <trkpt lat="41.6249820" lon="-8.7898820">
        <ele>115.8</ele>
        <time>2021-05-17T12:24:20Z</time>
      </trkpt>
      <trkpt lat="41.6249780" lon="-8.7899000">
        <ele>115.9</ele>
        <time>2021-05-17T12:24:21Z</time>
      </trkpt>
      <trkpt lat="41.6249760" lon="-8.7899160">
        <ele>115.9</ele>
        <time>2021-05-17T12:24:22Z</time>
      </trkpt>
      <trkpt lat="41.6249730" lon="-8.7899270">
        <ele>116.0</ele>
        <time>2021-05-17T12:24:23Z</time>
      </trkpt>
      <trkpt lat="41.6249700" lon="-8.7899420">
        <ele>116.0</ele>
        <time>2021-05-17T12:24:24Z</time>
      </trkpt>
      <trkpt lat="41.6249650" lon="-8.7899720">
        <ele>116.1</ele>
        <time>2021-05-17T12:24:25Z</time>
      </trkpt>
      <trkpt lat="41.6249620" lon="-8.7899840">
        <ele>116.1</ele>
        <time>2021-05-17T12:24:26Z</time>
      </trkpt>
      <trkpt lat="41.6249590" lon="-8.7899950">
        <ele>116.2</ele>
        <time>2021-05-17T12:24:27Z</time>
      </trkpt>
      <trkpt lat="41.6249590" lon="-8.7900180">
        <ele>116.2</ele>
        <time>2021-05-17T12:24:28Z</time>
      </trkpt>
      <trkpt lat="41.6249620" lon="-8.7900420">
        <ele>116.3</ele>
        <time>2021-05-17T12:24:29Z</time>
      </trkpt>
      <trkpt lat="41.6249650" lon="-8.7900610">
        <ele>116.4</ele>
        <time>2021-05-17T12:24:30Z</time>
      </trkpt>
      <trkpt lat="41.6249640" lon="-8.7900750">
        <ele>116.4</ele>
        <time>2021-05-17T12:24:31Z</time>
      </trkpt>
      <trkpt lat="41.6249620" lon="-8.7900860">
        <ele>116.5</ele>
        <time>2021-05-17T12:24:32Z</time>
      </trkpt>
      <trkpt lat="41.6249640" lon="-8.7901140">
        <ele>116.6</ele>
        <time>2021-05-17T12:24:33Z</time>
      </trkpt>
      <trkpt lat="41.6249640" lon="-8.7901260">
        <ele>116.6</ele>
        <time>2021-05-17T12:24:34Z</time>
      </trkpt>
      <trkpt lat="41.6249630" lon="-8.7901390">
        <ele>116.6</ele>
        <time>2021-05-17T12:24:35Z</time>
      </trkpt>
      <trkpt lat="41.6249630" lon="-8.7901600">
        <ele>116.7</ele>
        <time>2021-05-17T12:24:36Z</time>
      </trkpt>
      <trkpt lat="41.6249610" lon="-8.7901760">
        <ele>116.7</ele>
        <time>2021-05-17T12:24:37Z</time>
      </trkpt>
      <trkpt lat="41.6249630" lon="-8.7902000">
        <ele>116.8</ele>
        <time>2021-05-17T12:24:38Z</time>
      </trkpt>
      <trkpt lat="41.6249670" lon="-8.7902160">
        <ele>116.9</ele>
        <time>2021-05-17T12:24:39Z</time>
      </trkpt>
      <trkpt lat="41.6249630" lon="-8.7902450">
        <ele>116.9</ele>
        <time>2021-05-17T12:24:40Z</time>
      </trkpt>
      <trkpt lat="41.6249620" lon="-8.7902590">
        <ele>117.0</ele>
        <time>2021-05-17T12:24:41Z</time>
      </trkpt>
      <trkpt lat="41.6249610" lon="-8.7902720">
        <ele>117.0</ele>
        <time>2021-05-17T12:24:42Z</time>
      </trkpt>
      <trkpt lat="41.6249630" lon="-8.7902920">
        <ele>117.1</ele>
        <time>2021-05-17T12:24:43Z</time>
      </trkpt>
      <trkpt lat="41.6249620" lon="-8.7903110">
        <ele>117.1</ele>
        <time>2021-05-17T12:24:44Z</time>
      </trkpt>
      <trkpt lat="41.6249560" lon="-8.7903400">
        <ele>117.2</ele>
        <time>2021-05-17T12:24:45Z</time>
      </trkpt>
      <trkpt lat="41.6249550" lon="-8.7903540">
        <ele>117.2</ele>
        <time>2021-05-17T12:24:46Z</time>
      </trkpt>
      <trkpt lat="41.6249530" lon="-8.7903670">
        <ele>117.3</ele>
        <time>2021-05-17T12:24:47Z</time>
      </trkpt>
      <trkpt lat="41.6249500" lon="-8.7903850">
        <ele>117.3</ele>
        <time>2021-05-17T12:24:48Z</time>
      </trkpt>
      <trkpt lat="41.6249470" lon="-8.7904030">
        <ele>117.4</ele>
        <time>2021-05-17T12:24:49Z</time>
      </trkpt>
      <trkpt lat="41.6249430" lon="-8.7904390">
        <ele>117.5</ele>
        <time>2021-05-17T12:24:50Z</time>
      </trkpt>
      <trkpt lat="41.6249420" lon="-8.7904510">
        <ele>117.5</ele>
        <time>2021-05-17T12:24:51Z</time>
      </trkpt>
      <trkpt lat="41.6249480" lon="-8.7904760">
        <ele>117.6</ele>
        <time>2021-05-17T12:24:52Z</time>
      </trkpt>
      <trkpt lat="41.6249460" lon="-8.7904930">
        <ele>117.6</ele>
        <time>2021-05-17T12:24:53Z</time>
      </trkpt>
      <trkpt lat="41.6249430" lon="-8.7905110">
        <ele>117.7</ele>
        <time>2021-05-17T12:24:54Z</time>
      </trkpt>
      <trkpt lat="41.6249390" lon="-8.7905310">
        <ele>117.7</ele>
        <time>2021-05-17T12:24:55Z</time>
      </trkpt>
      <trkpt lat="41.6249310" lon="-8.7905570">
        <ele>117.8</ele>
        <time>2021-05-17T12:24:56Z</time>
      </trkpt>
      <trkpt lat="41.6249270" lon="-8.7905660">
        <ele>117.8</ele>
        <time>2021-05-17T12:24:57Z</time>
      </trkpt>
      <trkpt lat="41.6249220" lon="-8.7905750">
        <ele>117.9</ele>
        <time>2021-05-17T12:24:58Z</time>
      </trkpt>
      <trkpt lat="41.6249160" lon="-8.7905900">
        <ele>117.9</ele>
        <time>2021-05-17T12:24:59Z</time>
      </trkpt>
      <trkpt lat="41.6249060" lon="-8.7906050">
        <ele>118.0</ele>
        <time>2021-05-17T12:25:00Z</time>
      </trkpt>
      <trkpt lat="41.6248960" lon="-8.7906210">
        <ele>118.0</ele>
        <time>2021-05-17T12:25:01Z</time>
      </trkpt>
      <trkpt lat="41.6248960" lon="-8.7906430">
        <ele>118.1</ele>
        <time>2021-05-17T12:25:02Z</time>
      </trkpt>
      <trkpt lat="41.6248930" lon="-8.7906710">
        <ele>118.1</ele>
        <time>2021-05-17T12:25:03Z</time>
      </trkpt>
      <trkpt lat="41.6248910" lon="-8.7906820">
        <ele>118.2</ele>
        <time>2021-05-17T12:25:04Z</time>
      </trkpt>
      <trkpt lat="41.6248880" lon="-8.7906940">
        <ele>118.2</ele>
        <time>2021-05-17T12:25:05Z</time>
      </trkpt>
      <trkpt lat="41.6248880" lon="-8.7907140">
        <ele>118.2</ele>
        <time>2021-05-17T12:25:06Z</time>
      </trkpt>
      <trkpt lat="41.6248840" lon="-8.7907310">
        <ele>118.3</ele>
        <time>2021-05-17T12:25:07Z</time>
      </trkpt>
      <trkpt lat="41.6248800" lon="-8.7907510">
        <ele>118.3</ele>
        <time>2021-05-17T12:25:08Z</time>
      </trkpt>
      <trkpt lat="41.6248760" lon="-8.7907690">
        <ele>118.4</ele>
        <time>2021-05-17T12:25:09Z</time>
      </trkpt>
      <trkpt lat="41.6248730" lon="-8.7907960">
        <ele>118.4</ele>
        <time>2021-05-17T12:25:10Z</time>
      </trkpt>
      <trkpt lat="41.6248710" lon="-8.7908060">
        <ele>118.5</ele>
        <time>2021-05-17T12:25:11Z</time>
      </trkpt>
      <trkpt lat="41.6248680" lon="-8.7908170">
        <ele>118.5</ele>
        <time>2021-05-17T12:25:12Z</time>
      </trkpt>
      <trkpt lat="41.6248640" lon="-8.7908490">
        <ele>118.6</ele>
        <time>2021-05-17T12:25:13Z</time>
      </trkpt>
      <trkpt lat="41.6248630" lon="-8.7908600">
        <ele>118.6</ele>
        <time>2021-05-17T12:25:14Z</time>
      </trkpt>
      <trkpt lat="41.6248620" lon="-8.7908710">
        <ele>118.6</ele>
        <time>2021-05-17T12:25:15Z</time>
      </trkpt>
      <trkpt lat="41.6248670" lon="-8.7908920">
        <ele>118.6</ele>
        <time>2021-05-17T12:25:16Z</time>
      </trkpt>
      <trkpt lat="41.6248710" lon="-8.7909110">
        <ele>118.6</ele>
        <time>2021-05-17T12:25:17Z</time>
      </trkpt>
      <trkpt lat="41.6248760" lon="-8.7909280">
        <ele>118.6</ele>
        <time>2021-05-17T12:25:18Z</time>
      </trkpt>
      <trkpt lat="41.6248780" lon="-8.7909390">
        <ele>118.6</ele>
        <time>2021-05-17T12:25:19Z</time>
      </trkpt>
      <trkpt lat="41.6248830" lon="-8.7909530">
        <ele>118.6</ele>
        <time>2021-05-17T12:25:20Z</time>
      </trkpt>
      <trkpt lat="41.6248760" lon="-8.7909640">
        <ele>118.6</ele>
        <time>2021-05-17T12:25:21Z</time>
      </trkpt>
      <trkpt lat="41.6248710" lon="-8.7909740">
        <ele>118.6</ele>
        <time>2021-05-17T12:25:22Z</time>
      </trkpt>
      <trkpt lat="41.6248640" lon="-8.7909880">
        <ele>118.6</ele>
        <time>2021-05-17T12:25:23Z</time>
      </trkpt>
      <trkpt lat="41.6248520" lon="-8.7910000">
        <ele>118.6</ele>
        <time>2021-05-17T12:25:24Z</time>
      </trkpt>
      <trkpt lat="41.6248420" lon="-8.7910010">
        <ele>118.6</ele>
        <time>2021-05-17T12:25:25Z</time>
      </trkpt>
      <trkpt lat="41.6248330" lon="-8.7910060">
        <ele>118.6</ele>
        <time>2021-05-17T12:25:26Z</time>
      </trkpt>
      <trkpt lat="41.6248310" lon="-8.7910190">
        <ele>118.6</ele>
        <time>2021-05-17T12:25:27Z</time>
      </trkpt>
      <trkpt lat="41.6248300" lon="-8.7910330">
        <ele>118.6</ele>
        <time>2021-05-17T12:25:28Z</time>
      </trkpt>
      <trkpt lat="41.6248300" lon="-8.7910450">
        <ele>118.6</ele>
        <time>2021-05-17T12:25:29Z</time>
      </trkpt>
      <trkpt lat="41.6248300" lon="-8.7910530">
        <ele>118.6</ele>
        <time>2021-05-17T12:25:30Z</time>
      </trkpt>
      <trkpt lat="41.6248290" lon="-8.7910630">
        <ele>118.6</ele>
        <time>2021-05-17T12:25:31Z</time>
      </trkpt>
      <trkpt lat="41.6248240" lon="-8.7910660">
        <ele>118.6</ele>
        <time>2021-05-17T12:25:32Z</time>
      </trkpt>
      <trkpt lat="41.6248250" lon="-8.7910650">
        <ele>118.6</ele>
        <time>2021-05-17T12:25:33Z</time>
      </trkpt>
      <trkpt lat="41.6248250" lon="-8.7910640">
        <ele>118.6</ele>
        <time>2021-05-17T12:25:34Z</time>
      </trkpt>
      <trkpt lat="41.6248240" lon="-8.7910670">
        <ele>118.6</ele>
        <time>2021-05-17T12:25:35Z</time>
      </trkpt>
      <trkpt lat="41.6248260" lon="-8.7910660">
        <ele>118.6</ele>
        <time>2021-05-17T12:25:36Z</time>
      </trkpt>
      <trkpt lat="41.6248280" lon="-8.7910630">
        <ele>118.6</ele>
        <time>2021-05-17T12:25:37Z</time>
      </trkpt>
      <trkpt lat="41.6248290" lon="-8.7910650">
        <ele>118.6</ele>
        <time>2021-05-17T12:25:38Z</time>
      </trkpt>
      <trkpt lat="41.6248260" lon="-8.7910630">
        <ele>118.6</ele>
        <time>2021-05-17T12:25:39Z</time>
      </trkpt>
      <trkpt lat="41.6248260" lon="-8.7910630">
        <ele>118.6</ele>
        <time>2021-05-17T12:25:40Z</time>
      </trkpt>
      <trkpt lat="41.6248250" lon="-8.7910630">
        <ele>118.6</ele>
        <time>2021-05-17T12:25:41Z</time>
      </trkpt>
      <trkpt lat="41.6248230" lon="-8.7910640">
        <ele>118.6</ele>
        <time>2021-05-17T12:25:42Z</time>
      </trkpt>
      <trkpt lat="41.6248230" lon="-8.7910650">
        <ele>118.6</ele>
        <time>2021-05-17T12:25:43Z</time>
      </trkpt>
      <trkpt lat="41.6248240" lon="-8.7910640">
        <ele>118.6</ele>
        <time>2021-05-17T12:25:44Z</time>
      </trkpt>
      <trkpt lat="41.6248260" lon="-8.7910660">
        <ele>118.6</ele>
        <time>2021-05-17T12:25:45Z</time>
      </trkpt>
      <trkpt lat="41.6248260" lon="-8.7910640">
        <ele>118.6</ele>
        <time>2021-05-17T12:25:46Z</time>
      </trkpt>
      <trkpt lat="41.6248280" lon="-8.7910590">
        <ele>118.6</ele>
        <time>2021-05-17T12:25:47Z</time>
      </trkpt>
      <trkpt lat="41.6248270" lon="-8.7910570">
        <ele>118.6</ele>
        <time>2021-05-17T12:25:48Z</time>
      </trkpt>
      <trkpt lat="41.6248270" lon="-8.7910590">
        <ele>118.6</ele>
        <time>2021-05-17T12:25:49Z</time>
      </trkpt>
      <trkpt lat="41.6248250" lon="-8.7910600">
        <ele>118.6</ele>
        <time>2021-05-17T12:25:50Z</time>
      </trkpt>
      <trkpt lat="41.6248260" lon="-8.7910610">
        <ele>118.6</ele>
        <time>2021-05-17T12:25:51Z</time>
      </trkpt>
      <trkpt lat="41.6248270" lon="-8.7910520">
        <ele>118.6</ele>
        <time>2021-05-17T12:25:52Z</time>
      </trkpt>
      <trkpt lat="41.6248250" lon="-8.7910530">
        <ele>118.6</ele>
        <time>2021-05-17T12:25:53Z</time>
      </trkpt>
      <trkpt lat="41.6248250" lon="-8.7910510">
        <ele>118.6</ele>
        <time>2021-05-17T12:25:54Z</time>
      </trkpt>
      <trkpt lat="41.6248270" lon="-8.7910530">
        <ele>118.6</ele>
        <time>2021-05-17T12:25:55Z</time>
      </trkpt>
      <trkpt lat="41.6248280" lon="-8.7910580">
        <ele>118.6</ele>
        <time>2021-05-17T12:25:56Z</time>
      </trkpt>
      <trkpt lat="41.6248270" lon="-8.7910590">
        <ele>118.6</ele>
        <time>2021-05-17T12:25:57Z</time>
      </trkpt>
      <trkpt lat="41.6248260" lon="-8.7910610">
        <ele>118.6</ele>
        <time>2021-05-17T12:25:58Z</time>
      </trkpt>
      <trkpt lat="41.6248250" lon="-8.7910600">
        <ele>118.6</ele>
        <time>2021-05-17T12:25:59Z</time>
      </trkpt>
      <trkpt lat="41.6248250" lon="-8.7910610">
        <ele>118.6</ele>
        <time>2021-05-17T12:26:00Z</time>
      </trkpt>
      <trkpt lat="41.6248240" lon="-8.7910600">
        <ele>118.6</ele>
        <time>2021-05-17T12:26:01Z</time>
      </trkpt>
      <trkpt lat="41.6248250" lon="-8.7910630">
        <ele>118.6</ele>
        <time>2021-05-17T12:26:02Z</time>
      </trkpt>
      <trkpt lat="41.6248250" lon="-8.7910700">
        <ele>118.5</ele>
        <time>2021-05-17T12:26:03Z</time>
      </trkpt>
      <trkpt lat="41.6248250" lon="-8.7910700">
        <ele>118.5</ele>
        <time>2021-05-17T12:26:04Z</time>
      </trkpt>
      <trkpt lat="41.6248240" lon="-8.7910700">
        <ele>118.5</ele>
        <time>2021-05-17T12:26:05Z</time>
      </trkpt>
      <trkpt lat="41.6248240" lon="-8.7910720">
        <ele>118.5</ele>
        <time>2021-05-17T12:26:06Z</time>
      </trkpt>
      <trkpt lat="41.6248270" lon="-8.7910690">
        <ele>118.5</ele>
        <time>2021-05-17T12:26:07Z</time>
      </trkpt>
      <trkpt lat="41.6248270" lon="-8.7910710">
        <ele>118.5</ele>
        <time>2021-05-17T12:26:08Z</time>
      </trkpt>
      <trkpt lat="41.6248230" lon="-8.7910710">
        <ele>118.5</ele>
        <time>2021-05-17T12:26:09Z</time>
      </trkpt>
      <trkpt lat="41.6248220" lon="-8.7910700">
        <ele>118.5</ele>
        <time>2021-05-17T12:26:10Z</time>
      </trkpt>
      <trkpt lat="41.6248200" lon="-8.7910690">
        <ele>118.5</ele>
        <time>2021-05-17T12:26:11Z</time>
      </trkpt>
      <trkpt lat="41.6248220" lon="-8.7910650">
        <ele>118.5</ele>
        <time>2021-05-17T12:26:12Z</time>
      </trkpt>
      <trkpt lat="41.6248200" lon="-8.7910640">
        <ele>118.5</ele>
        <time>2021-05-17T12:26:13Z</time>
      </trkpt>
      <trkpt lat="41.6248150" lon="-8.7910610">
        <ele>118.5</ele>
        <time>2021-05-17T12:26:14Z</time>
      </trkpt>
      <trkpt lat="41.6248120" lon="-8.7910600">
        <ele>118.5</ele>
        <time>2021-05-17T12:26:15Z</time>
      </trkpt>
      <trkpt lat="41.6248110" lon="-8.7910590">
        <ele>118.5</ele>
        <time>2021-05-17T12:26:16Z</time>
      </trkpt>
      <trkpt lat="41.6248110" lon="-8.7910610">
        <ele>118.5</ele>
        <time>2021-05-17T12:26:17Z</time>
      </trkpt>
      <trkpt lat="41.6248110" lon="-8.7910610">
        <ele>118.5</ele>
        <time>2021-05-17T12:26:18Z</time>
      </trkpt>
      <trkpt lat="41.6248120" lon="-8.7910610">
        <ele>118.5</ele>
        <time>2021-05-17T12:26:19Z</time>
      </trkpt>
      <trkpt lat="41.6248100" lon="-8.7910610">
        <ele>118.5</ele>
        <time>2021-05-17T12:26:20Z</time>
      </trkpt>
      <trkpt lat="41.6248110" lon="-8.7910580">
        <ele>118.5</ele>
        <time>2021-05-17T12:26:21Z</time>
      </trkpt>
      <trkpt lat="41.6248080" lon="-8.7910570">
        <ele>118.5</ele>
        <time>2021-05-17T12:26:22Z</time>
      </trkpt>
      <trkpt lat="41.6248090" lon="-8.7910570">
        <ele>118.5</ele>
        <time>2021-05-17T12:26:23Z</time>
      </trkpt>
      <trkpt lat="41.6248090" lon="-8.7910570">
        <ele>118.5</ele>
        <time>2021-05-17T12:26:24Z</time>
      </trkpt>
      <trkpt lat="41.6248100" lon="-8.7910590">
        <ele>118.5</ele>
        <time>2021-05-17T12:26:25Z</time>
      </trkpt>
      <trkpt lat="41.6248130" lon="-8.7910610">
        <ele>118.5</ele>
        <time>2021-05-17T12:26:26Z</time>
      </trkpt>
      <trkpt lat="41.6248140" lon="-8.7910600">
        <ele>118.5</ele>
        <time>2021-05-17T12:26:27Z</time>
      </trkpt>
      <trkpt lat="41.6248150" lon="-8.7910620">
        <ele>118.5</ele>
        <time>2021-05-17T12:26:28Z</time>
      </trkpt>
      <trkpt lat="41.6248090" lon="-8.7910660">
        <ele>118.5</ele>
        <time>2021-05-17T12:26:29Z</time>
      </trkpt>
      <trkpt lat="41.6248070" lon="-8.7910670">
        <ele>118.5</ele>
        <time>2021-05-17T12:26:30Z</time>
      </trkpt>
      <trkpt lat="41.6248070" lon="-8.7910670">
        <ele>118.5</ele>
        <time>2021-05-17T12:26:31Z</time>
      </trkpt>
      <trkpt lat="41.6248080" lon="-8.7910670">
        <ele>118.5</ele>
        <time>2021-05-17T12:26:33Z</time>
      </trkpt>
      <trkpt lat="41.6248080" lon="-8.7910670">
        <ele>118.5</ele>
        <time>2021-05-17T12:26:34Z</time>
      </trkpt>
      <trkpt lat="41.6248080" lon="-8.7910680">
        <ele>118.5</ele>
        <time>2021-05-17T12:26:35Z</time>
      </trkpt>
      <trkpt lat="41.6248090" lon="-8.7910680">
        <ele>118.5</ele>
        <time>2021-05-17T12:26:36Z</time>
      </trkpt>
      <trkpt lat="41.6248090" lon="-8.7910680">
        <ele>118.5</ele>
        <time>2021-05-17T12:26:37Z</time>
      </trkpt>
      <trkpt lat="41.6248090" lon="-8.7910680">
        <ele>118.5</ele>
        <time>2021-05-17T12:26:38Z</time>
      </trkpt>
      <trkpt lat="41.6248100" lon="-8.7910680">
        <ele>118.5</ele>
        <time>2021-05-17T12:26:39Z</time>
      </trkpt>
      <trkpt lat="41.6248100" lon="-8.7910680">
        <ele>118.5</ele>
        <time>2021-05-17T12:26:40Z</time>
      </trkpt>
      <trkpt lat="41.6248100" lon="-8.7910680">
        <ele>118.5</ele>
        <time>2021-05-17T12:26:41Z</time>
      </trkpt>
      <trkpt lat="41.6248110" lon="-8.7910680">
        <ele>118.5</ele>
        <time>2021-05-17T12:26:42Z</time>
      </trkpt>
      <trkpt lat="41.6248110" lon="-8.7910690">
        <ele>118.5</ele>
        <time>2021-05-17T12:26:43Z</time>
      </trkpt>
      <trkpt lat="41.6248110" lon="-8.7910690">
        <ele>118.5</ele>
        <time>2021-05-17T12:26:44Z</time>
      </trkpt>
      <trkpt lat="41.6248120" lon="-8.7910690">
        <ele>118.4</ele>
        <time>2021-05-17T12:26:45Z</time>
      </trkpt>
      <trkpt lat="41.6248120" lon="-8.7910690">
        <ele>118.4</ele>
        <time>2021-05-17T12:26:46Z</time>
      </trkpt>
      <trkpt lat="41.6248120" lon="-8.7910690">
        <ele>118.4</ele>
        <time>2021-05-17T12:26:47Z</time>
      </trkpt>
      <trkpt lat="41.6248120" lon="-8.7910690">
        <ele>118.4</ele>
        <time>2021-05-17T12:26:48Z</time>
      </trkpt>
      <trkpt lat="41.6248130" lon="-8.7910690">
        <ele>118.4</ele>
        <time>2021-05-17T12:26:49Z</time>
      </trkpt>
      <trkpt lat="41.6248130" lon="-8.7910700">
        <ele>118.4</ele>
        <time>2021-05-17T12:26:50Z</time>
      </trkpt>
      <trkpt lat="41.6248130" lon="-8.7910700">
        <ele>118.4</ele>
        <time>2021-05-17T12:26:51Z</time>
      </trkpt>
      <trkpt lat="41.6248140" lon="-8.7910700">
        <ele>118.4</ele>
        <time>2021-05-17T12:26:52Z</time>
      </trkpt>
      <trkpt lat="41.6248140" lon="-8.7910700">
        <ele>118.4</ele>
        <time>2021-05-17T12:26:53Z</time>
      </trkpt>
      <trkpt lat="41.6248140" lon="-8.7910700">
        <ele>118.4</ele>
        <time>2021-05-17T12:26:54Z</time>
      </trkpt>
      <trkpt lat="41.6248150" lon="-8.7910700">
        <ele>118.4</ele>
        <time>2021-05-17T12:26:55Z</time>
      </trkpt>
      <trkpt lat="41.6248150" lon="-8.7910700">
        <ele>118.4</ele>
        <time>2021-05-17T12:26:56Z</time>
      </trkpt>
      <trkpt lat="41.6248150" lon="-8.7910710">
        <ele>118.4</ele>
        <time>2021-05-17T12:26:57Z</time>
      </trkpt>
      <trkpt lat="41.6248160" lon="-8.7910710">
        <ele>118.4</ele>
        <time>2021-05-17T12:26:58Z</time>
      </trkpt>
      <trkpt lat="41.6248160" lon="-8.7910710">
        <ele>118.4</ele>
        <time>2021-05-17T12:26:59Z</time>
      </trkpt>
      <trkpt lat="41.6248160" lon="-8.7910710">
        <ele>118.4</ele>
        <time>2021-05-17T12:27:00Z</time>
      </trkpt>
      <trkpt lat="41.6248170" lon="-8.7910710">
        <ele>118.4</ele>
        <time>2021-05-17T12:27:01Z</time>
      </trkpt>
      <trkpt lat="41.6248170" lon="-8.7910710">
        <ele>118.4</ele>
        <time>2021-05-17T12:27:02Z</time>
      </trkpt>
      <trkpt lat="41.6248170" lon="-8.7910710">
        <ele>118.4</ele>
        <time>2021-05-17T12:27:03Z</time>
      </trkpt>
      <trkpt lat="41.6248180" lon="-8.7910710">
        <ele>118.4</ele>
        <time>2021-05-17T12:27:04Z</time>
      </trkpt>
      <trkpt lat="41.6248180" lon="-8.7910720">
        <ele>118.4</ele>
        <time>2021-05-17T12:27:05Z</time>
      </trkpt>
      <trkpt lat="41.6248180" lon="-8.7910720">
        <ele>118.4</ele>
        <time>2021-05-17T12:27:06Z</time>
      </trkpt>
      <trkpt lat="41.6248190" lon="-8.7910720">
        <ele>118.4</ele>
        <time>2021-05-17T12:27:07Z</time>
      </trkpt>
      <trkpt lat="41.6248190" lon="-8.7910720">
        <ele>118.4</ele>
        <time>2021-05-17T12:27:08Z</time>
      </trkpt>
      <trkpt lat="41.6248190" lon="-8.7910720">
        <ele>118.4</ele>
        <time>2021-05-17T12:27:09Z</time>
      </trkpt>
      <trkpt lat="41.6248200" lon="-8.7910720">
        <ele>118.4</ele>
        <time>2021-05-17T12:27:10Z</time>
      </trkpt>
      <trkpt lat="41.6248200" lon="-8.7910720">
        <ele>118.4</ele>
        <time>2021-05-17T12:27:11Z</time>
      </trkpt>
      <trkpt lat="41.6248200" lon="-8.7910730">
        <ele>118.4</ele>
        <time>2021-05-17T12:27:12Z</time>
      </trkpt>
      <trkpt lat="41.6248210" lon="-8.7910730">
        <ele>118.4</ele>
        <time>2021-05-17T12:27:13Z</time>
      </trkpt>
      <trkpt lat="41.6248210" lon="-8.7910730">
        <ele>118.4</ele>
        <time>2021-05-17T12:27:14Z</time>
      </trkpt>
      <trkpt lat="41.6248210" lon="-8.7910730">
        <ele>118.4</ele>
        <time>2021-05-17T12:27:15Z</time>
      </trkpt>
      <trkpt lat="41.6248220" lon="-8.7910730">
        <ele>118.4</ele>
        <time>2021-05-17T12:27:16Z</time>
      </trkpt>
      <trkpt lat="41.6248220" lon="-8.7910730">
        <ele>118.4</ele>
        <time>2021-05-17T12:27:17Z</time>
      </trkpt>
      <trkpt lat="41.6248220" lon="-8.7910730">
        <ele>118.4</ele>
        <time>2021-05-17T12:27:18Z</time>
      </trkpt>
      <trkpt lat="41.6248230" lon="-8.7910730">
        <ele>118.4</ele>
        <time>2021-05-17T12:27:19Z</time>
      </trkpt>
      <trkpt lat="41.6248230" lon="-8.7910740">
        <ele>118.4</ele>
        <time>2021-05-17T12:27:20Z</time>
      </trkpt>
      <trkpt lat="41.6248230" lon="-8.7910740">
        <ele>118.4</ele>
        <time>2021-05-17T12:27:21Z</time>
      </trkpt>
      <trkpt lat="41.6248230" lon="-8.7910740">
        <ele>118.4</ele>
        <time>2021-05-17T12:27:22Z</time>
      </trkpt>
      <trkpt lat="41.6248240" lon="-8.7910740">
        <ele>118.4</ele>
        <time>2021-05-17T12:27:23Z</time>
      </trkpt>
      <trkpt lat="41.6248240" lon="-8.7910740">
        <ele>118.4</ele>
        <time>2021-05-17T12:27:24Z</time>
      </trkpt>
      <trkpt lat="41.6248240" lon="-8.7910740">
        <ele>118.4</ele>
        <time>2021-05-17T12:27:25Z</time>
      </trkpt>
      <trkpt lat="41.6248250" lon="-8.7910740">
        <ele>118.4</ele>
        <time>2021-05-17T12:27:26Z</time>
      </trkpt>
      <trkpt lat="41.6248250" lon="-8.7910750">
        <ele>118.4</ele>
        <time>2021-05-17T12:27:27Z</time>
      </trkpt>
      <trkpt lat="41.6248250" lon="-8.7910750">
        <ele>118.4</ele>
        <time>2021-05-17T12:27:28Z</time>
      </trkpt>
      <trkpt lat="41.6248260" lon="-8.7910750">
        <ele>118.4</ele>
        <time>2021-05-17T12:27:29Z</time>
      </trkpt>
      <trkpt lat="41.6248260" lon="-8.7910750">
        <ele>118.4</ele>
        <time>2021-05-17T12:27:30Z</time>
      </trkpt>
      <trkpt lat="41.6248260" lon="-8.7910750">
        <ele>118.4</ele>
        <time>2021-05-17T12:27:31Z</time>
      </trkpt>
      <trkpt lat="41.6248270" lon="-8.7910750">
        <ele>118.4</ele>
        <time>2021-05-17T12:27:32Z</time>
      </trkpt>
      <trkpt lat="41.6248270" lon="-8.7910750">
        <ele>118.4</ele>
        <time>2021-05-17T12:27:33Z</time>
      </trkpt>
      <trkpt lat="41.6248270" lon="-8.7910760">
        <ele>118.4</ele>
        <time>2021-05-17T12:27:34Z</time>
      </trkpt>
      <trkpt lat="41.6248280" lon="-8.7910760">
        <ele>118.4</ele>
        <time>2021-05-17T12:27:35Z</time>
      </trkpt>
      <trkpt lat="41.6248280" lon="-8.7910760">
        <ele>118.4</ele>
        <time>2021-05-17T12:27:36Z</time>
      </trkpt>
      <trkpt lat="41.6248280" lon="-8.7910760">
        <ele>118.4</ele>
        <time>2021-05-17T12:27:37Z</time>
      </trkpt>
      <trkpt lat="41.6248290" lon="-8.7910760">
        <ele>118.4</ele>
        <time>2021-05-17T12:27:38Z</time>
      </trkpt>
      <trkpt lat="41.6248290" lon="-8.7910760">
        <ele>118.4</ele>
        <time>2021-05-17T12:27:39Z</time>
      </trkpt>
      <trkpt lat="41.6248290" lon="-8.7910760">
        <ele>118.4</ele>
        <time>2021-05-17T12:27:40Z</time>
      </trkpt>
      <trkpt lat="41.6248300" lon="-8.7910760">
        <ele>118.4</ele>
        <time>2021-05-17T12:27:41Z</time>
      </trkpt>
      <trkpt lat="41.6248300" lon="-8.7910770">
        <ele>118.4</ele>
        <time>2021-05-17T12:27:42Z</time>
      </trkpt>
      <trkpt lat="41.6248300" lon="-8.7910770">
        <ele>118.4</ele>
        <time>2021-05-17T12:27:43Z</time>
      </trkpt>
      <trkpt lat="41.6248310" lon="-8.7910770">
        <ele>118.4</ele>
        <time>2021-05-17T12:27:44Z</time>
      </trkpt>
      <trkpt lat="41.6248310" lon="-8.7910770">
        <ele>118.4</ele>
        <time>2021-05-17T12:27:45Z</time>
      </trkpt>
      <trkpt lat="41.6248310" lon="-8.7910770">
        <ele>118.4</ele>
        <time>2021-05-17T12:27:46Z</time>
      </trkpt>
      <trkpt lat="41.6248320" lon="-8.7910770">
        <ele>118.4</ele>
        <time>2021-05-17T12:27:47Z</time>
      </trkpt>
      <trkpt lat="41.6248320" lon="-8.7910770">
        <ele>118.4</ele>
        <time>2021-05-17T12:27:48Z</time>
      </trkpt>
      <trkpt lat="41.6248320" lon="-8.7910780">
        <ele>118.4</ele>
        <time>2021-05-17T12:27:49Z</time>
      </trkpt>
      <trkpt lat="41.6248330" lon="-8.7910780">
        <ele>118.4</ele>
        <time>2021-05-17T12:27:50Z</time>
      </trkpt>
      <trkpt lat="41.6248330" lon="-8.7910780">
        <ele>118.4</ele>
        <time>2021-05-17T12:27:51Z</time>
      </trkpt>
      <trkpt lat="41.6248330" lon="-8.7910780">
        <ele>118.4</ele>
        <time>2021-05-17T12:27:52Z</time>
      </trkpt>
      <trkpt lat="41.6248340" lon="-8.7910780">
        <ele>118.4</ele>
        <time>2021-05-17T12:27:53Z</time>
      </trkpt>
      <trkpt lat="41.6248340" lon="-8.7910780">
        <ele>118.4</ele>
        <time>2021-05-17T12:27:54Z</time>
      </trkpt>
      <trkpt lat="41.6248340" lon="-8.7910780">
        <ele>118.4</ele>
        <time>2021-05-17T12:27:55Z</time>
      </trkpt>
      <trkpt lat="41.6248340" lon="-8.7910790">
        <ele>118.4</ele>
        <time>2021-05-17T12:27:56Z</time>
      </trkpt>
      <trkpt lat="41.6248350" lon="-8.7910790">
        <ele>118.4</ele>
        <time>2021-05-17T12:27:57Z</time>
      </trkpt>
      <trkpt lat="41.6248350" lon="-8.7910790">
        <ele>118.4</ele>
        <time>2021-05-17T12:27:58Z</time>
      </trkpt>
      <trkpt lat="41.6248350" lon="-8.7910790">
        <ele>118.4</ele>
        <time>2021-05-17T12:27:59Z</time>
      </trkpt>
      <trkpt lat="41.6248360" lon="-8.7910790">
        <ele>118.4</ele>
        <time>2021-05-17T12:28:00Z</time>
      </trkpt>
      <trkpt lat="41.6248360" lon="-8.7910790">
        <ele>118.4</ele>
        <time>2021-05-17T12:28:01Z</time>
      </trkpt>
      <trkpt lat="41.6248360" lon="-8.7910790">
        <ele>118.4</ele>
        <time>2021-05-17T12:28:02Z</time>
      </trkpt>
      <trkpt lat="41.6248370" lon="-8.7910790">
        <ele>118.4</ele>
        <time>2021-05-17T12:28:03Z</time>
      </trkpt>
      <trkpt lat="41.6248370" lon="-8.7910800">
        <ele>118.4</ele>
        <time>2021-05-17T12:28:04Z</time>
      </trkpt>
      <trkpt lat="41.6248370" lon="-8.7910800">
        <ele>118.4</ele>
        <time>2021-05-17T12:28:05Z</time>
      </trkpt>
      <trkpt lat="41.6248380" lon="-8.7910800">
        <ele>118.4</ele>
        <time>2021-05-17T12:28:06Z</time>
      </trkpt>
      <trkpt lat="41.6248380" lon="-8.7910800">
        <ele>118.4</ele>
        <time>2021-05-17T12:28:07Z</time>
      </trkpt>
      <trkpt lat="41.6248380" lon="-8.7910800">
        <ele>118.4</ele>
        <time>2021-05-17T12:28:08Z</time>
      </trkpt>
      <trkpt lat="41.6248390" lon="-8.7910800">
        <ele>118.4</ele>
        <time>2021-05-17T12:28:09Z</time>
      </trkpt>
      <trkpt lat="41.6248390" lon="-8.7910800">
        <ele>118.4</ele>
        <time>2021-05-17T12:28:10Z</time>
      </trkpt>
      <trkpt lat="41.6248390" lon="-8.7910810">
        <ele>118.4</ele>
        <time>2021-05-17T12:28:11Z</time>
      </trkpt>
      <trkpt lat="41.6248400" lon="-8.7910810">
        <ele>118.4</ele>
        <time>2021-05-17T12:28:12Z</time>
      </trkpt>
      <trkpt lat="41.6248400" lon="-8.7910810">
        <ele>118.4</ele>
        <time>2021-05-17T12:28:13Z</time>
      </trkpt>
      <trkpt lat="41.6248400" lon="-8.7910810">
        <ele>118.4</ele>
        <time>2021-05-17T12:28:14Z</time>
      </trkpt>
      <trkpt lat="41.6248410" lon="-8.7910810">
        <ele>118.4</ele>
        <time>2021-05-17T12:28:15Z</time>
      </trkpt>
      <trkpt lat="41.6248410" lon="-8.7910810">
        <ele>118.4</ele>
        <time>2021-05-17T12:28:16Z</time>
      </trkpt>
      <trkpt lat="41.6248410" lon="-8.7910810">
        <ele>118.4</ele>
        <time>2021-05-17T12:28:17Z</time>
      </trkpt>
      <trkpt lat="41.6248420" lon="-8.7910810">
        <ele>118.4</ele>
        <time>2021-05-17T12:28:18Z</time>
      </trkpt>
      <trkpt lat="41.6248420" lon="-8.7910820">
        <ele>118.4</ele>
        <time>2021-05-17T12:28:19Z</time>
      </trkpt>
      <trkpt lat="41.6248420" lon="-8.7910820">
        <ele>118.4</ele>
        <time>2021-05-17T12:28:20Z</time>
      </trkpt>
      <trkpt lat="41.6248430" lon="-8.7910820">
        <ele>118.4</ele>
        <time>2021-05-17T12:28:21Z</time>
      </trkpt>
      <trkpt lat="41.6248430" lon="-8.7910820">
        <ele>118.4</ele>
        <time>2021-05-17T12:28:22Z</time>
      </trkpt>
      <trkpt lat="41.6248430" lon="-8.7910820">
        <ele>118.4</ele>
        <time>2021-05-17T12:28:23Z</time>
      </trkpt>
      <trkpt lat="41.6248440" lon="-8.7910820">
        <ele>118.4</ele>
        <time>2021-05-17T12:28:24Z</time>
      </trkpt>
      <trkpt lat="41.6248440" lon="-8.7910820">
        <ele>118.4</ele>
        <time>2021-05-17T12:28:25Z</time>
      </trkpt>
      <trkpt lat="41.6248440" lon="-8.7910830">
        <ele>118.4</ele>
        <time>2021-05-17T12:28:26Z</time>
      </trkpt>
      <trkpt lat="41.6248450" lon="-8.7910830">
        <ele>118.4</ele>
        <time>2021-05-17T12:28:27Z</time>
      </trkpt>
      <trkpt lat="41.6248450" lon="-8.7910830">
        <ele>118.4</ele>
        <time>2021-05-17T12:28:28Z</time>
      </trkpt>
      <trkpt lat="41.6248450" lon="-8.7910830">
        <ele>118.4</ele>
        <time>2021-05-17T12:28:29Z</time>
      </trkpt>
      <trkpt lat="41.6248450" lon="-8.7910830">
        <ele>118.4</ele>
        <time>2021-05-17T12:28:30Z</time>
      </trkpt>
      <trkpt lat="41.6248460" lon="-8.7910830">
        <ele>118.4</ele>
        <time>2021-05-17T12:28:31Z</time>
      </trkpt>
      <trkpt lat="41.6248460" lon="-8.7910830">
        <ele>118.4</ele>
        <time>2021-05-17T12:28:32Z</time>
      </trkpt>
      <trkpt lat="41.6248460" lon="-8.7910840">
        <ele>118.4</ele>
        <time>2021-05-17T12:28:33Z</time>
      </trkpt>
      <trkpt lat="41.6248470" lon="-8.7910840">
        <ele>118.4</ele>
        <time>2021-05-17T12:28:34Z</time>
      </trkpt>
      <trkpt lat="41.6248470" lon="-8.7910840">
        <ele>118.4</ele>
        <time>2021-05-17T12:28:35Z</time>
      </trkpt>
      <trkpt lat="41.6248470" lon="-8.7910840">
        <ele>118.4</ele>
        <time>2021-05-17T12:28:36Z</time>
      </trkpt>
      <trkpt lat="41.6248480" lon="-8.7910840">
        <ele>118.4</ele>
        <time>2021-05-17T12:28:37Z</time>
      </trkpt>
      <trkpt lat="41.6248480" lon="-8.7910840">
        <ele>118.4</ele>
        <time>2021-05-17T12:28:38Z</time>
      </trkpt>
      <trkpt lat="41.6248480" lon="-8.7910840">
        <ele>118.4</ele>
        <time>2021-05-17T12:28:39Z</time>
      </trkpt>
      <trkpt lat="41.6248490" lon="-8.7910840">
        <ele>118.4</ele>
        <time>2021-05-17T12:28:40Z</time>
      </trkpt>
      <trkpt lat="41.6248490" lon="-8.7910850">
        <ele>118.4</ele>
        <time>2021-05-17T12:28:41Z</time>
      </trkpt>
      <trkpt lat="41.6248490" lon="-8.7910850">
        <ele>118.4</ele>
        <time>2021-05-17T12:28:42Z</time>
      </trkpt>
      <trkpt lat="41.6248500" lon="-8.7910850">
        <ele>118.4</ele>
        <time>2021-05-17T12:28:43Z</time>
      </trkpt>
      <trkpt lat="41.6248500" lon="-8.7910850">
        <ele>118.4</ele>
        <time>2021-05-17T12:28:44Z</time>
      </trkpt>
      <trkpt lat="41.6248540" lon="-8.7911000">
        <ele>118.3</ele>
        <time>2021-05-17T12:28:45Z</time>
      </trkpt>
      <trkpt lat="41.6248590" lon="-8.7911080">
        <ele>118.3</ele>
        <time>2021-05-17T12:28:46Z</time>
      </trkpt>
      <trkpt lat="41.6248610" lon="-8.7911290">
        <ele>118.3</ele>
        <time>2021-05-17T12:28:47Z</time>
      </trkpt>
      <trkpt lat="41.6248770" lon="-8.7911560">
        <ele>118.2</ele>
        <time>2021-05-17T12:28:48Z</time>
      </trkpt>
      <trkpt lat="41.6248840" lon="-8.7911690">
        <ele>118.2</ele>
        <time>2021-05-17T12:28:49Z</time>
      </trkpt>
      <trkpt lat="41.6248880" lon="-8.7911800">
        <ele>118.1</ele>
        <time>2021-05-17T12:28:50Z</time>
      </trkpt>
      <trkpt lat="41.6248870" lon="-8.7911910">
        <ele>118.1</ele>
        <time>2021-05-17T12:28:51Z</time>
      </trkpt>
      <trkpt lat="41.6248930" lon="-8.7912050">
        <ele>118.1</ele>
        <time>2021-05-17T12:28:52Z</time>
      </trkpt>
      <trkpt lat="41.6249090" lon="-8.7912250">
        <ele>118.0</ele>
        <time>2021-05-17T12:28:53Z</time>
      </trkpt>
      <trkpt lat="41.6249130" lon="-8.7912360">
        <ele>118.0</ele>
        <time>2021-05-17T12:28:55Z</time>
      </trkpt>
      <trkpt lat="41.6249170" lon="-8.7912460">
        <ele>117.9</ele>
        <time>2021-05-17T12:28:56Z</time>
      </trkpt>
      <trkpt lat="41.6249260" lon="-8.7912660">
        <ele>117.9</ele>
        <time>2021-05-17T12:28:57Z</time>
      </trkpt>
      <trkpt lat="41.6249380" lon="-8.7912840">
        <ele>117.8</ele>
        <time>2021-05-17T12:28:58Z</time>
      </trkpt>
      <trkpt lat="41.6249490" lon="-8.7913050">
        <ele>117.7</ele>
        <time>2021-05-17T12:28:59Z</time>
      </trkpt>
      <trkpt lat="41.6249550" lon="-8.7913130">
        <ele>117.7</ele>
        <time>2021-05-17T12:29:00Z</time>
      </trkpt>
      <trkpt lat="41.6249620" lon="-8.7913220">
        <ele>117.7</ele>
        <time>2021-05-17T12:29:01Z</time>
      </trkpt>
      <trkpt lat="41.6249660" lon="-8.7913500">
        <ele>117.6</ele>
        <time>2021-05-17T12:29:02Z</time>
      </trkpt>
      <trkpt lat="41.6249690" lon="-8.7913600">
        <ele>117.5</ele>
        <time>2021-05-17T12:29:03Z</time>
      </trkpt>
      <trkpt lat="41.6249710" lon="-8.7913700">
        <ele>117.5</ele>
        <time>2021-05-17T12:29:04Z</time>
      </trkpt>
      <trkpt lat="41.6249780" lon="-8.7913850">
        <ele>117.4</ele>
        <time>2021-05-17T12:29:05Z</time>
      </trkpt>
      <trkpt lat="41.6249870" lon="-8.7914020">
        <ele>117.4</ele>
        <time>2021-05-17T12:29:06Z</time>
      </trkpt>
      <trkpt lat="41.6250000" lon="-8.7914240">
        <ele>117.3</ele>
        <time>2021-05-17T12:29:07Z</time>
      </trkpt>
      <trkpt lat="41.6250050" lon="-8.7914360">
        <ele>117.3</ele>
        <time>2021-05-17T12:29:08Z</time>
      </trkpt>
      <trkpt lat="41.6250100" lon="-8.7914470">
        <ele>117.2</ele>
        <time>2021-05-17T12:29:09Z</time>
      </trkpt>
      <trkpt lat="41.6250200" lon="-8.7914720">
        <ele>117.1</ele>
        <time>2021-05-17T12:29:10Z</time>
      </trkpt>
      <trkpt lat="41.6250230" lon="-8.7914820">
        <ele>117.1</ele>
        <time>2021-05-17T12:29:11Z</time>
      </trkpt>
      <trkpt lat="41.6250270" lon="-8.7914930">
        <ele>117.1</ele>
        <time>2021-05-17T12:29:12Z</time>
      </trkpt>
      <trkpt lat="41.6250270" lon="-8.7915000">
        <ele>117.0</ele>
        <time>2021-05-17T12:29:13Z</time>
      </trkpt>
      <trkpt lat="41.6250300" lon="-8.7915130">
        <ele>117.0</ele>
        <time>2021-05-17T12:29:14Z</time>
      </trkpt>
      <trkpt lat="41.6250390" lon="-8.7915290">
        <ele>116.9</ele>
        <time>2021-05-17T12:29:15Z</time>
      </trkpt>
      <trkpt lat="41.6250480" lon="-8.7915450">
        <ele>116.9</ele>
        <time>2021-05-17T12:29:16Z</time>
      </trkpt>
      <trkpt lat="41.6250550" lon="-8.7915600">
        <ele>116.8</ele>
        <time>2021-05-17T12:29:17Z</time>
      </trkpt>
      <trkpt lat="41.6250620" lon="-8.7915760">
        <ele>116.8</ele>
        <time>2021-05-17T12:29:18Z</time>
      </trkpt>
      <trkpt lat="41.6250670" lon="-8.7915950">
        <ele>116.7</ele>
        <time>2021-05-17T12:29:19Z</time>
      </trkpt>
      <trkpt lat="41.6250740" lon="-8.7916100">
        <ele>116.6</ele>
        <time>2021-05-17T12:29:20Z</time>
      </trkpt>
      <trkpt lat="41.6250800" lon="-8.7916160">
        <ele>116.6</ele>
        <time>2021-05-17T12:29:21Z</time>
      </trkpt>
      <trkpt lat="41.6250840" lon="-8.7916290">
        <ele>116.6</ele>
        <time>2021-05-17T12:29:22Z</time>
      </trkpt>
      <trkpt lat="41.6250970" lon="-8.7916530">
        <ele>116.5</ele>
        <time>2021-05-17T12:29:23Z</time>
      </trkpt>
      <trkpt lat="41.6251010" lon="-8.7916630">
        <ele>116.4</ele>
        <time>2021-05-17T12:29:24Z</time>
      </trkpt>
      <trkpt lat="41.6251060" lon="-8.7916740">
        <ele>116.4</ele>
        <time>2021-05-17T12:29:25Z</time>
      </trkpt>
      <trkpt lat="41.6251160" lon="-8.7916860">
        <ele>116.3</ele>
        <time>2021-05-17T12:29:26Z</time>
      </trkpt>
      <trkpt lat="41.6251300" lon="-8.7917000">
        <ele>116.2</ele>
        <time>2021-05-17T12:29:27Z</time>
      </trkpt>
      <trkpt lat="41.6251390" lon="-8.7917200">
        <ele>116.2</ele>
        <time>2021-05-17T12:29:28Z</time>
      </trkpt>
      <trkpt lat="41.6251480" lon="-8.7917370">
        <ele>116.1</ele>
        <time>2021-05-17T12:29:29Z</time>
      </trkpt>
      <trkpt lat="41.6251510" lon="-8.7917560">
        <ele>116.0</ele>
        <time>2021-05-17T12:29:30Z</time>
      </trkpt>
      <trkpt lat="41.6251650" lon="-8.7917690">
        <ele>115.9</ele>
        <time>2021-05-17T12:29:31Z</time>
      </trkpt>
      <trkpt lat="41.6251710" lon="-8.7917920">
        <ele>115.9</ele>
        <time>2021-05-17T12:29:32Z</time>
      </trkpt>
      <trkpt lat="41.6251830" lon="-8.7918050">
        <ele>115.8</ele>
        <time>2021-05-17T12:29:33Z</time>
      </trkpt>
      <trkpt lat="41.6251890" lon="-8.7918230">
        <ele>115.7</ele>
        <time>2021-05-17T12:29:34Z</time>
      </trkpt>
      <trkpt lat="41.6251980" lon="-8.7918440">
        <ele>115.7</ele>
        <time>2021-05-17T12:29:35Z</time>
      </trkpt>
      <trkpt lat="41.6252110" lon="-8.7918570">
        <ele>115.6</ele>
        <time>2021-05-17T12:29:36Z</time>
      </trkpt>
      <trkpt lat="41.6252180" lon="-8.7918750">
        <ele>115.5</ele>
        <time>2021-05-17T12:29:37Z</time>
      </trkpt>
      <trkpt lat="41.6252290" lon="-8.7918890">
        <ele>115.5</ele>
        <time>2021-05-17T12:29:38Z</time>
      </trkpt>
      <trkpt lat="41.6252340" lon="-8.7919060">
        <ele>115.4</ele>
        <time>2021-05-17T12:29:39Z</time>
      </trkpt>
      <trkpt lat="41.6252430" lon="-8.7919280">
        <ele>115.4</ele>
        <time>2021-05-17T12:29:40Z</time>
      </trkpt>
      <trkpt lat="41.6252520" lon="-8.7919390">
        <ele>115.3</ele>
        <time>2021-05-17T12:29:41Z</time>
      </trkpt>
      <trkpt lat="41.6252620" lon="-8.7919540">
        <ele>115.3</ele>
        <time>2021-05-17T12:29:42Z</time>
      </trkpt>
      <trkpt lat="41.6252650" lon="-8.7919750">
        <ele>115.2</ele>
        <time>2021-05-17T12:29:43Z</time>
      </trkpt>
      <trkpt lat="41.6252770" lon="-8.7919920">
        <ele>115.1</ele>
        <time>2021-05-17T12:29:44Z</time>
      </trkpt>
      <trkpt lat="41.6252850" lon="-8.7920090">
        <ele>115.1</ele>
        <time>2021-05-17T12:29:45Z</time>
      </trkpt>
      <trkpt lat="41.6252940" lon="-8.7920220">
        <ele>115.1</ele>
        <time>2021-05-17T12:29:46Z</time>
      </trkpt>
      <trkpt lat="41.6252970" lon="-8.7920430">
        <ele>115.0</ele>
        <time>2021-05-17T12:29:47Z</time>
      </trkpt>
      <trkpt lat="41.6253050" lon="-8.7920630">
        <ele>115.0</ele>
        <time>2021-05-17T12:29:48Z</time>
      </trkpt>
      <trkpt lat="41.6253160" lon="-8.7920800">
        <ele>114.9</ele>
        <time>2021-05-17T12:29:49Z</time>
      </trkpt>
      <trkpt lat="41.6253330" lon="-8.7921020">
        <ele>114.8</ele>
        <time>2021-05-17T12:29:50Z</time>
      </trkpt>
      <trkpt lat="41.6253390" lon="-8.7921120">
        <ele>114.8</ele>
        <time>2021-05-17T12:29:51Z</time>
      </trkpt>
      <trkpt lat="41.6253460" lon="-8.7921210">
        <ele>114.8</ele>
        <time>2021-05-17T12:29:52Z</time>
      </trkpt>
      <trkpt lat="41.6253490" lon="-8.7921350">
        <ele>114.7</ele>
        <time>2021-05-17T12:29:53Z</time>
      </trkpt>
      <trkpt lat="41.6253550" lon="-8.7921520">
        <ele>114.7</ele>
        <time>2021-05-17T12:29:54Z</time>
      </trkpt>
      <trkpt lat="41.6253690" lon="-8.7921560">
        <ele>114.6</ele>
        <time>2021-05-17T12:29:55Z</time>
      </trkpt>
      <trkpt lat="41.6253680" lon="-8.7921730">
        <ele>114.6</ele>
        <time>2021-05-17T12:29:56Z</time>
      </trkpt>
      <trkpt lat="41.6253710" lon="-8.7921920">
        <ele>114.5</ele>
        <time>2021-05-17T12:29:57Z</time>
      </trkpt>
      <trkpt lat="41.6253880" lon="-8.7922100">
        <ele>114.5</ele>
        <time>2021-05-17T12:29:58Z</time>
      </trkpt>
      <trkpt lat="41.6253950" lon="-8.7922160">
        <ele>114.4</ele>
        <time>2021-05-17T12:29:59Z</time>
      </trkpt>
      <trkpt lat="41.6254010" lon="-8.7922230">
        <ele>114.4</ele>
        <time>2021-05-17T12:30:00Z</time>
      </trkpt>
      <trkpt lat="41.6254020" lon="-8.7922320">
        <ele>114.4</ele>
        <time>2021-05-17T12:30:01Z</time>
      </trkpt>
      <trkpt lat="41.6254100" lon="-8.7922500">
        <ele>114.3</ele>
        <time>2021-05-17T12:30:02Z</time>
      </trkpt>
      <trkpt lat="41.6254190" lon="-8.7922580">
        <ele>114.3</ele>
        <time>2021-05-17T12:30:03Z</time>
      </trkpt>
      <trkpt lat="41.6254210" lon="-8.7922700">
        <ele>114.2</ele>
        <time>2021-05-17T12:30:04Z</time>
      </trkpt>
      <trkpt lat="41.6254230" lon="-8.7922960">
        <ele>114.1</ele>
        <time>2021-05-17T12:30:05Z</time>
      </trkpt>
      <trkpt lat="41.6254300" lon="-8.7923150">
        <ele>114.1</ele>
        <time>2021-05-17T12:30:06Z</time>
      </trkpt>
      <trkpt lat="41.6254360" lon="-8.7923340">
        <ele>114.0</ele>
        <time>2021-05-17T12:30:07Z</time>
      </trkpt>
      <trkpt lat="41.6254480" lon="-8.7923490">
        <ele>113.9</ele>
        <time>2021-05-17T12:30:08Z</time>
      </trkpt>
      <trkpt lat="41.6254560" lon="-8.7923640">
        <ele>113.9</ele>
        <time>2021-05-17T12:30:09Z</time>
      </trkpt>
      <trkpt lat="41.6254610" lon="-8.7923780">
        <ele>113.8</ele>
        <time>2021-05-17T12:30:10Z</time>
      </trkpt>
      <trkpt lat="41.6254730" lon="-8.7923890">
        <ele>113.8</ele>
        <time>2021-05-17T12:30:11Z</time>
      </trkpt>
      <trkpt lat="41.6254770" lon="-8.7924040">
        <ele>113.7</ele>
        <time>2021-05-17T12:30:12Z</time>
      </trkpt>
      <trkpt lat="41.6254890" lon="-8.7924250">
        <ele>113.6</ele>
        <time>2021-05-17T12:30:13Z</time>
      </trkpt>
      <trkpt lat="41.6254920" lon="-8.7924430">
        <ele>113.6</ele>
        <time>2021-05-17T12:30:14Z</time>
      </trkpt>
      <trkpt lat="41.6255010" lon="-8.7924700">
        <ele>113.5</ele>
        <time>2021-05-17T12:30:15Z</time>
      </trkpt>
      <trkpt lat="41.6255050" lon="-8.7924790">
        <ele>113.4</ele>
        <time>2021-05-17T12:30:16Z</time>
      </trkpt>
      <trkpt lat="41.6255090" lon="-8.7924870">
        <ele>113.4</ele>
        <time>2021-05-17T12:30:17Z</time>
      </trkpt>
      <trkpt lat="41.6255290" lon="-8.7925160">
        <ele>113.3</ele>
        <time>2021-05-17T12:30:18Z</time>
      </trkpt>
      <trkpt lat="41.6255340" lon="-8.7925350">
        <ele>113.2</ele>
        <time>2021-05-17T12:30:19Z</time>
      </trkpt>
      <trkpt lat="41.6255430" lon="-8.7925560">
        <ele>113.1</ele>
        <time>2021-05-17T12:30:20Z</time>
      </trkpt>
      <trkpt lat="41.6255470" lon="-8.7925750">
        <ele>113.1</ele>
        <time>2021-05-17T12:30:21Z</time>
      </trkpt>
      <trkpt lat="41.6255610" lon="-8.7925880">
        <ele>113.0</ele>
        <time>2021-05-17T12:30:22Z</time>
      </trkpt>
      <trkpt lat="41.6255720" lon="-8.7926050">
        <ele>112.9</ele>
        <time>2021-05-17T12:30:23Z</time>
      </trkpt>
      <trkpt lat="41.6255790" lon="-8.7926170">
        <ele>112.9</ele>
        <time>2021-05-17T12:30:24Z</time>
      </trkpt>
      <trkpt lat="41.6255780" lon="-8.7926370">
        <ele>112.8</ele>
        <time>2021-05-17T12:30:25Z</time>
      </trkpt>
      <trkpt lat="41.6255830" lon="-8.7926560">
        <ele>112.8</ele>
        <time>2021-05-17T12:30:26Z</time>
      </trkpt>
      <trkpt lat="41.6255910" lon="-8.7926800">
        <ele>112.7</ele>
        <time>2021-05-17T12:30:27Z</time>
      </trkpt>
      <trkpt lat="41.6255990" lon="-8.7926900">
        <ele>112.7</ele>
        <time>2021-05-17T12:30:28Z</time>
      </trkpt>
      <trkpt lat="41.6256050" lon="-8.7927100">
        <ele>112.6</ele>
        <time>2021-05-17T12:30:29Z</time>
      </trkpt>
      <trkpt lat="41.6256130" lon="-8.7927290">
        <ele>112.5</ele>
        <time>2021-05-17T12:30:30Z</time>
      </trkpt>
      <trkpt lat="41.6256210" lon="-8.7927550">
        <ele>112.4</ele>
        <time>2021-05-17T12:30:31Z</time>
      </trkpt>
      <trkpt lat="41.6256230" lon="-8.7927670">
        <ele>112.4</ele>
        <time>2021-05-17T12:30:32Z</time>
      </trkpt>
      <trkpt lat="41.6256260" lon="-8.7927780">
        <ele>112.4</ele>
        <time>2021-05-17T12:30:33Z</time>
      </trkpt>
      <trkpt lat="41.6256330" lon="-8.7927950">
        <ele>112.3</ele>
        <time>2021-05-17T12:30:34Z</time>
      </trkpt>
      <trkpt lat="41.6256440" lon="-8.7928050">
        <ele>112.3</ele>
        <time>2021-05-17T12:30:35Z</time>
      </trkpt>
      <trkpt lat="41.6256540" lon="-8.7928120">
        <ele>112.2</ele>
        <time>2021-05-17T12:30:36Z</time>
      </trkpt>
      <trkpt lat="41.6256610" lon="-8.7928240">
        <ele>112.2</ele>
        <time>2021-05-17T12:30:37Z</time>
      </trkpt>
      <trkpt lat="41.6256740" lon="-8.7928290">
        <ele>112.2</ele>
        <time>2021-05-17T12:30:38Z</time>
      </trkpt>
      <trkpt lat="41.6256880" lon="-8.7928540">
        <ele>112.1</ele>
        <time>2021-05-17T12:30:39Z</time>
      </trkpt>
      <trkpt lat="41.6256920" lon="-8.7928660">
        <ele>112.0</ele>
        <time>2021-05-17T12:30:40Z</time>
      </trkpt>
      <trkpt lat="41.6256960" lon="-8.7928790">
        <ele>112.0</ele>
        <time>2021-05-17T12:30:41Z</time>
      </trkpt>
      <trkpt lat="41.6257040" lon="-8.7929010">
        <ele>111.9</ele>
        <time>2021-05-17T12:30:42Z</time>
      </trkpt>
      <trkpt lat="41.6257080" lon="-8.7929170">
        <ele>111.9</ele>
        <time>2021-05-17T12:30:43Z</time>
      </trkpt>
      <trkpt lat="41.6257130" lon="-8.7929310">
        <ele>111.8</ele>
        <time>2021-05-17T12:30:44Z</time>
      </trkpt>
      <trkpt lat="41.6257230" lon="-8.7929470">
        <ele>111.8</ele>
        <time>2021-05-17T12:30:45Z</time>
      </trkpt>
      <trkpt lat="41.6257340" lon="-8.7929710">
        <ele>111.7</ele>
        <time>2021-05-17T12:30:46Z</time>
      </trkpt>
      <trkpt lat="41.6257390" lon="-8.7929810">
        <ele>111.7</ele>
        <time>2021-05-17T12:30:47Z</time>
      </trkpt>
      <trkpt lat="41.6257440" lon="-8.7929920">
        <ele>111.6</ele>
        <time>2021-05-17T12:30:48Z</time>
      </trkpt>
      <trkpt lat="41.6257510" lon="-8.7930080">
        <ele>111.6</ele>
        <time>2021-05-17T12:30:49Z</time>
      </trkpt>
      <trkpt lat="41.6257600" lon="-8.7930220">
        <ele>111.5</ele>
        <time>2021-05-17T12:30:50Z</time>
      </trkpt>
      <trkpt lat="41.6257760" lon="-8.7930420">
        <ele>111.4</ele>
        <time>2021-05-17T12:30:51Z</time>
      </trkpt>
      <trkpt lat="41.6257830" lon="-8.7930470">
        <ele>111.4</ele>
        <time>2021-05-17T12:30:52Z</time>
      </trkpt>
      <trkpt lat="41.6257900" lon="-8.7930530">
        <ele>111.4</ele>
        <time>2021-05-17T12:30:53Z</time>
      </trkpt>
      <trkpt lat="41.6257960" lon="-8.7930630">
        <ele>111.3</ele>
        <time>2021-05-17T12:30:54Z</time>
      </trkpt>
      <trkpt lat="41.6257990" lon="-8.7930760">
        <ele>111.3</ele>
        <time>2021-05-17T12:30:55Z</time>
      </trkpt>
      <trkpt lat="41.6258080" lon="-8.7930830">
        <ele>111.3</ele>
        <time>2021-05-17T12:30:56Z</time>
      </trkpt>
      <trkpt lat="41.6258140" lon="-8.7930990">
        <ele>111.2</ele>
        <time>2021-05-17T12:30:57Z</time>
      </trkpt>
      <trkpt lat="41.6258220" lon="-8.7931230">
        <ele>111.1</ele>
        <time>2021-05-17T12:30:58Z</time>
      </trkpt>
      <trkpt lat="41.6258280" lon="-8.7931350">
        <ele>111.1</ele>
        <time>2021-05-17T12:31:00Z</time>
      </trkpt>
      <trkpt lat="41.6258360" lon="-8.7931550">
        <ele>111.0</ele>
        <time>2021-05-17T12:31:01Z</time>
      </trkpt>
      <trkpt lat="41.6258490" lon="-8.7931660">
        <ele>111.0</ele>
        <time>2021-05-17T12:31:02Z</time>
      </trkpt>
      <trkpt lat="41.6258580" lon="-8.7931790">
        <ele>110.9</ele>
        <time>2021-05-17T12:31:03Z</time>
      </trkpt>
      <trkpt lat="41.6258650" lon="-8.7931940">
        <ele>110.9</ele>
        <time>2021-05-17T12:31:04Z</time>
      </trkpt>
      <trkpt lat="41.6258720" lon="-8.7932090">
        <ele>110.8</ele>
        <time>2021-05-17T12:31:05Z</time>
      </trkpt>
      <trkpt lat="41.6258770" lon="-8.7932140">
        <ele>110.8</ele>
        <time>2021-05-17T12:31:06Z</time>
      </trkpt>
      <trkpt lat="41.6258870" lon="-8.7932250">
        <ele>110.8</ele>
        <time>2021-05-17T12:31:07Z</time>
      </trkpt>
      <trkpt lat="41.6258960" lon="-8.7932330">
        <ele>110.7</ele>
        <time>2021-05-17T12:31:08Z</time>
      </trkpt>
      <trkpt lat="41.6259010" lon="-8.7932410">
        <ele>110.7</ele>
        <time>2021-05-17T12:31:09Z</time>
      </trkpt>
      <trkpt lat="41.6259050" lon="-8.7932530">
        <ele>110.7</ele>
        <time>2021-05-17T12:31:10Z</time>
      </trkpt>
      <trkpt lat="41.6259120" lon="-8.7932640">
        <ele>110.7</ele>
        <time>2021-05-17T12:31:11Z</time>
      </trkpt>
      <trkpt lat="41.6259150" lon="-8.7932780">
        <ele>110.6</ele>
        <time>2021-05-17T12:31:12Z</time>
      </trkpt>
      <trkpt lat="41.6259210" lon="-8.7932920">
        <ele>110.6</ele>
        <time>2021-05-17T12:31:13Z</time>
      </trkpt>
      <trkpt lat="41.6259280" lon="-8.7933020">
        <ele>110.6</ele>
        <time>2021-05-17T12:31:14Z</time>
      </trkpt>
      <trkpt lat="41.6259340" lon="-8.7933100">
        <ele>110.5</ele>
        <time>2021-05-17T12:31:15Z</time>
      </trkpt>
      <trkpt lat="41.6259470" lon="-8.7933310">
        <ele>110.5</ele>
        <time>2021-05-17T12:31:16Z</time>
      </trkpt>
      <trkpt lat="41.6259510" lon="-8.7933400">
        <ele>110.5</ele>
        <time>2021-05-17T12:31:17Z</time>
      </trkpt>
      <trkpt lat="41.6259560" lon="-8.7933480">
        <ele>110.4</ele>
        <time>2021-05-17T12:31:18Z</time>
      </trkpt>
      <trkpt lat="41.6259700" lon="-8.7933690">
        <ele>110.4</ele>
        <time>2021-05-17T12:31:19Z</time>
      </trkpt>
      <trkpt lat="41.6259750" lon="-8.7933780">
        <ele>110.3</ele>
        <time>2021-05-17T12:31:20Z</time>
      </trkpt>
      <trkpt lat="41.6259800" lon="-8.7933870">
        <ele>110.3</ele>
        <time>2021-05-17T12:31:21Z</time>
      </trkpt>
      <trkpt lat="41.6259840" lon="-8.7934020">
        <ele>110.3</ele>
        <time>2021-05-17T12:31:22Z</time>
      </trkpt>
      <trkpt lat="41.6259880" lon="-8.7934090">
        <ele>110.3</ele>
        <time>2021-05-17T12:31:23Z</time>
      </trkpt>
      <trkpt lat="41.6260010" lon="-8.7934250">
        <ele>110.2</ele>
        <time>2021-05-17T12:31:24Z</time>
      </trkpt>
      <trkpt lat="41.6260060" lon="-8.7934330">
        <ele>110.2</ele>
        <time>2021-05-17T12:31:25Z</time>
      </trkpt>
      <trkpt lat="41.6260130" lon="-8.7934690">
        <ele>110.1</ele>
        <time>2021-05-17T12:31:26Z</time>
      </trkpt>
      <trkpt lat="41.6260410" lon="-8.7934920">
        <ele>110.0</ele>
        <time>2021-05-17T12:31:27Z</time>
      </trkpt>
      <trkpt lat="41.6260470" lon="-8.7935060">
        <ele>109.9</ele>
        <time>2021-05-17T12:31:28Z</time>
      </trkpt>
      <trkpt lat="41.6260550" lon="-8.7935270">
        <ele>109.8</ele>
        <time>2021-05-17T12:31:29Z</time>
      </trkpt>
      <trkpt lat="41.6260600" lon="-8.7935390">
        <ele>109.8</ele>
        <time>2021-05-17T12:31:30Z</time>
      </trkpt>
      <trkpt lat="41.6260640" lon="-8.7935510">
        <ele>109.8</ele>
        <time>2021-05-17T12:31:31Z</time>
      </trkpt>
      <trkpt lat="41.6260740" lon="-8.7935660">
        <ele>109.7</ele>
        <time>2021-05-17T12:31:32Z</time>
      </trkpt>
      <trkpt lat="41.6260770" lon="-8.7935830">
        <ele>109.6</ele>
        <time>2021-05-17T12:31:33Z</time>
      </trkpt>
      <trkpt lat="41.6260840" lon="-8.7936050">
        <ele>109.5</ele>
        <time>2021-05-17T12:31:34Z</time>
      </trkpt>
      <trkpt lat="41.6260870" lon="-8.7936180">
        <ele>109.5</ele>
        <time>2021-05-17T12:31:35Z</time>
      </trkpt>
      <trkpt lat="41.6260910" lon="-8.7936310">
        <ele>109.4</ele>
        <time>2021-05-17T12:31:36Z</time>
      </trkpt>
      <trkpt lat="41.6260910" lon="-8.7936470">
        <ele>109.4</ele>
        <time>2021-05-17T12:31:37Z</time>
      </trkpt>
      <trkpt lat="41.6260970" lon="-8.7936760">
        <ele>109.3</ele>
        <time>2021-05-17T12:31:38Z</time>
      </trkpt>
      <trkpt lat="41.6261030" lon="-8.7936960">
        <ele>109.2</ele>
        <time>2021-05-17T12:31:39Z</time>
      </trkpt>
      <trkpt lat="41.6261140" lon="-8.7937120">
        <ele>109.1</ele>
        <time>2021-05-17T12:31:40Z</time>
      </trkpt>
      <trkpt lat="41.6261150" lon="-8.7937360">
        <ele>109.0</ele>
        <time>2021-05-17T12:31:41Z</time>
      </trkpt>
      <trkpt lat="41.6261180" lon="-8.7937550">
        <ele>108.9</ele>
        <time>2021-05-17T12:31:42Z</time>
      </trkpt>
      <trkpt lat="41.6261270" lon="-8.7937870">
        <ele>108.8</ele>
        <time>2021-05-17T12:31:43Z</time>
      </trkpt>
      <trkpt lat="41.6261280" lon="-8.7938000">
        <ele>108.7</ele>
        <time>2021-05-17T12:31:44Z</time>
      </trkpt>
      <trkpt lat="41.6261290" lon="-8.7938130">
        <ele>108.7</ele>
        <time>2021-05-17T12:31:45Z</time>
      </trkpt>
      <trkpt lat="41.6261320" lon="-8.7938290">
        <ele>108.6</ele>
        <time>2021-05-17T12:31:46Z</time>
      </trkpt>
      <trkpt lat="41.6261320" lon="-8.7938400">
        <ele>108.5</ele>
        <time>2021-05-17T12:31:47Z</time>
      </trkpt>
      <trkpt lat="41.6261380" lon="-8.7938580">
        <ele>108.5</ele>
        <time>2021-05-17T12:31:48Z</time>
      </trkpt>
      <trkpt lat="41.6261430" lon="-8.7938740">
        <ele>108.4</ele>
        <time>2021-05-17T12:31:49Z</time>
      </trkpt>
      <trkpt lat="41.6261440" lon="-8.7939040">
        <ele>108.2</ele>
        <time>2021-05-17T12:31:50Z</time>
      </trkpt>
      <trkpt lat="41.6261540" lon="-8.7939310">
        <ele>108.1</ele>
        <time>2021-05-17T12:31:51Z</time>
      </trkpt>
      <trkpt lat="41.6261590" lon="-8.7939400">
        <ele>108.0</ele>
        <time>2021-05-17T12:31:52Z</time>
      </trkpt>
      <trkpt lat="41.6261630" lon="-8.7939480">
        <ele>108.0</ele>
        <time>2021-05-17T12:31:53Z</time>
      </trkpt>
      <trkpt lat="41.6261660" lon="-8.7939660">
        <ele>107.9</ele>
        <time>2021-05-17T12:31:54Z</time>
      </trkpt>
      <trkpt lat="41.6261670" lon="-8.7939950">
        <ele>107.7</ele>
        <time>2021-05-17T12:31:55Z</time>
      </trkpt>
      <trkpt lat="41.6261650" lon="-8.7940360">
        <ele>107.5</ele>
        <time>2021-05-17T12:31:56Z</time>
      </trkpt>
      <trkpt lat="41.6261630" lon="-8.7940500">
        <ele>107.4</ele>
        <time>2021-05-17T12:31:57Z</time>
      </trkpt>
      <trkpt lat="41.6261610" lon="-8.7940860">
        <ele>107.2</ele>
        <time>2021-05-17T12:31:58Z</time>
      </trkpt>
      <trkpt lat="41.6261630" lon="-8.7941010">
        <ele>107.1</ele>
        <time>2021-05-17T12:31:59Z</time>
      </trkpt>
      <trkpt lat="41.6261600" lon="-8.7941230">
        <ele>107.0</ele>
        <time>2021-05-17T12:32:00Z</time>
      </trkpt>
      <trkpt lat="41.6261670" lon="-8.7941430">
        <ele>106.8</ele>
        <time>2021-05-17T12:32:01Z</time>
      </trkpt>
      <trkpt lat="41.6261690" lon="-8.7941600">
        <ele>106.7</ele>
        <time>2021-05-17T12:32:02Z</time>
      </trkpt>
      <trkpt lat="41.6261730" lon="-8.7941730">
        <ele>106.6</ele>
        <time>2021-05-17T12:32:03Z</time>
      </trkpt>
      <trkpt lat="41.6261760" lon="-8.7941850">
        <ele>106.5</ele>
        <time>2021-05-17T12:32:04Z</time>
      </trkpt>
      <trkpt lat="41.6261760" lon="-8.7942020">
        <ele>106.4</ele>
        <time>2021-05-17T12:32:05Z</time>
      </trkpt>
      <trkpt lat="41.6261780" lon="-8.7942150">
        <ele>106.3</ele>
        <time>2021-05-17T12:32:06Z</time>
      </trkpt>
      <trkpt lat="41.6261820" lon="-8.7942300">
        <ele>106.2</ele>
        <time>2021-05-17T12:32:07Z</time>
      </trkpt>
      <trkpt lat="41.6261850" lon="-8.7942600">
        <ele>106.0</ele>
        <time>2021-05-17T12:32:08Z</time>
      </trkpt>
      <trkpt lat="41.6261870" lon="-8.7942740">
        <ele>106.0</ele>
        <time>2021-05-17T12:32:09Z</time>
      </trkpt>
      <trkpt lat="41.6261890" lon="-8.7942880">
        <ele>105.9</ele>
        <time>2021-05-17T12:32:10Z</time>
      </trkpt>
      <trkpt lat="41.6261920" lon="-8.7943020">
        <ele>105.8</ele>
        <time>2021-05-17T12:32:11Z</time>
      </trkpt>
      <trkpt lat="41.6261920" lon="-8.7943030">
        <ele>105.8</ele>
        <time>2021-05-17T12:32:12Z</time>
      </trkpt>
      <trkpt lat="41.6261970" lon="-8.7943280">
        <ele>105.7</ele>
        <time>2021-05-17T12:32:13Z</time>
      </trkpt>
      <trkpt lat="41.6262050" lon="-8.7943530">
        <ele>105.6</ele>
        <time>2021-05-17T12:32:14Z</time>
      </trkpt>
      <trkpt lat="41.6262080" lon="-8.7943640">
        <ele>105.5</ele>
        <time>2021-05-17T12:32:15Z</time>
      </trkpt>
      <trkpt lat="41.6262110" lon="-8.7943760">
        <ele>105.5</ele>
        <time>2021-05-17T12:32:16Z</time>
      </trkpt>
      <trkpt lat="41.6262140" lon="-8.7943870">
        <ele>105.5</ele>
        <time>2021-05-17T12:32:17Z</time>
      </trkpt>
      <trkpt lat="41.6262160" lon="-8.7943900">
        <ele>105.5</ele>
        <time>2021-05-17T12:32:18Z</time>
      </trkpt>
      <trkpt lat="41.6262180" lon="-8.7943850">
        <ele>105.4</ele>
        <time>2021-05-17T12:32:19Z</time>
      </trkpt>
      <trkpt lat="41.6262110" lon="-8.7943820">
        <ele>105.4</ele>
        <time>2021-05-17T12:32:20Z</time>
      </trkpt>
      <trkpt lat="41.6262070" lon="-8.7943800">
        <ele>105.4</ele>
        <time>2021-05-17T12:32:21Z</time>
      </trkpt>
      <trkpt lat="41.6262080" lon="-8.7943680">
        <ele>105.4</ele>
        <time>2021-05-17T12:32:22Z</time>
      </trkpt>
      <trkpt lat="41.6262080" lon="-8.7943580">
        <ele>105.3</ele>
        <time>2021-05-17T12:32:23Z</time>
      </trkpt>
      <trkpt lat="41.6262070" lon="-8.7943510">
        <ele>105.3</ele>
        <time>2021-05-17T12:32:24Z</time>
      </trkpt>
      <trkpt lat="41.6262070" lon="-8.7943430">
        <ele>105.3</ele>
        <time>2021-05-17T12:32:25Z</time>
      </trkpt>
      <trkpt lat="41.6262070" lon="-8.7943390">
        <ele>105.3</ele>
        <time>2021-05-17T12:32:26Z</time>
      </trkpt>
      <trkpt lat="41.6262070" lon="-8.7943390">
        <ele>105.3</ele>
        <time>2021-05-17T12:32:27Z</time>
      </trkpt>
      <trkpt lat="41.6262040" lon="-8.7943370">
        <ele>105.3</ele>
        <time>2021-05-17T12:32:28Z</time>
      </trkpt>
      <trkpt lat="41.6261990" lon="-8.7943410">
        <ele>105.3</ele>
        <time>2021-05-17T12:32:29Z</time>
      </trkpt>
      <trkpt lat="41.6261880" lon="-8.7943500">
        <ele>105.3</ele>
        <time>2021-05-17T12:32:30Z</time>
      </trkpt>
      <trkpt lat="41.6261840" lon="-8.7943480">
        <ele>105.3</ele>
        <time>2021-05-17T12:32:31Z</time>
      </trkpt>
      <trkpt lat="41.6261770" lon="-8.7943440">
        <ele>105.2</ele>
        <time>2021-05-17T12:32:32Z</time>
      </trkpt>
      <trkpt lat="41.6261680" lon="-8.7943460">
        <ele>105.2</ele>
        <time>2021-05-17T12:32:33Z</time>
      </trkpt>
      <trkpt lat="41.6261650" lon="-8.7943500">
        <ele>105.2</ele>
        <time>2021-05-17T12:32:34Z</time>
      </trkpt>
      <trkpt lat="41.6261570" lon="-8.7943540">
        <ele>105.2</ele>
        <time>2021-05-17T12:32:35Z</time>
      </trkpt>
      <trkpt lat="41.6261550" lon="-8.7943510">
        <ele>105.2</ele>
        <time>2021-05-17T12:32:36Z</time>
      </trkpt>
      <trkpt lat="41.6261520" lon="-8.7943480">
        <ele>105.2</ele>
        <time>2021-05-17T12:32:37Z</time>
      </trkpt>
      <trkpt lat="41.6261460" lon="-8.7943490">
        <ele>105.2</ele>
        <time>2021-05-17T12:32:38Z</time>
      </trkpt>
      <trkpt lat="41.6261430" lon="-8.7943460">
        <ele>105.2</ele>
        <time>2021-05-17T12:32:39Z</time>
      </trkpt>
      <trkpt lat="41.6261390" lon="-8.7943420">
        <ele>105.2</ele>
        <time>2021-05-17T12:32:40Z</time>
      </trkpt>
      <trkpt lat="41.6261320" lon="-8.7943380">
        <ele>105.2</ele>
        <time>2021-05-17T12:32:41Z</time>
      </trkpt>
      <trkpt lat="41.6261230" lon="-8.7943330">
        <ele>105.2</ele>
        <time>2021-05-17T12:32:42Z</time>
      </trkpt>
      <trkpt lat="41.6261150" lon="-8.7943260">
        <ele>105.2</ele>
        <time>2021-05-17T12:32:43Z</time>
      </trkpt>
      <trkpt lat="41.6261100" lon="-8.7943230">
        <ele>105.2</ele>
        <time>2021-05-17T12:32:44Z</time>
      </trkpt>
      <trkpt lat="41.6261120" lon="-8.7943270">
        <ele>105.2</ele>
        <time>2021-05-17T12:32:45Z</time>
      </trkpt>
      <trkpt lat="41.6261280" lon="-8.7943230">
        <ele>105.2</ele>
        <time>2021-05-17T12:32:46Z</time>
      </trkpt>
      <trkpt lat="41.6261400" lon="-8.7943250">
        <ele>105.2</ele>
        <time>2021-05-17T12:32:47Z</time>
      </trkpt>
      <trkpt lat="41.6261470" lon="-8.7943290">
        <ele>105.2</ele>
        <time>2021-05-17T12:32:48Z</time>
      </trkpt>
      <trkpt lat="41.6261520" lon="-8.7943350">
        <ele>105.2</ele>
        <time>2021-05-17T12:32:49Z</time>
      </trkpt>
      <trkpt lat="41.6261550" lon="-8.7943350">
        <ele>105.2</ele>
        <time>2021-05-17T12:32:50Z</time>
      </trkpt>
      <trkpt lat="41.6261590" lon="-8.7943340">
        <ele>105.2</ele>
        <time>2021-05-17T12:32:51Z</time>
      </trkpt>
      <trkpt lat="41.6261620" lon="-8.7943340">
        <ele>105.2</ele>
        <time>2021-05-17T12:32:52Z</time>
      </trkpt>
      <trkpt lat="41.6261650" lon="-8.7943340">
        <ele>105.2</ele>
        <time>2021-05-17T12:32:53Z</time>
      </trkpt>
      <trkpt lat="41.6261690" lon="-8.7943340">
        <ele>105.2</ele>
        <time>2021-05-17T12:32:54Z</time>
      </trkpt>
      <trkpt lat="41.6261720" lon="-8.7943330">
        <ele>105.2</ele>
        <time>2021-05-17T12:32:55Z</time>
      </trkpt>
      <trkpt lat="41.6261750" lon="-8.7943330">
        <ele>105.2</ele>
        <time>2021-05-17T12:32:56Z</time>
      </trkpt>
      <trkpt lat="41.6261780" lon="-8.7943330">
        <ele>105.2</ele>
        <time>2021-05-17T12:32:57Z</time>
      </trkpt>
      <trkpt lat="41.6261810" lon="-8.7943330">
        <ele>105.2</ele>
        <time>2021-05-17T12:32:58Z</time>
      </trkpt>
      <trkpt lat="41.6261850" lon="-8.7943320">
        <ele>105.2</ele>
        <time>2021-05-17T12:32:59Z</time>
      </trkpt>
      <trkpt lat="41.6261880" lon="-8.7943320">
        <ele>105.2</ele>
        <time>2021-05-17T12:33:00Z</time>
      </trkpt>
      <trkpt lat="41.6261880" lon="-8.7943320">
        <ele>105.2</ele>
        <time>2021-05-17T12:33:01Z</time>
      </trkpt>
      <trkpt lat="41.6262020" lon="-8.7943410">
        <ele>105.2</ele>
        <time>2021-05-17T12:33:02Z</time>
      </trkpt>
      <trkpt lat="41.6262030" lon="-8.7943460">
        <ele>105.2</ele>
        <time>2021-05-17T12:33:03Z</time>
      </trkpt>
      <trkpt lat="41.6262060" lon="-8.7943500">
        <ele>105.2</ele>
        <time>2021-05-17T12:33:04Z</time>
      </trkpt>
      <trkpt lat="41.6262080" lon="-8.7943510">
        <ele>105.2</ele>
        <time>2021-05-17T12:33:05Z</time>
      </trkpt>
      <trkpt lat="41.6262080" lon="-8.7943510">
        <ele>105.2</ele>
        <time>2021-05-17T12:33:06Z</time>
      </trkpt>
      <trkpt lat="41.6262070" lon="-8.7943540">
        <ele>105.2</ele>
        <time>2021-05-17T12:33:07Z</time>
      </trkpt>
      <trkpt lat="41.6262080" lon="-8.7943530">
        <ele>105.2</ele>
        <time>2021-05-17T12:33:08Z</time>
      </trkpt>
      <trkpt lat="41.6262060" lon="-8.7943530">
        <ele>105.2</ele>
        <time>2021-05-17T12:33:09Z</time>
      </trkpt>
      <trkpt lat="41.6262080" lon="-8.7943560">
        <ele>105.2</ele>
        <time>2021-05-17T12:33:10Z</time>
      </trkpt>
      <trkpt lat="41.6262120" lon="-8.7943570">
        <ele>105.2</ele>
        <time>2021-05-17T12:33:11Z</time>
      </trkpt>
      <trkpt lat="41.6262160" lon="-8.7943580">
        <ele>105.2</ele>
        <time>2021-05-17T12:33:12Z</time>
      </trkpt>
      <trkpt lat="41.6262170" lon="-8.7943600">
        <ele>105.2</ele>
        <time>2021-05-17T12:33:13Z</time>
      </trkpt>
      <trkpt lat="41.6262190" lon="-8.7943630">
        <ele>105.2</ele>
        <time>2021-05-17T12:33:14Z</time>
      </trkpt>
      <trkpt lat="41.6262190" lon="-8.7943640">
        <ele>105.2</ele>
        <time>2021-05-17T12:33:15Z</time>
      </trkpt>
      <trkpt lat="41.6262230" lon="-8.7943660">
        <ele>105.2</ele>
        <time>2021-05-17T12:33:16Z</time>
      </trkpt>
      <trkpt lat="41.6262250" lon="-8.7943620">
        <ele>105.2</ele>
        <time>2021-05-17T12:33:17Z</time>
      </trkpt>
      <trkpt lat="41.6262270" lon="-8.7943630">
        <ele>105.2</ele>
        <time>2021-05-17T12:33:18Z</time>
      </trkpt>
      <trkpt lat="41.6262320" lon="-8.7943610">
        <ele>105.2</ele>
        <time>2021-05-17T12:33:19Z</time>
      </trkpt>
      <trkpt lat="41.6262310" lon="-8.7943630">
        <ele>105.2</ele>
        <time>2021-05-17T12:33:20Z</time>
      </trkpt>
      <trkpt lat="41.6262260" lon="-8.7943660">
        <ele>105.2</ele>
        <time>2021-05-17T12:33:21Z</time>
      </trkpt>
      <trkpt lat="41.6262220" lon="-8.7943670">
        <ele>105.2</ele>
        <time>2021-05-17T12:33:22Z</time>
      </trkpt>
      <trkpt lat="41.6262220" lon="-8.7943680">
        <ele>105.2</ele>
        <time>2021-05-17T12:33:23Z</time>
      </trkpt>
      <trkpt lat="41.6262170" lon="-8.7943680">
        <ele>105.2</ele>
        <time>2021-05-17T12:33:24Z</time>
      </trkpt>
      <trkpt lat="41.6262110" lon="-8.7943680">
        <ele>105.2</ele>
        <time>2021-05-17T12:33:25Z</time>
      </trkpt>
      <trkpt lat="41.6262100" lon="-8.7943680">
        <ele>105.2</ele>
        <time>2021-05-17T12:33:26Z</time>
      </trkpt>
      <trkpt lat="41.6262100" lon="-8.7943680">
        <ele>105.2</ele>
        <time>2021-05-17T12:33:27Z</time>
      </trkpt>
      <trkpt lat="41.6262050" lon="-8.7943670">
        <ele>105.2</ele>
        <time>2021-05-17T12:33:28Z</time>
      </trkpt>
      <trkpt lat="41.6261970" lon="-8.7943670">
        <ele>105.2</ele>
        <time>2021-05-17T12:33:29Z</time>
      </trkpt>
      <trkpt lat="41.6261910" lon="-8.7943680">
        <ele>105.2</ele>
        <time>2021-05-17T12:33:30Z</time>
      </trkpt>
      <trkpt lat="41.6261880" lon="-8.7943640">
        <ele>105.2</ele>
        <time>2021-05-17T12:33:31Z</time>
      </trkpt>
      <trkpt lat="41.6261840" lon="-8.7943560">
        <ele>105.2</ele>
        <time>2021-05-17T12:33:32Z</time>
      </trkpt>
      <trkpt lat="41.6261840" lon="-8.7943550">
        <ele>105.2</ele>
        <time>2021-05-17T12:33:33Z</time>
      </trkpt>
      <trkpt lat="41.6261840" lon="-8.7943480">
        <ele>105.2</ele>
        <time>2021-05-17T12:33:34Z</time>
      </trkpt>
      <trkpt lat="41.6261840" lon="-8.7943430">
        <ele>105.2</ele>
        <time>2021-05-17T12:33:35Z</time>
      </trkpt>
      <trkpt lat="41.6261830" lon="-8.7943430">
        <ele>105.2</ele>
        <time>2021-05-17T12:33:36Z</time>
      </trkpt>
      <trkpt lat="41.6261770" lon="-8.7943360">
        <ele>105.2</ele>
        <time>2021-05-17T12:33:37Z</time>
      </trkpt>
      <trkpt lat="41.6261760" lon="-8.7943330">
        <ele>105.2</ele>
        <time>2021-05-17T12:33:38Z</time>
      </trkpt>
      <trkpt lat="41.6261770" lon="-8.7943320">
        <ele>105.2</ele>
        <time>2021-05-17T12:33:39Z</time>
      </trkpt>
      <trkpt lat="41.6261790" lon="-8.7943280">
        <ele>105.2</ele>
        <time>2021-05-17T12:33:40Z</time>
      </trkpt>
      <trkpt lat="41.6261770" lon="-8.7943280">
        <ele>105.2</ele>
        <time>2021-05-17T12:33:41Z</time>
      </trkpt>
      <trkpt lat="41.6261760" lon="-8.7943290">
        <ele>105.2</ele>
        <time>2021-05-17T12:33:42Z</time>
      </trkpt>
      <trkpt lat="41.6261750" lon="-8.7943300">
        <ele>105.2</ele>
        <time>2021-05-17T12:33:43Z</time>
      </trkpt>
      <trkpt lat="41.6261730" lon="-8.7943310">
        <ele>105.2</ele>
        <time>2021-05-17T12:33:44Z</time>
      </trkpt>
      <trkpt lat="41.6261680" lon="-8.7943370">
        <ele>105.2</ele>
        <time>2021-05-17T12:33:45Z</time>
      </trkpt>
      <trkpt lat="41.6261680" lon="-8.7943370">
        <ele>105.2</ele>
        <time>2021-05-17T12:33:46Z</time>
      </trkpt>
      <trkpt lat="41.6261570" lon="-8.7943400">
        <ele>105.2</ele>
        <time>2021-05-17T12:33:47Z</time>
      </trkpt>
      <trkpt lat="41.6261560" lon="-8.7943600">
        <ele>105.2</ele>
        <time>2021-05-17T12:33:48Z</time>
      </trkpt>
      <trkpt lat="41.6261670" lon="-8.7943840">
        <ele>105.2</ele>
        <time>2021-05-17T12:33:49Z</time>
      </trkpt>
      <trkpt lat="41.6261730" lon="-8.7943940">
        <ele>105.2</ele>
        <time>2021-05-17T12:33:50Z</time>
      </trkpt>
      <trkpt lat="41.6261780" lon="-8.7944050">
        <ele>105.2</ele>
        <time>2021-05-17T12:33:51Z</time>
      </trkpt>
      <trkpt lat="41.6261880" lon="-8.7944250">
        <ele>105.2</ele>
        <time>2021-05-17T12:33:52Z</time>
      </trkpt>
      <trkpt lat="41.6261960" lon="-8.7944450">
        <ele>105.2</ele>
        <time>2021-05-17T12:33:53Z</time>
      </trkpt>
      <trkpt lat="41.6262050" lon="-8.7944610">
        <ele>105.2</ele>
        <time>2021-05-17T12:33:54Z</time>
      </trkpt>
      <trkpt lat="41.6262130" lon="-8.7944780">
        <ele>105.2</ele>
        <time>2021-05-17T12:33:55Z</time>
      </trkpt>
      <trkpt lat="41.6262300" lon="-8.7945140">
        <ele>105.2</ele>
        <time>2021-05-17T12:33:56Z</time>
      </trkpt>
      <trkpt lat="41.6262350" lon="-8.7945250">
        <ele>105.2</ele>
        <time>2021-05-17T12:33:57Z</time>
      </trkpt>
      <trkpt lat="41.6262410" lon="-8.7945590">
        <ele>105.1</ele>
        <time>2021-05-17T12:33:58Z</time>
      </trkpt>
      <trkpt lat="41.6262430" lon="-8.7945730">
        <ele>105.1</ele>
        <time>2021-05-17T12:33:59Z</time>
      </trkpt>
      <trkpt lat="41.6262480" lon="-8.7946100">
        <ele>105.1</ele>
        <time>2021-05-17T12:34:00Z</time>
      </trkpt>
      <trkpt lat="41.6262530" lon="-8.7946230">
        <ele>105.1</ele>
        <time>2021-05-17T12:34:01Z</time>
      </trkpt>
      <trkpt lat="41.6262570" lon="-8.7946350">
        <ele>105.0</ele>
        <time>2021-05-17T12:34:02Z</time>
      </trkpt>
      <trkpt lat="41.6262640" lon="-8.7946520">
        <ele>105.0</ele>
        <time>2021-05-17T12:34:03Z</time>
      </trkpt>
      <trkpt lat="41.6262730" lon="-8.7946690">
        <ele>105.0</ele>
        <time>2021-05-17T12:34:04Z</time>
      </trkpt>
      <trkpt lat="41.6262900" lon="-8.7947000">
        <ele>104.9</ele>
        <time>2021-05-17T12:34:05Z</time>
      </trkpt>
      <trkpt lat="41.6262950" lon="-8.7947130">
        <ele>104.9</ele>
        <time>2021-05-17T12:34:06Z</time>
      </trkpt>
      <trkpt lat="41.6262970" lon="-8.7947260">
        <ele>104.8</ele>
        <time>2021-05-17T12:34:07Z</time>
      </trkpt>
      <trkpt lat="41.6262990" lon="-8.7947570">
        <ele>104.8</ele>
        <time>2021-05-17T12:34:08Z</time>
      </trkpt>
      <trkpt lat="41.6263120" lon="-8.7947840">
        <ele>104.7</ele>
        <time>2021-05-17T12:34:09Z</time>
      </trkpt>
      <trkpt lat="41.6263190" lon="-8.7948030">
        <ele>104.7</ele>
        <time>2021-05-17T12:34:10Z</time>
      </trkpt>
      <trkpt lat="41.6263270" lon="-8.7948050">
        <ele>104.6</ele>
        <time>2021-05-17T12:34:11Z</time>
      </trkpt>
      <trkpt lat="41.6263310" lon="-8.7948240">
        <ele>104.6</ele>
        <time>2021-05-17T12:34:12Z</time>
      </trkpt>
      <trkpt lat="41.6263390" lon="-8.7948300">
        <ele>104.6</ele>
        <time>2021-05-17T12:34:13Z</time>
      </trkpt>
      <trkpt lat="41.6263500" lon="-8.7948440">
        <ele>104.5</ele>
        <time>2021-05-17T12:34:14Z</time>
      </trkpt>
      <trkpt lat="41.6263560" lon="-8.7948590">
        <ele>104.4</ele>
        <time>2021-05-17T12:34:15Z</time>
      </trkpt>
      <trkpt lat="41.6263720" lon="-8.7948840">
        <ele>104.4</ele>
        <time>2021-05-17T12:34:16Z</time>
      </trkpt>
      <trkpt lat="41.6263770" lon="-8.7948940">
        <ele>104.3</ele>
        <time>2021-05-17T12:34:17Z</time>
      </trkpt>
      <trkpt lat="41.6263830" lon="-8.7949050">
        <ele>104.3</ele>
        <time>2021-05-17T12:34:18Z</time>
      </trkpt>
      <trkpt lat="41.6263880" lon="-8.7949170">
        <ele>104.2</ele>
        <time>2021-05-17T12:34:19Z</time>
      </trkpt>
      <trkpt lat="41.6263910" lon="-8.7949480">
        <ele>104.2</ele>
        <time>2021-05-17T12:34:20Z</time>
      </trkpt>
      <trkpt lat="41.6264040" lon="-8.7949740">
        <ele>104.1</ele>
        <time>2021-05-17T12:34:21Z</time>
      </trkpt>
      <trkpt lat="41.6264110" lon="-8.7949820">
        <ele>104.0</ele>
        <time>2021-05-17T12:34:22Z</time>
      </trkpt>
      <trkpt lat="41.6264180" lon="-8.7949910">
        <ele>104.0</ele>
        <time>2021-05-17T12:34:23Z</time>
      </trkpt>
      <trkpt lat="41.6264280" lon="-8.7950140">
        <ele>103.9</ele>
        <time>2021-05-17T12:34:24Z</time>
      </trkpt>
      <trkpt lat="41.6264350" lon="-8.7950220">
        <ele>103.9</ele>
        <time>2021-05-17T12:34:25Z</time>
      </trkpt>
      <trkpt lat="41.6264420" lon="-8.7950310">
        <ele>103.9</ele>
        <time>2021-05-17T12:34:26Z</time>
      </trkpt>
      <trkpt lat="41.6264500" lon="-8.7950470">
        <ele>103.8</ele>
        <time>2021-05-17T12:34:27Z</time>
      </trkpt>
      <trkpt lat="41.6264630" lon="-8.7950620">
        <ele>103.7</ele>
        <time>2021-05-17T12:34:28Z</time>
      </trkpt>
      <trkpt lat="41.6264760" lon="-8.7950930">
        <ele>103.7</ele>
        <time>2021-05-17T12:34:29Z</time>
      </trkpt>
      <trkpt lat="41.6264850" lon="-8.7951120">
        <ele>103.6</ele>
        <time>2021-05-17T12:34:30Z</time>
      </trkpt>
      <trkpt lat="41.6264960" lon="-8.7951350">
        <ele>103.5</ele>
        <time>2021-05-17T12:34:31Z</time>
      </trkpt>
      <trkpt lat="41.6265030" lon="-8.7951470">
        <ele>103.5</ele>
        <time>2021-05-17T12:34:32Z</time>
      </trkpt>
      <trkpt lat="41.6265090" lon="-8.7951590">
        <ele>103.4</ele>
        <time>2021-05-17T12:34:33Z</time>
      </trkpt>
      <trkpt lat="41.6265310" lon="-8.7951770">
        <ele>103.3</ele>
        <time>2021-05-17T12:34:34Z</time>
      </trkpt>
      <trkpt lat="41.6265400" lon="-8.7951850">
        <ele>103.3</ele>
        <time>2021-05-17T12:34:35Z</time>
      </trkpt>
      <trkpt lat="41.6265480" lon="-8.7951930">
        <ele>103.3</ele>
        <time>2021-05-17T12:34:36Z</time>
      </trkpt>
      <trkpt lat="41.6265690" lon="-8.7952220">
        <ele>103.2</ele>
        <time>2021-05-17T12:34:38Z</time>
      </trkpt>
      <trkpt lat="41.6265750" lon="-8.7952310">
        <ele>103.1</ele>
        <time>2021-05-17T12:34:39Z</time>
      </trkpt>
      <trkpt lat="41.6265890" lon="-8.7952550">
        <ele>103.1</ele>
        <time>2021-05-17T12:34:40Z</time>
      </trkpt>
      <trkpt lat="41.6265960" lon="-8.7952610">
        <ele>103.0</ele>
        <time>2021-05-17T12:34:41Z</time>
      </trkpt>
      <trkpt lat="41.6266040" lon="-8.7952670">
        <ele>103.0</ele>
        <time>2021-05-17T12:34:42Z</time>
      </trkpt>
      <trkpt lat="41.6266100" lon="-8.7952730">
        <ele>103.0</ele>
        <time>2021-05-17T12:34:43Z</time>
      </trkpt>
      <trkpt lat="41.6266240" lon="-8.7952850">
        <ele>103.0</ele>
        <time>2021-05-17T12:34:44Z</time>
      </trkpt>
      <trkpt lat="41.6266320" lon="-8.7952940">
        <ele>102.9</ele>
        <time>2021-05-17T12:34:45Z</time>
      </trkpt>
      <trkpt lat="41.6266380" lon="-8.7952960">
        <ele>102.9</ele>
        <time>2021-05-17T12:34:46Z</time>
      </trkpt>
      <trkpt lat="41.6266550" lon="-8.7953170">
        <ele>102.9</ele>
        <time>2021-05-17T12:34:47Z</time>
      </trkpt>
      <trkpt lat="41.6266790" lon="-8.7953430">
        <ele>102.8</ele>
        <time>2021-05-17T12:34:48Z</time>
      </trkpt>
      <trkpt lat="41.6266860" lon="-8.7953580">
        <ele>102.7</ele>
        <time>2021-05-17T12:34:49Z</time>
      </trkpt>
      <trkpt lat="41.6266910" lon="-8.7953680">
        <ele>102.7</ele>
        <time>2021-05-17T12:34:50Z</time>
      </trkpt>
      <trkpt lat="41.6267060" lon="-8.7953940">
        <ele>102.7</ele>
        <time>2021-05-17T12:34:51Z</time>
      </trkpt>
      <trkpt lat="41.6267150" lon="-8.7954130">
        <ele>102.6</ele>
        <time>2021-05-17T12:34:52Z</time>
      </trkpt>
      <trkpt lat="41.6267270" lon="-8.7954240">
        <ele>102.6</ele>
        <time>2021-05-17T12:34:53Z</time>
      </trkpt>
      <trkpt lat="41.6267340" lon="-8.7954440">
        <ele>102.6</ele>
        <time>2021-05-17T12:34:54Z</time>
      </trkpt>
      <trkpt lat="41.6267370" lon="-8.7954590">
        <ele>102.6</ele>
        <time>2021-05-17T12:34:55Z</time>
      </trkpt>
      <trkpt lat="41.6267390" lon="-8.7954830">
        <ele>102.6</ele>
        <time>2021-05-17T12:34:56Z</time>
      </trkpt>
      <trkpt lat="41.6267430" lon="-8.7954980">
        <ele>102.6</ele>
        <time>2021-05-17T12:34:57Z</time>
      </trkpt>
      <trkpt lat="41.6267470" lon="-8.7955130">
        <ele>102.5</ele>
        <time>2021-05-17T12:34:58Z</time>
      </trkpt>
      <trkpt lat="41.6267530" lon="-8.7955250">
        <ele>102.5</ele>
        <time>2021-05-17T12:34:59Z</time>
      </trkpt>
      <trkpt lat="41.6267560" lon="-8.7955430">
        <ele>102.5</ele>
        <time>2021-05-17T12:35:00Z</time>
      </trkpt>
      <trkpt lat="41.6267670" lon="-8.7955420">
        <ele>102.5</ele>
        <time>2021-05-17T12:35:01Z</time>
      </trkpt>
      <trkpt lat="41.6267780" lon="-8.7955760">
        <ele>102.5</ele>
        <time>2021-05-17T12:35:02Z</time>
      </trkpt>
      <trkpt lat="41.6267820" lon="-8.7955880">
        <ele>102.5</ele>
        <time>2021-05-17T12:35:03Z</time>
      </trkpt>
      <trkpt lat="41.6267890" lon="-8.7956030">
        <ele>102.5</ele>
        <time>2021-05-17T12:35:04Z</time>
      </trkpt>
      <trkpt lat="41.6267980" lon="-8.7956260">
        <ele>102.6</ele>
        <time>2021-05-17T12:35:05Z</time>
      </trkpt>
      <trkpt lat="41.6268150" lon="-8.7956570">
        <ele>102.6</ele>
        <time>2021-05-17T12:35:06Z</time>
      </trkpt>
      <trkpt lat="41.6268200" lon="-8.7956700">
        <ele>102.6</ele>
        <time>2021-05-17T12:35:07Z</time>
      </trkpt>
      <trkpt lat="41.6268290" lon="-8.7956930">
        <ele>102.6</ele>
        <time>2021-05-17T12:35:08Z</time>
      </trkpt>
      <trkpt lat="41.6268350" lon="-8.7957110">
        <ele>102.6</ele>
        <time>2021-05-17T12:35:09Z</time>
      </trkpt>
      <trkpt lat="41.6268420" lon="-8.7957370">
        <ele>102.7</ele>
        <time>2021-05-17T12:35:10Z</time>
      </trkpt>
      <trkpt lat="41.6268430" lon="-8.7957480">
        <ele>102.7</ele>
        <time>2021-05-17T12:35:11Z</time>
      </trkpt>
      <trkpt lat="41.6268450" lon="-8.7957580">
        <ele>102.7</ele>
        <time>2021-05-17T12:35:12Z</time>
      </trkpt>
      <trkpt lat="41.6268500" lon="-8.7957740">
        <ele>102.7</ele>
        <time>2021-05-17T12:35:13Z</time>
      </trkpt>
      <trkpt lat="41.6268580" lon="-8.7957930">
        <ele>102.8</ele>
        <time>2021-05-17T12:35:14Z</time>
      </trkpt>
      <trkpt lat="41.6268620" lon="-8.7958060">
        <ele>102.8</ele>
        <time>2021-05-17T12:35:15Z</time>
      </trkpt>
      <trkpt lat="41.6268800" lon="-8.7958200">
        <ele>102.8</ele>
        <time>2021-05-17T12:35:16Z</time>
      </trkpt>
      <trkpt lat="41.6268870" lon="-8.7958430">
        <ele>102.9</ele>
        <time>2021-05-17T12:35:17Z</time>
      </trkpt>
      <trkpt lat="41.6268970" lon="-8.7958530">
        <ele>102.9</ele>
        <time>2021-05-17T12:35:18Z</time>
      </trkpt>
      <trkpt lat="41.6269080" lon="-8.7958770">
        <ele>103.0</ele>
        <time>2021-05-17T12:35:19Z</time>
      </trkpt>
      <trkpt lat="41.6269140" lon="-8.7958920">
        <ele>103.0</ele>
        <time>2021-05-17T12:35:20Z</time>
      </trkpt>
      <trkpt lat="41.6269300" lon="-8.7959120">
        <ele>103.0</ele>
        <time>2021-05-17T12:35:21Z</time>
      </trkpt>
      <trkpt lat="41.6269350" lon="-8.7959220">
        <ele>103.1</ele>
        <time>2021-05-17T12:35:22Z</time>
      </trkpt>
      <trkpt lat="41.6269400" lon="-8.7959330">
        <ele>103.1</ele>
        <time>2021-05-17T12:35:23Z</time>
      </trkpt>
      <trkpt lat="41.6269540" lon="-8.7959480">
        <ele>103.1</ele>
        <time>2021-05-17T12:35:24Z</time>
      </trkpt>
      <trkpt lat="41.6269700" lon="-8.7959530">
        <ele>103.2</ele>
        <time>2021-05-17T12:35:25Z</time>
      </trkpt>
      <trkpt lat="41.6269870" lon="-8.7959670">
        <ele>103.2</ele>
        <time>2021-05-17T12:35:26Z</time>
      </trkpt>
      <trkpt lat="41.6269960" lon="-8.7959720">
        <ele>103.3</ele>
        <time>2021-05-17T12:35:27Z</time>
      </trkpt>
      <trkpt lat="41.6270040" lon="-8.7959770">
        <ele>103.3</ele>
        <time>2021-05-17T12:35:28Z</time>
      </trkpt>
      <trkpt lat="41.6270250" lon="-8.7959860">
        <ele>103.4</ele>
        <time>2021-05-17T12:35:29Z</time>
      </trkpt>
      <trkpt lat="41.6270350" lon="-8.7959910">
        <ele>103.4</ele>
        <time>2021-05-17T12:35:30Z</time>
      </trkpt>
      <trkpt lat="41.6270360" lon="-8.7960040">
        <ele>103.4</ele>
        <time>2021-05-17T12:35:31Z</time>
      </trkpt>
      <trkpt lat="41.6270450" lon="-8.7960130">
        <ele>103.4</ele>
        <time>2021-05-17T12:35:32Z</time>
      </trkpt>
      <trkpt lat="41.6270510" lon="-8.7960270">
        <ele>103.5</ele>
        <time>2021-05-17T12:35:33Z</time>
      </trkpt>
      <trkpt lat="41.6270680" lon="-8.7960400">
        <ele>103.5</ele>
        <time>2021-05-17T12:35:34Z</time>
      </trkpt>
      <trkpt lat="41.6270810" lon="-8.7960500">
        <ele>103.6</ele>
        <time>2021-05-17T12:35:35Z</time>
      </trkpt>
      <trkpt lat="41.6270900" lon="-8.7960550">
        <ele>103.6</ele>
        <time>2021-05-17T12:35:36Z</time>
      </trkpt>
      <trkpt lat="41.6271090" lon="-8.7960600">
        <ele>103.7</ele>
        <time>2021-05-17T12:35:37Z</time>
      </trkpt>
      <trkpt lat="41.6271210" lon="-8.7960650">
        <ele>103.8</ele>
        <time>2021-05-17T12:35:38Z</time>
      </trkpt>
      <trkpt lat="41.6271400" lon="-8.7960810">
        <ele>103.9</ele>
        <time>2021-05-17T12:35:39Z</time>
      </trkpt>
      <trkpt lat="41.6271540" lon="-8.7960850">
        <ele>103.9</ele>
        <time>2021-05-17T12:35:40Z</time>
      </trkpt>
      <trkpt lat="41.6271700" lon="-8.7960930">
        <ele>104.0</ele>
        <time>2021-05-17T12:35:41Z</time>
      </trkpt>
      <trkpt lat="41.6271850" lon="-8.7961050">
        <ele>104.1</ele>
        <time>2021-05-17T12:35:42Z</time>
      </trkpt>
      <trkpt lat="41.6271960" lon="-8.7961180">
        <ele>104.1</ele>
        <time>2021-05-17T12:35:43Z</time>
      </trkpt>
      <trkpt lat="41.6272160" lon="-8.7961260">
        <ele>104.2</ele>
        <time>2021-05-17T12:35:44Z</time>
      </trkpt>
      <trkpt lat="41.6272240" lon="-8.7961280">
        <ele>104.2</ele>
        <time>2021-05-17T12:35:45Z</time>
      </trkpt>
      <trkpt lat="41.6272320" lon="-8.7961310">
        <ele>104.3</ele>
        <time>2021-05-17T12:35:46Z</time>
      </trkpt>
      <trkpt lat="41.6272460" lon="-8.7961440">
        <ele>104.4</ele>
        <time>2021-05-17T12:35:47Z</time>
      </trkpt>
      <trkpt lat="41.6272540" lon="-8.7961580">
        <ele>104.4</ele>
        <time>2021-05-17T12:35:48Z</time>
      </trkpt>
      <trkpt lat="41.6272830" lon="-8.7961760">
        <ele>104.6</ele>
        <time>2021-05-17T12:35:49Z</time>
      </trkpt>
      <trkpt lat="41.6272900" lon="-8.7961830">
        <ele>104.6</ele>
        <time>2021-05-17T12:35:50Z</time>
      </trkpt>
      <trkpt lat="41.6273040" lon="-8.7961820">
        <ele>104.7</ele>
        <time>2021-05-17T12:35:51Z</time>
      </trkpt>
      <trkpt lat="41.6273160" lon="-8.7961900">
        <ele>104.7</ele>
        <time>2021-05-17T12:35:52Z</time>
      </trkpt>
      <trkpt lat="41.6273250" lon="-8.7961960">
        <ele>104.8</ele>
        <time>2021-05-17T12:35:53Z</time>
      </trkpt>
      <trkpt lat="41.6273440" lon="-8.7962020">
        <ele>104.9</ele>
        <time>2021-05-17T12:35:54Z</time>
      </trkpt>
      <trkpt lat="41.6273510" lon="-8.7962070">
        <ele>104.9</ele>
        <time>2021-05-17T12:35:55Z</time>
      </trkpt>
      <trkpt lat="41.6273590" lon="-8.7962120">
        <ele>105.0</ele>
        <time>2021-05-17T12:35:56Z</time>
      </trkpt>
      <trkpt lat="41.6273730" lon="-8.7962170">
        <ele>105.0</ele>
        <time>2021-05-17T12:35:57Z</time>
      </trkpt>
      <trkpt lat="41.6273830" lon="-8.7962210">
        <ele>105.1</ele>
        <time>2021-05-17T12:35:58Z</time>
      </trkpt>
      <trkpt lat="41.6273920" lon="-8.7962250">
        <ele>105.1</ele>
        <time>2021-05-17T12:35:59Z</time>
      </trkpt>
      <trkpt lat="41.6274010" lon="-8.7962290">
        <ele>105.2</ele>
        <time>2021-05-17T12:36:00Z</time>
      </trkpt>
      <trkpt lat="41.6274180" lon="-8.7962360">
        <ele>105.2</ele>
        <time>2021-05-17T12:36:01Z</time>
      </trkpt>
      <trkpt lat="41.6274290" lon="-8.7962470">
        <ele>105.3</ele>
        <time>2021-05-17T12:36:02Z</time>
      </trkpt>
      <trkpt lat="41.6274390" lon="-8.7962560">
        <ele>105.4</ele>
        <time>2021-05-17T12:36:03Z</time>
      </trkpt>
      <trkpt lat="41.6274500" lon="-8.7962630">
        <ele>105.4</ele>
        <time>2021-05-17T12:36:04Z</time>
      </trkpt>
      <trkpt lat="41.6274620" lon="-8.7962670">
        <ele>105.4</ele>
        <time>2021-05-17T12:36:05Z</time>
      </trkpt>
      <trkpt lat="41.6274860" lon="-8.7962750">
        <ele>105.5</ele>
        <time>2021-05-17T12:36:06Z</time>
      </trkpt>
      <trkpt lat="41.6274960" lon="-8.7962800">
        <ele>105.6</ele>
        <time>2021-05-17T12:36:07Z</time>
      </trkpt>
      <trkpt lat="41.6275050" lon="-8.7962840">
        <ele>105.6</ele>
        <time>2021-05-17T12:36:08Z</time>
      </trkpt>
      <trkpt lat="41.6275190" lon="-8.7963060">
        <ele>105.6</ele>
        <time>2021-05-17T12:36:09Z</time>
      </trkpt>
      <trkpt lat="41.6275280" lon="-8.7963150">
        <ele>105.6</ele>
        <time>2021-05-17T12:36:10Z</time>
      </trkpt>
      <trkpt lat="41.6275370" lon="-8.7963250">
        <ele>105.7</ele>
        <time>2021-05-17T12:36:11Z</time>
      </trkpt>
      <trkpt lat="41.6275470" lon="-8.7963320">
        <ele>105.7</ele>
        <time>2021-05-17T12:36:12Z</time>
      </trkpt>
      <trkpt lat="41.6275570" lon="-8.7963370">
        <ele>105.7</ele>
        <time>2021-05-17T12:36:13Z</time>
      </trkpt>
      <trkpt lat="41.6275710" lon="-8.7963430">
        <ele>105.7</ele>
        <time>2021-05-17T12:36:14Z</time>
      </trkpt>
      <trkpt lat="41.6275940" lon="-8.7963550">
        <ele>105.7</ele>
        <time>2021-05-17T12:36:15Z</time>
      </trkpt>
      <trkpt lat="41.6276020" lon="-8.7963590">
        <ele>105.7</ele>
        <time>2021-05-17T12:36:16Z</time>
      </trkpt>
      <trkpt lat="41.6276100" lon="-8.7963640">
        <ele>105.6</ele>
        <time>2021-05-17T12:36:17Z</time>
      </trkpt>
      <trkpt lat="41.6276220" lon="-8.7963820">
        <ele>105.6</ele>
        <time>2021-05-17T12:36:18Z</time>
      </trkpt>
      <trkpt lat="41.6276410" lon="-8.7963910">
        <ele>105.6</ele>
        <time>2021-05-17T12:36:19Z</time>
      </trkpt>
      <trkpt lat="41.6276550" lon="-8.7964040">
        <ele>105.5</ele>
        <time>2021-05-17T12:36:20Z</time>
      </trkpt>
      <trkpt lat="41.6276690" lon="-8.7964160">
        <ele>105.5</ele>
        <time>2021-05-17T12:36:21Z</time>
      </trkpt>
      <trkpt lat="41.6276880" lon="-8.7964290">
        <ele>105.4</ele>
        <time>2021-05-17T12:36:22Z</time>
      </trkpt>
      <trkpt lat="41.6276960" lon="-8.7964330">
        <ele>105.4</ele>
        <time>2021-05-17T12:36:23Z</time>
      </trkpt>
      <trkpt lat="41.6277050" lon="-8.7964380">
        <ele>105.3</ele>
        <time>2021-05-17T12:36:24Z</time>
      </trkpt>
      <trkpt lat="41.6277290" lon="-8.7964570">
        <ele>105.2</ele>
        <time>2021-05-17T12:36:25Z</time>
      </trkpt>
      <trkpt lat="41.6277340" lon="-8.7964680">
        <ele>105.2</ele>
        <time>2021-05-17T12:36:26Z</time>
      </trkpt>
      <trkpt lat="41.6277450" lon="-8.7964660">
        <ele>105.1</ele>
        <time>2021-05-17T12:36:27Z</time>
      </trkpt>
      <trkpt lat="41.6277610" lon="-8.7964630">
        <ele>105.0</ele>
        <time>2021-05-17T12:36:28Z</time>
      </trkpt>
      <trkpt lat="41.6277810" lon="-8.7964690">
        <ele>104.9</ele>
        <time>2021-05-17T12:36:29Z</time>
      </trkpt>
      <trkpt lat="41.6277950" lon="-8.7964750">
        <ele>104.8</ele>
        <time>2021-05-17T12:36:30Z</time>
      </trkpt>
      <trkpt lat="41.6278040" lon="-8.7964740">
        <ele>104.8</ele>
        <time>2021-05-17T12:36:31Z</time>
      </trkpt>
      <trkpt lat="41.6278130" lon="-8.7964860">
        <ele>104.7</ele>
        <time>2021-05-17T12:36:32Z</time>
      </trkpt>
      <trkpt lat="41.6278290" lon="-8.7964860">
        <ele>104.6</ele>
        <time>2021-05-17T12:36:33Z</time>
      </trkpt>
      <trkpt lat="41.6278460" lon="-8.7964970">
        <ele>104.5</ele>
        <time>2021-05-17T12:36:34Z</time>
      </trkpt>
      <trkpt lat="41.6278520" lon="-8.7965060">
        <ele>104.4</ele>
        <time>2021-05-17T12:36:35Z</time>
      </trkpt>
      <trkpt lat="41.6278800" lon="-8.7965170">
        <ele>104.2</ele>
        <time>2021-05-17T12:36:36Z</time>
      </trkpt>
      <trkpt lat="41.6278910" lon="-8.7965270">
        <ele>104.1</ele>
        <time>2021-05-17T12:36:37Z</time>
      </trkpt>
      <trkpt lat="41.6279030" lon="-8.7965260">
        <ele>104.1</ele>
        <time>2021-05-17T12:36:38Z</time>
      </trkpt>
      <trkpt lat="41.6279180" lon="-8.7965290">
        <ele>104.0</ele>
        <time>2021-05-17T12:36:39Z</time>
      </trkpt>
      <trkpt lat="41.6279340" lon="-8.7965390">
        <ele>103.9</ele>
        <time>2021-05-17T12:36:40Z</time>
      </trkpt>
      <trkpt lat="41.6279440" lon="-8.7965480">
        <ele>103.8</ele>
        <time>2021-05-17T12:36:41Z</time>
      </trkpt>
      <trkpt lat="41.6279540" lon="-8.7965560">
        <ele>103.7</ele>
        <time>2021-05-17T12:36:42Z</time>
      </trkpt>
      <trkpt lat="41.6279650" lon="-8.7965720">
        <ele>103.6</ele>
        <time>2021-05-17T12:36:43Z</time>
      </trkpt>
      <trkpt lat="41.6279750" lon="-8.7965800">
        <ele>103.5</ele>
        <time>2021-05-17T12:36:44Z</time>
      </trkpt>
      <trkpt lat="41.6279820" lon="-8.7965980">
        <ele>103.4</ele>
        <time>2021-05-17T12:36:45Z</time>
      </trkpt>
      <trkpt lat="41.6279910" lon="-8.7966100">
        <ele>103.3</ele>
        <time>2021-05-17T12:36:46Z</time>
      </trkpt>
      <trkpt lat="41.6280040" lon="-8.7966130">
        <ele>103.3</ele>
        <time>2021-05-17T12:36:47Z</time>
      </trkpt>
      <trkpt lat="41.6280110" lon="-8.7966170">
        <ele>103.3</ele>
        <time>2021-05-17T12:36:48Z</time>
      </trkpt>
      <trkpt lat="41.6280250" lon="-8.7966170">
        <ele>103.3</ele>
        <time>2021-05-17T12:36:49Z</time>
      </trkpt>
      <trkpt lat="41.6280370" lon="-8.7966190">
        <ele>103.3</ele>
        <time>2021-05-17T12:36:50Z</time>
      </trkpt>
      <trkpt lat="41.6280510" lon="-8.7966280">
        <ele>103.3</ele>
        <time>2021-05-17T12:36:51Z</time>
      </trkpt>
      <trkpt lat="41.6280620" lon="-8.7966200">
        <ele>103.3</ele>
        <time>2021-05-17T12:36:52Z</time>
      </trkpt>
      <trkpt lat="41.6280760" lon="-8.7966130">
        <ele>103.3</ele>
        <time>2021-05-17T12:36:53Z</time>
      </trkpt>
      <trkpt lat="41.6280830" lon="-8.7966110">
        <ele>103.3</ele>
        <time>2021-05-17T12:36:54Z</time>
      </trkpt>
      <trkpt lat="41.6280980" lon="-8.7965970">
        <ele>103.3</ele>
        <time>2021-05-17T12:36:55Z</time>
      </trkpt>
      <trkpt lat="41.6281130" lon="-8.7965900">
        <ele>103.3</ele>
        <time>2021-05-17T12:36:56Z</time>
      </trkpt>
      <trkpt lat="41.6281220" lon="-8.7965780">
        <ele>103.3</ele>
        <time>2021-05-17T12:36:57Z</time>
      </trkpt>
      <trkpt lat="41.6281300" lon="-8.7965770">
        <ele>103.3</ele>
        <time>2021-05-17T12:36:58Z</time>
      </trkpt>
      <trkpt lat="41.6281410" lon="-8.7965680">
        <ele>103.3</ele>
        <time>2021-05-17T12:36:59Z</time>
      </trkpt>
      <trkpt lat="41.6281570" lon="-8.7965560">
        <ele>103.3</ele>
        <time>2021-05-17T12:37:00Z</time>
      </trkpt>
      <trkpt lat="41.6281620" lon="-8.7965370">
        <ele>103.3</ele>
        <time>2021-05-17T12:37:01Z</time>
      </trkpt>
      <trkpt lat="41.6281700" lon="-8.7965280">
        <ele>103.3</ele>
        <time>2021-05-17T12:37:02Z</time>
      </trkpt>
      <trkpt lat="41.6281800" lon="-8.7965260">
        <ele>103.3</ele>
        <time>2021-05-17T12:37:03Z</time>
      </trkpt>
      <trkpt lat="41.6281920" lon="-8.7965170">
        <ele>103.3</ele>
        <time>2021-05-17T12:37:04Z</time>
      </trkpt>
      <trkpt lat="41.6282060" lon="-8.7965090">
        <ele>103.3</ele>
        <time>2021-05-17T12:37:05Z</time>
      </trkpt>
      <trkpt lat="41.6282220" lon="-8.7965010">
        <ele>103.3</ele>
        <time>2021-05-17T12:37:06Z</time>
      </trkpt>
      <trkpt lat="41.6282440" lon="-8.7964830">
        <ele>103.2</ele>
        <time>2021-05-17T12:37:07Z</time>
      </trkpt>
      <trkpt lat="41.6282510" lon="-8.7964760">
        <ele>103.2</ele>
        <time>2021-05-17T12:37:08Z</time>
      </trkpt>
      <trkpt lat="41.6282590" lon="-8.7964690">
        <ele>103.2</ele>
        <time>2021-05-17T12:37:09Z</time>
      </trkpt>
      <trkpt lat="41.6282870" lon="-8.7964600">
        <ele>103.1</ele>
        <time>2021-05-17T12:37:10Z</time>
      </trkpt>
      <trkpt lat="41.6282950" lon="-8.7964590">
        <ele>103.1</ele>
        <time>2021-05-17T12:37:11Z</time>
      </trkpt>
      <trkpt lat="41.6283120" lon="-8.7964530">
        <ele>103.1</ele>
        <time>2021-05-17T12:37:12Z</time>
      </trkpt>
      <trkpt lat="41.6283230" lon="-8.7964600">
        <ele>103.1</ele>
        <time>2021-05-17T12:37:13Z</time>
      </trkpt>
      <trkpt lat="41.6283340" lon="-8.7964540">
        <ele>103.0</ele>
        <time>2021-05-17T12:37:14Z</time>
      </trkpt>
      <trkpt lat="41.6283430" lon="-8.7964500">
        <ele>103.0</ele>
        <time>2021-05-17T12:37:15Z</time>
      </trkpt>
      <trkpt lat="41.6283510" lon="-8.7964460">
        <ele>103.0</ele>
        <time>2021-05-17T12:37:16Z</time>
      </trkpt>
      <trkpt lat="41.6283590" lon="-8.7964420">
        <ele>103.0</ele>
        <time>2021-05-17T12:37:17Z</time>
      </trkpt>
      <trkpt lat="41.6283730" lon="-8.7964540">
        <ele>102.9</ele>
        <time>2021-05-17T12:37:18Z</time>
      </trkpt>
      <trkpt lat="41.6283780" lon="-8.7964620">
        <ele>102.9</ele>
        <time>2021-05-17T12:37:19Z</time>
      </trkpt>
      <trkpt lat="41.6283820" lon="-8.7964700">
        <ele>102.9</ele>
        <time>2021-05-17T12:37:20Z</time>
      </trkpt>
      <trkpt lat="41.6283870" lon="-8.7964780">
        <ele>102.8</ele>
        <time>2021-05-17T12:37:21Z</time>
      </trkpt>
      <trkpt lat="41.6283910" lon="-8.7964860">
        <ele>102.8</ele>
        <time>2021-05-17T12:37:22Z</time>
      </trkpt>
      <trkpt lat="41.6283890" lon="-8.7965040">
        <ele>102.8</ele>
        <time>2021-05-17T12:37:23Z</time>
      </trkpt>
      <trkpt lat="41.6283860" lon="-8.7965150">
        <ele>102.7</ele>
        <time>2021-05-17T12:37:24Z</time>
      </trkpt>
      <trkpt lat="41.6283900" lon="-8.7965200">
        <ele>102.7</ele>
        <time>2021-05-17T12:37:25Z</time>
      </trkpt>
      <trkpt lat="41.6283890" lon="-8.7965200">
        <ele>102.7</ele>
        <time>2021-05-17T12:37:26Z</time>
      </trkpt>
      <trkpt lat="41.6283860" lon="-8.7965280">
        <ele>102.7</ele>
        <time>2021-05-17T12:37:27Z</time>
      </trkpt>
      <trkpt lat="41.6283810" lon="-8.7965280">
        <ele>102.7</ele>
        <time>2021-05-17T12:37:28Z</time>
      </trkpt>
      <trkpt lat="41.6283790" lon="-8.7965310">
        <ele>102.7</ele>
        <time>2021-05-17T12:37:29Z</time>
      </trkpt>
      <trkpt lat="41.6283800" lon="-8.7965330">
        <ele>102.7</ele>
        <time>2021-05-17T12:37:30Z</time>
      </trkpt>
      <trkpt lat="41.6283760" lon="-8.7965400">
        <ele>102.7</ele>
        <time>2021-05-17T12:37:31Z</time>
      </trkpt>
      <trkpt lat="41.6283720" lon="-8.7965490">
        <ele>102.6</ele>
        <time>2021-05-17T12:37:32Z</time>
      </trkpt>
      <trkpt lat="41.6283730" lon="-8.7965480">
        <ele>102.6</ele>
        <time>2021-05-17T12:37:33Z</time>
      </trkpt>
      <trkpt lat="41.6283700" lon="-8.7965490">
        <ele>102.6</ele>
        <time>2021-05-17T12:37:34Z</time>
      </trkpt>
      <trkpt lat="41.6283680" lon="-8.7965530">
        <ele>102.6</ele>
        <time>2021-05-17T12:37:35Z</time>
      </trkpt>
      <trkpt lat="41.6283630" lon="-8.7965510">
        <ele>102.6</ele>
        <time>2021-05-17T12:37:36Z</time>
      </trkpt>
      <trkpt lat="41.6283660" lon="-8.7965620">
        <ele>102.6</ele>
        <time>2021-05-17T12:37:37Z</time>
      </trkpt>
      <trkpt lat="41.6283690" lon="-8.7965700">
        <ele>102.6</ele>
        <time>2021-05-17T12:37:38Z</time>
      </trkpt>
      <trkpt lat="41.6283710" lon="-8.7965770">
        <ele>102.5</ele>
        <time>2021-05-17T12:37:39Z</time>
      </trkpt>
      <trkpt lat="41.6283730" lon="-8.7965840">
        <ele>102.5</ele>
        <time>2021-05-17T12:37:40Z</time>
      </trkpt>
      <trkpt lat="41.6283760" lon="-8.7965920">
        <ele>102.5</ele>
        <time>2021-05-17T12:37:41Z</time>
      </trkpt>
      <trkpt lat="41.6283780" lon="-8.7965990">
        <ele>102.5</ele>
        <time>2021-05-17T12:37:42Z</time>
      </trkpt>
      <trkpt lat="41.6283780" lon="-8.7965990">
        <ele>102.5</ele>
        <time>2021-05-17T12:37:43Z</time>
      </trkpt>
      <trkpt lat="41.6283850" lon="-8.7966110">
        <ele>102.4</ele>
        <time>2021-05-17T12:37:44Z</time>
      </trkpt>
      <trkpt lat="41.6283850" lon="-8.7966110">
        <ele>102.4</ele>
        <time>2021-05-17T12:37:45Z</time>
      </trkpt>
      <trkpt lat="41.6283850" lon="-8.7966110">
        <ele>102.4</ele>
        <time>2021-05-17T12:37:46Z</time>
      </trkpt>
      <trkpt lat="41.6283850" lon="-8.7966110">
        <ele>102.4</ele>
        <time>2021-05-17T12:37:47Z</time>
      </trkpt>
      <trkpt lat="41.6283850" lon="-8.7966110">
        <ele>102.4</ele>
        <time>2021-05-17T12:37:48Z</time>
      </trkpt>
      <trkpt lat="41.6283850" lon="-8.7966110">
        <ele>102.4</ele>
        <time>2021-05-17T12:37:49Z</time>
      </trkpt>
      <trkpt lat="41.6283850" lon="-8.7966110">
        <ele>102.4</ele>
        <time>2021-05-17T12:37:50Z</time>
      </trkpt>
      <trkpt lat="41.6283940" lon="-8.7966070">
        <ele>102.4</ele>
        <time>2021-05-17T12:37:51Z</time>
      </trkpt>
      <trkpt lat="41.6283950" lon="-8.7966080">
        <ele>102.4</ele>
        <time>2021-05-17T12:37:52Z</time>
      </trkpt>
      <trkpt lat="41.6283960" lon="-8.7966090">
        <ele>102.4</ele>
        <time>2021-05-17T12:37:53Z</time>
      </trkpt>
      <trkpt lat="41.6283960" lon="-8.7966090">
        <ele>102.4</ele>
        <time>2021-05-17T12:37:54Z</time>
      </trkpt>
      <trkpt lat="41.6283960" lon="-8.7966090">
        <ele>102.4</ele>
        <time>2021-05-17T12:37:55Z</time>
      </trkpt>
      <trkpt lat="41.6284100" lon="-8.7966100">
        <ele>102.4</ele>
        <time>2021-05-17T12:37:56Z</time>
      </trkpt>
      <trkpt lat="41.6284080" lon="-8.7966100">
        <ele>102.4</ele>
        <time>2021-05-17T12:37:57Z</time>
      </trkpt>
      <trkpt lat="41.6284060" lon="-8.7966110">
        <ele>102.4</ele>
        <time>2021-05-17T12:37:58Z</time>
      </trkpt>
      <trkpt lat="41.6284040" lon="-8.7966110">
        <ele>102.4</ele>
        <time>2021-05-17T12:37:59Z</time>
      </trkpt>
      <trkpt lat="41.6284020" lon="-8.7966120">
        <ele>102.4</ele>
        <time>2021-05-17T12:38:00Z</time>
      </trkpt>
      <trkpt lat="41.6284000" lon="-8.7966120">
        <ele>102.3</ele>
        <time>2021-05-17T12:38:01Z</time>
      </trkpt>
      <trkpt lat="41.6283980" lon="-8.7966130">
        <ele>102.3</ele>
        <time>2021-05-17T12:38:02Z</time>
      </trkpt>
      <trkpt lat="41.6283960" lon="-8.7966130">
        <ele>102.3</ele>
        <time>2021-05-17T12:38:03Z</time>
      </trkpt>
      <trkpt lat="41.6283940" lon="-8.7966140">
        <ele>102.3</ele>
        <time>2021-05-17T12:38:04Z</time>
      </trkpt>
      <trkpt lat="41.6283920" lon="-8.7966140">
        <ele>102.3</ele>
        <time>2021-05-17T12:38:05Z</time>
      </trkpt>
      <trkpt lat="41.6283900" lon="-8.7966150">
        <ele>102.3</ele>
        <time>2021-05-17T12:38:06Z</time>
      </trkpt>
      <trkpt lat="41.6283880" lon="-8.7966150">
        <ele>102.3</ele>
        <time>2021-05-17T12:38:07Z</time>
      </trkpt>
      <trkpt lat="41.6283860" lon="-8.7966150">
        <ele>102.3</ele>
        <time>2021-05-17T12:38:08Z</time>
      </trkpt>
      <trkpt lat="41.6283840" lon="-8.7966160">
        <ele>102.3</ele>
        <time>2021-05-17T12:38:09Z</time>
      </trkpt>
      <trkpt lat="41.6283820" lon="-8.7966160">
        <ele>102.3</ele>
        <time>2021-05-17T12:38:10Z</time>
      </trkpt>
      <trkpt lat="41.6283800" lon="-8.7966170">
        <ele>102.3</ele>
        <time>2021-05-17T12:38:11Z</time>
      </trkpt>
      <trkpt lat="41.6283780" lon="-8.7966170">
        <ele>102.3</ele>
        <time>2021-05-17T12:38:12Z</time>
      </trkpt>
      <trkpt lat="41.6283760" lon="-8.7966180">
        <ele>102.3</ele>
        <time>2021-05-17T12:38:13Z</time>
      </trkpt>
      <trkpt lat="41.6283740" lon="-8.7966180">
        <ele>102.3</ele>
        <time>2021-05-17T12:38:14Z</time>
      </trkpt>
      <trkpt lat="41.6283720" lon="-8.7966190">
        <ele>102.3</ele>
        <time>2021-05-17T12:38:15Z</time>
      </trkpt>
      <trkpt lat="41.6283700" lon="-8.7966190">
        <ele>102.3</ele>
        <time>2021-05-17T12:38:16Z</time>
      </trkpt>
      <trkpt lat="41.6283680" lon="-8.7966200">
        <ele>102.3</ele>
        <time>2021-05-17T12:38:17Z</time>
      </trkpt>
      <trkpt lat="41.6283660" lon="-8.7966200">
        <ele>102.3</ele>
        <time>2021-05-17T12:38:18Z</time>
      </trkpt>
      <trkpt lat="41.6283570" lon="-8.7966240">
        <ele>102.2</ele>
        <time>2021-05-17T12:38:19Z</time>
      </trkpt>
      <trkpt lat="41.6283510" lon="-8.7966290">
        <ele>102.2</ele>
        <time>2021-05-17T12:38:20Z</time>
      </trkpt>
      <trkpt lat="41.6283530" lon="-8.7966200">
        <ele>102.2</ele>
        <time>2021-05-17T12:38:21Z</time>
      </trkpt>
      <trkpt lat="41.6283500" lon="-8.7966130">
        <ele>102.2</ele>
        <time>2021-05-17T12:38:22Z</time>
      </trkpt>
      <trkpt lat="41.6283470" lon="-8.7966060">
        <ele>102.2</ele>
        <time>2021-05-17T12:38:23Z</time>
      </trkpt>
      <trkpt lat="41.6283710" lon="-8.7966180">
        <ele>102.1</ele>
        <time>2021-05-17T12:38:24Z</time>
      </trkpt>
      <trkpt lat="41.6283940" lon="-8.7966220">
        <ele>102.0</ele>
        <time>2021-05-17T12:38:25Z</time>
      </trkpt>
      <trkpt lat="41.6283930" lon="-8.7966170">
        <ele>102.0</ele>
        <time>2021-05-17T12:38:26Z</time>
      </trkpt>
      <trkpt lat="41.6284000" lon="-8.7966040">
        <ele>102.0</ele>
        <time>2021-05-17T12:38:27Z</time>
      </trkpt>
      <trkpt lat="41.6284060" lon="-8.7965920">
        <ele>102.0</ele>
        <time>2021-05-17T12:38:28Z</time>
      </trkpt>
      <trkpt lat="41.6284120" lon="-8.7965790">
        <ele>102.0</ele>
        <time>2021-05-17T12:38:29Z</time>
      </trkpt>
      <trkpt lat="41.6284300" lon="-8.7965700">
        <ele>101.9</ele>
        <time>2021-05-17T12:38:30Z</time>
      </trkpt>
      <trkpt lat="41.6284230" lon="-8.7965650">
        <ele>101.9</ele>
        <time>2021-05-17T12:38:31Z</time>
      </trkpt>
      <trkpt lat="41.6284230" lon="-8.7965650">
        <ele>101.9</ele>
        <time>2021-05-17T12:38:32Z</time>
      </trkpt>
      <trkpt lat="41.6284230" lon="-8.7965650">
        <ele>101.9</ele>
        <time>2021-05-17T12:38:33Z</time>
      </trkpt>
      <trkpt lat="41.6284230" lon="-8.7965650">
        <ele>101.9</ele>
        <time>2021-05-17T12:38:34Z</time>
      </trkpt>
      <trkpt lat="41.6284230" lon="-8.7965650">
        <ele>101.9</ele>
        <time>2021-05-17T12:38:35Z</time>
      </trkpt>
      <trkpt lat="41.6284230" lon="-8.7965650">
        <ele>101.9</ele>
        <time>2021-05-17T12:38:36Z</time>
      </trkpt>
      <trkpt lat="41.6284230" lon="-8.7965650">
        <ele>101.9</ele>
        <time>2021-05-17T12:38:37Z</time>
      </trkpt>
      <trkpt lat="41.6284230" lon="-8.7965650">
        <ele>101.9</ele>
        <time>2021-05-17T12:38:38Z</time>
      </trkpt>
      <trkpt lat="41.6284230" lon="-8.7965650">
        <ele>101.9</ele>
        <time>2021-05-17T12:38:39Z</time>
      </trkpt>
      <trkpt lat="41.6284230" lon="-8.7965650">
        <ele>101.9</ele>
        <time>2021-05-17T12:38:40Z</time>
      </trkpt>
      <trkpt lat="41.6284230" lon="-8.7965650">
        <ele>101.9</ele>
        <time>2021-05-17T12:38:41Z</time>
      </trkpt>
      <trkpt lat="41.6284190" lon="-8.7965420">
        <ele>101.9</ele>
        <time>2021-05-17T12:38:42Z</time>
      </trkpt>
      <trkpt lat="41.6284130" lon="-8.7965490">
        <ele>101.9</ele>
        <time>2021-05-17T12:38:43Z</time>
      </trkpt>
      <trkpt lat="41.6284130" lon="-8.7965560">
        <ele>101.8</ele>
        <time>2021-05-17T12:38:44Z</time>
      </trkpt>
      <trkpt lat="41.6284130" lon="-8.7965620">
        <ele>101.8</ele>
        <time>2021-05-17T12:38:45Z</time>
      </trkpt>
      <trkpt lat="41.6284130" lon="-8.7965690">
        <ele>101.8</ele>
        <time>2021-05-17T12:38:46Z</time>
      </trkpt>
      <trkpt lat="41.6284130" lon="-8.7965750">
        <ele>101.8</ele>
        <time>2021-05-17T12:38:47Z</time>
      </trkpt>
      <trkpt lat="41.6284140" lon="-8.7965820">
        <ele>101.8</ele>
        <time>2021-05-17T12:38:48Z</time>
      </trkpt>
      <trkpt lat="41.6284140" lon="-8.7965880">
        <ele>101.8</ele>
        <time>2021-05-17T12:38:49Z</time>
      </trkpt>
      <trkpt lat="41.6284140" lon="-8.7965950">
        <ele>101.8</ele>
        <time>2021-05-17T12:38:50Z</time>
      </trkpt>
      <trkpt lat="41.6284140" lon="-8.7966010">
        <ele>101.8</ele>
        <time>2021-05-17T12:38:51Z</time>
      </trkpt>
      <trkpt lat="41.6284140" lon="-8.7966080">
        <ele>101.8</ele>
        <time>2021-05-17T12:38:52Z</time>
      </trkpt>
      <trkpt lat="41.6284140" lon="-8.7966140">
        <ele>101.8</ele>
        <time>2021-05-17T12:38:53Z</time>
      </trkpt>
      <trkpt lat="41.6284110" lon="-8.7966110">
        <ele>101.8</ele>
        <time>2021-05-17T12:38:54Z</time>
      </trkpt>
      <trkpt lat="41.6284090" lon="-8.7966120">
        <ele>101.8</ele>
        <time>2021-05-17T12:38:55Z</time>
      </trkpt>
      <trkpt lat="41.6284060" lon="-8.7966140">
        <ele>101.8</ele>
        <time>2021-05-17T12:38:56Z</time>
      </trkpt>
      <trkpt lat="41.6284030" lon="-8.7966160">
        <ele>101.7</ele>
        <time>2021-05-17T12:38:57Z</time>
      </trkpt>
      <trkpt lat="41.6284000" lon="-8.7966170">
        <ele>101.7</ele>
        <time>2021-05-17T12:38:58Z</time>
      </trkpt>
      <trkpt lat="41.6283980" lon="-8.7966190">
        <ele>101.7</ele>
        <time>2021-05-17T12:38:59Z</time>
      </trkpt>
      <trkpt lat="41.6283950" lon="-8.7966210">
        <ele>101.7</ele>
        <time>2021-05-17T12:39:00Z</time>
      </trkpt>
      <trkpt lat="41.6283920" lon="-8.7966220">
        <ele>101.7</ele>
        <time>2021-05-17T12:39:01Z</time>
      </trkpt>
      <trkpt lat="41.6283900" lon="-8.7966240">
        <ele>101.7</ele>
        <time>2021-05-17T12:39:02Z</time>
      </trkpt>
      <trkpt lat="41.6283870" lon="-8.7966250">
        <ele>101.7</ele>
        <time>2021-05-17T12:39:03Z</time>
      </trkpt>
      <trkpt lat="41.6283840" lon="-8.7966270">
        <ele>101.7</ele>
        <time>2021-05-17T12:39:04Z</time>
      </trkpt>
      <trkpt lat="41.6283810" lon="-8.7966290">
        <ele>101.7</ele>
        <time>2021-05-17T12:39:05Z</time>
      </trkpt>
      <trkpt lat="41.6283790" lon="-8.7966300">
        <ele>101.7</ele>
        <time>2021-05-17T12:39:06Z</time>
      </trkpt>
      <trkpt lat="41.6283760" lon="-8.7966320">
        <ele>101.7</ele>
        <time>2021-05-17T12:39:07Z</time>
      </trkpt>
      <trkpt lat="41.6283790" lon="-8.7966250">
        <ele>101.7</ele>
        <time>2021-05-17T12:39:08Z</time>
      </trkpt>
      <trkpt lat="41.6283820" lon="-8.7966230">
        <ele>101.7</ele>
        <time>2021-05-17T12:39:09Z</time>
      </trkpt>
      <trkpt lat="41.6283840" lon="-8.7966200">
        <ele>101.7</ele>
        <time>2021-05-17T12:39:10Z</time>
      </trkpt>
      <trkpt lat="41.6283870" lon="-8.7966180">
        <ele>101.7</ele>
        <time>2021-05-17T12:39:11Z</time>
      </trkpt>
      <trkpt lat="41.6283890" lon="-8.7966150">
        <ele>101.7</ele>
        <time>2021-05-17T12:39:12Z</time>
      </trkpt>
      <trkpt lat="41.6283910" lon="-8.7966130">
        <ele>101.7</ele>
        <time>2021-05-17T12:39:13Z</time>
      </trkpt>
      <trkpt lat="41.6283940" lon="-8.7966100">
        <ele>101.7</ele>
        <time>2021-05-17T12:39:14Z</time>
      </trkpt>
      <trkpt lat="41.6283960" lon="-8.7966080">
        <ele>101.6</ele>
        <time>2021-05-17T12:39:15Z</time>
      </trkpt>
      <trkpt lat="41.6283990" lon="-8.7966050">
        <ele>101.6</ele>
        <time>2021-05-17T12:39:16Z</time>
      </trkpt>
      <trkpt lat="41.6284010" lon="-8.7966020">
        <ele>101.6</ele>
        <time>2021-05-17T12:39:17Z</time>
      </trkpt>
      <trkpt lat="41.6284030" lon="-8.7966000">
        <ele>101.6</ele>
        <time>2021-05-17T12:39:18Z</time>
      </trkpt>
      <trkpt lat="41.6284060" lon="-8.7965970">
        <ele>101.6</ele>
        <time>2021-05-17T12:39:19Z</time>
      </trkpt>
      <trkpt lat="41.6284080" lon="-8.7965950">
        <ele>101.6</ele>
        <time>2021-05-17T12:39:20Z</time>
      </trkpt>
      <trkpt lat="41.6284110" lon="-8.7965920">
        <ele>101.6</ele>
        <time>2021-05-17T12:39:21Z</time>
      </trkpt>
      <trkpt lat="41.6284130" lon="-8.7965900">
        <ele>101.6</ele>
        <time>2021-05-17T12:39:22Z</time>
      </trkpt>
      <trkpt lat="41.6284160" lon="-8.7965870">
        <ele>101.6</ele>
        <time>2021-05-17T12:39:23Z</time>
      </trkpt>
      <trkpt lat="41.6284180" lon="-8.7965850">
        <ele>101.6</ele>
        <time>2021-05-17T12:39:24Z</time>
      </trkpt>
      <trkpt lat="41.6284200" lon="-8.7965820">
        <ele>101.6</ele>
        <time>2021-05-17T12:39:25Z</time>
      </trkpt>
      <trkpt lat="41.6284230" lon="-8.7965790">
        <ele>101.6</ele>
        <time>2021-05-17T12:39:26Z</time>
      </trkpt>
      <trkpt lat="41.6284250" lon="-8.7965770">
        <ele>101.6</ele>
        <time>2021-05-17T12:39:27Z</time>
      </trkpt>
      <trkpt lat="41.6284280" lon="-8.7965740">
        <ele>101.6</ele>
        <time>2021-05-17T12:39:28Z</time>
      </trkpt>
      <trkpt lat="41.6284300" lon="-8.7965720">
        <ele>101.6</ele>
        <time>2021-05-17T12:39:29Z</time>
      </trkpt>
      <trkpt lat="41.6284320" lon="-8.7965690">
        <ele>101.6</ele>
        <time>2021-05-17T12:39:30Z</time>
      </trkpt>
      <trkpt lat="41.6284350" lon="-8.7965670">
        <ele>101.6</ele>
        <time>2021-05-17T12:39:31Z</time>
      </trkpt>
      <trkpt lat="41.6284370" lon="-8.7965640">
        <ele>101.6</ele>
        <time>2021-05-17T12:39:32Z</time>
      </trkpt>
      <trkpt lat="41.6284400" lon="-8.7965620">
        <ele>101.6</ele>
        <time>2021-05-17T12:39:33Z</time>
      </trkpt>
      <trkpt lat="41.6284420" lon="-8.7965590">
        <ele>101.5</ele>
        <time>2021-05-17T12:39:34Z</time>
      </trkpt>
      <trkpt lat="41.6284490" lon="-8.7965520">
        <ele>101.5</ele>
        <time>2021-05-17T12:39:35Z</time>
      </trkpt>
      <trkpt lat="41.6284580" lon="-8.7965390">
        <ele>101.5</ele>
        <time>2021-05-17T12:39:36Z</time>
      </trkpt>
      <trkpt lat="41.6284670" lon="-8.7965260">
        <ele>101.5</ele>
        <time>2021-05-17T12:39:37Z</time>
      </trkpt>
      <trkpt lat="41.6284760" lon="-8.7965130">
        <ele>101.5</ele>
        <time>2021-05-17T12:39:38Z</time>
      </trkpt>
      <trkpt lat="41.6284860" lon="-8.7965030">
        <ele>101.4</ele>
        <time>2021-05-17T12:39:39Z</time>
      </trkpt>
      <trkpt lat="41.6284950" lon="-8.7965010">
        <ele>101.4</ele>
        <time>2021-05-17T12:39:40Z</time>
      </trkpt>
      <trkpt lat="41.6285010" lon="-8.7964980">
        <ele>101.4</ele>
        <time>2021-05-17T12:39:41Z</time>
      </trkpt>
      <trkpt lat="41.6285130" lon="-8.7964960">
        <ele>101.4</ele>
        <time>2021-05-17T12:39:42Z</time>
      </trkpt>
      <trkpt lat="41.6285190" lon="-8.7964940">
        <ele>101.4</ele>
        <time>2021-05-17T12:39:43Z</time>
      </trkpt>
      <trkpt lat="41.6285230" lon="-8.7964950">
        <ele>101.4</ele>
        <time>2021-05-17T12:39:44Z</time>
      </trkpt>
      <trkpt lat="41.6285250" lon="-8.7964940">
        <ele>101.4</ele>
        <time>2021-05-17T12:39:45Z</time>
      </trkpt>
      <trkpt lat="41.6285320" lon="-8.7964940">
        <ele>101.4</ele>
        <time>2021-05-17T12:39:46Z</time>
      </trkpt>
      <trkpt lat="41.6285440" lon="-8.7964810">
        <ele>101.3</ele>
        <time>2021-05-17T12:39:47Z</time>
      </trkpt>
      <trkpt lat="41.6285610" lon="-8.7964740">
        <ele>101.3</ele>
        <time>2021-05-17T12:39:48Z</time>
      </trkpt>
      <trkpt lat="41.6285810" lon="-8.7964720">
        <ele>101.3</ele>
        <time>2021-05-17T12:39:49Z</time>
      </trkpt>
      <trkpt lat="41.6285940" lon="-8.7964700">
        <ele>101.3</ele>
        <time>2021-05-17T12:39:50Z</time>
      </trkpt>
      <trkpt lat="41.6286060" lon="-8.7964670">
        <ele>101.2</ele>
        <time>2021-05-17T12:39:51Z</time>
      </trkpt>
      <trkpt lat="41.6286170" lon="-8.7964610">
        <ele>101.2</ele>
        <time>2021-05-17T12:39:52Z</time>
      </trkpt>
      <trkpt lat="41.6286350" lon="-8.7964470">
        <ele>101.2</ele>
        <time>2021-05-17T12:39:53Z</time>
      </trkpt>
      <trkpt lat="41.6286490" lon="-8.7964480">
        <ele>101.1</ele>
        <time>2021-05-17T12:39:54Z</time>
      </trkpt>
      <trkpt lat="41.6286670" lon="-8.7964400">
        <ele>101.1</ele>
        <time>2021-05-17T12:39:55Z</time>
      </trkpt>
      <trkpt lat="41.6286860" lon="-8.7964350">
        <ele>101.1</ele>
        <time>2021-05-17T12:39:56Z</time>
      </trkpt>
      <trkpt lat="41.6286980" lon="-8.7964330">
        <ele>101.0</ele>
        <time>2021-05-17T12:39:57Z</time>
      </trkpt>
      <trkpt lat="41.6287100" lon="-8.7964310">
        <ele>101.0</ele>
        <time>2021-05-17T12:39:58Z</time>
      </trkpt>
      <trkpt lat="41.6287170" lon="-8.7964290">
        <ele>101.0</ele>
        <time>2021-05-17T12:39:59Z</time>
      </trkpt>
      <trkpt lat="41.6287290" lon="-8.7964260">
        <ele>101.0</ele>
        <time>2021-05-17T12:40:00Z</time>
      </trkpt>
      <trkpt lat="41.6287450" lon="-8.7964210">
        <ele>100.9</ele>
        <time>2021-05-17T12:40:01Z</time>
      </trkpt>
      <trkpt lat="41.6287630" lon="-8.7964190">
        <ele>100.9</ele>
        <time>2021-05-17T12:40:02Z</time>
      </trkpt>
      <trkpt lat="41.6287770" lon="-8.7964220">
        <ele>100.8</ele>
        <time>2021-05-17T12:40:03Z</time>
      </trkpt>
      <trkpt lat="41.6287830" lon="-8.7964170">
        <ele>100.8</ele>
        <time>2021-05-17T12:40:04Z</time>
      </trkpt>
      <trkpt lat="41.6288030" lon="-8.7964160">
        <ele>100.8</ele>
        <time>2021-05-17T12:40:05Z</time>
      </trkpt>
      <trkpt lat="41.6288230" lon="-8.7964070">
        <ele>100.7</ele>
        <time>2021-05-17T12:40:06Z</time>
      </trkpt>
      <trkpt lat="41.6288350" lon="-8.7964060">
        <ele>100.7</ele>
        <time>2021-05-17T12:40:07Z</time>
      </trkpt>
      <trkpt lat="41.6288470" lon="-8.7964040">
        <ele>100.6</ele>
        <time>2021-05-17T12:40:08Z</time>
      </trkpt>
      <trkpt lat="41.6288610" lon="-8.7964000">
        <ele>100.6</ele>
        <time>2021-05-17T12:40:09Z</time>
      </trkpt>
      <trkpt lat="41.6288810" lon="-8.7964040">
        <ele>100.5</ele>
        <time>2021-05-17T12:40:10Z</time>
      </trkpt>
      <trkpt lat="41.6288980" lon="-8.7964090">
        <ele>100.5</ele>
        <time>2021-05-17T12:40:11Z</time>
      </trkpt>
      <trkpt lat="41.6289110" lon="-8.7964080">
        <ele>100.5</ele>
        <time>2021-05-17T12:40:12Z</time>
      </trkpt>
      <trkpt lat="41.6289240" lon="-8.7964160">
        <ele>100.4</ele>
        <time>2021-05-17T12:40:13Z</time>
      </trkpt>
      <trkpt lat="41.6289430" lon="-8.7964130">
        <ele>100.4</ele>
        <time>2021-05-17T12:40:14Z</time>
      </trkpt>
      <trkpt lat="41.6289540" lon="-8.7964140">
        <ele>100.3</ele>
        <time>2021-05-17T12:40:15Z</time>
      </trkpt>
      <trkpt lat="41.6289640" lon="-8.7964180">
        <ele>100.3</ele>
        <time>2021-05-17T12:40:16Z</time>
      </trkpt>
      <trkpt lat="41.6289760" lon="-8.7964280">
        <ele>100.3</ele>
        <time>2021-05-17T12:40:17Z</time>
      </trkpt>
      <trkpt lat="41.6289930" lon="-8.7964690">
        <ele>100.2</ele>
        <time>2021-05-17T12:40:18Z</time>
      </trkpt>
      <trkpt lat="41.6290000" lon="-8.7964780">
        <ele>100.1</ele>
        <time>2021-05-17T12:40:19Z</time>
      </trkpt>
      <trkpt lat="41.6290140" lon="-8.7964910">
        <ele>100.1</ele>
        <time>2021-05-17T12:40:20Z</time>
      </trkpt>
      <trkpt lat="41.6290160" lon="-8.7964970">
        <ele>100.1</ele>
        <time>2021-05-17T12:40:21Z</time>
      </trkpt>
      <trkpt lat="41.6290210" lon="-8.7965020">
        <ele>100.1</ele>
        <time>2021-05-17T12:40:22Z</time>
      </trkpt>
      <trkpt lat="41.6290390" lon="-8.7965140">
        <ele>100.0</ele>
        <time>2021-05-17T12:40:23Z</time>
      </trkpt>
      <trkpt lat="41.6290500" lon="-8.7965210">
        <ele>100.0</ele>
        <time>2021-05-17T12:40:24Z</time>
      </trkpt>
      <trkpt lat="41.6290600" lon="-8.7965290">
        <ele>99.9</ele>
        <time>2021-05-17T12:40:25Z</time>
      </trkpt>
      <trkpt lat="41.6290730" lon="-8.7965390">
        <ele>99.9</ele>
        <time>2021-05-17T12:40:26Z</time>
      </trkpt>
      <trkpt lat="41.6290770" lon="-8.7965460">
        <ele>99.9</ele>
        <time>2021-05-17T12:40:27Z</time>
      </trkpt>
      <trkpt lat="41.6290820" lon="-8.7965670">
        <ele>99.8</ele>
        <time>2021-05-17T12:40:28Z</time>
      </trkpt>
      <trkpt lat="41.6290970" lon="-8.7966010">
        <ele>99.7</ele>
        <time>2021-05-17T12:40:29Z</time>
      </trkpt>
      <trkpt lat="41.6291020" lon="-8.7966100">
        <ele>99.7</ele>
        <time>2021-05-17T12:40:30Z</time>
      </trkpt>
      <trkpt lat="41.6291110" lon="-8.7966190">
        <ele>99.6</ele>
        <time>2021-05-17T12:40:31Z</time>
      </trkpt>
      <trkpt lat="41.6291220" lon="-8.7966300">
        <ele>99.6</ele>
        <time>2021-05-17T12:40:32Z</time>
      </trkpt>
      <trkpt lat="41.6291270" lon="-8.7966440">
        <ele>99.5</ele>
        <time>2021-05-17T12:40:33Z</time>
      </trkpt>
      <trkpt lat="41.6291420" lon="-8.7966700">
        <ele>99.4</ele>
        <time>2021-05-17T12:40:34Z</time>
      </trkpt>
      <trkpt lat="41.6291440" lon="-8.7966810">
        <ele>99.4</ele>
        <time>2021-05-17T12:40:35Z</time>
      </trkpt>
      <trkpt lat="41.6291460" lon="-8.7966920">
        <ele>99.4</ele>
        <time>2021-05-17T12:40:36Z</time>
      </trkpt>
      <trkpt lat="41.6291520" lon="-8.7966940">
        <ele>99.3</ele>
        <time>2021-05-17T12:40:37Z</time>
      </trkpt>
      <trkpt lat="41.6291580" lon="-8.7967060">
        <ele>99.3</ele>
        <time>2021-05-17T12:40:38Z</time>
      </trkpt>
      <trkpt lat="41.6291690" lon="-8.7967150">
        <ele>99.2</ele>
        <time>2021-05-17T12:40:39Z</time>
      </trkpt>
      <trkpt lat="41.6291830" lon="-8.7967360">
        <ele>99.1</ele>
        <time>2021-05-17T12:40:40Z</time>
      </trkpt>
      <trkpt lat="41.6291910" lon="-8.7967410">
        <ele>99.1</ele>
        <time>2021-05-17T12:40:41Z</time>
      </trkpt>
      <trkpt lat="41.6291980" lon="-8.7967460">
        <ele>99.0</ele>
        <time>2021-05-17T12:40:42Z</time>
      </trkpt>
      <trkpt lat="41.6292060" lon="-8.7967530">
        <ele>99.0</ele>
        <time>2021-05-17T12:40:43Z</time>
      </trkpt>
      <trkpt lat="41.6292130" lon="-8.7967590">
        <ele>99.0</ele>
        <time>2021-05-17T12:40:44Z</time>
      </trkpt>
      <trkpt lat="41.6292240" lon="-8.7967640">
        <ele>98.9</ele>
        <time>2021-05-17T12:40:45Z</time>
      </trkpt>
      <trkpt lat="41.6292410" lon="-8.7967730">
        <ele>98.8</ele>
        <time>2021-05-17T12:40:46Z</time>
      </trkpt>
      <trkpt lat="41.6292560" lon="-8.7967800">
        <ele>98.7</ele>
        <time>2021-05-17T12:40:47Z</time>
      </trkpt>
      <trkpt lat="41.6292710" lon="-8.7967850">
        <ele>98.7</ele>
        <time>2021-05-17T12:40:48Z</time>
      </trkpt>
      <trkpt lat="41.6292790" lon="-8.7967870">
        <ele>98.6</ele>
        <time>2021-05-17T12:40:49Z</time>
      </trkpt>
      <trkpt lat="41.6292880" lon="-8.7967880">
        <ele>98.6</ele>
        <time>2021-05-17T12:40:50Z</time>
      </trkpt>
      <trkpt lat="41.6292960" lon="-8.7967900">
        <ele>98.6</ele>
        <time>2021-05-17T12:40:51Z</time>
      </trkpt>
      <trkpt lat="41.6293080" lon="-8.7967970">
        <ele>98.5</ele>
        <time>2021-05-17T12:40:52Z</time>
      </trkpt>
      <trkpt lat="41.6293230" lon="-8.7968040">
        <ele>98.4</ele>
        <time>2021-05-17T12:40:53Z</time>
      </trkpt>
      <trkpt lat="41.6293350" lon="-8.7968030">
        <ele>98.4</ele>
        <time>2021-05-17T12:40:54Z</time>
      </trkpt>
      <trkpt lat="41.6293430" lon="-8.7968010">
        <ele>98.3</ele>
        <time>2021-05-17T12:40:55Z</time>
      </trkpt>
      <trkpt lat="41.6293520" lon="-8.7967950">
        <ele>98.3</ele>
        <time>2021-05-17T12:40:56Z</time>
      </trkpt>
      <trkpt lat="41.6293710" lon="-8.7967970">
        <ele>98.2</ele>
        <time>2021-05-17T12:40:57Z</time>
      </trkpt>
      <trkpt lat="41.6293810" lon="-8.7967960">
        <ele>98.2</ele>
        <time>2021-05-17T12:40:58Z</time>
      </trkpt>
      <trkpt lat="41.6293910" lon="-8.7967960">
        <ele>98.1</ele>
        <time>2021-05-17T12:40:59Z</time>
      </trkpt>
      <trkpt lat="41.6294020" lon="-8.7967910">
        <ele>98.1</ele>
        <time>2021-05-17T12:41:00Z</time>
      </trkpt>
      <trkpt lat="41.6294200" lon="-8.7967810">
        <ele>98.0</ele>
        <time>2021-05-17T12:41:01Z</time>
      </trkpt>
      <trkpt lat="41.6294350" lon="-8.7967690">
        <ele>98.0</ele>
        <time>2021-05-17T12:41:02Z</time>
      </trkpt>
      <trkpt lat="41.6294470" lon="-8.7967580">
        <ele>97.9</ele>
        <time>2021-05-17T12:41:03Z</time>
      </trkpt>
      <trkpt lat="41.6294570" lon="-8.7967500">
        <ele>97.9</ele>
        <time>2021-05-17T12:41:04Z</time>
      </trkpt>
      <trkpt lat="41.6294730" lon="-8.7967450">
        <ele>97.9</ele>
        <time>2021-05-17T12:41:05Z</time>
      </trkpt>
      <trkpt lat="41.6294900" lon="-8.7967320">
        <ele>97.8</ele>
        <time>2021-05-17T12:41:06Z</time>
      </trkpt>
      <trkpt lat="41.6295040" lon="-8.7967230">
        <ele>97.8</ele>
        <time>2021-05-17T12:41:07Z</time>
      </trkpt>
      <trkpt lat="41.6295150" lon="-8.7967140">
        <ele>97.8</ele>
        <time>2021-05-17T12:41:08Z</time>
      </trkpt>
      <trkpt lat="41.6295290" lon="-8.7967060">
        <ele>97.7</ele>
        <time>2021-05-17T12:41:09Z</time>
      </trkpt>
      <trkpt lat="41.6295390" lon="-8.7967020">
        <ele>97.7</ele>
        <time>2021-05-17T12:41:10Z</time>
      </trkpt>
      <trkpt lat="41.6295480" lon="-8.7966980">
        <ele>97.7</ele>
        <time>2021-05-17T12:41:11Z</time>
      </trkpt>
      <trkpt lat="41.6295520" lon="-8.7966800">
        <ele>97.7</ele>
        <time>2021-05-17T12:41:12Z</time>
      </trkpt>
      <trkpt lat="41.6295610" lon="-8.7966800">
        <ele>97.7</ele>
        <time>2021-05-17T12:41:13Z</time>
      </trkpt>
      <trkpt lat="41.6295700" lon="-8.7966760">
        <ele>97.7</ele>
        <time>2021-05-17T12:41:14Z</time>
      </trkpt>
      <trkpt lat="41.6295850" lon="-8.7966710">
        <ele>97.7</ele>
        <time>2021-05-17T12:41:15Z</time>
      </trkpt>
      <trkpt lat="41.6296000" lon="-8.7966710">
        <ele>97.6</ele>
        <time>2021-05-17T12:41:16Z</time>
      </trkpt>
      <trkpt lat="41.6296070" lon="-8.7966750">
        <ele>97.6</ele>
        <time>2021-05-17T12:41:17Z</time>
      </trkpt>
      <trkpt lat="41.6296090" lon="-8.7966760">
        <ele>97.6</ele>
        <time>2021-05-17T12:41:18Z</time>
      </trkpt>
      <trkpt lat="41.6296140" lon="-8.7966770">
        <ele>97.6</ele>
        <time>2021-05-17T12:41:19Z</time>
      </trkpt>
      <trkpt lat="41.6296200" lon="-8.7966780">
        <ele>97.6</ele>
        <time>2021-05-17T12:41:20Z</time>
      </trkpt>
      <trkpt lat="41.6296230" lon="-8.7966760">
        <ele>97.6</ele>
        <time>2021-05-17T12:41:21Z</time>
      </trkpt>
      <trkpt lat="41.6296280" lon="-8.7966770">
        <ele>97.6</ele>
        <time>2021-05-17T12:41:22Z</time>
      </trkpt>
      <trkpt lat="41.6296340" lon="-8.7966850">
        <ele>97.6</ele>
        <time>2021-05-17T12:41:23Z</time>
      </trkpt>
      <trkpt lat="41.6296420" lon="-8.7966730">
        <ele>97.6</ele>
        <time>2021-05-17T12:41:24Z</time>
      </trkpt>
      <trkpt lat="41.6296580" lon="-8.7966690">
        <ele>97.6</ele>
        <time>2021-05-17T12:41:25Z</time>
      </trkpt>
      <trkpt lat="41.6296710" lon="-8.7966660">
        <ele>97.6</ele>
        <time>2021-05-17T12:41:26Z</time>
      </trkpt>
      <trkpt lat="41.6296920" lon="-8.7966640">
        <ele>97.6</ele>
        <time>2021-05-17T12:41:27Z</time>
      </trkpt>
      <trkpt lat="41.6297050" lon="-8.7966690">
        <ele>97.6</ele>
        <time>2021-05-17T12:41:28Z</time>
      </trkpt>
      <trkpt lat="41.6297190" lon="-8.7966620">
        <ele>97.6</ele>
        <time>2021-05-17T12:41:29Z</time>
      </trkpt>
      <trkpt lat="41.6297270" lon="-8.7966580">
        <ele>97.6</ele>
        <time>2021-05-17T12:41:30Z</time>
      </trkpt>
      <trkpt lat="41.6297380" lon="-8.7966710">
        <ele>97.6</ele>
        <time>2021-05-17T12:41:31Z</time>
      </trkpt>
      <trkpt lat="41.6297530" lon="-8.7966700">
        <ele>97.6</ele>
        <time>2021-05-17T12:41:32Z</time>
      </trkpt>
      <trkpt lat="41.6297660" lon="-8.7966640">
        <ele>97.6</ele>
        <time>2021-05-17T12:41:33Z</time>
      </trkpt>
      <trkpt lat="41.6297750" lon="-8.7966610">
        <ele>97.6</ele>
        <time>2021-05-17T12:41:34Z</time>
      </trkpt>
      <trkpt lat="41.6297840" lon="-8.7966610">
        <ele>97.6</ele>
        <time>2021-05-17T12:41:35Z</time>
      </trkpt>
      <trkpt lat="41.6297930" lon="-8.7966580">
        <ele>97.7</ele>
        <time>2021-05-17T12:41:36Z</time>
      </trkpt>
      <trkpt lat="41.6298070" lon="-8.7966680">
        <ele>97.8</ele>
        <time>2021-05-17T12:41:37Z</time>
      </trkpt>
      <trkpt lat="41.6298260" lon="-8.7966630">
        <ele>98.0</ele>
        <time>2021-05-17T12:41:38Z</time>
      </trkpt>
      <trkpt lat="41.6298450" lon="-8.7966710">
        <ele>98.2</ele>
        <time>2021-05-17T12:41:39Z</time>
      </trkpt>
      <trkpt lat="41.6298550" lon="-8.7966690">
        <ele>98.3</ele>
        <time>2021-05-17T12:41:40Z</time>
      </trkpt>
      <trkpt lat="41.6298640" lon="-8.7966680">
        <ele>98.4</ele>
        <time>2021-05-17T12:41:41Z</time>
      </trkpt>
      <trkpt lat="41.6298860" lon="-8.7966660">
        <ele>98.6</ele>
        <time>2021-05-17T12:41:42Z</time>
      </trkpt>
      <trkpt lat="41.6298950" lon="-8.7966640">
        <ele>98.7</ele>
        <time>2021-05-17T12:41:43Z</time>
      </trkpt>
      <trkpt lat="41.6299050" lon="-8.7966620">
        <ele>98.7</ele>
        <time>2021-05-17T12:41:44Z</time>
      </trkpt>
      <trkpt lat="41.6299120" lon="-8.7966600">
        <ele>98.8</ele>
        <time>2021-05-17T12:41:45Z</time>
      </trkpt>
      <trkpt lat="41.6299220" lon="-8.7966570">
        <ele>98.9</ele>
        <time>2021-05-17T12:41:46Z</time>
      </trkpt>
      <trkpt lat="41.6299310" lon="-8.7966520">
        <ele>99.0</ele>
        <time>2021-05-17T12:41:47Z</time>
      </trkpt>
      <trkpt lat="41.6299420" lon="-8.7966480">
        <ele>99.1</ele>
        <time>2021-05-17T12:41:48Z</time>
      </trkpt>
      <trkpt lat="41.6299580" lon="-8.7966490">
        <ele>99.2</ele>
        <time>2021-05-17T12:41:49Z</time>
      </trkpt>
      <trkpt lat="41.6299670" lon="-8.7966490">
        <ele>99.2</ele>
        <time>2021-05-17T12:41:50Z</time>
      </trkpt>
      <trkpt lat="41.6299780" lon="-8.7966460">
        <ele>99.3</ele>
        <time>2021-05-17T12:41:51Z</time>
      </trkpt>
      <trkpt lat="41.6299890" lon="-8.7966380">
        <ele>99.4</ele>
        <time>2021-05-17T12:41:52Z</time>
      </trkpt>
      <trkpt lat="41.6300030" lon="-8.7966410">
        <ele>99.5</ele>
        <time>2021-05-17T12:41:53Z</time>
      </trkpt>
      <trkpt lat="41.6300130" lon="-8.7966460">
        <ele>99.6</ele>
        <time>2021-05-17T12:41:54Z</time>
      </trkpt>
      <trkpt lat="41.6300210" lon="-8.7966490">
        <ele>99.6</ele>
        <time>2021-05-17T12:41:55Z</time>
      </trkpt>
      <trkpt lat="41.6300370" lon="-8.7966500">
        <ele>99.7</ele>
        <time>2021-05-17T12:41:56Z</time>
      </trkpt>
      <trkpt lat="41.6300530" lon="-8.7966440">
        <ele>99.8</ele>
        <time>2021-05-17T12:41:57Z</time>
      </trkpt>
      <trkpt lat="41.6300820" lon="-8.7966400">
        <ele>100.0</ele>
        <time>2021-05-17T12:41:58Z</time>
      </trkpt>
      <trkpt lat="41.6300920" lon="-8.7966390">
        <ele>100.0</ele>
        <time>2021-05-17T12:41:59Z</time>
      </trkpt>
      <trkpt lat="41.6300980" lon="-8.7966410">
        <ele>100.1</ele>
        <time>2021-05-17T12:42:00Z</time>
      </trkpt>
      <trkpt lat="41.6301020" lon="-8.7966400">
        <ele>100.1</ele>
        <time>2021-05-17T12:42:01Z</time>
      </trkpt>
      <trkpt lat="41.6301120" lon="-8.7966410">
        <ele>100.1</ele>
        <time>2021-05-17T12:42:02Z</time>
      </trkpt>
      <trkpt lat="41.6301230" lon="-8.7966370">
        <ele>100.2</ele>
        <time>2021-05-17T12:42:03Z</time>
      </trkpt>
      <trkpt lat="41.6301530" lon="-8.7966270">
        <ele>100.3</ele>
        <time>2021-05-17T12:42:04Z</time>
      </trkpt>
      <trkpt lat="41.6301610" lon="-8.7966260">
        <ele>100.4</ele>
        <time>2021-05-17T12:42:05Z</time>
      </trkpt>
      <trkpt lat="41.6301850" lon="-8.7966220">
        <ele>100.5</ele>
        <time>2021-05-17T12:42:06Z</time>
      </trkpt>
      <trkpt lat="41.6301930" lon="-8.7966210">
        <ele>100.5</ele>
        <time>2021-05-17T12:42:07Z</time>
      </trkpt>
      <trkpt lat="41.6302020" lon="-8.7966210">
        <ele>100.6</ele>
        <time>2021-05-17T12:42:08Z</time>
      </trkpt>
      <trkpt lat="41.6302170" lon="-8.7966260">
        <ele>100.7</ele>
        <time>2021-05-17T12:42:09Z</time>
      </trkpt>
      <trkpt lat="41.6302250" lon="-8.7966260">
        <ele>100.7</ele>
        <time>2021-05-17T12:42:10Z</time>
      </trkpt>
      <trkpt lat="41.6302320" lon="-8.7966250">
        <ele>100.7</ele>
        <time>2021-05-17T12:42:11Z</time>
      </trkpt>
      <trkpt lat="41.6302390" lon="-8.7966240">
        <ele>100.7</ele>
        <time>2021-05-17T12:42:12Z</time>
      </trkpt>
      <trkpt lat="41.6302560" lon="-8.7966230">
        <ele>100.8</ele>
        <time>2021-05-17T12:42:13Z</time>
      </trkpt>
      <trkpt lat="41.6302710" lon="-8.7966230">
        <ele>100.9</ele>
        <time>2021-05-17T12:42:14Z</time>
      </trkpt>
      <trkpt lat="41.6302870" lon="-8.7966170">
        <ele>100.9</ele>
        <time>2021-05-17T12:42:15Z</time>
      </trkpt>
      <trkpt lat="41.6303010" lon="-8.7966240">
        <ele>101.0</ele>
        <time>2021-05-17T12:42:16Z</time>
      </trkpt>
      <trkpt lat="41.6303350" lon="-8.7966300">
        <ele>101.0</ele>
        <time>2021-05-17T12:42:17Z</time>
      </trkpt>
      <trkpt lat="41.6303510" lon="-8.7966330">
        <ele>101.1</ele>
        <time>2021-05-17T12:42:18Z</time>
      </trkpt>
      <trkpt lat="41.6303640" lon="-8.7966360">
        <ele>101.1</ele>
        <time>2021-05-17T12:42:19Z</time>
      </trkpt>
      <trkpt lat="41.6303770" lon="-8.7966430">
        <ele>101.1</ele>
        <time>2021-05-17T12:42:20Z</time>
      </trkpt>
      <trkpt lat="41.6303980" lon="-8.7966470">
        <ele>101.1</ele>
        <time>2021-05-17T12:42:21Z</time>
      </trkpt>
      <trkpt lat="41.6304340" lon="-8.7966570">
        <ele>101.2</ele>
        <time>2021-05-17T12:42:22Z</time>
      </trkpt>
      <trkpt lat="41.6304460" lon="-8.7966670">
        <ele>101.2</ele>
        <time>2021-05-17T12:42:23Z</time>
      </trkpt>
      <trkpt lat="41.6304570" lon="-8.7966650">
        <ele>101.2</ele>
        <time>2021-05-17T12:42:24Z</time>
      </trkpt>
      <trkpt lat="41.6304700" lon="-8.7966750">
        <ele>101.3</ele>
        <time>2021-05-17T12:42:25Z</time>
      </trkpt>
      <trkpt lat="41.6304800" lon="-8.7966780">
        <ele>101.3</ele>
        <time>2021-05-17T12:42:26Z</time>
      </trkpt>
      <trkpt lat="41.6304940" lon="-8.7966780">
        <ele>101.3</ele>
        <time>2021-05-17T12:42:27Z</time>
      </trkpt>
      <trkpt lat="41.6305110" lon="-8.7966880">
        <ele>101.3</ele>
        <time>2021-05-17T12:42:28Z</time>
      </trkpt>
      <trkpt lat="41.6305220" lon="-8.7966990">
        <ele>101.4</ele>
        <time>2021-05-17T12:42:29Z</time>
      </trkpt>
      <trkpt lat="41.6305390" lon="-8.7967010">
        <ele>101.4</ele>
        <time>2021-05-17T12:42:30Z</time>
      </trkpt>
      <trkpt lat="41.6305550" lon="-8.7967060">
        <ele>101.4</ele>
        <time>2021-05-17T12:42:31Z</time>
      </trkpt>
      <trkpt lat="41.6305610" lon="-8.7967090">
        <ele>101.5</ele>
        <time>2021-05-17T12:42:32Z</time>
      </trkpt>
      <trkpt lat="41.6305680" lon="-8.7967130">
        <ele>101.5</ele>
        <time>2021-05-17T12:42:33Z</time>
      </trkpt>
      <trkpt lat="41.6305740" lon="-8.7967170">
        <ele>101.5</ele>
        <time>2021-05-17T12:42:34Z</time>
      </trkpt>
      <trkpt lat="41.6305850" lon="-8.7967220">
        <ele>101.5</ele>
        <time>2021-05-17T12:42:35Z</time>
      </trkpt>
      <trkpt lat="41.6305930" lon="-8.7967310">
        <ele>101.6</ele>
        <time>2021-05-17T12:42:36Z</time>
      </trkpt>
      <trkpt lat="41.6305950" lon="-8.7967390">
        <ele>101.6</ele>
        <time>2021-05-17T12:42:37Z</time>
      </trkpt>
      <trkpt lat="41.6305880" lon="-8.7967430">
        <ele>101.6</ele>
        <time>2021-05-17T12:42:38Z</time>
      </trkpt>
      <trkpt lat="41.6305850" lon="-8.7967300">
        <ele>101.6</ele>
        <time>2021-05-17T12:42:39Z</time>
      </trkpt>
      <trkpt lat="41.6305850" lon="-8.7967300">
        <ele>101.6</ele>
        <time>2021-05-17T12:42:40Z</time>
      </trkpt>
      <trkpt lat="41.6305740" lon="-8.7967530">
        <ele>101.7</ele>
        <time>2021-05-17T12:42:41Z</time>
      </trkpt>
      <trkpt lat="41.6305740" lon="-8.7967530">
        <ele>101.7</ele>
        <time>2021-05-17T12:42:42Z</time>
      </trkpt>
      <trkpt lat="41.6305680" lon="-8.7967610">
        <ele>101.7</ele>
        <time>2021-05-17T12:42:43Z</time>
      </trkpt>
      <trkpt lat="41.6305750" lon="-8.7967540">
        <ele>101.7</ele>
        <time>2021-05-17T12:42:44Z</time>
      </trkpt>
      <trkpt lat="41.6305790" lon="-8.7967520">
        <ele>101.7</ele>
        <time>2021-05-17T12:42:45Z</time>
      </trkpt>
      <trkpt lat="41.6305830" lon="-8.7967510">
        <ele>101.8</ele>
        <time>2021-05-17T12:42:46Z</time>
      </trkpt>
      <trkpt lat="41.6305870" lon="-8.7967500">
        <ele>101.8</ele>
        <time>2021-05-17T12:42:47Z</time>
      </trkpt>
      <trkpt lat="41.6305910" lon="-8.7967490">
        <ele>101.8</ele>
        <time>2021-05-17T12:42:48Z</time>
      </trkpt>
      <trkpt lat="41.6305940" lon="-8.7967470">
        <ele>101.8</ele>
        <time>2021-05-17T12:42:49Z</time>
      </trkpt>
      <trkpt lat="41.6305980" lon="-8.7967460">
        <ele>101.8</ele>
        <time>2021-05-17T12:42:50Z</time>
      </trkpt>
      <trkpt lat="41.6306020" lon="-8.7967450">
        <ele>101.8</ele>
        <time>2021-05-17T12:42:51Z</time>
      </trkpt>
      <trkpt lat="41.6306060" lon="-8.7967430">
        <ele>101.8</ele>
        <time>2021-05-17T12:42:52Z</time>
      </trkpt>
      <trkpt lat="41.6306100" lon="-8.7967420">
        <ele>101.8</ele>
        <time>2021-05-17T12:42:53Z</time>
      </trkpt>
      <trkpt lat="41.6306260" lon="-8.7967440">
        <ele>101.9</ele>
        <time>2021-05-17T12:42:54Z</time>
      </trkpt>
      <trkpt lat="41.6306400" lon="-8.7967420">
        <ele>101.9</ele>
        <time>2021-05-17T12:42:55Z</time>
      </trkpt>
      <trkpt lat="41.6306600" lon="-8.7967500">
        <ele>101.9</ele>
        <time>2021-05-17T12:42:56Z</time>
      </trkpt>
      <trkpt lat="41.6306670" lon="-8.7967560">
        <ele>102.0</ele>
        <time>2021-05-17T12:42:57Z</time>
      </trkpt>
      <trkpt lat="41.6306880" lon="-8.7967520">
        <ele>102.0</ele>
        <time>2021-05-17T12:42:58Z</time>
      </trkpt>
      <trkpt lat="41.6306970" lon="-8.7967500">
        <ele>102.0</ele>
        <time>2021-05-17T12:42:59Z</time>
      </trkpt>
      <trkpt lat="41.6307050" lon="-8.7967470">
        <ele>102.0</ele>
        <time>2021-05-17T12:43:00Z</time>
      </trkpt>
      <trkpt lat="41.6307360" lon="-8.7967480">
        <ele>102.1</ele>
        <time>2021-05-17T12:43:01Z</time>
      </trkpt>
      <trkpt lat="41.6307440" lon="-8.7967510">
        <ele>102.1</ele>
        <time>2021-05-17T12:43:02Z</time>
      </trkpt>
      <trkpt lat="41.6307680" lon="-8.7967480">
        <ele>102.1</ele>
        <time>2021-05-17T12:43:03Z</time>
      </trkpt>
      <trkpt lat="41.6307770" lon="-8.7967460">
        <ele>102.1</ele>
        <time>2021-05-17T12:43:04Z</time>
      </trkpt>
      <trkpt lat="41.6307870" lon="-8.7967440">
        <ele>102.1</ele>
        <time>2021-05-17T12:43:05Z</time>
      </trkpt>
      <trkpt lat="41.6308160" lon="-8.7967450">
        <ele>102.0</ele>
        <time>2021-05-17T12:43:06Z</time>
      </trkpt>
      <trkpt lat="41.6308250" lon="-8.7967480">
        <ele>102.0</ele>
        <time>2021-05-17T12:43:07Z</time>
      </trkpt>
      <trkpt lat="41.6308440" lon="-8.7967480">
        <ele>102.0</ele>
        <time>2021-05-17T12:43:08Z</time>
      </trkpt>
      <trkpt lat="41.6308520" lon="-8.7967430">
        <ele>102.0</ele>
        <time>2021-05-17T12:43:09Z</time>
      </trkpt>
      <trkpt lat="41.6308600" lon="-8.7967390">
        <ele>102.0</ele>
        <time>2021-05-17T12:43:10Z</time>
      </trkpt>
      <trkpt lat="41.6308840" lon="-8.7967370">
        <ele>101.9</ele>
        <time>2021-05-17T12:43:11Z</time>
      </trkpt>
      <trkpt lat="41.6308910" lon="-8.7967420">
        <ele>101.9</ele>
        <time>2021-05-17T12:43:12Z</time>
      </trkpt>
      <trkpt lat="41.6309070" lon="-8.7967420">
        <ele>101.8</ele>
        <time>2021-05-17T12:43:13Z</time>
      </trkpt>
      <trkpt lat="41.6309190" lon="-8.7967450">
        <ele>101.8</ele>
        <time>2021-05-17T12:43:14Z</time>
      </trkpt>
      <trkpt lat="41.6309380" lon="-8.7967500">
        <ele>101.7</ele>
        <time>2021-05-17T12:43:15Z</time>
      </trkpt>
      <trkpt lat="41.6309470" lon="-8.7967490">
        <ele>101.7</ele>
        <time>2021-05-17T12:43:16Z</time>
      </trkpt>
      <trkpt lat="41.6309620" lon="-8.7967520">
        <ele>101.6</ele>
        <time>2021-05-17T12:43:17Z</time>
      </trkpt>
      <trkpt lat="41.6309780" lon="-8.7967620">
        <ele>101.5</ele>
        <time>2021-05-17T12:43:18Z</time>
      </trkpt>
      <trkpt lat="41.6309920" lon="-8.7967540">
        <ele>101.4</ele>
        <time>2021-05-17T12:43:19Z</time>
      </trkpt>
      <trkpt lat="41.6310100" lon="-8.7967570">
        <ele>101.3</ele>
        <time>2021-05-17T12:43:20Z</time>
      </trkpt>
      <trkpt lat="41.6310270" lon="-8.7967560">
        <ele>101.2</ele>
        <time>2021-05-17T12:43:21Z</time>
      </trkpt>
      <trkpt lat="41.6310380" lon="-8.7967570">
        <ele>101.1</ele>
        <time>2021-05-17T12:43:22Z</time>
      </trkpt>
      <trkpt lat="41.6310510" lon="-8.7967520">
        <ele>101.0</ele>
        <time>2021-05-17T12:43:23Z</time>
      </trkpt>
      <trkpt lat="41.6310570" lon="-8.7967540">
        <ele>101.0</ele>
        <time>2021-05-17T12:43:24Z</time>
      </trkpt>
      <trkpt lat="41.6310720" lon="-8.7967510">
        <ele>100.9</ele>
        <time>2021-05-17T12:43:25Z</time>
      </trkpt>
      <trkpt lat="41.6310780" lon="-8.7967540">
        <ele>100.8</ele>
        <time>2021-05-17T12:43:26Z</time>
      </trkpt>
      <trkpt lat="41.6310910" lon="-8.7967570">
        <ele>100.7</ele>
        <time>2021-05-17T12:43:27Z</time>
      </trkpt>
      <trkpt lat="41.6311080" lon="-8.7967630">
        <ele>100.6</ele>
        <time>2021-05-17T12:43:28Z</time>
      </trkpt>
      <trkpt lat="41.6311230" lon="-8.7967490">
        <ele>100.4</ele>
        <time>2021-05-17T12:43:29Z</time>
      </trkpt>
      <trkpt lat="41.6311390" lon="-8.7967520">
        <ele>100.3</ele>
        <time>2021-05-17T12:43:30Z</time>
      </trkpt>
      <trkpt lat="41.6311450" lon="-8.7967610">
        <ele>100.3</ele>
        <time>2021-05-17T12:43:31Z</time>
      </trkpt>
      <trkpt lat="41.6311620" lon="-8.7967690">
        <ele>100.1</ele>
        <time>2021-05-17T12:43:32Z</time>
      </trkpt>
      <trkpt lat="41.6311730" lon="-8.7967630">
        <ele>100.0</ele>
        <time>2021-05-17T12:43:33Z</time>
      </trkpt>
      <trkpt lat="41.6311800" lon="-8.7967720">
        <ele>100.0</ele>
        <time>2021-05-17T12:43:34Z</time>
      </trkpt>
      <trkpt lat="41.6311870" lon="-8.7967760">
        <ele>99.9</ele>
        <time>2021-05-17T12:43:35Z</time>
      </trkpt>
      <trkpt lat="41.6311980" lon="-8.7967810">
        <ele>99.8</ele>
        <time>2021-05-17T12:43:36Z</time>
      </trkpt>
      <trkpt lat="41.6312090" lon="-8.7967840">
        <ele>99.7</ele>
        <time>2021-05-17T12:43:37Z</time>
      </trkpt>
      <trkpt lat="41.6312180" lon="-8.7967890">
        <ele>99.7</ele>
        <time>2021-05-17T12:43:38Z</time>
      </trkpt>
      <trkpt lat="41.6312300" lon="-8.7967940">
        <ele>99.6</ele>
        <time>2021-05-17T12:43:39Z</time>
      </trkpt>
      <trkpt lat="41.6312430" lon="-8.7968040">
        <ele>99.5</ele>
        <time>2021-05-17T12:43:40Z</time>
      </trkpt>
      <trkpt lat="41.6312580" lon="-8.7968070">
        <ele>99.4</ele>
        <time>2021-05-17T12:43:41Z</time>
      </trkpt>
      <trkpt lat="41.6312700" lon="-8.7968150">
        <ele>99.3</ele>
        <time>2021-05-17T12:43:42Z</time>
      </trkpt>
      <trkpt lat="41.6312890" lon="-8.7968180">
        <ele>99.2</ele>
        <time>2021-05-17T12:43:43Z</time>
      </trkpt>
      <trkpt lat="41.6313020" lon="-8.7968250">
        <ele>99.2</ele>
        <time>2021-05-17T12:43:44Z</time>
      </trkpt>
      <trkpt lat="41.6313170" lon="-8.7968290">
        <ele>99.1</ele>
        <time>2021-05-17T12:43:45Z</time>
      </trkpt>
      <trkpt lat="41.6313380" lon="-8.7968360">
        <ele>99.0</ele>
        <time>2021-05-17T12:43:46Z</time>
      </trkpt>
      <trkpt lat="41.6313470" lon="-8.7968370">
        <ele>99.0</ele>
        <time>2021-05-17T12:43:47Z</time>
      </trkpt>
      <trkpt lat="41.6313550" lon="-8.7968390">
        <ele>99.0</ele>
        <time>2021-05-17T12:43:48Z</time>
      </trkpt>
      <trkpt lat="41.6313660" lon="-8.7968400">
        <ele>99.1</ele>
        <time>2021-05-17T12:43:49Z</time>
      </trkpt>
      <trkpt lat="41.6313780" lon="-8.7968450">
        <ele>99.2</ele>
        <time>2021-05-17T12:43:50Z</time>
      </trkpt>
      <trkpt lat="41.6313890" lon="-8.7968550">
        <ele>99.3</ele>
        <time>2021-05-17T12:43:51Z</time>
      </trkpt>
      <trkpt lat="41.6314010" lon="-8.7968700">
        <ele>99.4</ele>
        <time>2021-05-17T12:43:52Z</time>
      </trkpt>
      <trkpt lat="41.6314070" lon="-8.7968740">
        <ele>99.4</ele>
        <time>2021-05-17T12:43:53Z</time>
      </trkpt>
      <trkpt lat="41.6314020" lon="-8.7968770">
        <ele>99.4</ele>
        <time>2021-05-17T12:43:54Z</time>
      </trkpt>
      <trkpt lat="41.6313920" lon="-8.7968740">
        <ele>99.5</ele>
        <time>2021-05-17T12:43:55Z</time>
      </trkpt>
      <trkpt lat="41.6313860" lon="-8.7968710">
        <ele>99.5</ele>
        <time>2021-05-17T12:43:56Z</time>
      </trkpt>
      <trkpt lat="41.6313840" lon="-8.7968710">
        <ele>99.5</ele>
        <time>2021-05-17T12:43:57Z</time>
      </trkpt>
      <trkpt lat="41.6313820" lon="-8.7968720">
        <ele>99.5</ele>
        <time>2021-05-17T12:43:58Z</time>
      </trkpt>
      <trkpt lat="41.6313830" lon="-8.7968770">
        <ele>99.6</ele>
        <time>2021-05-17T12:43:59Z</time>
      </trkpt>
      <trkpt lat="41.6313820" lon="-8.7968740">
        <ele>99.6</ele>
        <time>2021-05-17T12:44:00Z</time>
      </trkpt>
      <trkpt lat="41.6313820" lon="-8.7968760">
        <ele>99.6</ele>
        <time>2021-05-17T12:44:01Z</time>
      </trkpt>
      <trkpt lat="41.6313920" lon="-8.7968790">
        <ele>99.7</ele>
        <time>2021-05-17T12:44:02Z</time>
      </trkpt>
      <trkpt lat="41.6313990" lon="-8.7968820">
        <ele>99.7</ele>
        <time>2021-05-17T12:44:03Z</time>
      </trkpt>
      <trkpt lat="41.6314090" lon="-8.7968910">
        <ele>99.8</ele>
        <time>2021-05-17T12:44:04Z</time>
      </trkpt>
      <trkpt lat="41.6314180" lon="-8.7969000">
        <ele>99.8</ele>
        <time>2021-05-17T12:44:05Z</time>
      </trkpt>
      <trkpt lat="41.6314230" lon="-8.7969110">
        <ele>99.9</ele>
        <time>2021-05-17T12:44:06Z</time>
      </trkpt>
      <trkpt lat="41.6314390" lon="-8.7969170">
        <ele>100.0</ele>
        <time>2021-05-17T12:44:07Z</time>
      </trkpt>
      <trkpt lat="41.6314420" lon="-8.7969250">
        <ele>100.0</ele>
        <time>2021-05-17T12:44:08Z</time>
      </trkpt>
      <trkpt lat="41.6314520" lon="-8.7969310">
        <ele>100.1</ele>
        <time>2021-05-17T12:44:09Z</time>
      </trkpt>
      <trkpt lat="41.6314690" lon="-8.7969420">
        <ele>100.2</ele>
        <time>2021-05-17T12:44:10Z</time>
      </trkpt>
      <trkpt lat="41.6314830" lon="-8.7969540">
        <ele>100.3</ele>
        <time>2021-05-17T12:44:11Z</time>
      </trkpt>
      <trkpt lat="41.6314940" lon="-8.7969570">
        <ele>100.4</ele>
        <time>2021-05-17T12:44:12Z</time>
      </trkpt>
      <trkpt lat="41.6315060" lon="-8.7969660">
        <ele>100.4</ele>
        <time>2021-05-17T12:44:13Z</time>
      </trkpt>
      <trkpt lat="41.6315140" lon="-8.7969650">
        <ele>100.4</ele>
        <time>2021-05-17T12:44:14Z</time>
      </trkpt>
      <trkpt lat="41.6315240" lon="-8.7969480">
        <ele>100.5</ele>
        <time>2021-05-17T12:44:15Z</time>
      </trkpt>
      <trkpt lat="41.6315460" lon="-8.7969430">
        <ele>100.5</ele>
        <time>2021-05-17T12:44:16Z</time>
      </trkpt>
      <trkpt lat="41.6315590" lon="-8.7969400">
        <ele>100.6</ele>
        <time>2021-05-17T12:44:17Z</time>
      </trkpt>
      <trkpt lat="41.6315720" lon="-8.7969360">
        <ele>100.6</ele>
        <time>2021-05-17T12:44:18Z</time>
      </trkpt>
      <trkpt lat="41.6315850" lon="-8.7969220">
        <ele>100.7</ele>
        <time>2021-05-17T12:44:19Z</time>
      </trkpt>
      <trkpt lat="41.6315960" lon="-8.7969170">
        <ele>100.7</ele>
        <time>2021-05-17T12:44:20Z</time>
      </trkpt>
      <trkpt lat="41.6316070" lon="-8.7969130">
        <ele>100.7</ele>
        <time>2021-05-17T12:44:21Z</time>
      </trkpt>
      <trkpt lat="41.6316320" lon="-8.7969060">
        <ele>100.8</ele>
        <time>2021-05-17T12:44:22Z</time>
      </trkpt>
      <trkpt lat="41.6316380" lon="-8.7969060">
        <ele>100.8</ele>
        <time>2021-05-17T12:44:23Z</time>
      </trkpt>
      <trkpt lat="41.6316450" lon="-8.7969050">
        <ele>100.9</ele>
        <time>2021-05-17T12:44:24Z</time>
      </trkpt>
      <trkpt lat="41.6316620" lon="-8.7968980">
        <ele>100.9</ele>
        <time>2021-05-17T12:44:25Z</time>
      </trkpt>
      <trkpt lat="41.6316710" lon="-8.7968930">
        <ele>100.9</ele>
        <time>2021-05-17T12:44:26Z</time>
      </trkpt>
      <trkpt lat="41.6316810" lon="-8.7968890">
        <ele>101.0</ele>
        <time>2021-05-17T12:44:27Z</time>
      </trkpt>
      <trkpt lat="41.6316950" lon="-8.7968890">
        <ele>101.0</ele>
        <time>2021-05-17T12:44:28Z</time>
      </trkpt>
      <trkpt lat="41.6317040" lon="-8.7968850">
        <ele>101.0</ele>
        <time>2021-05-17T12:44:29Z</time>
      </trkpt>
      <trkpt lat="41.6317150" lon="-8.7968880">
        <ele>101.1</ele>
        <time>2021-05-17T12:44:30Z</time>
      </trkpt>
      <trkpt lat="41.6317370" lon="-8.7968740">
        <ele>101.2</ele>
        <time>2021-05-17T12:44:31Z</time>
      </trkpt>
      <trkpt lat="41.6317460" lon="-8.7968660">
        <ele>101.2</ele>
        <time>2021-05-17T12:44:32Z</time>
      </trkpt>
      <trkpt lat="41.6317550" lon="-8.7968580">
        <ele>101.3</ele>
        <time>2021-05-17T12:44:33Z</time>
      </trkpt>
      <trkpt lat="41.6317650" lon="-8.7968460">
        <ele>101.3</ele>
        <time>2021-05-17T12:44:34Z</time>
      </trkpt>
      <trkpt lat="41.6317810" lon="-8.7968320">
        <ele>101.4</ele>
        <time>2021-05-17T12:44:35Z</time>
      </trkpt>
      <trkpt lat="41.6317880" lon="-8.7968290">
        <ele>101.5</ele>
        <time>2021-05-17T12:44:36Z</time>
      </trkpt>
      <trkpt lat="41.6317970" lon="-8.7968220">
        <ele>101.5</ele>
        <time>2021-05-17T12:44:37Z</time>
      </trkpt>
      <trkpt lat="41.6318060" lon="-8.7968160">
        <ele>101.6</ele>
        <time>2021-05-17T12:44:38Z</time>
      </trkpt>
      <trkpt lat="41.6318190" lon="-8.7968030">
        <ele>101.7</ele>
        <time>2021-05-17T12:44:39Z</time>
      </trkpt>
      <trkpt lat="41.6318300" lon="-8.7967920">
        <ele>101.9</ele>
        <time>2021-05-17T12:44:40Z</time>
      </trkpt>
      <trkpt lat="41.6318480" lon="-8.7967870">
        <ele>102.3</ele>
        <time>2021-05-17T12:44:41Z</time>
      </trkpt>
      <trkpt lat="41.6318610" lon="-8.7967880">
        <ele>102.6</ele>
        <time>2021-05-17T12:44:42Z</time>
      </trkpt>
      <trkpt lat="41.6318770" lon="-8.7967760">
        <ele>103.0</ele>
        <time>2021-05-17T12:44:43Z</time>
      </trkpt>
      <trkpt lat="41.6318820" lon="-8.7967560">
        <ele>103.4</ele>
        <time>2021-05-17T12:44:44Z</time>
      </trkpt>
      <trkpt lat="41.6319030" lon="-8.7967500">
        <ele>103.9</ele>
        <time>2021-05-17T12:44:45Z</time>
      </trkpt>
      <trkpt lat="41.6319120" lon="-8.7967490">
        <ele>104.1</ele>
        <time>2021-05-17T12:44:46Z</time>
      </trkpt>
      <trkpt lat="41.6319210" lon="-8.7967470">
        <ele>104.3</ele>
        <time>2021-05-17T12:44:47Z</time>
      </trkpt>
      <trkpt lat="41.6319390" lon="-8.7967390">
        <ele>104.7</ele>
        <time>2021-05-17T12:44:48Z</time>
      </trkpt>
      <trkpt lat="41.6319420" lon="-8.7967400">
        <ele>104.7</ele>
        <time>2021-05-17T12:44:49Z</time>
      </trkpt>
      <trkpt lat="41.6319530" lon="-8.7967360">
        <ele>105.0</ele>
        <time>2021-05-17T12:44:50Z</time>
      </trkpt>
      <trkpt lat="41.6319720" lon="-8.7967220">
        <ele>105.4</ele>
        <time>2021-05-17T12:44:51Z</time>
      </trkpt>
      <trkpt lat="41.6319790" lon="-8.7967130">
        <ele>105.6</ele>
        <time>2021-05-17T12:44:52Z</time>
      </trkpt>
      <trkpt lat="41.6319870" lon="-8.7967040">
        <ele>105.8</ele>
        <time>2021-05-17T12:44:53Z</time>
      </trkpt>
      <trkpt lat="41.6320010" lon="-8.7966820">
        <ele>106.2</ele>
        <time>2021-05-17T12:44:54Z</time>
      </trkpt>
      <trkpt lat="41.6320070" lon="-8.7966730">
        <ele>106.4</ele>
        <time>2021-05-17T12:44:55Z</time>
      </trkpt>
      <trkpt lat="41.6320120" lon="-8.7966630">
        <ele>106.5</ele>
        <time>2021-05-17T12:44:56Z</time>
      </trkpt>
      <trkpt lat="41.6320110" lon="-8.7966650">
        <ele>106.6</ele>
        <time>2021-05-17T12:44:57Z</time>
      </trkpt>
      <trkpt lat="41.6320250" lon="-8.7966510">
        <ele>106.9</ele>
        <time>2021-05-17T12:44:58Z</time>
      </trkpt>
      <trkpt lat="41.6320390" lon="-8.7966330">
        <ele>107.2</ele>
        <time>2021-05-17T12:44:59Z</time>
      </trkpt>
      <trkpt lat="41.6320560" lon="-8.7966230">
        <ele>107.6</ele>
        <time>2021-05-17T12:45:00Z</time>
      </trkpt>
      <trkpt lat="41.6320640" lon="-8.7966140">
        <ele>107.7</ele>
        <time>2021-05-17T12:45:01Z</time>
      </trkpt>
      <trkpt lat="41.6320710" lon="-8.7966060">
        <ele>107.9</ele>
        <time>2021-05-17T12:45:02Z</time>
      </trkpt>
      <trkpt lat="41.6320810" lon="-8.7966090">
        <ele>108.0</ele>
        <time>2021-05-17T12:45:03Z</time>
      </trkpt>
      <trkpt lat="41.6320950" lon="-8.7966050">
        <ele>108.3</ele>
        <time>2021-05-17T12:45:04Z</time>
      </trkpt>
      <trkpt lat="41.6321020" lon="-8.7965990">
        <ele>108.4</ele>
        <time>2021-05-17T12:45:05Z</time>
      </trkpt>
      <trkpt lat="41.6321140" lon="-8.7965870">
        <ele>108.7</ele>
        <time>2021-05-17T12:45:06Z</time>
      </trkpt>
      <trkpt lat="41.6321210" lon="-8.7965840">
        <ele>108.8</ele>
        <time>2021-05-17T12:45:07Z</time>
      </trkpt>
      <trkpt lat="41.6321280" lon="-8.7965800">
        <ele>108.9</ele>
        <time>2021-05-17T12:45:08Z</time>
      </trkpt>
      <trkpt lat="41.6321350" lon="-8.7965760">
        <ele>109.0</ele>
        <time>2021-05-17T12:45:09Z</time>
      </trkpt>
      <trkpt lat="41.6321470" lon="-8.7965600">
        <ele>109.3</ele>
        <time>2021-05-17T12:45:10Z</time>
      </trkpt>
      <trkpt lat="41.6321610" lon="-8.7965540">
        <ele>109.6</ele>
        <time>2021-05-17T12:45:11Z</time>
      </trkpt>
      <trkpt lat="41.6321840" lon="-8.7965280">
        <ele>110.1</ele>
        <time>2021-05-17T12:45:12Z</time>
      </trkpt>
      <trkpt lat="41.6321910" lon="-8.7965180">
        <ele>110.2</ele>
        <time>2021-05-17T12:45:13Z</time>
      </trkpt>
      <trkpt lat="41.6322040" lon="-8.7965090">
        <ele>110.5</ele>
        <time>2021-05-17T12:45:14Z</time>
      </trkpt>
      <trkpt lat="41.6322090" lon="-8.7965110">
        <ele>110.6</ele>
        <time>2021-05-17T12:45:15Z</time>
      </trkpt>
      <trkpt lat="41.6322190" lon="-8.7965080">
        <ele>110.7</ele>
        <time>2021-05-17T12:45:16Z</time>
      </trkpt>
      <trkpt lat="41.6322310" lon="-8.7965050">
        <ele>111.0</ele>
        <time>2021-05-17T12:45:17Z</time>
      </trkpt>
      <trkpt lat="41.6322420" lon="-8.7964960">
        <ele>111.2</ele>
        <time>2021-05-17T12:45:18Z</time>
      </trkpt>
      <trkpt lat="41.6322470" lon="-8.7964990">
        <ele>111.3</ele>
        <time>2021-05-17T12:45:19Z</time>
      </trkpt>
      <trkpt lat="41.6322560" lon="-8.7965000">
        <ele>111.4</ele>
        <time>2021-05-17T12:45:20Z</time>
      </trkpt>
      <trkpt lat="41.6322670" lon="-8.7965030">
        <ele>111.6</ele>
        <time>2021-05-17T12:45:21Z</time>
      </trkpt>
      <trkpt lat="41.6322780" lon="-8.7964990">
        <ele>111.8</ele>
        <time>2021-05-17T12:45:22Z</time>
      </trkpt>
      <trkpt lat="41.6322960" lon="-8.7964830">
        <ele>112.2</ele>
        <time>2021-05-17T12:45:23Z</time>
      </trkpt>
      <trkpt lat="41.6323030" lon="-8.7964790">
        <ele>112.3</ele>
        <time>2021-05-17T12:45:24Z</time>
      </trkpt>
      <trkpt lat="41.6323110" lon="-8.7964750">
        <ele>112.5</ele>
        <time>2021-05-17T12:45:25Z</time>
      </trkpt>
      <trkpt lat="41.6323350" lon="-8.7964580">
        <ele>112.9</ele>
        <time>2021-05-17T12:45:26Z</time>
      </trkpt>
      <trkpt lat="41.6323410" lon="-8.7964450">
        <ele>113.1</ele>
        <time>2021-05-17T12:45:27Z</time>
      </trkpt>
      <trkpt lat="41.6323450" lon="-8.7964350">
        <ele>113.2</ele>
        <time>2021-05-17T12:45:28Z</time>
      </trkpt>
      <trkpt lat="41.6323490" lon="-8.7964250">
        <ele>113.4</ele>
        <time>2021-05-17T12:45:29Z</time>
      </trkpt>
      <trkpt lat="41.6323530" lon="-8.7964150">
        <ele>113.5</ele>
        <time>2021-05-17T12:45:30Z</time>
      </trkpt>
      <trkpt lat="41.6323640" lon="-8.7964060">
        <ele>113.7</ele>
        <time>2021-05-17T12:45:31Z</time>
      </trkpt>
      <trkpt lat="41.6323820" lon="-8.7963910">
        <ele>114.1</ele>
        <time>2021-05-17T12:45:32Z</time>
      </trkpt>
      <trkpt lat="41.6324020" lon="-8.7963830">
        <ele>114.4</ele>
        <time>2021-05-17T12:45:33Z</time>
      </trkpt>
      <trkpt lat="41.6324130" lon="-8.7963900">
        <ele>114.6</ele>
        <time>2021-05-17T12:45:34Z</time>
      </trkpt>
      <trkpt lat="41.6324290" lon="-8.7963800">
        <ele>114.9</ele>
        <time>2021-05-17T12:45:35Z</time>
      </trkpt>
      <trkpt lat="41.6324390" lon="-8.7963750">
        <ele>115.0</ele>
        <time>2021-05-17T12:45:36Z</time>
      </trkpt>
      <trkpt lat="41.6324480" lon="-8.7963690">
        <ele>115.2</ele>
        <time>2021-05-17T12:45:37Z</time>
      </trkpt>
      <trkpt lat="41.6324580" lon="-8.7963640">
        <ele>115.3</ele>
        <time>2021-05-17T12:45:38Z</time>
      </trkpt>
      <trkpt lat="41.6324700" lon="-8.7963550">
        <ele>115.5</ele>
        <time>2021-05-17T12:45:39Z</time>
      </trkpt>
      <trkpt lat="41.6324820" lon="-8.7963440">
        <ele>115.7</ele>
        <time>2021-05-17T12:45:40Z</time>
      </trkpt>
      <trkpt lat="41.6324850" lon="-8.7963330">
        <ele>115.9</ele>
        <time>2021-05-17T12:45:41Z</time>
      </trkpt>
      <trkpt lat="41.6325000" lon="-8.7963190">
        <ele>116.1</ele>
        <time>2021-05-17T12:45:42Z</time>
      </trkpt>
      <trkpt lat="41.6325010" lon="-8.7963160">
        <ele>116.2</ele>
        <time>2021-05-17T12:45:43Z</time>
      </trkpt>
      <trkpt lat="41.6325080" lon="-8.7963130">
        <ele>116.3</ele>
        <time>2021-05-17T12:45:44Z</time>
      </trkpt>
      <trkpt lat="41.6325290" lon="-8.7962990">
        <ele>116.6</ele>
        <time>2021-05-17T12:45:45Z</time>
      </trkpt>
      <trkpt lat="41.6325350" lon="-8.7962930">
        <ele>116.7</ele>
        <time>2021-05-17T12:45:46Z</time>
      </trkpt>
      <trkpt lat="41.6325490" lon="-8.7962840">
        <ele>116.9</ele>
        <time>2021-05-17T12:45:47Z</time>
      </trkpt>
      <trkpt lat="41.6325460" lon="-8.7962820">
        <ele>116.9</ele>
        <time>2021-05-17T12:45:48Z</time>
      </trkpt>
      <trkpt lat="41.6325550" lon="-8.7962770">
        <ele>117.0</ele>
        <time>2021-05-17T12:45:49Z</time>
      </trkpt>
      <trkpt lat="41.6325700" lon="-8.7962640">
        <ele>117.3</ele>
        <time>2021-05-17T12:45:50Z</time>
      </trkpt>
      <trkpt lat="41.6325760" lon="-8.7962530">
        <ele>117.4</ele>
        <time>2021-05-17T12:45:51Z</time>
      </trkpt>
      <trkpt lat="41.6325830" lon="-8.7962430">
        <ele>117.5</ele>
        <time>2021-05-17T12:45:52Z</time>
      </trkpt>
      <trkpt lat="41.6325860" lon="-8.7962230">
        <ele>117.7</ele>
        <time>2021-05-17T12:45:53Z</time>
      </trkpt>
      <trkpt lat="41.6325990" lon="-8.7962030">
        <ele>117.9</ele>
        <time>2021-05-17T12:45:54Z</time>
      </trkpt>
      <trkpt lat="41.6326000" lon="-8.7962040">
        <ele>117.9</ele>
        <time>2021-05-17T12:45:55Z</time>
      </trkpt>
      <trkpt lat="41.6326000" lon="-8.7961980">
        <ele>118.0</ele>
        <time>2021-05-17T12:45:56Z</time>
      </trkpt>
      <trkpt lat="41.6326040" lon="-8.7961840">
        <ele>118.1</ele>
        <time>2021-05-17T12:45:57Z</time>
      </trkpt>
      <trkpt lat="41.6326050" lon="-8.7961730">
        <ele>118.2</ele>
        <time>2021-05-17T12:45:58Z</time>
      </trkpt>
      <trkpt lat="41.6326140" lon="-8.7961680">
        <ele>118.3</ele>
        <time>2021-05-17T12:45:59Z</time>
      </trkpt>
      <trkpt lat="41.6326190" lon="-8.7961400">
        <ele>118.5</ele>
        <time>2021-05-17T12:46:00Z</time>
      </trkpt>
      <trkpt lat="41.6326230" lon="-8.7961260">
        <ele>118.7</ele>
        <time>2021-05-17T12:46:01Z</time>
      </trkpt>
      <trkpt lat="41.6326220" lon="-8.7960940">
        <ele>118.9</ele>
        <time>2021-05-17T12:46:02Z</time>
      </trkpt>
      <trkpt lat="41.6326230" lon="-8.7960820">
        <ele>119.0</ele>
        <time>2021-05-17T12:46:03Z</time>
      </trkpt>
      <trkpt lat="41.6326240" lon="-8.7960710">
        <ele>119.1</ele>
        <time>2021-05-17T12:46:04Z</time>
      </trkpt>
      <trkpt lat="41.6326310" lon="-8.7960650">
        <ele>119.2</ele>
        <time>2021-05-17T12:46:05Z</time>
      </trkpt>
      <trkpt lat="41.6326370" lon="-8.7960520">
        <ele>119.3</ele>
        <time>2021-05-17T12:46:06Z</time>
      </trkpt>
      <trkpt lat="41.6326450" lon="-8.7960460">
        <ele>119.3</ele>
        <time>2021-05-17T12:46:07Z</time>
      </trkpt>
      <trkpt lat="41.6326510" lon="-8.7960390">
        <ele>119.4</ele>
        <time>2021-05-17T12:46:08Z</time>
      </trkpt>
      <trkpt lat="41.6326500" lon="-8.7960270">
        <ele>119.5</ele>
        <time>2021-05-17T12:46:09Z</time>
      </trkpt>
      <trkpt lat="41.6326520" lon="-8.7960070">
        <ele>119.6</ele>
        <time>2021-05-17T12:46:10Z</time>
      </trkpt>
      <trkpt lat="41.6326540" lon="-8.7959800">
        <ele>119.8</ele>
        <time>2021-05-17T12:46:11Z</time>
      </trkpt>
      <trkpt lat="41.6326540" lon="-8.7959590">
        <ele>120.0</ele>
        <time>2021-05-17T12:46:12Z</time>
      </trkpt>
      <trkpt lat="41.6326550" lon="-8.7959290">
        <ele>120.1</ele>
        <time>2021-05-17T12:46:13Z</time>
      </trkpt>
      <trkpt lat="41.6326530" lon="-8.7959180">
        <ele>120.2</ele>
        <time>2021-05-17T12:46:14Z</time>
      </trkpt>
      <trkpt lat="41.6326620" lon="-8.7958970">
        <ele>120.3</ele>
        <time>2021-05-17T12:46:15Z</time>
      </trkpt>
      <trkpt lat="41.6326670" lon="-8.7958860">
        <ele>120.4</ele>
        <time>2021-05-17T12:46:16Z</time>
      </trkpt>
      <trkpt lat="41.6326730" lon="-8.7958750">
        <ele>120.5</ele>
        <time>2021-05-17T12:46:17Z</time>
      </trkpt>
      <trkpt lat="41.6326760" lon="-8.7958560">
        <ele>120.6</ele>
        <time>2021-05-17T12:46:18Z</time>
      </trkpt>
      <trkpt lat="41.6326780" lon="-8.7958370">
        <ele>120.6</ele>
        <time>2021-05-17T12:46:19Z</time>
      </trkpt>
      <trkpt lat="41.6326780" lon="-8.7958180">
        <ele>120.7</ele>
        <time>2021-05-17T12:46:20Z</time>
      </trkpt>
      <trkpt lat="41.6326820" lon="-8.7957960">
        <ele>120.8</ele>
        <time>2021-05-17T12:46:21Z</time>
      </trkpt>
      <trkpt lat="41.6326900" lon="-8.7957830">
        <ele>120.8</ele>
        <time>2021-05-17T12:46:22Z</time>
      </trkpt>
      <trkpt lat="41.6326950" lon="-8.7957630">
        <ele>120.9</ele>
        <time>2021-05-17T12:46:23Z</time>
      </trkpt>
      <trkpt lat="41.6327100" lon="-8.7957420">
        <ele>120.9</ele>
        <time>2021-05-17T12:46:24Z</time>
      </trkpt>
      <trkpt lat="41.6327170" lon="-8.7957360">
        <ele>120.9</ele>
        <time>2021-05-17T12:46:25Z</time>
      </trkpt>
      <trkpt lat="41.6327230" lon="-8.7957290">
        <ele>120.9</ele>
        <time>2021-05-17T12:46:26Z</time>
      </trkpt>
      <trkpt lat="41.6327380" lon="-8.7957060">
        <ele>120.9</ele>
        <time>2021-05-17T12:46:27Z</time>
      </trkpt>
      <trkpt lat="41.6327430" lon="-8.7956950">
        <ele>120.9</ele>
        <time>2021-05-17T12:46:28Z</time>
      </trkpt>
      <trkpt lat="41.6327480" lon="-8.7956840">
        <ele>120.9</ele>
        <time>2021-05-17T12:46:29Z</time>
      </trkpt>
      <trkpt lat="41.6327570" lon="-8.7956720">
        <ele>120.9</ele>
        <time>2021-05-17T12:46:30Z</time>
      </trkpt>
      <trkpt lat="41.6327680" lon="-8.7956490">
        <ele>120.9</ele>
        <time>2021-05-17T12:46:31Z</time>
      </trkpt>
      <trkpt lat="41.6327760" lon="-8.7956340">
        <ele>120.9</ele>
        <time>2021-05-17T12:46:32Z</time>
      </trkpt>
      <trkpt lat="41.6327920" lon="-8.7956220">
        <ele>120.8</ele>
        <time>2021-05-17T12:46:33Z</time>
      </trkpt>
      <trkpt lat="41.6327930" lon="-8.7956130">
        <ele>120.8</ele>
        <time>2021-05-17T12:46:34Z</time>
      </trkpt>
      <trkpt lat="41.6327960" lon="-8.7955950">
        <ele>120.8</ele>
        <time>2021-05-17T12:46:35Z</time>
      </trkpt>
      <trkpt lat="41.6327960" lon="-8.7955850">
        <ele>120.8</ele>
        <time>2021-05-17T12:46:36Z</time>
      </trkpt>
      <trkpt lat="41.6328120" lon="-8.7955590">
        <ele>120.7</ele>
        <time>2021-05-17T12:46:37Z</time>
      </trkpt>
      <trkpt lat="41.6328170" lon="-8.7955520">
        <ele>120.7</ele>
        <time>2021-05-17T12:46:38Z</time>
      </trkpt>
      <trkpt lat="41.6328220" lon="-8.7955440">
        <ele>120.7</ele>
        <time>2021-05-17T12:46:39Z</time>
      </trkpt>
      <trkpt lat="41.6328310" lon="-8.7955250">
        <ele>120.6</ele>
        <time>2021-05-17T12:46:40Z</time>
      </trkpt>
      <trkpt lat="41.6328380" lon="-8.7955100">
        <ele>120.6</ele>
        <time>2021-05-17T12:46:41Z</time>
      </trkpt>
      <trkpt lat="41.6328470" lon="-8.7954960">
        <ele>120.6</ele>
        <time>2021-05-17T12:46:42Z</time>
      </trkpt>
      <trkpt lat="41.6328520" lon="-8.7954850">
        <ele>120.5</ele>
        <time>2021-05-17T12:46:43Z</time>
      </trkpt>
      <trkpt lat="41.6328570" lon="-8.7954730">
        <ele>120.5</ele>
        <time>2021-05-17T12:46:44Z</time>
      </trkpt>
      <trkpt lat="41.6328620" lon="-8.7954610">
        <ele>120.4</ele>
        <time>2021-05-17T12:46:45Z</time>
      </trkpt>
      <trkpt lat="41.6328730" lon="-8.7954480">
        <ele>120.4</ele>
        <time>2021-05-17T12:46:46Z</time>
      </trkpt>
      <trkpt lat="41.6328930" lon="-8.7954420">
        <ele>120.3</ele>
        <time>2021-05-17T12:46:47Z</time>
      </trkpt>
      <trkpt lat="41.6329100" lon="-8.7954320">
        <ele>120.3</ele>
        <time>2021-05-17T12:46:48Z</time>
      </trkpt>
      <trkpt lat="41.6329240" lon="-8.7954310">
        <ele>120.2</ele>
        <time>2021-05-17T12:46:49Z</time>
      </trkpt>
      <trkpt lat="41.6329420" lon="-8.7954340">
        <ele>120.1</ele>
        <time>2021-05-17T12:46:50Z</time>
      </trkpt>
      <trkpt lat="41.6329490" lon="-8.7954280">
        <ele>120.1</ele>
        <time>2021-05-17T12:46:51Z</time>
      </trkpt>
      <trkpt lat="41.6329560" lon="-8.7954280">
        <ele>120.1</ele>
        <time>2021-05-17T12:46:52Z</time>
      </trkpt>
      <trkpt lat="41.6329730" lon="-8.7954120">
        <ele>120.0</ele>
        <time>2021-05-17T12:46:53Z</time>
      </trkpt>
      <trkpt lat="41.6329820" lon="-8.7954090">
        <ele>119.9</ele>
        <time>2021-05-17T12:46:54Z</time>
      </trkpt>
      <trkpt lat="41.6329910" lon="-8.7954050">
        <ele>119.9</ele>
        <time>2021-05-17T12:46:55Z</time>
      </trkpt>
      <trkpt lat="41.6330030" lon="-8.7953870">
        <ele>119.8</ele>
        <time>2021-05-17T12:46:56Z</time>
      </trkpt>
      <trkpt lat="41.6330160" lon="-8.7953760">
        <ele>119.8</ele>
        <time>2021-05-17T12:46:57Z</time>
      </trkpt>
      <trkpt lat="41.6330400" lon="-8.7953780">
        <ele>119.7</ele>
        <time>2021-05-17T12:46:58Z</time>
      </trkpt>
      <trkpt lat="41.6330470" lon="-8.7953740">
        <ele>119.6</ele>
        <time>2021-05-17T12:46:59Z</time>
      </trkpt>
      <trkpt lat="41.6330540" lon="-8.7953690">
        <ele>119.6</ele>
        <time>2021-05-17T12:47:00Z</time>
      </trkpt>
      <trkpt lat="41.6330660" lon="-8.7953590">
        <ele>119.5</ele>
        <time>2021-05-17T12:47:01Z</time>
      </trkpt>
      <trkpt lat="41.6330820" lon="-8.7953520">
        <ele>119.5</ele>
        <time>2021-05-17T12:47:02Z</time>
      </trkpt>
      <trkpt lat="41.6330920" lon="-8.7953540">
        <ele>119.4</ele>
        <time>2021-05-17T12:47:03Z</time>
      </trkpt>
      <trkpt lat="41.6331030" lon="-8.7953520">
        <ele>119.4</ele>
        <time>2021-05-17T12:47:04Z</time>
      </trkpt>
      <trkpt lat="41.6331000" lon="-8.7953420">
        <ele>119.4</ele>
        <time>2021-05-17T12:47:05Z</time>
      </trkpt>
      <trkpt lat="41.6331090" lon="-8.7953310">
        <ele>119.3</ele>
        <time>2021-05-17T12:47:06Z</time>
      </trkpt>
      <trkpt lat="41.6331170" lon="-8.7953240">
        <ele>119.3</ele>
        <time>2021-05-17T12:47:07Z</time>
      </trkpt>
      <trkpt lat="41.6331240" lon="-8.7953190">
        <ele>119.3</ele>
        <time>2021-05-17T12:47:08Z</time>
      </trkpt>
      <trkpt lat="41.6331380" lon="-8.7953230">
        <ele>119.2</ele>
        <time>2021-05-17T12:47:09Z</time>
      </trkpt>
      <trkpt lat="41.6331680" lon="-8.7953000">
        <ele>119.1</ele>
        <time>2021-05-17T12:47:10Z</time>
      </trkpt>
      <trkpt lat="41.6331750" lon="-8.7952950">
        <ele>119.1</ele>
        <time>2021-05-17T12:47:11Z</time>
      </trkpt>
      <trkpt lat="41.6331960" lon="-8.7952910">
        <ele>119.1</ele>
        <time>2021-05-17T12:47:12Z</time>
      </trkpt>
      <trkpt lat="41.6332040" lon="-8.7952850">
        <ele>119.1</ele>
        <time>2021-05-17T12:47:13Z</time>
      </trkpt>
      <trkpt lat="41.6332120" lon="-8.7952800">
        <ele>119.1</ele>
        <time>2021-05-17T12:47:14Z</time>
      </trkpt>
      <trkpt lat="41.6332340" lon="-8.7952640">
        <ele>119.1</ele>
        <time>2021-05-17T12:47:15Z</time>
      </trkpt>
      <trkpt lat="41.6332450" lon="-8.7952550">
        <ele>119.1</ele>
        <time>2021-05-17T12:47:16Z</time>
      </trkpt>
      <trkpt lat="41.6332550" lon="-8.7952470">
        <ele>119.1</ele>
        <time>2021-05-17T12:47:17Z</time>
      </trkpt>
      <trkpt lat="41.6332600" lon="-8.7952350">
        <ele>119.1</ele>
        <time>2021-05-17T12:47:18Z</time>
      </trkpt>
      <trkpt lat="41.6332760" lon="-8.7952230">
        <ele>119.1</ele>
        <time>2021-05-17T12:47:19Z</time>
      </trkpt>
      <trkpt lat="41.6332920" lon="-8.7952090">
        <ele>119.1</ele>
        <time>2021-05-17T12:47:20Z</time>
      </trkpt>
      <trkpt lat="41.6333010" lon="-8.7952030">
        <ele>119.1</ele>
        <time>2021-05-17T12:47:21Z</time>
      </trkpt>
      <trkpt lat="41.6333280" lon="-8.7951820">
        <ele>119.2</ele>
        <time>2021-05-17T12:47:22Z</time>
      </trkpt>
      <trkpt lat="41.6333330" lon="-8.7951730">
        <ele>119.2</ele>
        <time>2021-05-17T12:47:23Z</time>
      </trkpt>
      <trkpt lat="41.6333440" lon="-8.7951660">
        <ele>119.2</ele>
        <time>2021-05-17T12:47:24Z</time>
      </trkpt>
      <trkpt lat="41.6333530" lon="-8.7951490">
        <ele>119.2</ele>
        <time>2021-05-17T12:47:25Z</time>
      </trkpt>
      <trkpt lat="41.6333520" lon="-8.7951350">
        <ele>119.3</ele>
        <time>2021-05-17T12:47:26Z</time>
      </trkpt>
      <trkpt lat="41.6333580" lon="-8.7951220">
        <ele>119.3</ele>
        <time>2021-05-17T12:47:27Z</time>
      </trkpt>
      <trkpt lat="41.6333610" lon="-8.7951080">
        <ele>119.3</ele>
        <time>2021-05-17T12:47:28Z</time>
      </trkpt>
      <trkpt lat="41.6333580" lon="-8.7951040">
        <ele>119.3</ele>
        <time>2021-05-17T12:47:29Z</time>
      </trkpt>
      <trkpt lat="41.6333570" lon="-8.7951000">
        <ele>119.3</ele>
        <time>2021-05-17T12:47:30Z</time>
      </trkpt>
      <trkpt lat="41.6333560" lon="-8.7950940">
        <ele>119.3</ele>
        <time>2021-05-17T12:47:31Z</time>
      </trkpt>
      <trkpt lat="41.6333650" lon="-8.7950910">
        <ele>119.3</ele>
        <time>2021-05-17T12:47:32Z</time>
      </trkpt>
      <trkpt lat="41.6333820" lon="-8.7950840">
        <ele>119.4</ele>
        <time>2021-05-17T12:47:33Z</time>
      </trkpt>
      <trkpt lat="41.6333780" lon="-8.7950700">
        <ele>119.4</ele>
        <time>2021-05-17T12:47:34Z</time>
      </trkpt>
      <trkpt lat="41.6333900" lon="-8.7950550">
        <ele>119.5</ele>
        <time>2021-05-17T12:47:35Z</time>
      </trkpt>
      <trkpt lat="41.6333970" lon="-8.7950390">
        <ele>119.5</ele>
        <time>2021-05-17T12:47:36Z</time>
      </trkpt>
      <trkpt lat="41.6334100" lon="-8.7950300">
        <ele>119.6</ele>
        <time>2021-05-17T12:47:37Z</time>
      </trkpt>
      <trkpt lat="41.6334240" lon="-8.7950150">
        <ele>119.6</ele>
        <time>2021-05-17T12:47:38Z</time>
      </trkpt>
      <trkpt lat="41.6334390" lon="-8.7949970">
        <ele>119.7</ele>
        <time>2021-05-17T12:47:39Z</time>
      </trkpt>
      <trkpt lat="41.6334460" lon="-8.7949880">
        <ele>119.7</ele>
        <time>2021-05-17T12:47:40Z</time>
      </trkpt>
      <trkpt lat="41.6334530" lon="-8.7949790">
        <ele>119.8</ele>
        <time>2021-05-17T12:47:41Z</time>
      </trkpt>
      <trkpt lat="41.6334610" lon="-8.7949520">
        <ele>119.8</ele>
        <time>2021-05-17T12:47:42Z</time>
      </trkpt>
      <trkpt lat="41.6334610" lon="-8.7949390">
        <ele>119.9</ele>
        <time>2021-05-17T12:47:43Z</time>
      </trkpt>
      <trkpt lat="41.6334610" lon="-8.7949270">
        <ele>119.9</ele>
        <time>2021-05-17T12:47:44Z</time>
      </trkpt>
      <trkpt lat="41.6334600" lon="-8.7949130">
        <ele>119.9</ele>
        <time>2021-05-17T12:47:45Z</time>
      </trkpt>
      <trkpt lat="41.6334620" lon="-8.7948960">
        <ele>120.0</ele>
        <time>2021-05-17T12:47:46Z</time>
      </trkpt>
      <trkpt lat="41.6334690" lon="-8.7948810">
        <ele>120.0</ele>
        <time>2021-05-17T12:47:47Z</time>
      </trkpt>
      <trkpt lat="41.6334760" lon="-8.7948390">
        <ele>120.1</ele>
        <time>2021-05-17T12:47:48Z</time>
      </trkpt>
      <trkpt lat="41.6334800" lon="-8.7948230">
        <ele>120.2</ele>
        <time>2021-05-17T12:47:49Z</time>
      </trkpt>
      <trkpt lat="41.6334790" lon="-8.7948080">
        <ele>120.2</ele>
        <time>2021-05-17T12:47:50Z</time>
      </trkpt>
      <trkpt lat="41.6334800" lon="-8.7947970">
        <ele>120.3</ele>
        <time>2021-05-17T12:47:51Z</time>
      </trkpt>
      <trkpt lat="41.6334800" lon="-8.7947860">
        <ele>120.3</ele>
        <time>2021-05-17T12:47:52Z</time>
      </trkpt>
      <trkpt lat="41.6334800" lon="-8.7947750">
        <ele>120.4</ele>
        <time>2021-05-17T12:47:53Z</time>
      </trkpt>
      <trkpt lat="41.6334880" lon="-8.7947440">
        <ele>120.5</ele>
        <time>2021-05-17T12:47:54Z</time>
      </trkpt>
      <trkpt lat="41.6334890" lon="-8.7947320">
        <ele>120.5</ele>
        <time>2021-05-17T12:47:55Z</time>
      </trkpt>
      <trkpt lat="41.6334910" lon="-8.7947210">
        <ele>120.5</ele>
        <time>2021-05-17T12:47:56Z</time>
      </trkpt>
      <trkpt lat="41.6334990" lon="-8.7946900">
        <ele>120.6</ele>
        <time>2021-05-17T12:47:57Z</time>
      </trkpt>
      <trkpt lat="41.6335010" lon="-8.7946830">
        <ele>120.7</ele>
        <time>2021-05-17T12:47:58Z</time>
      </trkpt>
      <trkpt lat="41.6335020" lon="-8.7946750">
        <ele>120.7</ele>
        <time>2021-05-17T12:47:59Z</time>
      </trkpt>
      <trkpt lat="41.6335000" lon="-8.7946490">
        <ele>120.8</ele>
        <time>2021-05-17T12:48:00Z</time>
      </trkpt>
      <trkpt lat="41.6335030" lon="-8.7946330">
        <ele>120.9</ele>
        <time>2021-05-17T12:48:01Z</time>
      </trkpt>
      <trkpt lat="41.6335020" lon="-8.7946170">
        <ele>120.9</ele>
        <time>2021-05-17T12:48:02Z</time>
      </trkpt>
      <trkpt lat="41.6335050" lon="-8.7945930">
        <ele>121.0</ele>
        <time>2021-05-17T12:48:03Z</time>
      </trkpt>
      <trkpt lat="41.6335110" lon="-8.7945550">
        <ele>121.2</ele>
        <time>2021-05-17T12:48:04Z</time>
      </trkpt>
      <trkpt lat="41.6335120" lon="-8.7945400">
        <ele>121.2</ele>
        <time>2021-05-17T12:48:05Z</time>
      </trkpt>
      <trkpt lat="41.6335210" lon="-8.7945160">
        <ele>121.3</ele>
        <time>2021-05-17T12:48:06Z</time>
      </trkpt>
      <trkpt lat="41.6335240" lon="-8.7944940">
        <ele>121.4</ele>
        <time>2021-05-17T12:48:07Z</time>
      </trkpt>
      <trkpt lat="41.6335290" lon="-8.7944730">
        <ele>121.5</ele>
        <time>2021-05-17T12:48:08Z</time>
      </trkpt>
      <trkpt lat="41.6335300" lon="-8.7944510">
        <ele>121.7</ele>
        <time>2021-05-17T12:48:09Z</time>
      </trkpt>
      <trkpt lat="41.6335290" lon="-8.7944320">
        <ele>121.7</ele>
        <time>2021-05-17T12:48:10Z</time>
      </trkpt>
      <trkpt lat="41.6335330" lon="-8.7944250">
        <ele>121.8</ele>
        <time>2021-05-17T12:48:11Z</time>
      </trkpt>
      <trkpt lat="41.6335270" lon="-8.7944110">
        <ele>121.9</ele>
        <time>2021-05-17T12:48:12Z</time>
      </trkpt>
      <trkpt lat="41.6335340" lon="-8.7943910">
        <ele>122.0</ele>
        <time>2021-05-17T12:48:13Z</time>
      </trkpt>
      <trkpt lat="41.6335320" lon="-8.7943730">
        <ele>122.1</ele>
        <time>2021-05-17T12:48:14Z</time>
      </trkpt>
      <trkpt lat="41.6335260" lon="-8.7943680">
        <ele>122.2</ele>
        <time>2021-05-17T12:48:15Z</time>
      </trkpt>
      <trkpt lat="41.6335230" lon="-8.7943540">
        <ele>122.3</ele>
        <time>2021-05-17T12:48:16Z</time>
      </trkpt>
      <trkpt lat="41.6335270" lon="-8.7943360">
        <ele>122.4</ele>
        <time>2021-05-17T12:48:17Z</time>
      </trkpt>
      <trkpt lat="41.6335260" lon="-8.7943200">
        <ele>122.5</ele>
        <time>2021-05-17T12:48:18Z</time>
      </trkpt>
      <trkpt lat="41.6335240" lon="-8.7942970">
        <ele>122.7</ele>
        <time>2021-05-17T12:48:19Z</time>
      </trkpt>
      <trkpt lat="41.6335220" lon="-8.7942770">
        <ele>122.8</ele>
        <time>2021-05-17T12:48:20Z</time>
      </trkpt>
      <trkpt lat="41.6335180" lon="-8.7942550">
        <ele>123.0</ele>
        <time>2021-05-17T12:48:21Z</time>
      </trkpt>
      <trkpt lat="41.6335110" lon="-8.7942330">
        <ele>123.1</ele>
        <time>2021-05-17T12:48:22Z</time>
      </trkpt>
      <trkpt lat="41.6335020" lon="-8.7942250">
        <ele>123.3</ele>
        <time>2021-05-17T12:48:23Z</time>
      </trkpt>
      <trkpt lat="41.6334910" lon="-8.7942030">
        <ele>123.5</ele>
        <time>2021-05-17T12:48:24Z</time>
      </trkpt>
      <trkpt lat="41.6334830" lon="-8.7941940">
        <ele>123.6</ele>
        <time>2021-05-17T12:48:25Z</time>
      </trkpt>
      <trkpt lat="41.6334760" lon="-8.7941850">
        <ele>123.7</ele>
        <time>2021-05-17T12:48:26Z</time>
      </trkpt>
      <trkpt lat="41.6334680" lon="-8.7941450">
        <ele>124.1</ele>
        <time>2021-05-17T12:48:27Z</time>
      </trkpt>
      <trkpt lat="41.6334650" lon="-8.7941340">
        <ele>124.2</ele>
        <time>2021-05-17T12:48:28Z</time>
      </trkpt>
      <trkpt lat="41.6334580" lon="-8.7941120">
        <ele>124.4</ele>
        <time>2021-05-17T12:48:29Z</time>
      </trkpt>
      <trkpt lat="41.6334470" lon="-8.7940920">
        <ele>124.6</ele>
        <time>2021-05-17T12:48:30Z</time>
      </trkpt>
      <trkpt lat="41.6334290" lon="-8.7940610">
        <ele>125.0</ele>
        <time>2021-05-17T12:48:31Z</time>
      </trkpt>
      <trkpt lat="41.6334220" lon="-8.7940520">
        <ele>125.1</ele>
        <time>2021-05-17T12:48:32Z</time>
      </trkpt>
      <trkpt lat="41.6334170" lon="-8.7940310">
        <ele>125.3</ele>
        <time>2021-05-17T12:48:33Z</time>
      </trkpt>
      <trkpt lat="41.6334100" lon="-8.7940130">
        <ele>125.5</ele>
        <time>2021-05-17T12:48:34Z</time>
      </trkpt>
      <trkpt lat="41.6334030" lon="-8.7939830">
        <ele>125.8</ele>
        <time>2021-05-17T12:48:35Z</time>
      </trkpt>
      <trkpt lat="41.6333970" lon="-8.7939690">
        <ele>125.9</ele>
        <time>2021-05-17T12:48:36Z</time>
      </trkpt>
      <trkpt lat="41.6333920" lon="-8.7939560">
        <ele>126.0</ele>
        <time>2021-05-17T12:48:37Z</time>
      </trkpt>
      <trkpt lat="41.6333940" lon="-8.7939470">
        <ele>126.1</ele>
        <time>2021-05-17T12:48:38Z</time>
      </trkpt>
      <trkpt lat="41.6333970" lon="-8.7939240">
        <ele>127.2</ele>
        <time>2021-05-17T12:48:39Z</time>
      </trkpt>
      <trkpt lat="41.6333970" lon="-8.7939210">
        <ele>127.2</ele>
        <time>2021-05-17T12:48:40Z</time>
      </trkpt>
      <trkpt lat="41.6333950" lon="-8.7938960">
        <ele>127.2</ele>
        <time>2021-05-17T12:48:41Z</time>
      </trkpt>
      <trkpt lat="41.6333910" lon="-8.7938820">
        <ele>127.3</ele>
        <time>2021-05-17T12:48:42Z</time>
      </trkpt>
      <trkpt lat="41.6333970" lon="-8.7938550">
        <ele>127.4</ele>
        <time>2021-05-17T12:48:43Z</time>
      </trkpt>
      <trkpt lat="41.6333970" lon="-8.7938440">
        <ele>127.4</ele>
        <time>2021-05-17T12:48:44Z</time>
      </trkpt>
      <trkpt lat="41.6333980" lon="-8.7938340">
        <ele>127.4</ele>
        <time>2021-05-17T12:48:45Z</time>
      </trkpt>
      <trkpt lat="41.6333960" lon="-8.7938210">
        <ele>127.5</ele>
        <time>2021-05-17T12:48:46Z</time>
      </trkpt>
      <trkpt lat="41.6333970" lon="-8.7938050">
        <ele>127.5</ele>
        <time>2021-05-17T12:48:47Z</time>
      </trkpt>
      <trkpt lat="41.6333940" lon="-8.7937950">
        <ele>127.6</ele>
        <time>2021-05-17T12:48:48Z</time>
      </trkpt>
      <trkpt lat="41.6333970" lon="-8.7937700">
        <ele>127.7</ele>
        <time>2021-05-17T12:48:49Z</time>
      </trkpt>
      <trkpt lat="41.6334030" lon="-8.7937560">
        <ele>127.7</ele>
        <time>2021-05-17T12:48:50Z</time>
      </trkpt>
      <trkpt lat="41.6334180" lon="-8.7937360">
        <ele>127.8</ele>
        <time>2021-05-17T12:48:51Z</time>
      </trkpt>
      <trkpt lat="41.6334250" lon="-8.7937270">
        <ele>127.9</ele>
        <time>2021-05-17T12:48:52Z</time>
      </trkpt>
      <trkpt lat="41.6334320" lon="-8.7937180">
        <ele>127.9</ele>
        <time>2021-05-17T12:48:53Z</time>
      </trkpt>
      <trkpt lat="41.6334450" lon="-8.7937180">
        <ele>128.0</ele>
        <time>2021-05-17T12:48:54Z</time>
      </trkpt>
      <trkpt lat="41.6334480" lon="-8.7937050">
        <ele>128.0</ele>
        <time>2021-05-17T12:48:55Z</time>
      </trkpt>
      <trkpt lat="41.6334520" lon="-8.7936930">
        <ele>128.1</ele>
        <time>2021-05-17T12:48:56Z</time>
      </trkpt>
      <trkpt lat="41.6334600" lon="-8.7936760">
        <ele>128.1</ele>
        <time>2021-05-17T12:48:57Z</time>
      </trkpt>
      <trkpt lat="41.6334580" lon="-8.7936680">
        <ele>128.1</ele>
        <time>2021-05-17T12:48:58Z</time>
      </trkpt>
      <trkpt lat="41.6334630" lon="-8.7936530">
        <ele>128.2</ele>
        <time>2021-05-17T12:48:59Z</time>
      </trkpt>
      <trkpt lat="41.6334690" lon="-8.7936290">
        <ele>128.3</ele>
        <time>2021-05-17T12:49:00Z</time>
      </trkpt>
      <trkpt lat="41.6334720" lon="-8.7936180">
        <ele>128.3</ele>
        <time>2021-05-17T12:49:01Z</time>
      </trkpt>
      <trkpt lat="41.6334750" lon="-8.7936070">
        <ele>128.3</ele>
        <time>2021-05-17T12:49:02Z</time>
      </trkpt>
      <trkpt lat="41.6334860" lon="-8.7935800">
        <ele>128.4</ele>
        <time>2021-05-17T12:49:03Z</time>
      </trkpt>
      <trkpt lat="41.6334930" lon="-8.7935680">
        <ele>128.4</ele>
        <time>2021-05-17T12:49:04Z</time>
      </trkpt>
      <trkpt lat="41.6335000" lon="-8.7935560">
        <ele>128.4</ele>
        <time>2021-05-17T12:49:05Z</time>
      </trkpt>
      <trkpt lat="41.6335080" lon="-8.7935310">
        <ele>128.4</ele>
        <time>2021-05-17T12:49:06Z</time>
      </trkpt>
      <trkpt lat="41.6335170" lon="-8.7935210">
        <ele>128.4</ele>
        <time>2021-05-17T12:49:07Z</time>
      </trkpt>
      <trkpt lat="41.6335260" lon="-8.7935110">
        <ele>128.3</ele>
        <time>2021-05-17T12:49:08Z</time>
      </trkpt>
      <trkpt lat="41.6335440" lon="-8.7934940">
        <ele>128.3</ele>
        <time>2021-05-17T12:49:09Z</time>
      </trkpt>
      <trkpt lat="41.6335530" lon="-8.7934920">
        <ele>128.3</ele>
        <time>2021-05-17T12:49:10Z</time>
      </trkpt>
      <trkpt lat="41.6335620" lon="-8.7934890">
        <ele>128.2</ele>
        <time>2021-05-17T12:49:11Z</time>
      </trkpt>
      <trkpt lat="41.6335800" lon="-8.7934720">
        <ele>128.1</ele>
        <time>2021-05-17T12:49:12Z</time>
      </trkpt>
      <trkpt lat="41.6335850" lon="-8.7934660">
        <ele>128.1</ele>
        <time>2021-05-17T12:49:13Z</time>
      </trkpt>
      <trkpt lat="41.6335910" lon="-8.7934600">
        <ele>128.1</ele>
        <time>2021-05-17T12:49:14Z</time>
      </trkpt>
      <trkpt lat="41.6336090" lon="-8.7934550">
        <ele>127.9</ele>
        <time>2021-05-17T12:49:15Z</time>
      </trkpt>
      <trkpt lat="41.6336190" lon="-8.7934590">
        <ele>127.8</ele>
        <time>2021-05-17T12:49:16Z</time>
      </trkpt>
      <trkpt lat="41.6336310" lon="-8.7934610">
        <ele>127.8</ele>
        <time>2021-05-17T12:49:17Z</time>
      </trkpt>
      <trkpt lat="41.6336410" lon="-8.7934640">
        <ele>127.7</ele>
        <time>2021-05-17T12:49:18Z</time>
      </trkpt>
      <trkpt lat="41.6336530" lon="-8.7934660">
        <ele>127.6</ele>
        <time>2021-05-17T12:49:19Z</time>
      </trkpt>
      <trkpt lat="41.6336720" lon="-8.7934700">
        <ele>127.4</ele>
        <time>2021-05-17T12:49:20Z</time>
      </trkpt>
      <trkpt lat="41.6336810" lon="-8.7934690">
        <ele>127.3</ele>
        <time>2021-05-17T12:49:21Z</time>
      </trkpt>
      <trkpt lat="41.6336900" lon="-8.7934680">
        <ele>127.2</ele>
        <time>2021-05-17T12:49:22Z</time>
      </trkpt>
      <trkpt lat="41.6336990" lon="-8.7934700">
        <ele>127.1</ele>
        <time>2021-05-17T12:49:23Z</time>
      </trkpt>
      <trkpt lat="41.6337070" lon="-8.7934860">
        <ele>127.0</ele>
        <time>2021-05-17T12:49:24Z</time>
      </trkpt>
      <trkpt lat="41.6337130" lon="-8.7934920">
        <ele>126.9</ele>
        <time>2021-05-17T12:49:25Z</time>
      </trkpt>
      <trkpt lat="41.6337290" lon="-8.7934940">
        <ele>126.7</ele>
        <time>2021-05-17T12:49:26Z</time>
      </trkpt>
      <trkpt lat="41.6337370" lon="-8.7934950">
        <ele>126.6</ele>
        <time>2021-05-17T12:49:27Z</time>
      </trkpt>
      <trkpt lat="41.6337460" lon="-8.7934970">
        <ele>126.5</ele>
        <time>2021-05-17T12:49:28Z</time>
      </trkpt>
      <trkpt lat="41.6337540" lon="-8.7934980">
        <ele>126.4</ele>
        <time>2021-05-17T12:49:29Z</time>
      </trkpt>
      <trkpt lat="41.6337730" lon="-8.7934970">
        <ele>126.2</ele>
        <time>2021-05-17T12:49:30Z</time>
      </trkpt>
      <trkpt lat="41.6337820" lon="-8.7935020">
        <ele>126.1</ele>
        <time>2021-05-17T12:49:31Z</time>
      </trkpt>
      <trkpt lat="41.6337900" lon="-8.7935080">
        <ele>125.9</ele>
        <time>2021-05-17T12:49:32Z</time>
      </trkpt>
      <trkpt lat="41.6338110" lon="-8.7935180">
        <ele>125.6</ele>
        <time>2021-05-17T12:49:33Z</time>
      </trkpt>
      <trkpt lat="41.6338160" lon="-8.7935310">
        <ele>125.5</ele>
        <time>2021-05-17T12:49:34Z</time>
      </trkpt>
      <trkpt lat="41.6338390" lon="-8.7935430">
        <ele>125.1</ele>
        <time>2021-05-17T12:49:35Z</time>
      </trkpt>
      <trkpt lat="41.6338480" lon="-8.7935500">
        <ele>125.0</ele>
        <time>2021-05-17T12:49:36Z</time>
      </trkpt>
      <trkpt lat="41.6338560" lon="-8.7935570">
        <ele>124.8</ele>
        <time>2021-05-17T12:49:37Z</time>
      </trkpt>
      <trkpt lat="41.6338700" lon="-8.7935630">
        <ele>124.6</ele>
        <time>2021-05-17T12:49:38Z</time>
      </trkpt>
      <trkpt lat="41.6338860" lon="-8.7935710">
        <ele>124.4</ele>
        <time>2021-05-17T12:49:39Z</time>
      </trkpt>
      <trkpt lat="41.6338910" lon="-8.7935800">
        <ele>124.2</ele>
        <time>2021-05-17T12:49:40Z</time>
      </trkpt>
      <trkpt lat="41.6338980" lon="-8.7935870">
        <ele>124.1</ele>
        <time>2021-05-17T12:49:41Z</time>
      </trkpt>
      <trkpt lat="41.6339130" lon="-8.7935950">
        <ele>123.9</ele>
        <time>2021-05-17T12:49:42Z</time>
      </trkpt>
      <trkpt lat="41.6339250" lon="-8.7936050">
        <ele>123.7</ele>
        <time>2021-05-17T12:49:43Z</time>
      </trkpt>
      <trkpt lat="41.6339380" lon="-8.7936130">
        <ele>123.4</ele>
        <time>2021-05-17T12:49:44Z</time>
      </trkpt>
      <trkpt lat="41.6339590" lon="-8.7936210">
        <ele>123.1</ele>
        <time>2021-05-17T12:49:45Z</time>
      </trkpt>
      <trkpt lat="41.6339690" lon="-8.7936280">
        <ele>122.9</ele>
        <time>2021-05-17T12:49:46Z</time>
      </trkpt>
      <trkpt lat="41.6339800" lon="-8.7936340">
        <ele>122.8</ele>
        <time>2021-05-17T12:49:47Z</time>
      </trkpt>
      <trkpt lat="41.6339880" lon="-8.7936370">
        <ele>122.7</ele>
        <time>2021-05-17T12:49:48Z</time>
      </trkpt>
      <trkpt lat="41.6339970" lon="-8.7936380">
        <ele>122.5</ele>
        <time>2021-05-17T12:49:49Z</time>
      </trkpt>
      <trkpt lat="41.6340080" lon="-8.7936480">
        <ele>122.3</ele>
        <time>2021-05-17T12:49:50Z</time>
      </trkpt>
      <trkpt lat="41.6340260" lon="-8.7936450">
        <ele>122.1</ele>
        <time>2021-05-17T12:49:51Z</time>
      </trkpt>
      <trkpt lat="41.6340400" lon="-8.7936520">
        <ele>121.9</ele>
        <time>2021-05-17T12:49:52Z</time>
      </trkpt>
      <trkpt lat="41.6340520" lon="-8.7936600">
        <ele>121.7</ele>
        <time>2021-05-17T12:49:53Z</time>
      </trkpt>
      <trkpt lat="41.6340660" lon="-8.7936670">
        <ele>121.5</ele>
        <time>2021-05-17T12:49:54Z</time>
      </trkpt>
      <trkpt lat="41.6340780" lon="-8.7936650">
        <ele>121.3</ele>
        <time>2021-05-17T12:49:55Z</time>
      </trkpt>
      <trkpt lat="41.6340920" lon="-8.7936690">
        <ele>121.1</ele>
        <time>2021-05-17T12:49:56Z</time>
      </trkpt>
      <trkpt lat="41.6340980" lon="-8.7936770">
        <ele>121.0</ele>
        <time>2021-05-17T12:49:57Z</time>
      </trkpt>
      <trkpt lat="41.6341080" lon="-8.7936830">
        <ele>120.8</ele>
        <time>2021-05-17T12:49:58Z</time>
      </trkpt>
      <trkpt lat="41.6341220" lon="-8.7936940">
        <ele>120.6</ele>
        <time>2021-05-17T12:49:59Z</time>
      </trkpt>
      <trkpt lat="41.6341330" lon="-8.7937010">
        <ele>120.4</ele>
        <time>2021-05-17T12:50:00Z</time>
      </trkpt>
      <trkpt lat="41.6341400" lon="-8.7936980">
        <ele>120.3</ele>
        <time>2021-05-17T12:50:01Z</time>
      </trkpt>
      <trkpt lat="41.6341550" lon="-8.7936910">
        <ele>120.1</ele>
        <time>2021-05-17T12:50:02Z</time>
      </trkpt>
      <trkpt lat="41.6341670" lon="-8.7936920">
        <ele>120.0</ele>
        <time>2021-05-17T12:50:03Z</time>
      </trkpt>
      <trkpt lat="41.6341750" lon="-8.7936890">
        <ele>119.8</ele>
        <time>2021-05-17T12:50:04Z</time>
      </trkpt>
      <trkpt lat="41.6341860" lon="-8.7936850">
        <ele>119.7</ele>
        <time>2021-05-17T12:50:05Z</time>
      </trkpt>
      <trkpt lat="41.6341990" lon="-8.7936860">
        <ele>119.5</ele>
        <time>2021-05-17T12:50:06Z</time>
      </trkpt>
      <trkpt lat="41.6342150" lon="-8.7936950">
        <ele>119.2</ele>
        <time>2021-05-17T12:50:07Z</time>
      </trkpt>
      <trkpt lat="41.6342340" lon="-8.7937060">
        <ele>118.9</ele>
        <time>2021-05-17T12:50:08Z</time>
      </trkpt>
      <trkpt lat="41.6342440" lon="-8.7937080">
        <ele>118.8</ele>
        <time>2021-05-17T12:50:09Z</time>
      </trkpt>
      <trkpt lat="41.6342540" lon="-8.7937100">
        <ele>118.6</ele>
        <time>2021-05-17T12:50:10Z</time>
      </trkpt>
      <trkpt lat="41.6342720" lon="-8.7937080">
        <ele>118.4</ele>
        <time>2021-05-17T12:50:11Z</time>
      </trkpt>
      <trkpt lat="41.6342860" lon="-8.7937080">
        <ele>118.2</ele>
        <time>2021-05-17T12:50:12Z</time>
      </trkpt>
      <trkpt lat="41.6342940" lon="-8.7937170">
        <ele>118.0</ele>
        <time>2021-05-17T12:50:13Z</time>
      </trkpt>
      <trkpt lat="41.6343020" lon="-8.7937190">
        <ele>117.9</ele>
        <time>2021-05-17T12:50:14Z</time>
      </trkpt>
      <trkpt lat="41.6343150" lon="-8.7937170">
        <ele>117.7</ele>
        <time>2021-05-17T12:50:15Z</time>
      </trkpt>
      <trkpt lat="41.6343340" lon="-8.7937270">
        <ele>117.4</ele>
        <time>2021-05-17T12:50:16Z</time>
      </trkpt>
      <trkpt lat="41.6343440" lon="-8.7937280">
        <ele>117.3</ele>
        <time>2021-05-17T12:50:17Z</time>
      </trkpt>
      <trkpt lat="41.6343580" lon="-8.7937220">
        <ele>117.1</ele>
        <time>2021-05-17T12:50:18Z</time>
      </trkpt>
      <trkpt lat="41.6343740" lon="-8.7937280">
        <ele>116.8</ele>
        <time>2021-05-17T12:50:19Z</time>
      </trkpt>
      <trkpt lat="41.6343920" lon="-8.7937370">
        <ele>116.6</ele>
        <time>2021-05-17T12:50:20Z</time>
      </trkpt>
      <trkpt lat="41.6344030" lon="-8.7937380">
        <ele>116.4</ele>
        <time>2021-05-17T12:50:21Z</time>
      </trkpt>
      <trkpt lat="41.6344130" lon="-8.7937400">
        <ele>116.3</ele>
        <time>2021-05-17T12:50:22Z</time>
      </trkpt>
      <trkpt lat="41.6344260" lon="-8.7937400">
        <ele>116.1</ele>
        <time>2021-05-17T12:50:23Z</time>
      </trkpt>
      <trkpt lat="41.6344320" lon="-8.7937410">
        <ele>116.0</ele>
        <time>2021-05-17T12:50:24Z</time>
      </trkpt>
      <trkpt lat="41.6344480" lon="-8.7937390">
        <ele>115.8</ele>
        <time>2021-05-17T12:50:25Z</time>
      </trkpt>
      <trkpt lat="41.6344620" lon="-8.7937420">
        <ele>115.6</ele>
        <time>2021-05-17T12:50:26Z</time>
      </trkpt>
      <trkpt lat="41.6344770" lon="-8.7937410">
        <ele>115.4</ele>
        <time>2021-05-17T12:50:27Z</time>
      </trkpt>
      <trkpt lat="41.6344800" lon="-8.7937430">
        <ele>115.3</ele>
        <time>2021-05-17T12:50:28Z</time>
      </trkpt>
      <trkpt lat="41.6344970" lon="-8.7937520">
        <ele>115.1</ele>
        <time>2021-05-17T12:50:29Z</time>
      </trkpt>
      <trkpt lat="41.6345120" lon="-8.7937540">
        <ele>114.9</ele>
        <time>2021-05-17T12:50:30Z</time>
      </trkpt>
      <trkpt lat="41.6345340" lon="-8.7937550">
        <ele>114.6</ele>
        <time>2021-05-17T12:50:31Z</time>
      </trkpt>
      <trkpt lat="41.6345420" lon="-8.7937550">
        <ele>114.5</ele>
        <time>2021-05-17T12:50:32Z</time>
      </trkpt>
      <trkpt lat="41.6345500" lon="-8.7937550">
        <ele>114.4</ele>
        <time>2021-05-17T12:50:33Z</time>
      </trkpt>
      <trkpt lat="41.6345690" lon="-8.7937460">
        <ele>114.1</ele>
        <time>2021-05-17T12:50:34Z</time>
      </trkpt>
      <trkpt lat="41.6345850" lon="-8.7937610">
        <ele>113.9</ele>
        <time>2021-05-17T12:50:35Z</time>
      </trkpt>
      <trkpt lat="41.6345950" lon="-8.7937640">
        <ele>113.8</ele>
        <time>2021-05-17T12:50:36Z</time>
      </trkpt>
      <trkpt lat="41.6346070" lon="-8.7937670">
        <ele>113.6</ele>
        <time>2021-05-17T12:50:37Z</time>
      </trkpt>
      <trkpt lat="41.6346190" lon="-8.7937700">
        <ele>113.5</ele>
        <time>2021-05-17T12:50:38Z</time>
      </trkpt>
      <trkpt lat="41.6346360" lon="-8.7937770">
        <ele>113.3</ele>
        <time>2021-05-17T12:50:39Z</time>
      </trkpt>
      <trkpt lat="41.6346530" lon="-8.7937710">
        <ele>113.1</ele>
        <time>2021-05-17T12:50:40Z</time>
      </trkpt>
      <trkpt lat="41.6346630" lon="-8.7937690">
        <ele>113.0</ele>
        <time>2021-05-17T12:50:41Z</time>
      </trkpt>
      <trkpt lat="41.6346710" lon="-8.7937690">
        <ele>113.0</ele>
        <time>2021-05-17T12:50:42Z</time>
      </trkpt>
      <trkpt lat="41.6346800" lon="-8.7937700">
        <ele>112.9</ele>
        <time>2021-05-17T12:50:43Z</time>
      </trkpt>
      <trkpt lat="41.6346880" lon="-8.7937700">
        <ele>112.8</ele>
        <time>2021-05-17T12:50:44Z</time>
      </trkpt>
      <trkpt lat="41.6346960" lon="-8.7937700">
        <ele>112.7</ele>
        <time>2021-05-17T12:50:45Z</time>
      </trkpt>
      <trkpt lat="41.6347100" lon="-8.7937720">
        <ele>112.6</ele>
        <time>2021-05-17T12:50:46Z</time>
      </trkpt>
      <trkpt lat="41.6347250" lon="-8.7937740">
        <ele>112.5</ele>
        <time>2021-05-17T12:50:47Z</time>
      </trkpt>
      <trkpt lat="41.6347450" lon="-8.7937660">
        <ele>112.3</ele>
        <time>2021-05-17T12:50:48Z</time>
      </trkpt>
      <trkpt lat="41.6347550" lon="-8.7937680">
        <ele>112.2</ele>
        <time>2021-05-17T12:50:49Z</time>
      </trkpt>
      <trkpt lat="41.6347660" lon="-8.7937690">
        <ele>112.1</ele>
        <time>2021-05-17T12:50:50Z</time>
      </trkpt>
      <trkpt lat="41.6347800" lon="-8.7937700">
        <ele>112.0</ele>
        <time>2021-05-17T12:50:51Z</time>
      </trkpt>
      <trkpt lat="41.6347950" lon="-8.7937640">
        <ele>111.9</ele>
        <time>2021-05-17T12:50:52Z</time>
      </trkpt>
      <trkpt lat="41.6348080" lon="-8.7937620">
        <ele>111.8</ele>
        <time>2021-05-17T12:50:53Z</time>
      </trkpt>
      <trkpt lat="41.6348240" lon="-8.7937550">
        <ele>111.6</ele>
        <time>2021-05-17T12:50:54Z</time>
      </trkpt>
      <trkpt lat="41.6348380" lon="-8.7937520">
        <ele>111.5</ele>
        <time>2021-05-17T12:50:55Z</time>
      </trkpt>
      <trkpt lat="41.6348430" lon="-8.7937360">
        <ele>111.4</ele>
        <time>2021-05-17T12:50:56Z</time>
      </trkpt>
      <trkpt lat="41.6348460" lon="-8.7937190">
        <ele>111.4</ele>
        <time>2021-05-17T12:50:57Z</time>
      </trkpt>
      <trkpt lat="41.6348690" lon="-8.7936940">
        <ele>111.1</ele>
        <time>2021-05-17T12:50:58Z</time>
      </trkpt>
      <trkpt lat="41.6348770" lon="-8.7936880">
        <ele>111.1</ele>
        <time>2021-05-17T12:50:59Z</time>
      </trkpt>
      <trkpt lat="41.6348840" lon="-8.7936770">
        <ele>111.0</ele>
        <time>2021-05-17T12:51:00Z</time>
      </trkpt>
      <trkpt lat="41.6348870" lon="-8.7936630">
        <ele>110.9</ele>
        <time>2021-05-17T12:51:01Z</time>
      </trkpt>
      <trkpt lat="41.6348970" lon="-8.7936510">
        <ele>110.9</ele>
        <time>2021-05-17T12:51:02Z</time>
      </trkpt>
      <trkpt lat="41.6349190" lon="-8.7936390">
        <ele>110.7</ele>
        <time>2021-05-17T12:51:03Z</time>
      </trkpt>
      <trkpt lat="41.6349280" lon="-8.7936340">
        <ele>110.7</ele>
        <time>2021-05-17T12:51:04Z</time>
      </trkpt>
      <trkpt lat="41.6349370" lon="-8.7936180">
        <ele>110.6</ele>
        <time>2021-05-17T12:51:05Z</time>
      </trkpt>
      <trkpt lat="41.6349450" lon="-8.7936070">
        <ele>110.5</ele>
        <time>2021-05-17T12:51:06Z</time>
      </trkpt>
      <trkpt lat="41.6349540" lon="-8.7935960">
        <ele>110.5</ele>
        <time>2021-05-17T12:51:07Z</time>
      </trkpt>
      <trkpt lat="41.6349650" lon="-8.7935800">
        <ele>110.4</ele>
        <time>2021-05-17T12:51:08Z</time>
      </trkpt>
      <trkpt lat="41.6349810" lon="-8.7935700">
        <ele>110.3</ele>
        <time>2021-05-17T12:51:09Z</time>
      </trkpt>
      <trkpt lat="41.6350040" lon="-8.7935430">
        <ele>110.2</ele>
        <time>2021-05-17T12:51:10Z</time>
      </trkpt>
      <trkpt lat="41.6350080" lon="-8.7935350">
        <ele>110.2</ele>
        <time>2021-05-17T12:51:11Z</time>
      </trkpt>
      <trkpt lat="41.6350200" lon="-8.7935180">
        <ele>110.1</ele>
        <time>2021-05-17T12:51:12Z</time>
      </trkpt>
      <trkpt lat="41.6350260" lon="-8.7935080">
        <ele>110.1</ele>
        <time>2021-05-17T12:51:13Z</time>
      </trkpt>
      <trkpt lat="41.6350320" lon="-8.7934970">
        <ele>110.1</ele>
        <time>2021-05-17T12:51:14Z</time>
      </trkpt>
      <trkpt lat="41.6350460" lon="-8.7934750">
        <ele>110.0</ele>
        <time>2021-05-17T12:51:15Z</time>
      </trkpt>
      <trkpt lat="41.6350490" lon="-8.7934650">
        <ele>110.0</ele>
        <time>2021-05-17T12:51:16Z</time>
      </trkpt>
      <trkpt lat="41.6350520" lon="-8.7934560">
        <ele>109.9</ele>
        <time>2021-05-17T12:51:17Z</time>
      </trkpt>
      <trkpt lat="41.6350650" lon="-8.7934500">
        <ele>109.9</ele>
        <time>2021-05-17T12:51:18Z</time>
      </trkpt>
      <trkpt lat="41.6350720" lon="-8.7934460">
        <ele>109.9</ele>
        <time>2021-05-17T12:51:19Z</time>
      </trkpt>
      <trkpt lat="41.6350780" lon="-8.7934320">
        <ele>109.8</ele>
        <time>2021-05-17T12:51:20Z</time>
      </trkpt>
      <trkpt lat="41.6350930" lon="-8.7934230">
        <ele>109.8</ele>
        <time>2021-05-17T12:51:21Z</time>
      </trkpt>
      <trkpt lat="41.6351000" lon="-8.7934250">
        <ele>109.7</ele>
        <time>2021-05-17T12:51:22Z</time>
      </trkpt>
      <trkpt lat="41.6351130" lon="-8.7934250">
        <ele>109.7</ele>
        <time>2021-05-17T12:51:23Z</time>
      </trkpt>
      <trkpt lat="41.6351350" lon="-8.7934210">
        <ele>109.6</ele>
        <time>2021-05-17T12:51:24Z</time>
      </trkpt>
      <trkpt lat="41.6351480" lon="-8.7934210">
        <ele>109.6</ele>
        <time>2021-05-17T12:51:25Z</time>
      </trkpt>
      <trkpt lat="41.6351620" lon="-8.7934220">
        <ele>109.5</ele>
        <time>2021-05-17T12:51:26Z</time>
      </trkpt>
      <trkpt lat="41.6351700" lon="-8.7934170">
        <ele>109.5</ele>
        <time>2021-05-17T12:51:27Z</time>
      </trkpt>
      <trkpt lat="41.6351810" lon="-8.7934260">
        <ele>109.4</ele>
        <time>2021-05-17T12:51:28Z</time>
      </trkpt>
      <trkpt lat="41.6351970" lon="-8.7934290">
        <ele>109.4</ele>
        <time>2021-05-17T12:51:29Z</time>
      </trkpt>
      <trkpt lat="41.6352110" lon="-8.7934330">
        <ele>109.3</ele>
        <time>2021-05-17T12:51:30Z</time>
      </trkpt>
      <trkpt lat="41.6352210" lon="-8.7934350">
        <ele>109.3</ele>
        <time>2021-05-17T12:51:31Z</time>
      </trkpt>
      <trkpt lat="41.6352280" lon="-8.7934310">
        <ele>109.2</ele>
        <time>2021-05-17T12:51:32Z</time>
      </trkpt>
      <trkpt lat="41.6352510" lon="-8.7934370">
        <ele>109.2</ele>
        <time>2021-05-17T12:51:33Z</time>
      </trkpt>
      <trkpt lat="41.6352640" lon="-8.7934420">
        <ele>109.1</ele>
        <time>2021-05-17T12:51:34Z</time>
      </trkpt>
      <trkpt lat="41.6352820" lon="-8.7934460">
        <ele>109.0</ele>
        <time>2021-05-17T12:51:35Z</time>
      </trkpt>
      <trkpt lat="41.6352920" lon="-8.7934400">
        <ele>109.0</ele>
        <time>2021-05-17T12:51:36Z</time>
      </trkpt>
      <trkpt lat="41.6353110" lon="-8.7934500">
        <ele>108.9</ele>
        <time>2021-05-17T12:51:37Z</time>
      </trkpt>
      <trkpt lat="41.6353190" lon="-8.7934530">
        <ele>108.9</ele>
        <time>2021-05-17T12:51:38Z</time>
      </trkpt>
      <trkpt lat="41.6353280" lon="-8.7934560">
        <ele>108.8</ele>
        <time>2021-05-17T12:51:39Z</time>
      </trkpt>
      <trkpt lat="41.6353380" lon="-8.7934540">
        <ele>108.8</ele>
        <time>2021-05-17T12:51:40Z</time>
      </trkpt>
      <trkpt lat="41.6353460" lon="-8.7934520">
        <ele>108.7</ele>
        <time>2021-05-17T12:51:41Z</time>
      </trkpt>
      <trkpt lat="41.6353530" lon="-8.7934510">
        <ele>108.7</ele>
        <time>2021-05-17T12:51:42Z</time>
      </trkpt>
      <trkpt lat="41.6353610" lon="-8.7934490">
        <ele>108.7</ele>
        <time>2021-05-17T12:51:43Z</time>
      </trkpt>
      <trkpt lat="41.6353690" lon="-8.7934480">
        <ele>108.6</ele>
        <time>2021-05-17T12:51:44Z</time>
      </trkpt>
      <trkpt lat="41.6353790" lon="-8.7934540">
        <ele>108.5</ele>
        <time>2021-05-17T12:51:45Z</time>
      </trkpt>
      <trkpt lat="41.6353880" lon="-8.7934550">
        <ele>108.5</ele>
        <time>2021-05-17T12:51:46Z</time>
      </trkpt>
      <trkpt lat="41.6353950" lon="-8.7934610">
        <ele>108.4</ele>
        <time>2021-05-17T12:51:47Z</time>
      </trkpt>
      <trkpt lat="41.6354080" lon="-8.7934670">
        <ele>108.3</ele>
        <time>2021-05-17T12:51:48Z</time>
      </trkpt>
      <trkpt lat="41.6354180" lon="-8.7934650">
        <ele>108.3</ele>
        <time>2021-05-17T12:51:49Z</time>
      </trkpt>
      <trkpt lat="41.6354270" lon="-8.7934710">
        <ele>108.2</ele>
        <time>2021-05-17T12:51:50Z</time>
      </trkpt>
      <trkpt lat="41.6354380" lon="-8.7934740">
        <ele>108.1</ele>
        <time>2021-05-17T12:51:51Z</time>
      </trkpt>
      <trkpt lat="41.6354480" lon="-8.7934730">
        <ele>108.0</ele>
        <time>2021-05-17T12:51:52Z</time>
      </trkpt>
      <trkpt lat="41.6354580" lon="-8.7934650">
        <ele>107.9</ele>
        <time>2021-05-17T12:51:53Z</time>
      </trkpt>
      <trkpt lat="41.6354850" lon="-8.7934640">
        <ele>107.7</ele>
        <time>2021-05-17T12:51:54Z</time>
      </trkpt>
      <trkpt lat="41.6354950" lon="-8.7934660">
        <ele>107.6</ele>
        <time>2021-05-17T12:51:55Z</time>
      </trkpt>
      <trkpt lat="41.6355170" lon="-8.7934650">
        <ele>107.4</ele>
        <time>2021-05-17T12:51:56Z</time>
      </trkpt>
      <trkpt lat="41.6355290" lon="-8.7934640">
        <ele>107.2</ele>
        <time>2021-05-17T12:51:57Z</time>
      </trkpt>
      <trkpt lat="41.6355580" lon="-8.7934630">
        <ele>106.9</ele>
        <time>2021-05-17T12:51:58Z</time>
      </trkpt>
      <trkpt lat="41.6355640" lon="-8.7934650">
        <ele>106.9</ele>
        <time>2021-05-17T12:51:59Z</time>
      </trkpt>
      <trkpt lat="41.6355710" lon="-8.7934660">
        <ele>106.8</ele>
        <time>2021-05-17T12:52:00Z</time>
      </trkpt>
      <trkpt lat="41.6355840" lon="-8.7934650">
        <ele>106.7</ele>
        <time>2021-05-17T12:52:01Z</time>
      </trkpt>
      <trkpt lat="41.6355920" lon="-8.7934610">
        <ele>106.6</ele>
        <time>2021-05-17T12:52:02Z</time>
      </trkpt>
      <trkpt lat="41.6355990" lon="-8.7934610">
        <ele>106.5</ele>
        <time>2021-05-17T12:52:03Z</time>
      </trkpt>
      <trkpt lat="41.6356130" lon="-8.7934570">
        <ele>106.3</ele>
        <time>2021-05-17T12:52:04Z</time>
      </trkpt>
      <trkpt lat="41.6356280" lon="-8.7934600">
        <ele>106.2</ele>
        <time>2021-05-17T12:52:05Z</time>
      </trkpt>
      <trkpt lat="41.6356430" lon="-8.7934560">
        <ele>106.0</ele>
        <time>2021-05-17T12:52:06Z</time>
      </trkpt>
      <trkpt lat="41.6356510" lon="-8.7934570">
        <ele>105.9</ele>
        <time>2021-05-17T12:52:07Z</time>
      </trkpt>
      <trkpt lat="41.6356580" lon="-8.7934580">
        <ele>105.8</ele>
        <time>2021-05-17T12:52:08Z</time>
      </trkpt>
      <trkpt lat="41.6356650" lon="-8.7934590">
        <ele>105.7</ele>
        <time>2021-05-17T12:52:09Z</time>
      </trkpt>
      <trkpt lat="41.6356800" lon="-8.7934640">
        <ele>105.6</ele>
        <time>2021-05-17T12:52:10Z</time>
      </trkpt>
      <trkpt lat="41.6356900" lon="-8.7934740">
        <ele>105.4</ele>
        <time>2021-05-17T12:52:11Z</time>
      </trkpt>
      <trkpt lat="41.6357020" lon="-8.7934820">
        <ele>105.2</ele>
        <time>2021-05-17T12:52:12Z</time>
      </trkpt>
      <trkpt lat="41.6357120" lon="-8.7934800">
        <ele>105.1</ele>
        <time>2021-05-17T12:52:13Z</time>
      </trkpt>
      <trkpt lat="41.6357230" lon="-8.7934810">
        <ele>105.0</ele>
        <time>2021-05-17T12:52:14Z</time>
      </trkpt>
      <trkpt lat="41.6357500" lon="-8.7934870">
        <ele>104.6</ele>
        <time>2021-05-17T12:52:15Z</time>
      </trkpt>
      <trkpt lat="41.6357600" lon="-8.7934870">
        <ele>104.5</ele>
        <time>2021-05-17T12:52:16Z</time>
      </trkpt>
      <trkpt lat="41.6357690" lon="-8.7934860">
        <ele>104.4</ele>
        <time>2021-05-17T12:52:17Z</time>
      </trkpt>
      <trkpt lat="41.6357840" lon="-8.7934970">
        <ele>104.1</ele>
        <time>2021-05-17T12:52:18Z</time>
      </trkpt>
      <trkpt lat="41.6357970" lon="-8.7934960">
        <ele>103.9</ele>
        <time>2021-05-17T12:52:19Z</time>
      </trkpt>
      <trkpt lat="41.6358030" lon="-8.7934960">
        <ele>103.9</ele>
        <time>2021-05-17T12:52:20Z</time>
      </trkpt>
      <trkpt lat="41.6358130" lon="-8.7934950">
        <ele>103.7</ele>
        <time>2021-05-17T12:52:21Z</time>
      </trkpt>
      <trkpt lat="41.6358290" lon="-8.7935110">
        <ele>103.4</ele>
        <time>2021-05-17T12:52:22Z</time>
      </trkpt>
      <trkpt lat="41.6358460" lon="-8.7935030">
        <ele>103.1</ele>
        <time>2021-05-17T12:52:23Z</time>
      </trkpt>
      <trkpt lat="41.6358550" lon="-8.7934990">
        <ele>103.0</ele>
        <time>2021-05-17T12:52:24Z</time>
      </trkpt>
      <trkpt lat="41.6358640" lon="-8.7934950">
        <ele>102.9</ele>
        <time>2021-05-17T12:52:25Z</time>
      </trkpt>
      <trkpt lat="41.6358810" lon="-8.7935010">
        <ele>102.6</ele>
        <time>2021-05-17T12:52:26Z</time>
      </trkpt>
      <trkpt lat="41.6358900" lon="-8.7934940">
        <ele>102.4</ele>
        <time>2021-05-17T12:52:27Z</time>
      </trkpt>
      <trkpt lat="41.6359000" lon="-8.7934880">
        <ele>102.3</ele>
        <time>2021-05-17T12:52:28Z</time>
      </trkpt>
      <trkpt lat="41.6359140" lon="-8.7934880">
        <ele>102.0</ele>
        <time>2021-05-17T12:52:29Z</time>
      </trkpt>
      <trkpt lat="41.6359170" lon="-8.7934910">
        <ele>102.0</ele>
        <time>2021-05-17T12:52:30Z</time>
      </trkpt>
      <trkpt lat="41.6359350" lon="-8.7934850">
        <ele>101.7</ele>
        <time>2021-05-17T12:52:31Z</time>
      </trkpt>
      <trkpt lat="41.6359520" lon="-8.7934840">
        <ele>101.4</ele>
        <time>2021-05-17T12:52:32Z</time>
      </trkpt>
      <trkpt lat="41.6359600" lon="-8.7934890">
        <ele>101.3</ele>
        <time>2021-05-17T12:52:33Z</time>
      </trkpt>
      <trkpt lat="41.6359670" lon="-8.7934930">
        <ele>101.1</ele>
        <time>2021-05-17T12:52:34Z</time>
      </trkpt>
      <trkpt lat="41.6359740" lon="-8.7934980">
        <ele>101.0</ele>
        <time>2021-05-17T12:52:35Z</time>
      </trkpt>
      <trkpt lat="41.6359850" lon="-8.7935040">
        <ele>100.8</ele>
        <time>2021-05-17T12:52:36Z</time>
      </trkpt>
      <trkpt lat="41.6360020" lon="-8.7935100">
        <ele>100.5</ele>
        <time>2021-05-17T12:52:37Z</time>
      </trkpt>
      <trkpt lat="41.6360060" lon="-8.7935200">
        <ele>100.4</ele>
        <time>2021-05-17T12:52:38Z</time>
      </trkpt>
      <trkpt lat="41.6360200" lon="-8.7935270">
        <ele>100.1</ele>
        <time>2021-05-17T12:52:39Z</time>
      </trkpt>
      <trkpt lat="41.6360310" lon="-8.7935250">
        <ele>99.9</ele>
        <time>2021-05-17T12:52:40Z</time>
      </trkpt>
      <trkpt lat="41.6360540" lon="-8.7935270">
        <ele>99.4</ele>
        <time>2021-05-17T12:52:41Z</time>
      </trkpt>
      <trkpt lat="41.6360640" lon="-8.7935260">
        <ele>99.2</ele>
        <time>2021-05-17T12:52:42Z</time>
      </trkpt>
      <trkpt lat="41.6360730" lon="-8.7935240">
        <ele>99.0</ele>
        <time>2021-05-17T12:52:43Z</time>
      </trkpt>
      <trkpt lat="41.6360830" lon="-8.7935230">
        <ele>98.9</ele>
        <time>2021-05-17T12:52:44Z</time>
      </trkpt>
      <trkpt lat="41.6360930" lon="-8.7935220">
        <ele>98.7</ele>
        <time>2021-05-17T12:52:45Z</time>
      </trkpt>
      <trkpt lat="41.6361070" lon="-8.7935320">
        <ele>98.3</ele>
        <time>2021-05-17T12:52:46Z</time>
      </trkpt>
      <trkpt lat="41.6361260" lon="-8.7935310">
        <ele>98.0</ele>
        <time>2021-05-17T12:52:47Z</time>
      </trkpt>
      <trkpt lat="41.6361350" lon="-8.7935420">
        <ele>97.7</ele>
        <time>2021-05-17T12:52:48Z</time>
      </trkpt>
      <trkpt lat="41.6361520" lon="-8.7935430">
        <ele>97.4</ele>
        <time>2021-05-17T12:52:49Z</time>
      </trkpt>
      <trkpt lat="41.6361710" lon="-8.7935420">
        <ele>97.0</ele>
        <time>2021-05-17T12:52:50Z</time>
      </trkpt>
      <trkpt lat="41.6361860" lon="-8.7935460">
        <ele>96.7</ele>
        <time>2021-05-17T12:52:51Z</time>
      </trkpt>
      <trkpt lat="41.6361940" lon="-8.7935480">
        <ele>96.6</ele>
        <time>2021-05-17T12:52:52Z</time>
      </trkpt>
      <trkpt lat="41.6362000" lon="-8.7935490">
        <ele>96.5</ele>
        <time>2021-05-17T12:52:53Z</time>
      </trkpt>
      <trkpt lat="41.6362170" lon="-8.7935410">
        <ele>96.1</ele>
        <time>2021-05-17T12:52:54Z</time>
      </trkpt>
      <trkpt lat="41.6362330" lon="-8.7935520">
        <ele>95.8</ele>
        <time>2021-05-17T12:52:55Z</time>
      </trkpt>
      <trkpt lat="41.6362440" lon="-8.7935550">
        <ele>95.5</ele>
        <time>2021-05-17T12:52:56Z</time>
      </trkpt>
      <trkpt lat="41.6362560" lon="-8.7935570">
        <ele>95.3</ele>
        <time>2021-05-17T12:52:57Z</time>
      </trkpt>
      <trkpt lat="41.6362660" lon="-8.7935610">
        <ele>95.1</ele>
        <time>2021-05-17T12:52:58Z</time>
      </trkpt>
      <trkpt lat="41.6362840" lon="-8.7935560">
        <ele>94.8</ele>
        <time>2021-05-17T12:52:59Z</time>
      </trkpt>
      <trkpt lat="41.6363090" lon="-8.7935500">
        <ele>94.3</ele>
        <time>2021-05-17T12:53:00Z</time>
      </trkpt>
      <trkpt lat="41.6363200" lon="-8.7935530">
        <ele>94.1</ele>
        <time>2021-05-17T12:53:01Z</time>
      </trkpt>
      <trkpt lat="41.6363300" lon="-8.7935560">
        <ele>94.0</ele>
        <time>2021-05-17T12:53:02Z</time>
      </trkpt>
      <trkpt lat="41.6363540" lon="-8.7935400">
        <ele>93.5</ele>
        <time>2021-05-17T12:53:03Z</time>
      </trkpt>
      <trkpt lat="41.6363630" lon="-8.7935350">
        <ele>93.3</ele>
        <time>2021-05-17T12:53:04Z</time>
      </trkpt>
      <trkpt lat="41.6363720" lon="-8.7935390">
        <ele>93.2</ele>
        <time>2021-05-17T12:53:05Z</time>
      </trkpt>
      <trkpt lat="41.6363810" lon="-8.7935430">
        <ele>93.0</ele>
        <time>2021-05-17T12:53:06Z</time>
      </trkpt>
      <trkpt lat="41.6363920" lon="-8.7935400">
        <ele>92.8</ele>
        <time>2021-05-17T12:53:07Z</time>
      </trkpt>
      <trkpt lat="41.6364150" lon="-8.7935360">
        <ele>92.7</ele>
        <time>2021-05-17T12:53:08Z</time>
      </trkpt>
      <trkpt lat="41.6364270" lon="-8.7935290">
        <ele>92.7</ele>
        <time>2021-05-17T12:53:09Z</time>
      </trkpt>
      <trkpt lat="41.6364340" lon="-8.7935220">
        <ele>92.7</ele>
        <time>2021-05-17T12:53:10Z</time>
      </trkpt>
      <trkpt lat="41.6364440" lon="-8.7935250">
        <ele>92.6</ele>
        <time>2021-05-17T12:53:11Z</time>
      </trkpt>
      <trkpt lat="41.6364610" lon="-8.7935300">
        <ele>92.6</ele>
        <time>2021-05-17T12:53:12Z</time>
      </trkpt>
      <trkpt lat="41.6364830" lon="-8.7935370">
        <ele>92.5</ele>
        <time>2021-05-17T12:53:13Z</time>
      </trkpt>
      <trkpt lat="41.6364880" lon="-8.7935450">
        <ele>92.5</ele>
        <time>2021-05-17T12:53:14Z</time>
      </trkpt>
      <trkpt lat="41.6364990" lon="-8.7935830">
        <ele>92.4</ele>
        <time>2021-05-17T12:53:15Z</time>
      </trkpt>
      <trkpt lat="41.6365010" lon="-8.7935960">
        <ele>92.4</ele>
        <time>2021-05-17T12:53:16Z</time>
      </trkpt>
      <trkpt lat="41.6365060" lon="-8.7935990">
        <ele>92.3</ele>
        <time>2021-05-17T12:53:17Z</time>
      </trkpt>
      <trkpt lat="41.6365120" lon="-8.7936080">
        <ele>92.3</ele>
        <time>2021-05-17T12:53:18Z</time>
      </trkpt>
      <trkpt lat="41.6365080" lon="-8.7936230">
        <ele>92.3</ele>
        <time>2021-05-17T12:53:19Z</time>
      </trkpt>
      <trkpt lat="41.6365190" lon="-8.7936290">
        <ele>92.2</ele>
        <time>2021-05-17T12:53:20Z</time>
      </trkpt>
      <trkpt lat="41.6365320" lon="-8.7936520">
        <ele>92.2</ele>
        <time>2021-05-17T12:53:21Z</time>
      </trkpt>
      <trkpt lat="41.6365340" lon="-8.7936640">
        <ele>92.1</ele>
        <time>2021-05-17T12:53:22Z</time>
      </trkpt>
      <trkpt lat="41.6365370" lon="-8.7936770">
        <ele>92.1</ele>
        <time>2021-05-17T12:53:23Z</time>
      </trkpt>
      <trkpt lat="41.6365360" lon="-8.7936880">
        <ele>92.1</ele>
        <time>2021-05-17T12:53:24Z</time>
      </trkpt>
      <trkpt lat="41.6365450" lon="-8.7937080">
        <ele>92.0</ele>
        <time>2021-05-17T12:53:25Z</time>
      </trkpt>
      <trkpt lat="41.6365620" lon="-8.7937130">
        <ele>91.9</ele>
        <time>2021-05-17T12:53:26Z</time>
      </trkpt>
      <trkpt lat="41.6365750" lon="-8.7937110">
        <ele>91.9</ele>
        <time>2021-05-17T12:53:27Z</time>
      </trkpt>
      <trkpt lat="41.6365910" lon="-8.7937160">
        <ele>91.8</ele>
        <time>2021-05-17T12:53:28Z</time>
      </trkpt>
      <trkpt lat="41.6366100" lon="-8.7937050">
        <ele>91.8</ele>
        <time>2021-05-17T12:53:29Z</time>
      </trkpt>
      <trkpt lat="41.6366190" lon="-8.7937010">
        <ele>91.7</ele>
        <time>2021-05-17T12:53:30Z</time>
      </trkpt>
      <trkpt lat="41.6366270" lon="-8.7936960">
        <ele>91.7</ele>
        <time>2021-05-17T12:53:31Z</time>
      </trkpt>
      <trkpt lat="41.6366440" lon="-8.7936890">
        <ele>91.6</ele>
        <time>2021-05-17T12:53:32Z</time>
      </trkpt>
      <trkpt lat="41.6366530" lon="-8.7936840">
        <ele>91.5</ele>
        <time>2021-05-17T12:53:33Z</time>
      </trkpt>
      <trkpt lat="41.6366670" lon="-8.7936780">
        <ele>91.4</ele>
        <time>2021-05-17T12:53:34Z</time>
      </trkpt>
      <trkpt lat="41.6366790" lon="-8.7936690">
        <ele>91.3</ele>
        <time>2021-05-17T12:53:35Z</time>
      </trkpt>
      <trkpt lat="41.6366940" lon="-8.7936630">
        <ele>91.2</ele>
        <time>2021-05-17T12:53:36Z</time>
      </trkpt>
      <trkpt lat="41.6367020" lon="-8.7936640">
        <ele>91.1</ele>
        <time>2021-05-17T12:53:37Z</time>
      </trkpt>
      <trkpt lat="41.6367100" lon="-8.7936640">
        <ele>91.1</ele>
        <time>2021-05-17T12:53:38Z</time>
      </trkpt>
      <trkpt lat="41.6367180" lon="-8.7936650">
        <ele>91.0</ele>
        <time>2021-05-17T12:53:39Z</time>
      </trkpt>
      <trkpt lat="41.6367260" lon="-8.7936650">
        <ele>90.9</ele>
        <time>2021-05-17T12:53:40Z</time>
      </trkpt>
      <trkpt lat="41.6367380" lon="-8.7936800">
        <ele>90.8</ele>
        <time>2021-05-17T12:53:41Z</time>
      </trkpt>
      <trkpt lat="41.6367520" lon="-8.7936770">
        <ele>90.7</ele>
        <time>2021-05-17T12:53:42Z</time>
      </trkpt>
      <trkpt lat="41.6367640" lon="-8.7936690">
        <ele>90.6</ele>
        <time>2021-05-17T12:53:43Z</time>
      </trkpt>
      <trkpt lat="41.6367840" lon="-8.7936680">
        <ele>90.5</ele>
        <time>2021-05-17T12:53:44Z</time>
      </trkpt>
      <trkpt lat="41.6368010" lon="-8.7936700">
        <ele>90.4</ele>
        <time>2021-05-17T12:53:45Z</time>
      </trkpt>
      <trkpt lat="41.6368150" lon="-8.7936690">
        <ele>90.3</ele>
        <time>2021-05-17T12:53:46Z</time>
      </trkpt>
      <trkpt lat="41.6368360" lon="-8.7936710">
        <ele>90.2</ele>
        <time>2021-05-17T12:53:47Z</time>
      </trkpt>
      <trkpt lat="41.6368450" lon="-8.7936710">
        <ele>90.1</ele>
        <time>2021-05-17T12:53:48Z</time>
      </trkpt>
      <trkpt lat="41.6368550" lon="-8.7936710">
        <ele>90.1</ele>
        <time>2021-05-17T12:53:49Z</time>
      </trkpt>
      <trkpt lat="41.6368760" lon="-8.7936740">
        <ele>90.0</ele>
        <time>2021-05-17T12:53:50Z</time>
      </trkpt>
      <trkpt lat="41.6368870" lon="-8.7936750">
        <ele>89.9</ele>
        <time>2021-05-17T12:53:51Z</time>
      </trkpt>
      <trkpt lat="41.6368970" lon="-8.7936750">
        <ele>89.9</ele>
        <time>2021-05-17T12:53:52Z</time>
      </trkpt>
      <trkpt lat="41.6369100" lon="-8.7936830">
        <ele>89.8</ele>
        <time>2021-05-17T12:53:53Z</time>
      </trkpt>
      <trkpt lat="41.6369240" lon="-8.7936920">
        <ele>89.7</ele>
        <time>2021-05-17T12:53:54Z</time>
      </trkpt>
      <trkpt lat="41.6369400" lon="-8.7936970">
        <ele>89.6</ele>
        <time>2021-05-17T12:53:55Z</time>
      </trkpt>
      <trkpt lat="41.6369530" lon="-8.7937020">
        <ele>89.6</ele>
        <time>2021-05-17T12:53:56Z</time>
      </trkpt>
      <trkpt lat="41.6369670" lon="-8.7937060">
        <ele>89.5</ele>
        <time>2021-05-17T12:53:57Z</time>
      </trkpt>
      <trkpt lat="41.6369890" lon="-8.7937100">
        <ele>89.4</ele>
        <time>2021-05-17T12:53:58Z</time>
      </trkpt>
      <trkpt lat="41.6369980" lon="-8.7937080">
        <ele>89.4</ele>
        <time>2021-05-17T12:53:59Z</time>
      </trkpt>
      <trkpt lat="41.6370060" lon="-8.7937070">
        <ele>89.4</ele>
        <time>2021-05-17T12:54:00Z</time>
      </trkpt>
      <trkpt lat="41.6370230" lon="-8.7937120">
        <ele>89.3</ele>
        <time>2021-05-17T12:54:01Z</time>
      </trkpt>
      <trkpt lat="41.6370390" lon="-8.7937110">
        <ele>89.3</ele>
        <time>2021-05-17T12:54:02Z</time>
      </trkpt>
      <trkpt lat="41.6370480" lon="-8.7937030">
        <ele>89.2</ele>
        <time>2021-05-17T12:54:03Z</time>
      </trkpt>
      <trkpt lat="41.6370680" lon="-8.7936820">
        <ele>89.1</ele>
        <time>2021-05-17T12:54:04Z</time>
      </trkpt>
      <trkpt lat="41.6370910" lon="-8.7936550">
        <ele>89.0</ele>
        <time>2021-05-17T12:54:05Z</time>
      </trkpt>
      <trkpt lat="41.6370960" lon="-8.7936410">
        <ele>89.0</ele>
        <time>2021-05-17T12:54:06Z</time>
      </trkpt>
      <trkpt lat="41.6371070" lon="-8.7936150">
        <ele>88.9</ele>
        <time>2021-05-17T12:54:07Z</time>
      </trkpt>
      <trkpt lat="41.6371100" lon="-8.7936030">
        <ele>88.9</ele>
        <time>2021-05-17T12:54:08Z</time>
      </trkpt>
      <trkpt lat="41.6371140" lon="-8.7935900">
        <ele>88.9</ele>
        <time>2021-05-17T12:54:09Z</time>
      </trkpt>
      <trkpt lat="41.6371200" lon="-8.7935750">
        <ele>88.9</ele>
        <time>2021-05-17T12:54:10Z</time>
      </trkpt>
      <trkpt lat="41.6371320" lon="-8.7935630">
        <ele>88.8</ele>
        <time>2021-05-17T12:54:11Z</time>
      </trkpt>
      <trkpt lat="41.6371470" lon="-8.7935290">
        <ele>88.7</ele>
        <time>2021-05-17T12:54:12Z</time>
      </trkpt>
      <trkpt lat="41.6371520" lon="-8.7935150">
        <ele>88.7</ele>
        <time>2021-05-17T12:54:13Z</time>
      </trkpt>
      <trkpt lat="41.6371510" lon="-8.7935040">
        <ele>88.7</ele>
        <time>2021-05-17T12:54:14Z</time>
      </trkpt>
      <trkpt lat="41.6371630" lon="-8.7934770">
        <ele>88.2</ele>
        <time>2021-05-17T12:54:15Z</time>
      </trkpt>
      <trkpt lat="41.6371690" lon="-8.7934400">
        <ele>88.0</ele>
        <time>2021-05-17T12:54:16Z</time>
      </trkpt>
      <trkpt lat="41.6371700" lon="-8.7934260">
        <ele>87.9</ele>
        <time>2021-05-17T12:54:17Z</time>
      </trkpt>
      <trkpt lat="41.6371710" lon="-8.7934090">
        <ele>87.8</ele>
        <time>2021-05-17T12:54:18Z</time>
      </trkpt>
      <trkpt lat="41.6371730" lon="-8.7933990">
        <ele>87.8</ele>
        <time>2021-05-17T12:54:19Z</time>
      </trkpt>
      <trkpt lat="41.6371750" lon="-8.7933810">
        <ele>87.7</ele>
        <time>2021-05-17T12:54:20Z</time>
      </trkpt>
      <trkpt lat="41.6371840" lon="-8.7933510">
        <ele>87.5</ele>
        <time>2021-05-17T12:54:21Z</time>
      </trkpt>
      <trkpt lat="41.6371940" lon="-8.7933410">
        <ele>87.4</ele>
        <time>2021-05-17T12:54:22Z</time>
      </trkpt>
      <trkpt lat="41.6372020" lon="-8.7933290">
        <ele>87.3</ele>
        <time>2021-05-17T12:54:23Z</time>
      </trkpt>
      <trkpt lat="41.6372080" lon="-8.7933240">
        <ele>87.3</ele>
        <time>2021-05-17T12:54:24Z</time>
      </trkpt>
      <trkpt lat="41.6372170" lon="-8.7933210">
        <ele>87.2</ele>
        <time>2021-05-17T12:54:25Z</time>
      </trkpt>
      <trkpt lat="41.6372330" lon="-8.7933140">
        <ele>87.1</ele>
        <time>2021-05-17T12:54:26Z</time>
      </trkpt>
      <trkpt lat="41.6372440" lon="-8.7933080">
        <ele>87.0</ele>
        <time>2021-05-17T12:54:27Z</time>
      </trkpt>
      <trkpt lat="41.6372470" lon="-8.7933110">
        <ele>87.0</ele>
        <time>2021-05-17T12:54:28Z</time>
      </trkpt>
      <trkpt lat="41.6372550" lon="-8.7933100">
        <ele>87.0</ele>
        <time>2021-05-17T12:54:29Z</time>
      </trkpt>
      <trkpt lat="41.6372670" lon="-8.7933050">
        <ele>86.9</ele>
        <time>2021-05-17T12:54:30Z</time>
      </trkpt>
      <trkpt lat="41.6372740" lon="-8.7933110">
        <ele>86.8</ele>
        <time>2021-05-17T12:54:31Z</time>
      </trkpt>
      <trkpt lat="41.6372790" lon="-8.7933110">
        <ele>86.8</ele>
        <time>2021-05-17T12:54:32Z</time>
      </trkpt>
      <trkpt lat="41.6372930" lon="-8.7933100">
        <ele>86.7</ele>
        <time>2021-05-17T12:54:33Z</time>
      </trkpt>
      <trkpt lat="41.6373070" lon="-8.7933080">
        <ele>86.6</ele>
        <time>2021-05-17T12:54:34Z</time>
      </trkpt>
      <trkpt lat="41.6373140" lon="-8.7933100">
        <ele>86.5</ele>
        <time>2021-05-17T12:54:35Z</time>
      </trkpt>
      <trkpt lat="41.6373250" lon="-8.7933110">
        <ele>86.5</ele>
        <time>2021-05-17T12:54:36Z</time>
      </trkpt>
      <trkpt lat="41.6373350" lon="-8.7933170">
        <ele>86.4</ele>
        <time>2021-05-17T12:54:37Z</time>
      </trkpt>
      <trkpt lat="41.6373440" lon="-8.7933250">
        <ele>86.3</ele>
        <time>2021-05-17T12:54:38Z</time>
      </trkpt>
      <trkpt lat="41.6373610" lon="-8.7933360">
        <ele>86.2</ele>
        <time>2021-05-17T12:54:39Z</time>
      </trkpt>
      <trkpt lat="41.6373830" lon="-8.7933380">
        <ele>86.0</ele>
        <time>2021-05-17T12:54:40Z</time>
      </trkpt>
      <trkpt lat="41.6373930" lon="-8.7933490">
        <ele>86.0</ele>
        <time>2021-05-17T12:54:41Z</time>
      </trkpt>
      <trkpt lat="41.6374020" lon="-8.7933590">
        <ele>85.9</ele>
        <time>2021-05-17T12:54:42Z</time>
      </trkpt>
      <trkpt lat="41.6374080" lon="-8.7933710">
        <ele>85.8</ele>
        <time>2021-05-17T12:54:43Z</time>
      </trkpt>
      <trkpt lat="41.6374170" lon="-8.7933810">
        <ele>85.7</ele>
        <time>2021-05-17T12:54:44Z</time>
      </trkpt>
      <trkpt lat="41.6374270" lon="-8.7933890">
        <ele>85.6</ele>
        <time>2021-05-17T12:54:45Z</time>
      </trkpt>
      <trkpt lat="41.6374450" lon="-8.7934120">
        <ele>85.5</ele>
        <time>2021-05-17T12:54:46Z</time>
      </trkpt>
      <trkpt lat="41.6374530" lon="-8.7934200">
        <ele>85.4</ele>
        <time>2021-05-17T12:54:47Z</time>
      </trkpt>
      <trkpt lat="41.6374600" lon="-8.7934280">
        <ele>85.3</ele>
        <time>2021-05-17T12:54:48Z</time>
      </trkpt>
      <trkpt lat="41.6374720" lon="-8.7934420">
        <ele>85.2</ele>
        <time>2021-05-17T12:54:49Z</time>
      </trkpt>
      <trkpt lat="41.6374840" lon="-8.7934500">
        <ele>85.1</ele>
        <time>2021-05-17T12:54:50Z</time>
      </trkpt>
      <trkpt lat="41.6374940" lon="-8.7934620">
        <ele>85.1</ele>
        <time>2021-05-17T12:54:51Z</time>
      </trkpt>
      <trkpt lat="41.6375070" lon="-8.7934720">
        <ele>85.0</ele>
        <time>2021-05-17T12:54:52Z</time>
      </trkpt>
      <trkpt lat="41.6375150" lon="-8.7934740">
        <ele>84.9</ele>
        <time>2021-05-17T12:54:53Z</time>
      </trkpt>
      <trkpt lat="41.6375190" lon="-8.7934790">
        <ele>84.9</ele>
        <time>2021-05-17T12:54:54Z</time>
      </trkpt>
      <trkpt lat="41.6375290" lon="-8.7934820">
        <ele>84.8</ele>
        <time>2021-05-17T12:54:55Z</time>
      </trkpt>
      <trkpt lat="41.6375380" lon="-8.7934920">
        <ele>84.7</ele>
        <time>2021-05-17T12:54:56Z</time>
      </trkpt>
      <trkpt lat="41.6375490" lon="-8.7934980">
        <ele>84.6</ele>
        <time>2021-05-17T12:54:57Z</time>
      </trkpt>
      <trkpt lat="41.6375660" lon="-8.7934990">
        <ele>84.5</ele>
        <time>2021-05-17T12:54:58Z</time>
      </trkpt>
      <trkpt lat="41.6375930" lon="-8.7934690">
        <ele>84.3</ele>
        <time>2021-05-17T12:54:59Z</time>
      </trkpt>
      <trkpt lat="41.6376020" lon="-8.7934640">
        <ele>84.2</ele>
        <time>2021-05-17T12:55:00Z</time>
      </trkpt>
      <trkpt lat="41.6376210" lon="-8.7934490">
        <ele>84.1</ele>
        <time>2021-05-17T12:55:01Z</time>
      </trkpt>
      <trkpt lat="41.6376280" lon="-8.7934430">
        <ele>84.0</ele>
        <time>2021-05-17T12:55:02Z</time>
      </trkpt>
      <trkpt lat="41.6376350" lon="-8.7934380">
        <ele>84.0</ele>
        <time>2021-05-17T12:55:03Z</time>
      </trkpt>
      <trkpt lat="41.6376480" lon="-8.7934320">
        <ele>83.9</ele>
        <time>2021-05-17T12:55:04Z</time>
      </trkpt>
      <trkpt lat="41.6376630" lon="-8.7934210">
        <ele>83.8</ele>
        <time>2021-05-17T12:55:05Z</time>
      </trkpt>
      <trkpt lat="41.6376780" lon="-8.7934050">
        <ele>83.6</ele>
        <time>2021-05-17T12:55:06Z</time>
      </trkpt>
      <trkpt lat="41.6376850" lon="-8.7933950">
        <ele>83.6</ele>
        <time>2021-05-17T12:55:07Z</time>
      </trkpt>
      <trkpt lat="41.6376930" lon="-8.7933840">
        <ele>83.5</ele>
        <time>2021-05-17T12:55:08Z</time>
      </trkpt>
      <trkpt lat="41.6377190" lon="-8.7933550">
        <ele>83.2</ele>
        <time>2021-05-17T12:55:09Z</time>
      </trkpt>
      <trkpt lat="41.6377260" lon="-8.7933440">
        <ele>83.2</ele>
        <time>2021-05-17T12:55:10Z</time>
      </trkpt>
      <trkpt lat="41.6377370" lon="-8.7933100">
        <ele>83.0</ele>
        <time>2021-05-17T12:55:11Z</time>
      </trkpt>
      <trkpt lat="41.6377420" lon="-8.7932950">
        <ele>82.9</ele>
        <time>2021-05-17T12:55:12Z</time>
      </trkpt>
      <trkpt lat="41.6377480" lon="-8.7932690">
        <ele>82.8</ele>
        <time>2021-05-17T12:55:13Z</time>
      </trkpt>
      <trkpt lat="41.6377490" lon="-8.7932550">
        <ele>82.7</ele>
        <time>2021-05-17T12:55:14Z</time>
      </trkpt>
      <trkpt lat="41.6377500" lon="-8.7932410">
        <ele>82.6</ele>
        <time>2021-05-17T12:55:15Z</time>
      </trkpt>
      <trkpt lat="41.6377540" lon="-8.7932200">
        <ele>82.5</ele>
        <time>2021-05-17T12:55:16Z</time>
      </trkpt>
      <trkpt lat="41.6377660" lon="-8.7932020">
        <ele>82.4</ele>
        <time>2021-05-17T12:55:17Z</time>
      </trkpt>
      <trkpt lat="41.6377760" lon="-8.7931810">
        <ele>82.3</ele>
        <time>2021-05-17T12:55:18Z</time>
      </trkpt>
      <trkpt lat="41.6377890" lon="-8.7931680">
        <ele>82.2</ele>
        <time>2021-05-17T12:55:19Z</time>
      </trkpt>
      <trkpt lat="41.6378000" lon="-8.7931590">
        <ele>82.1</ele>
        <time>2021-05-17T12:55:20Z</time>
      </trkpt>
      <trkpt lat="41.6378100" lon="-8.7931500">
        <ele>82.0</ele>
        <time>2021-05-17T12:55:21Z</time>
      </trkpt>
      <trkpt lat="41.6378180" lon="-8.7931440">
        <ele>81.9</ele>
        <time>2021-05-17T12:55:22Z</time>
      </trkpt>
      <trkpt lat="41.6378270" lon="-8.7931400">
        <ele>81.9</ele>
        <time>2021-05-17T12:55:23Z</time>
      </trkpt>
      <trkpt lat="41.6378370" lon="-8.7931320">
        <ele>81.8</ele>
        <time>2021-05-17T12:55:24Z</time>
      </trkpt>
      <trkpt lat="41.6378490" lon="-8.7931210">
        <ele>81.7</ele>
        <time>2021-05-17T12:55:25Z</time>
      </trkpt>
      <trkpt lat="41.6378790" lon="-8.7931090">
        <ele>81.5</ele>
        <time>2021-05-17T12:55:26Z</time>
      </trkpt>
      <trkpt lat="41.6378890" lon="-8.7931060">
        <ele>81.4</ele>
        <time>2021-05-17T12:55:27Z</time>
      </trkpt>
      <trkpt lat="41.6378970" lon="-8.7931010">
        <ele>81.3</ele>
        <time>2021-05-17T12:55:28Z</time>
      </trkpt>
      <trkpt lat="41.6379070" lon="-8.7930960">
        <ele>81.3</ele>
        <time>2021-05-17T12:55:29Z</time>
      </trkpt>
      <trkpt lat="41.6379150" lon="-8.7930880">
        <ele>81.2</ele>
        <time>2021-05-17T12:55:30Z</time>
      </trkpt>
      <trkpt lat="41.6379390" lon="-8.7930850">
        <ele>81.0</ele>
        <time>2021-05-17T12:55:31Z</time>
      </trkpt>
      <trkpt lat="41.6379460" lon="-8.7930880">
        <ele>81.0</ele>
        <time>2021-05-17T12:55:32Z</time>
      </trkpt>
      <trkpt lat="41.6379540" lon="-8.7930900">
        <ele>80.9</ele>
        <time>2021-05-17T12:55:33Z</time>
      </trkpt>
      <trkpt lat="41.6379710" lon="-8.7930840">
        <ele>80.8</ele>
        <time>2021-05-17T12:55:34Z</time>
      </trkpt>
      <trkpt lat="41.6379850" lon="-8.7930820">
        <ele>80.7</ele>
        <time>2021-05-17T12:55:35Z</time>
      </trkpt>
      <trkpt lat="41.6380000" lon="-8.7930820">
        <ele>80.6</ele>
        <time>2021-05-17T12:55:36Z</time>
      </trkpt>
      <trkpt lat="41.6380140" lon="-8.7930780">
        <ele>80.5</ele>
        <time>2021-05-17T12:55:37Z</time>
      </trkpt>
      <trkpt lat="41.6380220" lon="-8.7930820">
        <ele>80.5</ele>
        <time>2021-05-17T12:55:38Z</time>
      </trkpt>
      <trkpt lat="41.6380330" lon="-8.7930780">
        <ele>80.4</ele>
        <time>2021-05-17T12:55:39Z</time>
      </trkpt>
      <trkpt lat="41.6380410" lon="-8.7930780">
        <ele>80.3</ele>
        <time>2021-05-17T12:55:40Z</time>
      </trkpt>
      <trkpt lat="41.6380610" lon="-8.7930830">
        <ele>80.2</ele>
        <time>2021-05-17T12:55:41Z</time>
      </trkpt>
      <trkpt lat="41.6380690" lon="-8.7930870">
        <ele>80.1</ele>
        <time>2021-05-17T12:55:42Z</time>
      </trkpt>
      <trkpt lat="41.6380800" lon="-8.7930930">
        <ele>80.1</ele>
        <time>2021-05-17T12:55:43Z</time>
      </trkpt>
      <trkpt lat="41.6380880" lon="-8.7930950">
        <ele>80.0</ele>
        <time>2021-05-17T12:55:44Z</time>
      </trkpt>
      <trkpt lat="41.6381000" lon="-8.7930910">
        <ele>79.9</ele>
        <time>2021-05-17T12:55:45Z</time>
      </trkpt>
      <trkpt lat="41.6381100" lon="-8.7930900">
        <ele>79.9</ele>
        <time>2021-05-17T12:55:46Z</time>
      </trkpt>
      <trkpt lat="41.6381330" lon="-8.7930800">
        <ele>79.7</ele>
        <time>2021-05-17T12:55:47Z</time>
      </trkpt>
      <trkpt lat="41.6381450" lon="-8.7930840">
        <ele>79.6</ele>
        <time>2021-05-17T12:55:48Z</time>
      </trkpt>
      <trkpt lat="41.6381600" lon="-8.7930900">
        <ele>79.5</ele>
        <time>2021-05-17T12:55:49Z</time>
      </trkpt>
      <trkpt lat="41.6381810" lon="-8.7930790">
        <ele>79.4</ele>
        <time>2021-05-17T12:55:50Z</time>
      </trkpt>
      <trkpt lat="41.6381910" lon="-8.7930790">
        <ele>79.3</ele>
        <time>2021-05-17T12:55:51Z</time>
      </trkpt>
      <trkpt lat="41.6382000" lon="-8.7930780">
        <ele>79.2</ele>
        <time>2021-05-17T12:55:52Z</time>
      </trkpt>
      <trkpt lat="41.6382290" lon="-8.7930650">
        <ele>79.0</ele>
        <time>2021-05-17T12:55:53Z</time>
      </trkpt>
      <trkpt lat="41.6382380" lon="-8.7930620">
        <ele>79.0</ele>
        <time>2021-05-17T12:55:54Z</time>
      </trkpt>
      <trkpt lat="41.6382640" lon="-8.7930470">
        <ele>78.8</ele>
        <time>2021-05-17T12:55:55Z</time>
      </trkpt>
      <trkpt lat="41.6382700" lon="-8.7930390">
        <ele>78.7</ele>
        <time>2021-05-17T12:55:56Z</time>
      </trkpt>
      <trkpt lat="41.6382900" lon="-8.7930310">
        <ele>78.6</ele>
        <time>2021-05-17T12:55:57Z</time>
      </trkpt>
      <trkpt lat="41.6382980" lon="-8.7930290">
        <ele>78.5</ele>
        <time>2021-05-17T12:55:58Z</time>
      </trkpt>
      <trkpt lat="41.6383190" lon="-8.7930000">
        <ele>78.3</ele>
        <time>2021-05-17T12:55:59Z</time>
      </trkpt>
      <trkpt lat="41.6383240" lon="-8.7929870">
        <ele>78.3</ele>
        <time>2021-05-17T12:56:00Z</time>
      </trkpt>
      <trkpt lat="41.6383420" lon="-8.7929500">
        <ele>78.3</ele>
        <time>2021-05-17T12:56:01Z</time>
      </trkpt>
      <trkpt lat="41.6383460" lon="-8.7929380">
        <ele>78.3</ele>
        <time>2021-05-17T12:56:02Z</time>
      </trkpt>
      <trkpt lat="41.6383650" lon="-8.7929060">
        <ele>78.1</ele>
        <time>2021-05-17T12:56:03Z</time>
      </trkpt>
      <trkpt lat="41.6383720" lon="-8.7928970">
        <ele>78.1</ele>
        <time>2021-05-17T12:56:04Z</time>
      </trkpt>
      <trkpt lat="41.6383840" lon="-8.7928610">
        <ele>77.8</ele>
        <time>2021-05-17T12:56:05Z</time>
      </trkpt>
      <trkpt lat="41.6383900" lon="-8.7928520">
        <ele>77.8</ele>
        <time>2021-05-17T12:56:06Z</time>
      </trkpt>
      <trkpt lat="41.6383940" lon="-8.7928330">
        <ele>77.8</ele>
        <time>2021-05-17T12:56:07Z</time>
      </trkpt>
      <trkpt lat="41.6383980" lon="-8.7928120">
        <ele>77.8</ele>
        <time>2021-05-17T12:56:08Z</time>
      </trkpt>
      <trkpt lat="41.6384040" lon="-8.7927930">
        <ele>77.8</ele>
        <time>2021-05-17T12:56:09Z</time>
      </trkpt>
      <trkpt lat="41.6384100" lon="-8.7927720">
        <ele>77.8</ele>
        <time>2021-05-17T12:56:10Z</time>
      </trkpt>
      <trkpt lat="41.6384160" lon="-8.7927520">
        <ele>77.5</ele>
        <time>2021-05-17T12:56:11Z</time>
      </trkpt>
      <trkpt lat="41.6384280" lon="-8.7927390">
        <ele>77.5</ele>
        <time>2021-05-17T12:56:12Z</time>
      </trkpt>
      <trkpt lat="41.6384400" lon="-8.7927440">
        <ele>77.5</ele>
        <time>2021-05-17T12:56:13Z</time>
      </trkpt>
      <trkpt lat="41.6384390" lon="-8.7927520">
        <ele>77.5</ele>
        <time>2021-05-17T12:56:14Z</time>
      </trkpt>
      <trkpt lat="41.6384350" lon="-8.7927560">
        <ele>77.5</ele>
        <time>2021-05-17T12:56:15Z</time>
      </trkpt>
      <trkpt lat="41.6384360" lon="-8.7927560">
        <ele>77.5</ele>
        <time>2021-05-17T12:56:16Z</time>
      </trkpt>
      <trkpt lat="41.6384370" lon="-8.7927590">
        <ele>77.5</ele>
        <time>2021-05-17T12:56:17Z</time>
      </trkpt>
      <trkpt lat="41.6384360" lon="-8.7927390">
        <ele>77.4</ele>
        <time>2021-05-17T12:56:18Z</time>
      </trkpt>
      <trkpt lat="41.6384390" lon="-8.7927200">
        <ele>77.4</ele>
        <time>2021-05-17T12:56:19Z</time>
      </trkpt>
      <trkpt lat="41.6384370" lon="-8.7927020">
        <ele>77.4</ele>
        <time>2021-05-17T12:56:20Z</time>
      </trkpt>
      <trkpt lat="41.6384330" lon="-8.7926850">
        <ele>77.4</ele>
        <time>2021-05-17T12:56:21Z</time>
      </trkpt>
      <trkpt lat="41.6384250" lon="-8.7926690">
        <ele>77.3</ele>
        <time>2021-05-17T12:56:22Z</time>
      </trkpt>
      <trkpt lat="41.6384310" lon="-8.7926630">
        <ele>77.3</ele>
        <time>2021-05-17T12:56:23Z</time>
      </trkpt>
      <trkpt lat="41.6384310" lon="-8.7926470">
        <ele>77.3</ele>
        <time>2021-05-17T12:56:24Z</time>
      </trkpt>
      <trkpt lat="41.6384310" lon="-8.7926300">
        <ele>77.3</ele>
        <time>2021-05-17T12:56:25Z</time>
      </trkpt>
      <trkpt lat="41.6384330" lon="-8.7926030">
        <ele>77.3</ele>
        <time>2021-05-17T12:56:26Z</time>
      </trkpt>
      <trkpt lat="41.6384320" lon="-8.7925880">
        <ele>77.2</ele>
        <time>2021-05-17T12:56:27Z</time>
      </trkpt>
      <trkpt lat="41.6384310" lon="-8.7925720">
        <ele>77.2</ele>
        <time>2021-05-17T12:56:28Z</time>
      </trkpt>
      <trkpt lat="41.6384310" lon="-8.7925580">
        <ele>77.2</ele>
        <time>2021-05-17T12:56:29Z</time>
      </trkpt>
      <trkpt lat="41.6384280" lon="-8.7925500">
        <ele>77.2</ele>
        <time>2021-05-17T12:56:30Z</time>
      </trkpt>
      <trkpt lat="41.6384340" lon="-8.7925300">
        <ele>77.2</ele>
        <time>2021-05-17T12:56:31Z</time>
      </trkpt>
      <trkpt lat="41.6384280" lon="-8.7925030">
        <ele>77.2</ele>
        <time>2021-05-17T12:56:32Z</time>
      </trkpt>
      <trkpt lat="41.6384290" lon="-8.7924830">
        <ele>77.1</ele>
        <time>2021-05-17T12:56:33Z</time>
      </trkpt>
      <trkpt lat="41.6384210" lon="-8.7924580">
        <ele>77.1</ele>
        <time>2021-05-17T12:56:34Z</time>
      </trkpt>
      <trkpt lat="41.6384190" lon="-8.7924440">
        <ele>77.1</ele>
        <time>2021-05-17T12:56:35Z</time>
      </trkpt>
      <trkpt lat="41.6384160" lon="-8.7924300">
        <ele>77.1</ele>
        <time>2021-05-17T12:56:36Z</time>
      </trkpt>
      <trkpt lat="41.6384150" lon="-8.7924070">
        <ele>77.1</ele>
        <time>2021-05-17T12:56:37Z</time>
      </trkpt>
      <trkpt lat="41.6384150" lon="-8.7923840">
        <ele>77.1</ele>
        <time>2021-05-17T12:56:38Z</time>
      </trkpt>
      <trkpt lat="41.6384110" lon="-8.7923700">
        <ele>77.1</ele>
        <time>2021-05-17T12:56:39Z</time>
      </trkpt>
      <trkpt lat="41.6384100" lon="-8.7923600">
        <ele>77.4</ele>
        <time>2021-05-17T12:56:40Z</time>
      </trkpt>
      <trkpt lat="41.6384120" lon="-8.7923440">
        <ele>77.0</ele>
        <time>2021-05-17T12:56:41Z</time>
      </trkpt>
      <trkpt lat="41.6384100" lon="-8.7923230">
        <ele>77.3</ele>
        <time>2021-05-17T12:56:42Z</time>
      </trkpt>
      <trkpt lat="41.6384070" lon="-8.7923210">
        <ele>77.3</ele>
        <time>2021-05-17T12:56:43Z</time>
      </trkpt>
      <trkpt lat="41.6384010" lon="-8.7923060">
        <ele>77.3</ele>
        <time>2021-05-17T12:56:44Z</time>
      </trkpt>
      <trkpt lat="41.6384000" lon="-8.7922910">
        <ele>77.3</ele>
        <time>2021-05-17T12:56:45Z</time>
      </trkpt>
      <trkpt lat="41.6384010" lon="-8.7922680">
        <ele>77.3</ele>
        <time>2021-05-17T12:56:46Z</time>
      </trkpt>
      <trkpt lat="41.6383950" lon="-8.7922290">
        <ele>77.2</ele>
        <time>2021-05-17T12:56:47Z</time>
      </trkpt>
      <trkpt lat="41.6383930" lon="-8.7922210">
        <ele>77.2</ele>
        <time>2021-05-17T12:56:48Z</time>
      </trkpt>
      <trkpt lat="41.6383900" lon="-8.7921930">
        <ele>77.1</ele>
        <time>2021-05-17T12:56:49Z</time>
      </trkpt>
      <trkpt lat="41.6383900" lon="-8.7921810">
        <ele>77.1</ele>
        <time>2021-05-17T12:56:50Z</time>
      </trkpt>
      <trkpt lat="41.6383890" lon="-8.7921680">
        <ele>77.1</ele>
        <time>2021-05-17T12:56:51Z</time>
      </trkpt>
      <trkpt lat="41.6383880" lon="-8.7921560">
        <ele>77.1</ele>
        <time>2021-05-17T12:56:52Z</time>
      </trkpt>
      <trkpt lat="41.6383900" lon="-8.7921420">
        <ele>77.0</ele>
        <time>2021-05-17T12:56:53Z</time>
      </trkpt>
      <trkpt lat="41.6383870" lon="-8.7921250">
        <ele>77.0</ele>
        <time>2021-05-17T12:56:54Z</time>
      </trkpt>
      <trkpt lat="41.6383880" lon="-8.7920970">
        <ele>76.9</ele>
        <time>2021-05-17T12:56:55Z</time>
      </trkpt>
      <trkpt lat="41.6383870" lon="-8.7920810">
        <ele>76.9</ele>
        <time>2021-05-17T12:56:56Z</time>
      </trkpt>
      <trkpt lat="41.6383850" lon="-8.7920420">
        <ele>76.8</ele>
        <time>2021-05-17T12:56:57Z</time>
      </trkpt>
      <trkpt lat="41.6383840" lon="-8.7920280">
        <ele>76.8</ele>
        <time>2021-05-17T12:56:58Z</time>
      </trkpt>
      <trkpt lat="41.6383820" lon="-8.7919930">
        <ele>76.7</ele>
        <time>2021-05-17T12:56:59Z</time>
      </trkpt>
      <trkpt lat="41.6383820" lon="-8.7919780">
        <ele>76.6</ele>
        <time>2021-05-17T12:57:00Z</time>
      </trkpt>
      <trkpt lat="41.6383810" lon="-8.7919590">
        <ele>76.6</ele>
        <time>2021-05-17T12:57:01Z</time>
      </trkpt>
      <trkpt lat="41.6383820" lon="-8.7919450">
        <ele>76.6</ele>
        <time>2021-05-17T12:57:02Z</time>
      </trkpt>
      <trkpt lat="41.6383830" lon="-8.7919320">
        <ele>76.5</ele>
        <time>2021-05-17T12:57:03Z</time>
      </trkpt>
      <trkpt lat="41.6383860" lon="-8.7919190">
        <ele>76.5</ele>
        <time>2021-05-17T12:57:04Z</time>
      </trkpt>
      <trkpt lat="41.6383890" lon="-8.7919070">
        <ele>76.5</ele>
        <time>2021-05-17T12:57:05Z</time>
      </trkpt>
      <trkpt lat="41.6383880" lon="-8.7918900">
        <ele>76.3</ele>
        <time>2021-05-17T12:57:06Z</time>
      </trkpt>
      <trkpt lat="41.6383880" lon="-8.7918720">
        <ele>76.3</ele>
        <time>2021-05-17T12:57:07Z</time>
      </trkpt>
      <trkpt lat="41.6383850" lon="-8.7918500">
        <ele>76.1</ele>
        <time>2021-05-17T12:57:08Z</time>
      </trkpt>
      <trkpt lat="41.6383830" lon="-8.7918110">
        <ele>76.1</ele>
        <time>2021-05-17T12:57:09Z</time>
      </trkpt>
      <trkpt lat="41.6383830" lon="-8.7917980">
        <ele>76.0</ele>
        <time>2021-05-17T12:57:10Z</time>
      </trkpt>
      <trkpt lat="41.6383820" lon="-8.7917670">
        <ele>76.0</ele>
        <time>2021-05-17T12:57:11Z</time>
      </trkpt>
      <trkpt lat="41.6383790" lon="-8.7917550">
        <ele>75.9</ele>
        <time>2021-05-17T12:57:12Z</time>
      </trkpt>
      <trkpt lat="41.6383750" lon="-8.7917430">
        <ele>76.1</ele>
        <time>2021-05-17T12:57:13Z</time>
      </trkpt>
      <trkpt lat="41.6383660" lon="-8.7917030">
        <ele>75.9</ele>
        <time>2021-05-17T12:57:14Z</time>
      </trkpt>
      <trkpt lat="41.6383600" lon="-8.7916940">
        <ele>75.9</ele>
        <time>2021-05-17T12:57:15Z</time>
      </trkpt>
      <trkpt lat="41.6383580" lon="-8.7916680">
        <ele>75.8</ele>
        <time>2021-05-17T12:57:16Z</time>
      </trkpt>
      <trkpt lat="41.6383590" lon="-8.7916500">
        <ele>75.7</ele>
        <time>2021-05-17T12:57:17Z</time>
      </trkpt>
      <trkpt lat="41.6383570" lon="-8.7916310">
        <ele>75.6</ele>
        <time>2021-05-17T12:57:18Z</time>
      </trkpt>
      <trkpt lat="41.6383600" lon="-8.7916100">
        <ele>75.6</ele>
        <time>2021-05-17T12:57:19Z</time>
      </trkpt>
      <trkpt lat="41.6383600" lon="-8.7915970">
        <ele>75.5</ele>
        <time>2021-05-17T12:57:20Z</time>
      </trkpt>
      <trkpt lat="41.6383590" lon="-8.7915700">
        <ele>75.4</ele>
        <time>2021-05-17T12:57:21Z</time>
      </trkpt>
      <trkpt lat="41.6383510" lon="-8.7915420">
        <ele>75.2</ele>
        <time>2021-05-17T12:57:22Z</time>
      </trkpt>
      <trkpt lat="41.6383510" lon="-8.7915260">
        <ele>75.2</ele>
        <time>2021-05-17T12:57:23Z</time>
      </trkpt>
      <trkpt lat="41.6383490" lon="-8.7915120">
        <ele>75.2</ele>
        <time>2021-05-17T12:57:24Z</time>
      </trkpt>
      <trkpt lat="41.6383450" lon="-8.7914890">
        <ele>75.3</ele>
        <time>2021-05-17T12:57:25Z</time>
      </trkpt>
      <trkpt lat="41.6383470" lon="-8.7914600">
        <ele>74.8</ele>
        <time>2021-05-17T12:57:26Z</time>
      </trkpt>
      <trkpt lat="41.6383440" lon="-8.7914520">
        <ele>75.1</ele>
        <time>2021-05-17T12:57:27Z</time>
      </trkpt>
      <trkpt lat="41.6383460" lon="-8.7914230">
        <ele>75.1</ele>
        <time>2021-05-17T12:57:28Z</time>
      </trkpt>
      <trkpt lat="41.6383410" lon="-8.7914080">
        <ele>74.9</ele>
        <time>2021-05-17T12:57:29Z</time>
      </trkpt>
      <trkpt lat="41.6383400" lon="-8.7913790">
        <ele>74.7</ele>
        <time>2021-05-17T12:57:30Z</time>
      </trkpt>
      <trkpt lat="41.6383370" lon="-8.7913660">
        <ele>74.6</ele>
        <time>2021-05-17T12:57:31Z</time>
      </trkpt>
      <trkpt lat="41.6383330" lon="-8.7913340">
        <ele>74.4</ele>
        <time>2021-05-17T12:57:32Z</time>
      </trkpt>
      <trkpt lat="41.6383320" lon="-8.7913210">
        <ele>74.4</ele>
        <time>2021-05-17T12:57:33Z</time>
      </trkpt>
      <trkpt lat="41.6383310" lon="-8.7913070">
        <ele>74.4</ele>
        <time>2021-05-17T12:57:34Z</time>
      </trkpt>
      <trkpt lat="41.6383320" lon="-8.7912870">
        <ele>74.2</ele>
        <time>2021-05-17T12:57:35Z</time>
      </trkpt>
      <trkpt lat="41.6383300" lon="-8.7912720">
        <ele>74.2</ele>
        <time>2021-05-17T12:57:36Z</time>
      </trkpt>
      <trkpt lat="41.6383260" lon="-8.7912620">
        <ele>74.2</ele>
        <time>2021-05-17T12:57:37Z</time>
      </trkpt>
      <trkpt lat="41.6383220" lon="-8.7912320">
        <ele>73.9</ele>
        <time>2021-05-17T12:57:38Z</time>
      </trkpt>
      <trkpt lat="41.6383210" lon="-8.7912210">
        <ele>73.9</ele>
        <time>2021-05-17T12:57:39Z</time>
      </trkpt>
      <trkpt lat="41.6383200" lon="-8.7912100">
        <ele>73.9</ele>
        <time>2021-05-17T12:57:40Z</time>
      </trkpt>
      <trkpt lat="41.6383230" lon="-8.7911980">
        <ele>73.6</ele>
        <time>2021-05-17T12:57:41Z</time>
      </trkpt>
      <trkpt lat="41.6383190" lon="-8.7911720">
        <ele>73.6</ele>
        <time>2021-05-17T12:57:42Z</time>
      </trkpt>
      <trkpt lat="41.6383250" lon="-8.7911390">
        <ele>73.4</ele>
        <time>2021-05-17T12:57:43Z</time>
      </trkpt>
      <trkpt lat="41.6383230" lon="-8.7911230">
        <ele>73.3</ele>
        <time>2021-05-17T12:57:44Z</time>
      </trkpt>
      <trkpt lat="41.6383260" lon="-8.7911060">
        <ele>73.1</ele>
        <time>2021-05-17T12:57:45Z</time>
      </trkpt>
      <trkpt lat="41.6383180" lon="-8.7910790">
        <ele>72.8</ele>
        <time>2021-05-17T12:57:46Z</time>
      </trkpt>
      <trkpt lat="41.6383170" lon="-8.7910600">
        <ele>72.8</ele>
        <time>2021-05-17T12:57:47Z</time>
      </trkpt>
      <trkpt lat="41.6383180" lon="-8.7910370">
        <ele>72.7</ele>
        <time>2021-05-17T12:57:48Z</time>
      </trkpt>
      <trkpt lat="41.6383210" lon="-8.7910270">
        <ele>72.5</ele>
        <time>2021-05-17T12:57:49Z</time>
      </trkpt>
      <trkpt lat="41.6383210" lon="-8.7910020">
        <ele>72.5</ele>
        <time>2021-05-17T12:57:50Z</time>
      </trkpt>
      <trkpt lat="41.6383190" lon="-8.7909910">
        <ele>72.2</ele>
        <time>2021-05-17T12:57:51Z</time>
      </trkpt>
      <trkpt lat="41.6383130" lon="-8.7909640">
        <ele>72.6</ele>
        <time>2021-05-17T12:57:52Z</time>
      </trkpt>
      <trkpt lat="41.6383110" lon="-8.7909570">
        <ele>72.6</ele>
        <time>2021-05-17T12:57:53Z</time>
      </trkpt>
      <trkpt lat="41.6383090" lon="-8.7909500">
        <ele>72.3</ele>
        <time>2021-05-17T12:57:54Z</time>
      </trkpt>
      <trkpt lat="41.6383070" lon="-8.7909430">
        <ele>72.3</ele>
        <time>2021-05-17T12:57:55Z</time>
      </trkpt>
      <trkpt lat="41.6383090" lon="-8.7909250">
        <ele>72.3</ele>
        <time>2021-05-17T12:57:56Z</time>
      </trkpt>
      <trkpt lat="41.6383030" lon="-8.7909050">
        <ele>72.1</ele>
        <time>2021-05-17T12:57:57Z</time>
      </trkpt>
      <trkpt lat="41.6382990" lon="-8.7908940">
        <ele>72.0</ele>
        <time>2021-05-17T12:57:58Z</time>
      </trkpt>
      <trkpt lat="41.6382970" lon="-8.7908830">
        <ele>72.0</ele>
        <time>2021-05-17T12:57:59Z</time>
      </trkpt>
      <trkpt lat="41.6382940" lon="-8.7908650">
        <ele>72.0</ele>
        <time>2021-05-17T12:58:00Z</time>
      </trkpt>
      <trkpt lat="41.6382940" lon="-8.7908350">
        <ele>71.8</ele>
        <time>2021-05-17T12:58:01Z</time>
      </trkpt>
      <trkpt lat="41.6382940" lon="-8.7908230">
        <ele>71.8</ele>
        <time>2021-05-17T12:58:02Z</time>
      </trkpt>
      <trkpt lat="41.6382950" lon="-8.7908110">
        <ele>71.5</ele>
        <time>2021-05-17T12:58:03Z</time>
      </trkpt>
      <trkpt lat="41.6382890" lon="-8.7907910">
        <ele>71.5</ele>
        <time>2021-05-17T12:58:04Z</time>
      </trkpt>
      <trkpt lat="41.6382870" lon="-8.7907810">
        <ele>71.5</ele>
        <time>2021-05-17T12:58:05Z</time>
      </trkpt>
      <trkpt lat="41.6382840" lon="-8.7907720">
        <ele>71.2</ele>
        <time>2021-05-17T12:58:06Z</time>
      </trkpt>
      <trkpt lat="41.6382820" lon="-8.7907620">
        <ele>71.6</ele>
        <time>2021-05-17T12:58:07Z</time>
      </trkpt>
      <trkpt lat="41.6382730" lon="-8.7907490">
        <ele>71.6</ele>
        <time>2021-05-17T12:58:08Z</time>
      </trkpt>
      <trkpt lat="41.6382680" lon="-8.7907400">
        <ele>71.6</ele>
        <time>2021-05-17T12:58:09Z</time>
      </trkpt>
      <trkpt lat="41.6382560" lon="-8.7907280">
        <ele>71.2</ele>
        <time>2021-05-17T12:58:10Z</time>
      </trkpt>
      <trkpt lat="41.6382500" lon="-8.7907210">
        <ele>71.6</ele>
        <time>2021-05-17T12:58:11Z</time>
      </trkpt>
      <trkpt lat="41.6382450" lon="-8.7907130">
        <ele>71.6</ele>
        <time>2021-05-17T12:58:12Z</time>
      </trkpt>
      <trkpt lat="41.6382420" lon="-8.7907080">
        <ele>71.6</ele>
        <time>2021-05-17T12:58:13Z</time>
      </trkpt>
      <trkpt lat="41.6382370" lon="-8.7906890">
        <ele>71.2</ele>
        <time>2021-05-17T12:58:14Z</time>
      </trkpt>
      <trkpt lat="41.6382300" lon="-8.7906790">
        <ele>71.2</ele>
        <time>2021-05-17T12:58:15Z</time>
      </trkpt>
      <trkpt lat="41.6382280" lon="-8.7906640">
        <ele>71.2</ele>
        <time>2021-05-17T12:58:16Z</time>
      </trkpt>
      <trkpt lat="41.6382200" lon="-8.7906500">
        <ele>70.8</ele>
        <time>2021-05-17T12:58:17Z</time>
      </trkpt>
      <trkpt lat="41.6382220" lon="-8.7906410">
        <ele>70.8</ele>
        <time>2021-05-17T12:58:18Z</time>
      </trkpt>
      <trkpt lat="41.6382240" lon="-8.7906250">
        <ele>70.8</ele>
        <time>2021-05-17T12:58:19Z</time>
      </trkpt>
      <trkpt lat="41.6382210" lon="-8.7906080">
        <ele>70.8</ele>
        <time>2021-05-17T12:58:20Z</time>
      </trkpt>
      <trkpt lat="41.6382200" lon="-8.7906000">
        <ele>70.4</ele>
        <time>2021-05-17T12:58:21Z</time>
      </trkpt>
      <trkpt lat="41.6382210" lon="-8.7905830">
        <ele>70.4</ele>
        <time>2021-05-17T12:58:22Z</time>
      </trkpt>
      <trkpt lat="41.6382210" lon="-8.7905660">
        <ele>70.4</ele>
        <time>2021-05-17T12:58:23Z</time>
      </trkpt>
      <trkpt lat="41.6382310" lon="-8.7905520">
        <ele>70.0</ele>
        <time>2021-05-17T12:58:24Z</time>
      </trkpt>
      <trkpt lat="41.6382390" lon="-8.7905540">
        <ele>70.0</ele>
        <time>2021-05-17T12:58:25Z</time>
      </trkpt>
      <trkpt lat="41.6382470" lon="-8.7905570">
        <ele>70.0</ele>
        <time>2021-05-17T12:58:26Z</time>
      </trkpt>
      <trkpt lat="41.6382550" lon="-8.7905590">
        <ele>69.6</ele>
        <time>2021-05-17T12:58:27Z</time>
      </trkpt>
      <trkpt lat="41.6382630" lon="-8.7905610">
        <ele>69.6</ele>
        <time>2021-05-17T12:58:28Z</time>
      </trkpt>
      <trkpt lat="41.6382710" lon="-8.7905530">
        <ele>69.6</ele>
        <time>2021-05-17T12:58:29Z</time>
      </trkpt>
      <trkpt lat="41.6382870" lon="-8.7905370">
        <ele>69.3</ele>
        <time>2021-05-17T12:58:30Z</time>
      </trkpt>
      <trkpt lat="41.6382950" lon="-8.7905180">
        <ele>68.9</ele>
        <time>2021-05-17T12:58:31Z</time>
      </trkpt>
      <trkpt lat="41.6383000" lon="-8.7905060">
        <ele>68.9</ele>
        <time>2021-05-17T12:58:32Z</time>
      </trkpt>
      <trkpt lat="41.6383060" lon="-8.7904940">
        <ele>68.9</ele>
        <time>2021-05-17T12:58:33Z</time>
      </trkpt>
      <trkpt lat="41.6383080" lon="-8.7904650">
        <ele>68.5</ele>
        <time>2021-05-17T12:58:34Z</time>
      </trkpt>
      <trkpt lat="41.6383000" lon="-8.7904540">
        <ele>68.5</ele>
        <time>2021-05-17T12:58:35Z</time>
      </trkpt>
      <trkpt lat="41.6382930" lon="-8.7904430">
        <ele>68.5</ele>
        <time>2021-05-17T12:58:36Z</time>
      </trkpt>
      <trkpt lat="41.6382740" lon="-8.7904260">
        <ele>68.5</ele>
        <time>2021-05-17T12:58:37Z</time>
      </trkpt>
      <trkpt lat="41.6382660" lon="-8.7904150">
        <ele>68.5</ele>
        <time>2021-05-17T12:58:38Z</time>
      </trkpt>
      <trkpt lat="41.6382560" lon="-8.7904100">
        <ele>68.5</ele>
        <time>2021-05-17T12:58:39Z</time>
      </trkpt>
      <trkpt lat="41.6382540" lon="-8.7904040">
        <ele>68.5</ele>
        <time>2021-05-17T12:58:40Z</time>
      </trkpt>
      <trkpt lat="41.6382450" lon="-8.7903950">
        <ele>68.8</ele>
        <time>2021-05-17T12:58:41Z</time>
      </trkpt>
      <trkpt lat="41.6382380" lon="-8.7903860">
        <ele>68.5</ele>
        <time>2021-05-17T12:58:42Z</time>
      </trkpt>
      <trkpt lat="41.6382170" lon="-8.7903700">
        <ele>68.8</ele>
        <time>2021-05-17T12:58:43Z</time>
      </trkpt>
      <trkpt lat="41.6382080" lon="-8.7903620">
        <ele>68.8</ele>
        <time>2021-05-17T12:58:44Z</time>
      </trkpt>
      <trkpt lat="41.6381980" lon="-8.7903540">
        <ele>68.8</ele>
        <time>2021-05-17T12:58:45Z</time>
      </trkpt>
      <trkpt lat="41.6381820" lon="-8.7903410">
        <ele>68.8</ele>
        <time>2021-05-17T12:58:46Z</time>
      </trkpt>
      <trkpt lat="41.6381730" lon="-8.7903350">
        <ele>68.8</ele>
        <time>2021-05-17T12:58:47Z</time>
      </trkpt>
      <trkpt lat="41.6381650" lon="-8.7903290">
        <ele>68.8</ele>
        <time>2021-05-17T12:58:48Z</time>
      </trkpt>
      <trkpt lat="41.6381560" lon="-8.7903260">
        <ele>68.8</ele>
        <time>2021-05-17T12:58:49Z</time>
      </trkpt>
      <trkpt lat="41.6381500" lon="-8.7903200">
        <ele>69.1</ele>
        <time>2021-05-17T12:58:50Z</time>
      </trkpt>
      <trkpt lat="41.6381470" lon="-8.7903070">
        <ele>68.9</ele>
        <time>2021-05-17T12:58:51Z</time>
      </trkpt>
      <trkpt lat="41.6381410" lon="-8.7902930">
        <ele>68.9</ele>
        <time>2021-05-17T12:58:52Z</time>
      </trkpt>
      <trkpt lat="41.6381370" lon="-8.7902830">
        <ele>68.9</ele>
        <time>2021-05-17T12:58:53Z</time>
      </trkpt>
      <trkpt lat="41.6381320" lon="-8.7902660">
        <ele>68.8</ele>
        <time>2021-05-17T12:58:54Z</time>
      </trkpt>
      <trkpt lat="41.6381200" lon="-8.7902560">
        <ele>69.0</ele>
        <time>2021-05-17T12:58:55Z</time>
      </trkpt>
      <trkpt lat="41.6381080" lon="-8.7902590">
        <ele>69.0</ele>
        <time>2021-05-17T12:58:56Z</time>
      </trkpt>
      <trkpt lat="41.6381000" lon="-8.7902600">
        <ele>68.9</ele>
        <time>2021-05-17T12:58:57Z</time>
      </trkpt>
      <trkpt lat="41.6380900" lon="-8.7902520">
        <ele>68.9</ele>
        <time>2021-05-17T12:58:58Z</time>
      </trkpt>
      <trkpt lat="41.6380890" lon="-8.7902370">
        <ele>69.3</ele>
        <time>2021-05-17T12:58:59Z</time>
      </trkpt>
      <trkpt lat="41.6380820" lon="-8.7902220">
        <ele>69.3</ele>
        <time>2021-05-17T12:59:00Z</time>
      </trkpt>
      <trkpt lat="41.6380820" lon="-8.7902090">
        <ele>69.1</ele>
        <time>2021-05-17T12:59:01Z</time>
      </trkpt>
      <trkpt lat="41.6380810" lon="-8.7901760">
        <ele>68.8</ele>
        <time>2021-05-17T12:59:02Z</time>
      </trkpt>
      <trkpt lat="41.6380780" lon="-8.7901620">
        <ele>68.8</ele>
        <time>2021-05-17T12:59:03Z</time>
      </trkpt>
      <trkpt lat="41.6380740" lon="-8.7901490">
        <ele>68.8</ele>
        <time>2021-05-17T12:59:04Z</time>
      </trkpt>
      <trkpt lat="41.6380670" lon="-8.7901220">
        <ele>68.6</ele>
        <time>2021-05-17T12:59:05Z</time>
      </trkpt>
      <trkpt lat="41.6380620" lon="-8.7901100">
        <ele>68.6</ele>
        <time>2021-05-17T12:59:06Z</time>
      </trkpt>
      <trkpt lat="41.6380570" lon="-8.7900990">
        <ele>69.0</ele>
        <time>2021-05-17T12:59:07Z</time>
      </trkpt>
      <trkpt lat="41.6380590" lon="-8.7900780">
        <ele>68.4</ele>
        <time>2021-05-17T12:59:08Z</time>
      </trkpt>
      <trkpt lat="41.6380610" lon="-8.7900630">
        <ele>68.4</ele>
        <time>2021-05-17T12:59:09Z</time>
      </trkpt>
      <trkpt lat="41.6380630" lon="-8.7900460">
        <ele>68.2</ele>
        <time>2021-05-17T12:59:10Z</time>
      </trkpt>
      <trkpt lat="41.6380690" lon="-8.7900310">
        <ele>68.2</ele>
        <time>2021-05-17T12:59:11Z</time>
      </trkpt>
      <trkpt lat="41.6380680" lon="-8.7900160">
        <ele>68.2</ele>
        <time>2021-05-17T12:59:12Z</time>
      </trkpt>
      <trkpt lat="41.6380740" lon="-8.7899980">
        <ele>68.0</ele>
        <time>2021-05-17T12:59:13Z</time>
      </trkpt>
      <trkpt lat="41.6380740" lon="-8.7899850">
        <ele>68.0</ele>
        <time>2021-05-17T12:59:14Z</time>
      </trkpt>
      <trkpt lat="41.6380740" lon="-8.7899770">
        <ele>68.0</ele>
        <time>2021-05-17T12:59:15Z</time>
      </trkpt>
      <trkpt lat="41.6380690" lon="-8.7899560">
        <ele>67.9</ele>
        <time>2021-05-17T12:59:16Z</time>
      </trkpt>
      <trkpt lat="41.6380690" lon="-8.7899310">
        <ele>67.9</ele>
        <time>2021-05-17T12:59:17Z</time>
      </trkpt>
      <trkpt lat="41.6380720" lon="-8.7899230">
        <ele>67.8</ele>
        <time>2021-05-17T12:59:18Z</time>
      </trkpt>
      <trkpt lat="41.6380720" lon="-8.7899060">
        <ele>67.7</ele>
        <time>2021-05-17T12:59:19Z</time>
      </trkpt>
      <trkpt lat="41.6380740" lon="-8.7898870">
        <ele>67.7</ele>
        <time>2021-05-17T12:59:20Z</time>
      </trkpt>
      <trkpt lat="41.6380610" lon="-8.7898540">
        <ele>67.5</ele>
        <time>2021-05-17T12:59:21Z</time>
      </trkpt>
      <trkpt lat="41.6380590" lon="-8.7898430">
        <ele>67.5</ele>
        <time>2021-05-17T12:59:22Z</time>
      </trkpt>
      <trkpt lat="41.6380510" lon="-8.7898110">
        <ele>67.7</ele>
        <time>2021-05-17T12:59:23Z</time>
      </trkpt>
      <trkpt lat="41.6380520" lon="-8.7898020">
        <ele>67.6</ele>
        <time>2021-05-17T12:59:24Z</time>
      </trkpt>
      <trkpt lat="41.6380520" lon="-8.7897940">
        <ele>67.6</ele>
        <time>2021-05-17T12:59:25Z</time>
      </trkpt>
      <trkpt lat="41.6380510" lon="-8.7897760">
        <ele>67.5</ele>
        <time>2021-05-17T12:59:26Z</time>
      </trkpt>
      <trkpt lat="41.6380510" lon="-8.7897500">
        <ele>67.5</ele>
        <time>2021-05-17T12:59:27Z</time>
      </trkpt>
      <trkpt lat="41.6380470" lon="-8.7897240">
        <ele>67.4</ele>
        <time>2021-05-17T12:59:28Z</time>
      </trkpt>
      <trkpt lat="41.6380420" lon="-8.7897100">
        <ele>67.4</ele>
        <time>2021-05-17T12:59:29Z</time>
      </trkpt>
      <trkpt lat="41.6380180" lon="-8.7896750">
        <ele>67.6</ele>
        <time>2021-05-17T12:59:30Z</time>
      </trkpt>
      <trkpt lat="41.6380050" lon="-8.7896640">
        <ele>67.6</ele>
        <time>2021-05-17T12:59:31Z</time>
      </trkpt>
      <trkpt lat="41.6379920" lon="-8.7896500">
        <ele>67.8</ele>
        <time>2021-05-17T12:59:32Z</time>
      </trkpt>
      <trkpt lat="41.6379840" lon="-8.7896410">
        <ele>67.8</ele>
        <time>2021-05-17T12:59:33Z</time>
      </trkpt>
      <trkpt lat="41.6379810" lon="-8.7896350">
        <ele>67.8</ele>
        <time>2021-05-17T12:59:34Z</time>
      </trkpt>
      <trkpt lat="41.6379730" lon="-8.7896190">
        <ele>67.8</ele>
        <time>2021-05-17T12:59:35Z</time>
      </trkpt>
      <trkpt lat="41.6379700" lon="-8.7895860">
        <ele>67.8</ele>
        <time>2021-05-17T12:59:36Z</time>
      </trkpt>
      <trkpt lat="41.6379690" lon="-8.7895710">
        <ele>67.8</ele>
        <time>2021-05-17T12:59:37Z</time>
      </trkpt>
      <trkpt lat="41.6379670" lon="-8.7895440">
        <ele>67.8</ele>
        <time>2021-05-17T12:59:38Z</time>
      </trkpt>
      <trkpt lat="41.6379620" lon="-8.7895330">
        <ele>67.9</ele>
        <time>2021-05-17T12:59:39Z</time>
      </trkpt>
      <trkpt lat="41.6379580" lon="-8.7895230">
        <ele>68.1</ele>
        <time>2021-05-17T12:59:40Z</time>
      </trkpt>
      <trkpt lat="41.6379560" lon="-8.7894930">
        <ele>68.1</ele>
        <time>2021-05-17T12:59:41Z</time>
      </trkpt>
      <trkpt lat="41.6379520" lon="-8.7894830">
        <ele>68.2</ele>
        <time>2021-05-17T12:59:42Z</time>
      </trkpt>
      <trkpt lat="41.6379470" lon="-8.7894720">
        <ele>68.2</ele>
        <time>2021-05-17T12:59:43Z</time>
      </trkpt>
      <trkpt lat="41.6379380" lon="-8.7894540">
        <ele>68.2</ele>
        <time>2021-05-17T12:59:44Z</time>
      </trkpt>
      <trkpt lat="41.6379360" lon="-8.7894430">
        <ele>68.3</ele>
        <time>2021-05-17T12:59:45Z</time>
      </trkpt>
      <trkpt lat="41.6379340" lon="-8.7894270">
        <ele>68.3</ele>
        <time>2021-05-17T12:59:46Z</time>
      </trkpt>
      <trkpt lat="41.6379360" lon="-8.7894220">
        <ele>68.3</ele>
        <time>2021-05-17T12:59:47Z</time>
      </trkpt>
      <trkpt lat="41.6379310" lon="-8.7894070">
        <ele>68.3</ele>
        <time>2021-05-17T12:59:48Z</time>
      </trkpt>
      <trkpt lat="41.6379190" lon="-8.7893930">
        <ele>68.6</ele>
        <time>2021-05-17T12:59:49Z</time>
      </trkpt>
      <trkpt lat="41.6379190" lon="-8.7893800">
        <ele>68.6</ele>
        <time>2021-05-17T12:59:50Z</time>
      </trkpt>
      <trkpt lat="41.6379130" lon="-8.7893670">
        <ele>68.6</ele>
        <time>2021-05-17T12:59:51Z</time>
      </trkpt>
      <trkpt lat="41.6379080" lon="-8.7893530">
        <ele>68.7</ele>
        <time>2021-05-17T12:59:52Z</time>
      </trkpt>
      <trkpt lat="41.6379020" lon="-8.7893430">
        <ele>68.7</ele>
        <time>2021-05-17T12:59:53Z</time>
      </trkpt>
      <trkpt lat="41.6379010" lon="-8.7893180">
        <ele>68.8</ele>
        <time>2021-05-17T12:59:54Z</time>
      </trkpt>
      <trkpt lat="41.6378980" lon="-8.7893060">
        <ele>68.8</ele>
        <time>2021-05-17T12:59:55Z</time>
      </trkpt>
      <trkpt lat="41.6378960" lon="-8.7892960">
        <ele>69.0</ele>
        <time>2021-05-17T12:59:56Z</time>
      </trkpt>
      <trkpt lat="41.6378930" lon="-8.7892910">
        <ele>69.0</ele>
        <time>2021-05-17T12:59:57Z</time>
      </trkpt>
      <trkpt lat="41.6378970" lon="-8.7892760">
        <ele>69.1</ele>
        <time>2021-05-17T12:59:58Z</time>
      </trkpt>
      <trkpt lat="41.6378950" lon="-8.7892680">
        <ele>69.1</ele>
        <time>2021-05-17T12:59:59Z</time>
      </trkpt>
      <trkpt lat="41.6378880" lon="-8.7892510">
        <ele>69.1</ele>
        <time>2021-05-17T13:00:00Z</time>
      </trkpt>
      <trkpt lat="41.6378810" lon="-8.7892380">
        <ele>69.1</ele>
        <time>2021-05-17T13:00:01Z</time>
      </trkpt>
      <trkpt lat="41.6378750" lon="-8.7892250">
        <ele>69.2</ele>
        <time>2021-05-17T13:00:02Z</time>
      </trkpt>
      <trkpt lat="41.6378700" lon="-8.7892130">
        <ele>69.1</ele>
        <time>2021-05-17T13:00:03Z</time>
      </trkpt>
      <trkpt lat="41.6378640" lon="-8.7892010">
        <ele>69.4</ele>
        <time>2021-05-17T13:00:04Z</time>
      </trkpt>
      <trkpt lat="41.6378620" lon="-8.7891930">
        <ele>69.4</ele>
        <time>2021-05-17T13:00:05Z</time>
      </trkpt>
      <trkpt lat="41.6378580" lon="-8.7891830">
        <ele>69.5</ele>
        <time>2021-05-17T13:00:06Z</time>
      </trkpt>
      <trkpt lat="41.6378510" lon="-8.7891730">
        <ele>69.4</ele>
        <time>2021-05-17T13:00:07Z</time>
      </trkpt>
      <trkpt lat="41.6378490" lon="-8.7891710">
        <ele>69.4</ele>
        <time>2021-05-17T13:00:08Z</time>
      </trkpt>
      <trkpt lat="41.6378440" lon="-8.7891490">
        <ele>69.4</ele>
        <time>2021-05-17T13:00:09Z</time>
      </trkpt>
      <trkpt lat="41.6378410" lon="-8.7891360">
        <ele>69.5</ele>
        <time>2021-05-17T13:00:10Z</time>
      </trkpt>
      <trkpt lat="41.6378390" lon="-8.7891240">
        <ele>69.5</ele>
        <time>2021-05-17T13:00:11Z</time>
      </trkpt>
      <trkpt lat="41.6378170" lon="-8.7890880">
        <ele>69.9</ele>
        <time>2021-05-17T13:00:12Z</time>
      </trkpt>
      <trkpt lat="41.6378100" lon="-8.7890750">
        <ele>69.8</ele>
        <time>2021-05-17T13:00:13Z</time>
      </trkpt>
      <trkpt lat="41.6378110" lon="-8.7890510">
        <ele>70.0</ele>
        <time>2021-05-17T13:00:14Z</time>
      </trkpt>
      <trkpt lat="41.6378050" lon="-8.7890310">
        <ele>70.0</ele>
        <time>2021-05-17T13:00:15Z</time>
      </trkpt>
      <trkpt lat="41.6377990" lon="-8.7890180">
        <ele>70.4</ele>
        <time>2021-05-17T13:00:16Z</time>
      </trkpt>
      <trkpt lat="41.6377930" lon="-8.7889970">
        <ele>70.4</ele>
        <time>2021-05-17T13:00:17Z</time>
      </trkpt>
      <trkpt lat="41.6377890" lon="-8.7889850">
        <ele>70.4</ele>
        <time>2021-05-17T13:00:18Z</time>
      </trkpt>
      <trkpt lat="41.6377800" lon="-8.7889650">
        <ele>70.6</ele>
        <time>2021-05-17T13:00:19Z</time>
      </trkpt>
      <trkpt lat="41.6377710" lon="-8.7889450">
        <ele>70.6</ele>
        <time>2021-05-17T13:00:20Z</time>
      </trkpt>
      <trkpt lat="41.6377700" lon="-8.7889390">
        <ele>70.6</ele>
        <time>2021-05-17T13:00:21Z</time>
      </trkpt>
      <trkpt lat="41.6377660" lon="-8.7889310">
        <ele>71.1</ele>
        <time>2021-05-17T13:00:22Z</time>
      </trkpt>
      <trkpt lat="41.6377560" lon="-8.7889000">
        <ele>71.1</ele>
        <time>2021-05-17T13:00:23Z</time>
      </trkpt>
      <trkpt lat="41.6377510" lon="-8.7888900">
        <ele>71.3</ele>
        <time>2021-05-17T13:00:24Z</time>
      </trkpt>
      <trkpt lat="41.6377450" lon="-8.7888810">
        <ele>71.3</ele>
        <time>2021-05-17T13:00:25Z</time>
      </trkpt>
      <trkpt lat="41.6377380" lon="-8.7888440">
        <ele>71.5</ele>
        <time>2021-05-17T13:00:26Z</time>
      </trkpt>
      <trkpt lat="41.6377370" lon="-8.7888330">
        <ele>71.9</ele>
        <time>2021-05-17T13:00:27Z</time>
      </trkpt>
      <trkpt lat="41.6377330" lon="-8.7888080">
        <ele>71.9</ele>
        <time>2021-05-17T13:00:28Z</time>
      </trkpt>
      <trkpt lat="41.6377310" lon="-8.7887960">
        <ele>72.2</ele>
        <time>2021-05-17T13:00:29Z</time>
      </trkpt>
      <trkpt lat="41.6377280" lon="-8.7887830">
        <ele>72.2</ele>
        <time>2021-05-17T13:00:30Z</time>
      </trkpt>
      <trkpt lat="41.6377270" lon="-8.7887560">
        <ele>72.4</ele>
        <time>2021-05-17T13:00:31Z</time>
      </trkpt>
      <trkpt lat="41.6377270" lon="-8.7887370">
        <ele>72.4</ele>
        <time>2021-05-17T13:00:32Z</time>
      </trkpt>
      <trkpt lat="41.6377280" lon="-8.7887250">
        <ele>72.4</ele>
        <time>2021-05-17T13:00:33Z</time>
      </trkpt>
      <trkpt lat="41.6377300" lon="-8.7887120">
        <ele>72.7</ele>
        <time>2021-05-17T13:00:34Z</time>
      </trkpt>
      <trkpt lat="41.6377340" lon="-8.7886990">
        <ele>72.7</ele>
        <time>2021-05-17T13:00:35Z</time>
      </trkpt>
      <trkpt lat="41.6377360" lon="-8.7886630">
        <ele>72.9</ele>
        <time>2021-05-17T13:00:36Z</time>
      </trkpt>
      <trkpt lat="41.6377350" lon="-8.7886480">
        <ele>72.9</ele>
        <time>2021-05-17T13:00:37Z</time>
      </trkpt>
      <trkpt lat="41.6377330" lon="-8.7886290">
        <ele>73.2</ele>
        <time>2021-05-17T13:00:38Z</time>
      </trkpt>
      <trkpt lat="41.6377340" lon="-8.7886090">
        <ele>73.2</ele>
        <time>2021-05-17T13:00:39Z</time>
      </trkpt>
      <trkpt lat="41.6377290" lon="-8.7885890">
        <ele>73.5</ele>
        <time>2021-05-17T13:00:40Z</time>
      </trkpt>
      <trkpt lat="41.6377220" lon="-8.7885740">
        <ele>73.5</ele>
        <time>2021-05-17T13:00:41Z</time>
      </trkpt>
      <trkpt lat="41.6377180" lon="-8.7885350">
        <ele>73.7</ele>
        <time>2021-05-17T13:00:42Z</time>
      </trkpt>
      <trkpt lat="41.6377180" lon="-8.7885200">
        <ele>73.7</ele>
        <time>2021-05-17T13:00:43Z</time>
      </trkpt>
      <trkpt lat="41.6377240" lon="-8.7885060">
        <ele>73.7</ele>
        <time>2021-05-17T13:00:44Z</time>
      </trkpt>
      <trkpt lat="41.6377340" lon="-8.7884890">
        <ele>74.0</ele>
        <time>2021-05-17T13:00:45Z</time>
      </trkpt>
      <trkpt lat="41.6377430" lon="-8.7884520">
        <ele>73.8</ele>
        <time>2021-05-17T13:00:46Z</time>
      </trkpt>
      <trkpt lat="41.6377490" lon="-8.7884380">
        <ele>73.8</ele>
        <time>2021-05-17T13:00:47Z</time>
      </trkpt>
      <trkpt lat="41.6377610" lon="-8.7884030">
        <ele>74.0</ele>
        <time>2021-05-17T13:00:48Z</time>
      </trkpt>
      <trkpt lat="41.6377650" lon="-8.7883890">
        <ele>74.0</ele>
        <time>2021-05-17T13:00:49Z</time>
      </trkpt>
      <trkpt lat="41.6377700" lon="-8.7883800">
        <ele>73.6</ele>
        <time>2021-05-17T13:00:50Z</time>
      </trkpt>
      <trkpt lat="41.6377770" lon="-8.7883690">
        <ele>73.8</ele>
        <time>2021-05-17T13:00:51Z</time>
      </trkpt>
      <trkpt lat="41.6377810" lon="-8.7883510">
        <ele>73.8</ele>
        <time>2021-05-17T13:00:52Z</time>
      </trkpt>
      <trkpt lat="41.6377810" lon="-8.7883270">
        <ele>74.0</ele>
        <time>2021-05-17T13:00:53Z</time>
      </trkpt>
      <trkpt lat="41.6377860" lon="-8.7883060">
        <ele>74.0</ele>
        <time>2021-05-17T13:00:54Z</time>
      </trkpt>
      <trkpt lat="41.6377990" lon="-8.7882800">
        <ele>74.1</ele>
        <time>2021-05-17T13:00:55Z</time>
      </trkpt>
      <trkpt lat="41.6378020" lon="-8.7882710">
        <ele>73.7</ele>
        <time>2021-05-17T13:00:56Z</time>
      </trkpt>
      <trkpt lat="41.6378060" lon="-8.7882630">
        <ele>73.7</ele>
        <time>2021-05-17T13:00:57Z</time>
      </trkpt>
      <trkpt lat="41.6378100" lon="-8.7882480">
        <ele>73.7</ele>
        <time>2021-05-17T13:00:58Z</time>
      </trkpt>
      <trkpt lat="41.6378170" lon="-8.7882400">
        <ele>73.9</ele>
        <time>2021-05-17T13:00:59Z</time>
      </trkpt>
      <trkpt lat="41.6378210" lon="-8.7882230">
        <ele>73.8</ele>
        <time>2021-05-17T13:01:00Z</time>
      </trkpt>
      <trkpt lat="41.6378240" lon="-8.7882060">
        <ele>73.8</ele>
        <time>2021-05-17T13:01:01Z</time>
      </trkpt>
      <trkpt lat="41.6378290" lon="-8.7881860">
        <ele>74.0</ele>
        <time>2021-05-17T13:01:02Z</time>
      </trkpt>
      <trkpt lat="41.6378300" lon="-8.7881610">
        <ele>74.1</ele>
        <time>2021-05-17T13:01:03Z</time>
      </trkpt>
      <trkpt lat="41.6378320" lon="-8.7881490">
        <ele>74.1</ele>
        <time>2021-05-17T13:01:04Z</time>
      </trkpt>
      <trkpt lat="41.6378340" lon="-8.7881370">
        <ele>73.7</ele>
        <time>2021-05-17T13:01:05Z</time>
      </trkpt>
      <trkpt lat="41.6378370" lon="-8.7880990">
        <ele>73.8</ele>
        <time>2021-05-17T13:01:06Z</time>
      </trkpt>
      <trkpt lat="41.6378360" lon="-8.7880810">
        <ele>73.8</ele>
        <time>2021-05-17T13:01:07Z</time>
      </trkpt>
      <trkpt lat="41.6378370" lon="-8.7880610">
        <ele>74.0</ele>
        <time>2021-05-17T13:01:08Z</time>
      </trkpt>
      <trkpt lat="41.6378430" lon="-8.7880450">
        <ele>74.0</ele>
        <time>2021-05-17T13:01:09Z</time>
      </trkpt>
      <trkpt lat="41.6378450" lon="-8.7880300">
        <ele>74.1</ele>
        <time>2021-05-17T13:01:10Z</time>
      </trkpt>
      <trkpt lat="41.6378490" lon="-8.7880080">
        <ele>74.1</ele>
        <time>2021-05-17T13:01:11Z</time>
      </trkpt>
      <trkpt lat="41.6378500" lon="-8.7879940">
        <ele>74.0</ele>
        <time>2021-05-17T13:01:12Z</time>
      </trkpt>
      <trkpt lat="41.6378560" lon="-8.7879680">
        <ele>74.1</ele>
        <time>2021-05-17T13:01:13Z</time>
      </trkpt>
      <trkpt lat="41.6378570" lon="-8.7879580">
        <ele>74.1</ele>
        <time>2021-05-17T13:01:14Z</time>
      </trkpt>
      <trkpt lat="41.6378580" lon="-8.7879470">
        <ele>74.1</ele>
        <time>2021-05-17T13:01:15Z</time>
      </trkpt>
      <trkpt lat="41.6378640" lon="-8.7879310">
        <ele>74.2</ele>
        <time>2021-05-17T13:01:16Z</time>
      </trkpt>
      <trkpt lat="41.6378660" lon="-8.7879180">
        <ele>73.9</ele>
        <time>2021-05-17T13:01:17Z</time>
      </trkpt>
      <trkpt lat="41.6378680" lon="-8.7878960">
        <ele>74.0</ele>
        <time>2021-05-17T13:01:18Z</time>
      </trkpt>
      <trkpt lat="41.6378710" lon="-8.7878710">
        <ele>74.0</ele>
        <time>2021-05-17T13:01:19Z</time>
      </trkpt>
      <trkpt lat="41.6378770" lon="-8.7878650">
        <ele>74.0</ele>
        <time>2021-05-17T13:01:20Z</time>
      </trkpt>
      <trkpt lat="41.6378760" lon="-8.7878560">
        <ele>74.0</ele>
        <time>2021-05-17T13:01:21Z</time>
      </trkpt>
      <trkpt lat="41.6378810" lon="-8.7878300">
        <ele>74.0</ele>
        <time>2021-05-17T13:01:22Z</time>
      </trkpt>
      <trkpt lat="41.6378830" lon="-8.7878190">
        <ele>74.0</ele>
        <time>2021-05-17T13:01:23Z</time>
      </trkpt>
      <trkpt lat="41.6378860" lon="-8.7878080">
        <ele>74.0</ele>
        <time>2021-05-17T13:01:24Z</time>
      </trkpt>
      <trkpt lat="41.6378850" lon="-8.7877950">
        <ele>74.0</ele>
        <time>2021-05-17T13:01:25Z</time>
      </trkpt>
      <trkpt lat="41.6378860" lon="-8.7877790">
        <ele>74.0</ele>
        <time>2021-05-17T13:01:26Z</time>
      </trkpt>
      <trkpt lat="41.6378880" lon="-8.7877620">
        <ele>74.1</ele>
        <time>2021-05-17T13:01:27Z</time>
      </trkpt>
      <trkpt lat="41.6378870" lon="-8.7877400">
        <ele>74.0</ele>
        <time>2021-05-17T13:01:28Z</time>
      </trkpt>
      <trkpt lat="41.6378850" lon="-8.7877260">
        <ele>74.1</ele>
        <time>2021-05-17T13:01:29Z</time>
      </trkpt>
      <trkpt lat="41.6378840" lon="-8.7877120">
        <ele>74.0</ele>
        <time>2021-05-17T13:01:30Z</time>
      </trkpt>
      <trkpt lat="41.6378860" lon="-8.7877010">
        <ele>74.0</ele>
        <time>2021-05-17T13:01:31Z</time>
      </trkpt>
      <trkpt lat="41.6378870" lon="-8.7876950">
        <ele>74.0</ele>
        <time>2021-05-17T13:01:32Z</time>
      </trkpt>
      <trkpt lat="41.6378780" lon="-8.7876810">
        <ele>74.0</ele>
        <time>2021-05-17T13:01:33Z</time>
      </trkpt>
      <trkpt lat="41.6378760" lon="-8.7876740">
        <ele>74.0</ele>
        <time>2021-05-17T13:01:34Z</time>
      </trkpt>
      <trkpt lat="41.6378750" lon="-8.7876730">
        <ele>74.0</ele>
        <time>2021-05-17T13:01:35Z</time>
      </trkpt>
      <trkpt lat="41.6378750" lon="-8.7876750">
        <ele>74.0</ele>
        <time>2021-05-17T13:01:36Z</time>
      </trkpt>
      <trkpt lat="41.6378660" lon="-8.7876550">
        <ele>74.0</ele>
        <time>2021-05-17T13:01:37Z</time>
      </trkpt>
      <trkpt lat="41.6378600" lon="-8.7876390">
        <ele>74.3</ele>
        <time>2021-05-17T13:01:38Z</time>
      </trkpt>
      <trkpt lat="41.6378620" lon="-8.7876140">
        <ele>74.3</ele>
        <time>2021-05-17T13:01:39Z</time>
      </trkpt>
      <trkpt lat="41.6378640" lon="-8.7876010">
        <ele>74.2</ele>
        <time>2021-05-17T13:01:40Z</time>
      </trkpt>
      <trkpt lat="41.6378660" lon="-8.7875890">
        <ele>73.9</ele>
        <time>2021-05-17T13:01:41Z</time>
      </trkpt>
      <trkpt lat="41.6378650" lon="-8.7875800">
        <ele>74.2</ele>
        <time>2021-05-17T13:01:42Z</time>
      </trkpt>
      <trkpt lat="41.6378640" lon="-8.7875850">
        <ele>74.2</ele>
        <time>2021-05-17T13:01:43Z</time>
      </trkpt>
      <trkpt lat="41.6378640" lon="-8.7875910">
        <ele>74.2</ele>
        <time>2021-05-17T13:01:44Z</time>
      </trkpt>
      <trkpt lat="41.6378630" lon="-8.7875970">
        <ele>74.2</ele>
        <time>2021-05-17T13:01:45Z</time>
      </trkpt>
      <trkpt lat="41.6378630" lon="-8.7876020">
        <ele>74.2</ele>
        <time>2021-05-17T13:01:46Z</time>
      </trkpt>
      <trkpt lat="41.6378630" lon="-8.7876080">
        <ele>74.2</ele>
        <time>2021-05-17T13:01:47Z</time>
      </trkpt>
      <trkpt lat="41.6378620" lon="-8.7876140">
        <ele>74.2</ele>
        <time>2021-05-17T13:01:48Z</time>
      </trkpt>
      <trkpt lat="41.6378620" lon="-8.7876190">
        <ele>74.2</ele>
        <time>2021-05-17T13:01:49Z</time>
      </trkpt>
      <trkpt lat="41.6378610" lon="-8.7876250">
        <ele>74.1</ele>
        <time>2021-05-17T13:01:50Z</time>
      </trkpt>
      <trkpt lat="41.6378610" lon="-8.7876310">
        <ele>74.1</ele>
        <time>2021-05-17T13:01:51Z</time>
      </trkpt>
      <trkpt lat="41.6378600" lon="-8.7876360">
        <ele>74.1</ele>
        <time>2021-05-17T13:01:52Z</time>
      </trkpt>
      <trkpt lat="41.6378600" lon="-8.7876420">
        <ele>74.1</ele>
        <time>2021-05-17T13:01:53Z</time>
      </trkpt>
      <trkpt lat="41.6378620" lon="-8.7876610">
        <ele>74.1</ele>
        <time>2021-05-17T13:01:54Z</time>
      </trkpt>
      <trkpt lat="41.6378550" lon="-8.7876770">
        <ele>74.1</ele>
        <time>2021-05-17T13:01:55Z</time>
      </trkpt>
      <trkpt lat="41.6378520" lon="-8.7876860">
        <ele>74.1</ele>
        <time>2021-05-17T13:01:56Z</time>
      </trkpt>
      <trkpt lat="41.6378460" lon="-8.7877050">
        <ele>74.1</ele>
        <time>2021-05-17T13:01:57Z</time>
      </trkpt>
      <trkpt lat="41.6378460" lon="-8.7877050">
        <ele>74.0</ele>
        <time>2021-05-17T13:01:58Z</time>
      </trkpt>
      <trkpt lat="41.6378480" lon="-8.7876990">
        <ele>74.0</ele>
        <time>2021-05-17T13:01:59Z</time>
      </trkpt>
      <trkpt lat="41.6378510" lon="-8.7876960">
        <ele>74.0</ele>
        <time>2021-05-17T13:02:00Z</time>
      </trkpt>
      <trkpt lat="41.6378510" lon="-8.7876990">
        <ele>74.0</ele>
        <time>2021-05-17T13:02:01Z</time>
      </trkpt>
      <trkpt lat="41.6378470" lon="-8.7876990">
        <ele>74.0</ele>
        <time>2021-05-17T13:02:02Z</time>
      </trkpt>
      <trkpt lat="41.6378450" lon="-8.7876960">
        <ele>74.0</ele>
        <time>2021-05-17T13:02:03Z</time>
      </trkpt>
      <trkpt lat="41.6378320" lon="-8.7876910">
        <ele>74.3</ele>
        <time>2021-05-17T13:02:04Z</time>
      </trkpt>
      <trkpt lat="41.6378190" lon="-8.7876850">
        <ele>74.3</ele>
        <time>2021-05-17T13:02:05Z</time>
      </trkpt>
      <trkpt lat="41.6378030" lon="-8.7876830">
        <ele>74.3</ele>
        <time>2021-05-17T13:02:06Z</time>
      </trkpt>
      <trkpt lat="41.6377910" lon="-8.7876770">
        <ele>74.6</ele>
        <time>2021-05-17T13:02:07Z</time>
      </trkpt>
      <trkpt lat="41.6377840" lon="-8.7876770">
        <ele>74.6</ele>
        <time>2021-05-17T13:02:08Z</time>
      </trkpt>
      <trkpt lat="41.6377680" lon="-8.7876770">
        <ele>75.0</ele>
        <time>2021-05-17T13:02:09Z</time>
      </trkpt>
      <trkpt lat="41.6377620" lon="-8.7876790">
        <ele>75.0</ele>
        <time>2021-05-17T13:02:10Z</time>
      </trkpt>
      <trkpt lat="41.6377420" lon="-8.7876800">
        <ele>75.0</ele>
        <time>2021-05-17T13:02:11Z</time>
      </trkpt>
      <trkpt lat="41.6377300" lon="-8.7876800">
        <ele>75.3</ele>
        <time>2021-05-17T13:02:12Z</time>
      </trkpt>
      <trkpt lat="41.6377180" lon="-8.7876800">
        <ele>75.3</ele>
        <time>2021-05-17T13:02:13Z</time>
      </trkpt>
      <trkpt lat="41.6377040" lon="-8.7876910">
        <ele>75.6</ele>
        <time>2021-05-17T13:02:14Z</time>
      </trkpt>
      <trkpt lat="41.6376890" lon="-8.7876920">
        <ele>75.6</ele>
        <time>2021-05-17T13:02:15Z</time>
      </trkpt>
      <trkpt lat="41.6376760" lon="-8.7876980">
        <ele>75.6</ele>
        <time>2021-05-17T13:02:16Z</time>
      </trkpt>
      <trkpt lat="41.6376640" lon="-8.7877060">
        <ele>75.9</ele>
        <time>2021-05-17T13:02:17Z</time>
      </trkpt>
      <trkpt lat="41.6376560" lon="-8.7877100">
        <ele>75.9</ele>
        <time>2021-05-17T13:02:18Z</time>
      </trkpt>
      <trkpt lat="41.6376380" lon="-8.7877070">
        <ele>76.2</ele>
        <time>2021-05-17T13:02:19Z</time>
      </trkpt>
      <trkpt lat="41.6376250" lon="-8.7877150">
        <ele>76.2</ele>
        <time>2021-05-17T13:02:20Z</time>
      </trkpt>
      <trkpt lat="41.6376090" lon="-8.7877120">
        <ele>76.2</ele>
        <time>2021-05-17T13:02:21Z</time>
      </trkpt>
      <trkpt lat="41.6375930" lon="-8.7877150">
        <ele>76.6</ele>
        <time>2021-05-17T13:02:22Z</time>
      </trkpt>
      <trkpt lat="41.6375720" lon="-8.7877140">
        <ele>77.0</ele>
        <time>2021-05-17T13:02:23Z</time>
      </trkpt>
      <trkpt lat="41.6375590" lon="-8.7877130">
        <ele>77.0</ele>
        <time>2021-05-17T13:02:24Z</time>
      </trkpt>
      <trkpt lat="41.6375420" lon="-8.7877120">
        <ele>77.5</ele>
        <time>2021-05-17T13:02:25Z</time>
      </trkpt>
      <trkpt lat="41.6375320" lon="-8.7877080">
        <ele>77.5</ele>
        <time>2021-05-17T13:02:26Z</time>
      </trkpt>
      <trkpt lat="41.6375080" lon="-8.7877080">
        <ele>77.9</ele>
        <time>2021-05-17T13:02:27Z</time>
      </trkpt>
      <trkpt lat="41.6374980" lon="-8.7877080">
        <ele>77.9</ele>
        <time>2021-05-17T13:02:28Z</time>
      </trkpt>
      <trkpt lat="41.6374870" lon="-8.7877090">
        <ele>77.9</ele>
        <time>2021-05-17T13:02:29Z</time>
      </trkpt>
      <trkpt lat="41.6374660" lon="-8.7877160">
        <ele>78.4</ele>
        <time>2021-05-17T13:02:30Z</time>
      </trkpt>
      <trkpt lat="41.6374570" lon="-8.7877170">
        <ele>78.4</ele>
        <time>2021-05-17T13:02:31Z</time>
      </trkpt>
      <trkpt lat="41.6374480" lon="-8.7877190">
        <ele>78.8</ele>
        <time>2021-05-17T13:02:32Z</time>
      </trkpt>
      <trkpt lat="41.6374360" lon="-8.7877210">
        <ele>78.8</ele>
        <time>2021-05-17T13:02:33Z</time>
      </trkpt>
      <trkpt lat="41.6374170" lon="-8.7877240">
        <ele>78.8</ele>
        <time>2021-05-17T13:02:34Z</time>
      </trkpt>
      <trkpt lat="41.6374030" lon="-8.7877150">
        <ele>79.2</ele>
        <time>2021-05-17T13:02:35Z</time>
      </trkpt>
      <trkpt lat="41.6373910" lon="-8.7877130">
        <ele>79.2</ele>
        <time>2021-05-17T13:02:36Z</time>
      </trkpt>
      <trkpt lat="41.6373830" lon="-8.7877140">
        <ele>79.6</ele>
        <time>2021-05-17T13:02:37Z</time>
      </trkpt>
      <trkpt lat="41.6373670" lon="-8.7877160">
        <ele>79.6</ele>
        <time>2021-05-17T13:02:38Z</time>
      </trkpt>
      <trkpt lat="41.6373570" lon="-8.7877160">
        <ele>79.6</ele>
        <time>2021-05-17T13:02:39Z</time>
      </trkpt>
      <trkpt lat="41.6373410" lon="-8.7877000">
        <ele>79.9</ele>
        <time>2021-05-17T13:02:40Z</time>
      </trkpt>
      <trkpt lat="41.6373300" lon="-8.7876960">
        <ele>79.9</ele>
        <time>2021-05-17T13:02:41Z</time>
      </trkpt>
      <trkpt lat="41.6373080" lon="-8.7876900">
        <ele>80.3</ele>
        <time>2021-05-17T13:02:42Z</time>
      </trkpt>
      <trkpt lat="41.6372970" lon="-8.7876890">
        <ele>80.3</ele>
        <time>2021-05-17T13:02:43Z</time>
      </trkpt>
      <trkpt lat="41.6372870" lon="-8.7876880">
        <ele>80.7</ele>
        <time>2021-05-17T13:02:44Z</time>
      </trkpt>
      <trkpt lat="41.6372720" lon="-8.7876810">
        <ele>80.7</ele>
        <time>2021-05-17T13:02:45Z</time>
      </trkpt>
      <trkpt lat="41.6372600" lon="-8.7876690">
        <ele>80.7</ele>
        <time>2021-05-17T13:02:46Z</time>
      </trkpt>
      <trkpt lat="41.6372360" lon="-8.7876720">
        <ele>81.1</ele>
        <time>2021-05-17T13:02:47Z</time>
      </trkpt>
      <trkpt lat="41.6372270" lon="-8.7876710">
        <ele>81.1</ele>
        <time>2021-05-17T13:02:48Z</time>
      </trkpt>
      <trkpt lat="41.6372170" lon="-8.7876710">
        <ele>81.4</ele>
        <time>2021-05-17T13:02:49Z</time>
      </trkpt>
      <trkpt lat="41.6371950" lon="-8.7876800">
        <ele>81.4</ele>
        <time>2021-05-17T13:02:50Z</time>
      </trkpt>
      <trkpt lat="41.6371870" lon="-8.7876770">
        <ele>81.8</ele>
        <time>2021-05-17T13:02:51Z</time>
      </trkpt>
      <trkpt lat="41.6371780" lon="-8.7876750">
        <ele>81.8</ele>
        <time>2021-05-17T13:02:52Z</time>
      </trkpt>
      <trkpt lat="41.6371530" lon="-8.7876680">
        <ele>82.1</ele>
        <time>2021-05-17T13:02:53Z</time>
      </trkpt>
      <trkpt lat="41.6371470" lon="-8.7876680">
        <ele>82.1</ele>
        <time>2021-05-17T13:02:54Z</time>
      </trkpt>
      <trkpt lat="41.6371410" lon="-8.7876670">
        <ele>82.1</ele>
        <time>2021-05-17T13:02:55Z</time>
      </trkpt>
      <trkpt lat="41.6371330" lon="-8.7876780">
        <ele>82.1</ele>
        <time>2021-05-17T13:02:56Z</time>
      </trkpt>
      <trkpt lat="41.6371230" lon="-8.7876830">
        <ele>82.5</ele>
        <time>2021-05-17T13:02:57Z</time>
      </trkpt>
      <trkpt lat="41.6371100" lon="-8.7876840">
        <ele>82.5</ele>
        <time>2021-05-17T13:02:58Z</time>
      </trkpt>
      <trkpt lat="41.6370970" lon="-8.7876840">
        <ele>82.5</ele>
        <time>2021-05-17T13:02:59Z</time>
      </trkpt>
      <trkpt lat="41.6370870" lon="-8.7876770">
        <ele>82.8</ele>
        <time>2021-05-17T13:03:00Z</time>
      </trkpt>
      <trkpt lat="41.6370790" lon="-8.7876600">
        <ele>82.8</ele>
        <time>2021-05-17T13:03:01Z</time>
      </trkpt>
      <trkpt lat="41.6370610" lon="-8.7876420">
        <ele>83.1</ele>
        <time>2021-05-17T13:03:02Z</time>
      </trkpt>
      <trkpt lat="41.6370540" lon="-8.7876310">
        <ele>83.1</ele>
        <time>2021-05-17T13:03:03Z</time>
      </trkpt>
      <trkpt lat="41.6370460" lon="-8.7876210">
        <ele>83.1</ele>
        <time>2021-05-17T13:03:04Z</time>
      </trkpt>
      <trkpt lat="41.6370330" lon="-8.7875980">
        <ele>83.0</ele>
        <time>2021-05-17T13:03:05Z</time>
      </trkpt>
      <trkpt lat="41.6370240" lon="-8.7875830">
        <ele>83.4</ele>
        <time>2021-05-17T13:03:06Z</time>
      </trkpt>
      <trkpt lat="41.6370190" lon="-8.7875690">
        <ele>83.4</ele>
        <time>2021-05-17T13:03:07Z</time>
      </trkpt>
      <trkpt lat="41.6370050" lon="-8.7875620">
        <ele>83.4</ele>
        <time>2021-05-17T13:03:08Z</time>
      </trkpt>
      <trkpt lat="41.6369970" lon="-8.7875570">
        <ele>83.7</ele>
        <time>2021-05-17T13:03:09Z</time>
      </trkpt>
      <trkpt lat="41.6369820" lon="-8.7875440">
        <ele>83.6</ele>
        <time>2021-05-17T13:03:10Z</time>
      </trkpt>
      <trkpt lat="41.6369730" lon="-8.7875350">
        <ele>83.6</ele>
        <time>2021-05-17T13:03:11Z</time>
      </trkpt>
      <trkpt lat="41.6369590" lon="-8.7875270">
        <ele>84.1</ele>
        <time>2021-05-17T13:03:12Z</time>
      </trkpt>
      <trkpt lat="41.6369480" lon="-8.7875220">
        <ele>84.1</ele>
        <time>2021-05-17T13:03:13Z</time>
      </trkpt>
      <trkpt lat="41.6369230" lon="-8.7875110">
        <ele>84.4</ele>
        <time>2021-05-17T13:03:14Z</time>
      </trkpt>
      <trkpt lat="41.6369160" lon="-8.7875030">
        <ele>84.3</ele>
        <time>2021-05-17T13:03:15Z</time>
      </trkpt>
      <trkpt lat="41.6369080" lon="-8.7874960">
        <ele>84.3</ele>
        <time>2021-05-17T13:03:16Z</time>
      </trkpt>
      <trkpt lat="41.6368840" lon="-8.7874740">
        <ele>84.6</ele>
        <time>2021-05-17T13:03:17Z</time>
      </trkpt>
      <trkpt lat="41.6368740" lon="-8.7874650">
        <ele>84.6</ele>
        <time>2021-05-17T13:03:18Z</time>
      </trkpt>
      <trkpt lat="41.6368480" lon="-8.7874470">
        <ele>85.0</ele>
        <time>2021-05-17T13:03:19Z</time>
      </trkpt>
      <trkpt lat="41.6368410" lon="-8.7874410">
        <ele>85.0</ele>
        <time>2021-05-17T13:03:20Z</time>
      </trkpt>
      <trkpt lat="41.6368300" lon="-8.7874350">
        <ele>85.4</ele>
        <time>2021-05-17T13:03:21Z</time>
      </trkpt>
      <trkpt lat="41.6368190" lon="-8.7874180">
        <ele>85.2</ele>
        <time>2021-05-17T13:03:22Z</time>
      </trkpt>
      <trkpt lat="41.6368080" lon="-8.7873970">
        <ele>85.2</ele>
        <time>2021-05-17T13:03:23Z</time>
      </trkpt>
      <trkpt lat="41.6368060" lon="-8.7873810">
        <ele>85.4</ele>
        <time>2021-05-17T13:03:24Z</time>
      </trkpt>
      <trkpt lat="41.6367940" lon="-8.7873590">
        <ele>85.4</ele>
        <time>2021-05-17T13:03:25Z</time>
      </trkpt>
      <trkpt lat="41.6367850" lon="-8.7873460">
        <ele>85.3</ele>
        <time>2021-05-17T13:03:26Z</time>
      </trkpt>
      <trkpt lat="41.6367800" lon="-8.7873410">
        <ele>85.2</ele>
        <time>2021-05-17T13:03:27Z</time>
      </trkpt>
      <trkpt lat="41.6367670" lon="-8.7873190">
        <ele>85.4</ele>
        <time>2021-05-17T13:03:28Z</time>
      </trkpt>
      <trkpt lat="41.6367600" lon="-8.7873050">
        <ele>85.4</ele>
        <time>2021-05-17T13:03:29Z</time>
      </trkpt>
      <trkpt lat="41.6367590" lon="-8.7872980">
        <ele>85.2</ele>
        <time>2021-05-17T13:03:30Z</time>
      </trkpt>
      <trkpt lat="41.6367520" lon="-8.7872820">
        <ele>85.2</ele>
        <time>2021-05-17T13:03:31Z</time>
      </trkpt>
      <trkpt lat="41.6367470" lon="-8.7872630">
        <ele>85.2</ele>
        <time>2021-05-17T13:03:32Z</time>
      </trkpt>
      <trkpt lat="41.6367410" lon="-8.7872490">
        <ele>85.2</ele>
        <time>2021-05-17T13:03:33Z</time>
      </trkpt>
      <trkpt lat="41.6367310" lon="-8.7872250">
        <ele>85.2</ele>
        <time>2021-05-17T13:03:34Z</time>
      </trkpt>
      <trkpt lat="41.6367270" lon="-8.7872150">
        <ele>85.0</ele>
        <time>2021-05-17T13:03:35Z</time>
      </trkpt>
      <trkpt lat="41.6367220" lon="-8.7872050">
        <ele>84.9</ele>
        <time>2021-05-17T13:03:36Z</time>
      </trkpt>
      <trkpt lat="41.6367180" lon="-8.7871960">
        <ele>84.9</ele>
        <time>2021-05-17T13:03:37Z</time>
      </trkpt>
      <trkpt lat="41.6367140" lon="-8.7871930">
        <ele>84.9</ele>
        <time>2021-05-17T13:03:38Z</time>
      </trkpt>
      <trkpt lat="41.6367080" lon="-8.7871820">
        <ele>85.2</ele>
        <time>2021-05-17T13:03:39Z</time>
      </trkpt>
      <trkpt lat="41.6367000" lon="-8.7871690">
        <ele>84.9</ele>
        <time>2021-05-17T13:03:40Z</time>
      </trkpt>
      <trkpt lat="41.6366850" lon="-8.7871570">
        <ele>84.9</ele>
        <time>2021-05-17T13:03:41Z</time>
      </trkpt>
      <trkpt lat="41.6366750" lon="-8.7871510">
        <ele>85.1</ele>
        <time>2021-05-17T13:03:42Z</time>
      </trkpt>
      <trkpt lat="41.6366570" lon="-8.7871370">
        <ele>85.1</ele>
        <time>2021-05-17T13:03:43Z</time>
      </trkpt>
      <trkpt lat="41.6366500" lon="-8.7871330">
        <ele>85.1</ele>
        <time>2021-05-17T13:03:44Z</time>
      </trkpt>
      <trkpt lat="41.6366410" lon="-8.7871220">
        <ele>85.0</ele>
        <time>2021-05-17T13:03:45Z</time>
      </trkpt>
      <trkpt lat="41.6366390" lon="-8.7871160">
        <ele>85.0</ele>
        <time>2021-05-17T13:03:46Z</time>
      </trkpt>
      <trkpt lat="41.6366400" lon="-8.7871100">
        <ele>85.0</ele>
        <time>2021-05-17T13:03:47Z</time>
      </trkpt>
      <trkpt lat="41.6366340" lon="-8.7871040">
        <ele>85.0</ele>
        <time>2021-05-17T13:03:48Z</time>
      </trkpt>
      <trkpt lat="41.6366320" lon="-8.7871010">
        <ele>85.0</ele>
        <time>2021-05-17T13:03:49Z</time>
      </trkpt>
      <trkpt lat="41.6366290" lon="-8.7870990">
        <ele>85.0</ele>
        <time>2021-05-17T13:03:50Z</time>
      </trkpt>
      <trkpt lat="41.6366200" lon="-8.7870970">
        <ele>85.0</ele>
        <time>2021-05-17T13:03:51Z</time>
      </trkpt>
      <trkpt lat="41.6366060" lon="-8.7870940">
        <ele>85.2</ele>
        <time>2021-05-17T13:03:52Z</time>
      </trkpt>
      <trkpt lat="41.6365870" lon="-8.7870840">
        <ele>84.9</ele>
        <time>2021-05-17T13:03:53Z</time>
      </trkpt>
      <trkpt lat="41.6365770" lon="-8.7870770">
        <ele>85.1</ele>
        <time>2021-05-17T13:03:54Z</time>
      </trkpt>
      <trkpt lat="41.6365680" lon="-8.7870710">
        <ele>85.1</ele>
        <time>2021-05-17T13:03:55Z</time>
      </trkpt>
      <trkpt lat="41.6365550" lon="-8.7870700">
        <ele>85.1</ele>
        <time>2021-05-17T13:03:56Z</time>
      </trkpt>
      <trkpt lat="41.6365410" lon="-8.7870740">
        <ele>85.3</ele>
        <time>2021-05-17T13:03:57Z</time>
      </trkpt>
      <trkpt lat="41.6365180" lon="-8.7870760">
        <ele>85.5</ele>
        <time>2021-05-17T13:03:58Z</time>
      </trkpt>
      <trkpt lat="41.6365040" lon="-8.7870760">
        <ele>85.5</ele>
        <time>2021-05-17T13:03:59Z</time>
      </trkpt>
      <trkpt lat="41.6364890" lon="-8.7870760">
        <ele>85.5</ele>
        <time>2021-05-17T13:04:00Z</time>
      </trkpt>
      <trkpt lat="41.6364690" lon="-8.7870760">
        <ele>85.7</ele>
        <time>2021-05-17T13:04:01Z</time>
      </trkpt>
      <trkpt lat="41.6364590" lon="-8.7870660">
        <ele>85.7</ele>
        <time>2021-05-17T13:04:02Z</time>
      </trkpt>
      <trkpt lat="41.6364320" lon="-8.7870540">
        <ele>85.9</ele>
        <time>2021-05-17T13:04:03Z</time>
      </trkpt>
      <trkpt lat="41.6364230" lon="-8.7870470">
        <ele>85.9</ele>
        <time>2021-05-17T13:04:04Z</time>
      </trkpt>
      <trkpt lat="41.6364090" lon="-8.7870340">
        <ele>86.0</ele>
        <time>2021-05-17T13:04:05Z</time>
      </trkpt>
      <trkpt lat="41.6363980" lon="-8.7870210">
        <ele>86.0</ele>
        <time>2021-05-17T13:04:06Z</time>
      </trkpt>
      <trkpt lat="41.6363890" lon="-8.7870110">
        <ele>86.3</ele>
        <time>2021-05-17T13:04:07Z</time>
      </trkpt>
      <trkpt lat="41.6363760" lon="-8.7869900">
        <ele>86.1</ele>
        <time>2021-05-17T13:04:08Z</time>
      </trkpt>
      <trkpt lat="41.6363680" lon="-8.7869770">
        <ele>86.1</ele>
        <time>2021-05-17T13:04:09Z</time>
      </trkpt>
      <trkpt lat="41.6363510" lon="-8.7869710">
        <ele>86.5</ele>
        <time>2021-05-17T13:04:10Z</time>
      </trkpt>
      <trkpt lat="41.6363310" lon="-8.7869640">
        <ele>86.5</ele>
        <time>2021-05-17T13:04:11Z</time>
      </trkpt>
      <trkpt lat="41.6363220" lon="-8.7869610">
        <ele>86.8</ele>
        <time>2021-05-17T13:04:12Z</time>
      </trkpt>
      <trkpt lat="41.6363130" lon="-8.7869580">
        <ele>86.7</ele>
        <time>2021-05-17T13:04:13Z</time>
      </trkpt>
      <trkpt lat="41.6363100" lon="-8.7869510">
        <ele>86.7</ele>
        <time>2021-05-17T13:04:14Z</time>
      </trkpt>
      <trkpt lat="41.6363110" lon="-8.7869440">
        <ele>86.7</ele>
        <time>2021-05-17T13:04:15Z</time>
      </trkpt>
      <trkpt lat="41.6362990" lon="-8.7869240">
        <ele>86.7</ele>
        <time>2021-05-17T13:04:16Z</time>
      </trkpt>
      <trkpt lat="41.6363040" lon="-8.7869080">
        <ele>86.7</ele>
        <time>2021-05-17T13:04:17Z</time>
      </trkpt>
      <trkpt lat="41.6362950" lon="-8.7869010">
        <ele>86.6</ele>
        <time>2021-05-17T13:04:18Z</time>
      </trkpt>
      <trkpt lat="41.6362820" lon="-8.7869080">
        <ele>86.6</ele>
        <time>2021-05-17T13:04:19Z</time>
      </trkpt>
      <trkpt lat="41.6362780" lon="-8.7868960">
        <ele>86.6</ele>
        <time>2021-05-17T13:04:20Z</time>
      </trkpt>
      <trkpt lat="41.6362860" lon="-8.7868890">
        <ele>86.6</ele>
        <time>2021-05-17T13:04:21Z</time>
      </trkpt>
      <trkpt lat="41.6362890" lon="-8.7868730">
        <ele>86.6</ele>
        <time>2021-05-17T13:04:22Z</time>
      </trkpt>
      <trkpt lat="41.6362810" lon="-8.7868520">
        <ele>86.6</ele>
        <time>2021-05-17T13:04:23Z</time>
      </trkpt>
      <trkpt lat="41.6362920" lon="-8.7868270">
        <ele>86.6</ele>
        <time>2021-05-17T13:04:24Z</time>
      </trkpt>
      <trkpt lat="41.6362970" lon="-8.7868150">
        <ele>86.6</ele>
        <time>2021-05-17T13:04:25Z</time>
      </trkpt>
      <trkpt lat="41.6363020" lon="-8.7868020">
        <ele>86.6</ele>
        <time>2021-05-17T13:04:26Z</time>
      </trkpt>
      <trkpt lat="41.6363050" lon="-8.7867940">
        <ele>86.6</ele>
        <time>2021-05-17T13:04:27Z</time>
      </trkpt>
      <trkpt lat="41.6363110" lon="-8.7867800">
        <ele>86.6</ele>
        <time>2021-05-17T13:04:28Z</time>
      </trkpt>
      <trkpt lat="41.6363110" lon="-8.7867650">
        <ele>86.6</ele>
        <time>2021-05-17T13:04:29Z</time>
      </trkpt>
      <trkpt lat="41.6363230" lon="-8.7867590">
        <ele>86.6</ele>
        <time>2021-05-17T13:04:30Z</time>
      </trkpt>
      <trkpt lat="41.6363300" lon="-8.7867570">
        <ele>86.6</ele>
        <time>2021-05-17T13:04:31Z</time>
      </trkpt>
      <trkpt lat="41.6363370" lon="-8.7867490">
        <ele>86.6</ele>
        <time>2021-05-17T13:04:32Z</time>
      </trkpt>
      <trkpt lat="41.6363490" lon="-8.7867330">
        <ele>86.7</ele>
        <time>2021-05-17T13:04:33Z</time>
      </trkpt>
      <trkpt lat="41.6363610" lon="-8.7867190">
        <ele>86.7</ele>
        <time>2021-05-17T13:04:34Z</time>
      </trkpt>
      <trkpt lat="41.6363700" lon="-8.7866940">
        <ele>86.7</ele>
        <time>2021-05-17T13:04:35Z</time>
      </trkpt>
      <trkpt lat="41.6363770" lon="-8.7866830">
        <ele>86.7</ele>
        <time>2021-05-17T13:04:36Z</time>
      </trkpt>
      <trkpt lat="41.6363840" lon="-8.7866730">
        <ele>86.7</ele>
        <time>2021-05-17T13:04:37Z</time>
      </trkpt>
      <trkpt lat="41.6363970" lon="-8.7866620">
        <ele>86.7</ele>
        <time>2021-05-17T13:04:38Z</time>
      </trkpt>
      <trkpt lat="41.6364040" lon="-8.7866520">
        <ele>86.7</ele>
        <time>2021-05-17T13:04:39Z</time>
      </trkpt>
      <trkpt lat="41.6364120" lon="-8.7866430">
        <ele>86.7</ele>
        <time>2021-05-17T13:04:40Z</time>
      </trkpt>
      <trkpt lat="41.6364230" lon="-8.7866350">
        <ele>86.7</ele>
        <time>2021-05-17T13:04:41Z</time>
      </trkpt>
      <trkpt lat="41.6364270" lon="-8.7866200">
        <ele>86.7</ele>
        <time>2021-05-17T13:04:42Z</time>
      </trkpt>
      <trkpt lat="41.6364310" lon="-8.7866080">
        <ele>86.7</ele>
        <time>2021-05-17T13:04:43Z</time>
      </trkpt>
      <trkpt lat="41.6364470" lon="-8.7865940">
        <ele>86.7</ele>
        <time>2021-05-17T13:04:44Z</time>
      </trkpt>
      <trkpt lat="41.6364540" lon="-8.7865870">
        <ele>86.7</ele>
        <time>2021-05-17T13:04:45Z</time>
      </trkpt>
      <trkpt lat="41.6364620" lon="-8.7865800">
        <ele>86.7</ele>
        <time>2021-05-17T13:04:46Z</time>
      </trkpt>
      <trkpt lat="41.6364710" lon="-8.7865650">
        <ele>86.7</ele>
        <time>2021-05-17T13:04:47Z</time>
      </trkpt>
      <trkpt lat="41.6364740" lon="-8.7865550">
        <ele>86.7</ele>
        <time>2021-05-17T13:04:48Z</time>
      </trkpt>
      <trkpt lat="41.6364770" lon="-8.7865400">
        <ele>86.7</ele>
        <time>2021-05-17T13:04:49Z</time>
      </trkpt>
      <trkpt lat="41.6364830" lon="-8.7865240">
        <ele>86.7</ele>
        <time>2021-05-17T13:04:50Z</time>
      </trkpt>
      <trkpt lat="41.6364930" lon="-8.7865060">
        <ele>86.7</ele>
        <time>2021-05-17T13:04:51Z</time>
      </trkpt>
      <trkpt lat="41.6365010" lon="-8.7864920">
        <ele>86.6</ele>
        <time>2021-05-17T13:04:52Z</time>
      </trkpt>
      <trkpt lat="41.6365140" lon="-8.7864790">
        <ele>86.6</ele>
        <time>2021-05-17T13:04:53Z</time>
      </trkpt>
      <trkpt lat="41.6365170" lon="-8.7864530">
        <ele>86.6</ele>
        <time>2021-05-17T13:04:54Z</time>
      </trkpt>
      <trkpt lat="41.6365190" lon="-8.7864420">
        <ele>86.5</ele>
        <time>2021-05-17T13:04:55Z</time>
      </trkpt>
      <trkpt lat="41.6365210" lon="-8.7864300">
        <ele>86.5</ele>
        <time>2021-05-17T13:04:56Z</time>
      </trkpt>
      <trkpt lat="41.6365330" lon="-8.7863940">
        <ele>86.4</ele>
        <time>2021-05-17T13:04:57Z</time>
      </trkpt>
      <trkpt lat="41.6365350" lon="-8.7863840">
        <ele>86.4</ele>
        <time>2021-05-17T13:04:58Z</time>
      </trkpt>
      <trkpt lat="41.6365340" lon="-8.7863690">
        <ele>86.4</ele>
        <time>2021-05-17T13:04:59Z</time>
      </trkpt>
      <trkpt lat="41.6365410" lon="-8.7863560">
        <ele>86.3</ele>
        <time>2021-05-17T13:05:00Z</time>
      </trkpt>
      <trkpt lat="41.6365500" lon="-8.7863410">
        <ele>86.3</ele>
        <time>2021-05-17T13:05:01Z</time>
      </trkpt>
      <trkpt lat="41.6365550" lon="-8.7863280">
        <ele>86.2</ele>
        <time>2021-05-17T13:05:02Z</time>
      </trkpt>
      <trkpt lat="41.6365540" lon="-8.7863250">
        <ele>86.2</ele>
        <time>2021-05-17T13:05:03Z</time>
      </trkpt>
      <trkpt lat="41.6365600" lon="-8.7863060">
        <ele>86.1</ele>
        <time>2021-05-17T13:05:04Z</time>
      </trkpt>
      <trkpt lat="41.6365750" lon="-8.7862710">
        <ele>86.0</ele>
        <time>2021-05-17T13:05:05Z</time>
      </trkpt>
      <trkpt lat="41.6365840" lon="-8.7862550">
        <ele>85.9</ele>
        <time>2021-05-17T13:05:06Z</time>
      </trkpt>
      <trkpt lat="41.6366020" lon="-8.7862340">
        <ele>85.8</ele>
        <time>2021-05-17T13:05:07Z</time>
      </trkpt>
      <trkpt lat="41.6366080" lon="-8.7862300">
        <ele>85.8</ele>
        <time>2021-05-17T13:05:08Z</time>
      </trkpt>
      <trkpt lat="41.6366150" lon="-8.7862260">
        <ele>85.7</ele>
        <time>2021-05-17T13:05:09Z</time>
      </trkpt>
      <trkpt lat="41.6366210" lon="-8.7861960">
        <ele>85.6</ele>
        <time>2021-05-17T13:05:10Z</time>
      </trkpt>
      <trkpt lat="41.6366230" lon="-8.7861880">
        <ele>85.6</ele>
        <time>2021-05-17T13:05:11Z</time>
      </trkpt>
      <trkpt lat="41.6366250" lon="-8.7861790">
        <ele>85.5</ele>
        <time>2021-05-17T13:05:12Z</time>
      </trkpt>
      <trkpt lat="41.6366330" lon="-8.7861650">
        <ele>85.5</ele>
        <time>2021-05-17T13:05:13Z</time>
      </trkpt>
      <trkpt lat="41.6366390" lon="-8.7861570">
        <ele>85.4</ele>
        <time>2021-05-17T13:05:14Z</time>
      </trkpt>
      <trkpt lat="41.6366420" lon="-8.7861430">
        <ele>85.4</ele>
        <time>2021-05-17T13:05:15Z</time>
      </trkpt>
      <trkpt lat="41.6366500" lon="-8.7861220">
        <ele>85.3</ele>
        <time>2021-05-17T13:05:16Z</time>
      </trkpt>
      <trkpt lat="41.6366590" lon="-8.7861040">
        <ele>85.2</ele>
        <time>2021-05-17T13:05:17Z</time>
      </trkpt>
      <trkpt lat="41.6366660" lon="-8.7860830">
        <ele>85.1</ele>
        <time>2021-05-17T13:05:18Z</time>
      </trkpt>
      <trkpt lat="41.6366770" lon="-8.7860650">
        <ele>85.0</ele>
        <time>2021-05-17T13:05:19Z</time>
      </trkpt>
      <trkpt lat="41.6366860" lon="-8.7860520">
        <ele>84.9</ele>
        <time>2021-05-17T13:05:20Z</time>
      </trkpt>
      <trkpt lat="41.6366940" lon="-8.7860470">
        <ele>84.9</ele>
        <time>2021-05-17T13:05:21Z</time>
      </trkpt>
      <trkpt lat="41.6367050" lon="-8.7860430">
        <ele>84.8</ele>
        <time>2021-05-17T13:05:22Z</time>
      </trkpt>
      <trkpt lat="41.6367140" lon="-8.7860220">
        <ele>84.7</ele>
        <time>2021-05-17T13:05:23Z</time>
      </trkpt>
      <trkpt lat="41.6367150" lon="-8.7860060">
        <ele>84.6</ele>
        <time>2021-05-17T13:05:24Z</time>
      </trkpt>
      <trkpt lat="41.6367200" lon="-8.7860070">
        <ele>84.6</ele>
        <time>2021-05-17T13:05:25Z</time>
      </trkpt>
      <trkpt lat="41.6367230" lon="-8.7860060">
        <ele>84.6</ele>
        <time>2021-05-17T13:05:26Z</time>
      </trkpt>
      <trkpt lat="41.6367220" lon="-8.7860000">
        <ele>84.6</ele>
        <time>2021-05-17T13:05:27Z</time>
      </trkpt>
      <trkpt lat="41.6367220" lon="-8.7859980">
        <ele>84.5</ele>
        <time>2021-05-17T13:05:28Z</time>
      </trkpt>
      <trkpt lat="41.6367260" lon="-8.7859970">
        <ele>84.5</ele>
        <time>2021-05-17T13:05:29Z</time>
      </trkpt>
      <trkpt lat="41.6367320" lon="-8.7859980">
        <ele>84.5</ele>
        <time>2021-05-17T13:05:30Z</time>
      </trkpt>
      <trkpt lat="41.6367370" lon="-8.7859940">
        <ele>84.5</ele>
        <time>2021-05-17T13:05:31Z</time>
      </trkpt>
      <trkpt lat="41.6367380" lon="-8.7859860">
        <ele>84.4</ele>
        <time>2021-05-17T13:05:32Z</time>
      </trkpt>
      <trkpt lat="41.6367360" lon="-8.7859770">
        <ele>84.4</ele>
        <time>2021-05-17T13:05:33Z</time>
      </trkpt>
      <trkpt lat="41.6367430" lon="-8.7859600">
        <ele>84.3</ele>
        <time>2021-05-17T13:05:34Z</time>
      </trkpt>
      <trkpt lat="41.6367460" lon="-8.7859460">
        <ele>84.2</ele>
        <time>2021-05-17T13:05:35Z</time>
      </trkpt>
      <trkpt lat="41.6367580" lon="-8.7859230">
        <ele>84.1</ele>
        <time>2021-05-17T13:05:36Z</time>
      </trkpt>
      <trkpt lat="41.6367630" lon="-8.7859140">
        <ele>84.1</ele>
        <time>2021-05-17T13:05:37Z</time>
      </trkpt>
      <trkpt lat="41.6367690" lon="-8.7859050">
        <ele>84.0</ele>
        <time>2021-05-17T13:05:38Z</time>
      </trkpt>
      <trkpt lat="41.6367840" lon="-8.7858900">
        <ele>83.9</ele>
        <time>2021-05-17T13:05:39Z</time>
      </trkpt>
      <trkpt lat="41.6367900" lon="-8.7858800">
        <ele>83.9</ele>
        <time>2021-05-17T13:05:40Z</time>
      </trkpt>
      <trkpt lat="41.6367970" lon="-8.7858700">
        <ele>83.8</ele>
        <time>2021-05-17T13:05:41Z</time>
      </trkpt>
      <trkpt lat="41.6368040" lon="-8.7858450">
        <ele>83.7</ele>
        <time>2021-05-17T13:05:42Z</time>
      </trkpt>
      <trkpt lat="41.6368070" lon="-8.7858290">
        <ele>83.6</ele>
        <time>2021-05-17T13:05:43Z</time>
      </trkpt>
      <trkpt lat="41.6368090" lon="-8.7857990">
        <ele>83.5</ele>
        <time>2021-05-17T13:05:44Z</time>
      </trkpt>
      <trkpt lat="41.6368110" lon="-8.7857870">
        <ele>83.4</ele>
        <time>2021-05-17T13:05:45Z</time>
      </trkpt>
      <trkpt lat="41.6368130" lon="-8.7857750">
        <ele>83.4</ele>
        <time>2021-05-17T13:05:46Z</time>
      </trkpt>
      <trkpt lat="41.6368130" lon="-8.7857570">
        <ele>83.3</ele>
        <time>2021-05-17T13:05:47Z</time>
      </trkpt>
      <trkpt lat="41.6368190" lon="-8.7857450">
        <ele>83.2</ele>
        <time>2021-05-17T13:05:48Z</time>
      </trkpt>
      <trkpt lat="41.6368240" lon="-8.7857340">
        <ele>83.1</ele>
        <time>2021-05-17T13:05:49Z</time>
      </trkpt>
      <trkpt lat="41.6368300" lon="-8.7857220">
        <ele>83.0</ele>
        <time>2021-05-17T13:05:50Z</time>
      </trkpt>
      <trkpt lat="41.6368340" lon="-8.7856980">
        <ele>82.9</ele>
        <time>2021-05-17T13:05:51Z</time>
      </trkpt>
      <trkpt lat="41.6368410" lon="-8.7856790">
        <ele>82.8</ele>
        <time>2021-05-17T13:05:52Z</time>
      </trkpt>
      <trkpt lat="41.6368440" lon="-8.7856640">
        <ele>82.7</ele>
        <time>2021-05-17T13:05:53Z</time>
      </trkpt>
      <trkpt lat="41.6368480" lon="-8.7856400">
        <ele>82.5</ele>
        <time>2021-05-17T13:05:54Z</time>
      </trkpt>
      <trkpt lat="41.6368590" lon="-8.7856160">
        <ele>82.4</ele>
        <time>2021-05-17T13:05:55Z</time>
      </trkpt>
      <trkpt lat="41.6368610" lon="-8.7855980">
        <ele>82.3</ele>
        <time>2021-05-17T13:05:56Z</time>
      </trkpt>
      <trkpt lat="41.6368650" lon="-8.7855930">
        <ele>82.2</ele>
        <time>2021-05-17T13:05:57Z</time>
      </trkpt>
      <trkpt lat="41.6368610" lon="-8.7855880">
        <ele>82.2</ele>
        <time>2021-05-17T13:05:58Z</time>
      </trkpt>
      <trkpt lat="41.6368640" lon="-8.7855770">
        <ele>82.1</ele>
        <time>2021-05-17T13:05:59Z</time>
      </trkpt>
      <trkpt lat="41.6368650" lon="-8.7855520">
        <ele>82.0</ele>
        <time>2021-05-17T13:06:00Z</time>
      </trkpt>
      <trkpt lat="41.6368690" lon="-8.7855490">
        <ele>82.0</ele>
        <time>2021-05-17T13:06:01Z</time>
      </trkpt>
      <trkpt lat="41.6368690" lon="-8.7855450">
        <ele>82.0</ele>
        <time>2021-05-17T13:06:02Z</time>
      </trkpt>
      <trkpt lat="41.6368720" lon="-8.7855310">
        <ele>81.9</ele>
        <time>2021-05-17T13:06:03Z</time>
      </trkpt>
      <trkpt lat="41.6368760" lon="-8.7855060">
        <ele>81.8</ele>
        <time>2021-05-17T13:06:04Z</time>
      </trkpt>
      <trkpt lat="41.6368920" lon="-8.7854730">
        <ele>81.6</ele>
        <time>2021-05-17T13:06:05Z</time>
      </trkpt>
      <trkpt lat="41.6368950" lon="-8.7854670">
        <ele>81.6</ele>
        <time>2021-05-17T13:06:06Z</time>
      </trkpt>
      <trkpt lat="41.6368980" lon="-8.7854610">
        <ele>81.6</ele>
        <time>2021-05-17T13:06:07Z</time>
      </trkpt>
      <trkpt lat="41.6369210" lon="-8.7854430">
        <ele>81.5</ele>
        <time>2021-05-17T13:06:08Z</time>
      </trkpt>
      <trkpt lat="41.6369220" lon="-8.7854280">
        <ele>81.5</ele>
        <time>2021-05-17T13:06:09Z</time>
      </trkpt>
      <trkpt lat="41.6369230" lon="-8.7854100">
        <ele>81.4</ele>
        <time>2021-05-17T13:06:10Z</time>
      </trkpt>
      <trkpt lat="41.6369290" lon="-8.7854030">
        <ele>81.4</ele>
        <time>2021-05-17T13:06:11Z</time>
      </trkpt>
      <trkpt lat="41.6369320" lon="-8.7853830">
        <ele>81.4</ele>
        <time>2021-05-17T13:06:12Z</time>
      </trkpt>
      <trkpt lat="41.6369360" lon="-8.7853720">
        <ele>81.4</ele>
        <time>2021-05-17T13:06:13Z</time>
      </trkpt>
      <trkpt lat="41.6369390" lon="-8.7853470">
        <ele>81.4</ele>
        <time>2021-05-17T13:06:14Z</time>
      </trkpt>
      <trkpt lat="41.6369350" lon="-8.7853140">
        <ele>81.3</ele>
        <time>2021-05-17T13:06:15Z</time>
      </trkpt>
      <trkpt lat="41.6369370" lon="-8.7852960">
        <ele>81.3</ele>
        <time>2021-05-17T13:06:16Z</time>
      </trkpt>
      <trkpt lat="41.6369380" lon="-8.7852790">
        <ele>81.3</ele>
        <time>2021-05-17T13:06:17Z</time>
      </trkpt>
      <trkpt lat="41.6369400" lon="-8.7852540">
        <ele>81.3</ele>
        <time>2021-05-17T13:06:18Z</time>
      </trkpt>
      <trkpt lat="41.6369350" lon="-8.7852410">
        <ele>81.3</ele>
        <time>2021-05-17T13:06:19Z</time>
      </trkpt>
      <trkpt lat="41.6369310" lon="-8.7852250">
        <ele>81.3</ele>
        <time>2021-05-17T13:06:20Z</time>
      </trkpt>
      <trkpt lat="41.6369350" lon="-8.7852020">
        <ele>81.3</ele>
        <time>2021-05-17T13:06:21Z</time>
      </trkpt>
      <trkpt lat="41.6369380" lon="-8.7851850">
        <ele>81.3</ele>
        <time>2021-05-17T13:06:22Z</time>
      </trkpt>
      <trkpt lat="41.6369360" lon="-8.7851740">
        <ele>81.3</ele>
        <time>2021-05-17T13:06:23Z</time>
      </trkpt>
      <trkpt lat="41.6369330" lon="-8.7851550">
        <ele>81.3</ele>
        <time>2021-05-17T13:06:24Z</time>
      </trkpt>
      <trkpt lat="41.6369380" lon="-8.7851140">
        <ele>81.2</ele>
        <time>2021-05-17T13:06:25Z</time>
      </trkpt>
      <trkpt lat="41.6369390" lon="-8.7850950">
        <ele>81.2</ele>
        <time>2021-05-17T13:06:26Z</time>
      </trkpt>
      <trkpt lat="41.6369430" lon="-8.7850760">
        <ele>81.2</ele>
        <time>2021-05-17T13:06:27Z</time>
      </trkpt>
      <trkpt lat="41.6369540" lon="-8.7850520">
        <ele>81.2</ele>
        <time>2021-05-17T13:06:28Z</time>
      </trkpt>
      <trkpt lat="41.6369580" lon="-8.7850420">
        <ele>81.2</ele>
        <time>2021-05-17T13:06:29Z</time>
      </trkpt>
      <trkpt lat="41.6369610" lon="-8.7850310">
        <ele>81.2</ele>
        <time>2021-05-17T13:06:30Z</time>
      </trkpt>
      <trkpt lat="41.6369640" lon="-8.7850160">
        <ele>81.2</ele>
        <time>2021-05-17T13:06:31Z</time>
      </trkpt>
      <trkpt lat="41.6369600" lon="-8.7849930">
        <ele>81.1</ele>
        <time>2021-05-17T13:06:32Z</time>
      </trkpt>
      <trkpt lat="41.6369650" lon="-8.7849750">
        <ele>81.1</ele>
        <time>2021-05-17T13:06:33Z</time>
      </trkpt>
      <trkpt lat="41.6369690" lon="-8.7849600">
        <ele>81.1</ele>
        <time>2021-05-17T13:06:34Z</time>
      </trkpt>
      <trkpt lat="41.6369680" lon="-8.7849480">
        <ele>81.1</ele>
        <time>2021-05-17T13:06:35Z</time>
      </trkpt>
      <trkpt lat="41.6369710" lon="-8.7849300">
        <ele>81.1</ele>
        <time>2021-05-17T13:06:36Z</time>
      </trkpt>
      <trkpt lat="41.6369800" lon="-8.7849060">
        <ele>81.0</ele>
        <time>2021-05-17T13:06:37Z</time>
      </trkpt>
      <trkpt lat="41.6369840" lon="-8.7848980">
        <ele>81.0</ele>
        <time>2021-05-17T13:06:38Z</time>
      </trkpt>
      <trkpt lat="41.6369960" lon="-8.7848740">
        <ele>81.0</ele>
        <time>2021-05-17T13:06:39Z</time>
      </trkpt>
      <trkpt lat="41.6370010" lon="-8.7848660">
        <ele>81.0</ele>
        <time>2021-05-17T13:06:40Z</time>
      </trkpt>
      <trkpt lat="41.6370030" lon="-8.7848530">
        <ele>81.0</ele>
        <time>2021-05-17T13:06:41Z</time>
      </trkpt>
      <trkpt lat="41.6370080" lon="-8.7848330">
        <ele>81.0</ele>
        <time>2021-05-17T13:06:42Z</time>
      </trkpt>
      <trkpt lat="41.6370190" lon="-8.7848230">
        <ele>81.0</ele>
        <time>2021-05-17T13:06:43Z</time>
      </trkpt>
      <trkpt lat="41.6370210" lon="-8.7848080">
        <ele>81.0</ele>
        <time>2021-05-17T13:06:44Z</time>
      </trkpt>
      <trkpt lat="41.6370250" lon="-8.7847960">
        <ele>81.0</ele>
        <time>2021-05-17T13:06:45Z</time>
      </trkpt>
      <trkpt lat="41.6370250" lon="-8.7847800">
        <ele>81.0</ele>
        <time>2021-05-17T13:06:46Z</time>
      </trkpt>
      <trkpt lat="41.6370300" lon="-8.7847480">
        <ele>81.0</ele>
        <time>2021-05-17T13:06:47Z</time>
      </trkpt>
      <trkpt lat="41.6370300" lon="-8.7847260">
        <ele>81.0</ele>
        <time>2021-05-17T13:06:48Z</time>
      </trkpt>
      <trkpt lat="41.6370320" lon="-8.7847170">
        <ele>81.0</ele>
        <time>2021-05-17T13:06:49Z</time>
      </trkpt>
      <trkpt lat="41.6370350" lon="-8.7847070">
        <ele>81.0</ele>
        <time>2021-05-17T13:06:50Z</time>
      </trkpt>
      <trkpt lat="41.6370370" lon="-8.7846980">
        <ele>81.0</ele>
        <time>2021-05-17T13:06:51Z</time>
      </trkpt>
      <trkpt lat="41.6370390" lon="-8.7846690">
        <ele>81.0</ele>
        <time>2021-05-17T13:06:52Z</time>
      </trkpt>
      <trkpt lat="41.6370400" lon="-8.7846510">
        <ele>81.0</ele>
        <time>2021-05-17T13:06:53Z</time>
      </trkpt>
      <trkpt lat="41.6370490" lon="-8.7846270">
        <ele>81.0</ele>
        <time>2021-05-17T13:06:54Z</time>
      </trkpt>
      <trkpt lat="41.6370540" lon="-8.7846170">
        <ele>81.0</ele>
        <time>2021-05-17T13:06:55Z</time>
      </trkpt>
      <trkpt lat="41.6370600" lon="-8.7845950">
        <ele>81.0</ele>
        <time>2021-05-17T13:06:56Z</time>
      </trkpt>
      <trkpt lat="41.6370580" lon="-8.7845700">
        <ele>81.0</ele>
        <time>2021-05-17T13:06:57Z</time>
      </trkpt>
      <trkpt lat="41.6370560" lon="-8.7845470">
        <ele>81.0</ele>
        <time>2021-05-17T13:06:58Z</time>
      </trkpt>
      <trkpt lat="41.6370580" lon="-8.7845370">
        <ele>81.0</ele>
        <time>2021-05-17T13:06:59Z</time>
      </trkpt>
      <trkpt lat="41.6370590" lon="-8.7845280">
        <ele>80.9</ele>
        <time>2021-05-17T13:07:00Z</time>
      </trkpt>
      <trkpt lat="41.6370610" lon="-8.7845180">
        <ele>80.9</ele>
        <time>2021-05-17T13:07:01Z</time>
      </trkpt>
      <trkpt lat="41.6370690" lon="-8.7844940">
        <ele>80.9</ele>
        <time>2021-05-17T13:07:02Z</time>
      </trkpt>
      <trkpt lat="41.6370780" lon="-8.7844810">
        <ele>80.9</ele>
        <time>2021-05-17T13:07:03Z</time>
      </trkpt>
      <trkpt lat="41.6370890" lon="-8.7844670">
        <ele>80.9</ele>
        <time>2021-05-17T13:07:04Z</time>
      </trkpt>
      <trkpt lat="41.6370960" lon="-8.7844530">
        <ele>80.9</ele>
        <time>2021-05-17T13:07:05Z</time>
      </trkpt>
      <trkpt lat="41.6371050" lon="-8.7844370">
        <ele>80.9</ele>
        <time>2021-05-17T13:07:06Z</time>
      </trkpt>
      <trkpt lat="41.6371170" lon="-8.7844290">
        <ele>80.9</ele>
        <time>2021-05-17T13:07:07Z</time>
      </trkpt>
      <trkpt lat="41.6371210" lon="-8.7844200">
        <ele>80.9</ele>
        <time>2021-05-17T13:07:08Z</time>
      </trkpt>
      <trkpt lat="41.6371310" lon="-8.7844090">
        <ele>80.8</ele>
        <time>2021-05-17T13:07:09Z</time>
      </trkpt>
      <trkpt lat="41.6371420" lon="-8.7844010">
        <ele>80.8</ele>
        <time>2021-05-17T13:07:10Z</time>
      </trkpt>
      <trkpt lat="41.6371490" lon="-8.7843970">
        <ele>80.8</ele>
        <time>2021-05-17T13:07:11Z</time>
      </trkpt>
      <trkpt lat="41.6371530" lon="-8.7843810">
        <ele>80.8</ele>
        <time>2021-05-17T13:07:12Z</time>
      </trkpt>
      <trkpt lat="41.6371470" lon="-8.7843680">
        <ele>80.8</ele>
        <time>2021-05-17T13:07:13Z</time>
      </trkpt>
      <trkpt lat="41.6371570" lon="-8.7843560">
        <ele>80.8</ele>
        <time>2021-05-17T13:07:14Z</time>
      </trkpt>
      <trkpt lat="41.6371700" lon="-8.7843470">
        <ele>80.9</ele>
        <time>2021-05-17T13:07:15Z</time>
      </trkpt>
      <trkpt lat="41.6371770" lon="-8.7843390">
        <ele>80.9</ele>
        <time>2021-05-17T13:07:16Z</time>
      </trkpt>
      <trkpt lat="41.6371840" lon="-8.7843370">
        <ele>80.9</ele>
        <time>2021-05-17T13:07:17Z</time>
      </trkpt>
      <trkpt lat="41.6372080" lon="-8.7843190">
        <ele>80.9</ele>
        <time>2021-05-17T13:07:18Z</time>
      </trkpt>
      <trkpt lat="41.6372180" lon="-8.7843140">
        <ele>80.9</ele>
        <time>2021-05-17T13:07:19Z</time>
      </trkpt>
      <trkpt lat="41.6372280" lon="-8.7843010">
        <ele>80.9</ele>
        <time>2021-05-17T13:07:20Z</time>
      </trkpt>
      <trkpt lat="41.6372390" lon="-8.7842890">
        <ele>81.0</ele>
        <time>2021-05-17T13:07:21Z</time>
      </trkpt>
      <trkpt lat="41.6372470" lon="-8.7842820">
        <ele>81.0</ele>
        <time>2021-05-17T13:07:22Z</time>
      </trkpt>
      <trkpt lat="41.6372610" lon="-8.7842620">
        <ele>81.0</ele>
        <time>2021-05-17T13:07:23Z</time>
      </trkpt>
      <trkpt lat="41.6372710" lon="-8.7842590">
        <ele>81.0</ele>
        <time>2021-05-17T13:07:24Z</time>
      </trkpt>
      <trkpt lat="41.6372810" lon="-8.7842490">
        <ele>81.1</ele>
        <time>2021-05-17T13:07:25Z</time>
      </trkpt>
      <trkpt lat="41.6372900" lon="-8.7842400">
        <ele>81.1</ele>
        <time>2021-05-17T13:07:26Z</time>
      </trkpt>
      <trkpt lat="41.6372920" lon="-8.7842460">
        <ele>81.1</ele>
        <time>2021-05-17T13:07:27Z</time>
      </trkpt>
      <trkpt lat="41.6373050" lon="-8.7842310">
        <ele>81.1</ele>
        <time>2021-05-17T13:07:28Z</time>
      </trkpt>
      <trkpt lat="41.6373110" lon="-8.7842300">
        <ele>81.2</ele>
        <time>2021-05-17T13:07:29Z</time>
      </trkpt>
      <trkpt lat="41.6373210" lon="-8.7842210">
        <ele>81.2</ele>
        <time>2021-05-17T13:07:30Z</time>
      </trkpt>
      <trkpt lat="41.6373340" lon="-8.7841960">
        <ele>81.2</ele>
        <time>2021-05-17T13:07:31Z</time>
      </trkpt>
      <trkpt lat="41.6373400" lon="-8.7841890">
        <ele>81.2</ele>
        <time>2021-05-17T13:07:32Z</time>
      </trkpt>
      <trkpt lat="41.6373470" lon="-8.7841830">
        <ele>81.3</ele>
        <time>2021-05-17T13:07:33Z</time>
      </trkpt>
      <trkpt lat="41.6373600" lon="-8.7841640">
        <ele>81.3</ele>
        <time>2021-05-17T13:07:34Z</time>
      </trkpt>
      <trkpt lat="41.6373720" lon="-8.7841650">
        <ele>81.3</ele>
        <time>2021-05-17T13:07:35Z</time>
      </trkpt>
      <trkpt lat="41.6373850" lon="-8.7841580">
        <ele>81.3</ele>
        <time>2021-05-17T13:07:36Z</time>
      </trkpt>
      <trkpt lat="41.6373950" lon="-8.7841510">
        <ele>81.4</ele>
        <time>2021-05-17T13:07:37Z</time>
      </trkpt>
      <trkpt lat="41.6374050" lon="-8.7841440">
        <ele>81.4</ele>
        <time>2021-05-17T13:07:38Z</time>
      </trkpt>
      <trkpt lat="41.6374080" lon="-8.7841450">
        <ele>81.4</ele>
        <time>2021-05-17T13:07:39Z</time>
      </trkpt>
      <trkpt lat="41.6374160" lon="-8.7841540">
        <ele>81.4</ele>
        <time>2021-05-17T13:07:40Z</time>
      </trkpt>
      <trkpt lat="41.6374330" lon="-8.7841450">
        <ele>81.4</ele>
        <time>2021-05-17T13:07:41Z</time>
      </trkpt>
      <trkpt lat="41.6374530" lon="-8.7841300">
        <ele>81.5</ele>
        <time>2021-05-17T13:07:42Z</time>
      </trkpt>
      <trkpt lat="41.6374610" lon="-8.7841310">
        <ele>81.5</ele>
        <time>2021-05-17T13:07:43Z</time>
      </trkpt>
      <trkpt lat="41.6374740" lon="-8.7841290">
        <ele>81.5</ele>
        <time>2021-05-17T13:07:44Z</time>
      </trkpt>
      <trkpt lat="41.6374750" lon="-8.7841320">
        <ele>81.5</ele>
        <time>2021-05-17T13:07:45Z</time>
      </trkpt>
      <trkpt lat="41.6374910" lon="-8.7841310">
        <ele>81.5</ele>
        <time>2021-05-17T13:07:46Z</time>
      </trkpt>
      <trkpt lat="41.6375050" lon="-8.7841230">
        <ele>81.5</ele>
        <time>2021-05-17T13:07:47Z</time>
      </trkpt>
      <trkpt lat="41.6375150" lon="-8.7841040">
        <ele>81.5</ele>
        <time>2021-05-17T13:07:48Z</time>
      </trkpt>
      <trkpt lat="41.6375400" lon="-8.7840770">
        <ele>81.5</ele>
        <time>2021-05-17T13:07:49Z</time>
      </trkpt>
      <trkpt lat="41.6375480" lon="-8.7840670">
        <ele>81.5</ele>
        <time>2021-05-17T13:07:50Z</time>
      </trkpt>
      <trkpt lat="41.6375470" lon="-8.7840570">
        <ele>81.5</ele>
        <time>2021-05-17T13:07:51Z</time>
      </trkpt>
      <trkpt lat="41.6375440" lon="-8.7840580">
        <ele>81.5</ele>
        <time>2021-05-17T13:07:52Z</time>
      </trkpt>
      <trkpt lat="41.6375430" lon="-8.7840550">
        <ele>81.5</ele>
        <time>2021-05-17T13:07:53Z</time>
      </trkpt>
      <trkpt lat="41.6375480" lon="-8.7840600">
        <ele>81.5</ele>
        <time>2021-05-17T13:07:54Z</time>
      </trkpt>
      <trkpt lat="41.6375500" lon="-8.7840600">
        <ele>81.5</ele>
        <time>2021-05-17T13:07:55Z</time>
      </trkpt>
      <trkpt lat="41.6375500" lon="-8.7840610">
        <ele>81.5</ele>
        <time>2021-05-17T13:07:56Z</time>
      </trkpt>
      <trkpt lat="41.6375490" lon="-8.7840570">
        <ele>81.5</ele>
        <time>2021-05-17T13:07:57Z</time>
      </trkpt>
      <trkpt lat="41.6375460" lon="-8.7840500">
        <ele>81.5</ele>
        <time>2021-05-17T13:07:58Z</time>
      </trkpt>
      <trkpt lat="41.6375490" lon="-8.7840500">
        <ele>81.5</ele>
        <time>2021-05-17T13:07:59Z</time>
      </trkpt>
      <trkpt lat="41.6375610" lon="-8.7840380">
        <ele>81.5</ele>
        <time>2021-05-17T13:08:00Z</time>
      </trkpt>
      <trkpt lat="41.6375710" lon="-8.7840390">
        <ele>81.5</ele>
        <time>2021-05-17T13:08:01Z</time>
      </trkpt>
      <trkpt lat="41.6375900" lon="-8.7840210">
        <ele>81.5</ele>
        <time>2021-05-17T13:08:02Z</time>
      </trkpt>
      <trkpt lat="41.6375990" lon="-8.7840190">
        <ele>81.5</ele>
        <time>2021-05-17T13:08:03Z</time>
      </trkpt>
      <trkpt lat="41.6376070" lon="-8.7840170">
        <ele>81.5</ele>
        <time>2021-05-17T13:08:04Z</time>
      </trkpt>
      <trkpt lat="41.6376260" lon="-8.7840060">
        <ele>81.5</ele>
        <time>2021-05-17T13:08:05Z</time>
      </trkpt>
      <trkpt lat="41.6376330" lon="-8.7839900">
        <ele>81.5</ele>
        <time>2021-05-17T13:08:06Z</time>
      </trkpt>
      <trkpt lat="41.6376580" lon="-8.7839670">
        <ele>81.5</ele>
        <time>2021-05-17T13:08:07Z</time>
      </trkpt>
      <trkpt lat="41.6376660" lon="-8.7839570">
        <ele>81.5</ele>
        <time>2021-05-17T13:08:08Z</time>
      </trkpt>
      <trkpt lat="41.6376750" lon="-8.7839350">
        <ele>81.5</ele>
        <time>2021-05-17T13:08:09Z</time>
      </trkpt>
      <trkpt lat="41.6376810" lon="-8.7839270">
        <ele>81.5</ele>
        <time>2021-05-17T13:08:10Z</time>
      </trkpt>
      <trkpt lat="41.6376880" lon="-8.7839180">
        <ele>81.4</ele>
        <time>2021-05-17T13:08:11Z</time>
      </trkpt>
      <trkpt lat="41.6376950" lon="-8.7839060">
        <ele>81.4</ele>
        <time>2021-05-17T13:08:12Z</time>
      </trkpt>
      <trkpt lat="41.6376990" lon="-8.7838950">
        <ele>81.4</ele>
        <time>2021-05-17T13:08:13Z</time>
      </trkpt>
      <trkpt lat="41.6377060" lon="-8.7838870">
        <ele>81.4</ele>
        <time>2021-05-17T13:08:14Z</time>
      </trkpt>
      <trkpt lat="41.6377130" lon="-8.7838780">
        <ele>81.4</ele>
        <time>2021-05-17T13:08:15Z</time>
      </trkpt>
      <trkpt lat="41.6377180" lon="-8.7838700">
        <ele>81.4</ele>
        <time>2021-05-17T13:08:16Z</time>
      </trkpt>
      <trkpt lat="41.6377310" lon="-8.7838550">
        <ele>81.4</ele>
        <time>2021-05-17T13:08:17Z</time>
      </trkpt>
      <trkpt lat="41.6377420" lon="-8.7838410">
        <ele>81.3</ele>
        <time>2021-05-17T13:08:18Z</time>
      </trkpt>
      <trkpt lat="41.6377540" lon="-8.7838300">
        <ele>81.3</ele>
        <time>2021-05-17T13:08:19Z</time>
      </trkpt>
      <trkpt lat="41.6377570" lon="-8.7838220">
        <ele>81.3</ele>
        <time>2021-05-17T13:08:20Z</time>
      </trkpt>
      <trkpt lat="41.6377670" lon="-8.7838100">
        <ele>81.3</ele>
        <time>2021-05-17T13:08:21Z</time>
      </trkpt>
      <trkpt lat="41.6377670" lon="-8.7837980">
        <ele>81.3</ele>
        <time>2021-05-17T13:08:22Z</time>
      </trkpt>
      <trkpt lat="41.6377680" lon="-8.7837870">
        <ele>81.3</ele>
        <time>2021-05-17T13:08:23Z</time>
      </trkpt>
      <trkpt lat="41.6377790" lon="-8.7837670">
        <ele>81.2</ele>
        <time>2021-05-17T13:08:24Z</time>
      </trkpt>
      <trkpt lat="41.6377910" lon="-8.7837620">
        <ele>81.2</ele>
        <time>2021-05-17T13:08:25Z</time>
      </trkpt>
      <trkpt lat="41.6378020" lon="-8.7837490">
        <ele>81.2</ele>
        <time>2021-05-17T13:08:26Z</time>
      </trkpt>
      <trkpt lat="41.6378110" lon="-8.7837280">
        <ele>81.2</ele>
        <time>2021-05-17T13:08:27Z</time>
      </trkpt>
      <trkpt lat="41.6378140" lon="-8.7837150">
        <ele>81.2</ele>
        <time>2021-05-17T13:08:28Z</time>
      </trkpt>
      <trkpt lat="41.6378200" lon="-8.7837060">
        <ele>81.1</ele>
        <time>2021-05-17T13:08:29Z</time>
      </trkpt>
      <trkpt lat="41.6378290" lon="-8.7836990">
        <ele>81.1</ele>
        <time>2021-05-17T13:08:30Z</time>
      </trkpt>
      <trkpt lat="41.6378450" lon="-8.7836820">
        <ele>81.1</ele>
        <time>2021-05-17T13:08:31Z</time>
      </trkpt>
      <trkpt lat="41.6378540" lon="-8.7836690">
        <ele>81.1</ele>
        <time>2021-05-17T13:08:32Z</time>
      </trkpt>
      <trkpt lat="41.6378610" lon="-8.7836570">
        <ele>81.1</ele>
        <time>2021-05-17T13:08:33Z</time>
      </trkpt>
      <trkpt lat="41.6378690" lon="-8.7836470">
        <ele>81.1</ele>
        <time>2021-05-17T13:08:34Z</time>
      </trkpt>
      <trkpt lat="41.6378740" lon="-8.7836390">
        <ele>81.1</ele>
        <time>2021-05-17T13:08:35Z</time>
      </trkpt>
      <trkpt lat="41.6378820" lon="-8.7836230">
        <ele>81.1</ele>
        <time>2021-05-17T13:08:36Z</time>
      </trkpt>
      <trkpt lat="41.6378900" lon="-8.7836210">
        <ele>81.1</ele>
        <time>2021-05-17T13:08:37Z</time>
      </trkpt>
      <trkpt lat="41.6378960" lon="-8.7836050">
        <ele>81.1</ele>
        <time>2021-05-17T13:08:38Z</time>
      </trkpt>
      <trkpt lat="41.6379070" lon="-8.7836030">
        <ele>81.1</ele>
        <time>2021-05-17T13:08:39Z</time>
      </trkpt>
      <trkpt lat="41.6379180" lon="-8.7835880">
        <ele>81.1</ele>
        <time>2021-05-17T13:08:40Z</time>
      </trkpt>
      <trkpt lat="41.6379220" lon="-8.7835780">
        <ele>81.1</ele>
        <time>2021-05-17T13:08:41Z</time>
      </trkpt>
      <trkpt lat="41.6379210" lon="-8.7835520">
        <ele>81.1</ele>
        <time>2021-05-17T13:08:42Z</time>
      </trkpt>
      <trkpt lat="41.6379290" lon="-8.7835340">
        <ele>81.1</ele>
        <time>2021-05-17T13:08:43Z</time>
      </trkpt>
      <trkpt lat="41.6379420" lon="-8.7835190">
        <ele>81.1</ele>
        <time>2021-05-17T13:08:44Z</time>
      </trkpt>
      <trkpt lat="41.6379480" lon="-8.7835140">
        <ele>81.1</ele>
        <time>2021-05-17T13:08:45Z</time>
      </trkpt>
      <trkpt lat="41.6379560" lon="-8.7835080">
        <ele>81.1</ele>
        <time>2021-05-17T13:08:46Z</time>
      </trkpt>
      <trkpt lat="41.6379620" lon="-8.7834900">
        <ele>81.1</ele>
        <time>2021-05-17T13:08:47Z</time>
      </trkpt>
      <trkpt lat="41.6379760" lon="-8.7834760">
        <ele>81.1</ele>
        <time>2021-05-17T13:08:48Z</time>
      </trkpt>
      <trkpt lat="41.6379830" lon="-8.7834670">
        <ele>81.1</ele>
        <time>2021-05-17T13:08:49Z</time>
      </trkpt>
      <trkpt lat="41.6379880" lon="-8.7834510">
        <ele>81.0</ele>
        <time>2021-05-17T13:08:50Z</time>
      </trkpt>
      <trkpt lat="41.6379910" lon="-8.7834460">
        <ele>81.0</ele>
        <time>2021-05-17T13:08:51Z</time>
      </trkpt>
      <trkpt lat="41.6379960" lon="-8.7834370">
        <ele>81.0</ele>
        <time>2021-05-17T13:08:52Z</time>
      </trkpt>
      <trkpt lat="41.6380010" lon="-8.7834260">
        <ele>81.0</ele>
        <time>2021-05-17T13:08:53Z</time>
      </trkpt>
      <trkpt lat="41.6380120" lon="-8.7834190">
        <ele>81.0</ele>
        <time>2021-05-17T13:08:54Z</time>
      </trkpt>
      <trkpt lat="41.6380220" lon="-8.7834180">
        <ele>80.9</ele>
        <time>2021-05-17T13:08:55Z</time>
      </trkpt>
      <trkpt lat="41.6380360" lon="-8.7834070">
        <ele>80.9</ele>
        <time>2021-05-17T13:08:56Z</time>
      </trkpt>
      <trkpt lat="41.6380530" lon="-8.7834230">
        <ele>80.7</ele>
        <time>2021-05-17T13:08:57Z</time>
      </trkpt>
      <trkpt lat="41.6380740" lon="-8.7834310">
        <ele>80.6</ele>
        <time>2021-05-17T13:08:58Z</time>
      </trkpt>
      <trkpt lat="41.6380820" lon="-8.7834340">
        <ele>80.6</ele>
        <time>2021-05-17T13:08:59Z</time>
      </trkpt>
      <trkpt lat="41.6380960" lon="-8.7834380">
        <ele>80.5</ele>
        <time>2021-05-17T13:09:00Z</time>
      </trkpt>
      <trkpt lat="41.6381040" lon="-8.7834370">
        <ele>80.4</ele>
        <time>2021-05-17T13:09:01Z</time>
      </trkpt>
      <trkpt lat="41.6381130" lon="-8.7834350">
        <ele>80.3</ele>
        <time>2021-05-17T13:09:02Z</time>
      </trkpt>
      <trkpt lat="41.6381210" lon="-8.7834340">
        <ele>80.3</ele>
        <time>2021-05-17T13:09:03Z</time>
      </trkpt>
      <trkpt lat="41.6381350" lon="-8.7834230">
        <ele>80.1</ele>
        <time>2021-05-17T13:09:04Z</time>
      </trkpt>
      <trkpt lat="41.6381410" lon="-8.7834050">
        <ele>80.0</ele>
        <time>2021-05-17T13:09:05Z</time>
      </trkpt>
      <trkpt lat="41.6381450" lon="-8.7833860">
        <ele>79.9</ele>
        <time>2021-05-17T13:09:06Z</time>
      </trkpt>
      <trkpt lat="41.6381490" lon="-8.7833770">
        <ele>79.8</ele>
        <time>2021-05-17T13:09:07Z</time>
      </trkpt>
      <trkpt lat="41.6381540" lon="-8.7833670">
        <ele>79.7</ele>
        <time>2021-05-17T13:09:08Z</time>
      </trkpt>
      <trkpt lat="41.6381580" lon="-8.7833580">
        <ele>79.7</ele>
        <time>2021-05-17T13:09:09Z</time>
      </trkpt>
      <trkpt lat="41.6381650" lon="-8.7833260">
        <ele>79.5</ele>
        <time>2021-05-17T13:09:10Z</time>
      </trkpt>
      <trkpt lat="41.6381690" lon="-8.7833120">
        <ele>79.4</ele>
        <time>2021-05-17T13:09:11Z</time>
      </trkpt>
      <trkpt lat="41.6381740" lon="-8.7832870">
        <ele>79.2</ele>
        <time>2021-05-17T13:09:12Z</time>
      </trkpt>
      <trkpt lat="41.6381810" lon="-8.7832740">
        <ele>79.2</ele>
        <time>2021-05-17T13:09:13Z</time>
      </trkpt>
      <trkpt lat="41.6381970" lon="-8.7832420">
        <ele>79.0</ele>
        <time>2021-05-17T13:09:14Z</time>
      </trkpt>
      <trkpt lat="41.6381990" lon="-8.7832320">
        <ele>79.0</ele>
        <time>2021-05-17T13:09:15Z</time>
      </trkpt>
      <trkpt lat="41.6382120" lon="-8.7832150">
        <ele>78.9</ele>
        <time>2021-05-17T13:09:16Z</time>
      </trkpt>
      <trkpt lat="41.6382160" lon="-8.7831990">
        <ele>78.9</ele>
        <time>2021-05-17T13:09:17Z</time>
      </trkpt>
      <trkpt lat="41.6382230" lon="-8.7831910">
        <ele>78.8</ele>
        <time>2021-05-17T13:09:18Z</time>
      </trkpt>
      <trkpt lat="41.6382320" lon="-8.7831770">
        <ele>78.8</ele>
        <time>2021-05-17T13:09:19Z</time>
      </trkpt>
      <trkpt lat="41.6382390" lon="-8.7831660">
        <ele>78.8</ele>
        <time>2021-05-17T13:09:20Z</time>
      </trkpt>
      <trkpt lat="41.6382460" lon="-8.7831550">
        <ele>78.8</ele>
        <time>2021-05-17T13:09:21Z</time>
      </trkpt>
      <trkpt lat="41.6382550" lon="-8.7831420">
        <ele>78.8</ele>
        <time>2021-05-17T13:09:22Z</time>
      </trkpt>
      <trkpt lat="41.6382580" lon="-8.7831300">
        <ele>78.8</ele>
        <time>2021-05-17T13:09:23Z</time>
      </trkpt>
      <trkpt lat="41.6382670" lon="-8.7831190">
        <ele>78.8</ele>
        <time>2021-05-17T13:09:24Z</time>
      </trkpt>
      <trkpt lat="41.6382770" lon="-8.7831070">
        <ele>78.8</ele>
        <time>2021-05-17T13:09:25Z</time>
      </trkpt>
      <trkpt lat="41.6382830" lon="-8.7830980">
        <ele>78.8</ele>
        <time>2021-05-17T13:09:26Z</time>
      </trkpt>
      <trkpt lat="41.6383050" lon="-8.7830800">
        <ele>78.9</ele>
        <time>2021-05-17T13:09:27Z</time>
      </trkpt>
      <trkpt lat="41.6383090" lon="-8.7830790">
        <ele>78.9</ele>
        <time>2021-05-17T13:09:28Z</time>
      </trkpt>
      <trkpt lat="41.6383120" lon="-8.7830770">
        <ele>78.9</ele>
        <time>2021-05-17T13:09:29Z</time>
      </trkpt>
      <trkpt lat="41.6383140" lon="-8.7830800">
        <ele>78.9</ele>
        <time>2021-05-17T13:09:30Z</time>
      </trkpt>
      <trkpt lat="41.6383220" lon="-8.7830810">
        <ele>78.9</ele>
        <time>2021-05-17T13:09:31Z</time>
      </trkpt>
      <trkpt lat="41.6383250" lon="-8.7830790">
        <ele>78.9</ele>
        <time>2021-05-17T13:09:32Z</time>
      </trkpt>
      <trkpt lat="41.6383250" lon="-8.7830790">
        <ele>78.9</ele>
        <time>2021-05-17T13:09:33Z</time>
      </trkpt>
      <trkpt lat="41.6383270" lon="-8.7830740">
        <ele>78.9</ele>
        <time>2021-05-17T13:09:34Z</time>
      </trkpt>
      <trkpt lat="41.6383300" lon="-8.7830740">
        <ele>78.9</ele>
        <time>2021-05-17T13:09:35Z</time>
      </trkpt>
      <trkpt lat="41.6383310" lon="-8.7830690">
        <ele>78.9</ele>
        <time>2021-05-17T13:09:36Z</time>
      </trkpt>
      <trkpt lat="41.6383300" lon="-8.7830670">
        <ele>78.9</ele>
        <time>2021-05-17T13:09:37Z</time>
      </trkpt>
      <trkpt lat="41.6383300" lon="-8.7830640">
        <ele>78.9</ele>
        <time>2021-05-17T13:09:38Z</time>
      </trkpt>
      <trkpt lat="41.6383300" lon="-8.7830650">
        <ele>78.9</ele>
        <time>2021-05-17T13:09:39Z</time>
      </trkpt>
      <trkpt lat="41.6383290" lon="-8.7830680">
        <ele>78.9</ele>
        <time>2021-05-17T13:09:40Z</time>
      </trkpt>
      <trkpt lat="41.6383300" lon="-8.7830660">
        <ele>78.9</ele>
        <time>2021-05-17T13:09:41Z</time>
      </trkpt>
      <trkpt lat="41.6383350" lon="-8.7830640">
        <ele>78.9</ele>
        <time>2021-05-17T13:09:42Z</time>
      </trkpt>
      <trkpt lat="41.6383380" lon="-8.7830660">
        <ele>78.9</ele>
        <time>2021-05-17T13:09:43Z</time>
      </trkpt>
      <trkpt lat="41.6383400" lon="-8.7830650">
        <ele>78.9</ele>
        <time>2021-05-17T13:09:44Z</time>
      </trkpt>
      <trkpt lat="41.6383450" lon="-8.7830630">
        <ele>78.9</ele>
        <time>2021-05-17T13:09:45Z</time>
      </trkpt>
      <trkpt lat="41.6383480" lon="-8.7830690">
        <ele>78.9</ele>
        <time>2021-05-17T13:09:46Z</time>
      </trkpt>
      <trkpt lat="41.6383480" lon="-8.7830710">
        <ele>78.9</ele>
        <time>2021-05-17T13:09:47Z</time>
      </trkpt>
      <trkpt lat="41.6383450" lon="-8.7830790">
        <ele>78.9</ele>
        <time>2021-05-17T13:09:48Z</time>
      </trkpt>
      <trkpt lat="41.6383420" lon="-8.7830780">
        <ele>79.0</ele>
        <time>2021-05-17T13:09:49Z</time>
      </trkpt>
      <trkpt lat="41.6383370" lon="-8.7830740">
        <ele>79.0</ele>
        <time>2021-05-17T13:09:50Z</time>
      </trkpt>
      <trkpt lat="41.6383340" lon="-8.7830720">
        <ele>79.0</ele>
        <time>2021-05-17T13:09:51Z</time>
      </trkpt>
      <trkpt lat="41.6383450" lon="-8.7830620">
        <ele>79.0</ele>
        <time>2021-05-17T13:09:52Z</time>
      </trkpt>
      <trkpt lat="41.6383470" lon="-8.7830490">
        <ele>79.0</ele>
        <time>2021-05-17T13:09:53Z</time>
      </trkpt>
      <trkpt lat="41.6383620" lon="-8.7830350">
        <ele>79.0</ele>
        <time>2021-05-17T13:09:54Z</time>
      </trkpt>
      <trkpt lat="41.6383680" lon="-8.7830190">
        <ele>79.0</ele>
        <time>2021-05-17T13:09:55Z</time>
      </trkpt>
      <trkpt lat="41.6383680" lon="-8.7830120">
        <ele>79.0</ele>
        <time>2021-05-17T13:09:56Z</time>
      </trkpt>
      <trkpt lat="41.6383780" lon="-8.7830010">
        <ele>79.1</ele>
        <time>2021-05-17T13:09:57Z</time>
      </trkpt>
      <trkpt lat="41.6383800" lon="-8.7829960">
        <ele>79.1</ele>
        <time>2021-05-17T13:09:58Z</time>
      </trkpt>
      <trkpt lat="41.6383820" lon="-8.7829820">
        <ele>79.1</ele>
        <time>2021-05-17T13:09:59Z</time>
      </trkpt>
      <trkpt lat="41.6383900" lon="-8.7829720">
        <ele>79.1</ele>
        <time>2021-05-17T13:10:00Z</time>
      </trkpt>
      <trkpt lat="41.6383940" lon="-8.7829770">
        <ele>79.1</ele>
        <time>2021-05-17T13:10:01Z</time>
      </trkpt>
      <trkpt lat="41.6383920" lon="-8.7829670">
        <ele>79.1</ele>
        <time>2021-05-17T13:10:02Z</time>
      </trkpt>
      <trkpt lat="41.6383900" lon="-8.7829570">
        <ele>79.1</ele>
        <time>2021-05-17T13:10:03Z</time>
      </trkpt>
      <trkpt lat="41.6383840" lon="-8.7829400">
        <ele>79.1</ele>
        <time>2021-05-17T13:10:04Z</time>
      </trkpt>
      <trkpt lat="41.6383850" lon="-8.7829230">
        <ele>79.1</ele>
        <time>2021-05-17T13:10:05Z</time>
      </trkpt>
      <trkpt lat="41.6383880" lon="-8.7829150">
        <ele>79.2</ele>
        <time>2021-05-17T13:10:06Z</time>
      </trkpt>
      <trkpt lat="41.6383870" lon="-8.7829150">
        <ele>79.2</ele>
        <time>2021-05-17T13:10:07Z</time>
      </trkpt>
      <trkpt lat="41.6383860" lon="-8.7829040">
        <ele>79.2</ele>
        <time>2021-05-17T13:10:08Z</time>
      </trkpt>
      <trkpt lat="41.6383920" lon="-8.7829070">
        <ele>79.2</ele>
        <time>2021-05-17T13:10:09Z</time>
      </trkpt>
      <trkpt lat="41.6384010" lon="-8.7828980">
        <ele>79.2</ele>
        <time>2021-05-17T13:10:10Z</time>
      </trkpt>
      <trkpt lat="41.6384070" lon="-8.7828870">
        <ele>79.2</ele>
        <time>2021-05-17T13:10:11Z</time>
      </trkpt>
      <trkpt lat="41.6384200" lon="-8.7828750">
        <ele>79.2</ele>
        <time>2021-05-17T13:10:12Z</time>
      </trkpt>
      <trkpt lat="41.6384300" lon="-8.7828720">
        <ele>79.2</ele>
        <time>2021-05-17T13:10:13Z</time>
      </trkpt>
      <trkpt lat="41.6384400" lon="-8.7828710">
        <ele>79.2</ele>
        <time>2021-05-17T13:10:14Z</time>
      </trkpt>
      <trkpt lat="41.6384510" lon="-8.7828660">
        <ele>79.2</ele>
        <time>2021-05-17T13:10:15Z</time>
      </trkpt>
      <trkpt lat="41.6384670" lon="-8.7828600">
        <ele>79.2</ele>
        <time>2021-05-17T13:10:16Z</time>
      </trkpt>
      <trkpt lat="41.6384760" lon="-8.7828560">
        <ele>79.2</ele>
        <time>2021-05-17T13:10:17Z</time>
      </trkpt>
      <trkpt lat="41.6384870" lon="-8.7828550">
        <ele>79.2</ele>
        <time>2021-05-17T13:10:18Z</time>
      </trkpt>
      <trkpt lat="41.6385020" lon="-8.7828510">
        <ele>79.1</ele>
        <time>2021-05-17T13:10:19Z</time>
      </trkpt>
      <trkpt lat="41.6385170" lon="-8.7828430">
        <ele>79.1</ele>
        <time>2021-05-17T13:10:20Z</time>
      </trkpt>
      <trkpt lat="41.6385350" lon="-8.7828370">
        <ele>79.1</ele>
        <time>2021-05-17T13:10:21Z</time>
      </trkpt>
      <trkpt lat="41.6385550" lon="-8.7828340">
        <ele>79.0</ele>
        <time>2021-05-17T13:10:22Z</time>
      </trkpt>
      <trkpt lat="41.6385640" lon="-8.7828320">
        <ele>79.0</ele>
        <time>2021-05-17T13:10:23Z</time>
      </trkpt>
      <trkpt lat="41.6385730" lon="-8.7828300">
        <ele>79.0</ele>
        <time>2021-05-17T13:10:24Z</time>
      </trkpt>
      <trkpt lat="41.6386010" lon="-8.7828050">
        <ele>78.9</ele>
        <time>2021-05-17T13:10:25Z</time>
      </trkpt>
      <trkpt lat="41.6386080" lon="-8.7827970">
        <ele>78.8</ele>
        <time>2021-05-17T13:10:26Z</time>
      </trkpt>
      <trkpt lat="41.6386340" lon="-8.7827850">
        <ele>78.8</ele>
        <time>2021-05-17T13:10:27Z</time>
      </trkpt>
      <trkpt lat="41.6386450" lon="-8.7827810">
        <ele>78.7</ele>
        <time>2021-05-17T13:10:28Z</time>
      </trkpt>
      <trkpt lat="41.6386620" lon="-8.7827640">
        <ele>78.7</ele>
        <time>2021-05-17T13:10:29Z</time>
      </trkpt>
      <trkpt lat="41.6386730" lon="-8.7827570">
        <ele>78.6</ele>
        <time>2021-05-17T13:10:30Z</time>
      </trkpt>
      <trkpt lat="41.6386860" lon="-8.7827260">
        <ele>78.6</ele>
        <time>2021-05-17T13:10:31Z</time>
      </trkpt>
      <trkpt lat="41.6386940" lon="-8.7827180">
        <ele>78.5</ele>
        <time>2021-05-17T13:10:32Z</time>
      </trkpt>
      <trkpt lat="41.6387010" lon="-8.7827090">
        <ele>78.5</ele>
        <time>2021-05-17T13:10:33Z</time>
      </trkpt>
      <trkpt lat="41.6387120" lon="-8.7826980">
        <ele>78.5</ele>
        <time>2021-05-17T13:10:34Z</time>
      </trkpt>
      <trkpt lat="41.6387260" lon="-8.7826890">
        <ele>78.4</ele>
        <time>2021-05-17T13:10:35Z</time>
      </trkpt>
      <trkpt lat="41.6387300" lon="-8.7826790">
        <ele>78.4</ele>
        <time>2021-05-17T13:10:36Z</time>
      </trkpt>
      <trkpt lat="41.6387340" lon="-8.7826710">
        <ele>78.4</ele>
        <time>2021-05-17T13:10:37Z</time>
      </trkpt>
      <trkpt lat="41.6387400" lon="-8.7826630">
        <ele>78.4</ele>
        <time>2021-05-17T13:10:38Z</time>
      </trkpt>
      <trkpt lat="41.6387530" lon="-8.7826600">
        <ele>78.3</ele>
        <time>2021-05-17T13:10:39Z</time>
      </trkpt>
      <trkpt lat="41.6387640" lon="-8.7826520">
        <ele>78.3</ele>
        <time>2021-05-17T13:10:40Z</time>
      </trkpt>
      <trkpt lat="41.6387730" lon="-8.7826350">
        <ele>78.3</ele>
        <time>2021-05-17T13:10:41Z</time>
      </trkpt>
      <trkpt lat="41.6387790" lon="-8.7826320">
        <ele>78.2</ele>
        <time>2021-05-17T13:10:42Z</time>
      </trkpt>
      <trkpt lat="41.6387910" lon="-8.7826170">
        <ele>78.2</ele>
        <time>2021-05-17T13:10:43Z</time>
      </trkpt>
      <trkpt lat="41.6388020" lon="-8.7826070">
        <ele>78.1</ele>
        <time>2021-05-17T13:10:44Z</time>
      </trkpt>
      <trkpt lat="41.6388200" lon="-8.7825940">
        <ele>78.0</ele>
        <time>2021-05-17T13:10:45Z</time>
      </trkpt>
      <trkpt lat="41.6388290" lon="-8.7825870">
        <ele>78.0</ele>
        <time>2021-05-17T13:10:46Z</time>
      </trkpt>
      <trkpt lat="41.6388380" lon="-8.7825800">
        <ele>77.9</ele>
        <time>2021-05-17T13:10:47Z</time>
      </trkpt>
      <trkpt lat="41.6388490" lon="-8.7825740">
        <ele>77.9</ele>
        <time>2021-05-17T13:10:48Z</time>
      </trkpt>
      <trkpt lat="41.6388690" lon="-8.7825580">
        <ele>77.8</ele>
        <time>2021-05-17T13:10:49Z</time>
      </trkpt>
      <trkpt lat="41.6388910" lon="-8.7825650">
        <ele>77.7</ele>
        <time>2021-05-17T13:10:50Z</time>
      </trkpt>
      <trkpt lat="41.6389010" lon="-8.7825580">
        <ele>77.7</ele>
        <time>2021-05-17T13:10:51Z</time>
      </trkpt>
      <trkpt lat="41.6389110" lon="-8.7825520">
        <ele>77.6</ele>
        <time>2021-05-17T13:10:52Z</time>
      </trkpt>
      <trkpt lat="41.6389220" lon="-8.7825480">
        <ele>77.6</ele>
        <time>2021-05-17T13:10:53Z</time>
      </trkpt>
      <trkpt lat="41.6389410" lon="-8.7825410">
        <ele>77.5</ele>
        <time>2021-05-17T13:10:54Z</time>
      </trkpt>
      <trkpt lat="41.6389560" lon="-8.7825360">
        <ele>77.4</ele>
        <time>2021-05-17T13:10:55Z</time>
      </trkpt>
      <trkpt lat="41.6389720" lon="-8.7825310">
        <ele>77.4</ele>
        <time>2021-05-17T13:10:56Z</time>
      </trkpt>
      <trkpt lat="41.6389900" lon="-8.7825220">
        <ele>77.3</ele>
        <time>2021-05-17T13:10:57Z</time>
      </trkpt>
      <trkpt lat="41.6390030" lon="-8.7825170">
        <ele>77.2</ele>
        <time>2021-05-17T13:10:58Z</time>
      </trkpt>
      <trkpt lat="41.6390170" lon="-8.7825020">
        <ele>77.2</ele>
        <time>2021-05-17T13:10:59Z</time>
      </trkpt>
      <trkpt lat="41.6390310" lon="-8.7824950">
        <ele>77.1</ele>
        <time>2021-05-17T13:11:00Z</time>
      </trkpt>
      <trkpt lat="41.6390540" lon="-8.7824890">
        <ele>77.0</ele>
        <time>2021-05-17T13:11:01Z</time>
      </trkpt>
      <trkpt lat="41.6390660" lon="-8.7824850">
        <ele>77.0</ele>
        <time>2021-05-17T13:11:02Z</time>
      </trkpt>
      <trkpt lat="41.6390770" lon="-8.7824810">
        <ele>76.9</ele>
        <time>2021-05-17T13:11:03Z</time>
      </trkpt>
      <trkpt lat="41.6391000" lon="-8.7824700">
        <ele>76.8</ele>
        <time>2021-05-17T13:11:04Z</time>
      </trkpt>
      <trkpt lat="41.6391090" lon="-8.7824670">
        <ele>76.8</ele>
        <time>2021-05-17T13:11:05Z</time>
      </trkpt>
      <trkpt lat="41.6391180" lon="-8.7824630">
        <ele>76.7</ele>
        <time>2021-05-17T13:11:06Z</time>
      </trkpt>
      <trkpt lat="41.6391310" lon="-8.7824570">
        <ele>76.7</ele>
        <time>2021-05-17T13:11:07Z</time>
      </trkpt>
      <trkpt lat="41.6391470" lon="-8.7824550">
        <ele>76.6</ele>
        <time>2021-05-17T13:11:08Z</time>
      </trkpt>
      <trkpt lat="41.6391620" lon="-8.7824560">
        <ele>76.6</ele>
        <time>2021-05-17T13:11:09Z</time>
      </trkpt>
      <trkpt lat="41.6391760" lon="-8.7824530">
        <ele>76.5</ele>
        <time>2021-05-17T13:11:10Z</time>
      </trkpt>
      <trkpt lat="41.6391960" lon="-8.7824390">
        <ele>76.4</ele>
        <time>2021-05-17T13:11:11Z</time>
      </trkpt>
      <trkpt lat="41.6392040" lon="-8.7824380">
        <ele>76.4</ele>
        <time>2021-05-17T13:11:12Z</time>
      </trkpt>
      <trkpt lat="41.6392120" lon="-8.7824370">
        <ele>76.3</ele>
        <time>2021-05-17T13:11:13Z</time>
      </trkpt>
      <trkpt lat="41.6392260" lon="-8.7824220">
        <ele>76.3</ele>
        <time>2021-05-17T13:11:14Z</time>
      </trkpt>
      <trkpt lat="41.6392350" lon="-8.7824170">
        <ele>76.2</ele>
        <time>2021-05-17T13:11:15Z</time>
      </trkpt>
      <trkpt lat="41.6392490" lon="-8.7824020">
        <ele>76.2</ele>
        <time>2021-05-17T13:11:16Z</time>
      </trkpt>
      <trkpt lat="41.6392590" lon="-8.7823970">
        <ele>76.1</ele>
        <time>2021-05-17T13:11:17Z</time>
      </trkpt>
      <trkpt lat="41.6392750" lon="-8.7823970">
        <ele>76.0</ele>
        <time>2021-05-17T13:11:18Z</time>
      </trkpt>
      <trkpt lat="41.6392850" lon="-8.7823830">
        <ele>76.0</ele>
        <time>2021-05-17T13:11:19Z</time>
      </trkpt>
      <trkpt lat="41.6392980" lon="-8.7823720">
        <ele>75.9</ele>
        <time>2021-05-17T13:11:20Z</time>
      </trkpt>
      <trkpt lat="41.6393110" lon="-8.7823650">
        <ele>75.9</ele>
        <time>2021-05-17T13:11:21Z</time>
      </trkpt>
      <trkpt lat="41.6393350" lon="-8.7823440">
        <ele>75.8</ele>
        <time>2021-05-17T13:11:22Z</time>
      </trkpt>
      <trkpt lat="41.6393400" lon="-8.7823350">
        <ele>75.7</ele>
        <time>2021-05-17T13:11:23Z</time>
      </trkpt>
      <trkpt lat="41.6393480" lon="-8.7823210">
        <ele>75.7</ele>
        <time>2021-05-17T13:11:24Z</time>
      </trkpt>
      <trkpt lat="41.6393620" lon="-8.7823080">
        <ele>75.6</ele>
        <time>2021-05-17T13:11:25Z</time>
      </trkpt>
      <trkpt lat="41.6393800" lon="-8.7822980">
        <ele>75.5</ele>
        <time>2021-05-17T13:11:26Z</time>
      </trkpt>
      <trkpt lat="41.6393900" lon="-8.7822880">
        <ele>75.5</ele>
        <time>2021-05-17T13:11:27Z</time>
      </trkpt>
      <trkpt lat="41.6394080" lon="-8.7822760">
        <ele>75.4</ele>
        <time>2021-05-17T13:11:28Z</time>
      </trkpt>
      <trkpt lat="41.6394160" lon="-8.7822700">
        <ele>75.3</ele>
        <time>2021-05-17T13:11:29Z</time>
      </trkpt>
      <trkpt lat="41.6394250" lon="-8.7822650">
        <ele>75.3</ele>
        <time>2021-05-17T13:11:30Z</time>
      </trkpt>
      <trkpt lat="41.6394380" lon="-8.7822550">
        <ele>75.2</ele>
        <time>2021-05-17T13:11:31Z</time>
      </trkpt>
      <trkpt lat="41.6394460" lon="-8.7822500">
        <ele>75.2</ele>
        <time>2021-05-17T13:11:32Z</time>
      </trkpt>
      <trkpt lat="41.6394530" lon="-8.7822440">
        <ele>75.2</ele>
        <time>2021-05-17T13:11:33Z</time>
      </trkpt>
      <trkpt lat="41.6394600" lon="-8.7822390">
        <ele>75.1</ele>
        <time>2021-05-17T13:11:34Z</time>
      </trkpt>
      <trkpt lat="41.6394870" lon="-8.7822220">
        <ele>75.0</ele>
        <time>2021-05-17T13:11:35Z</time>
      </trkpt>
      <trkpt lat="41.6394940" lon="-8.7822170">
        <ele>75.0</ele>
        <time>2021-05-17T13:11:36Z</time>
      </trkpt>
      <trkpt lat="41.6395060" lon="-8.7822030">
        <ele>74.9</ele>
        <time>2021-05-17T13:11:37Z</time>
      </trkpt>
      <trkpt lat="41.6395230" lon="-8.7821950">
        <ele>74.9</ele>
        <time>2021-05-17T13:11:38Z</time>
      </trkpt>
      <trkpt lat="41.6395430" lon="-8.7821870">
        <ele>74.8</ele>
        <time>2021-05-17T13:11:39Z</time>
      </trkpt>
      <trkpt lat="41.6395520" lon="-8.7821830">
        <ele>74.7</ele>
        <time>2021-05-17T13:11:40Z</time>
      </trkpt>
      <trkpt lat="41.6395610" lon="-8.7821800">
        <ele>74.7</ele>
        <time>2021-05-17T13:11:41Z</time>
      </trkpt>
      <trkpt lat="41.6395770" lon="-8.7821650">
        <ele>74.6</ele>
        <time>2021-05-17T13:11:42Z</time>
      </trkpt>
      <trkpt lat="41.6395850" lon="-8.7821570">
        <ele>74.6</ele>
        <time>2021-05-17T13:11:43Z</time>
      </trkpt>
      <trkpt lat="41.6395940" lon="-8.7821500">
        <ele>74.5</ele>
        <time>2021-05-17T13:11:44Z</time>
      </trkpt>
      <trkpt lat="41.6396090" lon="-8.7821440">
        <ele>74.5</ele>
        <time>2021-05-17T13:11:45Z</time>
      </trkpt>
      <trkpt lat="41.6396260" lon="-8.7821330">
        <ele>74.4</ele>
        <time>2021-05-17T13:11:46Z</time>
      </trkpt>
      <trkpt lat="41.6396500" lon="-8.7821140">
        <ele>74.3</ele>
        <time>2021-05-17T13:11:47Z</time>
      </trkpt>
      <trkpt lat="41.6396580" lon="-8.7821070">
        <ele>74.2</ele>
        <time>2021-05-17T13:11:48Z</time>
      </trkpt>
      <trkpt lat="41.6396740" lon="-8.7821030">
        <ele>74.2</ele>
        <time>2021-05-17T13:11:49Z</time>
      </trkpt>
      <trkpt lat="41.6396900" lon="-8.7821000">
        <ele>74.1</ele>
        <time>2021-05-17T13:11:50Z</time>
      </trkpt>
      <trkpt lat="41.6397050" lon="-8.7820920">
        <ele>74.0</ele>
        <time>2021-05-17T13:11:51Z</time>
      </trkpt>
      <trkpt lat="41.6397150" lon="-8.7820830">
        <ele>74.0</ele>
        <time>2021-05-17T13:11:52Z</time>
      </trkpt>
      <trkpt lat="41.6397260" lon="-8.7820730">
        <ele>73.9</ele>
        <time>2021-05-17T13:11:53Z</time>
      </trkpt>
      <trkpt lat="41.6397330" lon="-8.7820630">
        <ele>73.9</ele>
        <time>2021-05-17T13:11:54Z</time>
      </trkpt>
      <trkpt lat="41.6397520" lon="-8.7820510">
        <ele>73.8</ele>
        <time>2021-05-17T13:11:55Z</time>
      </trkpt>
      <trkpt lat="41.6397650" lon="-8.7820390">
        <ele>73.8</ele>
        <time>2021-05-17T13:11:56Z</time>
      </trkpt>
      <trkpt lat="41.6397760" lon="-8.7820260">
        <ele>73.7</ele>
        <time>2021-05-17T13:11:57Z</time>
      </trkpt>
      <trkpt lat="41.6397880" lon="-8.7820120">
        <ele>73.6</ele>
        <time>2021-05-17T13:11:58Z</time>
      </trkpt>
      <trkpt lat="41.6398000" lon="-8.7819960">
        <ele>73.6</ele>
        <time>2021-05-17T13:11:59Z</time>
      </trkpt>
      <trkpt lat="41.6398230" lon="-8.7819770">
        <ele>73.5</ele>
        <time>2021-05-17T13:12:00Z</time>
      </trkpt>
      <trkpt lat="41.6398300" lon="-8.7819690">
        <ele>73.4</ele>
        <time>2021-05-17T13:12:01Z</time>
      </trkpt>
      <trkpt lat="41.6398440" lon="-8.7819550">
        <ele>73.3</ele>
        <time>2021-05-17T13:12:02Z</time>
      </trkpt>
      <trkpt lat="41.6398520" lon="-8.7819400">
        <ele>73.3</ele>
        <time>2021-05-17T13:12:03Z</time>
      </trkpt>
      <trkpt lat="41.6398540" lon="-8.7819310">
        <ele>73.3</ele>
        <time>2021-05-17T13:12:04Z</time>
      </trkpt>
      <trkpt lat="41.6398600" lon="-8.7819240">
        <ele>73.2</ele>
        <time>2021-05-17T13:12:05Z</time>
      </trkpt>
      <trkpt lat="41.6398700" lon="-8.7819110">
        <ele>73.2</ele>
        <time>2021-05-17T13:12:06Z</time>
      </trkpt>
      <trkpt lat="41.6398730" lon="-8.7819000">
        <ele>73.1</ele>
        <time>2021-05-17T13:12:07Z</time>
      </trkpt>
      <trkpt lat="41.6398770" lon="-8.7818890">
        <ele>73.1</ele>
        <time>2021-05-17T13:12:08Z</time>
      </trkpt>
      <trkpt lat="41.6398840" lon="-8.7818840">
        <ele>73.1</ele>
        <time>2021-05-17T13:12:09Z</time>
      </trkpt>
      <trkpt lat="41.6398880" lon="-8.7818860">
        <ele>73.1</ele>
        <time>2021-05-17T13:12:10Z</time>
      </trkpt>
      <trkpt lat="41.6398890" lon="-8.7818890">
        <ele>73.0</ele>
        <time>2021-05-17T13:12:11Z</time>
      </trkpt>
      <trkpt lat="41.6398920" lon="-8.7818970">
        <ele>73.0</ele>
        <time>2021-05-17T13:12:12Z</time>
      </trkpt>
      <trkpt lat="41.6399030" lon="-8.7818970">
        <ele>73.0</ele>
        <time>2021-05-17T13:12:13Z</time>
      </trkpt>
      <trkpt lat="41.6399070" lon="-8.7819030">
        <ele>72.9</ele>
        <time>2021-05-17T13:12:14Z</time>
      </trkpt>
      <trkpt lat="41.6399080" lon="-8.7819090">
        <ele>72.9</ele>
        <time>2021-05-17T13:12:15Z</time>
      </trkpt>
      <trkpt lat="41.6399100" lon="-8.7819120">
        <ele>72.9</ele>
        <time>2021-05-17T13:12:16Z</time>
      </trkpt>
      <trkpt lat="41.6399130" lon="-8.7819020">
        <ele>72.9</ele>
        <time>2021-05-17T13:12:17Z</time>
      </trkpt>
      <trkpt lat="41.6399130" lon="-8.7818900">
        <ele>72.8</ele>
        <time>2021-05-17T13:12:18Z</time>
      </trkpt>
      <trkpt lat="41.6399180" lon="-8.7818830">
        <ele>72.8</ele>
        <time>2021-05-17T13:12:19Z</time>
      </trkpt>
      <trkpt lat="41.6399270" lon="-8.7818750">
        <ele>72.8</ele>
        <time>2021-05-17T13:12:20Z</time>
      </trkpt>
      <trkpt lat="41.6399440" lon="-8.7818500">
        <ele>72.7</ele>
        <time>2021-05-17T13:12:21Z</time>
      </trkpt>
      <trkpt lat="41.6399530" lon="-8.7818530">
        <ele>72.6</ele>
        <time>2021-05-17T13:12:22Z</time>
      </trkpt>
      <trkpt lat="41.6399630" lon="-8.7818480">
        <ele>72.6</ele>
        <time>2021-05-17T13:12:23Z</time>
      </trkpt>
      <trkpt lat="41.6399700" lon="-8.7818450">
        <ele>72.6</ele>
        <time>2021-05-17T13:12:24Z</time>
      </trkpt>
      <trkpt lat="41.6399780" lon="-8.7818430">
        <ele>72.5</ele>
        <time>2021-05-17T13:12:25Z</time>
      </trkpt>
      <trkpt lat="41.6399850" lon="-8.7818400">
        <ele>72.5</ele>
        <time>2021-05-17T13:12:26Z</time>
      </trkpt>
      <trkpt lat="41.6399920" lon="-8.7818380">
        <ele>72.5</ele>
        <time>2021-05-17T13:12:27Z</time>
      </trkpt>
      <trkpt lat="41.6400140" lon="-8.7818410">
        <ele>72.4</ele>
        <time>2021-05-17T13:12:28Z</time>
      </trkpt>
      <trkpt lat="41.6400200" lon="-8.7818450">
        <ele>72.4</ele>
        <time>2021-05-17T13:12:29Z</time>
      </trkpt>
      <trkpt lat="41.6400270" lon="-8.7818500">
        <ele>72.3</ele>
        <time>2021-05-17T13:12:30Z</time>
      </trkpt>
      <trkpt lat="41.6400330" lon="-8.7818540">
        <ele>72.3</ele>
        <time>2021-05-17T13:12:31Z</time>
      </trkpt>
      <trkpt lat="41.6400500" lon="-8.7818600">
        <ele>72.2</ele>
        <time>2021-05-17T13:12:32Z</time>
      </trkpt>
      <trkpt lat="41.6400570" lon="-8.7818640">
        <ele>72.2</ele>
        <time>2021-05-17T13:12:33Z</time>
      </trkpt>
      <trkpt lat="41.6400650" lon="-8.7818710">
        <ele>72.2</ele>
        <time>2021-05-17T13:12:34Z</time>
      </trkpt>
      <trkpt lat="41.6400760" lon="-8.7818600">
        <ele>72.1</ele>
        <time>2021-05-17T13:12:35Z</time>
      </trkpt>
      <trkpt lat="41.6400920" lon="-8.7818590">
        <ele>72.0</ele>
        <time>2021-05-17T13:12:36Z</time>
      </trkpt>
      <trkpt lat="41.6401010" lon="-8.7818560">
        <ele>72.0</ele>
        <time>2021-05-17T13:12:37Z</time>
      </trkpt>
      <trkpt lat="41.6401080" lon="-8.7818610">
        <ele>72.0</ele>
        <time>2021-05-17T13:12:38Z</time>
      </trkpt>
      <trkpt lat="41.6401200" lon="-8.7818700">
        <ele>71.9</ele>
        <time>2021-05-17T13:12:39Z</time>
      </trkpt>
      <trkpt lat="41.6401290" lon="-8.7818730">
        <ele>71.9</ele>
        <time>2021-05-17T13:12:40Z</time>
      </trkpt>
      <trkpt lat="41.6401430" lon="-8.7818660">
        <ele>71.8</ele>
        <time>2021-05-17T13:12:41Z</time>
      </trkpt>
      <trkpt lat="41.6401480" lon="-8.7818610">
        <ele>71.8</ele>
        <time>2021-05-17T13:12:43Z</time>
      </trkpt>
      <trkpt lat="41.6401620" lon="-8.7818610">
        <ele>71.7</ele>
        <time>2021-05-17T13:12:44Z</time>
      </trkpt>
      <trkpt lat="41.6401680" lon="-8.7818610">
        <ele>71.7</ele>
        <time>2021-05-17T13:12:45Z</time>
      </trkpt>
      <trkpt lat="41.6401780" lon="-8.7818650">
        <ele>71.7</ele>
        <time>2021-05-17T13:12:46Z</time>
      </trkpt>
      <trkpt lat="41.6401910" lon="-8.7818690">
        <ele>71.6</ele>
        <time>2021-05-17T13:12:47Z</time>
      </trkpt>
      <trkpt lat="41.6402010" lon="-8.7818690">
        <ele>71.6</ele>
        <time>2021-05-17T13:12:48Z</time>
      </trkpt>
      <trkpt lat="41.6402120" lon="-8.7818660">
        <ele>71.5</ele>
        <time>2021-05-17T13:12:49Z</time>
      </trkpt>
      <trkpt lat="41.6402250" lon="-8.7818690">
        <ele>71.5</ele>
        <time>2021-05-17T13:12:50Z</time>
      </trkpt>
      <trkpt lat="41.6402350" lon="-8.7818750">
        <ele>71.4</ele>
        <time>2021-05-17T13:12:51Z</time>
      </trkpt>
      <trkpt lat="41.6402400" lon="-8.7818780">
        <ele>71.4</ele>
        <time>2021-05-17T13:12:52Z</time>
      </trkpt>
      <trkpt lat="41.6402510" lon="-8.7818810">
        <ele>71.4</ele>
        <time>2021-05-17T13:12:53Z</time>
      </trkpt>
      <trkpt lat="41.6402700" lon="-8.7818780">
        <ele>71.3</ele>
        <time>2021-05-17T13:12:54Z</time>
      </trkpt>
      <trkpt lat="41.6402930" lon="-8.7818730">
        <ele>71.2</ele>
        <time>2021-05-17T13:12:55Z</time>
      </trkpt>
      <trkpt lat="41.6403030" lon="-8.7818690">
        <ele>71.1</ele>
        <time>2021-05-17T13:12:56Z</time>
      </trkpt>
      <trkpt lat="41.6403130" lon="-8.7818650">
        <ele>71.1</ele>
        <time>2021-05-17T13:12:57Z</time>
      </trkpt>
      <trkpt lat="41.6403330" lon="-8.7818650">
        <ele>71.0</ele>
        <time>2021-05-17T13:12:58Z</time>
      </trkpt>
      <trkpt lat="41.6403430" lon="-8.7818640">
        <ele>71.0</ele>
        <time>2021-05-17T13:12:59Z</time>
      </trkpt>
      <trkpt lat="41.6403630" lon="-8.7818540">
        <ele>70.9</ele>
        <time>2021-05-17T13:13:00Z</time>
      </trkpt>
      <trkpt lat="41.6403710" lon="-8.7818510">
        <ele>70.9</ele>
        <time>2021-05-17T13:13:01Z</time>
      </trkpt>
      <trkpt lat="41.6403800" lon="-8.7818480">
        <ele>70.8</ele>
        <time>2021-05-17T13:13:02Z</time>
      </trkpt>
      <trkpt lat="41.6403850" lon="-8.7818430">
        <ele>70.8</ele>
        <time>2021-05-17T13:13:03Z</time>
      </trkpt>
      <trkpt lat="41.6404040" lon="-8.7818470">
        <ele>70.7</ele>
        <time>2021-05-17T13:13:04Z</time>
      </trkpt>
      <trkpt lat="41.6404110" lon="-8.7818480">
        <ele>70.7</ele>
        <time>2021-05-17T13:13:05Z</time>
      </trkpt>
      <trkpt lat="41.6404170" lon="-8.7818420">
        <ele>70.7</ele>
        <time>2021-05-17T13:13:06Z</time>
      </trkpt>
      <trkpt lat="41.6404300" lon="-8.7818400">
        <ele>70.6</ele>
        <time>2021-05-17T13:13:07Z</time>
      </trkpt>
      <trkpt lat="41.6404380" lon="-8.7818470">
        <ele>70.6</ele>
        <time>2021-05-17T13:13:08Z</time>
      </trkpt>
      <trkpt lat="41.6404660" lon="-8.7818440">
        <ele>70.5</ele>
        <time>2021-05-17T13:13:09Z</time>
      </trkpt>
      <trkpt lat="41.6404800" lon="-8.7818180">
        <ele>70.4</ele>
        <time>2021-05-17T13:13:10Z</time>
      </trkpt>
      <trkpt lat="41.6404840" lon="-8.7818100">
        <ele>70.3</ele>
        <time>2021-05-17T13:13:11Z</time>
      </trkpt>
      <trkpt lat="41.6404880" lon="-8.7818020">
        <ele>70.3</ele>
        <time>2021-05-17T13:13:12Z</time>
      </trkpt>
      <trkpt lat="41.6405120" lon="-8.7817880">
        <ele>70.2</ele>
        <time>2021-05-17T13:13:13Z</time>
      </trkpt>
      <trkpt lat="41.6405180" lon="-8.7817780">
        <ele>70.2</ele>
        <time>2021-05-17T13:13:14Z</time>
      </trkpt>
      <trkpt lat="41.6405300" lon="-8.7817620">
        <ele>70.1</ele>
        <time>2021-05-17T13:13:15Z</time>
      </trkpt>
      <trkpt lat="41.6405430" lon="-8.7817500">
        <ele>70.0</ele>
        <time>2021-05-17T13:13:16Z</time>
      </trkpt>
      <trkpt lat="41.6405600" lon="-8.7817350">
        <ele>69.9</ele>
        <time>2021-05-17T13:13:17Z</time>
      </trkpt>
      <trkpt lat="41.6405700" lon="-8.7817320">
        <ele>69.9</ele>
        <time>2021-05-17T13:13:18Z</time>
      </trkpt>
      <trkpt lat="41.6405800" lon="-8.7817290">
        <ele>69.9</ele>
        <time>2021-05-17T13:13:19Z</time>
      </trkpt>
      <trkpt lat="41.6405880" lon="-8.7817110">
        <ele>69.8</ele>
        <time>2021-05-17T13:13:20Z</time>
      </trkpt>
      <trkpt lat="41.6405890" lon="-8.7816920">
        <ele>69.7</ele>
        <time>2021-05-17T13:13:21Z</time>
      </trkpt>
      <trkpt lat="41.6405920" lon="-8.7816710">
        <ele>69.7</ele>
        <time>2021-05-17T13:13:22Z</time>
      </trkpt>
      <trkpt lat="41.6406000" lon="-8.7816580">
        <ele>69.6</ele>
        <time>2021-05-17T13:13:23Z</time>
      </trkpt>
      <trkpt lat="41.6406110" lon="-8.7816490">
        <ele>69.6</ele>
        <time>2021-05-17T13:13:24Z</time>
      </trkpt>
      <trkpt lat="41.6406300" lon="-8.7816380">
        <ele>69.5</ele>
        <time>2021-05-17T13:13:25Z</time>
      </trkpt>
      <trkpt lat="41.6406410" lon="-8.7816280">
        <ele>69.4</ele>
        <time>2021-05-17T13:13:26Z</time>
      </trkpt>
      <trkpt lat="41.6406430" lon="-8.7816150">
        <ele>69.4</ele>
        <time>2021-05-17T13:13:27Z</time>
      </trkpt>
      <trkpt lat="41.6406530" lon="-8.7816010">
        <ele>69.3</ele>
        <time>2021-05-17T13:13:28Z</time>
      </trkpt>
      <trkpt lat="41.6406660" lon="-8.7815900">
        <ele>69.3</ele>
        <time>2021-05-17T13:13:29Z</time>
      </trkpt>
      <trkpt lat="41.6406730" lon="-8.7815960">
        <ele>69.2</ele>
        <time>2021-05-17T13:13:30Z</time>
      </trkpt>
      <trkpt lat="41.6406860" lon="-8.7815920">
        <ele>69.2</ele>
        <time>2021-05-17T13:13:31Z</time>
      </trkpt>
      <trkpt lat="41.6407150" lon="-8.7815740">
        <ele>69.0</ele>
        <time>2021-05-17T13:13:32Z</time>
      </trkpt>
      <trkpt lat="41.6407260" lon="-8.7815650">
        <ele>69.0</ele>
        <time>2021-05-17T13:13:33Z</time>
      </trkpt>
      <trkpt lat="41.6407440" lon="-8.7815550">
        <ele>68.9</ele>
        <time>2021-05-17T13:13:34Z</time>
      </trkpt>
      <trkpt lat="41.6407490" lon="-8.7815330">
        <ele>68.8</ele>
        <time>2021-05-17T13:13:35Z</time>
      </trkpt>
      <trkpt lat="41.6407620" lon="-8.7815260">
        <ele>68.8</ele>
        <time>2021-05-17T13:13:36Z</time>
      </trkpt>
      <trkpt lat="41.6407740" lon="-8.7815160">
        <ele>68.7</ele>
        <time>2021-05-17T13:13:37Z</time>
      </trkpt>
      <trkpt lat="41.6407790" lon="-8.7815060">
        <ele>68.7</ele>
        <time>2021-05-17T13:13:38Z</time>
      </trkpt>
      <trkpt lat="41.6407870" lon="-8.7815000">
        <ele>68.7</ele>
        <time>2021-05-17T13:13:39Z</time>
      </trkpt>
      <trkpt lat="41.6407970" lon="-8.7814910">
        <ele>68.6</ele>
        <time>2021-05-17T13:13:40Z</time>
      </trkpt>
      <trkpt lat="41.6407990" lon="-8.7814850">
        <ele>68.6</ele>
        <time>2021-05-17T13:13:41Z</time>
      </trkpt>
      <trkpt lat="41.6408060" lon="-8.7814870">
        <ele>68.6</ele>
        <time>2021-05-17T13:13:42Z</time>
      </trkpt>
      <trkpt lat="41.6408210" lon="-8.7814710">
        <ele>68.5</ele>
        <time>2021-05-17T13:13:43Z</time>
      </trkpt>
      <trkpt lat="41.6408330" lon="-8.7814610">
        <ele>68.4</ele>
        <time>2021-05-17T13:13:44Z</time>
      </trkpt>
      <trkpt lat="41.6408540" lon="-8.7814520">
        <ele>68.3</ele>
        <time>2021-05-17T13:13:45Z</time>
      </trkpt>
      <trkpt lat="41.6408730" lon="-8.7814390">
        <ele>68.3</ele>
        <time>2021-05-17T13:13:46Z</time>
      </trkpt>
      <trkpt lat="41.6408780" lon="-8.7814230">
        <ele>68.2</ele>
        <time>2021-05-17T13:13:47Z</time>
      </trkpt>
      <trkpt lat="41.6408830" lon="-8.7814130">
        <ele>68.2</ele>
        <time>2021-05-17T13:13:48Z</time>
      </trkpt>
      <trkpt lat="41.6408960" lon="-8.7814040">
        <ele>68.1</ele>
        <time>2021-05-17T13:13:49Z</time>
      </trkpt>
      <trkpt lat="41.6409020" lon="-8.7813940">
        <ele>68.1</ele>
        <time>2021-05-17T13:13:50Z</time>
      </trkpt>
      <trkpt lat="41.6409080" lon="-8.7813790">
        <ele>68.0</ele>
        <time>2021-05-17T13:13:51Z</time>
      </trkpt>
      <trkpt lat="41.6409170" lon="-8.7813690">
        <ele>68.0</ele>
        <time>2021-05-17T13:13:52Z</time>
      </trkpt>
      <trkpt lat="41.6409290" lon="-8.7813660">
        <ele>67.9</ele>
        <time>2021-05-17T13:13:53Z</time>
      </trkpt>
      <trkpt lat="41.6409610" lon="-8.7813530">
        <ele>67.8</ele>
        <time>2021-05-17T13:13:54Z</time>
      </trkpt>
      <trkpt lat="41.6409700" lon="-8.7813480">
        <ele>67.7</ele>
        <time>2021-05-17T13:13:55Z</time>
      </trkpt>
      <trkpt lat="41.6409920" lon="-8.7813380">
        <ele>67.7</ele>
        <time>2021-05-17T13:13:56Z</time>
      </trkpt>
      <trkpt lat="41.6410010" lon="-8.7813330">
        <ele>67.6</ele>
        <time>2021-05-17T13:13:57Z</time>
      </trkpt>
      <trkpt lat="41.6410200" lon="-8.7813250">
        <ele>67.5</ele>
        <time>2021-05-17T13:13:58Z</time>
      </trkpt>
      <trkpt lat="41.6410290" lon="-8.7813200">
        <ele>67.5</ele>
        <time>2021-05-17T13:13:59Z</time>
      </trkpt>
      <trkpt lat="41.6410390" lon="-8.7813150">
        <ele>67.4</ele>
        <time>2021-05-17T13:14:00Z</time>
      </trkpt>
      <trkpt lat="41.6410440" lon="-8.7813210">
        <ele>67.4</ele>
        <time>2021-05-17T13:14:01Z</time>
      </trkpt>
      <trkpt lat="41.6410560" lon="-8.7813100">
        <ele>67.4</ele>
        <time>2021-05-17T13:14:02Z</time>
      </trkpt>
      <trkpt lat="41.6410750" lon="-8.7813030">
        <ele>67.3</ele>
        <time>2021-05-17T13:14:03Z</time>
      </trkpt>
      <trkpt lat="41.6411020" lon="-8.7813060">
        <ele>67.2</ele>
        <time>2021-05-17T13:14:04Z</time>
      </trkpt>
      <trkpt lat="41.6411140" lon="-8.7812980">
        <ele>67.1</ele>
        <time>2021-05-17T13:14:05Z</time>
      </trkpt>
      <trkpt lat="41.6411300" lon="-8.7812930">
        <ele>67.1</ele>
        <time>2021-05-17T13:14:06Z</time>
      </trkpt>
      <trkpt lat="41.6411440" lon="-8.7812920">
        <ele>67.0</ele>
        <time>2021-05-17T13:14:07Z</time>
      </trkpt>
      <trkpt lat="41.6411570" lon="-8.7812860">
        <ele>66.9</ele>
        <time>2021-05-17T13:14:08Z</time>
      </trkpt>
      <trkpt lat="41.6411510" lon="-8.7812900">
        <ele>66.9</ele>
        <time>2021-05-17T13:14:09Z</time>
      </trkpt>
      <trkpt lat="41.6411500" lon="-8.7812880">
        <ele>66.9</ele>
        <time>2021-05-17T13:14:10Z</time>
      </trkpt>
      <trkpt lat="41.6411530" lon="-8.7812900">
        <ele>66.9</ele>
        <time>2021-05-17T13:14:11Z</time>
      </trkpt>
      <trkpt lat="41.6411550" lon="-8.7812880">
        <ele>66.9</ele>
        <time>2021-05-17T13:14:12Z</time>
      </trkpt>
      <trkpt lat="41.6411580" lon="-8.7812890">
        <ele>66.9</ele>
        <time>2021-05-17T13:14:13Z</time>
      </trkpt>
      <trkpt lat="41.6411630" lon="-8.7812900">
        <ele>66.8</ele>
        <time>2021-05-17T13:14:14Z</time>
      </trkpt>
      <trkpt lat="41.6411630" lon="-8.7812910">
        <ele>66.8</ele>
        <time>2021-05-17T13:14:15Z</time>
      </trkpt>
      <trkpt lat="41.6411660" lon="-8.7812920">
        <ele>66.8</ele>
        <time>2021-05-17T13:14:16Z</time>
      </trkpt>
      <trkpt lat="41.6411720" lon="-8.7812950">
        <ele>66.8</ele>
        <time>2021-05-17T13:14:17Z</time>
      </trkpt>
      <trkpt lat="41.6411840" lon="-8.7813050">
        <ele>66.7</ele>
        <time>2021-05-17T13:14:18Z</time>
      </trkpt>
      <trkpt lat="41.6411820" lon="-8.7813090">
        <ele>66.7</ele>
        <time>2021-05-17T13:14:19Z</time>
      </trkpt>
      <trkpt lat="41.6411940" lon="-8.7813090">
        <ele>66.7</ele>
        <time>2021-05-17T13:14:20Z</time>
      </trkpt>
      <trkpt lat="41.6412070" lon="-8.7813140">
        <ele>66.6</ele>
        <time>2021-05-17T13:14:21Z</time>
      </trkpt>
      <trkpt lat="41.6412070" lon="-8.7813130">
        <ele>66.6</ele>
        <time>2021-05-17T13:14:22Z</time>
      </trkpt>
      <trkpt lat="41.6412030" lon="-8.7813130">
        <ele>66.6</ele>
        <time>2021-05-17T13:14:23Z</time>
      </trkpt>
      <trkpt lat="41.6411960" lon="-8.7813110">
        <ele>66.6</ele>
        <time>2021-05-17T13:14:24Z</time>
      </trkpt>
      <trkpt lat="41.6411920" lon="-8.7813090">
        <ele>66.6</ele>
        <time>2021-05-17T13:14:25Z</time>
      </trkpt>
      <trkpt lat="41.6411910" lon="-8.7813090">
        <ele>66.6</ele>
        <time>2021-05-17T13:14:26Z</time>
      </trkpt>
      <trkpt lat="41.6411870" lon="-8.7813090">
        <ele>66.5</ele>
        <time>2021-05-17T13:14:27Z</time>
      </trkpt>
      <trkpt lat="41.6411860" lon="-8.7813090">
        <ele>66.5</ele>
        <time>2021-05-17T13:14:28Z</time>
      </trkpt>
      <trkpt lat="41.6411850" lon="-8.7813090">
        <ele>66.5</ele>
        <time>2021-05-17T13:14:29Z</time>
      </trkpt>
      <trkpt lat="41.6411940" lon="-8.7813100">
        <ele>66.5</ele>
        <time>2021-05-17T13:14:30Z</time>
      </trkpt>
      <trkpt lat="41.6412020" lon="-8.7813050">
        <ele>66.5</ele>
        <time>2021-05-17T13:14:31Z</time>
      </trkpt>
      <trkpt lat="41.6412070" lon="-8.7813050">
        <ele>66.4</ele>
        <time>2021-05-17T13:14:32Z</time>
      </trkpt>
      <trkpt lat="41.6412170" lon="-8.7812980">
        <ele>66.4</ele>
        <time>2021-05-17T13:14:33Z</time>
      </trkpt>
      <trkpt lat="41.6412270" lon="-8.7813050">
        <ele>66.4</ele>
        <time>2021-05-17T13:14:34Z</time>
      </trkpt>
      <trkpt lat="41.6412370" lon="-8.7813020">
        <ele>66.3</ele>
        <time>2021-05-17T13:14:35Z</time>
      </trkpt>
      <trkpt lat="41.6412510" lon="-8.7812960">
        <ele>66.3</ele>
        <time>2021-05-17T13:14:36Z</time>
      </trkpt>
      <trkpt lat="41.6412540" lon="-8.7812910">
        <ele>66.2</ele>
        <time>2021-05-17T13:14:37Z</time>
      </trkpt>
      <trkpt lat="41.6412580" lon="-8.7812920">
        <ele>66.2</ele>
        <time>2021-05-17T13:14:38Z</time>
      </trkpt>
      <trkpt lat="41.6412700" lon="-8.7812890">
        <ele>66.2</ele>
        <time>2021-05-17T13:14:39Z</time>
      </trkpt>
      <trkpt lat="41.6412800" lon="-8.7812830">
        <ele>66.1</ele>
        <time>2021-05-17T13:14:40Z</time>
      </trkpt>
      <trkpt lat="41.6413000" lon="-8.7812720">
        <ele>66.0</ele>
        <time>2021-05-17T13:14:41Z</time>
      </trkpt>
      <trkpt lat="41.6413080" lon="-8.7812640">
        <ele>66.0</ele>
        <time>2021-05-17T13:14:42Z</time>
      </trkpt>
      <trkpt lat="41.6413170" lon="-8.7812570">
        <ele>66.0</ele>
        <time>2021-05-17T13:14:43Z</time>
      </trkpt>
      <trkpt lat="41.6413290" lon="-8.7812490">
        <ele>65.9</ele>
        <time>2021-05-17T13:14:44Z</time>
      </trkpt>
      <trkpt lat="41.6413390" lon="-8.7812310">
        <ele>65.8</ele>
        <time>2021-05-17T13:14:45Z</time>
      </trkpt>
      <trkpt lat="41.6413480" lon="-8.7812120">
        <ele>65.8</ele>
        <time>2021-05-17T13:14:46Z</time>
      </trkpt>
      <trkpt lat="41.6413590" lon="-8.7812040">
        <ele>65.7</ele>
        <time>2021-05-17T13:14:47Z</time>
      </trkpt>
      <trkpt lat="41.6413710" lon="-8.7811960">
        <ele>65.7</ele>
        <time>2021-05-17T13:14:48Z</time>
      </trkpt>
      <trkpt lat="41.6413840" lon="-8.7811860">
        <ele>65.6</ele>
        <time>2021-05-17T13:14:49Z</time>
      </trkpt>
      <trkpt lat="41.6413990" lon="-8.7811770">
        <ele>65.5</ele>
        <time>2021-05-17T13:14:50Z</time>
      </trkpt>
      <trkpt lat="41.6414130" lon="-8.7811760">
        <ele>65.5</ele>
        <time>2021-05-17T13:14:51Z</time>
      </trkpt>
      <trkpt lat="41.6414250" lon="-8.7811600">
        <ele>65.4</ele>
        <time>2021-05-17T13:14:52Z</time>
      </trkpt>
      <trkpt lat="41.6414260" lon="-8.7811600">
        <ele>65.1</ele>
        <time>2021-05-17T13:14:53Z</time>
      </trkpt>
      <trkpt lat="41.6414210" lon="-8.7811620">
        <ele>65.4</ele>
        <time>2021-05-17T13:14:54Z</time>
      </trkpt>
      <trkpt lat="41.6414250" lon="-8.7811600">
        <ele>65.4</ele>
        <time>2021-05-17T13:14:55Z</time>
      </trkpt>
      <trkpt lat="41.6414300" lon="-8.7811560">
        <ele>65.1</ele>
        <time>2021-05-17T13:14:56Z</time>
      </trkpt>
      <trkpt lat="41.6414310" lon="-8.7811510">
        <ele>65.1</ele>
        <time>2021-05-17T13:14:57Z</time>
      </trkpt>
      <trkpt lat="41.6414270" lon="-8.7811540">
        <ele>65.1</ele>
        <time>2021-05-17T13:14:58Z</time>
      </trkpt>
      <trkpt lat="41.6414250" lon="-8.7811540">
        <ele>65.4</ele>
        <time>2021-05-17T13:14:59Z</time>
      </trkpt>
      <trkpt lat="41.6414290" lon="-8.7811520">
        <ele>65.1</ele>
        <time>2021-05-17T13:15:00Z</time>
      </trkpt>
      <trkpt lat="41.6414330" lon="-8.7811500">
        <ele>65.1</ele>
        <time>2021-05-17T13:15:01Z</time>
      </trkpt>
      <trkpt lat="41.6414320" lon="-8.7811440">
        <ele>65.1</ele>
        <time>2021-05-17T13:15:02Z</time>
      </trkpt>
      <trkpt lat="41.6414330" lon="-8.7811400">
        <ele>65.1</ele>
        <time>2021-05-17T13:15:03Z</time>
      </trkpt>
      <trkpt lat="41.6414330" lon="-8.7811360">
        <ele>65.1</ele>
        <time>2021-05-17T13:15:04Z</time>
      </trkpt>
      <trkpt lat="41.6414340" lon="-8.7811320">
        <ele>65.1</ele>
        <time>2021-05-17T13:15:05Z</time>
      </trkpt>
      <trkpt lat="41.6414340" lon="-8.7811280">
        <ele>65.1</ele>
        <time>2021-05-17T13:15:06Z</time>
      </trkpt>
      <trkpt lat="41.6414350" lon="-8.7811240">
        <ele>65.1</ele>
        <time>2021-05-17T13:15:07Z</time>
      </trkpt>
      <trkpt lat="41.6414350" lon="-8.7811200">
        <ele>65.3</ele>
        <time>2021-05-17T13:15:08Z</time>
      </trkpt>
      <trkpt lat="41.6414350" lon="-8.7811160">
        <ele>65.3</ele>
        <time>2021-05-17T13:15:09Z</time>
      </trkpt>
      <trkpt lat="41.6414360" lon="-8.7811120">
        <ele>65.3</ele>
        <time>2021-05-17T13:15:10Z</time>
      </trkpt>
      <trkpt lat="41.6414360" lon="-8.7811080">
        <ele>65.3</ele>
        <time>2021-05-17T13:15:11Z</time>
      </trkpt>
      <trkpt lat="41.6414370" lon="-8.7811040">
        <ele>65.3</ele>
        <time>2021-05-17T13:15:12Z</time>
      </trkpt>
      <trkpt lat="41.6414370" lon="-8.7811000">
        <ele>65.3</ele>
        <time>2021-05-17T13:15:13Z</time>
      </trkpt>
      <trkpt lat="41.6414330" lon="-8.7810830">
        <ele>65.3</ele>
        <time>2021-05-17T13:15:14Z</time>
      </trkpt>
      <trkpt lat="41.6414330" lon="-8.7810710">
        <ele>65.6</ele>
        <time>2021-05-17T13:15:15Z</time>
      </trkpt>
      <trkpt lat="41.6414350" lon="-8.7810560">
        <ele>65.6</ele>
        <time>2021-05-17T13:15:16Z</time>
      </trkpt>
      <trkpt lat="41.6414350" lon="-8.7810400">
        <ele>65.6</ele>
        <time>2021-05-17T13:15:17Z</time>
      </trkpt>
      <trkpt lat="41.6414380" lon="-8.7810160">
        <ele>65.8</ele>
        <time>2021-05-17T13:15:18Z</time>
      </trkpt>
      <trkpt lat="41.6414430" lon="-8.7809910">
        <ele>66.0</ele>
        <time>2021-05-17T13:15:19Z</time>
      </trkpt>
      <trkpt lat="41.6414440" lon="-8.7809700">
        <ele>66.0</ele>
        <time>2021-05-17T13:15:20Z</time>
      </trkpt>
      <trkpt lat="41.6414530" lon="-8.7809540">
        <ele>66.0</ele>
        <time>2021-05-17T13:15:21Z</time>
      </trkpt>
      <trkpt lat="41.6414550" lon="-8.7809350">
        <ele>66.2</ele>
        <time>2021-05-17T13:15:22Z</time>
      </trkpt>
      <trkpt lat="41.6414610" lon="-8.7809170">
        <ele>65.9</ele>
        <time>2021-05-17T13:15:23Z</time>
      </trkpt>
      <trkpt lat="41.6414610" lon="-8.7808990">
        <ele>66.1</ele>
        <time>2021-05-17T13:15:24Z</time>
      </trkpt>
      <trkpt lat="41.6414670" lon="-8.7808800">
        <ele>66.1</ele>
        <time>2021-05-17T13:15:25Z</time>
      </trkpt>
      <trkpt lat="41.6414710" lon="-8.7808590">
        <ele>66.3</ele>
        <time>2021-05-17T13:15:26Z</time>
      </trkpt>
      <trkpt lat="41.6414720" lon="-8.7808370">
        <ele>66.3</ele>
        <time>2021-05-17T13:15:27Z</time>
      </trkpt>
      <trkpt lat="41.6414710" lon="-8.7808270">
        <ele>66.3</ele>
        <time>2021-05-17T13:15:28Z</time>
      </trkpt>
      <trkpt lat="41.6414730" lon="-8.7808100">
        <ele>66.6</ele>
        <time>2021-05-17T13:15:29Z</time>
      </trkpt>
      <trkpt lat="41.6414760" lon="-8.7807810">
        <ele>66.6</ele>
        <time>2021-05-17T13:15:30Z</time>
      </trkpt>
      <trkpt lat="41.6414770" lon="-8.7807660">
        <ele>66.8</ele>
        <time>2021-05-17T13:15:31Z</time>
      </trkpt>
      <trkpt lat="41.6414720" lon="-8.7807330">
        <ele>67.0</ele>
        <time>2021-05-17T13:15:32Z</time>
      </trkpt>
      <trkpt lat="41.6414770" lon="-8.7807220">
        <ele>67.0</ele>
        <time>2021-05-17T13:15:33Z</time>
      </trkpt>
      <trkpt lat="41.6414820" lon="-8.7807120">
        <ele>67.0</ele>
        <time>2021-05-17T13:15:34Z</time>
      </trkpt>
      <trkpt lat="41.6414810" lon="-8.7806940">
        <ele>67.3</ele>
        <time>2021-05-17T13:15:35Z</time>
      </trkpt>
      <trkpt lat="41.6414800" lon="-8.7806680">
        <ele>67.3</ele>
        <time>2021-05-17T13:15:36Z</time>
      </trkpt>
      <trkpt lat="41.6414830" lon="-8.7806440">
        <ele>67.5</ele>
        <time>2021-05-17T13:15:37Z</time>
      </trkpt>
      <trkpt lat="41.6414890" lon="-8.7806320">
        <ele>67.5</ele>
        <time>2021-05-17T13:15:38Z</time>
      </trkpt>
      <trkpt lat="41.6414910" lon="-8.7806080">
        <ele>67.4</ele>
        <time>2021-05-17T13:15:39Z</time>
      </trkpt>
      <trkpt lat="41.6414950" lon="-8.7805940">
        <ele>67.4</ele>
        <time>2021-05-17T13:15:40Z</time>
      </trkpt>
      <trkpt lat="41.6414980" lon="-8.7805810">
        <ele>67.4</ele>
        <time>2021-05-17T13:15:41Z</time>
      </trkpt>
      <trkpt lat="41.6414970" lon="-8.7805580">
        <ele>67.6</ele>
        <time>2021-05-17T13:15:42Z</time>
      </trkpt>
      <trkpt lat="41.6415010" lon="-8.7805350">
        <ele>67.6</ele>
        <time>2021-05-17T13:15:43Z</time>
      </trkpt>
      <trkpt lat="41.6415020" lon="-8.7805150">
        <ele>67.9</ele>
        <time>2021-05-17T13:15:44Z</time>
      </trkpt>
      <trkpt lat="41.6415070" lon="-8.7804930">
        <ele>67.9</ele>
        <time>2021-05-17T13:15:45Z</time>
      </trkpt>
      <trkpt lat="41.6415120" lon="-8.7804690">
        <ele>68.1</ele>
        <time>2021-05-17T13:15:46Z</time>
      </trkpt>
      <trkpt lat="41.6415170" lon="-8.7804470">
        <ele>68.1</ele>
        <time>2021-05-17T13:15:47Z</time>
      </trkpt>
      <trkpt lat="41.6415210" lon="-8.7804360">
        <ele>68.3</ele>
        <time>2021-05-17T13:15:48Z</time>
      </trkpt>
      <trkpt lat="41.6415250" lon="-8.7804060">
        <ele>68.0</ele>
        <time>2021-05-17T13:15:49Z</time>
      </trkpt>
      <trkpt lat="41.6415200" lon="-8.7803780">
        <ele>68.5</ele>
        <time>2021-05-17T13:15:50Z</time>
      </trkpt>
      <trkpt lat="41.6415230" lon="-8.7803670">
        <ele>68.2</ele>
        <time>2021-05-17T13:15:51Z</time>
      </trkpt>
      <trkpt lat="41.6415250" lon="-8.7803560">
        <ele>68.2</ele>
        <time>2021-05-17T13:15:52Z</time>
      </trkpt>
      <trkpt lat="41.6415400" lon="-8.7803190">
        <ele>68.4</ele>
        <time>2021-05-17T13:15:53Z</time>
      </trkpt>
      <trkpt lat="41.6415420" lon="-8.7803090">
        <ele>68.4</ele>
        <time>2021-05-17T13:15:54Z</time>
      </trkpt>
      <trkpt lat="41.6415430" lon="-8.7802900">
        <ele>68.6</ele>
        <time>2021-05-17T13:15:55Z</time>
      </trkpt>
      <trkpt lat="41.6415480" lon="-8.7802700">
        <ele>68.6</ele>
        <time>2021-05-17T13:15:56Z</time>
      </trkpt>
      <trkpt lat="41.6415530" lon="-8.7802450">
        <ele>68.8</ele>
        <time>2021-05-17T13:15:57Z</time>
      </trkpt>
      <trkpt lat="41.6415480" lon="-8.7802220">
        <ele>68.8</ele>
        <time>2021-05-17T13:15:58Z</time>
      </trkpt>
      <trkpt lat="41.6415540" lon="-8.7801960">
        <ele>68.6</ele>
        <time>2021-05-17T13:15:59Z</time>
      </trkpt>
      <trkpt lat="41.6415550" lon="-8.7801850">
        <ele>68.6</ele>
        <time>2021-05-17T13:16:00Z</time>
      </trkpt>
      <trkpt lat="41.6415550" lon="-8.7801740">
        <ele>68.7</ele>
        <time>2021-05-17T13:16:01Z</time>
      </trkpt>
      <trkpt lat="41.6415630" lon="-8.7801530">
        <ele>68.7</ele>
        <time>2021-05-17T13:16:02Z</time>
      </trkpt>
      <trkpt lat="41.6415720" lon="-8.7801380">
        <ele>68.7</ele>
        <time>2021-05-17T13:16:03Z</time>
      </trkpt>
      <trkpt lat="41.6415760" lon="-8.7801170">
        <ele>68.8</ele>
        <time>2021-05-17T13:16:04Z</time>
      </trkpt>
      <trkpt lat="41.6415700" lon="-8.7801000">
        <ele>68.8</ele>
        <time>2021-05-17T13:16:05Z</time>
      </trkpt>
      <trkpt lat="41.6415710" lon="-8.7800630">
        <ele>68.9</ele>
        <time>2021-05-17T13:16:06Z</time>
      </trkpt>
      <trkpt lat="41.6415700" lon="-8.7800490">
        <ele>69.0</ele>
        <time>2021-05-17T13:16:07Z</time>
      </trkpt>
      <trkpt lat="41.6415640" lon="-8.7800260">
        <ele>69.1</ele>
        <time>2021-05-17T13:16:08Z</time>
      </trkpt>
      <trkpt lat="41.6415680" lon="-8.7800120">
        <ele>69.1</ele>
        <time>2021-05-17T13:16:09Z</time>
      </trkpt>
      <trkpt lat="41.6415780" lon="-8.7799910">
        <ele>69.3</ele>
        <time>2021-05-17T13:16:10Z</time>
      </trkpt>
      <trkpt lat="41.6415810" lon="-8.7799730">
        <ele>69.3</ele>
        <time>2021-05-17T13:16:11Z</time>
      </trkpt>
      <trkpt lat="41.6415810" lon="-8.7799410">
        <ele>69.4</ele>
        <time>2021-05-17T13:16:12Z</time>
      </trkpt>
      <trkpt lat="41.6415820" lon="-8.7799290">
        <ele>69.4</ele>
        <time>2021-05-17T13:16:13Z</time>
      </trkpt>
      <trkpt lat="41.6415840" lon="-8.7799160">
        <ele>69.6</ele>
        <time>2021-05-17T13:16:14Z</time>
      </trkpt>
      <trkpt lat="41.6415750" lon="-8.7798960">
        <ele>69.6</ele>
        <time>2021-05-17T13:16:15Z</time>
      </trkpt>
      <trkpt lat="41.6415830" lon="-8.7798720">
        <ele>69.8</ele>
        <time>2021-05-17T13:16:16Z</time>
      </trkpt>
      <trkpt lat="41.6415830" lon="-8.7798600">
        <ele>69.8</ele>
        <time>2021-05-17T13:16:17Z</time>
      </trkpt>
      <trkpt lat="41.6415900" lon="-8.7798470">
        <ele>69.5</ele>
        <time>2021-05-17T13:16:18Z</time>
      </trkpt>
      <trkpt lat="41.6415900" lon="-8.7798260">
        <ele>69.7</ele>
        <time>2021-05-17T13:16:19Z</time>
      </trkpt>
      <trkpt lat="41.6415840" lon="-8.7797900">
        <ele>70.3</ele>
        <time>2021-05-17T13:16:20Z</time>
      </trkpt>
      <trkpt lat="41.6415810" lon="-8.7797770">
        <ele>70.3</ele>
        <time>2021-05-17T13:16:21Z</time>
      </trkpt>
      <trkpt lat="41.6415840" lon="-8.7797510">
        <ele>70.3</ele>
        <time>2021-05-17T13:16:22Z</time>
      </trkpt>
      <trkpt lat="41.6415890" lon="-8.7797340">
        <ele>70.1</ele>
        <time>2021-05-17T13:16:23Z</time>
      </trkpt>
      <trkpt lat="41.6415880" lon="-8.7797150">
        <ele>70.1</ele>
        <time>2021-05-17T13:16:24Z</time>
      </trkpt>
      <trkpt lat="41.6415890" lon="-8.7796900">
        <ele>70.4</ele>
        <time>2021-05-17T13:16:25Z</time>
      </trkpt>
      <trkpt lat="41.6415930" lon="-8.7796670">
        <ele>70.4</ele>
        <time>2021-05-17T13:16:26Z</time>
      </trkpt>
      <trkpt lat="41.6415970" lon="-8.7796430">
        <ele>70.6</ele>
        <time>2021-05-17T13:16:27Z</time>
      </trkpt>
      <trkpt lat="41.6415900" lon="-8.7796140">
        <ele>70.9</ele>
        <time>2021-05-17T13:16:28Z</time>
      </trkpt>
      <trkpt lat="41.6415900" lon="-8.7796020">
        <ele>70.9</ele>
        <time>2021-05-17T13:16:29Z</time>
      </trkpt>
      <trkpt lat="41.6415890" lon="-8.7795900">
        <ele>70.9</ele>
        <time>2021-05-17T13:16:30Z</time>
      </trkpt>
      <trkpt lat="41.6415960" lon="-8.7795600">
        <ele>71.2</ele>
        <time>2021-05-17T13:16:31Z</time>
      </trkpt>
      <trkpt lat="41.6415960" lon="-8.7795430">
        <ele>71.2</ele>
        <time>2021-05-17T13:16:32Z</time>
      </trkpt>
      <trkpt lat="41.6415970" lon="-8.7795250">
        <ele>71.4</ele>
        <time>2021-05-17T13:16:33Z</time>
      </trkpt>
      <trkpt lat="41.6415990" lon="-8.7795030">
        <ele>71.4</ele>
        <time>2021-05-17T13:16:34Z</time>
      </trkpt>
      <trkpt lat="41.6415970" lon="-8.7794820">
        <ele>71.7</ele>
        <time>2021-05-17T13:16:35Z</time>
      </trkpt>
      <trkpt lat="41.6416010" lon="-8.7794520">
        <ele>71.8</ele>
        <time>2021-05-17T13:16:36Z</time>
      </trkpt>
      <trkpt lat="41.6415980" lon="-8.7794420">
        <ele>72.1</ele>
        <time>2021-05-17T13:16:37Z</time>
      </trkpt>
      <trkpt lat="41.6415960" lon="-8.7794320">
        <ele>72.1</ele>
        <time>2021-05-17T13:16:38Z</time>
      </trkpt>
      <trkpt lat="41.6415950" lon="-8.7794140">
        <ele>72.1</ele>
        <time>2021-05-17T13:16:39Z</time>
      </trkpt>
      <trkpt lat="41.6416020" lon="-8.7793920">
        <ele>72.3</ele>
        <time>2021-05-17T13:16:40Z</time>
      </trkpt>
      <trkpt lat="41.6415990" lon="-8.7793720">
        <ele>72.4</ele>
        <time>2021-05-17T13:16:41Z</time>
      </trkpt>
      <trkpt lat="41.6415970" lon="-8.7793560">
        <ele>72.6</ele>
        <time>2021-05-17T13:16:42Z</time>
      </trkpt>
      <trkpt lat="41.6416020" lon="-8.7793370">
        <ele>72.6</ele>
        <time>2021-05-17T13:16:43Z</time>
      </trkpt>
      <trkpt lat="41.6415970" lon="-8.7793080">
        <ele>72.8</ele>
        <time>2021-05-17T13:16:44Z</time>
      </trkpt>
      <trkpt lat="41.6415870" lon="-8.7792910">
        <ele>72.9</ele>
        <time>2021-05-17T13:16:45Z</time>
      </trkpt>
      <trkpt lat="41.6415890" lon="-8.7792710">
        <ele>73.1</ele>
        <time>2021-05-17T13:16:46Z</time>
      </trkpt>
      <trkpt lat="41.6415940" lon="-8.7792560">
        <ele>73.1</ele>
        <time>2021-05-17T13:16:47Z</time>
      </trkpt>
      <trkpt lat="41.6415910" lon="-8.7792350">
        <ele>73.1</ele>
        <time>2021-05-17T13:16:48Z</time>
      </trkpt>
      <trkpt lat="41.6415920" lon="-8.7792070">
        <ele>73.3</ele>
        <time>2021-05-17T13:16:49Z</time>
      </trkpt>
      <trkpt lat="41.6415930" lon="-8.7791910">
        <ele>73.4</ele>
        <time>2021-05-17T13:16:50Z</time>
      </trkpt>
      <trkpt lat="41.6416000" lon="-8.7791700">
        <ele>73.4</ele>
        <time>2021-05-17T13:16:51Z</time>
      </trkpt>
      <trkpt lat="41.6415870" lon="-8.7791470">
        <ele>73.6</ele>
        <time>2021-05-17T13:16:52Z</time>
      </trkpt>
      <trkpt lat="41.6415870" lon="-8.7791150">
        <ele>73.6</ele>
        <time>2021-05-17T13:16:53Z</time>
      </trkpt>
      <trkpt lat="41.6415880" lon="-8.7791060">
        <ele>73.7</ele>
        <time>2021-05-17T13:16:54Z</time>
      </trkpt>
      <trkpt lat="41.6415900" lon="-8.7790980">
        <ele>73.8</ele>
        <time>2021-05-17T13:16:55Z</time>
      </trkpt>
      <trkpt lat="41.6415870" lon="-8.7790790">
        <ele>73.8</ele>
        <time>2021-05-17T13:16:56Z</time>
      </trkpt>
      <trkpt lat="41.6415960" lon="-8.7790630">
        <ele>74.0</ele>
        <time>2021-05-17T13:16:57Z</time>
      </trkpt>
      <trkpt lat="41.6415970" lon="-8.7790420">
        <ele>74.0</ele>
        <time>2021-05-17T13:16:58Z</time>
      </trkpt>
      <trkpt lat="41.6416000" lon="-8.7790210">
        <ele>74.0</ele>
        <time>2021-05-17T13:16:59Z</time>
      </trkpt>
      <trkpt lat="41.6415990" lon="-8.7789940">
        <ele>74.1</ele>
        <time>2021-05-17T13:17:00Z</time>
      </trkpt>
      <trkpt lat="41.6415970" lon="-8.7789740">
        <ele>74.2</ele>
        <time>2021-05-17T13:17:01Z</time>
      </trkpt>
      <trkpt lat="41.6415860" lon="-8.7789530">
        <ele>74.3</ele>
        <time>2021-05-17T13:17:02Z</time>
      </trkpt>
      <trkpt lat="41.6415900" lon="-8.7789300">
        <ele>74.4</ele>
        <time>2021-05-17T13:17:03Z</time>
      </trkpt>
      <trkpt lat="41.6415960" lon="-8.7789020">
        <ele>74.4</ele>
        <time>2021-05-17T13:17:04Z</time>
      </trkpt>
      <trkpt lat="41.6415970" lon="-8.7788900">
        <ele>74.5</ele>
        <time>2021-05-17T13:17:05Z</time>
      </trkpt>
      <trkpt lat="41.6415990" lon="-8.7788790">
        <ele>74.6</ele>
        <time>2021-05-17T13:17:06Z</time>
      </trkpt>
      <trkpt lat="41.6416010" lon="-8.7788580">
        <ele>74.6</ele>
        <time>2021-05-17T13:17:07Z</time>
      </trkpt>
      <trkpt lat="41.6415950" lon="-8.7788370">
        <ele>74.7</ele>
        <time>2021-05-17T13:17:08Z</time>
      </trkpt>
      <trkpt lat="41.6416000" lon="-8.7788110">
        <ele>74.7</ele>
        <time>2021-05-17T13:17:09Z</time>
      </trkpt>
      <trkpt lat="41.6415930" lon="-8.7787890">
        <ele>74.7</ele>
        <time>2021-05-17T13:17:10Z</time>
      </trkpt>
      <trkpt lat="41.6416020" lon="-8.7787770">
        <ele>74.7</ele>
        <time>2021-05-17T13:17:11Z</time>
      </trkpt>
      <trkpt lat="41.6416090" lon="-8.7787560">
        <ele>74.8</ele>
        <time>2021-05-17T13:17:12Z</time>
      </trkpt>
      <trkpt lat="41.6416030" lon="-8.7787220">
        <ele>74.8</ele>
        <time>2021-05-17T13:17:13Z</time>
      </trkpt>
      <trkpt lat="41.6416030" lon="-8.7787060">
        <ele>74.8</ele>
        <time>2021-05-17T13:17:14Z</time>
      </trkpt>
      <trkpt lat="41.6416000" lon="-8.7786870">
        <ele>74.9</ele>
        <time>2021-05-17T13:17:15Z</time>
      </trkpt>
      <trkpt lat="41.6415940" lon="-8.7786640">
        <ele>74.9</ele>
        <time>2021-05-17T13:17:16Z</time>
      </trkpt>
      <trkpt lat="41.6415910" lon="-8.7786400">
        <ele>74.9</ele>
        <time>2021-05-17T13:17:17Z</time>
      </trkpt>
      <trkpt lat="41.6415890" lon="-8.7786240">
        <ele>74.9</ele>
        <time>2021-05-17T13:17:18Z</time>
      </trkpt>
      <trkpt lat="41.6415870" lon="-8.7785970">
        <ele>74.9</ele>
        <time>2021-05-17T13:17:19Z</time>
      </trkpt>
      <trkpt lat="41.6415920" lon="-8.7785800">
        <ele>74.8</ele>
        <time>2021-05-17T13:17:20Z</time>
      </trkpt>
      <trkpt lat="41.6415880" lon="-8.7785550">
        <ele>74.8</ele>
        <time>2021-05-17T13:17:21Z</time>
      </trkpt>
      <trkpt lat="41.6415890" lon="-8.7785400">
        <ele>74.8</ele>
        <time>2021-05-17T13:17:22Z</time>
      </trkpt>
      <trkpt lat="41.6415920" lon="-8.7785100">
        <ele>74.9</ele>
        <time>2021-05-17T13:17:23Z</time>
      </trkpt>
      <trkpt lat="41.6415890" lon="-8.7784950">
        <ele>74.9</ele>
        <time>2021-05-17T13:17:24Z</time>
      </trkpt>
      <trkpt lat="41.6415860" lon="-8.7784790">
        <ele>74.9</ele>
        <time>2021-05-17T13:17:25Z</time>
      </trkpt>
      <trkpt lat="41.6415830" lon="-8.7784490">
        <ele>75.2</ele>
        <time>2021-05-17T13:17:26Z</time>
      </trkpt>
      <trkpt lat="41.6415820" lon="-8.7784340">
        <ele>75.2</ele>
        <time>2021-05-17T13:17:27Z</time>
      </trkpt>
      <trkpt lat="41.6415810" lon="-8.7784200">
        <ele>75.2</ele>
        <time>2021-05-17T13:17:28Z</time>
      </trkpt>
      <trkpt lat="41.6415830" lon="-8.7783980">
        <ele>75.2</ele>
        <time>2021-05-17T13:17:29Z</time>
      </trkpt>
      <trkpt lat="41.6415880" lon="-8.7783850">
        <ele>74.8</ele>
        <time>2021-05-17T13:17:30Z</time>
      </trkpt>
      <trkpt lat="41.6415830" lon="-8.7783570">
        <ele>75.2</ele>
        <time>2021-05-17T13:17:31Z</time>
      </trkpt>
      <trkpt lat="41.6415810" lon="-8.7783470">
        <ele>75.2</ele>
        <time>2021-05-17T13:17:32Z</time>
      </trkpt>
      <trkpt lat="41.6415800" lon="-8.7783360">
        <ele>75.2</ele>
        <time>2021-05-17T13:17:33Z</time>
      </trkpt>
      <trkpt lat="41.6415830" lon="-8.7783150">
        <ele>75.2</ele>
        <time>2021-05-17T13:17:34Z</time>
      </trkpt>
      <trkpt lat="41.6415760" lon="-8.7782920">
        <ele>75.2</ele>
        <time>2021-05-17T13:17:35Z</time>
      </trkpt>
      <trkpt lat="41.6415760" lon="-8.7782640">
        <ele>75.2</ele>
        <time>2021-05-17T13:17:36Z</time>
      </trkpt>
      <trkpt lat="41.6415750" lon="-8.7782500">
        <ele>75.2</ele>
        <time>2021-05-17T13:17:37Z</time>
      </trkpt>
      <trkpt lat="41.6415750" lon="-8.7782370">
        <ele>75.2</ele>
        <time>2021-05-17T13:17:38Z</time>
      </trkpt>
      <trkpt lat="41.6415680" lon="-8.7781920">
        <ele>75.1</ele>
        <time>2021-05-17T13:17:39Z</time>
      </trkpt>
      <trkpt lat="41.6415630" lon="-8.7781770">
        <ele>75.1</ele>
        <time>2021-05-17T13:17:40Z</time>
      </trkpt>
      <trkpt lat="41.6415690" lon="-8.7781580">
        <ele>75.1</ele>
        <time>2021-05-17T13:17:41Z</time>
      </trkpt>
      <trkpt lat="41.6415700" lon="-8.7781400">
        <ele>75.1</ele>
        <time>2021-05-17T13:17:42Z</time>
      </trkpt>
      <trkpt lat="41.6415690" lon="-8.7781200">
        <ele>75.1</ele>
        <time>2021-05-17T13:17:43Z</time>
      </trkpt>
      <trkpt lat="41.6415690" lon="-8.7780950">
        <ele>75.1</ele>
        <time>2021-05-17T13:17:44Z</time>
      </trkpt>
      <trkpt lat="41.6415670" lon="-8.7780560">
        <ele>74.9</ele>
        <time>2021-05-17T13:17:45Z</time>
      </trkpt>
      <trkpt lat="41.6415650" lon="-8.7780410">
        <ele>74.9</ele>
        <time>2021-05-17T13:17:46Z</time>
      </trkpt>
      <trkpt lat="41.6415670" lon="-8.7780200">
        <ele>74.8</ele>
        <time>2021-05-17T13:17:47Z</time>
      </trkpt>
      <trkpt lat="41.6415620" lon="-8.7779980">
        <ele>74.9</ele>
        <time>2021-05-17T13:17:48Z</time>
      </trkpt>
      <trkpt lat="41.6415650" lon="-8.7779770">
        <ele>74.8</ele>
        <time>2021-05-17T13:17:49Z</time>
      </trkpt>
      <trkpt lat="41.6415730" lon="-8.7779580">
        <ele>74.8</ele>
        <time>2021-05-17T13:17:50Z</time>
      </trkpt>
      <trkpt lat="41.6415680" lon="-8.7779430">
        <ele>74.7</ele>
        <time>2021-05-17T13:17:51Z</time>
      </trkpt>
      <trkpt lat="41.6415690" lon="-8.7779280">
        <ele>74.7</ele>
        <time>2021-05-17T13:17:52Z</time>
      </trkpt>
      <trkpt lat="41.6415630" lon="-8.7779140">
        <ele>74.7</ele>
        <time>2021-05-17T13:17:53Z</time>
      </trkpt>
      <trkpt lat="41.6415660" lon="-8.7778990">
        <ele>74.5</ele>
        <time>2021-05-17T13:17:54Z</time>
      </trkpt>
      <trkpt lat="41.6415630" lon="-8.7778740">
        <ele>74.5</ele>
        <time>2021-05-17T13:17:55Z</time>
      </trkpt>
      <trkpt lat="41.6415630" lon="-8.7778550">
        <ele>74.4</ele>
        <time>2021-05-17T13:17:56Z</time>
      </trkpt>
      <trkpt lat="41.6415650" lon="-8.7778380">
        <ele>74.4</ele>
        <time>2021-05-17T13:17:57Z</time>
      </trkpt>
      <trkpt lat="41.6415610" lon="-8.7778270">
        <ele>74.4</ele>
        <time>2021-05-17T13:17:58Z</time>
      </trkpt>
      <trkpt lat="41.6415660" lon="-8.7777990">
        <ele>74.3</ele>
        <time>2021-05-17T13:17:59Z</time>
      </trkpt>
      <trkpt lat="41.6415650" lon="-8.7777850">
        <ele>74.3</ele>
        <time>2021-05-17T13:18:00Z</time>
      </trkpt>
      <trkpt lat="41.6415640" lon="-8.7777720">
        <ele>74.1</ele>
        <time>2021-05-17T13:18:01Z</time>
      </trkpt>
      <trkpt lat="41.6415650" lon="-8.7777500">
        <ele>74.1</ele>
        <time>2021-05-17T13:18:02Z</time>
      </trkpt>
      <trkpt lat="41.6415680" lon="-8.7777350">
        <ele>74.1</ele>
        <time>2021-05-17T13:18:03Z</time>
      </trkpt>
      <trkpt lat="41.6415720" lon="-8.7777050">
        <ele>73.9</ele>
        <time>2021-05-17T13:18:04Z</time>
      </trkpt>
      <trkpt lat="41.6415730" lon="-8.7776940">
        <ele>73.9</ele>
        <time>2021-05-17T13:18:05Z</time>
      </trkpt>
      <trkpt lat="41.6415690" lon="-8.7776710">
        <ele>73.7</ele>
        <time>2021-05-17T13:18:06Z</time>
      </trkpt>
      <trkpt lat="41.6415710" lon="-8.7776540">
        <ele>73.7</ele>
        <time>2021-05-17T13:18:07Z</time>
      </trkpt>
      <trkpt lat="41.6415690" lon="-8.7776380">
        <ele>73.5</ele>
        <time>2021-05-17T13:18:08Z</time>
      </trkpt>
      <trkpt lat="41.6415710" lon="-8.7776140">
        <ele>73.5</ele>
        <time>2021-05-17T13:18:09Z</time>
      </trkpt>
      <trkpt lat="41.6415790" lon="-8.7775970">
        <ele>73.3</ele>
        <time>2021-05-17T13:18:10Z</time>
      </trkpt>
      <trkpt lat="41.6415770" lon="-8.7775700">
        <ele>73.3</ele>
        <time>2021-05-17T13:18:11Z</time>
      </trkpt>
      <trkpt lat="41.6415850" lon="-8.7775500">
        <ele>73.1</ele>
        <time>2021-05-17T13:18:12Z</time>
      </trkpt>
      <trkpt lat="41.6415770" lon="-8.7775430">
        <ele>73.1</ele>
        <time>2021-05-17T13:18:13Z</time>
      </trkpt>
      <trkpt lat="41.6415810" lon="-8.7775220">
        <ele>73.1</ele>
        <time>2021-05-17T13:18:14Z</time>
      </trkpt>
      <trkpt lat="41.6415880" lon="-8.7775160">
        <ele>72.4</ele>
        <time>2021-05-17T13:18:15Z</time>
      </trkpt>
      <trkpt lat="41.6415960" lon="-8.7775040">
        <ele>72.4</ele>
        <time>2021-05-17T13:18:16Z</time>
      </trkpt>
      <trkpt lat="41.6416030" lon="-8.7774940">
        <ele>72.4</ele>
        <time>2021-05-17T13:18:17Z</time>
      </trkpt>
      <trkpt lat="41.6416110" lon="-8.7774790">
        <ele>72.4</ele>
        <time>2021-05-17T13:18:18Z</time>
      </trkpt>
      <trkpt lat="41.6416190" lon="-8.7774650">
        <ele>71.7</ele>
        <time>2021-05-17T13:18:19Z</time>
      </trkpt>
      <trkpt lat="41.6416370" lon="-8.7774470">
        <ele>71.7</ele>
        <time>2021-05-17T13:18:20Z</time>
      </trkpt>
      <trkpt lat="41.6416450" lon="-8.7774380">
        <ele>71.7</ele>
        <time>2021-05-17T13:18:21Z</time>
      </trkpt>
      <trkpt lat="41.6416520" lon="-8.7774290">
        <ele>71.1</ele>
        <time>2021-05-17T13:18:22Z</time>
      </trkpt>
      <trkpt lat="41.6416620" lon="-8.7774110">
        <ele>71.1</ele>
        <time>2021-05-17T13:18:23Z</time>
      </trkpt>
      <trkpt lat="41.6416680" lon="-8.7774000">
        <ele>71.1</ele>
        <time>2021-05-17T13:18:24Z</time>
      </trkpt>
      <trkpt lat="41.6416750" lon="-8.7773890">
        <ele>70.9</ele>
        <time>2021-05-17T13:18:25Z</time>
      </trkpt>
      <trkpt lat="41.6416760" lon="-8.7773870">
        <ele>70.9</ele>
        <time>2021-05-17T13:18:26Z</time>
      </trkpt>
      <trkpt lat="41.6416860" lon="-8.7773760">
        <ele>70.5</ele>
        <time>2021-05-17T13:18:27Z</time>
      </trkpt>
      <trkpt lat="41.6416960" lon="-8.7773650">
        <ele>70.5</ele>
        <time>2021-05-17T13:18:28Z</time>
      </trkpt>
      <trkpt lat="41.6417200" lon="-8.7773430">
        <ele>70.0</ele>
        <time>2021-05-17T13:18:29Z</time>
      </trkpt>
      <trkpt lat="41.6417290" lon="-8.7773320">
        <ele>69.9</ele>
        <time>2021-05-17T13:18:30Z</time>
      </trkpt>
      <trkpt lat="41.6417340" lon="-8.7773270">
        <ele>69.9</ele>
        <time>2021-05-17T13:18:31Z</time>
      </trkpt>
      <trkpt lat="41.6417430" lon="-8.7773210">
        <ele>69.8</ele>
        <time>2021-05-17T13:18:32Z</time>
      </trkpt>
      <trkpt lat="41.6417530" lon="-8.7773140">
        <ele>69.7</ele>
        <time>2021-05-17T13:18:33Z</time>
      </trkpt>
      <trkpt lat="41.6417620" lon="-8.7773070">
        <ele>69.6</ele>
        <time>2021-05-17T13:18:34Z</time>
      </trkpt>
      <trkpt lat="41.6417730" lon="-8.7773010">
        <ele>69.6</ele>
        <time>2021-05-17T13:18:35Z</time>
      </trkpt>
      <trkpt lat="41.6417900" lon="-8.7773000">
        <ele>69.4</ele>
        <time>2021-05-17T13:18:36Z</time>
      </trkpt>
      <trkpt lat="41.6418040" lon="-8.7772930">
        <ele>69.3</ele>
        <time>2021-05-17T13:18:37Z</time>
      </trkpt>
      <trkpt lat="41.6418140" lon="-8.7772860">
        <ele>69.2</ele>
        <time>2021-05-17T13:18:38Z</time>
      </trkpt>
      <trkpt lat="41.6418190" lon="-8.7772830">
        <ele>69.2</ele>
        <time>2021-05-17T13:18:39Z</time>
      </trkpt>
      <trkpt lat="41.6418300" lon="-8.7772760">
        <ele>69.1</ele>
        <time>2021-05-17T13:18:40Z</time>
      </trkpt>
      <trkpt lat="41.6418350" lon="-8.7772740">
        <ele>69.1</ele>
        <time>2021-05-17T13:18:41Z</time>
      </trkpt>
      <trkpt lat="41.6418470" lon="-8.7772650">
        <ele>68.9</ele>
        <time>2021-05-17T13:18:42Z</time>
      </trkpt>
      <trkpt lat="41.6418550" lon="-8.7772570">
        <ele>68.9</ele>
        <time>2021-05-17T13:18:43Z</time>
      </trkpt>
      <trkpt lat="41.6418720" lon="-8.7772420">
        <ele>68.7</ele>
        <time>2021-05-17T13:18:44Z</time>
      </trkpt>
      <trkpt lat="41.6418830" lon="-8.7772280">
        <ele>68.6</ele>
        <time>2021-05-17T13:18:45Z</time>
      </trkpt>
      <trkpt lat="41.6418890" lon="-8.7772370">
        <ele>68.5</ele>
        <time>2021-05-17T13:18:46Z</time>
      </trkpt>
      <trkpt lat="41.6419030" lon="-8.7772260">
        <ele>68.3</ele>
        <time>2021-05-17T13:18:47Z</time>
      </trkpt>
      <trkpt lat="41.6419120" lon="-8.7772190">
        <ele>68.3</ele>
        <time>2021-05-17T13:18:48Z</time>
      </trkpt>
      <trkpt lat="41.6419250" lon="-8.7772030">
        <ele>68.1</ele>
        <time>2021-05-17T13:18:49Z</time>
      </trkpt>
      <trkpt lat="41.6419480" lon="-8.7771840">
        <ele>67.9</ele>
        <time>2021-05-17T13:18:50Z</time>
      </trkpt>
      <trkpt lat="41.6419570" lon="-8.7771770">
        <ele>67.8</ele>
        <time>2021-05-17T13:18:51Z</time>
      </trkpt>
      <trkpt lat="41.6419730" lon="-8.7771710">
        <ele>67.6</ele>
        <time>2021-05-17T13:18:52Z</time>
      </trkpt>
      <trkpt lat="41.6419870" lon="-8.7771550">
        <ele>67.4</ele>
        <time>2021-05-17T13:18:53Z</time>
      </trkpt>
      <trkpt lat="41.6420130" lon="-8.7771400">
        <ele>67.2</ele>
        <time>2021-05-17T13:18:54Z</time>
      </trkpt>
      <trkpt lat="41.6420190" lon="-8.7771280">
        <ele>67.1</ele>
        <time>2021-05-17T13:18:55Z</time>
      </trkpt>
      <trkpt lat="41.6420330" lon="-8.7771230">
        <ele>66.9</ele>
        <time>2021-05-17T13:18:56Z</time>
      </trkpt>
      <trkpt lat="41.6420480" lon="-8.7771140">
        <ele>66.8</ele>
        <time>2021-05-17T13:18:57Z</time>
      </trkpt>
      <trkpt lat="41.6420630" lon="-8.7771090">
        <ele>66.7</ele>
        <time>2021-05-17T13:18:58Z</time>
      </trkpt>
      <trkpt lat="41.6420770" lon="-8.7770960">
        <ele>66.5</ele>
        <time>2021-05-17T13:18:59Z</time>
      </trkpt>
      <trkpt lat="41.6420890" lon="-8.7770890">
        <ele>66.4</ele>
        <time>2021-05-17T13:19:00Z</time>
      </trkpt>
      <trkpt lat="41.6421040" lon="-8.7770750">
        <ele>66.2</ele>
        <time>2021-05-17T13:19:01Z</time>
      </trkpt>
      <trkpt lat="41.6421180" lon="-8.7770650">
        <ele>66.1</ele>
        <time>2021-05-17T13:19:02Z</time>
      </trkpt>
      <trkpt lat="41.6421300" lon="-8.7770530">
        <ele>65.9</ele>
        <time>2021-05-17T13:19:03Z</time>
      </trkpt>
      <trkpt lat="41.6421430" lon="-8.7770430">
        <ele>65.8</ele>
        <time>2021-05-17T13:19:04Z</time>
      </trkpt>
      <trkpt lat="41.6421560" lon="-8.7770340">
        <ele>65.7</ele>
        <time>2021-05-17T13:19:05Z</time>
      </trkpt>
      <trkpt lat="41.6421680" lon="-8.7770180">
        <ele>65.5</ele>
        <time>2021-05-17T13:19:06Z</time>
      </trkpt>
      <trkpt lat="41.6421800" lon="-8.7770040">
        <ele>65.4</ele>
        <time>2021-05-17T13:19:07Z</time>
      </trkpt>
      <trkpt lat="41.6421930" lon="-8.7769950">
        <ele>65.2</ele>
        <time>2021-05-17T13:19:08Z</time>
      </trkpt>
      <trkpt lat="41.6422060" lon="-8.7769830">
        <ele>65.1</ele>
        <time>2021-05-17T13:19:09Z</time>
      </trkpt>
      <trkpt lat="41.6422180" lon="-8.7769750">
        <ele>65.0</ele>
        <time>2021-05-17T13:19:10Z</time>
      </trkpt>
      <trkpt lat="41.6422360" lon="-8.7769690">
        <ele>64.8</ele>
        <time>2021-05-17T13:19:11Z</time>
      </trkpt>
      <trkpt lat="41.6422520" lon="-8.7769700">
        <ele>64.7</ele>
        <time>2021-05-17T13:19:12Z</time>
      </trkpt>
      <trkpt lat="41.6422640" lon="-8.7769550">
        <ele>64.5</ele>
        <time>2021-05-17T13:19:13Z</time>
      </trkpt>
      <trkpt lat="41.6422770" lon="-8.7769510">
        <ele>64.4</ele>
        <time>2021-05-17T13:19:14Z</time>
      </trkpt>
      <trkpt lat="41.6422910" lon="-8.7769360">
        <ele>64.2</ele>
        <time>2021-05-17T13:19:15Z</time>
      </trkpt>
      <trkpt lat="41.6423040" lon="-8.7769310">
        <ele>64.1</ele>
        <time>2021-05-17T13:19:16Z</time>
      </trkpt>
      <trkpt lat="41.6423180" lon="-8.7769240">
        <ele>64.0</ele>
        <time>2021-05-17T13:19:17Z</time>
      </trkpt>
      <trkpt lat="41.6423320" lon="-8.7769190">
        <ele>63.9</ele>
        <time>2021-05-17T13:19:18Z</time>
      </trkpt>
      <trkpt lat="41.6423460" lon="-8.7769150">
        <ele>63.8</ele>
        <time>2021-05-17T13:19:19Z</time>
      </trkpt>
      <trkpt lat="41.6423620" lon="-8.7769140">
        <ele>63.7</ele>
        <time>2021-05-17T13:19:20Z</time>
      </trkpt>
      <trkpt lat="41.6423760" lon="-8.7769120">
        <ele>63.6</ele>
        <time>2021-05-17T13:19:21Z</time>
      </trkpt>
      <trkpt lat="41.6423890" lon="-8.7769020">
        <ele>63.5</ele>
        <time>2021-05-17T13:19:22Z</time>
      </trkpt>
      <trkpt lat="41.6424010" lon="-8.7769010">
        <ele>63.4</ele>
        <time>2021-05-17T13:19:23Z</time>
      </trkpt>
      <trkpt lat="41.6424100" lon="-8.7769030">
        <ele>63.3</ele>
        <time>2021-05-17T13:19:24Z</time>
      </trkpt>
      <trkpt lat="41.6424170" lon="-8.7768960">
        <ele>63.3</ele>
        <time>2021-05-17T13:19:25Z</time>
      </trkpt>
      <trkpt lat="41.6424260" lon="-8.7769040">
        <ele>63.2</ele>
        <time>2021-05-17T13:19:26Z</time>
      </trkpt>
      <trkpt lat="41.6424290" lon="-8.7769090">
        <ele>63.2</ele>
        <time>2021-05-17T13:19:27Z</time>
      </trkpt>
      <trkpt lat="41.6424440" lon="-8.7769110">
        <ele>63.1</ele>
        <time>2021-05-17T13:19:28Z</time>
      </trkpt>
      <trkpt lat="41.6424580" lon="-8.7769140">
        <ele>63.0</ele>
        <time>2021-05-17T13:19:29Z</time>
      </trkpt>
      <trkpt lat="41.6424690" lon="-8.7769210">
        <ele>62.9</ele>
        <time>2021-05-17T13:19:30Z</time>
      </trkpt>
      <trkpt lat="41.6424750" lon="-8.7769240">
        <ele>62.8</ele>
        <time>2021-05-17T13:19:31Z</time>
      </trkpt>
      <trkpt lat="41.6424940" lon="-8.7769410">
        <ele>62.7</ele>
        <time>2021-05-17T13:19:32Z</time>
      </trkpt>
      <trkpt lat="41.6425020" lon="-8.7769460">
        <ele>62.6</ele>
        <time>2021-05-17T13:19:33Z</time>
      </trkpt>
      <trkpt lat="41.6425090" lon="-8.7769510">
        <ele>62.6</ele>
        <time>2021-05-17T13:19:34Z</time>
      </trkpt>
      <trkpt lat="41.6425120" lon="-8.7769560">
        <ele>62.5</ele>
        <time>2021-05-17T13:19:35Z</time>
      </trkpt>
      <trkpt lat="41.6425320" lon="-8.7769640">
        <ele>62.4</ele>
        <time>2021-05-17T13:19:36Z</time>
      </trkpt>
      <trkpt lat="41.6425420" lon="-8.7769720">
        <ele>62.3</ele>
        <time>2021-05-17T13:19:37Z</time>
      </trkpt>
      <trkpt lat="41.6425660" lon="-8.7769820">
        <ele>62.2</ele>
        <time>2021-05-17T13:19:38Z</time>
      </trkpt>
      <trkpt lat="41.6425710" lon="-8.7769890">
        <ele>62.1</ele>
        <time>2021-05-17T13:19:39Z</time>
      </trkpt>
      <trkpt lat="41.6425760" lon="-8.7769950">
        <ele>62.1</ele>
        <time>2021-05-17T13:19:40Z</time>
      </trkpt>
      <trkpt lat="41.6425920" lon="-8.7770070">
        <ele>62.0</ele>
        <time>2021-05-17T13:19:41Z</time>
      </trkpt>
      <trkpt lat="41.6425990" lon="-8.7770110">
        <ele>62.0</ele>
        <time>2021-05-17T13:19:42Z</time>
      </trkpt>
      <trkpt lat="41.6426050" lon="-8.7770160">
        <ele>61.9</ele>
        <time>2021-05-17T13:19:43Z</time>
      </trkpt>
      <trkpt lat="41.6426120" lon="-8.7770200">
        <ele>61.9</ele>
        <time>2021-05-17T13:19:44Z</time>
      </trkpt>
      <trkpt lat="41.6426220" lon="-8.7770260">
        <ele>61.8</ele>
        <time>2021-05-17T13:19:45Z</time>
      </trkpt>
      <trkpt lat="41.6426280" lon="-8.7770330">
        <ele>61.8</ele>
        <time>2021-05-17T13:19:46Z</time>
      </trkpt>
      <trkpt lat="41.6426350" lon="-8.7770500">
        <ele>61.7</ele>
        <time>2021-05-17T13:19:47Z</time>
      </trkpt>
      <trkpt lat="41.6426610" lon="-8.7770610">
        <ele>61.6</ele>
        <time>2021-05-17T13:19:48Z</time>
      </trkpt>
      <trkpt lat="41.6426760" lon="-8.7770740">
        <ele>61.5</ele>
        <time>2021-05-17T13:19:49Z</time>
      </trkpt>
      <trkpt lat="41.6426910" lon="-8.7770750">
        <ele>61.4</ele>
        <time>2021-05-17T13:19:50Z</time>
      </trkpt>
      <trkpt lat="41.6427060" lon="-8.7770820">
        <ele>61.3</ele>
        <time>2021-05-17T13:19:51Z</time>
      </trkpt>
      <trkpt lat="41.6427180" lon="-8.7770800">
        <ele>61.3</ele>
        <time>2021-05-17T13:19:52Z</time>
      </trkpt>
      <trkpt lat="41.6427310" lon="-8.7770910">
        <ele>61.2</ele>
        <time>2021-05-17T13:19:53Z</time>
      </trkpt>
      <trkpt lat="41.6427430" lon="-8.7770970">
        <ele>61.1</ele>
        <time>2021-05-17T13:19:54Z</time>
      </trkpt>
      <trkpt lat="41.6427540" lon="-8.7771030">
        <ele>61.1</ele>
        <time>2021-05-17T13:19:55Z</time>
      </trkpt>
      <trkpt lat="41.6427620" lon="-8.7771030">
        <ele>61.0</ele>
        <time>2021-05-17T13:19:56Z</time>
      </trkpt>
      <trkpt lat="41.6427760" lon="-8.7771060">
        <ele>61.0</ele>
        <time>2021-05-17T13:19:57Z</time>
      </trkpt>
      <trkpt lat="41.6427860" lon="-8.7771170">
        <ele>60.9</ele>
        <time>2021-05-17T13:19:58Z</time>
      </trkpt>
      <trkpt lat="41.6427980" lon="-8.7771200">
        <ele>60.9</ele>
        <time>2021-05-17T13:19:59Z</time>
      </trkpt>
      <trkpt lat="41.6428100" lon="-8.7771230">
        <ele>60.8</ele>
        <time>2021-05-17T13:20:00Z</time>
      </trkpt>
      <trkpt lat="41.6428210" lon="-8.7771290">
        <ele>60.8</ele>
        <time>2021-05-17T13:20:01Z</time>
      </trkpt>
      <trkpt lat="41.6428400" lon="-8.7771350">
        <ele>60.7</ele>
        <time>2021-05-17T13:20:02Z</time>
      </trkpt>
      <trkpt lat="41.6428560" lon="-8.7771380">
        <ele>60.6</ele>
        <time>2021-05-17T13:20:03Z</time>
      </trkpt>
      <trkpt lat="41.6428660" lon="-8.7771430">
        <ele>60.6</ele>
        <time>2021-05-17T13:20:04Z</time>
      </trkpt>
      <trkpt lat="41.6428760" lon="-8.7771470">
        <ele>60.5</ele>
        <time>2021-05-17T13:20:05Z</time>
      </trkpt>
      <trkpt lat="41.6428970" lon="-8.7771560">
        <ele>60.4</ele>
        <time>2021-05-17T13:20:06Z</time>
      </trkpt>
      <trkpt lat="41.6429100" lon="-8.7771580">
        <ele>60.4</ele>
        <time>2021-05-17T13:20:07Z</time>
      </trkpt>
      <trkpt lat="41.6429310" lon="-8.7771630">
        <ele>60.3</ele>
        <time>2021-05-17T13:20:08Z</time>
      </trkpt>
      <trkpt lat="41.6429390" lon="-8.7771660">
        <ele>60.3</ele>
        <time>2021-05-17T13:20:09Z</time>
      </trkpt>
      <trkpt lat="41.6429470" lon="-8.7771690">
        <ele>60.2</ele>
        <time>2021-05-17T13:20:10Z</time>
      </trkpt>
      <trkpt lat="41.6429660" lon="-8.7771800">
        <ele>60.2</ele>
        <time>2021-05-17T13:20:11Z</time>
      </trkpt>
      <trkpt lat="41.6429770" lon="-8.7771820">
        <ele>60.1</ele>
        <time>2021-05-17T13:20:12Z</time>
      </trkpt>
      <trkpt lat="41.6429870" lon="-8.7771850">
        <ele>60.1</ele>
        <time>2021-05-17T13:20:13Z</time>
      </trkpt>
      <trkpt lat="41.6429960" lon="-8.7771910">
        <ele>60.1</ele>
        <time>2021-05-17T13:20:14Z</time>
      </trkpt>
      <trkpt lat="41.6430060" lon="-8.7772030">
        <ele>60.0</ele>
        <time>2021-05-17T13:20:15Z</time>
      </trkpt>
      <trkpt lat="41.6430110" lon="-8.7772110">
        <ele>60.0</ele>
        <time>2021-05-17T13:20:16Z</time>
      </trkpt>
      <trkpt lat="41.6430350" lon="-8.7772190">
        <ele>59.9</ele>
        <time>2021-05-17T13:20:17Z</time>
      </trkpt>
      <trkpt lat="41.6430430" lon="-8.7772230">
        <ele>59.9</ele>
        <time>2021-05-17T13:20:18Z</time>
      </trkpt>
      <trkpt lat="41.6430520" lon="-8.7772280">
        <ele>59.9</ele>
        <time>2021-05-17T13:20:19Z</time>
      </trkpt>
      <trkpt lat="41.6430630" lon="-8.7772310">
        <ele>59.8</ele>
        <time>2021-05-17T13:20:20Z</time>
      </trkpt>
      <trkpt lat="41.6430810" lon="-8.7772310">
        <ele>59.8</ele>
        <time>2021-05-17T13:20:21Z</time>
      </trkpt>
      <trkpt lat="41.6430990" lon="-8.7772400">
        <ele>59.7</ele>
        <time>2021-05-17T13:20:22Z</time>
      </trkpt>
      <trkpt lat="41.6431090" lon="-8.7772430">
        <ele>59.7</ele>
        <time>2021-05-17T13:20:23Z</time>
      </trkpt>
      <trkpt lat="41.6431200" lon="-8.7772460">
        <ele>59.7</ele>
        <time>2021-05-17T13:20:24Z</time>
      </trkpt>
      <trkpt lat="41.6431340" lon="-8.7772490">
        <ele>59.6</ele>
        <time>2021-05-17T13:20:25Z</time>
      </trkpt>
      <trkpt lat="41.6431490" lon="-8.7772560">
        <ele>59.6</ele>
        <time>2021-05-17T13:20:26Z</time>
      </trkpt>
      <trkpt lat="41.6431550" lon="-8.7772560">
        <ele>59.5</ele>
        <time>2021-05-17T13:20:27Z</time>
      </trkpt>
      <trkpt lat="41.6431680" lon="-8.7772640">
        <ele>59.5</ele>
        <time>2021-05-17T13:20:28Z</time>
      </trkpt>
      <trkpt lat="41.6431780" lon="-8.7772770">
        <ele>59.5</ele>
        <time>2021-05-17T13:20:29Z</time>
      </trkpt>
      <trkpt lat="41.6431970" lon="-8.7772910">
        <ele>59.4</ele>
        <time>2021-05-17T13:20:30Z</time>
      </trkpt>
      <trkpt lat="41.6432050" lon="-8.7772940">
        <ele>59.4</ele>
        <time>2021-05-17T13:20:31Z</time>
      </trkpt>
      <trkpt lat="41.6432140" lon="-8.7772960">
        <ele>59.3</ele>
        <time>2021-05-17T13:20:32Z</time>
      </trkpt>
      <trkpt lat="41.6432250" lon="-8.7773070">
        <ele>59.3</ele>
        <time>2021-05-17T13:20:33Z</time>
      </trkpt>
      <trkpt lat="41.6432380" lon="-8.7773080">
        <ele>59.3</ele>
        <time>2021-05-17T13:20:34Z</time>
      </trkpt>
      <trkpt lat="41.6432430" lon="-8.7773160">
        <ele>59.2</ele>
        <time>2021-05-17T13:20:35Z</time>
      </trkpt>
      <trkpt lat="41.6432570" lon="-8.7773190">
        <ele>59.2</ele>
        <time>2021-05-17T13:20:36Z</time>
      </trkpt>
      <trkpt lat="41.6432730" lon="-8.7773200">
        <ele>59.1</ele>
        <time>2021-05-17T13:20:37Z</time>
      </trkpt>
      <trkpt lat="41.6432900" lon="-8.7773210">
        <ele>59.0</ele>
        <time>2021-05-17T13:20:38Z</time>
      </trkpt>
      <trkpt lat="41.6433020" lon="-8.7773240">
        <ele>59.0</ele>
        <time>2021-05-17T13:20:39Z</time>
      </trkpt>
      <trkpt lat="41.6433110" lon="-8.7773330">
        <ele>58.9</ele>
        <time>2021-05-17T13:20:40Z</time>
      </trkpt>
      <trkpt lat="41.6433150" lon="-8.7773430">
        <ele>58.9</ele>
        <time>2021-05-17T13:20:41Z</time>
      </trkpt>
      <trkpt lat="41.6433260" lon="-8.7773460">
        <ele>58.8</ele>
        <time>2021-05-17T13:20:42Z</time>
      </trkpt>
      <trkpt lat="41.6433400" lon="-8.7773650">
        <ele>58.8</ele>
        <time>2021-05-17T13:20:43Z</time>
      </trkpt>
      <trkpt lat="41.6433490" lon="-8.7773700">
        <ele>58.7</ele>
        <time>2021-05-17T13:20:44Z</time>
      </trkpt>
      <trkpt lat="41.6433580" lon="-8.7773760">
        <ele>58.7</ele>
        <time>2021-05-17T13:20:45Z</time>
      </trkpt>
      <trkpt lat="41.6433660" lon="-8.7773860">
        <ele>58.6</ele>
        <time>2021-05-17T13:20:46Z</time>
      </trkpt>
      <trkpt lat="41.6433850" lon="-8.7773880">
        <ele>58.5</ele>
        <time>2021-05-17T13:20:47Z</time>
      </trkpt>
      <trkpt lat="41.6434010" lon="-8.7774020">
        <ele>58.4</ele>
        <time>2021-05-17T13:20:48Z</time>
      </trkpt>
      <trkpt lat="41.6434130" lon="-8.7774100">
        <ele>58.4</ele>
        <time>2021-05-17T13:20:49Z</time>
      </trkpt>
      <trkpt lat="41.6434260" lon="-8.7774180">
        <ele>58.3</ele>
        <time>2021-05-17T13:20:50Z</time>
      </trkpt>
      <trkpt lat="41.6434360" lon="-8.7774240">
        <ele>58.2</ele>
        <time>2021-05-17T13:20:51Z</time>
      </trkpt>
      <trkpt lat="41.6434530" lon="-8.7774360">
        <ele>58.1</ele>
        <time>2021-05-17T13:20:52Z</time>
      </trkpt>
      <trkpt lat="41.6434740" lon="-8.7774470">
        <ele>58.0</ele>
        <time>2021-05-17T13:20:53Z</time>
      </trkpt>
      <trkpt lat="41.6434830" lon="-8.7774520">
        <ele>58.0</ele>
        <time>2021-05-17T13:20:54Z</time>
      </trkpt>
      <trkpt lat="41.6434920" lon="-8.7774570">
        <ele>57.9</ele>
        <time>2021-05-17T13:20:55Z</time>
      </trkpt>
      <trkpt lat="41.6435120" lon="-8.7774570">
        <ele>57.8</ele>
        <time>2021-05-17T13:20:56Z</time>
      </trkpt>
      <trkpt lat="41.6435250" lon="-8.7774670">
        <ele>57.7</ele>
        <time>2021-05-17T13:20:57Z</time>
      </trkpt>
      <trkpt lat="41.6435400" lon="-8.7774670">
        <ele>57.7</ele>
        <time>2021-05-17T13:20:58Z</time>
      </trkpt>
      <trkpt lat="41.6435590" lon="-8.7774700">
        <ele>57.5</ele>
        <time>2021-05-17T13:20:59Z</time>
      </trkpt>
      <trkpt lat="41.6435680" lon="-8.7774770">
        <ele>57.5</ele>
        <time>2021-05-17T13:21:00Z</time>
      </trkpt>
      <trkpt lat="41.6435880" lon="-8.7774800">
        <ele>57.4</ele>
        <time>2021-05-17T13:21:01Z</time>
      </trkpt>
      <trkpt lat="41.6435960" lon="-8.7774860">
        <ele>57.3</ele>
        <time>2021-05-17T13:21:02Z</time>
      </trkpt>
      <trkpt lat="41.6436150" lon="-8.7774940">
        <ele>57.2</ele>
        <time>2021-05-17T13:21:03Z</time>
      </trkpt>
      <trkpt lat="41.6436230" lon="-8.7774960">
        <ele>57.2</ele>
        <time>2021-05-17T13:21:04Z</time>
      </trkpt>
      <trkpt lat="41.6436310" lon="-8.7775010">
        <ele>57.1</ele>
        <time>2021-05-17T13:21:05Z</time>
      </trkpt>
      <trkpt lat="41.6436450" lon="-8.7775090">
        <ele>57.0</ele>
        <time>2021-05-17T13:21:06Z</time>
      </trkpt>
      <trkpt lat="41.6436700" lon="-8.7775160">
        <ele>56.9</ele>
        <time>2021-05-17T13:21:07Z</time>
      </trkpt>
      <trkpt lat="41.6436790" lon="-8.7775190">
        <ele>56.8</ele>
        <time>2021-05-17T13:21:08Z</time>
      </trkpt>
      <trkpt lat="41.6436890" lon="-8.7775220">
        <ele>56.8</ele>
        <time>2021-05-17T13:21:09Z</time>
      </trkpt>
      <trkpt lat="41.6437050" lon="-8.7775300">
        <ele>56.7</ele>
        <time>2021-05-17T13:21:10Z</time>
      </trkpt>
      <trkpt lat="41.6437170" lon="-8.7775410">
        <ele>56.6</ele>
        <time>2021-05-17T13:21:11Z</time>
      </trkpt>
      <trkpt lat="41.6437200" lon="-8.7775460">
        <ele>56.6</ele>
        <time>2021-05-17T13:21:12Z</time>
      </trkpt>
      <trkpt lat="41.6437350" lon="-8.7775500">
        <ele>56.5</ele>
        <time>2021-05-17T13:21:13Z</time>
      </trkpt>
      <trkpt lat="41.6437160" lon="-8.7775370">
        <ele>56.3</ele>
        <time>2021-05-17T13:21:14Z</time>
      </trkpt>
      <trkpt lat="41.6437100" lon="-8.7775350">
        <ele>56.3</ele>
        <time>2021-05-17T13:21:15Z</time>
      </trkpt>
      <trkpt lat="41.6437140" lon="-8.7775270">
        <ele>56.3</ele>
        <time>2021-05-17T13:21:16Z</time>
      </trkpt>
      <trkpt lat="41.6437140" lon="-8.7775270">
        <ele>56.3</ele>
        <time>2021-05-17T13:21:17Z</time>
      </trkpt>
      <trkpt lat="41.6437330" lon="-8.7775390">
        <ele>56.1</ele>
        <time>2021-05-17T13:21:18Z</time>
      </trkpt>
      <trkpt lat="41.6437470" lon="-8.7775440">
        <ele>56.0</ele>
        <time>2021-05-17T13:21:19Z</time>
      </trkpt>
      <trkpt lat="41.6437670" lon="-8.7775430">
        <ele>55.9</ele>
        <time>2021-05-17T13:21:20Z</time>
      </trkpt>
      <trkpt lat="41.6437760" lon="-8.7775460">
        <ele>55.9</ele>
        <time>2021-05-17T13:21:21Z</time>
      </trkpt>
      <trkpt lat="41.6437800" lon="-8.7775530">
        <ele>55.8</ele>
        <time>2021-05-17T13:21:22Z</time>
      </trkpt>
      <trkpt lat="41.6437960" lon="-8.7775540">
        <ele>55.7</ele>
        <time>2021-05-17T13:21:23Z</time>
      </trkpt>
      <trkpt lat="41.6438110" lon="-8.7775490">
        <ele>55.6</ele>
        <time>2021-05-17T13:21:24Z</time>
      </trkpt>
      <trkpt lat="41.6438260" lon="-8.7775590">
        <ele>55.5</ele>
        <time>2021-05-17T13:21:25Z</time>
      </trkpt>
      <trkpt lat="41.6438310" lon="-8.7775560">
        <ele>55.5</ele>
        <time>2021-05-17T13:21:26Z</time>
      </trkpt>
      <trkpt lat="41.6438460" lon="-8.7775600">
        <ele>55.4</ele>
        <time>2021-05-17T13:21:27Z</time>
      </trkpt>
      <trkpt lat="41.6438570" lon="-8.7775610">
        <ele>55.3</ele>
        <time>2021-05-17T13:21:28Z</time>
      </trkpt>
      <trkpt lat="41.6438690" lon="-8.7775710">
        <ele>55.2</ele>
        <time>2021-05-17T13:21:29Z</time>
      </trkpt>
      <trkpt lat="41.6438820" lon="-8.7775650">
        <ele>55.1</ele>
        <time>2021-05-17T13:21:30Z</time>
      </trkpt>
      <trkpt lat="41.6438840" lon="-8.7775600">
        <ele>55.1</ele>
        <time>2021-05-17T13:21:31Z</time>
      </trkpt>
      <trkpt lat="41.6439020" lon="-8.7775690">
        <ele>55.0</ele>
        <time>2021-05-17T13:21:32Z</time>
      </trkpt>
      <trkpt lat="41.6439120" lon="-8.7775740">
        <ele>54.9</ele>
        <time>2021-05-17T13:21:33Z</time>
      </trkpt>
      <trkpt lat="41.6439320" lon="-8.7775880">
        <ele>54.7</ele>
        <time>2021-05-17T13:21:34Z</time>
      </trkpt>
      <trkpt lat="41.6439400" lon="-8.7775930">
        <ele>54.7</ele>
        <time>2021-05-17T13:21:35Z</time>
      </trkpt>
      <trkpt lat="41.6439470" lon="-8.7775970">
        <ele>54.6</ele>
        <time>2021-05-17T13:21:36Z</time>
      </trkpt>
      <trkpt lat="41.6439590" lon="-8.7776000">
        <ele>54.5</ele>
        <time>2021-05-17T13:21:37Z</time>
      </trkpt>
      <trkpt lat="41.6439690" lon="-8.7776050">
        <ele>54.5</ele>
        <time>2021-05-17T13:21:38Z</time>
      </trkpt>
      <trkpt lat="41.6439800" lon="-8.7776140">
        <ele>54.4</ele>
        <time>2021-05-17T13:21:39Z</time>
      </trkpt>
      <trkpt lat="41.6439820" lon="-8.7776260">
        <ele>54.3</ele>
        <time>2021-05-17T13:21:40Z</time>
      </trkpt>
      <trkpt lat="41.6439920" lon="-8.7776300">
        <ele>54.3</ele>
        <time>2021-05-17T13:21:41Z</time>
      </trkpt>
      <trkpt lat="41.6440060" lon="-8.7776360">
        <ele>54.1</ele>
        <time>2021-05-17T13:21:42Z</time>
      </trkpt>
      <trkpt lat="41.6440280" lon="-8.7776370">
        <ele>54.0</ele>
        <time>2021-05-17T13:21:43Z</time>
      </trkpt>
      <trkpt lat="41.6440370" lon="-8.7776390">
        <ele>53.9</ele>
        <time>2021-05-17T13:21:44Z</time>
      </trkpt>
      <trkpt lat="41.6440470" lon="-8.7776400">
        <ele>53.9</ele>
        <time>2021-05-17T13:21:45Z</time>
      </trkpt>
      <trkpt lat="41.6440530" lon="-8.7776500">
        <ele>53.8</ele>
        <time>2021-05-17T13:21:46Z</time>
      </trkpt>
      <trkpt lat="41.6440640" lon="-8.7776520">
        <ele>53.7</ele>
        <time>2021-05-17T13:21:47Z</time>
      </trkpt>
      <trkpt lat="41.6440800" lon="-8.7776550">
        <ele>53.6</ele>
        <time>2021-05-17T13:21:48Z</time>
      </trkpt>
      <trkpt lat="41.6440980" lon="-8.7776600">
        <ele>53.5</ele>
        <time>2021-05-17T13:21:49Z</time>
      </trkpt>
      <trkpt lat="41.6441150" lon="-8.7776650">
        <ele>53.3</ele>
        <time>2021-05-17T13:21:50Z</time>
      </trkpt>
      <trkpt lat="41.6441310" lon="-8.7776660">
        <ele>53.2</ele>
        <time>2021-05-17T13:21:51Z</time>
      </trkpt>
      <trkpt lat="41.6441470" lon="-8.7776690">
        <ele>53.1</ele>
        <time>2021-05-17T13:21:52Z</time>
      </trkpt>
      <trkpt lat="41.6441640" lon="-8.7776720">
        <ele>53.0</ele>
        <time>2021-05-17T13:21:53Z</time>
      </trkpt>
      <trkpt lat="41.6441650" lon="-8.7776780">
        <ele>53.0</ele>
        <time>2021-05-17T13:21:54Z</time>
      </trkpt>
      <trkpt lat="41.6441780" lon="-8.7776880">
        <ele>52.9</ele>
        <time>2021-05-17T13:21:55Z</time>
      </trkpt>
      <trkpt lat="41.6441900" lon="-8.7776840">
        <ele>52.8</ele>
        <time>2021-05-17T13:21:56Z</time>
      </trkpt>
      <trkpt lat="41.6442080" lon="-8.7776930">
        <ele>52.6</ele>
        <time>2021-05-17T13:21:57Z</time>
      </trkpt>
      <trkpt lat="41.6442160" lon="-8.7776920">
        <ele>52.6</ele>
        <time>2021-05-17T13:21:58Z</time>
      </trkpt>
      <trkpt lat="41.6442290" lon="-8.7776980">
        <ele>52.5</ele>
        <time>2021-05-17T13:21:59Z</time>
      </trkpt>
      <trkpt lat="41.6442440" lon="-8.7776970">
        <ele>52.4</ele>
        <time>2021-05-17T13:22:00Z</time>
      </trkpt>
      <trkpt lat="41.6442570" lon="-8.7777020">
        <ele>52.3</ele>
        <time>2021-05-17T13:22:01Z</time>
      </trkpt>
      <trkpt lat="41.6442720" lon="-8.7777100">
        <ele>52.1</ele>
        <time>2021-05-17T13:22:02Z</time>
      </trkpt>
      <trkpt lat="41.6442830" lon="-8.7777110">
        <ele>52.1</ele>
        <time>2021-05-17T13:22:03Z</time>
      </trkpt>
      <trkpt lat="41.6442900" lon="-8.7777200">
        <ele>52.0</ele>
        <time>2021-05-17T13:22:04Z</time>
      </trkpt>
      <trkpt lat="41.6443040" lon="-8.7777210">
        <ele>51.9</ele>
        <time>2021-05-17T13:22:05Z</time>
      </trkpt>
      <trkpt lat="41.6443120" lon="-8.7777240">
        <ele>51.8</ele>
        <time>2021-05-17T13:22:06Z</time>
      </trkpt>
      <trkpt lat="41.6443250" lon="-8.7777260">
        <ele>51.7</ele>
        <time>2021-05-17T13:22:07Z</time>
      </trkpt>
      <trkpt lat="41.6443370" lon="-8.7777280">
        <ele>51.7</ele>
        <time>2021-05-17T13:22:08Z</time>
      </trkpt>
      <trkpt lat="41.6443580" lon="-8.7777390">
        <ele>51.7</ele>
        <time>2021-05-17T13:22:09Z</time>
      </trkpt>
      <trkpt lat="41.6443650" lon="-8.7777410">
        <ele>51.6</ele>
        <time>2021-05-17T13:22:10Z</time>
      </trkpt>
      <trkpt lat="41.6443720" lon="-8.7777440">
        <ele>51.6</ele>
        <time>2021-05-17T13:22:11Z</time>
      </trkpt>
      <trkpt lat="41.6443850" lon="-8.7777480">
        <ele>51.6</ele>
        <time>2021-05-17T13:22:12Z</time>
      </trkpt>
      <trkpt lat="41.6444000" lon="-8.7777580">
        <ele>51.6</ele>
        <time>2021-05-17T13:22:13Z</time>
      </trkpt>
      <trkpt lat="41.6444120" lon="-8.7777640">
        <ele>51.6</ele>
        <time>2021-05-17T13:22:14Z</time>
      </trkpt>
      <trkpt lat="41.6444290" lon="-8.7777740">
        <ele>51.6</ele>
        <time>2021-05-17T13:22:15Z</time>
      </trkpt>
      <trkpt lat="41.6444380" lon="-8.7777840">
        <ele>51.5</ele>
        <time>2021-05-17T13:22:16Z</time>
      </trkpt>
      <trkpt lat="41.6444540" lon="-8.7778020">
        <ele>51.4</ele>
        <time>2021-05-17T13:22:17Z</time>
      </trkpt>
      <trkpt lat="41.6444700" lon="-8.7778140">
        <ele>51.2</ele>
        <time>2021-05-17T13:22:18Z</time>
      </trkpt>
      <trkpt lat="41.6444790" lon="-8.7778270">
        <ele>51.1</ele>
        <time>2021-05-17T13:22:19Z</time>
      </trkpt>
      <trkpt lat="41.6444820" lon="-8.7778340">
        <ele>51.1</ele>
        <time>2021-05-17T13:22:20Z</time>
      </trkpt>
      <trkpt lat="41.6444890" lon="-8.7778470">
        <ele>51.0</ele>
        <time>2021-05-17T13:22:21Z</time>
      </trkpt>
      <trkpt lat="41.6445030" lon="-8.7778530">
        <ele>50.9</ele>
        <time>2021-05-17T13:22:22Z</time>
      </trkpt>
      <trkpt lat="41.6445090" lon="-8.7778650">
        <ele>50.8</ele>
        <time>2021-05-17T13:22:23Z</time>
      </trkpt>
      <trkpt lat="41.6445230" lon="-8.7778830">
        <ele>50.7</ele>
        <time>2021-05-17T13:22:24Z</time>
      </trkpt>
      <trkpt lat="41.6445350" lon="-8.7778970">
        <ele>50.6</ele>
        <time>2021-05-17T13:22:25Z</time>
      </trkpt>
      <trkpt lat="41.6445440" lon="-8.7779100">
        <ele>50.5</ele>
        <time>2021-05-17T13:22:26Z</time>
      </trkpt>
      <trkpt lat="41.6445560" lon="-8.7779220">
        <ele>50.4</ele>
        <time>2021-05-17T13:22:27Z</time>
      </trkpt>
      <trkpt lat="41.6445670" lon="-8.7779330">
        <ele>50.3</ele>
        <time>2021-05-17T13:22:28Z</time>
      </trkpt>
      <trkpt lat="41.6445810" lon="-8.7779530">
        <ele>50.1</ele>
        <time>2021-05-17T13:22:29Z</time>
      </trkpt>
      <trkpt lat="41.6445900" lon="-8.7779580">
        <ele>50.0</ele>
        <time>2021-05-17T13:22:30Z</time>
      </trkpt>
      <trkpt lat="41.6445990" lon="-8.7779640">
        <ele>50.0</ele>
        <time>2021-05-17T13:22:31Z</time>
      </trkpt>
      <trkpt lat="41.6446070" lon="-8.7779770">
        <ele>49.9</ele>
        <time>2021-05-17T13:22:32Z</time>
      </trkpt>
      <trkpt lat="41.6446150" lon="-8.7779860">
        <ele>49.8</ele>
        <time>2021-05-17T13:22:33Z</time>
      </trkpt>
      <trkpt lat="41.6446180" lon="-8.7780020">
        <ele>49.7</ele>
        <time>2021-05-17T13:22:34Z</time>
      </trkpt>
      <trkpt lat="41.6446330" lon="-8.7780060">
        <ele>49.6</ele>
        <time>2021-05-17T13:22:35Z</time>
      </trkpt>
      <trkpt lat="41.6446440" lon="-8.7780200">
        <ele>49.5</ele>
        <time>2021-05-17T13:22:36Z</time>
      </trkpt>
      <trkpt lat="41.6446520" lon="-8.7780360">
        <ele>49.4</ele>
        <time>2021-05-17T13:22:37Z</time>
      </trkpt>
      <trkpt lat="41.6446660" lon="-8.7780460">
        <ele>49.3</ele>
        <time>2021-05-17T13:22:38Z</time>
      </trkpt>
      <trkpt lat="41.6446730" lon="-8.7780520">
        <ele>49.2</ele>
        <time>2021-05-17T13:22:39Z</time>
      </trkpt>
      <trkpt lat="41.6446800" lon="-8.7780610">
        <ele>49.2</ele>
        <time>2021-05-17T13:22:40Z</time>
      </trkpt>
      <trkpt lat="41.6446920" lon="-8.7780770">
        <ele>49.0</ele>
        <time>2021-05-17T13:22:41Z</time>
      </trkpt>
      <trkpt lat="41.6447010" lon="-8.7780960">
        <ele>48.9</ele>
        <time>2021-05-17T13:22:42Z</time>
      </trkpt>
      <trkpt lat="41.6447100" lon="-8.7781040">
        <ele>48.8</ele>
        <time>2021-05-17T13:22:43Z</time>
      </trkpt>
      <trkpt lat="41.6447100" lon="-8.7781180">
        <ele>48.8</ele>
        <time>2021-05-17T13:22:44Z</time>
      </trkpt>
      <trkpt lat="41.6447200" lon="-8.7781260">
        <ele>48.7</ele>
        <time>2021-05-17T13:22:45Z</time>
      </trkpt>
      <trkpt lat="41.6447310" lon="-8.7781430">
        <ele>48.5</ele>
        <time>2021-05-17T13:22:46Z</time>
      </trkpt>
      <trkpt lat="41.6447510" lon="-8.7781620">
        <ele>48.4</ele>
        <time>2021-05-17T13:22:47Z</time>
      </trkpt>
      <trkpt lat="41.6447550" lon="-8.7781700">
        <ele>48.3</ele>
        <time>2021-05-17T13:22:48Z</time>
      </trkpt>
      <trkpt lat="41.6447600" lon="-8.7781770">
        <ele>48.2</ele>
        <time>2021-05-17T13:22:49Z</time>
      </trkpt>
      <trkpt lat="41.6447780" lon="-8.7781900">
        <ele>48.1</ele>
        <time>2021-05-17T13:22:50Z</time>
      </trkpt>
      <trkpt lat="41.6447850" lon="-8.7781990">
        <ele>48.0</ele>
        <time>2021-05-17T13:22:51Z</time>
      </trkpt>
      <trkpt lat="41.6447920" lon="-8.7782070">
        <ele>48.0</ele>
        <time>2021-05-17T13:22:52Z</time>
      </trkpt>
      <trkpt lat="41.6448070" lon="-8.7782190">
        <ele>47.8</ele>
        <time>2021-05-17T13:22:53Z</time>
      </trkpt>
      <trkpt lat="41.6448210" lon="-8.7782300">
        <ele>47.7</ele>
        <time>2021-05-17T13:22:54Z</time>
      </trkpt>
      <trkpt lat="41.6448320" lon="-8.7782350">
        <ele>47.6</ele>
        <time>2021-05-17T13:22:55Z</time>
      </trkpt>
      <trkpt lat="41.6448470" lon="-8.7782400">
        <ele>47.5</ele>
        <time>2021-05-17T13:22:56Z</time>
      </trkpt>
      <trkpt lat="41.6448700" lon="-8.7782600">
        <ele>47.3</ele>
        <time>2021-05-17T13:22:57Z</time>
      </trkpt>
      <trkpt lat="41.6448800" lon="-8.7782690">
        <ele>47.2</ele>
        <time>2021-05-17T13:22:58Z</time>
      </trkpt>
      <trkpt lat="41.6448910" lon="-8.7782780">
        <ele>47.1</ele>
        <time>2021-05-17T13:22:59Z</time>
      </trkpt>
      <trkpt lat="41.6449020" lon="-8.7782810">
        <ele>47.1</ele>
        <time>2021-05-17T13:23:00Z</time>
      </trkpt>
      <trkpt lat="41.6449140" lon="-8.7782870">
        <ele>47.0</ele>
        <time>2021-05-17T13:23:01Z</time>
      </trkpt>
      <trkpt lat="41.6449170" lon="-8.7782980">
        <ele>46.9</ele>
        <time>2021-05-17T13:23:02Z</time>
      </trkpt>
      <trkpt lat="41.6449150" lon="-8.7783040">
        <ele>46.9</ele>
        <time>2021-05-17T13:23:03Z</time>
      </trkpt>
      <trkpt lat="41.6449250" lon="-8.7783110">
        <ele>46.8</ele>
        <time>2021-05-17T13:23:04Z</time>
      </trkpt>
      <trkpt lat="41.6449390" lon="-8.7783250">
        <ele>46.7</ele>
        <time>2021-05-17T13:23:05Z</time>
      </trkpt>
      <trkpt lat="41.6449510" lon="-8.7783410">
        <ele>46.5</ele>
        <time>2021-05-17T13:23:06Z</time>
      </trkpt>
      <trkpt lat="41.6449600" lon="-8.7783530">
        <ele>46.5</ele>
        <time>2021-05-17T13:23:07Z</time>
      </trkpt>
      <trkpt lat="41.6449610" lon="-8.7783570">
        <ele>46.4</ele>
        <time>2021-05-17T13:23:08Z</time>
      </trkpt>
      <trkpt lat="41.6449840" lon="-8.7783700">
        <ele>46.3</ele>
        <time>2021-05-17T13:23:09Z</time>
      </trkpt>
      <trkpt lat="41.6450020" lon="-8.7783800">
        <ele>46.2</ele>
        <time>2021-05-17T13:23:10Z</time>
      </trkpt>
      <trkpt lat="41.6450120" lon="-8.7783890">
        <ele>46.1</ele>
        <time>2021-05-17T13:23:11Z</time>
      </trkpt>
      <trkpt lat="41.6450210" lon="-8.7783970">
        <ele>46.0</ele>
        <time>2021-05-17T13:23:12Z</time>
      </trkpt>
      <trkpt lat="41.6450330" lon="-8.7784000">
        <ele>45.9</ele>
        <time>2021-05-17T13:23:13Z</time>
      </trkpt>
      <trkpt lat="41.6450470" lon="-8.7784110">
        <ele>45.8</ele>
        <time>2021-05-17T13:23:14Z</time>
      </trkpt>
      <trkpt lat="41.6450590" lon="-8.7784190">
        <ele>45.8</ele>
        <time>2021-05-17T13:23:15Z</time>
      </trkpt>
      <trkpt lat="41.6450680" lon="-8.7784260">
        <ele>45.7</ele>
        <time>2021-05-17T13:23:16Z</time>
      </trkpt>
      <trkpt lat="41.6450760" lon="-8.7784360">
        <ele>45.6</ele>
        <time>2021-05-17T13:23:17Z</time>
      </trkpt>
      <trkpt lat="41.6450900" lon="-8.7784470">
        <ele>45.5</ele>
        <time>2021-05-17T13:23:18Z</time>
      </trkpt>
      <trkpt lat="41.6451040" lon="-8.7784560">
        <ele>45.4</ele>
        <time>2021-05-17T13:23:19Z</time>
      </trkpt>
      <trkpt lat="41.6451150" lon="-8.7784620">
        <ele>45.4</ele>
        <time>2021-05-17T13:23:20Z</time>
      </trkpt>
      <trkpt lat="41.6451220" lon="-8.7784690">
        <ele>45.3</ele>
        <time>2021-05-17T13:23:21Z</time>
      </trkpt>
      <trkpt lat="41.6451120" lon="-8.7784630">
        <ele>45.3</ele>
        <time>2021-05-17T13:23:22Z</time>
      </trkpt>
      <trkpt lat="41.6451140" lon="-8.7784640">
        <ele>45.3</ele>
        <time>2021-05-17T13:23:23Z</time>
      </trkpt>
      <trkpt lat="41.6451120" lon="-8.7784620">
        <ele>45.2</ele>
        <time>2021-05-17T13:23:24Z</time>
      </trkpt>
      <trkpt lat="41.6451130" lon="-8.7784650">
        <ele>45.2</ele>
        <time>2021-05-17T13:23:25Z</time>
      </trkpt>
      <trkpt lat="41.6451170" lon="-8.7784680">
        <ele>45.2</ele>
        <time>2021-05-17T13:23:26Z</time>
      </trkpt>
      <trkpt lat="41.6451220" lon="-8.7784660">
        <ele>45.2</ele>
        <time>2021-05-17T13:23:27Z</time>
      </trkpt>
      <trkpt lat="41.6451250" lon="-8.7784680">
        <ele>45.2</ele>
        <time>2021-05-17T13:23:28Z</time>
      </trkpt>
      <trkpt lat="41.6451270" lon="-8.7784670">
        <ele>45.1</ele>
        <time>2021-05-17T13:23:29Z</time>
      </trkpt>
      <trkpt lat="41.6451300" lon="-8.7784690">
        <ele>45.1</ele>
        <time>2021-05-17T13:23:30Z</time>
      </trkpt>
      <trkpt lat="41.6451320" lon="-8.7784680">
        <ele>45.1</ele>
        <time>2021-05-17T13:23:31Z</time>
      </trkpt>
      <trkpt lat="41.6451430" lon="-8.7784790">
        <ele>45.0</ele>
        <time>2021-05-17T13:23:32Z</time>
      </trkpt>
      <trkpt lat="41.6451560" lon="-8.7784850">
        <ele>45.0</ele>
        <time>2021-05-17T13:23:33Z</time>
      </trkpt>
      <trkpt lat="41.6451640" lon="-8.7784900">
        <ele>44.9</ele>
        <time>2021-05-17T13:23:34Z</time>
      </trkpt>
      <trkpt lat="41.6451710" lon="-8.7784980">
        <ele>44.9</ele>
        <time>2021-05-17T13:23:35Z</time>
      </trkpt>
      <trkpt lat="41.6451810" lon="-8.7785060">
        <ele>44.8</ele>
        <time>2021-05-17T13:23:36Z</time>
      </trkpt>
      <trkpt lat="41.6451880" lon="-8.7785100">
        <ele>44.8</ele>
        <time>2021-05-17T13:23:37Z</time>
      </trkpt>
      <trkpt lat="41.6451930" lon="-8.7785180">
        <ele>44.8</ele>
        <time>2021-05-17T13:23:38Z</time>
      </trkpt>
      <trkpt lat="41.6451990" lon="-8.7785230">
        <ele>44.7</ele>
        <time>2021-05-17T13:23:39Z</time>
      </trkpt>
      <trkpt lat="41.6452090" lon="-8.7785300">
        <ele>44.7</ele>
        <time>2021-05-17T13:23:40Z</time>
      </trkpt>
      <trkpt lat="41.6452210" lon="-8.7785390">
        <ele>44.6</ele>
        <time>2021-05-17T13:23:41Z</time>
      </trkpt>
      <trkpt lat="41.6452330" lon="-8.7785490">
        <ele>44.5</ele>
        <time>2021-05-17T13:23:42Z</time>
      </trkpt>
      <trkpt lat="41.6452490" lon="-8.7785650">
        <ele>44.4</ele>
        <time>2021-05-17T13:23:43Z</time>
      </trkpt>
      <trkpt lat="41.6452560" lon="-8.7785710">
        <ele>44.4</ele>
        <time>2021-05-17T13:23:44Z</time>
      </trkpt>
      <trkpt lat="41.6452630" lon="-8.7785770">
        <ele>44.4</ele>
        <time>2021-05-17T13:23:45Z</time>
      </trkpt>
      <trkpt lat="41.6452710" lon="-8.7785840">
        <ele>44.3</ele>
        <time>2021-05-17T13:23:46Z</time>
      </trkpt>
      <trkpt lat="41.6452790" lon="-8.7785900">
        <ele>44.3</ele>
        <time>2021-05-17T13:23:47Z</time>
      </trkpt>
      <trkpt lat="41.6452920" lon="-8.7785980">
        <ele>44.2</ele>
        <time>2021-05-17T13:23:48Z</time>
      </trkpt>
      <trkpt lat="41.6453050" lon="-8.7786060">
        <ele>44.2</ele>
        <time>2021-05-17T13:23:49Z</time>
      </trkpt>
      <trkpt lat="41.6453210" lon="-8.7786120">
        <ele>44.1</ele>
        <time>2021-05-17T13:23:50Z</time>
      </trkpt>
      <trkpt lat="41.6453390" lon="-8.7786260">
        <ele>44.0</ele>
        <time>2021-05-17T13:23:51Z</time>
      </trkpt>
      <trkpt lat="41.6453460" lon="-8.7786320">
        <ele>44.0</ele>
        <time>2021-05-17T13:23:52Z</time>
      </trkpt>
      <trkpt lat="41.6453530" lon="-8.7786380">
        <ele>44.0</ele>
        <time>2021-05-17T13:23:53Z</time>
      </trkpt>
      <trkpt lat="41.6453710" lon="-8.7786510">
        <ele>43.9</ele>
        <time>2021-05-17T13:23:54Z</time>
      </trkpt>
      <trkpt lat="41.6453780" lon="-8.7786580">
        <ele>43.9</ele>
        <time>2021-05-17T13:23:55Z</time>
      </trkpt>
      <trkpt lat="41.6453840" lon="-8.7786650">
        <ele>43.8</ele>
        <time>2021-05-17T13:23:56Z</time>
      </trkpt>
      <trkpt lat="41.6454050" lon="-8.7786790">
        <ele>43.7</ele>
        <time>2021-05-17T13:23:57Z</time>
      </trkpt>
      <trkpt lat="41.6454120" lon="-8.7786860">
        <ele>43.7</ele>
        <time>2021-05-17T13:23:58Z</time>
      </trkpt>
      <trkpt lat="41.6454200" lon="-8.7786920">
        <ele>43.7</ele>
        <time>2021-05-17T13:23:59Z</time>
      </trkpt>
      <trkpt lat="41.6454280" lon="-8.7786990">
        <ele>43.6</ele>
        <time>2021-05-17T13:24:00Z</time>
      </trkpt>
      <trkpt lat="41.6454380" lon="-8.7787080">
        <ele>43.6</ele>
        <time>2021-05-17T13:24:01Z</time>
      </trkpt>
      <trkpt lat="41.6454470" lon="-8.7787210">
        <ele>43.5</ele>
        <time>2021-05-17T13:24:02Z</time>
      </trkpt>
      <trkpt lat="41.6454590" lon="-8.7787320">
        <ele>43.5</ele>
        <time>2021-05-17T13:24:03Z</time>
      </trkpt>
      <trkpt lat="41.6454650" lon="-8.7787350">
        <ele>43.5</ele>
        <time>2021-05-17T13:24:04Z</time>
      </trkpt>
      <trkpt lat="41.6454750" lon="-8.7787430">
        <ele>43.4</ele>
        <time>2021-05-17T13:24:05Z</time>
      </trkpt>
      <trkpt lat="41.6454900" lon="-8.7787540">
        <ele>43.4</ele>
        <time>2021-05-17T13:24:06Z</time>
      </trkpt>
      <trkpt lat="41.6455030" lon="-8.7787620">
        <ele>43.3</ele>
        <time>2021-05-17T13:24:07Z</time>
      </trkpt>
      <trkpt lat="41.6455150" lon="-8.7787700">
        <ele>43.3</ele>
        <time>2021-05-17T13:24:08Z</time>
      </trkpt>
      <trkpt lat="41.6455250" lon="-8.7787780">
        <ele>43.2</ele>
        <time>2021-05-17T13:24:09Z</time>
      </trkpt>
      <trkpt lat="41.6455330" lon="-8.7787860">
        <ele>43.2</ele>
        <time>2021-05-17T13:24:10Z</time>
      </trkpt>
      <trkpt lat="41.6455430" lon="-8.7787950">
        <ele>43.2</ele>
        <time>2021-05-17T13:24:11Z</time>
      </trkpt>
      <trkpt lat="41.6455510" lon="-8.7788010">
        <ele>43.2</ele>
        <time>2021-05-17T13:24:12Z</time>
      </trkpt>
      <trkpt lat="41.6455630" lon="-8.7788080">
        <ele>43.1</ele>
        <time>2021-05-17T13:24:13Z</time>
      </trkpt>
      <trkpt lat="41.6455790" lon="-8.7788210">
        <ele>43.1</ele>
        <time>2021-05-17T13:24:14Z</time>
      </trkpt>
      <trkpt lat="41.6455870" lon="-8.7788270">
        <ele>43.0</ele>
        <time>2021-05-17T13:24:15Z</time>
      </trkpt>
      <trkpt lat="41.6455960" lon="-8.7788320">
        <ele>43.0</ele>
        <time>2021-05-17T13:24:16Z</time>
      </trkpt>
      <trkpt lat="41.6456130" lon="-8.7788440">
        <ele>43.0</ele>
        <time>2021-05-17T13:24:17Z</time>
      </trkpt>
      <trkpt lat="41.6456220" lon="-8.7788480">
        <ele>42.9</ele>
        <time>2021-05-17T13:24:18Z</time>
      </trkpt>
      <trkpt lat="41.6456300" lon="-8.7788530">
        <ele>42.9</ele>
        <time>2021-05-17T13:24:19Z</time>
      </trkpt>
      <trkpt lat="41.6456420" lon="-8.7788630">
        <ele>42.9</ele>
        <time>2021-05-17T13:24:20Z</time>
      </trkpt>
      <trkpt lat="41.6456500" lon="-8.7788680">
        <ele>42.9</ele>
        <time>2021-05-17T13:24:21Z</time>
      </trkpt>
      <trkpt lat="41.6456610" lon="-8.7788790">
        <ele>42.8</ele>
        <time>2021-05-17T13:24:22Z</time>
      </trkpt>
      <trkpt lat="41.6456700" lon="-8.7788860">
        <ele>42.8</ele>
        <time>2021-05-17T13:24:23Z</time>
      </trkpt>
      <trkpt lat="41.6456780" lon="-8.7788930">
        <ele>42.8</ele>
        <time>2021-05-17T13:24:24Z</time>
      </trkpt>
      <trkpt lat="41.6456900" lon="-8.7788980">
        <ele>42.7</ele>
        <time>2021-05-17T13:24:25Z</time>
      </trkpt>
      <trkpt lat="41.6457050" lon="-8.7789130">
        <ele>42.7</ele>
        <time>2021-05-17T13:24:26Z</time>
      </trkpt>
      <trkpt lat="41.6457140" lon="-8.7789180">
        <ele>42.7</ele>
        <time>2021-05-17T13:24:27Z</time>
      </trkpt>
      <trkpt lat="41.6457220" lon="-8.7789240">
        <ele>42.7</ele>
        <time>2021-05-17T13:24:28Z</time>
      </trkpt>
      <trkpt lat="41.6457400" lon="-8.7789380">
        <ele>42.6</ele>
        <time>2021-05-17T13:24:29Z</time>
      </trkpt>
      <trkpt lat="41.6457480" lon="-8.7789430">
        <ele>42.6</ele>
        <time>2021-05-17T13:24:30Z</time>
      </trkpt>
      <trkpt lat="41.6457550" lon="-8.7789490">
        <ele>42.6</ele>
        <time>2021-05-17T13:24:31Z</time>
      </trkpt>
      <trkpt lat="41.6457660" lon="-8.7789570">
        <ele>42.5</ele>
        <time>2021-05-17T13:24:32Z</time>
      </trkpt>
      <trkpt lat="41.6457730" lon="-8.7789680">
        <ele>42.5</ele>
        <time>2021-05-17T13:24:33Z</time>
      </trkpt>
      <trkpt lat="41.6457830" lon="-8.7789770">
        <ele>42.5</ele>
        <time>2021-05-17T13:24:34Z</time>
      </trkpt>
      <trkpt lat="41.6458000" lon="-8.7789870">
        <ele>42.5</ele>
        <time>2021-05-17T13:24:35Z</time>
      </trkpt>
      <trkpt lat="41.6458120" lon="-8.7789940">
        <ele>42.4</ele>
        <time>2021-05-17T13:24:36Z</time>
      </trkpt>
      <trkpt lat="41.6458270" lon="-8.7790100">
        <ele>42.4</ele>
        <time>2021-05-17T13:24:37Z</time>
      </trkpt>
      <trkpt lat="41.6458370" lon="-8.7790150">
        <ele>42.4</ele>
        <time>2021-05-17T13:24:38Z</time>
      </trkpt>
      <trkpt lat="41.6458470" lon="-8.7790200">
        <ele>42.3</ele>
        <time>2021-05-17T13:24:39Z</time>
      </trkpt>
      <trkpt lat="41.6458580" lon="-8.7790280">
        <ele>42.3</ele>
        <time>2021-05-17T13:24:40Z</time>
      </trkpt>
      <trkpt lat="41.6458680" lon="-8.7790380">
        <ele>42.3</ele>
        <time>2021-05-17T13:24:41Z</time>
      </trkpt>
      <trkpt lat="41.6458750" lon="-8.7790490">
        <ele>42.3</ele>
        <time>2021-05-17T13:24:42Z</time>
      </trkpt>
      <trkpt lat="41.6458920" lon="-8.7790630">
        <ele>42.3</ele>
        <time>2021-05-17T13:24:43Z</time>
      </trkpt>
      <trkpt lat="41.6459000" lon="-8.7790680">
        <ele>42.2</ele>
        <time>2021-05-17T13:24:44Z</time>
      </trkpt>
      <trkpt lat="41.6459070" lon="-8.7790720">
        <ele>42.2</ele>
        <time>2021-05-17T13:24:45Z</time>
      </trkpt>
      <trkpt lat="41.6459240" lon="-8.7790920">
        <ele>42.2</ele>
        <time>2021-05-17T13:24:46Z</time>
      </trkpt>
      <trkpt lat="41.6459300" lon="-8.7790990">
        <ele>42.2</ele>
        <time>2021-05-17T13:24:47Z</time>
      </trkpt>
      <trkpt lat="41.6459360" lon="-8.7791070">
        <ele>42.2</ele>
        <time>2021-05-17T13:24:48Z</time>
      </trkpt>
      <trkpt lat="41.6459460" lon="-8.7791210">
        <ele>42.1</ele>
        <time>2021-05-17T13:24:49Z</time>
      </trkpt>
      <trkpt lat="41.6459560" lon="-8.7791290">
        <ele>42.1</ele>
        <time>2021-05-17T13:24:50Z</time>
      </trkpt>
      <trkpt lat="41.6459650" lon="-8.7791340">
        <ele>42.1</ele>
        <time>2021-05-17T13:24:51Z</time>
      </trkpt>
      <trkpt lat="41.6459830" lon="-8.7791520">
        <ele>42.1</ele>
        <time>2021-05-17T13:24:52Z</time>
      </trkpt>
      <trkpt lat="41.6459960" lon="-8.7791630">
        <ele>42.1</ele>
        <time>2021-05-17T13:24:53Z</time>
      </trkpt>
      <trkpt lat="41.6460080" lon="-8.7791730">
        <ele>42.0</ele>
        <time>2021-05-17T13:24:54Z</time>
      </trkpt>
      <trkpt lat="41.6460260" lon="-8.7791830">
        <ele>42.0</ele>
        <time>2021-05-17T13:24:55Z</time>
      </trkpt>
      <trkpt lat="41.6460310" lon="-8.7791880">
        <ele>42.0</ele>
        <time>2021-05-17T13:24:56Z</time>
      </trkpt>
      <trkpt lat="41.6460520" lon="-8.7792050">
        <ele>42.0</ele>
        <time>2021-05-17T13:24:57Z</time>
      </trkpt>
      <trkpt lat="41.6460610" lon="-8.7792140">
        <ele>41.9</ele>
        <time>2021-05-17T13:24:58Z</time>
      </trkpt>
      <trkpt lat="41.6460690" lon="-8.7792240">
        <ele>41.9</ele>
        <time>2021-05-17T13:24:59Z</time>
      </trkpt>
      <trkpt lat="41.6460780" lon="-8.7792280">
        <ele>41.9</ele>
        <time>2021-05-17T13:25:00Z</time>
      </trkpt>
      <trkpt lat="41.6460850" lon="-8.7792380">
        <ele>41.8</ele>
        <time>2021-05-17T13:25:01Z</time>
      </trkpt>
      <trkpt lat="41.6460970" lon="-8.7792490">
        <ele>41.8</ele>
        <time>2021-05-17T13:25:02Z</time>
      </trkpt>
      <trkpt lat="41.6461060" lon="-8.7792610">
        <ele>41.8</ele>
        <time>2021-05-17T13:25:03Z</time>
      </trkpt>
      <trkpt lat="41.6461090" lon="-8.7792720">
        <ele>41.8</ele>
        <time>2021-05-17T13:25:04Z</time>
      </trkpt>
      <trkpt lat="41.6461160" lon="-8.7792860">
        <ele>41.8</ele>
        <time>2021-05-17T13:25:05Z</time>
      </trkpt>
      <trkpt lat="41.6461200" lon="-8.7793090">
        <ele>41.7</ele>
        <time>2021-05-17T13:25:06Z</time>
      </trkpt>
      <trkpt lat="41.6461290" lon="-8.7793260">
        <ele>41.7</ele>
        <time>2021-05-17T13:25:07Z</time>
      </trkpt>
      <trkpt lat="41.6461390" lon="-8.7793480">
        <ele>41.7</ele>
        <time>2021-05-17T13:25:08Z</time>
      </trkpt>
      <trkpt lat="41.6461470" lon="-8.7793660">
        <ele>41.6</ele>
        <time>2021-05-17T13:25:09Z</time>
      </trkpt>
      <trkpt lat="41.6461500" lon="-8.7793890">
        <ele>41.6</ele>
        <time>2021-05-17T13:25:10Z</time>
      </trkpt>
      <trkpt lat="41.6461510" lon="-8.7794150">
        <ele>41.6</ele>
        <time>2021-05-17T13:25:11Z</time>
      </trkpt>
      <trkpt lat="41.6461510" lon="-8.7794530">
        <ele>41.5</ele>
        <time>2021-05-17T13:25:12Z</time>
      </trkpt>
      <trkpt lat="41.6461510" lon="-8.7794660">
        <ele>41.5</ele>
        <time>2021-05-17T13:25:13Z</time>
      </trkpt>
      <trkpt lat="41.6461550" lon="-8.7794850">
        <ele>41.4</ele>
        <time>2021-05-17T13:25:14Z</time>
      </trkpt>
      <trkpt lat="41.6461660" lon="-8.7794960">
        <ele>41.4</ele>
        <time>2021-05-17T13:25:15Z</time>
      </trkpt>
      <trkpt lat="41.6461700" lon="-8.7795050">
        <ele>41.4</ele>
        <time>2021-05-17T13:25:16Z</time>
      </trkpt>
      <trkpt lat="41.6461720" lon="-8.7795220">
        <ele>41.4</ele>
        <time>2021-05-17T13:25:17Z</time>
      </trkpt>
      <trkpt lat="41.6461740" lon="-8.7795430">
        <ele>41.3</ele>
        <time>2021-05-17T13:25:18Z</time>
      </trkpt>
      <trkpt lat="41.6461740" lon="-8.7795650">
        <ele>41.3</ele>
        <time>2021-05-17T13:25:19Z</time>
      </trkpt>
      <trkpt lat="41.6461800" lon="-8.7795850">
        <ele>41.3</ele>
        <time>2021-05-17T13:25:20Z</time>
      </trkpt>
      <trkpt lat="41.6461830" lon="-8.7796020">
        <ele>41.3</ele>
        <time>2021-05-17T13:25:21Z</time>
      </trkpt>
      <trkpt lat="41.6461830" lon="-8.7796160">
        <ele>41.2</ele>
        <time>2021-05-17T13:25:22Z</time>
      </trkpt>
      <trkpt lat="41.6461870" lon="-8.7796310">
        <ele>41.2</ele>
        <time>2021-05-17T13:25:23Z</time>
      </trkpt>
      <trkpt lat="41.6461970" lon="-8.7796400">
        <ele>41.2</ele>
        <time>2021-05-17T13:25:24Z</time>
      </trkpt>
      <trkpt lat="41.6462020" lon="-8.7796730">
        <ele>41.1</ele>
        <time>2021-05-17T13:25:25Z</time>
      </trkpt>
      <trkpt lat="41.6462040" lon="-8.7796970">
        <ele>41.1</ele>
        <time>2021-05-17T13:25:26Z</time>
      </trkpt>
      <trkpt lat="41.6462110" lon="-8.7797140">
        <ele>41.1</ele>
        <time>2021-05-17T13:25:27Z</time>
      </trkpt>
      <trkpt lat="41.6462100" lon="-8.7797390">
        <ele>41.1</ele>
        <time>2021-05-17T13:25:28Z</time>
      </trkpt>
      <trkpt lat="41.6462140" lon="-8.7797570">
        <ele>41.0</ele>
        <time>2021-05-17T13:25:29Z</time>
      </trkpt>
      <trkpt lat="41.6462180" lon="-8.7797790">
        <ele>41.0</ele>
        <time>2021-05-17T13:25:30Z</time>
      </trkpt>
      <trkpt lat="41.6462250" lon="-8.7797940">
        <ele>41.0</ele>
        <time>2021-05-17T13:25:31Z</time>
      </trkpt>
      <trkpt lat="41.6462270" lon="-8.7798140">
        <ele>41.0</ele>
        <time>2021-05-17T13:25:32Z</time>
      </trkpt>
      <trkpt lat="41.6462260" lon="-8.7798310">
        <ele>40.9</ele>
        <time>2021-05-17T13:25:33Z</time>
      </trkpt>
      <trkpt lat="41.6462350" lon="-8.7798480">
        <ele>40.9</ele>
        <time>2021-05-17T13:25:34Z</time>
      </trkpt>
      <trkpt lat="41.6462400" lon="-8.7798680">
        <ele>40.9</ele>
        <time>2021-05-17T13:25:35Z</time>
      </trkpt>
      <trkpt lat="41.6462460" lon="-8.7798810">
        <ele>40.9</ele>
        <time>2021-05-17T13:25:37Z</time>
      </trkpt>
      <trkpt lat="41.6462500" lon="-8.7798960">
        <ele>40.9</ele>
        <time>2021-05-17T13:25:38Z</time>
      </trkpt>
      <trkpt lat="41.6462530" lon="-8.7799020">
        <ele>40.8</ele>
        <time>2021-05-17T13:25:39Z</time>
      </trkpt>
      <trkpt lat="41.6462590" lon="-8.7799360">
        <ele>40.8</ele>
        <time>2021-05-17T13:25:40Z</time>
      </trkpt>
      <trkpt lat="41.6462610" lon="-8.7799510">
        <ele>40.8</ele>
        <time>2021-05-17T13:25:41Z</time>
      </trkpt>
      <trkpt lat="41.6462620" lon="-8.7799670">
        <ele>40.8</ele>
        <time>2021-05-17T13:25:42Z</time>
      </trkpt>
      <trkpt lat="41.6462670" lon="-8.7799820">
        <ele>40.8</ele>
        <time>2021-05-17T13:25:43Z</time>
      </trkpt>
      <trkpt lat="41.6462720" lon="-8.7800070">
        <ele>40.7</ele>
        <time>2021-05-17T13:25:44Z</time>
      </trkpt>
      <trkpt lat="41.6462710" lon="-8.7800270">
        <ele>40.7</ele>
        <time>2021-05-17T13:25:45Z</time>
      </trkpt>
      <trkpt lat="41.6462740" lon="-8.7800470">
        <ele>40.7</ele>
        <time>2021-05-17T13:25:46Z</time>
      </trkpt>
      <trkpt lat="41.6462770" lon="-8.7800640">
        <ele>40.7</ele>
        <time>2021-05-17T13:25:47Z</time>
      </trkpt>
      <trkpt lat="41.6462780" lon="-8.7800870">
        <ele>40.6</ele>
        <time>2021-05-17T13:25:48Z</time>
      </trkpt>
      <trkpt lat="41.6462770" lon="-8.7801070">
        <ele>40.6</ele>
        <time>2021-05-17T13:25:49Z</time>
      </trkpt>
      <trkpt lat="41.6462870" lon="-8.7801230">
        <ele>40.6</ele>
        <time>2021-05-17T13:25:50Z</time>
      </trkpt>
      <trkpt lat="41.6462970" lon="-8.7801430">
        <ele>40.6</ele>
        <time>2021-05-17T13:25:51Z</time>
      </trkpt>
      <trkpt lat="41.6463040" lon="-8.7801610">
        <ele>40.6</ele>
        <time>2021-05-17T13:25:52Z</time>
      </trkpt>
      <trkpt lat="41.6463110" lon="-8.7801790">
        <ele>40.5</ele>
        <time>2021-05-17T13:25:53Z</time>
      </trkpt>
      <trkpt lat="41.6463190" lon="-8.7801960">
        <ele>40.5</ele>
        <time>2021-05-17T13:25:54Z</time>
      </trkpt>
      <trkpt lat="41.6463240" lon="-8.7802140">
        <ele>40.5</ele>
        <time>2021-05-17T13:25:55Z</time>
      </trkpt>
      <trkpt lat="41.6463270" lon="-8.7802330">
        <ele>40.5</ele>
        <time>2021-05-17T13:25:56Z</time>
      </trkpt>
      <trkpt lat="41.6463320" lon="-8.7802540">
        <ele>40.5</ele>
        <time>2021-05-17T13:25:57Z</time>
      </trkpt>
      <trkpt lat="41.6463380" lon="-8.7802740">
        <ele>40.4</ele>
        <time>2021-05-17T13:25:58Z</time>
      </trkpt>
      <trkpt lat="41.6463400" lon="-8.7802950">
        <ele>40.4</ele>
        <time>2021-05-17T13:25:59Z</time>
      </trkpt>
      <trkpt lat="41.6463380" lon="-8.7803140">
        <ele>40.4</ele>
        <time>2021-05-17T13:26:00Z</time>
      </trkpt>
      <trkpt lat="41.6463450" lon="-8.7803250">
        <ele>40.4</ele>
        <time>2021-05-17T13:26:01Z</time>
      </trkpt>
      <trkpt lat="41.6463520" lon="-8.7803370">
        <ele>40.4</ele>
        <time>2021-05-17T13:26:02Z</time>
      </trkpt>
      <trkpt lat="41.6463560" lon="-8.7803520">
        <ele>40.4</ele>
        <time>2021-05-17T13:26:03Z</time>
      </trkpt>
      <trkpt lat="41.6463620" lon="-8.7803590">
        <ele>40.4</ele>
        <time>2021-05-17T13:26:04Z</time>
      </trkpt>
      <trkpt lat="41.6463720" lon="-8.7803720">
        <ele>40.3</ele>
        <time>2021-05-17T13:26:05Z</time>
      </trkpt>
      <trkpt lat="41.6463810" lon="-8.7803760">
        <ele>40.3</ele>
        <time>2021-05-17T13:26:06Z</time>
      </trkpt>
      <trkpt lat="41.6463970" lon="-8.7803990">
        <ele>40.3</ele>
        <time>2021-05-17T13:26:07Z</time>
      </trkpt>
      <trkpt lat="41.6464020" lon="-8.7804060">
        <ele>40.3</ele>
        <time>2021-05-17T13:26:08Z</time>
      </trkpt>
      <trkpt lat="41.6464080" lon="-8.7804120">
        <ele>40.3</ele>
        <time>2021-05-17T13:26:09Z</time>
      </trkpt>
      <trkpt lat="41.6464210" lon="-8.7804200">
        <ele>40.2</ele>
        <time>2021-05-17T13:26:10Z</time>
      </trkpt>
      <trkpt lat="41.6464200" lon="-8.7804390">
        <ele>40.2</ele>
        <time>2021-05-17T13:26:11Z</time>
      </trkpt>
      <trkpt lat="41.6464300" lon="-8.7804460">
        <ele>40.2</ele>
        <time>2021-05-17T13:26:12Z</time>
      </trkpt>
      <trkpt lat="41.6464380" lon="-8.7804560">
        <ele>40.2</ele>
        <time>2021-05-17T13:26:13Z</time>
      </trkpt>
      <trkpt lat="41.6464440" lon="-8.7804670">
        <ele>40.2</ele>
        <time>2021-05-17T13:26:14Z</time>
      </trkpt>
      <trkpt lat="41.6464490" lon="-8.7804770">
        <ele>40.1</ele>
        <time>2021-05-17T13:26:15Z</time>
      </trkpt>
      <trkpt lat="41.6464490" lon="-8.7804860">
        <ele>40.1</ele>
        <time>2021-05-17T13:26:16Z</time>
      </trkpt>
      <trkpt lat="41.6464560" lon="-8.7805090">
        <ele>40.1</ele>
        <time>2021-05-17T13:26:17Z</time>
      </trkpt>
      <trkpt lat="41.6464450" lon="-8.7805230">
        <ele>40.1</ele>
        <time>2021-05-17T13:26:18Z</time>
      </trkpt>
      <trkpt lat="41.6464510" lon="-8.7805440">
        <ele>40.0</ele>
        <time>2021-05-17T13:26:19Z</time>
      </trkpt>
      <trkpt lat="41.6464630" lon="-8.7805550">
        <ele>40.0</ele>
        <time>2021-05-17T13:26:20Z</time>
      </trkpt>
      <trkpt lat="41.6464630" lon="-8.7805710">
        <ele>40.0</ele>
        <time>2021-05-17T13:26:21Z</time>
      </trkpt>
      <trkpt lat="41.6464670" lon="-8.7805790">
        <ele>39.9</ele>
        <time>2021-05-17T13:26:22Z</time>
      </trkpt>
      <trkpt lat="41.6464700" lon="-8.7805930">
        <ele>39.9</ele>
        <time>2021-05-17T13:26:23Z</time>
      </trkpt>
      <trkpt lat="41.6464820" lon="-8.7806340">
        <ele>39.8</ele>
        <time>2021-05-17T13:26:24Z</time>
      </trkpt>
      <trkpt lat="41.6464840" lon="-8.7806440">
        <ele>39.8</ele>
        <time>2021-05-17T13:26:25Z</time>
      </trkpt>
      <trkpt lat="41.6464920" lon="-8.7806650">
        <ele>39.8</ele>
        <time>2021-05-17T13:26:26Z</time>
      </trkpt>
      <trkpt lat="41.6464930" lon="-8.7806890">
        <ele>39.7</ele>
        <time>2021-05-17T13:26:27Z</time>
      </trkpt>
      <trkpt lat="41.6464840" lon="-8.7807120">
        <ele>39.7</ele>
        <time>2021-05-17T13:26:28Z</time>
      </trkpt>
      <trkpt lat="41.6464850" lon="-8.7807350">
        <ele>39.7</ele>
        <time>2021-05-17T13:26:29Z</time>
      </trkpt>
      <trkpt lat="41.6464900" lon="-8.7807460">
        <ele>39.6</ele>
        <time>2021-05-17T13:26:30Z</time>
      </trkpt>
      <trkpt lat="41.6464900" lon="-8.7807550">
        <ele>39.6</ele>
        <time>2021-05-17T13:26:31Z</time>
      </trkpt>
      <trkpt lat="41.6464990" lon="-8.7807690">
        <ele>39.6</ele>
        <time>2021-05-17T13:26:32Z</time>
      </trkpt>
      <trkpt lat="41.6464990" lon="-8.7807760">
        <ele>39.5</ele>
        <time>2021-05-17T13:26:33Z</time>
      </trkpt>
      <trkpt lat="41.6465020" lon="-8.7807840">
        <ele>39.5</ele>
        <time>2021-05-17T13:26:34Z</time>
      </trkpt>
      <trkpt lat="41.6465030" lon="-8.7808050">
        <ele>39.4</ele>
        <time>2021-05-17T13:26:35Z</time>
      </trkpt>
      <trkpt lat="41.6465010" lon="-8.7808370">
        <ele>39.2</ele>
        <time>2021-05-17T13:26:36Z</time>
      </trkpt>
      <trkpt lat="41.6465010" lon="-8.7808490">
        <ele>39.2</ele>
        <time>2021-05-17T13:26:37Z</time>
      </trkpt>
      <trkpt lat="41.6465000" lon="-8.7808620">
        <ele>39.1</ele>
        <time>2021-05-17T13:26:38Z</time>
      </trkpt>
      <trkpt lat="41.6465000" lon="-8.7808660">
        <ele>39.1</ele>
        <time>2021-05-17T13:26:39Z</time>
      </trkpt>
      <trkpt lat="41.6464950" lon="-8.7808870">
        <ele>39.0</ele>
        <time>2021-05-17T13:26:40Z</time>
      </trkpt>
      <trkpt lat="41.6464980" lon="-8.7809080">
        <ele>38.9</ele>
        <time>2021-05-17T13:26:41Z</time>
      </trkpt>
      <trkpt lat="41.6465000" lon="-8.7809300">
        <ele>38.9</ele>
        <time>2021-05-17T13:26:42Z</time>
      </trkpt>
      <trkpt lat="41.6465030" lon="-8.7809290">
        <ele>38.8</ele>
        <time>2021-05-17T13:26:43Z</time>
      </trkpt>
      <trkpt lat="41.6465180" lon="-8.7809200">
        <ele>38.8</ele>
        <time>2021-05-17T13:26:44Z</time>
      </trkpt>
      <trkpt lat="41.6465220" lon="-8.7809330">
        <ele>38.7</ele>
        <time>2021-05-17T13:26:45Z</time>
      </trkpt>
      <trkpt lat="41.6465260" lon="-8.7809530">
        <ele>38.6</ele>
        <time>2021-05-17T13:26:46Z</time>
      </trkpt>
      <trkpt lat="41.6465220" lon="-8.7809800">
        <ele>38.5</ele>
        <time>2021-05-17T13:26:47Z</time>
      </trkpt>
      <trkpt lat="41.6465110" lon="-8.7810000">
        <ele>38.4</ele>
        <time>2021-05-17T13:26:48Z</time>
      </trkpt>
      <trkpt lat="41.6465100" lon="-8.7810130">
        <ele>38.4</ele>
        <time>2021-05-17T13:26:49Z</time>
      </trkpt>
      <trkpt lat="41.6465000" lon="-8.7810330">
        <ele>38.3</ele>
        <time>2021-05-17T13:26:50Z</time>
      </trkpt>
      <trkpt lat="41.6465000" lon="-8.7810550">
        <ele>38.3</ele>
        <time>2021-05-17T13:26:51Z</time>
      </trkpt>
      <trkpt lat="41.6464940" lon="-8.7810720">
        <ele>38.2</ele>
        <time>2021-05-17T13:26:52Z</time>
      </trkpt>
      <trkpt lat="41.6464840" lon="-8.7810860">
        <ele>38.1</ele>
        <time>2021-05-17T13:26:53Z</time>
      </trkpt>
      <trkpt lat="41.6464820" lon="-8.7811030">
        <ele>38.1</ele>
        <time>2021-05-17T13:26:54Z</time>
      </trkpt>
      <trkpt lat="41.6464830" lon="-8.7811120">
        <ele>38.1</ele>
        <time>2021-05-17T13:26:55Z</time>
      </trkpt>
      <trkpt lat="41.6464810" lon="-8.7811240">
        <ele>38.0</ele>
        <time>2021-05-17T13:26:56Z</time>
      </trkpt>
      <trkpt lat="41.6464790" lon="-8.7811360">
        <ele>38.0</ele>
        <time>2021-05-17T13:26:57Z</time>
      </trkpt>
      <trkpt lat="41.6464730" lon="-8.7811470">
        <ele>37.9</ele>
        <time>2021-05-17T13:26:58Z</time>
      </trkpt>
      <trkpt lat="41.6464690" lon="-8.7811590">
        <ele>37.9</ele>
        <time>2021-05-17T13:26:59Z</time>
      </trkpt>
      <trkpt lat="41.6464550" lon="-8.7811930">
        <ele>37.8</ele>
        <time>2021-05-17T13:27:00Z</time>
      </trkpt>
      <trkpt lat="41.6464490" lon="-8.7812180">
        <ele>37.7</ele>
        <time>2021-05-17T13:27:01Z</time>
      </trkpt>
      <trkpt lat="41.6464490" lon="-8.7812270">
        <ele>37.7</ele>
        <time>2021-05-17T13:27:02Z</time>
      </trkpt>
      <trkpt lat="41.6464480" lon="-8.7812360">
        <ele>37.7</ele>
        <time>2021-05-17T13:27:03Z</time>
      </trkpt>
      <trkpt lat="41.6464470" lon="-8.7812450">
        <ele>37.6</ele>
        <time>2021-05-17T13:27:04Z</time>
      </trkpt>
      <trkpt lat="41.6464450" lon="-8.7812580">
        <ele>37.6</ele>
        <time>2021-05-17T13:27:05Z</time>
      </trkpt>
      <trkpt lat="41.6464280" lon="-8.7812870">
        <ele>37.5</ele>
        <time>2021-05-17T13:27:06Z</time>
      </trkpt>
      <trkpt lat="41.6464290" lon="-8.7813010">
        <ele>37.5</ele>
        <time>2021-05-17T13:27:07Z</time>
      </trkpt>
      <trkpt lat="41.6464220" lon="-8.7813220">
        <ele>37.4</ele>
        <time>2021-05-17T13:27:08Z</time>
      </trkpt>
      <trkpt lat="41.6464210" lon="-8.7813480">
        <ele>37.3</ele>
        <time>2021-05-17T13:27:09Z</time>
      </trkpt>
      <trkpt lat="41.6464260" lon="-8.7813670">
        <ele>37.3</ele>
        <time>2021-05-17T13:27:10Z</time>
      </trkpt>
      <trkpt lat="41.6464190" lon="-8.7813870">
        <ele>37.2</ele>
        <time>2021-05-17T13:27:11Z</time>
      </trkpt>
      <trkpt lat="41.6464190" lon="-8.7814100">
        <ele>37.2</ele>
        <time>2021-05-17T13:27:12Z</time>
      </trkpt>
      <trkpt lat="41.6464160" lon="-8.7814310">
        <ele>37.1</ele>
        <time>2021-05-17T13:27:13Z</time>
      </trkpt>
      <trkpt lat="41.6464140" lon="-8.7814500">
        <ele>37.1</ele>
        <time>2021-05-17T13:27:14Z</time>
      </trkpt>
      <trkpt lat="41.6464100" lon="-8.7814670">
        <ele>37.0</ele>
        <time>2021-05-17T13:27:15Z</time>
      </trkpt>
      <trkpt lat="41.6464050" lon="-8.7814750">
        <ele>37.0</ele>
        <time>2021-05-17T13:27:16Z</time>
      </trkpt>
      <trkpt lat="41.6464000" lon="-8.7814940">
        <ele>36.9</ele>
        <time>2021-05-17T13:27:17Z</time>
      </trkpt>
      <trkpt lat="41.6463970" lon="-8.7815150">
        <ele>36.9</ele>
        <time>2021-05-17T13:27:18Z</time>
      </trkpt>
      <trkpt lat="41.6463950" lon="-8.7815280">
        <ele>36.8</ele>
        <time>2021-05-17T13:27:19Z</time>
      </trkpt>
      <trkpt lat="41.6463970" lon="-8.7815420">
        <ele>36.8</ele>
        <time>2021-05-17T13:27:21Z</time>
      </trkpt>
      <trkpt lat="41.6463970" lon="-8.7815600">
        <ele>36.7</ele>
        <time>2021-05-17T13:27:22Z</time>
      </trkpt>
      <trkpt lat="41.6463930" lon="-8.7815840">
        <ele>36.7</ele>
        <time>2021-05-17T13:27:23Z</time>
      </trkpt>
      <trkpt lat="41.6463900" lon="-8.7816040">
        <ele>36.6</ele>
        <time>2021-05-17T13:27:24Z</time>
      </trkpt>
      <trkpt lat="41.6463860" lon="-8.7816310">
        <ele>36.5</ele>
        <time>2021-05-17T13:27:25Z</time>
      </trkpt>
      <trkpt lat="41.6463800" lon="-8.7816480">
        <ele>36.5</ele>
        <time>2021-05-17T13:27:26Z</time>
      </trkpt>
      <trkpt lat="41.6463740" lon="-8.7816680">
        <ele>36.4</ele>
        <time>2021-05-17T13:27:27Z</time>
      </trkpt>
      <trkpt lat="41.6463680" lon="-8.7816860">
        <ele>36.3</ele>
        <time>2021-05-17T13:27:28Z</time>
      </trkpt>
      <trkpt lat="41.6463620" lon="-8.7817080">
        <ele>36.3</ele>
        <time>2021-05-17T13:27:29Z</time>
      </trkpt>
      <trkpt lat="41.6463560" lon="-8.7817250">
        <ele>36.2</ele>
        <time>2021-05-17T13:27:30Z</time>
      </trkpt>
      <trkpt lat="41.6463540" lon="-8.7817380">
        <ele>36.2</ele>
        <time>2021-05-17T13:27:31Z</time>
      </trkpt>
      <trkpt lat="41.6463530" lon="-8.7817470">
        <ele>36.2</ele>
        <time>2021-05-17T13:27:32Z</time>
      </trkpt>
      <trkpt lat="41.6463570" lon="-8.7817520">
        <ele>36.1</ele>
        <time>2021-05-17T13:27:33Z</time>
      </trkpt>
      <trkpt lat="41.6463510" lon="-8.7817600">
        <ele>36.1</ele>
        <time>2021-05-17T13:27:34Z</time>
      </trkpt>
      <trkpt lat="41.6463460" lon="-8.7817920">
        <ele>36.0</ele>
        <time>2021-05-17T13:27:35Z</time>
      </trkpt>
      <trkpt lat="41.6463510" lon="-8.7818230">
        <ele>36.0</ele>
        <time>2021-05-17T13:27:36Z</time>
      </trkpt>
      <trkpt lat="41.6463510" lon="-8.7818350">
        <ele>35.9</ele>
        <time>2021-05-17T13:27:37Z</time>
      </trkpt>
      <trkpt lat="41.6463520" lon="-8.7818470">
        <ele>35.9</ele>
        <time>2021-05-17T13:27:38Z</time>
      </trkpt>
      <trkpt lat="41.6463540" lon="-8.7818670">
        <ele>35.9</ele>
        <time>2021-05-17T13:27:39Z</time>
      </trkpt>
      <trkpt lat="41.6463530" lon="-8.7818920">
        <ele>35.8</ele>
        <time>2021-05-17T13:27:40Z</time>
      </trkpt>
      <trkpt lat="41.6463480" lon="-8.7819140">
        <ele>35.8</ele>
        <time>2021-05-17T13:27:41Z</time>
      </trkpt>
      <trkpt lat="41.6463500" lon="-8.7819320">
        <ele>35.7</ele>
        <time>2021-05-17T13:27:42Z</time>
      </trkpt>
      <trkpt lat="41.6463410" lon="-8.7819520">
        <ele>35.7</ele>
        <time>2021-05-17T13:27:43Z</time>
      </trkpt>
      <trkpt lat="41.6463370" lon="-8.7819700">
        <ele>35.6</ele>
        <time>2021-05-17T13:27:44Z</time>
      </trkpt>
      <trkpt lat="41.6463320" lon="-8.7819860">
        <ele>35.6</ele>
        <time>2021-05-17T13:27:45Z</time>
      </trkpt>
      <trkpt lat="41.6463290" lon="-8.7819990">
        <ele>35.6</ele>
        <time>2021-05-17T13:27:46Z</time>
      </trkpt>
      <trkpt lat="41.6463230" lon="-8.7820110">
        <ele>35.5</ele>
        <time>2021-05-17T13:27:47Z</time>
      </trkpt>
      <trkpt lat="41.6463240" lon="-8.7820430">
        <ele>35.5</ele>
        <time>2021-05-17T13:27:48Z</time>
      </trkpt>
      <trkpt lat="41.6463260" lon="-8.7820550">
        <ele>35.5</ele>
        <time>2021-05-17T13:27:49Z</time>
      </trkpt>
      <trkpt lat="41.6463280" lon="-8.7820660">
        <ele>35.4</ele>
        <time>2021-05-17T13:27:50Z</time>
      </trkpt>
      <trkpt lat="41.6463270" lon="-8.7821010">
        <ele>35.4</ele>
        <time>2021-05-17T13:27:51Z</time>
      </trkpt>
      <trkpt lat="41.6463250" lon="-8.7821150">
        <ele>35.4</ele>
        <time>2021-05-17T13:27:52Z</time>
      </trkpt>
      <trkpt lat="41.6463230" lon="-8.7821320">
        <ele>35.3</ele>
        <time>2021-05-17T13:27:53Z</time>
      </trkpt>
      <trkpt lat="41.6463270" lon="-8.7821570">
        <ele>35.3</ele>
        <time>2021-05-17T13:27:54Z</time>
      </trkpt>
      <trkpt lat="41.6463260" lon="-8.7821750">
        <ele>35.3</ele>
        <time>2021-05-17T13:27:55Z</time>
      </trkpt>
      <trkpt lat="41.6463250" lon="-8.7821940">
        <ele>35.1</ele>
        <time>2021-05-17T13:27:56Z</time>
      </trkpt>
      <trkpt lat="41.6463350" lon="-8.7822130">
        <ele>35.1</ele>
        <time>2021-05-17T13:27:57Z</time>
      </trkpt>
      <trkpt lat="41.6463440" lon="-8.7822320">
        <ele>35.0</ele>
        <time>2021-05-17T13:27:58Z</time>
      </trkpt>
      <trkpt lat="41.6463670" lon="-8.7822530">
        <ele>35.0</ele>
        <time>2021-05-17T13:27:59Z</time>
      </trkpt>
      <trkpt lat="41.6463780" lon="-8.7822570">
        <ele>35.0</ele>
        <time>2021-05-17T13:28:00Z</time>
      </trkpt>
      <trkpt lat="41.6464080" lon="-8.7822620">
        <ele>34.9</ele>
        <time>2021-05-17T13:28:01Z</time>
      </trkpt>
      <trkpt lat="41.6464180" lon="-8.7822630">
        <ele>34.9</ele>
        <time>2021-05-17T13:28:02Z</time>
      </trkpt>
      <trkpt lat="41.6464450" lon="-8.7822570">
        <ele>34.9</ele>
        <time>2021-05-17T13:28:03Z</time>
      </trkpt>
      <trkpt lat="41.6464540" lon="-8.7822540">
        <ele>34.9</ele>
        <time>2021-05-17T13:28:04Z</time>
      </trkpt>
      <trkpt lat="41.6464730" lon="-8.7822550">
        <ele>34.8</ele>
        <time>2021-05-17T13:28:05Z</time>
      </trkpt>
      <trkpt lat="41.6464870" lon="-8.7822560">
        <ele>34.8</ele>
        <time>2021-05-17T13:28:06Z</time>
      </trkpt>
      <trkpt lat="41.6465010" lon="-8.7822590">
        <ele>34.8</ele>
        <time>2021-05-17T13:28:07Z</time>
      </trkpt>
      <trkpt lat="41.6465190" lon="-8.7822550">
        <ele>34.8</ele>
        <time>2021-05-17T13:28:08Z</time>
      </trkpt>
      <trkpt lat="41.6465350" lon="-8.7822560">
        <ele>34.9</ele>
        <time>2021-05-17T13:28:09Z</time>
      </trkpt>
      <trkpt lat="41.6465520" lon="-8.7822520">
        <ele>34.9</ele>
        <time>2021-05-17T13:28:10Z</time>
      </trkpt>
      <trkpt lat="41.6465670" lon="-8.7822580">
        <ele>34.9</ele>
        <time>2021-05-17T13:28:11Z</time>
      </trkpt>
      <trkpt lat="41.6465840" lon="-8.7822480">
        <ele>34.9</ele>
        <time>2021-05-17T13:28:12Z</time>
      </trkpt>
      <trkpt lat="41.6465990" lon="-8.7822500">
        <ele>34.9</ele>
        <time>2021-05-17T13:28:13Z</time>
      </trkpt>
      <trkpt lat="41.6466150" lon="-8.7822540">
        <ele>34.9</ele>
        <time>2021-05-17T13:28:14Z</time>
      </trkpt>
      <trkpt lat="41.6466300" lon="-8.7822570">
        <ele>34.9</ele>
        <time>2021-05-17T13:28:15Z</time>
      </trkpt>
      <trkpt lat="41.6466430" lon="-8.7822620">
        <ele>34.9</ele>
        <time>2021-05-17T13:28:16Z</time>
      </trkpt>
      <trkpt lat="41.6466530" lon="-8.7822590">
        <ele>35.0</ele>
        <time>2021-05-17T13:28:17Z</time>
      </trkpt>
      <trkpt lat="41.6466620" lon="-8.7822580">
        <ele>35.0</ele>
        <time>2021-05-17T13:28:18Z</time>
      </trkpt>
      <trkpt lat="41.6466730" lon="-8.7822520">
        <ele>35.0</ele>
        <time>2021-05-17T13:28:19Z</time>
      </trkpt>
      <trkpt lat="41.6466860" lon="-8.7822530">
        <ele>35.0</ele>
        <time>2021-05-17T13:28:20Z</time>
      </trkpt>
      <trkpt lat="41.6466950" lon="-8.7822480">
        <ele>35.0</ele>
        <time>2021-05-17T13:28:21Z</time>
      </trkpt>
      <trkpt lat="41.6467090" lon="-8.7822430">
        <ele>35.0</ele>
        <time>2021-05-17T13:28:22Z</time>
      </trkpt>
      <trkpt lat="41.6467220" lon="-8.7822420">
        <ele>35.1</ele>
        <time>2021-05-17T13:28:23Z</time>
      </trkpt>
      <trkpt lat="41.6467360" lon="-8.7822480">
        <ele>35.1</ele>
        <time>2021-05-17T13:28:24Z</time>
      </trkpt>
      <trkpt lat="41.6467490" lon="-8.7822440">
        <ele>35.1</ele>
        <time>2021-05-17T13:28:25Z</time>
      </trkpt>
      <trkpt lat="41.6467640" lon="-8.7822440">
        <ele>35.1</ele>
        <time>2021-05-17T13:28:26Z</time>
      </trkpt>
      <trkpt lat="41.6467850" lon="-8.7822380">
        <ele>35.2</ele>
        <time>2021-05-17T13:28:27Z</time>
      </trkpt>
      <trkpt lat="41.6467920" lon="-8.7822350">
        <ele>35.2</ele>
        <time>2021-05-17T13:28:28Z</time>
      </trkpt>
      <trkpt lat="41.6468000" lon="-8.7822320">
        <ele>35.2</ele>
        <time>2021-05-17T13:28:29Z</time>
      </trkpt>
      <trkpt lat="41.6468100" lon="-8.7822340">
        <ele>35.2</ele>
        <time>2021-05-17T13:28:30Z</time>
      </trkpt>
      <trkpt lat="41.6468210" lon="-8.7822320">
        <ele>35.3</ele>
        <time>2021-05-17T13:28:31Z</time>
      </trkpt>
      <trkpt lat="41.6468330" lon="-8.7822350">
        <ele>35.3</ele>
        <time>2021-05-17T13:28:32Z</time>
      </trkpt>
      <trkpt lat="41.6468480" lon="-8.7822270">
        <ele>35.3</ele>
        <time>2021-05-17T13:28:33Z</time>
      </trkpt>
      <trkpt lat="41.6468600" lon="-8.7822220">
        <ele>35.3</ele>
        <time>2021-05-17T13:28:34Z</time>
      </trkpt>
      <trkpt lat="41.6468700" lon="-8.7822200">
        <ele>35.4</ele>
        <time>2021-05-17T13:28:35Z</time>
      </trkpt>
      <trkpt lat="41.6468790" lon="-8.7822230">
        <ele>35.4</ele>
        <time>2021-05-17T13:28:36Z</time>
      </trkpt>
      <trkpt lat="41.6468930" lon="-8.7822230">
        <ele>35.4</ele>
        <time>2021-05-17T13:28:37Z</time>
      </trkpt>
      <trkpt lat="41.6469010" lon="-8.7822260">
        <ele>35.4</ele>
        <time>2021-05-17T13:28:38Z</time>
      </trkpt>
      <trkpt lat="41.6469160" lon="-8.7822280">
        <ele>35.5</ele>
        <time>2021-05-17T13:28:39Z</time>
      </trkpt>
      <trkpt lat="41.6469250" lon="-8.7822250">
        <ele>35.5</ele>
        <time>2021-05-17T13:28:40Z</time>
      </trkpt>
      <trkpt lat="41.6469400" lon="-8.7822250">
        <ele>35.5</ele>
        <time>2021-05-17T13:28:41Z</time>
      </trkpt>
      <trkpt lat="41.6469540" lon="-8.7822270">
        <ele>35.5</ele>
        <time>2021-05-17T13:28:42Z</time>
      </trkpt>
      <trkpt lat="41.6469650" lon="-8.7822240">
        <ele>35.6</ele>
        <time>2021-05-17T13:28:43Z</time>
      </trkpt>
      <trkpt lat="41.6469810" lon="-8.7822310">
        <ele>35.6</ele>
        <time>2021-05-17T13:28:44Z</time>
      </trkpt>
      <trkpt lat="41.6470020" lon="-8.7822270">
        <ele>35.6</ele>
        <time>2021-05-17T13:28:45Z</time>
      </trkpt>
      <trkpt lat="41.6470110" lon="-8.7822340">
        <ele>35.7</ele>
        <time>2021-05-17T13:28:46Z</time>
      </trkpt>
      <trkpt lat="41.6470270" lon="-8.7822260">
        <ele>35.7</ele>
        <time>2021-05-17T13:28:47Z</time>
      </trkpt>
      <trkpt lat="41.6470390" lon="-8.7822340">
        <ele>35.7</ele>
        <time>2021-05-17T13:28:48Z</time>
      </trkpt>
      <trkpt lat="41.6470550" lon="-8.7822250">
        <ele>35.8</ele>
        <time>2021-05-17T13:28:49Z</time>
      </trkpt>
      <trkpt lat="41.6470700" lon="-8.7822220">
        <ele>35.8</ele>
        <time>2021-05-17T13:28:50Z</time>
      </trkpt>
      <trkpt lat="41.6470820" lon="-8.7822200">
        <ele>35.8</ele>
        <time>2021-05-17T13:28:51Z</time>
      </trkpt>
      <trkpt lat="41.6470980" lon="-8.7822130">
        <ele>35.9</ele>
        <time>2021-05-17T13:28:52Z</time>
      </trkpt>
      <trkpt lat="41.6471090" lon="-8.7822140">
        <ele>35.9</ele>
        <time>2021-05-17T13:28:53Z</time>
      </trkpt>
      <trkpt lat="41.6471270" lon="-8.7822050">
        <ele>35.9</ele>
        <time>2021-05-17T13:28:54Z</time>
      </trkpt>
      <trkpt lat="41.6471480" lon="-8.7822110">
        <ele>36.0</ele>
        <time>2021-05-17T13:28:55Z</time>
      </trkpt>
      <trkpt lat="41.6471570" lon="-8.7822080">
        <ele>36.0</ele>
        <time>2021-05-17T13:28:56Z</time>
      </trkpt>
      <trkpt lat="41.6471670" lon="-8.7822050">
        <ele>36.0</ele>
        <time>2021-05-17T13:28:57Z</time>
      </trkpt>
      <trkpt lat="41.6471830" lon="-8.7822030">
        <ele>36.0</ele>
        <time>2021-05-17T13:28:58Z</time>
      </trkpt>
      <trkpt lat="41.6472010" lon="-8.7822030">
        <ele>36.1</ele>
        <time>2021-05-17T13:28:59Z</time>
      </trkpt>
      <trkpt lat="41.6472170" lon="-8.7821990">
        <ele>36.1</ele>
        <time>2021-05-17T13:29:00Z</time>
      </trkpt>
      <trkpt lat="41.6472300" lon="-8.7821970">
        <ele>36.2</ele>
        <time>2021-05-17T13:29:01Z</time>
      </trkpt>
      <trkpt lat="41.6472450" lon="-8.7821970">
        <ele>36.2</ele>
        <time>2021-05-17T13:29:02Z</time>
      </trkpt>
      <trkpt lat="41.6472590" lon="-8.7822000">
        <ele>36.2</ele>
        <time>2021-05-17T13:29:03Z</time>
      </trkpt>
      <trkpt lat="41.6472750" lon="-8.7822000">
        <ele>36.3</ele>
        <time>2021-05-17T13:29:04Z</time>
      </trkpt>
      <trkpt lat="41.6472810" lon="-8.7822000">
        <ele>36.3</ele>
        <time>2021-05-17T13:29:05Z</time>
      </trkpt>
      <trkpt lat="41.6472900" lon="-8.7822110">
        <ele>36.3</ele>
        <time>2021-05-17T13:29:06Z</time>
      </trkpt>
      <trkpt lat="41.6473100" lon="-8.7822040">
        <ele>36.4</ele>
        <time>2021-05-17T13:29:07Z</time>
      </trkpt>
      <trkpt lat="41.6473240" lon="-8.7822040">
        <ele>36.4</ele>
        <time>2021-05-17T13:29:08Z</time>
      </trkpt>
      <trkpt lat="41.6473490" lon="-8.7822050">
        <ele>36.5</ele>
        <time>2021-05-17T13:29:09Z</time>
      </trkpt>
      <trkpt lat="41.6473580" lon="-8.7822090">
        <ele>36.5</ele>
        <time>2021-05-17T13:29:10Z</time>
      </trkpt>
      <trkpt lat="41.6473680" lon="-8.7822120">
        <ele>36.6</ele>
        <time>2021-05-17T13:29:11Z</time>
      </trkpt>
      <trkpt lat="41.6473810" lon="-8.7822130">
        <ele>36.6</ele>
        <time>2021-05-17T13:29:12Z</time>
      </trkpt>
      <trkpt lat="41.6473970" lon="-8.7822110">
        <ele>36.7</ele>
        <time>2021-05-17T13:29:13Z</time>
      </trkpt>
      <trkpt lat="41.6474060" lon="-8.7822120">
        <ele>36.7</ele>
        <time>2021-05-17T13:29:14Z</time>
      </trkpt>
      <trkpt lat="41.6474200" lon="-8.7822110">
        <ele>36.7</ele>
        <time>2021-05-17T13:29:15Z</time>
      </trkpt>
      <trkpt lat="41.6474310" lon="-8.7822150">
        <ele>36.8</ele>
        <time>2021-05-17T13:29:16Z</time>
      </trkpt>
      <trkpt lat="41.6474510" lon="-8.7822200">
        <ele>36.9</ele>
        <time>2021-05-17T13:29:17Z</time>
      </trkpt>
      <trkpt lat="41.6474650" lon="-8.7822270">
        <ele>36.9</ele>
        <time>2021-05-17T13:29:18Z</time>
      </trkpt>
      <trkpt lat="41.6474840" lon="-8.7822330">
        <ele>37.0</ele>
        <time>2021-05-17T13:29:19Z</time>
      </trkpt>
      <trkpt lat="41.6474960" lon="-8.7822440">
        <ele>37.0</ele>
        <time>2021-05-17T13:29:20Z</time>
      </trkpt>
      <trkpt lat="41.6475120" lon="-8.7822390">
        <ele>37.1</ele>
        <time>2021-05-17T13:29:21Z</time>
      </trkpt>
      <trkpt lat="41.6475240" lon="-8.7822510">
        <ele>37.1</ele>
        <time>2021-05-17T13:29:22Z</time>
      </trkpt>
      <trkpt lat="41.6475320" lon="-8.7822540">
        <ele>37.2</ele>
        <time>2021-05-17T13:29:23Z</time>
      </trkpt>
      <trkpt lat="41.6475430" lon="-8.7822560">
        <ele>37.2</ele>
        <time>2021-05-17T13:29:24Z</time>
      </trkpt>
      <trkpt lat="41.6475590" lon="-8.7822620">
        <ele>37.3</ele>
        <time>2021-05-17T13:29:25Z</time>
      </trkpt>
      <trkpt lat="41.6475750" lon="-8.7822650">
        <ele>37.3</ele>
        <time>2021-05-17T13:29:26Z</time>
      </trkpt>
      <trkpt lat="41.6475940" lon="-8.7822730">
        <ele>37.4</ele>
        <time>2021-05-17T13:29:27Z</time>
      </trkpt>
      <trkpt lat="41.6476100" lon="-8.7822840">
        <ele>37.5</ele>
        <time>2021-05-17T13:29:28Z</time>
      </trkpt>
      <trkpt lat="41.6476240" lon="-8.7822890">
        <ele>37.5</ele>
        <time>2021-05-17T13:29:29Z</time>
      </trkpt>
      <trkpt lat="41.6476330" lon="-8.7822900">
        <ele>37.6</ele>
        <time>2021-05-17T13:29:30Z</time>
      </trkpt>
      <trkpt lat="41.6476370" lon="-8.7823000">
        <ele>37.6</ele>
        <time>2021-05-17T13:29:31Z</time>
      </trkpt>
      <trkpt lat="41.6476540" lon="-8.7823060">
        <ele>37.6</ele>
        <time>2021-05-17T13:29:32Z</time>
      </trkpt>
      <trkpt lat="41.6476630" lon="-8.7823140">
        <ele>37.7</ele>
        <time>2021-05-17T13:29:33Z</time>
      </trkpt>
      <trkpt lat="41.6476770" lon="-8.7823270">
        <ele>37.7</ele>
        <time>2021-05-17T13:29:34Z</time>
      </trkpt>
      <trkpt lat="41.6476910" lon="-8.7823320">
        <ele>37.8</ele>
        <time>2021-05-17T13:29:35Z</time>
      </trkpt>
      <trkpt lat="41.6476990" lon="-8.7823410">
        <ele>37.8</ele>
        <time>2021-05-17T13:29:36Z</time>
      </trkpt>
      <trkpt lat="41.6477030" lon="-8.7823480">
        <ele>37.8</ele>
        <time>2021-05-17T13:29:37Z</time>
      </trkpt>
      <trkpt lat="41.6477160" lon="-8.7823530">
        <ele>37.9</ele>
        <time>2021-05-17T13:29:38Z</time>
      </trkpt>
      <trkpt lat="41.6477310" lon="-8.7823490">
        <ele>37.9</ele>
        <time>2021-05-17T13:29:39Z</time>
      </trkpt>
      <trkpt lat="41.6477430" lon="-8.7823460">
        <ele>38.0</ele>
        <time>2021-05-17T13:29:40Z</time>
      </trkpt>
      <trkpt lat="41.6477460" lon="-8.7823400">
        <ele>38.0</ele>
        <time>2021-05-17T13:29:41Z</time>
      </trkpt>
      <trkpt lat="41.6477570" lon="-8.7823330">
        <ele>38.0</ele>
        <time>2021-05-17T13:29:42Z</time>
      </trkpt>
      <trkpt lat="41.6477660" lon="-8.7823330">
        <ele>38.0</ele>
        <time>2021-05-17T13:29:43Z</time>
      </trkpt>
      <trkpt lat="41.6477770" lon="-8.7823340">
        <ele>38.1</ele>
        <time>2021-05-17T13:29:44Z</time>
      </trkpt>
      <trkpt lat="41.6477930" lon="-8.7823270">
        <ele>38.1</ele>
        <time>2021-05-17T13:29:45Z</time>
      </trkpt>
      <trkpt lat="41.6478050" lon="-8.7823330">
        <ele>38.2</ele>
        <time>2021-05-17T13:29:46Z</time>
      </trkpt>
      <trkpt lat="41.6478210" lon="-8.7823320">
        <ele>38.2</ele>
        <time>2021-05-17T13:29:47Z</time>
      </trkpt>
      <trkpt lat="41.6478370" lon="-8.7823160">
        <ele>38.3</ele>
        <time>2021-05-17T13:29:48Z</time>
      </trkpt>
      <trkpt lat="41.6478480" lon="-8.7823090">
        <ele>38.3</ele>
        <time>2021-05-17T13:29:49Z</time>
      </trkpt>
      <trkpt lat="41.6478480" lon="-8.7823010">
        <ele>38.3</ele>
        <time>2021-05-17T13:29:50Z</time>
      </trkpt>
      <trkpt lat="41.6478610" lon="-8.7822910">
        <ele>38.3</ele>
        <time>2021-05-17T13:29:51Z</time>
      </trkpt>
      <trkpt lat="41.6478650" lon="-8.7822900">
        <ele>38.3</ele>
        <time>2021-05-17T13:29:52Z</time>
      </trkpt>
      <trkpt lat="41.6478710" lon="-8.7822800">
        <ele>38.3</ele>
        <time>2021-05-17T13:29:53Z</time>
      </trkpt>
      <trkpt lat="41.6478750" lon="-8.7822730">
        <ele>38.3</ele>
        <time>2021-05-17T13:29:54Z</time>
      </trkpt>
      <trkpt lat="41.6478860" lon="-8.7822670">
        <ele>38.3</ele>
        <time>2021-05-17T13:29:55Z</time>
      </trkpt>
      <trkpt lat="41.6478980" lon="-8.7822660">
        <ele>38.3</ele>
        <time>2021-05-17T13:29:56Z</time>
      </trkpt>
      <trkpt lat="41.6479030" lon="-8.7822640">
        <ele>38.3</ele>
        <time>2021-05-17T13:29:57Z</time>
      </trkpt>
      <trkpt lat="41.6479070" lon="-8.7822600">
        <ele>38.3</ele>
        <time>2021-05-17T13:29:58Z</time>
      </trkpt>
      <trkpt lat="41.6479160" lon="-8.7822440">
        <ele>38.3</ele>
        <time>2021-05-17T13:29:59Z</time>
      </trkpt>
      <trkpt lat="41.6479220" lon="-8.7822470">
        <ele>38.3</ele>
        <time>2021-05-17T13:30:00Z</time>
      </trkpt>
      <trkpt lat="41.6479340" lon="-8.7822400">
        <ele>38.3</ele>
        <time>2021-05-17T13:30:01Z</time>
      </trkpt>
      <trkpt lat="41.6479510" lon="-8.7822240">
        <ele>38.3</ele>
        <time>2021-05-17T13:30:02Z</time>
      </trkpt>
      <trkpt lat="41.6479660" lon="-8.7822030">
        <ele>38.3</ele>
        <time>2021-05-17T13:30:03Z</time>
      </trkpt>
      <trkpt lat="41.6479710" lon="-8.7821930">
        <ele>38.3</ele>
        <time>2021-05-17T13:30:04Z</time>
      </trkpt>
      <trkpt lat="41.6479760" lon="-8.7821840">
        <ele>38.3</ele>
        <time>2021-05-17T13:30:05Z</time>
      </trkpt>
      <trkpt lat="41.6479850" lon="-8.7821530">
        <ele>38.3</ele>
        <time>2021-05-17T13:30:06Z</time>
      </trkpt>
      <trkpt lat="41.6479930" lon="-8.7821480">
        <ele>38.3</ele>
        <time>2021-05-17T13:30:07Z</time>
      </trkpt>
      <trkpt lat="41.6480000" lon="-8.7821420">
        <ele>38.3</ele>
        <time>2021-05-17T13:30:08Z</time>
      </trkpt>
      <trkpt lat="41.6480060" lon="-8.7821370">
        <ele>38.3</ele>
        <time>2021-05-17T13:30:09Z</time>
      </trkpt>
      <trkpt lat="41.6480210" lon="-8.7821230">
        <ele>38.3</ele>
        <time>2021-05-17T13:30:10Z</time>
      </trkpt>
      <trkpt lat="41.6480270" lon="-8.7821140">
        <ele>38.3</ele>
        <time>2021-05-17T13:30:11Z</time>
      </trkpt>
      <trkpt lat="41.6480420" lon="-8.7820990">
        <ele>38.3</ele>
        <time>2021-05-17T13:30:12Z</time>
      </trkpt>
      <trkpt lat="41.6480540" lon="-8.7820950">
        <ele>38.3</ele>
        <time>2021-05-17T13:30:13Z</time>
      </trkpt>
      <trkpt lat="41.6480780" lon="-8.7820830">
        <ele>38.3</ele>
        <time>2021-05-17T13:30:14Z</time>
      </trkpt>
      <trkpt lat="41.6480890" lon="-8.7820770">
        <ele>38.3</ele>
        <time>2021-05-17T13:30:15Z</time>
      </trkpt>
      <trkpt lat="41.6481000" lon="-8.7820730">
        <ele>38.3</ele>
        <time>2021-05-17T13:30:16Z</time>
      </trkpt>
      <trkpt lat="41.6481150" lon="-8.7820670">
        <ele>38.3</ele>
        <time>2021-05-17T13:30:17Z</time>
      </trkpt>
      <trkpt lat="41.6481370" lon="-8.7820550">
        <ele>38.2</ele>
        <time>2021-05-17T13:30:18Z</time>
      </trkpt>
      <trkpt lat="41.6481450" lon="-8.7820510">
        <ele>38.2</ele>
        <time>2021-05-17T13:30:19Z</time>
      </trkpt>
      <trkpt lat="41.6481520" lon="-8.7820470">
        <ele>38.2</ele>
        <time>2021-05-17T13:30:20Z</time>
      </trkpt>
      <trkpt lat="41.6481690" lon="-8.7820370">
        <ele>38.2</ele>
        <time>2021-05-17T13:30:21Z</time>
      </trkpt>
      <trkpt lat="41.6481790" lon="-8.7820290">
        <ele>38.2</ele>
        <time>2021-05-17T13:30:22Z</time>
      </trkpt>
      <trkpt lat="41.6481890" lon="-8.7820210">
        <ele>38.2</ele>
        <time>2021-05-17T13:30:23Z</time>
      </trkpt>
      <trkpt lat="41.6482070" lon="-8.7820130">
        <ele>38.2</ele>
        <time>2021-05-17T13:30:24Z</time>
      </trkpt>
      <trkpt lat="41.6482220" lon="-8.7820020">
        <ele>38.2</ele>
        <time>2021-05-17T13:30:25Z</time>
      </trkpt>
      <trkpt lat="41.6482380" lon="-8.7819960">
        <ele>38.2</ele>
        <time>2021-05-17T13:30:26Z</time>
      </trkpt>
      <trkpt lat="41.6482530" lon="-8.7819890">
        <ele>38.2</ele>
        <time>2021-05-17T13:30:27Z</time>
      </trkpt>
      <trkpt lat="41.6482670" lon="-8.7819850">
        <ele>38.2</ele>
        <time>2021-05-17T13:30:28Z</time>
      </trkpt>
      <trkpt lat="41.6482810" lon="-8.7819730">
        <ele>38.2</ele>
        <time>2021-05-17T13:30:29Z</time>
      </trkpt>
      <trkpt lat="41.6483020" lon="-8.7819700">
        <ele>38.2</ele>
        <time>2021-05-17T13:30:30Z</time>
      </trkpt>
      <trkpt lat="41.6483100" lon="-8.7819630">
        <ele>38.2</ele>
        <time>2021-05-17T13:30:31Z</time>
      </trkpt>
      <trkpt lat="41.6483190" lon="-8.7819550">
        <ele>38.2</ele>
        <time>2021-05-17T13:30:32Z</time>
      </trkpt>
      <trkpt lat="41.6483340" lon="-8.7819520">
        <ele>38.2</ele>
        <time>2021-05-17T13:30:33Z</time>
      </trkpt>
      <trkpt lat="41.6483520" lon="-8.7819550">
        <ele>38.2</ele>
        <time>2021-05-17T13:30:34Z</time>
      </trkpt>
      <trkpt lat="41.6483670" lon="-8.7819450">
        <ele>38.1</ele>
        <time>2021-05-17T13:30:35Z</time>
      </trkpt>
      <trkpt lat="41.6483810" lon="-8.7819310">
        <ele>38.1</ele>
        <time>2021-05-17T13:30:36Z</time>
      </trkpt>
      <trkpt lat="41.6483960" lon="-8.7819260">
        <ele>38.1</ele>
        <time>2021-05-17T13:30:37Z</time>
      </trkpt>
      <trkpt lat="41.6484120" lon="-8.7819180">
        <ele>38.1</ele>
        <time>2021-05-17T13:30:38Z</time>
      </trkpt>
      <trkpt lat="41.6484270" lon="-8.7819110">
        <ele>38.1</ele>
        <time>2021-05-17T13:30:39Z</time>
      </trkpt>
      <trkpt lat="41.6484420" lon="-8.7818960">
        <ele>38.1</ele>
        <time>2021-05-17T13:30:40Z</time>
      </trkpt>
      <trkpt lat="41.6484550" lon="-8.7818820">
        <ele>38.1</ele>
        <time>2021-05-17T13:30:41Z</time>
      </trkpt>
      <trkpt lat="41.6484670" lon="-8.7818670">
        <ele>38.1</ele>
        <time>2021-05-17T13:30:42Z</time>
      </trkpt>
      <trkpt lat="41.6484810" lon="-8.7818560">
        <ele>38.0</ele>
        <time>2021-05-17T13:30:43Z</time>
      </trkpt>
      <trkpt lat="41.6484950" lon="-8.7818450">
        <ele>38.0</ele>
        <time>2021-05-17T13:30:44Z</time>
      </trkpt>
      <trkpt lat="41.6485100" lon="-8.7818380">
        <ele>38.0</ele>
        <time>2021-05-17T13:30:45Z</time>
      </trkpt>
      <trkpt lat="41.6485240" lon="-8.7818320">
        <ele>38.0</ele>
        <time>2021-05-17T13:30:46Z</time>
      </trkpt>
      <trkpt lat="41.6485400" lon="-8.7818250">
        <ele>38.0</ele>
        <time>2021-05-17T13:30:47Z</time>
      </trkpt>
      <trkpt lat="41.6485520" lon="-8.7818250">
        <ele>38.0</ele>
        <time>2021-05-17T13:30:48Z</time>
      </trkpt>
      <trkpt lat="41.6485550" lon="-8.7818160">
        <ele>38.0</ele>
        <time>2021-05-17T13:30:49Z</time>
      </trkpt>
      <trkpt lat="41.6485620" lon="-8.7818130">
        <ele>37.9</ele>
        <time>2021-05-17T13:30:50Z</time>
      </trkpt>
      <trkpt lat="41.6485700" lon="-8.7818050">
        <ele>37.9</ele>
        <time>2021-05-17T13:30:51Z</time>
      </trkpt>
      <trkpt lat="41.6485810" lon="-8.7818010">
        <ele>37.9</ele>
        <time>2021-05-17T13:30:52Z</time>
      </trkpt>
      <trkpt lat="41.6485890" lon="-8.7817920">
        <ele>37.9</ele>
        <time>2021-05-17T13:30:53Z</time>
      </trkpt>
      <trkpt lat="41.6485950" lon="-8.7817850">
        <ele>37.9</ele>
        <time>2021-05-17T13:30:54Z</time>
      </trkpt>
      <trkpt lat="41.6486040" lon="-8.7817810">
        <ele>37.9</ele>
        <time>2021-05-17T13:30:55Z</time>
      </trkpt>
      <trkpt lat="41.6486150" lon="-8.7817700">
        <ele>37.9</ele>
        <time>2021-05-17T13:30:56Z</time>
      </trkpt>
      <trkpt lat="41.6486200" lon="-8.7817590">
        <ele>37.9</ele>
        <time>2021-05-17T13:30:57Z</time>
      </trkpt>
      <trkpt lat="41.6486280" lon="-8.7817480">
        <ele>37.9</ele>
        <time>2021-05-17T13:30:58Z</time>
      </trkpt>
      <trkpt lat="41.6486310" lon="-8.7817370">
        <ele>37.8</ele>
        <time>2021-05-17T13:30:59Z</time>
      </trkpt>
      <trkpt lat="41.6486380" lon="-8.7817280">
        <ele>37.8</ele>
        <time>2021-05-17T13:31:00Z</time>
      </trkpt>
      <trkpt lat="41.6486550" lon="-8.7817190">
        <ele>37.8</ele>
        <time>2021-05-17T13:31:01Z</time>
      </trkpt>
      <trkpt lat="41.6486760" lon="-8.7817120">
        <ele>37.7</ele>
        <time>2021-05-17T13:31:02Z</time>
      </trkpt>
      <trkpt lat="41.6486850" lon="-8.7817110">
        <ele>37.7</ele>
        <time>2021-05-17T13:31:03Z</time>
      </trkpt>
      <trkpt lat="41.6486930" lon="-8.7817100">
        <ele>37.6</ele>
        <time>2021-05-17T13:31:04Z</time>
      </trkpt>
      <trkpt lat="41.6487110" lon="-8.7817020">
        <ele>37.6</ele>
        <time>2021-05-17T13:31:05Z</time>
      </trkpt>
      <trkpt lat="41.6487200" lon="-8.7816990">
        <ele>37.5</ele>
        <time>2021-05-17T13:31:06Z</time>
      </trkpt>
      <trkpt lat="41.6487300" lon="-8.7816950">
        <ele>37.5</ele>
        <time>2021-05-17T13:31:07Z</time>
      </trkpt>
      <trkpt lat="41.6487370" lon="-8.7816970">
        <ele>37.4</ele>
        <time>2021-05-17T13:31:08Z</time>
      </trkpt>
      <trkpt lat="41.6487420" lon="-8.7817010">
        <ele>37.4</ele>
        <time>2021-05-17T13:31:09Z</time>
      </trkpt>
      <trkpt lat="41.6487580" lon="-8.7817000">
        <ele>37.4</ele>
        <time>2021-05-17T13:31:10Z</time>
      </trkpt>
      <trkpt lat="41.6487810" lon="-8.7817060">
        <ele>37.3</ele>
        <time>2021-05-17T13:31:11Z</time>
      </trkpt>
      <trkpt lat="41.6487890" lon="-8.7817070">
        <ele>37.2</ele>
        <time>2021-05-17T13:31:12Z</time>
      </trkpt>
      <trkpt lat="41.6487970" lon="-8.7817090">
        <ele>37.2</ele>
        <time>2021-05-17T13:31:13Z</time>
      </trkpt>
      <trkpt lat="41.6488130" lon="-8.7817110">
        <ele>37.1</ele>
        <time>2021-05-17T13:31:14Z</time>
      </trkpt>
      <trkpt lat="41.6488320" lon="-8.7817120">
        <ele>37.1</ele>
        <time>2021-05-17T13:31:15Z</time>
      </trkpt>
      <trkpt lat="41.6488400" lon="-8.7817190">
        <ele>37.0</ele>
        <time>2021-05-17T13:31:16Z</time>
      </trkpt>
      <trkpt lat="41.6488600" lon="-8.7817210">
        <ele>36.9</ele>
        <time>2021-05-17T13:31:17Z</time>
      </trkpt>
      <trkpt lat="41.6488810" lon="-8.7817260">
        <ele>36.9</ele>
        <time>2021-05-17T13:31:18Z</time>
      </trkpt>
      <trkpt lat="41.6488880" lon="-8.7817280">
        <ele>36.8</ele>
        <time>2021-05-17T13:31:19Z</time>
      </trkpt>
      <trkpt lat="41.6488960" lon="-8.7817300">
        <ele>36.8</ele>
        <time>2021-05-17T13:31:20Z</time>
      </trkpt>
      <trkpt lat="41.6489140" lon="-8.7817330">
        <ele>36.8</ele>
        <time>2021-05-17T13:31:21Z</time>
      </trkpt>
      <trkpt lat="41.6489280" lon="-8.7817350">
        <ele>36.7</ele>
        <time>2021-05-17T13:31:22Z</time>
      </trkpt>
      <trkpt lat="41.6489380" lon="-8.7817260">
        <ele>36.7</ele>
        <time>2021-05-17T13:31:23Z</time>
      </trkpt>
      <trkpt lat="41.6489560" lon="-8.7817290">
        <ele>36.6</ele>
        <time>2021-05-17T13:31:24Z</time>
      </trkpt>
      <trkpt lat="41.6489740" lon="-8.7817240">
        <ele>36.5</ele>
        <time>2021-05-17T13:31:25Z</time>
      </trkpt>
      <trkpt lat="41.6489860" lon="-8.7817290">
        <ele>36.5</ele>
        <time>2021-05-17T13:31:26Z</time>
      </trkpt>
      <trkpt lat="41.6489980" lon="-8.7817220">
        <ele>36.4</ele>
        <time>2021-05-17T13:31:27Z</time>
      </trkpt>
      <trkpt lat="41.6490060" lon="-8.7817250">
        <ele>36.4</ele>
        <time>2021-05-17T13:31:28Z</time>
      </trkpt>
      <trkpt lat="41.6490180" lon="-8.7817250">
        <ele>36.4</ele>
        <time>2021-05-17T13:31:29Z</time>
      </trkpt>
      <trkpt lat="41.6490410" lon="-8.7817200">
        <ele>36.3</ele>
        <time>2021-05-17T13:31:30Z</time>
      </trkpt>
      <trkpt lat="41.6490480" lon="-8.7817220">
        <ele>36.3</ele>
        <time>2021-05-17T13:31:31Z</time>
      </trkpt>
      <trkpt lat="41.6490560" lon="-8.7817230">
        <ele>36.2</ele>
        <time>2021-05-17T13:31:32Z</time>
      </trkpt>
      <trkpt lat="41.6490650" lon="-8.7817240">
        <ele>36.2</ele>
        <time>2021-05-17T13:31:33Z</time>
      </trkpt>
      <trkpt lat="41.6490740" lon="-8.7817210">
        <ele>36.2</ele>
        <time>2021-05-17T13:31:34Z</time>
      </trkpt>
      <trkpt lat="41.6490860" lon="-8.7817180">
        <ele>36.1</ele>
        <time>2021-05-17T13:31:35Z</time>
      </trkpt>
      <trkpt lat="41.6491030" lon="-8.7817060">
        <ele>36.1</ele>
        <time>2021-05-17T13:31:36Z</time>
      </trkpt>
      <trkpt lat="41.6491070" lon="-8.7817010">
        <ele>36.0</ele>
        <time>2021-05-17T13:31:37Z</time>
      </trkpt>
      <trkpt lat="41.6491160" lon="-8.7817000">
        <ele>36.0</ele>
        <time>2021-05-17T13:31:38Z</time>
      </trkpt>
      <trkpt lat="41.6491320" lon="-8.7817030">
        <ele>36.0</ele>
        <time>2021-05-17T13:31:39Z</time>
      </trkpt>
      <trkpt lat="41.6491420" lon="-8.7817040">
        <ele>35.9</ele>
        <time>2021-05-17T13:31:40Z</time>
      </trkpt>
      <trkpt lat="41.6491490" lon="-8.7817090">
        <ele>35.9</ele>
        <time>2021-05-17T13:31:41Z</time>
      </trkpt>
      <trkpt lat="41.6491620" lon="-8.7817090">
        <ele>35.9</ele>
        <time>2021-05-17T13:31:42Z</time>
      </trkpt>
      <trkpt lat="41.6491740" lon="-8.7817080">
        <ele>35.8</ele>
        <time>2021-05-17T13:31:43Z</time>
      </trkpt>
      <trkpt lat="41.6491810" lon="-8.7817130">
        <ele>35.8</ele>
        <time>2021-05-17T13:31:44Z</time>
      </trkpt>
      <trkpt lat="41.6492010" lon="-8.7817200">
        <ele>35.7</ele>
        <time>2021-05-17T13:31:45Z</time>
      </trkpt>
      <trkpt lat="41.6492120" lon="-8.7817220">
        <ele>35.7</ele>
        <time>2021-05-17T13:31:46Z</time>
      </trkpt>
      <trkpt lat="41.6492220" lon="-8.7817230">
        <ele>35.7</ele>
        <time>2021-05-17T13:31:47Z</time>
      </trkpt>
      <trkpt lat="41.6492380" lon="-8.7817440">
        <ele>35.6</ele>
        <time>2021-05-17T13:31:48Z</time>
      </trkpt>
      <trkpt lat="41.6492460" lon="-8.7817520">
        <ele>35.6</ele>
        <time>2021-05-17T13:31:49Z</time>
      </trkpt>
      <trkpt lat="41.6492530" lon="-8.7817600">
        <ele>35.6</ele>
        <time>2021-05-17T13:31:50Z</time>
      </trkpt>
      <trkpt lat="41.6492610" lon="-8.7817710">
        <ele>35.5</ele>
        <time>2021-05-17T13:31:51Z</time>
      </trkpt>
      <trkpt lat="41.6492700" lon="-8.7817870">
        <ele>35.5</ele>
        <time>2021-05-17T13:31:52Z</time>
      </trkpt>
      <trkpt lat="41.6492750" lon="-8.7817910">
        <ele>35.5</ele>
        <time>2021-05-17T13:31:53Z</time>
      </trkpt>
      <trkpt lat="41.6492970" lon="-8.7817970">
        <ele>35.4</ele>
        <time>2021-05-17T13:31:54Z</time>
      </trkpt>
      <trkpt lat="41.6493060" lon="-8.7817990">
        <ele>35.4</ele>
        <time>2021-05-17T13:31:55Z</time>
      </trkpt>
      <trkpt lat="41.6493140" lon="-8.7818010">
        <ele>35.4</ele>
        <time>2021-05-17T13:31:56Z</time>
      </trkpt>
      <trkpt lat="41.6493430" lon="-8.7818110">
        <ele>35.3</ele>
        <time>2021-05-17T13:31:57Z</time>
      </trkpt>
      <trkpt lat="41.6493520" lon="-8.7818150">
        <ele>35.3</ele>
        <time>2021-05-17T13:31:58Z</time>
      </trkpt>
      <trkpt lat="41.6493660" lon="-8.7818200">
        <ele>34.8</ele>
        <time>2021-05-17T13:31:59Z</time>
      </trkpt>
      <trkpt lat="41.6493800" lon="-8.7818420">
        <ele>34.8</ele>
        <time>2021-05-17T13:32:00Z</time>
      </trkpt>
      <trkpt lat="41.6493880" lon="-8.7818590">
        <ele>34.7</ele>
        <time>2021-05-17T13:32:01Z</time>
      </trkpt>
      <trkpt lat="41.6493980" lon="-8.7818750">
        <ele>34.7</ele>
        <time>2021-05-17T13:32:02Z</time>
      </trkpt>
      <trkpt lat="41.6494030" lon="-8.7818940">
        <ele>34.7</ele>
        <time>2021-05-17T13:32:03Z</time>
      </trkpt>
      <trkpt lat="41.6494010" lon="-8.7819110">
        <ele>34.7</ele>
        <time>2021-05-17T13:32:04Z</time>
      </trkpt>
      <trkpt lat="41.6493940" lon="-8.7819390">
        <ele>34.7</ele>
        <time>2021-05-17T13:32:05Z</time>
      </trkpt>
      <trkpt lat="41.6493920" lon="-8.7819490">
        <ele>34.7</ele>
        <time>2021-05-17T13:32:06Z</time>
      </trkpt>
      <trkpt lat="41.6493890" lon="-8.7819580">
        <ele>34.7</ele>
        <time>2021-05-17T13:32:07Z</time>
      </trkpt>
      <trkpt lat="41.6493890" lon="-8.7819700">
        <ele>34.7</ele>
        <time>2021-05-17T13:32:08Z</time>
      </trkpt>
      <trkpt lat="41.6493870" lon="-8.7819850">
        <ele>34.6</ele>
        <time>2021-05-17T13:32:09Z</time>
      </trkpt>
      <trkpt lat="41.6493850" lon="-8.7819990">
        <ele>34.6</ele>
        <time>2021-05-17T13:32:10Z</time>
      </trkpt>
      <trkpt lat="41.6493800" lon="-8.7820180">
        <ele>34.6</ele>
        <time>2021-05-17T13:32:11Z</time>
      </trkpt>
      <trkpt lat="41.6493780" lon="-8.7820340">
        <ele>34.6</ele>
        <time>2021-05-17T13:32:12Z</time>
      </trkpt>
      <trkpt lat="41.6493760" lon="-8.7820440">
        <ele>34.6</ele>
        <time>2021-05-17T13:32:13Z</time>
      </trkpt>
      <trkpt lat="41.6493730" lon="-8.7820590">
        <ele>34.6</ele>
        <time>2021-05-17T13:32:14Z</time>
      </trkpt>
      <trkpt lat="41.6493760" lon="-8.7820760">
        <ele>34.6</ele>
        <time>2021-05-17T13:32:15Z</time>
      </trkpt>
      <trkpt lat="41.6493730" lon="-8.7820910">
        <ele>34.6</ele>
        <time>2021-05-17T13:32:16Z</time>
      </trkpt>
      <trkpt lat="41.6493720" lon="-8.7821030">
        <ele>34.6</ele>
        <time>2021-05-17T13:32:17Z</time>
      </trkpt>
      <trkpt lat="41.6493690" lon="-8.7821170">
        <ele>34.6</ele>
        <time>2021-05-17T13:32:18Z</time>
      </trkpt>
      <trkpt lat="41.6493630" lon="-8.7821400">
        <ele>34.6</ele>
        <time>2021-05-17T13:32:19Z</time>
      </trkpt>
      <trkpt lat="41.6493600" lon="-8.7821600">
        <ele>34.6</ele>
        <time>2021-05-17T13:32:20Z</time>
      </trkpt>
      <trkpt lat="41.6493580" lon="-8.7821840">
        <ele>34.6</ele>
        <time>2021-05-17T13:32:21Z</time>
      </trkpt>
      <trkpt lat="41.6493560" lon="-8.7821950">
        <ele>34.6</ele>
        <time>2021-05-17T13:32:22Z</time>
      </trkpt>
      <trkpt lat="41.6493550" lon="-8.7822070">
        <ele>34.6</ele>
        <time>2021-05-17T13:32:23Z</time>
      </trkpt>
      <trkpt lat="41.6493470" lon="-8.7822310">
        <ele>34.6</ele>
        <time>2021-05-17T13:32:24Z</time>
      </trkpt>
      <trkpt lat="41.6493360" lon="-8.7822430">
        <ele>34.6</ele>
        <time>2021-05-17T13:32:25Z</time>
      </trkpt>
      <trkpt lat="41.6493320" lon="-8.7822700">
        <ele>34.6</ele>
        <time>2021-05-17T13:32:26Z</time>
      </trkpt>
      <trkpt lat="41.6493310" lon="-8.7822820">
        <ele>34.6</ele>
        <time>2021-05-17T13:32:27Z</time>
      </trkpt>
      <trkpt lat="41.6493290" lon="-8.7822950">
        <ele>34.5</ele>
        <time>2021-05-17T13:32:28Z</time>
      </trkpt>
      <trkpt lat="41.6493210" lon="-8.7823230">
        <ele>34.5</ele>
        <time>2021-05-17T13:32:29Z</time>
      </trkpt>
      <trkpt lat="41.6493170" lon="-8.7823350">
        <ele>34.5</ele>
        <time>2021-05-17T13:32:30Z</time>
      </trkpt>
      <trkpt lat="41.6493140" lon="-8.7823470">
        <ele>34.5</ele>
        <time>2021-05-17T13:32:31Z</time>
      </trkpt>
      <trkpt lat="41.6493100" lon="-8.7823600">
        <ele>34.5</ele>
        <time>2021-05-17T13:32:32Z</time>
      </trkpt>
      <trkpt lat="41.6493070" lon="-8.7823820">
        <ele>34.5</ele>
        <time>2021-05-17T13:32:33Z</time>
      </trkpt>
      <trkpt lat="41.6493030" lon="-8.7824090">
        <ele>34.5</ele>
        <time>2021-05-17T13:32:34Z</time>
      </trkpt>
      <trkpt lat="41.6493030" lon="-8.7824220">
        <ele>34.5</ele>
        <time>2021-05-17T13:32:35Z</time>
      </trkpt>
      <trkpt lat="41.6493030" lon="-8.7824360">
        <ele>34.5</ele>
        <time>2021-05-17T13:32:36Z</time>
      </trkpt>
      <trkpt lat="41.6493070" lon="-8.7824670">
        <ele>34.5</ele>
        <time>2021-05-17T13:32:37Z</time>
      </trkpt>
      <trkpt lat="41.6493070" lon="-8.7824770">
        <ele>34.5</ele>
        <time>2021-05-17T13:32:38Z</time>
      </trkpt>
      <trkpt lat="41.6493070" lon="-8.7824860">
        <ele>34.5</ele>
        <time>2021-05-17T13:32:39Z</time>
      </trkpt>
      <trkpt lat="41.6493010" lon="-8.7825030">
        <ele>34.5</ele>
        <time>2021-05-17T13:32:40Z</time>
      </trkpt>
      <trkpt lat="41.6492980" lon="-8.7825130">
        <ele>34.5</ele>
        <time>2021-05-17T13:32:41Z</time>
      </trkpt>
      <trkpt lat="41.6492960" lon="-8.7825310">
        <ele>34.5</ele>
        <time>2021-05-17T13:32:42Z</time>
      </trkpt>
      <trkpt lat="41.6492910" lon="-8.7825510">
        <ele>34.5</ele>
        <time>2021-05-17T13:32:43Z</time>
      </trkpt>
      <trkpt lat="41.6492830" lon="-8.7825690">
        <ele>34.5</ele>
        <time>2021-05-17T13:32:44Z</time>
      </trkpt>
      <trkpt lat="41.6492760" lon="-8.7825960">
        <ele>34.5</ele>
        <time>2021-05-17T13:32:45Z</time>
      </trkpt>
      <trkpt lat="41.6492720" lon="-8.7826100">
        <ele>34.5</ele>
        <time>2021-05-17T13:32:46Z</time>
      </trkpt>
      <trkpt lat="41.6492680" lon="-8.7826180">
        <ele>34.5</ele>
        <time>2021-05-17T13:32:47Z</time>
      </trkpt>
      <trkpt lat="41.6492620" lon="-8.7826400">
        <ele>34.5</ele>
        <time>2021-05-17T13:32:48Z</time>
      </trkpt>
      <trkpt lat="41.6492620" lon="-8.7826560">
        <ele>34.5</ele>
        <time>2021-05-17T13:32:49Z</time>
      </trkpt>
      <trkpt lat="41.6492570" lon="-8.7826730">
        <ele>34.5</ele>
        <time>2021-05-17T13:32:50Z</time>
      </trkpt>
      <trkpt lat="41.6492500" lon="-8.7826970">
        <ele>34.5</ele>
        <time>2021-05-17T13:32:51Z</time>
      </trkpt>
      <trkpt lat="41.6492480" lon="-8.7827080">
        <ele>34.5</ele>
        <time>2021-05-17T13:32:52Z</time>
      </trkpt>
      <trkpt lat="41.6492440" lon="-8.7827210">
        <ele>34.5</ele>
        <time>2021-05-17T13:32:53Z</time>
      </trkpt>
      <trkpt lat="41.6492420" lon="-8.7827410">
        <ele>34.5</ele>
        <time>2021-05-17T13:32:54Z</time>
      </trkpt>
      <trkpt lat="41.6492370" lon="-8.7827620">
        <ele>34.5</ele>
        <time>2021-05-17T13:32:55Z</time>
      </trkpt>
      <trkpt lat="41.6492300" lon="-8.7827740">
        <ele>34.5</ele>
        <time>2021-05-17T13:32:56Z</time>
      </trkpt>
      <trkpt lat="41.6492160" lon="-8.7827990">
        <ele>34.5</ele>
        <time>2021-05-17T13:32:57Z</time>
      </trkpt>
      <trkpt lat="41.6492140" lon="-8.7828100">
        <ele>34.5</ele>
        <time>2021-05-17T13:32:58Z</time>
      </trkpt>
      <trkpt lat="41.6492120" lon="-8.7828210">
        <ele>34.5</ele>
        <time>2021-05-17T13:32:59Z</time>
      </trkpt>
      <trkpt lat="41.6492090" lon="-8.7828310">
        <ele>34.5</ele>
        <time>2021-05-17T13:33:00Z</time>
      </trkpt>
      <trkpt lat="41.6492100" lon="-8.7828390">
        <ele>34.5</ele>
        <time>2021-05-17T13:33:01Z</time>
      </trkpt>
      <trkpt lat="41.6491990" lon="-8.7828570">
        <ele>34.5</ele>
        <time>2021-05-17T13:33:02Z</time>
      </trkpt>
      <trkpt lat="41.6491890" lon="-8.7828690">
        <ele>34.5</ele>
        <time>2021-05-17T13:33:03Z</time>
      </trkpt>
      <trkpt lat="41.6491770" lon="-8.7828860">
        <ele>34.5</ele>
        <time>2021-05-17T13:33:04Z</time>
      </trkpt>
      <trkpt lat="41.6491690" lon="-8.7829020">
        <ele>34.5</ele>
        <time>2021-05-17T13:33:05Z</time>
      </trkpt>
      <trkpt lat="41.6491590" lon="-8.7829190">
        <ele>34.4</ele>
        <time>2021-05-17T13:33:06Z</time>
      </trkpt>
      <trkpt lat="41.6491460" lon="-8.7829470">
        <ele>34.4</ele>
        <time>2021-05-17T13:33:07Z</time>
      </trkpt>
      <trkpt lat="41.6491420" lon="-8.7829560">
        <ele>34.4</ele>
        <time>2021-05-17T13:33:08Z</time>
      </trkpt>
      <trkpt lat="41.6491370" lon="-8.7829660">
        <ele>34.4</ele>
        <time>2021-05-17T13:33:09Z</time>
      </trkpt>
      <trkpt lat="41.6491200" lon="-8.7829760">
        <ele>34.4</ele>
        <time>2021-05-17T13:33:10Z</time>
      </trkpt>
      <trkpt lat="41.6491130" lon="-8.7829840">
        <ele>34.4</ele>
        <time>2021-05-17T13:33:11Z</time>
      </trkpt>
      <trkpt lat="41.6491060" lon="-8.7829920">
        <ele>34.4</ele>
        <time>2021-05-17T13:33:12Z</time>
      </trkpt>
      <trkpt lat="41.6490970" lon="-8.7830130">
        <ele>34.4</ele>
        <time>2021-05-17T13:33:13Z</time>
      </trkpt>
      <trkpt lat="41.6491010" lon="-8.7830260">
        <ele>34.4</ele>
        <time>2021-05-17T13:33:14Z</time>
      </trkpt>
      <trkpt lat="41.6491040" lon="-8.7830380">
        <ele>34.3</ele>
        <time>2021-05-17T13:33:15Z</time>
      </trkpt>
      <trkpt lat="41.6491140" lon="-8.7830640">
        <ele>34.3</ele>
        <time>2021-05-17T13:33:16Z</time>
      </trkpt>
      <trkpt lat="41.6491160" lon="-8.7830750">
        <ele>34.3</ele>
        <time>2021-05-17T13:33:17Z</time>
      </trkpt>
      <trkpt lat="41.6491180" lon="-8.7830870">
        <ele>34.3</ele>
        <time>2021-05-17T13:33:18Z</time>
      </trkpt>
      <trkpt lat="41.6491160" lon="-8.7831100">
        <ele>34.3</ele>
        <time>2021-05-17T13:33:19Z</time>
      </trkpt>
      <trkpt lat="41.6491160" lon="-8.7831200">
        <ele>34.3</ele>
        <time>2021-05-17T13:33:20Z</time>
      </trkpt>
      <trkpt lat="41.6491170" lon="-8.7831290">
        <ele>34.3</ele>
        <time>2021-05-17T13:33:21Z</time>
      </trkpt>
      <trkpt lat="41.6491170" lon="-8.7831390">
        <ele>34.3</ele>
        <time>2021-05-17T13:33:22Z</time>
      </trkpt>
      <trkpt lat="41.6491150" lon="-8.7831510">
        <ele>34.3</ele>
        <time>2021-05-17T13:33:23Z</time>
      </trkpt>
      <trkpt lat="41.6491130" lon="-8.7831810">
        <ele>34.3</ele>
        <time>2021-05-17T13:33:24Z</time>
      </trkpt>
      <trkpt lat="41.6491130" lon="-8.7831960">
        <ele>34.2</ele>
        <time>2021-05-17T13:33:25Z</time>
      </trkpt>
      <trkpt lat="41.6491110" lon="-8.7832210">
        <ele>34.2</ele>
        <time>2021-05-17T13:33:26Z</time>
      </trkpt>
      <trkpt lat="41.6491100" lon="-8.7832300">
        <ele>34.2</ele>
        <time>2021-05-17T13:33:27Z</time>
      </trkpt>
      <trkpt lat="41.6491120" lon="-8.7832400">
        <ele>34.2</ele>
        <time>2021-05-17T13:33:28Z</time>
      </trkpt>
      <trkpt lat="41.6491040" lon="-8.7832390">
        <ele>34.2</ele>
        <time>2021-05-17T13:33:29Z</time>
      </trkpt>
      <trkpt lat="41.6490980" lon="-8.7832390">
        <ele>34.2</ele>
        <time>2021-05-17T13:33:30Z</time>
      </trkpt>
      <trkpt lat="41.6490920" lon="-8.7832390">
        <ele>34.2</ele>
        <time>2021-05-17T13:33:31Z</time>
      </trkpt>
      <trkpt lat="41.6490870" lon="-8.7832390">
        <ele>34.2</ele>
        <time>2021-05-17T13:33:32Z</time>
      </trkpt>
      <trkpt lat="41.6490830" lon="-8.7832410">
        <ele>34.2</ele>
        <time>2021-05-17T13:33:33Z</time>
      </trkpt>
      <trkpt lat="41.6490840" lon="-8.7832240">
        <ele>34.2</ele>
        <time>2021-05-17T13:33:34Z</time>
      </trkpt>
      <trkpt lat="41.6490890" lon="-8.7832060">
        <ele>34.2</ele>
        <time>2021-05-17T13:33:35Z</time>
      </trkpt>
      <trkpt lat="41.6490940" lon="-8.7831960">
        <ele>34.2</ele>
        <time>2021-05-17T13:33:36Z</time>
      </trkpt>
      <trkpt lat="41.6490800" lon="-8.7831850">
        <ele>34.2</ele>
        <time>2021-05-17T13:33:37Z</time>
      </trkpt>
      <trkpt lat="41.6490760" lon="-8.7831870">
        <ele>34.2</ele>
        <time>2021-05-17T13:33:38Z</time>
      </trkpt>
      <trkpt lat="41.6490740" lon="-8.7831930">
        <ele>34.2</ele>
        <time>2021-05-17T13:33:39Z</time>
      </trkpt>
      <trkpt lat="41.6490670" lon="-8.7832050">
        <ele>34.2</ele>
        <time>2021-05-17T13:33:40Z</time>
      </trkpt>
      <trkpt lat="41.6490570" lon="-8.7832120">
        <ele>34.2</ele>
        <time>2021-05-17T13:33:41Z</time>
      </trkpt>
      <trkpt lat="41.6490700" lon="-8.7832070">
        <ele>34.2</ele>
        <time>2021-05-17T13:33:42Z</time>
      </trkpt>
      <trkpt lat="41.6490770" lon="-8.7832030">
        <ele>34.2</ele>
        <time>2021-05-17T13:33:43Z</time>
      </trkpt>
      <trkpt lat="41.6490800" lon="-8.7832000">
        <ele>34.2</ele>
        <time>2021-05-17T13:33:44Z</time>
      </trkpt>
      <trkpt lat="41.6490760" lon="-8.7831980">
        <ele>34.2</ele>
        <time>2021-05-17T13:33:45Z</time>
      </trkpt>
      <trkpt lat="41.6490720" lon="-8.7831920">
        <ele>34.2</ele>
        <time>2021-05-17T13:33:46Z</time>
      </trkpt>
      <trkpt lat="41.6490740" lon="-8.7831950">
        <ele>34.2</ele>
        <time>2021-05-17T13:33:47Z</time>
      </trkpt>
      <trkpt lat="41.6490770" lon="-8.7831980">
        <ele>34.2</ele>
        <time>2021-05-17T13:33:48Z</time>
      </trkpt>
      <trkpt lat="41.6490800" lon="-8.7832040">
        <ele>34.2</ele>
        <time>2021-05-17T13:33:49Z</time>
      </trkpt>
      <trkpt lat="41.6490880" lon="-8.7832130">
        <ele>34.2</ele>
        <time>2021-05-17T13:33:50Z</time>
      </trkpt>
      <trkpt lat="41.6490920" lon="-8.7832090">
        <ele>34.2</ele>
        <time>2021-05-17T13:33:51Z</time>
      </trkpt>
      <trkpt lat="41.6490920" lon="-8.7831790">
        <ele>34.2</ele>
        <time>2021-05-17T13:33:52Z</time>
      </trkpt>
      <trkpt lat="41.6490970" lon="-8.7831580">
        <ele>34.2</ele>
        <time>2021-05-17T13:33:53Z</time>
      </trkpt>
      <trkpt lat="41.6490820" lon="-8.7831610">
        <ele>34.2</ele>
        <time>2021-05-17T13:33:54Z</time>
      </trkpt>
      <trkpt lat="41.6490770" lon="-8.7831480">
        <ele>34.2</ele>
        <time>2021-05-17T13:33:55Z</time>
      </trkpt>
      <trkpt lat="41.6490820" lon="-8.7831480">
        <ele>34.2</ele>
        <time>2021-05-17T13:33:56Z</time>
      </trkpt>
      <trkpt lat="41.6490760" lon="-8.7831660">
        <ele>34.2</ele>
        <time>2021-05-17T13:33:57Z</time>
      </trkpt>
      <trkpt lat="41.6490780" lon="-8.7831700">
        <ele>34.2</ele>
        <time>2021-05-17T13:33:58Z</time>
      </trkpt>
      <trkpt lat="41.6490770" lon="-8.7831710">
        <ele>34.2</ele>
        <time>2021-05-17T13:33:59Z</time>
      </trkpt>
      <trkpt lat="41.6490780" lon="-8.7831650">
        <ele>34.2</ele>
        <time>2021-05-17T13:34:00Z</time>
      </trkpt>
      <trkpt lat="41.6490740" lon="-8.7831720">
        <ele>34.2</ele>
        <time>2021-05-17T13:34:01Z</time>
      </trkpt>
      <trkpt lat="41.6490740" lon="-8.7831740">
        <ele>34.2</ele>
        <time>2021-05-17T13:34:02Z</time>
      </trkpt>
      <trkpt lat="41.6490710" lon="-8.7831770">
        <ele>34.2</ele>
        <time>2021-05-17T13:34:03Z</time>
      </trkpt>
      <trkpt lat="41.6490700" lon="-8.7831810">
        <ele>34.2</ele>
        <time>2021-05-17T13:34:04Z</time>
      </trkpt>
      <trkpt lat="41.6490670" lon="-8.7831870">
        <ele>34.2</ele>
        <time>2021-05-17T13:34:05Z</time>
      </trkpt>
      <trkpt lat="41.6490620" lon="-8.7831980">
        <ele>34.2</ele>
        <time>2021-05-17T13:34:06Z</time>
      </trkpt>
      <trkpt lat="41.6490620" lon="-8.7831980">
        <ele>34.2</ele>
        <time>2021-05-17T13:34:07Z</time>
      </trkpt>
      <trkpt lat="41.6490620" lon="-8.7831980">
        <ele>34.2</ele>
        <time>2021-05-17T13:34:08Z</time>
      </trkpt>
      <trkpt lat="41.6490620" lon="-8.7831980">
        <ele>34.2</ele>
        <time>2021-05-17T13:34:09Z</time>
      </trkpt>
      <trkpt lat="41.6490620" lon="-8.7831980">
        <ele>34.2</ele>
        <time>2021-05-17T13:34:10Z</time>
      </trkpt>
      <trkpt lat="41.6490580" lon="-8.7832200">
        <ele>34.2</ele>
        <time>2021-05-17T13:34:11Z</time>
      </trkpt>
      <trkpt lat="41.6490520" lon="-8.7832290">
        <ele>34.2</ele>
        <time>2021-05-17T13:34:12Z</time>
      </trkpt>
      <trkpt lat="41.6490520" lon="-8.7832290">
        <ele>34.2</ele>
        <time>2021-05-17T13:34:13Z</time>
      </trkpt>
      <trkpt lat="41.6490480" lon="-8.7832400">
        <ele>34.2</ele>
        <time>2021-05-17T13:34:14Z</time>
      </trkpt>
      <trkpt lat="41.6490480" lon="-8.7832350">
        <ele>34.2</ele>
        <time>2021-05-17T13:34:15Z</time>
      </trkpt>
      <trkpt lat="41.6490470" lon="-8.7832340">
        <ele>34.2</ele>
        <time>2021-05-17T13:34:16Z</time>
      </trkpt>
      <trkpt lat="41.6490440" lon="-8.7832360">
        <ele>34.2</ele>
        <time>2021-05-17T13:34:17Z</time>
      </trkpt>
      <trkpt lat="41.6490450" lon="-8.7832350">
        <ele>34.2</ele>
        <time>2021-05-17T13:34:18Z</time>
      </trkpt>
      <trkpt lat="41.6490470" lon="-8.7832330">
        <ele>34.2</ele>
        <time>2021-05-17T13:34:19Z</time>
      </trkpt>
      <trkpt lat="41.6490500" lon="-8.7832330">
        <ele>34.2</ele>
        <time>2021-05-17T13:34:20Z</time>
      </trkpt>
      <trkpt lat="41.6490450" lon="-8.7832420">
        <ele>34.2</ele>
        <time>2021-05-17T13:34:21Z</time>
      </trkpt>
      <trkpt lat="41.6490480" lon="-8.7832480">
        <ele>34.2</ele>
        <time>2021-05-17T13:34:22Z</time>
      </trkpt>
      <trkpt lat="41.6490430" lon="-8.7832470">
        <ele>34.2</ele>
        <time>2021-05-17T13:34:23Z</time>
      </trkpt>
      <trkpt lat="41.6490500" lon="-8.7832280">
        <ele>34.2</ele>
        <time>2021-05-17T13:34:24Z</time>
      </trkpt>
      <trkpt lat="41.6490580" lon="-8.7832100">
        <ele>34.2</ele>
        <time>2021-05-17T13:34:25Z</time>
      </trkpt>
      <trkpt lat="41.6490610" lon="-8.7832100">
        <ele>34.2</ele>
        <time>2021-05-17T13:34:26Z</time>
      </trkpt>
      <trkpt lat="41.6490660" lon="-8.7832010">
        <ele>34.3</ele>
        <time>2021-05-17T13:34:27Z</time>
      </trkpt>
      <trkpt lat="41.6490650" lon="-8.7831930">
        <ele>34.3</ele>
        <time>2021-05-17T13:34:28Z</time>
      </trkpt>
      <trkpt lat="41.6490630" lon="-8.7831930">
        <ele>34.3</ele>
        <time>2021-05-17T13:34:29Z</time>
      </trkpt>
      <trkpt lat="41.6490670" lon="-8.7831920">
        <ele>34.3</ele>
        <time>2021-05-17T13:34:30Z</time>
      </trkpt>
      <trkpt lat="41.6490690" lon="-8.7831880">
        <ele>34.3</ele>
        <time>2021-05-17T13:34:31Z</time>
      </trkpt>
      <trkpt lat="41.6490670" lon="-8.7831870">
        <ele>34.3</ele>
        <time>2021-05-17T13:34:32Z</time>
      </trkpt>
      <trkpt lat="41.6490660" lon="-8.7831880">
        <ele>34.3</ele>
        <time>2021-05-17T13:34:33Z</time>
      </trkpt>
      <trkpt lat="41.6490610" lon="-8.7831840">
        <ele>34.3</ele>
        <time>2021-05-17T13:34:34Z</time>
      </trkpt>
      <trkpt lat="41.6490640" lon="-8.7831810">
        <ele>34.3</ele>
        <time>2021-05-17T13:34:35Z</time>
      </trkpt>
      <trkpt lat="41.6490620" lon="-8.7831720">
        <ele>34.3</ele>
        <time>2021-05-17T13:34:36Z</time>
      </trkpt>
      <trkpt lat="41.6490630" lon="-8.7831740">
        <ele>34.3</ele>
        <time>2021-05-17T13:34:37Z</time>
      </trkpt>
      <trkpt lat="41.6490660" lon="-8.7831750">
        <ele>34.3</ele>
        <time>2021-05-17T13:34:38Z</time>
      </trkpt>
      <trkpt lat="41.6490680" lon="-8.7831780">
        <ele>34.3</ele>
        <time>2021-05-17T13:34:39Z</time>
      </trkpt>
      <trkpt lat="41.6490710" lon="-8.7831800">
        <ele>34.3</ele>
        <time>2021-05-17T13:34:40Z</time>
      </trkpt>
      <trkpt lat="41.6490720" lon="-8.7831810">
        <ele>34.3</ele>
        <time>2021-05-17T13:34:41Z</time>
      </trkpt>
      <trkpt lat="41.6490760" lon="-8.7831870">
        <ele>34.3</ele>
        <time>2021-05-17T13:34:42Z</time>
      </trkpt>
      <trkpt lat="41.6490770" lon="-8.7831870">
        <ele>34.3</ele>
        <time>2021-05-17T13:34:43Z</time>
      </trkpt>
      <trkpt lat="41.6490790" lon="-8.7831880">
        <ele>34.3</ele>
        <time>2021-05-17T13:34:44Z</time>
      </trkpt>
      <trkpt lat="41.6490800" lon="-8.7831890">
        <ele>34.3</ele>
        <time>2021-05-17T13:34:45Z</time>
      </trkpt>
      <trkpt lat="41.6490800" lon="-8.7831910">
        <ele>34.3</ele>
        <time>2021-05-17T13:34:46Z</time>
      </trkpt>
      <trkpt lat="41.6490820" lon="-8.7831900">
        <ele>34.3</ele>
        <time>2021-05-17T13:34:47Z</time>
      </trkpt>
      <trkpt lat="41.6490840" lon="-8.7831890">
        <ele>34.3</ele>
        <time>2021-05-17T13:34:48Z</time>
      </trkpt>
      <trkpt lat="41.6490850" lon="-8.7831900">
        <ele>34.3</ele>
        <time>2021-05-17T13:34:49Z</time>
      </trkpt>
      <trkpt lat="41.6490860" lon="-8.7831890">
        <ele>34.3</ele>
        <time>2021-05-17T13:34:50Z</time>
      </trkpt>
      <trkpt lat="41.6490860" lon="-8.7831870">
        <ele>34.3</ele>
        <time>2021-05-17T13:34:51Z</time>
      </trkpt>
      <trkpt lat="41.6490880" lon="-8.7831830">
        <ele>34.3</ele>
        <time>2021-05-17T13:34:52Z</time>
      </trkpt>
      <trkpt lat="41.6490880" lon="-8.7831850">
        <ele>34.3</ele>
        <time>2021-05-17T13:34:53Z</time>
      </trkpt>
      <trkpt lat="41.6490890" lon="-8.7831850">
        <ele>34.3</ele>
        <time>2021-05-17T13:34:54Z</time>
      </trkpt>
      <trkpt lat="41.6490880" lon="-8.7831870">
        <ele>34.3</ele>
        <time>2021-05-17T13:34:55Z</time>
      </trkpt>
      <trkpt lat="41.6490880" lon="-8.7831870">
        <ele>34.3</ele>
        <time>2021-05-17T13:34:56Z</time>
      </trkpt>
      <trkpt lat="41.6490860" lon="-8.7831870">
        <ele>34.3</ele>
        <time>2021-05-17T13:34:57Z</time>
      </trkpt>
      <trkpt lat="41.6490840" lon="-8.7831890">
        <ele>34.3</ele>
        <time>2021-05-17T13:34:58Z</time>
      </trkpt>
      <trkpt lat="41.6490820" lon="-8.7831900">
        <ele>34.3</ele>
        <time>2021-05-17T13:34:59Z</time>
      </trkpt>
      <trkpt lat="41.6490830" lon="-8.7831920">
        <ele>34.3</ele>
        <time>2021-05-17T13:35:00Z</time>
      </trkpt>
      <trkpt lat="41.6490810" lon="-8.7831900">
        <ele>34.3</ele>
        <time>2021-05-17T13:35:01Z</time>
      </trkpt>
      <trkpt lat="41.6490810" lon="-8.7831870">
        <ele>34.3</ele>
        <time>2021-05-17T13:35:02Z</time>
      </trkpt>
      <trkpt lat="41.6490790" lon="-8.7831880">
        <ele>34.3</ele>
        <time>2021-05-17T13:35:03Z</time>
      </trkpt>
      <trkpt lat="41.6490770" lon="-8.7831890">
        <ele>34.3</ele>
        <time>2021-05-17T13:35:04Z</time>
      </trkpt>
      <trkpt lat="41.6490740" lon="-8.7831900">
        <ele>34.3</ele>
        <time>2021-05-17T13:35:05Z</time>
      </trkpt>
      <trkpt lat="41.6490720" lon="-8.7831910">
        <ele>34.3</ele>
        <time>2021-05-17T13:35:06Z</time>
      </trkpt>
      <trkpt lat="41.6490710" lon="-8.7831910">
        <ele>34.3</ele>
        <time>2021-05-17T13:35:07Z</time>
      </trkpt>
      <trkpt lat="41.6490720" lon="-8.7831940">
        <ele>34.3</ele>
        <time>2021-05-17T13:35:08Z</time>
      </trkpt>
      <trkpt lat="41.6490720" lon="-8.7831960">
        <ele>34.3</ele>
        <time>2021-05-17T13:35:09Z</time>
      </trkpt>
      <trkpt lat="41.6490710" lon="-8.7831940">
        <ele>34.3</ele>
        <time>2021-05-17T13:35:10Z</time>
      </trkpt>
      <trkpt lat="41.6490690" lon="-8.7831950">
        <ele>34.3</ele>
        <time>2021-05-17T13:35:11Z</time>
      </trkpt>
      <trkpt lat="41.6490680" lon="-8.7831930">
        <ele>34.3</ele>
        <time>2021-05-17T13:35:12Z</time>
      </trkpt>
      <trkpt lat="41.6490680" lon="-8.7831920">
        <ele>34.3</ele>
        <time>2021-05-17T13:35:13Z</time>
      </trkpt>
      <trkpt lat="41.6490690" lon="-8.7831920">
        <ele>34.3</ele>
        <time>2021-05-17T13:35:14Z</time>
      </trkpt>
      <trkpt lat="41.6490690" lon="-8.7831910">
        <ele>34.3</ele>
        <time>2021-05-17T13:35:15Z</time>
      </trkpt>
      <trkpt lat="41.6490670" lon="-8.7831930">
        <ele>34.3</ele>
        <time>2021-05-17T13:35:16Z</time>
      </trkpt>
      <trkpt lat="41.6490680" lon="-8.7831940">
        <ele>34.3</ele>
        <time>2021-05-17T13:35:17Z</time>
      </trkpt>
      <trkpt lat="41.6490740" lon="-8.7831860">
        <ele>34.3</ele>
        <time>2021-05-17T13:35:18Z</time>
      </trkpt>
      <trkpt lat="41.6490750" lon="-8.7831860">
        <ele>34.3</ele>
        <time>2021-05-17T13:35:19Z</time>
      </trkpt>
      <trkpt lat="41.6490760" lon="-8.7831850">
        <ele>34.3</ele>
        <time>2021-05-17T13:35:20Z</time>
      </trkpt>
      <trkpt lat="41.6490760" lon="-8.7831870">
        <ele>34.3</ele>
        <time>2021-05-17T13:35:21Z</time>
      </trkpt>
      <trkpt lat="41.6490760" lon="-8.7831860">
        <ele>34.3</ele>
        <time>2021-05-17T13:35:22Z</time>
      </trkpt>
      <trkpt lat="41.6490790" lon="-8.7831930">
        <ele>34.3</ele>
        <time>2021-05-17T13:35:23Z</time>
      </trkpt>
      <trkpt lat="41.6490830" lon="-8.7831930">
        <ele>34.3</ele>
        <time>2021-05-17T13:35:24Z</time>
      </trkpt>
      <trkpt lat="41.6490850" lon="-8.7831940">
        <ele>34.3</ele>
        <time>2021-05-17T13:35:25Z</time>
      </trkpt>
      <trkpt lat="41.6490880" lon="-8.7831980">
        <ele>34.3</ele>
        <time>2021-05-17T13:35:26Z</time>
      </trkpt>
      <trkpt lat="41.6490890" lon="-8.7832030">
        <ele>34.3</ele>
        <time>2021-05-17T13:35:27Z</time>
      </trkpt>
      <trkpt lat="41.6490920" lon="-8.7832050">
        <ele>34.3</ele>
        <time>2021-05-17T13:35:28Z</time>
      </trkpt>
      <trkpt lat="41.6490960" lon="-8.7832090">
        <ele>34.3</ele>
        <time>2021-05-17T13:35:29Z</time>
      </trkpt>
      <trkpt lat="41.6491010" lon="-8.7832100">
        <ele>34.3</ele>
        <time>2021-05-17T13:35:30Z</time>
      </trkpt>
      <trkpt lat="41.6491010" lon="-8.7832100">
        <ele>34.3</ele>
        <time>2021-05-17T13:35:31Z</time>
      </trkpt>
      <trkpt lat="41.6491050" lon="-8.7832160">
        <ele>34.3</ele>
        <time>2021-05-17T13:35:32Z</time>
      </trkpt>
      <trkpt lat="41.6491080" lon="-8.7832190">
        <ele>34.3</ele>
        <time>2021-05-17T13:35:33Z</time>
      </trkpt>
      <trkpt lat="41.6491100" lon="-8.7832190">
        <ele>34.3</ele>
        <time>2021-05-17T13:35:34Z</time>
      </trkpt>
      <trkpt lat="41.6491080" lon="-8.7832180">
        <ele>34.3</ele>
        <time>2021-05-17T13:35:35Z</time>
      </trkpt>
      <trkpt lat="41.6491100" lon="-8.7832200">
        <ele>34.3</ele>
        <time>2021-05-17T13:35:36Z</time>
      </trkpt>
      <trkpt lat="41.6491100" lon="-8.7832200">
        <ele>34.3</ele>
        <time>2021-05-17T13:35:37Z</time>
      </trkpt>
      <trkpt lat="41.6491090" lon="-8.7832220">
        <ele>34.3</ele>
        <time>2021-05-17T13:35:38Z</time>
      </trkpt>
      <trkpt lat="41.6491080" lon="-8.7832230">
        <ele>34.3</ele>
        <time>2021-05-17T13:35:39Z</time>
      </trkpt>
      <trkpt lat="41.6491120" lon="-8.7832250">
        <ele>34.3</ele>
        <time>2021-05-17T13:35:40Z</time>
      </trkpt>
      <trkpt lat="41.6491110" lon="-8.7832300">
        <ele>34.3</ele>
        <time>2021-05-17T13:35:41Z</time>
      </trkpt>
      <trkpt lat="41.6491110" lon="-8.7832300">
        <ele>34.3</ele>
        <time>2021-05-17T13:35:42Z</time>
      </trkpt>
      <trkpt lat="41.6491110" lon="-8.7832300">
        <ele>34.3</ele>
        <time>2021-05-17T13:35:43Z</time>
      </trkpt>
      <trkpt lat="41.6491050" lon="-8.7832290">
        <ele>34.3</ele>
        <time>2021-05-17T13:35:44Z</time>
      </trkpt>
      <trkpt lat="41.6491030" lon="-8.7832280">
        <ele>34.3</ele>
        <time>2021-05-17T13:35:45Z</time>
      </trkpt>
      <trkpt lat="41.6491000" lon="-8.7832280">
        <ele>34.3</ele>
        <time>2021-05-17T13:35:46Z</time>
      </trkpt>
      <trkpt lat="41.6490960" lon="-8.7832270">
        <ele>34.3</ele>
        <time>2021-05-17T13:35:47Z</time>
      </trkpt>
      <trkpt lat="41.6490940" lon="-8.7832240">
        <ele>34.3</ele>
        <time>2021-05-17T13:35:48Z</time>
      </trkpt>
      <trkpt lat="41.6490900" lon="-8.7832220">
        <ele>34.3</ele>
        <time>2021-05-17T13:35:49Z</time>
      </trkpt>
      <trkpt lat="41.6490870" lon="-8.7832210">
        <ele>34.3</ele>
        <time>2021-05-17T13:35:50Z</time>
      </trkpt>
      <trkpt lat="41.6490860" lon="-8.7832220">
        <ele>34.3</ele>
        <time>2021-05-17T13:35:51Z</time>
      </trkpt>
      <trkpt lat="41.6490840" lon="-8.7832210">
        <ele>34.3</ele>
        <time>2021-05-17T13:35:52Z</time>
      </trkpt>
      <trkpt lat="41.6490820" lon="-8.7832180">
        <ele>34.3</ele>
        <time>2021-05-17T13:35:53Z</time>
      </trkpt>
      <trkpt lat="41.6490800" lon="-8.7832160">
        <ele>34.3</ele>
        <time>2021-05-17T13:35:54Z</time>
      </trkpt>
      <trkpt lat="41.6490750" lon="-8.7832140">
        <ele>34.3</ele>
        <time>2021-05-17T13:35:55Z</time>
      </trkpt>
      <trkpt lat="41.6490700" lon="-8.7832120">
        <ele>34.3</ele>
        <time>2021-05-17T13:35:56Z</time>
      </trkpt>
      <trkpt lat="41.6490680" lon="-8.7832120">
        <ele>34.3</ele>
        <time>2021-05-17T13:35:57Z</time>
      </trkpt>
      <trkpt lat="41.6490640" lon="-8.7832120">
        <ele>34.3</ele>
        <time>2021-05-17T13:35:58Z</time>
      </trkpt>
      <trkpt lat="41.6490620" lon="-8.7832120">
        <ele>34.3</ele>
        <time>2021-05-17T13:35:59Z</time>
      </trkpt>
      <trkpt lat="41.6490580" lon="-8.7832120">
        <ele>34.3</ele>
        <time>2021-05-17T13:36:00Z</time>
      </trkpt>
      <trkpt lat="41.6490560" lon="-8.7832120">
        <ele>34.3</ele>
        <time>2021-05-17T13:36:01Z</time>
      </trkpt>
      <trkpt lat="41.6490540" lon="-8.7832130">
        <ele>34.3</ele>
        <time>2021-05-17T13:36:02Z</time>
      </trkpt>
      <trkpt lat="41.6490520" lon="-8.7832120">
        <ele>34.3</ele>
        <time>2021-05-17T13:36:03Z</time>
      </trkpt>
      <trkpt lat="41.6490520" lon="-8.7832120">
        <ele>34.3</ele>
        <time>2021-05-17T13:36:04Z</time>
      </trkpt>
      <trkpt lat="41.6490490" lon="-8.7832130">
        <ele>34.3</ele>
        <time>2021-05-17T13:36:05Z</time>
      </trkpt>
      <trkpt lat="41.6490470" lon="-8.7832130">
        <ele>34.3</ele>
        <time>2021-05-17T13:36:06Z</time>
      </trkpt>
      <trkpt lat="41.6490460" lon="-8.7832130">
        <ele>34.3</ele>
        <time>2021-05-17T13:36:07Z</time>
      </trkpt>
      <trkpt lat="41.6490450" lon="-8.7832120">
        <ele>34.3</ele>
        <time>2021-05-17T13:36:08Z</time>
      </trkpt>
      <trkpt lat="41.6490430" lon="-8.7832140">
        <ele>34.3</ele>
        <time>2021-05-17T13:36:09Z</time>
      </trkpt>
      <trkpt lat="41.6490410" lon="-8.7832140">
        <ele>34.3</ele>
        <time>2021-05-17T13:36:10Z</time>
      </trkpt>
      <trkpt lat="41.6490400" lon="-8.7832130">
        <ele>34.3</ele>
        <time>2021-05-17T13:36:11Z</time>
      </trkpt>
      <trkpt lat="41.6490370" lon="-8.7832150">
        <ele>34.3</ele>
        <time>2021-05-17T13:36:12Z</time>
      </trkpt>
      <trkpt lat="41.6490350" lon="-8.7832150">
        <ele>34.3</ele>
        <time>2021-05-17T13:36:13Z</time>
      </trkpt>
      <trkpt lat="41.6490350" lon="-8.7832150">
        <ele>34.3</ele>
        <time>2021-05-17T13:36:14Z</time>
      </trkpt>
      <trkpt lat="41.6490330" lon="-8.7832170">
        <ele>34.3</ele>
        <time>2021-05-17T13:36:15Z</time>
      </trkpt>
      <trkpt lat="41.6490320" lon="-8.7832170">
        <ele>34.3</ele>
        <time>2021-05-17T13:36:16Z</time>
      </trkpt>
      <trkpt lat="41.6490300" lon="-8.7832180">
        <ele>34.3</ele>
        <time>2021-05-17T13:36:17Z</time>
      </trkpt>
      <trkpt lat="41.6490280" lon="-8.7832170">
        <ele>34.3</ele>
        <time>2021-05-17T13:36:18Z</time>
      </trkpt>
      <trkpt lat="41.6490270" lon="-8.7832170">
        <ele>34.3</ele>
        <time>2021-05-17T13:36:19Z</time>
      </trkpt>
      <trkpt lat="41.6490270" lon="-8.7832170">
        <ele>34.3</ele>
        <time>2021-05-17T13:36:20Z</time>
      </trkpt>
      <trkpt lat="41.6490280" lon="-8.7832150">
        <ele>34.3</ele>
        <time>2021-05-17T13:36:21Z</time>
      </trkpt>
      <trkpt lat="41.6490270" lon="-8.7832170">
        <ele>34.3</ele>
        <time>2021-05-17T13:36:22Z</time>
      </trkpt>
      <trkpt lat="41.6490250" lon="-8.7832170">
        <ele>34.3</ele>
        <time>2021-05-17T13:36:23Z</time>
      </trkpt>
      <trkpt lat="41.6490230" lon="-8.7832160">
        <ele>34.3</ele>
        <time>2021-05-17T13:36:24Z</time>
      </trkpt>
      <trkpt lat="41.6490220" lon="-8.7832170">
        <ele>34.3</ele>
        <time>2021-05-17T13:36:25Z</time>
      </trkpt>
      <trkpt lat="41.6490220" lon="-8.7832170">
        <ele>34.3</ele>
        <time>2021-05-17T13:36:26Z</time>
      </trkpt>
      <trkpt lat="41.6490210" lon="-8.7832170">
        <ele>34.3</ele>
        <time>2021-05-17T13:36:27Z</time>
      </trkpt>
      <trkpt lat="41.6490210" lon="-8.7832170">
        <ele>34.3</ele>
        <time>2021-05-17T13:36:28Z</time>
      </trkpt>
      <trkpt lat="41.6490220" lon="-8.7832160">
        <ele>34.3</ele>
        <time>2021-05-17T13:36:29Z</time>
      </trkpt>
      <trkpt lat="41.6490220" lon="-8.7832160">
        <ele>34.3</ele>
        <time>2021-05-17T13:36:30Z</time>
      </trkpt>
      <trkpt lat="41.6490200" lon="-8.7832150">
        <ele>34.3</ele>
        <time>2021-05-17T13:36:31Z</time>
      </trkpt>
      <trkpt lat="41.6490200" lon="-8.7832160">
        <ele>34.3</ele>
        <time>2021-05-17T13:36:32Z</time>
      </trkpt>
      <trkpt lat="41.6490200" lon="-8.7832130">
        <ele>34.3</ele>
        <time>2021-05-17T13:36:33Z</time>
      </trkpt>
      <trkpt lat="41.6490200" lon="-8.7832130">
        <ele>34.3</ele>
        <time>2021-05-17T13:36:34Z</time>
      </trkpt>
      <trkpt lat="41.6490190" lon="-8.7832150">
        <ele>34.3</ele>
        <time>2021-05-17T13:36:35Z</time>
      </trkpt>
      <trkpt lat="41.6490180" lon="-8.7832130">
        <ele>34.3</ele>
        <time>2021-05-17T13:36:36Z</time>
      </trkpt>
      <trkpt lat="41.6490180" lon="-8.7832150">
        <ele>34.3</ele>
        <time>2021-05-17T13:36:37Z</time>
      </trkpt>
      <trkpt lat="41.6490190" lon="-8.7832160">
        <ele>34.3</ele>
        <time>2021-05-17T13:36:38Z</time>
      </trkpt>
      <trkpt lat="41.6490220" lon="-8.7832160">
        <ele>34.3</ele>
        <time>2021-05-17T13:36:39Z</time>
      </trkpt>
      <trkpt lat="41.6490230" lon="-8.7832140">
        <ele>34.3</ele>
        <time>2021-05-17T13:36:40Z</time>
      </trkpt>
      <trkpt lat="41.6490230" lon="-8.7832140">
        <ele>34.3</ele>
        <time>2021-05-17T13:36:41Z</time>
      </trkpt>
      <trkpt lat="41.6490240" lon="-8.7832160">
        <ele>34.3</ele>
        <time>2021-05-17T13:36:42Z</time>
      </trkpt>
      <trkpt lat="41.6490260" lon="-8.7832180">
        <ele>34.3</ele>
        <time>2021-05-17T13:36:43Z</time>
      </trkpt>
      <trkpt lat="41.6490260" lon="-8.7832170">
        <ele>34.3</ele>
        <time>2021-05-17T13:36:44Z</time>
      </trkpt>
      <trkpt lat="41.6490270" lon="-8.7832200">
        <ele>34.3</ele>
        <time>2021-05-17T13:36:45Z</time>
      </trkpt>
      <trkpt lat="41.6490280" lon="-8.7832190">
        <ele>34.3</ele>
        <time>2021-05-17T13:36:46Z</time>
      </trkpt>
      <trkpt lat="41.6490300" lon="-8.7832190">
        <ele>34.3</ele>
        <time>2021-05-17T13:36:47Z</time>
      </trkpt>
      <trkpt lat="41.6490320" lon="-8.7832200">
        <ele>34.3</ele>
        <time>2021-05-17T13:36:48Z</time>
      </trkpt>
      <trkpt lat="41.6490300" lon="-8.7832210">
        <ele>34.3</ele>
        <time>2021-05-17T13:36:49Z</time>
      </trkpt>
      <trkpt lat="41.6490300" lon="-8.7832180">
        <ele>34.3</ele>
        <time>2021-05-17T13:36:50Z</time>
      </trkpt>
      <trkpt lat="41.6490330" lon="-8.7832170">
        <ele>34.3</ele>
        <time>2021-05-17T13:36:51Z</time>
      </trkpt>
      <trkpt lat="41.6490370" lon="-8.7832180">
        <ele>34.2</ele>
        <time>2021-05-17T13:36:52Z</time>
      </trkpt>
      <trkpt lat="41.6490430" lon="-8.7832210">
        <ele>34.2</ele>
        <time>2021-05-17T13:36:53Z</time>
      </trkpt>
      <trkpt lat="41.6490460" lon="-8.7832210">
        <ele>34.2</ele>
        <time>2021-05-17T13:36:54Z</time>
      </trkpt>
      <trkpt lat="41.6490490" lon="-8.7832200">
        <ele>34.2</ele>
        <time>2021-05-17T13:36:55Z</time>
      </trkpt>
      <trkpt lat="41.6490550" lon="-8.7832210">
        <ele>34.2</ele>
        <time>2021-05-17T13:36:56Z</time>
      </trkpt>
      <trkpt lat="41.6490560" lon="-8.7832190">
        <ele>34.2</ele>
        <time>2021-05-17T13:36:57Z</time>
      </trkpt>
      <trkpt lat="41.6490560" lon="-8.7832130">
        <ele>34.2</ele>
        <time>2021-05-17T13:36:58Z</time>
      </trkpt>
      <trkpt lat="41.6490570" lon="-8.7832110">
        <ele>34.2</ele>
        <time>2021-05-17T13:36:59Z</time>
      </trkpt>
      <trkpt lat="41.6490570" lon="-8.7832080">
        <ele>34.2</ele>
        <time>2021-05-17T13:37:00Z</time>
      </trkpt>
      <trkpt lat="41.6490580" lon="-8.7832100">
        <ele>34.2</ele>
        <time>2021-05-17T13:37:01Z</time>
      </trkpt>
      <trkpt lat="41.6490590" lon="-8.7832100">
        <ele>34.2</ele>
        <time>2021-05-17T13:37:02Z</time>
      </trkpt>
      <trkpt lat="41.6490610" lon="-8.7832110">
        <ele>34.2</ele>
        <time>2021-05-17T13:37:03Z</time>
      </trkpt>
      <trkpt lat="41.6490640" lon="-8.7832130">
        <ele>34.2</ele>
        <time>2021-05-17T13:37:04Z</time>
      </trkpt>
      <trkpt lat="41.6490660" lon="-8.7832120">
        <ele>34.2</ele>
        <time>2021-05-17T13:37:05Z</time>
      </trkpt>
      <trkpt lat="41.6490690" lon="-8.7832180">
        <ele>34.2</ele>
        <time>2021-05-17T13:37:06Z</time>
      </trkpt>
      <trkpt lat="41.6490720" lon="-8.7832150">
        <ele>34.2</ele>
        <time>2021-05-17T13:37:07Z</time>
      </trkpt>
      <trkpt lat="41.6490750" lon="-8.7832190">
        <ele>34.2</ele>
        <time>2021-05-17T13:37:08Z</time>
      </trkpt>
      <trkpt lat="41.6490780" lon="-8.7832230">
        <ele>34.2</ele>
        <time>2021-05-17T13:37:09Z</time>
      </trkpt>
      <trkpt lat="41.6490790" lon="-8.7832240">
        <ele>34.2</ele>
        <time>2021-05-17T13:37:10Z</time>
      </trkpt>
      <trkpt lat="41.6490780" lon="-8.7832220">
        <ele>34.2</ele>
        <time>2021-05-17T13:37:11Z</time>
      </trkpt>
      <trkpt lat="41.6490780" lon="-8.7832210">
        <ele>34.2</ele>
        <time>2021-05-17T13:37:12Z</time>
      </trkpt>
      <trkpt lat="41.6490820" lon="-8.7832260">
        <ele>34.2</ele>
        <time>2021-05-17T13:37:13Z</time>
      </trkpt>
      <trkpt lat="41.6490810" lon="-8.7832220">
        <ele>34.2</ele>
        <time>2021-05-17T13:37:14Z</time>
      </trkpt>
      <trkpt lat="41.6490830" lon="-8.7832140">
        <ele>34.2</ele>
        <time>2021-05-17T13:37:15Z</time>
      </trkpt>
      <trkpt lat="41.6490810" lon="-8.7832120">
        <ele>34.2</ele>
        <time>2021-05-17T13:37:16Z</time>
      </trkpt>
      <trkpt lat="41.6490820" lon="-8.7832120">
        <ele>34.2</ele>
        <time>2021-05-17T13:37:17Z</time>
      </trkpt>
      <trkpt lat="41.6490820" lon="-8.7832120">
        <ele>34.2</ele>
        <time>2021-05-17T13:37:18Z</time>
      </trkpt>
      <trkpt lat="41.6490820" lon="-8.7832120">
        <ele>34.2</ele>
        <time>2021-05-17T13:37:19Z</time>
      </trkpt>
      <trkpt lat="41.6490820" lon="-8.7832120">
        <ele>34.2</ele>
        <time>2021-05-17T13:37:20Z</time>
      </trkpt>
      <trkpt lat="41.6490820" lon="-8.7832120">
        <ele>34.2</ele>
        <time>2021-05-17T13:37:21Z</time>
      </trkpt>
      <trkpt lat="41.6490820" lon="-8.7832120">
        <ele>34.2</ele>
        <time>2021-05-17T13:37:22Z</time>
      </trkpt>
      <trkpt lat="41.6490820" lon="-8.7832120">
        <ele>34.2</ele>
        <time>2021-05-17T13:37:23Z</time>
      </trkpt>
      <trkpt lat="41.6490820" lon="-8.7832120">
        <ele>34.2</ele>
        <time>2021-05-17T13:37:24Z</time>
      </trkpt>
      <trkpt lat="41.6490820" lon="-8.7832120">
        <ele>34.2</ele>
        <time>2021-05-17T13:37:25Z</time>
      </trkpt>
      <trkpt lat="41.6490820" lon="-8.7832120">
        <ele>34.2</ele>
        <time>2021-05-17T13:37:26Z</time>
      </trkpt>
      <trkpt lat="41.6490820" lon="-8.7832120">
        <ele>34.2</ele>
        <time>2021-05-17T13:37:27Z</time>
      </trkpt>
      <trkpt lat="41.6490820" lon="-8.7832120">
        <ele>34.2</ele>
        <time>2021-05-17T13:37:28Z</time>
      </trkpt>
      <trkpt lat="41.6490820" lon="-8.7832120">
        <ele>34.2</ele>
        <time>2021-05-17T13:37:29Z</time>
      </trkpt>
      <trkpt lat="41.6490820" lon="-8.7832120">
        <ele>34.2</ele>
        <time>2021-05-17T13:37:30Z</time>
      </trkpt>
      <trkpt lat="41.6490820" lon="-8.7832120">
        <ele>34.2</ele>
        <time>2021-05-17T13:37:31Z</time>
      </trkpt>
      <trkpt lat="41.6490820" lon="-8.7832120">
        <ele>34.2</ele>
        <time>2021-05-17T13:37:32Z</time>
      </trkpt>
      <trkpt lat="41.6490820" lon="-8.7832120">
        <ele>34.2</ele>
        <time>2021-05-17T13:37:33Z</time>
      </trkpt>
      <trkpt lat="41.6490820" lon="-8.7832120">
        <ele>34.2</ele>
        <time>2021-05-17T13:37:34Z</time>
      </trkpt>
      <trkpt lat="41.6490820" lon="-8.7832120">
        <ele>34.2</ele>
        <time>2021-05-17T13:37:35Z</time>
      </trkpt>
      <trkpt lat="41.6490820" lon="-8.7832120">
        <ele>34.2</ele>
        <time>2021-05-17T13:37:36Z</time>
      </trkpt>
      <trkpt lat="41.6490820" lon="-8.7832120">
        <ele>34.2</ele>
        <time>2021-05-17T13:37:37Z</time>
      </trkpt>
      <trkpt lat="41.6490820" lon="-8.7832120">
        <ele>34.2</ele>
        <time>2021-05-17T13:37:38Z</time>
      </trkpt>
      <trkpt lat="41.6490820" lon="-8.7832120">
        <ele>34.2</ele>
        <time>2021-05-17T13:37:39Z</time>
      </trkpt>
      <trkpt lat="41.6490820" lon="-8.7832120">
        <ele>34.2</ele>
        <time>2021-05-17T13:37:40Z</time>
      </trkpt>
      <trkpt lat="41.6490820" lon="-8.7832120">
        <ele>34.2</ele>
        <time>2021-05-17T13:37:41Z</time>
      </trkpt>
      <trkpt lat="41.6490820" lon="-8.7832120">
        <ele>34.2</ele>
        <time>2021-05-17T13:37:42Z</time>
      </trkpt>
      <trkpt lat="41.6490820" lon="-8.7832120">
        <ele>34.2</ele>
        <time>2021-05-17T13:37:43Z</time>
      </trkpt>
      <trkpt lat="41.6490820" lon="-8.7832120">
        <ele>34.2</ele>
        <time>2021-05-17T13:37:44Z</time>
      </trkpt>
      <trkpt lat="41.6490820" lon="-8.7832120">
        <ele>34.2</ele>
        <time>2021-05-17T13:37:45Z</time>
      </trkpt>
      <trkpt lat="41.6490820" lon="-8.7832120">
        <ele>34.2</ele>
        <time>2021-05-17T13:37:46Z</time>
      </trkpt>
      <trkpt lat="41.6490820" lon="-8.7832120">
        <ele>34.2</ele>
        <time>2021-05-17T13:37:47Z</time>
      </trkpt>
      <trkpt lat="41.6490820" lon="-8.7832120">
        <ele>34.2</ele>
        <time>2021-05-17T13:37:48Z</time>
      </trkpt>
      <trkpt lat="41.6490820" lon="-8.7832120">
        <ele>34.2</ele>
        <time>2021-05-17T13:37:49Z</time>
      </trkpt>
      <trkpt lat="41.6490820" lon="-8.7832120">
        <ele>34.2</ele>
        <time>2021-05-17T13:37:50Z</time>
      </trkpt>
      <trkpt lat="41.6490820" lon="-8.7832120">
        <ele>34.2</ele>
        <time>2021-05-17T13:37:51Z</time>
      </trkpt>
      <trkpt lat="41.6490820" lon="-8.7832120">
        <ele>34.2</ele>
        <time>2021-05-17T13:37:52Z</time>
      </trkpt>
      <trkpt lat="41.6490820" lon="-8.7832120">
        <ele>34.2</ele>
        <time>2021-05-17T13:37:53Z</time>
      </trkpt>
      <trkpt lat="41.6490820" lon="-8.7832120">
        <ele>34.2</ele>
        <time>2021-05-17T13:37:54Z</time>
      </trkpt>
      <trkpt lat="41.6490820" lon="-8.7832120">
        <ele>34.2</ele>
        <time>2021-05-17T13:37:55Z</time>
      </trkpt>
      <trkpt lat="41.6490820" lon="-8.7832120">
        <ele>34.2</ele>
        <time>2021-05-17T13:37:56Z</time>
      </trkpt>
      <trkpt lat="41.6490820" lon="-8.7832120">
        <ele>34.2</ele>
        <time>2021-05-17T13:37:57Z</time>
      </trkpt>
      <trkpt lat="41.6490820" lon="-8.7832120">
        <ele>34.2</ele>
        <time>2021-05-17T13:37:58Z</time>
      </trkpt>
      <trkpt lat="41.6490820" lon="-8.7832120">
        <ele>34.2</ele>
        <time>2021-05-17T13:37:59Z</time>
      </trkpt>
      <trkpt lat="41.6490820" lon="-8.7832120">
        <ele>34.2</ele>
        <time>2021-05-17T13:38:00Z</time>
      </trkpt>
      <trkpt lat="41.6490820" lon="-8.7832120">
        <ele>34.2</ele>
        <time>2021-05-17T13:38:01Z</time>
      </trkpt>
      <trkpt lat="41.6490820" lon="-8.7832120">
        <ele>34.2</ele>
        <time>2021-05-17T13:38:02Z</time>
      </trkpt>
      <trkpt lat="41.6490820" lon="-8.7832120">
        <ele>34.2</ele>
        <time>2021-05-17T13:38:03Z</time>
      </trkpt>
      <trkpt lat="41.6490820" lon="-8.7832120">
        <ele>34.2</ele>
        <time>2021-05-17T13:38:04Z</time>
      </trkpt>
      <trkpt lat="41.6490820" lon="-8.7832120">
        <ele>34.2</ele>
        <time>2021-05-17T13:38:05Z</time>
      </trkpt>
      <trkpt lat="41.6490820" lon="-8.7832120">
        <ele>34.2</ele>
        <time>2021-05-17T13:38:06Z</time>
      </trkpt>
      <trkpt lat="41.6490820" lon="-8.7832120">
        <ele>34.2</ele>
        <time>2021-05-17T13:38:07Z</time>
      </trkpt>
      <trkpt lat="41.6490820" lon="-8.7832120">
        <ele>34.2</ele>
        <time>2021-05-17T13:38:08Z</time>
      </trkpt>
      <trkpt lat="41.6490820" lon="-8.7832120">
        <ele>34.2</ele>
        <time>2021-05-17T13:38:09Z</time>
      </trkpt>
      <trkpt lat="41.6490820" lon="-8.7832120">
        <ele>34.2</ele>
        <time>2021-05-17T13:38:10Z</time>
      </trkpt>
      <trkpt lat="41.6490820" lon="-8.7832120">
        <ele>34.2</ele>
        <time>2021-05-17T13:38:11Z</time>
      </trkpt>
      <trkpt lat="41.6490820" lon="-8.7832120">
        <ele>34.2</ele>
        <time>2021-05-17T13:38:13Z</time>
      </trkpt>
      <trkpt lat="41.6490820" lon="-8.7832120">
        <ele>34.2</ele>
        <time>2021-05-17T13:38:14Z</time>
      </trkpt>
      <trkpt lat="41.6490670" lon="-8.7831870">
        <ele>34.2</ele>
        <time>2021-05-17T13:38:15Z</time>
      </trkpt>
      <trkpt lat="41.6490650" lon="-8.7831850">
        <ele>34.2</ele>
        <time>2021-05-17T13:38:16Z</time>
      </trkpt>
      <trkpt lat="41.6490630" lon="-8.7831890">
        <ele>34.2</ele>
        <time>2021-05-17T13:38:17Z</time>
      </trkpt>
      <trkpt lat="41.6490630" lon="-8.7831920">
        <ele>34.2</ele>
        <time>2021-05-17T13:38:18Z</time>
      </trkpt>
      <trkpt lat="41.6490660" lon="-8.7831880">
        <ele>34.2</ele>
        <time>2021-05-17T13:38:19Z</time>
      </trkpt>
      <trkpt lat="41.6490660" lon="-8.7831900">
        <ele>34.2</ele>
        <time>2021-05-17T13:38:20Z</time>
      </trkpt>
      <trkpt lat="41.6490670" lon="-8.7831920">
        <ele>34.2</ele>
        <time>2021-05-17T13:38:21Z</time>
      </trkpt>
      <trkpt lat="41.6490660" lon="-8.7831950">
        <ele>34.2</ele>
        <time>2021-05-17T13:38:22Z</time>
      </trkpt>
      <trkpt lat="41.6490670" lon="-8.7831960">
        <ele>34.2</ele>
        <time>2021-05-17T13:38:23Z</time>
      </trkpt>
      <trkpt lat="41.6490690" lon="-8.7831980">
        <ele>34.2</ele>
        <time>2021-05-17T13:38:24Z</time>
      </trkpt>
      <trkpt lat="41.6490690" lon="-8.7831960">
        <ele>34.2</ele>
        <time>2021-05-17T13:38:25Z</time>
      </trkpt>
      <trkpt lat="41.6490720" lon="-8.7831970">
        <ele>34.2</ele>
        <time>2021-05-17T13:38:26Z</time>
      </trkpt>
      <trkpt lat="41.6490730" lon="-8.7831980">
        <ele>34.2</ele>
        <time>2021-05-17T13:38:27Z</time>
      </trkpt>
      <trkpt lat="41.6490740" lon="-8.7831970">
        <ele>34.2</ele>
        <time>2021-05-17T13:38:28Z</time>
      </trkpt>
      <trkpt lat="41.6490750" lon="-8.7832000">
        <ele>34.2</ele>
        <time>2021-05-17T13:38:29Z</time>
      </trkpt>
      <trkpt lat="41.6490750" lon="-8.7831980">
        <ele>34.2</ele>
        <time>2021-05-17T13:38:30Z</time>
      </trkpt>
      <trkpt lat="41.6490750" lon="-8.7831970">
        <ele>34.2</ele>
        <time>2021-05-17T13:38:31Z</time>
      </trkpt>
      <trkpt lat="41.6490780" lon="-8.7832010">
        <ele>34.2</ele>
        <time>2021-05-17T13:38:32Z</time>
      </trkpt>
      <trkpt lat="41.6490800" lon="-8.7832020">
        <ele>34.2</ele>
        <time>2021-05-17T13:38:33Z</time>
      </trkpt>
      <trkpt lat="41.6490850" lon="-8.7832050">
        <ele>34.2</ele>
        <time>2021-05-17T13:38:34Z</time>
      </trkpt>
      <trkpt lat="41.6490860" lon="-8.7832100">
        <ele>34.2</ele>
        <time>2021-05-17T13:38:35Z</time>
      </trkpt>
      <trkpt lat="41.6490870" lon="-8.7832100">
        <ele>34.2</ele>
        <time>2021-05-17T13:38:36Z</time>
      </trkpt>
      <trkpt lat="41.6490880" lon="-8.7832150">
        <ele>34.2</ele>
        <time>2021-05-17T13:38:37Z</time>
      </trkpt>
      <trkpt lat="41.6490920" lon="-8.7832170">
        <ele>34.2</ele>
        <time>2021-05-17T13:38:38Z</time>
      </trkpt>
      <trkpt lat="41.6490930" lon="-8.7832200">
        <ele>34.2</ele>
        <time>2021-05-17T13:38:39Z</time>
      </trkpt>
      <trkpt lat="41.6490910" lon="-8.7832180">
        <ele>34.2</ele>
        <time>2021-05-17T13:38:40Z</time>
      </trkpt>
      <trkpt lat="41.6490930" lon="-8.7832190">
        <ele>34.2</ele>
        <time>2021-05-17T13:38:41Z</time>
      </trkpt>
      <trkpt lat="41.6490890" lon="-8.7832190">
        <ele>34.2</ele>
        <time>2021-05-17T13:38:42Z</time>
      </trkpt>
      <trkpt lat="41.6490930" lon="-8.7832220">
        <ele>34.2</ele>
        <time>2021-05-17T13:38:43Z</time>
      </trkpt>
      <trkpt lat="41.6490930" lon="-8.7832270">
        <ele>34.2</ele>
        <time>2021-05-17T13:38:44Z</time>
      </trkpt>
      <trkpt lat="41.6490940" lon="-8.7832330">
        <ele>34.2</ele>
        <time>2021-05-17T13:38:45Z</time>
      </trkpt>
      <trkpt lat="41.6490960" lon="-8.7832330">
        <ele>34.2</ele>
        <time>2021-05-17T13:38:46Z</time>
      </trkpt>
      <trkpt lat="41.6490930" lon="-8.7832360">
        <ele>34.2</ele>
        <time>2021-05-17T13:38:47Z</time>
      </trkpt>
      <trkpt lat="41.6490920" lon="-8.7832360">
        <ele>34.2</ele>
        <time>2021-05-17T13:38:48Z</time>
      </trkpt>
      <trkpt lat="41.6490950" lon="-8.7832380">
        <ele>34.2</ele>
        <time>2021-05-17T13:38:49Z</time>
      </trkpt>
      <trkpt lat="41.6490950" lon="-8.7832380">
        <ele>34.2</ele>
        <time>2021-05-17T13:38:50Z</time>
      </trkpt>
      <trkpt lat="41.6490960" lon="-8.7832400">
        <ele>34.2</ele>
        <time>2021-05-17T13:38:51Z</time>
      </trkpt>
      <trkpt lat="41.6490930" lon="-8.7832370">
        <ele>34.2</ele>
        <time>2021-05-17T13:38:52Z</time>
      </trkpt>
      <trkpt lat="41.6490850" lon="-8.7832320">
        <ele>34.2</ele>
        <time>2021-05-17T13:38:53Z</time>
      </trkpt>
      <trkpt lat="41.6490880" lon="-8.7832330">
        <ele>34.2</ele>
        <time>2021-05-17T13:38:54Z</time>
      </trkpt>
      <trkpt lat="41.6490850" lon="-8.7832360">
        <ele>34.2</ele>
        <time>2021-05-17T13:38:55Z</time>
      </trkpt>
      <trkpt lat="41.6490850" lon="-8.7832380">
        <ele>34.2</ele>
        <time>2021-05-17T13:38:56Z</time>
      </trkpt>
      <trkpt lat="41.6490870" lon="-8.7832370">
        <ele>34.2</ele>
        <time>2021-05-17T13:38:57Z</time>
      </trkpt>
      <trkpt lat="41.6490860" lon="-8.7832390">
        <ele>34.2</ele>
        <time>2021-05-17T13:38:58Z</time>
      </trkpt>
      <trkpt lat="41.6490860" lon="-8.7832380">
        <ele>34.2</ele>
        <time>2021-05-17T13:38:59Z</time>
      </trkpt>
      <trkpt lat="41.6490860" lon="-8.7832380">
        <ele>34.2</ele>
        <time>2021-05-17T13:39:00Z</time>
      </trkpt>
      <trkpt lat="41.6490800" lon="-8.7832330">
        <ele>34.2</ele>
        <time>2021-05-17T13:39:01Z</time>
      </trkpt>
      <trkpt lat="41.6490730" lon="-8.7832280">
        <ele>34.2</ele>
        <time>2021-05-17T13:39:02Z</time>
      </trkpt>
      <trkpt lat="41.6490680" lon="-8.7832250">
        <ele>34.2</ele>
        <time>2021-05-17T13:39:03Z</time>
      </trkpt>
      <trkpt lat="41.6490690" lon="-8.7832280">
        <ele>34.2</ele>
        <time>2021-05-17T13:39:04Z</time>
      </trkpt>
      <trkpt lat="41.6490610" lon="-8.7832250">
        <ele>34.2</ele>
        <time>2021-05-17T13:39:05Z</time>
      </trkpt>
      <trkpt lat="41.6490610" lon="-8.7832250">
        <ele>34.2</ele>
        <time>2021-05-17T13:39:06Z</time>
      </trkpt>
      <trkpt lat="41.6490610" lon="-8.7832250">
        <ele>34.2</ele>
        <time>2021-05-17T13:39:07Z</time>
      </trkpt>
      <trkpt lat="41.6490610" lon="-8.7832250">
        <ele>34.2</ele>
        <time>2021-05-17T13:39:08Z</time>
      </trkpt>
      <trkpt lat="41.6490610" lon="-8.7832250">
        <ele>34.2</ele>
        <time>2021-05-17T13:39:09Z</time>
      </trkpt>
      <trkpt lat="41.6490610" lon="-8.7832250">
        <ele>34.2</ele>
        <time>2021-05-17T13:39:10Z</time>
      </trkpt>
      <trkpt lat="41.6490610" lon="-8.7832250">
        <ele>34.2</ele>
        <time>2021-05-17T13:39:11Z</time>
      </trkpt>
      <trkpt lat="41.6490610" lon="-8.7832250">
        <ele>34.2</ele>
        <time>2021-05-17T13:39:12Z</time>
      </trkpt>
      <trkpt lat="41.6490610" lon="-8.7832250">
        <ele>34.2</ele>
        <time>2021-05-17T13:39:13Z</time>
      </trkpt>
      <trkpt lat="41.6490260" lon="-8.7832200">
        <ele>34.2</ele>
        <time>2021-05-17T13:39:14Z</time>
      </trkpt>
      <trkpt lat="41.6490260" lon="-8.7832200">
        <ele>34.2</ele>
        <time>2021-05-17T13:39:15Z</time>
      </trkpt>
      <trkpt lat="41.6490250" lon="-8.7832200">
        <ele>34.2</ele>
        <time>2021-05-17T13:39:16Z</time>
      </trkpt>
      <trkpt lat="41.6490250" lon="-8.7832200">
        <ele>34.2</ele>
        <time>2021-05-17T13:39:17Z</time>
      </trkpt>
      <trkpt lat="41.6490210" lon="-8.7832180">
        <ele>34.2</ele>
        <time>2021-05-17T13:39:18Z</time>
      </trkpt>
      <trkpt lat="41.6490210" lon="-8.7832190">
        <ele>34.2</ele>
        <time>2021-05-17T13:39:19Z</time>
      </trkpt>
      <trkpt lat="41.6490210" lon="-8.7832200">
        <ele>34.2</ele>
        <time>2021-05-17T13:39:20Z</time>
      </trkpt>
      <trkpt lat="41.6490210" lon="-8.7832200">
        <ele>34.2</ele>
        <time>2021-05-17T13:39:21Z</time>
      </trkpt>
      <trkpt lat="41.6490210" lon="-8.7832200">
        <ele>34.2</ele>
        <time>2021-05-17T13:39:22Z</time>
      </trkpt>
      <trkpt lat="41.6490210" lon="-8.7832200">
        <ele>34.2</ele>
        <time>2021-05-17T13:39:23Z</time>
      </trkpt>
      <trkpt lat="41.6490210" lon="-8.7832200">
        <ele>34.2</ele>
        <time>2021-05-17T13:39:24Z</time>
      </trkpt>
      <trkpt lat="41.6490210" lon="-8.7832200">
        <ele>34.2</ele>
        <time>2021-05-17T13:39:25Z</time>
      </trkpt>
      <trkpt lat="41.6490210" lon="-8.7832200">
        <ele>34.2</ele>
        <time>2021-05-17T13:39:26Z</time>
      </trkpt>
      <trkpt lat="41.6490210" lon="-8.7832200">
        <ele>34.2</ele>
        <time>2021-05-17T13:39:27Z</time>
      </trkpt>
      <trkpt lat="41.6490240" lon="-8.7832190">
        <ele>34.2</ele>
        <time>2021-05-17T13:39:28Z</time>
      </trkpt>
      <trkpt lat="41.6490240" lon="-8.7832210">
        <ele>34.2</ele>
        <time>2021-05-17T13:39:29Z</time>
      </trkpt>
      <trkpt lat="41.6490240" lon="-8.7832190">
        <ele>34.2</ele>
        <time>2021-05-17T13:39:30Z</time>
      </trkpt>
      <trkpt lat="41.6490250" lon="-8.7832200">
        <ele>34.2</ele>
        <time>2021-05-17T13:39:31Z</time>
      </trkpt>
      <trkpt lat="41.6490280" lon="-8.7832200">
        <ele>34.2</ele>
        <time>2021-05-17T13:39:32Z</time>
      </trkpt>
      <trkpt lat="41.6490290" lon="-8.7832230">
        <ele>34.2</ele>
        <time>2021-05-17T13:39:33Z</time>
      </trkpt>
      <trkpt lat="41.6490310" lon="-8.7832260">
        <ele>34.2</ele>
        <time>2021-05-17T13:39:34Z</time>
      </trkpt>
      <trkpt lat="41.6490330" lon="-8.7832290">
        <ele>34.2</ele>
        <time>2021-05-17T13:39:35Z</time>
      </trkpt>
      <trkpt lat="41.6490360" lon="-8.7832320">
        <ele>34.2</ele>
        <time>2021-05-17T13:39:36Z</time>
      </trkpt>
      <trkpt lat="41.6490390" lon="-8.7832320">
        <ele>34.2</ele>
        <time>2021-05-17T13:39:37Z</time>
      </trkpt>
      <trkpt lat="41.6490440" lon="-8.7832320">
        <ele>34.2</ele>
        <time>2021-05-17T13:39:38Z</time>
      </trkpt>
      <trkpt lat="41.6490470" lon="-8.7832320">
        <ele>34.2</ele>
        <time>2021-05-17T13:39:39Z</time>
      </trkpt>
      <trkpt lat="41.6490500" lon="-8.7832340">
        <ele>34.2</ele>
        <time>2021-05-17T13:39:40Z</time>
      </trkpt>
      <trkpt lat="41.6490550" lon="-8.7832310">
        <ele>34.2</ele>
        <time>2021-05-17T13:39:41Z</time>
      </trkpt>
      <trkpt lat="41.6490560" lon="-8.7832330">
        <ele>34.2</ele>
        <time>2021-05-17T13:39:42Z</time>
      </trkpt>
      <trkpt lat="41.6490570" lon="-8.7832350">
        <ele>34.2</ele>
        <time>2021-05-17T13:39:43Z</time>
      </trkpt>
      <trkpt lat="41.6490570" lon="-8.7832350">
        <ele>34.2</ele>
        <time>2021-05-17T13:39:44Z</time>
      </trkpt>
      <trkpt lat="41.6490570" lon="-8.7832340">
        <ele>34.2</ele>
        <time>2021-05-17T13:39:45Z</time>
      </trkpt>
      <trkpt lat="41.6490570" lon="-8.7832360">
        <ele>34.2</ele>
        <time>2021-05-17T13:39:46Z</time>
      </trkpt>
      <trkpt lat="41.6490570" lon="-8.7832360">
        <ele>34.2</ele>
        <time>2021-05-17T13:39:47Z</time>
      </trkpt>
      <trkpt lat="41.6490580" lon="-8.7832360">
        <ele>34.2</ele>
        <time>2021-05-17T13:39:48Z</time>
      </trkpt>
      <trkpt lat="41.6490580" lon="-8.7832360">
        <ele>34.2</ele>
        <time>2021-05-17T13:39:49Z</time>
      </trkpt>
      <trkpt lat="41.6490580" lon="-8.7832360">
        <ele>34.2</ele>
        <time>2021-05-17T13:39:50Z</time>
      </trkpt>
      <trkpt lat="41.6490580" lon="-8.7832360">
        <ele>34.2</ele>
        <time>2021-05-17T13:39:51Z</time>
      </trkpt>
      <trkpt lat="41.6490600" lon="-8.7832430">
        <ele>34.2</ele>
        <time>2021-05-17T13:39:52Z</time>
      </trkpt>
      <trkpt lat="41.6490550" lon="-8.7832380">
        <ele>34.2</ele>
        <time>2021-05-17T13:39:53Z</time>
      </trkpt>
      <trkpt lat="41.6490520" lon="-8.7832330">
        <ele>34.2</ele>
        <time>2021-05-17T13:39:54Z</time>
      </trkpt>
      <trkpt lat="41.6490560" lon="-8.7832330">
        <ele>34.2</ele>
        <time>2021-05-17T13:39:55Z</time>
      </trkpt>
      <trkpt lat="41.6490560" lon="-8.7832330">
        <ele>34.2</ele>
        <time>2021-05-17T13:39:56Z</time>
      </trkpt>
      <trkpt lat="41.6490560" lon="-8.7832330">
        <ele>34.2</ele>
        <time>2021-05-17T13:39:57Z</time>
      </trkpt>
      <trkpt lat="41.6490560" lon="-8.7832330">
        <ele>34.2</ele>
        <time>2021-05-17T13:39:58Z</time>
      </trkpt>
      <trkpt lat="41.6490650" lon="-8.7832360">
        <ele>34.2</ele>
        <time>2021-05-17T13:39:59Z</time>
      </trkpt>
      <trkpt lat="41.6490660" lon="-8.7832370">
        <ele>34.2</ele>
        <time>2021-05-17T13:40:00Z</time>
      </trkpt>
      <trkpt lat="41.6490660" lon="-8.7832370">
        <ele>34.2</ele>
        <time>2021-05-17T13:40:01Z</time>
      </trkpt>
      <trkpt lat="41.6490670" lon="-8.7832360">
        <ele>34.2</ele>
        <time>2021-05-17T13:40:02Z</time>
      </trkpt>
      <trkpt lat="41.6490660" lon="-8.7832390">
        <ele>34.2</ele>
        <time>2021-05-17T13:40:03Z</time>
      </trkpt>
      <trkpt lat="41.6490660" lon="-8.7832390">
        <ele>34.2</ele>
        <time>2021-05-17T13:40:04Z</time>
      </trkpt>
      <trkpt lat="41.6490660" lon="-8.7832390">
        <ele>34.2</ele>
        <time>2021-05-17T13:40:05Z</time>
      </trkpt>
      <trkpt lat="41.6490660" lon="-8.7832410">
        <ele>34.2</ele>
        <time>2021-05-17T13:40:06Z</time>
      </trkpt>
      <trkpt lat="41.6490660" lon="-8.7832410">
        <ele>34.2</ele>
        <time>2021-05-17T13:40:07Z</time>
      </trkpt>
      <trkpt lat="41.6490660" lon="-8.7832410">
        <ele>34.2</ele>
        <time>2021-05-17T13:40:08Z</time>
      </trkpt>
      <trkpt lat="41.6490660" lon="-8.7832410">
        <ele>34.2</ele>
        <time>2021-05-17T13:40:09Z</time>
      </trkpt>
      <trkpt lat="41.6490660" lon="-8.7832410">
        <ele>34.2</ele>
        <time>2021-05-17T13:40:10Z</time>
      </trkpt>
      <trkpt lat="41.6490660" lon="-8.7832410">
        <ele>34.2</ele>
        <time>2021-05-17T13:40:11Z</time>
      </trkpt>
      <trkpt lat="41.6490660" lon="-8.7832410">
        <ele>34.2</ele>
        <time>2021-05-17T13:40:12Z</time>
      </trkpt>
      <trkpt lat="41.6490660" lon="-8.7832410">
        <ele>34.2</ele>
        <time>2021-05-17T13:40:13Z</time>
      </trkpt>
      <trkpt lat="41.6490750" lon="-8.7832430">
        <ele>34.2</ele>
        <time>2021-05-17T13:40:15Z</time>
      </trkpt>
      <trkpt lat="41.6490740" lon="-8.7832430">
        <ele>34.2</ele>
        <time>2021-05-17T13:40:16Z</time>
      </trkpt>
      <trkpt lat="41.6490740" lon="-8.7832430">
        <ele>34.2</ele>
        <time>2021-05-17T13:40:17Z</time>
      </trkpt>
      <trkpt lat="41.6490740" lon="-8.7832430">
        <ele>34.2</ele>
        <time>2021-05-17T13:40:18Z</time>
      </trkpt>
      <trkpt lat="41.6490740" lon="-8.7832430">
        <ele>34.2</ele>
        <time>2021-05-17T13:40:19Z</time>
      </trkpt>
      <trkpt lat="41.6490740" lon="-8.7832430">
        <ele>34.2</ele>
        <time>2021-05-17T13:40:20Z</time>
      </trkpt>
      <trkpt lat="41.6490740" lon="-8.7832430">
        <ele>34.2</ele>
        <time>2021-05-17T13:40:21Z</time>
      </trkpt>
      <trkpt lat="41.6490740" lon="-8.7832430">
        <ele>34.2</ele>
        <time>2021-05-17T13:40:22Z</time>
      </trkpt>
      <trkpt lat="41.6490740" lon="-8.7832430">
        <ele>34.2</ele>
        <time>2021-05-17T13:40:23Z</time>
      </trkpt>
      <trkpt lat="41.6490840" lon="-8.7832450">
        <ele>34.2</ele>
        <time>2021-05-17T13:40:24Z</time>
      </trkpt>
      <trkpt lat="41.6490840" lon="-8.7832460">
        <ele>34.2</ele>
        <time>2021-05-17T13:40:25Z</time>
      </trkpt>
      <trkpt lat="41.6490840" lon="-8.7832460">
        <ele>34.2</ele>
        <time>2021-05-17T13:40:26Z</time>
      </trkpt>
      <trkpt lat="41.6490840" lon="-8.7832460">
        <ele>34.2</ele>
        <time>2021-05-17T13:40:27Z</time>
      </trkpt>
      <trkpt lat="41.6490840" lon="-8.7832460">
        <ele>34.2</ele>
        <time>2021-05-17T13:40:28Z</time>
      </trkpt>
      <trkpt lat="41.6490840" lon="-8.7832450">
        <ele>34.2</ele>
        <time>2021-05-17T13:40:29Z</time>
      </trkpt>
      <trkpt lat="41.6490840" lon="-8.7832450">
        <ele>34.2</ele>
        <time>2021-05-17T13:40:30Z</time>
      </trkpt>
      <trkpt lat="41.6490840" lon="-8.7832450">
        <ele>34.2</ele>
        <time>2021-05-17T13:40:31Z</time>
      </trkpt>
      <trkpt lat="41.6490840" lon="-8.7832450">
        <ele>34.2</ele>
        <time>2021-05-17T13:40:32Z</time>
      </trkpt>
      <trkpt lat="41.6490840" lon="-8.7832450">
        <ele>34.2</ele>
        <time>2021-05-17T13:40:33Z</time>
      </trkpt>
      <trkpt lat="41.6490840" lon="-8.7832450">
        <ele>34.2</ele>
        <time>2021-05-17T13:40:34Z</time>
      </trkpt>
      <trkpt lat="41.6490840" lon="-8.7832450">
        <ele>34.2</ele>
        <time>2021-05-17T13:40:35Z</time>
      </trkpt>
      <trkpt lat="41.6490830" lon="-8.7832450">
        <ele>34.2</ele>
        <time>2021-05-17T13:40:36Z</time>
      </trkpt>
      <trkpt lat="41.6490830" lon="-8.7832450">
        <ele>34.2</ele>
        <time>2021-05-17T13:40:37Z</time>
      </trkpt>
      <trkpt lat="41.6490830" lon="-8.7832450">
        <ele>34.2</ele>
        <time>2021-05-17T13:40:38Z</time>
      </trkpt>
      <trkpt lat="41.6490830" lon="-8.7832440">
        <ele>34.2</ele>
        <time>2021-05-17T13:40:39Z</time>
      </trkpt>
      <trkpt lat="41.6490830" lon="-8.7832440">
        <ele>34.2</ele>
        <time>2021-05-17T13:40:40Z</time>
      </trkpt>
      <trkpt lat="41.6490830" lon="-8.7832440">
        <ele>34.2</ele>
        <time>2021-05-17T13:40:41Z</time>
      </trkpt>
      <trkpt lat="41.6490830" lon="-8.7832440">
        <ele>34.2</ele>
        <time>2021-05-17T13:40:42Z</time>
      </trkpt>
      <trkpt lat="41.6490830" lon="-8.7832440">
        <ele>34.2</ele>
        <time>2021-05-17T13:40:43Z</time>
      </trkpt>
      <trkpt lat="41.6490830" lon="-8.7832440">
        <ele>34.2</ele>
        <time>2021-05-17T13:40:44Z</time>
      </trkpt>
      <trkpt lat="41.6490830" lon="-8.7832440">
        <ele>34.2</ele>
        <time>2021-05-17T13:40:45Z</time>
      </trkpt>
      <trkpt lat="41.6490830" lon="-8.7832440">
        <ele>34.2</ele>
        <time>2021-05-17T13:40:46Z</time>
      </trkpt>
      <trkpt lat="41.6490830" lon="-8.7832440">
        <ele>34.2</ele>
        <time>2021-05-17T13:40:47Z</time>
      </trkpt>
      <trkpt lat="41.6490830" lon="-8.7832440">
        <ele>34.2</ele>
        <time>2021-05-17T13:40:48Z</time>
      </trkpt>
      <trkpt lat="41.6490830" lon="-8.7832430">
        <ele>34.2</ele>
        <time>2021-05-17T13:40:49Z</time>
      </trkpt>
      <trkpt lat="41.6490830" lon="-8.7832430">
        <ele>34.2</ele>
        <time>2021-05-17T13:40:50Z</time>
      </trkpt>
      <trkpt lat="41.6490830" lon="-8.7832430">
        <ele>34.2</ele>
        <time>2021-05-17T13:40:51Z</time>
      </trkpt>
      <trkpt lat="41.6490830" lon="-8.7832430">
        <ele>34.2</ele>
        <time>2021-05-17T13:40:52Z</time>
      </trkpt>
      <trkpt lat="41.6490830" lon="-8.7832430">
        <ele>34.2</ele>
        <time>2021-05-17T13:40:53Z</time>
      </trkpt>
      <trkpt lat="41.6490830" lon="-8.7832430">
        <ele>34.2</ele>
        <time>2021-05-17T13:40:54Z</time>
      </trkpt>
      <trkpt lat="41.6490830" lon="-8.7832430">
        <ele>34.2</ele>
        <time>2021-05-17T13:40:55Z</time>
      </trkpt>
      <trkpt lat="41.6490830" lon="-8.7832430">
        <ele>34.2</ele>
        <time>2021-05-17T13:40:56Z</time>
      </trkpt>
      <trkpt lat="41.6490830" lon="-8.7832430">
        <ele>34.2</ele>
        <time>2021-05-17T13:40:57Z</time>
      </trkpt>
      <trkpt lat="41.6490830" lon="-8.7832430">
        <ele>34.2</ele>
        <time>2021-05-17T13:40:58Z</time>
      </trkpt>
      <trkpt lat="41.6490830" lon="-8.7832420">
        <ele>34.2</ele>
        <time>2021-05-17T13:40:59Z</time>
      </trkpt>
      <trkpt lat="41.6490820" lon="-8.7832420">
        <ele>34.2</ele>
        <time>2021-05-17T13:41:00Z</time>
      </trkpt>
      <trkpt lat="41.6490820" lon="-8.7832420">
        <ele>34.2</ele>
        <time>2021-05-17T13:41:01Z</time>
      </trkpt>
      <trkpt lat="41.6490820" lon="-8.7832420">
        <ele>34.2</ele>
        <time>2021-05-17T13:41:02Z</time>
      </trkpt>
      <trkpt lat="41.6490820" lon="-8.7832420">
        <ele>34.2</ele>
        <time>2021-05-17T13:41:03Z</time>
      </trkpt>
      <trkpt lat="41.6490820" lon="-8.7832420">
        <ele>34.2</ele>
        <time>2021-05-17T13:41:04Z</time>
      </trkpt>
      <trkpt lat="41.6490820" lon="-8.7832420">
        <ele>34.2</ele>
        <time>2021-05-17T13:41:05Z</time>
      </trkpt>
      <trkpt lat="41.6490820" lon="-8.7832420">
        <ele>34.2</ele>
        <time>2021-05-17T13:41:06Z</time>
      </trkpt>
      <trkpt lat="41.6490820" lon="-8.7832420">
        <ele>34.2</ele>
        <time>2021-05-17T13:41:07Z</time>
      </trkpt>
      <trkpt lat="41.6490820" lon="-8.7832420">
        <ele>34.2</ele>
        <time>2021-05-17T13:41:08Z</time>
      </trkpt>
      <trkpt lat="41.6490820" lon="-8.7832410">
        <ele>34.2</ele>
        <time>2021-05-17T13:41:09Z</time>
      </trkpt>
      <trkpt lat="41.6490820" lon="-8.7832410">
        <ele>34.2</ele>
        <time>2021-05-17T13:41:10Z</time>
      </trkpt>
      <trkpt lat="41.6490820" lon="-8.7832410">
        <ele>34.2</ele>
        <time>2021-05-17T13:41:11Z</time>
      </trkpt>
      <trkpt lat="41.6490820" lon="-8.7832410">
        <ele>34.2</ele>
        <time>2021-05-17T13:41:12Z</time>
      </trkpt>
      <trkpt lat="41.6490820" lon="-8.7832410">
        <ele>34.2</ele>
        <time>2021-05-17T13:41:13Z</time>
      </trkpt>
      <trkpt lat="41.6490820" lon="-8.7832410">
        <ele>34.2</ele>
        <time>2021-05-17T13:41:14Z</time>
      </trkpt>
      <trkpt lat="41.6490820" lon="-8.7832410">
        <ele>34.2</ele>
        <time>2021-05-17T13:41:15Z</time>
      </trkpt>
      <trkpt lat="41.6490820" lon="-8.7832410">
        <ele>34.2</ele>
        <time>2021-05-17T13:41:16Z</time>
      </trkpt>
      <trkpt lat="41.6490820" lon="-8.7832410">
        <ele>34.2</ele>
        <time>2021-05-17T13:41:17Z</time>
      </trkpt>
      <trkpt lat="41.6490820" lon="-8.7832410">
        <ele>34.2</ele>
        <time>2021-05-17T13:41:18Z</time>
      </trkpt>
      <trkpt lat="41.6490820" lon="-8.7832400">
        <ele>34.2</ele>
        <time>2021-05-17T13:41:19Z</time>
      </trkpt>
      <trkpt lat="41.6490820" lon="-8.7832400">
        <ele>34.2</ele>
        <time>2021-05-17T13:41:20Z</time>
      </trkpt>
      <trkpt lat="41.6490820" lon="-8.7832400">
        <ele>34.2</ele>
        <time>2021-05-17T13:41:21Z</time>
      </trkpt>
      <trkpt lat="41.6490820" lon="-8.7832400">
        <ele>34.2</ele>
        <time>2021-05-17T13:41:22Z</time>
      </trkpt>
      <trkpt lat="41.6490810" lon="-8.7832400">
        <ele>34.2</ele>
        <time>2021-05-17T13:41:23Z</time>
      </trkpt>
      <trkpt lat="41.6490810" lon="-8.7832400">
        <ele>34.2</ele>
        <time>2021-05-17T13:41:24Z</time>
      </trkpt>
      <trkpt lat="41.6490810" lon="-8.7832400">
        <ele>34.2</ele>
        <time>2021-05-17T13:41:25Z</time>
      </trkpt>
      <trkpt lat="41.6490810" lon="-8.7832400">
        <ele>34.2</ele>
        <time>2021-05-17T13:41:26Z</time>
      </trkpt>
      <trkpt lat="41.6490810" lon="-8.7832400">
        <ele>34.2</ele>
        <time>2021-05-17T13:41:27Z</time>
      </trkpt>
      <trkpt lat="41.6490810" lon="-8.7832390">
        <ele>34.2</ele>
        <time>2021-05-17T13:41:28Z</time>
      </trkpt>
      <trkpt lat="41.6490810" lon="-8.7832390">
        <ele>34.2</ele>
        <time>2021-05-17T13:41:29Z</time>
      </trkpt>
      <trkpt lat="41.6490810" lon="-8.7832390">
        <ele>34.2</ele>
        <time>2021-05-17T13:41:30Z</time>
      </trkpt>
      <trkpt lat="41.6490810" lon="-8.7832390">
        <ele>34.2</ele>
        <time>2021-05-17T13:41:31Z</time>
      </trkpt>
      <trkpt lat="41.6490810" lon="-8.7832390">
        <ele>34.2</ele>
        <time>2021-05-17T13:41:32Z</time>
      </trkpt>
      <trkpt lat="41.6490810" lon="-8.7832390">
        <ele>34.2</ele>
        <time>2021-05-17T13:41:33Z</time>
      </trkpt>
      <trkpt lat="41.6490810" lon="-8.7832390">
        <ele>34.2</ele>
        <time>2021-05-17T13:41:34Z</time>
      </trkpt>
      <trkpt lat="41.6490810" lon="-8.7832390">
        <ele>34.2</ele>
        <time>2021-05-17T13:41:35Z</time>
      </trkpt>
      <trkpt lat="41.6490810" lon="-8.7832390">
        <ele>34.2</ele>
        <time>2021-05-17T13:41:36Z</time>
      </trkpt>
      <trkpt lat="41.6490810" lon="-8.7832390">
        <ele>34.2</ele>
        <time>2021-05-17T13:41:37Z</time>
      </trkpt>
      <trkpt lat="41.6490810" lon="-8.7832380">
        <ele>34.2</ele>
        <time>2021-05-17T13:41:38Z</time>
      </trkpt>
      <trkpt lat="41.6490810" lon="-8.7832380">
        <ele>34.2</ele>
        <time>2021-05-17T13:41:39Z</time>
      </trkpt>
      <trkpt lat="41.6490810" lon="-8.7832380">
        <ele>34.2</ele>
        <time>2021-05-17T13:41:40Z</time>
      </trkpt>
      <trkpt lat="41.6490810" lon="-8.7832380">
        <ele>34.2</ele>
        <time>2021-05-17T13:41:41Z</time>
      </trkpt>
      <trkpt lat="41.6490810" lon="-8.7832380">
        <ele>34.2</ele>
        <time>2021-05-17T13:41:42Z</time>
      </trkpt>
      <trkpt lat="41.6490810" lon="-8.7832380">
        <ele>34.2</ele>
        <time>2021-05-17T13:41:43Z</time>
      </trkpt>
      <trkpt lat="41.6490810" lon="-8.7832380">
        <ele>34.2</ele>
        <time>2021-05-17T13:41:44Z</time>
      </trkpt>
      <trkpt lat="41.6490810" lon="-8.7832380">
        <ele>34.2</ele>
        <time>2021-05-17T13:41:45Z</time>
      </trkpt>
      <trkpt lat="41.6490810" lon="-8.7832380">
        <ele>34.2</ele>
        <time>2021-05-17T13:41:46Z</time>
      </trkpt>
      <trkpt lat="41.6490800" lon="-8.7832380">
        <ele>34.2</ele>
        <time>2021-05-17T13:41:47Z</time>
      </trkpt>
      <trkpt lat="41.6490800" lon="-8.7832370">
        <ele>34.2</ele>
        <time>2021-05-17T13:41:48Z</time>
      </trkpt>
      <trkpt lat="41.6490800" lon="-8.7832370">
        <ele>34.2</ele>
        <time>2021-05-17T13:41:49Z</time>
      </trkpt>
      <trkpt lat="41.6490800" lon="-8.7832370">
        <ele>34.2</ele>
        <time>2021-05-17T13:41:50Z</time>
      </trkpt>
      <trkpt lat="41.6490800" lon="-8.7832370">
        <ele>34.2</ele>
        <time>2021-05-17T13:41:51Z</time>
      </trkpt>
      <trkpt lat="41.6490800" lon="-8.7832370">
        <ele>34.2</ele>
        <time>2021-05-17T13:41:52Z</time>
      </trkpt>
      <trkpt lat="41.6490800" lon="-8.7832370">
        <ele>34.2</ele>
        <time>2021-05-17T13:41:53Z</time>
      </trkpt>
      <trkpt lat="41.6490800" lon="-8.7832370">
        <ele>34.2</ele>
        <time>2021-05-17T13:41:54Z</time>
      </trkpt>
      <trkpt lat="41.6490800" lon="-8.7832370">
        <ele>34.2</ele>
        <time>2021-05-17T13:41:55Z</time>
      </trkpt>
      <trkpt lat="41.6490800" lon="-8.7832370">
        <ele>34.2</ele>
        <time>2021-05-17T13:41:56Z</time>
      </trkpt>
      <trkpt lat="41.6490800" lon="-8.7832370">
        <ele>34.2</ele>
        <time>2021-05-17T13:41:57Z</time>
      </trkpt>
      <trkpt lat="41.6490800" lon="-8.7832360">
        <ele>34.2</ele>
        <time>2021-05-17T13:41:58Z</time>
      </trkpt>
      <trkpt lat="41.6490800" lon="-8.7832360">
        <ele>34.2</ele>
        <time>2021-05-17T13:41:59Z</time>
      </trkpt>
      <trkpt lat="41.6490800" lon="-8.7832360">
        <ele>34.2</ele>
        <time>2021-05-17T13:42:00Z</time>
      </trkpt>
      <trkpt lat="41.6490800" lon="-8.7832360">
        <ele>34.2</ele>
        <time>2021-05-17T13:42:01Z</time>
      </trkpt>
      <trkpt lat="41.6490800" lon="-8.7832360">
        <ele>34.2</ele>
        <time>2021-05-17T13:42:02Z</time>
      </trkpt>
      <trkpt lat="41.6490800" lon="-8.7832360">
        <ele>34.2</ele>
        <time>2021-05-17T13:42:03Z</time>
      </trkpt>
      <trkpt lat="41.6490800" lon="-8.7832360">
        <ele>34.2</ele>
        <time>2021-05-17T13:42:04Z</time>
      </trkpt>
      <trkpt lat="41.6490800" lon="-8.7832360">
        <ele>34.2</ele>
        <time>2021-05-17T13:42:05Z</time>
      </trkpt>
      <trkpt lat="41.6490800" lon="-8.7832360">
        <ele>34.2</ele>
        <time>2021-05-17T13:42:06Z</time>
      </trkpt>
      <trkpt lat="41.6490800" lon="-8.7832360">
        <ele>34.2</ele>
        <time>2021-05-17T13:42:08Z</time>
      </trkpt>
      <trkpt lat="41.6490800" lon="-8.7832350">
        <ele>34.2</ele>
        <time>2021-05-17T13:42:09Z</time>
      </trkpt>
      <trkpt lat="41.6490800" lon="-8.7832350">
        <ele>34.2</ele>
        <time>2021-05-17T13:42:10Z</time>
      </trkpt>
      <trkpt lat="41.6490790" lon="-8.7832350">
        <ele>34.2</ele>
        <time>2021-05-17T13:42:11Z</time>
      </trkpt>
      <trkpt lat="41.6490790" lon="-8.7832350">
        <ele>34.2</ele>
        <time>2021-05-17T13:42:12Z</time>
      </trkpt>
      <trkpt lat="41.6490790" lon="-8.7832350">
        <ele>34.2</ele>
        <time>2021-05-17T13:42:13Z</time>
      </trkpt>
      <trkpt lat="41.6490790" lon="-8.7832350">
        <ele>34.2</ele>
        <time>2021-05-17T13:42:14Z</time>
      </trkpt>
      <trkpt lat="41.6490790" lon="-8.7832350">
        <ele>34.2</ele>
        <time>2021-05-17T13:42:15Z</time>
      </trkpt>
      <trkpt lat="41.6490790" lon="-8.7832350">
        <ele>34.2</ele>
        <time>2021-05-17T13:42:16Z</time>
      </trkpt>
      <trkpt lat="41.6490790" lon="-8.7832350">
        <ele>34.2</ele>
        <time>2021-05-17T13:42:17Z</time>
      </trkpt>
      <trkpt lat="41.6490790" lon="-8.7832350">
        <ele>34.2</ele>
        <time>2021-05-17T13:42:18Z</time>
      </trkpt>
      <trkpt lat="41.6490790" lon="-8.7832340">
        <ele>34.2</ele>
        <time>2021-05-17T13:42:19Z</time>
      </trkpt>
      <trkpt lat="41.6490790" lon="-8.7832340">
        <ele>34.2</ele>
        <time>2021-05-17T13:42:20Z</time>
      </trkpt>
      <trkpt lat="41.6490790" lon="-8.7832340">
        <ele>34.2</ele>
        <time>2021-05-17T13:42:21Z</time>
      </trkpt>
      <trkpt lat="41.6490790" lon="-8.7832340">
        <ele>34.2</ele>
        <time>2021-05-17T13:42:22Z</time>
      </trkpt>
      <trkpt lat="41.6490790" lon="-8.7832340">
        <ele>34.2</ele>
        <time>2021-05-17T13:42:23Z</time>
      </trkpt>
      <trkpt lat="41.6490790" lon="-8.7832340">
        <ele>34.2</ele>
        <time>2021-05-17T13:42:24Z</time>
      </trkpt>
      <trkpt lat="41.6490790" lon="-8.7832340">
        <ele>34.2</ele>
        <time>2021-05-17T13:42:25Z</time>
      </trkpt>
      <trkpt lat="41.6490790" lon="-8.7832340">
        <ele>34.2</ele>
        <time>2021-05-17T13:42:26Z</time>
      </trkpt>
      <trkpt lat="41.6490790" lon="-8.7832340">
        <ele>34.2</ele>
        <time>2021-05-17T13:42:27Z</time>
      </trkpt>
      <trkpt lat="41.6490790" lon="-8.7832330">
        <ele>34.2</ele>
        <time>2021-05-17T13:42:28Z</time>
      </trkpt>
      <trkpt lat="41.6490790" lon="-8.7832330">
        <ele>34.2</ele>
        <time>2021-05-17T13:42:29Z</time>
      </trkpt>
      <trkpt lat="41.6490790" lon="-8.7832330">
        <ele>34.2</ele>
        <time>2021-05-17T13:42:30Z</time>
      </trkpt>
      <trkpt lat="41.6490790" lon="-8.7832330">
        <ele>34.2</ele>
        <time>2021-05-17T13:42:31Z</time>
      </trkpt>
      <trkpt lat="41.6490790" lon="-8.7832330">
        <ele>34.2</ele>
        <time>2021-05-17T13:42:32Z</time>
      </trkpt>
      <trkpt lat="41.6490790" lon="-8.7832330">
        <ele>34.2</ele>
        <time>2021-05-17T13:42:33Z</time>
      </trkpt>
      <trkpt lat="41.6490780" lon="-8.7832330">
        <ele>34.2</ele>
        <time>2021-05-17T13:42:34Z</time>
      </trkpt>
      <trkpt lat="41.6490780" lon="-8.7832330">
        <ele>34.2</ele>
        <time>2021-05-17T13:42:35Z</time>
      </trkpt>
      <trkpt lat="41.6490780" lon="-8.7832330">
        <ele>34.2</ele>
        <time>2021-05-17T13:42:36Z</time>
      </trkpt>
      <trkpt lat="41.6490780" lon="-8.7832330">
        <ele>34.2</ele>
        <time>2021-05-17T13:42:37Z</time>
      </trkpt>
      <trkpt lat="41.6490780" lon="-8.7832320">
        <ele>34.2</ele>
        <time>2021-05-17T13:42:38Z</time>
      </trkpt>
      <trkpt lat="41.6490780" lon="-8.7832320">
        <ele>34.2</ele>
        <time>2021-05-17T13:42:39Z</time>
      </trkpt>
      <trkpt lat="41.6490780" lon="-8.7832320">
        <ele>34.2</ele>
        <time>2021-05-17T13:42:40Z</time>
      </trkpt>
      <trkpt lat="41.6490780" lon="-8.7832320">
        <ele>34.2</ele>
        <time>2021-05-17T13:42:41Z</time>
      </trkpt>
      <trkpt lat="41.6490780" lon="-8.7832320">
        <ele>34.2</ele>
        <time>2021-05-17T13:42:42Z</time>
      </trkpt>
      <trkpt lat="41.6490780" lon="-8.7832320">
        <ele>34.2</ele>
        <time>2021-05-17T13:42:43Z</time>
      </trkpt>
      <trkpt lat="41.6490780" lon="-8.7832320">
        <ele>34.2</ele>
        <time>2021-05-17T13:42:44Z</time>
      </trkpt>
      <trkpt lat="41.6490780" lon="-8.7832320">
        <ele>34.2</ele>
        <time>2021-05-17T13:42:45Z</time>
      </trkpt>
      <trkpt lat="41.6490780" lon="-8.7832320">
        <ele>34.2</ele>
        <time>2021-05-17T13:42:46Z</time>
      </trkpt>
      <trkpt lat="41.6490780" lon="-8.7832320">
        <ele>34.2</ele>
        <time>2021-05-17T13:42:47Z</time>
      </trkpt>
      <trkpt lat="41.6490780" lon="-8.7832310">
        <ele>34.2</ele>
        <time>2021-05-17T13:42:48Z</time>
      </trkpt>
      <trkpt lat="41.6490780" lon="-8.7832310">
        <ele>34.2</ele>
        <time>2021-05-17T13:42:49Z</time>
      </trkpt>
      <trkpt lat="41.6490780" lon="-8.7832310">
        <ele>34.2</ele>
        <time>2021-05-17T13:42:50Z</time>
      </trkpt>
      <trkpt lat="41.6490780" lon="-8.7832310">
        <ele>34.2</ele>
        <time>2021-05-17T13:42:51Z</time>
      </trkpt>
      <trkpt lat="41.6490780" lon="-8.7832310">
        <ele>34.2</ele>
        <time>2021-05-17T13:42:52Z</time>
      </trkpt>
      <trkpt lat="41.6490780" lon="-8.7832310">
        <ele>34.2</ele>
        <time>2021-05-17T13:42:53Z</time>
      </trkpt>
      <trkpt lat="41.6490780" lon="-8.7832310">
        <ele>34.2</ele>
        <time>2021-05-17T13:42:54Z</time>
      </trkpt>
      <trkpt lat="41.6490780" lon="-8.7832310">
        <ele>34.2</ele>
        <time>2021-05-17T13:42:55Z</time>
      </trkpt>
      <trkpt lat="41.6490780" lon="-8.7832310">
        <ele>34.2</ele>
        <time>2021-05-17T13:42:56Z</time>
      </trkpt>
      <trkpt lat="41.6490780" lon="-8.7832310">
        <ele>34.2</ele>
        <time>2021-05-17T13:42:57Z</time>
      </trkpt>
      <trkpt lat="41.6490770" lon="-8.7832300">
        <ele>34.2</ele>
        <time>2021-05-17T13:42:58Z</time>
      </trkpt>
      <trkpt lat="41.6490770" lon="-8.7832300">
        <ele>34.2</ele>
        <time>2021-05-17T13:42:59Z</time>
      </trkpt>
      <trkpt lat="41.6490770" lon="-8.7832300">
        <ele>34.2</ele>
        <time>2021-05-17T13:43:00Z</time>
      </trkpt>
      <trkpt lat="41.6490770" lon="-8.7832300">
        <ele>34.2</ele>
        <time>2021-05-17T13:43:01Z</time>
      </trkpt>
      <trkpt lat="41.6490770" lon="-8.7832300">
        <ele>34.2</ele>
        <time>2021-05-17T13:43:02Z</time>
      </trkpt>
      <trkpt lat="41.6490770" lon="-8.7832300">
        <ele>34.2</ele>
        <time>2021-05-17T13:43:03Z</time>
      </trkpt>
      <trkpt lat="41.6490770" lon="-8.7832300">
        <ele>34.2</ele>
        <time>2021-05-17T13:43:04Z</time>
      </trkpt>
      <trkpt lat="41.6490770" lon="-8.7832300">
        <ele>34.2</ele>
        <time>2021-05-17T13:43:05Z</time>
      </trkpt>
      <trkpt lat="41.6490770" lon="-8.7832300">
        <ele>34.2</ele>
        <time>2021-05-17T13:43:06Z</time>
      </trkpt>
      <trkpt lat="41.6490770" lon="-8.7832300">
        <ele>34.2</ele>
        <time>2021-05-17T13:43:07Z</time>
      </trkpt>
      <trkpt lat="41.6490770" lon="-8.7832290">
        <ele>34.2</ele>
        <time>2021-05-17T13:43:08Z</time>
      </trkpt>
      <trkpt lat="41.6490770" lon="-8.7832290">
        <ele>34.2</ele>
        <time>2021-05-17T13:43:09Z</time>
      </trkpt>
      <trkpt lat="41.6490770" lon="-8.7832290">
        <ele>34.2</ele>
        <time>2021-05-17T13:43:10Z</time>
      </trkpt>
      <trkpt lat="41.6490770" lon="-8.7832290">
        <ele>34.2</ele>
        <time>2021-05-17T13:43:11Z</time>
      </trkpt>
      <trkpt lat="41.6490770" lon="-8.7832290">
        <ele>34.2</ele>
        <time>2021-05-17T13:43:12Z</time>
      </trkpt>
      <trkpt lat="41.6490770" lon="-8.7832290">
        <ele>34.2</ele>
        <time>2021-05-17T13:43:13Z</time>
      </trkpt>
      <trkpt lat="41.6490770" lon="-8.7832290">
        <ele>34.2</ele>
        <time>2021-05-17T13:43:14Z</time>
      </trkpt>
      <trkpt lat="41.6490770" lon="-8.7832290">
        <ele>34.2</ele>
        <time>2021-05-17T13:43:15Z</time>
      </trkpt>
      <trkpt lat="41.6490770" lon="-8.7832290">
        <ele>34.2</ele>
        <time>2021-05-17T13:43:16Z</time>
      </trkpt>
      <trkpt lat="41.6490770" lon="-8.7832290">
        <ele>34.2</ele>
        <time>2021-05-17T13:43:17Z</time>
      </trkpt>
      <trkpt lat="41.6490770" lon="-8.7832280">
        <ele>34.2</ele>
        <time>2021-05-17T13:43:18Z</time>
      </trkpt>
      <trkpt lat="41.6490770" lon="-8.7832280">
        <ele>34.2</ele>
        <time>2021-05-17T13:43:19Z</time>
      </trkpt>
      <trkpt lat="41.6490770" lon="-8.7832280">
        <ele>34.2</ele>
        <time>2021-05-17T13:43:20Z</time>
      </trkpt>
      <trkpt lat="41.6490760" lon="-8.7832280">
        <ele>34.2</ele>
        <time>2021-05-17T13:43:21Z</time>
      </trkpt>
      <trkpt lat="41.6490760" lon="-8.7832280">
        <ele>34.2</ele>
        <time>2021-05-17T13:43:22Z</time>
      </trkpt>
      <trkpt lat="41.6490760" lon="-8.7832280">
        <ele>34.2</ele>
        <time>2021-05-17T13:43:23Z</time>
      </trkpt>
      <trkpt lat="41.6490760" lon="-8.7832280">
        <ele>34.2</ele>
        <time>2021-05-17T13:43:24Z</time>
      </trkpt>
      <trkpt lat="41.6490760" lon="-8.7832280">
        <ele>34.2</ele>
        <time>2021-05-17T13:43:25Z</time>
      </trkpt>
      <trkpt lat="41.6490760" lon="-8.7832280">
        <ele>34.2</ele>
        <time>2021-05-17T13:43:26Z</time>
      </trkpt>
      <trkpt lat="41.6490760" lon="-8.7832280">
        <ele>34.2</ele>
        <time>2021-05-17T13:43:27Z</time>
      </trkpt>
      <trkpt lat="41.6490760" lon="-8.7832270">
        <ele>34.2</ele>
        <time>2021-05-17T13:43:28Z</time>
      </trkpt>
      <trkpt lat="41.6490760" lon="-8.7832270">
        <ele>34.2</ele>
        <time>2021-05-17T13:43:29Z</time>
      </trkpt>
      <trkpt lat="41.6490760" lon="-8.7832270">
        <ele>34.2</ele>
        <time>2021-05-17T13:43:30Z</time>
      </trkpt>
      <trkpt lat="41.6490760" lon="-8.7832270">
        <ele>34.2</ele>
        <time>2021-05-17T13:43:31Z</time>
      </trkpt>
      <trkpt lat="41.6490760" lon="-8.7832270">
        <ele>34.2</ele>
        <time>2021-05-17T13:43:32Z</time>
      </trkpt>
      <trkpt lat="41.6490760" lon="-8.7832270">
        <ele>34.2</ele>
        <time>2021-05-17T13:43:33Z</time>
      </trkpt>
      <trkpt lat="41.6490760" lon="-8.7832270">
        <ele>34.2</ele>
        <time>2021-05-17T13:43:34Z</time>
      </trkpt>
      <trkpt lat="41.6490760" lon="-8.7832270">
        <ele>34.2</ele>
        <time>2021-05-17T13:43:35Z</time>
      </trkpt>
      <trkpt lat="41.6490760" lon="-8.7832270">
        <ele>34.2</ele>
        <time>2021-05-17T13:43:36Z</time>
      </trkpt>
      <trkpt lat="41.6490760" lon="-8.7832260">
        <ele>34.2</ele>
        <time>2021-05-17T13:43:37Z</time>
      </trkpt>
      <trkpt lat="41.6490760" lon="-8.7832260">
        <ele>34.2</ele>
        <time>2021-05-17T13:43:38Z</time>
      </trkpt>
      <trkpt lat="41.6490760" lon="-8.7832260">
        <ele>34.2</ele>
        <time>2021-05-17T13:43:39Z</time>
      </trkpt>
      <trkpt lat="41.6490760" lon="-8.7832260">
        <ele>34.2</ele>
        <time>2021-05-17T13:43:40Z</time>
      </trkpt>
      <trkpt lat="41.6490760" lon="-8.7832260">
        <ele>34.2</ele>
        <time>2021-05-17T13:43:41Z</time>
      </trkpt>
      <trkpt lat="41.6490760" lon="-8.7832260">
        <ele>34.2</ele>
        <time>2021-05-17T13:43:42Z</time>
      </trkpt>
      <trkpt lat="41.6490760" lon="-8.7832260">
        <ele>34.2</ele>
        <time>2021-05-17T13:43:43Z</time>
      </trkpt>
      <trkpt lat="41.6490760" lon="-8.7832260">
        <ele>34.2</ele>
        <time>2021-05-17T13:43:44Z</time>
      </trkpt>
      <trkpt lat="41.6490750" lon="-8.7832260">
        <ele>34.2</ele>
        <time>2021-05-17T13:43:45Z</time>
      </trkpt>
      <trkpt lat="41.6490750" lon="-8.7832260">
        <ele>34.2</ele>
        <time>2021-05-17T13:43:46Z</time>
      </trkpt>
      <trkpt lat="41.6490750" lon="-8.7832250">
        <ele>34.2</ele>
        <time>2021-05-17T13:43:47Z</time>
      </trkpt>
      <trkpt lat="41.6490750" lon="-8.7832250">
        <ele>34.2</ele>
        <time>2021-05-17T13:43:48Z</time>
      </trkpt>
      <trkpt lat="41.6490750" lon="-8.7832250">
        <ele>34.2</ele>
        <time>2021-05-17T13:43:49Z</time>
      </trkpt>
      <trkpt lat="41.6490750" lon="-8.7832250">
        <ele>34.2</ele>
        <time>2021-05-17T13:43:50Z</time>
      </trkpt>
      <trkpt lat="41.6490750" lon="-8.7832250">
        <ele>34.2</ele>
        <time>2021-05-17T13:43:51Z</time>
      </trkpt>
      <trkpt lat="41.6490750" lon="-8.7832250">
        <ele>34.2</ele>
        <time>2021-05-17T13:43:52Z</time>
      </trkpt>
      <trkpt lat="41.6490750" lon="-8.7832250">
        <ele>34.2</ele>
        <time>2021-05-17T13:43:53Z</time>
      </trkpt>
      <trkpt lat="41.6490750" lon="-8.7832250">
        <ele>34.2</ele>
        <time>2021-05-17T13:43:54Z</time>
      </trkpt>
      <trkpt lat="41.6490750" lon="-8.7832250">
        <ele>34.2</ele>
        <time>2021-05-17T13:43:55Z</time>
      </trkpt>
      <trkpt lat="41.6490750" lon="-8.7832250">
        <ele>34.2</ele>
        <time>2021-05-17T13:43:56Z</time>
      </trkpt>
      <trkpt lat="41.6490750" lon="-8.7832240">
        <ele>34.2</ele>
        <time>2021-05-17T13:43:57Z</time>
      </trkpt>
      <trkpt lat="41.6490750" lon="-8.7832240">
        <ele>34.2</ele>
        <time>2021-05-17T13:43:58Z</time>
      </trkpt>
      <trkpt lat="41.6490750" lon="-8.7832240">
        <ele>34.2</ele>
        <time>2021-05-17T13:43:59Z</time>
      </trkpt>
      <trkpt lat="41.6490750" lon="-8.7832240">
        <ele>34.2</ele>
        <time>2021-05-17T13:44:00Z</time>
      </trkpt>
      <trkpt lat="41.6490750" lon="-8.7832240">
        <ele>34.2</ele>
        <time>2021-05-17T13:44:01Z</time>
      </trkpt>
      <trkpt lat="41.6490750" lon="-8.7832240">
        <ele>34.2</ele>
        <time>2021-05-17T13:44:02Z</time>
      </trkpt>
      <trkpt lat="41.6490750" lon="-8.7832240">
        <ele>34.2</ele>
        <time>2021-05-17T13:44:03Z</time>
      </trkpt>
      <trkpt lat="41.6490750" lon="-8.7832240">
        <ele>34.2</ele>
        <time>2021-05-17T13:44:04Z</time>
      </trkpt>
      <trkpt lat="41.6490750" lon="-8.7832240">
        <ele>34.2</ele>
        <time>2021-05-17T13:44:05Z</time>
      </trkpt>
      <trkpt lat="41.6490750" lon="-8.7832240">
        <ele>34.2</ele>
        <time>2021-05-17T13:44:06Z</time>
      </trkpt>
      <trkpt lat="41.6490750" lon="-8.7832230">
        <ele>34.2</ele>
        <time>2021-05-17T13:44:07Z</time>
      </trkpt>
      <trkpt lat="41.6490740" lon="-8.7832230">
        <ele>34.2</ele>
        <time>2021-05-17T13:44:08Z</time>
      </trkpt>
      <trkpt lat="41.6490740" lon="-8.7832230">
        <ele>34.2</ele>
        <time>2021-05-17T13:44:09Z</time>
      </trkpt>
      <trkpt lat="41.6490740" lon="-8.7832230">
        <ele>34.2</ele>
        <time>2021-05-17T13:44:10Z</time>
      </trkpt>
      <trkpt lat="41.6490740" lon="-8.7832230">
        <ele>34.2</ele>
        <time>2021-05-17T13:44:11Z</time>
      </trkpt>
      <trkpt lat="41.6490740" lon="-8.7832230">
        <ele>34.2</ele>
        <time>2021-05-17T13:44:12Z</time>
      </trkpt>
      <trkpt lat="41.6490740" lon="-8.7832230">
        <ele>34.2</ele>
        <time>2021-05-17T13:44:13Z</time>
      </trkpt>
      <trkpt lat="41.6490740" lon="-8.7832230">
        <ele>34.2</ele>
        <time>2021-05-17T13:44:14Z</time>
      </trkpt>
      <trkpt lat="41.6490740" lon="-8.7832230">
        <ele>34.2</ele>
        <time>2021-05-17T13:44:15Z</time>
      </trkpt>
      <trkpt lat="41.6490740" lon="-8.7832230">
        <ele>34.2</ele>
        <time>2021-05-17T13:44:16Z</time>
      </trkpt>
      <trkpt lat="41.6490740" lon="-8.7832220">
        <ele>34.2</ele>
        <time>2021-05-17T13:44:17Z</time>
      </trkpt>
      <trkpt lat="41.6490740" lon="-8.7832220">
        <ele>34.2</ele>
        <time>2021-05-17T13:44:18Z</time>
      </trkpt>
      <trkpt lat="41.6490740" lon="-8.7832220">
        <ele>34.2</ele>
        <time>2021-05-17T13:44:19Z</time>
      </trkpt>
      <trkpt lat="41.6490740" lon="-8.7832220">
        <ele>34.2</ele>
        <time>2021-05-17T13:44:20Z</time>
      </trkpt>
      <trkpt lat="41.6490740" lon="-8.7832220">
        <ele>34.2</ele>
        <time>2021-05-17T13:44:21Z</time>
      </trkpt>
      <trkpt lat="41.6490740" lon="-8.7832220">
        <ele>34.2</ele>
        <time>2021-05-17T13:44:22Z</time>
      </trkpt>
      <trkpt lat="41.6490740" lon="-8.7832220">
        <ele>34.2</ele>
        <time>2021-05-17T13:44:23Z</time>
      </trkpt>
      <trkpt lat="41.6490740" lon="-8.7832220">
        <ele>34.2</ele>
        <time>2021-05-17T13:44:24Z</time>
      </trkpt>
      <trkpt lat="41.6490740" lon="-8.7832220">
        <ele>34.2</ele>
        <time>2021-05-17T13:44:25Z</time>
      </trkpt>
      <trkpt lat="41.6490740" lon="-8.7832220">
        <ele>34.2</ele>
        <time>2021-05-17T13:44:26Z</time>
      </trkpt>
      <trkpt lat="41.6490740" lon="-8.7832210">
        <ele>34.2</ele>
        <time>2021-05-17T13:44:27Z</time>
      </trkpt>
      <trkpt lat="41.6490740" lon="-8.7832210">
        <ele>34.2</ele>
        <time>2021-05-17T13:44:28Z</time>
      </trkpt>
      <trkpt lat="41.6490740" lon="-8.7832210">
        <ele>34.2</ele>
        <time>2021-05-17T13:44:29Z</time>
      </trkpt>
      <trkpt lat="41.6490740" lon="-8.7832210">
        <ele>34.2</ele>
        <time>2021-05-17T13:44:30Z</time>
      </trkpt>
      <trkpt lat="41.6490740" lon="-8.7832210">
        <ele>34.2</ele>
        <time>2021-05-17T13:44:31Z</time>
      </trkpt>
      <trkpt lat="41.6490730" lon="-8.7832210">
        <ele>34.2</ele>
        <time>2021-05-17T13:44:32Z</time>
      </trkpt>
      <trkpt lat="41.6490730" lon="-8.7832210">
        <ele>34.2</ele>
        <time>2021-05-17T13:44:33Z</time>
      </trkpt>
      <trkpt lat="41.6490730" lon="-8.7832210">
        <ele>34.2</ele>
        <time>2021-05-17T13:44:34Z</time>
      </trkpt>
      <trkpt lat="41.6490730" lon="-8.7832210">
        <ele>34.2</ele>
        <time>2021-05-17T13:44:35Z</time>
      </trkpt>
      <trkpt lat="41.6490730" lon="-8.7832200">
        <ele>34.2</ele>
        <time>2021-05-17T13:44:36Z</time>
      </trkpt>
      <trkpt lat="41.6490730" lon="-8.7832200">
        <ele>34.2</ele>
        <time>2021-05-17T13:44:37Z</time>
      </trkpt>
      <trkpt lat="41.6490730" lon="-8.7832200">
        <ele>34.2</ele>
        <time>2021-05-17T13:44:38Z</time>
      </trkpt>
      <trkpt lat="41.6490730" lon="-8.7832200">
        <ele>34.2</ele>
        <time>2021-05-17T13:44:39Z</time>
      </trkpt>
      <trkpt lat="41.6490730" lon="-8.7832200">
        <ele>34.2</ele>
        <time>2021-05-17T13:44:40Z</time>
      </trkpt>
      <trkpt lat="41.6490730" lon="-8.7832200">
        <ele>34.2</ele>
        <time>2021-05-17T13:44:41Z</time>
      </trkpt>
      <trkpt lat="41.6490730" lon="-8.7832200">
        <ele>34.2</ele>
        <time>2021-05-17T13:44:42Z</time>
      </trkpt>
      <trkpt lat="41.6490730" lon="-8.7832200">
        <ele>34.2</ele>
        <time>2021-05-17T13:44:43Z</time>
      </trkpt>
      <trkpt lat="41.6490730" lon="-8.7832200">
        <ele>34.2</ele>
        <time>2021-05-17T13:44:44Z</time>
      </trkpt>
      <trkpt lat="41.6490730" lon="-8.7832200">
        <ele>34.2</ele>
        <time>2021-05-17T13:44:45Z</time>
      </trkpt>
      <trkpt lat="41.6490730" lon="-8.7832190">
        <ele>34.2</ele>
        <time>2021-05-17T13:44:46Z</time>
      </trkpt>
      <trkpt lat="41.6490730" lon="-8.7832190">
        <ele>34.2</ele>
        <time>2021-05-17T13:44:47Z</time>
      </trkpt>
      <trkpt lat="41.6490730" lon="-8.7832190">
        <ele>34.2</ele>
        <time>2021-05-17T13:44:48Z</time>
      </trkpt>
      <trkpt lat="41.6490730" lon="-8.7832190">
        <ele>34.2</ele>
        <time>2021-05-17T13:44:49Z</time>
      </trkpt>
      <trkpt lat="41.6490730" lon="-8.7832190">
        <ele>34.2</ele>
        <time>2021-05-17T13:44:50Z</time>
      </trkpt>
      <trkpt lat="41.6490730" lon="-8.7832190">
        <ele>34.2</ele>
        <time>2021-05-17T13:44:51Z</time>
      </trkpt>
      <trkpt lat="41.6490730" lon="-8.7832190">
        <ele>34.2</ele>
        <time>2021-05-17T13:44:52Z</time>
      </trkpt>
      <trkpt lat="41.6490730" lon="-8.7832190">
        <ele>34.2</ele>
        <time>2021-05-17T13:44:53Z</time>
      </trkpt>
      <trkpt lat="41.6490730" lon="-8.7832190">
        <ele>34.2</ele>
        <time>2021-05-17T13:44:54Z</time>
      </trkpt>
      <trkpt lat="41.6490720" lon="-8.7832190">
        <ele>34.2</ele>
        <time>2021-05-17T13:44:55Z</time>
      </trkpt>
      <trkpt lat="41.6490720" lon="-8.7832180">
        <ele>34.2</ele>
        <time>2021-05-17T13:44:56Z</time>
      </trkpt>
      <trkpt lat="41.6490720" lon="-8.7832180">
        <ele>34.2</ele>
        <time>2021-05-17T13:44:57Z</time>
      </trkpt>
      <trkpt lat="41.6490720" lon="-8.7832180">
        <ele>34.2</ele>
        <time>2021-05-17T13:44:58Z</time>
      </trkpt>
      <trkpt lat="41.6490720" lon="-8.7832180">
        <ele>34.2</ele>
        <time>2021-05-17T13:44:59Z</time>
      </trkpt>
      <trkpt lat="41.6490720" lon="-8.7832180">
        <ele>34.2</ele>
        <time>2021-05-17T13:45:00Z</time>
      </trkpt>
      <trkpt lat="41.6490720" lon="-8.7832180">
        <ele>34.2</ele>
        <time>2021-05-17T13:45:01Z</time>
      </trkpt>
      <trkpt lat="41.6490720" lon="-8.7832180">
        <ele>34.2</ele>
        <time>2021-05-17T13:45:02Z</time>
      </trkpt>
      <trkpt lat="41.6490720" lon="-8.7832180">
        <ele>34.2</ele>
        <time>2021-05-17T13:45:03Z</time>
      </trkpt>
      <trkpt lat="41.6490720" lon="-8.7832180">
        <ele>34.2</ele>
        <time>2021-05-17T13:45:04Z</time>
      </trkpt>
      <trkpt lat="41.6490720" lon="-8.7832180">
        <ele>34.2</ele>
        <time>2021-05-17T13:45:05Z</time>
      </trkpt>
      <trkpt lat="41.6490720" lon="-8.7832170">
        <ele>34.2</ele>
        <time>2021-05-17T13:45:06Z</time>
      </trkpt>
      <trkpt lat="41.6490720" lon="-8.7832170">
        <ele>34.2</ele>
        <time>2021-05-17T13:45:07Z</time>
      </trkpt>
      <trkpt lat="41.6490720" lon="-8.7832170">
        <ele>34.2</ele>
        <time>2021-05-17T13:45:08Z</time>
      </trkpt>
      <trkpt lat="41.6490720" lon="-8.7832170">
        <ele>34.2</ele>
        <time>2021-05-17T13:45:09Z</time>
      </trkpt>
      <trkpt lat="41.6490720" lon="-8.7832170">
        <ele>34.2</ele>
        <time>2021-05-17T13:45:10Z</time>
      </trkpt>
      <trkpt lat="41.6490720" lon="-8.7832170">
        <ele>34.2</ele>
        <time>2021-05-17T13:45:11Z</time>
      </trkpt>
      <trkpt lat="41.6490720" lon="-8.7832170">
        <ele>34.2</ele>
        <time>2021-05-17T13:45:12Z</time>
      </trkpt>
      <trkpt lat="41.6490720" lon="-8.7832170">
        <ele>34.2</ele>
        <time>2021-05-17T13:45:13Z</time>
      </trkpt>
      <trkpt lat="41.6490720" lon="-8.7832170">
        <ele>34.2</ele>
        <time>2021-05-17T13:45:14Z</time>
      </trkpt>
      <trkpt lat="41.6490720" lon="-8.7832170">
        <ele>34.2</ele>
        <time>2021-05-17T13:45:15Z</time>
      </trkpt>
      <trkpt lat="41.6490720" lon="-8.7832160">
        <ele>34.2</ele>
        <time>2021-05-17T13:45:16Z</time>
      </trkpt>
      <trkpt lat="41.6490720" lon="-8.7832160">
        <ele>34.2</ele>
        <time>2021-05-17T13:45:17Z</time>
      </trkpt>
      <trkpt lat="41.6490710" lon="-8.7832160">
        <ele>34.2</ele>
        <time>2021-05-17T13:45:18Z</time>
      </trkpt>
      <trkpt lat="41.6490710" lon="-8.7832160">
        <ele>34.2</ele>
        <time>2021-05-17T13:45:19Z</time>
      </trkpt>
      <trkpt lat="41.6490710" lon="-8.7832160">
        <ele>34.2</ele>
        <time>2021-05-17T13:45:20Z</time>
      </trkpt>
      <trkpt lat="41.6490710" lon="-8.7832160">
        <ele>34.2</ele>
        <time>2021-05-17T13:45:21Z</time>
      </trkpt>
      <trkpt lat="41.6490710" lon="-8.7832160">
        <ele>34.2</ele>
        <time>2021-05-17T13:45:22Z</time>
      </trkpt>
      <trkpt lat="41.6490710" lon="-8.7832160">
        <ele>34.2</ele>
        <time>2021-05-17T13:45:23Z</time>
      </trkpt>
      <trkpt lat="41.6490710" lon="-8.7832160">
        <ele>34.2</ele>
        <time>2021-05-17T13:45:24Z</time>
      </trkpt>
      <trkpt lat="41.6490710" lon="-8.7832160">
        <ele>34.2</ele>
        <time>2021-05-17T13:45:25Z</time>
      </trkpt>
      <trkpt lat="41.6490710" lon="-8.7832150">
        <ele>34.2</ele>
        <time>2021-05-17T13:45:26Z</time>
      </trkpt>
      <trkpt lat="41.6490710" lon="-8.7832150">
        <ele>34.2</ele>
        <time>2021-05-17T13:45:27Z</time>
      </trkpt>
      <trkpt lat="41.6490710" lon="-8.7832150">
        <ele>34.2</ele>
        <time>2021-05-17T13:45:28Z</time>
      </trkpt>
      <trkpt lat="41.6490710" lon="-8.7832150">
        <ele>34.2</ele>
        <time>2021-05-17T13:45:29Z</time>
      </trkpt>
      <trkpt lat="41.6490710" lon="-8.7832150">
        <ele>34.2</ele>
        <time>2021-05-17T13:45:30Z</time>
      </trkpt>
      <trkpt lat="41.6490710" lon="-8.7832150">
        <ele>34.2</ele>
        <time>2021-05-17T13:45:31Z</time>
      </trkpt>
      <trkpt lat="41.6490710" lon="-8.7832150">
        <ele>34.2</ele>
        <time>2021-05-17T13:45:32Z</time>
      </trkpt>
      <trkpt lat="41.6490710" lon="-8.7832150">
        <ele>34.2</ele>
        <time>2021-05-17T13:45:33Z</time>
      </trkpt>
      <trkpt lat="41.6490710" lon="-8.7832150">
        <ele>34.2</ele>
        <time>2021-05-17T13:45:34Z</time>
      </trkpt>
      <trkpt lat="41.6490710" lon="-8.7832140">
        <ele>34.2</ele>
        <time>2021-05-17T13:45:35Z</time>
      </trkpt>
      <trkpt lat="41.6490710" lon="-8.7832140">
        <ele>34.2</ele>
        <time>2021-05-17T13:45:36Z</time>
      </trkpt>
      <trkpt lat="41.6490710" lon="-8.7832140">
        <ele>34.2</ele>
        <time>2021-05-17T13:45:37Z</time>
      </trkpt>
      <trkpt lat="41.6490710" lon="-8.7832140">
        <ele>34.2</ele>
        <time>2021-05-17T13:45:38Z</time>
      </trkpt>
      <trkpt lat="41.6490710" lon="-8.7832140">
        <ele>34.2</ele>
        <time>2021-05-17T13:45:39Z</time>
      </trkpt>
      <trkpt lat="41.6490710" lon="-8.7832140">
        <ele>34.2</ele>
        <time>2021-05-17T13:45:40Z</time>
      </trkpt>
      <trkpt lat="41.6490710" lon="-8.7832140">
        <ele>34.2</ele>
        <time>2021-05-17T13:45:41Z</time>
      </trkpt>
      <trkpt lat="41.6490700" lon="-8.7832140">
        <ele>34.2</ele>
        <time>2021-05-17T13:45:42Z</time>
      </trkpt>
      <trkpt lat="41.6490700" lon="-8.7832140">
        <ele>34.2</ele>
        <time>2021-05-17T13:45:43Z</time>
      </trkpt>
      <trkpt lat="41.6490700" lon="-8.7832140">
        <ele>34.2</ele>
        <time>2021-05-17T13:45:44Z</time>
      </trkpt>
      <trkpt lat="41.6490700" lon="-8.7832130">
        <ele>34.2</ele>
        <time>2021-05-17T13:45:45Z</time>
      </trkpt>
      <trkpt lat="41.6490700" lon="-8.7832130">
        <ele>34.2</ele>
        <time>2021-05-17T13:45:46Z</time>
      </trkpt>
      <trkpt lat="41.6490700" lon="-8.7832130">
        <ele>34.2</ele>
        <time>2021-05-17T13:45:47Z</time>
      </trkpt>
      <trkpt lat="41.6490700" lon="-8.7832130">
        <ele>34.2</ele>
        <time>2021-05-17T13:45:48Z</time>
      </trkpt>
      <trkpt lat="41.6490700" lon="-8.7832130">
        <ele>34.2</ele>
        <time>2021-05-17T13:45:49Z</time>
      </trkpt>
      <trkpt lat="41.6490700" lon="-8.7832130">
        <ele>34.2</ele>
        <time>2021-05-17T13:45:50Z</time>
      </trkpt>
      <trkpt lat="41.6490700" lon="-8.7832130">
        <ele>34.2</ele>
        <time>2021-05-17T13:45:51Z</time>
      </trkpt>
      <trkpt lat="41.6490700" lon="-8.7832130">
        <ele>34.2</ele>
        <time>2021-05-17T13:45:52Z</time>
      </trkpt>
      <trkpt lat="41.6490700" lon="-8.7832130">
        <ele>34.2</ele>
        <time>2021-05-17T13:45:53Z</time>
      </trkpt>
      <trkpt lat="41.6490700" lon="-8.7832130">
        <ele>34.2</ele>
        <time>2021-05-17T13:45:54Z</time>
      </trkpt>
      <trkpt lat="41.6490700" lon="-8.7832120">
        <ele>34.2</ele>
        <time>2021-05-17T13:45:55Z</time>
      </trkpt>
      <trkpt lat="41.6490700" lon="-8.7832120">
        <ele>34.2</ele>
        <time>2021-05-17T13:45:56Z</time>
      </trkpt>
      <trkpt lat="41.6490700" lon="-8.7832120">
        <ele>34.2</ele>
        <time>2021-05-17T13:45:57Z</time>
      </trkpt>
      <trkpt lat="41.6490700" lon="-8.7832120">
        <ele>34.2</ele>
        <time>2021-05-17T13:45:58Z</time>
      </trkpt>
      <trkpt lat="41.6490700" lon="-8.7832120">
        <ele>34.2</ele>
        <time>2021-05-17T13:45:59Z</time>
      </trkpt>
      <trkpt lat="41.6490700" lon="-8.7832120">
        <ele>34.2</ele>
        <time>2021-05-17T13:46:00Z</time>
      </trkpt>
      <trkpt lat="41.6490700" lon="-8.7832120">
        <ele>34.2</ele>
        <time>2021-05-17T13:46:01Z</time>
      </trkpt>
      <trkpt lat="41.6490700" lon="-8.7832120">
        <ele>34.2</ele>
        <time>2021-05-17T13:46:02Z</time>
      </trkpt>
      <trkpt lat="41.6490700" lon="-8.7832120">
        <ele>34.2</ele>
        <time>2021-05-17T13:46:03Z</time>
      </trkpt>
      <trkpt lat="41.6490700" lon="-8.7832120">
        <ele>34.2</ele>
        <time>2021-05-17T13:46:04Z</time>
      </trkpt>
      <trkpt lat="41.6490690" lon="-8.7832110">
        <ele>34.2</ele>
        <time>2021-05-17T13:46:05Z</time>
      </trkpt>
      <trkpt lat="41.6490690" lon="-8.7832110">
        <ele>34.2</ele>
        <time>2021-05-17T13:46:06Z</time>
      </trkpt>
      <trkpt lat="41.6490690" lon="-8.7832110">
        <ele>34.2</ele>
        <time>2021-05-17T13:46:07Z</time>
      </trkpt>
      <trkpt lat="41.6490690" lon="-8.7832110">
        <ele>34.2</ele>
        <time>2021-05-17T13:46:08Z</time>
      </trkpt>
      <trkpt lat="41.6490690" lon="-8.7832110">
        <ele>34.2</ele>
        <time>2021-05-17T13:46:09Z</time>
      </trkpt>
      <trkpt lat="41.6490690" lon="-8.7832110">
        <ele>34.2</ele>
        <time>2021-05-17T13:46:10Z</time>
      </trkpt>
      <trkpt lat="41.6490690" lon="-8.7832110">
        <ele>34.2</ele>
        <time>2021-05-17T13:46:11Z</time>
      </trkpt>
      <trkpt lat="41.6490690" lon="-8.7832110">
        <ele>34.2</ele>
        <time>2021-05-17T13:46:12Z</time>
      </trkpt>
      <trkpt lat="41.6490690" lon="-8.7832110">
        <ele>34.2</ele>
        <time>2021-05-17T13:46:13Z</time>
      </trkpt>
      <trkpt lat="41.6490690" lon="-8.7832110">
        <ele>34.2</ele>
        <time>2021-05-17T13:46:14Z</time>
      </trkpt>
      <trkpt lat="41.6490690" lon="-8.7832100">
        <ele>34.2</ele>
        <time>2021-05-17T13:46:15Z</time>
      </trkpt>
      <trkpt lat="41.6490690" lon="-8.7832100">
        <ele>34.2</ele>
        <time>2021-05-17T13:46:16Z</time>
      </trkpt>
      <trkpt lat="41.6490690" lon="-8.7832100">
        <ele>34.2</ele>
        <time>2021-05-17T13:46:17Z</time>
      </trkpt>
      <trkpt lat="41.6490690" lon="-8.7832100">
        <ele>34.2</ele>
        <time>2021-05-17T13:46:18Z</time>
      </trkpt>
      <trkpt lat="41.6490690" lon="-8.7832100">
        <ele>34.2</ele>
        <time>2021-05-17T13:46:19Z</time>
      </trkpt>
      <trkpt lat="41.6490690" lon="-8.7832100">
        <ele>34.2</ele>
        <time>2021-05-17T13:46:20Z</time>
      </trkpt>
      <trkpt lat="41.6490690" lon="-8.7832100">
        <ele>34.2</ele>
        <time>2021-05-17T13:46:21Z</time>
      </trkpt>
      <trkpt lat="41.6490690" lon="-8.7832100">
        <ele>34.2</ele>
        <time>2021-05-17T13:46:22Z</time>
      </trkpt>
      <trkpt lat="41.6490690" lon="-8.7832100">
        <ele>34.2</ele>
        <time>2021-05-17T13:46:23Z</time>
      </trkpt>
      <trkpt lat="41.6490690" lon="-8.7832100">
        <ele>34.2</ele>
        <time>2021-05-17T13:46:24Z</time>
      </trkpt>
      <trkpt lat="41.6490690" lon="-8.7832090">
        <ele>34.2</ele>
        <time>2021-05-17T13:46:25Z</time>
      </trkpt>
      <trkpt lat="41.6490690" lon="-8.7832090">
        <ele>34.2</ele>
        <time>2021-05-17T13:46:26Z</time>
      </trkpt>
      <trkpt lat="41.6490690" lon="-8.7832090">
        <ele>34.2</ele>
        <time>2021-05-17T13:46:27Z</time>
      </trkpt>
      <trkpt lat="41.6490690" lon="-8.7832090">
        <ele>34.2</ele>
        <time>2021-05-17T13:46:28Z</time>
      </trkpt>
      <trkpt lat="41.6490680" lon="-8.7832090">
        <ele>34.2</ele>
        <time>2021-05-17T13:46:29Z</time>
      </trkpt>
      <trkpt lat="41.6490680" lon="-8.7832090">
        <ele>34.2</ele>
        <time>2021-05-17T13:46:30Z</time>
      </trkpt>
      <trkpt lat="41.6490680" lon="-8.7832090">
        <ele>34.2</ele>
        <time>2021-05-17T13:46:31Z</time>
      </trkpt>
      <trkpt lat="41.6490680" lon="-8.7832090">
        <ele>34.2</ele>
        <time>2021-05-17T13:46:32Z</time>
      </trkpt>
      <trkpt lat="41.6490680" lon="-8.7832090">
        <ele>34.2</ele>
        <time>2021-05-17T13:46:33Z</time>
      </trkpt>
      <trkpt lat="41.6490680" lon="-8.7832080">
        <ele>34.2</ele>
        <time>2021-05-17T13:46:34Z</time>
      </trkpt>
      <trkpt lat="41.6490680" lon="-8.7832080">
        <ele>34.2</ele>
        <time>2021-05-17T13:46:35Z</time>
      </trkpt>
      <trkpt lat="41.6490680" lon="-8.7832080">
        <ele>34.2</ele>
        <time>2021-05-17T13:46:36Z</time>
      </trkpt>
      <trkpt lat="41.6490680" lon="-8.7832080">
        <ele>34.2</ele>
        <time>2021-05-17T13:46:37Z</time>
      </trkpt>
      <trkpt lat="41.6490680" lon="-8.7832080">
        <ele>34.2</ele>
        <time>2021-05-17T13:46:38Z</time>
      </trkpt>
      <trkpt lat="41.6490680" lon="-8.7832080">
        <ele>34.2</ele>
        <time>2021-05-17T13:46:39Z</time>
      </trkpt>
      <trkpt lat="41.6490680" lon="-8.7832080">
        <ele>34.2</ele>
        <time>2021-05-17T13:46:40Z</time>
      </trkpt>
      <trkpt lat="41.6490680" lon="-8.7832080">
        <ele>34.2</ele>
        <time>2021-05-17T13:46:41Z</time>
      </trkpt>
      <trkpt lat="41.6490680" lon="-8.7832080">
        <ele>34.2</ele>
        <time>2021-05-17T13:46:42Z</time>
      </trkpt>
      <trkpt lat="41.6490680" lon="-8.7832080">
        <ele>34.2</ele>
        <time>2021-05-17T13:46:43Z</time>
      </trkpt>
      <trkpt lat="41.6490680" lon="-8.7832070">
        <ele>34.2</ele>
        <time>2021-05-17T13:46:44Z</time>
      </trkpt>
      <trkpt lat="41.6490680" lon="-8.7832070">
        <ele>34.2</ele>
        <time>2021-05-17T13:46:45Z</time>
      </trkpt>
      <trkpt lat="41.6490680" lon="-8.7832070">
        <ele>34.2</ele>
        <time>2021-05-17T13:46:46Z</time>
      </trkpt>
      <trkpt lat="41.6490680" lon="-8.7832070">
        <ele>34.2</ele>
        <time>2021-05-17T13:46:47Z</time>
      </trkpt>
      <trkpt lat="41.6490680" lon="-8.7832070">
        <ele>34.2</ele>
        <time>2021-05-17T13:46:48Z</time>
      </trkpt>
      <trkpt lat="41.6490680" lon="-8.7832070">
        <ele>34.2</ele>
        <time>2021-05-17T13:46:49Z</time>
      </trkpt>
      <trkpt lat="41.6490680" lon="-8.7832070">
        <ele>34.2</ele>
        <time>2021-05-17T13:46:50Z</time>
      </trkpt>
      <trkpt lat="41.6490680" lon="-8.7832070">
        <ele>34.2</ele>
        <time>2021-05-17T13:46:51Z</time>
      </trkpt>
      <trkpt lat="41.6490670" lon="-8.7832070">
        <ele>34.2</ele>
        <time>2021-05-17T13:46:52Z</time>
      </trkpt>
      <trkpt lat="41.6490670" lon="-8.7832070">
        <ele>34.2</ele>
        <time>2021-05-17T13:46:53Z</time>
      </trkpt>
      <trkpt lat="41.6490670" lon="-8.7832060">
        <ele>34.2</ele>
        <time>2021-05-17T13:46:54Z</time>
      </trkpt>
      <trkpt lat="41.6490670" lon="-8.7832060">
        <ele>34.2</ele>
        <time>2021-05-17T13:46:55Z</time>
      </trkpt>
      <trkpt lat="41.6490670" lon="-8.7832060">
        <ele>34.2</ele>
        <time>2021-05-17T13:46:56Z</time>
      </trkpt>
      <trkpt lat="41.6490670" lon="-8.7832060">
        <ele>34.2</ele>
        <time>2021-05-17T13:46:57Z</time>
      </trkpt>
      <trkpt lat="41.6490670" lon="-8.7832060">
        <ele>34.2</ele>
        <time>2021-05-17T13:46:58Z</time>
      </trkpt>
      <trkpt lat="41.6490670" lon="-8.7832060">
        <ele>34.2</ele>
        <time>2021-05-17T13:46:59Z</time>
      </trkpt>
      <trkpt lat="41.6490670" lon="-8.7832060">
        <ele>34.2</ele>
        <time>2021-05-17T13:47:00Z</time>
      </trkpt>
      <trkpt lat="41.6490670" lon="-8.7832060">
        <ele>34.2</ele>
        <time>2021-05-17T13:47:01Z</time>
      </trkpt>
      <trkpt lat="41.6490670" lon="-8.7832060">
        <ele>34.2</ele>
        <time>2021-05-17T13:47:02Z</time>
      </trkpt>
      <trkpt lat="41.6490670" lon="-8.7832060">
        <ele>34.2</ele>
        <time>2021-05-17T13:47:03Z</time>
      </trkpt>
      <trkpt lat="41.6490670" lon="-8.7832050">
        <ele>34.2</ele>
        <time>2021-05-17T13:47:04Z</time>
      </trkpt>
      <trkpt lat="41.6490670" lon="-8.7832050">
        <ele>34.2</ele>
        <time>2021-05-17T13:47:05Z</time>
      </trkpt>
      <trkpt lat="41.6490670" lon="-8.7832050">
        <ele>34.2</ele>
        <time>2021-05-17T13:47:06Z</time>
      </trkpt>
      <trkpt lat="41.6490670" lon="-8.7832050">
        <ele>34.2</ele>
        <time>2021-05-17T13:47:07Z</time>
      </trkpt>
      <trkpt lat="41.6490670" lon="-8.7832050">
        <ele>34.2</ele>
        <time>2021-05-17T13:47:08Z</time>
      </trkpt>
      <trkpt lat="41.6490670" lon="-8.7832050">
        <ele>34.2</ele>
        <time>2021-05-17T13:47:09Z</time>
      </trkpt>
      <trkpt lat="41.6490670" lon="-8.7832050">
        <ele>34.2</ele>
        <time>2021-05-17T13:47:10Z</time>
      </trkpt>
      <trkpt lat="41.6490670" lon="-8.7832050">
        <ele>34.2</ele>
        <time>2021-05-17T13:47:11Z</time>
      </trkpt>
      <trkpt lat="41.6490670" lon="-8.7832050">
        <ele>34.2</ele>
        <time>2021-05-17T13:47:12Z</time>
      </trkpt>
      <trkpt lat="41.6490670" lon="-8.7832050">
        <ele>34.2</ele>
        <time>2021-05-17T13:47:13Z</time>
      </trkpt>
      <trkpt lat="41.6490670" lon="-8.7832040">
        <ele>34.2</ele>
        <time>2021-05-17T13:47:14Z</time>
      </trkpt>
      <trkpt lat="41.6490670" lon="-8.7832040">
        <ele>34.2</ele>
        <time>2021-05-17T13:47:15Z</time>
      </trkpt>
      <trkpt lat="41.6490660" lon="-8.7832040">
        <ele>34.2</ele>
        <time>2021-05-17T13:47:16Z</time>
      </trkpt>
      <trkpt lat="41.6490660" lon="-8.7832040">
        <ele>34.2</ele>
        <time>2021-05-17T13:47:17Z</time>
      </trkpt>
      <trkpt lat="41.6490660" lon="-8.7832040">
        <ele>34.2</ele>
        <time>2021-05-17T13:47:18Z</time>
      </trkpt>
      <trkpt lat="41.6490660" lon="-8.7832040">
        <ele>34.2</ele>
        <time>2021-05-17T13:47:19Z</time>
      </trkpt>
      <trkpt lat="41.6490660" lon="-8.7832040">
        <ele>34.2</ele>
        <time>2021-05-17T13:47:20Z</time>
      </trkpt>
      <trkpt lat="41.6490660" lon="-8.7832040">
        <ele>34.2</ele>
        <time>2021-05-17T13:47:21Z</time>
      </trkpt>
      <trkpt lat="41.6490660" lon="-8.7832040">
        <ele>34.2</ele>
        <time>2021-05-17T13:47:22Z</time>
      </trkpt>
      <trkpt lat="41.6490660" lon="-8.7832040">
        <ele>34.2</ele>
        <time>2021-05-17T13:47:23Z</time>
      </trkpt>
      <trkpt lat="41.6490660" lon="-8.7832030">
        <ele>34.2</ele>
        <time>2021-05-17T13:47:24Z</time>
      </trkpt>
      <trkpt lat="41.6490660" lon="-8.7832030">
        <ele>34.2</ele>
        <time>2021-05-17T13:47:25Z</time>
      </trkpt>
      <trkpt lat="41.6490660" lon="-8.7832030">
        <ele>34.2</ele>
        <time>2021-05-17T13:47:26Z</time>
      </trkpt>
      <trkpt lat="41.6490660" lon="-8.7832030">
        <ele>34.2</ele>
        <time>2021-05-17T13:47:27Z</time>
      </trkpt>
      <trkpt lat="41.6490660" lon="-8.7832030">
        <ele>34.2</ele>
        <time>2021-05-17T13:47:28Z</time>
      </trkpt>
      <trkpt lat="41.6490660" lon="-8.7832030">
        <ele>34.2</ele>
        <time>2021-05-17T13:47:29Z</time>
      </trkpt>
      <trkpt lat="41.6490660" lon="-8.7832030">
        <ele>34.2</ele>
        <time>2021-05-17T13:47:30Z</time>
      </trkpt>
      <trkpt lat="41.6490660" lon="-8.7832030">
        <ele>34.2</ele>
        <time>2021-05-17T13:47:31Z</time>
      </trkpt>
      <trkpt lat="41.6490660" lon="-8.7832030">
        <ele>34.2</ele>
        <time>2021-05-17T13:47:32Z</time>
      </trkpt>
      <trkpt lat="41.6490660" lon="-8.7832030">
        <ele>34.2</ele>
        <time>2021-05-17T13:47:33Z</time>
      </trkpt>
      <trkpt lat="41.6490660" lon="-8.7832020">
        <ele>34.2</ele>
        <time>2021-05-17T13:47:34Z</time>
      </trkpt>
      <trkpt lat="41.6490660" lon="-8.7832020">
        <ele>34.2</ele>
        <time>2021-05-17T13:47:35Z</time>
      </trkpt>
      <trkpt lat="41.6490660" lon="-8.7832020">
        <ele>34.2</ele>
        <time>2021-05-17T13:47:36Z</time>
      </trkpt>
      <trkpt lat="41.6490660" lon="-8.7832020">
        <ele>34.2</ele>
        <time>2021-05-17T13:47:37Z</time>
      </trkpt>
      <trkpt lat="41.6490660" lon="-8.7832020">
        <ele>34.2</ele>
        <time>2021-05-17T13:47:38Z</time>
      </trkpt>
      <trkpt lat="41.6490650" lon="-8.7832020">
        <ele>34.2</ele>
        <time>2021-05-17T13:47:39Z</time>
      </trkpt>
      <trkpt lat="41.6490650" lon="-8.7832020">
        <ele>34.2</ele>
        <time>2021-05-17T13:47:40Z</time>
      </trkpt>
      <trkpt lat="41.6490650" lon="-8.7832020">
        <ele>34.2</ele>
        <time>2021-05-17T13:47:41Z</time>
      </trkpt>
      <trkpt lat="41.6490650" lon="-8.7832020">
        <ele>34.2</ele>
        <time>2021-05-17T13:47:42Z</time>
      </trkpt>
      <trkpt lat="41.6490650" lon="-8.7832010">
        <ele>34.2</ele>
        <time>2021-05-17T13:47:43Z</time>
      </trkpt>
      <trkpt lat="41.6490650" lon="-8.7832010">
        <ele>34.2</ele>
        <time>2021-05-17T13:47:44Z</time>
      </trkpt>
      <trkpt lat="41.6490650" lon="-8.7832010">
        <ele>34.2</ele>
        <time>2021-05-17T13:47:45Z</time>
      </trkpt>
      <trkpt lat="41.6490650" lon="-8.7832010">
        <ele>34.2</ele>
        <time>2021-05-17T13:47:46Z</time>
      </trkpt>
      <trkpt lat="41.6490650" lon="-8.7832010">
        <ele>34.2</ele>
        <time>2021-05-17T13:47:47Z</time>
      </trkpt>
      <trkpt lat="41.6490650" lon="-8.7832010">
        <ele>34.2</ele>
        <time>2021-05-17T13:47:48Z</time>
      </trkpt>
      <trkpt lat="41.6490650" lon="-8.7832010">
        <ele>34.2</ele>
        <time>2021-05-17T13:47:49Z</time>
      </trkpt>
      <trkpt lat="41.6490650" lon="-8.7832010">
        <ele>34.2</ele>
        <time>2021-05-17T13:47:50Z</time>
      </trkpt>
      <trkpt lat="41.6490650" lon="-8.7832010">
        <ele>34.2</ele>
        <time>2021-05-17T13:47:51Z</time>
      </trkpt>
      <trkpt lat="41.6490650" lon="-8.7832010">
        <ele>34.2</ele>
        <time>2021-05-17T13:47:52Z</time>
      </trkpt>
      <trkpt lat="41.6490650" lon="-8.7832000">
        <ele>34.2</ele>
        <time>2021-05-17T13:47:53Z</time>
      </trkpt>
      <trkpt lat="41.6490650" lon="-8.7832000">
        <ele>34.2</ele>
        <time>2021-05-17T13:47:54Z</time>
      </trkpt>
      <trkpt lat="41.6490650" lon="-8.7832000">
        <ele>34.2</ele>
        <time>2021-05-17T13:47:55Z</time>
      </trkpt>
      <trkpt lat="41.6490650" lon="-8.7832000">
        <ele>34.2</ele>
        <time>2021-05-17T13:47:56Z</time>
      </trkpt>
      <trkpt lat="41.6490650" lon="-8.7832000">
        <ele>34.2</ele>
        <time>2021-05-17T13:47:57Z</time>
      </trkpt>
      <trkpt lat="41.6490650" lon="-8.7832000">
        <ele>34.2</ele>
        <time>2021-05-17T13:47:58Z</time>
      </trkpt>
      <trkpt lat="41.6490650" lon="-8.7832000">
        <ele>34.2</ele>
        <time>2021-05-17T13:47:59Z</time>
      </trkpt>
      <trkpt lat="41.6490650" lon="-8.7832000">
        <ele>34.2</ele>
        <time>2021-05-17T13:48:00Z</time>
      </trkpt>
      <trkpt lat="41.6490650" lon="-8.7832000">
        <ele>34.2</ele>
        <time>2021-05-17T13:48:01Z</time>
      </trkpt>
      <trkpt lat="41.6490640" lon="-8.7832000">
        <ele>34.2</ele>
        <time>2021-05-17T13:48:02Z</time>
      </trkpt>
      <trkpt lat="41.6490640" lon="-8.7831990">
        <ele>34.2</ele>
        <time>2021-05-17T13:48:03Z</time>
      </trkpt>
      <trkpt lat="41.6490640" lon="-8.7831990">
        <ele>34.2</ele>
        <time>2021-05-17T13:48:04Z</time>
      </trkpt>
      <trkpt lat="41.6490640" lon="-8.7831990">
        <ele>34.2</ele>
        <time>2021-05-17T13:48:05Z</time>
      </trkpt>
      <trkpt lat="41.6490640" lon="-8.7831990">
        <ele>34.2</ele>
        <time>2021-05-17T13:48:06Z</time>
      </trkpt>
      <trkpt lat="41.6490640" lon="-8.7831990">
        <ele>34.2</ele>
        <time>2021-05-17T13:48:07Z</time>
      </trkpt>
      <trkpt lat="41.6490640" lon="-8.7831990">
        <ele>34.2</ele>
        <time>2021-05-17T13:48:08Z</time>
      </trkpt>
      <trkpt lat="41.6490640" lon="-8.7831990">
        <ele>34.2</ele>
        <time>2021-05-17T13:48:09Z</time>
      </trkpt>
      <trkpt lat="41.6490640" lon="-8.7831990">
        <ele>34.2</ele>
        <time>2021-05-17T13:48:10Z</time>
      </trkpt>
      <trkpt lat="41.6490640" lon="-8.7831990">
        <ele>34.2</ele>
        <time>2021-05-17T13:48:11Z</time>
      </trkpt>
      <trkpt lat="41.6490640" lon="-8.7831990">
        <ele>34.2</ele>
        <time>2021-05-17T13:48:12Z</time>
      </trkpt>
      <trkpt lat="41.6490640" lon="-8.7831980">
        <ele>34.2</ele>
        <time>2021-05-17T13:48:13Z</time>
      </trkpt>
      <trkpt lat="41.6490640" lon="-8.7831980">
        <ele>34.2</ele>
        <time>2021-05-17T13:48:14Z</time>
      </trkpt>
      <trkpt lat="41.6490640" lon="-8.7831980">
        <ele>34.2</ele>
        <time>2021-05-17T13:48:15Z</time>
      </trkpt>
      <trkpt lat="41.6490640" lon="-8.7831980">
        <ele>34.2</ele>
        <time>2021-05-17T13:48:16Z</time>
      </trkpt>
      <trkpt lat="41.6490640" lon="-8.7831980">
        <ele>34.2</ele>
        <time>2021-05-17T13:48:17Z</time>
      </trkpt>
      <trkpt lat="41.6490640" lon="-8.7831980">
        <ele>34.2</ele>
        <time>2021-05-17T13:48:18Z</time>
      </trkpt>
      <trkpt lat="41.6490640" lon="-8.7831980">
        <ele>34.2</ele>
        <time>2021-05-17T13:48:19Z</time>
      </trkpt>
      <trkpt lat="41.6490640" lon="-8.7831980">
        <ele>34.2</ele>
        <time>2021-05-17T13:48:20Z</time>
      </trkpt>
      <trkpt lat="41.6490640" lon="-8.7831980">
        <ele>34.2</ele>
        <time>2021-05-17T13:48:21Z</time>
      </trkpt>
      <trkpt lat="41.6490640" lon="-8.7831980">
        <ele>34.2</ele>
        <time>2021-05-17T13:48:22Z</time>
      </trkpt>
      <trkpt lat="41.6490640" lon="-8.7831970">
        <ele>34.2</ele>
        <time>2021-05-17T13:48:23Z</time>
      </trkpt>
      <trkpt lat="41.6490640" lon="-8.7831970">
        <ele>34.2</ele>
        <time>2021-05-17T13:48:24Z</time>
      </trkpt>
      <trkpt lat="41.6490640" lon="-8.7831970">
        <ele>34.2</ele>
        <time>2021-05-17T13:48:25Z</time>
      </trkpt>
      <trkpt lat="41.6490630" lon="-8.7831970">
        <ele>34.2</ele>
        <time>2021-05-17T13:48:26Z</time>
      </trkpt>
      <trkpt lat="41.6490630" lon="-8.7831970">
        <ele>34.2</ele>
        <time>2021-05-17T13:48:27Z</time>
      </trkpt>
      <trkpt lat="41.6490630" lon="-8.7831970">
        <ele>34.2</ele>
        <time>2021-05-17T13:48:28Z</time>
      </trkpt>
      <trkpt lat="41.6490630" lon="-8.7831970">
        <ele>34.2</ele>
        <time>2021-05-17T13:48:29Z</time>
      </trkpt>
      <trkpt lat="41.6490630" lon="-8.7831970">
        <ele>34.2</ele>
        <time>2021-05-17T13:48:30Z</time>
      </trkpt>
      <trkpt lat="41.6490630" lon="-8.7831970">
        <ele>34.2</ele>
        <time>2021-05-17T13:48:31Z</time>
      </trkpt>
      <trkpt lat="41.6490630" lon="-8.7831970">
        <ele>34.2</ele>
        <time>2021-05-17T13:48:32Z</time>
      </trkpt>
      <trkpt lat="41.6490630" lon="-8.7831960">
        <ele>34.2</ele>
        <time>2021-05-17T13:48:33Z</time>
      </trkpt>
      <trkpt lat="41.6490630" lon="-8.7831960">
        <ele>34.2</ele>
        <time>2021-05-17T13:48:34Z</time>
      </trkpt>
      <trkpt lat="41.6490630" lon="-8.7831960">
        <ele>34.2</ele>
        <time>2021-05-17T13:48:35Z</time>
      </trkpt>
      <trkpt lat="41.6490630" lon="-8.7831960">
        <ele>34.2</ele>
        <time>2021-05-17T13:48:36Z</time>
      </trkpt>
      <trkpt lat="41.6490630" lon="-8.7831960">
        <ele>34.2</ele>
        <time>2021-05-17T13:48:37Z</time>
      </trkpt>
      <trkpt lat="41.6490700" lon="-8.7831960">
        <ele>34.2</ele>
        <time>2021-05-17T13:48:38Z</time>
      </trkpt>
      <trkpt lat="41.6490710" lon="-8.7831960">
        <ele>34.2</ele>
        <time>2021-05-17T13:48:39Z</time>
      </trkpt>
      <trkpt lat="41.6490710" lon="-8.7831970">
        <ele>34.2</ele>
        <time>2021-05-17T13:48:40Z</time>
      </trkpt>
      <trkpt lat="41.6490710" lon="-8.7831970">
        <ele>34.2</ele>
        <time>2021-05-17T13:48:41Z</time>
      </trkpt>
      <trkpt lat="41.6490710" lon="-8.7831970">
        <ele>34.2</ele>
        <time>2021-05-17T13:48:42Z</time>
      </trkpt>
      <trkpt lat="41.6490720" lon="-8.7831970">
        <ele>34.2</ele>
        <time>2021-05-17T13:48:43Z</time>
      </trkpt>
      <trkpt lat="41.6490720" lon="-8.7831980">
        <ele>34.2</ele>
        <time>2021-05-17T13:48:44Z</time>
      </trkpt>
      <trkpt lat="41.6490720" lon="-8.7831980">
        <ele>34.2</ele>
        <time>2021-05-17T13:48:45Z</time>
      </trkpt>
      <trkpt lat="41.6490720" lon="-8.7831980">
        <ele>34.2</ele>
        <time>2021-05-17T13:48:46Z</time>
      </trkpt>
      <trkpt lat="41.6490730" lon="-8.7831980">
        <ele>34.2</ele>
        <time>2021-05-17T13:48:47Z</time>
      </trkpt>
      <trkpt lat="41.6490730" lon="-8.7831990">
        <ele>34.2</ele>
        <time>2021-05-17T13:48:48Z</time>
      </trkpt>
      <trkpt lat="41.6490730" lon="-8.7831990">
        <ele>34.2</ele>
        <time>2021-05-17T13:48:49Z</time>
      </trkpt>
      <trkpt lat="41.6490740" lon="-8.7831990">
        <ele>34.2</ele>
        <time>2021-05-17T13:48:50Z</time>
      </trkpt>
      <trkpt lat="41.6490740" lon="-8.7831990">
        <ele>34.2</ele>
        <time>2021-05-17T13:48:51Z</time>
      </trkpt>
      <trkpt lat="41.6490740" lon="-8.7832000">
        <ele>34.2</ele>
        <time>2021-05-17T13:48:52Z</time>
      </trkpt>
      <trkpt lat="41.6490740" lon="-8.7832000">
        <ele>34.2</ele>
        <time>2021-05-17T13:48:53Z</time>
      </trkpt>
      <trkpt lat="41.6490750" lon="-8.7832000">
        <ele>34.2</ele>
        <time>2021-05-17T13:48:54Z</time>
      </trkpt>
      <trkpt lat="41.6490750" lon="-8.7832000">
        <ele>34.2</ele>
        <time>2021-05-17T13:48:55Z</time>
      </trkpt>
      <trkpt lat="41.6490750" lon="-8.7832000">
        <ele>34.2</ele>
        <time>2021-05-17T13:48:56Z</time>
      </trkpt>
      <trkpt lat="41.6490750" lon="-8.7832010">
        <ele>34.2</ele>
        <time>2021-05-17T13:48:57Z</time>
      </trkpt>
      <trkpt lat="41.6490760" lon="-8.7832010">
        <ele>34.2</ele>
        <time>2021-05-17T13:48:58Z</time>
      </trkpt>
      <trkpt lat="41.6490760" lon="-8.7832010">
        <ele>34.2</ele>
        <time>2021-05-17T13:48:59Z</time>
      </trkpt>
      <trkpt lat="41.6490760" lon="-8.7832010">
        <ele>34.2</ele>
        <time>2021-05-17T13:49:00Z</time>
      </trkpt>
      <trkpt lat="41.6490770" lon="-8.7832020">
        <ele>34.2</ele>
        <time>2021-05-17T13:49:01Z</time>
      </trkpt>
      <trkpt lat="41.6490770" lon="-8.7832020">
        <ele>34.2</ele>
        <time>2021-05-17T13:49:02Z</time>
      </trkpt>
      <trkpt lat="41.6490770" lon="-8.7832020">
        <ele>34.2</ele>
        <time>2021-05-17T13:49:03Z</time>
      </trkpt>
      <trkpt lat="41.6490770" lon="-8.7832020">
        <ele>34.2</ele>
        <time>2021-05-17T13:49:04Z</time>
      </trkpt>
      <trkpt lat="41.6490780" lon="-8.7832030">
        <ele>34.2</ele>
        <time>2021-05-17T13:49:05Z</time>
      </trkpt>
      <trkpt lat="41.6490780" lon="-8.7832030">
        <ele>34.2</ele>
        <time>2021-05-17T13:49:06Z</time>
      </trkpt>
      <trkpt lat="41.6490780" lon="-8.7832030">
        <ele>34.2</ele>
        <time>2021-05-17T13:49:07Z</time>
      </trkpt>
      <trkpt lat="41.6490780" lon="-8.7832030">
        <ele>34.2</ele>
        <time>2021-05-17T13:49:08Z</time>
      </trkpt>
      <trkpt lat="41.6490790" lon="-8.7832040">
        <ele>34.2</ele>
        <time>2021-05-17T13:49:09Z</time>
      </trkpt>
      <trkpt lat="41.6490790" lon="-8.7832040">
        <ele>34.2</ele>
        <time>2021-05-17T13:49:10Z</time>
      </trkpt>
      <trkpt lat="41.6490790" lon="-8.7832040">
        <ele>34.2</ele>
        <time>2021-05-17T13:49:11Z</time>
      </trkpt>
      <trkpt lat="41.6490800" lon="-8.7832040">
        <ele>34.2</ele>
        <time>2021-05-17T13:49:12Z</time>
      </trkpt>
      <trkpt lat="41.6490800" lon="-8.7832050">
        <ele>34.2</ele>
        <time>2021-05-17T13:49:13Z</time>
      </trkpt>
      <trkpt lat="41.6490800" lon="-8.7832050">
        <ele>34.2</ele>
        <time>2021-05-17T13:49:14Z</time>
      </trkpt>
      <trkpt lat="41.6490800" lon="-8.7832050">
        <ele>34.2</ele>
        <time>2021-05-17T13:49:15Z</time>
      </trkpt>
      <trkpt lat="41.6490810" lon="-8.7832050">
        <ele>34.2</ele>
        <time>2021-05-17T13:49:16Z</time>
      </trkpt>
      <trkpt lat="41.6490810" lon="-8.7832050">
        <ele>34.2</ele>
        <time>2021-05-17T13:49:17Z</time>
      </trkpt>
      <trkpt lat="41.6490810" lon="-8.7832060">
        <ele>34.2</ele>
        <time>2021-05-17T13:49:18Z</time>
      </trkpt>
      <trkpt lat="41.6490810" lon="-8.7832060">
        <ele>34.2</ele>
        <time>2021-05-17T13:49:19Z</time>
      </trkpt>
      <trkpt lat="41.6490820" lon="-8.7832060">
        <ele>34.2</ele>
        <time>2021-05-17T13:49:20Z</time>
      </trkpt>
      <trkpt lat="41.6490820" lon="-8.7832060">
        <ele>34.2</ele>
        <time>2021-05-17T13:49:21Z</time>
      </trkpt>
      <trkpt lat="41.6490820" lon="-8.7832070">
        <ele>34.2</ele>
        <time>2021-05-17T13:49:22Z</time>
      </trkpt>
      <trkpt lat="41.6490830" lon="-8.7832070">
        <ele>34.2</ele>
        <time>2021-05-17T13:49:23Z</time>
      </trkpt>
      <trkpt lat="41.6490830" lon="-8.7832070">
        <ele>34.2</ele>
        <time>2021-05-17T13:49:24Z</time>
      </trkpt>
      <trkpt lat="41.6490830" lon="-8.7832070">
        <ele>34.2</ele>
        <time>2021-05-17T13:49:25Z</time>
      </trkpt>
      <trkpt lat="41.6490830" lon="-8.7832080">
        <ele>34.2</ele>
        <time>2021-05-17T13:49:26Z</time>
      </trkpt>
      <trkpt lat="41.6490840" lon="-8.7832080">
        <ele>34.2</ele>
        <time>2021-05-17T13:49:27Z</time>
      </trkpt>
      <trkpt lat="41.6490840" lon="-8.7832080">
        <ele>34.2</ele>
        <time>2021-05-17T13:49:28Z</time>
      </trkpt>
      <trkpt lat="41.6490840" lon="-8.7832080">
        <ele>34.2</ele>
        <time>2021-05-17T13:49:29Z</time>
      </trkpt>
      <trkpt lat="41.6490840" lon="-8.7832090">
        <ele>34.2</ele>
        <time>2021-05-17T13:49:30Z</time>
      </trkpt>
      <trkpt lat="41.6490850" lon="-8.7832090">
        <ele>34.2</ele>
        <time>2021-05-17T13:49:31Z</time>
      </trkpt>
      <trkpt lat="41.6490850" lon="-8.7832090">
        <ele>34.2</ele>
        <time>2021-05-17T13:49:32Z</time>
      </trkpt>
      <trkpt lat="41.6490850" lon="-8.7832090">
        <ele>34.2</ele>
        <time>2021-05-17T13:49:33Z</time>
      </trkpt>
      <trkpt lat="41.6490860" lon="-8.7832090">
        <ele>34.2</ele>
        <time>2021-05-17T13:49:34Z</time>
      </trkpt>
      <trkpt lat="41.6490860" lon="-8.7832100">
        <ele>34.2</ele>
        <time>2021-05-17T13:49:35Z</time>
      </trkpt>
      <trkpt lat="41.6490860" lon="-8.7832100">
        <ele>34.2</ele>
        <time>2021-05-17T13:49:36Z</time>
      </trkpt>
      <trkpt lat="41.6490860" lon="-8.7832100">
        <ele>34.2</ele>
        <time>2021-05-17T13:49:37Z</time>
      </trkpt>
      <trkpt lat="41.6490870" lon="-8.7832100">
        <ele>34.2</ele>
        <time>2021-05-17T13:49:38Z</time>
      </trkpt>
      <trkpt lat="41.6490870" lon="-8.7832110">
        <ele>34.2</ele>
        <time>2021-05-17T13:49:39Z</time>
      </trkpt>
      <trkpt lat="41.6490870" lon="-8.7832110">
        <ele>34.2</ele>
        <time>2021-05-17T13:49:40Z</time>
      </trkpt>
      <trkpt lat="41.6490870" lon="-8.7832110">
        <ele>34.2</ele>
        <time>2021-05-17T13:49:41Z</time>
      </trkpt>
      <trkpt lat="41.6490880" lon="-8.7832110">
        <ele>34.2</ele>
        <time>2021-05-17T13:49:42Z</time>
      </trkpt>
      <trkpt lat="41.6490880" lon="-8.7832120">
        <ele>34.2</ele>
        <time>2021-05-17T13:49:43Z</time>
      </trkpt>
      <trkpt lat="41.6490880" lon="-8.7832120">
        <ele>34.2</ele>
        <time>2021-05-17T13:49:44Z</time>
      </trkpt>
      <trkpt lat="41.6490890" lon="-8.7832120">
        <ele>34.2</ele>
        <time>2021-05-17T13:49:45Z</time>
      </trkpt>
      <trkpt lat="41.6490890" lon="-8.7832120">
        <ele>34.2</ele>
        <time>2021-05-17T13:49:46Z</time>
      </trkpt>
      <trkpt lat="41.6490890" lon="-8.7832130">
        <ele>34.2</ele>
        <time>2021-05-17T13:49:47Z</time>
      </trkpt>
      <trkpt lat="41.6490890" lon="-8.7832130">
        <ele>34.2</ele>
        <time>2021-05-17T13:49:48Z</time>
      </trkpt>
      <trkpt lat="41.6490900" lon="-8.7832130">
        <ele>34.2</ele>
        <time>2021-05-17T13:49:49Z</time>
      </trkpt>
      <trkpt lat="41.6490900" lon="-8.7832130">
        <ele>34.2</ele>
        <time>2021-05-17T13:49:50Z</time>
      </trkpt>
      <trkpt lat="41.6490900" lon="-8.7832140">
        <ele>34.2</ele>
        <time>2021-05-17T13:49:51Z</time>
      </trkpt>
      <trkpt lat="41.6490900" lon="-8.7832140">
        <ele>34.2</ele>
        <time>2021-05-17T13:49:52Z</time>
      </trkpt>
      <trkpt lat="41.6490910" lon="-8.7832140">
        <ele>34.2</ele>
        <time>2021-05-17T13:49:53Z</time>
      </trkpt>
      <trkpt lat="41.6490910" lon="-8.7832140">
        <ele>34.2</ele>
        <time>2021-05-17T13:49:54Z</time>
      </trkpt>
      <trkpt lat="41.6490910" lon="-8.7832140">
        <ele>34.2</ele>
        <time>2021-05-17T13:49:55Z</time>
      </trkpt>
      <trkpt lat="41.6490920" lon="-8.7832150">
        <ele>34.2</ele>
        <time>2021-05-17T13:49:56Z</time>
      </trkpt>
      <trkpt lat="41.6490920" lon="-8.7832150">
        <ele>34.2</ele>
        <time>2021-05-17T13:49:57Z</time>
      </trkpt>
      <trkpt lat="41.6490920" lon="-8.7832150">
        <ele>34.2</ele>
        <time>2021-05-17T13:49:58Z</time>
      </trkpt>
      <trkpt lat="41.6490920" lon="-8.7832150">
        <ele>34.2</ele>
        <time>2021-05-17T13:49:59Z</time>
      </trkpt>
      <trkpt lat="41.6490930" lon="-8.7832160">
        <ele>34.2</ele>
        <time>2021-05-17T13:50:00Z</time>
      </trkpt>
      <trkpt lat="41.6490930" lon="-8.7832160">
        <ele>34.2</ele>
        <time>2021-05-17T13:50:01Z</time>
      </trkpt>
      <trkpt lat="41.6490930" lon="-8.7832160">
        <ele>34.2</ele>
        <time>2021-05-17T13:50:02Z</time>
      </trkpt>
      <trkpt lat="41.6490930" lon="-8.7832160">
        <ele>34.2</ele>
        <time>2021-05-17T13:50:03Z</time>
      </trkpt>
      <trkpt lat="41.6490940" lon="-8.7832170">
        <ele>34.2</ele>
        <time>2021-05-17T13:50:04Z</time>
      </trkpt>
      <trkpt lat="41.6490940" lon="-8.7832170">
        <ele>34.2</ele>
        <time>2021-05-17T13:50:05Z</time>
      </trkpt>
      <trkpt lat="41.6490940" lon="-8.7832170">
        <ele>34.2</ele>
        <time>2021-05-17T13:50:06Z</time>
      </trkpt>
      <trkpt lat="41.6490940" lon="-8.7832170">
        <ele>34.2</ele>
        <time>2021-05-17T13:50:07Z</time>
      </trkpt>
      <trkpt lat="41.6490950" lon="-8.7832180">
        <ele>34.2</ele>
        <time>2021-05-17T13:50:08Z</time>
      </trkpt>
      <trkpt lat="41.6490950" lon="-8.7832180">
        <ele>34.2</ele>
        <time>2021-05-17T13:50:09Z</time>
      </trkpt>
      <trkpt lat="41.6490950" lon="-8.7832180">
        <ele>34.2</ele>
        <time>2021-05-17T13:50:10Z</time>
      </trkpt>
      <trkpt lat="41.6490960" lon="-8.7832180">
        <ele>34.2</ele>
        <time>2021-05-17T13:50:11Z</time>
      </trkpt>
      <trkpt lat="41.6490960" lon="-8.7832180">
        <ele>34.2</ele>
        <time>2021-05-17T13:50:12Z</time>
      </trkpt>
      <trkpt lat="41.6490960" lon="-8.7832190">
        <ele>34.2</ele>
        <time>2021-05-17T13:50:13Z</time>
      </trkpt>
      <trkpt lat="41.6490960" lon="-8.7832190">
        <ele>34.2</ele>
        <time>2021-05-17T13:50:14Z</time>
      </trkpt>
      <trkpt lat="41.6490970" lon="-8.7832190">
        <ele>34.2</ele>
        <time>2021-05-17T13:50:15Z</time>
      </trkpt>
      <trkpt lat="41.6490970" lon="-8.7832190">
        <ele>34.2</ele>
        <time>2021-05-17T13:50:16Z</time>
      </trkpt>
      <trkpt lat="41.6490970" lon="-8.7832200">
        <ele>34.2</ele>
        <time>2021-05-17T13:50:17Z</time>
      </trkpt>
      <trkpt lat="41.6490970" lon="-8.7832200">
        <ele>34.2</ele>
        <time>2021-05-17T13:50:18Z</time>
      </trkpt>
      <trkpt lat="41.6490980" lon="-8.7832200">
        <ele>34.2</ele>
        <time>2021-05-17T13:50:19Z</time>
      </trkpt>
      <trkpt lat="41.6490980" lon="-8.7832200">
        <ele>34.2</ele>
        <time>2021-05-17T13:50:20Z</time>
      </trkpt>
      <trkpt lat="41.6490980" lon="-8.7832210">
        <ele>34.2</ele>
        <time>2021-05-17T13:50:21Z</time>
      </trkpt>
      <trkpt lat="41.6490990" lon="-8.7832210">
        <ele>34.2</ele>
        <time>2021-05-17T13:50:22Z</time>
      </trkpt>
      <trkpt lat="41.6490990" lon="-8.7832210">
        <ele>34.2</ele>
        <time>2021-05-17T13:50:23Z</time>
      </trkpt>
      <trkpt lat="41.6490990" lon="-8.7832210">
        <ele>34.2</ele>
        <time>2021-05-17T13:50:24Z</time>
      </trkpt>
      <trkpt lat="41.6490990" lon="-8.7832220">
        <ele>34.2</ele>
        <time>2021-05-17T13:50:25Z</time>
      </trkpt>
      <trkpt lat="41.6491000" lon="-8.7832220">
        <ele>34.2</ele>
        <time>2021-05-17T13:50:26Z</time>
      </trkpt>
      <trkpt lat="41.6491000" lon="-8.7832220">
        <ele>34.2</ele>
        <time>2021-05-17T13:50:27Z</time>
      </trkpt>
      <trkpt lat="41.6491000" lon="-8.7832220">
        <ele>34.2</ele>
        <time>2021-05-17T13:50:28Z</time>
      </trkpt>
      <trkpt lat="41.6491000" lon="-8.7832230">
        <ele>34.2</ele>
        <time>2021-05-17T13:50:29Z</time>
      </trkpt>
      <trkpt lat="41.6491010" lon="-8.7832230">
        <ele>34.2</ele>
        <time>2021-05-17T13:50:30Z</time>
      </trkpt>
      <trkpt lat="41.6491010" lon="-8.7832230">
        <ele>34.2</ele>
        <time>2021-05-17T13:50:31Z</time>
      </trkpt>
      <trkpt lat="41.6491010" lon="-8.7832230">
        <ele>34.2</ele>
        <time>2021-05-17T13:50:32Z</time>
      </trkpt>
      <trkpt lat="41.6491020" lon="-8.7832230">
        <ele>34.2</ele>
        <time>2021-05-17T13:50:33Z</time>
      </trkpt>
      <trkpt lat="41.6491020" lon="-8.7832240">
        <ele>34.2</ele>
        <time>2021-05-17T13:50:34Z</time>
      </trkpt>
      <trkpt lat="41.6491020" lon="-8.7832240">
        <ele>34.2</ele>
        <time>2021-05-17T13:50:35Z</time>
      </trkpt>
      <trkpt lat="41.6491020" lon="-8.7832240">
        <ele>34.2</ele>
        <time>2021-05-17T13:50:36Z</time>
      </trkpt>
      <trkpt lat="41.6491030" lon="-8.7832240">
        <ele>34.2</ele>
        <time>2021-05-17T13:50:37Z</time>
      </trkpt>
      <trkpt lat="41.6491030" lon="-8.7832250">
        <ele>34.2</ele>
        <time>2021-05-17T13:50:38Z</time>
      </trkpt>
      <trkpt lat="41.6491030" lon="-8.7832250">
        <ele>34.2</ele>
        <time>2021-05-17T13:50:39Z</time>
      </trkpt>
      <trkpt lat="41.6491030" lon="-8.7832250">
        <ele>34.2</ele>
        <time>2021-05-17T13:50:40Z</time>
      </trkpt>
      <trkpt lat="41.6491040" lon="-8.7832250">
        <ele>34.2</ele>
        <time>2021-05-17T13:50:41Z</time>
      </trkpt>
      <trkpt lat="41.6491040" lon="-8.7832260">
        <ele>34.2</ele>
        <time>2021-05-17T13:50:42Z</time>
      </trkpt>
      <trkpt lat="41.6491040" lon="-8.7832260">
        <ele>34.2</ele>
        <time>2021-05-17T13:50:43Z</time>
      </trkpt>
      <trkpt lat="41.6491050" lon="-8.7832260">
        <ele>34.2</ele>
        <time>2021-05-17T13:50:44Z</time>
      </trkpt>
      <trkpt lat="41.6491050" lon="-8.7832260">
        <ele>34.2</ele>
        <time>2021-05-17T13:50:45Z</time>
      </trkpt>
      <trkpt lat="41.6491050" lon="-8.7832270">
        <ele>34.2</ele>
        <time>2021-05-17T13:50:46Z</time>
      </trkpt>
      <trkpt lat="41.6491050" lon="-8.7832270">
        <ele>34.2</ele>
        <time>2021-05-17T13:50:47Z</time>
      </trkpt>
      <trkpt lat="41.6491060" lon="-8.7832270">
        <ele>34.2</ele>
        <time>2021-05-17T13:50:48Z</time>
      </trkpt>
      <trkpt lat="41.6491060" lon="-8.7832270">
        <ele>34.2</ele>
        <time>2021-05-17T13:50:49Z</time>
      </trkpt>
      <trkpt lat="41.6491060" lon="-8.7832270">
        <ele>34.2</ele>
        <time>2021-05-17T13:50:50Z</time>
      </trkpt>
      <trkpt lat="41.6491060" lon="-8.7832280">
        <ele>34.2</ele>
        <time>2021-05-17T13:50:51Z</time>
      </trkpt>
      <trkpt lat="41.6491070" lon="-8.7832280">
        <ele>34.2</ele>
        <time>2021-05-17T13:50:52Z</time>
      </trkpt>
      <trkpt lat="41.6491070" lon="-8.7832280">
        <ele>34.2</ele>
        <time>2021-05-17T13:50:53Z</time>
      </trkpt>
      <trkpt lat="41.6491070" lon="-8.7832280">
        <ele>34.2</ele>
        <time>2021-05-17T13:50:54Z</time>
      </trkpt>
      <trkpt lat="41.6491080" lon="-8.7832290">
        <ele>34.2</ele>
        <time>2021-05-17T13:50:55Z</time>
      </trkpt>
      <trkpt lat="41.6491080" lon="-8.7832290">
        <ele>34.2</ele>
        <time>2021-05-17T13:50:56Z</time>
      </trkpt>
      <trkpt lat="41.6491080" lon="-8.7832290">
        <ele>34.2</ele>
        <time>2021-05-17T13:50:57Z</time>
      </trkpt>
      <trkpt lat="41.6491080" lon="-8.7832290">
        <ele>34.2</ele>
        <time>2021-05-17T13:50:58Z</time>
      </trkpt>
      <trkpt lat="41.6491090" lon="-8.7832300">
        <ele>34.2</ele>
        <time>2021-05-17T13:50:59Z</time>
      </trkpt>
      <trkpt lat="41.6491090" lon="-8.7832300">
        <ele>34.2</ele>
        <time>2021-05-17T13:51:00Z</time>
      </trkpt>
      <trkpt lat="41.6491090" lon="-8.7832300">
        <ele>34.2</ele>
        <time>2021-05-17T13:51:01Z</time>
      </trkpt>
      <trkpt lat="41.6491090" lon="-8.7832300">
        <ele>34.2</ele>
        <time>2021-05-17T13:51:02Z</time>
      </trkpt>
      <trkpt lat="41.6491100" lon="-8.7832310">
        <ele>34.2</ele>
        <time>2021-05-17T13:51:03Z</time>
      </trkpt>
      <trkpt lat="41.6491100" lon="-8.7832310">
        <ele>34.2</ele>
        <time>2021-05-17T13:51:04Z</time>
      </trkpt>
      <trkpt lat="41.6491100" lon="-8.7832310">
        <ele>34.2</ele>
        <time>2021-05-17T13:51:05Z</time>
      </trkpt>
      <trkpt lat="41.6491110" lon="-8.7832310">
        <ele>34.2</ele>
        <time>2021-05-17T13:51:06Z</time>
      </trkpt>
      <trkpt lat="41.6491110" lon="-8.7832320">
        <ele>34.2</ele>
        <time>2021-05-17T13:51:07Z</time>
      </trkpt>
      <trkpt lat="41.6491110" lon="-8.7832320">
        <ele>34.2</ele>
        <time>2021-05-17T13:51:08Z</time>
      </trkpt>
      <trkpt lat="41.6491110" lon="-8.7832320">
        <ele>34.2</ele>
        <time>2021-05-17T13:51:09Z</time>
      </trkpt>
      <trkpt lat="41.6491120" lon="-8.7832320">
        <ele>34.2</ele>
        <time>2021-05-17T13:51:10Z</time>
      </trkpt>
      <trkpt lat="41.6491120" lon="-8.7832320">
        <ele>34.2</ele>
        <time>2021-05-17T13:51:11Z</time>
      </trkpt>
      <trkpt lat="41.6491120" lon="-8.7832330">
        <ele>34.2</ele>
        <time>2021-05-17T13:51:12Z</time>
      </trkpt>
      <trkpt lat="41.6491120" lon="-8.7832330">
        <ele>34.2</ele>
        <time>2021-05-17T13:51:13Z</time>
      </trkpt>
      <trkpt lat="41.6491130" lon="-8.7832330">
        <ele>34.2</ele>
        <time>2021-05-17T13:51:14Z</time>
      </trkpt>
      <trkpt lat="41.6491130" lon="-8.7832330">
        <ele>34.2</ele>
        <time>2021-05-17T13:51:15Z</time>
      </trkpt>
      <trkpt lat="41.6491130" lon="-8.7832340">
        <ele>34.2</ele>
        <time>2021-05-17T13:51:16Z</time>
      </trkpt>
      <trkpt lat="41.6491140" lon="-8.7832340">
        <ele>34.2</ele>
        <time>2021-05-17T13:51:17Z</time>
      </trkpt>
      <trkpt lat="41.6491140" lon="-8.7832340">
        <ele>34.2</ele>
        <time>2021-05-17T13:51:18Z</time>
      </trkpt>
      <trkpt lat="41.6491140" lon="-8.7832340">
        <ele>34.2</ele>
        <time>2021-05-17T13:51:19Z</time>
      </trkpt>
      <trkpt lat="41.6491140" lon="-8.7832350">
        <ele>34.2</ele>
        <time>2021-05-17T13:51:20Z</time>
      </trkpt>
      <trkpt lat="41.6491150" lon="-8.7832350">
        <ele>34.2</ele>
        <time>2021-05-17T13:51:21Z</time>
      </trkpt>
      <trkpt lat="41.6491150" lon="-8.7832350">
        <ele>34.2</ele>
        <time>2021-05-17T13:51:22Z</time>
      </trkpt>
      <trkpt lat="41.6491150" lon="-8.7832350">
        <ele>34.2</ele>
        <time>2021-05-17T13:51:23Z</time>
      </trkpt>
      <trkpt lat="41.6491150" lon="-8.7832360">
        <ele>34.2</ele>
        <time>2021-05-17T13:51:24Z</time>
      </trkpt>
      <trkpt lat="41.6491160" lon="-8.7832360">
        <ele>34.2</ele>
        <time>2021-05-17T13:51:25Z</time>
      </trkpt>
      <trkpt lat="41.6491160" lon="-8.7832360">
        <ele>34.2</ele>
        <time>2021-05-17T13:51:26Z</time>
      </trkpt>
      <trkpt lat="41.6491160" lon="-8.7832350">
        <ele>34.2</ele>
        <time>2021-05-17T13:51:27Z</time>
      </trkpt>
      <trkpt lat="41.6491160" lon="-8.7832350">
        <ele>34.2</ele>
        <time>2021-05-17T13:51:28Z</time>
      </trkpt>
      <trkpt lat="41.6491160" lon="-8.7832350">
        <ele>34.2</ele>
        <time>2021-05-17T13:51:29Z</time>
      </trkpt>
      <trkpt lat="41.6491160" lon="-8.7832350">
        <ele>34.2</ele>
        <time>2021-05-17T13:51:30Z</time>
      </trkpt>
      <trkpt lat="41.6491160" lon="-8.7832340">
        <ele>34.2</ele>
        <time>2021-05-17T13:51:31Z</time>
      </trkpt>
      <trkpt lat="41.6491160" lon="-8.7832340">
        <ele>34.2</ele>
        <time>2021-05-17T13:51:32Z</time>
      </trkpt>
      <trkpt lat="41.6491150" lon="-8.7832340">
        <ele>34.2</ele>
        <time>2021-05-17T13:51:33Z</time>
      </trkpt>
      <trkpt lat="41.6491150" lon="-8.7832340">
        <ele>34.2</ele>
        <time>2021-05-17T13:51:34Z</time>
      </trkpt>
      <trkpt lat="41.6491150" lon="-8.7832340">
        <ele>34.2</ele>
        <time>2021-05-17T13:51:35Z</time>
      </trkpt>
      <trkpt lat="41.6491150" lon="-8.7832340">
        <ele>34.2</ele>
        <time>2021-05-17T13:51:36Z</time>
      </trkpt>
      <trkpt lat="41.6491150" lon="-8.7832340">
        <ele>34.2</ele>
        <time>2021-05-17T13:51:37Z</time>
      </trkpt>
      <trkpt lat="41.6491150" lon="-8.7832340">
        <ele>34.2</ele>
        <time>2021-05-17T13:51:38Z</time>
      </trkpt>
      <trkpt lat="41.6491150" lon="-8.7832340">
        <ele>34.2</ele>
        <time>2021-05-17T13:51:39Z</time>
      </trkpt>
      <trkpt lat="41.6491150" lon="-8.7832330">
        <ele>34.2</ele>
        <time>2021-05-17T13:51:40Z</time>
      </trkpt>
      <trkpt lat="41.6491150" lon="-8.7832330">
        <ele>34.2</ele>
        <time>2021-05-17T13:51:41Z</time>
      </trkpt>
      <trkpt lat="41.6491150" lon="-8.7832330">
        <ele>34.2</ele>
        <time>2021-05-17T13:51:42Z</time>
      </trkpt>
      <trkpt lat="41.6491150" lon="-8.7832330">
        <ele>34.2</ele>
        <time>2021-05-17T13:51:43Z</time>
      </trkpt>
      <trkpt lat="41.6491150" lon="-8.7832330">
        <ele>34.2</ele>
        <time>2021-05-17T13:51:44Z</time>
      </trkpt>
      <trkpt lat="41.6491150" lon="-8.7832330">
        <ele>34.2</ele>
        <time>2021-05-17T13:51:45Z</time>
      </trkpt>
      <trkpt lat="41.6491140" lon="-8.7832330">
        <ele>34.2</ele>
        <time>2021-05-17T13:51:46Z</time>
      </trkpt>
      <trkpt lat="41.6491140" lon="-8.7832330">
        <ele>34.2</ele>
        <time>2021-05-17T13:51:47Z</time>
      </trkpt>
      <trkpt lat="41.6491140" lon="-8.7832330">
        <ele>34.2</ele>
        <time>2021-05-17T13:51:48Z</time>
      </trkpt>
      <trkpt lat="41.6491140" lon="-8.7832320">
        <ele>34.2</ele>
        <time>2021-05-17T13:51:49Z</time>
      </trkpt>
      <trkpt lat="41.6491140" lon="-8.7832320">
        <ele>34.2</ele>
        <time>2021-05-17T13:51:50Z</time>
      </trkpt>
      <trkpt lat="41.6491140" lon="-8.7832320">
        <ele>34.2</ele>
        <time>2021-05-17T13:51:51Z</time>
      </trkpt>
      <trkpt lat="41.6491140" lon="-8.7832320">
        <ele>34.2</ele>
        <time>2021-05-17T13:51:52Z</time>
      </trkpt>
      <trkpt lat="41.6491140" lon="-8.7832320">
        <ele>34.2</ele>
        <time>2021-05-17T13:51:53Z</time>
      </trkpt>
      <trkpt lat="41.6491140" lon="-8.7832320">
        <ele>34.2</ele>
        <time>2021-05-17T13:51:54Z</time>
      </trkpt>
      <trkpt lat="41.6491140" lon="-8.7832320">
        <ele>34.2</ele>
        <time>2021-05-17T13:51:55Z</time>
      </trkpt>
      <trkpt lat="41.6491140" lon="-8.7832320">
        <ele>34.2</ele>
        <time>2021-05-17T13:51:56Z</time>
      </trkpt>
      <trkpt lat="41.6491140" lon="-8.7832320">
        <ele>34.2</ele>
        <time>2021-05-17T13:51:57Z</time>
      </trkpt>
      <trkpt lat="41.6491140" lon="-8.7832320">
        <ele>34.2</ele>
        <time>2021-05-17T13:51:58Z</time>
      </trkpt>
      <trkpt lat="41.6491140" lon="-8.7832310">
        <ele>34.2</ele>
        <time>2021-05-17T13:51:59Z</time>
      </trkpt>
      <trkpt lat="41.6491130" lon="-8.7832310">
        <ele>34.2</ele>
        <time>2021-05-17T13:52:00Z</time>
      </trkpt>
      <trkpt lat="41.6491130" lon="-8.7832310">
        <ele>34.2</ele>
        <time>2021-05-17T13:52:01Z</time>
      </trkpt>
      <trkpt lat="41.6491130" lon="-8.7832310">
        <ele>34.2</ele>
        <time>2021-05-17T13:52:02Z</time>
      </trkpt>
      <trkpt lat="41.6491130" lon="-8.7832310">
        <ele>34.2</ele>
        <time>2021-05-17T13:52:03Z</time>
      </trkpt>
      <trkpt lat="41.6491130" lon="-8.7832310">
        <ele>34.2</ele>
        <time>2021-05-17T13:52:04Z</time>
      </trkpt>
      <trkpt lat="41.6491130" lon="-8.7832310">
        <ele>34.2</ele>
        <time>2021-05-17T13:52:05Z</time>
      </trkpt>
      <trkpt lat="41.6491130" lon="-8.7832310">
        <ele>34.2</ele>
        <time>2021-05-17T13:52:06Z</time>
      </trkpt>
      <trkpt lat="41.6491130" lon="-8.7832310">
        <ele>34.2</ele>
        <time>2021-05-17T13:52:07Z</time>
      </trkpt>
      <trkpt lat="41.6491130" lon="-8.7832300">
        <ele>34.2</ele>
        <time>2021-05-17T13:52:08Z</time>
      </trkpt>
      <trkpt lat="41.6491130" lon="-8.7832300">
        <ele>34.2</ele>
        <time>2021-05-17T13:52:09Z</time>
      </trkpt>
      <trkpt lat="41.6491130" lon="-8.7832300">
        <ele>34.2</ele>
        <time>2021-05-17T13:52:10Z</time>
      </trkpt>
      <trkpt lat="41.6491130" lon="-8.7832300">
        <ele>34.2</ele>
        <time>2021-05-17T13:52:11Z</time>
      </trkpt>
      <trkpt lat="41.6491130" lon="-8.7832300">
        <ele>34.2</ele>
        <time>2021-05-17T13:52:12Z</time>
      </trkpt>
      <trkpt lat="41.6491120" lon="-8.7832300">
        <ele>34.2</ele>
        <time>2021-05-17T13:52:13Z</time>
      </trkpt>
      <trkpt lat="41.6491120" lon="-8.7832300">
        <ele>34.2</ele>
        <time>2021-05-17T13:52:14Z</time>
      </trkpt>
      <trkpt lat="41.6491120" lon="-8.7832300">
        <ele>34.2</ele>
        <time>2021-05-17T13:52:15Z</time>
      </trkpt>
      <trkpt lat="41.6491120" lon="-8.7832300">
        <ele>34.2</ele>
        <time>2021-05-17T13:52:16Z</time>
      </trkpt>
      <trkpt lat="41.6491120" lon="-8.7832290">
        <ele>34.2</ele>
        <time>2021-05-17T13:52:17Z</time>
      </trkpt>
      <trkpt lat="41.6491120" lon="-8.7832290">
        <ele>34.2</ele>
        <time>2021-05-17T13:52:18Z</time>
      </trkpt>
      <trkpt lat="41.6491120" lon="-8.7832290">
        <ele>34.2</ele>
        <time>2021-05-17T13:52:19Z</time>
      </trkpt>
      <trkpt lat="41.6491120" lon="-8.7832290">
        <ele>34.2</ele>
        <time>2021-05-17T13:52:20Z</time>
      </trkpt>
      <trkpt lat="41.6491120" lon="-8.7832290">
        <ele>34.2</ele>
        <time>2021-05-17T13:52:21Z</time>
      </trkpt>
      <trkpt lat="41.6491120" lon="-8.7832290">
        <ele>34.2</ele>
        <time>2021-05-17T13:52:22Z</time>
      </trkpt>
      <trkpt lat="41.6491120" lon="-8.7832290">
        <ele>34.2</ele>
        <time>2021-05-17T13:52:23Z</time>
      </trkpt>
      <trkpt lat="41.6491120" lon="-8.7832290">
        <ele>34.2</ele>
        <time>2021-05-17T13:52:24Z</time>
      </trkpt>
      <trkpt lat="41.6491120" lon="-8.7832290">
        <ele>34.2</ele>
        <time>2021-05-17T13:52:25Z</time>
      </trkpt>
      <trkpt lat="41.6491110" lon="-8.7832280">
        <ele>34.2</ele>
        <time>2021-05-17T13:52:26Z</time>
      </trkpt>
      <trkpt lat="41.6491110" lon="-8.7832280">
        <ele>34.2</ele>
        <time>2021-05-17T13:52:27Z</time>
      </trkpt>
      <trkpt lat="41.6491110" lon="-8.7832280">
        <ele>34.2</ele>
        <time>2021-05-17T13:52:28Z</time>
      </trkpt>
      <trkpt lat="41.6491110" lon="-8.7832280">
        <ele>34.2</ele>
        <time>2021-05-17T13:52:29Z</time>
      </trkpt>
      <trkpt lat="41.6491110" lon="-8.7832280">
        <ele>34.2</ele>
        <time>2021-05-17T13:52:30Z</time>
      </trkpt>
      <trkpt lat="41.6491110" lon="-8.7832280">
        <ele>34.2</ele>
        <time>2021-05-17T13:52:31Z</time>
      </trkpt>
      <trkpt lat="41.6491110" lon="-8.7832280">
        <ele>34.2</ele>
        <time>2021-05-17T13:52:32Z</time>
      </trkpt>
      <trkpt lat="41.6491110" lon="-8.7832280">
        <ele>34.2</ele>
        <time>2021-05-17T13:52:33Z</time>
      </trkpt>
      <trkpt lat="41.6491110" lon="-8.7832280">
        <ele>34.2</ele>
        <time>2021-05-17T13:52:34Z</time>
      </trkpt>
      <trkpt lat="41.6491110" lon="-8.7832270">
        <ele>34.2</ele>
        <time>2021-05-17T13:52:35Z</time>
      </trkpt>
      <trkpt lat="41.6491110" lon="-8.7832270">
        <ele>34.2</ele>
        <time>2021-05-17T13:52:36Z</time>
      </trkpt>
      <trkpt lat="41.6491110" lon="-8.7832270">
        <ele>34.2</ele>
        <time>2021-05-17T13:52:37Z</time>
      </trkpt>
      <trkpt lat="41.6491110" lon="-8.7832270">
        <ele>34.2</ele>
        <time>2021-05-17T13:52:38Z</time>
      </trkpt>
      <trkpt lat="41.6491100" lon="-8.7832270">
        <ele>34.2</ele>
        <time>2021-05-17T13:52:39Z</time>
      </trkpt>
      <trkpt lat="41.6491100" lon="-8.7832270">
        <ele>34.2</ele>
        <time>2021-05-17T13:52:40Z</time>
      </trkpt>
      <trkpt lat="41.6491100" lon="-8.7832270">
        <ele>34.2</ele>
        <time>2021-05-17T13:52:41Z</time>
      </trkpt>
      <trkpt lat="41.6491100" lon="-8.7832270">
        <ele>34.2</ele>
        <time>2021-05-17T13:52:42Z</time>
      </trkpt>
      <trkpt lat="41.6491100" lon="-8.7832270">
        <ele>34.2</ele>
        <time>2021-05-17T13:52:43Z</time>
      </trkpt>
      <trkpt lat="41.6491100" lon="-8.7832260">
        <ele>34.2</ele>
        <time>2021-05-17T13:52:44Z</time>
      </trkpt>
      <trkpt lat="41.6491100" lon="-8.7832260">
        <ele>34.2</ele>
        <time>2021-05-17T13:52:45Z</time>
      </trkpt>
      <trkpt lat="41.6491100" lon="-8.7832260">
        <ele>34.2</ele>
        <time>2021-05-17T13:52:46Z</time>
      </trkpt>
      <trkpt lat="41.6491100" lon="-8.7832260">
        <ele>34.2</ele>
        <time>2021-05-17T13:52:47Z</time>
      </trkpt>
      <trkpt lat="41.6491100" lon="-8.7832260">
        <ele>34.2</ele>
        <time>2021-05-17T13:52:48Z</time>
      </trkpt>
      <trkpt lat="41.6491100" lon="-8.7832260">
        <ele>34.2</ele>
        <time>2021-05-17T13:52:49Z</time>
      </trkpt>
      <trkpt lat="41.6491100" lon="-8.7832260">
        <ele>34.2</ele>
        <time>2021-05-17T13:52:50Z</time>
      </trkpt>
      <trkpt lat="41.6491100" lon="-8.7832260">
        <ele>34.2</ele>
        <time>2021-05-17T13:52:51Z</time>
      </trkpt>
      <trkpt lat="41.6491090" lon="-8.7832260">
        <ele>34.2</ele>
        <time>2021-05-17T13:52:52Z</time>
      </trkpt>
      <trkpt lat="41.6491090" lon="-8.7832250">
        <ele>34.2</ele>
        <time>2021-05-17T13:52:53Z</time>
      </trkpt>
      <trkpt lat="41.6491090" lon="-8.7832250">
        <ele>34.2</ele>
        <time>2021-05-17T13:52:54Z</time>
      </trkpt>
      <trkpt lat="41.6491090" lon="-8.7832250">
        <ele>34.2</ele>
        <time>2021-05-17T13:52:55Z</time>
      </trkpt>
      <trkpt lat="41.6491090" lon="-8.7832250">
        <ele>34.2</ele>
        <time>2021-05-17T13:52:56Z</time>
      </trkpt>
      <trkpt lat="41.6491090" lon="-8.7832250">
        <ele>34.2</ele>
        <time>2021-05-17T13:52:57Z</time>
      </trkpt>
      <trkpt lat="41.6491090" lon="-8.7832250">
        <ele>34.2</ele>
        <time>2021-05-17T13:52:58Z</time>
      </trkpt>
      <trkpt lat="41.6491090" lon="-8.7832250">
        <ele>34.2</ele>
        <time>2021-05-17T13:52:59Z</time>
      </trkpt>
      <trkpt lat="41.6491090" lon="-8.7832250">
        <ele>34.2</ele>
        <time>2021-05-17T13:53:00Z</time>
      </trkpt>
      <trkpt lat="41.6491090" lon="-8.7832250">
        <ele>34.2</ele>
        <time>2021-05-17T13:53:01Z</time>
      </trkpt>
      <trkpt lat="41.6491090" lon="-8.7832250">
        <ele>34.2</ele>
        <time>2021-05-17T13:53:02Z</time>
      </trkpt>
      <trkpt lat="41.6491090" lon="-8.7832240">
        <ele>34.2</ele>
        <time>2021-05-17T13:53:03Z</time>
      </trkpt>
      <trkpt lat="41.6491090" lon="-8.7832240">
        <ele>34.2</ele>
        <time>2021-05-17T13:53:04Z</time>
      </trkpt>
      <trkpt lat="41.6491090" lon="-8.7832240">
        <ele>34.2</ele>
        <time>2021-05-17T13:53:05Z</time>
      </trkpt>
      <trkpt lat="41.6491080" lon="-8.7832240">
        <ele>34.2</ele>
        <time>2021-05-17T13:53:06Z</time>
      </trkpt>
      <trkpt lat="41.6491080" lon="-8.7832240">
        <ele>34.2</ele>
        <time>2021-05-17T13:53:07Z</time>
      </trkpt>
      <trkpt lat="41.6491080" lon="-8.7832240">
        <ele>34.2</ele>
        <time>2021-05-17T13:53:08Z</time>
      </trkpt>
      <trkpt lat="41.6491080" lon="-8.7832240">
        <ele>34.2</ele>
        <time>2021-05-17T13:53:09Z</time>
      </trkpt>
      <trkpt lat="41.6491080" lon="-8.7832240">
        <ele>34.2</ele>
        <time>2021-05-17T13:53:10Z</time>
      </trkpt>
      <trkpt lat="41.6491080" lon="-8.7832240">
        <ele>34.2</ele>
        <time>2021-05-17T13:53:11Z</time>
      </trkpt>
      <trkpt lat="41.6491080" lon="-8.7832230">
        <ele>34.2</ele>
        <time>2021-05-17T13:53:12Z</time>
      </trkpt>
      <trkpt lat="41.6491080" lon="-8.7832230">
        <ele>34.2</ele>
        <time>2021-05-17T13:53:13Z</time>
      </trkpt>
      <trkpt lat="41.6491080" lon="-8.7832230">
        <ele>34.2</ele>
        <time>2021-05-17T13:53:14Z</time>
      </trkpt>
      <trkpt lat="41.6491080" lon="-8.7832230">
        <ele>34.2</ele>
        <time>2021-05-17T13:53:15Z</time>
      </trkpt>
      <trkpt lat="41.6491080" lon="-8.7832230">
        <ele>34.2</ele>
        <time>2021-05-17T13:53:16Z</time>
      </trkpt>
      <trkpt lat="41.6491080" lon="-8.7832230">
        <ele>34.2</ele>
        <time>2021-05-17T13:53:17Z</time>
      </trkpt>
      <trkpt lat="41.6491080" lon="-8.7832230">
        <ele>34.2</ele>
        <time>2021-05-17T13:53:18Z</time>
      </trkpt>
      <trkpt lat="41.6491070" lon="-8.7832230">
        <ele>34.2</ele>
        <time>2021-05-17T13:53:19Z</time>
      </trkpt>
      <trkpt lat="41.6491070" lon="-8.7832230">
        <ele>34.2</ele>
        <time>2021-05-17T13:53:20Z</time>
      </trkpt>
      <trkpt lat="41.6491070" lon="-8.7832220">
        <ele>34.2</ele>
        <time>2021-05-17T13:53:21Z</time>
      </trkpt>
      <trkpt lat="41.6491070" lon="-8.7832220">
        <ele>34.2</ele>
        <time>2021-05-17T13:53:22Z</time>
      </trkpt>
      <trkpt lat="41.6491070" lon="-8.7832220">
        <ele>34.2</ele>
        <time>2021-05-17T13:53:23Z</time>
      </trkpt>
      <trkpt lat="41.6491070" lon="-8.7832220">
        <ele>34.2</ele>
        <time>2021-05-17T13:53:24Z</time>
      </trkpt>
      <trkpt lat="41.6491070" lon="-8.7832220">
        <ele>34.2</ele>
        <time>2021-05-17T13:53:25Z</time>
      </trkpt>
      <trkpt lat="41.6491070" lon="-8.7832220">
        <ele>34.2</ele>
        <time>2021-05-17T13:53:26Z</time>
      </trkpt>
      <trkpt lat="41.6491070" lon="-8.7832220">
        <ele>34.2</ele>
        <time>2021-05-17T13:53:27Z</time>
      </trkpt>
      <trkpt lat="41.6491070" lon="-8.7832220">
        <ele>34.2</ele>
        <time>2021-05-17T13:53:28Z</time>
      </trkpt>
      <trkpt lat="41.6491070" lon="-8.7832220">
        <ele>34.2</ele>
        <time>2021-05-17T13:53:29Z</time>
      </trkpt>
      <trkpt lat="41.6491070" lon="-8.7832210">
        <ele>34.2</ele>
        <time>2021-05-17T13:53:30Z</time>
      </trkpt>
      <trkpt lat="41.6491070" lon="-8.7832210">
        <ele>34.2</ele>
        <time>2021-05-17T13:53:31Z</time>
      </trkpt>
      <trkpt lat="41.6491060" lon="-8.7832210">
        <ele>34.2</ele>
        <time>2021-05-17T13:53:32Z</time>
      </trkpt>
      <trkpt lat="41.6491060" lon="-8.7832210">
        <ele>34.2</ele>
        <time>2021-05-17T13:53:33Z</time>
      </trkpt>
      <trkpt lat="41.6491060" lon="-8.7832210">
        <ele>34.2</ele>
        <time>2021-05-17T13:53:34Z</time>
      </trkpt>
      <trkpt lat="41.6491060" lon="-8.7832210">
        <ele>34.2</ele>
        <time>2021-05-17T13:53:35Z</time>
      </trkpt>
      <trkpt lat="41.6491060" lon="-8.7832210">
        <ele>34.2</ele>
        <time>2021-05-17T13:53:36Z</time>
      </trkpt>
      <trkpt lat="41.6491060" lon="-8.7832210">
        <ele>34.2</ele>
        <time>2021-05-17T13:53:37Z</time>
      </trkpt>
      <trkpt lat="41.6491060" lon="-8.7832210">
        <ele>34.2</ele>
        <time>2021-05-17T13:53:38Z</time>
      </trkpt>
      <trkpt lat="41.6491060" lon="-8.7832200">
        <ele>34.2</ele>
        <time>2021-05-17T13:53:39Z</time>
      </trkpt>
      <trkpt lat="41.6491060" lon="-8.7832200">
        <ele>34.2</ele>
        <time>2021-05-17T13:53:40Z</time>
      </trkpt>
      <trkpt lat="41.6491060" lon="-8.7832200">
        <ele>34.2</ele>
        <time>2021-05-17T13:53:41Z</time>
      </trkpt>
      <trkpt lat="41.6491060" lon="-8.7832200">
        <ele>34.2</ele>
        <time>2021-05-17T13:53:42Z</time>
      </trkpt>
      <trkpt lat="41.6491060" lon="-8.7832200">
        <ele>34.2</ele>
        <time>2021-05-17T13:53:43Z</time>
      </trkpt>
      <trkpt lat="41.6491060" lon="-8.7832200">
        <ele>34.2</ele>
        <time>2021-05-17T13:53:44Z</time>
      </trkpt>
      <trkpt lat="41.6491050" lon="-8.7832200">
        <ele>34.2</ele>
        <time>2021-05-17T13:53:45Z</time>
      </trkpt>
      <trkpt lat="41.6491050" lon="-8.7832200">
        <ele>34.2</ele>
        <time>2021-05-17T13:53:46Z</time>
      </trkpt>
      <trkpt lat="41.6491050" lon="-8.7832200">
        <ele>34.2</ele>
        <time>2021-05-17T13:53:47Z</time>
      </trkpt>
      <trkpt lat="41.6491050" lon="-8.7832190">
        <ele>34.2</ele>
        <time>2021-05-17T13:53:48Z</time>
      </trkpt>
      <trkpt lat="41.6491050" lon="-8.7832190">
        <ele>34.2</ele>
        <time>2021-05-17T13:53:49Z</time>
      </trkpt>
      <trkpt lat="41.6491050" lon="-8.7832190">
        <ele>34.2</ele>
        <time>2021-05-17T13:53:50Z</time>
      </trkpt>
      <trkpt lat="41.6491050" lon="-8.7832190">
        <ele>34.2</ele>
        <time>2021-05-17T13:53:51Z</time>
      </trkpt>
      <trkpt lat="41.6491050" lon="-8.7832190">
        <ele>34.2</ele>
        <time>2021-05-17T13:53:52Z</time>
      </trkpt>
      <trkpt lat="41.6491050" lon="-8.7832190">
        <ele>34.2</ele>
        <time>2021-05-17T13:53:53Z</time>
      </trkpt>
      <trkpt lat="41.6491050" lon="-8.7832190">
        <ele>34.2</ele>
        <time>2021-05-17T13:53:54Z</time>
      </trkpt>
      <trkpt lat="41.6491050" lon="-8.7832190">
        <ele>34.2</ele>
        <time>2021-05-17T13:53:55Z</time>
      </trkpt>
      <trkpt lat="41.6491050" lon="-8.7832190">
        <ele>34.2</ele>
        <time>2021-05-17T13:53:56Z</time>
      </trkpt>
      <trkpt lat="41.6491050" lon="-8.7832190">
        <ele>34.2</ele>
        <time>2021-05-17T13:53:57Z</time>
      </trkpt>
      <trkpt lat="41.6491050" lon="-8.7832180">
        <ele>34.2</ele>
        <time>2021-05-17T13:53:58Z</time>
      </trkpt>
      <trkpt lat="41.6491040" lon="-8.7832180">
        <ele>34.2</ele>
        <time>2021-05-17T13:53:59Z</time>
      </trkpt>
      <trkpt lat="41.6491040" lon="-8.7832180">
        <ele>34.2</ele>
        <time>2021-05-17T13:54:00Z</time>
      </trkpt>
      <trkpt lat="41.6491040" lon="-8.7832180">
        <ele>34.2</ele>
        <time>2021-05-17T13:54:01Z</time>
      </trkpt>
      <trkpt lat="41.6491040" lon="-8.7832180">
        <ele>34.2</ele>
        <time>2021-05-17T13:54:02Z</time>
      </trkpt>
      <trkpt lat="41.6491040" lon="-8.7832180">
        <ele>34.2</ele>
        <time>2021-05-17T13:54:03Z</time>
      </trkpt>
      <trkpt lat="41.6491040" lon="-8.7832180">
        <ele>34.2</ele>
        <time>2021-05-17T13:54:04Z</time>
      </trkpt>
      <trkpt lat="41.6491040" lon="-8.7832180">
        <ele>34.2</ele>
        <time>2021-05-17T13:54:05Z</time>
      </trkpt>
      <trkpt lat="41.6491040" lon="-8.7832180">
        <ele>34.2</ele>
        <time>2021-05-17T13:54:06Z</time>
      </trkpt>
      <trkpt lat="41.6491040" lon="-8.7832170">
        <ele>34.2</ele>
        <time>2021-05-17T13:54:07Z</time>
      </trkpt>
      <trkpt lat="41.6491040" lon="-8.7832170">
        <ele>34.2</ele>
        <time>2021-05-17T13:54:08Z</time>
      </trkpt>
      <trkpt lat="41.6491040" lon="-8.7832170">
        <ele>34.2</ele>
        <time>2021-05-17T13:54:09Z</time>
      </trkpt>
      <trkpt lat="41.6491040" lon="-8.7832170">
        <ele>34.2</ele>
        <time>2021-05-17T13:54:10Z</time>
      </trkpt>
      <trkpt lat="41.6491040" lon="-8.7832170">
        <ele>34.2</ele>
        <time>2021-05-17T13:54:11Z</time>
      </trkpt>
      <trkpt lat="41.6491030" lon="-8.7832170">
        <ele>34.2</ele>
        <time>2021-05-17T13:54:12Z</time>
      </trkpt>
      <trkpt lat="41.6491030" lon="-8.7832170">
        <ele>34.2</ele>
        <time>2021-05-17T13:54:13Z</time>
      </trkpt>
      <trkpt lat="41.6491030" lon="-8.7832170">
        <ele>34.2</ele>
        <time>2021-05-17T13:54:14Z</time>
      </trkpt>
      <trkpt lat="41.6491030" lon="-8.7832170">
        <ele>34.2</ele>
        <time>2021-05-17T13:54:15Z</time>
      </trkpt>
      <trkpt lat="41.6491030" lon="-8.7832160">
        <ele>34.2</ele>
        <time>2021-05-17T13:54:16Z</time>
      </trkpt>
      <trkpt lat="41.6491030" lon="-8.7832160">
        <ele>34.2</ele>
        <time>2021-05-17T13:54:17Z</time>
      </trkpt>
      <trkpt lat="41.6491030" lon="-8.7832160">
        <ele>34.2</ele>
        <time>2021-05-17T13:54:18Z</time>
      </trkpt>
      <trkpt lat="41.6491030" lon="-8.7832160">
        <ele>34.2</ele>
        <time>2021-05-17T13:54:19Z</time>
      </trkpt>
      <trkpt lat="41.6491030" lon="-8.7832160">
        <ele>34.2</ele>
        <time>2021-05-17T13:54:20Z</time>
      </trkpt>
      <trkpt lat="41.6491030" lon="-8.7832160">
        <ele>34.2</ele>
        <time>2021-05-17T13:54:21Z</time>
      </trkpt>
      <trkpt lat="41.6491030" lon="-8.7832160">
        <ele>34.2</ele>
        <time>2021-05-17T13:54:22Z</time>
      </trkpt>
      <trkpt lat="41.6491030" lon="-8.7832160">
        <ele>34.2</ele>
        <time>2021-05-17T13:54:23Z</time>
      </trkpt>
      <trkpt lat="41.6491030" lon="-8.7832160">
        <ele>34.2</ele>
        <time>2021-05-17T13:54:24Z</time>
      </trkpt>
      <trkpt lat="41.6491020" lon="-8.7832150">
        <ele>34.2</ele>
        <time>2021-05-17T13:54:25Z</time>
      </trkpt>
      <trkpt lat="41.6491020" lon="-8.7832150">
        <ele>34.2</ele>
        <time>2021-05-17T13:54:26Z</time>
      </trkpt>
      <trkpt lat="41.6491020" lon="-8.7832150">
        <ele>34.2</ele>
        <time>2021-05-17T13:54:27Z</time>
      </trkpt>
      <trkpt lat="41.6491020" lon="-8.7832150">
        <ele>34.2</ele>
        <time>2021-05-17T13:54:28Z</time>
      </trkpt>
      <trkpt lat="41.6491020" lon="-8.7832150">
        <ele>34.2</ele>
        <time>2021-05-17T13:54:29Z</time>
      </trkpt>
      <trkpt lat="41.6491020" lon="-8.7832150">
        <ele>34.2</ele>
        <time>2021-05-17T13:54:30Z</time>
      </trkpt>
      <trkpt lat="41.6491020" lon="-8.7832150">
        <ele>34.2</ele>
        <time>2021-05-17T13:54:31Z</time>
      </trkpt>
      <trkpt lat="41.6491020" lon="-8.7832150">
        <ele>34.2</ele>
        <time>2021-05-17T13:54:32Z</time>
      </trkpt>
      <trkpt lat="41.6491020" lon="-8.7832150">
        <ele>34.2</ele>
        <time>2021-05-17T13:54:33Z</time>
      </trkpt>
      <trkpt lat="41.6491020" lon="-8.7832140">
        <ele>34.2</ele>
        <time>2021-05-17T13:54:34Z</time>
      </trkpt>
      <trkpt lat="41.6491020" lon="-8.7832140">
        <ele>34.2</ele>
        <time>2021-05-17T13:54:35Z</time>
      </trkpt>
      <trkpt lat="41.6491020" lon="-8.7832140">
        <ele>34.2</ele>
        <time>2021-05-17T13:54:36Z</time>
      </trkpt>
      <trkpt lat="41.6491020" lon="-8.7832140">
        <ele>34.2</ele>
        <time>2021-05-17T13:54:37Z</time>
      </trkpt>
      <trkpt lat="41.6491010" lon="-8.7832140">
        <ele>34.2</ele>
        <time>2021-05-17T13:54:38Z</time>
      </trkpt>
      <trkpt lat="41.6491010" lon="-8.7832140">
        <ele>34.2</ele>
        <time>2021-05-17T13:54:39Z</time>
      </trkpt>
      <trkpt lat="41.6491010" lon="-8.7832140">
        <ele>34.2</ele>
        <time>2021-05-17T13:54:40Z</time>
      </trkpt>
      <trkpt lat="41.6491010" lon="-8.7832140">
        <ele>34.2</ele>
        <time>2021-05-17T13:54:41Z</time>
      </trkpt>
      <trkpt lat="41.6491010" lon="-8.7832140">
        <ele>34.2</ele>
        <time>2021-05-17T13:54:42Z</time>
      </trkpt>
      <trkpt lat="41.6491010" lon="-8.7832130">
        <ele>34.2</ele>
        <time>2021-05-17T13:54:43Z</time>
      </trkpt>
      <trkpt lat="41.6491010" lon="-8.7832130">
        <ele>34.2</ele>
        <time>2021-05-17T13:54:44Z</time>
      </trkpt>
      <trkpt lat="41.6491010" lon="-8.7832130">
        <ele>34.2</ele>
        <time>2021-05-17T13:54:45Z</time>
      </trkpt>
      <trkpt lat="41.6491010" lon="-8.7832130">
        <ele>34.2</ele>
        <time>2021-05-17T13:54:46Z</time>
      </trkpt>
      <trkpt lat="41.6491010" lon="-8.7832130">
        <ele>34.2</ele>
        <time>2021-05-17T13:54:47Z</time>
      </trkpt>
      <trkpt lat="41.6491010" lon="-8.7832130">
        <ele>34.2</ele>
        <time>2021-05-17T13:54:48Z</time>
      </trkpt>
      <trkpt lat="41.6491010" lon="-8.7832130">
        <ele>34.2</ele>
        <time>2021-05-17T13:54:49Z</time>
      </trkpt>
      <trkpt lat="41.6491010" lon="-8.7832130">
        <ele>34.2</ele>
        <time>2021-05-17T13:54:50Z</time>
      </trkpt>
      <trkpt lat="41.6491000" lon="-8.7832130">
        <ele>34.2</ele>
        <time>2021-05-17T13:54:51Z</time>
      </trkpt>
      <trkpt lat="41.6491000" lon="-8.7832120">
        <ele>34.2</ele>
        <time>2021-05-17T13:54:52Z</time>
      </trkpt>
      <trkpt lat="41.6491000" lon="-8.7832120">
        <ele>34.2</ele>
        <time>2021-05-17T13:54:53Z</time>
      </trkpt>
      <trkpt lat="41.6491000" lon="-8.7832120">
        <ele>34.2</ele>
        <time>2021-05-17T13:54:54Z</time>
      </trkpt>
      <trkpt lat="41.6491000" lon="-8.7832120">
        <ele>34.2</ele>
        <time>2021-05-17T13:54:55Z</time>
      </trkpt>
      <trkpt lat="41.6491000" lon="-8.7832120">
        <ele>34.2</ele>
        <time>2021-05-17T13:54:56Z</time>
      </trkpt>
      <trkpt lat="41.6491000" lon="-8.7832120">
        <ele>34.2</ele>
        <time>2021-05-17T13:54:57Z</time>
      </trkpt>
      <trkpt lat="41.6491000" lon="-8.7832120">
        <ele>34.2</ele>
        <time>2021-05-17T13:54:58Z</time>
      </trkpt>
      <trkpt lat="41.6491000" lon="-8.7832120">
        <ele>34.2</ele>
        <time>2021-05-17T13:54:59Z</time>
      </trkpt>
      <trkpt lat="41.6491000" lon="-8.7832120">
        <ele>34.2</ele>
        <time>2021-05-17T13:55:00Z</time>
      </trkpt>
      <trkpt lat="41.6491000" lon="-8.7832120">
        <ele>34.2</ele>
        <time>2021-05-17T13:55:01Z</time>
      </trkpt>
      <trkpt lat="41.6491000" lon="-8.7832110">
        <ele>34.2</ele>
        <time>2021-05-17T13:55:02Z</time>
      </trkpt>
      <trkpt lat="41.6491000" lon="-8.7832110">
        <ele>34.2</ele>
        <time>2021-05-17T13:55:03Z</time>
      </trkpt>
      <trkpt lat="41.6491000" lon="-8.7832110">
        <ele>34.2</ele>
        <time>2021-05-17T13:55:04Z</time>
      </trkpt>
      <trkpt lat="41.6490990" lon="-8.7832110">
        <ele>34.2</ele>
        <time>2021-05-17T13:55:05Z</time>
      </trkpt>
      <trkpt lat="41.6490990" lon="-8.7832110">
        <ele>34.2</ele>
        <time>2021-05-17T13:55:06Z</time>
      </trkpt>
      <trkpt lat="41.6490990" lon="-8.7832110">
        <ele>34.2</ele>
        <time>2021-05-17T13:55:07Z</time>
      </trkpt>
      <trkpt lat="41.6490990" lon="-8.7832110">
        <ele>34.2</ele>
        <time>2021-05-17T13:55:08Z</time>
      </trkpt>
      <trkpt lat="41.6490990" lon="-8.7832110">
        <ele>34.2</ele>
        <time>2021-05-17T13:55:09Z</time>
      </trkpt>
      <trkpt lat="41.6490990" lon="-8.7832110">
        <ele>34.2</ele>
        <time>2021-05-17T13:55:10Z</time>
      </trkpt>
      <trkpt lat="41.6490990" lon="-8.7832100">
        <ele>34.2</ele>
        <time>2021-05-17T13:55:11Z</time>
      </trkpt>
      <trkpt lat="41.6490990" lon="-8.7832100">
        <ele>34.2</ele>
        <time>2021-05-17T13:55:12Z</time>
      </trkpt>
      <trkpt lat="41.6490990" lon="-8.7832100">
        <ele>34.2</ele>
        <time>2021-05-17T13:55:13Z</time>
      </trkpt>
      <trkpt lat="41.6490990" lon="-8.7832100">
        <ele>34.2</ele>
        <time>2021-05-17T13:55:14Z</time>
      </trkpt>
      <trkpt lat="41.6490990" lon="-8.7832100">
        <ele>34.2</ele>
        <time>2021-05-17T13:55:15Z</time>
      </trkpt>
      <trkpt lat="41.6490990" lon="-8.7832100">
        <ele>34.2</ele>
        <time>2021-05-17T13:55:16Z</time>
      </trkpt>
      <trkpt lat="41.6490990" lon="-8.7832100">
        <ele>34.2</ele>
        <time>2021-05-17T13:55:17Z</time>
      </trkpt>
      <trkpt lat="41.6490980" lon="-8.7832100">
        <ele>34.2</ele>
        <time>2021-05-17T13:55:18Z</time>
      </trkpt>
      <trkpt lat="41.6490980" lon="-8.7832100">
        <ele>34.2</ele>
        <time>2021-05-17T13:55:19Z</time>
      </trkpt>
      <trkpt lat="41.6490980" lon="-8.7832090">
        <ele>34.2</ele>
        <time>2021-05-17T13:55:20Z</time>
      </trkpt>
      <trkpt lat="41.6490980" lon="-8.7832090">
        <ele>34.2</ele>
        <time>2021-05-17T13:55:21Z</time>
      </trkpt>
      <trkpt lat="41.6490980" lon="-8.7832090">
        <ele>34.2</ele>
        <time>2021-05-17T13:55:22Z</time>
      </trkpt>
      <trkpt lat="41.6490980" lon="-8.7832090">
        <ele>34.2</ele>
        <time>2021-05-17T13:55:23Z</time>
      </trkpt>
      <trkpt lat="41.6490980" lon="-8.7832090">
        <ele>34.2</ele>
        <time>2021-05-17T13:55:24Z</time>
      </trkpt>
      <trkpt lat="41.6490980" lon="-8.7832090">
        <ele>34.2</ele>
        <time>2021-05-17T13:55:25Z</time>
      </trkpt>
      <trkpt lat="41.6490980" lon="-8.7832090">
        <ele>34.2</ele>
        <time>2021-05-17T13:55:26Z</time>
      </trkpt>
      <trkpt lat="41.6490980" lon="-8.7832090">
        <ele>34.2</ele>
        <time>2021-05-17T13:55:27Z</time>
      </trkpt>
      <trkpt lat="41.6490980" lon="-8.7832090">
        <ele>34.2</ele>
        <time>2021-05-17T13:55:28Z</time>
      </trkpt>
      <trkpt lat="41.6490980" lon="-8.7832080">
        <ele>34.2</ele>
        <time>2021-05-17T13:55:29Z</time>
      </trkpt>
      <trkpt lat="41.6490980" lon="-8.7832080">
        <ele>34.2</ele>
        <time>2021-05-17T13:55:30Z</time>
      </trkpt>
      <trkpt lat="41.6490970" lon="-8.7832080">
        <ele>34.2</ele>
        <time>2021-05-17T13:55:31Z</time>
      </trkpt>
      <trkpt lat="41.6490970" lon="-8.7832080">
        <ele>34.2</ele>
        <time>2021-05-17T13:55:32Z</time>
      </trkpt>
      <trkpt lat="41.6490970" lon="-8.7832080">
        <ele>34.2</ele>
        <time>2021-05-17T13:55:33Z</time>
      </trkpt>
      <trkpt lat="41.6490970" lon="-8.7832080">
        <ele>34.2</ele>
        <time>2021-05-17T13:55:34Z</time>
      </trkpt>
      <trkpt lat="41.6490970" lon="-8.7832080">
        <ele>34.2</ele>
        <time>2021-05-17T13:55:35Z</time>
      </trkpt>
      <trkpt lat="41.6490970" lon="-8.7832080">
        <ele>34.2</ele>
        <time>2021-05-17T13:55:36Z</time>
      </trkpt>
      <trkpt lat="41.6490970" lon="-8.7832080">
        <ele>34.2</ele>
        <time>2021-05-17T13:55:37Z</time>
      </trkpt>
      <trkpt lat="41.6490970" lon="-8.7832070">
        <ele>34.2</ele>
        <time>2021-05-17T13:55:38Z</time>
      </trkpt>
      <trkpt lat="41.6490970" lon="-8.7832070">
        <ele>34.2</ele>
        <time>2021-05-17T13:55:39Z</time>
      </trkpt>
      <trkpt lat="41.6490970" lon="-8.7832070">
        <ele>34.2</ele>
        <time>2021-05-17T13:55:40Z</time>
      </trkpt>
      <trkpt lat="41.6490970" lon="-8.7832070">
        <ele>34.2</ele>
        <time>2021-05-17T13:55:41Z</time>
      </trkpt>
      <trkpt lat="41.6490970" lon="-8.7832070">
        <ele>34.2</ele>
        <time>2021-05-17T13:55:42Z</time>
      </trkpt>
      <trkpt lat="41.6490970" lon="-8.7832070">
        <ele>34.2</ele>
        <time>2021-05-17T13:55:43Z</time>
      </trkpt>
      <trkpt lat="41.6490960" lon="-8.7832070">
        <ele>34.2</ele>
        <time>2021-05-17T13:55:44Z</time>
      </trkpt>
      <trkpt lat="41.6490960" lon="-8.7832070">
        <ele>34.2</ele>
        <time>2021-05-17T13:55:45Z</time>
      </trkpt>
      <trkpt lat="41.6490960" lon="-8.7832070">
        <ele>34.2</ele>
        <time>2021-05-17T13:55:46Z</time>
      </trkpt>
      <trkpt lat="41.6490960" lon="-8.7832060">
        <ele>34.2</ele>
        <time>2021-05-17T13:55:47Z</time>
      </trkpt>
      <trkpt lat="41.6490960" lon="-8.7832060">
        <ele>34.2</ele>
        <time>2021-05-17T13:55:48Z</time>
      </trkpt>
      <trkpt lat="41.6490960" lon="-8.7832060">
        <ele>34.2</ele>
        <time>2021-05-17T13:55:49Z</time>
      </trkpt>
      <trkpt lat="41.6490960" lon="-8.7832060">
        <ele>34.2</ele>
        <time>2021-05-17T13:55:50Z</time>
      </trkpt>
      <trkpt lat="41.6490960" lon="-8.7832060">
        <ele>34.2</ele>
        <time>2021-05-17T13:55:51Z</time>
      </trkpt>
      <trkpt lat="41.6490960" lon="-8.7832060">
        <ele>34.2</ele>
        <time>2021-05-17T13:55:52Z</time>
      </trkpt>
      <trkpt lat="41.6490960" lon="-8.7832060">
        <ele>34.2</ele>
        <time>2021-05-17T13:55:53Z</time>
      </trkpt>
      <trkpt lat="41.6490960" lon="-8.7832060">
        <ele>34.2</ele>
        <time>2021-05-17T13:55:54Z</time>
      </trkpt>
      <trkpt lat="41.6490960" lon="-8.7832060">
        <ele>34.2</ele>
        <time>2021-05-17T13:55:55Z</time>
      </trkpt>
      <trkpt lat="41.6490960" lon="-8.7832060">
        <ele>34.2</ele>
        <time>2021-05-17T13:55:56Z</time>
      </trkpt>
      <trkpt lat="41.6490960" lon="-8.7832050">
        <ele>34.2</ele>
        <time>2021-05-17T13:55:57Z</time>
      </trkpt>
      <trkpt lat="41.6490950" lon="-8.7832050">
        <ele>34.2</ele>
        <time>2021-05-17T13:55:58Z</time>
      </trkpt>
      <trkpt lat="41.6490950" lon="-8.7832050">
        <ele>34.2</ele>
        <time>2021-05-17T13:55:59Z</time>
      </trkpt>
      <trkpt lat="41.6490950" lon="-8.7832050">
        <ele>34.2</ele>
        <time>2021-05-17T13:56:00Z</time>
      </trkpt>
      <trkpt lat="41.6490950" lon="-8.7832050">
        <ele>34.2</ele>
        <time>2021-05-17T13:56:01Z</time>
      </trkpt>
      <trkpt lat="41.6490950" lon="-8.7832050">
        <ele>34.2</ele>
        <time>2021-05-17T13:56:02Z</time>
      </trkpt>
      <trkpt lat="41.6490950" lon="-8.7832050">
        <ele>34.2</ele>
        <time>2021-05-17T13:56:03Z</time>
      </trkpt>
      <trkpt lat="41.6490950" lon="-8.7832050">
        <ele>34.2</ele>
        <time>2021-05-17T13:56:04Z</time>
      </trkpt>
      <trkpt lat="41.6490950" lon="-8.7832050">
        <ele>34.2</ele>
        <time>2021-05-17T13:56:05Z</time>
      </trkpt>
      <trkpt lat="41.6490950" lon="-8.7832040">
        <ele>34.2</ele>
        <time>2021-05-17T13:56:06Z</time>
      </trkpt>
      <trkpt lat="41.6490950" lon="-8.7832040">
        <ele>34.2</ele>
        <time>2021-05-17T13:56:07Z</time>
      </trkpt>
      <trkpt lat="41.6490950" lon="-8.7832040">
        <ele>34.2</ele>
        <time>2021-05-17T13:56:08Z</time>
      </trkpt>
      <trkpt lat="41.6490950" lon="-8.7832040">
        <ele>34.2</ele>
        <time>2021-05-17T13:56:09Z</time>
      </trkpt>
      <trkpt lat="41.6490950" lon="-8.7832040">
        <ele>34.2</ele>
        <time>2021-05-17T13:56:10Z</time>
      </trkpt>
      <trkpt lat="41.6490940" lon="-8.7832040">
        <ele>34.2</ele>
        <time>2021-05-17T13:56:11Z</time>
      </trkpt>
      <trkpt lat="41.6490940" lon="-8.7832040">
        <ele>34.2</ele>
        <time>2021-05-17T13:56:12Z</time>
      </trkpt>
      <trkpt lat="41.6490940" lon="-8.7832040">
        <ele>34.2</ele>
        <time>2021-05-17T13:56:13Z</time>
      </trkpt>
      <trkpt lat="41.6490940" lon="-8.7832040">
        <ele>34.2</ele>
        <time>2021-05-17T13:56:14Z</time>
      </trkpt>
      <trkpt lat="41.6490940" lon="-8.7832030">
        <ele>34.2</ele>
        <time>2021-05-17T13:56:15Z</time>
      </trkpt>
      <trkpt lat="41.6490940" lon="-8.7832030">
        <ele>34.2</ele>
        <time>2021-05-17T13:56:16Z</time>
      </trkpt>
      <trkpt lat="41.6490940" lon="-8.7832030">
        <ele>34.2</ele>
        <time>2021-05-17T13:56:17Z</time>
      </trkpt>
      <trkpt lat="41.6490940" lon="-8.7832030">
        <ele>34.2</ele>
        <time>2021-05-17T13:56:18Z</time>
      </trkpt>
      <trkpt lat="41.6490940" lon="-8.7832030">
        <ele>34.2</ele>
        <time>2021-05-17T13:56:19Z</time>
      </trkpt>
      <trkpt lat="41.6490940" lon="-8.7832030">
        <ele>34.2</ele>
        <time>2021-05-17T13:56:20Z</time>
      </trkpt>
      <trkpt lat="41.6490940" lon="-8.7832030">
        <ele>34.2</ele>
        <time>2021-05-17T13:56:21Z</time>
      </trkpt>
      <trkpt lat="41.6490940" lon="-8.7832030">
        <ele>34.2</ele>
        <time>2021-05-17T13:56:22Z</time>
      </trkpt>
      <trkpt lat="41.6490940" lon="-8.7832030">
        <ele>34.2</ele>
        <time>2021-05-17T13:56:23Z</time>
      </trkpt>
      <trkpt lat="41.6490930" lon="-8.7832020">
        <ele>34.2</ele>
        <time>2021-05-17T13:56:24Z</time>
      </trkpt>
      <trkpt lat="41.6490930" lon="-8.7832020">
        <ele>34.2</ele>
        <time>2021-05-17T13:56:25Z</time>
      </trkpt>
      <trkpt lat="41.6490930" lon="-8.7832020">
        <ele>34.2</ele>
        <time>2021-05-17T13:56:26Z</time>
      </trkpt>
      <trkpt lat="41.6490930" lon="-8.7832020">
        <ele>34.2</ele>
        <time>2021-05-17T13:56:27Z</time>
      </trkpt>
      <trkpt lat="41.6490930" lon="-8.7832020">
        <ele>34.2</ele>
        <time>2021-05-17T13:56:28Z</time>
      </trkpt>
      <trkpt lat="41.6490930" lon="-8.7832020">
        <ele>34.2</ele>
        <time>2021-05-17T13:56:29Z</time>
      </trkpt>
      <trkpt lat="41.6490930" lon="-8.7832020">
        <ele>34.2</ele>
        <time>2021-05-17T13:56:30Z</time>
      </trkpt>
      <trkpt lat="41.6490930" lon="-8.7832020">
        <ele>34.2</ele>
        <time>2021-05-17T13:56:31Z</time>
      </trkpt>
      <trkpt lat="41.6490930" lon="-8.7832020">
        <ele>34.2</ele>
        <time>2021-05-17T13:56:32Z</time>
      </trkpt>
      <trkpt lat="41.6490930" lon="-8.7832010">
        <ele>34.2</ele>
        <time>2021-05-17T13:56:33Z</time>
      </trkpt>
      <trkpt lat="41.6490930" lon="-8.7832010">
        <ele>34.2</ele>
        <time>2021-05-17T13:56:34Z</time>
      </trkpt>
      <trkpt lat="41.6490930" lon="-8.7832010">
        <ele>34.2</ele>
        <time>2021-05-17T13:56:35Z</time>
      </trkpt>
      <trkpt lat="41.6490930" lon="-8.7832010">
        <ele>34.2</ele>
        <time>2021-05-17T13:56:36Z</time>
      </trkpt>
      <trkpt lat="41.6490920" lon="-8.7832010">
        <ele>34.2</ele>
        <time>2021-05-17T13:56:37Z</time>
      </trkpt>
      <trkpt lat="41.6490920" lon="-8.7832010">
        <ele>34.2</ele>
        <time>2021-05-17T13:56:38Z</time>
      </trkpt>
      <trkpt lat="41.6490920" lon="-8.7832010">
        <ele>34.2</ele>
        <time>2021-05-17T13:56:39Z</time>
      </trkpt>
      <trkpt lat="41.6490920" lon="-8.7832010">
        <ele>34.2</ele>
        <time>2021-05-17T13:56:40Z</time>
      </trkpt>
      <trkpt lat="41.6490920" lon="-8.7832010">
        <ele>34.2</ele>
        <time>2021-05-17T13:56:41Z</time>
      </trkpt>
      <trkpt lat="41.6490920" lon="-8.7832000">
        <ele>34.2</ele>
        <time>2021-05-17T13:56:42Z</time>
      </trkpt>
      <trkpt lat="41.6490920" lon="-8.7832000">
        <ele>34.2</ele>
        <time>2021-05-17T13:56:43Z</time>
      </trkpt>
      <trkpt lat="41.6490920" lon="-8.7832000">
        <ele>34.2</ele>
        <time>2021-05-17T13:56:44Z</time>
      </trkpt>
      <trkpt lat="41.6490920" lon="-8.7832000">
        <ele>34.2</ele>
        <time>2021-05-17T13:56:45Z</time>
      </trkpt>
      <trkpt lat="41.6490920" lon="-8.7832000">
        <ele>34.2</ele>
        <time>2021-05-17T13:56:46Z</time>
      </trkpt>
      <trkpt lat="41.6490920" lon="-8.7832000">
        <ele>34.2</ele>
        <time>2021-05-17T13:56:47Z</time>
      </trkpt>
      <trkpt lat="41.6490920" lon="-8.7832000">
        <ele>34.2</ele>
        <time>2021-05-17T13:56:48Z</time>
      </trkpt>
      <trkpt lat="41.6490920" lon="-8.7832000">
        <ele>34.2</ele>
        <time>2021-05-17T13:56:49Z</time>
      </trkpt>
      <trkpt lat="41.6490910" lon="-8.7832000">
        <ele>34.2</ele>
        <time>2021-05-17T13:56:50Z</time>
      </trkpt>
      <trkpt lat="41.6490910" lon="-8.7831990">
        <ele>34.2</ele>
        <time>2021-05-17T13:56:51Z</time>
      </trkpt>
      <trkpt lat="41.6490910" lon="-8.7831990">
        <ele>34.2</ele>
        <time>2021-05-17T13:56:52Z</time>
      </trkpt>
      <trkpt lat="41.6490910" lon="-8.7831990">
        <ele>34.2</ele>
        <time>2021-05-17T13:56:53Z</time>
      </trkpt>
      <trkpt lat="41.6490910" lon="-8.7831990">
        <ele>34.2</ele>
        <time>2021-05-17T13:56:54Z</time>
      </trkpt>
      <trkpt lat="41.6490910" lon="-8.7831990">
        <ele>34.2</ele>
        <time>2021-05-17T13:56:55Z</time>
      </trkpt>
      <trkpt lat="41.6490910" lon="-8.7831990">
        <ele>34.2</ele>
        <time>2021-05-17T13:56:56Z</time>
      </trkpt>
      <trkpt lat="41.6490910" lon="-8.7831990">
        <ele>34.2</ele>
        <time>2021-05-17T13:56:57Z</time>
      </trkpt>
      <trkpt lat="41.6490910" lon="-8.7831990">
        <ele>34.2</ele>
        <time>2021-05-17T13:56:58Z</time>
      </trkpt>
      <trkpt lat="41.6490910" lon="-8.7831990">
        <ele>34.2</ele>
        <time>2021-05-17T13:56:59Z</time>
      </trkpt>
      <trkpt lat="41.6490910" lon="-8.7831990">
        <ele>34.2</ele>
        <time>2021-05-17T13:57:00Z</time>
      </trkpt>
      <trkpt lat="41.6490910" lon="-8.7831980">
        <ele>34.2</ele>
        <time>2021-05-17T13:57:01Z</time>
      </trkpt>
      <trkpt lat="41.6490910" lon="-8.7831980">
        <ele>34.2</ele>
        <time>2021-05-17T13:57:02Z</time>
      </trkpt>
      <trkpt lat="41.6490910" lon="-8.7831980">
        <ele>34.2</ele>
        <time>2021-05-17T13:57:03Z</time>
      </trkpt>
      <trkpt lat="41.6490900" lon="-8.7831980">
        <ele>34.2</ele>
        <time>2021-05-17T13:57:04Z</time>
      </trkpt>
      <trkpt lat="41.6490900" lon="-8.7831980">
        <ele>34.2</ele>
        <time>2021-05-17T13:57:05Z</time>
      </trkpt>
      <trkpt lat="41.6490900" lon="-8.7831980">
        <ele>34.2</ele>
        <time>2021-05-17T13:57:06Z</time>
      </trkpt>
      <trkpt lat="41.6490900" lon="-8.7831980">
        <ele>34.2</ele>
        <time>2021-05-17T13:57:07Z</time>
      </trkpt>
      <trkpt lat="41.6490900" lon="-8.7831980">
        <ele>34.1</ele>
        <time>2021-05-17T13:57:08Z</time>
      </trkpt>
      <trkpt lat="41.6490900" lon="-8.7831980">
        <ele>34.1</ele>
        <time>2021-05-17T13:57:09Z</time>
      </trkpt>
      <trkpt lat="41.6490900" lon="-8.7831970">
        <ele>34.1</ele>
        <time>2021-05-17T13:57:10Z</time>
      </trkpt>
      <trkpt lat="41.6490900" lon="-8.7831970">
        <ele>34.1</ele>
        <time>2021-05-17T13:57:11Z</time>
      </trkpt>
      <trkpt lat="41.6490900" lon="-8.7831970">
        <ele>34.1</ele>
        <time>2021-05-17T13:57:12Z</time>
      </trkpt>
      <trkpt lat="41.6490900" lon="-8.7831970">
        <ele>34.1</ele>
        <time>2021-05-17T13:57:13Z</time>
      </trkpt>
      <trkpt lat="41.6490900" lon="-8.7831970">
        <ele>34.1</ele>
        <time>2021-05-17T13:57:14Z</time>
      </trkpt>
      <trkpt lat="41.6490900" lon="-8.7831970">
        <ele>34.1</ele>
        <time>2021-05-17T13:57:15Z</time>
      </trkpt>
      <trkpt lat="41.6490900" lon="-8.7831970">
        <ele>34.1</ele>
        <time>2021-05-17T13:57:16Z</time>
      </trkpt>
      <trkpt lat="41.6490890" lon="-8.7831970">
        <ele>34.1</ele>
        <time>2021-05-17T13:57:17Z</time>
      </trkpt>
      <trkpt lat="41.6490890" lon="-8.7831970">
        <ele>34.1</ele>
        <time>2021-05-17T13:57:18Z</time>
      </trkpt>
      <trkpt lat="41.6490890" lon="-8.7831960">
        <ele>34.1</ele>
        <time>2021-05-17T13:57:19Z</time>
      </trkpt>
      <trkpt lat="41.6490890" lon="-8.7831960">
        <ele>34.1</ele>
        <time>2021-05-17T13:57:20Z</time>
      </trkpt>
      <trkpt lat="41.6490890" lon="-8.7831960">
        <ele>34.1</ele>
        <time>2021-05-17T13:57:21Z</time>
      </trkpt>
      <trkpt lat="41.6490890" lon="-8.7831960">
        <ele>34.1</ele>
        <time>2021-05-17T13:57:22Z</time>
      </trkpt>
      <trkpt lat="41.6490890" lon="-8.7831960">
        <ele>34.1</ele>
        <time>2021-05-17T13:57:23Z</time>
      </trkpt>
      <trkpt lat="41.6490890" lon="-8.7831960">
        <ele>34.1</ele>
        <time>2021-05-17T13:57:24Z</time>
      </trkpt>
      <trkpt lat="41.6490890" lon="-8.7831960">
        <ele>34.1</ele>
        <time>2021-05-17T13:57:25Z</time>
      </trkpt>
      <trkpt lat="41.6490890" lon="-8.7831960">
        <ele>34.1</ele>
        <time>2021-05-17T13:57:26Z</time>
      </trkpt>
      <trkpt lat="41.6490890" lon="-8.7831960">
        <ele>34.1</ele>
        <time>2021-05-17T13:57:27Z</time>
      </trkpt>
      <trkpt lat="41.6490890" lon="-8.7831950">
        <ele>34.1</ele>
        <time>2021-05-17T13:57:28Z</time>
      </trkpt>
      <trkpt lat="41.6490890" lon="-8.7831950">
        <ele>34.1</ele>
        <time>2021-05-17T13:57:29Z</time>
      </trkpt>
      <trkpt lat="41.6490880" lon="-8.7831950">
        <ele>34.1</ele>
        <time>2021-05-17T13:57:30Z</time>
      </trkpt>
      <trkpt lat="41.6490880" lon="-8.7831950">
        <ele>34.1</ele>
        <time>2021-05-17T13:57:31Z</time>
      </trkpt>
      <trkpt lat="41.6490880" lon="-8.7831950">
        <ele>34.1</ele>
        <time>2021-05-17T13:57:32Z</time>
      </trkpt>
      <trkpt lat="41.6490880" lon="-8.7831950">
        <ele>34.1</ele>
        <time>2021-05-17T13:57:33Z</time>
      </trkpt>
      <trkpt lat="41.6490880" lon="-8.7831950">
        <ele>34.1</ele>
        <time>2021-05-17T13:57:34Z</time>
      </trkpt>
      <trkpt lat="41.6490880" lon="-8.7831950">
        <ele>34.1</ele>
        <time>2021-05-17T13:57:35Z</time>
      </trkpt>
      <trkpt lat="41.6490880" lon="-8.7831950">
        <ele>34.1</ele>
        <time>2021-05-17T13:57:36Z</time>
      </trkpt>
      <trkpt lat="41.6490880" lon="-8.7831940">
        <ele>34.1</ele>
        <time>2021-05-17T13:57:37Z</time>
      </trkpt>
      <trkpt lat="41.6490880" lon="-8.7831940">
        <ele>34.1</ele>
        <time>2021-05-17T13:57:38Z</time>
      </trkpt>
      <trkpt lat="41.6490880" lon="-8.7831940">
        <ele>34.1</ele>
        <time>2021-05-17T13:57:39Z</time>
      </trkpt>
      <trkpt lat="41.6490880" lon="-8.7831940">
        <ele>34.1</ele>
        <time>2021-05-17T13:57:40Z</time>
      </trkpt>
      <trkpt lat="41.6490880" lon="-8.7831940">
        <ele>34.1</ele>
        <time>2021-05-17T13:57:41Z</time>
      </trkpt>
      <trkpt lat="41.6490880" lon="-8.7831940">
        <ele>34.1</ele>
        <time>2021-05-17T13:57:42Z</time>
      </trkpt>
      <trkpt lat="41.6490870" lon="-8.7831940">
        <ele>34.1</ele>
        <time>2021-05-17T13:57:43Z</time>
      </trkpt>
      <trkpt lat="41.6490870" lon="-8.7831940">
        <ele>34.1</ele>
        <time>2021-05-17T13:57:44Z</time>
      </trkpt>
      <trkpt lat="41.6490870" lon="-8.7831940">
        <ele>34.1</ele>
        <time>2021-05-17T13:57:45Z</time>
      </trkpt>
      <trkpt lat="41.6490870" lon="-8.7831930">
        <ele>34.1</ele>
        <time>2021-05-17T13:57:46Z</time>
      </trkpt>
      <trkpt lat="41.6490870" lon="-8.7831930">
        <ele>34.1</ele>
        <time>2021-05-17T13:57:47Z</time>
      </trkpt>
      <trkpt lat="41.6490870" lon="-8.7831930">
        <ele>34.1</ele>
        <time>2021-05-17T13:57:48Z</time>
      </trkpt>
      <trkpt lat="41.6490870" lon="-8.7831930">
        <ele>34.1</ele>
        <time>2021-05-17T13:57:49Z</time>
      </trkpt>
      <trkpt lat="41.6490870" lon="-8.7831930">
        <ele>34.1</ele>
        <time>2021-05-17T13:57:50Z</time>
      </trkpt>
      <trkpt lat="41.6490870" lon="-8.7831930">
        <ele>34.1</ele>
        <time>2021-05-17T13:57:51Z</time>
      </trkpt>
      <trkpt lat="41.6490870" lon="-8.7831930">
        <ele>34.1</ele>
        <time>2021-05-17T13:57:52Z</time>
      </trkpt>
      <trkpt lat="41.6490870" lon="-8.7831930">
        <ele>34.1</ele>
        <time>2021-05-17T13:57:53Z</time>
      </trkpt>
      <trkpt lat="41.6490870" lon="-8.7831930">
        <ele>34.1</ele>
        <time>2021-05-17T13:57:54Z</time>
      </trkpt>
      <trkpt lat="41.6490870" lon="-8.7831930">
        <ele>34.1</ele>
        <time>2021-05-17T13:57:55Z</time>
      </trkpt>
      <trkpt lat="41.6490870" lon="-8.7831920">
        <ele>34.1</ele>
        <time>2021-05-17T13:57:56Z</time>
      </trkpt>
      <trkpt lat="41.6490860" lon="-8.7831920">
        <ele>34.1</ele>
        <time>2021-05-17T13:57:57Z</time>
      </trkpt>
      <trkpt lat="41.6490860" lon="-8.7831920">
        <ele>34.1</ele>
        <time>2021-05-17T13:57:58Z</time>
      </trkpt>
      <trkpt lat="41.6490860" lon="-8.7831920">
        <ele>34.1</ele>
        <time>2021-05-17T13:57:59Z</time>
      </trkpt>
      <trkpt lat="41.6490860" lon="-8.7831920">
        <ele>34.1</ele>
        <time>2021-05-17T13:58:00Z</time>
      </trkpt>
      <trkpt lat="41.6490860" lon="-8.7831920">
        <ele>34.1</ele>
        <time>2021-05-17T13:58:01Z</time>
      </trkpt>
      <trkpt lat="41.6490860" lon="-8.7831920">
        <ele>34.1</ele>
        <time>2021-05-17T13:58:02Z</time>
      </trkpt>
      <trkpt lat="41.6490860" lon="-8.7831920">
        <ele>34.1</ele>
        <time>2021-05-17T13:58:03Z</time>
      </trkpt>
      <trkpt lat="41.6490860" lon="-8.7831920">
        <ele>34.1</ele>
        <time>2021-05-17T13:58:04Z</time>
      </trkpt>
      <trkpt lat="41.6490860" lon="-8.7831910">
        <ele>34.1</ele>
        <time>2021-05-17T13:58:05Z</time>
      </trkpt>
      <trkpt lat="41.6490860" lon="-8.7831910">
        <ele>34.1</ele>
        <time>2021-05-17T13:58:06Z</time>
      </trkpt>
      <trkpt lat="41.6490860" lon="-8.7831910">
        <ele>34.1</ele>
        <time>2021-05-17T13:58:07Z</time>
      </trkpt>
      <trkpt lat="41.6490860" lon="-8.7831910">
        <ele>34.1</ele>
        <time>2021-05-17T13:58:08Z</time>
      </trkpt>
      <trkpt lat="41.6490860" lon="-8.7831910">
        <ele>34.1</ele>
        <time>2021-05-17T13:58:09Z</time>
      </trkpt>
      <trkpt lat="41.6490850" lon="-8.7831910">
        <ele>34.1</ele>
        <time>2021-05-17T13:58:10Z</time>
      </trkpt>
      <trkpt lat="41.6490850" lon="-8.7831910">
        <ele>34.1</ele>
        <time>2021-05-17T13:58:11Z</time>
      </trkpt>
      <trkpt lat="41.6490850" lon="-8.7831910">
        <ele>34.1</ele>
        <time>2021-05-17T13:58:12Z</time>
      </trkpt>
      <trkpt lat="41.6490850" lon="-8.7831910">
        <ele>34.1</ele>
        <time>2021-05-17T13:58:13Z</time>
      </trkpt>
      <trkpt lat="41.6490850" lon="-8.7831900">
        <ele>34.1</ele>
        <time>2021-05-17T13:58:14Z</time>
      </trkpt>
      <trkpt lat="41.6490850" lon="-8.7831900">
        <ele>34.1</ele>
        <time>2021-05-17T13:58:15Z</time>
      </trkpt>
      <trkpt lat="41.6490850" lon="-8.7831900">
        <ele>34.1</ele>
        <time>2021-05-17T13:58:16Z</time>
      </trkpt>
      <trkpt lat="41.6490850" lon="-8.7831900">
        <ele>34.1</ele>
        <time>2021-05-17T13:58:17Z</time>
      </trkpt>
      <trkpt lat="41.6490850" lon="-8.7831900">
        <ele>34.1</ele>
        <time>2021-05-17T13:58:18Z</time>
      </trkpt>
      <trkpt lat="41.6490850" lon="-8.7831900">
        <ele>34.1</ele>
        <time>2021-05-17T13:58:19Z</time>
      </trkpt>
      <trkpt lat="41.6490850" lon="-8.7831900">
        <ele>34.1</ele>
        <time>2021-05-17T13:58:20Z</time>
      </trkpt>
      <trkpt lat="41.6490850" lon="-8.7831900">
        <ele>34.1</ele>
        <time>2021-05-17T13:58:21Z</time>
      </trkpt>
      <trkpt lat="41.6490850" lon="-8.7831900">
        <ele>34.1</ele>
        <time>2021-05-17T13:58:22Z</time>
      </trkpt>
      <trkpt lat="41.6490840" lon="-8.7831890">
        <ele>34.1</ele>
        <time>2021-05-17T13:58:23Z</time>
      </trkpt>
      <trkpt lat="41.6490840" lon="-8.7831890">
        <ele>34.1</ele>
        <time>2021-05-17T13:58:24Z</time>
      </trkpt>
      <trkpt lat="41.6490840" lon="-8.7831890">
        <ele>34.1</ele>
        <time>2021-05-17T13:58:25Z</time>
      </trkpt>
      <trkpt lat="41.6490840" lon="-8.7831890">
        <ele>34.1</ele>
        <time>2021-05-17T13:58:26Z</time>
      </trkpt>
      <trkpt lat="41.6490840" lon="-8.7831890">
        <ele>34.1</ele>
        <time>2021-05-17T13:58:27Z</time>
      </trkpt>
      <trkpt lat="41.6490840" lon="-8.7831890">
        <ele>34.1</ele>
        <time>2021-05-17T13:58:28Z</time>
      </trkpt>
      <trkpt lat="41.6490840" lon="-8.7831890">
        <ele>34.1</ele>
        <time>2021-05-17T13:58:29Z</time>
      </trkpt>
      <trkpt lat="41.6490840" lon="-8.7831890">
        <ele>34.1</ele>
        <time>2021-05-17T13:58:30Z</time>
      </trkpt>
      <trkpt lat="41.6490840" lon="-8.7831890">
        <ele>34.1</ele>
        <time>2021-05-17T13:58:31Z</time>
      </trkpt>
      <trkpt lat="41.6490840" lon="-8.7831880">
        <ele>34.1</ele>
        <time>2021-05-17T13:58:32Z</time>
      </trkpt>
      <trkpt lat="41.6490840" lon="-8.7831880">
        <ele>34.1</ele>
        <time>2021-05-17T13:58:33Z</time>
      </trkpt>
      <trkpt lat="41.6490840" lon="-8.7831880">
        <ele>34.1</ele>
        <time>2021-05-17T13:58:34Z</time>
      </trkpt>
      <trkpt lat="41.6490840" lon="-8.7831880">
        <ele>34.1</ele>
        <time>2021-05-17T13:58:35Z</time>
      </trkpt>
      <trkpt lat="41.6490830" lon="-8.7831880">
        <ele>34.1</ele>
        <time>2021-05-17T13:58:36Z</time>
      </trkpt>
      <trkpt lat="41.6490830" lon="-8.7831880">
        <ele>34.1</ele>
        <time>2021-05-17T13:58:37Z</time>
      </trkpt>
      <trkpt lat="41.6490830" lon="-8.7831880">
        <ele>34.1</ele>
        <time>2021-05-17T13:58:38Z</time>
      </trkpt>
      <trkpt lat="41.6490830" lon="-8.7831880">
        <ele>34.1</ele>
        <time>2021-05-17T13:58:39Z</time>
      </trkpt>
      <trkpt lat="41.6490830" lon="-8.7831880">
        <ele>34.1</ele>
        <time>2021-05-17T13:58:40Z</time>
      </trkpt>
      <trkpt lat="41.6490830" lon="-8.7831870">
        <ele>34.1</ele>
        <time>2021-05-17T13:58:41Z</time>
      </trkpt>
      <trkpt lat="41.6490830" lon="-8.7831870">
        <ele>34.1</ele>
        <time>2021-05-17T13:58:42Z</time>
      </trkpt>
      <trkpt lat="41.6490830" lon="-8.7831870">
        <ele>34.1</ele>
        <time>2021-05-17T13:58:43Z</time>
      </trkpt>
      <trkpt lat="41.6490830" lon="-8.7831870">
        <ele>34.1</ele>
        <time>2021-05-17T13:58:44Z</time>
      </trkpt>
      <trkpt lat="41.6490830" lon="-8.7831870">
        <ele>34.1</ele>
        <time>2021-05-17T13:58:45Z</time>
      </trkpt>
      <trkpt lat="41.6490830" lon="-8.7831870">
        <ele>34.1</ele>
        <time>2021-05-17T13:58:46Z</time>
      </trkpt>
      <trkpt lat="41.6490830" lon="-8.7831870">
        <ele>34.1</ele>
        <time>2021-05-17T13:58:47Z</time>
      </trkpt>
      <trkpt lat="41.6490830" lon="-8.7831870">
        <ele>34.1</ele>
        <time>2021-05-17T13:58:48Z</time>
      </trkpt>
      <trkpt lat="41.6490820" lon="-8.7831870">
        <ele>34.1</ele>
        <time>2021-05-17T13:58:49Z</time>
      </trkpt>
      <trkpt lat="41.6490820" lon="-8.7831860">
        <ele>34.1</ele>
        <time>2021-05-17T13:58:50Z</time>
      </trkpt>
      <trkpt lat="41.6490820" lon="-8.7831860">
        <ele>34.1</ele>
        <time>2021-05-17T13:58:51Z</time>
      </trkpt>
      <trkpt lat="41.6490820" lon="-8.7831860">
        <ele>34.1</ele>
        <time>2021-05-17T13:58:52Z</time>
      </trkpt>
      <trkpt lat="41.6490820" lon="-8.7831860">
        <ele>34.1</ele>
        <time>2021-05-17T13:58:53Z</time>
      </trkpt>
      <trkpt lat="41.6490820" lon="-8.7831860">
        <ele>34.1</ele>
        <time>2021-05-17T13:58:54Z</time>
      </trkpt>
      <trkpt lat="41.6490820" lon="-8.7831860">
        <ele>34.1</ele>
        <time>2021-05-17T13:58:55Z</time>
      </trkpt>
      <trkpt lat="41.6490820" lon="-8.7831860">
        <ele>34.1</ele>
        <time>2021-05-17T13:58:56Z</time>
      </trkpt>
      <trkpt lat="41.6490820" lon="-8.7831860">
        <ele>34.1</ele>
        <time>2021-05-17T13:58:57Z</time>
      </trkpt>
      <trkpt lat="41.6490820" lon="-8.7831860">
        <ele>34.1</ele>
        <time>2021-05-17T13:58:58Z</time>
      </trkpt>
      <trkpt lat="41.6490820" lon="-8.7831860">
        <ele>34.1</ele>
        <time>2021-05-17T13:58:59Z</time>
      </trkpt>
      <trkpt lat="41.6490820" lon="-8.7831850">
        <ele>34.1</ele>
        <time>2021-05-17T13:59:00Z</time>
      </trkpt>
      <trkpt lat="41.6490820" lon="-8.7831850">
        <ele>34.1</ele>
        <time>2021-05-17T13:59:01Z</time>
      </trkpt>
      <trkpt lat="41.6490820" lon="-8.7831850">
        <ele>34.1</ele>
        <time>2021-05-17T13:59:02Z</time>
      </trkpt>
      <trkpt lat="41.6490810" lon="-8.7831850">
        <ele>34.1</ele>
        <time>2021-05-17T13:59:03Z</time>
      </trkpt>
      <trkpt lat="41.6490810" lon="-8.7831850">
        <ele>34.1</ele>
        <time>2021-05-17T13:59:04Z</time>
      </trkpt>
      <trkpt lat="41.6490810" lon="-8.7831850">
        <ele>34.1</ele>
        <time>2021-05-17T13:59:05Z</time>
      </trkpt>
      <trkpt lat="41.6490810" lon="-8.7831850">
        <ele>34.1</ele>
        <time>2021-05-17T13:59:06Z</time>
      </trkpt>
      <trkpt lat="41.6490810" lon="-8.7831850">
        <ele>34.1</ele>
        <time>2021-05-17T13:59:07Z</time>
      </trkpt>
      <trkpt lat="41.6490810" lon="-8.7831850">
        <ele>34.1</ele>
        <time>2021-05-17T13:59:08Z</time>
      </trkpt>
      <trkpt lat="41.6490810" lon="-8.7831840">
        <ele>34.1</ele>
        <time>2021-05-17T13:59:09Z</time>
      </trkpt>
      <trkpt lat="41.6490810" lon="-8.7831840">
        <ele>34.1</ele>
        <time>2021-05-17T13:59:10Z</time>
      </trkpt>
      <trkpt lat="41.6490810" lon="-8.7831840">
        <ele>34.1</ele>
        <time>2021-05-17T13:59:11Z</time>
      </trkpt>
      <trkpt lat="41.6490810" lon="-8.7831840">
        <ele>34.1</ele>
        <time>2021-05-17T13:59:12Z</time>
      </trkpt>
      <trkpt lat="41.6490810" lon="-8.7831840">
        <ele>34.1</ele>
        <time>2021-05-17T13:59:13Z</time>
      </trkpt>
      <trkpt lat="41.6490810" lon="-8.7831840">
        <ele>34.1</ele>
        <time>2021-05-17T13:59:14Z</time>
      </trkpt>
      <trkpt lat="41.6490810" lon="-8.7831840">
        <ele>34.1</ele>
        <time>2021-05-17T13:59:15Z</time>
      </trkpt>
      <trkpt lat="41.6490800" lon="-8.7831840">
        <ele>34.1</ele>
        <time>2021-05-17T13:59:16Z</time>
      </trkpt>
      <trkpt lat="41.6490800" lon="-8.7831840">
        <ele>34.1</ele>
        <time>2021-05-17T13:59:17Z</time>
      </trkpt>
      <trkpt lat="41.6490800" lon="-8.7831830">
        <ele>34.1</ele>
        <time>2021-05-17T13:59:18Z</time>
      </trkpt>
      <trkpt lat="41.6490800" lon="-8.7831830">
        <ele>34.1</ele>
        <time>2021-05-17T13:59:19Z</time>
      </trkpt>
      <trkpt lat="41.6490800" lon="-8.7831830">
        <ele>34.1</ele>
        <time>2021-05-17T13:59:20Z</time>
      </trkpt>
      <trkpt lat="41.6490800" lon="-8.7831830">
        <ele>34.1</ele>
        <time>2021-05-17T13:59:21Z</time>
      </trkpt>
      <trkpt lat="41.6490800" lon="-8.7831830">
        <ele>34.1</ele>
        <time>2021-05-17T13:59:22Z</time>
      </trkpt>
      <trkpt lat="41.6490800" lon="-8.7831820">
        <ele>34.1</ele>
        <time>2021-05-17T13:59:23Z</time>
      </trkpt>
      <trkpt lat="41.6490800" lon="-8.7831820">
        <ele>34.1</ele>
        <time>2021-05-17T13:59:24Z</time>
      </trkpt>
      <trkpt lat="41.6490800" lon="-8.7831820">
        <ele>34.1</ele>
        <time>2021-05-17T13:59:25Z</time>
      </trkpt>
      <trkpt lat="41.6490800" lon="-8.7831820">
        <ele>34.1</ele>
        <time>2021-05-17T13:59:26Z</time>
      </trkpt>
      <trkpt lat="41.6490800" lon="-8.7831820">
        <ele>34.1</ele>
        <time>2021-05-17T13:59:27Z</time>
      </trkpt>
      <trkpt lat="41.6490800" lon="-8.7831820">
        <ele>34.1</ele>
        <time>2021-05-17T13:59:28Z</time>
      </trkpt>
      <trkpt lat="41.6490800" lon="-8.7831820">
        <ele>34.1</ele>
        <time>2021-05-17T13:59:29Z</time>
      </trkpt>
      <trkpt lat="41.6490800" lon="-8.7831820">
        <ele>34.1</ele>
        <time>2021-05-17T13:59:30Z</time>
      </trkpt>
      <trkpt lat="41.6490800" lon="-8.7831820">
        <ele>34.1</ele>
        <time>2021-05-17T13:59:31Z</time>
      </trkpt>
      <trkpt lat="41.6490800" lon="-8.7831820">
        <ele>34.1</ele>
        <time>2021-05-17T13:59:32Z</time>
      </trkpt>
      <trkpt lat="41.6490800" lon="-8.7831820">
        <ele>34.1</ele>
        <time>2021-05-17T13:59:33Z</time>
      </trkpt>
      <trkpt lat="41.6490800" lon="-8.7831820">
        <ele>34.1</ele>
        <time>2021-05-17T13:59:34Z</time>
      </trkpt>
      <trkpt lat="41.6490800" lon="-8.7831820">
        <ele>34.1</ele>
        <time>2021-05-17T13:59:35Z</time>
      </trkpt>
      <trkpt lat="41.6490800" lon="-8.7831820">
        <ele>34.1</ele>
        <time>2021-05-17T13:59:36Z</time>
      </trkpt>
      <trkpt lat="41.6490800" lon="-8.7831820">
        <ele>34.1</ele>
        <time>2021-05-17T13:59:37Z</time>
      </trkpt>
      <trkpt lat="41.6490800" lon="-8.7831820">
        <ele>34.1</ele>
        <time>2021-05-17T13:59:38Z</time>
      </trkpt>
      <trkpt lat="41.6490800" lon="-8.7831820">
        <ele>34.1</ele>
        <time>2021-05-17T13:59:39Z</time>
      </trkpt>
      <trkpt lat="41.6490800" lon="-8.7831820">
        <ele>34.1</ele>
        <time>2021-05-17T13:59:40Z</time>
      </trkpt>
      <trkpt lat="41.6490800" lon="-8.7831820">
        <ele>34.1</ele>
        <time>2021-05-17T13:59:41Z</time>
      </trkpt>
      <trkpt lat="41.6490800" lon="-8.7831820">
        <ele>34.1</ele>
        <time>2021-05-17T13:59:42Z</time>
      </trkpt>
      <trkpt lat="41.6490800" lon="-8.7831820">
        <ele>34.1</ele>
        <time>2021-05-17T13:59:43Z</time>
      </trkpt>
      <trkpt lat="41.6490800" lon="-8.7831820">
        <ele>34.1</ele>
        <time>2021-05-17T13:59:44Z</time>
      </trkpt>
      <trkpt lat="41.6490800" lon="-8.7831820">
        <ele>34.1</ele>
        <time>2021-05-17T13:59:45Z</time>
      </trkpt>
      <trkpt lat="41.6490800" lon="-8.7831820">
        <ele>34.1</ele>
        <time>2021-05-17T13:59:46Z</time>
      </trkpt>
      <trkpt lat="41.6490800" lon="-8.7831820">
        <ele>34.1</ele>
        <time>2021-05-17T13:59:47Z</time>
      </trkpt>
      <trkpt lat="41.6490800" lon="-8.7831820">
        <ele>34.1</ele>
        <time>2021-05-17T13:59:48Z</time>
      </trkpt>
      <trkpt lat="41.6490800" lon="-8.7831820">
        <ele>34.1</ele>
        <time>2021-05-17T13:59:49Z</time>
      </trkpt>
      <trkpt lat="41.6490800" lon="-8.7831820">
        <ele>34.1</ele>
        <time>2021-05-17T13:59:50Z</time>
      </trkpt>
      <trkpt lat="41.6490800" lon="-8.7831820">
        <ele>34.1</ele>
        <time>2021-05-17T13:59:51Z</time>
      </trkpt>
      <trkpt lat="41.6490800" lon="-8.7831820">
        <ele>34.1</ele>
        <time>2021-05-17T13:59:52Z</time>
      </trkpt>
      <trkpt lat="41.6490800" lon="-8.7831820">
        <ele>34.1</ele>
        <time>2021-05-17T13:59:53Z</time>
      </trkpt>
      <trkpt lat="41.6490800" lon="-8.7831820">
        <ele>34.1</ele>
        <time>2021-05-17T13:59:54Z</time>
      </trkpt>
      <trkpt lat="41.6490800" lon="-8.7831820">
        <ele>34.1</ele>
        <time>2021-05-17T13:59:55Z</time>
      </trkpt>
      <trkpt lat="41.6490800" lon="-8.7831820">
        <ele>34.1</ele>
        <time>2021-05-17T13:59:56Z</time>
      </trkpt>
      <trkpt lat="41.6490800" lon="-8.7831820">
        <ele>34.1</ele>
        <time>2021-05-17T13:59:57Z</time>
      </trkpt>
      <trkpt lat="41.6490800" lon="-8.7831820">
        <ele>34.1</ele>
        <time>2021-05-17T13:59:58Z</time>
      </trkpt>
      <trkpt lat="41.6490800" lon="-8.7831820">
        <ele>34.1</ele>
        <time>2021-05-17T13:59:59Z</time>
      </trkpt>
      <trkpt lat="41.6490800" lon="-8.7831820">
        <ele>34.1</ele>
        <time>2021-05-17T14:00:00Z</time>
      </trkpt>
      <trkpt lat="41.6490800" lon="-8.7831820">
        <ele>34.1</ele>
        <time>2021-05-17T14:00:01Z</time>
      </trkpt>
      <trkpt lat="41.6490800" lon="-8.7831820">
        <ele>34.1</ele>
        <time>2021-05-17T14:00:02Z</time>
      </trkpt>
      <trkpt lat="41.6490800" lon="-8.7831820">
        <ele>34.1</ele>
        <time>2021-05-17T14:00:03Z</time>
      </trkpt>
      <trkpt lat="41.6490800" lon="-8.7831820">
        <ele>34.1</ele>
        <time>2021-05-17T14:00:04Z</time>
      </trkpt>
      <trkpt lat="41.6490800" lon="-8.7831820">
        <ele>34.1</ele>
        <time>2021-05-17T14:00:05Z</time>
      </trkpt>
      <trkpt lat="41.6490800" lon="-8.7831820">
        <ele>34.1</ele>
        <time>2021-05-17T14:00:06Z</time>
      </trkpt>
      <trkpt lat="41.6490800" lon="-8.7831820">
        <ele>34.1</ele>
        <time>2021-05-17T14:00:07Z</time>
      </trkpt>
      <trkpt lat="41.6490800" lon="-8.7831820">
        <ele>34.1</ele>
        <time>2021-05-17T14:00:08Z</time>
      </trkpt>
      <trkpt lat="41.6490800" lon="-8.7831820">
        <ele>34.1</ele>
        <time>2021-05-17T14:00:09Z</time>
      </trkpt>
      <trkpt lat="41.6490800" lon="-8.7831820">
        <ele>34.1</ele>
        <time>2021-05-17T14:00:10Z</time>
      </trkpt>
      <trkpt lat="41.6490800" lon="-8.7831820">
        <ele>34.1</ele>
        <time>2021-05-17T14:00:11Z</time>
      </trkpt>
      <trkpt lat="41.6490800" lon="-8.7831820">
        <ele>34.1</ele>
        <time>2021-05-17T14:00:12Z</time>
      </trkpt>
      <trkpt lat="41.6490800" lon="-8.7831820">
        <ele>34.1</ele>
        <time>2021-05-17T14:00:13Z</time>
      </trkpt>
      <trkpt lat="41.6490800" lon="-8.7831820">
        <ele>34.1</ele>
        <time>2021-05-17T14:00:14Z</time>
      </trkpt>
      <trkpt lat="41.6490800" lon="-8.7831820">
        <ele>34.1</ele>
        <time>2021-05-17T14:00:15Z</time>
      </trkpt>
      <trkpt lat="41.6490800" lon="-8.7831820">
        <ele>34.1</ele>
        <time>2021-05-17T14:00:16Z</time>
      </trkpt>
      <trkpt lat="41.6490650" lon="-8.7832030">
        <ele>34.1</ele>
        <time>2021-05-17T14:00:17Z</time>
      </trkpt>
      <trkpt lat="41.6490650" lon="-8.7832000">
        <ele>34.1</ele>
        <time>2021-05-17T14:00:18Z</time>
      </trkpt>
      <trkpt lat="41.6490630" lon="-8.7832020">
        <ele>34.1</ele>
        <time>2021-05-17T14:00:19Z</time>
      </trkpt>
      <trkpt lat="41.6490620" lon="-8.7832040">
        <ele>34.1</ele>
        <time>2021-05-17T14:00:20Z</time>
      </trkpt>
      <trkpt lat="41.6490600" lon="-8.7832030">
        <ele>34.1</ele>
        <time>2021-05-17T14:00:21Z</time>
      </trkpt>
      <trkpt lat="41.6490570" lon="-8.7832000">
        <ele>34.1</ele>
        <time>2021-05-17T14:00:22Z</time>
      </trkpt>
      <trkpt lat="41.6490590" lon="-8.7832070">
        <ele>34.1</ele>
        <time>2021-05-17T14:00:23Z</time>
      </trkpt>
      <trkpt lat="41.6490660" lon="-8.7832020">
        <ele>34.1</ele>
        <time>2021-05-17T14:00:24Z</time>
      </trkpt>
      <trkpt lat="41.6490690" lon="-8.7831940">
        <ele>34.1</ele>
        <time>2021-05-17T14:00:25Z</time>
      </trkpt>
      <trkpt lat="41.6490730" lon="-8.7831860">
        <ele>34.1</ele>
        <time>2021-05-17T14:00:26Z</time>
      </trkpt>
      <trkpt lat="41.6490760" lon="-8.7831770">
        <ele>34.1</ele>
        <time>2021-05-17T14:00:27Z</time>
      </trkpt>
      <trkpt lat="41.6490800" lon="-8.7831690">
        <ele>34.1</ele>
        <time>2021-05-17T14:00:28Z</time>
      </trkpt>
      <trkpt lat="41.6490830" lon="-8.7831610">
        <ele>34.1</ele>
        <time>2021-05-17T14:00:29Z</time>
      </trkpt>
      <trkpt lat="41.6490960" lon="-8.7831420">
        <ele>34.1</ele>
        <time>2021-05-17T14:00:30Z</time>
      </trkpt>
      <trkpt lat="41.6491010" lon="-8.7831310">
        <ele>34.1</ele>
        <time>2021-05-17T14:00:31Z</time>
      </trkpt>
      <trkpt lat="41.6491070" lon="-8.7831210">
        <ele>34.1</ele>
        <time>2021-05-17T14:00:32Z</time>
      </trkpt>
      <trkpt lat="41.6491030" lon="-8.7831180">
        <ele>34.1</ele>
        <time>2021-05-17T14:00:33Z</time>
      </trkpt>
      <trkpt lat="41.6491140" lon="-8.7831010">
        <ele>34.1</ele>
        <time>2021-05-17T14:00:34Z</time>
      </trkpt>
      <trkpt lat="41.6491160" lon="-8.7830900">
        <ele>34.1</ele>
        <time>2021-05-17T14:00:35Z</time>
      </trkpt>
      <trkpt lat="41.6491230" lon="-8.7830800">
        <ele>34.1</ele>
        <time>2021-05-17T14:00:36Z</time>
      </trkpt>
      <trkpt lat="41.6491440" lon="-8.7830600">
        <ele>34.1</ele>
        <time>2021-05-17T14:00:37Z</time>
      </trkpt>
      <trkpt lat="41.6491510" lon="-8.7830560">
        <ele>34.1</ele>
        <time>2021-05-17T14:00:38Z</time>
      </trkpt>
      <trkpt lat="41.6491580" lon="-8.7830520">
        <ele>34.1</ele>
        <time>2021-05-17T14:00:39Z</time>
      </trkpt>
      <trkpt lat="41.6491660" lon="-8.7830500">
        <ele>34.1</ele>
        <time>2021-05-17T14:00:40Z</time>
      </trkpt>
      <trkpt lat="41.6491740" lon="-8.7830470">
        <ele>34.1</ele>
        <time>2021-05-17T14:00:41Z</time>
      </trkpt>
      <trkpt lat="41.6491780" lon="-8.7830480">
        <ele>34.1</ele>
        <time>2021-05-17T14:00:42Z</time>
      </trkpt>
      <trkpt lat="41.6491830" lon="-8.7830520">
        <ele>34.1</ele>
        <time>2021-05-17T14:00:43Z</time>
      </trkpt>
      <trkpt lat="41.6491880" lon="-8.7830500">
        <ele>34.1</ele>
        <time>2021-05-17T14:00:44Z</time>
      </trkpt>
      <trkpt lat="41.6491880" lon="-8.7830580">
        <ele>34.1</ele>
        <time>2021-05-17T14:00:45Z</time>
      </trkpt>
      <trkpt lat="41.6491840" lon="-8.7830630">
        <ele>34.1</ele>
        <time>2021-05-17T14:00:46Z</time>
      </trkpt>
      <trkpt lat="41.6491770" lon="-8.7830670">
        <ele>34.1</ele>
        <time>2021-05-17T14:00:47Z</time>
      </trkpt>
      <trkpt lat="41.6491710" lon="-8.7830670">
        <ele>34.1</ele>
        <time>2021-05-17T14:00:48Z</time>
      </trkpt>
      <trkpt lat="41.6491630" lon="-8.7830720">
        <ele>34.1</ele>
        <time>2021-05-17T14:00:49Z</time>
      </trkpt>
      <trkpt lat="41.6491540" lon="-8.7830820">
        <ele>34.1</ele>
        <time>2021-05-17T14:00:50Z</time>
      </trkpt>
      <trkpt lat="41.6491520" lon="-8.7831010">
        <ele>34.1</ele>
        <time>2021-05-17T14:00:51Z</time>
      </trkpt>
      <trkpt lat="41.6491440" lon="-8.7831140">
        <ele>34.1</ele>
        <time>2021-05-17T14:00:52Z</time>
      </trkpt>
      <trkpt lat="41.6491330" lon="-8.7831410">
        <ele>34.1</ele>
        <time>2021-05-17T14:00:53Z</time>
      </trkpt>
      <trkpt lat="41.6491280" lon="-8.7831530">
        <ele>34.2</ele>
        <time>2021-05-17T14:00:54Z</time>
      </trkpt>
      <trkpt lat="41.6491220" lon="-8.7831760">
        <ele>34.2</ele>
        <time>2021-05-17T14:00:55Z</time>
      </trkpt>
      <trkpt lat="41.6491210" lon="-8.7831800">
        <ele>34.2</ele>
        <time>2021-05-17T14:00:56Z</time>
      </trkpt>
      <trkpt lat="41.6491140" lon="-8.7831940">
        <ele>34.2</ele>
        <time>2021-05-17T14:00:57Z</time>
      </trkpt>
      <trkpt lat="41.6491130" lon="-8.7832030">
        <ele>34.2</ele>
        <time>2021-05-17T14:00:58Z</time>
      </trkpt>
      <trkpt lat="41.6491090" lon="-8.7832190">
        <ele>34.2</ele>
        <time>2021-05-17T14:00:59Z</time>
      </trkpt>
      <trkpt lat="41.6491080" lon="-8.7832300">
        <ele>34.2</ele>
        <time>2021-05-17T14:01:00Z</time>
      </trkpt>
      <trkpt lat="41.6491110" lon="-8.7832330">
        <ele>34.2</ele>
        <time>2021-05-17T14:01:01Z</time>
      </trkpt>
      <trkpt lat="41.6491110" lon="-8.7832330">
        <ele>34.2</ele>
        <time>2021-05-17T14:01:02Z</time>
      </trkpt>
      <trkpt lat="41.6491110" lon="-8.7832360">
        <ele>34.2</ele>
        <time>2021-05-17T14:01:03Z</time>
      </trkpt>
      <trkpt lat="41.6491090" lon="-8.7832360">
        <ele>34.2</ele>
        <time>2021-05-17T14:01:04Z</time>
      </trkpt>
      <trkpt lat="41.6491060" lon="-8.7832380">
        <ele>34.2</ele>
        <time>2021-05-17T14:01:05Z</time>
      </trkpt>
      <trkpt lat="41.6491060" lon="-8.7832390">
        <ele>34.2</ele>
        <time>2021-05-17T14:01:06Z</time>
      </trkpt>
      <trkpt lat="41.6491010" lon="-8.7832400">
        <ele>34.2</ele>
        <time>2021-05-17T14:01:07Z</time>
      </trkpt>
      <trkpt lat="41.6491000" lon="-8.7832390">
        <ele>34.2</ele>
        <time>2021-05-17T14:01:08Z</time>
      </trkpt>
      <trkpt lat="41.6490960" lon="-8.7832360">
        <ele>34.2</ele>
        <time>2021-05-17T14:01:09Z</time>
      </trkpt>
      <trkpt lat="41.6490980" lon="-8.7832390">
        <ele>34.2</ele>
        <time>2021-05-17T14:01:10Z</time>
      </trkpt>
      <trkpt lat="41.6490980" lon="-8.7832410">
        <ele>34.2</ele>
        <time>2021-05-17T14:01:11Z</time>
      </trkpt>
      <trkpt lat="41.6490960" lon="-8.7832430">
        <ele>34.2</ele>
        <time>2021-05-17T14:01:12Z</time>
      </trkpt>
      <trkpt lat="41.6490910" lon="-8.7832390">
        <ele>34.2</ele>
        <time>2021-05-17T14:01:13Z</time>
      </trkpt>
      <trkpt lat="41.6490900" lon="-8.7832400">
        <ele>34.2</ele>
        <time>2021-05-17T14:01:14Z</time>
      </trkpt>
      <trkpt lat="41.6490900" lon="-8.7832430">
        <ele>34.2</ele>
        <time>2021-05-17T14:01:15Z</time>
      </trkpt>
      <trkpt lat="41.6490870" lon="-8.7832390">
        <ele>34.2</ele>
        <time>2021-05-17T14:01:16Z</time>
      </trkpt>
      <trkpt lat="41.6490870" lon="-8.7832380">
        <ele>34.2</ele>
        <time>2021-05-17T14:01:17Z</time>
      </trkpt>
      <trkpt lat="41.6490910" lon="-8.7832380">
        <ele>34.2</ele>
        <time>2021-05-17T14:01:18Z</time>
      </trkpt>
      <trkpt lat="41.6490910" lon="-8.7832460">
        <ele>34.2</ele>
        <time>2021-05-17T14:01:19Z</time>
      </trkpt>
      <trkpt lat="41.6490940" lon="-8.7832520">
        <ele>34.2</ele>
        <time>2021-05-17T14:01:20Z</time>
      </trkpt>
      <trkpt lat="41.6490920" lon="-8.7832600">
        <ele>34.2</ele>
        <time>2021-05-17T14:01:21Z</time>
      </trkpt>
      <trkpt lat="41.6490980" lon="-8.7832630">
        <ele>34.2</ele>
        <time>2021-05-17T14:01:22Z</time>
      </trkpt>
      <trkpt lat="41.6491080" lon="-8.7832670">
        <ele>34.2</ele>
        <time>2021-05-17T14:01:23Z</time>
      </trkpt>
      <trkpt lat="41.6491060" lon="-8.7832610">
        <ele>34.2</ele>
        <time>2021-05-17T14:01:24Z</time>
      </trkpt>
      <trkpt lat="41.6491080" lon="-8.7832660">
        <ele>34.2</ele>
        <time>2021-05-17T14:01:25Z</time>
      </trkpt>
      <trkpt lat="41.6491110" lon="-8.7832700">
        <ele>34.2</ele>
        <time>2021-05-17T14:01:26Z</time>
      </trkpt>
      <trkpt lat="41.6491190" lon="-8.7832710">
        <ele>34.2</ele>
        <time>2021-05-17T14:01:27Z</time>
      </trkpt>
      <trkpt lat="41.6491210" lon="-8.7832840">
        <ele>34.2</ele>
        <time>2021-05-17T14:01:28Z</time>
      </trkpt>
      <trkpt lat="41.6491310" lon="-8.7832880">
        <ele>34.2</ele>
        <time>2021-05-17T14:01:29Z</time>
      </trkpt>
      <trkpt lat="41.6491350" lon="-8.7832820">
        <ele>34.2</ele>
        <time>2021-05-17T14:01:30Z</time>
      </trkpt>
      <trkpt lat="41.6491530" lon="-8.7832830">
        <ele>34.2</ele>
        <time>2021-05-17T14:01:31Z</time>
      </trkpt>
      <trkpt lat="41.6491910" lon="-8.7832760">
        <ele>34.2</ele>
        <time>2021-05-17T14:01:32Z</time>
      </trkpt>
      <trkpt lat="41.6492040" lon="-8.7832720">
        <ele>34.2</ele>
        <time>2021-05-17T14:01:33Z</time>
      </trkpt>
      <trkpt lat="41.6491920" lon="-8.7832670">
        <ele>34.2</ele>
        <time>2021-05-17T14:01:34Z</time>
      </trkpt>
      <trkpt lat="41.6491800" lon="-8.7832620">
        <ele>34.2</ele>
        <time>2021-05-17T14:01:35Z</time>
      </trkpt>
      <trkpt lat="41.6491670" lon="-8.7832570">
        <ele>34.2</ele>
        <time>2021-05-17T14:01:36Z</time>
      </trkpt>
      <trkpt lat="41.6491550" lon="-8.7832520">
        <ele>34.2</ele>
        <time>2021-05-17T14:01:37Z</time>
      </trkpt>
      <trkpt lat="41.6491430" lon="-8.7832470">
        <ele>34.2</ele>
        <time>2021-05-17T14:01:38Z</time>
      </trkpt>
      <trkpt lat="41.6491370" lon="-8.7832500">
        <ele>34.2</ele>
        <time>2021-05-17T14:01:39Z</time>
      </trkpt>
      <trkpt lat="41.6491350" lon="-8.7832350">
        <ele>34.2</ele>
        <time>2021-05-17T14:01:40Z</time>
      </trkpt>
      <trkpt lat="41.6491320" lon="-8.7832200">
        <ele>34.2</ele>
        <time>2021-05-17T14:01:41Z</time>
      </trkpt>
      <trkpt lat="41.6491300" lon="-8.7832050">
        <ele>34.2</ele>
        <time>2021-05-17T14:01:42Z</time>
      </trkpt>
      <trkpt lat="41.6491280" lon="-8.7831900">
        <ele>34.2</ele>
        <time>2021-05-17T14:01:43Z</time>
      </trkpt>
      <trkpt lat="41.6491170" lon="-8.7831940">
        <ele>34.2</ele>
        <time>2021-05-17T14:01:44Z</time>
      </trkpt>
      <trkpt lat="41.6491120" lon="-8.7832080">
        <ele>34.2</ele>
        <time>2021-05-17T14:01:45Z</time>
      </trkpt>
      <trkpt lat="41.6491200" lon="-8.7832360">
        <ele>34.2</ele>
        <time>2021-05-17T14:01:46Z</time>
      </trkpt>
      <trkpt lat="41.6491480" lon="-8.7832450">
        <ele>34.2</ele>
        <time>2021-05-17T14:01:47Z</time>
      </trkpt>
      <trkpt lat="41.6491720" lon="-8.7832580">
        <ele>34.2</ele>
        <time>2021-05-17T14:01:48Z</time>
      </trkpt>
      <trkpt lat="41.6491950" lon="-8.7832700">
        <ele>34.2</ele>
        <time>2021-05-17T14:01:49Z</time>
      </trkpt>
      <trkpt lat="41.6492180" lon="-8.7832830">
        <ele>34.2</ele>
        <time>2021-05-17T14:01:50Z</time>
      </trkpt>
      <trkpt lat="41.6491870" lon="-8.7832050">
        <ele>34.2</ele>
        <time>2021-05-17T14:01:51Z</time>
      </trkpt>
      <trkpt lat="41.6491500" lon="-8.7831310">
        <ele>34.2</ele>
        <time>2021-05-17T14:01:52Z</time>
      </trkpt>
      <trkpt lat="41.6491600" lon="-8.7831390">
        <ele>34.3</ele>
        <time>2021-05-17T14:01:53Z</time>
      </trkpt>
      <trkpt lat="41.6491420" lon="-8.7831630">
        <ele>34.3</ele>
        <time>2021-05-17T14:01:54Z</time>
      </trkpt>
      <trkpt lat="41.6491380" lon="-8.7831630">
        <ele>34.3</ele>
        <time>2021-05-17T14:01:55Z</time>
      </trkpt>
      <trkpt lat="41.6491190" lon="-8.7831650">
        <ele>34.3</ele>
        <time>2021-05-17T14:01:56Z</time>
      </trkpt>
      <trkpt lat="41.6491020" lon="-8.7831580">
        <ele>34.3</ele>
        <time>2021-05-17T14:01:57Z</time>
      </trkpt>
      <trkpt lat="41.6490850" lon="-8.7831520">
        <ele>34.3</ele>
        <time>2021-05-17T14:01:58Z</time>
      </trkpt>
      <trkpt lat="41.6490680" lon="-8.7831460">
        <ele>34.3</ele>
        <time>2021-05-17T14:01:59Z</time>
      </trkpt>
      <trkpt lat="41.6490790" lon="-8.7831540">
        <ele>34.3</ele>
        <time>2021-05-17T14:02:00Z</time>
      </trkpt>
      <trkpt lat="41.6491000" lon="-8.7831790">
        <ele>34.3</ele>
        <time>2021-05-17T14:02:01Z</time>
      </trkpt>
      <trkpt lat="41.6491210" lon="-8.7831950">
        <ele>34.2</ele>
        <time>2021-05-17T14:02:02Z</time>
      </trkpt>
      <trkpt lat="41.6491340" lon="-8.7832370">
        <ele>34.2</ele>
        <time>2021-05-17T14:02:03Z</time>
      </trkpt>
      <trkpt lat="41.6491400" lon="-8.7832340">
        <ele>34.2</ele>
        <time>2021-05-17T14:02:04Z</time>
      </trkpt>
      <trkpt lat="41.6491500" lon="-8.7832540">
        <ele>34.2</ele>
        <time>2021-05-17T14:02:05Z</time>
      </trkpt>
      <trkpt lat="41.6491440" lon="-8.7832560">
        <ele>34.2</ele>
        <time>2021-05-17T14:02:06Z</time>
      </trkpt>
      <trkpt lat="41.6491490" lon="-8.7832720">
        <ele>34.2</ele>
        <time>2021-05-17T14:02:07Z</time>
      </trkpt>
      <trkpt lat="41.6491420" lon="-8.7832740">
        <ele>34.2</ele>
        <time>2021-05-17T14:02:08Z</time>
      </trkpt>
      <trkpt lat="41.6491350" lon="-8.7832700">
        <ele>34.2</ele>
        <time>2021-05-17T14:02:09Z</time>
      </trkpt>
      <trkpt lat="41.6491280" lon="-8.7832650">
        <ele>34.2</ele>
        <time>2021-05-17T14:02:10Z</time>
      </trkpt>
      <trkpt lat="41.6491210" lon="-8.7832610">
        <ele>34.2</ele>
        <time>2021-05-17T14:02:11Z</time>
      </trkpt>
      <trkpt lat="41.6491140" lon="-8.7832570">
        <ele>34.2</ele>
        <time>2021-05-17T14:02:12Z</time>
      </trkpt>
      <trkpt lat="41.6491120" lon="-8.7832490">
        <ele>34.2</ele>
        <time>2021-05-17T14:02:13Z</time>
      </trkpt>
      <trkpt lat="41.6491120" lon="-8.7832450">
        <ele>34.2</ele>
        <time>2021-05-17T14:02:14Z</time>
      </trkpt>
      <trkpt lat="41.6491090" lon="-8.7832370">
        <ele>34.2</ele>
        <time>2021-05-17T14:02:15Z</time>
      </trkpt>
      <trkpt lat="41.6491070" lon="-8.7832450">
        <ele>34.2</ele>
        <time>2021-05-17T14:02:16Z</time>
      </trkpt>
      <trkpt lat="41.6490970" lon="-8.7832440">
        <ele>34.2</ele>
        <time>2021-05-17T14:02:17Z</time>
      </trkpt>
      <trkpt lat="41.6490860" lon="-8.7832440">
        <ele>34.2</ele>
        <time>2021-05-17T14:02:18Z</time>
      </trkpt>
      <trkpt lat="41.6490710" lon="-8.7832520">
        <ele>34.2</ele>
        <time>2021-05-17T14:02:19Z</time>
      </trkpt>
      <trkpt lat="41.6490650" lon="-8.7832540">
        <ele>34.2</ele>
        <time>2021-05-17T14:02:20Z</time>
      </trkpt>
      <trkpt lat="41.6490600" lon="-8.7832570">
        <ele>34.2</ele>
        <time>2021-05-17T14:02:21Z</time>
      </trkpt>
      <trkpt lat="41.6490540" lon="-8.7832590">
        <ele>34.2</ele>
        <time>2021-05-17T14:02:22Z</time>
      </trkpt>
      <trkpt lat="41.6490490" lon="-8.7832620">
        <ele>34.2</ele>
        <time>2021-05-17T14:02:23Z</time>
      </trkpt>
      <trkpt lat="41.6490530" lon="-8.7832590">
        <ele>34.2</ele>
        <time>2021-05-17T14:02:24Z</time>
      </trkpt>
      <trkpt lat="41.6490550" lon="-8.7832540">
        <ele>34.2</ele>
        <time>2021-05-17T14:02:25Z</time>
      </trkpt>
      <trkpt lat="41.6490560" lon="-8.7832500">
        <ele>34.2</ele>
        <time>2021-05-17T14:02:26Z</time>
      </trkpt>
      <trkpt lat="41.6490580" lon="-8.7832460">
        <ele>34.2</ele>
        <time>2021-05-17T14:02:27Z</time>
      </trkpt>
      <trkpt lat="41.6490600" lon="-8.7832420">
        <ele>34.2</ele>
        <time>2021-05-17T14:02:28Z</time>
      </trkpt>
      <trkpt lat="41.6490620" lon="-8.7832370">
        <ele>34.2</ele>
        <time>2021-05-17T14:02:29Z</time>
      </trkpt>
      <trkpt lat="41.6490640" lon="-8.7832330">
        <ele>34.2</ele>
        <time>2021-05-17T14:02:30Z</time>
      </trkpt>
      <trkpt lat="41.6490650" lon="-8.7832290">
        <ele>34.2</ele>
        <time>2021-05-17T14:02:31Z</time>
      </trkpt>
      <trkpt lat="41.6490670" lon="-8.7832240">
        <ele>34.2</ele>
        <time>2021-05-17T14:02:32Z</time>
      </trkpt>
      <trkpt lat="41.6490690" lon="-8.7832200">
        <ele>34.2</ele>
        <time>2021-05-17T14:02:33Z</time>
      </trkpt>
      <trkpt lat="41.6490860" lon="-8.7831860">
        <ele>34.2</ele>
        <time>2021-05-17T14:02:34Z</time>
      </trkpt>
      <trkpt lat="41.6490890" lon="-8.7831780">
        <ele>34.2</ele>
        <time>2021-05-17T14:02:35Z</time>
      </trkpt>
      <trkpt lat="41.6490990" lon="-8.7831570">
        <ele>34.2</ele>
        <time>2021-05-17T14:02:36Z</time>
      </trkpt>
      <trkpt lat="41.6491080" lon="-8.7831490">
        <ele>34.4</ele>
        <time>2021-05-17T14:02:37Z</time>
      </trkpt>
      <trkpt lat="41.6491160" lon="-8.7831420">
        <ele>34.4</ele>
        <time>2021-05-17T14:02:38Z</time>
      </trkpt>
      <trkpt lat="41.6491230" lon="-8.7831290">
        <ele>34.4</ele>
        <time>2021-05-17T14:02:39Z</time>
      </trkpt>
      <trkpt lat="41.6491280" lon="-8.7831080">
        <ele>34.4</ele>
        <time>2021-05-17T14:02:40Z</time>
      </trkpt>
      <trkpt lat="41.6491380" lon="-8.7830940">
        <ele>34.4</ele>
        <time>2021-05-17T14:02:41Z</time>
      </trkpt>
      <trkpt lat="41.6491540" lon="-8.7830790">
        <ele>34.4</ele>
        <time>2021-05-17T14:02:42Z</time>
      </trkpt>
      <trkpt lat="41.6491680" lon="-8.7830720">
        <ele>34.4</ele>
        <time>2021-05-17T14:02:43Z</time>
      </trkpt>
      <trkpt lat="41.6491770" lon="-8.7830700">
        <ele>34.3</ele>
        <time>2021-05-17T14:02:44Z</time>
      </trkpt>
      <trkpt lat="41.6491850" lon="-8.7830690">
        <ele>34.3</ele>
        <time>2021-05-17T14:02:45Z</time>
      </trkpt>
      <trkpt lat="41.6491930" lon="-8.7830670">
        <ele>34.3</ele>
        <time>2021-05-17T14:02:46Z</time>
      </trkpt>
      <trkpt lat="41.6492160" lon="-8.7830810">
        <ele>34.3</ele>
        <time>2021-05-17T14:02:47Z</time>
      </trkpt>
      <trkpt lat="41.6492240" lon="-8.7830870">
        <ele>34.3</ele>
        <time>2021-05-17T14:02:48Z</time>
      </trkpt>
      <trkpt lat="41.6492330" lon="-8.7830930">
        <ele>34.3</ele>
        <time>2021-05-17T14:02:49Z</time>
      </trkpt>
      <trkpt lat="41.6492530" lon="-8.7830980">
        <ele>34.3</ele>
        <time>2021-05-17T14:02:50Z</time>
      </trkpt>
      <trkpt lat="41.6492670" lon="-8.7831100">
        <ele>34.2</ele>
        <time>2021-05-17T14:02:51Z</time>
      </trkpt>
      <trkpt lat="41.6492840" lon="-8.7831190">
        <ele>34.2</ele>
        <time>2021-05-17T14:02:52Z</time>
      </trkpt>
      <trkpt lat="41.6492960" lon="-8.7831220">
        <ele>34.2</ele>
        <time>2021-05-17T14:02:53Z</time>
      </trkpt>
      <trkpt lat="41.6493070" lon="-8.7831260">
        <ele>34.2</ele>
        <time>2021-05-17T14:02:54Z</time>
      </trkpt>
      <trkpt lat="41.6493170" lon="-8.7831360">
        <ele>34.2</ele>
        <time>2021-05-17T14:02:55Z</time>
      </trkpt>
      <trkpt lat="41.6493260" lon="-8.7831450">
        <ele>34.1</ele>
        <time>2021-05-17T14:02:56Z</time>
      </trkpt>
      <trkpt lat="41.6493410" lon="-8.7831410">
        <ele>34.1</ele>
        <time>2021-05-17T14:02:57Z</time>
      </trkpt>
      <trkpt lat="41.6493570" lon="-8.7831410">
        <ele>34.1</ele>
        <time>2021-05-17T14:02:58Z</time>
      </trkpt>
      <trkpt lat="41.6493690" lon="-8.7831450">
        <ele>34.1</ele>
        <time>2021-05-17T14:02:59Z</time>
      </trkpt>
      <trkpt lat="41.6493910" lon="-8.7831570">
        <ele>34.1</ele>
        <time>2021-05-17T14:03:00Z</time>
      </trkpt>
      <trkpt lat="41.6493980" lon="-8.7831630">
        <ele>34.0</ele>
        <time>2021-05-17T14:03:01Z</time>
      </trkpt>
      <trkpt lat="41.6494050" lon="-8.7831680">
        <ele>34.0</ele>
        <time>2021-05-17T14:03:02Z</time>
      </trkpt>
      <trkpt lat="41.6494160" lon="-8.7831770">
        <ele>34.0</ele>
        <time>2021-05-17T14:03:03Z</time>
      </trkpt>
      <trkpt lat="41.6494270" lon="-8.7831820">
        <ele>34.0</ele>
        <time>2021-05-17T14:03:04Z</time>
      </trkpt>
      <trkpt lat="41.6494340" lon="-8.7831890">
        <ele>34.0</ele>
        <time>2021-05-17T14:03:05Z</time>
      </trkpt>
      <trkpt lat="41.6494490" lon="-8.7832000">
        <ele>34.0</ele>
        <time>2021-05-17T14:03:06Z</time>
      </trkpt>
      <trkpt lat="41.6494590" lon="-8.7832150">
        <ele>34.0</ele>
        <time>2021-05-17T14:03:07Z</time>
      </trkpt>
      <trkpt lat="41.6494670" lon="-8.7832250">
        <ele>33.9</ele>
        <time>2021-05-17T14:03:08Z</time>
      </trkpt>
      <trkpt lat="41.6494800" lon="-8.7832360">
        <ele>33.9</ele>
        <time>2021-05-17T14:03:09Z</time>
      </trkpt>
      <trkpt lat="41.6494870" lon="-8.7832400">
        <ele>33.9</ele>
        <time>2021-05-17T14:03:10Z</time>
      </trkpt>
      <trkpt lat="41.6494930" lon="-8.7832490">
        <ele>33.9</ele>
        <time>2021-05-17T14:03:11Z</time>
      </trkpt>
      <trkpt lat="41.6494970" lon="-8.7832610">
        <ele>33.9</ele>
        <time>2021-05-17T14:03:12Z</time>
      </trkpt>
      <trkpt lat="41.6495160" lon="-8.7832670">
        <ele>33.9</ele>
        <time>2021-05-17T14:03:13Z</time>
      </trkpt>
      <trkpt lat="41.6495260" lon="-8.7832760">
        <ele>33.9</ele>
        <time>2021-05-17T14:03:14Z</time>
      </trkpt>
      <trkpt lat="41.6495480" lon="-8.7832800">
        <ele>33.9</ele>
        <time>2021-05-17T14:03:15Z</time>
      </trkpt>
      <trkpt lat="41.6495650" lon="-8.7832810">
        <ele>33.8</ele>
        <time>2021-05-17T14:03:16Z</time>
      </trkpt>
      <trkpt lat="41.6495710" lon="-8.7832820">
        <ele>33.8</ele>
        <time>2021-05-17T14:03:17Z</time>
      </trkpt>
      <trkpt lat="41.6495830" lon="-8.7832880">
        <ele>33.8</ele>
        <time>2021-05-17T14:03:18Z</time>
      </trkpt>
      <trkpt lat="41.6496010" lon="-8.7833050">
        <ele>33.8</ele>
        <time>2021-05-17T14:03:19Z</time>
      </trkpt>
      <trkpt lat="41.6496080" lon="-8.7833120">
        <ele>33.8</ele>
        <time>2021-05-17T14:03:20Z</time>
      </trkpt>
      <trkpt lat="41.6496160" lon="-8.7833190">
        <ele>33.8</ele>
        <time>2021-05-17T14:03:21Z</time>
      </trkpt>
      <trkpt lat="41.6496260" lon="-8.7833220">
        <ele>33.8</ele>
        <time>2021-05-17T14:03:22Z</time>
      </trkpt>
      <trkpt lat="41.6496340" lon="-8.7833300">
        <ele>33.8</ele>
        <time>2021-05-17T14:03:23Z</time>
      </trkpt>
      <trkpt lat="41.6496460" lon="-8.7833370">
        <ele>33.8</ele>
        <time>2021-05-17T14:03:24Z</time>
      </trkpt>
      <trkpt lat="41.6496530" lon="-8.7833560">
        <ele>33.8</ele>
        <time>2021-05-17T14:03:25Z</time>
      </trkpt>
      <trkpt lat="41.6496690" lon="-8.7833700">
        <ele>33.7</ele>
        <time>2021-05-17T14:03:26Z</time>
      </trkpt>
      <trkpt lat="41.6496880" lon="-8.7833820">
        <ele>33.7</ele>
        <time>2021-05-17T14:03:27Z</time>
      </trkpt>
      <trkpt lat="41.6496950" lon="-8.7833900">
        <ele>33.7</ele>
        <time>2021-05-17T14:03:28Z</time>
      </trkpt>
      <trkpt lat="41.6497020" lon="-8.7833980">
        <ele>33.7</ele>
        <time>2021-05-17T14:03:29Z</time>
      </trkpt>
      <trkpt lat="41.6497090" lon="-8.7834110">
        <ele>33.7</ele>
        <time>2021-05-17T14:03:30Z</time>
      </trkpt>
      <trkpt lat="41.6497090" lon="-8.7834160">
        <ele>33.7</ele>
        <time>2021-05-17T14:03:31Z</time>
      </trkpt>
      <trkpt lat="41.6497200" lon="-8.7834300">
        <ele>33.7</ele>
        <time>2021-05-17T14:03:32Z</time>
      </trkpt>
      <trkpt lat="41.6497380" lon="-8.7834340">
        <ele>33.7</ele>
        <time>2021-05-17T14:03:33Z</time>
      </trkpt>
      <trkpt lat="41.6497540" lon="-8.7834400">
        <ele>33.7</ele>
        <time>2021-05-17T14:03:34Z</time>
      </trkpt>
      <trkpt lat="41.6497650" lon="-8.7834400">
        <ele>33.7</ele>
        <time>2021-05-17T14:03:35Z</time>
      </trkpt>
      <trkpt lat="41.6497740" lon="-8.7834480">
        <ele>33.7</ele>
        <time>2021-05-17T14:03:36Z</time>
      </trkpt>
      <trkpt lat="41.6497880" lon="-8.7834540">
        <ele>33.6</ele>
        <time>2021-05-17T14:03:37Z</time>
      </trkpt>
      <trkpt lat="41.6497980" lon="-8.7834570">
        <ele>33.6</ele>
        <time>2021-05-17T14:03:38Z</time>
      </trkpt>
      <trkpt lat="41.6498060" lon="-8.7834610">
        <ele>33.6</ele>
        <time>2021-05-17T14:03:39Z</time>
      </trkpt>
      <trkpt lat="41.6498140" lon="-8.7834700">
        <ele>33.6</ele>
        <time>2021-05-17T14:03:40Z</time>
      </trkpt>
      <trkpt lat="41.6498460" lon="-8.7834780">
        <ele>33.6</ele>
        <time>2021-05-17T14:03:41Z</time>
      </trkpt>
      <trkpt lat="41.6498530" lon="-8.7834830">
        <ele>33.6</ele>
        <time>2021-05-17T14:03:42Z</time>
      </trkpt>
      <trkpt lat="41.6498660" lon="-8.7834900">
        <ele>33.6</ele>
        <time>2021-05-17T14:03:43Z</time>
      </trkpt>
      <trkpt lat="41.6498700" lon="-8.7834960">
        <ele>33.5</ele>
        <time>2021-05-17T14:03:44Z</time>
      </trkpt>
      <trkpt lat="41.6498760" lon="-8.7834980">
        <ele>33.5</ele>
        <time>2021-05-17T14:03:45Z</time>
      </trkpt>
      <trkpt lat="41.6498840" lon="-8.7835020">
        <ele>33.5</ele>
        <time>2021-05-17T14:03:46Z</time>
      </trkpt>
      <trkpt lat="41.6498970" lon="-8.7835110">
        <ele>33.5</ele>
        <time>2021-05-17T14:03:47Z</time>
      </trkpt>
      <trkpt lat="41.6499110" lon="-8.7835120">
        <ele>33.5</ele>
        <time>2021-05-17T14:03:48Z</time>
      </trkpt>
      <trkpt lat="41.6499280" lon="-8.7835200">
        <ele>33.4</ele>
        <time>2021-05-17T14:03:49Z</time>
      </trkpt>
      <trkpt lat="41.6499400" lon="-8.7835290">
        <ele>33.4</ele>
        <time>2021-05-17T14:03:50Z</time>
      </trkpt>
      <trkpt lat="41.6499510" lon="-8.7835360">
        <ele>33.4</ele>
        <time>2021-05-17T14:03:51Z</time>
      </trkpt>
      <trkpt lat="41.6499610" lon="-8.7835350">
        <ele>33.3</ele>
        <time>2021-05-17T14:03:52Z</time>
      </trkpt>
      <trkpt lat="41.6499700" lon="-8.7835400">
        <ele>33.3</ele>
        <time>2021-05-17T14:03:53Z</time>
      </trkpt>
      <trkpt lat="41.6499790" lon="-8.7835390">
        <ele>33.3</ele>
        <time>2021-05-17T14:03:54Z</time>
      </trkpt>
      <trkpt lat="41.6499890" lon="-8.7835420">
        <ele>33.3</ele>
        <time>2021-05-17T14:03:55Z</time>
      </trkpt>
      <trkpt lat="41.6500030" lon="-8.7835440">
        <ele>33.3</ele>
        <time>2021-05-17T14:03:56Z</time>
      </trkpt>
      <trkpt lat="41.6500370" lon="-8.7835420">
        <ele>33.2</ele>
        <time>2021-05-17T14:03:57Z</time>
      </trkpt>
      <trkpt lat="41.6500480" lon="-8.7835430">
        <ele>33.2</ele>
        <time>2021-05-17T14:03:58Z</time>
      </trkpt>
      <trkpt lat="41.6500660" lon="-8.7835460">
        <ele>33.1</ele>
        <time>2021-05-17T14:03:59Z</time>
      </trkpt>
      <trkpt lat="41.6500780" lon="-8.7835460">
        <ele>33.1</ele>
        <time>2021-05-17T14:04:00Z</time>
      </trkpt>
      <trkpt lat="41.6500950" lon="-8.7835530">
        <ele>33.0</ele>
        <time>2021-05-17T14:04:01Z</time>
      </trkpt>
      <trkpt lat="41.6501060" lon="-8.7835550">
        <ele>33.0</ele>
        <time>2021-05-17T14:04:02Z</time>
      </trkpt>
      <trkpt lat="41.6501280" lon="-8.7835660">
        <ele>33.0</ele>
        <time>2021-05-17T14:04:03Z</time>
      </trkpt>
      <trkpt lat="41.6501360" lon="-8.7835650">
        <ele>32.9</ele>
        <time>2021-05-17T14:04:04Z</time>
      </trkpt>
      <trkpt lat="41.6501440" lon="-8.7835650">
        <ele>32.9</ele>
        <time>2021-05-17T14:04:05Z</time>
      </trkpt>
      <trkpt lat="41.6501650" lon="-8.7835700">
        <ele>32.9</ele>
        <time>2021-05-17T14:04:06Z</time>
      </trkpt>
      <trkpt lat="41.6501740" lon="-8.7835710">
        <ele>32.8</ele>
        <time>2021-05-17T14:04:07Z</time>
      </trkpt>
      <trkpt lat="41.6501950" lon="-8.7835750">
        <ele>32.8</ele>
        <time>2021-05-17T14:04:08Z</time>
      </trkpt>
      <trkpt lat="41.6502040" lon="-8.7835740">
        <ele>32.8</ele>
        <time>2021-05-17T14:04:09Z</time>
      </trkpt>
      <trkpt lat="41.6502120" lon="-8.7835740">
        <ele>32.7</ele>
        <time>2021-05-17T14:04:10Z</time>
      </trkpt>
      <trkpt lat="41.6502210" lon="-8.7835730">
        <ele>32.7</ele>
        <time>2021-05-17T14:04:11Z</time>
      </trkpt>
      <trkpt lat="41.6502250" lon="-8.7835690">
        <ele>32.7</ele>
        <time>2021-05-17T14:04:12Z</time>
      </trkpt>
      <trkpt lat="41.6502360" lon="-8.7835730">
        <ele>32.7</ele>
        <time>2021-05-17T14:04:13Z</time>
      </trkpt>
      <trkpt lat="41.6502460" lon="-8.7835710">
        <ele>32.6</ele>
        <time>2021-05-17T14:04:14Z</time>
      </trkpt>
      <trkpt lat="41.6502630" lon="-8.7835830">
        <ele>32.6</ele>
        <time>2021-05-17T14:04:15Z</time>
      </trkpt>
      <trkpt lat="41.6502700" lon="-8.7835900">
        <ele>32.6</ele>
        <time>2021-05-17T14:04:16Z</time>
      </trkpt>
      <trkpt lat="41.6502780" lon="-8.7835980">
        <ele>32.5</ele>
        <time>2021-05-17T14:04:17Z</time>
      </trkpt>
      <trkpt lat="41.6502970" lon="-8.7836070">
        <ele>32.5</ele>
        <time>2021-05-17T14:04:18Z</time>
      </trkpt>
      <trkpt lat="41.6503060" lon="-8.7836010">
        <ele>32.4</ele>
        <time>2021-05-17T14:04:19Z</time>
      </trkpt>
      <trkpt lat="41.6503150" lon="-8.7835960">
        <ele>32.4</ele>
        <time>2021-05-17T14:04:20Z</time>
      </trkpt>
      <trkpt lat="41.6503340" lon="-8.7835990">
        <ele>32.3</ele>
        <time>2021-05-17T14:04:21Z</time>
      </trkpt>
      <trkpt lat="41.6503430" lon="-8.7835970">
        <ele>32.3</ele>
        <time>2021-05-17T14:04:22Z</time>
      </trkpt>
      <trkpt lat="41.6503520" lon="-8.7835950">
        <ele>32.3</ele>
        <time>2021-05-17T14:04:23Z</time>
      </trkpt>
      <trkpt lat="41.6503560" lon="-8.7835930">
        <ele>32.3</ele>
        <time>2021-05-17T14:04:24Z</time>
      </trkpt>
      <trkpt lat="41.6503600" lon="-8.7835980">
        <ele>32.2</ele>
        <time>2021-05-17T14:04:25Z</time>
      </trkpt>
      <trkpt lat="41.6503670" lon="-8.7836070">
        <ele>32.2</ele>
        <time>2021-05-17T14:04:26Z</time>
      </trkpt>
      <trkpt lat="41.6503840" lon="-8.7836100">
        <ele>32.1</ele>
        <time>2021-05-17T14:04:27Z</time>
      </trkpt>
      <trkpt lat="41.6504000" lon="-8.7836180">
        <ele>32.1</ele>
        <time>2021-05-17T14:04:28Z</time>
      </trkpt>
      <trkpt lat="41.6504100" lon="-8.7836220">
        <ele>32.1</ele>
        <time>2021-05-17T14:04:29Z</time>
      </trkpt>
      <trkpt lat="41.6504200" lon="-8.7836260">
        <ele>32.0</ele>
        <time>2021-05-17T14:04:30Z</time>
      </trkpt>
      <trkpt lat="41.6504310" lon="-8.7836320">
        <ele>32.0</ele>
        <time>2021-05-17T14:04:31Z</time>
      </trkpt>
      <trkpt lat="41.6504480" lon="-8.7836370">
        <ele>31.9</ele>
        <time>2021-05-17T14:04:32Z</time>
      </trkpt>
      <trkpt lat="41.6504580" lon="-8.7836460">
        <ele>31.9</ele>
        <time>2021-05-17T14:04:33Z</time>
      </trkpt>
      <trkpt lat="41.6504710" lon="-8.7836490">
        <ele>31.8</ele>
        <time>2021-05-17T14:04:34Z</time>
      </trkpt>
      <trkpt lat="41.6504760" lon="-8.7836560">
        <ele>31.8</ele>
        <time>2021-05-17T14:04:35Z</time>
      </trkpt>
      <trkpt lat="41.6505000" lon="-8.7836710">
        <ele>31.7</ele>
        <time>2021-05-17T14:04:36Z</time>
      </trkpt>
      <trkpt lat="41.6505070" lon="-8.7836730">
        <ele>31.7</ele>
        <time>2021-05-17T14:04:37Z</time>
      </trkpt>
      <trkpt lat="41.6505150" lon="-8.7836760">
        <ele>31.7</ele>
        <time>2021-05-17T14:04:38Z</time>
      </trkpt>
      <trkpt lat="41.6505300" lon="-8.7836770">
        <ele>31.6</ele>
        <time>2021-05-17T14:04:39Z</time>
      </trkpt>
      <trkpt lat="41.6505460" lon="-8.7836800">
        <ele>31.6</ele>
        <time>2021-05-17T14:04:40Z</time>
      </trkpt>
      <trkpt lat="41.6505600" lon="-8.7836900">
        <ele>31.5</ele>
        <time>2021-05-17T14:04:41Z</time>
      </trkpt>
      <trkpt lat="41.6505730" lon="-8.7836970">
        <ele>31.4</ele>
        <time>2021-05-17T14:04:42Z</time>
      </trkpt>
      <trkpt lat="41.6505930" lon="-8.7837040">
        <ele>31.4</ele>
        <time>2021-05-17T14:04:43Z</time>
      </trkpt>
      <trkpt lat="41.6506080" lon="-8.7837090">
        <ele>31.3</ele>
        <time>2021-05-17T14:04:44Z</time>
      </trkpt>
      <trkpt lat="41.6506160" lon="-8.7837100">
        <ele>31.3</ele>
        <time>2021-05-17T14:04:45Z</time>
      </trkpt>
      <trkpt lat="41.6506260" lon="-8.7837110">
        <ele>31.3</ele>
        <time>2021-05-17T14:04:46Z</time>
      </trkpt>
      <trkpt lat="41.6506430" lon="-8.7837160">
        <ele>31.2</ele>
        <time>2021-05-17T14:04:47Z</time>
      </trkpt>
      <trkpt lat="41.6506590" lon="-8.7837270">
        <ele>31.1</ele>
        <time>2021-05-17T14:04:48Z</time>
      </trkpt>
      <trkpt lat="41.6506680" lon="-8.7837300">
        <ele>31.1</ele>
        <time>2021-05-17T14:04:49Z</time>
      </trkpt>
      <trkpt lat="41.6506770" lon="-8.7837330">
        <ele>31.1</ele>
        <time>2021-05-17T14:04:50Z</time>
      </trkpt>
      <trkpt lat="41.6506970" lon="-8.7837480">
        <ele>31.0</ele>
        <time>2021-05-17T14:04:51Z</time>
      </trkpt>
      <trkpt lat="41.6507030" lon="-8.7837520">
        <ele>31.0</ele>
        <time>2021-05-17T14:04:52Z</time>
      </trkpt>
      <trkpt lat="41.6507100" lon="-8.7837570">
        <ele>30.9</ele>
        <time>2021-05-17T14:04:53Z</time>
      </trkpt>
      <trkpt lat="41.6507150" lon="-8.7837690">
        <ele>30.9</ele>
        <time>2021-05-17T14:04:54Z</time>
      </trkpt>
      <trkpt lat="41.6507230" lon="-8.7837730">
        <ele>30.9</ele>
        <time>2021-05-17T14:04:55Z</time>
      </trkpt>
      <trkpt lat="41.6507370" lon="-8.7837830">
        <ele>30.8</ele>
        <time>2021-05-17T14:04:56Z</time>
      </trkpt>
      <trkpt lat="41.6507500" lon="-8.7837940">
        <ele>30.8</ele>
        <time>2021-05-17T14:04:57Z</time>
      </trkpt>
      <trkpt lat="41.6507650" lon="-8.7837940">
        <ele>30.7</ele>
        <time>2021-05-17T14:04:58Z</time>
      </trkpt>
      <trkpt lat="41.6507830" lon="-8.7838040">
        <ele>30.7</ele>
        <time>2021-05-17T14:04:59Z</time>
      </trkpt>
      <trkpt lat="41.6507910" lon="-8.7838100">
        <ele>30.6</ele>
        <time>2021-05-17T14:05:00Z</time>
      </trkpt>
      <trkpt lat="41.6507990" lon="-8.7838160">
        <ele>30.6</ele>
        <time>2021-05-17T14:05:01Z</time>
      </trkpt>
      <trkpt lat="41.6508200" lon="-8.7838310">
        <ele>30.5</ele>
        <time>2021-05-17T14:05:02Z</time>
      </trkpt>
      <trkpt lat="41.6508300" lon="-8.7838350">
        <ele>30.5</ele>
        <time>2021-05-17T14:05:03Z</time>
      </trkpt>
      <trkpt lat="41.6508400" lon="-8.7838400">
        <ele>30.5</ele>
        <time>2021-05-17T14:05:04Z</time>
      </trkpt>
      <trkpt lat="41.6508470" lon="-8.7838460">
        <ele>30.4</ele>
        <time>2021-05-17T14:05:05Z</time>
      </trkpt>
      <trkpt lat="41.6508570" lon="-8.7838490">
        <ele>30.4</ele>
        <time>2021-05-17T14:05:06Z</time>
      </trkpt>
      <trkpt lat="41.6508720" lon="-8.7838540">
        <ele>30.4</ele>
        <time>2021-05-17T14:05:07Z</time>
      </trkpt>
      <trkpt lat="41.6508880" lon="-8.7838710">
        <ele>30.3</ele>
        <time>2021-05-17T14:05:08Z</time>
      </trkpt>
      <trkpt lat="41.6508960" lon="-8.7838780">
        <ele>30.3</ele>
        <time>2021-05-17T14:05:09Z</time>
      </trkpt>
      <trkpt lat="41.6509030" lon="-8.7838860">
        <ele>30.3</ele>
        <time>2021-05-17T14:05:10Z</time>
      </trkpt>
      <trkpt lat="41.6509140" lon="-8.7838910">
        <ele>30.2</ele>
        <time>2021-05-17T14:05:11Z</time>
      </trkpt>
      <trkpt lat="41.6509190" lon="-8.7838960">
        <ele>30.2</ele>
        <time>2021-05-17T14:05:12Z</time>
      </trkpt>
      <trkpt lat="41.6509280" lon="-8.7839060">
        <ele>30.2</ele>
        <time>2021-05-17T14:05:13Z</time>
      </trkpt>
      <trkpt lat="41.6509390" lon="-8.7839100">
        <ele>30.1</ele>
        <time>2021-05-17T14:05:14Z</time>
      </trkpt>
      <trkpt lat="41.6509470" lon="-8.7839220">
        <ele>30.1</ele>
        <time>2021-05-17T14:05:15Z</time>
      </trkpt>
      <trkpt lat="41.6509580" lon="-8.7839290">
        <ele>30.1</ele>
        <time>2021-05-17T14:05:16Z</time>
      </trkpt>
      <trkpt lat="41.6509700" lon="-8.7839370">
        <ele>30.1</ele>
        <time>2021-05-17T14:05:17Z</time>
      </trkpt>
      <trkpt lat="41.6509860" lon="-8.7839470">
        <ele>30.0</ele>
        <time>2021-05-17T14:05:18Z</time>
      </trkpt>
      <trkpt lat="41.6510030" lon="-8.7839640">
        <ele>30.0</ele>
        <time>2021-05-17T14:05:19Z</time>
      </trkpt>
      <trkpt lat="41.6510100" lon="-8.7839710">
        <ele>29.9</ele>
        <time>2021-05-17T14:05:20Z</time>
      </trkpt>
      <trkpt lat="41.6510180" lon="-8.7839780">
        <ele>29.9</ele>
        <time>2021-05-17T14:05:21Z</time>
      </trkpt>
      <trkpt lat="41.6510400" lon="-8.7839860">
        <ele>29.8</ele>
        <time>2021-05-17T14:05:22Z</time>
      </trkpt>
      <trkpt lat="41.6510480" lon="-8.7839920">
        <ele>29.8</ele>
        <time>2021-05-17T14:05:23Z</time>
      </trkpt>
      <trkpt lat="41.6510550" lon="-8.7839970">
        <ele>29.8</ele>
        <time>2021-05-17T14:05:24Z</time>
      </trkpt>
      <trkpt lat="41.6510690" lon="-8.7840060">
        <ele>29.8</ele>
        <time>2021-05-17T14:05:25Z</time>
      </trkpt>
      <trkpt lat="41.6510820" lon="-8.7840160">
        <ele>29.7</ele>
        <time>2021-05-17T14:05:26Z</time>
      </trkpt>
      <trkpt lat="41.6510890" lon="-8.7840240">
        <ele>29.7</ele>
        <time>2021-05-17T14:05:27Z</time>
      </trkpt>
      <trkpt lat="41.6510990" lon="-8.7840270">
        <ele>29.7</ele>
        <time>2021-05-17T14:05:28Z</time>
      </trkpt>
      <trkpt lat="41.6511090" lon="-8.7840360">
        <ele>29.6</ele>
        <time>2021-05-17T14:05:29Z</time>
      </trkpt>
      <trkpt lat="41.6511210" lon="-8.7840450">
        <ele>29.6</ele>
        <time>2021-05-17T14:05:30Z</time>
      </trkpt>
      <trkpt lat="41.6511290" lon="-8.7840490">
        <ele>29.6</ele>
        <time>2021-05-17T14:05:31Z</time>
      </trkpt>
      <trkpt lat="41.6511360" lon="-8.7840600">
        <ele>29.5</ele>
        <time>2021-05-17T14:05:32Z</time>
      </trkpt>
      <trkpt lat="41.6511350" lon="-8.7840760">
        <ele>29.5</ele>
        <time>2021-05-17T14:05:33Z</time>
      </trkpt>
      <trkpt lat="41.6511360" lon="-8.7840940">
        <ele>29.5</ele>
        <time>2021-05-17T14:05:34Z</time>
      </trkpt>
      <trkpt lat="41.6511450" lon="-8.7841060">
        <ele>29.4</ele>
        <time>2021-05-17T14:05:35Z</time>
      </trkpt>
      <trkpt lat="41.6511640" lon="-8.7841200">
        <ele>29.4</ele>
        <time>2021-05-17T14:05:36Z</time>
      </trkpt>
      <trkpt lat="41.6511720" lon="-8.7841280">
        <ele>29.4</ele>
        <time>2021-05-17T14:05:37Z</time>
      </trkpt>
      <trkpt lat="41.6511800" lon="-8.7841360">
        <ele>29.3</ele>
        <time>2021-05-17T14:05:38Z</time>
      </trkpt>
      <trkpt lat="41.6511960" lon="-8.7841490">
        <ele>29.3</ele>
        <time>2021-05-17T14:05:39Z</time>
      </trkpt>
      <trkpt lat="41.6512080" lon="-8.7841560">
        <ele>29.2</ele>
        <time>2021-05-17T14:05:40Z</time>
      </trkpt>
      <trkpt lat="41.6512130" lon="-8.7841660">
        <ele>29.2</ele>
        <time>2021-05-17T14:05:41Z</time>
      </trkpt>
      <trkpt lat="41.6512180" lon="-8.7841780">
        <ele>29.2</ele>
        <time>2021-05-17T14:05:42Z</time>
      </trkpt>
      <trkpt lat="41.6512270" lon="-8.7841900">
        <ele>29.2</ele>
        <time>2021-05-17T14:05:43Z</time>
      </trkpt>
      <trkpt lat="41.6512330" lon="-8.7842100">
        <ele>29.1</ele>
        <time>2021-05-17T14:05:44Z</time>
      </trkpt>
      <trkpt lat="41.6512480" lon="-8.7842280">
        <ele>29.1</ele>
        <time>2021-05-17T14:05:45Z</time>
      </trkpt>
      <trkpt lat="41.6512540" lon="-8.7842370">
        <ele>29.1</ele>
        <time>2021-05-17T14:05:46Z</time>
      </trkpt>
      <trkpt lat="41.6512660" lon="-8.7842380">
        <ele>29.0</ele>
        <time>2021-05-17T14:05:47Z</time>
      </trkpt>
      <trkpt lat="41.6512750" lon="-8.7842520">
        <ele>29.0</ele>
        <time>2021-05-17T14:05:48Z</time>
      </trkpt>
      <trkpt lat="41.6512800" lon="-8.7842590">
        <ele>29.0</ele>
        <time>2021-05-17T14:05:49Z</time>
      </trkpt>
      <trkpt lat="41.6512930" lon="-8.7842720">
        <ele>28.9</ele>
        <time>2021-05-17T14:05:50Z</time>
      </trkpt>
      <trkpt lat="41.6513060" lon="-8.7842730">
        <ele>28.9</ele>
        <time>2021-05-17T14:05:51Z</time>
      </trkpt>
      <trkpt lat="41.6513130" lon="-8.7842870">
        <ele>28.9</ele>
        <time>2021-05-17T14:05:52Z</time>
      </trkpt>
      <trkpt lat="41.6513180" lon="-8.7843010">
        <ele>28.9</ele>
        <time>2021-05-17T14:05:53Z</time>
      </trkpt>
      <trkpt lat="41.6513270" lon="-8.7843070">
        <ele>28.8</ele>
        <time>2021-05-17T14:05:54Z</time>
      </trkpt>
      <trkpt lat="41.6513480" lon="-8.7843180">
        <ele>28.8</ele>
        <time>2021-05-17T14:05:55Z</time>
      </trkpt>
      <trkpt lat="41.6513570" lon="-8.7843220">
        <ele>28.8</ele>
        <time>2021-05-17T14:05:56Z</time>
      </trkpt>
      <trkpt lat="41.6513560" lon="-8.7843390">
        <ele>28.7</ele>
        <time>2021-05-17T14:05:57Z</time>
      </trkpt>
      <trkpt lat="41.6513620" lon="-8.7843670">
        <ele>28.7</ele>
        <time>2021-05-17T14:05:58Z</time>
      </trkpt>
      <trkpt lat="41.6513670" lon="-8.7843860">
        <ele>28.6</ele>
        <time>2021-05-17T14:05:59Z</time>
      </trkpt>
      <trkpt lat="41.6513700" lon="-8.7844000">
        <ele>28.6</ele>
        <time>2021-05-17T14:06:00Z</time>
      </trkpt>
      <trkpt lat="41.6513720" lon="-8.7844150">
        <ele>28.6</ele>
        <time>2021-05-17T14:06:01Z</time>
      </trkpt>
      <trkpt lat="41.6513810" lon="-8.7844300">
        <ele>28.6</ele>
        <time>2021-05-17T14:06:02Z</time>
      </trkpt>
      <trkpt lat="41.6513850" lon="-8.7844470">
        <ele>28.5</ele>
        <time>2021-05-17T14:06:03Z</time>
      </trkpt>
      <trkpt lat="41.6513890" lon="-8.7844690">
        <ele>28.5</ele>
        <time>2021-05-17T14:06:04Z</time>
      </trkpt>
      <trkpt lat="41.6513910" lon="-8.7844850">
        <ele>28.4</ele>
        <time>2021-05-17T14:06:05Z</time>
      </trkpt>
      <trkpt lat="41.6513970" lon="-8.7845070">
        <ele>28.4</ele>
        <time>2021-05-17T14:06:06Z</time>
      </trkpt>
      <trkpt lat="41.6514010" lon="-8.7845190">
        <ele>28.4</ele>
        <time>2021-05-17T14:06:07Z</time>
      </trkpt>
      <trkpt lat="41.6514050" lon="-8.7845310">
        <ele>28.4</ele>
        <time>2021-05-17T14:06:08Z</time>
      </trkpt>
      <trkpt lat="41.6514050" lon="-8.7845430">
        <ele>28.3</ele>
        <time>2021-05-17T14:06:09Z</time>
      </trkpt>
      <trkpt lat="41.6514110" lon="-8.7845490">
        <ele>28.3</ele>
        <time>2021-05-17T14:06:10Z</time>
      </trkpt>
      <trkpt lat="41.6514120" lon="-8.7845710">
        <ele>28.2</ele>
        <time>2021-05-17T14:06:11Z</time>
      </trkpt>
      <trkpt lat="41.6514150" lon="-8.7845840">
        <ele>28.2</ele>
        <time>2021-05-17T14:06:12Z</time>
      </trkpt>
      <trkpt lat="41.6514190" lon="-8.7845850">
        <ele>28.2</ele>
        <time>2021-05-17T14:06:13Z</time>
      </trkpt>
      <trkpt lat="41.6514280" lon="-8.7845710">
        <ele>28.2</ele>
        <time>2021-05-17T14:06:14Z</time>
      </trkpt>
      <trkpt lat="41.6514330" lon="-8.7845680">
        <ele>28.2</ele>
        <time>2021-05-17T14:06:15Z</time>
      </trkpt>
      <trkpt lat="41.6514370" lon="-8.7845730">
        <ele>28.2</ele>
        <time>2021-05-17T14:06:16Z</time>
      </trkpt>
      <trkpt lat="41.6514380" lon="-8.7845750">
        <ele>28.2</ele>
        <time>2021-05-17T14:06:17Z</time>
      </trkpt>
      <trkpt lat="41.6514400" lon="-8.7845830">
        <ele>28.2</ele>
        <time>2021-05-17T14:06:18Z</time>
      </trkpt>
      <trkpt lat="41.6514400" lon="-8.7846100">
        <ele>28.2</ele>
        <time>2021-05-17T14:06:19Z</time>
      </trkpt>
      <trkpt lat="41.6514290" lon="-8.7846190">
        <ele>28.1</ele>
        <time>2021-05-17T14:06:20Z</time>
      </trkpt>
      <trkpt lat="41.6514300" lon="-8.7846390">
        <ele>28.1</ele>
        <time>2021-05-17T14:06:21Z</time>
      </trkpt>
      <trkpt lat="41.6514340" lon="-8.7846580">
        <ele>28.1</ele>
        <time>2021-05-17T14:06:22Z</time>
      </trkpt>
      <trkpt lat="41.6514310" lon="-8.7846850">
        <ele>28.1</ele>
        <time>2021-05-17T14:06:23Z</time>
      </trkpt>
      <trkpt lat="41.6514310" lon="-8.7846990">
        <ele>28.1</ele>
        <time>2021-05-17T14:06:24Z</time>
      </trkpt>
      <trkpt lat="41.6514300" lon="-8.7847140">
        <ele>28.0</ele>
        <time>2021-05-17T14:06:25Z</time>
      </trkpt>
      <trkpt lat="41.6514220" lon="-8.7847320">
        <ele>28.0</ele>
        <time>2021-05-17T14:06:26Z</time>
      </trkpt>
      <trkpt lat="41.6514120" lon="-8.7847490">
        <ele>28.0</ele>
        <time>2021-05-17T14:06:27Z</time>
      </trkpt>
      <trkpt lat="41.6514050" lon="-8.7847590">
        <ele>28.0</ele>
        <time>2021-05-17T14:06:28Z</time>
      </trkpt>
      <trkpt lat="41.6514020" lon="-8.7847690">
        <ele>28.0</ele>
        <time>2021-05-17T14:06:29Z</time>
      </trkpt>
      <trkpt lat="41.6514030" lon="-8.7847890">
        <ele>28.0</ele>
        <time>2021-05-17T14:06:30Z</time>
      </trkpt>
      <trkpt lat="41.6513990" lon="-8.7848170">
        <ele>28.0</ele>
        <time>2021-05-17T14:06:31Z</time>
      </trkpt>
      <trkpt lat="41.6513990" lon="-8.7848310">
        <ele>28.0</ele>
        <time>2021-05-17T14:06:32Z</time>
      </trkpt>
      <trkpt lat="41.6513990" lon="-8.7848450">
        <ele>28.0</ele>
        <time>2021-05-17T14:06:33Z</time>
      </trkpt>
      <trkpt lat="41.6513850" lon="-8.7848700">
        <ele>27.9</ele>
        <time>2021-05-17T14:06:34Z</time>
      </trkpt>
      <trkpt lat="41.6513790" lon="-8.7848800">
        <ele>27.9</ele>
        <time>2021-05-17T14:06:35Z</time>
      </trkpt>
      <trkpt lat="41.6513720" lon="-8.7848900">
        <ele>27.9</ele>
        <time>2021-05-17T14:06:36Z</time>
      </trkpt>
      <trkpt lat="41.6513590" lon="-8.7849200">
        <ele>27.9</ele>
        <time>2021-05-17T14:06:37Z</time>
      </trkpt>
      <trkpt lat="41.6513550" lon="-8.7849330">
        <ele>27.9</ele>
        <time>2021-05-17T14:06:38Z</time>
      </trkpt>
      <trkpt lat="41.6513510" lon="-8.7849450">
        <ele>28.0</ele>
        <time>2021-05-17T14:06:39Z</time>
      </trkpt>
      <trkpt lat="41.6513400" lon="-8.7849630">
        <ele>28.0</ele>
        <time>2021-05-17T14:06:40Z</time>
      </trkpt>
      <trkpt lat="41.6513310" lon="-8.7849840">
        <ele>28.0</ele>
        <time>2021-05-17T14:06:41Z</time>
      </trkpt>
      <trkpt lat="41.6513200" lon="-8.7850020">
        <ele>28.0</ele>
        <time>2021-05-17T14:06:42Z</time>
      </trkpt>
      <trkpt lat="41.6513110" lon="-8.7850190">
        <ele>28.0</ele>
        <time>2021-05-17T14:06:43Z</time>
      </trkpt>
      <trkpt lat="41.6512980" lon="-8.7850350">
        <ele>28.0</ele>
        <time>2021-05-17T14:06:44Z</time>
      </trkpt>
      <trkpt lat="41.6512940" lon="-8.7850580">
        <ele>28.0</ele>
        <time>2021-05-17T14:06:45Z</time>
      </trkpt>
      <trkpt lat="41.6512870" lon="-8.7850740">
        <ele>28.0</ele>
        <time>2021-05-17T14:06:46Z</time>
      </trkpt>
      <trkpt lat="41.6512810" lon="-8.7850910">
        <ele>28.0</ele>
        <time>2021-05-17T14:06:47Z</time>
      </trkpt>
      <trkpt lat="41.6512780" lon="-8.7851130">
        <ele>28.1</ele>
        <time>2021-05-17T14:06:48Z</time>
      </trkpt>
      <trkpt lat="41.6512670" lon="-8.7851280">
        <ele>28.1</ele>
        <time>2021-05-17T14:06:49Z</time>
      </trkpt>
      <trkpt lat="41.6512630" lon="-8.7851490">
        <ele>28.1</ele>
        <time>2021-05-17T14:06:50Z</time>
      </trkpt>
      <trkpt lat="41.6512500" lon="-8.7851600">
        <ele>28.1</ele>
        <time>2021-05-17T14:06:51Z</time>
      </trkpt>
      <trkpt lat="41.6512370" lon="-8.7851750">
        <ele>28.1</ele>
        <time>2021-05-17T14:06:52Z</time>
      </trkpt>
      <trkpt lat="41.6512260" lon="-8.7851890">
        <ele>28.1</ele>
        <time>2021-05-17T14:06:53Z</time>
      </trkpt>
      <trkpt lat="41.6512110" lon="-8.7852080">
        <ele>28.2</ele>
        <time>2021-05-17T14:06:54Z</time>
      </trkpt>
      <trkpt lat="41.6512030" lon="-8.7852160">
        <ele>28.2</ele>
        <time>2021-05-17T14:06:55Z</time>
      </trkpt>
      <trkpt lat="41.6511960" lon="-8.7852240">
        <ele>28.2</ele>
        <time>2021-05-17T14:06:56Z</time>
      </trkpt>
      <trkpt lat="41.6511870" lon="-8.7852390">
        <ele>28.2</ele>
        <time>2021-05-17T14:06:57Z</time>
      </trkpt>
      <trkpt lat="41.6511800" lon="-8.7852550">
        <ele>28.2</ele>
        <time>2021-05-17T14:06:58Z</time>
      </trkpt>
      <trkpt lat="41.6511840" lon="-8.7852860">
        <ele>28.2</ele>
        <time>2021-05-17T14:06:59Z</time>
      </trkpt>
      <trkpt lat="41.6511890" lon="-8.7852990">
        <ele>28.2</ele>
        <time>2021-05-17T14:07:00Z</time>
      </trkpt>
      <trkpt lat="41.6511930" lon="-8.7853110">
        <ele>28.2</ele>
        <time>2021-05-17T14:07:01Z</time>
      </trkpt>
      <trkpt lat="41.6512060" lon="-8.7853290">
        <ele>28.2</ele>
        <time>2021-05-17T14:07:02Z</time>
      </trkpt>
      <trkpt lat="41.6512130" lon="-8.7853450">
        <ele>28.2</ele>
        <time>2021-05-17T14:07:03Z</time>
      </trkpt>
      <trkpt lat="41.6512190" lon="-8.7853640">
        <ele>28.2</ele>
        <time>2021-05-17T14:07:04Z</time>
      </trkpt>
      <trkpt lat="41.6512240" lon="-8.7853790">
        <ele>28.2</ele>
        <time>2021-05-17T14:07:05Z</time>
      </trkpt>
      <trkpt lat="41.6512280" lon="-8.7853820">
        <ele>28.2</ele>
        <time>2021-05-17T14:07:06Z</time>
      </trkpt>
      <trkpt lat="41.6512320" lon="-8.7853980">
        <ele>28.1</ele>
        <time>2021-05-17T14:07:07Z</time>
      </trkpt>
      <trkpt lat="41.6512450" lon="-8.7854030">
        <ele>28.1</ele>
        <time>2021-05-17T14:07:08Z</time>
      </trkpt>
      <trkpt lat="41.6512510" lon="-8.7854110">
        <ele>28.1</ele>
        <time>2021-05-17T14:07:09Z</time>
      </trkpt>
      <trkpt lat="41.6512670" lon="-8.7854290">
        <ele>28.1</ele>
        <time>2021-05-17T14:07:10Z</time>
      </trkpt>
      <trkpt lat="41.6512820" lon="-8.7854330">
        <ele>28.1</ele>
        <time>2021-05-17T14:07:11Z</time>
      </trkpt>
      <trkpt lat="41.6512940" lon="-8.7854530">
        <ele>28.1</ele>
        <time>2021-05-17T14:07:12Z</time>
      </trkpt>
      <trkpt lat="41.6513090" lon="-8.7854590">
        <ele>28.1</ele>
        <time>2021-05-17T14:07:13Z</time>
      </trkpt>
      <trkpt lat="41.6513210" lon="-8.7854720">
        <ele>28.1</ele>
        <time>2021-05-17T14:07:14Z</time>
      </trkpt>
      <trkpt lat="41.6513340" lon="-8.7854900">
        <ele>28.1</ele>
        <time>2021-05-17T14:07:15Z</time>
      </trkpt>
      <trkpt lat="41.6513500" lon="-8.7855000">
        <ele>28.0</ele>
        <time>2021-05-17T14:07:16Z</time>
      </trkpt>
      <trkpt lat="41.6513610" lon="-8.7855100">
        <ele>28.0</ele>
        <time>2021-05-17T14:07:17Z</time>
      </trkpt>
      <trkpt lat="41.6513670" lon="-8.7855180">
        <ele>28.0</ele>
        <time>2021-05-17T14:07:18Z</time>
      </trkpt>
      <trkpt lat="41.6513680" lon="-8.7855350">
        <ele>28.0</ele>
        <time>2021-05-17T14:07:19Z</time>
      </trkpt>
      <trkpt lat="41.6513800" lon="-8.7855650">
        <ele>28.0</ele>
        <time>2021-05-17T14:07:20Z</time>
      </trkpt>
      <trkpt lat="41.6513860" lon="-8.7855750">
        <ele>28.0</ele>
        <time>2021-05-17T14:07:21Z</time>
      </trkpt>
      <trkpt lat="41.6513930" lon="-8.7855850">
        <ele>27.9</ele>
        <time>2021-05-17T14:07:22Z</time>
      </trkpt>
      <trkpt lat="41.6514040" lon="-8.7856040">
        <ele>27.9</ele>
        <time>2021-05-17T14:07:23Z</time>
      </trkpt>
      <trkpt lat="41.6514100" lon="-8.7856190">
        <ele>27.9</ele>
        <time>2021-05-17T14:07:24Z</time>
      </trkpt>
      <trkpt lat="41.6514120" lon="-8.7856290">
        <ele>27.9</ele>
        <time>2021-05-17T14:07:25Z</time>
      </trkpt>
      <trkpt lat="41.6514160" lon="-8.7856400">
        <ele>27.9</ele>
        <time>2021-05-17T14:07:26Z</time>
      </trkpt>
      <trkpt lat="41.6514200" lon="-8.7856570">
        <ele>27.8</ele>
        <time>2021-05-17T14:07:27Z</time>
      </trkpt>
      <trkpt lat="41.6514350" lon="-8.7856760">
        <ele>27.8</ele>
        <time>2021-05-17T14:07:28Z</time>
      </trkpt>
      <trkpt lat="41.6514410" lon="-8.7856860">
        <ele>27.8</ele>
        <time>2021-05-17T14:07:29Z</time>
      </trkpt>
      <trkpt lat="41.6514460" lon="-8.7856960">
        <ele>27.8</ele>
        <time>2021-05-17T14:07:30Z</time>
      </trkpt>
      <trkpt lat="41.6514640" lon="-8.7857160">
        <ele>27.7</ele>
        <time>2021-05-17T14:07:31Z</time>
      </trkpt>
      <trkpt lat="41.6514700" lon="-8.7857270">
        <ele>27.7</ele>
        <time>2021-05-17T14:07:32Z</time>
      </trkpt>
      <trkpt lat="41.6514750" lon="-8.7857380">
        <ele>27.7</ele>
        <time>2021-05-17T14:07:33Z</time>
      </trkpt>
      <trkpt lat="41.6514740" lon="-8.7857490">
        <ele>27.7</ele>
        <time>2021-05-17T14:07:34Z</time>
      </trkpt>
      <trkpt lat="41.6514810" lon="-8.7857660">
        <ele>27.7</ele>
        <time>2021-05-17T14:07:35Z</time>
      </trkpt>
      <trkpt lat="41.6514850" lon="-8.7857790">
        <ele>27.7</ele>
        <time>2021-05-17T14:07:36Z</time>
      </trkpt>
      <trkpt lat="41.6514940" lon="-8.7858030">
        <ele>27.6</ele>
        <time>2021-05-17T14:07:37Z</time>
      </trkpt>
      <trkpt lat="41.6514970" lon="-8.7858140">
        <ele>27.6</ele>
        <time>2021-05-17T14:07:38Z</time>
      </trkpt>
      <trkpt lat="41.6515000" lon="-8.7858250">
        <ele>27.6</ele>
        <time>2021-05-17T14:07:39Z</time>
      </trkpt>
      <trkpt lat="41.6515050" lon="-8.7858430">
        <ele>27.6</ele>
        <time>2021-05-17T14:07:40Z</time>
      </trkpt>
      <trkpt lat="41.6515090" lon="-8.7858650">
        <ele>27.6</ele>
        <time>2021-05-17T14:07:41Z</time>
      </trkpt>
      <trkpt lat="41.6515180" lon="-8.7858780">
        <ele>27.5</ele>
        <time>2021-05-17T14:07:42Z</time>
      </trkpt>
      <trkpt lat="41.6515230" lon="-8.7858930">
        <ele>27.5</ele>
        <time>2021-05-17T14:07:43Z</time>
      </trkpt>
      <trkpt lat="41.6515320" lon="-8.7859000">
        <ele>27.5</ele>
        <time>2021-05-17T14:07:44Z</time>
      </trkpt>
      <trkpt lat="41.6515400" lon="-8.7859150">
        <ele>27.5</ele>
        <time>2021-05-17T14:07:45Z</time>
      </trkpt>
      <trkpt lat="41.6515520" lon="-8.7859320">
        <ele>27.5</ele>
        <time>2021-05-17T14:07:46Z</time>
      </trkpt>
      <trkpt lat="41.6515720" lon="-8.7859600">
        <ele>27.4</ele>
        <time>2021-05-17T14:07:47Z</time>
      </trkpt>
      <trkpt lat="41.6515770" lon="-8.7859690">
        <ele>27.4</ele>
        <time>2021-05-17T14:07:48Z</time>
      </trkpt>
      <trkpt lat="41.6515890" lon="-8.7859860">
        <ele>27.4</ele>
        <time>2021-05-17T14:07:49Z</time>
      </trkpt>
      <trkpt lat="41.6516000" lon="-8.7860030">
        <ele>27.3</ele>
        <time>2021-05-17T14:07:50Z</time>
      </trkpt>
      <trkpt lat="41.6516120" lon="-8.7860260">
        <ele>27.3</ele>
        <time>2021-05-17T14:07:51Z</time>
      </trkpt>
      <trkpt lat="41.6516240" lon="-8.7860360">
        <ele>27.3</ele>
        <time>2021-05-17T14:07:52Z</time>
      </trkpt>
      <trkpt lat="41.6516290" lon="-8.7860570">
        <ele>27.3</ele>
        <time>2021-05-17T14:07:53Z</time>
      </trkpt>
      <trkpt lat="41.6516350" lon="-8.7860660">
        <ele>27.2</ele>
        <time>2021-05-17T14:07:54Z</time>
      </trkpt>
      <trkpt lat="41.6516450" lon="-8.7860740">
        <ele>27.2</ele>
        <time>2021-05-17T14:07:55Z</time>
      </trkpt>
      <trkpt lat="41.6516590" lon="-8.7860930">
        <ele>27.2</ele>
        <time>2021-05-17T14:07:56Z</time>
      </trkpt>
      <trkpt lat="41.6516650" lon="-8.7861010">
        <ele>27.2</ele>
        <time>2021-05-17T14:07:57Z</time>
      </trkpt>
      <trkpt lat="41.6516710" lon="-8.7861090">
        <ele>27.2</ele>
        <time>2021-05-17T14:07:58Z</time>
      </trkpt>
      <trkpt lat="41.6516810" lon="-8.7861260">
        <ele>27.1</ele>
        <time>2021-05-17T14:07:59Z</time>
      </trkpt>
      <trkpt lat="41.6516780" lon="-8.7861380">
        <ele>27.1</ele>
        <time>2021-05-17T14:08:00Z</time>
      </trkpt>
      <trkpt lat="41.6516790" lon="-8.7861550">
        <ele>27.1</ele>
        <time>2021-05-17T14:08:01Z</time>
      </trkpt>
      <trkpt lat="41.6516860" lon="-8.7861790">
        <ele>27.0</ele>
        <time>2021-05-17T14:08:02Z</time>
      </trkpt>
      <trkpt lat="41.6516900" lon="-8.7861890">
        <ele>27.0</ele>
        <time>2021-05-17T14:08:03Z</time>
      </trkpt>
      <trkpt lat="41.6517010" lon="-8.7862070">
        <ele>27.0</ele>
        <time>2021-05-17T14:08:04Z</time>
      </trkpt>
      <trkpt lat="41.6517110" lon="-8.7862240">
        <ele>27.0</ele>
        <time>2021-05-17T14:08:05Z</time>
      </trkpt>
      <trkpt lat="41.6517300" lon="-8.7862450">
        <ele>26.9</ele>
        <time>2021-05-17T14:08:06Z</time>
      </trkpt>
      <trkpt lat="41.6517370" lon="-8.7862520">
        <ele>26.9</ele>
        <time>2021-05-17T14:08:07Z</time>
      </trkpt>
      <trkpt lat="41.6517440" lon="-8.7862590">
        <ele>26.9</ele>
        <time>2021-05-17T14:08:08Z</time>
      </trkpt>
      <trkpt lat="41.6517520" lon="-8.7862700">
        <ele>26.9</ele>
        <time>2021-05-17T14:08:09Z</time>
      </trkpt>
      <trkpt lat="41.6517630" lon="-8.7862820">
        <ele>26.8</ele>
        <time>2021-05-17T14:08:10Z</time>
      </trkpt>
      <trkpt lat="41.6517710" lon="-8.7862920">
        <ele>26.8</ele>
        <time>2021-05-17T14:08:11Z</time>
      </trkpt>
      <trkpt lat="41.6517810" lon="-8.7862950">
        <ele>26.8</ele>
        <time>2021-05-17T14:08:12Z</time>
      </trkpt>
      <trkpt lat="41.6517870" lon="-8.7863030">
        <ele>26.8</ele>
        <time>2021-05-17T14:08:13Z</time>
      </trkpt>
      <trkpt lat="41.6517990" lon="-8.7863090">
        <ele>26.7</ele>
        <time>2021-05-17T14:08:14Z</time>
      </trkpt>
      <trkpt lat="41.6518230" lon="-8.7863190">
        <ele>26.7</ele>
        <time>2021-05-17T14:08:15Z</time>
      </trkpt>
      <trkpt lat="41.6518300" lon="-8.7863270">
        <ele>26.7</ele>
        <time>2021-05-17T14:08:16Z</time>
      </trkpt>
      <trkpt lat="41.6518370" lon="-8.7863350">
        <ele>26.6</ele>
        <time>2021-05-17T14:08:17Z</time>
      </trkpt>
      <trkpt lat="41.6518530" lon="-8.7863540">
        <ele>26.6</ele>
        <time>2021-05-17T14:08:18Z</time>
      </trkpt>
      <trkpt lat="41.6518670" lon="-8.7863620">
        <ele>26.6</ele>
        <time>2021-05-17T14:08:19Z</time>
      </trkpt>
      <trkpt lat="41.6518800" lon="-8.7863710">
        <ele>26.6</ele>
        <time>2021-05-17T14:08:20Z</time>
      </trkpt>
      <trkpt lat="41.6518890" lon="-8.7863810">
        <ele>26.6</ele>
        <time>2021-05-17T14:08:21Z</time>
      </trkpt>
      <trkpt lat="41.6519000" lon="-8.7863810">
        <ele>26.6</ele>
        <time>2021-05-17T14:08:22Z</time>
      </trkpt>
      <trkpt lat="41.6519100" lon="-8.7864020">
        <ele>26.6</ele>
        <time>2021-05-17T14:08:23Z</time>
      </trkpt>
      <trkpt lat="41.6519170" lon="-8.7864130">
        <ele>26.6</ele>
        <time>2021-05-17T14:08:24Z</time>
      </trkpt>
      <trkpt lat="41.6519340" lon="-8.7864240">
        <ele>26.5</ele>
        <time>2021-05-17T14:08:25Z</time>
      </trkpt>
      <trkpt lat="41.6519420" lon="-8.7864300">
        <ele>26.5</ele>
        <time>2021-05-17T14:08:26Z</time>
      </trkpt>
      <trkpt lat="41.6519510" lon="-8.7864360">
        <ele>26.5</ele>
        <time>2021-05-17T14:08:27Z</time>
      </trkpt>
      <trkpt lat="41.6519610" lon="-8.7864410">
        <ele>26.5</ele>
        <time>2021-05-17T14:08:28Z</time>
      </trkpt>
      <trkpt lat="41.6519710" lon="-8.7864490">
        <ele>26.5</ele>
        <time>2021-05-17T14:08:29Z</time>
      </trkpt>
      <trkpt lat="41.6519830" lon="-8.7864530">
        <ele>26.5</ele>
        <time>2021-05-17T14:08:30Z</time>
      </trkpt>
      <trkpt lat="41.6519980" lon="-8.7864590">
        <ele>26.5</ele>
        <time>2021-05-17T14:08:31Z</time>
      </trkpt>
      <trkpt lat="41.6520060" lon="-8.7864630">
        <ele>26.5</ele>
        <time>2021-05-17T14:08:32Z</time>
      </trkpt>
      <trkpt lat="41.6520150" lon="-8.7864670">
        <ele>26.5</ele>
        <time>2021-05-17T14:08:33Z</time>
      </trkpt>
      <trkpt lat="41.6520230" lon="-8.7864710">
        <ele>26.5</ele>
        <time>2021-05-17T14:08:34Z</time>
      </trkpt>
      <trkpt lat="41.6520340" lon="-8.7864750">
        <ele>26.5</ele>
        <time>2021-05-17T14:08:35Z</time>
      </trkpt>
      <trkpt lat="41.6520430" lon="-8.7864830">
        <ele>26.5</ele>
        <time>2021-05-17T14:08:36Z</time>
      </trkpt>
      <trkpt lat="41.6520510" lon="-8.7864900">
        <ele>26.5</ele>
        <time>2021-05-17T14:08:37Z</time>
      </trkpt>
      <trkpt lat="41.6520660" lon="-8.7864930">
        <ele>26.5</ele>
        <time>2021-05-17T14:08:38Z</time>
      </trkpt>
      <trkpt lat="41.6520790" lon="-8.7865050">
        <ele>26.5</ele>
        <time>2021-05-17T14:08:39Z</time>
      </trkpt>
      <trkpt lat="41.6520940" lon="-8.7865150">
        <ele>26.5</ele>
        <time>2021-05-17T14:08:40Z</time>
      </trkpt>
      <trkpt lat="41.6521070" lon="-8.7865210">
        <ele>26.5</ele>
        <time>2021-05-17T14:08:41Z</time>
      </trkpt>
      <trkpt lat="41.6521240" lon="-8.7865370">
        <ele>26.4</ele>
        <time>2021-05-17T14:08:42Z</time>
      </trkpt>
      <trkpt lat="41.6521320" lon="-8.7865410">
        <ele>26.4</ele>
        <time>2021-05-17T14:08:43Z</time>
      </trkpt>
      <trkpt lat="41.6521400" lon="-8.7865450">
        <ele>26.4</ele>
        <time>2021-05-17T14:08:44Z</time>
      </trkpt>
      <trkpt lat="41.6521550" lon="-8.7865590">
        <ele>26.4</ele>
        <time>2021-05-17T14:08:45Z</time>
      </trkpt>
      <trkpt lat="41.6521730" lon="-8.7865610">
        <ele>26.4</ele>
        <time>2021-05-17T14:08:46Z</time>
      </trkpt>
      <trkpt lat="41.6521840" lon="-8.7865770">
        <ele>26.4</ele>
        <time>2021-05-17T14:08:47Z</time>
      </trkpt>
      <trkpt lat="41.6521990" lon="-8.7865900">
        <ele>26.4</ele>
        <time>2021-05-17T14:08:48Z</time>
      </trkpt>
      <trkpt lat="41.6522150" lon="-8.7866010">
        <ele>26.4</ele>
        <time>2021-05-17T14:08:49Z</time>
      </trkpt>
      <trkpt lat="41.6522280" lon="-8.7866040">
        <ele>26.3</ele>
        <time>2021-05-17T14:08:50Z</time>
      </trkpt>
      <trkpt lat="41.6522390" lon="-8.7866040">
        <ele>26.3</ele>
        <time>2021-05-17T14:08:51Z</time>
      </trkpt>
      <trkpt lat="41.6522560" lon="-8.7866150">
        <ele>26.3</ele>
        <time>2021-05-17T14:08:52Z</time>
      </trkpt>
      <trkpt lat="41.6522690" lon="-8.7866280">
        <ele>26.3</ele>
        <time>2021-05-17T14:08:53Z</time>
      </trkpt>
      <trkpt lat="41.6522810" lon="-8.7866410">
        <ele>26.3</ele>
        <time>2021-05-17T14:08:54Z</time>
      </trkpt>
      <trkpt lat="41.6522920" lon="-8.7866620">
        <ele>26.3</ele>
        <time>2021-05-17T14:08:55Z</time>
      </trkpt>
      <trkpt lat="41.6523000" lon="-8.7866690">
        <ele>26.2</ele>
        <time>2021-05-17T14:08:56Z</time>
      </trkpt>
      <trkpt lat="41.6523070" lon="-8.7866770">
        <ele>26.2</ele>
        <time>2021-05-17T14:08:57Z</time>
      </trkpt>
      <trkpt lat="41.6523120" lon="-8.7866940">
        <ele>26.2</ele>
        <time>2021-05-17T14:08:58Z</time>
      </trkpt>
      <trkpt lat="41.6523190" lon="-8.7867030">
        <ele>26.2</ele>
        <time>2021-05-17T14:08:59Z</time>
      </trkpt>
      <trkpt lat="41.6523270" lon="-8.7867120">
        <ele>26.2</ele>
        <time>2021-05-17T14:09:00Z</time>
      </trkpt>
      <trkpt lat="41.6523340" lon="-8.7867210">
        <ele>26.2</ele>
        <time>2021-05-17T14:09:01Z</time>
      </trkpt>
      <trkpt lat="41.6523430" lon="-8.7867400">
        <ele>26.2</ele>
        <time>2021-05-17T14:09:02Z</time>
      </trkpt>
      <trkpt lat="41.6523570" lon="-8.7867470">
        <ele>26.2</ele>
        <time>2021-05-17T14:09:03Z</time>
      </trkpt>
      <trkpt lat="41.6523710" lon="-8.7867530">
        <ele>26.1</ele>
        <time>2021-05-17T14:09:04Z</time>
      </trkpt>
      <trkpt lat="41.6523880" lon="-8.7867630">
        <ele>26.1</ele>
        <time>2021-05-17T14:09:05Z</time>
      </trkpt>
      <trkpt lat="41.6523970" lon="-8.7867700">
        <ele>26.1</ele>
        <time>2021-05-17T14:09:06Z</time>
      </trkpt>
      <trkpt lat="41.6524070" lon="-8.7867810">
        <ele>26.1</ele>
        <time>2021-05-17T14:09:07Z</time>
      </trkpt>
      <trkpt lat="41.6524150" lon="-8.7867940">
        <ele>26.1</ele>
        <time>2021-05-17T14:09:08Z</time>
      </trkpt>
      <trkpt lat="41.6524340" lon="-8.7868030">
        <ele>26.1</ele>
        <time>2021-05-17T14:09:09Z</time>
      </trkpt>
      <trkpt lat="41.6524430" lon="-8.7868100">
        <ele>26.1</ele>
        <time>2021-05-17T14:09:10Z</time>
      </trkpt>
      <trkpt lat="41.6524520" lon="-8.7868160">
        <ele>26.1</ele>
        <time>2021-05-17T14:09:11Z</time>
      </trkpt>
      <trkpt lat="41.6524600" lon="-8.7868240">
        <ele>26.1</ele>
        <time>2021-05-17T14:09:12Z</time>
      </trkpt>
      <trkpt lat="41.6524690" lon="-8.7868340">
        <ele>26.0</ele>
        <time>2021-05-17T14:09:13Z</time>
      </trkpt>
      <trkpt lat="41.6524810" lon="-8.7868420">
        <ele>26.0</ele>
        <time>2021-05-17T14:09:14Z</time>
      </trkpt>
      <trkpt lat="41.6524890" lon="-8.7868560">
        <ele>26.0</ele>
        <time>2021-05-17T14:09:15Z</time>
      </trkpt>
      <trkpt lat="41.6525000" lon="-8.7868600">
        <ele>26.0</ele>
        <time>2021-05-17T14:09:16Z</time>
      </trkpt>
      <trkpt lat="41.6525080" lon="-8.7868660">
        <ele>26.0</ele>
        <time>2021-05-17T14:09:17Z</time>
      </trkpt>
      <trkpt lat="41.6525180" lon="-8.7868760">
        <ele>26.0</ele>
        <time>2021-05-17T14:09:18Z</time>
      </trkpt>
      <trkpt lat="41.6525250" lon="-8.7868830">
        <ele>26.0</ele>
        <time>2021-05-17T14:09:19Z</time>
      </trkpt>
      <trkpt lat="41.6525310" lon="-8.7868900">
        <ele>26.0</ele>
        <time>2021-05-17T14:09:20Z</time>
      </trkpt>
      <trkpt lat="41.6525380" lon="-8.7868970">
        <ele>26.0</ele>
        <time>2021-05-17T14:09:21Z</time>
      </trkpt>
      <trkpt lat="41.6525460" lon="-8.7869090">
        <ele>26.0</ele>
        <time>2021-05-17T14:09:22Z</time>
      </trkpt>
      <trkpt lat="41.6525550" lon="-8.7869120">
        <ele>26.0</ele>
        <time>2021-05-17T14:09:23Z</time>
      </trkpt>
      <trkpt lat="41.6525700" lon="-8.7869130">
        <ele>25.9</ele>
        <time>2021-05-17T14:09:24Z</time>
      </trkpt>
      <trkpt lat="41.6525900" lon="-8.7869130">
        <ele>25.9</ele>
        <time>2021-05-17T14:09:25Z</time>
      </trkpt>
      <trkpt lat="41.6525990" lon="-8.7869200">
        <ele>25.9</ele>
        <time>2021-05-17T14:09:26Z</time>
      </trkpt>
      <trkpt lat="41.6526070" lon="-8.7869260">
        <ele>25.9</ele>
        <time>2021-05-17T14:09:27Z</time>
      </trkpt>
      <trkpt lat="41.6526220" lon="-8.7869350">
        <ele>25.9</ele>
        <time>2021-05-17T14:09:28Z</time>
      </trkpt>
      <trkpt lat="41.6526360" lon="-8.7869460">
        <ele>25.9</ele>
        <time>2021-05-17T14:09:29Z</time>
      </trkpt>
      <trkpt lat="41.6526580" lon="-8.7869610">
        <ele>25.9</ele>
        <time>2021-05-17T14:09:30Z</time>
      </trkpt>
      <trkpt lat="41.6526680" lon="-8.7869660">
        <ele>25.9</ele>
        <time>2021-05-17T14:09:31Z</time>
      </trkpt>
      <trkpt lat="41.6526820" lon="-8.7870000">
        <ele>25.9</ele>
        <time>2021-05-17T14:09:32Z</time>
      </trkpt>
      <trkpt lat="41.6526930" lon="-8.7870070">
        <ele>25.8</ele>
        <time>2021-05-17T14:09:33Z</time>
      </trkpt>
      <trkpt lat="41.6527140" lon="-8.7870300">
        <ele>25.8</ele>
        <time>2021-05-17T14:09:34Z</time>
      </trkpt>
      <trkpt lat="41.6527340" lon="-8.7870560">
        <ele>25.8</ele>
        <time>2021-05-17T14:09:35Z</time>
      </trkpt>
      <trkpt lat="41.6527610" lon="-8.7870660">
        <ele>25.8</ele>
        <time>2021-05-17T14:09:36Z</time>
      </trkpt>
      <trkpt lat="41.6527690" lon="-8.7870690">
        <ele>25.8</ele>
        <time>2021-05-17T14:09:37Z</time>
      </trkpt>
      <trkpt lat="41.6527780" lon="-8.7870690">
        <ele>25.8</ele>
        <time>2021-05-17T14:09:38Z</time>
      </trkpt>
      <trkpt lat="41.6527870" lon="-8.7870680">
        <ele>25.8</ele>
        <time>2021-05-17T14:09:39Z</time>
      </trkpt>
      <trkpt lat="41.6527940" lon="-8.7870670">
        <ele>25.8</ele>
        <time>2021-05-17T14:09:40Z</time>
      </trkpt>
      <trkpt lat="41.6528040" lon="-8.7870660">
        <ele>25.8</ele>
        <time>2021-05-17T14:09:41Z</time>
      </trkpt>
      <trkpt lat="41.6528120" lon="-8.7870640">
        <ele>25.8</ele>
        <time>2021-05-17T14:09:42Z</time>
      </trkpt>
      <trkpt lat="41.6528270" lon="-8.7870690">
        <ele>25.8</ele>
        <time>2021-05-17T14:09:43Z</time>
      </trkpt>
      <trkpt lat="41.6528400" lon="-8.7870640">
        <ele>25.8</ele>
        <time>2021-05-17T14:09:44Z</time>
      </trkpt>
      <trkpt lat="41.6528570" lon="-8.7870510">
        <ele>25.8</ele>
        <time>2021-05-17T14:09:45Z</time>
      </trkpt>
      <trkpt lat="41.6528690" lon="-8.7870440">
        <ele>25.8</ele>
        <time>2021-05-17T14:09:46Z</time>
      </trkpt>
      <trkpt lat="41.6528820" lon="-8.7870360">
        <ele>25.8</ele>
        <time>2021-05-17T14:09:47Z</time>
      </trkpt>
      <trkpt lat="41.6528930" lon="-8.7870270">
        <ele>25.8</ele>
        <time>2021-05-17T14:09:48Z</time>
      </trkpt>
      <trkpt lat="41.6529100" lon="-8.7870090">
        <ele>25.8</ele>
        <time>2021-05-17T14:09:49Z</time>
      </trkpt>
      <trkpt lat="41.6529150" lon="-8.7870050">
        <ele>25.8</ele>
        <time>2021-05-17T14:09:50Z</time>
      </trkpt>
      <trkpt lat="41.6529190" lon="-8.7870000">
        <ele>25.7</ele>
        <time>2021-05-17T14:09:51Z</time>
      </trkpt>
      <trkpt lat="41.6529240" lon="-8.7869960">
        <ele>25.7</ele>
        <time>2021-05-17T14:09:52Z</time>
      </trkpt>
      <trkpt lat="41.6529390" lon="-8.7869810">
        <ele>25.7</ele>
        <time>2021-05-17T14:09:53Z</time>
      </trkpt>
      <trkpt lat="41.6529480" lon="-8.7869730">
        <ele>25.7</ele>
        <time>2021-05-17T14:09:54Z</time>
      </trkpt>
      <trkpt lat="41.6529570" lon="-8.7869660">
        <ele>25.7</ele>
        <time>2021-05-17T14:09:55Z</time>
      </trkpt>
      <trkpt lat="41.6529710" lon="-8.7869540">
        <ele>25.7</ele>
        <time>2021-05-17T14:09:56Z</time>
      </trkpt>
      <trkpt lat="41.6529840" lon="-8.7869440">
        <ele>25.7</ele>
        <time>2021-05-17T14:09:57Z</time>
      </trkpt>
      <trkpt lat="41.6529910" lon="-8.7869310">
        <ele>25.7</ele>
        <time>2021-05-17T14:09:58Z</time>
      </trkpt>
      <trkpt lat="41.6529980" lon="-8.7869220">
        <ele>25.7</ele>
        <time>2021-05-17T14:09:59Z</time>
      </trkpt>
      <trkpt lat="41.6530020" lon="-8.7869100">
        <ele>25.7</ele>
        <time>2021-05-17T14:10:00Z</time>
      </trkpt>
      <trkpt lat="41.6530140" lon="-8.7868980">
        <ele>25.7</ele>
        <time>2021-05-17T14:10:01Z</time>
      </trkpt>
      <trkpt lat="41.6530280" lon="-8.7868820">
        <ele>25.7</ele>
        <time>2021-05-17T14:10:02Z</time>
      </trkpt>
      <trkpt lat="41.6530350" lon="-8.7868760">
        <ele>25.7</ele>
        <time>2021-05-17T14:10:03Z</time>
      </trkpt>
      <trkpt lat="41.6530380" lon="-8.7868630">
        <ele>25.7</ele>
        <time>2021-05-17T14:10:04Z</time>
      </trkpt>
      <trkpt lat="41.6530480" lon="-8.7868490">
        <ele>25.7</ele>
        <time>2021-05-17T14:10:05Z</time>
      </trkpt>
      <trkpt lat="41.6530570" lon="-8.7868360">
        <ele>25.6</ele>
        <time>2021-05-17T14:10:06Z</time>
      </trkpt>
      <trkpt lat="41.6530740" lon="-8.7868200">
        <ele>25.6</ele>
        <time>2021-05-17T14:10:07Z</time>
      </trkpt>
      <trkpt lat="41.6530800" lon="-8.7868040">
        <ele>25.6</ele>
        <time>2021-05-17T14:10:08Z</time>
      </trkpt>
      <trkpt lat="41.6530870" lon="-8.7867810">
        <ele>25.6</ele>
        <time>2021-05-17T14:10:09Z</time>
      </trkpt>
      <trkpt lat="41.6530960" lon="-8.7867710">
        <ele>25.6</ele>
        <time>2021-05-17T14:10:10Z</time>
      </trkpt>
      <trkpt lat="41.6531000" lon="-8.7867630">
        <ele>25.6</ele>
        <time>2021-05-17T14:10:11Z</time>
      </trkpt>
      <trkpt lat="41.6531050" lon="-8.7867550">
        <ele>25.6</ele>
        <time>2021-05-17T14:10:12Z</time>
      </trkpt>
      <trkpt lat="41.6531120" lon="-8.7867450">
        <ele>25.5</ele>
        <time>2021-05-17T14:10:13Z</time>
      </trkpt>
      <trkpt lat="41.6531210" lon="-8.7867290">
        <ele>25.5</ele>
        <time>2021-05-17T14:10:14Z</time>
      </trkpt>
      <trkpt lat="41.6531310" lon="-8.7867180">
        <ele>25.5</ele>
        <time>2021-05-17T14:10:15Z</time>
      </trkpt>
      <trkpt lat="41.6531490" lon="-8.7867060">
        <ele>25.5</ele>
        <time>2021-05-17T14:10:16Z</time>
      </trkpt>
      <trkpt lat="41.6531550" lon="-8.7867030">
        <ele>25.5</ele>
        <time>2021-05-17T14:10:17Z</time>
      </trkpt>
      <trkpt lat="41.6531600" lon="-8.7866990">
        <ele>25.4</ele>
        <time>2021-05-17T14:10:18Z</time>
      </trkpt>
      <trkpt lat="41.6531650" lon="-8.7866960">
        <ele>25.4</ele>
        <time>2021-05-17T14:10:19Z</time>
      </trkpt>
      <trkpt lat="41.6531810" lon="-8.7866900">
        <ele>25.4</ele>
        <time>2021-05-17T14:10:20Z</time>
      </trkpt>
      <trkpt lat="41.6531930" lon="-8.7866850">
        <ele>25.4</ele>
        <time>2021-05-17T14:10:21Z</time>
      </trkpt>
      <trkpt lat="41.6532120" lon="-8.7866720">
        <ele>25.4</ele>
        <time>2021-05-17T14:10:22Z</time>
      </trkpt>
      <trkpt lat="41.6532200" lon="-8.7866710">
        <ele>25.3</ele>
        <time>2021-05-17T14:10:23Z</time>
      </trkpt>
      <trkpt lat="41.6532390" lon="-8.7866690">
        <ele>25.3</ele>
        <time>2021-05-17T14:10:24Z</time>
      </trkpt>
      <trkpt lat="41.6532500" lon="-8.7866700">
        <ele>25.3</ele>
        <time>2021-05-17T14:10:25Z</time>
      </trkpt>
      <trkpt lat="41.6532790" lon="-8.7866720">
        <ele>25.3</ele>
        <time>2021-05-17T14:10:26Z</time>
      </trkpt>
      <trkpt lat="41.6532940" lon="-8.7866720">
        <ele>25.2</ele>
        <time>2021-05-17T14:10:27Z</time>
      </trkpt>
      <trkpt lat="41.6533130" lon="-8.7866740">
        <ele>25.2</ele>
        <time>2021-05-17T14:10:28Z</time>
      </trkpt>
      <trkpt lat="41.6533310" lon="-8.7866730">
        <ele>25.2</ele>
        <time>2021-05-17T14:10:29Z</time>
      </trkpt>
      <trkpt lat="41.6533410" lon="-8.7866730">
        <ele>25.2</ele>
        <time>2021-05-17T14:10:30Z</time>
      </trkpt>
      <trkpt lat="41.6533520" lon="-8.7866740">
        <ele>25.2</ele>
        <time>2021-05-17T14:10:31Z</time>
      </trkpt>
      <trkpt lat="41.6533710" lon="-8.7866650">
        <ele>25.2</ele>
        <time>2021-05-17T14:10:32Z</time>
      </trkpt>
      <trkpt lat="41.6533770" lon="-8.7866640">
        <ele>25.2</ele>
        <time>2021-05-17T14:10:33Z</time>
      </trkpt>
      <trkpt lat="41.6533830" lon="-8.7866620">
        <ele>25.2</ele>
        <time>2021-05-17T14:10:34Z</time>
      </trkpt>
      <trkpt lat="41.6533890" lon="-8.7866610">
        <ele>25.2</ele>
        <time>2021-05-17T14:10:35Z</time>
      </trkpt>
      <trkpt lat="41.6534010" lon="-8.7866590">
        <ele>25.1</ele>
        <time>2021-05-17T14:10:36Z</time>
      </trkpt>
      <trkpt lat="41.6534110" lon="-8.7866550">
        <ele>25.1</ele>
        <time>2021-05-17T14:10:37Z</time>
      </trkpt>
      <trkpt lat="41.6534240" lon="-8.7866520">
        <ele>25.1</ele>
        <time>2021-05-17T14:10:38Z</time>
      </trkpt>
      <trkpt lat="41.6534340" lon="-8.7866460">
        <ele>25.1</ele>
        <time>2021-05-17T14:10:39Z</time>
      </trkpt>
      <trkpt lat="41.6534470" lon="-8.7866450">
        <ele>25.1</ele>
        <time>2021-05-17T14:10:40Z</time>
      </trkpt>
      <trkpt lat="41.6534540" lon="-8.7866390">
        <ele>25.1</ele>
        <time>2021-05-17T14:10:41Z</time>
      </trkpt>
      <trkpt lat="41.6534830" lon="-8.7866320">
        <ele>25.1</ele>
        <time>2021-05-17T14:10:42Z</time>
      </trkpt>
      <trkpt lat="41.6534920" lon="-8.7866300">
        <ele>25.1</ele>
        <time>2021-05-17T14:10:43Z</time>
      </trkpt>
      <trkpt lat="41.6534920" lon="-8.7866290">
        <ele>25.1</ele>
        <time>2021-05-17T14:10:44Z</time>
      </trkpt>
      <trkpt lat="41.6535070" lon="-8.7866240">
        <ele>25.1</ele>
        <time>2021-05-17T14:10:45Z</time>
      </trkpt>
      <trkpt lat="41.6535190" lon="-8.7866200">
        <ele>25.1</ele>
        <time>2021-05-17T14:10:46Z</time>
      </trkpt>
      <trkpt lat="41.6535490" lon="-8.7866100">
        <ele>25.0</ele>
        <time>2021-05-17T14:10:47Z</time>
      </trkpt>
      <trkpt lat="41.6535580" lon="-8.7866110">
        <ele>25.0</ele>
        <time>2021-05-17T14:10:48Z</time>
      </trkpt>
      <trkpt lat="41.6535750" lon="-8.7866130">
        <ele>25.0</ele>
        <time>2021-05-17T14:10:49Z</time>
      </trkpt>
      <trkpt lat="41.6535930" lon="-8.7866230">
        <ele>25.0</ele>
        <time>2021-05-17T14:10:50Z</time>
      </trkpt>
      <trkpt lat="41.6536010" lon="-8.7866220">
        <ele>25.0</ele>
        <time>2021-05-17T14:10:51Z</time>
      </trkpt>
      <trkpt lat="41.6536180" lon="-8.7866260">
        <ele>25.0</ele>
        <time>2021-05-17T14:10:52Z</time>
      </trkpt>
      <trkpt lat="41.6536270" lon="-8.7866280">
        <ele>24.9</ele>
        <time>2021-05-17T14:10:53Z</time>
      </trkpt>
      <trkpt lat="41.6536280" lon="-8.7866380">
        <ele>24.9</ele>
        <time>2021-05-17T14:10:54Z</time>
      </trkpt>
      <trkpt lat="41.6536380" lon="-8.7866460">
        <ele>24.9</ele>
        <time>2021-05-17T14:10:55Z</time>
      </trkpt>
      <trkpt lat="41.6536490" lon="-8.7866600">
        <ele>24.9</ele>
        <time>2021-05-17T14:10:56Z</time>
      </trkpt>
      <trkpt lat="41.6536580" lon="-8.7866740">
        <ele>24.9</ele>
        <time>2021-05-17T14:10:57Z</time>
      </trkpt>
      <trkpt lat="41.6536730" lon="-8.7866920">
        <ele>24.8</ele>
        <time>2021-05-17T14:10:58Z</time>
      </trkpt>
      <trkpt lat="41.6536910" lon="-8.7867060">
        <ele>24.8</ele>
        <time>2021-05-17T14:10:59Z</time>
      </trkpt>
      <trkpt lat="41.6536990" lon="-8.7867140">
        <ele>24.8</ele>
        <time>2021-05-17T14:11:00Z</time>
      </trkpt>
      <trkpt lat="41.6537070" lon="-8.7867210">
        <ele>24.8</ele>
        <time>2021-05-17T14:11:01Z</time>
      </trkpt>
      <trkpt lat="41.6537220" lon="-8.7867290">
        <ele>24.8</ele>
        <time>2021-05-17T14:11:02Z</time>
      </trkpt>
      <trkpt lat="41.6537310" lon="-8.7867360">
        <ele>24.8</ele>
        <time>2021-05-17T14:11:03Z</time>
      </trkpt>
      <trkpt lat="41.6537400" lon="-8.7867420">
        <ele>24.7</ele>
        <time>2021-05-17T14:11:04Z</time>
      </trkpt>
      <trkpt lat="41.6537430" lon="-8.7867440">
        <ele>24.7</ele>
        <time>2021-05-17T14:11:05Z</time>
      </trkpt>
      <trkpt lat="41.6537560" lon="-8.7867540">
        <ele>24.7</ele>
        <time>2021-05-17T14:11:06Z</time>
      </trkpt>
      <trkpt lat="41.6537680" lon="-8.7867630">
        <ele>24.7</ele>
        <time>2021-05-17T14:11:07Z</time>
      </trkpt>
      <trkpt lat="41.6537830" lon="-8.7867750">
        <ele>24.7</ele>
        <time>2021-05-17T14:11:08Z</time>
      </trkpt>
      <trkpt lat="41.6537930" lon="-8.7867800">
        <ele>24.7</ele>
        <time>2021-05-17T14:11:09Z</time>
      </trkpt>
      <trkpt lat="41.6538070" lon="-8.7867960">
        <ele>24.6</ele>
        <time>2021-05-17T14:11:10Z</time>
      </trkpt>
      <trkpt lat="41.6538210" lon="-8.7868050">
        <ele>24.6</ele>
        <time>2021-05-17T14:11:11Z</time>
      </trkpt>
      <trkpt lat="41.6538290" lon="-8.7868220">
        <ele>24.6</ele>
        <time>2021-05-17T14:11:12Z</time>
      </trkpt>
      <trkpt lat="41.6538420" lon="-8.7868290">
        <ele>24.6</ele>
        <time>2021-05-17T14:11:13Z</time>
      </trkpt>
      <trkpt lat="41.6538610" lon="-8.7868420">
        <ele>24.6</ele>
        <time>2021-05-17T14:11:14Z</time>
      </trkpt>
      <trkpt lat="41.6538700" lon="-8.7868500">
        <ele>24.5</ele>
        <time>2021-05-17T14:11:15Z</time>
      </trkpt>
      <trkpt lat="41.6538790" lon="-8.7868570">
        <ele>24.5</ele>
        <time>2021-05-17T14:11:16Z</time>
      </trkpt>
      <trkpt lat="41.6539000" lon="-8.7868720">
        <ele>24.5</ele>
        <time>2021-05-17T14:11:17Z</time>
      </trkpt>
      <trkpt lat="41.6539040" lon="-8.7868790">
        <ele>24.5</ele>
        <time>2021-05-17T14:11:18Z</time>
      </trkpt>
      <trkpt lat="41.6539090" lon="-8.7868860">
        <ele>24.5</ele>
        <time>2021-05-17T14:11:19Z</time>
      </trkpt>
      <trkpt lat="41.6539230" lon="-8.7868970">
        <ele>24.5</ele>
        <time>2021-05-17T14:11:20Z</time>
      </trkpt>
      <trkpt lat="41.6539340" lon="-8.7869000">
        <ele>24.5</ele>
        <time>2021-05-17T14:11:21Z</time>
      </trkpt>
      <trkpt lat="41.6539450" lon="-8.7869030">
        <ele>24.5</ele>
        <time>2021-05-17T14:11:22Z</time>
      </trkpt>
      <trkpt lat="41.6539630" lon="-8.7869090">
        <ele>24.4</ele>
        <time>2021-05-17T14:11:23Z</time>
      </trkpt>
      <trkpt lat="41.6539770" lon="-8.7869170">
        <ele>24.4</ele>
        <time>2021-05-17T14:11:24Z</time>
      </trkpt>
      <trkpt lat="41.6540000" lon="-8.7869210">
        <ele>24.4</ele>
        <time>2021-05-17T14:11:25Z</time>
      </trkpt>
      <trkpt lat="41.6540080" lon="-8.7869200">
        <ele>24.4</ele>
        <time>2021-05-17T14:11:26Z</time>
      </trkpt>
      <trkpt lat="41.6540160" lon="-8.7869180">
        <ele>24.4</ele>
        <time>2021-05-17T14:11:27Z</time>
      </trkpt>
      <trkpt lat="41.6540310" lon="-8.7869240">
        <ele>24.3</ele>
        <time>2021-05-17T14:11:28Z</time>
      </trkpt>
      <trkpt lat="41.6540380" lon="-8.7869420">
        <ele>24.3</ele>
        <time>2021-05-17T14:11:29Z</time>
      </trkpt>
      <trkpt lat="41.6540650" lon="-8.7869410">
        <ele>24.3</ele>
        <time>2021-05-17T14:11:30Z</time>
      </trkpt>
      <trkpt lat="41.6540750" lon="-8.7869420">
        <ele>24.3</ele>
        <time>2021-05-17T14:11:31Z</time>
      </trkpt>
      <trkpt lat="41.6540790" lon="-8.7869260">
        <ele>24.2</ele>
        <time>2021-05-17T14:11:32Z</time>
      </trkpt>
      <trkpt lat="41.6540830" lon="-8.7869350">
        <ele>24.2</ele>
        <time>2021-05-17T14:11:33Z</time>
      </trkpt>
      <trkpt lat="41.6540910" lon="-8.7869380">
        <ele>24.2</ele>
        <time>2021-05-17T14:11:34Z</time>
      </trkpt>
      <trkpt lat="41.6541040" lon="-8.7869430">
        <ele>24.2</ele>
        <time>2021-05-17T14:11:35Z</time>
      </trkpt>
      <trkpt lat="41.6541240" lon="-8.7869530">
        <ele>24.2</ele>
        <time>2021-05-17T14:11:36Z</time>
      </trkpt>
      <trkpt lat="41.6541330" lon="-8.7869560">
        <ele>24.1</ele>
        <time>2021-05-17T14:11:37Z</time>
      </trkpt>
      <trkpt lat="41.6541410" lon="-8.7869600">
        <ele>24.1</ele>
        <time>2021-05-17T14:11:38Z</time>
      </trkpt>
      <trkpt lat="41.6541590" lon="-8.7869670">
        <ele>24.1</ele>
        <time>2021-05-17T14:11:39Z</time>
      </trkpt>
      <trkpt lat="41.6541680" lon="-8.7869690">
        <ele>24.1</ele>
        <time>2021-05-17T14:11:40Z</time>
      </trkpt>
      <trkpt lat="41.6541740" lon="-8.7869740">
        <ele>24.1</ele>
        <time>2021-05-17T14:11:41Z</time>
      </trkpt>
      <trkpt lat="41.6541890" lon="-8.7869700">
        <ele>24.1</ele>
        <time>2021-05-17T14:11:42Z</time>
      </trkpt>
      <trkpt lat="41.6541970" lon="-8.7869620">
        <ele>24.0</ele>
        <time>2021-05-17T14:11:43Z</time>
      </trkpt>
      <trkpt lat="41.6542160" lon="-8.7869570">
        <ele>24.0</ele>
        <time>2021-05-17T14:11:44Z</time>
      </trkpt>
      <trkpt lat="41.6542280" lon="-8.7869500">
        <ele>24.0</ele>
        <time>2021-05-17T14:11:45Z</time>
      </trkpt>
      <trkpt lat="41.6542390" lon="-8.7869440">
        <ele>24.0</ele>
        <time>2021-05-17T14:11:46Z</time>
      </trkpt>
      <trkpt lat="41.6542460" lon="-8.7869470">
        <ele>24.0</ele>
        <time>2021-05-17T14:11:47Z</time>
      </trkpt>
      <trkpt lat="41.6542590" lon="-8.7869520">
        <ele>23.9</ele>
        <time>2021-05-17T14:11:48Z</time>
      </trkpt>
      <trkpt lat="41.6542690" lon="-8.7869530">
        <ele>23.9</ele>
        <time>2021-05-17T14:11:49Z</time>
      </trkpt>
      <trkpt lat="41.6542870" lon="-8.7869680">
        <ele>23.9</ele>
        <time>2021-05-17T14:11:50Z</time>
      </trkpt>
      <trkpt lat="41.6542940" lon="-8.7869740">
        <ele>23.8</ele>
        <time>2021-05-17T14:11:51Z</time>
      </trkpt>
      <trkpt lat="41.6543020" lon="-8.7869790">
        <ele>23.8</ele>
        <time>2021-05-17T14:11:52Z</time>
      </trkpt>
      <trkpt lat="41.6543190" lon="-8.7869850">
        <ele>23.8</ele>
        <time>2021-05-17T14:11:53Z</time>
      </trkpt>
      <trkpt lat="41.6543300" lon="-8.7870020">
        <ele>23.7</ele>
        <time>2021-05-17T14:11:54Z</time>
      </trkpt>
      <trkpt lat="41.6543450" lon="-8.7870090">
        <ele>23.7</ele>
        <time>2021-05-17T14:11:55Z</time>
      </trkpt>
      <trkpt lat="41.6543620" lon="-8.7870120">
        <ele>23.7</ele>
        <time>2021-05-17T14:11:56Z</time>
      </trkpt>
      <trkpt lat="41.6543870" lon="-8.7870220">
        <ele>23.6</ele>
        <time>2021-05-17T14:11:57Z</time>
      </trkpt>
      <trkpt lat="41.6543950" lon="-8.7870240">
        <ele>23.6</ele>
        <time>2021-05-17T14:11:58Z</time>
      </trkpt>
      <trkpt lat="41.6544020" lon="-8.7870260">
        <ele>23.6</ele>
        <time>2021-05-17T14:11:59Z</time>
      </trkpt>
      <trkpt lat="41.6544120" lon="-8.7870350">
        <ele>23.6</ele>
        <time>2021-05-17T14:12:00Z</time>
      </trkpt>
      <trkpt lat="41.6544270" lon="-8.7870450">
        <ele>23.5</ele>
        <time>2021-05-17T14:12:01Z</time>
      </trkpt>
      <trkpt lat="41.6544410" lon="-8.7870500">
        <ele>23.5</ele>
        <time>2021-05-17T14:12:02Z</time>
      </trkpt>
      <trkpt lat="41.6544520" lon="-8.7870580">
        <ele>23.5</ele>
        <time>2021-05-17T14:12:03Z</time>
      </trkpt>
      <trkpt lat="41.6544610" lon="-8.7870550">
        <ele>23.4</ele>
        <time>2021-05-17T14:12:04Z</time>
      </trkpt>
      <trkpt lat="41.6544700" lon="-8.7870650">
        <ele>23.4</ele>
        <time>2021-05-17T14:12:05Z</time>
      </trkpt>
      <trkpt lat="41.6544930" lon="-8.7870720">
        <ele>23.4</ele>
        <time>2021-05-17T14:12:06Z</time>
      </trkpt>
      <trkpt lat="41.6545100" lon="-8.7870760">
        <ele>23.3</ele>
        <time>2021-05-17T14:12:07Z</time>
      </trkpt>
      <trkpt lat="41.6545190" lon="-8.7870800">
        <ele>23.3</ele>
        <time>2021-05-17T14:12:08Z</time>
      </trkpt>
      <trkpt lat="41.6545280" lon="-8.7870820">
        <ele>23.3</ele>
        <time>2021-05-17T14:12:09Z</time>
      </trkpt>
      <trkpt lat="41.6545340" lon="-8.7870860">
        <ele>23.3</ele>
        <time>2021-05-17T14:12:10Z</time>
      </trkpt>
      <trkpt lat="41.6545460" lon="-8.7870760">
        <ele>23.3</ele>
        <time>2021-05-17T14:12:11Z</time>
      </trkpt>
      <trkpt lat="41.6545600" lon="-8.7870750">
        <ele>23.2</ele>
        <time>2021-05-17T14:12:12Z</time>
      </trkpt>
      <trkpt lat="41.6545760" lon="-8.7870830">
        <ele>23.2</ele>
        <time>2021-05-17T14:12:13Z</time>
      </trkpt>
      <trkpt lat="41.6545830" lon="-8.7870880">
        <ele>23.2</ele>
        <time>2021-05-17T14:12:14Z</time>
      </trkpt>
      <trkpt lat="41.6545890" lon="-8.7870930">
        <ele>23.2</ele>
        <time>2021-05-17T14:12:15Z</time>
      </trkpt>
      <trkpt lat="41.6545950" lon="-8.7870980">
        <ele>23.2</ele>
        <time>2021-05-17T14:12:16Z</time>
      </trkpt>
      <trkpt lat="41.6546070" lon="-8.7871010">
        <ele>23.2</ele>
        <time>2021-05-17T14:12:17Z</time>
      </trkpt>
      <trkpt lat="41.6546190" lon="-8.7871070">
        <ele>23.1</ele>
        <time>2021-05-17T14:12:18Z</time>
      </trkpt>
      <trkpt lat="41.6546250" lon="-8.7871070">
        <ele>23.1</ele>
        <time>2021-05-17T14:12:19Z</time>
      </trkpt>
      <trkpt lat="41.6546420" lon="-8.7871110">
        <ele>23.1</ele>
        <time>2021-05-17T14:12:20Z</time>
      </trkpt>
      <trkpt lat="41.6546580" lon="-8.7871180">
        <ele>23.1</ele>
        <time>2021-05-17T14:12:21Z</time>
      </trkpt>
      <trkpt lat="41.6546730" lon="-8.7871260">
        <ele>23.0</ele>
        <time>2021-05-17T14:12:22Z</time>
      </trkpt>
      <trkpt lat="41.6546870" lon="-8.7871260">
        <ele>23.0</ele>
        <time>2021-05-17T14:12:23Z</time>
      </trkpt>
      <trkpt lat="41.6547070" lon="-8.7871380">
        <ele>23.0</ele>
        <time>2021-05-17T14:12:24Z</time>
      </trkpt>
      <trkpt lat="41.6547170" lon="-8.7871420">
        <ele>23.0</ele>
        <time>2021-05-17T14:12:25Z</time>
      </trkpt>
      <trkpt lat="41.6547330" lon="-8.7871450">
        <ele>23.0</ele>
        <time>2021-05-17T14:12:26Z</time>
      </trkpt>
      <trkpt lat="41.6547470" lon="-8.7871540">
        <ele>23.0</ele>
        <time>2021-05-17T14:12:27Z</time>
      </trkpt>
      <trkpt lat="41.6547640" lon="-8.7871590">
        <ele>23.0</ele>
        <time>2021-05-17T14:12:28Z</time>
      </trkpt>
      <trkpt lat="41.6547730" lon="-8.7871650">
        <ele>23.0</ele>
        <time>2021-05-17T14:12:29Z</time>
      </trkpt>
      <trkpt lat="41.6547960" lon="-8.7871810">
        <ele>22.9</ele>
        <time>2021-05-17T14:12:30Z</time>
      </trkpt>
      <trkpt lat="41.6548030" lon="-8.7871870">
        <ele>22.9</ele>
        <time>2021-05-17T14:12:31Z</time>
      </trkpt>
      <trkpt lat="41.6548100" lon="-8.7871920">
        <ele>22.9</ele>
        <time>2021-05-17T14:12:32Z</time>
      </trkpt>
      <trkpt lat="41.6548220" lon="-8.7872190">
        <ele>22.9</ele>
        <time>2021-05-17T14:12:33Z</time>
      </trkpt>
      <trkpt lat="41.6548270" lon="-8.7872300">
        <ele>22.9</ele>
        <time>2021-05-17T14:12:34Z</time>
      </trkpt>
      <trkpt lat="41.6548420" lon="-8.7872540">
        <ele>22.9</ele>
        <time>2021-05-17T14:12:35Z</time>
      </trkpt>
      <trkpt lat="41.6548480" lon="-8.7872620">
        <ele>22.9</ele>
        <time>2021-05-17T14:12:36Z</time>
      </trkpt>
      <trkpt lat="41.6548540" lon="-8.7872690">
        <ele>22.9</ele>
        <time>2021-05-17T14:12:37Z</time>
      </trkpt>
      <trkpt lat="41.6548750" lon="-8.7872830">
        <ele>22.8</ele>
        <time>2021-05-17T14:12:38Z</time>
      </trkpt>
      <trkpt lat="41.6548840" lon="-8.7872890">
        <ele>22.8</ele>
        <time>2021-05-17T14:12:39Z</time>
      </trkpt>
      <trkpt lat="41.6548940" lon="-8.7872960">
        <ele>22.8</ele>
        <time>2021-05-17T14:12:40Z</time>
      </trkpt>
      <trkpt lat="41.6549040" lon="-8.7873100">
        <ele>22.8</ele>
        <time>2021-05-17T14:12:41Z</time>
      </trkpt>
      <trkpt lat="41.6549150" lon="-8.7873270">
        <ele>22.8</ele>
        <time>2021-05-17T14:12:42Z</time>
      </trkpt>
      <trkpt lat="41.6549290" lon="-8.7873440">
        <ele>22.8</ele>
        <time>2021-05-17T14:12:43Z</time>
      </trkpt>
      <trkpt lat="41.6549360" lon="-8.7873550">
        <ele>22.8</ele>
        <time>2021-05-17T14:12:44Z</time>
      </trkpt>
      <trkpt lat="41.6549440" lon="-8.7873650">
        <ele>22.8</ele>
        <time>2021-05-17T14:12:45Z</time>
      </trkpt>
      <trkpt lat="41.6549590" lon="-8.7873750">
        <ele>22.8</ele>
        <time>2021-05-17T14:12:46Z</time>
      </trkpt>
      <trkpt lat="41.6549710" lon="-8.7873930">
        <ele>22.8</ele>
        <time>2021-05-17T14:12:47Z</time>
      </trkpt>
      <trkpt lat="41.6549830" lon="-8.7874110">
        <ele>22.7</ele>
        <time>2021-05-17T14:12:48Z</time>
      </trkpt>
      <trkpt lat="41.6549990" lon="-8.7874190">
        <ele>22.7</ele>
        <time>2021-05-17T14:12:49Z</time>
      </trkpt>
      <trkpt lat="41.6550130" lon="-8.7874300">
        <ele>22.7</ele>
        <time>2021-05-17T14:12:50Z</time>
      </trkpt>
      <trkpt lat="41.6550230" lon="-8.7874480">
        <ele>22.7</ele>
        <time>2021-05-17T14:12:51Z</time>
      </trkpt>
      <trkpt lat="41.6550350" lon="-8.7874610">
        <ele>22.7</ele>
        <time>2021-05-17T14:12:52Z</time>
      </trkpt>
      <trkpt lat="41.6550420" lon="-8.7874760">
        <ele>22.7</ele>
        <time>2021-05-17T14:12:53Z</time>
      </trkpt>
      <trkpt lat="41.6550580" lon="-8.7874750">
        <ele>22.7</ele>
        <time>2021-05-17T14:12:54Z</time>
      </trkpt>
      <trkpt lat="41.6550730" lon="-8.7874840">
        <ele>22.7</ele>
        <time>2021-05-17T14:12:55Z</time>
      </trkpt>
      <trkpt lat="41.6550880" lon="-8.7874960">
        <ele>22.6</ele>
        <time>2021-05-17T14:12:56Z</time>
      </trkpt>
      <trkpt lat="41.6551010" lon="-8.7875110">
        <ele>22.6</ele>
        <time>2021-05-17T14:12:57Z</time>
      </trkpt>
      <trkpt lat="41.6551130" lon="-8.7875240">
        <ele>22.6</ele>
        <time>2021-05-17T14:12:58Z</time>
      </trkpt>
      <trkpt lat="41.6551250" lon="-8.7875400">
        <ele>22.6</ele>
        <time>2021-05-17T14:12:59Z</time>
      </trkpt>
      <trkpt lat="41.6551390" lon="-8.7875510">
        <ele>22.6</ele>
        <time>2021-05-17T14:13:00Z</time>
      </trkpt>
      <trkpt lat="41.6551500" lon="-8.7875670">
        <ele>22.6</ele>
        <time>2021-05-17T14:13:01Z</time>
      </trkpt>
      <trkpt lat="41.6551600" lon="-8.7875810">
        <ele>22.6</ele>
        <time>2021-05-17T14:13:02Z</time>
      </trkpt>
      <trkpt lat="41.6551720" lon="-8.7875950">
        <ele>22.6</ele>
        <time>2021-05-17T14:13:03Z</time>
      </trkpt>
      <trkpt lat="41.6551860" lon="-8.7876020">
        <ele>22.6</ele>
        <time>2021-05-17T14:13:04Z</time>
      </trkpt>
      <trkpt lat="41.6551990" lon="-8.7876160">
        <ele>22.6</ele>
        <time>2021-05-17T14:13:05Z</time>
      </trkpt>
      <trkpt lat="41.6552160" lon="-8.7876210">
        <ele>22.6</ele>
        <time>2021-05-17T14:13:06Z</time>
      </trkpt>
      <trkpt lat="41.6552340" lon="-8.7876220">
        <ele>22.5</ele>
        <time>2021-05-17T14:13:07Z</time>
      </trkpt>
      <trkpt lat="41.6552450" lon="-8.7876380">
        <ele>22.5</ele>
        <time>2021-05-17T14:13:08Z</time>
      </trkpt>
      <trkpt lat="41.6552490" lon="-8.7876550">
        <ele>22.5</ele>
        <time>2021-05-17T14:13:09Z</time>
      </trkpt>
      <trkpt lat="41.6552490" lon="-8.7876750">
        <ele>22.5</ele>
        <time>2021-05-17T14:13:10Z</time>
      </trkpt>
      <trkpt lat="41.6552580" lon="-8.7876890">
        <ele>22.5</ele>
        <time>2021-05-17T14:13:11Z</time>
      </trkpt>
      <trkpt lat="41.6552700" lon="-8.7877020">
        <ele>22.5</ele>
        <time>2021-05-17T14:13:12Z</time>
      </trkpt>
      <trkpt lat="41.6552820" lon="-8.7877120">
        <ele>22.5</ele>
        <time>2021-05-17T14:13:13Z</time>
      </trkpt>
      <trkpt lat="41.6552960" lon="-8.7877210">
        <ele>22.5</ele>
        <time>2021-05-17T14:13:14Z</time>
      </trkpt>
      <trkpt lat="41.6553100" lon="-8.7877290">
        <ele>22.5</ele>
        <time>2021-05-17T14:13:15Z</time>
      </trkpt>
      <trkpt lat="41.6553250" lon="-8.7877390">
        <ele>22.5</ele>
        <time>2021-05-17T14:13:16Z</time>
      </trkpt>
      <trkpt lat="41.6553370" lon="-8.7877500">
        <ele>22.5</ele>
        <time>2021-05-17T14:13:17Z</time>
      </trkpt>
      <trkpt lat="41.6553480" lon="-8.7877660">
        <ele>22.5</ele>
        <time>2021-05-17T14:13:18Z</time>
      </trkpt>
      <trkpt lat="41.6553590" lon="-8.7877770">
        <ele>22.5</ele>
        <time>2021-05-17T14:13:19Z</time>
      </trkpt>
      <trkpt lat="41.6553700" lon="-8.7877880">
        <ele>22.5</ele>
        <time>2021-05-17T14:13:20Z</time>
      </trkpt>
      <trkpt lat="41.6553840" lon="-8.7877960">
        <ele>22.5</ele>
        <time>2021-05-17T14:13:21Z</time>
      </trkpt>
      <trkpt lat="41.6553980" lon="-8.7878040">
        <ele>22.5</ele>
        <time>2021-05-17T14:13:22Z</time>
      </trkpt>
      <trkpt lat="41.6554130" lon="-8.7878030">
        <ele>22.5</ele>
        <time>2021-05-17T14:13:23Z</time>
      </trkpt>
      <trkpt lat="41.6554270" lon="-8.7878100">
        <ele>22.6</ele>
        <time>2021-05-17T14:13:24Z</time>
      </trkpt>
      <trkpt lat="41.6554410" lon="-8.7878180">
        <ele>22.6</ele>
        <time>2021-05-17T14:13:25Z</time>
      </trkpt>
      <trkpt lat="41.6554500" lon="-8.7878270">
        <ele>22.6</ele>
        <time>2021-05-17T14:13:26Z</time>
      </trkpt>
      <trkpt lat="41.6554620" lon="-8.7878280">
        <ele>22.6</ele>
        <time>2021-05-17T14:13:27Z</time>
      </trkpt>
      <trkpt lat="41.6554750" lon="-8.7878330">
        <ele>22.6</ele>
        <time>2021-05-17T14:13:28Z</time>
      </trkpt>
      <trkpt lat="41.6554920" lon="-8.7878400">
        <ele>22.6</ele>
        <time>2021-05-17T14:13:29Z</time>
      </trkpt>
      <trkpt lat="41.6555000" lon="-8.7878540">
        <ele>22.6</ele>
        <time>2021-05-17T14:13:30Z</time>
      </trkpt>
      <trkpt lat="41.6555120" lon="-8.7878630">
        <ele>22.6</ele>
        <time>2021-05-17T14:13:31Z</time>
      </trkpt>
      <trkpt lat="41.6555190" lon="-8.7878800">
        <ele>22.6</ele>
        <time>2021-05-17T14:13:32Z</time>
      </trkpt>
      <trkpt lat="41.6555330" lon="-8.7879000">
        <ele>22.6</ele>
        <time>2021-05-17T14:13:33Z</time>
      </trkpt>
      <trkpt lat="41.6555400" lon="-8.7879090">
        <ele>22.6</ele>
        <time>2021-05-17T14:13:34Z</time>
      </trkpt>
      <trkpt lat="41.6555460" lon="-8.7879170">
        <ele>22.6</ele>
        <time>2021-05-17T14:13:35Z</time>
      </trkpt>
      <trkpt lat="41.6555520" lon="-8.7879250">
        <ele>22.6</ele>
        <time>2021-05-17T14:13:36Z</time>
      </trkpt>
      <trkpt lat="41.6555630" lon="-8.7879370">
        <ele>22.6</ele>
        <time>2021-05-17T14:13:37Z</time>
      </trkpt>
      <trkpt lat="41.6555750" lon="-8.7879410">
        <ele>22.6</ele>
        <time>2021-05-17T14:13:38Z</time>
      </trkpt>
      <trkpt lat="41.6555920" lon="-8.7879610">
        <ele>22.7</ele>
        <time>2021-05-17T14:13:39Z</time>
      </trkpt>
      <trkpt lat="41.6555980" lon="-8.7879680">
        <ele>22.7</ele>
        <time>2021-05-17T14:13:40Z</time>
      </trkpt>
      <trkpt lat="41.6556050" lon="-8.7879750">
        <ele>22.7</ele>
        <time>2021-05-17T14:13:41Z</time>
      </trkpt>
      <trkpt lat="41.6556140" lon="-8.7879890">
        <ele>22.7</ele>
        <time>2021-05-17T14:13:42Z</time>
      </trkpt>
      <trkpt lat="41.6556290" lon="-8.7879940">
        <ele>22.7</ele>
        <time>2021-05-17T14:13:43Z</time>
      </trkpt>
      <trkpt lat="41.6556400" lon="-8.7880110">
        <ele>22.7</ele>
        <time>2021-05-17T14:13:44Z</time>
      </trkpt>
      <trkpt lat="41.6556530" lon="-8.7880210">
        <ele>22.7</ele>
        <time>2021-05-17T14:13:45Z</time>
      </trkpt>
      <trkpt lat="41.6556670" lon="-8.7880300">
        <ele>22.7</ele>
        <time>2021-05-17T14:13:46Z</time>
      </trkpt>
      <trkpt lat="41.6556830" lon="-8.7880340">
        <ele>22.7</ele>
        <time>2021-05-17T14:13:47Z</time>
      </trkpt>
      <trkpt lat="41.6556950" lon="-8.7880490">
        <ele>22.7</ele>
        <time>2021-05-17T14:13:48Z</time>
      </trkpt>
      <trkpt lat="41.6557090" lon="-8.7880600">
        <ele>22.8</ele>
        <time>2021-05-17T14:13:49Z</time>
      </trkpt>
      <trkpt lat="41.6557250" lon="-8.7880800">
        <ele>22.8</ele>
        <time>2021-05-17T14:13:50Z</time>
      </trkpt>
      <trkpt lat="41.6557320" lon="-8.7880870">
        <ele>22.8</ele>
        <time>2021-05-17T14:13:51Z</time>
      </trkpt>
      <trkpt lat="41.6557380" lon="-8.7880950">
        <ele>22.8</ele>
        <time>2021-05-17T14:13:52Z</time>
      </trkpt>
      <trkpt lat="41.6557460" lon="-8.7881130">
        <ele>22.8</ele>
        <time>2021-05-17T14:13:53Z</time>
      </trkpt>
      <trkpt lat="41.6557590" lon="-8.7881240">
        <ele>22.8</ele>
        <time>2021-05-17T14:13:54Z</time>
      </trkpt>
      <trkpt lat="41.6557720" lon="-8.7881370">
        <ele>22.8</ele>
        <time>2021-05-17T14:13:55Z</time>
      </trkpt>
      <trkpt lat="41.6557810" lon="-8.7881480">
        <ele>22.8</ele>
        <time>2021-05-17T14:13:56Z</time>
      </trkpt>
      <trkpt lat="41.6557870" lon="-8.7881610">
        <ele>22.8</ele>
        <time>2021-05-17T14:13:57Z</time>
      </trkpt>
      <trkpt lat="41.6557970" lon="-8.7881720">
        <ele>22.8</ele>
        <time>2021-05-17T14:13:58Z</time>
      </trkpt>
      <trkpt lat="41.6558050" lon="-8.7881830">
        <ele>22.9</ele>
        <time>2021-05-17T14:13:59Z</time>
      </trkpt>
      <trkpt lat="41.6558240" lon="-8.7881970">
        <ele>22.9</ele>
        <time>2021-05-17T14:14:00Z</time>
      </trkpt>
      <trkpt lat="41.6558310" lon="-8.7882010">
        <ele>22.9</ele>
        <time>2021-05-17T14:14:01Z</time>
      </trkpt>
      <trkpt lat="41.6558390" lon="-8.7882060">
        <ele>22.9</ele>
        <time>2021-05-17T14:14:02Z</time>
      </trkpt>
      <trkpt lat="41.6558520" lon="-8.7882110">
        <ele>22.9</ele>
        <time>2021-05-17T14:14:03Z</time>
      </trkpt>
      <trkpt lat="41.6558660" lon="-8.7882110">
        <ele>22.9</ele>
        <time>2021-05-17T14:14:04Z</time>
      </trkpt>
      <trkpt lat="41.6558840" lon="-8.7882290">
        <ele>23.0</ele>
        <time>2021-05-17T14:14:05Z</time>
      </trkpt>
      <trkpt lat="41.6558910" lon="-8.7882330">
        <ele>23.0</ele>
        <time>2021-05-17T14:14:06Z</time>
      </trkpt>
      <trkpt lat="41.6558990" lon="-8.7882370">
        <ele>23.0</ele>
        <time>2021-05-17T14:14:07Z</time>
      </trkpt>
      <trkpt lat="41.6559190" lon="-8.7882470">
        <ele>23.0</ele>
        <time>2021-05-17T14:14:08Z</time>
      </trkpt>
      <trkpt lat="41.6559260" lon="-8.7882480">
        <ele>23.0</ele>
        <time>2021-05-17T14:14:09Z</time>
      </trkpt>
      <trkpt lat="41.6559340" lon="-8.7882490">
        <ele>23.0</ele>
        <time>2021-05-17T14:14:10Z</time>
      </trkpt>
      <trkpt lat="41.6559470" lon="-8.7882580">
        <ele>23.0</ele>
        <time>2021-05-17T14:14:11Z</time>
      </trkpt>
      <trkpt lat="41.6559620" lon="-8.7882620">
        <ele>23.1</ele>
        <time>2021-05-17T14:14:12Z</time>
      </trkpt>
      <trkpt lat="41.6559760" lon="-8.7882680">
        <ele>23.1</ele>
        <time>2021-05-17T14:14:13Z</time>
      </trkpt>
      <trkpt lat="41.6559890" lon="-8.7882720">
        <ele>23.1</ele>
        <time>2021-05-17T14:14:14Z</time>
      </trkpt>
      <trkpt lat="41.6559990" lon="-8.7882880">
        <ele>23.1</ele>
        <time>2021-05-17T14:14:15Z</time>
      </trkpt>
      <trkpt lat="41.6560110" lon="-8.7882950">
        <ele>23.1</ele>
        <time>2021-05-17T14:14:16Z</time>
      </trkpt>
      <trkpt lat="41.6560280" lon="-8.7883120">
        <ele>23.2</ele>
        <time>2021-05-17T14:14:17Z</time>
      </trkpt>
      <trkpt lat="41.6560340" lon="-8.7883180">
        <ele>23.2</ele>
        <time>2021-05-17T14:14:18Z</time>
      </trkpt>
      <trkpt lat="41.6560400" lon="-8.7883250">
        <ele>23.2</ele>
        <time>2021-05-17T14:14:19Z</time>
      </trkpt>
      <trkpt lat="41.6560550" lon="-8.7883470">
        <ele>23.2</ele>
        <time>2021-05-17T14:14:20Z</time>
      </trkpt>
      <trkpt lat="41.6560630" lon="-8.7883560">
        <ele>23.2</ele>
        <time>2021-05-17T14:14:21Z</time>
      </trkpt>
      <trkpt lat="41.6560700" lon="-8.7883640">
        <ele>23.2</ele>
        <time>2021-05-17T14:14:22Z</time>
      </trkpt>
      <trkpt lat="41.6560840" lon="-8.7883690">
        <ele>23.2</ele>
        <time>2021-05-17T14:14:23Z</time>
      </trkpt>
      <trkpt lat="41.6560960" lon="-8.7883740">
        <ele>23.2</ele>
        <time>2021-05-17T14:14:24Z</time>
      </trkpt>
      <trkpt lat="41.6561070" lon="-8.7883880">
        <ele>23.3</ele>
        <time>2021-05-17T14:14:25Z</time>
      </trkpt>
      <trkpt lat="41.6561210" lon="-8.7883970">
        <ele>23.3</ele>
        <time>2021-05-17T14:14:26Z</time>
      </trkpt>
      <trkpt lat="41.6561310" lon="-8.7884100">
        <ele>23.3</ele>
        <time>2021-05-17T14:14:27Z</time>
      </trkpt>
      <trkpt lat="41.6561440" lon="-8.7884190">
        <ele>23.3</ele>
        <time>2021-05-17T14:14:28Z</time>
      </trkpt>
      <trkpt lat="41.6561590" lon="-8.7884280">
        <ele>23.3</ele>
        <time>2021-05-17T14:14:29Z</time>
      </trkpt>
      <trkpt lat="41.6561700" lon="-8.7884420">
        <ele>23.3</ele>
        <time>2021-05-17T14:14:30Z</time>
      </trkpt>
      <trkpt lat="41.6561800" lon="-8.7884530">
        <ele>23.3</ele>
        <time>2021-05-17T14:14:31Z</time>
      </trkpt>
      <trkpt lat="41.6561880" lon="-8.7884630">
        <ele>23.3</ele>
        <time>2021-05-17T14:14:32Z</time>
      </trkpt>
      <trkpt lat="41.6561990" lon="-8.7884640">
        <ele>23.3</ele>
        <time>2021-05-17T14:14:33Z</time>
      </trkpt>
      <trkpt lat="41.6562030" lon="-8.7884700">
        <ele>23.2</ele>
        <time>2021-05-17T14:14:34Z</time>
      </trkpt>
      <trkpt lat="41.6562070" lon="-8.7884810">
        <ele>23.2</ele>
        <time>2021-05-17T14:14:35Z</time>
      </trkpt>
      <trkpt lat="41.6562140" lon="-8.7884900">
        <ele>23.2</ele>
        <time>2021-05-17T14:14:36Z</time>
      </trkpt>
      <trkpt lat="41.6562150" lon="-8.7885010">
        <ele>23.2</ele>
        <time>2021-05-17T14:14:37Z</time>
      </trkpt>
      <trkpt lat="41.6562190" lon="-8.7885090">
        <ele>23.2</ele>
        <time>2021-05-17T14:14:38Z</time>
      </trkpt>
      <trkpt lat="41.6562250" lon="-8.7885180">
        <ele>23.2</ele>
        <time>2021-05-17T14:14:39Z</time>
      </trkpt>
      <trkpt lat="41.6562290" lon="-8.7885260">
        <ele>23.2</ele>
        <time>2021-05-17T14:14:40Z</time>
      </trkpt>
      <trkpt lat="41.6562340" lon="-8.7885320">
        <ele>23.2</ele>
        <time>2021-05-17T14:14:41Z</time>
      </trkpt>
      <trkpt lat="41.6562400" lon="-8.7885430">
        <ele>23.2</ele>
        <time>2021-05-17T14:14:42Z</time>
      </trkpt>
      <trkpt lat="41.6562340" lon="-8.7885580">
        <ele>23.1</ele>
        <time>2021-05-17T14:14:43Z</time>
      </trkpt>
      <trkpt lat="41.6562290" lon="-8.7885690">
        <ele>23.1</ele>
        <time>2021-05-17T14:14:44Z</time>
      </trkpt>
      <trkpt lat="41.6562370" lon="-8.7885880">
        <ele>23.1</ele>
        <time>2021-05-17T14:14:45Z</time>
      </trkpt>
      <trkpt lat="41.6562360" lon="-8.7886000">
        <ele>23.1</ele>
        <time>2021-05-17T14:14:46Z</time>
      </trkpt>
      <trkpt lat="41.6562430" lon="-8.7886130">
        <ele>23.1</ele>
        <time>2021-05-17T14:14:47Z</time>
      </trkpt>
      <trkpt lat="41.6562440" lon="-8.7886180">
        <ele>23.1</ele>
        <time>2021-05-17T14:14:48Z</time>
      </trkpt>
      <trkpt lat="41.6562530" lon="-8.7886220">
        <ele>23.0</ele>
        <time>2021-05-17T14:14:49Z</time>
      </trkpt>
      <trkpt lat="41.6562630" lon="-8.7886280">
        <ele>23.0</ele>
        <time>2021-05-17T14:14:50Z</time>
      </trkpt>
      <trkpt lat="41.6562720" lon="-8.7886370">
        <ele>23.0</ele>
        <time>2021-05-17T14:14:51Z</time>
      </trkpt>
      <trkpt lat="41.6562830" lon="-8.7886550">
        <ele>23.0</ele>
        <time>2021-05-17T14:14:52Z</time>
      </trkpt>
      <trkpt lat="41.6562900" lon="-8.7886670">
        <ele>22.9</ele>
        <time>2021-05-17T14:14:53Z</time>
      </trkpt>
      <trkpt lat="41.6563020" lon="-8.7886870">
        <ele>22.9</ele>
        <time>2021-05-17T14:14:54Z</time>
      </trkpt>
      <trkpt lat="41.6563130" lon="-8.7886990">
        <ele>22.8</ele>
        <time>2021-05-17T14:14:55Z</time>
      </trkpt>
      <trkpt lat="41.6563220" lon="-8.7887100">
        <ele>22.8</ele>
        <time>2021-05-17T14:14:56Z</time>
      </trkpt>
      <trkpt lat="41.6563290" lon="-8.7887190">
        <ele>22.8</ele>
        <time>2021-05-17T14:14:57Z</time>
      </trkpt>
      <trkpt lat="41.6563350" lon="-8.7887290">
        <ele>22.8</ele>
        <time>2021-05-17T14:14:58Z</time>
      </trkpt>
      <trkpt lat="41.6563420" lon="-8.7887380">
        <ele>22.7</ele>
        <time>2021-05-17T14:14:59Z</time>
      </trkpt>
      <trkpt lat="41.6563450" lon="-8.7887530">
        <ele>22.7</ele>
        <time>2021-05-17T14:15:00Z</time>
      </trkpt>
      <trkpt lat="41.6563520" lon="-8.7887590">
        <ele>22.7</ele>
        <time>2021-05-17T14:15:01Z</time>
      </trkpt>
      <trkpt lat="41.6563650" lon="-8.7887740">
        <ele>22.6</ele>
        <time>2021-05-17T14:15:02Z</time>
      </trkpt>
      <trkpt lat="41.6563790" lon="-8.7887890">
        <ele>22.6</ele>
        <time>2021-05-17T14:15:03Z</time>
      </trkpt>
      <trkpt lat="41.6563850" lon="-8.7888000">
        <ele>22.5</ele>
        <time>2021-05-17T14:15:04Z</time>
      </trkpt>
      <trkpt lat="41.6563920" lon="-8.7888100">
        <ele>22.5</ele>
        <time>2021-05-17T14:15:05Z</time>
      </trkpt>
      <trkpt lat="41.6563990" lon="-8.7888190">
        <ele>22.5</ele>
        <time>2021-05-17T14:15:06Z</time>
      </trkpt>
      <trkpt lat="41.6564130" lon="-8.7888250">
        <ele>22.4</ele>
        <time>2021-05-17T14:15:07Z</time>
      </trkpt>
      <trkpt lat="41.6564210" lon="-8.7888360">
        <ele>22.4</ele>
        <time>2021-05-17T14:15:08Z</time>
      </trkpt>
      <trkpt lat="41.6564310" lon="-8.7888540">
        <ele>22.3</ele>
        <time>2021-05-17T14:15:09Z</time>
      </trkpt>
      <trkpt lat="41.6564420" lon="-8.7888640">
        <ele>22.3</ele>
        <time>2021-05-17T14:15:10Z</time>
      </trkpt>
      <trkpt lat="41.6564480" lon="-8.7888820">
        <ele>22.2</ele>
        <time>2021-05-17T14:15:11Z</time>
      </trkpt>
      <trkpt lat="41.6564540" lon="-8.7888990">
        <ele>22.2</ele>
        <time>2021-05-17T14:15:12Z</time>
      </trkpt>
      <trkpt lat="41.6564630" lon="-8.7889180">
        <ele>22.1</ele>
        <time>2021-05-17T14:15:13Z</time>
      </trkpt>
      <trkpt lat="41.6564720" lon="-8.7889320">
        <ele>22.0</ele>
        <time>2021-05-17T14:15:14Z</time>
      </trkpt>
      <trkpt lat="41.6564810" lon="-8.7889580">
        <ele>21.9</ele>
        <time>2021-05-17T14:15:15Z</time>
      </trkpt>
      <trkpt lat="41.6564900" lon="-8.7889660">
        <ele>21.9</ele>
        <time>2021-05-17T14:15:16Z</time>
      </trkpt>
      <trkpt lat="41.6564970" lon="-8.7889710">
        <ele>21.9</ele>
        <time>2021-05-17T14:15:17Z</time>
      </trkpt>
      <trkpt lat="41.6565000" lon="-8.7889820">
        <ele>21.8</ele>
        <time>2021-05-17T14:15:18Z</time>
      </trkpt>
      <trkpt lat="41.6565060" lon="-8.7890080">
        <ele>21.7</ele>
        <time>2021-05-17T14:15:19Z</time>
      </trkpt>
      <trkpt lat="41.6565220" lon="-8.7890410">
        <ele>21.6</ele>
        <time>2021-05-17T14:15:20Z</time>
      </trkpt>
      <trkpt lat="41.6565310" lon="-8.7890510">
        <ele>21.5</ele>
        <time>2021-05-17T14:15:21Z</time>
      </trkpt>
      <trkpt lat="41.6565460" lon="-8.7890730">
        <ele>21.4</ele>
        <time>2021-05-17T14:15:22Z</time>
      </trkpt>
      <trkpt lat="41.6565540" lon="-8.7890870">
        <ele>21.4</ele>
        <time>2021-05-17T14:15:23Z</time>
      </trkpt>
      <trkpt lat="41.6565610" lon="-8.7891000">
        <ele>21.3</ele>
        <time>2021-05-17T14:15:24Z</time>
      </trkpt>
      <trkpt lat="41.6565840" lon="-8.7891340">
        <ele>21.1</ele>
        <time>2021-05-17T14:15:25Z</time>
      </trkpt>
      <trkpt lat="41.6565910" lon="-8.7891410">
        <ele>21.1</ele>
        <time>2021-05-17T14:15:26Z</time>
      </trkpt>
      <trkpt lat="41.6566050" lon="-8.7891520">
        <ele>21.0</ele>
        <time>2021-05-17T14:15:27Z</time>
      </trkpt>
      <trkpt lat="41.6566170" lon="-8.7891690">
        <ele>20.9</ele>
        <time>2021-05-17T14:15:28Z</time>
      </trkpt>
      <trkpt lat="41.6566290" lon="-8.7891850">
        <ele>20.9</ele>
        <time>2021-05-17T14:15:29Z</time>
      </trkpt>
      <trkpt lat="41.6566390" lon="-8.7892030">
        <ele>20.8</ele>
        <time>2021-05-17T14:15:30Z</time>
      </trkpt>
      <trkpt lat="41.6566490" lon="-8.7892190">
        <ele>20.7</ele>
        <time>2021-05-17T14:15:31Z</time>
      </trkpt>
      <trkpt lat="41.6566560" lon="-8.7892300">
        <ele>20.6</ele>
        <time>2021-05-17T14:15:32Z</time>
      </trkpt>
      <trkpt lat="41.6566570" lon="-8.7892370">
        <ele>20.6</ele>
        <time>2021-05-17T14:15:33Z</time>
      </trkpt>
      <trkpt lat="41.6566550" lon="-8.7892490">
        <ele>20.6</ele>
        <time>2021-05-17T14:15:34Z</time>
      </trkpt>
      <trkpt lat="41.6566570" lon="-8.7892590">
        <ele>20.5</ele>
        <time>2021-05-17T14:15:35Z</time>
      </trkpt>
      <trkpt lat="41.6566590" lon="-8.7892710">
        <ele>20.5</ele>
        <time>2021-05-17T14:15:36Z</time>
      </trkpt>
      <trkpt lat="41.6566650" lon="-8.7892830">
        <ele>20.4</ele>
        <time>2021-05-17T14:15:37Z</time>
      </trkpt>
      <trkpt lat="41.6566710" lon="-8.7892960">
        <ele>20.3</ele>
        <time>2021-05-17T14:15:38Z</time>
      </trkpt>
      <trkpt lat="41.6566760" lon="-8.7893100">
        <ele>20.3</ele>
        <time>2021-05-17T14:15:39Z</time>
      </trkpt>
      <trkpt lat="41.6566810" lon="-8.7893210">
        <ele>20.2</ele>
        <time>2021-05-17T14:15:40Z</time>
      </trkpt>
      <trkpt lat="41.6566840" lon="-8.7893380">
        <ele>20.2</ele>
        <time>2021-05-17T14:15:41Z</time>
      </trkpt>
      <trkpt lat="41.6566880" lon="-8.7893510">
        <ele>20.1</ele>
        <time>2021-05-17T14:15:42Z</time>
      </trkpt>
      <trkpt lat="41.6566950" lon="-8.7893570">
        <ele>20.1</ele>
        <time>2021-05-17T14:15:43Z</time>
      </trkpt>
      <trkpt lat="41.6567130" lon="-8.7893820">
        <ele>20.0</ele>
        <time>2021-05-17T14:15:44Z</time>
      </trkpt>
      <trkpt lat="41.6567150" lon="-8.7893930">
        <ele>19.9</ele>
        <time>2021-05-17T14:15:45Z</time>
      </trkpt>
      <trkpt lat="41.6567170" lon="-8.7894050">
        <ele>19.9</ele>
        <time>2021-05-17T14:15:46Z</time>
      </trkpt>
      <trkpt lat="41.6567160" lon="-8.7894130">
        <ele>19.9</ele>
        <time>2021-05-17T14:15:47Z</time>
      </trkpt>
      <trkpt lat="41.6567230" lon="-8.7894300">
        <ele>19.8</ele>
        <time>2021-05-17T14:15:48Z</time>
      </trkpt>
      <trkpt lat="41.6567270" lon="-8.7894460">
        <ele>19.7</ele>
        <time>2021-05-17T14:15:49Z</time>
      </trkpt>
      <trkpt lat="41.6567290" lon="-8.7894770">
        <ele>19.6</ele>
        <time>2021-05-17T14:15:50Z</time>
      </trkpt>
      <trkpt lat="41.6567280" lon="-8.7894870">
        <ele>19.6</ele>
        <time>2021-05-17T14:15:51Z</time>
      </trkpt>
      <trkpt lat="41.6567260" lon="-8.7894970">
        <ele>19.6</ele>
        <time>2021-05-17T14:15:52Z</time>
      </trkpt>
      <trkpt lat="41.6567250" lon="-8.7895170">
        <ele>19.5</ele>
        <time>2021-05-17T14:15:53Z</time>
      </trkpt>
      <trkpt lat="41.6567240" lon="-8.7895340">
        <ele>19.5</ele>
        <time>2021-05-17T14:15:54Z</time>
      </trkpt>
      <trkpt lat="41.6567200" lon="-8.7895530">
        <ele>19.4</ele>
        <time>2021-05-17T14:15:55Z</time>
      </trkpt>
      <trkpt lat="41.6567140" lon="-8.7895750">
        <ele>19.4</ele>
        <time>2021-05-17T14:15:56Z</time>
      </trkpt>
      <trkpt lat="41.6567120" lon="-8.7896020">
        <ele>19.3</ele>
        <time>2021-05-17T14:15:57Z</time>
      </trkpt>
      <trkpt lat="41.6567110" lon="-8.7896170">
        <ele>19.3</ele>
        <time>2021-05-17T14:15:58Z</time>
      </trkpt>
      <trkpt lat="41.6567100" lon="-8.7896310">
        <ele>19.3</ele>
        <time>2021-05-17T14:15:59Z</time>
      </trkpt>
      <trkpt lat="41.6567180" lon="-8.7896730">
        <ele>19.2</ele>
        <time>2021-05-17T14:16:00Z</time>
      </trkpt>
      <trkpt lat="41.6567150" lon="-8.7896830">
        <ele>19.2</ele>
        <time>2021-05-17T14:16:01Z</time>
      </trkpt>
      <trkpt lat="41.6567090" lon="-8.7897230">
        <ele>19.1</ele>
        <time>2021-05-17T14:16:02Z</time>
      </trkpt>
      <trkpt lat="41.6567080" lon="-8.7897350">
        <ele>19.1</ele>
        <time>2021-05-17T14:16:03Z</time>
      </trkpt>
      <trkpt lat="41.6567070" lon="-8.7897550">
        <ele>19.0</ele>
        <time>2021-05-17T14:16:04Z</time>
      </trkpt>
      <trkpt lat="41.6567070" lon="-8.7897770">
        <ele>19.0</ele>
        <time>2021-05-17T14:16:05Z</time>
      </trkpt>
      <trkpt lat="41.6567010" lon="-8.7898000">
        <ele>18.9</ele>
        <time>2021-05-17T14:16:06Z</time>
      </trkpt>
      <trkpt lat="41.6567120" lon="-8.7898160">
        <ele>18.9</ele>
        <time>2021-05-17T14:16:07Z</time>
      </trkpt>
      <trkpt lat="41.6567050" lon="-8.7898390">
        <ele>18.9</ele>
        <time>2021-05-17T14:16:08Z</time>
      </trkpt>
      <trkpt lat="41.6567140" lon="-8.7898620">
        <ele>18.8</ele>
        <time>2021-05-17T14:16:09Z</time>
      </trkpt>
      <trkpt lat="41.6567190" lon="-8.7898790">
        <ele>18.8</ele>
        <time>2021-05-17T14:16:10Z</time>
      </trkpt>
      <trkpt lat="41.6567200" lon="-8.7898990">
        <ele>18.8</ele>
        <time>2021-05-17T14:16:11Z</time>
      </trkpt>
      <trkpt lat="41.6567200" lon="-8.7899180">
        <ele>18.8</ele>
        <time>2021-05-17T14:16:12Z</time>
      </trkpt>
      <trkpt lat="41.6567250" lon="-8.7899370">
        <ele>18.7</ele>
        <time>2021-05-17T14:16:13Z</time>
      </trkpt>
      <trkpt lat="41.6567290" lon="-8.7899650">
        <ele>18.7</ele>
        <time>2021-05-17T14:16:14Z</time>
      </trkpt>
      <trkpt lat="41.6567320" lon="-8.7899770">
        <ele>18.7</ele>
        <time>2021-05-17T14:16:15Z</time>
      </trkpt>
      <trkpt lat="41.6567350" lon="-8.7899890">
        <ele>18.7</ele>
        <time>2021-05-17T14:16:16Z</time>
      </trkpt>
      <trkpt lat="41.6567520" lon="-8.7900080">
        <ele>18.6</ele>
        <time>2021-05-17T14:16:17Z</time>
      </trkpt>
      <trkpt lat="41.6567590" lon="-8.7900150">
        <ele>18.6</ele>
        <time>2021-05-17T14:16:18Z</time>
      </trkpt>
      <trkpt lat="41.6567650" lon="-8.7900220">
        <ele>18.6</ele>
        <time>2021-05-17T14:16:19Z</time>
      </trkpt>
      <trkpt lat="41.6567680" lon="-8.7900340">
        <ele>18.6</ele>
        <time>2021-05-17T14:16:20Z</time>
      </trkpt>
      <trkpt lat="41.6567740" lon="-8.7900460">
        <ele>18.6</ele>
        <time>2021-05-17T14:16:21Z</time>
      </trkpt>
      <trkpt lat="41.6567860" lon="-8.7900560">
        <ele>18.6</ele>
        <time>2021-05-17T14:16:22Z</time>
      </trkpt>
      <trkpt lat="41.6567960" lon="-8.7900660">
        <ele>18.6</ele>
        <time>2021-05-17T14:16:23Z</time>
      </trkpt>
      <trkpt lat="41.6568020" lon="-8.7900700">
        <ele>18.6</ele>
        <time>2021-05-17T14:16:24Z</time>
      </trkpt>
      <trkpt lat="41.6568080" lon="-8.7900750">
        <ele>18.6</ele>
        <time>2021-05-17T14:16:25Z</time>
      </trkpt>
      <trkpt lat="41.6568130" lon="-8.7900870">
        <ele>18.6</ele>
        <time>2021-05-17T14:16:26Z</time>
      </trkpt>
      <trkpt lat="41.6568250" lon="-8.7901000">
        <ele>18.5</ele>
        <time>2021-05-17T14:16:27Z</time>
      </trkpt>
      <trkpt lat="41.6568390" lon="-8.7901130">
        <ele>18.5</ele>
        <time>2021-05-17T14:16:28Z</time>
      </trkpt>
      <trkpt lat="41.6568540" lon="-8.7901220">
        <ele>18.5</ele>
        <time>2021-05-17T14:16:29Z</time>
      </trkpt>
      <trkpt lat="41.6568650" lon="-8.7901320">
        <ele>18.5</ele>
        <time>2021-05-17T14:16:30Z</time>
      </trkpt>
      <trkpt lat="41.6568780" lon="-8.7901440">
        <ele>18.5</ele>
        <time>2021-05-17T14:16:31Z</time>
      </trkpt>
      <trkpt lat="41.6568930" lon="-8.7901540">
        <ele>18.5</ele>
        <time>2021-05-17T14:16:32Z</time>
      </trkpt>
      <trkpt lat="41.6569080" lon="-8.7901630">
        <ele>18.5</ele>
        <time>2021-05-17T14:16:33Z</time>
      </trkpt>
      <trkpt lat="41.6569200" lon="-8.7901770">
        <ele>18.5</ele>
        <time>2021-05-17T14:16:34Z</time>
      </trkpt>
      <trkpt lat="41.6569340" lon="-8.7901890">
        <ele>18.5</ele>
        <time>2021-05-17T14:16:35Z</time>
      </trkpt>
      <trkpt lat="41.6569440" lon="-8.7901970">
        <ele>18.5</ele>
        <time>2021-05-17T14:16:36Z</time>
      </trkpt>
      <trkpt lat="41.6569560" lon="-8.7902070">
        <ele>18.5</ele>
        <time>2021-05-17T14:16:37Z</time>
      </trkpt>
      <trkpt lat="41.6569680" lon="-8.7902200">
        <ele>18.5</ele>
        <time>2021-05-17T14:16:38Z</time>
      </trkpt>
      <trkpt lat="41.6569800" lon="-8.7902370">
        <ele>18.5</ele>
        <time>2021-05-17T14:16:39Z</time>
      </trkpt>
      <trkpt lat="41.6569940" lon="-8.7902430">
        <ele>18.5</ele>
        <time>2021-05-17T14:16:40Z</time>
      </trkpt>
      <trkpt lat="41.6570130" lon="-8.7902430">
        <ele>18.5</ele>
        <time>2021-05-17T14:16:41Z</time>
      </trkpt>
      <trkpt lat="41.6570250" lon="-8.7902420">
        <ele>18.5</ele>
        <time>2021-05-17T14:16:42Z</time>
      </trkpt>
      <trkpt lat="41.6570390" lon="-8.7902440">
        <ele>18.5</ele>
        <time>2021-05-17T14:16:43Z</time>
      </trkpt>
      <trkpt lat="41.6570530" lon="-8.7902420">
        <ele>18.5</ele>
        <time>2021-05-17T14:16:44Z</time>
      </trkpt>
      <trkpt lat="41.6570670" lon="-8.7902380">
        <ele>18.5</ele>
        <time>2021-05-17T14:16:45Z</time>
      </trkpt>
      <trkpt lat="41.6570810" lon="-8.7902250">
        <ele>18.6</ele>
        <time>2021-05-17T14:16:46Z</time>
      </trkpt>
      <trkpt lat="41.6570950" lon="-8.7902180">
        <ele>18.6</ele>
        <time>2021-05-17T14:16:47Z</time>
      </trkpt>
      <trkpt lat="41.6571080" lon="-8.7902080">
        <ele>18.6</ele>
        <time>2021-05-17T14:16:48Z</time>
      </trkpt>
      <trkpt lat="41.6571210" lon="-8.7901950">
        <ele>18.6</ele>
        <time>2021-05-17T14:16:49Z</time>
      </trkpt>
      <trkpt lat="41.6571370" lon="-8.7901880">
        <ele>18.6</ele>
        <time>2021-05-17T14:16:50Z</time>
      </trkpt>
      <trkpt lat="41.6571550" lon="-8.7901770">
        <ele>18.6</ele>
        <time>2021-05-17T14:16:51Z</time>
      </trkpt>
      <trkpt lat="41.6571670" lon="-8.7901750">
        <ele>18.6</ele>
        <time>2021-05-17T14:16:52Z</time>
      </trkpt>
      <trkpt lat="41.6571810" lon="-8.7901670">
        <ele>18.6</ele>
        <time>2021-05-17T14:16:53Z</time>
      </trkpt>
      <trkpt lat="41.6571980" lon="-8.7901540">
        <ele>18.6</ele>
        <time>2021-05-17T14:16:54Z</time>
      </trkpt>
      <trkpt lat="41.6572140" lon="-8.7901530">
        <ele>18.6</ele>
        <time>2021-05-17T14:16:55Z</time>
      </trkpt>
      <trkpt lat="41.6572290" lon="-8.7901450">
        <ele>18.7</ele>
        <time>2021-05-17T14:16:56Z</time>
      </trkpt>
      <trkpt lat="41.6572410" lon="-8.7901330">
        <ele>18.7</ele>
        <time>2021-05-17T14:16:57Z</time>
      </trkpt>
      <trkpt lat="41.6572570" lon="-8.7901210">
        <ele>18.7</ele>
        <time>2021-05-17T14:16:58Z</time>
      </trkpt>
      <trkpt lat="41.6572710" lon="-8.7901100">
        <ele>18.7</ele>
        <time>2021-05-17T14:16:59Z</time>
      </trkpt>
      <trkpt lat="41.6572820" lon="-8.7900950">
        <ele>18.7</ele>
        <time>2021-05-17T14:17:00Z</time>
      </trkpt>
      <trkpt lat="41.6572960" lon="-8.7900880">
        <ele>18.7</ele>
        <time>2021-05-17T14:17:01Z</time>
      </trkpt>
      <trkpt lat="41.6573070" lon="-8.7900710">
        <ele>18.7</ele>
        <time>2021-05-17T14:17:02Z</time>
      </trkpt>
      <trkpt lat="41.6573210" lon="-8.7900640">
        <ele>18.7</ele>
        <time>2021-05-17T14:17:03Z</time>
      </trkpt>
      <trkpt lat="41.6573340" lon="-8.7900570">
        <ele>18.7</ele>
        <time>2021-05-17T14:17:04Z</time>
      </trkpt>
      <trkpt lat="41.6573460" lon="-8.7900510">
        <ele>18.7</ele>
        <time>2021-05-17T14:17:05Z</time>
      </trkpt>
      <trkpt lat="41.6573560" lon="-8.7900330">
        <ele>18.7</ele>
        <time>2021-05-17T14:17:06Z</time>
      </trkpt>
      <trkpt lat="41.6573680" lon="-8.7900230">
        <ele>18.6</ele>
        <time>2021-05-17T14:17:07Z</time>
      </trkpt>
      <trkpt lat="41.6573810" lon="-8.7900110">
        <ele>18.6</ele>
        <time>2021-05-17T14:17:08Z</time>
      </trkpt>
      <trkpt lat="41.6573930" lon="-8.7900010">
        <ele>18.6</ele>
        <time>2021-05-17T14:17:09Z</time>
      </trkpt>
      <trkpt lat="41.6574080" lon="-8.7900000">
        <ele>18.6</ele>
        <time>2021-05-17T14:17:10Z</time>
      </trkpt>
      <trkpt lat="41.6574210" lon="-8.7899930">
        <ele>18.6</ele>
        <time>2021-05-17T14:17:11Z</time>
      </trkpt>
      <trkpt lat="41.6574360" lon="-8.7899890">
        <ele>18.5</ele>
        <time>2021-05-17T14:17:12Z</time>
      </trkpt>
      <trkpt lat="41.6574500" lon="-8.7899880">
        <ele>18.5</ele>
        <time>2021-05-17T14:17:13Z</time>
      </trkpt>
      <trkpt lat="41.6574640" lon="-8.7899820">
        <ele>18.5</ele>
        <time>2021-05-17T14:17:14Z</time>
      </trkpt>
      <trkpt lat="41.6574780" lon="-8.7899740">
        <ele>18.5</ele>
        <time>2021-05-17T14:17:15Z</time>
      </trkpt>
      <trkpt lat="41.6574900" lon="-8.7899680">
        <ele>18.4</ele>
        <time>2021-05-17T14:17:16Z</time>
      </trkpt>
      <trkpt lat="41.6575030" lon="-8.7899580">
        <ele>18.4</ele>
        <time>2021-05-17T14:17:17Z</time>
      </trkpt>
      <trkpt lat="41.6575170" lon="-8.7899570">
        <ele>18.4</ele>
        <time>2021-05-17T14:17:18Z</time>
      </trkpt>
      <trkpt lat="41.6575280" lon="-8.7899410">
        <ele>18.3</ele>
        <time>2021-05-17T14:17:19Z</time>
      </trkpt>
      <trkpt lat="41.6575440" lon="-8.7899400">
        <ele>18.3</ele>
        <time>2021-05-17T14:17:20Z</time>
      </trkpt>
      <trkpt lat="41.6575590" lon="-8.7899380">
        <ele>18.3</ele>
        <time>2021-05-17T14:17:21Z</time>
      </trkpt>
      <trkpt lat="41.6575720" lon="-8.7899240">
        <ele>18.2</ele>
        <time>2021-05-17T14:17:22Z</time>
      </trkpt>
      <trkpt lat="41.6575850" lon="-8.7899180">
        <ele>18.2</ele>
        <time>2021-05-17T14:17:23Z</time>
      </trkpt>
      <trkpt lat="41.6576010" lon="-8.7899210">
        <ele>18.2</ele>
        <time>2021-05-17T14:17:24Z</time>
      </trkpt>
      <trkpt lat="41.6576160" lon="-8.7899170">
        <ele>18.1</ele>
        <time>2021-05-17T14:17:25Z</time>
      </trkpt>
      <trkpt lat="41.6576320" lon="-8.7899190">
        <ele>18.1</ele>
        <time>2021-05-17T14:17:26Z</time>
      </trkpt>
      <trkpt lat="41.6576480" lon="-8.7899180">
        <ele>18.1</ele>
        <time>2021-05-17T14:17:27Z</time>
      </trkpt>
      <trkpt lat="41.6576630" lon="-8.7899170">
        <ele>18.0</ele>
        <time>2021-05-17T14:17:28Z</time>
      </trkpt>
      <trkpt lat="41.6576780" lon="-8.7899170">
        <ele>18.0</ele>
        <time>2021-05-17T14:17:29Z</time>
      </trkpt>
      <trkpt lat="41.6576930" lon="-8.7899190">
        <ele>18.0</ele>
        <time>2021-05-17T14:17:30Z</time>
      </trkpt>
      <trkpt lat="41.6577130" lon="-8.7899190">
        <ele>17.9</ele>
        <time>2021-05-17T14:17:31Z</time>
      </trkpt>
      <trkpt lat="41.6577220" lon="-8.7899220">
        <ele>17.9</ele>
        <time>2021-05-17T14:17:32Z</time>
      </trkpt>
      <trkpt lat="41.6577310" lon="-8.7899240">
        <ele>17.9</ele>
        <time>2021-05-17T14:17:33Z</time>
      </trkpt>
      <trkpt lat="41.6577440" lon="-8.7899260">
        <ele>17.9</ele>
        <time>2021-05-17T14:17:34Z</time>
      </trkpt>
      <trkpt lat="41.6577550" lon="-8.7899310">
        <ele>17.8</ele>
        <time>2021-05-17T14:17:35Z</time>
      </trkpt>
      <trkpt lat="41.6577660" lon="-8.7899280">
        <ele>17.8</ele>
        <time>2021-05-17T14:17:36Z</time>
      </trkpt>
      <trkpt lat="41.6577750" lon="-8.7899310">
        <ele>17.8</ele>
        <time>2021-05-17T14:17:37Z</time>
      </trkpt>
      <trkpt lat="41.6577830" lon="-8.7899340">
        <ele>17.8</ele>
        <time>2021-05-17T14:17:38Z</time>
      </trkpt>
      <trkpt lat="41.6577840" lon="-8.7899340">
        <ele>17.8</ele>
        <time>2021-05-17T14:17:39Z</time>
      </trkpt>
      <trkpt lat="41.6577870" lon="-8.7899360">
        <ele>17.8</ele>
        <time>2021-05-17T14:17:40Z</time>
      </trkpt>
      <trkpt lat="41.6577910" lon="-8.7899390">
        <ele>17.8</ele>
        <time>2021-05-17T14:17:41Z</time>
      </trkpt>
      <trkpt lat="41.6577980" lon="-8.7899460">
        <ele>17.8</ele>
        <time>2021-05-17T14:17:42Z</time>
      </trkpt>
      <trkpt lat="41.6578050" lon="-8.7899510">
        <ele>17.7</ele>
        <time>2021-05-17T14:17:43Z</time>
      </trkpt>
      <trkpt lat="41.6578140" lon="-8.7899520">
        <ele>17.7</ele>
        <time>2021-05-17T14:17:44Z</time>
      </trkpt>
      <trkpt lat="41.6578160" lon="-8.7899510">
        <ele>17.7</ele>
        <time>2021-05-17T14:17:45Z</time>
      </trkpt>
      <trkpt lat="41.6578320" lon="-8.7899530">
        <ele>17.7</ele>
        <time>2021-05-17T14:17:46Z</time>
      </trkpt>
      <trkpt lat="41.6578400" lon="-8.7899590">
        <ele>17.7</ele>
        <time>2021-05-17T14:17:47Z</time>
      </trkpt>
      <trkpt lat="41.6578460" lon="-8.7899680">
        <ele>17.7</ele>
        <time>2021-05-17T14:17:48Z</time>
      </trkpt>
      <trkpt lat="41.6578530" lon="-8.7899760">
        <ele>17.6</ele>
        <time>2021-05-17T14:17:49Z</time>
      </trkpt>
      <trkpt lat="41.6578610" lon="-8.7899780">
        <ele>17.6</ele>
        <time>2021-05-17T14:17:50Z</time>
      </trkpt>
      <trkpt lat="41.6578750" lon="-8.7899790">
        <ele>17.6</ele>
        <time>2021-05-17T14:17:51Z</time>
      </trkpt>
      <trkpt lat="41.6578870" lon="-8.7899790">
        <ele>17.5</ele>
        <time>2021-05-17T14:17:52Z</time>
      </trkpt>
      <trkpt lat="41.6579050" lon="-8.7899810">
        <ele>17.5</ele>
        <time>2021-05-17T14:17:53Z</time>
      </trkpt>
      <trkpt lat="41.6579150" lon="-8.7899790">
        <ele>17.5</ele>
        <time>2021-05-17T14:17:54Z</time>
      </trkpt>
      <trkpt lat="41.6579240" lon="-8.7899770">
        <ele>17.4</ele>
        <time>2021-05-17T14:17:55Z</time>
      </trkpt>
      <trkpt lat="41.6579340" lon="-8.7899760">
        <ele>17.4</ele>
        <time>2021-05-17T14:17:56Z</time>
      </trkpt>
      <trkpt lat="41.6579500" lon="-8.7899710">
        <ele>17.4</ele>
        <time>2021-05-17T14:17:57Z</time>
      </trkpt>
      <trkpt lat="41.6579600" lon="-8.7899730">
        <ele>17.3</ele>
        <time>2021-05-17T14:17:58Z</time>
      </trkpt>
      <trkpt lat="41.6579600" lon="-8.7899720">
        <ele>17.3</ele>
        <time>2021-05-17T14:17:59Z</time>
      </trkpt>
      <trkpt lat="41.6579660" lon="-8.7899710">
        <ele>17.3</ele>
        <time>2021-05-17T14:18:00Z</time>
      </trkpt>
      <trkpt lat="41.6579800" lon="-8.7899700">
        <ele>17.3</ele>
        <time>2021-05-17T14:18:01Z</time>
      </trkpt>
      <trkpt lat="41.6579890" lon="-8.7899700">
        <ele>17.2</ele>
        <time>2021-05-17T14:18:02Z</time>
      </trkpt>
      <trkpt lat="41.6580030" lon="-8.7899740">
        <ele>17.2</ele>
        <time>2021-05-17T14:18:03Z</time>
      </trkpt>
      <trkpt lat="41.6580180" lon="-8.7899780">
        <ele>17.2</ele>
        <time>2021-05-17T14:18:04Z</time>
      </trkpt>
      <trkpt lat="41.6580340" lon="-8.7899760">
        <ele>17.1</ele>
        <time>2021-05-17T14:18:05Z</time>
      </trkpt>
      <trkpt lat="41.6580540" lon="-8.7899750">
        <ele>17.1</ele>
        <time>2021-05-17T14:18:06Z</time>
      </trkpt>
      <trkpt lat="41.6580760" lon="-8.7899710">
        <ele>17.0</ele>
        <time>2021-05-17T14:18:07Z</time>
      </trkpt>
      <trkpt lat="41.6580840" lon="-8.7899710">
        <ele>17.0</ele>
        <time>2021-05-17T14:18:08Z</time>
      </trkpt>
      <trkpt lat="41.6580920" lon="-8.7899700">
        <ele>17.0</ele>
        <time>2021-05-17T14:18:09Z</time>
      </trkpt>
      <trkpt lat="41.6581070" lon="-8.7899670">
        <ele>16.9</ele>
        <time>2021-05-17T14:18:10Z</time>
      </trkpt>
      <trkpt lat="41.6581160" lon="-8.7899680">
        <ele>16.9</ele>
        <time>2021-05-17T14:18:11Z</time>
      </trkpt>
      <trkpt lat="41.6581240" lon="-8.7899680">
        <ele>16.9</ele>
        <time>2021-05-17T14:18:12Z</time>
      </trkpt>
      <trkpt lat="41.6581320" lon="-8.7899690">
        <ele>16.8</ele>
        <time>2021-05-17T14:18:13Z</time>
      </trkpt>
      <trkpt lat="41.6581520" lon="-8.7899620">
        <ele>16.8</ele>
        <time>2021-05-17T14:18:14Z</time>
      </trkpt>
      <trkpt lat="41.6581590" lon="-8.7899570">
        <ele>16.8</ele>
        <time>2021-05-17T14:18:15Z</time>
      </trkpt>
      <trkpt lat="41.6581670" lon="-8.7899530">
        <ele>16.8</ele>
        <time>2021-05-17T14:18:16Z</time>
      </trkpt>
      <trkpt lat="41.6581870" lon="-8.7899490">
        <ele>16.7</ele>
        <time>2021-05-17T14:18:17Z</time>
      </trkpt>
      <trkpt lat="41.6581960" lon="-8.7899440">
        <ele>16.7</ele>
        <time>2021-05-17T14:18:18Z</time>
      </trkpt>
      <trkpt lat="41.6582050" lon="-8.7899400">
        <ele>16.7</ele>
        <time>2021-05-17T14:18:19Z</time>
      </trkpt>
      <trkpt lat="41.6582240" lon="-8.7899310">
        <ele>16.6</ele>
        <time>2021-05-17T14:18:20Z</time>
      </trkpt>
      <trkpt lat="41.6582310" lon="-8.7899260">
        <ele>16.6</ele>
        <time>2021-05-17T14:18:21Z</time>
      </trkpt>
      <trkpt lat="41.6582390" lon="-8.7899220">
        <ele>16.6</ele>
        <time>2021-05-17T14:18:22Z</time>
      </trkpt>
      <trkpt lat="41.6582530" lon="-8.7899120">
        <ele>16.5</ele>
        <time>2021-05-17T14:18:23Z</time>
      </trkpt>
      <trkpt lat="41.6582740" lon="-8.7899060">
        <ele>16.5</ele>
        <time>2021-05-17T14:18:24Z</time>
      </trkpt>
      <trkpt lat="41.6582910" lon="-8.7899030">
        <ele>16.5</ele>
        <time>2021-05-17T14:18:25Z</time>
      </trkpt>
      <trkpt lat="41.6583010" lon="-8.7898980">
        <ele>16.4</ele>
        <time>2021-05-17T14:18:26Z</time>
      </trkpt>
      <trkpt lat="41.6583290" lon="-8.7898810">
        <ele>16.4</ele>
        <time>2021-05-17T14:18:27Z</time>
      </trkpt>
      <trkpt lat="41.6583380" lon="-8.7898720">
        <ele>16.4</ele>
        <time>2021-05-17T14:18:28Z</time>
      </trkpt>
      <trkpt lat="41.6583650" lon="-8.7898660">
        <ele>16.3</ele>
        <time>2021-05-17T14:18:29Z</time>
      </trkpt>
      <trkpt lat="41.6583740" lon="-8.7898610">
        <ele>16.3</ele>
        <time>2021-05-17T14:18:30Z</time>
      </trkpt>
      <trkpt lat="41.6584000" lon="-8.7898450">
        <ele>16.2</ele>
        <time>2021-05-17T14:18:31Z</time>
      </trkpt>
      <trkpt lat="41.6584080" lon="-8.7898380">
        <ele>16.2</ele>
        <time>2021-05-17T14:18:32Z</time>
      </trkpt>
      <trkpt lat="41.6584220" lon="-8.7898280">
        <ele>16.2</ele>
        <time>2021-05-17T14:18:33Z</time>
      </trkpt>
      <trkpt lat="41.6584370" lon="-8.7898170">
        <ele>16.2</ele>
        <time>2021-05-17T14:18:34Z</time>
      </trkpt>
      <trkpt lat="41.6584490" lon="-8.7898120">
        <ele>16.1</ele>
        <time>2021-05-17T14:18:35Z</time>
      </trkpt>
      <trkpt lat="41.6584660" lon="-8.7898070">
        <ele>16.1</ele>
        <time>2021-05-17T14:18:36Z</time>
      </trkpt>
      <trkpt lat="41.6584790" lon="-8.7897980">
        <ele>16.1</ele>
        <time>2021-05-17T14:18:37Z</time>
      </trkpt>
      <trkpt lat="41.6584950" lon="-8.7897940">
        <ele>16.1</ele>
        <time>2021-05-17T14:18:38Z</time>
      </trkpt>
      <trkpt lat="41.6585110" lon="-8.7897930">
        <ele>16.0</ele>
        <time>2021-05-17T14:18:39Z</time>
      </trkpt>
      <trkpt lat="41.6585270" lon="-8.7897850">
        <ele>16.0</ele>
        <time>2021-05-17T14:18:40Z</time>
      </trkpt>
      <trkpt lat="41.6585410" lon="-8.7897780">
        <ele>16.0</ele>
        <time>2021-05-17T14:18:41Z</time>
      </trkpt>
      <trkpt lat="41.6585560" lon="-8.7897700">
        <ele>16.0</ele>
        <time>2021-05-17T14:18:42Z</time>
      </trkpt>
      <trkpt lat="41.6585700" lon="-8.7897620">
        <ele>16.0</ele>
        <time>2021-05-17T14:18:43Z</time>
      </trkpt>
      <trkpt lat="41.6585820" lon="-8.7897450">
        <ele>15.9</ele>
        <time>2021-05-17T14:18:44Z</time>
      </trkpt>
      <trkpt lat="41.6585960" lon="-8.7897380">
        <ele>15.9</ele>
        <time>2021-05-17T14:18:45Z</time>
      </trkpt>
      <trkpt lat="41.6586100" lon="-8.7897270">
        <ele>15.9</ele>
        <time>2021-05-17T14:18:46Z</time>
      </trkpt>
      <trkpt lat="41.6586250" lon="-8.7897260">
        <ele>15.9</ele>
        <time>2021-05-17T14:18:47Z</time>
      </trkpt>
      <trkpt lat="41.6586390" lon="-8.7897230">
        <ele>15.9</ele>
        <time>2021-05-17T14:18:48Z</time>
      </trkpt>
      <trkpt lat="41.6586510" lon="-8.7897140">
        <ele>15.8</ele>
        <time>2021-05-17T14:18:49Z</time>
      </trkpt>
      <trkpt lat="41.6586640" lon="-8.7897090">
        <ele>15.8</ele>
        <time>2021-05-17T14:18:50Z</time>
      </trkpt>
      <trkpt lat="41.6586770" lon="-8.7897070">
        <ele>15.8</ele>
        <time>2021-05-17T14:18:51Z</time>
      </trkpt>
      <trkpt lat="41.6586910" lon="-8.7897060">
        <ele>15.8</ele>
        <time>2021-05-17T14:18:52Z</time>
      </trkpt>
      <trkpt lat="41.6587110" lon="-8.7896960">
        <ele>15.8</ele>
        <time>2021-05-17T14:18:53Z</time>
      </trkpt>
      <trkpt lat="41.6587190" lon="-8.7896890">
        <ele>15.8</ele>
        <time>2021-05-17T14:18:54Z</time>
      </trkpt>
      <trkpt lat="41.6587260" lon="-8.7896820">
        <ele>15.7</ele>
        <time>2021-05-17T14:18:55Z</time>
      </trkpt>
      <trkpt lat="41.6587370" lon="-8.7896760">
        <ele>15.7</ele>
        <time>2021-05-17T14:18:56Z</time>
      </trkpt>
      <trkpt lat="41.6587470" lon="-8.7896700">
        <ele>15.7</ele>
        <time>2021-05-17T14:18:57Z</time>
      </trkpt>
      <trkpt lat="41.6587590" lon="-8.7896640">
        <ele>15.7</ele>
        <time>2021-05-17T14:18:58Z</time>
      </trkpt>
      <trkpt lat="41.6587770" lon="-8.7896460">
        <ele>15.7</ele>
        <time>2021-05-17T14:18:59Z</time>
      </trkpt>
      <trkpt lat="41.6587850" lon="-8.7896410">
        <ele>15.7</ele>
        <time>2021-05-17T14:19:00Z</time>
      </trkpt>
      <trkpt lat="41.6587920" lon="-8.7896350">
        <ele>15.7</ele>
        <time>2021-05-17T14:19:01Z</time>
      </trkpt>
      <trkpt lat="41.6588070" lon="-8.7896130">
        <ele>15.6</ele>
        <time>2021-05-17T14:19:02Z</time>
      </trkpt>
      <trkpt lat="41.6588150" lon="-8.7896050">
        <ele>15.6</ele>
        <time>2021-05-17T14:19:03Z</time>
      </trkpt>
      <trkpt lat="41.6588220" lon="-8.7895960">
        <ele>15.6</ele>
        <time>2021-05-17T14:19:04Z</time>
      </trkpt>
      <trkpt lat="41.6588310" lon="-8.7895830">
        <ele>15.6</ele>
        <time>2021-05-17T14:19:05Z</time>
      </trkpt>
      <trkpt lat="41.6588400" lon="-8.7895660">
        <ele>15.6</ele>
        <time>2021-05-17T14:19:06Z</time>
      </trkpt>
      <trkpt lat="41.6588560" lon="-8.7895450">
        <ele>15.6</ele>
        <time>2021-05-17T14:19:07Z</time>
      </trkpt>
      <trkpt lat="41.6588610" lon="-8.7895340">
        <ele>15.5</ele>
        <time>2021-05-17T14:19:08Z</time>
      </trkpt>
      <trkpt lat="41.6588650" lon="-8.7895230">
        <ele>15.5</ele>
        <time>2021-05-17T14:19:09Z</time>
      </trkpt>
      <trkpt lat="41.6588720" lon="-8.7895090">
        <ele>15.5</ele>
        <time>2021-05-17T14:19:10Z</time>
      </trkpt>
      <trkpt lat="41.6588710" lon="-8.7894870">
        <ele>15.5</ele>
        <time>2021-05-17T14:19:11Z</time>
      </trkpt>
      <trkpt lat="41.6588800" lon="-8.7894720">
        <ele>15.5</ele>
        <time>2021-05-17T14:19:12Z</time>
      </trkpt>
      <trkpt lat="41.6588840" lon="-8.7894540">
        <ele>15.5</ele>
        <time>2021-05-17T14:19:13Z</time>
      </trkpt>
      <trkpt lat="41.6588830" lon="-8.7894340">
        <ele>15.5</ele>
        <time>2021-05-17T14:19:14Z</time>
      </trkpt>
      <trkpt lat="41.6588870" lon="-8.7894180">
        <ele>15.5</ele>
        <time>2021-05-17T14:19:15Z</time>
      </trkpt>
      <trkpt lat="41.6588810" lon="-8.7893960">
        <ele>15.5</ele>
        <time>2021-05-17T14:19:16Z</time>
      </trkpt>
      <trkpt lat="41.6588880" lon="-8.7893780">
        <ele>15.4</ele>
        <time>2021-05-17T14:19:17Z</time>
      </trkpt>
      <trkpt lat="41.6588990" lon="-8.7893530">
        <ele>15.4</ele>
        <time>2021-05-17T14:19:18Z</time>
      </trkpt>
      <trkpt lat="41.6589010" lon="-8.7893400">
        <ele>15.4</ele>
        <time>2021-05-17T14:19:19Z</time>
      </trkpt>
      <trkpt lat="41.6589020" lon="-8.7893280">
        <ele>15.4</ele>
        <time>2021-05-17T14:19:20Z</time>
      </trkpt>
      <trkpt lat="41.6589150" lon="-8.7893030">
        <ele>15.4</ele>
        <time>2021-05-17T14:19:21Z</time>
      </trkpt>
      <trkpt lat="41.6589210" lon="-8.7892930">
        <ele>15.4</ele>
        <time>2021-05-17T14:19:22Z</time>
      </trkpt>
      <trkpt lat="41.6589270" lon="-8.7892840">
        <ele>15.4</ele>
        <time>2021-05-17T14:19:23Z</time>
      </trkpt>
      <trkpt lat="41.6589260" lon="-8.7892670">
        <ele>15.4</ele>
        <time>2021-05-17T14:19:24Z</time>
      </trkpt>
      <trkpt lat="41.6589290" lon="-8.7892540">
        <ele>15.4</ele>
        <time>2021-05-17T14:19:25Z</time>
      </trkpt>
      <trkpt lat="41.6589300" lon="-8.7892420">
        <ele>15.4</ele>
        <time>2021-05-17T14:19:26Z</time>
      </trkpt>
      <trkpt lat="41.6589340" lon="-8.7892280">
        <ele>15.4</ele>
        <time>2021-05-17T14:19:27Z</time>
      </trkpt>
      <trkpt lat="41.6589320" lon="-8.7892090">
        <ele>15.4</ele>
        <time>2021-05-17T14:19:28Z</time>
      </trkpt>
      <trkpt lat="41.6589340" lon="-8.7891940">
        <ele>15.4</ele>
        <time>2021-05-17T14:19:29Z</time>
      </trkpt>
      <trkpt lat="41.6589370" lon="-8.7891860">
        <ele>15.4</ele>
        <time>2021-05-17T14:19:30Z</time>
      </trkpt>
      <trkpt lat="41.6589380" lon="-8.7891730">
        <ele>15.4</ele>
        <time>2021-05-17T14:19:31Z</time>
      </trkpt>
      <trkpt lat="41.6589430" lon="-8.7891580">
        <ele>15.4</ele>
        <time>2021-05-17T14:19:32Z</time>
      </trkpt>
      <trkpt lat="41.6589450" lon="-8.7891430">
        <ele>15.4</ele>
        <time>2021-05-17T14:19:33Z</time>
      </trkpt>
      <trkpt lat="41.6589450" lon="-8.7891290">
        <ele>15.4</ele>
        <time>2021-05-17T14:19:34Z</time>
      </trkpt>
      <trkpt lat="41.6589530" lon="-8.7891210">
        <ele>15.4</ele>
        <time>2021-05-17T14:19:35Z</time>
      </trkpt>
      <trkpt lat="41.6589630" lon="-8.7891040">
        <ele>15.4</ele>
        <time>2021-05-17T14:19:36Z</time>
      </trkpt>
      <trkpt lat="41.6589690" lon="-8.7890910">
        <ele>15.5</ele>
        <time>2021-05-17T14:19:37Z</time>
      </trkpt>
      <trkpt lat="41.6589780" lon="-8.7890720">
        <ele>15.5</ele>
        <time>2021-05-17T14:19:38Z</time>
      </trkpt>
      <trkpt lat="41.6589870" lon="-8.7890580">
        <ele>15.5</ele>
        <time>2021-05-17T14:19:39Z</time>
      </trkpt>
      <trkpt lat="41.6589970" lon="-8.7890450">
        <ele>15.5</ele>
        <time>2021-05-17T14:19:40Z</time>
      </trkpt>
      <trkpt lat="41.6590060" lon="-8.7890270">
        <ele>15.5</ele>
        <time>2021-05-17T14:19:41Z</time>
      </trkpt>
      <trkpt lat="41.6590180" lon="-8.7890160">
        <ele>15.5</ele>
        <time>2021-05-17T14:19:42Z</time>
      </trkpt>
      <trkpt lat="41.6590250" lon="-8.7890000">
        <ele>15.6</ele>
        <time>2021-05-17T14:19:43Z</time>
      </trkpt>
      <trkpt lat="41.6590360" lon="-8.7889870">
        <ele>15.6</ele>
        <time>2021-05-17T14:19:44Z</time>
      </trkpt>
      <trkpt lat="41.6590460" lon="-8.7889730">
        <ele>15.6</ele>
        <time>2021-05-17T14:19:45Z</time>
      </trkpt>
      <trkpt lat="41.6590510" lon="-8.7889540">
        <ele>15.6</ele>
        <time>2021-05-17T14:19:46Z</time>
      </trkpt>
      <trkpt lat="41.6590580" lon="-8.7889370">
        <ele>15.6</ele>
        <time>2021-05-17T14:19:47Z</time>
      </trkpt>
      <trkpt lat="41.6590620" lon="-8.7889070">
        <ele>15.7</ele>
        <time>2021-05-17T14:19:48Z</time>
      </trkpt>
      <trkpt lat="41.6590630" lon="-8.7888960">
        <ele>15.7</ele>
        <time>2021-05-17T14:19:49Z</time>
      </trkpt>
      <trkpt lat="41.6590650" lon="-8.7888850">
        <ele>15.7</ele>
        <time>2021-05-17T14:19:50Z</time>
      </trkpt>
      <trkpt lat="41.6590670" lon="-8.7888540">
        <ele>15.7</ele>
        <time>2021-05-17T14:19:51Z</time>
      </trkpt>
      <trkpt lat="41.6590660" lon="-8.7888420">
        <ele>15.8</ele>
        <time>2021-05-17T14:19:52Z</time>
      </trkpt>
      <trkpt lat="41.6590650" lon="-8.7888290">
        <ele>15.8</ele>
        <time>2021-05-17T14:19:53Z</time>
      </trkpt>
      <trkpt lat="41.6590720" lon="-8.7888120">
        <ele>15.8</ele>
        <time>2021-05-17T14:19:54Z</time>
      </trkpt>
      <trkpt lat="41.6590630" lon="-8.7887910">
        <ele>15.9</ele>
        <time>2021-05-17T14:19:55Z</time>
      </trkpt>
      <trkpt lat="41.6590560" lon="-8.7887690">
        <ele>15.9</ele>
        <time>2021-05-17T14:19:56Z</time>
      </trkpt>
      <trkpt lat="41.6590580" lon="-8.7887510">
        <ele>16.0</ele>
        <time>2021-05-17T14:19:57Z</time>
      </trkpt>
      <trkpt lat="41.6590630" lon="-8.7887250">
        <ele>16.0</ele>
        <time>2021-05-17T14:19:58Z</time>
      </trkpt>
      <trkpt lat="41.6590680" lon="-8.7887140">
        <ele>16.0</ele>
        <time>2021-05-17T14:19:59Z</time>
      </trkpt>
      <trkpt lat="41.6590730" lon="-8.7887020">
        <ele>16.1</ele>
        <time>2021-05-17T14:20:00Z</time>
      </trkpt>
      <trkpt lat="41.6590840" lon="-8.7886870">
        <ele>16.1</ele>
        <time>2021-05-17T14:20:01Z</time>
      </trkpt>
      <trkpt lat="41.6590900" lon="-8.7886750">
        <ele>16.2</ele>
        <time>2021-05-17T14:20:02Z</time>
      </trkpt>
      <trkpt lat="41.6590920" lon="-8.7886640">
        <ele>16.2</ele>
        <time>2021-05-17T14:20:03Z</time>
      </trkpt>
      <trkpt lat="41.6591070" lon="-8.7886470">
        <ele>16.3</ele>
        <time>2021-05-17T14:20:04Z</time>
      </trkpt>
      <trkpt lat="41.6591150" lon="-8.7886370">
        <ele>16.3</ele>
        <time>2021-05-17T14:20:05Z</time>
      </trkpt>
      <trkpt lat="41.6591220" lon="-8.7886280">
        <ele>16.3</ele>
        <time>2021-05-17T14:20:06Z</time>
      </trkpt>
      <trkpt lat="41.6591340" lon="-8.7886210">
        <ele>16.4</ele>
        <time>2021-05-17T14:20:07Z</time>
      </trkpt>
      <trkpt lat="41.6591450" lon="-8.7886170">
        <ele>16.4</ele>
        <time>2021-05-17T14:20:08Z</time>
      </trkpt>
      <trkpt lat="41.6591520" lon="-8.7886080">
        <ele>16.5</ele>
        <time>2021-05-17T14:20:09Z</time>
      </trkpt>
      <trkpt lat="41.6591570" lon="-8.7885920">
        <ele>16.5</ele>
        <time>2021-05-17T14:20:10Z</time>
      </trkpt>
      <trkpt lat="41.6591540" lon="-8.7885680">
        <ele>16.6</ele>
        <time>2021-05-17T14:20:11Z</time>
      </trkpt>
      <trkpt lat="41.6591590" lon="-8.7885510">
        <ele>16.7</ele>
        <time>2021-05-17T14:20:12Z</time>
      </trkpt>
      <trkpt lat="41.6591430" lon="-8.7885250">
        <ele>16.8</ele>
        <time>2021-05-17T14:20:13Z</time>
      </trkpt>
      <trkpt lat="41.6591200" lon="-8.7884980">
        <ele>16.9</ele>
        <time>2021-05-17T14:20:14Z</time>
      </trkpt>
      <trkpt lat="41.6591090" lon="-8.7884910">
        <ele>17.1</ele>
        <time>2021-05-17T14:20:15Z</time>
      </trkpt>
      <trkpt lat="41.6590860" lon="-8.7884810">
        <ele>17.1</ele>
        <time>2021-05-17T14:20:16Z</time>
      </trkpt>
      <trkpt lat="41.6590790" lon="-8.7884770">
        <ele>17.1</ele>
        <time>2021-05-17T14:20:17Z</time>
      </trkpt>
      <trkpt lat="41.6590710" lon="-8.7884740">
        <ele>17.1</ele>
        <time>2021-05-17T14:20:18Z</time>
      </trkpt>
      <trkpt lat="41.6590660" lon="-8.7884680">
        <ele>17.1</ele>
        <time>2021-05-17T14:20:19Z</time>
      </trkpt>
      <trkpt lat="41.6590690" lon="-8.7884680">
        <ele>17.1</ele>
        <time>2021-05-17T14:20:20Z</time>
      </trkpt>
      <trkpt lat="41.6590690" lon="-8.7884600">
        <ele>17.1</ele>
        <time>2021-05-17T14:20:21Z</time>
      </trkpt>
      <trkpt lat="41.6590640" lon="-8.7884460">
        <ele>17.1</ele>
        <time>2021-05-17T14:20:22Z</time>
      </trkpt>
      <trkpt lat="41.6590650" lon="-8.7884390">
        <ele>17.0</ele>
        <time>2021-05-17T14:20:23Z</time>
      </trkpt>
      <trkpt lat="41.6590670" lon="-8.7884360">
        <ele>17.0</ele>
        <time>2021-05-17T14:20:24Z</time>
      </trkpt>
      <trkpt lat="41.6590700" lon="-8.7884280">
        <ele>17.0</ele>
        <time>2021-05-17T14:20:25Z</time>
      </trkpt>
      <trkpt lat="41.6590790" lon="-8.7884160">
        <ele>17.0</ele>
        <time>2021-05-17T14:20:26Z</time>
      </trkpt>
      <trkpt lat="41.6590870" lon="-8.7884190">
        <ele>17.0</ele>
        <time>2021-05-17T14:20:27Z</time>
      </trkpt>
      <trkpt lat="41.6590930" lon="-8.7884150">
        <ele>17.0</ele>
        <time>2021-05-17T14:20:28Z</time>
      </trkpt>
      <trkpt lat="41.6591100" lon="-8.7884070">
        <ele>17.0</ele>
        <time>2021-05-17T14:20:29Z</time>
      </trkpt>
      <trkpt lat="41.6591190" lon="-8.7884060">
        <ele>17.0</ele>
        <time>2021-05-17T14:20:30Z</time>
      </trkpt>
      <trkpt lat="41.6591290" lon="-8.7884050">
        <ele>17.0</ele>
        <time>2021-05-17T14:20:31Z</time>
      </trkpt>
      <trkpt lat="41.6591390" lon="-8.7884000">
        <ele>17.0</ele>
        <time>2021-05-17T14:20:32Z</time>
      </trkpt>
      <trkpt lat="41.6591480" lon="-8.7883940">
        <ele>17.0</ele>
        <time>2021-05-17T14:20:33Z</time>
      </trkpt>
      <trkpt lat="41.6591520" lon="-8.7883910">
        <ele>17.0</ele>
        <time>2021-05-17T14:20:34Z</time>
      </trkpt>
      <trkpt lat="41.6591600" lon="-8.7883840">
        <ele>17.0</ele>
        <time>2021-05-17T14:20:35Z</time>
      </trkpt>
      <trkpt lat="41.6591690" lon="-8.7883840">
        <ele>17.0</ele>
        <time>2021-05-17T14:20:36Z</time>
      </trkpt>
      <trkpt lat="41.6591950" lon="-8.7883760">
        <ele>17.0</ele>
        <time>2021-05-17T14:20:37Z</time>
      </trkpt>
      <trkpt lat="41.6592140" lon="-8.7883660">
        <ele>17.0</ele>
        <time>2021-05-17T14:20:38Z</time>
      </trkpt>
      <trkpt lat="41.6592240" lon="-8.7883590">
        <ele>17.0</ele>
        <time>2021-05-17T14:20:39Z</time>
      </trkpt>
      <trkpt lat="41.6592350" lon="-8.7883520">
        <ele>17.0</ele>
        <time>2021-05-17T14:20:40Z</time>
      </trkpt>
      <trkpt lat="41.6592490" lon="-8.7883440">
        <ele>17.0</ele>
        <time>2021-05-17T14:20:41Z</time>
      </trkpt>
      <trkpt lat="41.6592580" lon="-8.7883360">
        <ele>17.0</ele>
        <time>2021-05-17T14:20:42Z</time>
      </trkpt>
      <trkpt lat="41.6592670" lon="-8.7883290">
        <ele>17.0</ele>
        <time>2021-05-17T14:20:43Z</time>
      </trkpt>
      <trkpt lat="41.6592760" lon="-8.7883210">
        <ele>17.0</ele>
        <time>2021-05-17T14:20:44Z</time>
      </trkpt>
      <trkpt lat="41.6592850" lon="-8.7883140">
        <ele>17.0</ele>
        <time>2021-05-17T14:20:45Z</time>
      </trkpt>
      <trkpt lat="41.6592990" lon="-8.7882980">
        <ele>17.0</ele>
        <time>2021-05-17T14:20:46Z</time>
      </trkpt>
      <trkpt lat="41.6593040" lon="-8.7882860">
        <ele>17.0</ele>
        <time>2021-05-17T14:20:47Z</time>
      </trkpt>
      <trkpt lat="41.6593180" lon="-8.7882820">
        <ele>16.9</ele>
        <time>2021-05-17T14:20:48Z</time>
      </trkpt>
      <trkpt lat="41.6593310" lon="-8.7882760">
        <ele>16.9</ele>
        <time>2021-05-17T14:20:49Z</time>
      </trkpt>
      <trkpt lat="41.6593450" lon="-8.7882570">
        <ele>16.9</ele>
        <time>2021-05-17T14:20:50Z</time>
      </trkpt>
      <trkpt lat="41.6593570" lon="-8.7882430">
        <ele>16.9</ele>
        <time>2021-05-17T14:20:51Z</time>
      </trkpt>
      <trkpt lat="41.6593760" lon="-8.7882450">
        <ele>16.9</ele>
        <time>2021-05-17T14:20:52Z</time>
      </trkpt>
      <trkpt lat="41.6593930" lon="-8.7882320">
        <ele>16.9</ele>
        <time>2021-05-17T14:20:53Z</time>
      </trkpt>
      <trkpt lat="41.6594110" lon="-8.7882280">
        <ele>16.9</ele>
        <time>2021-05-17T14:20:54Z</time>
      </trkpt>
      <trkpt lat="41.6594220" lon="-8.7882250">
        <ele>16.9</ele>
        <time>2021-05-17T14:20:55Z</time>
      </trkpt>
      <trkpt lat="41.6594330" lon="-8.7882230">
        <ele>16.9</ele>
        <time>2021-05-17T14:20:56Z</time>
      </trkpt>
      <trkpt lat="41.6594500" lon="-8.7882190">
        <ele>16.9</ele>
        <time>2021-05-17T14:20:57Z</time>
      </trkpt>
      <trkpt lat="41.6594620" lon="-8.7882040">
        <ele>16.9</ele>
        <time>2021-05-17T14:20:58Z</time>
      </trkpt>
      <trkpt lat="41.6594900" lon="-8.7881890">
        <ele>16.9</ele>
        <time>2021-05-17T14:20:59Z</time>
      </trkpt>
      <trkpt lat="41.6594980" lon="-8.7881830">
        <ele>16.9</ele>
        <time>2021-05-17T14:21:00Z</time>
      </trkpt>
      <trkpt lat="41.6595170" lon="-8.7881800">
        <ele>16.9</ele>
        <time>2021-05-17T14:21:01Z</time>
      </trkpt>
      <trkpt lat="41.6595320" lon="-8.7881720">
        <ele>16.9</ele>
        <time>2021-05-17T14:21:02Z</time>
      </trkpt>
      <trkpt lat="41.6595470" lon="-8.7881700">
        <ele>16.9</ele>
        <time>2021-05-17T14:21:03Z</time>
      </trkpt>
      <trkpt lat="41.6595640" lon="-8.7881600">
        <ele>16.9</ele>
        <time>2021-05-17T14:21:04Z</time>
      </trkpt>
      <trkpt lat="41.6595780" lon="-8.7881530">
        <ele>16.9</ele>
        <time>2021-05-17T14:21:05Z</time>
      </trkpt>
      <trkpt lat="41.6595930" lon="-8.7881540">
        <ele>16.9</ele>
        <time>2021-05-17T14:21:06Z</time>
      </trkpt>
      <trkpt lat="41.6596080" lon="-8.7881530">
        <ele>16.9</ele>
        <time>2021-05-17T14:21:07Z</time>
      </trkpt>
      <trkpt lat="41.6596220" lon="-8.7881430">
        <ele>16.9</ele>
        <time>2021-05-17T14:21:08Z</time>
      </trkpt>
      <trkpt lat="41.6596350" lon="-8.7881350">
        <ele>16.9</ele>
        <time>2021-05-17T14:21:09Z</time>
      </trkpt>
      <trkpt lat="41.6596480" lon="-8.7881250">
        <ele>16.9</ele>
        <time>2021-05-17T14:21:10Z</time>
      </trkpt>
      <trkpt lat="41.6596680" lon="-8.7881120">
        <ele>16.9</ele>
        <time>2021-05-17T14:21:11Z</time>
      </trkpt>
      <trkpt lat="41.6596750" lon="-8.7881070">
        <ele>16.9</ele>
        <time>2021-05-17T14:21:12Z</time>
      </trkpt>
      <trkpt lat="41.6596830" lon="-8.7881010">
        <ele>16.9</ele>
        <time>2021-05-17T14:21:13Z</time>
      </trkpt>
      <trkpt lat="41.6596960" lon="-8.7880920">
        <ele>16.9</ele>
        <time>2021-05-17T14:21:14Z</time>
      </trkpt>
      <trkpt lat="41.6597070" lon="-8.7880840">
        <ele>16.9</ele>
        <time>2021-05-17T14:21:15Z</time>
      </trkpt>
      <trkpt lat="41.6597240" lon="-8.7880650">
        <ele>16.9</ele>
        <time>2021-05-17T14:21:16Z</time>
      </trkpt>
      <trkpt lat="41.6597320" lon="-8.7880610">
        <ele>16.9</ele>
        <time>2021-05-17T14:21:17Z</time>
      </trkpt>
      <trkpt lat="41.6597400" lon="-8.7880560">
        <ele>16.9</ele>
        <time>2021-05-17T14:21:18Z</time>
      </trkpt>
      <trkpt lat="41.6597510" lon="-8.7880440">
        <ele>16.9</ele>
        <time>2021-05-17T14:21:19Z</time>
      </trkpt>
      <trkpt lat="41.6597650" lon="-8.7880320">
        <ele>16.9</ele>
        <time>2021-05-17T14:21:20Z</time>
      </trkpt>
      <trkpt lat="41.6597830" lon="-8.7880330">
        <ele>16.9</ele>
        <time>2021-05-17T14:21:21Z</time>
      </trkpt>
      <trkpt lat="41.6597970" lon="-8.7880260">
        <ele>16.9</ele>
        <time>2021-05-17T14:21:22Z</time>
      </trkpt>
      <trkpt lat="41.6598110" lon="-8.7880110">
        <ele>16.9</ele>
        <time>2021-05-17T14:21:23Z</time>
      </trkpt>
      <trkpt lat="41.6598260" lon="-8.7880050">
        <ele>16.9</ele>
        <time>2021-05-17T14:21:24Z</time>
      </trkpt>
      <trkpt lat="41.6598390" lon="-8.7879960">
        <ele>16.9</ele>
        <time>2021-05-17T14:21:25Z</time>
      </trkpt>
      <trkpt lat="41.6598530" lon="-8.7879850">
        <ele>16.9</ele>
        <time>2021-05-17T14:21:26Z</time>
      </trkpt>
      <trkpt lat="41.6598680" lon="-8.7879830">
        <ele>16.9</ele>
        <time>2021-05-17T14:21:27Z</time>
      </trkpt>
      <trkpt lat="41.6598800" lon="-8.7879720">
        <ele>16.9</ele>
        <time>2021-05-17T14:21:28Z</time>
      </trkpt>
      <trkpt lat="41.6598900" lon="-8.7879610">
        <ele>16.9</ele>
        <time>2021-05-17T14:21:29Z</time>
      </trkpt>
      <trkpt lat="41.6599040" lon="-8.7879570">
        <ele>16.9</ele>
        <time>2021-05-17T14:21:30Z</time>
      </trkpt>
      <trkpt lat="41.6599120" lon="-8.7879520">
        <ele>16.9</ele>
        <time>2021-05-17T14:21:31Z</time>
      </trkpt>
      <trkpt lat="41.6599220" lon="-8.7879570">
        <ele>16.9</ele>
        <time>2021-05-17T14:21:32Z</time>
      </trkpt>
      <trkpt lat="41.6599130" lon="-8.7879650">
        <ele>16.9</ele>
        <time>2021-05-17T14:21:33Z</time>
      </trkpt>
      <trkpt lat="41.6598980" lon="-8.7879660">
        <ele>16.9</ele>
        <time>2021-05-17T14:21:34Z</time>
      </trkpt>
      <trkpt lat="41.6598870" lon="-8.7879660">
        <ele>16.9</ele>
        <time>2021-05-17T14:21:35Z</time>
      </trkpt>
      <trkpt lat="41.6598740" lon="-8.7879690">
        <ele>16.9</ele>
        <time>2021-05-17T14:21:36Z</time>
      </trkpt>
      <trkpt lat="41.6598680" lon="-8.7879700">
        <ele>16.9</ele>
        <time>2021-05-17T14:21:37Z</time>
      </trkpt>
      <trkpt lat="41.6598610" lon="-8.7879720">
        <ele>16.9</ele>
        <time>2021-05-17T14:21:38Z</time>
      </trkpt>
      <trkpt lat="41.6598550" lon="-8.7879730">
        <ele>16.9</ele>
        <time>2021-05-17T14:21:39Z</time>
      </trkpt>
      <trkpt lat="41.6598480" lon="-8.7879740">
        <ele>16.9</ele>
        <time>2021-05-17T14:21:40Z</time>
      </trkpt>
      <trkpt lat="41.6598490" lon="-8.7879740">
        <ele>16.9</ele>
        <time>2021-05-17T14:21:41Z</time>
      </trkpt>
      <trkpt lat="41.6598490" lon="-8.7879740">
        <ele>16.9</ele>
        <time>2021-05-17T14:21:42Z</time>
      </trkpt>
      <trkpt lat="41.6598490" lon="-8.7879740">
        <ele>16.9</ele>
        <time>2021-05-17T14:21:43Z</time>
      </trkpt>
      <trkpt lat="41.6598490" lon="-8.7879740">
        <ele>16.9</ele>
        <time>2021-05-17T14:21:44Z</time>
      </trkpt>
      <trkpt lat="41.6598490" lon="-8.7879740">
        <ele>16.9</ele>
        <time>2021-05-17T14:21:45Z</time>
      </trkpt>
      <trkpt lat="41.6598490" lon="-8.7879740">
        <ele>16.9</ele>
        <time>2021-05-17T14:21:46Z</time>
      </trkpt>
      <trkpt lat="41.6598220" lon="-8.7879850">
        <ele>16.9</ele>
        <time>2021-05-17T14:21:47Z</time>
      </trkpt>
      <trkpt lat="41.6598230" lon="-8.7879840">
        <ele>16.9</ele>
        <time>2021-05-17T14:21:48Z</time>
      </trkpt>
      <trkpt lat="41.6598340" lon="-8.7879790">
        <ele>16.9</ele>
        <time>2021-05-17T14:21:49Z</time>
      </trkpt>
      <trkpt lat="41.6598410" lon="-8.7879710">
        <ele>16.9</ele>
        <time>2021-05-17T14:21:50Z</time>
      </trkpt>
      <trkpt lat="41.6598520" lon="-8.7879610">
        <ele>16.9</ele>
        <time>2021-05-17T14:21:51Z</time>
      </trkpt>
      <trkpt lat="41.6598660" lon="-8.7879470">
        <ele>16.9</ele>
        <time>2021-05-17T14:21:52Z</time>
      </trkpt>
      <trkpt lat="41.6598810" lon="-8.7879390">
        <ele>16.9</ele>
        <time>2021-05-17T14:21:53Z</time>
      </trkpt>
      <trkpt lat="41.6598960" lon="-8.7879320">
        <ele>16.9</ele>
        <time>2021-05-17T14:21:54Z</time>
      </trkpt>
      <trkpt lat="41.6599080" lon="-8.7879270">
        <ele>16.9</ele>
        <time>2021-05-17T14:21:55Z</time>
      </trkpt>
      <trkpt lat="41.6599090" lon="-8.7879270">
        <ele>16.9</ele>
        <time>2021-05-17T14:21:56Z</time>
      </trkpt>
      <trkpt lat="41.6599230" lon="-8.7879150">
        <ele>16.9</ele>
        <time>2021-05-17T14:21:57Z</time>
      </trkpt>
      <trkpt lat="41.6599350" lon="-8.7879040">
        <ele>17.0</ele>
        <time>2021-05-17T14:21:58Z</time>
      </trkpt>
      <trkpt lat="41.6599520" lon="-8.7878920">
        <ele>17.0</ele>
        <time>2021-05-17T14:21:59Z</time>
      </trkpt>
      <trkpt lat="41.6599610" lon="-8.7878850">
        <ele>17.0</ele>
        <time>2021-05-17T14:22:00Z</time>
      </trkpt>
      <trkpt lat="41.6599700" lon="-8.7878780">
        <ele>17.0</ele>
        <time>2021-05-17T14:22:01Z</time>
      </trkpt>
      <trkpt lat="41.6599870" lon="-8.7878660">
        <ele>17.0</ele>
        <time>2021-05-17T14:22:02Z</time>
      </trkpt>
      <trkpt lat="41.6599970" lon="-8.7878610">
        <ele>17.0</ele>
        <time>2021-05-17T14:22:03Z</time>
      </trkpt>
      <trkpt lat="41.6600060" lon="-8.7878560">
        <ele>17.1</ele>
        <time>2021-05-17T14:22:04Z</time>
      </trkpt>
      <trkpt lat="41.6600200" lon="-8.7878460">
        <ele>17.1</ele>
        <time>2021-05-17T14:22:05Z</time>
      </trkpt>
      <trkpt lat="41.6600340" lon="-8.7878340">
        <ele>17.1</ele>
        <time>2021-05-17T14:22:06Z</time>
      </trkpt>
      <trkpt lat="41.6600480" lon="-8.7878230">
        <ele>17.1</ele>
        <time>2021-05-17T14:22:07Z</time>
      </trkpt>
      <trkpt lat="41.6600600" lon="-8.7878090">
        <ele>17.2</ele>
        <time>2021-05-17T14:22:08Z</time>
      </trkpt>
      <trkpt lat="41.6600740" lon="-8.7878010">
        <ele>17.2</ele>
        <time>2021-05-17T14:22:09Z</time>
      </trkpt>
      <trkpt lat="41.6600870" lon="-8.7877900">
        <ele>17.2</ele>
        <time>2021-05-17T14:22:10Z</time>
      </trkpt>
      <trkpt lat="41.6601010" lon="-8.7877780">
        <ele>17.3</ele>
        <time>2021-05-17T14:22:11Z</time>
      </trkpt>
      <trkpt lat="41.6601170" lon="-8.7877720">
        <ele>17.3</ele>
        <time>2021-05-17T14:22:12Z</time>
      </trkpt>
      <trkpt lat="41.6601300" lon="-8.7877600">
        <ele>17.3</ele>
        <time>2021-05-17T14:22:13Z</time>
      </trkpt>
      <trkpt lat="41.6601430" lon="-8.7877540">
        <ele>17.3</ele>
        <time>2021-05-17T14:22:14Z</time>
      </trkpt>
      <trkpt lat="41.6601560" lon="-8.7877420">
        <ele>17.4</ele>
        <time>2021-05-17T14:22:15Z</time>
      </trkpt>
      <trkpt lat="41.6601690" lon="-8.7877310">
        <ele>17.4</ele>
        <time>2021-05-17T14:22:16Z</time>
      </trkpt>
      <trkpt lat="41.6601860" lon="-8.7877280">
        <ele>17.4</ele>
        <time>2021-05-17T14:22:17Z</time>
      </trkpt>
      <trkpt lat="41.6602000" lon="-8.7877180">
        <ele>17.5</ele>
        <time>2021-05-17T14:22:18Z</time>
      </trkpt>
      <trkpt lat="41.6602160" lon="-8.7877150">
        <ele>17.5</ele>
        <time>2021-05-17T14:22:19Z</time>
      </trkpt>
      <trkpt lat="41.6602310" lon="-8.7877110">
        <ele>17.6</ele>
        <time>2021-05-17T14:22:20Z</time>
      </trkpt>
      <trkpt lat="41.6602440" lon="-8.7876970">
        <ele>17.6</ele>
        <time>2021-05-17T14:22:21Z</time>
      </trkpt>
      <trkpt lat="41.6602550" lon="-8.7876850">
        <ele>17.6</ele>
        <time>2021-05-17T14:22:22Z</time>
      </trkpt>
      <trkpt lat="41.6602700" lon="-8.7876770">
        <ele>17.7</ele>
        <time>2021-05-17T14:22:23Z</time>
      </trkpt>
      <trkpt lat="41.6602850" lon="-8.7876700">
        <ele>17.7</ele>
        <time>2021-05-17T14:22:24Z</time>
      </trkpt>
      <trkpt lat="41.6602980" lon="-8.7876600">
        <ele>17.8</ele>
        <time>2021-05-17T14:22:25Z</time>
      </trkpt>
      <trkpt lat="41.6603110" lon="-8.7876490">
        <ele>17.8</ele>
        <time>2021-05-17T14:22:26Z</time>
      </trkpt>
      <trkpt lat="41.6603250" lon="-8.7876410">
        <ele>17.9</ele>
        <time>2021-05-17T14:22:27Z</time>
      </trkpt>
      <trkpt lat="41.6603400" lon="-8.7876420">
        <ele>17.9</ele>
        <time>2021-05-17T14:22:28Z</time>
      </trkpt>
      <trkpt lat="41.6603530" lon="-8.7876360">
        <ele>17.9</ele>
        <time>2021-05-17T14:22:29Z</time>
      </trkpt>
      <trkpt lat="41.6603660" lon="-8.7876240">
        <ele>18.0</ele>
        <time>2021-05-17T14:22:30Z</time>
      </trkpt>
      <trkpt lat="41.6603780" lon="-8.7876140">
        <ele>18.0</ele>
        <time>2021-05-17T14:22:31Z</time>
      </trkpt>
      <trkpt lat="41.6603910" lon="-8.7876140">
        <ele>18.1</ele>
        <time>2021-05-17T14:22:32Z</time>
      </trkpt>
      <trkpt lat="41.6603960" lon="-8.7876000">
        <ele>18.1</ele>
        <time>2021-05-17T14:22:33Z</time>
      </trkpt>
      <trkpt lat="41.6604030" lon="-8.7875860">
        <ele>18.2</ele>
        <time>2021-05-17T14:22:34Z</time>
      </trkpt>
      <trkpt lat="41.6604070" lon="-8.7875760">
        <ele>18.2</ele>
        <time>2021-05-17T14:22:35Z</time>
      </trkpt>
      <trkpt lat="41.6604120" lon="-8.7875620">
        <ele>18.2</ele>
        <time>2021-05-17T14:22:36Z</time>
      </trkpt>
      <trkpt lat="41.6604170" lon="-8.7875490">
        <ele>18.3</ele>
        <time>2021-05-17T14:22:37Z</time>
      </trkpt>
      <trkpt lat="41.6604200" lon="-8.7875460">
        <ele>18.3</ele>
        <time>2021-05-17T14:22:38Z</time>
      </trkpt>
      <trkpt lat="41.6604270" lon="-8.7875380">
        <ele>18.3</ele>
        <time>2021-05-17T14:22:39Z</time>
      </trkpt>
      <trkpt lat="41.6604310" lon="-8.7875420">
        <ele>18.3</ele>
        <time>2021-05-17T14:22:40Z</time>
      </trkpt>
      <trkpt lat="41.6604360" lon="-8.7875500">
        <ele>18.4</ele>
        <time>2021-05-17T14:22:41Z</time>
      </trkpt>
      <trkpt lat="41.6604450" lon="-8.7875560">
        <ele>18.4</ele>
        <time>2021-05-17T14:22:42Z</time>
      </trkpt>
      <trkpt lat="41.6604550" lon="-8.7875630">
        <ele>18.4</ele>
        <time>2021-05-17T14:22:43Z</time>
      </trkpt>
      <trkpt lat="41.6604750" lon="-8.7875810">
        <ele>18.5</ele>
        <time>2021-05-17T14:22:44Z</time>
      </trkpt>
      <trkpt lat="41.6604990" lon="-8.7876140">
        <ele>18.6</ele>
        <time>2021-05-17T14:22:45Z</time>
      </trkpt>
      <trkpt lat="41.6605080" lon="-8.7876220">
        <ele>18.6</ele>
        <time>2021-05-17T14:22:46Z</time>
      </trkpt>
      <trkpt lat="41.6605230" lon="-8.7876340">
        <ele>18.6</ele>
        <time>2021-05-17T14:22:47Z</time>
      </trkpt>
      <trkpt lat="41.6605300" lon="-8.7876420">
        <ele>18.6</ele>
        <time>2021-05-17T14:22:48Z</time>
      </trkpt>
      <trkpt lat="41.6605380" lon="-8.7876490">
        <ele>18.6</ele>
        <time>2021-05-17T14:22:49Z</time>
      </trkpt>
      <trkpt lat="41.6605480" lon="-8.7876620">
        <ele>18.6</ele>
        <time>2021-05-17T14:22:50Z</time>
      </trkpt>
      <trkpt lat="41.6605530" lon="-8.7876710">
        <ele>18.6</ele>
        <time>2021-05-17T14:22:51Z</time>
      </trkpt>
      <trkpt lat="41.6605580" lon="-8.7876810">
        <ele>18.6</ele>
        <time>2021-05-17T14:22:52Z</time>
      </trkpt>
      <trkpt lat="41.6605630" lon="-8.7876900">
        <ele>18.6</ele>
        <time>2021-05-17T14:22:53Z</time>
      </trkpt>
      <trkpt lat="41.6605650" lon="-8.7876990">
        <ele>18.6</ele>
        <time>2021-05-17T14:22:54Z</time>
      </trkpt>
      <trkpt lat="41.6605790" lon="-8.7877160">
        <ele>18.6</ele>
        <time>2021-05-17T14:22:55Z</time>
      </trkpt>
      <trkpt lat="41.6605880" lon="-8.7877220">
        <ele>18.6</ele>
        <time>2021-05-17T14:22:56Z</time>
      </trkpt>
      <trkpt lat="41.6606070" lon="-8.7877400">
        <ele>18.6</ele>
        <time>2021-05-17T14:22:57Z</time>
      </trkpt>
      <trkpt lat="41.6606130" lon="-8.7877500">
        <ele>18.6</ele>
        <time>2021-05-17T14:22:58Z</time>
      </trkpt>
      <trkpt lat="41.6606180" lon="-8.7877590">
        <ele>18.6</ele>
        <time>2021-05-17T14:22:59Z</time>
      </trkpt>
      <trkpt lat="41.6606280" lon="-8.7877700">
        <ele>18.6</ele>
        <time>2021-05-17T14:23:00Z</time>
      </trkpt>
      <trkpt lat="41.6606280" lon="-8.7877900">
        <ele>18.6</ele>
        <time>2021-05-17T14:23:01Z</time>
      </trkpt>
      <trkpt lat="41.6606370" lon="-8.7877930">
        <ele>18.6</ele>
        <time>2021-05-17T14:23:02Z</time>
      </trkpt>
      <trkpt lat="41.6606410" lon="-8.7878070">
        <ele>18.6</ele>
        <time>2021-05-17T14:23:03Z</time>
      </trkpt>
      <trkpt lat="41.6606530" lon="-8.7878260">
        <ele>18.6</ele>
        <time>2021-05-17T14:23:04Z</time>
      </trkpt>
      <trkpt lat="41.6606590" lon="-8.7878330">
        <ele>18.6</ele>
        <time>2021-05-17T14:23:05Z</time>
      </trkpt>
      <trkpt lat="41.6606690" lon="-8.7878490">
        <ele>18.6</ele>
        <time>2021-05-17T14:23:06Z</time>
      </trkpt>
      <trkpt lat="41.6606750" lon="-8.7878630">
        <ele>18.6</ele>
        <time>2021-05-17T14:23:07Z</time>
      </trkpt>
      <trkpt lat="41.6606900" lon="-8.7878840">
        <ele>18.6</ele>
        <time>2021-05-17T14:23:08Z</time>
      </trkpt>
      <trkpt lat="41.6606950" lon="-8.7879020">
        <ele>18.6</ele>
        <time>2021-05-17T14:23:09Z</time>
      </trkpt>
      <trkpt lat="41.6607020" lon="-8.7879200">
        <ele>18.6</ele>
        <time>2021-05-17T14:23:10Z</time>
      </trkpt>
      <trkpt lat="41.6607110" lon="-8.7879400">
        <ele>18.6</ele>
        <time>2021-05-17T14:23:11Z</time>
      </trkpt>
      <trkpt lat="41.6607160" lon="-8.7879630">
        <ele>18.6</ele>
        <time>2021-05-17T14:23:12Z</time>
      </trkpt>
      <trkpt lat="41.6607250" lon="-8.7879790">
        <ele>18.6</ele>
        <time>2021-05-17T14:23:13Z</time>
      </trkpt>
      <trkpt lat="41.6607310" lon="-8.7879950">
        <ele>18.7</ele>
        <time>2021-05-17T14:23:14Z</time>
      </trkpt>
      <trkpt lat="41.6607350" lon="-8.7880020">
        <ele>18.7</ele>
        <time>2021-05-17T14:23:15Z</time>
      </trkpt>
      <trkpt lat="41.6607450" lon="-8.7880100">
        <ele>18.7</ele>
        <time>2021-05-17T14:23:16Z</time>
      </trkpt>
      <trkpt lat="41.6607500" lon="-8.7880280">
        <ele>18.7</ele>
        <time>2021-05-17T14:23:17Z</time>
      </trkpt>
      <trkpt lat="41.6607530" lon="-8.7880310">
        <ele>18.7</ele>
        <time>2021-05-17T14:23:18Z</time>
      </trkpt>
      <trkpt lat="41.6607580" lon="-8.7880440">
        <ele>18.7</ele>
        <time>2021-05-17T14:23:19Z</time>
      </trkpt>
      <trkpt lat="41.6607630" lon="-8.7880630">
        <ele>18.8</ele>
        <time>2021-05-17T14:23:20Z</time>
      </trkpt>
      <trkpt lat="41.6607750" lon="-8.7880850">
        <ele>18.8</ele>
        <time>2021-05-17T14:23:21Z</time>
      </trkpt>
      <trkpt lat="41.6607790" lon="-8.7880940">
        <ele>18.8</ele>
        <time>2021-05-17T14:23:22Z</time>
      </trkpt>
      <trkpt lat="41.6607880" lon="-8.7881070">
        <ele>18.9</ele>
        <time>2021-05-17T14:23:23Z</time>
      </trkpt>
      <trkpt lat="41.6607960" lon="-8.7881200">
        <ele>18.9</ele>
        <time>2021-05-17T14:23:24Z</time>
      </trkpt>
      <trkpt lat="41.6608060" lon="-8.7881500">
        <ele>19.0</ele>
        <time>2021-05-17T14:23:25Z</time>
      </trkpt>
      <trkpt lat="41.6608090" lon="-8.7881590">
        <ele>19.0</ele>
        <time>2021-05-17T14:23:26Z</time>
      </trkpt>
      <trkpt lat="41.6608130" lon="-8.7881670">
        <ele>19.0</ele>
        <time>2021-05-17T14:23:27Z</time>
      </trkpt>
      <trkpt lat="41.6608180" lon="-8.7881870">
        <ele>19.1</ele>
        <time>2021-05-17T14:23:28Z</time>
      </trkpt>
      <trkpt lat="41.6608230" lon="-8.7881970">
        <ele>19.1</ele>
        <time>2021-05-17T14:23:29Z</time>
      </trkpt>
      <trkpt lat="41.6608300" lon="-8.7882060">
        <ele>19.2</ele>
        <time>2021-05-17T14:23:30Z</time>
      </trkpt>
      <trkpt lat="41.6608330" lon="-8.7882200">
        <ele>19.2</ele>
        <time>2021-05-17T14:23:31Z</time>
      </trkpt>
      <trkpt lat="41.6608390" lon="-8.7882270">
        <ele>19.3</ele>
        <time>2021-05-17T14:23:32Z</time>
      </trkpt>
      <trkpt lat="41.6608470" lon="-8.7882440">
        <ele>19.3</ele>
        <time>2021-05-17T14:23:33Z</time>
      </trkpt>
      <trkpt lat="41.6608520" lon="-8.7882680">
        <ele>19.4</ele>
        <time>2021-05-17T14:23:34Z</time>
      </trkpt>
      <trkpt lat="41.6608530" lon="-8.7882750">
        <ele>19.5</ele>
        <time>2021-05-17T14:23:35Z</time>
      </trkpt>
      <trkpt lat="41.6608570" lon="-8.7882860">
        <ele>19.5</ele>
        <time>2021-05-17T14:23:36Z</time>
      </trkpt>
      <trkpt lat="41.6608710" lon="-8.7883050">
        <ele>19.6</ele>
        <time>2021-05-17T14:23:37Z</time>
      </trkpt>
      <trkpt lat="41.6608780" lon="-8.7883120">
        <ele>19.7</ele>
        <time>2021-05-17T14:23:38Z</time>
      </trkpt>
      <trkpt lat="41.6608840" lon="-8.7883200">
        <ele>19.8</ele>
        <time>2021-05-17T14:23:39Z</time>
      </trkpt>
      <trkpt lat="41.6609000" lon="-8.7883410">
        <ele>19.9</ele>
        <time>2021-05-17T14:23:40Z</time>
      </trkpt>
      <trkpt lat="41.6609060" lon="-8.7883500">
        <ele>20.0</ele>
        <time>2021-05-17T14:23:41Z</time>
      </trkpt>
      <trkpt lat="41.6609130" lon="-8.7883580">
        <ele>20.0</ele>
        <time>2021-05-17T14:23:42Z</time>
      </trkpt>
      <trkpt lat="41.6609210" lon="-8.7883790">
        <ele>20.1</ele>
        <time>2021-05-17T14:23:43Z</time>
      </trkpt>
      <trkpt lat="41.6609230" lon="-8.7883950">
        <ele>20.2</ele>
        <time>2021-05-17T14:23:44Z</time>
      </trkpt>
      <trkpt lat="41.6609350" lon="-8.7884150">
        <ele>20.3</ele>
        <time>2021-05-17T14:23:45Z</time>
      </trkpt>
      <trkpt lat="41.6609410" lon="-8.7884250">
        <ele>20.4</ele>
        <time>2021-05-17T14:23:46Z</time>
      </trkpt>
      <trkpt lat="41.6609460" lon="-8.7884340">
        <ele>20.4</ele>
        <time>2021-05-17T14:23:47Z</time>
      </trkpt>
      <trkpt lat="41.6609590" lon="-8.7884500">
        <ele>20.5</ele>
        <time>2021-05-17T14:23:48Z</time>
      </trkpt>
      <trkpt lat="41.6609680" lon="-8.7884640">
        <ele>20.6</ele>
        <time>2021-05-17T14:23:49Z</time>
      </trkpt>
      <trkpt lat="41.6609830" lon="-8.7884820">
        <ele>20.7</ele>
        <time>2021-05-17T14:23:50Z</time>
      </trkpt>
      <trkpt lat="41.6609900" lon="-8.7884920">
        <ele>20.8</ele>
        <time>2021-05-17T14:23:51Z</time>
      </trkpt>
      <trkpt lat="41.6609980" lon="-8.7885010">
        <ele>20.8</ele>
        <time>2021-05-17T14:23:52Z</time>
      </trkpt>
      <trkpt lat="41.6610090" lon="-8.7885210">
        <ele>20.9</ele>
        <time>2021-05-17T14:23:53Z</time>
      </trkpt>
      <trkpt lat="41.6610150" lon="-8.7885310">
        <ele>20.9</ele>
        <time>2021-05-17T14:23:54Z</time>
      </trkpt>
      <trkpt lat="41.6610220" lon="-8.7885410">
        <ele>21.0</ele>
        <time>2021-05-17T14:23:55Z</time>
      </trkpt>
      <trkpt lat="41.6610340" lon="-8.7885530">
        <ele>21.0</ele>
        <time>2021-05-17T14:23:56Z</time>
      </trkpt>
      <trkpt lat="41.6610380" lon="-8.7885630">
        <ele>21.1</ele>
        <time>2021-05-17T14:23:57Z</time>
      </trkpt>
      <trkpt lat="41.6610410" lon="-8.7885730">
        <ele>21.1</ele>
        <time>2021-05-17T14:23:58Z</time>
      </trkpt>
      <trkpt lat="41.6610450" lon="-8.7885830">
        <ele>21.1</ele>
        <time>2021-05-17T14:23:59Z</time>
      </trkpt>
      <trkpt lat="41.6610490" lon="-8.7886020">
        <ele>21.2</ele>
        <time>2021-05-17T14:24:00Z</time>
      </trkpt>
      <trkpt lat="41.6610490" lon="-8.7886250">
        <ele>21.2</ele>
        <time>2021-05-17T14:24:01Z</time>
      </trkpt>
      <trkpt lat="41.6610380" lon="-8.7886440">
        <ele>21.3</ele>
        <time>2021-05-17T14:24:02Z</time>
      </trkpt>
      <trkpt lat="41.6610360" lon="-8.7886630">
        <ele>21.3</ele>
        <time>2021-05-17T14:24:03Z</time>
      </trkpt>
      <trkpt lat="41.6610420" lon="-8.7886790">
        <ele>21.3</ele>
        <time>2021-05-17T14:24:04Z</time>
      </trkpt>
      <trkpt lat="41.6610480" lon="-8.7887030">
        <ele>21.4</ele>
        <time>2021-05-17T14:24:05Z</time>
      </trkpt>
      <trkpt lat="41.6610630" lon="-8.7887350">
        <ele>21.4</ele>
        <time>2021-05-17T14:24:06Z</time>
      </trkpt>
      <trkpt lat="41.6610710" lon="-8.7887440">
        <ele>21.4</ele>
        <time>2021-05-17T14:24:07Z</time>
      </trkpt>
      <trkpt lat="41.6610800" lon="-8.7887640">
        <ele>21.4</ele>
        <time>2021-05-17T14:24:08Z</time>
      </trkpt>
      <trkpt lat="41.6610930" lon="-8.7887780">
        <ele>21.5</ele>
        <time>2021-05-17T14:24:09Z</time>
      </trkpt>
      <trkpt lat="41.6611010" lon="-8.7887940">
        <ele>21.5</ele>
        <time>2021-05-17T14:24:10Z</time>
      </trkpt>
      <trkpt lat="41.6610980" lon="-8.7888060">
        <ele>21.5</ele>
        <time>2021-05-17T14:24:11Z</time>
      </trkpt>
      <trkpt lat="41.6611050" lon="-8.7888150">
        <ele>21.5</ele>
        <time>2021-05-17T14:24:12Z</time>
      </trkpt>
      <trkpt lat="41.6611120" lon="-8.7888200">
        <ele>21.5</ele>
        <time>2021-05-17T14:24:13Z</time>
      </trkpt>
      <trkpt lat="41.6611180" lon="-8.7888290">
        <ele>21.5</ele>
        <time>2021-05-17T14:24:14Z</time>
      </trkpt>
      <trkpt lat="41.6611300" lon="-8.7888410">
        <ele>21.5</ele>
        <time>2021-05-17T14:24:15Z</time>
      </trkpt>
      <trkpt lat="41.6611420" lon="-8.7888530">
        <ele>21.5</ele>
        <time>2021-05-17T14:24:16Z</time>
      </trkpt>
      <trkpt lat="41.6611470" lon="-8.7888670">
        <ele>21.5</ele>
        <time>2021-05-17T14:24:17Z</time>
      </trkpt>
      <trkpt lat="41.6611470" lon="-8.7888810">
        <ele>21.5</ele>
        <time>2021-05-17T14:24:18Z</time>
      </trkpt>
      <trkpt lat="41.6611520" lon="-8.7888960">
        <ele>21.5</ele>
        <time>2021-05-17T14:24:19Z</time>
      </trkpt>
      <trkpt lat="41.6611620" lon="-8.7889150">
        <ele>21.5</ele>
        <time>2021-05-17T14:24:20Z</time>
      </trkpt>
      <trkpt lat="41.6611680" lon="-8.7889320">
        <ele>21.5</ele>
        <time>2021-05-17T14:24:21Z</time>
      </trkpt>
      <trkpt lat="41.6611780" lon="-8.7889470">
        <ele>21.5</ele>
        <time>2021-05-17T14:24:22Z</time>
      </trkpt>
      <trkpt lat="41.6611840" lon="-8.7889680">
        <ele>21.5</ele>
        <time>2021-05-17T14:24:23Z</time>
      </trkpt>
      <trkpt lat="41.6611860" lon="-8.7889790">
        <ele>21.5</ele>
        <time>2021-05-17T14:24:24Z</time>
      </trkpt>
      <trkpt lat="41.6611870" lon="-8.7889910">
        <ele>21.5</ele>
        <time>2021-05-17T14:24:25Z</time>
      </trkpt>
      <trkpt lat="41.6611880" lon="-8.7890030">
        <ele>21.5</ele>
        <time>2021-05-17T14:24:26Z</time>
      </trkpt>
      <trkpt lat="41.6611940" lon="-8.7890220">
        <ele>21.5</ele>
        <time>2021-05-17T14:24:27Z</time>
      </trkpt>
      <trkpt lat="41.6612020" lon="-8.7890400">
        <ele>21.4</ele>
        <time>2021-05-17T14:24:28Z</time>
      </trkpt>
      <trkpt lat="41.6612080" lon="-8.7890570">
        <ele>21.4</ele>
        <time>2021-05-17T14:24:29Z</time>
      </trkpt>
      <trkpt lat="41.6612100" lon="-8.7890800">
        <ele>21.4</ele>
        <time>2021-05-17T14:24:30Z</time>
      </trkpt>
      <trkpt lat="41.6612080" lon="-8.7890940">
        <ele>21.4</ele>
        <time>2021-05-17T14:24:31Z</time>
      </trkpt>
      <trkpt lat="41.6612150" lon="-8.7891040">
        <ele>21.4</ele>
        <time>2021-05-17T14:24:32Z</time>
      </trkpt>
      <trkpt lat="41.6612240" lon="-8.7891170">
        <ele>21.4</ele>
        <time>2021-05-17T14:24:33Z</time>
      </trkpt>
      <trkpt lat="41.6612310" lon="-8.7891400">
        <ele>21.4</ele>
        <time>2021-05-17T14:24:34Z</time>
      </trkpt>
      <trkpt lat="41.6612390" lon="-8.7891500">
        <ele>21.4</ele>
        <time>2021-05-17T14:24:35Z</time>
      </trkpt>
      <trkpt lat="41.6612430" lon="-8.7891690">
        <ele>21.4</ele>
        <time>2021-05-17T14:24:36Z</time>
      </trkpt>
      <trkpt lat="41.6612540" lon="-8.7891890">
        <ele>21.4</ele>
        <time>2021-05-17T14:24:37Z</time>
      </trkpt>
      <trkpt lat="41.6612630" lon="-8.7892080">
        <ele>21.4</ele>
        <time>2021-05-17T14:24:38Z</time>
      </trkpt>
      <trkpt lat="41.6612690" lon="-8.7892190">
        <ele>21.4</ele>
        <time>2021-05-17T14:24:39Z</time>
      </trkpt>
      <trkpt lat="41.6612740" lon="-8.7892300">
        <ele>21.4</ele>
        <time>2021-05-17T14:24:40Z</time>
      </trkpt>
      <trkpt lat="41.6612800" lon="-8.7892460">
        <ele>21.4</ele>
        <time>2021-05-17T14:24:41Z</time>
      </trkpt>
      <trkpt lat="41.6612870" lon="-8.7892650">
        <ele>21.4</ele>
        <time>2021-05-17T14:24:42Z</time>
      </trkpt>
      <trkpt lat="41.6612830" lon="-8.7892820">
        <ele>21.4</ele>
        <time>2021-05-17T14:24:43Z</time>
      </trkpt>
      <trkpt lat="41.6612940" lon="-8.7893020">
        <ele>21.3</ele>
        <time>2021-05-17T14:24:44Z</time>
      </trkpt>
      <trkpt lat="41.6612980" lon="-8.7893100">
        <ele>21.3</ele>
        <time>2021-05-17T14:24:45Z</time>
      </trkpt>
      <trkpt lat="41.6613090" lon="-8.7893210">
        <ele>21.3</ele>
        <time>2021-05-17T14:24:46Z</time>
      </trkpt>
      <trkpt lat="41.6613150" lon="-8.7893370">
        <ele>21.3</ele>
        <time>2021-05-17T14:24:47Z</time>
      </trkpt>
      <trkpt lat="41.6613220" lon="-8.7893630">
        <ele>21.3</ele>
        <time>2021-05-17T14:24:48Z</time>
      </trkpt>
      <trkpt lat="41.6613260" lon="-8.7893770">
        <ele>21.3</ele>
        <time>2021-05-17T14:24:49Z</time>
      </trkpt>
      <trkpt lat="41.6613300" lon="-8.7893900">
        <ele>21.3</ele>
        <time>2021-05-17T14:24:50Z</time>
      </trkpt>
      <trkpt lat="41.6613300" lon="-8.7894100">
        <ele>21.3</ele>
        <time>2021-05-17T14:24:51Z</time>
      </trkpt>
      <trkpt lat="41.6613330" lon="-8.7894260">
        <ele>21.3</ele>
        <time>2021-05-17T14:24:52Z</time>
      </trkpt>
      <trkpt lat="41.6613350" lon="-8.7894410">
        <ele>21.3</ele>
        <time>2021-05-17T14:24:53Z</time>
      </trkpt>
      <trkpt lat="41.6613360" lon="-8.7894620">
        <ele>21.3</ele>
        <time>2021-05-17T14:24:54Z</time>
      </trkpt>
      <trkpt lat="41.6613380" lon="-8.7894830">
        <ele>21.3</ele>
        <time>2021-05-17T14:24:55Z</time>
      </trkpt>
      <trkpt lat="41.6613400" lon="-8.7895110">
        <ele>21.3</ele>
        <time>2021-05-17T14:24:56Z</time>
      </trkpt>
      <trkpt lat="41.6613380" lon="-8.7895220">
        <ele>21.3</ele>
        <time>2021-05-17T14:24:57Z</time>
      </trkpt>
      <trkpt lat="41.6613350" lon="-8.7895320">
        <ele>21.3</ele>
        <time>2021-05-17T14:24:58Z</time>
      </trkpt>
      <trkpt lat="41.6613390" lon="-8.7895740">
        <ele>21.3</ele>
        <time>2021-05-17T14:24:59Z</time>
      </trkpt>
      <trkpt lat="41.6613390" lon="-8.7895880">
        <ele>21.3</ele>
        <time>2021-05-17T14:25:00Z</time>
      </trkpt>
      <trkpt lat="41.6613400" lon="-8.7896090">
        <ele>21.3</ele>
        <time>2021-05-17T14:25:01Z</time>
      </trkpt>
      <trkpt lat="41.6613430" lon="-8.7896280">
        <ele>21.3</ele>
        <time>2021-05-17T14:25:02Z</time>
      </trkpt>
      <trkpt lat="41.6613440" lon="-8.7896470">
        <ele>21.3</ele>
        <time>2021-05-17T14:25:03Z</time>
      </trkpt>
      <trkpt lat="41.6613380" lon="-8.7896710">
        <ele>21.3</ele>
        <time>2021-05-17T14:25:04Z</time>
      </trkpt>
      <trkpt lat="41.6613440" lon="-8.7896920">
        <ele>21.3</ele>
        <time>2021-05-17T14:25:05Z</time>
      </trkpt>
      <trkpt lat="41.6613410" lon="-8.7897150">
        <ele>21.3</ele>
        <time>2021-05-17T14:25:06Z</time>
      </trkpt>
      <trkpt lat="41.6613370" lon="-8.7897360">
        <ele>21.3</ele>
        <time>2021-05-17T14:25:07Z</time>
      </trkpt>
      <trkpt lat="41.6613410" lon="-8.7897580">
        <ele>21.4</ele>
        <time>2021-05-17T14:25:08Z</time>
      </trkpt>
      <trkpt lat="41.6613430" lon="-8.7897770">
        <ele>21.4</ele>
        <time>2021-05-17T14:25:09Z</time>
      </trkpt>
      <trkpt lat="41.6613490" lon="-8.7897960">
        <ele>21.4</ele>
        <time>2021-05-17T14:25:10Z</time>
      </trkpt>
      <trkpt lat="41.6613600" lon="-8.7898110">
        <ele>21.4</ele>
        <time>2021-05-17T14:25:11Z</time>
      </trkpt>
      <trkpt lat="41.6613630" lon="-8.7898320">
        <ele>21.4</ele>
        <time>2021-05-17T14:25:12Z</time>
      </trkpt>
      <trkpt lat="41.6613810" lon="-8.7898510">
        <ele>21.4</ele>
        <time>2021-05-17T14:25:13Z</time>
      </trkpt>
      <trkpt lat="41.6613900" lon="-8.7898540">
        <ele>21.4</ele>
        <time>2021-05-17T14:25:14Z</time>
      </trkpt>
      <trkpt lat="41.6614000" lon="-8.7898580">
        <ele>21.4</ele>
        <time>2021-05-17T14:25:15Z</time>
      </trkpt>
      <trkpt lat="41.6614110" lon="-8.7898740">
        <ele>21.4</ele>
        <time>2021-05-17T14:25:16Z</time>
      </trkpt>
      <trkpt lat="41.6614180" lon="-8.7898880">
        <ele>21.4</ele>
        <time>2021-05-17T14:25:17Z</time>
      </trkpt>
      <trkpt lat="41.6614270" lon="-8.7898970">
        <ele>21.4</ele>
        <time>2021-05-17T14:25:18Z</time>
      </trkpt>
      <trkpt lat="41.6614340" lon="-8.7899100">
        <ele>21.4</ele>
        <time>2021-05-17T14:25:19Z</time>
      </trkpt>
      <trkpt lat="41.6614420" lon="-8.7899180">
        <ele>21.4</ele>
        <time>2021-05-17T14:25:20Z</time>
      </trkpt>
      <trkpt lat="41.6614410" lon="-8.7899330">
        <ele>21.4</ele>
        <time>2021-05-17T14:25:21Z</time>
      </trkpt>
      <trkpt lat="41.6614440" lon="-8.7899600">
        <ele>21.4</ele>
        <time>2021-05-17T14:25:22Z</time>
      </trkpt>
      <trkpt lat="41.6614470" lon="-8.7899760">
        <ele>21.5</ele>
        <time>2021-05-17T14:25:23Z</time>
      </trkpt>
      <trkpt lat="41.6614480" lon="-8.7899880">
        <ele>21.5</ele>
        <time>2021-05-17T14:25:24Z</time>
      </trkpt>
      <trkpt lat="41.6614570" lon="-8.7900000">
        <ele>21.5</ele>
        <time>2021-05-17T14:25:25Z</time>
      </trkpt>
      <trkpt lat="41.6614580" lon="-8.7900140">
        <ele>21.5</ele>
        <time>2021-05-17T14:25:26Z</time>
      </trkpt>
      <trkpt lat="41.6614670" lon="-8.7900310">
        <ele>21.5</ele>
        <time>2021-05-17T14:25:27Z</time>
      </trkpt>
      <trkpt lat="41.6614690" lon="-8.7900430">
        <ele>21.5</ele>
        <time>2021-05-17T14:25:28Z</time>
      </trkpt>
      <trkpt lat="41.6614810" lon="-8.7900640">
        <ele>21.5</ele>
        <time>2021-05-17T14:25:29Z</time>
      </trkpt>
      <trkpt lat="41.6614840" lon="-8.7900760">
        <ele>21.5</ele>
        <time>2021-05-17T14:25:30Z</time>
      </trkpt>
      <trkpt lat="41.6614870" lon="-8.7900870">
        <ele>21.5</ele>
        <time>2021-05-17T14:25:31Z</time>
      </trkpt>
      <trkpt lat="41.6614900" lon="-8.7900990">
        <ele>21.5</ele>
        <time>2021-05-17T14:25:32Z</time>
      </trkpt>
      <trkpt lat="41.6614940" lon="-8.7901130">
        <ele>21.5</ele>
        <time>2021-05-17T14:25:33Z</time>
      </trkpt>
      <trkpt lat="41.6614920" lon="-8.7901330">
        <ele>21.6</ele>
        <time>2021-05-17T14:25:34Z</time>
      </trkpt>
      <trkpt lat="41.6614920" lon="-8.7901440">
        <ele>21.6</ele>
        <time>2021-05-17T14:25:35Z</time>
      </trkpt>
      <trkpt lat="41.6615010" lon="-8.7901630">
        <ele>21.6</ele>
        <time>2021-05-17T14:25:36Z</time>
      </trkpt>
      <trkpt lat="41.6615020" lon="-8.7901750">
        <ele>21.6</ele>
        <time>2021-05-17T14:25:37Z</time>
      </trkpt>
      <trkpt lat="41.6615060" lon="-8.7901880">
        <ele>21.6</ele>
        <time>2021-05-17T14:25:38Z</time>
      </trkpt>
      <trkpt lat="41.6615100" lon="-8.7902100">
        <ele>21.6</ele>
        <time>2021-05-17T14:25:39Z</time>
      </trkpt>
      <trkpt lat="41.6615130" lon="-8.7902260">
        <ele>21.6</ele>
        <time>2021-05-17T14:25:40Z</time>
      </trkpt>
      <trkpt lat="41.6615160" lon="-8.7902390">
        <ele>21.6</ele>
        <time>2021-05-17T14:25:41Z</time>
      </trkpt>
      <trkpt lat="41.6615230" lon="-8.7902590">
        <ele>21.7</ele>
        <time>2021-05-17T14:25:42Z</time>
      </trkpt>
      <trkpt lat="41.6615310" lon="-8.7902790">
        <ele>21.7</ele>
        <time>2021-05-17T14:25:43Z</time>
      </trkpt>
      <trkpt lat="41.6615380" lon="-8.7902960">
        <ele>21.7</ele>
        <time>2021-05-17T14:25:44Z</time>
      </trkpt>
      <trkpt lat="41.6615400" lon="-8.7903210">
        <ele>21.7</ele>
        <time>2021-05-17T14:25:45Z</time>
      </trkpt>
      <trkpt lat="41.6615470" lon="-8.7903370">
        <ele>21.7</ele>
        <time>2021-05-17T14:25:46Z</time>
      </trkpt>
      <trkpt lat="41.6615490" lon="-8.7903560">
        <ele>21.7</ele>
        <time>2021-05-17T14:25:47Z</time>
      </trkpt>
      <trkpt lat="41.6615500" lon="-8.7903770">
        <ele>21.7</ele>
        <time>2021-05-17T14:25:48Z</time>
      </trkpt>
      <trkpt lat="41.6615520" lon="-8.7904000">
        <ele>21.8</ele>
        <time>2021-05-17T14:25:49Z</time>
      </trkpt>
      <trkpt lat="41.6615510" lon="-8.7904210">
        <ele>21.8</ele>
        <time>2021-05-17T14:25:50Z</time>
      </trkpt>
      <trkpt lat="41.6615580" lon="-8.7904380">
        <ele>21.8</ele>
        <time>2021-05-17T14:25:51Z</time>
      </trkpt>
      <trkpt lat="41.6615590" lon="-8.7904590">
        <ele>21.8</ele>
        <time>2021-05-17T14:25:52Z</time>
      </trkpt>
      <trkpt lat="41.6615660" lon="-8.7904740">
        <ele>21.8</ele>
        <time>2021-05-17T14:25:53Z</time>
      </trkpt>
      <trkpt lat="41.6615690" lon="-8.7904950">
        <ele>21.8</ele>
        <time>2021-05-17T14:25:54Z</time>
      </trkpt>
      <trkpt lat="41.6615740" lon="-8.7905130">
        <ele>21.9</ele>
        <time>2021-05-17T14:25:55Z</time>
      </trkpt>
      <trkpt lat="41.6615750" lon="-8.7905320">
        <ele>21.9</ele>
        <time>2021-05-17T14:25:56Z</time>
      </trkpt>
      <trkpt lat="41.6615720" lon="-8.7905520">
        <ele>21.9</ele>
        <time>2021-05-17T14:25:57Z</time>
      </trkpt>
      <trkpt lat="41.6615720" lon="-8.7905690">
        <ele>21.9</ele>
        <time>2021-05-17T14:25:58Z</time>
      </trkpt>
      <trkpt lat="41.6615760" lon="-8.7905840">
        <ele>21.9</ele>
        <time>2021-05-17T14:25:59Z</time>
      </trkpt>
      <trkpt lat="41.6615830" lon="-8.7905970">
        <ele>21.9</ele>
        <time>2021-05-17T14:26:00Z</time>
      </trkpt>
      <trkpt lat="41.6615870" lon="-8.7906090">
        <ele>21.9</ele>
        <time>2021-05-17T14:26:01Z</time>
      </trkpt>
      <trkpt lat="41.6615830" lon="-8.7906210">
        <ele>21.9</ele>
        <time>2021-05-17T14:26:02Z</time>
      </trkpt>
      <trkpt lat="41.6615900" lon="-8.7906340">
        <ele>22.0</ele>
        <time>2021-05-17T14:26:03Z</time>
      </trkpt>
      <trkpt lat="41.6615940" lon="-8.7906500">
        <ele>22.0</ele>
        <time>2021-05-17T14:26:04Z</time>
      </trkpt>
      <trkpt lat="41.6615940" lon="-8.7906610">
        <ele>22.0</ele>
        <time>2021-05-17T14:26:05Z</time>
      </trkpt>
      <trkpt lat="41.6616010" lon="-8.7906770">
        <ele>22.0</ele>
        <time>2021-05-17T14:26:06Z</time>
      </trkpt>
      <trkpt lat="41.6615990" lon="-8.7906890">
        <ele>22.0</ele>
        <time>2021-05-17T14:26:07Z</time>
      </trkpt>
      <trkpt lat="41.6616050" lon="-8.7907100">
        <ele>22.0</ele>
        <time>2021-05-17T14:26:08Z</time>
      </trkpt>
      <trkpt lat="41.6616120" lon="-8.7907240">
        <ele>22.0</ele>
        <time>2021-05-17T14:26:09Z</time>
      </trkpt>
      <trkpt lat="41.6616130" lon="-8.7907380">
        <ele>22.0</ele>
        <time>2021-05-17T14:26:10Z</time>
      </trkpt>
      <trkpt lat="41.6616200" lon="-8.7907640">
        <ele>22.1</ele>
        <time>2021-05-17T14:26:11Z</time>
      </trkpt>
      <trkpt lat="41.6616220" lon="-8.7907840">
        <ele>22.1</ele>
        <time>2021-05-17T14:26:12Z</time>
      </trkpt>
      <trkpt lat="41.6616300" lon="-8.7908030">
        <ele>22.1</ele>
        <time>2021-05-17T14:26:13Z</time>
      </trkpt>
      <trkpt lat="41.6616390" lon="-8.7908210">
        <ele>22.1</ele>
        <time>2021-05-17T14:26:14Z</time>
      </trkpt>
      <trkpt lat="41.6616440" lon="-8.7908410">
        <ele>22.2</ele>
        <time>2021-05-17T14:26:15Z</time>
      </trkpt>
      <trkpt lat="41.6616520" lon="-8.7908590">
        <ele>22.2</ele>
        <time>2021-05-17T14:26:16Z</time>
      </trkpt>
      <trkpt lat="41.6616580" lon="-8.7908730">
        <ele>22.2</ele>
        <time>2021-05-17T14:26:17Z</time>
      </trkpt>
      <trkpt lat="41.6616730" lon="-8.7908870">
        <ele>22.2</ele>
        <time>2021-05-17T14:26:18Z</time>
      </trkpt>
      <trkpt lat="41.6616740" lon="-8.7909070">
        <ele>22.2</ele>
        <time>2021-05-17T14:26:19Z</time>
      </trkpt>
      <trkpt lat="41.6616830" lon="-8.7909200">
        <ele>22.3</ele>
        <time>2021-05-17T14:26:20Z</time>
      </trkpt>
      <trkpt lat="41.6616900" lon="-8.7909280">
        <ele>22.3</ele>
        <time>2021-05-17T14:26:21Z</time>
      </trkpt>
      <trkpt lat="41.6616980" lon="-8.7909330">
        <ele>22.3</ele>
        <time>2021-05-17T14:26:22Z</time>
      </trkpt>
      <trkpt lat="41.6617100" lon="-8.7909500">
        <ele>22.3</ele>
        <time>2021-05-17T14:26:23Z</time>
      </trkpt>
      <trkpt lat="41.6617170" lon="-8.7909560">
        <ele>22.3</ele>
        <time>2021-05-17T14:26:24Z</time>
      </trkpt>
      <trkpt lat="41.6617240" lon="-8.7909630">
        <ele>22.4</ele>
        <time>2021-05-17T14:26:25Z</time>
      </trkpt>
      <trkpt lat="41.6617310" lon="-8.7909700">
        <ele>22.4</ele>
        <time>2021-05-17T14:26:26Z</time>
      </trkpt>
      <trkpt lat="41.6617360" lon="-8.7909710">
        <ele>22.4</ele>
        <time>2021-05-17T14:26:27Z</time>
      </trkpt>
      <trkpt lat="41.6617450" lon="-8.7909780">
        <ele>22.4</ele>
        <time>2021-05-17T14:26:28Z</time>
      </trkpt>
      <trkpt lat="41.6617510" lon="-8.7909860">
        <ele>22.4</ele>
        <time>2021-05-17T14:26:29Z</time>
      </trkpt>
      <trkpt lat="41.6617590" lon="-8.7909970">
        <ele>22.4</ele>
        <time>2021-05-17T14:26:30Z</time>
      </trkpt>
      <trkpt lat="41.6617750" lon="-8.7910130">
        <ele>22.5</ele>
        <time>2021-05-17T14:26:31Z</time>
      </trkpt>
      <trkpt lat="41.6617790" lon="-8.7910200">
        <ele>22.5</ele>
        <time>2021-05-17T14:26:32Z</time>
      </trkpt>
      <trkpt lat="41.6617790" lon="-8.7910180">
        <ele>22.5</ele>
        <time>2021-05-17T14:26:33Z</time>
      </trkpt>
      <trkpt lat="41.6617940" lon="-8.7910380">
        <ele>22.5</ele>
        <time>2021-05-17T14:26:34Z</time>
      </trkpt>
      <trkpt lat="41.6617990" lon="-8.7910480">
        <ele>22.5</ele>
        <time>2021-05-17T14:26:35Z</time>
      </trkpt>
      <trkpt lat="41.6618110" lon="-8.7910630">
        <ele>22.6</ele>
        <time>2021-05-17T14:26:36Z</time>
      </trkpt>
      <trkpt lat="41.6618200" lon="-8.7910760">
        <ele>22.6</ele>
        <time>2021-05-17T14:26:37Z</time>
      </trkpt>
      <trkpt lat="41.6618290" lon="-8.7910930">
        <ele>22.6</ele>
        <time>2021-05-17T14:26:38Z</time>
      </trkpt>
      <trkpt lat="41.6618340" lon="-8.7910970">
        <ele>22.6</ele>
        <time>2021-05-17T14:26:39Z</time>
      </trkpt>
      <trkpt lat="41.6618430" lon="-8.7911070">
        <ele>22.6</ele>
        <time>2021-05-17T14:26:40Z</time>
      </trkpt>
      <trkpt lat="41.6618640" lon="-8.7911250">
        <ele>22.7</ele>
        <time>2021-05-17T14:26:41Z</time>
      </trkpt>
      <trkpt lat="41.6618700" lon="-8.7911330">
        <ele>22.7</ele>
        <time>2021-05-17T14:26:42Z</time>
      </trkpt>
      <trkpt lat="41.6618810" lon="-8.7911410">
        <ele>22.7</ele>
        <time>2021-05-17T14:26:43Z</time>
      </trkpt>
      <trkpt lat="41.6618930" lon="-8.7911510">
        <ele>22.7</ele>
        <time>2021-05-17T14:26:44Z</time>
      </trkpt>
      <trkpt lat="41.6619150" lon="-8.7911840">
        <ele>22.8</ele>
        <time>2021-05-17T14:26:45Z</time>
      </trkpt>
      <trkpt lat="41.6619200" lon="-8.7911940">
        <ele>22.8</ele>
        <time>2021-05-17T14:26:46Z</time>
      </trkpt>
      <trkpt lat="41.6619340" lon="-8.7912080">
        <ele>22.8</ele>
        <time>2021-05-17T14:26:47Z</time>
      </trkpt>
      <trkpt lat="41.6619470" lon="-8.7912250">
        <ele>22.9</ele>
        <time>2021-05-17T14:26:48Z</time>
      </trkpt>
      <trkpt lat="41.6619600" lon="-8.7912430">
        <ele>22.9</ele>
        <time>2021-05-17T14:26:49Z</time>
      </trkpt>
      <trkpt lat="41.6619700" lon="-8.7912620">
        <ele>22.9</ele>
        <time>2021-05-17T14:26:50Z</time>
      </trkpt>
      <trkpt lat="41.6619850" lon="-8.7912750">
        <ele>23.0</ele>
        <time>2021-05-17T14:26:51Z</time>
      </trkpt>
      <trkpt lat="41.6620010" lon="-8.7912840">
        <ele>23.0</ele>
        <time>2021-05-17T14:26:52Z</time>
      </trkpt>
      <trkpt lat="41.6620110" lon="-8.7913010">
        <ele>23.0</ele>
        <time>2021-05-17T14:26:53Z</time>
      </trkpt>
      <trkpt lat="41.6620230" lon="-8.7913110">
        <ele>23.1</ele>
        <time>2021-05-17T14:26:54Z</time>
      </trkpt>
      <trkpt lat="41.6620370" lon="-8.7913340">
        <ele>23.1</ele>
        <time>2021-05-17T14:26:55Z</time>
      </trkpt>
      <trkpt lat="41.6620430" lon="-8.7913420">
        <ele>23.1</ele>
        <time>2021-05-17T14:26:56Z</time>
      </trkpt>
      <trkpt lat="41.6620490" lon="-8.7913490">
        <ele>23.1</ele>
        <time>2021-05-17T14:26:57Z</time>
      </trkpt>
      <trkpt lat="41.6620520" lon="-8.7913490">
        <ele>23.1</ele>
        <time>2021-05-17T14:26:58Z</time>
      </trkpt>
      <trkpt lat="41.6620600" lon="-8.7913610">
        <ele>23.2</ele>
        <time>2021-05-17T14:26:59Z</time>
      </trkpt>
      <trkpt lat="41.6620640" lon="-8.7913670">
        <ele>23.2</ele>
        <time>2021-05-17T14:27:00Z</time>
      </trkpt>
      <trkpt lat="41.6620680" lon="-8.7913830">
        <ele>23.2</ele>
        <time>2021-05-17T14:27:01Z</time>
      </trkpt>
      <trkpt lat="41.6620820" lon="-8.7914070">
        <ele>23.2</ele>
        <time>2021-05-17T14:27:02Z</time>
      </trkpt>
      <trkpt lat="41.6620880" lon="-8.7914190">
        <ele>23.3</ele>
        <time>2021-05-17T14:27:03Z</time>
      </trkpt>
      <trkpt lat="41.6620930" lon="-8.7914300">
        <ele>23.3</ele>
        <time>2021-05-17T14:27:04Z</time>
      </trkpt>
      <trkpt lat="41.6621070" lon="-8.7914520">
        <ele>23.3</ele>
        <time>2021-05-17T14:27:05Z</time>
      </trkpt>
      <trkpt lat="41.6621150" lon="-8.7914630">
        <ele>23.3</ele>
        <time>2021-05-17T14:27:06Z</time>
      </trkpt>
      <trkpt lat="41.6621220" lon="-8.7914740">
        <ele>23.4</ele>
        <time>2021-05-17T14:27:07Z</time>
      </trkpt>
      <trkpt lat="41.6621280" lon="-8.7914770">
        <ele>23.4</ele>
        <time>2021-05-17T14:27:08Z</time>
      </trkpt>
      <trkpt lat="41.6621380" lon="-8.7914920">
        <ele>23.4</ele>
        <time>2021-05-17T14:27:09Z</time>
      </trkpt>
      <trkpt lat="41.6621380" lon="-8.7915100">
        <ele>23.4</ele>
        <time>2021-05-17T14:27:10Z</time>
      </trkpt>
      <trkpt lat="41.6621460" lon="-8.7915250">
        <ele>23.5</ele>
        <time>2021-05-17T14:27:11Z</time>
      </trkpt>
      <trkpt lat="41.6621610" lon="-8.7915360">
        <ele>23.5</ele>
        <time>2021-05-17T14:27:12Z</time>
      </trkpt>
      <trkpt lat="41.6621670" lon="-8.7915530">
        <ele>23.5</ele>
        <time>2021-05-17T14:27:13Z</time>
      </trkpt>
      <trkpt lat="41.6621780" lon="-8.7915680">
        <ele>23.5</ele>
        <time>2021-05-17T14:27:14Z</time>
      </trkpt>
      <trkpt lat="41.6621830" lon="-8.7915890">
        <ele>23.5</ele>
        <time>2021-05-17T14:27:15Z</time>
      </trkpt>
      <trkpt lat="41.6621890" lon="-8.7916010">
        <ele>23.5</ele>
        <time>2021-05-17T14:27:16Z</time>
      </trkpt>
      <trkpt lat="41.6621940" lon="-8.7916120">
        <ele>23.5</ele>
        <time>2021-05-17T14:27:17Z</time>
      </trkpt>
      <trkpt lat="41.6622080" lon="-8.7916400">
        <ele>23.6</ele>
        <time>2021-05-17T14:27:18Z</time>
      </trkpt>
      <trkpt lat="41.6622140" lon="-8.7916540">
        <ele>23.6</ele>
        <time>2021-05-17T14:27:19Z</time>
      </trkpt>
      <trkpt lat="41.6622200" lon="-8.7916690">
        <ele>23.6</ele>
        <time>2021-05-17T14:27:20Z</time>
      </trkpt>
      <trkpt lat="41.6622300" lon="-8.7916880">
        <ele>23.6</ele>
        <time>2021-05-17T14:27:21Z</time>
      </trkpt>
      <trkpt lat="41.6622370" lon="-8.7917060">
        <ele>23.6</ele>
        <time>2021-05-17T14:27:22Z</time>
      </trkpt>
      <trkpt lat="41.6622430" lon="-8.7917200">
        <ele>23.7</ele>
        <time>2021-05-17T14:27:23Z</time>
      </trkpt>
      <trkpt lat="41.6622460" lon="-8.7917370">
        <ele>23.7</ele>
        <time>2021-05-17T14:27:24Z</time>
      </trkpt>
      <trkpt lat="41.6622470" lon="-8.7917480">
        <ele>23.7</ele>
        <time>2021-05-17T14:27:25Z</time>
      </trkpt>
      <trkpt lat="41.6622540" lon="-8.7917610">
        <ele>23.7</ele>
        <time>2021-05-17T14:27:26Z</time>
      </trkpt>
      <trkpt lat="41.6622590" lon="-8.7917730">
        <ele>23.7</ele>
        <time>2021-05-17T14:27:27Z</time>
      </trkpt>
      <trkpt lat="41.6622630" lon="-8.7917890">
        <ele>23.7</ele>
        <time>2021-05-17T14:27:28Z</time>
      </trkpt>
      <trkpt lat="41.6622690" lon="-8.7918030">
        <ele>23.8</ele>
        <time>2021-05-17T14:27:29Z</time>
      </trkpt>
      <trkpt lat="41.6622750" lon="-8.7918040">
        <ele>23.8</ele>
        <time>2021-05-17T14:27:30Z</time>
      </trkpt>
      <trkpt lat="41.6622840" lon="-8.7918230">
        <ele>23.8</ele>
        <time>2021-05-17T14:27:31Z</time>
      </trkpt>
      <trkpt lat="41.6622880" lon="-8.7918430">
        <ele>23.9</ele>
        <time>2021-05-17T14:27:32Z</time>
      </trkpt>
      <trkpt lat="41.6622940" lon="-8.7918620">
        <ele>23.9</ele>
        <time>2021-05-17T14:27:33Z</time>
      </trkpt>
      <trkpt lat="41.6623060" lon="-8.7918860">
        <ele>24.0</ele>
        <time>2021-05-17T14:27:34Z</time>
      </trkpt>
      <trkpt lat="41.6623120" lon="-8.7918920">
        <ele>24.0</ele>
        <time>2021-05-17T14:27:35Z</time>
      </trkpt>
      <trkpt lat="41.6623190" lon="-8.7918990">
        <ele>24.0</ele>
        <time>2021-05-17T14:27:36Z</time>
      </trkpt>
      <trkpt lat="41.6623270" lon="-8.7919140">
        <ele>24.0</ele>
        <time>2021-05-17T14:27:37Z</time>
      </trkpt>
      <trkpt lat="41.6623410" lon="-8.7919300">
        <ele>24.1</ele>
        <time>2021-05-17T14:27:38Z</time>
      </trkpt>
      <trkpt lat="41.6623440" lon="-8.7919400">
        <ele>24.1</ele>
        <time>2021-05-17T14:27:39Z</time>
      </trkpt>
      <trkpt lat="41.6623520" lon="-8.7919520">
        <ele>24.2</ele>
        <time>2021-05-17T14:27:40Z</time>
      </trkpt>
      <trkpt lat="41.6623600" lon="-8.7919610">
        <ele>24.2</ele>
        <time>2021-05-17T14:27:41Z</time>
      </trkpt>
      <trkpt lat="41.6623770" lon="-8.7919900">
        <ele>24.3</ele>
        <time>2021-05-17T14:27:42Z</time>
      </trkpt>
      <trkpt lat="41.6623830" lon="-8.7920020">
        <ele>24.3</ele>
        <time>2021-05-17T14:27:43Z</time>
      </trkpt>
      <trkpt lat="41.6623990" lon="-8.7920140">
        <ele>24.4</ele>
        <time>2021-05-17T14:27:44Z</time>
      </trkpt>
      <trkpt lat="41.6624040" lon="-8.7920280">
        <ele>24.4</ele>
        <time>2021-05-17T14:27:45Z</time>
      </trkpt>
      <trkpt lat="41.6624100" lon="-8.7920470">
        <ele>24.5</ele>
        <time>2021-05-17T14:27:46Z</time>
      </trkpt>
      <trkpt lat="41.6624170" lon="-8.7920620">
        <ele>24.5</ele>
        <time>2021-05-17T14:27:47Z</time>
      </trkpt>
      <trkpt lat="41.6624320" lon="-8.7920670">
        <ele>24.6</ele>
        <time>2021-05-17T14:27:48Z</time>
      </trkpt>
      <trkpt lat="41.6624370" lon="-8.7920760">
        <ele>24.6</ele>
        <time>2021-05-17T14:27:49Z</time>
      </trkpt>
      <trkpt lat="41.6624400" lon="-8.7920880">
        <ele>24.7</ele>
        <time>2021-05-17T14:27:50Z</time>
      </trkpt>
      <trkpt lat="41.6624450" lon="-8.7920990">
        <ele>24.7</ele>
        <time>2021-05-17T14:27:51Z</time>
      </trkpt>
      <trkpt lat="41.6624520" lon="-8.7921210">
        <ele>24.8</ele>
        <time>2021-05-17T14:27:52Z</time>
      </trkpt>
      <trkpt lat="41.6624550" lon="-8.7921450">
        <ele>24.9</ele>
        <time>2021-05-17T14:27:53Z</time>
      </trkpt>
      <trkpt lat="41.6624530" lon="-8.7921590">
        <ele>24.9</ele>
        <time>2021-05-17T14:27:54Z</time>
      </trkpt>
      <trkpt lat="41.6624500" lon="-8.7921740">
        <ele>25.0</ele>
        <time>2021-05-17T14:27:55Z</time>
      </trkpt>
      <trkpt lat="41.6624430" lon="-8.7922010">
        <ele>25.0</ele>
        <time>2021-05-17T14:27:56Z</time>
      </trkpt>
      <trkpt lat="41.6624330" lon="-8.7922200">
        <ele>25.1</ele>
        <time>2021-05-17T14:27:57Z</time>
      </trkpt>
      <trkpt lat="41.6624240" lon="-8.7922390">
        <ele>25.2</ele>
        <time>2021-05-17T14:27:58Z</time>
      </trkpt>
      <trkpt lat="41.6624120" lon="-8.7922690">
        <ele>25.3</ele>
        <time>2021-05-17T14:27:59Z</time>
      </trkpt>
      <trkpt lat="41.6624090" lon="-8.7922790">
        <ele>25.3</ele>
        <time>2021-05-17T14:28:00Z</time>
      </trkpt>
      <trkpt lat="41.6624070" lon="-8.7922900">
        <ele>25.4</ele>
        <time>2021-05-17T14:28:01Z</time>
      </trkpt>
      <trkpt lat="41.6624050" lon="-8.7923130">
        <ele>25.4</ele>
        <time>2021-05-17T14:28:02Z</time>
      </trkpt>
      <trkpt lat="41.6624110" lon="-8.7923350">
        <ele>25.5</ele>
        <time>2021-05-17T14:28:03Z</time>
      </trkpt>
      <trkpt lat="41.6624180" lon="-8.7923430">
        <ele>25.6</ele>
        <time>2021-05-17T14:28:04Z</time>
      </trkpt>
      <trkpt lat="41.6624220" lon="-8.7923620">
        <ele>25.7</ele>
        <time>2021-05-17T14:28:05Z</time>
      </trkpt>
      <trkpt lat="41.6624280" lon="-8.7923750">
        <ele>25.8</ele>
        <time>2021-05-17T14:28:06Z</time>
      </trkpt>
      <trkpt lat="41.6624340" lon="-8.7923840">
        <ele>25.9</ele>
        <time>2021-05-17T14:28:07Z</time>
      </trkpt>
      <trkpt lat="41.6624380" lon="-8.7923960">
        <ele>25.9</ele>
        <time>2021-05-17T14:28:08Z</time>
      </trkpt>
      <trkpt lat="41.6624480" lon="-8.7924070">
        <ele>26.0</ele>
        <time>2021-05-17T14:28:09Z</time>
      </trkpt>
      <trkpt lat="41.6624600" lon="-8.7924190">
        <ele>26.1</ele>
        <time>2021-05-17T14:28:10Z</time>
      </trkpt>
      <trkpt lat="41.6624690" lon="-8.7924300">
        <ele>26.1</ele>
        <time>2021-05-17T14:28:11Z</time>
      </trkpt>
      <trkpt lat="41.6624800" lon="-8.7924470">
        <ele>26.2</ele>
        <time>2021-05-17T14:28:12Z</time>
      </trkpt>
      <trkpt lat="41.6624860" lon="-8.7924580">
        <ele>26.3</ele>
        <time>2021-05-17T14:28:13Z</time>
      </trkpt>
      <trkpt lat="41.6624920" lon="-8.7924680">
        <ele>26.3</ele>
        <time>2021-05-17T14:28:14Z</time>
      </trkpt>
      <trkpt lat="41.6625000" lon="-8.7924790">
        <ele>26.4</ele>
        <time>2021-05-17T14:28:15Z</time>
      </trkpt>
      <trkpt lat="41.6625070" lon="-8.7924820">
        <ele>26.4</ele>
        <time>2021-05-17T14:28:16Z</time>
      </trkpt>
      <trkpt lat="41.6625150" lon="-8.7924970">
        <ele>26.5</ele>
        <time>2021-05-17T14:28:17Z</time>
      </trkpt>
      <trkpt lat="41.6625300" lon="-8.7925180">
        <ele>26.6</ele>
        <time>2021-05-17T14:28:18Z</time>
      </trkpt>
      <trkpt lat="41.6625360" lon="-8.7925250">
        <ele>26.6</ele>
        <time>2021-05-17T14:28:19Z</time>
      </trkpt>
      <trkpt lat="41.6625420" lon="-8.7925330">
        <ele>26.7</ele>
        <time>2021-05-17T14:28:20Z</time>
      </trkpt>
      <trkpt lat="41.6625490" lon="-8.7925480">
        <ele>26.8</ele>
        <time>2021-05-17T14:28:21Z</time>
      </trkpt>
      <trkpt lat="41.6625570" lon="-8.7925650">
        <ele>26.8</ele>
        <time>2021-05-17T14:28:22Z</time>
      </trkpt>
      <trkpt lat="41.6625690" lon="-8.7925770">
        <ele>26.9</ele>
        <time>2021-05-17T14:28:23Z</time>
      </trkpt>
      <trkpt lat="41.6625650" lon="-8.7925840">
        <ele>27.0</ele>
        <time>2021-05-17T14:28:24Z</time>
      </trkpt>
      <trkpt lat="41.6625750" lon="-8.7926000">
        <ele>27.0</ele>
        <time>2021-05-17T14:28:25Z</time>
      </trkpt>
      <trkpt lat="41.6625820" lon="-8.7926190">
        <ele>27.1</ele>
        <time>2021-05-17T14:28:26Z</time>
      </trkpt>
      <trkpt lat="41.6625860" lon="-8.7926280">
        <ele>27.2</ele>
        <time>2021-05-17T14:28:27Z</time>
      </trkpt>
      <trkpt lat="41.6625970" lon="-8.7926300">
        <ele>27.2</ele>
        <time>2021-05-17T14:28:28Z</time>
      </trkpt>
      <trkpt lat="41.6626330" lon="-8.7926470">
        <ele>27.4</ele>
        <time>2021-05-17T14:28:29Z</time>
      </trkpt>
      <trkpt lat="41.6626450" lon="-8.7926520">
        <ele>27.5</ele>
        <time>2021-05-17T14:28:30Z</time>
      </trkpt>
      <trkpt lat="41.6626650" lon="-8.7926580">
        <ele>27.6</ele>
        <time>2021-05-17T14:28:31Z</time>
      </trkpt>
      <trkpt lat="41.6626800" lon="-8.7926650">
        <ele>27.7</ele>
        <time>2021-05-17T14:28:32Z</time>
      </trkpt>
      <trkpt lat="41.6627010" lon="-8.7926710">
        <ele>27.9</ele>
        <time>2021-05-17T14:28:33Z</time>
      </trkpt>
      <trkpt lat="41.6627150" lon="-8.7926810">
        <ele>28.0</ele>
        <time>2021-05-17T14:28:34Z</time>
      </trkpt>
      <trkpt lat="41.6627250" lon="-8.7926920">
        <ele>28.0</ele>
        <time>2021-05-17T14:28:35Z</time>
      </trkpt>
      <trkpt lat="41.6627330" lon="-8.7927060">
        <ele>28.1</ele>
        <time>2021-05-17T14:28:36Z</time>
      </trkpt>
      <trkpt lat="41.6627300" lon="-8.7927120">
        <ele>28.2</ele>
        <time>2021-05-17T14:28:37Z</time>
      </trkpt>
      <trkpt lat="41.6627480" lon="-8.7927330">
        <ele>28.3</ele>
        <time>2021-05-17T14:28:38Z</time>
      </trkpt>
      <trkpt lat="41.6627530" lon="-8.7927400">
        <ele>28.3</ele>
        <time>2021-05-17T14:28:39Z</time>
      </trkpt>
      <trkpt lat="41.6627590" lon="-8.7927470">
        <ele>28.4</ele>
        <time>2021-05-17T14:28:40Z</time>
      </trkpt>
      <trkpt lat="41.6627710" lon="-8.7927610">
        <ele>28.5</ele>
        <time>2021-05-17T14:28:41Z</time>
      </trkpt>
      <trkpt lat="41.6627770" lon="-8.7927680">
        <ele>28.6</ele>
        <time>2021-05-17T14:28:42Z</time>
      </trkpt>
      <trkpt lat="41.6627820" lon="-8.7927750">
        <ele>28.6</ele>
        <time>2021-05-17T14:28:43Z</time>
      </trkpt>
      <trkpt lat="41.6627880" lon="-8.7927820">
        <ele>28.7</ele>
        <time>2021-05-17T14:28:44Z</time>
      </trkpt>
      <trkpt lat="41.6627930" lon="-8.7928070">
        <ele>28.8</ele>
        <time>2021-05-17T14:28:45Z</time>
      </trkpt>
      <trkpt lat="41.6628010" lon="-8.7928250">
        <ele>28.9</ele>
        <time>2021-05-17T14:28:46Z</time>
      </trkpt>
      <trkpt lat="41.6628000" lon="-8.7928370">
        <ele>28.9</ele>
        <time>2021-05-17T14:28:47Z</time>
      </trkpt>
      <trkpt lat="41.6628020" lon="-8.7928400">
        <ele>29.0</ele>
        <time>2021-05-17T14:28:48Z</time>
      </trkpt>
      <trkpt lat="41.6628060" lon="-8.7928550">
        <ele>29.0</ele>
        <time>2021-05-17T14:28:49Z</time>
      </trkpt>
      <trkpt lat="41.6628090" lon="-8.7928650">
        <ele>29.1</ele>
        <time>2021-05-17T14:28:50Z</time>
      </trkpt>
      <trkpt lat="41.6628130" lon="-8.7928770">
        <ele>29.2</ele>
        <time>2021-05-17T14:28:51Z</time>
      </trkpt>
      <trkpt lat="41.6628210" lon="-8.7928900">
        <ele>29.3</ele>
        <time>2021-05-17T14:28:52Z</time>
      </trkpt>
      <trkpt lat="41.6628340" lon="-8.7928990">
        <ele>29.4</ele>
        <time>2021-05-17T14:28:53Z</time>
      </trkpt>
      <trkpt lat="41.6628470" lon="-8.7929090">
        <ele>29.5</ele>
        <time>2021-05-17T14:28:54Z</time>
      </trkpt>
      <trkpt lat="41.6628530" lon="-8.7929080">
        <ele>29.5</ele>
        <time>2021-05-17T14:28:55Z</time>
      </trkpt>
      <trkpt lat="41.6628570" lon="-8.7929210">
        <ele>29.6</ele>
        <time>2021-05-17T14:28:56Z</time>
      </trkpt>
      <trkpt lat="41.6628640" lon="-8.7929310">
        <ele>29.7</ele>
        <time>2021-05-17T14:28:57Z</time>
      </trkpt>
      <trkpt lat="41.6628710" lon="-8.7929360">
        <ele>29.7</ele>
        <time>2021-05-17T14:28:58Z</time>
      </trkpt>
      <trkpt lat="41.6628780" lon="-8.7929470">
        <ele>29.8</ele>
        <time>2021-05-17T14:28:59Z</time>
      </trkpt>
      <trkpt lat="41.6628920" lon="-8.7929580">
        <ele>29.9</ele>
        <time>2021-05-17T14:29:00Z</time>
      </trkpt>
      <trkpt lat="41.6628980" lon="-8.7929610">
        <ele>30.0</ele>
        <time>2021-05-17T14:29:01Z</time>
      </trkpt>
      <trkpt lat="41.6629050" lon="-8.7929640">
        <ele>30.0</ele>
        <time>2021-05-17T14:29:02Z</time>
      </trkpt>
      <trkpt lat="41.6629110" lon="-8.7929670">
        <ele>30.1</ele>
        <time>2021-05-17T14:29:03Z</time>
      </trkpt>
      <trkpt lat="41.6629240" lon="-8.7929750">
        <ele>30.2</ele>
        <time>2021-05-17T14:29:04Z</time>
      </trkpt>
      <trkpt lat="41.6629310" lon="-8.7929750">
        <ele>30.3</ele>
        <time>2021-05-17T14:29:05Z</time>
      </trkpt>
      <trkpt lat="41.6629370" lon="-8.7929760">
        <ele>30.3</ele>
        <time>2021-05-17T14:29:06Z</time>
      </trkpt>
      <trkpt lat="41.6629440" lon="-8.7929760">
        <ele>30.4</ele>
        <time>2021-05-17T14:29:07Z</time>
      </trkpt>
      <trkpt lat="41.6629510" lon="-8.7929760">
        <ele>30.4</ele>
        <time>2021-05-17T14:29:08Z</time>
      </trkpt>
      <trkpt lat="41.6629800" lon="-8.7929810">
        <ele>30.7</ele>
        <time>2021-05-17T14:29:09Z</time>
      </trkpt>
      <trkpt lat="41.6629910" lon="-8.7929790">
        <ele>30.8</ele>
        <time>2021-05-17T14:29:10Z</time>
      </trkpt>
      <trkpt lat="41.6630000" lon="-8.7929980">
        <ele>31.0</ele>
        <time>2021-05-17T14:29:11Z</time>
      </trkpt>
      <trkpt lat="41.6630110" lon="-8.7930080">
        <ele>31.1</ele>
        <time>2021-05-17T14:29:12Z</time>
      </trkpt>
      <trkpt lat="41.6630190" lon="-8.7930220">
        <ele>31.2</ele>
        <time>2021-05-17T14:29:13Z</time>
      </trkpt>
      <trkpt lat="41.6630340" lon="-8.7930350">
        <ele>31.4</ele>
        <time>2021-05-17T14:29:14Z</time>
      </trkpt>
      <trkpt lat="41.6630530" lon="-8.7930440">
        <ele>31.6</ele>
        <time>2021-05-17T14:29:15Z</time>
      </trkpt>
      <trkpt lat="41.6630640" lon="-8.7930540">
        <ele>31.7</ele>
        <time>2021-05-17T14:29:16Z</time>
      </trkpt>
      <trkpt lat="41.6630790" lon="-8.7930660">
        <ele>31.8</ele>
        <time>2021-05-17T14:29:17Z</time>
      </trkpt>
      <trkpt lat="41.6630890" lon="-8.7930830">
        <ele>32.0</ele>
        <time>2021-05-17T14:29:18Z</time>
      </trkpt>
      <trkpt lat="41.6631020" lon="-8.7931000">
        <ele>32.1</ele>
        <time>2021-05-17T14:29:19Z</time>
      </trkpt>
      <trkpt lat="41.6631070" lon="-8.7931140">
        <ele>32.3</ele>
        <time>2021-05-17T14:29:20Z</time>
      </trkpt>
      <trkpt lat="41.6631180" lon="-8.7931280">
        <ele>32.4</ele>
        <time>2021-05-17T14:29:21Z</time>
      </trkpt>
      <trkpt lat="41.6631200" lon="-8.7931400">
        <ele>32.5</ele>
        <time>2021-05-17T14:29:22Z</time>
      </trkpt>
      <trkpt lat="41.6631170" lon="-8.7931570">
        <ele>32.6</ele>
        <time>2021-05-17T14:29:23Z</time>
      </trkpt>
      <trkpt lat="41.6630940" lon="-8.7931820">
        <ele>32.8</ele>
        <time>2021-05-17T14:29:24Z</time>
      </trkpt>
      <trkpt lat="41.6630860" lon="-8.7931890">
        <ele>32.9</ele>
        <time>2021-05-17T14:29:25Z</time>
      </trkpt>
      <trkpt lat="41.6630920" lon="-8.7932030">
        <ele>33.0</ele>
        <time>2021-05-17T14:29:26Z</time>
      </trkpt>
      <trkpt lat="41.6631000" lon="-8.7932230">
        <ele>33.2</ele>
        <time>2021-05-17T14:29:27Z</time>
      </trkpt>
      <trkpt lat="41.6631070" lon="-8.7932460">
        <ele>33.3</ele>
        <time>2021-05-17T14:29:28Z</time>
      </trkpt>
      <trkpt lat="41.6631110" lon="-8.7932580">
        <ele>33.4</ele>
        <time>2021-05-17T14:29:29Z</time>
      </trkpt>
      <trkpt lat="41.6631190" lon="-8.7932770">
        <ele>33.5</ele>
        <time>2021-05-17T14:29:30Z</time>
      </trkpt>
      <trkpt lat="41.6631210" lon="-8.7932860">
        <ele>33.6</ele>
        <time>2021-05-17T14:29:31Z</time>
      </trkpt>
      <trkpt lat="41.6631240" lon="-8.7932940">
        <ele>33.6</ele>
        <time>2021-05-17T14:29:32Z</time>
      </trkpt>
      <trkpt lat="41.6631260" lon="-8.7933030">
        <ele>33.7</ele>
        <time>2021-05-17T14:29:33Z</time>
      </trkpt>
      <trkpt lat="41.6631300" lon="-8.7933130">
        <ele>33.7</ele>
        <time>2021-05-17T14:29:34Z</time>
      </trkpt>
      <trkpt lat="41.6631290" lon="-8.7933270">
        <ele>33.8</ele>
        <time>2021-05-17T14:29:35Z</time>
      </trkpt>
      <trkpt lat="41.6631340" lon="-8.7933390">
        <ele>33.9</ele>
        <time>2021-05-17T14:29:36Z</time>
      </trkpt>
      <trkpt lat="41.6631400" lon="-8.7933510">
        <ele>34.0</ele>
        <time>2021-05-17T14:29:37Z</time>
      </trkpt>
      <trkpt lat="41.6631510" lon="-8.7933720">
        <ele>34.1</ele>
        <time>2021-05-17T14:29:38Z</time>
      </trkpt>
      <trkpt lat="41.6631560" lon="-8.7933850">
        <ele>34.2</ele>
        <time>2021-05-17T14:29:39Z</time>
      </trkpt>
      <trkpt lat="41.6631560" lon="-8.7933930">
        <ele>34.2</ele>
        <time>2021-05-17T14:29:40Z</time>
      </trkpt>
      <trkpt lat="41.6631650" lon="-8.7934090">
        <ele>34.3</ele>
        <time>2021-05-17T14:29:41Z</time>
      </trkpt>
      <trkpt lat="41.6631690" lon="-8.7934270">
        <ele>34.4</ele>
        <time>2021-05-17T14:29:42Z</time>
      </trkpt>
      <trkpt lat="41.6631740" lon="-8.7934440">
        <ele>34.5</ele>
        <time>2021-05-17T14:29:43Z</time>
      </trkpt>
      <trkpt lat="41.6631770" lon="-8.7934560">
        <ele>34.5</ele>
        <time>2021-05-17T14:29:44Z</time>
      </trkpt>
      <trkpt lat="41.6631850" lon="-8.7934650">
        <ele>34.6</ele>
        <time>2021-05-17T14:29:45Z</time>
      </trkpt>
      <trkpt lat="41.6631960" lon="-8.7934690">
        <ele>34.6</ele>
        <time>2021-05-17T14:29:46Z</time>
      </trkpt>
      <trkpt lat="41.6632060" lon="-8.7934730">
        <ele>34.7</ele>
        <time>2021-05-17T14:29:47Z</time>
      </trkpt>
      <trkpt lat="41.6632140" lon="-8.7934830">
        <ele>34.7</ele>
        <time>2021-05-17T14:29:48Z</time>
      </trkpt>
      <trkpt lat="41.6632200" lon="-8.7934900">
        <ele>34.8</ele>
        <time>2021-05-17T14:29:49Z</time>
      </trkpt>
      <trkpt lat="41.6632210" lon="-8.7935010">
        <ele>34.8</ele>
        <time>2021-05-17T14:29:50Z</time>
      </trkpt>
      <trkpt lat="41.6632230" lon="-8.7935020">
        <ele>34.8</ele>
        <time>2021-05-17T14:29:51Z</time>
      </trkpt>
      <trkpt lat="41.6632240" lon="-8.7935200">
        <ele>34.9</ele>
        <time>2021-05-17T14:29:52Z</time>
      </trkpt>
      <trkpt lat="41.6632280" lon="-8.7935370">
        <ele>35.0</ele>
        <time>2021-05-17T14:29:53Z</time>
      </trkpt>
      <trkpt lat="41.6632410" lon="-8.7935370">
        <ele>35.0</ele>
        <time>2021-05-17T14:29:54Z</time>
      </trkpt>
      <trkpt lat="41.6632580" lon="-8.7935270">
        <ele>35.2</ele>
        <time>2021-05-17T14:29:55Z</time>
      </trkpt>
      <trkpt lat="41.6632710" lon="-8.7935100">
        <ele>35.2</ele>
        <time>2021-05-17T14:29:56Z</time>
      </trkpt>
      <trkpt lat="41.6632790" lon="-8.7934980">
        <ele>35.2</ele>
        <time>2021-05-17T14:29:57Z</time>
      </trkpt>
      <trkpt lat="41.6632860" lon="-8.7934870">
        <ele>35.2</ele>
        <time>2021-05-17T14:29:58Z</time>
      </trkpt>
      <trkpt lat="41.6632880" lon="-8.7934650">
        <ele>35.2</ele>
        <time>2021-05-17T14:29:59Z</time>
      </trkpt>
      <trkpt lat="41.6632800" lon="-8.7934550">
        <ele>35.2</ele>
        <time>2021-05-17T14:30:00Z</time>
      </trkpt>
      <trkpt lat="41.6632750" lon="-8.7934520">
        <ele>35.2</ele>
        <time>2021-05-17T14:30:01Z</time>
      </trkpt>
      <trkpt lat="41.6632740" lon="-8.7934430">
        <ele>35.2</ele>
        <time>2021-05-17T14:30:02Z</time>
      </trkpt>
      <trkpt lat="41.6632770" lon="-8.7934410">
        <ele>35.3</ele>
        <time>2021-05-17T14:30:03Z</time>
      </trkpt>
      <trkpt lat="41.6632800" lon="-8.7934390">
        <ele>35.3</ele>
        <time>2021-05-17T14:30:04Z</time>
      </trkpt>
      <trkpt lat="41.6632820" lon="-8.7934370">
        <ele>35.3</ele>
        <time>2021-05-17T14:30:05Z</time>
      </trkpt>
      <trkpt lat="41.6632850" lon="-8.7934350">
        <ele>35.3</ele>
        <time>2021-05-17T14:30:06Z</time>
      </trkpt>
      <trkpt lat="41.6632880" lon="-8.7934330">
        <ele>35.3</ele>
        <time>2021-05-17T14:30:07Z</time>
      </trkpt>
      <trkpt lat="41.6632910" lon="-8.7934310">
        <ele>35.3</ele>
        <time>2021-05-17T14:30:08Z</time>
      </trkpt>
      <trkpt lat="41.6632940" lon="-8.7934290">
        <ele>35.3</ele>
        <time>2021-05-17T14:30:09Z</time>
      </trkpt>
      <trkpt lat="41.6632970" lon="-8.7934270">
        <ele>35.3</ele>
        <time>2021-05-17T14:30:10Z</time>
      </trkpt>
      <trkpt lat="41.6633000" lon="-8.7934250">
        <ele>35.3</ele>
        <time>2021-05-17T14:30:11Z</time>
      </trkpt>
      <trkpt lat="41.6633030" lon="-8.7934230">
        <ele>35.3</ele>
        <time>2021-05-17T14:30:12Z</time>
      </trkpt>
      <trkpt lat="41.6633050" lon="-8.7934210">
        <ele>35.3</ele>
        <time>2021-05-17T14:30:13Z</time>
      </trkpt>
      <trkpt lat="41.6633080" lon="-8.7934190">
        <ele>35.3</ele>
        <time>2021-05-17T14:30:14Z</time>
      </trkpt>
      <trkpt lat="41.6633110" lon="-8.7934170">
        <ele>35.3</ele>
        <time>2021-05-17T14:30:15Z</time>
      </trkpt>
      <trkpt lat="41.6633140" lon="-8.7934150">
        <ele>35.3</ele>
        <time>2021-05-17T14:30:16Z</time>
      </trkpt>
      <trkpt lat="41.6633170" lon="-8.7934120">
        <ele>35.3</ele>
        <time>2021-05-17T14:30:17Z</time>
      </trkpt>
      <trkpt lat="41.6633200" lon="-8.7934100">
        <ele>35.3</ele>
        <time>2021-05-17T14:30:18Z</time>
      </trkpt>
      <trkpt lat="41.6633230" lon="-8.7934080">
        <ele>35.3</ele>
        <time>2021-05-17T14:30:19Z</time>
      </trkpt>
      <trkpt lat="41.6633250" lon="-8.7934060">
        <ele>35.3</ele>
        <time>2021-05-17T14:30:20Z</time>
      </trkpt>
      <trkpt lat="41.6633280" lon="-8.7934040">
        <ele>35.3</ele>
        <time>2021-05-17T14:30:21Z</time>
      </trkpt>
      <trkpt lat="41.6633310" lon="-8.7934020">
        <ele>35.3</ele>
        <time>2021-05-17T14:30:22Z</time>
      </trkpt>
      <trkpt lat="41.6633340" lon="-8.7934000">
        <ele>35.3</ele>
        <time>2021-05-17T14:30:23Z</time>
      </trkpt>
      <trkpt lat="41.6633370" lon="-8.7933980">
        <ele>35.3</ele>
        <time>2021-05-17T14:30:24Z</time>
      </trkpt>
      <trkpt lat="41.6633400" lon="-8.7933960">
        <ele>35.3</ele>
        <time>2021-05-17T14:30:25Z</time>
      </trkpt>
      <trkpt lat="41.6633430" lon="-8.7933940">
        <ele>35.3</ele>
        <time>2021-05-17T14:30:26Z</time>
      </trkpt>
      <trkpt lat="41.6633460" lon="-8.7933920">
        <ele>35.3</ele>
        <time>2021-05-17T14:30:27Z</time>
      </trkpt>
      <trkpt lat="41.6633480" lon="-8.7933900">
        <ele>35.3</ele>
        <time>2021-05-17T14:30:28Z</time>
      </trkpt>
      <trkpt lat="41.6633510" lon="-8.7933880">
        <ele>35.3</ele>
        <time>2021-05-17T14:30:29Z</time>
      </trkpt>
      <trkpt lat="41.6633540" lon="-8.7933860">
        <ele>35.3</ele>
        <time>2021-05-17T14:30:30Z</time>
      </trkpt>
      <trkpt lat="41.6633570" lon="-8.7933840">
        <ele>35.4</ele>
        <time>2021-05-17T14:30:31Z</time>
      </trkpt>
      <trkpt lat="41.6633640" lon="-8.7933830">
        <ele>35.4</ele>
        <time>2021-05-17T14:30:32Z</time>
      </trkpt>
      <trkpt lat="41.6633650" lon="-8.7933890">
        <ele>35.4</ele>
        <time>2021-05-17T14:30:33Z</time>
      </trkpt>
      <trkpt lat="41.6633580" lon="-8.7933870">
        <ele>35.4</ele>
        <time>2021-05-17T14:30:34Z</time>
      </trkpt>
      <trkpt lat="41.6633460" lon="-8.7933730">
        <ele>35.4</ele>
        <time>2021-05-17T14:30:35Z</time>
      </trkpt>
      <trkpt lat="41.6633500" lon="-8.7933690">
        <ele>35.4</ele>
        <time>2021-05-17T14:30:36Z</time>
      </trkpt>
      <trkpt lat="41.6633550" lon="-8.7933690">
        <ele>35.4</ele>
        <time>2021-05-17T14:30:37Z</time>
      </trkpt>
      <trkpt lat="41.6633490" lon="-8.7933510">
        <ele>35.4</ele>
        <time>2021-05-17T14:30:38Z</time>
      </trkpt>
      <trkpt lat="41.6633520" lon="-8.7933560">
        <ele>35.4</ele>
        <time>2021-05-17T14:30:39Z</time>
      </trkpt>
      <trkpt lat="41.6633540" lon="-8.7933520">
        <ele>35.4</ele>
        <time>2021-05-17T14:30:40Z</time>
      </trkpt>
      <trkpt lat="41.6633500" lon="-8.7933520">
        <ele>35.4</ele>
        <time>2021-05-17T14:30:41Z</time>
      </trkpt>
      <trkpt lat="41.6633460" lon="-8.7933500">
        <ele>35.4</ele>
        <time>2021-05-17T14:30:42Z</time>
      </trkpt>
      <trkpt lat="41.6633540" lon="-8.7934000">
        <ele>35.5</ele>
        <time>2021-05-17T14:30:43Z</time>
      </trkpt>
      <trkpt lat="41.6633690" lon="-8.7934760">
        <ele>35.5</ele>
        <time>2021-05-17T14:30:44Z</time>
      </trkpt>
      <trkpt lat="41.6633540" lon="-8.7935140">
        <ele>35.6</ele>
        <time>2021-05-17T14:30:45Z</time>
      </trkpt>
      <trkpt lat="41.6633450" lon="-8.7934680">
        <ele>35.6</ele>
        <time>2021-05-17T14:30:46Z</time>
      </trkpt>
      <trkpt lat="41.6633360" lon="-8.7934500">
        <ele>35.6</ele>
        <time>2021-05-17T14:30:47Z</time>
      </trkpt>
      <trkpt lat="41.6633960" lon="-8.7933670">
        <ele>35.7</ele>
        <time>2021-05-17T14:30:48Z</time>
      </trkpt>
      <trkpt lat="41.6633870" lon="-8.7933510">
        <ele>36.1</ele>
        <time>2021-05-17T14:30:49Z</time>
      </trkpt>
      <trkpt lat="41.6633790" lon="-8.7933420">
        <ele>36.1</ele>
        <time>2021-05-17T14:30:50Z</time>
      </trkpt>
      <trkpt lat="41.6633720" lon="-8.7933340">
        <ele>36.1</ele>
        <time>2021-05-17T14:30:51Z</time>
      </trkpt>
      <trkpt lat="41.6633640" lon="-8.7933260">
        <ele>36.1</ele>
        <time>2021-05-17T14:30:52Z</time>
      </trkpt>
      <trkpt lat="41.6633690" lon="-8.7933090">
        <ele>36.1</ele>
        <time>2021-05-17T14:30:53Z</time>
      </trkpt>
      <trkpt lat="41.6633750" lon="-8.7933130">
        <ele>36.1</ele>
        <time>2021-05-17T14:30:54Z</time>
      </trkpt>
      <trkpt lat="41.6633810" lon="-8.7933180">
        <ele>36.1</ele>
        <time>2021-05-17T14:30:55Z</time>
      </trkpt>
      <trkpt lat="41.6633870" lon="-8.7933220">
        <ele>36.1</ele>
        <time>2021-05-17T14:30:56Z</time>
      </trkpt>
      <trkpt lat="41.6633930" lon="-8.7933260">
        <ele>36.1</ele>
        <time>2021-05-17T14:30:57Z</time>
      </trkpt>
      <trkpt lat="41.6633990" lon="-8.7933300">
        <ele>36.1</ele>
        <time>2021-05-17T14:30:58Z</time>
      </trkpt>
      <trkpt lat="41.6634050" lon="-8.7933350">
        <ele>36.1</ele>
        <time>2021-05-17T14:30:59Z</time>
      </trkpt>
      <trkpt lat="41.6634110" lon="-8.7933390">
        <ele>36.1</ele>
        <time>2021-05-17T14:31:19Z</time>
      </trkpt>
      <trkpt lat="41.6634170" lon="-8.7933430">
        <ele>36.1</ele>
        <time>2021-05-17T14:31:30Z</time>
      </trkpt>
      <trkpt lat="41.6634230" lon="-8.7933470">
        <ele>36.1</ele>
        <time>2021-05-17T14:31:31Z</time>
      </trkpt>
      <trkpt lat="41.6634300" lon="-8.7933510">
        <ele>36.1</ele>
        <time>2021-05-17T14:31:38Z</time>
      </trkpt>
      <trkpt lat="41.6634360" lon="-8.7933560">
        <ele>36.1</ele>
        <time>2021-05-17T14:31:39Z</time>
      </trkpt>
      <trkpt lat="41.6634420" lon="-8.7933600">
        <ele>36.1</ele>
        <time>2021-05-17T14:31:40Z</time>
      </trkpt>
      <trkpt lat="41.6634480" lon="-8.7933640">
        <ele>36.1</ele>
        <time>2021-05-17T14:31:51Z</time>
      </trkpt>
      <trkpt lat="41.6634540" lon="-8.7933680">
        <ele>36.1</ele>
        <time>2021-05-17T14:31:53Z</time>
      </trkpt>
      <trkpt lat="41.6634600" lon="-8.7933730">
        <ele>36.1</ele>
        <time>2021-05-17T14:31:54Z</time>
      </trkpt>
      <trkpt lat="41.6634660" lon="-8.7933770">
        <ele>36.1</ele>
        <time>2021-05-17T14:31:55Z</time>
      </trkpt>
      <trkpt lat="41.6634720" lon="-8.7933810">
        <ele>36.1</ele>
        <time>2021-05-17T14:31:56Z</time>
      </trkpt>
      <trkpt lat="41.6634780" lon="-8.7933850">
        <ele>36.1</ele>
        <time>2021-05-17T14:31:57Z</time>
      </trkpt>
      <trkpt lat="41.6634840" lon="-8.7933900">
        <ele>36.1</ele>
        <time>2021-05-17T14:31:58Z</time>
      </trkpt>
      <trkpt lat="41.6634900" lon="-8.7933940">
        <ele>36.1</ele>
        <time>2021-05-17T14:31:59Z</time>
      </trkpt>
      <trkpt lat="41.6634960" lon="-8.7933980">
        <ele>36.1</ele>
        <time>2021-05-17T14:32:00Z</time>
      </trkpt>
      <trkpt lat="41.6635040" lon="-8.7934290">
        <ele>36.1</ele>
        <time>2021-05-17T14:32:01Z</time>
      </trkpt>
      <trkpt lat="41.6635190" lon="-8.7934350">
        <ele>36.1</ele>
        <time>2021-05-17T14:32:02Z</time>
      </trkpt>
      <trkpt lat="41.6635330" lon="-8.7934400">
        <ele>36.1</ele>
        <time>2021-05-17T14:32:03Z</time>
      </trkpt>
      <trkpt lat="41.6634720" lon="-8.7933840">
        <ele>36.1</ele>
        <time>2021-05-17T14:32:04Z</time>
      </trkpt>
      <trkpt lat="41.6634240" lon="-8.7933500">
        <ele>36.1</ele>
        <time>2021-05-17T14:32:05Z</time>
      </trkpt>
      <trkpt lat="41.6633750" lon="-8.7933170">
        <ele>36.1</ele>
        <time>2021-05-17T14:32:06Z</time>
      </trkpt>
      <trkpt lat="41.6633270" lon="-8.7932830">
        <ele>36.1</ele>
        <time>2021-05-17T14:32:07Z</time>
      </trkpt>
      <trkpt lat="41.6632790" lon="-8.7932490">
        <ele>36.1</ele>
        <time>2021-05-17T14:32:08Z</time>
      </trkpt>
      <trkpt lat="41.6632620" lon="-8.7932120">
        <ele>36.1</ele>
        <time>2021-05-17T14:32:09Z</time>
      </trkpt>
      <trkpt lat="41.6632570" lon="-8.7931990">
        <ele>36.1</ele>
        <time>2021-05-17T14:32:10Z</time>
      </trkpt>
      <trkpt lat="41.6632460" lon="-8.7931600">
        <ele>36.1</ele>
        <time>2021-05-17T14:32:11Z</time>
      </trkpt>
      <trkpt lat="41.6632410" lon="-8.7931480">
        <ele>36.1</ele>
        <time>2021-05-17T14:32:12Z</time>
      </trkpt>
      <trkpt lat="41.6632130" lon="-8.7933330">
        <ele>36.1</ele>
        <time>2021-05-17T14:32:13Z</time>
      </trkpt>
      <trkpt lat="41.6632160" lon="-8.7933330">
        <ele>36.1</ele>
        <time>2021-05-17T14:32:14Z</time>
      </trkpt>
      <trkpt lat="41.6631890" lon="-8.7933590">
        <ele>36.1</ele>
        <time>2021-05-17T14:32:15Z</time>
      </trkpt>
      <trkpt lat="41.6631750" lon="-8.7933780">
        <ele>36.1</ele>
        <time>2021-05-17T14:32:16Z</time>
      </trkpt>
      <trkpt lat="41.6631660" lon="-8.7933850">
        <ele>36.1</ele>
        <time>2021-05-17T14:32:17Z</time>
      </trkpt>
      <trkpt lat="41.6632590" lon="-8.7934080">
        <ele>36.1</ele>
        <time>2021-05-17T14:32:18Z</time>
      </trkpt>
      <trkpt lat="41.6633630" lon="-8.7934250">
        <ele>36.1</ele>
        <time>2021-05-17T14:32:19Z</time>
      </trkpt>
      <trkpt lat="41.6634660" lon="-8.7934420">
        <ele>36.1</ele>
        <time>2021-05-17T14:32:20Z</time>
      </trkpt>
      <trkpt lat="41.6634860" lon="-8.7934500">
        <ele>36.1</ele>
        <time>2021-05-17T14:32:21Z</time>
      </trkpt>
      <trkpt lat="41.6634950" lon="-8.7934530">
        <ele>36.1</ele>
        <time>2021-05-17T14:32:22Z</time>
      </trkpt>
      <trkpt lat="41.6635030" lon="-8.7934550">
        <ele>36.1</ele>
        <time>2021-05-17T14:32:23Z</time>
      </trkpt>
      <trkpt lat="41.6635120" lon="-8.7934580">
        <ele>36.1</ele>
        <time>2021-05-17T14:32:24Z</time>
      </trkpt>
      <trkpt lat="41.6635210" lon="-8.7934600">
        <ele>36.1</ele>
        <time>2021-05-17T14:32:25Z</time>
      </trkpt>
      <trkpt lat="41.6635340" lon="-8.7934660">
        <ele>36.1</ele>
        <time>2021-05-17T14:32:26Z</time>
      </trkpt>
      <trkpt lat="41.6635480" lon="-8.7934700">
        <ele>36.1</ele>
        <time>2021-05-17T14:32:27Z</time>
      </trkpt>
      <trkpt lat="41.6635600" lon="-8.7934730">
        <ele>36.1</ele>
        <time>2021-05-17T14:32:28Z</time>
      </trkpt>
      <trkpt lat="41.6635730" lon="-8.7934760">
        <ele>36.1</ele>
        <time>2021-05-17T14:32:29Z</time>
      </trkpt>
      <trkpt lat="41.6635810" lon="-8.7934790">
        <ele>36.1</ele>
        <time>2021-05-17T14:32:30Z</time>
      </trkpt>
      <trkpt lat="41.6635990" lon="-8.7934810">
        <ele>36.1</ele>
        <time>2021-05-17T14:32:31Z</time>
      </trkpt>
      <trkpt lat="41.6636130" lon="-8.7934780">
        <ele>36.1</ele>
        <time>2021-05-17T14:32:32Z</time>
      </trkpt>
      <trkpt lat="41.6636280" lon="-8.7934840">
        <ele>36.1</ele>
        <time>2021-05-17T14:32:33Z</time>
      </trkpt>
      <trkpt lat="41.6636540" lon="-8.7934200">
        <ele>36.1</ele>
        <time>2021-05-17T14:32:35Z</time>
      </trkpt>
      <trkpt lat="41.6632980" lon="-8.7933260">
        <ele>36.1</ele>
        <time>2021-05-17T14:32:36Z</time>
      </trkpt>
      <trkpt lat="41.6632840" lon="-8.7933160">
        <ele>36.1</ele>
        <time>2021-05-17T14:32:37Z</time>
      </trkpt>
      <trkpt lat="41.6632940" lon="-8.7933280">
        <ele>36.1</ele>
        <time>2021-05-17T14:32:38Z</time>
      </trkpt>
      <trkpt lat="41.6633010" lon="-8.7933300">
        <ele>36.1</ele>
        <time>2021-05-17T14:32:39Z</time>
      </trkpt>
      <trkpt lat="41.6633080" lon="-8.7933290">
        <ele>36.1</ele>
        <time>2021-05-17T14:32:40Z</time>
      </trkpt>
      <trkpt lat="41.6633160" lon="-8.7933370">
        <ele>36.1</ele>
        <time>2021-05-17T14:32:41Z</time>
      </trkpt>
      <trkpt lat="41.6633190" lon="-8.7933370">
        <ele>36.1</ele>
        <time>2021-05-17T14:32:42Z</time>
      </trkpt>
      <trkpt lat="41.6633200" lon="-8.7933370">
        <ele>36.1</ele>
        <time>2021-05-17T14:32:43Z</time>
      </trkpt>
      <trkpt lat="41.6633230" lon="-8.7933370">
        <ele>36.1</ele>
        <time>2021-05-17T14:32:44Z</time>
      </trkpt>
      <trkpt lat="41.6633270" lon="-8.7933380">
        <ele>36.1</ele>
        <time>2021-05-17T14:32:45Z</time>
      </trkpt>
      <trkpt lat="41.6633300" lon="-8.7933390">
        <ele>36.1</ele>
        <time>2021-05-17T14:32:46Z</time>
      </trkpt>
      <trkpt lat="41.6633300" lon="-8.7933390">
        <ele>36.1</ele>
        <time>2021-05-17T14:32:47Z</time>
      </trkpt>
      <trkpt lat="41.6635620" lon="-8.7932290">
        <ele>35.9</ele>
        <time>2021-05-17T14:33:01Z</time>
      </trkpt>
      <trkpt lat="41.6635720" lon="-8.7932300">
        <ele>35.9</ele>
        <time>2021-05-17T14:33:02Z</time>
      </trkpt>
      <trkpt lat="41.6635140" lon="-8.7935010">
        <ele>35.8</ele>
        <time>2021-05-17T14:33:08Z</time>
      </trkpt>
      <trkpt lat="41.6634050" lon="-8.7934680">
        <ele>35.7</ele>
        <time>2021-05-17T14:33:09Z</time>
      </trkpt>
      <trkpt lat="41.6632450" lon="-8.7933670">
        <ele>35.2</ele>
        <time>2021-05-17T14:33:10Z</time>
      </trkpt>
      <trkpt lat="41.6632290" lon="-8.7933730">
        <ele>35.2</ele>
        <time>2021-05-17T14:33:11Z</time>
      </trkpt>
      <trkpt lat="41.6632180" lon="-8.7933790">
        <ele>35.2</ele>
        <time>2021-05-17T14:33:12Z</time>
      </trkpt>
      <trkpt lat="41.6632350" lon="-8.7933920">
        <ele>35.2</ele>
        <time>2021-05-17T14:33:13Z</time>
      </trkpt>
      <trkpt lat="41.6632420" lon="-8.7933990">
        <ele>35.2</ele>
        <time>2021-05-17T14:33:14Z</time>
      </trkpt>
      <trkpt lat="41.6632490" lon="-8.7934070">
        <ele>35.2</ele>
        <time>2021-05-17T14:33:15Z</time>
      </trkpt>
      <trkpt lat="41.6632500" lon="-8.7934190">
        <ele>35.2</ele>
        <time>2021-05-17T14:33:16Z</time>
      </trkpt>
      <trkpt lat="41.6632490" lon="-8.7934450">
        <ele>35.3</ele>
        <time>2021-05-17T14:33:17Z</time>
      </trkpt>
      <trkpt lat="41.6632490" lon="-8.7934590">
        <ele>35.3</ele>
        <time>2021-05-17T14:33:18Z</time>
      </trkpt>
      <trkpt lat="41.6632520" lon="-8.7934680">
        <ele>35.3</ele>
        <time>2021-05-17T14:33:19Z</time>
      </trkpt>
      <trkpt lat="41.6632540" lon="-8.7934810">
        <ele>35.3</ele>
        <time>2021-05-17T14:33:20Z</time>
      </trkpt>
      <trkpt lat="41.6632590" lon="-8.7934880">
        <ele>35.3</ele>
        <time>2021-05-17T14:33:21Z</time>
      </trkpt>
      <trkpt lat="41.6632670" lon="-8.7935030">
        <ele>35.3</ele>
        <time>2021-05-17T14:33:22Z</time>
      </trkpt>
      <trkpt lat="41.6632720" lon="-8.7935170">
        <ele>35.3</ele>
        <time>2021-05-17T14:33:23Z</time>
      </trkpt>
      <trkpt lat="41.6632790" lon="-8.7935370">
        <ele>35.3</ele>
        <time>2021-05-17T14:33:24Z</time>
      </trkpt>
      <trkpt lat="41.6632770" lon="-8.7935440">
        <ele>35.3</ele>
        <time>2021-05-17T14:33:25Z</time>
      </trkpt>
      <trkpt lat="41.6632840" lon="-8.7935600">
        <ele>35.3</ele>
        <time>2021-05-17T14:33:26Z</time>
      </trkpt>
      <trkpt lat="41.6632880" lon="-8.7935650">
        <ele>35.3</ele>
        <time>2021-05-17T14:33:27Z</time>
      </trkpt>
      <trkpt lat="41.6632980" lon="-8.7935680">
        <ele>35.3</ele>
        <time>2021-05-17T14:33:28Z</time>
      </trkpt>
      <trkpt lat="41.6633020" lon="-8.7935770">
        <ele>35.3</ele>
        <time>2021-05-17T14:33:29Z</time>
      </trkpt>
      <trkpt lat="41.6633010" lon="-8.7935860">
        <ele>35.3</ele>
        <time>2021-05-17T14:33:30Z</time>
      </trkpt>
      <trkpt lat="41.6633060" lon="-8.7935910">
        <ele>35.3</ele>
        <time>2021-05-17T14:33:31Z</time>
      </trkpt>
      <trkpt lat="41.6633210" lon="-8.7936180">
        <ele>35.3</ele>
        <time>2021-05-17T14:33:32Z</time>
      </trkpt>
      <trkpt lat="41.6633270" lon="-8.7936310">
        <ele>35.3</ele>
        <time>2021-05-17T14:33:33Z</time>
      </trkpt>
      <trkpt lat="41.6633330" lon="-8.7936430">
        <ele>35.3</ele>
        <time>2021-05-17T14:33:34Z</time>
      </trkpt>
      <trkpt lat="41.6633440" lon="-8.7936540">
        <ele>35.3</ele>
        <time>2021-05-17T14:33:35Z</time>
      </trkpt>
      <trkpt lat="41.6633580" lon="-8.7936660">
        <ele>35.3</ele>
        <time>2021-05-17T14:33:36Z</time>
      </trkpt>
      <trkpt lat="41.6633620" lon="-8.7936840">
        <ele>35.3</ele>
        <time>2021-05-17T14:33:37Z</time>
      </trkpt>
      <trkpt lat="41.6633670" lon="-8.7936960">
        <ele>35.3</ele>
        <time>2021-05-17T14:33:38Z</time>
      </trkpt>
      <trkpt lat="41.6633700" lon="-8.7937060">
        <ele>35.3</ele>
        <time>2021-05-17T14:33:39Z</time>
      </trkpt>
      <trkpt lat="41.6633780" lon="-8.7937230">
        <ele>35.3</ele>
        <time>2021-05-17T14:33:40Z</time>
      </trkpt>
      <trkpt lat="41.6633820" lon="-8.7937400">
        <ele>35.3</ele>
        <time>2021-05-17T14:33:41Z</time>
      </trkpt>
      <trkpt lat="41.6633890" lon="-8.7937670">
        <ele>35.2</ele>
        <time>2021-05-17T14:33:42Z</time>
      </trkpt>
      <trkpt lat="41.6633930" lon="-8.7937780">
        <ele>35.2</ele>
        <time>2021-05-17T14:33:43Z</time>
      </trkpt>
      <trkpt lat="41.6633970" lon="-8.7937880">
        <ele>35.2</ele>
        <time>2021-05-17T14:33:44Z</time>
      </trkpt>
      <trkpt lat="41.6634060" lon="-8.7938030">
        <ele>35.2</ele>
        <time>2021-05-17T14:33:45Z</time>
      </trkpt>
      <trkpt lat="41.6634020" lon="-8.7938110">
        <ele>35.2</ele>
        <time>2021-05-17T14:33:46Z</time>
      </trkpt>
      <trkpt lat="41.6634060" lon="-8.7938230">
        <ele>35.2</ele>
        <time>2021-05-17T14:33:47Z</time>
      </trkpt>
      <trkpt lat="41.6634040" lon="-8.7938310">
        <ele>35.2</ele>
        <time>2021-05-17T14:33:48Z</time>
      </trkpt>
      <trkpt lat="41.6634110" lon="-8.7938420">
        <ele>35.2</ele>
        <time>2021-05-17T14:33:49Z</time>
      </trkpt>
      <trkpt lat="41.6634180" lon="-8.7938550">
        <ele>35.2</ele>
        <time>2021-05-17T14:33:50Z</time>
      </trkpt>
      <trkpt lat="41.6634270" lon="-8.7938620">
        <ele>35.2</ele>
        <time>2021-05-17T14:33:51Z</time>
      </trkpt>
      <trkpt lat="41.6634300" lon="-8.7938830">
        <ele>35.2</ele>
        <time>2021-05-17T14:33:52Z</time>
      </trkpt>
      <trkpt lat="41.6634350" lon="-8.7938860">
        <ele>35.2</ele>
        <time>2021-05-17T14:33:53Z</time>
      </trkpt>
      <trkpt lat="41.6634400" lon="-8.7939010">
        <ele>35.2</ele>
        <time>2021-05-17T14:33:54Z</time>
      </trkpt>
      <trkpt lat="41.6634500" lon="-8.7939250">
        <ele>35.1</ele>
        <time>2021-05-17T14:33:55Z</time>
      </trkpt>
      <trkpt lat="41.6634600" lon="-8.7939330">
        <ele>35.1</ele>
        <time>2021-05-17T14:33:56Z</time>
      </trkpt>
      <trkpt lat="41.6634630" lon="-8.7939490">
        <ele>35.1</ele>
        <time>2021-05-17T14:33:57Z</time>
      </trkpt>
      <trkpt lat="41.6634580" lon="-8.7939610">
        <ele>35.1</ele>
        <time>2021-05-17T14:33:58Z</time>
      </trkpt>
      <trkpt lat="41.6634590" lon="-8.7939760">
        <ele>35.1</ele>
        <time>2021-05-17T14:33:59Z</time>
      </trkpt>
      <trkpt lat="41.6634210" lon="-8.7940020">
        <ele>35.0</ele>
        <time>2021-05-17T14:34:00Z</time>
      </trkpt>
      <trkpt lat="41.6634050" lon="-8.7940090">
        <ele>35.0</ele>
        <time>2021-05-17T14:34:01Z</time>
      </trkpt>
      <trkpt lat="41.6633740" lon="-8.7940250">
        <ele>35.0</ele>
        <time>2021-05-17T14:34:02Z</time>
      </trkpt>
      <trkpt lat="41.6633640" lon="-8.7940290">
        <ele>34.9</ele>
        <time>2021-05-17T14:34:03Z</time>
      </trkpt>
      <trkpt lat="41.6633440" lon="-8.7940440">
        <ele>34.8</ele>
        <time>2021-05-17T14:34:04Z</time>
      </trkpt>
      <trkpt lat="41.6633350" lon="-8.7940470">
        <ele>34.7</ele>
        <time>2021-05-17T14:34:05Z</time>
      </trkpt>
      <trkpt lat="41.6633260" lon="-8.7940510">
        <ele>34.7</ele>
        <time>2021-05-17T14:34:06Z</time>
      </trkpt>
      <trkpt lat="41.6633110" lon="-8.7940580">
        <ele>34.6</ele>
        <time>2021-05-17T14:34:07Z</time>
      </trkpt>
      <trkpt lat="41.6633020" lon="-8.7940690">
        <ele>34.5</ele>
        <time>2021-05-17T14:34:08Z</time>
      </trkpt>
      <trkpt lat="41.6633130" lon="-8.7940870">
        <ele>34.4</ele>
        <time>2021-05-17T14:34:09Z</time>
      </trkpt>
      <trkpt lat="41.6633230" lon="-8.7940980">
        <ele>34.3</ele>
        <time>2021-05-17T14:34:10Z</time>
      </trkpt>
      <trkpt lat="41.6633340" lon="-8.7941090">
        <ele>34.2</ele>
        <time>2021-05-17T14:34:11Z</time>
      </trkpt>
      <trkpt lat="41.6633470" lon="-8.7941270">
        <ele>34.1</ele>
        <time>2021-05-17T14:34:12Z</time>
      </trkpt>
      <trkpt lat="41.6633620" lon="-8.7941400">
        <ele>34.0</ele>
        <time>2021-05-17T14:34:13Z</time>
      </trkpt>
      <trkpt lat="41.6633760" lon="-8.7941500">
        <ele>33.9</ele>
        <time>2021-05-17T14:34:14Z</time>
      </trkpt>
      <trkpt lat="41.6633850" lon="-8.7941620">
        <ele>33.9</ele>
        <time>2021-05-17T14:34:15Z</time>
      </trkpt>
      <trkpt lat="41.6634030" lon="-8.7941740">
        <ele>33.8</ele>
        <time>2021-05-17T14:34:16Z</time>
      </trkpt>
      <trkpt lat="41.6634110" lon="-8.7941780">
        <ele>33.7</ele>
        <time>2021-05-17T14:34:17Z</time>
      </trkpt>
      <trkpt lat="41.6634190" lon="-8.7941810">
        <ele>33.7</ele>
        <time>2021-05-17T14:34:18Z</time>
      </trkpt>
      <trkpt lat="41.6634300" lon="-8.7941920">
        <ele>33.6</ele>
        <time>2021-05-17T14:34:19Z</time>
      </trkpt>
      <trkpt lat="41.6634460" lon="-8.7941970">
        <ele>33.5</ele>
        <time>2021-05-17T14:34:20Z</time>
      </trkpt>
      <trkpt lat="41.6634620" lon="-8.7941990">
        <ele>33.2</ele>
        <time>2021-05-17T14:34:21Z</time>
      </trkpt>
      <trkpt lat="41.6634760" lon="-8.7942070">
        <ele>33.2</ele>
        <time>2021-05-17T14:34:22Z</time>
      </trkpt>
      <trkpt lat="41.6634970" lon="-8.7942160">
        <ele>33.2</ele>
        <time>2021-05-17T14:34:23Z</time>
      </trkpt>
      <trkpt lat="41.6635050" lon="-8.7942210">
        <ele>33.2</ele>
        <time>2021-05-17T14:34:24Z</time>
      </trkpt>
      <trkpt lat="41.6635120" lon="-8.7942260">
        <ele>33.2</ele>
        <time>2021-05-17T14:34:25Z</time>
      </trkpt>
      <trkpt lat="41.6635210" lon="-8.7942330">
        <ele>33.1</ele>
        <time>2021-05-17T14:34:26Z</time>
      </trkpt>
      <trkpt lat="41.6635270" lon="-8.7942380">
        <ele>33.1</ele>
        <time>2021-05-17T14:34:27Z</time>
      </trkpt>
      <trkpt lat="41.6635390" lon="-8.7942570">
        <ele>33.1</ele>
        <time>2021-05-17T14:34:28Z</time>
      </trkpt>
      <trkpt lat="41.6635520" lon="-8.7942720">
        <ele>33.1</ele>
        <time>2021-05-17T14:34:29Z</time>
      </trkpt>
      <trkpt lat="41.6635560" lon="-8.7942760">
        <ele>33.1</ele>
        <time>2021-05-17T14:34:30Z</time>
      </trkpt>
      <trkpt lat="41.6635690" lon="-8.7942780">
        <ele>33.1</ele>
        <time>2021-05-17T14:34:31Z</time>
      </trkpt>
      <trkpt lat="41.6635790" lon="-8.7942900">
        <ele>33.0</ele>
        <time>2021-05-17T14:34:32Z</time>
      </trkpt>
      <trkpt lat="41.6635920" lon="-8.7943050">
        <ele>33.0</ele>
        <time>2021-05-17T14:34:33Z</time>
      </trkpt>
      <trkpt lat="41.6636160" lon="-8.7943140">
        <ele>33.0</ele>
        <time>2021-05-17T14:34:34Z</time>
      </trkpt>
      <trkpt lat="41.6636250" lon="-8.7943190">
        <ele>33.0</ele>
        <time>2021-05-17T14:34:35Z</time>
      </trkpt>
      <trkpt lat="41.6636330" lon="-8.7943240">
        <ele>33.0</ele>
        <time>2021-05-17T14:34:36Z</time>
      </trkpt>
      <trkpt lat="41.6636470" lon="-8.7943320">
        <ele>32.9</ele>
        <time>2021-05-17T14:34:37Z</time>
      </trkpt>
      <trkpt lat="41.6636620" lon="-8.7943460">
        <ele>32.9</ele>
        <time>2021-05-17T14:34:38Z</time>
      </trkpt>
      <trkpt lat="41.6636720" lon="-8.7943580">
        <ele>32.9</ele>
        <time>2021-05-17T14:34:39Z</time>
      </trkpt>
      <trkpt lat="41.6636860" lon="-8.7943670">
        <ele>32.9</ele>
        <time>2021-05-17T14:34:40Z</time>
      </trkpt>
      <trkpt lat="41.6636970" lon="-8.7943750">
        <ele>32.9</ele>
        <time>2021-05-17T14:34:41Z</time>
      </trkpt>
      <trkpt lat="41.6637050" lon="-8.7943820">
        <ele>32.9</ele>
        <time>2021-05-17T14:34:42Z</time>
      </trkpt>
      <trkpt lat="41.6637130" lon="-8.7943880">
        <ele>32.9</ele>
        <time>2021-05-17T14:34:43Z</time>
      </trkpt>
      <trkpt lat="41.6637240" lon="-8.7943990">
        <ele>32.8</ele>
        <time>2021-05-17T14:34:44Z</time>
      </trkpt>
      <trkpt lat="41.6637330" lon="-8.7944040">
        <ele>32.8</ele>
        <time>2021-05-17T14:34:45Z</time>
      </trkpt>
      <trkpt lat="41.6637430" lon="-8.7944050">
        <ele>32.8</ele>
        <time>2021-05-17T14:34:46Z</time>
      </trkpt>
      <trkpt lat="41.6637600" lon="-8.7944110">
        <ele>32.8</ele>
        <time>2021-05-17T14:34:47Z</time>
      </trkpt>
      <trkpt lat="41.6637730" lon="-8.7944130">
        <ele>32.8</ele>
        <time>2021-05-17T14:34:48Z</time>
      </trkpt>
      <trkpt lat="41.6637820" lon="-8.7944240">
        <ele>32.8</ele>
        <time>2021-05-17T14:34:49Z</time>
      </trkpt>
      <trkpt lat="41.6637910" lon="-8.7944320">
        <ele>32.8</ele>
        <time>2021-05-17T14:34:50Z</time>
      </trkpt>
      <trkpt lat="41.6637980" lon="-8.7944310">
        <ele>32.8</ele>
        <time>2021-05-17T14:34:51Z</time>
      </trkpt>
      <trkpt lat="41.6638080" lon="-8.7944380">
        <ele>32.8</ele>
        <time>2021-05-17T14:34:52Z</time>
      </trkpt>
      <trkpt lat="41.6638170" lon="-8.7944410">
        <ele>32.7</ele>
        <time>2021-05-17T14:34:53Z</time>
      </trkpt>
      <trkpt lat="41.6638250" lon="-8.7944450">
        <ele>32.7</ele>
        <time>2021-05-17T14:34:54Z</time>
      </trkpt>
      <trkpt lat="41.6638340" lon="-8.7944480">
        <ele>32.7</ele>
        <time>2021-05-17T14:34:55Z</time>
      </trkpt>
      <trkpt lat="41.6638480" lon="-8.7944570">
        <ele>32.7</ele>
        <time>2021-05-17T14:34:56Z</time>
      </trkpt>
      <trkpt lat="41.6638600" lon="-8.7944570">
        <ele>32.7</ele>
        <time>2021-05-17T14:34:57Z</time>
      </trkpt>
      <trkpt lat="41.6638690" lon="-8.7944560">
        <ele>32.7</ele>
        <time>2021-05-17T14:34:58Z</time>
      </trkpt>
      <trkpt lat="41.6638730" lon="-8.7944560">
        <ele>32.7</ele>
        <time>2021-05-17T14:34:59Z</time>
      </trkpt>
      <trkpt lat="41.6638830" lon="-8.7944680">
        <ele>32.7</ele>
        <time>2021-05-17T14:35:00Z</time>
      </trkpt>
      <trkpt lat="41.6638980" lon="-8.7944810">
        <ele>32.8</ele>
        <time>2021-05-17T14:35:01Z</time>
      </trkpt>
      <trkpt lat="41.6639070" lon="-8.7944830">
        <ele>32.8</ele>
        <time>2021-05-17T14:35:02Z</time>
      </trkpt>
      <trkpt lat="41.6639140" lon="-8.7944790">
        <ele>32.8</ele>
        <time>2021-05-17T14:35:03Z</time>
      </trkpt>
      <trkpt lat="41.6639310" lon="-8.7944770">
        <ele>32.9</ele>
        <time>2021-05-17T14:35:04Z</time>
      </trkpt>
      <trkpt lat="41.6639500" lon="-8.7944870">
        <ele>33.0</ele>
        <time>2021-05-17T14:35:05Z</time>
      </trkpt>
      <trkpt lat="41.6639580" lon="-8.7944860">
        <ele>33.0</ele>
        <time>2021-05-17T14:35:06Z</time>
      </trkpt>
      <trkpt lat="41.6639670" lon="-8.7944840">
        <ele>33.1</ele>
        <time>2021-05-17T14:35:07Z</time>
      </trkpt>
      <trkpt lat="41.6639760" lon="-8.7944870">
        <ele>33.1</ele>
        <time>2021-05-17T14:35:08Z</time>
      </trkpt>
      <trkpt lat="41.6639870" lon="-8.7944900">
        <ele>33.2</ele>
        <time>2021-05-17T14:35:09Z</time>
      </trkpt>
      <trkpt lat="41.6639910" lon="-8.7944890">
        <ele>33.2</ele>
        <time>2021-05-17T14:35:10Z</time>
      </trkpt>
      <trkpt lat="41.6639990" lon="-8.7944800">
        <ele>33.2</ele>
        <time>2021-05-17T14:35:11Z</time>
      </trkpt>
      <trkpt lat="41.6640090" lon="-8.7944810">
        <ele>33.3</ele>
        <time>2021-05-17T14:35:12Z</time>
      </trkpt>
      <trkpt lat="41.6640230" lon="-8.7944790">
        <ele>33.4</ele>
        <time>2021-05-17T14:35:13Z</time>
      </trkpt>
      <trkpt lat="41.6640320" lon="-8.7944770">
        <ele>33.4</ele>
        <time>2021-05-17T14:35:14Z</time>
      </trkpt>
      <trkpt lat="41.6640400" lon="-8.7944730">
        <ele>33.4</ele>
        <time>2021-05-17T14:35:15Z</time>
      </trkpt>
      <trkpt lat="41.6640560" lon="-8.7944730">
        <ele>33.5</ele>
        <time>2021-05-17T14:35:16Z</time>
      </trkpt>
      <trkpt lat="41.6640620" lon="-8.7944660">
        <ele>33.5</ele>
        <time>2021-05-17T14:35:17Z</time>
      </trkpt>
      <trkpt lat="41.6640850" lon="-8.7944680">
        <ele>33.5</ele>
        <time>2021-05-17T14:35:18Z</time>
      </trkpt>
      <trkpt lat="41.6640930" lon="-8.7944700">
        <ele>33.5</ele>
        <time>2021-05-17T14:35:19Z</time>
      </trkpt>
      <trkpt lat="41.6641010" lon="-8.7944720">
        <ele>33.5</ele>
        <time>2021-05-17T14:35:20Z</time>
      </trkpt>
      <trkpt lat="41.6641130" lon="-8.7944780">
        <ele>33.5</ele>
        <time>2021-05-17T14:35:21Z</time>
      </trkpt>
      <trkpt lat="41.6641210" lon="-8.7944810">
        <ele>33.5</ele>
        <time>2021-05-17T14:35:22Z</time>
      </trkpt>
      <trkpt lat="41.6641280" lon="-8.7944840">
        <ele>33.5</ele>
        <time>2021-05-17T14:35:23Z</time>
      </trkpt>
      <trkpt lat="41.6641360" lon="-8.7944870">
        <ele>33.5</ele>
        <time>2021-05-17T14:35:24Z</time>
      </trkpt>
      <trkpt lat="41.6641560" lon="-8.7944870">
        <ele>33.5</ele>
        <time>2021-05-17T14:35:25Z</time>
      </trkpt>
      <trkpt lat="41.6641640" lon="-8.7944890">
        <ele>33.5</ele>
        <time>2021-05-17T14:35:26Z</time>
      </trkpt>
      <trkpt lat="41.6641730" lon="-8.7944910">
        <ele>33.5</ele>
        <time>2021-05-17T14:35:27Z</time>
      </trkpt>
      <trkpt lat="41.6641770" lon="-8.7944950">
        <ele>33.5</ele>
        <time>2021-05-17T14:35:28Z</time>
      </trkpt>
      <trkpt lat="41.6641810" lon="-8.7944880">
        <ele>33.5</ele>
        <time>2021-05-17T14:35:29Z</time>
      </trkpt>
      <trkpt lat="41.6641830" lon="-8.7944890">
        <ele>33.5</ele>
        <time>2021-05-17T14:35:30Z</time>
      </trkpt>
      <trkpt lat="41.6641870" lon="-8.7944880">
        <ele>33.5</ele>
        <time>2021-05-17T14:35:31Z</time>
      </trkpt>
      <trkpt lat="41.6641920" lon="-8.7944870">
        <ele>33.5</ele>
        <time>2021-05-17T14:35:32Z</time>
      </trkpt>
      <trkpt lat="41.6641950" lon="-8.7944860">
        <ele>33.5</ele>
        <time>2021-05-17T14:35:33Z</time>
      </trkpt>
      <trkpt lat="41.6641990" lon="-8.7944860">
        <ele>33.5</ele>
        <time>2021-05-17T14:35:34Z</time>
      </trkpt>
      <trkpt lat="41.6642030" lon="-8.7944860">
        <ele>33.5</ele>
        <time>2021-05-17T14:35:35Z</time>
      </trkpt>
      <trkpt lat="41.6642060" lon="-8.7944870">
        <ele>33.5</ele>
        <time>2021-05-17T14:35:36Z</time>
      </trkpt>
      <trkpt lat="41.6642060" lon="-8.7944870">
        <ele>33.5</ele>
        <time>2021-05-17T14:35:37Z</time>
      </trkpt>
      <trkpt lat="41.6642100" lon="-8.7944900">
        <ele>33.5</ele>
        <time>2021-05-17T14:35:38Z</time>
      </trkpt>
      <trkpt lat="41.6642120" lon="-8.7944900">
        <ele>33.5</ele>
        <time>2021-05-17T14:35:39Z</time>
      </trkpt>
      <trkpt lat="41.6642260" lon="-8.7944910">
        <ele>33.5</ele>
        <time>2021-05-17T14:35:40Z</time>
      </trkpt>
      <trkpt lat="41.6642330" lon="-8.7944930">
        <ele>33.4</ele>
        <time>2021-05-17T14:35:41Z</time>
      </trkpt>
      <trkpt lat="41.6642310" lon="-8.7944960">
        <ele>33.4</ele>
        <time>2021-05-17T14:35:42Z</time>
      </trkpt>
      <trkpt lat="41.6642340" lon="-8.7944980">
        <ele>33.4</ele>
        <time>2021-05-17T14:35:43Z</time>
      </trkpt>
      <trkpt lat="41.6642340" lon="-8.7944900">
        <ele>33.4</ele>
        <time>2021-05-17T14:35:44Z</time>
      </trkpt>
      <trkpt lat="41.6642300" lon="-8.7944890">
        <ele>33.4</ele>
        <time>2021-05-17T14:35:45Z</time>
      </trkpt>
      <trkpt lat="41.6642300" lon="-8.7944810">
        <ele>33.4</ele>
        <time>2021-05-17T14:35:46Z</time>
      </trkpt>
      <trkpt lat="41.6642350" lon="-8.7944640">
        <ele>33.4</ele>
        <time>2021-05-17T14:35:47Z</time>
      </trkpt>
      <trkpt lat="41.6642340" lon="-8.7944650">
        <ele>33.4</ele>
        <time>2021-05-17T14:35:48Z</time>
      </trkpt>
      <trkpt lat="41.6642330" lon="-8.7944630">
        <ele>33.4</ele>
        <time>2021-05-17T14:35:49Z</time>
      </trkpt>
      <trkpt lat="41.6642290" lon="-8.7944610">
        <ele>33.4</ele>
        <time>2021-05-17T14:35:50Z</time>
      </trkpt>
      <trkpt lat="41.6642310" lon="-8.7944610">
        <ele>33.4</ele>
        <time>2021-05-17T14:35:51Z</time>
      </trkpt>
      <trkpt lat="41.6642290" lon="-8.7944590">
        <ele>33.4</ele>
        <time>2021-05-17T14:35:52Z</time>
      </trkpt>
      <trkpt lat="41.6642300" lon="-8.7944610">
        <ele>33.4</ele>
        <time>2021-05-17T14:35:53Z</time>
      </trkpt>
      <trkpt lat="41.6642320" lon="-8.7944630">
        <ele>33.4</ele>
        <time>2021-05-17T14:35:54Z</time>
      </trkpt>
      <trkpt lat="41.6642310" lon="-8.7944570">
        <ele>33.4</ele>
        <time>2021-05-17T14:35:55Z</time>
      </trkpt>
      <trkpt lat="41.6642290" lon="-8.7944460">
        <ele>33.4</ele>
        <time>2021-05-17T14:35:56Z</time>
      </trkpt>
      <trkpt lat="41.6642320" lon="-8.7944350">
        <ele>33.4</ele>
        <time>2021-05-17T14:35:57Z</time>
      </trkpt>
      <trkpt lat="41.6642270" lon="-8.7944330">
        <ele>33.4</ele>
        <time>2021-05-17T14:35:58Z</time>
      </trkpt>
      <trkpt lat="41.6642250" lon="-8.7944340">
        <ele>33.4</ele>
        <time>2021-05-17T14:35:59Z</time>
      </trkpt>
      <trkpt lat="41.6642270" lon="-8.7944310">
        <ele>33.4</ele>
        <time>2021-05-17T14:36:00Z</time>
      </trkpt>
      <trkpt lat="41.6642230" lon="-8.7944310">
        <ele>33.4</ele>
        <time>2021-05-17T14:36:01Z</time>
      </trkpt>
      <trkpt lat="41.6642230" lon="-8.7944250">
        <ele>33.4</ele>
        <time>2021-05-17T14:36:02Z</time>
      </trkpt>
      <trkpt lat="41.6642180" lon="-8.7944080">
        <ele>33.4</ele>
        <time>2021-05-17T14:36:03Z</time>
      </trkpt>
      <trkpt lat="41.6642260" lon="-8.7944150">
        <ele>33.4</ele>
        <time>2021-05-17T14:36:04Z</time>
      </trkpt>
      <trkpt lat="41.6642310" lon="-8.7944190">
        <ele>33.4</ele>
        <time>2021-05-17T14:36:05Z</time>
      </trkpt>
      <trkpt lat="41.6642350" lon="-8.7944230">
        <ele>33.4</ele>
        <time>2021-05-17T14:36:06Z</time>
      </trkpt>
      <trkpt lat="41.6642390" lon="-8.7944260">
        <ele>33.4</ele>
        <time>2021-05-17T14:36:07Z</time>
      </trkpt>
      <trkpt lat="41.6642430" lon="-8.7944300">
        <ele>33.4</ele>
        <time>2021-05-17T14:36:08Z</time>
      </trkpt>
      <trkpt lat="41.6642480" lon="-8.7944340">
        <ele>33.4</ele>
        <time>2021-05-17T14:36:09Z</time>
      </trkpt>
      <trkpt lat="41.6642520" lon="-8.7944380">
        <ele>33.4</ele>
        <time>2021-05-17T14:36:10Z</time>
      </trkpt>
      <trkpt lat="41.6642560" lon="-8.7944420">
        <ele>33.4</ele>
        <time>2021-05-17T14:36:11Z</time>
      </trkpt>
      <trkpt lat="41.6642590" lon="-8.7944530">
        <ele>33.4</ele>
        <time>2021-05-17T14:36:12Z</time>
      </trkpt>
      <trkpt lat="41.6642710" lon="-8.7944790">
        <ele>33.3</ele>
        <time>2021-05-17T14:36:13Z</time>
      </trkpt>
      <trkpt lat="41.6642820" lon="-8.7944830">
        <ele>33.3</ele>
        <time>2021-05-17T14:36:14Z</time>
      </trkpt>
      <trkpt lat="41.6642980" lon="-8.7944870">
        <ele>33.3</ele>
        <time>2021-05-17T14:36:15Z</time>
      </trkpt>
      <trkpt lat="41.6643240" lon="-8.7944970">
        <ele>33.3</ele>
        <time>2021-05-17T14:36:16Z</time>
      </trkpt>
      <trkpt lat="41.6643340" lon="-8.7944960">
        <ele>33.3</ele>
        <time>2021-05-17T14:36:17Z</time>
      </trkpt>
      <trkpt lat="41.6643440" lon="-8.7944930">
        <ele>33.3</ele>
        <time>2021-05-17T14:36:18Z</time>
      </trkpt>
      <trkpt lat="41.6643570" lon="-8.7944930">
        <ele>33.3</ele>
        <time>2021-05-17T14:36:19Z</time>
      </trkpt>
      <trkpt lat="41.6643630" lon="-8.7944910">
        <ele>33.3</ele>
        <time>2021-05-17T14:36:20Z</time>
      </trkpt>
      <trkpt lat="41.6643740" lon="-8.7944980">
        <ele>33.3</ele>
        <time>2021-05-17T14:36:21Z</time>
      </trkpt>
      <trkpt lat="41.6643800" lon="-8.7944950">
        <ele>33.3</ele>
        <time>2021-05-17T14:36:22Z</time>
      </trkpt>
      <trkpt lat="41.6643860" lon="-8.7944930">
        <ele>33.3</ele>
        <time>2021-05-17T14:36:23Z</time>
      </trkpt>
      <trkpt lat="41.6643960" lon="-8.7944910">
        <ele>33.3</ele>
        <time>2021-05-17T14:36:24Z</time>
      </trkpt>
      <trkpt lat="41.6644160" lon="-8.7944870">
        <ele>33.3</ele>
        <time>2021-05-17T14:36:25Z</time>
      </trkpt>
      <trkpt lat="41.6644260" lon="-8.7944880">
        <ele>33.3</ele>
        <time>2021-05-17T14:36:26Z</time>
      </trkpt>
      <trkpt lat="41.6644350" lon="-8.7944900">
        <ele>33.3</ele>
        <time>2021-05-17T14:36:27Z</time>
      </trkpt>
      <trkpt lat="41.6644480" lon="-8.7944840">
        <ele>33.3</ele>
        <time>2021-05-17T14:36:28Z</time>
      </trkpt>
      <trkpt lat="41.6644590" lon="-8.7944790">
        <ele>33.3</ele>
        <time>2021-05-17T14:36:29Z</time>
      </trkpt>
      <trkpt lat="41.6644670" lon="-8.7944800">
        <ele>33.3</ele>
        <time>2021-05-17T14:36:30Z</time>
      </trkpt>
      <trkpt lat="41.6644840" lon="-8.7944770">
        <ele>33.3</ele>
        <time>2021-05-17T14:36:31Z</time>
      </trkpt>
      <trkpt lat="41.6644890" lon="-8.7944730">
        <ele>33.3</ele>
        <time>2021-05-17T14:36:32Z</time>
      </trkpt>
      <trkpt lat="41.6645020" lon="-8.7944780">
        <ele>33.3</ele>
        <time>2021-05-17T14:36:33Z</time>
      </trkpt>
      <trkpt lat="41.6645180" lon="-8.7944820">
        <ele>33.3</ele>
        <time>2021-05-17T14:36:34Z</time>
      </trkpt>
      <trkpt lat="41.6645290" lon="-8.7944830">
        <ele>33.3</ele>
        <time>2021-05-17T14:36:35Z</time>
      </trkpt>
      <trkpt lat="41.6645470" lon="-8.7944890">
        <ele>33.2</ele>
        <time>2021-05-17T14:36:36Z</time>
      </trkpt>
      <trkpt lat="41.6645600" lon="-8.7944890">
        <ele>33.2</ele>
        <time>2021-05-17T14:36:37Z</time>
      </trkpt>
      <trkpt lat="41.6645760" lon="-8.7944950">
        <ele>33.2</ele>
        <time>2021-05-17T14:36:38Z</time>
      </trkpt>
      <trkpt lat="41.6645860" lon="-8.7945020">
        <ele>33.2</ele>
        <time>2021-05-17T14:36:39Z</time>
      </trkpt>
      <trkpt lat="41.6646030" lon="-8.7945170">
        <ele>33.2</ele>
        <time>2021-05-17T14:36:40Z</time>
      </trkpt>
      <trkpt lat="41.6646170" lon="-8.7945180">
        <ele>33.2</ele>
        <time>2021-05-17T14:36:41Z</time>
      </trkpt>
      <trkpt lat="41.6646240" lon="-8.7945100">
        <ele>33.2</ele>
        <time>2021-05-17T14:36:42Z</time>
      </trkpt>
      <trkpt lat="41.6646330" lon="-8.7945140">
        <ele>33.2</ele>
        <time>2021-05-17T14:36:43Z</time>
      </trkpt>
      <trkpt lat="41.6646520" lon="-8.7945160">
        <ele>33.2</ele>
        <time>2021-05-17T14:36:44Z</time>
      </trkpt>
      <trkpt lat="41.6646750" lon="-8.7945240">
        <ele>33.2</ele>
        <time>2021-05-17T14:36:45Z</time>
      </trkpt>
      <trkpt lat="41.6646830" lon="-8.7945270">
        <ele>33.2</ele>
        <time>2021-05-17T14:36:46Z</time>
      </trkpt>
      <trkpt lat="41.6646900" lon="-8.7945290">
        <ele>33.2</ele>
        <time>2021-05-17T14:36:47Z</time>
      </trkpt>
      <trkpt lat="41.6647110" lon="-8.7945390">
        <ele>33.2</ele>
        <time>2021-05-17T14:36:48Z</time>
      </trkpt>
      <trkpt lat="41.6647180" lon="-8.7945410">
        <ele>33.2</ele>
        <time>2021-05-17T14:36:49Z</time>
      </trkpt>
      <trkpt lat="41.6647260" lon="-8.7945440">
        <ele>33.2</ele>
        <time>2021-05-17T14:36:50Z</time>
      </trkpt>
      <trkpt lat="41.6647450" lon="-8.7945470">
        <ele>33.2</ele>
        <time>2021-05-17T14:36:51Z</time>
      </trkpt>
      <trkpt lat="41.6647550" lon="-8.7945510">
        <ele>33.2</ele>
        <time>2021-05-17T14:36:52Z</time>
      </trkpt>
      <trkpt lat="41.6647650" lon="-8.7945540">
        <ele>33.2</ele>
        <time>2021-05-17T14:36:53Z</time>
      </trkpt>
      <trkpt lat="41.6647880" lon="-8.7945590">
        <ele>33.2</ele>
        <time>2021-05-17T14:36:54Z</time>
      </trkpt>
      <trkpt lat="41.6647980" lon="-8.7945610">
        <ele>33.2</ele>
        <time>2021-05-17T14:36:55Z</time>
      </trkpt>
      <trkpt lat="41.6648170" lon="-8.7945630">
        <ele>33.2</ele>
        <time>2021-05-17T14:36:56Z</time>
      </trkpt>
      <trkpt lat="41.6648270" lon="-8.7945680">
        <ele>33.2</ele>
        <time>2021-05-17T14:36:57Z</time>
      </trkpt>
      <trkpt lat="41.6648360" lon="-8.7945730">
        <ele>33.2</ele>
        <time>2021-05-17T14:36:58Z</time>
      </trkpt>
      <trkpt lat="41.6648470" lon="-8.7945810">
        <ele>33.2</ele>
        <time>2021-05-17T14:36:59Z</time>
      </trkpt>
      <trkpt lat="41.6648570" lon="-8.7945920">
        <ele>33.2</ele>
        <time>2021-05-17T14:37:00Z</time>
      </trkpt>
      <trkpt lat="41.6648690" lon="-8.7945900">
        <ele>33.2</ele>
        <time>2021-05-17T14:37:01Z</time>
      </trkpt>
      <trkpt lat="41.6648910" lon="-8.7945930">
        <ele>33.2</ele>
        <time>2021-05-17T14:37:02Z</time>
      </trkpt>
      <trkpt lat="41.6648990" lon="-8.7945960">
        <ele>33.2</ele>
        <time>2021-05-17T14:37:03Z</time>
      </trkpt>
      <trkpt lat="41.6649070" lon="-8.7945980">
        <ele>33.2</ele>
        <time>2021-05-17T14:37:04Z</time>
      </trkpt>
      <trkpt lat="41.6649210" lon="-8.7946000">
        <ele>33.2</ele>
        <time>2021-05-17T14:37:05Z</time>
      </trkpt>
      <trkpt lat="41.6649390" lon="-8.7946040">
        <ele>33.2</ele>
        <time>2021-05-17T14:37:06Z</time>
      </trkpt>
      <trkpt lat="41.6649620" lon="-8.7946050">
        <ele>33.2</ele>
        <time>2021-05-17T14:37:07Z</time>
      </trkpt>
      <trkpt lat="41.6649690" lon="-8.7946080">
        <ele>33.3</ele>
        <time>2021-05-17T14:37:08Z</time>
      </trkpt>
      <trkpt lat="41.6649760" lon="-8.7946100">
        <ele>33.3</ele>
        <time>2021-05-17T14:37:09Z</time>
      </trkpt>
      <trkpt lat="41.6649830" lon="-8.7946170">
        <ele>33.3</ele>
        <time>2021-05-17T14:37:10Z</time>
      </trkpt>
      <trkpt lat="41.6649960" lon="-8.7946210">
        <ele>33.3</ele>
        <time>2021-05-17T14:37:11Z</time>
      </trkpt>
      <trkpt lat="41.6650040" lon="-8.7946230">
        <ele>33.3</ele>
        <time>2021-05-17T14:37:12Z</time>
      </trkpt>
      <trkpt lat="41.6650160" lon="-8.7946370">
        <ele>33.3</ele>
        <time>2021-05-17T14:37:13Z</time>
      </trkpt>
      <trkpt lat="41.6650270" lon="-8.7946500">
        <ele>33.3</ele>
        <time>2021-05-17T14:37:14Z</time>
      </trkpt>
      <trkpt lat="41.6650410" lon="-8.7946610">
        <ele>33.3</ele>
        <time>2021-05-17T14:37:15Z</time>
      </trkpt>
      <trkpt lat="41.6650490" lon="-8.7946660">
        <ele>33.3</ele>
        <time>2021-05-17T14:37:16Z</time>
      </trkpt>
      <trkpt lat="41.6650590" lon="-8.7946690">
        <ele>33.3</ele>
        <time>2021-05-17T14:37:17Z</time>
      </trkpt>
      <trkpt lat="41.6650750" lon="-8.7946810">
        <ele>33.3</ele>
        <time>2021-05-17T14:37:18Z</time>
      </trkpt>
      <trkpt lat="41.6650840" lon="-8.7946880">
        <ele>33.3</ele>
        <time>2021-05-17T14:37:19Z</time>
      </trkpt>
      <trkpt lat="41.6650920" lon="-8.7946950">
        <ele>33.3</ele>
        <time>2021-05-17T14:37:20Z</time>
      </trkpt>
      <trkpt lat="41.6651060" lon="-8.7947040">
        <ele>33.4</ele>
        <time>2021-05-17T14:37:21Z</time>
      </trkpt>
      <trkpt lat="41.6651190" lon="-8.7947110">
        <ele>33.4</ele>
        <time>2021-05-17T14:37:22Z</time>
      </trkpt>
      <trkpt lat="41.6651350" lon="-8.7947260">
        <ele>33.4</ele>
        <time>2021-05-17T14:37:23Z</time>
      </trkpt>
      <trkpt lat="41.6651440" lon="-8.7947310">
        <ele>33.4</ele>
        <time>2021-05-17T14:37:24Z</time>
      </trkpt>
      <trkpt lat="41.6651520" lon="-8.7947350">
        <ele>33.4</ele>
        <time>2021-05-17T14:37:25Z</time>
      </trkpt>
      <trkpt lat="41.6651580" lon="-8.7947420">
        <ele>33.4</ele>
        <time>2021-05-17T14:37:26Z</time>
      </trkpt>
      <trkpt lat="41.6651700" lon="-8.7947480">
        <ele>33.4</ele>
        <time>2021-05-17T14:37:27Z</time>
      </trkpt>
      <trkpt lat="41.6651840" lon="-8.7947490">
        <ele>33.4</ele>
        <time>2021-05-17T14:37:28Z</time>
      </trkpt>
      <trkpt lat="41.6651940" lon="-8.7947560">
        <ele>33.4</ele>
        <time>2021-05-17T14:37:29Z</time>
      </trkpt>
      <trkpt lat="41.6652040" lon="-8.7947590">
        <ele>33.4</ele>
        <time>2021-05-17T14:37:30Z</time>
      </trkpt>
      <trkpt lat="41.6652110" lon="-8.7947640">
        <ele>33.4</ele>
        <time>2021-05-17T14:37:31Z</time>
      </trkpt>
      <trkpt lat="41.6652210" lon="-8.7947610">
        <ele>33.4</ele>
        <time>2021-05-17T14:37:32Z</time>
      </trkpt>
      <trkpt lat="41.6652320" lon="-8.7947650">
        <ele>33.5</ele>
        <time>2021-05-17T14:37:33Z</time>
      </trkpt>
      <trkpt lat="41.6652410" lon="-8.7947670">
        <ele>33.5</ele>
        <time>2021-05-17T14:37:34Z</time>
      </trkpt>
      <trkpt lat="41.6652560" lon="-8.7947700">
        <ele>33.5</ele>
        <time>2021-05-17T14:37:35Z</time>
      </trkpt>
      <trkpt lat="41.6652680" lon="-8.7947720">
        <ele>33.5</ele>
        <time>2021-05-17T14:37:36Z</time>
      </trkpt>
      <trkpt lat="41.6652840" lon="-8.7947790">
        <ele>33.5</ele>
        <time>2021-05-17T14:37:37Z</time>
      </trkpt>
      <trkpt lat="41.6652980" lon="-8.7947730">
        <ele>33.6</ele>
        <time>2021-05-17T14:37:38Z</time>
      </trkpt>
      <trkpt lat="41.6653180" lon="-8.7947720">
        <ele>33.6</ele>
        <time>2021-05-17T14:37:39Z</time>
      </trkpt>
      <trkpt lat="41.6653270" lon="-8.7947710">
        <ele>33.6</ele>
        <time>2021-05-17T14:37:40Z</time>
      </trkpt>
      <trkpt lat="41.6653350" lon="-8.7947710">
        <ele>33.6</ele>
        <time>2021-05-17T14:37:41Z</time>
      </trkpt>
      <trkpt lat="41.6653420" lon="-8.7947720">
        <ele>33.6</ele>
        <time>2021-05-17T14:37:42Z</time>
      </trkpt>
      <trkpt lat="41.6653550" lon="-8.7947720">
        <ele>33.7</ele>
        <time>2021-05-17T14:37:43Z</time>
      </trkpt>
      <trkpt lat="41.6653710" lon="-8.7947740">
        <ele>33.7</ele>
        <time>2021-05-17T14:37:44Z</time>
      </trkpt>
      <trkpt lat="41.6653760" lon="-8.7947730">
        <ele>33.7</ele>
        <time>2021-05-17T14:37:45Z</time>
      </trkpt>
      <trkpt lat="41.6653930" lon="-8.7947720">
        <ele>33.7</ele>
        <time>2021-05-17T14:37:46Z</time>
      </trkpt>
      <trkpt lat="41.6654030" lon="-8.7947700">
        <ele>33.7</ele>
        <time>2021-05-17T14:37:47Z</time>
      </trkpt>
      <trkpt lat="41.6654190" lon="-8.7947670">
        <ele>33.8</ele>
        <time>2021-05-17T14:37:48Z</time>
      </trkpt>
      <trkpt lat="41.6654280" lon="-8.7947570">
        <ele>33.8</ele>
        <time>2021-05-17T14:37:49Z</time>
      </trkpt>
      <trkpt lat="41.6654390" lon="-8.7947570">
        <ele>33.8</ele>
        <time>2021-05-17T14:37:50Z</time>
      </trkpt>
      <trkpt lat="41.6654540" lon="-8.7947480">
        <ele>33.9</ele>
        <time>2021-05-17T14:37:51Z</time>
      </trkpt>
      <trkpt lat="41.6654660" lon="-8.7947430">
        <ele>33.9</ele>
        <time>2021-05-17T14:37:52Z</time>
      </trkpt>
      <trkpt lat="41.6654840" lon="-8.7947380">
        <ele>33.9</ele>
        <time>2021-05-17T14:37:53Z</time>
      </trkpt>
      <trkpt lat="41.6655000" lon="-8.7947420">
        <ele>34.0</ele>
        <time>2021-05-17T14:37:54Z</time>
      </trkpt>
      <trkpt lat="41.6655140" lon="-8.7947340">
        <ele>34.0</ele>
        <time>2021-05-17T14:37:55Z</time>
      </trkpt>
      <trkpt lat="41.6655210" lon="-8.7947310">
        <ele>34.0</ele>
        <time>2021-05-17T14:37:56Z</time>
      </trkpt>
      <trkpt lat="41.6655290" lon="-8.7947290">
        <ele>34.1</ele>
        <time>2021-05-17T14:37:57Z</time>
      </trkpt>
      <trkpt lat="41.6655360" lon="-8.7947260">
        <ele>34.1</ele>
        <time>2021-05-17T14:37:58Z</time>
      </trkpt>
      <trkpt lat="41.6655520" lon="-8.7947150">
        <ele>34.1</ele>
        <time>2021-05-17T14:37:59Z</time>
      </trkpt>
      <trkpt lat="41.6655560" lon="-8.7947180">
        <ele>34.2</ele>
        <time>2021-05-17T14:38:00Z</time>
      </trkpt>
      <trkpt lat="41.6655670" lon="-8.7947060">
        <ele>34.2</ele>
        <time>2021-05-17T14:38:01Z</time>
      </trkpt>
      <trkpt lat="41.6655940" lon="-8.7947040">
        <ele>34.3</ele>
        <time>2021-05-17T14:38:02Z</time>
      </trkpt>
      <trkpt lat="41.6656050" lon="-8.7947020">
        <ele>34.4</ele>
        <time>2021-05-17T14:38:03Z</time>
      </trkpt>
      <trkpt lat="41.6656130" lon="-8.7946960">
        <ele>34.4</ele>
        <time>2021-05-17T14:38:04Z</time>
      </trkpt>
      <trkpt lat="41.6656260" lon="-8.7946880">
        <ele>34.4</ele>
        <time>2021-05-17T14:38:05Z</time>
      </trkpt>
      <trkpt lat="41.6656320" lon="-8.7946860">
        <ele>34.5</ele>
        <time>2021-05-17T14:38:06Z</time>
      </trkpt>
      <trkpt lat="41.6656440" lon="-8.7946770">
        <ele>34.5</ele>
        <time>2021-05-17T14:38:07Z</time>
      </trkpt>
      <trkpt lat="41.6656560" lon="-8.7946740">
        <ele>34.6</ele>
        <time>2021-05-17T14:38:08Z</time>
      </trkpt>
      <trkpt lat="41.6656610" lon="-8.7946630">
        <ele>34.6</ele>
        <time>2021-05-17T14:38:09Z</time>
      </trkpt>
      <trkpt lat="41.6656830" lon="-8.7946610">
        <ele>34.7</ele>
        <time>2021-05-17T14:38:10Z</time>
      </trkpt>
      <trkpt lat="41.6656920" lon="-8.7946550">
        <ele>34.7</ele>
        <time>2021-05-17T14:38:11Z</time>
      </trkpt>
      <trkpt lat="41.6657080" lon="-8.7946550">
        <ele>34.8</ele>
        <time>2021-05-17T14:38:12Z</time>
      </trkpt>
      <trkpt lat="41.6657210" lon="-8.7946500">
        <ele>34.9</ele>
        <time>2021-05-17T14:38:13Z</time>
      </trkpt>
      <trkpt lat="41.6657350" lon="-8.7946500">
        <ele>34.9</ele>
        <time>2021-05-17T14:38:14Z</time>
      </trkpt>
      <trkpt lat="41.6657400" lon="-8.7946410">
        <ele>35.0</ele>
        <time>2021-05-17T14:38:15Z</time>
      </trkpt>
      <trkpt lat="41.6657530" lon="-8.7946290">
        <ele>35.0</ele>
        <time>2021-05-17T14:38:16Z</time>
      </trkpt>
      <trkpt lat="41.6657650" lon="-8.7946340">
        <ele>35.1</ele>
        <time>2021-05-17T14:38:17Z</time>
      </trkpt>
      <trkpt lat="41.6657820" lon="-8.7946230">
        <ele>35.2</ele>
        <time>2021-05-17T14:38:18Z</time>
      </trkpt>
      <trkpt lat="41.6657920" lon="-8.7946240">
        <ele>35.2</ele>
        <time>2021-05-17T14:38:19Z</time>
      </trkpt>
      <trkpt lat="41.6658060" lon="-8.7946180">
        <ele>35.3</ele>
        <time>2021-05-17T14:38:20Z</time>
      </trkpt>
      <trkpt lat="41.6658120" lon="-8.7946190">
        <ele>35.3</ele>
        <time>2021-05-17T14:38:21Z</time>
      </trkpt>
      <trkpt lat="41.6658260" lon="-8.7946220">
        <ele>35.4</ele>
        <time>2021-05-17T14:38:22Z</time>
      </trkpt>
      <trkpt lat="41.6658440" lon="-8.7946090">
        <ele>35.5</ele>
        <time>2021-05-17T14:38:23Z</time>
      </trkpt>
      <trkpt lat="41.6658510" lon="-8.7945960">
        <ele>35.6</ele>
        <time>2021-05-17T14:38:24Z</time>
      </trkpt>
      <trkpt lat="41.6658630" lon="-8.7945900">
        <ele>35.6</ele>
        <time>2021-05-17T14:38:25Z</time>
      </trkpt>
      <trkpt lat="41.6658710" lon="-8.7945810">
        <ele>35.7</ele>
        <time>2021-05-17T14:38:26Z</time>
      </trkpt>
      <trkpt lat="41.6658910" lon="-8.7945860">
        <ele>35.8</ele>
        <time>2021-05-17T14:38:27Z</time>
      </trkpt>
      <trkpt lat="41.6659000" lon="-8.7945850">
        <ele>35.9</ele>
        <time>2021-05-17T14:38:28Z</time>
      </trkpt>
      <trkpt lat="41.6659100" lon="-8.7945840">
        <ele>35.9</ele>
        <time>2021-05-17T14:38:29Z</time>
      </trkpt>
      <trkpt lat="41.6659350" lon="-8.7945700">
        <ele>36.1</ele>
        <time>2021-05-17T14:38:30Z</time>
      </trkpt>
      <trkpt lat="41.6659450" lon="-8.7945640">
        <ele>36.2</ele>
        <time>2021-05-17T14:38:31Z</time>
      </trkpt>
      <trkpt lat="41.6659630" lon="-8.7945650">
        <ele>36.3</ele>
        <time>2021-05-17T14:38:32Z</time>
      </trkpt>
      <trkpt lat="41.6659760" lon="-8.7945650">
        <ele>36.4</ele>
        <time>2021-05-17T14:38:33Z</time>
      </trkpt>
      <trkpt lat="41.6660040" lon="-8.7945650">
        <ele>36.5</ele>
        <time>2021-05-17T14:38:34Z</time>
      </trkpt>
      <trkpt lat="41.6660130" lon="-8.7945650">
        <ele>36.6</ele>
        <time>2021-05-17T14:38:35Z</time>
      </trkpt>
      <trkpt lat="41.6660300" lon="-8.7945730">
        <ele>36.7</ele>
        <time>2021-05-17T14:38:36Z</time>
      </trkpt>
      <trkpt lat="41.6660460" lon="-8.7945800">
        <ele>36.8</ele>
        <time>2021-05-17T14:38:37Z</time>
      </trkpt>
      <trkpt lat="41.6660620" lon="-8.7945790">
        <ele>36.9</ele>
        <time>2021-05-17T14:38:38Z</time>
      </trkpt>
      <trkpt lat="41.6660770" lon="-8.7945830">
        <ele>37.0</ele>
        <time>2021-05-17T14:38:39Z</time>
      </trkpt>
      <trkpt lat="41.6660900" lon="-8.7945800">
        <ele>37.1</ele>
        <time>2021-05-17T14:38:40Z</time>
      </trkpt>
      <trkpt lat="41.6661050" lon="-8.7945730">
        <ele>37.2</ele>
        <time>2021-05-17T14:38:41Z</time>
      </trkpt>
      <trkpt lat="41.6661280" lon="-8.7945740">
        <ele>37.4</ele>
        <time>2021-05-17T14:38:42Z</time>
      </trkpt>
      <trkpt lat="41.6661360" lon="-8.7945760">
        <ele>37.4</ele>
        <time>2021-05-17T14:38:43Z</time>
      </trkpt>
      <trkpt lat="41.6661450" lon="-8.7945790">
        <ele>37.5</ele>
        <time>2021-05-17T14:38:44Z</time>
      </trkpt>
      <trkpt lat="41.6661580" lon="-8.7945720">
        <ele>37.6</ele>
        <time>2021-05-17T14:38:45Z</time>
      </trkpt>
      <trkpt lat="41.6661700" lon="-8.7945750">
        <ele>37.7</ele>
        <time>2021-05-17T14:38:46Z</time>
      </trkpt>
      <trkpt lat="41.6661730" lon="-8.7945760">
        <ele>37.7</ele>
        <time>2021-05-17T14:38:47Z</time>
      </trkpt>
      <trkpt lat="41.6661810" lon="-8.7945720">
        <ele>37.8</ele>
        <time>2021-05-17T14:38:48Z</time>
      </trkpt>
      <trkpt lat="41.6661890" lon="-8.7945730">
        <ele>37.8</ele>
        <time>2021-05-17T14:38:49Z</time>
      </trkpt>
      <trkpt lat="41.6661970" lon="-8.7945800">
        <ele>37.9</ele>
        <time>2021-05-17T14:38:50Z</time>
      </trkpt>
      <trkpt lat="41.6662070" lon="-8.7945800">
        <ele>38.0</ele>
        <time>2021-05-17T14:38:51Z</time>
      </trkpt>
      <trkpt lat="41.6662190" lon="-8.7945750">
        <ele>38.1</ele>
        <time>2021-05-17T14:38:52Z</time>
      </trkpt>
      <trkpt lat="41.6662320" lon="-8.7945800">
        <ele>38.2</ele>
        <time>2021-05-17T14:38:53Z</time>
      </trkpt>
      <trkpt lat="41.6662400" lon="-8.7945780">
        <ele>38.2</ele>
        <time>2021-05-17T14:38:54Z</time>
      </trkpt>
      <trkpt lat="41.6662420" lon="-8.7945840">
        <ele>38.3</ele>
        <time>2021-05-17T14:38:55Z</time>
      </trkpt>
      <trkpt lat="41.6662550" lon="-8.7945880">
        <ele>38.4</ele>
        <time>2021-05-17T14:38:56Z</time>
      </trkpt>
      <trkpt lat="41.6662680" lon="-8.7945920">
        <ele>38.5</ele>
        <time>2021-05-17T14:38:57Z</time>
      </trkpt>
      <trkpt lat="41.6662860" lon="-8.7945860">
        <ele>38.6</ele>
        <time>2021-05-17T14:38:58Z</time>
      </trkpt>
      <trkpt lat="41.6662970" lon="-8.7945870">
        <ele>38.7</ele>
        <time>2021-05-17T14:38:59Z</time>
      </trkpt>
      <trkpt lat="41.6663070" lon="-8.7945870">
        <ele>38.8</ele>
        <time>2021-05-17T14:39:00Z</time>
      </trkpt>
      <trkpt lat="41.6663120" lon="-8.7945970">
        <ele>38.8</ele>
        <time>2021-05-17T14:39:01Z</time>
      </trkpt>
      <trkpt lat="41.6663320" lon="-8.7945980">
        <ele>39.0</ele>
        <time>2021-05-17T14:39:02Z</time>
      </trkpt>
      <trkpt lat="41.6663380" lon="-8.7945950">
        <ele>39.0</ele>
        <time>2021-05-17T14:39:03Z</time>
      </trkpt>
      <trkpt lat="41.6663430" lon="-8.7946000">
        <ele>39.1</ele>
        <time>2021-05-17T14:39:04Z</time>
      </trkpt>
      <trkpt lat="41.6663540" lon="-8.7945970">
        <ele>39.2</ele>
        <time>2021-05-17T14:39:05Z</time>
      </trkpt>
      <trkpt lat="41.6663600" lon="-8.7945980">
        <ele>39.2</ele>
        <time>2021-05-17T14:39:06Z</time>
      </trkpt>
      <trkpt lat="41.6663780" lon="-8.7945970">
        <ele>39.3</ele>
        <time>2021-05-17T14:39:07Z</time>
      </trkpt>
      <trkpt lat="41.6663870" lon="-8.7945940">
        <ele>39.4</ele>
        <time>2021-05-17T14:39:08Z</time>
      </trkpt>
      <trkpt lat="41.6663890" lon="-8.7945980">
        <ele>39.4</ele>
        <time>2021-05-17T14:39:09Z</time>
      </trkpt>
      <trkpt lat="41.6663920" lon="-8.7946030">
        <ele>39.5</ele>
        <time>2021-05-17T14:39:10Z</time>
      </trkpt>
      <trkpt lat="41.6664100" lon="-8.7946030">
        <ele>39.6</ele>
        <time>2021-05-17T14:39:11Z</time>
      </trkpt>
      <trkpt lat="41.6664210" lon="-8.7946060">
        <ele>39.7</ele>
        <time>2021-05-17T14:39:12Z</time>
      </trkpt>
      <trkpt lat="41.6664260" lon="-8.7946080">
        <ele>39.8</ele>
        <time>2021-05-17T14:39:13Z</time>
      </trkpt>
      <trkpt lat="41.6664300" lon="-8.7946160">
        <ele>39.8</ele>
        <time>2021-05-17T14:39:14Z</time>
      </trkpt>
      <trkpt lat="41.6664390" lon="-8.7946240">
        <ele>39.9</ele>
        <time>2021-05-17T14:39:15Z</time>
      </trkpt>
      <trkpt lat="41.6664520" lon="-8.7946280">
        <ele>40.0</ele>
        <time>2021-05-17T14:39:16Z</time>
      </trkpt>
      <trkpt lat="41.6664650" lon="-8.7946380">
        <ele>40.1</ele>
        <time>2021-05-17T14:39:17Z</time>
      </trkpt>
      <trkpt lat="41.6664650" lon="-8.7946470">
        <ele>40.2</ele>
        <time>2021-05-17T14:39:18Z</time>
      </trkpt>
      <trkpt lat="41.6664750" lon="-8.7946510">
        <ele>40.3</ele>
        <time>2021-05-17T14:39:19Z</time>
      </trkpt>
      <trkpt lat="41.6664800" lon="-8.7946570">
        <ele>40.3</ele>
        <time>2021-05-17T14:39:20Z</time>
      </trkpt>
      <trkpt lat="41.6664870" lon="-8.7946580">
        <ele>40.4</ele>
        <time>2021-05-17T14:39:21Z</time>
      </trkpt>
      <trkpt lat="41.6664960" lon="-8.7946580">
        <ele>40.5</ele>
        <time>2021-05-17T14:39:22Z</time>
      </trkpt>
      <trkpt lat="41.6665060" lon="-8.7946620">
        <ele>40.5</ele>
        <time>2021-05-17T14:39:23Z</time>
      </trkpt>
      <trkpt lat="41.6665240" lon="-8.7946530">
        <ele>40.7</ele>
        <time>2021-05-17T14:39:24Z</time>
      </trkpt>
      <trkpt lat="41.6665360" lon="-8.7946580">
        <ele>40.8</ele>
        <time>2021-05-17T14:39:25Z</time>
      </trkpt>
      <trkpt lat="41.6665580" lon="-8.7946610">
        <ele>41.0</ele>
        <time>2021-05-17T14:39:26Z</time>
      </trkpt>
      <trkpt lat="41.6665710" lon="-8.7946670">
        <ele>41.1</ele>
        <time>2021-05-17T14:39:27Z</time>
      </trkpt>
      <trkpt lat="41.6665900" lon="-8.7946780">
        <ele>41.2</ele>
        <time>2021-05-17T14:39:28Z</time>
      </trkpt>
      <trkpt lat="41.6666040" lon="-8.7946800">
        <ele>41.4</ele>
        <time>2021-05-17T14:39:29Z</time>
      </trkpt>
      <trkpt lat="41.6666020" lon="-8.7946620">
        <ele>41.5</ele>
        <time>2021-05-17T14:39:30Z</time>
      </trkpt>
      <trkpt lat="41.6666180" lon="-8.7946640">
        <ele>41.6</ele>
        <time>2021-05-17T14:39:31Z</time>
      </trkpt>
      <trkpt lat="41.6666360" lon="-8.7946690">
        <ele>41.7</ele>
        <time>2021-05-17T14:39:32Z</time>
      </trkpt>
      <trkpt lat="41.6666530" lon="-8.7946700">
        <ele>41.9</ele>
        <time>2021-05-17T14:39:33Z</time>
      </trkpt>
      <trkpt lat="41.6666660" lon="-8.7946740">
        <ele>42.0</ele>
        <time>2021-05-17T14:39:34Z</time>
      </trkpt>
      <trkpt lat="41.6666820" lon="-8.7946870">
        <ele>42.1</ele>
        <time>2021-05-17T14:39:35Z</time>
      </trkpt>
      <trkpt lat="41.6666910" lon="-8.7946990">
        <ele>42.2</ele>
        <time>2021-05-17T14:39:36Z</time>
      </trkpt>
      <trkpt lat="41.6667000" lon="-8.7947250">
        <ele>42.3</ele>
        <time>2021-05-17T14:39:37Z</time>
      </trkpt>
      <trkpt lat="41.6667120" lon="-8.7947350">
        <ele>42.4</ele>
        <time>2021-05-17T14:39:38Z</time>
      </trkpt>
      <trkpt lat="41.6667230" lon="-8.7947470">
        <ele>42.5</ele>
        <time>2021-05-17T14:39:39Z</time>
      </trkpt>
      <trkpt lat="41.6667390" lon="-8.7947540">
        <ele>43.0</ele>
        <time>2021-05-17T14:39:40Z</time>
      </trkpt>
      <trkpt lat="41.6667550" lon="-8.7947700">
        <ele>43.0</ele>
        <time>2021-05-17T14:39:41Z</time>
      </trkpt>
      <trkpt lat="41.6667650" lon="-8.7947840">
        <ele>43.0</ele>
        <time>2021-05-17T14:39:42Z</time>
      </trkpt>
      <trkpt lat="41.6667830" lon="-8.7947960">
        <ele>43.0</ele>
        <time>2021-05-17T14:39:43Z</time>
      </trkpt>
      <trkpt lat="41.6667910" lon="-8.7947990">
        <ele>43.0</ele>
        <time>2021-05-17T14:39:44Z</time>
      </trkpt>
      <trkpt lat="41.6667990" lon="-8.7948020">
        <ele>43.0</ele>
        <time>2021-05-17T14:39:45Z</time>
      </trkpt>
      <trkpt lat="41.6668160" lon="-8.7948110">
        <ele>43.3</ele>
        <time>2021-05-17T14:39:46Z</time>
      </trkpt>
      <trkpt lat="41.6668220" lon="-8.7948140">
        <ele>43.4</ele>
        <time>2021-05-17T14:39:47Z</time>
      </trkpt>
      <trkpt lat="41.6668290" lon="-8.7948160">
        <ele>43.4</ele>
        <time>2021-05-17T14:39:48Z</time>
      </trkpt>
      <trkpt lat="41.6668350" lon="-8.7948190">
        <ele>43.5</ele>
        <time>2021-05-17T14:39:49Z</time>
      </trkpt>
      <trkpt lat="41.6668430" lon="-8.7948230">
        <ele>43.5</ele>
        <time>2021-05-17T14:39:50Z</time>
      </trkpt>
      <trkpt lat="41.6668530" lon="-8.7948250">
        <ele>43.6</ele>
        <time>2021-05-17T14:39:51Z</time>
      </trkpt>
      <trkpt lat="41.6668640" lon="-8.7948290">
        <ele>43.7</ele>
        <time>2021-05-17T14:39:52Z</time>
      </trkpt>
      <trkpt lat="41.6668810" lon="-8.7948270">
        <ele>43.8</ele>
        <time>2021-05-17T14:39:53Z</time>
      </trkpt>
      <trkpt lat="41.6668880" lon="-8.7948190">
        <ele>43.9</ele>
        <time>2021-05-17T14:39:54Z</time>
      </trkpt>
      <trkpt lat="41.6668890" lon="-8.7948110">
        <ele>43.9</ele>
        <time>2021-05-17T14:39:55Z</time>
      </trkpt>
      <trkpt lat="41.6669040" lon="-8.7948110">
        <ele>44.0</ele>
        <time>2021-05-17T14:39:56Z</time>
      </trkpt>
      <trkpt lat="41.6669180" lon="-8.7948070">
        <ele>44.1</ele>
        <time>2021-05-17T14:39:57Z</time>
      </trkpt>
      <trkpt lat="41.6669360" lon="-8.7948060">
        <ele>44.2</ele>
        <time>2021-05-17T14:39:58Z</time>
      </trkpt>
      <trkpt lat="41.6669440" lon="-8.7948120">
        <ele>44.3</ele>
        <time>2021-05-17T14:39:59Z</time>
      </trkpt>
      <trkpt lat="41.6669510" lon="-8.7948170">
        <ele>44.3</ele>
        <time>2021-05-17T14:40:00Z</time>
      </trkpt>
      <trkpt lat="41.6669590" lon="-8.7948230">
        <ele>44.4</ele>
        <time>2021-05-17T14:40:01Z</time>
      </trkpt>
      <trkpt lat="41.6669710" lon="-8.7948290">
        <ele>44.5</ele>
        <time>2021-05-17T14:40:02Z</time>
      </trkpt>
      <trkpt lat="41.6669880" lon="-8.7948260">
        <ele>44.6</ele>
        <time>2021-05-17T14:40:03Z</time>
      </trkpt>
      <trkpt lat="41.6669990" lon="-8.7948370">
        <ele>44.6</ele>
        <time>2021-05-17T14:40:04Z</time>
      </trkpt>
      <trkpt lat="41.6670070" lon="-8.7948350">
        <ele>44.7</ele>
        <time>2021-05-17T14:40:05Z</time>
      </trkpt>
      <trkpt lat="41.6670220" lon="-8.7948410">
        <ele>44.7</ele>
        <time>2021-05-17T14:40:06Z</time>
      </trkpt>
      <trkpt lat="41.6670260" lon="-8.7948390">
        <ele>44.8</ele>
        <time>2021-05-17T14:40:07Z</time>
      </trkpt>
      <trkpt lat="41.6670420" lon="-8.7948410">
        <ele>44.8</ele>
        <time>2021-05-17T14:40:08Z</time>
      </trkpt>
      <trkpt lat="41.6670530" lon="-8.7948430">
        <ele>44.9</ele>
        <time>2021-05-17T14:40:09Z</time>
      </trkpt>
      <trkpt lat="41.6670690" lon="-8.7948480">
        <ele>44.9</ele>
        <time>2021-05-17T14:40:10Z</time>
      </trkpt>
      <trkpt lat="41.6670870" lon="-8.7948530">
        <ele>45.0</ele>
        <time>2021-05-17T14:40:11Z</time>
      </trkpt>
      <trkpt lat="41.6671080" lon="-8.7948600">
        <ele>45.1</ele>
        <time>2021-05-17T14:40:12Z</time>
      </trkpt>
      <trkpt lat="41.6671170" lon="-8.7948640">
        <ele>45.1</ele>
        <time>2021-05-17T14:40:13Z</time>
      </trkpt>
      <trkpt lat="41.6671250" lon="-8.7948680">
        <ele>45.1</ele>
        <time>2021-05-17T14:40:14Z</time>
      </trkpt>
      <trkpt lat="41.6671380" lon="-8.7948770">
        <ele>45.2</ele>
        <time>2021-05-17T14:40:15Z</time>
      </trkpt>
      <trkpt lat="41.6671460" lon="-8.7948790">
        <ele>45.2</ele>
        <time>2021-05-17T14:40:16Z</time>
      </trkpt>
      <trkpt lat="41.6671550" lon="-8.7948860">
        <ele>45.2</ele>
        <time>2021-05-17T14:40:17Z</time>
      </trkpt>
      <trkpt lat="41.6671700" lon="-8.7948810">
        <ele>45.3</ele>
        <time>2021-05-17T14:40:18Z</time>
      </trkpt>
      <trkpt lat="41.6671870" lon="-8.7948870">
        <ele>45.3</ele>
        <time>2021-05-17T14:40:19Z</time>
      </trkpt>
      <trkpt lat="41.6672090" lon="-8.7948800">
        <ele>45.3</ele>
        <time>2021-05-17T14:40:20Z</time>
      </trkpt>
      <trkpt lat="41.6672200" lon="-8.7948900">
        <ele>45.4</ele>
        <time>2021-05-17T14:40:21Z</time>
      </trkpt>
      <trkpt lat="41.6672350" lon="-8.7948940">
        <ele>45.4</ele>
        <time>2021-05-17T14:40:22Z</time>
      </trkpt>
      <trkpt lat="41.6672460" lon="-8.7949060">
        <ele>45.4</ele>
        <time>2021-05-17T14:40:23Z</time>
      </trkpt>
      <trkpt lat="41.6672580" lon="-8.7949110">
        <ele>45.5</ele>
        <time>2021-05-17T14:40:24Z</time>
      </trkpt>
      <trkpt lat="41.6672740" lon="-8.7949260">
        <ele>45.5</ele>
        <time>2021-05-17T14:40:25Z</time>
      </trkpt>
      <trkpt lat="41.6672800" lon="-8.7949460">
        <ele>45.5</ele>
        <time>2021-05-17T14:40:26Z</time>
      </trkpt>
      <trkpt lat="41.6672880" lon="-8.7949590">
        <ele>45.5</ele>
        <time>2021-05-17T14:40:27Z</time>
      </trkpt>
      <trkpt lat="41.6673000" lon="-8.7949680">
        <ele>45.6</ele>
        <time>2021-05-17T14:40:28Z</time>
      </trkpt>
      <trkpt lat="41.6673110" lon="-8.7949800">
        <ele>45.6</ele>
        <time>2021-05-17T14:40:29Z</time>
      </trkpt>
      <trkpt lat="41.6673220" lon="-8.7949930">
        <ele>45.6</ele>
        <time>2021-05-17T14:40:30Z</time>
      </trkpt>
      <trkpt lat="41.6673320" lon="-8.7950070">
        <ele>45.6</ele>
        <time>2021-05-17T14:40:31Z</time>
      </trkpt>
      <trkpt lat="41.6673460" lon="-8.7950290">
        <ele>45.7</ele>
        <time>2021-05-17T14:40:32Z</time>
      </trkpt>
      <trkpt lat="41.6673520" lon="-8.7950360">
        <ele>45.7</ele>
        <time>2021-05-17T14:40:33Z</time>
      </trkpt>
      <trkpt lat="41.6673580" lon="-8.7950430">
        <ele>45.7</ele>
        <time>2021-05-17T14:40:34Z</time>
      </trkpt>
      <trkpt lat="41.6673740" lon="-8.7950570">
        <ele>45.7</ele>
        <time>2021-05-17T14:40:35Z</time>
      </trkpt>
      <trkpt lat="41.6673820" lon="-8.7950670">
        <ele>45.8</ele>
        <time>2021-05-17T14:40:36Z</time>
      </trkpt>
      <trkpt lat="41.6673890" lon="-8.7950760">
        <ele>45.8</ele>
        <time>2021-05-17T14:40:37Z</time>
      </trkpt>
      <trkpt lat="41.6674010" lon="-8.7950960">
        <ele>45.8</ele>
        <time>2021-05-17T14:40:38Z</time>
      </trkpt>
      <trkpt lat="41.6674060" lon="-8.7951060">
        <ele>45.8</ele>
        <time>2021-05-17T14:40:39Z</time>
      </trkpt>
      <trkpt lat="41.6674120" lon="-8.7951150">
        <ele>45.8</ele>
        <time>2021-05-17T14:40:40Z</time>
      </trkpt>
      <trkpt lat="41.6674310" lon="-8.7951310">
        <ele>45.9</ele>
        <time>2021-05-17T14:40:41Z</time>
      </trkpt>
      <trkpt lat="41.6674400" lon="-8.7951350">
        <ele>45.9</ele>
        <time>2021-05-17T14:40:42Z</time>
      </trkpt>
      <trkpt lat="41.6674480" lon="-8.7951390">
        <ele>45.9</ele>
        <time>2021-05-17T14:40:43Z</time>
      </trkpt>
      <trkpt lat="41.6674610" lon="-8.7951540">
        <ele>45.9</ele>
        <time>2021-05-17T14:40:44Z</time>
      </trkpt>
      <trkpt lat="41.6674680" lon="-8.7951670">
        <ele>46.0</ele>
        <time>2021-05-17T14:40:45Z</time>
      </trkpt>
      <trkpt lat="41.6674770" lon="-8.7951720">
        <ele>46.0</ele>
        <time>2021-05-17T14:40:46Z</time>
      </trkpt>
      <trkpt lat="41.6674860" lon="-8.7951820">
        <ele>46.0</ele>
        <time>2021-05-17T14:40:47Z</time>
      </trkpt>
      <trkpt lat="41.6674950" lon="-8.7951980">
        <ele>46.0</ele>
        <time>2021-05-17T14:40:48Z</time>
      </trkpt>
      <trkpt lat="41.6675170" lon="-8.7952150">
        <ele>46.1</ele>
        <time>2021-05-17T14:40:49Z</time>
      </trkpt>
      <trkpt lat="41.6675240" lon="-8.7952210">
        <ele>46.1</ele>
        <time>2021-05-17T14:40:50Z</time>
      </trkpt>
      <trkpt lat="41.6675310" lon="-8.7952280">
        <ele>46.1</ele>
        <time>2021-05-17T14:40:51Z</time>
      </trkpt>
      <trkpt lat="41.6675410" lon="-8.7952370">
        <ele>46.2</ele>
        <time>2021-05-17T14:40:52Z</time>
      </trkpt>
      <trkpt lat="41.6675500" lon="-8.7952490">
        <ele>46.2</ele>
        <time>2021-05-17T14:40:53Z</time>
      </trkpt>
      <trkpt lat="41.6675600" lon="-8.7952580">
        <ele>46.2</ele>
        <time>2021-05-17T14:40:54Z</time>
      </trkpt>
      <trkpt lat="41.6675680" lon="-8.7952690">
        <ele>46.2</ele>
        <time>2021-05-17T14:40:55Z</time>
      </trkpt>
      <trkpt lat="41.6675780" lon="-8.7952790">
        <ele>46.3</ele>
        <time>2021-05-17T14:40:56Z</time>
      </trkpt>
      <trkpt lat="41.6675890" lon="-8.7952820">
        <ele>46.3</ele>
        <time>2021-05-17T14:40:57Z</time>
      </trkpt>
      <trkpt lat="41.6676010" lon="-8.7952820">
        <ele>46.3</ele>
        <time>2021-05-17T14:40:58Z</time>
      </trkpt>
      <trkpt lat="41.6676140" lon="-8.7952730">
        <ele>46.3</ele>
        <time>2021-05-17T14:40:59Z</time>
      </trkpt>
      <trkpt lat="41.6676230" lon="-8.7952640">
        <ele>46.4</ele>
        <time>2021-05-17T14:41:00Z</time>
      </trkpt>
      <trkpt lat="41.6676320" lon="-8.7952540">
        <ele>46.4</ele>
        <time>2021-05-17T14:41:01Z</time>
      </trkpt>
      <trkpt lat="41.6676440" lon="-8.7952530">
        <ele>46.4</ele>
        <time>2021-05-17T14:41:02Z</time>
      </trkpt>
      <trkpt lat="41.6676560" lon="-8.7952520">
        <ele>46.5</ele>
        <time>2021-05-17T14:41:03Z</time>
      </trkpt>
      <trkpt lat="41.6676750" lon="-8.7952410">
        <ele>46.5</ele>
        <time>2021-05-17T14:41:04Z</time>
      </trkpt>
      <trkpt lat="41.6676830" lon="-8.7952410">
        <ele>46.5</ele>
        <time>2021-05-17T14:41:05Z</time>
      </trkpt>
      <trkpt lat="41.6676910" lon="-8.7952400">
        <ele>46.6</ele>
        <time>2021-05-17T14:41:06Z</time>
      </trkpt>
      <trkpt lat="41.6677020" lon="-8.7952310">
        <ele>46.6</ele>
        <time>2021-05-17T14:41:07Z</time>
      </trkpt>
      <trkpt lat="41.6677120" lon="-8.7952240">
        <ele>46.6</ele>
        <time>2021-05-17T14:41:08Z</time>
      </trkpt>
      <trkpt lat="41.6677180" lon="-8.7952170">
        <ele>46.6</ele>
        <time>2021-05-17T14:41:09Z</time>
      </trkpt>
      <trkpt lat="41.6677380" lon="-8.7952020">
        <ele>46.7</ele>
        <time>2021-05-17T14:41:10Z</time>
      </trkpt>
      <trkpt lat="41.6677440" lon="-8.7951960">
        <ele>46.7</ele>
        <time>2021-05-17T14:41:11Z</time>
      </trkpt>
      <trkpt lat="41.6677500" lon="-8.7951900">
        <ele>46.8</ele>
        <time>2021-05-17T14:41:12Z</time>
      </trkpt>
      <trkpt lat="41.6677680" lon="-8.7951840">
        <ele>46.8</ele>
        <time>2021-05-17T14:41:13Z</time>
      </trkpt>
      <trkpt lat="41.6677770" lon="-8.7951810">
        <ele>46.8</ele>
        <time>2021-05-17T14:41:14Z</time>
      </trkpt>
      <trkpt lat="41.6677830" lon="-8.7951660">
        <ele>46.9</ele>
        <time>2021-05-17T14:41:15Z</time>
      </trkpt>
      <trkpt lat="41.6677960" lon="-8.7951550">
        <ele>47.0</ele>
        <time>2021-05-17T14:41:16Z</time>
      </trkpt>
      <trkpt lat="41.6678030" lon="-8.7951360">
        <ele>47.0</ele>
        <time>2021-05-17T14:41:17Z</time>
      </trkpt>
      <trkpt lat="41.6678030" lon="-8.7951300">
        <ele>47.0</ele>
        <time>2021-05-17T14:41:18Z</time>
      </trkpt>
      <trkpt lat="41.6678130" lon="-8.7951210">
        <ele>47.1</ele>
        <time>2021-05-17T14:41:19Z</time>
      </trkpt>
      <trkpt lat="41.6678310" lon="-8.7951040">
        <ele>47.2</ele>
        <time>2021-05-17T14:41:20Z</time>
      </trkpt>
      <trkpt lat="41.6678380" lon="-8.7950970">
        <ele>47.2</ele>
        <time>2021-05-17T14:41:21Z</time>
      </trkpt>
      <trkpt lat="41.6678440" lon="-8.7950900">
        <ele>47.3</ele>
        <time>2021-05-17T14:41:22Z</time>
      </trkpt>
      <trkpt lat="41.6678600" lon="-8.7950690">
        <ele>47.4</ele>
        <time>2021-05-17T14:41:23Z</time>
      </trkpt>
      <trkpt lat="41.6678660" lon="-8.7950630">
        <ele>47.4</ele>
        <time>2021-05-17T14:41:24Z</time>
      </trkpt>
      <trkpt lat="41.6678710" lon="-8.7950570">
        <ele>47.5</ele>
        <time>2021-05-17T14:41:25Z</time>
      </trkpt>
      <trkpt lat="41.6678920" lon="-8.7950560">
        <ele>47.6</ele>
        <time>2021-05-17T14:41:26Z</time>
      </trkpt>
      <trkpt lat="41.6678980" lon="-8.7950420">
        <ele>47.7</ele>
        <time>2021-05-17T14:41:27Z</time>
      </trkpt>
      <trkpt lat="41.6679050" lon="-8.7950320">
        <ele>47.7</ele>
        <time>2021-05-17T14:41:28Z</time>
      </trkpt>
      <trkpt lat="41.6679200" lon="-8.7950210">
        <ele>47.9</ele>
        <time>2021-05-17T14:41:29Z</time>
      </trkpt>
      <trkpt lat="41.6679290" lon="-8.7950100">
        <ele>47.9</ele>
        <time>2021-05-17T14:41:30Z</time>
      </trkpt>
      <trkpt lat="41.6679410" lon="-8.7949990">
        <ele>48.1</ele>
        <time>2021-05-17T14:41:31Z</time>
      </trkpt>
      <trkpt lat="41.6679500" lon="-8.7949940">
        <ele>48.1</ele>
        <time>2021-05-17T14:41:32Z</time>
      </trkpt>
      <trkpt lat="41.6679690" lon="-8.7949820">
        <ele>48.3</ele>
        <time>2021-05-17T14:41:33Z</time>
      </trkpt>
      <trkpt lat="41.6679760" lon="-8.7949780">
        <ele>48.4</ele>
        <time>2021-05-17T14:41:34Z</time>
      </trkpt>
      <trkpt lat="41.6679840" lon="-8.7949730">
        <ele>48.5</ele>
        <time>2021-05-17T14:41:35Z</time>
      </trkpt>
      <trkpt lat="41.6679920" lon="-8.7949660">
        <ele>48.6</ele>
        <time>2021-05-17T14:41:36Z</time>
      </trkpt>
      <trkpt lat="41.6680000" lon="-8.7949630">
        <ele>48.6</ele>
        <time>2021-05-17T14:41:37Z</time>
      </trkpt>
      <trkpt lat="41.6680080" lon="-8.7949530">
        <ele>48.8</ele>
        <time>2021-05-17T14:41:38Z</time>
      </trkpt>
      <trkpt lat="41.6680270" lon="-8.7949510">
        <ele>49.0</ele>
        <time>2021-05-17T14:41:39Z</time>
      </trkpt>
      <trkpt lat="41.6680420" lon="-8.7949500">
        <ele>49.1</ele>
        <time>2021-05-17T14:41:40Z</time>
      </trkpt>
      <trkpt lat="41.6680560" lon="-8.7949340">
        <ele>49.3</ele>
        <time>2021-05-17T14:41:41Z</time>
      </trkpt>
      <trkpt lat="41.6680630" lon="-8.7949250">
        <ele>49.5</ele>
        <time>2021-05-17T14:41:42Z</time>
      </trkpt>
      <trkpt lat="41.6680710" lon="-8.7949160">
        <ele>49.6</ele>
        <time>2021-05-17T14:41:43Z</time>
      </trkpt>
      <trkpt lat="41.6680770" lon="-8.7949060">
        <ele>49.7</ele>
        <time>2021-05-17T14:41:44Z</time>
      </trkpt>
      <trkpt lat="41.6680890" lon="-8.7948910">
        <ele>49.9</ele>
        <time>2021-05-17T14:41:45Z</time>
      </trkpt>
      <trkpt lat="41.6680980" lon="-8.7948850">
        <ele>50.0</ele>
        <time>2021-05-17T14:41:46Z</time>
      </trkpt>
      <trkpt lat="41.6681030" lon="-8.7948860">
        <ele>50.1</ele>
        <time>2021-05-17T14:41:47Z</time>
      </trkpt>
      <trkpt lat="41.6681110" lon="-8.7948810">
        <ele>50.3</ele>
        <time>2021-05-17T14:41:48Z</time>
      </trkpt>
      <trkpt lat="41.6681220" lon="-8.7948730">
        <ele>50.5</ele>
        <time>2021-05-17T14:41:49Z</time>
      </trkpt>
      <trkpt lat="41.6681280" lon="-8.7948650">
        <ele>50.6</ele>
        <time>2021-05-17T14:41:50Z</time>
      </trkpt>
      <trkpt lat="41.6681350" lon="-8.7948570">
        <ele>50.7</ele>
        <time>2021-05-17T14:41:51Z</time>
      </trkpt>
      <trkpt lat="41.6681430" lon="-8.7948470">
        <ele>50.8</ele>
        <time>2021-05-17T14:41:52Z</time>
      </trkpt>
      <trkpt lat="41.6681480" lon="-8.7948410">
        <ele>50.9</ele>
        <time>2021-05-17T14:41:53Z</time>
      </trkpt>
      <trkpt lat="41.6681620" lon="-8.7948230">
        <ele>51.2</ele>
        <time>2021-05-17T14:41:54Z</time>
      </trkpt>
      <trkpt lat="41.6681690" lon="-8.7948130">
        <ele>51.4</ele>
        <time>2021-05-17T14:41:55Z</time>
      </trkpt>
      <trkpt lat="41.6681760" lon="-8.7948030">
        <ele>51.5</ele>
        <time>2021-05-17T14:41:56Z</time>
      </trkpt>
      <trkpt lat="41.6681870" lon="-8.7947980">
        <ele>51.7</ele>
        <time>2021-05-17T14:41:57Z</time>
      </trkpt>
      <trkpt lat="41.6681880" lon="-8.7947870">
        <ele>51.8</ele>
        <time>2021-05-17T14:41:58Z</time>
      </trkpt>
      <trkpt lat="41.6682070" lon="-8.7947830">
        <ele>52.0</ele>
        <time>2021-05-17T14:41:59Z</time>
      </trkpt>
      <trkpt lat="41.6682110" lon="-8.7947780">
        <ele>52.1</ele>
        <time>2021-05-17T14:42:00Z</time>
      </trkpt>
      <trkpt lat="41.6682170" lon="-8.7947670">
        <ele>52.3</ele>
        <time>2021-05-17T14:42:01Z</time>
      </trkpt>
      <trkpt lat="41.6682270" lon="-8.7947580">
        <ele>52.4</ele>
        <time>2021-05-17T14:42:02Z</time>
      </trkpt>
      <trkpt lat="41.6682360" lon="-8.7947450">
        <ele>52.6</ele>
        <time>2021-05-17T14:42:03Z</time>
      </trkpt>
      <trkpt lat="41.6682360" lon="-8.7947360">
        <ele>52.7</ele>
        <time>2021-05-17T14:42:04Z</time>
      </trkpt>
      <trkpt lat="41.6682520" lon="-8.7947320">
        <ele>52.9</ele>
        <time>2021-05-17T14:42:05Z</time>
      </trkpt>
      <trkpt lat="41.6682680" lon="-8.7947110">
        <ele>53.2</ele>
        <time>2021-05-17T14:42:06Z</time>
      </trkpt>
      <trkpt lat="41.6682760" lon="-8.7947060">
        <ele>53.4</ele>
        <time>2021-05-17T14:42:07Z</time>
      </trkpt>
      <trkpt lat="41.6682830" lon="-8.7947000">
        <ele>53.5</ele>
        <time>2021-05-17T14:42:08Z</time>
      </trkpt>
      <trkpt lat="41.6682850" lon="-8.7946730">
        <ele>53.8</ele>
        <time>2021-05-17T14:42:09Z</time>
      </trkpt>
      <trkpt lat="41.6682880" lon="-8.7946600">
        <ele>53.9</ele>
        <time>2021-05-17T14:42:10Z</time>
      </trkpt>
      <trkpt lat="41.6682910" lon="-8.7946470">
        <ele>54.1</ele>
        <time>2021-05-17T14:42:11Z</time>
      </trkpt>
      <trkpt lat="41.6682980" lon="-8.7946250">
        <ele>54.3</ele>
        <time>2021-05-17T14:42:12Z</time>
      </trkpt>
      <trkpt lat="41.6683020" lon="-8.7946140">
        <ele>54.5</ele>
        <time>2021-05-17T14:42:13Z</time>
      </trkpt>
      <trkpt lat="41.6683070" lon="-8.7946030">
        <ele>54.6</ele>
        <time>2021-05-17T14:42:14Z</time>
      </trkpt>
      <trkpt lat="41.6683120" lon="-8.7945860">
        <ele>54.8</ele>
        <time>2021-05-17T14:42:15Z</time>
      </trkpt>
      <trkpt lat="41.6683200" lon="-8.7945800">
        <ele>54.9</ele>
        <time>2021-05-17T14:42:16Z</time>
      </trkpt>
      <trkpt lat="41.6683250" lon="-8.7945690">
        <ele>55.1</ele>
        <time>2021-05-17T14:42:17Z</time>
      </trkpt>
      <trkpt lat="41.6683310" lon="-8.7945620">
        <ele>55.2</ele>
        <time>2021-05-17T14:42:18Z</time>
      </trkpt>
      <trkpt lat="41.6683350" lon="-8.7945600">
        <ele>55.3</ele>
        <time>2021-05-17T14:42:19Z</time>
      </trkpt>
      <trkpt lat="41.6683400" lon="-8.7945580">
        <ele>55.3</ele>
        <time>2021-05-17T14:42:20Z</time>
      </trkpt>
      <trkpt lat="41.6683470" lon="-8.7945560">
        <ele>55.4</ele>
        <time>2021-05-17T14:42:21Z</time>
      </trkpt>
      <trkpt lat="41.6683500" lon="-8.7945630">
        <ele>55.5</ele>
        <time>2021-05-17T14:42:22Z</time>
      </trkpt>
      <trkpt lat="41.6683600" lon="-8.7945760">
        <ele>55.7</ele>
        <time>2021-05-17T14:42:23Z</time>
      </trkpt>
      <trkpt lat="41.6683730" lon="-8.7945770">
        <ele>57.4</ele>
        <time>2021-05-17T14:42:24Z</time>
      </trkpt>
      <trkpt lat="41.6683900" lon="-8.7945770">
        <ele>57.5</ele>
        <time>2021-05-17T14:42:25Z</time>
      </trkpt>
      <trkpt lat="41.6684000" lon="-8.7945910">
        <ele>57.6</ele>
        <time>2021-05-17T14:42:26Z</time>
      </trkpt>
      <trkpt lat="41.6684130" lon="-8.7945970">
        <ele>57.7</ele>
        <time>2021-05-17T14:42:27Z</time>
      </trkpt>
      <trkpt lat="41.6684240" lon="-8.7946120">
        <ele>57.8</ele>
        <time>2021-05-17T14:42:28Z</time>
      </trkpt>
      <trkpt lat="41.6684320" lon="-8.7946250">
        <ele>57.9</ele>
        <time>2021-05-17T14:42:29Z</time>
      </trkpt>
      <trkpt lat="41.6684410" lon="-8.7946310">
        <ele>58.0</ele>
        <time>2021-05-17T14:42:30Z</time>
      </trkpt>
      <trkpt lat="41.6684320" lon="-8.7946270">
        <ele>58.1</ele>
        <time>2021-05-17T14:42:31Z</time>
      </trkpt>
      <trkpt lat="41.6684350" lon="-8.7946440">
        <ele>58.2</ele>
        <time>2021-05-17T14:42:32Z</time>
      </trkpt>
      <trkpt lat="41.6684250" lon="-8.7946600">
        <ele>58.3</ele>
        <time>2021-05-17T14:42:33Z</time>
      </trkpt>
      <trkpt lat="41.6684300" lon="-8.7946670">
        <ele>58.3</ele>
        <time>2021-05-17T14:42:34Z</time>
      </trkpt>
      <trkpt lat="41.6684400" lon="-8.7946810">
        <ele>58.4</ele>
        <time>2021-05-17T14:42:35Z</time>
      </trkpt>
      <trkpt lat="41.6684520" lon="-8.7946890">
        <ele>58.5</ele>
        <time>2021-05-17T14:42:36Z</time>
      </trkpt>
      <trkpt lat="41.6684690" lon="-8.7947090">
        <ele>58.6</ele>
        <time>2021-05-17T14:42:37Z</time>
      </trkpt>
      <trkpt lat="41.6684750" lon="-8.7947170">
        <ele>58.7</ele>
        <time>2021-05-17T14:42:38Z</time>
      </trkpt>
      <trkpt lat="41.6684800" lon="-8.7947250">
        <ele>58.8</ele>
        <time>2021-05-17T14:42:39Z</time>
      </trkpt>
      <trkpt lat="41.6684930" lon="-8.7947370">
        <ele>58.9</ele>
        <time>2021-05-17T14:42:40Z</time>
      </trkpt>
      <trkpt lat="41.6685000" lon="-8.7947540">
        <ele>59.0</ele>
        <time>2021-05-17T14:42:41Z</time>
      </trkpt>
      <trkpt lat="41.6685110" lon="-8.7947600">
        <ele>59.0</ele>
        <time>2021-05-17T14:42:42Z</time>
      </trkpt>
      <trkpt lat="41.6685140" lon="-8.7947770">
        <ele>59.1</ele>
        <time>2021-05-17T14:42:43Z</time>
      </trkpt>
      <trkpt lat="41.6685240" lon="-8.7947830">
        <ele>59.2</ele>
        <time>2021-05-17T14:42:44Z</time>
      </trkpt>
      <trkpt lat="41.6685280" lon="-8.7948020">
        <ele>59.2</ele>
        <time>2021-05-17T14:42:45Z</time>
      </trkpt>
      <trkpt lat="41.6685400" lon="-8.7948130">
        <ele>59.3</ele>
        <time>2021-05-17T14:42:46Z</time>
      </trkpt>
      <trkpt lat="41.6685570" lon="-8.7948240">
        <ele>59.4</ele>
        <time>2021-05-17T14:42:47Z</time>
      </trkpt>
      <trkpt lat="41.6685660" lon="-8.7948280">
        <ele>59.5</ele>
        <time>2021-05-17T14:42:48Z</time>
      </trkpt>
      <trkpt lat="41.6685750" lon="-8.7948320">
        <ele>59.5</ele>
        <time>2021-05-17T14:42:49Z</time>
      </trkpt>
      <trkpt lat="41.6685860" lon="-8.7948500">
        <ele>59.6</ele>
        <time>2021-05-17T14:42:50Z</time>
      </trkpt>
      <trkpt lat="41.6685930" lon="-8.7948640">
        <ele>59.7</ele>
        <time>2021-05-17T14:42:51Z</time>
      </trkpt>
      <trkpt lat="41.6686080" lon="-8.7948720">
        <ele>59.7</ele>
        <time>2021-05-17T14:42:52Z</time>
      </trkpt>
      <trkpt lat="41.6686100" lon="-8.7948820">
        <ele>59.8</ele>
        <time>2021-05-17T14:42:53Z</time>
      </trkpt>
      <trkpt lat="41.6686100" lon="-8.7948870">
        <ele>59.8</ele>
        <time>2021-05-17T14:42:54Z</time>
      </trkpt>
      <trkpt lat="41.6686170" lon="-8.7949000">
        <ele>59.9</ele>
        <time>2021-05-17T14:42:55Z</time>
      </trkpt>
      <trkpt lat="41.6686270" lon="-8.7949250">
        <ele>59.9</ele>
        <time>2021-05-17T14:42:56Z</time>
      </trkpt>
      <trkpt lat="41.6686320" lon="-8.7949330">
        <ele>60.0</ele>
        <time>2021-05-17T14:42:57Z</time>
      </trkpt>
      <trkpt lat="41.6686360" lon="-8.7949420">
        <ele>60.0</ele>
        <time>2021-05-17T14:42:58Z</time>
      </trkpt>
      <trkpt lat="41.6686470" lon="-8.7949590">
        <ele>60.1</ele>
        <time>2021-05-17T14:42:59Z</time>
      </trkpt>
      <trkpt lat="41.6686570" lon="-8.7949730">
        <ele>60.1</ele>
        <time>2021-05-17T14:43:00Z</time>
      </trkpt>
      <trkpt lat="41.6686670" lon="-8.7949870">
        <ele>60.2</ele>
        <time>2021-05-17T14:43:01Z</time>
      </trkpt>
      <trkpt lat="41.6686780" lon="-8.7950030">
        <ele>60.3</ele>
        <time>2021-05-17T14:43:02Z</time>
      </trkpt>
      <trkpt lat="41.6686830" lon="-8.7950190">
        <ele>60.3</ele>
        <time>2021-05-17T14:43:03Z</time>
      </trkpt>
      <trkpt lat="41.6686960" lon="-8.7950350">
        <ele>60.4</ele>
        <time>2021-05-17T14:43:04Z</time>
      </trkpt>
      <trkpt lat="41.6686990" lon="-8.7950660">
        <ele>60.5</ele>
        <time>2021-05-17T14:43:05Z</time>
      </trkpt>
      <trkpt lat="41.6687010" lon="-8.7950750">
        <ele>60.5</ele>
        <time>2021-05-17T14:43:06Z</time>
      </trkpt>
      <trkpt lat="41.6687020" lon="-8.7950850">
        <ele>60.5</ele>
        <time>2021-05-17T14:43:07Z</time>
      </trkpt>
      <trkpt lat="41.6687130" lon="-8.7951000">
        <ele>60.6</ele>
        <time>2021-05-17T14:43:08Z</time>
      </trkpt>
      <trkpt lat="41.6687280" lon="-8.7951180">
        <ele>60.7</ele>
        <time>2021-05-17T14:43:09Z</time>
      </trkpt>
      <trkpt lat="41.6687340" lon="-8.7951450">
        <ele>60.7</ele>
        <time>2021-05-17T14:43:10Z</time>
      </trkpt>
      <trkpt lat="41.6687350" lon="-8.7951560">
        <ele>60.7</ele>
        <time>2021-05-17T14:43:11Z</time>
      </trkpt>
      <trkpt lat="41.6687370" lon="-8.7951670">
        <ele>60.8</ele>
        <time>2021-05-17T14:43:12Z</time>
      </trkpt>
      <trkpt lat="41.6687400" lon="-8.7951970">
        <ele>60.8</ele>
        <time>2021-05-17T14:43:13Z</time>
      </trkpt>
      <trkpt lat="41.6687400" lon="-8.7952060">
        <ele>60.9</ele>
        <time>2021-05-17T14:43:14Z</time>
      </trkpt>
      <trkpt lat="41.6687400" lon="-8.7952160">
        <ele>60.9</ele>
        <time>2021-05-17T14:43:15Z</time>
      </trkpt>
      <trkpt lat="41.6687430" lon="-8.7952320">
        <ele>60.9</ele>
        <time>2021-05-17T14:43:16Z</time>
      </trkpt>
      <trkpt lat="41.6687530" lon="-8.7952460">
        <ele>61.0</ele>
        <time>2021-05-17T14:43:17Z</time>
      </trkpt>
      <trkpt lat="41.6687590" lon="-8.7952530">
        <ele>61.0</ele>
        <time>2021-05-17T14:43:18Z</time>
      </trkpt>
      <trkpt lat="41.6687630" lon="-8.7952710">
        <ele>61.1</ele>
        <time>2021-05-17T14:43:19Z</time>
      </trkpt>
      <trkpt lat="41.6687680" lon="-8.7952900">
        <ele>61.1</ele>
        <time>2021-05-17T14:43:20Z</time>
      </trkpt>
      <trkpt lat="41.6687810" lon="-8.7953140">
        <ele>61.2</ele>
        <time>2021-05-17T14:43:21Z</time>
      </trkpt>
      <trkpt lat="41.6687870" lon="-8.7953230">
        <ele>61.2</ele>
        <time>2021-05-17T14:43:22Z</time>
      </trkpt>
      <trkpt lat="41.6687920" lon="-8.7953320">
        <ele>61.2</ele>
        <time>2021-05-17T14:43:23Z</time>
      </trkpt>
      <trkpt lat="41.6688020" lon="-8.7953490">
        <ele>61.3</ele>
        <time>2021-05-17T14:43:24Z</time>
      </trkpt>
      <trkpt lat="41.6688080" lon="-8.7953610">
        <ele>61.3</ele>
        <time>2021-05-17T14:43:25Z</time>
      </trkpt>
      <trkpt lat="41.6688170" lon="-8.7953860">
        <ele>61.4</ele>
        <time>2021-05-17T14:43:26Z</time>
      </trkpt>
      <trkpt lat="41.6688200" lon="-8.7953980">
        <ele>61.4</ele>
        <time>2021-05-17T14:43:27Z</time>
      </trkpt>
      <trkpt lat="41.6688240" lon="-8.7954090">
        <ele>61.4</ele>
        <time>2021-05-17T14:43:28Z</time>
      </trkpt>
      <trkpt lat="41.6688360" lon="-8.7954200">
        <ele>61.5</ele>
        <time>2021-05-17T14:43:29Z</time>
      </trkpt>
      <trkpt lat="41.6688480" lon="-8.7954260">
        <ele>61.5</ele>
        <time>2021-05-17T14:43:30Z</time>
      </trkpt>
      <trkpt lat="41.6688610" lon="-8.7954410">
        <ele>61.6</ele>
        <time>2021-05-17T14:43:31Z</time>
      </trkpt>
      <trkpt lat="41.6688720" lon="-8.7954540">
        <ele>61.6</ele>
        <time>2021-05-17T14:43:32Z</time>
      </trkpt>
      <trkpt lat="41.6688880" lon="-8.7954740">
        <ele>61.7</ele>
        <time>2021-05-17T14:43:33Z</time>
      </trkpt>
      <trkpt lat="41.6688940" lon="-8.7954820">
        <ele>61.7</ele>
        <time>2021-05-17T14:43:34Z</time>
      </trkpt>
      <trkpt lat="41.6689000" lon="-8.7954910">
        <ele>61.7</ele>
        <time>2021-05-17T14:43:35Z</time>
      </trkpt>
      <trkpt lat="41.6689100" lon="-8.7955010">
        <ele>61.8</ele>
        <time>2021-05-17T14:43:36Z</time>
      </trkpt>
      <trkpt lat="41.6689250" lon="-8.7955110">
        <ele>61.8</ele>
        <time>2021-05-17T14:43:37Z</time>
      </trkpt>
      <trkpt lat="41.6689380" lon="-8.7955310">
        <ele>61.9</ele>
        <time>2021-05-17T14:43:38Z</time>
      </trkpt>
      <trkpt lat="41.6689460" lon="-8.7955380">
        <ele>61.9</ele>
        <time>2021-05-17T14:43:39Z</time>
      </trkpt>
      <trkpt lat="41.6689530" lon="-8.7955450">
        <ele>61.9</ele>
        <time>2021-05-17T14:43:40Z</time>
      </trkpt>
      <trkpt lat="41.6689630" lon="-8.7955530">
        <ele>61.9</ele>
        <time>2021-05-17T14:43:41Z</time>
      </trkpt>
      <trkpt lat="41.6689700" lon="-8.7955640">
        <ele>62.0</ele>
        <time>2021-05-17T14:43:42Z</time>
      </trkpt>
      <trkpt lat="41.6689810" lon="-8.7955700">
        <ele>62.0</ele>
        <time>2021-05-17T14:43:43Z</time>
      </trkpt>
      <trkpt lat="41.6689930" lon="-8.7955740">
        <ele>62.0</ele>
        <time>2021-05-17T14:43:44Z</time>
      </trkpt>
      <trkpt lat="41.6690030" lon="-8.7955770">
        <ele>62.0</ele>
        <time>2021-05-17T14:43:45Z</time>
      </trkpt>
      <trkpt lat="41.6690130" lon="-8.7955800">
        <ele>62.0</ele>
        <time>2021-05-17T14:43:46Z</time>
      </trkpt>
      <trkpt lat="41.6690240" lon="-8.7955850">
        <ele>62.1</ele>
        <time>2021-05-17T14:43:47Z</time>
      </trkpt>
      <trkpt lat="41.6690410" lon="-8.7955860">
        <ele>62.1</ele>
        <time>2021-05-17T14:43:48Z</time>
      </trkpt>
      <trkpt lat="41.6690610" lon="-8.7955940">
        <ele>62.1</ele>
        <time>2021-05-17T14:43:49Z</time>
      </trkpt>
      <trkpt lat="41.6690690" lon="-8.7955980">
        <ele>62.1</ele>
        <time>2021-05-17T14:43:50Z</time>
      </trkpt>
      <trkpt lat="41.6690760" lon="-8.7956030">
        <ele>62.2</ele>
        <time>2021-05-17T14:43:51Z</time>
      </trkpt>
      <trkpt lat="41.6690820" lon="-8.7956070">
        <ele>62.2</ele>
        <time>2021-05-17T14:43:52Z</time>
      </trkpt>
      <trkpt lat="41.6690940" lon="-8.7956100">
        <ele>62.2</ele>
        <time>2021-05-17T14:43:53Z</time>
      </trkpt>
      <trkpt lat="41.6691040" lon="-8.7956080">
        <ele>62.2</ele>
        <time>2021-05-17T14:43:54Z</time>
      </trkpt>
      <trkpt lat="41.6691240" lon="-8.7956140">
        <ele>62.2</ele>
        <time>2021-05-17T14:43:55Z</time>
      </trkpt>
      <trkpt lat="41.6691330" lon="-8.7956160">
        <ele>62.2</ele>
        <time>2021-05-17T14:43:56Z</time>
      </trkpt>
      <trkpt lat="41.6691410" lon="-8.7956180">
        <ele>62.3</ele>
        <time>2021-05-17T14:43:57Z</time>
      </trkpt>
      <trkpt lat="41.6691620" lon="-8.7956210">
        <ele>62.3</ele>
        <time>2021-05-17T14:43:58Z</time>
      </trkpt>
      <trkpt lat="41.6691700" lon="-8.7956250">
        <ele>62.3</ele>
        <time>2021-05-17T14:43:59Z</time>
      </trkpt>
      <trkpt lat="41.6691780" lon="-8.7956290">
        <ele>62.3</ele>
        <time>2021-05-17T14:44:00Z</time>
      </trkpt>
      <trkpt lat="41.6691740" lon="-8.7956370">
        <ele>62.3</ele>
        <time>2021-05-17T14:44:01Z</time>
      </trkpt>
      <trkpt lat="41.6691810" lon="-8.7956400">
        <ele>62.3</ele>
        <time>2021-05-17T14:44:02Z</time>
      </trkpt>
      <trkpt lat="41.6691890" lon="-8.7956430">
        <ele>62.4</ele>
        <time>2021-05-17T14:44:03Z</time>
      </trkpt>
      <trkpt lat="41.6691970" lon="-8.7956460">
        <ele>62.4</ele>
        <time>2021-05-17T14:44:04Z</time>
      </trkpt>
      <trkpt lat="41.6692040" lon="-8.7956490">
        <ele>62.4</ele>
        <time>2021-05-17T14:44:05Z</time>
      </trkpt>
      <trkpt lat="41.6692120" lon="-8.7956520">
        <ele>62.4</ele>
        <time>2021-05-17T14:44:06Z</time>
      </trkpt>
      <trkpt lat="41.6692340" lon="-8.7956540">
        <ele>62.4</ele>
        <time>2021-05-17T14:44:07Z</time>
      </trkpt>
      <trkpt lat="41.6692420" lon="-8.7956560">
        <ele>62.4</ele>
        <time>2021-05-17T14:44:08Z</time>
      </trkpt>
      <trkpt lat="41.6692500" lon="-8.7956570">
        <ele>62.5</ele>
        <time>2021-05-17T14:44:09Z</time>
      </trkpt>
      <trkpt lat="41.6692600" lon="-8.7956610">
        <ele>62.5</ele>
        <time>2021-05-17T14:44:10Z</time>
      </trkpt>
      <trkpt lat="41.6692820" lon="-8.7956560">
        <ele>62.5</ele>
        <time>2021-05-17T14:44:11Z</time>
      </trkpt>
      <trkpt lat="41.6692920" lon="-8.7956570">
        <ele>62.5</ele>
        <time>2021-05-17T14:44:12Z</time>
      </trkpt>
      <trkpt lat="41.6693030" lon="-8.7956560">
        <ele>62.5</ele>
        <time>2021-05-17T14:44:13Z</time>
      </trkpt>
      <trkpt lat="41.6693130" lon="-8.7956610">
        <ele>62.6</ele>
        <time>2021-05-17T14:44:14Z</time>
      </trkpt>
      <trkpt lat="41.6693240" lon="-8.7956750">
        <ele>62.6</ele>
        <time>2021-05-17T14:44:15Z</time>
      </trkpt>
      <trkpt lat="41.6693420" lon="-8.7956800">
        <ele>62.6</ele>
        <time>2021-05-17T14:44:16Z</time>
      </trkpt>
      <trkpt lat="41.6693560" lon="-8.7956850">
        <ele>62.6</ele>
        <time>2021-05-17T14:44:17Z</time>
      </trkpt>
      <trkpt lat="41.6693720" lon="-8.7956900">
        <ele>62.7</ele>
        <time>2021-05-17T14:44:18Z</time>
      </trkpt>
      <trkpt lat="41.6693890" lon="-8.7956950">
        <ele>62.7</ele>
        <time>2021-05-17T14:44:19Z</time>
      </trkpt>
      <trkpt lat="41.6694070" lon="-8.7956930">
        <ele>62.7</ele>
        <time>2021-05-17T14:44:20Z</time>
      </trkpt>
      <trkpt lat="41.6694240" lon="-8.7956980">
        <ele>62.8</ele>
        <time>2021-05-17T14:44:21Z</time>
      </trkpt>
      <trkpt lat="41.6694390" lon="-8.7957060">
        <ele>62.8</ele>
        <time>2021-05-17T14:44:22Z</time>
      </trkpt>
      <trkpt lat="41.6694540" lon="-8.7957130">
        <ele>62.8</ele>
        <time>2021-05-17T14:44:23Z</time>
      </trkpt>
      <trkpt lat="41.6694680" lon="-8.7957210">
        <ele>62.9</ele>
        <time>2021-05-17T14:44:24Z</time>
      </trkpt>
      <trkpt lat="41.6694810" lon="-8.7957350">
        <ele>62.9</ele>
        <time>2021-05-17T14:44:25Z</time>
      </trkpt>
      <trkpt lat="41.6694960" lon="-8.7957420">
        <ele>63.0</ele>
        <time>2021-05-17T14:44:26Z</time>
      </trkpt>
      <trkpt lat="41.6695090" lon="-8.7957540">
        <ele>63.0</ele>
        <time>2021-05-17T14:44:27Z</time>
      </trkpt>
      <trkpt lat="41.6695250" lon="-8.7957590">
        <ele>63.0</ele>
        <time>2021-05-17T14:44:28Z</time>
      </trkpt>
      <trkpt lat="41.6695410" lon="-8.7957630">
        <ele>63.1</ele>
        <time>2021-05-17T14:44:29Z</time>
      </trkpt>
      <trkpt lat="41.6695580" lon="-8.7957670">
        <ele>63.1</ele>
        <time>2021-05-17T14:44:30Z</time>
      </trkpt>
      <trkpt lat="41.6695800" lon="-8.7957750">
        <ele>63.2</ele>
        <time>2021-05-17T14:44:31Z</time>
      </trkpt>
      <trkpt lat="41.6695890" lon="-8.7957800">
        <ele>63.2</ele>
        <time>2021-05-17T14:44:32Z</time>
      </trkpt>
      <trkpt lat="41.6695970" lon="-8.7957840">
        <ele>63.2</ele>
        <time>2021-05-17T14:44:33Z</time>
      </trkpt>
      <trkpt lat="41.6696110" lon="-8.7957860">
        <ele>63.3</ele>
        <time>2021-05-17T14:44:34Z</time>
      </trkpt>
      <trkpt lat="41.6696230" lon="-8.7958040">
        <ele>63.3</ele>
        <time>2021-05-17T14:44:35Z</time>
      </trkpt>
      <trkpt lat="41.6696350" lon="-8.7958150">
        <ele>63.3</ele>
        <time>2021-05-17T14:44:36Z</time>
      </trkpt>
      <trkpt lat="41.6696510" lon="-8.7958200">
        <ele>63.3</ele>
        <time>2021-05-17T14:44:37Z</time>
      </trkpt>
      <trkpt lat="41.6696680" lon="-8.7958150">
        <ele>63.3</ele>
        <time>2021-05-17T14:44:38Z</time>
      </trkpt>
      <trkpt lat="41.6696790" lon="-8.7958180">
        <ele>63.3</ele>
        <time>2021-05-17T14:44:39Z</time>
      </trkpt>
      <trkpt lat="41.6696910" lon="-8.7958300">
        <ele>63.3</ele>
        <time>2021-05-17T14:44:40Z</time>
      </trkpt>
      <trkpt lat="41.6697050" lon="-8.7958300">
        <ele>63.3</ele>
        <time>2021-05-17T14:44:41Z</time>
      </trkpt>
      <trkpt lat="41.6697190" lon="-8.7958330">
        <ele>63.3</ele>
        <time>2021-05-17T14:44:42Z</time>
      </trkpt>
      <trkpt lat="41.6697320" lon="-8.7958390">
        <ele>63.3</ele>
        <time>2021-05-17T14:44:43Z</time>
      </trkpt>
      <trkpt lat="41.6697500" lon="-8.7958550">
        <ele>63.4</ele>
        <time>2021-05-17T14:44:44Z</time>
      </trkpt>
      <trkpt lat="41.6697570" lon="-8.7958600">
        <ele>63.4</ele>
        <time>2021-05-17T14:44:45Z</time>
      </trkpt>
      <trkpt lat="41.6697650" lon="-8.7958650">
        <ele>63.4</ele>
        <time>2021-05-17T14:44:46Z</time>
      </trkpt>
      <trkpt lat="41.6697780" lon="-8.7958670">
        <ele>63.4</ele>
        <time>2021-05-17T14:44:47Z</time>
      </trkpt>
      <trkpt lat="41.6697880" lon="-8.7958700">
        <ele>63.4</ele>
        <time>2021-05-17T14:44:48Z</time>
      </trkpt>
      <trkpt lat="41.6697960" lon="-8.7958590">
        <ele>63.5</ele>
        <time>2021-05-17T14:44:49Z</time>
      </trkpt>
      <trkpt lat="41.6698050" lon="-8.7958420">
        <ele>63.5</ele>
        <time>2021-05-17T14:44:50Z</time>
      </trkpt>
      <trkpt lat="41.6698140" lon="-8.7958340">
        <ele>63.5</ele>
        <time>2021-05-17T14:44:51Z</time>
      </trkpt>
      <trkpt lat="41.6698240" lon="-8.7958290">
        <ele>63.5</ele>
        <time>2021-05-17T14:44:52Z</time>
      </trkpt>
      <trkpt lat="41.6698300" lon="-8.7958280">
        <ele>63.5</ele>
        <time>2021-05-17T14:44:53Z</time>
      </trkpt>
      <trkpt lat="41.6698390" lon="-8.7958270">
        <ele>63.6</ele>
        <time>2021-05-17T14:44:54Z</time>
      </trkpt>
      <trkpt lat="41.6698460" lon="-8.7958280">
        <ele>63.6</ele>
        <time>2021-05-17T14:44:55Z</time>
      </trkpt>
      <trkpt lat="41.6698530" lon="-8.7958330">
        <ele>63.6</ele>
        <time>2021-05-17T14:44:56Z</time>
      </trkpt>
      <trkpt lat="41.6698580" lon="-8.7958380">
        <ele>63.6</ele>
        <time>2021-05-17T14:44:57Z</time>
      </trkpt>
      <trkpt lat="41.6698660" lon="-8.7958490">
        <ele>63.6</ele>
        <time>2021-05-17T14:44:58Z</time>
      </trkpt>
      <trkpt lat="41.6698790" lon="-8.7958530">
        <ele>63.6</ele>
        <time>2021-05-17T14:44:59Z</time>
      </trkpt>
      <trkpt lat="41.6698840" lon="-8.7958560">
        <ele>63.7</ele>
        <time>2021-05-17T14:45:00Z</time>
      </trkpt>
      <trkpt lat="41.6698880" lon="-8.7958630">
        <ele>63.7</ele>
        <time>2021-05-17T14:45:01Z</time>
      </trkpt>
      <trkpt lat="41.6698930" lon="-8.7958710">
        <ele>63.7</ele>
        <time>2021-05-17T14:45:02Z</time>
      </trkpt>
      <trkpt lat="41.6699020" lon="-8.7958730">
        <ele>63.7</ele>
        <time>2021-05-17T14:45:03Z</time>
      </trkpt>
      <trkpt lat="41.6699040" lon="-8.7958830">
        <ele>63.7</ele>
        <time>2021-05-17T14:45:04Z</time>
      </trkpt>
      <trkpt lat="41.6699140" lon="-8.7958900">
        <ele>63.8</ele>
        <time>2021-05-17T14:45:05Z</time>
      </trkpt>
      <trkpt lat="41.6699170" lon="-8.7958980">
        <ele>63.8</ele>
        <time>2021-05-17T14:45:06Z</time>
      </trkpt>
      <trkpt lat="41.6699240" lon="-8.7959050">
        <ele>63.8</ele>
        <time>2021-05-17T14:45:07Z</time>
      </trkpt>
      <trkpt lat="41.6699290" lon="-8.7959080">
        <ele>63.8</ele>
        <time>2021-05-17T14:45:08Z</time>
      </trkpt>
      <trkpt lat="41.6699290" lon="-8.7959070">
        <ele>63.8</ele>
        <time>2021-05-17T14:45:09Z</time>
      </trkpt>
      <trkpt lat="41.6699250" lon="-8.7959060">
        <ele>63.8</ele>
        <time>2021-05-17T14:45:10Z</time>
      </trkpt>
      <trkpt lat="41.6699210" lon="-8.7959000">
        <ele>63.8</ele>
        <time>2021-05-17T14:45:11Z</time>
      </trkpt>
      <trkpt lat="41.6699200" lon="-8.7958980">
        <ele>63.8</ele>
        <time>2021-05-17T14:45:12Z</time>
      </trkpt>
      <trkpt lat="41.6699260" lon="-8.7958980">
        <ele>63.8</ele>
        <time>2021-05-17T14:45:13Z</time>
      </trkpt>
      <trkpt lat="41.6699240" lon="-8.7958960">
        <ele>63.8</ele>
        <time>2021-05-17T14:45:14Z</time>
      </trkpt>
      <trkpt lat="41.6699160" lon="-8.7958940">
        <ele>63.9</ele>
        <time>2021-05-17T14:45:15Z</time>
      </trkpt>
      <trkpt lat="41.6699210" lon="-8.7959080">
        <ele>63.9</ele>
        <time>2021-05-17T14:45:16Z</time>
      </trkpt>
      <trkpt lat="41.6699150" lon="-8.7959240">
        <ele>63.9</ele>
        <time>2021-05-17T14:45:17Z</time>
      </trkpt>
      <trkpt lat="41.6699110" lon="-8.7959390">
        <ele>64.0</ele>
        <time>2021-05-17T14:45:18Z</time>
      </trkpt>
      <trkpt lat="41.6699070" lon="-8.7959430">
        <ele>64.0</ele>
        <time>2021-05-17T14:45:19Z</time>
      </trkpt>
      <trkpt lat="41.6699130" lon="-8.7959450">
        <ele>64.0</ele>
        <time>2021-05-17T14:45:20Z</time>
      </trkpt>
      <trkpt lat="41.6699110" lon="-8.7959470">
        <ele>64.0</ele>
        <time>2021-05-17T14:45:21Z</time>
      </trkpt>
      <trkpt lat="41.6699030" lon="-8.7959460">
        <ele>64.0</ele>
        <time>2021-05-17T14:45:22Z</time>
      </trkpt>
      <trkpt lat="41.6698990" lon="-8.7959430">
        <ele>64.0</ele>
        <time>2021-05-17T14:45:23Z</time>
      </trkpt>
      <trkpt lat="41.6698940" lon="-8.7959270">
        <ele>64.1</ele>
        <time>2021-05-17T14:45:24Z</time>
      </trkpt>
      <trkpt lat="41.6699000" lon="-8.7959260">
        <ele>64.1</ele>
        <time>2021-05-17T14:45:25Z</time>
      </trkpt>
      <trkpt lat="41.6699010" lon="-8.7959220">
        <ele>64.1</ele>
        <time>2021-05-17T14:45:26Z</time>
      </trkpt>
      <trkpt lat="41.6699040" lon="-8.7959230">
        <ele>64.1</ele>
        <time>2021-05-17T14:45:27Z</time>
      </trkpt>
      <trkpt lat="41.6699030" lon="-8.7959280">
        <ele>64.1</ele>
        <time>2021-05-17T14:45:28Z</time>
      </trkpt>
      <trkpt lat="41.6698930" lon="-8.7959320">
        <ele>64.1</ele>
        <time>2021-05-17T14:45:29Z</time>
      </trkpt>
      <trkpt lat="41.6699020" lon="-8.7959170">
        <ele>64.2</ele>
        <time>2021-05-17T14:45:30Z</time>
      </trkpt>
      <trkpt lat="41.6699060" lon="-8.7959170">
        <ele>64.2</ele>
        <time>2021-05-17T14:45:31Z</time>
      </trkpt>
      <trkpt lat="41.6699130" lon="-8.7959150">
        <ele>64.2</ele>
        <time>2021-05-17T14:45:32Z</time>
      </trkpt>
      <trkpt lat="41.6699080" lon="-8.7959170">
        <ele>64.2</ele>
        <time>2021-05-17T14:45:33Z</time>
      </trkpt>
      <trkpt lat="41.6699110" lon="-8.7959160">
        <ele>64.2</ele>
        <time>2021-05-17T14:45:34Z</time>
      </trkpt>
      <trkpt lat="41.6699010" lon="-8.7959250">
        <ele>64.3</ele>
        <time>2021-05-17T14:45:35Z</time>
      </trkpt>
      <trkpt lat="41.6699000" lon="-8.7959340">
        <ele>64.3</ele>
        <time>2021-05-17T14:45:36Z</time>
      </trkpt>
      <trkpt lat="41.6699030" lon="-8.7959430">
        <ele>64.3</ele>
        <time>2021-05-17T14:45:37Z</time>
      </trkpt>
      <trkpt lat="41.6699010" lon="-8.7959320">
        <ele>64.4</ele>
        <time>2021-05-17T14:45:38Z</time>
      </trkpt>
      <trkpt lat="41.6699020" lon="-8.7959210">
        <ele>64.4</ele>
        <time>2021-05-17T14:45:39Z</time>
      </trkpt>
      <trkpt lat="41.6698960" lon="-8.7959210">
        <ele>64.4</ele>
        <time>2021-05-17T14:45:40Z</time>
      </trkpt>
      <trkpt lat="41.6698980" lon="-8.7959200">
        <ele>64.4</ele>
        <time>2021-05-17T14:45:41Z</time>
      </trkpt>
      <trkpt lat="41.6698970" lon="-8.7959110">
        <ele>64.4</ele>
        <time>2021-05-17T14:45:42Z</time>
      </trkpt>
      <trkpt lat="41.6698960" lon="-8.7959090">
        <ele>64.4</ele>
        <time>2021-05-17T14:45:43Z</time>
      </trkpt>
      <trkpt lat="41.6698910" lon="-8.7959070">
        <ele>64.5</ele>
        <time>2021-05-17T14:45:44Z</time>
      </trkpt>
      <trkpt lat="41.6698950" lon="-8.7958960">
        <ele>64.5</ele>
        <time>2021-05-17T14:45:45Z</time>
      </trkpt>
      <trkpt lat="41.6698990" lon="-8.7958840">
        <ele>64.5</ele>
        <time>2021-05-17T14:45:46Z</time>
      </trkpt>
      <trkpt lat="41.6699000" lon="-8.7958800">
        <ele>64.5</ele>
        <time>2021-05-17T14:45:47Z</time>
      </trkpt>
      <trkpt lat="41.6699050" lon="-8.7958720">
        <ele>64.6</ele>
        <time>2021-05-17T14:45:48Z</time>
      </trkpt>
      <trkpt lat="41.6699060" lon="-8.7958730">
        <ele>64.6</ele>
        <time>2021-05-17T14:45:49Z</time>
      </trkpt>
      <trkpt lat="41.6699100" lon="-8.7958580">
        <ele>64.6</ele>
        <time>2021-05-17T14:45:50Z</time>
      </trkpt>
      <trkpt lat="41.6699050" lon="-8.7958590">
        <ele>64.6</ele>
        <time>2021-05-17T14:45:51Z</time>
      </trkpt>
      <trkpt lat="41.6699050" lon="-8.7958690">
        <ele>64.6</ele>
        <time>2021-05-17T14:45:52Z</time>
      </trkpt>
      <trkpt lat="41.6698980" lon="-8.7958740">
        <ele>64.7</ele>
        <time>2021-05-17T14:45:53Z</time>
      </trkpt>
      <trkpt lat="41.6698910" lon="-8.7958720">
        <ele>64.7</ele>
        <time>2021-05-17T14:45:54Z</time>
      </trkpt>
      <trkpt lat="41.6698890" lon="-8.7958830">
        <ele>64.7</ele>
        <time>2021-05-17T14:45:55Z</time>
      </trkpt>
      <trkpt lat="41.6698930" lon="-8.7958810">
        <ele>64.8</ele>
        <time>2021-05-17T14:45:56Z</time>
      </trkpt>
      <trkpt lat="41.6698980" lon="-8.7958800">
        <ele>64.8</ele>
        <time>2021-05-17T14:45:57Z</time>
      </trkpt>
      <trkpt lat="41.6699020" lon="-8.7958800">
        <ele>64.8</ele>
        <time>2021-05-17T14:45:58Z</time>
      </trkpt>
      <trkpt lat="41.6699070" lon="-8.7958800">
        <ele>64.8</ele>
        <time>2021-05-17T14:45:59Z</time>
      </trkpt>
      <trkpt lat="41.6699110" lon="-8.7958800">
        <ele>64.8</ele>
        <time>2021-05-17T14:46:00Z</time>
      </trkpt>
      <trkpt lat="41.6699160" lon="-8.7958790">
        <ele>64.9</ele>
        <time>2021-05-17T14:46:01Z</time>
      </trkpt>
      <trkpt lat="41.6699200" lon="-8.7958790">
        <ele>64.9</ele>
        <time>2021-05-17T14:46:02Z</time>
      </trkpt>
      <trkpt lat="41.6699250" lon="-8.7958790">
        <ele>64.9</ele>
        <time>2021-05-17T14:46:03Z</time>
      </trkpt>
      <trkpt lat="41.6699290" lon="-8.7958790">
        <ele>64.9</ele>
        <time>2021-05-17T14:46:04Z</time>
      </trkpt>
      <trkpt lat="41.6699340" lon="-8.7958780">
        <ele>64.9</ele>
        <time>2021-05-17T14:46:05Z</time>
      </trkpt>
      <trkpt lat="41.6699380" lon="-8.7958780">
        <ele>64.9</ele>
        <time>2021-05-17T14:46:06Z</time>
      </trkpt>
      <trkpt lat="41.6699430" lon="-8.7958780">
        <ele>65.0</ele>
        <time>2021-05-17T14:46:07Z</time>
      </trkpt>
      <trkpt lat="41.6699470" lon="-8.7958780">
        <ele>65.0</ele>
        <time>2021-05-17T14:46:08Z</time>
      </trkpt>
      <trkpt lat="41.6699520" lon="-8.7958770">
        <ele>65.0</ele>
        <time>2021-05-17T14:46:09Z</time>
      </trkpt>
      <trkpt lat="41.6699560" lon="-8.7958770">
        <ele>65.0</ele>
        <time>2021-05-17T14:46:10Z</time>
      </trkpt>
      <trkpt lat="41.6699620" lon="-8.7958650">
        <ele>65.1</ele>
        <time>2021-05-17T14:46:11Z</time>
      </trkpt>
      <trkpt lat="41.6699470" lon="-8.7958650">
        <ele>65.1</ele>
        <time>2021-05-17T14:46:12Z</time>
      </trkpt>
      <trkpt lat="41.6699390" lon="-8.7958690">
        <ele>65.2</ele>
        <time>2021-05-17T14:46:13Z</time>
      </trkpt>
      <trkpt lat="41.6699310" lon="-8.7958700">
        <ele>65.2</ele>
        <time>2021-05-17T14:46:14Z</time>
      </trkpt>
      <trkpt lat="41.6699320" lon="-8.7958690">
        <ele>65.2</ele>
        <time>2021-05-17T14:46:15Z</time>
      </trkpt>
      <trkpt lat="41.6699330" lon="-8.7958650">
        <ele>65.2</ele>
        <time>2021-05-17T14:46:16Z</time>
      </trkpt>
      <trkpt lat="41.6699320" lon="-8.7958730">
        <ele>65.2</ele>
        <time>2021-05-17T14:46:17Z</time>
      </trkpt>
      <trkpt lat="41.6699320" lon="-8.7958670">
        <ele>65.3</ele>
        <time>2021-05-17T14:46:18Z</time>
      </trkpt>
      <trkpt lat="41.6699330" lon="-8.7958630">
        <ele>65.3</ele>
        <time>2021-05-17T14:46:19Z</time>
      </trkpt>
      <trkpt lat="41.6699350" lon="-8.7958650">
        <ele>65.3</ele>
        <time>2021-05-17T14:46:20Z</time>
      </trkpt>
      <trkpt lat="41.6699350" lon="-8.7958580">
        <ele>65.3</ele>
        <time>2021-05-17T14:46:21Z</time>
      </trkpt>
      <trkpt lat="41.6699250" lon="-8.7958620">
        <ele>65.4</ele>
        <time>2021-05-17T14:46:22Z</time>
      </trkpt>
      <trkpt lat="41.6699230" lon="-8.7958740">
        <ele>65.4</ele>
        <time>2021-05-17T14:46:23Z</time>
      </trkpt>
      <trkpt lat="41.6699200" lon="-8.7958750">
        <ele>65.4</ele>
        <time>2021-05-17T14:46:24Z</time>
      </trkpt>
      <trkpt lat="41.6699210" lon="-8.7958600">
        <ele>65.5</ele>
        <time>2021-05-17T14:46:25Z</time>
      </trkpt>
      <trkpt lat="41.6699190" lon="-8.7958540">
        <ele>65.5</ele>
        <time>2021-05-17T14:46:26Z</time>
      </trkpt>
      <trkpt lat="41.6699210" lon="-8.7958450">
        <ele>65.5</ele>
        <time>2021-05-17T14:46:27Z</time>
      </trkpt>
      <trkpt lat="41.6699100" lon="-8.7958360">
        <ele>65.6</ele>
        <time>2021-05-17T14:46:28Z</time>
      </trkpt>
      <trkpt lat="41.6699080" lon="-8.7958510">
        <ele>65.6</ele>
        <time>2021-05-17T14:46:29Z</time>
      </trkpt>
      <trkpt lat="41.6699050" lon="-8.7958460">
        <ele>65.6</ele>
        <time>2021-05-17T14:46:30Z</time>
      </trkpt>
      <trkpt lat="41.6698960" lon="-8.7958550">
        <ele>65.7</ele>
        <time>2021-05-17T14:46:31Z</time>
      </trkpt>
      <trkpt lat="41.6699060" lon="-8.7958610">
        <ele>65.8</ele>
        <time>2021-05-17T14:46:32Z</time>
      </trkpt>
      <trkpt lat="41.6699140" lon="-8.7958590">
        <ele>65.8</ele>
        <time>2021-05-17T14:46:33Z</time>
      </trkpt>
      <trkpt lat="41.6699120" lon="-8.7958690">
        <ele>65.8</ele>
        <time>2021-05-17T14:46:34Z</time>
      </trkpt>
      <trkpt lat="41.6699070" lon="-8.7958730">
        <ele>65.9</ele>
        <time>2021-05-17T14:46:35Z</time>
      </trkpt>
      <trkpt lat="41.6699020" lon="-8.7958730">
        <ele>65.9</ele>
        <time>2021-05-17T14:46:36Z</time>
      </trkpt>
      <trkpt lat="41.6698980" lon="-8.7958740">
        <ele>65.9</ele>
        <time>2021-05-17T14:46:37Z</time>
      </trkpt>
      <trkpt lat="41.6698980" lon="-8.7958770">
        <ele>65.9</ele>
        <time>2021-05-17T14:46:38Z</time>
      </trkpt>
      <trkpt lat="41.6698870" lon="-8.7958850">
        <ele>66.0</ele>
        <time>2021-05-17T14:46:39Z</time>
      </trkpt>
      <trkpt lat="41.6698820" lon="-8.7958860">
        <ele>66.0</ele>
        <time>2021-05-17T14:46:40Z</time>
      </trkpt>
      <trkpt lat="41.6698760" lon="-8.7958830">
        <ele>66.1</ele>
        <time>2021-05-17T14:46:41Z</time>
      </trkpt>
      <trkpt lat="41.6698730" lon="-8.7958910">
        <ele>66.1</ele>
        <time>2021-05-17T14:46:42Z</time>
      </trkpt>
      <trkpt lat="41.6698680" lon="-8.7958970">
        <ele>66.1</ele>
        <time>2021-05-17T14:46:43Z</time>
      </trkpt>
      <trkpt lat="41.6698730" lon="-8.7958870">
        <ele>66.2</ele>
        <time>2021-05-17T14:46:44Z</time>
      </trkpt>
      <trkpt lat="41.6698800" lon="-8.7958920">
        <ele>66.2</ele>
        <time>2021-05-17T14:46:45Z</time>
      </trkpt>
      <trkpt lat="41.6698660" lon="-8.7959000">
        <ele>66.3</ele>
        <time>2021-05-17T14:46:46Z</time>
      </trkpt>
      <trkpt lat="41.6698670" lon="-8.7959030">
        <ele>66.3</ele>
        <time>2021-05-17T14:46:47Z</time>
      </trkpt>
      <trkpt lat="41.6698690" lon="-8.7958990">
        <ele>66.3</ele>
        <time>2021-05-17T14:46:48Z</time>
      </trkpt>
      <trkpt lat="41.6698710" lon="-8.7959000">
        <ele>66.3</ele>
        <time>2021-05-17T14:46:49Z</time>
      </trkpt>
      <trkpt lat="41.6698680" lon="-8.7958930">
        <ele>66.4</ele>
        <time>2021-05-17T14:46:50Z</time>
      </trkpt>
      <trkpt lat="41.6698670" lon="-8.7959040">
        <ele>66.4</ele>
        <time>2021-05-17T14:46:51Z</time>
      </trkpt>
      <trkpt lat="41.6698710" lon="-8.7959220">
        <ele>66.5</ele>
        <time>2021-05-17T14:46:52Z</time>
      </trkpt>
      <trkpt lat="41.6698730" lon="-8.7959190">
        <ele>66.5</ele>
        <time>2021-05-17T14:46:53Z</time>
      </trkpt>
      <trkpt lat="41.6698810" lon="-8.7959280">
        <ele>66.6</ele>
        <time>2021-05-17T14:46:54Z</time>
      </trkpt>
      <trkpt lat="41.6698870" lon="-8.7959290">
        <ele>66.6</ele>
        <time>2021-05-17T14:46:55Z</time>
      </trkpt>
      <trkpt lat="41.6698930" lon="-8.7959320">
        <ele>66.6</ele>
        <time>2021-05-17T14:46:56Z</time>
      </trkpt>
      <trkpt lat="41.6698900" lon="-8.7959280">
        <ele>66.6</ele>
        <time>2021-05-17T14:46:57Z</time>
      </trkpt>
      <trkpt lat="41.6698770" lon="-8.7959140">
        <ele>66.7</ele>
        <time>2021-05-17T14:46:58Z</time>
      </trkpt>
      <trkpt lat="41.6698670" lon="-8.7959180">
        <ele>66.8</ele>
        <time>2021-05-17T14:46:59Z</time>
      </trkpt>
      <trkpt lat="41.6698650" lon="-8.7959150">
        <ele>66.8</ele>
        <time>2021-05-17T14:47:00Z</time>
      </trkpt>
      <trkpt lat="41.6698650" lon="-8.7959140">
        <ele>66.8</ele>
        <time>2021-05-17T14:47:01Z</time>
      </trkpt>
      <trkpt lat="41.6698650" lon="-8.7959200">
        <ele>66.8</ele>
        <time>2021-05-17T14:47:02Z</time>
      </trkpt>
      <trkpt lat="41.6698770" lon="-8.7958980">
        <ele>66.9</ele>
        <time>2021-05-17T14:47:03Z</time>
      </trkpt>
      <trkpt lat="41.6698730" lon="-8.7958960">
        <ele>67.0</ele>
        <time>2021-05-17T14:47:04Z</time>
      </trkpt>
      <trkpt lat="41.6698770" lon="-8.7958980">
        <ele>67.0</ele>
        <time>2021-05-17T14:47:05Z</time>
      </trkpt>
      <trkpt lat="41.6698710" lon="-8.7959010">
        <ele>67.0</ele>
        <time>2021-05-17T14:47:06Z</time>
      </trkpt>
      <trkpt lat="41.6698640" lon="-8.7958950">
        <ele>67.1</ele>
        <time>2021-05-17T14:47:07Z</time>
      </trkpt>
      <trkpt lat="41.6698650" lon="-8.7958960">
        <ele>67.1</ele>
        <time>2021-05-17T14:47:08Z</time>
      </trkpt>
      <trkpt lat="41.6698570" lon="-8.7958960">
        <ele>67.1</ele>
        <time>2021-05-17T14:47:09Z</time>
      </trkpt>
      <trkpt lat="41.6698570" lon="-8.7958960">
        <ele>67.1</ele>
        <time>2021-05-17T14:47:10Z</time>
      </trkpt>
      <trkpt lat="41.6698470" lon="-8.7959120">
        <ele>67.2</ele>
        <time>2021-05-17T14:47:11Z</time>
      </trkpt>
      <trkpt lat="41.6698450" lon="-8.7959170">
        <ele>67.2</ele>
        <time>2021-05-17T14:47:12Z</time>
      </trkpt>
      <trkpt lat="41.6698450" lon="-8.7959190">
        <ele>67.2</ele>
        <time>2021-05-17T14:47:13Z</time>
      </trkpt>
      <trkpt lat="41.6698360" lon="-8.7959260">
        <ele>67.3</ele>
        <time>2021-05-17T14:47:14Z</time>
      </trkpt>
      <trkpt lat="41.6698400" lon="-8.7959320">
        <ele>67.3</ele>
        <time>2021-05-17T14:47:15Z</time>
      </trkpt>
      <trkpt lat="41.6698340" lon="-8.7959330">
        <ele>67.4</ele>
        <time>2021-05-17T14:47:16Z</time>
      </trkpt>
      <trkpt lat="41.6698330" lon="-8.7959270">
        <ele>67.4</ele>
        <time>2021-05-17T14:47:17Z</time>
      </trkpt>
      <trkpt lat="41.6698360" lon="-8.7959420">
        <ele>67.5</ele>
        <time>2021-05-17T14:47:18Z</time>
      </trkpt>
      <trkpt lat="41.6698430" lon="-8.7959420">
        <ele>67.5</ele>
        <time>2021-05-17T14:47:19Z</time>
      </trkpt>
      <trkpt lat="41.6698320" lon="-8.7959470">
        <ele>67.6</ele>
        <time>2021-05-17T14:47:20Z</time>
      </trkpt>
      <trkpt lat="41.6698260" lon="-8.7959360">
        <ele>67.6</ele>
        <time>2021-05-17T14:47:21Z</time>
      </trkpt>
      <trkpt lat="41.6698280" lon="-8.7959280">
        <ele>67.7</ele>
        <time>2021-05-17T14:47:22Z</time>
      </trkpt>
      <trkpt lat="41.6698300" lon="-8.7959240">
        <ele>67.7</ele>
        <time>2021-05-17T14:47:23Z</time>
      </trkpt>
      <trkpt lat="41.6698260" lon="-8.7959100">
        <ele>67.8</ele>
        <time>2021-05-17T14:47:24Z</time>
      </trkpt>
      <trkpt lat="41.6698270" lon="-8.7958990">
        <ele>67.8</ele>
        <time>2021-05-17T14:47:25Z</time>
      </trkpt>
      <trkpt lat="41.6698330" lon="-8.7959000">
        <ele>67.8</ele>
        <time>2021-05-17T14:47:26Z</time>
      </trkpt>
      <trkpt lat="41.6698410" lon="-8.7958910">
        <ele>67.9</ele>
        <time>2021-05-17T14:47:27Z</time>
      </trkpt>
      <trkpt lat="41.6698470" lon="-8.7958880">
        <ele>67.9</ele>
        <time>2021-05-17T14:47:28Z</time>
      </trkpt>
      <trkpt lat="41.6698490" lon="-8.7958870">
        <ele>67.9</ele>
        <time>2021-05-17T14:47:29Z</time>
      </trkpt>
      <trkpt lat="41.6698520" lon="-8.7958880">
        <ele>68.0</ele>
        <time>2021-05-17T14:47:30Z</time>
      </trkpt>
      <trkpt lat="41.6698560" lon="-8.7958750">
        <ele>68.0</ele>
        <time>2021-05-17T14:47:31Z</time>
      </trkpt>
      <trkpt lat="41.6698680" lon="-8.7958590">
        <ele>68.1</ele>
        <time>2021-05-17T14:47:32Z</time>
      </trkpt>
      <trkpt lat="41.6698750" lon="-8.7958600">
        <ele>68.2</ele>
        <time>2021-05-17T14:47:33Z</time>
      </trkpt>
      <trkpt lat="41.6698840" lon="-8.7958530">
        <ele>68.2</ele>
        <time>2021-05-17T14:47:34Z</time>
      </trkpt>
      <trkpt lat="41.6698800" lon="-8.7958610">
        <ele>68.3</ele>
        <time>2021-05-17T14:47:35Z</time>
      </trkpt>
      <trkpt lat="41.6698840" lon="-8.7958680">
        <ele>68.3</ele>
        <time>2021-05-17T14:47:36Z</time>
      </trkpt>
      <trkpt lat="41.6698850" lon="-8.7958640">
        <ele>68.3</ele>
        <time>2021-05-17T14:47:37Z</time>
      </trkpt>
      <trkpt lat="41.6698860" lon="-8.7958470">
        <ele>68.4</ele>
        <time>2021-05-17T14:47:38Z</time>
      </trkpt>
      <trkpt lat="41.6698860" lon="-8.7958430">
        <ele>68.4</ele>
        <time>2021-05-17T14:47:39Z</time>
      </trkpt>
      <trkpt lat="41.6698820" lon="-8.7958540">
        <ele>68.5</ele>
        <time>2021-05-17T14:47:40Z</time>
      </trkpt>
      <trkpt lat="41.6698760" lon="-8.7958620">
        <ele>68.5</ele>
        <time>2021-05-17T14:47:41Z</time>
      </trkpt>
      <trkpt lat="41.6698750" lon="-8.7958770">
        <ele>68.6</ele>
        <time>2021-05-17T14:47:42Z</time>
      </trkpt>
      <trkpt lat="41.6698800" lon="-8.7958810">
        <ele>68.6</ele>
        <time>2021-05-17T14:47:43Z</time>
      </trkpt>
      <trkpt lat="41.6698750" lon="-8.7958870">
        <ele>68.6</ele>
        <time>2021-05-17T14:47:44Z</time>
      </trkpt>
      <trkpt lat="41.6698810" lon="-8.7958790">
        <ele>68.7</ele>
        <time>2021-05-17T14:47:45Z</time>
      </trkpt>
      <trkpt lat="41.6698850" lon="-8.7958680">
        <ele>68.7</ele>
        <time>2021-05-17T14:47:46Z</time>
      </trkpt>
      <trkpt lat="41.6698860" lon="-8.7958760">
        <ele>68.8</ele>
        <time>2021-05-17T14:47:47Z</time>
      </trkpt>
      <trkpt lat="41.6698930" lon="-8.7958750">
        <ele>68.8</ele>
        <time>2021-05-17T14:47:48Z</time>
      </trkpt>
      <trkpt lat="41.6699010" lon="-8.7958660">
        <ele>68.9</ele>
        <time>2021-05-17T14:47:49Z</time>
      </trkpt>
      <trkpt lat="41.6699010" lon="-8.7958690">
        <ele>68.9</ele>
        <time>2021-05-17T14:47:50Z</time>
      </trkpt>
      <trkpt lat="41.6698960" lon="-8.7958820">
        <ele>69.0</ele>
        <time>2021-05-17T14:47:51Z</time>
      </trkpt>
      <trkpt lat="41.6698920" lon="-8.7958890">
        <ele>69.0</ele>
        <time>2021-05-17T14:47:52Z</time>
      </trkpt>
      <trkpt lat="41.6698910" lon="-8.7958900">
        <ele>69.0</ele>
        <time>2021-05-17T14:47:53Z</time>
      </trkpt>
      <trkpt lat="41.6698880" lon="-8.7958870">
        <ele>69.0</ele>
        <time>2021-05-17T14:47:54Z</time>
      </trkpt>
      <trkpt lat="41.6698880" lon="-8.7958840">
        <ele>69.0</ele>
        <time>2021-05-17T14:47:55Z</time>
      </trkpt>
      <trkpt lat="41.6698890" lon="-8.7958870">
        <ele>69.1</ele>
        <time>2021-05-17T14:47:56Z</time>
      </trkpt>
      <trkpt lat="41.6698870" lon="-8.7958880">
        <ele>69.1</ele>
        <time>2021-05-17T14:47:58Z</time>
      </trkpt>
      <trkpt lat="41.6698860" lon="-8.7958940">
        <ele>69.1</ele>
        <time>2021-05-17T14:47:59Z</time>
      </trkpt>
      <trkpt lat="41.6698820" lon="-8.7958910">
        <ele>69.1</ele>
        <time>2021-05-17T14:48:00Z</time>
      </trkpt>
      <trkpt lat="41.6698810" lon="-8.7958990">
        <ele>69.2</ele>
        <time>2021-05-17T14:48:01Z</time>
      </trkpt>
      <trkpt lat="41.6698820" lon="-8.7959000">
        <ele>69.2</ele>
        <time>2021-05-17T14:48:02Z</time>
      </trkpt>
      <trkpt lat="41.6698710" lon="-8.7959010">
        <ele>69.2</ele>
        <time>2021-05-17T14:48:03Z</time>
      </trkpt>
      <trkpt lat="41.6698710" lon="-8.7959000">
        <ele>69.2</ele>
        <time>2021-05-17T14:48:04Z</time>
      </trkpt>
      <trkpt lat="41.6698700" lon="-8.7959050">
        <ele>69.2</ele>
        <time>2021-05-17T14:48:05Z</time>
      </trkpt>
      <trkpt lat="41.6698800" lon="-8.7959060">
        <ele>69.3</ele>
        <time>2021-05-17T14:48:06Z</time>
      </trkpt>
      <trkpt lat="41.6698740" lon="-8.7959090">
        <ele>69.3</ele>
        <time>2021-05-17T14:48:07Z</time>
      </trkpt>
      <trkpt lat="41.6698730" lon="-8.7959180">
        <ele>69.4</ele>
        <time>2021-05-17T14:48:08Z</time>
      </trkpt>
      <trkpt lat="41.6698730" lon="-8.7959230">
        <ele>69.4</ele>
        <time>2021-05-17T14:48:09Z</time>
      </trkpt>
      <trkpt lat="41.6698760" lon="-8.7959250">
        <ele>69.4</ele>
        <time>2021-05-17T14:48:10Z</time>
      </trkpt>
      <trkpt lat="41.6698730" lon="-8.7959280">
        <ele>69.4</ele>
        <time>2021-05-17T14:48:11Z</time>
      </trkpt>
      <trkpt lat="41.6698700" lon="-8.7959390">
        <ele>69.5</ele>
        <time>2021-05-17T14:48:12Z</time>
      </trkpt>
      <trkpt lat="41.6698670" lon="-8.7959460">
        <ele>69.5</ele>
        <time>2021-05-17T14:48:13Z</time>
      </trkpt>
      <trkpt lat="41.6698610" lon="-8.7959470">
        <ele>69.6</ele>
        <time>2021-05-17T14:48:14Z</time>
      </trkpt>
      <trkpt lat="41.6698590" lon="-8.7959440">
        <ele>69.6</ele>
        <time>2021-05-17T14:48:15Z</time>
      </trkpt>
      <trkpt lat="41.6698570" lon="-8.7959440">
        <ele>69.6</ele>
        <time>2021-05-17T14:48:16Z</time>
      </trkpt>
      <trkpt lat="41.6698570" lon="-8.7959430">
        <ele>69.6</ele>
        <time>2021-05-17T14:48:17Z</time>
      </trkpt>
      <trkpt lat="41.6698570" lon="-8.7959430">
        <ele>69.6</ele>
        <time>2021-05-17T14:48:18Z</time>
      </trkpt>
      <trkpt lat="41.6698570" lon="-8.7959430">
        <ele>69.6</ele>
        <time>2021-05-17T14:48:19Z</time>
      </trkpt>
      <trkpt lat="41.6698630" lon="-8.7959820">
        <ele>69.8</ele>
        <time>2021-05-17T14:48:20Z</time>
      </trkpt>
      <trkpt lat="41.6698610" lon="-8.7959720">
        <ele>69.8</ele>
        <time>2021-05-17T14:48:21Z</time>
      </trkpt>
      <trkpt lat="41.6698550" lon="-8.7959750">
        <ele>69.8</ele>
        <time>2021-05-17T14:48:22Z</time>
      </trkpt>
      <trkpt lat="41.6698540" lon="-8.7959730">
        <ele>69.9</ele>
        <time>2021-05-17T14:48:23Z</time>
      </trkpt>
      <trkpt lat="41.6698490" lon="-8.7959770">
        <ele>69.9</ele>
        <time>2021-05-17T14:48:24Z</time>
      </trkpt>
      <trkpt lat="41.6698510" lon="-8.7959860">
        <ele>69.9</ele>
        <time>2021-05-17T14:48:25Z</time>
      </trkpt>
      <trkpt lat="41.6698500" lon="-8.7959740">
        <ele>70.0</ele>
        <time>2021-05-17T14:48:26Z</time>
      </trkpt>
      <trkpt lat="41.6698450" lon="-8.7959720">
        <ele>70.0</ele>
        <time>2021-05-17T14:48:27Z</time>
      </trkpt>
      <trkpt lat="41.6698410" lon="-8.7959600">
        <ele>70.1</ele>
        <time>2021-05-17T14:48:28Z</time>
      </trkpt>
      <trkpt lat="41.6698400" lon="-8.7959520">
        <ele>70.1</ele>
        <time>2021-05-17T14:48:29Z</time>
      </trkpt>
      <trkpt lat="41.6698400" lon="-8.7959670">
        <ele>70.2</ele>
        <time>2021-05-17T14:48:30Z</time>
      </trkpt>
      <trkpt lat="41.6698390" lon="-8.7959700">
        <ele>70.2</ele>
        <time>2021-05-17T14:48:31Z</time>
      </trkpt>
      <trkpt lat="41.6698380" lon="-8.7959620">
        <ele>70.2</ele>
        <time>2021-05-17T14:48:32Z</time>
      </trkpt>
      <trkpt lat="41.6698410" lon="-8.7959580">
        <ele>70.2</ele>
        <time>2021-05-17T14:48:33Z</time>
      </trkpt>
      <trkpt lat="41.6698440" lon="-8.7959540">
        <ele>70.3</ele>
        <time>2021-05-17T14:48:34Z</time>
      </trkpt>
      <trkpt lat="41.6698410" lon="-8.7959650">
        <ele>70.3</ele>
        <time>2021-05-17T14:48:35Z</time>
      </trkpt>
      <trkpt lat="41.6698420" lon="-8.7959720">
        <ele>70.3</ele>
        <time>2021-05-17T14:48:36Z</time>
      </trkpt>
      <trkpt lat="41.6698420" lon="-8.7959720">
        <ele>70.3</ele>
        <time>2021-05-17T14:48:37Z</time>
      </trkpt>
      <trkpt lat="41.6698430" lon="-8.7959820">
        <ele>70.4</ele>
        <time>2021-05-17T14:48:38Z</time>
      </trkpt>
      <trkpt lat="41.6698420" lon="-8.7959810">
        <ele>70.4</ele>
        <time>2021-05-17T14:48:39Z</time>
      </trkpt>
      <trkpt lat="41.6698400" lon="-8.7959860">
        <ele>70.4</ele>
        <time>2021-05-17T14:48:40Z</time>
      </trkpt>
      <trkpt lat="41.6698330" lon="-8.7959830">
        <ele>70.5</ele>
        <time>2021-05-17T14:48:41Z</time>
      </trkpt>
      <trkpt lat="41.6698410" lon="-8.7959780">
        <ele>70.5</ele>
        <time>2021-05-17T14:48:42Z</time>
      </trkpt>
      <trkpt lat="41.6698570" lon="-8.7959580">
        <ele>70.6</ele>
        <time>2021-05-17T14:48:43Z</time>
      </trkpt>
      <trkpt lat="41.6698540" lon="-8.7959530">
        <ele>70.7</ele>
        <time>2021-05-17T14:48:44Z</time>
      </trkpt>
      <trkpt lat="41.6698540" lon="-8.7959530">
        <ele>70.7</ele>
        <time>2021-05-17T14:48:45Z</time>
      </trkpt>
      <trkpt lat="41.6698570" lon="-8.7959500">
        <ele>70.7</ele>
        <time>2021-05-17T14:48:46Z</time>
      </trkpt>
      <trkpt lat="41.6698580" lon="-8.7959490">
        <ele>70.7</ele>
        <time>2021-05-17T14:48:47Z</time>
      </trkpt>
      <trkpt lat="41.6698600" lon="-8.7959560">
        <ele>70.7</ele>
        <time>2021-05-17T14:48:48Z</time>
      </trkpt>
      <trkpt lat="41.6698660" lon="-8.7959460">
        <ele>70.8</ele>
        <time>2021-05-17T14:48:49Z</time>
      </trkpt>
      <trkpt lat="41.6698630" lon="-8.7959420">
        <ele>70.8</ele>
        <time>2021-05-17T14:48:50Z</time>
      </trkpt>
      <trkpt lat="41.6698630" lon="-8.7959360">
        <ele>70.8</ele>
        <time>2021-05-17T14:48:51Z</time>
      </trkpt>
      <trkpt lat="41.6698610" lon="-8.7959460">
        <ele>70.9</ele>
        <time>2021-05-17T14:48:52Z</time>
      </trkpt>
      <trkpt lat="41.6698640" lon="-8.7959480">
        <ele>70.9</ele>
        <time>2021-05-17T14:48:53Z</time>
      </trkpt>
      <trkpt lat="41.6698640" lon="-8.7959490">
        <ele>70.9</ele>
        <time>2021-05-17T14:48:54Z</time>
      </trkpt>
      <trkpt lat="41.6698660" lon="-8.7959480">
        <ele>70.9</ele>
        <time>2021-05-17T14:48:55Z</time>
      </trkpt>
      <trkpt lat="41.6698630" lon="-8.7959540">
        <ele>70.9</ele>
        <time>2021-05-17T14:48:56Z</time>
      </trkpt>
      <trkpt lat="41.6698610" lon="-8.7959550">
        <ele>71.0</ele>
        <time>2021-05-17T14:48:57Z</time>
      </trkpt>
      <trkpt lat="41.6698610" lon="-8.7959580">
        <ele>71.0</ele>
        <time>2021-05-17T14:48:58Z</time>
      </trkpt>
      <trkpt lat="41.6698640" lon="-8.7959570">
        <ele>71.0</ele>
        <time>2021-05-17T14:48:59Z</time>
      </trkpt>
      <trkpt lat="41.6698730" lon="-8.7959380">
        <ele>71.1</ele>
        <time>2021-05-17T14:49:00Z</time>
      </trkpt>
      <trkpt lat="41.6698670" lon="-8.7959270">
        <ele>71.1</ele>
        <time>2021-05-17T14:49:01Z</time>
      </trkpt>
      <trkpt lat="41.6698680" lon="-8.7959280">
        <ele>71.1</ele>
        <time>2021-05-17T14:49:02Z</time>
      </trkpt>
      <trkpt lat="41.6698740" lon="-8.7959290">
        <ele>71.2</ele>
        <time>2021-05-17T14:49:03Z</time>
      </trkpt>
      <trkpt lat="41.6698750" lon="-8.7959320">
        <ele>71.2</ele>
        <time>2021-05-17T14:49:04Z</time>
      </trkpt>
      <trkpt lat="41.6698760" lon="-8.7959260">
        <ele>71.2</ele>
        <time>2021-05-17T14:49:05Z</time>
      </trkpt>
      <trkpt lat="41.6698730" lon="-8.7959260">
        <ele>71.2</ele>
        <time>2021-05-17T14:49:06Z</time>
      </trkpt>
      <trkpt lat="41.6698750" lon="-8.7959210">
        <ele>71.3</ele>
        <time>2021-05-17T14:49:07Z</time>
      </trkpt>
      <trkpt lat="41.6698850" lon="-8.7959060">
        <ele>71.3</ele>
        <time>2021-05-17T14:49:08Z</time>
      </trkpt>
      <trkpt lat="41.6698840" lon="-8.7959100">
        <ele>71.4</ele>
        <time>2021-05-17T14:49:09Z</time>
      </trkpt>
      <trkpt lat="41.6698810" lon="-8.7959090">
        <ele>71.4</ele>
        <time>2021-05-17T14:49:10Z</time>
      </trkpt>
      <trkpt lat="41.6698790" lon="-8.7959110">
        <ele>71.4</ele>
        <time>2021-05-17T14:49:11Z</time>
      </trkpt>
      <trkpt lat="41.6698790" lon="-8.7959140">
        <ele>71.4</ele>
        <time>2021-05-17T14:49:12Z</time>
      </trkpt>
      <trkpt lat="41.6698770" lon="-8.7959140">
        <ele>71.4</ele>
        <time>2021-05-17T14:49:13Z</time>
      </trkpt>
      <trkpt lat="41.6698790" lon="-8.7959120">
        <ele>71.4</ele>
        <time>2021-05-17T14:49:14Z</time>
      </trkpt>
      <trkpt lat="41.6698840" lon="-8.7959100">
        <ele>71.4</ele>
        <time>2021-05-17T14:49:15Z</time>
      </trkpt>
      <trkpt lat="41.6698870" lon="-8.7959130">
        <ele>71.5</ele>
        <time>2021-05-17T14:49:16Z</time>
      </trkpt>
      <trkpt lat="41.6698910" lon="-8.7959120">
        <ele>71.5</ele>
        <time>2021-05-17T14:49:17Z</time>
      </trkpt>
      <trkpt lat="41.6698840" lon="-8.7959120">
        <ele>71.5</ele>
        <time>2021-05-17T14:49:18Z</time>
      </trkpt>
      <trkpt lat="41.6698780" lon="-8.7959100">
        <ele>71.6</ele>
        <time>2021-05-17T14:49:19Z</time>
      </trkpt>
      <trkpt lat="41.6698720" lon="-8.7959140">
        <ele>71.6</ele>
        <time>2021-05-17T14:49:20Z</time>
      </trkpt>
      <trkpt lat="41.6698760" lon="-8.7959100">
        <ele>71.6</ele>
        <time>2021-05-17T14:49:21Z</time>
      </trkpt>
      <trkpt lat="41.6698750" lon="-8.7959100">
        <ele>71.6</ele>
        <time>2021-05-17T14:49:22Z</time>
      </trkpt>
      <trkpt lat="41.6698730" lon="-8.7959110">
        <ele>71.6</ele>
        <time>2021-05-17T14:49:23Z</time>
      </trkpt>
      <trkpt lat="41.6698720" lon="-8.7959090">
        <ele>71.7</ele>
        <time>2021-05-17T14:49:24Z</time>
      </trkpt>
      <trkpt lat="41.6698720" lon="-8.7959150">
        <ele>71.7</ele>
        <time>2021-05-17T14:49:25Z</time>
      </trkpt>
      <trkpt lat="41.6698740" lon="-8.7959120">
        <ele>71.7</ele>
        <time>2021-05-17T14:49:26Z</time>
      </trkpt>
      <trkpt lat="41.6698740" lon="-8.7959090">
        <ele>71.7</ele>
        <time>2021-05-17T14:49:27Z</time>
      </trkpt>
      <trkpt lat="41.6698660" lon="-8.7959040">
        <ele>71.8</ele>
        <time>2021-05-17T14:49:28Z</time>
      </trkpt>
      <trkpt lat="41.6698600" lon="-8.7959120">
        <ele>71.8</ele>
        <time>2021-05-17T14:49:29Z</time>
      </trkpt>
      <trkpt lat="41.6698510" lon="-8.7959060">
        <ele>71.9</ele>
        <time>2021-05-17T14:49:30Z</time>
      </trkpt>
      <trkpt lat="41.6698500" lon="-8.7959050">
        <ele>71.9</ele>
        <time>2021-05-17T14:49:31Z</time>
      </trkpt>
      <trkpt lat="41.6698490" lon="-8.7958980">
        <ele>71.9</ele>
        <time>2021-05-17T14:49:32Z</time>
      </trkpt>
      <trkpt lat="41.6698500" lon="-8.7958920">
        <ele>71.9</ele>
        <time>2021-05-17T14:49:33Z</time>
      </trkpt>
      <trkpt lat="41.6698470" lon="-8.7958940">
        <ele>71.9</ele>
        <time>2021-05-17T14:49:34Z</time>
      </trkpt>
      <trkpt lat="41.6698510" lon="-8.7958910">
        <ele>72.0</ele>
        <time>2021-05-17T14:49:35Z</time>
      </trkpt>
      <trkpt lat="41.6698560" lon="-8.7958810">
        <ele>72.0</ele>
        <time>2021-05-17T14:49:36Z</time>
      </trkpt>
      <trkpt lat="41.6698600" lon="-8.7958890">
        <ele>72.1</ele>
        <time>2021-05-17T14:49:37Z</time>
      </trkpt>
      <trkpt lat="41.6698590" lon="-8.7958950">
        <ele>72.1</ele>
        <time>2021-05-17T14:49:38Z</time>
      </trkpt>
      <trkpt lat="41.6698560" lon="-8.7959040">
        <ele>72.1</ele>
        <time>2021-05-17T14:49:39Z</time>
      </trkpt>
      <trkpt lat="41.6698500" lon="-8.7959050">
        <ele>72.2</ele>
        <time>2021-05-17T14:49:40Z</time>
      </trkpt>
      <trkpt lat="41.6698460" lon="-8.7959090">
        <ele>72.2</ele>
        <time>2021-05-17T14:49:41Z</time>
      </trkpt>
      <trkpt lat="41.6698450" lon="-8.7959040">
        <ele>72.2</ele>
        <time>2021-05-17T14:49:42Z</time>
      </trkpt>
      <trkpt lat="41.6698500" lon="-8.7959040">
        <ele>72.2</ele>
        <time>2021-05-17T14:49:43Z</time>
      </trkpt>
      <trkpt lat="41.6698600" lon="-8.7959130">
        <ele>72.3</ele>
        <time>2021-05-17T14:49:44Z</time>
      </trkpt>
      <trkpt lat="41.6698620" lon="-8.7959150">
        <ele>72.3</ele>
        <time>2021-05-17T14:49:45Z</time>
      </trkpt>
      <trkpt lat="41.6698580" lon="-8.7959200">
        <ele>72.3</ele>
        <time>2021-05-17T14:49:46Z</time>
      </trkpt>
      <trkpt lat="41.6698550" lon="-8.7959250">
        <ele>72.4</ele>
        <time>2021-05-17T14:49:47Z</time>
      </trkpt>
      <trkpt lat="41.6698570" lon="-8.7959190">
        <ele>72.4</ele>
        <time>2021-05-17T14:49:48Z</time>
      </trkpt>
      <trkpt lat="41.6698580" lon="-8.7959190">
        <ele>72.4</ele>
        <time>2021-05-17T14:49:49Z</time>
      </trkpt>
      <trkpt lat="41.6698540" lon="-8.7959200">
        <ele>72.4</ele>
        <time>2021-05-17T14:49:50Z</time>
      </trkpt>
      <trkpt lat="41.6698510" lon="-8.7959280">
        <ele>72.5</ele>
        <time>2021-05-17T14:49:51Z</time>
      </trkpt>
      <trkpt lat="41.6698510" lon="-8.7959280">
        <ele>72.5</ele>
        <time>2021-05-17T14:49:52Z</time>
      </trkpt>
      <trkpt lat="41.6698560" lon="-8.7959110">
        <ele>72.5</ele>
        <time>2021-05-17T14:49:53Z</time>
      </trkpt>
      <trkpt lat="41.6698610" lon="-8.7959140">
        <ele>72.6</ele>
        <time>2021-05-17T14:49:54Z</time>
      </trkpt>
      <trkpt lat="41.6698610" lon="-8.7959120">
        <ele>72.6</ele>
        <time>2021-05-17T14:49:55Z</time>
      </trkpt>
      <trkpt lat="41.6698720" lon="-8.7959100">
        <ele>72.6</ele>
        <time>2021-05-17T14:49:56Z</time>
      </trkpt>
      <trkpt lat="41.6698730" lon="-8.7959110">
        <ele>72.6</ele>
        <time>2021-05-17T14:49:57Z</time>
      </trkpt>
      <trkpt lat="41.6698720" lon="-8.7959130">
        <ele>72.6</ele>
        <time>2021-05-17T14:49:58Z</time>
      </trkpt>
      <trkpt lat="41.6698640" lon="-8.7959070">
        <ele>72.7</ele>
        <time>2021-05-17T14:49:59Z</time>
      </trkpt>
      <trkpt lat="41.6698640" lon="-8.7959050">
        <ele>72.7</ele>
        <time>2021-05-17T14:50:00Z</time>
      </trkpt>
      <trkpt lat="41.6698700" lon="-8.7959070">
        <ele>72.7</ele>
        <time>2021-05-17T14:50:01Z</time>
      </trkpt>
      <trkpt lat="41.6698720" lon="-8.7959080">
        <ele>72.8</ele>
        <time>2021-05-17T14:50:02Z</time>
      </trkpt>
      <trkpt lat="41.6698720" lon="-8.7959110">
        <ele>72.8</ele>
        <time>2021-05-17T14:50:03Z</time>
      </trkpt>
      <trkpt lat="41.6698720" lon="-8.7959110">
        <ele>72.8</ele>
        <time>2021-05-17T14:50:04Z</time>
      </trkpt>
      <trkpt lat="41.6698720" lon="-8.7959110">
        <ele>72.8</ele>
        <time>2021-05-17T14:50:05Z</time>
      </trkpt>
      <trkpt lat="41.6698820" lon="-8.7959130">
        <ele>72.8</ele>
        <time>2021-05-17T14:50:06Z</time>
      </trkpt>
      <trkpt lat="41.6698820" lon="-8.7959130">
        <ele>72.8</ele>
        <time>2021-05-17T14:50:07Z</time>
      </trkpt>
      <trkpt lat="41.6698870" lon="-8.7959100">
        <ele>72.9</ele>
        <time>2021-05-17T14:50:08Z</time>
      </trkpt>
      <trkpt lat="41.6698870" lon="-8.7959100">
        <ele>72.9</ele>
        <time>2021-05-17T14:50:09Z</time>
      </trkpt>
      <trkpt lat="41.6698830" lon="-8.7959150">
        <ele>72.9</ele>
        <time>2021-05-17T14:50:10Z</time>
      </trkpt>
      <trkpt lat="41.6698840" lon="-8.7959120">
        <ele>72.9</ele>
        <time>2021-05-17T14:50:11Z</time>
      </trkpt>
      <trkpt lat="41.6698840" lon="-8.7959120">
        <ele>72.9</ele>
        <time>2021-05-17T14:50:12Z</time>
      </trkpt>
      <trkpt lat="41.6698880" lon="-8.7959180">
        <ele>72.9</ele>
        <time>2021-05-17T14:50:13Z</time>
      </trkpt>
      <trkpt lat="41.6698880" lon="-8.7959190">
        <ele>72.9</ele>
        <time>2021-05-17T14:50:14Z</time>
      </trkpt>
      <trkpt lat="41.6698880" lon="-8.7959190">
        <ele>72.9</ele>
        <time>2021-05-17T14:50:15Z</time>
      </trkpt>
      <trkpt lat="41.6698880" lon="-8.7959190">
        <ele>72.9</ele>
        <time>2021-05-17T14:50:16Z</time>
      </trkpt>
      <trkpt lat="41.6698880" lon="-8.7959190">
        <ele>72.9</ele>
        <time>2021-05-17T14:50:17Z</time>
      </trkpt>
      <trkpt lat="41.6698880" lon="-8.7959190">
        <ele>72.9</ele>
        <time>2021-05-17T14:50:18Z</time>
      </trkpt>
      <trkpt lat="41.6698850" lon="-8.7959280">
        <ele>73.0</ele>
        <time>2021-05-17T14:50:19Z</time>
      </trkpt>
      <trkpt lat="41.6698860" lon="-8.7959300">
        <ele>73.0</ele>
        <time>2021-05-17T14:50:20Z</time>
      </trkpt>
      <trkpt lat="41.6698940" lon="-8.7959210">
        <ele>73.0</ele>
        <time>2021-05-17T14:50:21Z</time>
      </trkpt>
      <trkpt lat="41.6698980" lon="-8.7959070">
        <ele>73.1</ele>
        <time>2021-05-17T14:50:22Z</time>
      </trkpt>
      <trkpt lat="41.6699010" lon="-8.7959050">
        <ele>73.1</ele>
        <time>2021-05-17T14:50:23Z</time>
      </trkpt>
      <trkpt lat="41.6699020" lon="-8.7959010">
        <ele>73.1</ele>
        <time>2021-05-17T14:50:24Z</time>
      </trkpt>
      <trkpt lat="41.6699100" lon="-8.7959050">
        <ele>73.2</ele>
        <time>2021-05-17T14:50:25Z</time>
      </trkpt>
      <trkpt lat="41.6699140" lon="-8.7959000">
        <ele>73.2</ele>
        <time>2021-05-17T14:50:26Z</time>
      </trkpt>
      <trkpt lat="41.6699170" lon="-8.7958940">
        <ele>73.2</ele>
        <time>2021-05-17T14:50:27Z</time>
      </trkpt>
      <trkpt lat="41.6699140" lon="-8.7958990">
        <ele>73.3</ele>
        <time>2021-05-17T14:50:28Z</time>
      </trkpt>
      <trkpt lat="41.6699130" lon="-8.7958950">
        <ele>73.3</ele>
        <time>2021-05-17T14:50:29Z</time>
      </trkpt>
      <trkpt lat="41.6699140" lon="-8.7958870">
        <ele>73.3</ele>
        <time>2021-05-17T14:50:30Z</time>
      </trkpt>
      <trkpt lat="41.6699120" lon="-8.7958900">
        <ele>73.3</ele>
        <time>2021-05-17T14:50:31Z</time>
      </trkpt>
      <trkpt lat="41.6699020" lon="-8.7958880">
        <ele>73.4</ele>
        <time>2021-05-17T14:50:33Z</time>
      </trkpt>
      <trkpt lat="41.6698990" lon="-8.7958990">
        <ele>73.4</ele>
        <time>2021-05-17T14:50:34Z</time>
      </trkpt>
      <trkpt lat="41.6698960" lon="-8.7959070">
        <ele>73.5</ele>
        <time>2021-05-17T14:50:35Z</time>
      </trkpt>
      <trkpt lat="41.6699020" lon="-8.7958970">
        <ele>73.5</ele>
        <time>2021-05-17T14:50:36Z</time>
      </trkpt>
      <trkpt lat="41.6699040" lon="-8.7958920">
        <ele>73.5</ele>
        <time>2021-05-17T14:50:37Z</time>
      </trkpt>
      <trkpt lat="41.6699060" lon="-8.7958950">
        <ele>73.6</ele>
        <time>2021-05-17T14:50:38Z</time>
      </trkpt>
      <trkpt lat="41.6699030" lon="-8.7958940">
        <ele>73.6</ele>
        <time>2021-05-17T14:50:39Z</time>
      </trkpt>
      <trkpt lat="41.6698960" lon="-8.7958810">
        <ele>73.6</ele>
        <time>2021-05-17T14:50:40Z</time>
      </trkpt>
      <trkpt lat="41.6698890" lon="-8.7958720">
        <ele>73.7</ele>
        <time>2021-05-17T14:50:41Z</time>
      </trkpt>
      <trkpt lat="41.6698890" lon="-8.7958710">
        <ele>73.7</ele>
        <time>2021-05-17T14:50:42Z</time>
      </trkpt>
      <trkpt lat="41.6698890" lon="-8.7958710">
        <ele>73.7</ele>
        <time>2021-05-17T14:50:43Z</time>
      </trkpt>
      <trkpt lat="41.6698890" lon="-8.7958710">
        <ele>73.7</ele>
        <time>2021-05-17T14:50:44Z</time>
      </trkpt>
      <trkpt lat="41.6698760" lon="-8.7958920">
        <ele>73.8</ele>
        <time>2021-05-17T14:50:45Z</time>
      </trkpt>
      <trkpt lat="41.6698720" lon="-8.7958970">
        <ele>73.8</ele>
        <time>2021-05-17T14:50:46Z</time>
      </trkpt>
      <trkpt lat="41.6698720" lon="-8.7958970">
        <ele>73.8</ele>
        <time>2021-05-17T14:50:47Z</time>
      </trkpt>
      <trkpt lat="41.6698700" lon="-8.7958960">
        <ele>73.8</ele>
        <time>2021-05-17T14:50:48Z</time>
      </trkpt>
      <trkpt lat="41.6698700" lon="-8.7958930">
        <ele>73.9</ele>
        <time>2021-05-17T14:50:49Z</time>
      </trkpt>
      <trkpt lat="41.6698740" lon="-8.7958890">
        <ele>73.9</ele>
        <time>2021-05-17T14:50:50Z</time>
      </trkpt>
      <trkpt lat="41.6698740" lon="-8.7958850">
        <ele>73.9</ele>
        <time>2021-05-17T14:50:51Z</time>
      </trkpt>
      <trkpt lat="41.6698720" lon="-8.7958910">
        <ele>73.9</ele>
        <time>2021-05-17T14:50:52Z</time>
      </trkpt>
      <trkpt lat="41.6698660" lon="-8.7959010">
        <ele>74.0</ele>
        <time>2021-05-17T14:50:53Z</time>
      </trkpt>
      <trkpt lat="41.6698650" lon="-8.7958970">
        <ele>74.0</ele>
        <time>2021-05-17T14:50:54Z</time>
      </trkpt>
      <trkpt lat="41.6698650" lon="-8.7958960">
        <ele>74.0</ele>
        <time>2021-05-17T14:50:55Z</time>
      </trkpt>
      <trkpt lat="41.6698590" lon="-8.7958890">
        <ele>74.0</ele>
        <time>2021-05-17T14:50:56Z</time>
      </trkpt>
      <trkpt lat="41.6698630" lon="-8.7958860">
        <ele>74.1</ele>
        <time>2021-05-17T14:50:57Z</time>
      </trkpt>
      <trkpt lat="41.6698650" lon="-8.7958830">
        <ele>74.1</ele>
        <time>2021-05-17T14:50:58Z</time>
      </trkpt>
      <trkpt lat="41.6698660" lon="-8.7958810">
        <ele>74.1</ele>
        <time>2021-05-17T14:50:59Z</time>
      </trkpt>
      <trkpt lat="41.6698680" lon="-8.7958730">
        <ele>74.1</ele>
        <time>2021-05-17T14:51:00Z</time>
      </trkpt>
      <trkpt lat="41.6698630" lon="-8.7958830">
        <ele>74.2</ele>
        <time>2021-05-17T14:51:01Z</time>
      </trkpt>
      <trkpt lat="41.6698610" lon="-8.7958870">
        <ele>74.2</ele>
        <time>2021-05-17T14:51:02Z</time>
      </trkpt>
      <trkpt lat="41.6698560" lon="-8.7958910">
        <ele>74.2</ele>
        <time>2021-05-17T14:51:03Z</time>
      </trkpt>
      <trkpt lat="41.6698590" lon="-8.7958940">
        <ele>74.2</ele>
        <time>2021-05-17T14:51:04Z</time>
      </trkpt>
      <trkpt lat="41.6698620" lon="-8.7958950">
        <ele>74.3</ele>
        <time>2021-05-17T14:51:05Z</time>
      </trkpt>
      <trkpt lat="41.6698620" lon="-8.7958950">
        <ele>74.3</ele>
        <time>2021-05-17T14:51:06Z</time>
      </trkpt>
      <trkpt lat="41.6698620" lon="-8.7958950">
        <ele>74.3</ele>
        <time>2021-05-17T14:51:07Z</time>
      </trkpt>
      <trkpt lat="41.6698650" lon="-8.7958910">
        <ele>74.3</ele>
        <time>2021-05-17T14:51:08Z</time>
      </trkpt>
      <trkpt lat="41.6698690" lon="-8.7958920">
        <ele>74.3</ele>
        <time>2021-05-17T14:51:09Z</time>
      </trkpt>
      <trkpt lat="41.6698710" lon="-8.7958900">
        <ele>74.3</ele>
        <time>2021-05-17T14:51:10Z</time>
      </trkpt>
      <trkpt lat="41.6698700" lon="-8.7958920">
        <ele>74.3</ele>
        <time>2021-05-17T14:51:11Z</time>
      </trkpt>
      <trkpt lat="41.6698770" lon="-8.7958850">
        <ele>74.4</ele>
        <time>2021-05-17T14:51:12Z</time>
      </trkpt>
      <trkpt lat="41.6698810" lon="-8.7958810">
        <ele>74.4</ele>
        <time>2021-05-17T14:51:13Z</time>
      </trkpt>
      <trkpt lat="41.6698810" lon="-8.7958810">
        <ele>74.4</ele>
        <time>2021-05-17T14:51:14Z</time>
      </trkpt>
      <trkpt lat="41.6698700" lon="-8.7958670">
        <ele>74.5</ele>
        <time>2021-05-17T14:51:15Z</time>
      </trkpt>
      <trkpt lat="41.6698690" lon="-8.7958670">
        <ele>74.5</ele>
        <time>2021-05-17T14:51:16Z</time>
      </trkpt>
      <trkpt lat="41.6698690" lon="-8.7958670">
        <ele>74.5</ele>
        <time>2021-05-17T14:51:17Z</time>
      </trkpt>
      <trkpt lat="41.6698690" lon="-8.7958670">
        <ele>74.5</ele>
        <time>2021-05-17T14:51:18Z</time>
      </trkpt>
      <trkpt lat="41.6698690" lon="-8.7958670">
        <ele>74.5</ele>
        <time>2021-05-17T14:51:19Z</time>
      </trkpt>
      <trkpt lat="41.6698810" lon="-8.7958680">
        <ele>74.5</ele>
        <time>2021-05-17T14:51:20Z</time>
      </trkpt>
      <trkpt lat="41.6698770" lon="-8.7958720">
        <ele>74.6</ele>
        <time>2021-05-17T14:51:21Z</time>
      </trkpt>
      <trkpt lat="41.6698830" lon="-8.7958760">
        <ele>74.6</ele>
        <time>2021-05-17T14:51:22Z</time>
      </trkpt>
      <trkpt lat="41.6698820" lon="-8.7958790">
        <ele>74.6</ele>
        <time>2021-05-17T14:51:23Z</time>
      </trkpt>
      <trkpt lat="41.6698670" lon="-8.7958780">
        <ele>74.7</ele>
        <time>2021-05-17T14:51:24Z</time>
      </trkpt>
      <trkpt lat="41.6698560" lon="-8.7958800">
        <ele>74.8</ele>
        <time>2021-05-17T14:51:25Z</time>
      </trkpt>
      <trkpt lat="41.6698530" lon="-8.7958850">
        <ele>74.8</ele>
        <time>2021-05-17T14:51:26Z</time>
      </trkpt>
      <trkpt lat="41.6698510" lon="-8.7958860">
        <ele>74.8</ele>
        <time>2021-05-17T14:51:27Z</time>
      </trkpt>
      <trkpt lat="41.6698520" lon="-8.7958870">
        <ele>74.8</ele>
        <time>2021-05-17T14:51:28Z</time>
      </trkpt>
      <trkpt lat="41.6698520" lon="-8.7958870">
        <ele>74.8</ele>
        <time>2021-05-17T14:51:29Z</time>
      </trkpt>
      <trkpt lat="41.6698590" lon="-8.7958790">
        <ele>74.8</ele>
        <time>2021-05-17T14:51:30Z</time>
      </trkpt>
      <trkpt lat="41.6698580" lon="-8.7958790">
        <ele>74.9</ele>
        <time>2021-05-17T14:51:31Z</time>
      </trkpt>
      <trkpt lat="41.6698590" lon="-8.7958820">
        <ele>74.9</ele>
        <time>2021-05-17T14:51:32Z</time>
      </trkpt>
      <trkpt lat="41.6698570" lon="-8.7958820">
        <ele>74.9</ele>
        <time>2021-05-17T14:51:33Z</time>
      </trkpt>
      <trkpt lat="41.6698590" lon="-8.7958820">
        <ele>74.9</ele>
        <time>2021-05-17T14:51:34Z</time>
      </trkpt>
      <trkpt lat="41.6698580" lon="-8.7958860">
        <ele>74.9</ele>
        <time>2021-05-17T14:51:35Z</time>
      </trkpt>
      <trkpt lat="41.6698560" lon="-8.7958880">
        <ele>74.9</ele>
        <time>2021-05-17T14:51:36Z</time>
      </trkpt>
      <trkpt lat="41.6698480" lon="-8.7958940">
        <ele>75.0</ele>
        <time>2021-05-17T14:51:37Z</time>
      </trkpt>
      <trkpt lat="41.6698430" lon="-8.7958920">
        <ele>75.0</ele>
        <time>2021-05-17T14:51:38Z</time>
      </trkpt>
      <trkpt lat="41.6698490" lon="-8.7958840">
        <ele>75.0</ele>
        <time>2021-05-17T14:51:39Z</time>
      </trkpt>
      <trkpt lat="41.6698480" lon="-8.7958920">
        <ele>75.1</ele>
        <time>2021-05-17T14:51:40Z</time>
      </trkpt>
      <trkpt lat="41.6698460" lon="-8.7959010">
        <ele>75.1</ele>
        <time>2021-05-17T14:51:41Z</time>
      </trkpt>
      <trkpt lat="41.6698480" lon="-8.7959050">
        <ele>75.1</ele>
        <time>2021-05-17T14:51:42Z</time>
      </trkpt>
      <trkpt lat="41.6698480" lon="-8.7958950">
        <ele>75.2</ele>
        <time>2021-05-17T14:51:43Z</time>
      </trkpt>
      <trkpt lat="41.6698530" lon="-8.7958890">
        <ele>75.2</ele>
        <time>2021-05-17T14:51:44Z</time>
      </trkpt>
      <trkpt lat="41.6698540" lon="-8.7958910">
        <ele>75.2</ele>
        <time>2021-05-17T14:51:45Z</time>
      </trkpt>
      <trkpt lat="41.6698600" lon="-8.7958940">
        <ele>75.2</ele>
        <time>2021-05-17T14:51:46Z</time>
      </trkpt>
      <trkpt lat="41.6698600" lon="-8.7958940">
        <ele>75.2</ele>
        <time>2021-05-17T14:51:47Z</time>
      </trkpt>
      <trkpt lat="41.6698700" lon="-8.7958970">
        <ele>75.3</ele>
        <time>2021-05-17T14:51:48Z</time>
      </trkpt>
      <trkpt lat="41.6698740" lon="-8.7958990">
        <ele>75.3</ele>
        <time>2021-05-17T14:51:49Z</time>
      </trkpt>
      <trkpt lat="41.6698740" lon="-8.7958990">
        <ele>75.3</ele>
        <time>2021-05-17T14:51:50Z</time>
      </trkpt>
      <trkpt lat="41.6698750" lon="-8.7959090">
        <ele>75.4</ele>
        <time>2021-05-17T14:51:51Z</time>
      </trkpt>
      <trkpt lat="41.6698770" lon="-8.7959170">
        <ele>75.4</ele>
        <time>2021-05-17T14:51:52Z</time>
      </trkpt>
      <trkpt lat="41.6698820" lon="-8.7959160">
        <ele>75.4</ele>
        <time>2021-05-17T14:51:53Z</time>
      </trkpt>
      <trkpt lat="41.6698860" lon="-8.7959150">
        <ele>75.4</ele>
        <time>2021-05-17T14:51:54Z</time>
      </trkpt>
      <trkpt lat="41.6698910" lon="-8.7959140">
        <ele>75.5</ele>
        <time>2021-05-17T14:51:55Z</time>
      </trkpt>
      <trkpt lat="41.6698950" lon="-8.7959130">
        <ele>75.5</ele>
        <time>2021-05-17T14:51:56Z</time>
      </trkpt>
      <trkpt lat="41.6699000" lon="-8.7959120">
        <ele>75.5</ele>
        <time>2021-05-17T14:51:57Z</time>
      </trkpt>
      <trkpt lat="41.6699040" lon="-8.7959110">
        <ele>75.5</ele>
        <time>2021-05-17T14:51:58Z</time>
      </trkpt>
      <trkpt lat="41.6699090" lon="-8.7959100">
        <ele>75.6</ele>
        <time>2021-05-17T14:51:59Z</time>
      </trkpt>
      <trkpt lat="41.6699130" lon="-8.7959090">
        <ele>75.6</ele>
        <time>2021-05-17T14:52:00Z</time>
      </trkpt>
      <trkpt lat="41.6699130" lon="-8.7959190">
        <ele>75.6</ele>
        <time>2021-05-17T14:52:01Z</time>
      </trkpt>
      <trkpt lat="41.6699100" lon="-8.7959190">
        <ele>75.6</ele>
        <time>2021-05-17T14:52:02Z</time>
      </trkpt>
      <trkpt lat="41.6699060" lon="-8.7959200">
        <ele>75.7</ele>
        <time>2021-05-17T14:52:03Z</time>
      </trkpt>
      <trkpt lat="41.6699020" lon="-8.7959210">
        <ele>75.7</ele>
        <time>2021-05-17T14:52:04Z</time>
      </trkpt>
      <trkpt lat="41.6698990" lon="-8.7959220">
        <ele>75.7</ele>
        <time>2021-05-17T14:52:05Z</time>
      </trkpt>
      <trkpt lat="41.6698950" lon="-8.7959220">
        <ele>75.7</ele>
        <time>2021-05-17T14:52:06Z</time>
      </trkpt>
      <trkpt lat="41.6698920" lon="-8.7959230">
        <ele>75.7</ele>
        <time>2021-05-17T14:52:07Z</time>
      </trkpt>
      <trkpt lat="41.6698880" lon="-8.7959240">
        <ele>75.7</ele>
        <time>2021-05-17T14:52:08Z</time>
      </trkpt>
      <trkpt lat="41.6698840" lon="-8.7959250">
        <ele>75.8</ele>
        <time>2021-05-17T14:52:09Z</time>
      </trkpt>
      <trkpt lat="41.6698810" lon="-8.7959250">
        <ele>75.8</ele>
        <time>2021-05-17T14:52:10Z</time>
      </trkpt>
      <trkpt lat="41.6698770" lon="-8.7959260">
        <ele>75.8</ele>
        <time>2021-05-17T14:52:11Z</time>
      </trkpt>
      <trkpt lat="41.6698760" lon="-8.7959270">
        <ele>75.8</ele>
        <time>2021-05-17T14:52:12Z</time>
      </trkpt>
      <trkpt lat="41.6698780" lon="-8.7959250">
        <ele>75.8</ele>
        <time>2021-05-17T14:52:13Z</time>
      </trkpt>
      <trkpt lat="41.6698770" lon="-8.7959180">
        <ele>75.8</ele>
        <time>2021-05-17T14:52:14Z</time>
      </trkpt>
      <trkpt lat="41.6698730" lon="-8.7959200">
        <ele>75.9</ele>
        <time>2021-05-17T14:52:15Z</time>
      </trkpt>
      <trkpt lat="41.6698710" lon="-8.7959080">
        <ele>75.9</ele>
        <time>2021-05-17T14:52:16Z</time>
      </trkpt>
      <trkpt lat="41.6698690" lon="-8.7959140">
        <ele>75.9</ele>
        <time>2021-05-17T14:52:17Z</time>
      </trkpt>
      <trkpt lat="41.6698690" lon="-8.7959110">
        <ele>76.0</ele>
        <time>2021-05-17T14:52:18Z</time>
      </trkpt>
      <trkpt lat="41.6698630" lon="-8.7959140">
        <ele>76.0</ele>
        <time>2021-05-17T14:52:19Z</time>
      </trkpt>
      <trkpt lat="41.6698610" lon="-8.7959150">
        <ele>76.0</ele>
        <time>2021-05-17T14:52:20Z</time>
      </trkpt>
      <trkpt lat="41.6698610" lon="-8.7959100">
        <ele>76.0</ele>
        <time>2021-05-17T14:52:21Z</time>
      </trkpt>
      <trkpt lat="41.6698490" lon="-8.7959170">
        <ele>76.1</ele>
        <time>2021-05-17T14:52:22Z</time>
      </trkpt>
      <trkpt lat="41.6698550" lon="-8.7959080">
        <ele>76.1</ele>
        <time>2021-05-17T14:52:23Z</time>
      </trkpt>
      <trkpt lat="41.6698630" lon="-8.7959070">
        <ele>76.2</ele>
        <time>2021-05-17T14:52:24Z</time>
      </trkpt>
      <trkpt lat="41.6698590" lon="-8.7959010">
        <ele>76.2</ele>
        <time>2021-05-17T14:52:25Z</time>
      </trkpt>
      <trkpt lat="41.6698570" lon="-8.7958920">
        <ele>76.2</ele>
        <time>2021-05-17T14:52:26Z</time>
      </trkpt>
      <trkpt lat="41.6698600" lon="-8.7958960">
        <ele>76.3</ele>
        <time>2021-05-17T14:52:27Z</time>
      </trkpt>
      <trkpt lat="41.6698520" lon="-8.7959050">
        <ele>76.3</ele>
        <time>2021-05-17T14:52:28Z</time>
      </trkpt>
      <trkpt lat="41.6698500" lon="-8.7959000">
        <ele>76.3</ele>
        <time>2021-05-17T14:52:29Z</time>
      </trkpt>
      <trkpt lat="41.6698440" lon="-8.7958990">
        <ele>76.4</ele>
        <time>2021-05-17T14:52:30Z</time>
      </trkpt>
      <trkpt lat="41.6698440" lon="-8.7958830">
        <ele>76.4</ele>
        <time>2021-05-17T14:52:31Z</time>
      </trkpt>
      <trkpt lat="41.6698430" lon="-8.7958830">
        <ele>76.4</ele>
        <time>2021-05-17T14:52:32Z</time>
      </trkpt>
      <trkpt lat="41.6698470" lon="-8.7958780">
        <ele>76.5</ele>
        <time>2021-05-17T14:52:33Z</time>
      </trkpt>
      <trkpt lat="41.6698420" lon="-8.7958750">
        <ele>76.5</ele>
        <time>2021-05-17T14:52:34Z</time>
      </trkpt>
      <trkpt lat="41.6698460" lon="-8.7958830">
        <ele>76.5</ele>
        <time>2021-05-17T14:52:35Z</time>
      </trkpt>
      <trkpt lat="41.6698530" lon="-8.7958820">
        <ele>76.6</ele>
        <time>2021-05-17T14:52:36Z</time>
      </trkpt>
      <trkpt lat="41.6698560" lon="-8.7959010">
        <ele>76.6</ele>
        <time>2021-05-17T14:52:37Z</time>
      </trkpt>
      <trkpt lat="41.6698570" lon="-8.7959190">
        <ele>76.7</ele>
        <time>2021-05-17T14:52:38Z</time>
      </trkpt>
      <trkpt lat="41.6698710" lon="-8.7959220">
        <ele>76.8</ele>
        <time>2021-05-17T14:52:39Z</time>
      </trkpt>
      <trkpt lat="41.6698740" lon="-8.7959260">
        <ele>76.8</ele>
        <time>2021-05-17T14:52:40Z</time>
      </trkpt>
      <trkpt lat="41.6698760" lon="-8.7959330">
        <ele>76.8</ele>
        <time>2021-05-17T14:52:41Z</time>
      </trkpt>
      <trkpt lat="41.6698820" lon="-8.7959380">
        <ele>76.9</ele>
        <time>2021-05-17T14:52:42Z</time>
      </trkpt>
      <trkpt lat="41.6698900" lon="-8.7959400">
        <ele>76.9</ele>
        <time>2021-05-17T14:52:43Z</time>
      </trkpt>
      <trkpt lat="41.6698970" lon="-8.7959470">
        <ele>76.9</ele>
        <time>2021-05-17T14:52:44Z</time>
      </trkpt>
      <trkpt lat="41.6699070" lon="-8.7959550">
        <ele>77.0</ele>
        <time>2021-05-17T14:52:45Z</time>
      </trkpt>
      <trkpt lat="41.6699120" lon="-8.7959710">
        <ele>77.1</ele>
        <time>2021-05-17T14:52:46Z</time>
      </trkpt>
      <trkpt lat="41.6699150" lon="-8.7959720">
        <ele>77.1</ele>
        <time>2021-05-17T14:52:47Z</time>
      </trkpt>
      <trkpt lat="41.6699180" lon="-8.7959790">
        <ele>77.1</ele>
        <time>2021-05-17T14:52:48Z</time>
      </trkpt>
      <trkpt lat="41.6699270" lon="-8.7959900">
        <ele>77.2</ele>
        <time>2021-05-17T14:52:49Z</time>
      </trkpt>
      <trkpt lat="41.6699420" lon="-8.7959930">
        <ele>77.3</ele>
        <time>2021-05-17T14:52:50Z</time>
      </trkpt>
      <trkpt lat="41.6699470" lon="-8.7959970">
        <ele>77.3</ele>
        <time>2021-05-17T14:52:51Z</time>
      </trkpt>
      <trkpt lat="41.6699520" lon="-8.7960000">
        <ele>77.3</ele>
        <time>2021-05-17T14:52:52Z</time>
      </trkpt>
      <trkpt lat="41.6699570" lon="-8.7960040">
        <ele>77.3</ele>
        <time>2021-05-17T14:52:53Z</time>
      </trkpt>
      <trkpt lat="41.6699620" lon="-8.7960080">
        <ele>77.4</ele>
        <time>2021-05-17T14:52:54Z</time>
      </trkpt>
      <trkpt lat="41.6699610" lon="-8.7960240">
        <ele>77.4</ele>
        <time>2021-05-17T14:52:55Z</time>
      </trkpt>
      <trkpt lat="41.6699680" lon="-8.7960310">
        <ele>77.5</ele>
        <time>2021-05-17T14:52:56Z</time>
      </trkpt>
      <trkpt lat="41.6699780" lon="-8.7960320">
        <ele>77.5</ele>
        <time>2021-05-17T14:52:57Z</time>
      </trkpt>
      <trkpt lat="41.6699860" lon="-8.7960440">
        <ele>77.6</ele>
        <time>2021-05-17T14:52:58Z</time>
      </trkpt>
      <trkpt lat="41.6699980" lon="-8.7960470">
        <ele>77.7</ele>
        <time>2021-05-17T14:52:59Z</time>
      </trkpt>
      <trkpt lat="41.6700010" lon="-8.7960560">
        <ele>77.7</ele>
        <time>2021-05-17T14:53:00Z</time>
      </trkpt>
      <trkpt lat="41.6700040" lon="-8.7960700">
        <ele>77.7</ele>
        <time>2021-05-17T14:53:01Z</time>
      </trkpt>
      <trkpt lat="41.6700100" lon="-8.7960760">
        <ele>77.8</ele>
        <time>2021-05-17T14:53:02Z</time>
      </trkpt>
      <trkpt lat="41.6700110" lon="-8.7960720">
        <ele>77.8</ele>
        <time>2021-05-17T14:53:03Z</time>
      </trkpt>
      <trkpt lat="41.6700090" lon="-8.7960740">
        <ele>77.8</ele>
        <time>2021-05-17T14:53:04Z</time>
      </trkpt>
      <trkpt lat="41.6700110" lon="-8.7960840">
        <ele>77.9</ele>
        <time>2021-05-17T14:53:05Z</time>
      </trkpt>
      <trkpt lat="41.6700150" lon="-8.7960890">
        <ele>77.9</ele>
        <time>2021-05-17T14:53:06Z</time>
      </trkpt>
      <trkpt lat="41.6700170" lon="-8.7960810">
        <ele>77.9</ele>
        <time>2021-05-17T14:53:07Z</time>
      </trkpt>
      <trkpt lat="41.6700210" lon="-8.7960940">
        <ele>78.0</ele>
        <time>2021-05-17T14:53:08Z</time>
      </trkpt>
      <trkpt lat="41.6700210" lon="-8.7960950">
        <ele>78.0</ele>
        <time>2021-05-17T14:53:09Z</time>
      </trkpt>
      <trkpt lat="41.6700230" lon="-8.7960960">
        <ele>78.0</ele>
        <time>2021-05-17T14:53:10Z</time>
      </trkpt>
      <trkpt lat="41.6700330" lon="-8.7961020">
        <ele>78.0</ele>
        <time>2021-05-17T14:53:11Z</time>
      </trkpt>
      <trkpt lat="41.6700390" lon="-8.7960990">
        <ele>78.1</ele>
        <time>2021-05-17T14:53:12Z</time>
      </trkpt>
      <trkpt lat="41.6700410" lon="-8.7961040">
        <ele>78.1</ele>
        <time>2021-05-17T14:53:13Z</time>
      </trkpt>
      <trkpt lat="41.6700460" lon="-8.7961090">
        <ele>78.1</ele>
        <time>2021-05-17T14:53:14Z</time>
      </trkpt>
      <trkpt lat="41.6700480" lon="-8.7961030">
        <ele>78.1</ele>
        <time>2021-05-17T14:53:15Z</time>
      </trkpt>
      <trkpt lat="41.6700610" lon="-8.7961090">
        <ele>78.2</ele>
        <time>2021-05-17T14:53:16Z</time>
      </trkpt>
      <trkpt lat="41.6700790" lon="-8.7961260">
        <ele>78.3</ele>
        <time>2021-05-17T14:53:17Z</time>
      </trkpt>
      <trkpt lat="41.6700870" lon="-8.7961280">
        <ele>78.4</ele>
        <time>2021-05-17T14:53:18Z</time>
      </trkpt>
      <trkpt lat="41.6700940" lon="-8.7961300">
        <ele>78.4</ele>
        <time>2021-05-17T14:53:19Z</time>
      </trkpt>
      <trkpt lat="41.6700960" lon="-8.7961310">
        <ele>78.4</ele>
        <time>2021-05-17T14:53:20Z</time>
      </trkpt>
      <trkpt lat="41.6700990" lon="-8.7961360">
        <ele>78.4</ele>
        <time>2021-05-17T14:53:21Z</time>
      </trkpt>
      <trkpt lat="41.6701100" lon="-8.7961430">
        <ele>78.5</ele>
        <time>2021-05-17T14:53:22Z</time>
      </trkpt>
      <trkpt lat="41.6701200" lon="-8.7961470">
        <ele>78.6</ele>
        <time>2021-05-17T14:53:23Z</time>
      </trkpt>
      <trkpt lat="41.6701350" lon="-8.7961570">
        <ele>78.6</ele>
        <time>2021-05-17T14:53:24Z</time>
      </trkpt>
      <trkpt lat="41.6701390" lon="-8.7961470">
        <ele>78.7</ele>
        <time>2021-05-17T14:53:25Z</time>
      </trkpt>
      <trkpt lat="41.6701560" lon="-8.7961510">
        <ele>78.8</ele>
        <time>2021-05-17T14:53:26Z</time>
      </trkpt>
      <trkpt lat="41.6701660" lon="-8.7961580">
        <ele>78.8</ele>
        <time>2021-05-17T14:53:27Z</time>
      </trkpt>
      <trkpt lat="41.6701710" lon="-8.7961620">
        <ele>78.8</ele>
        <time>2021-05-17T14:53:28Z</time>
      </trkpt>
      <trkpt lat="41.6701770" lon="-8.7961660">
        <ele>78.9</ele>
        <time>2021-05-17T14:53:29Z</time>
      </trkpt>
      <trkpt lat="41.6701860" lon="-8.7961760">
        <ele>78.9</ele>
        <time>2021-05-17T14:53:30Z</time>
      </trkpt>
      <trkpt lat="41.6701970" lon="-8.7961850">
        <ele>79.0</ele>
        <time>2021-05-17T14:53:31Z</time>
      </trkpt>
      <trkpt lat="41.6701990" lon="-8.7961910">
        <ele>79.0</ele>
        <time>2021-05-17T14:53:32Z</time>
      </trkpt>
      <trkpt lat="41.6702030" lon="-8.7962010">
        <ele>79.1</ele>
        <time>2021-05-17T14:53:33Z</time>
      </trkpt>
      <trkpt lat="41.6702060" lon="-8.7962050">
        <ele>79.1</ele>
        <time>2021-05-17T14:53:34Z</time>
      </trkpt>
      <trkpt lat="41.6702130" lon="-8.7962130">
        <ele>79.1</ele>
        <time>2021-05-17T14:53:35Z</time>
      </trkpt>
      <trkpt lat="41.6702180" lon="-8.7962190">
        <ele>79.2</ele>
        <time>2021-05-17T14:53:36Z</time>
      </trkpt>
      <trkpt lat="41.6702270" lon="-8.7962240">
        <ele>79.2</ele>
        <time>2021-05-17T14:53:37Z</time>
      </trkpt>
      <trkpt lat="41.6702340" lon="-8.7962290">
        <ele>79.3</ele>
        <time>2021-05-17T14:53:38Z</time>
      </trkpt>
      <trkpt lat="41.6702540" lon="-8.7962430">
        <ele>79.4</ele>
        <time>2021-05-17T14:53:39Z</time>
      </trkpt>
      <trkpt lat="41.6702610" lon="-8.7962480">
        <ele>79.4</ele>
        <time>2021-05-17T14:53:40Z</time>
      </trkpt>
      <trkpt lat="41.6702690" lon="-8.7962520">
        <ele>79.5</ele>
        <time>2021-05-17T14:53:41Z</time>
      </trkpt>
      <trkpt lat="41.6702810" lon="-8.7962690">
        <ele>79.5</ele>
        <time>2021-05-17T14:53:42Z</time>
      </trkpt>
      <trkpt lat="41.6702890" lon="-8.7962780">
        <ele>79.6</ele>
        <time>2021-05-17T14:53:43Z</time>
      </trkpt>
      <trkpt lat="41.6702980" lon="-8.7962880">
        <ele>79.7</ele>
        <time>2021-05-17T14:53:44Z</time>
      </trkpt>
      <trkpt lat="41.6703040" lon="-8.7962930">
        <ele>79.7</ele>
        <time>2021-05-17T14:53:45Z</time>
      </trkpt>
      <trkpt lat="41.6703160" lon="-8.7963040">
        <ele>79.8</ele>
        <time>2021-05-17T14:53:46Z</time>
      </trkpt>
      <trkpt lat="41.6703240" lon="-8.7963120">
        <ele>79.8</ele>
        <time>2021-05-17T14:53:47Z</time>
      </trkpt>
      <trkpt lat="41.6703380" lon="-8.7963250">
        <ele>79.9</ele>
        <time>2021-05-17T14:53:48Z</time>
      </trkpt>
      <trkpt lat="41.6703430" lon="-8.7963290">
        <ele>79.9</ele>
        <time>2021-05-17T14:53:49Z</time>
      </trkpt>
      <trkpt lat="41.6703480" lon="-8.7963320">
        <ele>79.9</ele>
        <time>2021-05-17T14:53:50Z</time>
      </trkpt>
      <trkpt lat="41.6703530" lon="-8.7963360">
        <ele>80.0</ele>
        <time>2021-05-17T14:53:51Z</time>
      </trkpt>
      <trkpt lat="41.6703580" lon="-8.7963400">
        <ele>80.0</ele>
        <time>2021-05-17T14:53:52Z</time>
      </trkpt>
      <trkpt lat="41.6703660" lon="-8.7963360">
        <ele>80.0</ele>
        <time>2021-05-17T14:53:53Z</time>
      </trkpt>
      <trkpt lat="41.6703770" lon="-8.7963410">
        <ele>80.1</ele>
        <time>2021-05-17T14:53:54Z</time>
      </trkpt>
      <trkpt lat="41.6703900" lon="-8.7963510">
        <ele>80.2</ele>
        <time>2021-05-17T14:53:55Z</time>
      </trkpt>
      <trkpt lat="41.6704000" lon="-8.7963640">
        <ele>80.2</ele>
        <time>2021-05-17T14:53:56Z</time>
      </trkpt>
      <trkpt lat="41.6704100" lon="-8.7963690">
        <ele>80.3</ele>
        <time>2021-05-17T14:53:57Z</time>
      </trkpt>
      <trkpt lat="41.6704190" lon="-8.7963770">
        <ele>80.3</ele>
        <time>2021-05-17T14:53:58Z</time>
      </trkpt>
      <trkpt lat="41.6704230" lon="-8.7963860">
        <ele>80.4</ele>
        <time>2021-05-17T14:53:59Z</time>
      </trkpt>
      <trkpt lat="41.6704310" lon="-8.7963880">
        <ele>80.4</ele>
        <time>2021-05-17T14:54:00Z</time>
      </trkpt>
      <trkpt lat="41.6704450" lon="-8.7963970">
        <ele>80.5</ele>
        <time>2021-05-17T14:54:01Z</time>
      </trkpt>
      <trkpt lat="41.6704590" lon="-8.7964000">
        <ele>80.5</ele>
        <time>2021-05-17T14:54:02Z</time>
      </trkpt>
      <trkpt lat="41.6704710" lon="-8.7964040">
        <ele>80.6</ele>
        <time>2021-05-17T14:54:03Z</time>
      </trkpt>
      <trkpt lat="41.6704800" lon="-8.7964060">
        <ele>80.6</ele>
        <time>2021-05-17T14:54:04Z</time>
      </trkpt>
      <trkpt lat="41.6704860" lon="-8.7964070">
        <ele>80.7</ele>
        <time>2021-05-17T14:54:05Z</time>
      </trkpt>
      <trkpt lat="41.6704980" lon="-8.7964190">
        <ele>80.7</ele>
        <time>2021-05-17T14:54:06Z</time>
      </trkpt>
      <trkpt lat="41.6705060" lon="-8.7964280">
        <ele>80.8</ele>
        <time>2021-05-17T14:54:07Z</time>
      </trkpt>
      <trkpt lat="41.6705140" lon="-8.7964300">
        <ele>80.8</ele>
        <time>2021-05-17T14:54:08Z</time>
      </trkpt>
      <trkpt lat="41.6705260" lon="-8.7964320">
        <ele>80.9</ele>
        <time>2021-05-17T14:54:09Z</time>
      </trkpt>
      <trkpt lat="41.6705410" lon="-8.7964420">
        <ele>81.0</ele>
        <time>2021-05-17T14:54:10Z</time>
      </trkpt>
      <trkpt lat="41.6705510" lon="-8.7964490">
        <ele>81.0</ele>
        <time>2021-05-17T14:54:11Z</time>
      </trkpt>
      <trkpt lat="41.6705570" lon="-8.7964550">
        <ele>81.0</ele>
        <time>2021-05-17T14:54:12Z</time>
      </trkpt>
      <trkpt lat="41.6705650" lon="-8.7964650">
        <ele>81.1</ele>
        <time>2021-05-17T14:54:13Z</time>
      </trkpt>
      <trkpt lat="41.6705740" lon="-8.7964760">
        <ele>81.1</ele>
        <time>2021-05-17T14:54:14Z</time>
      </trkpt>
      <trkpt lat="41.6705780" lon="-8.7964700">
        <ele>81.2</ele>
        <time>2021-05-17T14:54:15Z</time>
      </trkpt>
      <trkpt lat="41.6705930" lon="-8.7964790">
        <ele>81.2</ele>
        <time>2021-05-17T14:54:16Z</time>
      </trkpt>
      <trkpt lat="41.6706000" lon="-8.7964870">
        <ele>81.3</ele>
        <time>2021-05-17T14:54:17Z</time>
      </trkpt>
      <trkpt lat="41.6706070" lon="-8.7964940">
        <ele>81.3</ele>
        <time>2021-05-17T14:54:18Z</time>
      </trkpt>
      <trkpt lat="41.6706120" lon="-8.7964960">
        <ele>81.4</ele>
        <time>2021-05-17T14:54:19Z</time>
      </trkpt>
      <trkpt lat="41.6706210" lon="-8.7965040">
        <ele>81.4</ele>
        <time>2021-05-17T14:54:20Z</time>
      </trkpt>
      <trkpt lat="41.6706290" lon="-8.7965110">
        <ele>81.4</ele>
        <time>2021-05-17T14:54:21Z</time>
      </trkpt>
      <trkpt lat="41.6706400" lon="-8.7965180">
        <ele>81.5</ele>
        <time>2021-05-17T14:54:22Z</time>
      </trkpt>
      <trkpt lat="41.6706500" lon="-8.7965180">
        <ele>81.5</ele>
        <time>2021-05-17T14:54:23Z</time>
      </trkpt>
      <trkpt lat="41.6706580" lon="-8.7965220">
        <ele>81.6</ele>
        <time>2021-05-17T14:54:24Z</time>
      </trkpt>
      <trkpt lat="41.6706660" lon="-8.7965250">
        <ele>81.6</ele>
        <time>2021-05-17T14:54:25Z</time>
      </trkpt>
      <trkpt lat="41.6706770" lon="-8.7965370">
        <ele>81.7</ele>
        <time>2021-05-17T14:54:26Z</time>
      </trkpt>
      <trkpt lat="41.6706960" lon="-8.7965460">
        <ele>81.8</ele>
        <time>2021-05-17T14:54:27Z</time>
      </trkpt>
      <trkpt lat="41.6707060" lon="-8.7965510">
        <ele>81.8</ele>
        <time>2021-05-17T14:54:28Z</time>
      </trkpt>
      <trkpt lat="41.6707150" lon="-8.7965560">
        <ele>81.9</ele>
        <time>2021-05-17T14:54:29Z</time>
      </trkpt>
      <trkpt lat="41.6707200" lon="-8.7965600">
        <ele>81.9</ele>
        <time>2021-05-17T14:54:30Z</time>
      </trkpt>
      <trkpt lat="41.6707230" lon="-8.7965640">
        <ele>81.9</ele>
        <time>2021-05-17T14:54:31Z</time>
      </trkpt>
      <trkpt lat="41.6707310" lon="-8.7965690">
        <ele>81.9</ele>
        <time>2021-05-17T14:54:32Z</time>
      </trkpt>
      <trkpt lat="41.6707390" lon="-8.7965740">
        <ele>82.0</ele>
        <time>2021-05-17T14:54:33Z</time>
      </trkpt>
      <trkpt lat="41.6707490" lon="-8.7965760">
        <ele>82.0</ele>
        <time>2021-05-17T14:54:34Z</time>
      </trkpt>
      <trkpt lat="41.6707610" lon="-8.7965820">
        <ele>82.1</ele>
        <time>2021-05-17T14:54:35Z</time>
      </trkpt>
      <trkpt lat="41.6707710" lon="-8.7965900">
        <ele>82.1</ele>
        <time>2021-05-17T14:54:36Z</time>
      </trkpt>
      <trkpt lat="41.6707800" lon="-8.7966000">
        <ele>82.2</ele>
        <time>2021-05-17T14:54:37Z</time>
      </trkpt>
      <trkpt lat="41.6707900" lon="-8.7966050">
        <ele>82.2</ele>
        <time>2021-05-17T14:54:38Z</time>
      </trkpt>
      <trkpt lat="41.6707940" lon="-8.7966120">
        <ele>82.3</ele>
        <time>2021-05-17T14:54:39Z</time>
      </trkpt>
      <trkpt lat="41.6708110" lon="-8.7966250">
        <ele>82.3</ele>
        <time>2021-05-17T14:54:40Z</time>
      </trkpt>
      <trkpt lat="41.6708250" lon="-8.7966350">
        <ele>82.4</ele>
        <time>2021-05-17T14:54:41Z</time>
      </trkpt>
      <trkpt lat="41.6708400" lon="-8.7966420">
        <ele>82.5</ele>
        <time>2021-05-17T14:54:42Z</time>
      </trkpt>
      <trkpt lat="41.6708480" lon="-8.7966460">
        <ele>82.5</ele>
        <time>2021-05-17T14:54:43Z</time>
      </trkpt>
      <trkpt lat="41.6708550" lon="-8.7966500">
        <ele>82.5</ele>
        <time>2021-05-17T14:54:44Z</time>
      </trkpt>
      <trkpt lat="41.6708620" lon="-8.7966540">
        <ele>82.6</ele>
        <time>2021-05-17T14:54:45Z</time>
      </trkpt>
      <trkpt lat="41.6708690" lon="-8.7966610">
        <ele>82.6</ele>
        <time>2021-05-17T14:54:46Z</time>
      </trkpt>
      <trkpt lat="41.6708780" lon="-8.7966680">
        <ele>82.7</ele>
        <time>2021-05-17T14:54:47Z</time>
      </trkpt>
      <trkpt lat="41.6708890" lon="-8.7966790">
        <ele>82.7</ele>
        <time>2021-05-17T14:54:48Z</time>
      </trkpt>
      <trkpt lat="41.6709050" lon="-8.7966860">
        <ele>82.8</ele>
        <time>2021-05-17T14:54:49Z</time>
      </trkpt>
      <trkpt lat="41.6709110" lon="-8.7966900">
        <ele>82.8</ele>
        <time>2021-05-17T14:54:50Z</time>
      </trkpt>
      <trkpt lat="41.6709180" lon="-8.7966940">
        <ele>82.8</ele>
        <time>2021-05-17T14:54:51Z</time>
      </trkpt>
      <trkpt lat="41.6709240" lon="-8.7966980">
        <ele>82.9</ele>
        <time>2021-05-17T14:54:52Z</time>
      </trkpt>
      <trkpt lat="41.6709350" lon="-8.7967020">
        <ele>82.9</ele>
        <time>2021-05-17T14:54:53Z</time>
      </trkpt>
      <trkpt lat="41.6709440" lon="-8.7967100">
        <ele>82.9</ele>
        <time>2021-05-17T14:54:54Z</time>
      </trkpt>
      <trkpt lat="41.6709520" lon="-8.7967130">
        <ele>83.0</ele>
        <time>2021-05-17T14:54:55Z</time>
      </trkpt>
      <trkpt lat="41.6709610" lon="-8.7967190">
        <ele>83.0</ele>
        <time>2021-05-17T14:54:56Z</time>
      </trkpt>
      <trkpt lat="41.6709600" lon="-8.7967240">
        <ele>83.0</ele>
        <time>2021-05-17T14:54:57Z</time>
      </trkpt>
      <trkpt lat="41.6709690" lon="-8.7967310">
        <ele>83.1</ele>
        <time>2021-05-17T14:54:59Z</time>
      </trkpt>
      <trkpt lat="41.6709730" lon="-8.7967320">
        <ele>83.1</ele>
        <time>2021-05-17T14:55:00Z</time>
      </trkpt>
      <trkpt lat="41.6709800" lon="-8.7967370">
        <ele>83.1</ele>
        <time>2021-05-17T14:55:01Z</time>
      </trkpt>
      <trkpt lat="41.6709840" lon="-8.7967470">
        <ele>83.1</ele>
        <time>2021-05-17T14:55:02Z</time>
      </trkpt>
      <trkpt lat="41.6709950" lon="-8.7967540">
        <ele>83.2</ele>
        <time>2021-05-17T14:55:03Z</time>
      </trkpt>
      <trkpt lat="41.6710010" lon="-8.7967580">
        <ele>83.2</ele>
        <time>2021-05-17T14:55:04Z</time>
      </trkpt>
      <trkpt lat="41.6710090" lon="-8.7967620">
        <ele>83.2</ele>
        <time>2021-05-17T14:55:05Z</time>
      </trkpt>
      <trkpt lat="41.6710250" lon="-8.7967700">
        <ele>83.3</ele>
        <time>2021-05-17T14:55:06Z</time>
      </trkpt>
      <trkpt lat="41.6710380" lon="-8.7967770">
        <ele>83.4</ele>
        <time>2021-05-17T14:55:07Z</time>
      </trkpt>
      <trkpt lat="41.6710480" lon="-8.7967850">
        <ele>83.4</ele>
        <time>2021-05-17T14:55:08Z</time>
      </trkpt>
      <trkpt lat="41.6710570" lon="-8.7967900">
        <ele>83.4</ele>
        <time>2021-05-17T14:55:09Z</time>
      </trkpt>
      <trkpt lat="41.6710650" lon="-8.7967960">
        <ele>83.5</ele>
        <time>2021-05-17T14:55:10Z</time>
      </trkpt>
      <trkpt lat="41.6710710" lon="-8.7968040">
        <ele>83.5</ele>
        <time>2021-05-17T14:55:11Z</time>
      </trkpt>
      <trkpt lat="41.6710810" lon="-8.7967990">
        <ele>83.5</ele>
        <time>2021-05-17T14:55:12Z</time>
      </trkpt>
      <trkpt lat="41.6710930" lon="-8.7968000">
        <ele>83.6</ele>
        <time>2021-05-17T14:55:13Z</time>
      </trkpt>
      <trkpt lat="41.6711130" lon="-8.7968050">
        <ele>83.7</ele>
        <time>2021-05-17T14:55:14Z</time>
      </trkpt>
      <trkpt lat="41.6711220" lon="-8.7968090">
        <ele>83.7</ele>
        <time>2021-05-17T14:55:15Z</time>
      </trkpt>
      <trkpt lat="41.6711320" lon="-8.7968120">
        <ele>83.7</ele>
        <time>2021-05-17T14:55:16Z</time>
      </trkpt>
      <trkpt lat="41.6711430" lon="-8.7968190">
        <ele>83.8</ele>
        <time>2021-05-17T14:55:17Z</time>
      </trkpt>
      <trkpt lat="41.6711490" lon="-8.7968210">
        <ele>83.8</ele>
        <time>2021-05-17T14:55:18Z</time>
      </trkpt>
      <trkpt lat="41.6711630" lon="-8.7968300">
        <ele>83.9</ele>
        <time>2021-05-17T14:55:19Z</time>
      </trkpt>
      <trkpt lat="41.6711710" lon="-8.7968390">
        <ele>83.9</ele>
        <time>2021-05-17T14:55:20Z</time>
      </trkpt>
      <trkpt lat="41.6711800" lon="-8.7968490">
        <ele>84.0</ele>
        <time>2021-05-17T14:55:21Z</time>
      </trkpt>
      <trkpt lat="41.6711900" lon="-8.7968560">
        <ele>84.0</ele>
        <time>2021-05-17T14:55:22Z</time>
      </trkpt>
      <trkpt lat="41.6712080" lon="-8.7968630">
        <ele>84.1</ele>
        <time>2021-05-17T14:55:23Z</time>
      </trkpt>
      <trkpt lat="41.6712210" lon="-8.7968710">
        <ele>84.2</ele>
        <time>2021-05-17T14:55:24Z</time>
      </trkpt>
      <trkpt lat="41.6712380" lon="-8.7968740">
        <ele>84.4</ele>
        <time>2021-05-17T14:55:25Z</time>
      </trkpt>
      <trkpt lat="41.6712450" lon="-8.7968790">
        <ele>84.4</ele>
        <time>2021-05-17T14:55:26Z</time>
      </trkpt>
      <trkpt lat="41.6712510" lon="-8.7968850">
        <ele>84.5</ele>
        <time>2021-05-17T14:55:27Z</time>
      </trkpt>
      <trkpt lat="41.6712570" lon="-8.7968900">
        <ele>84.5</ele>
        <time>2021-05-17T14:55:28Z</time>
      </trkpt>
      <trkpt lat="41.6712720" lon="-8.7968990">
        <ele>84.6</ele>
        <time>2021-05-17T14:55:29Z</time>
      </trkpt>
      <trkpt lat="41.6712850" lon="-8.7969080">
        <ele>84.7</ele>
        <time>2021-05-17T14:55:30Z</time>
      </trkpt>
      <trkpt lat="41.6712910" lon="-8.7969140">
        <ele>84.8</ele>
        <time>2021-05-17T14:55:31Z</time>
      </trkpt>
      <trkpt lat="41.6712960" lon="-8.7969200">
        <ele>84.8</ele>
        <time>2021-05-17T14:55:32Z</time>
      </trkpt>
      <trkpt lat="41.6713120" lon="-8.7969300">
        <ele>84.9</ele>
        <time>2021-05-17T14:55:33Z</time>
      </trkpt>
      <trkpt lat="41.6713320" lon="-8.7969430">
        <ele>85.1</ele>
        <time>2021-05-17T14:55:34Z</time>
      </trkpt>
      <trkpt lat="41.6713410" lon="-8.7969480">
        <ele>85.1</ele>
        <time>2021-05-17T14:55:35Z</time>
      </trkpt>
      <trkpt lat="41.6713490" lon="-8.7969530">
        <ele>85.2</ele>
        <time>2021-05-17T14:55:36Z</time>
      </trkpt>
      <trkpt lat="41.6713650" lon="-8.7969620">
        <ele>85.3</ele>
        <time>2021-05-17T14:55:37Z</time>
      </trkpt>
      <trkpt lat="41.6713750" lon="-8.7969700">
        <ele>85.3</ele>
        <time>2021-05-17T14:55:38Z</time>
      </trkpt>
      <trkpt lat="41.6713810" lon="-8.7969810">
        <ele>85.4</ele>
        <time>2021-05-17T14:55:39Z</time>
      </trkpt>
      <trkpt lat="41.6713930" lon="-8.7969860">
        <ele>85.5</ele>
        <time>2021-05-17T14:55:40Z</time>
      </trkpt>
      <trkpt lat="41.6714020" lon="-8.7969830">
        <ele>85.5</ele>
        <time>2021-05-17T14:55:41Z</time>
      </trkpt>
      <trkpt lat="41.6714090" lon="-8.7969880">
        <ele>85.5</ele>
        <time>2021-05-17T14:55:42Z</time>
      </trkpt>
      <trkpt lat="41.6714210" lon="-8.7969940">
        <ele>85.6</ele>
        <time>2021-05-17T14:55:43Z</time>
      </trkpt>
      <trkpt lat="41.6714310" lon="-8.7970040">
        <ele>85.7</ele>
        <time>2021-05-17T14:55:44Z</time>
      </trkpt>
      <trkpt lat="41.6714430" lon="-8.7970130">
        <ele>85.8</ele>
        <time>2021-05-17T14:55:45Z</time>
      </trkpt>
      <trkpt lat="41.6714490" lon="-8.7970210">
        <ele>85.8</ele>
        <time>2021-05-17T14:55:46Z</time>
      </trkpt>
      <trkpt lat="41.6714600" lon="-8.7970290">
        <ele>85.9</ele>
        <time>2021-05-17T14:55:47Z</time>
      </trkpt>
      <trkpt lat="41.6714720" lon="-8.7970350">
        <ele>85.9</ele>
        <time>2021-05-17T14:55:48Z</time>
      </trkpt>
      <trkpt lat="41.6714770" lon="-8.7970410">
        <ele>86.0</ele>
        <time>2021-05-17T14:55:49Z</time>
      </trkpt>
      <trkpt lat="41.6714870" lon="-8.7970440">
        <ele>86.0</ele>
        <time>2021-05-17T14:55:50Z</time>
      </trkpt>
      <trkpt lat="41.6715090" lon="-8.7970550">
        <ele>86.1</ele>
        <time>2021-05-17T14:55:51Z</time>
      </trkpt>
      <trkpt lat="41.6715170" lon="-8.7970610">
        <ele>86.2</ele>
        <time>2021-05-17T14:55:52Z</time>
      </trkpt>
      <trkpt lat="41.6715250" lon="-8.7970670">
        <ele>86.2</ele>
        <time>2021-05-17T14:55:53Z</time>
      </trkpt>
      <trkpt lat="41.6715360" lon="-8.7970740">
        <ele>86.3</ele>
        <time>2021-05-17T14:55:54Z</time>
      </trkpt>
      <trkpt lat="41.6715450" lon="-8.7970770">
        <ele>86.4</ele>
        <time>2021-05-17T14:55:55Z</time>
      </trkpt>
      <trkpt lat="41.6715520" lon="-8.7970750">
        <ele>86.4</ele>
        <time>2021-05-17T14:55:56Z</time>
      </trkpt>
      <trkpt lat="41.6715500" lon="-8.7970790">
        <ele>86.4</ele>
        <time>2021-05-17T14:55:57Z</time>
      </trkpt>
      <trkpt lat="41.6715530" lon="-8.7970820">
        <ele>86.4</ele>
        <time>2021-05-17T14:55:58Z</time>
      </trkpt>
      <trkpt lat="41.6715670" lon="-8.7970910">
        <ele>86.5</ele>
        <time>2021-05-17T14:55:59Z</time>
      </trkpt>
      <trkpt lat="41.6715650" lon="-8.7970910">
        <ele>86.5</ele>
        <time>2021-05-17T14:56:00Z</time>
      </trkpt>
      <trkpt lat="41.6715610" lon="-8.7970890">
        <ele>86.6</ele>
        <time>2021-05-17T14:56:01Z</time>
      </trkpt>
      <trkpt lat="41.6715660" lon="-8.7970910">
        <ele>86.6</ele>
        <time>2021-05-17T14:56:02Z</time>
      </trkpt>
      <trkpt lat="41.6715670" lon="-8.7970900">
        <ele>86.6</ele>
        <time>2021-05-17T14:56:03Z</time>
      </trkpt>
      <trkpt lat="41.6715680" lon="-8.7970920">
        <ele>86.6</ele>
        <time>2021-05-17T14:56:04Z</time>
      </trkpt>
      <trkpt lat="41.6715720" lon="-8.7970890">
        <ele>86.6</ele>
        <time>2021-05-17T14:56:05Z</time>
      </trkpt>
      <trkpt lat="41.6715720" lon="-8.7971010">
        <ele>86.7</ele>
        <time>2021-05-17T14:56:06Z</time>
      </trkpt>
      <trkpt lat="41.6715800" lon="-8.7970980">
        <ele>86.7</ele>
        <time>2021-05-17T14:56:07Z</time>
      </trkpt>
      <trkpt lat="41.6715830" lon="-8.7971000">
        <ele>86.7</ele>
        <time>2021-05-17T14:56:08Z</time>
      </trkpt>
      <trkpt lat="41.6715850" lon="-8.7971010">
        <ele>86.7</ele>
        <time>2021-05-17T14:56:09Z</time>
      </trkpt>
      <trkpt lat="41.6715870" lon="-8.7971030">
        <ele>86.8</ele>
        <time>2021-05-17T14:56:10Z</time>
      </trkpt>
      <trkpt lat="41.6715890" lon="-8.7971050">
        <ele>86.8</ele>
        <time>2021-05-17T14:56:11Z</time>
      </trkpt>
      <trkpt lat="41.6715920" lon="-8.7971070">
        <ele>86.8</ele>
        <time>2021-05-17T14:56:12Z</time>
      </trkpt>
      <trkpt lat="41.6715940" lon="-8.7971090">
        <ele>86.8</ele>
        <time>2021-05-17T14:56:13Z</time>
      </trkpt>
      <trkpt lat="41.6715960" lon="-8.7971100">
        <ele>86.8</ele>
        <time>2021-05-17T14:56:14Z</time>
      </trkpt>
      <trkpt lat="41.6715980" lon="-8.7971120">
        <ele>86.8</ele>
        <time>2021-05-17T14:56:16Z</time>
      </trkpt>
      <trkpt lat="41.6716010" lon="-8.7971140">
        <ele>86.9</ele>
        <time>2021-05-17T14:56:17Z</time>
      </trkpt>
      <trkpt lat="41.6716030" lon="-8.7971160">
        <ele>86.9</ele>
        <time>2021-05-17T14:56:18Z</time>
      </trkpt>
      <trkpt lat="41.6716050" lon="-8.7971180">
        <ele>86.9</ele>
        <time>2021-05-17T14:56:19Z</time>
      </trkpt>
      <trkpt lat="41.6716070" lon="-8.7971200">
        <ele>86.9</ele>
        <time>2021-05-17T14:56:20Z</time>
      </trkpt>
      <trkpt lat="41.6716100" lon="-8.7971210">
        <ele>86.9</ele>
        <time>2021-05-17T14:56:21Z</time>
      </trkpt>
      <trkpt lat="41.6716120" lon="-8.7971230">
        <ele>86.9</ele>
        <time>2021-05-17T14:56:22Z</time>
      </trkpt>
      <trkpt lat="41.6716140" lon="-8.7971250">
        <ele>86.9</ele>
        <time>2021-05-17T14:56:23Z</time>
      </trkpt>
      <trkpt lat="41.6716350" lon="-8.7971210">
        <ele>87.1</ele>
        <time>2021-05-17T14:56:24Z</time>
      </trkpt>
      <trkpt lat="41.6716460" lon="-8.7971300">
        <ele>87.1</ele>
        <time>2021-05-17T14:56:25Z</time>
      </trkpt>
      <trkpt lat="41.6716500" lon="-8.7971320">
        <ele>87.2</ele>
        <time>2021-05-17T14:56:26Z</time>
      </trkpt>
      <trkpt lat="41.6716570" lon="-8.7971440">
        <ele>87.2</ele>
        <time>2021-05-17T14:56:27Z</time>
      </trkpt>
      <trkpt lat="41.6716660" lon="-8.7971500">
        <ele>87.3</ele>
        <time>2021-05-17T14:56:28Z</time>
      </trkpt>
      <trkpt lat="41.6716690" lon="-8.7971580">
        <ele>87.3</ele>
        <time>2021-05-17T14:56:29Z</time>
      </trkpt>
      <trkpt lat="41.6716840" lon="-8.7971670">
        <ele>87.4</ele>
        <time>2021-05-17T14:56:30Z</time>
      </trkpt>
      <trkpt lat="41.6716930" lon="-8.7971750">
        <ele>87.5</ele>
        <time>2021-05-17T14:56:31Z</time>
      </trkpt>
      <trkpt lat="41.6717010" lon="-8.7971820">
        <ele>87.6</ele>
        <time>2021-05-17T14:56:32Z</time>
      </trkpt>
      <trkpt lat="41.6717090" lon="-8.7971930">
        <ele>87.6</ele>
        <time>2021-05-17T14:56:33Z</time>
      </trkpt>
      <trkpt lat="41.6717220" lon="-8.7972080">
        <ele>87.8</ele>
        <time>2021-05-17T14:56:34Z</time>
      </trkpt>
      <trkpt lat="41.6717230" lon="-8.7972080">
        <ele>87.8</ele>
        <time>2021-05-17T14:56:35Z</time>
      </trkpt>
      <trkpt lat="41.6717320" lon="-8.7972080">
        <ele>87.8</ele>
        <time>2021-05-17T14:56:36Z</time>
      </trkpt>
      <trkpt lat="41.6717450" lon="-8.7972140">
        <ele>87.9</ele>
        <time>2021-05-17T14:56:37Z</time>
      </trkpt>
      <trkpt lat="41.6717540" lon="-8.7972270">
        <ele>88.0</ele>
        <time>2021-05-17T14:56:38Z</time>
      </trkpt>
      <trkpt lat="41.6717560" lon="-8.7972360">
        <ele>88.1</ele>
        <time>2021-05-17T14:56:39Z</time>
      </trkpt>
      <trkpt lat="41.6717640" lon="-8.7972420">
        <ele>88.2</ele>
        <time>2021-05-17T14:56:40Z</time>
      </trkpt>
      <trkpt lat="41.6717710" lon="-8.7972480">
        <ele>88.2</ele>
        <time>2021-05-17T14:56:41Z</time>
      </trkpt>
      <trkpt lat="41.6717780" lon="-8.7972560">
        <ele>88.3</ele>
        <time>2021-05-17T14:56:42Z</time>
      </trkpt>
      <trkpt lat="41.6717860" lon="-8.7972670">
        <ele>88.4</ele>
        <time>2021-05-17T14:56:43Z</time>
      </trkpt>
      <trkpt lat="41.6717930" lon="-8.7972800">
        <ele>88.5</ele>
        <time>2021-05-17T14:56:44Z</time>
      </trkpt>
      <trkpt lat="41.6717990" lon="-8.7972940">
        <ele>88.6</ele>
        <time>2021-05-17T14:56:45Z</time>
      </trkpt>
      <trkpt lat="41.6718050" lon="-8.7973080">
        <ele>88.7</ele>
        <time>2021-05-17T14:56:46Z</time>
      </trkpt>
      <trkpt lat="41.6718110" lon="-8.7973150">
        <ele>88.7</ele>
        <time>2021-05-17T14:56:47Z</time>
      </trkpt>
      <trkpt lat="41.6718160" lon="-8.7973250">
        <ele>88.8</ele>
        <time>2021-05-17T14:56:48Z</time>
      </trkpt>
      <trkpt lat="41.6718240" lon="-8.7973410">
        <ele>88.9</ele>
        <time>2021-05-17T14:56:49Z</time>
      </trkpt>
      <trkpt lat="41.6718320" lon="-8.7973440">
        <ele>89.0</ele>
        <time>2021-05-17T14:56:50Z</time>
      </trkpt>
      <trkpt lat="41.6718380" lon="-8.7973490">
        <ele>89.1</ele>
        <time>2021-05-17T14:56:51Z</time>
      </trkpt>
      <trkpt lat="41.6718460" lon="-8.7973560">
        <ele>89.1</ele>
        <time>2021-05-17T14:56:52Z</time>
      </trkpt>
      <trkpt lat="41.6718500" lon="-8.7973590">
        <ele>89.2</ele>
        <time>2021-05-17T14:56:53Z</time>
      </trkpt>
      <trkpt lat="41.6718540" lon="-8.7973690">
        <ele>89.2</ele>
        <time>2021-05-17T14:56:54Z</time>
      </trkpt>
      <trkpt lat="41.6718570" lon="-8.7973790">
        <ele>89.3</ele>
        <time>2021-05-17T14:56:55Z</time>
      </trkpt>
      <trkpt lat="41.6718730" lon="-8.7973980">
        <ele>89.5</ele>
        <time>2021-05-17T14:56:56Z</time>
      </trkpt>
      <trkpt lat="41.6718780" lon="-8.7974050">
        <ele>89.5</ele>
        <time>2021-05-17T14:56:57Z</time>
      </trkpt>
      <trkpt lat="41.6718840" lon="-8.7974130">
        <ele>89.6</ele>
        <time>2021-05-17T14:56:58Z</time>
      </trkpt>
      <trkpt lat="41.6718860" lon="-8.7974250">
        <ele>89.7</ele>
        <time>2021-05-17T14:56:59Z</time>
      </trkpt>
      <trkpt lat="41.6718930" lon="-8.7974300">
        <ele>89.7</ele>
        <time>2021-05-17T14:57:00Z</time>
      </trkpt>
      <trkpt lat="41.6718990" lon="-8.7974370">
        <ele>89.8</ele>
        <time>2021-05-17T14:57:01Z</time>
      </trkpt>
      <trkpt lat="41.6719080" lon="-8.7974450">
        <ele>89.9</ele>
        <time>2021-05-17T14:57:02Z</time>
      </trkpt>
      <trkpt lat="41.6719250" lon="-8.7974640">
        <ele>90.1</ele>
        <time>2021-05-17T14:57:03Z</time>
      </trkpt>
      <trkpt lat="41.6719350" lon="-8.7974630">
        <ele>90.2</ele>
        <time>2021-05-17T14:57:04Z</time>
      </trkpt>
      <trkpt lat="41.6719430" lon="-8.7974730">
        <ele>90.2</ele>
        <time>2021-05-17T14:57:05Z</time>
      </trkpt>
      <trkpt lat="41.6719500" lon="-8.7974760">
        <ele>90.3</ele>
        <time>2021-05-17T14:57:06Z</time>
      </trkpt>
      <trkpt lat="41.6719570" lon="-8.7974880">
        <ele>90.4</ele>
        <time>2021-05-17T14:57:07Z</time>
      </trkpt>
      <trkpt lat="41.6719590" lon="-8.7974940">
        <ele>90.4</ele>
        <time>2021-05-17T14:57:08Z</time>
      </trkpt>
      <trkpt lat="41.6719630" lon="-8.7975050">
        <ele>90.5</ele>
        <time>2021-05-17T14:57:09Z</time>
      </trkpt>
      <trkpt lat="41.6719720" lon="-8.7975120">
        <ele>90.6</ele>
        <time>2021-05-17T14:57:10Z</time>
      </trkpt>
      <trkpt lat="41.6719790" lon="-8.7975220">
        <ele>90.6</ele>
        <time>2021-05-17T14:57:11Z</time>
      </trkpt>
      <trkpt lat="41.6719840" lon="-8.7975280">
        <ele>90.7</ele>
        <time>2021-05-17T14:57:12Z</time>
      </trkpt>
      <trkpt lat="41.6719880" lon="-8.7975340">
        <ele>90.7</ele>
        <time>2021-05-17T14:57:13Z</time>
      </trkpt>
      <trkpt lat="41.6720000" lon="-8.7975460">
        <ele>90.9</ele>
        <time>2021-05-17T14:57:14Z</time>
      </trkpt>
      <trkpt lat="41.6720140" lon="-8.7975510">
        <ele>91.0</ele>
        <time>2021-05-17T14:57:15Z</time>
      </trkpt>
      <trkpt lat="41.6720180" lon="-8.7975580">
        <ele>91.0</ele>
        <time>2021-05-17T14:57:16Z</time>
      </trkpt>
      <trkpt lat="41.6720270" lon="-8.7975760">
        <ele>91.1</ele>
        <time>2021-05-17T14:57:17Z</time>
      </trkpt>
      <trkpt lat="41.6720350" lon="-8.7975970">
        <ele>91.3</ele>
        <time>2021-05-17T14:57:18Z</time>
      </trkpt>
      <trkpt lat="41.6720450" lon="-8.7976060">
        <ele>91.4</ele>
        <time>2021-05-17T14:57:19Z</time>
      </trkpt>
      <trkpt lat="41.6720490" lon="-8.7976140">
        <ele>91.4</ele>
        <time>2021-05-17T14:57:20Z</time>
      </trkpt>
      <trkpt lat="41.6720570" lon="-8.7976230">
        <ele>91.5</ele>
        <time>2021-05-17T14:57:21Z</time>
      </trkpt>
      <trkpt lat="41.6720670" lon="-8.7976330">
        <ele>91.6</ele>
        <time>2021-05-17T14:57:22Z</time>
      </trkpt>
      <trkpt lat="41.6720720" lon="-8.7976410">
        <ele>91.6</ele>
        <time>2021-05-17T14:57:23Z</time>
      </trkpt>
      <trkpt lat="41.6720790" lon="-8.7976550">
        <ele>91.7</ele>
        <time>2021-05-17T14:57:24Z</time>
      </trkpt>
      <trkpt lat="41.6720840" lon="-8.7976710">
        <ele>91.8</ele>
        <time>2021-05-17T14:57:25Z</time>
      </trkpt>
      <trkpt lat="41.6720930" lon="-8.7976840">
        <ele>91.9</ele>
        <time>2021-05-17T14:57:26Z</time>
      </trkpt>
      <trkpt lat="41.6721040" lon="-8.7976980">
        <ele>92.0</ele>
        <time>2021-05-17T14:57:27Z</time>
      </trkpt>
      <trkpt lat="41.6721150" lon="-8.7977050">
        <ele>92.1</ele>
        <time>2021-05-17T14:57:28Z</time>
      </trkpt>
      <trkpt lat="41.6721240" lon="-8.7977100">
        <ele>92.2</ele>
        <time>2021-05-17T14:57:29Z</time>
      </trkpt>
      <trkpt lat="41.6721330" lon="-8.7977230">
        <ele>92.2</ele>
        <time>2021-05-17T14:57:30Z</time>
      </trkpt>
      <trkpt lat="41.6721370" lon="-8.7977320">
        <ele>92.3</ele>
        <time>2021-05-17T14:57:31Z</time>
      </trkpt>
      <trkpt lat="41.6721410" lon="-8.7977470">
        <ele>92.4</ele>
        <time>2021-05-17T14:57:32Z</time>
      </trkpt>
      <trkpt lat="41.6721500" lon="-8.7977590">
        <ele>92.5</ele>
        <time>2021-05-17T14:57:33Z</time>
      </trkpt>
      <trkpt lat="41.6721590" lon="-8.7977740">
        <ele>92.6</ele>
        <time>2021-05-17T14:57:34Z</time>
      </trkpt>
      <trkpt lat="41.6721590" lon="-8.7977830">
        <ele>92.6</ele>
        <time>2021-05-17T14:57:35Z</time>
      </trkpt>
      <trkpt lat="41.6721620" lon="-8.7977900">
        <ele>92.7</ele>
        <time>2021-05-17T14:57:36Z</time>
      </trkpt>
      <trkpt lat="41.6721670" lon="-8.7977980">
        <ele>92.7</ele>
        <time>2021-05-17T14:57:37Z</time>
      </trkpt>
      <trkpt lat="41.6721800" lon="-8.7978210">
        <ele>92.9</ele>
        <time>2021-05-17T14:57:38Z</time>
      </trkpt>
      <trkpt lat="41.6721880" lon="-8.7978320">
        <ele>92.9</ele>
        <time>2021-05-17T14:57:39Z</time>
      </trkpt>
      <trkpt lat="41.6721950" lon="-8.7978420">
        <ele>93.0</ele>
        <time>2021-05-17T14:57:40Z</time>
      </trkpt>
      <trkpt lat="41.6722010" lon="-8.7978570">
        <ele>93.1</ele>
        <time>2021-05-17T14:57:41Z</time>
      </trkpt>
      <trkpt lat="41.6722130" lon="-8.7978690">
        <ele>93.2</ele>
        <time>2021-05-17T14:57:42Z</time>
      </trkpt>
      <trkpt lat="41.6722190" lon="-8.7978730">
        <ele>93.2</ele>
        <time>2021-05-17T14:57:43Z</time>
      </trkpt>
      <trkpt lat="41.6722280" lon="-8.7978880">
        <ele>93.3</ele>
        <time>2021-05-17T14:57:44Z</time>
      </trkpt>
      <trkpt lat="41.6722360" lon="-8.7978930">
        <ele>93.4</ele>
        <time>2021-05-17T14:57:45Z</time>
      </trkpt>
      <trkpt lat="41.6722430" lon="-8.7979030">
        <ele>93.4</ele>
        <time>2021-05-17T14:57:46Z</time>
      </trkpt>
      <trkpt lat="41.6722450" lon="-8.7979140">
        <ele>93.5</ele>
        <time>2021-05-17T14:57:47Z</time>
      </trkpt>
      <trkpt lat="41.6722480" lon="-8.7979140">
        <ele>93.5</ele>
        <time>2021-05-17T14:57:48Z</time>
      </trkpt>
      <trkpt lat="41.6722540" lon="-8.7979260">
        <ele>93.6</ele>
        <time>2021-05-17T14:57:49Z</time>
      </trkpt>
      <trkpt lat="41.6722600" lon="-8.7979360">
        <ele>93.6</ele>
        <time>2021-05-17T14:57:50Z</time>
      </trkpt>
      <trkpt lat="41.6722640" lon="-8.7979540">
        <ele>93.7</ele>
        <time>2021-05-17T14:57:51Z</time>
      </trkpt>
      <trkpt lat="41.6722660" lon="-8.7979690">
        <ele>93.8</ele>
        <time>2021-05-17T14:57:52Z</time>
      </trkpt>
      <trkpt lat="41.6722690" lon="-8.7979840">
        <ele>93.9</ele>
        <time>2021-05-17T14:57:53Z</time>
      </trkpt>
      <trkpt lat="41.6722690" lon="-8.7979950">
        <ele>93.9</ele>
        <time>2021-05-17T14:57:54Z</time>
      </trkpt>
      <trkpt lat="41.6722790" lon="-8.7980090">
        <ele>94.0</ele>
        <time>2021-05-17T14:57:55Z</time>
      </trkpt>
      <trkpt lat="41.6722850" lon="-8.7980270">
        <ele>94.1</ele>
        <time>2021-05-17T14:57:56Z</time>
      </trkpt>
      <trkpt lat="41.6722930" lon="-8.7980440">
        <ele>94.1</ele>
        <time>2021-05-17T14:57:57Z</time>
      </trkpt>
      <trkpt lat="41.6723040" lon="-8.7980670">
        <ele>94.2</ele>
        <time>2021-05-17T14:57:58Z</time>
      </trkpt>
      <trkpt lat="41.6723070" lon="-8.7980780">
        <ele>94.3</ele>
        <time>2021-05-17T14:57:59Z</time>
      </trkpt>
      <trkpt lat="41.6723110" lon="-8.7980890">
        <ele>94.3</ele>
        <time>2021-05-17T14:58:00Z</time>
      </trkpt>
      <trkpt lat="41.6723140" lon="-8.7980970">
        <ele>94.3</ele>
        <time>2021-05-17T14:58:01Z</time>
      </trkpt>
      <trkpt lat="41.6723160" lon="-8.7981050">
        <ele>94.3</ele>
        <time>2021-05-17T14:58:02Z</time>
      </trkpt>
      <trkpt lat="41.6723250" lon="-8.7981210">
        <ele>94.4</ele>
        <time>2021-05-17T14:58:03Z</time>
      </trkpt>
      <trkpt lat="41.6723320" lon="-8.7981420">
        <ele>94.5</ele>
        <time>2021-05-17T14:58:04Z</time>
      </trkpt>
      <trkpt lat="41.6723390" lon="-8.7981600">
        <ele>94.5</ele>
        <time>2021-05-17T14:58:05Z</time>
      </trkpt>
      <trkpt lat="41.6723490" lon="-8.7981760">
        <ele>94.6</ele>
        <time>2021-05-17T14:58:06Z</time>
      </trkpt>
      <trkpt lat="41.6723550" lon="-8.7981830">
        <ele>94.6</ele>
        <time>2021-05-17T14:58:07Z</time>
      </trkpt>
      <trkpt lat="41.6723600" lon="-8.7981910">
        <ele>94.6</ele>
        <time>2021-05-17T14:58:08Z</time>
      </trkpt>
      <trkpt lat="41.6723660" lon="-8.7981980">
        <ele>94.7</ele>
        <time>2021-05-17T14:58:09Z</time>
      </trkpt>
      <trkpt lat="41.6723720" lon="-8.7982070">
        <ele>94.7</ele>
        <time>2021-05-17T14:58:10Z</time>
      </trkpt>
      <trkpt lat="41.6723770" lon="-8.7982240">
        <ele>94.8</ele>
        <time>2021-05-17T14:58:11Z</time>
      </trkpt>
      <trkpt lat="41.6723820" lon="-8.7982310">
        <ele>94.8</ele>
        <time>2021-05-17T14:58:12Z</time>
      </trkpt>
      <trkpt lat="41.6723850" lon="-8.7982450">
        <ele>94.9</ele>
        <time>2021-05-17T14:58:13Z</time>
      </trkpt>
      <trkpt lat="41.6723870" lon="-8.7982550">
        <ele>95.0</ele>
        <time>2021-05-17T14:58:14Z</time>
      </trkpt>
      <trkpt lat="41.6723900" lon="-8.7982640">
        <ele>95.1</ele>
        <time>2021-05-17T14:58:15Z</time>
      </trkpt>
      <trkpt lat="41.6723920" lon="-8.7982740">
        <ele>95.1</ele>
        <time>2021-05-17T14:58:16Z</time>
      </trkpt>
      <trkpt lat="41.6723940" lon="-8.7982840">
        <ele>95.2</ele>
        <time>2021-05-17T14:58:17Z</time>
      </trkpt>
      <trkpt lat="41.6724070" lon="-8.7983060">
        <ele>95.3</ele>
        <time>2021-05-17T14:58:18Z</time>
      </trkpt>
      <trkpt lat="41.6724140" lon="-8.7983150">
        <ele>95.4</ele>
        <time>2021-05-17T14:58:19Z</time>
      </trkpt>
      <trkpt lat="41.6724200" lon="-8.7983230">
        <ele>95.5</ele>
        <time>2021-05-17T14:58:20Z</time>
      </trkpt>
      <trkpt lat="41.6724250" lon="-8.7983410">
        <ele>95.6</ele>
        <time>2021-05-17T14:58:21Z</time>
      </trkpt>
      <trkpt lat="41.6724330" lon="-8.7983490">
        <ele>95.7</ele>
        <time>2021-05-17T14:58:22Z</time>
      </trkpt>
      <trkpt lat="41.6724360" lon="-8.7983630">
        <ele>95.8</ele>
        <time>2021-05-17T14:58:23Z</time>
      </trkpt>
      <trkpt lat="41.6724410" lon="-8.7983700">
        <ele>95.8</ele>
        <time>2021-05-17T14:58:24Z</time>
      </trkpt>
      <trkpt lat="41.6724500" lon="-8.7983820">
        <ele>95.9</ele>
        <time>2021-05-17T14:58:25Z</time>
      </trkpt>
      <trkpt lat="41.6724590" lon="-8.7983960">
        <ele>96.0</ele>
        <time>2021-05-17T14:58:26Z</time>
      </trkpt>
      <trkpt lat="41.6724730" lon="-8.7984090">
        <ele>96.2</ele>
        <time>2021-05-17T14:58:27Z</time>
      </trkpt>
      <trkpt lat="41.6724830" lon="-8.7984210">
        <ele>96.3</ele>
        <time>2021-05-17T14:58:28Z</time>
      </trkpt>
      <trkpt lat="41.6724900" lon="-8.7984330">
        <ele>96.4</ele>
        <time>2021-05-17T14:58:29Z</time>
      </trkpt>
      <trkpt lat="41.6724930" lon="-8.7984510">
        <ele>96.5</ele>
        <time>2021-05-17T14:58:30Z</time>
      </trkpt>
      <trkpt lat="41.6724990" lon="-8.7984580">
        <ele>96.6</ele>
        <time>2021-05-17T14:58:31Z</time>
      </trkpt>
      <trkpt lat="41.6725040" lon="-8.7984650">
        <ele>96.6</ele>
        <time>2021-05-17T14:58:32Z</time>
      </trkpt>
      <trkpt lat="41.6725130" lon="-8.7984730">
        <ele>96.7</ele>
        <time>2021-05-17T14:58:33Z</time>
      </trkpt>
      <trkpt lat="41.6725240" lon="-8.7984870">
        <ele>96.8</ele>
        <time>2021-05-17T14:58:34Z</time>
      </trkpt>
      <trkpt lat="41.6725280" lon="-8.7984940">
        <ele>96.9</ele>
        <time>2021-05-17T14:58:35Z</time>
      </trkpt>
      <trkpt lat="41.6725360" lon="-8.7985080">
        <ele>97.0</ele>
        <time>2021-05-17T14:58:36Z</time>
      </trkpt>
      <trkpt lat="41.6725390" lon="-8.7985220">
        <ele>97.1</ele>
        <time>2021-05-17T14:58:37Z</time>
      </trkpt>
      <trkpt lat="41.6725430" lon="-8.7985330">
        <ele>97.1</ele>
        <time>2021-05-17T14:58:38Z</time>
      </trkpt>
      <trkpt lat="41.6725510" lon="-8.7985430">
        <ele>97.2</ele>
        <time>2021-05-17T14:58:39Z</time>
      </trkpt>
      <trkpt lat="41.6725590" lon="-8.7985500">
        <ele>97.3</ele>
        <time>2021-05-17T14:58:40Z</time>
      </trkpt>
      <trkpt lat="41.6725750" lon="-8.7985660">
        <ele>97.4</ele>
        <time>2021-05-17T14:58:41Z</time>
      </trkpt>
      <trkpt lat="41.6725810" lon="-8.7985750">
        <ele>97.5</ele>
        <time>2021-05-17T14:58:42Z</time>
      </trkpt>
      <trkpt lat="41.6725880" lon="-8.7985830">
        <ele>97.5</ele>
        <time>2021-05-17T14:58:43Z</time>
      </trkpt>
      <trkpt lat="41.6725920" lon="-8.7985920">
        <ele>97.6</ele>
        <time>2021-05-17T14:58:44Z</time>
      </trkpt>
      <trkpt lat="41.6725930" lon="-8.7986030">
        <ele>97.7</ele>
        <time>2021-05-17T14:58:45Z</time>
      </trkpt>
      <trkpt lat="41.6726000" lon="-8.7986190">
        <ele>97.7</ele>
        <time>2021-05-17T14:58:46Z</time>
      </trkpt>
      <trkpt lat="41.6726060" lon="-8.7986330">
        <ele>97.8</ele>
        <time>2021-05-17T14:58:47Z</time>
      </trkpt>
      <trkpt lat="41.6726160" lon="-8.7986490">
        <ele>97.9</ele>
        <time>2021-05-17T14:58:48Z</time>
      </trkpt>
      <trkpt lat="41.6726270" lon="-8.7986710">
        <ele>98.0</ele>
        <time>2021-05-17T14:58:49Z</time>
      </trkpt>
      <trkpt lat="41.6726310" lon="-8.7986810">
        <ele>98.0</ele>
        <time>2021-05-17T14:58:50Z</time>
      </trkpt>
      <trkpt lat="41.6726360" lon="-8.7986900">
        <ele>98.1</ele>
        <time>2021-05-17T14:58:51Z</time>
      </trkpt>
      <trkpt lat="41.6726440" lon="-8.7986990">
        <ele>98.1</ele>
        <time>2021-05-17T14:58:52Z</time>
      </trkpt>
      <trkpt lat="41.6726520" lon="-8.7987100">
        <ele>98.2</ele>
        <time>2021-05-17T14:58:53Z</time>
      </trkpt>
      <trkpt lat="41.6726590" lon="-8.7987190">
        <ele>98.2</ele>
        <time>2021-05-17T14:58:54Z</time>
      </trkpt>
      <trkpt lat="41.6726750" lon="-8.7987400">
        <ele>98.3</ele>
        <time>2021-05-17T14:58:55Z</time>
      </trkpt>
      <trkpt lat="41.6726810" lon="-8.7987490">
        <ele>98.4</ele>
        <time>2021-05-17T14:58:56Z</time>
      </trkpt>
      <trkpt lat="41.6726860" lon="-8.7987570">
        <ele>98.4</ele>
        <time>2021-05-17T14:58:57Z</time>
      </trkpt>
      <trkpt lat="41.6726920" lon="-8.7987680">
        <ele>98.4</ele>
        <time>2021-05-17T14:58:58Z</time>
      </trkpt>
      <trkpt lat="41.6726950" lon="-8.7987780">
        <ele>98.5</ele>
        <time>2021-05-17T14:58:59Z</time>
      </trkpt>
      <trkpt lat="41.6727030" lon="-8.7987930">
        <ele>98.5</ele>
        <time>2021-05-17T14:59:00Z</time>
      </trkpt>
      <trkpt lat="41.6727060" lon="-8.7988020">
        <ele>98.6</ele>
        <time>2021-05-17T14:59:01Z</time>
      </trkpt>
      <trkpt lat="41.6727100" lon="-8.7988170">
        <ele>98.6</ele>
        <time>2021-05-17T14:59:02Z</time>
      </trkpt>
      <trkpt lat="41.6727210" lon="-8.7988340">
        <ele>98.7</ele>
        <time>2021-05-17T14:59:03Z</time>
      </trkpt>
      <trkpt lat="41.6727220" lon="-8.7988460">
        <ele>98.7</ele>
        <time>2021-05-17T14:59:04Z</time>
      </trkpt>
      <trkpt lat="41.6727310" lon="-8.7988630">
        <ele>98.7</ele>
        <time>2021-05-17T14:59:05Z</time>
      </trkpt>
      <trkpt lat="41.6727340" lon="-8.7988790">
        <ele>98.8</ele>
        <time>2021-05-17T14:59:06Z</time>
      </trkpt>
      <trkpt lat="41.6727480" lon="-8.7989040">
        <ele>98.9</ele>
        <time>2021-05-17T14:59:07Z</time>
      </trkpt>
      <trkpt lat="41.6727510" lon="-8.7989140">
        <ele>98.9</ele>
        <time>2021-05-17T14:59:08Z</time>
      </trkpt>
      <trkpt lat="41.6727550" lon="-8.7989240">
        <ele>98.9</ele>
        <time>2021-05-17T14:59:09Z</time>
      </trkpt>
      <trkpt lat="41.6727600" lon="-8.7989370">
        <ele>99.0</ele>
        <time>2021-05-17T14:59:10Z</time>
      </trkpt>
      <trkpt lat="41.6727650" lon="-8.7989540">
        <ele>99.0</ele>
        <time>2021-05-17T14:59:11Z</time>
      </trkpt>
      <trkpt lat="41.6727720" lon="-8.7989660">
        <ele>99.0</ele>
        <time>2021-05-17T14:59:12Z</time>
      </trkpt>
      <trkpt lat="41.6727810" lon="-8.7989740">
        <ele>99.1</ele>
        <time>2021-05-17T14:59:13Z</time>
      </trkpt>
      <trkpt lat="41.6727820" lon="-8.7989960">
        <ele>99.1</ele>
        <time>2021-05-17T14:59:14Z</time>
      </trkpt>
      <trkpt lat="41.6727870" lon="-8.7990090">
        <ele>99.2</ele>
        <time>2021-05-17T14:59:15Z</time>
      </trkpt>
      <trkpt lat="41.6727980" lon="-8.7990210">
        <ele>99.2</ele>
        <time>2021-05-17T14:59:16Z</time>
      </trkpt>
      <trkpt lat="41.6728020" lon="-8.7990340">
        <ele>99.3</ele>
        <time>2021-05-17T14:59:17Z</time>
      </trkpt>
      <trkpt lat="41.6728020" lon="-8.7990510">
        <ele>99.3</ele>
        <time>2021-05-17T14:59:18Z</time>
      </trkpt>
      <trkpt lat="41.6728030" lon="-8.7990640">
        <ele>99.3</ele>
        <time>2021-05-17T14:59:19Z</time>
      </trkpt>
      <trkpt lat="41.6728090" lon="-8.7990780">
        <ele>99.4</ele>
        <time>2021-05-17T14:59:20Z</time>
      </trkpt>
      <trkpt lat="41.6728070" lon="-8.7990960">
        <ele>99.4</ele>
        <time>2021-05-17T14:59:21Z</time>
      </trkpt>
      <trkpt lat="41.6728170" lon="-8.7991240">
        <ele>99.5</ele>
        <time>2021-05-17T14:59:22Z</time>
      </trkpt>
      <trkpt lat="41.6728200" lon="-8.7991330">
        <ele>99.5</ele>
        <time>2021-05-17T14:59:23Z</time>
      </trkpt>
      <trkpt lat="41.6728240" lon="-8.7991420">
        <ele>99.5</ele>
        <time>2021-05-17T14:59:24Z</time>
      </trkpt>
      <trkpt lat="41.6728260" lon="-8.7991530">
        <ele>99.6</ele>
        <time>2021-05-17T14:59:25Z</time>
      </trkpt>
      <trkpt lat="41.6728330" lon="-8.7991660">
        <ele>99.6</ele>
        <time>2021-05-17T14:59:26Z</time>
      </trkpt>
      <trkpt lat="41.6728390" lon="-8.7991780">
        <ele>99.6</ele>
        <time>2021-05-17T14:59:27Z</time>
      </trkpt>
      <trkpt lat="41.6728460" lon="-8.7991880">
        <ele>99.7</ele>
        <time>2021-05-17T14:59:28Z</time>
      </trkpt>
      <trkpt lat="41.6728540" lon="-8.7991980">
        <ele>99.7</ele>
        <time>2021-05-17T14:59:29Z</time>
      </trkpt>
      <trkpt lat="41.6728620" lon="-8.7992110">
        <ele>99.7</ele>
        <time>2021-05-17T14:59:30Z</time>
      </trkpt>
      <trkpt lat="41.6728710" lon="-8.7992350">
        <ele>99.8</ele>
        <time>2021-05-17T14:59:31Z</time>
      </trkpt>
      <trkpt lat="41.6728760" lon="-8.7992460">
        <ele>99.8</ele>
        <time>2021-05-17T14:59:32Z</time>
      </trkpt>
      <trkpt lat="41.6728800" lon="-8.7992580">
        <ele>99.9</ele>
        <time>2021-05-17T14:59:33Z</time>
      </trkpt>
      <trkpt lat="41.6728880" lon="-8.7992710">
        <ele>99.9</ele>
        <time>2021-05-17T14:59:34Z</time>
      </trkpt>
      <trkpt lat="41.6728900" lon="-8.7992890">
        <ele>99.9</ele>
        <time>2021-05-17T14:59:35Z</time>
      </trkpt>
      <trkpt lat="41.6728970" lon="-8.7992990">
        <ele>100.0</ele>
        <time>2021-05-17T14:59:36Z</time>
      </trkpt>
      <trkpt lat="41.6729050" lon="-8.7993290">
        <ele>100.0</ele>
        <time>2021-05-17T14:59:37Z</time>
      </trkpt>
      <trkpt lat="41.6729090" lon="-8.7993380">
        <ele>100.1</ele>
        <time>2021-05-17T14:59:38Z</time>
      </trkpt>
      <trkpt lat="41.6729130" lon="-8.7993480">
        <ele>100.1</ele>
        <time>2021-05-17T14:59:39Z</time>
      </trkpt>
      <trkpt lat="41.6729150" lon="-8.7993560">
        <ele>100.1</ele>
        <time>2021-05-17T14:59:40Z</time>
      </trkpt>
      <trkpt lat="41.6729250" lon="-8.7993690">
        <ele>100.1</ele>
        <time>2021-05-17T14:59:41Z</time>
      </trkpt>
      <trkpt lat="41.6729320" lon="-8.7993830">
        <ele>100.2</ele>
        <time>2021-05-17T14:59:42Z</time>
      </trkpt>
      <trkpt lat="41.6729390" lon="-8.7993960">
        <ele>100.2</ele>
        <time>2021-05-17T14:59:43Z</time>
      </trkpt>
      <trkpt lat="41.6729460" lon="-8.7994070">
        <ele>100.2</ele>
        <time>2021-05-17T14:59:44Z</time>
      </trkpt>
      <trkpt lat="41.6729500" lon="-8.7994190">
        <ele>100.3</ele>
        <time>2021-05-17T14:59:45Z</time>
      </trkpt>
      <trkpt lat="41.6729540" lon="-8.7994320">
        <ele>100.3</ele>
        <time>2021-05-17T14:59:46Z</time>
      </trkpt>
      <trkpt lat="41.6729610" lon="-8.7994380">
        <ele>100.3</ele>
        <time>2021-05-17T14:59:47Z</time>
      </trkpt>
      <trkpt lat="41.6729720" lon="-8.7994530">
        <ele>100.3</ele>
        <time>2021-05-17T14:59:48Z</time>
      </trkpt>
      <trkpt lat="41.6729780" lon="-8.7994620">
        <ele>100.3</ele>
        <time>2021-05-17T14:59:49Z</time>
      </trkpt>
      <trkpt lat="41.6729850" lon="-8.7994720">
        <ele>100.3</ele>
        <time>2021-05-17T14:59:50Z</time>
      </trkpt>
      <trkpt lat="41.6729900" lon="-8.7994870">
        <ele>100.4</ele>
        <time>2021-05-17T14:59:51Z</time>
      </trkpt>
      <trkpt lat="41.6729940" lon="-8.7994970">
        <ele>100.4</ele>
        <time>2021-05-17T14:59:52Z</time>
      </trkpt>
      <trkpt lat="41.6730030" lon="-8.7995070">
        <ele>100.4</ele>
        <time>2021-05-17T14:59:53Z</time>
      </trkpt>
      <trkpt lat="41.6730100" lon="-8.7995150">
        <ele>100.4</ele>
        <time>2021-05-17T14:59:54Z</time>
      </trkpt>
      <trkpt lat="41.6730170" lon="-8.7995300">
        <ele>100.4</ele>
        <time>2021-05-17T14:59:55Z</time>
      </trkpt>
      <trkpt lat="41.6730210" lon="-8.7995400">
        <ele>100.4</ele>
        <time>2021-05-17T14:59:56Z</time>
      </trkpt>
      <trkpt lat="41.6730270" lon="-8.7995470">
        <ele>100.4</ele>
        <time>2021-05-17T14:59:57Z</time>
      </trkpt>
      <trkpt lat="41.6730340" lon="-8.7995520">
        <ele>100.4</ele>
        <time>2021-05-17T14:59:58Z</time>
      </trkpt>
      <trkpt lat="41.6730480" lon="-8.7995640">
        <ele>100.5</ele>
        <time>2021-05-17T14:59:59Z</time>
      </trkpt>
      <trkpt lat="41.6730520" lon="-8.7995670">
        <ele>100.5</ele>
        <time>2021-05-17T15:00:00Z</time>
      </trkpt>
      <trkpt lat="41.6730590" lon="-8.7995760">
        <ele>100.5</ele>
        <time>2021-05-17T15:00:01Z</time>
      </trkpt>
      <trkpt lat="41.6730720" lon="-8.7995870">
        <ele>100.5</ele>
        <time>2021-05-17T15:00:02Z</time>
      </trkpt>
      <trkpt lat="41.6730690" lon="-8.7995990">
        <ele>100.5</ele>
        <time>2021-05-17T15:00:03Z</time>
      </trkpt>
      <trkpt lat="41.6730620" lon="-8.7996010">
        <ele>100.5</ele>
        <time>2021-05-17T15:00:04Z</time>
      </trkpt>
      <trkpt lat="41.6730590" lon="-8.7996030">
        <ele>100.5</ele>
        <time>2021-05-17T15:00:05Z</time>
      </trkpt>
      <trkpt lat="41.6730590" lon="-8.7996030">
        <ele>100.5</ele>
        <time>2021-05-17T15:00:06Z</time>
      </trkpt>
      <trkpt lat="41.6730570" lon="-8.7996060">
        <ele>100.5</ele>
        <time>2021-05-17T15:00:07Z</time>
      </trkpt>
      <trkpt lat="41.6730540" lon="-8.7996100">
        <ele>100.5</ele>
        <time>2021-05-17T15:00:08Z</time>
      </trkpt>
      <trkpt lat="41.6730540" lon="-8.7996090">
        <ele>100.5</ele>
        <time>2021-05-17T15:00:09Z</time>
      </trkpt>
      <trkpt lat="41.6730450" lon="-8.7996030">
        <ele>100.5</ele>
        <time>2021-05-17T15:00:10Z</time>
      </trkpt>
      <trkpt lat="41.6730390" lon="-8.7995990">
        <ele>100.5</ele>
        <time>2021-05-17T15:00:11Z</time>
      </trkpt>
      <trkpt lat="41.6730370" lon="-8.7996010">
        <ele>100.5</ele>
        <time>2021-05-17T15:00:12Z</time>
      </trkpt>
      <trkpt lat="41.6730370" lon="-8.7996030">
        <ele>100.5</ele>
        <time>2021-05-17T15:00:13Z</time>
      </trkpt>
      <trkpt lat="41.6730350" lon="-8.7996070">
        <ele>100.5</ele>
        <time>2021-05-17T15:00:14Z</time>
      </trkpt>
      <trkpt lat="41.6730360" lon="-8.7996120">
        <ele>100.5</ele>
        <time>2021-05-17T15:00:15Z</time>
      </trkpt>
      <trkpt lat="41.6730360" lon="-8.7996130">
        <ele>100.5</ele>
        <time>2021-05-17T15:00:16Z</time>
      </trkpt>
      <trkpt lat="41.6730380" lon="-8.7996180">
        <ele>100.5</ele>
        <time>2021-05-17T15:00:17Z</time>
      </trkpt>
      <trkpt lat="41.6730470" lon="-8.7996300">
        <ele>100.4</ele>
        <time>2021-05-17T15:00:18Z</time>
      </trkpt>
      <trkpt lat="41.6730510" lon="-8.7996410">
        <ele>100.4</ele>
        <time>2021-05-17T15:00:19Z</time>
      </trkpt>
      <trkpt lat="41.6730570" lon="-8.7996650">
        <ele>100.4</ele>
        <time>2021-05-17T15:00:20Z</time>
      </trkpt>
      <trkpt lat="41.6730650" lon="-8.7996730">
        <ele>100.4</ele>
        <time>2021-05-17T15:00:21Z</time>
      </trkpt>
      <trkpt lat="41.6730680" lon="-8.7996800">
        <ele>100.4</ele>
        <time>2021-05-17T15:00:22Z</time>
      </trkpt>
      <trkpt lat="41.6730790" lon="-8.7996950">
        <ele>100.4</ele>
        <time>2021-05-17T15:00:23Z</time>
      </trkpt>
      <trkpt lat="41.6730870" lon="-8.7997020">
        <ele>100.4</ele>
        <time>2021-05-17T15:00:24Z</time>
      </trkpt>
      <trkpt lat="41.6730960" lon="-8.7997090">
        <ele>100.3</ele>
        <time>2021-05-17T15:00:25Z</time>
      </trkpt>
      <trkpt lat="41.6731110" lon="-8.7997270">
        <ele>100.3</ele>
        <time>2021-05-17T15:00:26Z</time>
      </trkpt>
      <trkpt lat="41.6731180" lon="-8.7997340">
        <ele>100.3</ele>
        <time>2021-05-17T15:00:27Z</time>
      </trkpt>
      <trkpt lat="41.6731270" lon="-8.7997440">
        <ele>100.2</ele>
        <time>2021-05-17T15:00:28Z</time>
      </trkpt>
      <trkpt lat="41.6731360" lon="-8.7997550">
        <ele>100.2</ele>
        <time>2021-05-17T15:00:29Z</time>
      </trkpt>
      <trkpt lat="41.6731410" lon="-8.7997650">
        <ele>100.2</ele>
        <time>2021-05-17T15:00:30Z</time>
      </trkpt>
      <trkpt lat="41.6731520" lon="-8.7997770">
        <ele>100.2</ele>
        <time>2021-05-17T15:00:31Z</time>
      </trkpt>
      <trkpt lat="41.6731610" lon="-8.7997880">
        <ele>100.1</ele>
        <time>2021-05-17T15:00:32Z</time>
      </trkpt>
      <trkpt lat="41.6731750" lon="-8.7998020">
        <ele>100.1</ele>
        <time>2021-05-17T15:00:33Z</time>
      </trkpt>
      <trkpt lat="41.6731840" lon="-8.7998140">
        <ele>100.1</ele>
        <time>2021-05-17T15:00:34Z</time>
      </trkpt>
      <trkpt lat="41.6731970" lon="-8.7998270">
        <ele>100.0</ele>
        <time>2021-05-17T15:00:35Z</time>
      </trkpt>
      <trkpt lat="41.6732030" lon="-8.7998340">
        <ele>100.0</ele>
        <time>2021-05-17T15:00:36Z</time>
      </trkpt>
      <trkpt lat="41.6732090" lon="-8.7998460">
        <ele>99.9</ele>
        <time>2021-05-17T15:00:37Z</time>
      </trkpt>
      <trkpt lat="41.6732230" lon="-8.7998660">
        <ele>99.8</ele>
        <time>2021-05-17T15:00:38Z</time>
      </trkpt>
      <trkpt lat="41.6732310" lon="-8.7998730">
        <ele>99.8</ele>
        <time>2021-05-17T15:00:39Z</time>
      </trkpt>
      <trkpt lat="41.6732390" lon="-8.7998810">
        <ele>99.8</ele>
        <time>2021-05-17T15:00:40Z</time>
      </trkpt>
      <trkpt lat="41.6732510" lon="-8.7998960">
        <ele>99.7</ele>
        <time>2021-05-17T15:00:41Z</time>
      </trkpt>
      <trkpt lat="41.6732580" lon="-8.7999110">
        <ele>99.6</ele>
        <time>2021-05-17T15:00:42Z</time>
      </trkpt>
      <trkpt lat="41.6732690" lon="-8.7999290">
        <ele>99.5</ele>
        <time>2021-05-17T15:00:43Z</time>
      </trkpt>
      <trkpt lat="41.6732830" lon="-8.7999390">
        <ele>99.4</ele>
        <time>2021-05-17T15:00:44Z</time>
      </trkpt>
      <trkpt lat="41.6733000" lon="-8.7999610">
        <ele>99.3</ele>
        <time>2021-05-17T15:00:45Z</time>
      </trkpt>
      <trkpt lat="41.6733040" lon="-8.7999680">
        <ele>99.3</ele>
        <time>2021-05-17T15:00:46Z</time>
      </trkpt>
      <trkpt lat="41.6733080" lon="-8.7999750">
        <ele>99.2</ele>
        <time>2021-05-17T15:00:47Z</time>
      </trkpt>
      <trkpt lat="41.6733210" lon="-8.7999960">
        <ele>99.1</ele>
        <time>2021-05-17T15:00:48Z</time>
      </trkpt>
      <trkpt lat="41.6733270" lon="-8.8000040">
        <ele>99.1</ele>
        <time>2021-05-17T15:00:49Z</time>
      </trkpt>
      <trkpt lat="41.6733320" lon="-8.8000120">
        <ele>99.0</ele>
        <time>2021-05-17T15:00:50Z</time>
      </trkpt>
      <trkpt lat="41.6733470" lon="-8.8000370">
        <ele>98.9</ele>
        <time>2021-05-17T15:00:51Z</time>
      </trkpt>
      <trkpt lat="41.6733540" lon="-8.8000460">
        <ele>98.8</ele>
        <time>2021-05-17T15:00:52Z</time>
      </trkpt>
      <trkpt lat="41.6733600" lon="-8.8000540">
        <ele>98.7</ele>
        <time>2021-05-17T15:00:53Z</time>
      </trkpt>
      <trkpt lat="41.6733820" lon="-8.8000760">
        <ele>98.6</ele>
        <time>2021-05-17T15:00:54Z</time>
      </trkpt>
      <trkpt lat="41.6733890" lon="-8.8000830">
        <ele>98.5</ele>
        <time>2021-05-17T15:00:55Z</time>
      </trkpt>
      <trkpt lat="41.6734000" lon="-8.8000960">
        <ele>98.4</ele>
        <time>2021-05-17T15:00:56Z</time>
      </trkpt>
      <trkpt lat="41.6734140" lon="-8.8001130">
        <ele>98.2</ele>
        <time>2021-05-17T15:00:57Z</time>
      </trkpt>
      <trkpt lat="41.6734250" lon="-8.8001240">
        <ele>98.1</ele>
        <time>2021-05-17T15:00:58Z</time>
      </trkpt>
      <trkpt lat="41.6734390" lon="-8.8001380">
        <ele>98.0</ele>
        <time>2021-05-17T15:00:59Z</time>
      </trkpt>
      <trkpt lat="41.6734510" lon="-8.8001520">
        <ele>97.9</ele>
        <time>2021-05-17T15:01:00Z</time>
      </trkpt>
      <trkpt lat="41.6734670" lon="-8.8001630">
        <ele>97.8</ele>
        <time>2021-05-17T15:01:01Z</time>
      </trkpt>
      <trkpt lat="41.6734800" lon="-8.8001750">
        <ele>97.6</ele>
        <time>2021-05-17T15:01:02Z</time>
      </trkpt>
      <trkpt lat="41.6734940" lon="-8.8001880">
        <ele>97.5</ele>
        <time>2021-05-17T15:01:03Z</time>
      </trkpt>
      <trkpt lat="41.6735060" lon="-8.8002010">
        <ele>97.4</ele>
        <time>2021-05-17T15:01:04Z</time>
      </trkpt>
      <trkpt lat="41.6735200" lon="-8.8002100">
        <ele>97.2</ele>
        <time>2021-05-17T15:01:05Z</time>
      </trkpt>
      <trkpt lat="41.6735290" lon="-8.8002250">
        <ele>97.1</ele>
        <time>2021-05-17T15:01:06Z</time>
      </trkpt>
      <trkpt lat="41.6735400" lon="-8.8002380">
        <ele>97.0</ele>
        <time>2021-05-17T15:01:07Z</time>
      </trkpt>
      <trkpt lat="41.6735570" lon="-8.8002560">
        <ele>96.8</ele>
        <time>2021-05-17T15:01:08Z</time>
      </trkpt>
      <trkpt lat="41.6735650" lon="-8.8002630">
        <ele>96.7</ele>
        <time>2021-05-17T15:01:09Z</time>
      </trkpt>
      <trkpt lat="41.6735720" lon="-8.8002690">
        <ele>96.7</ele>
        <time>2021-05-17T15:01:10Z</time>
      </trkpt>
      <trkpt lat="41.6735810" lon="-8.8002840">
        <ele>96.5</ele>
        <time>2021-05-17T15:01:11Z</time>
      </trkpt>
      <trkpt lat="41.6735910" lon="-8.8002980">
        <ele>96.4</ele>
        <time>2021-05-17T15:01:12Z</time>
      </trkpt>
      <trkpt lat="41.6736070" lon="-8.8003180">
        <ele>96.2</ele>
        <time>2021-05-17T15:01:13Z</time>
      </trkpt>
      <trkpt lat="41.6736140" lon="-8.8003250">
        <ele>96.2</ele>
        <time>2021-05-17T15:01:14Z</time>
      </trkpt>
      <trkpt lat="41.6736210" lon="-8.8003330">
        <ele>96.1</ele>
        <time>2021-05-17T15:01:15Z</time>
      </trkpt>
      <trkpt lat="41.6736310" lon="-8.8003460">
        <ele>96.0</ele>
        <time>2021-05-17T15:01:16Z</time>
      </trkpt>
      <trkpt lat="41.6736410" lon="-8.8003580">
        <ele>95.8</ele>
        <time>2021-05-17T15:01:17Z</time>
      </trkpt>
      <trkpt lat="41.6736570" lon="-8.8003780">
        <ele>95.7</ele>
        <time>2021-05-17T15:01:18Z</time>
      </trkpt>
      <trkpt lat="41.6736630" lon="-8.8003870">
        <ele>95.6</ele>
        <time>2021-05-17T15:01:19Z</time>
      </trkpt>
      <trkpt lat="41.6736690" lon="-8.8003970">
        <ele>95.5</ele>
        <time>2021-05-17T15:01:20Z</time>
      </trkpt>
      <trkpt lat="41.6736750" lon="-8.8004140">
        <ele>95.4</ele>
        <time>2021-05-17T15:01:21Z</time>
      </trkpt>
      <trkpt lat="41.6736850" lon="-8.8004270">
        <ele>95.3</ele>
        <time>2021-05-17T15:01:22Z</time>
      </trkpt>
      <trkpt lat="41.6736950" lon="-8.8004410">
        <ele>95.1</ele>
        <time>2021-05-17T15:01:23Z</time>
      </trkpt>
      <trkpt lat="41.6737040" lon="-8.8004540">
        <ele>95.0</ele>
        <time>2021-05-17T15:01:24Z</time>
      </trkpt>
      <trkpt lat="41.6737130" lon="-8.8004660">
        <ele>94.9</ele>
        <time>2021-05-17T15:01:25Z</time>
      </trkpt>
      <trkpt lat="41.6737250" lon="-8.8004740">
        <ele>94.8</ele>
        <time>2021-05-17T15:01:26Z</time>
      </trkpt>
      <trkpt lat="41.6737310" lon="-8.8004830">
        <ele>94.7</ele>
        <time>2021-05-17T15:01:27Z</time>
      </trkpt>
      <trkpt lat="41.6737360" lon="-8.8004910">
        <ele>94.7</ele>
        <time>2021-05-17T15:01:28Z</time>
      </trkpt>
      <trkpt lat="41.6737380" lon="-8.8004960">
        <ele>94.6</ele>
        <time>2021-05-17T15:01:29Z</time>
      </trkpt>
      <trkpt lat="41.6737420" lon="-8.8005030">
        <ele>94.6</ele>
        <time>2021-05-17T15:01:30Z</time>
      </trkpt>
      <trkpt lat="41.6737490" lon="-8.8005020">
        <ele>94.5</ele>
        <time>2021-05-17T15:01:31Z</time>
      </trkpt>
      <trkpt lat="41.6737530" lon="-8.8005100">
        <ele>94.4</ele>
        <time>2021-05-17T15:01:32Z</time>
      </trkpt>
      <trkpt lat="41.6737630" lon="-8.8005220">
        <ele>94.3</ele>
        <time>2021-05-17T15:01:33Z</time>
      </trkpt>
      <trkpt lat="41.6737700" lon="-8.8005310">
        <ele>94.2</ele>
        <time>2021-05-17T15:01:34Z</time>
      </trkpt>
      <trkpt lat="41.6737700" lon="-8.8005360">
        <ele>94.2</ele>
        <time>2021-05-17T15:01:35Z</time>
      </trkpt>
      <trkpt lat="41.6737710" lon="-8.8005380">
        <ele>94.2</ele>
        <time>2021-05-17T15:01:36Z</time>
      </trkpt>
      <trkpt lat="41.6737750" lon="-8.8005470">
        <ele>94.1</ele>
        <time>2021-05-17T15:01:37Z</time>
      </trkpt>
      <trkpt lat="41.6737810" lon="-8.8005510">
        <ele>94.1</ele>
        <time>2021-05-17T15:01:38Z</time>
      </trkpt>
      <trkpt lat="41.6737840" lon="-8.8005600">
        <ele>94.0</ele>
        <time>2021-05-17T15:01:39Z</time>
      </trkpt>
      <trkpt lat="41.6737880" lon="-8.8005670">
        <ele>94.0</ele>
        <time>2021-05-17T15:01:40Z</time>
      </trkpt>
      <trkpt lat="41.6737970" lon="-8.8005760">
        <ele>93.9</ele>
        <time>2021-05-17T15:01:41Z</time>
      </trkpt>
      <trkpt lat="41.6738080" lon="-8.8005870">
        <ele>93.8</ele>
        <time>2021-05-17T15:01:42Z</time>
      </trkpt>
      <trkpt lat="41.6738140" lon="-8.8005960">
        <ele>93.7</ele>
        <time>2021-05-17T15:01:43Z</time>
      </trkpt>
      <trkpt lat="41.6738230" lon="-8.8006070">
        <ele>93.6</ele>
        <time>2021-05-17T15:01:44Z</time>
      </trkpt>
      <trkpt lat="41.6738320" lon="-8.8006110">
        <ele>93.5</ele>
        <time>2021-05-17T15:01:45Z</time>
      </trkpt>
      <trkpt lat="41.6738390" lon="-8.8006160">
        <ele>93.4</ele>
        <time>2021-05-17T15:01:46Z</time>
      </trkpt>
      <trkpt lat="41.6738420" lon="-8.8006230">
        <ele>93.4</ele>
        <time>2021-05-17T15:01:47Z</time>
      </trkpt>
      <trkpt lat="41.6738540" lon="-8.8006400">
        <ele>93.3</ele>
        <time>2021-05-17T15:01:48Z</time>
      </trkpt>
      <trkpt lat="41.6738630" lon="-8.8006420">
        <ele>93.2</ele>
        <time>2021-05-17T15:01:49Z</time>
      </trkpt>
      <trkpt lat="41.6738660" lon="-8.8006440">
        <ele>93.2</ele>
        <time>2021-05-17T15:01:50Z</time>
      </trkpt>
      <trkpt lat="41.6738760" lon="-8.8006470">
        <ele>93.1</ele>
        <time>2021-05-17T15:01:51Z</time>
      </trkpt>
      <trkpt lat="41.6738860" lon="-8.8006560">
        <ele>93.0</ele>
        <time>2021-05-17T15:01:52Z</time>
      </trkpt>
      <trkpt lat="41.6738900" lon="-8.8006610">
        <ele>92.9</ele>
        <time>2021-05-17T15:01:53Z</time>
      </trkpt>
      <trkpt lat="41.6739070" lon="-8.8006770">
        <ele>92.8</ele>
        <time>2021-05-17T15:01:54Z</time>
      </trkpt>
      <trkpt lat="41.6739130" lon="-8.8006940">
        <ele>92.6</ele>
        <time>2021-05-17T15:01:55Z</time>
      </trkpt>
      <trkpt lat="41.6739180" lon="-8.8007090">
        <ele>92.5</ele>
        <time>2021-05-17T15:01:56Z</time>
      </trkpt>
      <trkpt lat="41.6739230" lon="-8.8007150">
        <ele>92.5</ele>
        <time>2021-05-17T15:01:57Z</time>
      </trkpt>
      <trkpt lat="41.6739290" lon="-8.8007230">
        <ele>92.4</ele>
        <time>2021-05-17T15:01:58Z</time>
      </trkpt>
      <trkpt lat="41.6739370" lon="-8.8007300">
        <ele>92.3</ele>
        <time>2021-05-17T15:01:59Z</time>
      </trkpt>
      <trkpt lat="41.6739460" lon="-8.8007380">
        <ele>92.2</ele>
        <time>2021-05-17T15:02:00Z</time>
      </trkpt>
      <trkpt lat="41.6739540" lon="-8.8007490">
        <ele>92.1</ele>
        <time>2021-05-17T15:02:01Z</time>
      </trkpt>
      <trkpt lat="41.6739560" lon="-8.8007570">
        <ele>92.0</ele>
        <time>2021-05-17T15:02:02Z</time>
      </trkpt>
      <trkpt lat="41.6739640" lon="-8.8007780">
        <ele>91.8</ele>
        <time>2021-05-17T15:02:03Z</time>
      </trkpt>
      <trkpt lat="41.6739710" lon="-8.8007890">
        <ele>91.7</ele>
        <time>2021-05-17T15:02:04Z</time>
      </trkpt>
      <trkpt lat="41.6739770" lon="-8.8008010">
        <ele>91.6</ele>
        <time>2021-05-17T15:02:05Z</time>
      </trkpt>
      <trkpt lat="41.6739830" lon="-8.8008150">
        <ele>91.5</ele>
        <time>2021-05-17T15:02:06Z</time>
      </trkpt>
      <trkpt lat="41.6739850" lon="-8.8008260">
        <ele>91.4</ele>
        <time>2021-05-17T15:02:07Z</time>
      </trkpt>
      <trkpt lat="41.6739910" lon="-8.8008380">
        <ele>91.2</ele>
        <time>2021-05-17T15:02:08Z</time>
      </trkpt>
      <trkpt lat="41.6739960" lon="-8.8008510">
        <ele>91.1</ele>
        <time>2021-05-17T15:02:09Z</time>
      </trkpt>
      <trkpt lat="41.6740090" lon="-8.8008680">
        <ele>90.9</ele>
        <time>2021-05-17T15:02:10Z</time>
      </trkpt>
      <trkpt lat="41.6740220" lon="-8.8008850">
        <ele>90.6</ele>
        <time>2021-05-17T15:02:11Z</time>
      </trkpt>
      <trkpt lat="41.6740280" lon="-8.8008950">
        <ele>90.5</ele>
        <time>2021-05-17T15:02:12Z</time>
      </trkpt>
      <trkpt lat="41.6740350" lon="-8.8009040">
        <ele>90.3</ele>
        <time>2021-05-17T15:02:13Z</time>
      </trkpt>
      <trkpt lat="41.6740430" lon="-8.8009090">
        <ele>90.2</ele>
        <time>2021-05-17T15:02:14Z</time>
      </trkpt>
      <trkpt lat="41.6740460" lon="-8.8009150">
        <ele>90.2</ele>
        <time>2021-05-17T15:02:15Z</time>
      </trkpt>
      <trkpt lat="41.6740540" lon="-8.8009130">
        <ele>90.0</ele>
        <time>2021-05-17T15:02:16Z</time>
      </trkpt>
      <trkpt lat="41.6740630" lon="-8.8009120">
        <ele>89.9</ele>
        <time>2021-05-17T15:02:17Z</time>
      </trkpt>
      <trkpt lat="41.6740730" lon="-8.8009110">
        <ele>89.8</ele>
        <time>2021-05-17T15:02:18Z</time>
      </trkpt>
      <trkpt lat="41.6740860" lon="-8.8009180">
        <ele>89.6</ele>
        <time>2021-05-17T15:02:19Z</time>
      </trkpt>
      <trkpt lat="41.6740950" lon="-8.8009290">
        <ele>89.5</ele>
        <time>2021-05-17T15:02:20Z</time>
      </trkpt>
      <trkpt lat="41.6741000" lon="-8.8009310">
        <ele>89.4</ele>
        <time>2021-05-17T15:02:21Z</time>
      </trkpt>
      <trkpt lat="41.6741080" lon="-8.8009320">
        <ele>89.3</ele>
        <time>2021-05-17T15:02:22Z</time>
      </trkpt>
      <trkpt lat="41.6741140" lon="-8.8009380">
        <ele>89.2</ele>
        <time>2021-05-17T15:02:23Z</time>
      </trkpt>
      <trkpt lat="41.6741230" lon="-8.8009390">
        <ele>89.1</ele>
        <time>2021-05-17T15:02:24Z</time>
      </trkpt>
      <trkpt lat="41.6741370" lon="-8.8009460">
        <ele>88.9</ele>
        <time>2021-05-17T15:02:25Z</time>
      </trkpt>
      <trkpt lat="41.6741440" lon="-8.8009500">
        <ele>88.8</ele>
        <time>2021-05-17T15:02:26Z</time>
      </trkpt>
      <trkpt lat="41.6741490" lon="-8.8009540">
        <ele>88.7</ele>
        <time>2021-05-17T15:02:27Z</time>
      </trkpt>
      <trkpt lat="41.6741630" lon="-8.8009640">
        <ele>88.5</ele>
        <time>2021-05-17T15:02:28Z</time>
      </trkpt>
      <trkpt lat="41.6741700" lon="-8.8009710">
        <ele>88.3</ele>
        <time>2021-05-17T15:02:29Z</time>
      </trkpt>
      <trkpt lat="41.6741760" lon="-8.8009790">
        <ele>88.2</ele>
        <time>2021-05-17T15:02:30Z</time>
      </trkpt>
      <trkpt lat="41.6741820" lon="-8.8009860">
        <ele>88.1</ele>
        <time>2021-05-17T15:02:31Z</time>
      </trkpt>
      <trkpt lat="41.6742010" lon="-8.8009970">
        <ele>87.8</ele>
        <time>2021-05-17T15:02:32Z</time>
      </trkpt>
      <trkpt lat="41.6742050" lon="-8.8010040">
        <ele>87.7</ele>
        <time>2021-05-17T15:02:33Z</time>
      </trkpt>
      <trkpt lat="41.6742210" lon="-8.8010050">
        <ele>87.5</ele>
        <time>2021-05-17T15:02:34Z</time>
      </trkpt>
      <trkpt lat="41.6742290" lon="-8.8010100">
        <ele>87.3</ele>
        <time>2021-05-17T15:02:35Z</time>
      </trkpt>
      <trkpt lat="41.6742390" lon="-8.8010070">
        <ele>87.2</ele>
        <time>2021-05-17T15:02:36Z</time>
      </trkpt>
      <trkpt lat="41.6742480" lon="-8.8010140">
        <ele>87.0</ele>
        <time>2021-05-17T15:02:37Z</time>
      </trkpt>
      <trkpt lat="41.6742550" lon="-8.8010170">
        <ele>86.9</ele>
        <time>2021-05-17T15:02:38Z</time>
      </trkpt>
      <trkpt lat="41.6742690" lon="-8.8010180">
        <ele>86.6</ele>
        <time>2021-05-17T15:02:39Z</time>
      </trkpt>
      <trkpt lat="41.6742740" lon="-8.8010200">
        <ele>86.5</ele>
        <time>2021-05-17T15:02:40Z</time>
      </trkpt>
      <trkpt lat="41.6742810" lon="-8.8010180">
        <ele>86.4</ele>
        <time>2021-05-17T15:02:41Z</time>
      </trkpt>
      <trkpt lat="41.6742870" lon="-8.8010140">
        <ele>86.3</ele>
        <time>2021-05-17T15:02:42Z</time>
      </trkpt>
      <trkpt lat="41.6742960" lon="-8.8010140">
        <ele>86.1</ele>
        <time>2021-05-17T15:02:43Z</time>
      </trkpt>
      <trkpt lat="41.6742970" lon="-8.8010170">
        <ele>86.1</ele>
        <time>2021-05-17T15:02:44Z</time>
      </trkpt>
      <trkpt lat="41.6743140" lon="-8.8010170">
        <ele>85.8</ele>
        <time>2021-05-17T15:02:45Z</time>
      </trkpt>
      <trkpt lat="41.6743260" lon="-8.8010180">
        <ele>85.6</ele>
        <time>2021-05-17T15:02:46Z</time>
      </trkpt>
      <trkpt lat="41.6743370" lon="-8.8010190">
        <ele>85.4</ele>
        <time>2021-05-17T15:02:47Z</time>
      </trkpt>
      <trkpt lat="41.6743430" lon="-8.8010190">
        <ele>85.3</ele>
        <time>2021-05-17T15:02:48Z</time>
      </trkpt>
      <trkpt lat="41.6743480" lon="-8.8010150">
        <ele>85.2</ele>
        <time>2021-05-17T15:02:49Z</time>
      </trkpt>
      <trkpt lat="41.6743560" lon="-8.8010140">
        <ele>85.1</ele>
        <time>2021-05-17T15:02:50Z</time>
      </trkpt>
      <trkpt lat="41.6743590" lon="-8.8010120">
        <ele>85.0</ele>
        <time>2021-05-17T15:02:51Z</time>
      </trkpt>
      <trkpt lat="41.6743690" lon="-8.8010110">
        <ele>84.9</ele>
        <time>2021-05-17T15:02:52Z</time>
      </trkpt>
      <trkpt lat="41.6743820" lon="-8.8010150">
        <ele>84.6</ele>
        <time>2021-05-17T15:02:53Z</time>
      </trkpt>
      <trkpt lat="41.6743940" lon="-8.8010200">
        <ele>84.4</ele>
        <time>2021-05-17T15:02:54Z</time>
      </trkpt>
      <trkpt lat="41.6744040" lon="-8.8010200">
        <ele>84.2</ele>
        <time>2021-05-17T15:02:55Z</time>
      </trkpt>
      <trkpt lat="41.6744110" lon="-8.8010210">
        <ele>84.1</ele>
        <time>2021-05-17T15:02:56Z</time>
      </trkpt>
      <trkpt lat="41.6744250" lon="-8.8010220">
        <ele>83.9</ele>
        <time>2021-05-17T15:02:57Z</time>
      </trkpt>
      <trkpt lat="41.6744220" lon="-8.8010290">
        <ele>83.8</ele>
        <time>2021-05-17T15:02:58Z</time>
      </trkpt>
      <trkpt lat="41.6744250" lon="-8.8010260">
        <ele>83.7</ele>
        <time>2021-05-17T15:02:59Z</time>
      </trkpt>
      <trkpt lat="41.6744310" lon="-8.8010290">
        <ele>83.6</ele>
        <time>2021-05-17T15:03:00Z</time>
      </trkpt>
      <trkpt lat="41.6744500" lon="-8.8010310">
        <ele>83.3</ele>
        <time>2021-05-17T15:03:01Z</time>
      </trkpt>
      <trkpt lat="41.6744570" lon="-8.8010330">
        <ele>83.2</ele>
        <time>2021-05-17T15:03:02Z</time>
      </trkpt>
      <trkpt lat="41.6744650" lon="-8.8010340">
        <ele>83.0</ele>
        <time>2021-05-17T15:03:03Z</time>
      </trkpt>
      <trkpt lat="41.6744700" lon="-8.8010350">
        <ele>83.0</ele>
        <time>2021-05-17T15:03:04Z</time>
      </trkpt>
      <trkpt lat="41.6744840" lon="-8.8010380">
        <ele>82.7</ele>
        <time>2021-05-17T15:03:05Z</time>
      </trkpt>
      <trkpt lat="41.6744900" lon="-8.8010380">
        <ele>82.6</ele>
        <time>2021-05-17T15:03:06Z</time>
      </trkpt>
      <trkpt lat="41.6744910" lon="-8.8010410">
        <ele>82.6</ele>
        <time>2021-05-17T15:03:07Z</time>
      </trkpt>
      <trkpt lat="41.6744980" lon="-8.8010350">
        <ele>82.4</ele>
        <time>2021-05-17T15:03:08Z</time>
      </trkpt>
      <trkpt lat="41.6745040" lon="-8.8010310">
        <ele>82.3</ele>
        <time>2021-05-17T15:03:09Z</time>
      </trkpt>
      <trkpt lat="41.6745260" lon="-8.8010460">
        <ele>81.9</ele>
        <time>2021-05-17T15:03:10Z</time>
      </trkpt>
      <trkpt lat="41.6745410" lon="-8.8010470">
        <ele>81.7</ele>
        <time>2021-05-17T15:03:11Z</time>
      </trkpt>
      <trkpt lat="41.6745460" lon="-8.8010520">
        <ele>81.6</ele>
        <time>2021-05-17T15:03:12Z</time>
      </trkpt>
      <trkpt lat="41.6745520" lon="-8.8010560">
        <ele>81.5</ele>
        <time>2021-05-17T15:03:13Z</time>
      </trkpt>
      <trkpt lat="41.6745570" lon="-8.8010610">
        <ele>81.4</ele>
        <time>2021-05-17T15:03:14Z</time>
      </trkpt>
      <trkpt lat="41.6745620" lon="-8.8010660">
        <ele>81.3</ele>
        <time>2021-05-17T15:03:15Z</time>
      </trkpt>
      <trkpt lat="41.6745690" lon="-8.8010710">
        <ele>81.1</ele>
        <time>2021-05-17T15:03:16Z</time>
      </trkpt>
      <trkpt lat="41.6745840" lon="-8.8010770">
        <ele>80.8</ele>
        <time>2021-05-17T15:03:17Z</time>
      </trkpt>
      <trkpt lat="41.6745960" lon="-8.8010790">
        <ele>80.6</ele>
        <time>2021-05-17T15:03:18Z</time>
      </trkpt>
      <trkpt lat="41.6746060" lon="-8.8010860">
        <ele>80.4</ele>
        <time>2021-05-17T15:03:19Z</time>
      </trkpt>
      <trkpt lat="41.6746020" lon="-8.8010850">
        <ele>80.3</ele>
        <time>2021-05-17T15:03:20Z</time>
      </trkpt>
      <trkpt lat="41.6746040" lon="-8.8010810">
        <ele>80.2</ele>
        <time>2021-05-17T15:03:21Z</time>
      </trkpt>
      <trkpt lat="41.6746320" lon="-8.8010790">
        <ele>79.6</ele>
        <time>2021-05-17T15:03:22Z</time>
      </trkpt>
      <trkpt lat="41.6746430" lon="-8.8010800">
        <ele>79.4</ele>
        <time>2021-05-17T15:03:23Z</time>
      </trkpt>
      <trkpt lat="41.6746570" lon="-8.8010780">
        <ele>79.1</ele>
        <time>2021-05-17T15:03:24Z</time>
      </trkpt>
      <trkpt lat="41.6746660" lon="-8.8010740">
        <ele>78.9</ele>
        <time>2021-05-17T15:03:25Z</time>
      </trkpt>
      <trkpt lat="41.6746770" lon="-8.8010810">
        <ele>78.6</ele>
        <time>2021-05-17T15:03:26Z</time>
      </trkpt>
      <trkpt lat="41.6746840" lon="-8.8010830">
        <ele>78.4</ele>
        <time>2021-05-17T15:03:27Z</time>
      </trkpt>
      <trkpt lat="41.6746850" lon="-8.8010910">
        <ele>78.3</ele>
        <time>2021-05-17T15:03:28Z</time>
      </trkpt>
      <trkpt lat="41.6746810" lon="-8.8010940">
        <ele>78.2</ele>
        <time>2021-05-17T15:03:29Z</time>
      </trkpt>
      <trkpt lat="41.6746790" lon="-8.8010930">
        <ele>78.1</ele>
        <time>2021-05-17T15:03:30Z</time>
      </trkpt>
      <trkpt lat="41.6746800" lon="-8.8010980">
        <ele>78.1</ele>
        <time>2021-05-17T15:03:31Z</time>
      </trkpt>
      <trkpt lat="41.6746890" lon="-8.8010940">
        <ele>77.8</ele>
        <time>2021-05-17T15:03:32Z</time>
      </trkpt>
      <trkpt lat="41.6747060" lon="-8.8010930">
        <ele>77.5</ele>
        <time>2021-05-17T15:03:33Z</time>
      </trkpt>
      <trkpt lat="41.6747200" lon="-8.8010880">
        <ele>77.1</ele>
        <time>2021-05-17T15:03:34Z</time>
      </trkpt>
      <trkpt lat="41.6747290" lon="-8.8010890">
        <ele>76.9</ele>
        <time>2021-05-17T15:03:35Z</time>
      </trkpt>
      <trkpt lat="41.6747330" lon="-8.8010980">
        <ele>76.7</ele>
        <time>2021-05-17T15:03:36Z</time>
      </trkpt>
      <trkpt lat="41.6747240" lon="-8.8011020">
        <ele>76.5</ele>
        <time>2021-05-17T15:03:37Z</time>
      </trkpt>
      <trkpt lat="41.6747240" lon="-8.8011060">
        <ele>76.4</ele>
        <time>2021-05-17T15:03:38Z</time>
      </trkpt>
      <trkpt lat="41.6747220" lon="-8.8011090">
        <ele>76.4</ele>
        <time>2021-05-17T15:03:39Z</time>
      </trkpt>
      <trkpt lat="41.6747200" lon="-8.8011150">
        <ele>76.3</ele>
        <time>2021-05-17T15:03:40Z</time>
      </trkpt>
      <trkpt lat="41.6747230" lon="-8.8011200">
        <ele>76.2</ele>
        <time>2021-05-17T15:03:41Z</time>
      </trkpt>
      <trkpt lat="41.6747420" lon="-8.8011210">
        <ele>75.7</ele>
        <time>2021-05-17T15:03:42Z</time>
      </trkpt>
      <trkpt lat="41.6747550" lon="-8.8011250">
        <ele>75.4</ele>
        <time>2021-05-17T15:03:43Z</time>
      </trkpt>
      <trkpt lat="41.6747650" lon="-8.8011200">
        <ele>75.2</ele>
        <time>2021-05-17T15:03:44Z</time>
      </trkpt>
      <trkpt lat="41.6747710" lon="-8.8011180">
        <ele>75.1</ele>
        <time>2021-05-17T15:03:45Z</time>
      </trkpt>
      <trkpt lat="41.6747900" lon="-8.8011220">
        <ele>74.6</ele>
        <time>2021-05-17T15:03:46Z</time>
      </trkpt>
      <trkpt lat="41.6747980" lon="-8.8011270">
        <ele>74.5</ele>
        <time>2021-05-17T15:03:47Z</time>
      </trkpt>
      <trkpt lat="41.6748070" lon="-8.8011320">
        <ele>74.3</ele>
        <time>2021-05-17T15:03:48Z</time>
      </trkpt>
      <trkpt lat="41.6748190" lon="-8.8011320">
        <ele>74.1</ele>
        <time>2021-05-17T15:03:49Z</time>
      </trkpt>
      <trkpt lat="41.6748250" lon="-8.8011330">
        <ele>73.9</ele>
        <time>2021-05-17T15:03:50Z</time>
      </trkpt>
      <trkpt lat="41.6748350" lon="-8.8011390">
        <ele>73.7</ele>
        <time>2021-05-17T15:03:51Z</time>
      </trkpt>
      <trkpt lat="41.6748410" lon="-8.8011450">
        <ele>73.6</ele>
        <time>2021-05-17T15:03:52Z</time>
      </trkpt>
      <trkpt lat="41.6748410" lon="-8.8011480">
        <ele>73.6</ele>
        <time>2021-05-17T15:03:53Z</time>
      </trkpt>
      <trkpt lat="41.6748450" lon="-8.8011550">
        <ele>73.4</ele>
        <time>2021-05-17T15:03:54Z</time>
      </trkpt>
      <trkpt lat="41.6748590" lon="-8.8011580">
        <ele>73.2</ele>
        <time>2021-05-17T15:03:55Z</time>
      </trkpt>
      <trkpt lat="41.6748650" lon="-8.8011640">
        <ele>73.0</ele>
        <time>2021-05-17T15:03:56Z</time>
      </trkpt>
      <trkpt lat="41.6748640" lon="-8.8011610">
        <ele>73.0</ele>
        <time>2021-05-17T15:03:57Z</time>
      </trkpt>
      <trkpt lat="41.6748610" lon="-8.8011610">
        <ele>72.9</ele>
        <time>2021-05-17T15:03:58Z</time>
      </trkpt>
      <trkpt lat="41.6748640" lon="-8.8011620">
        <ele>72.9</ele>
        <time>2021-05-17T15:03:59Z</time>
      </trkpt>
      <trkpt lat="41.6748640" lon="-8.8011620">
        <ele>72.9</ele>
        <time>2021-05-17T15:04:00Z</time>
      </trkpt>
      <trkpt lat="41.6748780" lon="-8.8011700">
        <ele>72.6</ele>
        <time>2021-05-17T15:04:01Z</time>
      </trkpt>
      <trkpt lat="41.6748780" lon="-8.8011710">
        <ele>72.6</ele>
        <time>2021-05-17T15:04:02Z</time>
      </trkpt>
      <trkpt lat="41.6748780" lon="-8.8011710">
        <ele>72.6</ele>
        <time>2021-05-17T15:04:03Z</time>
      </trkpt>
      <trkpt lat="41.6748780" lon="-8.8011710">
        <ele>72.6</ele>
        <time>2021-05-17T15:04:04Z</time>
      </trkpt>
      <trkpt lat="41.6748780" lon="-8.8011710">
        <ele>72.6</ele>
        <time>2021-05-17T15:04:05Z</time>
      </trkpt>
      <trkpt lat="41.6748780" lon="-8.8011710">
        <ele>72.6</ele>
        <time>2021-05-17T15:04:06Z</time>
      </trkpt>
      <trkpt lat="41.6748780" lon="-8.8011710">
        <ele>72.6</ele>
        <time>2021-05-17T15:04:07Z</time>
      </trkpt>
      <trkpt lat="41.6748850" lon="-8.8011730">
        <ele>72.4</ele>
        <time>2021-05-17T15:04:08Z</time>
      </trkpt>
      <trkpt lat="41.6748840" lon="-8.8011730">
        <ele>72.4</ele>
        <time>2021-05-17T15:04:09Z</time>
      </trkpt>
      <trkpt lat="41.6748790" lon="-8.8011710">
        <ele>72.3</ele>
        <time>2021-05-17T15:04:10Z</time>
      </trkpt>
      <trkpt lat="41.6748770" lon="-8.8011670">
        <ele>72.3</ele>
        <time>2021-05-17T15:04:11Z</time>
      </trkpt>
      <trkpt lat="41.6748840" lon="-8.8011710">
        <ele>72.1</ele>
        <time>2021-05-17T15:04:12Z</time>
      </trkpt>
      <trkpt lat="41.6748920" lon="-8.8011740">
        <ele>72.0</ele>
        <time>2021-05-17T15:04:13Z</time>
      </trkpt>
      <trkpt lat="41.6749000" lon="-8.8011770">
        <ele>71.9</ele>
        <time>2021-05-17T15:04:14Z</time>
      </trkpt>
      <trkpt lat="41.6749070" lon="-8.8011830">
        <ele>71.7</ele>
        <time>2021-05-17T15:04:15Z</time>
      </trkpt>
      <trkpt lat="41.6749110" lon="-8.8011830">
        <ele>71.7</ele>
        <time>2021-05-17T15:04:16Z</time>
      </trkpt>
      <trkpt lat="41.6749150" lon="-8.8011920">
        <ele>71.5</ele>
        <time>2021-05-17T15:04:17Z</time>
      </trkpt>
      <trkpt lat="41.6749220" lon="-8.8011940">
        <ele>71.4</ele>
        <time>2021-05-17T15:04:18Z</time>
      </trkpt>
      <trkpt lat="41.6749310" lon="-8.8011950">
        <ele>71.3</ele>
        <time>2021-05-17T15:04:19Z</time>
      </trkpt>
      <trkpt lat="41.6749440" lon="-8.8011980">
        <ele>71.1</ele>
        <time>2021-05-17T15:04:20Z</time>
      </trkpt>
      <trkpt lat="41.6749740" lon="-8.8011980">
        <ele>70.6</ele>
        <time>2021-05-17T15:04:21Z</time>
      </trkpt>
      <trkpt lat="41.6749880" lon="-8.8011980">
        <ele>70.4</ele>
        <time>2021-05-17T15:04:22Z</time>
      </trkpt>
      <trkpt lat="41.6750160" lon="-8.8012040">
        <ele>70.0</ele>
        <time>2021-05-17T15:04:23Z</time>
      </trkpt>
      <trkpt lat="41.6750310" lon="-8.8012240">
        <ele>69.8</ele>
        <time>2021-05-17T15:04:24Z</time>
      </trkpt>
      <trkpt lat="41.6750420" lon="-8.8012320">
        <ele>69.6</ele>
        <time>2021-05-17T15:04:25Z</time>
      </trkpt>
      <trkpt lat="41.6750650" lon="-8.8012380">
        <ele>69.3</ele>
        <time>2021-05-17T15:04:26Z</time>
      </trkpt>
      <trkpt lat="41.6750730" lon="-8.8012400">
        <ele>69.2</ele>
        <time>2021-05-17T15:04:27Z</time>
      </trkpt>
      <trkpt lat="41.6750820" lon="-8.8012410">
        <ele>69.1</ele>
        <time>2021-05-17T15:04:28Z</time>
      </trkpt>
      <trkpt lat="41.6750960" lon="-8.8012450">
        <ele>68.9</ele>
        <time>2021-05-17T15:04:29Z</time>
      </trkpt>
      <trkpt lat="41.6751100" lon="-8.8012470">
        <ele>68.8</ele>
        <time>2021-05-17T15:04:30Z</time>
      </trkpt>
      <trkpt lat="41.6751240" lon="-8.8012530">
        <ele>68.6</ele>
        <time>2021-05-17T15:04:31Z</time>
      </trkpt>
      <trkpt lat="41.6751400" lon="-8.8012530">
        <ele>68.5</ele>
        <time>2021-05-17T15:04:32Z</time>
      </trkpt>
      <trkpt lat="41.6751550" lon="-8.8012470">
        <ele>68.3</ele>
        <time>2021-05-17T15:04:33Z</time>
      </trkpt>
      <trkpt lat="41.6751710" lon="-8.8012460">
        <ele>68.2</ele>
        <time>2021-05-17T15:04:34Z</time>
      </trkpt>
      <trkpt lat="41.6751840" lon="-8.8012600">
        <ele>68.0</ele>
        <time>2021-05-17T15:04:35Z</time>
      </trkpt>
      <trkpt lat="41.6752000" lon="-8.8012670">
        <ele>67.8</ele>
        <time>2021-05-17T15:04:36Z</time>
      </trkpt>
      <trkpt lat="41.6752160" lon="-8.8012710">
        <ele>67.7</ele>
        <time>2021-05-17T15:04:37Z</time>
      </trkpt>
      <trkpt lat="41.6752310" lon="-8.8012720">
        <ele>67.5</ele>
        <time>2021-05-17T15:04:38Z</time>
      </trkpt>
      <trkpt lat="41.6752460" lon="-8.8012740">
        <ele>67.4</ele>
        <time>2021-05-17T15:04:39Z</time>
      </trkpt>
      <trkpt lat="41.6752580" lon="-8.8012770">
        <ele>67.3</ele>
        <time>2021-05-17T15:04:40Z</time>
      </trkpt>
      <trkpt lat="41.6752660" lon="-8.8012800">
        <ele>67.2</ele>
        <time>2021-05-17T15:04:41Z</time>
      </trkpt>
      <trkpt lat="41.6752670" lon="-8.8012820">
        <ele>67.2</ele>
        <time>2021-05-17T15:04:42Z</time>
      </trkpt>
      <trkpt lat="41.6752680" lon="-8.8012700">
        <ele>67.1</ele>
        <time>2021-05-17T15:04:43Z</time>
      </trkpt>
      <trkpt lat="41.6752810" lon="-8.8012660">
        <ele>67.0</ele>
        <time>2021-05-17T15:04:44Z</time>
      </trkpt>
      <trkpt lat="41.6752910" lon="-8.8012690">
        <ele>66.9</ele>
        <time>2021-05-17T15:04:45Z</time>
      </trkpt>
      <trkpt lat="41.6752990" lon="-8.8012730">
        <ele>66.8</ele>
        <time>2021-05-17T15:04:46Z</time>
      </trkpt>
      <trkpt lat="41.6753030" lon="-8.8012730">
        <ele>66.8</ele>
        <time>2021-05-17T15:04:47Z</time>
      </trkpt>
      <trkpt lat="41.6753180" lon="-8.8012760">
        <ele>66.7</ele>
        <time>2021-05-17T15:04:48Z</time>
      </trkpt>
      <trkpt lat="41.6753220" lon="-8.8012670">
        <ele>66.6</ele>
        <time>2021-05-17T15:04:49Z</time>
      </trkpt>
      <trkpt lat="41.6753260" lon="-8.8012610">
        <ele>66.5</ele>
        <time>2021-05-17T15:04:50Z</time>
      </trkpt>
      <trkpt lat="41.6753330" lon="-8.8012680">
        <ele>66.5</ele>
        <time>2021-05-17T15:04:51Z</time>
      </trkpt>
      <trkpt lat="41.6753430" lon="-8.8012680">
        <ele>66.4</ele>
        <time>2021-05-17T15:04:52Z</time>
      </trkpt>
      <trkpt lat="41.6753480" lon="-8.8012630">
        <ele>66.3</ele>
        <time>2021-05-17T15:04:53Z</time>
      </trkpt>
      <trkpt lat="41.6753620" lon="-8.8012650">
        <ele>66.2</ele>
        <time>2021-05-17T15:04:54Z</time>
      </trkpt>
      <trkpt lat="41.6753780" lon="-8.8012680">
        <ele>66.1</ele>
        <time>2021-05-17T15:04:55Z</time>
      </trkpt>
      <trkpt lat="41.6753870" lon="-8.8012680">
        <ele>66.0</ele>
        <time>2021-05-17T15:04:56Z</time>
      </trkpt>
      <trkpt lat="41.6753940" lon="-8.8012620">
        <ele>65.9</ele>
        <time>2021-05-17T15:04:57Z</time>
      </trkpt>
      <trkpt lat="41.6754010" lon="-8.8012600">
        <ele>65.9</ele>
        <time>2021-05-17T15:04:58Z</time>
      </trkpt>
      <trkpt lat="41.6754130" lon="-8.8012670">
        <ele>65.7</ele>
        <time>2021-05-17T15:04:59Z</time>
      </trkpt>
      <trkpt lat="41.6754260" lon="-8.8012750">
        <ele>65.6</ele>
        <time>2021-05-17T15:05:00Z</time>
      </trkpt>
      <trkpt lat="41.6754340" lon="-8.8012770">
        <ele>65.6</ele>
        <time>2021-05-17T15:05:02Z</time>
      </trkpt>
      <trkpt lat="41.6754420" lon="-8.8012800">
        <ele>65.5</ele>
        <time>2021-05-17T15:05:03Z</time>
      </trkpt>
      <trkpt lat="41.6754500" lon="-8.8012820">
        <ele>65.4</ele>
        <time>2021-05-17T15:05:04Z</time>
      </trkpt>
      <trkpt lat="41.6754660" lon="-8.8012850">
        <ele>65.3</ele>
        <time>2021-05-17T15:05:05Z</time>
      </trkpt>
      <trkpt lat="41.6754700" lon="-8.8012950">
        <ele>65.2</ele>
        <time>2021-05-17T15:05:06Z</time>
      </trkpt>
      <trkpt lat="41.6754830" lon="-8.8012990">
        <ele>65.1</ele>
        <time>2021-05-17T15:05:07Z</time>
      </trkpt>
      <trkpt lat="41.6754890" lon="-8.8012980">
        <ele>65.1</ele>
        <time>2021-05-17T15:05:08Z</time>
      </trkpt>
      <trkpt lat="41.6755020" lon="-8.8013010">
        <ele>65.0</ele>
        <time>2021-05-17T15:05:09Z</time>
      </trkpt>
      <trkpt lat="41.6755130" lon="-8.8013060">
        <ele>64.9</ele>
        <time>2021-05-17T15:05:10Z</time>
      </trkpt>
      <trkpt lat="41.6755350" lon="-8.8013070">
        <ele>64.7</ele>
        <time>2021-05-17T15:05:11Z</time>
      </trkpt>
      <trkpt lat="41.6755430" lon="-8.8013070">
        <ele>64.6</ele>
        <time>2021-05-17T15:05:12Z</time>
      </trkpt>
      <trkpt lat="41.6755520" lon="-8.8013070">
        <ele>64.6</ele>
        <time>2021-05-17T15:05:13Z</time>
      </trkpt>
      <trkpt lat="41.6755580" lon="-8.8013110">
        <ele>64.5</ele>
        <time>2021-05-17T15:05:14Z</time>
      </trkpt>
      <trkpt lat="41.6755720" lon="-8.8013180">
        <ele>64.4</ele>
        <time>2021-05-17T15:05:15Z</time>
      </trkpt>
      <trkpt lat="41.6755820" lon="-8.8013210">
        <ele>64.3</ele>
        <time>2021-05-17T15:05:16Z</time>
      </trkpt>
      <trkpt lat="41.6755940" lon="-8.8013250">
        <ele>64.2</ele>
        <time>2021-05-17T15:05:17Z</time>
      </trkpt>
      <trkpt lat="41.6756090" lon="-8.8013280">
        <ele>64.1</ele>
        <time>2021-05-17T15:05:18Z</time>
      </trkpt>
      <trkpt lat="41.6756190" lon="-8.8013220">
        <ele>64.0</ele>
        <time>2021-05-17T15:05:19Z</time>
      </trkpt>
      <trkpt lat="41.6756330" lon="-8.8013270">
        <ele>63.9</ele>
        <time>2021-05-17T15:05:20Z</time>
      </trkpt>
      <trkpt lat="41.6756420" lon="-8.8013280">
        <ele>63.8</ele>
        <time>2021-05-17T15:05:21Z</time>
      </trkpt>
      <trkpt lat="41.6756560" lon="-8.8013280">
        <ele>63.7</ele>
        <time>2021-05-17T15:05:22Z</time>
      </trkpt>
      <trkpt lat="41.6756700" lon="-8.8013330">
        <ele>63.5</ele>
        <time>2021-05-17T15:05:23Z</time>
      </trkpt>
      <trkpt lat="41.6756830" lon="-8.8013400">
        <ele>63.4</ele>
        <time>2021-05-17T15:05:24Z</time>
      </trkpt>
      <trkpt lat="41.6756930" lon="-8.8013410">
        <ele>63.3</ele>
        <time>2021-05-17T15:05:25Z</time>
      </trkpt>
      <trkpt lat="41.6757030" lon="-8.8013420">
        <ele>63.2</ele>
        <time>2021-05-17T15:05:26Z</time>
      </trkpt>
      <trkpt lat="41.6757230" lon="-8.8013470">
        <ele>63.0</ele>
        <time>2021-05-17T15:05:27Z</time>
      </trkpt>
      <trkpt lat="41.6757320" lon="-8.8013500">
        <ele>63.0</ele>
        <time>2021-05-17T15:05:28Z</time>
      </trkpt>
      <trkpt lat="41.6757410" lon="-8.8013530">
        <ele>62.9</ele>
        <time>2021-05-17T15:05:29Z</time>
      </trkpt>
      <trkpt lat="41.6757550" lon="-8.8013530">
        <ele>62.7</ele>
        <time>2021-05-17T15:05:30Z</time>
      </trkpt>
      <trkpt lat="41.6757670" lon="-8.8013560">
        <ele>62.6</ele>
        <time>2021-05-17T15:05:31Z</time>
      </trkpt>
      <trkpt lat="41.6757690" lon="-8.8013540">
        <ele>62.6</ele>
        <time>2021-05-17T15:05:32Z</time>
      </trkpt>
      <trkpt lat="41.6757730" lon="-8.8013530">
        <ele>62.6</ele>
        <time>2021-05-17T15:05:33Z</time>
      </trkpt>
      <trkpt lat="41.6757860" lon="-8.8013560">
        <ele>62.4</ele>
        <time>2021-05-17T15:05:34Z</time>
      </trkpt>
      <trkpt lat="41.6758020" lon="-8.8013630">
        <ele>62.3</ele>
        <time>2021-05-17T15:05:35Z</time>
      </trkpt>
      <trkpt lat="41.6758140" lon="-8.8013620">
        <ele>62.2</ele>
        <time>2021-05-17T15:05:36Z</time>
      </trkpt>
      <trkpt lat="41.6758260" lon="-8.8013630">
        <ele>62.0</ele>
        <time>2021-05-17T15:05:37Z</time>
      </trkpt>
      <trkpt lat="41.6758340" lon="-8.8013660">
        <ele>62.0</ele>
        <time>2021-05-17T15:05:38Z</time>
      </trkpt>
      <trkpt lat="41.6758450" lon="-8.8013620">
        <ele>61.8</ele>
        <time>2021-05-17T15:05:39Z</time>
      </trkpt>
      <trkpt lat="41.6758500" lon="-8.8013630">
        <ele>61.8</ele>
        <time>2021-05-17T15:05:40Z</time>
      </trkpt>
      <trkpt lat="41.6758600" lon="-8.8013670">
        <ele>61.7</ele>
        <time>2021-05-17T15:05:41Z</time>
      </trkpt>
      <trkpt lat="41.6758690" lon="-8.8013690">
        <ele>61.6</ele>
        <time>2021-05-17T15:05:42Z</time>
      </trkpt>
      <trkpt lat="41.6758840" lon="-8.8013690">
        <ele>61.5</ele>
        <time>2021-05-17T15:05:43Z</time>
      </trkpt>
      <trkpt lat="41.6758940" lon="-8.8013760">
        <ele>61.3</ele>
        <time>2021-05-17T15:05:44Z</time>
      </trkpt>
      <trkpt lat="41.6759010" lon="-8.8013780">
        <ele>61.3</ele>
        <time>2021-05-17T15:05:45Z</time>
      </trkpt>
      <trkpt lat="41.6759180" lon="-8.8013930">
        <ele>61.1</ele>
        <time>2021-05-17T15:05:46Z</time>
      </trkpt>
      <trkpt lat="41.6759260" lon="-8.8014000">
        <ele>61.0</ele>
        <time>2021-05-17T15:05:47Z</time>
      </trkpt>
      <trkpt lat="41.6759330" lon="-8.8014080">
        <ele>60.9</ele>
        <time>2021-05-17T15:05:48Z</time>
      </trkpt>
      <trkpt lat="41.6759420" lon="-8.8014080">
        <ele>60.8</ele>
        <time>2021-05-17T15:05:49Z</time>
      </trkpt>
      <trkpt lat="41.6759500" lon="-8.8014120">
        <ele>60.7</ele>
        <time>2021-05-17T15:05:50Z</time>
      </trkpt>
      <trkpt lat="41.6759610" lon="-8.8014190">
        <ele>60.6</ele>
        <time>2021-05-17T15:05:51Z</time>
      </trkpt>
      <trkpt lat="41.6759830" lon="-8.8014300">
        <ele>60.3</ele>
        <time>2021-05-17T15:05:52Z</time>
      </trkpt>
      <trkpt lat="41.6759870" lon="-8.8014300">
        <ele>60.3</ele>
        <time>2021-05-17T15:05:53Z</time>
      </trkpt>
      <trkpt lat="41.6759940" lon="-8.8014400">
        <ele>60.2</ele>
        <time>2021-05-17T15:05:54Z</time>
      </trkpt>
      <trkpt lat="41.6759990" lon="-8.8014480">
        <ele>60.1</ele>
        <time>2021-05-17T15:05:55Z</time>
      </trkpt>
      <trkpt lat="41.6760120" lon="-8.8014520">
        <ele>60.0</ele>
        <time>2021-05-17T15:05:56Z</time>
      </trkpt>
      <trkpt lat="41.6760230" lon="-8.8014660">
        <ele>59.8</ele>
        <time>2021-05-17T15:05:57Z</time>
      </trkpt>
      <trkpt lat="41.6760290" lon="-8.8014720">
        <ele>59.7</ele>
        <time>2021-05-17T15:05:58Z</time>
      </trkpt>
      <trkpt lat="41.6760350" lon="-8.8014770">
        <ele>59.6</ele>
        <time>2021-05-17T15:05:59Z</time>
      </trkpt>
      <trkpt lat="41.6760410" lon="-8.8014830">
        <ele>59.6</ele>
        <time>2021-05-17T15:06:00Z</time>
      </trkpt>
      <trkpt lat="41.6760530" lon="-8.8014900">
        <ele>59.4</ele>
        <time>2021-05-17T15:06:01Z</time>
      </trkpt>
      <trkpt lat="41.6760590" lon="-8.8014910">
        <ele>59.4</ele>
        <time>2021-05-17T15:06:02Z</time>
      </trkpt>
      <trkpt lat="41.6760700" lon="-8.8015020">
        <ele>59.2</ele>
        <time>2021-05-17T15:06:03Z</time>
      </trkpt>
      <trkpt lat="41.6760850" lon="-8.8015010">
        <ele>59.0</ele>
        <time>2021-05-17T15:06:04Z</time>
      </trkpt>
      <trkpt lat="41.6761000" lon="-8.8015130">
        <ele>58.8</ele>
        <time>2021-05-17T15:06:05Z</time>
      </trkpt>
      <trkpt lat="41.6761120" lon="-8.8015230">
        <ele>58.7</ele>
        <time>2021-05-17T15:06:06Z</time>
      </trkpt>
      <trkpt lat="41.6761240" lon="-8.8015350">
        <ele>58.5</ele>
        <time>2021-05-17T15:06:07Z</time>
      </trkpt>
      <trkpt lat="41.6761330" lon="-8.8015440">
        <ele>58.4</ele>
        <time>2021-05-17T15:06:08Z</time>
      </trkpt>
      <trkpt lat="41.6761360" lon="-8.8015460">
        <ele>58.3</ele>
        <time>2021-05-17T15:06:09Z</time>
      </trkpt>
      <trkpt lat="41.6761540" lon="-8.8015600">
        <ele>58.1</ele>
        <time>2021-05-17T15:06:10Z</time>
      </trkpt>
      <trkpt lat="41.6761640" lon="-8.8015650">
        <ele>58.0</ele>
        <time>2021-05-17T15:06:11Z</time>
      </trkpt>
      <trkpt lat="41.6761740" lon="-8.8015760">
        <ele>57.8</ele>
        <time>2021-05-17T15:06:12Z</time>
      </trkpt>
      <trkpt lat="41.6761800" lon="-8.8015830">
        <ele>57.7</ele>
        <time>2021-05-17T15:06:13Z</time>
      </trkpt>
      <trkpt lat="41.6761990" lon="-8.8015970">
        <ele>57.4</ele>
        <time>2021-05-17T15:06:14Z</time>
      </trkpt>
      <trkpt lat="41.6762060" lon="-8.8016030">
        <ele>57.3</ele>
        <time>2021-05-17T15:06:15Z</time>
      </trkpt>
      <trkpt lat="41.6762120" lon="-8.8016090">
        <ele>57.2</ele>
        <time>2021-05-17T15:06:16Z</time>
      </trkpt>
      <trkpt lat="41.6762190" lon="-8.8016170">
        <ele>57.1</ele>
        <time>2021-05-17T15:06:17Z</time>
      </trkpt>
      <trkpt lat="41.6762400" lon="-8.8016380">
        <ele>56.8</ele>
        <time>2021-05-17T15:06:18Z</time>
      </trkpt>
      <trkpt lat="41.6762530" lon="-8.8016510">
        <ele>56.6</ele>
        <time>2021-05-17T15:06:19Z</time>
      </trkpt>
      <trkpt lat="41.6762650" lon="-8.8016580">
        <ele>56.4</ele>
        <time>2021-05-17T15:06:20Z</time>
      </trkpt>
      <trkpt lat="41.6762790" lon="-8.8016660">
        <ele>56.2</ele>
        <time>2021-05-17T15:06:21Z</time>
      </trkpt>
      <trkpt lat="41.6762910" lon="-8.8016680">
        <ele>56.1</ele>
        <time>2021-05-17T15:06:22Z</time>
      </trkpt>
      <trkpt lat="41.6763100" lon="-8.8016720">
        <ele>55.8</ele>
        <time>2021-05-17T15:06:23Z</time>
      </trkpt>
      <trkpt lat="41.6763190" lon="-8.8016790">
        <ele>55.7</ele>
        <time>2021-05-17T15:06:24Z</time>
      </trkpt>
      <trkpt lat="41.6763290" lon="-8.8016850">
        <ele>55.5</ele>
        <time>2021-05-17T15:06:25Z</time>
      </trkpt>
      <trkpt lat="41.6763430" lon="-8.8016970">
        <ele>55.3</ele>
        <time>2021-05-17T15:06:26Z</time>
      </trkpt>
      <trkpt lat="41.6763510" lon="-8.8017090">
        <ele>55.2</ele>
        <time>2021-05-17T15:06:27Z</time>
      </trkpt>
      <trkpt lat="41.6763670" lon="-8.8017240">
        <ele>54.9</ele>
        <time>2021-05-17T15:06:28Z</time>
      </trkpt>
      <trkpt lat="41.6763740" lon="-8.8017300">
        <ele>54.8</ele>
        <time>2021-05-17T15:06:29Z</time>
      </trkpt>
      <trkpt lat="41.6763810" lon="-8.8017370">
        <ele>54.7</ele>
        <time>2021-05-17T15:06:30Z</time>
      </trkpt>
      <trkpt lat="41.6763880" lon="-8.8017450">
        <ele>54.6</ele>
        <time>2021-05-17T15:06:31Z</time>
      </trkpt>
      <trkpt lat="41.6764070" lon="-8.8017590">
        <ele>54.3</ele>
        <time>2021-05-17T15:06:32Z</time>
      </trkpt>
      <trkpt lat="41.6764130" lon="-8.8017630">
        <ele>54.2</ele>
        <time>2021-05-17T15:06:33Z</time>
      </trkpt>
      <trkpt lat="41.6764260" lon="-8.8017600">
        <ele>54.1</ele>
        <time>2021-05-17T15:06:34Z</time>
      </trkpt>
      <trkpt lat="41.6764370" lon="-8.8017730">
        <ele>53.9</ele>
        <time>2021-05-17T15:06:35Z</time>
      </trkpt>
      <trkpt lat="41.6764470" lon="-8.8017840">
        <ele>53.7</ele>
        <time>2021-05-17T15:06:36Z</time>
      </trkpt>
      <trkpt lat="41.6764570" lon="-8.8017880">
        <ele>53.6</ele>
        <time>2021-05-17T15:06:37Z</time>
      </trkpt>
      <trkpt lat="41.6764630" lon="-8.8017980">
        <ele>53.5</ele>
        <time>2021-05-17T15:06:38Z</time>
      </trkpt>
      <trkpt lat="41.6764790" lon="-8.8018130">
        <ele>53.2</ele>
        <time>2021-05-17T15:06:39Z</time>
      </trkpt>
      <trkpt lat="41.6764850" lon="-8.8018200">
        <ele>53.1</ele>
        <time>2021-05-17T15:06:40Z</time>
      </trkpt>
      <trkpt lat="41.6764920" lon="-8.8018270">
        <ele>53.0</ele>
        <time>2021-05-17T15:06:41Z</time>
      </trkpt>
      <trkpt lat="41.6765050" lon="-8.8018380">
        <ele>52.8</ele>
        <time>2021-05-17T15:06:42Z</time>
      </trkpt>
      <trkpt lat="41.6765120" lon="-8.8018420">
        <ele>52.7</ele>
        <time>2021-05-17T15:06:43Z</time>
      </trkpt>
      <trkpt lat="41.6765160" lon="-8.8018490">
        <ele>52.7</ele>
        <time>2021-05-17T15:06:44Z</time>
      </trkpt>
      <trkpt lat="41.6765280" lon="-8.8018640">
        <ele>52.5</ele>
        <time>2021-05-17T15:06:45Z</time>
      </trkpt>
      <trkpt lat="41.6765370" lon="-8.8018750">
        <ele>52.3</ele>
        <time>2021-05-17T15:06:46Z</time>
      </trkpt>
      <trkpt lat="41.6765550" lon="-8.8018950">
        <ele>52.0</ele>
        <time>2021-05-17T15:06:47Z</time>
      </trkpt>
      <trkpt lat="41.6765620" lon="-8.8019070">
        <ele>51.9</ele>
        <time>2021-05-17T15:06:48Z</time>
      </trkpt>
      <trkpt lat="41.6765810" lon="-8.8019250">
        <ele>51.6</ele>
        <time>2021-05-17T15:06:49Z</time>
      </trkpt>
      <trkpt lat="41.6765870" lon="-8.8019320">
        <ele>51.5</ele>
        <time>2021-05-17T15:06:50Z</time>
      </trkpt>
      <trkpt lat="41.6765920" lon="-8.8019400">
        <ele>51.4</ele>
        <time>2021-05-17T15:06:51Z</time>
      </trkpt>
      <trkpt lat="41.6766030" lon="-8.8019480">
        <ele>51.3</ele>
        <time>2021-05-17T15:06:52Z</time>
      </trkpt>
      <trkpt lat="41.6766080" lon="-8.8019570">
        <ele>51.2</ele>
        <time>2021-05-17T15:06:53Z</time>
      </trkpt>
      <trkpt lat="41.6766170" lon="-8.8019680">
        <ele>51.1</ele>
        <time>2021-05-17T15:06:54Z</time>
      </trkpt>
      <trkpt lat="41.6766350" lon="-8.8019870">
        <ele>50.8</ele>
        <time>2021-05-17T15:06:55Z</time>
      </trkpt>
      <trkpt lat="41.6766400" lon="-8.8019950">
        <ele>50.7</ele>
        <time>2021-05-17T15:06:56Z</time>
      </trkpt>
      <trkpt lat="41.6766460" lon="-8.8020030">
        <ele>50.6</ele>
        <time>2021-05-17T15:06:57Z</time>
      </trkpt>
      <trkpt lat="41.6766580" lon="-8.8020100">
        <ele>50.5</ele>
        <time>2021-05-17T15:06:58Z</time>
      </trkpt>
      <trkpt lat="41.6766680" lon="-8.8020250">
        <ele>50.3</ele>
        <time>2021-05-17T15:06:59Z</time>
      </trkpt>
      <trkpt lat="41.6766740" lon="-8.8020350">
        <ele>50.2</ele>
        <time>2021-05-17T15:07:00Z</time>
      </trkpt>
      <trkpt lat="41.6766820" lon="-8.8020420">
        <ele>50.1</ele>
        <time>2021-05-17T15:07:01Z</time>
      </trkpt>
      <trkpt lat="41.6766940" lon="-8.8020570">
        <ele>49.9</ele>
        <time>2021-05-17T15:07:02Z</time>
      </trkpt>
      <trkpt lat="41.6767080" lon="-8.8020700">
        <ele>49.8</ele>
        <time>2021-05-17T15:07:03Z</time>
      </trkpt>
      <trkpt lat="41.6767160" lon="-8.8020810">
        <ele>49.6</ele>
        <time>2021-05-17T15:07:04Z</time>
      </trkpt>
      <trkpt lat="41.6767320" lon="-8.8020990">
        <ele>49.5</ele>
        <time>2021-05-17T15:07:05Z</time>
      </trkpt>
      <trkpt lat="41.6767390" lon="-8.8021070">
        <ele>49.4</ele>
        <time>2021-05-17T15:07:06Z</time>
      </trkpt>
      <trkpt lat="41.6767470" lon="-8.8021150">
        <ele>49.3</ele>
        <time>2021-05-17T15:07:07Z</time>
      </trkpt>
      <trkpt lat="41.6767680" lon="-8.8021310">
        <ele>49.0</ele>
        <time>2021-05-17T15:07:08Z</time>
      </trkpt>
      <trkpt lat="41.6767730" lon="-8.8021380">
        <ele>49.0</ele>
        <time>2021-05-17T15:07:09Z</time>
      </trkpt>
      <trkpt lat="41.6767790" lon="-8.8021440">
        <ele>48.9</ele>
        <time>2021-05-17T15:07:10Z</time>
      </trkpt>
      <trkpt lat="41.6767890" lon="-8.8021490">
        <ele>48.8</ele>
        <time>2021-05-17T15:07:11Z</time>
      </trkpt>
      <trkpt lat="41.6767940" lon="-8.8021560">
        <ele>48.7</ele>
        <time>2021-05-17T15:07:12Z</time>
      </trkpt>
      <trkpt lat="41.6768070" lon="-8.8021670">
        <ele>48.6</ele>
        <time>2021-05-17T15:07:13Z</time>
      </trkpt>
      <trkpt lat="41.6768100" lon="-8.8021760">
        <ele>48.5</ele>
        <time>2021-05-17T15:07:14Z</time>
      </trkpt>
      <trkpt lat="41.6768190" lon="-8.8021840">
        <ele>48.4</ele>
        <time>2021-05-17T15:07:15Z</time>
      </trkpt>
      <trkpt lat="41.6768290" lon="-8.8021970">
        <ele>48.3</ele>
        <time>2021-05-17T15:07:16Z</time>
      </trkpt>
      <trkpt lat="41.6768380" lon="-8.8022100">
        <ele>48.2</ele>
        <time>2021-05-17T15:07:17Z</time>
      </trkpt>
      <trkpt lat="41.6768540" lon="-8.8022230">
        <ele>48.1</ele>
        <time>2021-05-17T15:07:18Z</time>
      </trkpt>
      <trkpt lat="41.6768590" lon="-8.8022330">
        <ele>48.0</ele>
        <time>2021-05-17T15:07:19Z</time>
      </trkpt>
      <trkpt lat="41.6768660" lon="-8.8022440">
        <ele>47.9</ele>
        <time>2021-05-17T15:07:20Z</time>
      </trkpt>
      <trkpt lat="41.6768770" lon="-8.8022540">
        <ele>47.8</ele>
        <time>2021-05-17T15:07:21Z</time>
      </trkpt>
      <trkpt lat="41.6768840" lon="-8.8022680">
        <ele>47.7</ele>
        <time>2021-05-17T15:07:22Z</time>
      </trkpt>
      <trkpt lat="41.6768930" lon="-8.8022830">
        <ele>47.6</ele>
        <time>2021-05-17T15:07:23Z</time>
      </trkpt>
      <trkpt lat="41.6769040" lon="-8.8023000">
        <ele>47.5</ele>
        <time>2021-05-17T15:07:24Z</time>
      </trkpt>
      <trkpt lat="41.6769110" lon="-8.8023130">
        <ele>47.4</ele>
        <time>2021-05-17T15:07:26Z</time>
      </trkpt>
      <trkpt lat="41.6769190" lon="-8.8023190">
        <ele>47.3</ele>
        <time>2021-05-17T15:07:27Z</time>
      </trkpt>
      <trkpt lat="41.6769330" lon="-8.8023270">
        <ele>47.2</ele>
        <time>2021-05-17T15:07:28Z</time>
      </trkpt>
      <trkpt lat="41.6769360" lon="-8.8023320">
        <ele>47.2</ele>
        <time>2021-05-17T15:07:29Z</time>
      </trkpt>
      <trkpt lat="41.6769500" lon="-8.8023530">
        <ele>47.1</ele>
        <time>2021-05-17T15:07:30Z</time>
      </trkpt>
      <trkpt lat="41.6769550" lon="-8.8023610">
        <ele>47.0</ele>
        <time>2021-05-17T15:07:31Z</time>
      </trkpt>
      <trkpt lat="41.6769600" lon="-8.8023690">
        <ele>47.0</ele>
        <time>2021-05-17T15:07:32Z</time>
      </trkpt>
      <trkpt lat="41.6769770" lon="-8.8023860">
        <ele>46.8</ele>
        <time>2021-05-17T15:07:33Z</time>
      </trkpt>
      <trkpt lat="41.6769830" lon="-8.8023950">
        <ele>46.8</ele>
        <time>2021-05-17T15:07:34Z</time>
      </trkpt>
      <trkpt lat="41.6769890" lon="-8.8024030">
        <ele>46.7</ele>
        <time>2021-05-17T15:07:35Z</time>
      </trkpt>
      <trkpt lat="41.6770080" lon="-8.8024170">
        <ele>46.6</ele>
        <time>2021-05-17T15:07:36Z</time>
      </trkpt>
      <trkpt lat="41.6770150" lon="-8.8024230">
        <ele>46.6</ele>
        <time>2021-05-17T15:07:37Z</time>
      </trkpt>
      <trkpt lat="41.6770220" lon="-8.8024300">
        <ele>46.5</ele>
        <time>2021-05-17T15:07:38Z</time>
      </trkpt>
      <trkpt lat="41.6770280" lon="-8.8024420">
        <ele>46.4</ele>
        <time>2021-05-17T15:07:39Z</time>
      </trkpt>
      <trkpt lat="41.6770440" lon="-8.8024550">
        <ele>46.3</ele>
        <time>2021-05-17T15:07:40Z</time>
      </trkpt>
      <trkpt lat="41.6770580" lon="-8.8024700">
        <ele>46.2</ele>
        <time>2021-05-17T15:07:41Z</time>
      </trkpt>
      <trkpt lat="41.6770650" lon="-8.8024810">
        <ele>46.2</ele>
        <time>2021-05-17T15:07:42Z</time>
      </trkpt>
      <trkpt lat="41.6770770" lon="-8.8024880">
        <ele>46.1</ele>
        <time>2021-05-17T15:07:43Z</time>
      </trkpt>
      <trkpt lat="41.6770820" lon="-8.8024970">
        <ele>46.1</ele>
        <time>2021-05-17T15:07:44Z</time>
      </trkpt>
      <trkpt lat="41.6770920" lon="-8.8025090">
        <ele>46.0</ele>
        <time>2021-05-17T15:07:45Z</time>
      </trkpt>
      <trkpt lat="41.6770990" lon="-8.8025170">
        <ele>46.0</ele>
        <time>2021-05-17T15:07:46Z</time>
      </trkpt>
      <trkpt lat="41.6770960" lon="-8.8025180">
        <ele>46.0</ele>
        <time>2021-05-17T15:07:47Z</time>
      </trkpt>
      <trkpt lat="41.6771070" lon="-8.8025360">
        <ele>45.9</ele>
        <time>2021-05-17T15:07:48Z</time>
      </trkpt>
      <trkpt lat="41.6771140" lon="-8.8025450">
        <ele>45.8</ele>
        <time>2021-05-17T15:07:49Z</time>
      </trkpt>
      <trkpt lat="41.6771310" lon="-8.8025630">
        <ele>45.7</ele>
        <time>2021-05-17T15:07:50Z</time>
      </trkpt>
      <trkpt lat="41.6771370" lon="-8.8025720">
        <ele>45.7</ele>
        <time>2021-05-17T15:07:51Z</time>
      </trkpt>
      <trkpt lat="41.6771440" lon="-8.8025810">
        <ele>45.6</ele>
        <time>2021-05-17T15:07:52Z</time>
      </trkpt>
      <trkpt lat="41.6771540" lon="-8.8025920">
        <ele>45.6</ele>
        <time>2021-05-17T15:07:53Z</time>
      </trkpt>
      <trkpt lat="41.6771620" lon="-8.8026020">
        <ele>45.5</ele>
        <time>2021-05-17T15:07:54Z</time>
      </trkpt>
      <trkpt lat="41.6771700" lon="-8.8026080">
        <ele>45.5</ele>
        <time>2021-05-17T15:07:55Z</time>
      </trkpt>
      <trkpt lat="41.6771810" lon="-8.8026260">
        <ele>45.4</ele>
        <time>2021-05-17T15:07:56Z</time>
      </trkpt>
      <trkpt lat="41.6771850" lon="-8.8026340">
        <ele>45.3</ele>
        <time>2021-05-17T15:07:57Z</time>
      </trkpt>
      <trkpt lat="41.6771880" lon="-8.8026410">
        <ele>45.3</ele>
        <time>2021-05-17T15:07:58Z</time>
      </trkpt>
      <trkpt lat="41.6771910" lon="-8.8026490">
        <ele>45.3</ele>
        <time>2021-05-17T15:07:59Z</time>
      </trkpt>
      <trkpt lat="41.6772010" lon="-8.8026650">
        <ele>45.2</ele>
        <time>2021-05-17T15:08:00Z</time>
      </trkpt>
      <trkpt lat="41.6772060" lon="-8.8026710">
        <ele>45.2</ele>
        <time>2021-05-17T15:08:01Z</time>
      </trkpt>
      <trkpt lat="41.6772140" lon="-8.8026830">
        <ele>45.1</ele>
        <time>2021-05-17T15:08:02Z</time>
      </trkpt>
      <trkpt lat="41.6772230" lon="-8.8026910">
        <ele>45.1</ele>
        <time>2021-05-17T15:08:03Z</time>
      </trkpt>
      <trkpt lat="41.6772310" lon="-8.8027040">
        <ele>45.0</ele>
        <time>2021-05-17T15:08:04Z</time>
      </trkpt>
      <trkpt lat="41.6772370" lon="-8.8027100">
        <ele>45.0</ele>
        <time>2021-05-17T15:08:05Z</time>
      </trkpt>
      <trkpt lat="41.6772480" lon="-8.8027220">
        <ele>44.9</ele>
        <time>2021-05-17T15:08:06Z</time>
      </trkpt>
      <trkpt lat="41.6772560" lon="-8.8027300">
        <ele>44.9</ele>
        <time>2021-05-17T15:08:07Z</time>
      </trkpt>
      <trkpt lat="41.6772670" lon="-8.8027370">
        <ele>44.8</ele>
        <time>2021-05-17T15:08:08Z</time>
      </trkpt>
      <trkpt lat="41.6772730" lon="-8.8027440">
        <ele>44.7</ele>
        <time>2021-05-17T15:08:09Z</time>
      </trkpt>
      <trkpt lat="41.6772860" lon="-8.8027520">
        <ele>44.7</ele>
        <time>2021-05-17T15:08:10Z</time>
      </trkpt>
      <trkpt lat="41.6772950" lon="-8.8027660">
        <ele>44.6</ele>
        <time>2021-05-17T15:08:11Z</time>
      </trkpt>
      <trkpt lat="41.6773130" lon="-8.8027830">
        <ele>44.5</ele>
        <time>2021-05-17T15:08:12Z</time>
      </trkpt>
      <trkpt lat="41.6773190" lon="-8.8027900">
        <ele>44.4</ele>
        <time>2021-05-17T15:08:13Z</time>
      </trkpt>
      <trkpt lat="41.6773250" lon="-8.8027970">
        <ele>44.4</ele>
        <time>2021-05-17T15:08:14Z</time>
      </trkpt>
      <trkpt lat="41.6773360" lon="-8.8028070">
        <ele>44.3</ele>
        <time>2021-05-17T15:08:15Z</time>
      </trkpt>
      <trkpt lat="41.6773470" lon="-8.8028210">
        <ele>44.2</ele>
        <time>2021-05-17T15:08:16Z</time>
      </trkpt>
      <trkpt lat="41.6773580" lon="-8.8028360">
        <ele>44.2</ele>
        <time>2021-05-17T15:08:17Z</time>
      </trkpt>
      <trkpt lat="41.6773690" lon="-8.8028450">
        <ele>44.1</ele>
        <time>2021-05-17T15:08:18Z</time>
      </trkpt>
      <trkpt lat="41.6773820" lon="-8.8028610">
        <ele>44.0</ele>
        <time>2021-05-17T15:08:19Z</time>
      </trkpt>
      <trkpt lat="41.6773920" lon="-8.8028700">
        <ele>43.9</ele>
        <time>2021-05-17T15:08:20Z</time>
      </trkpt>
      <trkpt lat="41.6774060" lon="-8.8028920">
        <ele>43.8</ele>
        <time>2021-05-17T15:08:21Z</time>
      </trkpt>
      <trkpt lat="41.6774120" lon="-8.8029020">
        <ele>43.8</ele>
        <time>2021-05-17T15:08:22Z</time>
      </trkpt>
      <trkpt lat="41.6774180" lon="-8.8029120">
        <ele>43.7</ele>
        <time>2021-05-17T15:08:23Z</time>
      </trkpt>
      <trkpt lat="41.6774380" lon="-8.8029420">
        <ele>43.5</ele>
        <time>2021-05-17T15:08:24Z</time>
      </trkpt>
      <trkpt lat="41.6774580" lon="-8.8029530">
        <ele>43.4</ele>
        <time>2021-05-17T15:08:25Z</time>
      </trkpt>
      <trkpt lat="41.6774660" lon="-8.8029610">
        <ele>43.4</ele>
        <time>2021-05-17T15:08:26Z</time>
      </trkpt>
      <trkpt lat="41.6774750" lon="-8.8029680">
        <ele>43.3</ele>
        <time>2021-05-17T15:08:27Z</time>
      </trkpt>
      <trkpt lat="41.6774890" lon="-8.8029790">
        <ele>43.2</ele>
        <time>2021-05-17T15:08:28Z</time>
      </trkpt>
      <trkpt lat="41.6774870" lon="-8.8029880">
        <ele>43.2</ele>
        <time>2021-05-17T15:08:29Z</time>
      </trkpt>
      <trkpt lat="41.6774940" lon="-8.8030020">
        <ele>43.1</ele>
        <time>2021-05-17T15:08:30Z</time>
      </trkpt>
      <trkpt lat="41.6775010" lon="-8.8030150">
        <ele>43.0</ele>
        <time>2021-05-17T15:08:31Z</time>
      </trkpt>
      <trkpt lat="41.6775080" lon="-8.8030260">
        <ele>43.0</ele>
        <time>2021-05-17T15:08:32Z</time>
      </trkpt>
      <trkpt lat="41.6775160" lon="-8.8030290">
        <ele>42.9</ele>
        <time>2021-05-17T15:08:33Z</time>
      </trkpt>
      <trkpt lat="41.6775260" lon="-8.8030390">
        <ele>42.8</ele>
        <time>2021-05-17T15:08:34Z</time>
      </trkpt>
      <trkpt lat="41.6775390" lon="-8.8030530">
        <ele>42.7</ele>
        <time>2021-05-17T15:08:35Z</time>
      </trkpt>
      <trkpt lat="41.6775470" lon="-8.8030650">
        <ele>42.7</ele>
        <time>2021-05-17T15:08:36Z</time>
      </trkpt>
      <trkpt lat="41.6775550" lon="-8.8030780">
        <ele>42.6</ele>
        <time>2021-05-17T15:08:37Z</time>
      </trkpt>
      <trkpt lat="41.6775590" lon="-8.8030860">
        <ele>42.5</ele>
        <time>2021-05-17T15:08:38Z</time>
      </trkpt>
      <trkpt lat="41.6775670" lon="-8.8031040">
        <ele>42.4</ele>
        <time>2021-05-17T15:08:39Z</time>
      </trkpt>
      <trkpt lat="41.6775720" lon="-8.8031170">
        <ele>42.4</ele>
        <time>2021-05-17T15:08:40Z</time>
      </trkpt>
      <trkpt lat="41.6775840" lon="-8.8031200">
        <ele>42.3</ele>
        <time>2021-05-17T15:08:41Z</time>
      </trkpt>
      <trkpt lat="41.6775890" lon="-8.8031270">
        <ele>42.3</ele>
        <time>2021-05-17T15:08:42Z</time>
      </trkpt>
      <trkpt lat="41.6775980" lon="-8.8031410">
        <ele>42.2</ele>
        <time>2021-05-17T15:08:43Z</time>
      </trkpt>
      <trkpt lat="41.6776030" lon="-8.8031530">
        <ele>42.1</ele>
        <time>2021-05-17T15:08:44Z</time>
      </trkpt>
      <trkpt lat="41.6776110" lon="-8.8031670">
        <ele>42.0</ele>
        <time>2021-05-17T15:08:45Z</time>
      </trkpt>
      <trkpt lat="41.6776160" lon="-8.8031720">
        <ele>42.0</ele>
        <time>2021-05-17T15:08:46Z</time>
      </trkpt>
      <trkpt lat="41.6776280" lon="-8.8031810">
        <ele>41.9</ele>
        <time>2021-05-17T15:08:47Z</time>
      </trkpt>
      <trkpt lat="41.6776360" lon="-8.8031840">
        <ele>41.9</ele>
        <time>2021-05-17T15:08:48Z</time>
      </trkpt>
      <trkpt lat="41.6776480" lon="-8.8031970">
        <ele>41.9</ele>
        <time>2021-05-17T15:08:49Z</time>
      </trkpt>
      <trkpt lat="41.6776530" lon="-8.8032060">
        <ele>41.9</ele>
        <time>2021-05-17T15:08:50Z</time>
      </trkpt>
      <trkpt lat="41.6776680" lon="-8.8032210">
        <ele>41.8</ele>
        <time>2021-05-17T15:08:51Z</time>
      </trkpt>
      <trkpt lat="41.6776740" lon="-8.8032310">
        <ele>41.8</ele>
        <time>2021-05-17T15:08:52Z</time>
      </trkpt>
      <trkpt lat="41.6776810" lon="-8.8032400">
        <ele>41.8</ele>
        <time>2021-05-17T15:08:53Z</time>
      </trkpt>
      <trkpt lat="41.6776910" lon="-8.8032550">
        <ele>41.8</ele>
        <time>2021-05-17T15:08:54Z</time>
      </trkpt>
      <trkpt lat="41.6777060" lon="-8.8032610">
        <ele>41.8</ele>
        <time>2021-05-17T15:08:55Z</time>
      </trkpt>
      <trkpt lat="41.6777230" lon="-8.8032740">
        <ele>41.7</ele>
        <time>2021-05-17T15:08:56Z</time>
      </trkpt>
      <trkpt lat="41.6777310" lon="-8.8032780">
        <ele>41.7</ele>
        <time>2021-05-17T15:08:57Z</time>
      </trkpt>
      <trkpt lat="41.6777380" lon="-8.8032830">
        <ele>41.7</ele>
        <time>2021-05-17T15:08:58Z</time>
      </trkpt>
      <trkpt lat="41.6777450" lon="-8.8032960">
        <ele>41.7</ele>
        <time>2021-05-17T15:08:59Z</time>
      </trkpt>
      <trkpt lat="41.6777520" lon="-8.8033040">
        <ele>41.7</ele>
        <time>2021-05-17T15:09:00Z</time>
      </trkpt>
      <trkpt lat="41.6777570" lon="-8.8033100">
        <ele>41.7</ele>
        <time>2021-05-17T15:09:01Z</time>
      </trkpt>
      <trkpt lat="41.6777650" lon="-8.8033240">
        <ele>41.7</ele>
        <time>2021-05-17T15:09:02Z</time>
      </trkpt>
      <trkpt lat="41.6777760" lon="-8.8033300">
        <ele>41.7</ele>
        <time>2021-05-17T15:09:03Z</time>
      </trkpt>
      <trkpt lat="41.6777860" lon="-8.8033340">
        <ele>41.6</ele>
        <time>2021-05-17T15:09:04Z</time>
      </trkpt>
      <trkpt lat="41.6777910" lon="-8.8033420">
        <ele>41.6</ele>
        <time>2021-05-17T15:09:05Z</time>
      </trkpt>
      <trkpt lat="41.6778020" lon="-8.8033550">
        <ele>41.6</ele>
        <time>2021-05-17T15:09:06Z</time>
      </trkpt>
      <trkpt lat="41.6778110" lon="-8.8033650">
        <ele>41.6</ele>
        <time>2021-05-17T15:09:07Z</time>
      </trkpt>
      <trkpt lat="41.6778210" lon="-8.8033750">
        <ele>41.6</ele>
        <time>2021-05-17T15:09:08Z</time>
      </trkpt>
      <trkpt lat="41.6778270" lon="-8.8033820">
        <ele>41.6</ele>
        <time>2021-05-17T15:09:09Z</time>
      </trkpt>
      <trkpt lat="41.6778340" lon="-8.8033880">
        <ele>41.6</ele>
        <time>2021-05-17T15:09:10Z</time>
      </trkpt>
      <trkpt lat="41.6778440" lon="-8.8034030">
        <ele>41.6</ele>
        <time>2021-05-17T15:09:11Z</time>
      </trkpt>
      <trkpt lat="41.6778540" lon="-8.8034130">
        <ele>41.6</ele>
        <time>2021-05-17T15:09:12Z</time>
      </trkpt>
      <trkpt lat="41.6778700" lon="-8.8034320">
        <ele>41.6</ele>
        <time>2021-05-17T15:09:13Z</time>
      </trkpt>
      <trkpt lat="41.6778760" lon="-8.8034410">
        <ele>41.6</ele>
        <time>2021-05-17T15:09:14Z</time>
      </trkpt>
      <trkpt lat="41.6778820" lon="-8.8034500">
        <ele>41.6</ele>
        <time>2021-05-17T15:09:15Z</time>
      </trkpt>
      <trkpt lat="41.6778900" lon="-8.8034630">
        <ele>41.6</ele>
        <time>2021-05-17T15:09:16Z</time>
      </trkpt>
      <trkpt lat="41.6779000" lon="-8.8034780">
        <ele>41.6</ele>
        <time>2021-05-17T15:09:17Z</time>
      </trkpt>
      <trkpt lat="41.6779070" lon="-8.8034790">
        <ele>41.6</ele>
        <time>2021-05-17T15:09:18Z</time>
      </trkpt>
      <trkpt lat="41.6779240" lon="-8.8034840">
        <ele>41.7</ele>
        <time>2021-05-17T15:09:19Z</time>
      </trkpt>
      <trkpt lat="41.6779330" lon="-8.8034940">
        <ele>41.6</ele>
        <time>2021-05-17T15:09:20Z</time>
      </trkpt>
      <trkpt lat="41.6779440" lon="-8.8035050">
        <ele>41.5</ele>
        <time>2021-05-17T15:09:21Z</time>
      </trkpt>
      <trkpt lat="41.6779480" lon="-8.8035140">
        <ele>41.4</ele>
        <time>2021-05-17T15:09:22Z</time>
      </trkpt>
      <trkpt lat="41.6779560" lon="-8.8035260">
        <ele>41.3</ele>
        <time>2021-05-17T15:09:23Z</time>
      </trkpt>
      <trkpt lat="41.6779640" lon="-8.8035340">
        <ele>41.2</ele>
        <time>2021-05-17T15:09:24Z</time>
      </trkpt>
      <trkpt lat="41.6779750" lon="-8.8035450">
        <ele>41.1</ele>
        <time>2021-05-17T15:09:25Z</time>
      </trkpt>
      <trkpt lat="41.6779790" lon="-8.8035560">
        <ele>41.1</ele>
        <time>2021-05-17T15:09:26Z</time>
      </trkpt>
      <trkpt lat="41.6779870" lon="-8.8035620">
        <ele>41.0</ele>
        <time>2021-05-17T15:09:27Z</time>
      </trkpt>
      <trkpt lat="41.6779980" lon="-8.8035690">
        <ele>40.9</ele>
        <time>2021-05-17T15:09:28Z</time>
      </trkpt>
      <trkpt lat="41.6780040" lon="-8.8035770">
        <ele>40.8</ele>
        <time>2021-05-17T15:09:29Z</time>
      </trkpt>
      <trkpt lat="41.6780180" lon="-8.8035920">
        <ele>40.7</ele>
        <time>2021-05-17T15:09:30Z</time>
      </trkpt>
      <trkpt lat="41.6780220" lon="-8.8036090">
        <ele>40.6</ele>
        <time>2021-05-17T15:09:31Z</time>
      </trkpt>
      <trkpt lat="41.6780280" lon="-8.8036260">
        <ele>40.5</ele>
        <time>2021-05-17T15:09:32Z</time>
      </trkpt>
      <trkpt lat="41.6780360" lon="-8.8036360">
        <ele>40.4</ele>
        <time>2021-05-17T15:09:33Z</time>
      </trkpt>
      <trkpt lat="41.6780410" lon="-8.8036380">
        <ele>40.4</ele>
        <time>2021-05-17T15:09:34Z</time>
      </trkpt>
      <trkpt lat="41.6780580" lon="-8.8036570">
        <ele>40.2</ele>
        <time>2021-05-17T15:09:35Z</time>
      </trkpt>
      <trkpt lat="41.6780640" lon="-8.8036650">
        <ele>40.1</ele>
        <time>2021-05-17T15:09:36Z</time>
      </trkpt>
      <trkpt lat="41.6780700" lon="-8.8036720">
        <ele>40.1</ele>
        <time>2021-05-17T15:09:37Z</time>
      </trkpt>
      <trkpt lat="41.6780780" lon="-8.8036790">
        <ele>40.0</ele>
        <time>2021-05-17T15:09:38Z</time>
      </trkpt>
      <trkpt lat="41.6780890" lon="-8.8036840">
        <ele>39.9</ele>
        <time>2021-05-17T15:09:39Z</time>
      </trkpt>
      <trkpt lat="41.6780950" lon="-8.8036950">
        <ele>39.8</ele>
        <time>2021-05-17T15:09:40Z</time>
      </trkpt>
      <trkpt lat="41.6781040" lon="-8.8037020">
        <ele>39.7</ele>
        <time>2021-05-17T15:09:41Z</time>
      </trkpt>
      <trkpt lat="41.6781110" lon="-8.8037130">
        <ele>39.7</ele>
        <time>2021-05-17T15:09:42Z</time>
      </trkpt>
      <trkpt lat="41.6781220" lon="-8.8037240">
        <ele>39.6</ele>
        <time>2021-05-17T15:09:43Z</time>
      </trkpt>
      <trkpt lat="41.6781360" lon="-8.8037430">
        <ele>39.4</ele>
        <time>2021-05-17T15:09:44Z</time>
      </trkpt>
      <trkpt lat="41.6781430" lon="-8.8037520">
        <ele>39.3</ele>
        <time>2021-05-17T15:09:45Z</time>
      </trkpt>
      <trkpt lat="41.6781490" lon="-8.8037600">
        <ele>39.3</ele>
        <time>2021-05-17T15:09:46Z</time>
      </trkpt>
      <trkpt lat="41.6781550" lon="-8.8037630">
        <ele>39.2</ele>
        <time>2021-05-17T15:09:47Z</time>
      </trkpt>
      <trkpt lat="41.6781680" lon="-8.8037780">
        <ele>39.1</ele>
        <time>2021-05-17T15:09:48Z</time>
      </trkpt>
      <trkpt lat="41.6781760" lon="-8.8037920">
        <ele>39.0</ele>
        <time>2021-05-17T15:09:49Z</time>
      </trkpt>
      <trkpt lat="41.6781830" lon="-8.8037980">
        <ele>38.9</ele>
        <time>2021-05-17T15:09:50Z</time>
      </trkpt>
      <trkpt lat="41.6781900" lon="-8.8038090">
        <ele>38.8</ele>
        <time>2021-05-17T15:09:51Z</time>
      </trkpt>
      <trkpt lat="41.6781990" lon="-8.8038190">
        <ele>38.8</ele>
        <time>2021-05-17T15:09:52Z</time>
      </trkpt>
      <trkpt lat="41.6782130" lon="-8.8038420">
        <ele>38.6</ele>
        <time>2021-05-17T15:09:54Z</time>
      </trkpt>
      <trkpt lat="41.6782200" lon="-8.8038500">
        <ele>38.5</ele>
        <time>2021-05-17T15:09:55Z</time>
      </trkpt>
      <trkpt lat="41.6782280" lon="-8.8038590">
        <ele>38.5</ele>
        <time>2021-05-17T15:09:56Z</time>
      </trkpt>
      <trkpt lat="41.6782360" lon="-8.8038730">
        <ele>38.4</ele>
        <time>2021-05-17T15:09:57Z</time>
      </trkpt>
      <trkpt lat="41.6782480" lon="-8.8038810">
        <ele>38.3</ele>
        <time>2021-05-17T15:09:58Z</time>
      </trkpt>
      <trkpt lat="41.6782550" lon="-8.8038850">
        <ele>38.2</ele>
        <time>2021-05-17T15:09:59Z</time>
      </trkpt>
      <trkpt lat="41.6782680" lon="-8.8038990">
        <ele>38.1</ele>
        <time>2021-05-17T15:10:00Z</time>
      </trkpt>
      <trkpt lat="41.6782760" lon="-8.8039120">
        <ele>38.0</ele>
        <time>2021-05-17T15:10:01Z</time>
      </trkpt>
      <trkpt lat="41.6782880" lon="-8.8039280">
        <ele>37.9</ele>
        <time>2021-05-17T15:10:02Z</time>
      </trkpt>
      <trkpt lat="41.6782960" lon="-8.8039430">
        <ele>37.8</ele>
        <time>2021-05-17T15:10:03Z</time>
      </trkpt>
      <trkpt lat="41.6783110" lon="-8.8039530">
        <ele>37.7</ele>
        <time>2021-05-17T15:10:04Z</time>
      </trkpt>
      <trkpt lat="41.6783240" lon="-8.8039630">
        <ele>37.6</ele>
        <time>2021-05-17T15:10:05Z</time>
      </trkpt>
      <trkpt lat="41.6783300" lon="-8.8039830">
        <ele>37.5</ele>
        <time>2021-05-17T15:10:06Z</time>
      </trkpt>
      <trkpt lat="41.6783410" lon="-8.8039940">
        <ele>37.4</ele>
        <time>2021-05-17T15:10:07Z</time>
      </trkpt>
      <trkpt lat="41.6783520" lon="-8.8040070">
        <ele>37.3</ele>
        <time>2021-05-17T15:10:08Z</time>
      </trkpt>
      <trkpt lat="41.6783650" lon="-8.8040170">
        <ele>37.3</ele>
        <time>2021-05-17T15:10:09Z</time>
      </trkpt>
      <trkpt lat="41.6783760" lon="-8.8040260">
        <ele>37.2</ele>
        <time>2021-05-17T15:10:10Z</time>
      </trkpt>
      <trkpt lat="41.6783900" lon="-8.8040320">
        <ele>37.1</ele>
        <time>2021-05-17T15:10:11Z</time>
      </trkpt>
      <trkpt lat="41.6784070" lon="-8.8040500">
        <ele>37.0</ele>
        <time>2021-05-17T15:10:12Z</time>
      </trkpt>
      <trkpt lat="41.6784120" lon="-8.8040600">
        <ele>36.9</ele>
        <time>2021-05-17T15:10:13Z</time>
      </trkpt>
      <trkpt lat="41.6784180" lon="-8.8040690">
        <ele>36.9</ele>
        <time>2021-05-17T15:10:14Z</time>
      </trkpt>
      <trkpt lat="41.6784290" lon="-8.8040820">
        <ele>36.8</ele>
        <time>2021-05-17T15:10:15Z</time>
      </trkpt>
      <trkpt lat="41.6784410" lon="-8.8040930">
        <ele>36.7</ele>
        <time>2021-05-17T15:10:16Z</time>
      </trkpt>
      <trkpt lat="41.6784560" lon="-8.8041140">
        <ele>36.6</ele>
        <time>2021-05-17T15:10:17Z</time>
      </trkpt>
      <trkpt lat="41.6784610" lon="-8.8041230">
        <ele>36.6</ele>
        <time>2021-05-17T15:10:18Z</time>
      </trkpt>
      <trkpt lat="41.6784670" lon="-8.8041330">
        <ele>36.5</ele>
        <time>2021-05-17T15:10:19Z</time>
      </trkpt>
      <trkpt lat="41.6784850" lon="-8.8041490">
        <ele>36.4</ele>
        <time>2021-05-17T15:10:20Z</time>
      </trkpt>
      <trkpt lat="41.6784910" lon="-8.8041550">
        <ele>36.4</ele>
        <time>2021-05-17T15:10:21Z</time>
      </trkpt>
      <trkpt lat="41.6784980" lon="-8.8041620">
        <ele>36.3</ele>
        <time>2021-05-17T15:10:22Z</time>
      </trkpt>
      <trkpt lat="41.6785140" lon="-8.8041820">
        <ele>36.2</ele>
        <time>2021-05-17T15:10:23Z</time>
      </trkpt>
      <trkpt lat="41.6785210" lon="-8.8041890">
        <ele>36.2</ele>
        <time>2021-05-17T15:10:24Z</time>
      </trkpt>
      <trkpt lat="41.6785270" lon="-8.8041970">
        <ele>36.1</ele>
        <time>2021-05-17T15:10:25Z</time>
      </trkpt>
      <trkpt lat="41.6785430" lon="-8.8042150">
        <ele>36.0</ele>
        <time>2021-05-17T15:10:26Z</time>
      </trkpt>
      <trkpt lat="41.6785500" lon="-8.8042240">
        <ele>35.9</ele>
        <time>2021-05-17T15:10:27Z</time>
      </trkpt>
      <trkpt lat="41.6785560" lon="-8.8042340">
        <ele>35.9</ele>
        <time>2021-05-17T15:10:28Z</time>
      </trkpt>
      <trkpt lat="41.6785680" lon="-8.8042430">
        <ele>35.8</ele>
        <time>2021-05-17T15:10:29Z</time>
      </trkpt>
      <trkpt lat="41.6785840" lon="-8.8042630">
        <ele>35.7</ele>
        <time>2021-05-17T15:10:30Z</time>
      </trkpt>
      <trkpt lat="41.6785950" lon="-8.8042770">
        <ele>35.6</ele>
        <time>2021-05-17T15:10:31Z</time>
      </trkpt>
      <trkpt lat="41.6786060" lon="-8.8042870">
        <ele>35.6</ele>
        <time>2021-05-17T15:10:32Z</time>
      </trkpt>
      <trkpt lat="41.6786110" lon="-8.8043080">
        <ele>35.5</ele>
        <time>2021-05-17T15:10:33Z</time>
      </trkpt>
      <trkpt lat="41.6786170" lon="-8.8043220">
        <ele>35.4</ele>
        <time>2021-05-17T15:10:34Z</time>
      </trkpt>
      <trkpt lat="41.6786310" lon="-8.8043410">
        <ele>35.3</ele>
        <time>2021-05-17T15:10:35Z</time>
      </trkpt>
      <trkpt lat="41.6786390" lon="-8.8043470">
        <ele>35.3</ele>
        <time>2021-05-17T15:10:36Z</time>
      </trkpt>
      <trkpt lat="41.6786470" lon="-8.8043540">
        <ele>35.2</ele>
        <time>2021-05-17T15:10:37Z</time>
      </trkpt>
      <trkpt lat="41.6786540" lon="-8.8043640">
        <ele>35.1</ele>
        <time>2021-05-17T15:10:38Z</time>
      </trkpt>
      <trkpt lat="41.6786600" lon="-8.8043770">
        <ele>35.1</ele>
        <time>2021-05-17T15:10:39Z</time>
      </trkpt>
      <trkpt lat="41.6786720" lon="-8.8043850">
        <ele>35.0</ele>
        <time>2021-05-17T15:10:40Z</time>
      </trkpt>
      <trkpt lat="41.6786760" lon="-8.8043920">
        <ele>35.0</ele>
        <time>2021-05-17T15:10:41Z</time>
      </trkpt>
      <trkpt lat="41.6786810" lon="-8.8044010">
        <ele>34.9</ele>
        <time>2021-05-17T15:10:42Z</time>
      </trkpt>
      <trkpt lat="41.6786850" lon="-8.8044070">
        <ele>34.9</ele>
        <time>2021-05-17T15:10:43Z</time>
      </trkpt>
      <trkpt lat="41.6786900" lon="-8.8044220">
        <ele>34.8</ele>
        <time>2021-05-17T15:10:44Z</time>
      </trkpt>
      <trkpt lat="41.6787040" lon="-8.8044330">
        <ele>34.7</ele>
        <time>2021-05-17T15:10:45Z</time>
      </trkpt>
      <trkpt lat="41.6787140" lon="-8.8044410">
        <ele>34.7</ele>
        <time>2021-05-17T15:10:46Z</time>
      </trkpt>
      <trkpt lat="41.6787190" lon="-8.8044530">
        <ele>34.6</ele>
        <time>2021-05-17T15:10:47Z</time>
      </trkpt>
      <trkpt lat="41.6787250" lon="-8.8044660">
        <ele>34.6</ele>
        <time>2021-05-17T15:10:48Z</time>
      </trkpt>
      <trkpt lat="41.6787260" lon="-8.8044780">
        <ele>34.5</ele>
        <time>2021-05-17T15:10:49Z</time>
      </trkpt>
      <trkpt lat="41.6787350" lon="-8.8044810">
        <ele>34.5</ele>
        <time>2021-05-17T15:10:50Z</time>
      </trkpt>
      <trkpt lat="41.6787400" lon="-8.8044880">
        <ele>34.4</ele>
        <time>2021-05-17T15:10:51Z</time>
      </trkpt>
      <trkpt lat="41.6787520" lon="-8.8045000">
        <ele>34.3</ele>
        <time>2021-05-17T15:10:52Z</time>
      </trkpt>
      <trkpt lat="41.6787570" lon="-8.8045140">
        <ele>34.3</ele>
        <time>2021-05-17T15:10:53Z</time>
      </trkpt>
      <trkpt lat="41.6787640" lon="-8.8045200">
        <ele>34.2</ele>
        <time>2021-05-17T15:10:54Z</time>
      </trkpt>
      <trkpt lat="41.6787750" lon="-8.8045320">
        <ele>34.2</ele>
        <time>2021-05-17T15:10:55Z</time>
      </trkpt>
      <trkpt lat="41.6787880" lon="-8.8045410">
        <ele>34.1</ele>
        <time>2021-05-17T15:10:56Z</time>
      </trkpt>
      <trkpt lat="41.6787980" lon="-8.8045560">
        <ele>34.0</ele>
        <time>2021-05-17T15:10:57Z</time>
      </trkpt>
      <trkpt lat="41.6788060" lon="-8.8045680">
        <ele>33.9</ele>
        <time>2021-05-17T15:10:58Z</time>
      </trkpt>
      <trkpt lat="41.6788160" lon="-8.8045800">
        <ele>33.9</ele>
        <time>2021-05-17T15:10:59Z</time>
      </trkpt>
      <trkpt lat="41.6788230" lon="-8.8045930">
        <ele>33.8</ele>
        <time>2021-05-17T15:11:00Z</time>
      </trkpt>
      <trkpt lat="41.6788410" lon="-8.8046090">
        <ele>33.7</ele>
        <time>2021-05-17T15:11:01Z</time>
      </trkpt>
      <trkpt lat="41.6788480" lon="-8.8046160">
        <ele>33.6</ele>
        <time>2021-05-17T15:11:02Z</time>
      </trkpt>
      <trkpt lat="41.6788560" lon="-8.8046230">
        <ele>33.5</ele>
        <time>2021-05-17T15:11:03Z</time>
      </trkpt>
      <trkpt lat="41.6788690" lon="-8.8046290">
        <ele>33.5</ele>
        <time>2021-05-17T15:11:04Z</time>
      </trkpt>
      <trkpt lat="41.6788770" lon="-8.8046440">
        <ele>33.4</ele>
        <time>2021-05-17T15:11:05Z</time>
      </trkpt>
      <trkpt lat="41.6788830" lon="-8.8046580">
        <ele>33.3</ele>
        <time>2021-05-17T15:11:06Z</time>
      </trkpt>
      <trkpt lat="41.6788900" lon="-8.8046720">
        <ele>33.2</ele>
        <time>2021-05-17T15:11:07Z</time>
      </trkpt>
      <trkpt lat="41.6788970" lon="-8.8046840">
        <ele>33.2</ele>
        <time>2021-05-17T15:11:08Z</time>
      </trkpt>
      <trkpt lat="41.6789080" lon="-8.8046880">
        <ele>33.1</ele>
        <time>2021-05-17T15:11:09Z</time>
      </trkpt>
      <trkpt lat="41.6789170" lon="-8.8046960">
        <ele>33.0</ele>
        <time>2021-05-17T15:11:10Z</time>
      </trkpt>
      <trkpt lat="41.6789280" lon="-8.8047080">
        <ele>32.9</ele>
        <time>2021-05-17T15:11:11Z</time>
      </trkpt>
      <trkpt lat="41.6789340" lon="-8.8047150">
        <ele>32.9</ele>
        <time>2021-05-17T15:11:12Z</time>
      </trkpt>
      <trkpt lat="41.6789430" lon="-8.8047210">
        <ele>32.8</ele>
        <time>2021-05-17T15:11:13Z</time>
      </trkpt>
      <trkpt lat="41.6789500" lon="-8.8047310">
        <ele>32.8</ele>
        <time>2021-05-17T15:11:14Z</time>
      </trkpt>
      <trkpt lat="41.6789600" lon="-8.8047400">
        <ele>32.7</ele>
        <time>2021-05-17T15:11:15Z</time>
      </trkpt>
      <trkpt lat="41.6789650" lon="-8.8047530">
        <ele>32.6</ele>
        <time>2021-05-17T15:11:16Z</time>
      </trkpt>
      <trkpt lat="41.6789700" lon="-8.8047650">
        <ele>32.6</ele>
        <time>2021-05-17T15:11:17Z</time>
      </trkpt>
      <trkpt lat="41.6789770" lon="-8.8047730">
        <ele>32.5</ele>
        <time>2021-05-17T15:11:18Z</time>
      </trkpt>
      <trkpt lat="41.6789880" lon="-8.8047820">
        <ele>32.5</ele>
        <time>2021-05-17T15:11:19Z</time>
      </trkpt>
      <trkpt lat="41.6789910" lon="-8.8047920">
        <ele>32.4</ele>
        <time>2021-05-17T15:11:20Z</time>
      </trkpt>
      <trkpt lat="41.6789990" lon="-8.8048040">
        <ele>32.4</ele>
        <time>2021-05-17T15:11:21Z</time>
      </trkpt>
      <trkpt lat="41.6790010" lon="-8.8048240">
        <ele>32.3</ele>
        <time>2021-05-17T15:11:22Z</time>
      </trkpt>
      <trkpt lat="41.6790090" lon="-8.8048290">
        <ele>32.2</ele>
        <time>2021-05-17T15:11:23Z</time>
      </trkpt>
      <trkpt lat="41.6790140" lon="-8.8048320">
        <ele>32.2</ele>
        <time>2021-05-17T15:11:24Z</time>
      </trkpt>
      <trkpt lat="41.6790190" lon="-8.8048440">
        <ele>32.2</ele>
        <time>2021-05-17T15:11:25Z</time>
      </trkpt>
      <trkpt lat="41.6790300" lon="-8.8048570">
        <ele>32.1</ele>
        <time>2021-05-17T15:11:26Z</time>
      </trkpt>
      <trkpt lat="41.6790380" lon="-8.8048640">
        <ele>32.0</ele>
        <time>2021-05-17T15:11:27Z</time>
      </trkpt>
      <trkpt lat="41.6790450" lon="-8.8048750">
        <ele>32.0</ele>
        <time>2021-05-17T15:11:28Z</time>
      </trkpt>
      <trkpt lat="41.6790500" lon="-8.8048830">
        <ele>31.9</ele>
        <time>2021-05-17T15:11:29Z</time>
      </trkpt>
      <trkpt lat="41.6790680" lon="-8.8049010">
        <ele>31.8</ele>
        <time>2021-05-17T15:11:30Z</time>
      </trkpt>
      <trkpt lat="41.6790730" lon="-8.8049080">
        <ele>31.8</ele>
        <time>2021-05-17T15:11:31Z</time>
      </trkpt>
      <trkpt lat="41.6790790" lon="-8.8049150">
        <ele>31.7</ele>
        <time>2021-05-17T15:11:32Z</time>
      </trkpt>
      <trkpt lat="41.6790900" lon="-8.8049180">
        <ele>31.7</ele>
        <time>2021-05-17T15:11:33Z</time>
      </trkpt>
      <trkpt lat="41.6790960" lon="-8.8049340">
        <ele>31.6</ele>
        <time>2021-05-17T15:11:34Z</time>
      </trkpt>
      <trkpt lat="41.6791020" lon="-8.8049380">
        <ele>31.6</ele>
        <time>2021-05-17T15:11:35Z</time>
      </trkpt>
      <trkpt lat="41.6791070" lon="-8.8049500">
        <ele>31.5</ele>
        <time>2021-05-17T15:11:36Z</time>
      </trkpt>
      <trkpt lat="41.6791170" lon="-8.8049630">
        <ele>31.4</ele>
        <time>2021-05-17T15:11:37Z</time>
      </trkpt>
      <trkpt lat="41.6791250" lon="-8.8049710">
        <ele>31.4</ele>
        <time>2021-05-17T15:11:38Z</time>
      </trkpt>
      <trkpt lat="41.6791420" lon="-8.8049880">
        <ele>31.3</ele>
        <time>2021-05-17T15:11:39Z</time>
      </trkpt>
      <trkpt lat="41.6791480" lon="-8.8049960">
        <ele>31.2</ele>
        <time>2021-05-17T15:11:40Z</time>
      </trkpt>
      <trkpt lat="41.6791550" lon="-8.8050040">
        <ele>31.2</ele>
        <time>2021-05-17T15:11:41Z</time>
      </trkpt>
      <trkpt lat="41.6791670" lon="-8.8050110">
        <ele>31.1</ele>
        <time>2021-05-17T15:11:42Z</time>
      </trkpt>
      <trkpt lat="41.6791780" lon="-8.8050220">
        <ele>31.0</ele>
        <time>2021-05-17T15:11:43Z</time>
      </trkpt>
      <trkpt lat="41.6791830" lon="-8.8050320">
        <ele>31.0</ele>
        <time>2021-05-17T15:11:44Z</time>
      </trkpt>
      <trkpt lat="41.6791960" lon="-8.8050540">
        <ele>30.8</ele>
        <time>2021-05-17T15:11:45Z</time>
      </trkpt>
      <trkpt lat="41.6792050" lon="-8.8050600">
        <ele>30.8</ele>
        <time>2021-05-17T15:11:46Z</time>
      </trkpt>
      <trkpt lat="41.6792130" lon="-8.8050660">
        <ele>30.7</ele>
        <time>2021-05-17T15:11:47Z</time>
      </trkpt>
      <trkpt lat="41.6792190" lon="-8.8050710">
        <ele>30.7</ele>
        <time>2021-05-17T15:11:48Z</time>
      </trkpt>
      <trkpt lat="41.6792250" lon="-8.8050890">
        <ele>30.6</ele>
        <time>2021-05-17T15:11:49Z</time>
      </trkpt>
      <trkpt lat="41.6792320" lon="-8.8051030">
        <ele>30.5</ele>
        <time>2021-05-17T15:11:50Z</time>
      </trkpt>
      <trkpt lat="41.6792360" lon="-8.8051110">
        <ele>30.4</ele>
        <time>2021-05-17T15:11:51Z</time>
      </trkpt>
      <trkpt lat="41.6792440" lon="-8.8051120">
        <ele>30.4</ele>
        <time>2021-05-17T15:11:52Z</time>
      </trkpt>
      <trkpt lat="41.6792540" lon="-8.8051200">
        <ele>30.3</ele>
        <time>2021-05-17T15:11:53Z</time>
      </trkpt>
      <trkpt lat="41.6792630" lon="-8.8051230">
        <ele>30.2</ele>
        <time>2021-05-17T15:11:54Z</time>
      </trkpt>
      <trkpt lat="41.6792720" lon="-8.8051280">
        <ele>30.2</ele>
        <time>2021-05-17T15:11:55Z</time>
      </trkpt>
      <trkpt lat="41.6792820" lon="-8.8051400">
        <ele>30.1</ele>
        <time>2021-05-17T15:11:56Z</time>
      </trkpt>
      <trkpt lat="41.6792930" lon="-8.8051490">
        <ele>30.0</ele>
        <time>2021-05-17T15:11:57Z</time>
      </trkpt>
      <trkpt lat="41.6793000" lon="-8.8051590">
        <ele>29.9</ele>
        <time>2021-05-17T15:11:58Z</time>
      </trkpt>
      <trkpt lat="41.6793070" lon="-8.8051680">
        <ele>29.8</ele>
        <time>2021-05-17T15:11:59Z</time>
      </trkpt>
      <trkpt lat="41.6793100" lon="-8.8051700">
        <ele>29.8</ele>
        <time>2021-05-17T15:12:00Z</time>
      </trkpt>
      <trkpt lat="41.6793200" lon="-8.8051760">
        <ele>29.7</ele>
        <time>2021-05-17T15:12:02Z</time>
      </trkpt>
      <trkpt lat="41.6793270" lon="-8.8051850">
        <ele>29.6</ele>
        <time>2021-05-17T15:12:03Z</time>
      </trkpt>
      <trkpt lat="41.6793330" lon="-8.8051890">
        <ele>29.6</ele>
        <time>2021-05-17T15:12:04Z</time>
      </trkpt>
      <trkpt lat="41.6793440" lon="-8.8052000">
        <ele>29.5</ele>
        <time>2021-05-17T15:12:05Z</time>
      </trkpt>
      <trkpt lat="41.6793570" lon="-8.8052050">
        <ele>29.4</ele>
        <time>2021-05-17T15:12:06Z</time>
      </trkpt>
      <trkpt lat="41.6793630" lon="-8.8052190">
        <ele>29.2</ele>
        <time>2021-05-17T15:12:07Z</time>
      </trkpt>
      <trkpt lat="41.6793680" lon="-8.8052350">
        <ele>29.1</ele>
        <time>2021-05-17T15:12:08Z</time>
      </trkpt>
      <trkpt lat="41.6793790" lon="-8.8052480">
        <ele>29.0</ele>
        <time>2021-05-17T15:12:09Z</time>
      </trkpt>
      <trkpt lat="41.6793850" lon="-8.8052460">
        <ele>29.0</ele>
        <time>2021-05-17T15:12:10Z</time>
      </trkpt>
      <trkpt lat="41.6793940" lon="-8.8052500">
        <ele>28.9</ele>
        <time>2021-05-17T15:12:11Z</time>
      </trkpt>
      <trkpt lat="41.6794160" lon="-8.8052610">
        <ele>28.7</ele>
        <time>2021-05-17T15:12:12Z</time>
      </trkpt>
      <trkpt lat="41.6794240" lon="-8.8052620">
        <ele>28.6</ele>
        <time>2021-05-17T15:12:13Z</time>
      </trkpt>
      <trkpt lat="41.6794320" lon="-8.8052630">
        <ele>28.5</ele>
        <time>2021-05-17T15:12:14Z</time>
      </trkpt>
      <trkpt lat="41.6794410" lon="-8.8052680">
        <ele>28.4</ele>
        <time>2021-05-17T15:12:15Z</time>
      </trkpt>
      <trkpt lat="41.6794500" lon="-8.8052750">
        <ele>28.4</ele>
        <time>2021-05-17T15:12:16Z</time>
      </trkpt>
      <trkpt lat="41.6794640" lon="-8.8052790">
        <ele>28.2</ele>
        <time>2021-05-17T15:12:17Z</time>
      </trkpt>
      <trkpt lat="41.6794800" lon="-8.8052980">
        <ele>28.0</ele>
        <time>2021-05-17T15:12:18Z</time>
      </trkpt>
      <trkpt lat="41.6794860" lon="-8.8053080">
        <ele>28.0</ele>
        <time>2021-05-17T15:12:19Z</time>
      </trkpt>
      <trkpt lat="41.6794920" lon="-8.8053180">
        <ele>27.9</ele>
        <time>2021-05-17T15:12:20Z</time>
      </trkpt>
      <trkpt lat="41.6794980" lon="-8.8053330">
        <ele>27.8</ele>
        <time>2021-05-17T15:12:21Z</time>
      </trkpt>
      <trkpt lat="41.6795110" lon="-8.8053510">
        <ele>27.6</ele>
        <time>2021-05-17T15:12:22Z</time>
      </trkpt>
      <trkpt lat="41.6795200" lon="-8.8053650">
        <ele>27.5</ele>
        <time>2021-05-17T15:12:23Z</time>
      </trkpt>
      <trkpt lat="41.6795320" lon="-8.8053780">
        <ele>27.4</ele>
        <time>2021-05-17T15:12:24Z</time>
      </trkpt>
      <trkpt lat="41.6795430" lon="-8.8053920">
        <ele>27.2</ele>
        <time>2021-05-17T15:12:25Z</time>
      </trkpt>
      <trkpt lat="41.6795570" lon="-8.8054020">
        <ele>27.1</ele>
        <time>2021-05-17T15:12:26Z</time>
      </trkpt>
      <trkpt lat="41.6795720" lon="-8.8054070">
        <ele>27.0</ele>
        <time>2021-05-17T15:12:27Z</time>
      </trkpt>
      <trkpt lat="41.6795830" lon="-8.8054160">
        <ele>26.9</ele>
        <time>2021-05-17T15:12:28Z</time>
      </trkpt>
      <trkpt lat="41.6795940" lon="-8.8054310">
        <ele>26.8</ele>
        <time>2021-05-17T15:12:29Z</time>
      </trkpt>
      <trkpt lat="41.6796040" lon="-8.8054460">
        <ele>26.6</ele>
        <time>2021-05-17T15:12:30Z</time>
      </trkpt>
      <trkpt lat="41.6796190" lon="-8.8054680">
        <ele>26.5</ele>
        <time>2021-05-17T15:12:31Z</time>
      </trkpt>
      <trkpt lat="41.6796260" lon="-8.8054750">
        <ele>26.4</ele>
        <time>2021-05-17T15:12:32Z</time>
      </trkpt>
      <trkpt lat="41.6796340" lon="-8.8054810">
        <ele>26.3</ele>
        <time>2021-05-17T15:12:33Z</time>
      </trkpt>
      <trkpt lat="41.6796450" lon="-8.8054910">
        <ele>26.2</ele>
        <time>2021-05-17T15:12:34Z</time>
      </trkpt>
      <trkpt lat="41.6796570" lon="-8.8055010">
        <ele>26.1</ele>
        <time>2021-05-17T15:12:35Z</time>
      </trkpt>
      <trkpt lat="41.6796810" lon="-8.8055310">
        <ele>25.9</ele>
        <time>2021-05-17T15:12:36Z</time>
      </trkpt>
      <trkpt lat="41.6796850" lon="-8.8055390">
        <ele>25.8</ele>
        <time>2021-05-17T15:12:37Z</time>
      </trkpt>
      <trkpt lat="41.6797010" lon="-8.8055450">
        <ele>25.7</ele>
        <time>2021-05-17T15:12:38Z</time>
      </trkpt>
      <trkpt lat="41.6797130" lon="-8.8055550">
        <ele>25.6</ele>
        <time>2021-05-17T15:12:39Z</time>
      </trkpt>
      <trkpt lat="41.6797210" lon="-8.8055710">
        <ele>25.5</ele>
        <time>2021-05-17T15:12:40Z</time>
      </trkpt>
      <trkpt lat="41.6797290" lon="-8.8055840">
        <ele>25.4</ele>
        <time>2021-05-17T15:12:41Z</time>
      </trkpt>
      <trkpt lat="41.6797320" lon="-8.8056030">
        <ele>25.2</ele>
        <time>2021-05-17T15:12:42Z</time>
      </trkpt>
      <trkpt lat="41.6797350" lon="-8.8056140">
        <ele>25.2</ele>
        <time>2021-05-17T15:12:43Z</time>
      </trkpt>
      <trkpt lat="41.6797360" lon="-8.8056290">
        <ele>25.1</ele>
        <time>2021-05-17T15:12:44Z</time>
      </trkpt>
      <trkpt lat="41.6797440" lon="-8.8056570">
        <ele>24.9</ele>
        <time>2021-05-17T15:12:45Z</time>
      </trkpt>
      <trkpt lat="41.6797460" lon="-8.8056670">
        <ele>24.8</ele>
        <time>2021-05-17T15:12:46Z</time>
      </trkpt>
      <trkpt lat="41.6797490" lon="-8.8056770">
        <ele>24.8</ele>
        <time>2021-05-17T15:12:47Z</time>
      </trkpt>
      <trkpt lat="41.6797490" lon="-8.8056930">
        <ele>24.7</ele>
        <time>2021-05-17T15:12:48Z</time>
      </trkpt>
      <trkpt lat="41.6797480" lon="-8.8057080">
        <ele>24.6</ele>
        <time>2021-05-17T15:12:49Z</time>
      </trkpt>
      <trkpt lat="41.6797520" lon="-8.8057220">
        <ele>24.5</ele>
        <time>2021-05-17T15:12:50Z</time>
      </trkpt>
      <trkpt lat="41.6797550" lon="-8.8057410">
        <ele>24.3</ele>
        <time>2021-05-17T15:12:51Z</time>
      </trkpt>
      <trkpt lat="41.6797600" lon="-8.8057570">
        <ele>24.2</ele>
        <time>2021-05-17T15:12:52Z</time>
      </trkpt>
      <trkpt lat="41.6797750" lon="-8.8057780">
        <ele>24.0</ele>
        <time>2021-05-17T15:12:53Z</time>
      </trkpt>
      <trkpt lat="41.6797830" lon="-8.8057860">
        <ele>24.0</ele>
        <time>2021-05-17T15:12:54Z</time>
      </trkpt>
      <trkpt lat="41.6797900" lon="-8.8057930">
        <ele>23.9</ele>
        <time>2021-05-17T15:12:55Z</time>
      </trkpt>
      <trkpt lat="41.6798080" lon="-8.8058080">
        <ele>23.7</ele>
        <time>2021-05-17T15:12:56Z</time>
      </trkpt>
      <trkpt lat="41.6798140" lon="-8.8058150">
        <ele>23.6</ele>
        <time>2021-05-17T15:12:57Z</time>
      </trkpt>
      <trkpt lat="41.6798210" lon="-8.8058210">
        <ele>23.6</ele>
        <time>2021-05-17T15:12:58Z</time>
      </trkpt>
      <trkpt lat="41.6798370" lon="-8.8058390">
        <ele>23.4</ele>
        <time>2021-05-17T15:12:59Z</time>
      </trkpt>
      <trkpt lat="41.6798440" lon="-8.8058450">
        <ele>23.3</ele>
        <time>2021-05-17T15:13:00Z</time>
      </trkpt>
      <trkpt lat="41.6798510" lon="-8.8058520">
        <ele>23.2</ele>
        <time>2021-05-17T15:13:01Z</time>
      </trkpt>
      <trkpt lat="41.6798660" lon="-8.8058730">
        <ele>23.1</ele>
        <time>2021-05-17T15:13:02Z</time>
      </trkpt>
      <trkpt lat="41.6798720" lon="-8.8058810">
        <ele>23.0</ele>
        <time>2021-05-17T15:13:03Z</time>
      </trkpt>
      <trkpt lat="41.6798770" lon="-8.8058890">
        <ele>22.9</ele>
        <time>2021-05-17T15:13:04Z</time>
      </trkpt>
      <trkpt lat="41.6798950" lon="-8.8059030">
        <ele>22.8</ele>
        <time>2021-05-17T15:13:05Z</time>
      </trkpt>
      <trkpt lat="41.6799020" lon="-8.8059110">
        <ele>22.7</ele>
        <time>2021-05-17T15:13:06Z</time>
      </trkpt>
      <trkpt lat="41.6799090" lon="-8.8059180">
        <ele>22.6</ele>
        <time>2021-05-17T15:13:07Z</time>
      </trkpt>
      <trkpt lat="41.6799170" lon="-8.8059250">
        <ele>22.5</ele>
        <time>2021-05-17T15:13:08Z</time>
      </trkpt>
      <trkpt lat="41.6799260" lon="-8.8059360">
        <ele>22.5</ele>
        <time>2021-05-17T15:13:09Z</time>
      </trkpt>
      <trkpt lat="41.6799380" lon="-8.8059410">
        <ele>22.4</ele>
        <time>2021-05-17T15:13:10Z</time>
      </trkpt>
      <trkpt lat="41.6799470" lon="-8.8059460">
        <ele>22.3</ele>
        <time>2021-05-17T15:13:11Z</time>
      </trkpt>
      <trkpt lat="41.6799470" lon="-8.8059520">
        <ele>22.2</ele>
        <time>2021-05-17T15:13:12Z</time>
      </trkpt>
      <trkpt lat="41.6799500" lon="-8.8059630">
        <ele>22.2</ele>
        <time>2021-05-17T15:13:13Z</time>
      </trkpt>
      <trkpt lat="41.6799530" lon="-8.8059720">
        <ele>22.1</ele>
        <time>2021-05-17T15:13:14Z</time>
      </trkpt>
      <trkpt lat="41.6799530" lon="-8.8059710">
        <ele>22.1</ele>
        <time>2021-05-17T15:13:15Z</time>
      </trkpt>
      <trkpt lat="41.6799590" lon="-8.8059780">
        <ele>22.1</ele>
        <time>2021-05-17T15:13:16Z</time>
      </trkpt>
      <trkpt lat="41.6799650" lon="-8.8059900">
        <ele>22.0</ele>
        <time>2021-05-17T15:13:17Z</time>
      </trkpt>
      <trkpt lat="41.6799690" lon="-8.8059970">
        <ele>21.9</ele>
        <time>2021-05-17T15:13:18Z</time>
      </trkpt>
      <trkpt lat="41.6799690" lon="-8.8060050">
        <ele>21.9</ele>
        <time>2021-05-17T15:13:19Z</time>
      </trkpt>
      <trkpt lat="41.6799760" lon="-8.8060170">
        <ele>21.8</ele>
        <time>2021-05-17T15:13:20Z</time>
      </trkpt>
      <trkpt lat="41.6799790" lon="-8.8060220">
        <ele>21.8</ele>
        <time>2021-05-17T15:13:21Z</time>
      </trkpt>
      <trkpt lat="41.6799850" lon="-8.8060300">
        <ele>21.7</ele>
        <time>2021-05-17T15:13:22Z</time>
      </trkpt>
      <trkpt lat="41.6799860" lon="-8.8060350">
        <ele>21.7</ele>
        <time>2021-05-17T15:13:23Z</time>
      </trkpt>
      <trkpt lat="41.6799900" lon="-8.8060400">
        <ele>21.6</ele>
        <time>2021-05-17T15:13:24Z</time>
      </trkpt>
      <trkpt lat="41.6799960" lon="-8.8060530">
        <ele>21.5</ele>
        <time>2021-05-17T15:13:25Z</time>
      </trkpt>
      <trkpt lat="41.6800010" lon="-8.8060630">
        <ele>21.5</ele>
        <time>2021-05-17T15:13:26Z</time>
      </trkpt>
      <trkpt lat="41.6800040" lon="-8.8060660">
        <ele>21.4</ele>
        <time>2021-05-17T15:13:27Z</time>
      </trkpt>
      <trkpt lat="41.6800120" lon="-8.8060780">
        <ele>21.4</ele>
        <time>2021-05-17T15:13:28Z</time>
      </trkpt>
      <trkpt lat="41.6800160" lon="-8.8060870">
        <ele>21.3</ele>
        <time>2021-05-17T15:13:29Z</time>
      </trkpt>
      <trkpt lat="41.6800250" lon="-8.8060970">
        <ele>21.2</ele>
        <time>2021-05-17T15:13:30Z</time>
      </trkpt>
      <trkpt lat="41.6800320" lon="-8.8061040">
        <ele>21.2</ele>
        <time>2021-05-17T15:13:31Z</time>
      </trkpt>
      <trkpt lat="41.6800390" lon="-8.8061120">
        <ele>21.1</ele>
        <time>2021-05-17T15:13:32Z</time>
      </trkpt>
      <trkpt lat="41.6800480" lon="-8.8061180">
        <ele>21.0</ele>
        <time>2021-05-17T15:13:33Z</time>
      </trkpt>
      <trkpt lat="41.6800510" lon="-8.8061240">
        <ele>21.0</ele>
        <time>2021-05-17T15:13:34Z</time>
      </trkpt>
      <trkpt lat="41.6800540" lon="-8.8061380">
        <ele>20.9</ele>
        <time>2021-05-17T15:13:35Z</time>
      </trkpt>
      <trkpt lat="41.6800640" lon="-8.8061510">
        <ele>20.8</ele>
        <time>2021-05-17T15:13:36Z</time>
      </trkpt>
      <trkpt lat="41.6800690" lon="-8.8061630">
        <ele>20.8</ele>
        <time>2021-05-17T15:13:37Z</time>
      </trkpt>
      <trkpt lat="41.6800750" lon="-8.8061700">
        <ele>20.7</ele>
        <time>2021-05-17T15:13:38Z</time>
      </trkpt>
      <trkpt lat="41.6800830" lon="-8.8061750">
        <ele>20.6</ele>
        <time>2021-05-17T15:13:39Z</time>
      </trkpt>
      <trkpt lat="41.6800780" lon="-8.8061840">
        <ele>20.6</ele>
        <time>2021-05-17T15:13:40Z</time>
      </trkpt>
      <trkpt lat="41.6800830" lon="-8.8061910">
        <ele>20.5</ele>
        <time>2021-05-17T15:13:41Z</time>
      </trkpt>
      <trkpt lat="41.6800930" lon="-8.8062020">
        <ele>20.5</ele>
        <time>2021-05-17T15:13:42Z</time>
      </trkpt>
      <trkpt lat="41.6801030" lon="-8.8062140">
        <ele>20.4</ele>
        <time>2021-05-17T15:13:43Z</time>
      </trkpt>
      <trkpt lat="41.6801120" lon="-8.8062220">
        <ele>20.3</ele>
        <time>2021-05-17T15:13:44Z</time>
      </trkpt>
      <trkpt lat="41.6801200" lon="-8.8062330">
        <ele>20.3</ele>
        <time>2021-05-17T15:13:45Z</time>
      </trkpt>
      <trkpt lat="41.6801250" lon="-8.8062420">
        <ele>20.2</ele>
        <time>2021-05-17T15:13:46Z</time>
      </trkpt>
      <trkpt lat="41.6801340" lon="-8.8062530">
        <ele>20.1</ele>
        <time>2021-05-17T15:13:47Z</time>
      </trkpt>
      <trkpt lat="41.6801380" lon="-8.8062620">
        <ele>20.1</ele>
        <time>2021-05-17T15:13:48Z</time>
      </trkpt>
      <trkpt lat="41.6801430" lon="-8.8062720">
        <ele>20.0</ele>
        <time>2021-05-17T15:13:49Z</time>
      </trkpt>
      <trkpt lat="41.6801570" lon="-8.8062920">
        <ele>19.9</ele>
        <time>2021-05-17T15:13:50Z</time>
      </trkpt>
      <trkpt lat="41.6801650" lon="-8.8063010">
        <ele>19.9</ele>
        <time>2021-05-17T15:13:51Z</time>
      </trkpt>
      <trkpt lat="41.6801720" lon="-8.8063090">
        <ele>19.8</ele>
        <time>2021-05-17T15:13:52Z</time>
      </trkpt>
      <trkpt lat="41.6801770" lon="-8.8063210">
        <ele>19.8</ele>
        <time>2021-05-17T15:13:53Z</time>
      </trkpt>
      <trkpt lat="41.6801870" lon="-8.8063330">
        <ele>19.7</ele>
        <time>2021-05-17T15:13:54Z</time>
      </trkpt>
      <trkpt lat="41.6801900" lon="-8.8063400">
        <ele>19.7</ele>
        <time>2021-05-17T15:13:55Z</time>
      </trkpt>
      <trkpt lat="41.6801930" lon="-8.8063390">
        <ele>19.6</ele>
        <time>2021-05-17T15:13:56Z</time>
      </trkpt>
      <trkpt lat="41.6802010" lon="-8.8063480">
        <ele>19.6</ele>
        <time>2021-05-17T15:13:57Z</time>
      </trkpt>
      <trkpt lat="41.6802080" lon="-8.8063560">
        <ele>19.5</ele>
        <time>2021-05-17T15:13:58Z</time>
      </trkpt>
      <trkpt lat="41.6802160" lon="-8.8063650">
        <ele>19.5</ele>
        <time>2021-05-17T15:13:59Z</time>
      </trkpt>
      <trkpt lat="41.6802240" lon="-8.8063730">
        <ele>19.4</ele>
        <time>2021-05-17T15:14:00Z</time>
      </trkpt>
      <trkpt lat="41.6802330" lon="-8.8063830">
        <ele>19.4</ele>
        <time>2021-05-17T15:14:01Z</time>
      </trkpt>
      <trkpt lat="41.6802440" lon="-8.8063960">
        <ele>19.3</ele>
        <time>2021-05-17T15:14:02Z</time>
      </trkpt>
      <trkpt lat="41.6802490" lon="-8.8064040">
        <ele>19.2</ele>
        <time>2021-05-17T15:14:03Z</time>
      </trkpt>
      <trkpt lat="41.6802590" lon="-8.8064120">
        <ele>19.2</ele>
        <time>2021-05-17T15:14:04Z</time>
      </trkpt>
      <trkpt lat="41.6802630" lon="-8.8064230">
        <ele>19.1</ele>
        <time>2021-05-17T15:14:05Z</time>
      </trkpt>
      <trkpt lat="41.6802680" lon="-8.8064330">
        <ele>19.1</ele>
        <time>2021-05-17T15:14:06Z</time>
      </trkpt>
      <trkpt lat="41.6802840" lon="-8.8064500">
        <ele>19.0</ele>
        <time>2021-05-17T15:14:07Z</time>
      </trkpt>
      <trkpt lat="41.6802910" lon="-8.8064560">
        <ele>18.9</ele>
        <time>2021-05-17T15:14:08Z</time>
      </trkpt>
      <trkpt lat="41.6802970" lon="-8.8064630">
        <ele>18.9</ele>
        <time>2021-05-17T15:14:09Z</time>
      </trkpt>
      <trkpt lat="41.6803050" lon="-8.8064690">
        <ele>18.9</ele>
        <time>2021-05-17T15:14:10Z</time>
      </trkpt>
      <trkpt lat="41.6803160" lon="-8.8064830">
        <ele>18.8</ele>
        <time>2021-05-17T15:14:11Z</time>
      </trkpt>
      <trkpt lat="41.6803210" lon="-8.8064940">
        <ele>18.7</ele>
        <time>2021-05-17T15:14:12Z</time>
      </trkpt>
      <trkpt lat="41.6803340" lon="-8.8065180">
        <ele>18.6</ele>
        <time>2021-05-17T15:14:13Z</time>
      </trkpt>
      <trkpt lat="41.6803390" lon="-8.8065260">
        <ele>18.6</ele>
        <time>2021-05-17T15:14:14Z</time>
      </trkpt>
      <trkpt lat="41.6803440" lon="-8.8065330">
        <ele>18.5</ele>
        <time>2021-05-17T15:14:15Z</time>
      </trkpt>
      <trkpt lat="41.6803540" lon="-8.8065520">
        <ele>18.5</ele>
        <time>2021-05-17T15:14:16Z</time>
      </trkpt>
      <trkpt lat="41.6803600" lon="-8.8065620">
        <ele>18.4</ele>
        <time>2021-05-17T15:14:17Z</time>
      </trkpt>
      <trkpt lat="41.6803660" lon="-8.8065730">
        <ele>18.4</ele>
        <time>2021-05-17T15:14:18Z</time>
      </trkpt>
      <trkpt lat="41.6803790" lon="-8.8065950">
        <ele>18.3</ele>
        <time>2021-05-17T15:14:19Z</time>
      </trkpt>
      <trkpt lat="41.6803840" lon="-8.8066030">
        <ele>18.2</ele>
        <time>2021-05-17T15:14:20Z</time>
      </trkpt>
      <trkpt lat="41.6803890" lon="-8.8066120">
        <ele>18.2</ele>
        <time>2021-05-17T15:14:21Z</time>
      </trkpt>
      <trkpt lat="41.6803970" lon="-8.8066230">
        <ele>18.1</ele>
        <time>2021-05-17T15:14:22Z</time>
      </trkpt>
      <trkpt lat="41.6804030" lon="-8.8066300">
        <ele>18.1</ele>
        <time>2021-05-17T15:14:23Z</time>
      </trkpt>
      <trkpt lat="41.6804100" lon="-8.8066430">
        <ele>18.0</ele>
        <time>2021-05-17T15:14:24Z</time>
      </trkpt>
      <trkpt lat="41.6804220" lon="-8.8066660">
        <ele>17.9</ele>
        <time>2021-05-17T15:14:25Z</time>
      </trkpt>
      <trkpt lat="41.6804280" lon="-8.8066740">
        <ele>17.9</ele>
        <time>2021-05-17T15:14:26Z</time>
      </trkpt>
      <trkpt lat="41.6804350" lon="-8.8066830">
        <ele>17.9</ele>
        <time>2021-05-17T15:14:27Z</time>
      </trkpt>
      <trkpt lat="41.6804470" lon="-8.8066950">
        <ele>17.8</ele>
        <time>2021-05-17T15:14:28Z</time>
      </trkpt>
      <trkpt lat="41.6804540" lon="-8.8066980">
        <ele>17.8</ele>
        <time>2021-05-17T15:14:29Z</time>
      </trkpt>
      <trkpt lat="41.6804580" lon="-8.8067070">
        <ele>17.7</ele>
        <time>2021-05-17T15:14:30Z</time>
      </trkpt>
      <trkpt lat="41.6804760" lon="-8.8067330">
        <ele>17.6</ele>
        <time>2021-05-17T15:14:32Z</time>
      </trkpt>
      <trkpt lat="41.6804720" lon="-8.8067240">
        <ele>17.6</ele>
        <time>2021-05-17T15:14:33Z</time>
      </trkpt>
      <trkpt lat="41.6804740" lon="-8.8067220">
        <ele>17.6</ele>
        <time>2021-05-17T15:14:34Z</time>
      </trkpt>
      <trkpt lat="41.6804860" lon="-8.8067340">
        <ele>17.5</ele>
        <time>2021-05-17T15:14:35Z</time>
      </trkpt>
      <trkpt lat="41.6804940" lon="-8.8067450">
        <ele>17.4</ele>
        <time>2021-05-17T15:14:36Z</time>
      </trkpt>
      <trkpt lat="41.6804990" lon="-8.8067590">
        <ele>17.4</ele>
        <time>2021-05-17T15:14:37Z</time>
      </trkpt>
      <trkpt lat="41.6805060" lon="-8.8067720">
        <ele>17.3</ele>
        <time>2021-05-17T15:14:39Z</time>
      </trkpt>
      <trkpt lat="41.6805140" lon="-8.8067850">
        <ele>17.3</ele>
        <time>2021-05-17T15:14:40Z</time>
      </trkpt>
      <trkpt lat="41.6805140" lon="-8.8067890">
        <ele>17.3</ele>
        <time>2021-05-17T15:14:41Z</time>
      </trkpt>
      <trkpt lat="41.6805160" lon="-8.8068130">
        <ele>17.2</ele>
        <time>2021-05-17T15:14:42Z</time>
      </trkpt>
      <trkpt lat="41.6805170" lon="-8.8068230">
        <ele>17.2</ele>
        <time>2021-05-17T15:14:43Z</time>
      </trkpt>
      <trkpt lat="41.6805180" lon="-8.8068280">
        <ele>17.1</ele>
        <time>2021-05-17T15:14:44Z</time>
      </trkpt>
      <trkpt lat="41.6805190" lon="-8.8068340">
        <ele>17.1</ele>
        <time>2021-05-17T15:14:45Z</time>
      </trkpt>
      <trkpt lat="41.6805200" lon="-8.8068400">
        <ele>17.1</ele>
        <time>2021-05-17T15:14:46Z</time>
      </trkpt>
      <trkpt lat="41.6805210" lon="-8.8068450">
        <ele>17.1</ele>
        <time>2021-05-17T15:14:47Z</time>
      </trkpt>
      <trkpt lat="41.6805220" lon="-8.8068510">
        <ele>17.1</ele>
        <time>2021-05-17T15:14:48Z</time>
      </trkpt>
      <trkpt lat="41.6805230" lon="-8.8068570">
        <ele>17.0</ele>
        <time>2021-05-17T15:14:49Z</time>
      </trkpt>
      <trkpt lat="41.6805240" lon="-8.8068620">
        <ele>17.0</ele>
        <time>2021-05-17T15:14:50Z</time>
      </trkpt>
      <trkpt lat="41.6805250" lon="-8.8068680">
        <ele>17.0</ele>
        <time>2021-05-17T15:14:51Z</time>
      </trkpt>
      <trkpt lat="41.6805260" lon="-8.8068740">
        <ele>17.0</ele>
        <time>2021-05-17T15:14:52Z</time>
      </trkpt>
      <trkpt lat="41.6805270" lon="-8.8068790">
        <ele>17.0</ele>
        <time>2021-05-17T15:14:53Z</time>
      </trkpt>
      <trkpt lat="41.6805280" lon="-8.8068850">
        <ele>16.9</ele>
        <time>2021-05-17T15:14:54Z</time>
      </trkpt>
      <trkpt lat="41.6805290" lon="-8.8068900">
        <ele>16.9</ele>
        <time>2021-05-17T15:14:55Z</time>
      </trkpt>
      <trkpt lat="41.6805300" lon="-8.8068960">
        <ele>16.9</ele>
        <time>2021-05-17T15:14:56Z</time>
      </trkpt>
      <trkpt lat="41.6805310" lon="-8.8069020">
        <ele>16.9</ele>
        <time>2021-05-17T15:14:57Z</time>
      </trkpt>
      <trkpt lat="41.6805320" lon="-8.8069070">
        <ele>16.9</ele>
        <time>2021-05-17T15:14:58Z</time>
      </trkpt>
      <trkpt lat="41.6805330" lon="-8.8069130">
        <ele>16.9</ele>
        <time>2021-05-17T15:14:59Z</time>
      </trkpt>
      <trkpt lat="41.6805340" lon="-8.8069190">
        <ele>16.8</ele>
        <time>2021-05-17T15:15:00Z</time>
      </trkpt>
      <trkpt lat="41.6805350" lon="-8.8069240">
        <ele>16.8</ele>
        <time>2021-05-17T15:15:01Z</time>
      </trkpt>
      <trkpt lat="41.6805360" lon="-8.8069300">
        <ele>16.8</ele>
        <time>2021-05-17T15:15:02Z</time>
      </trkpt>
      <trkpt lat="41.6805370" lon="-8.8069360">
        <ele>16.8</ele>
        <time>2021-05-17T15:15:03Z</time>
      </trkpt>
      <trkpt lat="41.6805380" lon="-8.8069410">
        <ele>16.8</ele>
        <time>2021-05-17T15:15:04Z</time>
      </trkpt>
      <trkpt lat="41.6805390" lon="-8.8069470">
        <ele>16.8</ele>
        <time>2021-05-17T15:15:05Z</time>
      </trkpt>
      <trkpt lat="41.6805370" lon="-8.8069750">
        <ele>16.7</ele>
        <time>2021-05-17T15:15:06Z</time>
      </trkpt>
      <trkpt lat="41.6805370" lon="-8.8069860">
        <ele>16.6</ele>
        <time>2021-05-17T15:15:07Z</time>
      </trkpt>
      <trkpt lat="41.6805380" lon="-8.8069970">
        <ele>16.6</ele>
        <time>2021-05-17T15:15:08Z</time>
      </trkpt>
      <trkpt lat="41.6805380" lon="-8.8070080">
        <ele>16.6</ele>
        <time>2021-05-17T15:15:09Z</time>
      </trkpt>
      <trkpt lat="41.6805430" lon="-8.8070190">
        <ele>16.6</ele>
        <time>2021-05-17T15:15:10Z</time>
      </trkpt>
      <trkpt lat="41.6805560" lon="-8.8070360">
        <ele>16.5</ele>
        <time>2021-05-17T15:15:11Z</time>
      </trkpt>
      <trkpt lat="41.6805620" lon="-8.8070460">
        <ele>16.5</ele>
        <time>2021-05-17T15:15:12Z</time>
      </trkpt>
      <trkpt lat="41.6805690" lon="-8.8070610">
        <ele>15.9</ele>
        <time>2021-05-17T15:15:13Z</time>
      </trkpt>
      <trkpt lat="41.6805770" lon="-8.8070720">
        <ele>15.9</ele>
        <time>2021-05-17T15:15:14Z</time>
      </trkpt>
      <trkpt lat="41.6805960" lon="-8.8070850">
        <ele>15.8</ele>
        <time>2021-05-17T15:15:15Z</time>
      </trkpt>
      <trkpt lat="41.6806060" lon="-8.8070900">
        <ele>15.8</ele>
        <time>2021-05-17T15:15:16Z</time>
      </trkpt>
      <trkpt lat="41.6806150" lon="-8.8070960">
        <ele>15.8</ele>
        <time>2021-05-17T15:15:17Z</time>
      </trkpt>
      <trkpt lat="41.6806230" lon="-8.8070980">
        <ele>15.8</ele>
        <time>2021-05-17T15:15:18Z</time>
      </trkpt>
      <trkpt lat="41.6806320" lon="-8.8071000">
        <ele>15.8</ele>
        <time>2021-05-17T15:15:19Z</time>
      </trkpt>
      <trkpt lat="41.6806390" lon="-8.8071050">
        <ele>15.7</ele>
        <time>2021-05-17T15:15:20Z</time>
      </trkpt>
      <trkpt lat="41.6806440" lon="-8.8071100">
        <ele>15.7</ele>
        <time>2021-05-17T15:15:21Z</time>
      </trkpt>
      <trkpt lat="41.6806540" lon="-8.8071160">
        <ele>15.7</ele>
        <time>2021-05-17T15:15:22Z</time>
      </trkpt>
      <trkpt lat="41.6806710" lon="-8.8071210">
        <ele>15.7</ele>
        <time>2021-05-17T15:15:23Z</time>
      </trkpt>
      <trkpt lat="41.6806790" lon="-8.8071210">
        <ele>15.7</ele>
        <time>2021-05-17T15:15:24Z</time>
      </trkpt>
      <trkpt lat="41.6806910" lon="-8.8071210">
        <ele>15.7</ele>
        <time>2021-05-17T15:15:25Z</time>
      </trkpt>
      <trkpt lat="41.6807020" lon="-8.8071180">
        <ele>15.7</ele>
        <time>2021-05-17T15:15:26Z</time>
      </trkpt>
      <trkpt lat="41.6807210" lon="-8.8071280">
        <ele>15.7</ele>
        <time>2021-05-17T15:15:27Z</time>
      </trkpt>
      <trkpt lat="41.6807290" lon="-8.8071300">
        <ele>15.7</ele>
        <time>2021-05-17T15:15:28Z</time>
      </trkpt>
      <trkpt lat="41.6807370" lon="-8.8071330">
        <ele>15.6</ele>
        <time>2021-05-17T15:15:29Z</time>
      </trkpt>
      <trkpt lat="41.6807550" lon="-8.8071420">
        <ele>15.6</ele>
        <time>2021-05-17T15:15:30Z</time>
      </trkpt>
      <trkpt lat="41.6807650" lon="-8.8071460">
        <ele>15.6</ele>
        <time>2021-05-17T15:15:31Z</time>
      </trkpt>
      <trkpt lat="41.6807750" lon="-8.8071490">
        <ele>15.6</ele>
        <time>2021-05-17T15:15:32Z</time>
      </trkpt>
      <trkpt lat="41.6807890" lon="-8.8071600">
        <ele>15.6</ele>
        <time>2021-05-17T15:15:33Z</time>
      </trkpt>
      <trkpt lat="41.6808000" lon="-8.8071610">
        <ele>15.6</ele>
        <time>2021-05-17T15:15:34Z</time>
      </trkpt>
      <trkpt lat="41.6808030" lon="-8.8071650">
        <ele>15.6</ele>
        <time>2021-05-17T15:15:35Z</time>
      </trkpt>
      <trkpt lat="41.6808160" lon="-8.8071710">
        <ele>15.5</ele>
        <time>2021-05-17T15:15:36Z</time>
      </trkpt>
      <trkpt lat="41.6808290" lon="-8.8071770">
        <ele>15.5</ele>
        <time>2021-05-17T15:15:37Z</time>
      </trkpt>
      <trkpt lat="41.6808490" lon="-8.8071920">
        <ele>15.4</ele>
        <time>2021-05-17T15:15:38Z</time>
      </trkpt>
      <trkpt lat="41.6808550" lon="-8.8071980">
        <ele>15.4</ele>
        <time>2021-05-17T15:15:39Z</time>
      </trkpt>
      <trkpt lat="41.6808620" lon="-8.8072040">
        <ele>15.4</ele>
        <time>2021-05-17T15:15:40Z</time>
      </trkpt>
      <trkpt lat="41.6808730" lon="-8.8072180">
        <ele>15.4</ele>
        <time>2021-05-17T15:15:41Z</time>
      </trkpt>
      <trkpt lat="41.6808830" lon="-8.8072300">
        <ele>15.3</ele>
        <time>2021-05-17T15:15:42Z</time>
      </trkpt>
      <trkpt lat="41.6808890" lon="-8.8072410">
        <ele>15.3</ele>
        <time>2021-05-17T15:15:43Z</time>
      </trkpt>
      <trkpt lat="41.6808960" lon="-8.8072510">
        <ele>15.3</ele>
        <time>2021-05-17T15:15:44Z</time>
      </trkpt>
      <trkpt lat="41.6808980" lon="-8.8072640">
        <ele>15.3</ele>
        <time>2021-05-17T15:15:45Z</time>
      </trkpt>
      <trkpt lat="41.6809120" lon="-8.8072870">
        <ele>15.2</ele>
        <time>2021-05-17T15:15:46Z</time>
      </trkpt>
      <trkpt lat="41.6809170" lon="-8.8072960">
        <ele>15.2</ele>
        <time>2021-05-17T15:15:47Z</time>
      </trkpt>
      <trkpt lat="41.6809220" lon="-8.8073040">
        <ele>15.2</ele>
        <time>2021-05-17T15:15:48Z</time>
      </trkpt>
      <trkpt lat="41.6809460" lon="-8.8073280">
        <ele>15.1</ele>
        <time>2021-05-17T15:15:49Z</time>
      </trkpt>
      <trkpt lat="41.6809510" lon="-8.8073350">
        <ele>15.1</ele>
        <time>2021-05-17T15:15:50Z</time>
      </trkpt>
      <trkpt lat="41.6809580" lon="-8.8073440">
        <ele>15.1</ele>
        <time>2021-05-17T15:15:51Z</time>
      </trkpt>
      <trkpt lat="41.6809640" lon="-8.8073540">
        <ele>15.0</ele>
        <time>2021-05-17T15:15:52Z</time>
      </trkpt>
      <trkpt lat="41.6809700" lon="-8.8073610">
        <ele>15.0</ele>
        <time>2021-05-17T15:15:53Z</time>
      </trkpt>
      <trkpt lat="41.6809880" lon="-8.8073850">
        <ele>14.9</ele>
        <time>2021-05-17T15:15:54Z</time>
      </trkpt>
      <trkpt lat="41.6809930" lon="-8.8073930">
        <ele>14.9</ele>
        <time>2021-05-17T15:15:55Z</time>
      </trkpt>
      <trkpt lat="41.6809990" lon="-8.8074010">
        <ele>14.9</ele>
        <time>2021-05-17T15:15:56Z</time>
      </trkpt>
      <trkpt lat="41.6810090" lon="-8.8074100">
        <ele>14.9</ele>
        <time>2021-05-17T15:15:57Z</time>
      </trkpt>
      <trkpt lat="41.6810220" lon="-8.8074230">
        <ele>14.8</ele>
        <time>2021-05-17T15:15:58Z</time>
      </trkpt>
      <trkpt lat="41.6810380" lon="-8.8074350">
        <ele>14.8</ele>
        <time>2021-05-17T15:15:59Z</time>
      </trkpt>
      <trkpt lat="41.6810480" lon="-8.8074480">
        <ele>14.8</ele>
        <time>2021-05-17T15:16:00Z</time>
      </trkpt>
      <trkpt lat="41.6810590" lon="-8.8074570">
        <ele>14.8</ele>
        <time>2021-05-17T15:16:01Z</time>
      </trkpt>
      <trkpt lat="41.6810670" lon="-8.8074730">
        <ele>14.7</ele>
        <time>2021-05-17T15:16:02Z</time>
      </trkpt>
      <trkpt lat="41.6810770" lon="-8.8074880">
        <ele>14.7</ele>
        <time>2021-05-17T15:16:03Z</time>
      </trkpt>
      <trkpt lat="41.6810870" lon="-8.8075060">
        <ele>14.7</ele>
        <time>2021-05-17T15:16:04Z</time>
      </trkpt>
      <trkpt lat="41.6811010" lon="-8.8075210">
        <ele>14.6</ele>
        <time>2021-05-17T15:16:05Z</time>
      </trkpt>
      <trkpt lat="41.6811130" lon="-8.8075350">
        <ele>14.6</ele>
        <time>2021-05-17T15:16:06Z</time>
      </trkpt>
      <trkpt lat="41.6811190" lon="-8.8075470">
        <ele>14.6</ele>
        <time>2021-05-17T15:16:07Z</time>
      </trkpt>
      <trkpt lat="41.6811260" lon="-8.8075520">
        <ele>14.6</ele>
        <time>2021-05-17T15:16:08Z</time>
      </trkpt>
      <trkpt lat="41.6811360" lon="-8.8075610">
        <ele>14.5</ele>
        <time>2021-05-17T15:16:09Z</time>
      </trkpt>
      <trkpt lat="41.6811450" lon="-8.8075650">
        <ele>14.5</ele>
        <time>2021-05-17T15:16:10Z</time>
      </trkpt>
      <trkpt lat="41.6811510" lon="-8.8075820">
        <ele>14.5</ele>
        <time>2021-05-17T15:16:11Z</time>
      </trkpt>
      <trkpt lat="41.6811590" lon="-8.8075920">
        <ele>14.5</ele>
        <time>2021-05-17T15:16:12Z</time>
      </trkpt>
      <trkpt lat="41.6811710" lon="-8.8076060">
        <ele>14.4</ele>
        <time>2021-05-17T15:16:13Z</time>
      </trkpt>
      <trkpt lat="41.6811780" lon="-8.8076170">
        <ele>14.4</ele>
        <time>2021-05-17T15:16:14Z</time>
      </trkpt>
      <trkpt lat="41.6811830" lon="-8.8076260">
        <ele>14.4</ele>
        <time>2021-05-17T15:16:15Z</time>
      </trkpt>
      <trkpt lat="41.6811900" lon="-8.8076450">
        <ele>14.4</ele>
        <time>2021-05-17T15:16:16Z</time>
      </trkpt>
      <trkpt lat="41.6811970" lon="-8.8076530">
        <ele>14.3</ele>
        <time>2021-05-17T15:16:17Z</time>
      </trkpt>
      <trkpt lat="41.6812030" lon="-8.8076600">
        <ele>14.3</ele>
        <time>2021-05-17T15:16:18Z</time>
      </trkpt>
      <trkpt lat="41.6812090" lon="-8.8076680">
        <ele>14.3</ele>
        <time>2021-05-17T15:16:19Z</time>
      </trkpt>
      <trkpt lat="41.6812250" lon="-8.8076810">
        <ele>14.3</ele>
        <time>2021-05-17T15:16:20Z</time>
      </trkpt>
      <trkpt lat="41.6812360" lon="-8.8076910">
        <ele>14.2</ele>
        <time>2021-05-17T15:16:21Z</time>
      </trkpt>
      <trkpt lat="41.6812490" lon="-8.8077130">
        <ele>14.2</ele>
        <time>2021-05-17T15:16:22Z</time>
      </trkpt>
      <trkpt lat="41.6812540" lon="-8.8077200">
        <ele>14.2</ele>
        <time>2021-05-17T15:16:23Z</time>
      </trkpt>
      <trkpt lat="41.6812600" lon="-8.8077280">
        <ele>14.2</ele>
        <time>2021-05-17T15:16:24Z</time>
      </trkpt>
      <trkpt lat="41.6812710" lon="-8.8077370">
        <ele>14.2</ele>
        <time>2021-05-17T15:16:25Z</time>
      </trkpt>
      <trkpt lat="41.6812820" lon="-8.8077500">
        <ele>14.1</ele>
        <time>2021-05-17T15:16:26Z</time>
      </trkpt>
      <trkpt lat="41.6812970" lon="-8.8077700">
        <ele>14.1</ele>
        <time>2021-05-17T15:16:27Z</time>
      </trkpt>
      <trkpt lat="41.6813050" lon="-8.8077770">
        <ele>14.1</ele>
        <time>2021-05-17T15:16:28Z</time>
      </trkpt>
      <trkpt lat="41.6813120" lon="-8.8077830">
        <ele>14.1</ele>
        <time>2021-05-17T15:16:29Z</time>
      </trkpt>
      <trkpt lat="41.6813260" lon="-8.8077940">
        <ele>14.0</ele>
        <time>2021-05-17T15:16:30Z</time>
      </trkpt>
      <trkpt lat="41.6813340" lon="-8.8078070">
        <ele>14.0</ele>
        <time>2021-05-17T15:16:31Z</time>
      </trkpt>
      <trkpt lat="41.6813420" lon="-8.8078190">
        <ele>14.0</ele>
        <time>2021-05-17T15:16:32Z</time>
      </trkpt>
      <trkpt lat="41.6813450" lon="-8.8078270">
        <ele>14.0</ele>
        <time>2021-05-17T15:16:33Z</time>
      </trkpt>
      <trkpt lat="41.6813560" lon="-8.8078380">
        <ele>14.0</ele>
        <time>2021-05-17T15:16:34Z</time>
      </trkpt>
      <trkpt lat="41.6813670" lon="-8.8078490">
        <ele>13.9</ele>
        <time>2021-05-17T15:16:36Z</time>
      </trkpt>
      <trkpt lat="41.6813730" lon="-8.8078520">
        <ele>13.9</ele>
        <time>2021-05-17T15:16:37Z</time>
      </trkpt>
      <trkpt lat="41.6813750" lon="-8.8078580">
        <ele>13.9</ele>
        <time>2021-05-17T15:16:38Z</time>
      </trkpt>
      <trkpt lat="41.6813730" lon="-8.8078600">
        <ele>13.9</ele>
        <time>2021-05-17T15:16:39Z</time>
      </trkpt>
      <trkpt lat="41.6813810" lon="-8.8078660">
        <ele>13.9</ele>
        <time>2021-05-17T15:16:40Z</time>
      </trkpt>
      <trkpt lat="41.6813980" lon="-8.8078840">
        <ele>13.9</ele>
        <time>2021-05-17T15:16:41Z</time>
      </trkpt>
      <trkpt lat="41.6814090" lon="-8.8078910">
        <ele>13.9</ele>
        <time>2021-05-17T15:16:42Z</time>
      </trkpt>
      <trkpt lat="41.6814210" lon="-8.8078990">
        <ele>13.9</ele>
        <time>2021-05-17T15:16:43Z</time>
      </trkpt>
      <trkpt lat="41.6814280" lon="-8.8079160">
        <ele>13.8</ele>
        <time>2021-05-17T15:16:44Z</time>
      </trkpt>
      <trkpt lat="41.6814390" lon="-8.8079300">
        <ele>13.8</ele>
        <time>2021-05-17T15:16:45Z</time>
      </trkpt>
      <trkpt lat="41.6814470" lon="-8.8079430">
        <ele>13.8</ele>
        <time>2021-05-17T15:16:46Z</time>
      </trkpt>
      <trkpt lat="41.6814600" lon="-8.8079540">
        <ele>13.8</ele>
        <time>2021-05-17T15:16:47Z</time>
      </trkpt>
      <trkpt lat="41.6814830" lon="-8.8079810">
        <ele>13.8</ele>
        <time>2021-05-17T15:16:48Z</time>
      </trkpt>
      <trkpt lat="41.6814860" lon="-8.8079870">
        <ele>13.8</ele>
        <time>2021-05-17T15:16:49Z</time>
      </trkpt>
      <trkpt lat="41.6814970" lon="-8.8080000">
        <ele>13.8</ele>
        <time>2021-05-17T15:16:50Z</time>
      </trkpt>
      <trkpt lat="41.6815070" lon="-8.8080080">
        <ele>13.8</ele>
        <time>2021-05-17T15:16:51Z</time>
      </trkpt>
      <trkpt lat="41.6815150" lon="-8.8080160">
        <ele>13.8</ele>
        <time>2021-05-17T15:16:52Z</time>
      </trkpt>
      <trkpt lat="41.6815230" lon="-8.8080270">
        <ele>13.7</ele>
        <time>2021-05-17T15:16:53Z</time>
      </trkpt>
      <trkpt lat="41.6815360" lon="-8.8080450">
        <ele>13.7</ele>
        <time>2021-05-17T15:16:54Z</time>
      </trkpt>
      <trkpt lat="41.6815480" lon="-8.8080560">
        <ele>13.7</ele>
        <time>2021-05-17T15:16:55Z</time>
      </trkpt>
      <trkpt lat="41.6815580" lon="-8.8080700">
        <ele>13.7</ele>
        <time>2021-05-17T15:16:56Z</time>
      </trkpt>
      <trkpt lat="41.6815610" lon="-8.8080680">
        <ele>13.7</ele>
        <time>2021-05-17T15:16:57Z</time>
      </trkpt>
      <trkpt lat="41.6815760" lon="-8.8080760">
        <ele>13.7</ele>
        <time>2021-05-17T15:16:58Z</time>
      </trkpt>
      <trkpt lat="41.6815840" lon="-8.8080800">
        <ele>13.7</ele>
        <time>2021-05-17T15:16:59Z</time>
      </trkpt>
      <trkpt lat="41.6815960" lon="-8.8080880">
        <ele>13.6</ele>
        <time>2021-05-17T15:17:00Z</time>
      </trkpt>
      <trkpt lat="41.6816130" lon="-8.8080980">
        <ele>13.6</ele>
        <time>2021-05-17T15:17:01Z</time>
      </trkpt>
      <trkpt lat="41.6816260" lon="-8.8081140">
        <ele>13.6</ele>
        <time>2021-05-17T15:17:02Z</time>
      </trkpt>
      <trkpt lat="41.6816390" lon="-8.8081300">
        <ele>13.6</ele>
        <time>2021-05-17T15:17:03Z</time>
      </trkpt>
      <trkpt lat="41.6816520" lon="-8.8081500">
        <ele>13.5</ele>
        <time>2021-05-17T15:17:04Z</time>
      </trkpt>
      <trkpt lat="41.6816590" lon="-8.8081590">
        <ele>13.5</ele>
        <time>2021-05-17T15:17:05Z</time>
      </trkpt>
      <trkpt lat="41.6816670" lon="-8.8081690">
        <ele>13.5</ele>
        <time>2021-05-17T15:17:06Z</time>
      </trkpt>
      <trkpt lat="41.6816720" lon="-8.8081840">
        <ele>13.5</ele>
        <time>2021-05-17T15:17:07Z</time>
      </trkpt>
      <trkpt lat="41.6816800" lon="-8.8081960">
        <ele>13.5</ele>
        <time>2021-05-17T15:17:08Z</time>
      </trkpt>
      <trkpt lat="41.6816850" lon="-8.8082090">
        <ele>13.4</ele>
        <time>2021-05-17T15:17:09Z</time>
      </trkpt>
      <trkpt lat="41.6816900" lon="-8.8082160">
        <ele>13.4</ele>
        <time>2021-05-17T15:17:10Z</time>
      </trkpt>
      <trkpt lat="41.6816970" lon="-8.8082250">
        <ele>13.4</ele>
        <time>2021-05-17T15:17:11Z</time>
      </trkpt>
      <trkpt lat="41.6817000" lon="-8.8082190">
        <ele>13.4</ele>
        <time>2021-05-17T15:17:12Z</time>
      </trkpt>
      <trkpt lat="41.6817140" lon="-8.8082310">
        <ele>13.4</ele>
        <time>2021-05-17T15:17:13Z</time>
      </trkpt>
      <trkpt lat="41.6817200" lon="-8.8082470">
        <ele>13.4</ele>
        <time>2021-05-17T15:17:14Z</time>
      </trkpt>
      <trkpt lat="41.6817260" lon="-8.8082580">
        <ele>13.3</ele>
        <time>2021-05-17T15:17:15Z</time>
      </trkpt>
      <trkpt lat="41.6817280" lon="-8.8082720">
        <ele>13.3</ele>
        <time>2021-05-17T15:17:16Z</time>
      </trkpt>
      <trkpt lat="41.6817370" lon="-8.8082790">
        <ele>13.3</ele>
        <time>2021-05-17T15:17:17Z</time>
      </trkpt>
      <trkpt lat="41.6817460" lon="-8.8082870">
        <ele>13.3</ele>
        <time>2021-05-17T15:17:18Z</time>
      </trkpt>
      <trkpt lat="41.6817560" lon="-8.8082990">
        <ele>13.3</ele>
        <time>2021-05-17T15:17:19Z</time>
      </trkpt>
      <trkpt lat="41.6817620" lon="-8.8083060">
        <ele>13.3</ele>
        <time>2021-05-17T15:17:20Z</time>
      </trkpt>
      <trkpt lat="41.6817720" lon="-8.8083200">
        <ele>13.2</ele>
        <time>2021-05-17T15:17:21Z</time>
      </trkpt>
      <trkpt lat="41.6817810" lon="-8.8083290">
        <ele>13.2</ele>
        <time>2021-05-17T15:17:22Z</time>
      </trkpt>
      <trkpt lat="41.6817940" lon="-8.8083390">
        <ele>13.2</ele>
        <time>2021-05-17T15:17:23Z</time>
      </trkpt>
      <trkpt lat="41.6818120" lon="-8.8083540">
        <ele>13.2</ele>
        <time>2021-05-17T15:17:24Z</time>
      </trkpt>
      <trkpt lat="41.6818230" lon="-8.8083700">
        <ele>13.2</ele>
        <time>2021-05-17T15:17:25Z</time>
      </trkpt>
      <trkpt lat="41.6818320" lon="-8.8083870">
        <ele>13.1</ele>
        <time>2021-05-17T15:17:26Z</time>
      </trkpt>
      <trkpt lat="41.6818550" lon="-8.8084110">
        <ele>13.1</ele>
        <time>2021-05-17T15:17:27Z</time>
      </trkpt>
      <trkpt lat="41.6818630" lon="-8.8084160">
        <ele>13.1</ele>
        <time>2021-05-17T15:17:28Z</time>
      </trkpt>
      <trkpt lat="41.6818740" lon="-8.8084220">
        <ele>13.1</ele>
        <time>2021-05-17T15:17:29Z</time>
      </trkpt>
      <trkpt lat="41.6818860" lon="-8.8084360">
        <ele>13.1</ele>
        <time>2021-05-17T15:17:30Z</time>
      </trkpt>
      <trkpt lat="41.6818980" lon="-8.8084520">
        <ele>13.0</ele>
        <time>2021-05-17T15:17:31Z</time>
      </trkpt>
      <trkpt lat="41.6819080" lon="-8.8084680">
        <ele>13.0</ele>
        <time>2021-05-17T15:17:32Z</time>
      </trkpt>
      <trkpt lat="41.6819220" lon="-8.8084810">
        <ele>13.0</ele>
        <time>2021-05-17T15:17:33Z</time>
      </trkpt>
      <trkpt lat="41.6819370" lon="-8.8084940">
        <ele>13.0</ele>
        <time>2021-05-17T15:17:34Z</time>
      </trkpt>
      <trkpt lat="41.6819440" lon="-8.8085080">
        <ele>13.0</ele>
        <time>2021-05-17T15:17:35Z</time>
      </trkpt>
      <trkpt lat="41.6819560" lon="-8.8085230">
        <ele>12.9</ele>
        <time>2021-05-17T15:17:36Z</time>
      </trkpt>
      <trkpt lat="41.6819660" lon="-8.8085400">
        <ele>12.9</ele>
        <time>2021-05-17T15:17:37Z</time>
      </trkpt>
      <trkpt lat="41.6819740" lon="-8.8085520">
        <ele>12.9</ele>
        <time>2021-05-17T15:17:38Z</time>
      </trkpt>
      <trkpt lat="41.6819860" lon="-8.8085630">
        <ele>12.9</ele>
        <time>2021-05-17T15:17:39Z</time>
      </trkpt>
      <trkpt lat="41.6819960" lon="-8.8085720">
        <ele>12.9</ele>
        <time>2021-05-17T15:17:40Z</time>
      </trkpt>
      <trkpt lat="41.6820040" lon="-8.8085820">
        <ele>12.9</ele>
        <time>2021-05-17T15:17:41Z</time>
      </trkpt>
      <trkpt lat="41.6820190" lon="-8.8085970">
        <ele>12.8</ele>
        <time>2021-05-17T15:17:42Z</time>
      </trkpt>
      <trkpt lat="41.6820330" lon="-8.8086060">
        <ele>12.8</ele>
        <time>2021-05-17T15:17:43Z</time>
      </trkpt>
      <trkpt lat="41.6820400" lon="-8.8086130">
        <ele>12.8</ele>
        <time>2021-05-17T15:17:44Z</time>
      </trkpt>
      <trkpt lat="41.6820480" lon="-8.8086270">
        <ele>12.8</ele>
        <time>2021-05-17T15:17:45Z</time>
      </trkpt>
      <trkpt lat="41.6820610" lon="-8.8086290">
        <ele>12.8</ele>
        <time>2021-05-17T15:17:46Z</time>
      </trkpt>
      <trkpt lat="41.6820780" lon="-8.8086410">
        <ele>12.8</ele>
        <time>2021-05-17T15:17:47Z</time>
      </trkpt>
      <trkpt lat="41.6820830" lon="-8.8086430">
        <ele>12.8</ele>
        <time>2021-05-17T15:17:48Z</time>
      </trkpt>
      <trkpt lat="41.6820940" lon="-8.8086480">
        <ele>12.7</ele>
        <time>2021-05-17T15:17:49Z</time>
      </trkpt>
      <trkpt lat="41.6821010" lon="-8.8086630">
        <ele>12.7</ele>
        <time>2021-05-17T15:17:50Z</time>
      </trkpt>
      <trkpt lat="41.6821110" lon="-8.8086760">
        <ele>12.7</ele>
        <time>2021-05-17T15:17:51Z</time>
      </trkpt>
      <trkpt lat="41.6821230" lon="-8.8086890">
        <ele>12.7</ele>
        <time>2021-05-17T15:17:52Z</time>
      </trkpt>
      <trkpt lat="41.6821370" lon="-8.8087100">
        <ele>12.7</ele>
        <time>2021-05-17T15:17:53Z</time>
      </trkpt>
      <trkpt lat="41.6821440" lon="-8.8087160">
        <ele>12.7</ele>
        <time>2021-05-17T15:17:54Z</time>
      </trkpt>
      <trkpt lat="41.6821520" lon="-8.8087230">
        <ele>12.6</ele>
        <time>2021-05-17T15:17:55Z</time>
      </trkpt>
      <trkpt lat="41.6821620" lon="-8.8087400">
        <ele>12.6</ele>
        <time>2021-05-17T15:17:56Z</time>
      </trkpt>
      <trkpt lat="41.6821760" lon="-8.8087560">
        <ele>12.6</ele>
        <time>2021-05-17T15:17:57Z</time>
      </trkpt>
      <trkpt lat="41.6821850" lon="-8.8087630">
        <ele>12.6</ele>
        <time>2021-05-17T15:17:58Z</time>
      </trkpt>
      <trkpt lat="41.6821960" lon="-8.8087660">
        <ele>12.6</ele>
        <time>2021-05-17T15:17:59Z</time>
      </trkpt>
      <trkpt lat="41.6822050" lon="-8.8087760">
        <ele>12.6</ele>
        <time>2021-05-17T15:18:00Z</time>
      </trkpt>
      <trkpt lat="41.6822230" lon="-8.8087910">
        <ele>12.5</ele>
        <time>2021-05-17T15:18:01Z</time>
      </trkpt>
      <trkpt lat="41.6822290" lon="-8.8087990">
        <ele>12.5</ele>
        <time>2021-05-17T15:18:02Z</time>
      </trkpt>
      <trkpt lat="41.6822360" lon="-8.8088060">
        <ele>12.5</ele>
        <time>2021-05-17T15:18:03Z</time>
      </trkpt>
      <trkpt lat="41.6822520" lon="-8.8088220">
        <ele>12.5</ele>
        <time>2021-05-17T15:18:04Z</time>
      </trkpt>
      <trkpt lat="41.6822590" lon="-8.8088310">
        <ele>12.5</ele>
        <time>2021-05-17T15:18:05Z</time>
      </trkpt>
      <trkpt lat="41.6822660" lon="-8.8088400">
        <ele>12.5</ele>
        <time>2021-05-17T15:18:06Z</time>
      </trkpt>
      <trkpt lat="41.6822810" lon="-8.8088620">
        <ele>12.5</ele>
        <time>2021-05-17T15:18:07Z</time>
      </trkpt>
      <trkpt lat="41.6822880" lon="-8.8088710">
        <ele>12.4</ele>
        <time>2021-05-17T15:18:08Z</time>
      </trkpt>
      <trkpt lat="41.6822940" lon="-8.8088810">
        <ele>12.4</ele>
        <time>2021-05-17T15:18:09Z</time>
      </trkpt>
      <trkpt lat="41.6823100" lon="-8.8088930">
        <ele>12.4</ele>
        <time>2021-05-17T15:18:10Z</time>
      </trkpt>
      <trkpt lat="41.6823190" lon="-8.8088960">
        <ele>12.4</ele>
        <time>2021-05-17T15:18:11Z</time>
      </trkpt>
      <trkpt lat="41.6823320" lon="-8.8089090">
        <ele>12.4</ele>
        <time>2021-05-17T15:18:12Z</time>
      </trkpt>
      <trkpt lat="41.6823380" lon="-8.8089260">
        <ele>12.4</ele>
        <time>2021-05-17T15:18:13Z</time>
      </trkpt>
      <trkpt lat="41.6823510" lon="-8.8089410">
        <ele>12.4</ele>
        <time>2021-05-17T15:18:14Z</time>
      </trkpt>
      <trkpt lat="41.6823530" lon="-8.8089480">
        <ele>12.3</ele>
        <time>2021-05-17T15:18:15Z</time>
      </trkpt>
      <trkpt lat="41.6823600" lon="-8.8089540">
        <ele>12.3</ele>
        <time>2021-05-17T15:18:16Z</time>
      </trkpt>
      <trkpt lat="41.6823780" lon="-8.8089730">
        <ele>12.3</ele>
        <time>2021-05-17T15:18:17Z</time>
      </trkpt>
      <trkpt lat="41.6823840" lon="-8.8089820">
        <ele>12.3</ele>
        <time>2021-05-17T15:18:18Z</time>
      </trkpt>
      <trkpt lat="41.6823910" lon="-8.8089900">
        <ele>12.3</ele>
        <time>2021-05-17T15:18:19Z</time>
      </trkpt>
      <trkpt lat="41.6823950" lon="-8.8090080">
        <ele>12.3</ele>
        <time>2021-05-17T15:18:20Z</time>
      </trkpt>
      <trkpt lat="41.6824080" lon="-8.8090240">
        <ele>12.3</ele>
        <time>2021-05-17T15:18:21Z</time>
      </trkpt>
      <trkpt lat="41.6824220" lon="-8.8090300">
        <ele>12.3</ele>
        <time>2021-05-17T15:18:22Z</time>
      </trkpt>
      <trkpt lat="41.6824340" lon="-8.8090380">
        <ele>12.2</ele>
        <time>2021-05-17T15:18:23Z</time>
      </trkpt>
      <trkpt lat="41.6824430" lon="-8.8090530">
        <ele>12.2</ele>
        <time>2021-05-17T15:18:24Z</time>
      </trkpt>
      <trkpt lat="41.6824560" lon="-8.8090620">
        <ele>12.2</ele>
        <time>2021-05-17T15:18:25Z</time>
      </trkpt>
      <trkpt lat="41.6824710" lon="-8.8090790">
        <ele>12.2</ele>
        <time>2021-05-17T15:18:26Z</time>
      </trkpt>
      <trkpt lat="41.6824790" lon="-8.8090890">
        <ele>12.2</ele>
        <time>2021-05-17T15:18:27Z</time>
      </trkpt>
      <trkpt lat="41.6824920" lon="-8.8091130">
        <ele>12.1</ele>
        <time>2021-05-17T15:18:28Z</time>
      </trkpt>
      <trkpt lat="41.6824970" lon="-8.8091210">
        <ele>12.1</ele>
        <time>2021-05-17T15:18:29Z</time>
      </trkpt>
      <trkpt lat="41.6825020" lon="-8.8091300">
        <ele>12.1</ele>
        <time>2021-05-17T15:18:30Z</time>
      </trkpt>
      <trkpt lat="41.6825170" lon="-8.8091510">
        <ele>12.1</ele>
        <time>2021-05-17T15:18:31Z</time>
      </trkpt>
      <trkpt lat="41.6825240" lon="-8.8091600">
        <ele>12.0</ele>
        <time>2021-05-17T15:18:32Z</time>
      </trkpt>
      <trkpt lat="41.6825310" lon="-8.8091680">
        <ele>12.0</ele>
        <time>2021-05-17T15:18:33Z</time>
      </trkpt>
      <trkpt lat="41.6825430" lon="-8.8091780">
        <ele>12.0</ele>
        <time>2021-05-17T15:18:34Z</time>
      </trkpt>
      <trkpt lat="41.6825550" lon="-8.8091840">
        <ele>12.0</ele>
        <time>2021-05-17T15:18:35Z</time>
      </trkpt>
      <trkpt lat="41.6825570" lon="-8.8091960">
        <ele>12.0</ele>
        <time>2021-05-17T15:18:36Z</time>
      </trkpt>
      <trkpt lat="41.6825660" lon="-8.8092080">
        <ele>11.9</ele>
        <time>2021-05-17T15:18:37Z</time>
      </trkpt>
      <trkpt lat="41.6825840" lon="-8.8092200">
        <ele>11.9</ele>
        <time>2021-05-17T15:18:38Z</time>
      </trkpt>
      <trkpt lat="41.6825970" lon="-8.8092340">
        <ele>11.9</ele>
        <time>2021-05-17T15:18:39Z</time>
      </trkpt>
      <trkpt lat="41.6826020" lon="-8.8092550">
        <ele>11.9</ele>
        <time>2021-05-17T15:18:40Z</time>
      </trkpt>
      <trkpt lat="41.6826210" lon="-8.8092710">
        <ele>11.8</ele>
        <time>2021-05-17T15:18:41Z</time>
      </trkpt>
      <trkpt lat="41.6826290" lon="-8.8092790">
        <ele>11.8</ele>
        <time>2021-05-17T15:18:42Z</time>
      </trkpt>
      <trkpt lat="41.6826360" lon="-8.8092880">
        <ele>11.8</ele>
        <time>2021-05-17T15:18:43Z</time>
      </trkpt>
      <trkpt lat="41.6826450" lon="-8.8092990">
        <ele>11.8</ele>
        <time>2021-05-17T15:18:44Z</time>
      </trkpt>
      <trkpt lat="41.6826560" lon="-8.8093150">
        <ele>11.7</ele>
        <time>2021-05-17T15:18:45Z</time>
      </trkpt>
      <trkpt lat="41.6826690" lon="-8.8093260">
        <ele>11.7</ele>
        <time>2021-05-17T15:18:46Z</time>
      </trkpt>
      <trkpt lat="41.6826810" lon="-8.8093360">
        <ele>11.7</ele>
        <time>2021-05-17T15:18:47Z</time>
      </trkpt>
      <trkpt lat="41.6826880" lon="-8.8093480">
        <ele>11.7</ele>
        <time>2021-05-17T15:18:48Z</time>
      </trkpt>
      <trkpt lat="41.6827010" lon="-8.8093630">
        <ele>11.6</ele>
        <time>2021-05-17T15:18:49Z</time>
      </trkpt>
      <trkpt lat="41.6827090" lon="-8.8093700">
        <ele>11.6</ele>
        <time>2021-05-17T15:18:50Z</time>
      </trkpt>
      <trkpt lat="41.6827180" lon="-8.8093800">
        <ele>11.6</ele>
        <time>2021-05-17T15:18:51Z</time>
      </trkpt>
      <trkpt lat="41.6827280" lon="-8.8093910">
        <ele>11.6</ele>
        <time>2021-05-17T15:18:52Z</time>
      </trkpt>
      <trkpt lat="41.6827350" lon="-8.8094040">
        <ele>11.6</ele>
        <time>2021-05-17T15:18:53Z</time>
      </trkpt>
      <trkpt lat="41.6827460" lon="-8.8094110">
        <ele>11.5</ele>
        <time>2021-05-17T15:18:54Z</time>
      </trkpt>
      <trkpt lat="41.6827530" lon="-8.8094240">
        <ele>11.5</ele>
        <time>2021-05-17T15:18:55Z</time>
      </trkpt>
      <trkpt lat="41.6827660" lon="-8.8094370">
        <ele>11.5</ele>
        <time>2021-05-17T15:18:56Z</time>
      </trkpt>
      <trkpt lat="41.6827720" lon="-8.8094480">
        <ele>11.5</ele>
        <time>2021-05-17T15:18:57Z</time>
      </trkpt>
      <trkpt lat="41.6827800" lon="-8.8094550">
        <ele>11.5</ele>
        <time>2021-05-17T15:18:58Z</time>
      </trkpt>
      <trkpt lat="41.6827940" lon="-8.8094720">
        <ele>11.4</ele>
        <time>2021-05-17T15:18:59Z</time>
      </trkpt>
      <trkpt lat="41.6828020" lon="-8.8094920">
        <ele>11.4</ele>
        <time>2021-05-17T15:19:00Z</time>
      </trkpt>
      <trkpt lat="41.6828100" lon="-8.8094980">
        <ele>11.4</ele>
        <time>2021-05-17T15:19:01Z</time>
      </trkpt>
      <trkpt lat="41.6828220" lon="-8.8095070">
        <ele>11.4</ele>
        <time>2021-05-17T15:19:02Z</time>
      </trkpt>
      <trkpt lat="41.6828320" lon="-8.8095190">
        <ele>11.4</ele>
        <time>2021-05-17T15:19:03Z</time>
      </trkpt>
      <trkpt lat="41.6828470" lon="-8.8095320">
        <ele>11.3</ele>
        <time>2021-05-17T15:19:04Z</time>
      </trkpt>
      <trkpt lat="41.6828550" lon="-8.8095410">
        <ele>11.3</ele>
        <time>2021-05-17T15:19:05Z</time>
      </trkpt>
      <trkpt lat="41.6828620" lon="-8.8095510">
        <ele>11.3</ele>
        <time>2021-05-17T15:19:06Z</time>
      </trkpt>
      <trkpt lat="41.6828770" lon="-8.8095680">
        <ele>11.3</ele>
        <time>2021-05-17T15:19:07Z</time>
      </trkpt>
      <trkpt lat="41.6828840" lon="-8.8095760">
        <ele>11.3</ele>
        <time>2021-05-17T15:19:08Z</time>
      </trkpt>
      <trkpt lat="41.6828910" lon="-8.8095830">
        <ele>11.2</ele>
        <time>2021-05-17T15:19:09Z</time>
      </trkpt>
      <trkpt lat="41.6829060" lon="-8.8095960">
        <ele>11.2</ele>
        <time>2021-05-17T15:19:10Z</time>
      </trkpt>
      <trkpt lat="41.6829130" lon="-8.8096050">
        <ele>11.2</ele>
        <time>2021-05-17T15:19:11Z</time>
      </trkpt>
      <trkpt lat="41.6829210" lon="-8.8096130">
        <ele>11.2</ele>
        <time>2021-05-17T15:19:12Z</time>
      </trkpt>
      <trkpt lat="41.6829340" lon="-8.8096370">
        <ele>11.1</ele>
        <time>2021-05-17T15:19:13Z</time>
      </trkpt>
      <trkpt lat="41.6829400" lon="-8.8096440">
        <ele>11.1</ele>
        <time>2021-05-17T15:19:14Z</time>
      </trkpt>
      <trkpt lat="41.6829470" lon="-8.8096520">
        <ele>11.1</ele>
        <time>2021-05-17T15:19:15Z</time>
      </trkpt>
      <trkpt lat="41.6829640" lon="-8.8096710">
        <ele>11.1</ele>
        <time>2021-05-17T15:19:16Z</time>
      </trkpt>
      <trkpt lat="41.6829700" lon="-8.8096780">
        <ele>11.1</ele>
        <time>2021-05-17T15:19:17Z</time>
      </trkpt>
      <trkpt lat="41.6829760" lon="-8.8096860">
        <ele>11.1</ele>
        <time>2021-05-17T15:19:18Z</time>
      </trkpt>
      <trkpt lat="41.6829870" lon="-8.8096990">
        <ele>11.1</ele>
        <time>2021-05-17T15:19:19Z</time>
      </trkpt>
      <trkpt lat="41.6830030" lon="-8.8097100">
        <ele>11.0</ele>
        <time>2021-05-17T15:19:20Z</time>
      </trkpt>
      <trkpt lat="41.6830140" lon="-8.8097230">
        <ele>11.0</ele>
        <time>2021-05-17T15:19:21Z</time>
      </trkpt>
      <trkpt lat="41.6830300" lon="-8.8097310">
        <ele>11.0</ele>
        <time>2021-05-17T15:19:22Z</time>
      </trkpt>
      <trkpt lat="41.6830370" lon="-8.8097380">
        <ele>11.0</ele>
        <time>2021-05-17T15:19:23Z</time>
      </trkpt>
      <trkpt lat="41.6830460" lon="-8.8097480">
        <ele>11.0</ele>
        <time>2021-05-17T15:19:24Z</time>
      </trkpt>
      <trkpt lat="41.6830550" lon="-8.8097570">
        <ele>10.9</ele>
        <time>2021-05-17T15:19:25Z</time>
      </trkpt>
      <trkpt lat="41.6830670" lon="-8.8097810">
        <ele>10.9</ele>
        <time>2021-05-17T15:19:26Z</time>
      </trkpt>
      <trkpt lat="41.6830730" lon="-8.8097900">
        <ele>10.9</ele>
        <time>2021-05-17T15:19:27Z</time>
      </trkpt>
      <trkpt lat="41.6830800" lon="-8.8097990">
        <ele>10.9</ele>
        <time>2021-05-17T15:19:28Z</time>
      </trkpt>
      <trkpt lat="41.6830920" lon="-8.8098100">
        <ele>10.9</ele>
        <time>2021-05-17T15:19:29Z</time>
      </trkpt>
      <trkpt lat="41.6830960" lon="-8.8098150">
        <ele>10.9</ele>
        <time>2021-05-17T15:19:30Z</time>
      </trkpt>
      <trkpt lat="41.6831060" lon="-8.8098310">
        <ele>10.9</ele>
        <time>2021-05-17T15:19:31Z</time>
      </trkpt>
      <trkpt lat="41.6831130" lon="-8.8098390">
        <ele>10.8</ele>
        <time>2021-05-17T15:19:32Z</time>
      </trkpt>
      <trkpt lat="41.6831200" lon="-8.8098510">
        <ele>10.8</ele>
        <time>2021-05-17T15:19:33Z</time>
      </trkpt>
      <trkpt lat="41.6831270" lon="-8.8098670">
        <ele>10.8</ele>
        <time>2021-05-17T15:19:34Z</time>
      </trkpt>
      <trkpt lat="41.6831410" lon="-8.8098850">
        <ele>10.8</ele>
        <time>2021-05-17T15:19:35Z</time>
      </trkpt>
      <trkpt lat="41.6831470" lon="-8.8098940">
        <ele>10.8</ele>
        <time>2021-05-17T15:19:36Z</time>
      </trkpt>
      <trkpt lat="41.6831540" lon="-8.8099020">
        <ele>10.8</ele>
        <time>2021-05-17T15:19:37Z</time>
      </trkpt>
      <trkpt lat="41.6831670" lon="-8.8099150">
        <ele>10.7</ele>
        <time>2021-05-17T15:19:38Z</time>
      </trkpt>
      <trkpt lat="41.6831760" lon="-8.8099270">
        <ele>10.7</ele>
        <time>2021-05-17T15:19:39Z</time>
      </trkpt>
      <trkpt lat="41.6831940" lon="-8.8099400">
        <ele>10.7</ele>
        <time>2021-05-17T15:19:40Z</time>
      </trkpt>
      <trkpt lat="41.6832010" lon="-8.8099520">
        <ele>10.7</ele>
        <time>2021-05-17T15:19:41Z</time>
      </trkpt>
      <trkpt lat="41.6832170" lon="-8.8099710">
        <ele>10.7</ele>
        <time>2021-05-17T15:19:42Z</time>
      </trkpt>
      <trkpt lat="41.6832250" lon="-8.8099760">
        <ele>10.6</ele>
        <time>2021-05-17T15:19:43Z</time>
      </trkpt>
      <trkpt lat="41.6832320" lon="-8.8099820">
        <ele>10.6</ele>
        <time>2021-05-17T15:19:44Z</time>
      </trkpt>
      <trkpt lat="41.6832380" lon="-8.8099950">
        <ele>10.6</ele>
        <time>2021-05-17T15:19:45Z</time>
      </trkpt>
      <trkpt lat="41.6832480" lon="-8.8100080">
        <ele>10.6</ele>
        <time>2021-05-17T15:19:46Z</time>
      </trkpt>
      <trkpt lat="41.6832570" lon="-8.8100160">
        <ele>10.6</ele>
        <time>2021-05-17T15:19:47Z</time>
      </trkpt>
      <trkpt lat="41.6832750" lon="-8.8100370">
        <ele>10.6</ele>
        <time>2021-05-17T15:19:48Z</time>
      </trkpt>
      <trkpt lat="41.6832810" lon="-8.8100450">
        <ele>10.5</ele>
        <time>2021-05-17T15:19:49Z</time>
      </trkpt>
      <trkpt lat="41.6832870" lon="-8.8100530">
        <ele>10.5</ele>
        <time>2021-05-17T15:19:50Z</time>
      </trkpt>
      <trkpt lat="41.6832990" lon="-8.8100750">
        <ele>10.5</ele>
        <time>2021-05-17T15:19:51Z</time>
      </trkpt>
      <trkpt lat="41.6833060" lon="-8.8100830">
        <ele>10.5</ele>
        <time>2021-05-17T15:19:52Z</time>
      </trkpt>
      <trkpt lat="41.6833130" lon="-8.8100920">
        <ele>10.5</ele>
        <time>2021-05-17T15:19:53Z</time>
      </trkpt>
      <trkpt lat="41.6833340" lon="-8.8101070">
        <ele>10.5</ele>
        <time>2021-05-17T15:19:54Z</time>
      </trkpt>
      <trkpt lat="41.6833420" lon="-8.8101160">
        <ele>10.4</ele>
        <time>2021-05-17T15:19:55Z</time>
      </trkpt>
      <trkpt lat="41.6833510" lon="-8.8101250">
        <ele>10.4</ele>
        <time>2021-05-17T15:19:56Z</time>
      </trkpt>
      <trkpt lat="41.6833540" lon="-8.8101330">
        <ele>10.4</ele>
        <time>2021-05-17T15:19:57Z</time>
      </trkpt>
      <trkpt lat="41.6833670" lon="-8.8101450">
        <ele>10.4</ele>
        <time>2021-05-17T15:19:58Z</time>
      </trkpt>
      <trkpt lat="41.6833750" lon="-8.8101550">
        <ele>10.4</ele>
        <time>2021-05-17T15:19:59Z</time>
      </trkpt>
      <trkpt lat="41.6833840" lon="-8.8101690">
        <ele>10.4</ele>
        <time>2021-05-17T15:20:00Z</time>
      </trkpt>
      <trkpt lat="41.6833970" lon="-8.8101760">
        <ele>10.4</ele>
        <time>2021-05-17T15:20:01Z</time>
      </trkpt>
      <trkpt lat="41.6834060" lon="-8.8101890">
        <ele>10.3</ele>
        <time>2021-05-17T15:20:02Z</time>
      </trkpt>
      <trkpt lat="41.6834140" lon="-8.8101960">
        <ele>10.3</ele>
        <time>2021-05-17T15:20:03Z</time>
      </trkpt>
      <trkpt lat="41.6834220" lon="-8.8102100">
        <ele>10.3</ele>
        <time>2021-05-17T15:20:04Z</time>
      </trkpt>
      <trkpt lat="41.6834390" lon="-8.8102170">
        <ele>10.3</ele>
        <time>2021-05-17T15:20:05Z</time>
      </trkpt>
      <trkpt lat="41.6834480" lon="-8.8102300">
        <ele>10.3</ele>
        <time>2021-05-17T15:20:06Z</time>
      </trkpt>
      <trkpt lat="41.6834610" lon="-8.8102370">
        <ele>10.3</ele>
        <time>2021-05-17T15:20:07Z</time>
      </trkpt>
      <trkpt lat="41.6834710" lon="-8.8102520">
        <ele>10.2</ele>
        <time>2021-05-17T15:20:08Z</time>
      </trkpt>
      <trkpt lat="41.6834810" lon="-8.8102610">
        <ele>10.2</ele>
        <time>2021-05-17T15:20:09Z</time>
      </trkpt>
      <trkpt lat="41.6834880" lon="-8.8102660">
        <ele>10.2</ele>
        <time>2021-05-17T15:20:10Z</time>
      </trkpt>
      <trkpt lat="41.6835010" lon="-8.8102780">
        <ele>10.2</ele>
        <time>2021-05-17T15:20:11Z</time>
      </trkpt>
      <trkpt lat="41.6835140" lon="-8.8102990">
        <ele>10.1</ele>
        <time>2021-05-17T15:20:12Z</time>
      </trkpt>
      <trkpt lat="41.6835210" lon="-8.8103050">
        <ele>10.1</ele>
        <time>2021-05-17T15:20:13Z</time>
      </trkpt>
      <trkpt lat="41.6835280" lon="-8.8103120">
        <ele>10.1</ele>
        <time>2021-05-17T15:20:14Z</time>
      </trkpt>
      <trkpt lat="41.6835350" lon="-8.8103220">
        <ele>10.1</ele>
        <time>2021-05-17T15:20:15Z</time>
      </trkpt>
      <trkpt lat="41.6835450" lon="-8.8103340">
        <ele>10.1</ele>
        <time>2021-05-17T15:20:16Z</time>
      </trkpt>
      <trkpt lat="41.6835500" lon="-8.8103470">
        <ele>10.1</ele>
        <time>2021-05-17T15:20:17Z</time>
      </trkpt>
      <trkpt lat="41.6835620" lon="-8.8103520">
        <ele>10.1</ele>
        <time>2021-05-17T15:20:18Z</time>
      </trkpt>
      <trkpt lat="41.6835790" lon="-8.8103670">
        <ele>10.0</ele>
        <time>2021-05-17T15:20:19Z</time>
      </trkpt>
      <trkpt lat="41.6835910" lon="-8.8103740">
        <ele>10.0</ele>
        <time>2021-05-17T15:20:20Z</time>
      </trkpt>
      <trkpt lat="41.6836030" lon="-8.8103870">
        <ele>10.0</ele>
        <time>2021-05-17T15:20:21Z</time>
      </trkpt>
      <trkpt lat="41.6836140" lon="-8.8103950">
        <ele>10.0</ele>
        <time>2021-05-17T15:20:22Z</time>
      </trkpt>
      <trkpt lat="41.6836180" lon="-8.8104030">
        <ele>10.0</ele>
        <time>2021-05-17T15:20:23Z</time>
      </trkpt>
      <trkpt lat="41.6836240" lon="-8.8104200">
        <ele>10.0</ele>
        <time>2021-05-17T15:20:24Z</time>
      </trkpt>
      <trkpt lat="41.6836380" lon="-8.8104380">
        <ele>9.9</ele>
        <time>2021-05-17T15:20:25Z</time>
      </trkpt>
      <trkpt lat="41.6836430" lon="-8.8104490">
        <ele>9.9</ele>
        <time>2021-05-17T15:20:26Z</time>
      </trkpt>
      <trkpt lat="41.6836480" lon="-8.8104600">
        <ele>9.9</ele>
        <time>2021-05-17T15:20:27Z</time>
      </trkpt>
      <trkpt lat="41.6836570" lon="-8.8104710">
        <ele>9.9</ele>
        <time>2021-05-17T15:20:28Z</time>
      </trkpt>
      <trkpt lat="41.6836700" lon="-8.8104790">
        <ele>9.9</ele>
        <time>2021-05-17T15:20:29Z</time>
      </trkpt>
      <trkpt lat="41.6836720" lon="-8.8104890">
        <ele>9.9</ele>
        <time>2021-05-17T15:20:30Z</time>
      </trkpt>
      <trkpt lat="41.6836950" lon="-8.8105080">
        <ele>9.9</ele>
        <time>2021-05-17T15:20:31Z</time>
      </trkpt>
      <trkpt lat="41.6837040" lon="-8.8105150">
        <ele>9.9</ele>
        <time>2021-05-17T15:20:32Z</time>
      </trkpt>
      <trkpt lat="41.6837210" lon="-8.8105340">
        <ele>9.8</ele>
        <time>2021-05-17T15:20:33Z</time>
      </trkpt>
      <trkpt lat="41.6837270" lon="-8.8105420">
        <ele>9.8</ele>
        <time>2021-05-17T15:20:34Z</time>
      </trkpt>
      <trkpt lat="41.6837340" lon="-8.8105510">
        <ele>9.8</ele>
        <time>2021-05-17T15:20:35Z</time>
      </trkpt>
      <trkpt lat="41.6837470" lon="-8.8105610">
        <ele>9.8</ele>
        <time>2021-05-17T15:20:36Z</time>
      </trkpt>
      <trkpt lat="41.6837550" lon="-8.8105750">
        <ele>9.8</ele>
        <time>2021-05-17T15:20:37Z</time>
      </trkpt>
      <trkpt lat="41.6837640" lon="-8.8105930">
        <ele>9.8</ele>
        <time>2021-05-17T15:20:38Z</time>
      </trkpt>
      <trkpt lat="41.6837780" lon="-8.8106050">
        <ele>9.7</ele>
        <time>2021-05-17T15:20:39Z</time>
      </trkpt>
      <trkpt lat="41.6837930" lon="-8.8106240">
        <ele>9.7</ele>
        <time>2021-05-17T15:20:40Z</time>
      </trkpt>
      <trkpt lat="41.6838000" lon="-8.8106340">
        <ele>9.7</ele>
        <time>2021-05-17T15:20:41Z</time>
      </trkpt>
      <trkpt lat="41.6838060" lon="-8.8106430">
        <ele>9.7</ele>
        <time>2021-05-17T15:20:42Z</time>
      </trkpt>
      <trkpt lat="41.6838230" lon="-8.8106610">
        <ele>9.6</ele>
        <time>2021-05-17T15:20:43Z</time>
      </trkpt>
      <trkpt lat="41.6838300" lon="-8.8106700">
        <ele>9.6</ele>
        <time>2021-05-17T15:20:44Z</time>
      </trkpt>
      <trkpt lat="41.6838380" lon="-8.8106790">
        <ele>9.6</ele>
        <time>2021-05-17T15:20:45Z</time>
      </trkpt>
      <trkpt lat="41.6838540" lon="-8.8107020">
        <ele>9.6</ele>
        <time>2021-05-17T15:20:46Z</time>
      </trkpt>
      <trkpt lat="41.6838610" lon="-8.8107090">
        <ele>9.5</ele>
        <time>2021-05-17T15:20:47Z</time>
      </trkpt>
      <trkpt lat="41.6838670" lon="-8.8107170">
        <ele>9.5</ele>
        <time>2021-05-17T15:20:48Z</time>
      </trkpt>
      <trkpt lat="41.6838820" lon="-8.8107330">
        <ele>9.5</ele>
        <time>2021-05-17T15:20:49Z</time>
      </trkpt>
      <trkpt lat="41.6838890" lon="-8.8107410">
        <ele>9.5</ele>
        <time>2021-05-17T15:20:50Z</time>
      </trkpt>
      <trkpt lat="41.6838950" lon="-8.8107500">
        <ele>9.5</ele>
        <time>2021-05-17T15:20:51Z</time>
      </trkpt>
      <trkpt lat="41.6839040" lon="-8.8107590">
        <ele>9.4</ele>
        <time>2021-05-17T15:20:52Z</time>
      </trkpt>
      <trkpt lat="41.6839160" lon="-8.8107730">
        <ele>9.4</ele>
        <time>2021-05-17T15:20:53Z</time>
      </trkpt>
      <trkpt lat="41.6839160" lon="-8.8107830">
        <ele>9.4</ele>
        <time>2021-05-17T15:20:54Z</time>
      </trkpt>
      <trkpt lat="41.6839310" lon="-8.8107930">
        <ele>9.4</ele>
        <time>2021-05-17T15:20:55Z</time>
      </trkpt>
      <trkpt lat="41.6839390" lon="-8.8108010">
        <ele>9.4</ele>
        <time>2021-05-17T15:20:57Z</time>
      </trkpt>
      <trkpt lat="41.6839470" lon="-8.8108080">
        <ele>9.3</ele>
        <time>2021-05-17T15:20:58Z</time>
      </trkpt>
      <trkpt lat="41.6839610" lon="-8.8108120">
        <ele>9.3</ele>
        <time>2021-05-17T15:20:59Z</time>
      </trkpt>
      <trkpt lat="41.6839800" lon="-8.8108410">
        <ele>9.3</ele>
        <time>2021-05-17T15:21:00Z</time>
      </trkpt>
      <trkpt lat="41.6839920" lon="-8.8108440">
        <ele>9.2</ele>
        <time>2021-05-17T15:21:01Z</time>
      </trkpt>
      <trkpt lat="41.6840030" lon="-8.8108540">
        <ele>9.2</ele>
        <time>2021-05-17T15:21:02Z</time>
      </trkpt>
      <trkpt lat="41.6840140" lon="-8.8108660">
        <ele>9.2</ele>
        <time>2021-05-17T15:21:03Z</time>
      </trkpt>
      <trkpt lat="41.6840250" lon="-8.8108740">
        <ele>9.2</ele>
        <time>2021-05-17T15:21:04Z</time>
      </trkpt>
      <trkpt lat="41.6840270" lon="-8.8108830">
        <ele>9.2</ele>
        <time>2021-05-17T15:21:05Z</time>
      </trkpt>
      <trkpt lat="41.6840490" lon="-8.8108990">
        <ele>9.1</ele>
        <time>2021-05-17T15:21:06Z</time>
      </trkpt>
      <trkpt lat="41.6840580" lon="-8.8109060">
        <ele>9.1</ele>
        <time>2021-05-17T15:21:07Z</time>
      </trkpt>
      <trkpt lat="41.6840660" lon="-8.8109140">
        <ele>9.1</ele>
        <time>2021-05-17T15:21:08Z</time>
      </trkpt>
      <trkpt lat="41.6840740" lon="-8.8109180">
        <ele>9.1</ele>
        <time>2021-05-17T15:21:09Z</time>
      </trkpt>
      <trkpt lat="41.6840840" lon="-8.8109290">
        <ele>9.0</ele>
        <time>2021-05-17T15:21:10Z</time>
      </trkpt>
      <trkpt lat="41.6840930" lon="-8.8109360">
        <ele>9.0</ele>
        <time>2021-05-17T15:21:11Z</time>
      </trkpt>
      <trkpt lat="41.6841030" lon="-8.8109470">
        <ele>9.0</ele>
        <time>2021-05-17T15:21:12Z</time>
      </trkpt>
      <trkpt lat="41.6841110" lon="-8.8109580">
        <ele>9.0</ele>
        <time>2021-05-17T15:21:13Z</time>
      </trkpt>
      <trkpt lat="41.6841220" lon="-8.8109640">
        <ele>9.0</ele>
        <time>2021-05-17T15:21:14Z</time>
      </trkpt>
      <trkpt lat="41.6841280" lon="-8.8109750">
        <ele>8.9</ele>
        <time>2021-05-17T15:21:15Z</time>
      </trkpt>
      <trkpt lat="41.6841410" lon="-8.8109820">
        <ele>8.9</ele>
        <time>2021-05-17T15:21:16Z</time>
      </trkpt>
      <trkpt lat="41.6841450" lon="-8.8109880">
        <ele>8.9</ele>
        <time>2021-05-17T15:21:17Z</time>
      </trkpt>
      <trkpt lat="41.6841500" lon="-8.8109940">
        <ele>8.9</ele>
        <time>2021-05-17T15:21:18Z</time>
      </trkpt>
      <trkpt lat="41.6841620" lon="-8.8110110">
        <ele>8.9</ele>
        <time>2021-05-17T15:21:19Z</time>
      </trkpt>
      <trkpt lat="41.6841710" lon="-8.8110170">
        <ele>8.8</ele>
        <time>2021-05-17T15:21:20Z</time>
      </trkpt>
      <trkpt lat="41.6841800" lon="-8.8110260">
        <ele>8.8</ele>
        <time>2021-05-17T15:21:21Z</time>
      </trkpt>
      <trkpt lat="41.6841980" lon="-8.8110440">
        <ele>8.8</ele>
        <time>2021-05-17T15:21:22Z</time>
      </trkpt>
      <trkpt lat="41.6842180" lon="-8.8110580">
        <ele>8.7</ele>
        <time>2021-05-17T15:21:23Z</time>
      </trkpt>
      <trkpt lat="41.6842240" lon="-8.8110630">
        <ele>8.7</ele>
        <time>2021-05-17T15:21:24Z</time>
      </trkpt>
      <trkpt lat="41.6842310" lon="-8.8110680">
        <ele>8.7</ele>
        <time>2021-05-17T15:21:25Z</time>
      </trkpt>
      <trkpt lat="41.6842480" lon="-8.8110810">
        <ele>8.7</ele>
        <time>2021-05-17T15:21:26Z</time>
      </trkpt>
      <trkpt lat="41.6842610" lon="-8.8110900">
        <ele>8.6</ele>
        <time>2021-05-17T15:21:27Z</time>
      </trkpt>
      <trkpt lat="41.6842780" lon="-8.8111060">
        <ele>8.6</ele>
        <time>2021-05-17T15:21:28Z</time>
      </trkpt>
      <trkpt lat="41.6842850" lon="-8.8111150">
        <ele>8.6</ele>
        <time>2021-05-17T15:21:29Z</time>
      </trkpt>
      <trkpt lat="41.6842920" lon="-8.8111230">
        <ele>8.6</ele>
        <time>2021-05-17T15:21:30Z</time>
      </trkpt>
      <trkpt lat="41.6843150" lon="-8.8111370">
        <ele>8.5</ele>
        <time>2021-05-17T15:21:31Z</time>
      </trkpt>
      <trkpt lat="41.6843240" lon="-8.8111410">
        <ele>8.5</ele>
        <time>2021-05-17T15:21:32Z</time>
      </trkpt>
      <trkpt lat="41.6843320" lon="-8.8111440">
        <ele>8.5</ele>
        <time>2021-05-17T15:21:33Z</time>
      </trkpt>
      <trkpt lat="41.6843520" lon="-8.8111560">
        <ele>8.4</ele>
        <time>2021-05-17T15:21:34Z</time>
      </trkpt>
      <trkpt lat="41.6843580" lon="-8.8111640">
        <ele>8.4</ele>
        <time>2021-05-17T15:21:35Z</time>
      </trkpt>
      <trkpt lat="41.6843650" lon="-8.8111720">
        <ele>8.4</ele>
        <time>2021-05-17T15:21:36Z</time>
      </trkpt>
      <trkpt lat="41.6843750" lon="-8.8111830">
        <ele>8.4</ele>
        <time>2021-05-17T15:21:37Z</time>
      </trkpt>
      <trkpt lat="41.6843930" lon="-8.8111990">
        <ele>8.3</ele>
        <time>2021-05-17T15:21:38Z</time>
      </trkpt>
      <trkpt lat="41.6844050" lon="-8.8112120">
        <ele>8.3</ele>
        <time>2021-05-17T15:21:39Z</time>
      </trkpt>
      <trkpt lat="41.6844160" lon="-8.8112240">
        <ele>8.3</ele>
        <time>2021-05-17T15:21:40Z</time>
      </trkpt>
      <trkpt lat="41.6844250" lon="-8.8112280">
        <ele>8.3</ele>
        <time>2021-05-17T15:21:41Z</time>
      </trkpt>
      <trkpt lat="41.6844400" lon="-8.8112390">
        <ele>8.2</ele>
        <time>2021-05-17T15:21:42Z</time>
      </trkpt>
      <trkpt lat="41.6844660" lon="-8.8112640">
        <ele>8.2</ele>
        <time>2021-05-17T15:21:43Z</time>
      </trkpt>
      <trkpt lat="41.6844730" lon="-8.8112680">
        <ele>8.1</ele>
        <time>2021-05-17T15:21:44Z</time>
      </trkpt>
      <trkpt lat="41.6844890" lon="-8.8112850">
        <ele>8.1</ele>
        <time>2021-05-17T15:21:45Z</time>
      </trkpt>
      <trkpt lat="41.6844970" lon="-8.8112920">
        <ele>8.1</ele>
        <time>2021-05-17T15:21:46Z</time>
      </trkpt>
      <trkpt lat="41.6845040" lon="-8.8113000">
        <ele>8.1</ele>
        <time>2021-05-17T15:21:47Z</time>
      </trkpt>
      <trkpt lat="41.6845110" lon="-8.8113090">
        <ele>8.1</ele>
        <time>2021-05-17T15:21:48Z</time>
      </trkpt>
      <trkpt lat="41.6845090" lon="-8.8113160">
        <ele>8.0</ele>
        <time>2021-05-17T15:21:49Z</time>
      </trkpt>
      <trkpt lat="41.6845190" lon="-8.8113230">
        <ele>8.0</ele>
        <time>2021-05-17T15:21:50Z</time>
      </trkpt>
      <trkpt lat="41.6845240" lon="-8.8113290">
        <ele>8.0</ele>
        <time>2021-05-17T15:21:51Z</time>
      </trkpt>
      <trkpt lat="41.6845400" lon="-8.8113440">
        <ele>8.0</ele>
        <time>2021-05-17T15:21:52Z</time>
      </trkpt>
      <trkpt lat="41.6845510" lon="-8.8113520">
        <ele>8.0</ele>
        <time>2021-05-17T15:21:53Z</time>
      </trkpt>
      <trkpt lat="41.6845570" lon="-8.8113580">
        <ele>7.9</ele>
        <time>2021-05-17T15:21:54Z</time>
      </trkpt>
      <trkpt lat="41.6845700" lon="-8.8113720">
        <ele>7.9</ele>
        <time>2021-05-17T15:21:55Z</time>
      </trkpt>
      <trkpt lat="41.6845780" lon="-8.8113800">
        <ele>7.9</ele>
        <time>2021-05-17T15:21:56Z</time>
      </trkpt>
      <trkpt lat="41.6845890" lon="-8.8113920">
        <ele>7.9</ele>
        <time>2021-05-17T15:21:57Z</time>
      </trkpt>
      <trkpt lat="41.6846010" lon="-8.8114050">
        <ele>7.8</ele>
        <time>2021-05-17T15:21:58Z</time>
      </trkpt>
      <trkpt lat="41.6846140" lon="-8.8114160">
        <ele>7.8</ele>
        <time>2021-05-17T15:21:59Z</time>
      </trkpt>
      <trkpt lat="41.6846280" lon="-8.8114250">
        <ele>7.8</ele>
        <time>2021-05-17T15:22:00Z</time>
      </trkpt>
      <trkpt lat="41.6846410" lon="-8.8114350">
        <ele>7.8</ele>
        <time>2021-05-17T15:22:01Z</time>
      </trkpt>
      <trkpt lat="41.6846540" lon="-8.8114460">
        <ele>7.7</ele>
        <time>2021-05-17T15:22:02Z</time>
      </trkpt>
      <trkpt lat="41.6846650" lon="-8.8114570">
        <ele>7.7</ele>
        <time>2021-05-17T15:22:03Z</time>
      </trkpt>
      <trkpt lat="41.6846730" lon="-8.8114650">
        <ele>7.7</ele>
        <time>2021-05-17T15:22:04Z</time>
      </trkpt>
      <trkpt lat="41.6846820" lon="-8.8114750">
        <ele>7.7</ele>
        <time>2021-05-17T15:22:05Z</time>
      </trkpt>
      <trkpt lat="41.6846860" lon="-8.8114860">
        <ele>7.7</ele>
        <time>2021-05-17T15:22:06Z</time>
      </trkpt>
      <trkpt lat="41.6846960" lon="-8.8114900">
        <ele>7.6</ele>
        <time>2021-05-17T15:22:07Z</time>
      </trkpt>
      <trkpt lat="41.6847070" lon="-8.8114980">
        <ele>7.6</ele>
        <time>2021-05-17T15:22:08Z</time>
      </trkpt>
      <trkpt lat="41.6847180" lon="-8.8115060">
        <ele>7.6</ele>
        <time>2021-05-17T15:22:09Z</time>
      </trkpt>
      <trkpt lat="41.6847280" lon="-8.8115150">
        <ele>7.6</ele>
        <time>2021-05-17T15:22:10Z</time>
      </trkpt>
      <trkpt lat="41.6847390" lon="-8.8115210">
        <ele>7.6</ele>
        <time>2021-05-17T15:22:11Z</time>
      </trkpt>
      <trkpt lat="41.6847630" lon="-8.8115390">
        <ele>7.5</ele>
        <time>2021-05-17T15:22:12Z</time>
      </trkpt>
      <trkpt lat="41.6847740" lon="-8.8115480">
        <ele>7.5</ele>
        <time>2021-05-17T15:22:13Z</time>
      </trkpt>
      <trkpt lat="41.6847920" lon="-8.8115660">
        <ele>7.5</ele>
        <time>2021-05-17T15:22:14Z</time>
      </trkpt>
      <trkpt lat="41.6848000" lon="-8.8115710">
        <ele>7.4</ele>
        <time>2021-05-17T15:22:15Z</time>
      </trkpt>
      <trkpt lat="41.6848070" lon="-8.8115760">
        <ele>7.4</ele>
        <time>2021-05-17T15:22:16Z</time>
      </trkpt>
      <trkpt lat="41.6848160" lon="-8.8115910">
        <ele>7.4</ele>
        <time>2021-05-17T15:22:17Z</time>
      </trkpt>
      <trkpt lat="41.6848280" lon="-8.8116010">
        <ele>7.4</ele>
        <time>2021-05-17T15:22:18Z</time>
      </trkpt>
      <trkpt lat="41.6848420" lon="-8.8116110">
        <ele>7.4</ele>
        <time>2021-05-17T15:22:19Z</time>
      </trkpt>
      <trkpt lat="41.6848530" lon="-8.8116230">
        <ele>7.3</ele>
        <time>2021-05-17T15:22:20Z</time>
      </trkpt>
      <trkpt lat="41.6848620" lon="-8.8116320">
        <ele>7.3</ele>
        <time>2021-05-17T15:22:21Z</time>
      </trkpt>
      <trkpt lat="41.6848690" lon="-8.8116410">
        <ele>7.3</ele>
        <time>2021-05-17T15:22:22Z</time>
      </trkpt>
      <trkpt lat="41.6848810" lon="-8.8116520">
        <ele>7.3</ele>
        <time>2021-05-17T15:22:23Z</time>
      </trkpt>
      <trkpt lat="41.6848950" lon="-8.8116600">
        <ele>7.2</ele>
        <time>2021-05-17T15:22:24Z</time>
      </trkpt>
      <trkpt lat="41.6849050" lon="-8.8116720">
        <ele>7.2</ele>
        <time>2021-05-17T15:22:25Z</time>
      </trkpt>
      <trkpt lat="41.6849180" lon="-8.8116790">
        <ele>7.2</ele>
        <time>2021-05-17T15:22:26Z</time>
      </trkpt>
      <trkpt lat="41.6849290" lon="-8.8116880">
        <ele>7.2</ele>
        <time>2021-05-17T15:22:27Z</time>
      </trkpt>
      <trkpt lat="41.6849430" lon="-8.8116980">
        <ele>7.2</ele>
        <time>2021-05-17T15:22:28Z</time>
      </trkpt>
      <trkpt lat="41.6849550" lon="-8.8117080">
        <ele>7.1</ele>
        <time>2021-05-17T15:22:29Z</time>
      </trkpt>
      <trkpt lat="41.6849710" lon="-8.8117230">
        <ele>7.1</ele>
        <time>2021-05-17T15:22:30Z</time>
      </trkpt>
      <trkpt lat="41.6849790" lon="-8.8117330">
        <ele>7.1</ele>
        <time>2021-05-17T15:22:31Z</time>
      </trkpt>
      <trkpt lat="41.6849870" lon="-8.8117420">
        <ele>7.1</ele>
        <time>2021-05-17T15:22:32Z</time>
      </trkpt>
      <trkpt lat="41.6850030" lon="-8.8117560">
        <ele>7.0</ele>
        <time>2021-05-17T15:22:33Z</time>
      </trkpt>
      <trkpt lat="41.6850090" lon="-8.8117600">
        <ele>7.0</ele>
        <time>2021-05-17T15:22:34Z</time>
      </trkpt>
      <trkpt lat="41.6850160" lon="-8.8117650">
        <ele>7.0</ele>
        <time>2021-05-17T15:22:35Z</time>
      </trkpt>
      <trkpt lat="41.6850220" lon="-8.8117700">
        <ele>7.0</ele>
        <time>2021-05-17T15:22:36Z</time>
      </trkpt>
      <trkpt lat="41.6850320" lon="-8.8117780">
        <ele>7.0</ele>
        <time>2021-05-17T15:22:37Z</time>
      </trkpt>
      <trkpt lat="41.6850410" lon="-8.8117910">
        <ele>7.0</ele>
        <time>2021-05-17T15:22:38Z</time>
      </trkpt>
      <trkpt lat="41.6850470" lon="-8.8118010">
        <ele>7.0</ele>
        <time>2021-05-17T15:22:39Z</time>
      </trkpt>
      <trkpt lat="41.6850590" lon="-8.8118100">
        <ele>6.9</ele>
        <time>2021-05-17T15:22:40Z</time>
      </trkpt>
      <trkpt lat="41.6850710" lon="-8.8118210">
        <ele>6.9</ele>
        <time>2021-05-17T15:22:41Z</time>
      </trkpt>
      <trkpt lat="41.6850920" lon="-8.8118330">
        <ele>6.9</ele>
        <time>2021-05-17T15:22:42Z</time>
      </trkpt>
      <trkpt lat="41.6851000" lon="-8.8118410">
        <ele>6.9</ele>
        <time>2021-05-17T15:22:43Z</time>
      </trkpt>
      <trkpt lat="41.6851080" lon="-8.8118480">
        <ele>6.9</ele>
        <time>2021-05-17T15:22:44Z</time>
      </trkpt>
      <trkpt lat="41.6851190" lon="-8.8118590">
        <ele>6.8</ele>
        <time>2021-05-17T15:22:45Z</time>
      </trkpt>
      <trkpt lat="41.6851300" lon="-8.8118660">
        <ele>6.8</ele>
        <time>2021-05-17T15:22:46Z</time>
      </trkpt>
      <trkpt lat="41.6851380" lon="-8.8118670">
        <ele>6.8</ele>
        <time>2021-05-17T15:22:47Z</time>
      </trkpt>
      <trkpt lat="41.6851490" lon="-8.8118800">
        <ele>6.8</ele>
        <time>2021-05-17T15:22:48Z</time>
      </trkpt>
      <trkpt lat="41.6851590" lon="-8.8118930">
        <ele>6.8</ele>
        <time>2021-05-17T15:22:49Z</time>
      </trkpt>
      <trkpt lat="41.6851660" lon="-8.8119040">
        <ele>6.8</ele>
        <time>2021-05-17T15:22:50Z</time>
      </trkpt>
      <trkpt lat="41.6851720" lon="-8.8119140">
        <ele>6.8</ele>
        <time>2021-05-17T15:22:51Z</time>
      </trkpt>
      <trkpt lat="41.6851750" lon="-8.8119290">
        <ele>6.7</ele>
        <time>2021-05-17T15:22:52Z</time>
      </trkpt>
      <trkpt lat="41.6851830" lon="-8.8119290">
        <ele>6.7</ele>
        <time>2021-05-17T15:22:53Z</time>
      </trkpt>
      <trkpt lat="41.6851910" lon="-8.8119310">
        <ele>6.7</ele>
        <time>2021-05-17T15:22:55Z</time>
      </trkpt>
      <trkpt lat="41.6852040" lon="-8.8119450">
        <ele>6.7</ele>
        <time>2021-05-17T15:22:56Z</time>
      </trkpt>
      <trkpt lat="41.6852130" lon="-8.8119540">
        <ele>6.7</ele>
        <time>2021-05-17T15:22:57Z</time>
      </trkpt>
      <trkpt lat="41.6852210" lon="-8.8119630">
        <ele>6.7</ele>
        <time>2021-05-17T15:22:58Z</time>
      </trkpt>
      <trkpt lat="41.6852320" lon="-8.8119710">
        <ele>6.7</ele>
        <time>2021-05-17T15:22:59Z</time>
      </trkpt>
      <trkpt lat="41.6852480" lon="-8.8119850">
        <ele>6.6</ele>
        <time>2021-05-17T15:23:00Z</time>
      </trkpt>
      <trkpt lat="41.6852590" lon="-8.8119960">
        <ele>6.6</ele>
        <time>2021-05-17T15:23:01Z</time>
      </trkpt>
      <trkpt lat="41.6852720" lon="-8.8120060">
        <ele>6.6</ele>
        <time>2021-05-17T15:23:02Z</time>
      </trkpt>
      <trkpt lat="41.6852840" lon="-8.8120160">
        <ele>6.6</ele>
        <time>2021-05-17T15:23:03Z</time>
      </trkpt>
      <trkpt lat="41.6852930" lon="-8.8120230">
        <ele>6.6</ele>
        <time>2021-05-17T15:23:04Z</time>
      </trkpt>
      <trkpt lat="41.6853050" lon="-8.8120330">
        <ele>6.5</ele>
        <time>2021-05-17T15:23:05Z</time>
      </trkpt>
      <trkpt lat="41.6853270" lon="-8.8120530">
        <ele>6.5</ele>
        <time>2021-05-17T15:23:06Z</time>
      </trkpt>
      <trkpt lat="41.6853400" lon="-8.8120600">
        <ele>6.5</ele>
        <time>2021-05-17T15:23:07Z</time>
      </trkpt>
      <trkpt lat="41.6853520" lon="-8.8120660">
        <ele>6.5</ele>
        <time>2021-05-17T15:23:08Z</time>
      </trkpt>
      <trkpt lat="41.6853610" lon="-8.8120760">
        <ele>6.4</ele>
        <time>2021-05-17T15:23:09Z</time>
      </trkpt>
      <trkpt lat="41.6853680" lon="-8.8120850">
        <ele>6.4</ele>
        <time>2021-05-17T15:23:10Z</time>
      </trkpt>
      <trkpt lat="41.6853810" lon="-8.8120940">
        <ele>6.4</ele>
        <time>2021-05-17T15:23:11Z</time>
      </trkpt>
      <trkpt lat="41.6853960" lon="-8.8121050">
        <ele>6.4</ele>
        <time>2021-05-17T15:23:12Z</time>
      </trkpt>
      <trkpt lat="41.6854150" lon="-8.8121190">
        <ele>6.4</ele>
        <time>2021-05-17T15:23:13Z</time>
      </trkpt>
      <trkpt lat="41.6854210" lon="-8.8121250">
        <ele>6.3</ele>
        <time>2021-05-17T15:23:14Z</time>
      </trkpt>
      <trkpt lat="41.6854280" lon="-8.8121310">
        <ele>6.3</ele>
        <time>2021-05-17T15:23:15Z</time>
      </trkpt>
      <trkpt lat="41.6854400" lon="-8.8121460">
        <ele>6.3</ele>
        <time>2021-05-17T15:23:16Z</time>
      </trkpt>
      <trkpt lat="41.6854490" lon="-8.8121550">
        <ele>6.3</ele>
        <time>2021-05-17T15:23:17Z</time>
      </trkpt>
      <trkpt lat="41.6854670" lon="-8.8121680">
        <ele>6.3</ele>
        <time>2021-05-17T15:23:18Z</time>
      </trkpt>
      <trkpt lat="41.6854750" lon="-8.8121740">
        <ele>6.3</ele>
        <time>2021-05-17T15:23:19Z</time>
      </trkpt>
      <trkpt lat="41.6854830" lon="-8.8121790">
        <ele>6.3</ele>
        <time>2021-05-17T15:23:20Z</time>
      </trkpt>
      <trkpt lat="41.6854960" lon="-8.8121880">
        <ele>6.2</ele>
        <time>2021-05-17T15:23:21Z</time>
      </trkpt>
      <trkpt lat="41.6855060" lon="-8.8122000">
        <ele>6.2</ele>
        <time>2021-05-17T15:23:22Z</time>
      </trkpt>
      <trkpt lat="41.6855150" lon="-8.8122060">
        <ele>6.2</ele>
        <time>2021-05-17T15:23:23Z</time>
      </trkpt>
      <trkpt lat="41.6855310" lon="-8.8122160">
        <ele>6.2</ele>
        <time>2021-05-17T15:23:24Z</time>
      </trkpt>
      <trkpt lat="41.6855480" lon="-8.8122330">
        <ele>6.2</ele>
        <time>2021-05-17T15:23:25Z</time>
      </trkpt>
      <trkpt lat="41.6855550" lon="-8.8122400">
        <ele>6.1</ele>
        <time>2021-05-17T15:23:26Z</time>
      </trkpt>
      <trkpt lat="41.6855610" lon="-8.8122470">
        <ele>6.1</ele>
        <time>2021-05-17T15:23:27Z</time>
      </trkpt>
      <trkpt lat="41.6855720" lon="-8.8122540">
        <ele>6.1</ele>
        <time>2021-05-17T15:23:28Z</time>
      </trkpt>
      <trkpt lat="41.6855790" lon="-8.8122610">
        <ele>6.1</ele>
        <time>2021-05-17T15:23:29Z</time>
      </trkpt>
      <trkpt lat="41.6855880" lon="-8.8122700">
        <ele>6.1</ele>
        <time>2021-05-17T15:23:30Z</time>
      </trkpt>
      <trkpt lat="41.6856000" lon="-8.8122810">
        <ele>6.1</ele>
        <time>2021-05-17T15:23:31Z</time>
      </trkpt>
      <trkpt lat="41.6856130" lon="-8.8122900">
        <ele>6.1</ele>
        <time>2021-05-17T15:23:32Z</time>
      </trkpt>
      <trkpt lat="41.6856240" lon="-8.8122970">
        <ele>6.0</ele>
        <time>2021-05-17T15:23:33Z</time>
      </trkpt>
      <trkpt lat="41.6856270" lon="-8.8123120">
        <ele>6.0</ele>
        <time>2021-05-17T15:23:34Z</time>
      </trkpt>
      <trkpt lat="41.6856360" lon="-8.8123180">
        <ele>6.0</ele>
        <time>2021-05-17T15:23:35Z</time>
      </trkpt>
      <trkpt lat="41.6856510" lon="-8.8123350">
        <ele>6.0</ele>
        <time>2021-05-17T15:23:36Z</time>
      </trkpt>
      <trkpt lat="41.6856560" lon="-8.8123440">
        <ele>6.0</ele>
        <time>2021-05-17T15:23:37Z</time>
      </trkpt>
      <trkpt lat="41.6856620" lon="-8.8123520">
        <ele>6.0</ele>
        <time>2021-05-17T15:23:38Z</time>
      </trkpt>
      <trkpt lat="41.6856780" lon="-8.8123720">
        <ele>5.9</ele>
        <time>2021-05-17T15:23:39Z</time>
      </trkpt>
      <trkpt lat="41.6856870" lon="-8.8123780">
        <ele>5.9</ele>
        <time>2021-05-17T15:23:40Z</time>
      </trkpt>
      <trkpt lat="41.6856950" lon="-8.8123840">
        <ele>5.9</ele>
        <time>2021-05-17T15:23:41Z</time>
      </trkpt>
      <trkpt lat="41.6857100" lon="-8.8123880">
        <ele>5.9</ele>
        <time>2021-05-17T15:23:42Z</time>
      </trkpt>
      <trkpt lat="41.6857220" lon="-8.8124030">
        <ele>5.9</ele>
        <time>2021-05-17T15:23:43Z</time>
      </trkpt>
      <trkpt lat="41.6857350" lon="-8.8124130">
        <ele>5.9</ele>
        <time>2021-05-17T15:23:44Z</time>
      </trkpt>
      <trkpt lat="41.6857510" lon="-8.8124190">
        <ele>5.8</ele>
        <time>2021-05-17T15:23:45Z</time>
      </trkpt>
      <trkpt lat="41.6857630" lon="-8.8124250">
        <ele>5.8</ele>
        <time>2021-05-17T15:23:46Z</time>
      </trkpt>
      <trkpt lat="41.6857750" lon="-8.8124360">
        <ele>5.8</ele>
        <time>2021-05-17T15:23:47Z</time>
      </trkpt>
      <trkpt lat="41.6857870" lon="-8.8124400">
        <ele>5.8</ele>
        <time>2021-05-17T15:23:48Z</time>
      </trkpt>
      <trkpt lat="41.6858000" lon="-8.8124480">
        <ele>5.8</ele>
        <time>2021-05-17T15:23:49Z</time>
      </trkpt>
      <trkpt lat="41.6858060" lon="-8.8124600">
        <ele>5.8</ele>
        <time>2021-05-17T15:23:50Z</time>
      </trkpt>
      <trkpt lat="41.6858190" lon="-8.8124790">
        <ele>5.7</ele>
        <time>2021-05-17T15:23:51Z</time>
      </trkpt>
      <trkpt lat="41.6858260" lon="-8.8124860">
        <ele>5.7</ele>
        <time>2021-05-17T15:23:52Z</time>
      </trkpt>
      <trkpt lat="41.6858330" lon="-8.8124920">
        <ele>5.7</ele>
        <time>2021-05-17T15:23:53Z</time>
      </trkpt>
      <trkpt lat="41.6858400" lon="-8.8125030">
        <ele>5.7</ele>
        <time>2021-05-17T15:23:54Z</time>
      </trkpt>
      <trkpt lat="41.6858470" lon="-8.8125130">
        <ele>5.7</ele>
        <time>2021-05-17T15:23:55Z</time>
      </trkpt>
      <trkpt lat="41.6858570" lon="-8.8125260">
        <ele>5.7</ele>
        <time>2021-05-17T15:23:56Z</time>
      </trkpt>
      <trkpt lat="41.6858640" lon="-8.8125370">
        <ele>5.6</ele>
        <time>2021-05-17T15:23:57Z</time>
      </trkpt>
      <trkpt lat="41.6858790" lon="-8.8125460">
        <ele>5.6</ele>
        <time>2021-05-17T15:23:58Z</time>
      </trkpt>
      <trkpt lat="41.6858900" lon="-8.8125530">
        <ele>5.6</ele>
        <time>2021-05-17T15:23:59Z</time>
      </trkpt>
      <trkpt lat="41.6859010" lon="-8.8125570">
        <ele>5.6</ele>
        <time>2021-05-17T15:24:00Z</time>
      </trkpt>
      <trkpt lat="41.6859110" lon="-8.8125640">
        <ele>5.6</ele>
        <time>2021-05-17T15:24:01Z</time>
      </trkpt>
      <trkpt lat="41.6859180" lon="-8.8125710">
        <ele>5.6</ele>
        <time>2021-05-17T15:24:02Z</time>
      </trkpt>
      <trkpt lat="41.6859320" lon="-8.8125840">
        <ele>5.5</ele>
        <time>2021-05-17T15:24:03Z</time>
      </trkpt>
      <trkpt lat="41.6859410" lon="-8.8125910">
        <ele>5.5</ele>
        <time>2021-05-17T15:24:04Z</time>
      </trkpt>
      <trkpt lat="41.6859590" lon="-8.8126070">
        <ele>5.5</ele>
        <time>2021-05-17T15:24:05Z</time>
      </trkpt>
      <trkpt lat="41.6859660" lon="-8.8126140">
        <ele>5.4</ele>
        <time>2021-05-17T15:24:06Z</time>
      </trkpt>
      <trkpt lat="41.6859730" lon="-8.8126210">
        <ele>5.4</ele>
        <time>2021-05-17T15:24:07Z</time>
      </trkpt>
      <trkpt lat="41.6859830" lon="-8.8126290">
        <ele>5.4</ele>
        <time>2021-05-17T15:24:08Z</time>
      </trkpt>
      <trkpt lat="41.6859910" lon="-8.8126380">
        <ele>5.4</ele>
        <time>2021-05-17T15:24:09Z</time>
      </trkpt>
      <trkpt lat="41.6859960" lon="-8.8126480">
        <ele>5.4</ele>
        <time>2021-05-17T15:24:10Z</time>
      </trkpt>
      <trkpt lat="41.6860080" lon="-8.8126560">
        <ele>5.3</ele>
        <time>2021-05-17T15:24:11Z</time>
      </trkpt>
      <trkpt lat="41.6860240" lon="-8.8126640">
        <ele>5.3</ele>
        <time>2021-05-17T15:24:12Z</time>
      </trkpt>
      <trkpt lat="41.6860370" lon="-8.8126620">
        <ele>5.3</ele>
        <time>2021-05-17T15:24:13Z</time>
      </trkpt>
      <trkpt lat="41.6860470" lon="-8.8126610">
        <ele>5.3</ele>
        <time>2021-05-17T15:24:14Z</time>
      </trkpt>
      <trkpt lat="41.6860600" lon="-8.8126670">
        <ele>5.2</ele>
        <time>2021-05-17T15:24:15Z</time>
      </trkpt>
      <trkpt lat="41.6860790" lon="-8.8126800">
        <ele>5.2</ele>
        <time>2021-05-17T15:24:16Z</time>
      </trkpt>
      <trkpt lat="41.6860880" lon="-8.8126870">
        <ele>5.2</ele>
        <time>2021-05-17T15:24:17Z</time>
      </trkpt>
      <trkpt lat="41.6860960" lon="-8.8126930">
        <ele>5.2</ele>
        <time>2021-05-17T15:24:18Z</time>
      </trkpt>
      <trkpt lat="41.6861100" lon="-8.8126990">
        <ele>5.1</ele>
        <time>2021-05-17T15:24:19Z</time>
      </trkpt>
      <trkpt lat="41.6861210" lon="-8.8127080">
        <ele>5.1</ele>
        <time>2021-05-17T15:24:20Z</time>
      </trkpt>
      <trkpt lat="41.6861340" lon="-8.8127130">
        <ele>5.1</ele>
        <time>2021-05-17T15:24:21Z</time>
      </trkpt>
      <trkpt lat="41.6861440" lon="-8.8127120">
        <ele>5.1</ele>
        <time>2021-05-17T15:24:22Z</time>
      </trkpt>
      <trkpt lat="41.6861450" lon="-8.8127050">
        <ele>5.1</ele>
        <time>2021-05-17T15:24:23Z</time>
      </trkpt>
      <trkpt lat="41.6861490" lon="-8.8127060">
        <ele>5.1</ele>
        <time>2021-05-17T15:24:24Z</time>
      </trkpt>
      <trkpt lat="41.6861650" lon="-8.8127140">
        <ele>5.0</ele>
        <time>2021-05-17T15:24:25Z</time>
      </trkpt>
      <trkpt lat="41.6861750" lon="-8.8127170">
        <ele>5.0</ele>
        <time>2021-05-17T15:24:26Z</time>
      </trkpt>
      <trkpt lat="41.6861860" lon="-8.8127200">
        <ele>5.0</ele>
        <time>2021-05-17T15:24:27Z</time>
      </trkpt>
      <trkpt lat="41.6862000" lon="-8.8127260">
        <ele>5.0</ele>
        <time>2021-05-17T15:24:28Z</time>
      </trkpt>
      <trkpt lat="41.6862090" lon="-8.8127240">
        <ele>4.9</ele>
        <time>2021-05-17T15:24:29Z</time>
      </trkpt>
      <trkpt lat="41.6862220" lon="-8.8127290">
        <ele>4.9</ele>
        <time>2021-05-17T15:24:30Z</time>
      </trkpt>
      <trkpt lat="41.6862290" lon="-8.8127340">
        <ele>4.9</ele>
        <time>2021-05-17T15:24:31Z</time>
      </trkpt>
      <trkpt lat="41.6862360" lon="-8.8127360">
        <ele>4.9</ele>
        <time>2021-05-17T15:24:32Z</time>
      </trkpt>
      <trkpt lat="41.6862440" lon="-8.8127350">
        <ele>4.9</ele>
        <time>2021-05-17T15:24:33Z</time>
      </trkpt>
      <trkpt lat="41.6862540" lon="-8.8127380">
        <ele>4.9</ele>
        <time>2021-05-17T15:24:34Z</time>
      </trkpt>
      <trkpt lat="41.6862750" lon="-8.8127430">
        <ele>4.9</ele>
        <time>2021-05-17T15:24:35Z</time>
      </trkpt>
      <trkpt lat="41.6862840" lon="-8.8127450">
        <ele>4.9</ele>
        <time>2021-05-17T15:24:36Z</time>
      </trkpt>
      <trkpt lat="41.6862920" lon="-8.8127470">
        <ele>4.9</ele>
        <time>2021-05-17T15:24:37Z</time>
      </trkpt>
      <trkpt lat="41.6863090" lon="-8.8127490">
        <ele>4.8</ele>
        <time>2021-05-17T15:24:38Z</time>
      </trkpt>
      <trkpt lat="41.6863160" lon="-8.8127470">
        <ele>4.8</ele>
        <time>2021-05-17T15:24:39Z</time>
      </trkpt>
      <trkpt lat="41.6863240" lon="-8.8127460">
        <ele>4.8</ele>
        <time>2021-05-17T15:24:40Z</time>
      </trkpt>
      <trkpt lat="41.6863310" lon="-8.8127440">
        <ele>4.8</ele>
        <time>2021-05-17T15:24:41Z</time>
      </trkpt>
      <trkpt lat="41.6863510" lon="-8.8127460">
        <ele>4.8</ele>
        <time>2021-05-17T15:24:42Z</time>
      </trkpt>
      <trkpt lat="41.6863600" lon="-8.8127460">
        <ele>4.8</ele>
        <time>2021-05-17T15:24:43Z</time>
      </trkpt>
      <trkpt lat="41.6863680" lon="-8.8127470">
        <ele>4.8</ele>
        <time>2021-05-17T15:24:44Z</time>
      </trkpt>
      <trkpt lat="41.6863850" lon="-8.8127600">
        <ele>4.7</ele>
        <time>2021-05-17T15:24:45Z</time>
      </trkpt>
      <trkpt lat="41.6863970" lon="-8.8127670">
        <ele>4.7</ele>
        <time>2021-05-17T15:24:46Z</time>
      </trkpt>
      <trkpt lat="41.6864080" lon="-8.8127690">
        <ele>4.7</ele>
        <time>2021-05-17T15:24:47Z</time>
      </trkpt>
      <trkpt lat="41.6864120" lon="-8.8127650">
        <ele>4.7</ele>
        <time>2021-05-17T15:24:48Z</time>
      </trkpt>
      <trkpt lat="41.6864170" lon="-8.8127630">
        <ele>4.7</ele>
        <time>2021-05-17T15:24:49Z</time>
      </trkpt>
      <trkpt lat="41.6864210" lon="-8.8127610">
        <ele>4.7</ele>
        <time>2021-05-17T15:24:50Z</time>
      </trkpt>
      <trkpt lat="41.6864320" lon="-8.8127550">
        <ele>4.7</ele>
        <time>2021-05-17T15:24:51Z</time>
      </trkpt>
      <trkpt lat="41.6864410" lon="-8.8127600">
        <ele>4.7</ele>
        <time>2021-05-17T15:24:52Z</time>
      </trkpt>
      <trkpt lat="41.6864520" lon="-8.8127600">
        <ele>4.7</ele>
        <time>2021-05-17T15:24:53Z</time>
      </trkpt>
      <trkpt lat="41.6864640" lon="-8.8127560">
        <ele>4.6</ele>
        <time>2021-05-17T15:24:54Z</time>
      </trkpt>
      <trkpt lat="41.6864830" lon="-8.8127520">
        <ele>4.6</ele>
        <time>2021-05-17T15:24:55Z</time>
      </trkpt>
      <trkpt lat="41.6864900" lon="-8.8127480">
        <ele>4.6</ele>
        <time>2021-05-17T15:24:56Z</time>
      </trkpt>
      <trkpt lat="41.6865160" lon="-8.8127350">
        <ele>4.6</ele>
        <time>2021-05-17T15:24:57Z</time>
      </trkpt>
      <trkpt lat="41.6865260" lon="-8.8127280">
        <ele>4.6</ele>
        <time>2021-05-17T15:24:59Z</time>
      </trkpt>
      <trkpt lat="41.6865370" lon="-8.8127200">
        <ele>4.6</ele>
        <time>2021-05-17T15:25:00Z</time>
      </trkpt>
      <trkpt lat="41.6865470" lon="-8.8127130">
        <ele>4.5</ele>
        <time>2021-05-17T15:25:01Z</time>
      </trkpt>
      <trkpt lat="41.6865580" lon="-8.8127060">
        <ele>4.5</ele>
        <time>2021-05-17T15:25:02Z</time>
      </trkpt>
      <trkpt lat="41.6865720" lon="-8.8127000">
        <ele>4.5</ele>
        <time>2021-05-17T15:25:03Z</time>
      </trkpt>
      <trkpt lat="41.6865870" lon="-8.8126950">
        <ele>4.5</ele>
        <time>2021-05-17T15:25:04Z</time>
      </trkpt>
      <trkpt lat="41.6865960" lon="-8.8126920">
        <ele>4.5</ele>
        <time>2021-05-17T15:25:05Z</time>
      </trkpt>
      <trkpt lat="41.6865970" lon="-8.8126890">
        <ele>4.5</ele>
        <time>2021-05-17T15:25:06Z</time>
      </trkpt>
      <trkpt lat="41.6866050" lon="-8.8126930">
        <ele>4.5</ele>
        <time>2021-05-17T15:25:07Z</time>
      </trkpt>
      <trkpt lat="41.6866200" lon="-8.8126840">
        <ele>4.5</ele>
        <time>2021-05-17T15:25:08Z</time>
      </trkpt>
      <trkpt lat="41.6866330" lon="-8.8126640">
        <ele>4.4</ele>
        <time>2021-05-17T15:25:09Z</time>
      </trkpt>
      <trkpt lat="41.6866430" lon="-8.8126570">
        <ele>4.4</ele>
        <time>2021-05-17T15:25:10Z</time>
      </trkpt>
      <trkpt lat="41.6866530" lon="-8.8126490">
        <ele>4.4</ele>
        <time>2021-05-17T15:25:11Z</time>
      </trkpt>
      <trkpt lat="41.6866750" lon="-8.8126340">
        <ele>4.4</ele>
        <time>2021-05-17T15:25:12Z</time>
      </trkpt>
      <trkpt lat="41.6866840" lon="-8.8126300">
        <ele>4.4</ele>
        <time>2021-05-17T15:25:13Z</time>
      </trkpt>
      <trkpt lat="41.6867020" lon="-8.8126270">
        <ele>4.3</ele>
        <time>2021-05-17T15:25:14Z</time>
      </trkpt>
      <trkpt lat="41.6867120" lon="-8.8126360">
        <ele>4.3</ele>
        <time>2021-05-17T15:25:15Z</time>
      </trkpt>
      <trkpt lat="41.6867370" lon="-8.8126390">
        <ele>4.3</ele>
        <time>2021-05-17T15:25:16Z</time>
      </trkpt>
      <trkpt lat="41.6867460" lon="-8.8126350">
        <ele>4.3</ele>
        <time>2021-05-17T15:25:17Z</time>
      </trkpt>
      <trkpt lat="41.6867550" lon="-8.8126310">
        <ele>4.3</ele>
        <time>2021-05-17T15:25:18Z</time>
      </trkpt>
      <trkpt lat="41.6867690" lon="-8.8126190">
        <ele>4.3</ele>
        <time>2021-05-17T15:25:19Z</time>
      </trkpt>
      <trkpt lat="41.6867750" lon="-8.8126120">
        <ele>4.3</ele>
        <time>2021-05-17T15:25:20Z</time>
      </trkpt>
      <trkpt lat="41.6867820" lon="-8.8126050">
        <ele>4.2</ele>
        <time>2021-05-17T15:25:21Z</time>
      </trkpt>
      <trkpt lat="41.6867880" lon="-8.8125980">
        <ele>4.2</ele>
        <time>2021-05-17T15:25:22Z</time>
      </trkpt>
      <trkpt lat="41.6868090" lon="-8.8125820">
        <ele>4.2</ele>
        <time>2021-05-17T15:25:23Z</time>
      </trkpt>
      <trkpt lat="41.6868170" lon="-8.8125750">
        <ele>4.2</ele>
        <time>2021-05-17T15:25:24Z</time>
      </trkpt>
      <trkpt lat="41.6868240" lon="-8.8125680">
        <ele>4.2</ele>
        <time>2021-05-17T15:25:25Z</time>
      </trkpt>
      <trkpt lat="41.6868350" lon="-8.8125520">
        <ele>4.2</ele>
        <time>2021-05-17T15:25:26Z</time>
      </trkpt>
      <trkpt lat="41.6868480" lon="-8.8125480">
        <ele>4.2</ele>
        <time>2021-05-17T15:25:27Z</time>
      </trkpt>
      <trkpt lat="41.6868610" lon="-8.8125320">
        <ele>4.2</ele>
        <time>2021-05-17T15:25:28Z</time>
      </trkpt>
      <trkpt lat="41.6868710" lon="-8.8125290">
        <ele>4.2</ele>
        <time>2021-05-17T15:25:29Z</time>
      </trkpt>
      <trkpt lat="41.6868800" lon="-8.8125250">
        <ele>4.2</ele>
        <time>2021-05-17T15:25:30Z</time>
      </trkpt>
      <trkpt lat="41.6869010" lon="-8.8125310">
        <ele>4.1</ele>
        <time>2021-05-17T15:25:31Z</time>
      </trkpt>
      <trkpt lat="41.6869130" lon="-8.8125350">
        <ele>4.1</ele>
        <time>2021-05-17T15:25:32Z</time>
      </trkpt>
      <trkpt lat="41.6869240" lon="-8.8125280">
        <ele>4.1</ele>
        <time>2021-05-17T15:25:33Z</time>
      </trkpt>
      <trkpt lat="41.6869320" lon="-8.8125240">
        <ele>4.1</ele>
        <time>2021-05-17T15:25:34Z</time>
      </trkpt>
      <trkpt lat="41.6869430" lon="-8.8125200">
        <ele>4.1</ele>
        <time>2021-05-17T15:25:35Z</time>
      </trkpt>
      <trkpt lat="41.6869560" lon="-8.8125190">
        <ele>4.1</ele>
        <time>2021-05-17T15:25:36Z</time>
      </trkpt>
      <trkpt lat="41.6869700" lon="-8.8125120">
        <ele>4.1</ele>
        <time>2021-05-17T15:25:37Z</time>
      </trkpt>
      <trkpt lat="41.6869920" lon="-8.8125060">
        <ele>4.1</ele>
        <time>2021-05-17T15:25:38Z</time>
      </trkpt>
      <trkpt lat="41.6870050" lon="-8.8125010">
        <ele>4.1</ele>
        <time>2021-05-17T15:25:39Z</time>
      </trkpt>
      <trkpt lat="41.6870180" lon="-8.8125000">
        <ele>4.1</ele>
        <time>2021-05-17T15:25:40Z</time>
      </trkpt>
      <trkpt lat="41.6870270" lon="-8.8124950">
        <ele>4.1</ele>
        <time>2021-05-17T15:25:41Z</time>
      </trkpt>
      <trkpt lat="41.6870360" lon="-8.8124910">
        <ele>4.1</ele>
        <time>2021-05-17T15:25:42Z</time>
      </trkpt>
      <trkpt lat="41.6870420" lon="-8.8124880">
        <ele>4.1</ele>
        <time>2021-05-17T15:25:43Z</time>
      </trkpt>
      <trkpt lat="41.6870510" lon="-8.8124880">
        <ele>4.1</ele>
        <time>2021-05-17T15:25:44Z</time>
      </trkpt>
      <trkpt lat="41.6870560" lon="-8.8124890">
        <ele>4.1</ele>
        <time>2021-05-17T15:25:45Z</time>
      </trkpt>
      <trkpt lat="41.6870650" lon="-8.8124900">
        <ele>4.1</ele>
        <time>2021-05-17T15:25:46Z</time>
      </trkpt>
      <trkpt lat="41.6870760" lon="-8.8124860">
        <ele>4.1</ele>
        <time>2021-05-17T15:25:47Z</time>
      </trkpt>
      <trkpt lat="41.6870840" lon="-8.8124810">
        <ele>4.1</ele>
        <time>2021-05-17T15:25:48Z</time>
      </trkpt>
      <trkpt lat="41.6870970" lon="-8.8124800">
        <ele>4.1</ele>
        <time>2021-05-17T15:25:49Z</time>
      </trkpt>
      <trkpt lat="41.6871040" lon="-8.8124790">
        <ele>4.1</ele>
        <time>2021-05-17T15:25:50Z</time>
      </trkpt>
      <trkpt lat="41.6871170" lon="-8.8124700">
        <ele>4.1</ele>
        <time>2021-05-17T15:25:51Z</time>
      </trkpt>
      <trkpt lat="41.6871260" lon="-8.8124650">
        <ele>4.1</ele>
        <time>2021-05-17T15:25:52Z</time>
      </trkpt>
      <trkpt lat="41.6871400" lon="-8.8124580">
        <ele>4.1</ele>
        <time>2021-05-17T15:25:53Z</time>
      </trkpt>
      <trkpt lat="41.6871510" lon="-8.8124590">
        <ele>4.1</ele>
        <time>2021-05-17T15:25:54Z</time>
      </trkpt>
      <trkpt lat="41.6871540" lon="-8.8124620">
        <ele>4.1</ele>
        <time>2021-05-17T15:25:55Z</time>
      </trkpt>
      <trkpt lat="41.6871740" lon="-8.8124660">
        <ele>4.1</ele>
        <time>2021-05-17T15:25:56Z</time>
      </trkpt>
      <trkpt lat="41.6871830" lon="-8.8124670">
        <ele>4.0</ele>
        <time>2021-05-17T15:25:57Z</time>
      </trkpt>
      <trkpt lat="41.6871910" lon="-8.8124690">
        <ele>4.0</ele>
        <time>2021-05-17T15:25:58Z</time>
      </trkpt>
      <trkpt lat="41.6872220" lon="-8.8124900">
        <ele>4.0</ele>
        <time>2021-05-17T15:25:59Z</time>
      </trkpt>
      <trkpt lat="41.6872340" lon="-8.8124960">
        <ele>4.0</ele>
        <time>2021-05-17T15:26:00Z</time>
      </trkpt>
      <trkpt lat="41.6872630" lon="-8.8125060">
        <ele>4.0</ele>
        <time>2021-05-17T15:26:01Z</time>
      </trkpt>
      <trkpt lat="41.6872720" lon="-8.8125110">
        <ele>4.0</ele>
        <time>2021-05-17T15:26:02Z</time>
      </trkpt>
      <trkpt lat="41.6872850" lon="-8.8125220">
        <ele>4.0</ele>
        <time>2021-05-17T15:26:03Z</time>
      </trkpt>
      <trkpt lat="41.6872970" lon="-8.8125320">
        <ele>4.0</ele>
        <time>2021-05-17T15:26:04Z</time>
      </trkpt>
      <trkpt lat="41.6873090" lon="-8.8125400">
        <ele>4.0</ele>
        <time>2021-05-17T15:26:05Z</time>
      </trkpt>
      <trkpt lat="41.6873230" lon="-8.8125410">
        <ele>4.0</ele>
        <time>2021-05-17T15:26:06Z</time>
      </trkpt>
      <trkpt lat="41.6873370" lon="-8.8125470">
        <ele>4.0</ele>
        <time>2021-05-17T15:26:07Z</time>
      </trkpt>
      <trkpt lat="41.6873500" lon="-8.8125550">
        <ele>3.9</ele>
        <time>2021-05-17T15:26:08Z</time>
      </trkpt>
      <trkpt lat="41.6873680" lon="-8.8125630">
        <ele>3.9</ele>
        <time>2021-05-17T15:26:09Z</time>
      </trkpt>
      <trkpt lat="41.6873800" lon="-8.8125720">
        <ele>3.9</ele>
        <time>2021-05-17T15:26:10Z</time>
      </trkpt>
      <trkpt lat="41.6873870" lon="-8.8125780">
        <ele>3.9</ele>
        <time>2021-05-17T15:26:11Z</time>
      </trkpt>
      <trkpt lat="41.6874030" lon="-8.8125840">
        <ele>3.9</ele>
        <time>2021-05-17T15:26:12Z</time>
      </trkpt>
      <trkpt lat="41.6874130" lon="-8.8125900">
        <ele>3.9</ele>
        <time>2021-05-17T15:26:13Z</time>
      </trkpt>
      <trkpt lat="41.6874320" lon="-8.8125970">
        <ele>3.9</ele>
        <time>2021-05-17T15:26:14Z</time>
      </trkpt>
      <trkpt lat="41.6874370" lon="-8.8126000">
        <ele>3.9</ele>
        <time>2021-05-17T15:26:15Z</time>
      </trkpt>
      <trkpt lat="41.6874420" lon="-8.8126040">
        <ele>3.9</ele>
        <time>2021-05-17T15:26:16Z</time>
      </trkpt>
      <trkpt lat="41.6874470" lon="-8.8126080">
        <ele>3.9</ele>
        <time>2021-05-17T15:26:17Z</time>
      </trkpt>
      <trkpt lat="41.6874590" lon="-8.8126170">
        <ele>3.9</ele>
        <time>2021-05-17T15:26:18Z</time>
      </trkpt>
      <trkpt lat="41.6874770" lon="-8.8126270">
        <ele>3.9</ele>
        <time>2021-05-17T15:26:19Z</time>
      </trkpt>
      <trkpt lat="41.6874990" lon="-8.8126390">
        <ele>3.9</ele>
        <time>2021-05-17T15:26:20Z</time>
      </trkpt>
      <trkpt lat="41.6875060" lon="-8.8126410">
        <ele>3.9</ele>
        <time>2021-05-17T15:26:21Z</time>
      </trkpt>
      <trkpt lat="41.6875140" lon="-8.8126440">
        <ele>3.9</ele>
        <time>2021-05-17T15:26:22Z</time>
      </trkpt>
      <trkpt lat="41.6875230" lon="-8.8126460">
        <ele>3.9</ele>
        <time>2021-05-17T15:26:23Z</time>
      </trkpt>
      <trkpt lat="41.6875320" lon="-8.8126500">
        <ele>3.9</ele>
        <time>2021-05-17T15:26:24Z</time>
      </trkpt>
      <trkpt lat="41.6875440" lon="-8.8126430">
        <ele>3.9</ele>
        <time>2021-05-17T15:26:25Z</time>
      </trkpt>
      <trkpt lat="41.6875490" lon="-8.8126410">
        <ele>3.9</ele>
        <time>2021-05-17T15:26:26Z</time>
      </trkpt>
      <trkpt lat="41.6875420" lon="-8.8126400">
        <ele>3.9</ele>
        <time>2021-05-17T15:26:27Z</time>
      </trkpt>
      <trkpt lat="41.6875530" lon="-8.8126500">
        <ele>3.9</ele>
        <time>2021-05-17T15:26:28Z</time>
      </trkpt>
      <trkpt lat="41.6875580" lon="-8.8126710">
        <ele>3.8</ele>
        <time>2021-05-17T15:26:29Z</time>
      </trkpt>
      <trkpt lat="41.6875580" lon="-8.8126810">
        <ele>3.8</ele>
        <time>2021-05-17T15:26:30Z</time>
      </trkpt>
      <trkpt lat="41.6875640" lon="-8.8127050">
        <ele>3.8</ele>
        <time>2021-05-17T15:26:31Z</time>
      </trkpt>
      <trkpt lat="41.6875660" lon="-8.8127160">
        <ele>3.8</ele>
        <time>2021-05-17T15:26:32Z</time>
      </trkpt>
      <trkpt lat="41.6875690" lon="-8.8127280">
        <ele>3.8</ele>
        <time>2021-05-17T15:26:33Z</time>
      </trkpt>
      <trkpt lat="41.6875820" lon="-8.8127540">
        <ele>3.8</ele>
        <time>2021-05-17T15:26:34Z</time>
      </trkpt>
      <trkpt lat="41.6875890" lon="-8.8127630">
        <ele>3.8</ele>
        <time>2021-05-17T15:26:35Z</time>
      </trkpt>
      <trkpt lat="41.6875950" lon="-8.8127730">
        <ele>3.8</ele>
        <time>2021-05-17T15:26:36Z</time>
      </trkpt>
      <trkpt lat="41.6876020" lon="-8.8127860">
        <ele>3.8</ele>
        <time>2021-05-17T15:26:37Z</time>
      </trkpt>
      <trkpt lat="41.6876040" lon="-8.8128010">
        <ele>3.8</ele>
        <time>2021-05-17T15:26:38Z</time>
      </trkpt>
      <trkpt lat="41.6876070" lon="-8.8128160">
        <ele>3.8</ele>
        <time>2021-05-17T15:26:39Z</time>
      </trkpt>
      <trkpt lat="41.6876170" lon="-8.8128340">
        <ele>3.8</ele>
        <time>2021-05-17T15:26:40Z</time>
      </trkpt>
      <trkpt lat="41.6876210" lon="-8.8128440">
        <ele>3.8</ele>
        <time>2021-05-17T15:26:41Z</time>
      </trkpt>
      <trkpt lat="41.6876250" lon="-8.8128540">
        <ele>3.8</ele>
        <time>2021-05-17T15:26:42Z</time>
      </trkpt>
      <trkpt lat="41.6876340" lon="-8.8128700">
        <ele>3.8</ele>
        <time>2021-05-17T15:26:43Z</time>
      </trkpt>
      <trkpt lat="41.6876410" lon="-8.8128780">
        <ele>3.8</ele>
        <time>2021-05-17T15:26:44Z</time>
      </trkpt>
      <trkpt lat="41.6876460" lon="-8.8128900">
        <ele>3.8</ele>
        <time>2021-05-17T15:26:45Z</time>
      </trkpt>
      <trkpt lat="41.6876510" lon="-8.8129200">
        <ele>3.8</ele>
        <time>2021-05-17T15:26:47Z</time>
      </trkpt>
      <trkpt lat="41.6876550" lon="-8.8129320">
        <ele>3.8</ele>
        <time>2021-05-17T15:26:48Z</time>
      </trkpt>
      <trkpt lat="41.6876590" lon="-8.8129450">
        <ele>3.8</ele>
        <time>2021-05-17T15:26:49Z</time>
      </trkpt>
      <trkpt lat="41.6876610" lon="-8.8129560">
        <ele>3.8</ele>
        <time>2021-05-17T15:26:50Z</time>
      </trkpt>
      <trkpt lat="41.6876640" lon="-8.8129790">
        <ele>3.8</ele>
        <time>2021-05-17T15:26:51Z</time>
      </trkpt>
      <trkpt lat="41.6876680" lon="-8.8129840">
        <ele>3.8</ele>
        <time>2021-05-17T15:26:52Z</time>
      </trkpt>
      <trkpt lat="41.6876770" lon="-8.8130000">
        <ele>3.8</ele>
        <time>2021-05-17T15:26:53Z</time>
      </trkpt>
      <trkpt lat="41.6876890" lon="-8.8130120">
        <ele>3.8</ele>
        <time>2021-05-17T15:26:54Z</time>
      </trkpt>
      <trkpt lat="41.6877020" lon="-8.8130060">
        <ele>3.8</ele>
        <time>2021-05-17T15:26:55Z</time>
      </trkpt>
      <trkpt lat="41.6877120" lon="-8.8129940">
        <ele>3.8</ele>
        <time>2021-05-17T15:26:56Z</time>
      </trkpt>
      <trkpt lat="41.6877400" lon="-8.8129830">
        <ele>3.8</ele>
        <time>2021-05-17T15:26:57Z</time>
      </trkpt>
      <trkpt lat="41.6877500" lon="-8.8129790">
        <ele>3.8</ele>
        <time>2021-05-17T15:26:58Z</time>
      </trkpt>
      <trkpt lat="41.6877690" lon="-8.8129760">
        <ele>3.8</ele>
        <time>2021-05-17T15:26:59Z</time>
      </trkpt>
      <trkpt lat="41.6877840" lon="-8.8129690">
        <ele>3.8</ele>
        <time>2021-05-17T15:27:00Z</time>
      </trkpt>
      <trkpt lat="41.6878010" lon="-8.8129690">
        <ele>3.8</ele>
        <time>2021-05-17T15:27:01Z</time>
      </trkpt>
      <trkpt lat="41.6878160" lon="-8.8129600">
        <ele>3.8</ele>
        <time>2021-05-17T15:27:02Z</time>
      </trkpt>
      <trkpt lat="41.6878330" lon="-8.8129550">
        <ele>3.8</ele>
        <time>2021-05-17T15:27:03Z</time>
      </trkpt>
      <trkpt lat="41.6878480" lon="-8.8129490">
        <ele>3.8</ele>
        <time>2021-05-17T15:27:04Z</time>
      </trkpt>
      <trkpt lat="41.6878640" lon="-8.8129450">
        <ele>3.8</ele>
        <time>2021-05-17T15:27:05Z</time>
      </trkpt>
      <trkpt lat="41.6878800" lon="-8.8129450">
        <ele>3.8</ele>
        <time>2021-05-17T15:27:06Z</time>
      </trkpt>
      <trkpt lat="41.6878960" lon="-8.8129470">
        <ele>3.8</ele>
        <time>2021-05-17T15:27:07Z</time>
      </trkpt>
      <trkpt lat="41.6879090" lon="-8.8129520">
        <ele>3.8</ele>
        <time>2021-05-17T15:27:08Z</time>
      </trkpt>
      <trkpt lat="41.6879210" lon="-8.8129490">
        <ele>3.8</ele>
        <time>2021-05-17T15:27:09Z</time>
      </trkpt>
      <trkpt lat="41.6879360" lon="-8.8129410">
        <ele>3.8</ele>
        <time>2021-05-17T15:27:10Z</time>
      </trkpt>
      <trkpt lat="41.6879510" lon="-8.8129350">
        <ele>3.8</ele>
        <time>2021-05-17T15:27:11Z</time>
      </trkpt>
      <trkpt lat="41.6879670" lon="-8.8129320">
        <ele>3.9</ele>
        <time>2021-05-17T15:27:12Z</time>
      </trkpt>
      <trkpt lat="41.6879810" lon="-8.8129360">
        <ele>3.9</ele>
        <time>2021-05-17T15:27:13Z</time>
      </trkpt>
      <trkpt lat="41.6879960" lon="-8.8129330">
        <ele>3.9</ele>
        <time>2021-05-17T15:27:14Z</time>
      </trkpt>
      <trkpt lat="41.6880100" lon="-8.8129260">
        <ele>3.9</ele>
        <time>2021-05-17T15:27:15Z</time>
      </trkpt>
      <trkpt lat="41.6880240" lon="-8.8129240">
        <ele>3.9</ele>
        <time>2021-05-17T15:27:16Z</time>
      </trkpt>
      <trkpt lat="41.6880380" lon="-8.8129170">
        <ele>3.9</ele>
        <time>2021-05-17T15:27:17Z</time>
      </trkpt>
      <trkpt lat="41.6880670" lon="-8.8129160">
        <ele>4.0</ele>
        <time>2021-05-17T15:27:18Z</time>
      </trkpt>
      <trkpt lat="41.6880810" lon="-8.8129130">
        <ele>4.0</ele>
        <time>2021-05-17T15:27:19Z</time>
      </trkpt>
      <trkpt lat="41.6880960" lon="-8.8129070">
        <ele>4.0</ele>
        <time>2021-05-17T15:27:20Z</time>
      </trkpt>
      <trkpt lat="41.6881100" lon="-8.8129040">
        <ele>4.0</ele>
        <time>2021-05-17T15:27:21Z</time>
      </trkpt>
      <trkpt lat="41.6881250" lon="-8.8128950">
        <ele>4.0</ele>
        <time>2021-05-17T15:27:22Z</time>
      </trkpt>
      <trkpt lat="41.6881400" lon="-8.8128930">
        <ele>4.0</ele>
        <time>2021-05-17T15:27:23Z</time>
      </trkpt>
      <trkpt lat="41.6881550" lon="-8.8128880">
        <ele>4.0</ele>
        <time>2021-05-17T15:27:24Z</time>
      </trkpt>
      <trkpt lat="41.6881690" lon="-8.8128840">
        <ele>4.0</ele>
        <time>2021-05-17T15:27:25Z</time>
      </trkpt>
      <trkpt lat="41.6881830" lon="-8.8128830">
        <ele>4.0</ele>
        <time>2021-05-17T15:27:26Z</time>
      </trkpt>
      <trkpt lat="41.6881980" lon="-8.8128810">
        <ele>4.0</ele>
        <time>2021-05-17T15:27:27Z</time>
      </trkpt>
      <trkpt lat="41.6882130" lon="-8.8128790">
        <ele>4.0</ele>
        <time>2021-05-17T15:27:28Z</time>
      </trkpt>
      <trkpt lat="41.6882270" lon="-8.8128810">
        <ele>4.0</ele>
        <time>2021-05-17T15:27:29Z</time>
      </trkpt>
      <trkpt lat="41.6882410" lon="-8.8128800">
        <ele>4.0</ele>
        <time>2021-05-17T15:27:30Z</time>
      </trkpt>
      <trkpt lat="41.6882550" lon="-8.8128800">
        <ele>4.0</ele>
        <time>2021-05-17T15:27:31Z</time>
      </trkpt>
      <trkpt lat="41.6882690" lon="-8.8128810">
        <ele>4.0</ele>
        <time>2021-05-17T15:27:32Z</time>
      </trkpt>
      <trkpt lat="41.6882840" lon="-8.8128810">
        <ele>4.0</ele>
        <time>2021-05-17T15:27:33Z</time>
      </trkpt>
      <trkpt lat="41.6883060" lon="-8.8128860">
        <ele>4.0</ele>
        <time>2021-05-17T15:27:34Z</time>
      </trkpt>
      <trkpt lat="41.6883150" lon="-8.8128890">
        <ele>4.0</ele>
        <time>2021-05-17T15:27:35Z</time>
      </trkpt>
      <trkpt lat="41.6883240" lon="-8.8128920">
        <ele>4.0</ele>
        <time>2021-05-17T15:27:36Z</time>
      </trkpt>
      <trkpt lat="41.6883370" lon="-8.8128960">
        <ele>4.0</ele>
        <time>2021-05-17T15:27:37Z</time>
      </trkpt>
      <trkpt lat="41.6883510" lon="-8.8129030">
        <ele>4.0</ele>
        <time>2021-05-17T15:27:38Z</time>
      </trkpt>
      <trkpt lat="41.6883650" lon="-8.8129090">
        <ele>4.0</ele>
        <time>2021-05-17T15:27:39Z</time>
      </trkpt>
      <trkpt lat="41.6883780" lon="-8.8129130">
        <ele>4.1</ele>
        <time>2021-05-17T15:27:40Z</time>
      </trkpt>
      <trkpt lat="41.6883980" lon="-8.8129210">
        <ele>4.1</ele>
        <time>2021-05-17T15:27:41Z</time>
      </trkpt>
      <trkpt lat="41.6884050" lon="-8.8129270">
        <ele>4.1</ele>
        <time>2021-05-17T15:27:42Z</time>
      </trkpt>
      <trkpt lat="41.6884120" lon="-8.8129340">
        <ele>4.1</ele>
        <time>2021-05-17T15:27:43Z</time>
      </trkpt>
      <trkpt lat="41.6884240" lon="-8.8129430">
        <ele>4.1</ele>
        <time>2021-05-17T15:27:44Z</time>
      </trkpt>
      <trkpt lat="41.6884340" lon="-8.8129510">
        <ele>4.1</ele>
        <time>2021-05-17T15:27:45Z</time>
      </trkpt>
      <trkpt lat="41.6884420" lon="-8.8129560">
        <ele>4.1</ele>
        <time>2021-05-17T15:27:46Z</time>
      </trkpt>
      <trkpt lat="41.6884480" lon="-8.8129620">
        <ele>4.1</ele>
        <time>2021-05-17T15:27:47Z</time>
      </trkpt>
      <trkpt lat="41.6884550" lon="-8.8129660">
        <ele>4.1</ele>
        <time>2021-05-17T15:27:48Z</time>
      </trkpt>
      <trkpt lat="41.6884620" lon="-8.8129770">
        <ele>4.0</ele>
        <time>2021-05-17T15:27:49Z</time>
      </trkpt>
      <trkpt lat="41.6884610" lon="-8.8129780">
        <ele>4.0</ele>
        <time>2021-05-17T15:27:50Z</time>
      </trkpt>
      <trkpt lat="41.6884640" lon="-8.8129830">
        <ele>4.0</ele>
        <time>2021-05-17T15:27:51Z</time>
      </trkpt>
      <trkpt lat="41.6884710" lon="-8.8129930">
        <ele>4.0</ele>
        <time>2021-05-17T15:27:52Z</time>
      </trkpt>
      <trkpt lat="41.6884770" lon="-8.8130020">
        <ele>4.0</ele>
        <time>2021-05-17T15:27:53Z</time>
      </trkpt>
      <trkpt lat="41.6884840" lon="-8.8130100">
        <ele>4.0</ele>
        <time>2021-05-17T15:27:54Z</time>
      </trkpt>
      <trkpt lat="41.6884900" lon="-8.8130190">
        <ele>4.0</ele>
        <time>2021-05-17T15:27:55Z</time>
      </trkpt>
      <trkpt lat="41.6884980" lon="-8.8130310">
        <ele>4.0</ele>
        <time>2021-05-17T15:27:56Z</time>
      </trkpt>
      <trkpt lat="41.6885040" lon="-8.8130390">
        <ele>4.0</ele>
        <time>2021-05-17T15:27:57Z</time>
      </trkpt>
      <trkpt lat="41.6885090" lon="-8.8130480">
        <ele>4.0</ele>
        <time>2021-05-17T15:27:58Z</time>
      </trkpt>
      <trkpt lat="41.6885140" lon="-8.8130570">
        <ele>4.0</ele>
        <time>2021-05-17T15:27:59Z</time>
      </trkpt>
      <trkpt lat="41.6885220" lon="-8.8130770">
        <ele>4.0</ele>
        <time>2021-05-17T15:28:00Z</time>
      </trkpt>
      <trkpt lat="41.6885290" lon="-8.8130880">
        <ele>3.9</ele>
        <time>2021-05-17T15:28:01Z</time>
      </trkpt>
      <trkpt lat="41.6885350" lon="-8.8130980">
        <ele>3.9</ele>
        <time>2021-05-17T15:28:02Z</time>
      </trkpt>
      <trkpt lat="41.6885470" lon="-8.8131170">
        <ele>3.9</ele>
        <time>2021-05-17T15:28:03Z</time>
      </trkpt>
      <trkpt lat="41.6885550" lon="-8.8131290">
        <ele>3.9</ele>
        <time>2021-05-17T15:28:04Z</time>
      </trkpt>
      <trkpt lat="41.6885620" lon="-8.8131460">
        <ele>3.9</ele>
        <time>2021-05-17T15:28:05Z</time>
      </trkpt>
      <trkpt lat="41.6885670" lon="-8.8131690">
        <ele>3.9</ele>
        <time>2021-05-17T15:28:06Z</time>
      </trkpt>
      <trkpt lat="41.6885820" lon="-8.8131890">
        <ele>3.9</ele>
        <time>2021-05-17T15:28:07Z</time>
      </trkpt>
      <trkpt lat="41.6885880" lon="-8.8131970">
        <ele>3.8</ele>
        <time>2021-05-17T15:28:08Z</time>
      </trkpt>
      <trkpt lat="41.6885950" lon="-8.8132040">
        <ele>3.8</ele>
        <time>2021-05-17T15:28:09Z</time>
      </trkpt>
      <trkpt lat="41.6886080" lon="-8.8132280">
        <ele>3.8</ele>
        <time>2021-05-17T15:28:10Z</time>
      </trkpt>
      <trkpt lat="41.6886140" lon="-8.8132340">
        <ele>3.8</ele>
        <time>2021-05-17T15:28:11Z</time>
      </trkpt>
      <trkpt lat="41.6886210" lon="-8.8132400">
        <ele>3.8</ele>
        <time>2021-05-17T15:28:12Z</time>
      </trkpt>
      <trkpt lat="41.6886370" lon="-8.8132620">
        <ele>3.8</ele>
        <time>2021-05-17T15:28:13Z</time>
      </trkpt>
      <trkpt lat="41.6886440" lon="-8.8132710">
        <ele>3.8</ele>
        <time>2021-05-17T15:28:14Z</time>
      </trkpt>
      <trkpt lat="41.6886510" lon="-8.8132790">
        <ele>3.8</ele>
        <time>2021-05-17T15:28:15Z</time>
      </trkpt>
      <trkpt lat="41.6886660" lon="-8.8133000">
        <ele>3.8</ele>
        <time>2021-05-17T15:28:16Z</time>
      </trkpt>
      <trkpt lat="41.6886730" lon="-8.8133090">
        <ele>3.8</ele>
        <time>2021-05-17T15:28:17Z</time>
      </trkpt>
      <trkpt lat="41.6886790" lon="-8.8133170">
        <ele>3.8</ele>
        <time>2021-05-17T15:28:18Z</time>
      </trkpt>
      <trkpt lat="41.6886950" lon="-8.8133350">
        <ele>3.7</ele>
        <time>2021-05-17T15:28:19Z</time>
      </trkpt>
      <trkpt lat="41.6887020" lon="-8.8133440">
        <ele>3.7</ele>
        <time>2021-05-17T15:28:20Z</time>
      </trkpt>
      <trkpt lat="41.6887080" lon="-8.8133520">
        <ele>3.7</ele>
        <time>2021-05-17T15:28:21Z</time>
      </trkpt>
      <trkpt lat="41.6887190" lon="-8.8133650">
        <ele>3.7</ele>
        <time>2021-05-17T15:28:22Z</time>
      </trkpt>
      <trkpt lat="41.6887260" lon="-8.8133810">
        <ele>3.7</ele>
        <time>2021-05-17T15:28:23Z</time>
      </trkpt>
      <trkpt lat="41.6887390" lon="-8.8133940">
        <ele>3.7</ele>
        <time>2021-05-17T15:28:24Z</time>
      </trkpt>
      <trkpt lat="41.6887490" lon="-8.8134080">
        <ele>3.7</ele>
        <time>2021-05-17T15:28:25Z</time>
      </trkpt>
      <trkpt lat="41.6887650" lon="-8.8134280">
        <ele>3.7</ele>
        <time>2021-05-17T15:28:26Z</time>
      </trkpt>
      <trkpt lat="41.6887700" lon="-8.8134360">
        <ele>3.7</ele>
        <time>2021-05-17T15:28:27Z</time>
      </trkpt>
      <trkpt lat="41.6887760" lon="-8.8134450">
        <ele>3.7</ele>
        <time>2021-05-17T15:28:28Z</time>
      </trkpt>
      <trkpt lat="41.6887880" lon="-8.8134570">
        <ele>3.6</ele>
        <time>2021-05-17T15:28:29Z</time>
      </trkpt>
      <trkpt lat="41.6888000" lon="-8.8134680">
        <ele>3.6</ele>
        <time>2021-05-17T15:28:30Z</time>
      </trkpt>
      <trkpt lat="41.6888080" lon="-8.8134840">
        <ele>3.6</ele>
        <time>2021-05-17T15:28:31Z</time>
      </trkpt>
      <trkpt lat="41.6888200" lon="-8.8134950">
        <ele>3.6</ele>
        <time>2021-05-17T15:28:32Z</time>
      </trkpt>
      <trkpt lat="41.6888290" lon="-8.8135080">
        <ele>3.6</ele>
        <time>2021-05-17T15:28:33Z</time>
      </trkpt>
      <trkpt lat="41.6888400" lon="-8.8135200">
        <ele>3.6</ele>
        <time>2021-05-17T15:28:34Z</time>
      </trkpt>
      <trkpt lat="41.6888520" lon="-8.8135320">
        <ele>3.6</ele>
        <time>2021-05-17T15:28:35Z</time>
      </trkpt>
      <trkpt lat="41.6888620" lon="-8.8135470">
        <ele>3.6</ele>
        <time>2021-05-17T15:28:36Z</time>
      </trkpt>
      <trkpt lat="41.6888710" lon="-8.8135620">
        <ele>3.6</ele>
        <time>2021-05-17T15:28:37Z</time>
      </trkpt>
      <trkpt lat="41.6888800" lon="-8.8135730">
        <ele>3.6</ele>
        <time>2021-05-17T15:28:38Z</time>
      </trkpt>
      <trkpt lat="41.6888980" lon="-8.8135910">
        <ele>3.6</ele>
        <time>2021-05-17T15:28:39Z</time>
      </trkpt>
      <trkpt lat="41.6889020" lon="-8.8136000">
        <ele>3.6</ele>
        <time>2021-05-17T15:28:40Z</time>
      </trkpt>
      <trkpt lat="41.6889070" lon="-8.8136080">
        <ele>3.6</ele>
        <time>2021-05-17T15:28:41Z</time>
      </trkpt>
      <trkpt lat="41.6889220" lon="-8.8136290">
        <ele>3.6</ele>
        <time>2021-05-17T15:28:42Z</time>
      </trkpt>
      <trkpt lat="41.6889270" lon="-8.8136390">
        <ele>3.6</ele>
        <time>2021-05-17T15:28:43Z</time>
      </trkpt>
      <trkpt lat="41.6889330" lon="-8.8136480">
        <ele>3.6</ele>
        <time>2021-05-17T15:28:44Z</time>
      </trkpt>
      <trkpt lat="41.6889480" lon="-8.8136680">
        <ele>3.6</ele>
        <time>2021-05-17T15:28:45Z</time>
      </trkpt>
      <trkpt lat="41.6889540" lon="-8.8136770">
        <ele>3.6</ele>
        <time>2021-05-17T15:28:46Z</time>
      </trkpt>
      <trkpt lat="41.6889590" lon="-8.8136860">
        <ele>3.6</ele>
        <time>2021-05-17T15:28:47Z</time>
      </trkpt>
      <trkpt lat="41.6889740" lon="-8.8137090">
        <ele>3.6</ele>
        <time>2021-05-17T15:28:48Z</time>
      </trkpt>
      <trkpt lat="41.6889810" lon="-8.8137170">
        <ele>3.6</ele>
        <time>2021-05-17T15:28:49Z</time>
      </trkpt>
      <trkpt lat="41.6889890" lon="-8.8137240">
        <ele>3.6</ele>
        <time>2021-05-17T15:28:50Z</time>
      </trkpt>
      <trkpt lat="41.6889980" lon="-8.8137380">
        <ele>3.6</ele>
        <time>2021-05-17T15:28:51Z</time>
      </trkpt>
      <trkpt lat="41.6890050" lon="-8.8137530">
        <ele>3.6</ele>
        <time>2021-05-17T15:28:52Z</time>
      </trkpt>
      <trkpt lat="41.6890150" lon="-8.8137650">
        <ele>3.6</ele>
        <time>2021-05-17T15:28:53Z</time>
      </trkpt>
      <trkpt lat="41.6890260" lon="-8.8137770">
        <ele>3.6</ele>
        <time>2021-05-17T15:28:54Z</time>
      </trkpt>
      <trkpt lat="41.6890400" lon="-8.8137980">
        <ele>3.6</ele>
        <time>2021-05-17T15:28:55Z</time>
      </trkpt>
      <trkpt lat="41.6890480" lon="-8.8138040">
        <ele>3.6</ele>
        <time>2021-05-17T15:28:56Z</time>
      </trkpt>
      <trkpt lat="41.6890550" lon="-8.8138110">
        <ele>3.6</ele>
        <time>2021-05-17T15:28:57Z</time>
      </trkpt>
      <trkpt lat="41.6890690" lon="-8.8138310">
        <ele>3.6</ele>
        <time>2021-05-17T15:28:58Z</time>
      </trkpt>
      <trkpt lat="41.6890750" lon="-8.8138400">
        <ele>3.6</ele>
        <time>2021-05-17T15:28:59Z</time>
      </trkpt>
      <trkpt lat="41.6890810" lon="-8.8138490">
        <ele>3.6</ele>
        <time>2021-05-17T15:29:00Z</time>
      </trkpt>
      <trkpt lat="41.6890950" lon="-8.8138690">
        <ele>3.6</ele>
        <time>2021-05-17T15:29:01Z</time>
      </trkpt>
      <trkpt lat="41.6891000" lon="-8.8138800">
        <ele>3.6</ele>
        <time>2021-05-17T15:29:02Z</time>
      </trkpt>
      <trkpt lat="41.6891050" lon="-8.8138900">
        <ele>3.6</ele>
        <time>2021-05-17T15:29:03Z</time>
      </trkpt>
      <trkpt lat="41.6891100" lon="-8.8139060">
        <ele>3.6</ele>
        <time>2021-05-17T15:29:04Z</time>
      </trkpt>
      <trkpt lat="41.6891170" lon="-8.8139180">
        <ele>3.6</ele>
        <time>2021-05-17T15:29:05Z</time>
      </trkpt>
      <trkpt lat="41.6891290" lon="-8.8139260">
        <ele>3.6</ele>
        <time>2021-05-17T15:29:06Z</time>
      </trkpt>
      <trkpt lat="41.6891440" lon="-8.8139440">
        <ele>3.6</ele>
        <time>2021-05-17T15:29:07Z</time>
      </trkpt>
      <trkpt lat="41.6891520" lon="-8.8139500">
        <ele>3.6</ele>
        <time>2021-05-17T15:29:08Z</time>
      </trkpt>
      <trkpt lat="41.6891600" lon="-8.8139560">
        <ele>3.6</ele>
        <time>2021-05-17T15:29:09Z</time>
      </trkpt>
      <trkpt lat="41.6891720" lon="-8.8139760">
        <ele>3.6</ele>
        <time>2021-05-17T15:29:10Z</time>
      </trkpt>
      <trkpt lat="41.6891780" lon="-8.8139850">
        <ele>3.7</ele>
        <time>2021-05-17T15:29:11Z</time>
      </trkpt>
      <trkpt lat="41.6891840" lon="-8.8139940">
        <ele>3.7</ele>
        <time>2021-05-17T15:29:12Z</time>
      </trkpt>
      <trkpt lat="41.6892010" lon="-8.8140140">
        <ele>3.7</ele>
        <time>2021-05-17T15:29:13Z</time>
      </trkpt>
      <trkpt lat="41.6892080" lon="-8.8140210">
        <ele>3.7</ele>
        <time>2021-05-17T15:29:14Z</time>
      </trkpt>
      <trkpt lat="41.6892150" lon="-8.8140280">
        <ele>3.7</ele>
        <time>2021-05-17T15:29:15Z</time>
      </trkpt>
      <trkpt lat="41.6892270" lon="-8.8140370">
        <ele>3.7</ele>
        <time>2021-05-17T15:29:16Z</time>
      </trkpt>
      <trkpt lat="41.6892400" lon="-8.8140420">
        <ele>3.7</ele>
        <time>2021-05-17T15:29:17Z</time>
      </trkpt>
      <trkpt lat="41.6892490" lon="-8.8140570">
        <ele>3.7</ele>
        <time>2021-05-17T15:29:18Z</time>
      </trkpt>
      <trkpt lat="41.6892570" lon="-8.8140720">
        <ele>3.7</ele>
        <time>2021-05-17T15:29:19Z</time>
      </trkpt>
      <trkpt lat="41.6892720" lon="-8.8140940">
        <ele>3.7</ele>
        <time>2021-05-17T15:29:20Z</time>
      </trkpt>
      <trkpt lat="41.6892790" lon="-8.8141000">
        <ele>3.7</ele>
        <time>2021-05-17T15:29:21Z</time>
      </trkpt>
      <trkpt lat="41.6892850" lon="-8.8141070">
        <ele>3.7</ele>
        <time>2021-05-17T15:29:22Z</time>
      </trkpt>
      <trkpt lat="41.6892910" lon="-8.8141210">
        <ele>3.8</ele>
        <time>2021-05-17T15:29:23Z</time>
      </trkpt>
      <trkpt lat="41.6892970" lon="-8.8141350">
        <ele>3.8</ele>
        <time>2021-05-17T15:29:24Z</time>
      </trkpt>
      <trkpt lat="41.6893030" lon="-8.8141480">
        <ele>3.8</ele>
        <time>2021-05-17T15:29:25Z</time>
      </trkpt>
      <trkpt lat="41.6893210" lon="-8.8141650">
        <ele>3.8</ele>
        <time>2021-05-17T15:29:26Z</time>
      </trkpt>
      <trkpt lat="41.6893270" lon="-8.8141720">
        <ele>3.8</ele>
        <time>2021-05-17T15:29:27Z</time>
      </trkpt>
      <trkpt lat="41.6893340" lon="-8.8141800">
        <ele>3.8</ele>
        <time>2021-05-17T15:29:28Z</time>
      </trkpt>
      <trkpt lat="41.6893510" lon="-8.8141770">
        <ele>3.8</ele>
        <time>2021-05-17T15:29:29Z</time>
      </trkpt>
      <trkpt lat="41.6893680" lon="-8.8141700">
        <ele>3.8</ele>
        <time>2021-05-17T15:29:30Z</time>
      </trkpt>
      <trkpt lat="41.6893850" lon="-8.8141850">
        <ele>3.8</ele>
        <time>2021-05-17T15:29:31Z</time>
      </trkpt>
      <trkpt lat="41.6893920" lon="-8.8141940">
        <ele>3.9</ele>
        <time>2021-05-17T15:29:32Z</time>
      </trkpt>
      <trkpt lat="41.6893980" lon="-8.8142020">
        <ele>3.9</ele>
        <time>2021-05-17T15:29:33Z</time>
      </trkpt>
      <trkpt lat="41.6894020" lon="-8.8142180">
        <ele>3.9</ele>
        <time>2021-05-17T15:29:34Z</time>
      </trkpt>
      <trkpt lat="41.6894070" lon="-8.8142330">
        <ele>3.9</ele>
        <time>2021-05-17T15:29:35Z</time>
      </trkpt>
      <trkpt lat="41.6894150" lon="-8.8142410">
        <ele>3.9</ele>
        <time>2021-05-17T15:29:36Z</time>
      </trkpt>
      <trkpt lat="41.6894250" lon="-8.8142480">
        <ele>3.9</ele>
        <time>2021-05-17T15:29:37Z</time>
      </trkpt>
      <trkpt lat="41.6894280" lon="-8.8142540">
        <ele>3.9</ele>
        <time>2021-05-17T15:29:38Z</time>
      </trkpt>
      <trkpt lat="41.6894330" lon="-8.8142620">
        <ele>3.9</ele>
        <time>2021-05-17T15:29:39Z</time>
      </trkpt>
      <trkpt lat="41.6894360" lon="-8.8142710">
        <ele>3.9</ele>
        <time>2021-05-17T15:29:40Z</time>
      </trkpt>
      <trkpt lat="41.6894420" lon="-8.8142850">
        <ele>3.9</ele>
        <time>2021-05-17T15:29:41Z</time>
      </trkpt>
      <trkpt lat="41.6894460" lon="-8.8142920">
        <ele>4.0</ele>
        <time>2021-05-17T15:29:42Z</time>
      </trkpt>
      <trkpt lat="41.6894540" lon="-8.8143050">
        <ele>4.0</ele>
        <time>2021-05-17T15:29:43Z</time>
      </trkpt>
      <trkpt lat="41.6894640" lon="-8.8143140">
        <ele>4.0</ele>
        <time>2021-05-17T15:29:44Z</time>
      </trkpt>
      <trkpt lat="41.6894760" lon="-8.8143270">
        <ele>4.0</ele>
        <time>2021-05-17T15:29:45Z</time>
      </trkpt>
      <trkpt lat="41.6894940" lon="-8.8143430">
        <ele>4.0</ele>
        <time>2021-05-17T15:29:46Z</time>
      </trkpt>
      <trkpt lat="41.6895010" lon="-8.8143520">
        <ele>4.0</ele>
        <time>2021-05-17T15:29:47Z</time>
      </trkpt>
      <trkpt lat="41.6895080" lon="-8.8143600">
        <ele>4.0</ele>
        <time>2021-05-17T15:29:48Z</time>
      </trkpt>
      <trkpt lat="41.6895180" lon="-8.8143720">
        <ele>4.1</ele>
        <time>2021-05-17T15:29:49Z</time>
      </trkpt>
      <trkpt lat="41.6895250" lon="-8.8143890">
        <ele>4.1</ele>
        <time>2021-05-17T15:29:50Z</time>
      </trkpt>
      <trkpt lat="41.6895330" lon="-8.8144050">
        <ele>4.1</ele>
        <time>2021-05-17T15:29:51Z</time>
      </trkpt>
      <trkpt lat="41.6895380" lon="-8.8144210">
        <ele>4.1</ele>
        <time>2021-05-17T15:29:52Z</time>
      </trkpt>
      <trkpt lat="41.6895470" lon="-8.8144370">
        <ele>4.1</ele>
        <time>2021-05-17T15:29:53Z</time>
      </trkpt>
      <trkpt lat="41.6895600" lon="-8.8144470">
        <ele>4.1</ele>
        <time>2021-05-17T15:29:54Z</time>
      </trkpt>
      <trkpt lat="41.6895720" lon="-8.8144710">
        <ele>4.2</ele>
        <time>2021-05-17T15:29:55Z</time>
      </trkpt>
      <trkpt lat="41.6895760" lon="-8.8144810">
        <ele>4.2</ele>
        <time>2021-05-17T15:29:56Z</time>
      </trkpt>
      <trkpt lat="41.6895800" lon="-8.8144900">
        <ele>4.2</ele>
        <time>2021-05-17T15:29:57Z</time>
      </trkpt>
      <trkpt lat="41.6895880" lon="-8.8145010">
        <ele>4.2</ele>
        <time>2021-05-17T15:29:58Z</time>
      </trkpt>
      <trkpt lat="41.6895950" lon="-8.8145160">
        <ele>4.2</ele>
        <time>2021-05-17T15:29:59Z</time>
      </trkpt>
      <trkpt lat="41.6896010" lon="-8.8145290">
        <ele>4.2</ele>
        <time>2021-05-17T15:30:00Z</time>
      </trkpt>
      <trkpt lat="41.6896170" lon="-8.8145490">
        <ele>4.3</ele>
        <time>2021-05-17T15:30:01Z</time>
      </trkpt>
      <trkpt lat="41.6896230" lon="-8.8145580">
        <ele>4.3</ele>
        <time>2021-05-17T15:30:02Z</time>
      </trkpt>
      <trkpt lat="41.6896280" lon="-8.8145680">
        <ele>4.3</ele>
        <time>2021-05-17T15:30:03Z</time>
      </trkpt>
      <trkpt lat="41.6896460" lon="-8.8145850">
        <ele>4.4</ele>
        <time>2021-05-17T15:30:04Z</time>
      </trkpt>
      <trkpt lat="41.6896530" lon="-8.8145940">
        <ele>4.4</ele>
        <time>2021-05-17T15:30:05Z</time>
      </trkpt>
      <trkpt lat="41.6896590" lon="-8.8146030">
        <ele>4.4</ele>
        <time>2021-05-17T15:30:06Z</time>
      </trkpt>
      <trkpt lat="41.6896690" lon="-8.8146140">
        <ele>4.4</ele>
        <time>2021-05-17T15:30:07Z</time>
      </trkpt>
      <trkpt lat="41.6896750" lon="-8.8146240">
        <ele>4.4</ele>
        <time>2021-05-17T15:30:08Z</time>
      </trkpt>
      <trkpt lat="41.6896860" lon="-8.8146330">
        <ele>4.5</ele>
        <time>2021-05-17T15:30:09Z</time>
      </trkpt>
      <trkpt lat="41.6896960" lon="-8.8146430">
        <ele>4.5</ele>
        <time>2021-05-17T15:30:10Z</time>
      </trkpt>
      <trkpt lat="41.6897060" lon="-8.8146500">
        <ele>4.5</ele>
        <time>2021-05-17T15:30:11Z</time>
      </trkpt>
      <trkpt lat="41.6897150" lon="-8.8146620">
        <ele>4.6</ele>
        <time>2021-05-17T15:30:12Z</time>
      </trkpt>
      <trkpt lat="41.6897260" lon="-8.8146770">
        <ele>4.7</ele>
        <time>2021-05-17T15:30:13Z</time>
      </trkpt>
      <trkpt lat="41.6897380" lon="-8.8146900">
        <ele>4.7</ele>
        <time>2021-05-17T15:30:14Z</time>
      </trkpt>
      <trkpt lat="41.6897550" lon="-8.8146970">
        <ele>4.8</ele>
        <time>2021-05-17T15:30:15Z</time>
      </trkpt>
      <trkpt lat="41.6897660" lon="-8.8147070">
        <ele>4.9</ele>
        <time>2021-05-17T15:30:16Z</time>
      </trkpt>
      <trkpt lat="41.6897760" lon="-8.8147210">
        <ele>4.9</ele>
        <time>2021-05-17T15:30:17Z</time>
      </trkpt>
      <trkpt lat="41.6897890" lon="-8.8147320">
        <ele>5.0</ele>
        <time>2021-05-17T15:30:18Z</time>
      </trkpt>
      <trkpt lat="41.6898020" lon="-8.8147380">
        <ele>5.1</ele>
        <time>2021-05-17T15:30:19Z</time>
      </trkpt>
      <trkpt lat="41.6898190" lon="-8.8147490">
        <ele>5.2</ele>
        <time>2021-05-17T15:30:20Z</time>
      </trkpt>
      <trkpt lat="41.6898360" lon="-8.8147510">
        <ele>5.3</ele>
        <time>2021-05-17T15:30:21Z</time>
      </trkpt>
      <trkpt lat="41.6898490" lon="-8.8147620">
        <ele>5.3</ele>
        <time>2021-05-17T15:30:22Z</time>
      </trkpt>
      <trkpt lat="41.6898620" lon="-8.8147710">
        <ele>5.4</ele>
        <time>2021-05-17T15:30:23Z</time>
      </trkpt>
      <trkpt lat="41.6898730" lon="-8.8147810">
        <ele>5.5</ele>
        <time>2021-05-17T15:30:24Z</time>
      </trkpt>
      <trkpt lat="41.6898840" lon="-8.8147950">
        <ele>5.6</ele>
        <time>2021-05-17T15:30:25Z</time>
      </trkpt>
      <trkpt lat="41.6898990" lon="-8.8148020">
        <ele>5.7</ele>
        <time>2021-05-17T15:30:26Z</time>
      </trkpt>
      <trkpt lat="41.6899130" lon="-8.8148160">
        <ele>5.7</ele>
        <time>2021-05-17T15:30:27Z</time>
      </trkpt>
      <trkpt lat="41.6899220" lon="-8.8148310">
        <ele>5.8</ele>
        <time>2021-05-17T15:30:28Z</time>
      </trkpt>
      <trkpt lat="41.6899340" lon="-8.8148400">
        <ele>5.9</ele>
        <time>2021-05-17T15:30:29Z</time>
      </trkpt>
      <trkpt lat="41.6899460" lon="-8.8148560">
        <ele>6.0</ele>
        <time>2021-05-17T15:30:30Z</time>
      </trkpt>
      <trkpt lat="41.6899570" lon="-8.8148700">
        <ele>6.1</ele>
        <time>2021-05-17T15:30:31Z</time>
      </trkpt>
      <trkpt lat="41.6899680" lon="-8.8148840">
        <ele>6.2</ele>
        <time>2021-05-17T15:30:32Z</time>
      </trkpt>
      <trkpt lat="41.6899880" lon="-8.8148980">
        <ele>6.3</ele>
        <time>2021-05-17T15:30:33Z</time>
      </trkpt>
      <trkpt lat="41.6899950" lon="-8.8149040">
        <ele>6.4</ele>
        <time>2021-05-17T15:30:34Z</time>
      </trkpt>
      <trkpt lat="41.6900030" lon="-8.8149090">
        <ele>6.4</ele>
        <time>2021-05-17T15:30:35Z</time>
      </trkpt>
      <trkpt lat="41.6900180" lon="-8.8149320">
        <ele>6.6</ele>
        <time>2021-05-17T15:30:36Z</time>
      </trkpt>
      <trkpt lat="41.6900240" lon="-8.8149380">
        <ele>6.6</ele>
        <time>2021-05-17T15:30:37Z</time>
      </trkpt>
      <trkpt lat="41.6900310" lon="-8.8149450">
        <ele>6.7</ele>
        <time>2021-05-17T15:30:38Z</time>
      </trkpt>
      <trkpt lat="41.6900480" lon="-8.8149620">
        <ele>6.8</ele>
        <time>2021-05-17T15:30:39Z</time>
      </trkpt>
      <trkpt lat="41.6900560" lon="-8.8149680">
        <ele>6.9</ele>
        <time>2021-05-17T15:30:40Z</time>
      </trkpt>
      <trkpt lat="41.6900630" lon="-8.8149740">
        <ele>6.9</ele>
        <time>2021-05-17T15:30:41Z</time>
      </trkpt>
      <trkpt lat="41.6900730" lon="-8.8149890">
        <ele>7.0</ele>
        <time>2021-05-17T15:30:42Z</time>
      </trkpt>
      <trkpt lat="41.6900820" lon="-8.8150020">
        <ele>7.1</ele>
        <time>2021-05-17T15:30:43Z</time>
      </trkpt>
      <trkpt lat="41.6900950" lon="-8.8150230">
        <ele>7.2</ele>
        <time>2021-05-17T15:30:44Z</time>
      </trkpt>
      <trkpt lat="41.6901000" lon="-8.8150300">
        <ele>7.2</ele>
        <time>2021-05-17T15:30:45Z</time>
      </trkpt>
      <trkpt lat="41.6901060" lon="-8.8150380">
        <ele>7.3</ele>
        <time>2021-05-17T15:30:46Z</time>
      </trkpt>
      <trkpt lat="41.6901180" lon="-8.8150500">
        <ele>7.4</ele>
        <time>2021-05-17T15:30:47Z</time>
      </trkpt>
      <trkpt lat="41.6901280" lon="-8.8150630">
        <ele>7.5</ele>
        <time>2021-05-17T15:30:48Z</time>
      </trkpt>
      <trkpt lat="41.6901370" lon="-8.8150740">
        <ele>7.5</ele>
        <time>2021-05-17T15:30:49Z</time>
      </trkpt>
      <trkpt lat="41.6901460" lon="-8.8150810">
        <ele>7.6</ele>
        <time>2021-05-17T15:30:50Z</time>
      </trkpt>
      <trkpt lat="41.6901560" lon="-8.8150910">
        <ele>7.7</ele>
        <time>2021-05-17T15:30:51Z</time>
      </trkpt>
      <trkpt lat="41.6901590" lon="-8.8151010">
        <ele>7.7</ele>
        <time>2021-05-17T15:30:52Z</time>
      </trkpt>
      <trkpt lat="41.6901640" lon="-8.8151120">
        <ele>7.8</ele>
        <time>2021-05-17T15:30:53Z</time>
      </trkpt>
      <trkpt lat="41.6901670" lon="-8.8151210">
        <ele>7.8</ele>
        <time>2021-05-17T15:30:54Z</time>
      </trkpt>
      <trkpt lat="41.6901730" lon="-8.8151280">
        <ele>7.9</ele>
        <time>2021-05-17T15:30:55Z</time>
      </trkpt>
      <trkpt lat="41.6901850" lon="-8.8151410">
        <ele>8.0</ele>
        <time>2021-05-17T15:30:56Z</time>
      </trkpt>
      <trkpt lat="41.6901920" lon="-8.8151480">
        <ele>8.0</ele>
        <time>2021-05-17T15:30:57Z</time>
      </trkpt>
      <trkpt lat="41.6901980" lon="-8.8151540">
        <ele>8.1</ele>
        <time>2021-05-17T15:30:58Z</time>
      </trkpt>
      <trkpt lat="41.6902040" lon="-8.8151610">
        <ele>8.1</ele>
        <time>2021-05-17T15:30:59Z</time>
      </trkpt>
      <trkpt lat="41.6902100" lon="-8.8151750">
        <ele>8.2</ele>
        <time>2021-05-17T15:31:00Z</time>
      </trkpt>
      <trkpt lat="41.6902170" lon="-8.8151840">
        <ele>8.3</ele>
        <time>2021-05-17T15:31:02Z</time>
      </trkpt>
      <trkpt lat="41.6902270" lon="-8.8151970">
        <ele>8.3</ele>
        <time>2021-05-17T15:31:03Z</time>
      </trkpt>
      <trkpt lat="41.6902340" lon="-8.8152080">
        <ele>8.4</ele>
        <time>2021-05-17T15:31:04Z</time>
      </trkpt>
      <trkpt lat="41.6902440" lon="-8.8152190">
        <ele>8.5</ele>
        <time>2021-05-17T15:31:05Z</time>
      </trkpt>
      <trkpt lat="41.6902510" lon="-8.8152310">
        <ele>8.5</ele>
        <time>2021-05-17T15:31:06Z</time>
      </trkpt>
      <trkpt lat="41.6902650" lon="-8.8152460">
        <ele>8.6</ele>
        <time>2021-05-17T15:31:07Z</time>
      </trkpt>
      <trkpt lat="41.6902700" lon="-8.8152520">
        <ele>8.7</ele>
        <time>2021-05-17T15:31:08Z</time>
      </trkpt>
      <trkpt lat="41.6902760" lon="-8.8152590">
        <ele>8.7</ele>
        <time>2021-05-17T15:31:09Z</time>
      </trkpt>
      <trkpt lat="41.6902810" lon="-8.8152660">
        <ele>8.8</ele>
        <time>2021-05-17T15:31:10Z</time>
      </trkpt>
      <trkpt lat="41.6902910" lon="-8.8152840">
        <ele>8.9</ele>
        <time>2021-05-17T15:31:11Z</time>
      </trkpt>
      <trkpt lat="41.6902970" lon="-8.8152930">
        <ele>8.9</ele>
        <time>2021-05-17T15:31:12Z</time>
      </trkpt>
      <trkpt lat="41.6903020" lon="-8.8153010">
        <ele>9.0</ele>
        <time>2021-05-17T15:31:13Z</time>
      </trkpt>
      <trkpt lat="41.6903070" lon="-8.8153100">
        <ele>9.0</ele>
        <time>2021-05-17T15:31:14Z</time>
      </trkpt>
      <trkpt lat="41.6903190" lon="-8.8153220">
        <ele>9.1</ele>
        <time>2021-05-17T15:31:15Z</time>
      </trkpt>
      <trkpt lat="41.6903300" lon="-8.8153310">
        <ele>9.2</ele>
        <time>2021-05-17T15:31:16Z</time>
      </trkpt>
      <trkpt lat="41.6903380" lon="-8.8153420">
        <ele>9.2</ele>
        <time>2021-05-17T15:31:17Z</time>
      </trkpt>
      <trkpt lat="41.6903460" lon="-8.8153520">
        <ele>9.3</ele>
        <time>2021-05-17T15:31:18Z</time>
      </trkpt>
      <trkpt lat="41.6903550" lon="-8.8153600">
        <ele>9.4</ele>
        <time>2021-05-17T15:31:19Z</time>
      </trkpt>
      <trkpt lat="41.6903590" lon="-8.8153690">
        <ele>9.4</ele>
        <time>2021-05-17T15:31:20Z</time>
      </trkpt>
      <trkpt lat="41.6903700" lon="-8.8153780">
        <ele>9.5</ele>
        <time>2021-05-17T15:31:21Z</time>
      </trkpt>
      <trkpt lat="41.6903780" lon="-8.8153900">
        <ele>9.6</ele>
        <time>2021-05-17T15:31:22Z</time>
      </trkpt>
      <trkpt lat="41.6903940" lon="-8.8154130">
        <ele>9.7</ele>
        <time>2021-05-17T15:31:23Z</time>
      </trkpt>
      <trkpt lat="41.6904000" lon="-8.8154210">
        <ele>9.7</ele>
        <time>2021-05-17T15:31:24Z</time>
      </trkpt>
      <trkpt lat="41.6904050" lon="-8.8154280">
        <ele>9.8</ele>
        <time>2021-05-17T15:31:25Z</time>
      </trkpt>
      <trkpt lat="41.6904210" lon="-8.8154430">
        <ele>9.9</ele>
        <time>2021-05-17T15:31:26Z</time>
      </trkpt>
      <trkpt lat="41.6904280" lon="-8.8154510">
        <ele>9.9</ele>
        <time>2021-05-17T15:31:27Z</time>
      </trkpt>
      <trkpt lat="41.6904350" lon="-8.8154600">
        <ele>10.0</ele>
        <time>2021-05-17T15:31:28Z</time>
      </trkpt>
      <trkpt lat="41.6904450" lon="-8.8154740">
        <ele>10.1</ele>
        <time>2021-05-17T15:31:29Z</time>
      </trkpt>
      <trkpt lat="41.6904600" lon="-8.8154930">
        <ele>10.2</ele>
        <time>2021-05-17T15:31:30Z</time>
      </trkpt>
      <trkpt lat="41.6904690" lon="-8.8155020">
        <ele>10.3</ele>
        <time>2021-05-17T15:31:31Z</time>
      </trkpt>
      <trkpt lat="41.6904760" lon="-8.8155150">
        <ele>10.3</ele>
        <time>2021-05-17T15:31:32Z</time>
      </trkpt>
      <trkpt lat="41.6904920" lon="-8.8155320">
        <ele>10.5</ele>
        <time>2021-05-17T15:31:33Z</time>
      </trkpt>
      <trkpt lat="41.6904990" lon="-8.8155420">
        <ele>10.5</ele>
        <time>2021-05-17T15:31:34Z</time>
      </trkpt>
      <trkpt lat="41.6905070" lon="-8.8155510">
        <ele>10.6</ele>
        <time>2021-05-17T15:31:35Z</time>
      </trkpt>
      <trkpt lat="41.6905130" lon="-8.8155630">
        <ele>10.7</ele>
        <time>2021-05-17T15:31:36Z</time>
      </trkpt>
      <trkpt lat="41.6905190" lon="-8.8155710">
        <ele>10.7</ele>
        <time>2021-05-17T15:31:37Z</time>
      </trkpt>
      <trkpt lat="41.6905280" lon="-8.8155870">
        <ele>10.8</ele>
        <time>2021-05-17T15:31:38Z</time>
      </trkpt>
      <trkpt lat="41.6905360" lon="-8.8156030">
        <ele>10.9</ele>
        <time>2021-05-17T15:31:39Z</time>
      </trkpt>
      <trkpt lat="41.6905420" lon="-8.8156110">
        <ele>11.0</ele>
        <time>2021-05-17T15:31:40Z</time>
      </trkpt>
      <trkpt lat="41.6905470" lon="-8.8156180">
        <ele>11.0</ele>
        <time>2021-05-17T15:31:41Z</time>
      </trkpt>
      <trkpt lat="41.6905530" lon="-8.8156260">
        <ele>11.1</ele>
        <time>2021-05-17T15:31:42Z</time>
      </trkpt>
      <trkpt lat="41.6905610" lon="-8.8156380">
        <ele>11.1</ele>
        <time>2021-05-17T15:31:43Z</time>
      </trkpt>
      <trkpt lat="41.6905720" lon="-8.8156530">
        <ele>11.2</ele>
        <time>2021-05-17T15:31:44Z</time>
      </trkpt>
      <trkpt lat="41.6905830" lon="-8.8156740">
        <ele>11.3</ele>
        <time>2021-05-17T15:31:45Z</time>
      </trkpt>
      <trkpt lat="41.6905910" lon="-8.8156840">
        <ele>11.4</ele>
        <time>2021-05-17T15:31:46Z</time>
      </trkpt>
      <trkpt lat="41.6905980" lon="-8.8156930">
        <ele>11.5</ele>
        <time>2021-05-17T15:31:47Z</time>
      </trkpt>
      <trkpt lat="41.6906100" lon="-8.8157040">
        <ele>11.6</ele>
        <time>2021-05-17T15:31:48Z</time>
      </trkpt>
      <trkpt lat="41.6906180" lon="-8.8157150">
        <ele>11.6</ele>
        <time>2021-05-17T15:31:49Z</time>
      </trkpt>
      <trkpt lat="41.6906250" lon="-8.8157240">
        <ele>11.7</ele>
        <time>2021-05-17T15:31:50Z</time>
      </trkpt>
      <trkpt lat="41.6906410" lon="-8.8157380">
        <ele>11.8</ele>
        <time>2021-05-17T15:31:51Z</time>
      </trkpt>
      <trkpt lat="41.6906490" lon="-8.8157440">
        <ele>11.9</ele>
        <time>2021-05-17T15:31:52Z</time>
      </trkpt>
      <trkpt lat="41.6906570" lon="-8.8157510">
        <ele>11.9</ele>
        <time>2021-05-17T15:31:53Z</time>
      </trkpt>
      <trkpt lat="41.6906610" lon="-8.8157620">
        <ele>12.0</ele>
        <time>2021-05-17T15:31:54Z</time>
      </trkpt>
      <trkpt lat="41.6906740" lon="-8.8157760">
        <ele>12.1</ele>
        <time>2021-05-17T15:31:55Z</time>
      </trkpt>
      <trkpt lat="41.6906810" lon="-8.8157840">
        <ele>12.1</ele>
        <time>2021-05-17T15:31:56Z</time>
      </trkpt>
      <trkpt lat="41.6906910" lon="-8.8158000">
        <ele>12.2</ele>
        <time>2021-05-17T15:31:57Z</time>
      </trkpt>
      <trkpt lat="41.6906990" lon="-8.8158050">
        <ele>12.2</ele>
        <time>2021-05-17T15:31:58Z</time>
      </trkpt>
      <trkpt lat="41.6907070" lon="-8.8158150">
        <ele>12.3</ele>
        <time>2021-05-17T15:31:59Z</time>
      </trkpt>
      <trkpt lat="41.6907230" lon="-8.8158250">
        <ele>12.4</ele>
        <time>2021-05-17T15:32:00Z</time>
      </trkpt>
      <trkpt lat="41.6907330" lon="-8.8158430">
        <ele>12.5</ele>
        <time>2021-05-17T15:32:01Z</time>
      </trkpt>
      <trkpt lat="41.6907490" lon="-8.8158610">
        <ele>12.6</ele>
        <time>2021-05-17T15:32:02Z</time>
      </trkpt>
      <trkpt lat="41.6907550" lon="-8.8158670">
        <ele>12.7</ele>
        <time>2021-05-17T15:32:03Z</time>
      </trkpt>
      <trkpt lat="41.6907610" lon="-8.8158740">
        <ele>12.7</ele>
        <time>2021-05-17T15:32:04Z</time>
      </trkpt>
      <trkpt lat="41.6907710" lon="-8.8158880">
        <ele>12.8</ele>
        <time>2021-05-17T15:32:05Z</time>
      </trkpt>
      <trkpt lat="41.6907840" lon="-8.8159020">
        <ele>12.9</ele>
        <time>2021-05-17T15:32:06Z</time>
      </trkpt>
      <trkpt lat="41.6907950" lon="-8.8159100">
        <ele>12.9</ele>
        <time>2021-05-17T15:32:07Z</time>
      </trkpt>
      <trkpt lat="41.6908070" lon="-8.8159270">
        <ele>13.0</ele>
        <time>2021-05-17T15:32:08Z</time>
      </trkpt>
      <trkpt lat="41.6908140" lon="-8.8159380">
        <ele>13.1</ele>
        <time>2021-05-17T15:32:09Z</time>
      </trkpt>
      <trkpt lat="41.6908220" lon="-8.8159470">
        <ele>13.2</ele>
        <time>2021-05-17T15:32:10Z</time>
      </trkpt>
      <trkpt lat="41.6908320" lon="-8.8159530">
        <ele>13.2</ele>
        <time>2021-05-17T15:32:11Z</time>
      </trkpt>
      <trkpt lat="41.6908420" lon="-8.8159770">
        <ele>13.3</ele>
        <time>2021-05-17T15:32:12Z</time>
      </trkpt>
      <trkpt lat="41.6908460" lon="-8.8159870">
        <ele>13.4</ele>
        <time>2021-05-17T15:32:13Z</time>
      </trkpt>
      <trkpt lat="41.6908500" lon="-8.8159970">
        <ele>13.4</ele>
        <time>2021-05-17T15:32:14Z</time>
      </trkpt>
      <trkpt lat="41.6908620" lon="-8.8160070">
        <ele>13.5</ele>
        <time>2021-05-17T15:32:15Z</time>
      </trkpt>
      <trkpt lat="41.6908770" lon="-8.8160190">
        <ele>13.6</ele>
        <time>2021-05-17T15:32:16Z</time>
      </trkpt>
      <trkpt lat="41.6908910" lon="-8.8160410">
        <ele>13.7</ele>
        <time>2021-05-17T15:32:17Z</time>
      </trkpt>
      <trkpt lat="41.6908990" lon="-8.8160480">
        <ele>13.8</ele>
        <time>2021-05-17T15:32:18Z</time>
      </trkpt>
      <trkpt lat="41.6909060" lon="-8.8160560">
        <ele>13.8</ele>
        <time>2021-05-17T15:32:19Z</time>
      </trkpt>
      <trkpt lat="41.6909160" lon="-8.8160680">
        <ele>13.9</ele>
        <time>2021-05-17T15:32:20Z</time>
      </trkpt>
      <trkpt lat="41.6909210" lon="-8.8160850">
        <ele>14.0</ele>
        <time>2021-05-17T15:32:21Z</time>
      </trkpt>
      <trkpt lat="41.6909270" lon="-8.8160960">
        <ele>14.0</ele>
        <time>2021-05-17T15:32:22Z</time>
      </trkpt>
      <trkpt lat="41.6909400" lon="-8.8161070">
        <ele>14.1</ele>
        <time>2021-05-17T15:32:23Z</time>
      </trkpt>
      <trkpt lat="41.6909510" lon="-8.8161190">
        <ele>14.2</ele>
        <time>2021-05-17T15:32:24Z</time>
      </trkpt>
      <trkpt lat="41.6909620" lon="-8.8161400">
        <ele>14.3</ele>
        <time>2021-05-17T15:32:25Z</time>
      </trkpt>
      <trkpt lat="41.6909660" lon="-8.8161480">
        <ele>14.4</ele>
        <time>2021-05-17T15:32:26Z</time>
      </trkpt>
      <trkpt lat="41.6909690" lon="-8.8161570">
        <ele>14.4</ele>
        <time>2021-05-17T15:32:27Z</time>
      </trkpt>
      <trkpt lat="41.6909730" lon="-8.8161650">
        <ele>14.5</ele>
        <time>2021-05-17T15:32:28Z</time>
      </trkpt>
      <trkpt lat="41.6909850" lon="-8.8161870">
        <ele>14.6</ele>
        <time>2021-05-17T15:32:29Z</time>
      </trkpt>
      <trkpt lat="41.6909920" lon="-8.8161950">
        <ele>14.6</ele>
        <time>2021-05-17T15:32:30Z</time>
      </trkpt>
      <trkpt lat="41.6910010" lon="-8.8162050">
        <ele>14.7</ele>
        <time>2021-05-17T15:32:31Z</time>
      </trkpt>
      <trkpt lat="41.6910110" lon="-8.8162130">
        <ele>14.7</ele>
        <time>2021-05-17T15:32:32Z</time>
      </trkpt>
      <trkpt lat="41.6910180" lon="-8.8162190">
        <ele>14.8</ele>
        <time>2021-05-17T15:32:33Z</time>
      </trkpt>
      <trkpt lat="41.6910280" lon="-8.8162310">
        <ele>14.9</ele>
        <time>2021-05-17T15:32:34Z</time>
      </trkpt>
      <trkpt lat="41.6910320" lon="-8.8162430">
        <ele>14.9</ele>
        <time>2021-05-17T15:32:35Z</time>
      </trkpt>
      <trkpt lat="41.6910400" lon="-8.8162470">
        <ele>15.0</ele>
        <time>2021-05-17T15:32:36Z</time>
      </trkpt>
      <trkpt lat="41.6910500" lon="-8.8162620">
        <ele>15.0</ele>
        <time>2021-05-17T15:32:37Z</time>
      </trkpt>
      <trkpt lat="41.6910580" lon="-8.8162690">
        <ele>15.1</ele>
        <time>2021-05-17T15:32:38Z</time>
      </trkpt>
      <trkpt lat="41.6910690" lon="-8.8162780">
        <ele>15.1</ele>
        <time>2021-05-17T15:32:39Z</time>
      </trkpt>
      <trkpt lat="41.6910780" lon="-8.8162940">
        <ele>15.2</ele>
        <time>2021-05-17T15:32:40Z</time>
      </trkpt>
      <trkpt lat="41.6910920" lon="-8.8162990">
        <ele>15.2</ele>
        <time>2021-05-17T15:32:41Z</time>
      </trkpt>
      <trkpt lat="41.6911030" lon="-8.8163120">
        <ele>15.3</ele>
        <time>2021-05-17T15:32:42Z</time>
      </trkpt>
      <trkpt lat="41.6911160" lon="-8.8163210">
        <ele>15.4</ele>
        <time>2021-05-17T15:32:43Z</time>
      </trkpt>
      <trkpt lat="41.6911230" lon="-8.8163300">
        <ele>15.4</ele>
        <time>2021-05-17T15:32:44Z</time>
      </trkpt>
      <trkpt lat="41.6911330" lon="-8.8163430">
        <ele>15.4</ele>
        <time>2021-05-17T15:32:45Z</time>
      </trkpt>
      <trkpt lat="41.6911390" lon="-8.8163540">
        <ele>15.5</ele>
        <time>2021-05-17T15:32:46Z</time>
      </trkpt>
      <trkpt lat="41.6911520" lon="-8.8163590">
        <ele>15.5</ele>
        <time>2021-05-17T15:32:47Z</time>
      </trkpt>
      <trkpt lat="41.6911620" lon="-8.8163610">
        <ele>15.5</ele>
        <time>2021-05-17T15:32:48Z</time>
      </trkpt>
      <trkpt lat="41.6911710" lon="-8.8163640">
        <ele>15.5</ele>
        <time>2021-05-17T15:32:49Z</time>
      </trkpt>
      <trkpt lat="41.6911810" lon="-8.8163670">
        <ele>15.6</ele>
        <time>2021-05-17T15:32:50Z</time>
      </trkpt>
      <trkpt lat="41.6911910" lon="-8.8163740">
        <ele>15.6</ele>
        <time>2021-05-17T15:32:51Z</time>
      </trkpt>
      <trkpt lat="41.6912010" lon="-8.8163780">
        <ele>15.6</ele>
        <time>2021-05-17T15:32:52Z</time>
      </trkpt>
      <trkpt lat="41.6912090" lon="-8.8163820">
        <ele>15.6</ele>
        <time>2021-05-17T15:32:53Z</time>
      </trkpt>
      <trkpt lat="41.6912220" lon="-8.8163900">
        <ele>15.7</ele>
        <time>2021-05-17T15:32:54Z</time>
      </trkpt>
      <trkpt lat="41.6912300" lon="-8.8163910">
        <ele>15.7</ele>
        <time>2021-05-17T15:32:55Z</time>
      </trkpt>
      <trkpt lat="41.6912380" lon="-8.8163960">
        <ele>15.7</ele>
        <time>2021-05-17T15:32:56Z</time>
      </trkpt>
      <trkpt lat="41.6912550" lon="-8.8164080">
        <ele>15.7</ele>
        <time>2021-05-17T15:32:57Z</time>
      </trkpt>
      <trkpt lat="41.6912600" lon="-8.8164160">
        <ele>15.7</ele>
        <time>2021-05-17T15:32:58Z</time>
      </trkpt>
      <trkpt lat="41.6912640" lon="-8.8164230">
        <ele>15.7</ele>
        <time>2021-05-17T15:32:59Z</time>
      </trkpt>
      <trkpt lat="41.6912690" lon="-8.8164310">
        <ele>15.7</ele>
        <time>2021-05-17T15:33:00Z</time>
      </trkpt>
      <trkpt lat="41.6912810" lon="-8.8164410">
        <ele>15.8</ele>
        <time>2021-05-17T15:33:01Z</time>
      </trkpt>
      <trkpt lat="41.6912870" lon="-8.8164540">
        <ele>15.8</ele>
        <time>2021-05-17T15:33:02Z</time>
      </trkpt>
      <trkpt lat="41.6912920" lon="-8.8164630">
        <ele>15.8</ele>
        <time>2021-05-17T15:33:03Z</time>
      </trkpt>
      <trkpt lat="41.6913000" lon="-8.8164770">
        <ele>15.8</ele>
        <time>2021-05-17T15:33:04Z</time>
      </trkpt>
      <trkpt lat="41.6913050" lon="-8.8164910">
        <ele>15.8</ele>
        <time>2021-05-17T15:33:05Z</time>
      </trkpt>
      <trkpt lat="41.6913120" lon="-8.8165020">
        <ele>15.8</ele>
        <time>2021-05-17T15:33:06Z</time>
      </trkpt>
      <trkpt lat="41.6913210" lon="-8.8165110">
        <ele>15.8</ele>
        <time>2021-05-17T15:33:07Z</time>
      </trkpt>
      <trkpt lat="41.6913330" lon="-8.8165280">
        <ele>15.8</ele>
        <time>2021-05-17T15:33:08Z</time>
      </trkpt>
      <trkpt lat="41.6913390" lon="-8.8165350">
        <ele>15.8</ele>
        <time>2021-05-17T15:33:09Z</time>
      </trkpt>
      <trkpt lat="41.6913490" lon="-8.8165500">
        <ele>15.8</ele>
        <time>2021-05-17T15:33:10Z</time>
      </trkpt>
      <trkpt lat="41.6913590" lon="-8.8165560">
        <ele>15.7</ele>
        <time>2021-05-17T15:33:11Z</time>
      </trkpt>
      <trkpt lat="41.6913760" lon="-8.8165770">
        <ele>15.7</ele>
        <time>2021-05-17T15:33:12Z</time>
      </trkpt>
      <trkpt lat="41.6913830" lon="-8.8165840">
        <ele>15.7</ele>
        <time>2021-05-17T15:33:13Z</time>
      </trkpt>
      <trkpt lat="41.6913910" lon="-8.8165910">
        <ele>15.7</ele>
        <time>2021-05-17T15:33:14Z</time>
      </trkpt>
      <trkpt lat="41.6914060" lon="-8.8166130">
        <ele>15.7</ele>
        <time>2021-05-17T15:33:15Z</time>
      </trkpt>
      <trkpt lat="41.6914140" lon="-8.8166230">
        <ele>15.7</ele>
        <time>2021-05-17T15:33:16Z</time>
      </trkpt>
      <trkpt lat="41.6914210" lon="-8.8166320">
        <ele>15.7</ele>
        <time>2021-05-17T15:33:17Z</time>
      </trkpt>
      <trkpt lat="41.6914380" lon="-8.8166490">
        <ele>15.7</ele>
        <time>2021-05-17T15:33:18Z</time>
      </trkpt>
      <trkpt lat="41.6914430" lon="-8.8166580">
        <ele>15.7</ele>
        <time>2021-05-17T15:33:19Z</time>
      </trkpt>
      <trkpt lat="41.6914490" lon="-8.8166660">
        <ele>15.7</ele>
        <time>2021-05-17T15:33:20Z</time>
      </trkpt>
      <trkpt lat="41.6914590" lon="-8.8166800">
        <ele>15.6</ele>
        <time>2021-05-17T15:33:21Z</time>
      </trkpt>
      <trkpt lat="41.6914660" lon="-8.8166870">
        <ele>15.6</ele>
        <time>2021-05-17T15:33:22Z</time>
      </trkpt>
      <trkpt lat="41.6914770" lon="-8.8167000">
        <ele>15.6</ele>
        <time>2021-05-17T15:33:24Z</time>
      </trkpt>
      <trkpt lat="41.6914900" lon="-8.8167160">
        <ele>15.6</ele>
        <time>2021-05-17T15:33:25Z</time>
      </trkpt>
      <trkpt lat="41.6915050" lon="-8.8167290">
        <ele>15.6</ele>
        <time>2021-05-17T15:33:26Z</time>
      </trkpt>
      <trkpt lat="41.6915180" lon="-8.8167420">
        <ele>15.6</ele>
        <time>2021-05-17T15:33:27Z</time>
      </trkpt>
      <trkpt lat="41.6915280" lon="-8.8167540">
        <ele>15.6</ele>
        <time>2021-05-17T15:33:28Z</time>
      </trkpt>
      <trkpt lat="41.6915400" lon="-8.8167650">
        <ele>15.6</ele>
        <time>2021-05-17T15:33:29Z</time>
      </trkpt>
      <trkpt lat="41.6915460" lon="-8.8167690">
        <ele>15.6</ele>
        <time>2021-05-17T15:33:30Z</time>
      </trkpt>
      <trkpt lat="41.6915560" lon="-8.8167820">
        <ele>15.6</ele>
        <time>2021-05-17T15:33:31Z</time>
      </trkpt>
      <trkpt lat="41.6915710" lon="-8.8167980">
        <ele>15.6</ele>
        <time>2021-05-17T15:33:32Z</time>
      </trkpt>
      <trkpt lat="41.6915780" lon="-8.8168070">
        <ele>15.6</ele>
        <time>2021-05-17T15:33:33Z</time>
      </trkpt>
      <trkpt lat="41.6915840" lon="-8.8168170">
        <ele>15.6</ele>
        <time>2021-05-17T15:33:34Z</time>
      </trkpt>
      <trkpt lat="41.6915930" lon="-8.8168300">
        <ele>15.6</ele>
        <time>2021-05-17T15:33:35Z</time>
      </trkpt>
      <trkpt lat="41.6916000" lon="-8.8168600">
        <ele>15.6</ele>
        <time>2021-05-17T15:33:36Z</time>
      </trkpt>
      <trkpt lat="41.6916080" lon="-8.8168760">
        <ele>15.6</ele>
        <time>2021-05-17T15:33:37Z</time>
      </trkpt>
      <trkpt lat="41.6916180" lon="-8.8168840">
        <ele>15.5</ele>
        <time>2021-05-17T15:33:38Z</time>
      </trkpt>
      <trkpt lat="41.6916310" lon="-8.8169010">
        <ele>15.5</ele>
        <time>2021-05-17T15:33:39Z</time>
      </trkpt>
      <trkpt lat="41.6916400" lon="-8.8169090">
        <ele>15.5</ele>
        <time>2021-05-17T15:33:40Z</time>
      </trkpt>
      <trkpt lat="41.6916490" lon="-8.8169160">
        <ele>15.5</ele>
        <time>2021-05-17T15:33:41Z</time>
      </trkpt>
      <trkpt lat="41.6916660" lon="-8.8169400">
        <ele>15.5</ele>
        <time>2021-05-17T15:33:42Z</time>
      </trkpt>
      <trkpt lat="41.6916730" lon="-8.8169460">
        <ele>15.5</ele>
        <time>2021-05-17T15:33:43Z</time>
      </trkpt>
      <trkpt lat="41.6916810" lon="-8.8169530">
        <ele>15.5</ele>
        <time>2021-05-17T15:33:44Z</time>
      </trkpt>
      <trkpt lat="41.6916910" lon="-8.8169630">
        <ele>15.5</ele>
        <time>2021-05-17T15:33:45Z</time>
      </trkpt>
      <trkpt lat="41.6916990" lon="-8.8169730">
        <ele>15.5</ele>
        <time>2021-05-17T15:33:46Z</time>
      </trkpt>
      <trkpt lat="41.6917070" lon="-8.8169840">
        <ele>15.5</ele>
        <time>2021-05-17T15:33:47Z</time>
      </trkpt>
      <trkpt lat="41.6917160" lon="-8.8169990">
        <ele>15.5</ele>
        <time>2021-05-17T15:33:48Z</time>
      </trkpt>
      <trkpt lat="41.6917250" lon="-8.8170100">
        <ele>15.5</ele>
        <time>2021-05-17T15:33:49Z</time>
      </trkpt>
      <trkpt lat="41.6917390" lon="-8.8170290">
        <ele>15.5</ele>
        <time>2021-05-17T15:33:50Z</time>
      </trkpt>
      <trkpt lat="41.6917440" lon="-8.8170380">
        <ele>15.5</ele>
        <time>2021-05-17T15:33:51Z</time>
      </trkpt>
      <trkpt lat="41.6917500" lon="-8.8170480">
        <ele>15.5</ele>
        <time>2021-05-17T15:33:52Z</time>
      </trkpt>
      <trkpt lat="41.6917650" lon="-8.8170650">
        <ele>15.5</ele>
        <time>2021-05-17T15:33:53Z</time>
      </trkpt>
      <trkpt lat="41.6917720" lon="-8.8170710">
        <ele>15.5</ele>
        <time>2021-05-17T15:33:54Z</time>
      </trkpt>
      <trkpt lat="41.6917790" lon="-8.8170780">
        <ele>15.5</ele>
        <time>2021-05-17T15:33:55Z</time>
      </trkpt>
      <trkpt lat="41.6917960" lon="-8.8170960">
        <ele>15.5</ele>
        <time>2021-05-17T15:33:56Z</time>
      </trkpt>
      <trkpt lat="41.6918020" lon="-8.8171060">
        <ele>15.5</ele>
        <time>2021-05-17T15:33:57Z</time>
      </trkpt>
      <trkpt lat="41.6918080" lon="-8.8171160">
        <ele>15.5</ele>
        <time>2021-05-17T15:33:58Z</time>
      </trkpt>
      <trkpt lat="41.6918150" lon="-8.8171250">
        <ele>15.5</ele>
        <time>2021-05-17T15:33:59Z</time>
      </trkpt>
      <trkpt lat="41.6918250" lon="-8.8171370">
        <ele>15.5</ele>
        <time>2021-05-17T15:34:00Z</time>
      </trkpt>
      <trkpt lat="41.6918320" lon="-8.8171450">
        <ele>15.5</ele>
        <time>2021-05-17T15:34:01Z</time>
      </trkpt>
      <trkpt lat="41.6918470" lon="-8.8171610">
        <ele>15.5</ele>
        <time>2021-05-17T15:34:02Z</time>
      </trkpt>
      <trkpt lat="41.6918540" lon="-8.8171700">
        <ele>15.5</ele>
        <time>2021-05-17T15:34:03Z</time>
      </trkpt>
      <trkpt lat="41.6918620" lon="-8.8171780">
        <ele>15.5</ele>
        <time>2021-05-17T15:34:04Z</time>
      </trkpt>
      <trkpt lat="41.6918720" lon="-8.8171900">
        <ele>15.5</ele>
        <time>2021-05-17T15:34:05Z</time>
      </trkpt>
      <trkpt lat="41.6918820" lon="-8.8171980">
        <ele>15.5</ele>
        <time>2021-05-17T15:34:06Z</time>
      </trkpt>
      <trkpt lat="41.6918900" lon="-8.8172100">
        <ele>15.5</ele>
        <time>2021-05-17T15:34:07Z</time>
      </trkpt>
      <trkpt lat="41.6918960" lon="-8.8172310">
        <ele>15.5</ele>
        <time>2021-05-17T15:34:08Z</time>
      </trkpt>
      <trkpt lat="41.6919030" lon="-8.8172440">
        <ele>15.5</ele>
        <time>2021-05-17T15:34:09Z</time>
      </trkpt>
      <trkpt lat="41.6919100" lon="-8.8172540">
        <ele>15.5</ele>
        <time>2021-05-17T15:34:10Z</time>
      </trkpt>
      <trkpt lat="41.6919180" lon="-8.8172670">
        <ele>15.5</ele>
        <time>2021-05-17T15:34:11Z</time>
      </trkpt>
      <trkpt lat="41.6919260" lon="-8.8172810">
        <ele>15.5</ele>
        <time>2021-05-17T15:34:12Z</time>
      </trkpt>
      <trkpt lat="41.6919350" lon="-8.8172910">
        <ele>15.5</ele>
        <time>2021-05-17T15:34:13Z</time>
      </trkpt>
      <trkpt lat="41.6919430" lon="-8.8173020">
        <ele>15.5</ele>
        <time>2021-05-17T15:34:14Z</time>
      </trkpt>
      <trkpt lat="41.6919510" lon="-8.8173120">
        <ele>15.5</ele>
        <time>2021-05-17T15:34:15Z</time>
      </trkpt>
      <trkpt lat="41.6919650" lon="-8.8173210">
        <ele>15.5</ele>
        <time>2021-05-17T15:34:16Z</time>
      </trkpt>
      <trkpt lat="41.6919780" lon="-8.8173360">
        <ele>15.5</ele>
        <time>2021-05-17T15:34:17Z</time>
      </trkpt>
      <trkpt lat="41.6919920" lon="-8.8173440">
        <ele>15.4</ele>
        <time>2021-05-17T15:34:18Z</time>
      </trkpt>
      <trkpt lat="41.6920040" lon="-8.8173520">
        <ele>15.4</ele>
        <time>2021-05-17T15:34:19Z</time>
      </trkpt>
      <trkpt lat="41.6920140" lon="-8.8173780">
        <ele>15.4</ele>
        <time>2021-05-17T15:34:20Z</time>
      </trkpt>
      <trkpt lat="41.6920180" lon="-8.8173890">
        <ele>15.4</ele>
        <time>2021-05-17T15:34:21Z</time>
      </trkpt>
      <trkpt lat="41.6920210" lon="-8.8173990">
        <ele>15.4</ele>
        <time>2021-05-17T15:34:22Z</time>
      </trkpt>
      <trkpt lat="41.6920300" lon="-8.8174070">
        <ele>15.4</ele>
        <time>2021-05-17T15:34:23Z</time>
      </trkpt>
      <trkpt lat="41.6920370" lon="-8.8174170">
        <ele>15.4</ele>
        <time>2021-05-17T15:34:24Z</time>
      </trkpt>
      <trkpt lat="41.6920450" lon="-8.8174290">
        <ele>15.4</ele>
        <time>2021-05-17T15:34:25Z</time>
      </trkpt>
      <trkpt lat="41.6920570" lon="-8.8174450">
        <ele>15.4</ele>
        <time>2021-05-17T15:34:26Z</time>
      </trkpt>
      <trkpt lat="41.6920700" lon="-8.8174560">
        <ele>15.4</ele>
        <time>2021-05-17T15:34:27Z</time>
      </trkpt>
      <trkpt lat="41.6920750" lon="-8.8174680">
        <ele>15.4</ele>
        <time>2021-05-17T15:34:28Z</time>
      </trkpt>
      <trkpt lat="41.6920850" lon="-8.8174780">
        <ele>15.4</ele>
        <time>2021-05-17T15:34:29Z</time>
      </trkpt>
      <trkpt lat="41.6920980" lon="-8.8174830">
        <ele>15.4</ele>
        <time>2021-05-17T15:34:30Z</time>
      </trkpt>
      <trkpt lat="41.6921080" lon="-8.8174970">
        <ele>15.4</ele>
        <time>2021-05-17T15:34:31Z</time>
      </trkpt>
      <trkpt lat="41.6921170" lon="-8.8175090">
        <ele>15.4</ele>
        <time>2021-05-17T15:34:32Z</time>
      </trkpt>
      <trkpt lat="41.6921320" lon="-8.8175270">
        <ele>15.4</ele>
        <time>2021-05-17T15:34:33Z</time>
      </trkpt>
      <trkpt lat="41.6921390" lon="-8.8175360">
        <ele>15.4</ele>
        <time>2021-05-17T15:34:34Z</time>
      </trkpt>
      <trkpt lat="41.6921460" lon="-8.8175460">
        <ele>15.4</ele>
        <time>2021-05-17T15:34:35Z</time>
      </trkpt>
      <trkpt lat="41.6921560" lon="-8.8175570">
        <ele>15.4</ele>
        <time>2021-05-17T15:34:36Z</time>
      </trkpt>
      <trkpt lat="41.6921660" lon="-8.8175710">
        <ele>15.4</ele>
        <time>2021-05-17T15:34:37Z</time>
      </trkpt>
      <trkpt lat="41.6921820" lon="-8.8175910">
        <ele>15.4</ele>
        <time>2021-05-17T15:34:38Z</time>
      </trkpt>
      <trkpt lat="41.6921890" lon="-8.8176000">
        <ele>15.4</ele>
        <time>2021-05-17T15:34:39Z</time>
      </trkpt>
      <trkpt lat="41.6921960" lon="-8.8176080">
        <ele>15.3</ele>
        <time>2021-05-17T15:34:40Z</time>
      </trkpt>
      <trkpt lat="41.6922040" lon="-8.8176230">
        <ele>15.3</ele>
        <time>2021-05-17T15:34:41Z</time>
      </trkpt>
      <trkpt lat="41.6922100" lon="-8.8176380">
        <ele>15.3</ele>
        <time>2021-05-17T15:34:42Z</time>
      </trkpt>
      <trkpt lat="41.6922160" lon="-8.8176380">
        <ele>15.3</ele>
        <time>2021-05-17T15:34:43Z</time>
      </trkpt>
      <trkpt lat="41.6922240" lon="-8.8176540">
        <ele>15.3</ele>
        <time>2021-05-17T15:34:44Z</time>
      </trkpt>
      <trkpt lat="41.6922330" lon="-8.8176620">
        <ele>15.3</ele>
        <time>2021-05-17T15:34:45Z</time>
      </trkpt>
      <trkpt lat="41.6922420" lon="-8.8176730">
        <ele>15.3</ele>
        <time>2021-05-17T15:34:46Z</time>
      </trkpt>
      <trkpt lat="41.6922540" lon="-8.8176880">
        <ele>15.3</ele>
        <time>2021-05-17T15:34:47Z</time>
      </trkpt>
      <trkpt lat="41.6922620" lon="-8.8176970">
        <ele>15.3</ele>
        <time>2021-05-17T15:34:48Z</time>
      </trkpt>
      <trkpt lat="41.6922700" lon="-8.8177050">
        <ele>15.3</ele>
        <time>2021-05-17T15:34:49Z</time>
      </trkpt>
      <trkpt lat="41.6922760" lon="-8.8177170">
        <ele>15.3</ele>
        <time>2021-05-17T15:34:50Z</time>
      </trkpt>
      <trkpt lat="41.6922880" lon="-8.8177370">
        <ele>15.3</ele>
        <time>2021-05-17T15:34:51Z</time>
      </trkpt>
      <trkpt lat="41.6922910" lon="-8.8177450">
        <ele>15.3</ele>
        <time>2021-05-17T15:34:52Z</time>
      </trkpt>
      <trkpt lat="41.6922990" lon="-8.8177600">
        <ele>15.3</ele>
        <time>2021-05-17T15:34:53Z</time>
      </trkpt>
      <trkpt lat="41.6923070" lon="-8.8177670">
        <ele>15.3</ele>
        <time>2021-05-17T15:34:54Z</time>
      </trkpt>
      <trkpt lat="41.6923140" lon="-8.8177810">
        <ele>15.3</ele>
        <time>2021-05-17T15:34:55Z</time>
      </trkpt>
      <trkpt lat="41.6923220" lon="-8.8177940">
        <ele>15.3</ele>
        <time>2021-05-17T15:34:56Z</time>
      </trkpt>
      <trkpt lat="41.6923320" lon="-8.8177980">
        <ele>15.3</ele>
        <time>2021-05-17T15:34:57Z</time>
      </trkpt>
      <trkpt lat="41.6923480" lon="-8.8178180">
        <ele>15.3</ele>
        <time>2021-05-17T15:34:58Z</time>
      </trkpt>
      <trkpt lat="41.6923540" lon="-8.8178270">
        <ele>15.3</ele>
        <time>2021-05-17T15:34:59Z</time>
      </trkpt>
      <trkpt lat="41.6923600" lon="-8.8178350">
        <ele>15.3</ele>
        <time>2021-05-17T15:35:00Z</time>
      </trkpt>
      <trkpt lat="41.6923670" lon="-8.8178470">
        <ele>15.3</ele>
        <time>2021-05-17T15:35:01Z</time>
      </trkpt>
      <trkpt lat="41.6923760" lon="-8.8178600">
        <ele>15.3</ele>
        <time>2021-05-17T15:35:02Z</time>
      </trkpt>
      <trkpt lat="41.6923820" lon="-8.8178740">
        <ele>15.3</ele>
        <time>2021-05-17T15:35:03Z</time>
      </trkpt>
      <trkpt lat="41.6923900" lon="-8.8178850">
        <ele>15.3</ele>
        <time>2021-05-17T15:35:04Z</time>
      </trkpt>
      <trkpt lat="41.6923940" lon="-8.8179000">
        <ele>15.3</ele>
        <time>2021-05-17T15:35:05Z</time>
      </trkpt>
      <trkpt lat="41.6924080" lon="-8.8179070">
        <ele>15.3</ele>
        <time>2021-05-17T15:35:06Z</time>
      </trkpt>
      <trkpt lat="41.6924270" lon="-8.8179250">
        <ele>15.3</ele>
        <time>2021-05-17T15:35:07Z</time>
      </trkpt>
      <trkpt lat="41.6924340" lon="-8.8179320">
        <ele>15.3</ele>
        <time>2021-05-17T15:35:08Z</time>
      </trkpt>
      <trkpt lat="41.6924410" lon="-8.8179390">
        <ele>15.3</ele>
        <time>2021-05-17T15:35:09Z</time>
      </trkpt>
      <trkpt lat="41.6924510" lon="-8.8179510">
        <ele>15.3</ele>
        <time>2021-05-17T15:35:10Z</time>
      </trkpt>
      <trkpt lat="41.6924570" lon="-8.8179640">
        <ele>15.3</ele>
        <time>2021-05-17T15:35:11Z</time>
      </trkpt>
      <trkpt lat="41.6924600" lon="-8.8179780">
        <ele>15.3</ele>
        <time>2021-05-17T15:35:12Z</time>
      </trkpt>
      <trkpt lat="41.6924730" lon="-8.8179980">
        <ele>15.3</ele>
        <time>2021-05-17T15:35:13Z</time>
      </trkpt>
      <trkpt lat="41.6924790" lon="-8.8180060">
        <ele>15.3</ele>
        <time>2021-05-17T15:35:14Z</time>
      </trkpt>
      <trkpt lat="41.6924860" lon="-8.8180150">
        <ele>15.3</ele>
        <time>2021-05-17T15:35:15Z</time>
      </trkpt>
      <trkpt lat="41.6924950" lon="-8.8180240">
        <ele>15.3</ele>
        <time>2021-05-17T15:35:16Z</time>
      </trkpt>
      <trkpt lat="41.6925050" lon="-8.8180370">
        <ele>15.3</ele>
        <time>2021-05-17T15:35:17Z</time>
      </trkpt>
      <trkpt lat="41.6925100" lon="-8.8180460">
        <ele>15.3</ele>
        <time>2021-05-17T15:35:18Z</time>
      </trkpt>
      <trkpt lat="41.6925250" lon="-8.8180690">
        <ele>15.3</ele>
        <time>2021-05-17T15:35:19Z</time>
      </trkpt>
      <trkpt lat="41.6925290" lon="-8.8180790">
        <ele>15.3</ele>
        <time>2021-05-17T15:35:20Z</time>
      </trkpt>
      <trkpt lat="41.6925330" lon="-8.8180880">
        <ele>15.3</ele>
        <time>2021-05-17T15:35:21Z</time>
      </trkpt>
      <trkpt lat="41.6925500" lon="-8.8181050">
        <ele>15.3</ele>
        <time>2021-05-17T15:35:22Z</time>
      </trkpt>
      <trkpt lat="41.6925570" lon="-8.8181110">
        <ele>15.3</ele>
        <time>2021-05-17T15:35:23Z</time>
      </trkpt>
      <trkpt lat="41.6925640" lon="-8.8181170">
        <ele>15.3</ele>
        <time>2021-05-17T15:35:24Z</time>
      </trkpt>
      <trkpt lat="41.6925710" lon="-8.8181310">
        <ele>15.3</ele>
        <time>2021-05-17T15:35:25Z</time>
      </trkpt>
      <trkpt lat="41.6925780" lon="-8.8181390">
        <ele>15.3</ele>
        <time>2021-05-17T15:35:26Z</time>
      </trkpt>
      <trkpt lat="41.6925880" lon="-8.8181480">
        <ele>15.3</ele>
        <time>2021-05-17T15:35:28Z</time>
      </trkpt>
      <trkpt lat="41.6925950" lon="-8.8181620">
        <ele>15.3</ele>
        <time>2021-05-17T15:35:29Z</time>
      </trkpt>
      <trkpt lat="41.6926090" lon="-8.8181760">
        <ele>15.3</ele>
        <time>2021-05-17T15:35:30Z</time>
      </trkpt>
      <trkpt lat="41.6926130" lon="-8.8181860">
        <ele>15.3</ele>
        <time>2021-05-17T15:35:31Z</time>
      </trkpt>
      <trkpt lat="41.6926220" lon="-8.8181920">
        <ele>15.3</ele>
        <time>2021-05-17T15:35:32Z</time>
      </trkpt>
      <trkpt lat="41.6926310" lon="-8.8182070">
        <ele>15.3</ele>
        <time>2021-05-17T15:35:33Z</time>
      </trkpt>
      <trkpt lat="41.6926460" lon="-8.8182280">
        <ele>15.3</ele>
        <time>2021-05-17T15:35:34Z</time>
      </trkpt>
      <trkpt lat="41.6926520" lon="-8.8182350">
        <ele>15.3</ele>
        <time>2021-05-17T15:35:35Z</time>
      </trkpt>
      <trkpt lat="41.6926570" lon="-8.8182410">
        <ele>15.3</ele>
        <time>2021-05-17T15:35:36Z</time>
      </trkpt>
      <trkpt lat="41.6926640" lon="-8.8182530">
        <ele>15.3</ele>
        <time>2021-05-17T15:35:37Z</time>
      </trkpt>
      <trkpt lat="41.6926750" lon="-8.8182620">
        <ele>15.3</ele>
        <time>2021-05-17T15:35:38Z</time>
      </trkpt>
      <trkpt lat="41.6926830" lon="-8.8182740">
        <ele>15.3</ele>
        <time>2021-05-17T15:35:39Z</time>
      </trkpt>
      <trkpt lat="41.6926940" lon="-8.8182800">
        <ele>15.3</ele>
        <time>2021-05-17T15:35:40Z</time>
      </trkpt>
      <trkpt lat="41.6927020" lon="-8.8182870">
        <ele>15.3</ele>
        <time>2021-05-17T15:35:41Z</time>
      </trkpt>
      <trkpt lat="41.6927230" lon="-8.8183000">
        <ele>15.3</ele>
        <time>2021-05-17T15:35:42Z</time>
      </trkpt>
      <trkpt lat="41.6927330" lon="-8.8183080">
        <ele>15.3</ele>
        <time>2021-05-17T15:35:43Z</time>
      </trkpt>
      <trkpt lat="41.6927390" lon="-8.8183200">
        <ele>15.3</ele>
        <time>2021-05-17T15:35:44Z</time>
      </trkpt>
      <trkpt lat="41.6927480" lon="-8.8183340">
        <ele>15.3</ele>
        <time>2021-05-17T15:35:45Z</time>
      </trkpt>
      <trkpt lat="41.6927570" lon="-8.8183450">
        <ele>15.3</ele>
        <time>2021-05-17T15:35:46Z</time>
      </trkpt>
      <trkpt lat="41.6927620" lon="-8.8183570">
        <ele>15.3</ele>
        <time>2021-05-17T15:35:47Z</time>
      </trkpt>
      <trkpt lat="41.6927680" lon="-8.8183690">
        <ele>15.3</ele>
        <time>2021-05-17T15:35:48Z</time>
      </trkpt>
      <trkpt lat="41.6927740" lon="-8.8183820">
        <ele>15.3</ele>
        <time>2021-05-17T15:35:49Z</time>
      </trkpt>
      <trkpt lat="41.6927780" lon="-8.8183890">
        <ele>15.3</ele>
        <time>2021-05-17T15:35:50Z</time>
      </trkpt>
      <trkpt lat="41.6927880" lon="-8.8184080">
        <ele>15.3</ele>
        <time>2021-05-17T15:35:51Z</time>
      </trkpt>
      <trkpt lat="41.6927970" lon="-8.8184210">
        <ele>15.3</ele>
        <time>2021-05-17T15:35:52Z</time>
      </trkpt>
      <trkpt lat="41.6928130" lon="-8.8184420">
        <ele>15.3</ele>
        <time>2021-05-17T15:35:53Z</time>
      </trkpt>
      <trkpt lat="41.6928200" lon="-8.8184500">
        <ele>15.3</ele>
        <time>2021-05-17T15:35:54Z</time>
      </trkpt>
      <trkpt lat="41.6928260" lon="-8.8184570">
        <ele>15.3</ele>
        <time>2021-05-17T15:35:55Z</time>
      </trkpt>
      <trkpt lat="41.6928340" lon="-8.8184640">
        <ele>15.3</ele>
        <time>2021-05-17T15:35:56Z</time>
      </trkpt>
      <trkpt lat="41.6928410" lon="-8.8184750">
        <ele>15.3</ele>
        <time>2021-05-17T15:35:57Z</time>
      </trkpt>
      <trkpt lat="41.6928480" lon="-8.8184840">
        <ele>15.3</ele>
        <time>2021-05-17T15:35:58Z</time>
      </trkpt>
      <trkpt lat="41.6928650" lon="-8.8185040">
        <ele>15.3</ele>
        <time>2021-05-17T15:35:59Z</time>
      </trkpt>
      <trkpt lat="41.6928710" lon="-8.8185120">
        <ele>15.3</ele>
        <time>2021-05-17T15:36:00Z</time>
      </trkpt>
      <trkpt lat="41.6928780" lon="-8.8185200">
        <ele>15.3</ele>
        <time>2021-05-17T15:36:01Z</time>
      </trkpt>
      <trkpt lat="41.6928890" lon="-8.8185310">
        <ele>15.3</ele>
        <time>2021-05-17T15:36:02Z</time>
      </trkpt>
      <trkpt lat="41.6928990" lon="-8.8185490">
        <ele>15.3</ele>
        <time>2021-05-17T15:36:03Z</time>
      </trkpt>
      <trkpt lat="41.6929110" lon="-8.8185630">
        <ele>15.3</ele>
        <time>2021-05-17T15:36:04Z</time>
      </trkpt>
      <trkpt lat="41.6929190" lon="-8.8185730">
        <ele>15.3</ele>
        <time>2021-05-17T15:36:05Z</time>
      </trkpt>
      <trkpt lat="41.6929340" lon="-8.8185900">
        <ele>15.3</ele>
        <time>2021-05-17T15:36:06Z</time>
      </trkpt>
      <trkpt lat="41.6929480" lon="-8.8185990">
        <ele>15.3</ele>
        <time>2021-05-17T15:36:07Z</time>
      </trkpt>
      <trkpt lat="41.6929600" lon="-8.8186100">
        <ele>15.3</ele>
        <time>2021-05-17T15:36:08Z</time>
      </trkpt>
      <trkpt lat="41.6929730" lon="-8.8186180">
        <ele>15.3</ele>
        <time>2021-05-17T15:36:09Z</time>
      </trkpt>
      <trkpt lat="41.6929830" lon="-8.8186220">
        <ele>15.3</ele>
        <time>2021-05-17T15:36:10Z</time>
      </trkpt>
      <trkpt lat="41.6929920" lon="-8.8186350">
        <ele>15.3</ele>
        <time>2021-05-17T15:36:11Z</time>
      </trkpt>
      <trkpt lat="41.6930000" lon="-8.8186500">
        <ele>15.3</ele>
        <time>2021-05-17T15:36:12Z</time>
      </trkpt>
      <trkpt lat="41.6930050" lon="-8.8186490">
        <ele>15.3</ele>
        <time>2021-05-17T15:36:13Z</time>
      </trkpt>
      <trkpt lat="41.6930200" lon="-8.8186660">
        <ele>15.2</ele>
        <time>2021-05-17T15:36:14Z</time>
      </trkpt>
      <trkpt lat="41.6930160" lon="-8.8186680">
        <ele>15.2</ele>
        <time>2021-05-17T15:36:15Z</time>
      </trkpt>
      <trkpt lat="41.6930190" lon="-8.8186700">
        <ele>15.2</ele>
        <time>2021-05-17T15:36:16Z</time>
      </trkpt>
      <trkpt lat="41.6930270" lon="-8.8186820">
        <ele>15.2</ele>
        <time>2021-05-17T15:36:17Z</time>
      </trkpt>
      <trkpt lat="41.6930420" lon="-8.8187160">
        <ele>15.2</ele>
        <time>2021-05-17T15:36:18Z</time>
      </trkpt>
      <trkpt lat="41.6930450" lon="-8.8187260">
        <ele>15.2</ele>
        <time>2021-05-17T15:36:19Z</time>
      </trkpt>
      <trkpt lat="41.6930540" lon="-8.8187410">
        <ele>15.2</ele>
        <time>2021-05-17T15:36:20Z</time>
      </trkpt>
      <trkpt lat="41.6930610" lon="-8.8187430">
        <ele>15.2</ele>
        <time>2021-05-17T15:36:21Z</time>
      </trkpt>
      <trkpt lat="41.6930710" lon="-8.8187600">
        <ele>15.2</ele>
        <time>2021-05-17T15:36:22Z</time>
      </trkpt>
      <trkpt lat="41.6930860" lon="-8.8187790">
        <ele>15.2</ele>
        <time>2021-05-17T15:36:23Z</time>
      </trkpt>
      <trkpt lat="41.6930920" lon="-8.8187870">
        <ele>15.2</ele>
        <time>2021-05-17T15:36:24Z</time>
      </trkpt>
      <trkpt lat="41.6930990" lon="-8.8187950">
        <ele>15.2</ele>
        <time>2021-05-17T15:36:25Z</time>
      </trkpt>
      <trkpt lat="41.6931080" lon="-8.8188050">
        <ele>15.2</ele>
        <time>2021-05-17T15:36:26Z</time>
      </trkpt>
      <trkpt lat="41.6931140" lon="-8.8188060">
        <ele>15.2</ele>
        <time>2021-05-17T15:36:27Z</time>
      </trkpt>
      <trkpt lat="41.6931280" lon="-8.8188240">
        <ele>15.2</ele>
        <time>2021-05-17T15:36:28Z</time>
      </trkpt>
      <trkpt lat="41.6931340" lon="-8.8188310">
        <ele>15.2</ele>
        <time>2021-05-17T15:36:29Z</time>
      </trkpt>
      <trkpt lat="41.6931430" lon="-8.8188440">
        <ele>15.2</ele>
        <time>2021-05-17T15:36:30Z</time>
      </trkpt>
      <trkpt lat="41.6931510" lon="-8.8188560">
        <ele>15.2</ele>
        <time>2021-05-17T15:36:31Z</time>
      </trkpt>
      <trkpt lat="41.6931580" lon="-8.8188640">
        <ele>15.2</ele>
        <time>2021-05-17T15:36:32Z</time>
      </trkpt>
      <trkpt lat="41.6931670" lon="-8.8188820">
        <ele>15.2</ele>
        <time>2021-05-17T15:36:33Z</time>
      </trkpt>
      <trkpt lat="41.6931720" lon="-8.8188920">
        <ele>15.2</ele>
        <time>2021-05-17T15:36:34Z</time>
      </trkpt>
      <trkpt lat="41.6931890" lon="-8.8189130">
        <ele>15.2</ele>
        <time>2021-05-17T15:36:35Z</time>
      </trkpt>
      <trkpt lat="41.6931970" lon="-8.8189250">
        <ele>15.2</ele>
        <time>2021-05-17T15:36:36Z</time>
      </trkpt>
      <trkpt lat="41.6932040" lon="-8.8189360">
        <ele>15.2</ele>
        <time>2021-05-17T15:36:37Z</time>
      </trkpt>
      <trkpt lat="41.6932140" lon="-8.8189410">
        <ele>15.2</ele>
        <time>2021-05-17T15:36:38Z</time>
      </trkpt>
      <trkpt lat="41.6932250" lon="-8.8189590">
        <ele>15.2</ele>
        <time>2021-05-17T15:36:39Z</time>
      </trkpt>
      <trkpt lat="41.6932370" lon="-8.8189740">
        <ele>15.2</ele>
        <time>2021-05-17T15:36:40Z</time>
      </trkpt>
      <trkpt lat="41.6932450" lon="-8.8189860">
        <ele>15.2</ele>
        <time>2021-05-17T15:36:41Z</time>
      </trkpt>
      <trkpt lat="41.6932610" lon="-8.8190030">
        <ele>15.2</ele>
        <time>2021-05-17T15:36:42Z</time>
      </trkpt>
      <trkpt lat="41.6932680" lon="-8.8190120">
        <ele>15.2</ele>
        <time>2021-05-17T15:36:43Z</time>
      </trkpt>
      <trkpt lat="41.6932760" lon="-8.8190200">
        <ele>15.2</ele>
        <time>2021-05-17T15:36:44Z</time>
      </trkpt>
      <trkpt lat="41.6932850" lon="-8.8190350">
        <ele>15.2</ele>
        <time>2021-05-17T15:36:45Z</time>
      </trkpt>
      <trkpt lat="41.6932910" lon="-8.8190500">
        <ele>15.2</ele>
        <time>2021-05-17T15:36:46Z</time>
      </trkpt>
      <trkpt lat="41.6932980" lon="-8.8190540">
        <ele>15.2</ele>
        <time>2021-05-17T15:36:47Z</time>
      </trkpt>
      <trkpt lat="41.6933020" lon="-8.8190620">
        <ele>15.2</ele>
        <time>2021-05-17T15:36:48Z</time>
      </trkpt>
      <trkpt lat="41.6933090" lon="-8.8190700">
        <ele>15.2</ele>
        <time>2021-05-17T15:36:49Z</time>
      </trkpt>
      <trkpt lat="41.6933190" lon="-8.8190810">
        <ele>15.2</ele>
        <time>2021-05-17T15:36:50Z</time>
      </trkpt>
      <trkpt lat="41.6933360" lon="-8.8190930">
        <ele>15.2</ele>
        <time>2021-05-17T15:36:51Z</time>
      </trkpt>
      <trkpt lat="41.6933430" lon="-8.8191000">
        <ele>15.2</ele>
        <time>2021-05-17T15:36:52Z</time>
      </trkpt>
      <trkpt lat="41.6933510" lon="-8.8191060">
        <ele>15.2</ele>
        <time>2021-05-17T15:36:53Z</time>
      </trkpt>
      <trkpt lat="41.6933600" lon="-8.8191190">
        <ele>15.2</ele>
        <time>2021-05-17T15:36:54Z</time>
      </trkpt>
      <trkpt lat="41.6933690" lon="-8.8191360">
        <ele>15.2</ele>
        <time>2021-05-17T15:36:55Z</time>
      </trkpt>
      <trkpt lat="41.6933790" lon="-8.8191480">
        <ele>15.2</ele>
        <time>2021-05-17T15:36:56Z</time>
      </trkpt>
      <trkpt lat="41.6933860" lon="-8.8191530">
        <ele>15.2</ele>
        <time>2021-05-17T15:36:57Z</time>
      </trkpt>
      <trkpt lat="41.6933960" lon="-8.8191660">
        <ele>15.2</ele>
        <time>2021-05-17T15:36:58Z</time>
      </trkpt>
      <trkpt lat="41.6934060" lon="-8.8191730">
        <ele>15.2</ele>
        <time>2021-05-17T15:36:59Z</time>
      </trkpt>
      <trkpt lat="41.6934100" lon="-8.8191810">
        <ele>15.2</ele>
        <time>2021-05-17T15:37:00Z</time>
      </trkpt>
      <trkpt lat="41.6934200" lon="-8.8191940">
        <ele>15.2</ele>
        <time>2021-05-17T15:37:01Z</time>
      </trkpt>
      <trkpt lat="41.6934320" lon="-8.8192120">
        <ele>15.2</ele>
        <time>2021-05-17T15:37:02Z</time>
      </trkpt>
      <trkpt lat="41.6934400" lon="-8.8192240">
        <ele>15.2</ele>
        <time>2021-05-17T15:37:03Z</time>
      </trkpt>
      <trkpt lat="41.6934530" lon="-8.8192330">
        <ele>15.2</ele>
        <time>2021-05-17T15:37:04Z</time>
      </trkpt>
      <trkpt lat="41.6934620" lon="-8.8192480">
        <ele>15.2</ele>
        <time>2021-05-17T15:37:05Z</time>
      </trkpt>
      <trkpt lat="41.6934720" lon="-8.8192600">
        <ele>15.2</ele>
        <time>2021-05-17T15:37:06Z</time>
      </trkpt>
      <trkpt lat="41.6934800" lon="-8.8192680">
        <ele>15.2</ele>
        <time>2021-05-17T15:37:07Z</time>
      </trkpt>
      <trkpt lat="41.6934840" lon="-8.8192740">
        <ele>15.2</ele>
        <time>2021-05-17T15:37:08Z</time>
      </trkpt>
      <trkpt lat="41.6934940" lon="-8.8192880">
        <ele>15.2</ele>
        <time>2021-05-17T15:37:09Z</time>
      </trkpt>
      <trkpt lat="41.6935050" lon="-8.8193000">
        <ele>15.2</ele>
        <time>2021-05-17T15:37:10Z</time>
      </trkpt>
      <trkpt lat="41.6935220" lon="-8.8193210">
        <ele>15.2</ele>
        <time>2021-05-17T15:37:11Z</time>
      </trkpt>
      <trkpt lat="41.6935270" lon="-8.8193310">
        <ele>15.2</ele>
        <time>2021-05-17T15:37:12Z</time>
      </trkpt>
      <trkpt lat="41.6935330" lon="-8.8193400">
        <ele>15.2</ele>
        <time>2021-05-17T15:37:13Z</time>
      </trkpt>
      <trkpt lat="41.6935400" lon="-8.8193480">
        <ele>15.2</ele>
        <time>2021-05-17T15:37:14Z</time>
      </trkpt>
      <trkpt lat="41.6935510" lon="-8.8193600">
        <ele>15.2</ele>
        <time>2021-05-17T15:37:15Z</time>
      </trkpt>
      <trkpt lat="41.6935590" lon="-8.8193660">
        <ele>15.2</ele>
        <time>2021-05-17T15:37:16Z</time>
      </trkpt>
      <trkpt lat="41.6935720" lon="-8.8193880">
        <ele>15.2</ele>
        <time>2021-05-17T15:37:17Z</time>
      </trkpt>
      <trkpt lat="41.6935760" lon="-8.8193970">
        <ele>15.2</ele>
        <time>2021-05-17T15:37:18Z</time>
      </trkpt>
      <trkpt lat="41.6935800" lon="-8.8194050">
        <ele>15.2</ele>
        <time>2021-05-17T15:37:19Z</time>
      </trkpt>
      <trkpt lat="41.6935870" lon="-8.8194260">
        <ele>15.2</ele>
        <time>2021-05-17T15:37:20Z</time>
      </trkpt>
      <trkpt lat="41.6935980" lon="-8.8194390">
        <ele>15.2</ele>
        <time>2021-05-17T15:37:21Z</time>
      </trkpt>
      <trkpt lat="41.6936040" lon="-8.8194460">
        <ele>15.2</ele>
        <time>2021-05-17T15:37:22Z</time>
      </trkpt>
      <trkpt lat="41.6936130" lon="-8.8194600">
        <ele>15.2</ele>
        <time>2021-05-17T15:37:23Z</time>
      </trkpt>
      <trkpt lat="41.6936230" lon="-8.8194710">
        <ele>15.2</ele>
        <time>2021-05-17T15:37:24Z</time>
      </trkpt>
      <trkpt lat="41.6936330" lon="-8.8194880">
        <ele>15.2</ele>
        <time>2021-05-17T15:37:25Z</time>
      </trkpt>
      <trkpt lat="41.6936400" lon="-8.8194970">
        <ele>15.2</ele>
        <time>2021-05-17T15:37:26Z</time>
      </trkpt>
      <trkpt lat="41.6936470" lon="-8.8195020">
        <ele>15.2</ele>
        <time>2021-05-17T15:37:27Z</time>
      </trkpt>
      <trkpt lat="41.6936610" lon="-8.8195250">
        <ele>15.2</ele>
        <time>2021-05-17T15:37:28Z</time>
      </trkpt>
      <trkpt lat="41.6936680" lon="-8.8195330">
        <ele>15.2</ele>
        <time>2021-05-17T15:37:30Z</time>
      </trkpt>
      <trkpt lat="41.6936760" lon="-8.8195410">
        <ele>15.2</ele>
        <time>2021-05-17T15:37:31Z</time>
      </trkpt>
      <trkpt lat="41.6936800" lon="-8.8195520">
        <ele>15.2</ele>
        <time>2021-05-17T15:37:32Z</time>
      </trkpt>
      <trkpt lat="41.6936840" lon="-8.8195610">
        <ele>15.2</ele>
        <time>2021-05-17T15:37:33Z</time>
      </trkpt>
      <trkpt lat="41.6936910" lon="-8.8195720">
        <ele>15.2</ele>
        <time>2021-05-17T15:37:34Z</time>
      </trkpt>
      <trkpt lat="41.6937070" lon="-8.8195910">
        <ele>15.2</ele>
        <time>2021-05-17T15:37:35Z</time>
      </trkpt>
      <trkpt lat="41.6937130" lon="-8.8195980">
        <ele>15.2</ele>
        <time>2021-05-17T15:37:36Z</time>
      </trkpt>
      <trkpt lat="41.6937190" lon="-8.8196040">
        <ele>15.2</ele>
        <time>2021-05-17T15:37:37Z</time>
      </trkpt>
      <trkpt lat="41.6937360" lon="-8.8196260">
        <ele>15.2</ele>
        <time>2021-05-17T15:37:38Z</time>
      </trkpt>
      <trkpt lat="41.6937430" lon="-8.8196320">
        <ele>15.2</ele>
        <time>2021-05-17T15:37:39Z</time>
      </trkpt>
      <trkpt lat="41.6937500" lon="-8.8196390">
        <ele>15.2</ele>
        <time>2021-05-17T15:37:40Z</time>
      </trkpt>
      <trkpt lat="41.6937650" lon="-8.8196570">
        <ele>15.2</ele>
        <time>2021-05-17T15:37:41Z</time>
      </trkpt>
      <trkpt lat="41.6937720" lon="-8.8196640">
        <ele>15.2</ele>
        <time>2021-05-17T15:37:42Z</time>
      </trkpt>
      <trkpt lat="41.6937780" lon="-8.8196710">
        <ele>15.2</ele>
        <time>2021-05-17T15:37:43Z</time>
      </trkpt>
      <trkpt lat="41.6937860" lon="-8.8196820">
        <ele>15.2</ele>
        <time>2021-05-17T15:37:44Z</time>
      </trkpt>
      <trkpt lat="41.6937920" lon="-8.8196900">
        <ele>15.2</ele>
        <time>2021-05-17T15:37:45Z</time>
      </trkpt>
      <trkpt lat="41.6938010" lon="-8.8197040">
        <ele>15.2</ele>
        <time>2021-05-17T15:37:46Z</time>
      </trkpt>
      <trkpt lat="41.6938080" lon="-8.8197180">
        <ele>15.2</ele>
        <time>2021-05-17T15:37:47Z</time>
      </trkpt>
      <trkpt lat="41.6938240" lon="-8.8197380">
        <ele>15.2</ele>
        <time>2021-05-17T15:37:48Z</time>
      </trkpt>
      <trkpt lat="41.6938360" lon="-8.8197560">
        <ele>15.2</ele>
        <time>2021-05-17T15:37:49Z</time>
      </trkpt>
      <trkpt lat="41.6938450" lon="-8.8197690">
        <ele>15.2</ele>
        <time>2021-05-17T15:37:50Z</time>
      </trkpt>
      <trkpt lat="41.6938540" lon="-8.8197790">
        <ele>15.2</ele>
        <time>2021-05-17T15:37:51Z</time>
      </trkpt>
      <trkpt lat="41.6938680" lon="-8.8197930">
        <ele>15.2</ele>
        <time>2021-05-17T15:37:52Z</time>
      </trkpt>
      <trkpt lat="41.6938780" lon="-8.8198040">
        <ele>15.2</ele>
        <time>2021-05-17T15:37:53Z</time>
      </trkpt>
      <trkpt lat="41.6938850" lon="-8.8198120">
        <ele>15.2</ele>
        <time>2021-05-17T15:37:54Z</time>
      </trkpt>
      <trkpt lat="41.6938910" lon="-8.8198210">
        <ele>15.2</ele>
        <time>2021-05-17T15:37:55Z</time>
      </trkpt>
      <trkpt lat="41.6938970" lon="-8.8198290">
        <ele>15.2</ele>
        <time>2021-05-17T15:37:56Z</time>
      </trkpt>
      <trkpt lat="41.6939130" lon="-8.8198470">
        <ele>15.2</ele>
        <time>2021-05-17T15:37:57Z</time>
      </trkpt>
      <trkpt lat="41.6939200" lon="-8.8198530">
        <ele>15.2</ele>
        <time>2021-05-17T15:37:58Z</time>
      </trkpt>
      <trkpt lat="41.6939260" lon="-8.8198600">
        <ele>15.2</ele>
        <time>2021-05-17T15:37:59Z</time>
      </trkpt>
      <trkpt lat="41.6939320" lon="-8.8198670">
        <ele>15.2</ele>
        <time>2021-05-17T15:38:00Z</time>
      </trkpt>
      <trkpt lat="41.6939410" lon="-8.8198770">
        <ele>15.2</ele>
        <time>2021-05-17T15:38:01Z</time>
      </trkpt>
      <trkpt lat="41.6939540" lon="-8.8198880">
        <ele>15.2</ele>
        <time>2021-05-17T15:38:02Z</time>
      </trkpt>
      <trkpt lat="41.6939610" lon="-8.8199010">
        <ele>15.2</ele>
        <time>2021-05-17T15:38:03Z</time>
      </trkpt>
      <trkpt lat="41.6939690" lon="-8.8199100">
        <ele>15.2</ele>
        <time>2021-05-17T15:38:04Z</time>
      </trkpt>
      <trkpt lat="41.6939770" lon="-8.8199190">
        <ele>15.2</ele>
        <time>2021-05-17T15:38:05Z</time>
      </trkpt>
      <trkpt lat="41.6939930" lon="-8.8199380">
        <ele>15.2</ele>
        <time>2021-05-17T15:38:06Z</time>
      </trkpt>
      <trkpt lat="41.6940000" lon="-8.8199480">
        <ele>15.2</ele>
        <time>2021-05-17T15:38:07Z</time>
      </trkpt>
      <trkpt lat="41.6940070" lon="-8.8199570">
        <ele>15.2</ele>
        <time>2021-05-17T15:38:08Z</time>
      </trkpt>
      <trkpt lat="41.6940110" lon="-8.8199690">
        <ele>15.2</ele>
        <time>2021-05-17T15:38:09Z</time>
      </trkpt>
      <trkpt lat="41.6940190" lon="-8.8199790">
        <ele>15.2</ele>
        <time>2021-05-17T15:38:10Z</time>
      </trkpt>
      <trkpt lat="41.6940290" lon="-8.8199890">
        <ele>15.2</ele>
        <time>2021-05-17T15:38:11Z</time>
      </trkpt>
      <trkpt lat="41.6940440" lon="-8.8200060">
        <ele>15.2</ele>
        <time>2021-05-17T15:38:12Z</time>
      </trkpt>
      <trkpt lat="41.6940500" lon="-8.8200170">
        <ele>15.2</ele>
        <time>2021-05-17T15:38:13Z</time>
      </trkpt>
      <trkpt lat="41.6940550" lon="-8.8200270">
        <ele>15.2</ele>
        <time>2021-05-17T15:38:14Z</time>
      </trkpt>
      <trkpt lat="41.6940680" lon="-8.8200450">
        <ele>15.2</ele>
        <time>2021-05-17T15:38:15Z</time>
      </trkpt>
      <trkpt lat="41.6940750" lon="-8.8200530">
        <ele>15.2</ele>
        <time>2021-05-17T15:38:16Z</time>
      </trkpt>
      <trkpt lat="41.6940810" lon="-8.8200620">
        <ele>15.1</ele>
        <time>2021-05-17T15:38:17Z</time>
      </trkpt>
      <trkpt lat="41.6940910" lon="-8.8200840">
        <ele>15.1</ele>
        <time>2021-05-17T15:38:18Z</time>
      </trkpt>
      <trkpt lat="41.6940980" lon="-8.8200960">
        <ele>15.1</ele>
        <time>2021-05-17T15:38:19Z</time>
      </trkpt>
      <trkpt lat="41.6941040" lon="-8.8201070">
        <ele>15.1</ele>
        <time>2021-05-17T15:38:20Z</time>
      </trkpt>
      <trkpt lat="41.6941110" lon="-8.8201160">
        <ele>15.1</ele>
        <time>2021-05-17T15:38:21Z</time>
      </trkpt>
      <trkpt lat="41.6941150" lon="-8.8201280">
        <ele>15.1</ele>
        <time>2021-05-17T15:38:22Z</time>
      </trkpt>
      <trkpt lat="41.6941240" lon="-8.8201380">
        <ele>15.1</ele>
        <time>2021-05-17T15:38:23Z</time>
      </trkpt>
      <trkpt lat="41.6941410" lon="-8.8201550">
        <ele>15.1</ele>
        <time>2021-05-17T15:38:24Z</time>
      </trkpt>
      <trkpt lat="41.6941480" lon="-8.8201630">
        <ele>15.1</ele>
        <time>2021-05-17T15:38:25Z</time>
      </trkpt>
      <trkpt lat="41.6941560" lon="-8.8201720">
        <ele>15.1</ele>
        <time>2021-05-17T15:38:26Z</time>
      </trkpt>
      <trkpt lat="41.6941640" lon="-8.8201810">
        <ele>15.1</ele>
        <time>2021-05-17T15:38:27Z</time>
      </trkpt>
      <trkpt lat="41.6941690" lon="-8.8201870">
        <ele>15.1</ele>
        <time>2021-05-17T15:38:28Z</time>
      </trkpt>
      <trkpt lat="41.6941780" lon="-8.8202050">
        <ele>15.1</ele>
        <time>2021-05-17T15:38:29Z</time>
      </trkpt>
      <trkpt lat="41.6941870" lon="-8.8202100">
        <ele>15.1</ele>
        <time>2021-05-17T15:38:30Z</time>
      </trkpt>
      <trkpt lat="41.6941940" lon="-8.8202220">
        <ele>15.1</ele>
        <time>2021-05-17T15:38:31Z</time>
      </trkpt>
      <trkpt lat="41.6942090" lon="-8.8202310">
        <ele>15.1</ele>
        <time>2021-05-17T15:38:32Z</time>
      </trkpt>
      <trkpt lat="41.6942160" lon="-8.8202400">
        <ele>15.0</ele>
        <time>2021-05-17T15:38:33Z</time>
      </trkpt>
      <trkpt lat="41.6942240" lon="-8.8202560">
        <ele>15.0</ele>
        <time>2021-05-17T15:38:34Z</time>
      </trkpt>
      <trkpt lat="41.6942310" lon="-8.8202650">
        <ele>15.0</ele>
        <time>2021-05-17T15:38:35Z</time>
      </trkpt>
      <trkpt lat="41.6942330" lon="-8.8202770">
        <ele>15.0</ele>
        <time>2021-05-17T15:38:36Z</time>
      </trkpt>
      <trkpt lat="41.6942450" lon="-8.8202930">
        <ele>15.0</ele>
        <time>2021-05-17T15:38:37Z</time>
      </trkpt>
      <trkpt lat="41.6942500" lon="-8.8203030">
        <ele>15.0</ele>
        <time>2021-05-17T15:38:38Z</time>
      </trkpt>
      <trkpt lat="41.6942590" lon="-8.8203170">
        <ele>15.0</ele>
        <time>2021-05-17T15:38:39Z</time>
      </trkpt>
      <trkpt lat="41.6942660" lon="-8.8203270">
        <ele>15.0</ele>
        <time>2021-05-17T15:38:40Z</time>
      </trkpt>
      <trkpt lat="41.6942710" lon="-8.8203380">
        <ele>15.0</ele>
        <time>2021-05-17T15:38:41Z</time>
      </trkpt>
      <trkpt lat="41.6942820" lon="-8.8203510">
        <ele>15.0</ele>
        <time>2021-05-17T15:38:42Z</time>
      </trkpt>
      <trkpt lat="41.6942940" lon="-8.8203580">
        <ele>15.0</ele>
        <time>2021-05-17T15:38:43Z</time>
      </trkpt>
      <trkpt lat="41.6943080" lon="-8.8203800">
        <ele>15.0</ele>
        <time>2021-05-17T15:38:44Z</time>
      </trkpt>
      <trkpt lat="41.6943140" lon="-8.8203880">
        <ele>15.0</ele>
        <time>2021-05-17T15:38:45Z</time>
      </trkpt>
      <trkpt lat="41.6943190" lon="-8.8203950">
        <ele>15.0</ele>
        <time>2021-05-17T15:38:46Z</time>
      </trkpt>
      <trkpt lat="41.6943330" lon="-8.8204140">
        <ele>15.0</ele>
        <time>2021-05-17T15:38:47Z</time>
      </trkpt>
      <trkpt lat="41.6943380" lon="-8.8204220">
        <ele>15.0</ele>
        <time>2021-05-17T15:38:48Z</time>
      </trkpt>
      <trkpt lat="41.6943440" lon="-8.8204310">
        <ele>15.0</ele>
        <time>2021-05-17T15:38:49Z</time>
      </trkpt>
      <trkpt lat="41.6943550" lon="-8.8204430">
        <ele>15.0</ele>
        <time>2021-05-17T15:38:50Z</time>
      </trkpt>
      <trkpt lat="41.6943650" lon="-8.8204540">
        <ele>15.0</ele>
        <time>2021-05-17T15:38:51Z</time>
      </trkpt>
      <trkpt lat="41.6943800" lon="-8.8204700">
        <ele>15.0</ele>
        <time>2021-05-17T15:38:52Z</time>
      </trkpt>
      <trkpt lat="41.6943890" lon="-8.8204840">
        <ele>15.0</ele>
        <time>2021-05-17T15:38:53Z</time>
      </trkpt>
      <trkpt lat="41.6944040" lon="-8.8204960">
        <ele>15.0</ele>
        <time>2021-05-17T15:38:54Z</time>
      </trkpt>
      <trkpt lat="41.6944130" lon="-8.8205100">
        <ele>15.0</ele>
        <time>2021-05-17T15:38:55Z</time>
      </trkpt>
      <trkpt lat="41.6944170" lon="-8.8205170">
        <ele>15.0</ele>
        <time>2021-05-17T15:38:56Z</time>
      </trkpt>
      <trkpt lat="41.6944280" lon="-8.8205240">
        <ele>15.0</ele>
        <time>2021-05-17T15:38:57Z</time>
      </trkpt>
      <trkpt lat="41.6944370" lon="-8.8205330">
        <ele>15.0</ele>
        <time>2021-05-17T15:38:58Z</time>
      </trkpt>
      <trkpt lat="41.6944480" lon="-8.8205420">
        <ele>15.0</ele>
        <time>2021-05-17T15:38:59Z</time>
      </trkpt>
      <trkpt lat="41.6944600" lon="-8.8205570">
        <ele>15.0</ele>
        <time>2021-05-17T15:39:00Z</time>
      </trkpt>
      <trkpt lat="41.6944720" lon="-8.8205670">
        <ele>15.0</ele>
        <time>2021-05-17T15:39:01Z</time>
      </trkpt>
      <trkpt lat="41.6944780" lon="-8.8205760">
        <ele>15.0</ele>
        <time>2021-05-17T15:39:02Z</time>
      </trkpt>
      <trkpt lat="41.6944860" lon="-8.8205860">
        <ele>15.0</ele>
        <time>2021-05-17T15:39:03Z</time>
      </trkpt>
      <trkpt lat="41.6944930" lon="-8.8205990">
        <ele>15.0</ele>
        <time>2021-05-17T15:39:04Z</time>
      </trkpt>
      <trkpt lat="41.6945030" lon="-8.8206160">
        <ele>15.0</ele>
        <time>2021-05-17T15:39:05Z</time>
      </trkpt>
      <trkpt lat="41.6945100" lon="-8.8206270">
        <ele>15.0</ele>
        <time>2021-05-17T15:39:06Z</time>
      </trkpt>
      <trkpt lat="41.6945190" lon="-8.8206330">
        <ele>15.0</ele>
        <time>2021-05-17T15:39:07Z</time>
      </trkpt>
      <trkpt lat="41.6945240" lon="-8.8206450">
        <ele>15.0</ele>
        <time>2021-05-17T15:39:08Z</time>
      </trkpt>
      <trkpt lat="41.6945370" lon="-8.8206490">
        <ele>15.0</ele>
        <time>2021-05-17T15:39:09Z</time>
      </trkpt>
      <trkpt lat="41.6945530" lon="-8.8206610">
        <ele>15.0</ele>
        <time>2021-05-17T15:39:10Z</time>
      </trkpt>
      <trkpt lat="41.6945680" lon="-8.8206820">
        <ele>15.0</ele>
        <time>2021-05-17T15:39:11Z</time>
      </trkpt>
      <trkpt lat="41.6945740" lon="-8.8206900">
        <ele>15.0</ele>
        <time>2021-05-17T15:39:12Z</time>
      </trkpt>
      <trkpt lat="41.6945790" lon="-8.8206990">
        <ele>15.0</ele>
        <time>2021-05-17T15:39:13Z</time>
      </trkpt>
      <trkpt lat="41.6945920" lon="-8.8207080">
        <ele>15.0</ele>
        <time>2021-05-17T15:39:14Z</time>
      </trkpt>
      <trkpt lat="41.6946000" lon="-8.8207210">
        <ele>15.0</ele>
        <time>2021-05-17T15:39:15Z</time>
      </trkpt>
      <trkpt lat="41.6946050" lon="-8.8207260">
        <ele>15.0</ele>
        <time>2021-05-17T15:39:16Z</time>
      </trkpt>
      <trkpt lat="41.6946160" lon="-8.8207410">
        <ele>15.0</ele>
        <time>2021-05-17T15:39:17Z</time>
      </trkpt>
      <trkpt lat="41.6946190" lon="-8.8207580">
        <ele>15.0</ele>
        <time>2021-05-17T15:39:18Z</time>
      </trkpt>
      <trkpt lat="41.6946270" lon="-8.8207680">
        <ele>15.0</ele>
        <time>2021-05-17T15:39:19Z</time>
      </trkpt>
      <trkpt lat="41.6946360" lon="-8.8207770">
        <ele>15.0</ele>
        <time>2021-05-17T15:39:20Z</time>
      </trkpt>
      <trkpt lat="41.6946450" lon="-8.8207910">
        <ele>15.0</ele>
        <time>2021-05-17T15:39:21Z</time>
      </trkpt>
      <trkpt lat="41.6946520" lon="-8.8207980">
        <ele>15.0</ele>
        <time>2021-05-17T15:39:22Z</time>
      </trkpt>
      <trkpt lat="41.6946630" lon="-8.8208060">
        <ele>15.0</ele>
        <time>2021-05-17T15:39:23Z</time>
      </trkpt>
      <trkpt lat="41.6946710" lon="-8.8208220">
        <ele>15.0</ele>
        <time>2021-05-17T15:39:24Z</time>
      </trkpt>
      <trkpt lat="41.6946760" lon="-8.8208300">
        <ele>15.0</ele>
        <time>2021-05-17T15:39:25Z</time>
      </trkpt>
      <trkpt lat="41.6946810" lon="-8.8208470">
        <ele>15.0</ele>
        <time>2021-05-17T15:39:26Z</time>
      </trkpt>
      <trkpt lat="41.6946890" lon="-8.8208630">
        <ele>15.0</ele>
        <time>2021-05-17T15:39:27Z</time>
      </trkpt>
      <trkpt lat="41.6947050" lon="-8.8208820">
        <ele>15.0</ele>
        <time>2021-05-17T15:39:28Z</time>
      </trkpt>
      <trkpt lat="41.6947120" lon="-8.8208960">
        <ele>15.0</ele>
        <time>2021-05-17T15:39:29Z</time>
      </trkpt>
      <trkpt lat="41.6947230" lon="-8.8209070">
        <ele>15.0</ele>
        <time>2021-05-17T15:39:30Z</time>
      </trkpt>
      <trkpt lat="41.6947350" lon="-8.8209210">
        <ele>15.0</ele>
        <time>2021-05-17T15:39:31Z</time>
      </trkpt>
      <trkpt lat="41.6947460" lon="-8.8209280">
        <ele>15.0</ele>
        <time>2021-05-17T15:39:32Z</time>
      </trkpt>
      <trkpt lat="41.6947540" lon="-8.8209380">
        <ele>15.0</ele>
        <time>2021-05-17T15:39:34Z</time>
      </trkpt>
      <trkpt lat="41.6947570" lon="-8.8209440">
        <ele>15.0</ele>
        <time>2021-05-17T15:39:35Z</time>
      </trkpt>
      <trkpt lat="41.6947710" lon="-8.8209600">
        <ele>15.0</ele>
        <time>2021-05-17T15:39:36Z</time>
      </trkpt>
      <trkpt lat="41.6947830" lon="-8.8209710">
        <ele>15.0</ele>
        <time>2021-05-17T15:39:37Z</time>
      </trkpt>
      <trkpt lat="41.6947930" lon="-8.8209850">
        <ele>15.0</ele>
        <time>2021-05-17T15:39:38Z</time>
      </trkpt>
      <trkpt lat="41.6948040" lon="-8.8209940">
        <ele>15.0</ele>
        <time>2021-05-17T15:39:39Z</time>
      </trkpt>
      <trkpt lat="41.6948110" lon="-8.8210020">
        <ele>14.9</ele>
        <time>2021-05-17T15:39:40Z</time>
      </trkpt>
      <trkpt lat="41.6948170" lon="-8.8210120">
        <ele>14.9</ele>
        <time>2021-05-17T15:39:41Z</time>
      </trkpt>
      <trkpt lat="41.6948230" lon="-8.8210230">
        <ele>14.9</ele>
        <time>2021-05-17T15:39:42Z</time>
      </trkpt>
      <trkpt lat="41.6948300" lon="-8.8210340">
        <ele>14.9</ele>
        <time>2021-05-17T15:39:43Z</time>
      </trkpt>
      <trkpt lat="41.6948370" lon="-8.8210490">
        <ele>14.9</ele>
        <time>2021-05-17T15:39:44Z</time>
      </trkpt>
      <trkpt lat="41.6948400" lon="-8.8210590">
        <ele>14.9</ele>
        <time>2021-05-17T15:39:45Z</time>
      </trkpt>
      <trkpt lat="41.6948440" lon="-8.8210730">
        <ele>14.9</ele>
        <time>2021-05-17T15:39:46Z</time>
      </trkpt>
      <trkpt lat="41.6948530" lon="-8.8210910">
        <ele>14.9</ele>
        <time>2021-05-17T15:39:47Z</time>
      </trkpt>
      <trkpt lat="41.6948590" lon="-8.8210990">
        <ele>14.9</ele>
        <time>2021-05-17T15:39:48Z</time>
      </trkpt>
      <trkpt lat="41.6948660" lon="-8.8211090">
        <ele>14.9</ele>
        <time>2021-05-17T15:39:49Z</time>
      </trkpt>
      <trkpt lat="41.6948780" lon="-8.8211230">
        <ele>14.9</ele>
        <time>2021-05-17T15:39:50Z</time>
      </trkpt>
      <trkpt lat="41.6948840" lon="-8.8211290">
        <ele>14.9</ele>
        <time>2021-05-17T15:39:51Z</time>
      </trkpt>
      <trkpt lat="41.6948910" lon="-8.8211380">
        <ele>14.9</ele>
        <time>2021-05-17T15:39:52Z</time>
      </trkpt>
      <trkpt lat="41.6948990" lon="-8.8211460">
        <ele>14.9</ele>
        <time>2021-05-17T15:39:53Z</time>
      </trkpt>
      <trkpt lat="41.6949050" lon="-8.8211760">
        <ele>14.8</ele>
        <time>2021-05-17T15:39:54Z</time>
      </trkpt>
      <trkpt lat="41.6949140" lon="-8.8211990">
        <ele>14.8</ele>
        <time>2021-05-17T15:39:55Z</time>
      </trkpt>
      <trkpt lat="41.6949150" lon="-8.8212130">
        <ele>14.8</ele>
        <time>2021-05-17T15:39:56Z</time>
      </trkpt>
      <trkpt lat="41.6949210" lon="-8.8212240">
        <ele>14.8</ele>
        <time>2021-05-17T15:39:57Z</time>
      </trkpt>
      <trkpt lat="41.6949200" lon="-8.8212360">
        <ele>14.7</ele>
        <time>2021-05-17T15:39:58Z</time>
      </trkpt>
      <trkpt lat="41.6949260" lon="-8.8212520">
        <ele>14.7</ele>
        <time>2021-05-17T15:39:59Z</time>
      </trkpt>
      <trkpt lat="41.6949330" lon="-8.8212720">
        <ele>14.7</ele>
        <time>2021-05-17T15:40:00Z</time>
      </trkpt>
      <trkpt lat="41.6949360" lon="-8.8212800">
        <ele>14.7</ele>
        <time>2021-05-17T15:40:01Z</time>
      </trkpt>
      <trkpt lat="41.6949400" lon="-8.8212890">
        <ele>14.7</ele>
        <time>2021-05-17T15:40:02Z</time>
      </trkpt>
      <trkpt lat="41.6949430" lon="-8.8212980">
        <ele>14.6</ele>
        <time>2021-05-17T15:40:03Z</time>
      </trkpt>
      <trkpt lat="41.6949540" lon="-8.8213220">
        <ele>14.6</ele>
        <time>2021-05-17T15:40:04Z</time>
      </trkpt>
      <trkpt lat="41.6949610" lon="-8.8213290">
        <ele>14.6</ele>
        <time>2021-05-17T15:40:05Z</time>
      </trkpt>
      <trkpt lat="41.6949680" lon="-8.8213370">
        <ele>14.5</ele>
        <time>2021-05-17T15:40:06Z</time>
      </trkpt>
      <trkpt lat="41.6949780" lon="-8.8213480">
        <ele>14.5</ele>
        <time>2021-05-17T15:40:07Z</time>
      </trkpt>
      <trkpt lat="41.6949880" lon="-8.8213610">
        <ele>14.5</ele>
        <time>2021-05-17T15:40:08Z</time>
      </trkpt>
      <trkpt lat="41.6949980" lon="-8.8213690">
        <ele>14.4</ele>
        <time>2021-05-17T15:40:09Z</time>
      </trkpt>
      <trkpt lat="41.6950030" lon="-8.8213840">
        <ele>14.4</ele>
        <time>2021-05-17T15:40:10Z</time>
      </trkpt>
      <trkpt lat="41.6950080" lon="-8.8213960">
        <ele>14.3</ele>
        <time>2021-05-17T15:40:11Z</time>
      </trkpt>
      <trkpt lat="41.6950160" lon="-8.8214080">
        <ele>14.3</ele>
        <time>2021-05-17T15:40:12Z</time>
      </trkpt>
      <trkpt lat="41.6950220" lon="-8.8214200">
        <ele>14.2</ele>
        <time>2021-05-17T15:40:13Z</time>
      </trkpt>
      <trkpt lat="41.6950290" lon="-8.8214310">
        <ele>14.2</ele>
        <time>2021-05-17T15:40:14Z</time>
      </trkpt>
      <trkpt lat="41.6950350" lon="-8.8214400">
        <ele>14.2</ele>
        <time>2021-05-17T15:40:15Z</time>
      </trkpt>
      <trkpt lat="41.6950470" lon="-8.8214540">
        <ele>14.1</ele>
        <time>2021-05-17T15:40:16Z</time>
      </trkpt>
      <trkpt lat="41.6950520" lon="-8.8214640">
        <ele>14.0</ele>
        <time>2021-05-17T15:40:17Z</time>
      </trkpt>
      <trkpt lat="41.6950670" lon="-8.8214840">
        <ele>13.9</ele>
        <time>2021-05-17T15:40:18Z</time>
      </trkpt>
      <trkpt lat="41.6950740" lon="-8.8214920">
        <ele>13.9</ele>
        <time>2021-05-17T15:40:19Z</time>
      </trkpt>
      <trkpt lat="41.6950810" lon="-8.8214990">
        <ele>13.8</ele>
        <time>2021-05-17T15:40:20Z</time>
      </trkpt>
      <trkpt lat="41.6950960" lon="-8.8215160">
        <ele>13.7</ele>
        <time>2021-05-17T15:40:21Z</time>
      </trkpt>
      <trkpt lat="41.6951030" lon="-8.8215230">
        <ele>13.7</ele>
        <time>2021-05-17T15:40:22Z</time>
      </trkpt>
      <trkpt lat="41.6951110" lon="-8.8215310">
        <ele>13.6</ele>
        <time>2021-05-17T15:40:23Z</time>
      </trkpt>
      <trkpt lat="41.6951210" lon="-8.8215380">
        <ele>13.6</ele>
        <time>2021-05-17T15:40:24Z</time>
      </trkpt>
      <trkpt lat="41.6951280" lon="-8.8215460">
        <ele>13.5</ele>
        <time>2021-05-17T15:40:25Z</time>
      </trkpt>
      <trkpt lat="41.6951340" lon="-8.8215530">
        <ele>13.5</ele>
        <time>2021-05-17T15:40:26Z</time>
      </trkpt>
      <trkpt lat="41.6951480" lon="-8.8215730">
        <ele>13.4</ele>
        <time>2021-05-17T15:40:27Z</time>
      </trkpt>
      <trkpt lat="41.6951560" lon="-8.8215810">
        <ele>13.3</ele>
        <time>2021-05-17T15:40:28Z</time>
      </trkpt>
      <trkpt lat="41.6951640" lon="-8.8215890">
        <ele>13.3</ele>
        <time>2021-05-17T15:40:29Z</time>
      </trkpt>
      <trkpt lat="41.6951760" lon="-8.8215990">
        <ele>13.2</ele>
        <time>2021-05-17T15:40:30Z</time>
      </trkpt>
      <trkpt lat="41.6951810" lon="-8.8216090">
        <ele>13.1</ele>
        <time>2021-05-17T15:40:31Z</time>
      </trkpt>
      <trkpt lat="41.6951870" lon="-8.8216230">
        <ele>13.1</ele>
        <time>2021-05-17T15:40:32Z</time>
      </trkpt>
      <trkpt lat="41.6951960" lon="-8.8216370">
        <ele>13.0</ele>
        <time>2021-05-17T15:40:33Z</time>
      </trkpt>
      <trkpt lat="41.6952070" lon="-8.8216490">
        <ele>12.9</ele>
        <time>2021-05-17T15:40:34Z</time>
      </trkpt>
      <trkpt lat="41.6952250" lon="-8.8216620">
        <ele>12.8</ele>
        <time>2021-05-17T15:40:35Z</time>
      </trkpt>
      <trkpt lat="41.6952320" lon="-8.8216680">
        <ele>12.8</ele>
        <time>2021-05-17T15:40:36Z</time>
      </trkpt>
      <trkpt lat="41.6952390" lon="-8.8216730">
        <ele>12.7</ele>
        <time>2021-05-17T15:40:37Z</time>
      </trkpt>
      <trkpt lat="41.6952490" lon="-8.8216870">
        <ele>12.6</ele>
        <time>2021-05-17T15:40:38Z</time>
      </trkpt>
      <trkpt lat="41.6952590" lon="-8.8217000">
        <ele>12.6</ele>
        <time>2021-05-17T15:40:39Z</time>
      </trkpt>
      <trkpt lat="41.6952650" lon="-8.8217110">
        <ele>12.5</ele>
        <time>2021-05-17T15:40:40Z</time>
      </trkpt>
      <trkpt lat="41.6952700" lon="-8.8217260">
        <ele>12.4</ele>
        <time>2021-05-17T15:40:41Z</time>
      </trkpt>
      <trkpt lat="41.6952810" lon="-8.8217330">
        <ele>12.4</ele>
        <time>2021-05-17T15:40:42Z</time>
      </trkpt>
      <trkpt lat="41.6952970" lon="-8.8217500">
        <ele>12.2</ele>
        <time>2021-05-17T15:40:43Z</time>
      </trkpt>
      <trkpt lat="41.6953010" lon="-8.8217600">
        <ele>12.2</ele>
        <time>2021-05-17T15:40:44Z</time>
      </trkpt>
      <trkpt lat="41.6953150" lon="-8.8217810">
        <ele>12.1</ele>
        <time>2021-05-17T15:40:45Z</time>
      </trkpt>
      <trkpt lat="41.6953210" lon="-8.8217910">
        <ele>12.0</ele>
        <time>2021-05-17T15:40:46Z</time>
      </trkpt>
      <trkpt lat="41.6953270" lon="-8.8218020">
        <ele>12.0</ele>
        <time>2021-05-17T15:40:47Z</time>
      </trkpt>
      <trkpt lat="41.6953310" lon="-8.8218150">
        <ele>11.9</ele>
        <time>2021-05-17T15:40:48Z</time>
      </trkpt>
      <trkpt lat="41.6953410" lon="-8.8218250">
        <ele>11.8</ele>
        <time>2021-05-17T15:40:49Z</time>
      </trkpt>
      <trkpt lat="41.6953540" lon="-8.8218310">
        <ele>11.8</ele>
        <time>2021-05-17T15:40:50Z</time>
      </trkpt>
      <trkpt lat="41.6953600" lon="-8.8218430">
        <ele>11.7</ele>
        <time>2021-05-17T15:40:51Z</time>
      </trkpt>
      <trkpt lat="41.6953680" lon="-8.8218540">
        <ele>11.6</ele>
        <time>2021-05-17T15:40:52Z</time>
      </trkpt>
      <trkpt lat="41.6953750" lon="-8.8218690">
        <ele>11.6</ele>
        <time>2021-05-17T15:40:53Z</time>
      </trkpt>
      <trkpt lat="41.6953830" lon="-8.8218810">
        <ele>11.5</ele>
        <time>2021-05-17T15:40:54Z</time>
      </trkpt>
      <trkpt lat="41.6953890" lon="-8.8218880">
        <ele>11.4</ele>
        <time>2021-05-17T15:40:55Z</time>
      </trkpt>
      <trkpt lat="41.6953940" lon="-8.8218990">
        <ele>11.4</ele>
        <time>2021-05-17T15:40:56Z</time>
      </trkpt>
      <trkpt lat="41.6954040" lon="-8.8219000">
        <ele>11.3</ele>
        <time>2021-05-17T15:40:57Z</time>
      </trkpt>
      <trkpt lat="41.6954080" lon="-8.8219110">
        <ele>11.2</ele>
        <time>2021-05-17T15:40:58Z</time>
      </trkpt>
      <trkpt lat="41.6954180" lon="-8.8219260">
        <ele>11.2</ele>
        <time>2021-05-17T15:40:59Z</time>
      </trkpt>
      <trkpt lat="41.6954270" lon="-8.8219360">
        <ele>11.1</ele>
        <time>2021-05-17T15:41:00Z</time>
      </trkpt>
      <trkpt lat="41.6954390" lon="-8.8219570">
        <ele>11.0</ele>
        <time>2021-05-17T15:41:01Z</time>
      </trkpt>
      <trkpt lat="41.6954460" lon="-8.8219650">
        <ele>10.9</ele>
        <time>2021-05-17T15:41:02Z</time>
      </trkpt>
      <trkpt lat="41.6954520" lon="-8.8219760">
        <ele>10.8</ele>
        <time>2021-05-17T15:41:03Z</time>
      </trkpt>
      <trkpt lat="41.6954580" lon="-8.8219860">
        <ele>10.8</ele>
        <time>2021-05-17T15:41:04Z</time>
      </trkpt>
      <trkpt lat="41.6954680" lon="-8.8220090">
        <ele>10.7</ele>
        <time>2021-05-17T15:41:05Z</time>
      </trkpt>
      <trkpt lat="41.6954740" lon="-8.8220180">
        <ele>10.6</ele>
        <time>2021-05-17T15:41:06Z</time>
      </trkpt>
      <trkpt lat="41.6954800" lon="-8.8220270">
        <ele>10.5</ele>
        <time>2021-05-17T15:41:07Z</time>
      </trkpt>
      <trkpt lat="41.6954910" lon="-8.8220390">
        <ele>10.4</ele>
        <time>2021-05-17T15:41:08Z</time>
      </trkpt>
      <trkpt lat="41.6955010" lon="-8.8220520">
        <ele>10.4</ele>
        <time>2021-05-17T15:41:09Z</time>
      </trkpt>
      <trkpt lat="41.6955110" lon="-8.8220640">
        <ele>10.3</ele>
        <time>2021-05-17T15:41:10Z</time>
      </trkpt>
      <trkpt lat="41.6955150" lon="-8.8220790">
        <ele>10.2</ele>
        <time>2021-05-17T15:41:11Z</time>
      </trkpt>
      <trkpt lat="41.6955190" lon="-8.8220900">
        <ele>10.1</ele>
        <time>2021-05-17T15:41:12Z</time>
      </trkpt>
      <trkpt lat="41.6955260" lon="-8.8221020">
        <ele>10.0</ele>
        <time>2021-05-17T15:41:13Z</time>
      </trkpt>
      <trkpt lat="41.6955320" lon="-8.8221110">
        <ele>10.0</ele>
        <time>2021-05-17T15:41:14Z</time>
      </trkpt>
      <trkpt lat="41.6955370" lon="-8.8221210">
        <ele>9.9</ele>
        <time>2021-05-17T15:41:15Z</time>
      </trkpt>
      <trkpt lat="41.6955420" lon="-8.8221300">
        <ele>9.9</ele>
        <time>2021-05-17T15:41:16Z</time>
      </trkpt>
      <trkpt lat="41.6955460" lon="-8.8221410">
        <ele>9.8</ele>
        <time>2021-05-17T15:41:17Z</time>
      </trkpt>
      <trkpt lat="41.6955490" lon="-8.8221480">
        <ele>9.8</ele>
        <time>2021-05-17T15:41:18Z</time>
      </trkpt>
      <trkpt lat="41.6955580" lon="-8.8221650">
        <ele>9.7</ele>
        <time>2021-05-17T15:41:19Z</time>
      </trkpt>
      <trkpt lat="41.6955620" lon="-8.8221750">
        <ele>9.6</ele>
        <time>2021-05-17T15:41:20Z</time>
      </trkpt>
      <trkpt lat="41.6955660" lon="-8.8221870">
        <ele>9.6</ele>
        <time>2021-05-17T15:41:21Z</time>
      </trkpt>
      <trkpt lat="41.6955760" lon="-8.8221960">
        <ele>9.5</ele>
        <time>2021-05-17T15:41:22Z</time>
      </trkpt>
      <trkpt lat="41.6955830" lon="-8.8222170">
        <ele>9.4</ele>
        <time>2021-05-17T15:41:23Z</time>
      </trkpt>
      <trkpt lat="41.6955860" lon="-8.8222350">
        <ele>9.3</ele>
        <time>2021-05-17T15:41:24Z</time>
      </trkpt>
      <trkpt lat="41.6955960" lon="-8.8222500">
        <ele>9.2</ele>
        <time>2021-05-17T15:41:25Z</time>
      </trkpt>
      <trkpt lat="41.6956050" lon="-8.8222620">
        <ele>9.1</ele>
        <time>2021-05-17T15:41:26Z</time>
      </trkpt>
      <trkpt lat="41.6956130" lon="-8.8222760">
        <ele>9.0</ele>
        <time>2021-05-17T15:41:27Z</time>
      </trkpt>
      <trkpt lat="41.6956210" lon="-8.8222870">
        <ele>9.0</ele>
        <time>2021-05-17T15:41:28Z</time>
      </trkpt>
      <trkpt lat="41.6956320" lon="-8.8222910">
        <ele>9.0</ele>
        <time>2021-05-17T15:41:29Z</time>
      </trkpt>
      <trkpt lat="41.6956450" lon="-8.8223080">
        <ele>8.9</ele>
        <time>2021-05-17T15:41:30Z</time>
      </trkpt>
      <trkpt lat="41.6956560" lon="-8.8223200">
        <ele>8.9</ele>
        <time>2021-05-17T15:41:31Z</time>
      </trkpt>
      <trkpt lat="41.6956760" lon="-8.8223410">
        <ele>8.8</ele>
        <time>2021-05-17T15:41:32Z</time>
      </trkpt>
      <trkpt lat="41.6956860" lon="-8.8223520">
        <ele>8.6</ele>
        <time>2021-05-17T15:41:33Z</time>
      </trkpt>
      <trkpt lat="41.6956950" lon="-8.8223690">
        <ele>8.4</ele>
        <time>2021-05-17T15:41:34Z</time>
      </trkpt>
      <trkpt lat="41.6957010" lon="-8.8223760">
        <ele>8.4</ele>
        <time>2021-05-17T15:41:35Z</time>
      </trkpt>
      <trkpt lat="41.6957050" lon="-8.8223890">
        <ele>8.3</ele>
        <time>2021-05-17T15:41:36Z</time>
      </trkpt>
      <trkpt lat="41.6957080" lon="-8.8223940">
        <ele>8.2</ele>
        <time>2021-05-17T15:41:37Z</time>
      </trkpt>
      <trkpt lat="41.6957150" lon="-8.8224030">
        <ele>8.1</ele>
        <time>2021-05-17T15:41:38Z</time>
      </trkpt>
      <trkpt lat="41.6957230" lon="-8.8224160">
        <ele>8.0</ele>
        <time>2021-05-17T15:41:39Z</time>
      </trkpt>
      <trkpt lat="41.6957260" lon="-8.8224290">
        <ele>7.9</ele>
        <time>2021-05-17T15:41:40Z</time>
      </trkpt>
      <trkpt lat="41.6957270" lon="-8.8224470">
        <ele>7.8</ele>
        <time>2021-05-17T15:41:41Z</time>
      </trkpt>
      <trkpt lat="41.6957260" lon="-8.8224640">
        <ele>7.7</ele>
        <time>2021-05-17T15:41:42Z</time>
      </trkpt>
      <trkpt lat="41.6957150" lon="-8.8224810">
        <ele>7.5</ele>
        <time>2021-05-17T15:41:43Z</time>
      </trkpt>
      <trkpt lat="41.6957120" lon="-8.8224900">
        <ele>7.4</ele>
        <time>2021-05-17T15:41:44Z</time>
      </trkpt>
      <trkpt lat="41.6957080" lon="-8.8224980">
        <ele>7.4</ele>
        <time>2021-05-17T15:41:46Z</time>
      </trkpt>
      <trkpt lat="41.6957040" lon="-8.8225070">
        <ele>7.3</ele>
        <time>2021-05-17T15:41:47Z</time>
      </trkpt>
      <trkpt lat="41.6957020" lon="-8.8225100">
        <ele>7.3</ele>
        <time>2021-05-17T15:41:48Z</time>
      </trkpt>
      <trkpt lat="41.6956970" lon="-8.8225290">
        <ele>7.0</ele>
        <time>2021-05-17T15:41:49Z</time>
      </trkpt>
      <trkpt lat="41.6956920" lon="-8.8225300">
        <ele>7.0</ele>
        <time>2021-05-17T15:41:50Z</time>
      </trkpt>
      <trkpt lat="41.6956830" lon="-8.8225370">
        <ele>7.0</ele>
        <time>2021-05-17T15:41:51Z</time>
      </trkpt>
      <trkpt lat="41.6956730" lon="-8.8225510">
        <ele>7.0</ele>
        <time>2021-05-17T15:41:52Z</time>
      </trkpt>
      <trkpt lat="41.6956640" lon="-8.8225640">
        <ele>6.9</ele>
        <time>2021-05-17T15:41:53Z</time>
      </trkpt>
      <trkpt lat="41.6956570" lon="-8.8225790">
        <ele>6.9</ele>
        <time>2021-05-17T15:41:54Z</time>
      </trkpt>
      <trkpt lat="41.6956520" lon="-8.8225840">
        <ele>6.9</ele>
        <time>2021-05-17T15:41:55Z</time>
      </trkpt>
      <trkpt lat="41.6956480" lon="-8.8225870">
        <ele>6.9</ele>
        <time>2021-05-17T15:41:56Z</time>
      </trkpt>
      <trkpt lat="41.6956430" lon="-8.8225900">
        <ele>6.9</ele>
        <time>2021-05-17T15:41:57Z</time>
      </trkpt>
      <trkpt lat="41.6956410" lon="-8.8225910">
        <ele>6.9</ele>
        <time>2021-05-17T15:41:58Z</time>
      </trkpt>
      <trkpt lat="41.6956420" lon="-8.8225920">
        <ele>6.9</ele>
        <time>2021-05-17T15:41:59Z</time>
      </trkpt>
      <trkpt lat="41.6956340" lon="-8.8225960">
        <ele>6.9</ele>
        <time>2021-05-17T15:42:00Z</time>
      </trkpt>
      <trkpt lat="41.6956320" lon="-8.8225890">
        <ele>6.9</ele>
        <time>2021-05-17T15:42:01Z</time>
      </trkpt>
      <trkpt lat="41.6956360" lon="-8.8225850">
        <ele>6.9</ele>
        <time>2021-05-17T15:42:02Z</time>
      </trkpt>
      <trkpt lat="41.6956390" lon="-8.8225840">
        <ele>6.9</ele>
        <time>2021-05-17T15:42:03Z</time>
      </trkpt>
      <trkpt lat="41.6956380" lon="-8.8225750">
        <ele>6.9</ele>
        <time>2021-05-17T15:42:04Z</time>
      </trkpt>
      <trkpt lat="41.6956390" lon="-8.8225730">
        <ele>6.9</ele>
        <time>2021-05-17T15:42:05Z</time>
      </trkpt>
      <trkpt lat="41.6956440" lon="-8.8225720">
        <ele>6.9</ele>
        <time>2021-05-17T15:42:06Z</time>
      </trkpt>
      <trkpt lat="41.6956480" lon="-8.8225690">
        <ele>6.9</ele>
        <time>2021-05-17T15:42:07Z</time>
      </trkpt>
      <trkpt lat="41.6956550" lon="-8.8225640">
        <ele>6.9</ele>
        <time>2021-05-17T15:42:08Z</time>
      </trkpt>
      <trkpt lat="41.6956570" lon="-8.8225570">
        <ele>6.9</ele>
        <time>2021-05-17T15:42:09Z</time>
      </trkpt>
      <trkpt lat="41.6956590" lon="-8.8225520">
        <ele>6.9</ele>
        <time>2021-05-17T15:42:10Z</time>
      </trkpt>
      <trkpt lat="41.6956660" lon="-8.8225480">
        <ele>6.9</ele>
        <time>2021-05-17T15:42:11Z</time>
      </trkpt>
      <trkpt lat="41.6956720" lon="-8.8225440">
        <ele>6.9</ele>
        <time>2021-05-17T15:42:12Z</time>
      </trkpt>
      <trkpt lat="41.6956760" lon="-8.8225390">
        <ele>6.9</ele>
        <time>2021-05-17T15:42:13Z</time>
      </trkpt>
      <trkpt lat="41.6956780" lon="-8.8225340">
        <ele>6.9</ele>
        <time>2021-05-17T15:42:14Z</time>
      </trkpt>
      <trkpt lat="41.6956810" lon="-8.8225300">
        <ele>6.9</ele>
        <time>2021-05-17T15:42:15Z</time>
      </trkpt>
      <trkpt lat="41.6956810" lon="-8.8225270">
        <ele>6.9</ele>
        <time>2021-05-17T15:42:16Z</time>
      </trkpt>
      <trkpt lat="41.6956840" lon="-8.8225240">
        <ele>6.9</ele>
        <time>2021-05-17T15:42:17Z</time>
      </trkpt>
      <trkpt lat="41.6956830" lon="-8.8225240">
        <ele>6.9</ele>
        <time>2021-05-17T15:42:18Z</time>
      </trkpt>
      <trkpt lat="41.6956810" lon="-8.8225240">
        <ele>6.9</ele>
        <time>2021-05-17T15:42:19Z</time>
      </trkpt>
      <trkpt lat="41.6956820" lon="-8.8225260">
        <ele>6.9</ele>
        <time>2021-05-17T15:42:20Z</time>
      </trkpt>
      <trkpt lat="41.6956820" lon="-8.8225240">
        <ele>6.9</ele>
        <time>2021-05-17T15:42:21Z</time>
      </trkpt>
      <trkpt lat="41.6956840" lon="-8.8225240">
        <ele>6.9</ele>
        <time>2021-05-17T15:42:22Z</time>
      </trkpt>
      <trkpt lat="41.6956840" lon="-8.8225240">
        <ele>6.9</ele>
        <time>2021-05-17T15:42:23Z</time>
      </trkpt>
      <trkpt lat="41.6956820" lon="-8.8225230">
        <ele>6.9</ele>
        <time>2021-05-17T15:42:24Z</time>
      </trkpt>
      <trkpt lat="41.6956780" lon="-8.8225200">
        <ele>6.9</ele>
        <time>2021-05-17T15:42:25Z</time>
      </trkpt>
      <trkpt lat="41.6956750" lon="-8.8225160">
        <ele>6.9</ele>
        <time>2021-05-17T15:42:26Z</time>
      </trkpt>
      <trkpt lat="41.6956710" lon="-8.8225130">
        <ele>6.9</ele>
        <time>2021-05-17T15:42:27Z</time>
      </trkpt>
      <trkpt lat="41.6956690" lon="-8.8225120">
        <ele>6.9</ele>
        <time>2021-05-17T15:42:28Z</time>
      </trkpt>
      <trkpt lat="41.6956660" lon="-8.8225110">
        <ele>6.9</ele>
        <time>2021-05-17T15:42:29Z</time>
      </trkpt>
      <trkpt lat="41.6956620" lon="-8.8225090">
        <ele>6.9</ele>
        <time>2021-05-17T15:42:30Z</time>
      </trkpt>
      <trkpt lat="41.6956590" lon="-8.8225060">
        <ele>6.9</ele>
        <time>2021-05-17T15:42:31Z</time>
      </trkpt>
      <trkpt lat="41.6956560" lon="-8.8224990">
        <ele>6.9</ele>
        <time>2021-05-17T15:42:32Z</time>
      </trkpt>
      <trkpt lat="41.6956570" lon="-8.8224960">
        <ele>6.9</ele>
        <time>2021-05-17T15:42:33Z</time>
      </trkpt>
      <trkpt lat="41.6956610" lon="-8.8224860">
        <ele>6.9</ele>
        <time>2021-05-17T15:42:34Z</time>
      </trkpt>
      <trkpt lat="41.6956640" lon="-8.8224750">
        <ele>6.9</ele>
        <time>2021-05-17T15:42:35Z</time>
      </trkpt>
      <trkpt lat="41.6956700" lon="-8.8224710">
        <ele>6.9</ele>
        <time>2021-05-17T15:42:36Z</time>
      </trkpt>
      <trkpt lat="41.6956760" lon="-8.8224730">
        <ele>6.9</ele>
        <time>2021-05-17T15:42:37Z</time>
      </trkpt>
      <trkpt lat="41.6956800" lon="-8.8224800">
        <ele>6.9</ele>
        <time>2021-05-17T15:42:38Z</time>
      </trkpt>
      <trkpt lat="41.6956880" lon="-8.8224830">
        <ele>6.9</ele>
        <time>2021-05-17T15:42:39Z</time>
      </trkpt>
      <trkpt lat="41.6956880" lon="-8.8224890">
        <ele>6.9</ele>
        <time>2021-05-17T15:42:40Z</time>
      </trkpt>
      <trkpt lat="41.6956940" lon="-8.8224870">
        <ele>6.9</ele>
        <time>2021-05-17T15:42:41Z</time>
      </trkpt>
      <trkpt lat="41.6957020" lon="-8.8224870">
        <ele>6.8</ele>
        <time>2021-05-17T15:42:42Z</time>
      </trkpt>
      <trkpt lat="41.6957060" lon="-8.8224920">
        <ele>6.8</ele>
        <time>2021-05-17T15:42:43Z</time>
      </trkpt>
      <trkpt lat="41.6957140" lon="-8.8225000">
        <ele>6.8</ele>
        <time>2021-05-17T15:42:44Z</time>
      </trkpt>
      <trkpt lat="41.6957130" lon="-8.8225070">
        <ele>6.8</ele>
        <time>2021-05-17T15:42:45Z</time>
      </trkpt>
      <trkpt lat="41.6957100" lon="-8.8225150">
        <ele>6.8</ele>
        <time>2021-05-17T15:42:46Z</time>
      </trkpt>
      <trkpt lat="41.6957030" lon="-8.8225180">
        <ele>6.8</ele>
        <time>2021-05-17T15:42:47Z</time>
      </trkpt>
      <trkpt lat="41.6956910" lon="-8.8225230">
        <ele>6.8</ele>
        <time>2021-05-17T15:42:48Z</time>
      </trkpt>
      <trkpt lat="41.6956810" lon="-8.8225290">
        <ele>6.8</ele>
        <time>2021-05-17T15:42:49Z</time>
      </trkpt>
      <trkpt lat="41.6956720" lon="-8.8225380">
        <ele>6.8</ele>
        <time>2021-05-17T15:42:50Z</time>
      </trkpt>
      <trkpt lat="41.6956680" lon="-8.8225430">
        <ele>6.8</ele>
        <time>2021-05-17T15:42:51Z</time>
      </trkpt>
      <trkpt lat="41.6956470" lon="-8.8225420">
        <ele>6.8</ele>
        <time>2021-05-17T15:42:52Z</time>
      </trkpt>
      <trkpt lat="41.6956400" lon="-8.8225410">
        <ele>6.8</ele>
        <time>2021-05-17T15:42:53Z</time>
      </trkpt>
      <trkpt lat="41.6956330" lon="-8.8225400">
        <ele>6.8</ele>
        <time>2021-05-17T15:42:54Z</time>
      </trkpt>
      <trkpt lat="41.6956260" lon="-8.8225390">
        <ele>6.8</ele>
        <time>2021-05-17T15:42:55Z</time>
      </trkpt>
      <trkpt lat="41.6956200" lon="-8.8225350">
        <ele>6.8</ele>
        <time>2021-05-17T15:42:56Z</time>
      </trkpt>
      <trkpt lat="41.6956120" lon="-8.8225280">
        <ele>6.8</ele>
        <time>2021-05-17T15:42:57Z</time>
      </trkpt>
      <trkpt lat="41.6956000" lon="-8.8225240">
        <ele>6.8</ele>
        <time>2021-05-17T15:42:58Z</time>
      </trkpt>
      <trkpt lat="41.6955880" lon="-8.8225190">
        <ele>6.8</ele>
        <time>2021-05-17T15:42:59Z</time>
      </trkpt>
      <trkpt lat="41.6955830" lon="-8.8225240">
        <ele>6.8</ele>
        <time>2021-05-17T15:43:00Z</time>
      </trkpt>
      <trkpt lat="41.6955850" lon="-8.8225300">
        <ele>6.9</ele>
        <time>2021-05-17T15:43:01Z</time>
      </trkpt>
      <trkpt lat="41.6955910" lon="-8.8225310">
        <ele>6.9</ele>
        <time>2021-05-17T15:43:02Z</time>
      </trkpt>
      <trkpt lat="41.6955960" lon="-8.8225280">
        <ele>6.9</ele>
        <time>2021-05-17T15:43:03Z</time>
      </trkpt>
      <trkpt lat="41.6956050" lon="-8.8225290">
        <ele>6.9</ele>
        <time>2021-05-17T15:43:04Z</time>
      </trkpt>
      <trkpt lat="41.6956090" lon="-8.8225320">
        <ele>6.9</ele>
        <time>2021-05-17T15:43:05Z</time>
      </trkpt>
      <trkpt lat="41.6956140" lon="-8.8225370">
        <ele>6.9</ele>
        <time>2021-05-17T15:43:06Z</time>
      </trkpt>
      <trkpt lat="41.6956160" lon="-8.8225510">
        <ele>6.9</ele>
        <time>2021-05-17T15:43:07Z</time>
      </trkpt>
      <trkpt lat="41.6956230" lon="-8.8225550">
        <ele>6.9</ele>
        <time>2021-05-17T15:43:08Z</time>
      </trkpt>
      <trkpt lat="41.6956310" lon="-8.8225590">
        <ele>6.9</ele>
        <time>2021-05-17T15:43:09Z</time>
      </trkpt>
      <trkpt lat="41.6956350" lon="-8.8225850">
        <ele>7.0</ele>
        <time>2021-05-17T15:43:10Z</time>
      </trkpt>
      <trkpt lat="41.6956430" lon="-8.8225920">
        <ele>7.0</ele>
        <time>2021-05-17T15:43:11Z</time>
      </trkpt>
      <trkpt lat="41.6956390" lon="-8.8226060">
        <ele>7.0</ele>
        <time>2021-05-17T15:43:12Z</time>
      </trkpt>
      <trkpt lat="41.6956340" lon="-8.8226070">
        <ele>7.0</ele>
        <time>2021-05-17T15:43:13Z</time>
      </trkpt>
      <trkpt lat="41.6956370" lon="-8.8226190">
        <ele>7.0</ele>
        <time>2021-05-17T15:43:14Z</time>
      </trkpt>
      <trkpt lat="41.6956420" lon="-8.8226340">
        <ele>7.0</ele>
        <time>2021-05-17T15:43:15Z</time>
      </trkpt>
      <trkpt lat="41.6956540" lon="-8.8226990">
        <ele>7.1</ele>
        <time>2021-05-17T15:43:16Z</time>
      </trkpt>
      <trkpt lat="41.6956590" lon="-8.8227220">
        <ele>7.1</ele>
        <time>2021-05-17T15:43:17Z</time>
      </trkpt>
      <trkpt lat="41.6956640" lon="-8.8227350">
        <ele>7.1</ele>
        <time>2021-05-17T15:43:18Z</time>
      </trkpt>
      <trkpt lat="41.6956650" lon="-8.8227520">
        <ele>7.2</ele>
        <time>2021-05-17T15:43:19Z</time>
      </trkpt>
      <trkpt lat="41.6956650" lon="-8.8227660">
        <ele>7.2</ele>
        <time>2021-05-17T15:43:20Z</time>
      </trkpt>
      <trkpt lat="41.6956610" lon="-8.8227800">
        <ele>7.1</ele>
        <time>2021-05-17T15:43:21Z</time>
      </trkpt>
      <trkpt lat="41.6956580" lon="-8.8227900">
        <ele>7.1</ele>
        <time>2021-05-17T15:43:22Z</time>
      </trkpt>
      <trkpt lat="41.6956580" lon="-8.8227950">
        <ele>7.1</ele>
        <time>2021-05-17T15:43:23Z</time>
      </trkpt>
      <trkpt lat="41.6956550" lon="-8.8228230">
        <ele>7.1</ele>
        <time>2021-05-17T15:43:24Z</time>
      </trkpt>
      <trkpt lat="41.6956540" lon="-8.8228290">
        <ele>7.1</ele>
        <time>2021-05-17T15:43:25Z</time>
      </trkpt>
      <trkpt lat="41.6956540" lon="-8.8228390">
        <ele>7.1</ele>
        <time>2021-05-17T15:43:26Z</time>
      </trkpt>
      <trkpt lat="41.6956550" lon="-8.8228650">
        <ele>7.0</ele>
        <time>2021-05-17T15:43:27Z</time>
      </trkpt>
      <trkpt lat="41.6956530" lon="-8.8228910">
        <ele>7.0</ele>
        <time>2021-05-17T15:43:28Z</time>
      </trkpt>
      <trkpt lat="41.6956410" lon="-8.8229040">
        <ele>7.0</ele>
        <time>2021-05-17T15:43:29Z</time>
      </trkpt>
      <trkpt lat="41.6956430" lon="-8.8229050">
        <ele>7.0</ele>
        <time>2021-05-17T15:43:30Z</time>
      </trkpt>
      <trkpt lat="41.6956400" lon="-8.8229140">
        <ele>6.9</ele>
        <time>2021-05-17T15:43:31Z</time>
      </trkpt>
      <trkpt lat="41.6956380" lon="-8.8229320">
        <ele>6.9</ele>
        <time>2021-05-17T15:43:32Z</time>
      </trkpt>
      <trkpt lat="41.6956360" lon="-8.8229460">
        <ele>6.9</ele>
        <time>2021-05-17T15:43:33Z</time>
      </trkpt>
      <trkpt lat="41.6956250" lon="-8.8229670">
        <ele>6.8</ele>
        <time>2021-05-17T15:43:34Z</time>
      </trkpt>
      <trkpt lat="41.6956260" lon="-8.8229920">
        <ele>6.8</ele>
        <time>2021-05-17T15:43:36Z</time>
      </trkpt>
      <trkpt lat="41.6955900" lon="-8.8229920">
        <ele>6.7</ele>
        <time>2021-05-17T15:43:37Z</time>
      </trkpt>
      <trkpt lat="41.6955780" lon="-8.8230180">
        <ele>6.7</ele>
        <time>2021-05-17T15:43:38Z</time>
      </trkpt>
      <trkpt lat="41.6955640" lon="-8.8230190">
        <ele>6.6</ele>
        <time>2021-05-17T15:43:39Z</time>
      </trkpt>
      <trkpt lat="41.6955460" lon="-8.8230350">
        <ele>6.6</ele>
        <time>2021-05-17T15:43:40Z</time>
      </trkpt>
      <trkpt lat="41.6955400" lon="-8.8230440">
        <ele>6.6</ele>
        <time>2021-05-17T15:43:41Z</time>
      </trkpt>
      <trkpt lat="41.6955340" lon="-8.8230520">
        <ele>6.6</ele>
        <time>2021-05-17T15:43:42Z</time>
      </trkpt>
      <trkpt lat="41.6955140" lon="-8.8230490">
        <ele>6.5</ele>
        <time>2021-05-17T15:43:43Z</time>
      </trkpt>
      <trkpt lat="41.6955110" lon="-8.8230590">
        <ele>6.5</ele>
        <time>2021-05-17T15:43:44Z</time>
      </trkpt>
      <trkpt lat="41.6955050" lon="-8.8230750">
        <ele>6.5</ele>
        <time>2021-05-17T15:43:45Z</time>
      </trkpt>
      <trkpt lat="41.6954770" lon="-8.8231020">
        <ele>6.4</ele>
        <time>2021-05-17T15:43:46Z</time>
      </trkpt>
      <trkpt lat="41.6954730" lon="-8.8231150">
        <ele>6.4</ele>
        <time>2021-05-17T15:43:47Z</time>
      </trkpt>
      <trkpt lat="41.6954540" lon="-8.8231320">
        <ele>6.3</ele>
        <time>2021-05-17T15:43:48Z</time>
      </trkpt>
      <trkpt lat="41.6954470" lon="-8.8231430">
        <ele>6.3</ele>
        <time>2021-05-17T15:43:49Z</time>
      </trkpt>
      <trkpt lat="41.6954400" lon="-8.8231530">
        <ele>6.3</ele>
        <time>2021-05-17T15:43:50Z</time>
      </trkpt>
      <trkpt lat="41.6954420" lon="-8.8231700">
        <ele>6.2</ele>
        <time>2021-05-17T15:43:51Z</time>
      </trkpt>
      <trkpt lat="41.6954380" lon="-8.8231850">
        <ele>6.2</ele>
        <time>2021-05-17T15:43:52Z</time>
      </trkpt>
      <trkpt lat="41.6954380" lon="-8.8231910">
        <ele>6.2</ele>
        <time>2021-05-17T15:43:53Z</time>
      </trkpt>
      <trkpt lat="41.6954370" lon="-8.8232000">
        <ele>6.2</ele>
        <time>2021-05-17T15:43:54Z</time>
      </trkpt>
      <trkpt lat="41.6954370" lon="-8.8232130">
        <ele>6.2</ele>
        <time>2021-05-17T15:43:55Z</time>
      </trkpt>
      <trkpt lat="41.6954360" lon="-8.8232180">
        <ele>6.2</ele>
        <time>2021-05-17T15:43:56Z</time>
      </trkpt>
      <trkpt lat="41.6954310" lon="-8.8232290">
        <ele>6.1</ele>
        <time>2021-05-17T15:43:57Z</time>
      </trkpt>
      <trkpt lat="41.6954230" lon="-8.8232450">
        <ele>6.1</ele>
        <time>2021-05-17T15:43:58Z</time>
      </trkpt>
      <trkpt lat="41.6954180" lon="-8.8232500">
        <ele>6.1</ele>
        <time>2021-05-17T15:43:59Z</time>
      </trkpt>
      <trkpt lat="41.6954140" lon="-8.8232640">
        <ele>6.1</ele>
        <time>2021-05-17T15:44:00Z</time>
      </trkpt>
      <trkpt lat="41.6954060" lon="-8.8232750">
        <ele>6.1</ele>
        <time>2021-05-17T15:44:01Z</time>
      </trkpt>
      <trkpt lat="41.6954020" lon="-8.8232720">
        <ele>6.1</ele>
        <time>2021-05-17T15:44:02Z</time>
      </trkpt>
      <trkpt lat="41.6953820" lon="-8.8232820">
        <ele>6.0</ele>
        <time>2021-05-17T15:44:03Z</time>
      </trkpt>
      <trkpt lat="41.6953650" lon="-8.8232880">
        <ele>6.0</ele>
        <time>2021-05-17T15:44:04Z</time>
      </trkpt>
      <trkpt lat="41.6953580" lon="-8.8233020">
        <ele>6.0</ele>
        <time>2021-05-17T15:44:05Z</time>
      </trkpt>
      <trkpt lat="41.6953350" lon="-8.8233250">
        <ele>5.9</ele>
        <time>2021-05-17T15:44:06Z</time>
      </trkpt>
      <trkpt lat="41.6953090" lon="-8.8233480">
        <ele>5.9</ele>
        <time>2021-05-17T15:44:07Z</time>
      </trkpt>
      <trkpt lat="41.6953010" lon="-8.8233490">
        <ele>5.9</ele>
        <time>2021-05-17T15:44:08Z</time>
      </trkpt>
      <trkpt lat="41.6952890" lon="-8.8233710">
        <ele>5.8</ele>
        <time>2021-05-17T15:44:09Z</time>
      </trkpt>
      <trkpt lat="41.6952790" lon="-8.8233860">
        <ele>5.8</ele>
        <time>2021-05-17T15:44:10Z</time>
      </trkpt>
      <trkpt lat="41.6952700" lon="-8.8234080">
        <ele>5.8</ele>
        <time>2021-05-17T15:44:11Z</time>
      </trkpt>
      <trkpt lat="41.6952710" lon="-8.8234320">
        <ele>5.8</ele>
        <time>2021-05-17T15:44:12Z</time>
      </trkpt>
      <trkpt lat="41.6952710" lon="-8.8234570">
        <ele>5.8</ele>
        <time>2021-05-17T15:44:13Z</time>
      </trkpt>
      <trkpt lat="41.6952740" lon="-8.8234790">
        <ele>5.7</ele>
        <time>2021-05-17T15:44:14Z</time>
      </trkpt>
      <trkpt lat="41.6952690" lon="-8.8235150">
        <ele>5.7</ele>
        <time>2021-05-17T15:44:15Z</time>
      </trkpt>
      <trkpt lat="41.6952680" lon="-8.8235310">
        <ele>5.7</ele>
        <time>2021-05-17T15:44:16Z</time>
      </trkpt>
      <trkpt lat="41.6952670" lon="-8.8235400">
        <ele>5.7</ele>
        <time>2021-05-17T15:44:17Z</time>
      </trkpt>
      <trkpt lat="41.6952650" lon="-8.8235590">
        <ele>5.6</ele>
        <time>2021-05-17T15:44:18Z</time>
      </trkpt>
      <trkpt lat="41.6952550" lon="-8.8235640">
        <ele>5.6</ele>
        <time>2021-05-17T15:44:19Z</time>
      </trkpt>
      <trkpt lat="41.6952580" lon="-8.8235770">
        <ele>5.6</ele>
        <time>2021-05-17T15:44:20Z</time>
      </trkpt>
      <trkpt lat="41.6952440" lon="-8.8235800">
        <ele>5.6</ele>
        <time>2021-05-17T15:44:21Z</time>
      </trkpt>
      <trkpt lat="41.6952310" lon="-8.8235930">
        <ele>5.6</ele>
        <time>2021-05-17T15:44:22Z</time>
      </trkpt>
      <trkpt lat="41.6952260" lon="-8.8236050">
        <ele>5.6</ele>
        <time>2021-05-17T15:44:23Z</time>
      </trkpt>
      <trkpt lat="41.6952250" lon="-8.8236150">
        <ele>5.6</ele>
        <time>2021-05-17T15:44:24Z</time>
      </trkpt>
      <trkpt lat="41.6952270" lon="-8.8236290">
        <ele>5.6</ele>
        <time>2021-05-17T15:44:25Z</time>
      </trkpt>
      <trkpt lat="41.6952130" lon="-8.8236510">
        <ele>5.5</ele>
        <time>2021-05-17T15:44:26Z</time>
      </trkpt>
      <trkpt lat="41.6952060" lon="-8.8236580">
        <ele>5.5</ele>
        <time>2021-05-17T15:44:27Z</time>
      </trkpt>
      <trkpt lat="41.6952000" lon="-8.8236660">
        <ele>5.5</ele>
        <time>2021-05-17T15:44:28Z</time>
      </trkpt>
      <trkpt lat="41.6951900" lon="-8.8236780">
        <ele>5.5</ele>
        <time>2021-05-17T15:44:29Z</time>
      </trkpt>
      <trkpt lat="41.6951860" lon="-8.8236870">
        <ele>5.5</ele>
        <time>2021-05-17T15:44:30Z</time>
      </trkpt>
      <trkpt lat="41.6951800" lon="-8.8237020">
        <ele>5.5</ele>
        <time>2021-05-17T15:44:31Z</time>
      </trkpt>
      <trkpt lat="41.6951710" lon="-8.8237080">
        <ele>5.5</ele>
        <time>2021-05-17T15:44:32Z</time>
      </trkpt>
      <trkpt lat="41.6951480" lon="-8.8237150">
        <ele>5.5</ele>
        <time>2021-05-17T15:44:33Z</time>
      </trkpt>
      <trkpt lat="41.6951290" lon="-8.8237200">
        <ele>5.4</ele>
        <time>2021-05-17T15:44:34Z</time>
      </trkpt>
      <trkpt lat="41.6951170" lon="-8.8237260">
        <ele>5.4</ele>
        <time>2021-05-17T15:44:35Z</time>
      </trkpt>
      <trkpt lat="41.6951050" lon="-8.8237320">
        <ele>5.4</ele>
        <time>2021-05-17T15:44:36Z</time>
      </trkpt>
      <trkpt lat="41.6950880" lon="-8.8237490">
        <ele>5.4</ele>
        <time>2021-05-17T15:44:37Z</time>
      </trkpt>
      <trkpt lat="41.6950830" lon="-8.8237580">
        <ele>5.4</ele>
        <time>2021-05-17T15:44:38Z</time>
      </trkpt>
      <trkpt lat="41.6950740" lon="-8.8237700">
        <ele>5.4</ele>
        <time>2021-05-17T15:44:39Z</time>
      </trkpt>
      <trkpt lat="41.6950750" lon="-8.8237890">
        <ele>5.4</ele>
        <time>2021-05-17T15:44:40Z</time>
      </trkpt>
      <trkpt lat="41.6950680" lon="-8.8237970">
        <ele>5.3</ele>
        <time>2021-05-17T15:44:41Z</time>
      </trkpt>
      <trkpt lat="41.6950640" lon="-8.8238060">
        <ele>5.3</ele>
        <time>2021-05-17T15:44:42Z</time>
      </trkpt>
      <trkpt lat="41.6950500" lon="-8.8238230">
        <ele>5.3</ele>
        <time>2021-05-17T15:44:43Z</time>
      </trkpt>
      <trkpt lat="41.6950430" lon="-8.8238270">
        <ele>5.3</ele>
        <time>2021-05-17T15:44:44Z</time>
      </trkpt>
      <trkpt lat="41.6950360" lon="-8.8238320">
        <ele>5.3</ele>
        <time>2021-05-17T15:44:45Z</time>
      </trkpt>
      <trkpt lat="41.6950310" lon="-8.8238380">
        <ele>5.3</ele>
        <time>2021-05-17T15:44:46Z</time>
      </trkpt>
      <trkpt lat="41.6950310" lon="-8.8238480">
        <ele>5.3</ele>
        <time>2021-05-17T15:44:47Z</time>
      </trkpt>
      <trkpt lat="41.6950230" lon="-8.8238640">
        <ele>5.3</ele>
        <time>2021-05-17T15:44:48Z</time>
      </trkpt>
      <trkpt lat="41.6950150" lon="-8.8238680">
        <ele>5.3</ele>
        <time>2021-05-17T15:44:49Z</time>
      </trkpt>
      <trkpt lat="41.6950080" lon="-8.8238730">
        <ele>5.2</ele>
        <time>2021-05-17T15:44:50Z</time>
      </trkpt>
      <trkpt lat="41.6950000" lon="-8.8238770">
        <ele>5.2</ele>
        <time>2021-05-17T15:44:51Z</time>
      </trkpt>
      <trkpt lat="41.6949800" lon="-8.8238860">
        <ele>5.2</ele>
        <time>2021-05-17T15:44:52Z</time>
      </trkpt>
      <trkpt lat="41.6949790" lon="-8.8239000">
        <ele>5.2</ele>
        <time>2021-05-17T15:44:53Z</time>
      </trkpt>
      <trkpt lat="41.6949780" lon="-8.8239140">
        <ele>5.2</ele>
        <time>2021-05-17T15:44:54Z</time>
      </trkpt>
      <trkpt lat="41.6949720" lon="-8.8239190">
        <ele>5.2</ele>
        <time>2021-05-17T15:44:55Z</time>
      </trkpt>
      <trkpt lat="41.6949700" lon="-8.8239380">
        <ele>5.2</ele>
        <time>2021-05-17T15:44:56Z</time>
      </trkpt>
      <trkpt lat="41.6949510" lon="-8.8239720">
        <ele>5.2</ele>
        <time>2021-05-17T15:44:57Z</time>
      </trkpt>
      <trkpt lat="41.6949440" lon="-8.8239810">
        <ele>5.2</ele>
        <time>2021-05-17T15:44:58Z</time>
      </trkpt>
      <trkpt lat="41.6949370" lon="-8.8240110">
        <ele>5.2</ele>
        <time>2021-05-17T15:44:59Z</time>
      </trkpt>
      <trkpt lat="41.6949240" lon="-8.8240160">
        <ele>5.2</ele>
        <time>2021-05-17T15:45:00Z</time>
      </trkpt>
      <trkpt lat="41.6949070" lon="-8.8240330">
        <ele>5.1</ele>
        <time>2021-05-17T15:45:01Z</time>
      </trkpt>
      <trkpt lat="41.6949000" lon="-8.8240400">
        <ele>5.1</ele>
        <time>2021-05-17T15:45:02Z</time>
      </trkpt>
      <trkpt lat="41.6948940" lon="-8.8240480">
        <ele>5.1</ele>
        <time>2021-05-17T15:45:03Z</time>
      </trkpt>
      <trkpt lat="41.6948820" lon="-8.8240590">
        <ele>5.1</ele>
        <time>2021-05-17T15:45:04Z</time>
      </trkpt>
      <trkpt lat="41.6948700" lon="-8.8240760">
        <ele>5.1</ele>
        <time>2021-05-17T15:45:05Z</time>
      </trkpt>
      <trkpt lat="41.6948550" lon="-8.8240890">
        <ele>5.1</ele>
        <time>2021-05-17T15:45:06Z</time>
      </trkpt>
      <trkpt lat="41.6948440" lon="-8.8240930">
        <ele>5.1</ele>
        <time>2021-05-17T15:45:07Z</time>
      </trkpt>
      <trkpt lat="41.6948320" lon="-8.8240980">
        <ele>5.1</ele>
        <time>2021-05-17T15:45:08Z</time>
      </trkpt>
      <trkpt lat="41.6948090" lon="-8.8241080">
        <ele>5.1</ele>
        <time>2021-05-17T15:45:09Z</time>
      </trkpt>
      <trkpt lat="41.6948020" lon="-8.8241240">
        <ele>5.1</ele>
        <time>2021-05-17T15:45:10Z</time>
      </trkpt>
      <trkpt lat="41.6947950" lon="-8.8241440">
        <ele>5.1</ele>
        <time>2021-05-17T15:45:11Z</time>
      </trkpt>
      <trkpt lat="41.6947860" lon="-8.8241630">
        <ele>5.1</ele>
        <time>2021-05-17T15:45:12Z</time>
      </trkpt>
      <trkpt lat="41.6947750" lon="-8.8241680">
        <ele>5.1</ele>
        <time>2021-05-17T15:45:13Z</time>
      </trkpt>
      <trkpt lat="41.6947650" lon="-8.8241870">
        <ele>5.1</ele>
        <time>2021-05-17T15:45:14Z</time>
      </trkpt>
      <trkpt lat="41.6947570" lon="-8.8242030">
        <ele>5.1</ele>
        <time>2021-05-17T15:45:15Z</time>
      </trkpt>
      <trkpt lat="41.6947500" lon="-8.8242070">
        <ele>5.1</ele>
        <time>2021-05-17T15:45:16Z</time>
      </trkpt>
      <trkpt lat="41.6947370" lon="-8.8242050">
        <ele>5.1</ele>
        <time>2021-05-17T15:45:17Z</time>
      </trkpt>
      <trkpt lat="41.6947240" lon="-8.8242100">
        <ele>5.1</ele>
        <time>2021-05-17T15:45:18Z</time>
      </trkpt>
      <trkpt lat="41.6947140" lon="-8.8242110">
        <ele>5.1</ele>
        <time>2021-05-17T15:45:19Z</time>
      </trkpt>
      <trkpt lat="41.6947040" lon="-8.8242030">
        <ele>5.1</ele>
        <time>2021-05-17T15:45:20Z</time>
      </trkpt>
      <trkpt lat="41.6946950" lon="-8.8242110">
        <ele>5.1</ele>
        <time>2021-05-17T15:45:21Z</time>
      </trkpt>
      <trkpt lat="41.6946740" lon="-8.8241820">
        <ele>5.1</ele>
        <time>2021-05-17T15:45:22Z</time>
      </trkpt>
      <trkpt lat="41.6946600" lon="-8.8241660">
        <ele>5.1</ele>
        <time>2021-05-17T15:45:23Z</time>
      </trkpt>
      <trkpt lat="41.6946540" lon="-8.8241670">
        <ele>5.1</ele>
        <time>2021-05-17T15:45:24Z</time>
      </trkpt>
      <trkpt lat="41.6946470" lon="-8.8241900">
        <ele>5.1</ele>
        <time>2021-05-17T15:45:25Z</time>
      </trkpt>
      <trkpt lat="41.6946420" lon="-8.8241910">
        <ele>5.1</ele>
        <time>2021-05-17T15:45:26Z</time>
      </trkpt>
      <trkpt lat="41.6946360" lon="-8.8241880">
        <ele>5.1</ele>
        <time>2021-05-17T15:45:27Z</time>
      </trkpt>
      <trkpt lat="41.6946200" lon="-8.8241940">
        <ele>5.1</ele>
        <time>2021-05-17T15:45:28Z</time>
      </trkpt>
      <trkpt lat="41.6946030" lon="-8.8242070">
        <ele>5.1</ele>
        <time>2021-05-17T15:45:29Z</time>
      </trkpt>
      <trkpt lat="41.6945910" lon="-8.8242060">
        <ele>5.1</ele>
        <time>2021-05-17T15:45:30Z</time>
      </trkpt>
      <trkpt lat="41.6945530" lon="-8.8242260">
        <ele>5.1</ele>
        <time>2021-05-17T15:45:31Z</time>
      </trkpt>
      <trkpt lat="41.6945380" lon="-8.8242330">
        <ele>5.1</ele>
        <time>2021-05-17T15:45:32Z</time>
      </trkpt>
      <trkpt lat="41.6945150" lon="-8.8242720">
        <ele>5.1</ele>
        <time>2021-05-17T15:45:33Z</time>
      </trkpt>
      <trkpt lat="41.6945120" lon="-8.8242880">
        <ele>5.1</ele>
        <time>2021-05-17T15:45:34Z</time>
      </trkpt>
      <trkpt lat="41.6945120" lon="-8.8243330">
        <ele>5.1</ele>
        <time>2021-05-17T15:45:35Z</time>
      </trkpt>
      <trkpt lat="41.6945120" lon="-8.8243460">
        <ele>5.1</ele>
        <time>2021-05-17T15:45:36Z</time>
      </trkpt>
      <trkpt lat="41.6945200" lon="-8.8243940">
        <ele>5.1</ele>
        <time>2021-05-17T15:45:37Z</time>
      </trkpt>
      <trkpt lat="41.6945180" lon="-8.8244080">
        <ele>5.1</ele>
        <time>2021-05-17T15:45:38Z</time>
      </trkpt>
      <trkpt lat="41.6945110" lon="-8.8244480">
        <ele>5.1</ele>
        <time>2021-05-17T15:45:39Z</time>
      </trkpt>
      <trkpt lat="41.6945100" lon="-8.8244600">
        <ele>5.1</ele>
        <time>2021-05-17T15:45:40Z</time>
      </trkpt>
      <trkpt lat="41.6945170" lon="-8.8244790">
        <ele>5.1</ele>
        <time>2021-05-17T15:45:41Z</time>
      </trkpt>
      <trkpt lat="41.6945230" lon="-8.8245030">
        <ele>5.1</ele>
        <time>2021-05-17T15:45:42Z</time>
      </trkpt>
      <trkpt lat="41.6945230" lon="-8.8245200">
        <ele>5.1</ele>
        <time>2021-05-17T15:45:43Z</time>
      </trkpt>
      <trkpt lat="41.6945170" lon="-8.8245420">
        <ele>5.1</ele>
        <time>2021-05-17T15:45:44Z</time>
      </trkpt>
      <trkpt lat="41.6945050" lon="-8.8245630">
        <ele>5.1</ele>
        <time>2021-05-17T15:45:45Z</time>
      </trkpt>
      <trkpt lat="41.6945030" lon="-8.8245710">
        <ele>5.1</ele>
        <time>2021-05-17T15:45:46Z</time>
      </trkpt>
      <trkpt lat="41.6945000" lon="-8.8245800">
        <ele>5.1</ele>
        <time>2021-05-17T15:45:47Z</time>
      </trkpt>
      <trkpt lat="41.6944970" lon="-8.8245880">
        <ele>5.1</ele>
        <time>2021-05-17T15:45:48Z</time>
      </trkpt>
      <trkpt lat="41.6944890" lon="-8.8246080">
        <ele>5.1</ele>
        <time>2021-05-17T15:45:49Z</time>
      </trkpt>
      <trkpt lat="41.6944780" lon="-8.8246290">
        <ele>5.1</ele>
        <time>2021-05-17T15:45:50Z</time>
      </trkpt>
      <trkpt lat="41.6944680" lon="-8.8246370">
        <ele>5.1</ele>
        <time>2021-05-17T15:45:51Z</time>
      </trkpt>
      <trkpt lat="41.6944620" lon="-8.8246410">
        <ele>5.2</ele>
        <time>2021-05-17T15:45:52Z</time>
      </trkpt>
      <trkpt lat="41.6944550" lon="-8.8246450">
        <ele>5.2</ele>
        <time>2021-05-17T15:45:53Z</time>
      </trkpt>
      <trkpt lat="41.6944490" lon="-8.8246490">
        <ele>5.2</ele>
        <time>2021-05-17T15:45:54Z</time>
      </trkpt>
      <trkpt lat="41.6944430" lon="-8.8246530">
        <ele>5.2</ele>
        <time>2021-05-17T15:45:55Z</time>
      </trkpt>
      <trkpt lat="41.6944120" lon="-8.8246600">
        <ele>5.2</ele>
        <time>2021-05-17T15:45:56Z</time>
      </trkpt>
      <trkpt lat="41.6944060" lon="-8.8246680">
        <ele>5.2</ele>
        <time>2021-05-17T15:45:57Z</time>
      </trkpt>
      <trkpt lat="41.6943780" lon="-8.8246720">
        <ele>5.2</ele>
        <time>2021-05-17T15:45:58Z</time>
      </trkpt>
      <trkpt lat="41.6943480" lon="-8.8246870">
        <ele>5.2</ele>
        <time>2021-05-17T15:45:59Z</time>
      </trkpt>
      <trkpt lat="41.6943420" lon="-8.8246960">
        <ele>5.2</ele>
        <time>2021-05-17T15:46:00Z</time>
      </trkpt>
      <trkpt lat="41.6943440" lon="-8.8247060">
        <ele>5.2</ele>
        <time>2021-05-17T15:46:01Z</time>
      </trkpt>
      <trkpt lat="41.6943370" lon="-8.8247140">
        <ele>5.2</ele>
        <time>2021-05-17T15:46:02Z</time>
      </trkpt>
      <trkpt lat="41.6943290" lon="-8.8247400">
        <ele>5.2</ele>
        <time>2021-05-17T15:46:03Z</time>
      </trkpt>
      <trkpt lat="41.6943770" lon="-8.8248230">
        <ele>5.3</ele>
        <time>2021-05-17T15:46:04Z</time>
      </trkpt>
      <trkpt lat="41.6943980" lon="-8.8248580">
        <ele>5.3</ele>
        <time>2021-05-17T15:46:05Z</time>
      </trkpt>
      <trkpt lat="41.6944010" lon="-8.8248920">
        <ele>5.3</ele>
        <time>2021-05-17T15:46:06Z</time>
      </trkpt>
      <trkpt lat="41.6944030" lon="-8.8249120">
        <ele>5.3</ele>
        <time>2021-05-17T15:46:07Z</time>
      </trkpt>
      <trkpt lat="41.6943890" lon="-8.8249450">
        <ele>5.3</ele>
        <time>2021-05-17T15:46:08Z</time>
      </trkpt>
      <trkpt lat="41.6943860" lon="-8.8249760">
        <ele>5.3</ele>
        <time>2021-05-17T15:46:09Z</time>
      </trkpt>
      <trkpt lat="41.6943840" lon="-8.8249890">
        <ele>5.3</ele>
        <time>2021-05-17T15:46:10Z</time>
      </trkpt>
      <trkpt lat="41.6943820" lon="-8.8250030">
        <ele>5.4</ele>
        <time>2021-05-17T15:46:11Z</time>
      </trkpt>
      <trkpt lat="41.6943690" lon="-8.8250250">
        <ele>5.4</ele>
        <time>2021-05-17T15:46:12Z</time>
      </trkpt>
      <trkpt lat="41.6943610" lon="-8.8250380">
        <ele>5.4</ele>
        <time>2021-05-17T15:46:13Z</time>
      </trkpt>
      <trkpt lat="41.6943530" lon="-8.8250500">
        <ele>5.5</ele>
        <time>2021-05-17T15:46:14Z</time>
      </trkpt>
      <trkpt lat="41.6943410" lon="-8.8250740">
        <ele>5.5</ele>
        <time>2021-05-17T15:46:15Z</time>
      </trkpt>
      <trkpt lat="41.6943390" lon="-8.8250830">
        <ele>5.5</ele>
        <time>2021-05-17T15:46:16Z</time>
      </trkpt>
      <trkpt lat="41.6943320" lon="-8.8251010">
        <ele>5.5</ele>
        <time>2021-05-17T15:46:17Z</time>
      </trkpt>
      <trkpt lat="41.6943250" lon="-8.8251150">
        <ele>5.6</ele>
        <time>2021-05-17T15:46:18Z</time>
      </trkpt>
      <trkpt lat="41.6943190" lon="-8.8251340">
        <ele>5.6</ele>
        <time>2021-05-17T15:46:19Z</time>
      </trkpt>
      <trkpt lat="41.6943170" lon="-8.8251560">
        <ele>5.6</ele>
        <time>2021-05-17T15:46:20Z</time>
      </trkpt>
      <trkpt lat="41.6943070" lon="-8.8251730">
        <ele>5.7</ele>
        <time>2021-05-17T15:46:21Z</time>
      </trkpt>
      <trkpt lat="41.6943020" lon="-8.8251950">
        <ele>5.7</ele>
        <time>2021-05-17T15:46:22Z</time>
      </trkpt>
      <trkpt lat="41.6943030" lon="-8.8251970">
        <ele>5.8</ele>
        <time>2021-05-17T15:46:23Z</time>
      </trkpt>
      <trkpt lat="41.6942960" lon="-8.8252070">
        <ele>5.8</ele>
        <time>2021-05-17T15:46:24Z</time>
      </trkpt>
      <trkpt lat="41.6942780" lon="-8.8252290">
        <ele>5.9</ele>
        <time>2021-05-17T15:46:25Z</time>
      </trkpt>
      <trkpt lat="41.6942770" lon="-8.8252380">
        <ele>5.9</ele>
        <time>2021-05-17T15:46:26Z</time>
      </trkpt>
      <trkpt lat="41.6942730" lon="-8.8252510">
        <ele>5.9</ele>
        <time>2021-05-17T15:46:27Z</time>
      </trkpt>
      <trkpt lat="41.6942640" lon="-8.8252600">
        <ele>5.9</ele>
        <time>2021-05-17T15:46:28Z</time>
      </trkpt>
      <trkpt lat="41.6942510" lon="-8.8252760">
        <ele>6.0</ele>
        <time>2021-05-17T15:46:29Z</time>
      </trkpt>
      <trkpt lat="41.6942400" lon="-8.8252850">
        <ele>6.0</ele>
        <time>2021-05-17T15:46:30Z</time>
      </trkpt>
      <trkpt lat="41.6942430" lon="-8.8252950">
        <ele>6.1</ele>
        <time>2021-05-17T15:46:31Z</time>
      </trkpt>
      <trkpt lat="41.6942260" lon="-8.8253040">
        <ele>6.1</ele>
        <time>2021-05-17T15:46:32Z</time>
      </trkpt>
      <trkpt lat="41.6942360" lon="-8.8253230">
        <ele>6.2</ele>
        <time>2021-05-17T15:46:33Z</time>
      </trkpt>
      <trkpt lat="41.6942150" lon="-8.8253310">
        <ele>6.3</ele>
        <time>2021-05-17T15:46:34Z</time>
      </trkpt>
      <trkpt lat="41.6942260" lon="-8.8253480">
        <ele>6.3</ele>
        <time>2021-05-17T15:46:35Z</time>
      </trkpt>
      <trkpt lat="41.6942190" lon="-8.8253580">
        <ele>6.4</ele>
        <time>2021-05-17T15:46:36Z</time>
      </trkpt>
      <trkpt lat="41.6942150" lon="-8.8253690">
        <ele>6.4</ele>
        <time>2021-05-17T15:46:37Z</time>
      </trkpt>
      <trkpt lat="41.6942010" lon="-8.8253780">
        <ele>6.5</ele>
        <time>2021-05-17T15:46:38Z</time>
      </trkpt>
      <trkpt lat="41.6941940" lon="-8.8253740">
        <ele>6.5</ele>
        <time>2021-05-17T15:46:39Z</time>
      </trkpt>
      <trkpt lat="41.6941860" lon="-8.8253910">
        <ele>6.6</ele>
        <time>2021-05-17T15:46:40Z</time>
      </trkpt>
      <trkpt lat="41.6941840" lon="-8.8253960">
        <ele>6.6</ele>
        <time>2021-05-17T15:46:41Z</time>
      </trkpt>
      <trkpt lat="41.6941810" lon="-8.8254020">
        <ele>6.6</ele>
        <time>2021-05-17T15:46:42Z</time>
      </trkpt>
      <trkpt lat="41.6941780" lon="-8.8254080">
        <ele>6.6</ele>
        <time>2021-05-17T15:46:43Z</time>
      </trkpt>
      <trkpt lat="41.6941760" lon="-8.8254130">
        <ele>6.6</ele>
        <time>2021-05-17T15:46:44Z</time>
      </trkpt>
      <trkpt lat="41.6941730" lon="-8.8254190">
        <ele>6.8</ele>
        <time>2021-05-17T15:46:45Z</time>
      </trkpt>
      <trkpt lat="41.6941800" lon="-8.8254260">
        <ele>6.8</ele>
        <time>2021-05-17T15:46:46Z</time>
      </trkpt>
      <trkpt lat="41.6941770" lon="-8.8254440">
        <ele>6.8</ele>
        <time>2021-05-17T15:46:47Z</time>
      </trkpt>
      <trkpt lat="41.6941680" lon="-8.8254500">
        <ele>6.9</ele>
        <time>2021-05-17T15:46:48Z</time>
      </trkpt>
      <trkpt lat="41.6941690" lon="-8.8254600">
        <ele>6.9</ele>
        <time>2021-05-17T15:46:49Z</time>
      </trkpt>
      <trkpt lat="41.6941640" lon="-8.8254650">
        <ele>6.9</ele>
        <time>2021-05-17T15:46:50Z</time>
      </trkpt>
      <trkpt lat="41.6941590" lon="-8.8254780">
        <ele>7.0</ele>
        <time>2021-05-17T15:46:51Z</time>
      </trkpt>
      <trkpt lat="41.6941550" lon="-8.8254800">
        <ele>7.0</ele>
        <time>2021-05-17T15:46:52Z</time>
      </trkpt>
      <trkpt lat="41.6941400" lon="-8.8254810">
        <ele>7.0</ele>
        <time>2021-05-17T15:46:53Z</time>
      </trkpt>
      <trkpt lat="41.6941260" lon="-8.8254850">
        <ele>7.1</ele>
        <time>2021-05-17T15:46:54Z</time>
      </trkpt>
      <trkpt lat="41.6941210" lon="-8.8254930">
        <ele>7.1</ele>
        <time>2021-05-17T15:46:55Z</time>
      </trkpt>
      <trkpt lat="41.6941220" lon="-8.8255160">
        <ele>7.2</ele>
        <time>2021-05-17T15:46:56Z</time>
      </trkpt>
      <trkpt lat="41.6940990" lon="-8.8255190">
        <ele>7.3</ele>
        <time>2021-05-17T15:46:57Z</time>
      </trkpt>
      <trkpt lat="41.6940920" lon="-8.8255220">
        <ele>7.3</ele>
        <time>2021-05-17T15:46:58Z</time>
      </trkpt>
      <trkpt lat="41.6940840" lon="-8.8255240">
        <ele>7.3</ele>
        <time>2021-05-17T15:46:59Z</time>
      </trkpt>
      <trkpt lat="41.6940730" lon="-8.8255330">
        <ele>7.4</ele>
        <time>2021-05-17T15:47:00Z</time>
      </trkpt>
      <trkpt lat="41.6940660" lon="-8.8255390">
        <ele>7.4</ele>
        <time>2021-05-17T15:47:01Z</time>
      </trkpt>
      <trkpt lat="41.6940570" lon="-8.8255490">
        <ele>7.4</ele>
        <time>2021-05-17T15:47:02Z</time>
      </trkpt>
      <trkpt lat="41.6940430" lon="-8.8255600">
        <ele>7.5</ele>
        <time>2021-05-17T15:47:03Z</time>
      </trkpt>
      <trkpt lat="41.6940360" lon="-8.8255750">
        <ele>7.5</ele>
        <time>2021-05-17T15:47:04Z</time>
      </trkpt>
      <trkpt lat="41.6940210" lon="-8.8255910">
        <ele>7.6</ele>
        <time>2021-05-17T15:47:05Z</time>
      </trkpt>
      <trkpt lat="41.6940120" lon="-8.8256070">
        <ele>7.6</ele>
        <time>2021-05-17T15:47:06Z</time>
      </trkpt>
      <trkpt lat="41.6940030" lon="-8.8256250">
        <ele>7.6</ele>
        <time>2021-05-17T15:47:07Z</time>
      </trkpt>
      <trkpt lat="41.6939930" lon="-8.8256430">
        <ele>7.7</ele>
        <time>2021-05-17T15:47:08Z</time>
      </trkpt>
      <trkpt lat="41.6939790" lon="-8.8256500">
        <ele>7.7</ele>
        <time>2021-05-17T15:47:09Z</time>
      </trkpt>
      <trkpt lat="41.6939580" lon="-8.8256580">
        <ele>7.8</ele>
        <time>2021-05-17T15:47:10Z</time>
      </trkpt>
      <trkpt lat="41.6939330" lon="-8.8256780">
        <ele>7.8</ele>
        <time>2021-05-17T15:47:11Z</time>
      </trkpt>
      <trkpt lat="41.6939200" lon="-8.8256790">
        <ele>7.8</ele>
        <time>2021-05-17T15:47:12Z</time>
      </trkpt>
      <trkpt lat="41.6939070" lon="-8.8256810">
        <ele>7.9</ele>
        <time>2021-05-17T15:47:13Z</time>
      </trkpt>
      <trkpt lat="41.6938880" lon="-8.8256810">
        <ele>7.9</ele>
        <time>2021-05-17T15:47:14Z</time>
      </trkpt>
      <trkpt lat="41.6938720" lon="-8.8256850">
        <ele>7.9</ele>
        <time>2021-05-17T15:47:15Z</time>
      </trkpt>
      <trkpt lat="41.6938450" lon="-8.8256930">
        <ele>8.0</ele>
        <time>2021-05-17T15:47:16Z</time>
      </trkpt>
      <trkpt lat="41.6938310" lon="-8.8256930">
        <ele>8.0</ele>
        <time>2021-05-17T15:47:17Z</time>
      </trkpt>
      <trkpt lat="41.6938110" lon="-8.8256990">
        <ele>8.0</ele>
        <time>2021-05-17T15:47:18Z</time>
      </trkpt>
      <trkpt lat="41.6938020" lon="-8.8257010">
        <ele>8.0</ele>
        <time>2021-05-17T15:47:19Z</time>
      </trkpt>
      <trkpt lat="41.6938040" lon="-8.8257030">
        <ele>8.0</ele>
        <time>2021-05-17T15:47:20Z</time>
      </trkpt>
      <trkpt lat="41.6937920" lon="-8.8256970">
        <ele>8.0</ele>
        <time>2021-05-17T15:47:21Z</time>
      </trkpt>
      <trkpt lat="41.6937900" lon="-8.8257070">
        <ele>8.0</ele>
        <time>2021-05-17T15:47:22Z</time>
      </trkpt>
      <trkpt lat="41.6937810" lon="-8.8257080">
        <ele>8.1</ele>
        <time>2021-05-17T15:47:23Z</time>
      </trkpt>
      <trkpt lat="41.6937670" lon="-8.8257130">
        <ele>8.1</ele>
        <time>2021-05-17T15:47:24Z</time>
      </trkpt>
      <trkpt lat="41.6937740" lon="-8.8257300">
        <ele>8.1</ele>
        <time>2021-05-17T15:47:25Z</time>
      </trkpt>
      <trkpt lat="41.6937660" lon="-8.8257480">
        <ele>8.1</ele>
        <time>2021-05-17T15:47:26Z</time>
      </trkpt>
      <trkpt lat="41.6937430" lon="-8.8257300">
        <ele>8.1</ele>
        <time>2021-05-17T15:47:27Z</time>
      </trkpt>
      <trkpt lat="41.6937390" lon="-8.8257400">
        <ele>8.1</ele>
        <time>2021-05-17T15:47:28Z</time>
      </trkpt>
      <trkpt lat="41.6937350" lon="-8.8257470">
        <ele>8.1</ele>
        <time>2021-05-17T15:47:29Z</time>
      </trkpt>
      <trkpt lat="41.6937430" lon="-8.8257670">
        <ele>8.1</ele>
        <time>2021-05-17T15:47:30Z</time>
      </trkpt>
      <trkpt lat="41.6937410" lon="-8.8257800">
        <ele>8.1</ele>
        <time>2021-05-17T15:47:31Z</time>
      </trkpt>
      <trkpt lat="41.6937380" lon="-8.8257940">
        <ele>8.1</ele>
        <time>2021-05-17T15:47:32Z</time>
      </trkpt>
      <trkpt lat="41.6937250" lon="-8.8258090">
        <ele>8.1</ele>
        <time>2021-05-17T15:47:33Z</time>
      </trkpt>
      <trkpt lat="41.6937150" lon="-8.8258350">
        <ele>8.1</ele>
        <time>2021-05-17T15:47:34Z</time>
      </trkpt>
      <trkpt lat="41.6937120" lon="-8.8258470">
        <ele>8.1</ele>
        <time>2021-05-17T15:47:35Z</time>
      </trkpt>
      <trkpt lat="41.6937090" lon="-8.8258590">
        <ele>8.1</ele>
        <time>2021-05-17T15:47:36Z</time>
      </trkpt>
      <trkpt lat="41.6937070" lon="-8.8258610">
        <ele>8.1</ele>
        <time>2021-05-17T15:47:37Z</time>
      </trkpt>
      <trkpt lat="41.6937000" lon="-8.8258790">
        <ele>8.1</ele>
        <time>2021-05-17T15:47:38Z</time>
      </trkpt>
      <trkpt lat="41.6937000" lon="-8.8258960">
        <ele>8.1</ele>
        <time>2021-05-17T15:47:39Z</time>
      </trkpt>
      <trkpt lat="41.6936840" lon="-8.8259090">
        <ele>8.1</ele>
        <time>2021-05-17T15:47:40Z</time>
      </trkpt>
      <trkpt lat="41.6936780" lon="-8.8259240">
        <ele>8.0</ele>
        <time>2021-05-17T15:47:41Z</time>
      </trkpt>
      <trkpt lat="41.6936730" lon="-8.8259380">
        <ele>8.0</ele>
        <time>2021-05-17T15:47:42Z</time>
      </trkpt>
      <trkpt lat="41.6936710" lon="-8.8259610">
        <ele>8.0</ele>
        <time>2021-05-17T15:47:43Z</time>
      </trkpt>
      <trkpt lat="41.6936630" lon="-8.8259760">
        <ele>8.0</ele>
        <time>2021-05-17T15:47:44Z</time>
      </trkpt>
      <trkpt lat="41.6936600" lon="-8.8259950">
        <ele>8.0</ele>
        <time>2021-05-17T15:47:45Z</time>
      </trkpt>
      <trkpt lat="41.6936410" lon="-8.8260090">
        <ele>8.0</ele>
        <time>2021-05-17T15:47:46Z</time>
      </trkpt>
      <trkpt lat="41.6936180" lon="-8.8260450">
        <ele>8.0</ele>
        <time>2021-05-17T15:47:47Z</time>
      </trkpt>
      <trkpt lat="41.6936080" lon="-8.8260520">
        <ele>8.0</ele>
        <time>2021-05-17T15:47:48Z</time>
      </trkpt>
      <trkpt lat="41.6935970" lon="-8.8260620">
        <ele>8.0</ele>
        <time>2021-05-17T15:47:49Z</time>
      </trkpt>
      <trkpt lat="41.6935810" lon="-8.8260820">
        <ele>8.0</ele>
        <time>2021-05-17T15:47:50Z</time>
      </trkpt>
      <trkpt lat="41.6935740" lon="-8.8261300">
        <ele>8.0</ele>
        <time>2021-05-17T15:47:51Z</time>
      </trkpt>
      <trkpt lat="41.6935670" lon="-8.8261510">
        <ele>7.9</ele>
        <time>2021-05-17T15:47:52Z</time>
      </trkpt>
      <trkpt lat="41.6935590" lon="-8.8261660">
        <ele>7.9</ele>
        <time>2021-05-17T15:47:53Z</time>
      </trkpt>
      <trkpt lat="41.6935520" lon="-8.8261820">
        <ele>7.9</ele>
        <time>2021-05-17T15:47:54Z</time>
      </trkpt>
      <trkpt lat="41.6935380" lon="-8.8262160">
        <ele>7.9</ele>
        <time>2021-05-17T15:47:55Z</time>
      </trkpt>
      <trkpt lat="41.6935290" lon="-8.8262240">
        <ele>7.9</ele>
        <time>2021-05-17T15:47:56Z</time>
      </trkpt>
      <trkpt lat="41.6935200" lon="-8.8262430">
        <ele>7.9</ele>
        <time>2021-05-17T15:47:57Z</time>
      </trkpt>
      <trkpt lat="41.6935100" lon="-8.8262550">
        <ele>7.9</ele>
        <time>2021-05-17T15:47:58Z</time>
      </trkpt>
      <trkpt lat="41.6935040" lon="-8.8262670">
        <ele>7.9</ele>
        <time>2021-05-17T15:47:59Z</time>
      </trkpt>
      <trkpt lat="41.6934930" lon="-8.8262710">
        <ele>7.9</ele>
        <time>2021-05-17T15:48:00Z</time>
      </trkpt>
      <trkpt lat="41.6934940" lon="-8.8262770">
        <ele>7.9</ele>
        <time>2021-05-17T15:48:01Z</time>
      </trkpt>
      <trkpt lat="41.6934900" lon="-8.8262930">
        <ele>7.9</ele>
        <time>2021-05-17T15:48:02Z</time>
      </trkpt>
      <trkpt lat="41.6934910" lon="-8.8263070">
        <ele>7.9</ele>
        <time>2021-05-17T15:48:03Z</time>
      </trkpt>
      <trkpt lat="41.6934820" lon="-8.8263050">
        <ele>7.9</ele>
        <time>2021-05-17T15:48:04Z</time>
      </trkpt>
      <trkpt lat="41.6934750" lon="-8.8263160">
        <ele>7.9</ele>
        <time>2021-05-17T15:48:05Z</time>
      </trkpt>
      <trkpt lat="41.6934730" lon="-8.8263270">
        <ele>7.9</ele>
        <time>2021-05-17T15:48:06Z</time>
      </trkpt>
      <trkpt lat="41.6934690" lon="-8.8263330">
        <ele>7.9</ele>
        <time>2021-05-17T15:48:07Z</time>
      </trkpt>
      <trkpt lat="41.6934650" lon="-8.8263360">
        <ele>7.9</ele>
        <time>2021-05-17T15:48:08Z</time>
      </trkpt>
      <trkpt lat="41.6934600" lon="-8.8263380">
        <ele>7.9</ele>
        <time>2021-05-17T15:48:09Z</time>
      </trkpt>
      <trkpt lat="41.6934560" lon="-8.8263440">
        <ele>7.9</ele>
        <time>2021-05-17T15:48:10Z</time>
      </trkpt>
      <trkpt lat="41.6934550" lon="-8.8263580">
        <ele>7.9</ele>
        <time>2021-05-17T15:48:11Z</time>
      </trkpt>
      <trkpt lat="41.6934490" lon="-8.8263690">
        <ele>7.9</ele>
        <time>2021-05-17T15:48:12Z</time>
      </trkpt>
      <trkpt lat="41.6934380" lon="-8.8263470">
        <ele>7.8</ele>
        <time>2021-05-17T15:48:13Z</time>
      </trkpt>
      <trkpt lat="41.6934300" lon="-8.8263470">
        <ele>7.8</ele>
        <time>2021-05-17T15:48:14Z</time>
      </trkpt>
      <trkpt lat="41.6934300" lon="-8.8263650">
        <ele>7.8</ele>
        <time>2021-05-17T15:48:15Z</time>
      </trkpt>
      <trkpt lat="41.6934260" lon="-8.8263710">
        <ele>7.8</ele>
        <time>2021-05-17T15:48:16Z</time>
      </trkpt>
      <trkpt lat="41.6933950" lon="-8.8263870">
        <ele>7.8</ele>
        <time>2021-05-17T15:48:17Z</time>
      </trkpt>
      <trkpt lat="41.6933800" lon="-8.8263930">
        <ele>7.8</ele>
        <time>2021-05-17T15:48:18Z</time>
      </trkpt>
      <trkpt lat="41.6933740" lon="-8.8264050">
        <ele>7.8</ele>
        <time>2021-05-17T15:48:19Z</time>
      </trkpt>
      <trkpt lat="41.6933690" lon="-8.8264070">
        <ele>7.8</ele>
        <time>2021-05-17T15:48:20Z</time>
      </trkpt>
      <trkpt lat="41.6933650" lon="-8.8264100">
        <ele>7.8</ele>
        <time>2021-05-17T15:48:21Z</time>
      </trkpt>
      <trkpt lat="41.6933510" lon="-8.8264140">
        <ele>7.8</ele>
        <time>2021-05-17T15:48:22Z</time>
      </trkpt>
      <trkpt lat="41.6933310" lon="-8.8264300">
        <ele>7.9</ele>
        <time>2021-05-17T15:48:23Z</time>
      </trkpt>
      <trkpt lat="41.6933210" lon="-8.8264350">
        <ele>7.9</ele>
        <time>2021-05-17T15:48:24Z</time>
      </trkpt>
      <trkpt lat="41.6933110" lon="-8.8264400">
        <ele>7.9</ele>
        <time>2021-05-17T15:48:25Z</time>
      </trkpt>
      <trkpt lat="41.6932810" lon="-8.8264620">
        <ele>8.0</ele>
        <time>2021-05-17T15:48:26Z</time>
      </trkpt>
      <trkpt lat="41.6932730" lon="-8.8264690">
        <ele>8.0</ele>
        <time>2021-05-17T15:48:27Z</time>
      </trkpt>
      <trkpt lat="41.6932720" lon="-8.8264810">
        <ele>8.0</ele>
        <time>2021-05-17T15:48:28Z</time>
      </trkpt>
      <trkpt lat="41.6932720" lon="-8.8264850">
        <ele>8.0</ele>
        <time>2021-05-17T15:48:29Z</time>
      </trkpt>
      <trkpt lat="41.6932830" lon="-8.8264940">
        <ele>8.1</ele>
        <time>2021-05-17T15:48:30Z</time>
      </trkpt>
      <trkpt lat="41.6932820" lon="-8.8265020">
        <ele>8.1</ele>
        <time>2021-05-17T15:48:31Z</time>
      </trkpt>
      <trkpt lat="41.6932680" lon="-8.8265070">
        <ele>8.1</ele>
        <time>2021-05-17T15:48:32Z</time>
      </trkpt>
      <trkpt lat="41.6932660" lon="-8.8265140">
        <ele>8.1</ele>
        <time>2021-05-17T15:48:33Z</time>
      </trkpt>
      <trkpt lat="41.6932610" lon="-8.8265290">
        <ele>8.1</ele>
        <time>2021-05-17T15:48:34Z</time>
      </trkpt>
      <trkpt lat="41.6932450" lon="-8.8265330">
        <ele>8.2</ele>
        <time>2021-05-17T15:48:35Z</time>
      </trkpt>
      <trkpt lat="41.6932390" lon="-8.8265390">
        <ele>8.2</ele>
        <time>2021-05-17T15:48:36Z</time>
      </trkpt>
      <trkpt lat="41.6932320" lon="-8.8265460">
        <ele>8.2</ele>
        <time>2021-05-17T15:48:37Z</time>
      </trkpt>
      <trkpt lat="41.6932190" lon="-8.8265530">
        <ele>8.2</ele>
        <time>2021-05-17T15:48:38Z</time>
      </trkpt>
      <trkpt lat="41.6932010" lon="-8.8265630">
        <ele>8.3</ele>
        <time>2021-05-17T15:48:39Z</time>
      </trkpt>
      <trkpt lat="41.6931940" lon="-8.8265660">
        <ele>8.4</ele>
        <time>2021-05-17T15:48:40Z</time>
      </trkpt>
      <trkpt lat="41.6931870" lon="-8.8265690">
        <ele>8.4</ele>
        <time>2021-05-17T15:48:41Z</time>
      </trkpt>
      <trkpt lat="41.6931800" lon="-8.8265720">
        <ele>8.4</ele>
        <time>2021-05-17T15:48:42Z</time>
      </trkpt>
      <trkpt lat="41.6931580" lon="-8.8265840">
        <ele>8.4</ele>
        <time>2021-05-17T15:48:43Z</time>
      </trkpt>
      <trkpt lat="41.6931510" lon="-8.8265900">
        <ele>8.4</ele>
        <time>2021-05-17T15:48:44Z</time>
      </trkpt>
      <trkpt lat="41.6931430" lon="-8.8265950">
        <ele>8.4</ele>
        <time>2021-05-17T15:48:45Z</time>
      </trkpt>
      <trkpt lat="41.6931390" lon="-8.8266050">
        <ele>8.4</ele>
        <time>2021-05-17T15:48:46Z</time>
      </trkpt>
      <trkpt lat="41.6931360" lon="-8.8266080">
        <ele>8.4</ele>
        <time>2021-05-17T15:48:47Z</time>
      </trkpt>
      <trkpt lat="41.6931250" lon="-8.8266240">
        <ele>8.4</ele>
        <time>2021-05-17T15:48:48Z</time>
      </trkpt>
      <trkpt lat="41.6931090" lon="-8.8266270">
        <ele>8.4</ele>
        <time>2021-05-17T15:48:49Z</time>
      </trkpt>
      <trkpt lat="41.6930970" lon="-8.8266330">
        <ele>8.5</ele>
        <time>2021-05-17T15:48:50Z</time>
      </trkpt>
      <trkpt lat="41.6930790" lon="-8.8266280">
        <ele>8.5</ele>
        <time>2021-05-17T15:48:51Z</time>
      </trkpt>
      <trkpt lat="41.6930710" lon="-8.8266310">
        <ele>8.5</ele>
        <time>2021-05-17T15:48:52Z</time>
      </trkpt>
      <trkpt lat="41.6930640" lon="-8.8266330">
        <ele>8.5</ele>
        <time>2021-05-17T15:48:53Z</time>
      </trkpt>
      <trkpt lat="41.6930560" lon="-8.8266350">
        <ele>8.5</ele>
        <time>2021-05-17T15:48:54Z</time>
      </trkpt>
      <trkpt lat="41.6930420" lon="-8.8266460">
        <ele>8.5</ele>
        <time>2021-05-17T15:48:55Z</time>
      </trkpt>
      <trkpt lat="41.6930280" lon="-8.8266580">
        <ele>8.5</ele>
        <time>2021-05-17T15:48:56Z</time>
      </trkpt>
      <trkpt lat="41.6930200" lon="-8.8266750">
        <ele>8.5</ele>
        <time>2021-05-17T15:48:57Z</time>
      </trkpt>
      <trkpt lat="41.6930050" lon="-8.8266800">
        <ele>8.5</ele>
        <time>2021-05-17T15:48:58Z</time>
      </trkpt>
      <trkpt lat="41.6929980" lon="-8.8266950">
        <ele>8.5</ele>
        <time>2021-05-17T15:48:59Z</time>
      </trkpt>
      <trkpt lat="41.6929980" lon="-8.8267060">
        <ele>8.5</ele>
        <time>2021-05-17T15:49:00Z</time>
      </trkpt>
      <trkpt lat="41.6929920" lon="-8.8267140">
        <ele>8.5</ele>
        <time>2021-05-17T15:49:01Z</time>
      </trkpt>
      <trkpt lat="41.6929820" lon="-8.8267260">
        <ele>8.5</ele>
        <time>2021-05-17T15:49:02Z</time>
      </trkpt>
      <trkpt lat="41.6929750" lon="-8.8267420">
        <ele>8.5</ele>
        <time>2021-05-17T15:49:03Z</time>
      </trkpt>
      <trkpt lat="41.6929670" lon="-8.8267460">
        <ele>8.5</ele>
        <time>2021-05-17T15:49:04Z</time>
      </trkpt>
      <trkpt lat="41.6929500" lon="-8.8267560">
        <ele>8.5</ele>
        <time>2021-05-17T15:49:05Z</time>
      </trkpt>
      <trkpt lat="41.6929400" lon="-8.8267580">
        <ele>8.5</ele>
        <time>2021-05-17T15:49:06Z</time>
      </trkpt>
      <trkpt lat="41.6929290" lon="-8.8267610">
        <ele>8.5</ele>
        <time>2021-05-17T15:49:07Z</time>
      </trkpt>
      <trkpt lat="41.6929190" lon="-8.8267650">
        <ele>8.5</ele>
        <time>2021-05-17T15:49:08Z</time>
      </trkpt>
      <trkpt lat="41.6929000" lon="-8.8267820">
        <ele>8.5</ele>
        <time>2021-05-17T15:49:09Z</time>
      </trkpt>
      <trkpt lat="41.6928900" lon="-8.8267900">
        <ele>8.5</ele>
        <time>2021-05-17T15:49:10Z</time>
      </trkpt>
      <trkpt lat="41.6928720" lon="-8.8267960">
        <ele>8.5</ele>
        <time>2021-05-17T15:49:11Z</time>
      </trkpt>
      <trkpt lat="41.6928630" lon="-8.8268040">
        <ele>8.5</ele>
        <time>2021-05-17T15:49:12Z</time>
      </trkpt>
      <trkpt lat="41.6928460" lon="-8.8268100">
        <ele>8.5</ele>
        <time>2021-05-17T15:49:13Z</time>
      </trkpt>
      <trkpt lat="41.6928400" lon="-8.8268200">
        <ele>8.5</ele>
        <time>2021-05-17T15:49:14Z</time>
      </trkpt>
      <trkpt lat="41.6928280" lon="-8.8268380">
        <ele>8.5</ele>
        <time>2021-05-17T15:49:15Z</time>
      </trkpt>
      <trkpt lat="41.6928170" lon="-8.8268540">
        <ele>8.5</ele>
        <time>2021-05-17T15:49:16Z</time>
      </trkpt>
      <trkpt lat="41.6928130" lon="-8.8268600">
        <ele>8.5</ele>
        <time>2021-05-17T15:49:17Z</time>
      </trkpt>
      <trkpt lat="41.6928100" lon="-8.8268670">
        <ele>8.5</ele>
        <time>2021-05-17T15:49:18Z</time>
      </trkpt>
      <trkpt lat="41.6928060" lon="-8.8268730">
        <ele>8.5</ele>
        <time>2021-05-17T15:49:19Z</time>
      </trkpt>
      <trkpt lat="41.6928030" lon="-8.8268790">
        <ele>8.5</ele>
        <time>2021-05-17T15:49:20Z</time>
      </trkpt>
      <trkpt lat="41.6928100" lon="-8.8269000">
        <ele>8.5</ele>
        <time>2021-05-17T15:49:21Z</time>
      </trkpt>
      <trkpt lat="41.6928030" lon="-8.8269170">
        <ele>8.5</ele>
        <time>2021-05-17T15:49:22Z</time>
      </trkpt>
      <trkpt lat="41.6928060" lon="-8.8269690">
        <ele>8.7</ele>
        <time>2021-05-17T15:49:23Z</time>
      </trkpt>
      <trkpt lat="41.6928060" lon="-8.8269890">
        <ele>8.8</ele>
        <time>2021-05-17T15:49:24Z</time>
      </trkpt>
      <trkpt lat="41.6928160" lon="-8.8270100">
        <ele>8.9</ele>
        <time>2021-05-17T15:49:25Z</time>
      </trkpt>
      <trkpt lat="41.6928220" lon="-8.8270190">
        <ele>8.9</ele>
        <time>2021-05-17T15:49:26Z</time>
      </trkpt>
      <trkpt lat="41.6928350" lon="-8.8270280">
        <ele>9.0</ele>
        <time>2021-05-17T15:49:27Z</time>
      </trkpt>
      <trkpt lat="41.6928390" lon="-8.8270370">
        <ele>9.0</ele>
        <time>2021-05-17T15:49:28Z</time>
      </trkpt>
      <trkpt lat="41.6928410" lon="-8.8270470">
        <ele>9.0</ele>
        <time>2021-05-17T15:49:29Z</time>
      </trkpt>
      <trkpt lat="41.6928460" lon="-8.8270660">
        <ele>9.1</ele>
        <time>2021-05-17T15:49:30Z</time>
      </trkpt>
      <trkpt lat="41.6928610" lon="-8.8270800">
        <ele>9.2</ele>
        <time>2021-05-17T15:49:31Z</time>
      </trkpt>
      <trkpt lat="41.6928620" lon="-8.8270970">
        <ele>9.3</ele>
        <time>2021-05-17T15:49:32Z</time>
      </trkpt>
      <trkpt lat="41.6928760" lon="-8.8271120">
        <ele>9.4</ele>
        <time>2021-05-17T15:49:33Z</time>
      </trkpt>
      <trkpt lat="41.6928910" lon="-8.8271280">
        <ele>9.5</ele>
        <time>2021-05-17T15:49:34Z</time>
      </trkpt>
      <trkpt lat="41.6929000" lon="-8.8271330">
        <ele>9.5</ele>
        <time>2021-05-17T15:49:35Z</time>
      </trkpt>
      <trkpt lat="41.6929080" lon="-8.8271370">
        <ele>9.5</ele>
        <time>2021-05-17T15:49:36Z</time>
      </trkpt>
      <trkpt lat="41.6929130" lon="-8.8271480">
        <ele>9.6</ele>
        <time>2021-05-17T15:49:37Z</time>
      </trkpt>
      <trkpt lat="41.6929160" lon="-8.8271640">
        <ele>9.6</ele>
        <time>2021-05-17T15:49:39Z</time>
      </trkpt>
      <trkpt lat="41.6929260" lon="-8.8271740">
        <ele>9.7</ele>
        <time>2021-05-17T15:49:40Z</time>
      </trkpt>
      <trkpt lat="41.6929460" lon="-8.8271890">
        <ele>9.8</ele>
        <time>2021-05-17T15:49:41Z</time>
      </trkpt>
      <trkpt lat="41.6929510" lon="-8.8271970">
        <ele>9.8</ele>
        <time>2021-05-17T15:49:42Z</time>
      </trkpt>
      <trkpt lat="41.6929570" lon="-8.8272050">
        <ele>9.9</ele>
        <time>2021-05-17T15:49:43Z</time>
      </trkpt>
      <trkpt lat="41.6929630" lon="-8.8272150">
        <ele>9.9</ele>
        <time>2021-05-17T15:49:44Z</time>
      </trkpt>
      <trkpt lat="41.6929770" lon="-8.8272240">
        <ele>10.0</ele>
        <time>2021-05-17T15:49:45Z</time>
      </trkpt>
      <trkpt lat="41.6929800" lon="-8.8272310">
        <ele>10.0</ele>
        <time>2021-05-17T15:49:46Z</time>
      </trkpt>
      <trkpt lat="41.6929850" lon="-8.8272350">
        <ele>10.0</ele>
        <time>2021-05-17T15:49:47Z</time>
      </trkpt>
      <trkpt lat="41.6929890" lon="-8.8272470">
        <ele>10.1</ele>
        <time>2021-05-17T15:49:48Z</time>
      </trkpt>
      <trkpt lat="41.6929950" lon="-8.8272520">
        <ele>10.1</ele>
        <time>2021-05-17T15:49:49Z</time>
      </trkpt>
      <trkpt lat="41.6930040" lon="-8.8272590">
        <ele>10.1</ele>
        <time>2021-05-17T15:49:50Z</time>
      </trkpt>
      <trkpt lat="41.6930210" lon="-8.8272610">
        <ele>10.2</ele>
        <time>2021-05-17T15:49:51Z</time>
      </trkpt>
      <trkpt lat="41.6930290" lon="-8.8272680">
        <ele>10.2</ele>
        <time>2021-05-17T15:49:52Z</time>
      </trkpt>
      <trkpt lat="41.6930350" lon="-8.8272800">
        <ele>10.3</ele>
        <time>2021-05-17T15:49:53Z</time>
      </trkpt>
      <trkpt lat="41.6930520" lon="-8.8273040">
        <ele>10.3</ele>
        <time>2021-05-17T15:49:54Z</time>
      </trkpt>
      <trkpt lat="41.6930620" lon="-8.8273130">
        <ele>10.4</ele>
        <time>2021-05-17T15:49:55Z</time>
      </trkpt>
      <trkpt lat="41.6930680" lon="-8.8273220">
        <ele>10.4</ele>
        <time>2021-05-17T15:49:56Z</time>
      </trkpt>
      <trkpt lat="41.6930840" lon="-8.8273400">
        <ele>10.5</ele>
        <time>2021-05-17T15:49:57Z</time>
      </trkpt>
      <trkpt lat="41.6930970" lon="-8.8273570">
        <ele>10.5</ele>
        <time>2021-05-17T15:49:58Z</time>
      </trkpt>
      <trkpt lat="41.6931060" lon="-8.8273640">
        <ele>10.5</ele>
        <time>2021-05-17T15:49:59Z</time>
      </trkpt>
      <trkpt lat="41.6931130" lon="-8.8273820">
        <ele>10.6</ele>
        <time>2021-05-17T15:50:00Z</time>
      </trkpt>
      <trkpt lat="41.6931180" lon="-8.8273980">
        <ele>10.7</ele>
        <time>2021-05-17T15:50:01Z</time>
      </trkpt>
      <trkpt lat="41.6931400" lon="-8.8273930">
        <ele>10.7</ele>
        <time>2021-05-17T15:50:02Z</time>
      </trkpt>
      <trkpt lat="41.6931470" lon="-8.8273940">
        <ele>10.7</ele>
        <time>2021-05-17T15:50:03Z</time>
      </trkpt>
      <trkpt lat="41.6931550" lon="-8.8273940">
        <ele>10.7</ele>
        <time>2021-05-17T15:50:04Z</time>
      </trkpt>
      <trkpt lat="41.6931820" lon="-8.8274170">
        <ele>10.7</ele>
        <time>2021-05-17T15:50:05Z</time>
      </trkpt>
      <trkpt lat="41.6931860" lon="-8.8274260">
        <ele>10.7</ele>
        <time>2021-05-17T15:50:06Z</time>
      </trkpt>
      <trkpt lat="41.6932140" lon="-8.8274240">
        <ele>10.7</ele>
        <time>2021-05-17T15:50:07Z</time>
      </trkpt>
      <trkpt lat="41.6932280" lon="-8.8274300">
        <ele>10.8</ele>
        <time>2021-05-17T15:50:08Z</time>
      </trkpt>
      <trkpt lat="41.6932410" lon="-8.8274300">
        <ele>10.8</ele>
        <time>2021-05-17T15:50:09Z</time>
      </trkpt>
      <trkpt lat="41.6932490" lon="-8.8274280">
        <ele>10.8</ele>
        <time>2021-05-17T15:50:10Z</time>
      </trkpt>
      <trkpt lat="41.6932600" lon="-8.8274350">
        <ele>10.8</ele>
        <time>2021-05-17T15:50:11Z</time>
      </trkpt>
      <trkpt lat="41.6932670" lon="-8.8274310">
        <ele>10.8</ele>
        <time>2021-05-17T15:50:12Z</time>
      </trkpt>
      <trkpt lat="41.6932680" lon="-8.8274210">
        <ele>10.8</ele>
        <time>2021-05-17T15:50:13Z</time>
      </trkpt>
      <trkpt lat="41.6932750" lon="-8.8274170">
        <ele>10.8</ele>
        <time>2021-05-17T15:50:14Z</time>
      </trkpt>
      <trkpt lat="41.6932750" lon="-8.8274070">
        <ele>10.8</ele>
        <time>2021-05-17T15:50:15Z</time>
      </trkpt>
      <trkpt lat="41.6932740" lon="-8.8274020">
        <ele>10.8</ele>
        <time>2021-05-17T15:50:16Z</time>
      </trkpt>
      <trkpt lat="41.6932780" lon="-8.8273970">
        <ele>10.8</ele>
        <time>2021-05-17T15:50:17Z</time>
      </trkpt>
      <trkpt lat="41.6932820" lon="-8.8273880">
        <ele>10.8</ele>
        <time>2021-05-17T15:50:18Z</time>
      </trkpt>
      <trkpt lat="41.6932870" lon="-8.8273910">
        <ele>10.8</ele>
        <time>2021-05-17T15:50:19Z</time>
      </trkpt>
      <trkpt lat="41.6932860" lon="-8.8273870">
        <ele>10.8</ele>
        <time>2021-05-17T15:50:20Z</time>
      </trkpt>
      <trkpt lat="41.6932940" lon="-8.8273910">
        <ele>10.8</ele>
        <time>2021-05-17T15:50:21Z</time>
      </trkpt>
      <trkpt lat="41.6932970" lon="-8.8274060">
        <ele>10.8</ele>
        <time>2021-05-17T15:50:22Z</time>
      </trkpt>
      <trkpt lat="41.6933040" lon="-8.8274010">
        <ele>10.8</ele>
        <time>2021-05-17T15:50:23Z</time>
      </trkpt>
      <trkpt lat="41.6932920" lon="-8.8273950">
        <ele>10.9</ele>
        <time>2021-05-17T15:50:24Z</time>
      </trkpt>
      <trkpt lat="41.6932920" lon="-8.8273950">
        <ele>10.9</ele>
        <time>2021-05-17T15:50:25Z</time>
      </trkpt>
      <trkpt lat="41.6932910" lon="-8.8273950">
        <ele>10.9</ele>
        <time>2021-05-17T15:50:26Z</time>
      </trkpt>
      <trkpt lat="41.6932900" lon="-8.8273950">
        <ele>10.9</ele>
        <time>2021-05-17T15:50:27Z</time>
      </trkpt>
      <trkpt lat="41.6932900" lon="-8.8273950">
        <ele>10.9</ele>
        <time>2021-05-17T15:50:28Z</time>
      </trkpt>
      <trkpt lat="41.6932890" lon="-8.8273950">
        <ele>10.9</ele>
        <time>2021-05-17T15:50:29Z</time>
      </trkpt>
      <trkpt lat="41.6932890" lon="-8.8273950">
        <ele>10.9</ele>
        <time>2021-05-17T15:50:30Z</time>
      </trkpt>
      <trkpt lat="41.6932880" lon="-8.8273950">
        <ele>10.9</ele>
        <time>2021-05-17T15:50:31Z</time>
      </trkpt>
      <trkpt lat="41.6932870" lon="-8.8273950">
        <ele>10.9</ele>
        <time>2021-05-17T15:50:32Z</time>
      </trkpt>
      <trkpt lat="41.6932870" lon="-8.8273950">
        <ele>10.9</ele>
        <time>2021-05-17T15:50:33Z</time>
      </trkpt>
      <trkpt lat="41.6932860" lon="-8.8273950">
        <ele>10.9</ele>
        <time>2021-05-17T15:50:34Z</time>
      </trkpt>
      <trkpt lat="41.6932850" lon="-8.8273950">
        <ele>10.9</ele>
        <time>2021-05-17T15:50:35Z</time>
      </trkpt>
      <trkpt lat="41.6932850" lon="-8.8273950">
        <ele>10.9</ele>
        <time>2021-05-17T15:50:36Z</time>
      </trkpt>
      <trkpt lat="41.6932840" lon="-8.8273950">
        <ele>10.9</ele>
        <time>2021-05-17T15:50:37Z</time>
      </trkpt>
      <trkpt lat="41.6932840" lon="-8.8273950">
        <ele>10.9</ele>
        <time>2021-05-17T15:50:38Z</time>
      </trkpt>
      <trkpt lat="41.6932830" lon="-8.8273950">
        <ele>10.9</ele>
        <time>2021-05-17T15:50:39Z</time>
      </trkpt>
      <trkpt lat="41.6932820" lon="-8.8273950">
        <ele>10.9</ele>
        <time>2021-05-17T15:50:40Z</time>
      </trkpt>
      <trkpt lat="41.6932820" lon="-8.8273950">
        <ele>10.9</ele>
        <time>2021-05-17T15:50:41Z</time>
      </trkpt>
      <trkpt lat="41.6932810" lon="-8.8273950">
        <ele>10.9</ele>
        <time>2021-05-17T15:50:42Z</time>
      </trkpt>
      <trkpt lat="41.6932800" lon="-8.8273950">
        <ele>10.9</ele>
        <time>2021-05-17T15:50:43Z</time>
      </trkpt>
      <trkpt lat="41.6932800" lon="-8.8273950">
        <ele>10.9</ele>
        <time>2021-05-17T15:50:44Z</time>
      </trkpt>
      <trkpt lat="41.6932790" lon="-8.8273950">
        <ele>10.9</ele>
        <time>2021-05-17T15:50:45Z</time>
      </trkpt>
      <trkpt lat="41.6932790" lon="-8.8273950">
        <ele>10.9</ele>
        <time>2021-05-17T15:50:46Z</time>
      </trkpt>
      <trkpt lat="41.6932780" lon="-8.8273950">
        <ele>10.9</ele>
        <time>2021-05-17T15:50:47Z</time>
      </trkpt>
      <trkpt lat="41.6932770" lon="-8.8273950">
        <ele>10.9</ele>
        <time>2021-05-17T15:50:48Z</time>
      </trkpt>
      <trkpt lat="41.6932770" lon="-8.8273950">
        <ele>10.9</ele>
        <time>2021-05-17T15:50:49Z</time>
      </trkpt>
      <trkpt lat="41.6932760" lon="-8.8273950">
        <ele>10.9</ele>
        <time>2021-05-17T15:50:50Z</time>
      </trkpt>
      <trkpt lat="41.6932750" lon="-8.8273950">
        <ele>10.9</ele>
        <time>2021-05-17T15:50:51Z</time>
      </trkpt>
      <trkpt lat="41.6932750" lon="-8.8273950">
        <ele>10.9</ele>
        <time>2021-05-17T15:50:52Z</time>
      </trkpt>
      <trkpt lat="41.6932740" lon="-8.8273950">
        <ele>10.9</ele>
        <time>2021-05-17T15:50:53Z</time>
      </trkpt>
      <trkpt lat="41.6932740" lon="-8.8273950">
        <ele>10.9</ele>
        <time>2021-05-17T15:50:54Z</time>
      </trkpt>
      <trkpt lat="41.6932730" lon="-8.8273950">
        <ele>10.9</ele>
        <time>2021-05-17T15:50:55Z</time>
      </trkpt>
      <trkpt lat="41.6932720" lon="-8.8273950">
        <ele>10.9</ele>
        <time>2021-05-17T15:50:56Z</time>
      </trkpt>
      <trkpt lat="41.6932720" lon="-8.8273950">
        <ele>10.9</ele>
        <time>2021-05-17T15:50:57Z</time>
      </trkpt>
      <trkpt lat="41.6932710" lon="-8.8273950">
        <ele>10.9</ele>
        <time>2021-05-17T15:50:58Z</time>
      </trkpt>
      <trkpt lat="41.6932700" lon="-8.8273950">
        <ele>10.9</ele>
        <time>2021-05-17T15:50:59Z</time>
      </trkpt>
      <trkpt lat="41.6932700" lon="-8.8273950">
        <ele>10.9</ele>
        <time>2021-05-17T15:51:00Z</time>
      </trkpt>
      <trkpt lat="41.6932690" lon="-8.8273950">
        <ele>10.9</ele>
        <time>2021-05-17T15:51:01Z</time>
      </trkpt>
      <trkpt lat="41.6932680" lon="-8.8273950">
        <ele>10.9</ele>
        <time>2021-05-17T15:51:02Z</time>
      </trkpt>
      <trkpt lat="41.6932680" lon="-8.8273950">
        <ele>10.9</ele>
        <time>2021-05-17T15:51:03Z</time>
      </trkpt>
      <trkpt lat="41.6932670" lon="-8.8273950">
        <ele>10.9</ele>
        <time>2021-05-17T15:51:04Z</time>
      </trkpt>
      <trkpt lat="41.6932670" lon="-8.8273950">
        <ele>10.9</ele>
        <time>2021-05-17T15:51:05Z</time>
      </trkpt>
      <trkpt lat="41.6932660" lon="-8.8273950">
        <ele>10.9</ele>
        <time>2021-05-17T15:51:06Z</time>
      </trkpt>
      <trkpt lat="41.6932650" lon="-8.8273950">
        <ele>10.9</ele>
        <time>2021-05-17T15:51:07Z</time>
      </trkpt>
      <trkpt lat="41.6932650" lon="-8.8273950">
        <ele>10.9</ele>
        <time>2021-05-17T15:51:08Z</time>
      </trkpt>
      <trkpt lat="41.6932640" lon="-8.8273950">
        <ele>10.9</ele>
        <time>2021-05-17T15:51:09Z</time>
      </trkpt>
      <trkpt lat="41.6932630" lon="-8.8273950">
        <ele>10.9</ele>
        <time>2021-05-17T15:51:10Z</time>
      </trkpt>
      <trkpt lat="41.6932630" lon="-8.8273950">
        <ele>10.9</ele>
        <time>2021-05-17T15:51:11Z</time>
      </trkpt>
      <trkpt lat="41.6932620" lon="-8.8273950">
        <ele>10.9</ele>
        <time>2021-05-17T15:51:12Z</time>
      </trkpt>
      <trkpt lat="41.6932620" lon="-8.8273950">
        <ele>10.9</ele>
        <time>2021-05-17T15:51:13Z</time>
      </trkpt>
      <trkpt lat="41.6932610" lon="-8.8273950">
        <ele>10.9</ele>
        <time>2021-05-17T15:51:14Z</time>
      </trkpt>
      <trkpt lat="41.6932600" lon="-8.8273950">
        <ele>10.9</ele>
        <time>2021-05-17T15:51:15Z</time>
      </trkpt>
      <trkpt lat="41.6932600" lon="-8.8273950">
        <ele>10.9</ele>
        <time>2021-05-17T15:51:16Z</time>
      </trkpt>
      <trkpt lat="41.6932590" lon="-8.8273950">
        <ele>10.9</ele>
        <time>2021-05-17T15:51:17Z</time>
      </trkpt>
      <trkpt lat="41.6932580" lon="-8.8273950">
        <ele>10.9</ele>
        <time>2021-05-17T15:51:18Z</time>
      </trkpt>
      <trkpt lat="41.6932580" lon="-8.8273950">
        <ele>10.9</ele>
        <time>2021-05-17T15:51:19Z</time>
      </trkpt>
      <trkpt lat="41.6932570" lon="-8.8273950">
        <ele>10.9</ele>
        <time>2021-05-17T15:51:20Z</time>
      </trkpt>
      <trkpt lat="41.6932570" lon="-8.8273950">
        <ele>10.9</ele>
        <time>2021-05-17T15:51:21Z</time>
      </trkpt>
      <trkpt lat="41.6932560" lon="-8.8273950">
        <ele>10.9</ele>
        <time>2021-05-17T15:51:22Z</time>
      </trkpt>
      <trkpt lat="41.6932550" lon="-8.8273950">
        <ele>10.9</ele>
        <time>2021-05-17T15:51:23Z</time>
      </trkpt>
      <trkpt lat="41.6932550" lon="-8.8273950">
        <ele>10.9</ele>
        <time>2021-05-17T15:51:24Z</time>
      </trkpt>
      <trkpt lat="41.6932540" lon="-8.8273950">
        <ele>10.9</ele>
        <time>2021-05-17T15:51:25Z</time>
      </trkpt>
      <trkpt lat="41.6932500" lon="-8.8273960">
        <ele>10.9</ele>
        <time>2021-05-17T15:51:26Z</time>
      </trkpt>
      <trkpt lat="41.6932320" lon="-8.8274110">
        <ele>10.9</ele>
        <time>2021-05-17T15:51:27Z</time>
      </trkpt>
      <trkpt lat="41.6932290" lon="-8.8274140">
        <ele>10.9</ele>
        <time>2021-05-17T15:51:28Z</time>
      </trkpt>
      <trkpt lat="41.6932240" lon="-8.8274250">
        <ele>10.9</ele>
        <time>2021-05-17T15:51:29Z</time>
      </trkpt>
      <trkpt lat="41.6932180" lon="-8.8274400">
        <ele>11.0</ele>
        <time>2021-05-17T15:51:30Z</time>
      </trkpt>
      <trkpt lat="41.6932130" lon="-8.8274510">
        <ele>11.0</ele>
        <time>2021-05-17T15:51:31Z</time>
      </trkpt>
      <trkpt lat="41.6932120" lon="-8.8274490">
        <ele>11.0</ele>
        <time>2021-05-17T15:51:32Z</time>
      </trkpt>
      <trkpt lat="41.6932110" lon="-8.8274490">
        <ele>11.0</ele>
        <time>2021-05-17T15:51:33Z</time>
      </trkpt>
      <trkpt lat="41.6932060" lon="-8.8274540">
        <ele>11.0</ele>
        <time>2021-05-17T15:51:34Z</time>
      </trkpt>
      <trkpt lat="41.6931990" lon="-8.8274600">
        <ele>11.0</ele>
        <time>2021-05-17T15:51:35Z</time>
      </trkpt>
      <trkpt lat="41.6931940" lon="-8.8274620">
        <ele>11.0</ele>
        <time>2021-05-17T15:51:36Z</time>
      </trkpt>
      <trkpt lat="41.6931940" lon="-8.8274590">
        <ele>11.0</ele>
        <time>2021-05-17T15:51:37Z</time>
      </trkpt>
      <trkpt lat="41.6931910" lon="-8.8274600">
        <ele>11.0</ele>
        <time>2021-05-17T15:51:38Z</time>
      </trkpt>
      <trkpt lat="41.6931900" lon="-8.8274680">
        <ele>11.0</ele>
        <time>2021-05-17T15:51:39Z</time>
      </trkpt>
      <trkpt lat="41.6931880" lon="-8.8274710">
        <ele>11.0</ele>
        <time>2021-05-17T15:51:40Z</time>
      </trkpt>
      <trkpt lat="41.6931930" lon="-8.8274840">
        <ele>11.0</ele>
        <time>2021-05-17T15:51:41Z</time>
      </trkpt>
      <trkpt lat="41.6931970" lon="-8.8275000">
        <ele>11.0</ele>
        <time>2021-05-17T15:51:42Z</time>
      </trkpt>
      <trkpt lat="41.6932080" lon="-8.8275050">
        <ele>11.0</ele>
        <time>2021-05-17T15:51:43Z</time>
      </trkpt>
      <trkpt lat="41.6932210" lon="-8.8275020">
        <ele>11.0</ele>
        <time>2021-05-17T15:51:44Z</time>
      </trkpt>
      <trkpt lat="41.6932300" lon="-8.8275070">
        <ele>11.0</ele>
        <time>2021-05-17T15:51:45Z</time>
      </trkpt>
      <trkpt lat="41.6932420" lon="-8.8275210">
        <ele>11.0</ele>
        <time>2021-05-17T15:51:46Z</time>
      </trkpt>
      <trkpt lat="41.6932470" lon="-8.8275300">
        <ele>11.0</ele>
        <time>2021-05-17T15:51:48Z</time>
      </trkpt>
      <trkpt lat="41.6932570" lon="-8.8275390">
        <ele>11.0</ele>
        <time>2021-05-17T15:51:49Z</time>
      </trkpt>
      <trkpt lat="41.6932680" lon="-8.8275440">
        <ele>11.0</ele>
        <time>2021-05-17T15:51:50Z</time>
      </trkpt>
      <trkpt lat="41.6932870" lon="-8.8275590">
        <ele>11.0</ele>
        <time>2021-05-17T15:51:51Z</time>
      </trkpt>
      <trkpt lat="41.6932930" lon="-8.8275660">
        <ele>11.0</ele>
        <time>2021-05-17T15:51:52Z</time>
      </trkpt>
      <trkpt lat="41.6932980" lon="-8.8275740">
        <ele>11.0</ele>
        <time>2021-05-17T15:51:53Z</time>
      </trkpt>
      <trkpt lat="41.6933090" lon="-8.8275820">
        <ele>11.0</ele>
        <time>2021-05-17T15:51:54Z</time>
      </trkpt>
      <trkpt lat="41.6933180" lon="-8.8275920">
        <ele>11.0</ele>
        <time>2021-05-17T15:51:55Z</time>
      </trkpt>
      <trkpt lat="41.6933290" lon="-8.8275970">
        <ele>11.1</ele>
        <time>2021-05-17T15:51:56Z</time>
      </trkpt>
      <trkpt lat="41.6933400" lon="-8.8276040">
        <ele>11.1</ele>
        <time>2021-05-17T15:51:57Z</time>
      </trkpt>
      <trkpt lat="41.6933420" lon="-8.8276050">
        <ele>11.1</ele>
        <time>2021-05-17T15:51:58Z</time>
      </trkpt>
      <trkpt lat="41.6933500" lon="-8.8276140">
        <ele>11.1</ele>
        <time>2021-05-17T15:51:59Z</time>
      </trkpt>
      <trkpt lat="41.6933530" lon="-8.8276210">
        <ele>11.1</ele>
        <time>2021-05-17T15:52:00Z</time>
      </trkpt>
      <trkpt lat="41.6933670" lon="-8.8276290">
        <ele>11.1</ele>
        <time>2021-05-17T15:52:01Z</time>
      </trkpt>
      <trkpt lat="41.6933750" lon="-8.8276350">
        <ele>11.1</ele>
        <time>2021-05-17T15:52:02Z</time>
      </trkpt>
      <trkpt lat="41.6933820" lon="-8.8276420">
        <ele>11.1</ele>
        <time>2021-05-17T15:52:03Z</time>
      </trkpt>
      <trkpt lat="41.6933890" lon="-8.8276480">
        <ele>11.1</ele>
        <time>2021-05-17T15:52:04Z</time>
      </trkpt>
      <trkpt lat="41.6934030" lon="-8.8276580">
        <ele>11.1</ele>
        <time>2021-05-17T15:52:05Z</time>
      </trkpt>
      <trkpt lat="41.6934100" lon="-8.8276580">
        <ele>11.1</ele>
        <time>2021-05-17T15:52:06Z</time>
      </trkpt>
      <trkpt lat="41.6934120" lon="-8.8276640">
        <ele>11.1</ele>
        <time>2021-05-17T15:52:07Z</time>
      </trkpt>
      <trkpt lat="41.6934230" lon="-8.8276680">
        <ele>11.1</ele>
        <time>2021-05-17T15:52:08Z</time>
      </trkpt>
      <trkpt lat="41.6934320" lon="-8.8276760">
        <ele>11.1</ele>
        <time>2021-05-17T15:52:09Z</time>
      </trkpt>
      <trkpt lat="41.6934410" lon="-8.8276810">
        <ele>11.1</ele>
        <time>2021-05-17T15:52:10Z</time>
      </trkpt>
      <trkpt lat="41.6934440" lon="-8.8276960">
        <ele>11.1</ele>
        <time>2021-05-17T15:52:11Z</time>
      </trkpt>
      <trkpt lat="41.6934570" lon="-8.8277410">
        <ele>11.1</ele>
        <time>2021-05-17T15:52:12Z</time>
      </trkpt>
      <trkpt lat="41.6934600" lon="-8.8277520">
        <ele>11.1</ele>
        <time>2021-05-17T15:52:13Z</time>
      </trkpt>
      <trkpt lat="41.6934640" lon="-8.8277630">
        <ele>11.2</ele>
        <time>2021-05-17T15:52:14Z</time>
      </trkpt>
      <trkpt lat="41.6934760" lon="-8.8277600">
        <ele>11.2</ele>
        <time>2021-05-17T15:52:15Z</time>
      </trkpt>
      <trkpt lat="41.6934860" lon="-8.8277660">
        <ele>11.2</ele>
        <time>2021-05-17T15:52:16Z</time>
      </trkpt>
      <trkpt lat="41.6934920" lon="-8.8277820">
        <ele>11.2</ele>
        <time>2021-05-17T15:52:17Z</time>
      </trkpt>
      <trkpt lat="41.6934870" lon="-8.8277990">
        <ele>11.2</ele>
        <time>2021-05-17T15:52:18Z</time>
      </trkpt>
      <trkpt lat="41.6934950" lon="-8.8278070">
        <ele>11.2</ele>
        <time>2021-05-17T15:52:19Z</time>
      </trkpt>
      <trkpt lat="41.6935160" lon="-8.8278280">
        <ele>11.2</ele>
        <time>2021-05-17T15:52:20Z</time>
      </trkpt>
      <trkpt lat="41.6935290" lon="-8.8278400">
        <ele>11.2</ele>
        <time>2021-05-17T15:52:21Z</time>
      </trkpt>
      <trkpt lat="41.6935420" lon="-8.8278530">
        <ele>11.2</ele>
        <time>2021-05-17T15:52:22Z</time>
      </trkpt>
      <trkpt lat="41.6935480" lon="-8.8278610">
        <ele>11.2</ele>
        <time>2021-05-17T15:52:23Z</time>
      </trkpt>
      <trkpt lat="41.6935600" lon="-8.8278710">
        <ele>11.2</ele>
        <time>2021-05-17T15:52:24Z</time>
      </trkpt>
      <trkpt lat="41.6935650" lon="-8.8278870">
        <ele>11.2</ele>
        <time>2021-05-17T15:52:25Z</time>
      </trkpt>
      <trkpt lat="41.6935760" lon="-8.8279060">
        <ele>11.2</ele>
        <time>2021-05-17T15:52:26Z</time>
      </trkpt>
      <trkpt lat="41.6935860" lon="-8.8279190">
        <ele>11.2</ele>
        <time>2021-05-17T15:52:27Z</time>
      </trkpt>
      <trkpt lat="41.6935880" lon="-8.8279230">
        <ele>11.2</ele>
        <time>2021-05-17T15:52:28Z</time>
      </trkpt>
      <trkpt lat="41.6936000" lon="-8.8279400">
        <ele>11.2</ele>
        <time>2021-05-17T15:52:29Z</time>
      </trkpt>
      <trkpt lat="41.6936250" lon="-8.8279700">
        <ele>11.2</ele>
        <time>2021-05-17T15:52:30Z</time>
      </trkpt>
      <trkpt lat="41.6936390" lon="-8.8279890">
        <ele>11.2</ele>
        <time>2021-05-17T15:52:31Z</time>
      </trkpt>
      <trkpt lat="41.6936440" lon="-8.8279960">
        <ele>11.2</ele>
        <time>2021-05-17T15:52:32Z</time>
      </trkpt>
      <trkpt lat="41.6936570" lon="-8.8280120">
        <ele>11.2</ele>
        <time>2021-05-17T15:52:33Z</time>
      </trkpt>
      <trkpt lat="41.6936510" lon="-8.8280170">
        <ele>11.2</ele>
        <time>2021-05-17T15:52:34Z</time>
      </trkpt>
      <trkpt lat="41.6936550" lon="-8.8280320">
        <ele>11.1</ele>
        <time>2021-05-17T15:52:35Z</time>
      </trkpt>
      <trkpt lat="41.6936490" lon="-8.8280570">
        <ele>11.1</ele>
        <time>2021-05-17T15:52:36Z</time>
      </trkpt>
      <trkpt lat="41.6936430" lon="-8.8280680">
        <ele>11.1</ele>
        <time>2021-05-17T15:52:37Z</time>
      </trkpt>
      <trkpt lat="41.6936380" lon="-8.8280790">
        <ele>11.1</ele>
        <time>2021-05-17T15:52:38Z</time>
      </trkpt>
      <trkpt lat="41.6936340" lon="-8.8280890">
        <ele>11.1</ele>
        <time>2021-05-17T15:52:39Z</time>
      </trkpt>
      <trkpt lat="41.6936270" lon="-8.8280930">
        <ele>11.1</ele>
        <time>2021-05-17T15:52:40Z</time>
      </trkpt>
      <trkpt lat="41.6936240" lon="-8.8281070">
        <ele>11.1</ele>
        <time>2021-05-17T15:52:41Z</time>
      </trkpt>
      <trkpt lat="41.6936160" lon="-8.8281140">
        <ele>11.1</ele>
        <time>2021-05-17T15:52:42Z</time>
      </trkpt>
      <trkpt lat="41.6936110" lon="-8.8281270">
        <ele>11.1</ele>
        <time>2021-05-17T15:52:43Z</time>
      </trkpt>
      <trkpt lat="41.6936080" lon="-8.8281350">
        <ele>11.1</ele>
        <time>2021-05-17T15:52:44Z</time>
      </trkpt>
      <trkpt lat="41.6936040" lon="-8.8281420">
        <ele>11.1</ele>
        <time>2021-05-17T15:52:45Z</time>
      </trkpt>
      <trkpt lat="41.6936010" lon="-8.8281500">
        <ele>11.1</ele>
        <time>2021-05-17T15:52:46Z</time>
      </trkpt>
      <trkpt lat="41.6935980" lon="-8.8281570">
        <ele>11.1</ele>
        <time>2021-05-17T15:52:47Z</time>
      </trkpt>
      <trkpt lat="41.6936010" lon="-8.8281690">
        <ele>11.1</ele>
        <time>2021-05-17T15:52:48Z</time>
      </trkpt>
      <trkpt lat="41.6936080" lon="-8.8281950">
        <ele>11.1</ele>
        <time>2021-05-17T15:52:49Z</time>
      </trkpt>
      <trkpt lat="41.6936150" lon="-8.8282270">
        <ele>11.1</ele>
        <time>2021-05-17T15:52:50Z</time>
      </trkpt>
      <trkpt lat="41.6936200" lon="-8.8282400">
        <ele>11.1</ele>
        <time>2021-05-17T15:52:51Z</time>
      </trkpt>
      <trkpt lat="41.6936220" lon="-8.8282500">
        <ele>11.1</ele>
        <time>2021-05-17T15:52:52Z</time>
      </trkpt>
      <trkpt lat="41.6936190" lon="-8.8282530">
        <ele>11.1</ele>
        <time>2021-05-17T15:52:53Z</time>
      </trkpt>
      <trkpt lat="41.6936170" lon="-8.8282610">
        <ele>11.1</ele>
        <time>2021-05-17T15:52:54Z</time>
      </trkpt>
      <trkpt lat="41.6936200" lon="-8.8282670">
        <ele>11.1</ele>
        <time>2021-05-17T15:52:55Z</time>
      </trkpt>
      <trkpt lat="41.6936230" lon="-8.8282700">
        <ele>11.1</ele>
        <time>2021-05-17T15:52:56Z</time>
      </trkpt>
      <trkpt lat="41.6936280" lon="-8.8282780">
        <ele>11.1</ele>
        <time>2021-05-17T15:52:57Z</time>
      </trkpt>
      <trkpt lat="41.6936270" lon="-8.8282830">
        <ele>11.1</ele>
        <time>2021-05-17T15:52:58Z</time>
      </trkpt>
      <trkpt lat="41.6936300" lon="-8.8282950">
        <ele>11.0</ele>
        <time>2021-05-17T15:52:59Z</time>
      </trkpt>
      <trkpt lat="41.6936180" lon="-8.8283000">
        <ele>11.0</ele>
        <time>2021-05-17T15:53:00Z</time>
      </trkpt>
      <trkpt lat="41.6936180" lon="-8.8283090">
        <ele>11.0</ele>
        <time>2021-05-17T15:53:01Z</time>
      </trkpt>
      <trkpt lat="41.6936170" lon="-8.8283150">
        <ele>11.0</ele>
        <time>2021-05-17T15:53:02Z</time>
      </trkpt>
      <trkpt lat="41.6936150" lon="-8.8283230">
        <ele>11.0</ele>
        <time>2021-05-17T15:53:03Z</time>
      </trkpt>
      <trkpt lat="41.6936120" lon="-8.8283300">
        <ele>11.0</ele>
        <time>2021-05-17T15:53:04Z</time>
      </trkpt>
      <trkpt lat="41.6936100" lon="-8.8283360">
        <ele>11.0</ele>
        <time>2021-05-17T15:53:05Z</time>
      </trkpt>
      <trkpt lat="41.6936080" lon="-8.8283430">
        <ele>11.0</ele>
        <time>2021-05-17T15:53:06Z</time>
      </trkpt>
      <trkpt lat="41.6936050" lon="-8.8283490">
        <ele>11.0</ele>
        <time>2021-05-17T15:53:07Z</time>
      </trkpt>
      <trkpt lat="41.6936030" lon="-8.8283550">
        <ele>11.0</ele>
        <time>2021-05-17T15:53:08Z</time>
      </trkpt>
      <trkpt lat="41.6936000" lon="-8.8283620">
        <ele>11.0</ele>
        <time>2021-05-17T15:53:09Z</time>
      </trkpt>
      <trkpt lat="41.6935980" lon="-8.8283680">
        <ele>11.0</ele>
        <time>2021-05-17T15:53:10Z</time>
      </trkpt>
      <trkpt lat="41.6935850" lon="-8.8283780">
        <ele>11.0</ele>
        <time>2021-05-17T15:53:11Z</time>
      </trkpt>
      <trkpt lat="41.6935760" lon="-8.8283810">
        <ele>11.0</ele>
        <time>2021-05-17T15:53:12Z</time>
      </trkpt>
      <trkpt lat="41.6935660" lon="-8.8283840">
        <ele>11.0</ele>
        <time>2021-05-17T15:53:13Z</time>
      </trkpt>
      <trkpt lat="41.6935570" lon="-8.8283870">
        <ele>11.0</ele>
        <time>2021-05-17T15:53:14Z</time>
      </trkpt>
      <trkpt lat="41.6935470" lon="-8.8283900">
        <ele>11.0</ele>
        <time>2021-05-17T15:53:15Z</time>
      </trkpt>
      <trkpt lat="41.6935480" lon="-8.8284040">
        <ele>11.0</ele>
        <time>2021-05-17T15:53:16Z</time>
      </trkpt>
      <trkpt lat="41.6935550" lon="-8.8284040">
        <ele>11.0</ele>
        <time>2021-05-17T15:53:17Z</time>
      </trkpt>
      <trkpt lat="41.6935610" lon="-8.8284040">
        <ele>11.0</ele>
        <time>2021-05-17T15:53:18Z</time>
      </trkpt>
      <trkpt lat="41.6935670" lon="-8.8284040">
        <ele>11.0</ele>
        <time>2021-05-17T15:53:19Z</time>
      </trkpt>
      <trkpt lat="41.6935740" lon="-8.8284050">
        <ele>11.0</ele>
        <time>2021-05-17T15:53:20Z</time>
      </trkpt>
      <trkpt lat="41.6935800" lon="-8.8284050">
        <ele>11.0</ele>
        <time>2021-05-17T15:53:21Z</time>
      </trkpt>
      <trkpt lat="41.6935860" lon="-8.8284050">
        <ele>11.0</ele>
        <time>2021-05-17T15:53:22Z</time>
      </trkpt>
      <trkpt lat="41.6935930" lon="-8.8284050">
        <ele>11.0</ele>
        <time>2021-05-17T15:53:23Z</time>
      </trkpt>
      <trkpt lat="41.6935990" lon="-8.8284050">
        <ele>11.0</ele>
        <time>2021-05-17T15:53:24Z</time>
      </trkpt>
      <trkpt lat="41.6936260" lon="-8.8284010">
        <ele>11.0</ele>
        <time>2021-05-17T15:53:25Z</time>
      </trkpt>
      <trkpt lat="41.6936380" lon="-8.8284000">
        <ele>11.0</ele>
        <time>2021-05-17T15:53:26Z</time>
      </trkpt>
      <trkpt lat="41.6936580" lon="-8.8283740">
        <ele>10.9</ele>
        <time>2021-05-17T15:53:27Z</time>
      </trkpt>
      <trkpt lat="41.6936800" lon="-8.8283640">
        <ele>10.9</ele>
        <time>2021-05-17T15:53:28Z</time>
      </trkpt>
      <trkpt lat="41.6936820" lon="-8.8283390">
        <ele>10.9</ele>
        <time>2021-05-17T15:53:29Z</time>
      </trkpt>
      <trkpt lat="41.6936980" lon="-8.8283390">
        <ele>10.9</ele>
        <time>2021-05-17T15:53:30Z</time>
      </trkpt>
      <trkpt lat="41.6937130" lon="-8.8283330">
        <ele>10.8</ele>
        <time>2021-05-17T15:53:31Z</time>
      </trkpt>
      <trkpt lat="41.6937210" lon="-8.8283090">
        <ele>10.8</ele>
        <time>2021-05-17T15:53:32Z</time>
      </trkpt>
      <trkpt lat="41.6937220" lon="-8.8283110">
        <ele>10.8</ele>
        <time>2021-05-17T15:53:33Z</time>
      </trkpt>
      <trkpt lat="41.6937180" lon="-8.8283020">
        <ele>10.8</ele>
        <time>2021-05-17T15:53:34Z</time>
      </trkpt>
      <trkpt lat="41.6937160" lon="-8.8283090">
        <ele>10.8</ele>
        <time>2021-05-17T15:53:35Z</time>
      </trkpt>
      <trkpt lat="41.6937160" lon="-8.8283140">
        <ele>10.8</ele>
        <time>2021-05-17T15:53:36Z</time>
      </trkpt>
      <trkpt lat="41.6937260" lon="-8.8283010">
        <ele>10.8</ele>
        <time>2021-05-17T15:53:37Z</time>
      </trkpt>
      <trkpt lat="41.6937370" lon="-8.8282890">
        <ele>10.8</ele>
        <time>2021-05-17T15:53:38Z</time>
      </trkpt>
      <trkpt lat="41.6937420" lon="-8.8282870">
        <ele>10.8</ele>
        <time>2021-05-17T15:53:39Z</time>
      </trkpt>
      <trkpt lat="41.6937400" lon="-8.8282840">
        <ele>10.8</ele>
        <time>2021-05-17T15:53:40Z</time>
      </trkpt>
      <trkpt lat="41.6937370" lon="-8.8282890">
        <ele>10.8</ele>
        <time>2021-05-17T15:53:42Z</time>
      </trkpt>
      <trkpt lat="41.6937350" lon="-8.8282920">
        <ele>10.8</ele>
        <time>2021-05-17T15:53:43Z</time>
      </trkpt>
      <trkpt lat="41.6937340" lon="-8.8282910">
        <ele>10.8</ele>
        <time>2021-05-17T15:53:44Z</time>
      </trkpt>
      <trkpt lat="41.6937280" lon="-8.8282810">
        <ele>10.8</ele>
        <time>2021-05-17T15:53:45Z</time>
      </trkpt>
      <trkpt lat="41.6937250" lon="-8.8282770">
        <ele>10.8</ele>
        <time>2021-05-17T15:53:46Z</time>
      </trkpt>
      <trkpt lat="41.6937300" lon="-8.8282740">
        <ele>10.8</ele>
        <time>2021-05-17T15:53:47Z</time>
      </trkpt>
      <trkpt lat="41.6937250" lon="-8.8282740">
        <ele>10.8</ele>
        <time>2021-05-17T15:53:48Z</time>
      </trkpt>
      <trkpt lat="41.6937250" lon="-8.8282740">
        <ele>10.8</ele>
        <time>2021-05-17T15:53:49Z</time>
      </trkpt>
      <trkpt lat="41.6937160" lon="-8.8282830">
        <ele>10.8</ele>
        <time>2021-05-17T15:53:50Z</time>
      </trkpt>
      <trkpt lat="41.6937170" lon="-8.8282890">
        <ele>10.8</ele>
        <time>2021-05-17T15:53:51Z</time>
      </trkpt>
      <trkpt lat="41.6937150" lon="-8.8282900">
        <ele>10.8</ele>
        <time>2021-05-17T15:53:52Z</time>
      </trkpt>
      <trkpt lat="41.6937140" lon="-8.8282840">
        <ele>10.8</ele>
        <time>2021-05-17T15:53:53Z</time>
      </trkpt>
      <trkpt lat="41.6937070" lon="-8.8282880">
        <ele>10.8</ele>
        <time>2021-05-17T15:53:54Z</time>
      </trkpt>
      <trkpt lat="41.6937050" lon="-8.8282870">
        <ele>10.8</ele>
        <time>2021-05-17T15:53:55Z</time>
      </trkpt>
      <trkpt lat="41.6937000" lon="-8.8282960">
        <ele>10.8</ele>
        <time>2021-05-17T15:53:56Z</time>
      </trkpt>
      <trkpt lat="41.6936950" lon="-8.8282970">
        <ele>10.8</ele>
        <time>2021-05-17T15:53:57Z</time>
      </trkpt>
      <trkpt lat="41.6936920" lon="-8.8283030">
        <ele>10.8</ele>
        <time>2021-05-17T15:53:58Z</time>
      </trkpt>
      <trkpt lat="41.6936910" lon="-8.8283040">
        <ele>10.8</ele>
        <time>2021-05-17T15:53:59Z</time>
      </trkpt>
      <trkpt lat="41.6936880" lon="-8.8283020">
        <ele>10.8</ele>
        <time>2021-05-17T15:54:00Z</time>
      </trkpt>
      <trkpt lat="41.6936830" lon="-8.8283050">
        <ele>10.8</ele>
        <time>2021-05-17T15:54:01Z</time>
      </trkpt>
      <trkpt lat="41.6936810" lon="-8.8283080">
        <ele>10.8</ele>
        <time>2021-05-17T15:54:02Z</time>
      </trkpt>
      <trkpt lat="41.6936810" lon="-8.8283080">
        <ele>10.8</ele>
        <time>2021-05-17T15:54:03Z</time>
      </trkpt>
      <trkpt lat="41.6936810" lon="-8.8283080">
        <ele>10.8</ele>
        <time>2021-05-17T15:54:04Z</time>
      </trkpt>
      <trkpt lat="41.6936810" lon="-8.8283080">
        <ele>10.8</ele>
        <time>2021-05-17T15:54:05Z</time>
      </trkpt>
      <trkpt lat="41.6936810" lon="-8.8283080">
        <ele>10.8</ele>
        <time>2021-05-17T15:54:06Z</time>
      </trkpt>
      <trkpt lat="41.6936810" lon="-8.8283080">
        <ele>10.8</ele>
        <time>2021-05-17T15:54:07Z</time>
      </trkpt>
      <trkpt lat="41.6936810" lon="-8.8283080">
        <ele>10.8</ele>
        <time>2021-05-17T15:54:08Z</time>
      </trkpt>
      <trkpt lat="41.6936820" lon="-8.8283070">
        <ele>10.8</ele>
        <time>2021-05-17T15:54:09Z</time>
      </trkpt>
      <trkpt lat="41.6936810" lon="-8.8283090">
        <ele>10.8</ele>
        <time>2021-05-17T15:54:10Z</time>
      </trkpt>
      <trkpt lat="41.6936780" lon="-8.8283070">
        <ele>10.8</ele>
        <time>2021-05-17T15:54:11Z</time>
      </trkpt>
      <trkpt lat="41.6936730" lon="-8.8283090">
        <ele>10.8</ele>
        <time>2021-05-17T15:54:12Z</time>
      </trkpt>
      <trkpt lat="41.6936660" lon="-8.8283020">
        <ele>10.8</ele>
        <time>2021-05-17T15:54:13Z</time>
      </trkpt>
      <trkpt lat="41.6936710" lon="-8.8283080">
        <ele>10.8</ele>
        <time>2021-05-17T15:54:14Z</time>
      </trkpt>
      <trkpt lat="41.6936680" lon="-8.8283050">
        <ele>10.8</ele>
        <time>2021-05-17T15:54:15Z</time>
      </trkpt>
      <trkpt lat="41.6936680" lon="-8.8283050">
        <ele>10.8</ele>
        <time>2021-05-17T15:54:16Z</time>
      </trkpt>
      <trkpt lat="41.6936640" lon="-8.8282930">
        <ele>10.8</ele>
        <time>2021-05-17T15:54:17Z</time>
      </trkpt>
      <trkpt lat="41.6936600" lon="-8.8282910">
        <ele>10.8</ele>
        <time>2021-05-17T15:54:18Z</time>
      </trkpt>
      <trkpt lat="41.6936580" lon="-8.8282830">
        <ele>10.8</ele>
        <time>2021-05-17T15:54:19Z</time>
      </trkpt>
      <trkpt lat="41.6936480" lon="-8.8282720">
        <ele>10.8</ele>
        <time>2021-05-17T15:54:20Z</time>
      </trkpt>
      <trkpt lat="41.6936610" lon="-8.8282630">
        <ele>10.8</ele>
        <time>2021-05-17T15:54:21Z</time>
      </trkpt>
      <trkpt lat="41.6936710" lon="-8.8282480">
        <ele>10.8</ele>
        <time>2021-05-17T15:54:22Z</time>
      </trkpt>
      <trkpt lat="41.6936820" lon="-8.8282330">
        <ele>10.8</ele>
        <time>2021-05-17T15:54:23Z</time>
      </trkpt>
      <trkpt lat="41.6936820" lon="-8.8282330">
        <ele>10.8</ele>
        <time>2021-05-17T15:54:24Z</time>
      </trkpt>
      <trkpt lat="41.6937070" lon="-8.8282050">
        <ele>10.8</ele>
        <time>2021-05-17T15:54:25Z</time>
      </trkpt>
      <trkpt lat="41.6937070" lon="-8.8282050">
        <ele>10.8</ele>
        <time>2021-05-17T15:54:26Z</time>
      </trkpt>
      <trkpt lat="41.6937070" lon="-8.8282050">
        <ele>10.8</ele>
        <time>2021-05-17T15:54:27Z</time>
      </trkpt>
      <trkpt lat="41.6937300" lon="-8.8281850">
        <ele>10.8</ele>
        <time>2021-05-17T15:54:28Z</time>
      </trkpt>
      <trkpt lat="41.6937350" lon="-8.8281760">
        <ele>10.8</ele>
        <time>2021-05-17T15:54:29Z</time>
      </trkpt>
      <trkpt lat="41.6937360" lon="-8.8281730">
        <ele>10.8</ele>
        <time>2021-05-17T15:54:30Z</time>
      </trkpt>
      <trkpt lat="41.6937320" lon="-8.8281740">
        <ele>10.8</ele>
        <time>2021-05-17T15:54:31Z</time>
      </trkpt>
      <trkpt lat="41.6937280" lon="-8.8281740">
        <ele>10.8</ele>
        <time>2021-05-17T15:54:32Z</time>
      </trkpt>
      <trkpt lat="41.6937240" lon="-8.8281740">
        <ele>10.8</ele>
        <time>2021-05-17T15:54:33Z</time>
      </trkpt>
      <trkpt lat="41.6937200" lon="-8.8281740">
        <ele>10.8</ele>
        <time>2021-05-17T15:54:34Z</time>
      </trkpt>
      <trkpt lat="41.6937150" lon="-8.8281750">
        <ele>10.8</ele>
        <time>2021-05-17T15:54:35Z</time>
      </trkpt>
      <trkpt lat="41.6937110" lon="-8.8281750">
        <ele>10.8</ele>
        <time>2021-05-17T15:54:36Z</time>
      </trkpt>
      <trkpt lat="41.6937070" lon="-8.8281750">
        <ele>10.8</ele>
        <time>2021-05-17T15:54:37Z</time>
      </trkpt>
      <trkpt lat="41.6937030" lon="-8.8281750">
        <ele>10.8</ele>
        <time>2021-05-17T15:54:38Z</time>
      </trkpt>
      <trkpt lat="41.6936990" lon="-8.8281760">
        <ele>10.8</ele>
        <time>2021-05-17T15:54:39Z</time>
      </trkpt>
      <trkpt lat="41.6936950" lon="-8.8281760">
        <ele>10.8</ele>
        <time>2021-05-17T15:54:40Z</time>
      </trkpt>
      <trkpt lat="41.6935730" lon="-8.8283640">
        <ele>10.8</ele>
        <time>2021-05-17T15:54:41Z</time>
      </trkpt>
      <trkpt lat="41.6935530" lon="-8.8283860">
        <ele>10.8</ele>
        <time>2021-05-17T15:54:42Z</time>
      </trkpt>
      <trkpt lat="41.6935320" lon="-8.8284480">
        <ele>10.8</ele>
        <time>2021-05-17T15:54:43Z</time>
      </trkpt>
      <trkpt lat="41.6935500" lon="-8.8286000">
        <ele>10.8</ele>
        <time>2021-05-17T15:54:44Z</time>
      </trkpt>
      <trkpt lat="41.6935480" lon="-8.8287210">
        <ele>10.8</ele>
        <time>2021-05-17T15:54:45Z</time>
      </trkpt>
      <trkpt lat="41.6935560" lon="-8.8286790">
        <ele>10.8</ele>
        <time>2021-05-17T15:54:46Z</time>
      </trkpt>
      <trkpt lat="41.6935630" lon="-8.8286410">
        <ele>10.8</ele>
        <time>2021-05-17T15:54:47Z</time>
      </trkpt>
      <trkpt lat="41.6935690" lon="-8.8286030">
        <ele>10.8</ele>
        <time>2021-05-17T15:54:48Z</time>
      </trkpt>
      <trkpt lat="41.6935760" lon="-8.8285650">
        <ele>10.8</ele>
        <time>2021-05-17T15:54:49Z</time>
      </trkpt>
      <trkpt lat="41.6935820" lon="-8.8285270">
        <ele>10.8</ele>
        <time>2021-05-17T15:54:50Z</time>
      </trkpt>
      <trkpt lat="41.6936060" lon="-8.8285280">
        <ele>10.8</ele>
        <time>2021-05-17T15:54:52Z</time>
      </trkpt>
      <trkpt lat="41.6936400" lon="-8.8285250">
        <ele>10.8</ele>
        <time>2021-05-17T15:54:53Z</time>
      </trkpt>
      <trkpt lat="41.6936730" lon="-8.8285210">
        <ele>10.8</ele>
        <time>2021-05-17T15:54:54Z</time>
      </trkpt>
      <trkpt lat="41.6936600" lon="-8.8285260">
        <ele>10.8</ele>
        <time>2021-05-17T15:54:55Z</time>
      </trkpt>
      <trkpt lat="41.6936500" lon="-8.8285270">
        <ele>10.8</ele>
        <time>2021-05-17T15:54:56Z</time>
      </trkpt>
      <trkpt lat="41.6936410" lon="-8.8285250">
        <ele>10.8</ele>
        <time>2021-05-17T15:54:57Z</time>
      </trkpt>
      <trkpt lat="41.6936160" lon="-8.8284950">
        <ele>10.8</ele>
        <time>2021-05-17T15:54:58Z</time>
      </trkpt>
      <trkpt lat="41.6936050" lon="-8.8284660">
        <ele>10.8</ele>
        <time>2021-05-17T15:54:59Z</time>
      </trkpt>
      <trkpt lat="41.6935940" lon="-8.8284380">
        <ele>10.8</ele>
        <time>2021-05-17T15:55:00Z</time>
      </trkpt>
      <trkpt lat="41.6935830" lon="-8.8284090">
        <ele>10.8</ele>
        <time>2021-05-17T15:55:01Z</time>
      </trkpt>
      <trkpt lat="41.6935770" lon="-8.8284200">
        <ele>10.8</ele>
        <time>2021-05-17T15:55:02Z</time>
      </trkpt>
      <trkpt lat="41.6935460" lon="-8.8284060">
        <ele>10.8</ele>
        <time>2021-05-17T15:55:03Z</time>
      </trkpt>
      <trkpt lat="41.6935480" lon="-8.8283930">
        <ele>10.8</ele>
        <time>2021-05-17T15:55:04Z</time>
      </trkpt>
      <trkpt lat="41.6935500" lon="-8.8283790">
        <ele>10.8</ele>
        <time>2021-05-17T15:55:05Z</time>
      </trkpt>
      <trkpt lat="41.6935510" lon="-8.8283660">
        <ele>10.8</ele>
        <time>2021-05-17T15:55:06Z</time>
      </trkpt>
      <trkpt lat="41.6935530" lon="-8.8283520">
        <ele>10.8</ele>
        <time>2021-05-17T15:55:07Z</time>
      </trkpt>
      <trkpt lat="41.6935550" lon="-8.8283390">
        <ele>10.8</ele>
        <time>2021-05-17T15:55:08Z</time>
      </trkpt>
      <trkpt lat="41.6935650" lon="-8.8283400">
        <ele>10.8</ele>
        <time>2021-05-17T15:55:09Z</time>
      </trkpt>
      <trkpt lat="41.6935710" lon="-8.8283390">
        <ele>10.8</ele>
        <time>2021-05-17T15:55:10Z</time>
      </trkpt>
      <trkpt lat="41.6935760" lon="-8.8283370">
        <ele>10.8</ele>
        <time>2021-05-17T15:55:11Z</time>
      </trkpt>
      <trkpt lat="41.6935810" lon="-8.8283360">
        <ele>10.8</ele>
        <time>2021-05-17T15:55:12Z</time>
      </trkpt>
      <trkpt lat="41.6935860" lon="-8.8283350">
        <ele>10.8</ele>
        <time>2021-05-17T15:55:13Z</time>
      </trkpt>
      <trkpt lat="41.6935920" lon="-8.8283340">
        <ele>10.8</ele>
        <time>2021-05-17T15:55:14Z</time>
      </trkpt>
      <trkpt lat="41.6935970" lon="-8.8283320">
        <ele>10.8</ele>
        <time>2021-05-17T15:55:15Z</time>
      </trkpt>
      <trkpt lat="41.6936020" lon="-8.8283310">
        <ele>10.8</ele>
        <time>2021-05-17T15:55:16Z</time>
      </trkpt>
      <trkpt lat="41.6935950" lon="-8.8283350">
        <ele>10.8</ele>
        <time>2021-05-17T15:55:17Z</time>
      </trkpt>
      <trkpt lat="41.6935870" lon="-8.8283390">
        <ele>10.8</ele>
        <time>2021-05-17T15:55:18Z</time>
      </trkpt>
      <trkpt lat="41.6935800" lon="-8.8283430">
        <ele>10.8</ele>
        <time>2021-05-17T15:55:19Z</time>
      </trkpt>
      <trkpt lat="41.6935730" lon="-8.8283460">
        <ele>10.8</ele>
        <time>2021-05-17T15:55:20Z</time>
      </trkpt>
      <trkpt lat="41.6935660" lon="-8.8283500">
        <ele>10.8</ele>
        <time>2021-05-17T15:55:21Z</time>
      </trkpt>
      <trkpt lat="41.6935580" lon="-8.8283540">
        <ele>10.8</ele>
        <time>2021-05-17T15:55:22Z</time>
      </trkpt>
      <trkpt lat="41.6935510" lon="-8.8283580">
        <ele>10.8</ele>
        <time>2021-05-17T15:55:23Z</time>
      </trkpt>
      <trkpt lat="41.6935550" lon="-8.8283560">
        <ele>10.8</ele>
        <time>2021-05-17T15:55:24Z</time>
      </trkpt>
      <trkpt lat="41.6935550" lon="-8.8283560">
        <ele>10.8</ele>
        <time>2021-05-17T15:55:25Z</time>
      </trkpt>
      <trkpt lat="41.6935550" lon="-8.8283560">
        <ele>10.8</ele>
        <time>2021-05-17T15:55:26Z</time>
      </trkpt>
      <trkpt lat="41.6935610" lon="-8.8283770">
        <ele>10.8</ele>
        <time>2021-05-17T15:55:28Z</time>
      </trkpt>
      <trkpt lat="41.6935530" lon="-8.8283800">
        <ele>10.8</ele>
        <time>2021-05-17T15:55:29Z</time>
      </trkpt>
      <trkpt lat="41.6935560" lon="-8.8283930">
        <ele>10.8</ele>
        <time>2021-05-17T15:55:30Z</time>
      </trkpt>
      <trkpt lat="41.6935480" lon="-8.8283620">
        <ele>10.8</ele>
        <time>2021-05-17T15:55:31Z</time>
      </trkpt>
      <trkpt lat="41.6935440" lon="-8.8283690">
        <ele>10.8</ele>
        <time>2021-05-17T15:55:32Z</time>
      </trkpt>
      <trkpt lat="41.6935370" lon="-8.8283710">
        <ele>10.8</ele>
        <time>2021-05-17T15:55:33Z</time>
      </trkpt>
      <trkpt lat="41.6935340" lon="-8.8283720">
        <ele>10.8</ele>
        <time>2021-05-17T15:55:34Z</time>
      </trkpt>
      <trkpt lat="41.6935240" lon="-8.8283750">
        <ele>10.8</ele>
        <time>2021-05-17T15:55:35Z</time>
      </trkpt>
      <trkpt lat="41.6935740" lon="-8.8283580">
        <ele>10.8</ele>
        <time>2021-05-17T15:55:36Z</time>
      </trkpt>
      <trkpt lat="41.6936140" lon="-8.8283470">
        <ele>10.8</ele>
        <time>2021-05-17T15:55:37Z</time>
      </trkpt>
      <trkpt lat="41.6936050" lon="-8.8283510">
        <ele>10.8</ele>
        <time>2021-05-17T15:55:38Z</time>
      </trkpt>
      <trkpt lat="41.6936030" lon="-8.8283520">
        <ele>10.8</ele>
        <time>2021-05-17T15:55:39Z</time>
      </trkpt>
      <trkpt lat="41.6936020" lon="-8.8283510">
        <ele>10.8</ele>
        <time>2021-05-17T15:55:40Z</time>
      </trkpt>
      <trkpt lat="41.6936100" lon="-8.8283500">
        <ele>10.8</ele>
        <time>2021-05-17T15:55:41Z</time>
      </trkpt>
      <trkpt lat="41.6936400" lon="-8.8283400">
        <ele>10.8</ele>
        <time>2021-05-17T15:55:42Z</time>
      </trkpt>
      <trkpt lat="41.6936250" lon="-8.8283420">
        <ele>10.8</ele>
        <time>2021-05-17T15:55:43Z</time>
      </trkpt>
      <trkpt lat="41.6936050" lon="-8.8283480">
        <ele>10.8</ele>
        <time>2021-05-17T15:55:44Z</time>
      </trkpt>
      <trkpt lat="41.6935900" lon="-8.8283560">
        <ele>10.8</ele>
        <time>2021-05-17T15:55:45Z</time>
      </trkpt>
      <trkpt lat="41.6935870" lon="-8.8283570">
        <ele>10.8</ele>
        <time>2021-05-17T15:55:46Z</time>
      </trkpt>
      <trkpt lat="41.6935740" lon="-8.8283630">
        <ele>10.8</ele>
        <time>2021-05-17T15:55:47Z</time>
      </trkpt>
      <trkpt lat="41.6935720" lon="-8.8283630">
        <ele>10.8</ele>
        <time>2021-05-17T15:55:48Z</time>
      </trkpt>
      <trkpt lat="41.6935720" lon="-8.8283630">
        <ele>10.8</ele>
        <time>2021-05-17T15:55:49Z</time>
      </trkpt>
      <trkpt lat="41.6935720" lon="-8.8283630">
        <ele>10.8</ele>
        <time>2021-05-17T15:55:50Z</time>
      </trkpt>
      <trkpt lat="41.6936210" lon="-8.8283490">
        <ele>10.8</ele>
        <time>2021-05-17T15:55:51Z</time>
      </trkpt>
      <trkpt lat="41.6935990" lon="-8.8283490">
        <ele>10.8</ele>
        <time>2021-05-17T15:55:52Z</time>
      </trkpt>
      <trkpt lat="41.6935790" lon="-8.8283530">
        <ele>10.8</ele>
        <time>2021-05-17T15:55:53Z</time>
      </trkpt>
      <trkpt lat="41.6935640" lon="-8.8283620">
        <ele>10.8</ele>
        <time>2021-05-17T15:55:54Z</time>
      </trkpt>
      <trkpt lat="41.6935490" lon="-8.8283670">
        <ele>10.8</ele>
        <time>2021-05-17T15:55:55Z</time>
      </trkpt>
      <trkpt lat="41.6936600" lon="-8.8283720">
        <ele>10.8</ele>
        <time>2021-05-17T15:55:56Z</time>
      </trkpt>
      <trkpt lat="41.6936550" lon="-8.8283740">
        <ele>10.8</ele>
        <time>2021-05-17T15:55:57Z</time>
      </trkpt>
      <trkpt lat="41.6936580" lon="-8.8283770">
        <ele>10.8</ele>
        <time>2021-05-17T15:55:58Z</time>
      </trkpt>
      <trkpt lat="41.6936640" lon="-8.8283770">
        <ele>10.8</ele>
        <time>2021-05-17T15:55:59Z</time>
      </trkpt>
      <trkpt lat="41.6937030" lon="-8.8283670">
        <ele>10.8</ele>
        <time>2021-05-17T15:56:12Z</time>
      </trkpt>
      <trkpt lat="41.6937050" lon="-8.8283650">
        <ele>10.8</ele>
        <time>2021-05-17T15:56:18Z</time>
      </trkpt>
      <trkpt lat="41.6937030" lon="-8.8283640">
        <ele>10.8</ele>
        <time>2021-05-17T15:56:23Z</time>
      </trkpt>
      <trkpt lat="41.6937020" lon="-8.8283640">
        <ele>10.8</ele>
        <time>2021-05-17T15:56:29Z</time>
      </trkpt>
      <trkpt lat="41.6937010" lon="-8.8283640">
        <ele>10.8</ele>
        <time>2021-05-17T15:56:30Z</time>
      </trkpt>
      <trkpt lat="41.6937030" lon="-8.8283660">
        <ele>10.8</ele>
        <time>2021-05-17T15:56:37Z</time>
      </trkpt>
      <trkpt lat="41.6937020" lon="-8.8283660">
        <ele>10.8</ele>
        <time>2021-05-17T15:56:38Z</time>
      </trkpt>
      <trkpt lat="41.6937010" lon="-8.8283620">
        <ele>10.8</ele>
        <time>2021-05-17T15:56:44Z</time>
      </trkpt>
      <trkpt lat="41.6936970" lon="-8.8283580">
        <ele>10.8</ele>
        <time>2021-05-17T15:56:46Z</time>
      </trkpt>
      <trkpt lat="41.6936930" lon="-8.8283520">
        <ele>10.8</ele>
        <time>2021-05-17T15:56:52Z</time>
      </trkpt>
      <trkpt lat="41.6936880" lon="-8.8283470">
        <ele>10.8</ele>
        <time>2021-05-17T15:56:53Z</time>
      </trkpt>
      <trkpt lat="41.6937000" lon="-8.8283630">
        <ele>10.8</ele>
        <time>2021-05-17T15:57:00Z</time>
      </trkpt>
      <trkpt lat="41.6937000" lon="-8.8283640">
        <ele>10.8</ele>
        <time>2021-05-17T15:57:01Z</time>
      </trkpt>
      <trkpt lat="41.6935550" lon="-8.8283640">
        <ele>10.8</ele>
        <time>2021-05-17T15:57:08Z</time>
      </trkpt>
      <trkpt lat="41.6935440" lon="-8.8283350">
        <ele>10.8</ele>
        <time>2021-05-17T15:57:13Z</time>
      </trkpt>
      <trkpt lat="41.6935210" lon="-8.8283390">
        <ele>10.8</ele>
        <time>2021-05-17T15:57:15Z</time>
      </trkpt>
      <trkpt lat="41.6935170" lon="-8.8283720">
        <ele>10.8</ele>
        <time>2021-05-17T15:57:16Z</time>
      </trkpt>
      <trkpt lat="41.6935200" lon="-8.8284060">
        <ele>10.8</ele>
        <time>2021-05-17T15:57:17Z</time>
      </trkpt>
      <trkpt lat="41.6935220" lon="-8.8284400">
        <ele>10.8</ele>
        <time>2021-05-17T15:57:18Z</time>
      </trkpt>
      <trkpt lat="41.6935300" lon="-8.8284370">
        <ele>10.8</ele>
        <time>2021-05-17T15:57:19Z</time>
      </trkpt>
      <trkpt lat="41.6935330" lon="-8.8284240">
        <ele>10.8</ele>
        <time>2021-05-17T15:57:20Z</time>
      </trkpt>
      <trkpt lat="41.6935020" lon="-8.8284310">
        <ele>10.8</ele>
        <time>2021-05-17T15:57:21Z</time>
      </trkpt>
      <trkpt lat="41.6934950" lon="-8.8284320">
        <ele>10.8</ele>
        <time>2021-05-17T15:57:22Z</time>
      </trkpt>
      <trkpt lat="41.6934820" lon="-8.8284360">
        <ele>10.7</ele>
        <time>2021-05-17T15:57:23Z</time>
      </trkpt>
      <trkpt lat="41.6934790" lon="-8.8284300">
        <ele>10.7</ele>
        <time>2021-05-17T15:57:24Z</time>
      </trkpt>
      <trkpt lat="41.6934770" lon="-8.8284250">
        <ele>10.7</ele>
        <time>2021-05-17T15:57:25Z</time>
      </trkpt>
      <trkpt lat="41.6934660" lon="-8.8284300">
        <ele>10.7</ele>
        <time>2021-05-17T15:57:26Z</time>
      </trkpt>
      <trkpt lat="41.6934550" lon="-8.8284320">
        <ele>10.7</ele>
        <time>2021-05-17T15:57:27Z</time>
      </trkpt>
      <trkpt lat="41.6934470" lon="-8.8284380">
        <ele>10.6</ele>
        <time>2021-05-17T15:57:28Z</time>
      </trkpt>
      <trkpt lat="41.6934360" lon="-8.8284390">
        <ele>10.6</ele>
        <time>2021-05-17T15:57:29Z</time>
      </trkpt>
      <trkpt lat="41.6934340" lon="-8.8284380">
        <ele>10.6</ele>
        <time>2021-05-17T15:57:30Z</time>
      </trkpt>
      <trkpt lat="41.6934270" lon="-8.8284410">
        <ele>10.6</ele>
        <time>2021-05-17T15:57:31Z</time>
      </trkpt>
      <trkpt lat="41.6934210" lon="-8.8284460">
        <ele>10.6</ele>
        <time>2021-05-17T15:57:32Z</time>
      </trkpt>
      <trkpt lat="41.6934120" lon="-8.8284410">
        <ele>10.6</ele>
        <time>2021-05-17T15:57:33Z</time>
      </trkpt>
      <trkpt lat="41.6934040" lon="-8.8284330">
        <ele>10.6</ele>
        <time>2021-05-17T15:57:34Z</time>
      </trkpt>
      <trkpt lat="41.6934010" lon="-8.8284250">
        <ele>10.6</ele>
        <time>2021-05-17T15:57:35Z</time>
      </trkpt>
      <trkpt lat="41.6933990" lon="-8.8284270">
        <ele>10.6</ele>
        <time>2021-05-17T15:57:36Z</time>
      </trkpt>
      <trkpt lat="41.6933950" lon="-8.8284290">
        <ele>10.6</ele>
        <time>2021-05-17T15:57:37Z</time>
      </trkpt>
      <trkpt lat="41.6933760" lon="-8.8284450">
        <ele>10.6</ele>
        <time>2021-05-17T15:57:38Z</time>
      </trkpt>
      <trkpt lat="41.6933660" lon="-8.8284520">
        <ele>10.5</ele>
        <time>2021-05-17T15:57:39Z</time>
      </trkpt>
      <trkpt lat="41.6933600" lon="-8.8284560">
        <ele>10.5</ele>
        <time>2021-05-17T15:57:40Z</time>
      </trkpt>
      <trkpt lat="41.6933530" lon="-8.8284590">
        <ele>10.5</ele>
        <time>2021-05-17T15:57:41Z</time>
      </trkpt>
      <trkpt lat="41.6933470" lon="-8.8284630">
        <ele>10.5</ele>
        <time>2021-05-17T15:57:42Z</time>
      </trkpt>
      <trkpt lat="41.6933410" lon="-8.8284670">
        <ele>10.5</ele>
        <time>2021-05-17T15:57:43Z</time>
      </trkpt>
      <trkpt lat="41.6933280" lon="-8.8284810">
        <ele>10.5</ele>
        <time>2021-05-17T15:57:44Z</time>
      </trkpt>
      <trkpt lat="41.6933240" lon="-8.8284810">
        <ele>10.5</ele>
        <time>2021-05-17T15:57:45Z</time>
      </trkpt>
      <trkpt lat="41.6933190" lon="-8.8284890">
        <ele>10.5</ele>
        <time>2021-05-17T15:57:46Z</time>
      </trkpt>
      <trkpt lat="41.6933030" lon="-8.8284980">
        <ele>10.5</ele>
        <time>2021-05-17T15:57:47Z</time>
      </trkpt>
      <trkpt lat="41.6932960" lon="-8.8285050">
        <ele>10.5</ele>
        <time>2021-05-17T15:57:48Z</time>
      </trkpt>
      <trkpt lat="41.6932940" lon="-8.8285190">
        <ele>10.4</ele>
        <time>2021-05-17T15:57:49Z</time>
      </trkpt>
      <trkpt lat="41.6932760" lon="-8.8285450">
        <ele>10.4</ele>
        <time>2021-05-17T15:57:50Z</time>
      </trkpt>
      <trkpt lat="41.6932500" lon="-8.8285590">
        <ele>10.4</ele>
        <time>2021-05-17T15:57:51Z</time>
      </trkpt>
      <trkpt lat="41.6932400" lon="-8.8285580">
        <ele>10.4</ele>
        <time>2021-05-17T15:57:52Z</time>
      </trkpt>
      <trkpt lat="41.6932120" lon="-8.8285650">
        <ele>10.4</ele>
        <time>2021-05-17T15:57:53Z</time>
      </trkpt>
      <trkpt lat="41.6931980" lon="-8.8285580">
        <ele>10.3</ele>
        <time>2021-05-17T15:57:54Z</time>
      </trkpt>
      <trkpt lat="41.6931900" lon="-8.8285610">
        <ele>10.3</ele>
        <time>2021-05-17T15:57:55Z</time>
      </trkpt>
      <trkpt lat="41.6931830" lon="-8.8285630">
        <ele>10.3</ele>
        <time>2021-05-17T15:57:56Z</time>
      </trkpt>
      <trkpt lat="41.6931750" lon="-8.8285650">
        <ele>10.3</ele>
        <time>2021-05-17T15:57:57Z</time>
      </trkpt>
      <trkpt lat="41.6931640" lon="-8.8285800">
        <ele>10.3</ele>
        <time>2021-05-17T15:57:58Z</time>
      </trkpt>
      <trkpt lat="41.6931520" lon="-8.8286000">
        <ele>10.3</ele>
        <time>2021-05-17T15:57:59Z</time>
      </trkpt>
      <trkpt lat="41.6931360" lon="-8.8286000">
        <ele>10.3</ele>
        <time>2021-05-17T15:58:00Z</time>
      </trkpt>
      <trkpt lat="41.6931250" lon="-8.8286060">
        <ele>10.3</ele>
        <time>2021-05-17T15:58:01Z</time>
      </trkpt>
      <trkpt lat="41.6931060" lon="-8.8286040">
        <ele>10.3</ele>
        <time>2021-05-17T15:58:02Z</time>
      </trkpt>
      <trkpt lat="41.6930920" lon="-8.8286070">
        <ele>10.2</ele>
        <time>2021-05-17T15:58:03Z</time>
      </trkpt>
      <trkpt lat="41.6930710" lon="-8.8286260">
        <ele>10.2</ele>
        <time>2021-05-17T15:58:04Z</time>
      </trkpt>
      <trkpt lat="41.6930600" lon="-8.8286360">
        <ele>10.2</ele>
        <time>2021-05-17T15:58:05Z</time>
      </trkpt>
      <trkpt lat="41.6930500" lon="-8.8286470">
        <ele>10.2</ele>
        <time>2021-05-17T15:58:06Z</time>
      </trkpt>
      <trkpt lat="41.6930410" lon="-8.8286540">
        <ele>10.2</ele>
        <time>2021-05-17T15:58:07Z</time>
      </trkpt>
      <trkpt lat="41.6930330" lon="-8.8286580">
        <ele>10.2</ele>
        <time>2021-05-17T15:58:08Z</time>
      </trkpt>
      <trkpt lat="41.6930240" lon="-8.8286610">
        <ele>10.2</ele>
        <time>2021-05-17T15:58:09Z</time>
      </trkpt>
      <trkpt lat="41.6930150" lon="-8.8286560">
        <ele>10.2</ele>
        <time>2021-05-17T15:58:10Z</time>
      </trkpt>
      <trkpt lat="41.6930040" lon="-8.8286610">
        <ele>10.1</ele>
        <time>2021-05-17T15:58:11Z</time>
      </trkpt>
      <trkpt lat="41.6929950" lon="-8.8286610">
        <ele>10.1</ele>
        <time>2021-05-17T15:58:12Z</time>
      </trkpt>
      <trkpt lat="41.6929930" lon="-8.8286620">
        <ele>10.1</ele>
        <time>2021-05-17T15:58:13Z</time>
      </trkpt>
      <trkpt lat="41.6929950" lon="-8.8286680">
        <ele>10.1</ele>
        <time>2021-05-17T15:58:14Z</time>
      </trkpt>
      <trkpt lat="41.6930000" lon="-8.8286650">
        <ele>10.1</ele>
        <time>2021-05-17T15:58:15Z</time>
      </trkpt>
      <trkpt lat="41.6930030" lon="-8.8286580">
        <ele>10.1</ele>
        <time>2021-05-17T15:58:16Z</time>
      </trkpt>
      <trkpt lat="41.6930060" lon="-8.8286470">
        <ele>10.1</ele>
        <time>2021-05-17T15:58:17Z</time>
      </trkpt>
      <trkpt lat="41.6930060" lon="-8.8286440">
        <ele>10.1</ele>
        <time>2021-05-17T15:58:18Z</time>
      </trkpt>
      <trkpt lat="41.6929960" lon="-8.8286420">
        <ele>10.1</ele>
        <time>2021-05-17T15:58:19Z</time>
      </trkpt>
      <trkpt lat="41.6929870" lon="-8.8286410">
        <ele>10.1</ele>
        <time>2021-05-17T15:58:20Z</time>
      </trkpt>
      <trkpt lat="41.6929780" lon="-8.8286390">
        <ele>10.1</ele>
        <time>2021-05-17T15:58:21Z</time>
      </trkpt>
      <trkpt lat="41.6929750" lon="-8.8286380">
        <ele>10.1</ele>
        <time>2021-05-17T15:58:22Z</time>
      </trkpt>
      <trkpt lat="41.6929780" lon="-8.8286340">
        <ele>10.1</ele>
        <time>2021-05-17T15:58:23Z</time>
      </trkpt>
      <trkpt lat="41.6929850" lon="-8.8286320">
        <ele>10.1</ele>
        <time>2021-05-17T15:58:24Z</time>
      </trkpt>
      <trkpt lat="41.6929830" lon="-8.8286220">
        <ele>10.1</ele>
        <time>2021-05-17T15:58:25Z</time>
      </trkpt>
      <trkpt lat="41.6929820" lon="-8.8286210">
        <ele>10.1</ele>
        <time>2021-05-17T15:58:26Z</time>
      </trkpt>
      <trkpt lat="41.6929830" lon="-8.8285930">
        <ele>10.0</ele>
        <time>2021-05-17T15:58:27Z</time>
      </trkpt>
      <trkpt lat="41.6929840" lon="-8.8285770">
        <ele>10.0</ele>
        <time>2021-05-17T15:58:28Z</time>
      </trkpt>
      <trkpt lat="41.6929830" lon="-8.8285650">
        <ele>10.0</ele>
        <time>2021-05-17T15:58:29Z</time>
      </trkpt>
      <trkpt lat="41.6929830" lon="-8.8285580">
        <ele>10.0</ele>
        <time>2021-05-17T15:58:30Z</time>
      </trkpt>
      <trkpt lat="41.6929830" lon="-8.8285490">
        <ele>10.0</ele>
        <time>2021-05-17T15:58:31Z</time>
      </trkpt>
      <trkpt lat="41.6929830" lon="-8.8285440">
        <ele>10.0</ele>
        <time>2021-05-17T15:58:32Z</time>
      </trkpt>
      <trkpt lat="41.6929840" lon="-8.8285450">
        <ele>10.0</ele>
        <time>2021-05-17T15:58:33Z</time>
      </trkpt>
      <trkpt lat="41.6929810" lon="-8.8285500">
        <ele>10.0</ele>
        <time>2021-05-17T15:58:34Z</time>
      </trkpt>
      <trkpt lat="41.6929730" lon="-8.8285530">
        <ele>10.0</ele>
        <time>2021-05-17T15:58:35Z</time>
      </trkpt>
      <trkpt lat="41.6929720" lon="-8.8285490">
        <ele>10.0</ele>
        <time>2021-05-17T15:58:36Z</time>
      </trkpt>
      <trkpt lat="41.6929600" lon="-8.8285540">
        <ele>10.0</ele>
        <time>2021-05-17T15:58:37Z</time>
      </trkpt>
      <trkpt lat="41.6929530" lon="-8.8285530">
        <ele>10.0</ele>
        <time>2021-05-17T15:58:38Z</time>
      </trkpt>
      <trkpt lat="41.6929440" lon="-8.8285630">
        <ele>10.0</ele>
        <time>2021-05-17T15:58:40Z</time>
      </trkpt>
      <trkpt lat="41.6929340" lon="-8.8285660">
        <ele>10.0</ele>
        <time>2021-05-17T15:58:41Z</time>
      </trkpt>
      <trkpt lat="41.6929420" lon="-8.8285680">
        <ele>10.0</ele>
        <time>2021-05-17T15:58:42Z</time>
      </trkpt>
      <trkpt lat="41.6929470" lon="-8.8285730">
        <ele>10.0</ele>
        <time>2021-05-17T15:58:43Z</time>
      </trkpt>
      <trkpt lat="41.6929380" lon="-8.8285840">
        <ele>9.9</ele>
        <time>2021-05-17T15:58:44Z</time>
      </trkpt>
      <trkpt lat="41.6929300" lon="-8.8285910">
        <ele>9.9</ele>
        <time>2021-05-17T15:58:45Z</time>
      </trkpt>
      <trkpt lat="41.6929220" lon="-8.8286080">
        <ele>9.9</ele>
        <time>2021-05-17T15:58:46Z</time>
      </trkpt>
      <trkpt lat="41.6929240" lon="-8.8286210">
        <ele>9.9</ele>
        <time>2021-05-17T15:58:47Z</time>
      </trkpt>
      <trkpt lat="41.6929190" lon="-8.8286300">
        <ele>9.9</ele>
        <time>2021-05-17T15:58:48Z</time>
      </trkpt>
      <trkpt lat="41.6929190" lon="-8.8286490">
        <ele>9.9</ele>
        <time>2021-05-17T15:58:49Z</time>
      </trkpt>
      <trkpt lat="41.6929100" lon="-8.8286580">
        <ele>9.9</ele>
        <time>2021-05-17T15:58:50Z</time>
      </trkpt>
      <trkpt lat="41.6929150" lon="-8.8286670">
        <ele>9.9</ele>
        <time>2021-05-17T15:58:51Z</time>
      </trkpt>
      <trkpt lat="41.6929060" lon="-8.8286680">
        <ele>9.9</ele>
        <time>2021-05-17T15:58:52Z</time>
      </trkpt>
      <trkpt lat="41.6929010" lon="-8.8286840">
        <ele>9.9</ele>
        <time>2021-05-17T15:58:53Z</time>
      </trkpt>
      <trkpt lat="41.6928950" lon="-8.8286890">
        <ele>9.9</ele>
        <time>2021-05-17T15:58:54Z</time>
      </trkpt>
      <trkpt lat="41.6928900" lon="-8.8286950">
        <ele>9.9</ele>
        <time>2021-05-17T15:58:55Z</time>
      </trkpt>
      <trkpt lat="41.6928810" lon="-8.8287090">
        <ele>9.8</ele>
        <time>2021-05-17T15:58:56Z</time>
      </trkpt>
      <trkpt lat="41.6928730" lon="-8.8287160">
        <ele>9.8</ele>
        <time>2021-05-17T15:58:57Z</time>
      </trkpt>
      <trkpt lat="41.6928660" lon="-8.8287240">
        <ele>9.8</ele>
        <time>2021-05-17T15:58:58Z</time>
      </trkpt>
      <trkpt lat="41.6928610" lon="-8.8287350">
        <ele>9.8</ele>
        <time>2021-05-17T15:58:59Z</time>
      </trkpt>
      <trkpt lat="41.6928540" lon="-8.8287460">
        <ele>9.8</ele>
        <time>2021-05-17T15:59:00Z</time>
      </trkpt>
      <trkpt lat="41.6928520" lon="-8.8287710">
        <ele>9.8</ele>
        <time>2021-05-17T15:59:01Z</time>
      </trkpt>
      <trkpt lat="41.6928480" lon="-8.8287790">
        <ele>9.8</ele>
        <time>2021-05-17T15:59:02Z</time>
      </trkpt>
      <trkpt lat="41.6928430" lon="-8.8287880">
        <ele>9.8</ele>
        <time>2021-05-17T15:59:03Z</time>
      </trkpt>
      <trkpt lat="41.6928390" lon="-8.8287960">
        <ele>9.8</ele>
        <time>2021-05-17T15:59:04Z</time>
      </trkpt>
      <trkpt lat="41.6928400" lon="-8.8288080">
        <ele>9.8</ele>
        <time>2021-05-17T15:59:05Z</time>
      </trkpt>
      <trkpt lat="41.6928390" lon="-8.8288250">
        <ele>9.8</ele>
        <time>2021-05-17T15:59:06Z</time>
      </trkpt>
      <trkpt lat="41.6928340" lon="-8.8288340">
        <ele>9.8</ele>
        <time>2021-05-17T15:59:07Z</time>
      </trkpt>
      <trkpt lat="41.6928300" lon="-8.8288430">
        <ele>9.8</ele>
        <time>2021-05-17T15:59:08Z</time>
      </trkpt>
      <trkpt lat="41.6928210" lon="-8.8288560">
        <ele>9.8</ele>
        <time>2021-05-17T15:59:09Z</time>
      </trkpt>
      <trkpt lat="41.6928170" lon="-8.8288720">
        <ele>9.7</ele>
        <time>2021-05-17T15:59:10Z</time>
      </trkpt>
      <trkpt lat="41.6928090" lon="-8.8288910">
        <ele>9.7</ele>
        <time>2021-05-17T15:59:11Z</time>
      </trkpt>
      <trkpt lat="41.6928080" lon="-8.8289020">
        <ele>9.7</ele>
        <time>2021-05-17T15:59:12Z</time>
      </trkpt>
      <trkpt lat="41.6928070" lon="-8.8289130">
        <ele>9.7</ele>
        <time>2021-05-17T15:59:13Z</time>
      </trkpt>
      <trkpt lat="41.6928060" lon="-8.8289240">
        <ele>9.7</ele>
        <time>2021-05-17T15:59:14Z</time>
      </trkpt>
      <trkpt lat="41.6927980" lon="-8.8289360">
        <ele>9.7</ele>
        <time>2021-05-17T15:59:15Z</time>
      </trkpt>
      <trkpt lat="41.6927930" lon="-8.8289440">
        <ele>9.7</ele>
        <time>2021-05-17T15:59:16Z</time>
      </trkpt>
      <trkpt lat="41.6927850" lon="-8.8289570">
        <ele>9.7</ele>
        <time>2021-05-17T15:59:17Z</time>
      </trkpt>
      <trkpt lat="41.6927940" lon="-8.8289890">
        <ele>9.7</ele>
        <time>2021-05-17T15:59:18Z</time>
      </trkpt>
      <trkpt lat="41.6928100" lon="-8.8290180">
        <ele>9.6</ele>
        <time>2021-05-17T15:59:19Z</time>
      </trkpt>
      <trkpt lat="41.6928090" lon="-8.8290310">
        <ele>9.6</ele>
        <time>2021-05-17T15:59:20Z</time>
      </trkpt>
      <trkpt lat="41.6928100" lon="-8.8290460">
        <ele>9.6</ele>
        <time>2021-05-17T15:59:21Z</time>
      </trkpt>
      <trkpt lat="41.6928010" lon="-8.8290540">
        <ele>9.6</ele>
        <time>2021-05-17T15:59:22Z</time>
      </trkpt>
      <trkpt lat="41.6927880" lon="-8.8290620">
        <ele>9.6</ele>
        <time>2021-05-17T15:59:23Z</time>
      </trkpt>
      <trkpt lat="41.6927880" lon="-8.8290640">
        <ele>9.6</ele>
        <time>2021-05-17T15:59:24Z</time>
      </trkpt>
      <trkpt lat="41.6927880" lon="-8.8290670">
        <ele>9.6</ele>
        <time>2021-05-17T15:59:25Z</time>
      </trkpt>
      <trkpt lat="41.6927880" lon="-8.8290700">
        <ele>9.6</ele>
        <time>2021-05-17T15:59:26Z</time>
      </trkpt>
      <trkpt lat="41.6927880" lon="-8.8290720">
        <ele>9.6</ele>
        <time>2021-05-17T15:59:27Z</time>
      </trkpt>
      <trkpt lat="41.6927880" lon="-8.8290750">
        <ele>9.6</ele>
        <time>2021-05-17T15:59:28Z</time>
      </trkpt>
      <trkpt lat="41.6927880" lon="-8.8290770">
        <ele>9.6</ele>
        <time>2021-05-17T15:59:29Z</time>
      </trkpt>
      <trkpt lat="41.6927880" lon="-8.8290800">
        <ele>9.6</ele>
        <time>2021-05-17T15:59:30Z</time>
      </trkpt>
      <trkpt lat="41.6927880" lon="-8.8290830">
        <ele>9.6</ele>
        <time>2021-05-17T15:59:31Z</time>
      </trkpt>
      <trkpt lat="41.6927890" lon="-8.8290850">
        <ele>9.6</ele>
        <time>2021-05-17T15:59:32Z</time>
      </trkpt>
      <trkpt lat="41.6927890" lon="-8.8290880">
        <ele>9.6</ele>
        <time>2021-05-17T15:59:33Z</time>
      </trkpt>
      <trkpt lat="41.6927890" lon="-8.8290910">
        <ele>9.6</ele>
        <time>2021-05-17T15:59:34Z</time>
      </trkpt>
      <trkpt lat="41.6927890" lon="-8.8290930">
        <ele>9.6</ele>
        <time>2021-05-17T15:59:35Z</time>
      </trkpt>
      <trkpt lat="41.6927890" lon="-8.8290960">
        <ele>9.6</ele>
        <time>2021-05-17T15:59:36Z</time>
      </trkpt>
      <trkpt lat="41.6927890" lon="-8.8290980">
        <ele>9.6</ele>
        <time>2021-05-17T15:59:37Z</time>
      </trkpt>
      <trkpt lat="41.6927890" lon="-8.8291010">
        <ele>9.6</ele>
        <time>2021-05-17T15:59:38Z</time>
      </trkpt>
      <trkpt lat="41.6927890" lon="-8.8291040">
        <ele>9.6</ele>
        <time>2021-05-17T15:59:39Z</time>
      </trkpt>
      <trkpt lat="41.6927890" lon="-8.8291060">
        <ele>9.6</ele>
        <time>2021-05-17T15:59:40Z</time>
      </trkpt>
      <trkpt lat="41.6927890" lon="-8.8291090">
        <ele>9.6</ele>
        <time>2021-05-17T15:59:41Z</time>
      </trkpt>
      <trkpt lat="41.6928260" lon="-8.8289770">
        <ele>9.5</ele>
        <time>2021-05-17T15:59:42Z</time>
      </trkpt>
      <trkpt lat="41.6928280" lon="-8.8289710">
        <ele>9.5</ele>
        <time>2021-05-17T15:59:44Z</time>
      </trkpt>
      <trkpt lat="41.6928480" lon="-8.8290800">
        <ele>9.4</ele>
        <time>2021-05-17T15:59:59Z</time>
      </trkpt>
      <trkpt lat="41.6928500" lon="-8.8290890">
        <ele>9.4</ele>
        <time>2021-05-17T16:00:00Z</time>
      </trkpt>
      <trkpt lat="41.6928460" lon="-8.8290770">
        <ele>9.4</ele>
        <time>2021-05-17T16:00:06Z</time>
      </trkpt>
      <trkpt lat="41.6928440" lon="-8.8290730">
        <ele>9.4</ele>
        <time>2021-05-17T16:00:09Z</time>
      </trkpt>
      <trkpt lat="41.6928300" lon="-8.8290560">
        <ele>9.4</ele>
        <time>2021-05-17T16:00:14Z</time>
      </trkpt>
      <trkpt lat="41.6928360" lon="-8.8290480">
        <ele>9.4</ele>
        <time>2021-05-17T16:00:20Z</time>
      </trkpt>
      <trkpt lat="41.6928350" lon="-8.8290480">
        <ele>9.4</ele>
        <time>2021-05-17T16:00:26Z</time>
      </trkpt>
      <trkpt lat="41.6928360" lon="-8.8290480">
        <ele>9.4</ele>
        <time>2021-05-17T16:00:27Z</time>
      </trkpt>
      <trkpt lat="41.6928370" lon="-8.8290470">
        <ele>9.4</ele>
        <time>2021-05-17T16:00:32Z</time>
      </trkpt>
      <trkpt lat="41.6928380" lon="-8.8290470">
        <ele>9.3</ele>
        <time>2021-05-17T16:00:38Z</time>
      </trkpt>
      <trkpt lat="41.6928380" lon="-8.8290480">
        <ele>9.3</ele>
        <time>2021-05-17T16:00:44Z</time>
      </trkpt>
      <trkpt lat="41.6928320" lon="-8.8290490">
        <ele>9.3</ele>
        <time>2021-05-17T16:00:46Z</time>
      </trkpt>
      <trkpt lat="41.6928340" lon="-8.8290640">
        <ele>9.3</ele>
        <time>2021-05-17T16:00:53Z</time>
      </trkpt>
      <trkpt lat="41.6928450" lon="-8.8290670">
        <ele>9.3</ele>
        <time>2021-05-17T16:01:02Z</time>
      </trkpt>
      <trkpt lat="41.6928450" lon="-8.8290670">
        <ele>9.3</ele>
        <time>2021-05-17T16:01:08Z</time>
      </trkpt>
      <trkpt lat="41.6928440" lon="-8.8290610">
        <ele>9.3</ele>
        <time>2021-05-17T16:01:14Z</time>
      </trkpt>
      <trkpt lat="41.6928420" lon="-8.8290690">
        <ele>9.3</ele>
        <time>2021-05-17T16:01:20Z</time>
      </trkpt>
      <trkpt lat="41.6928460" lon="-8.8290750">
        <ele>9.3</ele>
        <time>2021-05-17T16:01:26Z</time>
      </trkpt>
      <trkpt lat="41.6928450" lon="-8.8290690">
        <ele>9.3</ele>
        <time>2021-05-17T16:01:32Z</time>
      </trkpt>
      <trkpt lat="41.6928440" lon="-8.8290770">
        <ele>9.3</ele>
        <time>2021-05-17T16:01:38Z</time>
      </trkpt>
      <trkpt lat="41.6928450" lon="-8.8290690">
        <ele>9.3</ele>
        <time>2021-05-17T16:01:44Z</time>
      </trkpt>
      <trkpt lat="41.6928450" lon="-8.8290680">
        <ele>9.3</ele>
        <time>2021-05-17T16:01:50Z</time>
      </trkpt>
      <trkpt lat="41.6928460" lon="-8.8290740">
        <ele>9.3</ele>
        <time>2021-05-17T16:01:56Z</time>
      </trkpt>
      <trkpt lat="41.6928480" lon="-8.8290710">
        <ele>9.3</ele>
        <time>2021-05-17T16:02:02Z</time>
      </trkpt>
      <trkpt lat="41.6928470" lon="-8.8290670">
        <ele>9.3</ele>
        <time>2021-05-17T16:02:08Z</time>
      </trkpt>
      <trkpt lat="41.6928430" lon="-8.8290700">
        <ele>9.3</ele>
        <time>2021-05-17T16:02:16Z</time>
      </trkpt>
      <trkpt lat="41.6928450" lon="-8.8290710">
        <ele>9.3</ele>
        <time>2021-05-17T16:02:22Z</time>
      </trkpt>
      <trkpt lat="41.6928460" lon="-8.8290720">
        <ele>9.3</ele>
        <time>2021-05-17T16:02:23Z</time>
      </trkpt>
      <trkpt lat="41.6928470" lon="-8.8290970">
        <ele>9.3</ele>
        <time>2021-05-17T16:02:28Z</time>
      </trkpt>
      <trkpt lat="41.6928370" lon="-8.8290870">
        <ele>9.3</ele>
        <time>2021-05-18T05:31:41Z</time>
      </trkpt>
      <trkpt lat="41.6928430" lon="-8.8290900">
        <ele>9.3</ele>
        <time>2021-05-18T05:31:48Z</time>
      </trkpt>
      <trkpt lat="41.6928340" lon="-8.8290940">
        <ele>9.3</ele>
        <time>2021-05-18T05:31:54Z</time>
      </trkpt>
      <trkpt lat="41.6928330" lon="-8.8291000">
        <ele>9.3</ele>
        <time>2021-05-18T05:32:01Z</time>
      </trkpt>
      <trkpt lat="41.6928350" lon="-8.8291180">
        <ele>9.3</ele>
        <time>2021-05-18T05:32:07Z</time>
      </trkpt>
      <trkpt lat="41.6928430" lon="-8.8290900">
        <ele>9.2</ele>
        <time>2021-05-18T05:32:14Z</time>
      </trkpt>
      <trkpt lat="41.6928420" lon="-8.8290880">
        <ele>9.2</ele>
        <time>2021-05-18T05:32:20Z</time>
      </trkpt>
      <trkpt lat="41.6928370" lon="-8.8290950">
        <ele>9.2</ele>
        <time>2021-05-18T05:32:27Z</time>
      </trkpt>
      <trkpt lat="41.6928390" lon="-8.8290780">
        <ele>9.2</ele>
        <time>2021-05-18T05:32:34Z</time>
      </trkpt>
      <trkpt lat="41.6928320" lon="-8.8291030">
        <ele>9.2</ele>
        <time>2021-05-18T05:32:40Z</time>
      </trkpt>
      <trkpt lat="41.6928340" lon="-8.8291000">
        <ele>9.2</ele>
        <time>2021-05-18T05:32:47Z</time>
      </trkpt>
      <trkpt lat="41.6928460" lon="-8.8291140">
        <ele>9.2</ele>
        <time>2021-05-18T05:32:53Z</time>
      </trkpt>
      <trkpt lat="41.6928440" lon="-8.8290930">
        <ele>9.2</ele>
        <time>2021-05-18T05:33:00Z</time>
      </trkpt>
      <trkpt lat="41.6928420" lon="-8.8290930">
        <ele>9.2</ele>
        <time>2021-05-18T05:33:06Z</time>
      </trkpt>
      <trkpt lat="41.6928330" lon="-8.8290890">
        <ele>9.2</ele>
        <time>2021-05-18T05:33:13Z</time>
      </trkpt>
      <trkpt lat="41.6928440" lon="-8.8290810">
        <ele>9.2</ele>
        <time>2021-05-18T05:33:19Z</time>
      </trkpt>
      <trkpt lat="41.6928680" lon="-8.8290970">
        <ele>9.2</ele>
        <time>2021-05-18T05:33:26Z</time>
      </trkpt>
      <trkpt lat="41.6928660" lon="-8.8290620">
        <ele>9.2</ele>
        <time>2021-05-18T05:33:29Z</time>
      </trkpt>
      <trkpt lat="41.6928660" lon="-8.8290740">
        <ele>9.2</ele>
        <time>2021-05-18T05:33:30Z</time>
      </trkpt>
      <trkpt lat="41.6928380" lon="-8.8290840">
        <ele>9.2</ele>
        <time>2021-05-18T05:33:31Z</time>
      </trkpt>
      <trkpt lat="41.6928020" lon="-8.8290550">
        <ele>9.2</ele>
        <time>2021-05-18T05:33:32Z</time>
      </trkpt>
      <trkpt lat="41.6927740" lon="-8.8290250">
        <ele>9.2</ele>
        <time>2021-05-18T05:33:33Z</time>
      </trkpt>
      <trkpt lat="41.6927750" lon="-8.8289990">
        <ele>9.2</ele>
        <time>2021-05-18T05:33:34Z</time>
      </trkpt>
      <trkpt lat="41.6927870" lon="-8.8289830">
        <ele>9.2</ele>
        <time>2021-05-18T05:33:35Z</time>
      </trkpt>
      <trkpt lat="41.6927920" lon="-8.8289710">
        <ele>9.2</ele>
        <time>2021-05-18T05:33:36Z</time>
      </trkpt>
      <trkpt lat="41.6927980" lon="-8.8289670">
        <ele>9.1</ele>
        <time>2021-05-18T05:33:37Z</time>
      </trkpt>
      <trkpt lat="41.6928050" lon="-8.8289620">
        <ele>9.1</ele>
        <time>2021-05-18T05:33:38Z</time>
      </trkpt>
      <trkpt lat="41.6928120" lon="-8.8289570">
        <ele>9.1</ele>
        <time>2021-05-18T05:33:39Z</time>
      </trkpt>
      <trkpt lat="41.6928180" lon="-8.8289530">
        <ele>9.1</ele>
        <time>2021-05-18T05:33:40Z</time>
      </trkpt>
      <trkpt lat="41.6928250" lon="-8.8289480">
        <ele>9.1</ele>
        <time>2021-05-18T05:33:41Z</time>
      </trkpt>
      <trkpt lat="41.6928310" lon="-8.8289430">
        <ele>9.1</ele>
        <time>2021-05-18T05:33:42Z</time>
      </trkpt>
      <trkpt lat="41.6928380" lon="-8.8289390">
        <ele>9.1</ele>
        <time>2021-05-18T05:33:43Z</time>
      </trkpt>
      <trkpt lat="41.6928450" lon="-8.8289340">
        <ele>9.1</ele>
        <time>2021-05-18T05:33:44Z</time>
      </trkpt>
      <trkpt lat="41.6928510" lon="-8.8289290">
        <ele>9.1</ele>
        <time>2021-05-18T05:33:45Z</time>
      </trkpt>
      <trkpt lat="41.6928580" lon="-8.8289240">
        <ele>9.1</ele>
        <time>2021-05-18T05:33:46Z</time>
      </trkpt>
      <trkpt lat="41.6928650" lon="-8.8289200">
        <ele>9.1</ele>
        <time>2021-05-18T05:33:47Z</time>
      </trkpt>
      <trkpt lat="41.6928710" lon="-8.8289150">
        <ele>9.1</ele>
        <time>2021-05-18T05:33:48Z</time>
      </trkpt>
      <trkpt lat="41.6928780" lon="-8.8289100">
        <ele>9.1</ele>
        <time>2021-05-18T05:33:49Z</time>
      </trkpt>
      <trkpt lat="41.6928840" lon="-8.8289060">
        <ele>9.1</ele>
        <time>2021-05-18T05:33:50Z</time>
      </trkpt>
      <trkpt lat="41.6928910" lon="-8.8289010">
        <ele>9.1</ele>
        <time>2021-05-18T05:33:51Z</time>
      </trkpt>
      <trkpt lat="41.6929260" lon="-8.8288790">
        <ele>9.1</ele>
        <time>2021-05-18T05:33:52Z</time>
      </trkpt>
      <trkpt lat="41.6929730" lon="-8.8288590">
        <ele>9.1</ele>
        <time>2021-05-18T05:33:53Z</time>
      </trkpt>
      <trkpt lat="41.6930280" lon="-8.8288380">
        <ele>9.1</ele>
        <time>2021-05-18T05:33:55Z</time>
      </trkpt>
      <trkpt lat="41.6928480" lon="-8.8290950">
        <ele>9.0</ele>
        <time>2021-05-18T05:34:03Z</time>
      </trkpt>
      <trkpt lat="41.6928440" lon="-8.8290960">
        <ele>9.0</ele>
        <time>2021-05-18T05:34:04Z</time>
      </trkpt>
      <trkpt lat="41.6928400" lon="-8.8290980">
        <ele>9.0</ele>
        <time>2021-05-18T05:34:05Z</time>
      </trkpt>
      <trkpt lat="41.6928360" lon="-8.8290990">
        <ele>9.0</ele>
        <time>2021-05-18T05:34:06Z</time>
      </trkpt>
      <trkpt lat="41.6928330" lon="-8.8291010">
        <ele>9.0</ele>
        <time>2021-05-18T05:34:07Z</time>
      </trkpt>
      <trkpt lat="41.6928290" lon="-8.8291020">
        <ele>9.0</ele>
        <time>2021-05-18T05:34:08Z</time>
      </trkpt>
      <trkpt lat="41.6928250" lon="-8.8291040">
        <ele>9.0</ele>
        <time>2021-05-18T05:34:09Z</time>
      </trkpt>
      <trkpt lat="41.6928210" lon="-8.8291050">
        <ele>9.0</ele>
        <time>2021-05-18T05:34:10Z</time>
      </trkpt>
      <trkpt lat="41.6928170" lon="-8.8291070">
        <ele>9.0</ele>
        <time>2021-05-18T05:34:11Z</time>
      </trkpt>
      <trkpt lat="41.6928130" lon="-8.8291080">
        <ele>9.0</ele>
        <time>2021-05-18T05:34:12Z</time>
      </trkpt>
      <trkpt lat="41.6928090" lon="-8.8291100">
        <ele>9.0</ele>
        <time>2021-05-18T05:34:13Z</time>
      </trkpt>
      <trkpt lat="41.6928050" lon="-8.8291110">
        <ele>9.0</ele>
        <time>2021-05-18T05:34:14Z</time>
      </trkpt>
      <trkpt lat="41.6928010" lon="-8.8291130">
        <ele>9.0</ele>
        <time>2021-05-18T05:34:15Z</time>
      </trkpt>
      <trkpt lat="41.6927980" lon="-8.8291140">
        <ele>9.0</ele>
        <time>2021-05-18T05:34:16Z</time>
      </trkpt>
      <trkpt lat="41.6927940" lon="-8.8291160">
        <ele>9.0</ele>
        <time>2021-05-18T05:34:17Z</time>
      </trkpt>
      <trkpt lat="41.6927900" lon="-8.8291170">
        <ele>9.0</ele>
        <time>2021-05-18T05:34:18Z</time>
      </trkpt>
      <trkpt lat="41.6927860" lon="-8.8291190">
        <ele>9.0</ele>
        <time>2021-05-18T05:34:24Z</time>
      </trkpt>
      <trkpt lat="41.6927820" lon="-8.8291200">
        <ele>9.0</ele>
        <time>2021-05-18T05:34:25Z</time>
      </trkpt>
      <trkpt lat="41.6927780" lon="-8.8291220">
        <ele>9.0</ele>
        <time>2021-05-18T05:34:26Z</time>
      </trkpt>
      <trkpt lat="41.6927740" lon="-8.8291230">
        <ele>9.0</ele>
        <time>2021-05-18T05:34:28Z</time>
      </trkpt>
      <trkpt lat="41.6927700" lon="-8.8291250">
        <ele>9.0</ele>
        <time>2021-05-18T05:34:29Z</time>
      </trkpt>
      <trkpt lat="41.6927660" lon="-8.8291260">
        <ele>9.0</ele>
        <time>2021-05-18T05:34:30Z</time>
      </trkpt>
      <trkpt lat="41.6927630" lon="-8.8291280">
        <ele>9.0</ele>
        <time>2021-05-18T05:34:31Z</time>
      </trkpt>
      <trkpt lat="41.6927590" lon="-8.8291290">
        <ele>9.0</ele>
        <time>2021-05-18T05:34:32Z</time>
      </trkpt>
      <trkpt lat="41.6927550" lon="-8.8291310">
        <ele>9.0</ele>
        <time>2021-05-18T05:34:33Z</time>
      </trkpt>
      <trkpt lat="41.6927510" lon="-8.8291320">
        <ele>9.0</ele>
        <time>2021-05-18T05:34:34Z</time>
      </trkpt>
      <trkpt lat="41.6927470" lon="-8.8291340">
        <ele>9.0</ele>
        <time>2021-05-18T05:34:35Z</time>
      </trkpt>
      <trkpt lat="41.6927620" lon="-8.8291570">
        <ele>9.0</ele>
        <time>2021-05-18T05:34:36Z</time>
      </trkpt>
      <trkpt lat="41.6927550" lon="-8.8291670">
        <ele>9.0</ele>
        <time>2021-05-18T05:34:37Z</time>
      </trkpt>
      <trkpt lat="41.6927470" lon="-8.8291780">
        <ele>9.0</ele>
        <time>2021-05-18T05:34:38Z</time>
      </trkpt>
      <trkpt lat="41.6927400" lon="-8.8291880">
        <ele>9.0</ele>
        <time>2021-05-18T05:34:39Z</time>
      </trkpt>
      <trkpt lat="41.6927320" lon="-8.8291990">
        <ele>9.0</ele>
        <time>2021-05-18T05:34:40Z</time>
      </trkpt>
      <trkpt lat="41.6927240" lon="-8.8292090">
        <ele>9.0</ele>
        <time>2021-05-18T05:34:41Z</time>
      </trkpt>
      <trkpt lat="41.6927170" lon="-8.8292200">
        <ele>9.0</ele>
        <time>2021-05-18T05:34:42Z</time>
      </trkpt>
      <trkpt lat="41.6927090" lon="-8.8292300">
        <ele>9.0</ele>
        <time>2021-05-18T05:34:43Z</time>
      </trkpt>
      <trkpt lat="41.6926600" lon="-8.8292680">
        <ele>9.0</ele>
        <time>2021-05-18T05:34:44Z</time>
      </trkpt>
      <trkpt lat="41.6926420" lon="-8.8292790">
        <ele>8.9</ele>
        <time>2021-05-18T05:34:45Z</time>
      </trkpt>
      <trkpt lat="41.6926240" lon="-8.8292890">
        <ele>8.9</ele>
        <time>2021-05-18T05:34:46Z</time>
      </trkpt>
      <trkpt lat="41.6926120" lon="-8.8292960">
        <ele>8.9</ele>
        <time>2021-05-18T05:34:47Z</time>
      </trkpt>
      <trkpt lat="41.6926170" lon="-8.8292980">
        <ele>8.9</ele>
        <time>2021-05-18T05:34:48Z</time>
      </trkpt>
      <trkpt lat="41.6926220" lon="-8.8292990">
        <ele>8.9</ele>
        <time>2021-05-18T05:34:49Z</time>
      </trkpt>
      <trkpt lat="41.6926270" lon="-8.8293010">
        <ele>8.9</ele>
        <time>2021-05-18T05:34:50Z</time>
      </trkpt>
      <trkpt lat="41.6926320" lon="-8.8293030">
        <ele>8.9</ele>
        <time>2021-05-18T05:34:51Z</time>
      </trkpt>
      <trkpt lat="41.6926370" lon="-8.8293050">
        <ele>8.9</ele>
        <time>2021-05-18T05:34:52Z</time>
      </trkpt>
      <trkpt lat="41.6926410" lon="-8.8293070">
        <ele>8.9</ele>
        <time>2021-05-18T05:34:53Z</time>
      </trkpt>
      <trkpt lat="41.6926460" lon="-8.8293090">
        <ele>8.9</ele>
        <time>2021-05-18T05:34:54Z</time>
      </trkpt>
      <trkpt lat="41.6926510" lon="-8.8293100">
        <ele>8.9</ele>
        <time>2021-05-18T05:34:55Z</time>
      </trkpt>
      <trkpt lat="41.6926560" lon="-8.8293120">
        <ele>8.9</ele>
        <time>2021-05-18T05:34:56Z</time>
      </trkpt>
      <trkpt lat="41.6926610" lon="-8.8293140">
        <ele>8.9</ele>
        <time>2021-05-18T05:34:57Z</time>
      </trkpt>
      <trkpt lat="41.6926660" lon="-8.8293160">
        <ele>8.9</ele>
        <time>2021-05-18T05:34:58Z</time>
      </trkpt>
      <trkpt lat="41.6926650" lon="-8.8293240">
        <ele>8.9</ele>
        <time>2021-05-18T05:34:59Z</time>
      </trkpt>
      <trkpt lat="41.6926680" lon="-8.8293310">
        <ele>8.9</ele>
        <time>2021-05-18T05:35:00Z</time>
      </trkpt>
      <trkpt lat="41.6926700" lon="-8.8293530">
        <ele>8.9</ele>
        <time>2021-05-18T05:35:01Z</time>
      </trkpt>
      <trkpt lat="41.6926710" lon="-8.8293490">
        <ele>8.9</ele>
        <time>2021-05-18T05:35:02Z</time>
      </trkpt>
      <trkpt lat="41.6926660" lon="-8.8293690">
        <ele>8.9</ele>
        <time>2021-05-18T05:35:03Z</time>
      </trkpt>
      <trkpt lat="41.6926670" lon="-8.8293800">
        <ele>8.9</ele>
        <time>2021-05-18T05:35:04Z</time>
      </trkpt>
      <trkpt lat="41.6926660" lon="-8.8293940">
        <ele>8.9</ele>
        <time>2021-05-18T05:35:05Z</time>
      </trkpt>
      <trkpt lat="41.6926610" lon="-8.8294060">
        <ele>8.9</ele>
        <time>2021-05-18T05:35:06Z</time>
      </trkpt>
      <trkpt lat="41.6926530" lon="-8.8294130">
        <ele>8.9</ele>
        <time>2021-05-18T05:35:07Z</time>
      </trkpt>
      <trkpt lat="41.6926510" lon="-8.8294180">
        <ele>8.9</ele>
        <time>2021-05-18T05:35:08Z</time>
      </trkpt>
      <trkpt lat="41.6926450" lon="-8.8294290">
        <ele>8.9</ele>
        <time>2021-05-18T05:35:09Z</time>
      </trkpt>
      <trkpt lat="41.6926400" lon="-8.8294390">
        <ele>8.9</ele>
        <time>2021-05-18T05:35:10Z</time>
      </trkpt>
      <trkpt lat="41.6926340" lon="-8.8294470">
        <ele>8.9</ele>
        <time>2021-05-18T05:35:11Z</time>
      </trkpt>
      <trkpt lat="41.6926270" lon="-8.8294630">
        <ele>8.9</ele>
        <time>2021-05-18T05:35:12Z</time>
      </trkpt>
      <trkpt lat="41.6926110" lon="-8.8294840">
        <ele>8.9</ele>
        <time>2021-05-18T05:35:13Z</time>
      </trkpt>
      <trkpt lat="41.6926060" lon="-8.8294920">
        <ele>8.9</ele>
        <time>2021-05-18T05:35:14Z</time>
      </trkpt>
      <trkpt lat="41.6926010" lon="-8.8294990">
        <ele>8.9</ele>
        <time>2021-05-18T05:35:15Z</time>
      </trkpt>
      <trkpt lat="41.6925960" lon="-8.8295070">
        <ele>8.9</ele>
        <time>2021-05-18T05:35:16Z</time>
      </trkpt>
      <trkpt lat="41.6926020" lon="-8.8295070">
        <ele>8.9</ele>
        <time>2021-05-18T05:35:17Z</time>
      </trkpt>
      <trkpt lat="41.6926020" lon="-8.8295160">
        <ele>8.9</ele>
        <time>2021-05-18T05:35:18Z</time>
      </trkpt>
      <trkpt lat="41.6925920" lon="-8.8295400">
        <ele>8.9</ele>
        <time>2021-05-18T05:35:19Z</time>
      </trkpt>
      <trkpt lat="41.6925780" lon="-8.8295450">
        <ele>8.9</ele>
        <time>2021-05-18T05:35:20Z</time>
      </trkpt>
      <trkpt lat="41.6925670" lon="-8.8295620">
        <ele>8.9</ele>
        <time>2021-05-18T05:35:21Z</time>
      </trkpt>
      <trkpt lat="41.6925610" lon="-8.8295630">
        <ele>8.9</ele>
        <time>2021-05-18T05:35:22Z</time>
      </trkpt>
      <trkpt lat="41.6925580" lon="-8.8295670">
        <ele>8.9</ele>
        <time>2021-05-18T05:35:23Z</time>
      </trkpt>
      <trkpt lat="41.6925550" lon="-8.8295760">
        <ele>8.9</ele>
        <time>2021-05-18T05:35:24Z</time>
      </trkpt>
      <trkpt lat="41.6925510" lon="-8.8295910">
        <ele>8.9</ele>
        <time>2021-05-18T05:35:25Z</time>
      </trkpt>
      <trkpt lat="41.6925500" lon="-8.8296220">
        <ele>8.9</ele>
        <time>2021-05-18T05:35:26Z</time>
      </trkpt>
      <trkpt lat="41.6925500" lon="-8.8296360">
        <ele>8.9</ele>
        <time>2021-05-18T05:35:27Z</time>
      </trkpt>
      <trkpt lat="41.6925570" lon="-8.8296400">
        <ele>8.9</ele>
        <time>2021-05-18T05:35:28Z</time>
      </trkpt>
      <trkpt lat="41.6925550" lon="-8.8296480">
        <ele>8.9</ele>
        <time>2021-05-18T05:35:29Z</time>
      </trkpt>
      <trkpt lat="41.6925620" lon="-8.8296610">
        <ele>8.9</ele>
        <time>2021-05-18T05:35:30Z</time>
      </trkpt>
      <trkpt lat="41.6925550" lon="-8.8296760">
        <ele>8.9</ele>
        <time>2021-05-18T05:35:31Z</time>
      </trkpt>
      <trkpt lat="41.6925590" lon="-8.8297020">
        <ele>8.9</ele>
        <time>2021-05-18T05:35:32Z</time>
      </trkpt>
      <trkpt lat="41.6925540" lon="-8.8297100">
        <ele>8.9</ele>
        <time>2021-05-18T05:35:33Z</time>
      </trkpt>
      <trkpt lat="41.6925530" lon="-8.8297210">
        <ele>8.9</ele>
        <time>2021-05-18T05:35:34Z</time>
      </trkpt>
      <trkpt lat="41.6925480" lon="-8.8297470">
        <ele>8.9</ele>
        <time>2021-05-18T05:35:35Z</time>
      </trkpt>
      <trkpt lat="41.6925600" lon="-8.8297920">
        <ele>8.9</ele>
        <time>2021-05-18T05:35:36Z</time>
      </trkpt>
      <trkpt lat="41.6925600" lon="-8.8298330">
        <ele>8.9</ele>
        <time>2021-05-18T05:35:37Z</time>
      </trkpt>
      <trkpt lat="41.6925540" lon="-8.8298520">
        <ele>8.9</ele>
        <time>2021-05-18T05:35:38Z</time>
      </trkpt>
      <trkpt lat="41.6925330" lon="-8.8298650">
        <ele>8.9</ele>
        <time>2021-05-18T05:35:39Z</time>
      </trkpt>
      <trkpt lat="41.6925350" lon="-8.8298740">
        <ele>8.9</ele>
        <time>2021-05-18T05:35:40Z</time>
      </trkpt>
      <trkpt lat="41.6925320" lon="-8.8298880">
        <ele>8.9</ele>
        <time>2021-05-18T05:35:41Z</time>
      </trkpt>
      <trkpt lat="41.6925230" lon="-8.8298980">
        <ele>8.9</ele>
        <time>2021-05-18T05:35:42Z</time>
      </trkpt>
      <trkpt lat="41.6925240" lon="-8.8299330">
        <ele>8.9</ele>
        <time>2021-05-18T05:35:43Z</time>
      </trkpt>
      <trkpt lat="41.6925210" lon="-8.8299420">
        <ele>8.9</ele>
        <time>2021-05-18T05:35:44Z</time>
      </trkpt>
      <trkpt lat="41.6925030" lon="-8.8299630">
        <ele>8.9</ele>
        <time>2021-05-18T05:35:45Z</time>
      </trkpt>
      <trkpt lat="41.6924930" lon="-8.8299820">
        <ele>9.0</ele>
        <time>2021-05-18T05:35:46Z</time>
      </trkpt>
      <trkpt lat="41.6924820" lon="-8.8300000">
        <ele>9.0</ele>
        <time>2021-05-18T05:35:47Z</time>
      </trkpt>
      <trkpt lat="41.6924540" lon="-8.8300290">
        <ele>9.0</ele>
        <time>2021-05-18T05:35:48Z</time>
      </trkpt>
      <trkpt lat="41.6924420" lon="-8.8300410">
        <ele>8.9</ele>
        <time>2021-05-18T05:35:49Z</time>
      </trkpt>
      <trkpt lat="41.6924150" lon="-8.8300640">
        <ele>8.9</ele>
        <time>2021-05-18T05:35:50Z</time>
      </trkpt>
      <trkpt lat="41.6924110" lon="-8.8300690">
        <ele>8.9</ele>
        <time>2021-05-18T05:35:51Z</time>
      </trkpt>
      <trkpt lat="41.6924020" lon="-8.8300870">
        <ele>8.9</ele>
        <time>2021-05-18T05:35:52Z</time>
      </trkpt>
      <trkpt lat="41.6923920" lon="-8.8300970">
        <ele>8.9</ele>
        <time>2021-05-18T05:35:53Z</time>
      </trkpt>
      <trkpt lat="41.6923860" lon="-8.8301140">
        <ele>8.9</ele>
        <time>2021-05-18T05:35:54Z</time>
      </trkpt>
      <trkpt lat="41.6923800" lon="-8.8301230">
        <ele>8.9</ele>
        <time>2021-05-18T05:35:55Z</time>
      </trkpt>
      <trkpt lat="41.6923720" lon="-8.8301330">
        <ele>8.9</ele>
        <time>2021-05-18T05:35:56Z</time>
      </trkpt>
      <trkpt lat="41.6923640" lon="-8.8301470">
        <ele>8.9</ele>
        <time>2021-05-18T05:35:57Z</time>
      </trkpt>
      <trkpt lat="41.6923610" lon="-8.8301760">
        <ele>8.9</ele>
        <time>2021-05-18T05:35:58Z</time>
      </trkpt>
      <trkpt lat="41.6923590" lon="-8.8302150">
        <ele>8.9</ele>
        <time>2021-05-18T05:35:59Z</time>
      </trkpt>
      <trkpt lat="41.6923520" lon="-8.8302310">
        <ele>8.9</ele>
        <time>2021-05-18T05:36:00Z</time>
      </trkpt>
      <trkpt lat="41.6923500" lon="-8.8302530">
        <ele>8.9</ele>
        <time>2021-05-18T05:36:01Z</time>
      </trkpt>
      <trkpt lat="41.6923440" lon="-8.8302730">
        <ele>8.9</ele>
        <time>2021-05-18T05:36:02Z</time>
      </trkpt>
      <trkpt lat="41.6923450" lon="-8.8302980">
        <ele>8.9</ele>
        <time>2021-05-18T05:36:03Z</time>
      </trkpt>
      <trkpt lat="41.6923470" lon="-8.8303060">
        <ele>8.9</ele>
        <time>2021-05-18T05:36:04Z</time>
      </trkpt>
      <trkpt lat="41.6923480" lon="-8.8303150">
        <ele>8.9</ele>
        <time>2021-05-18T05:36:05Z</time>
      </trkpt>
      <trkpt lat="41.6923500" lon="-8.8303240">
        <ele>8.9</ele>
        <time>2021-05-18T05:36:06Z</time>
      </trkpt>
      <trkpt lat="41.6923490" lon="-8.8303430">
        <ele>8.8</ele>
        <time>2021-05-18T05:36:07Z</time>
      </trkpt>
      <trkpt lat="41.6923470" lon="-8.8303630">
        <ele>8.8</ele>
        <time>2021-05-18T05:36:08Z</time>
      </trkpt>
      <trkpt lat="41.6923360" lon="-8.8303970">
        <ele>8.8</ele>
        <time>2021-05-18T05:36:09Z</time>
      </trkpt>
      <trkpt lat="41.6923280" lon="-8.8304070">
        <ele>8.8</ele>
        <time>2021-05-18T05:36:10Z</time>
      </trkpt>
      <trkpt lat="41.6923260" lon="-8.8304300">
        <ele>8.8</ele>
        <time>2021-05-18T05:36:11Z</time>
      </trkpt>
      <trkpt lat="41.6923220" lon="-8.8304510">
        <ele>8.8</ele>
        <time>2021-05-18T05:36:12Z</time>
      </trkpt>
      <trkpt lat="41.6923190" lon="-8.8304720">
        <ele>8.8</ele>
        <time>2021-05-18T05:36:13Z</time>
      </trkpt>
      <trkpt lat="41.6923160" lon="-8.8304830">
        <ele>8.8</ele>
        <time>2021-05-18T05:36:14Z</time>
      </trkpt>
      <trkpt lat="41.6923140" lon="-8.8304940">
        <ele>8.8</ele>
        <time>2021-05-18T05:36:15Z</time>
      </trkpt>
      <trkpt lat="41.6923110" lon="-8.8305050">
        <ele>8.8</ele>
        <time>2021-05-18T05:36:16Z</time>
      </trkpt>
      <trkpt lat="41.6923130" lon="-8.8305210">
        <ele>8.8</ele>
        <time>2021-05-18T05:36:17Z</time>
      </trkpt>
      <trkpt lat="41.6923150" lon="-8.8305240">
        <ele>8.8</ele>
        <time>2021-05-18T05:36:18Z</time>
      </trkpt>
      <trkpt lat="41.6923000" lon="-8.8305440">
        <ele>8.8</ele>
        <time>2021-05-18T05:36:19Z</time>
      </trkpt>
      <trkpt lat="41.6922800" lon="-8.8305690">
        <ele>8.8</ele>
        <time>2021-05-18T05:36:20Z</time>
      </trkpt>
      <trkpt lat="41.6922730" lon="-8.8305790">
        <ele>8.8</ele>
        <time>2021-05-18T05:36:21Z</time>
      </trkpt>
      <trkpt lat="41.6922690" lon="-8.8305950">
        <ele>8.8</ele>
        <time>2021-05-18T05:36:22Z</time>
      </trkpt>
      <trkpt lat="41.6922580" lon="-8.8306110">
        <ele>8.8</ele>
        <time>2021-05-18T05:36:23Z</time>
      </trkpt>
      <trkpt lat="41.6922430" lon="-8.8306330">
        <ele>8.8</ele>
        <time>2021-05-18T05:36:24Z</time>
      </trkpt>
      <trkpt lat="41.6922380" lon="-8.8306400">
        <ele>8.8</ele>
        <time>2021-05-18T05:36:25Z</time>
      </trkpt>
      <trkpt lat="41.6922330" lon="-8.8306460">
        <ele>8.8</ele>
        <time>2021-05-18T05:36:26Z</time>
      </trkpt>
      <trkpt lat="41.6922270" lon="-8.8306670">
        <ele>8.8</ele>
        <time>2021-05-18T05:36:27Z</time>
      </trkpt>
      <trkpt lat="41.6922190" lon="-8.8306780">
        <ele>8.8</ele>
        <time>2021-05-18T05:36:28Z</time>
      </trkpt>
      <trkpt lat="41.6922100" lon="-8.8306890">
        <ele>8.8</ele>
        <time>2021-05-18T05:36:29Z</time>
      </trkpt>
      <trkpt lat="41.6922080" lon="-8.8306880">
        <ele>8.8</ele>
        <time>2021-05-18T05:36:30Z</time>
      </trkpt>
      <trkpt lat="41.6922160" lon="-8.8307060">
        <ele>8.8</ele>
        <time>2021-05-18T05:36:31Z</time>
      </trkpt>
      <trkpt lat="41.6922120" lon="-8.8307320">
        <ele>8.8</ele>
        <time>2021-05-18T05:36:32Z</time>
      </trkpt>
      <trkpt lat="41.6922110" lon="-8.8307440">
        <ele>8.8</ele>
        <time>2021-05-18T05:36:33Z</time>
      </trkpt>
      <trkpt lat="41.6922070" lon="-8.8307700">
        <ele>8.8</ele>
        <time>2021-05-18T05:36:34Z</time>
      </trkpt>
      <trkpt lat="41.6921930" lon="-8.8308050">
        <ele>8.8</ele>
        <time>2021-05-18T05:36:35Z</time>
      </trkpt>
      <trkpt lat="41.6921890" lon="-8.8308190">
        <ele>8.8</ele>
        <time>2021-05-18T05:36:36Z</time>
      </trkpt>
      <trkpt lat="41.6921930" lon="-8.8308370">
        <ele>8.8</ele>
        <time>2021-05-18T05:36:37Z</time>
      </trkpt>
      <trkpt lat="41.6921900" lon="-8.8308570">
        <ele>8.8</ele>
        <time>2021-05-18T05:36:38Z</time>
      </trkpt>
      <trkpt lat="41.6921810" lon="-8.8308980">
        <ele>8.8</ele>
        <time>2021-05-18T05:36:39Z</time>
      </trkpt>
      <trkpt lat="41.6921780" lon="-8.8309140">
        <ele>8.8</ele>
        <time>2021-05-18T05:36:40Z</time>
      </trkpt>
      <trkpt lat="41.6921730" lon="-8.8309200">
        <ele>8.8</ele>
        <time>2021-05-18T05:36:41Z</time>
      </trkpt>
      <trkpt lat="41.6921660" lon="-8.8309350">
        <ele>8.8</ele>
        <time>2021-05-18T05:36:42Z</time>
      </trkpt>
      <trkpt lat="41.6921570" lon="-8.8309500">
        <ele>8.8</ele>
        <time>2021-05-18T05:36:43Z</time>
      </trkpt>
      <trkpt lat="41.6921470" lon="-8.8309600">
        <ele>8.8</ele>
        <time>2021-05-18T05:36:44Z</time>
      </trkpt>
      <trkpt lat="41.6921440" lon="-8.8309790">
        <ele>8.8</ele>
        <time>2021-05-18T05:36:45Z</time>
      </trkpt>
      <trkpt lat="41.6921410" lon="-8.8309890">
        <ele>8.8</ele>
        <time>2021-05-18T05:36:46Z</time>
      </trkpt>
      <trkpt lat="41.6921460" lon="-8.8310250">
        <ele>8.8</ele>
        <time>2021-05-18T05:36:47Z</time>
      </trkpt>
      <trkpt lat="41.6921490" lon="-8.8310380">
        <ele>8.8</ele>
        <time>2021-05-18T05:36:48Z</time>
      </trkpt>
      <trkpt lat="41.6921420" lon="-8.8310710">
        <ele>8.8</ele>
        <time>2021-05-18T05:36:49Z</time>
      </trkpt>
      <trkpt lat="41.6921370" lon="-8.8310810">
        <ele>8.8</ele>
        <time>2021-05-18T05:36:50Z</time>
      </trkpt>
      <trkpt lat="41.6921320" lon="-8.8310920">
        <ele>8.8</ele>
        <time>2021-05-18T05:36:51Z</time>
      </trkpt>
      <trkpt lat="41.6921280" lon="-8.8310980">
        <ele>8.8</ele>
        <time>2021-05-18T05:36:52Z</time>
      </trkpt>
      <trkpt lat="41.6921150" lon="-8.8311220">
        <ele>8.8</ele>
        <time>2021-05-18T05:36:53Z</time>
      </trkpt>
      <trkpt lat="41.6921010" lon="-8.8311460">
        <ele>8.8</ele>
        <time>2021-05-18T05:36:54Z</time>
      </trkpt>
      <trkpt lat="41.6920980" lon="-8.8311590">
        <ele>8.8</ele>
        <time>2021-05-18T05:36:55Z</time>
      </trkpt>
      <trkpt lat="41.6920940" lon="-8.8311730">
        <ele>8.8</ele>
        <time>2021-05-18T05:36:56Z</time>
      </trkpt>
      <trkpt lat="41.6920850" lon="-8.8311960">
        <ele>8.8</ele>
        <time>2021-05-18T05:36:57Z</time>
      </trkpt>
      <trkpt lat="41.6920730" lon="-8.8312090">
        <ele>8.8</ele>
        <time>2021-05-18T05:36:58Z</time>
      </trkpt>
      <trkpt lat="41.6920570" lon="-8.8312240">
        <ele>8.8</ele>
        <time>2021-05-18T05:36:59Z</time>
      </trkpt>
      <trkpt lat="41.6920530" lon="-8.8312450">
        <ele>8.8</ele>
        <time>2021-05-18T05:37:00Z</time>
      </trkpt>
      <trkpt lat="41.6920530" lon="-8.8312670">
        <ele>8.8</ele>
        <time>2021-05-18T05:37:01Z</time>
      </trkpt>
      <trkpt lat="41.6920500" lon="-8.8312890">
        <ele>8.8</ele>
        <time>2021-05-18T05:37:02Z</time>
      </trkpt>
      <trkpt lat="41.6920530" lon="-8.8313150">
        <ele>8.8</ele>
        <time>2021-05-18T05:37:03Z</time>
      </trkpt>
      <trkpt lat="41.6920540" lon="-8.8313260">
        <ele>8.8</ele>
        <time>2021-05-18T05:37:04Z</time>
      </trkpt>
      <trkpt lat="41.6920420" lon="-8.8313440">
        <ele>8.8</ele>
        <time>2021-05-18T05:37:05Z</time>
      </trkpt>
      <trkpt lat="41.6920330" lon="-8.8313550">
        <ele>8.8</ele>
        <time>2021-05-18T05:37:06Z</time>
      </trkpt>
      <trkpt lat="41.6920230" lon="-8.8313650">
        <ele>8.8</ele>
        <time>2021-05-18T05:37:07Z</time>
      </trkpt>
      <trkpt lat="41.6920090" lon="-8.8313870">
        <ele>8.8</ele>
        <time>2021-05-18T05:37:08Z</time>
      </trkpt>
      <trkpt lat="41.6920000" lon="-8.8313930">
        <ele>8.8</ele>
        <time>2021-05-18T05:37:09Z</time>
      </trkpt>
      <trkpt lat="41.6919900" lon="-8.8313990">
        <ele>8.8</ele>
        <time>2021-05-18T05:37:10Z</time>
      </trkpt>
      <trkpt lat="41.6919800" lon="-8.8314190">
        <ele>8.8</ele>
        <time>2021-05-18T05:37:11Z</time>
      </trkpt>
      <trkpt lat="41.6919860" lon="-8.8314290">
        <ele>8.8</ele>
        <time>2021-05-18T05:37:12Z</time>
      </trkpt>
      <trkpt lat="41.6919910" lon="-8.8314390">
        <ele>8.8</ele>
        <time>2021-05-18T05:37:13Z</time>
      </trkpt>
      <trkpt lat="41.6919970" lon="-8.8314490">
        <ele>8.8</ele>
        <time>2021-05-18T05:37:14Z</time>
      </trkpt>
      <trkpt lat="41.6919800" lon="-8.8314480">
        <ele>8.8</ele>
        <time>2021-05-18T05:37:15Z</time>
      </trkpt>
      <trkpt lat="41.6919750" lon="-8.8314510">
        <ele>8.9</ele>
        <time>2021-05-18T05:37:16Z</time>
      </trkpt>
      <trkpt lat="41.6919780" lon="-8.8314640">
        <ele>8.9</ele>
        <time>2021-05-18T05:37:17Z</time>
      </trkpt>
      <trkpt lat="41.6919750" lon="-8.8314690">
        <ele>8.9</ele>
        <time>2021-05-18T05:37:18Z</time>
      </trkpt>
      <trkpt lat="41.6919840" lon="-8.8314900">
        <ele>8.9</ele>
        <time>2021-05-18T05:37:19Z</time>
      </trkpt>
      <trkpt lat="41.6920090" lon="-8.8315370">
        <ele>8.9</ele>
        <time>2021-05-18T05:37:20Z</time>
      </trkpt>
      <trkpt lat="41.6920340" lon="-8.8315940">
        <ele>8.9</ele>
        <time>2021-05-18T05:37:21Z</time>
      </trkpt>
      <trkpt lat="41.6920420" lon="-8.8316290">
        <ele>8.9</ele>
        <time>2021-05-18T05:37:22Z</time>
      </trkpt>
      <trkpt lat="41.6920430" lon="-8.8316410">
        <ele>8.9</ele>
        <time>2021-05-18T05:37:23Z</time>
      </trkpt>
      <trkpt lat="41.6920450" lon="-8.8316520">
        <ele>8.9</ele>
        <time>2021-05-18T05:37:24Z</time>
      </trkpt>
      <trkpt lat="41.6920580" lon="-8.8316760">
        <ele>8.9</ele>
        <time>2021-05-18T05:37:25Z</time>
      </trkpt>
      <trkpt lat="41.6920610" lon="-8.8316890">
        <ele>8.9</ele>
        <time>2021-05-18T05:37:26Z</time>
      </trkpt>
      <trkpt lat="41.6920630" lon="-8.8317010">
        <ele>8.9</ele>
        <time>2021-05-18T05:37:27Z</time>
      </trkpt>
      <trkpt lat="41.6920540" lon="-8.8316900">
        <ele>8.9</ele>
        <time>2021-05-18T05:37:28Z</time>
      </trkpt>
      <trkpt lat="41.6920610" lon="-8.8316990">
        <ele>8.9</ele>
        <time>2021-05-18T05:37:29Z</time>
      </trkpt>
      <trkpt lat="41.6920560" lon="-8.8317130">
        <ele>8.9</ele>
        <time>2021-05-18T05:37:30Z</time>
      </trkpt>
      <trkpt lat="41.6920420" lon="-8.8317370">
        <ele>8.9</ele>
        <time>2021-05-18T05:37:31Z</time>
      </trkpt>
      <trkpt lat="41.6920260" lon="-8.8317670">
        <ele>8.9</ele>
        <time>2021-05-18T05:37:32Z</time>
      </trkpt>
      <trkpt lat="41.6920260" lon="-8.8317830">
        <ele>8.9</ele>
        <time>2021-05-18T05:37:33Z</time>
      </trkpt>
      <trkpt lat="41.6920350" lon="-8.8318050">
        <ele>8.9</ele>
        <time>2021-05-18T05:37:34Z</time>
      </trkpt>
      <trkpt lat="41.6920320" lon="-8.8318280">
        <ele>8.9</ele>
        <time>2021-05-18T05:37:35Z</time>
      </trkpt>
      <trkpt lat="41.6920220" lon="-8.8318430">
        <ele>8.9</ele>
        <time>2021-05-18T05:37:36Z</time>
      </trkpt>
      <trkpt lat="41.6920050" lon="-8.8318570">
        <ele>8.9</ele>
        <time>2021-05-18T05:37:37Z</time>
      </trkpt>
      <trkpt lat="41.6919790" lon="-8.8318870">
        <ele>8.9</ele>
        <time>2021-05-18T05:37:38Z</time>
      </trkpt>
      <trkpt lat="41.6919670" lon="-8.8318990">
        <ele>8.9</ele>
        <time>2021-05-18T05:37:39Z</time>
      </trkpt>
      <trkpt lat="41.6919590" lon="-8.8318990">
        <ele>8.9</ele>
        <time>2021-05-18T05:37:40Z</time>
      </trkpt>
      <trkpt lat="41.6919580" lon="-8.8319160">
        <ele>8.9</ele>
        <time>2021-05-18T05:37:41Z</time>
      </trkpt>
      <trkpt lat="41.6919430" lon="-8.8319260">
        <ele>8.9</ele>
        <time>2021-05-18T05:37:42Z</time>
      </trkpt>
      <trkpt lat="41.6919200" lon="-8.8319580">
        <ele>8.9</ele>
        <time>2021-05-18T05:37:43Z</time>
      </trkpt>
      <trkpt lat="41.6919130" lon="-8.8319670">
        <ele>8.9</ele>
        <time>2021-05-18T05:37:44Z</time>
      </trkpt>
      <trkpt lat="41.6919140" lon="-8.8319750">
        <ele>8.9</ele>
        <time>2021-05-18T05:37:45Z</time>
      </trkpt>
      <trkpt lat="41.6919060" lon="-8.8319770">
        <ele>8.9</ele>
        <time>2021-05-18T05:37:46Z</time>
      </trkpt>
      <trkpt lat="41.6918940" lon="-8.8319860">
        <ele>8.9</ele>
        <time>2021-05-18T05:37:47Z</time>
      </trkpt>
      <trkpt lat="41.6918910" lon="-8.8320050">
        <ele>8.9</ele>
        <time>2021-05-18T05:37:48Z</time>
      </trkpt>
      <trkpt lat="41.6918670" lon="-8.8320380">
        <ele>9.0</ele>
        <time>2021-05-18T05:37:49Z</time>
      </trkpt>
      <trkpt lat="41.6918560" lon="-8.8320540">
        <ele>9.0</ele>
        <time>2021-05-18T05:37:50Z</time>
      </trkpt>
      <trkpt lat="41.6918470" lon="-8.8321060">
        <ele>9.0</ele>
        <time>2021-05-18T05:37:51Z</time>
      </trkpt>
      <trkpt lat="41.6918440" lon="-8.8321250">
        <ele>9.0</ele>
        <time>2021-05-18T05:37:52Z</time>
      </trkpt>
      <trkpt lat="41.6918610" lon="-8.8321230">
        <ele>9.0</ele>
        <time>2021-05-18T05:37:53Z</time>
      </trkpt>
      <trkpt lat="41.6918560" lon="-8.8321390">
        <ele>9.0</ele>
        <time>2021-05-18T05:37:54Z</time>
      </trkpt>
      <trkpt lat="41.6918590" lon="-8.8321600">
        <ele>9.0</ele>
        <time>2021-05-18T05:37:55Z</time>
      </trkpt>
      <trkpt lat="41.6918600" lon="-8.8321810">
        <ele>9.0</ele>
        <time>2021-05-18T05:37:56Z</time>
      </trkpt>
      <trkpt lat="41.6918570" lon="-8.8321770">
        <ele>9.0</ele>
        <time>2021-05-18T05:37:57Z</time>
      </trkpt>
      <trkpt lat="41.6918500" lon="-8.8321920">
        <ele>9.0</ele>
        <time>2021-05-18T05:37:58Z</time>
      </trkpt>
      <trkpt lat="41.6918510" lon="-8.8322050">
        <ele>9.0</ele>
        <time>2021-05-18T05:37:59Z</time>
      </trkpt>
      <trkpt lat="41.6918590" lon="-8.8322210">
        <ele>9.0</ele>
        <time>2021-05-18T05:38:00Z</time>
      </trkpt>
      <trkpt lat="41.6918490" lon="-8.8322450">
        <ele>9.0</ele>
        <time>2021-05-18T05:38:01Z</time>
      </trkpt>
      <trkpt lat="41.6918540" lon="-8.8322600">
        <ele>9.0</ele>
        <time>2021-05-18T05:38:02Z</time>
      </trkpt>
      <trkpt lat="41.6918480" lon="-8.8322820">
        <ele>9.0</ele>
        <time>2021-05-18T05:38:03Z</time>
      </trkpt>
      <trkpt lat="41.6918410" lon="-8.8323200">
        <ele>9.0</ele>
        <time>2021-05-18T05:38:04Z</time>
      </trkpt>
      <trkpt lat="41.6918380" lon="-8.8323300">
        <ele>9.0</ele>
        <time>2021-05-18T05:38:05Z</time>
      </trkpt>
      <trkpt lat="41.6918400" lon="-8.8323530">
        <ele>9.0</ele>
        <time>2021-05-18T05:38:06Z</time>
      </trkpt>
      <trkpt lat="41.6918120" lon="-8.8323590">
        <ele>9.0</ele>
        <time>2021-05-18T05:38:07Z</time>
      </trkpt>
      <trkpt lat="41.6918150" lon="-8.8323770">
        <ele>9.0</ele>
        <time>2021-05-18T05:38:08Z</time>
      </trkpt>
      <trkpt lat="41.6918140" lon="-8.8323850">
        <ele>9.0</ele>
        <time>2021-05-18T05:38:09Z</time>
      </trkpt>
      <trkpt lat="41.6918130" lon="-8.8323920">
        <ele>9.0</ele>
        <time>2021-05-18T05:38:10Z</time>
      </trkpt>
      <trkpt lat="41.6918120" lon="-8.8324000">
        <ele>9.0</ele>
        <time>2021-05-18T05:38:11Z</time>
      </trkpt>
      <trkpt lat="41.6918110" lon="-8.8324080">
        <ele>9.0</ele>
        <time>2021-05-18T05:38:12Z</time>
      </trkpt>
      <trkpt lat="41.6917930" lon="-8.8324320">
        <ele>9.0</ele>
        <time>2021-05-18T05:38:13Z</time>
      </trkpt>
      <trkpt lat="41.6917860" lon="-8.8324410">
        <ele>9.0</ele>
        <time>2021-05-18T05:38:14Z</time>
      </trkpt>
      <trkpt lat="41.6917800" lon="-8.8324500">
        <ele>9.0</ele>
        <time>2021-05-18T05:38:15Z</time>
      </trkpt>
      <trkpt lat="41.6917710" lon="-8.8324690">
        <ele>9.0</ele>
        <time>2021-05-18T05:38:16Z</time>
      </trkpt>
      <trkpt lat="41.6917640" lon="-8.8324870">
        <ele>9.0</ele>
        <time>2021-05-18T05:38:17Z</time>
      </trkpt>
      <trkpt lat="41.6917600" lon="-8.8325000">
        <ele>9.0</ele>
        <time>2021-05-18T05:38:18Z</time>
      </trkpt>
      <trkpt lat="41.6917620" lon="-8.8325260">
        <ele>9.0</ele>
        <time>2021-05-18T05:38:19Z</time>
      </trkpt>
      <trkpt lat="41.6917620" lon="-8.8325410">
        <ele>9.0</ele>
        <time>2021-05-18T05:38:20Z</time>
      </trkpt>
      <trkpt lat="41.6917590" lon="-8.8325470">
        <ele>9.0</ele>
        <time>2021-05-18T05:38:21Z</time>
      </trkpt>
      <trkpt lat="41.6917550" lon="-8.8325630">
        <ele>9.0</ele>
        <time>2021-05-18T05:38:22Z</time>
      </trkpt>
      <trkpt lat="41.6917430" lon="-8.8325870">
        <ele>9.0</ele>
        <time>2021-05-18T05:38:23Z</time>
      </trkpt>
      <trkpt lat="41.6917400" lon="-8.8325980">
        <ele>9.0</ele>
        <time>2021-05-18T05:38:24Z</time>
      </trkpt>
      <trkpt lat="41.6917360" lon="-8.8326280">
        <ele>9.0</ele>
        <time>2021-05-18T05:38:25Z</time>
      </trkpt>
      <trkpt lat="41.6917310" lon="-8.8326440">
        <ele>9.0</ele>
        <time>2021-05-18T05:38:26Z</time>
      </trkpt>
      <trkpt lat="41.6917310" lon="-8.8326740">
        <ele>9.0</ele>
        <time>2021-05-18T05:38:27Z</time>
      </trkpt>
      <trkpt lat="41.6917310" lon="-8.8326900">
        <ele>9.0</ele>
        <time>2021-05-18T05:38:28Z</time>
      </trkpt>
      <trkpt lat="41.6917340" lon="-8.8327260">
        <ele>9.0</ele>
        <time>2021-05-18T05:38:29Z</time>
      </trkpt>
      <trkpt lat="41.6917350" lon="-8.8327550">
        <ele>9.0</ele>
        <time>2021-05-18T05:38:30Z</time>
      </trkpt>
      <trkpt lat="41.6917340" lon="-8.8327650">
        <ele>9.0</ele>
        <time>2021-05-18T05:38:31Z</time>
      </trkpt>
      <trkpt lat="41.6917320" lon="-8.8327760">
        <ele>9.0</ele>
        <time>2021-05-18T05:38:32Z</time>
      </trkpt>
      <trkpt lat="41.6917260" lon="-8.8327850">
        <ele>9.0</ele>
        <time>2021-05-18T05:38:33Z</time>
      </trkpt>
      <trkpt lat="41.6917280" lon="-8.8328070">
        <ele>9.0</ele>
        <time>2021-05-18T05:38:34Z</time>
      </trkpt>
      <trkpt lat="41.6917280" lon="-8.8328230">
        <ele>8.9</ele>
        <time>2021-05-18T05:38:35Z</time>
      </trkpt>
      <trkpt lat="41.6917330" lon="-8.8328400">
        <ele>8.9</ele>
        <time>2021-05-18T05:38:36Z</time>
      </trkpt>
      <trkpt lat="41.6917410" lon="-8.8328620">
        <ele>8.9</ele>
        <time>2021-05-18T05:38:37Z</time>
      </trkpt>
      <trkpt lat="41.6917400" lon="-8.8328890">
        <ele>8.9</ele>
        <time>2021-05-18T05:38:38Z</time>
      </trkpt>
      <trkpt lat="41.6917390" lon="-8.8329040">
        <ele>8.9</ele>
        <time>2021-05-18T05:38:39Z</time>
      </trkpt>
      <trkpt lat="41.6917340" lon="-8.8329280">
        <ele>8.9</ele>
        <time>2021-05-18T05:38:40Z</time>
      </trkpt>
      <trkpt lat="41.6917360" lon="-8.8329390">
        <ele>8.9</ele>
        <time>2021-05-18T05:38:41Z</time>
      </trkpt>
      <trkpt lat="41.6917430" lon="-8.8329500">
        <ele>8.9</ele>
        <time>2021-05-18T05:38:42Z</time>
      </trkpt>
      <trkpt lat="41.6917480" lon="-8.8329630">
        <ele>8.9</ele>
        <time>2021-05-18T05:38:43Z</time>
      </trkpt>
      <trkpt lat="41.6917550" lon="-8.8329850">
        <ele>8.9</ele>
        <time>2021-05-18T05:38:44Z</time>
      </trkpt>
      <trkpt lat="41.6917540" lon="-8.8329980">
        <ele>9.0</ele>
        <time>2021-05-18T05:38:45Z</time>
      </trkpt>
      <trkpt lat="41.6917480" lon="-8.8330230">
        <ele>9.0</ele>
        <time>2021-05-18T05:38:46Z</time>
      </trkpt>
      <trkpt lat="41.6917340" lon="-8.8330240">
        <ele>9.0</ele>
        <time>2021-05-18T05:38:47Z</time>
      </trkpt>
      <trkpt lat="41.6917240" lon="-8.8330410">
        <ele>9.0</ele>
        <time>2021-05-18T05:38:48Z</time>
      </trkpt>
      <trkpt lat="41.6917170" lon="-8.8330640">
        <ele>9.0</ele>
        <time>2021-05-18T05:38:49Z</time>
      </trkpt>
      <trkpt lat="41.6917080" lon="-8.8330730">
        <ele>9.0</ele>
        <time>2021-05-18T05:38:50Z</time>
      </trkpt>
      <trkpt lat="41.6917000" lon="-8.8330830">
        <ele>9.0</ele>
        <time>2021-05-18T05:38:51Z</time>
      </trkpt>
      <trkpt lat="41.6916730" lon="-8.8331080">
        <ele>9.0</ele>
        <time>2021-05-18T05:38:52Z</time>
      </trkpt>
      <trkpt lat="41.6916640" lon="-8.8331150">
        <ele>9.0</ele>
        <time>2021-05-18T05:38:53Z</time>
      </trkpt>
      <trkpt lat="41.6916650" lon="-8.8331470">
        <ele>9.0</ele>
        <time>2021-05-18T05:38:54Z</time>
      </trkpt>
      <trkpt lat="41.6916430" lon="-8.8331480">
        <ele>9.0</ele>
        <time>2021-05-18T05:38:55Z</time>
      </trkpt>
      <trkpt lat="41.6916320" lon="-8.8331620">
        <ele>9.0</ele>
        <time>2021-05-18T05:38:56Z</time>
      </trkpt>
      <trkpt lat="41.6916260" lon="-8.8331740">
        <ele>9.0</ele>
        <time>2021-05-18T05:38:57Z</time>
      </trkpt>
      <trkpt lat="41.6916190" lon="-8.8331850">
        <ele>9.0</ele>
        <time>2021-05-18T05:38:58Z</time>
      </trkpt>
      <trkpt lat="41.6916180" lon="-8.8332060">
        <ele>9.0</ele>
        <time>2021-05-18T05:38:59Z</time>
      </trkpt>
      <trkpt lat="41.6916130" lon="-8.8332180">
        <ele>9.0</ele>
        <time>2021-05-18T05:39:00Z</time>
      </trkpt>
      <trkpt lat="41.6916070" lon="-8.8332310">
        <ele>9.0</ele>
        <time>2021-05-18T05:39:01Z</time>
      </trkpt>
      <trkpt lat="41.6916020" lon="-8.8332510">
        <ele>9.0</ele>
        <time>2021-05-18T05:39:02Z</time>
      </trkpt>
      <trkpt lat="41.6915990" lon="-8.8332710">
        <ele>9.0</ele>
        <time>2021-05-18T05:39:03Z</time>
      </trkpt>
      <trkpt lat="41.6915870" lon="-8.8333120">
        <ele>9.0</ele>
        <time>2021-05-18T05:39:04Z</time>
      </trkpt>
      <trkpt lat="41.6915840" lon="-8.8333260">
        <ele>9.0</ele>
        <time>2021-05-18T05:39:05Z</time>
      </trkpt>
      <trkpt lat="41.6915870" lon="-8.8333340">
        <ele>9.0</ele>
        <time>2021-05-18T05:39:06Z</time>
      </trkpt>
      <trkpt lat="41.6915790" lon="-8.8333380">
        <ele>9.0</ele>
        <time>2021-05-18T05:39:07Z</time>
      </trkpt>
      <trkpt lat="41.6915690" lon="-8.8333470">
        <ele>9.0</ele>
        <time>2021-05-18T05:39:08Z</time>
      </trkpt>
      <trkpt lat="41.6915650" lon="-8.8333640">
        <ele>9.0</ele>
        <time>2021-05-18T05:39:09Z</time>
      </trkpt>
      <trkpt lat="41.6915550" lon="-8.8333890">
        <ele>9.0</ele>
        <time>2021-05-18T05:39:10Z</time>
      </trkpt>
      <trkpt lat="41.6915510" lon="-8.8334000">
        <ele>9.0</ele>
        <time>2021-05-18T05:39:11Z</time>
      </trkpt>
      <trkpt lat="41.6915480" lon="-8.8334100">
        <ele>9.0</ele>
        <time>2021-05-18T05:39:12Z</time>
      </trkpt>
      <trkpt lat="41.6915410" lon="-8.8334310">
        <ele>9.0</ele>
        <time>2021-05-18T05:39:13Z</time>
      </trkpt>
      <trkpt lat="41.6915360" lon="-8.8334410">
        <ele>9.0</ele>
        <time>2021-05-18T05:39:14Z</time>
      </trkpt>
      <trkpt lat="41.6915330" lon="-8.8334510">
        <ele>9.0</ele>
        <time>2021-05-18T05:39:15Z</time>
      </trkpt>
      <trkpt lat="41.6915300" lon="-8.8334780">
        <ele>8.9</ele>
        <time>2021-05-18T05:39:16Z</time>
      </trkpt>
      <trkpt lat="41.6915250" lon="-8.8334960">
        <ele>8.9</ele>
        <time>2021-05-18T05:39:17Z</time>
      </trkpt>
      <trkpt lat="41.6915260" lon="-8.8335270">
        <ele>8.9</ele>
        <time>2021-05-18T05:39:18Z</time>
      </trkpt>
      <trkpt lat="41.6915260" lon="-8.8335370">
        <ele>8.9</ele>
        <time>2021-05-18T05:39:19Z</time>
      </trkpt>
      <trkpt lat="41.6915270" lon="-8.8335480">
        <ele>8.9</ele>
        <time>2021-05-18T05:39:20Z</time>
      </trkpt>
      <trkpt lat="41.6915250" lon="-8.8335890">
        <ele>8.9</ele>
        <time>2021-05-18T05:39:21Z</time>
      </trkpt>
      <trkpt lat="41.6915240" lon="-8.8335990">
        <ele>8.9</ele>
        <time>2021-05-18T05:39:22Z</time>
      </trkpt>
      <trkpt lat="41.6915260" lon="-8.8336090">
        <ele>8.9</ele>
        <time>2021-05-18T05:39:23Z</time>
      </trkpt>
      <trkpt lat="41.6915230" lon="-8.8336220">
        <ele>8.9</ele>
        <time>2021-05-18T05:39:24Z</time>
      </trkpt>
      <trkpt lat="41.6915310" lon="-8.8336310">
        <ele>8.9</ele>
        <time>2021-05-18T05:39:25Z</time>
      </trkpt>
      <trkpt lat="41.6915300" lon="-8.8336430">
        <ele>8.9</ele>
        <time>2021-05-18T05:39:26Z</time>
      </trkpt>
      <trkpt lat="41.6915280" lon="-8.8336760">
        <ele>8.9</ele>
        <time>2021-05-18T05:39:27Z</time>
      </trkpt>
      <trkpt lat="41.6915240" lon="-8.8336860">
        <ele>8.9</ele>
        <time>2021-05-18T05:39:28Z</time>
      </trkpt>
      <trkpt lat="41.6915250" lon="-8.8337030">
        <ele>8.9</ele>
        <time>2021-05-18T05:39:29Z</time>
      </trkpt>
      <trkpt lat="41.6915220" lon="-8.8337230">
        <ele>8.9</ele>
        <time>2021-05-18T05:39:30Z</time>
      </trkpt>
      <trkpt lat="41.6915340" lon="-8.8337570">
        <ele>8.9</ele>
        <time>2021-05-18T05:39:31Z</time>
      </trkpt>
      <trkpt lat="41.6915370" lon="-8.8337660">
        <ele>8.9</ele>
        <time>2021-05-18T05:39:32Z</time>
      </trkpt>
      <trkpt lat="41.6915400" lon="-8.8337750">
        <ele>8.9</ele>
        <time>2021-05-18T05:39:33Z</time>
      </trkpt>
      <trkpt lat="41.6915430" lon="-8.8337980">
        <ele>9.0</ele>
        <time>2021-05-18T05:39:34Z</time>
      </trkpt>
      <trkpt lat="41.6915470" lon="-8.8338210">
        <ele>9.0</ele>
        <time>2021-05-18T05:39:35Z</time>
      </trkpt>
      <trkpt lat="41.6915510" lon="-8.8338530">
        <ele>9.0</ele>
        <time>2021-05-18T05:39:36Z</time>
      </trkpt>
      <trkpt lat="41.6915500" lon="-8.8338680">
        <ele>9.0</ele>
        <time>2021-05-18T05:39:37Z</time>
      </trkpt>
      <trkpt lat="41.6915520" lon="-8.8338870">
        <ele>9.0</ele>
        <time>2021-05-18T05:39:38Z</time>
      </trkpt>
      <trkpt lat="41.6915650" lon="-8.8339000">
        <ele>9.0</ele>
        <time>2021-05-18T05:39:39Z</time>
      </trkpt>
      <trkpt lat="41.6915740" lon="-8.8339140">
        <ele>9.0</ele>
        <time>2021-05-18T05:39:40Z</time>
      </trkpt>
      <trkpt lat="41.6915760" lon="-8.8339230">
        <ele>9.0</ele>
        <time>2021-05-18T05:39:41Z</time>
      </trkpt>
      <trkpt lat="41.6915860" lon="-8.8339250">
        <ele>9.0</ele>
        <time>2021-05-18T05:39:42Z</time>
      </trkpt>
      <trkpt lat="41.6915920" lon="-8.8339430">
        <ele>9.0</ele>
        <time>2021-05-18T05:39:43Z</time>
      </trkpt>
      <trkpt lat="41.6915910" lon="-8.8339620">
        <ele>9.0</ele>
        <time>2021-05-18T05:39:44Z</time>
      </trkpt>
      <trkpt lat="41.6915940" lon="-8.8339740">
        <ele>9.0</ele>
        <time>2021-05-18T05:39:45Z</time>
      </trkpt>
      <trkpt lat="41.6915950" lon="-8.8340070">
        <ele>9.0</ele>
        <time>2021-05-18T05:39:46Z</time>
      </trkpt>
      <trkpt lat="41.6916060" lon="-8.8340270">
        <ele>9.0</ele>
        <time>2021-05-18T05:39:47Z</time>
      </trkpt>
      <trkpt lat="41.6916060" lon="-8.8340430">
        <ele>9.0</ele>
        <time>2021-05-18T05:39:48Z</time>
      </trkpt>
      <trkpt lat="41.6916070" lon="-8.8340580">
        <ele>9.0</ele>
        <time>2021-05-18T05:39:49Z</time>
      </trkpt>
      <trkpt lat="41.6916140" lon="-8.8340700">
        <ele>9.0</ele>
        <time>2021-05-18T05:39:50Z</time>
      </trkpt>
      <trkpt lat="41.6916120" lon="-8.8340800">
        <ele>9.0</ele>
        <time>2021-05-18T05:39:51Z</time>
      </trkpt>
      <trkpt lat="41.6916110" lon="-8.8340970">
        <ele>9.0</ele>
        <time>2021-05-18T05:39:52Z</time>
      </trkpt>
      <trkpt lat="41.6916210" lon="-8.8341210">
        <ele>9.0</ele>
        <time>2021-05-18T05:39:53Z</time>
      </trkpt>
      <trkpt lat="41.6916290" lon="-8.8341370">
        <ele>9.0</ele>
        <time>2021-05-18T05:39:54Z</time>
      </trkpt>
      <trkpt lat="41.6916340" lon="-8.8341570">
        <ele>9.0</ele>
        <time>2021-05-18T05:39:55Z</time>
      </trkpt>
      <trkpt lat="41.6916380" lon="-8.8341670">
        <ele>9.0</ele>
        <time>2021-05-18T05:39:56Z</time>
      </trkpt>
      <trkpt lat="41.6916410" lon="-8.8341760">
        <ele>9.0</ele>
        <time>2021-05-18T05:39:57Z</time>
      </trkpt>
      <trkpt lat="41.6916450" lon="-8.8341860">
        <ele>9.0</ele>
        <time>2021-05-18T05:39:58Z</time>
      </trkpt>
      <trkpt lat="41.6916540" lon="-8.8342200">
        <ele>9.0</ele>
        <time>2021-05-18T05:39:59Z</time>
      </trkpt>
      <trkpt lat="41.6916560" lon="-8.8342340">
        <ele>9.0</ele>
        <time>2021-05-18T05:40:00Z</time>
      </trkpt>
      <trkpt lat="41.6916670" lon="-8.8342590">
        <ele>9.1</ele>
        <time>2021-05-18T05:40:01Z</time>
      </trkpt>
      <trkpt lat="41.6916660" lon="-8.8342700">
        <ele>9.1</ele>
        <time>2021-05-18T05:40:02Z</time>
      </trkpt>
      <trkpt lat="41.6916770" lon="-8.8343120">
        <ele>9.1</ele>
        <time>2021-05-18T05:40:03Z</time>
      </trkpt>
      <trkpt lat="41.6916770" lon="-8.8343230">
        <ele>9.1</ele>
        <time>2021-05-18T05:40:04Z</time>
      </trkpt>
      <trkpt lat="41.6916840" lon="-8.8343310">
        <ele>9.1</ele>
        <time>2021-05-18T05:40:05Z</time>
      </trkpt>
      <trkpt lat="41.6916870" lon="-8.8343510">
        <ele>9.1</ele>
        <time>2021-05-18T05:40:06Z</time>
      </trkpt>
      <trkpt lat="41.6916820" lon="-8.8343660">
        <ele>9.1</ele>
        <time>2021-05-18T05:40:07Z</time>
      </trkpt>
      <trkpt lat="41.6916870" lon="-8.8343970">
        <ele>9.1</ele>
        <time>2021-05-18T05:40:08Z</time>
      </trkpt>
      <trkpt lat="41.6916910" lon="-8.8344190">
        <ele>9.2</ele>
        <time>2021-05-18T05:40:09Z</time>
      </trkpt>
      <trkpt lat="41.6916930" lon="-8.8344300">
        <ele>9.2</ele>
        <time>2021-05-18T05:40:10Z</time>
      </trkpt>
      <trkpt lat="41.6916970" lon="-8.8344450">
        <ele>9.2</ele>
        <time>2021-05-18T05:40:11Z</time>
      </trkpt>
      <trkpt lat="41.6916920" lon="-8.8344670">
        <ele>9.2</ele>
        <time>2021-05-18T05:40:12Z</time>
      </trkpt>
      <trkpt lat="41.6916990" lon="-8.8345030">
        <ele>9.2</ele>
        <time>2021-05-18T05:40:13Z</time>
      </trkpt>
      <trkpt lat="41.6917030" lon="-8.8345140">
        <ele>9.2</ele>
        <time>2021-05-18T05:40:14Z</time>
      </trkpt>
      <trkpt lat="41.6917070" lon="-8.8345350">
        <ele>9.2</ele>
        <time>2021-05-18T05:40:15Z</time>
      </trkpt>
      <trkpt lat="41.6917070" lon="-8.8345570">
        <ele>9.2</ele>
        <time>2021-05-18T05:40:16Z</time>
      </trkpt>
      <trkpt lat="41.6917130" lon="-8.8345830">
        <ele>9.2</ele>
        <time>2021-05-18T05:40:17Z</time>
      </trkpt>
      <trkpt lat="41.6917150" lon="-8.8345980">
        <ele>9.2</ele>
        <time>2021-05-18T05:40:18Z</time>
      </trkpt>
      <trkpt lat="41.6917180" lon="-8.8346130">
        <ele>9.2</ele>
        <time>2021-05-18T05:40:19Z</time>
      </trkpt>
      <trkpt lat="41.6917280" lon="-8.8346340">
        <ele>9.3</ele>
        <time>2021-05-18T05:40:20Z</time>
      </trkpt>
      <trkpt lat="41.6917330" lon="-8.8346530">
        <ele>9.3</ele>
        <time>2021-05-18T05:40:21Z</time>
      </trkpt>
      <trkpt lat="41.6917340" lon="-8.8346620">
        <ele>9.3</ele>
        <time>2021-05-18T05:40:22Z</time>
      </trkpt>
      <trkpt lat="41.6917400" lon="-8.8346810">
        <ele>9.3</ele>
        <time>2021-05-18T05:40:23Z</time>
      </trkpt>
      <trkpt lat="41.6917440" lon="-8.8346900">
        <ele>9.3</ele>
        <time>2021-05-18T05:40:24Z</time>
      </trkpt>
      <trkpt lat="41.6917450" lon="-8.8347100">
        <ele>9.3</ele>
        <time>2021-05-18T05:40:25Z</time>
      </trkpt>
      <trkpt lat="41.6917490" lon="-8.8347300">
        <ele>9.3</ele>
        <time>2021-05-18T05:40:26Z</time>
      </trkpt>
      <trkpt lat="41.6917560" lon="-8.8347540">
        <ele>9.3</ele>
        <time>2021-05-18T05:40:27Z</time>
      </trkpt>
      <trkpt lat="41.6917640" lon="-8.8347680">
        <ele>9.3</ele>
        <time>2021-05-18T05:40:28Z</time>
      </trkpt>
      <trkpt lat="41.6917720" lon="-8.8347850">
        <ele>9.3</ele>
        <time>2021-05-18T05:40:29Z</time>
      </trkpt>
      <trkpt lat="41.6917810" lon="-8.8347950">
        <ele>9.3</ele>
        <time>2021-05-18T05:40:30Z</time>
      </trkpt>
      <trkpt lat="41.6917860" lon="-8.8348010">
        <ele>9.3</ele>
        <time>2021-05-18T05:40:31Z</time>
      </trkpt>
      <trkpt lat="41.6917850" lon="-8.8348180">
        <ele>9.3</ele>
        <time>2021-05-18T05:40:32Z</time>
      </trkpt>
      <trkpt lat="41.6917930" lon="-8.8348380">
        <ele>9.3</ele>
        <time>2021-05-18T05:40:33Z</time>
      </trkpt>
      <trkpt lat="41.6917960" lon="-8.8348470">
        <ele>9.3</ele>
        <time>2021-05-18T05:40:34Z</time>
      </trkpt>
      <trkpt lat="41.6917950" lon="-8.8348550">
        <ele>9.3</ele>
        <time>2021-05-18T05:40:35Z</time>
      </trkpt>
      <trkpt lat="41.6918040" lon="-8.8348490">
        <ele>9.3</ele>
        <time>2021-05-18T05:40:36Z</time>
      </trkpt>
      <trkpt lat="41.6918130" lon="-8.8348700">
        <ele>9.3</ele>
        <time>2021-05-18T05:40:37Z</time>
      </trkpt>
      <trkpt lat="41.6918130" lon="-8.8348920">
        <ele>9.3</ele>
        <time>2021-05-18T05:40:38Z</time>
      </trkpt>
      <trkpt lat="41.6918130" lon="-8.8349110">
        <ele>9.3</ele>
        <time>2021-05-18T05:40:39Z</time>
      </trkpt>
      <trkpt lat="41.6918170" lon="-8.8349300">
        <ele>9.3</ele>
        <time>2021-05-18T05:40:40Z</time>
      </trkpt>
      <trkpt lat="41.6918190" lon="-8.8349400">
        <ele>9.3</ele>
        <time>2021-05-18T05:40:41Z</time>
      </trkpt>
      <trkpt lat="41.6918200" lon="-8.8349510">
        <ele>9.3</ele>
        <time>2021-05-18T05:40:42Z</time>
      </trkpt>
      <trkpt lat="41.6918220" lon="-8.8349620">
        <ele>9.3</ele>
        <time>2021-05-18T05:40:43Z</time>
      </trkpt>
      <trkpt lat="41.6918280" lon="-8.8349920">
        <ele>9.3</ele>
        <time>2021-05-18T05:40:44Z</time>
      </trkpt>
      <trkpt lat="41.6918290" lon="-8.8350080">
        <ele>9.3</ele>
        <time>2021-05-18T05:40:45Z</time>
      </trkpt>
      <trkpt lat="41.6918310" lon="-8.8350250">
        <ele>9.4</ele>
        <time>2021-05-18T05:40:46Z</time>
      </trkpt>
      <trkpt lat="41.6918360" lon="-8.8350490">
        <ele>9.4</ele>
        <time>2021-05-18T05:40:47Z</time>
      </trkpt>
      <trkpt lat="41.6918350" lon="-8.8350690">
        <ele>9.4</ele>
        <time>2021-05-18T05:40:48Z</time>
      </trkpt>
      <trkpt lat="41.6918380" lon="-8.8350840">
        <ele>9.4</ele>
        <time>2021-05-18T05:40:49Z</time>
      </trkpt>
      <trkpt lat="41.6918430" lon="-8.8351050">
        <ele>9.4</ele>
        <time>2021-05-18T05:40:50Z</time>
      </trkpt>
      <trkpt lat="41.6918490" lon="-8.8351290">
        <ele>9.4</ele>
        <time>2021-05-18T05:40:51Z</time>
      </trkpt>
      <trkpt lat="41.6918510" lon="-8.8351480">
        <ele>9.4</ele>
        <time>2021-05-18T05:40:52Z</time>
      </trkpt>
      <trkpt lat="41.6918500" lon="-8.8351590">
        <ele>9.4</ele>
        <time>2021-05-18T05:40:53Z</time>
      </trkpt>
      <trkpt lat="41.6918520" lon="-8.8351760">
        <ele>9.4</ele>
        <time>2021-05-18T05:40:54Z</time>
      </trkpt>
      <trkpt lat="41.6918570" lon="-8.8351950">
        <ele>9.4</ele>
        <time>2021-05-18T05:40:55Z</time>
      </trkpt>
      <trkpt lat="41.6918600" lon="-8.8352130">
        <ele>9.5</ele>
        <time>2021-05-18T05:40:56Z</time>
      </trkpt>
      <trkpt lat="41.6918620" lon="-8.8352310">
        <ele>9.5</ele>
        <time>2021-05-18T05:40:57Z</time>
      </trkpt>
      <trkpt lat="41.6918680" lon="-8.8352490">
        <ele>9.5</ele>
        <time>2021-05-18T05:40:58Z</time>
      </trkpt>
      <trkpt lat="41.6918720" lon="-8.8352660">
        <ele>9.5</ele>
        <time>2021-05-18T05:40:59Z</time>
      </trkpt>
      <trkpt lat="41.6918750" lon="-8.8352810">
        <ele>9.5</ele>
        <time>2021-05-18T05:41:00Z</time>
      </trkpt>
      <trkpt lat="41.6918740" lon="-8.8353030">
        <ele>9.5</ele>
        <time>2021-05-18T05:41:01Z</time>
      </trkpt>
      <trkpt lat="41.6918740" lon="-8.8353330">
        <ele>9.5</ele>
        <time>2021-05-18T05:41:02Z</time>
      </trkpt>
      <trkpt lat="41.6918740" lon="-8.8353490">
        <ele>9.5</ele>
        <time>2021-05-18T05:41:03Z</time>
      </trkpt>
      <trkpt lat="41.6918740" lon="-8.8353640">
        <ele>9.5</ele>
        <time>2021-05-18T05:41:04Z</time>
      </trkpt>
      <trkpt lat="41.6918780" lon="-8.8353890">
        <ele>9.6</ele>
        <time>2021-05-18T05:41:05Z</time>
      </trkpt>
      <trkpt lat="41.6918800" lon="-8.8354000">
        <ele>9.6</ele>
        <time>2021-05-18T05:41:06Z</time>
      </trkpt>
      <trkpt lat="41.6918810" lon="-8.8354120">
        <ele>9.6</ele>
        <time>2021-05-18T05:41:07Z</time>
      </trkpt>
      <trkpt lat="41.6918840" lon="-8.8354260">
        <ele>9.6</ele>
        <time>2021-05-18T05:41:08Z</time>
      </trkpt>
      <trkpt lat="41.6918880" lon="-8.8354420">
        <ele>9.6</ele>
        <time>2021-05-18T05:41:09Z</time>
      </trkpt>
      <trkpt lat="41.6918920" lon="-8.8354510">
        <ele>9.6</ele>
        <time>2021-05-18T05:41:10Z</time>
      </trkpt>
      <trkpt lat="41.6918920" lon="-8.8354620">
        <ele>9.6</ele>
        <time>2021-05-18T05:41:11Z</time>
      </trkpt>
      <trkpt lat="41.6918900" lon="-8.8354780">
        <ele>9.6</ele>
        <time>2021-05-18T05:41:12Z</time>
      </trkpt>
      <trkpt lat="41.6918910" lon="-8.8354950">
        <ele>9.6</ele>
        <time>2021-05-18T05:41:13Z</time>
      </trkpt>
      <trkpt lat="41.6918920" lon="-8.8355410">
        <ele>9.7</ele>
        <time>2021-05-18T05:41:14Z</time>
      </trkpt>
      <trkpt lat="41.6918900" lon="-8.8355510">
        <ele>9.7</ele>
        <time>2021-05-18T05:41:15Z</time>
      </trkpt>
      <trkpt lat="41.6918880" lon="-8.8355740">
        <ele>9.7</ele>
        <time>2021-05-18T05:41:16Z</time>
      </trkpt>
      <trkpt lat="41.6918870" lon="-8.8355790">
        <ele>9.7</ele>
        <time>2021-05-18T05:41:17Z</time>
      </trkpt>
      <trkpt lat="41.6918850" lon="-8.8355790">
        <ele>9.7</ele>
        <time>2021-05-18T05:41:18Z</time>
      </trkpt>
      <trkpt lat="41.6918800" lon="-8.8355700">
        <ele>9.7</ele>
        <time>2021-05-18T05:41:19Z</time>
      </trkpt>
      <trkpt lat="41.6918820" lon="-8.8355690">
        <ele>9.7</ele>
        <time>2021-05-18T05:41:20Z</time>
      </trkpt>
      <trkpt lat="41.6918830" lon="-8.8355680">
        <ele>9.7</ele>
        <time>2021-05-18T05:41:21Z</time>
      </trkpt>
      <trkpt lat="41.6918790" lon="-8.8355660">
        <ele>9.7</ele>
        <time>2021-05-18T05:41:22Z</time>
      </trkpt>
      <trkpt lat="41.6918680" lon="-8.8355680">
        <ele>9.7</ele>
        <time>2021-05-18T05:41:23Z</time>
      </trkpt>
      <trkpt lat="41.6918750" lon="-8.8355670">
        <ele>9.7</ele>
        <time>2021-05-18T05:41:24Z</time>
      </trkpt>
      <trkpt lat="41.6918690" lon="-8.8355730">
        <ele>9.7</ele>
        <time>2021-05-18T05:41:25Z</time>
      </trkpt>
      <trkpt lat="41.6918660" lon="-8.8355820">
        <ele>9.7</ele>
        <time>2021-05-18T05:41:26Z</time>
      </trkpt>
      <trkpt lat="41.6918630" lon="-8.8356000">
        <ele>9.7</ele>
        <time>2021-05-18T05:41:27Z</time>
      </trkpt>
      <trkpt lat="41.6918660" lon="-8.8355950">
        <ele>9.7</ele>
        <time>2021-05-18T05:41:28Z</time>
      </trkpt>
      <trkpt lat="41.6918560" lon="-8.8355920">
        <ele>9.7</ele>
        <time>2021-05-18T05:41:29Z</time>
      </trkpt>
      <trkpt lat="41.6918620" lon="-8.8355920">
        <ele>9.7</ele>
        <time>2021-05-18T05:41:30Z</time>
      </trkpt>
      <trkpt lat="41.6918400" lon="-8.8355950">
        <ele>9.7</ele>
        <time>2021-05-18T05:41:31Z</time>
      </trkpt>
      <trkpt lat="41.6918190" lon="-8.8355680">
        <ele>9.7</ele>
        <time>2021-05-18T05:41:32Z</time>
      </trkpt>
      <trkpt lat="41.6918160" lon="-8.8355710">
        <ele>9.7</ele>
        <time>2021-05-18T05:41:33Z</time>
      </trkpt>
      <trkpt lat="41.6918170" lon="-8.8355790">
        <ele>9.7</ele>
        <time>2021-05-18T05:41:34Z</time>
      </trkpt>
      <trkpt lat="41.6918200" lon="-8.8355890">
        <ele>9.7</ele>
        <time>2021-05-18T05:41:35Z</time>
      </trkpt>
      <trkpt lat="41.6918210" lon="-8.8355900">
        <ele>9.7</ele>
        <time>2021-05-18T05:41:36Z</time>
      </trkpt>
      <trkpt lat="41.6918250" lon="-8.8355880">
        <ele>9.7</ele>
        <time>2021-05-18T05:41:37Z</time>
      </trkpt>
      <trkpt lat="41.6918290" lon="-8.8355870">
        <ele>9.7</ele>
        <time>2021-05-18T05:41:38Z</time>
      </trkpt>
      <trkpt lat="41.6918320" lon="-8.8355920">
        <ele>9.8</ele>
        <time>2021-05-18T05:41:39Z</time>
      </trkpt>
      <trkpt lat="41.6918350" lon="-8.8355840">
        <ele>9.8</ele>
        <time>2021-05-18T05:41:40Z</time>
      </trkpt>
      <trkpt lat="41.6918300" lon="-8.8355830">
        <ele>9.8</ele>
        <time>2021-05-18T05:41:41Z</time>
      </trkpt>
      <trkpt lat="41.6918290" lon="-8.8355860">
        <ele>9.8</ele>
        <time>2021-05-18T05:41:42Z</time>
      </trkpt>
      <trkpt lat="41.6918290" lon="-8.8355900">
        <ele>9.8</ele>
        <time>2021-05-18T05:41:43Z</time>
      </trkpt>
      <trkpt lat="41.6918320" lon="-8.8355890">
        <ele>9.8</ele>
        <time>2021-05-18T05:41:44Z</time>
      </trkpt>
      <trkpt lat="41.6918320" lon="-8.8355910">
        <ele>9.8</ele>
        <time>2021-05-18T05:41:45Z</time>
      </trkpt>
      <trkpt lat="41.6918310" lon="-8.8355900">
        <ele>9.8</ele>
        <time>2021-05-18T05:41:46Z</time>
      </trkpt>
      <trkpt lat="41.6918280" lon="-8.8355870">
        <ele>9.8</ele>
        <time>2021-05-18T05:41:47Z</time>
      </trkpt>
      <trkpt lat="41.6918240" lon="-8.8355810">
        <ele>9.8</ele>
        <time>2021-05-18T05:41:48Z</time>
      </trkpt>
      <trkpt lat="41.6918210" lon="-8.8355860">
        <ele>9.8</ele>
        <time>2021-05-18T05:41:49Z</time>
      </trkpt>
      <trkpt lat="41.6918180" lon="-8.8355910">
        <ele>9.8</ele>
        <time>2021-05-18T05:41:50Z</time>
      </trkpt>
      <trkpt lat="41.6918170" lon="-8.8355960">
        <ele>9.8</ele>
        <time>2021-05-18T05:41:51Z</time>
      </trkpt>
      <trkpt lat="41.6918150" lon="-8.8356000">
        <ele>9.8</ele>
        <time>2021-05-18T05:41:52Z</time>
      </trkpt>
      <trkpt lat="41.6918140" lon="-8.8356020">
        <ele>9.8</ele>
        <time>2021-05-18T05:41:53Z</time>
      </trkpt>
      <trkpt lat="41.6918100" lon="-8.8356070">
        <ele>9.8</ele>
        <time>2021-05-18T05:41:54Z</time>
      </trkpt>
      <trkpt lat="41.6918090" lon="-8.8356090">
        <ele>9.8</ele>
        <time>2021-05-18T05:41:55Z</time>
      </trkpt>
      <trkpt lat="41.6918050" lon="-8.8356100">
        <ele>9.8</ele>
        <time>2021-05-18T05:41:56Z</time>
      </trkpt>
      <trkpt lat="41.6918000" lon="-8.8356090">
        <ele>9.8</ele>
        <time>2021-05-18T05:41:57Z</time>
      </trkpt>
      <trkpt lat="41.6917960" lon="-8.8356050">
        <ele>9.8</ele>
        <time>2021-05-18T05:41:58Z</time>
      </trkpt>
      <trkpt lat="41.6917930" lon="-8.8356020">
        <ele>9.8</ele>
        <time>2021-05-18T05:41:59Z</time>
      </trkpt>
      <trkpt lat="41.6917900" lon="-8.8356010">
        <ele>9.8</ele>
        <time>2021-05-18T05:42:00Z</time>
      </trkpt>
      <trkpt lat="41.6917880" lon="-8.8356010">
        <ele>9.8</ele>
        <time>2021-05-18T05:42:01Z</time>
      </trkpt>
      <trkpt lat="41.6917830" lon="-8.8356000">
        <ele>9.8</ele>
        <time>2021-05-18T05:42:02Z</time>
      </trkpt>
      <trkpt lat="41.6917830" lon="-8.8356000">
        <ele>9.8</ele>
        <time>2021-05-18T05:42:03Z</time>
      </trkpt>
      <trkpt lat="41.6917770" lon="-8.8356010">
        <ele>9.8</ele>
        <time>2021-05-18T05:42:04Z</time>
      </trkpt>
      <trkpt lat="41.6917770" lon="-8.8356020">
        <ele>9.8</ele>
        <time>2021-05-18T05:42:05Z</time>
      </trkpt>
      <trkpt lat="41.6917800" lon="-8.8356020">
        <ele>9.8</ele>
        <time>2021-05-18T05:42:06Z</time>
      </trkpt>
      <trkpt lat="41.6917800" lon="-8.8356000">
        <ele>9.8</ele>
        <time>2021-05-18T05:42:07Z</time>
      </trkpt>
      <trkpt lat="41.6917800" lon="-8.8355980">
        <ele>9.8</ele>
        <time>2021-05-18T05:42:08Z</time>
      </trkpt>
      <trkpt lat="41.6917780" lon="-8.8355970">
        <ele>9.8</ele>
        <time>2021-05-18T05:42:09Z</time>
      </trkpt>
      <trkpt lat="41.6917770" lon="-8.8355960">
        <ele>9.8</ele>
        <time>2021-05-18T05:42:10Z</time>
      </trkpt>
      <trkpt lat="41.6917760" lon="-8.8355960">
        <ele>9.8</ele>
        <time>2021-05-18T05:42:11Z</time>
      </trkpt>
      <trkpt lat="41.6917760" lon="-8.8355940">
        <ele>9.8</ele>
        <time>2021-05-18T05:42:12Z</time>
      </trkpt>
      <trkpt lat="41.6917720" lon="-8.8355900">
        <ele>9.8</ele>
        <time>2021-05-18T05:42:13Z</time>
      </trkpt>
      <trkpt lat="41.6917720" lon="-8.8355780">
        <ele>9.8</ele>
        <time>2021-05-18T05:42:14Z</time>
      </trkpt>
      <trkpt lat="41.6917690" lon="-8.8355770">
        <ele>9.8</ele>
        <time>2021-05-18T05:42:15Z</time>
      </trkpt>
      <trkpt lat="41.6917720" lon="-8.8355780">
        <ele>9.8</ele>
        <time>2021-05-18T05:42:16Z</time>
      </trkpt>
      <trkpt lat="41.6917730" lon="-8.8355770">
        <ele>9.8</ele>
        <time>2021-05-18T05:42:17Z</time>
      </trkpt>
      <trkpt lat="41.6917730" lon="-8.8355800">
        <ele>9.8</ele>
        <time>2021-05-18T05:42:18Z</time>
      </trkpt>
      <trkpt lat="41.6917740" lon="-8.8355890">
        <ele>9.8</ele>
        <time>2021-05-18T05:42:19Z</time>
      </trkpt>
      <trkpt lat="41.6917770" lon="-8.8356010">
        <ele>9.8</ele>
        <time>2021-05-18T05:42:20Z</time>
      </trkpt>
      <trkpt lat="41.6917870" lon="-8.8356160">
        <ele>9.8</ele>
        <time>2021-05-18T05:42:21Z</time>
      </trkpt>
      <trkpt lat="41.6917870" lon="-8.8356220">
        <ele>9.8</ele>
        <time>2021-05-18T05:42:22Z</time>
      </trkpt>
      <trkpt lat="41.6917890" lon="-8.8356420">
        <ele>9.8</ele>
        <time>2021-05-18T05:42:23Z</time>
      </trkpt>
      <trkpt lat="41.6917940" lon="-8.8356510">
        <ele>9.8</ele>
        <time>2021-05-18T05:42:24Z</time>
      </trkpt>
      <trkpt lat="41.6918030" lon="-8.8356670">
        <ele>9.8</ele>
        <time>2021-05-18T05:42:25Z</time>
      </trkpt>
      <trkpt lat="41.6918060" lon="-8.8356790">
        <ele>9.8</ele>
        <time>2021-05-18T05:42:26Z</time>
      </trkpt>
      <trkpt lat="41.6918190" lon="-8.8357150">
        <ele>9.8</ele>
        <time>2021-05-18T05:42:27Z</time>
      </trkpt>
      <trkpt lat="41.6918210" lon="-8.8357270">
        <ele>9.9</ele>
        <time>2021-05-18T05:42:28Z</time>
      </trkpt>
      <trkpt lat="41.6918290" lon="-8.8357310">
        <ele>9.9</ele>
        <time>2021-05-18T05:42:29Z</time>
      </trkpt>
      <trkpt lat="41.6918360" lon="-8.8357550">
        <ele>9.9</ele>
        <time>2021-05-18T05:42:30Z</time>
      </trkpt>
      <trkpt lat="41.6918420" lon="-8.8357660">
        <ele>9.9</ele>
        <time>2021-05-18T05:42:31Z</time>
      </trkpt>
      <trkpt lat="41.6918520" lon="-8.8357780">
        <ele>9.9</ele>
        <time>2021-05-18T05:42:32Z</time>
      </trkpt>
      <trkpt lat="41.6918670" lon="-8.8357930">
        <ele>9.9</ele>
        <time>2021-05-18T05:42:33Z</time>
      </trkpt>
      <trkpt lat="41.6918730" lon="-8.8358120">
        <ele>9.9</ele>
        <time>2021-05-18T05:42:34Z</time>
      </trkpt>
      <trkpt lat="41.6918790" lon="-8.8358280">
        <ele>9.9</ele>
        <time>2021-05-18T05:42:35Z</time>
      </trkpt>
      <trkpt lat="41.6918850" lon="-8.8358570">
        <ele>9.9</ele>
        <time>2021-05-18T05:42:36Z</time>
      </trkpt>
      <trkpt lat="41.6918880" lon="-8.8358680">
        <ele>9.9</ele>
        <time>2021-05-18T05:42:37Z</time>
      </trkpt>
      <trkpt lat="41.6918900" lon="-8.8358790">
        <ele>9.9</ele>
        <time>2021-05-18T05:42:38Z</time>
      </trkpt>
      <trkpt lat="41.6918910" lon="-8.8358910">
        <ele>9.9</ele>
        <time>2021-05-18T05:42:39Z</time>
      </trkpt>
      <trkpt lat="41.6918930" lon="-8.8359110">
        <ele>9.9</ele>
        <time>2021-05-18T05:42:40Z</time>
      </trkpt>
      <trkpt lat="41.6918970" lon="-8.8359240">
        <ele>9.9</ele>
        <time>2021-05-18T05:42:41Z</time>
      </trkpt>
      <trkpt lat="41.6918990" lon="-8.8359490">
        <ele>10.0</ele>
        <time>2021-05-18T05:42:42Z</time>
      </trkpt>
      <trkpt lat="41.6919000" lon="-8.8359620">
        <ele>10.0</ele>
        <time>2021-05-18T05:42:43Z</time>
      </trkpt>
      <trkpt lat="41.6919010" lon="-8.8359740">
        <ele>10.0</ele>
        <time>2021-05-18T05:42:44Z</time>
      </trkpt>
      <trkpt lat="41.6919090" lon="-8.8359940">
        <ele>10.0</ele>
        <time>2021-05-18T05:42:45Z</time>
      </trkpt>
      <trkpt lat="41.6919160" lon="-8.8360130">
        <ele>10.0</ele>
        <time>2021-05-18T05:42:46Z</time>
      </trkpt>
      <trkpt lat="41.6919220" lon="-8.8360250">
        <ele>10.0</ele>
        <time>2021-05-18T05:42:47Z</time>
      </trkpt>
      <trkpt lat="41.6919230" lon="-8.8360410">
        <ele>10.0</ele>
        <time>2021-05-18T05:42:48Z</time>
      </trkpt>
      <trkpt lat="41.6919270" lon="-8.8360570">
        <ele>10.0</ele>
        <time>2021-05-18T05:42:49Z</time>
      </trkpt>
      <trkpt lat="41.6919290" lon="-8.8360750">
        <ele>10.0</ele>
        <time>2021-05-18T05:42:50Z</time>
      </trkpt>
      <trkpt lat="41.6919330" lon="-8.8360960">
        <ele>10.0</ele>
        <time>2021-05-18T05:42:51Z</time>
      </trkpt>
      <trkpt lat="41.6919340" lon="-8.8361070">
        <ele>10.0</ele>
        <time>2021-05-18T05:42:52Z</time>
      </trkpt>
      <trkpt lat="41.6919310" lon="-8.8361250">
        <ele>10.0</ele>
        <time>2021-05-18T05:42:53Z</time>
      </trkpt>
      <trkpt lat="41.6919270" lon="-8.8361340">
        <ele>10.0</ele>
        <time>2021-05-18T05:42:54Z</time>
      </trkpt>
      <trkpt lat="41.6919240" lon="-8.8361380">
        <ele>10.0</ele>
        <time>2021-05-18T05:42:55Z</time>
      </trkpt>
      <trkpt lat="41.6919180" lon="-8.8361570">
        <ele>10.0</ele>
        <time>2021-05-18T05:42:56Z</time>
      </trkpt>
      <trkpt lat="41.6919140" lon="-8.8361730">
        <ele>10.1</ele>
        <time>2021-05-18T05:42:57Z</time>
      </trkpt>
      <trkpt lat="41.6919140" lon="-8.8361810">
        <ele>10.1</ele>
        <time>2021-05-18T05:42:58Z</time>
      </trkpt>
      <trkpt lat="41.6919110" lon="-8.8361820">
        <ele>10.1</ele>
        <time>2021-05-18T05:42:59Z</time>
      </trkpt>
      <trkpt lat="41.6919020" lon="-8.8361970">
        <ele>10.1</ele>
        <time>2021-05-18T05:43:00Z</time>
      </trkpt>
      <trkpt lat="41.6918900" lon="-8.8361980">
        <ele>10.1</ele>
        <time>2021-05-18T05:43:01Z</time>
      </trkpt>
      <trkpt lat="41.6918700" lon="-8.8362070">
        <ele>10.1</ele>
        <time>2021-05-18T05:43:02Z</time>
      </trkpt>
      <trkpt lat="41.6918610" lon="-8.8362190">
        <ele>10.1</ele>
        <time>2021-05-18T05:43:03Z</time>
      </trkpt>
      <trkpt lat="41.6918530" lon="-8.8362300">
        <ele>10.1</ele>
        <time>2021-05-18T05:43:04Z</time>
      </trkpt>
      <trkpt lat="41.6918540" lon="-8.8362470">
        <ele>10.1</ele>
        <time>2021-05-18T05:43:05Z</time>
      </trkpt>
      <trkpt lat="41.6918570" lon="-8.8362580">
        <ele>10.1</ele>
        <time>2021-05-18T05:43:06Z</time>
      </trkpt>
      <trkpt lat="41.6918610" lon="-8.8362700">
        <ele>10.1</ele>
        <time>2021-05-18T05:43:07Z</time>
      </trkpt>
      <trkpt lat="41.6918630" lon="-8.8362880">
        <ele>10.1</ele>
        <time>2021-05-18T05:43:08Z</time>
      </trkpt>
      <trkpt lat="41.6918600" lon="-8.8363030">
        <ele>10.1</ele>
        <time>2021-05-18T05:43:09Z</time>
      </trkpt>
      <trkpt lat="41.6918550" lon="-8.8363190">
        <ele>10.1</ele>
        <time>2021-05-18T05:43:10Z</time>
      </trkpt>
      <trkpt lat="41.6918550" lon="-8.8363320">
        <ele>10.1</ele>
        <time>2021-05-18T05:43:11Z</time>
      </trkpt>
      <trkpt lat="41.6918550" lon="-8.8363520">
        <ele>10.1</ele>
        <time>2021-05-18T05:43:12Z</time>
      </trkpt>
      <trkpt lat="41.6918600" lon="-8.8363620">
        <ele>10.1</ele>
        <time>2021-05-18T05:43:13Z</time>
      </trkpt>
      <trkpt lat="41.6918640" lon="-8.8363850">
        <ele>10.1</ele>
        <time>2021-05-18T05:43:14Z</time>
      </trkpt>
      <trkpt lat="41.6918660" lon="-8.8363980">
        <ele>10.1</ele>
        <time>2021-05-18T05:43:15Z</time>
      </trkpt>
      <trkpt lat="41.6918720" lon="-8.8364010">
        <ele>10.1</ele>
        <time>2021-05-18T05:43:16Z</time>
      </trkpt>
      <trkpt lat="41.6918650" lon="-8.8364200">
        <ele>10.2</ele>
        <time>2021-05-18T05:43:17Z</time>
      </trkpt>
      <trkpt lat="41.6918660" lon="-8.8364380">
        <ele>10.2</ele>
        <time>2021-05-18T05:43:18Z</time>
      </trkpt>
      <trkpt lat="41.6918740" lon="-8.8364530">
        <ele>10.2</ele>
        <time>2021-05-18T05:43:19Z</time>
      </trkpt>
      <trkpt lat="41.6918850" lon="-8.8364760">
        <ele>10.2</ele>
        <time>2021-05-18T05:43:20Z</time>
      </trkpt>
      <trkpt lat="41.6918840" lon="-8.8365110">
        <ele>10.2</ele>
        <time>2021-05-18T05:43:21Z</time>
      </trkpt>
      <trkpt lat="41.6918910" lon="-8.8365170">
        <ele>10.1</ele>
        <time>2021-05-18T05:43:22Z</time>
      </trkpt>
      <trkpt lat="41.6918900" lon="-8.8365530">
        <ele>10.0</ele>
        <time>2021-05-18T05:43:23Z</time>
      </trkpt>
      <trkpt lat="41.6918860" lon="-8.8365680">
        <ele>10.0</ele>
        <time>2021-05-18T05:43:25Z</time>
      </trkpt>
      <trkpt lat="41.6918820" lon="-8.8365830">
        <ele>9.9</ele>
        <time>2021-05-18T05:43:26Z</time>
      </trkpt>
      <trkpt lat="41.6918780" lon="-8.8365980">
        <ele>9.9</ele>
        <time>2021-05-18T05:43:27Z</time>
      </trkpt>
      <trkpt lat="41.6918710" lon="-8.8366250">
        <ele>9.8</ele>
        <time>2021-05-18T05:43:28Z</time>
      </trkpt>
      <trkpt lat="41.6918630" lon="-8.8366370">
        <ele>9.7</ele>
        <time>2021-05-18T05:43:29Z</time>
      </trkpt>
      <trkpt lat="41.6918580" lon="-8.8366600">
        <ele>9.6</ele>
        <time>2021-05-18T05:43:30Z</time>
      </trkpt>
      <trkpt lat="41.6918450" lon="-8.8366700">
        <ele>9.6</ele>
        <time>2021-05-18T05:43:31Z</time>
      </trkpt>
      <trkpt lat="41.6918250" lon="-8.8366890">
        <ele>9.5</ele>
        <time>2021-05-18T05:43:32Z</time>
      </trkpt>
      <trkpt lat="41.6918140" lon="-8.8366960">
        <ele>9.4</ele>
        <time>2021-05-18T05:43:33Z</time>
      </trkpt>
      <trkpt lat="41.6918040" lon="-8.8367030">
        <ele>9.3</ele>
        <time>2021-05-18T05:43:34Z</time>
      </trkpt>
      <trkpt lat="41.6917840" lon="-8.8367140">
        <ele>9.2</ele>
        <time>2021-05-18T05:43:35Z</time>
      </trkpt>
      <trkpt lat="41.6917760" lon="-8.8367160">
        <ele>9.2</ele>
        <time>2021-05-18T05:43:36Z</time>
      </trkpt>
      <trkpt lat="41.6917680" lon="-8.8367190">
        <ele>9.2</ele>
        <time>2021-05-18T05:43:37Z</time>
      </trkpt>
      <trkpt lat="41.6917610" lon="-8.8367150">
        <ele>9.1</ele>
        <time>2021-05-18T05:43:38Z</time>
      </trkpt>
      <trkpt lat="41.6917490" lon="-8.8367140">
        <ele>9.1</ele>
        <time>2021-05-18T05:43:39Z</time>
      </trkpt>
      <trkpt lat="41.6917390" lon="-8.8367150">
        <ele>9.0</ele>
        <time>2021-05-18T05:43:40Z</time>
      </trkpt>
      <trkpt lat="41.6917280" lon="-8.8367090">
        <ele>8.9</ele>
        <time>2021-05-18T05:43:41Z</time>
      </trkpt>
      <trkpt lat="41.6917230" lon="-8.8367130">
        <ele>8.9</ele>
        <time>2021-05-18T05:43:42Z</time>
      </trkpt>
      <trkpt lat="41.6917170" lon="-8.8367120">
        <ele>8.9</ele>
        <time>2021-05-18T05:43:43Z</time>
      </trkpt>
      <trkpt lat="41.6917110" lon="-8.8367100">
        <ele>8.8</ele>
        <time>2021-05-18T05:43:44Z</time>
      </trkpt>
      <trkpt lat="41.6917020" lon="-8.8367160">
        <ele>8.7</ele>
        <time>2021-05-18T05:43:45Z</time>
      </trkpt>
      <trkpt lat="41.6917000" lon="-8.8367290">
        <ele>8.6</ele>
        <time>2021-05-18T05:43:46Z</time>
      </trkpt>
      <trkpt lat="41.6916920" lon="-8.8367490">
        <ele>8.4</ele>
        <time>2021-05-18T05:43:47Z</time>
      </trkpt>
      <trkpt lat="41.6916840" lon="-8.8367720">
        <ele>8.2</ele>
        <time>2021-05-18T05:43:48Z</time>
      </trkpt>
      <trkpt lat="41.6916790" lon="-8.8367910">
        <ele>8.3</ele>
        <time>2021-05-18T05:43:49Z</time>
      </trkpt>
      <trkpt lat="41.6916720" lon="-8.8368170">
        <ele>8.6</ele>
        <time>2021-05-18T05:43:50Z</time>
      </trkpt>
      <trkpt lat="41.6916700" lon="-8.8368340">
        <ele>8.7</ele>
        <time>2021-05-18T05:43:51Z</time>
      </trkpt>
      <trkpt lat="41.6916680" lon="-8.8368490">
        <ele>8.9</ele>
        <time>2021-05-18T05:43:52Z</time>
      </trkpt>
      <trkpt lat="41.6916590" lon="-8.8368670">
        <ele>9.1</ele>
        <time>2021-05-18T05:43:53Z</time>
      </trkpt>
      <trkpt lat="41.6916580" lon="-8.8368860">
        <ele>9.2</ele>
        <time>2021-05-18T05:43:54Z</time>
      </trkpt>
      <trkpt lat="41.6916570" lon="-8.8369050">
        <ele>9.2</ele>
        <time>2021-05-18T05:43:55Z</time>
      </trkpt>
      <trkpt lat="41.6916560" lon="-8.8369250">
        <ele>9.2</ele>
        <time>2021-05-18T05:43:56Z</time>
      </trkpt>
      <trkpt lat="41.6916580" lon="-8.8369460">
        <ele>9.3</ele>
        <time>2021-05-18T05:43:57Z</time>
      </trkpt>
      <trkpt lat="41.6916610" lon="-8.8369670">
        <ele>9.3</ele>
        <time>2021-05-18T05:43:58Z</time>
      </trkpt>
      <trkpt lat="41.6916640" lon="-8.8369880">
        <ele>9.3</ele>
        <time>2021-05-18T05:43:59Z</time>
      </trkpt>
      <trkpt lat="41.6916710" lon="-8.8370060">
        <ele>9.4</ele>
        <time>2021-05-18T05:44:00Z</time>
      </trkpt>
      <trkpt lat="41.6916760" lon="-8.8370230">
        <ele>9.4</ele>
        <time>2021-05-18T05:44:01Z</time>
      </trkpt>
      <trkpt lat="41.6916870" lon="-8.8370400">
        <ele>9.5</ele>
        <time>2021-05-18T05:44:02Z</time>
      </trkpt>
      <trkpt lat="41.6917010" lon="-8.8370550">
        <ele>9.5</ele>
        <time>2021-05-18T05:44:03Z</time>
      </trkpt>
      <trkpt lat="41.6917100" lon="-8.8370710">
        <ele>9.5</ele>
        <time>2021-05-18T05:44:04Z</time>
      </trkpt>
      <trkpt lat="41.6917200" lon="-8.8370870">
        <ele>9.6</ele>
        <time>2021-05-18T05:44:05Z</time>
      </trkpt>
      <trkpt lat="41.6917310" lon="-8.8371010">
        <ele>9.6</ele>
        <time>2021-05-18T05:44:06Z</time>
      </trkpt>
      <trkpt lat="41.6917390" lon="-8.8371170">
        <ele>9.7</ele>
        <time>2021-05-18T05:44:07Z</time>
      </trkpt>
      <trkpt lat="41.6917500" lon="-8.8371290">
        <ele>9.7</ele>
        <time>2021-05-18T05:44:08Z</time>
      </trkpt>
      <trkpt lat="41.6917570" lon="-8.8371440">
        <ele>9.7</ele>
        <time>2021-05-18T05:44:09Z</time>
      </trkpt>
      <trkpt lat="41.6917710" lon="-8.8371770">
        <ele>9.8</ele>
        <time>2021-05-18T05:44:10Z</time>
      </trkpt>
      <trkpt lat="41.6917790" lon="-8.8371950">
        <ele>9.9</ele>
        <time>2021-05-18T05:44:11Z</time>
      </trkpt>
      <trkpt lat="41.6917870" lon="-8.8372100">
        <ele>9.9</ele>
        <time>2021-05-18T05:44:12Z</time>
      </trkpt>
      <trkpt lat="41.6917950" lon="-8.8372390">
        <ele>9.9</ele>
        <time>2021-05-18T05:44:13Z</time>
      </trkpt>
      <trkpt lat="41.6917980" lon="-8.8372500">
        <ele>10.0</ele>
        <time>2021-05-18T05:44:14Z</time>
      </trkpt>
      <trkpt lat="41.6918020" lon="-8.8372620">
        <ele>10.0</ele>
        <time>2021-05-18T05:44:15Z</time>
      </trkpt>
      <trkpt lat="41.6918100" lon="-8.8372770">
        <ele>10.0</ele>
        <time>2021-05-18T05:44:16Z</time>
      </trkpt>
      <trkpt lat="41.6918160" lon="-8.8372940">
        <ele>10.1</ele>
        <time>2021-05-18T05:44:17Z</time>
      </trkpt>
      <trkpt lat="41.6918250" lon="-8.8373210">
        <ele>10.1</ele>
        <time>2021-05-18T05:44:18Z</time>
      </trkpt>
      <trkpt lat="41.6918290" lon="-8.8373320">
        <ele>10.1</ele>
        <time>2021-05-18T05:44:19Z</time>
      </trkpt>
      <trkpt lat="41.6918330" lon="-8.8373420">
        <ele>10.2</ele>
        <time>2021-05-18T05:44:20Z</time>
      </trkpt>
      <trkpt lat="41.6918410" lon="-8.8373580">
        <ele>10.2</ele>
        <time>2021-05-18T05:44:21Z</time>
      </trkpt>
      <trkpt lat="41.6918430" lon="-8.8373760">
        <ele>10.2</ele>
        <time>2021-05-18T05:44:22Z</time>
      </trkpt>
      <trkpt lat="41.6918490" lon="-8.8373940">
        <ele>10.3</ele>
        <time>2021-05-18T05:44:23Z</time>
      </trkpt>
      <trkpt lat="41.6918530" lon="-8.8374100">
        <ele>10.3</ele>
        <time>2021-05-18T05:44:24Z</time>
      </trkpt>
      <trkpt lat="41.6918580" lon="-8.8374270">
        <ele>10.3</ele>
        <time>2021-05-18T05:44:25Z</time>
      </trkpt>
      <trkpt lat="41.6918630" lon="-8.8374450">
        <ele>10.3</ele>
        <time>2021-05-18T05:44:26Z</time>
      </trkpt>
      <trkpt lat="41.6918660" lon="-8.8374740">
        <ele>10.4</ele>
        <time>2021-05-18T05:44:27Z</time>
      </trkpt>
      <trkpt lat="41.6918700" lon="-8.8374850">
        <ele>10.4</ele>
        <time>2021-05-18T05:44:28Z</time>
      </trkpt>
      <trkpt lat="41.6918730" lon="-8.8374960">
        <ele>10.4</ele>
        <time>2021-05-18T05:44:29Z</time>
      </trkpt>
      <trkpt lat="41.6918710" lon="-8.8375160">
        <ele>10.4</ele>
        <time>2021-05-18T05:44:30Z</time>
      </trkpt>
      <trkpt lat="41.6918690" lon="-8.8375350">
        <ele>10.4</ele>
        <time>2021-05-18T05:44:31Z</time>
      </trkpt>
      <trkpt lat="41.6918710" lon="-8.8375520">
        <ele>10.5</ele>
        <time>2021-05-18T05:44:32Z</time>
      </trkpt>
      <trkpt lat="41.6918690" lon="-8.8375710">
        <ele>10.5</ele>
        <time>2021-05-18T05:44:33Z</time>
      </trkpt>
      <trkpt lat="41.6918720" lon="-8.8375890">
        <ele>10.5</ele>
        <time>2021-05-18T05:44:34Z</time>
      </trkpt>
      <trkpt lat="41.6918780" lon="-8.8376070">
        <ele>10.5</ele>
        <time>2021-05-18T05:44:35Z</time>
      </trkpt>
      <trkpt lat="41.6918790" lon="-8.8376250">
        <ele>10.5</ele>
        <time>2021-05-18T05:44:36Z</time>
      </trkpt>
      <trkpt lat="41.6918750" lon="-8.8376440">
        <ele>10.5</ele>
        <time>2021-05-18T05:44:37Z</time>
      </trkpt>
      <trkpt lat="41.6918810" lon="-8.8376730">
        <ele>10.6</ele>
        <time>2021-05-18T05:44:38Z</time>
      </trkpt>
      <trkpt lat="41.6918830" lon="-8.8376840">
        <ele>10.6</ele>
        <time>2021-05-18T05:44:39Z</time>
      </trkpt>
      <trkpt lat="41.6918860" lon="-8.8376950">
        <ele>10.6</ele>
        <time>2021-05-18T05:44:40Z</time>
      </trkpt>
      <trkpt lat="41.6918910" lon="-8.8377230">
        <ele>10.6</ele>
        <time>2021-05-18T05:44:41Z</time>
      </trkpt>
      <trkpt lat="41.6918930" lon="-8.8377330">
        <ele>10.6</ele>
        <time>2021-05-18T05:44:42Z</time>
      </trkpt>
      <trkpt lat="41.6918940" lon="-8.8377440">
        <ele>10.6</ele>
        <time>2021-05-18T05:44:43Z</time>
      </trkpt>
      <trkpt lat="41.6919000" lon="-8.8377740">
        <ele>10.7</ele>
        <time>2021-05-18T05:44:44Z</time>
      </trkpt>
      <trkpt lat="41.6919020" lon="-8.8377850">
        <ele>10.7</ele>
        <time>2021-05-18T05:44:45Z</time>
      </trkpt>
      <trkpt lat="41.6919040" lon="-8.8377970">
        <ele>10.7</ele>
        <time>2021-05-18T05:44:46Z</time>
      </trkpt>
      <trkpt lat="41.6919050" lon="-8.8378160">
        <ele>10.7</ele>
        <time>2021-05-18T05:44:47Z</time>
      </trkpt>
      <trkpt lat="41.6919100" lon="-8.8378330">
        <ele>10.7</ele>
        <time>2021-05-18T05:44:48Z</time>
      </trkpt>
      <trkpt lat="41.6919110" lon="-8.8378600">
        <ele>10.7</ele>
        <time>2021-05-18T05:44:49Z</time>
      </trkpt>
      <trkpt lat="41.6919120" lon="-8.8378720">
        <ele>10.7</ele>
        <time>2021-05-18T05:44:50Z</time>
      </trkpt>
      <trkpt lat="41.6919130" lon="-8.8378830">
        <ele>10.7</ele>
        <time>2021-05-18T05:44:51Z</time>
      </trkpt>
      <trkpt lat="41.6919420" lon="-8.8378830">
        <ele>10.6</ele>
        <time>2021-05-18T05:44:52Z</time>
      </trkpt>
      <trkpt lat="41.6919530" lon="-8.8378770">
        <ele>10.6</ele>
        <time>2021-05-18T05:44:53Z</time>
      </trkpt>
      <trkpt lat="41.6919680" lon="-8.8378640">
        <ele>10.6</ele>
        <time>2021-05-18T05:44:54Z</time>
      </trkpt>
      <trkpt lat="41.6919810" lon="-8.8378570">
        <ele>10.5</ele>
        <time>2021-05-18T05:44:55Z</time>
      </trkpt>
      <trkpt lat="41.6919950" lon="-8.8378550">
        <ele>10.5</ele>
        <time>2021-05-18T05:44:56Z</time>
      </trkpt>
      <trkpt lat="41.6920070" lon="-8.8378470">
        <ele>10.5</ele>
        <time>2021-05-18T05:44:57Z</time>
      </trkpt>
      <trkpt lat="41.6920270" lon="-8.8378390">
        <ele>10.5</ele>
        <time>2021-05-18T05:44:58Z</time>
      </trkpt>
      <trkpt lat="41.6920360" lon="-8.8378400">
        <ele>10.5</ele>
        <time>2021-05-18T05:44:59Z</time>
      </trkpt>
      <trkpt lat="41.6920440" lon="-8.8378400">
        <ele>10.5</ele>
        <time>2021-05-18T05:45:00Z</time>
      </trkpt>
      <trkpt lat="41.6920610" lon="-8.8378560">
        <ele>10.5</ele>
        <time>2021-05-18T05:45:01Z</time>
      </trkpt>
      <trkpt lat="41.6920670" lon="-8.8378650">
        <ele>10.5</ele>
        <time>2021-05-18T05:45:03Z</time>
      </trkpt>
      <trkpt lat="41.6920720" lon="-8.8378740">
        <ele>10.6</ele>
        <time>2021-05-18T05:45:04Z</time>
      </trkpt>
      <trkpt lat="41.6920890" lon="-8.8378920">
        <ele>10.6</ele>
        <time>2021-05-18T05:45:05Z</time>
      </trkpt>
      <trkpt lat="41.6920970" lon="-8.8378950">
        <ele>10.7</ele>
        <time>2021-05-18T05:45:06Z</time>
      </trkpt>
      <trkpt lat="41.6921050" lon="-8.8378990">
        <ele>10.7</ele>
        <time>2021-05-18T05:45:07Z</time>
      </trkpt>
      <trkpt lat="41.6921200" lon="-8.8379000">
        <ele>10.7</ele>
        <time>2021-05-18T05:45:08Z</time>
      </trkpt>
      <trkpt lat="41.6921330" lon="-8.8379070">
        <ele>10.8</ele>
        <time>2021-05-18T05:45:09Z</time>
      </trkpt>
      <trkpt lat="41.6921470" lon="-8.8379100">
        <ele>10.8</ele>
        <time>2021-05-18T05:45:10Z</time>
      </trkpt>
      <trkpt lat="41.6921610" lon="-8.8379120">
        <ele>10.9</ele>
        <time>2021-05-18T05:45:11Z</time>
      </trkpt>
      <trkpt lat="41.6921840" lon="-8.8379170">
        <ele>10.9</ele>
        <time>2021-05-18T05:45:12Z</time>
      </trkpt>
      <trkpt lat="41.6921920" lon="-8.8379180">
        <ele>11.0</ele>
        <time>2021-05-18T05:45:13Z</time>
      </trkpt>
      <trkpt lat="41.6922010" lon="-8.8379200">
        <ele>11.0</ele>
        <time>2021-05-18T05:45:14Z</time>
      </trkpt>
      <trkpt lat="41.6922140" lon="-8.8379140">
        <ele>11.1</ele>
        <time>2021-05-18T05:45:15Z</time>
      </trkpt>
      <trkpt lat="41.6922290" lon="-8.8379200">
        <ele>11.1</ele>
        <time>2021-05-18T05:45:16Z</time>
      </trkpt>
      <trkpt lat="41.6922440" lon="-8.8379190">
        <ele>11.2</ele>
        <time>2021-05-18T05:45:17Z</time>
      </trkpt>
      <trkpt lat="41.6922580" lon="-8.8379220">
        <ele>11.2</ele>
        <time>2021-05-18T05:45:18Z</time>
      </trkpt>
      <trkpt lat="41.6922790" lon="-8.8379240">
        <ele>11.3</ele>
        <time>2021-05-18T05:45:19Z</time>
      </trkpt>
      <trkpt lat="41.6922880" lon="-8.8379240">
        <ele>11.4</ele>
        <time>2021-05-18T05:45:20Z</time>
      </trkpt>
      <trkpt lat="41.6922960" lon="-8.8379250">
        <ele>11.4</ele>
        <time>2021-05-18T05:45:21Z</time>
      </trkpt>
      <trkpt lat="41.6923090" lon="-8.8379250">
        <ele>11.4</ele>
        <time>2021-05-18T05:45:22Z</time>
      </trkpt>
      <trkpt lat="41.6923200" lon="-8.8379290">
        <ele>11.5</ele>
        <time>2021-05-18T05:45:23Z</time>
      </trkpt>
      <trkpt lat="41.6923290" lon="-8.8379310">
        <ele>11.5</ele>
        <time>2021-05-18T05:45:24Z</time>
      </trkpt>
      <trkpt lat="41.6923360" lon="-8.8379320">
        <ele>11.6</ele>
        <time>2021-05-18T05:45:25Z</time>
      </trkpt>
      <trkpt lat="41.6923480" lon="-8.8379340">
        <ele>11.6</ele>
        <time>2021-05-18T05:45:26Z</time>
      </trkpt>
      <trkpt lat="41.6923590" lon="-8.8379310">
        <ele>11.6</ele>
        <time>2021-05-18T05:45:27Z</time>
      </trkpt>
      <trkpt lat="41.6923720" lon="-8.8379320">
        <ele>11.7</ele>
        <time>2021-05-18T05:45:28Z</time>
      </trkpt>
      <trkpt lat="41.6923780" lon="-8.8379290">
        <ele>11.7</ele>
        <time>2021-05-18T05:45:29Z</time>
      </trkpt>
      <trkpt lat="41.6923880" lon="-8.8379280">
        <ele>11.7</ele>
        <time>2021-05-18T05:45:30Z</time>
      </trkpt>
      <trkpt lat="41.6923940" lon="-8.8379290">
        <ele>11.8</ele>
        <time>2021-05-18T05:45:31Z</time>
      </trkpt>
      <trkpt lat="41.6924080" lon="-8.8379340">
        <ele>11.8</ele>
        <time>2021-05-18T05:45:32Z</time>
      </trkpt>
      <trkpt lat="41.6924200" lon="-8.8379390">
        <ele>11.9</ele>
        <time>2021-05-18T05:45:33Z</time>
      </trkpt>
      <trkpt lat="41.6924290" lon="-8.8379470">
        <ele>11.9</ele>
        <time>2021-05-18T05:45:34Z</time>
      </trkpt>
      <trkpt lat="41.6924390" lon="-8.8379470">
        <ele>11.9</ele>
        <time>2021-05-18T05:45:35Z</time>
      </trkpt>
      <trkpt lat="41.6924530" lon="-8.8379560">
        <ele>12.0</ele>
        <time>2021-05-18T05:45:36Z</time>
      </trkpt>
      <trkpt lat="41.6924610" lon="-8.8379610">
        <ele>12.0</ele>
        <time>2021-05-18T05:45:37Z</time>
      </trkpt>
      <trkpt lat="41.6924710" lon="-8.8379640">
        <ele>12.1</ele>
        <time>2021-05-18T05:45:38Z</time>
      </trkpt>
      <trkpt lat="41.6924800" lon="-8.8379640">
        <ele>12.1</ele>
        <time>2021-05-18T05:45:39Z</time>
      </trkpt>
      <trkpt lat="41.6924940" lon="-8.8379730">
        <ele>12.1</ele>
        <time>2021-05-18T05:45:40Z</time>
      </trkpt>
      <trkpt lat="41.6925020" lon="-8.8379820">
        <ele>12.2</ele>
        <time>2021-05-18T05:45:41Z</time>
      </trkpt>
      <trkpt lat="41.6925120" lon="-8.8379870">
        <ele>12.2</ele>
        <time>2021-05-18T05:45:42Z</time>
      </trkpt>
      <trkpt lat="41.6925240" lon="-8.8379990">
        <ele>12.2</ele>
        <time>2021-05-18T05:45:43Z</time>
      </trkpt>
      <trkpt lat="41.6925370" lon="-8.8380080">
        <ele>12.2</ele>
        <time>2021-05-18T05:45:44Z</time>
      </trkpt>
      <trkpt lat="41.6925480" lon="-8.8380160">
        <ele>12.2</ele>
        <time>2021-05-18T05:45:45Z</time>
      </trkpt>
      <trkpt lat="41.6925630" lon="-8.8380290">
        <ele>12.2</ele>
        <time>2021-05-18T05:45:46Z</time>
      </trkpt>
      <trkpt lat="41.6925720" lon="-8.8380420">
        <ele>12.2</ele>
        <time>2021-05-18T05:45:47Z</time>
      </trkpt>
      <trkpt lat="41.6925810" lon="-8.8380540">
        <ele>12.2</ele>
        <time>2021-05-18T05:45:48Z</time>
      </trkpt>
      <trkpt lat="41.6925850" lon="-8.8380640">
        <ele>12.2</ele>
        <time>2021-05-18T05:45:49Z</time>
      </trkpt>
      <trkpt lat="41.6925940" lon="-8.8380790">
        <ele>12.2</ele>
        <time>2021-05-18T05:45:50Z</time>
      </trkpt>
      <trkpt lat="41.6926010" lon="-8.8380970">
        <ele>12.2</ele>
        <time>2021-05-18T05:45:51Z</time>
      </trkpt>
      <trkpt lat="41.6926160" lon="-8.8381120">
        <ele>12.2</ele>
        <time>2021-05-18T05:45:52Z</time>
      </trkpt>
      <trkpt lat="41.6926260" lon="-8.8381260">
        <ele>12.2</ele>
        <time>2021-05-18T05:45:53Z</time>
      </trkpt>
      <trkpt lat="41.6926360" lon="-8.8381450">
        <ele>12.2</ele>
        <time>2021-05-18T05:45:54Z</time>
      </trkpt>
      <trkpt lat="41.6926470" lon="-8.8381600">
        <ele>12.2</ele>
        <time>2021-05-18T05:45:55Z</time>
      </trkpt>
      <trkpt lat="41.6926530" lon="-8.8381780">
        <ele>12.2</ele>
        <time>2021-05-18T05:45:56Z</time>
      </trkpt>
      <trkpt lat="41.6926610" lon="-8.8381940">
        <ele>12.2</ele>
        <time>2021-05-18T05:45:57Z</time>
      </trkpt>
      <trkpt lat="41.6926700" lon="-8.8382090">
        <ele>12.2</ele>
        <time>2021-05-18T05:45:58Z</time>
      </trkpt>
      <trkpt lat="41.6926770" lon="-8.8382260">
        <ele>12.3</ele>
        <time>2021-05-18T05:45:59Z</time>
      </trkpt>
      <trkpt lat="41.6926830" lon="-8.8382450">
        <ele>12.3</ele>
        <time>2021-05-18T05:46:00Z</time>
      </trkpt>
      <trkpt lat="41.6926940" lon="-8.8382630">
        <ele>12.3</ele>
        <time>2021-05-18T05:46:01Z</time>
      </trkpt>
      <trkpt lat="41.6927030" lon="-8.8382770">
        <ele>12.3</ele>
        <time>2021-05-18T05:46:02Z</time>
      </trkpt>
      <trkpt lat="41.6927070" lon="-8.8382990">
        <ele>12.3</ele>
        <time>2021-05-18T05:46:03Z</time>
      </trkpt>
      <trkpt lat="41.6927140" lon="-8.8383170">
        <ele>12.3</ele>
        <time>2021-05-18T05:46:04Z</time>
      </trkpt>
      <trkpt lat="41.6927180" lon="-8.8383370">
        <ele>12.3</ele>
        <time>2021-05-18T05:46:05Z</time>
      </trkpt>
      <trkpt lat="41.6927230" lon="-8.8383580">
        <ele>12.4</ele>
        <time>2021-05-18T05:46:06Z</time>
      </trkpt>
      <trkpt lat="41.6927260" lon="-8.8383790">
        <ele>12.4</ele>
        <time>2021-05-18T05:46:07Z</time>
      </trkpt>
      <trkpt lat="41.6927290" lon="-8.8383970">
        <ele>12.4</ele>
        <time>2021-05-18T05:46:08Z</time>
      </trkpt>
      <trkpt lat="41.6927390" lon="-8.8384140">
        <ele>12.4</ele>
        <time>2021-05-18T05:46:09Z</time>
      </trkpt>
      <trkpt lat="41.6927440" lon="-8.8384330">
        <ele>12.4</ele>
        <time>2021-05-18T05:46:10Z</time>
      </trkpt>
      <trkpt lat="41.6927520" lon="-8.8384490">
        <ele>12.5</ele>
        <time>2021-05-18T05:46:11Z</time>
      </trkpt>
      <trkpt lat="41.6927590" lon="-8.8384600">
        <ele>12.5</ele>
        <time>2021-05-18T05:46:12Z</time>
      </trkpt>
      <trkpt lat="41.6927650" lon="-8.8384630">
        <ele>12.5</ele>
        <time>2021-05-18T05:46:13Z</time>
      </trkpt>
      <trkpt lat="41.6927710" lon="-8.8384770">
        <ele>12.5</ele>
        <time>2021-05-18T05:46:14Z</time>
      </trkpt>
      <trkpt lat="41.6927760" lon="-8.8384850">
        <ele>12.5</ele>
        <time>2021-05-18T05:46:15Z</time>
      </trkpt>
      <trkpt lat="41.6927850" lon="-8.8384910">
        <ele>12.5</ele>
        <time>2021-05-18T05:46:16Z</time>
      </trkpt>
      <trkpt lat="41.6927940" lon="-8.8385050">
        <ele>12.6</ele>
        <time>2021-05-18T05:46:17Z</time>
      </trkpt>
      <trkpt lat="41.6928040" lon="-8.8385170">
        <ele>12.6</ele>
        <time>2021-05-18T05:46:18Z</time>
      </trkpt>
      <trkpt lat="41.6928140" lon="-8.8385320">
        <ele>12.6</ele>
        <time>2021-05-18T05:46:19Z</time>
      </trkpt>
      <trkpt lat="41.6928210" lon="-8.8385480">
        <ele>12.6</ele>
        <time>2021-05-18T05:46:20Z</time>
      </trkpt>
      <trkpt lat="41.6928220" lon="-8.8385520">
        <ele>12.6</ele>
        <time>2021-05-18T05:46:21Z</time>
      </trkpt>
      <trkpt lat="41.6928190" lon="-8.8385500">
        <ele>12.6</ele>
        <time>2021-05-18T05:46:22Z</time>
      </trkpt>
      <trkpt lat="41.6928160" lon="-8.8385500">
        <ele>12.7</ele>
        <time>2021-05-18T05:46:23Z</time>
      </trkpt>
      <trkpt lat="41.6928170" lon="-8.8385530">
        <ele>12.7</ele>
        <time>2021-05-18T05:46:24Z</time>
      </trkpt>
      <trkpt lat="41.6928190" lon="-8.8385590">
        <ele>12.7</ele>
        <time>2021-05-18T05:46:25Z</time>
      </trkpt>
      <trkpt lat="41.6928200" lon="-8.8385560">
        <ele>12.7</ele>
        <time>2021-05-18T05:46:26Z</time>
      </trkpt>
      <trkpt lat="41.6928220" lon="-8.8385630">
        <ele>12.7</ele>
        <time>2021-05-18T05:46:27Z</time>
      </trkpt>
      <trkpt lat="41.6928260" lon="-8.8385700">
        <ele>12.7</ele>
        <time>2021-05-18T05:46:28Z</time>
      </trkpt>
      <trkpt lat="41.6928240" lon="-8.8385680">
        <ele>12.7</ele>
        <time>2021-05-18T05:46:29Z</time>
      </trkpt>
      <trkpt lat="41.6928320" lon="-8.8385710">
        <ele>12.7</ele>
        <time>2021-05-18T05:46:30Z</time>
      </trkpt>
      <trkpt lat="41.6928360" lon="-8.8385720">
        <ele>12.7</ele>
        <time>2021-05-18T05:46:31Z</time>
      </trkpt>
      <trkpt lat="41.6928390" lon="-8.8385760">
        <ele>12.7</ele>
        <time>2021-05-18T05:46:32Z</time>
      </trkpt>
      <trkpt lat="41.6928420" lon="-8.8385810">
        <ele>12.7</ele>
        <time>2021-05-18T05:46:33Z</time>
      </trkpt>
      <trkpt lat="41.6928470" lon="-8.8385890">
        <ele>12.7</ele>
        <time>2021-05-18T05:46:34Z</time>
      </trkpt>
      <trkpt lat="41.6928460" lon="-8.8385910">
        <ele>12.7</ele>
        <time>2021-05-18T05:46:35Z</time>
      </trkpt>
      <trkpt lat="41.6928450" lon="-8.8385870">
        <ele>12.7</ele>
        <time>2021-05-18T05:46:36Z</time>
      </trkpt>
      <trkpt lat="41.6928450" lon="-8.8385900">
        <ele>12.8</ele>
        <time>2021-05-18T05:46:37Z</time>
      </trkpt>
      <trkpt lat="41.6928440" lon="-8.8385980">
        <ele>12.8</ele>
        <time>2021-05-18T05:46:38Z</time>
      </trkpt>
      <trkpt lat="41.6928450" lon="-8.8385900">
        <ele>12.8</ele>
        <time>2021-05-18T05:46:39Z</time>
      </trkpt>
      <trkpt lat="41.6928460" lon="-8.8385820">
        <ele>12.8</ele>
        <time>2021-05-18T05:46:40Z</time>
      </trkpt>
      <trkpt lat="41.6928490" lon="-8.8385880">
        <ele>12.8</ele>
        <time>2021-05-18T05:46:41Z</time>
      </trkpt>
      <trkpt lat="41.6928460" lon="-8.8385800">
        <ele>12.8</ele>
        <time>2021-05-18T05:46:42Z</time>
      </trkpt>
      <trkpt lat="41.6928430" lon="-8.8385730">
        <ele>12.8</ele>
        <time>2021-05-18T05:46:43Z</time>
      </trkpt>
      <trkpt lat="41.6928410" lon="-8.8385650">
        <ele>12.8</ele>
        <time>2021-05-18T05:46:44Z</time>
      </trkpt>
      <trkpt lat="41.6928380" lon="-8.8385550">
        <ele>12.8</ele>
        <time>2021-05-18T05:46:45Z</time>
      </trkpt>
      <trkpt lat="41.6928410" lon="-8.8385560">
        <ele>12.8</ele>
        <time>2021-05-18T05:46:46Z</time>
      </trkpt>
      <trkpt lat="41.6928450" lon="-8.8385590">
        <ele>12.9</ele>
        <time>2021-05-18T05:46:47Z</time>
      </trkpt>
      <trkpt lat="41.6928500" lon="-8.8385620">
        <ele>12.9</ele>
        <time>2021-05-18T05:46:48Z</time>
      </trkpt>
      <trkpt lat="41.6928540" lon="-8.8385650">
        <ele>12.9</ele>
        <time>2021-05-18T05:46:49Z</time>
      </trkpt>
      <trkpt lat="41.6928580" lon="-8.8385690">
        <ele>12.9</ele>
        <time>2021-05-18T05:46:50Z</time>
      </trkpt>
      <trkpt lat="41.6928620" lon="-8.8385720">
        <ele>12.9</ele>
        <time>2021-05-18T05:46:51Z</time>
      </trkpt>
      <trkpt lat="41.6928670" lon="-8.8385750">
        <ele>12.9</ele>
        <time>2021-05-18T05:46:52Z</time>
      </trkpt>
      <trkpt lat="41.6928710" lon="-8.8385780">
        <ele>12.9</ele>
        <time>2021-05-18T05:46:53Z</time>
      </trkpt>
      <trkpt lat="41.6928750" lon="-8.8385810">
        <ele>12.9</ele>
        <time>2021-05-18T05:46:54Z</time>
      </trkpt>
      <trkpt lat="41.6928800" lon="-8.8385900">
        <ele>12.9</ele>
        <time>2021-05-18T05:46:55Z</time>
      </trkpt>
      <trkpt lat="41.6928800" lon="-8.8385900">
        <ele>12.9</ele>
        <time>2021-05-18T05:46:56Z</time>
      </trkpt>
      <trkpt lat="41.6928810" lon="-8.8385910">
        <ele>12.9</ele>
        <time>2021-05-18T05:46:57Z</time>
      </trkpt>
      <trkpt lat="41.6928810" lon="-8.8385920">
        <ele>12.9</ele>
        <time>2021-05-18T05:46:58Z</time>
      </trkpt>
      <trkpt lat="41.6928820" lon="-8.8385920">
        <ele>12.9</ele>
        <time>2021-05-18T05:46:59Z</time>
      </trkpt>
      <trkpt lat="41.6928830" lon="-8.8385930">
        <ele>12.9</ele>
        <time>2021-05-18T05:47:00Z</time>
      </trkpt>
      <trkpt lat="41.6928830" lon="-8.8385940">
        <ele>12.9</ele>
        <time>2021-05-18T05:47:01Z</time>
      </trkpt>
      <trkpt lat="41.6928840" lon="-8.8385940">
        <ele>12.9</ele>
        <time>2021-05-18T05:47:02Z</time>
      </trkpt>
      <trkpt lat="41.6928840" lon="-8.8385950">
        <ele>12.9</ele>
        <time>2021-05-18T05:47:03Z</time>
      </trkpt>
      <trkpt lat="41.6928850" lon="-8.8385960">
        <ele>12.9</ele>
        <time>2021-05-18T05:47:04Z</time>
      </trkpt>
      <trkpt lat="41.6928860" lon="-8.8385960">
        <ele>12.9</ele>
        <time>2021-05-18T05:47:05Z</time>
      </trkpt>
      <trkpt lat="41.6928860" lon="-8.8385970">
        <ele>12.9</ele>
        <time>2021-05-18T05:47:06Z</time>
      </trkpt>
      <trkpt lat="41.6928870" lon="-8.8385980">
        <ele>12.9</ele>
        <time>2021-05-18T05:47:07Z</time>
      </trkpt>
      <trkpt lat="41.6928880" lon="-8.8385980">
        <ele>12.9</ele>
        <time>2021-05-18T05:47:08Z</time>
      </trkpt>
      <trkpt lat="41.6928880" lon="-8.8385990">
        <ele>12.9</ele>
        <time>2021-05-18T05:47:09Z</time>
      </trkpt>
      <trkpt lat="41.6928890" lon="-8.8386000">
        <ele>13.0</ele>
        <time>2021-05-18T05:47:10Z</time>
      </trkpt>
      <trkpt lat="41.6928890" lon="-8.8386000">
        <ele>13.0</ele>
        <time>2021-05-18T05:47:11Z</time>
      </trkpt>
      <trkpt lat="41.6928900" lon="-8.8386010">
        <ele>13.0</ele>
        <time>2021-05-18T05:47:12Z</time>
      </trkpt>
      <trkpt lat="41.6928910" lon="-8.8386020">
        <ele>13.0</ele>
        <time>2021-05-18T05:47:13Z</time>
      </trkpt>
      <trkpt lat="41.6928910" lon="-8.8386020">
        <ele>13.0</ele>
        <time>2021-05-18T05:47:14Z</time>
      </trkpt>
      <trkpt lat="41.6928920" lon="-8.8386030">
        <ele>13.0</ele>
        <time>2021-05-18T05:47:15Z</time>
      </trkpt>
      <trkpt lat="41.6928920" lon="-8.8386030">
        <ele>13.0</ele>
        <time>2021-05-18T05:47:16Z</time>
      </trkpt>
      <trkpt lat="41.6928930" lon="-8.8386040">
        <ele>13.0</ele>
        <time>2021-05-18T05:47:17Z</time>
      </trkpt>
      <trkpt lat="41.6928940" lon="-8.8386050">
        <ele>13.0</ele>
        <time>2021-05-18T05:47:18Z</time>
      </trkpt>
      <trkpt lat="41.6928940" lon="-8.8386050">
        <ele>13.0</ele>
        <time>2021-05-18T05:47:19Z</time>
      </trkpt>
      <trkpt lat="41.6928950" lon="-8.8386060">
        <ele>13.0</ele>
        <time>2021-05-18T05:47:20Z</time>
      </trkpt>
      <trkpt lat="41.6928950" lon="-8.8386070">
        <ele>13.0</ele>
        <time>2021-05-18T05:47:21Z</time>
      </trkpt>
      <trkpt lat="41.6928960" lon="-8.8386070">
        <ele>13.0</ele>
        <time>2021-05-18T05:47:22Z</time>
      </trkpt>
      <trkpt lat="41.6928970" lon="-8.8386080">
        <ele>13.0</ele>
        <time>2021-05-18T05:47:23Z</time>
      </trkpt>
      <trkpt lat="41.6928970" lon="-8.8386090">
        <ele>13.0</ele>
        <time>2021-05-18T05:47:24Z</time>
      </trkpt>
      <trkpt lat="41.6928980" lon="-8.8386090">
        <ele>13.0</ele>
        <time>2021-05-18T05:47:25Z</time>
      </trkpt>
      <trkpt lat="41.6928990" lon="-8.8386100">
        <ele>13.0</ele>
        <time>2021-05-18T05:47:26Z</time>
      </trkpt>
      <trkpt lat="41.6928990" lon="-8.8386110">
        <ele>13.0</ele>
        <time>2021-05-18T05:47:27Z</time>
      </trkpt>
      <trkpt lat="41.6929000" lon="-8.8386110">
        <ele>13.0</ele>
        <time>2021-05-18T05:47:28Z</time>
      </trkpt>
      <trkpt lat="41.6929000" lon="-8.8386120">
        <ele>13.0</ele>
        <time>2021-05-18T05:47:29Z</time>
      </trkpt>
      <trkpt lat="41.6929010" lon="-8.8386130">
        <ele>13.0</ele>
        <time>2021-05-18T05:47:30Z</time>
      </trkpt>
      <trkpt lat="41.6929020" lon="-8.8386130">
        <ele>13.0</ele>
        <time>2021-05-18T05:47:31Z</time>
      </trkpt>
      <trkpt lat="41.6929020" lon="-8.8386140">
        <ele>13.0</ele>
        <time>2021-05-18T05:47:32Z</time>
      </trkpt>
      <trkpt lat="41.6929030" lon="-8.8386150">
        <ele>13.0</ele>
        <time>2021-05-18T05:47:33Z</time>
      </trkpt>
      <trkpt lat="41.6929030" lon="-8.8386150">
        <ele>13.0</ele>
        <time>2021-05-18T05:47:34Z</time>
      </trkpt>
      <trkpt lat="41.6929040" lon="-8.8386160">
        <ele>13.0</ele>
        <time>2021-05-18T05:47:35Z</time>
      </trkpt>
      <trkpt lat="41.6929110" lon="-8.8386320">
        <ele>12.6</ele>
        <time>2021-05-18T05:47:36Z</time>
      </trkpt>
      <trkpt lat="41.6929040" lon="-8.8386330">
        <ele>12.6</ele>
        <time>2021-05-18T05:47:37Z</time>
      </trkpt>
      <trkpt lat="41.6929050" lon="-8.8386410">
        <ele>12.6</ele>
        <time>2021-05-18T05:47:38Z</time>
      </trkpt>
      <trkpt lat="41.6929100" lon="-8.8386470">
        <ele>12.6</ele>
        <time>2021-05-18T05:47:39Z</time>
      </trkpt>
      <trkpt lat="41.6929240" lon="-8.8386530">
        <ele>12.6</ele>
        <time>2021-05-18T05:47:40Z</time>
      </trkpt>
      <trkpt lat="41.6929340" lon="-8.8386710">
        <ele>12.5</ele>
        <time>2021-05-18T05:47:41Z</time>
      </trkpt>
      <trkpt lat="41.6929360" lon="-8.8386840">
        <ele>12.5</ele>
        <time>2021-05-18T05:47:42Z</time>
      </trkpt>
      <trkpt lat="41.6929370" lon="-8.8386970">
        <ele>12.5</ele>
        <time>2021-05-18T05:47:43Z</time>
      </trkpt>
      <trkpt lat="41.6929380" lon="-8.8387100">
        <ele>12.5</ele>
        <time>2021-05-18T05:47:44Z</time>
      </trkpt>
      <trkpt lat="41.6929380" lon="-8.8387290">
        <ele>12.5</ele>
        <time>2021-05-18T05:47:45Z</time>
      </trkpt>
      <trkpt lat="41.6929370" lon="-8.8387370">
        <ele>12.5</ele>
        <time>2021-05-18T05:47:46Z</time>
      </trkpt>
      <trkpt lat="41.6929360" lon="-8.8387560">
        <ele>12.5</ele>
        <time>2021-05-18T05:47:47Z</time>
      </trkpt>
      <trkpt lat="41.6929300" lon="-8.8387850">
        <ele>12.4</ele>
        <time>2021-05-18T05:47:48Z</time>
      </trkpt>
      <trkpt lat="41.6929250" lon="-8.8387970">
        <ele>12.4</ele>
        <time>2021-05-18T05:47:49Z</time>
      </trkpt>
      <trkpt lat="41.6929210" lon="-8.8388080">
        <ele>12.4</ele>
        <time>2021-05-18T05:47:50Z</time>
      </trkpt>
      <trkpt lat="41.6929080" lon="-8.8388180">
        <ele>12.4</ele>
        <time>2021-05-18T05:47:51Z</time>
      </trkpt>
      <trkpt lat="41.6928990" lon="-8.8388420">
        <ele>12.3</ele>
        <time>2021-05-18T05:47:52Z</time>
      </trkpt>
      <trkpt lat="41.6928880" lon="-8.8388540">
        <ele>12.3</ele>
        <time>2021-05-18T05:47:53Z</time>
      </trkpt>
      <trkpt lat="41.6928730" lon="-8.8388680">
        <ele>12.3</ele>
        <time>2021-05-18T05:47:54Z</time>
      </trkpt>
      <trkpt lat="41.6928590" lon="-8.8388810">
        <ele>12.3</ele>
        <time>2021-05-18T05:47:55Z</time>
      </trkpt>
      <trkpt lat="41.6928510" lon="-8.8388880">
        <ele>12.3</ele>
        <time>2021-05-18T05:47:56Z</time>
      </trkpt>
      <trkpt lat="41.6928420" lon="-8.8388960">
        <ele>12.3</ele>
        <time>2021-05-18T05:47:57Z</time>
      </trkpt>
      <trkpt lat="41.6928320" lon="-8.8389160">
        <ele>12.3</ele>
        <time>2021-05-18T05:47:58Z</time>
      </trkpt>
      <trkpt lat="41.6928210" lon="-8.8389280">
        <ele>12.5</ele>
        <time>2021-05-18T05:47:59Z</time>
      </trkpt>
      <trkpt lat="41.6928110" lon="-8.8389400">
        <ele>12.5</ele>
        <time>2021-05-18T05:48:00Z</time>
      </trkpt>
      <trkpt lat="41.6928020" lon="-8.8389590">
        <ele>12.5</ele>
        <time>2021-05-18T05:48:01Z</time>
      </trkpt>
      <trkpt lat="41.6927970" lon="-8.8389820">
        <ele>12.6</ele>
        <time>2021-05-18T05:48:02Z</time>
      </trkpt>
      <trkpt lat="41.6927960" lon="-8.8390030">
        <ele>12.6</ele>
        <time>2021-05-18T05:48:03Z</time>
      </trkpt>
      <trkpt lat="41.6927980" lon="-8.8390250">
        <ele>12.6</ele>
        <time>2021-05-18T05:48:04Z</time>
      </trkpt>
      <trkpt lat="41.6927980" lon="-8.8390480">
        <ele>12.6</ele>
        <time>2021-05-18T05:48:05Z</time>
      </trkpt>
      <trkpt lat="41.6927980" lon="-8.8390670">
        <ele>12.6</ele>
        <time>2021-05-18T05:48:06Z</time>
      </trkpt>
      <trkpt lat="41.6927990" lon="-8.8390870">
        <ele>12.6</ele>
        <time>2021-05-18T05:48:07Z</time>
      </trkpt>
      <trkpt lat="41.6927970" lon="-8.8391080">
        <ele>12.6</ele>
        <time>2021-05-18T05:48:08Z</time>
      </trkpt>
      <trkpt lat="41.6927960" lon="-8.8391290">
        <ele>12.6</ele>
        <time>2021-05-18T05:48:09Z</time>
      </trkpt>
      <trkpt lat="41.6927950" lon="-8.8391500">
        <ele>12.6</ele>
        <time>2021-05-18T05:48:10Z</time>
      </trkpt>
      <trkpt lat="41.6927970" lon="-8.8391710">
        <ele>12.6</ele>
        <time>2021-05-18T05:48:11Z</time>
      </trkpt>
      <trkpt lat="41.6927970" lon="-8.8391920">
        <ele>12.6</ele>
        <time>2021-05-18T05:48:12Z</time>
      </trkpt>
      <trkpt lat="41.6927960" lon="-8.8392120">
        <ele>12.7</ele>
        <time>2021-05-18T05:48:13Z</time>
      </trkpt>
      <trkpt lat="41.6928000" lon="-8.8392320">
        <ele>12.7</ele>
        <time>2021-05-18T05:48:14Z</time>
      </trkpt>
      <trkpt lat="41.6927950" lon="-8.8392520">
        <ele>12.7</ele>
        <time>2021-05-18T05:48:15Z</time>
      </trkpt>
      <trkpt lat="41.6927940" lon="-8.8392720">
        <ele>12.7</ele>
        <time>2021-05-18T05:48:16Z</time>
      </trkpt>
      <trkpt lat="41.6927930" lon="-8.8392910">
        <ele>12.7</ele>
        <time>2021-05-18T05:48:17Z</time>
      </trkpt>
      <trkpt lat="41.6927960" lon="-8.8393120">
        <ele>12.7</ele>
        <time>2021-05-18T05:48:18Z</time>
      </trkpt>
      <trkpt lat="41.6928020" lon="-8.8393320">
        <ele>12.7</ele>
        <time>2021-05-18T05:48:19Z</time>
      </trkpt>
      <trkpt lat="41.6928010" lon="-8.8393500">
        <ele>12.7</ele>
        <time>2021-05-18T05:48:20Z</time>
      </trkpt>
      <trkpt lat="41.6928010" lon="-8.8393700">
        <ele>12.7</ele>
        <time>2021-05-18T05:48:21Z</time>
      </trkpt>
      <trkpt lat="41.6928080" lon="-8.8394070">
        <ele>12.7</ele>
        <time>2021-05-18T05:48:22Z</time>
      </trkpt>
      <trkpt lat="41.6928060" lon="-8.8394250">
        <ele>12.7</ele>
        <time>2021-05-18T05:48:23Z</time>
      </trkpt>
      <trkpt lat="41.6928090" lon="-8.8394450">
        <ele>12.7</ele>
        <time>2021-05-18T05:48:24Z</time>
      </trkpt>
      <trkpt lat="41.6928130" lon="-8.8394640">
        <ele>12.7</ele>
        <time>2021-05-18T05:48:25Z</time>
      </trkpt>
      <trkpt lat="41.6928130" lon="-8.8394850">
        <ele>12.7</ele>
        <time>2021-05-18T05:48:26Z</time>
      </trkpt>
      <trkpt lat="41.6928110" lon="-8.8395060">
        <ele>12.7</ele>
        <time>2021-05-18T05:48:27Z</time>
      </trkpt>
      <trkpt lat="41.6928120" lon="-8.8395260">
        <ele>12.7</ele>
        <time>2021-05-18T05:48:28Z</time>
      </trkpt>
      <trkpt lat="41.6928160" lon="-8.8395440">
        <ele>12.6</ele>
        <time>2021-05-18T05:48:29Z</time>
      </trkpt>
      <trkpt lat="41.6928170" lon="-8.8395620">
        <ele>12.6</ele>
        <time>2021-05-18T05:48:30Z</time>
      </trkpt>
      <trkpt lat="41.6928290" lon="-8.8396030">
        <ele>12.6</ele>
        <time>2021-05-18T05:48:32Z</time>
      </trkpt>
      <trkpt lat="41.6928330" lon="-8.8396110">
        <ele>12.6</ele>
        <time>2021-05-18T05:48:33Z</time>
      </trkpt>
      <trkpt lat="41.6928390" lon="-8.8396120">
        <ele>12.6</ele>
        <time>2021-05-18T05:48:34Z</time>
      </trkpt>
      <trkpt lat="41.6928340" lon="-8.8396110">
        <ele>12.6</ele>
        <time>2021-05-18T05:48:35Z</time>
      </trkpt>
      <trkpt lat="41.6928460" lon="-8.8396200">
        <ele>12.6</ele>
        <time>2021-05-18T05:48:36Z</time>
      </trkpt>
      <trkpt lat="41.6928470" lon="-8.8396270">
        <ele>12.6</ele>
        <time>2021-05-18T05:48:37Z</time>
      </trkpt>
      <trkpt lat="41.6928490" lon="-8.8396460">
        <ele>12.6</ele>
        <time>2021-05-18T05:48:38Z</time>
      </trkpt>
      <trkpt lat="41.6928480" lon="-8.8396590">
        <ele>12.6</ele>
        <time>2021-05-18T05:48:39Z</time>
      </trkpt>
      <trkpt lat="41.6928500" lon="-8.8396820">
        <ele>12.6</ele>
        <time>2021-05-18T05:48:40Z</time>
      </trkpt>
      <trkpt lat="41.6928480" lon="-8.8397060">
        <ele>12.5</ele>
        <time>2021-05-18T05:48:41Z</time>
      </trkpt>
      <trkpt lat="41.6928480" lon="-8.8397200">
        <ele>12.5</ele>
        <time>2021-05-18T05:48:42Z</time>
      </trkpt>
      <trkpt lat="41.6928480" lon="-8.8397330">
        <ele>12.5</ele>
        <time>2021-05-18T05:48:43Z</time>
      </trkpt>
      <trkpt lat="41.6928450" lon="-8.8397560">
        <ele>12.5</ele>
        <time>2021-05-18T05:48:44Z</time>
      </trkpt>
      <trkpt lat="41.6928480" lon="-8.8397710">
        <ele>12.5</ele>
        <time>2021-05-18T05:48:45Z</time>
      </trkpt>
      <trkpt lat="41.6928450" lon="-8.8397940">
        <ele>12.5</ele>
        <time>2021-05-18T05:48:46Z</time>
      </trkpt>
      <trkpt lat="41.6928460" lon="-8.8398110">
        <ele>12.5</ele>
        <time>2021-05-18T05:48:47Z</time>
      </trkpt>
      <trkpt lat="41.6928440" lon="-8.8398290">
        <ele>12.4</ele>
        <time>2021-05-18T05:48:48Z</time>
      </trkpt>
      <trkpt lat="41.6928490" lon="-8.8398470">
        <ele>12.4</ele>
        <time>2021-05-18T05:48:49Z</time>
      </trkpt>
      <trkpt lat="41.6928510" lon="-8.8398710">
        <ele>12.4</ele>
        <time>2021-05-18T05:48:50Z</time>
      </trkpt>
      <trkpt lat="41.6928510" lon="-8.8398840">
        <ele>12.4</ele>
        <time>2021-05-18T05:48:51Z</time>
      </trkpt>
      <trkpt lat="41.6928520" lon="-8.8398960">
        <ele>12.4</ele>
        <time>2021-05-18T05:48:52Z</time>
      </trkpt>
      <trkpt lat="41.6928530" lon="-8.8399240">
        <ele>12.4</ele>
        <time>2021-05-18T05:48:53Z</time>
      </trkpt>
      <trkpt lat="41.6928550" lon="-8.8399360">
        <ele>12.3</ele>
        <time>2021-05-18T05:48:54Z</time>
      </trkpt>
      <trkpt lat="41.6928560" lon="-8.8399470">
        <ele>12.3</ele>
        <time>2021-05-18T05:48:55Z</time>
      </trkpt>
      <trkpt lat="41.6928600" lon="-8.8399800">
        <ele>12.3</ele>
        <time>2021-05-18T05:48:56Z</time>
      </trkpt>
      <trkpt lat="41.6928630" lon="-8.8399870">
        <ele>12.3</ele>
        <time>2021-05-18T05:48:58Z</time>
      </trkpt>
      <trkpt lat="41.6928670" lon="-8.8399950">
        <ele>12.3</ele>
        <time>2021-05-18T05:48:59Z</time>
      </trkpt>
      <trkpt lat="41.6928710" lon="-8.8400180">
        <ele>12.3</ele>
        <time>2021-05-18T05:49:00Z</time>
      </trkpt>
      <trkpt lat="41.6928850" lon="-8.8400360">
        <ele>12.2</ele>
        <time>2021-05-18T05:49:01Z</time>
      </trkpt>
      <trkpt lat="41.6928960" lon="-8.8400620">
        <ele>12.2</ele>
        <time>2021-05-18T05:49:02Z</time>
      </trkpt>
      <trkpt lat="41.6929000" lon="-8.8400690">
        <ele>12.2</ele>
        <time>2021-05-18T05:49:03Z</time>
      </trkpt>
      <trkpt lat="41.6929050" lon="-8.8400770">
        <ele>12.2</ele>
        <time>2021-05-18T05:49:04Z</time>
      </trkpt>
      <trkpt lat="41.6929180" lon="-8.8400940">
        <ele>12.2</ele>
        <time>2021-05-18T05:49:05Z</time>
      </trkpt>
      <trkpt lat="41.6929250" lon="-8.8401040">
        <ele>12.2</ele>
        <time>2021-05-18T05:49:06Z</time>
      </trkpt>
      <trkpt lat="41.6929320" lon="-8.8401130">
        <ele>12.2</ele>
        <time>2021-05-18T05:49:07Z</time>
      </trkpt>
      <trkpt lat="41.6929330" lon="-8.8401320">
        <ele>12.1</ele>
        <time>2021-05-18T05:49:08Z</time>
      </trkpt>
      <trkpt lat="41.6929310" lon="-8.8401470">
        <ele>12.1</ele>
        <time>2021-05-18T05:49:09Z</time>
      </trkpt>
      <trkpt lat="41.6929260" lon="-8.8401560">
        <ele>12.1</ele>
        <time>2021-05-18T05:49:10Z</time>
      </trkpt>
      <trkpt lat="41.6929200" lon="-8.8401780">
        <ele>12.1</ele>
        <time>2021-05-18T05:49:11Z</time>
      </trkpt>
      <trkpt lat="41.6929170" lon="-8.8401930">
        <ele>12.1</ele>
        <time>2021-05-18T05:49:12Z</time>
      </trkpt>
      <trkpt lat="41.6929130" lon="-8.8402070">
        <ele>12.1</ele>
        <time>2021-05-18T05:49:13Z</time>
      </trkpt>
      <trkpt lat="41.6929030" lon="-8.8402290">
        <ele>12.0</ele>
        <time>2021-05-18T05:49:14Z</time>
      </trkpt>
      <trkpt lat="41.6928970" lon="-8.8402380">
        <ele>12.0</ele>
        <time>2021-05-18T05:49:15Z</time>
      </trkpt>
      <trkpt lat="41.6928900" lon="-8.8402470">
        <ele>12.0</ele>
        <time>2021-05-18T05:49:16Z</time>
      </trkpt>
      <trkpt lat="41.6928830" lon="-8.8402560">
        <ele>12.0</ele>
        <time>2021-05-18T05:49:17Z</time>
      </trkpt>
      <trkpt lat="41.6928820" lon="-8.8402660">
        <ele>12.0</ele>
        <time>2021-05-18T05:49:18Z</time>
      </trkpt>
      <trkpt lat="41.6928890" lon="-8.8402750">
        <ele>12.0</ele>
        <time>2021-05-18T05:49:19Z</time>
      </trkpt>
      <trkpt lat="41.6929000" lon="-8.8402850">
        <ele>11.9</ele>
        <time>2021-05-18T05:49:20Z</time>
      </trkpt>
      <trkpt lat="41.6929000" lon="-8.8403000">
        <ele>11.9</ele>
        <time>2021-05-18T05:49:21Z</time>
      </trkpt>
      <trkpt lat="41.6929040" lon="-8.8403190">
        <ele>11.9</ele>
        <time>2021-05-18T05:49:22Z</time>
      </trkpt>
      <trkpt lat="41.6929040" lon="-8.8403250">
        <ele>11.9</ele>
        <time>2021-05-18T05:49:23Z</time>
      </trkpt>
      <trkpt lat="41.6929150" lon="-8.8403460">
        <ele>11.9</ele>
        <time>2021-05-18T05:49:24Z</time>
      </trkpt>
      <trkpt lat="41.6929190" lon="-8.8403560">
        <ele>11.8</ele>
        <time>2021-05-18T05:49:25Z</time>
      </trkpt>
      <trkpt lat="41.6929240" lon="-8.8403660">
        <ele>11.9</ele>
        <time>2021-05-18T05:49:26Z</time>
      </trkpt>
      <trkpt lat="41.6929210" lon="-8.8403730">
        <ele>11.9</ele>
        <time>2021-05-18T05:49:27Z</time>
      </trkpt>
      <trkpt lat="41.6929230" lon="-8.8403880">
        <ele>11.8</ele>
        <time>2021-05-18T05:49:28Z</time>
      </trkpt>
      <trkpt lat="41.6929330" lon="-8.8404090">
        <ele>11.8</ele>
        <time>2021-05-18T05:49:29Z</time>
      </trkpt>
      <trkpt lat="41.6929390" lon="-8.8404260">
        <ele>11.8</ele>
        <time>2021-05-18T05:49:30Z</time>
      </trkpt>
      <trkpt lat="41.6929410" lon="-8.8404360">
        <ele>11.8</ele>
        <time>2021-05-18T05:49:31Z</time>
      </trkpt>
      <trkpt lat="41.6929400" lon="-8.8404480">
        <ele>11.7</ele>
        <time>2021-05-18T05:49:32Z</time>
      </trkpt>
      <trkpt lat="41.6929410" lon="-8.8404610">
        <ele>11.7</ele>
        <time>2021-05-18T05:49:33Z</time>
      </trkpt>
      <trkpt lat="41.6929460" lon="-8.8404810">
        <ele>11.7</ele>
        <time>2021-05-18T05:49:34Z</time>
      </trkpt>
      <trkpt lat="41.6929490" lon="-8.8404950">
        <ele>11.7</ele>
        <time>2021-05-18T05:49:35Z</time>
      </trkpt>
      <trkpt lat="41.6929490" lon="-8.8405130">
        <ele>11.6</ele>
        <time>2021-05-18T05:49:36Z</time>
      </trkpt>
      <trkpt lat="41.6929480" lon="-8.8405330">
        <ele>11.6</ele>
        <time>2021-05-18T05:49:37Z</time>
      </trkpt>
      <trkpt lat="41.6929500" lon="-8.8405610">
        <ele>11.6</ele>
        <time>2021-05-18T05:49:38Z</time>
      </trkpt>
      <trkpt lat="41.6929520" lon="-8.8405730">
        <ele>11.6</ele>
        <time>2021-05-18T05:49:39Z</time>
      </trkpt>
      <trkpt lat="41.6929530" lon="-8.8405840">
        <ele>11.5</ele>
        <time>2021-05-18T05:49:40Z</time>
      </trkpt>
      <trkpt lat="41.6929510" lon="-8.8406050">
        <ele>11.5</ele>
        <time>2021-05-18T05:49:41Z</time>
      </trkpt>
      <trkpt lat="41.6929500" lon="-8.8406300">
        <ele>11.5</ele>
        <time>2021-05-18T05:49:42Z</time>
      </trkpt>
      <trkpt lat="41.6929490" lon="-8.8406660">
        <ele>11.4</ele>
        <time>2021-05-18T05:49:43Z</time>
      </trkpt>
      <trkpt lat="41.6929420" lon="-8.8406740">
        <ele>11.4</ele>
        <time>2021-05-18T05:49:44Z</time>
      </trkpt>
      <trkpt lat="41.6929400" lon="-8.8406970">
        <ele>11.3</ele>
        <time>2021-05-18T05:49:45Z</time>
      </trkpt>
      <trkpt lat="41.6929420" lon="-8.8407100">
        <ele>11.3</ele>
        <time>2021-05-18T05:49:46Z</time>
      </trkpt>
      <trkpt lat="41.6929430" lon="-8.8407360">
        <ele>11.3</ele>
        <time>2021-05-18T05:49:47Z</time>
      </trkpt>
      <trkpt lat="41.6929420" lon="-8.8407580">
        <ele>11.2</ele>
        <time>2021-05-18T05:49:48Z</time>
      </trkpt>
      <trkpt lat="41.6929440" lon="-8.8407720">
        <ele>11.2</ele>
        <time>2021-05-18T05:49:49Z</time>
      </trkpt>
      <trkpt lat="41.6929410" lon="-8.8407960">
        <ele>11.2</ele>
        <time>2021-05-18T05:49:50Z</time>
      </trkpt>
      <trkpt lat="41.6929460" lon="-8.8408210">
        <ele>11.1</ele>
        <time>2021-05-18T05:49:51Z</time>
      </trkpt>
      <trkpt lat="41.6929460" lon="-8.8408360">
        <ele>11.1</ele>
        <time>2021-05-18T05:49:52Z</time>
      </trkpt>
      <trkpt lat="41.6929500" lon="-8.8408610">
        <ele>11.1</ele>
        <time>2021-05-18T05:49:53Z</time>
      </trkpt>
      <trkpt lat="41.6929520" lon="-8.8408780">
        <ele>11.0</ele>
        <time>2021-05-18T05:49:54Z</time>
      </trkpt>
      <trkpt lat="41.6929550" lon="-8.8408940">
        <ele>11.0</ele>
        <time>2021-05-18T05:49:55Z</time>
      </trkpt>
      <trkpt lat="41.6929590" lon="-8.8409200">
        <ele>10.9</ele>
        <time>2021-05-18T05:49:56Z</time>
      </trkpt>
      <trkpt lat="41.6929580" lon="-8.8409370">
        <ele>10.9</ele>
        <time>2021-05-18T05:49:57Z</time>
      </trkpt>
      <trkpt lat="41.6929560" lon="-8.8409590">
        <ele>10.9</ele>
        <time>2021-05-18T05:49:58Z</time>
      </trkpt>
      <trkpt lat="41.6929560" lon="-8.8409810">
        <ele>10.8</ele>
        <time>2021-05-18T05:49:59Z</time>
      </trkpt>
      <trkpt lat="41.6929560" lon="-8.8410150">
        <ele>10.8</ele>
        <time>2021-05-18T05:50:00Z</time>
      </trkpt>
      <trkpt lat="41.6929580" lon="-8.8410250">
        <ele>10.8</ele>
        <time>2021-05-18T05:50:01Z</time>
      </trkpt>
      <trkpt lat="41.6929600" lon="-8.8410340">
        <ele>10.7</ele>
        <time>2021-05-18T05:50:02Z</time>
      </trkpt>
      <trkpt lat="41.6929660" lon="-8.8410620">
        <ele>10.7</ele>
        <time>2021-05-18T05:50:03Z</time>
      </trkpt>
      <trkpt lat="41.6929670" lon="-8.8410790">
        <ele>10.7</ele>
        <time>2021-05-18T05:50:04Z</time>
      </trkpt>
      <trkpt lat="41.6929580" lon="-8.8411140">
        <ele>10.6</ele>
        <time>2021-05-18T05:50:05Z</time>
      </trkpt>
      <trkpt lat="41.6929610" lon="-8.8411280">
        <ele>10.6</ele>
        <time>2021-05-18T05:50:06Z</time>
      </trkpt>
      <trkpt lat="41.6929630" lon="-8.8411430">
        <ele>10.6</ele>
        <time>2021-05-18T05:50:07Z</time>
      </trkpt>
      <trkpt lat="41.6929620" lon="-8.8411720">
        <ele>10.5</ele>
        <time>2021-05-18T05:50:08Z</time>
      </trkpt>
      <trkpt lat="41.6929620" lon="-8.8411850">
        <ele>10.5</ele>
        <time>2021-05-18T05:50:09Z</time>
      </trkpt>
      <trkpt lat="41.6929630" lon="-8.8411970">
        <ele>10.5</ele>
        <time>2021-05-18T05:50:10Z</time>
      </trkpt>
      <trkpt lat="41.6929570" lon="-8.8412120">
        <ele>10.5</ele>
        <time>2021-05-18T05:50:11Z</time>
      </trkpt>
      <trkpt lat="41.6929600" lon="-8.8412320">
        <ele>10.4</ele>
        <time>2021-05-18T05:50:12Z</time>
      </trkpt>
      <trkpt lat="41.6929590" lon="-8.8412440">
        <ele>10.4</ele>
        <time>2021-05-18T05:50:13Z</time>
      </trkpt>
      <trkpt lat="41.6929630" lon="-8.8412630">
        <ele>10.4</ele>
        <time>2021-05-18T05:50:14Z</time>
      </trkpt>
      <trkpt lat="41.6929650" lon="-8.8412800">
        <ele>10.4</ele>
        <time>2021-05-18T05:50:15Z</time>
      </trkpt>
      <trkpt lat="41.6929660" lon="-8.8413050">
        <ele>10.3</ele>
        <time>2021-05-18T05:50:16Z</time>
      </trkpt>
      <trkpt lat="41.6929620" lon="-8.8413250">
        <ele>10.3</ele>
        <time>2021-05-18T05:50:17Z</time>
      </trkpt>
      <trkpt lat="41.6929610" lon="-8.8413510">
        <ele>10.3</ele>
        <time>2021-05-18T05:50:18Z</time>
      </trkpt>
      <trkpt lat="41.6929580" lon="-8.8413560">
        <ele>10.3</ele>
        <time>2021-05-18T05:50:19Z</time>
      </trkpt>
      <trkpt lat="41.6929530" lon="-8.8413690">
        <ele>10.2</ele>
        <time>2021-05-18T05:50:20Z</time>
      </trkpt>
      <trkpt lat="41.6929610" lon="-8.8413960">
        <ele>10.2</ele>
        <time>2021-05-18T05:50:21Z</time>
      </trkpt>
      <trkpt lat="41.6929610" lon="-8.8414120">
        <ele>10.2</ele>
        <time>2021-05-18T05:50:22Z</time>
      </trkpt>
      <trkpt lat="41.6929620" lon="-8.8414250">
        <ele>10.2</ele>
        <time>2021-05-18T05:50:23Z</time>
      </trkpt>
      <trkpt lat="41.6929620" lon="-8.8414390">
        <ele>10.2</ele>
        <time>2021-05-18T05:50:24Z</time>
      </trkpt>
      <trkpt lat="41.6929630" lon="-8.8414560">
        <ele>10.1</ele>
        <time>2021-05-18T05:50:25Z</time>
      </trkpt>
      <trkpt lat="41.6929630" lon="-8.8414730">
        <ele>10.1</ele>
        <time>2021-05-18T05:50:26Z</time>
      </trkpt>
      <trkpt lat="41.6929660" lon="-8.8414970">
        <ele>10.1</ele>
        <time>2021-05-18T05:50:27Z</time>
      </trkpt>
      <trkpt lat="41.6929700" lon="-8.8415090">
        <ele>10.1</ele>
        <time>2021-05-18T05:50:28Z</time>
      </trkpt>
      <trkpt lat="41.6929740" lon="-8.8415230">
        <ele>10.1</ele>
        <time>2021-05-18T05:50:29Z</time>
      </trkpt>
      <trkpt lat="41.6929750" lon="-8.8415370">
        <ele>10.0</ele>
        <time>2021-05-18T05:50:30Z</time>
      </trkpt>
      <trkpt lat="41.6929820" lon="-8.8415630">
        <ele>10.0</ele>
        <time>2021-05-18T05:50:31Z</time>
      </trkpt>
      <trkpt lat="41.6929850" lon="-8.8415770">
        <ele>10.0</ele>
        <time>2021-05-18T05:50:32Z</time>
      </trkpt>
      <trkpt lat="41.6929880" lon="-8.8415900">
        <ele>10.0</ele>
        <time>2021-05-18T05:50:33Z</time>
      </trkpt>
      <trkpt lat="41.6929870" lon="-8.8416020">
        <ele>9.9</ele>
        <time>2021-05-18T05:50:34Z</time>
      </trkpt>
      <trkpt lat="41.6929930" lon="-8.8416180">
        <ele>9.9</ele>
        <time>2021-05-18T05:50:35Z</time>
      </trkpt>
      <trkpt lat="41.6929950" lon="-8.8416340">
        <ele>9.9</ele>
        <time>2021-05-18T05:50:36Z</time>
      </trkpt>
      <trkpt lat="41.6929970" lon="-8.8416480">
        <ele>9.9</ele>
        <time>2021-05-18T05:50:37Z</time>
      </trkpt>
      <trkpt lat="41.6929920" lon="-8.8416660">
        <ele>9.9</ele>
        <time>2021-05-18T05:50:38Z</time>
      </trkpt>
      <trkpt lat="41.6929940" lon="-8.8416790">
        <ele>9.8</ele>
        <time>2021-05-18T05:50:39Z</time>
      </trkpt>
      <trkpt lat="41.6929970" lon="-8.8417090">
        <ele>9.8</ele>
        <time>2021-05-18T05:50:40Z</time>
      </trkpt>
      <trkpt lat="41.6930000" lon="-8.8417210">
        <ele>9.8</ele>
        <time>2021-05-18T05:50:41Z</time>
      </trkpt>
      <trkpt lat="41.6930020" lon="-8.8417340">
        <ele>9.8</ele>
        <time>2021-05-18T05:50:42Z</time>
      </trkpt>
      <trkpt lat="41.6930090" lon="-8.8417570">
        <ele>9.7</ele>
        <time>2021-05-18T05:50:43Z</time>
      </trkpt>
      <trkpt lat="41.6930120" lon="-8.8417710">
        <ele>9.7</ele>
        <time>2021-05-18T05:50:44Z</time>
      </trkpt>
      <trkpt lat="41.6930140" lon="-8.8417850">
        <ele>9.7</ele>
        <time>2021-05-18T05:50:45Z</time>
      </trkpt>
      <trkpt lat="41.6930120" lon="-8.8418010">
        <ele>9.7</ele>
        <time>2021-05-18T05:50:46Z</time>
      </trkpt>
      <trkpt lat="41.6930150" lon="-8.8418300">
        <ele>9.6</ele>
        <time>2021-05-18T05:50:47Z</time>
      </trkpt>
      <trkpt lat="41.6930190" lon="-8.8418570">
        <ele>9.6</ele>
        <time>2021-05-18T05:50:48Z</time>
      </trkpt>
      <trkpt lat="41.6930190" lon="-8.8418690">
        <ele>9.6</ele>
        <time>2021-05-18T05:50:49Z</time>
      </trkpt>
      <trkpt lat="41.6930180" lon="-8.8418800">
        <ele>9.5</ele>
        <time>2021-05-18T05:50:50Z</time>
      </trkpt>
      <trkpt lat="41.6930190" lon="-8.8419080">
        <ele>9.5</ele>
        <time>2021-05-18T05:50:51Z</time>
      </trkpt>
      <trkpt lat="41.6930190" lon="-8.8419190">
        <ele>9.5</ele>
        <time>2021-05-18T05:50:52Z</time>
      </trkpt>
      <trkpt lat="41.6930200" lon="-8.8419300">
        <ele>9.5</ele>
        <time>2021-05-18T05:50:53Z</time>
      </trkpt>
      <trkpt lat="41.6930200" lon="-8.8419570">
        <ele>9.4</ele>
        <time>2021-05-18T05:50:54Z</time>
      </trkpt>
      <trkpt lat="41.6930210" lon="-8.8419690">
        <ele>9.4</ele>
        <time>2021-05-18T05:50:55Z</time>
      </trkpt>
      <trkpt lat="41.6930220" lon="-8.8419950">
        <ele>9.4</ele>
        <time>2021-05-18T05:50:56Z</time>
      </trkpt>
      <trkpt lat="41.6930240" lon="-8.8420170">
        <ele>9.3</ele>
        <time>2021-05-18T05:50:57Z</time>
      </trkpt>
      <trkpt lat="41.6930250" lon="-8.8420330">
        <ele>9.3</ele>
        <time>2021-05-18T05:50:58Z</time>
      </trkpt>
      <trkpt lat="41.6930250" lon="-8.8420570">
        <ele>9.3</ele>
        <time>2021-05-18T05:50:59Z</time>
      </trkpt>
      <trkpt lat="41.6930280" lon="-8.8420850">
        <ele>9.2</ele>
        <time>2021-05-18T05:51:00Z</time>
      </trkpt>
      <trkpt lat="41.6930280" lon="-8.8421000">
        <ele>9.2</ele>
        <time>2021-05-18T05:51:01Z</time>
      </trkpt>
      <trkpt lat="41.6930290" lon="-8.8421140">
        <ele>9.2</ele>
        <time>2021-05-18T05:51:02Z</time>
      </trkpt>
      <trkpt lat="41.6930280" lon="-8.8421530">
        <ele>9.1</ele>
        <time>2021-05-18T05:51:03Z</time>
      </trkpt>
      <trkpt lat="41.6930280" lon="-8.8421630">
        <ele>9.1</ele>
        <time>2021-05-18T05:51:04Z</time>
      </trkpt>
      <trkpt lat="41.6930340" lon="-8.8421900">
        <ele>9.1</ele>
        <time>2021-05-18T05:51:05Z</time>
      </trkpt>
      <trkpt lat="41.6930340" lon="-8.8422030">
        <ele>9.1</ele>
        <time>2021-05-18T05:51:06Z</time>
      </trkpt>
      <trkpt lat="41.6930330" lon="-8.8422170">
        <ele>9.0</ele>
        <time>2021-05-18T05:51:07Z</time>
      </trkpt>
      <trkpt lat="41.6930360" lon="-8.8422420">
        <ele>9.0</ele>
        <time>2021-05-18T05:51:08Z</time>
      </trkpt>
      <trkpt lat="41.6930370" lon="-8.8422560">
        <ele>9.0</ele>
        <time>2021-05-18T05:51:09Z</time>
      </trkpt>
      <trkpt lat="41.6930370" lon="-8.8422690">
        <ele>9.0</ele>
        <time>2021-05-18T05:51:10Z</time>
      </trkpt>
      <trkpt lat="41.6930410" lon="-8.8422850">
        <ele>8.9</ele>
        <time>2021-05-18T05:51:11Z</time>
      </trkpt>
      <trkpt lat="41.6930450" lon="-8.8422980">
        <ele>8.9</ele>
        <time>2021-05-18T05:51:12Z</time>
      </trkpt>
      <trkpt lat="41.6930400" lon="-8.8423060">
        <ele>8.9</ele>
        <time>2021-05-18T05:51:13Z</time>
      </trkpt>
      <trkpt lat="41.6930420" lon="-8.8423290">
        <ele>8.9</ele>
        <time>2021-05-18T05:51:14Z</time>
      </trkpt>
      <trkpt lat="41.6930400" lon="-8.8423450">
        <ele>8.8</ele>
        <time>2021-05-18T05:51:15Z</time>
      </trkpt>
      <trkpt lat="41.6930390" lon="-8.8423590">
        <ele>8.8</ele>
        <time>2021-05-18T05:51:16Z</time>
      </trkpt>
      <trkpt lat="41.6930380" lon="-8.8423700">
        <ele>8.8</ele>
        <time>2021-05-18T05:51:17Z</time>
      </trkpt>
      <trkpt lat="41.6930390" lon="-8.8423910">
        <ele>8.8</ele>
        <time>2021-05-18T05:51:18Z</time>
      </trkpt>
      <trkpt lat="41.6930400" lon="-8.8424170">
        <ele>8.7</ele>
        <time>2021-05-18T05:51:19Z</time>
      </trkpt>
      <trkpt lat="41.6930430" lon="-8.8424290">
        <ele>8.7</ele>
        <time>2021-05-18T05:51:20Z</time>
      </trkpt>
      <trkpt lat="41.6930450" lon="-8.8424400">
        <ele>8.7</ele>
        <time>2021-05-18T05:51:21Z</time>
      </trkpt>
      <trkpt lat="41.6930500" lon="-8.8424600">
        <ele>8.7</ele>
        <time>2021-05-18T05:51:22Z</time>
      </trkpt>
      <trkpt lat="41.6930520" lon="-8.8424820">
        <ele>8.6</ele>
        <time>2021-05-18T05:51:23Z</time>
      </trkpt>
      <trkpt lat="41.6930530" lon="-8.8424980">
        <ele>8.6</ele>
        <time>2021-05-18T05:51:24Z</time>
      </trkpt>
      <trkpt lat="41.6930530" lon="-8.8425220">
        <ele>8.6</ele>
        <time>2021-05-18T05:51:25Z</time>
      </trkpt>
      <trkpt lat="41.6930570" lon="-8.8425360">
        <ele>8.6</ele>
        <time>2021-05-18T05:51:26Z</time>
      </trkpt>
      <trkpt lat="41.6930580" lon="-8.8425510">
        <ele>8.5</ele>
        <time>2021-05-18T05:51:27Z</time>
      </trkpt>
      <trkpt lat="41.6930640" lon="-8.8425670">
        <ele>8.5</ele>
        <time>2021-05-18T05:51:28Z</time>
      </trkpt>
      <trkpt lat="41.6930650" lon="-8.8425830">
        <ele>8.5</ele>
        <time>2021-05-18T05:51:29Z</time>
      </trkpt>
      <trkpt lat="41.6930650" lon="-8.8426080">
        <ele>8.5</ele>
        <time>2021-05-18T05:51:30Z</time>
      </trkpt>
      <trkpt lat="41.6930640" lon="-8.8426360">
        <ele>8.4</ele>
        <time>2021-05-18T05:51:31Z</time>
      </trkpt>
      <trkpt lat="41.6930650" lon="-8.8426490">
        <ele>8.4</ele>
        <time>2021-05-18T05:51:32Z</time>
      </trkpt>
      <trkpt lat="41.6930660" lon="-8.8426620">
        <ele>8.4</ele>
        <time>2021-05-18T05:51:33Z</time>
      </trkpt>
      <trkpt lat="41.6930670" lon="-8.8426710">
        <ele>8.4</ele>
        <time>2021-05-18T05:51:34Z</time>
      </trkpt>
      <trkpt lat="41.6930700" lon="-8.8426780">
        <ele>8.4</ele>
        <time>2021-05-18T05:51:35Z</time>
      </trkpt>
      <trkpt lat="41.6930770" lon="-8.8427000">
        <ele>8.3</ele>
        <time>2021-05-18T05:51:36Z</time>
      </trkpt>
      <trkpt lat="41.6930730" lon="-8.8427110">
        <ele>8.3</ele>
        <time>2021-05-18T05:51:37Z</time>
      </trkpt>
      <trkpt lat="41.6930800" lon="-8.8427230">
        <ele>8.3</ele>
        <time>2021-05-18T05:51:38Z</time>
      </trkpt>
      <trkpt lat="41.6930760" lon="-8.8427360">
        <ele>8.3</ele>
        <time>2021-05-18T05:51:39Z</time>
      </trkpt>
      <trkpt lat="41.6930780" lon="-8.8427480">
        <ele>8.3</ele>
        <time>2021-05-18T05:51:40Z</time>
      </trkpt>
      <trkpt lat="41.6930750" lon="-8.8427740">
        <ele>8.2</ele>
        <time>2021-05-18T05:51:41Z</time>
      </trkpt>
      <trkpt lat="41.6930750" lon="-8.8427870">
        <ele>8.2</ele>
        <time>2021-05-18T05:51:42Z</time>
      </trkpt>
      <trkpt lat="41.6930740" lon="-8.8427990">
        <ele>8.2</ele>
        <time>2021-05-18T05:51:43Z</time>
      </trkpt>
      <trkpt lat="41.6930730" lon="-8.8428120">
        <ele>8.2</ele>
        <time>2021-05-18T05:51:44Z</time>
      </trkpt>
      <trkpt lat="41.6930720" lon="-8.8428320">
        <ele>8.2</ele>
        <time>2021-05-18T05:51:45Z</time>
      </trkpt>
      <trkpt lat="41.6930680" lon="-8.8428400">
        <ele>8.2</ele>
        <time>2021-05-18T05:51:46Z</time>
      </trkpt>
      <trkpt lat="41.6930710" lon="-8.8428550">
        <ele>8.1</ele>
        <time>2021-05-18T05:51:47Z</time>
      </trkpt>
      <trkpt lat="41.6930800" lon="-8.8428820">
        <ele>8.1</ele>
        <time>2021-05-18T05:51:48Z</time>
      </trkpt>
      <trkpt lat="41.6930840" lon="-8.8428950">
        <ele>8.1</ele>
        <time>2021-05-18T05:51:49Z</time>
      </trkpt>
      <trkpt lat="41.6930880" lon="-8.8429090">
        <ele>8.1</ele>
        <time>2021-05-18T05:51:50Z</time>
      </trkpt>
      <trkpt lat="41.6930930" lon="-8.8429330">
        <ele>8.1</ele>
        <time>2021-05-18T05:51:51Z</time>
      </trkpt>
      <trkpt lat="41.6930930" lon="-8.8429460">
        <ele>8.0</ele>
        <time>2021-05-18T05:51:52Z</time>
      </trkpt>
      <trkpt lat="41.6930940" lon="-8.8429580">
        <ele>8.0</ele>
        <time>2021-05-18T05:51:53Z</time>
      </trkpt>
      <trkpt lat="41.6930950" lon="-8.8429760">
        <ele>8.0</ele>
        <time>2021-05-18T05:51:54Z</time>
      </trkpt>
      <trkpt lat="41.6930950" lon="-8.8430010">
        <ele>8.0</ele>
        <time>2021-05-18T05:51:55Z</time>
      </trkpt>
      <trkpt lat="41.6930950" lon="-8.8430420">
        <ele>8.0</ele>
        <time>2021-05-18T05:51:56Z</time>
      </trkpt>
      <trkpt lat="41.6930950" lon="-8.8430540">
        <ele>8.0</ele>
        <time>2021-05-18T05:51:57Z</time>
      </trkpt>
      <trkpt lat="41.6931040" lon="-8.8430920">
        <ele>7.9</ele>
        <time>2021-05-18T05:51:58Z</time>
      </trkpt>
      <trkpt lat="41.6931040" lon="-8.8431060">
        <ele>7.9</ele>
        <time>2021-05-18T05:51:59Z</time>
      </trkpt>
      <trkpt lat="41.6931020" lon="-8.8431380">
        <ele>7.9</ele>
        <time>2021-05-18T05:52:00Z</time>
      </trkpt>
      <trkpt lat="41.6931030" lon="-8.8431460">
        <ele>7.9</ele>
        <time>2021-05-18T05:52:01Z</time>
      </trkpt>
      <trkpt lat="41.6931040" lon="-8.8431550">
        <ele>7.9</ele>
        <time>2021-05-18T05:52:02Z</time>
      </trkpt>
      <trkpt lat="41.6931010" lon="-8.8431810">
        <ele>7.8</ele>
        <time>2021-05-18T05:52:03Z</time>
      </trkpt>
      <trkpt lat="41.6931040" lon="-8.8431920">
        <ele>7.8</ele>
        <time>2021-05-18T05:52:04Z</time>
      </trkpt>
      <trkpt lat="41.6931060" lon="-8.8432040">
        <ele>7.7</ele>
        <time>2021-05-18T05:52:05Z</time>
      </trkpt>
      <trkpt lat="41.6931090" lon="-8.8432210">
        <ele>7.7</ele>
        <time>2021-05-18T05:52:06Z</time>
      </trkpt>
      <trkpt lat="41.6931100" lon="-8.8432420">
        <ele>7.7</ele>
        <time>2021-05-18T05:52:07Z</time>
      </trkpt>
      <trkpt lat="41.6931160" lon="-8.8432600">
        <ele>7.7</ele>
        <time>2021-05-18T05:52:08Z</time>
      </trkpt>
      <trkpt lat="41.6931200" lon="-8.8432810">
        <ele>7.7</ele>
        <time>2021-05-18T05:52:09Z</time>
      </trkpt>
      <trkpt lat="41.6931190" lon="-8.8433060">
        <ele>7.7</ele>
        <time>2021-05-18T05:52:10Z</time>
      </trkpt>
      <trkpt lat="41.6931180" lon="-8.8433220">
        <ele>7.6</ele>
        <time>2021-05-18T05:52:11Z</time>
      </trkpt>
      <trkpt lat="41.6931170" lon="-8.8433380">
        <ele>7.6</ele>
        <time>2021-05-18T05:52:12Z</time>
      </trkpt>
      <trkpt lat="41.6931130" lon="-8.8433530">
        <ele>7.6</ele>
        <time>2021-05-18T05:52:13Z</time>
      </trkpt>
      <trkpt lat="41.6931160" lon="-8.8433690">
        <ele>7.6</ele>
        <time>2021-05-18T05:52:14Z</time>
      </trkpt>
      <trkpt lat="41.6931180" lon="-8.8433850">
        <ele>7.6</ele>
        <time>2021-05-18T05:52:15Z</time>
      </trkpt>
      <trkpt lat="41.6931230" lon="-8.8433990">
        <ele>7.6</ele>
        <time>2021-05-18T05:52:16Z</time>
      </trkpt>
      <trkpt lat="41.6931230" lon="-8.8434070">
        <ele>7.6</ele>
        <time>2021-05-18T05:52:17Z</time>
      </trkpt>
      <trkpt lat="41.6931260" lon="-8.8434200">
        <ele>7.6</ele>
        <time>2021-05-18T05:52:18Z</time>
      </trkpt>
      <trkpt lat="41.6931260" lon="-8.8434260">
        <ele>7.6</ele>
        <time>2021-05-18T05:52:19Z</time>
      </trkpt>
      <trkpt lat="41.6931300" lon="-8.8434590">
        <ele>7.5</ele>
        <time>2021-05-18T05:52:20Z</time>
      </trkpt>
      <trkpt lat="41.6931380" lon="-8.8434880">
        <ele>7.5</ele>
        <time>2021-05-18T05:52:21Z</time>
      </trkpt>
      <trkpt lat="41.6931390" lon="-8.8435000">
        <ele>7.5</ele>
        <time>2021-05-18T05:52:22Z</time>
      </trkpt>
      <trkpt lat="41.6931410" lon="-8.8435130">
        <ele>7.5</ele>
        <time>2021-05-18T05:52:23Z</time>
      </trkpt>
      <trkpt lat="41.6931350" lon="-8.8435490">
        <ele>7.4</ele>
        <time>2021-05-18T05:52:24Z</time>
      </trkpt>
      <trkpt lat="41.6931370" lon="-8.8435590">
        <ele>7.4</ele>
        <time>2021-05-18T05:52:25Z</time>
      </trkpt>
      <trkpt lat="41.6931380" lon="-8.8435690">
        <ele>7.4</ele>
        <time>2021-05-18T05:52:26Z</time>
      </trkpt>
      <trkpt lat="41.6931400" lon="-8.8436030">
        <ele>7.4</ele>
        <time>2021-05-18T05:52:27Z</time>
      </trkpt>
      <trkpt lat="41.6931390" lon="-8.8436170">
        <ele>7.4</ele>
        <time>2021-05-18T05:52:28Z</time>
      </trkpt>
      <trkpt lat="41.6931390" lon="-8.8436300">
        <ele>7.4</ele>
        <time>2021-05-18T05:52:29Z</time>
      </trkpt>
      <trkpt lat="41.6931310" lon="-8.8436670">
        <ele>7.3</ele>
        <time>2021-05-18T05:52:30Z</time>
      </trkpt>
      <trkpt lat="41.6931230" lon="-8.8437080">
        <ele>7.3</ele>
        <time>2021-05-18T05:52:31Z</time>
      </trkpt>
      <trkpt lat="41.6931220" lon="-8.8437200">
        <ele>7.3</ele>
        <time>2021-05-18T05:52:32Z</time>
      </trkpt>
      <trkpt lat="41.6931240" lon="-8.8437330">
        <ele>7.3</ele>
        <time>2021-05-18T05:52:33Z</time>
      </trkpt>
      <trkpt lat="41.6931240" lon="-8.8437500">
        <ele>7.3</ele>
        <time>2021-05-18T05:52:34Z</time>
      </trkpt>
      <trkpt lat="41.6931230" lon="-8.8437650">
        <ele>7.3</ele>
        <time>2021-05-18T05:52:35Z</time>
      </trkpt>
      <trkpt lat="41.6931320" lon="-8.8437830">
        <ele>7.2</ele>
        <time>2021-05-18T05:52:36Z</time>
      </trkpt>
      <trkpt lat="41.6931340" lon="-8.8437990">
        <ele>7.2</ele>
        <time>2021-05-18T05:52:37Z</time>
      </trkpt>
      <trkpt lat="41.6931420" lon="-8.8438180">
        <ele>7.2</ele>
        <time>2021-05-18T05:52:38Z</time>
      </trkpt>
      <trkpt lat="41.6931350" lon="-8.8438370">
        <ele>7.2</ele>
        <time>2021-05-18T05:52:39Z</time>
      </trkpt>
      <trkpt lat="41.6931320" lon="-8.8438520">
        <ele>7.2</ele>
        <time>2021-05-18T05:52:40Z</time>
      </trkpt>
      <trkpt lat="41.6931290" lon="-8.8438790">
        <ele>7.1</ele>
        <time>2021-05-18T05:52:41Z</time>
      </trkpt>
      <trkpt lat="41.6931280" lon="-8.8439130">
        <ele>7.1</ele>
        <time>2021-05-18T05:52:42Z</time>
      </trkpt>
      <trkpt lat="41.6931250" lon="-8.8439270">
        <ele>7.1</ele>
        <time>2021-05-18T05:52:43Z</time>
      </trkpt>
      <trkpt lat="41.6931220" lon="-8.8439400">
        <ele>7.1</ele>
        <time>2021-05-18T05:52:44Z</time>
      </trkpt>
      <trkpt lat="41.6931260" lon="-8.8439650">
        <ele>7.1</ele>
        <time>2021-05-18T05:52:45Z</time>
      </trkpt>
      <trkpt lat="41.6931260" lon="-8.8439750">
        <ele>7.0</ele>
        <time>2021-05-18T05:52:46Z</time>
      </trkpt>
      <trkpt lat="41.6931260" lon="-8.8439860">
        <ele>7.0</ele>
        <time>2021-05-18T05:52:47Z</time>
      </trkpt>
      <trkpt lat="41.6931260" lon="-8.8439960">
        <ele>7.0</ele>
        <time>2021-05-18T05:52:48Z</time>
      </trkpt>
      <trkpt lat="41.6931210" lon="-8.8440100">
        <ele>7.0</ele>
        <time>2021-05-18T05:52:49Z</time>
      </trkpt>
      <trkpt lat="41.6931190" lon="-8.8440300">
        <ele>7.0</ele>
        <time>2021-05-18T05:52:50Z</time>
      </trkpt>
      <trkpt lat="41.6931160" lon="-8.8440380">
        <ele>7.0</ele>
        <time>2021-05-18T05:52:51Z</time>
      </trkpt>
      <trkpt lat="41.6931240" lon="-8.8440580">
        <ele>7.0</ele>
        <time>2021-05-18T05:52:52Z</time>
      </trkpt>
      <trkpt lat="41.6931270" lon="-8.8440760">
        <ele>6.9</ele>
        <time>2021-05-18T05:52:53Z</time>
      </trkpt>
      <trkpt lat="41.6931310" lon="-8.8441050">
        <ele>6.9</ele>
        <time>2021-05-18T05:52:54Z</time>
      </trkpt>
      <trkpt lat="41.6931310" lon="-8.8441170">
        <ele>6.9</ele>
        <time>2021-05-18T05:52:55Z</time>
      </trkpt>
      <trkpt lat="41.6931310" lon="-8.8441290">
        <ele>6.9</ele>
        <time>2021-05-18T05:52:56Z</time>
      </trkpt>
      <trkpt lat="41.6931350" lon="-8.8441520">
        <ele>6.9</ele>
        <time>2021-05-18T05:52:57Z</time>
      </trkpt>
      <trkpt lat="41.6931380" lon="-8.8441630">
        <ele>6.9</ele>
        <time>2021-05-18T05:52:58Z</time>
      </trkpt>
      <trkpt lat="41.6931410" lon="-8.8441750">
        <ele>6.9</ele>
        <time>2021-05-18T05:52:59Z</time>
      </trkpt>
      <trkpt lat="41.6931400" lon="-8.8441930">
        <ele>6.9</ele>
        <time>2021-05-18T05:53:00Z</time>
      </trkpt>
      <trkpt lat="41.6931410" lon="-8.8442140">
        <ele>6.9</ele>
        <time>2021-05-18T05:53:01Z</time>
      </trkpt>
      <trkpt lat="41.6931430" lon="-8.8442240">
        <ele>6.9</ele>
        <time>2021-05-18T05:53:02Z</time>
      </trkpt>
      <trkpt lat="41.6931530" lon="-8.8442520">
        <ele>6.8</ele>
        <time>2021-05-18T05:53:03Z</time>
      </trkpt>
      <trkpt lat="41.6931620" lon="-8.8442740">
        <ele>6.8</ele>
        <time>2021-05-18T05:53:04Z</time>
      </trkpt>
      <trkpt lat="41.6931680" lon="-8.8442880">
        <ele>6.8</ele>
        <time>2021-05-18T05:53:05Z</time>
      </trkpt>
      <trkpt lat="41.6931730" lon="-8.8443010">
        <ele>6.8</ele>
        <time>2021-05-18T05:53:06Z</time>
      </trkpt>
      <trkpt lat="41.6931860" lon="-8.8443220">
        <ele>6.8</ele>
        <time>2021-05-18T05:53:07Z</time>
      </trkpt>
      <trkpt lat="41.6931900" lon="-8.8443310">
        <ele>6.8</ele>
        <time>2021-05-18T05:53:08Z</time>
      </trkpt>
      <trkpt lat="41.6931950" lon="-8.8443410">
        <ele>6.8</ele>
        <time>2021-05-18T05:53:09Z</time>
      </trkpt>
      <trkpt lat="41.6931980" lon="-8.8443600">
        <ele>6.8</ele>
        <time>2021-05-18T05:53:10Z</time>
      </trkpt>
      <trkpt lat="41.6931960" lon="-8.8443810">
        <ele>6.8</ele>
        <time>2021-05-18T05:53:11Z</time>
      </trkpt>
      <trkpt lat="41.6932040" lon="-8.8444070">
        <ele>6.8</ele>
        <time>2021-05-18T05:53:12Z</time>
      </trkpt>
      <trkpt lat="41.6932090" lon="-8.8444240">
        <ele>6.8</ele>
        <time>2021-05-18T05:53:13Z</time>
      </trkpt>
      <trkpt lat="41.6932070" lon="-8.8444480">
        <ele>6.8</ele>
        <time>2021-05-18T05:53:14Z</time>
      </trkpt>
      <trkpt lat="41.6932080" lon="-8.8444610">
        <ele>6.7</ele>
        <time>2021-05-18T05:53:15Z</time>
      </trkpt>
      <trkpt lat="41.6932080" lon="-8.8444730">
        <ele>6.7</ele>
        <time>2021-05-18T05:53:16Z</time>
      </trkpt>
      <trkpt lat="41.6932080" lon="-8.8444860">
        <ele>6.7</ele>
        <time>2021-05-18T05:53:17Z</time>
      </trkpt>
      <trkpt lat="41.6932020" lon="-8.8445180">
        <ele>6.7</ele>
        <time>2021-05-18T05:53:18Z</time>
      </trkpt>
      <trkpt lat="41.6932050" lon="-8.8445280">
        <ele>6.7</ele>
        <time>2021-05-18T05:53:19Z</time>
      </trkpt>
      <trkpt lat="41.6932070" lon="-8.8445390">
        <ele>6.7</ele>
        <time>2021-05-18T05:53:20Z</time>
      </trkpt>
      <trkpt lat="41.6932040" lon="-8.8445610">
        <ele>6.7</ele>
        <time>2021-05-18T05:53:21Z</time>
      </trkpt>
      <trkpt lat="41.6932080" lon="-8.8445800">
        <ele>6.7</ele>
        <time>2021-05-18T05:53:22Z</time>
      </trkpt>
      <trkpt lat="41.6932090" lon="-8.8446050">
        <ele>6.7</ele>
        <time>2021-05-18T05:53:23Z</time>
      </trkpt>
      <trkpt lat="41.6932100" lon="-8.8446190">
        <ele>6.7</ele>
        <time>2021-05-18T05:53:24Z</time>
      </trkpt>
      <trkpt lat="41.6932110" lon="-8.8446500">
        <ele>6.7</ele>
        <time>2021-05-18T05:53:25Z</time>
      </trkpt>
      <trkpt lat="41.6932130" lon="-8.8446610">
        <ele>6.7</ele>
        <time>2021-05-18T05:53:26Z</time>
      </trkpt>
      <trkpt lat="41.6932160" lon="-8.8446720">
        <ele>6.7</ele>
        <time>2021-05-18T05:53:27Z</time>
      </trkpt>
      <trkpt lat="41.6932230" lon="-8.8446950">
        <ele>6.7</ele>
        <time>2021-05-18T05:53:28Z</time>
      </trkpt>
      <trkpt lat="41.6932210" lon="-8.8447110">
        <ele>6.7</ele>
        <time>2021-05-18T05:53:29Z</time>
      </trkpt>
      <trkpt lat="41.6932160" lon="-8.8447300">
        <ele>6.7</ele>
        <time>2021-05-18T05:53:30Z</time>
      </trkpt>
      <trkpt lat="41.6932180" lon="-8.8447530">
        <ele>6.6</ele>
        <time>2021-05-18T05:53:31Z</time>
      </trkpt>
      <trkpt lat="41.6932210" lon="-8.8447660">
        <ele>6.6</ele>
        <time>2021-05-18T05:53:32Z</time>
      </trkpt>
      <trkpt lat="41.6932180" lon="-8.8447820">
        <ele>6.6</ele>
        <time>2021-05-18T05:53:33Z</time>
      </trkpt>
      <trkpt lat="41.6932140" lon="-8.8447980">
        <ele>6.6</ele>
        <time>2021-05-18T05:53:34Z</time>
      </trkpt>
      <trkpt lat="41.6932170" lon="-8.8448200">
        <ele>6.6</ele>
        <time>2021-05-18T05:53:35Z</time>
      </trkpt>
      <trkpt lat="41.6932160" lon="-8.8448350">
        <ele>6.6</ele>
        <time>2021-05-18T05:53:36Z</time>
      </trkpt>
      <trkpt lat="41.6932160" lon="-8.8448530">
        <ele>6.6</ele>
        <time>2021-05-18T05:53:37Z</time>
      </trkpt>
      <trkpt lat="41.6932150" lon="-8.8448610">
        <ele>6.6</ele>
        <time>2021-05-18T05:53:38Z</time>
      </trkpt>
      <trkpt lat="41.6932240" lon="-8.8448700">
        <ele>6.6</ele>
        <time>2021-05-18T05:53:39Z</time>
      </trkpt>
      <trkpt lat="41.6932300" lon="-8.8448810">
        <ele>6.6</ele>
        <time>2021-05-18T05:53:40Z</time>
      </trkpt>
      <trkpt lat="41.6932360" lon="-8.8448890">
        <ele>6.6</ele>
        <time>2021-05-18T05:53:41Z</time>
      </trkpt>
      <trkpt lat="41.6932390" lon="-8.8449030">
        <ele>6.6</ele>
        <time>2021-05-18T05:53:42Z</time>
      </trkpt>
      <trkpt lat="41.6932400" lon="-8.8449200">
        <ele>6.6</ele>
        <time>2021-05-18T05:53:43Z</time>
      </trkpt>
      <trkpt lat="41.6932420" lon="-8.8449390">
        <ele>6.6</ele>
        <time>2021-05-18T05:53:44Z</time>
      </trkpt>
      <trkpt lat="41.6932440" lon="-8.8449690">
        <ele>6.6</ele>
        <time>2021-05-18T05:53:45Z</time>
      </trkpt>
      <trkpt lat="41.6932470" lon="-8.8449780">
        <ele>6.6</ele>
        <time>2021-05-18T05:53:46Z</time>
      </trkpt>
      <trkpt lat="41.6932500" lon="-8.8449860">
        <ele>6.6</ele>
        <time>2021-05-18T05:53:47Z</time>
      </trkpt>
      <trkpt lat="41.6932520" lon="-8.8450060">
        <ele>6.6</ele>
        <time>2021-05-18T05:53:48Z</time>
      </trkpt>
      <trkpt lat="41.6932520" lon="-8.8450250">
        <ele>6.6</ele>
        <time>2021-05-18T05:53:49Z</time>
      </trkpt>
      <trkpt lat="41.6932530" lon="-8.8450410">
        <ele>6.6</ele>
        <time>2021-05-18T05:53:50Z</time>
      </trkpt>
      <trkpt lat="41.6932560" lon="-8.8450580">
        <ele>6.6</ele>
        <time>2021-05-18T05:53:51Z</time>
      </trkpt>
      <trkpt lat="41.6932560" lon="-8.8450710">
        <ele>6.6</ele>
        <time>2021-05-18T05:53:52Z</time>
      </trkpt>
      <trkpt lat="41.6932590" lon="-8.8451100">
        <ele>6.6</ele>
        <time>2021-05-18T05:53:53Z</time>
      </trkpt>
      <trkpt lat="41.6932600" lon="-8.8451200">
        <ele>6.6</ele>
        <time>2021-05-18T05:53:54Z</time>
      </trkpt>
      <trkpt lat="41.6932530" lon="-8.8451440">
        <ele>6.6</ele>
        <time>2021-05-18T05:53:55Z</time>
      </trkpt>
      <trkpt lat="41.6932590" lon="-8.8451690">
        <ele>6.6</ele>
        <time>2021-05-18T05:53:56Z</time>
      </trkpt>
      <trkpt lat="41.6932570" lon="-8.8451730">
        <ele>6.6</ele>
        <time>2021-05-18T05:53:57Z</time>
      </trkpt>
      <trkpt lat="41.6932600" lon="-8.8451950">
        <ele>6.6</ele>
        <time>2021-05-18T05:53:58Z</time>
      </trkpt>
      <trkpt lat="41.6932520" lon="-8.8452060">
        <ele>6.6</ele>
        <time>2021-05-18T05:53:59Z</time>
      </trkpt>
      <trkpt lat="41.6932490" lon="-8.8452190">
        <ele>6.6</ele>
        <time>2021-05-18T05:54:00Z</time>
      </trkpt>
      <trkpt lat="41.6932570" lon="-8.8452430">
        <ele>6.6</ele>
        <time>2021-05-18T05:54:01Z</time>
      </trkpt>
      <trkpt lat="41.6932570" lon="-8.8452720">
        <ele>6.6</ele>
        <time>2021-05-18T05:54:02Z</time>
      </trkpt>
      <trkpt lat="41.6932620" lon="-8.8452830">
        <ele>6.6</ele>
        <time>2021-05-18T05:54:03Z</time>
      </trkpt>
      <trkpt lat="41.6932660" lon="-8.8452940">
        <ele>6.6</ele>
        <time>2021-05-18T05:54:04Z</time>
      </trkpt>
      <trkpt lat="41.6932750" lon="-8.8453130">
        <ele>6.6</ele>
        <time>2021-05-18T05:54:05Z</time>
      </trkpt>
      <trkpt lat="41.6932790" lon="-8.8453260">
        <ele>6.6</ele>
        <time>2021-05-18T05:54:06Z</time>
      </trkpt>
      <trkpt lat="41.6932840" lon="-8.8453480">
        <ele>6.6</ele>
        <time>2021-05-18T05:54:07Z</time>
      </trkpt>
      <trkpt lat="41.6932850" lon="-8.8453610">
        <ele>6.6</ele>
        <time>2021-05-18T05:54:08Z</time>
      </trkpt>
      <trkpt lat="41.6932870" lon="-8.8453710">
        <ele>6.6</ele>
        <time>2021-05-18T05:54:09Z</time>
      </trkpt>
      <trkpt lat="41.6932920" lon="-8.8453790">
        <ele>6.6</ele>
        <time>2021-05-18T05:54:10Z</time>
      </trkpt>
      <trkpt lat="41.6932950" lon="-8.8453940">
        <ele>6.6</ele>
        <time>2021-05-18T05:54:11Z</time>
      </trkpt>
      <trkpt lat="41.6932990" lon="-8.8454050">
        <ele>6.6</ele>
        <time>2021-05-18T05:54:12Z</time>
      </trkpt>
      <trkpt lat="41.6932990" lon="-8.8454100">
        <ele>6.6</ele>
        <time>2021-05-18T05:54:13Z</time>
      </trkpt>
      <trkpt lat="41.6932990" lon="-8.8454090">
        <ele>6.6</ele>
        <time>2021-05-18T05:54:14Z</time>
      </trkpt>
      <trkpt lat="41.6933000" lon="-8.8454100">
        <ele>6.6</ele>
        <time>2021-05-18T05:54:15Z</time>
      </trkpt>
      <trkpt lat="41.6933020" lon="-8.8454120">
        <ele>6.6</ele>
        <time>2021-05-18T05:54:16Z</time>
      </trkpt>
      <trkpt lat="41.6933030" lon="-8.8454100">
        <ele>6.6</ele>
        <time>2021-05-18T05:54:17Z</time>
      </trkpt>
      <trkpt lat="41.6933040" lon="-8.8454090">
        <ele>6.6</ele>
        <time>2021-05-18T05:54:18Z</time>
      </trkpt>
      <trkpt lat="41.6933070" lon="-8.8454140">
        <ele>6.6</ele>
        <time>2021-05-18T05:54:19Z</time>
      </trkpt>
      <trkpt lat="41.6933090" lon="-8.8454130">
        <ele>6.6</ele>
        <time>2021-05-18T05:54:20Z</time>
      </trkpt>
      <trkpt lat="41.6933180" lon="-8.8454080">
        <ele>6.6</ele>
        <time>2021-05-18T05:54:21Z</time>
      </trkpt>
      <trkpt lat="41.6933250" lon="-8.8454030">
        <ele>6.5</ele>
        <time>2021-05-18T05:54:22Z</time>
      </trkpt>
      <trkpt lat="41.6933260" lon="-8.8453940">
        <ele>6.5</ele>
        <time>2021-05-18T05:54:23Z</time>
      </trkpt>
      <trkpt lat="41.6933180" lon="-8.8453930">
        <ele>6.5</ele>
        <time>2021-05-18T05:54:24Z</time>
      </trkpt>
      <trkpt lat="41.6933180" lon="-8.8453910">
        <ele>6.5</ele>
        <time>2021-05-18T05:54:25Z</time>
      </trkpt>
      <trkpt lat="41.6933400" lon="-8.8453850">
        <ele>6.5</ele>
        <time>2021-05-18T05:54:26Z</time>
      </trkpt>
      <trkpt lat="41.6933310" lon="-8.8453990">
        <ele>6.5</ele>
        <time>2021-05-18T05:54:27Z</time>
      </trkpt>
      <trkpt lat="41.6933320" lon="-8.8453990">
        <ele>6.5</ele>
        <time>2021-05-18T05:54:28Z</time>
      </trkpt>
      <trkpt lat="41.6933110" lon="-8.8453960">
        <ele>6.5</ele>
        <time>2021-05-18T05:54:29Z</time>
      </trkpt>
      <trkpt lat="41.6932940" lon="-8.8454030">
        <ele>6.5</ele>
        <time>2021-05-18T05:54:30Z</time>
      </trkpt>
      <trkpt lat="41.6932800" lon="-8.8454090">
        <ele>6.5</ele>
        <time>2021-05-18T05:54:31Z</time>
      </trkpt>
      <trkpt lat="41.6932660" lon="-8.8454160">
        <ele>6.5</ele>
        <time>2021-05-18T05:54:32Z</time>
      </trkpt>
      <trkpt lat="41.6932510" lon="-8.8454210">
        <ele>6.5</ele>
        <time>2021-05-18T05:54:33Z</time>
      </trkpt>
      <trkpt lat="41.6932470" lon="-8.8454410">
        <ele>6.5</ele>
        <time>2021-05-18T05:54:34Z</time>
      </trkpt>
      <trkpt lat="41.6932500" lon="-8.8454440">
        <ele>6.5</ele>
        <time>2021-05-18T05:54:35Z</time>
      </trkpt>
      <trkpt lat="41.6932590" lon="-8.8454450">
        <ele>6.5</ele>
        <time>2021-05-18T05:54:36Z</time>
      </trkpt>
      <trkpt lat="41.6932530" lon="-8.8454570">
        <ele>6.5</ele>
        <time>2021-05-18T05:54:37Z</time>
      </trkpt>
      <trkpt lat="41.6932720" lon="-8.8454550">
        <ele>6.5</ele>
        <time>2021-05-18T05:54:38Z</time>
      </trkpt>
      <trkpt lat="41.6932780" lon="-8.8454490">
        <ele>6.5</ele>
        <time>2021-05-18T05:54:39Z</time>
      </trkpt>
      <trkpt lat="41.6932830" lon="-8.8454440">
        <ele>6.5</ele>
        <time>2021-05-18T05:54:40Z</time>
      </trkpt>
      <trkpt lat="41.6932890" lon="-8.8454380">
        <ele>6.5</ele>
        <time>2021-05-18T05:54:41Z</time>
      </trkpt>
      <trkpt lat="41.6933010" lon="-8.8454290">
        <ele>6.5</ele>
        <time>2021-05-18T05:54:42Z</time>
      </trkpt>
      <trkpt lat="41.6933030" lon="-8.8454150">
        <ele>6.5</ele>
        <time>2021-05-18T05:54:43Z</time>
      </trkpt>
      <trkpt lat="41.6933060" lon="-8.8454110">
        <ele>6.5</ele>
        <time>2021-05-18T05:54:44Z</time>
      </trkpt>
      <trkpt lat="41.6933040" lon="-8.8454000">
        <ele>6.5</ele>
        <time>2021-05-18T05:54:45Z</time>
      </trkpt>
      <trkpt lat="41.6933250" lon="-8.8454000">
        <ele>6.5</ele>
        <time>2021-05-18T05:54:46Z</time>
      </trkpt>
      <trkpt lat="41.6933240" lon="-8.8454060">
        <ele>6.5</ele>
        <time>2021-05-18T05:54:47Z</time>
      </trkpt>
      <trkpt lat="41.6933230" lon="-8.8454110">
        <ele>6.5</ele>
        <time>2021-05-18T05:54:48Z</time>
      </trkpt>
      <trkpt lat="41.6933220" lon="-8.8454170">
        <ele>6.5</ele>
        <time>2021-05-18T05:54:49Z</time>
      </trkpt>
      <trkpt lat="41.6933220" lon="-8.8454220">
        <ele>6.5</ele>
        <time>2021-05-18T05:54:50Z</time>
      </trkpt>
      <trkpt lat="41.6933210" lon="-8.8454270">
        <ele>6.5</ele>
        <time>2021-05-18T05:54:51Z</time>
      </trkpt>
      <trkpt lat="41.6933200" lon="-8.8454330">
        <ele>6.5</ele>
        <time>2021-05-18T05:54:52Z</time>
      </trkpt>
      <trkpt lat="41.6933190" lon="-8.8454380">
        <ele>6.5</ele>
        <time>2021-05-18T05:54:53Z</time>
      </trkpt>
      <trkpt lat="41.6933180" lon="-8.8454440">
        <ele>6.5</ele>
        <time>2021-05-18T05:54:54Z</time>
      </trkpt>
      <trkpt lat="41.6933170" lon="-8.8454490">
        <ele>6.5</ele>
        <time>2021-05-18T05:54:55Z</time>
      </trkpt>
      <trkpt lat="41.6933290" lon="-8.8454500">
        <ele>6.5</ele>
        <time>2021-05-18T05:54:56Z</time>
      </trkpt>
      <trkpt lat="41.6933340" lon="-8.8454480">
        <ele>6.5</ele>
        <time>2021-05-18T05:54:57Z</time>
      </trkpt>
      <trkpt lat="41.6933400" lon="-8.8454470">
        <ele>6.5</ele>
        <time>2021-05-18T05:54:58Z</time>
      </trkpt>
      <trkpt lat="41.6933450" lon="-8.8454450">
        <ele>6.5</ele>
        <time>2021-05-18T05:54:59Z</time>
      </trkpt>
      <trkpt lat="41.6933500" lon="-8.8454430">
        <ele>6.5</ele>
        <time>2021-05-18T05:55:00Z</time>
      </trkpt>
      <trkpt lat="41.6933550" lon="-8.8454410">
        <ele>6.5</ele>
        <time>2021-05-18T05:55:01Z</time>
      </trkpt>
      <trkpt lat="41.6933560" lon="-8.8454320">
        <ele>6.5</ele>
        <time>2021-05-18T05:55:02Z</time>
      </trkpt>
      <trkpt lat="41.6933690" lon="-8.8454220">
        <ele>6.5</ele>
        <time>2021-05-18T05:55:03Z</time>
      </trkpt>
      <trkpt lat="41.6933700" lon="-8.8454050">
        <ele>6.5</ele>
        <time>2021-05-18T05:55:04Z</time>
      </trkpt>
      <trkpt lat="41.6933590" lon="-8.8454080">
        <ele>6.5</ele>
        <time>2021-05-18T05:55:05Z</time>
      </trkpt>
      <trkpt lat="41.6933550" lon="-8.8453920">
        <ele>6.5</ele>
        <time>2021-05-18T05:55:06Z</time>
      </trkpt>
      <trkpt lat="41.6933550" lon="-8.8453720">
        <ele>6.5</ele>
        <time>2021-05-18T05:55:07Z</time>
      </trkpt>
      <trkpt lat="41.6933280" lon="-8.8453720">
        <ele>6.5</ele>
        <time>2021-05-18T05:55:08Z</time>
      </trkpt>
      <trkpt lat="41.6933220" lon="-8.8453430">
        <ele>6.5</ele>
        <time>2021-05-18T05:55:09Z</time>
      </trkpt>
      <trkpt lat="41.6933230" lon="-8.8453290">
        <ele>6.5</ele>
        <time>2021-05-18T05:55:10Z</time>
      </trkpt>
      <trkpt lat="41.6933230" lon="-8.8453340">
        <ele>6.5</ele>
        <time>2021-05-18T05:55:11Z</time>
      </trkpt>
      <trkpt lat="41.6933330" lon="-8.8453330">
        <ele>6.5</ele>
        <time>2021-05-18T05:55:12Z</time>
      </trkpt>
      <trkpt lat="41.6933440" lon="-8.8453330">
        <ele>6.5</ele>
        <time>2021-05-18T05:55:13Z</time>
      </trkpt>
      <trkpt lat="41.6933590" lon="-8.8453320">
        <ele>6.5</ele>
        <time>2021-05-18T05:55:14Z</time>
      </trkpt>
      <trkpt lat="41.6933330" lon="-8.8453340">
        <ele>6.5</ele>
        <time>2021-05-18T05:55:15Z</time>
      </trkpt>
      <trkpt lat="41.6933060" lon="-8.8453360">
        <ele>6.5</ele>
        <time>2021-05-18T05:55:16Z</time>
      </trkpt>
      <trkpt lat="41.6933150" lon="-8.8453400">
        <ele>6.5</ele>
        <time>2021-05-18T05:55:17Z</time>
      </trkpt>
      <trkpt lat="41.6933260" lon="-8.8453270">
        <ele>6.5</ele>
        <time>2021-05-18T05:55:18Z</time>
      </trkpt>
      <trkpt lat="41.6933400" lon="-8.8453230">
        <ele>6.5</ele>
        <time>2021-05-18T05:55:19Z</time>
      </trkpt>
      <trkpt lat="41.6933400" lon="-8.8453290">
        <ele>6.5</ele>
        <time>2021-05-18T05:55:20Z</time>
      </trkpt>
      <trkpt lat="41.6933480" lon="-8.8453260">
        <ele>6.5</ele>
        <time>2021-05-18T05:55:21Z</time>
      </trkpt>
      <trkpt lat="41.6933540" lon="-8.8453220">
        <ele>6.5</ele>
        <time>2021-05-18T05:55:22Z</time>
      </trkpt>
      <trkpt lat="41.6933690" lon="-8.8453200">
        <ele>6.5</ele>
        <time>2021-05-18T05:55:23Z</time>
      </trkpt>
      <trkpt lat="41.6933830" lon="-8.8452970">
        <ele>6.5</ele>
        <time>2021-05-18T05:55:24Z</time>
      </trkpt>
      <trkpt lat="41.6933770" lon="-8.8452830">
        <ele>6.5</ele>
        <time>2021-05-18T05:55:25Z</time>
      </trkpt>
      <trkpt lat="41.6933870" lon="-8.8452810">
        <ele>6.5</ele>
        <time>2021-05-18T05:55:26Z</time>
      </trkpt>
      <trkpt lat="41.6933740" lon="-8.8452910">
        <ele>6.5</ele>
        <time>2021-05-18T05:55:27Z</time>
      </trkpt>
      <trkpt lat="41.6933510" lon="-8.8453090">
        <ele>6.5</ele>
        <time>2021-05-18T05:55:28Z</time>
      </trkpt>
      <trkpt lat="41.6933240" lon="-8.8453270">
        <ele>6.4</ele>
        <time>2021-05-18T05:55:29Z</time>
      </trkpt>
      <trkpt lat="41.6933120" lon="-8.8453320">
        <ele>6.4</ele>
        <time>2021-05-18T05:55:30Z</time>
      </trkpt>
      <trkpt lat="41.6933040" lon="-8.8453350">
        <ele>6.4</ele>
        <time>2021-05-18T05:55:31Z</time>
      </trkpt>
      <trkpt lat="41.6933180" lon="-8.8453360">
        <ele>6.4</ele>
        <time>2021-05-18T05:55:32Z</time>
      </trkpt>
      <trkpt lat="41.6933220" lon="-8.8453270">
        <ele>6.4</ele>
        <time>2021-05-18T05:55:33Z</time>
      </trkpt>
      <trkpt lat="41.6933150" lon="-8.8453320">
        <ele>6.4</ele>
        <time>2021-05-18T05:55:34Z</time>
      </trkpt>
      <trkpt lat="41.6933060" lon="-8.8453360">
        <ele>6.4</ele>
        <time>2021-05-18T05:55:35Z</time>
      </trkpt>
      <trkpt lat="41.6933140" lon="-8.8453330">
        <ele>6.4</ele>
        <time>2021-05-18T05:55:36Z</time>
      </trkpt>
      <trkpt lat="41.6933210" lon="-8.8453310">
        <ele>6.4</ele>
        <time>2021-05-18T05:55:37Z</time>
      </trkpt>
      <trkpt lat="41.6933410" lon="-8.8453380">
        <ele>6.4</ele>
        <time>2021-05-18T05:55:38Z</time>
      </trkpt>
      <trkpt lat="41.6933630" lon="-8.8453240">
        <ele>6.4</ele>
        <time>2021-05-18T05:55:39Z</time>
      </trkpt>
      <trkpt lat="41.6933430" lon="-8.8453380">
        <ele>6.4</ele>
        <time>2021-05-18T05:55:40Z</time>
      </trkpt>
      <trkpt lat="41.6933300" lon="-8.8453240">
        <ele>6.4</ele>
        <time>2021-05-18T05:55:41Z</time>
      </trkpt>
      <trkpt lat="41.6933230" lon="-8.8453250">
        <ele>6.4</ele>
        <time>2021-05-18T05:55:42Z</time>
      </trkpt>
      <trkpt lat="41.6933070" lon="-8.8453410">
        <ele>6.4</ele>
        <time>2021-05-18T05:55:43Z</time>
      </trkpt>
      <trkpt lat="41.6933250" lon="-8.8453540">
        <ele>6.4</ele>
        <time>2021-05-18T05:55:44Z</time>
      </trkpt>
      <trkpt lat="41.6933210" lon="-8.8453420">
        <ele>6.4</ele>
        <time>2021-05-18T05:55:45Z</time>
      </trkpt>
      <trkpt lat="41.6932880" lon="-8.8453550">
        <ele>6.4</ele>
        <time>2021-05-18T05:55:46Z</time>
      </trkpt>
      <trkpt lat="41.6932750" lon="-8.8453450">
        <ele>6.4</ele>
        <time>2021-05-18T05:55:47Z</time>
      </trkpt>
      <trkpt lat="41.6933000" lon="-8.8453340">
        <ele>6.4</ele>
        <time>2021-05-18T05:55:48Z</time>
      </trkpt>
      <trkpt lat="41.6933090" lon="-8.8453380">
        <ele>6.4</ele>
        <time>2021-05-18T05:55:49Z</time>
      </trkpt>
      <trkpt lat="41.6933060" lon="-8.8453370">
        <ele>6.4</ele>
        <time>2021-05-18T05:55:50Z</time>
      </trkpt>
      <trkpt lat="41.6933060" lon="-8.8453380">
        <ele>6.4</ele>
        <time>2021-05-18T05:55:51Z</time>
      </trkpt>
      <trkpt lat="41.6932960" lon="-8.8453380">
        <ele>6.4</ele>
        <time>2021-05-18T05:55:52Z</time>
      </trkpt>
      <trkpt lat="41.6932960" lon="-8.8453360">
        <ele>6.4</ele>
        <time>2021-05-18T05:55:53Z</time>
      </trkpt>
      <trkpt lat="41.6932830" lon="-8.8453400">
        <ele>6.4</ele>
        <time>2021-05-18T05:55:54Z</time>
      </trkpt>
      <trkpt lat="41.6932750" lon="-8.8453430">
        <ele>6.4</ele>
        <time>2021-05-18T05:55:55Z</time>
      </trkpt>
      <trkpt lat="41.6932650" lon="-8.8453460">
        <ele>6.4</ele>
        <time>2021-05-18T05:55:56Z</time>
      </trkpt>
      <trkpt lat="41.6932620" lon="-8.8453500">
        <ele>6.4</ele>
        <time>2021-05-18T05:55:57Z</time>
      </trkpt>
      <trkpt lat="41.6932590" lon="-8.8453550">
        <ele>6.4</ele>
        <time>2021-05-18T05:55:58Z</time>
      </trkpt>
      <trkpt lat="41.6932560" lon="-8.8453590">
        <ele>6.4</ele>
        <time>2021-05-18T05:55:59Z</time>
      </trkpt>
      <trkpt lat="41.6932530" lon="-8.8453640">
        <ele>6.4</ele>
        <time>2021-05-18T05:56:00Z</time>
      </trkpt>
      <trkpt lat="41.6932500" lon="-8.8453680">
        <ele>6.4</ele>
        <time>2021-05-18T05:56:01Z</time>
      </trkpt>
      <trkpt lat="41.6932470" lon="-8.8453730">
        <ele>6.4</ele>
        <time>2021-05-18T05:56:02Z</time>
      </trkpt>
      <trkpt lat="41.6932440" lon="-8.8453770">
        <ele>6.4</ele>
        <time>2021-05-18T05:56:03Z</time>
      </trkpt>
      <trkpt lat="41.6932410" lon="-8.8453820">
        <ele>6.4</ele>
        <time>2021-05-18T05:56:04Z</time>
      </trkpt>
      <trkpt lat="41.6932380" lon="-8.8453860">
        <ele>6.4</ele>
        <time>2021-05-18T05:56:05Z</time>
      </trkpt>
      <trkpt lat="41.6931850" lon="-8.8455020">
        <ele>6.4</ele>
        <time>2021-05-18T05:56:06Z</time>
      </trkpt>
      <trkpt lat="41.6932400" lon="-8.8455390">
        <ele>6.4</ele>
        <time>2021-05-18T05:56:07Z</time>
      </trkpt>
      <trkpt lat="41.6932660" lon="-8.8455240">
        <ele>6.4</ele>
        <time>2021-05-18T05:56:08Z</time>
      </trkpt>
      <trkpt lat="41.6932570" lon="-8.8454690">
        <ele>6.4</ele>
        <time>2021-05-18T05:56:09Z</time>
      </trkpt>
      <trkpt lat="41.6932560" lon="-8.8454470">
        <ele>6.4</ele>
        <time>2021-05-18T05:56:10Z</time>
      </trkpt>
      <trkpt lat="41.6932850" lon="-8.8454590">
        <ele>6.4</ele>
        <time>2021-05-18T05:56:11Z</time>
      </trkpt>
      <trkpt lat="41.6932950" lon="-8.8454570">
        <ele>6.4</ele>
        <time>2021-05-18T05:56:12Z</time>
      </trkpt>
      <trkpt lat="41.6933060" lon="-8.8454550">
        <ele>6.4</ele>
        <time>2021-05-18T05:56:13Z</time>
      </trkpt>
      <trkpt lat="41.6933170" lon="-8.8454520">
        <ele>6.4</ele>
        <time>2021-05-18T05:56:14Z</time>
      </trkpt>
      <trkpt lat="41.6933280" lon="-8.8454500">
        <ele>6.4</ele>
        <time>2021-05-18T05:56:15Z</time>
      </trkpt>
      <trkpt lat="41.6933380" lon="-8.8454480">
        <ele>6.4</ele>
        <time>2021-05-18T05:56:16Z</time>
      </trkpt>
      <trkpt lat="41.6933490" lon="-8.8454460">
        <ele>6.4</ele>
        <time>2021-05-18T05:56:17Z</time>
      </trkpt>
      <trkpt lat="41.6933140" lon="-8.8454750">
        <ele>6.3</ele>
        <time>2021-05-18T05:56:18Z</time>
      </trkpt>
      <trkpt lat="41.6932590" lon="-8.8454670">
        <ele>6.3</ele>
        <time>2021-05-18T05:56:19Z</time>
      </trkpt>
      <trkpt lat="41.6932800" lon="-8.8454690">
        <ele>6.3</ele>
        <time>2021-05-18T05:56:20Z</time>
      </trkpt>
      <trkpt lat="41.6932980" lon="-8.8454510">
        <ele>6.3</ele>
        <time>2021-05-18T05:56:21Z</time>
      </trkpt>
      <trkpt lat="41.6933150" lon="-8.8454330">
        <ele>6.3</ele>
        <time>2021-05-18T05:56:22Z</time>
      </trkpt>
      <trkpt lat="41.6933100" lon="-8.8454130">
        <ele>6.3</ele>
        <time>2021-05-18T05:56:23Z</time>
      </trkpt>
      <trkpt lat="41.6933070" lon="-8.8454130">
        <ele>6.3</ele>
        <time>2021-05-18T05:56:24Z</time>
      </trkpt>
      <trkpt lat="41.6933070" lon="-8.8454130">
        <ele>6.3</ele>
        <time>2021-05-18T05:56:25Z</time>
      </trkpt>
      <trkpt lat="41.6932980" lon="-8.8454150">
        <ele>6.3</ele>
        <time>2021-05-18T05:56:26Z</time>
      </trkpt>
      <trkpt lat="41.6932930" lon="-8.8454170">
        <ele>6.3</ele>
        <time>2021-05-18T05:56:27Z</time>
      </trkpt>
      <trkpt lat="41.6932940" lon="-8.8454180">
        <ele>6.3</ele>
        <time>2021-05-18T05:56:28Z</time>
      </trkpt>
      <trkpt lat="41.6932860" lon="-8.8454210">
        <ele>6.3</ele>
        <time>2021-05-18T05:56:29Z</time>
      </trkpt>
      <trkpt lat="41.6933120" lon="-8.8453920">
        <ele>6.3</ele>
        <time>2021-05-18T05:56:30Z</time>
      </trkpt>
      <trkpt lat="41.6933250" lon="-8.8453790">
        <ele>6.3</ele>
        <time>2021-05-18T05:56:31Z</time>
      </trkpt>
      <trkpt lat="41.6933120" lon="-8.8453760">
        <ele>6.3</ele>
        <time>2021-05-18T05:56:32Z</time>
      </trkpt>
      <trkpt lat="41.6933250" lon="-8.8453670">
        <ele>6.3</ele>
        <time>2021-05-18T05:56:33Z</time>
      </trkpt>
      <trkpt lat="41.6933370" lon="-8.8453470">
        <ele>6.3</ele>
        <time>2021-05-18T05:56:34Z</time>
      </trkpt>
      <trkpt lat="41.6933380" lon="-8.8453520">
        <ele>6.3</ele>
        <time>2021-05-18T05:56:35Z</time>
      </trkpt>
      <trkpt lat="41.6933030" lon="-8.8453530">
        <ele>6.3</ele>
        <time>2021-05-18T05:56:36Z</time>
      </trkpt>
      <trkpt lat="41.6932660" lon="-8.8453470">
        <ele>6.3</ele>
        <time>2021-05-18T05:56:37Z</time>
      </trkpt>
      <trkpt lat="41.6932500" lon="-8.8453510">
        <ele>6.3</ele>
        <time>2021-05-18T05:56:38Z</time>
      </trkpt>
      <trkpt lat="41.6932250" lon="-8.8453660">
        <ele>6.3</ele>
        <time>2021-05-18T05:56:39Z</time>
      </trkpt>
      <trkpt lat="41.6932150" lon="-8.8453710">
        <ele>6.3</ele>
        <time>2021-05-18T05:56:40Z</time>
      </trkpt>
      <trkpt lat="41.6932080" lon="-8.8453740">
        <ele>6.3</ele>
        <time>2021-05-18T05:56:41Z</time>
      </trkpt>
      <trkpt lat="41.6931940" lon="-8.8453800">
        <ele>6.3</ele>
        <time>2021-05-18T05:56:42Z</time>
      </trkpt>
      <trkpt lat="41.6931940" lon="-8.8453800">
        <ele>6.3</ele>
        <time>2021-05-18T05:56:43Z</time>
      </trkpt>
      <trkpt lat="41.6931990" lon="-8.8453620">
        <ele>6.3</ele>
        <time>2021-05-18T05:56:44Z</time>
      </trkpt>
      <trkpt lat="41.6931800" lon="-8.8453830">
        <ele>6.3</ele>
        <time>2021-05-18T05:56:45Z</time>
      </trkpt>
      <trkpt lat="41.6931710" lon="-8.8453840">
        <ele>6.3</ele>
        <time>2021-05-18T05:56:46Z</time>
      </trkpt>
      <trkpt lat="41.6931620" lon="-8.8453840">
        <ele>6.3</ele>
        <time>2021-05-18T05:56:47Z</time>
      </trkpt>
      <trkpt lat="41.6931520" lon="-8.8453850">
        <ele>6.3</ele>
        <time>2021-05-18T05:56:48Z</time>
      </trkpt>
      <trkpt lat="41.6931430" lon="-8.8453850">
        <ele>6.3</ele>
        <time>2021-05-18T05:56:49Z</time>
      </trkpt>
      <trkpt lat="41.6931430" lon="-8.8453990">
        <ele>6.3</ele>
        <time>2021-05-18T05:56:50Z</time>
      </trkpt>
      <trkpt lat="41.6931440" lon="-8.8454120">
        <ele>6.3</ele>
        <time>2021-05-18T05:56:51Z</time>
      </trkpt>
      <trkpt lat="41.6931440" lon="-8.8454260">
        <ele>6.3</ele>
        <time>2021-05-18T05:56:52Z</time>
      </trkpt>
      <trkpt lat="41.6931440" lon="-8.8454400">
        <ele>6.3</ele>
        <time>2021-05-18T05:56:53Z</time>
      </trkpt>
      <trkpt lat="41.6931430" lon="-8.8454370">
        <ele>6.3</ele>
        <time>2021-05-18T05:56:54Z</time>
      </trkpt>
      <trkpt lat="41.6931550" lon="-8.8454770">
        <ele>6.3</ele>
        <time>2021-05-18T05:56:55Z</time>
      </trkpt>
      <trkpt lat="41.6931550" lon="-8.8454770">
        <ele>6.3</ele>
        <time>2021-05-18T05:56:56Z</time>
      </trkpt>
      <trkpt lat="41.6931550" lon="-8.8454770">
        <ele>6.3</ele>
        <time>2021-05-18T05:56:57Z</time>
      </trkpt>
      <trkpt lat="41.6931550" lon="-8.8454770">
        <ele>6.3</ele>
        <time>2021-05-18T05:56:58Z</time>
      </trkpt>
      <trkpt lat="41.6931550" lon="-8.8454770">
        <ele>6.3</ele>
        <time>2021-05-18T05:56:59Z</time>
      </trkpt>
      <trkpt lat="41.6931270" lon="-8.8454810">
        <ele>6.3</ele>
        <time>2021-05-18T05:57:00Z</time>
      </trkpt>
      <trkpt lat="41.6931260" lon="-8.8454810">
        <ele>6.3</ele>
        <time>2021-05-18T05:57:01Z</time>
      </trkpt>
      <trkpt lat="41.6931170" lon="-8.8455280">
        <ele>6.3</ele>
        <time>2021-05-18T05:57:02Z</time>
      </trkpt>
      <trkpt lat="41.6931060" lon="-8.8454880">
        <ele>6.3</ele>
        <time>2021-05-18T05:57:03Z</time>
      </trkpt>
      <trkpt lat="41.6930980" lon="-8.8454780">
        <ele>6.3</ele>
        <time>2021-05-18T05:57:04Z</time>
      </trkpt>
      <trkpt lat="41.6931260" lon="-8.8454630">
        <ele>6.3</ele>
        <time>2021-05-18T05:57:05Z</time>
      </trkpt>
      <trkpt lat="41.6931470" lon="-8.8454530">
        <ele>6.3</ele>
        <time>2021-05-18T05:57:06Z</time>
      </trkpt>
      <trkpt lat="41.6931680" lon="-8.8454440">
        <ele>6.3</ele>
        <time>2021-05-18T05:57:07Z</time>
      </trkpt>
      <trkpt lat="41.6931890" lon="-8.8454340">
        <ele>6.3</ele>
        <time>2021-05-18T05:57:08Z</time>
      </trkpt>
      <trkpt lat="41.6932100" lon="-8.8454250">
        <ele>6.3</ele>
        <time>2021-05-18T05:57:09Z</time>
      </trkpt>
      <trkpt lat="41.6932070" lon="-8.8454130">
        <ele>6.3</ele>
        <time>2021-05-18T05:57:10Z</time>
      </trkpt>
      <trkpt lat="41.6932030" lon="-8.8454010">
        <ele>6.3</ele>
        <time>2021-05-18T05:57:11Z</time>
      </trkpt>
      <trkpt lat="41.6932000" lon="-8.8453900">
        <ele>6.3</ele>
        <time>2021-05-18T05:57:12Z</time>
      </trkpt>
      <trkpt lat="41.6931960" lon="-8.8453780">
        <ele>6.2</ele>
        <time>2021-05-18T05:57:13Z</time>
      </trkpt>
      <trkpt lat="41.6932060" lon="-8.8453860">
        <ele>6.2</ele>
        <time>2021-05-18T05:57:14Z</time>
      </trkpt>
      <trkpt lat="41.6932190" lon="-8.8453910">
        <ele>6.2</ele>
        <time>2021-05-18T05:57:15Z</time>
      </trkpt>
      <trkpt lat="41.6932310" lon="-8.8453960">
        <ele>6.2</ele>
        <time>2021-05-18T05:57:16Z</time>
      </trkpt>
      <trkpt lat="41.6932260" lon="-8.8454100">
        <ele>6.2</ele>
        <time>2021-05-18T05:57:17Z</time>
      </trkpt>
      <trkpt lat="41.6932160" lon="-8.8454140">
        <ele>6.2</ele>
        <time>2021-05-18T05:57:18Z</time>
      </trkpt>
      <trkpt lat="41.6932070" lon="-8.8454190">
        <ele>6.2</ele>
        <time>2021-05-18T05:57:19Z</time>
      </trkpt>
      <trkpt lat="41.6931970" lon="-8.8454230">
        <ele>6.2</ele>
        <time>2021-05-18T05:57:20Z</time>
      </trkpt>
      <trkpt lat="41.6931880" lon="-8.8454280">
        <ele>6.2</ele>
        <time>2021-05-18T05:57:21Z</time>
      </trkpt>
      <trkpt lat="41.6931780" lon="-8.8454320">
        <ele>6.2</ele>
        <time>2021-05-18T05:57:22Z</time>
      </trkpt>
      <trkpt lat="41.6931870" lon="-8.8454200">
        <ele>6.2</ele>
        <time>2021-05-18T05:57:23Z</time>
      </trkpt>
      <trkpt lat="41.6931640" lon="-8.8454360">
        <ele>6.2</ele>
        <time>2021-05-18T05:57:24Z</time>
      </trkpt>
      <trkpt lat="41.6931640" lon="-8.8454560">
        <ele>6.2</ele>
        <time>2021-05-18T05:57:25Z</time>
      </trkpt>
      <trkpt lat="41.6931620" lon="-8.8454610">
        <ele>6.2</ele>
        <time>2021-05-18T05:57:26Z</time>
      </trkpt>
      <trkpt lat="41.6931740" lon="-8.8454600">
        <ele>6.2</ele>
        <time>2021-05-18T05:57:27Z</time>
      </trkpt>
      <trkpt lat="41.6931790" lon="-8.8454520">
        <ele>6.2</ele>
        <time>2021-05-18T05:57:28Z</time>
      </trkpt>
      <trkpt lat="41.6931840" lon="-8.8454440">
        <ele>6.2</ele>
        <time>2021-05-18T05:57:29Z</time>
      </trkpt>
      <trkpt lat="41.6931890" lon="-8.8454360">
        <ele>6.2</ele>
        <time>2021-05-18T05:57:30Z</time>
      </trkpt>
      <trkpt lat="41.6931940" lon="-8.8454280">
        <ele>6.2</ele>
        <time>2021-05-18T05:57:31Z</time>
      </trkpt>
      <trkpt lat="41.6932270" lon="-8.8454190">
        <ele>6.2</ele>
        <time>2021-05-18T05:57:32Z</time>
      </trkpt>
      <trkpt lat="41.6932450" lon="-8.8454040">
        <ele>6.2</ele>
        <time>2021-05-18T05:57:33Z</time>
      </trkpt>
      <trkpt lat="41.6932490" lon="-8.8453970">
        <ele>6.2</ele>
        <time>2021-05-18T05:57:34Z</time>
      </trkpt>
      <trkpt lat="41.6932530" lon="-8.8453900">
        <ele>6.2</ele>
        <time>2021-05-18T05:57:35Z</time>
      </trkpt>
      <trkpt lat="41.6932560" lon="-8.8453830">
        <ele>6.2</ele>
        <time>2021-05-18T05:57:36Z</time>
      </trkpt>
      <trkpt lat="41.6932600" lon="-8.8453760">
        <ele>6.2</ele>
        <time>2021-05-18T05:57:37Z</time>
      </trkpt>
      <trkpt lat="41.6932640" lon="-8.8453690">
        <ele>6.2</ele>
        <time>2021-05-18T05:57:38Z</time>
      </trkpt>
      <trkpt lat="41.6932680" lon="-8.8453610">
        <ele>6.2</ele>
        <time>2021-05-18T05:57:39Z</time>
      </trkpt>
      <trkpt lat="41.6932720" lon="-8.8453540">
        <ele>6.2</ele>
        <time>2021-05-18T05:57:40Z</time>
      </trkpt>
      <trkpt lat="41.6932760" lon="-8.8453470">
        <ele>6.2</ele>
        <time>2021-05-18T05:57:41Z</time>
      </trkpt>
      <trkpt lat="41.6932790" lon="-8.8453400">
        <ele>6.2</ele>
        <time>2021-05-18T05:57:42Z</time>
      </trkpt>
      <trkpt lat="41.6932830" lon="-8.8453330">
        <ele>6.2</ele>
        <time>2021-05-18T05:57:43Z</time>
      </trkpt>
      <trkpt lat="41.6932870" lon="-8.8453260">
        <ele>6.2</ele>
        <time>2021-05-18T05:57:44Z</time>
      </trkpt>
      <trkpt lat="41.6932820" lon="-8.8453360">
        <ele>6.2</ele>
        <time>2021-05-18T05:57:45Z</time>
      </trkpt>
      <trkpt lat="41.6932800" lon="-8.8453410">
        <ele>6.2</ele>
        <time>2021-05-18T05:57:46Z</time>
      </trkpt>
      <trkpt lat="41.6932790" lon="-8.8453460">
        <ele>6.2</ele>
        <time>2021-05-18T05:57:47Z</time>
      </trkpt>
      <trkpt lat="41.6932780" lon="-8.8453510">
        <ele>6.2</ele>
        <time>2021-05-18T05:57:48Z</time>
      </trkpt>
      <trkpt lat="41.6932760" lon="-8.8453570">
        <ele>6.2</ele>
        <time>2021-05-18T05:57:49Z</time>
      </trkpt>
      <trkpt lat="41.6932750" lon="-8.8453620">
        <ele>6.2</ele>
        <time>2021-05-18T05:57:50Z</time>
      </trkpt>
      <trkpt lat="41.6932740" lon="-8.8453670">
        <ele>6.2</ele>
        <time>2021-05-18T05:57:51Z</time>
      </trkpt>
      <trkpt lat="41.6932720" lon="-8.8453720">
        <ele>6.2</ele>
        <time>2021-05-18T05:57:52Z</time>
      </trkpt>
      <trkpt lat="41.6932710" lon="-8.8453770">
        <ele>6.2</ele>
        <time>2021-05-18T05:57:53Z</time>
      </trkpt>
      <trkpt lat="41.6932580" lon="-8.8454040">
        <ele>6.2</ele>
        <time>2021-05-18T05:57:54Z</time>
      </trkpt>
      <trkpt lat="41.6932550" lon="-8.8454050">
        <ele>6.2</ele>
        <time>2021-05-18T05:57:55Z</time>
      </trkpt>
      <trkpt lat="41.6932520" lon="-8.8454070">
        <ele>6.2</ele>
        <time>2021-05-18T05:57:56Z</time>
      </trkpt>
      <trkpt lat="41.6932490" lon="-8.8454090">
        <ele>6.2</ele>
        <time>2021-05-18T05:57:57Z</time>
      </trkpt>
      <trkpt lat="41.6932460" lon="-8.8454110">
        <ele>6.2</ele>
        <time>2021-05-18T05:57:58Z</time>
      </trkpt>
      <trkpt lat="41.6932430" lon="-8.8454120">
        <ele>6.2</ele>
        <time>2021-05-18T05:57:59Z</time>
      </trkpt>
      <trkpt lat="41.6932400" lon="-8.8454140">
        <ele>6.2</ele>
        <time>2021-05-18T05:58:00Z</time>
      </trkpt>
      <trkpt lat="41.6932280" lon="-8.8454260">
        <ele>6.2</ele>
        <time>2021-05-18T05:58:01Z</time>
      </trkpt>
      <trkpt lat="41.6932530" lon="-8.8454040">
        <ele>6.2</ele>
        <time>2021-05-18T05:58:02Z</time>
      </trkpt>
      <trkpt lat="41.6932470" lon="-8.8454000">
        <ele>6.2</ele>
        <time>2021-05-18T05:58:03Z</time>
      </trkpt>
      <trkpt lat="41.6932510" lon="-8.8454260">
        <ele>6.2</ele>
        <time>2021-05-18T05:58:04Z</time>
      </trkpt>
      <trkpt lat="41.6932340" lon="-8.8454280">
        <ele>6.2</ele>
        <time>2021-05-18T05:58:05Z</time>
      </trkpt>
      <trkpt lat="41.6932090" lon="-8.8454240">
        <ele>6.2</ele>
        <time>2021-05-18T05:58:06Z</time>
      </trkpt>
      <trkpt lat="41.6932190" lon="-8.8454180">
        <ele>6.2</ele>
        <time>2021-05-18T05:58:07Z</time>
      </trkpt>
      <trkpt lat="41.6932260" lon="-8.8454150">
        <ele>6.2</ele>
        <time>2021-05-18T05:58:08Z</time>
      </trkpt>
      <trkpt lat="41.6932320" lon="-8.8454130">
        <ele>6.2</ele>
        <time>2021-05-18T05:58:09Z</time>
      </trkpt>
      <trkpt lat="41.6932390" lon="-8.8454100">
        <ele>6.2</ele>
        <time>2021-05-18T05:58:10Z</time>
      </trkpt>
      <trkpt lat="41.6932450" lon="-8.8454080">
        <ele>6.2</ele>
        <time>2021-05-18T05:58:11Z</time>
      </trkpt>
      <trkpt lat="41.6932520" lon="-8.8454050">
        <ele>6.2</ele>
        <time>2021-05-18T05:58:12Z</time>
      </trkpt>
      <trkpt lat="41.6932580" lon="-8.8454030">
        <ele>6.2</ele>
        <time>2021-05-18T05:58:13Z</time>
      </trkpt>
      <trkpt lat="41.6932650" lon="-8.8454000">
        <ele>6.2</ele>
        <time>2021-05-18T05:58:14Z</time>
      </trkpt>
      <trkpt lat="41.6932710" lon="-8.8453980">
        <ele>6.2</ele>
        <time>2021-05-18T05:58:15Z</time>
      </trkpt>
      <trkpt lat="41.6932780" lon="-8.8453950">
        <ele>6.2</ele>
        <time>2021-05-18T05:58:16Z</time>
      </trkpt>
      <trkpt lat="41.6932840" lon="-8.8453930">
        <ele>6.2</ele>
        <time>2021-05-18T05:58:17Z</time>
      </trkpt>
      <trkpt lat="41.6932910" lon="-8.8453900">
        <ele>6.2</ele>
        <time>2021-05-18T05:58:18Z</time>
      </trkpt>
      <trkpt lat="41.6932970" lon="-8.8453880">
        <ele>6.2</ele>
        <time>2021-05-18T05:58:19Z</time>
      </trkpt>
      <trkpt lat="41.6933130" lon="-8.8454120">
        <ele>6.2</ele>
        <time>2021-05-18T05:58:20Z</time>
      </trkpt>
      <trkpt lat="41.6933240" lon="-8.8454250">
        <ele>6.2</ele>
        <time>2021-05-18T05:58:21Z</time>
      </trkpt>
      <trkpt lat="41.6933180" lon="-8.8454510">
        <ele>6.2</ele>
        <time>2021-05-18T05:58:22Z</time>
      </trkpt>
      <trkpt lat="41.6933080" lon="-8.8454620">
        <ele>6.2</ele>
        <time>2021-05-18T05:58:23Z</time>
      </trkpt>
      <trkpt lat="41.6933010" lon="-8.8454750">
        <ele>6.2</ele>
        <time>2021-05-18T05:58:24Z</time>
      </trkpt>
      <trkpt lat="41.6932910" lon="-8.8454830">
        <ele>6.2</ele>
        <time>2021-05-18T05:58:25Z</time>
      </trkpt>
      <trkpt lat="41.6932820" lon="-8.8454910">
        <ele>6.2</ele>
        <time>2021-05-18T05:58:26Z</time>
      </trkpt>
      <trkpt lat="41.6932840" lon="-8.8454870">
        <ele>6.2</ele>
        <time>2021-05-18T05:58:27Z</time>
      </trkpt>
      <trkpt lat="41.6932890" lon="-8.8454750">
        <ele>6.2</ele>
        <time>2021-05-18T05:58:28Z</time>
      </trkpt>
      <trkpt lat="41.6932810" lon="-8.8454750">
        <ele>6.2</ele>
        <time>2021-05-18T05:58:29Z</time>
      </trkpt>
      <trkpt lat="41.6932840" lon="-8.8454530">
        <ele>6.2</ele>
        <time>2021-05-18T05:58:30Z</time>
      </trkpt>
      <trkpt lat="41.6932940" lon="-8.8454420">
        <ele>6.2</ele>
        <time>2021-05-18T05:58:31Z</time>
      </trkpt>
      <trkpt lat="41.6932850" lon="-8.8454540">
        <ele>6.2</ele>
        <time>2021-05-18T05:58:32Z</time>
      </trkpt>
      <trkpt lat="41.6932770" lon="-8.8454650">
        <ele>6.2</ele>
        <time>2021-05-18T05:58:33Z</time>
      </trkpt>
      <trkpt lat="41.6932690" lon="-8.8454770">
        <ele>6.2</ele>
        <time>2021-05-18T05:58:34Z</time>
      </trkpt>
      <trkpt lat="41.6932610" lon="-8.8454880">
        <ele>6.2</ele>
        <time>2021-05-18T05:58:35Z</time>
      </trkpt>
      <trkpt lat="41.6932520" lon="-8.8455000">
        <ele>6.2</ele>
        <time>2021-05-18T05:58:36Z</time>
      </trkpt>
      <trkpt lat="41.6932440" lon="-8.8455110">
        <ele>6.2</ele>
        <time>2021-05-18T05:58:37Z</time>
      </trkpt>
      <trkpt lat="41.6932470" lon="-8.8455060">
        <ele>6.2</ele>
        <time>2021-05-18T05:58:38Z</time>
      </trkpt>
      <trkpt lat="41.6932500" lon="-8.8455010">
        <ele>6.1</ele>
        <time>2021-05-18T05:58:39Z</time>
      </trkpt>
      <trkpt lat="41.6932530" lon="-8.8454960">
        <ele>6.1</ele>
        <time>2021-05-18T05:58:40Z</time>
      </trkpt>
      <trkpt lat="41.6932570" lon="-8.8454920">
        <ele>6.1</ele>
        <time>2021-05-18T05:58:41Z</time>
      </trkpt>
      <trkpt lat="41.6932600" lon="-8.8454870">
        <ele>6.1</ele>
        <time>2021-05-18T05:58:42Z</time>
      </trkpt>
      <trkpt lat="41.6932630" lon="-8.8454820">
        <ele>6.1</ele>
        <time>2021-05-18T05:58:43Z</time>
      </trkpt>
      <trkpt lat="41.6932660" lon="-8.8454770">
        <ele>6.1</ele>
        <time>2021-05-18T05:58:44Z</time>
      </trkpt>
      <trkpt lat="41.6932690" lon="-8.8454720">
        <ele>6.1</ele>
        <time>2021-05-18T05:58:45Z</time>
      </trkpt>
      <trkpt lat="41.6932730" lon="-8.8454700">
        <ele>6.1</ele>
        <time>2021-05-18T05:58:46Z</time>
      </trkpt>
      <trkpt lat="41.6932820" lon="-8.8454680">
        <ele>6.1</ele>
        <time>2021-05-18T05:58:47Z</time>
      </trkpt>
      <trkpt lat="41.6932900" lon="-8.8454650">
        <ele>6.1</ele>
        <time>2021-05-18T05:58:48Z</time>
      </trkpt>
      <trkpt lat="41.6932990" lon="-8.8454630">
        <ele>6.1</ele>
        <time>2021-05-18T05:58:49Z</time>
      </trkpt>
      <trkpt lat="41.6933080" lon="-8.8454610">
        <ele>6.1</ele>
        <time>2021-05-18T05:58:50Z</time>
      </trkpt>
      <trkpt lat="41.6933050" lon="-8.8454630">
        <ele>6.1</ele>
        <time>2021-05-18T05:58:51Z</time>
      </trkpt>
      <trkpt lat="41.6933250" lon="-8.8454360">
        <ele>6.1</ele>
        <time>2021-05-18T05:58:52Z</time>
      </trkpt>
      <trkpt lat="41.6933280" lon="-8.8454350">
        <ele>6.1</ele>
        <time>2021-05-18T05:58:53Z</time>
      </trkpt>
      <trkpt lat="41.6933250" lon="-8.8454400">
        <ele>6.1</ele>
        <time>2021-05-18T05:58:54Z</time>
      </trkpt>
      <trkpt lat="41.6933100" lon="-8.8454430">
        <ele>6.1</ele>
        <time>2021-05-18T05:58:55Z</time>
      </trkpt>
      <trkpt lat="41.6933040" lon="-8.8454410">
        <ele>6.1</ele>
        <time>2021-05-18T05:58:56Z</time>
      </trkpt>
      <trkpt lat="41.6933040" lon="-8.8454460">
        <ele>6.1</ele>
        <time>2021-05-18T05:58:57Z</time>
      </trkpt>
      <trkpt lat="41.6933200" lon="-8.8454400">
        <ele>6.1</ele>
        <time>2021-05-18T05:58:58Z</time>
      </trkpt>
      <trkpt lat="41.6933270" lon="-8.8454430">
        <ele>6.1</ele>
        <time>2021-05-18T05:58:59Z</time>
      </trkpt>
      <trkpt lat="41.6933100" lon="-8.8454570">
        <ele>6.1</ele>
        <time>2021-05-18T05:59:00Z</time>
      </trkpt>
      <trkpt lat="41.6932990" lon="-8.8454550">
        <ele>6.1</ele>
        <time>2021-05-18T05:59:01Z</time>
      </trkpt>
      <trkpt lat="41.6932910" lon="-8.8454590">
        <ele>6.1</ele>
        <time>2021-05-18T05:59:02Z</time>
      </trkpt>
      <trkpt lat="41.6932860" lon="-8.8454620">
        <ele>6.1</ele>
        <time>2021-05-18T05:59:03Z</time>
      </trkpt>
      <trkpt lat="41.6932800" lon="-8.8454600">
        <ele>6.1</ele>
        <time>2021-05-18T05:59:04Z</time>
      </trkpt>
      <trkpt lat="41.6932800" lon="-8.8454450">
        <ele>6.1</ele>
        <time>2021-05-18T05:59:05Z</time>
      </trkpt>
      <trkpt lat="41.6932900" lon="-8.8454270">
        <ele>6.1</ele>
        <time>2021-05-18T05:59:06Z</time>
      </trkpt>
      <trkpt lat="41.6933010" lon="-8.8454250">
        <ele>6.1</ele>
        <time>2021-05-18T05:59:07Z</time>
      </trkpt>
      <trkpt lat="41.6932990" lon="-8.8454230">
        <ele>6.1</ele>
        <time>2021-05-18T05:59:08Z</time>
      </trkpt>
      <trkpt lat="41.6932910" lon="-8.8454260">
        <ele>6.1</ele>
        <time>2021-05-18T05:59:09Z</time>
      </trkpt>
      <trkpt lat="41.6932700" lon="-8.8454290">
        <ele>6.1</ele>
        <time>2021-05-18T05:59:10Z</time>
      </trkpt>
      <trkpt lat="41.6932520" lon="-8.8454320">
        <ele>6.1</ele>
        <time>2021-05-18T05:59:11Z</time>
      </trkpt>
      <trkpt lat="41.6932470" lon="-8.8454400">
        <ele>6.1</ele>
        <time>2021-05-18T05:59:12Z</time>
      </trkpt>
      <trkpt lat="41.6932410" lon="-8.8454470">
        <ele>6.1</ele>
        <time>2021-05-18T05:59:13Z</time>
      </trkpt>
      <trkpt lat="41.6932360" lon="-8.8454550">
        <ele>6.1</ele>
        <time>2021-05-18T05:59:14Z</time>
      </trkpt>
      <trkpt lat="41.6932320" lon="-8.8454630">
        <ele>6.1</ele>
        <time>2021-05-18T05:59:15Z</time>
      </trkpt>
      <trkpt lat="41.6932320" lon="-8.8454630">
        <ele>6.1</ele>
        <time>2021-05-18T05:59:16Z</time>
      </trkpt>
      <trkpt lat="41.6932370" lon="-8.8454600">
        <ele>6.1</ele>
        <time>2021-05-18T05:59:17Z</time>
      </trkpt>
      <trkpt lat="41.6932290" lon="-8.8454550">
        <ele>6.1</ele>
        <time>2021-05-18T05:59:18Z</time>
      </trkpt>
      <trkpt lat="41.6932060" lon="-8.8454600">
        <ele>6.1</ele>
        <time>2021-05-18T05:59:19Z</time>
      </trkpt>
      <trkpt lat="41.6931860" lon="-8.8454750">
        <ele>6.1</ele>
        <time>2021-05-18T05:59:20Z</time>
      </trkpt>
      <trkpt lat="41.6931780" lon="-8.8454810">
        <ele>6.1</ele>
        <time>2021-05-18T05:59:21Z</time>
      </trkpt>
      <trkpt lat="41.6931710" lon="-8.8454860">
        <ele>6.1</ele>
        <time>2021-05-18T05:59:22Z</time>
      </trkpt>
      <trkpt lat="41.6931540" lon="-8.8454930">
        <ele>6.1</ele>
        <time>2021-05-18T05:59:23Z</time>
      </trkpt>
      <trkpt lat="41.6931580" lon="-8.8454880">
        <ele>6.1</ele>
        <time>2021-05-18T05:59:24Z</time>
      </trkpt>
      <trkpt lat="41.6931620" lon="-8.8454820">
        <ele>6.1</ele>
        <time>2021-05-18T05:59:25Z</time>
      </trkpt>
      <trkpt lat="41.6931660" lon="-8.8454770">
        <ele>6.1</ele>
        <time>2021-05-18T05:59:26Z</time>
      </trkpt>
      <trkpt lat="41.6931700" lon="-8.8454720">
        <ele>6.1</ele>
        <time>2021-05-18T05:59:27Z</time>
      </trkpt>
      <trkpt lat="41.6931730" lon="-8.8454670">
        <ele>6.1</ele>
        <time>2021-05-18T05:59:28Z</time>
      </trkpt>
      <trkpt lat="41.6931770" lon="-8.8454620">
        <ele>6.1</ele>
        <time>2021-05-18T05:59:29Z</time>
      </trkpt>
      <trkpt lat="41.6931810" lon="-8.8454570">
        <ele>6.1</ele>
        <time>2021-05-18T05:59:30Z</time>
      </trkpt>
      <trkpt lat="41.6931850" lon="-8.8454510">
        <ele>6.1</ele>
        <time>2021-05-18T05:59:31Z</time>
      </trkpt>
      <trkpt lat="41.6931890" lon="-8.8454460">
        <ele>6.1</ele>
        <time>2021-05-18T05:59:32Z</time>
      </trkpt>
      <trkpt lat="41.6931930" lon="-8.8454410">
        <ele>6.1</ele>
        <time>2021-05-18T05:59:33Z</time>
      </trkpt>
      <trkpt lat="41.6932050" lon="-8.8454410">
        <ele>6.1</ele>
        <time>2021-05-18T05:59:34Z</time>
      </trkpt>
      <trkpt lat="41.6932250" lon="-8.8454360">
        <ele>6.1</ele>
        <time>2021-05-18T05:59:35Z</time>
      </trkpt>
      <trkpt lat="41.6932300" lon="-8.8454390">
        <ele>6.1</ele>
        <time>2021-05-18T05:59:36Z</time>
      </trkpt>
      <trkpt lat="41.6932350" lon="-8.8454540">
        <ele>6.1</ele>
        <time>2021-05-18T05:59:37Z</time>
      </trkpt>
      <trkpt lat="41.6932450" lon="-8.8454490">
        <ele>6.1</ele>
        <time>2021-05-18T05:59:38Z</time>
      </trkpt>
      <trkpt lat="41.6932490" lon="-8.8454550">
        <ele>6.1</ele>
        <time>2021-05-18T05:59:39Z</time>
      </trkpt>
      <trkpt lat="41.6932510" lon="-8.8454520">
        <ele>6.1</ele>
        <time>2021-05-18T05:59:40Z</time>
      </trkpt>
      <trkpt lat="41.6932620" lon="-8.8454480">
        <ele>6.1</ele>
        <time>2021-05-18T05:59:41Z</time>
      </trkpt>
      <trkpt lat="41.6932700" lon="-8.8454460">
        <ele>6.1</ele>
        <time>2021-05-18T05:59:42Z</time>
      </trkpt>
      <trkpt lat="41.6932750" lon="-8.8454400">
        <ele>6.1</ele>
        <time>2021-05-18T05:59:43Z</time>
      </trkpt>
      <trkpt lat="41.6932820" lon="-8.8454240">
        <ele>6.1</ele>
        <time>2021-05-18T05:59:44Z</time>
      </trkpt>
      <trkpt lat="41.6932860" lon="-8.8454190">
        <ele>6.1</ele>
        <time>2021-05-18T05:59:45Z</time>
      </trkpt>
      <trkpt lat="41.6932910" lon="-8.8454130">
        <ele>6.1</ele>
        <time>2021-05-18T05:59:46Z</time>
      </trkpt>
      <trkpt lat="41.6932950" lon="-8.8454080">
        <ele>6.1</ele>
        <time>2021-05-18T05:59:47Z</time>
      </trkpt>
      <trkpt lat="41.6932990" lon="-8.8454020">
        <ele>6.1</ele>
        <time>2021-05-18T05:59:48Z</time>
      </trkpt>
      <trkpt lat="41.6932990" lon="-8.8454020">
        <ele>6.1</ele>
        <time>2021-05-18T05:59:49Z</time>
      </trkpt>
      <trkpt lat="41.6933120" lon="-8.8453990">
        <ele>6.1</ele>
        <time>2021-05-18T05:59:50Z</time>
      </trkpt>
      <trkpt lat="41.6932990" lon="-8.8454180">
        <ele>6.1</ele>
        <time>2021-05-18T05:59:51Z</time>
      </trkpt>
      <trkpt lat="41.6932810" lon="-8.8454380">
        <ele>6.1</ele>
        <time>2021-05-18T05:59:52Z</time>
      </trkpt>
      <trkpt lat="41.6932930" lon="-8.8454420">
        <ele>6.1</ele>
        <time>2021-05-18T05:59:53Z</time>
      </trkpt>
      <trkpt lat="41.6932930" lon="-8.8454450">
        <ele>6.1</ele>
        <time>2021-05-18T05:59:54Z</time>
      </trkpt>
      <trkpt lat="41.6932890" lon="-8.8454570">
        <ele>6.1</ele>
        <time>2021-05-18T05:59:55Z</time>
      </trkpt>
      <trkpt lat="41.6932850" lon="-8.8454670">
        <ele>6.1</ele>
        <time>2021-05-18T05:59:56Z</time>
      </trkpt>
      <trkpt lat="41.6932770" lon="-8.8454700">
        <ele>6.1</ele>
        <time>2021-05-18T05:59:57Z</time>
      </trkpt>
      <trkpt lat="41.6932630" lon="-8.8454530">
        <ele>6.1</ele>
        <time>2021-05-18T05:59:58Z</time>
      </trkpt>
      <trkpt lat="41.6932560" lon="-8.8454520">
        <ele>6.1</ele>
        <time>2021-05-18T05:59:59Z</time>
      </trkpt>
      <trkpt lat="41.6932750" lon="-8.8454400">
        <ele>6.1</ele>
        <time>2021-05-18T06:00:00Z</time>
      </trkpt>
      <trkpt lat="41.6932830" lon="-8.8454370">
        <ele>6.1</ele>
        <time>2021-05-18T06:00:01Z</time>
      </trkpt>
      <trkpt lat="41.6932800" lon="-8.8454430">
        <ele>6.1</ele>
        <time>2021-05-18T06:00:02Z</time>
      </trkpt>
      <trkpt lat="41.6932830" lon="-8.8454460">
        <ele>6.1</ele>
        <time>2021-05-18T06:00:03Z</time>
      </trkpt>
      <trkpt lat="41.6932920" lon="-8.8454380">
        <ele>6.1</ele>
        <time>2021-05-18T06:00:04Z</time>
      </trkpt>
      <trkpt lat="41.6932970" lon="-8.8454300">
        <ele>6.1</ele>
        <time>2021-05-18T06:00:05Z</time>
      </trkpt>
      <trkpt lat="41.6933130" lon="-8.8454200">
        <ele>6.1</ele>
        <time>2021-05-18T06:00:06Z</time>
      </trkpt>
      <trkpt lat="41.6933110" lon="-8.8454250">
        <ele>6.1</ele>
        <time>2021-05-18T06:00:07Z</time>
      </trkpt>
      <trkpt lat="41.6933270" lon="-8.8454160">
        <ele>6.1</ele>
        <time>2021-05-18T06:00:08Z</time>
      </trkpt>
      <trkpt lat="41.6933180" lon="-8.8454290">
        <ele>6.1</ele>
        <time>2021-05-18T06:00:09Z</time>
      </trkpt>
      <trkpt lat="41.6933210" lon="-8.8454200">
        <ele>6.1</ele>
        <time>2021-05-18T06:00:10Z</time>
      </trkpt>
      <trkpt lat="41.6933150" lon="-8.8454240">
        <ele>6.1</ele>
        <time>2021-05-18T06:00:11Z</time>
      </trkpt>
      <trkpt lat="41.6933140" lon="-8.8454240">
        <ele>6.1</ele>
        <time>2021-05-18T06:00:12Z</time>
      </trkpt>
      <trkpt lat="41.6932920" lon="-8.8454470">
        <ele>6.1</ele>
        <time>2021-05-18T06:00:13Z</time>
      </trkpt>
      <trkpt lat="41.6932970" lon="-8.8454410">
        <ele>6.1</ele>
        <time>2021-05-18T06:00:14Z</time>
      </trkpt>
      <trkpt lat="41.6932900" lon="-8.8454450">
        <ele>6.1</ele>
        <time>2021-05-18T06:00:15Z</time>
      </trkpt>
      <trkpt lat="41.6932790" lon="-8.8454430">
        <ele>6.1</ele>
        <time>2021-05-18T06:00:16Z</time>
      </trkpt>
      <trkpt lat="41.6932720" lon="-8.8454450">
        <ele>6.1</ele>
        <time>2021-05-18T06:00:17Z</time>
      </trkpt>
      <trkpt lat="41.6932620" lon="-8.8454580">
        <ele>6.1</ele>
        <time>2021-05-18T06:00:18Z</time>
      </trkpt>
      <trkpt lat="41.6932610" lon="-8.8454670">
        <ele>6.1</ele>
        <time>2021-05-18T06:00:19Z</time>
      </trkpt>
      <trkpt lat="41.6932580" lon="-8.8454720">
        <ele>6.1</ele>
        <time>2021-05-18T06:00:20Z</time>
      </trkpt>
      <trkpt lat="41.6932540" lon="-8.8454780">
        <ele>6.1</ele>
        <time>2021-05-18T06:00:21Z</time>
      </trkpt>
      <trkpt lat="41.6932510" lon="-8.8454840">
        <ele>6.1</ele>
        <time>2021-05-18T06:00:22Z</time>
      </trkpt>
      <trkpt lat="41.6932470" lon="-8.8454900">
        <ele>6.1</ele>
        <time>2021-05-18T06:00:23Z</time>
      </trkpt>
      <trkpt lat="41.6932440" lon="-8.8454950">
        <ele>6.1</ele>
        <time>2021-05-18T06:00:24Z</time>
      </trkpt>
      <trkpt lat="41.6932400" lon="-8.8455010">
        <ele>6.1</ele>
        <time>2021-05-18T06:00:25Z</time>
      </trkpt>
      <trkpt lat="41.6932360" lon="-8.8455040">
        <ele>6.1</ele>
        <time>2021-05-18T06:00:26Z</time>
      </trkpt>
      <trkpt lat="41.6932400" lon="-8.8455000">
        <ele>6.1</ele>
        <time>2021-05-18T06:00:27Z</time>
      </trkpt>
      <trkpt lat="41.6932450" lon="-8.8454900">
        <ele>6.1</ele>
        <time>2021-05-18T06:00:28Z</time>
      </trkpt>
      <trkpt lat="41.6932360" lon="-8.8454880">
        <ele>6.1</ele>
        <time>2021-05-18T06:00:29Z</time>
      </trkpt>
      <trkpt lat="41.6932380" lon="-8.8454920">
        <ele>6.1</ele>
        <time>2021-05-18T06:00:30Z</time>
      </trkpt>
      <trkpt lat="41.6932470" lon="-8.8454830">
        <ele>6.1</ele>
        <time>2021-05-18T06:00:31Z</time>
      </trkpt>
      <trkpt lat="41.6932390" lon="-8.8454870">
        <ele>6.1</ele>
        <time>2021-05-18T06:00:32Z</time>
      </trkpt>
      <trkpt lat="41.6932300" lon="-8.8454950">
        <ele>6.1</ele>
        <time>2021-05-18T06:00:33Z</time>
      </trkpt>
      <trkpt lat="41.6932280" lon="-8.8454940">
        <ele>6.1</ele>
        <time>2021-05-18T06:00:34Z</time>
      </trkpt>
      <trkpt lat="41.6932160" lon="-8.8454990">
        <ele>6.1</ele>
        <time>2021-05-18T06:00:35Z</time>
      </trkpt>
      <trkpt lat="41.6932100" lon="-8.8454940">
        <ele>6.1</ele>
        <time>2021-05-18T06:00:36Z</time>
      </trkpt>
      <trkpt lat="41.6932150" lon="-8.8454900">
        <ele>6.1</ele>
        <time>2021-05-18T06:00:37Z</time>
      </trkpt>
      <trkpt lat="41.6932110" lon="-8.8454960">
        <ele>6.1</ele>
        <time>2021-05-18T06:00:38Z</time>
      </trkpt>
      <trkpt lat="41.6932090" lon="-8.8454930">
        <ele>6.1</ele>
        <time>2021-05-18T06:00:39Z</time>
      </trkpt>
      <trkpt lat="41.6932180" lon="-8.8454910">
        <ele>6.1</ele>
        <time>2021-05-18T06:00:40Z</time>
      </trkpt>
      <trkpt lat="41.6932140" lon="-8.8454890">
        <ele>6.1</ele>
        <time>2021-05-18T06:00:41Z</time>
      </trkpt>
      <trkpt lat="41.6932060" lon="-8.8454780">
        <ele>6.1</ele>
        <time>2021-05-18T06:00:42Z</time>
      </trkpt>
      <trkpt lat="41.6932080" lon="-8.8454730">
        <ele>6.1</ele>
        <time>2021-05-18T06:00:43Z</time>
      </trkpt>
      <trkpt lat="41.6932080" lon="-8.8454730">
        <ele>6.1</ele>
        <time>2021-05-18T06:00:44Z</time>
      </trkpt>
      <trkpt lat="41.6932140" lon="-8.8454660">
        <ele>6.1</ele>
        <time>2021-05-18T06:00:45Z</time>
      </trkpt>
      <trkpt lat="41.6932180" lon="-8.8454560">
        <ele>6.1</ele>
        <time>2021-05-18T06:00:46Z</time>
      </trkpt>
      <trkpt lat="41.6932200" lon="-8.8454530">
        <ele>6.1</ele>
        <time>2021-05-18T06:00:47Z</time>
      </trkpt>
      <trkpt lat="41.6932300" lon="-8.8454410">
        <ele>6.1</ele>
        <time>2021-05-18T06:00:48Z</time>
      </trkpt>
      <trkpt lat="41.6932340" lon="-8.8454380">
        <ele>6.1</ele>
        <time>2021-05-18T06:00:49Z</time>
      </trkpt>
      <trkpt lat="41.6932340" lon="-8.8454430">
        <ele>6.1</ele>
        <time>2021-05-18T06:00:50Z</time>
      </trkpt>
      <trkpt lat="41.6932320" lon="-8.8454520">
        <ele>6.1</ele>
        <time>2021-05-18T06:00:51Z</time>
      </trkpt>
      <trkpt lat="41.6932230" lon="-8.8454620">
        <ele>6.1</ele>
        <time>2021-05-18T06:00:52Z</time>
      </trkpt>
      <trkpt lat="41.6932310" lon="-8.8454650">
        <ele>6.1</ele>
        <time>2021-05-18T06:00:53Z</time>
      </trkpt>
      <trkpt lat="41.6932140" lon="-8.8454580">
        <ele>6.1</ele>
        <time>2021-05-18T06:00:54Z</time>
      </trkpt>
      <trkpt lat="41.6932380" lon="-8.8454440">
        <ele>6.1</ele>
        <time>2021-05-18T06:00:55Z</time>
      </trkpt>
      <trkpt lat="41.6932340" lon="-8.8454400">
        <ele>6.1</ele>
        <time>2021-05-18T06:00:56Z</time>
      </trkpt>
      <trkpt lat="41.6932290" lon="-8.8454390">
        <ele>6.1</ele>
        <time>2021-05-18T06:00:57Z</time>
      </trkpt>
      <trkpt lat="41.6932310" lon="-8.8454250">
        <ele>6.1</ele>
        <time>2021-05-18T06:00:58Z</time>
      </trkpt>
      <trkpt lat="41.6932010" lon="-8.8454350">
        <ele>6.1</ele>
        <time>2021-05-18T06:01:00Z</time>
      </trkpt>
      <trkpt lat="41.6931950" lon="-8.8454410">
        <ele>6.1</ele>
        <time>2021-05-18T06:01:01Z</time>
      </trkpt>
      <trkpt lat="41.6931980" lon="-8.8454600">
        <ele>6.1</ele>
        <time>2021-05-18T06:01:02Z</time>
      </trkpt>
      <trkpt lat="41.6931960" lon="-8.8454710">
        <ele>6.1</ele>
        <time>2021-05-18T06:01:03Z</time>
      </trkpt>
      <trkpt lat="41.6932020" lon="-8.8454720">
        <ele>6.1</ele>
        <time>2021-05-18T06:01:04Z</time>
      </trkpt>
      <trkpt lat="41.6932090" lon="-8.8454670">
        <ele>6.1</ele>
        <time>2021-05-18T06:01:05Z</time>
      </trkpt>
      <trkpt lat="41.6932010" lon="-8.8454820">
        <ele>6.1</ele>
        <time>2021-05-18T06:01:06Z</time>
      </trkpt>
      <trkpt lat="41.6931960" lon="-8.8454740">
        <ele>6.1</ele>
        <time>2021-05-18T06:01:07Z</time>
      </trkpt>
      <trkpt lat="41.6931940" lon="-8.8454720">
        <ele>6.1</ele>
        <time>2021-05-18T06:01:08Z</time>
      </trkpt>
      <trkpt lat="41.6931950" lon="-8.8454800">
        <ele>6.1</ele>
        <time>2021-05-18T06:01:09Z</time>
      </trkpt>
      <trkpt lat="41.6931950" lon="-8.8454730">
        <ele>6.1</ele>
        <time>2021-05-18T06:01:10Z</time>
      </trkpt>
      <trkpt lat="41.6932240" lon="-8.8454450">
        <ele>6.1</ele>
        <time>2021-05-18T06:01:11Z</time>
      </trkpt>
      <trkpt lat="41.6932380" lon="-8.8454160">
        <ele>6.1</ele>
        <time>2021-05-18T06:01:12Z</time>
      </trkpt>
      <trkpt lat="41.6932390" lon="-8.8454070">
        <ele>6.1</ele>
        <time>2021-05-18T06:01:13Z</time>
      </trkpt>
      <trkpt lat="41.6932400" lon="-8.8453990">
        <ele>6.1</ele>
        <time>2021-05-18T06:01:14Z</time>
      </trkpt>
      <trkpt lat="41.6932370" lon="-8.8453920">
        <ele>6.1</ele>
        <time>2021-05-18T06:01:15Z</time>
      </trkpt>
      <trkpt lat="41.6932620" lon="-8.8453940">
        <ele>6.1</ele>
        <time>2021-05-18T06:01:16Z</time>
      </trkpt>
      <trkpt lat="41.6932740" lon="-8.8453880">
        <ele>6.1</ele>
        <time>2021-05-18T06:01:17Z</time>
      </trkpt>
      <trkpt lat="41.6932760" lon="-8.8453860">
        <ele>6.1</ele>
        <time>2021-05-18T06:01:18Z</time>
      </trkpt>
      <trkpt lat="41.6932850" lon="-8.8453990">
        <ele>6.1</ele>
        <time>2021-05-18T06:01:19Z</time>
      </trkpt>
      <trkpt lat="41.6932930" lon="-8.8454070">
        <ele>6.1</ele>
        <time>2021-05-18T06:01:20Z</time>
      </trkpt>
      <trkpt lat="41.6932940" lon="-8.8454160">
        <ele>6.1</ele>
        <time>2021-05-18T06:01:21Z</time>
      </trkpt>
      <trkpt lat="41.6932970" lon="-8.8454300">
        <ele>6.0</ele>
        <time>2021-05-18T06:01:22Z</time>
      </trkpt>
      <trkpt lat="41.6932960" lon="-8.8454350">
        <ele>6.0</ele>
        <time>2021-05-18T06:01:23Z</time>
      </trkpt>
      <trkpt lat="41.6932980" lon="-8.8454380">
        <ele>6.0</ele>
        <time>2021-05-18T06:01:24Z</time>
      </trkpt>
      <trkpt lat="41.6933000" lon="-8.8454410">
        <ele>6.0</ele>
        <time>2021-05-18T06:01:25Z</time>
      </trkpt>
      <trkpt lat="41.6932950" lon="-8.8454540">
        <ele>6.0</ele>
        <time>2021-05-18T06:01:26Z</time>
      </trkpt>
      <trkpt lat="41.6932880" lon="-8.8454630">
        <ele>6.0</ele>
        <time>2021-05-18T06:01:27Z</time>
      </trkpt>
      <trkpt lat="41.6932840" lon="-8.8454650">
        <ele>6.0</ele>
        <time>2021-05-18T06:01:28Z</time>
      </trkpt>
      <trkpt lat="41.6932740" lon="-8.8454710">
        <ele>6.0</ele>
        <time>2021-05-18T06:01:29Z</time>
      </trkpt>
      <trkpt lat="41.6932800" lon="-8.8454700">
        <ele>6.0</ele>
        <time>2021-05-18T06:01:30Z</time>
      </trkpt>
      <trkpt lat="41.6932890" lon="-8.8454630">
        <ele>6.0</ele>
        <time>2021-05-18T06:01:31Z</time>
      </trkpt>
      <trkpt lat="41.6932980" lon="-8.8454510">
        <ele>6.0</ele>
        <time>2021-05-18T06:01:32Z</time>
      </trkpt>
      <trkpt lat="41.6933130" lon="-8.8454500">
        <ele>6.0</ele>
        <time>2021-05-18T06:01:33Z</time>
      </trkpt>
      <trkpt lat="41.6933260" lon="-8.8454330">
        <ele>6.0</ele>
        <time>2021-05-18T06:01:34Z</time>
      </trkpt>
      <trkpt lat="41.6933420" lon="-8.8454330">
        <ele>6.0</ele>
        <time>2021-05-18T06:01:35Z</time>
      </trkpt>
      <trkpt lat="41.6933340" lon="-8.8454240">
        <ele>6.0</ele>
        <time>2021-05-18T06:01:36Z</time>
      </trkpt>
      <trkpt lat="41.6933340" lon="-8.8454150">
        <ele>6.0</ele>
        <time>2021-05-18T06:01:37Z</time>
      </trkpt>
      <trkpt lat="41.6933380" lon="-8.8454030">
        <ele>6.0</ele>
        <time>2021-05-18T06:01:38Z</time>
      </trkpt>
      <trkpt lat="41.6933360" lon="-8.8453970">
        <ele>6.0</ele>
        <time>2021-05-18T06:01:39Z</time>
      </trkpt>
      <trkpt lat="41.6933610" lon="-8.8453790">
        <ele>6.0</ele>
        <time>2021-05-18T06:01:40Z</time>
      </trkpt>
      <trkpt lat="41.6933710" lon="-8.8453690">
        <ele>6.0</ele>
        <time>2021-05-18T06:01:41Z</time>
      </trkpt>
      <trkpt lat="41.6933860" lon="-8.8453610">
        <ele>6.0</ele>
        <time>2021-05-18T06:01:42Z</time>
      </trkpt>
      <trkpt lat="41.6933930" lon="-8.8453630">
        <ele>6.0</ele>
        <time>2021-05-18T06:01:43Z</time>
      </trkpt>
      <trkpt lat="41.6934000" lon="-8.8453650">
        <ele>6.0</ele>
        <time>2021-05-18T06:01:44Z</time>
      </trkpt>
      <trkpt lat="41.6934070" lon="-8.8453670">
        <ele>6.0</ele>
        <time>2021-05-18T06:01:45Z</time>
      </trkpt>
      <trkpt lat="41.6933760" lon="-8.8453780">
        <ele>6.0</ele>
        <time>2021-05-18T06:01:46Z</time>
      </trkpt>
      <trkpt lat="41.6933610" lon="-8.8453820">
        <ele>6.0</ele>
        <time>2021-05-18T06:01:47Z</time>
      </trkpt>
      <trkpt lat="41.6933300" lon="-8.8453960">
        <ele>6.0</ele>
        <time>2021-05-18T06:01:48Z</time>
      </trkpt>
      <trkpt lat="41.6933010" lon="-8.8454050">
        <ele>6.0</ele>
        <time>2021-05-18T06:01:49Z</time>
      </trkpt>
      <trkpt lat="41.6933050" lon="-8.8454110">
        <ele>6.0</ele>
        <time>2021-05-18T06:01:50Z</time>
      </trkpt>
      <trkpt lat="41.6933100" lon="-8.8454280">
        <ele>6.0</ele>
        <time>2021-05-18T06:01:51Z</time>
      </trkpt>
      <trkpt lat="41.6933070" lon="-8.8454410">
        <ele>6.0</ele>
        <time>2021-05-18T06:01:52Z</time>
      </trkpt>
      <trkpt lat="41.6933050" lon="-8.8454600">
        <ele>6.0</ele>
        <time>2021-05-18T06:01:53Z</time>
      </trkpt>
      <trkpt lat="41.6933080" lon="-8.8454780">
        <ele>6.0</ele>
        <time>2021-05-18T06:01:54Z</time>
      </trkpt>
      <trkpt lat="41.6933100" lon="-8.8455140">
        <ele>6.0</ele>
        <time>2021-05-18T06:01:55Z</time>
      </trkpt>
      <trkpt lat="41.6933100" lon="-8.8455250">
        <ele>6.0</ele>
        <time>2021-05-18T06:01:56Z</time>
      </trkpt>
      <trkpt lat="41.6933110" lon="-8.8455360">
        <ele>6.0</ele>
        <time>2021-05-18T06:01:57Z</time>
      </trkpt>
      <trkpt lat="41.6933170" lon="-8.8455720">
        <ele>6.0</ele>
        <time>2021-05-18T06:01:59Z</time>
      </trkpt>
      <trkpt lat="41.6933240" lon="-8.8455760">
        <ele>6.0</ele>
        <time>2021-05-18T06:02:00Z</time>
      </trkpt>
      <trkpt lat="41.6933320" lon="-8.8455950">
        <ele>6.0</ele>
        <time>2021-05-18T06:02:01Z</time>
      </trkpt>
      <trkpt lat="41.6933310" lon="-8.8456050">
        <ele>6.0</ele>
        <time>2021-05-18T06:02:03Z</time>
      </trkpt>
      <trkpt lat="41.6933290" lon="-8.8456300">
        <ele>6.0</ele>
        <time>2021-05-18T06:02:04Z</time>
      </trkpt>
      <trkpt lat="41.6933340" lon="-8.8456500">
        <ele>6.0</ele>
        <time>2021-05-18T06:02:05Z</time>
      </trkpt>
      <trkpt lat="41.6933280" lon="-8.8456630">
        <ele>6.0</ele>
        <time>2021-05-18T06:02:06Z</time>
      </trkpt>
      <trkpt lat="41.6933290" lon="-8.8456880">
        <ele>6.0</ele>
        <time>2021-05-18T06:02:07Z</time>
      </trkpt>
      <trkpt lat="41.6933350" lon="-8.8457040">
        <ele>6.0</ele>
        <time>2021-05-18T06:02:08Z</time>
      </trkpt>
      <trkpt lat="41.6933320" lon="-8.8457250">
        <ele>6.0</ele>
        <time>2021-05-18T06:02:09Z</time>
      </trkpt>
      <trkpt lat="41.6933350" lon="-8.8457450">
        <ele>6.0</ele>
        <time>2021-05-18T06:02:10Z</time>
      </trkpt>
      <trkpt lat="41.6933160" lon="-8.8457660">
        <ele>6.0</ele>
        <time>2021-05-18T06:02:11Z</time>
      </trkpt>
      <trkpt lat="41.6933180" lon="-8.8457870">
        <ele>6.0</ele>
        <time>2021-05-18T06:02:12Z</time>
      </trkpt>
      <trkpt lat="41.6933200" lon="-8.8458100">
        <ele>6.0</ele>
        <time>2021-05-18T06:02:13Z</time>
      </trkpt>
      <trkpt lat="41.6933220" lon="-8.8458390">
        <ele>6.0</ele>
        <time>2021-05-18T06:02:14Z</time>
      </trkpt>
      <trkpt lat="41.6933190" lon="-8.8458540">
        <ele>5.9</ele>
        <time>2021-05-18T06:02:15Z</time>
      </trkpt>
      <trkpt lat="41.6933330" lon="-8.8458720">
        <ele>5.9</ele>
        <time>2021-05-18T06:02:16Z</time>
      </trkpt>
      <trkpt lat="41.6933230" lon="-8.8458900">
        <ele>5.9</ele>
        <time>2021-05-18T06:02:17Z</time>
      </trkpt>
      <trkpt lat="41.6933250" lon="-8.8459110">
        <ele>5.9</ele>
        <time>2021-05-18T06:02:18Z</time>
      </trkpt>
      <trkpt lat="41.6933310" lon="-8.8459090">
        <ele>5.9</ele>
        <time>2021-05-18T06:02:19Z</time>
      </trkpt>
      <trkpt lat="41.6933270" lon="-8.8459340">
        <ele>5.9</ele>
        <time>2021-05-18T06:02:20Z</time>
      </trkpt>
      <trkpt lat="41.6933160" lon="-8.8459740">
        <ele>5.9</ele>
        <time>2021-05-18T06:02:21Z</time>
      </trkpt>
      <trkpt lat="41.6933120" lon="-8.8459890">
        <ele>5.9</ele>
        <time>2021-05-18T06:02:22Z</time>
      </trkpt>
      <trkpt lat="41.6933100" lon="-8.8460160">
        <ele>5.9</ele>
        <time>2021-05-18T06:02:23Z</time>
      </trkpt>
      <trkpt lat="41.6933100" lon="-8.8460300">
        <ele>5.9</ele>
        <time>2021-05-18T06:02:24Z</time>
      </trkpt>
      <trkpt lat="41.6933090" lon="-8.8460440">
        <ele>5.9</ele>
        <time>2021-05-18T06:02:25Z</time>
      </trkpt>
      <trkpt lat="41.6933060" lon="-8.8460820">
        <ele>5.9</ele>
        <time>2021-05-18T06:02:26Z</time>
      </trkpt>
      <trkpt lat="41.6933060" lon="-8.8460970">
        <ele>5.9</ele>
        <time>2021-05-18T06:02:27Z</time>
      </trkpt>
      <trkpt lat="41.6933070" lon="-8.8461130">
        <ele>5.9</ele>
        <time>2021-05-18T06:02:28Z</time>
      </trkpt>
      <trkpt lat="41.6933090" lon="-8.8461370">
        <ele>5.9</ele>
        <time>2021-05-18T06:02:29Z</time>
      </trkpt>
      <trkpt lat="41.6933110" lon="-8.8461550">
        <ele>5.9</ele>
        <time>2021-05-18T06:02:30Z</time>
      </trkpt>
      <trkpt lat="41.6933120" lon="-8.8461730">
        <ele>5.9</ele>
        <time>2021-05-18T06:02:31Z</time>
      </trkpt>
      <trkpt lat="41.6933140" lon="-8.8461880">
        <ele>5.9</ele>
        <time>2021-05-18T06:02:32Z</time>
      </trkpt>
      <trkpt lat="41.6933180" lon="-8.8462020">
        <ele>5.9</ele>
        <time>2021-05-18T06:02:33Z</time>
      </trkpt>
      <trkpt lat="41.6933210" lon="-8.8462080">
        <ele>5.9</ele>
        <time>2021-05-18T06:02:34Z</time>
      </trkpt>
      <trkpt lat="41.6933200" lon="-8.8462320">
        <ele>5.9</ele>
        <time>2021-05-18T06:02:35Z</time>
      </trkpt>
      <trkpt lat="41.6933200" lon="-8.8462490">
        <ele>5.9</ele>
        <time>2021-05-18T06:02:36Z</time>
      </trkpt>
      <trkpt lat="41.6933200" lon="-8.8462790">
        <ele>5.9</ele>
        <time>2021-05-18T06:02:37Z</time>
      </trkpt>
      <trkpt lat="41.6933200" lon="-8.8462830">
        <ele>5.9</ele>
        <time>2021-05-18T06:02:38Z</time>
      </trkpt>
      <trkpt lat="41.6933210" lon="-8.8462980">
        <ele>5.9</ele>
        <time>2021-05-18T06:02:39Z</time>
      </trkpt>
      <trkpt lat="41.6933270" lon="-8.8463260">
        <ele>5.8</ele>
        <time>2021-05-18T06:02:40Z</time>
      </trkpt>
      <trkpt lat="41.6933250" lon="-8.8463360">
        <ele>5.8</ele>
        <time>2021-05-18T06:02:41Z</time>
      </trkpt>
      <trkpt lat="41.6933240" lon="-8.8463470">
        <ele>5.8</ele>
        <time>2021-05-18T06:02:42Z</time>
      </trkpt>
      <trkpt lat="41.6933280" lon="-8.8463680">
        <ele>5.8</ele>
        <time>2021-05-18T06:02:43Z</time>
      </trkpt>
      <trkpt lat="41.6933310" lon="-8.8463830">
        <ele>5.8</ele>
        <time>2021-05-18T06:02:44Z</time>
      </trkpt>
      <trkpt lat="41.6933340" lon="-8.8464040">
        <ele>5.8</ele>
        <time>2021-05-18T06:02:45Z</time>
      </trkpt>
      <trkpt lat="41.6933370" lon="-8.8464220">
        <ele>5.8</ele>
        <time>2021-05-18T06:02:46Z</time>
      </trkpt>
      <trkpt lat="41.6933370" lon="-8.8464600">
        <ele>5.8</ele>
        <time>2021-05-18T06:02:47Z</time>
      </trkpt>
      <trkpt lat="41.6933380" lon="-8.8464700">
        <ele>5.8</ele>
        <time>2021-05-18T06:02:48Z</time>
      </trkpt>
      <trkpt lat="41.6933390" lon="-8.8464970">
        <ele>5.7</ele>
        <time>2021-05-18T06:02:49Z</time>
      </trkpt>
      <trkpt lat="41.6933380" lon="-8.8465120">
        <ele>5.7</ele>
        <time>2021-05-18T06:02:50Z</time>
      </trkpt>
      <trkpt lat="41.6933380" lon="-8.8465260">
        <ele>5.7</ele>
        <time>2021-05-18T06:02:51Z</time>
      </trkpt>
      <trkpt lat="41.6933400" lon="-8.8465450">
        <ele>5.7</ele>
        <time>2021-05-18T06:02:52Z</time>
      </trkpt>
      <trkpt lat="41.6933360" lon="-8.8465730">
        <ele>5.7</ele>
        <time>2021-05-18T06:02:53Z</time>
      </trkpt>
      <trkpt lat="41.6933360" lon="-8.8465900">
        <ele>5.7</ele>
        <time>2021-05-18T06:02:54Z</time>
      </trkpt>
      <trkpt lat="41.6933360" lon="-8.8466020">
        <ele>5.7</ele>
        <time>2021-05-18T06:02:55Z</time>
      </trkpt>
      <trkpt lat="41.6933380" lon="-8.8466220">
        <ele>5.7</ele>
        <time>2021-05-18T06:02:56Z</time>
      </trkpt>
      <trkpt lat="41.6933430" lon="-8.8466460">
        <ele>5.7</ele>
        <time>2021-05-18T06:02:57Z</time>
      </trkpt>
      <trkpt lat="41.6933450" lon="-8.8466600">
        <ele>5.7</ele>
        <time>2021-05-18T06:02:58Z</time>
      </trkpt>
      <trkpt lat="41.6933480" lon="-8.8466740">
        <ele>5.6</ele>
        <time>2021-05-18T06:02:59Z</time>
      </trkpt>
      <trkpt lat="41.6933500" lon="-8.8467030">
        <ele>5.6</ele>
        <time>2021-05-18T06:03:00Z</time>
      </trkpt>
      <trkpt lat="41.6933510" lon="-8.8467140">
        <ele>5.6</ele>
        <time>2021-05-18T06:03:01Z</time>
      </trkpt>
      <trkpt lat="41.6933530" lon="-8.8467260">
        <ele>5.6</ele>
        <time>2021-05-18T06:03:02Z</time>
      </trkpt>
      <trkpt lat="41.6933530" lon="-8.8467490">
        <ele>5.6</ele>
        <time>2021-05-18T06:03:03Z</time>
      </trkpt>
      <trkpt lat="41.6933560" lon="-8.8467890">
        <ele>5.6</ele>
        <time>2021-05-18T06:03:04Z</time>
      </trkpt>
      <trkpt lat="41.6933590" lon="-8.8468070">
        <ele>5.6</ele>
        <time>2021-05-18T06:03:05Z</time>
      </trkpt>
      <trkpt lat="41.6933610" lon="-8.8468430">
        <ele>5.6</ele>
        <time>2021-05-18T06:03:06Z</time>
      </trkpt>
      <trkpt lat="41.6933610" lon="-8.8468560">
        <ele>5.6</ele>
        <time>2021-05-18T06:03:07Z</time>
      </trkpt>
      <trkpt lat="41.6933670" lon="-8.8468770">
        <ele>5.6</ele>
        <time>2021-05-18T06:03:08Z</time>
      </trkpt>
      <trkpt lat="41.6933660" lon="-8.8468880">
        <ele>5.6</ele>
        <time>2021-05-18T06:03:09Z</time>
      </trkpt>
      <trkpt lat="41.6933660" lon="-8.8469000">
        <ele>5.6</ele>
        <time>2021-05-18T06:03:10Z</time>
      </trkpt>
      <trkpt lat="41.6933700" lon="-8.8469350">
        <ele>5.6</ele>
        <time>2021-05-18T06:03:11Z</time>
      </trkpt>
      <trkpt lat="41.6933720" lon="-8.8469500">
        <ele>5.6</ele>
        <time>2021-05-18T06:03:12Z</time>
      </trkpt>
      <trkpt lat="41.6933760" lon="-8.8469770">
        <ele>5.6</ele>
        <time>2021-05-18T06:03:13Z</time>
      </trkpt>
      <trkpt lat="41.6933760" lon="-8.8469910">
        <ele>5.6</ele>
        <time>2021-05-18T06:03:14Z</time>
      </trkpt>
      <trkpt lat="41.6933750" lon="-8.8470040">
        <ele>5.6</ele>
        <time>2021-05-18T06:03:15Z</time>
      </trkpt>
      <trkpt lat="41.6933740" lon="-8.8470180">
        <ele>5.6</ele>
        <time>2021-05-18T06:03:16Z</time>
      </trkpt>
      <trkpt lat="41.6933780" lon="-8.8470440">
        <ele>5.6</ele>
        <time>2021-05-18T06:03:17Z</time>
      </trkpt>
      <trkpt lat="41.6933800" lon="-8.8470590">
        <ele>5.6</ele>
        <time>2021-05-18T06:03:18Z</time>
      </trkpt>
      <trkpt lat="41.6933790" lon="-8.8470800">
        <ele>5.6</ele>
        <time>2021-05-18T06:03:19Z</time>
      </trkpt>
      <trkpt lat="41.6933800" lon="-8.8470860">
        <ele>5.6</ele>
        <time>2021-05-18T06:03:20Z</time>
      </trkpt>
      <trkpt lat="41.6933870" lon="-8.8471000">
        <ele>5.6</ele>
        <time>2021-05-18T06:03:21Z</time>
      </trkpt>
      <trkpt lat="41.6933910" lon="-8.8471130">
        <ele>5.6</ele>
        <time>2021-05-18T06:03:22Z</time>
      </trkpt>
      <trkpt lat="41.6933940" lon="-8.8471350">
        <ele>5.6</ele>
        <time>2021-05-18T06:03:23Z</time>
      </trkpt>
      <trkpt lat="41.6933950" lon="-8.8471520">
        <ele>5.6</ele>
        <time>2021-05-18T06:03:24Z</time>
      </trkpt>
      <trkpt lat="41.6933950" lon="-8.8471890">
        <ele>5.6</ele>
        <time>2021-05-18T06:03:25Z</time>
      </trkpt>
      <trkpt lat="41.6933960" lon="-8.8472010">
        <ele>5.6</ele>
        <time>2021-05-18T06:03:26Z</time>
      </trkpt>
      <trkpt lat="41.6933990" lon="-8.8472260">
        <ele>5.6</ele>
        <time>2021-05-18T06:03:27Z</time>
      </trkpt>
      <trkpt lat="41.6933990" lon="-8.8472380">
        <ele>5.6</ele>
        <time>2021-05-18T06:03:28Z</time>
      </trkpt>
      <trkpt lat="41.6933990" lon="-8.8472510">
        <ele>5.6</ele>
        <time>2021-05-18T06:03:29Z</time>
      </trkpt>
      <trkpt lat="41.6934000" lon="-8.8472880">
        <ele>5.6</ele>
        <time>2021-05-18T06:03:30Z</time>
      </trkpt>
      <trkpt lat="41.6934010" lon="-8.8473000">
        <ele>5.6</ele>
        <time>2021-05-18T06:03:31Z</time>
      </trkpt>
      <trkpt lat="41.6933970" lon="-8.8473160">
        <ele>5.6</ele>
        <time>2021-05-18T06:03:32Z</time>
      </trkpt>
      <trkpt lat="41.6933970" lon="-8.8473420">
        <ele>5.6</ele>
        <time>2021-05-18T06:03:33Z</time>
      </trkpt>
      <trkpt lat="41.6934070" lon="-8.8473680">
        <ele>5.6</ele>
        <time>2021-05-18T06:03:34Z</time>
      </trkpt>
      <trkpt lat="41.6934080" lon="-8.8473800">
        <ele>5.6</ele>
        <time>2021-05-18T06:03:35Z</time>
      </trkpt>
      <trkpt lat="41.6934080" lon="-8.8473930">
        <ele>5.6</ele>
        <time>2021-05-18T06:03:36Z</time>
      </trkpt>
      <trkpt lat="41.6934090" lon="-8.8474050">
        <ele>5.6</ele>
        <time>2021-05-18T06:03:37Z</time>
      </trkpt>
      <trkpt lat="41.6934140" lon="-8.8474270">
        <ele>5.6</ele>
        <time>2021-05-18T06:03:38Z</time>
      </trkpt>
      <trkpt lat="41.6934170" lon="-8.8474400">
        <ele>5.6</ele>
        <time>2021-05-18T06:03:39Z</time>
      </trkpt>
      <trkpt lat="41.6934210" lon="-8.8474660">
        <ele>5.6</ele>
        <time>2021-05-18T06:03:40Z</time>
      </trkpt>
      <trkpt lat="41.6934170" lon="-8.8474890">
        <ele>5.6</ele>
        <time>2021-05-18T06:03:41Z</time>
      </trkpt>
      <trkpt lat="41.6934190" lon="-8.8475100">
        <ele>5.6</ele>
        <time>2021-05-18T06:03:42Z</time>
      </trkpt>
      <trkpt lat="41.6934260" lon="-8.8475290">
        <ele>5.6</ele>
        <time>2021-05-18T06:03:43Z</time>
      </trkpt>
      <trkpt lat="41.6934300" lon="-8.8475420">
        <ele>5.6</ele>
        <time>2021-05-18T06:03:44Z</time>
      </trkpt>
      <trkpt lat="41.6934400" lon="-8.8475670">
        <ele>5.6</ele>
        <time>2021-05-18T06:03:45Z</time>
      </trkpt>
      <trkpt lat="41.6934440" lon="-8.8475880">
        <ele>5.6</ele>
        <time>2021-05-18T06:03:46Z</time>
      </trkpt>
      <trkpt lat="41.6934420" lon="-8.8476040">
        <ele>5.6</ele>
        <time>2021-05-18T06:03:47Z</time>
      </trkpt>
      <trkpt lat="41.6934530" lon="-8.8476270">
        <ele>5.6</ele>
        <time>2021-05-18T06:03:48Z</time>
      </trkpt>
      <trkpt lat="41.6934560" lon="-8.8476360">
        <ele>5.6</ele>
        <time>2021-05-18T06:03:49Z</time>
      </trkpt>
      <trkpt lat="41.6934650" lon="-8.8476560">
        <ele>5.6</ele>
        <time>2021-05-18T06:03:50Z</time>
      </trkpt>
      <trkpt lat="41.6934720" lon="-8.8476680">
        <ele>5.6</ele>
        <time>2021-05-18T06:03:51Z</time>
      </trkpt>
      <trkpt lat="41.6934780" lon="-8.8476810">
        <ele>5.6</ele>
        <time>2021-05-18T06:03:53Z</time>
      </trkpt>
      <trkpt lat="41.6934840" lon="-8.8476940">
        <ele>5.6</ele>
        <time>2021-05-18T06:03:54Z</time>
      </trkpt>
      <trkpt lat="41.6934910" lon="-8.8477060">
        <ele>5.6</ele>
        <time>2021-05-18T06:03:55Z</time>
      </trkpt>
      <trkpt lat="41.6934970" lon="-8.8477190">
        <ele>5.6</ele>
        <time>2021-05-18T06:03:56Z</time>
      </trkpt>
      <trkpt lat="41.6935020" lon="-8.8477350">
        <ele>5.5</ele>
        <time>2021-05-18T06:03:57Z</time>
      </trkpt>
      <trkpt lat="41.6935090" lon="-8.8477460">
        <ele>5.5</ele>
        <time>2021-05-18T06:03:58Z</time>
      </trkpt>
      <trkpt lat="41.6935170" lon="-8.8477540">
        <ele>5.5</ele>
        <time>2021-05-18T06:03:59Z</time>
      </trkpt>
      <trkpt lat="41.6935260" lon="-8.8477750">
        <ele>5.5</ele>
        <time>2021-05-18T06:04:00Z</time>
      </trkpt>
      <trkpt lat="41.6935320" lon="-8.8477970">
        <ele>5.5</ele>
        <time>2021-05-18T06:04:01Z</time>
      </trkpt>
      <trkpt lat="41.6935350" lon="-8.8478080">
        <ele>5.5</ele>
        <time>2021-05-18T06:04:02Z</time>
      </trkpt>
      <trkpt lat="41.6935370" lon="-8.8478280">
        <ele>5.5</ele>
        <time>2021-05-18T06:04:03Z</time>
      </trkpt>
      <trkpt lat="41.6935430" lon="-8.8478400">
        <ele>5.5</ele>
        <time>2021-05-18T06:04:04Z</time>
      </trkpt>
      <trkpt lat="41.6935470" lon="-8.8478530">
        <ele>5.5</ele>
        <time>2021-05-18T06:04:05Z</time>
      </trkpt>
      <trkpt lat="41.6935570" lon="-8.8478720">
        <ele>5.5</ele>
        <time>2021-05-18T06:04:06Z</time>
      </trkpt>
      <trkpt lat="41.6935600" lon="-8.8478790">
        <ele>5.5</ele>
        <time>2021-05-18T06:04:07Z</time>
      </trkpt>
      <trkpt lat="41.6935610" lon="-8.8478970">
        <ele>5.5</ele>
        <time>2021-05-18T06:04:08Z</time>
      </trkpt>
      <trkpt lat="41.6935680" lon="-8.8479130">
        <ele>5.5</ele>
        <time>2021-05-18T06:04:09Z</time>
      </trkpt>
      <trkpt lat="41.6935760" lon="-8.8479290">
        <ele>5.5</ele>
        <time>2021-05-18T06:04:10Z</time>
      </trkpt>
      <trkpt lat="41.6935850" lon="-8.8479510">
        <ele>5.5</ele>
        <time>2021-05-18T06:04:11Z</time>
      </trkpt>
      <trkpt lat="41.6936020" lon="-8.8479730">
        <ele>5.5</ele>
        <time>2021-05-18T06:04:12Z</time>
      </trkpt>
      <trkpt lat="41.6936070" lon="-8.8479820">
        <ele>5.5</ele>
        <time>2021-05-18T06:04:13Z</time>
      </trkpt>
      <trkpt lat="41.6936130" lon="-8.8479910">
        <ele>5.5</ele>
        <time>2021-05-18T06:04:14Z</time>
      </trkpt>
      <trkpt lat="41.6936240" lon="-8.8479980">
        <ele>5.5</ele>
        <time>2021-05-18T06:04:15Z</time>
      </trkpt>
      <trkpt lat="41.6936350" lon="-8.8480020">
        <ele>5.5</ele>
        <time>2021-05-18T06:04:16Z</time>
      </trkpt>
      <trkpt lat="41.6936440" lon="-8.8480160">
        <ele>5.5</ele>
        <time>2021-05-18T06:04:17Z</time>
      </trkpt>
      <trkpt lat="41.6936550" lon="-8.8480300">
        <ele>5.5</ele>
        <time>2021-05-18T06:04:18Z</time>
      </trkpt>
      <trkpt lat="41.6936640" lon="-8.8480420">
        <ele>5.5</ele>
        <time>2021-05-18T06:04:19Z</time>
      </trkpt>
      <trkpt lat="41.6936760" lon="-8.8480530">
        <ele>5.4</ele>
        <time>2021-05-18T06:04:20Z</time>
      </trkpt>
      <trkpt lat="41.6936930" lon="-8.8480640">
        <ele>5.4</ele>
        <time>2021-05-18T06:04:21Z</time>
      </trkpt>
      <trkpt lat="41.6937080" lon="-8.8480710">
        <ele>5.4</ele>
        <time>2021-05-18T06:04:22Z</time>
      </trkpt>
      <trkpt lat="41.6937230" lon="-8.8480810">
        <ele>5.4</ele>
        <time>2021-05-18T06:04:23Z</time>
      </trkpt>
      <trkpt lat="41.6937380" lon="-8.8480930">
        <ele>5.4</ele>
        <time>2021-05-18T06:04:24Z</time>
      </trkpt>
      <trkpt lat="41.6937530" lon="-8.8481080">
        <ele>5.4</ele>
        <time>2021-05-18T06:04:25Z</time>
      </trkpt>
      <trkpt lat="41.6937700" lon="-8.8481170">
        <ele>5.4</ele>
        <time>2021-05-18T06:04:26Z</time>
      </trkpt>
      <trkpt lat="41.6937870" lon="-8.8481190">
        <ele>5.4</ele>
        <time>2021-05-18T06:04:27Z</time>
      </trkpt>
      <trkpt lat="41.6938010" lon="-8.8481340">
        <ele>5.4</ele>
        <time>2021-05-18T06:04:28Z</time>
      </trkpt>
      <trkpt lat="41.6938130" lon="-8.8481440">
        <ele>5.4</ele>
        <time>2021-05-18T06:04:29Z</time>
      </trkpt>
      <trkpt lat="41.6938220" lon="-8.8481600">
        <ele>5.4</ele>
        <time>2021-05-18T06:04:30Z</time>
      </trkpt>
      <trkpt lat="41.6938340" lon="-8.8481710">
        <ele>5.4</ele>
        <time>2021-05-18T06:04:31Z</time>
      </trkpt>
      <trkpt lat="41.6938390" lon="-8.8481910">
        <ele>5.4</ele>
        <time>2021-05-18T06:04:32Z</time>
      </trkpt>
      <trkpt lat="41.6938400" lon="-8.8482020">
        <ele>5.4</ele>
        <time>2021-05-18T06:04:33Z</time>
      </trkpt>
      <trkpt lat="41.6938400" lon="-8.8482130">
        <ele>5.4</ele>
        <time>2021-05-18T06:04:34Z</time>
      </trkpt>
      <trkpt lat="41.6938400" lon="-8.8482240">
        <ele>5.4</ele>
        <time>2021-05-18T06:04:35Z</time>
      </trkpt>
      <trkpt lat="41.6938470" lon="-8.8482380">
        <ele>5.4</ele>
        <time>2021-05-18T06:04:36Z</time>
      </trkpt>
      <trkpt lat="41.6938600" lon="-8.8482630">
        <ele>5.4</ele>
        <time>2021-05-18T06:04:37Z</time>
      </trkpt>
      <trkpt lat="41.6938700" lon="-8.8482810">
        <ele>5.4</ele>
        <time>2021-05-18T06:04:38Z</time>
      </trkpt>
      <trkpt lat="41.6938810" lon="-8.8482970">
        <ele>5.3</ele>
        <time>2021-05-18T06:04:39Z</time>
      </trkpt>
      <trkpt lat="41.6938910" lon="-8.8483170">
        <ele>5.3</ele>
        <time>2021-05-18T06:04:40Z</time>
      </trkpt>
      <trkpt lat="41.6939010" lon="-8.8483370">
        <ele>5.2</ele>
        <time>2021-05-18T06:04:41Z</time>
      </trkpt>
      <trkpt lat="41.6939100" lon="-8.8483530">
        <ele>5.3</ele>
        <time>2021-05-18T06:04:42Z</time>
      </trkpt>
      <trkpt lat="41.6939190" lon="-8.8483630">
        <ele>5.3</ele>
        <time>2021-05-18T06:04:43Z</time>
      </trkpt>
      <trkpt lat="41.6939270" lon="-8.8483690">
        <ele>5.3</ele>
        <time>2021-05-18T06:04:44Z</time>
      </trkpt>
      <trkpt lat="41.6939300" lon="-8.8483830">
        <ele>5.2</ele>
        <time>2021-05-18T06:04:45Z</time>
      </trkpt>
      <trkpt lat="41.6939370" lon="-8.8483930">
        <ele>5.3</ele>
        <time>2021-05-18T06:04:46Z</time>
      </trkpt>
      <trkpt lat="41.6939530" lon="-8.8484030">
        <ele>5.3</ele>
        <time>2021-05-18T06:04:47Z</time>
      </trkpt>
      <trkpt lat="41.6939630" lon="-8.8484270">
        <ele>5.2</ele>
        <time>2021-05-18T06:04:48Z</time>
      </trkpt>
      <trkpt lat="41.6939670" lon="-8.8484460">
        <ele>5.2</ele>
        <time>2021-05-18T06:04:49Z</time>
      </trkpt>
      <trkpt lat="41.6939710" lon="-8.8484650">
        <ele>5.1</ele>
        <time>2021-05-18T06:04:50Z</time>
      </trkpt>
      <trkpt lat="41.6939860" lon="-8.8484780">
        <ele>5.2</ele>
        <time>2021-05-18T06:04:51Z</time>
      </trkpt>
      <trkpt lat="41.6939980" lon="-8.8484920">
        <ele>5.2</ele>
        <time>2021-05-18T06:04:52Z</time>
      </trkpt>
      <trkpt lat="41.6940090" lon="-8.8485050">
        <ele>5.1</ele>
        <time>2021-05-18T06:04:53Z</time>
      </trkpt>
      <trkpt lat="41.6940230" lon="-8.8485130">
        <ele>5.1</ele>
        <time>2021-05-18T06:04:54Z</time>
      </trkpt>
      <trkpt lat="41.6940340" lon="-8.8485250">
        <ele>5.2</ele>
        <time>2021-05-18T06:04:55Z</time>
      </trkpt>
      <trkpt lat="41.6940490" lon="-8.8485320">
        <ele>5.2</ele>
        <time>2021-05-18T06:04:56Z</time>
      </trkpt>
      <trkpt lat="41.6940620" lon="-8.8485430">
        <ele>5.2</ele>
        <time>2021-05-18T06:04:57Z</time>
      </trkpt>
      <trkpt lat="41.6940750" lon="-8.8485550">
        <ele>5.1</ele>
        <time>2021-05-18T06:04:58Z</time>
      </trkpt>
      <trkpt lat="41.6940870" lon="-8.8485670">
        <ele>5.1</ele>
        <time>2021-05-18T06:04:59Z</time>
      </trkpt>
      <trkpt lat="41.6940990" lon="-8.8485790">
        <ele>5.2</ele>
        <time>2021-05-18T06:05:00Z</time>
      </trkpt>
      <trkpt lat="41.6941080" lon="-8.8485910">
        <ele>5.1</ele>
        <time>2021-05-18T06:05:01Z</time>
      </trkpt>
      <trkpt lat="41.6941110" lon="-8.8486060">
        <ele>5.1</ele>
        <time>2021-05-18T06:05:02Z</time>
      </trkpt>
      <trkpt lat="41.6941120" lon="-8.8486200">
        <ele>5.1</ele>
        <time>2021-05-18T06:05:03Z</time>
      </trkpt>
      <trkpt lat="41.6941180" lon="-8.8486200">
        <ele>5.2</ele>
        <time>2021-05-18T06:05:04Z</time>
      </trkpt>
      <trkpt lat="41.6941200" lon="-8.8486150">
        <ele>5.2</ele>
        <time>2021-05-18T06:05:05Z</time>
      </trkpt>
      <trkpt lat="41.6941180" lon="-8.8486140">
        <ele>5.2</ele>
        <time>2021-05-18T06:05:06Z</time>
      </trkpt>
      <trkpt lat="41.6941130" lon="-8.8486140">
        <ele>5.2</ele>
        <time>2021-05-18T06:05:07Z</time>
      </trkpt>
      <trkpt lat="41.6941080" lon="-8.8486130">
        <ele>5.2</ele>
        <time>2021-05-18T06:05:08Z</time>
      </trkpt>
      <trkpt lat="41.6941030" lon="-8.8486150">
        <ele>5.3</ele>
        <time>2021-05-18T06:05:09Z</time>
      </trkpt>
      <trkpt lat="41.6940970" lon="-8.8486250">
        <ele>5.3</ele>
        <time>2021-05-18T06:05:10Z</time>
      </trkpt>
      <trkpt lat="41.6940940" lon="-8.8486360">
        <ele>5.2</ele>
        <time>2021-05-18T06:05:11Z</time>
      </trkpt>
      <trkpt lat="41.6940910" lon="-8.8486450">
        <ele>5.2</ele>
        <time>2021-05-18T06:05:12Z</time>
      </trkpt>
      <trkpt lat="41.6940890" lon="-8.8486560">
        <ele>5.2</ele>
        <time>2021-05-18T06:05:13Z</time>
      </trkpt>
      <trkpt lat="41.6940890" lon="-8.8486660">
        <ele>5.2</ele>
        <time>2021-05-18T06:05:14Z</time>
      </trkpt>
      <trkpt lat="41.6940890" lon="-8.8486760">
        <ele>5.1</ele>
        <time>2021-05-18T06:05:15Z</time>
      </trkpt>
      <trkpt lat="41.6940890" lon="-8.8486860">
        <ele>5.1</ele>
        <time>2021-05-18T06:05:16Z</time>
      </trkpt>
      <trkpt lat="41.6940890" lon="-8.8486970">
        <ele>5.2</ele>
        <time>2021-05-18T06:05:17Z</time>
      </trkpt>
      <trkpt lat="41.6940890" lon="-8.8487110">
        <ele>5.2</ele>
        <time>2021-05-18T06:05:18Z</time>
      </trkpt>
      <trkpt lat="41.6940850" lon="-8.8487220">
        <ele>5.1</ele>
        <time>2021-05-18T06:05:19Z</time>
      </trkpt>
      <trkpt lat="41.6940860" lon="-8.8487230">
        <ele>5.1</ele>
        <time>2021-05-18T06:05:20Z</time>
      </trkpt>
      <trkpt lat="41.6940900" lon="-8.8487350">
        <ele>5.1</ele>
        <time>2021-05-18T06:05:21Z</time>
      </trkpt>
      <trkpt lat="41.6940910" lon="-8.8487420">
        <ele>5.2</ele>
        <time>2021-05-18T06:05:22Z</time>
      </trkpt>
      <trkpt lat="41.6940920" lon="-8.8487480">
        <ele>5.2</ele>
        <time>2021-05-18T06:05:23Z</time>
      </trkpt>
      <trkpt lat="41.6940890" lon="-8.8487420">
        <ele>5.2</ele>
        <time>2021-05-18T06:05:24Z</time>
      </trkpt>
      <trkpt lat="41.6940870" lon="-8.8487390">
        <ele>5.2</ele>
        <time>2021-05-18T06:05:25Z</time>
      </trkpt>
      <trkpt lat="41.6940870" lon="-8.8487380">
        <ele>5.2</ele>
        <time>2021-05-18T06:05:26Z</time>
      </trkpt>
      <trkpt lat="41.6940840" lon="-8.8487380">
        <ele>5.3</ele>
        <time>2021-05-18T06:05:27Z</time>
      </trkpt>
      <trkpt lat="41.6940860" lon="-8.8487370">
        <ele>5.3</ele>
        <time>2021-05-18T06:05:28Z</time>
      </trkpt>
      <trkpt lat="41.6940880" lon="-8.8487370">
        <ele>5.3</ele>
        <time>2021-05-18T06:05:29Z</time>
      </trkpt>
      <trkpt lat="41.6940890" lon="-8.8487380">
        <ele>5.3</ele>
        <time>2021-05-18T06:05:30Z</time>
      </trkpt>
      <trkpt lat="41.6940880" lon="-8.8487330">
        <ele>5.4</ele>
        <time>2021-05-18T06:05:31Z</time>
      </trkpt>
      <trkpt lat="41.6940850" lon="-8.8487290">
        <ele>5.4</ele>
        <time>2021-05-18T06:05:32Z</time>
      </trkpt>
      <trkpt lat="41.6940840" lon="-8.8487330">
        <ele>5.4</ele>
        <time>2021-05-18T06:05:33Z</time>
      </trkpt>
      <trkpt lat="41.6940820" lon="-8.8487350">
        <ele>5.4</ele>
        <time>2021-05-18T06:05:34Z</time>
      </trkpt>
      <trkpt lat="41.6940810" lon="-8.8487350">
        <ele>5.4</ele>
        <time>2021-05-18T06:05:35Z</time>
      </trkpt>
      <trkpt lat="41.6940800" lon="-8.8487370">
        <ele>5.5</ele>
        <time>2021-05-18T06:05:36Z</time>
      </trkpt>
      <trkpt lat="41.6940800" lon="-8.8487400">
        <ele>5.5</ele>
        <time>2021-05-18T06:05:37Z</time>
      </trkpt>
      <trkpt lat="41.6940800" lon="-8.8487410">
        <ele>5.5</ele>
        <time>2021-05-18T06:05:38Z</time>
      </trkpt>
      <trkpt lat="41.6940820" lon="-8.8487430">
        <ele>5.5</ele>
        <time>2021-05-18T06:05:39Z</time>
      </trkpt>
      <trkpt lat="41.6940820" lon="-8.8487430">
        <ele>5.6</ele>
        <time>2021-05-18T06:05:40Z</time>
      </trkpt>
      <trkpt lat="41.6940800" lon="-8.8487450">
        <ele>5.6</ele>
        <time>2021-05-18T06:05:41Z</time>
      </trkpt>
      <trkpt lat="41.6940790" lon="-8.8487460">
        <ele>5.6</ele>
        <time>2021-05-18T06:05:42Z</time>
      </trkpt>
      <trkpt lat="41.6940770" lon="-8.8487470">
        <ele>5.6</ele>
        <time>2021-05-18T06:05:43Z</time>
      </trkpt>
      <trkpt lat="41.6940780" lon="-8.8487490">
        <ele>5.6</ele>
        <time>2021-05-18T06:05:44Z</time>
      </trkpt>
      <trkpt lat="41.6940780" lon="-8.8487490">
        <ele>5.7</ele>
        <time>2021-05-18T06:05:45Z</time>
      </trkpt>
      <trkpt lat="41.6940810" lon="-8.8487510">
        <ele>5.7</ele>
        <time>2021-05-18T06:05:46Z</time>
      </trkpt>
      <trkpt lat="41.6940800" lon="-8.8487490">
        <ele>5.7</ele>
        <time>2021-05-18T06:05:47Z</time>
      </trkpt>
      <trkpt lat="41.6940820" lon="-8.8487480">
        <ele>5.7</ele>
        <time>2021-05-18T06:05:48Z</time>
      </trkpt>
      <trkpt lat="41.6940840" lon="-8.8487480">
        <ele>5.8</ele>
        <time>2021-05-18T06:05:49Z</time>
      </trkpt>
      <trkpt lat="41.6940860" lon="-8.8487470">
        <ele>5.8</ele>
        <time>2021-05-18T06:05:50Z</time>
      </trkpt>
      <trkpt lat="41.6940880" lon="-8.8487440">
        <ele>5.8</ele>
        <time>2021-05-18T06:05:51Z</time>
      </trkpt>
      <trkpt lat="41.6940900" lon="-8.8487440">
        <ele>5.8</ele>
        <time>2021-05-18T06:05:52Z</time>
      </trkpt>
      <trkpt lat="41.6940910" lon="-8.8487420">
        <ele>5.8</ele>
        <time>2021-05-18T06:05:53Z</time>
      </trkpt>
      <trkpt lat="41.6940940" lon="-8.8487430">
        <ele>5.9</ele>
        <time>2021-05-18T06:05:54Z</time>
      </trkpt>
      <trkpt lat="41.6940930" lon="-8.8487450">
        <ele>5.9</ele>
        <time>2021-05-18T06:05:55Z</time>
      </trkpt>
      <trkpt lat="41.6940900" lon="-8.8487480">
        <ele>5.9</ele>
        <time>2021-05-18T06:05:56Z</time>
      </trkpt>
      <trkpt lat="41.6940900" lon="-8.8487480">
        <ele>5.9</ele>
        <time>2021-05-18T06:05:57Z</time>
      </trkpt>
      <trkpt lat="41.6940900" lon="-8.8487480">
        <ele>6.0</ele>
        <time>2021-05-18T06:05:58Z</time>
      </trkpt>
      <trkpt lat="41.6940920" lon="-8.8487510">
        <ele>6.0</ele>
        <time>2021-05-18T06:05:59Z</time>
      </trkpt>
      <trkpt lat="41.6940920" lon="-8.8487500">
        <ele>6.0</ele>
        <time>2021-05-18T06:06:00Z</time>
      </trkpt>
      <trkpt lat="41.6940910" lon="-8.8487520">
        <ele>6.0</ele>
        <time>2021-05-18T06:06:01Z</time>
      </trkpt>
      <trkpt lat="41.6940920" lon="-8.8487520">
        <ele>6.1</ele>
        <time>2021-05-18T06:06:02Z</time>
      </trkpt>
      <trkpt lat="41.6940920" lon="-8.8487500">
        <ele>6.1</ele>
        <time>2021-05-18T06:06:03Z</time>
      </trkpt>
      <trkpt lat="41.6940920" lon="-8.8487500">
        <ele>6.1</ele>
        <time>2021-05-18T06:06:04Z</time>
      </trkpt>
      <trkpt lat="41.6940920" lon="-8.8487500">
        <ele>6.1</ele>
        <time>2021-05-18T06:06:05Z</time>
      </trkpt>
      <trkpt lat="41.6940920" lon="-8.8487500">
        <ele>6.1</ele>
        <time>2021-05-18T06:06:06Z</time>
      </trkpt>
      <trkpt lat="41.6940910" lon="-8.8487510">
        <ele>6.2</ele>
        <time>2021-05-18T06:06:07Z</time>
      </trkpt>
      <trkpt lat="41.6940900" lon="-8.8487510">
        <ele>6.2</ele>
        <time>2021-05-18T06:06:08Z</time>
      </trkpt>
      <trkpt lat="41.6940870" lon="-8.8487510">
        <ele>6.2</ele>
        <time>2021-05-18T06:06:09Z</time>
      </trkpt>
      <trkpt lat="41.6940860" lon="-8.8487530">
        <ele>6.2</ele>
        <time>2021-05-18T06:06:10Z</time>
      </trkpt>
      <trkpt lat="41.6940860" lon="-8.8487530">
        <ele>6.3</ele>
        <time>2021-05-18T06:06:11Z</time>
      </trkpt>
      <trkpt lat="41.6940880" lon="-8.8487530">
        <ele>6.3</ele>
        <time>2021-05-18T06:06:12Z</time>
      </trkpt>
      <trkpt lat="41.6940860" lon="-8.8487530">
        <ele>6.3</ele>
        <time>2021-05-18T06:06:13Z</time>
      </trkpt>
      <trkpt lat="41.6940850" lon="-8.8487520">
        <ele>6.3</ele>
        <time>2021-05-18T06:06:14Z</time>
      </trkpt>
      <trkpt lat="41.6940850" lon="-8.8487530">
        <ele>6.3</ele>
        <time>2021-05-18T06:06:15Z</time>
      </trkpt>
      <trkpt lat="41.6940840" lon="-8.8487540">
        <ele>6.4</ele>
        <time>2021-05-18T06:06:16Z</time>
      </trkpt>
      <trkpt lat="41.6940850" lon="-8.8487540">
        <ele>6.4</ele>
        <time>2021-05-18T06:06:17Z</time>
      </trkpt>
      <trkpt lat="41.6940850" lon="-8.8487520">
        <ele>6.4</ele>
        <time>2021-05-18T06:06:18Z</time>
      </trkpt>
      <trkpt lat="41.6940850" lon="-8.8487530">
        <ele>6.4</ele>
        <time>2021-05-18T06:06:19Z</time>
      </trkpt>
      <trkpt lat="41.6940840" lon="-8.8487540">
        <ele>6.5</ele>
        <time>2021-05-18T06:06:20Z</time>
      </trkpt>
      <trkpt lat="41.6940850" lon="-8.8487510">
        <ele>6.5</ele>
        <time>2021-05-18T06:06:21Z</time>
      </trkpt>
      <trkpt lat="41.6940860" lon="-8.8487500">
        <ele>6.5</ele>
        <time>2021-05-18T06:06:22Z</time>
      </trkpt>
      <trkpt lat="41.6940870" lon="-8.8487500">
        <ele>6.5</ele>
        <time>2021-05-18T06:06:23Z</time>
      </trkpt>
      <trkpt lat="41.6940860" lon="-8.8487520">
        <ele>6.5</ele>
        <time>2021-05-18T06:06:24Z</time>
      </trkpt>
      <trkpt lat="41.6940860" lon="-8.8487530">
        <ele>6.6</ele>
        <time>2021-05-18T06:06:25Z</time>
      </trkpt>
      <trkpt lat="41.6940870" lon="-8.8487520">
        <ele>6.6</ele>
        <time>2021-05-18T06:06:26Z</time>
      </trkpt>
      <trkpt lat="41.6940860" lon="-8.8487520">
        <ele>6.6</ele>
        <time>2021-05-18T06:06:27Z</time>
      </trkpt>
      <trkpt lat="41.6940850" lon="-8.8487550">
        <ele>6.6</ele>
        <time>2021-05-18T06:06:28Z</time>
      </trkpt>
      <trkpt lat="41.6940850" lon="-8.8487570">
        <ele>6.7</ele>
        <time>2021-05-18T06:06:29Z</time>
      </trkpt>
      <trkpt lat="41.6940880" lon="-8.8487570">
        <ele>6.7</ele>
        <time>2021-05-18T06:06:30Z</time>
      </trkpt>
      <trkpt lat="41.6940840" lon="-8.8487540">
        <ele>6.7</ele>
        <time>2021-05-18T06:06:31Z</time>
      </trkpt>
      <trkpt lat="41.6940840" lon="-8.8487510">
        <ele>6.7</ele>
        <time>2021-05-18T06:06:32Z</time>
      </trkpt>
      <trkpt lat="41.6940890" lon="-8.8487470">
        <ele>6.7</ele>
        <time>2021-05-18T06:06:33Z</time>
      </trkpt>
      <trkpt lat="41.6940880" lon="-8.8487540">
        <ele>6.8</ele>
        <time>2021-05-18T06:06:34Z</time>
      </trkpt>
      <trkpt lat="41.6940790" lon="-8.8487780">
        <ele>6.7</ele>
        <time>2021-05-18T06:06:35Z</time>
      </trkpt>
      <trkpt lat="41.6940820" lon="-8.8487940">
        <ele>6.7</ele>
        <time>2021-05-18T06:06:36Z</time>
      </trkpt>
      <trkpt lat="41.6940810" lon="-8.8488170">
        <ele>6.6</ele>
        <time>2021-05-18T06:06:37Z</time>
      </trkpt>
      <trkpt lat="41.6940800" lon="-8.8488370">
        <ele>6.6</ele>
        <time>2021-05-18T06:06:38Z</time>
      </trkpt>
      <trkpt lat="41.6940800" lon="-8.8488550">
        <ele>6.5</ele>
        <time>2021-05-18T06:06:40Z</time>
      </trkpt>
      <trkpt lat="41.6940760" lon="-8.8488700">
        <ele>6.6</ele>
        <time>2021-05-18T06:06:41Z</time>
      </trkpt>
      <trkpt lat="41.6940720" lon="-8.8488830">
        <ele>6.6</ele>
        <time>2021-05-18T06:06:42Z</time>
      </trkpt>
      <trkpt lat="41.6940700" lon="-8.8489140">
        <ele>6.5</ele>
        <time>2021-05-18T06:06:43Z</time>
      </trkpt>
      <trkpt lat="41.6940700" lon="-8.8489260">
        <ele>6.5</ele>
        <time>2021-05-18T06:06:44Z</time>
      </trkpt>
      <trkpt lat="41.6940700" lon="-8.8489380">
        <ele>6.4</ele>
        <time>2021-05-18T06:06:45Z</time>
      </trkpt>
      <trkpt lat="41.6940710" lon="-8.8489450">
        <ele>6.5</ele>
        <time>2021-05-18T06:06:46Z</time>
      </trkpt>
      <trkpt lat="41.6940700" lon="-8.8489630">
        <ele>6.5</ele>
        <time>2021-05-18T06:06:47Z</time>
      </trkpt>
      <trkpt lat="41.6940700" lon="-8.8489840">
        <ele>6.4</ele>
        <time>2021-05-18T06:06:48Z</time>
      </trkpt>
      <trkpt lat="41.6940670" lon="-8.8490050">
        <ele>6.4</ele>
        <time>2021-05-18T06:06:49Z</time>
      </trkpt>
      <trkpt lat="41.6940650" lon="-8.8490240">
        <ele>6.3</ele>
        <time>2021-05-18T06:06:50Z</time>
      </trkpt>
      <trkpt lat="41.6940670" lon="-8.8490460">
        <ele>6.4</ele>
        <time>2021-05-18T06:06:51Z</time>
      </trkpt>
      <trkpt lat="41.6940670" lon="-8.8490650">
        <ele>6.3</ele>
        <time>2021-05-18T06:06:52Z</time>
      </trkpt>
      <trkpt lat="41.6940640" lon="-8.8490830">
        <ele>6.3</ele>
        <time>2021-05-18T06:06:53Z</time>
      </trkpt>
      <trkpt lat="41.6940620" lon="-8.8491030">
        <ele>6.2</ele>
        <time>2021-05-18T06:06:54Z</time>
      </trkpt>
      <trkpt lat="41.6940630" lon="-8.8491240">
        <ele>6.2</ele>
        <time>2021-05-18T06:06:55Z</time>
      </trkpt>
      <trkpt lat="41.6940640" lon="-8.8491430">
        <ele>6.2</ele>
        <time>2021-05-18T06:06:56Z</time>
      </trkpt>
      <trkpt lat="41.6940660" lon="-8.8491630">
        <ele>6.2</ele>
        <time>2021-05-18T06:06:57Z</time>
      </trkpt>
      <trkpt lat="41.6940630" lon="-8.8491820">
        <ele>6.2</ele>
        <time>2021-05-18T06:06:58Z</time>
      </trkpt>
      <trkpt lat="41.6940650" lon="-8.8492020">
        <ele>6.1</ele>
        <time>2021-05-18T06:06:59Z</time>
      </trkpt>
      <trkpt lat="41.6940640" lon="-8.8492240">
        <ele>6.1</ele>
        <time>2021-05-18T06:07:00Z</time>
      </trkpt>
      <trkpt lat="41.6940650" lon="-8.8492440">
        <ele>6.0</ele>
        <time>2021-05-18T06:07:01Z</time>
      </trkpt>
      <trkpt lat="41.6940680" lon="-8.8492640">
        <ele>6.1</ele>
        <time>2021-05-18T06:07:02Z</time>
      </trkpt>
      <trkpt lat="41.6940690" lon="-8.8492830">
        <ele>6.0</ele>
        <time>2021-05-18T06:07:03Z</time>
      </trkpt>
      <trkpt lat="41.6940670" lon="-8.8493010">
        <ele>6.0</ele>
        <time>2021-05-18T06:07:04Z</time>
      </trkpt>
      <trkpt lat="41.6940690" lon="-8.8493180">
        <ele>5.9</ele>
        <time>2021-05-18T06:07:05Z</time>
      </trkpt>
      <trkpt lat="41.6940720" lon="-8.8493390">
        <ele>5.9</ele>
        <time>2021-05-18T06:07:06Z</time>
      </trkpt>
      <trkpt lat="41.6940750" lon="-8.8493580">
        <ele>6.0</ele>
        <time>2021-05-18T06:07:07Z</time>
      </trkpt>
      <trkpt lat="41.6940780" lon="-8.8493780">
        <ele>5.9</ele>
        <time>2021-05-18T06:07:08Z</time>
      </trkpt>
      <trkpt lat="41.6940850" lon="-8.8493960">
        <ele>5.9</ele>
        <time>2021-05-18T06:07:09Z</time>
      </trkpt>
      <trkpt lat="41.6940950" lon="-8.8494120">
        <ele>5.9</ele>
        <time>2021-05-18T06:07:10Z</time>
      </trkpt>
      <trkpt lat="41.6941070" lon="-8.8494250">
        <ele>5.9</ele>
        <time>2021-05-18T06:07:11Z</time>
      </trkpt>
      <trkpt lat="41.6941180" lon="-8.8494370">
        <ele>5.9</ele>
        <time>2021-05-18T06:07:12Z</time>
      </trkpt>
      <trkpt lat="41.6941330" lon="-8.8494480">
        <ele>5.9</ele>
        <time>2021-05-18T06:07:13Z</time>
      </trkpt>
      <trkpt lat="41.6941450" lon="-8.8494610">
        <ele>5.9</ele>
        <time>2021-05-18T06:07:14Z</time>
      </trkpt>
      <trkpt lat="41.6941570" lon="-8.8494730">
        <ele>5.9</ele>
        <time>2021-05-18T06:07:15Z</time>
      </trkpt>
      <trkpt lat="41.6941800" lon="-8.8494990">
        <ele>5.9</ele>
        <time>2021-05-18T06:07:16Z</time>
      </trkpt>
      <trkpt lat="41.6941870" lon="-8.8495140">
        <ele>5.9</ele>
        <time>2021-05-18T06:07:17Z</time>
      </trkpt>
      <trkpt lat="41.6941960" lon="-8.8495270">
        <ele>5.9</ele>
        <time>2021-05-18T06:07:18Z</time>
      </trkpt>
      <trkpt lat="41.6942100" lon="-8.8495340">
        <ele>5.9</ele>
        <time>2021-05-18T06:07:19Z</time>
      </trkpt>
      <trkpt lat="41.6942220" lon="-8.8495440">
        <ele>5.9</ele>
        <time>2021-05-18T06:07:20Z</time>
      </trkpt>
      <trkpt lat="41.6942290" lon="-8.8495560">
        <ele>5.9</ele>
        <time>2021-05-18T06:07:21Z</time>
      </trkpt>
      <trkpt lat="41.6942340" lon="-8.8495700">
        <ele>5.9</ele>
        <time>2021-05-18T06:07:22Z</time>
      </trkpt>
      <trkpt lat="41.6942360" lon="-8.8495850">
        <ele>5.9</ele>
        <time>2021-05-18T06:07:23Z</time>
      </trkpt>
      <trkpt lat="41.6942340" lon="-8.8495870">
        <ele>5.9</ele>
        <time>2021-05-18T06:07:24Z</time>
      </trkpt>
      <trkpt lat="41.6942340" lon="-8.8495820">
        <ele>5.9</ele>
        <time>2021-05-18T06:07:25Z</time>
      </trkpt>
      <trkpt lat="41.6942340" lon="-8.8495740">
        <ele>5.9</ele>
        <time>2021-05-18T06:07:26Z</time>
      </trkpt>
      <trkpt lat="41.6942340" lon="-8.8495660">
        <ele>5.9</ele>
        <time>2021-05-18T06:07:27Z</time>
      </trkpt>
      <trkpt lat="41.6942360" lon="-8.8495630">
        <ele>5.9</ele>
        <time>2021-05-18T06:07:28Z</time>
      </trkpt>
      <trkpt lat="41.6942370" lon="-8.8495590">
        <ele>5.9</ele>
        <time>2021-05-18T06:07:29Z</time>
      </trkpt>
      <trkpt lat="41.6942450" lon="-8.8495720">
        <ele>5.9</ele>
        <time>2021-05-18T06:07:30Z</time>
      </trkpt>
      <trkpt lat="41.6942500" lon="-8.8495740">
        <ele>5.9</ele>
        <time>2021-05-18T06:07:31Z</time>
      </trkpt>
      <trkpt lat="41.6942480" lon="-8.8495650">
        <ele>5.9</ele>
        <time>2021-05-18T06:07:32Z</time>
      </trkpt>
      <trkpt lat="41.6942470" lon="-8.8495590">
        <ele>5.9</ele>
        <time>2021-05-18T06:07:33Z</time>
      </trkpt>
      <trkpt lat="41.6942460" lon="-8.8495500">
        <ele>5.9</ele>
        <time>2021-05-18T06:07:34Z</time>
      </trkpt>
      <trkpt lat="41.6942460" lon="-8.8495420">
        <ele>5.9</ele>
        <time>2021-05-18T06:07:35Z</time>
      </trkpt>
      <trkpt lat="41.6942440" lon="-8.8495350">
        <ele>5.9</ele>
        <time>2021-05-18T06:07:36Z</time>
      </trkpt>
      <trkpt lat="41.6942430" lon="-8.8495290">
        <ele>5.9</ele>
        <time>2021-05-18T06:07:37Z</time>
      </trkpt>
      <trkpt lat="41.6942430" lon="-8.8495310">
        <ele>5.9</ele>
        <time>2021-05-18T06:07:38Z</time>
      </trkpt>
      <trkpt lat="41.6942430" lon="-8.8495420">
        <ele>5.9</ele>
        <time>2021-05-18T06:07:39Z</time>
      </trkpt>
      <trkpt lat="41.6942510" lon="-8.8495460">
        <ele>5.9</ele>
        <time>2021-05-18T06:07:40Z</time>
      </trkpt>
      <trkpt lat="41.6942580" lon="-8.8495510">
        <ele>5.9</ele>
        <time>2021-05-18T06:07:41Z</time>
      </trkpt>
      <trkpt lat="41.6942660" lon="-8.8495560">
        <ele>5.9</ele>
        <time>2021-05-18T06:07:42Z</time>
      </trkpt>
      <trkpt lat="41.6942730" lon="-8.8495670">
        <ele>5.9</ele>
        <time>2021-05-18T06:07:43Z</time>
      </trkpt>
      <trkpt lat="41.6942820" lon="-8.8495810">
        <ele>5.9</ele>
        <time>2021-05-18T06:07:44Z</time>
      </trkpt>
      <trkpt lat="41.6942890" lon="-8.8495860">
        <ele>5.9</ele>
        <time>2021-05-18T06:07:45Z</time>
      </trkpt>
      <trkpt lat="41.6943090" lon="-8.8495910">
        <ele>5.9</ele>
        <time>2021-05-18T06:07:46Z</time>
      </trkpt>
      <trkpt lat="41.6943180" lon="-8.8495930">
        <ele>5.9</ele>
        <time>2021-05-18T06:07:47Z</time>
      </trkpt>
      <trkpt lat="41.6943270" lon="-8.8495960">
        <ele>5.9</ele>
        <time>2021-05-18T06:07:48Z</time>
      </trkpt>
      <trkpt lat="41.6943360" lon="-8.8496000">
        <ele>5.9</ele>
        <time>2021-05-18T06:07:49Z</time>
      </trkpt>
      <trkpt lat="41.6943430" lon="-8.8496090">
        <ele>5.9</ele>
        <time>2021-05-18T06:07:50Z</time>
      </trkpt>
      <trkpt lat="41.6943500" lon="-8.8496180">
        <ele>5.9</ele>
        <time>2021-05-18T06:07:51Z</time>
      </trkpt>
      <trkpt lat="41.6943630" lon="-8.8496230">
        <ele>5.9</ele>
        <time>2021-05-18T06:07:52Z</time>
      </trkpt>
      <trkpt lat="41.6943720" lon="-8.8496300">
        <ele>5.9</ele>
        <time>2021-05-18T06:07:53Z</time>
      </trkpt>
      <trkpt lat="41.6943820" lon="-8.8496370">
        <ele>5.9</ele>
        <time>2021-05-18T06:07:54Z</time>
      </trkpt>
      <trkpt lat="41.6943900" lon="-8.8496390">
        <ele>5.9</ele>
        <time>2021-05-18T06:07:55Z</time>
      </trkpt>
      <trkpt lat="41.6944010" lon="-8.8496480">
        <ele>5.9</ele>
        <time>2021-05-18T06:07:56Z</time>
      </trkpt>
      <trkpt lat="41.6944100" lon="-8.8496540">
        <ele>5.9</ele>
        <time>2021-05-18T06:07:57Z</time>
      </trkpt>
      <trkpt lat="41.6944200" lon="-8.8496600">
        <ele>5.9</ele>
        <time>2021-05-18T06:07:58Z</time>
      </trkpt>
      <trkpt lat="41.6944290" lon="-8.8496650">
        <ele>5.9</ele>
        <time>2021-05-18T06:07:59Z</time>
      </trkpt>
      <trkpt lat="41.6944370" lon="-8.8496660">
        <ele>5.9</ele>
        <time>2021-05-18T06:08:00Z</time>
      </trkpt>
      <trkpt lat="41.6944520" lon="-8.8496740">
        <ele>5.9</ele>
        <time>2021-05-18T06:08:01Z</time>
      </trkpt>
      <trkpt lat="41.6944640" lon="-8.8496840">
        <ele>6.0</ele>
        <time>2021-05-18T06:08:02Z</time>
      </trkpt>
      <trkpt lat="41.6944750" lon="-8.8496930">
        <ele>6.0</ele>
        <time>2021-05-18T06:08:03Z</time>
      </trkpt>
      <trkpt lat="41.6944930" lon="-8.8497050">
        <ele>6.0</ele>
        <time>2021-05-18T06:08:04Z</time>
      </trkpt>
      <trkpt lat="41.6945060" lon="-8.8497090">
        <ele>6.0</ele>
        <time>2021-05-18T06:08:05Z</time>
      </trkpt>
      <trkpt lat="41.6945190" lon="-8.8497190">
        <ele>6.0</ele>
        <time>2021-05-18T06:08:06Z</time>
      </trkpt>
      <trkpt lat="41.6945320" lon="-8.8497290">
        <ele>6.0</ele>
        <time>2021-05-18T06:08:07Z</time>
      </trkpt>
      <trkpt lat="41.6945470" lon="-8.8497330">
        <ele>6.0</ele>
        <time>2021-05-18T06:08:08Z</time>
      </trkpt>
      <trkpt lat="41.6945610" lon="-8.8497390">
        <ele>6.0</ele>
        <time>2021-05-18T06:08:09Z</time>
      </trkpt>
      <trkpt lat="41.6945730" lon="-8.8497470">
        <ele>6.0</ele>
        <time>2021-05-18T06:08:10Z</time>
      </trkpt>
      <trkpt lat="41.6945840" lon="-8.8497580">
        <ele>6.0</ele>
        <time>2021-05-18T06:08:11Z</time>
      </trkpt>
      <trkpt lat="41.6945990" lon="-8.8497690">
        <ele>6.0</ele>
        <time>2021-05-18T06:08:12Z</time>
      </trkpt>
      <trkpt lat="41.6946110" lon="-8.8497770">
        <ele>6.0</ele>
        <time>2021-05-18T06:08:13Z</time>
      </trkpt>
      <trkpt lat="41.6946270" lon="-8.8497810">
        <ele>6.0</ele>
        <time>2021-05-18T06:08:14Z</time>
      </trkpt>
      <trkpt lat="41.6946450" lon="-8.8497840">
        <ele>6.0</ele>
        <time>2021-05-18T06:08:15Z</time>
      </trkpt>
      <trkpt lat="41.6946600" lon="-8.8497910">
        <ele>6.0</ele>
        <time>2021-05-18T06:08:16Z</time>
      </trkpt>
      <trkpt lat="41.6946730" lon="-8.8497990">
        <ele>6.0</ele>
        <time>2021-05-18T06:08:17Z</time>
      </trkpt>
      <trkpt lat="41.6946860" lon="-8.8498070">
        <ele>6.0</ele>
        <time>2021-05-18T06:08:18Z</time>
      </trkpt>
      <trkpt lat="41.6946990" lon="-8.8498160">
        <ele>6.0</ele>
        <time>2021-05-18T06:08:19Z</time>
      </trkpt>
      <trkpt lat="41.6947130" lon="-8.8498190">
        <ele>6.0</ele>
        <time>2021-05-18T06:08:20Z</time>
      </trkpt>
      <trkpt lat="41.6947280" lon="-8.8498250">
        <ele>6.0</ele>
        <time>2021-05-18T06:08:21Z</time>
      </trkpt>
      <trkpt lat="41.6947420" lon="-8.8498300">
        <ele>6.0</ele>
        <time>2021-05-18T06:08:22Z</time>
      </trkpt>
      <trkpt lat="41.6947550" lon="-8.8498350">
        <ele>6.0</ele>
        <time>2021-05-18T06:08:23Z</time>
      </trkpt>
      <trkpt lat="41.6947700" lon="-8.8498430">
        <ele>6.0</ele>
        <time>2021-05-18T06:08:24Z</time>
      </trkpt>
      <trkpt lat="41.6947870" lon="-8.8498480">
        <ele>6.0</ele>
        <time>2021-05-18T06:08:25Z</time>
      </trkpt>
      <trkpt lat="41.6947990" lon="-8.8498560">
        <ele>6.0</ele>
        <time>2021-05-18T06:08:26Z</time>
      </trkpt>
      <trkpt lat="41.6948140" lon="-8.8498630">
        <ele>6.0</ele>
        <time>2021-05-18T06:08:27Z</time>
      </trkpt>
      <trkpt lat="41.6948280" lon="-8.8498640">
        <ele>6.0</ele>
        <time>2021-05-18T06:08:28Z</time>
      </trkpt>
      <trkpt lat="41.6948400" lon="-8.8498710">
        <ele>6.0</ele>
        <time>2021-05-18T06:08:29Z</time>
      </trkpt>
      <trkpt lat="41.6948540" lon="-8.8498790">
        <ele>6.0</ele>
        <time>2021-05-18T06:08:30Z</time>
      </trkpt>
      <trkpt lat="41.6948670" lon="-8.8498880">
        <ele>6.0</ele>
        <time>2021-05-18T06:08:31Z</time>
      </trkpt>
      <trkpt lat="41.6948810" lon="-8.8498980">
        <ele>6.0</ele>
        <time>2021-05-18T06:08:32Z</time>
      </trkpt>
      <trkpt lat="41.6948950" lon="-8.8499030">
        <ele>6.0</ele>
        <time>2021-05-18T06:08:33Z</time>
      </trkpt>
      <trkpt lat="41.6949100" lon="-8.8499070">
        <ele>6.0</ele>
        <time>2021-05-18T06:08:34Z</time>
      </trkpt>
      <trkpt lat="41.6949260" lon="-8.8499120">
        <ele>6.0</ele>
        <time>2021-05-18T06:08:35Z</time>
      </trkpt>
      <trkpt lat="41.6949410" lon="-8.8499190">
        <ele>6.1</ele>
        <time>2021-05-18T06:08:36Z</time>
      </trkpt>
      <trkpt lat="41.6949560" lon="-8.8499210">
        <ele>6.1</ele>
        <time>2021-05-18T06:08:37Z</time>
      </trkpt>
      <trkpt lat="41.6949700" lon="-8.8499230">
        <ele>6.1</ele>
        <time>2021-05-18T06:08:38Z</time>
      </trkpt>
      <trkpt lat="41.6949840" lon="-8.8499310">
        <ele>6.1</ele>
        <time>2021-05-18T06:08:39Z</time>
      </trkpt>
      <trkpt lat="41.6949990" lon="-8.8499360">
        <ele>6.1</ele>
        <time>2021-05-18T06:08:40Z</time>
      </trkpt>
      <trkpt lat="41.6950140" lon="-8.8499430">
        <ele>6.1</ele>
        <time>2021-05-18T06:08:41Z</time>
      </trkpt>
      <trkpt lat="41.6950270" lon="-8.8499490">
        <ele>6.0</ele>
        <time>2021-05-18T06:08:42Z</time>
      </trkpt>
      <trkpt lat="41.6950430" lon="-8.8499540">
        <ele>6.0</ele>
        <time>2021-05-18T06:08:43Z</time>
      </trkpt>
      <trkpt lat="41.6950570" lon="-8.8499570">
        <ele>6.0</ele>
        <time>2021-05-18T06:08:44Z</time>
      </trkpt>
      <trkpt lat="41.6950770" lon="-8.8499680">
        <ele>6.0</ele>
        <time>2021-05-18T06:08:45Z</time>
      </trkpt>
      <trkpt lat="41.6950850" lon="-8.8499720">
        <ele>6.0</ele>
        <time>2021-05-18T06:08:46Z</time>
      </trkpt>
      <trkpt lat="41.6950940" lon="-8.8499770">
        <ele>6.0</ele>
        <time>2021-05-18T06:08:47Z</time>
      </trkpt>
      <trkpt lat="41.6951090" lon="-8.8499790">
        <ele>6.0</ele>
        <time>2021-05-18T06:08:48Z</time>
      </trkpt>
      <trkpt lat="41.6951220" lon="-8.8499830">
        <ele>6.0</ele>
        <time>2021-05-18T06:08:49Z</time>
      </trkpt>
      <trkpt lat="41.6951420" lon="-8.8499910">
        <ele>6.0</ele>
        <time>2021-05-18T06:08:50Z</time>
      </trkpt>
      <trkpt lat="41.6951510" lon="-8.8499960">
        <ele>6.0</ele>
        <time>2021-05-18T06:08:51Z</time>
      </trkpt>
      <trkpt lat="41.6951590" lon="-8.8500010">
        <ele>6.0</ele>
        <time>2021-05-18T06:08:52Z</time>
      </trkpt>
      <trkpt lat="41.6951710" lon="-8.8500070">
        <ele>6.0</ele>
        <time>2021-05-18T06:08:53Z</time>
      </trkpt>
      <trkpt lat="41.6951820" lon="-8.8500200">
        <ele>6.0</ele>
        <time>2021-05-18T06:08:54Z</time>
      </trkpt>
      <trkpt lat="41.6951930" lon="-8.8500320">
        <ele>6.0</ele>
        <time>2021-05-18T06:08:55Z</time>
      </trkpt>
      <trkpt lat="41.6952070" lon="-8.8500340">
        <ele>5.9</ele>
        <time>2021-05-18T06:08:56Z</time>
      </trkpt>
      <trkpt lat="41.6952200" lon="-8.8500350">
        <ele>5.9</ele>
        <time>2021-05-18T06:08:57Z</time>
      </trkpt>
      <trkpt lat="41.6952360" lon="-8.8500380">
        <ele>5.9</ele>
        <time>2021-05-18T06:08:58Z</time>
      </trkpt>
      <trkpt lat="41.6952520" lon="-8.8500430">
        <ele>5.9</ele>
        <time>2021-05-18T06:08:59Z</time>
      </trkpt>
      <trkpt lat="41.6952660" lon="-8.8500490">
        <ele>5.9</ele>
        <time>2021-05-18T06:09:00Z</time>
      </trkpt>
      <trkpt lat="41.6952810" lon="-8.8500540">
        <ele>5.9</ele>
        <time>2021-05-18T06:09:01Z</time>
      </trkpt>
      <trkpt lat="41.6952960" lon="-8.8500580">
        <ele>5.9</ele>
        <time>2021-05-18T06:09:02Z</time>
      </trkpt>
      <trkpt lat="41.6953110" lon="-8.8500610">
        <ele>5.9</ele>
        <time>2021-05-18T06:09:03Z</time>
      </trkpt>
      <trkpt lat="41.6953260" lon="-8.8500630">
        <ele>5.9</ele>
        <time>2021-05-18T06:09:04Z</time>
      </trkpt>
      <trkpt lat="41.6953420" lon="-8.8500680">
        <ele>5.9</ele>
        <time>2021-05-18T06:09:06Z</time>
      </trkpt>
      <trkpt lat="41.6953570" lon="-8.8500730">
        <ele>5.9</ele>
        <time>2021-05-18T06:09:07Z</time>
      </trkpt>
      <trkpt lat="41.6953710" lon="-8.8500770">
        <ele>5.9</ele>
        <time>2021-05-18T06:09:08Z</time>
      </trkpt>
      <trkpt lat="41.6953870" lon="-8.8500740">
        <ele>5.9</ele>
        <time>2021-05-18T06:09:09Z</time>
      </trkpt>
      <trkpt lat="41.6954000" lon="-8.8500830">
        <ele>5.9</ele>
        <time>2021-05-18T06:09:10Z</time>
      </trkpt>
      <trkpt lat="41.6954150" lon="-8.8500910">
        <ele>5.9</ele>
        <time>2021-05-18T06:09:11Z</time>
      </trkpt>
      <trkpt lat="41.6954280" lon="-8.8500910">
        <ele>5.9</ele>
        <time>2021-05-18T06:09:12Z</time>
      </trkpt>
      <trkpt lat="41.6954430" lon="-8.8501010">
        <ele>6.0</ele>
        <time>2021-05-18T06:09:13Z</time>
      </trkpt>
      <trkpt lat="41.6954570" lon="-8.8501050">
        <ele>6.0</ele>
        <time>2021-05-18T06:09:14Z</time>
      </trkpt>
      <trkpt lat="41.6954710" lon="-8.8501050">
        <ele>6.0</ele>
        <time>2021-05-18T06:09:15Z</time>
      </trkpt>
      <trkpt lat="41.6954850" lon="-8.8501130">
        <ele>6.0</ele>
        <time>2021-05-18T06:09:16Z</time>
      </trkpt>
      <trkpt lat="41.6954970" lon="-8.8501150">
        <ele>6.0</ele>
        <time>2021-05-18T06:09:17Z</time>
      </trkpt>
      <trkpt lat="41.6955100" lon="-8.8501250">
        <ele>6.0</ele>
        <time>2021-05-18T06:09:18Z</time>
      </trkpt>
      <trkpt lat="41.6955230" lon="-8.8501330">
        <ele>6.0</ele>
        <time>2021-05-18T06:09:19Z</time>
      </trkpt>
      <trkpt lat="41.6955380" lon="-8.8501340">
        <ele>6.0</ele>
        <time>2021-05-18T06:09:20Z</time>
      </trkpt>
      <trkpt lat="41.6955530" lon="-8.8501390">
        <ele>6.0</ele>
        <time>2021-05-18T06:09:21Z</time>
      </trkpt>
      <trkpt lat="41.6955810" lon="-8.8501520">
        <ele>6.0</ele>
        <time>2021-05-18T06:09:22Z</time>
      </trkpt>
      <trkpt lat="41.6955960" lon="-8.8501510">
        <ele>6.0</ele>
        <time>2021-05-18T06:09:23Z</time>
      </trkpt>
      <trkpt lat="41.6956100" lon="-8.8501580">
        <ele>6.0</ele>
        <time>2021-05-18T06:09:24Z</time>
      </trkpt>
      <trkpt lat="41.6956220" lon="-8.8501620">
        <ele>6.0</ele>
        <time>2021-05-18T06:09:25Z</time>
      </trkpt>
      <trkpt lat="41.6956370" lon="-8.8501680">
        <ele>6.0</ele>
        <time>2021-05-18T06:09:26Z</time>
      </trkpt>
      <trkpt lat="41.6956580" lon="-8.8501710">
        <ele>6.0</ele>
        <time>2021-05-18T06:09:27Z</time>
      </trkpt>
      <trkpt lat="41.6956670" lon="-8.8501720">
        <ele>6.0</ele>
        <time>2021-05-18T06:09:28Z</time>
      </trkpt>
      <trkpt lat="41.6956770" lon="-8.8501740">
        <ele>6.0</ele>
        <time>2021-05-18T06:09:29Z</time>
      </trkpt>
      <trkpt lat="41.6956910" lon="-8.8501840">
        <ele>6.0</ele>
        <time>2021-05-18T06:09:30Z</time>
      </trkpt>
      <trkpt lat="41.6957040" lon="-8.8501890">
        <ele>6.0</ele>
        <time>2021-05-18T06:09:31Z</time>
      </trkpt>
      <trkpt lat="41.6957180" lon="-8.8501860">
        <ele>6.0</ele>
        <time>2021-05-18T06:09:32Z</time>
      </trkpt>
      <trkpt lat="41.6957310" lon="-8.8501940">
        <ele>6.0</ele>
        <time>2021-05-18T06:09:33Z</time>
      </trkpt>
      <trkpt lat="41.6957520" lon="-8.8502000">
        <ele>6.0</ele>
        <time>2021-05-18T06:09:34Z</time>
      </trkpt>
      <trkpt lat="41.6957600" lon="-8.8502030">
        <ele>6.0</ele>
        <time>2021-05-18T06:09:35Z</time>
      </trkpt>
      <trkpt lat="41.6957680" lon="-8.8502060">
        <ele>6.0</ele>
        <time>2021-05-18T06:09:36Z</time>
      </trkpt>
      <trkpt lat="41.6957820" lon="-8.8502160">
        <ele>6.0</ele>
        <time>2021-05-18T06:09:37Z</time>
      </trkpt>
      <trkpt lat="41.6957980" lon="-8.8502110">
        <ele>6.0</ele>
        <time>2021-05-18T06:09:38Z</time>
      </trkpt>
      <trkpt lat="41.6958140" lon="-8.8502180">
        <ele>6.0</ele>
        <time>2021-05-18T06:09:39Z</time>
      </trkpt>
      <trkpt lat="41.6958270" lon="-8.8502200">
        <ele>6.0</ele>
        <time>2021-05-18T06:09:40Z</time>
      </trkpt>
      <trkpt lat="41.6958490" lon="-8.8502290">
        <ele>6.0</ele>
        <time>2021-05-18T06:09:41Z</time>
      </trkpt>
      <trkpt lat="41.6958580" lon="-8.8502320">
        <ele>6.0</ele>
        <time>2021-05-18T06:09:42Z</time>
      </trkpt>
      <trkpt lat="41.6958680" lon="-8.8502360">
        <ele>6.0</ele>
        <time>2021-05-18T06:09:43Z</time>
      </trkpt>
      <trkpt lat="41.6958810" lon="-8.8502440">
        <ele>6.0</ele>
        <time>2021-05-18T06:09:44Z</time>
      </trkpt>
      <trkpt lat="41.6958950" lon="-8.8502490">
        <ele>6.0</ele>
        <time>2021-05-18T06:09:45Z</time>
      </trkpt>
      <trkpt lat="41.6959100" lon="-8.8502490">
        <ele>6.0</ele>
        <time>2021-05-18T06:09:46Z</time>
      </trkpt>
      <trkpt lat="41.6959230" lon="-8.8502530">
        <ele>6.0</ele>
        <time>2021-05-18T06:09:47Z</time>
      </trkpt>
      <trkpt lat="41.6959370" lon="-8.8502610">
        <ele>6.0</ele>
        <time>2021-05-18T06:09:48Z</time>
      </trkpt>
      <trkpt lat="41.6959510" lon="-8.8502710">
        <ele>6.0</ele>
        <time>2021-05-18T06:09:49Z</time>
      </trkpt>
      <trkpt lat="41.6959710" lon="-8.8502780">
        <ele>6.0</ele>
        <time>2021-05-18T06:09:50Z</time>
      </trkpt>
      <trkpt lat="41.6959810" lon="-8.8502830">
        <ele>6.0</ele>
        <time>2021-05-18T06:09:51Z</time>
      </trkpt>
      <trkpt lat="41.6959900" lon="-8.8502880">
        <ele>6.0</ele>
        <time>2021-05-18T06:09:52Z</time>
      </trkpt>
      <trkpt lat="41.6960110" lon="-8.8502950">
        <ele>6.0</ele>
        <time>2021-05-18T06:09:53Z</time>
      </trkpt>
      <trkpt lat="41.6960200" lon="-8.8502980">
        <ele>6.0</ele>
        <time>2021-05-18T06:09:54Z</time>
      </trkpt>
      <trkpt lat="41.6960290" lon="-8.8503010">
        <ele>6.0</ele>
        <time>2021-05-18T06:09:55Z</time>
      </trkpt>
      <trkpt lat="41.6960510" lon="-8.8503070">
        <ele>6.0</ele>
        <time>2021-05-18T06:09:56Z</time>
      </trkpt>
      <trkpt lat="41.6960590" lon="-8.8503100">
        <ele>6.0</ele>
        <time>2021-05-18T06:09:57Z</time>
      </trkpt>
      <trkpt lat="41.6960680" lon="-8.8503120">
        <ele>6.0</ele>
        <time>2021-05-18T06:09:58Z</time>
      </trkpt>
      <trkpt lat="41.6960800" lon="-8.8503190">
        <ele>6.0</ele>
        <time>2021-05-18T06:09:59Z</time>
      </trkpt>
      <trkpt lat="41.6960940" lon="-8.8503240">
        <ele>6.0</ele>
        <time>2021-05-18T06:10:00Z</time>
      </trkpt>
      <trkpt lat="41.6961070" lon="-8.8503350">
        <ele>5.9</ele>
        <time>2021-05-18T06:10:01Z</time>
      </trkpt>
      <trkpt lat="41.6961200" lon="-8.8503400">
        <ele>5.9</ele>
        <time>2021-05-18T06:10:02Z</time>
      </trkpt>
      <trkpt lat="41.6961350" lon="-8.8503460">
        <ele>5.9</ele>
        <time>2021-05-18T06:10:03Z</time>
      </trkpt>
      <trkpt lat="41.6961470" lon="-8.8503500">
        <ele>5.9</ele>
        <time>2021-05-18T06:10:04Z</time>
      </trkpt>
      <trkpt lat="41.6961610" lon="-8.8503590">
        <ele>5.9</ele>
        <time>2021-05-18T06:10:05Z</time>
      </trkpt>
      <trkpt lat="41.6961730" lon="-8.8503650">
        <ele>5.9</ele>
        <time>2021-05-18T06:10:06Z</time>
      </trkpt>
      <trkpt lat="41.6961940" lon="-8.8503710">
        <ele>5.9</ele>
        <time>2021-05-18T06:10:07Z</time>
      </trkpt>
      <trkpt lat="41.6962030" lon="-8.8503750">
        <ele>5.9</ele>
        <time>2021-05-18T06:10:08Z</time>
      </trkpt>
      <trkpt lat="41.6962110" lon="-8.8503780">
        <ele>5.9</ele>
        <time>2021-05-18T06:10:09Z</time>
      </trkpt>
      <trkpt lat="41.6962340" lon="-8.8503850">
        <ele>5.9</ele>
        <time>2021-05-18T06:10:10Z</time>
      </trkpt>
      <trkpt lat="41.6962420" lon="-8.8503890">
        <ele>5.9</ele>
        <time>2021-05-18T06:10:11Z</time>
      </trkpt>
      <trkpt lat="41.6962510" lon="-8.8503920">
        <ele>5.9</ele>
        <time>2021-05-18T06:10:12Z</time>
      </trkpt>
      <trkpt lat="41.6962720" lon="-8.8503990">
        <ele>5.9</ele>
        <time>2021-05-18T06:10:13Z</time>
      </trkpt>
      <trkpt lat="41.6962810" lon="-8.8504040">
        <ele>5.9</ele>
        <time>2021-05-18T06:10:14Z</time>
      </trkpt>
      <trkpt lat="41.6962900" lon="-8.8504080">
        <ele>5.9</ele>
        <time>2021-05-18T06:10:15Z</time>
      </trkpt>
      <trkpt lat="41.6963040" lon="-8.8504150">
        <ele>5.9</ele>
        <time>2021-05-18T06:10:16Z</time>
      </trkpt>
      <trkpt lat="41.6963190" lon="-8.8504190">
        <ele>5.9</ele>
        <time>2021-05-18T06:10:17Z</time>
      </trkpt>
      <trkpt lat="41.6963330" lon="-8.8504270">
        <ele>5.9</ele>
        <time>2021-05-18T06:10:18Z</time>
      </trkpt>
      <trkpt lat="41.6963450" lon="-8.8504320">
        <ele>5.9</ele>
        <time>2021-05-18T06:10:19Z</time>
      </trkpt>
      <trkpt lat="41.6963600" lon="-8.8504430">
        <ele>5.9</ele>
        <time>2021-05-18T06:10:20Z</time>
      </trkpt>
      <trkpt lat="41.6963720" lon="-8.8504510">
        <ele>5.9</ele>
        <time>2021-05-18T06:10:21Z</time>
      </trkpt>
      <trkpt lat="41.6963870" lon="-8.8504530">
        <ele>5.9</ele>
        <time>2021-05-18T06:10:22Z</time>
      </trkpt>
      <trkpt lat="41.6964010" lon="-8.8504580">
        <ele>5.9</ele>
        <time>2021-05-18T06:10:23Z</time>
      </trkpt>
      <trkpt lat="41.6964150" lon="-8.8504620">
        <ele>5.9</ele>
        <time>2021-05-18T06:10:24Z</time>
      </trkpt>
      <trkpt lat="41.6964310" lon="-8.8504670">
        <ele>5.9</ele>
        <time>2021-05-18T06:10:25Z</time>
      </trkpt>
      <trkpt lat="41.6964450" lon="-8.8504700">
        <ele>5.9</ele>
        <time>2021-05-18T06:10:26Z</time>
      </trkpt>
      <trkpt lat="41.6964590" lon="-8.8504770">
        <ele>5.9</ele>
        <time>2021-05-18T06:10:27Z</time>
      </trkpt>
      <trkpt lat="41.6964820" lon="-8.8504850">
        <ele>5.9</ele>
        <time>2021-05-18T06:10:28Z</time>
      </trkpt>
      <trkpt lat="41.6964900" lon="-8.8504880">
        <ele>5.9</ele>
        <time>2021-05-18T06:10:29Z</time>
      </trkpt>
      <trkpt lat="41.6964990" lon="-8.8504910">
        <ele>5.9</ele>
        <time>2021-05-18T06:10:30Z</time>
      </trkpt>
      <trkpt lat="41.6965120" lon="-8.8504980">
        <ele>5.9</ele>
        <time>2021-05-18T06:10:31Z</time>
      </trkpt>
      <trkpt lat="41.6965250" lon="-8.8505020">
        <ele>5.9</ele>
        <time>2021-05-18T06:10:32Z</time>
      </trkpt>
      <trkpt lat="41.6965410" lon="-8.8505060">
        <ele>5.9</ele>
        <time>2021-05-18T06:10:33Z</time>
      </trkpt>
      <trkpt lat="41.6965580" lon="-8.8505090">
        <ele>5.9</ele>
        <time>2021-05-18T06:10:34Z</time>
      </trkpt>
      <trkpt lat="41.6965720" lon="-8.8505180">
        <ele>5.9</ele>
        <time>2021-05-18T06:10:35Z</time>
      </trkpt>
      <trkpt lat="41.6965830" lon="-8.8505260">
        <ele>5.9</ele>
        <time>2021-05-18T06:10:36Z</time>
      </trkpt>
      <trkpt lat="41.6965970" lon="-8.8505320">
        <ele>5.9</ele>
        <time>2021-05-18T06:10:37Z</time>
      </trkpt>
      <trkpt lat="41.6966100" lon="-8.8505380">
        <ele>5.9</ele>
        <time>2021-05-18T06:10:38Z</time>
      </trkpt>
      <trkpt lat="41.6966240" lon="-8.8505460">
        <ele>5.9</ele>
        <time>2021-05-18T06:10:39Z</time>
      </trkpt>
      <trkpt lat="41.6966330" lon="-8.8505590">
        <ele>5.9</ele>
        <time>2021-05-18T06:10:40Z</time>
      </trkpt>
      <trkpt lat="41.6966500" lon="-8.8505770">
        <ele>5.9</ele>
        <time>2021-05-18T06:10:41Z</time>
      </trkpt>
      <trkpt lat="41.6966560" lon="-8.8505850">
        <ele>5.9</ele>
        <time>2021-05-18T06:10:42Z</time>
      </trkpt>
      <trkpt lat="41.6966630" lon="-8.8505940">
        <ele>5.9</ele>
        <time>2021-05-18T06:10:43Z</time>
      </trkpt>
      <trkpt lat="41.6966820" lon="-8.8506080">
        <ele>5.9</ele>
        <time>2021-05-18T06:10:44Z</time>
      </trkpt>
      <trkpt lat="41.6966890" lon="-8.8506150">
        <ele>5.9</ele>
        <time>2021-05-18T06:10:45Z</time>
      </trkpt>
      <trkpt lat="41.6966960" lon="-8.8506230">
        <ele>5.9</ele>
        <time>2021-05-18T06:10:46Z</time>
      </trkpt>
      <trkpt lat="41.6967130" lon="-8.8506420">
        <ele>5.9</ele>
        <time>2021-05-18T06:10:47Z</time>
      </trkpt>
      <trkpt lat="41.6967210" lon="-8.8506490">
        <ele>5.9</ele>
        <time>2021-05-18T06:10:48Z</time>
      </trkpt>
      <trkpt lat="41.6967280" lon="-8.8506570">
        <ele>5.9</ele>
        <time>2021-05-18T06:10:49Z</time>
      </trkpt>
      <trkpt lat="41.6967460" lon="-8.8506750">
        <ele>5.9</ele>
        <time>2021-05-18T06:10:50Z</time>
      </trkpt>
      <trkpt lat="41.6967530" lon="-8.8506810">
        <ele>5.9</ele>
        <time>2021-05-18T06:10:51Z</time>
      </trkpt>
      <trkpt lat="41.6967600" lon="-8.8506870">
        <ele>5.9</ele>
        <time>2021-05-18T06:10:52Z</time>
      </trkpt>
      <trkpt lat="41.6967720" lon="-8.8506980">
        <ele>5.9</ele>
        <time>2021-05-18T06:10:53Z</time>
      </trkpt>
      <trkpt lat="41.6967820" lon="-8.8507140">
        <ele>5.9</ele>
        <time>2021-05-18T06:10:54Z</time>
      </trkpt>
      <trkpt lat="41.6968040" lon="-8.8507230">
        <ele>5.9</ele>
        <time>2021-05-18T06:10:55Z</time>
      </trkpt>
      <trkpt lat="41.6968110" lon="-8.8507310">
        <ele>5.8</ele>
        <time>2021-05-18T06:10:56Z</time>
      </trkpt>
      <trkpt lat="41.6968180" lon="-8.8507390">
        <ele>5.8</ele>
        <time>2021-05-18T06:10:57Z</time>
      </trkpt>
      <trkpt lat="41.6968300" lon="-8.8507470">
        <ele>5.8</ele>
        <time>2021-05-18T06:10:59Z</time>
      </trkpt>
      <trkpt lat="41.6968410" lon="-8.8507590">
        <ele>5.8</ele>
        <time>2021-05-18T06:11:00Z</time>
      </trkpt>
      <trkpt lat="41.6968580" lon="-8.8507780">
        <ele>5.8</ele>
        <time>2021-05-18T06:11:01Z</time>
      </trkpt>
      <trkpt lat="41.6968660" lon="-8.8507850">
        <ele>5.8</ele>
        <time>2021-05-18T06:11:02Z</time>
      </trkpt>
      <trkpt lat="41.6968740" lon="-8.8507920">
        <ele>5.8</ele>
        <time>2021-05-18T06:11:03Z</time>
      </trkpt>
      <trkpt lat="41.6968930" lon="-8.8508040">
        <ele>5.8</ele>
        <time>2021-05-18T06:11:04Z</time>
      </trkpt>
      <trkpt lat="41.6969010" lon="-8.8508100">
        <ele>5.8</ele>
        <time>2021-05-18T06:11:05Z</time>
      </trkpt>
      <trkpt lat="41.6969090" lon="-8.8508160">
        <ele>5.8</ele>
        <time>2021-05-18T06:11:06Z</time>
      </trkpt>
      <trkpt lat="41.6969220" lon="-8.8508170">
        <ele>5.8</ele>
        <time>2021-05-18T06:11:07Z</time>
      </trkpt>
      <trkpt lat="41.6969370" lon="-8.8508220">
        <ele>5.8</ele>
        <time>2021-05-18T06:11:08Z</time>
      </trkpt>
      <trkpt lat="41.6969520" lon="-8.8508250">
        <ele>5.8</ele>
        <time>2021-05-18T06:11:09Z</time>
      </trkpt>
      <trkpt lat="41.6969670" lon="-8.8508250">
        <ele>5.8</ele>
        <time>2021-05-18T06:11:10Z</time>
      </trkpt>
      <trkpt lat="41.6969810" lon="-8.8508290">
        <ele>5.8</ele>
        <time>2021-05-18T06:11:11Z</time>
      </trkpt>
      <trkpt lat="41.6969950" lon="-8.8508300">
        <ele>5.8</ele>
        <time>2021-05-18T06:11:12Z</time>
      </trkpt>
      <trkpt lat="41.6970090" lon="-8.8508350">
        <ele>5.7</ele>
        <time>2021-05-18T06:11:13Z</time>
      </trkpt>
      <trkpt lat="41.6970240" lon="-8.8508360">
        <ele>5.7</ele>
        <time>2021-05-18T06:11:14Z</time>
      </trkpt>
      <trkpt lat="41.6970390" lon="-8.8508360">
        <ele>5.7</ele>
        <time>2021-05-18T06:11:15Z</time>
      </trkpt>
      <trkpt lat="41.6970520" lon="-8.8508400">
        <ele>5.7</ele>
        <time>2021-05-18T06:11:16Z</time>
      </trkpt>
      <trkpt lat="41.6970750" lon="-8.8508450">
        <ele>5.7</ele>
        <time>2021-05-18T06:11:17Z</time>
      </trkpt>
      <trkpt lat="41.6970840" lon="-8.8508450">
        <ele>5.7</ele>
        <time>2021-05-18T06:11:18Z</time>
      </trkpt>
      <trkpt lat="41.6970930" lon="-8.8508460">
        <ele>5.6</ele>
        <time>2021-05-18T06:11:19Z</time>
      </trkpt>
      <trkpt lat="41.6971080" lon="-8.8508450">
        <ele>5.6</ele>
        <time>2021-05-18T06:11:20Z</time>
      </trkpt>
      <trkpt lat="41.6971210" lon="-8.8508420">
        <ele>5.6</ele>
        <time>2021-05-18T06:11:21Z</time>
      </trkpt>
      <trkpt lat="41.6971350" lon="-8.8508460">
        <ele>5.6</ele>
        <time>2021-05-18T06:11:22Z</time>
      </trkpt>
      <trkpt lat="41.6971480" lon="-8.8508470">
        <ele>5.6</ele>
        <time>2021-05-18T06:11:23Z</time>
      </trkpt>
      <trkpt lat="41.6971690" lon="-8.8508480">
        <ele>5.6</ele>
        <time>2021-05-18T06:11:24Z</time>
      </trkpt>
      <trkpt lat="41.6971770" lon="-8.8508430">
        <ele>5.6</ele>
        <time>2021-05-18T06:11:25Z</time>
      </trkpt>
      <trkpt lat="41.6971850" lon="-8.8508390">
        <ele>5.6</ele>
        <time>2021-05-18T06:11:26Z</time>
      </trkpt>
      <trkpt lat="41.6971980" lon="-8.8508320">
        <ele>5.6</ele>
        <time>2021-05-18T06:11:27Z</time>
      </trkpt>
      <trkpt lat="41.6972240" lon="-8.8508100">
        <ele>5.6</ele>
        <time>2021-05-18T06:11:28Z</time>
      </trkpt>
      <trkpt lat="41.6972370" lon="-8.8508020">
        <ele>5.7</ele>
        <time>2021-05-18T06:11:29Z</time>
      </trkpt>
      <trkpt lat="41.6972510" lon="-8.8507950">
        <ele>5.7</ele>
        <time>2021-05-18T06:11:30Z</time>
      </trkpt>
      <trkpt lat="41.6972620" lon="-8.8507870">
        <ele>5.7</ele>
        <time>2021-05-18T06:11:31Z</time>
      </trkpt>
      <trkpt lat="41.6972740" lon="-8.8507750">
        <ele>5.7</ele>
        <time>2021-05-18T06:11:32Z</time>
      </trkpt>
      <trkpt lat="41.6972860" lon="-8.8507640">
        <ele>5.7</ele>
        <time>2021-05-18T06:11:33Z</time>
      </trkpt>
      <trkpt lat="41.6972930" lon="-8.8507470">
        <ele>5.7</ele>
        <time>2021-05-18T06:11:34Z</time>
      </trkpt>
      <trkpt lat="41.6973000" lon="-8.8507320">
        <ele>5.7</ele>
        <time>2021-05-18T06:11:35Z</time>
      </trkpt>
      <trkpt lat="41.6973110" lon="-8.8507200">
        <ele>5.7</ele>
        <time>2021-05-18T06:11:36Z</time>
      </trkpt>
      <trkpt lat="41.6973220" lon="-8.8507090">
        <ele>5.7</ele>
        <time>2021-05-18T06:11:37Z</time>
      </trkpt>
      <trkpt lat="41.6973370" lon="-8.8507030">
        <ele>5.7</ele>
        <time>2021-05-18T06:11:38Z</time>
      </trkpt>
      <trkpt lat="41.6973460" lon="-8.8506880">
        <ele>5.7</ele>
        <time>2021-05-18T06:11:39Z</time>
      </trkpt>
      <trkpt lat="41.6973650" lon="-8.8506770">
        <ele>5.7</ele>
        <time>2021-05-18T06:11:40Z</time>
      </trkpt>
      <trkpt lat="41.6973720" lon="-8.8506710">
        <ele>5.7</ele>
        <time>2021-05-18T06:11:41Z</time>
      </trkpt>
      <trkpt lat="41.6973790" lon="-8.8506650">
        <ele>5.7</ele>
        <time>2021-05-18T06:11:42Z</time>
      </trkpt>
      <trkpt lat="41.6973900" lon="-8.8506570">
        <ele>5.7</ele>
        <time>2021-05-18T06:11:43Z</time>
      </trkpt>
      <trkpt lat="41.6974040" lon="-8.8506570">
        <ele>5.7</ele>
        <time>2021-05-18T06:11:44Z</time>
      </trkpt>
      <trkpt lat="41.6974130" lon="-8.8506500">
        <ele>5.7</ele>
        <time>2021-05-18T06:11:45Z</time>
      </trkpt>
      <trkpt lat="41.6974130" lon="-8.8506320">
        <ele>5.7</ele>
        <time>2021-05-18T06:11:46Z</time>
      </trkpt>
      <trkpt lat="41.6974230" lon="-8.8506220">
        <ele>5.7</ele>
        <time>2021-05-18T06:11:47Z</time>
      </trkpt>
      <trkpt lat="41.6974330" lon="-8.8506230">
        <ele>5.7</ele>
        <time>2021-05-18T06:11:48Z</time>
      </trkpt>
      <trkpt lat="41.6974430" lon="-8.8506260">
        <ele>5.7</ele>
        <time>2021-05-18T06:11:49Z</time>
      </trkpt>
      <trkpt lat="41.6974490" lon="-8.8506330">
        <ele>5.7</ele>
        <time>2021-05-18T06:11:50Z</time>
      </trkpt>
      <trkpt lat="41.6974450" lon="-8.8506380">
        <ele>5.7</ele>
        <time>2021-05-18T06:11:51Z</time>
      </trkpt>
      <trkpt lat="41.6974360" lon="-8.8506390">
        <ele>5.8</ele>
        <time>2021-05-18T06:11:52Z</time>
      </trkpt>
      <trkpt lat="41.6974320" lon="-8.8506390">
        <ele>5.8</ele>
        <time>2021-05-18T06:11:53Z</time>
      </trkpt>
      <trkpt lat="41.6974320" lon="-8.8506390">
        <ele>5.8</ele>
        <time>2021-05-18T06:11:54Z</time>
      </trkpt>
      <trkpt lat="41.6974160" lon="-8.8506370">
        <ele>5.8</ele>
        <time>2021-05-18T06:11:55Z</time>
      </trkpt>
      <trkpt lat="41.6974160" lon="-8.8506380">
        <ele>5.8</ele>
        <time>2021-05-18T06:11:56Z</time>
      </trkpt>
      <trkpt lat="41.6974130" lon="-8.8506380">
        <ele>5.8</ele>
        <time>2021-05-18T06:11:57Z</time>
      </trkpt>
      <trkpt lat="41.6974020" lon="-8.8506380">
        <ele>5.8</ele>
        <time>2021-05-18T06:11:58Z</time>
      </trkpt>
      <trkpt lat="41.6973890" lon="-8.8506410">
        <ele>5.8</ele>
        <time>2021-05-18T06:11:59Z</time>
      </trkpt>
      <trkpt lat="41.6973790" lon="-8.8506580">
        <ele>5.8</ele>
        <time>2021-05-18T06:12:00Z</time>
      </trkpt>
      <trkpt lat="41.6973690" lon="-8.8506930">
        <ele>5.8</ele>
        <time>2021-05-18T06:12:01Z</time>
      </trkpt>
      <trkpt lat="41.6973710" lon="-8.8507080">
        <ele>5.8</ele>
        <time>2021-05-18T06:12:02Z</time>
      </trkpt>
      <trkpt lat="41.6973670" lon="-8.8507180">
        <ele>5.8</ele>
        <time>2021-05-18T06:12:03Z</time>
      </trkpt>
      <trkpt lat="41.6973690" lon="-8.8507390">
        <ele>5.8</ele>
        <time>2021-05-18T06:12:04Z</time>
      </trkpt>
      <trkpt lat="41.6973710" lon="-8.8507510">
        <ele>5.8</ele>
        <time>2021-05-18T06:12:05Z</time>
      </trkpt>
      <trkpt lat="41.6973750" lon="-8.8507750">
        <ele>5.8</ele>
        <time>2021-05-18T06:12:06Z</time>
      </trkpt>
      <trkpt lat="41.6973760" lon="-8.8507900">
        <ele>5.8</ele>
        <time>2021-05-18T06:12:07Z</time>
      </trkpt>
      <trkpt lat="41.6973810" lon="-8.8508150">
        <ele>5.8</ele>
        <time>2021-05-18T06:12:08Z</time>
      </trkpt>
      <trkpt lat="41.6973820" lon="-8.8508330">
        <ele>5.8</ele>
        <time>2021-05-18T06:12:09Z</time>
      </trkpt>
      <trkpt lat="41.6973830" lon="-8.8508530">
        <ele>5.8</ele>
        <time>2021-05-18T06:12:10Z</time>
      </trkpt>
      <trkpt lat="41.6973820" lon="-8.8508830">
        <ele>5.8</ele>
        <time>2021-05-18T06:12:11Z</time>
      </trkpt>
      <trkpt lat="41.6973820" lon="-8.8508960">
        <ele>5.8</ele>
        <time>2021-05-18T06:12:12Z</time>
      </trkpt>
      <trkpt lat="41.6973830" lon="-8.8509080">
        <ele>5.8</ele>
        <time>2021-05-18T06:12:13Z</time>
      </trkpt>
      <trkpt lat="41.6973830" lon="-8.8509290">
        <ele>5.8</ele>
        <time>2021-05-18T06:12:14Z</time>
      </trkpt>
      <trkpt lat="41.6973920" lon="-8.8509480">
        <ele>5.8</ele>
        <time>2021-05-18T06:12:15Z</time>
      </trkpt>
      <trkpt lat="41.6973940" lon="-8.8509670">
        <ele>5.8</ele>
        <time>2021-05-18T06:12:16Z</time>
      </trkpt>
      <trkpt lat="41.6973960" lon="-8.8509870">
        <ele>5.8</ele>
        <time>2021-05-18T06:12:17Z</time>
      </trkpt>
      <trkpt lat="41.6973960" lon="-8.8510080">
        <ele>5.8</ele>
        <time>2021-05-18T06:12:18Z</time>
      </trkpt>
      <trkpt lat="41.6974060" lon="-8.8510270">
        <ele>5.8</ele>
        <time>2021-05-18T06:12:19Z</time>
      </trkpt>
      <trkpt lat="41.6974140" lon="-8.8510450">
        <ele>5.8</ele>
        <time>2021-05-18T06:12:20Z</time>
      </trkpt>
      <trkpt lat="41.6974270" lon="-8.8510590">
        <ele>5.8</ele>
        <time>2021-05-18T06:12:21Z</time>
      </trkpt>
      <trkpt lat="41.6974360" lon="-8.8510740">
        <ele>5.8</ele>
        <time>2021-05-18T06:12:22Z</time>
      </trkpt>
      <trkpt lat="41.6974470" lon="-8.8510890">
        <ele>5.8</ele>
        <time>2021-05-18T06:12:23Z</time>
      </trkpt>
      <trkpt lat="41.6974520" lon="-8.8511090">
        <ele>5.8</ele>
        <time>2021-05-18T06:12:24Z</time>
      </trkpt>
      <trkpt lat="41.6974650" lon="-8.8511210">
        <ele>5.8</ele>
        <time>2021-05-18T06:12:25Z</time>
      </trkpt>
      <trkpt lat="41.6974730" lon="-8.8511380">
        <ele>5.8</ele>
        <time>2021-05-18T06:12:26Z</time>
      </trkpt>
      <trkpt lat="41.6974860" lon="-8.8511520">
        <ele>5.8</ele>
        <time>2021-05-18T06:12:27Z</time>
      </trkpt>
      <trkpt lat="41.6974940" lon="-8.8511680">
        <ele>5.8</ele>
        <time>2021-05-18T06:12:28Z</time>
      </trkpt>
      <trkpt lat="41.6975050" lon="-8.8511800">
        <ele>5.8</ele>
        <time>2021-05-18T06:12:29Z</time>
      </trkpt>
      <trkpt lat="41.6975130" lon="-8.8511960">
        <ele>5.8</ele>
        <time>2021-05-18T06:12:30Z</time>
      </trkpt>
      <trkpt lat="41.6975300" lon="-8.8512080">
        <ele>5.8</ele>
        <time>2021-05-18T06:12:31Z</time>
      </trkpt>
      <trkpt lat="41.6975380" lon="-8.8512240">
        <ele>5.8</ele>
        <time>2021-05-18T06:12:32Z</time>
      </trkpt>
      <trkpt lat="41.6975510" lon="-8.8512340">
        <ele>5.8</ele>
        <time>2021-05-18T06:12:33Z</time>
      </trkpt>
      <trkpt lat="41.6975630" lon="-8.8512460">
        <ele>5.8</ele>
        <time>2021-05-18T06:12:34Z</time>
      </trkpt>
      <trkpt lat="41.6975770" lon="-8.8512540">
        <ele>5.8</ele>
        <time>2021-05-18T06:12:36Z</time>
      </trkpt>
      <trkpt lat="41.6975840" lon="-8.8512720">
        <ele>5.8</ele>
        <time>2021-05-18T06:12:37Z</time>
      </trkpt>
      <trkpt lat="41.6975970" lon="-8.8512790">
        <ele>5.8</ele>
        <time>2021-05-18T06:12:38Z</time>
      </trkpt>
      <trkpt lat="41.6976080" lon="-8.8512930">
        <ele>5.7</ele>
        <time>2021-05-18T06:12:39Z</time>
      </trkpt>
      <trkpt lat="41.6976170" lon="-8.8513070">
        <ele>5.7</ele>
        <time>2021-05-18T06:12:40Z</time>
      </trkpt>
      <trkpt lat="41.6976250" lon="-8.8513220">
        <ele>5.7</ele>
        <time>2021-05-18T06:12:41Z</time>
      </trkpt>
      <trkpt lat="41.6976390" lon="-8.8513320">
        <ele>5.7</ele>
        <time>2021-05-18T06:12:42Z</time>
      </trkpt>
      <trkpt lat="41.6976470" lon="-8.8513480">
        <ele>5.7</ele>
        <time>2021-05-18T06:12:43Z</time>
      </trkpt>
      <trkpt lat="41.6976600" lon="-8.8513600">
        <ele>5.7</ele>
        <time>2021-05-18T06:12:44Z</time>
      </trkpt>
      <trkpt lat="41.6976670" lon="-8.8513750">
        <ele>5.7</ele>
        <time>2021-05-18T06:12:45Z</time>
      </trkpt>
      <trkpt lat="41.6976790" lon="-8.8513900">
        <ele>5.7</ele>
        <time>2021-05-18T06:12:46Z</time>
      </trkpt>
      <trkpt lat="41.6976890" lon="-8.8514020">
        <ele>5.7</ele>
        <time>2021-05-18T06:12:47Z</time>
      </trkpt>
      <trkpt lat="41.6977000" lon="-8.8514170">
        <ele>5.7</ele>
        <time>2021-05-18T06:12:48Z</time>
      </trkpt>
      <trkpt lat="41.6977160" lon="-8.8514380">
        <ele>5.7</ele>
        <time>2021-05-18T06:12:49Z</time>
      </trkpt>
      <trkpt lat="41.6977220" lon="-8.8514480">
        <ele>5.7</ele>
        <time>2021-05-18T06:12:50Z</time>
      </trkpt>
      <trkpt lat="41.6977280" lon="-8.8514590">
        <ele>5.7</ele>
        <time>2021-05-18T06:12:51Z</time>
      </trkpt>
      <trkpt lat="41.6977420" lon="-8.8514690">
        <ele>5.7</ele>
        <time>2021-05-18T06:12:52Z</time>
      </trkpt>
      <trkpt lat="41.6977550" lon="-8.8514740">
        <ele>5.7</ele>
        <time>2021-05-18T06:12:53Z</time>
      </trkpt>
      <trkpt lat="41.6977760" lon="-8.8514850">
        <ele>5.7</ele>
        <time>2021-05-18T06:12:54Z</time>
      </trkpt>
      <trkpt lat="41.6977840" lon="-8.8514910">
        <ele>5.6</ele>
        <time>2021-05-18T06:12:55Z</time>
      </trkpt>
      <trkpt lat="41.6977920" lon="-8.8514980">
        <ele>5.6</ele>
        <time>2021-05-18T06:12:56Z</time>
      </trkpt>
      <trkpt lat="41.6978130" lon="-8.8515090">
        <ele>5.6</ele>
        <time>2021-05-18T06:12:57Z</time>
      </trkpt>
      <trkpt lat="41.6978200" lon="-8.8515160">
        <ele>5.6</ele>
        <time>2021-05-18T06:12:58Z</time>
      </trkpt>
      <trkpt lat="41.6978280" lon="-8.8515220">
        <ele>5.6</ele>
        <time>2021-05-18T06:12:59Z</time>
      </trkpt>
      <trkpt lat="41.6978420" lon="-8.8515320">
        <ele>5.6</ele>
        <time>2021-05-18T06:13:00Z</time>
      </trkpt>
      <trkpt lat="41.6978550" lon="-8.8515440">
        <ele>5.6</ele>
        <time>2021-05-18T06:13:01Z</time>
      </trkpt>
      <trkpt lat="41.6978660" lon="-8.8515600">
        <ele>5.6</ele>
        <time>2021-05-18T06:13:02Z</time>
      </trkpt>
      <trkpt lat="41.6978760" lon="-8.8515710">
        <ele>5.6</ele>
        <time>2021-05-18T06:13:03Z</time>
      </trkpt>
      <trkpt lat="41.6978860" lon="-8.8515860">
        <ele>5.5</ele>
        <time>2021-05-18T06:13:04Z</time>
      </trkpt>
      <trkpt lat="41.6979000" lon="-8.8515930">
        <ele>5.5</ele>
        <time>2021-05-18T06:13:05Z</time>
      </trkpt>
      <trkpt lat="41.6979110" lon="-8.8516020">
        <ele>5.5</ele>
        <time>2021-05-18T06:13:06Z</time>
      </trkpt>
      <trkpt lat="41.6979240" lon="-8.8516140">
        <ele>5.5</ele>
        <time>2021-05-18T06:13:07Z</time>
      </trkpt>
      <trkpt lat="41.6979310" lon="-8.8516310">
        <ele>5.5</ele>
        <time>2021-05-18T06:13:08Z</time>
      </trkpt>
      <trkpt lat="41.6979430" lon="-8.8516430">
        <ele>5.5</ele>
        <time>2021-05-18T06:13:09Z</time>
      </trkpt>
      <trkpt lat="41.6979550" lon="-8.8516510">
        <ele>5.5</ele>
        <time>2021-05-18T06:13:10Z</time>
      </trkpt>
      <trkpt lat="41.6979660" lon="-8.8516660">
        <ele>5.5</ele>
        <time>2021-05-18T06:13:11Z</time>
      </trkpt>
      <trkpt lat="41.6979780" lon="-8.8516750">
        <ele>5.4</ele>
        <time>2021-05-18T06:13:12Z</time>
      </trkpt>
      <trkpt lat="41.6979850" lon="-8.8516920">
        <ele>5.4</ele>
        <time>2021-05-18T06:13:13Z</time>
      </trkpt>
      <trkpt lat="41.6979990" lon="-8.8516970">
        <ele>5.4</ele>
        <time>2021-05-18T06:13:14Z</time>
      </trkpt>
      <trkpt lat="41.6980120" lon="-8.8517010">
        <ele>5.4</ele>
        <time>2021-05-18T06:13:15Z</time>
      </trkpt>
      <trkpt lat="41.6980250" lon="-8.8517130">
        <ele>5.4</ele>
        <time>2021-05-18T06:13:16Z</time>
      </trkpt>
      <trkpt lat="41.6980360" lon="-8.8517270">
        <ele>5.4</ele>
        <time>2021-05-18T06:13:17Z</time>
      </trkpt>
      <trkpt lat="41.6980470" lon="-8.8517400">
        <ele>5.4</ele>
        <time>2021-05-18T06:13:18Z</time>
      </trkpt>
      <trkpt lat="41.6980570" lon="-8.8517530">
        <ele>5.4</ele>
        <time>2021-05-18T06:13:19Z</time>
      </trkpt>
      <trkpt lat="41.6980700" lon="-8.8517590">
        <ele>5.4</ele>
        <time>2021-05-18T06:13:20Z</time>
      </trkpt>
      <trkpt lat="41.6980820" lon="-8.8517740">
        <ele>5.4</ele>
        <time>2021-05-18T06:13:21Z</time>
      </trkpt>
      <trkpt lat="41.6980930" lon="-8.8517840">
        <ele>5.4</ele>
        <time>2021-05-18T06:13:22Z</time>
      </trkpt>
      <trkpt lat="41.6981040" lon="-8.8517970">
        <ele>5.4</ele>
        <time>2021-05-18T06:13:23Z</time>
      </trkpt>
      <trkpt lat="41.6981140" lon="-8.8518110">
        <ele>5.4</ele>
        <time>2021-05-18T06:13:24Z</time>
      </trkpt>
      <trkpt lat="41.6981240" lon="-8.8518230">
        <ele>5.4</ele>
        <time>2021-05-18T06:13:25Z</time>
      </trkpt>
      <trkpt lat="41.6981330" lon="-8.8518390">
        <ele>5.4</ele>
        <time>2021-05-18T06:13:26Z</time>
      </trkpt>
      <trkpt lat="41.6981490" lon="-8.8518430">
        <ele>5.4</ele>
        <time>2021-05-18T06:13:27Z</time>
      </trkpt>
      <trkpt lat="41.6981600" lon="-8.8518580">
        <ele>5.4</ele>
        <time>2021-05-18T06:13:28Z</time>
      </trkpt>
      <trkpt lat="41.6981700" lon="-8.8518720">
        <ele>5.4</ele>
        <time>2021-05-18T06:13:29Z</time>
      </trkpt>
      <trkpt lat="41.6981860" lon="-8.8518820">
        <ele>5.4</ele>
        <time>2021-05-18T06:13:30Z</time>
      </trkpt>
      <trkpt lat="41.6981920" lon="-8.8518990">
        <ele>5.4</ele>
        <time>2021-05-18T06:13:31Z</time>
      </trkpt>
      <trkpt lat="41.6982060" lon="-8.8519130">
        <ele>5.4</ele>
        <time>2021-05-18T06:13:32Z</time>
      </trkpt>
      <trkpt lat="41.6982180" lon="-8.8519200">
        <ele>5.4</ele>
        <time>2021-05-18T06:13:33Z</time>
      </trkpt>
      <trkpt lat="41.6982410" lon="-8.8519430">
        <ele>5.4</ele>
        <time>2021-05-18T06:13:34Z</time>
      </trkpt>
      <trkpt lat="41.6982530" lon="-8.8519560">
        <ele>5.4</ele>
        <time>2021-05-18T06:13:35Z</time>
      </trkpt>
      <trkpt lat="41.6982640" lon="-8.8519690">
        <ele>5.4</ele>
        <time>2021-05-18T06:13:36Z</time>
      </trkpt>
      <trkpt lat="41.6982710" lon="-8.8519860">
        <ele>5.4</ele>
        <time>2021-05-18T06:13:37Z</time>
      </trkpt>
      <trkpt lat="41.6982830" lon="-8.8519960">
        <ele>5.3</ele>
        <time>2021-05-18T06:13:38Z</time>
      </trkpt>
      <trkpt lat="41.6983000" lon="-8.8520150">
        <ele>5.3</ele>
        <time>2021-05-18T06:13:39Z</time>
      </trkpt>
      <trkpt lat="41.6983050" lon="-8.8520260">
        <ele>5.3</ele>
        <time>2021-05-18T06:13:40Z</time>
      </trkpt>
      <trkpt lat="41.6983110" lon="-8.8520360">
        <ele>5.3</ele>
        <time>2021-05-18T06:13:41Z</time>
      </trkpt>
      <trkpt lat="41.6983250" lon="-8.8520400">
        <ele>5.3</ele>
        <time>2021-05-18T06:13:42Z</time>
      </trkpt>
      <trkpt lat="41.6983350" lon="-8.8520550">
        <ele>5.3</ele>
        <time>2021-05-18T06:13:43Z</time>
      </trkpt>
      <trkpt lat="41.6983510" lon="-8.8520730">
        <ele>5.3</ele>
        <time>2021-05-18T06:13:44Z</time>
      </trkpt>
      <trkpt lat="41.6983570" lon="-8.8520810">
        <ele>5.3</ele>
        <time>2021-05-18T06:13:45Z</time>
      </trkpt>
      <trkpt lat="41.6983630" lon="-8.8520880">
        <ele>5.3</ele>
        <time>2021-05-18T06:13:46Z</time>
      </trkpt>
      <trkpt lat="41.6983710" lon="-8.8521030">
        <ele>5.3</ele>
        <time>2021-05-18T06:13:47Z</time>
      </trkpt>
      <trkpt lat="41.6983830" lon="-8.8521160">
        <ele>5.3</ele>
        <time>2021-05-18T06:13:48Z</time>
      </trkpt>
      <trkpt lat="41.6984040" lon="-8.8521300">
        <ele>5.3</ele>
        <time>2021-05-18T06:13:49Z</time>
      </trkpt>
      <trkpt lat="41.6984110" lon="-8.8521380">
        <ele>5.3</ele>
        <time>2021-05-18T06:13:50Z</time>
      </trkpt>
      <trkpt lat="41.6984190" lon="-8.8521450">
        <ele>5.3</ele>
        <time>2021-05-18T06:13:51Z</time>
      </trkpt>
      <trkpt lat="41.6984290" lon="-8.8521580">
        <ele>5.3</ele>
        <time>2021-05-18T06:13:52Z</time>
      </trkpt>
      <trkpt lat="41.6984430" lon="-8.8521640">
        <ele>5.3</ele>
        <time>2021-05-18T06:13:53Z</time>
      </trkpt>
      <trkpt lat="41.6984570" lon="-8.8521760">
        <ele>5.2</ele>
        <time>2021-05-18T06:13:54Z</time>
      </trkpt>
      <trkpt lat="41.6984660" lon="-8.8521870">
        <ele>5.2</ele>
        <time>2021-05-18T06:13:55Z</time>
      </trkpt>
      <trkpt lat="41.6984790" lon="-8.8521950">
        <ele>5.2</ele>
        <time>2021-05-18T06:13:56Z</time>
      </trkpt>
      <trkpt lat="41.6984890" lon="-8.8522090">
        <ele>5.2</ele>
        <time>2021-05-18T06:13:57Z</time>
      </trkpt>
      <trkpt lat="41.6985060" lon="-8.8522270">
        <ele>5.2</ele>
        <time>2021-05-18T06:13:58Z</time>
      </trkpt>
      <trkpt lat="41.6985140" lon="-8.8522340">
        <ele>5.2</ele>
        <time>2021-05-18T06:13:59Z</time>
      </trkpt>
      <trkpt lat="41.6985210" lon="-8.8522410">
        <ele>5.2</ele>
        <time>2021-05-18T06:14:00Z</time>
      </trkpt>
      <trkpt lat="41.6985340" lon="-8.8522530">
        <ele>5.2</ele>
        <time>2021-05-18T06:14:01Z</time>
      </trkpt>
      <trkpt lat="41.6985460" lon="-8.8522590">
        <ele>5.2</ele>
        <time>2021-05-18T06:14:02Z</time>
      </trkpt>
      <trkpt lat="41.6985560" lon="-8.8522720">
        <ele>5.2</ele>
        <time>2021-05-18T06:14:03Z</time>
      </trkpt>
      <trkpt lat="41.6985650" lon="-8.8522850">
        <ele>5.2</ele>
        <time>2021-05-18T06:14:04Z</time>
      </trkpt>
      <trkpt lat="41.6985850" lon="-8.8523000">
        <ele>5.2</ele>
        <time>2021-05-18T06:14:05Z</time>
      </trkpt>
      <trkpt lat="41.6985940" lon="-8.8523040">
        <ele>5.2</ele>
        <time>2021-05-18T06:14:06Z</time>
      </trkpt>
      <trkpt lat="41.6986020" lon="-8.8523090">
        <ele>5.2</ele>
        <time>2021-05-18T06:14:07Z</time>
      </trkpt>
      <trkpt lat="41.6986250" lon="-8.8523180">
        <ele>5.2</ele>
        <time>2021-05-18T06:14:08Z</time>
      </trkpt>
      <trkpt lat="41.6986340" lon="-8.8523200">
        <ele>5.2</ele>
        <time>2021-05-18T06:14:09Z</time>
      </trkpt>
      <trkpt lat="41.6986440" lon="-8.8523220">
        <ele>5.2</ele>
        <time>2021-05-18T06:14:10Z</time>
      </trkpt>
      <trkpt lat="41.6986580" lon="-8.8523210">
        <ele>5.2</ele>
        <time>2021-05-18T06:14:11Z</time>
      </trkpt>
      <trkpt lat="41.6986720" lon="-8.8523260">
        <ele>5.1</ele>
        <time>2021-05-18T06:14:12Z</time>
      </trkpt>
      <trkpt lat="41.6986940" lon="-8.8523240">
        <ele>5.1</ele>
        <time>2021-05-18T06:14:13Z</time>
      </trkpt>
      <trkpt lat="41.6987040" lon="-8.8523260">
        <ele>5.1</ele>
        <time>2021-05-18T06:14:14Z</time>
      </trkpt>
      <trkpt lat="41.6987130" lon="-8.8523280">
        <ele>5.1</ele>
        <time>2021-05-18T06:14:15Z</time>
      </trkpt>
      <trkpt lat="41.6987350" lon="-8.8523320">
        <ele>5.1</ele>
        <time>2021-05-18T06:14:17Z</time>
      </trkpt>
      <trkpt lat="41.6987440" lon="-8.8523380">
        <ele>5.1</ele>
        <time>2021-05-18T06:14:18Z</time>
      </trkpt>
      <trkpt lat="41.6987530" lon="-8.8523430">
        <ele>5.1</ele>
        <time>2021-05-18T06:14:19Z</time>
      </trkpt>
      <trkpt lat="41.6987680" lon="-8.8523510">
        <ele>5.1</ele>
        <time>2021-05-18T06:14:20Z</time>
      </trkpt>
      <trkpt lat="41.6987790" lon="-8.8523580">
        <ele>5.1</ele>
        <time>2021-05-18T06:14:21Z</time>
      </trkpt>
      <trkpt lat="41.6987980" lon="-8.8523790">
        <ele>5.1</ele>
        <time>2021-05-18T06:14:22Z</time>
      </trkpt>
      <trkpt lat="41.6988060" lon="-8.8523840">
        <ele>5.1</ele>
        <time>2021-05-18T06:14:23Z</time>
      </trkpt>
      <trkpt lat="41.6988140" lon="-8.8523900">
        <ele>5.1</ele>
        <time>2021-05-18T06:14:24Z</time>
      </trkpt>
      <trkpt lat="41.6988270" lon="-8.8524000">
        <ele>5.0</ele>
        <time>2021-05-18T06:14:25Z</time>
      </trkpt>
      <trkpt lat="41.6988390" lon="-8.8524110">
        <ele>5.0</ele>
        <time>2021-05-18T06:14:26Z</time>
      </trkpt>
      <trkpt lat="41.6988540" lon="-8.8524160">
        <ele>5.0</ele>
        <time>2021-05-18T06:14:27Z</time>
      </trkpt>
      <trkpt lat="41.6988670" lon="-8.8524220">
        <ele>5.0</ele>
        <time>2021-05-18T06:14:28Z</time>
      </trkpt>
      <trkpt lat="41.6988800" lon="-8.8524300">
        <ele>5.0</ele>
        <time>2021-05-18T06:14:29Z</time>
      </trkpt>
      <trkpt lat="41.6988930" lon="-8.8524380">
        <ele>5.0</ele>
        <time>2021-05-18T06:14:30Z</time>
      </trkpt>
      <trkpt lat="41.6989040" lon="-8.8524430">
        <ele>5.0</ele>
        <time>2021-05-18T06:14:31Z</time>
      </trkpt>
      <trkpt lat="41.6989170" lon="-8.8524550">
        <ele>5.0</ele>
        <time>2021-05-18T06:14:32Z</time>
      </trkpt>
      <trkpt lat="41.6989370" lon="-8.8524680">
        <ele>5.0</ele>
        <time>2021-05-18T06:14:33Z</time>
      </trkpt>
      <trkpt lat="41.6989450" lon="-8.8524750">
        <ele>5.0</ele>
        <time>2021-05-18T06:14:34Z</time>
      </trkpt>
      <trkpt lat="41.6989530" lon="-8.8524810">
        <ele>5.0</ele>
        <time>2021-05-18T06:14:35Z</time>
      </trkpt>
      <trkpt lat="41.6989650" lon="-8.8524840">
        <ele>5.0</ele>
        <time>2021-05-18T06:14:36Z</time>
      </trkpt>
      <trkpt lat="41.6989790" lon="-8.8524940">
        <ele>5.0</ele>
        <time>2021-05-18T06:14:37Z</time>
      </trkpt>
      <trkpt lat="41.6989900" lon="-8.8525030">
        <ele>5.0</ele>
        <time>2021-05-18T06:14:38Z</time>
      </trkpt>
      <trkpt lat="41.6990030" lon="-8.8525120">
        <ele>5.0</ele>
        <time>2021-05-18T06:14:39Z</time>
      </trkpt>
      <trkpt lat="41.6990160" lon="-8.8525210">
        <ele>5.0</ele>
        <time>2021-05-18T06:14:40Z</time>
      </trkpt>
      <trkpt lat="41.6990300" lon="-8.8525280">
        <ele>5.0</ele>
        <time>2021-05-18T06:14:41Z</time>
      </trkpt>
      <trkpt lat="41.6990430" lon="-8.8525370">
        <ele>5.0</ele>
        <time>2021-05-18T06:14:42Z</time>
      </trkpt>
      <trkpt lat="41.6990550" lon="-8.8525480">
        <ele>5.0</ele>
        <time>2021-05-18T06:14:43Z</time>
      </trkpt>
      <trkpt lat="41.6990680" lon="-8.8525580">
        <ele>5.0</ele>
        <time>2021-05-18T06:14:44Z</time>
      </trkpt>
      <trkpt lat="41.6990800" lon="-8.8525660">
        <ele>5.0</ele>
        <time>2021-05-18T06:14:45Z</time>
      </trkpt>
      <trkpt lat="41.6990920" lon="-8.8525760">
        <ele>5.0</ele>
        <time>2021-05-18T06:14:46Z</time>
      </trkpt>
      <trkpt lat="41.6991060" lon="-8.8525810">
        <ele>5.0</ele>
        <time>2021-05-18T06:14:47Z</time>
      </trkpt>
      <trkpt lat="41.6991170" lon="-8.8525910">
        <ele>5.0</ele>
        <time>2021-05-18T06:14:48Z</time>
      </trkpt>
      <trkpt lat="41.6991310" lon="-8.8525980">
        <ele>5.0</ele>
        <time>2021-05-18T06:14:49Z</time>
      </trkpt>
      <trkpt lat="41.6991430" lon="-8.8526100">
        <ele>5.0</ele>
        <time>2021-05-18T06:14:50Z</time>
      </trkpt>
      <trkpt lat="41.6991560" lon="-8.8526140">
        <ele>5.0</ele>
        <time>2021-05-18T06:14:51Z</time>
      </trkpt>
      <trkpt lat="41.6991690" lon="-8.8526240">
        <ele>5.0</ele>
        <time>2021-05-18T06:14:52Z</time>
      </trkpt>
      <trkpt lat="41.6991820" lon="-8.8526320">
        <ele>5.0</ele>
        <time>2021-05-18T06:14:53Z</time>
      </trkpt>
      <trkpt lat="41.6991970" lon="-8.8526360">
        <ele>5.0</ele>
        <time>2021-05-18T06:14:54Z</time>
      </trkpt>
      <trkpt lat="41.6992090" lon="-8.8526480">
        <ele>5.1</ele>
        <time>2021-05-18T06:14:55Z</time>
      </trkpt>
      <trkpt lat="41.6992240" lon="-8.8526530">
        <ele>5.1</ele>
        <time>2021-05-18T06:14:56Z</time>
      </trkpt>
      <trkpt lat="41.6992360" lon="-8.8526640">
        <ele>5.1</ele>
        <time>2021-05-18T06:14:57Z</time>
      </trkpt>
      <trkpt lat="41.6992550" lon="-8.8526750">
        <ele>5.1</ele>
        <time>2021-05-18T06:14:58Z</time>
      </trkpt>
      <trkpt lat="41.6992640" lon="-8.8526810">
        <ele>5.1</ele>
        <time>2021-05-18T06:14:59Z</time>
      </trkpt>
      <trkpt lat="41.6992720" lon="-8.8526860">
        <ele>5.1</ele>
        <time>2021-05-18T06:15:00Z</time>
      </trkpt>
      <trkpt lat="41.6992850" lon="-8.8527020">
        <ele>5.1</ele>
        <time>2021-05-18T06:15:01Z</time>
      </trkpt>
      <trkpt lat="41.6992980" lon="-8.8527100">
        <ele>5.1</ele>
        <time>2021-05-18T06:15:02Z</time>
      </trkpt>
      <trkpt lat="41.6993100" lon="-8.8527260">
        <ele>5.1</ele>
        <time>2021-05-18T06:15:03Z</time>
      </trkpt>
      <trkpt lat="41.6993230" lon="-8.8527310">
        <ele>5.1</ele>
        <time>2021-05-18T06:15:04Z</time>
      </trkpt>
      <trkpt lat="41.6993360" lon="-8.8527460">
        <ele>5.1</ele>
        <time>2021-05-18T06:15:05Z</time>
      </trkpt>
      <trkpt lat="41.6993470" lon="-8.8527490">
        <ele>5.1</ele>
        <time>2021-05-18T06:15:06Z</time>
      </trkpt>
      <trkpt lat="41.6993610" lon="-8.8527620">
        <ele>5.1</ele>
        <time>2021-05-18T06:15:07Z</time>
      </trkpt>
      <trkpt lat="41.6993740" lon="-8.8527670">
        <ele>5.1</ele>
        <time>2021-05-18T06:15:08Z</time>
      </trkpt>
      <trkpt lat="41.6993870" lon="-8.8527810">
        <ele>5.1</ele>
        <time>2021-05-18T06:15:09Z</time>
      </trkpt>
      <trkpt lat="41.6993990" lon="-8.8527920">
        <ele>5.2</ele>
        <time>2021-05-18T06:15:10Z</time>
      </trkpt>
      <trkpt lat="41.6994090" lon="-8.8528030">
        <ele>5.2</ele>
        <time>2021-05-18T06:15:11Z</time>
      </trkpt>
      <trkpt lat="41.6994200" lon="-8.8528170">
        <ele>5.2</ele>
        <time>2021-05-18T06:15:12Z</time>
      </trkpt>
      <trkpt lat="41.6994330" lon="-8.8528400">
        <ele>5.2</ele>
        <time>2021-05-18T06:15:13Z</time>
      </trkpt>
      <trkpt lat="41.6994400" lon="-8.8528510">
        <ele>5.2</ele>
        <time>2021-05-18T06:15:14Z</time>
      </trkpt>
      <trkpt lat="41.6994460" lon="-8.8528620">
        <ele>5.2</ele>
        <time>2021-05-18T06:15:15Z</time>
      </trkpt>
      <trkpt lat="41.6994550" lon="-8.8528760">
        <ele>5.2</ele>
        <time>2021-05-18T06:15:16Z</time>
      </trkpt>
      <trkpt lat="41.6994590" lon="-8.8528940">
        <ele>5.2</ele>
        <time>2021-05-18T06:15:17Z</time>
      </trkpt>
      <trkpt lat="41.6994650" lon="-8.8529110">
        <ele>5.2</ele>
        <time>2021-05-18T06:15:18Z</time>
      </trkpt>
      <trkpt lat="41.6994690" lon="-8.8529300">
        <ele>5.2</ele>
        <time>2021-05-18T06:15:19Z</time>
      </trkpt>
      <trkpt lat="41.6994700" lon="-8.8529510">
        <ele>5.2</ele>
        <time>2021-05-18T06:15:20Z</time>
      </trkpt>
      <trkpt lat="41.6994740" lon="-8.8529690">
        <ele>5.2</ele>
        <time>2021-05-18T06:15:21Z</time>
      </trkpt>
      <trkpt lat="41.6994830" lon="-8.8529970">
        <ele>5.2</ele>
        <time>2021-05-18T06:15:22Z</time>
      </trkpt>
      <trkpt lat="41.6994880" lon="-8.8530090">
        <ele>5.2</ele>
        <time>2021-05-18T06:15:23Z</time>
      </trkpt>
      <trkpt lat="41.6994920" lon="-8.8530200">
        <ele>5.2</ele>
        <time>2021-05-18T06:15:24Z</time>
      </trkpt>
      <trkpt lat="41.6995030" lon="-8.8530440">
        <ele>5.3</ele>
        <time>2021-05-18T06:15:25Z</time>
      </trkpt>
      <trkpt lat="41.6995080" lon="-8.8530540">
        <ele>5.3</ele>
        <time>2021-05-18T06:15:26Z</time>
      </trkpt>
      <trkpt lat="41.6995120" lon="-8.8530640">
        <ele>5.3</ele>
        <time>2021-05-18T06:15:27Z</time>
      </trkpt>
      <trkpt lat="41.6995220" lon="-8.8530790">
        <ele>5.3</ele>
        <time>2021-05-18T06:15:28Z</time>
      </trkpt>
      <trkpt lat="41.6995300" lon="-8.8530950">
        <ele>5.3</ele>
        <time>2021-05-18T06:15:29Z</time>
      </trkpt>
      <trkpt lat="41.6995440" lon="-8.8531150">
        <ele>5.3</ele>
        <time>2021-05-18T06:15:30Z</time>
      </trkpt>
      <trkpt lat="41.6995510" lon="-8.8531230">
        <ele>5.3</ele>
        <time>2021-05-18T06:15:31Z</time>
      </trkpt>
      <trkpt lat="41.6995570" lon="-8.8531310">
        <ele>5.3</ele>
        <time>2021-05-18T06:15:32Z</time>
      </trkpt>
      <trkpt lat="41.6995670" lon="-8.8531440">
        <ele>5.3</ele>
        <time>2021-05-18T06:15:33Z</time>
      </trkpt>
      <trkpt lat="41.6995730" lon="-8.8531610">
        <ele>5.3</ele>
        <time>2021-05-18T06:15:34Z</time>
      </trkpt>
      <trkpt lat="41.6995730" lon="-8.8531820">
        <ele>5.3</ele>
        <time>2021-05-18T06:15:35Z</time>
      </trkpt>
      <trkpt lat="41.6995630" lon="-8.8532070">
        <ele>5.3</ele>
        <time>2021-05-18T06:15:36Z</time>
      </trkpt>
      <trkpt lat="41.6995490" lon="-8.8532390">
        <ele>5.3</ele>
        <time>2021-05-18T06:15:37Z</time>
      </trkpt>
      <trkpt lat="41.6995460" lon="-8.8532500">
        <ele>5.3</ele>
        <time>2021-05-18T06:15:38Z</time>
      </trkpt>
      <trkpt lat="41.6995480" lon="-8.8532740">
        <ele>5.3</ele>
        <time>2021-05-18T06:15:39Z</time>
      </trkpt>
      <trkpt lat="41.6995480" lon="-8.8532920">
        <ele>5.3</ele>
        <time>2021-05-18T06:15:40Z</time>
      </trkpt>
      <trkpt lat="41.6995590" lon="-8.8533090">
        <ele>5.3</ele>
        <time>2021-05-18T06:15:41Z</time>
      </trkpt>
      <trkpt lat="41.6995740" lon="-8.8533180">
        <ele>5.3</ele>
        <time>2021-05-18T06:15:42Z</time>
      </trkpt>
      <trkpt lat="41.6995810" lon="-8.8533330">
        <ele>5.3</ele>
        <time>2021-05-18T06:15:43Z</time>
      </trkpt>
      <trkpt lat="41.6995850" lon="-8.8533520">
        <ele>5.3</ele>
        <time>2021-05-18T06:15:44Z</time>
      </trkpt>
      <trkpt lat="41.6995930" lon="-8.8533760">
        <ele>5.3</ele>
        <time>2021-05-18T06:15:45Z</time>
      </trkpt>
      <trkpt lat="41.6996000" lon="-8.8533840">
        <ele>5.3</ele>
        <time>2021-05-18T06:15:46Z</time>
      </trkpt>
      <trkpt lat="41.6996070" lon="-8.8533910">
        <ele>5.3</ele>
        <time>2021-05-18T06:15:47Z</time>
      </trkpt>
      <trkpt lat="41.6996170" lon="-8.8534060">
        <ele>5.3</ele>
        <time>2021-05-18T06:15:48Z</time>
      </trkpt>
      <trkpt lat="41.6996230" lon="-8.8534240">
        <ele>5.3</ele>
        <time>2021-05-18T06:15:49Z</time>
      </trkpt>
      <trkpt lat="41.6996330" lon="-8.8534360">
        <ele>5.3</ele>
        <time>2021-05-18T06:15:50Z</time>
      </trkpt>
      <trkpt lat="41.6996440" lon="-8.8534480">
        <ele>5.3</ele>
        <time>2021-05-18T06:15:51Z</time>
      </trkpt>
      <trkpt lat="41.6996580" lon="-8.8534670">
        <ele>5.3</ele>
        <time>2021-05-18T06:15:52Z</time>
      </trkpt>
      <trkpt lat="41.6996640" lon="-8.8534750">
        <ele>5.3</ele>
        <time>2021-05-18T06:15:53Z</time>
      </trkpt>
      <trkpt lat="41.6996710" lon="-8.8534820">
        <ele>5.3</ele>
        <time>2021-05-18T06:15:54Z</time>
      </trkpt>
      <trkpt lat="41.6996840" lon="-8.8534940">
        <ele>5.3</ele>
        <time>2021-05-18T06:15:55Z</time>
      </trkpt>
      <trkpt lat="41.6996930" lon="-8.8535080">
        <ele>5.3</ele>
        <time>2021-05-18T06:15:56Z</time>
      </trkpt>
      <trkpt lat="41.6997060" lon="-8.8535190">
        <ele>5.3</ele>
        <time>2021-05-18T06:15:57Z</time>
      </trkpt>
      <trkpt lat="41.6997150" lon="-8.8535340">
        <ele>5.3</ele>
        <time>2021-05-18T06:15:58Z</time>
      </trkpt>
      <trkpt lat="41.6997220" lon="-8.8535490">
        <ele>5.3</ele>
        <time>2021-05-18T06:15:59Z</time>
      </trkpt>
      <trkpt lat="41.6997230" lon="-8.8535710">
        <ele>5.3</ele>
        <time>2021-05-18T06:16:00Z</time>
      </trkpt>
      <trkpt lat="41.6997230" lon="-8.8535920">
        <ele>5.3</ele>
        <time>2021-05-18T06:16:01Z</time>
      </trkpt>
      <trkpt lat="41.6997190" lon="-8.8536150">
        <ele>5.3</ele>
        <time>2021-05-18T06:16:02Z</time>
      </trkpt>
      <trkpt lat="41.6997170" lon="-8.8536360">
        <ele>5.3</ele>
        <time>2021-05-18T06:16:03Z</time>
      </trkpt>
      <trkpt lat="41.6997170" lon="-8.8536560">
        <ele>5.3</ele>
        <time>2021-05-18T06:16:04Z</time>
      </trkpt>
      <trkpt lat="41.6997190" lon="-8.8536750">
        <ele>5.3</ele>
        <time>2021-05-18T06:16:05Z</time>
      </trkpt>
      <trkpt lat="41.6997190" lon="-8.8536970">
        <ele>5.3</ele>
        <time>2021-05-18T06:16:06Z</time>
      </trkpt>
      <trkpt lat="41.6997210" lon="-8.8537140">
        <ele>5.3</ele>
        <time>2021-05-18T06:16:07Z</time>
      </trkpt>
      <trkpt lat="41.6997210" lon="-8.8537350">
        <ele>5.3</ele>
        <time>2021-05-18T06:16:08Z</time>
      </trkpt>
      <trkpt lat="41.6997250" lon="-8.8537530">
        <ele>5.3</ele>
        <time>2021-05-18T06:16:09Z</time>
      </trkpt>
      <trkpt lat="41.6997280" lon="-8.8537730">
        <ele>5.3</ele>
        <time>2021-05-18T06:16:10Z</time>
      </trkpt>
      <trkpt lat="41.6997340" lon="-8.8537930">
        <ele>5.3</ele>
        <time>2021-05-18T06:16:11Z</time>
      </trkpt>
      <trkpt lat="41.6997390" lon="-8.8538110">
        <ele>5.3</ele>
        <time>2021-05-18T06:16:12Z</time>
      </trkpt>
      <trkpt lat="41.6997420" lon="-8.8538280">
        <ele>5.3</ele>
        <time>2021-05-18T06:16:13Z</time>
      </trkpt>
      <trkpt lat="41.6997410" lon="-8.8538470">
        <ele>5.3</ele>
        <time>2021-05-18T06:16:14Z</time>
      </trkpt>
      <trkpt lat="41.6997430" lon="-8.8538670">
        <ele>5.3</ele>
        <time>2021-05-18T06:16:15Z</time>
      </trkpt>
      <trkpt lat="41.6997500" lon="-8.8538870">
        <ele>5.3</ele>
        <time>2021-05-18T06:16:16Z</time>
      </trkpt>
      <trkpt lat="41.6997490" lon="-8.8539060">
        <ele>5.3</ele>
        <time>2021-05-18T06:16:17Z</time>
      </trkpt>
      <trkpt lat="41.6997520" lon="-8.8539260">
        <ele>5.3</ele>
        <time>2021-05-18T06:16:18Z</time>
      </trkpt>
      <trkpt lat="41.6997540" lon="-8.8539430">
        <ele>5.3</ele>
        <time>2021-05-18T06:16:19Z</time>
      </trkpt>
      <trkpt lat="41.6997550" lon="-8.8539630">
        <ele>5.3</ele>
        <time>2021-05-18T06:16:20Z</time>
      </trkpt>
      <trkpt lat="41.6997580" lon="-8.8539830">
        <ele>5.3</ele>
        <time>2021-05-18T06:16:21Z</time>
      </trkpt>
      <trkpt lat="41.6997600" lon="-8.8540000">
        <ele>5.3</ele>
        <time>2021-05-18T06:16:22Z</time>
      </trkpt>
      <trkpt lat="41.6997640" lon="-8.8540170">
        <ele>5.3</ele>
        <time>2021-05-18T06:16:23Z</time>
      </trkpt>
      <trkpt lat="41.6997660" lon="-8.8540360">
        <ele>5.3</ele>
        <time>2021-05-18T06:16:24Z</time>
      </trkpt>
      <trkpt lat="41.6997680" lon="-8.8540550">
        <ele>5.3</ele>
        <time>2021-05-18T06:16:25Z</time>
      </trkpt>
      <trkpt lat="41.6997700" lon="-8.8540730">
        <ele>5.3</ele>
        <time>2021-05-18T06:16:26Z</time>
      </trkpt>
      <trkpt lat="41.6997700" lon="-8.8540910">
        <ele>5.2</ele>
        <time>2021-05-18T06:16:27Z</time>
      </trkpt>
      <trkpt lat="41.6997750" lon="-8.8541100">
        <ele>5.2</ele>
        <time>2021-05-18T06:16:28Z</time>
      </trkpt>
      <trkpt lat="41.6997800" lon="-8.8541400">
        <ele>5.2</ele>
        <time>2021-05-18T06:16:29Z</time>
      </trkpt>
      <trkpt lat="41.6997840" lon="-8.8541500">
        <ele>5.2</ele>
        <time>2021-05-18T06:16:30Z</time>
      </trkpt>
      <trkpt lat="41.6997890" lon="-8.8541600">
        <ele>5.2</ele>
        <time>2021-05-18T06:16:31Z</time>
      </trkpt>
      <trkpt lat="41.6997940" lon="-8.8541760">
        <ele>5.2</ele>
        <time>2021-05-18T06:16:32Z</time>
      </trkpt>
      <trkpt lat="41.6997930" lon="-8.8541980">
        <ele>5.2</ele>
        <time>2021-05-18T06:16:33Z</time>
      </trkpt>
      <trkpt lat="41.6997940" lon="-8.8542170">
        <ele>5.2</ele>
        <time>2021-05-18T06:16:34Z</time>
      </trkpt>
      <trkpt lat="41.6997940" lon="-8.8542360">
        <ele>5.2</ele>
        <time>2021-05-18T06:16:35Z</time>
      </trkpt>
      <trkpt lat="41.6998000" lon="-8.8542660">
        <ele>5.2</ele>
        <time>2021-05-18T06:16:36Z</time>
      </trkpt>
      <trkpt lat="41.6998020" lon="-8.8542780">
        <ele>5.2</ele>
        <time>2021-05-18T06:16:37Z</time>
      </trkpt>
      <trkpt lat="41.6998050" lon="-8.8542890">
        <ele>5.2</ele>
        <time>2021-05-18T06:16:38Z</time>
      </trkpt>
      <trkpt lat="41.6998040" lon="-8.8543080">
        <ele>5.2</ele>
        <time>2021-05-18T06:16:39Z</time>
      </trkpt>
      <trkpt lat="41.6998070" lon="-8.8543280">
        <ele>5.2</ele>
        <time>2021-05-18T06:16:40Z</time>
      </trkpt>
      <trkpt lat="41.6998100" lon="-8.8543450">
        <ele>5.2</ele>
        <time>2021-05-18T06:16:41Z</time>
      </trkpt>
      <trkpt lat="41.6998100" lon="-8.8543680">
        <ele>5.2</ele>
        <time>2021-05-18T06:16:42Z</time>
      </trkpt>
      <trkpt lat="41.6998150" lon="-8.8543850">
        <ele>5.2</ele>
        <time>2021-05-18T06:16:43Z</time>
      </trkpt>
      <trkpt lat="41.6998160" lon="-8.8544040">
        <ele>5.2</ele>
        <time>2021-05-18T06:16:44Z</time>
      </trkpt>
      <trkpt lat="41.6998230" lon="-8.8544220">
        <ele>5.2</ele>
        <time>2021-05-18T06:16:45Z</time>
      </trkpt>
      <trkpt lat="41.6998260" lon="-8.8544400">
        <ele>5.2</ele>
        <time>2021-05-18T06:16:46Z</time>
      </trkpt>
      <trkpt lat="41.6998260" lon="-8.8544580">
        <ele>5.2</ele>
        <time>2021-05-18T06:16:47Z</time>
      </trkpt>
      <trkpt lat="41.6998330" lon="-8.8544750">
        <ele>5.2</ele>
        <time>2021-05-18T06:16:48Z</time>
      </trkpt>
      <trkpt lat="41.6998370" lon="-8.8545040">
        <ele>5.2</ele>
        <time>2021-05-18T06:16:49Z</time>
      </trkpt>
      <trkpt lat="41.6998380" lon="-8.8545150">
        <ele>5.2</ele>
        <time>2021-05-18T06:16:50Z</time>
      </trkpt>
      <trkpt lat="41.6998380" lon="-8.8545270">
        <ele>5.2</ele>
        <time>2021-05-18T06:16:51Z</time>
      </trkpt>
      <trkpt lat="41.6998270" lon="-8.8545460">
        <ele>5.2</ele>
        <time>2021-05-18T06:16:52Z</time>
      </trkpt>
      <trkpt lat="41.6998110" lon="-8.8545590">
        <ele>5.2</ele>
        <time>2021-05-18T06:16:53Z</time>
      </trkpt>
      <trkpt lat="41.6998000" lon="-8.8545700">
        <ele>5.2</ele>
        <time>2021-05-18T06:16:54Z</time>
      </trkpt>
      <trkpt lat="41.6997920" lon="-8.8545850">
        <ele>5.2</ele>
        <time>2021-05-18T06:16:55Z</time>
      </trkpt>
      <trkpt lat="41.6997950" lon="-8.8546080">
        <ele>5.2</ele>
        <time>2021-05-18T06:16:56Z</time>
      </trkpt>
      <trkpt lat="41.6997960" lon="-8.8546290">
        <ele>5.2</ele>
        <time>2021-05-18T06:16:57Z</time>
      </trkpt>
      <trkpt lat="41.6998000" lon="-8.8546480">
        <ele>5.2</ele>
        <time>2021-05-18T06:16:58Z</time>
      </trkpt>
      <trkpt lat="41.6998010" lon="-8.8546660">
        <ele>5.2</ele>
        <time>2021-05-18T06:16:59Z</time>
      </trkpt>
      <trkpt lat="41.6998030" lon="-8.8546880">
        <ele>5.2</ele>
        <time>2021-05-18T06:17:00Z</time>
      </trkpt>
      <trkpt lat="41.6998020" lon="-8.8547070">
        <ele>5.2</ele>
        <time>2021-05-18T06:17:01Z</time>
      </trkpt>
      <trkpt lat="41.6998110" lon="-8.8547250">
        <ele>5.2</ele>
        <time>2021-05-18T06:17:02Z</time>
      </trkpt>
      <trkpt lat="41.6998140" lon="-8.8547420">
        <ele>5.2</ele>
        <time>2021-05-18T06:17:03Z</time>
      </trkpt>
      <trkpt lat="41.6998140" lon="-8.8547620">
        <ele>5.2</ele>
        <time>2021-05-18T06:17:04Z</time>
      </trkpt>
      <trkpt lat="41.6998220" lon="-8.8547810">
        <ele>5.2</ele>
        <time>2021-05-18T06:17:05Z</time>
      </trkpt>
      <trkpt lat="41.6998240" lon="-8.8547990">
        <ele>5.2</ele>
        <time>2021-05-18T06:17:06Z</time>
      </trkpt>
      <trkpt lat="41.6998280" lon="-8.8548180">
        <ele>5.2</ele>
        <time>2021-05-18T06:17:07Z</time>
      </trkpt>
      <trkpt lat="41.6998290" lon="-8.8548340">
        <ele>5.2</ele>
        <time>2021-05-18T06:17:08Z</time>
      </trkpt>
      <trkpt lat="41.6998370" lon="-8.8548520">
        <ele>5.2</ele>
        <time>2021-05-18T06:17:09Z</time>
      </trkpt>
      <trkpt lat="41.6998550" lon="-8.8548730">
        <ele>5.2</ele>
        <time>2021-05-18T06:17:10Z</time>
      </trkpt>
      <trkpt lat="41.6998640" lon="-8.8548790">
        <ele>5.2</ele>
        <time>2021-05-18T06:17:11Z</time>
      </trkpt>
      <trkpt lat="41.6998740" lon="-8.8548840">
        <ele>5.2</ele>
        <time>2021-05-18T06:17:12Z</time>
      </trkpt>
      <trkpt lat="41.6998900" lon="-8.8548810">
        <ele>5.2</ele>
        <time>2021-05-18T06:17:13Z</time>
      </trkpt>
      <trkpt lat="41.6999030" lon="-8.8548830">
        <ele>5.2</ele>
        <time>2021-05-18T06:17:14Z</time>
      </trkpt>
      <trkpt lat="41.6999110" lon="-8.8549020">
        <ele>5.2</ele>
        <time>2021-05-18T06:17:15Z</time>
      </trkpt>
      <trkpt lat="41.6999150" lon="-8.8549240">
        <ele>5.2</ele>
        <time>2021-05-18T06:17:16Z</time>
      </trkpt>
      <trkpt lat="41.6999120" lon="-8.8549480">
        <ele>5.2</ele>
        <time>2021-05-18T06:17:17Z</time>
      </trkpt>
      <trkpt lat="41.6999080" lon="-8.8549680">
        <ele>5.2</ele>
        <time>2021-05-18T06:17:18Z</time>
      </trkpt>
      <trkpt lat="41.6999140" lon="-8.8549850">
        <ele>5.2</ele>
        <time>2021-05-18T06:17:19Z</time>
      </trkpt>
      <trkpt lat="41.6999160" lon="-8.8550040">
        <ele>5.2</ele>
        <time>2021-05-18T06:17:20Z</time>
      </trkpt>
      <trkpt lat="41.6999180" lon="-8.8550240">
        <ele>5.2</ele>
        <time>2021-05-18T06:17:21Z</time>
      </trkpt>
      <trkpt lat="41.6999210" lon="-8.8550440">
        <ele>5.2</ele>
        <time>2021-05-18T06:17:22Z</time>
      </trkpt>
      <trkpt lat="41.6999250" lon="-8.8550650">
        <ele>5.2</ele>
        <time>2021-05-18T06:17:23Z</time>
      </trkpt>
      <trkpt lat="41.6999290" lon="-8.8550840">
        <ele>5.2</ele>
        <time>2021-05-18T06:17:24Z</time>
      </trkpt>
      <trkpt lat="41.6999380" lon="-8.8551010">
        <ele>5.2</ele>
        <time>2021-05-18T06:17:25Z</time>
      </trkpt>
      <trkpt lat="41.6999420" lon="-8.8551190">
        <ele>5.2</ele>
        <time>2021-05-18T06:17:26Z</time>
      </trkpt>
      <trkpt lat="41.6999480" lon="-8.8551360">
        <ele>5.2</ele>
        <time>2021-05-18T06:17:27Z</time>
      </trkpt>
      <trkpt lat="41.6999450" lon="-8.8551560">
        <ele>5.2</ele>
        <time>2021-05-18T06:17:28Z</time>
      </trkpt>
      <trkpt lat="41.6999480" lon="-8.8551750">
        <ele>5.2</ele>
        <time>2021-05-18T06:17:29Z</time>
      </trkpt>
      <trkpt lat="41.6999510" lon="-8.8551930">
        <ele>5.2</ele>
        <time>2021-05-18T06:17:30Z</time>
      </trkpt>
      <trkpt lat="41.6999580" lon="-8.8552210">
        <ele>5.2</ele>
        <time>2021-05-18T06:17:31Z</time>
      </trkpt>
      <trkpt lat="41.6999610" lon="-8.8552330">
        <ele>5.2</ele>
        <time>2021-05-18T06:17:32Z</time>
      </trkpt>
      <trkpt lat="41.6999640" lon="-8.8552440">
        <ele>5.2</ele>
        <time>2021-05-18T06:17:33Z</time>
      </trkpt>
      <trkpt lat="41.6999640" lon="-8.8552630">
        <ele>5.2</ele>
        <time>2021-05-18T06:17:34Z</time>
      </trkpt>
      <trkpt lat="41.6999650" lon="-8.8552820">
        <ele>5.2</ele>
        <time>2021-05-18T06:17:35Z</time>
      </trkpt>
      <trkpt lat="41.6999710" lon="-8.8553000">
        <ele>5.2</ele>
        <time>2021-05-18T06:17:36Z</time>
      </trkpt>
      <trkpt lat="41.6999710" lon="-8.8553200">
        <ele>5.2</ele>
        <time>2021-05-18T06:17:37Z</time>
      </trkpt>
      <trkpt lat="41.6999760" lon="-8.8553380">
        <ele>5.2</ele>
        <time>2021-05-18T06:17:38Z</time>
      </trkpt>
      <trkpt lat="41.6999770" lon="-8.8553590">
        <ele>5.2</ele>
        <time>2021-05-18T06:17:39Z</time>
      </trkpt>
      <trkpt lat="41.6999810" lon="-8.8553760">
        <ele>5.2</ele>
        <time>2021-05-18T06:17:40Z</time>
      </trkpt>
      <trkpt lat="41.6999880" lon="-8.8553920">
        <ele>5.2</ele>
        <time>2021-05-18T06:17:41Z</time>
      </trkpt>
      <trkpt lat="41.6999900" lon="-8.8554190">
        <ele>5.2</ele>
        <time>2021-05-18T06:17:42Z</time>
      </trkpt>
      <trkpt lat="41.6999920" lon="-8.8554300">
        <ele>5.2</ele>
        <time>2021-05-18T06:17:43Z</time>
      </trkpt>
      <trkpt lat="41.6999930" lon="-8.8554410">
        <ele>5.2</ele>
        <time>2021-05-18T06:17:44Z</time>
      </trkpt>
      <trkpt lat="41.6999940" lon="-8.8554680">
        <ele>5.2</ele>
        <time>2021-05-18T06:17:45Z</time>
      </trkpt>
      <trkpt lat="41.6999930" lon="-8.8554810">
        <ele>5.2</ele>
        <time>2021-05-18T06:17:46Z</time>
      </trkpt>
      <trkpt lat="41.6999920" lon="-8.8554930">
        <ele>5.2</ele>
        <time>2021-05-18T06:17:47Z</time>
      </trkpt>
      <trkpt lat="41.6999840" lon="-8.8555070">
        <ele>5.2</ele>
        <time>2021-05-18T06:17:48Z</time>
      </trkpt>
      <trkpt lat="41.6999760" lon="-8.8555170">
        <ele>5.2</ele>
        <time>2021-05-18T06:17:49Z</time>
      </trkpt>
      <trkpt lat="41.6999730" lon="-8.8555310">
        <ele>5.2</ele>
        <time>2021-05-18T06:17:50Z</time>
      </trkpt>
      <trkpt lat="41.6999720" lon="-8.8555500">
        <ele>5.2</ele>
        <time>2021-05-18T06:17:51Z</time>
      </trkpt>
      <trkpt lat="41.6999700" lon="-8.8555700">
        <ele>5.2</ele>
        <time>2021-05-18T06:17:52Z</time>
      </trkpt>
      <trkpt lat="41.6999670" lon="-8.8555870">
        <ele>5.2</ele>
        <time>2021-05-18T06:17:53Z</time>
      </trkpt>
      <trkpt lat="41.6999670" lon="-8.8556070">
        <ele>5.2</ele>
        <time>2021-05-18T06:17:54Z</time>
      </trkpt>
      <trkpt lat="41.6999680" lon="-8.8556380">
        <ele>5.2</ele>
        <time>2021-05-18T06:17:55Z</time>
      </trkpt>
      <trkpt lat="41.6999680" lon="-8.8556490">
        <ele>5.2</ele>
        <time>2021-05-18T06:17:56Z</time>
      </trkpt>
      <trkpt lat="41.6999670" lon="-8.8556610">
        <ele>5.2</ele>
        <time>2021-05-18T06:17:57Z</time>
      </trkpt>
      <trkpt lat="41.6999700" lon="-8.8556890">
        <ele>5.2</ele>
        <time>2021-05-18T06:17:58Z</time>
      </trkpt>
      <trkpt lat="41.6999710" lon="-8.8557010">
        <ele>5.2</ele>
        <time>2021-05-18T06:17:59Z</time>
      </trkpt>
      <trkpt lat="41.6999710" lon="-8.8557120">
        <ele>5.2</ele>
        <time>2021-05-18T06:18:00Z</time>
      </trkpt>
      <trkpt lat="41.6999670" lon="-8.8557310">
        <ele>5.2</ele>
        <time>2021-05-18T06:18:01Z</time>
      </trkpt>
      <trkpt lat="41.6999640" lon="-8.8557450">
        <ele>5.2</ele>
        <time>2021-05-18T06:18:02Z</time>
      </trkpt>
      <trkpt lat="41.6999610" lon="-8.8557580">
        <ele>5.2</ele>
        <time>2021-05-18T06:18:03Z</time>
      </trkpt>
      <trkpt lat="41.6999640" lon="-8.8557670">
        <ele>5.2</ele>
        <time>2021-05-18T06:18:04Z</time>
      </trkpt>
      <trkpt lat="41.6999590" lon="-8.8557700">
        <ele>5.2</ele>
        <time>2021-05-18T06:18:05Z</time>
      </trkpt>
      <trkpt lat="41.6999600" lon="-8.8557510">
        <ele>5.2</ele>
        <time>2021-05-18T06:18:06Z</time>
      </trkpt>
      <trkpt lat="41.6999600" lon="-8.8557370">
        <ele>5.2</ele>
        <time>2021-05-18T06:18:07Z</time>
      </trkpt>
      <trkpt lat="41.6999600" lon="-8.8557310">
        <ele>5.2</ele>
        <time>2021-05-18T06:18:08Z</time>
      </trkpt>
      <trkpt lat="41.6999600" lon="-8.8557290">
        <ele>5.2</ele>
        <time>2021-05-18T06:18:09Z</time>
      </trkpt>
      <trkpt lat="41.6999560" lon="-8.8557410">
        <ele>5.2</ele>
        <time>2021-05-18T06:18:10Z</time>
      </trkpt>
      <trkpt lat="41.6999540" lon="-8.8557530">
        <ele>5.2</ele>
        <time>2021-05-18T06:18:11Z</time>
      </trkpt>
      <trkpt lat="41.6999500" lon="-8.8557670">
        <ele>5.2</ele>
        <time>2021-05-18T06:18:12Z</time>
      </trkpt>
      <trkpt lat="41.6999420" lon="-8.8557780">
        <ele>5.2</ele>
        <time>2021-05-18T06:18:13Z</time>
      </trkpt>
      <trkpt lat="41.6999380" lon="-8.8557900">
        <ele>5.2</ele>
        <time>2021-05-18T06:18:14Z</time>
      </trkpt>
      <trkpt lat="41.6999370" lon="-8.8558030">
        <ele>5.2</ele>
        <time>2021-05-18T06:18:15Z</time>
      </trkpt>
      <trkpt lat="41.6999360" lon="-8.8558110">
        <ele>5.2</ele>
        <time>2021-05-18T06:18:16Z</time>
      </trkpt>
      <trkpt lat="41.6999280" lon="-8.8558050">
        <ele>5.2</ele>
        <time>2021-05-18T06:18:17Z</time>
      </trkpt>
      <trkpt lat="41.6999180" lon="-8.8558060">
        <ele>5.2</ele>
        <time>2021-05-18T06:18:18Z</time>
      </trkpt>
      <trkpt lat="41.6999060" lon="-8.8558030">
        <ele>5.2</ele>
        <time>2021-05-18T06:18:19Z</time>
      </trkpt>
      <trkpt lat="41.6998930" lon="-8.8557900">
        <ele>5.2</ele>
        <time>2021-05-18T06:18:20Z</time>
      </trkpt>
      <trkpt lat="41.6998890" lon="-8.8557850">
        <ele>5.2</ele>
        <time>2021-05-18T06:18:21Z</time>
      </trkpt>
      <trkpt lat="41.6998840" lon="-8.8557800">
        <ele>5.2</ele>
        <time>2021-05-18T06:18:22Z</time>
      </trkpt>
      <trkpt lat="41.6998800" lon="-8.8557750">
        <ele>5.2</ele>
        <time>2021-05-18T06:18:23Z</time>
      </trkpt>
      <trkpt lat="41.6998750" lon="-8.8557700">
        <ele>5.2</ele>
        <time>2021-05-18T06:18:24Z</time>
      </trkpt>
      <trkpt lat="41.6998700" lon="-8.8557590">
        <ele>5.2</ele>
        <time>2021-05-18T06:18:25Z</time>
      </trkpt>
      <trkpt lat="41.6998620" lon="-8.8557520">
        <ele>5.2</ele>
        <time>2021-05-18T06:18:26Z</time>
      </trkpt>
      <trkpt lat="41.6998590" lon="-8.8557530">
        <ele>5.2</ele>
        <time>2021-05-18T06:18:27Z</time>
      </trkpt>
      <trkpt lat="41.6998630" lon="-8.8557570">
        <ele>5.2</ele>
        <time>2021-05-18T06:18:28Z</time>
      </trkpt>
      <trkpt lat="41.6998620" lon="-8.8557520">
        <ele>5.2</ele>
        <time>2021-05-18T06:18:29Z</time>
      </trkpt>
      <trkpt lat="41.6998630" lon="-8.8557520">
        <ele>5.2</ele>
        <time>2021-05-18T06:18:30Z</time>
      </trkpt>
      <trkpt lat="41.6998610" lon="-8.8557490">
        <ele>5.2</ele>
        <time>2021-05-18T06:18:31Z</time>
      </trkpt>
      <trkpt lat="41.6998620" lon="-8.8557460">
        <ele>5.2</ele>
        <time>2021-05-18T06:18:32Z</time>
      </trkpt>
      <trkpt lat="41.6998630" lon="-8.8557430">
        <ele>5.2</ele>
        <time>2021-05-18T06:18:33Z</time>
      </trkpt>
      <trkpt lat="41.6998640" lon="-8.8557410">
        <ele>5.2</ele>
        <time>2021-05-18T06:18:34Z</time>
      </trkpt>
      <trkpt lat="41.6998620" lon="-8.8557410">
        <ele>5.2</ele>
        <time>2021-05-18T06:18:35Z</time>
      </trkpt>
      <trkpt lat="41.6998610" lon="-8.8557410">
        <ele>5.2</ele>
        <time>2021-05-18T06:18:36Z</time>
      </trkpt>
      <trkpt lat="41.6998540" lon="-8.8557380">
        <ele>5.2</ele>
        <time>2021-05-18T06:18:37Z</time>
      </trkpt>
      <trkpt lat="41.6998530" lon="-8.8557450">
        <ele>5.2</ele>
        <time>2021-05-18T06:18:38Z</time>
      </trkpt>
      <trkpt lat="41.6998450" lon="-8.8557450">
        <ele>5.2</ele>
        <time>2021-05-18T06:18:39Z</time>
      </trkpt>
      <trkpt lat="41.6998350" lon="-8.8557520">
        <ele>5.2</ele>
        <time>2021-05-18T06:18:40Z</time>
      </trkpt>
      <trkpt lat="41.6998270" lon="-8.8557620">
        <ele>5.2</ele>
        <time>2021-05-18T06:18:41Z</time>
      </trkpt>
      <trkpt lat="41.6998230" lon="-8.8557860">
        <ele>5.2</ele>
        <time>2021-05-18T06:18:42Z</time>
      </trkpt>
      <trkpt lat="41.6998220" lon="-8.8558020">
        <ele>5.2</ele>
        <time>2021-05-18T06:18:43Z</time>
      </trkpt>
      <trkpt lat="41.6998220" lon="-8.8558270">
        <ele>5.2</ele>
        <time>2021-05-18T06:18:44Z</time>
      </trkpt>
      <trkpt lat="41.6998220" lon="-8.8558440">
        <ele>5.2</ele>
        <time>2021-05-18T06:18:45Z</time>
      </trkpt>
      <trkpt lat="41.6998180" lon="-8.8558550">
        <ele>5.2</ele>
        <time>2021-05-18T06:18:46Z</time>
      </trkpt>
      <trkpt lat="41.6998150" lon="-8.8558750">
        <ele>5.2</ele>
        <time>2021-05-18T06:18:47Z</time>
      </trkpt>
      <trkpt lat="41.6998200" lon="-8.8558880">
        <ele>5.2</ele>
        <time>2021-05-18T06:18:48Z</time>
      </trkpt>
      <trkpt lat="41.6998300" lon="-8.8559110">
        <ele>5.2</ele>
        <time>2021-05-18T06:18:49Z</time>
      </trkpt>
      <trkpt lat="41.6998340" lon="-8.8559210">
        <ele>5.2</ele>
        <time>2021-05-18T06:18:50Z</time>
      </trkpt>
      <trkpt lat="41.6998390" lon="-8.8559300">
        <ele>5.2</ele>
        <time>2021-05-18T06:18:51Z</time>
      </trkpt>
      <trkpt lat="41.6998410" lon="-8.8559460">
        <ele>5.2</ele>
        <time>2021-05-18T06:18:52Z</time>
      </trkpt>
      <trkpt lat="41.6998510" lon="-8.8559630">
        <ele>5.2</ele>
        <time>2021-05-18T06:18:53Z</time>
      </trkpt>
      <trkpt lat="41.6998590" lon="-8.8559710">
        <ele>5.2</ele>
        <time>2021-05-18T06:18:54Z</time>
      </trkpt>
      <trkpt lat="41.6998670" lon="-8.8559840">
        <ele>5.2</ele>
        <time>2021-05-18T06:18:55Z</time>
      </trkpt>
      <trkpt lat="41.6998710" lon="-8.8559920">
        <ele>5.2</ele>
        <time>2021-05-18T06:18:56Z</time>
      </trkpt>
      <trkpt lat="41.6998770" lon="-8.8560130">
        <ele>5.2</ele>
        <time>2021-05-18T06:18:57Z</time>
      </trkpt>
      <trkpt lat="41.6998680" lon="-8.8560150">
        <ele>5.2</ele>
        <time>2021-05-18T06:18:58Z</time>
      </trkpt>
      <trkpt lat="41.6998650" lon="-8.8560270">
        <ele>5.2</ele>
        <time>2021-05-18T06:18:59Z</time>
      </trkpt>
      <trkpt lat="41.6998640" lon="-8.8560400">
        <ele>5.2</ele>
        <time>2021-05-18T06:19:00Z</time>
      </trkpt>
      <trkpt lat="41.6998600" lon="-8.8560560">
        <ele>5.2</ele>
        <time>2021-05-18T06:19:01Z</time>
      </trkpt>
      <trkpt lat="41.6998500" lon="-8.8560550">
        <ele>5.2</ele>
        <time>2021-05-18T06:19:02Z</time>
      </trkpt>
      <trkpt lat="41.6998470" lon="-8.8560510">
        <ele>5.2</ele>
        <time>2021-05-18T06:19:03Z</time>
      </trkpt>
      <trkpt lat="41.6998450" lon="-8.8560510">
        <ele>5.2</ele>
        <time>2021-05-18T06:19:04Z</time>
      </trkpt>
      <trkpt lat="41.6998470" lon="-8.8560420">
        <ele>5.2</ele>
        <time>2021-05-18T06:19:05Z</time>
      </trkpt>
      <trkpt lat="41.6998540" lon="-8.8560280">
        <ele>5.2</ele>
        <time>2021-05-18T06:19:06Z</time>
      </trkpt>
      <trkpt lat="41.6998590" lon="-8.8560140">
        <ele>5.2</ele>
        <time>2021-05-18T06:19:07Z</time>
      </trkpt>
      <trkpt lat="41.6998700" lon="-8.8560080">
        <ele>5.2</ele>
        <time>2021-05-18T06:19:08Z</time>
      </trkpt>
      <trkpt lat="41.6998840" lon="-8.8560250">
        <ele>5.2</ele>
        <time>2021-05-18T06:19:09Z</time>
      </trkpt>
      <trkpt lat="41.6998900" lon="-8.8560250">
        <ele>5.2</ele>
        <time>2021-05-18T06:19:10Z</time>
      </trkpt>
      <trkpt lat="41.6998880" lon="-8.8560330">
        <ele>5.2</ele>
        <time>2021-05-18T06:19:11Z</time>
      </trkpt>
      <trkpt lat="41.6998880" lon="-8.8560320">
        <ele>5.2</ele>
        <time>2021-05-18T06:19:12Z</time>
      </trkpt>
      <trkpt lat="41.6998860" lon="-8.8560350">
        <ele>5.2</ele>
        <time>2021-05-18T06:19:13Z</time>
      </trkpt>
      <trkpt lat="41.6998890" lon="-8.8560450">
        <ele>5.2</ele>
        <time>2021-05-18T06:19:14Z</time>
      </trkpt>
      <trkpt lat="41.6998890" lon="-8.8560460">
        <ele>5.2</ele>
        <time>2021-05-18T06:19:15Z</time>
      </trkpt>
      <trkpt lat="41.6998890" lon="-8.8560460">
        <ele>5.2</ele>
        <time>2021-05-18T06:19:16Z</time>
      </trkpt>
      <trkpt lat="41.6998890" lon="-8.8560460">
        <ele>5.2</ele>
        <time>2021-05-18T06:19:17Z</time>
      </trkpt>
      <trkpt lat="41.6998890" lon="-8.8560460">
        <ele>5.2</ele>
        <time>2021-05-18T06:19:18Z</time>
      </trkpt>
      <trkpt lat="41.6998890" lon="-8.8560460">
        <ele>5.2</ele>
        <time>2021-05-18T06:19:19Z</time>
      </trkpt>
      <trkpt lat="41.6998890" lon="-8.8560460">
        <ele>5.2</ele>
        <time>2021-05-18T06:19:20Z</time>
      </trkpt>
      <trkpt lat="41.6998890" lon="-8.8560460">
        <ele>5.2</ele>
        <time>2021-05-18T06:19:21Z</time>
      </trkpt>
      <trkpt lat="41.6998890" lon="-8.8560460">
        <ele>5.2</ele>
        <time>2021-05-18T06:19:22Z</time>
      </trkpt>
      <trkpt lat="41.6998890" lon="-8.8560460">
        <ele>5.2</ele>
        <time>2021-05-18T06:19:23Z</time>
      </trkpt>
      <trkpt lat="41.6998890" lon="-8.8560460">
        <ele>5.2</ele>
        <time>2021-05-18T06:19:24Z</time>
      </trkpt>
      <trkpt lat="41.6998890" lon="-8.8560460">
        <ele>5.2</ele>
        <time>2021-05-18T06:19:25Z</time>
      </trkpt>
      <trkpt lat="41.6998890" lon="-8.8560460">
        <ele>5.2</ele>
        <time>2021-05-18T06:19:26Z</time>
      </trkpt>
      <trkpt lat="41.6998890" lon="-8.8560460">
        <ele>5.2</ele>
        <time>2021-05-18T06:19:27Z</time>
      </trkpt>
      <trkpt lat="41.6998910" lon="-8.8560690">
        <ele>5.2</ele>
        <time>2021-05-18T06:19:28Z</time>
      </trkpt>
      <trkpt lat="41.6999060" lon="-8.8560780">
        <ele>5.2</ele>
        <time>2021-05-18T06:19:29Z</time>
      </trkpt>
      <trkpt lat="41.6999140" lon="-8.8560820">
        <ele>5.2</ele>
        <time>2021-05-18T06:19:30Z</time>
      </trkpt>
      <trkpt lat="41.6999210" lon="-8.8560860">
        <ele>5.2</ele>
        <time>2021-05-18T06:19:31Z</time>
      </trkpt>
      <trkpt lat="41.6999280" lon="-8.8560900">
        <ele>5.2</ele>
        <time>2021-05-18T06:19:32Z</time>
      </trkpt>
      <trkpt lat="41.6999490" lon="-8.8561010">
        <ele>5.2</ele>
        <time>2021-05-18T06:19:33Z</time>
      </trkpt>
      <trkpt lat="41.6999600" lon="-8.8561050">
        <ele>5.2</ele>
        <time>2021-05-18T06:19:34Z</time>
      </trkpt>
      <trkpt lat="41.6999720" lon="-8.8561100">
        <ele>5.2</ele>
        <time>2021-05-18T06:19:35Z</time>
      </trkpt>
      <trkpt lat="41.6999870" lon="-8.8561110">
        <ele>5.2</ele>
        <time>2021-05-18T06:19:36Z</time>
      </trkpt>
      <trkpt lat="41.7000000" lon="-8.8561100">
        <ele>5.2</ele>
        <time>2021-05-18T06:19:37Z</time>
      </trkpt>
      <trkpt lat="41.7000200" lon="-8.8561190">
        <ele>5.2</ele>
        <time>2021-05-18T06:19:38Z</time>
      </trkpt>
      <trkpt lat="41.7000290" lon="-8.8561220">
        <ele>5.2</ele>
        <time>2021-05-18T06:19:39Z</time>
      </trkpt>
      <trkpt lat="41.7000370" lon="-8.8561260">
        <ele>5.2</ele>
        <time>2021-05-18T06:19:40Z</time>
      </trkpt>
      <trkpt lat="41.7000520" lon="-8.8561420">
        <ele>5.2</ele>
        <time>2021-05-18T06:19:41Z</time>
      </trkpt>
      <trkpt lat="41.7000660" lon="-8.8561490">
        <ele>5.1</ele>
        <time>2021-05-18T06:19:42Z</time>
      </trkpt>
      <trkpt lat="41.7000790" lon="-8.8561570">
        <ele>5.1</ele>
        <time>2021-05-18T06:19:43Z</time>
      </trkpt>
      <trkpt lat="41.7000900" lon="-8.8561720">
        <ele>5.1</ele>
        <time>2021-05-18T06:19:44Z</time>
      </trkpt>
      <trkpt lat="41.7001000" lon="-8.8561850">
        <ele>5.1</ele>
        <time>2021-05-18T06:19:45Z</time>
      </trkpt>
      <trkpt lat="41.7001090" lon="-8.8562000">
        <ele>5.1</ele>
        <time>2021-05-18T06:19:46Z</time>
      </trkpt>
      <trkpt lat="41.7001140" lon="-8.8562200">
        <ele>5.1</ele>
        <time>2021-05-18T06:19:47Z</time>
      </trkpt>
      <trkpt lat="41.7001190" lon="-8.8562380">
        <ele>5.1</ele>
        <time>2021-05-18T06:19:48Z</time>
      </trkpt>
      <trkpt lat="41.7001200" lon="-8.8562580">
        <ele>5.1</ele>
        <time>2021-05-18T06:19:49Z</time>
      </trkpt>
      <trkpt lat="41.7001280" lon="-8.8562760">
        <ele>5.1</ele>
        <time>2021-05-18T06:19:50Z</time>
      </trkpt>
      <trkpt lat="41.7001300" lon="-8.8562950">
        <ele>5.1</ele>
        <time>2021-05-18T06:19:51Z</time>
      </trkpt>
      <trkpt lat="41.7001430" lon="-8.8563290">
        <ele>5.1</ele>
        <time>2021-05-18T06:19:52Z</time>
      </trkpt>
      <trkpt lat="41.7001510" lon="-8.8563450">
        <ele>5.1</ele>
        <time>2021-05-18T06:19:53Z</time>
      </trkpt>
      <trkpt lat="41.7001640" lon="-8.8563600">
        <ele>5.1</ele>
        <time>2021-05-18T06:19:54Z</time>
      </trkpt>
      <trkpt lat="41.7001740" lon="-8.8563740">
        <ele>5.1</ele>
        <time>2021-05-18T06:19:55Z</time>
      </trkpt>
      <trkpt lat="41.7001860" lon="-8.8563850">
        <ele>5.1</ele>
        <time>2021-05-18T06:19:56Z</time>
      </trkpt>
      <trkpt lat="41.7001960" lon="-8.8563990">
        <ele>5.1</ele>
        <time>2021-05-18T06:19:57Z</time>
      </trkpt>
      <trkpt lat="41.7002080" lon="-8.8564090">
        <ele>5.1</ele>
        <time>2021-05-18T06:19:58Z</time>
      </trkpt>
      <trkpt lat="41.7002210" lon="-8.8564170">
        <ele>5.1</ele>
        <time>2021-05-18T06:19:59Z</time>
      </trkpt>
      <trkpt lat="41.7002340" lon="-8.8564290">
        <ele>5.1</ele>
        <time>2021-05-18T06:20:00Z</time>
      </trkpt>
      <trkpt lat="41.7002490" lon="-8.8564300">
        <ele>5.1</ele>
        <time>2021-05-18T06:20:01Z</time>
      </trkpt>
      <trkpt lat="41.7002640" lon="-8.8564280">
        <ele>5.1</ele>
        <time>2021-05-18T06:20:02Z</time>
      </trkpt>
      <trkpt lat="41.7002790" lon="-8.8564290">
        <ele>5.1</ele>
        <time>2021-05-18T06:20:03Z</time>
      </trkpt>
      <trkpt lat="41.7003010" lon="-8.8564360">
        <ele>5.1</ele>
        <time>2021-05-18T06:20:04Z</time>
      </trkpt>
      <trkpt lat="41.7003090" lon="-8.8564380">
        <ele>5.1</ele>
        <time>2021-05-18T06:20:05Z</time>
      </trkpt>
      <trkpt lat="41.7003180" lon="-8.8564390">
        <ele>5.1</ele>
        <time>2021-05-18T06:20:06Z</time>
      </trkpt>
      <trkpt lat="41.7003390" lon="-8.8564390">
        <ele>5.1</ele>
        <time>2021-05-18T06:20:07Z</time>
      </trkpt>
      <trkpt lat="41.7003480" lon="-8.8564380">
        <ele>5.1</ele>
        <time>2021-05-18T06:20:08Z</time>
      </trkpt>
      <trkpt lat="41.7003560" lon="-8.8564380">
        <ele>5.1</ele>
        <time>2021-05-18T06:20:09Z</time>
      </trkpt>
      <trkpt lat="41.7003660" lon="-8.8564430">
        <ele>5.1</ele>
        <time>2021-05-18T06:20:10Z</time>
      </trkpt>
      <trkpt lat="41.7003770" lon="-8.8564450">
        <ele>5.1</ele>
        <time>2021-05-18T06:20:11Z</time>
      </trkpt>
      <trkpt lat="41.7003870" lon="-8.8564490">
        <ele>5.1</ele>
        <time>2021-05-18T06:20:12Z</time>
      </trkpt>
      <trkpt lat="41.7004010" lon="-8.8564560">
        <ele>5.1</ele>
        <time>2021-05-18T06:20:13Z</time>
      </trkpt>
      <trkpt lat="41.7004050" lon="-8.8564590">
        <ele>5.1</ele>
        <time>2021-05-18T06:20:14Z</time>
      </trkpt>
      <trkpt lat="41.7004090" lon="-8.8564630">
        <ele>5.1</ele>
        <time>2021-05-18T06:20:15Z</time>
      </trkpt>
      <trkpt lat="41.7004120" lon="-8.8564670">
        <ele>5.2</ele>
        <time>2021-05-18T06:20:16Z</time>
      </trkpt>
      <trkpt lat="41.7004160" lon="-8.8564700">
        <ele>5.2</ele>
        <time>2021-05-18T06:20:17Z</time>
      </trkpt>
      <trkpt lat="41.7004200" lon="-8.8564740">
        <ele>5.2</ele>
        <time>2021-05-18T06:20:18Z</time>
      </trkpt>
      <trkpt lat="41.7004290" lon="-8.8564720">
        <ele>5.2</ele>
        <time>2021-05-18T06:20:19Z</time>
      </trkpt>
      <trkpt lat="41.7004370" lon="-8.8564750">
        <ele>5.2</ele>
        <time>2021-05-18T06:20:20Z</time>
      </trkpt>
      <trkpt lat="41.7004440" lon="-8.8564770">
        <ele>5.2</ele>
        <time>2021-05-18T06:20:21Z</time>
      </trkpt>
      <trkpt lat="41.7004520" lon="-8.8564800">
        <ele>5.2</ele>
        <time>2021-05-18T06:20:22Z</time>
      </trkpt>
      <trkpt lat="41.7004590" lon="-8.8564820">
        <ele>5.2</ele>
        <time>2021-05-18T06:20:23Z</time>
      </trkpt>
      <trkpt lat="41.7004590" lon="-8.8564820">
        <ele>5.2</ele>
        <time>2021-05-18T06:20:24Z</time>
      </trkpt>
      <trkpt lat="41.7004700" lon="-8.8564880">
        <ele>5.2</ele>
        <time>2021-05-18T06:20:25Z</time>
      </trkpt>
      <trkpt lat="41.7004770" lon="-8.8564930">
        <ele>5.2</ele>
        <time>2021-05-18T06:20:26Z</time>
      </trkpt>
      <trkpt lat="41.7004850" lon="-8.8564950">
        <ele>5.2</ele>
        <time>2021-05-18T06:20:27Z</time>
      </trkpt>
      <trkpt lat="41.7005040" lon="-8.8565040">
        <ele>5.2</ele>
        <time>2021-05-18T06:20:28Z</time>
      </trkpt>
      <trkpt lat="41.7005120" lon="-8.8565080">
        <ele>5.2</ele>
        <time>2021-05-18T06:20:29Z</time>
      </trkpt>
      <trkpt lat="41.7005210" lon="-8.8565130">
        <ele>5.2</ele>
        <time>2021-05-18T06:20:30Z</time>
      </trkpt>
      <trkpt lat="41.7005420" lon="-8.8565210">
        <ele>5.2</ele>
        <time>2021-05-18T06:20:31Z</time>
      </trkpt>
      <trkpt lat="41.7005500" lon="-8.8565250">
        <ele>5.2</ele>
        <time>2021-05-18T06:20:32Z</time>
      </trkpt>
      <trkpt lat="41.7005590" lon="-8.8565280">
        <ele>5.3</ele>
        <time>2021-05-18T06:20:33Z</time>
      </trkpt>
      <trkpt lat="41.7005720" lon="-8.8565300">
        <ele>5.3</ele>
        <time>2021-05-18T06:20:34Z</time>
      </trkpt>
      <trkpt lat="41.7005850" lon="-8.8565340">
        <ele>5.3</ele>
        <time>2021-05-18T06:20:35Z</time>
      </trkpt>
      <trkpt lat="41.7005980" lon="-8.8565410">
        <ele>5.3</ele>
        <time>2021-05-18T06:20:36Z</time>
      </trkpt>
      <trkpt lat="41.7006100" lon="-8.8565500">
        <ele>5.3</ele>
        <time>2021-05-18T06:20:37Z</time>
      </trkpt>
      <trkpt lat="41.7006200" lon="-8.8565610">
        <ele>5.3</ele>
        <time>2021-05-18T06:20:38Z</time>
      </trkpt>
      <trkpt lat="41.7006300" lon="-8.8565750">
        <ele>5.3</ele>
        <time>2021-05-18T06:20:39Z</time>
      </trkpt>
      <trkpt lat="41.7006400" lon="-8.8565870">
        <ele>5.3</ele>
        <time>2021-05-18T06:20:40Z</time>
      </trkpt>
      <trkpt lat="41.7006550" lon="-8.8565910">
        <ele>5.3</ele>
        <time>2021-05-18T06:20:41Z</time>
      </trkpt>
      <trkpt lat="41.7006650" lon="-8.8566040">
        <ele>5.3</ele>
        <time>2021-05-18T06:20:42Z</time>
      </trkpt>
      <trkpt lat="41.7006790" lon="-8.8566090">
        <ele>5.3</ele>
        <time>2021-05-18T06:20:43Z</time>
      </trkpt>
      <trkpt lat="41.7006910" lon="-8.8566200">
        <ele>5.3</ele>
        <time>2021-05-18T06:20:44Z</time>
      </trkpt>
      <trkpt lat="41.7007010" lon="-8.8566340">
        <ele>5.3</ele>
        <time>2021-05-18T06:20:45Z</time>
      </trkpt>
      <trkpt lat="41.7007120" lon="-8.8566450">
        <ele>5.3</ele>
        <time>2021-05-18T06:20:46Z</time>
      </trkpt>
      <trkpt lat="41.7007230" lon="-8.8566570">
        <ele>5.3</ele>
        <time>2021-05-18T06:20:47Z</time>
      </trkpt>
      <trkpt lat="41.7007350" lon="-8.8566660">
        <ele>5.3</ele>
        <time>2021-05-18T06:20:48Z</time>
      </trkpt>
      <trkpt lat="41.7007480" lon="-8.8566770">
        <ele>5.3</ele>
        <time>2021-05-18T06:20:49Z</time>
      </trkpt>
      <trkpt lat="41.7007590" lon="-8.8566870">
        <ele>5.3</ele>
        <time>2021-05-18T06:20:50Z</time>
      </trkpt>
      <trkpt lat="41.7007720" lon="-8.8566950">
        <ele>5.3</ele>
        <time>2021-05-18T06:20:51Z</time>
      </trkpt>
      <trkpt lat="41.7007800" lon="-8.8567110">
        <ele>5.3</ele>
        <time>2021-05-18T06:20:52Z</time>
      </trkpt>
      <trkpt lat="41.7007910" lon="-8.8567220">
        <ele>5.3</ele>
        <time>2021-05-18T06:20:53Z</time>
      </trkpt>
      <trkpt lat="41.7008040" lon="-8.8567300">
        <ele>5.3</ele>
        <time>2021-05-18T06:20:54Z</time>
      </trkpt>
      <trkpt lat="41.7008140" lon="-8.8567420">
        <ele>5.3</ele>
        <time>2021-05-18T06:20:55Z</time>
      </trkpt>
      <trkpt lat="41.7008320" lon="-8.8567610">
        <ele>5.3</ele>
        <time>2021-05-18T06:20:56Z</time>
      </trkpt>
      <trkpt lat="41.7008390" lon="-8.8567680">
        <ele>5.3</ele>
        <time>2021-05-18T06:20:57Z</time>
      </trkpt>
      <trkpt lat="41.7008470" lon="-8.8567750">
        <ele>5.3</ele>
        <time>2021-05-18T06:20:58Z</time>
      </trkpt>
      <trkpt lat="41.7008610" lon="-8.8567810">
        <ele>5.3</ele>
        <time>2021-05-18T06:20:59Z</time>
      </trkpt>
      <trkpt lat="41.7008690" lon="-8.8567960">
        <ele>5.3</ele>
        <time>2021-05-18T06:21:00Z</time>
      </trkpt>
      <trkpt lat="41.7008890" lon="-8.8568130">
        <ele>5.2</ele>
        <time>2021-05-18T06:21:01Z</time>
      </trkpt>
      <trkpt lat="41.7008960" lon="-8.8568200">
        <ele>5.2</ele>
        <time>2021-05-18T06:21:02Z</time>
      </trkpt>
      <trkpt lat="41.7009040" lon="-8.8568280">
        <ele>5.2</ele>
        <time>2021-05-18T06:21:03Z</time>
      </trkpt>
      <trkpt lat="41.7009180" lon="-8.8568390">
        <ele>5.2</ele>
        <time>2021-05-18T06:21:04Z</time>
      </trkpt>
      <trkpt lat="41.7009290" lon="-8.8568490">
        <ele>5.2</ele>
        <time>2021-05-18T06:21:05Z</time>
      </trkpt>
      <trkpt lat="41.7009440" lon="-8.8568570">
        <ele>5.2</ele>
        <time>2021-05-18T06:21:06Z</time>
      </trkpt>
      <trkpt lat="41.7009540" lon="-8.8568700">
        <ele>5.2</ele>
        <time>2021-05-18T06:21:07Z</time>
      </trkpt>
      <trkpt lat="41.7009690" lon="-8.8568760">
        <ele>5.2</ele>
        <time>2021-05-18T06:21:08Z</time>
      </trkpt>
      <trkpt lat="41.7009800" lon="-8.8568860">
        <ele>5.2</ele>
        <time>2021-05-18T06:21:09Z</time>
      </trkpt>
      <trkpt lat="41.7009920" lon="-8.8568940">
        <ele>5.2</ele>
        <time>2021-05-18T06:21:10Z</time>
      </trkpt>
      <trkpt lat="41.7010030" lon="-8.8569050">
        <ele>5.2</ele>
        <time>2021-05-18T06:21:11Z</time>
      </trkpt>
      <trkpt lat="41.7010130" lon="-8.8569200">
        <ele>5.2</ele>
        <time>2021-05-18T06:21:12Z</time>
      </trkpt>
      <trkpt lat="41.7010260" lon="-8.8569290">
        <ele>5.3</ele>
        <time>2021-05-18T06:21:13Z</time>
      </trkpt>
      <trkpt lat="41.7010390" lon="-8.8569390">
        <ele>5.3</ele>
        <time>2021-05-18T06:21:14Z</time>
      </trkpt>
      <trkpt lat="41.7010530" lon="-8.8569490">
        <ele>5.3</ele>
        <time>2021-05-18T06:21:15Z</time>
      </trkpt>
      <trkpt lat="41.7010620" lon="-8.8569610">
        <ele>5.3</ele>
        <time>2021-05-18T06:21:16Z</time>
      </trkpt>
      <trkpt lat="41.7010770" lon="-8.8569710">
        <ele>5.3</ele>
        <time>2021-05-18T06:21:17Z</time>
      </trkpt>
      <trkpt lat="41.7010870" lon="-8.8569840">
        <ele>5.3</ele>
        <time>2021-05-18T06:21:18Z</time>
      </trkpt>
      <trkpt lat="41.7010990" lon="-8.8569940">
        <ele>5.3</ele>
        <time>2021-05-18T06:21:19Z</time>
      </trkpt>
      <trkpt lat="41.7011120" lon="-8.8570010">
        <ele>5.3</ele>
        <time>2021-05-18T06:21:20Z</time>
      </trkpt>
      <trkpt lat="41.7011230" lon="-8.8570140">
        <ele>5.3</ele>
        <time>2021-05-18T06:21:21Z</time>
      </trkpt>
      <trkpt lat="41.7011360" lon="-8.8570190">
        <ele>5.3</ele>
        <time>2021-05-18T06:21:22Z</time>
      </trkpt>
      <trkpt lat="41.7011470" lon="-8.8570340">
        <ele>5.4</ele>
        <time>2021-05-18T06:21:23Z</time>
      </trkpt>
      <trkpt lat="41.7011590" lon="-8.8570410">
        <ele>5.4</ele>
        <time>2021-05-18T06:21:24Z</time>
      </trkpt>
      <trkpt lat="41.7011730" lon="-8.8570500">
        <ele>5.4</ele>
        <time>2021-05-18T06:21:25Z</time>
      </trkpt>
      <trkpt lat="41.7011870" lon="-8.8570560">
        <ele>5.4</ele>
        <time>2021-05-18T06:21:26Z</time>
      </trkpt>
      <trkpt lat="41.7011980" lon="-8.8570650">
        <ele>5.4</ele>
        <time>2021-05-18T06:21:27Z</time>
      </trkpt>
      <trkpt lat="41.7012100" lon="-8.8570760">
        <ele>5.4</ele>
        <time>2021-05-18T06:21:28Z</time>
      </trkpt>
      <trkpt lat="41.7012210" lon="-8.8570870">
        <ele>5.4</ele>
        <time>2021-05-18T06:21:29Z</time>
      </trkpt>
      <trkpt lat="41.7012320" lon="-8.8570970">
        <ele>5.4</ele>
        <time>2021-05-18T06:21:30Z</time>
      </trkpt>
      <trkpt lat="41.7012450" lon="-8.8571060">
        <ele>5.4</ele>
        <time>2021-05-18T06:21:31Z</time>
      </trkpt>
      <trkpt lat="41.7012560" lon="-8.8571160">
        <ele>5.4</ele>
        <time>2021-05-18T06:21:32Z</time>
      </trkpt>
      <trkpt lat="41.7012670" lon="-8.8571270">
        <ele>5.4</ele>
        <time>2021-05-18T06:21:33Z</time>
      </trkpt>
      <trkpt lat="41.7012790" lon="-8.8571390">
        <ele>5.5</ele>
        <time>2021-05-18T06:21:34Z</time>
      </trkpt>
      <trkpt lat="41.7012910" lon="-8.8571470">
        <ele>5.5</ele>
        <time>2021-05-18T06:21:35Z</time>
      </trkpt>
      <trkpt lat="41.7013090" lon="-8.8571680">
        <ele>5.5</ele>
        <time>2021-05-18T06:21:36Z</time>
      </trkpt>
      <trkpt lat="41.7013160" lon="-8.8571740">
        <ele>5.5</ele>
        <time>2021-05-18T06:21:37Z</time>
      </trkpt>
      <trkpt lat="41.7013230" lon="-8.8571800">
        <ele>5.5</ele>
        <time>2021-05-18T06:21:38Z</time>
      </trkpt>
      <trkpt lat="41.7013400" lon="-8.8571990">
        <ele>5.5</ele>
        <time>2021-05-18T06:21:39Z</time>
      </trkpt>
      <trkpt lat="41.7013490" lon="-8.8572050">
        <ele>5.5</ele>
        <time>2021-05-18T06:21:40Z</time>
      </trkpt>
      <trkpt lat="41.7013570" lon="-8.8572120">
        <ele>5.5</ele>
        <time>2021-05-18T06:21:41Z</time>
      </trkpt>
      <trkpt lat="41.7013750" lon="-8.8572230">
        <ele>5.5</ele>
        <time>2021-05-18T06:21:42Z</time>
      </trkpt>
      <trkpt lat="41.7013840" lon="-8.8572270">
        <ele>5.6</ele>
        <time>2021-05-18T06:21:43Z</time>
      </trkpt>
      <trkpt lat="41.7013920" lon="-8.8572310">
        <ele>5.6</ele>
        <time>2021-05-18T06:21:44Z</time>
      </trkpt>
      <trkpt lat="41.7014050" lon="-8.8572380">
        <ele>5.6</ele>
        <time>2021-05-18T06:21:45Z</time>
      </trkpt>
      <trkpt lat="41.7014210" lon="-8.8572380">
        <ele>5.6</ele>
        <time>2021-05-18T06:21:46Z</time>
      </trkpt>
      <trkpt lat="41.7014360" lon="-8.8572430">
        <ele>5.6</ele>
        <time>2021-05-18T06:21:47Z</time>
      </trkpt>
      <trkpt lat="41.7014490" lon="-8.8572490">
        <ele>5.6</ele>
        <time>2021-05-18T06:21:48Z</time>
      </trkpt>
      <trkpt lat="41.7014620" lon="-8.8572550">
        <ele>5.6</ele>
        <time>2021-05-18T06:21:49Z</time>
      </trkpt>
      <trkpt lat="41.7014760" lon="-8.8572580">
        <ele>5.6</ele>
        <time>2021-05-18T06:21:50Z</time>
      </trkpt>
      <trkpt lat="41.7014900" lon="-8.8572630">
        <ele>5.6</ele>
        <time>2021-05-18T06:21:51Z</time>
      </trkpt>
      <trkpt lat="41.7015020" lon="-8.8572700">
        <ele>5.6</ele>
        <time>2021-05-18T06:21:52Z</time>
      </trkpt>
      <trkpt lat="41.7015180" lon="-8.8572720">
        <ele>5.7</ele>
        <time>2021-05-18T06:21:53Z</time>
      </trkpt>
      <trkpt lat="41.7015310" lon="-8.8572750">
        <ele>5.7</ele>
        <time>2021-05-18T06:21:54Z</time>
      </trkpt>
      <trkpt lat="41.7015450" lon="-8.8572750">
        <ele>5.7</ele>
        <time>2021-05-18T06:21:55Z</time>
      </trkpt>
      <trkpt lat="41.7015590" lon="-8.8572830">
        <ele>5.7</ele>
        <time>2021-05-18T06:21:57Z</time>
      </trkpt>
      <trkpt lat="41.7015890" lon="-8.8572870">
        <ele>5.7</ele>
        <time>2021-05-18T06:21:58Z</time>
      </trkpt>
      <trkpt lat="41.7016110" lon="-8.8572890">
        <ele>5.7</ele>
        <time>2021-05-18T06:21:59Z</time>
      </trkpt>
      <trkpt lat="41.7016220" lon="-8.8572880">
        <ele>5.7</ele>
        <time>2021-05-18T06:22:00Z</time>
      </trkpt>
      <trkpt lat="41.7016320" lon="-8.8572880">
        <ele>5.7</ele>
        <time>2021-05-18T06:22:01Z</time>
      </trkpt>
      <trkpt lat="41.7016540" lon="-8.8572900">
        <ele>5.7</ele>
        <time>2021-05-18T06:22:02Z</time>
      </trkpt>
      <trkpt lat="41.7016640" lon="-8.8572900">
        <ele>5.7</ele>
        <time>2021-05-18T06:22:03Z</time>
      </trkpt>
      <trkpt lat="41.7016730" lon="-8.8572900">
        <ele>5.7</ele>
        <time>2021-05-18T06:22:04Z</time>
      </trkpt>
      <trkpt lat="41.7016930" lon="-8.8572930">
        <ele>5.7</ele>
        <time>2021-05-18T06:22:05Z</time>
      </trkpt>
      <trkpt lat="41.7017010" lon="-8.8572940">
        <ele>5.7</ele>
        <time>2021-05-18T06:22:06Z</time>
      </trkpt>
      <trkpt lat="41.7017090" lon="-8.8572960">
        <ele>5.7</ele>
        <time>2021-05-18T06:22:07Z</time>
      </trkpt>
      <trkpt lat="41.7017190" lon="-8.8572900">
        <ele>5.7</ele>
        <time>2021-05-18T06:22:08Z</time>
      </trkpt>
      <trkpt lat="41.7017300" lon="-8.8573000">
        <ele>5.7</ele>
        <time>2021-05-18T06:22:09Z</time>
      </trkpt>
      <trkpt lat="41.7017380" lon="-8.8573110">
        <ele>5.7</ele>
        <time>2021-05-18T06:22:10Z</time>
      </trkpt>
      <trkpt lat="41.7017440" lon="-8.8573160">
        <ele>5.7</ele>
        <time>2021-05-18T06:22:11Z</time>
      </trkpt>
      <trkpt lat="41.7017370" lon="-8.8573120">
        <ele>5.7</ele>
        <time>2021-05-18T06:22:12Z</time>
      </trkpt>
      <trkpt lat="41.7017340" lon="-8.8573060">
        <ele>5.7</ele>
        <time>2021-05-18T06:22:13Z</time>
      </trkpt>
      <trkpt lat="41.7017320" lon="-8.8573050">
        <ele>5.7</ele>
        <time>2021-05-18T06:22:14Z</time>
      </trkpt>
      <trkpt lat="41.7017310" lon="-8.8573010">
        <ele>5.7</ele>
        <time>2021-05-18T06:22:15Z</time>
      </trkpt>
      <trkpt lat="41.7017340" lon="-8.8572990">
        <ele>5.7</ele>
        <time>2021-05-18T06:22:16Z</time>
      </trkpt>
      <trkpt lat="41.7017480" lon="-8.8573050">
        <ele>5.7</ele>
        <time>2021-05-18T06:22:17Z</time>
      </trkpt>
      <trkpt lat="41.7017610" lon="-8.8573050">
        <ele>5.7</ele>
        <time>2021-05-18T06:22:18Z</time>
      </trkpt>
      <trkpt lat="41.7017700" lon="-8.8573080">
        <ele>5.7</ele>
        <time>2021-05-18T06:22:19Z</time>
      </trkpt>
      <trkpt lat="41.7017810" lon="-8.8573050">
        <ele>5.7</ele>
        <time>2021-05-18T06:22:20Z</time>
      </trkpt>
      <trkpt lat="41.7017880" lon="-8.8573070">
        <ele>5.7</ele>
        <time>2021-05-18T06:22:21Z</time>
      </trkpt>
      <trkpt lat="41.7017950" lon="-8.8573070">
        <ele>5.7</ele>
        <time>2021-05-18T06:22:22Z</time>
      </trkpt>
      <trkpt lat="41.7018020" lon="-8.8573100">
        <ele>5.7</ele>
        <time>2021-05-18T06:22:23Z</time>
      </trkpt>
      <trkpt lat="41.7018130" lon="-8.8573120">
        <ele>5.7</ele>
        <time>2021-05-18T06:22:24Z</time>
      </trkpt>
      <trkpt lat="41.7018240" lon="-8.8573140">
        <ele>5.7</ele>
        <time>2021-05-18T06:22:25Z</time>
      </trkpt>
      <trkpt lat="41.7018350" lon="-8.8573180">
        <ele>5.6</ele>
        <time>2021-05-18T06:22:26Z</time>
      </trkpt>
      <trkpt lat="41.7018430" lon="-8.8573190">
        <ele>5.6</ele>
        <time>2021-05-18T06:22:27Z</time>
      </trkpt>
      <trkpt lat="41.7018520" lon="-8.8573200">
        <ele>5.6</ele>
        <time>2021-05-18T06:22:28Z</time>
      </trkpt>
      <trkpt lat="41.7018620" lon="-8.8573220">
        <ele>5.6</ele>
        <time>2021-05-18T06:22:29Z</time>
      </trkpt>
      <trkpt lat="41.7018700" lon="-8.8573260">
        <ele>5.6</ele>
        <time>2021-05-18T06:22:30Z</time>
      </trkpt>
      <trkpt lat="41.7018800" lon="-8.8573250">
        <ele>5.6</ele>
        <time>2021-05-18T06:22:31Z</time>
      </trkpt>
      <trkpt lat="41.7018910" lon="-8.8573240">
        <ele>5.6</ele>
        <time>2021-05-18T06:22:32Z</time>
      </trkpt>
      <trkpt lat="41.7019010" lon="-8.8573270">
        <ele>5.6</ele>
        <time>2021-05-18T06:22:33Z</time>
      </trkpt>
      <trkpt lat="41.7019130" lon="-8.8573310">
        <ele>5.6</ele>
        <time>2021-05-18T06:22:34Z</time>
      </trkpt>
      <trkpt lat="41.7019230" lon="-8.8573330">
        <ele>5.6</ele>
        <time>2021-05-18T06:22:35Z</time>
      </trkpt>
      <trkpt lat="41.7019330" lon="-8.8573340">
        <ele>5.6</ele>
        <time>2021-05-18T06:22:36Z</time>
      </trkpt>
      <trkpt lat="41.7019430" lon="-8.8573360">
        <ele>5.6</ele>
        <time>2021-05-18T06:22:37Z</time>
      </trkpt>
      <trkpt lat="41.7019550" lon="-8.8573400">
        <ele>5.5</ele>
        <time>2021-05-18T06:22:38Z</time>
      </trkpt>
      <trkpt lat="41.7019660" lon="-8.8573490">
        <ele>5.5</ele>
        <time>2021-05-18T06:22:39Z</time>
      </trkpt>
      <trkpt lat="41.7019790" lon="-8.8573550">
        <ele>5.5</ele>
        <time>2021-05-18T06:22:40Z</time>
      </trkpt>
      <trkpt lat="41.7019860" lon="-8.8573660">
        <ele>5.5</ele>
        <time>2021-05-18T06:22:41Z</time>
      </trkpt>
      <trkpt lat="41.7019940" lon="-8.8573730">
        <ele>5.5</ele>
        <time>2021-05-18T06:22:42Z</time>
      </trkpt>
      <trkpt lat="41.7020060" lon="-8.8573810">
        <ele>5.5</ele>
        <time>2021-05-18T06:22:43Z</time>
      </trkpt>
      <trkpt lat="41.7020150" lon="-8.8573880">
        <ele>5.5</ele>
        <time>2021-05-18T06:22:44Z</time>
      </trkpt>
      <trkpt lat="41.7020330" lon="-8.8574030">
        <ele>5.5</ele>
        <time>2021-05-18T06:22:45Z</time>
      </trkpt>
      <trkpt lat="41.7020400" lon="-8.8574070">
        <ele>5.5</ele>
        <time>2021-05-18T06:22:46Z</time>
      </trkpt>
      <trkpt lat="41.7020470" lon="-8.8574120">
        <ele>5.5</ele>
        <time>2021-05-18T06:22:47Z</time>
      </trkpt>
      <trkpt lat="41.7020570" lon="-8.8574200">
        <ele>5.4</ele>
        <time>2021-05-18T06:22:48Z</time>
      </trkpt>
      <trkpt lat="41.7020670" lon="-8.8574290">
        <ele>5.4</ele>
        <time>2021-05-18T06:22:49Z</time>
      </trkpt>
      <trkpt lat="41.7020760" lon="-8.8574360">
        <ele>5.4</ele>
        <time>2021-05-18T06:22:50Z</time>
      </trkpt>
      <trkpt lat="41.7020840" lon="-8.8574420">
        <ele>5.4</ele>
        <time>2021-05-18T06:22:51Z</time>
      </trkpt>
      <trkpt lat="41.7020950" lon="-8.8574500">
        <ele>5.4</ele>
        <time>2021-05-18T06:22:52Z</time>
      </trkpt>
      <trkpt lat="41.7021050" lon="-8.8574580">
        <ele>5.4</ele>
        <time>2021-05-18T06:22:53Z</time>
      </trkpt>
      <trkpt lat="41.7021150" lon="-8.8574660">
        <ele>5.4</ele>
        <time>2021-05-18T06:22:54Z</time>
      </trkpt>
      <trkpt lat="41.7021260" lon="-8.8574740">
        <ele>5.4</ele>
        <time>2021-05-18T06:22:55Z</time>
      </trkpt>
      <trkpt lat="41.7021330" lon="-8.8574790">
        <ele>5.4</ele>
        <time>2021-05-18T06:22:56Z</time>
      </trkpt>
      <trkpt lat="41.7021300" lon="-8.8574700">
        <ele>5.4</ele>
        <time>2021-05-18T06:22:57Z</time>
      </trkpt>
      <trkpt lat="41.7021310" lon="-8.8574680">
        <ele>5.4</ele>
        <time>2021-05-18T06:22:58Z</time>
      </trkpt>
      <trkpt lat="41.7021300" lon="-8.8574680">
        <ele>5.4</ele>
        <time>2021-05-18T06:22:59Z</time>
      </trkpt>
      <trkpt lat="41.7021290" lon="-8.8574700">
        <ele>5.4</ele>
        <time>2021-05-18T06:23:00Z</time>
      </trkpt>
      <trkpt lat="41.7021310" lon="-8.8574720">
        <ele>5.4</ele>
        <time>2021-05-18T06:23:01Z</time>
      </trkpt>
      <trkpt lat="41.7021300" lon="-8.8574730">
        <ele>5.4</ele>
        <time>2021-05-18T06:23:02Z</time>
      </trkpt>
      <trkpt lat="41.7021290" lon="-8.8574720">
        <ele>5.4</ele>
        <time>2021-05-18T06:23:04Z</time>
      </trkpt>
      <trkpt lat="41.7021290" lon="-8.8574720">
        <ele>5.4</ele>
        <time>2021-05-18T06:23:05Z</time>
      </trkpt>
      <trkpt lat="41.7021300" lon="-8.8574740">
        <ele>5.4</ele>
        <time>2021-05-18T06:23:06Z</time>
      </trkpt>
      <trkpt lat="41.7021380" lon="-8.8574800">
        <ele>5.4</ele>
        <time>2021-05-18T06:23:07Z</time>
      </trkpt>
      <trkpt lat="41.7021410" lon="-8.8574830">
        <ele>5.4</ele>
        <time>2021-05-18T06:23:08Z</time>
      </trkpt>
      <trkpt lat="41.7021400" lon="-8.8574800">
        <ele>5.4</ele>
        <time>2021-05-18T06:23:09Z</time>
      </trkpt>
      <trkpt lat="41.7021400" lon="-8.8574790">
        <ele>5.4</ele>
        <time>2021-05-18T06:23:10Z</time>
      </trkpt>
      <trkpt lat="41.7021410" lon="-8.8574800">
        <ele>5.4</ele>
        <time>2021-05-18T06:23:11Z</time>
      </trkpt>
      <trkpt lat="41.7021410" lon="-8.8574810">
        <ele>5.4</ele>
        <time>2021-05-18T06:23:12Z</time>
      </trkpt>
      <trkpt lat="41.7021410" lon="-8.8574810">
        <ele>5.4</ele>
        <time>2021-05-18T06:23:13Z</time>
      </trkpt>
      <trkpt lat="41.7021410" lon="-8.8574820">
        <ele>5.4</ele>
        <time>2021-05-18T06:23:14Z</time>
      </trkpt>
      <trkpt lat="41.7021420" lon="-8.8574830">
        <ele>5.4</ele>
        <time>2021-05-18T06:23:15Z</time>
      </trkpt>
      <trkpt lat="41.7021520" lon="-8.8574960">
        <ele>5.3</ele>
        <time>2021-05-18T06:23:16Z</time>
      </trkpt>
      <trkpt lat="41.7021620" lon="-8.8574980">
        <ele>5.3</ele>
        <time>2021-05-18T06:23:17Z</time>
      </trkpt>
      <trkpt lat="41.7021710" lon="-8.8575010">
        <ele>5.3</ele>
        <time>2021-05-18T06:23:18Z</time>
      </trkpt>
      <trkpt lat="41.7021820" lon="-8.8575030">
        <ele>5.3</ele>
        <time>2021-05-18T06:23:19Z</time>
      </trkpt>
      <trkpt lat="41.7021900" lon="-8.8575240">
        <ele>5.3</ele>
        <time>2021-05-18T06:23:20Z</time>
      </trkpt>
      <trkpt lat="41.7021990" lon="-8.8575240">
        <ele>5.3</ele>
        <time>2021-05-18T06:23:21Z</time>
      </trkpt>
      <trkpt lat="41.7022090" lon="-8.8575320">
        <ele>5.3</ele>
        <time>2021-05-18T06:23:22Z</time>
      </trkpt>
      <trkpt lat="41.7022210" lon="-8.8575450">
        <ele>5.3</ele>
        <time>2021-05-18T06:23:23Z</time>
      </trkpt>
      <trkpt lat="41.7022320" lon="-8.8575530">
        <ele>5.3</ele>
        <time>2021-05-18T06:23:24Z</time>
      </trkpt>
      <trkpt lat="41.7022470" lon="-8.8575610">
        <ele>5.3</ele>
        <time>2021-05-18T06:23:25Z</time>
      </trkpt>
      <trkpt lat="41.7022630" lon="-8.8575800">
        <ele>5.3</ele>
        <time>2021-05-18T06:23:26Z</time>
      </trkpt>
      <trkpt lat="41.7022730" lon="-8.8575870">
        <ele>5.3</ele>
        <time>2021-05-18T06:23:27Z</time>
      </trkpt>
      <trkpt lat="41.7022820" lon="-8.8575940">
        <ele>5.3</ele>
        <time>2021-05-18T06:23:28Z</time>
      </trkpt>
      <trkpt lat="41.7022920" lon="-8.8575990">
        <ele>5.3</ele>
        <time>2021-05-18T06:23:29Z</time>
      </trkpt>
      <trkpt lat="41.7023110" lon="-8.8576110">
        <ele>5.2</ele>
        <time>2021-05-18T06:23:30Z</time>
      </trkpt>
      <trkpt lat="41.7023300" lon="-8.8576230">
        <ele>5.2</ele>
        <time>2021-05-18T06:23:31Z</time>
      </trkpt>
      <trkpt lat="41.7023380" lon="-8.8576280">
        <ele>5.2</ele>
        <time>2021-05-18T06:23:32Z</time>
      </trkpt>
      <trkpt lat="41.7023450" lon="-8.8576330">
        <ele>5.2</ele>
        <time>2021-05-18T06:23:33Z</time>
      </trkpt>
      <trkpt lat="41.7023570" lon="-8.8576430">
        <ele>5.2</ele>
        <time>2021-05-18T06:23:34Z</time>
      </trkpt>
      <trkpt lat="41.7023750" lon="-8.8576580">
        <ele>5.2</ele>
        <time>2021-05-18T06:23:35Z</time>
      </trkpt>
      <trkpt lat="41.7023890" lon="-8.8576700">
        <ele>5.2</ele>
        <time>2021-05-18T06:23:36Z</time>
      </trkpt>
      <trkpt lat="41.7024010" lon="-8.8576810">
        <ele>5.2</ele>
        <time>2021-05-18T06:23:37Z</time>
      </trkpt>
      <trkpt lat="41.7024130" lon="-8.8576940">
        <ele>5.2</ele>
        <time>2021-05-18T06:23:38Z</time>
      </trkpt>
      <trkpt lat="41.7024250" lon="-8.8577030">
        <ele>5.2</ele>
        <time>2021-05-18T06:23:39Z</time>
      </trkpt>
      <trkpt lat="41.7024360" lon="-8.8577130">
        <ele>5.2</ele>
        <time>2021-05-18T06:23:40Z</time>
      </trkpt>
      <trkpt lat="41.7024470" lon="-8.8577260">
        <ele>5.2</ele>
        <time>2021-05-18T06:23:41Z</time>
      </trkpt>
      <trkpt lat="41.7024610" lon="-8.8577370">
        <ele>5.2</ele>
        <time>2021-05-18T06:23:42Z</time>
      </trkpt>
      <trkpt lat="41.7024730" lon="-8.8577460">
        <ele>5.2</ele>
        <time>2021-05-18T06:23:43Z</time>
      </trkpt>
      <trkpt lat="41.7024880" lon="-8.8577510">
        <ele>5.2</ele>
        <time>2021-05-18T06:23:44Z</time>
      </trkpt>
      <trkpt lat="41.7025010" lon="-8.8577640">
        <ele>5.2</ele>
        <time>2021-05-18T06:23:45Z</time>
      </trkpt>
      <trkpt lat="41.7025130" lon="-8.8577730">
        <ele>5.2</ele>
        <time>2021-05-18T06:23:46Z</time>
      </trkpt>
      <trkpt lat="41.7025260" lon="-8.8577850">
        <ele>5.2</ele>
        <time>2021-05-18T06:23:47Z</time>
      </trkpt>
      <trkpt lat="41.7025370" lon="-8.8577990">
        <ele>5.2</ele>
        <time>2021-05-18T06:23:48Z</time>
      </trkpt>
      <trkpt lat="41.7025450" lon="-8.8578150">
        <ele>5.2</ele>
        <time>2021-05-18T06:23:49Z</time>
      </trkpt>
      <trkpt lat="41.7025580" lon="-8.8578270">
        <ele>5.2</ele>
        <time>2021-05-18T06:23:50Z</time>
      </trkpt>
      <trkpt lat="41.7025720" lon="-8.8578340">
        <ele>5.3</ele>
        <time>2021-05-18T06:23:51Z</time>
      </trkpt>
      <trkpt lat="41.7025860" lon="-8.8578420">
        <ele>5.3</ele>
        <time>2021-05-18T06:23:52Z</time>
      </trkpt>
      <trkpt lat="41.7025970" lon="-8.8578500">
        <ele>5.3</ele>
        <time>2021-05-18T06:23:53Z</time>
      </trkpt>
      <trkpt lat="41.7026110" lon="-8.8578570">
        <ele>5.3</ele>
        <time>2021-05-18T06:23:54Z</time>
      </trkpt>
      <trkpt lat="41.7026220" lon="-8.8578640">
        <ele>5.3</ele>
        <time>2021-05-18T06:23:55Z</time>
      </trkpt>
      <trkpt lat="41.7026400" lon="-8.8578780">
        <ele>5.3</ele>
        <time>2021-05-18T06:23:56Z</time>
      </trkpt>
      <trkpt lat="41.7026470" lon="-8.8578850">
        <ele>5.3</ele>
        <time>2021-05-18T06:23:57Z</time>
      </trkpt>
      <trkpt lat="41.7026540" lon="-8.8578920">
        <ele>5.3</ele>
        <time>2021-05-18T06:23:58Z</time>
      </trkpt>
      <trkpt lat="41.7026700" lon="-8.8579000">
        <ele>5.3</ele>
        <time>2021-05-18T06:23:59Z</time>
      </trkpt>
      <trkpt lat="41.7026790" lon="-8.8579150">
        <ele>5.4</ele>
        <time>2021-05-18T06:24:00Z</time>
      </trkpt>
      <trkpt lat="41.7026990" lon="-8.8579300">
        <ele>5.4</ele>
        <time>2021-05-18T06:24:01Z</time>
      </trkpt>
      <trkpt lat="41.7027060" lon="-8.8579390">
        <ele>5.4</ele>
        <time>2021-05-18T06:24:02Z</time>
      </trkpt>
      <trkpt lat="41.7027120" lon="-8.8579470">
        <ele>5.4</ele>
        <time>2021-05-18T06:24:03Z</time>
      </trkpt>
      <trkpt lat="41.7027390" lon="-8.8579670">
        <ele>5.4</ele>
        <time>2021-05-18T06:24:04Z</time>
      </trkpt>
      <trkpt lat="41.7027500" lon="-8.8579790">
        <ele>5.4</ele>
        <time>2021-05-18T06:24:05Z</time>
      </trkpt>
      <trkpt lat="41.7027650" lon="-8.8579850">
        <ele>5.4</ele>
        <time>2021-05-18T06:24:06Z</time>
      </trkpt>
      <trkpt lat="41.7027780" lon="-8.8579930">
        <ele>5.5</ele>
        <time>2021-05-18T06:24:07Z</time>
      </trkpt>
      <trkpt lat="41.7027910" lon="-8.8580010">
        <ele>5.5</ele>
        <time>2021-05-18T06:24:08Z</time>
      </trkpt>
      <trkpt lat="41.7028030" lon="-8.8580110">
        <ele>5.5</ele>
        <time>2021-05-18T06:24:09Z</time>
      </trkpt>
      <trkpt lat="41.7028150" lon="-8.8580200">
        <ele>5.5</ele>
        <time>2021-05-18T06:24:10Z</time>
      </trkpt>
      <trkpt lat="41.7028260" lon="-8.8580320">
        <ele>5.5</ele>
        <time>2021-05-18T06:24:11Z</time>
      </trkpt>
      <trkpt lat="41.7028390" lon="-8.8580420">
        <ele>5.5</ele>
        <time>2021-05-18T06:24:12Z</time>
      </trkpt>
      <trkpt lat="41.7028500" lon="-8.8580520">
        <ele>5.5</ele>
        <time>2021-05-18T06:24:13Z</time>
      </trkpt>
      <trkpt lat="41.7028630" lon="-8.8580610">
        <ele>5.5</ele>
        <time>2021-05-18T06:24:14Z</time>
      </trkpt>
      <trkpt lat="41.7028760" lon="-8.8580680">
        <ele>5.5</ele>
        <time>2021-05-18T06:24:15Z</time>
      </trkpt>
      <trkpt lat="41.7028880" lon="-8.8580790">
        <ele>5.5</ele>
        <time>2021-05-18T06:24:16Z</time>
      </trkpt>
      <trkpt lat="41.7029020" lon="-8.8580850">
        <ele>5.5</ele>
        <time>2021-05-18T06:24:17Z</time>
      </trkpt>
      <trkpt lat="41.7029150" lon="-8.8580930">
        <ele>5.5</ele>
        <time>2021-05-18T06:24:18Z</time>
      </trkpt>
      <trkpt lat="41.7029300" lon="-8.8580970">
        <ele>5.5</ele>
        <time>2021-05-18T06:24:19Z</time>
      </trkpt>
      <trkpt lat="41.7029410" lon="-8.8581050">
        <ele>5.5</ele>
        <time>2021-05-18T06:24:20Z</time>
      </trkpt>
      <trkpt lat="41.7029550" lon="-8.8581100">
        <ele>5.5</ele>
        <time>2021-05-18T06:24:21Z</time>
      </trkpt>
      <trkpt lat="41.7029700" lon="-8.8581110">
        <ele>5.5</ele>
        <time>2021-05-18T06:24:22Z</time>
      </trkpt>
      <trkpt lat="41.7029860" lon="-8.8581110">
        <ele>5.5</ele>
        <time>2021-05-18T06:24:23Z</time>
      </trkpt>
      <trkpt lat="41.7029980" lon="-8.8581130">
        <ele>5.5</ele>
        <time>2021-05-18T06:24:24Z</time>
      </trkpt>
      <trkpt lat="41.7030090" lon="-8.8581210">
        <ele>5.5</ele>
        <time>2021-05-18T06:24:25Z</time>
      </trkpt>
      <trkpt lat="41.7030250" lon="-8.8581230">
        <ele>5.5</ele>
        <time>2021-05-18T06:24:26Z</time>
      </trkpt>
      <trkpt lat="41.7030390" lon="-8.8581260">
        <ele>5.5</ele>
        <time>2021-05-18T06:24:27Z</time>
      </trkpt>
      <trkpt lat="41.7030510" lon="-8.8581330">
        <ele>5.5</ele>
        <time>2021-05-18T06:24:28Z</time>
      </trkpt>
      <trkpt lat="41.7030750" lon="-8.8581440">
        <ele>5.6</ele>
        <time>2021-05-18T06:24:29Z</time>
      </trkpt>
      <trkpt lat="41.7030830" lon="-8.8581480">
        <ele>5.6</ele>
        <time>2021-05-18T06:24:30Z</time>
      </trkpt>
      <trkpt lat="41.7030920" lon="-8.8581510">
        <ele>5.6</ele>
        <time>2021-05-18T06:24:31Z</time>
      </trkpt>
      <trkpt lat="41.7031080" lon="-8.8581580">
        <ele>5.6</ele>
        <time>2021-05-18T06:24:32Z</time>
      </trkpt>
      <trkpt lat="41.7031190" lon="-8.8581670">
        <ele>5.6</ele>
        <time>2021-05-18T06:24:33Z</time>
      </trkpt>
      <trkpt lat="41.7031340" lon="-8.8581680">
        <ele>5.6</ele>
        <time>2021-05-18T06:24:34Z</time>
      </trkpt>
      <trkpt lat="41.7031480" lon="-8.8581750">
        <ele>5.6</ele>
        <time>2021-05-18T06:24:35Z</time>
      </trkpt>
      <trkpt lat="41.7031700" lon="-8.8581850">
        <ele>5.6</ele>
        <time>2021-05-18T06:24:36Z</time>
      </trkpt>
      <trkpt lat="41.7031780" lon="-8.8581880">
        <ele>5.6</ele>
        <time>2021-05-18T06:24:37Z</time>
      </trkpt>
      <trkpt lat="41.7031870" lon="-8.8581920">
        <ele>5.6</ele>
        <time>2021-05-18T06:24:38Z</time>
      </trkpt>
      <trkpt lat="41.7032000" lon="-8.8581970">
        <ele>5.6</ele>
        <time>2021-05-18T06:24:39Z</time>
      </trkpt>
      <trkpt lat="41.7032110" lon="-8.8582080">
        <ele>5.6</ele>
        <time>2021-05-18T06:24:40Z</time>
      </trkpt>
      <trkpt lat="41.7032270" lon="-8.8582060">
        <ele>5.6</ele>
        <time>2021-05-18T06:24:41Z</time>
      </trkpt>
      <trkpt lat="41.7032400" lon="-8.8582170">
        <ele>5.6</ele>
        <time>2021-05-18T06:24:42Z</time>
      </trkpt>
      <trkpt lat="41.7032540" lon="-8.8582240">
        <ele>5.6</ele>
        <time>2021-05-18T06:24:43Z</time>
      </trkpt>
      <trkpt lat="41.7032660" lon="-8.8582310">
        <ele>5.6</ele>
        <time>2021-05-18T06:24:44Z</time>
      </trkpt>
      <trkpt lat="41.7032820" lon="-8.8582350">
        <ele>5.6</ele>
        <time>2021-05-18T06:24:45Z</time>
      </trkpt>
      <trkpt lat="41.7032950" lon="-8.8582350">
        <ele>5.6</ele>
        <time>2021-05-18T06:24:46Z</time>
      </trkpt>
      <trkpt lat="41.7033080" lon="-8.8582420">
        <ele>5.6</ele>
        <time>2021-05-18T06:24:47Z</time>
      </trkpt>
      <trkpt lat="41.7033200" lon="-8.8582490">
        <ele>5.6</ele>
        <time>2021-05-18T06:24:48Z</time>
      </trkpt>
      <trkpt lat="41.7033360" lon="-8.8582520">
        <ele>5.6</ele>
        <time>2021-05-18T06:24:49Z</time>
      </trkpt>
      <trkpt lat="41.7033470" lon="-8.8582580">
        <ele>5.6</ele>
        <time>2021-05-18T06:24:50Z</time>
      </trkpt>
      <trkpt lat="41.7033610" lon="-8.8582640">
        <ele>5.6</ele>
        <time>2021-05-18T06:24:51Z</time>
      </trkpt>
      <trkpt lat="41.7033740" lon="-8.8582680">
        <ele>5.6</ele>
        <time>2021-05-18T06:24:52Z</time>
      </trkpt>
      <trkpt lat="41.7033870" lon="-8.8582790">
        <ele>5.6</ele>
        <time>2021-05-18T06:24:53Z</time>
      </trkpt>
      <trkpt lat="41.7033980" lon="-8.8582850">
        <ele>5.6</ele>
        <time>2021-05-18T06:24:54Z</time>
      </trkpt>
      <trkpt lat="41.7034120" lon="-8.8582930">
        <ele>5.6</ele>
        <time>2021-05-18T06:24:55Z</time>
      </trkpt>
      <trkpt lat="41.7034260" lon="-8.8582950">
        <ele>5.6</ele>
        <time>2021-05-18T06:24:56Z</time>
      </trkpt>
      <trkpt lat="41.7034390" lon="-8.8583030">
        <ele>5.6</ele>
        <time>2021-05-18T06:24:57Z</time>
      </trkpt>
      <trkpt lat="41.7034510" lon="-8.8583070">
        <ele>5.6</ele>
        <time>2021-05-18T06:24:58Z</time>
      </trkpt>
      <trkpt lat="41.7034730" lon="-8.8583180">
        <ele>5.6</ele>
        <time>2021-05-18T06:24:59Z</time>
      </trkpt>
      <trkpt lat="41.7034810" lon="-8.8583230">
        <ele>5.6</ele>
        <time>2021-05-18T06:25:00Z</time>
      </trkpt>
      <trkpt lat="41.7034890" lon="-8.8583290">
        <ele>5.6</ele>
        <time>2021-05-18T06:25:01Z</time>
      </trkpt>
      <trkpt lat="41.7035030" lon="-8.8583320">
        <ele>5.6</ele>
        <time>2021-05-18T06:25:02Z</time>
      </trkpt>
      <trkpt lat="41.7035170" lon="-8.8583380">
        <ele>5.6</ele>
        <time>2021-05-18T06:25:03Z</time>
      </trkpt>
      <trkpt lat="41.7035390" lon="-8.8583420">
        <ele>5.6</ele>
        <time>2021-05-18T06:25:04Z</time>
      </trkpt>
      <trkpt lat="41.7035480" lon="-8.8583480">
        <ele>5.6</ele>
        <time>2021-05-18T06:25:05Z</time>
      </trkpt>
      <trkpt lat="41.7035560" lon="-8.8583530">
        <ele>5.6</ele>
        <time>2021-05-18T06:25:06Z</time>
      </trkpt>
      <trkpt lat="41.7035760" lon="-8.8583640">
        <ele>5.6</ele>
        <time>2021-05-18T06:25:07Z</time>
      </trkpt>
      <trkpt lat="41.7035850" lon="-8.8583680">
        <ele>5.6</ele>
        <time>2021-05-18T06:25:08Z</time>
      </trkpt>
      <trkpt lat="41.7035940" lon="-8.8583720">
        <ele>5.6</ele>
        <time>2021-05-18T06:25:09Z</time>
      </trkpt>
      <trkpt lat="41.7036160" lon="-8.8583820">
        <ele>5.6</ele>
        <time>2021-05-18T06:25:10Z</time>
      </trkpt>
      <trkpt lat="41.7036250" lon="-8.8583840">
        <ele>5.6</ele>
        <time>2021-05-18T06:25:11Z</time>
      </trkpt>
      <trkpt lat="41.7036340" lon="-8.8583870">
        <ele>5.6</ele>
        <time>2021-05-18T06:25:12Z</time>
      </trkpt>
      <trkpt lat="41.7036480" lon="-8.8583930">
        <ele>5.6</ele>
        <time>2021-05-18T06:25:13Z</time>
      </trkpt>
      <trkpt lat="41.7036610" lon="-8.8583960">
        <ele>5.6</ele>
        <time>2021-05-18T06:25:14Z</time>
      </trkpt>
      <trkpt lat="41.7036730" lon="-8.8584050">
        <ele>5.6</ele>
        <time>2021-05-18T06:25:15Z</time>
      </trkpt>
      <trkpt lat="41.7036860" lon="-8.8584160">
        <ele>5.6</ele>
        <time>2021-05-18T06:25:16Z</time>
      </trkpt>
      <trkpt lat="41.7037000" lon="-8.8584210">
        <ele>5.6</ele>
        <time>2021-05-18T06:25:17Z</time>
      </trkpt>
      <trkpt lat="41.7037130" lon="-8.8584280">
        <ele>5.6</ele>
        <time>2021-05-18T06:25:18Z</time>
      </trkpt>
      <trkpt lat="41.7037270" lon="-8.8584300">
        <ele>5.6</ele>
        <time>2021-05-18T06:25:19Z</time>
      </trkpt>
      <trkpt lat="41.7037400" lon="-8.8584310">
        <ele>5.6</ele>
        <time>2021-05-18T06:25:20Z</time>
      </trkpt>
      <trkpt lat="41.7037600" lon="-8.8584430">
        <ele>5.6</ele>
        <time>2021-05-18T06:25:21Z</time>
      </trkpt>
      <trkpt lat="41.7037690" lon="-8.8584470">
        <ele>5.6</ele>
        <time>2021-05-18T06:25:22Z</time>
      </trkpt>
      <trkpt lat="41.7037770" lon="-8.8584510">
        <ele>5.6</ele>
        <time>2021-05-18T06:25:23Z</time>
      </trkpt>
      <trkpt lat="41.7037920" lon="-8.8584510">
        <ele>5.6</ele>
        <time>2021-05-18T06:25:24Z</time>
      </trkpt>
      <trkpt lat="41.7038060" lon="-8.8584550">
        <ele>5.6</ele>
        <time>2021-05-18T06:25:25Z</time>
      </trkpt>
      <trkpt lat="41.7038180" lon="-8.8584630">
        <ele>5.6</ele>
        <time>2021-05-18T06:25:26Z</time>
      </trkpt>
      <trkpt lat="41.7038310" lon="-8.8584710">
        <ele>5.6</ele>
        <time>2021-05-18T06:25:27Z</time>
      </trkpt>
      <trkpt lat="41.7038430" lon="-8.8584830">
        <ele>5.6</ele>
        <time>2021-05-18T06:25:28Z</time>
      </trkpt>
      <trkpt lat="41.7038550" lon="-8.8584950">
        <ele>5.6</ele>
        <time>2021-05-18T06:25:29Z</time>
      </trkpt>
      <trkpt lat="41.7038680" lon="-8.8585040">
        <ele>5.6</ele>
        <time>2021-05-18T06:25:30Z</time>
      </trkpt>
      <trkpt lat="41.7038790" lon="-8.8585130">
        <ele>5.6</ele>
        <time>2021-05-18T06:25:31Z</time>
      </trkpt>
      <trkpt lat="41.7038950" lon="-8.8585180">
        <ele>5.6</ele>
        <time>2021-05-18T06:25:32Z</time>
      </trkpt>
      <trkpt lat="41.7039070" lon="-8.8585230">
        <ele>5.6</ele>
        <time>2021-05-18T06:25:33Z</time>
      </trkpt>
      <trkpt lat="41.7039190" lon="-8.8585330">
        <ele>5.6</ele>
        <time>2021-05-18T06:25:34Z</time>
      </trkpt>
      <trkpt lat="41.7039330" lon="-8.8585430">
        <ele>5.6</ele>
        <time>2021-05-18T06:25:35Z</time>
      </trkpt>
      <trkpt lat="41.7039450" lon="-8.8585550">
        <ele>5.5</ele>
        <time>2021-05-18T06:25:36Z</time>
      </trkpt>
      <trkpt lat="41.7039590" lon="-8.8585590">
        <ele>5.5</ele>
        <time>2021-05-18T06:25:38Z</time>
      </trkpt>
      <trkpt lat="41.7039730" lon="-8.8585660">
        <ele>5.5</ele>
        <time>2021-05-18T06:25:39Z</time>
      </trkpt>
      <trkpt lat="41.7039830" lon="-8.8585780">
        <ele>5.5</ele>
        <time>2021-05-18T06:25:40Z</time>
      </trkpt>
      <trkpt lat="41.7039940" lon="-8.8585860">
        <ele>5.5</ele>
        <time>2021-05-18T06:25:41Z</time>
      </trkpt>
      <trkpt lat="41.7040060" lon="-8.8585990">
        <ele>5.5</ele>
        <time>2021-05-18T06:25:42Z</time>
      </trkpt>
      <trkpt lat="41.7040220" lon="-8.8586180">
        <ele>5.5</ele>
        <time>2021-05-18T06:25:43Z</time>
      </trkpt>
      <trkpt lat="41.7040300" lon="-8.8586240">
        <ele>5.5</ele>
        <time>2021-05-18T06:25:44Z</time>
      </trkpt>
      <trkpt lat="41.7040390" lon="-8.8586300">
        <ele>5.5</ele>
        <time>2021-05-18T06:25:45Z</time>
      </trkpt>
      <trkpt lat="41.7040550" lon="-8.8586510">
        <ele>5.5</ele>
        <time>2021-05-18T06:25:46Z</time>
      </trkpt>
      <trkpt lat="41.7040620" lon="-8.8586590">
        <ele>5.5</ele>
        <time>2021-05-18T06:25:47Z</time>
      </trkpt>
      <trkpt lat="41.7040690" lon="-8.8586670">
        <ele>5.5</ele>
        <time>2021-05-18T06:25:48Z</time>
      </trkpt>
      <trkpt lat="41.7040820" lon="-8.8586750">
        <ele>5.5</ele>
        <time>2021-05-18T06:25:49Z</time>
      </trkpt>
      <trkpt lat="41.7040950" lon="-8.8586840">
        <ele>5.5</ele>
        <time>2021-05-18T06:25:50Z</time>
      </trkpt>
      <trkpt lat="41.7041060" lon="-8.8586950">
        <ele>5.5</ele>
        <time>2021-05-18T06:25:51Z</time>
      </trkpt>
      <trkpt lat="41.7041170" lon="-8.8587070">
        <ele>5.4</ele>
        <time>2021-05-18T06:25:52Z</time>
      </trkpt>
      <trkpt lat="41.7041390" lon="-8.8587200">
        <ele>5.4</ele>
        <time>2021-05-18T06:25:53Z</time>
      </trkpt>
      <trkpt lat="41.7041470" lon="-8.8587250">
        <ele>5.4</ele>
        <time>2021-05-18T06:25:54Z</time>
      </trkpt>
      <trkpt lat="41.7041550" lon="-8.8587310">
        <ele>5.4</ele>
        <time>2021-05-18T06:25:55Z</time>
      </trkpt>
      <trkpt lat="41.7041730" lon="-8.8587470">
        <ele>5.4</ele>
        <time>2021-05-18T06:25:56Z</time>
      </trkpt>
      <trkpt lat="41.7041810" lon="-8.8587540">
        <ele>5.4</ele>
        <time>2021-05-18T06:25:57Z</time>
      </trkpt>
      <trkpt lat="41.7041880" lon="-8.8587610">
        <ele>5.4</ele>
        <time>2021-05-18T06:25:58Z</time>
      </trkpt>
      <trkpt lat="41.7042020" lon="-8.8587710">
        <ele>5.4</ele>
        <time>2021-05-18T06:25:59Z</time>
      </trkpt>
      <trkpt lat="41.7042140" lon="-8.8587810">
        <ele>5.4</ele>
        <time>2021-05-18T06:26:00Z</time>
      </trkpt>
      <trkpt lat="41.7042240" lon="-8.8587940">
        <ele>5.4</ele>
        <time>2021-05-18T06:26:01Z</time>
      </trkpt>
      <trkpt lat="41.7042360" lon="-8.8588060">
        <ele>5.4</ele>
        <time>2021-05-18T06:26:02Z</time>
      </trkpt>
      <trkpt lat="41.7042440" lon="-8.8588190">
        <ele>5.4</ele>
        <time>2021-05-18T06:26:03Z</time>
      </trkpt>
      <trkpt lat="41.7042530" lon="-8.8588330">
        <ele>5.4</ele>
        <time>2021-05-18T06:26:04Z</time>
      </trkpt>
      <trkpt lat="41.7042670" lon="-8.8588550">
        <ele>5.4</ele>
        <time>2021-05-18T06:26:05Z</time>
      </trkpt>
      <trkpt lat="41.7042730" lon="-8.8588660">
        <ele>5.4</ele>
        <time>2021-05-18T06:26:06Z</time>
      </trkpt>
      <trkpt lat="41.7042780" lon="-8.8588770">
        <ele>5.4</ele>
        <time>2021-05-18T06:26:07Z</time>
      </trkpt>
      <trkpt lat="41.7042880" lon="-8.8588920">
        <ele>5.4</ele>
        <time>2021-05-18T06:26:08Z</time>
      </trkpt>
      <trkpt lat="41.7042970" lon="-8.8589070">
        <ele>5.4</ele>
        <time>2021-05-18T06:26:09Z</time>
      </trkpt>
      <trkpt lat="41.7043160" lon="-8.8589360">
        <ele>5.4</ele>
        <time>2021-05-18T06:26:10Z</time>
      </trkpt>
      <trkpt lat="41.7043220" lon="-8.8589540">
        <ele>5.4</ele>
        <time>2021-05-18T06:26:11Z</time>
      </trkpt>
      <trkpt lat="41.7043290" lon="-8.8589680">
        <ele>5.4</ele>
        <time>2021-05-18T06:26:12Z</time>
      </trkpt>
      <trkpt lat="41.7043390" lon="-8.8589800">
        <ele>5.4</ele>
        <time>2021-05-18T06:26:13Z</time>
      </trkpt>
      <trkpt lat="41.7043440" lon="-8.8589990">
        <ele>5.4</ele>
        <time>2021-05-18T06:26:14Z</time>
      </trkpt>
      <trkpt lat="41.7043580" lon="-8.8590240">
        <ele>5.4</ele>
        <time>2021-05-18T06:26:15Z</time>
      </trkpt>
      <trkpt lat="41.7043620" lon="-8.8590340">
        <ele>5.4</ele>
        <time>2021-05-18T06:26:16Z</time>
      </trkpt>
      <trkpt lat="41.7043670" lon="-8.8590450">
        <ele>5.4</ele>
        <time>2021-05-18T06:26:17Z</time>
      </trkpt>
      <trkpt lat="41.7043770" lon="-8.8590560">
        <ele>5.4</ele>
        <time>2021-05-18T06:26:18Z</time>
      </trkpt>
      <trkpt lat="41.7043870" lon="-8.8590700">
        <ele>5.4</ele>
        <time>2021-05-18T06:26:19Z</time>
      </trkpt>
      <trkpt lat="41.7044010" lon="-8.8590930">
        <ele>5.4</ele>
        <time>2021-05-18T06:26:20Z</time>
      </trkpt>
      <trkpt lat="41.7044070" lon="-8.8591020">
        <ele>5.4</ele>
        <time>2021-05-18T06:26:21Z</time>
      </trkpt>
      <trkpt lat="41.7044130" lon="-8.8591110">
        <ele>5.4</ele>
        <time>2021-05-18T06:26:22Z</time>
      </trkpt>
      <trkpt lat="41.7044210" lon="-8.8591260">
        <ele>5.4</ele>
        <time>2021-05-18T06:26:23Z</time>
      </trkpt>
      <trkpt lat="41.7044250" lon="-8.8591450">
        <ele>5.4</ele>
        <time>2021-05-18T06:26:24Z</time>
      </trkpt>
      <trkpt lat="41.7044420" lon="-8.8591680">
        <ele>5.4</ele>
        <time>2021-05-18T06:26:25Z</time>
      </trkpt>
      <trkpt lat="41.7044470" lon="-8.8591780">
        <ele>5.4</ele>
        <time>2021-05-18T06:26:26Z</time>
      </trkpt>
      <trkpt lat="41.7044530" lon="-8.8591870">
        <ele>5.4</ele>
        <time>2021-05-18T06:26:27Z</time>
      </trkpt>
      <trkpt lat="41.7044620" lon="-8.8592010">
        <ele>5.4</ele>
        <time>2021-05-18T06:26:28Z</time>
      </trkpt>
      <trkpt lat="41.7044680" lon="-8.8592180">
        <ele>5.4</ele>
        <time>2021-05-18T06:26:29Z</time>
      </trkpt>
      <trkpt lat="41.7044810" lon="-8.8592290">
        <ele>5.4</ele>
        <time>2021-05-18T06:26:30Z</time>
      </trkpt>
      <trkpt lat="41.7044930" lon="-8.8592360">
        <ele>5.4</ele>
        <time>2021-05-18T06:26:31Z</time>
      </trkpt>
      <trkpt lat="41.7045020" lon="-8.8592500">
        <ele>5.4</ele>
        <time>2021-05-18T06:26:32Z</time>
      </trkpt>
      <trkpt lat="41.7045150" lon="-8.8592580">
        <ele>5.4</ele>
        <time>2021-05-18T06:26:33Z</time>
      </trkpt>
      <trkpt lat="41.7045280" lon="-8.8592670">
        <ele>5.4</ele>
        <time>2021-05-18T06:26:34Z</time>
      </trkpt>
      <trkpt lat="41.7045380" lon="-8.8592790">
        <ele>5.4</ele>
        <time>2021-05-18T06:26:35Z</time>
      </trkpt>
      <trkpt lat="41.7045520" lon="-8.8592850">
        <ele>5.4</ele>
        <time>2021-05-18T06:26:36Z</time>
      </trkpt>
      <trkpt lat="41.7045610" lon="-8.8593020">
        <ele>5.4</ele>
        <time>2021-05-18T06:26:37Z</time>
      </trkpt>
      <trkpt lat="41.7045760" lon="-8.8593090">
        <ele>5.4</ele>
        <time>2021-05-18T06:26:38Z</time>
      </trkpt>
      <trkpt lat="41.7045900" lon="-8.8593150">
        <ele>5.4</ele>
        <time>2021-05-18T06:26:39Z</time>
      </trkpt>
      <trkpt lat="41.7046060" lon="-8.8593360">
        <ele>5.3</ele>
        <time>2021-05-18T06:26:40Z</time>
      </trkpt>
      <trkpt lat="41.7046120" lon="-8.8593440">
        <ele>5.3</ele>
        <time>2021-05-18T06:26:41Z</time>
      </trkpt>
      <trkpt lat="41.7046190" lon="-8.8593510">
        <ele>5.3</ele>
        <time>2021-05-18T06:26:42Z</time>
      </trkpt>
      <trkpt lat="41.7046390" lon="-8.8593670">
        <ele>5.3</ele>
        <time>2021-05-18T06:26:43Z</time>
      </trkpt>
      <trkpt lat="41.7046490" lon="-8.8593720">
        <ele>5.3</ele>
        <time>2021-05-18T06:26:44Z</time>
      </trkpt>
      <trkpt lat="41.7046580" lon="-8.8593770">
        <ele>5.3</ele>
        <time>2021-05-18T06:26:45Z</time>
      </trkpt>
      <trkpt lat="41.7046700" lon="-8.8593830">
        <ele>5.3</ele>
        <time>2021-05-18T06:26:46Z</time>
      </trkpt>
      <trkpt lat="41.7046810" lon="-8.8593960">
        <ele>5.3</ele>
        <time>2021-05-18T06:26:47Z</time>
      </trkpt>
      <trkpt lat="41.7046950" lon="-8.8594030">
        <ele>5.3</ele>
        <time>2021-05-18T06:26:48Z</time>
      </trkpt>
      <trkpt lat="41.7047100" lon="-8.8594040">
        <ele>5.3</ele>
        <time>2021-05-18T06:26:49Z</time>
      </trkpt>
      <trkpt lat="41.7047290" lon="-8.8594160">
        <ele>5.3</ele>
        <time>2021-05-18T06:26:50Z</time>
      </trkpt>
      <trkpt lat="41.7047370" lon="-8.8594200">
        <ele>5.3</ele>
        <time>2021-05-18T06:26:51Z</time>
      </trkpt>
      <trkpt lat="41.7047440" lon="-8.8594240">
        <ele>5.3</ele>
        <time>2021-05-18T06:26:52Z</time>
      </trkpt>
      <trkpt lat="41.7047610" lon="-8.8594260">
        <ele>5.3</ele>
        <time>2021-05-18T06:26:53Z</time>
      </trkpt>
      <trkpt lat="41.7047740" lon="-8.8594320">
        <ele>5.3</ele>
        <time>2021-05-18T06:26:54Z</time>
      </trkpt>
      <trkpt lat="41.7047860" lon="-8.8594410">
        <ele>5.3</ele>
        <time>2021-05-18T06:26:55Z</time>
      </trkpt>
      <trkpt lat="41.7048010" lon="-8.8594460">
        <ele>5.3</ele>
        <time>2021-05-18T06:26:56Z</time>
      </trkpt>
      <trkpt lat="41.7048120" lon="-8.8594550">
        <ele>5.3</ele>
        <time>2021-05-18T06:26:57Z</time>
      </trkpt>
      <trkpt lat="41.7048280" lon="-8.8594590">
        <ele>5.3</ele>
        <time>2021-05-18T06:26:58Z</time>
      </trkpt>
      <trkpt lat="41.7048430" lon="-8.8594630">
        <ele>5.3</ele>
        <time>2021-05-18T06:26:59Z</time>
      </trkpt>
      <trkpt lat="41.7048570" lon="-8.8594660">
        <ele>5.3</ele>
        <time>2021-05-18T06:27:00Z</time>
      </trkpt>
      <trkpt lat="41.7048690" lon="-8.8594710">
        <ele>5.3</ele>
        <time>2021-05-18T06:27:01Z</time>
      </trkpt>
      <trkpt lat="41.7048840" lon="-8.8594770">
        <ele>5.3</ele>
        <time>2021-05-18T06:27:02Z</time>
      </trkpt>
      <trkpt lat="41.7048970" lon="-8.8594880">
        <ele>5.3</ele>
        <time>2021-05-18T06:27:03Z</time>
      </trkpt>
      <trkpt lat="41.7049100" lon="-8.8594920">
        <ele>5.3</ele>
        <time>2021-05-18T06:27:04Z</time>
      </trkpt>
      <trkpt lat="41.7049230" lon="-8.8595000">
        <ele>5.3</ele>
        <time>2021-05-18T06:27:05Z</time>
      </trkpt>
      <trkpt lat="41.7049360" lon="-8.8595090">
        <ele>5.3</ele>
        <time>2021-05-18T06:27:06Z</time>
      </trkpt>
      <trkpt lat="41.7049570" lon="-8.8595230">
        <ele>5.2</ele>
        <time>2021-05-18T06:27:07Z</time>
      </trkpt>
      <trkpt lat="41.7049650" lon="-8.8595280">
        <ele>5.2</ele>
        <time>2021-05-18T06:27:08Z</time>
      </trkpt>
      <trkpt lat="41.7049740" lon="-8.8595330">
        <ele>5.2</ele>
        <time>2021-05-18T06:27:09Z</time>
      </trkpt>
      <trkpt lat="41.7049900" lon="-8.8595300">
        <ele>5.2</ele>
        <time>2021-05-18T06:27:10Z</time>
      </trkpt>
      <trkpt lat="41.7050030" lon="-8.8595380">
        <ele>5.2</ele>
        <time>2021-05-18T06:27:11Z</time>
      </trkpt>
      <trkpt lat="41.7050180" lon="-8.8595420">
        <ele>5.2</ele>
        <time>2021-05-18T06:27:12Z</time>
      </trkpt>
      <trkpt lat="41.7050310" lon="-8.8595500">
        <ele>5.2</ele>
        <time>2021-05-18T06:27:13Z</time>
      </trkpt>
      <trkpt lat="41.7050530" lon="-8.8595580">
        <ele>5.2</ele>
        <time>2021-05-18T06:27:14Z</time>
      </trkpt>
      <trkpt lat="41.7050610" lon="-8.8595610">
        <ele>5.2</ele>
        <time>2021-05-18T06:27:15Z</time>
      </trkpt>
      <trkpt lat="41.7050700" lon="-8.8595650">
        <ele>5.2</ele>
        <time>2021-05-18T06:27:16Z</time>
      </trkpt>
      <trkpt lat="41.7050820" lon="-8.8595730">
        <ele>5.2</ele>
        <time>2021-05-18T06:27:18Z</time>
      </trkpt>
      <trkpt lat="41.7050990" lon="-8.8595760">
        <ele>5.2</ele>
        <time>2021-05-18T06:27:19Z</time>
      </trkpt>
      <trkpt lat="41.7051110" lon="-8.8595810">
        <ele>5.2</ele>
        <time>2021-05-18T06:27:20Z</time>
      </trkpt>
      <trkpt lat="41.7051250" lon="-8.8595820">
        <ele>5.2</ele>
        <time>2021-05-18T06:27:21Z</time>
      </trkpt>
      <trkpt lat="41.7051450" lon="-8.8595960">
        <ele>5.2</ele>
        <time>2021-05-18T06:27:22Z</time>
      </trkpt>
      <trkpt lat="41.7051540" lon="-8.8596010">
        <ele>5.2</ele>
        <time>2021-05-18T06:27:23Z</time>
      </trkpt>
      <trkpt lat="41.7051620" lon="-8.8596070">
        <ele>5.2</ele>
        <time>2021-05-18T06:27:24Z</time>
      </trkpt>
      <trkpt lat="41.7051730" lon="-8.8596210">
        <ele>5.2</ele>
        <time>2021-05-18T06:27:25Z</time>
      </trkpt>
      <trkpt lat="41.7051880" lon="-8.8596200">
        <ele>5.2</ele>
        <time>2021-05-18T06:27:26Z</time>
      </trkpt>
      <trkpt lat="41.7052010" lon="-8.8596230">
        <ele>5.2</ele>
        <time>2021-05-18T06:27:27Z</time>
      </trkpt>
      <trkpt lat="41.7052160" lon="-8.8596260">
        <ele>5.2</ele>
        <time>2021-05-18T06:27:28Z</time>
      </trkpt>
      <trkpt lat="41.7052370" lon="-8.8596370">
        <ele>5.2</ele>
        <time>2021-05-18T06:27:29Z</time>
      </trkpt>
      <trkpt lat="41.7052450" lon="-8.8596420">
        <ele>5.2</ele>
        <time>2021-05-18T06:27:30Z</time>
      </trkpt>
      <trkpt lat="41.7052540" lon="-8.8596480">
        <ele>5.2</ele>
        <time>2021-05-18T06:27:31Z</time>
      </trkpt>
      <trkpt lat="41.7052660" lon="-8.8596530">
        <ele>5.2</ele>
        <time>2021-05-18T06:27:32Z</time>
      </trkpt>
      <trkpt lat="41.7052810" lon="-8.8596610">
        <ele>5.2</ele>
        <time>2021-05-18T06:27:33Z</time>
      </trkpt>
      <trkpt lat="41.7052950" lon="-8.8596640">
        <ele>5.2</ele>
        <time>2021-05-18T06:27:34Z</time>
      </trkpt>
      <trkpt lat="41.7053080" lon="-8.8596670">
        <ele>5.2</ele>
        <time>2021-05-18T06:27:35Z</time>
      </trkpt>
      <trkpt lat="41.7053300" lon="-8.8596760">
        <ele>5.2</ele>
        <time>2021-05-18T06:27:36Z</time>
      </trkpt>
      <trkpt lat="41.7053400" lon="-8.8596770">
        <ele>5.3</ele>
        <time>2021-05-18T06:27:37Z</time>
      </trkpt>
      <trkpt lat="41.7053490" lon="-8.8596780">
        <ele>5.3</ele>
        <time>2021-05-18T06:27:38Z</time>
      </trkpt>
      <trkpt lat="41.7053640" lon="-8.8596790">
        <ele>5.3</ele>
        <time>2021-05-18T06:27:39Z</time>
      </trkpt>
      <trkpt lat="41.7053790" lon="-8.8596880">
        <ele>5.3</ele>
        <time>2021-05-18T06:27:40Z</time>
      </trkpt>
      <trkpt lat="41.7053920" lon="-8.8596950">
        <ele>5.3</ele>
        <time>2021-05-18T06:27:41Z</time>
      </trkpt>
      <trkpt lat="41.7054070" lon="-8.8597010">
        <ele>5.3</ele>
        <time>2021-05-18T06:27:42Z</time>
      </trkpt>
      <trkpt lat="41.7054210" lon="-8.8597030">
        <ele>5.3</ele>
        <time>2021-05-18T06:27:43Z</time>
      </trkpt>
      <trkpt lat="41.7054340" lon="-8.8597080">
        <ele>5.3</ele>
        <time>2021-05-18T06:27:44Z</time>
      </trkpt>
      <trkpt lat="41.7054500" lon="-8.8597110">
        <ele>5.3</ele>
        <time>2021-05-18T06:27:45Z</time>
      </trkpt>
      <trkpt lat="41.7054640" lon="-8.8597120">
        <ele>5.3</ele>
        <time>2021-05-18T06:27:46Z</time>
      </trkpt>
      <trkpt lat="41.7054770" lon="-8.8597120">
        <ele>5.3</ele>
        <time>2021-05-18T06:27:47Z</time>
      </trkpt>
      <trkpt lat="41.7054920" lon="-8.8597140">
        <ele>5.3</ele>
        <time>2021-05-18T06:27:48Z</time>
      </trkpt>
      <trkpt lat="41.7055060" lon="-8.8597140">
        <ele>5.3</ele>
        <time>2021-05-18T06:27:49Z</time>
      </trkpt>
      <trkpt lat="41.7055200" lon="-8.8597180">
        <ele>5.3</ele>
        <time>2021-05-18T06:27:50Z</time>
      </trkpt>
      <trkpt lat="41.7055340" lon="-8.8597180">
        <ele>5.3</ele>
        <time>2021-05-18T06:27:51Z</time>
      </trkpt>
      <trkpt lat="41.7055480" lon="-8.8597170">
        <ele>5.2</ele>
        <time>2021-05-18T06:27:52Z</time>
      </trkpt>
      <trkpt lat="41.7055710" lon="-8.8597180">
        <ele>5.2</ele>
        <time>2021-05-18T06:27:53Z</time>
      </trkpt>
      <trkpt lat="41.7055800" lon="-8.8597180">
        <ele>5.2</ele>
        <time>2021-05-18T06:27:54Z</time>
      </trkpt>
      <trkpt lat="41.7055900" lon="-8.8597170">
        <ele>5.2</ele>
        <time>2021-05-18T06:27:55Z</time>
      </trkpt>
      <trkpt lat="41.7056050" lon="-8.8597180">
        <ele>5.2</ele>
        <time>2021-05-18T06:27:56Z</time>
      </trkpt>
      <trkpt lat="41.7056200" lon="-8.8597160">
        <ele>5.2</ele>
        <time>2021-05-18T06:27:57Z</time>
      </trkpt>
      <trkpt lat="41.7056320" lon="-8.8597100">
        <ele>5.2</ele>
        <time>2021-05-18T06:27:58Z</time>
      </trkpt>
      <trkpt lat="41.7056480" lon="-8.8597110">
        <ele>5.2</ele>
        <time>2021-05-18T06:27:59Z</time>
      </trkpt>
      <trkpt lat="41.7056630" lon="-8.8597110">
        <ele>5.1</ele>
        <time>2021-05-18T06:28:00Z</time>
      </trkpt>
      <trkpt lat="41.7056760" lon="-8.8597110">
        <ele>5.1</ele>
        <time>2021-05-18T06:28:01Z</time>
      </trkpt>
      <trkpt lat="41.7056910" lon="-8.8597100">
        <ele>5.1</ele>
        <time>2021-05-18T06:28:02Z</time>
      </trkpt>
      <trkpt lat="41.7057060" lon="-8.8597160">
        <ele>5.1</ele>
        <time>2021-05-18T06:28:03Z</time>
      </trkpt>
      <trkpt lat="41.7057180" lon="-8.8597070">
        <ele>5.1</ele>
        <time>2021-05-18T06:28:04Z</time>
      </trkpt>
      <trkpt lat="41.7057330" lon="-8.8597080">
        <ele>5.1</ele>
        <time>2021-05-18T06:28:05Z</time>
      </trkpt>
      <trkpt lat="41.7057460" lon="-8.8597070">
        <ele>5.0</ele>
        <time>2021-05-18T06:28:06Z</time>
      </trkpt>
      <trkpt lat="41.7057600" lon="-8.8597090">
        <ele>5.0</ele>
        <time>2021-05-18T06:28:07Z</time>
      </trkpt>
      <trkpt lat="41.7057720" lon="-8.8597030">
        <ele>5.0</ele>
        <time>2021-05-18T06:28:08Z</time>
      </trkpt>
      <trkpt lat="41.7057880" lon="-8.8597090">
        <ele>5.0</ele>
        <time>2021-05-18T06:28:09Z</time>
      </trkpt>
      <trkpt lat="41.7058090" lon="-8.8597080">
        <ele>5.0</ele>
        <time>2021-05-18T06:28:10Z</time>
      </trkpt>
      <trkpt lat="41.7058170" lon="-8.8597080">
        <ele>5.0</ele>
        <time>2021-05-18T06:28:11Z</time>
      </trkpt>
      <trkpt lat="41.7058250" lon="-8.8597090">
        <ele>5.0</ele>
        <time>2021-05-18T06:28:12Z</time>
      </trkpt>
      <trkpt lat="41.7058380" lon="-8.8597080">
        <ele>5.0</ele>
        <time>2021-05-18T06:28:13Z</time>
      </trkpt>
      <trkpt lat="41.7058500" lon="-8.8597040">
        <ele>5.0</ele>
        <time>2021-05-18T06:28:14Z</time>
      </trkpt>
      <trkpt lat="41.7058600" lon="-8.8597020">
        <ele>5.0</ele>
        <time>2021-05-18T06:28:15Z</time>
      </trkpt>
      <trkpt lat="41.7058890" lon="-8.8597040">
        <ele>5.0</ele>
        <time>2021-05-18T06:28:16Z</time>
      </trkpt>
      <trkpt lat="41.7059020" lon="-8.8596930">
        <ele>5.0</ele>
        <time>2021-05-18T06:28:17Z</time>
      </trkpt>
      <trkpt lat="41.7059150" lon="-8.8596820">
        <ele>5.0</ele>
        <time>2021-05-18T06:28:18Z</time>
      </trkpt>
      <trkpt lat="41.7059360" lon="-8.8596790">
        <ele>5.0</ele>
        <time>2021-05-18T06:28:19Z</time>
      </trkpt>
      <trkpt lat="41.7059460" lon="-8.8596800">
        <ele>5.0</ele>
        <time>2021-05-18T06:28:20Z</time>
      </trkpt>
      <trkpt lat="41.7059550" lon="-8.8596810">
        <ele>5.0</ele>
        <time>2021-05-18T06:28:21Z</time>
      </trkpt>
      <trkpt lat="41.7059690" lon="-8.8596810">
        <ele>5.0</ele>
        <time>2021-05-18T06:28:22Z</time>
      </trkpt>
      <trkpt lat="41.7059790" lon="-8.8596790">
        <ele>5.0</ele>
        <time>2021-05-18T06:28:23Z</time>
      </trkpt>
      <trkpt lat="41.7059860" lon="-8.8596870">
        <ele>5.0</ele>
        <time>2021-05-18T06:28:24Z</time>
      </trkpt>
      <trkpt lat="41.7059910" lon="-8.8596970">
        <ele>5.0</ele>
        <time>2021-05-18T06:28:25Z</time>
      </trkpt>
      <trkpt lat="41.7059860" lon="-8.8597120">
        <ele>5.0</ele>
        <time>2021-05-18T06:28:27Z</time>
      </trkpt>
      <trkpt lat="41.7059800" lon="-8.8597090">
        <ele>5.0</ele>
        <time>2021-05-18T06:28:28Z</time>
      </trkpt>
      <trkpt lat="41.7059740" lon="-8.8597040">
        <ele>5.0</ele>
        <time>2021-05-18T06:28:29Z</time>
      </trkpt>
      <trkpt lat="41.7059700" lon="-8.8597030">
        <ele>5.0</ele>
        <time>2021-05-18T06:28:30Z</time>
      </trkpt>
      <trkpt lat="41.7059660" lon="-8.8597030">
        <ele>5.0</ele>
        <time>2021-05-18T06:28:31Z</time>
      </trkpt>
      <trkpt lat="41.7059610" lon="-8.8597020">
        <ele>5.0</ele>
        <time>2021-05-18T06:28:32Z</time>
      </trkpt>
      <trkpt lat="41.7059570" lon="-8.8597020">
        <ele>5.0</ele>
        <time>2021-05-18T06:28:33Z</time>
      </trkpt>
      <trkpt lat="41.7059700" lon="-8.8597090">
        <ele>5.0</ele>
        <time>2021-05-18T06:28:34Z</time>
      </trkpt>
      <trkpt lat="41.7059810" lon="-8.8597130">
        <ele>5.0</ele>
        <time>2021-05-18T06:28:35Z</time>
      </trkpt>
      <trkpt lat="41.7059890" lon="-8.8597110">
        <ele>5.0</ele>
        <time>2021-05-18T06:28:36Z</time>
      </trkpt>
      <trkpt lat="41.7060050" lon="-8.8597140">
        <ele>5.0</ele>
        <time>2021-05-18T06:28:37Z</time>
      </trkpt>
      <trkpt lat="41.7060130" lon="-8.8597160">
        <ele>5.0</ele>
        <time>2021-05-18T06:28:38Z</time>
      </trkpt>
      <trkpt lat="41.7060220" lon="-8.8597160">
        <ele>5.0</ele>
        <time>2021-05-18T06:28:39Z</time>
      </trkpt>
      <trkpt lat="41.7060320" lon="-8.8597190">
        <ele>5.0</ele>
        <time>2021-05-18T06:28:40Z</time>
      </trkpt>
      <trkpt lat="41.7060420" lon="-8.8597230">
        <ele>5.0</ele>
        <time>2021-05-18T06:28:41Z</time>
      </trkpt>
      <trkpt lat="41.7060550" lon="-8.8597260">
        <ele>5.0</ele>
        <time>2021-05-18T06:28:42Z</time>
      </trkpt>
      <trkpt lat="41.7060610" lon="-8.8597270">
        <ele>5.0</ele>
        <time>2021-05-18T06:28:43Z</time>
      </trkpt>
      <trkpt lat="41.7060760" lon="-8.8597340">
        <ele>4.9</ele>
        <time>2021-05-18T06:28:44Z</time>
      </trkpt>
      <trkpt lat="41.7060820" lon="-8.8597410">
        <ele>4.9</ele>
        <time>2021-05-18T06:28:45Z</time>
      </trkpt>
      <trkpt lat="41.7061030" lon="-8.8597550">
        <ele>4.9</ele>
        <time>2021-05-18T06:28:46Z</time>
      </trkpt>
      <trkpt lat="41.7061100" lon="-8.8597580">
        <ele>4.9</ele>
        <time>2021-05-18T06:28:47Z</time>
      </trkpt>
      <trkpt lat="41.7061180" lon="-8.8597620">
        <ele>4.9</ele>
        <time>2021-05-18T06:28:48Z</time>
      </trkpt>
      <trkpt lat="41.7061310" lon="-8.8597740">
        <ele>4.9</ele>
        <time>2021-05-18T06:28:49Z</time>
      </trkpt>
      <trkpt lat="41.7061450" lon="-8.8597800">
        <ele>4.9</ele>
        <time>2021-05-18T06:28:50Z</time>
      </trkpt>
      <trkpt lat="41.7061580" lon="-8.8597910">
        <ele>4.9</ele>
        <time>2021-05-18T06:28:51Z</time>
      </trkpt>
      <trkpt lat="41.7061700" lon="-8.8597990">
        <ele>4.9</ele>
        <time>2021-05-18T06:28:52Z</time>
      </trkpt>
      <trkpt lat="41.7061800" lon="-8.8598130">
        <ele>4.9</ele>
        <time>2021-05-18T06:28:53Z</time>
      </trkpt>
      <trkpt lat="41.7061950" lon="-8.8598220">
        <ele>4.9</ele>
        <time>2021-05-18T06:28:54Z</time>
      </trkpt>
      <trkpt lat="41.7062050" lon="-8.8598310">
        <ele>4.9</ele>
        <time>2021-05-18T06:28:55Z</time>
      </trkpt>
      <trkpt lat="41.7062180" lon="-8.8598420">
        <ele>4.9</ele>
        <time>2021-05-18T06:28:56Z</time>
      </trkpt>
      <trkpt lat="41.7062330" lon="-8.8598510">
        <ele>4.9</ele>
        <time>2021-05-18T06:28:57Z</time>
      </trkpt>
      <trkpt lat="41.7062430" lon="-8.8598630">
        <ele>4.9</ele>
        <time>2021-05-18T06:28:58Z</time>
      </trkpt>
      <trkpt lat="41.7062570" lon="-8.8598670">
        <ele>4.8</ele>
        <time>2021-05-18T06:28:59Z</time>
      </trkpt>
      <trkpt lat="41.7062690" lon="-8.8598780">
        <ele>4.8</ele>
        <time>2021-05-18T06:29:00Z</time>
      </trkpt>
      <trkpt lat="41.7062900" lon="-8.8598890">
        <ele>4.8</ele>
        <time>2021-05-18T06:29:01Z</time>
      </trkpt>
      <trkpt lat="41.7062980" lon="-8.8598940">
        <ele>4.8</ele>
        <time>2021-05-18T06:29:02Z</time>
      </trkpt>
      <trkpt lat="41.7063070" lon="-8.8598980">
        <ele>4.8</ele>
        <time>2021-05-18T06:29:03Z</time>
      </trkpt>
      <trkpt lat="41.7063210" lon="-8.8599020">
        <ele>4.8</ele>
        <time>2021-05-18T06:29:04Z</time>
      </trkpt>
      <trkpt lat="41.7063350" lon="-8.8599080">
        <ele>4.8</ele>
        <time>2021-05-18T06:29:05Z</time>
      </trkpt>
      <trkpt lat="41.7063460" lon="-8.8599190">
        <ele>4.8</ele>
        <time>2021-05-18T06:29:06Z</time>
      </trkpt>
      <trkpt lat="41.7063570" lon="-8.8599280">
        <ele>4.8</ele>
        <time>2021-05-18T06:29:07Z</time>
      </trkpt>
      <trkpt lat="41.7063800" lon="-8.8599340">
        <ele>4.8</ele>
        <time>2021-05-18T06:29:08Z</time>
      </trkpt>
      <trkpt lat="41.7063880" lon="-8.8599380">
        <ele>4.8</ele>
        <time>2021-05-18T06:29:09Z</time>
      </trkpt>
      <trkpt lat="41.7063960" lon="-8.8599420">
        <ele>4.8</ele>
        <time>2021-05-18T06:29:10Z</time>
      </trkpt>
      <trkpt lat="41.7064100" lon="-8.8599510">
        <ele>4.7</ele>
        <time>2021-05-18T06:29:11Z</time>
      </trkpt>
      <trkpt lat="41.7064210" lon="-8.8599590">
        <ele>4.7</ele>
        <time>2021-05-18T06:29:12Z</time>
      </trkpt>
      <trkpt lat="41.7064420" lon="-8.8599710">
        <ele>4.7</ele>
        <time>2021-05-18T06:29:13Z</time>
      </trkpt>
      <trkpt lat="41.7064510" lon="-8.8599770">
        <ele>4.7</ele>
        <time>2021-05-18T06:29:14Z</time>
      </trkpt>
      <trkpt lat="41.7064600" lon="-8.8599840">
        <ele>4.7</ele>
        <time>2021-05-18T06:29:15Z</time>
      </trkpt>
      <trkpt lat="41.7064730" lon="-8.8599960">
        <ele>4.7</ele>
        <time>2021-05-18T06:29:16Z</time>
      </trkpt>
      <trkpt lat="41.7064870" lon="-8.8600010">
        <ele>4.6</ele>
        <time>2021-05-18T06:29:17Z</time>
      </trkpt>
      <trkpt lat="41.7064970" lon="-8.8600100">
        <ele>4.6</ele>
        <time>2021-05-18T06:29:18Z</time>
      </trkpt>
      <trkpt lat="41.7065100" lon="-8.8600200">
        <ele>4.6</ele>
        <time>2021-05-18T06:29:19Z</time>
      </trkpt>
      <trkpt lat="41.7065320" lon="-8.8600240">
        <ele>4.6</ele>
        <time>2021-05-18T06:29:20Z</time>
      </trkpt>
      <trkpt lat="41.7065410" lon="-8.8600280">
        <ele>4.6</ele>
        <time>2021-05-18T06:29:21Z</time>
      </trkpt>
      <trkpt lat="41.7065500" lon="-8.8600310">
        <ele>4.5</ele>
        <time>2021-05-18T06:29:22Z</time>
      </trkpt>
      <trkpt lat="41.7065650" lon="-8.8600330">
        <ele>4.5</ele>
        <time>2021-05-18T06:29:23Z</time>
      </trkpt>
      <trkpt lat="41.7065790" lon="-8.8600340">
        <ele>4.5</ele>
        <time>2021-05-18T06:29:24Z</time>
      </trkpt>
      <trkpt lat="41.7065920" lon="-8.8600390">
        <ele>4.5</ele>
        <time>2021-05-18T06:29:25Z</time>
      </trkpt>
      <trkpt lat="41.7066070" lon="-8.8600350">
        <ele>4.5</ele>
        <time>2021-05-18T06:29:26Z</time>
      </trkpt>
      <trkpt lat="41.7066220" lon="-8.8600380">
        <ele>4.4</ele>
        <time>2021-05-18T06:29:27Z</time>
      </trkpt>
      <trkpt lat="41.7066360" lon="-8.8600390">
        <ele>4.4</ele>
        <time>2021-05-18T06:29:28Z</time>
      </trkpt>
      <trkpt lat="41.7066500" lon="-8.8600400">
        <ele>4.4</ele>
        <time>2021-05-18T06:29:29Z</time>
      </trkpt>
      <trkpt lat="41.7066650" lon="-8.8600400">
        <ele>4.4</ele>
        <time>2021-05-18T06:29:30Z</time>
      </trkpt>
      <trkpt lat="41.7066790" lon="-8.8600390">
        <ele>4.3</ele>
        <time>2021-05-18T06:29:31Z</time>
      </trkpt>
      <trkpt lat="41.7066940" lon="-8.8600370">
        <ele>4.3</ele>
        <time>2021-05-18T06:29:32Z</time>
      </trkpt>
      <trkpt lat="41.7067080" lon="-8.8600360">
        <ele>4.3</ele>
        <time>2021-05-18T06:29:33Z</time>
      </trkpt>
      <trkpt lat="41.7067220" lon="-8.8600380">
        <ele>4.3</ele>
        <time>2021-05-18T06:29:34Z</time>
      </trkpt>
      <trkpt lat="41.7067350" lon="-8.8600330">
        <ele>4.3</ele>
        <time>2021-05-18T06:29:35Z</time>
      </trkpt>
      <trkpt lat="41.7067510" lon="-8.8600340">
        <ele>4.2</ele>
        <time>2021-05-18T06:29:36Z</time>
      </trkpt>
      <trkpt lat="41.7067660" lon="-8.8600370">
        <ele>4.2</ele>
        <time>2021-05-18T06:29:37Z</time>
      </trkpt>
      <trkpt lat="41.7067810" lon="-8.8600360">
        <ele>4.2</ele>
        <time>2021-05-18T06:29:38Z</time>
      </trkpt>
      <trkpt lat="41.7067950" lon="-8.8600330">
        <ele>4.2</ele>
        <time>2021-05-18T06:29:39Z</time>
      </trkpt>
      <trkpt lat="41.7068110" lon="-8.8600330">
        <ele>4.2</ele>
        <time>2021-05-18T06:29:40Z</time>
      </trkpt>
      <trkpt lat="41.7068240" lon="-8.8600350">
        <ele>4.2</ele>
        <time>2021-05-18T06:29:41Z</time>
      </trkpt>
      <trkpt lat="41.7068400" lon="-8.8600320">
        <ele>4.2</ele>
        <time>2021-05-18T06:29:42Z</time>
      </trkpt>
      <trkpt lat="41.7068540" lon="-8.8600320">
        <ele>4.2</ele>
        <time>2021-05-18T06:29:43Z</time>
      </trkpt>
      <trkpt lat="41.7068680" lon="-8.8600360">
        <ele>4.2</ele>
        <time>2021-05-18T06:29:44Z</time>
      </trkpt>
      <trkpt lat="41.7068810" lon="-8.8600380">
        <ele>4.2</ele>
        <time>2021-05-18T06:29:45Z</time>
      </trkpt>
      <trkpt lat="41.7068950" lon="-8.8600390">
        <ele>4.2</ele>
        <time>2021-05-18T06:29:46Z</time>
      </trkpt>
      <trkpt lat="41.7069170" lon="-8.8600440">
        <ele>4.2</ele>
        <time>2021-05-18T06:29:47Z</time>
      </trkpt>
      <trkpt lat="41.7069250" lon="-8.8600470">
        <ele>4.2</ele>
        <time>2021-05-18T06:29:48Z</time>
      </trkpt>
      <trkpt lat="41.7069340" lon="-8.8600500">
        <ele>4.2</ele>
        <time>2021-05-18T06:29:49Z</time>
      </trkpt>
      <trkpt lat="41.7069480" lon="-8.8600500">
        <ele>4.2</ele>
        <time>2021-05-18T06:29:50Z</time>
      </trkpt>
      <trkpt lat="41.7069610" lon="-8.8600580">
        <ele>4.2</ele>
        <time>2021-05-18T06:29:51Z</time>
      </trkpt>
      <trkpt lat="41.7069810" lon="-8.8600630">
        <ele>4.2</ele>
        <time>2021-05-18T06:29:52Z</time>
      </trkpt>
      <trkpt lat="41.7069910" lon="-8.8600650">
        <ele>4.2</ele>
        <time>2021-05-18T06:29:53Z</time>
      </trkpt>
      <trkpt lat="41.7070000" lon="-8.8600670">
        <ele>4.2</ele>
        <time>2021-05-18T06:29:54Z</time>
      </trkpt>
      <trkpt lat="41.7070230" lon="-8.8600740">
        <ele>4.2</ele>
        <time>2021-05-18T06:29:55Z</time>
      </trkpt>
      <trkpt lat="41.7070310" lon="-8.8600770">
        <ele>4.2</ele>
        <time>2021-05-18T06:29:56Z</time>
      </trkpt>
      <trkpt lat="41.7070380" lon="-8.8600810">
        <ele>4.2</ele>
        <time>2021-05-18T06:29:57Z</time>
      </trkpt>
      <trkpt lat="41.7070580" lon="-8.8600870">
        <ele>4.3</ele>
        <time>2021-05-18T06:29:58Z</time>
      </trkpt>
      <trkpt lat="41.7070650" lon="-8.8600920">
        <ele>4.3</ele>
        <time>2021-05-18T06:29:59Z</time>
      </trkpt>
      <trkpt lat="41.7070730" lon="-8.8600960">
        <ele>4.3</ele>
        <time>2021-05-18T06:30:00Z</time>
      </trkpt>
      <trkpt lat="41.7070870" lon="-8.8601000">
        <ele>4.3</ele>
        <time>2021-05-18T06:30:01Z</time>
      </trkpt>
      <trkpt lat="41.7071000" lon="-8.8601090">
        <ele>4.3</ele>
        <time>2021-05-18T06:30:02Z</time>
      </trkpt>
      <trkpt lat="41.7071130" lon="-8.8601180">
        <ele>4.3</ele>
        <time>2021-05-18T06:30:03Z</time>
      </trkpt>
      <trkpt lat="41.7071260" lon="-8.8601240">
        <ele>4.4</ele>
        <time>2021-05-18T06:30:04Z</time>
      </trkpt>
      <trkpt lat="41.7071390" lon="-8.8601300">
        <ele>4.4</ele>
        <time>2021-05-18T06:30:05Z</time>
      </trkpt>
      <trkpt lat="41.7071510" lon="-8.8601410">
        <ele>4.4</ele>
        <time>2021-05-18T06:30:06Z</time>
      </trkpt>
      <trkpt lat="41.7071630" lon="-8.8601490">
        <ele>4.4</ele>
        <time>2021-05-18T06:30:07Z</time>
      </trkpt>
      <trkpt lat="41.7071800" lon="-8.8601500">
        <ele>4.4</ele>
        <time>2021-05-18T06:30:08Z</time>
      </trkpt>
      <trkpt lat="41.7071910" lon="-8.8601540">
        <ele>4.5</ele>
        <time>2021-05-18T06:30:09Z</time>
      </trkpt>
      <trkpt lat="41.7072070" lon="-8.8601600">
        <ele>4.5</ele>
        <time>2021-05-18T06:30:10Z</time>
      </trkpt>
      <trkpt lat="41.7072210" lon="-8.8601640">
        <ele>4.5</ele>
        <time>2021-05-18T06:30:11Z</time>
      </trkpt>
      <trkpt lat="41.7072370" lon="-8.8601670">
        <ele>4.5</ele>
        <time>2021-05-18T06:30:12Z</time>
      </trkpt>
      <trkpt lat="41.7072570" lon="-8.8601830">
        <ele>4.6</ele>
        <time>2021-05-18T06:30:13Z</time>
      </trkpt>
      <trkpt lat="41.7072670" lon="-8.8601870">
        <ele>4.6</ele>
        <time>2021-05-18T06:30:14Z</time>
      </trkpt>
      <trkpt lat="41.7072760" lon="-8.8601920">
        <ele>4.6</ele>
        <time>2021-05-18T06:30:15Z</time>
      </trkpt>
      <trkpt lat="41.7072880" lon="-8.8601990">
        <ele>4.6</ele>
        <time>2021-05-18T06:30:16Z</time>
      </trkpt>
      <trkpt lat="41.7073020" lon="-8.8602060">
        <ele>4.6</ele>
        <time>2021-05-18T06:30:17Z</time>
      </trkpt>
      <trkpt lat="41.7073160" lon="-8.8602080">
        <ele>4.6</ele>
        <time>2021-05-18T06:30:18Z</time>
      </trkpt>
      <trkpt lat="41.7073290" lon="-8.8602170">
        <ele>4.6</ele>
        <time>2021-05-18T06:30:19Z</time>
      </trkpt>
      <trkpt lat="41.7073420" lon="-8.8602210">
        <ele>4.7</ele>
        <time>2021-05-18T06:30:20Z</time>
      </trkpt>
      <trkpt lat="41.7073570" lon="-8.8602240">
        <ele>4.7</ele>
        <time>2021-05-18T06:30:21Z</time>
      </trkpt>
      <trkpt lat="41.7073810" lon="-8.8602400">
        <ele>4.7</ele>
        <time>2021-05-18T06:30:22Z</time>
      </trkpt>
      <trkpt lat="41.7073940" lon="-8.8602470">
        <ele>4.7</ele>
        <time>2021-05-18T06:30:23Z</time>
      </trkpt>
      <trkpt lat="41.7074080" lon="-8.8602520">
        <ele>4.7</ele>
        <time>2021-05-18T06:30:24Z</time>
      </trkpt>
      <trkpt lat="41.7074280" lon="-8.8602640">
        <ele>4.7</ele>
        <time>2021-05-18T06:30:25Z</time>
      </trkpt>
      <trkpt lat="41.7074370" lon="-8.8602690">
        <ele>4.7</ele>
        <time>2021-05-18T06:30:26Z</time>
      </trkpt>
      <trkpt lat="41.7074450" lon="-8.8602750">
        <ele>4.8</ele>
        <time>2021-05-18T06:30:27Z</time>
      </trkpt>
      <trkpt lat="41.7074630" lon="-8.8602900">
        <ele>4.8</ele>
        <time>2021-05-18T06:30:28Z</time>
      </trkpt>
      <trkpt lat="41.7074720" lon="-8.8602940">
        <ele>4.8</ele>
        <time>2021-05-18T06:30:29Z</time>
      </trkpt>
      <trkpt lat="41.7074800" lon="-8.8602980">
        <ele>4.8</ele>
        <time>2021-05-18T06:30:30Z</time>
      </trkpt>
      <trkpt lat="41.7074910" lon="-8.8603040">
        <ele>4.8</ele>
        <time>2021-05-18T06:30:31Z</time>
      </trkpt>
      <trkpt lat="41.7075050" lon="-8.8603120">
        <ele>4.8</ele>
        <time>2021-05-18T06:30:32Z</time>
      </trkpt>
      <trkpt lat="41.7075190" lon="-8.8603150">
        <ele>4.8</ele>
        <time>2021-05-18T06:30:33Z</time>
      </trkpt>
      <trkpt lat="41.7075320" lon="-8.8603150">
        <ele>4.8</ele>
        <time>2021-05-18T06:30:34Z</time>
      </trkpt>
      <trkpt lat="41.7075440" lon="-8.8603230">
        <ele>4.8</ele>
        <time>2021-05-18T06:30:35Z</time>
      </trkpt>
      <trkpt lat="41.7075570" lon="-8.8603320">
        <ele>4.8</ele>
        <time>2021-05-18T06:30:36Z</time>
      </trkpt>
      <trkpt lat="41.7075750" lon="-8.8603440">
        <ele>4.8</ele>
        <time>2021-05-18T06:30:37Z</time>
      </trkpt>
      <trkpt lat="41.7075840" lon="-8.8603480">
        <ele>4.8</ele>
        <time>2021-05-18T06:30:38Z</time>
      </trkpt>
      <trkpt lat="41.7075920" lon="-8.8603510">
        <ele>4.8</ele>
        <time>2021-05-18T06:30:39Z</time>
      </trkpt>
      <trkpt lat="41.7076060" lon="-8.8603570">
        <ele>4.8</ele>
        <time>2021-05-18T06:30:40Z</time>
      </trkpt>
      <trkpt lat="41.7076180" lon="-8.8603620">
        <ele>4.9</ele>
        <time>2021-05-18T06:30:41Z</time>
      </trkpt>
      <trkpt lat="41.7076320" lon="-8.8603650">
        <ele>4.9</ele>
        <time>2021-05-18T06:30:42Z</time>
      </trkpt>
      <trkpt lat="41.7076480" lon="-8.8603680">
        <ele>4.9</ele>
        <time>2021-05-18T06:30:43Z</time>
      </trkpt>
      <trkpt lat="41.7076580" lon="-8.8603810">
        <ele>4.9</ele>
        <time>2021-05-18T06:30:44Z</time>
      </trkpt>
      <trkpt lat="41.7076720" lon="-8.8603860">
        <ele>4.9</ele>
        <time>2021-05-18T06:30:45Z</time>
      </trkpt>
      <trkpt lat="41.7076920" lon="-8.8603950">
        <ele>4.9</ele>
        <time>2021-05-18T06:30:46Z</time>
      </trkpt>
      <trkpt lat="41.7077010" lon="-8.8603990">
        <ele>4.9</ele>
        <time>2021-05-18T06:30:47Z</time>
      </trkpt>
      <trkpt lat="41.7077100" lon="-8.8604030">
        <ele>4.9</ele>
        <time>2021-05-18T06:30:48Z</time>
      </trkpt>
      <trkpt lat="41.7077240" lon="-8.8604100">
        <ele>4.9</ele>
        <time>2021-05-18T06:30:49Z</time>
      </trkpt>
      <trkpt lat="41.7077370" lon="-8.8604160">
        <ele>4.9</ele>
        <time>2021-05-18T06:30:50Z</time>
      </trkpt>
      <trkpt lat="41.7077560" lon="-8.8604270">
        <ele>4.9</ele>
        <time>2021-05-18T06:30:51Z</time>
      </trkpt>
      <trkpt lat="41.7077650" lon="-8.8604310">
        <ele>4.9</ele>
        <time>2021-05-18T06:30:52Z</time>
      </trkpt>
      <trkpt lat="41.7077740" lon="-8.8604340">
        <ele>4.9</ele>
        <time>2021-05-18T06:30:53Z</time>
      </trkpt>
      <trkpt lat="41.7077870" lon="-8.8604410">
        <ele>4.9</ele>
        <time>2021-05-18T06:30:54Z</time>
      </trkpt>
      <trkpt lat="41.7078000" lon="-8.8604500">
        <ele>4.9</ele>
        <time>2021-05-18T06:30:56Z</time>
      </trkpt>
      <trkpt lat="41.7078140" lon="-8.8604570">
        <ele>4.9</ele>
        <time>2021-05-18T06:30:57Z</time>
      </trkpt>
      <trkpt lat="41.7078280" lon="-8.8604630">
        <ele>4.9</ele>
        <time>2021-05-18T06:30:58Z</time>
      </trkpt>
      <trkpt lat="41.7078400" lon="-8.8604710">
        <ele>4.9</ele>
        <time>2021-05-18T06:30:59Z</time>
      </trkpt>
      <trkpt lat="41.7078560" lon="-8.8604740">
        <ele>4.9</ele>
        <time>2021-05-18T06:31:00Z</time>
      </trkpt>
      <trkpt lat="41.7078760" lon="-8.8604850">
        <ele>4.9</ele>
        <time>2021-05-18T06:31:01Z</time>
      </trkpt>
      <trkpt lat="41.7078830" lon="-8.8604920">
        <ele>4.9</ele>
        <time>2021-05-18T06:31:02Z</time>
      </trkpt>
      <trkpt lat="41.7078900" lon="-8.8604990">
        <ele>4.9</ele>
        <time>2021-05-18T06:31:03Z</time>
      </trkpt>
      <trkpt lat="41.7079100" lon="-8.8605110">
        <ele>4.9</ele>
        <time>2021-05-18T06:31:04Z</time>
      </trkpt>
      <trkpt lat="41.7079190" lon="-8.8605160">
        <ele>4.9</ele>
        <time>2021-05-18T06:31:05Z</time>
      </trkpt>
      <trkpt lat="41.7079280" lon="-8.8605210">
        <ele>4.9</ele>
        <time>2021-05-18T06:31:06Z</time>
      </trkpt>
      <trkpt lat="41.7079420" lon="-8.8605260">
        <ele>4.9</ele>
        <time>2021-05-18T06:31:07Z</time>
      </trkpt>
      <trkpt lat="41.7079550" lon="-8.8605280">
        <ele>4.9</ele>
        <time>2021-05-18T06:31:08Z</time>
      </trkpt>
      <trkpt lat="41.7079670" lon="-8.8605370">
        <ele>4.9</ele>
        <time>2021-05-18T06:31:09Z</time>
      </trkpt>
      <trkpt lat="41.7079780" lon="-8.8605480">
        <ele>4.9</ele>
        <time>2021-05-18T06:31:10Z</time>
      </trkpt>
      <trkpt lat="41.7079900" lon="-8.8605530">
        <ele>4.9</ele>
        <time>2021-05-18T06:31:11Z</time>
      </trkpt>
      <trkpt lat="41.7080050" lon="-8.8605550">
        <ele>4.9</ele>
        <time>2021-05-18T06:31:12Z</time>
      </trkpt>
      <trkpt lat="41.7080190" lon="-8.8605580">
        <ele>4.9</ele>
        <time>2021-05-18T06:31:13Z</time>
      </trkpt>
      <trkpt lat="41.7080320" lon="-8.8605650">
        <ele>4.9</ele>
        <time>2021-05-18T06:31:14Z</time>
      </trkpt>
      <trkpt lat="41.7080510" lon="-8.8605770">
        <ele>4.9</ele>
        <time>2021-05-18T06:31:15Z</time>
      </trkpt>
      <trkpt lat="41.7080600" lon="-8.8605800">
        <ele>4.9</ele>
        <time>2021-05-18T06:31:16Z</time>
      </trkpt>
      <trkpt lat="41.7080680" lon="-8.8605840">
        <ele>4.9</ele>
        <time>2021-05-18T06:31:17Z</time>
      </trkpt>
      <trkpt lat="41.7080860" lon="-8.8605980">
        <ele>4.9</ele>
        <time>2021-05-18T06:31:18Z</time>
      </trkpt>
      <trkpt lat="41.7080930" lon="-8.8606020">
        <ele>4.9</ele>
        <time>2021-05-18T06:31:19Z</time>
      </trkpt>
      <trkpt lat="41.7081010" lon="-8.8606070">
        <ele>4.9</ele>
        <time>2021-05-18T06:31:20Z</time>
      </trkpt>
      <trkpt lat="41.7081210" lon="-8.8606180">
        <ele>4.9</ele>
        <time>2021-05-18T06:31:21Z</time>
      </trkpt>
      <trkpt lat="41.7081300" lon="-8.8606210">
        <ele>4.9</ele>
        <time>2021-05-18T06:31:22Z</time>
      </trkpt>
      <trkpt lat="41.7081380" lon="-8.8606250">
        <ele>4.9</ele>
        <time>2021-05-18T06:31:23Z</time>
      </trkpt>
      <trkpt lat="41.7081580" lon="-8.8606370">
        <ele>4.9</ele>
        <time>2021-05-18T06:31:24Z</time>
      </trkpt>
      <trkpt lat="41.7081660" lon="-8.8606410">
        <ele>4.9</ele>
        <time>2021-05-18T06:31:25Z</time>
      </trkpt>
      <trkpt lat="41.7081730" lon="-8.8606460">
        <ele>4.9</ele>
        <time>2021-05-18T06:31:26Z</time>
      </trkpt>
      <trkpt lat="41.7081940" lon="-8.8606580">
        <ele>4.9</ele>
        <time>2021-05-18T06:31:27Z</time>
      </trkpt>
      <trkpt lat="41.7082010" lon="-8.8606610">
        <ele>4.9</ele>
        <time>2021-05-18T06:31:28Z</time>
      </trkpt>
      <trkpt lat="41.7082090" lon="-8.8606650">
        <ele>4.9</ele>
        <time>2021-05-18T06:31:29Z</time>
      </trkpt>
      <trkpt lat="41.7082290" lon="-8.8606760">
        <ele>4.9</ele>
        <time>2021-05-18T06:31:30Z</time>
      </trkpt>
      <trkpt lat="41.7082360" lon="-8.8606830">
        <ele>4.9</ele>
        <time>2021-05-18T06:31:31Z</time>
      </trkpt>
      <trkpt lat="41.7082430" lon="-8.8606890">
        <ele>4.9</ele>
        <time>2021-05-18T06:31:32Z</time>
      </trkpt>
      <trkpt lat="41.7082570" lon="-8.8606960">
        <ele>4.9</ele>
        <time>2021-05-18T06:31:33Z</time>
      </trkpt>
      <trkpt lat="41.7082700" lon="-8.8607060">
        <ele>4.9</ele>
        <time>2021-05-18T06:31:34Z</time>
      </trkpt>
      <trkpt lat="41.7082800" lon="-8.8607170">
        <ele>4.9</ele>
        <time>2021-05-18T06:31:35Z</time>
      </trkpt>
      <trkpt lat="41.7082940" lon="-8.8607230">
        <ele>4.9</ele>
        <time>2021-05-18T06:31:36Z</time>
      </trkpt>
      <trkpt lat="41.7083050" lon="-8.8607320">
        <ele>4.9</ele>
        <time>2021-05-18T06:31:37Z</time>
      </trkpt>
      <trkpt lat="41.7083190" lon="-8.8607380">
        <ele>5.0</ele>
        <time>2021-05-18T06:31:38Z</time>
      </trkpt>
      <trkpt lat="41.7083370" lon="-8.8607560">
        <ele>5.0</ele>
        <time>2021-05-18T06:31:39Z</time>
      </trkpt>
      <trkpt lat="41.7083440" lon="-8.8607630">
        <ele>5.0</ele>
        <time>2021-05-18T06:31:40Z</time>
      </trkpt>
      <trkpt lat="41.7083520" lon="-8.8607700">
        <ele>5.0</ele>
        <time>2021-05-18T06:31:41Z</time>
      </trkpt>
      <trkpt lat="41.7083620" lon="-8.8607840">
        <ele>5.0</ele>
        <time>2021-05-18T06:31:42Z</time>
      </trkpt>
      <trkpt lat="41.7083760" lon="-8.8607930">
        <ele>5.0</ele>
        <time>2021-05-18T06:31:43Z</time>
      </trkpt>
      <trkpt lat="41.7083870" lon="-8.8608050">
        <ele>5.0</ele>
        <time>2021-05-18T06:31:44Z</time>
      </trkpt>
      <trkpt lat="41.7084010" lon="-8.8608070">
        <ele>5.0</ele>
        <time>2021-05-18T06:31:45Z</time>
      </trkpt>
      <trkpt lat="41.7084210" lon="-8.8608210">
        <ele>5.0</ele>
        <time>2021-05-18T06:31:46Z</time>
      </trkpt>
      <trkpt lat="41.7084290" lon="-8.8608280">
        <ele>5.0</ele>
        <time>2021-05-18T06:31:47Z</time>
      </trkpt>
      <trkpt lat="41.7084370" lon="-8.8608340">
        <ele>5.0</ele>
        <time>2021-05-18T06:31:48Z</time>
      </trkpt>
      <trkpt lat="41.7084510" lon="-8.8608520">
        <ele>5.1</ele>
        <time>2021-05-18T06:31:49Z</time>
      </trkpt>
      <trkpt lat="41.7084570" lon="-8.8608610">
        <ele>5.1</ele>
        <time>2021-05-18T06:31:50Z</time>
      </trkpt>
      <trkpt lat="41.7084620" lon="-8.8608690">
        <ele>5.1</ele>
        <time>2021-05-18T06:31:51Z</time>
      </trkpt>
      <trkpt lat="41.7084750" lon="-8.8608780">
        <ele>5.1</ele>
        <time>2021-05-18T06:31:52Z</time>
      </trkpt>
      <trkpt lat="41.7084880" lon="-8.8608840">
        <ele>5.1</ele>
        <time>2021-05-18T06:31:53Z</time>
      </trkpt>
      <trkpt lat="41.7085060" lon="-8.8609000">
        <ele>5.1</ele>
        <time>2021-05-18T06:31:54Z</time>
      </trkpt>
      <trkpt lat="41.7085140" lon="-8.8609060">
        <ele>5.1</ele>
        <time>2021-05-18T06:31:55Z</time>
      </trkpt>
      <trkpt lat="41.7085220" lon="-8.8609110">
        <ele>5.1</ele>
        <time>2021-05-18T06:31:56Z</time>
      </trkpt>
      <trkpt lat="41.7085320" lon="-8.8609220">
        <ele>5.1</ele>
        <time>2021-05-18T06:31:57Z</time>
      </trkpt>
      <trkpt lat="41.7085450" lon="-8.8609320">
        <ele>5.1</ele>
        <time>2021-05-18T06:31:58Z</time>
      </trkpt>
      <trkpt lat="41.7085570" lon="-8.8609420">
        <ele>5.1</ele>
        <time>2021-05-18T06:31:59Z</time>
      </trkpt>
      <trkpt lat="41.7085660" lon="-8.8609540">
        <ele>5.1</ele>
        <time>2021-05-18T06:32:00Z</time>
      </trkpt>
      <trkpt lat="41.7085790" lon="-8.8609650">
        <ele>5.1</ele>
        <time>2021-05-18T06:32:01Z</time>
      </trkpt>
      <trkpt lat="41.7085910" lon="-8.8609760">
        <ele>5.1</ele>
        <time>2021-05-18T06:32:02Z</time>
      </trkpt>
      <trkpt lat="41.7086060" lon="-8.8609970">
        <ele>5.1</ele>
        <time>2021-05-18T06:32:03Z</time>
      </trkpt>
      <trkpt lat="41.7086130" lon="-8.8610040">
        <ele>5.1</ele>
        <time>2021-05-18T06:32:04Z</time>
      </trkpt>
      <trkpt lat="41.7086190" lon="-8.8610110">
        <ele>5.1</ele>
        <time>2021-05-18T06:32:05Z</time>
      </trkpt>
      <trkpt lat="41.7086300" lon="-8.8610220">
        <ele>5.1</ele>
        <time>2021-05-18T06:32:06Z</time>
      </trkpt>
      <trkpt lat="41.7086420" lon="-8.8610330">
        <ele>5.1</ele>
        <time>2021-05-18T06:32:07Z</time>
      </trkpt>
      <trkpt lat="41.7086610" lon="-8.8610500">
        <ele>5.1</ele>
        <time>2021-05-18T06:32:08Z</time>
      </trkpt>
      <trkpt lat="41.7086690" lon="-8.8610560">
        <ele>5.1</ele>
        <time>2021-05-18T06:32:09Z</time>
      </trkpt>
      <trkpt lat="41.7086760" lon="-8.8610620">
        <ele>5.1</ele>
        <time>2021-05-18T06:32:10Z</time>
      </trkpt>
      <trkpt lat="41.7086870" lon="-8.8610740">
        <ele>5.1</ele>
        <time>2021-05-18T06:32:11Z</time>
      </trkpt>
      <trkpt lat="41.7086960" lon="-8.8610880">
        <ele>5.1</ele>
        <time>2021-05-18T06:32:12Z</time>
      </trkpt>
      <trkpt lat="41.7087080" lon="-8.8610990">
        <ele>5.1</ele>
        <time>2021-05-18T06:32:13Z</time>
      </trkpt>
      <trkpt lat="41.7087200" lon="-8.8611060">
        <ele>5.1</ele>
        <time>2021-05-18T06:32:14Z</time>
      </trkpt>
      <trkpt lat="41.7087340" lon="-8.8611130">
        <ele>5.1</ele>
        <time>2021-05-18T06:32:15Z</time>
      </trkpt>
      <trkpt lat="41.7087440" lon="-8.8611250">
        <ele>5.1</ele>
        <time>2021-05-18T06:32:16Z</time>
      </trkpt>
      <trkpt lat="41.7087600" lon="-8.8611460">
        <ele>5.1</ele>
        <time>2021-05-18T06:32:17Z</time>
      </trkpt>
      <trkpt lat="41.7087650" lon="-8.8611570">
        <ele>5.1</ele>
        <time>2021-05-18T06:32:18Z</time>
      </trkpt>
      <trkpt lat="41.7087710" lon="-8.8611670">
        <ele>5.1</ele>
        <time>2021-05-18T06:32:19Z</time>
      </trkpt>
      <trkpt lat="41.7087800" lon="-8.8611780">
        <ele>5.1</ele>
        <time>2021-05-18T06:32:20Z</time>
      </trkpt>
      <trkpt lat="41.7087920" lon="-8.8611900">
        <ele>5.1</ele>
        <time>2021-05-18T06:32:21Z</time>
      </trkpt>
      <trkpt lat="41.7088040" lon="-8.8612020">
        <ele>5.1</ele>
        <time>2021-05-18T06:32:22Z</time>
      </trkpt>
      <trkpt lat="41.7088150" lon="-8.8612130">
        <ele>5.1</ele>
        <time>2021-05-18T06:32:23Z</time>
      </trkpt>
      <trkpt lat="41.7088230" lon="-8.8612290">
        <ele>5.1</ele>
        <time>2021-05-18T06:32:24Z</time>
      </trkpt>
      <trkpt lat="41.7088370" lon="-8.8612350">
        <ele>5.1</ele>
        <time>2021-05-18T06:32:25Z</time>
      </trkpt>
      <trkpt lat="41.7088510" lon="-8.8612450">
        <ele>5.1</ele>
        <time>2021-05-18T06:32:26Z</time>
      </trkpt>
      <trkpt lat="41.7088610" lon="-8.8612570">
        <ele>5.1</ele>
        <time>2021-05-18T06:32:27Z</time>
      </trkpt>
      <trkpt lat="41.7088710" lon="-8.8612720">
        <ele>5.1</ele>
        <time>2021-05-18T06:32:28Z</time>
      </trkpt>
      <trkpt lat="41.7088830" lon="-8.8612830">
        <ele>5.1</ele>
        <time>2021-05-18T06:32:29Z</time>
      </trkpt>
      <trkpt lat="41.7088980" lon="-8.8613040">
        <ele>5.1</ele>
        <time>2021-05-18T06:32:30Z</time>
      </trkpt>
      <trkpt lat="41.7089070" lon="-8.8613110">
        <ele>5.1</ele>
        <time>2021-05-18T06:32:31Z</time>
      </trkpt>
      <trkpt lat="41.7089150" lon="-8.8613180">
        <ele>5.1</ele>
        <time>2021-05-18T06:32:32Z</time>
      </trkpt>
      <trkpt lat="41.7089350" lon="-8.8613320">
        <ele>5.1</ele>
        <time>2021-05-18T06:32:33Z</time>
      </trkpt>
      <trkpt lat="41.7089410" lon="-8.8613390">
        <ele>5.1</ele>
        <time>2021-05-18T06:32:34Z</time>
      </trkpt>
      <trkpt lat="41.7089480" lon="-8.8613460">
        <ele>5.1</ele>
        <time>2021-05-18T06:32:35Z</time>
      </trkpt>
      <trkpt lat="41.7089610" lon="-8.8613710">
        <ele>5.1</ele>
        <time>2021-05-18T06:32:36Z</time>
      </trkpt>
      <trkpt lat="41.7089650" lon="-8.8613810">
        <ele>5.1</ele>
        <time>2021-05-18T06:32:37Z</time>
      </trkpt>
      <trkpt lat="41.7089700" lon="-8.8613910">
        <ele>5.1</ele>
        <time>2021-05-18T06:32:38Z</time>
      </trkpt>
      <trkpt lat="41.7089800" lon="-8.8614040">
        <ele>5.1</ele>
        <time>2021-05-18T06:32:39Z</time>
      </trkpt>
      <trkpt lat="41.7089910" lon="-8.8614160">
        <ele>5.1</ele>
        <time>2021-05-18T06:32:40Z</time>
      </trkpt>
      <trkpt lat="41.7090000" lon="-8.8614310">
        <ele>5.1</ele>
        <time>2021-05-18T06:32:41Z</time>
      </trkpt>
      <trkpt lat="41.7090050" lon="-8.8614490">
        <ele>5.1</ele>
        <time>2021-05-18T06:32:42Z</time>
      </trkpt>
      <trkpt lat="41.7090190" lon="-8.8614580">
        <ele>5.1</ele>
        <time>2021-05-18T06:32:43Z</time>
      </trkpt>
      <trkpt lat="41.7090310" lon="-8.8614700">
        <ele>5.0</ele>
        <time>2021-05-18T06:32:44Z</time>
      </trkpt>
      <trkpt lat="41.7090400" lon="-8.8614820">
        <ele>5.0</ele>
        <time>2021-05-18T06:32:45Z</time>
      </trkpt>
      <trkpt lat="41.7090510" lon="-8.8614890">
        <ele>5.0</ele>
        <time>2021-05-18T06:32:46Z</time>
      </trkpt>
      <trkpt lat="41.7090600" lon="-8.8614970">
        <ele>5.0</ele>
        <time>2021-05-18T06:32:47Z</time>
      </trkpt>
      <trkpt lat="41.7090740" lon="-8.8615070">
        <ele>5.0</ele>
        <time>2021-05-18T06:32:48Z</time>
      </trkpt>
      <trkpt lat="41.7090840" lon="-8.8615160">
        <ele>5.0</ele>
        <time>2021-05-18T06:32:49Z</time>
      </trkpt>
      <trkpt lat="41.7090960" lon="-8.8615270">
        <ele>5.0</ele>
        <time>2021-05-18T06:32:50Z</time>
      </trkpt>
      <trkpt lat="41.7091110" lon="-8.8615360">
        <ele>5.0</ele>
        <time>2021-05-18T06:32:51Z</time>
      </trkpt>
      <trkpt lat="41.7091220" lon="-8.8615490">
        <ele>5.0</ele>
        <time>2021-05-18T06:32:52Z</time>
      </trkpt>
      <trkpt lat="41.7091350" lon="-8.8615560">
        <ele>5.0</ele>
        <time>2021-05-18T06:32:53Z</time>
      </trkpt>
      <trkpt lat="41.7091460" lon="-8.8615670">
        <ele>5.0</ele>
        <time>2021-05-18T06:32:54Z</time>
      </trkpt>
      <trkpt lat="41.7091610" lon="-8.8615730">
        <ele>5.0</ele>
        <time>2021-05-18T06:32:55Z</time>
      </trkpt>
      <trkpt lat="41.7091720" lon="-8.8615800">
        <ele>4.9</ele>
        <time>2021-05-18T06:32:56Z</time>
      </trkpt>
      <trkpt lat="41.7091870" lon="-8.8615840">
        <ele>4.9</ele>
        <time>2021-05-18T06:32:57Z</time>
      </trkpt>
      <trkpt lat="41.7092080" lon="-8.8615930">
        <ele>4.9</ele>
        <time>2021-05-18T06:32:58Z</time>
      </trkpt>
      <trkpt lat="41.7092170" lon="-8.8615960">
        <ele>4.9</ele>
        <time>2021-05-18T06:32:59Z</time>
      </trkpt>
      <trkpt lat="41.7092260" lon="-8.8615990">
        <ele>4.9</ele>
        <time>2021-05-18T06:33:00Z</time>
      </trkpt>
      <trkpt lat="41.7092390" lon="-8.8616030">
        <ele>4.9</ele>
        <time>2021-05-18T06:33:01Z</time>
      </trkpt>
      <trkpt lat="41.7092520" lon="-8.8616080">
        <ele>4.9</ele>
        <time>2021-05-18T06:33:02Z</time>
      </trkpt>
      <trkpt lat="41.7092660" lon="-8.8616170">
        <ele>4.9</ele>
        <time>2021-05-18T06:33:03Z</time>
      </trkpt>
      <trkpt lat="41.7092780" lon="-8.8616220">
        <ele>4.9</ele>
        <time>2021-05-18T06:33:04Z</time>
      </trkpt>
      <trkpt lat="41.7092920" lon="-8.8616250">
        <ele>4.9</ele>
        <time>2021-05-18T06:33:05Z</time>
      </trkpt>
      <trkpt lat="41.7093060" lon="-8.8616270">
        <ele>4.9</ele>
        <time>2021-05-18T06:33:06Z</time>
      </trkpt>
      <trkpt lat="41.7093220" lon="-8.8616260">
        <ele>4.9</ele>
        <time>2021-05-18T06:33:07Z</time>
      </trkpt>
      <trkpt lat="41.7093350" lon="-8.8616310">
        <ele>4.9</ele>
        <time>2021-05-18T06:33:08Z</time>
      </trkpt>
      <trkpt lat="41.7093500" lon="-8.8616370">
        <ele>4.9</ele>
        <time>2021-05-18T06:33:09Z</time>
      </trkpt>
      <trkpt lat="41.7093640" lon="-8.8616420">
        <ele>4.9</ele>
        <time>2021-05-18T06:33:10Z</time>
      </trkpt>
      <trkpt lat="41.7093790" lon="-8.8616430">
        <ele>4.8</ele>
        <time>2021-05-18T06:33:11Z</time>
      </trkpt>
      <trkpt lat="41.7093950" lon="-8.8616540">
        <ele>4.8</ele>
        <time>2021-05-18T06:33:12Z</time>
      </trkpt>
      <trkpt lat="41.7094090" lon="-8.8616550">
        <ele>4.8</ele>
        <time>2021-05-18T06:33:13Z</time>
      </trkpt>
      <trkpt lat="41.7094250" lon="-8.8616520">
        <ele>4.8</ele>
        <time>2021-05-18T06:33:14Z</time>
      </trkpt>
      <trkpt lat="41.7094400" lon="-8.8616540">
        <ele>4.8</ele>
        <time>2021-05-18T06:33:15Z</time>
      </trkpt>
      <trkpt lat="41.7094540" lon="-8.8616470">
        <ele>4.8</ele>
        <time>2021-05-18T06:33:16Z</time>
      </trkpt>
      <trkpt lat="41.7094690" lon="-8.8616470">
        <ele>4.8</ele>
        <time>2021-05-18T06:33:17Z</time>
      </trkpt>
      <trkpt lat="41.7094850" lon="-8.8616510">
        <ele>4.8</ele>
        <time>2021-05-18T06:33:18Z</time>
      </trkpt>
      <trkpt lat="41.7094980" lon="-8.8616500">
        <ele>4.8</ele>
        <time>2021-05-18T06:33:19Z</time>
      </trkpt>
      <trkpt lat="41.7095140" lon="-8.8616510">
        <ele>4.8</ele>
        <time>2021-05-18T06:33:20Z</time>
      </trkpt>
      <trkpt lat="41.7095260" lon="-8.8616510">
        <ele>4.8</ele>
        <time>2021-05-18T06:33:21Z</time>
      </trkpt>
      <trkpt lat="41.7095420" lon="-8.8616540">
        <ele>4.9</ele>
        <time>2021-05-18T06:33:22Z</time>
      </trkpt>
      <trkpt lat="41.7095560" lon="-8.8616470">
        <ele>4.9</ele>
        <time>2021-05-18T06:33:23Z</time>
      </trkpt>
      <trkpt lat="41.7095710" lon="-8.8616490">
        <ele>4.9</ele>
        <time>2021-05-18T06:33:24Z</time>
      </trkpt>
      <trkpt lat="41.7095840" lon="-8.8616460">
        <ele>4.9</ele>
        <time>2021-05-18T06:33:25Z</time>
      </trkpt>
      <trkpt lat="41.7096020" lon="-8.8616420">
        <ele>4.9</ele>
        <time>2021-05-18T06:33:26Z</time>
      </trkpt>
      <trkpt lat="41.7096150" lon="-8.8616410">
        <ele>4.9</ele>
        <time>2021-05-18T06:33:27Z</time>
      </trkpt>
      <trkpt lat="41.7096290" lon="-8.8616490">
        <ele>4.9</ele>
        <time>2021-05-18T06:33:28Z</time>
      </trkpt>
      <trkpt lat="41.7096420" lon="-8.8616460">
        <ele>4.9</ele>
        <time>2021-05-18T06:33:29Z</time>
      </trkpt>
      <trkpt lat="41.7096560" lon="-8.8616530">
        <ele>4.9</ele>
        <time>2021-05-18T06:33:30Z</time>
      </trkpt>
      <trkpt lat="41.7096720" lon="-8.8616500">
        <ele>4.9</ele>
        <time>2021-05-18T06:33:31Z</time>
      </trkpt>
      <trkpt lat="41.7096860" lon="-8.8616480">
        <ele>4.9</ele>
        <time>2021-05-18T06:33:32Z</time>
      </trkpt>
      <trkpt lat="41.7097000" lon="-8.8616450">
        <ele>4.9</ele>
        <time>2021-05-18T06:33:33Z</time>
      </trkpt>
      <trkpt lat="41.7097140" lon="-8.8616420">
        <ele>4.9</ele>
        <time>2021-05-18T06:33:34Z</time>
      </trkpt>
      <trkpt lat="41.7097270" lon="-8.8616470">
        <ele>4.9</ele>
        <time>2021-05-18T06:33:35Z</time>
      </trkpt>
      <trkpt lat="41.7097420" lon="-8.8616520">
        <ele>4.9</ele>
        <time>2021-05-18T06:33:36Z</time>
      </trkpt>
      <trkpt lat="41.7097540" lon="-8.8616530">
        <ele>4.9</ele>
        <time>2021-05-18T06:33:37Z</time>
      </trkpt>
      <trkpt lat="41.7097690" lon="-8.8616530">
        <ele>4.9</ele>
        <time>2021-05-18T06:33:38Z</time>
      </trkpt>
      <trkpt lat="41.7097850" lon="-8.8616530">
        <ele>5.0</ele>
        <time>2021-05-18T06:33:39Z</time>
      </trkpt>
      <trkpt lat="41.7097970" lon="-8.8616490">
        <ele>5.0</ele>
        <time>2021-05-18T06:33:40Z</time>
      </trkpt>
      <trkpt lat="41.7098120" lon="-8.8616520">
        <ele>5.0</ele>
        <time>2021-05-18T06:33:41Z</time>
      </trkpt>
      <trkpt lat="41.7098250" lon="-8.8616510">
        <ele>5.0</ele>
        <time>2021-05-18T06:33:42Z</time>
      </trkpt>
      <trkpt lat="41.7098380" lon="-8.8616560">
        <ele>5.0</ele>
        <time>2021-05-18T06:33:43Z</time>
      </trkpt>
      <trkpt lat="41.7098530" lon="-8.8616540">
        <ele>5.0</ele>
        <time>2021-05-18T06:33:44Z</time>
      </trkpt>
      <trkpt lat="41.7098680" lon="-8.8616550">
        <ele>5.0</ele>
        <time>2021-05-18T06:33:45Z</time>
      </trkpt>
      <trkpt lat="41.7098820" lon="-8.8616520">
        <ele>5.0</ele>
        <time>2021-05-18T06:33:46Z</time>
      </trkpt>
      <trkpt lat="41.7098970" lon="-8.8616560">
        <ele>5.0</ele>
        <time>2021-05-18T06:33:47Z</time>
      </trkpt>
      <trkpt lat="41.7099110" lon="-8.8616540">
        <ele>5.0</ele>
        <time>2021-05-18T06:33:48Z</time>
      </trkpt>
      <trkpt lat="41.7099250" lon="-8.8616510">
        <ele>5.0</ele>
        <time>2021-05-18T06:33:49Z</time>
      </trkpt>
      <trkpt lat="41.7099410" lon="-8.8616490">
        <ele>5.1</ele>
        <time>2021-05-18T06:33:50Z</time>
      </trkpt>
      <trkpt lat="41.7099550" lon="-8.8616450">
        <ele>5.1</ele>
        <time>2021-05-18T06:33:51Z</time>
      </trkpt>
      <trkpt lat="41.7099700" lon="-8.8616410">
        <ele>5.1</ele>
        <time>2021-05-18T06:33:52Z</time>
      </trkpt>
      <trkpt lat="41.7099880" lon="-8.8616290">
        <ele>5.1</ele>
        <time>2021-05-18T06:33:53Z</time>
      </trkpt>
      <trkpt lat="41.7099960" lon="-8.8616240">
        <ele>5.1</ele>
        <time>2021-05-18T06:33:54Z</time>
      </trkpt>
      <trkpt lat="41.7100030" lon="-8.8616200">
        <ele>5.1</ele>
        <time>2021-05-18T06:33:55Z</time>
      </trkpt>
      <trkpt lat="41.7100170" lon="-8.8616190">
        <ele>5.1</ele>
        <time>2021-05-18T06:33:56Z</time>
      </trkpt>
      <trkpt lat="41.7100310" lon="-8.8616140">
        <ele>5.1</ele>
        <time>2021-05-18T06:33:57Z</time>
      </trkpt>
      <trkpt lat="41.7100510" lon="-8.8616020">
        <ele>5.1</ele>
        <time>2021-05-18T06:33:58Z</time>
      </trkpt>
      <trkpt lat="41.7100590" lon="-8.8616010">
        <ele>5.1</ele>
        <time>2021-05-18T06:33:59Z</time>
      </trkpt>
      <trkpt lat="41.7100680" lon="-8.8616000">
        <ele>5.1</ele>
        <time>2021-05-18T06:34:00Z</time>
      </trkpt>
      <trkpt lat="41.7100820" lon="-8.8615950">
        <ele>5.1</ele>
        <time>2021-05-18T06:34:01Z</time>
      </trkpt>
      <trkpt lat="41.7100950" lon="-8.8615940">
        <ele>5.1</ele>
        <time>2021-05-18T06:34:02Z</time>
      </trkpt>
      <trkpt lat="41.7101160" lon="-8.8615870">
        <ele>5.1</ele>
        <time>2021-05-18T06:34:03Z</time>
      </trkpt>
      <trkpt lat="41.7101250" lon="-8.8615840">
        <ele>5.1</ele>
        <time>2021-05-18T06:34:04Z</time>
      </trkpt>
      <trkpt lat="41.7101330" lon="-8.8615810">
        <ele>5.1</ele>
        <time>2021-05-18T06:34:05Z</time>
      </trkpt>
      <trkpt lat="41.7101460" lon="-8.8615720">
        <ele>5.1</ele>
        <time>2021-05-18T06:34:06Z</time>
      </trkpt>
      <trkpt lat="41.7101620" lon="-8.8615730">
        <ele>5.1</ele>
        <time>2021-05-18T06:34:07Z</time>
      </trkpt>
      <trkpt lat="41.7101740" lon="-8.8615740">
        <ele>5.1</ele>
        <time>2021-05-18T06:34:08Z</time>
      </trkpt>
      <trkpt lat="41.7101890" lon="-8.8615700">
        <ele>5.1</ele>
        <time>2021-05-18T06:34:09Z</time>
      </trkpt>
      <trkpt lat="41.7102020" lon="-8.8615660">
        <ele>5.1</ele>
        <time>2021-05-18T06:34:10Z</time>
      </trkpt>
      <trkpt lat="41.7102160" lon="-8.8615680">
        <ele>5.1</ele>
        <time>2021-05-18T06:34:11Z</time>
      </trkpt>
      <trkpt lat="41.7102300" lon="-8.8615730">
        <ele>5.1</ele>
        <time>2021-05-18T06:34:12Z</time>
      </trkpt>
      <trkpt lat="41.7102440" lon="-8.8615630">
        <ele>5.1</ele>
        <time>2021-05-18T06:34:13Z</time>
      </trkpt>
      <trkpt lat="41.7102570" lon="-8.8615630">
        <ele>5.0</ele>
        <time>2021-05-18T06:34:14Z</time>
      </trkpt>
      <trkpt lat="41.7102710" lon="-8.8615590">
        <ele>5.0</ele>
        <time>2021-05-18T06:34:15Z</time>
      </trkpt>
      <trkpt lat="41.7102800" lon="-8.8615550">
        <ele>5.0</ele>
        <time>2021-05-18T06:34:16Z</time>
      </trkpt>
      <trkpt lat="41.7102890" lon="-8.8615590">
        <ele>5.0</ele>
        <time>2021-05-18T06:34:17Z</time>
      </trkpt>
      <trkpt lat="41.7102980" lon="-8.8615680">
        <ele>4.9</ele>
        <time>2021-05-18T06:34:18Z</time>
      </trkpt>
      <trkpt lat="41.7103000" lon="-8.8615690">
        <ele>4.9</ele>
        <time>2021-05-18T06:34:19Z</time>
      </trkpt>
      <trkpt lat="41.7102990" lon="-8.8615670">
        <ele>4.9</ele>
        <time>2021-05-18T06:34:20Z</time>
      </trkpt>
      <trkpt lat="41.7102970" lon="-8.8615650">
        <ele>4.9</ele>
        <time>2021-05-18T06:34:21Z</time>
      </trkpt>
      <trkpt lat="41.7102960" lon="-8.8615630">
        <ele>4.9</ele>
        <time>2021-05-18T06:34:22Z</time>
      </trkpt>
      <trkpt lat="41.7102940" lon="-8.8615610">
        <ele>4.9</ele>
        <time>2021-05-18T06:34:23Z</time>
      </trkpt>
      <trkpt lat="41.7102920" lon="-8.8615600">
        <ele>4.9</ele>
        <time>2021-05-18T06:34:24Z</time>
      </trkpt>
      <trkpt lat="41.7102910" lon="-8.8615580">
        <ele>4.9</ele>
        <time>2021-05-18T06:34:25Z</time>
      </trkpt>
      <trkpt lat="41.7102890" lon="-8.8615560">
        <ele>4.9</ele>
        <time>2021-05-18T06:34:26Z</time>
      </trkpt>
      <trkpt lat="41.7102880" lon="-8.8615540">
        <ele>4.9</ele>
        <time>2021-05-18T06:34:27Z</time>
      </trkpt>
      <trkpt lat="41.7102860" lon="-8.8615520">
        <ele>4.9</ele>
        <time>2021-05-18T06:34:28Z</time>
      </trkpt>
      <trkpt lat="41.7102840" lon="-8.8615500">
        <ele>4.9</ele>
        <time>2021-05-18T06:34:29Z</time>
      </trkpt>
      <trkpt lat="41.7102830" lon="-8.8615480">
        <ele>4.9</ele>
        <time>2021-05-18T06:34:30Z</time>
      </trkpt>
      <trkpt lat="41.7102810" lon="-8.8615460">
        <ele>4.8</ele>
        <time>2021-05-18T06:34:31Z</time>
      </trkpt>
      <trkpt lat="41.7102800" lon="-8.8615440">
        <ele>4.8</ele>
        <time>2021-05-18T06:34:32Z</time>
      </trkpt>
      <trkpt lat="41.7102780" lon="-8.8615420">
        <ele>4.8</ele>
        <time>2021-05-18T06:34:33Z</time>
      </trkpt>
      <trkpt lat="41.7102760" lon="-8.8615410">
        <ele>4.8</ele>
        <time>2021-05-18T06:34:34Z</time>
      </trkpt>
      <trkpt lat="41.7102750" lon="-8.8615390">
        <ele>4.8</ele>
        <time>2021-05-18T06:34:35Z</time>
      </trkpt>
      <trkpt lat="41.7102730" lon="-8.8615370">
        <ele>4.8</ele>
        <time>2021-05-18T06:34:36Z</time>
      </trkpt>
      <trkpt lat="41.7102720" lon="-8.8615350">
        <ele>4.8</ele>
        <time>2021-05-18T06:34:37Z</time>
      </trkpt>
      <trkpt lat="41.7102700" lon="-8.8615330">
        <ele>4.8</ele>
        <time>2021-05-18T06:34:38Z</time>
      </trkpt>
      <trkpt lat="41.7102870" lon="-8.8615370">
        <ele>4.7</ele>
        <time>2021-05-18T06:34:39Z</time>
      </trkpt>
      <trkpt lat="41.7102940" lon="-8.8615330">
        <ele>4.7</ele>
        <time>2021-05-18T06:34:40Z</time>
      </trkpt>
      <trkpt lat="41.7103050" lon="-8.8615350">
        <ele>4.7</ele>
        <time>2021-05-18T06:34:41Z</time>
      </trkpt>
      <trkpt lat="41.7103210" lon="-8.8615330">
        <ele>4.6</ele>
        <time>2021-05-18T06:34:42Z</time>
      </trkpt>
      <trkpt lat="41.7103320" lon="-8.8615310">
        <ele>4.6</ele>
        <time>2021-05-18T06:34:43Z</time>
      </trkpt>
      <trkpt lat="41.7103570" lon="-8.8615300">
        <ele>4.5</ele>
        <time>2021-05-18T06:34:44Z</time>
      </trkpt>
      <trkpt lat="41.7103640" lon="-8.8615270">
        <ele>4.5</ele>
        <time>2021-05-18T06:34:45Z</time>
      </trkpt>
      <trkpt lat="41.7103720" lon="-8.8615240">
        <ele>4.5</ele>
        <time>2021-05-18T06:34:46Z</time>
      </trkpt>
      <trkpt lat="41.7103870" lon="-8.8615170">
        <ele>4.4</ele>
        <time>2021-05-18T06:34:47Z</time>
      </trkpt>
      <trkpt lat="41.7103980" lon="-8.8615130">
        <ele>4.4</ele>
        <time>2021-05-18T06:34:48Z</time>
      </trkpt>
      <trkpt lat="41.7104150" lon="-8.8615110">
        <ele>4.3</ele>
        <time>2021-05-18T06:34:49Z</time>
      </trkpt>
      <trkpt lat="41.7104290" lon="-8.8615080">
        <ele>4.3</ele>
        <time>2021-05-18T06:34:50Z</time>
      </trkpt>
      <trkpt lat="41.7104440" lon="-8.8614990">
        <ele>4.3</ele>
        <time>2021-05-18T06:34:51Z</time>
      </trkpt>
      <trkpt lat="41.7104610" lon="-8.8614980">
        <ele>4.3</ele>
        <time>2021-05-18T06:34:52Z</time>
      </trkpt>
      <trkpt lat="41.7104750" lon="-8.8614890">
        <ele>4.2</ele>
        <time>2021-05-18T06:34:53Z</time>
      </trkpt>
      <trkpt lat="41.7104920" lon="-8.8614910">
        <ele>4.2</ele>
        <time>2021-05-18T06:34:54Z</time>
      </trkpt>
      <trkpt lat="41.7105060" lon="-8.8614860">
        <ele>4.2</ele>
        <time>2021-05-18T06:34:55Z</time>
      </trkpt>
      <trkpt lat="41.7105210" lon="-8.8614800">
        <ele>4.2</ele>
        <time>2021-05-18T06:34:56Z</time>
      </trkpt>
      <trkpt lat="41.7105330" lon="-8.8614740">
        <ele>4.2</ele>
        <time>2021-05-18T06:34:57Z</time>
      </trkpt>
      <trkpt lat="41.7105510" lon="-8.8614710">
        <ele>4.2</ele>
        <time>2021-05-18T06:34:58Z</time>
      </trkpt>
      <trkpt lat="41.7105660" lon="-8.8614690">
        <ele>4.1</ele>
        <time>2021-05-18T06:34:59Z</time>
      </trkpt>
      <trkpt lat="41.7105810" lon="-8.8614620">
        <ele>4.1</ele>
        <time>2021-05-18T06:35:00Z</time>
      </trkpt>
      <trkpt lat="41.7105950" lon="-8.8614590">
        <ele>4.1</ele>
        <time>2021-05-18T06:35:01Z</time>
      </trkpt>
      <trkpt lat="41.7106110" lon="-8.8614640">
        <ele>4.1</ele>
        <time>2021-05-18T06:35:02Z</time>
      </trkpt>
      <trkpt lat="41.7106280" lon="-8.8614650">
        <ele>4.1</ele>
        <time>2021-05-18T06:35:03Z</time>
      </trkpt>
      <trkpt lat="41.7106420" lon="-8.8614700">
        <ele>4.1</ele>
        <time>2021-05-18T06:35:04Z</time>
      </trkpt>
      <trkpt lat="41.7106560" lon="-8.8614630">
        <ele>4.0</ele>
        <time>2021-05-18T06:35:05Z</time>
      </trkpt>
      <trkpt lat="41.7106700" lon="-8.8614650">
        <ele>4.0</ele>
        <time>2021-05-18T06:35:06Z</time>
      </trkpt>
      <trkpt lat="41.7106820" lon="-8.8614600">
        <ele>4.0</ele>
        <time>2021-05-18T06:35:07Z</time>
      </trkpt>
      <trkpt lat="41.7106980" lon="-8.8614600">
        <ele>4.0</ele>
        <time>2021-05-18T06:35:08Z</time>
      </trkpt>
      <trkpt lat="41.7107090" lon="-8.8614660">
        <ele>4.0</ele>
        <time>2021-05-18T06:35:09Z</time>
      </trkpt>
      <trkpt lat="41.7107260" lon="-8.8614690">
        <ele>4.0</ele>
        <time>2021-05-18T06:35:10Z</time>
      </trkpt>
      <trkpt lat="41.7107380" lon="-8.8614750">
        <ele>4.0</ele>
        <time>2021-05-18T06:35:11Z</time>
      </trkpt>
      <trkpt lat="41.7107540" lon="-8.8614810">
        <ele>4.0</ele>
        <time>2021-05-18T06:35:12Z</time>
      </trkpt>
      <trkpt lat="41.7107680" lon="-8.8614800">
        <ele>4.0</ele>
        <time>2021-05-18T06:35:13Z</time>
      </trkpt>
      <trkpt lat="41.7107820" lon="-8.8614880">
        <ele>4.0</ele>
        <time>2021-05-18T06:35:14Z</time>
      </trkpt>
      <trkpt lat="41.7107950" lon="-8.8614930">
        <ele>4.0</ele>
        <time>2021-05-18T06:35:15Z</time>
      </trkpt>
      <trkpt lat="41.7108090" lon="-8.8614950">
        <ele>4.0</ele>
        <time>2021-05-18T06:35:16Z</time>
      </trkpt>
      <trkpt lat="41.7108250" lon="-8.8614940">
        <ele>4.0</ele>
        <time>2021-05-18T06:35:17Z</time>
      </trkpt>
      <trkpt lat="41.7108400" lon="-8.8614890">
        <ele>4.1</ele>
        <time>2021-05-18T06:35:18Z</time>
      </trkpt>
      <trkpt lat="41.7108560" lon="-8.8614940">
        <ele>4.1</ele>
        <time>2021-05-18T06:35:19Z</time>
      </trkpt>
      <trkpt lat="41.7108700" lon="-8.8614950">
        <ele>4.1</ele>
        <time>2021-05-18T06:35:20Z</time>
      </trkpt>
      <trkpt lat="41.7108940" lon="-8.8614970">
        <ele>4.1</ele>
        <time>2021-05-18T06:35:21Z</time>
      </trkpt>
      <trkpt lat="41.7109020" lon="-8.8614990">
        <ele>4.1</ele>
        <time>2021-05-18T06:35:22Z</time>
      </trkpt>
      <trkpt lat="41.7109110" lon="-8.8615000">
        <ele>4.1</ele>
        <time>2021-05-18T06:35:23Z</time>
      </trkpt>
      <trkpt lat="41.7109250" lon="-8.8615030">
        <ele>4.2</ele>
        <time>2021-05-18T06:35:24Z</time>
      </trkpt>
      <trkpt lat="41.7109400" lon="-8.8615020">
        <ele>4.2</ele>
        <time>2021-05-18T06:35:25Z</time>
      </trkpt>
      <trkpt lat="41.7109540" lon="-8.8615000">
        <ele>4.2</ele>
        <time>2021-05-18T06:35:26Z</time>
      </trkpt>
      <trkpt lat="41.7109680" lon="-8.8614990">
        <ele>4.2</ele>
        <time>2021-05-18T06:35:27Z</time>
      </trkpt>
      <trkpt lat="41.7109830" lon="-8.8614950">
        <ele>4.2</ele>
        <time>2021-05-18T06:35:28Z</time>
      </trkpt>
      <trkpt lat="41.7109950" lon="-8.8614940">
        <ele>4.2</ele>
        <time>2021-05-18T06:35:29Z</time>
      </trkpt>
      <trkpt lat="41.7110090" lon="-8.8614890">
        <ele>4.2</ele>
        <time>2021-05-18T06:35:30Z</time>
      </trkpt>
      <trkpt lat="41.7110240" lon="-8.8614850">
        <ele>4.2</ele>
        <time>2021-05-18T06:35:31Z</time>
      </trkpt>
      <trkpt lat="41.7110360" lon="-8.8614750">
        <ele>4.2</ele>
        <time>2021-05-18T06:35:32Z</time>
      </trkpt>
      <trkpt lat="41.7110490" lon="-8.8614680">
        <ele>4.2</ele>
        <time>2021-05-18T06:35:33Z</time>
      </trkpt>
      <trkpt lat="41.7110630" lon="-8.8614600">
        <ele>4.2</ele>
        <time>2021-05-18T06:35:34Z</time>
      </trkpt>
      <trkpt lat="41.7110760" lon="-8.8614620">
        <ele>4.2</ele>
        <time>2021-05-18T06:35:35Z</time>
      </trkpt>
      <trkpt lat="41.7110980" lon="-8.8614540">
        <ele>4.2</ele>
        <time>2021-05-18T06:35:36Z</time>
      </trkpt>
      <trkpt lat="41.7111060" lon="-8.8614520">
        <ele>4.2</ele>
        <time>2021-05-18T06:35:37Z</time>
      </trkpt>
      <trkpt lat="41.7111150" lon="-8.8614510">
        <ele>4.2</ele>
        <time>2021-05-18T06:35:38Z</time>
      </trkpt>
      <trkpt lat="41.7111290" lon="-8.8614430">
        <ele>4.3</ele>
        <time>2021-05-18T06:35:39Z</time>
      </trkpt>
      <trkpt lat="41.7111430" lon="-8.8614410">
        <ele>4.3</ele>
        <time>2021-05-18T06:35:40Z</time>
      </trkpt>
      <trkpt lat="41.7111570" lon="-8.8614390">
        <ele>4.3</ele>
        <time>2021-05-18T06:35:41Z</time>
      </trkpt>
      <trkpt lat="41.7111730" lon="-8.8614360">
        <ele>4.3</ele>
        <time>2021-05-18T06:35:42Z</time>
      </trkpt>
      <trkpt lat="41.7111850" lon="-8.8614270">
        <ele>4.3</ele>
        <time>2021-05-18T06:35:43Z</time>
      </trkpt>
      <trkpt lat="41.7112010" lon="-8.8614320">
        <ele>4.3</ele>
        <time>2021-05-18T06:35:44Z</time>
      </trkpt>
      <trkpt lat="41.7112130" lon="-8.8614240">
        <ele>4.3</ele>
        <time>2021-05-18T06:35:46Z</time>
      </trkpt>
      <trkpt lat="41.7112270" lon="-8.8614170">
        <ele>4.3</ele>
        <time>2021-05-18T06:35:47Z</time>
      </trkpt>
      <trkpt lat="41.7112400" lon="-8.8614160">
        <ele>4.3</ele>
        <time>2021-05-18T06:35:48Z</time>
      </trkpt>
      <trkpt lat="41.7112560" lon="-8.8614140">
        <ele>4.3</ele>
        <time>2021-05-18T06:35:49Z</time>
      </trkpt>
      <trkpt lat="41.7112760" lon="-8.8614090">
        <ele>4.3</ele>
        <time>2021-05-18T06:35:50Z</time>
      </trkpt>
      <trkpt lat="41.7112850" lon="-8.8614060">
        <ele>4.3</ele>
        <time>2021-05-18T06:35:51Z</time>
      </trkpt>
      <trkpt lat="41.7112930" lon="-8.8614020">
        <ele>4.3</ele>
        <time>2021-05-18T06:35:52Z</time>
      </trkpt>
      <trkpt lat="41.7113070" lon="-8.8614040">
        <ele>4.3</ele>
        <time>2021-05-18T06:35:53Z</time>
      </trkpt>
      <trkpt lat="41.7113210" lon="-8.8614040">
        <ele>4.3</ele>
        <time>2021-05-18T06:35:54Z</time>
      </trkpt>
      <trkpt lat="41.7113420" lon="-8.8614030">
        <ele>4.3</ele>
        <time>2021-05-18T06:35:55Z</time>
      </trkpt>
      <trkpt lat="41.7113520" lon="-8.8614030">
        <ele>4.3</ele>
        <time>2021-05-18T06:35:56Z</time>
      </trkpt>
      <trkpt lat="41.7113610" lon="-8.8614030">
        <ele>4.3</ele>
        <time>2021-05-18T06:35:57Z</time>
      </trkpt>
      <trkpt lat="41.7113830" lon="-8.8614090">
        <ele>4.3</ele>
        <time>2021-05-18T06:35:58Z</time>
      </trkpt>
      <trkpt lat="41.7113920" lon="-8.8614120">
        <ele>4.3</ele>
        <time>2021-05-18T06:35:59Z</time>
      </trkpt>
      <trkpt lat="41.7114000" lon="-8.8614150">
        <ele>4.3</ele>
        <time>2021-05-18T06:36:00Z</time>
      </trkpt>
      <trkpt lat="41.7114220" lon="-8.8614180">
        <ele>4.4</ele>
        <time>2021-05-18T06:36:01Z</time>
      </trkpt>
      <trkpt lat="41.7114310" lon="-8.8614220">
        <ele>4.4</ele>
        <time>2021-05-18T06:36:02Z</time>
      </trkpt>
      <trkpt lat="41.7114390" lon="-8.8614260">
        <ele>4.4</ele>
        <time>2021-05-18T06:36:03Z</time>
      </trkpt>
      <trkpt lat="41.7114510" lon="-8.8614270">
        <ele>4.4</ele>
        <time>2021-05-18T06:36:04Z</time>
      </trkpt>
      <trkpt lat="41.7114650" lon="-8.8614370">
        <ele>4.4</ele>
        <time>2021-05-18T06:36:05Z</time>
      </trkpt>
      <trkpt lat="41.7114770" lon="-8.8614450">
        <ele>4.4</ele>
        <time>2021-05-18T06:36:06Z</time>
      </trkpt>
      <trkpt lat="41.7114920" lon="-8.8614460">
        <ele>4.4</ele>
        <time>2021-05-18T06:36:07Z</time>
      </trkpt>
      <trkpt lat="41.7115130" lon="-8.8614520">
        <ele>4.4</ele>
        <time>2021-05-18T06:36:08Z</time>
      </trkpt>
      <trkpt lat="41.7115220" lon="-8.8614560">
        <ele>4.4</ele>
        <time>2021-05-18T06:36:09Z</time>
      </trkpt>
      <trkpt lat="41.7115310" lon="-8.8614590">
        <ele>4.4</ele>
        <time>2021-05-18T06:36:10Z</time>
      </trkpt>
      <trkpt lat="41.7115530" lon="-8.8614670">
        <ele>4.4</ele>
        <time>2021-05-18T06:36:11Z</time>
      </trkpt>
      <trkpt lat="41.7115620" lon="-8.8614740">
        <ele>4.4</ele>
        <time>2021-05-18T06:36:12Z</time>
      </trkpt>
      <trkpt lat="41.7115700" lon="-8.8614800">
        <ele>4.4</ele>
        <time>2021-05-18T06:36:13Z</time>
      </trkpt>
      <trkpt lat="41.7115920" lon="-8.8614890">
        <ele>4.4</ele>
        <time>2021-05-18T06:36:14Z</time>
      </trkpt>
      <trkpt lat="41.7116000" lon="-8.8614920">
        <ele>4.4</ele>
        <time>2021-05-18T06:36:15Z</time>
      </trkpt>
      <trkpt lat="41.7116090" lon="-8.8614950">
        <ele>4.4</ele>
        <time>2021-05-18T06:36:16Z</time>
      </trkpt>
      <trkpt lat="41.7116290" lon="-8.8615040">
        <ele>4.5</ele>
        <time>2021-05-18T06:36:17Z</time>
      </trkpt>
      <trkpt lat="41.7116380" lon="-8.8615080">
        <ele>4.5</ele>
        <time>2021-05-18T06:36:18Z</time>
      </trkpt>
      <trkpt lat="41.7116470" lon="-8.8615110">
        <ele>4.5</ele>
        <time>2021-05-18T06:36:19Z</time>
      </trkpt>
      <trkpt lat="41.7116610" lon="-8.8615120">
        <ele>4.5</ele>
        <time>2021-05-18T06:36:20Z</time>
      </trkpt>
      <trkpt lat="41.7116750" lon="-8.8615150">
        <ele>4.5</ele>
        <time>2021-05-18T06:36:21Z</time>
      </trkpt>
      <trkpt lat="41.7116880" lon="-8.8615250">
        <ele>4.5</ele>
        <time>2021-05-18T06:36:22Z</time>
      </trkpt>
      <trkpt lat="41.7117010" lon="-8.8615320">
        <ele>4.5</ele>
        <time>2021-05-18T06:36:23Z</time>
      </trkpt>
      <trkpt lat="41.7117170" lon="-8.8615350">
        <ele>4.5</ele>
        <time>2021-05-18T06:36:24Z</time>
      </trkpt>
      <trkpt lat="41.7117280" lon="-8.8615440">
        <ele>4.5</ele>
        <time>2021-05-18T06:36:25Z</time>
      </trkpt>
      <trkpt lat="41.7117420" lon="-8.8615470">
        <ele>4.5</ele>
        <time>2021-05-18T06:36:26Z</time>
      </trkpt>
      <trkpt lat="41.7117560" lon="-8.8615570">
        <ele>4.5</ele>
        <time>2021-05-18T06:36:27Z</time>
      </trkpt>
      <trkpt lat="41.7117680" lon="-8.8615610">
        <ele>4.5</ele>
        <time>2021-05-18T06:36:28Z</time>
      </trkpt>
      <trkpt lat="41.7117820" lon="-8.8615670">
        <ele>4.5</ele>
        <time>2021-05-18T06:36:29Z</time>
      </trkpt>
      <trkpt lat="41.7117950" lon="-8.8615710">
        <ele>4.5</ele>
        <time>2021-05-18T06:36:30Z</time>
      </trkpt>
      <trkpt lat="41.7118070" lon="-8.8615830">
        <ele>4.5</ele>
        <time>2021-05-18T06:36:31Z</time>
      </trkpt>
      <trkpt lat="41.7118200" lon="-8.8615880">
        <ele>4.5</ele>
        <time>2021-05-18T06:36:32Z</time>
      </trkpt>
      <trkpt lat="41.7118340" lon="-8.8615950">
        <ele>4.5</ele>
        <time>2021-05-18T06:36:33Z</time>
      </trkpt>
      <trkpt lat="41.7118470" lon="-8.8616070">
        <ele>4.5</ele>
        <time>2021-05-18T06:36:34Z</time>
      </trkpt>
      <trkpt lat="41.7118610" lon="-8.8616080">
        <ele>4.5</ele>
        <time>2021-05-18T06:36:35Z</time>
      </trkpt>
      <trkpt lat="41.7118810" lon="-8.8616210">
        <ele>4.5</ele>
        <time>2021-05-18T06:36:36Z</time>
      </trkpt>
      <trkpt lat="41.7118880" lon="-8.8616270">
        <ele>4.5</ele>
        <time>2021-05-18T06:36:37Z</time>
      </trkpt>
      <trkpt lat="41.7118950" lon="-8.8616340">
        <ele>4.5</ele>
        <time>2021-05-18T06:36:38Z</time>
      </trkpt>
      <trkpt lat="41.7119100" lon="-8.8616400">
        <ele>4.5</ele>
        <time>2021-05-18T06:36:39Z</time>
      </trkpt>
      <trkpt lat="41.7119340" lon="-8.8616550">
        <ele>4.5</ele>
        <time>2021-05-18T06:36:40Z</time>
      </trkpt>
      <trkpt lat="41.7119480" lon="-8.8616580">
        <ele>4.5</ele>
        <time>2021-05-18T06:36:41Z</time>
      </trkpt>
      <trkpt lat="41.7119590" lon="-8.8616680">
        <ele>4.5</ele>
        <time>2021-05-18T06:36:42Z</time>
      </trkpt>
      <trkpt lat="41.7119710" lon="-8.8616750">
        <ele>4.5</ele>
        <time>2021-05-18T06:36:43Z</time>
      </trkpt>
      <trkpt lat="41.7119850" lon="-8.8616840">
        <ele>4.5</ele>
        <time>2021-05-18T06:36:44Z</time>
      </trkpt>
      <trkpt lat="41.7119950" lon="-8.8616960">
        <ele>4.5</ele>
        <time>2021-05-18T06:36:45Z</time>
      </trkpt>
      <trkpt lat="41.7120120" lon="-8.8617100">
        <ele>4.6</ele>
        <time>2021-05-18T06:36:46Z</time>
      </trkpt>
      <trkpt lat="41.7120190" lon="-8.8617190">
        <ele>4.6</ele>
        <time>2021-05-18T06:36:47Z</time>
      </trkpt>
      <trkpt lat="41.7120250" lon="-8.8617280">
        <ele>4.6</ele>
        <time>2021-05-18T06:36:48Z</time>
      </trkpt>
      <trkpt lat="41.7120440" lon="-8.8617410">
        <ele>4.6</ele>
        <time>2021-05-18T06:36:49Z</time>
      </trkpt>
      <trkpt lat="41.7120520" lon="-8.8617480">
        <ele>4.6</ele>
        <time>2021-05-18T06:36:50Z</time>
      </trkpt>
      <trkpt lat="41.7120590" lon="-8.8617550">
        <ele>4.6</ele>
        <time>2021-05-18T06:36:51Z</time>
      </trkpt>
      <trkpt lat="41.7120760" lon="-8.8617750">
        <ele>4.6</ele>
        <time>2021-05-18T06:36:52Z</time>
      </trkpt>
      <trkpt lat="41.7120840" lon="-8.8617810">
        <ele>4.6</ele>
        <time>2021-05-18T06:36:53Z</time>
      </trkpt>
      <trkpt lat="41.7120920" lon="-8.8617880">
        <ele>4.6</ele>
        <time>2021-05-18T06:36:54Z</time>
      </trkpt>
      <trkpt lat="41.7121030" lon="-8.8617980">
        <ele>4.6</ele>
        <time>2021-05-18T06:36:55Z</time>
      </trkpt>
      <trkpt lat="41.7121160" lon="-8.8618070">
        <ele>4.6</ele>
        <time>2021-05-18T06:36:56Z</time>
      </trkpt>
      <trkpt lat="41.7121280" lon="-8.8618160">
        <ele>4.6</ele>
        <time>2021-05-18T06:36:57Z</time>
      </trkpt>
      <trkpt lat="41.7121370" lon="-8.8618300">
        <ele>4.7</ele>
        <time>2021-05-18T06:36:58Z</time>
      </trkpt>
      <trkpt lat="41.7121490" lon="-8.8618420">
        <ele>4.7</ele>
        <time>2021-05-18T06:36:59Z</time>
      </trkpt>
      <trkpt lat="41.7121600" lon="-8.8618540">
        <ele>4.7</ele>
        <time>2021-05-18T06:37:00Z</time>
      </trkpt>
      <trkpt lat="41.7121740" lon="-8.8618760">
        <ele>4.7</ele>
        <time>2021-05-18T06:37:01Z</time>
      </trkpt>
      <trkpt lat="41.7121810" lon="-8.8618830">
        <ele>4.7</ele>
        <time>2021-05-18T06:37:02Z</time>
      </trkpt>
      <trkpt lat="41.7121870" lon="-8.8618910">
        <ele>4.7</ele>
        <time>2021-05-18T06:37:03Z</time>
      </trkpt>
      <trkpt lat="41.7121990" lon="-8.8619020">
        <ele>4.7</ele>
        <time>2021-05-18T06:37:04Z</time>
      </trkpt>
      <trkpt lat="41.7122090" lon="-8.8619130">
        <ele>4.7</ele>
        <time>2021-05-18T06:37:05Z</time>
      </trkpt>
      <trkpt lat="41.7122200" lon="-8.8619250">
        <ele>4.7</ele>
        <time>2021-05-18T06:37:06Z</time>
      </trkpt>
      <trkpt lat="41.7122290" lon="-8.8619400">
        <ele>4.7</ele>
        <time>2021-05-18T06:37:07Z</time>
      </trkpt>
      <trkpt lat="41.7122440" lon="-8.8619600">
        <ele>4.7</ele>
        <time>2021-05-18T06:37:08Z</time>
      </trkpt>
      <trkpt lat="41.7122490" lon="-8.8619690">
        <ele>4.7</ele>
        <time>2021-05-18T06:37:09Z</time>
      </trkpt>
      <trkpt lat="41.7122540" lon="-8.8619780">
        <ele>4.7</ele>
        <time>2021-05-18T06:37:10Z</time>
      </trkpt>
      <trkpt lat="41.7122640" lon="-8.8620020">
        <ele>4.7</ele>
        <time>2021-05-18T06:37:11Z</time>
      </trkpt>
      <trkpt lat="41.7122680" lon="-8.8620120">
        <ele>4.7</ele>
        <time>2021-05-18T06:37:12Z</time>
      </trkpt>
      <trkpt lat="41.7122720" lon="-8.8620220">
        <ele>4.7</ele>
        <time>2021-05-18T06:37:13Z</time>
      </trkpt>
      <trkpt lat="41.7122850" lon="-8.8620460">
        <ele>4.7</ele>
        <time>2021-05-18T06:37:14Z</time>
      </trkpt>
      <trkpt lat="41.7122880" lon="-8.8620570">
        <ele>4.7</ele>
        <time>2021-05-18T06:37:15Z</time>
      </trkpt>
      <trkpt lat="41.7122920" lon="-8.8620680">
        <ele>4.7</ele>
        <time>2021-05-18T06:37:16Z</time>
      </trkpt>
      <trkpt lat="41.7123030" lon="-8.8620930">
        <ele>4.7</ele>
        <time>2021-05-18T06:37:17Z</time>
      </trkpt>
      <trkpt lat="41.7123080" lon="-8.8621030">
        <ele>4.7</ele>
        <time>2021-05-18T06:37:18Z</time>
      </trkpt>
      <trkpt lat="41.7123120" lon="-8.8621120">
        <ele>4.7</ele>
        <time>2021-05-18T06:37:19Z</time>
      </trkpt>
      <trkpt lat="41.7123200" lon="-8.8621260">
        <ele>4.7</ele>
        <time>2021-05-18T06:37:20Z</time>
      </trkpt>
      <trkpt lat="41.7123290" lon="-8.8621420">
        <ele>4.7</ele>
        <time>2021-05-18T06:37:21Z</time>
      </trkpt>
      <trkpt lat="41.7123330" lon="-8.8621590">
        <ele>4.7</ele>
        <time>2021-05-18T06:37:22Z</time>
      </trkpt>
      <trkpt lat="41.7123400" lon="-8.8621780">
        <ele>4.7</ele>
        <time>2021-05-18T06:37:23Z</time>
      </trkpt>
      <trkpt lat="41.7123500" lon="-8.8621930">
        <ele>4.7</ele>
        <time>2021-05-18T06:37:24Z</time>
      </trkpt>
      <trkpt lat="41.7123570" lon="-8.8622080">
        <ele>4.7</ele>
        <time>2021-05-18T06:37:25Z</time>
      </trkpt>
      <trkpt lat="41.7123690" lon="-8.8622220">
        <ele>4.6</ele>
        <time>2021-05-18T06:37:26Z</time>
      </trkpt>
      <trkpt lat="41.7123760" lon="-8.8622390">
        <ele>4.6</ele>
        <time>2021-05-18T06:37:27Z</time>
      </trkpt>
      <trkpt lat="41.7123800" lon="-8.8622610">
        <ele>4.6</ele>
        <time>2021-05-18T06:37:28Z</time>
      </trkpt>
      <trkpt lat="41.7123870" lon="-8.8622740">
        <ele>4.6</ele>
        <time>2021-05-18T06:37:29Z</time>
      </trkpt>
      <trkpt lat="41.7123970" lon="-8.8622880">
        <ele>4.6</ele>
        <time>2021-05-18T06:37:30Z</time>
      </trkpt>
      <trkpt lat="41.7124020" lon="-8.8623070">
        <ele>4.6</ele>
        <time>2021-05-18T06:37:31Z</time>
      </trkpt>
      <trkpt lat="41.7124130" lon="-8.8623300">
        <ele>4.6</ele>
        <time>2021-05-18T06:37:32Z</time>
      </trkpt>
      <trkpt lat="41.7124160" lon="-8.8623400">
        <ele>4.6</ele>
        <time>2021-05-18T06:37:33Z</time>
      </trkpt>
      <trkpt lat="41.7124190" lon="-8.8623510">
        <ele>4.6</ele>
        <time>2021-05-18T06:37:34Z</time>
      </trkpt>
      <trkpt lat="41.7124280" lon="-8.8623700">
        <ele>4.6</ele>
        <time>2021-05-18T06:37:35Z</time>
      </trkpt>
      <trkpt lat="41.7124350" lon="-8.8623860">
        <ele>4.5</ele>
        <time>2021-05-18T06:37:36Z</time>
      </trkpt>
      <trkpt lat="41.7124420" lon="-8.8624030">
        <ele>4.5</ele>
        <time>2021-05-18T06:37:37Z</time>
      </trkpt>
      <trkpt lat="41.7124470" lon="-8.8624210">
        <ele>4.5</ele>
        <time>2021-05-18T06:37:38Z</time>
      </trkpt>
      <trkpt lat="41.7124510" lon="-8.8624410">
        <ele>4.5</ele>
        <time>2021-05-18T06:37:39Z</time>
      </trkpt>
      <trkpt lat="41.7124550" lon="-8.8624610">
        <ele>4.5</ele>
        <time>2021-05-18T06:37:40Z</time>
      </trkpt>
      <trkpt lat="41.7124590" lon="-8.8624880">
        <ele>4.5</ele>
        <time>2021-05-18T06:37:41Z</time>
      </trkpt>
      <trkpt lat="41.7124580" lon="-8.8625010">
        <ele>4.5</ele>
        <time>2021-05-18T06:37:42Z</time>
      </trkpt>
      <trkpt lat="41.7124560" lon="-8.8625130">
        <ele>4.5</ele>
        <time>2021-05-18T06:37:43Z</time>
      </trkpt>
      <trkpt lat="41.7124510" lon="-8.8625320">
        <ele>4.5</ele>
        <time>2021-05-18T06:37:45Z</time>
      </trkpt>
      <trkpt lat="41.7124420" lon="-8.8625480">
        <ele>4.5</ele>
        <time>2021-05-18T06:37:46Z</time>
      </trkpt>
      <trkpt lat="41.7124400" lon="-8.8625750">
        <ele>4.5</ele>
        <time>2021-05-18T06:37:47Z</time>
      </trkpt>
      <trkpt lat="41.7124360" lon="-8.8625870">
        <ele>4.5</ele>
        <time>2021-05-18T06:37:48Z</time>
      </trkpt>
      <trkpt lat="41.7124320" lon="-8.8625990">
        <ele>4.4</ele>
        <time>2021-05-18T06:37:49Z</time>
      </trkpt>
      <trkpt lat="41.7124280" lon="-8.8626200">
        <ele>4.4</ele>
        <time>2021-05-18T06:37:50Z</time>
      </trkpt>
      <trkpt lat="41.7124240" lon="-8.8626360">
        <ele>4.4</ele>
        <time>2021-05-18T06:37:51Z</time>
      </trkpt>
      <trkpt lat="41.7124210" lon="-8.8626560">
        <ele>4.4</ele>
        <time>2021-05-18T06:37:52Z</time>
      </trkpt>
      <trkpt lat="41.7124140" lon="-8.8626720">
        <ele>4.4</ele>
        <time>2021-05-18T06:37:53Z</time>
      </trkpt>
      <trkpt lat="41.7124130" lon="-8.8626900">
        <ele>4.4</ele>
        <time>2021-05-18T06:37:54Z</time>
      </trkpt>
      <trkpt lat="41.7124080" lon="-8.8627070">
        <ele>4.4</ele>
        <time>2021-05-18T06:37:55Z</time>
      </trkpt>
      <trkpt lat="41.7124020" lon="-8.8627250">
        <ele>4.4</ele>
        <time>2021-05-18T06:37:56Z</time>
      </trkpt>
      <trkpt lat="41.7123980" lon="-8.8627450">
        <ele>4.4</ele>
        <time>2021-05-18T06:37:57Z</time>
      </trkpt>
      <trkpt lat="41.7123930" lon="-8.8627610">
        <ele>4.4</ele>
        <time>2021-05-18T06:37:58Z</time>
      </trkpt>
      <trkpt lat="41.7123920" lon="-8.8627820">
        <ele>4.4</ele>
        <time>2021-05-18T06:37:59Z</time>
      </trkpt>
      <trkpt lat="41.7123870" lon="-8.8627990">
        <ele>4.4</ele>
        <time>2021-05-18T06:38:00Z</time>
      </trkpt>
      <trkpt lat="41.7123810" lon="-8.8628170">
        <ele>4.5</ele>
        <time>2021-05-18T06:38:01Z</time>
      </trkpt>
      <trkpt lat="41.7123780" lon="-8.8628490">
        <ele>4.5</ele>
        <time>2021-05-18T06:38:02Z</time>
      </trkpt>
      <trkpt lat="41.7123770" lon="-8.8628620">
        <ele>4.5</ele>
        <time>2021-05-18T06:38:03Z</time>
      </trkpt>
      <trkpt lat="41.7123750" lon="-8.8628750">
        <ele>4.5</ele>
        <time>2021-05-18T06:38:04Z</time>
      </trkpt>
      <trkpt lat="41.7123750" lon="-8.8628920">
        <ele>4.5</ele>
        <time>2021-05-18T06:38:05Z</time>
      </trkpt>
      <trkpt lat="41.7123780" lon="-8.8629120">
        <ele>4.5</ele>
        <time>2021-05-18T06:38:06Z</time>
      </trkpt>
      <trkpt lat="41.7123810" lon="-8.8629300">
        <ele>4.5</ele>
        <time>2021-05-18T06:38:07Z</time>
      </trkpt>
      <trkpt lat="41.7123810" lon="-8.8629480">
        <ele>4.5</ele>
        <time>2021-05-18T06:38:08Z</time>
      </trkpt>
      <trkpt lat="41.7123840" lon="-8.8629680">
        <ele>4.5</ele>
        <time>2021-05-18T06:38:09Z</time>
      </trkpt>
      <trkpt lat="41.7123860" lon="-8.8629860">
        <ele>4.5</ele>
        <time>2021-05-18T06:38:10Z</time>
      </trkpt>
      <trkpt lat="41.7123930" lon="-8.8630140">
        <ele>4.5</ele>
        <time>2021-05-18T06:38:11Z</time>
      </trkpt>
      <trkpt lat="41.7123960" lon="-8.8630260">
        <ele>4.5</ele>
        <time>2021-05-18T06:38:12Z</time>
      </trkpt>
      <trkpt lat="41.7123980" lon="-8.8630370">
        <ele>4.5</ele>
        <time>2021-05-18T06:38:13Z</time>
      </trkpt>
      <trkpt lat="41.7124080" lon="-8.8630540">
        <ele>4.6</ele>
        <time>2021-05-18T06:38:14Z</time>
      </trkpt>
      <trkpt lat="41.7124160" lon="-8.8630700">
        <ele>4.6</ele>
        <time>2021-05-18T06:38:15Z</time>
      </trkpt>
      <trkpt lat="41.7124240" lon="-8.8630860">
        <ele>4.6</ele>
        <time>2021-05-18T06:38:16Z</time>
      </trkpt>
      <trkpt lat="41.7124360" lon="-8.8630980">
        <ele>4.6</ele>
        <time>2021-05-18T06:38:17Z</time>
      </trkpt>
      <trkpt lat="41.7124460" lon="-8.8631250">
        <ele>4.6</ele>
        <time>2021-05-18T06:38:18Z</time>
      </trkpt>
      <trkpt lat="41.7124500" lon="-8.8631360">
        <ele>4.6</ele>
        <time>2021-05-18T06:38:19Z</time>
      </trkpt>
      <trkpt lat="41.7124550" lon="-8.8631470">
        <ele>4.6</ele>
        <time>2021-05-18T06:38:20Z</time>
      </trkpt>
      <trkpt lat="41.7124630" lon="-8.8631610">
        <ele>4.6</ele>
        <time>2021-05-18T06:38:21Z</time>
      </trkpt>
      <trkpt lat="41.7124800" lon="-8.8631740">
        <ele>4.6</ele>
        <time>2021-05-18T06:38:22Z</time>
      </trkpt>
      <trkpt lat="41.7124910" lon="-8.8631860">
        <ele>4.6</ele>
        <time>2021-05-18T06:38:23Z</time>
      </trkpt>
      <trkpt lat="41.7125000" lon="-8.8632020">
        <ele>4.6</ele>
        <time>2021-05-18T06:38:24Z</time>
      </trkpt>
      <trkpt lat="41.7125190" lon="-8.8632190">
        <ele>4.6</ele>
        <time>2021-05-18T06:38:25Z</time>
      </trkpt>
      <trkpt lat="41.7125270" lon="-8.8632250">
        <ele>4.6</ele>
        <time>2021-05-18T06:38:26Z</time>
      </trkpt>
      <trkpt lat="41.7125350" lon="-8.8632320">
        <ele>4.6</ele>
        <time>2021-05-18T06:38:27Z</time>
      </trkpt>
      <trkpt lat="41.7125490" lon="-8.8632430">
        <ele>4.6</ele>
        <time>2021-05-18T06:38:28Z</time>
      </trkpt>
      <trkpt lat="41.7125630" lon="-8.8632500">
        <ele>4.6</ele>
        <time>2021-05-18T06:38:29Z</time>
      </trkpt>
      <trkpt lat="41.7125800" lon="-8.8632660">
        <ele>4.6</ele>
        <time>2021-05-18T06:38:30Z</time>
      </trkpt>
      <trkpt lat="41.7125900" lon="-8.8632710">
        <ele>4.6</ele>
        <time>2021-05-18T06:38:31Z</time>
      </trkpt>
      <trkpt lat="41.7125990" lon="-8.8632770">
        <ele>4.6</ele>
        <time>2021-05-18T06:38:32Z</time>
      </trkpt>
      <trkpt lat="41.7126150" lon="-8.8632790">
        <ele>4.6</ele>
        <time>2021-05-18T06:38:33Z</time>
      </trkpt>
      <trkpt lat="41.7126270" lon="-8.8632910">
        <ele>4.6</ele>
        <time>2021-05-18T06:38:34Z</time>
      </trkpt>
      <trkpt lat="41.7126460" lon="-8.8633060">
        <ele>4.6</ele>
        <time>2021-05-18T06:38:35Z</time>
      </trkpt>
      <trkpt lat="41.7126530" lon="-8.8633130">
        <ele>4.6</ele>
        <time>2021-05-18T06:38:36Z</time>
      </trkpt>
      <trkpt lat="41.7126610" lon="-8.8633200">
        <ele>4.6</ele>
        <time>2021-05-18T06:38:37Z</time>
      </trkpt>
      <trkpt lat="41.7126760" lon="-8.8633290">
        <ele>4.6</ele>
        <time>2021-05-18T06:38:38Z</time>
      </trkpt>
      <trkpt lat="41.7126880" lon="-8.8633370">
        <ele>4.5</ele>
        <time>2021-05-18T06:38:39Z</time>
      </trkpt>
      <trkpt lat="41.7127020" lon="-8.8633420">
        <ele>4.5</ele>
        <time>2021-05-18T06:38:40Z</time>
      </trkpt>
      <trkpt lat="41.7127140" lon="-8.8633510">
        <ele>4.5</ele>
        <time>2021-05-18T06:38:41Z</time>
      </trkpt>
      <trkpt lat="41.7127330" lon="-8.8633680">
        <ele>4.5</ele>
        <time>2021-05-18T06:38:42Z</time>
      </trkpt>
      <trkpt lat="41.7127400" lon="-8.8633740">
        <ele>4.5</ele>
        <time>2021-05-18T06:38:43Z</time>
      </trkpt>
      <trkpt lat="41.7127470" lon="-8.8633790">
        <ele>4.5</ele>
        <time>2021-05-18T06:38:44Z</time>
      </trkpt>
      <trkpt lat="41.7127630" lon="-8.8633860">
        <ele>4.5</ele>
        <time>2021-05-18T06:38:45Z</time>
      </trkpt>
      <trkpt lat="41.7127880" lon="-8.8634010">
        <ele>4.5</ele>
        <time>2021-05-18T06:38:46Z</time>
      </trkpt>
      <trkpt lat="41.7128000" lon="-8.8634100">
        <ele>4.5</ele>
        <time>2021-05-18T06:38:47Z</time>
      </trkpt>
      <trkpt lat="41.7128140" lon="-8.8634180">
        <ele>4.5</ele>
        <time>2021-05-18T06:38:48Z</time>
      </trkpt>
      <trkpt lat="41.7128270" lon="-8.8634230">
        <ele>4.5</ele>
        <time>2021-05-18T06:38:49Z</time>
      </trkpt>
      <trkpt lat="41.7128400" lon="-8.8634330">
        <ele>4.4</ele>
        <time>2021-05-18T06:38:50Z</time>
      </trkpt>
      <trkpt lat="41.7128540" lon="-8.8634410">
        <ele>4.4</ele>
        <time>2021-05-18T06:38:51Z</time>
      </trkpt>
      <trkpt lat="41.7128670" lon="-8.8634470">
        <ele>4.4</ele>
        <time>2021-05-18T06:38:52Z</time>
      </trkpt>
      <trkpt lat="41.7128820" lon="-8.8634520">
        <ele>4.4</ele>
        <time>2021-05-18T06:38:53Z</time>
      </trkpt>
      <trkpt lat="41.7128930" lon="-8.8634600">
        <ele>4.4</ele>
        <time>2021-05-18T06:38:54Z</time>
      </trkpt>
      <trkpt lat="41.7129070" lon="-8.8634690">
        <ele>4.4</ele>
        <time>2021-05-18T06:38:55Z</time>
      </trkpt>
      <trkpt lat="41.7129180" lon="-8.8634770">
        <ele>4.4</ele>
        <time>2021-05-18T06:38:56Z</time>
      </trkpt>
      <trkpt lat="41.7129330" lon="-8.8634830">
        <ele>4.4</ele>
        <time>2021-05-18T06:38:57Z</time>
      </trkpt>
      <trkpt lat="41.7129440" lon="-8.8634900">
        <ele>4.4</ele>
        <time>2021-05-18T06:38:58Z</time>
      </trkpt>
      <trkpt lat="41.7129580" lon="-8.8634980">
        <ele>4.4</ele>
        <time>2021-05-18T06:38:59Z</time>
      </trkpt>
      <trkpt lat="41.7129800" lon="-8.8635070">
        <ele>4.3</ele>
        <time>2021-05-18T06:39:00Z</time>
      </trkpt>
      <trkpt lat="41.7129880" lon="-8.8635120">
        <ele>4.3</ele>
        <time>2021-05-18T06:39:01Z</time>
      </trkpt>
      <trkpt lat="41.7129960" lon="-8.8635160">
        <ele>4.3</ele>
        <time>2021-05-18T06:39:02Z</time>
      </trkpt>
      <trkpt lat="41.7130120" lon="-8.8635320">
        <ele>4.3</ele>
        <time>2021-05-18T06:39:03Z</time>
      </trkpt>
      <trkpt lat="41.7130200" lon="-8.8635370">
        <ele>4.3</ele>
        <time>2021-05-18T06:39:04Z</time>
      </trkpt>
      <trkpt lat="41.7130270" lon="-8.8635410">
        <ele>4.3</ele>
        <time>2021-05-18T06:39:05Z</time>
      </trkpt>
      <trkpt lat="41.7130490" lon="-8.8635490">
        <ele>4.3</ele>
        <time>2021-05-18T06:39:06Z</time>
      </trkpt>
      <trkpt lat="41.7130580" lon="-8.8635520">
        <ele>4.3</ele>
        <time>2021-05-18T06:39:07Z</time>
      </trkpt>
      <trkpt lat="41.7130660" lon="-8.8635550">
        <ele>4.3</ele>
        <time>2021-05-18T06:39:08Z</time>
      </trkpt>
      <trkpt lat="41.7130810" lon="-8.8635590">
        <ele>4.3</ele>
        <time>2021-05-18T06:39:09Z</time>
      </trkpt>
      <trkpt lat="41.7130930" lon="-8.8635620">
        <ele>4.3</ele>
        <time>2021-05-18T06:39:10Z</time>
      </trkpt>
      <trkpt lat="41.7131070" lon="-8.8635690">
        <ele>4.2</ele>
        <time>2021-05-18T06:39:11Z</time>
      </trkpt>
      <trkpt lat="41.7131190" lon="-8.8635740">
        <ele>4.2</ele>
        <time>2021-05-18T06:39:12Z</time>
      </trkpt>
      <trkpt lat="41.7131330" lon="-8.8635780">
        <ele>4.2</ele>
        <time>2021-05-18T06:39:13Z</time>
      </trkpt>
      <trkpt lat="41.7131480" lon="-8.8635800">
        <ele>4.2</ele>
        <time>2021-05-18T06:39:14Z</time>
      </trkpt>
      <trkpt lat="41.7131630" lon="-8.8635870">
        <ele>4.2</ele>
        <time>2021-05-18T06:39:15Z</time>
      </trkpt>
      <trkpt lat="41.7131740" lon="-8.8635930">
        <ele>4.2</ele>
        <time>2021-05-18T06:39:16Z</time>
      </trkpt>
      <trkpt lat="41.7131920" lon="-8.8636000">
        <ele>4.2</ele>
        <time>2021-05-18T06:39:17Z</time>
      </trkpt>
      <trkpt lat="41.7132040" lon="-8.8636070">
        <ele>4.2</ele>
        <time>2021-05-18T06:39:18Z</time>
      </trkpt>
      <trkpt lat="41.7132190" lon="-8.8636130">
        <ele>4.2</ele>
        <time>2021-05-18T06:39:19Z</time>
      </trkpt>
      <trkpt lat="41.7132340" lon="-8.8636150">
        <ele>4.2</ele>
        <time>2021-05-18T06:39:20Z</time>
      </trkpt>
      <trkpt lat="41.7132460" lon="-8.8636210">
        <ele>4.2</ele>
        <time>2021-05-18T06:39:21Z</time>
      </trkpt>
      <trkpt lat="41.7132620" lon="-8.8636220">
        <ele>4.1</ele>
        <time>2021-05-18T06:39:22Z</time>
      </trkpt>
      <trkpt lat="41.7132760" lon="-8.8636300">
        <ele>4.1</ele>
        <time>2021-05-18T06:39:23Z</time>
      </trkpt>
      <trkpt lat="41.7132850" lon="-8.8636410">
        <ele>4.1</ele>
        <time>2021-05-18T06:39:24Z</time>
      </trkpt>
      <trkpt lat="41.7133010" lon="-8.8636450">
        <ele>4.1</ele>
        <time>2021-05-18T06:39:26Z</time>
      </trkpt>
      <trkpt lat="41.7133140" lon="-8.8636510">
        <ele>4.1</ele>
        <time>2021-05-18T06:39:27Z</time>
      </trkpt>
      <trkpt lat="41.7133360" lon="-8.8636580">
        <ele>4.1</ele>
        <time>2021-05-18T06:39:28Z</time>
      </trkpt>
      <trkpt lat="41.7133450" lon="-8.8636620">
        <ele>4.1</ele>
        <time>2021-05-18T06:39:29Z</time>
      </trkpt>
      <trkpt lat="41.7133530" lon="-8.8636670">
        <ele>4.1</ele>
        <time>2021-05-18T06:39:30Z</time>
      </trkpt>
      <trkpt lat="41.7133650" lon="-8.8636710">
        <ele>4.1</ele>
        <time>2021-05-18T06:39:31Z</time>
      </trkpt>
      <trkpt lat="41.7133800" lon="-8.8636760">
        <ele>4.1</ele>
        <time>2021-05-18T06:39:32Z</time>
      </trkpt>
      <trkpt lat="41.7134020" lon="-8.8636830">
        <ele>4.1</ele>
        <time>2021-05-18T06:39:33Z</time>
      </trkpt>
      <trkpt lat="41.7134100" lon="-8.8636860">
        <ele>4.1</ele>
        <time>2021-05-18T06:39:34Z</time>
      </trkpt>
      <trkpt lat="41.7134190" lon="-8.8636900">
        <ele>4.1</ele>
        <time>2021-05-18T06:39:35Z</time>
      </trkpt>
      <trkpt lat="41.7134390" lon="-8.8636970">
        <ele>4.1</ele>
        <time>2021-05-18T06:39:36Z</time>
      </trkpt>
      <trkpt lat="41.7134480" lon="-8.8636990">
        <ele>4.1</ele>
        <time>2021-05-18T06:39:37Z</time>
      </trkpt>
      <trkpt lat="41.7134570" lon="-8.8637020">
        <ele>4.1</ele>
        <time>2021-05-18T06:39:38Z</time>
      </trkpt>
      <trkpt lat="41.7134770" lon="-8.8637100">
        <ele>4.1</ele>
        <time>2021-05-18T06:39:39Z</time>
      </trkpt>
      <trkpt lat="41.7134860" lon="-8.8637140">
        <ele>4.1</ele>
        <time>2021-05-18T06:39:40Z</time>
      </trkpt>
      <trkpt lat="41.7134940" lon="-8.8637180">
        <ele>4.1</ele>
        <time>2021-05-18T06:39:41Z</time>
      </trkpt>
      <trkpt lat="41.7135150" lon="-8.8637290">
        <ele>4.1</ele>
        <time>2021-05-18T06:39:42Z</time>
      </trkpt>
      <trkpt lat="41.7135230" lon="-8.8637340">
        <ele>4.1</ele>
        <time>2021-05-18T06:39:43Z</time>
      </trkpt>
      <trkpt lat="41.7135310" lon="-8.8637390">
        <ele>4.1</ele>
        <time>2021-05-18T06:39:44Z</time>
      </trkpt>
      <trkpt lat="41.7135440" lon="-8.8637430">
        <ele>4.1</ele>
        <time>2021-05-18T06:39:45Z</time>
      </trkpt>
      <trkpt lat="41.7135610" lon="-8.8637460">
        <ele>4.1</ele>
        <time>2021-05-18T06:39:46Z</time>
      </trkpt>
      <trkpt lat="41.7135830" lon="-8.8637540">
        <ele>4.1</ele>
        <time>2021-05-18T06:39:47Z</time>
      </trkpt>
      <trkpt lat="41.7135920" lon="-8.8637580">
        <ele>4.1</ele>
        <time>2021-05-18T06:39:48Z</time>
      </trkpt>
      <trkpt lat="41.7136010" lon="-8.8637630">
        <ele>4.1</ele>
        <time>2021-05-18T06:39:49Z</time>
      </trkpt>
      <trkpt lat="41.7136210" lon="-8.8637720">
        <ele>4.1</ele>
        <time>2021-05-18T06:39:50Z</time>
      </trkpt>
      <trkpt lat="41.7136300" lon="-8.8637760">
        <ele>4.1</ele>
        <time>2021-05-18T06:39:51Z</time>
      </trkpt>
      <trkpt lat="41.7136380" lon="-8.8637800">
        <ele>4.1</ele>
        <time>2021-05-18T06:39:52Z</time>
      </trkpt>
      <trkpt lat="41.7136520" lon="-8.8637840">
        <ele>4.1</ele>
        <time>2021-05-18T06:39:53Z</time>
      </trkpt>
      <trkpt lat="41.7136640" lon="-8.8637900">
        <ele>4.1</ele>
        <time>2021-05-18T06:39:54Z</time>
      </trkpt>
      <trkpt lat="41.7136780" lon="-8.8637950">
        <ele>4.1</ele>
        <time>2021-05-18T06:39:55Z</time>
      </trkpt>
      <trkpt lat="41.7136910" lon="-8.8637970">
        <ele>4.2</ele>
        <time>2021-05-18T06:39:56Z</time>
      </trkpt>
      <trkpt lat="41.7137110" lon="-8.8638080">
        <ele>4.2</ele>
        <time>2021-05-18T06:39:57Z</time>
      </trkpt>
      <trkpt lat="41.7137200" lon="-8.8638110">
        <ele>4.2</ele>
        <time>2021-05-18T06:39:58Z</time>
      </trkpt>
      <trkpt lat="41.7137280" lon="-8.8638140">
        <ele>4.2</ele>
        <time>2021-05-18T06:39:59Z</time>
      </trkpt>
      <trkpt lat="41.7137410" lon="-8.8638180">
        <ele>4.2</ele>
        <time>2021-05-18T06:40:00Z</time>
      </trkpt>
      <trkpt lat="41.7137550" lon="-8.8638250">
        <ele>4.2</ele>
        <time>2021-05-18T06:40:01Z</time>
      </trkpt>
      <trkpt lat="41.7137690" lon="-8.8638320">
        <ele>4.2</ele>
        <time>2021-05-18T06:40:02Z</time>
      </trkpt>
      <trkpt lat="41.7137840" lon="-8.8638360">
        <ele>4.3</ele>
        <time>2021-05-18T06:40:03Z</time>
      </trkpt>
      <trkpt lat="41.7138070" lon="-8.8638460">
        <ele>4.3</ele>
        <time>2021-05-18T06:40:04Z</time>
      </trkpt>
      <trkpt lat="41.7138170" lon="-8.8638490">
        <ele>4.3</ele>
        <time>2021-05-18T06:40:05Z</time>
      </trkpt>
      <trkpt lat="41.7138260" lon="-8.8638530">
        <ele>4.3</ele>
        <time>2021-05-18T06:40:06Z</time>
      </trkpt>
      <trkpt lat="41.7138400" lon="-8.8638580">
        <ele>4.3</ele>
        <time>2021-05-18T06:40:07Z</time>
      </trkpt>
      <trkpt lat="41.7138540" lon="-8.8638600">
        <ele>4.3</ele>
        <time>2021-05-18T06:40:08Z</time>
      </trkpt>
      <trkpt lat="41.7138640" lon="-8.8638690">
        <ele>4.4</ele>
        <time>2021-05-18T06:40:09Z</time>
      </trkpt>
      <trkpt lat="41.7138800" lon="-8.8638720">
        <ele>4.4</ele>
        <time>2021-05-18T06:40:10Z</time>
      </trkpt>
      <trkpt lat="41.7138950" lon="-8.8638750">
        <ele>4.4</ele>
        <time>2021-05-18T06:40:11Z</time>
      </trkpt>
      <trkpt lat="41.7139070" lon="-8.8638830">
        <ele>4.4</ele>
        <time>2021-05-18T06:40:12Z</time>
      </trkpt>
      <trkpt lat="41.7139300" lon="-8.8638870">
        <ele>4.5</ele>
        <time>2021-05-18T06:40:13Z</time>
      </trkpt>
      <trkpt lat="41.7139380" lon="-8.8638910">
        <ele>4.5</ele>
        <time>2021-05-18T06:40:14Z</time>
      </trkpt>
      <trkpt lat="41.7139470" lon="-8.8638940">
        <ele>4.5</ele>
        <time>2021-05-18T06:40:15Z</time>
      </trkpt>
      <trkpt lat="41.7139670" lon="-8.8639000">
        <ele>4.5</ele>
        <time>2021-05-18T06:40:16Z</time>
      </trkpt>
      <trkpt lat="41.7139760" lon="-8.8639010">
        <ele>4.5</ele>
        <time>2021-05-18T06:40:17Z</time>
      </trkpt>
      <trkpt lat="41.7139850" lon="-8.8639020">
        <ele>4.5</ele>
        <time>2021-05-18T06:40:18Z</time>
      </trkpt>
      <trkpt lat="41.7140000" lon="-8.8639060">
        <ele>4.6</ele>
        <time>2021-05-18T06:40:19Z</time>
      </trkpt>
      <trkpt lat="41.7140160" lon="-8.8639020">
        <ele>4.6</ele>
        <time>2021-05-18T06:40:20Z</time>
      </trkpt>
      <trkpt lat="41.7140360" lon="-8.8639080">
        <ele>4.6</ele>
        <time>2021-05-18T06:40:21Z</time>
      </trkpt>
      <trkpt lat="41.7140450" lon="-8.8639100">
        <ele>4.6</ele>
        <time>2021-05-18T06:40:22Z</time>
      </trkpt>
      <trkpt lat="41.7140540" lon="-8.8639110">
        <ele>4.7</ele>
        <time>2021-05-18T06:40:23Z</time>
      </trkpt>
      <trkpt lat="41.7140680" lon="-8.8639110">
        <ele>4.7</ele>
        <time>2021-05-18T06:40:24Z</time>
      </trkpt>
      <trkpt lat="41.7140830" lon="-8.8639100">
        <ele>4.7</ele>
        <time>2021-05-18T06:40:25Z</time>
      </trkpt>
      <trkpt lat="41.7141030" lon="-8.8639050">
        <ele>4.7</ele>
        <time>2021-05-18T06:40:26Z</time>
      </trkpt>
      <trkpt lat="41.7141120" lon="-8.8639030">
        <ele>4.7</ele>
        <time>2021-05-18T06:40:27Z</time>
      </trkpt>
      <trkpt lat="41.7141220" lon="-8.8639020">
        <ele>4.8</ele>
        <time>2021-05-18T06:40:28Z</time>
      </trkpt>
      <trkpt lat="41.7141430" lon="-8.8639060">
        <ele>4.8</ele>
        <time>2021-05-18T06:40:29Z</time>
      </trkpt>
      <trkpt lat="41.7141530" lon="-8.8639080">
        <ele>4.8</ele>
        <time>2021-05-18T06:40:30Z</time>
      </trkpt>
      <trkpt lat="41.7141620" lon="-8.8639090">
        <ele>4.8</ele>
        <time>2021-05-18T06:40:31Z</time>
      </trkpt>
      <trkpt lat="41.7141770" lon="-8.8639050">
        <ele>4.8</ele>
        <time>2021-05-18T06:40:32Z</time>
      </trkpt>
      <trkpt lat="41.7141890" lon="-8.8639060">
        <ele>4.9</ele>
        <time>2021-05-18T06:40:33Z</time>
      </trkpt>
      <trkpt lat="41.7142030" lon="-8.8639080">
        <ele>4.9</ele>
        <time>2021-05-18T06:40:34Z</time>
      </trkpt>
      <trkpt lat="41.7142190" lon="-8.8639050">
        <ele>4.9</ele>
        <time>2021-05-18T06:40:35Z</time>
      </trkpt>
      <trkpt lat="41.7142320" lon="-8.8639040">
        <ele>4.9</ele>
        <time>2021-05-18T06:40:36Z</time>
      </trkpt>
      <trkpt lat="41.7142470" lon="-8.8638970">
        <ele>4.9</ele>
        <time>2021-05-18T06:40:37Z</time>
      </trkpt>
      <trkpt lat="41.7142600" lon="-8.8638990">
        <ele>5.0</ele>
        <time>2021-05-18T06:40:38Z</time>
      </trkpt>
      <trkpt lat="41.7142760" lon="-8.8639000">
        <ele>5.0</ele>
        <time>2021-05-18T06:40:39Z</time>
      </trkpt>
      <trkpt lat="41.7142900" lon="-8.8639040">
        <ele>5.0</ele>
        <time>2021-05-18T06:40:40Z</time>
      </trkpt>
      <trkpt lat="41.7143050" lon="-8.8639030">
        <ele>5.0</ele>
        <time>2021-05-18T06:40:41Z</time>
      </trkpt>
      <trkpt lat="41.7143280" lon="-8.8639050">
        <ele>5.0</ele>
        <time>2021-05-18T06:40:42Z</time>
      </trkpt>
      <trkpt lat="41.7143370" lon="-8.8639050">
        <ele>5.1</ele>
        <time>2021-05-18T06:40:43Z</time>
      </trkpt>
      <trkpt lat="41.7143470" lon="-8.8639040">
        <ele>5.1</ele>
        <time>2021-05-18T06:40:44Z</time>
      </trkpt>
      <trkpt lat="41.7143630" lon="-8.8639040">
        <ele>5.1</ele>
        <time>2021-05-18T06:40:45Z</time>
      </trkpt>
      <trkpt lat="41.7143760" lon="-8.8639060">
        <ele>5.1</ele>
        <time>2021-05-18T06:40:46Z</time>
      </trkpt>
      <trkpt lat="41.7143910" lon="-8.8639030">
        <ele>5.1</ele>
        <time>2021-05-18T06:40:47Z</time>
      </trkpt>
      <trkpt lat="41.7144040" lon="-8.8639110">
        <ele>5.1</ele>
        <time>2021-05-18T06:40:48Z</time>
      </trkpt>
      <trkpt lat="41.7144190" lon="-8.8639140">
        <ele>5.2</ele>
        <time>2021-05-18T06:40:49Z</time>
      </trkpt>
      <trkpt lat="41.7144320" lon="-8.8639140">
        <ele>5.2</ele>
        <time>2021-05-18T06:40:50Z</time>
      </trkpt>
      <trkpt lat="41.7144450" lon="-8.8639160">
        <ele>5.2</ele>
        <time>2021-05-18T06:40:51Z</time>
      </trkpt>
      <trkpt lat="41.7144750" lon="-8.8639100">
        <ele>5.2</ele>
        <time>2021-05-18T06:40:52Z</time>
      </trkpt>
      <trkpt lat="41.7144880" lon="-8.8639120">
        <ele>5.2</ele>
        <time>2021-05-18T06:40:53Z</time>
      </trkpt>
      <trkpt lat="41.7145020" lon="-8.8639140">
        <ele>5.2</ele>
        <time>2021-05-18T06:40:54Z</time>
      </trkpt>
      <trkpt lat="41.7145160" lon="-8.8639130">
        <ele>5.2</ele>
        <time>2021-05-18T06:40:56Z</time>
      </trkpt>
      <trkpt lat="41.7145300" lon="-8.8639010">
        <ele>5.2</ele>
        <time>2021-05-18T06:40:57Z</time>
      </trkpt>
      <trkpt lat="41.7145540" lon="-8.8638880">
        <ele>5.3</ele>
        <time>2021-05-18T06:40:58Z</time>
      </trkpt>
      <trkpt lat="41.7145680" lon="-8.8638790">
        <ele>5.3</ele>
        <time>2021-05-18T06:41:00Z</time>
      </trkpt>
      <trkpt lat="41.7145970" lon="-8.8638750">
        <ele>5.3</ele>
        <time>2021-05-18T06:41:01Z</time>
      </trkpt>
      <trkpt lat="41.7146200" lon="-8.8638750">
        <ele>5.3</ele>
        <time>2021-05-18T06:41:02Z</time>
      </trkpt>
      <trkpt lat="41.7146280" lon="-8.8638770">
        <ele>5.3</ele>
        <time>2021-05-18T06:41:03Z</time>
      </trkpt>
      <trkpt lat="41.7146370" lon="-8.8638800">
        <ele>5.3</ele>
        <time>2021-05-18T06:41:04Z</time>
      </trkpt>
      <trkpt lat="41.7146420" lon="-8.8638970">
        <ele>5.3</ele>
        <time>2021-05-18T06:41:05Z</time>
      </trkpt>
      <trkpt lat="41.7146520" lon="-8.8639110">
        <ele>5.3</ele>
        <time>2021-05-18T06:41:06Z</time>
      </trkpt>
      <trkpt lat="41.7146620" lon="-8.8639370">
        <ele>5.3</ele>
        <time>2021-05-18T06:41:07Z</time>
      </trkpt>
      <trkpt lat="41.7146690" lon="-8.8639460">
        <ele>5.3</ele>
        <time>2021-05-18T06:41:08Z</time>
      </trkpt>
      <trkpt lat="41.7146750" lon="-8.8639550">
        <ele>5.3</ele>
        <time>2021-05-18T06:41:09Z</time>
      </trkpt>
      <trkpt lat="41.7146830" lon="-8.8639670">
        <ele>5.3</ele>
        <time>2021-05-18T06:41:10Z</time>
      </trkpt>
      <trkpt lat="41.7146920" lon="-8.8639830">
        <ele>5.3</ele>
        <time>2021-05-18T06:41:11Z</time>
      </trkpt>
      <trkpt lat="41.7146970" lon="-8.8640010">
        <ele>5.3</ele>
        <time>2021-05-18T06:41:12Z</time>
      </trkpt>
      <trkpt lat="41.7146980" lon="-8.8640210">
        <ele>5.3</ele>
        <time>2021-05-18T06:41:13Z</time>
      </trkpt>
      <trkpt lat="41.7147140" lon="-8.8640420">
        <ele>5.3</ele>
        <time>2021-05-18T06:41:14Z</time>
      </trkpt>
      <trkpt lat="41.7147200" lon="-8.8640510">
        <ele>5.3</ele>
        <time>2021-05-18T06:41:16Z</time>
      </trkpt>
      <trkpt lat="41.7147260" lon="-8.8640600">
        <ele>5.3</ele>
        <time>2021-05-18T06:41:17Z</time>
      </trkpt>
      <trkpt lat="41.7147380" lon="-8.8640740">
        <ele>5.3</ele>
        <time>2021-05-18T06:41:18Z</time>
      </trkpt>
      <trkpt lat="41.7147500" lon="-8.8640850">
        <ele>5.3</ele>
        <time>2021-05-18T06:41:19Z</time>
      </trkpt>
      <trkpt lat="41.7147590" lon="-8.8641020">
        <ele>5.3</ele>
        <time>2021-05-18T06:41:20Z</time>
      </trkpt>
      <trkpt lat="41.7147750" lon="-8.8641090">
        <ele>5.3</ele>
        <time>2021-05-18T06:41:21Z</time>
      </trkpt>
      <trkpt lat="41.7147930" lon="-8.8641070">
        <ele>5.3</ele>
        <time>2021-05-18T06:41:22Z</time>
      </trkpt>
      <trkpt lat="41.7148080" lon="-8.8641130">
        <ele>5.3</ele>
        <time>2021-05-18T06:41:23Z</time>
      </trkpt>
      <trkpt lat="41.7148210" lon="-8.8641200">
        <ele>5.3</ele>
        <time>2021-05-18T06:41:24Z</time>
      </trkpt>
      <trkpt lat="41.7148380" lon="-8.8641200">
        <ele>5.3</ele>
        <time>2021-05-18T06:41:25Z</time>
      </trkpt>
      <trkpt lat="41.7148590" lon="-8.8641320">
        <ele>5.3</ele>
        <time>2021-05-18T06:41:26Z</time>
      </trkpt>
      <trkpt lat="41.7148670" lon="-8.8641350">
        <ele>5.3</ele>
        <time>2021-05-18T06:41:27Z</time>
      </trkpt>
      <trkpt lat="41.7148760" lon="-8.8641390">
        <ele>5.3</ele>
        <time>2021-05-18T06:41:28Z</time>
      </trkpt>
      <trkpt lat="41.7148910" lon="-8.8641450">
        <ele>5.3</ele>
        <time>2021-05-18T06:41:29Z</time>
      </trkpt>
      <trkpt lat="41.7149040" lon="-8.8641550">
        <ele>5.3</ele>
        <time>2021-05-18T06:41:30Z</time>
      </trkpt>
      <trkpt lat="41.7149180" lon="-8.8641590">
        <ele>5.3</ele>
        <time>2021-05-18T06:41:31Z</time>
      </trkpt>
      <trkpt lat="41.7149330" lon="-8.8641650">
        <ele>5.3</ele>
        <time>2021-05-18T06:41:32Z</time>
      </trkpt>
      <trkpt lat="41.7149460" lon="-8.8641690">
        <ele>5.3</ele>
        <time>2021-05-18T06:41:33Z</time>
      </trkpt>
      <trkpt lat="41.7149600" lon="-8.8641740">
        <ele>5.3</ele>
        <time>2021-05-18T06:41:34Z</time>
      </trkpt>
      <trkpt lat="41.7149740" lon="-8.8641740">
        <ele>5.3</ele>
        <time>2021-05-18T06:41:35Z</time>
      </trkpt>
      <trkpt lat="41.7149890" lon="-8.8641790">
        <ele>5.3</ele>
        <time>2021-05-18T06:41:36Z</time>
      </trkpt>
      <trkpt lat="41.7150020" lon="-8.8641820">
        <ele>5.3</ele>
        <time>2021-05-18T06:41:37Z</time>
      </trkpt>
      <trkpt lat="41.7150160" lon="-8.8641870">
        <ele>5.3</ele>
        <time>2021-05-18T06:41:38Z</time>
      </trkpt>
      <trkpt lat="41.7150380" lon="-8.8641950">
        <ele>5.3</ele>
        <time>2021-05-18T06:41:39Z</time>
      </trkpt>
      <trkpt lat="41.7150470" lon="-8.8641990">
        <ele>5.3</ele>
        <time>2021-05-18T06:41:40Z</time>
      </trkpt>
      <trkpt lat="41.7150560" lon="-8.8642030">
        <ele>5.3</ele>
        <time>2021-05-18T06:41:41Z</time>
      </trkpt>
      <trkpt lat="41.7150690" lon="-8.8642080">
        <ele>5.3</ele>
        <time>2021-05-18T06:41:42Z</time>
      </trkpt>
      <trkpt lat="41.7150830" lon="-8.8642140">
        <ele>5.3</ele>
        <time>2021-05-18T06:41:43Z</time>
      </trkpt>
      <trkpt lat="41.7151000" lon="-8.8642120">
        <ele>5.3</ele>
        <time>2021-05-18T06:41:44Z</time>
      </trkpt>
      <trkpt lat="41.7151130" lon="-8.8642130">
        <ele>5.3</ele>
        <time>2021-05-18T06:41:45Z</time>
      </trkpt>
      <trkpt lat="41.7151260" lon="-8.8642150">
        <ele>5.3</ele>
        <time>2021-05-18T06:41:46Z</time>
      </trkpt>
      <trkpt lat="41.7151420" lon="-8.8642150">
        <ele>5.3</ele>
        <time>2021-05-18T06:41:47Z</time>
      </trkpt>
      <trkpt lat="41.7151580" lon="-8.8642190">
        <ele>5.3</ele>
        <time>2021-05-18T06:41:48Z</time>
      </trkpt>
      <trkpt lat="41.7151720" lon="-8.8642220">
        <ele>5.3</ele>
        <time>2021-05-18T06:41:49Z</time>
      </trkpt>
      <trkpt lat="41.7151840" lon="-8.8642300">
        <ele>5.3</ele>
        <time>2021-05-18T06:41:50Z</time>
      </trkpt>
      <trkpt lat="41.7152010" lon="-8.8642310">
        <ele>5.3</ele>
        <time>2021-05-18T06:41:51Z</time>
      </trkpt>
      <trkpt lat="41.7152130" lon="-8.8642340">
        <ele>5.3</ele>
        <time>2021-05-18T06:41:52Z</time>
      </trkpt>
      <trkpt lat="41.7152240" lon="-8.8642450">
        <ele>5.3</ele>
        <time>2021-05-18T06:41:53Z</time>
      </trkpt>
      <trkpt lat="41.7152310" lon="-8.8642570">
        <ele>5.3</ele>
        <time>2021-05-18T06:41:54Z</time>
      </trkpt>
      <trkpt lat="41.7152400" lon="-8.8642550">
        <ele>5.3</ele>
        <time>2021-05-18T06:41:55Z</time>
      </trkpt>
      <trkpt lat="41.7152510" lon="-8.8642570">
        <ele>5.3</ele>
        <time>2021-05-18T06:41:56Z</time>
      </trkpt>
      <trkpt lat="41.7152660" lon="-8.8642620">
        <ele>5.3</ele>
        <time>2021-05-18T06:41:57Z</time>
      </trkpt>
      <trkpt lat="41.7152770" lon="-8.8642650">
        <ele>5.3</ele>
        <time>2021-05-18T06:41:58Z</time>
      </trkpt>
      <trkpt lat="41.7152860" lon="-8.8642700">
        <ele>5.3</ele>
        <time>2021-05-18T06:41:59Z</time>
      </trkpt>
      <trkpt lat="41.7152950" lon="-8.8642720">
        <ele>5.3</ele>
        <time>2021-05-18T06:42:00Z</time>
      </trkpt>
      <trkpt lat="41.7153040" lon="-8.8642760">
        <ele>5.3</ele>
        <time>2021-05-18T06:42:01Z</time>
      </trkpt>
      <trkpt lat="41.7153160" lon="-8.8642760">
        <ele>5.3</ele>
        <time>2021-05-18T06:42:02Z</time>
      </trkpt>
      <trkpt lat="41.7153270" lon="-8.8642820">
        <ele>5.3</ele>
        <time>2021-05-18T06:42:03Z</time>
      </trkpt>
      <trkpt lat="41.7153370" lon="-8.8642840">
        <ele>5.3</ele>
        <time>2021-05-18T06:42:04Z</time>
      </trkpt>
      <trkpt lat="41.7153560" lon="-8.8642830">
        <ele>5.3</ele>
        <time>2021-05-18T06:42:05Z</time>
      </trkpt>
      <trkpt lat="41.7153690" lon="-8.8642830">
        <ele>5.3</ele>
        <time>2021-05-18T06:42:06Z</time>
      </trkpt>
      <trkpt lat="41.7153790" lon="-8.8642870">
        <ele>5.3</ele>
        <time>2021-05-18T06:42:07Z</time>
      </trkpt>
      <trkpt lat="41.7153880" lon="-8.8642900">
        <ele>5.3</ele>
        <time>2021-05-18T06:42:08Z</time>
      </trkpt>
      <trkpt lat="41.7153980" lon="-8.8642930">
        <ele>5.3</ele>
        <time>2021-05-18T06:42:09Z</time>
      </trkpt>
      <trkpt lat="41.7154050" lon="-8.8642960">
        <ele>5.3</ele>
        <time>2021-05-18T06:42:10Z</time>
      </trkpt>
      <trkpt lat="41.7154220" lon="-8.8643060">
        <ele>5.3</ele>
        <time>2021-05-18T06:42:11Z</time>
      </trkpt>
      <trkpt lat="41.7154420" lon="-8.8643090">
        <ele>5.3</ele>
        <time>2021-05-18T06:42:12Z</time>
      </trkpt>
      <trkpt lat="41.7154520" lon="-8.8643130">
        <ele>5.3</ele>
        <time>2021-05-18T06:42:13Z</time>
      </trkpt>
      <trkpt lat="41.7154620" lon="-8.8643170">
        <ele>5.3</ele>
        <time>2021-05-18T06:42:14Z</time>
      </trkpt>
      <trkpt lat="41.7154770" lon="-8.8643260">
        <ele>5.3</ele>
        <time>2021-05-18T06:42:15Z</time>
      </trkpt>
      <trkpt lat="41.7154910" lon="-8.8643290">
        <ele>5.3</ele>
        <time>2021-05-18T06:42:16Z</time>
      </trkpt>
      <trkpt lat="41.7155070" lon="-8.8643300">
        <ele>5.3</ele>
        <time>2021-05-18T06:42:17Z</time>
      </trkpt>
      <trkpt lat="41.7155220" lon="-8.8643320">
        <ele>5.3</ele>
        <time>2021-05-18T06:42:18Z</time>
      </trkpt>
      <trkpt lat="41.7155430" lon="-8.8643430">
        <ele>5.3</ele>
        <time>2021-05-18T06:42:19Z</time>
      </trkpt>
      <trkpt lat="41.7155520" lon="-8.8643480">
        <ele>5.3</ele>
        <time>2021-05-18T06:42:20Z</time>
      </trkpt>
      <trkpt lat="41.7155600" lon="-8.8643520">
        <ele>5.3</ele>
        <time>2021-05-18T06:42:21Z</time>
      </trkpt>
      <trkpt lat="41.7155740" lon="-8.8643660">
        <ele>5.3</ele>
        <time>2021-05-18T06:42:22Z</time>
      </trkpt>
      <trkpt lat="41.7155880" lon="-8.8643670">
        <ele>5.3</ele>
        <time>2021-05-18T06:42:23Z</time>
      </trkpt>
      <trkpt lat="41.7156120" lon="-8.8643770">
        <ele>5.3</ele>
        <time>2021-05-18T06:42:24Z</time>
      </trkpt>
      <trkpt lat="41.7156200" lon="-8.8643810">
        <ele>5.3</ele>
        <time>2021-05-18T06:42:25Z</time>
      </trkpt>
      <trkpt lat="41.7156290" lon="-8.8643860">
        <ele>5.3</ele>
        <time>2021-05-18T06:42:26Z</time>
      </trkpt>
      <trkpt lat="41.7156410" lon="-8.8644010">
        <ele>5.3</ele>
        <time>2021-05-18T06:42:27Z</time>
      </trkpt>
      <trkpt lat="41.7156540" lon="-8.8644060">
        <ele>5.3</ele>
        <time>2021-05-18T06:42:28Z</time>
      </trkpt>
      <trkpt lat="41.7156700" lon="-8.8644030">
        <ele>5.3</ele>
        <time>2021-05-18T06:42:29Z</time>
      </trkpt>
      <trkpt lat="41.7156850" lon="-8.8644070">
        <ele>5.3</ele>
        <time>2021-05-18T06:42:30Z</time>
      </trkpt>
      <trkpt lat="41.7156970" lon="-8.8644170">
        <ele>5.3</ele>
        <time>2021-05-18T06:42:31Z</time>
      </trkpt>
      <trkpt lat="41.7157080" lon="-8.8644270">
        <ele>5.3</ele>
        <time>2021-05-18T06:42:32Z</time>
      </trkpt>
      <trkpt lat="41.7157220" lon="-8.8644310">
        <ele>5.3</ele>
        <time>2021-05-18T06:42:33Z</time>
      </trkpt>
      <trkpt lat="41.7157380" lon="-8.8644340">
        <ele>5.3</ele>
        <time>2021-05-18T06:42:34Z</time>
      </trkpt>
      <trkpt lat="41.7157460" lon="-8.8644510">
        <ele>5.3</ele>
        <time>2021-05-18T06:42:35Z</time>
      </trkpt>
      <trkpt lat="41.7157600" lon="-8.8644550">
        <ele>5.3</ele>
        <time>2021-05-18T06:42:36Z</time>
      </trkpt>
      <trkpt lat="41.7157730" lon="-8.8644620">
        <ele>5.3</ele>
        <time>2021-05-18T06:42:37Z</time>
      </trkpt>
      <trkpt lat="41.7157870" lon="-8.8644690">
        <ele>5.3</ele>
        <time>2021-05-18T06:42:38Z</time>
      </trkpt>
      <trkpt lat="41.7157990" lon="-8.8644740">
        <ele>5.3</ele>
        <time>2021-05-18T06:42:39Z</time>
      </trkpt>
      <trkpt lat="41.7158130" lon="-8.8644810">
        <ele>5.3</ele>
        <time>2021-05-18T06:42:40Z</time>
      </trkpt>
      <trkpt lat="41.7158240" lon="-8.8644930">
        <ele>5.3</ele>
        <time>2021-05-18T06:42:41Z</time>
      </trkpt>
      <trkpt lat="41.7158360" lon="-8.8645050">
        <ele>5.3</ele>
        <time>2021-05-18T06:42:42Z</time>
      </trkpt>
      <trkpt lat="41.7158510" lon="-8.8645130">
        <ele>5.3</ele>
        <time>2021-05-18T06:42:43Z</time>
      </trkpt>
      <trkpt lat="41.7158630" lon="-8.8645180">
        <ele>5.3</ele>
        <time>2021-05-18T06:42:44Z</time>
      </trkpt>
      <trkpt lat="41.7158770" lon="-8.8645220">
        <ele>5.3</ele>
        <time>2021-05-18T06:42:45Z</time>
      </trkpt>
      <trkpt lat="41.7158910" lon="-8.8645200">
        <ele>5.3</ele>
        <time>2021-05-18T06:42:46Z</time>
      </trkpt>
      <trkpt lat="41.7159080" lon="-8.8645150">
        <ele>5.3</ele>
        <time>2021-05-18T06:42:47Z</time>
      </trkpt>
      <trkpt lat="41.7159220" lon="-8.8645100">
        <ele>5.3</ele>
        <time>2021-05-18T06:42:48Z</time>
      </trkpt>
      <trkpt lat="41.7159400" lon="-8.8644730">
        <ele>5.3</ele>
        <time>2021-05-18T06:42:49Z</time>
      </trkpt>
      <trkpt lat="41.7159440" lon="-8.8644650">
        <ele>5.3</ele>
        <time>2021-05-18T06:42:50Z</time>
      </trkpt>
      <trkpt lat="41.7159540" lon="-8.8644540">
        <ele>5.3</ele>
        <time>2021-05-18T06:42:51Z</time>
      </trkpt>
      <trkpt lat="41.7159670" lon="-8.8644370">
        <ele>5.3</ele>
        <time>2021-05-18T06:42:52Z</time>
      </trkpt>
      <trkpt lat="41.7159770" lon="-8.8644250">
        <ele>5.3</ele>
        <time>2021-05-18T06:42:53Z</time>
      </trkpt>
      <trkpt lat="41.7159830" lon="-8.8644140">
        <ele>5.3</ele>
        <time>2021-05-18T06:42:54Z</time>
      </trkpt>
      <trkpt lat="41.7159910" lon="-8.8644040">
        <ele>5.3</ele>
        <time>2021-05-18T06:42:55Z</time>
      </trkpt>
      <trkpt lat="41.7160100" lon="-8.8643890">
        <ele>5.3</ele>
        <time>2021-05-18T06:42:56Z</time>
      </trkpt>
      <trkpt lat="41.7160180" lon="-8.8643840">
        <ele>5.3</ele>
        <time>2021-05-18T06:42:57Z</time>
      </trkpt>
      <trkpt lat="41.7160260" lon="-8.8643800">
        <ele>5.2</ele>
        <time>2021-05-18T06:42:58Z</time>
      </trkpt>
      <trkpt lat="41.7160360" lon="-8.8643670">
        <ele>5.2</ele>
        <time>2021-05-18T06:42:59Z</time>
      </trkpt>
      <trkpt lat="41.7160420" lon="-8.8643590">
        <ele>5.2</ele>
        <time>2021-05-18T06:43:00Z</time>
      </trkpt>
      <trkpt lat="41.7160510" lon="-8.8643560">
        <ele>5.2</ele>
        <time>2021-05-18T06:43:01Z</time>
      </trkpt>
      <trkpt lat="41.7160680" lon="-8.8643500">
        <ele>5.2</ele>
        <time>2021-05-18T06:43:02Z</time>
      </trkpt>
      <trkpt lat="41.7160820" lon="-8.8643440">
        <ele>5.2</ele>
        <time>2021-05-18T06:43:03Z</time>
      </trkpt>
      <trkpt lat="41.7160970" lon="-8.8643420">
        <ele>5.2</ele>
        <time>2021-05-18T06:43:04Z</time>
      </trkpt>
      <trkpt lat="41.7161120" lon="-8.8643390">
        <ele>5.2</ele>
        <time>2021-05-18T06:43:05Z</time>
      </trkpt>
      <trkpt lat="41.7161260" lon="-8.8643390">
        <ele>5.2</ele>
        <time>2021-05-18T06:43:06Z</time>
      </trkpt>
      <trkpt lat="41.7161400" lon="-8.8643370">
        <ele>5.2</ele>
        <time>2021-05-18T06:43:07Z</time>
      </trkpt>
      <trkpt lat="41.7161530" lon="-8.8643310">
        <ele>5.2</ele>
        <time>2021-05-18T06:43:08Z</time>
      </trkpt>
      <trkpt lat="41.7161660" lon="-8.8643230">
        <ele>5.2</ele>
        <time>2021-05-18T06:43:09Z</time>
      </trkpt>
      <trkpt lat="41.7161810" lon="-8.8643210">
        <ele>5.2</ele>
        <time>2021-05-18T06:43:10Z</time>
      </trkpt>
      <trkpt lat="41.7161950" lon="-8.8643130">
        <ele>5.2</ele>
        <time>2021-05-18T06:43:11Z</time>
      </trkpt>
      <trkpt lat="41.7162080" lon="-8.8643040">
        <ele>5.1</ele>
        <time>2021-05-18T06:43:12Z</time>
      </trkpt>
      <trkpt lat="41.7162220" lon="-8.8642940">
        <ele>5.1</ele>
        <time>2021-05-18T06:43:13Z</time>
      </trkpt>
      <trkpt lat="41.7162350" lon="-8.8642910">
        <ele>5.1</ele>
        <time>2021-05-18T06:43:14Z</time>
      </trkpt>
      <trkpt lat="41.7162480" lon="-8.8642830">
        <ele>5.1</ele>
        <time>2021-05-18T06:43:15Z</time>
      </trkpt>
      <trkpt lat="41.7162620" lon="-8.8642740">
        <ele>5.1</ele>
        <time>2021-05-18T06:43:16Z</time>
      </trkpt>
      <trkpt lat="41.7162730" lon="-8.8642650">
        <ele>5.0</ele>
        <time>2021-05-18T06:43:17Z</time>
      </trkpt>
      <trkpt lat="41.7162840" lon="-8.8642530">
        <ele>5.0</ele>
        <time>2021-05-18T06:43:18Z</time>
      </trkpt>
      <trkpt lat="41.7162990" lon="-8.8642480">
        <ele>5.0</ele>
        <time>2021-05-18T06:43:19Z</time>
      </trkpt>
      <trkpt lat="41.7163190" lon="-8.8642390">
        <ele>5.0</ele>
        <time>2021-05-18T06:43:20Z</time>
      </trkpt>
      <trkpt lat="41.7163270" lon="-8.8642300">
        <ele>5.0</ele>
        <time>2021-05-18T06:43:21Z</time>
      </trkpt>
      <trkpt lat="41.7163340" lon="-8.8642220">
        <ele>5.0</ele>
        <time>2021-05-18T06:43:22Z</time>
      </trkpt>
      <trkpt lat="41.7163430" lon="-8.8642060">
        <ele>5.0</ele>
        <time>2021-05-18T06:43:23Z</time>
      </trkpt>
      <trkpt lat="41.7163540" lon="-8.8641960">
        <ele>4.9</ele>
        <time>2021-05-18T06:43:24Z</time>
      </trkpt>
      <trkpt lat="41.7163650" lon="-8.8641690">
        <ele>4.9</ele>
        <time>2021-05-18T06:43:25Z</time>
      </trkpt>
      <trkpt lat="41.7163690" lon="-8.8641590">
        <ele>4.9</ele>
        <time>2021-05-18T06:43:26Z</time>
      </trkpt>
      <trkpt lat="41.7163730" lon="-8.8641490">
        <ele>4.9</ele>
        <time>2021-05-18T06:43:27Z</time>
      </trkpt>
      <trkpt lat="41.7163810" lon="-8.8641340">
        <ele>4.9</ele>
        <time>2021-05-18T06:43:28Z</time>
      </trkpt>
      <trkpt lat="41.7163820" lon="-8.8641330">
        <ele>4.9</ele>
        <time>2021-05-18T06:43:29Z</time>
      </trkpt>
      <trkpt lat="41.7163690" lon="-8.8641280">
        <ele>4.9</ele>
        <time>2021-05-18T06:43:30Z</time>
      </trkpt>
      <trkpt lat="41.7163610" lon="-8.8641300">
        <ele>4.9</ele>
        <time>2021-05-18T06:43:31Z</time>
      </trkpt>
      <trkpt lat="41.7163530" lon="-8.8641300">
        <ele>4.8</ele>
        <time>2021-05-18T06:43:32Z</time>
      </trkpt>
      <trkpt lat="41.7163540" lon="-8.8641270">
        <ele>4.8</ele>
        <time>2021-05-18T06:43:33Z</time>
      </trkpt>
      <trkpt lat="41.7163530" lon="-8.8641290">
        <ele>4.8</ele>
        <time>2021-05-18T06:43:34Z</time>
      </trkpt>
      <trkpt lat="41.7163450" lon="-8.8641300">
        <ele>4.8</ele>
        <time>2021-05-18T06:43:35Z</time>
      </trkpt>
      <trkpt lat="41.7163430" lon="-8.8641330">
        <ele>4.8</ele>
        <time>2021-05-18T06:43:36Z</time>
      </trkpt>
      <trkpt lat="41.7163410" lon="-8.8641350">
        <ele>4.8</ele>
        <time>2021-05-18T06:43:37Z</time>
      </trkpt>
      <trkpt lat="41.7163410" lon="-8.8641340">
        <ele>4.8</ele>
        <time>2021-05-18T06:43:38Z</time>
      </trkpt>
      <trkpt lat="41.7163400" lon="-8.8641350">
        <ele>4.8</ele>
        <time>2021-05-18T06:43:39Z</time>
      </trkpt>
      <trkpt lat="41.7163390" lon="-8.8641380">
        <ele>4.8</ele>
        <time>2021-05-18T06:43:40Z</time>
      </trkpt>
      <trkpt lat="41.7163370" lon="-8.8641450">
        <ele>4.8</ele>
        <time>2021-05-18T06:43:41Z</time>
      </trkpt>
      <trkpt lat="41.7163330" lon="-8.8641470">
        <ele>4.8</ele>
        <time>2021-05-18T06:43:42Z</time>
      </trkpt>
      <trkpt lat="41.7163290" lon="-8.8641510">
        <ele>4.8</ele>
        <time>2021-05-18T06:43:43Z</time>
      </trkpt>
      <trkpt lat="41.7163270" lon="-8.8641520">
        <ele>4.8</ele>
        <time>2021-05-18T06:43:44Z</time>
      </trkpt>
      <trkpt lat="41.7163270" lon="-8.8641510">
        <ele>4.8</ele>
        <time>2021-05-18T06:43:45Z</time>
      </trkpt>
      <trkpt lat="41.7163450" lon="-8.8641510">
        <ele>4.8</ele>
        <time>2021-05-18T06:43:46Z</time>
      </trkpt>
      <trkpt lat="41.7163550" lon="-8.8641560">
        <ele>4.8</ele>
        <time>2021-05-18T06:43:47Z</time>
      </trkpt>
      <trkpt lat="41.7163650" lon="-8.8641560">
        <ele>4.8</ele>
        <time>2021-05-18T06:43:48Z</time>
      </trkpt>
      <trkpt lat="41.7163810" lon="-8.8641690">
        <ele>4.7</ele>
        <time>2021-05-18T06:43:49Z</time>
      </trkpt>
      <trkpt lat="41.7163910" lon="-8.8641780">
        <ele>4.7</ele>
        <time>2021-05-18T06:43:50Z</time>
      </trkpt>
      <trkpt lat="41.7164060" lon="-8.8641890">
        <ele>4.7</ele>
        <time>2021-05-18T06:43:51Z</time>
      </trkpt>
      <trkpt lat="41.7164170" lon="-8.8641930">
        <ele>4.7</ele>
        <time>2021-05-18T06:43:52Z</time>
      </trkpt>
      <trkpt lat="41.7164330" lon="-8.8641970">
        <ele>4.5</ele>
        <time>2021-05-18T06:43:53Z</time>
      </trkpt>
      <trkpt lat="41.7164440" lon="-8.8642030">
        <ele>4.5</ele>
        <time>2021-05-18T06:43:54Z</time>
      </trkpt>
      <trkpt lat="41.7164620" lon="-8.8642070">
        <ele>4.5</ele>
        <time>2021-05-18T06:43:55Z</time>
      </trkpt>
      <trkpt lat="41.7164710" lon="-8.8642120">
        <ele>4.5</ele>
        <time>2021-05-18T06:43:56Z</time>
      </trkpt>
      <trkpt lat="41.7164800" lon="-8.8642170">
        <ele>4.4</ele>
        <time>2021-05-18T06:43:57Z</time>
      </trkpt>
      <trkpt lat="41.7164970" lon="-8.8642270">
        <ele>4.4</ele>
        <time>2021-05-18T06:43:58Z</time>
      </trkpt>
      <trkpt lat="41.7165090" lon="-8.8642290">
        <ele>4.4</ele>
        <time>2021-05-18T06:43:59Z</time>
      </trkpt>
      <trkpt lat="41.7165310" lon="-8.8642360">
        <ele>4.4</ele>
        <time>2021-05-18T06:44:00Z</time>
      </trkpt>
      <trkpt lat="41.7165380" lon="-8.8642400">
        <ele>4.4</ele>
        <time>2021-05-18T06:44:01Z</time>
      </trkpt>
      <trkpt lat="41.7165440" lon="-8.8642450">
        <ele>4.3</ele>
        <time>2021-05-18T06:44:02Z</time>
      </trkpt>
      <trkpt lat="41.7165620" lon="-8.8642510">
        <ele>4.3</ele>
        <time>2021-05-18T06:44:03Z</time>
      </trkpt>
      <trkpt lat="41.7165730" lon="-8.8642510">
        <ele>4.3</ele>
        <time>2021-05-18T06:44:04Z</time>
      </trkpt>
      <trkpt lat="41.7165950" lon="-8.8642600">
        <ele>4.3</ele>
        <time>2021-05-18T06:44:05Z</time>
      </trkpt>
      <trkpt lat="41.7166020" lon="-8.8642620">
        <ele>4.2</ele>
        <time>2021-05-18T06:44:06Z</time>
      </trkpt>
      <trkpt lat="41.7166100" lon="-8.8642650">
        <ele>4.2</ele>
        <time>2021-05-18T06:44:07Z</time>
      </trkpt>
      <trkpt lat="41.7166250" lon="-8.8642660">
        <ele>4.2</ele>
        <time>2021-05-18T06:44:08Z</time>
      </trkpt>
      <trkpt lat="41.7166390" lon="-8.8642660">
        <ele>4.2</ele>
        <time>2021-05-18T06:44:09Z</time>
      </trkpt>
      <trkpt lat="41.7166530" lon="-8.8642680">
        <ele>4.1</ele>
        <time>2021-05-18T06:44:10Z</time>
      </trkpt>
      <trkpt lat="41.7166700" lon="-8.8642750">
        <ele>4.1</ele>
        <time>2021-05-18T06:44:11Z</time>
      </trkpt>
      <trkpt lat="41.7166850" lon="-8.8642800">
        <ele>4.1</ele>
        <time>2021-05-18T06:44:12Z</time>
      </trkpt>
      <trkpt lat="41.7166970" lon="-8.8642810">
        <ele>4.1</ele>
        <time>2021-05-18T06:44:13Z</time>
      </trkpt>
      <trkpt lat="41.7167080" lon="-8.8642920">
        <ele>4.0</ele>
        <time>2021-05-18T06:44:14Z</time>
      </trkpt>
      <trkpt lat="41.7167210" lon="-8.8642990">
        <ele>4.0</ele>
        <time>2021-05-18T06:44:15Z</time>
      </trkpt>
      <trkpt lat="41.7167330" lon="-8.8643150">
        <ele>4.0</ele>
        <time>2021-05-18T06:44:16Z</time>
      </trkpt>
      <trkpt lat="41.7167420" lon="-8.8643260">
        <ele>4.0</ele>
        <time>2021-05-18T06:44:17Z</time>
      </trkpt>
      <trkpt lat="41.7167530" lon="-8.8643420">
        <ele>4.0</ele>
        <time>2021-05-18T06:44:18Z</time>
      </trkpt>
      <trkpt lat="41.7167620" lon="-8.8643530">
        <ele>4.0</ele>
        <time>2021-05-18T06:44:19Z</time>
      </trkpt>
      <trkpt lat="41.7167740" lon="-8.8643660">
        <ele>4.0</ele>
        <time>2021-05-18T06:44:20Z</time>
      </trkpt>
      <trkpt lat="41.7167840" lon="-8.8643760">
        <ele>4.0</ele>
        <time>2021-05-18T06:44:21Z</time>
      </trkpt>
      <trkpt lat="41.7167970" lon="-8.8643830">
        <ele>4.0</ele>
        <time>2021-05-18T06:44:22Z</time>
      </trkpt>
      <trkpt lat="41.7168070" lon="-8.8643900">
        <ele>4.0</ele>
        <time>2021-05-18T06:44:23Z</time>
      </trkpt>
      <trkpt lat="41.7168170" lon="-8.8643920">
        <ele>4.0</ele>
        <time>2021-05-18T06:44:24Z</time>
      </trkpt>
      <trkpt lat="41.7168230" lon="-8.8643880">
        <ele>4.0</ele>
        <time>2021-05-18T06:44:25Z</time>
      </trkpt>
      <trkpt lat="41.7168240" lon="-8.8643850">
        <ele>4.0</ele>
        <time>2021-05-18T06:44:26Z</time>
      </trkpt>
      <trkpt lat="41.7168210" lon="-8.8643810">
        <ele>4.0</ele>
        <time>2021-05-18T06:44:27Z</time>
      </trkpt>
      <trkpt lat="41.7168200" lon="-8.8643780">
        <ele>4.0</ele>
        <time>2021-05-18T06:44:28Z</time>
      </trkpt>
      <trkpt lat="41.7168190" lon="-8.8643780">
        <ele>4.0</ele>
        <time>2021-05-18T06:44:29Z</time>
      </trkpt>
      <trkpt lat="41.7168210" lon="-8.8643790">
        <ele>4.0</ele>
        <time>2021-05-18T06:44:30Z</time>
      </trkpt>
      <trkpt lat="41.7168310" lon="-8.8643880">
        <ele>4.0</ele>
        <time>2021-05-18T06:44:31Z</time>
      </trkpt>
      <trkpt lat="41.7168390" lon="-8.8643990">
        <ele>3.9</ele>
        <time>2021-05-18T06:44:32Z</time>
      </trkpt>
      <trkpt lat="41.7168480" lon="-8.8644080">
        <ele>3.9</ele>
        <time>2021-05-18T06:44:33Z</time>
      </trkpt>
      <trkpt lat="41.7168580" lon="-8.8644190">
        <ele>3.9</ele>
        <time>2021-05-18T06:44:34Z</time>
      </trkpt>
      <trkpt lat="41.7168610" lon="-8.8644240">
        <ele>3.9</ele>
        <time>2021-05-18T06:44:35Z</time>
      </trkpt>
      <trkpt lat="41.7168770" lon="-8.8644320">
        <ele>3.9</ele>
        <time>2021-05-18T06:44:36Z</time>
      </trkpt>
      <trkpt lat="41.7168960" lon="-8.8644400">
        <ele>3.9</ele>
        <time>2021-05-18T06:44:37Z</time>
      </trkpt>
      <trkpt lat="41.7169040" lon="-8.8644420">
        <ele>3.9</ele>
        <time>2021-05-18T06:44:38Z</time>
      </trkpt>
      <trkpt lat="41.7169120" lon="-8.8644450">
        <ele>3.9</ele>
        <time>2021-05-18T06:44:39Z</time>
      </trkpt>
      <trkpt lat="41.7169230" lon="-8.8644590">
        <ele>3.9</ele>
        <time>2021-05-18T06:44:40Z</time>
      </trkpt>
      <trkpt lat="41.7169290" lon="-8.8644730">
        <ele>3.9</ele>
        <time>2021-05-18T06:44:41Z</time>
      </trkpt>
      <trkpt lat="41.7169370" lon="-8.8644870">
        <ele>3.9</ele>
        <time>2021-05-18T06:44:42Z</time>
      </trkpt>
      <trkpt lat="41.7169380" lon="-8.8645090">
        <ele>3.9</ele>
        <time>2021-05-18T06:44:43Z</time>
      </trkpt>
      <trkpt lat="41.7169470" lon="-8.8645390">
        <ele>3.9</ele>
        <time>2021-05-18T06:44:44Z</time>
      </trkpt>
      <trkpt lat="41.7169510" lon="-8.8645520">
        <ele>3.9</ele>
        <time>2021-05-18T06:44:45Z</time>
      </trkpt>
      <trkpt lat="41.7169550" lon="-8.8645650">
        <ele>3.9</ele>
        <time>2021-05-18T06:44:46Z</time>
      </trkpt>
      <trkpt lat="41.7169580" lon="-8.8645840">
        <ele>3.9</ele>
        <time>2021-05-18T06:44:47Z</time>
      </trkpt>
      <trkpt lat="41.7169690" lon="-8.8646000">
        <ele>4.0</ele>
        <time>2021-05-18T06:44:48Z</time>
      </trkpt>
      <trkpt lat="41.7169720" lon="-8.8646220">
        <ele>4.0</ele>
        <time>2021-05-18T06:44:49Z</time>
      </trkpt>
      <trkpt lat="41.7169770" lon="-8.8646410">
        <ele>4.0</ele>
        <time>2021-05-18T06:44:50Z</time>
      </trkpt>
      <trkpt lat="41.7169830" lon="-8.8646600">
        <ele>4.0</ele>
        <time>2021-05-18T06:44:51Z</time>
      </trkpt>
      <trkpt lat="41.7169870" lon="-8.8646800">
        <ele>4.0</ele>
        <time>2021-05-18T06:44:52Z</time>
      </trkpt>
      <trkpt lat="41.7169940" lon="-8.8647070">
        <ele>4.0</ele>
        <time>2021-05-18T06:44:53Z</time>
      </trkpt>
      <trkpt lat="41.7169970" lon="-8.8647190">
        <ele>4.0</ele>
        <time>2021-05-18T06:44:54Z</time>
      </trkpt>
      <trkpt lat="41.7170000" lon="-8.8647300">
        <ele>4.0</ele>
        <time>2021-05-18T06:44:55Z</time>
      </trkpt>
      <trkpt lat="41.7170060" lon="-8.8647510">
        <ele>4.0</ele>
        <time>2021-05-18T06:44:56Z</time>
      </trkpt>
      <trkpt lat="41.7170100" lon="-8.8647710">
        <ele>4.1</ele>
        <time>2021-05-18T06:44:57Z</time>
      </trkpt>
      <trkpt lat="41.7170170" lon="-8.8647870">
        <ele>4.1</ele>
        <time>2021-05-18T06:44:58Z</time>
      </trkpt>
      <trkpt lat="41.7170230" lon="-8.8648050">
        <ele>4.1</ele>
        <time>2021-05-18T06:44:59Z</time>
      </trkpt>
      <trkpt lat="41.7170270" lon="-8.8648240">
        <ele>4.1</ele>
        <time>2021-05-18T06:45:00Z</time>
      </trkpt>
      <trkpt lat="41.7170290" lon="-8.8648460">
        <ele>4.1</ele>
        <time>2021-05-18T06:45:01Z</time>
      </trkpt>
      <trkpt lat="41.7170330" lon="-8.8648670">
        <ele>4.1</ele>
        <time>2021-05-18T06:45:02Z</time>
      </trkpt>
      <trkpt lat="41.7170380" lon="-8.8648840">
        <ele>4.1</ele>
        <time>2021-05-18T06:45:03Z</time>
      </trkpt>
      <trkpt lat="41.7170490" lon="-8.8649210">
        <ele>4.1</ele>
        <time>2021-05-18T06:45:04Z</time>
      </trkpt>
      <trkpt lat="41.7170550" lon="-8.8649370">
        <ele>4.2</ele>
        <time>2021-05-18T06:45:05Z</time>
      </trkpt>
      <trkpt lat="41.7170630" lon="-8.8649540">
        <ele>4.2</ele>
        <time>2021-05-18T06:45:06Z</time>
      </trkpt>
      <trkpt lat="41.7170690" lon="-8.8649710">
        <ele>4.2</ele>
        <time>2021-05-18T06:45:07Z</time>
      </trkpt>
      <trkpt lat="41.7170730" lon="-8.8649890">
        <ele>4.2</ele>
        <time>2021-05-18T06:45:08Z</time>
      </trkpt>
      <trkpt lat="41.7170780" lon="-8.8650090">
        <ele>4.2</ele>
        <time>2021-05-18T06:45:09Z</time>
      </trkpt>
      <trkpt lat="41.7170850" lon="-8.8650260">
        <ele>4.2</ele>
        <time>2021-05-18T06:45:10Z</time>
      </trkpt>
      <trkpt lat="41.7170930" lon="-8.8650530">
        <ele>4.3</ele>
        <time>2021-05-18T06:45:11Z</time>
      </trkpt>
      <trkpt lat="41.7170970" lon="-8.8650640">
        <ele>4.3</ele>
        <time>2021-05-18T06:45:12Z</time>
      </trkpt>
      <trkpt lat="41.7171000" lon="-8.8650750">
        <ele>4.3</ele>
        <time>2021-05-18T06:45:13Z</time>
      </trkpt>
      <trkpt lat="41.7171070" lon="-8.8651040">
        <ele>4.3</ele>
        <time>2021-05-18T06:45:14Z</time>
      </trkpt>
      <trkpt lat="41.7171090" lon="-8.8651170">
        <ele>4.3</ele>
        <time>2021-05-18T06:45:15Z</time>
      </trkpt>
      <trkpt lat="41.7171110" lon="-8.8651310">
        <ele>4.3</ele>
        <time>2021-05-18T06:45:16Z</time>
      </trkpt>
      <trkpt lat="41.7171200" lon="-8.8651460">
        <ele>4.4</ele>
        <time>2021-05-18T06:45:17Z</time>
      </trkpt>
      <trkpt lat="41.7171290" lon="-8.8651600">
        <ele>4.4</ele>
        <time>2021-05-18T06:45:18Z</time>
      </trkpt>
      <trkpt lat="41.7171360" lon="-8.8651760">
        <ele>4.4</ele>
        <time>2021-05-18T06:45:19Z</time>
      </trkpt>
      <trkpt lat="41.7171390" lon="-8.8651980">
        <ele>4.4</ele>
        <time>2021-05-18T06:45:20Z</time>
      </trkpt>
      <trkpt lat="41.7171460" lon="-8.8652140">
        <ele>4.4</ele>
        <time>2021-05-18T06:45:21Z</time>
      </trkpt>
      <trkpt lat="41.7171540" lon="-8.8652290">
        <ele>4.5</ele>
        <time>2021-05-18T06:45:22Z</time>
      </trkpt>
      <trkpt lat="41.7171620" lon="-8.8652450">
        <ele>4.5</ele>
        <time>2021-05-18T06:45:23Z</time>
      </trkpt>
      <trkpt lat="41.7171680" lon="-8.8652600">
        <ele>4.5</ele>
        <time>2021-05-18T06:45:24Z</time>
      </trkpt>
      <trkpt lat="41.7171710" lon="-8.8652780">
        <ele>4.5</ele>
        <time>2021-05-18T06:45:25Z</time>
      </trkpt>
      <trkpt lat="41.7171780" lon="-8.8652960">
        <ele>4.5</ele>
        <time>2021-05-18T06:45:26Z</time>
      </trkpt>
      <trkpt lat="41.7171900" lon="-8.8653110">
        <ele>4.5</ele>
        <time>2021-05-18T06:45:27Z</time>
      </trkpt>
      <trkpt lat="41.7171990" lon="-8.8653270">
        <ele>4.5</ele>
        <time>2021-05-18T06:45:28Z</time>
      </trkpt>
      <trkpt lat="41.7172080" lon="-8.8653420">
        <ele>4.6</ele>
        <time>2021-05-18T06:45:29Z</time>
      </trkpt>
      <trkpt lat="41.7172210" lon="-8.8653530">
        <ele>4.6</ele>
        <time>2021-05-18T06:45:30Z</time>
      </trkpt>
      <trkpt lat="41.7172330" lon="-8.8653790">
        <ele>4.6</ele>
        <time>2021-05-18T06:45:31Z</time>
      </trkpt>
      <trkpt lat="41.7172370" lon="-8.8653900">
        <ele>4.6</ele>
        <time>2021-05-18T06:45:32Z</time>
      </trkpt>
      <trkpt lat="41.7172420" lon="-8.8654010">
        <ele>4.6</ele>
        <time>2021-05-18T06:45:33Z</time>
      </trkpt>
      <trkpt lat="41.7172520" lon="-8.8654270">
        <ele>4.6</ele>
        <time>2021-05-18T06:45:34Z</time>
      </trkpt>
      <trkpt lat="41.7172560" lon="-8.8654380">
        <ele>4.6</ele>
        <time>2021-05-18T06:45:35Z</time>
      </trkpt>
      <trkpt lat="41.7172610" lon="-8.8654480">
        <ele>4.6</ele>
        <time>2021-05-18T06:45:36Z</time>
      </trkpt>
      <trkpt lat="41.7172720" lon="-8.8654600">
        <ele>4.7</ele>
        <time>2021-05-18T06:45:37Z</time>
      </trkpt>
      <trkpt lat="41.7172770" lon="-8.8654790">
        <ele>4.7</ele>
        <time>2021-05-18T06:45:38Z</time>
      </trkpt>
      <trkpt lat="41.7172840" lon="-8.8654950">
        <ele>4.7</ele>
        <time>2021-05-18T06:45:39Z</time>
      </trkpt>
      <trkpt lat="41.7172930" lon="-8.8655100">
        <ele>4.7</ele>
        <time>2021-05-18T06:45:41Z</time>
      </trkpt>
      <trkpt lat="41.7172980" lon="-8.8655250">
        <ele>4.7</ele>
        <time>2021-05-18T06:45:42Z</time>
      </trkpt>
      <trkpt lat="41.7173070" lon="-8.8655430">
        <ele>4.7</ele>
        <time>2021-05-18T06:45:43Z</time>
      </trkpt>
      <trkpt lat="41.7173200" lon="-8.8655530">
        <ele>4.7</ele>
        <time>2021-05-18T06:45:44Z</time>
      </trkpt>
      <trkpt lat="41.7173260" lon="-8.8655690">
        <ele>4.7</ele>
        <time>2021-05-18T06:45:45Z</time>
      </trkpt>
      <trkpt lat="41.7173360" lon="-8.8655790">
        <ele>4.7</ele>
        <time>2021-05-18T06:45:46Z</time>
      </trkpt>
      <trkpt lat="41.7173440" lon="-8.8655970">
        <ele>4.7</ele>
        <time>2021-05-18T06:45:47Z</time>
      </trkpt>
      <trkpt lat="41.7173560" lon="-8.8656080">
        <ele>4.7</ele>
        <time>2021-05-18T06:45:48Z</time>
      </trkpt>
      <trkpt lat="41.7173630" lon="-8.8656230">
        <ele>4.7</ele>
        <time>2021-05-18T06:45:49Z</time>
      </trkpt>
      <trkpt lat="41.7173720" lon="-8.8656400">
        <ele>4.7</ele>
        <time>2021-05-18T06:45:50Z</time>
      </trkpt>
      <trkpt lat="41.7173800" lon="-8.8656530">
        <ele>4.7</ele>
        <time>2021-05-18T06:45:51Z</time>
      </trkpt>
      <trkpt lat="41.7173950" lon="-8.8656730">
        <ele>4.7</ele>
        <time>2021-05-18T06:45:52Z</time>
      </trkpt>
      <trkpt lat="41.7174010" lon="-8.8656820">
        <ele>4.7</ele>
        <time>2021-05-18T06:45:53Z</time>
      </trkpt>
      <trkpt lat="41.7174070" lon="-8.8656910">
        <ele>4.7</ele>
        <time>2021-05-18T06:45:54Z</time>
      </trkpt>
      <trkpt lat="41.7174190" lon="-8.8657150">
        <ele>4.7</ele>
        <time>2021-05-18T06:45:55Z</time>
      </trkpt>
      <trkpt lat="41.7174260" lon="-8.8657250">
        <ele>4.7</ele>
        <time>2021-05-18T06:45:56Z</time>
      </trkpt>
      <trkpt lat="41.7174330" lon="-8.8657340">
        <ele>4.7</ele>
        <time>2021-05-18T06:45:57Z</time>
      </trkpt>
      <trkpt lat="41.7174460" lon="-8.8657470">
        <ele>4.7</ele>
        <time>2021-05-18T06:45:58Z</time>
      </trkpt>
      <trkpt lat="41.7174560" lon="-8.8657590">
        <ele>4.7</ele>
        <time>2021-05-18T06:45:59Z</time>
      </trkpt>
      <trkpt lat="41.7174680" lon="-8.8657690">
        <ele>4.7</ele>
        <time>2021-05-18T06:46:00Z</time>
      </trkpt>
      <trkpt lat="41.7174850" lon="-8.8657730">
        <ele>4.7</ele>
        <time>2021-05-18T06:46:01Z</time>
      </trkpt>
      <trkpt lat="41.7174950" lon="-8.8657800">
        <ele>4.7</ele>
        <time>2021-05-18T06:46:02Z</time>
      </trkpt>
      <trkpt lat="41.7175110" lon="-8.8657840">
        <ele>4.7</ele>
        <time>2021-05-18T06:46:03Z</time>
      </trkpt>
      <trkpt lat="41.7175290" lon="-8.8657830">
        <ele>4.7</ele>
        <time>2021-05-18T06:46:04Z</time>
      </trkpt>
      <trkpt lat="41.7175440" lon="-8.8657820">
        <ele>4.7</ele>
        <time>2021-05-18T06:46:05Z</time>
      </trkpt>
      <trkpt lat="41.7175600" lon="-8.8657800">
        <ele>4.7</ele>
        <time>2021-05-18T06:46:06Z</time>
      </trkpt>
      <trkpt lat="41.7175730" lon="-8.8657760">
        <ele>4.7</ele>
        <time>2021-05-18T06:46:07Z</time>
      </trkpt>
      <trkpt lat="41.7175900" lon="-8.8657780">
        <ele>4.7</ele>
        <time>2021-05-18T06:46:08Z</time>
      </trkpt>
      <trkpt lat="41.7176060" lon="-8.8657790">
        <ele>4.7</ele>
        <time>2021-05-18T06:46:09Z</time>
      </trkpt>
      <trkpt lat="41.7176290" lon="-8.8657810">
        <ele>4.7</ele>
        <time>2021-05-18T06:46:10Z</time>
      </trkpt>
      <trkpt lat="41.7176390" lon="-8.8657810">
        <ele>4.7</ele>
        <time>2021-05-18T06:46:11Z</time>
      </trkpt>
      <trkpt lat="41.7176480" lon="-8.8657810">
        <ele>4.7</ele>
        <time>2021-05-18T06:46:12Z</time>
      </trkpt>
      <trkpt lat="41.7176700" lon="-8.8657860">
        <ele>4.7</ele>
        <time>2021-05-18T06:46:13Z</time>
      </trkpt>
      <trkpt lat="41.7176800" lon="-8.8657880">
        <ele>4.7</ele>
        <time>2021-05-18T06:46:14Z</time>
      </trkpt>
      <trkpt lat="41.7176890" lon="-8.8657910">
        <ele>4.7</ele>
        <time>2021-05-18T06:46:15Z</time>
      </trkpt>
      <trkpt lat="41.7177110" lon="-8.8657980">
        <ele>4.7</ele>
        <time>2021-05-18T06:46:16Z</time>
      </trkpt>
      <trkpt lat="41.7177190" lon="-8.8657990">
        <ele>4.7</ele>
        <time>2021-05-18T06:46:17Z</time>
      </trkpt>
      <trkpt lat="41.7177280" lon="-8.8658000">
        <ele>4.7</ele>
        <time>2021-05-18T06:46:18Z</time>
      </trkpt>
      <trkpt lat="41.7177470" lon="-8.8658090">
        <ele>4.7</ele>
        <time>2021-05-18T06:46:19Z</time>
      </trkpt>
      <trkpt lat="41.7177570" lon="-8.8658110">
        <ele>4.7</ele>
        <time>2021-05-18T06:46:20Z</time>
      </trkpt>
      <trkpt lat="41.7177660" lon="-8.8658140">
        <ele>4.7</ele>
        <time>2021-05-18T06:46:21Z</time>
      </trkpt>
      <trkpt lat="41.7177860" lon="-8.8658270">
        <ele>4.7</ele>
        <time>2021-05-18T06:46:22Z</time>
      </trkpt>
      <trkpt lat="41.7177930" lon="-8.8658340">
        <ele>4.7</ele>
        <time>2021-05-18T06:46:23Z</time>
      </trkpt>
      <trkpt lat="41.7178010" lon="-8.8658400">
        <ele>4.7</ele>
        <time>2021-05-18T06:46:24Z</time>
      </trkpt>
      <trkpt lat="41.7178190" lon="-8.8658540">
        <ele>4.7</ele>
        <time>2021-05-18T06:46:25Z</time>
      </trkpt>
      <trkpt lat="41.7178270" lon="-8.8658590">
        <ele>4.7</ele>
        <time>2021-05-18T06:46:26Z</time>
      </trkpt>
      <trkpt lat="41.7178360" lon="-8.8658630">
        <ele>4.7</ele>
        <time>2021-05-18T06:46:27Z</time>
      </trkpt>
      <trkpt lat="41.7178460" lon="-8.8658780">
        <ele>4.7</ele>
        <time>2021-05-18T06:46:28Z</time>
      </trkpt>
      <trkpt lat="41.7178570" lon="-8.8658880">
        <ele>4.7</ele>
        <time>2021-05-18T06:46:29Z</time>
      </trkpt>
      <trkpt lat="41.7178660" lon="-8.8658970">
        <ele>4.7</ele>
        <time>2021-05-18T06:46:30Z</time>
      </trkpt>
      <trkpt lat="41.7178810" lon="-8.8659050">
        <ele>4.7</ele>
        <time>2021-05-18T06:46:31Z</time>
      </trkpt>
      <trkpt lat="41.7178960" lon="-8.8659120">
        <ele>4.7</ele>
        <time>2021-05-18T06:46:32Z</time>
      </trkpt>
      <trkpt lat="41.7179060" lon="-8.8659200">
        <ele>4.7</ele>
        <time>2021-05-18T06:46:33Z</time>
      </trkpt>
      <trkpt lat="41.7179170" lon="-8.8659290">
        <ele>4.7</ele>
        <time>2021-05-18T06:46:34Z</time>
      </trkpt>
      <trkpt lat="41.7179320" lon="-8.8659380">
        <ele>4.7</ele>
        <time>2021-05-18T06:46:35Z</time>
      </trkpt>
      <trkpt lat="41.7179460" lon="-8.8659450">
        <ele>4.8</ele>
        <time>2021-05-18T06:46:36Z</time>
      </trkpt>
      <trkpt lat="41.7179590" lon="-8.8659560">
        <ele>4.8</ele>
        <time>2021-05-18T06:46:37Z</time>
      </trkpt>
      <trkpt lat="41.7179720" lon="-8.8659630">
        <ele>4.8</ele>
        <time>2021-05-18T06:46:38Z</time>
      </trkpt>
      <trkpt lat="41.7179860" lon="-8.8659730">
        <ele>4.8</ele>
        <time>2021-05-18T06:46:39Z</time>
      </trkpt>
      <trkpt lat="41.7180020" lon="-8.8659750">
        <ele>4.8</ele>
        <time>2021-05-18T06:46:40Z</time>
      </trkpt>
      <trkpt lat="41.7180130" lon="-8.8659820">
        <ele>4.8</ele>
        <time>2021-05-18T06:46:41Z</time>
      </trkpt>
      <trkpt lat="41.7180270" lon="-8.8659860">
        <ele>4.8</ele>
        <time>2021-05-18T06:46:42Z</time>
      </trkpt>
      <trkpt lat="41.7180410" lon="-8.8659920">
        <ele>4.8</ele>
        <time>2021-05-18T06:46:43Z</time>
      </trkpt>
      <trkpt lat="41.7180640" lon="-8.8659970">
        <ele>4.8</ele>
        <time>2021-05-18T06:46:44Z</time>
      </trkpt>
      <trkpt lat="41.7180720" lon="-8.8659950">
        <ele>4.8</ele>
        <time>2021-05-18T06:46:45Z</time>
      </trkpt>
      <trkpt lat="41.7180810" lon="-8.8659940">
        <ele>4.8</ele>
        <time>2021-05-18T06:46:46Z</time>
      </trkpt>
      <trkpt lat="41.7180900" lon="-8.8659950">
        <ele>4.8</ele>
        <time>2021-05-18T06:46:47Z</time>
      </trkpt>
      <trkpt lat="41.7180980" lon="-8.8660030">
        <ele>4.8</ele>
        <time>2021-05-18T06:46:48Z</time>
      </trkpt>
      <trkpt lat="41.7181080" lon="-8.8660040">
        <ele>4.8</ele>
        <time>2021-05-18T06:46:49Z</time>
      </trkpt>
      <trkpt lat="41.7181190" lon="-8.8660060">
        <ele>4.8</ele>
        <time>2021-05-18T06:46:50Z</time>
      </trkpt>
      <trkpt lat="41.7181320" lon="-8.8660110">
        <ele>4.8</ele>
        <time>2021-05-18T06:46:51Z</time>
      </trkpt>
      <trkpt lat="41.7181390" lon="-8.8660160">
        <ele>4.8</ele>
        <time>2021-05-18T06:46:52Z</time>
      </trkpt>
      <trkpt lat="41.7181650" lon="-8.8660250">
        <ele>4.8</ele>
        <time>2021-05-18T06:46:53Z</time>
      </trkpt>
      <trkpt lat="41.7181730" lon="-8.8660300">
        <ele>4.8</ele>
        <time>2021-05-18T06:46:54Z</time>
      </trkpt>
      <trkpt lat="41.7181940" lon="-8.8660400">
        <ele>4.8</ele>
        <time>2021-05-18T06:46:55Z</time>
      </trkpt>
      <trkpt lat="41.7182030" lon="-8.8660450">
        <ele>4.8</ele>
        <time>2021-05-18T06:46:56Z</time>
      </trkpt>
      <trkpt lat="41.7182120" lon="-8.8660500">
        <ele>4.8</ele>
        <time>2021-05-18T06:46:57Z</time>
      </trkpt>
      <trkpt lat="41.7182270" lon="-8.8660540">
        <ele>4.8</ele>
        <time>2021-05-18T06:46:58Z</time>
      </trkpt>
      <trkpt lat="41.7182400" lon="-8.8660590">
        <ele>4.8</ele>
        <time>2021-05-18T06:46:59Z</time>
      </trkpt>
      <trkpt lat="41.7182550" lon="-8.8660630">
        <ele>4.8</ele>
        <time>2021-05-18T06:47:00Z</time>
      </trkpt>
      <trkpt lat="41.7182690" lon="-8.8660700">
        <ele>4.8</ele>
        <time>2021-05-18T06:47:01Z</time>
      </trkpt>
      <trkpt lat="41.7182830" lon="-8.8660740">
        <ele>4.8</ele>
        <time>2021-05-18T06:47:02Z</time>
      </trkpt>
      <trkpt lat="41.7182950" lon="-8.8660830">
        <ele>4.8</ele>
        <time>2021-05-18T06:47:03Z</time>
      </trkpt>
      <trkpt lat="41.7183100" lon="-8.8660880">
        <ele>4.8</ele>
        <time>2021-05-18T06:47:04Z</time>
      </trkpt>
      <trkpt lat="41.7183260" lon="-8.8660930">
        <ele>4.8</ele>
        <time>2021-05-18T06:47:05Z</time>
      </trkpt>
      <trkpt lat="41.7183380" lon="-8.8661020">
        <ele>4.8</ele>
        <time>2021-05-18T06:47:06Z</time>
      </trkpt>
      <trkpt lat="41.7183510" lon="-8.8661110">
        <ele>4.8</ele>
        <time>2021-05-18T06:47:07Z</time>
      </trkpt>
      <trkpt lat="41.7183640" lon="-8.8661170">
        <ele>4.8</ele>
        <time>2021-05-18T06:47:08Z</time>
      </trkpt>
      <trkpt lat="41.7183780" lon="-8.8661240">
        <ele>4.8</ele>
        <time>2021-05-18T06:47:09Z</time>
      </trkpt>
      <trkpt lat="41.7183900" lon="-8.8661270">
        <ele>4.8</ele>
        <time>2021-05-18T06:47:10Z</time>
      </trkpt>
      <trkpt lat="41.7184060" lon="-8.8661350">
        <ele>4.8</ele>
        <time>2021-05-18T06:47:11Z</time>
      </trkpt>
      <trkpt lat="41.7184210" lon="-8.8661420">
        <ele>4.8</ele>
        <time>2021-05-18T06:47:12Z</time>
      </trkpt>
      <trkpt lat="41.7184320" lon="-8.8661540">
        <ele>4.8</ele>
        <time>2021-05-18T06:47:13Z</time>
      </trkpt>
      <trkpt lat="41.7184530" lon="-8.8661620">
        <ele>4.8</ele>
        <time>2021-05-18T06:47:14Z</time>
      </trkpt>
      <trkpt lat="41.7184620" lon="-8.8661650">
        <ele>4.8</ele>
        <time>2021-05-18T06:47:15Z</time>
      </trkpt>
      <trkpt lat="41.7184710" lon="-8.8661690">
        <ele>4.8</ele>
        <time>2021-05-18T06:47:16Z</time>
      </trkpt>
      <trkpt lat="41.7184850" lon="-8.8661770">
        <ele>4.8</ele>
        <time>2021-05-18T06:47:17Z</time>
      </trkpt>
      <trkpt lat="41.7184980" lon="-8.8661840">
        <ele>4.8</ele>
        <time>2021-05-18T06:47:18Z</time>
      </trkpt>
      <trkpt lat="41.7185110" lon="-8.8661870">
        <ele>4.8</ele>
        <time>2021-05-18T06:47:19Z</time>
      </trkpt>
      <trkpt lat="41.7185250" lon="-8.8661930">
        <ele>4.8</ele>
        <time>2021-05-18T06:47:20Z</time>
      </trkpt>
      <trkpt lat="41.7185450" lon="-8.8662020">
        <ele>4.8</ele>
        <time>2021-05-18T06:47:21Z</time>
      </trkpt>
      <trkpt lat="41.7185540" lon="-8.8662070">
        <ele>4.8</ele>
        <time>2021-05-18T06:47:22Z</time>
      </trkpt>
      <trkpt lat="41.7185620" lon="-8.8662130">
        <ele>4.8</ele>
        <time>2021-05-18T06:47:23Z</time>
      </trkpt>
      <trkpt lat="41.7185810" lon="-8.8662200">
        <ele>4.8</ele>
        <time>2021-05-18T06:47:24Z</time>
      </trkpt>
      <trkpt lat="41.7185900" lon="-8.8662240">
        <ele>4.8</ele>
        <time>2021-05-18T06:47:25Z</time>
      </trkpt>
      <trkpt lat="41.7185990" lon="-8.8662270">
        <ele>4.8</ele>
        <time>2021-05-18T06:47:26Z</time>
      </trkpt>
      <trkpt lat="41.7186130" lon="-8.8662320">
        <ele>4.8</ele>
        <time>2021-05-18T06:47:27Z</time>
      </trkpt>
      <trkpt lat="41.7186270" lon="-8.8662370">
        <ele>4.8</ele>
        <time>2021-05-18T06:47:28Z</time>
      </trkpt>
      <trkpt lat="41.7186400" lon="-8.8662470">
        <ele>4.8</ele>
        <time>2021-05-18T06:47:29Z</time>
      </trkpt>
      <trkpt lat="41.7186510" lon="-8.8662540">
        <ele>4.8</ele>
        <time>2021-05-18T06:47:30Z</time>
      </trkpt>
      <trkpt lat="41.7186660" lon="-8.8662590">
        <ele>4.8</ele>
        <time>2021-05-18T06:47:31Z</time>
      </trkpt>
      <trkpt lat="41.7186780" lon="-8.8662670">
        <ele>4.8</ele>
        <time>2021-05-18T06:47:32Z</time>
      </trkpt>
      <trkpt lat="41.7186890" lon="-8.8662740">
        <ele>4.8</ele>
        <time>2021-05-18T06:47:33Z</time>
      </trkpt>
      <trkpt lat="41.7187040" lon="-8.8662780">
        <ele>4.8</ele>
        <time>2021-05-18T06:47:34Z</time>
      </trkpt>
      <trkpt lat="41.7187270" lon="-8.8662860">
        <ele>4.8</ele>
        <time>2021-05-18T06:47:35Z</time>
      </trkpt>
      <trkpt lat="41.7187350" lon="-8.8662900">
        <ele>4.8</ele>
        <time>2021-05-18T06:47:36Z</time>
      </trkpt>
      <trkpt lat="41.7187420" lon="-8.8662940">
        <ele>4.8</ele>
        <time>2021-05-18T06:47:37Z</time>
      </trkpt>
      <trkpt lat="41.7187570" lon="-8.8663020">
        <ele>4.8</ele>
        <time>2021-05-18T06:47:38Z</time>
      </trkpt>
      <trkpt lat="41.7187720" lon="-8.8663080">
        <ele>4.8</ele>
        <time>2021-05-18T06:47:39Z</time>
      </trkpt>
      <trkpt lat="41.7187870" lon="-8.8663110">
        <ele>4.8</ele>
        <time>2021-05-18T06:47:40Z</time>
      </trkpt>
      <trkpt lat="41.7188010" lon="-8.8663200">
        <ele>4.8</ele>
        <time>2021-05-18T06:47:41Z</time>
      </trkpt>
      <trkpt lat="41.7188160" lon="-8.8663250">
        <ele>4.8</ele>
        <time>2021-05-18T06:47:42Z</time>
      </trkpt>
      <trkpt lat="41.7188290" lon="-8.8663340">
        <ele>4.8</ele>
        <time>2021-05-18T06:47:43Z</time>
      </trkpt>
      <trkpt lat="41.7188500" lon="-8.8663450">
        <ele>4.8</ele>
        <time>2021-05-18T06:47:44Z</time>
      </trkpt>
      <trkpt lat="41.7188580" lon="-8.8663510">
        <ele>4.8</ele>
        <time>2021-05-18T06:47:45Z</time>
      </trkpt>
      <trkpt lat="41.7188670" lon="-8.8663570">
        <ele>4.8</ele>
        <time>2021-05-18T06:47:46Z</time>
      </trkpt>
      <trkpt lat="41.7188870" lon="-8.8663690">
        <ele>4.7</ele>
        <time>2021-05-18T06:47:47Z</time>
      </trkpt>
      <trkpt lat="41.7188950" lon="-8.8663730">
        <ele>4.7</ele>
        <time>2021-05-18T06:47:48Z</time>
      </trkpt>
      <trkpt lat="41.7189020" lon="-8.8663780">
        <ele>4.7</ele>
        <time>2021-05-18T06:47:49Z</time>
      </trkpt>
      <trkpt lat="41.7189150" lon="-8.8663830">
        <ele>4.7</ele>
        <time>2021-05-18T06:47:50Z</time>
      </trkpt>
      <trkpt lat="41.7189290" lon="-8.8663910">
        <ele>4.7</ele>
        <time>2021-05-18T06:47:51Z</time>
      </trkpt>
      <trkpt lat="41.7189430" lon="-8.8663960">
        <ele>4.7</ele>
        <time>2021-05-18T06:47:52Z</time>
      </trkpt>
      <trkpt lat="41.7189560" lon="-8.8663980">
        <ele>4.7</ele>
        <time>2021-05-18T06:47:53Z</time>
      </trkpt>
      <trkpt lat="41.7189770" lon="-8.8664040">
        <ele>4.7</ele>
        <time>2021-05-18T06:47:54Z</time>
      </trkpt>
      <trkpt lat="41.7189860" lon="-8.8664080">
        <ele>4.7</ele>
        <time>2021-05-18T06:47:55Z</time>
      </trkpt>
      <trkpt lat="41.7189940" lon="-8.8664120">
        <ele>4.7</ele>
        <time>2021-05-18T06:47:56Z</time>
      </trkpt>
      <trkpt lat="41.7190070" lon="-8.8664180">
        <ele>4.7</ele>
        <time>2021-05-18T06:47:57Z</time>
      </trkpt>
      <trkpt lat="41.7190230" lon="-8.8664170">
        <ele>4.7</ele>
        <time>2021-05-18T06:47:58Z</time>
      </trkpt>
      <trkpt lat="41.7190350" lon="-8.8664190">
        <ele>4.7</ele>
        <time>2021-05-18T06:47:59Z</time>
      </trkpt>
      <trkpt lat="41.7190510" lon="-8.8664210">
        <ele>4.7</ele>
        <time>2021-05-18T06:48:00Z</time>
      </trkpt>
      <trkpt lat="41.7190730" lon="-8.8664250">
        <ele>4.6</ele>
        <time>2021-05-18T06:48:01Z</time>
      </trkpt>
      <trkpt lat="41.7190820" lon="-8.8664260">
        <ele>4.6</ele>
        <time>2021-05-18T06:48:02Z</time>
      </trkpt>
      <trkpt lat="41.7190910" lon="-8.8664260">
        <ele>4.6</ele>
        <time>2021-05-18T06:48:03Z</time>
      </trkpt>
      <trkpt lat="41.7191020" lon="-8.8664260">
        <ele>4.6</ele>
        <time>2021-05-18T06:48:04Z</time>
      </trkpt>
      <trkpt lat="41.7191180" lon="-8.8664340">
        <ele>4.6</ele>
        <time>2021-05-18T06:48:05Z</time>
      </trkpt>
      <trkpt lat="41.7191320" lon="-8.8664340">
        <ele>4.6</ele>
        <time>2021-05-18T06:48:06Z</time>
      </trkpt>
      <trkpt lat="41.7191460" lon="-8.8664320">
        <ele>4.6</ele>
        <time>2021-05-18T06:48:07Z</time>
      </trkpt>
      <trkpt lat="41.7191610" lon="-8.8664300">
        <ele>4.6</ele>
        <time>2021-05-18T06:48:08Z</time>
      </trkpt>
      <trkpt lat="41.7191740" lon="-8.8664350">
        <ele>4.6</ele>
        <time>2021-05-18T06:48:09Z</time>
      </trkpt>
      <trkpt lat="41.7191870" lon="-8.8664310">
        <ele>4.6</ele>
        <time>2021-05-18T06:48:10Z</time>
      </trkpt>
      <trkpt lat="41.7192030" lon="-8.8664290">
        <ele>4.6</ele>
        <time>2021-05-18T06:48:11Z</time>
      </trkpt>
      <trkpt lat="41.7192160" lon="-8.8664240">
        <ele>4.6</ele>
        <time>2021-05-18T06:48:12Z</time>
      </trkpt>
      <trkpt lat="41.7192300" lon="-8.8664180">
        <ele>4.6</ele>
        <time>2021-05-18T06:48:13Z</time>
      </trkpt>
      <trkpt lat="41.7192440" lon="-8.8664140">
        <ele>4.6</ele>
        <time>2021-05-18T06:48:14Z</time>
      </trkpt>
      <trkpt lat="41.7192580" lon="-8.8664090">
        <ele>4.6</ele>
        <time>2021-05-18T06:48:15Z</time>
      </trkpt>
      <trkpt lat="41.7192690" lon="-8.8664040">
        <ele>4.5</ele>
        <time>2021-05-18T06:48:16Z</time>
      </trkpt>
      <trkpt lat="41.7192840" lon="-8.8663950">
        <ele>4.5</ele>
        <time>2021-05-18T06:48:17Z</time>
      </trkpt>
      <trkpt lat="41.7193010" lon="-8.8664000">
        <ele>4.5</ele>
        <time>2021-05-18T06:48:18Z</time>
      </trkpt>
      <trkpt lat="41.7193180" lon="-8.8663970">
        <ele>4.5</ele>
        <time>2021-05-18T06:48:19Z</time>
      </trkpt>
      <trkpt lat="41.7193310" lon="-8.8663960">
        <ele>4.5</ele>
        <time>2021-05-18T06:48:20Z</time>
      </trkpt>
      <trkpt lat="41.7193460" lon="-8.8663880">
        <ele>4.5</ele>
        <time>2021-05-18T06:48:21Z</time>
      </trkpt>
      <trkpt lat="41.7193610" lon="-8.8663850">
        <ele>4.5</ele>
        <time>2021-05-18T06:48:22Z</time>
      </trkpt>
      <trkpt lat="41.7193730" lon="-8.8663800">
        <ele>4.5</ele>
        <time>2021-05-18T06:48:23Z</time>
      </trkpt>
      <trkpt lat="41.7193870" lon="-8.8663750">
        <ele>4.5</ele>
        <time>2021-05-18T06:48:24Z</time>
      </trkpt>
      <trkpt lat="41.7194020" lon="-8.8663680">
        <ele>4.5</ele>
        <time>2021-05-18T06:48:25Z</time>
      </trkpt>
      <trkpt lat="41.7194160" lon="-8.8663710">
        <ele>4.5</ele>
        <time>2021-05-18T06:48:26Z</time>
      </trkpt>
      <trkpt lat="41.7194310" lon="-8.8663760">
        <ele>4.5</ele>
        <time>2021-05-18T06:48:27Z</time>
      </trkpt>
      <trkpt lat="41.7194450" lon="-8.8663750">
        <ele>4.5</ele>
        <time>2021-05-18T06:48:28Z</time>
      </trkpt>
      <trkpt lat="41.7194600" lon="-8.8663770">
        <ele>4.5</ele>
        <time>2021-05-18T06:48:29Z</time>
      </trkpt>
      <trkpt lat="41.7194840" lon="-8.8663790">
        <ele>4.5</ele>
        <time>2021-05-18T06:48:30Z</time>
      </trkpt>
      <trkpt lat="41.7194930" lon="-8.8663790">
        <ele>4.5</ele>
        <time>2021-05-18T06:48:31Z</time>
      </trkpt>
      <trkpt lat="41.7195010" lon="-8.8663790">
        <ele>4.5</ele>
        <time>2021-05-18T06:48:32Z</time>
      </trkpt>
      <trkpt lat="41.7195140" lon="-8.8663830">
        <ele>4.5</ele>
        <time>2021-05-18T06:48:33Z</time>
      </trkpt>
      <trkpt lat="41.7195290" lon="-8.8663840">
        <ele>4.5</ele>
        <time>2021-05-18T06:48:34Z</time>
      </trkpt>
      <trkpt lat="41.7195490" lon="-8.8663890">
        <ele>4.5</ele>
        <time>2021-05-18T06:48:35Z</time>
      </trkpt>
      <trkpt lat="41.7195570" lon="-8.8663910">
        <ele>4.5</ele>
        <time>2021-05-18T06:48:36Z</time>
      </trkpt>
      <trkpt lat="41.7195650" lon="-8.8663930">
        <ele>4.5</ele>
        <time>2021-05-18T06:48:37Z</time>
      </trkpt>
      <trkpt lat="41.7195810" lon="-8.8663930">
        <ele>4.5</ele>
        <time>2021-05-18T06:48:38Z</time>
      </trkpt>
      <trkpt lat="41.7195940" lon="-8.8663960">
        <ele>4.5</ele>
        <time>2021-05-18T06:48:39Z</time>
      </trkpt>
      <trkpt lat="41.7196100" lon="-8.8663970">
        <ele>4.5</ele>
        <time>2021-05-18T06:48:40Z</time>
      </trkpt>
      <trkpt lat="41.7196220" lon="-8.8664060">
        <ele>4.5</ele>
        <time>2021-05-18T06:48:41Z</time>
      </trkpt>
      <trkpt lat="41.7196380" lon="-8.8664050">
        <ele>4.5</ele>
        <time>2021-05-18T06:48:42Z</time>
      </trkpt>
      <trkpt lat="41.7196490" lon="-8.8664100">
        <ele>4.5</ele>
        <time>2021-05-18T06:48:43Z</time>
      </trkpt>
      <trkpt lat="41.7196630" lon="-8.8664120">
        <ele>4.6</ele>
        <time>2021-05-18T06:48:44Z</time>
      </trkpt>
      <trkpt lat="41.7196720" lon="-8.8664140">
        <ele>4.6</ele>
        <time>2021-05-18T06:48:45Z</time>
      </trkpt>
      <trkpt lat="41.7196770" lon="-8.8664170">
        <ele>4.6</ele>
        <time>2021-05-18T06:48:46Z</time>
      </trkpt>
      <trkpt lat="41.7196800" lon="-8.8664180">
        <ele>4.6</ele>
        <time>2021-05-18T06:48:47Z</time>
      </trkpt>
      <trkpt lat="41.7196910" lon="-8.8664220">
        <ele>4.6</ele>
        <time>2021-05-18T06:48:48Z</time>
      </trkpt>
      <trkpt lat="41.7197030" lon="-8.8664260">
        <ele>4.6</ele>
        <time>2021-05-18T06:48:49Z</time>
      </trkpt>
      <trkpt lat="41.7197140" lon="-8.8664300">
        <ele>4.6</ele>
        <time>2021-05-18T06:48:50Z</time>
      </trkpt>
      <trkpt lat="41.7197270" lon="-8.8664380">
        <ele>4.6</ele>
        <time>2021-05-18T06:48:51Z</time>
      </trkpt>
      <trkpt lat="41.7197430" lon="-8.8664390">
        <ele>4.6</ele>
        <time>2021-05-18T06:48:52Z</time>
      </trkpt>
      <trkpt lat="41.7197560" lon="-8.8664440">
        <ele>4.6</ele>
        <time>2021-05-18T06:48:53Z</time>
      </trkpt>
      <trkpt lat="41.7197700" lon="-8.8664480">
        <ele>4.6</ele>
        <time>2021-05-18T06:48:54Z</time>
      </trkpt>
      <trkpt lat="41.7197840" lon="-8.8664510">
        <ele>4.6</ele>
        <time>2021-05-18T06:48:55Z</time>
      </trkpt>
      <trkpt lat="41.7197990" lon="-8.8664530">
        <ele>4.6</ele>
        <time>2021-05-18T06:48:56Z</time>
      </trkpt>
      <trkpt lat="41.7198130" lon="-8.8664550">
        <ele>4.6</ele>
        <time>2021-05-18T06:48:57Z</time>
      </trkpt>
      <trkpt lat="41.7198280" lon="-8.8664530">
        <ele>4.6</ele>
        <time>2021-05-18T06:48:58Z</time>
      </trkpt>
      <trkpt lat="41.7198430" lon="-8.8664600">
        <ele>4.7</ele>
        <time>2021-05-18T06:48:59Z</time>
      </trkpt>
      <trkpt lat="41.7198540" lon="-8.8664610">
        <ele>4.7</ele>
        <time>2021-05-18T06:49:00Z</time>
      </trkpt>
      <trkpt lat="41.7198690" lon="-8.8664660">
        <ele>4.7</ele>
        <time>2021-05-18T06:49:01Z</time>
      </trkpt>
      <trkpt lat="41.7198820" lon="-8.8664710">
        <ele>4.7</ele>
        <time>2021-05-18T06:49:02Z</time>
      </trkpt>
      <trkpt lat="41.7199040" lon="-8.8664800">
        <ele>4.7</ele>
        <time>2021-05-18T06:49:03Z</time>
      </trkpt>
      <trkpt lat="41.7199130" lon="-8.8664830">
        <ele>4.7</ele>
        <time>2021-05-18T06:49:04Z</time>
      </trkpt>
      <trkpt lat="41.7199220" lon="-8.8664870">
        <ele>4.7</ele>
        <time>2021-05-18T06:49:05Z</time>
      </trkpt>
      <trkpt lat="41.7199350" lon="-8.8664930">
        <ele>4.7</ele>
        <time>2021-05-18T06:49:06Z</time>
      </trkpt>
      <trkpt lat="41.7199500" lon="-8.8664990">
        <ele>4.7</ele>
        <time>2021-05-18T06:49:07Z</time>
      </trkpt>
      <trkpt lat="41.7199710" lon="-8.8665090">
        <ele>4.7</ele>
        <time>2021-05-18T06:49:08Z</time>
      </trkpt>
      <trkpt lat="41.7199800" lon="-8.8665130">
        <ele>4.7</ele>
        <time>2021-05-18T06:49:09Z</time>
      </trkpt>
      <trkpt lat="41.7199890" lon="-8.8665160">
        <ele>4.7</ele>
        <time>2021-05-18T06:49:10Z</time>
      </trkpt>
      <trkpt lat="41.7200090" lon="-8.8665280">
        <ele>4.7</ele>
        <time>2021-05-18T06:49:11Z</time>
      </trkpt>
      <trkpt lat="41.7200180" lon="-8.8665340">
        <ele>4.7</ele>
        <time>2021-05-18T06:49:12Z</time>
      </trkpt>
      <trkpt lat="41.7200270" lon="-8.8665390">
        <ele>4.7</ele>
        <time>2021-05-18T06:49:13Z</time>
      </trkpt>
      <trkpt lat="41.7200420" lon="-8.8665450">
        <ele>4.7</ele>
        <time>2021-05-18T06:49:14Z</time>
      </trkpt>
      <trkpt lat="41.7200550" lon="-8.8665510">
        <ele>4.7</ele>
        <time>2021-05-18T06:49:15Z</time>
      </trkpt>
      <trkpt lat="41.7200750" lon="-8.8665610">
        <ele>4.7</ele>
        <time>2021-05-18T06:49:16Z</time>
      </trkpt>
      <trkpt lat="41.7200840" lon="-8.8665640">
        <ele>4.7</ele>
        <time>2021-05-18T06:49:17Z</time>
      </trkpt>
      <trkpt lat="41.7200940" lon="-8.8665660">
        <ele>4.7</ele>
        <time>2021-05-18T06:49:18Z</time>
      </trkpt>
      <trkpt lat="41.7201100" lon="-8.8665730">
        <ele>4.7</ele>
        <time>2021-05-18T06:49:19Z</time>
      </trkpt>
      <trkpt lat="41.7201240" lon="-8.8665850">
        <ele>4.7</ele>
        <time>2021-05-18T06:49:20Z</time>
      </trkpt>
      <trkpt lat="41.7201370" lon="-8.8665920">
        <ele>4.7</ele>
        <time>2021-05-18T06:49:21Z</time>
      </trkpt>
      <trkpt lat="41.7201480" lon="-8.8666040">
        <ele>4.7</ele>
        <time>2021-05-18T06:49:22Z</time>
      </trkpt>
      <trkpt lat="41.7201620" lon="-8.8666140">
        <ele>4.7</ele>
        <time>2021-05-18T06:49:23Z</time>
      </trkpt>
      <trkpt lat="41.7201740" lon="-8.8666250">
        <ele>4.7</ele>
        <time>2021-05-18T06:49:24Z</time>
      </trkpt>
      <trkpt lat="41.7201950" lon="-8.8666370">
        <ele>4.7</ele>
        <time>2021-05-18T06:49:25Z</time>
      </trkpt>
      <trkpt lat="41.7202040" lon="-8.8666410">
        <ele>4.7</ele>
        <time>2021-05-18T06:49:26Z</time>
      </trkpt>
      <trkpt lat="41.7202120" lon="-8.8666460">
        <ele>4.7</ele>
        <time>2021-05-18T06:49:27Z</time>
      </trkpt>
      <trkpt lat="41.7202330" lon="-8.8666550">
        <ele>4.7</ele>
        <time>2021-05-18T06:49:28Z</time>
      </trkpt>
      <trkpt lat="41.7202420" lon="-8.8666590">
        <ele>4.7</ele>
        <time>2021-05-18T06:49:29Z</time>
      </trkpt>
      <trkpt lat="41.7202510" lon="-8.8666620">
        <ele>4.7</ele>
        <time>2021-05-18T06:49:30Z</time>
      </trkpt>
      <trkpt lat="41.7202700" lon="-8.8666730">
        <ele>4.7</ele>
        <time>2021-05-18T06:49:31Z</time>
      </trkpt>
      <trkpt lat="41.7202780" lon="-8.8666800">
        <ele>4.7</ele>
        <time>2021-05-18T06:49:32Z</time>
      </trkpt>
      <trkpt lat="41.7202860" lon="-8.8666870">
        <ele>4.7</ele>
        <time>2021-05-18T06:49:33Z</time>
      </trkpt>
      <trkpt lat="41.7203080" lon="-8.8667020">
        <ele>4.7</ele>
        <time>2021-05-18T06:49:34Z</time>
      </trkpt>
      <trkpt lat="41.7203160" lon="-8.8667080">
        <ele>4.7</ele>
        <time>2021-05-18T06:49:35Z</time>
      </trkpt>
      <trkpt lat="41.7203240" lon="-8.8667130">
        <ele>4.7</ele>
        <time>2021-05-18T06:49:36Z</time>
      </trkpt>
      <trkpt lat="41.7203340" lon="-8.8667220">
        <ele>4.7</ele>
        <time>2021-05-18T06:49:37Z</time>
      </trkpt>
      <trkpt lat="41.7203450" lon="-8.8667350">
        <ele>4.7</ele>
        <time>2021-05-18T06:49:38Z</time>
      </trkpt>
      <trkpt lat="41.7203580" lon="-8.8667420">
        <ele>4.7</ele>
        <time>2021-05-18T06:49:39Z</time>
      </trkpt>
      <trkpt lat="41.7203700" lon="-8.8667530">
        <ele>4.7</ele>
        <time>2021-05-18T06:49:40Z</time>
      </trkpt>
      <trkpt lat="41.7203810" lon="-8.8667620">
        <ele>4.7</ele>
        <time>2021-05-18T06:49:41Z</time>
      </trkpt>
      <trkpt lat="41.7203980" lon="-8.8667630">
        <ele>4.7</ele>
        <time>2021-05-18T06:49:42Z</time>
      </trkpt>
      <trkpt lat="41.7204150" lon="-8.8667790">
        <ele>4.7</ele>
        <time>2021-05-18T06:49:43Z</time>
      </trkpt>
      <trkpt lat="41.7204240" lon="-8.8667840">
        <ele>4.7</ele>
        <time>2021-05-18T06:49:44Z</time>
      </trkpt>
      <trkpt lat="41.7204320" lon="-8.8667880">
        <ele>4.7</ele>
        <time>2021-05-18T06:49:45Z</time>
      </trkpt>
      <trkpt lat="41.7204410" lon="-8.8668000">
        <ele>4.7</ele>
        <time>2021-05-18T06:49:46Z</time>
      </trkpt>
      <trkpt lat="41.7204560" lon="-8.8668060">
        <ele>4.7</ele>
        <time>2021-05-18T06:49:47Z</time>
      </trkpt>
      <trkpt lat="41.7204750" lon="-8.8668180">
        <ele>4.7</ele>
        <time>2021-05-18T06:49:48Z</time>
      </trkpt>
      <trkpt lat="41.7204850" lon="-8.8668210">
        <ele>4.7</ele>
        <time>2021-05-18T06:49:49Z</time>
      </trkpt>
      <trkpt lat="41.7204940" lon="-8.8668240">
        <ele>4.7</ele>
        <time>2021-05-18T06:49:50Z</time>
      </trkpt>
      <trkpt lat="41.7205110" lon="-8.8668430">
        <ele>4.7</ele>
        <time>2021-05-18T06:49:51Z</time>
      </trkpt>
      <trkpt lat="41.7205190" lon="-8.8668480">
        <ele>4.7</ele>
        <time>2021-05-18T06:49:52Z</time>
      </trkpt>
      <trkpt lat="41.7205280" lon="-8.8668540">
        <ele>4.7</ele>
        <time>2021-05-18T06:49:53Z</time>
      </trkpt>
      <trkpt lat="41.7205470" lon="-8.8668670">
        <ele>4.7</ele>
        <time>2021-05-18T06:49:54Z</time>
      </trkpt>
      <trkpt lat="41.7205540" lon="-8.8668720">
        <ele>4.7</ele>
        <time>2021-05-18T06:49:55Z</time>
      </trkpt>
      <trkpt lat="41.7205610" lon="-8.8668770">
        <ele>4.7</ele>
        <time>2021-05-18T06:49:56Z</time>
      </trkpt>
      <trkpt lat="41.7205730" lon="-8.8668910">
        <ele>4.6</ele>
        <time>2021-05-18T06:49:57Z</time>
      </trkpt>
      <trkpt lat="41.7205860" lon="-8.8668990">
        <ele>4.6</ele>
        <time>2021-05-18T06:49:58Z</time>
      </trkpt>
      <trkpt lat="41.7206010" lon="-8.8669100">
        <ele>4.6</ele>
        <time>2021-05-18T06:49:59Z</time>
      </trkpt>
      <trkpt lat="41.7206100" lon="-8.8669200">
        <ele>4.6</ele>
        <time>2021-05-18T06:50:00Z</time>
      </trkpt>
      <trkpt lat="41.7206240" lon="-8.8669280">
        <ele>4.6</ele>
        <time>2021-05-18T06:50:01Z</time>
      </trkpt>
      <trkpt lat="41.7206380" lon="-8.8669340">
        <ele>4.6</ele>
        <time>2021-05-18T06:50:02Z</time>
      </trkpt>
      <trkpt lat="41.7206570" lon="-8.8669500">
        <ele>4.6</ele>
        <time>2021-05-18T06:50:03Z</time>
      </trkpt>
      <trkpt lat="41.7206650" lon="-8.8669560">
        <ele>4.5</ele>
        <time>2021-05-18T06:50:04Z</time>
      </trkpt>
      <trkpt lat="41.7206720" lon="-8.8669630">
        <ele>4.5</ele>
        <time>2021-05-18T06:50:05Z</time>
      </trkpt>
      <trkpt lat="41.7206850" lon="-8.8669700">
        <ele>4.5</ele>
        <time>2021-05-18T06:50:06Z</time>
      </trkpt>
      <trkpt lat="41.7207000" lon="-8.8669750">
        <ele>4.5</ele>
        <time>2021-05-18T06:50:07Z</time>
      </trkpt>
      <trkpt lat="41.7207140" lon="-8.8669810">
        <ele>4.4</ele>
        <time>2021-05-18T06:50:08Z</time>
      </trkpt>
      <trkpt lat="41.7207240" lon="-8.8669920">
        <ele>4.4</ele>
        <time>2021-05-18T06:50:09Z</time>
      </trkpt>
      <trkpt lat="41.7207370" lon="-8.8670010">
        <ele>4.4</ele>
        <time>2021-05-18T06:50:10Z</time>
      </trkpt>
      <trkpt lat="41.7207490" lon="-8.8670080">
        <ele>4.4</ele>
        <time>2021-05-18T06:50:11Z</time>
      </trkpt>
      <trkpt lat="41.7207630" lon="-8.8670140">
        <ele>4.3</ele>
        <time>2021-05-18T06:50:12Z</time>
      </trkpt>
      <trkpt lat="41.7207790" lon="-8.8670220">
        <ele>4.3</ele>
        <time>2021-05-18T06:50:13Z</time>
      </trkpt>
      <trkpt lat="41.7207980" lon="-8.8670360">
        <ele>4.2</ele>
        <time>2021-05-18T06:50:14Z</time>
      </trkpt>
      <trkpt lat="41.7208060" lon="-8.8670410">
        <ele>4.2</ele>
        <time>2021-05-18T06:50:15Z</time>
      </trkpt>
      <trkpt lat="41.7208150" lon="-8.8670450">
        <ele>4.2</ele>
        <time>2021-05-18T06:50:16Z</time>
      </trkpt>
      <trkpt lat="41.7208370" lon="-8.8670520">
        <ele>4.2</ele>
        <time>2021-05-18T06:50:17Z</time>
      </trkpt>
      <trkpt lat="41.7208470" lon="-8.8670550">
        <ele>4.2</ele>
        <time>2021-05-18T06:50:18Z</time>
      </trkpt>
      <trkpt lat="41.7208560" lon="-8.8670570">
        <ele>4.2</ele>
        <time>2021-05-18T06:50:19Z</time>
      </trkpt>
      <trkpt lat="41.7208710" lon="-8.8670570">
        <ele>4.1</ele>
        <time>2021-05-18T06:50:20Z</time>
      </trkpt>
      <trkpt lat="41.7208860" lon="-8.8670570">
        <ele>4.1</ele>
        <time>2021-05-18T06:50:21Z</time>
      </trkpt>
      <trkpt lat="41.7209010" lon="-8.8670570">
        <ele>4.1</ele>
        <time>2021-05-18T06:50:22Z</time>
      </trkpt>
      <trkpt lat="41.7209150" lon="-8.8670600">
        <ele>4.1</ele>
        <time>2021-05-18T06:50:23Z</time>
      </trkpt>
      <trkpt lat="41.7209370" lon="-8.8670640">
        <ele>4.1</ele>
        <time>2021-05-18T06:50:24Z</time>
      </trkpt>
      <trkpt lat="41.7209460" lon="-8.8670650">
        <ele>4.0</ele>
        <time>2021-05-18T06:50:25Z</time>
      </trkpt>
      <trkpt lat="41.7209560" lon="-8.8670650">
        <ele>4.0</ele>
        <time>2021-05-18T06:50:26Z</time>
      </trkpt>
      <trkpt lat="41.7209790" lon="-8.8670620">
        <ele>4.0</ele>
        <time>2021-05-18T06:50:27Z</time>
      </trkpt>
      <trkpt lat="41.7209890" lon="-8.8670600">
        <ele>4.0</ele>
        <time>2021-05-18T06:50:28Z</time>
      </trkpt>
      <trkpt lat="41.7209980" lon="-8.8670580">
        <ele>4.0</ele>
        <time>2021-05-18T06:50:29Z</time>
      </trkpt>
      <trkpt lat="41.7210130" lon="-8.8670580">
        <ele>4.0</ele>
        <time>2021-05-18T06:50:30Z</time>
      </trkpt>
      <trkpt lat="41.7210280" lon="-8.8670550">
        <ele>4.0</ele>
        <time>2021-05-18T06:50:31Z</time>
      </trkpt>
      <trkpt lat="41.7210420" lon="-8.8670510">
        <ele>4.0</ele>
        <time>2021-05-18T06:50:32Z</time>
      </trkpt>
      <trkpt lat="41.7210560" lon="-8.8670470">
        <ele>4.0</ele>
        <time>2021-05-18T06:50:33Z</time>
      </trkpt>
      <trkpt lat="41.7210700" lon="-8.8670420">
        <ele>4.0</ele>
        <time>2021-05-18T06:50:34Z</time>
      </trkpt>
      <trkpt lat="41.7210840" lon="-8.8670400">
        <ele>4.0</ele>
        <time>2021-05-18T06:50:35Z</time>
      </trkpt>
      <trkpt lat="41.7210990" lon="-8.8670330">
        <ele>4.0</ele>
        <time>2021-05-18T06:50:36Z</time>
      </trkpt>
      <trkpt lat="41.7211140" lon="-8.8670270">
        <ele>4.0</ele>
        <time>2021-05-18T06:50:37Z</time>
      </trkpt>
      <trkpt lat="41.7211340" lon="-8.8670250">
        <ele>4.0</ele>
        <time>2021-05-18T06:50:38Z</time>
      </trkpt>
      <trkpt lat="41.7211420" lon="-8.8670220">
        <ele>4.0</ele>
        <time>2021-05-18T06:50:39Z</time>
      </trkpt>
      <trkpt lat="41.7211510" lon="-8.8670200">
        <ele>4.0</ele>
        <time>2021-05-18T06:50:40Z</time>
      </trkpt>
      <trkpt lat="41.7211640" lon="-8.8670060">
        <ele>4.0</ele>
        <time>2021-05-18T06:50:41Z</time>
      </trkpt>
      <trkpt lat="41.7211770" lon="-8.8670020">
        <ele>4.1</ele>
        <time>2021-05-18T06:50:42Z</time>
      </trkpt>
      <trkpt lat="41.7211910" lon="-8.8669930">
        <ele>4.1</ele>
        <time>2021-05-18T06:50:43Z</time>
      </trkpt>
      <trkpt lat="41.7212040" lon="-8.8669900">
        <ele>4.1</ele>
        <time>2021-05-18T06:50:44Z</time>
      </trkpt>
      <trkpt lat="41.7212160" lon="-8.8669840">
        <ele>4.1</ele>
        <time>2021-05-18T06:50:45Z</time>
      </trkpt>
      <trkpt lat="41.7212290" lon="-8.8669760">
        <ele>4.1</ele>
        <time>2021-05-18T06:50:46Z</time>
      </trkpt>
      <trkpt lat="41.7212490" lon="-8.8669640">
        <ele>4.1</ele>
        <time>2021-05-18T06:50:47Z</time>
      </trkpt>
      <trkpt lat="41.7212570" lon="-8.8669570">
        <ele>4.1</ele>
        <time>2021-05-18T06:50:48Z</time>
      </trkpt>
      <trkpt lat="41.7212640" lon="-8.8669500">
        <ele>4.1</ele>
        <time>2021-05-18T06:50:49Z</time>
      </trkpt>
      <trkpt lat="41.7212780" lon="-8.8669460">
        <ele>4.1</ele>
        <time>2021-05-18T06:50:50Z</time>
      </trkpt>
      <trkpt lat="41.7212900" lon="-8.8669380">
        <ele>4.2</ele>
        <time>2021-05-18T06:50:51Z</time>
      </trkpt>
      <trkpt lat="41.7213040" lon="-8.8669340">
        <ele>4.2</ele>
        <time>2021-05-18T06:50:52Z</time>
      </trkpt>
      <trkpt lat="41.7213160" lon="-8.8669230">
        <ele>4.2</ele>
        <time>2021-05-18T06:50:53Z</time>
      </trkpt>
      <trkpt lat="41.7213380" lon="-8.8669160">
        <ele>4.2</ele>
        <time>2021-05-18T06:50:54Z</time>
      </trkpt>
      <trkpt lat="41.7213470" lon="-8.8669120">
        <ele>4.2</ele>
        <time>2021-05-18T06:50:55Z</time>
      </trkpt>
      <trkpt lat="41.7213560" lon="-8.8669090">
        <ele>4.2</ele>
        <time>2021-05-18T06:50:56Z</time>
      </trkpt>
      <trkpt lat="41.7213690" lon="-8.8669010">
        <ele>4.2</ele>
        <time>2021-05-18T06:50:57Z</time>
      </trkpt>
      <trkpt lat="41.7213840" lon="-8.8668980">
        <ele>4.3</ele>
        <time>2021-05-18T06:50:58Z</time>
      </trkpt>
      <trkpt lat="41.7214050" lon="-8.8668920">
        <ele>4.3</ele>
        <time>2021-05-18T06:50:59Z</time>
      </trkpt>
      <trkpt lat="41.7214140" lon="-8.8668890">
        <ele>4.3</ele>
        <time>2021-05-18T06:51:00Z</time>
      </trkpt>
      <trkpt lat="41.7214230" lon="-8.8668850">
        <ele>4.3</ele>
        <time>2021-05-18T06:51:01Z</time>
      </trkpt>
      <trkpt lat="41.7214360" lon="-8.8668780">
        <ele>4.3</ele>
        <time>2021-05-18T06:51:02Z</time>
      </trkpt>
      <trkpt lat="41.7214510" lon="-8.8668690">
        <ele>4.3</ele>
        <time>2021-05-18T06:51:03Z</time>
      </trkpt>
      <trkpt lat="41.7214650" lon="-8.8668660">
        <ele>4.3</ele>
        <time>2021-05-18T06:51:04Z</time>
      </trkpt>
      <trkpt lat="41.7214770" lon="-8.8668560">
        <ele>4.3</ele>
        <time>2021-05-18T06:51:05Z</time>
      </trkpt>
      <trkpt lat="41.7214900" lon="-8.8668500">
        <ele>4.3</ele>
        <time>2021-05-18T06:51:06Z</time>
      </trkpt>
      <trkpt lat="41.7215030" lon="-8.8668460">
        <ele>4.3</ele>
        <time>2021-05-18T06:51:07Z</time>
      </trkpt>
      <trkpt lat="41.7215160" lon="-8.8668420">
        <ele>4.3</ele>
        <time>2021-05-18T06:51:08Z</time>
      </trkpt>
      <trkpt lat="41.7215310" lon="-8.8668400">
        <ele>4.3</ele>
        <time>2021-05-18T06:51:09Z</time>
      </trkpt>
      <trkpt lat="41.7215420" lon="-8.8668310">
        <ele>4.3</ele>
        <time>2021-05-18T06:51:10Z</time>
      </trkpt>
      <trkpt lat="41.7215550" lon="-8.8668210">
        <ele>4.3</ele>
        <time>2021-05-18T06:51:11Z</time>
      </trkpt>
      <trkpt lat="41.7215670" lon="-8.8668090">
        <ele>4.3</ele>
        <time>2021-05-18T06:51:12Z</time>
      </trkpt>
      <trkpt lat="41.7215780" lon="-8.8668000">
        <ele>4.3</ele>
        <time>2021-05-18T06:51:13Z</time>
      </trkpt>
      <trkpt lat="41.7215910" lon="-8.8668030">
        <ele>4.3</ele>
        <time>2021-05-18T06:51:14Z</time>
      </trkpt>
      <trkpt lat="41.7215980" lon="-8.8668010">
        <ele>4.3</ele>
        <time>2021-05-18T06:51:15Z</time>
      </trkpt>
      <trkpt lat="41.7216120" lon="-8.8668000">
        <ele>4.3</ele>
        <time>2021-05-18T06:51:16Z</time>
      </trkpt>
      <trkpt lat="41.7216240" lon="-8.8667950">
        <ele>4.3</ele>
        <time>2021-05-18T06:51:17Z</time>
      </trkpt>
      <trkpt lat="41.7216390" lon="-8.8667890">
        <ele>4.3</ele>
        <time>2021-05-18T06:51:18Z</time>
      </trkpt>
      <trkpt lat="41.7216560" lon="-8.8667770">
        <ele>4.3</ele>
        <time>2021-05-18T06:51:19Z</time>
      </trkpt>
      <trkpt lat="41.7216660" lon="-8.8667750">
        <ele>4.3</ele>
        <time>2021-05-18T06:51:20Z</time>
      </trkpt>
      <trkpt lat="41.7216750" lon="-8.8667730">
        <ele>4.3</ele>
        <time>2021-05-18T06:51:21Z</time>
      </trkpt>
      <trkpt lat="41.7216920" lon="-8.8667650">
        <ele>4.3</ele>
        <time>2021-05-18T06:51:22Z</time>
      </trkpt>
      <trkpt lat="41.7217070" lon="-8.8667660">
        <ele>4.3</ele>
        <time>2021-05-18T06:51:23Z</time>
      </trkpt>
      <trkpt lat="41.7217220" lon="-8.8667640">
        <ele>4.3</ele>
        <time>2021-05-18T06:51:24Z</time>
      </trkpt>
      <trkpt lat="41.7217380" lon="-8.8667650">
        <ele>4.3</ele>
        <time>2021-05-18T06:51:25Z</time>
      </trkpt>
      <trkpt lat="41.7217540" lon="-8.8667640">
        <ele>4.3</ele>
        <time>2021-05-18T06:51:26Z</time>
      </trkpt>
      <trkpt lat="41.7217690" lon="-8.8667640">
        <ele>4.3</ele>
        <time>2021-05-18T06:51:27Z</time>
      </trkpt>
      <trkpt lat="41.7217820" lon="-8.8667600">
        <ele>4.3</ele>
        <time>2021-05-18T06:51:28Z</time>
      </trkpt>
      <trkpt lat="41.7217970" lon="-8.8667620">
        <ele>4.3</ele>
        <time>2021-05-18T06:51:29Z</time>
      </trkpt>
      <trkpt lat="41.7218130" lon="-8.8667580">
        <ele>4.3</ele>
        <time>2021-05-18T06:51:30Z</time>
      </trkpt>
      <trkpt lat="41.7218270" lon="-8.8667580">
        <ele>4.3</ele>
        <time>2021-05-18T06:51:31Z</time>
      </trkpt>
      <trkpt lat="41.7218440" lon="-8.8667560">
        <ele>4.2</ele>
        <time>2021-05-18T06:51:32Z</time>
      </trkpt>
      <trkpt lat="41.7218580" lon="-8.8667640">
        <ele>4.2</ele>
        <time>2021-05-18T06:51:33Z</time>
      </trkpt>
      <trkpt lat="41.7218790" lon="-8.8667650">
        <ele>4.2</ele>
        <time>2021-05-18T06:51:34Z</time>
      </trkpt>
      <trkpt lat="41.7218870" lon="-8.8667650">
        <ele>4.2</ele>
        <time>2021-05-18T06:51:35Z</time>
      </trkpt>
      <trkpt lat="41.7218960" lon="-8.8667650">
        <ele>4.2</ele>
        <time>2021-05-18T06:51:36Z</time>
      </trkpt>
      <trkpt lat="41.7219110" lon="-8.8667590">
        <ele>4.2</ele>
        <time>2021-05-18T06:51:37Z</time>
      </trkpt>
      <trkpt lat="41.7219230" lon="-8.8667570">
        <ele>4.2</ele>
        <time>2021-05-18T06:51:38Z</time>
      </trkpt>
      <trkpt lat="41.7219460" lon="-8.8667520">
        <ele>4.2</ele>
        <time>2021-05-18T06:51:39Z</time>
      </trkpt>
      <trkpt lat="41.7219550" lon="-8.8667530">
        <ele>4.2</ele>
        <time>2021-05-18T06:51:40Z</time>
      </trkpt>
      <trkpt lat="41.7219650" lon="-8.8667530">
        <ele>4.2</ele>
        <time>2021-05-18T06:51:41Z</time>
      </trkpt>
      <trkpt lat="41.7219860" lon="-8.8667560">
        <ele>4.2</ele>
        <time>2021-05-18T06:51:42Z</time>
      </trkpt>
      <trkpt lat="41.7219950" lon="-8.8667560">
        <ele>4.2</ele>
        <time>2021-05-18T06:51:43Z</time>
      </trkpt>
      <trkpt lat="41.7220040" lon="-8.8667550">
        <ele>4.2</ele>
        <time>2021-05-18T06:51:44Z</time>
      </trkpt>
      <trkpt lat="41.7220180" lon="-8.8667510">
        <ele>4.1</ele>
        <time>2021-05-18T06:51:45Z</time>
      </trkpt>
      <trkpt lat="41.7220330" lon="-8.8667480">
        <ele>4.1</ele>
        <time>2021-05-18T06:51:46Z</time>
      </trkpt>
      <trkpt lat="41.7220560" lon="-8.8667530">
        <ele>4.1</ele>
        <time>2021-05-18T06:51:47Z</time>
      </trkpt>
      <trkpt lat="41.7220650" lon="-8.8667510">
        <ele>4.1</ele>
        <time>2021-05-18T06:51:48Z</time>
      </trkpt>
      <trkpt lat="41.7220740" lon="-8.8667490">
        <ele>4.1</ele>
        <time>2021-05-18T06:51:49Z</time>
      </trkpt>
      <trkpt lat="41.7220960" lon="-8.8667490">
        <ele>4.1</ele>
        <time>2021-05-18T06:51:50Z</time>
      </trkpt>
      <trkpt lat="41.7221060" lon="-8.8667500">
        <ele>4.1</ele>
        <time>2021-05-18T06:51:51Z</time>
      </trkpt>
      <trkpt lat="41.7221160" lon="-8.8667510">
        <ele>4.1</ele>
        <time>2021-05-18T06:51:52Z</time>
      </trkpt>
      <trkpt lat="41.7221300" lon="-8.8667490">
        <ele>4.1</ele>
        <time>2021-05-18T06:51:53Z</time>
      </trkpt>
      <trkpt lat="41.7221440" lon="-8.8667490">
        <ele>4.1</ele>
        <time>2021-05-18T06:51:54Z</time>
      </trkpt>
      <trkpt lat="41.7221590" lon="-8.8667470">
        <ele>4.1</ele>
        <time>2021-05-18T06:51:55Z</time>
      </trkpt>
      <trkpt lat="41.7221720" lon="-8.8667450">
        <ele>4.1</ele>
        <time>2021-05-18T06:51:56Z</time>
      </trkpt>
      <trkpt lat="41.7221870" lon="-8.8667450">
        <ele>4.1</ele>
        <time>2021-05-18T06:51:57Z</time>
      </trkpt>
      <trkpt lat="41.7222020" lon="-8.8667470">
        <ele>4.1</ele>
        <time>2021-05-18T06:51:58Z</time>
      </trkpt>
      <trkpt lat="41.7222160" lon="-8.8667370">
        <ele>4.2</ele>
        <time>2021-05-18T06:51:59Z</time>
      </trkpt>
      <trkpt lat="41.7222300" lon="-8.8667330">
        <ele>4.2</ele>
        <time>2021-05-18T06:52:00Z</time>
      </trkpt>
      <trkpt lat="41.7222440" lon="-8.8667320">
        <ele>4.2</ele>
        <time>2021-05-18T06:52:01Z</time>
      </trkpt>
      <trkpt lat="41.7222600" lon="-8.8667300">
        <ele>4.2</ele>
        <time>2021-05-18T06:52:02Z</time>
      </trkpt>
      <trkpt lat="41.7222820" lon="-8.8667310">
        <ele>4.2</ele>
        <time>2021-05-18T06:52:03Z</time>
      </trkpt>
      <trkpt lat="41.7222920" lon="-8.8667330">
        <ele>4.2</ele>
        <time>2021-05-18T06:52:04Z</time>
      </trkpt>
      <trkpt lat="41.7223010" lon="-8.8667340">
        <ele>4.2</ele>
        <time>2021-05-18T06:52:05Z</time>
      </trkpt>
      <trkpt lat="41.7223220" lon="-8.8667410">
        <ele>4.2</ele>
        <time>2021-05-18T06:52:06Z</time>
      </trkpt>
      <trkpt lat="41.7223310" lon="-8.8667420">
        <ele>4.2</ele>
        <time>2021-05-18T06:52:07Z</time>
      </trkpt>
      <trkpt lat="41.7223400" lon="-8.8667420">
        <ele>4.2</ele>
        <time>2021-05-18T06:52:08Z</time>
      </trkpt>
      <trkpt lat="41.7223520" lon="-8.8667500">
        <ele>4.2</ele>
        <time>2021-05-18T06:52:09Z</time>
      </trkpt>
      <trkpt lat="41.7223660" lon="-8.8667580">
        <ele>4.3</ele>
        <time>2021-05-18T06:52:10Z</time>
      </trkpt>
      <trkpt lat="41.7223880" lon="-8.8667660">
        <ele>4.3</ele>
        <time>2021-05-18T06:52:11Z</time>
      </trkpt>
      <trkpt lat="41.7223960" lon="-8.8667690">
        <ele>4.3</ele>
        <time>2021-05-18T06:52:12Z</time>
      </trkpt>
      <trkpt lat="41.7224050" lon="-8.8667730">
        <ele>4.3</ele>
        <time>2021-05-18T06:52:13Z</time>
      </trkpt>
      <trkpt lat="41.7224170" lon="-8.8667750">
        <ele>4.3</ele>
        <time>2021-05-18T06:52:14Z</time>
      </trkpt>
      <trkpt lat="41.7224310" lon="-8.8667830">
        <ele>4.3</ele>
        <time>2021-05-18T06:52:15Z</time>
      </trkpt>
      <trkpt lat="41.7224510" lon="-8.8667910">
        <ele>4.3</ele>
        <time>2021-05-18T06:52:16Z</time>
      </trkpt>
      <trkpt lat="41.7224600" lon="-8.8667960">
        <ele>4.3</ele>
        <time>2021-05-18T06:52:17Z</time>
      </trkpt>
      <trkpt lat="41.7224690" lon="-8.8668000">
        <ele>4.3</ele>
        <time>2021-05-18T06:52:18Z</time>
      </trkpt>
      <trkpt lat="41.7224850" lon="-8.8668020">
        <ele>4.3</ele>
        <time>2021-05-18T06:52:19Z</time>
      </trkpt>
      <trkpt lat="41.7224960" lon="-8.8668080">
        <ele>4.3</ele>
        <time>2021-05-18T06:52:20Z</time>
      </trkpt>
      <trkpt lat="41.7225090" lon="-8.8668120">
        <ele>4.3</ele>
        <time>2021-05-18T06:52:21Z</time>
      </trkpt>
      <trkpt lat="41.7225230" lon="-8.8668190">
        <ele>4.4</ele>
        <time>2021-05-18T06:52:22Z</time>
      </trkpt>
      <trkpt lat="41.7225360" lon="-8.8668190">
        <ele>4.4</ele>
        <time>2021-05-18T06:52:23Z</time>
      </trkpt>
      <trkpt lat="41.7225500" lon="-8.8668250">
        <ele>4.4</ele>
        <time>2021-05-18T06:52:24Z</time>
      </trkpt>
      <trkpt lat="41.7225700" lon="-8.8668340">
        <ele>4.4</ele>
        <time>2021-05-18T06:52:25Z</time>
      </trkpt>
      <trkpt lat="41.7225790" lon="-8.8668370">
        <ele>4.4</ele>
        <time>2021-05-18T06:52:26Z</time>
      </trkpt>
      <trkpt lat="41.7225880" lon="-8.8668400">
        <ele>4.4</ele>
        <time>2021-05-18T06:52:27Z</time>
      </trkpt>
      <trkpt lat="41.7226000" lon="-8.8668430">
        <ele>4.4</ele>
        <time>2021-05-18T06:52:28Z</time>
      </trkpt>
      <trkpt lat="41.7226100" lon="-8.8668460">
        <ele>4.4</ele>
        <time>2021-05-18T06:52:29Z</time>
      </trkpt>
      <trkpt lat="41.7226240" lon="-8.8668500">
        <ele>4.4</ele>
        <time>2021-05-18T06:52:30Z</time>
      </trkpt>
      <trkpt lat="41.7226380" lon="-8.8668540">
        <ele>4.4</ele>
        <time>2021-05-18T06:52:31Z</time>
      </trkpt>
      <trkpt lat="41.7226530" lon="-8.8668600">
        <ele>4.4</ele>
        <time>2021-05-18T06:52:32Z</time>
      </trkpt>
      <trkpt lat="41.7226650" lon="-8.8668650">
        <ele>4.4</ele>
        <time>2021-05-18T06:52:33Z</time>
      </trkpt>
      <trkpt lat="41.7226800" lon="-8.8668650">
        <ele>4.4</ele>
        <time>2021-05-18T06:52:34Z</time>
      </trkpt>
      <trkpt lat="41.7226980" lon="-8.8668780">
        <ele>4.5</ele>
        <time>2021-05-18T06:52:35Z</time>
      </trkpt>
      <trkpt lat="41.7227080" lon="-8.8668820">
        <ele>4.5</ele>
        <time>2021-05-18T06:52:36Z</time>
      </trkpt>
      <trkpt lat="41.7227170" lon="-8.8668860">
        <ele>4.5</ele>
        <time>2021-05-18T06:52:37Z</time>
      </trkpt>
      <trkpt lat="41.7227300" lon="-8.8668930">
        <ele>4.5</ele>
        <time>2021-05-18T06:52:38Z</time>
      </trkpt>
      <trkpt lat="41.7227440" lon="-8.8668980">
        <ele>4.5</ele>
        <time>2021-05-18T06:52:39Z</time>
      </trkpt>
      <trkpt lat="41.7227660" lon="-8.8669070">
        <ele>4.5</ele>
        <time>2021-05-18T06:52:40Z</time>
      </trkpt>
      <trkpt lat="41.7227740" lon="-8.8669100">
        <ele>4.5</ele>
        <time>2021-05-18T06:52:41Z</time>
      </trkpt>
      <trkpt lat="41.7227820" lon="-8.8669130">
        <ele>4.5</ele>
        <time>2021-05-18T06:52:42Z</time>
      </trkpt>
      <trkpt lat="41.7228020" lon="-8.8669240">
        <ele>4.5</ele>
        <time>2021-05-18T06:52:43Z</time>
      </trkpt>
      <trkpt lat="41.7228110" lon="-8.8669250">
        <ele>4.5</ele>
        <time>2021-05-18T06:52:44Z</time>
      </trkpt>
      <trkpt lat="41.7228200" lon="-8.8669270">
        <ele>4.5</ele>
        <time>2021-05-18T06:52:45Z</time>
      </trkpt>
      <trkpt lat="41.7228410" lon="-8.8669350">
        <ele>4.5</ele>
        <time>2021-05-18T06:52:46Z</time>
      </trkpt>
      <trkpt lat="41.7228500" lon="-8.8669400">
        <ele>4.5</ele>
        <time>2021-05-18T06:52:47Z</time>
      </trkpt>
      <trkpt lat="41.7228580" lon="-8.8669450">
        <ele>4.5</ele>
        <time>2021-05-18T06:52:48Z</time>
      </trkpt>
      <trkpt lat="41.7228780" lon="-8.8669520">
        <ele>4.5</ele>
        <time>2021-05-18T06:52:49Z</time>
      </trkpt>
      <trkpt lat="41.7228870" lon="-8.8669570">
        <ele>4.6</ele>
        <time>2021-05-18T06:52:50Z</time>
      </trkpt>
      <trkpt lat="41.7228950" lon="-8.8669610">
        <ele>4.6</ele>
        <time>2021-05-18T06:52:51Z</time>
      </trkpt>
      <trkpt lat="41.7229080" lon="-8.8669690">
        <ele>4.6</ele>
        <time>2021-05-18T06:52:52Z</time>
      </trkpt>
      <trkpt lat="41.7229210" lon="-8.8669730">
        <ele>4.6</ele>
        <time>2021-05-18T06:52:53Z</time>
      </trkpt>
      <trkpt lat="41.7229330" lon="-8.8669780">
        <ele>4.6</ele>
        <time>2021-05-18T06:52:54Z</time>
      </trkpt>
      <trkpt lat="41.7229450" lon="-8.8669930">
        <ele>4.6</ele>
        <time>2021-05-18T06:52:55Z</time>
      </trkpt>
      <trkpt lat="41.7229540" lon="-8.8670060">
        <ele>4.6</ele>
        <time>2021-05-18T06:52:56Z</time>
      </trkpt>
      <trkpt lat="41.7229630" lon="-8.8670210">
        <ele>4.6</ele>
        <time>2021-05-18T06:52:57Z</time>
      </trkpt>
      <trkpt lat="41.7229740" lon="-8.8670470">
        <ele>4.6</ele>
        <time>2021-05-18T06:52:58Z</time>
      </trkpt>
      <trkpt lat="41.7229780" lon="-8.8670570">
        <ele>4.6</ele>
        <time>2021-05-18T06:52:59Z</time>
      </trkpt>
      <trkpt lat="41.7229820" lon="-8.8670670">
        <ele>4.6</ele>
        <time>2021-05-18T06:53:00Z</time>
      </trkpt>
      <trkpt lat="41.7229830" lon="-8.8670970">
        <ele>4.6</ele>
        <time>2021-05-18T06:53:01Z</time>
      </trkpt>
      <trkpt lat="41.7229850" lon="-8.8671090">
        <ele>4.6</ele>
        <time>2021-05-18T06:53:02Z</time>
      </trkpt>
      <trkpt lat="41.7229860" lon="-8.8671220">
        <ele>4.6</ele>
        <time>2021-05-18T06:53:03Z</time>
      </trkpt>
      <trkpt lat="41.7229900" lon="-8.8671490">
        <ele>4.6</ele>
        <time>2021-05-18T06:53:04Z</time>
      </trkpt>
      <trkpt lat="41.7229940" lon="-8.8671610">
        <ele>4.6</ele>
        <time>2021-05-18T06:53:05Z</time>
      </trkpt>
      <trkpt lat="41.7229980" lon="-8.8671730">
        <ele>4.6</ele>
        <time>2021-05-18T06:53:06Z</time>
      </trkpt>
      <trkpt lat="41.7230030" lon="-8.8671910">
        <ele>4.6</ele>
        <time>2021-05-18T06:53:07Z</time>
      </trkpt>
      <trkpt lat="41.7230160" lon="-8.8672030">
        <ele>4.6</ele>
        <time>2021-05-18T06:53:08Z</time>
      </trkpt>
      <trkpt lat="41.7230350" lon="-8.8672180">
        <ele>4.6</ele>
        <time>2021-05-18T06:53:09Z</time>
      </trkpt>
      <trkpt lat="41.7230430" lon="-8.8672260">
        <ele>4.6</ele>
        <time>2021-05-18T06:53:10Z</time>
      </trkpt>
      <trkpt lat="41.7230510" lon="-8.8672330">
        <ele>4.6</ele>
        <time>2021-05-18T06:53:11Z</time>
      </trkpt>
      <trkpt lat="41.7230650" lon="-8.8672390">
        <ele>4.6</ele>
        <time>2021-05-18T06:53:12Z</time>
      </trkpt>
      <trkpt lat="41.7230780" lon="-8.8672470">
        <ele>4.6</ele>
        <time>2021-05-18T06:53:13Z</time>
      </trkpt>
      <trkpt lat="41.7230910" lon="-8.8672550">
        <ele>4.6</ele>
        <time>2021-05-18T06:53:14Z</time>
      </trkpt>
      <trkpt lat="41.7231050" lon="-8.8672620">
        <ele>4.6</ele>
        <time>2021-05-18T06:53:15Z</time>
      </trkpt>
      <trkpt lat="41.7231180" lon="-8.8672670">
        <ele>4.6</ele>
        <time>2021-05-18T06:53:16Z</time>
      </trkpt>
      <trkpt lat="41.7231320" lon="-8.8672730">
        <ele>4.6</ele>
        <time>2021-05-18T06:53:17Z</time>
      </trkpt>
      <trkpt lat="41.7231470" lon="-8.8672810">
        <ele>4.6</ele>
        <time>2021-05-18T06:53:18Z</time>
      </trkpt>
      <trkpt lat="41.7231590" lon="-8.8672860">
        <ele>4.6</ele>
        <time>2021-05-18T06:53:19Z</time>
      </trkpt>
      <trkpt lat="41.7231730" lon="-8.8672900">
        <ele>4.6</ele>
        <time>2021-05-18T06:53:20Z</time>
      </trkpt>
      <trkpt lat="41.7231870" lon="-8.8672910">
        <ele>4.6</ele>
        <time>2021-05-18T06:53:21Z</time>
      </trkpt>
      <trkpt lat="41.7232020" lon="-8.8672960">
        <ele>4.6</ele>
        <time>2021-05-18T06:53:22Z</time>
      </trkpt>
      <trkpt lat="41.7232160" lon="-8.8672970">
        <ele>4.6</ele>
        <time>2021-05-18T06:53:23Z</time>
      </trkpt>
      <trkpt lat="41.7232300" lon="-8.8673080">
        <ele>4.6</ele>
        <time>2021-05-18T06:53:24Z</time>
      </trkpt>
      <trkpt lat="41.7232420" lon="-8.8673190">
        <ele>4.6</ele>
        <time>2021-05-18T06:53:25Z</time>
      </trkpt>
      <trkpt lat="41.7232560" lon="-8.8673230">
        <ele>4.6</ele>
        <time>2021-05-18T06:53:26Z</time>
      </trkpt>
      <trkpt lat="41.7232700" lon="-8.8673290">
        <ele>4.6</ele>
        <time>2021-05-18T06:53:27Z</time>
      </trkpt>
      <trkpt lat="41.7232840" lon="-8.8673330">
        <ele>4.6</ele>
        <time>2021-05-18T06:53:28Z</time>
      </trkpt>
      <trkpt lat="41.7232980" lon="-8.8673340">
        <ele>4.6</ele>
        <time>2021-05-18T06:53:29Z</time>
      </trkpt>
      <trkpt lat="41.7233090" lon="-8.8673460">
        <ele>4.6</ele>
        <time>2021-05-18T06:53:30Z</time>
      </trkpt>
      <trkpt lat="41.7233210" lon="-8.8673540">
        <ele>4.6</ele>
        <time>2021-05-18T06:53:31Z</time>
      </trkpt>
      <trkpt lat="41.7233330" lon="-8.8673640">
        <ele>4.6</ele>
        <time>2021-05-18T06:53:32Z</time>
      </trkpt>
      <trkpt lat="41.7233460" lon="-8.8673700">
        <ele>4.6</ele>
        <time>2021-05-18T06:53:33Z</time>
      </trkpt>
      <trkpt lat="41.7233590" lon="-8.8673750">
        <ele>4.6</ele>
        <time>2021-05-18T06:53:34Z</time>
      </trkpt>
      <trkpt lat="41.7233720" lon="-8.8673840">
        <ele>4.6</ele>
        <time>2021-05-18T06:53:35Z</time>
      </trkpt>
      <trkpt lat="41.7233920" lon="-8.8673950">
        <ele>4.6</ele>
        <time>2021-05-18T06:53:36Z</time>
      </trkpt>
      <trkpt lat="41.7234000" lon="-8.8674010">
        <ele>4.6</ele>
        <time>2021-05-18T06:53:37Z</time>
      </trkpt>
      <trkpt lat="41.7234080" lon="-8.8674060">
        <ele>4.6</ele>
        <time>2021-05-18T06:53:38Z</time>
      </trkpt>
      <trkpt lat="41.7234240" lon="-8.8674130">
        <ele>4.6</ele>
        <time>2021-05-18T06:53:39Z</time>
      </trkpt>
      <trkpt lat="41.7234350" lon="-8.8674250">
        <ele>4.6</ele>
        <time>2021-05-18T06:53:40Z</time>
      </trkpt>
      <trkpt lat="41.7234470" lon="-8.8674310">
        <ele>4.6</ele>
        <time>2021-05-18T06:53:41Z</time>
      </trkpt>
      <trkpt lat="41.7234640" lon="-8.8674330">
        <ele>4.6</ele>
        <time>2021-05-18T06:53:42Z</time>
      </trkpt>
      <trkpt lat="41.7234780" lon="-8.8674350">
        <ele>4.6</ele>
        <time>2021-05-18T06:53:43Z</time>
      </trkpt>
      <trkpt lat="41.7234910" lon="-8.8674410">
        <ele>4.5</ele>
        <time>2021-05-18T06:53:44Z</time>
      </trkpt>
      <trkpt lat="41.7235050" lon="-8.8674490">
        <ele>4.5</ele>
        <time>2021-05-18T06:53:45Z</time>
      </trkpt>
      <trkpt lat="41.7235170" lon="-8.8674560">
        <ele>4.5</ele>
        <time>2021-05-18T06:53:46Z</time>
      </trkpt>
      <trkpt lat="41.7235310" lon="-8.8674640">
        <ele>4.5</ele>
        <time>2021-05-18T06:53:47Z</time>
      </trkpt>
      <trkpt lat="41.7235440" lon="-8.8674760">
        <ele>4.5</ele>
        <time>2021-05-18T06:53:48Z</time>
      </trkpt>
      <trkpt lat="41.7235640" lon="-8.8674830">
        <ele>4.5</ele>
        <time>2021-05-18T06:53:49Z</time>
      </trkpt>
      <trkpt lat="41.7235730" lon="-8.8674890">
        <ele>4.5</ele>
        <time>2021-05-18T06:53:50Z</time>
      </trkpt>
      <trkpt lat="41.7235820" lon="-8.8674940">
        <ele>4.5</ele>
        <time>2021-05-18T06:53:51Z</time>
      </trkpt>
      <trkpt lat="41.7236010" lon="-8.8675050">
        <ele>4.5</ele>
        <time>2021-05-18T06:53:52Z</time>
      </trkpt>
      <trkpt lat="41.7236100" lon="-8.8675080">
        <ele>4.5</ele>
        <time>2021-05-18T06:53:53Z</time>
      </trkpt>
      <trkpt lat="41.7236180" lon="-8.8675120">
        <ele>4.5</ele>
        <time>2021-05-18T06:53:54Z</time>
      </trkpt>
      <trkpt lat="41.7236380" lon="-8.8675240">
        <ele>4.5</ele>
        <time>2021-05-18T06:53:55Z</time>
      </trkpt>
      <trkpt lat="41.7236460" lon="-8.8675270">
        <ele>4.5</ele>
        <time>2021-05-18T06:53:56Z</time>
      </trkpt>
      <trkpt lat="41.7236550" lon="-8.8675310">
        <ele>4.5</ele>
        <time>2021-05-18T06:53:57Z</time>
      </trkpt>
      <trkpt lat="41.7236750" lon="-8.8675450">
        <ele>4.4</ele>
        <time>2021-05-18T06:53:58Z</time>
      </trkpt>
      <trkpt lat="41.7236830" lon="-8.8675500">
        <ele>4.4</ele>
        <time>2021-05-18T06:53:59Z</time>
      </trkpt>
      <trkpt lat="41.7236910" lon="-8.8675560">
        <ele>4.4</ele>
        <time>2021-05-18T06:54:00Z</time>
      </trkpt>
      <trkpt lat="41.7237060" lon="-8.8675580">
        <ele>4.4</ele>
        <time>2021-05-18T06:54:01Z</time>
      </trkpt>
      <trkpt lat="41.7237180" lon="-8.8675710">
        <ele>4.4</ele>
        <time>2021-05-18T06:54:02Z</time>
      </trkpt>
      <trkpt lat="41.7237390" lon="-8.8675780">
        <ele>4.4</ele>
        <time>2021-05-18T06:54:03Z</time>
      </trkpt>
      <trkpt lat="41.7237480" lon="-8.8675820">
        <ele>4.4</ele>
        <time>2021-05-18T06:54:04Z</time>
      </trkpt>
      <trkpt lat="41.7237560" lon="-8.8675870">
        <ele>4.4</ele>
        <time>2021-05-18T06:54:05Z</time>
      </trkpt>
      <trkpt lat="41.7237690" lon="-8.8675920">
        <ele>4.4</ele>
        <time>2021-05-18T06:54:06Z</time>
      </trkpt>
      <trkpt lat="41.7237810" lon="-8.8676000">
        <ele>4.4</ele>
        <time>2021-05-18T06:54:07Z</time>
      </trkpt>
      <trkpt lat="41.7237940" lon="-8.8676100">
        <ele>4.4</ele>
        <time>2021-05-18T06:54:08Z</time>
      </trkpt>
      <trkpt lat="41.7238050" lon="-8.8676170">
        <ele>4.4</ele>
        <time>2021-05-18T06:54:09Z</time>
      </trkpt>
      <trkpt lat="41.7238080" lon="-8.8676240">
        <ele>4.4</ele>
        <time>2021-05-18T06:54:10Z</time>
      </trkpt>
      <trkpt lat="41.7238040" lon="-8.8676260">
        <ele>4.4</ele>
        <time>2021-05-18T06:54:11Z</time>
      </trkpt>
      <trkpt lat="41.7237960" lon="-8.8676180">
        <ele>4.4</ele>
        <time>2021-05-18T06:54:12Z</time>
      </trkpt>
      <trkpt lat="41.7237940" lon="-8.8676140">
        <ele>4.4</ele>
        <time>2021-05-18T06:54:13Z</time>
      </trkpt>
      <trkpt lat="41.7237930" lon="-8.8676150">
        <ele>4.4</ele>
        <time>2021-05-18T06:54:14Z</time>
      </trkpt>
      <trkpt lat="41.7237910" lon="-8.8676130">
        <ele>4.4</ele>
        <time>2021-05-18T06:54:15Z</time>
      </trkpt>
      <trkpt lat="41.7237900" lon="-8.8676110">
        <ele>4.4</ele>
        <time>2021-05-18T06:54:16Z</time>
      </trkpt>
      <trkpt lat="41.7237880" lon="-8.8676090">
        <ele>4.4</ele>
        <time>2021-05-18T06:54:17Z</time>
      </trkpt>
      <trkpt lat="41.7237850" lon="-8.8676070">
        <ele>4.4</ele>
        <time>2021-05-18T06:54:18Z</time>
      </trkpt>
      <trkpt lat="41.7237850" lon="-8.8676050">
        <ele>4.4</ele>
        <time>2021-05-18T06:54:19Z</time>
      </trkpt>
      <trkpt lat="41.7237840" lon="-8.8676020">
        <ele>4.3</ele>
        <time>2021-05-18T06:54:20Z</time>
      </trkpt>
      <trkpt lat="41.7237850" lon="-8.8676030">
        <ele>4.3</ele>
        <time>2021-05-18T06:54:21Z</time>
      </trkpt>
      <trkpt lat="41.7237850" lon="-8.8676060">
        <ele>4.3</ele>
        <time>2021-05-18T06:54:22Z</time>
      </trkpt>
      <trkpt lat="41.7237860" lon="-8.8676060">
        <ele>4.3</ele>
        <time>2021-05-18T06:54:23Z</time>
      </trkpt>
      <trkpt lat="41.7237820" lon="-8.8676020">
        <ele>4.3</ele>
        <time>2021-05-18T06:54:24Z</time>
      </trkpt>
      <trkpt lat="41.7237840" lon="-8.8675980">
        <ele>4.3</ele>
        <time>2021-05-18T06:54:25Z</time>
      </trkpt>
      <trkpt lat="41.7237840" lon="-8.8675990">
        <ele>4.3</ele>
        <time>2021-05-18T06:54:26Z</time>
      </trkpt>
      <trkpt lat="41.7238100" lon="-8.8676100">
        <ele>4.3</ele>
        <time>2021-05-18T06:54:27Z</time>
      </trkpt>
      <trkpt lat="41.7238150" lon="-8.8676110">
        <ele>4.3</ele>
        <time>2021-05-18T06:54:28Z</time>
      </trkpt>
      <trkpt lat="41.7238250" lon="-8.8676160">
        <ele>4.3</ele>
        <time>2021-05-18T06:54:29Z</time>
      </trkpt>
      <trkpt lat="41.7238320" lon="-8.8676220">
        <ele>4.3</ele>
        <time>2021-05-18T06:54:30Z</time>
      </trkpt>
      <trkpt lat="41.7238420" lon="-8.8676270">
        <ele>4.3</ele>
        <time>2021-05-18T06:54:31Z</time>
      </trkpt>
      <trkpt lat="41.7238600" lon="-8.8676380">
        <ele>4.3</ele>
        <time>2021-05-18T06:54:32Z</time>
      </trkpt>
      <trkpt lat="41.7238700" lon="-8.8676430">
        <ele>4.3</ele>
        <time>2021-05-18T06:54:33Z</time>
      </trkpt>
      <trkpt lat="41.7238810" lon="-8.8676470">
        <ele>4.3</ele>
        <time>2021-05-18T06:54:34Z</time>
      </trkpt>
      <trkpt lat="41.7238990" lon="-8.8676550">
        <ele>4.2</ele>
        <time>2021-05-18T06:54:35Z</time>
      </trkpt>
      <trkpt lat="41.7239080" lon="-8.8676600">
        <ele>4.2</ele>
        <time>2021-05-18T06:54:36Z</time>
      </trkpt>
      <trkpt lat="41.7239170" lon="-8.8676640">
        <ele>4.2</ele>
        <time>2021-05-18T06:54:37Z</time>
      </trkpt>
      <trkpt lat="41.7239340" lon="-8.8676740">
        <ele>4.2</ele>
        <time>2021-05-18T06:54:38Z</time>
      </trkpt>
      <trkpt lat="41.7239430" lon="-8.8676800">
        <ele>4.2</ele>
        <time>2021-05-18T06:54:39Z</time>
      </trkpt>
      <trkpt lat="41.7239530" lon="-8.8676850">
        <ele>4.2</ele>
        <time>2021-05-18T06:54:40Z</time>
      </trkpt>
      <trkpt lat="41.7239660" lon="-8.8676910">
        <ele>4.2</ele>
        <time>2021-05-18T06:54:41Z</time>
      </trkpt>
      <trkpt lat="41.7239800" lon="-8.8677000">
        <ele>4.2</ele>
        <time>2021-05-18T06:54:42Z</time>
      </trkpt>
      <trkpt lat="41.7239960" lon="-8.8677030">
        <ele>4.1</ele>
        <time>2021-05-18T06:54:43Z</time>
      </trkpt>
      <trkpt lat="41.7240090" lon="-8.8677130">
        <ele>4.1</ele>
        <time>2021-05-18T06:54:44Z</time>
      </trkpt>
      <trkpt lat="41.7240240" lon="-8.8677200">
        <ele>4.1</ele>
        <time>2021-05-18T06:54:45Z</time>
      </trkpt>
      <trkpt lat="41.7240390" lon="-8.8677240">
        <ele>4.1</ele>
        <time>2021-05-18T06:54:46Z</time>
      </trkpt>
      <trkpt lat="41.7240530" lon="-8.8677310">
        <ele>4.1</ele>
        <time>2021-05-18T06:54:47Z</time>
      </trkpt>
      <trkpt lat="41.7240650" lon="-8.8677390">
        <ele>4.1</ele>
        <time>2021-05-18T06:54:48Z</time>
      </trkpt>
      <trkpt lat="41.7240790" lon="-8.8677470">
        <ele>4.1</ele>
        <time>2021-05-18T06:54:49Z</time>
      </trkpt>
      <trkpt lat="41.7240950" lon="-8.8677540">
        <ele>4.1</ele>
        <time>2021-05-18T06:54:50Z</time>
      </trkpt>
      <trkpt lat="41.7241100" lon="-8.8677590">
        <ele>4.1</ele>
        <time>2021-05-18T06:54:51Z</time>
      </trkpt>
      <trkpt lat="41.7241250" lon="-8.8677660">
        <ele>4.0</ele>
        <time>2021-05-18T06:54:52Z</time>
      </trkpt>
      <trkpt lat="41.7241390" lon="-8.8677690">
        <ele>4.0</ele>
        <time>2021-05-18T06:54:53Z</time>
      </trkpt>
      <trkpt lat="41.7241540" lon="-8.8677760">
        <ele>4.0</ele>
        <time>2021-05-18T06:54:54Z</time>
      </trkpt>
      <trkpt lat="41.7241680" lon="-8.8677790">
        <ele>4.0</ele>
        <time>2021-05-18T06:54:55Z</time>
      </trkpt>
      <trkpt lat="41.7241800" lon="-8.8677870">
        <ele>4.0</ele>
        <time>2021-05-18T06:54:56Z</time>
      </trkpt>
      <trkpt lat="41.7241930" lon="-8.8677950">
        <ele>4.0</ele>
        <time>2021-05-18T06:54:57Z</time>
      </trkpt>
      <trkpt lat="41.7242070" lon="-8.8678020">
        <ele>4.0</ele>
        <time>2021-05-18T06:54:58Z</time>
      </trkpt>
      <trkpt lat="41.7242200" lon="-8.8678080">
        <ele>4.0</ele>
        <time>2021-05-18T06:54:59Z</time>
      </trkpt>
      <trkpt lat="41.7242350" lon="-8.8678140">
        <ele>4.0</ele>
        <time>2021-05-18T06:55:00Z</time>
      </trkpt>
      <trkpt lat="41.7242490" lon="-8.8678210">
        <ele>4.0</ele>
        <time>2021-05-18T06:55:01Z</time>
      </trkpt>
      <trkpt lat="41.7242640" lon="-8.8678240">
        <ele>4.0</ele>
        <time>2021-05-18T06:55:02Z</time>
      </trkpt>
      <trkpt lat="41.7242770" lon="-8.8678300">
        <ele>4.0</ele>
        <time>2021-05-18T06:55:03Z</time>
      </trkpt>
      <trkpt lat="41.7242900" lon="-8.8678360">
        <ele>4.0</ele>
        <time>2021-05-18T06:55:04Z</time>
      </trkpt>
      <trkpt lat="41.7243040" lon="-8.8678440">
        <ele>4.0</ele>
        <time>2021-05-18T06:55:05Z</time>
      </trkpt>
      <trkpt lat="41.7243170" lon="-8.8678550">
        <ele>4.0</ele>
        <time>2021-05-18T06:55:06Z</time>
      </trkpt>
      <trkpt lat="41.7243330" lon="-8.8678600">
        <ele>4.0</ele>
        <time>2021-05-18T06:55:07Z</time>
      </trkpt>
      <trkpt lat="41.7243470" lon="-8.8678700">
        <ele>4.0</ele>
        <time>2021-05-18T06:55:08Z</time>
      </trkpt>
      <trkpt lat="41.7243620" lon="-8.8678760">
        <ele>4.0</ele>
        <time>2021-05-18T06:55:09Z</time>
      </trkpt>
      <trkpt lat="41.7243740" lon="-8.8678850">
        <ele>4.0</ele>
        <time>2021-05-18T06:55:10Z</time>
      </trkpt>
      <trkpt lat="41.7243900" lon="-8.8678880">
        <ele>4.0</ele>
        <time>2021-05-18T06:55:11Z</time>
      </trkpt>
      <trkpt lat="41.7244030" lon="-8.8678960">
        <ele>4.0</ele>
        <time>2021-05-18T06:55:12Z</time>
      </trkpt>
      <trkpt lat="41.7244160" lon="-8.8679040">
        <ele>4.0</ele>
        <time>2021-05-18T06:55:13Z</time>
      </trkpt>
      <trkpt lat="41.7244310" lon="-8.8679160">
        <ele>4.0</ele>
        <time>2021-05-18T06:55:14Z</time>
      </trkpt>
      <trkpt lat="41.7244450" lon="-8.8679210">
        <ele>4.0</ele>
        <time>2021-05-18T06:55:15Z</time>
      </trkpt>
      <trkpt lat="41.7244580" lon="-8.8679300">
        <ele>4.0</ele>
        <time>2021-05-18T06:55:16Z</time>
      </trkpt>
      <trkpt lat="41.7244720" lon="-8.8679390">
        <ele>4.0</ele>
        <time>2021-05-18T06:55:17Z</time>
      </trkpt>
      <trkpt lat="41.7244840" lon="-8.8679460">
        <ele>4.0</ele>
        <time>2021-05-18T06:55:18Z</time>
      </trkpt>
      <trkpt lat="41.7244990" lon="-8.8679550">
        <ele>4.0</ele>
        <time>2021-05-18T06:55:19Z</time>
      </trkpt>
      <trkpt lat="41.7245120" lon="-8.8679640">
        <ele>4.0</ele>
        <time>2021-05-18T06:55:20Z</time>
      </trkpt>
      <trkpt lat="41.7245270" lon="-8.8679670">
        <ele>4.0</ele>
        <time>2021-05-18T06:55:21Z</time>
      </trkpt>
      <trkpt lat="41.7245400" lon="-8.8679720">
        <ele>4.0</ele>
        <time>2021-05-18T06:55:22Z</time>
      </trkpt>
      <trkpt lat="41.7245620" lon="-8.8679840">
        <ele>4.0</ele>
        <time>2021-05-18T06:55:23Z</time>
      </trkpt>
      <trkpt lat="41.7245720" lon="-8.8679890">
        <ele>4.0</ele>
        <time>2021-05-18T06:55:24Z</time>
      </trkpt>
      <trkpt lat="41.7245810" lon="-8.8679940">
        <ele>4.0</ele>
        <time>2021-05-18T06:55:25Z</time>
      </trkpt>
      <trkpt lat="41.7245940" lon="-8.8680010">
        <ele>4.0</ele>
        <time>2021-05-18T06:55:26Z</time>
      </trkpt>
      <trkpt lat="41.7246100" lon="-8.8680040">
        <ele>4.0</ele>
        <time>2021-05-18T06:55:27Z</time>
      </trkpt>
      <trkpt lat="41.7246200" lon="-8.8680140">
        <ele>4.0</ele>
        <time>2021-05-18T06:55:28Z</time>
      </trkpt>
      <trkpt lat="41.7246350" lon="-8.8680200">
        <ele>4.0</ele>
        <time>2021-05-18T06:55:29Z</time>
      </trkpt>
      <trkpt lat="41.7246480" lon="-8.8680280">
        <ele>4.0</ele>
        <time>2021-05-18T06:55:30Z</time>
      </trkpt>
      <trkpt lat="41.7246580" lon="-8.8680380">
        <ele>4.0</ele>
        <time>2021-05-18T06:55:31Z</time>
      </trkpt>
      <trkpt lat="41.7246700" lon="-8.8680510">
        <ele>4.0</ele>
        <time>2021-05-18T06:55:32Z</time>
      </trkpt>
      <trkpt lat="41.7246830" lon="-8.8680580">
        <ele>4.0</ele>
        <time>2021-05-18T06:55:33Z</time>
      </trkpt>
      <trkpt lat="41.7246960" lon="-8.8680610">
        <ele>4.0</ele>
        <time>2021-05-18T06:55:34Z</time>
      </trkpt>
      <trkpt lat="41.7247120" lon="-8.8680700">
        <ele>4.0</ele>
        <time>2021-05-18T06:55:35Z</time>
      </trkpt>
      <trkpt lat="41.7247320" lon="-8.8680790">
        <ele>4.0</ele>
        <time>2021-05-18T06:55:36Z</time>
      </trkpt>
      <trkpt lat="41.7247400" lon="-8.8680870">
        <ele>4.0</ele>
        <time>2021-05-18T06:55:37Z</time>
      </trkpt>
      <trkpt lat="41.7247480" lon="-8.8680950">
        <ele>4.0</ele>
        <time>2021-05-18T06:55:38Z</time>
      </trkpt>
      <trkpt lat="41.7247590" lon="-8.8681030">
        <ele>4.0</ele>
        <time>2021-05-18T06:55:39Z</time>
      </trkpt>
      <trkpt lat="41.7247720" lon="-8.8681090">
        <ele>4.0</ele>
        <time>2021-05-18T06:55:40Z</time>
      </trkpt>
      <trkpt lat="41.7247800" lon="-8.8681150">
        <ele>4.0</ele>
        <time>2021-05-18T06:55:41Z</time>
      </trkpt>
      <trkpt lat="41.7247920" lon="-8.8681240">
        <ele>4.0</ele>
        <time>2021-05-18T06:55:42Z</time>
      </trkpt>
      <trkpt lat="41.7248080" lon="-8.8681320">
        <ele>4.0</ele>
        <time>2021-05-18T06:55:43Z</time>
      </trkpt>
      <trkpt lat="41.7248180" lon="-8.8681400">
        <ele>4.0</ele>
        <time>2021-05-18T06:55:44Z</time>
      </trkpt>
      <trkpt lat="41.7248290" lon="-8.8681470">
        <ele>4.0</ele>
        <time>2021-05-18T06:55:45Z</time>
      </trkpt>
      <trkpt lat="41.7248410" lon="-8.8681500">
        <ele>4.0</ele>
        <time>2021-05-18T06:55:46Z</time>
      </trkpt>
      <trkpt lat="41.7248540" lon="-8.8681580">
        <ele>4.0</ele>
        <time>2021-05-18T06:55:47Z</time>
      </trkpt>
      <trkpt lat="41.7248660" lon="-8.8681680">
        <ele>4.0</ele>
        <time>2021-05-18T06:55:48Z</time>
      </trkpt>
      <trkpt lat="41.7248700" lon="-8.8681680">
        <ele>4.0</ele>
        <time>2021-05-18T06:55:49Z</time>
      </trkpt>
      <trkpt lat="41.7248740" lon="-8.8681700">
        <ele>4.0</ele>
        <time>2021-05-18T06:55:50Z</time>
      </trkpt>
      <trkpt lat="41.7248780" lon="-8.8681730">
        <ele>4.0</ele>
        <time>2021-05-18T06:55:51Z</time>
      </trkpt>
      <trkpt lat="41.7248820" lon="-8.8681750">
        <ele>4.0</ele>
        <time>2021-05-18T06:55:52Z</time>
      </trkpt>
      <trkpt lat="41.7248870" lon="-8.8681770">
        <ele>4.0</ele>
        <time>2021-05-18T06:55:53Z</time>
      </trkpt>
      <trkpt lat="41.7248910" lon="-8.8681790">
        <ele>4.0</ele>
        <time>2021-05-18T06:55:54Z</time>
      </trkpt>
      <trkpt lat="41.7248950" lon="-8.8681820">
        <ele>4.0</ele>
        <time>2021-05-18T06:55:55Z</time>
      </trkpt>
      <trkpt lat="41.7248990" lon="-8.8681840">
        <ele>4.0</ele>
        <time>2021-05-18T06:55:56Z</time>
      </trkpt>
      <trkpt lat="41.7249030" lon="-8.8681860">
        <ele>4.0</ele>
        <time>2021-05-18T06:55:57Z</time>
      </trkpt>
      <trkpt lat="41.7249230" lon="-8.8681970">
        <ele>3.9</ele>
        <time>2021-05-18T06:55:58Z</time>
      </trkpt>
      <trkpt lat="41.7249310" lon="-8.8681990">
        <ele>3.9</ele>
        <time>2021-05-18T06:55:59Z</time>
      </trkpt>
      <trkpt lat="41.7249390" lon="-8.8682020">
        <ele>3.9</ele>
        <time>2021-05-18T06:56:00Z</time>
      </trkpt>
      <trkpt lat="41.7249550" lon="-8.8682120">
        <ele>3.9</ele>
        <time>2021-05-18T06:56:01Z</time>
      </trkpt>
      <trkpt lat="41.7249640" lon="-8.8682180">
        <ele>3.9</ele>
        <time>2021-05-18T06:56:02Z</time>
      </trkpt>
      <trkpt lat="41.7249730" lon="-8.8682240">
        <ele>3.9</ele>
        <time>2021-05-18T06:56:03Z</time>
      </trkpt>
      <trkpt lat="41.7249870" lon="-8.8682340">
        <ele>3.9</ele>
        <time>2021-05-18T06:56:04Z</time>
      </trkpt>
      <trkpt lat="41.7250020" lon="-8.8682420">
        <ele>3.9</ele>
        <time>2021-05-18T06:56:05Z</time>
      </trkpt>
      <trkpt lat="41.7250180" lon="-8.8682440">
        <ele>3.9</ele>
        <time>2021-05-18T06:56:06Z</time>
      </trkpt>
      <trkpt lat="41.7250320" lon="-8.8682490">
        <ele>3.9</ele>
        <time>2021-05-18T06:56:07Z</time>
      </trkpt>
      <trkpt lat="41.7250420" lon="-8.8682610">
        <ele>3.9</ele>
        <time>2021-05-18T06:56:08Z</time>
      </trkpt>
      <trkpt lat="41.7250560" lon="-8.8682710">
        <ele>3.9</ele>
        <time>2021-05-18T06:56:09Z</time>
      </trkpt>
      <trkpt lat="41.7250690" lon="-8.8682800">
        <ele>3.9</ele>
        <time>2021-05-18T06:56:10Z</time>
      </trkpt>
      <trkpt lat="41.7250830" lon="-8.8682860">
        <ele>3.9</ele>
        <time>2021-05-18T06:56:11Z</time>
      </trkpt>
      <trkpt lat="41.7250960" lon="-8.8682960">
        <ele>3.9</ele>
        <time>2021-05-18T06:56:12Z</time>
      </trkpt>
      <trkpt lat="41.7251100" lon="-8.8683040">
        <ele>3.9</ele>
        <time>2021-05-18T06:56:13Z</time>
      </trkpt>
      <trkpt lat="41.7251220" lon="-8.8683160">
        <ele>3.9</ele>
        <time>2021-05-18T06:56:14Z</time>
      </trkpt>
      <trkpt lat="41.7251340" lon="-8.8683240">
        <ele>3.9</ele>
        <time>2021-05-18T06:56:15Z</time>
      </trkpt>
      <trkpt lat="41.7251500" lon="-8.8683310">
        <ele>4.0</ele>
        <time>2021-05-18T06:56:16Z</time>
      </trkpt>
      <trkpt lat="41.7251640" lon="-8.8683420">
        <ele>4.0</ele>
        <time>2021-05-18T06:56:17Z</time>
      </trkpt>
      <trkpt lat="41.7251750" lon="-8.8683480">
        <ele>4.0</ele>
        <time>2021-05-18T06:56:18Z</time>
      </trkpt>
      <trkpt lat="41.7251900" lon="-8.8683550">
        <ele>4.0</ele>
        <time>2021-05-18T06:56:19Z</time>
      </trkpt>
      <trkpt lat="41.7252010" lon="-8.8683650">
        <ele>4.0</ele>
        <time>2021-05-18T06:56:20Z</time>
      </trkpt>
      <trkpt lat="41.7252170" lon="-8.8683740">
        <ele>4.0</ele>
        <time>2021-05-18T06:56:21Z</time>
      </trkpt>
      <trkpt lat="41.7252290" lon="-8.8683820">
        <ele>4.0</ele>
        <time>2021-05-18T06:56:22Z</time>
      </trkpt>
      <trkpt lat="41.7252440" lon="-8.8683890">
        <ele>4.0</ele>
        <time>2021-05-18T06:56:23Z</time>
      </trkpt>
      <trkpt lat="41.7252570" lon="-8.8683930">
        <ele>4.0</ele>
        <time>2021-05-18T06:56:24Z</time>
      </trkpt>
      <trkpt lat="41.7252710" lon="-8.8684010">
        <ele>4.0</ele>
        <time>2021-05-18T06:56:25Z</time>
      </trkpt>
      <trkpt lat="41.7252840" lon="-8.8684090">
        <ele>4.0</ele>
        <time>2021-05-18T06:56:26Z</time>
      </trkpt>
      <trkpt lat="41.7252970" lon="-8.8684200">
        <ele>4.0</ele>
        <time>2021-05-18T06:56:27Z</time>
      </trkpt>
      <trkpt lat="41.7253090" lon="-8.8684300">
        <ele>4.0</ele>
        <time>2021-05-18T06:56:28Z</time>
      </trkpt>
      <trkpt lat="41.7253240" lon="-8.8684360">
        <ele>4.0</ele>
        <time>2021-05-18T06:56:29Z</time>
      </trkpt>
      <trkpt lat="41.7253370" lon="-8.8684510">
        <ele>4.0</ele>
        <time>2021-05-18T06:56:30Z</time>
      </trkpt>
      <trkpt lat="41.7253520" lon="-8.8684560">
        <ele>4.0</ele>
        <time>2021-05-18T06:56:31Z</time>
      </trkpt>
      <trkpt lat="41.7253720" lon="-8.8684670">
        <ele>4.0</ele>
        <time>2021-05-18T06:56:32Z</time>
      </trkpt>
      <trkpt lat="41.7253820" lon="-8.8684730">
        <ele>4.0</ele>
        <time>2021-05-18T06:56:33Z</time>
      </trkpt>
      <trkpt lat="41.7253910" lon="-8.8684780">
        <ele>4.0</ele>
        <time>2021-05-18T06:56:34Z</time>
      </trkpt>
      <trkpt lat="41.7254050" lon="-8.8684820">
        <ele>4.0</ele>
        <time>2021-05-18T06:56:35Z</time>
      </trkpt>
      <trkpt lat="41.7254190" lon="-8.8684870">
        <ele>4.0</ele>
        <time>2021-05-18T06:56:36Z</time>
      </trkpt>
      <trkpt lat="41.7254300" lon="-8.8684960">
        <ele>4.0</ele>
        <time>2021-05-18T06:56:37Z</time>
      </trkpt>
      <trkpt lat="41.7254460" lon="-8.8685020">
        <ele>4.0</ele>
        <time>2021-05-18T06:56:38Z</time>
      </trkpt>
      <trkpt lat="41.7254560" lon="-8.8685110">
        <ele>4.0</ele>
        <time>2021-05-18T06:56:39Z</time>
      </trkpt>
      <trkpt lat="41.7254680" lon="-8.8685230">
        <ele>4.0</ele>
        <time>2021-05-18T06:56:40Z</time>
      </trkpt>
      <trkpt lat="41.7254900" lon="-8.8685340">
        <ele>4.0</ele>
        <time>2021-05-18T06:56:41Z</time>
      </trkpt>
      <trkpt lat="41.7254970" lon="-8.8685380">
        <ele>4.0</ele>
        <time>2021-05-18T06:56:42Z</time>
      </trkpt>
      <trkpt lat="41.7255040" lon="-8.8685410">
        <ele>4.0</ele>
        <time>2021-05-18T06:56:43Z</time>
      </trkpt>
      <trkpt lat="41.7255190" lon="-8.8685450">
        <ele>4.0</ele>
        <time>2021-05-18T06:56:44Z</time>
      </trkpt>
      <trkpt lat="41.7255320" lon="-8.8685530">
        <ele>4.0</ele>
        <time>2021-05-18T06:56:45Z</time>
      </trkpt>
      <trkpt lat="41.7255470" lon="-8.8685600">
        <ele>4.0</ele>
        <time>2021-05-18T06:56:46Z</time>
      </trkpt>
      <trkpt lat="41.7255580" lon="-8.8685700">
        <ele>4.0</ele>
        <time>2021-05-18T06:56:47Z</time>
      </trkpt>
      <trkpt lat="41.7255720" lon="-8.8685760">
        <ele>4.0</ele>
        <time>2021-05-18T06:56:48Z</time>
      </trkpt>
      <trkpt lat="41.7255860" lon="-8.8685900">
        <ele>4.0</ele>
        <time>2021-05-18T06:56:49Z</time>
      </trkpt>
      <trkpt lat="41.7256050" lon="-8.8686020">
        <ele>4.0</ele>
        <time>2021-05-18T06:56:50Z</time>
      </trkpt>
      <trkpt lat="41.7256130" lon="-8.8686080">
        <ele>4.0</ele>
        <time>2021-05-18T06:56:51Z</time>
      </trkpt>
      <trkpt lat="41.7256210" lon="-8.8686130">
        <ele>4.0</ele>
        <time>2021-05-18T06:56:52Z</time>
      </trkpt>
      <trkpt lat="41.7256350" lon="-8.8686170">
        <ele>4.0</ele>
        <time>2021-05-18T06:56:53Z</time>
      </trkpt>
      <trkpt lat="41.7256490" lon="-8.8686270">
        <ele>4.0</ele>
        <time>2021-05-18T06:56:54Z</time>
      </trkpt>
      <trkpt lat="41.7256620" lon="-8.8686350">
        <ele>4.0</ele>
        <time>2021-05-18T06:56:55Z</time>
      </trkpt>
      <trkpt lat="41.7256750" lon="-8.8686430">
        <ele>4.0</ele>
        <time>2021-05-18T06:56:56Z</time>
      </trkpt>
      <trkpt lat="41.7256880" lon="-8.8686580">
        <ele>4.0</ele>
        <time>2021-05-18T06:56:57Z</time>
      </trkpt>
      <trkpt lat="41.7256990" lon="-8.8686670">
        <ele>4.0</ele>
        <time>2021-05-18T06:56:58Z</time>
      </trkpt>
      <trkpt lat="41.7257210" lon="-8.8686840">
        <ele>4.0</ele>
        <time>2021-05-18T06:56:59Z</time>
      </trkpt>
      <trkpt lat="41.7257310" lon="-8.8686860">
        <ele>4.0</ele>
        <time>2021-05-18T06:57:00Z</time>
      </trkpt>
      <trkpt lat="41.7257400" lon="-8.8686890">
        <ele>4.1</ele>
        <time>2021-05-18T06:57:01Z</time>
      </trkpt>
      <trkpt lat="41.7257520" lon="-8.8686950">
        <ele>4.1</ele>
        <time>2021-05-18T06:57:02Z</time>
      </trkpt>
      <trkpt lat="41.7257640" lon="-8.8687050">
        <ele>4.1</ele>
        <time>2021-05-18T06:57:03Z</time>
      </trkpt>
      <trkpt lat="41.7257760" lon="-8.8687160">
        <ele>4.1</ele>
        <time>2021-05-18T06:57:04Z</time>
      </trkpt>
      <trkpt lat="41.7257890" lon="-8.8687230">
        <ele>4.1</ele>
        <time>2021-05-18T06:57:05Z</time>
      </trkpt>
      <trkpt lat="41.7258000" lon="-8.8687360">
        <ele>4.1</ele>
        <time>2021-05-18T06:57:06Z</time>
      </trkpt>
      <trkpt lat="41.7258090" lon="-8.8687490">
        <ele>4.1</ele>
        <time>2021-05-18T06:57:07Z</time>
      </trkpt>
      <trkpt lat="41.7258240" lon="-8.8687680">
        <ele>4.1</ele>
        <time>2021-05-18T06:57:08Z</time>
      </trkpt>
      <trkpt lat="41.7258290" lon="-8.8687760">
        <ele>4.1</ele>
        <time>2021-05-18T06:57:09Z</time>
      </trkpt>
      <trkpt lat="41.7258350" lon="-8.8687830">
        <ele>4.1</ele>
        <time>2021-05-18T06:57:10Z</time>
      </trkpt>
      <trkpt lat="41.7258490" lon="-8.8687950">
        <ele>4.1</ele>
        <time>2021-05-18T06:57:11Z</time>
      </trkpt>
      <trkpt lat="41.7258620" lon="-8.8688000">
        <ele>4.1</ele>
        <time>2021-05-18T06:57:12Z</time>
      </trkpt>
      <trkpt lat="41.7258810" lon="-8.8688090">
        <ele>4.1</ele>
        <time>2021-05-18T06:57:13Z</time>
      </trkpt>
      <trkpt lat="41.7258900" lon="-8.8688120">
        <ele>4.1</ele>
        <time>2021-05-18T06:57:14Z</time>
      </trkpt>
      <trkpt lat="41.7259000" lon="-8.8688160">
        <ele>4.1</ele>
        <time>2021-05-18T06:57:15Z</time>
      </trkpt>
      <trkpt lat="41.7259150" lon="-8.8688230">
        <ele>4.1</ele>
        <time>2021-05-18T06:57:16Z</time>
      </trkpt>
      <trkpt lat="41.7259270" lon="-8.8688300">
        <ele>4.2</ele>
        <time>2021-05-18T06:57:17Z</time>
      </trkpt>
      <trkpt lat="41.7259420" lon="-8.8688280">
        <ele>4.2</ele>
        <time>2021-05-18T06:57:18Z</time>
      </trkpt>
      <trkpt lat="41.7259570" lon="-8.8688360">
        <ele>4.2</ele>
        <time>2021-05-18T06:57:19Z</time>
      </trkpt>
      <trkpt lat="41.7259700" lon="-8.8688450">
        <ele>4.2</ele>
        <time>2021-05-18T06:57:20Z</time>
      </trkpt>
      <trkpt lat="41.7259840" lon="-8.8688520">
        <ele>4.2</ele>
        <time>2021-05-18T06:57:21Z</time>
      </trkpt>
      <trkpt lat="41.7259980" lon="-8.8688540">
        <ele>4.2</ele>
        <time>2021-05-18T06:57:22Z</time>
      </trkpt>
      <trkpt lat="41.7260110" lon="-8.8688620">
        <ele>4.2</ele>
        <time>2021-05-18T06:57:23Z</time>
      </trkpt>
      <trkpt lat="41.7260270" lon="-8.8688700">
        <ele>4.2</ele>
        <time>2021-05-18T06:57:24Z</time>
      </trkpt>
      <trkpt lat="41.7260410" lon="-8.8688760">
        <ele>4.2</ele>
        <time>2021-05-18T06:57:25Z</time>
      </trkpt>
      <trkpt lat="41.7260550" lon="-8.8688790">
        <ele>4.2</ele>
        <time>2021-05-18T06:57:26Z</time>
      </trkpt>
      <trkpt lat="41.7260690" lon="-8.8688870">
        <ele>4.3</ele>
        <time>2021-05-18T06:57:27Z</time>
      </trkpt>
      <trkpt lat="41.7260820" lon="-8.8688970">
        <ele>4.3</ele>
        <time>2021-05-18T06:57:28Z</time>
      </trkpt>
      <trkpt lat="41.7260980" lon="-8.8689030">
        <ele>4.3</ele>
        <time>2021-05-18T06:57:29Z</time>
      </trkpt>
      <trkpt lat="41.7261210" lon="-8.8689080">
        <ele>4.3</ele>
        <time>2021-05-18T06:57:30Z</time>
      </trkpt>
      <trkpt lat="41.7261290" lon="-8.8689110">
        <ele>4.3</ele>
        <time>2021-05-18T06:57:31Z</time>
      </trkpt>
      <trkpt lat="41.7261380" lon="-8.8689140">
        <ele>4.3</ele>
        <time>2021-05-18T06:57:32Z</time>
      </trkpt>
      <trkpt lat="41.7261530" lon="-8.8689200">
        <ele>4.3</ele>
        <time>2021-05-18T06:57:33Z</time>
      </trkpt>
      <trkpt lat="41.7261670" lon="-8.8689250">
        <ele>4.2</ele>
        <time>2021-05-18T06:57:34Z</time>
      </trkpt>
      <trkpt lat="41.7261860" lon="-8.8689390">
        <ele>4.2</ele>
        <time>2021-05-18T06:57:35Z</time>
      </trkpt>
      <trkpt lat="41.7261940" lon="-8.8689440">
        <ele>4.2</ele>
        <time>2021-05-18T06:57:36Z</time>
      </trkpt>
      <trkpt lat="41.7262020" lon="-8.8689490">
        <ele>4.2</ele>
        <time>2021-05-18T06:57:37Z</time>
      </trkpt>
      <trkpt lat="41.7262130" lon="-8.8689590">
        <ele>4.2</ele>
        <time>2021-05-18T06:57:38Z</time>
      </trkpt>
      <trkpt lat="41.7262250" lon="-8.8689690">
        <ele>4.2</ele>
        <time>2021-05-18T06:57:39Z</time>
      </trkpt>
      <trkpt lat="41.7262510" lon="-8.8689930">
        <ele>4.2</ele>
        <time>2021-05-18T06:57:40Z</time>
      </trkpt>
      <trkpt lat="41.7262560" lon="-8.8689980">
        <ele>4.2</ele>
        <time>2021-05-18T06:57:41Z</time>
      </trkpt>
      <trkpt lat="41.7262710" lon="-8.8690150">
        <ele>4.2</ele>
        <time>2021-05-18T06:57:43Z</time>
      </trkpt>
      <trkpt lat="41.7262760" lon="-8.8690260">
        <ele>4.2</ele>
        <time>2021-05-18T06:57:44Z</time>
      </trkpt>
      <trkpt lat="41.7262800" lon="-8.8690380">
        <ele>4.2</ele>
        <time>2021-05-18T06:57:45Z</time>
      </trkpt>
      <trkpt lat="41.7262870" lon="-8.8690570">
        <ele>4.2</ele>
        <time>2021-05-18T06:57:46Z</time>
      </trkpt>
      <trkpt lat="41.7263000" lon="-8.8690690">
        <ele>4.2</ele>
        <time>2021-05-18T06:57:47Z</time>
      </trkpt>
      <trkpt lat="41.7263040" lon="-8.8690880">
        <ele>4.2</ele>
        <time>2021-05-18T06:57:48Z</time>
      </trkpt>
      <trkpt lat="41.7263180" lon="-8.8690990">
        <ele>4.2</ele>
        <time>2021-05-18T06:57:49Z</time>
      </trkpt>
      <trkpt lat="41.7263270" lon="-8.8691140">
        <ele>4.2</ele>
        <time>2021-05-18T06:57:50Z</time>
      </trkpt>
      <trkpt lat="41.7263380" lon="-8.8691280">
        <ele>4.2</ele>
        <time>2021-05-18T06:57:51Z</time>
      </trkpt>
      <trkpt lat="41.7263460" lon="-8.8691430">
        <ele>4.2</ele>
        <time>2021-05-18T06:57:52Z</time>
      </trkpt>
      <trkpt lat="41.7263480" lon="-8.8691640">
        <ele>4.2</ele>
        <time>2021-05-18T06:57:53Z</time>
      </trkpt>
      <trkpt lat="41.7263520" lon="-8.8691840">
        <ele>4.2</ele>
        <time>2021-05-18T06:57:54Z</time>
      </trkpt>
      <trkpt lat="41.7263610" lon="-8.8691980">
        <ele>4.2</ele>
        <time>2021-05-18T06:57:55Z</time>
      </trkpt>
      <trkpt lat="41.7263670" lon="-8.8692150">
        <ele>4.2</ele>
        <time>2021-05-18T06:57:56Z</time>
      </trkpt>
      <trkpt lat="41.7263760" lon="-8.8692300">
        <ele>4.2</ele>
        <time>2021-05-18T06:57:57Z</time>
      </trkpt>
      <trkpt lat="41.7263870" lon="-8.8692570">
        <ele>4.2</ele>
        <time>2021-05-18T06:57:58Z</time>
      </trkpt>
      <trkpt lat="41.7263920" lon="-8.8692670">
        <ele>4.2</ele>
        <time>2021-05-18T06:57:59Z</time>
      </trkpt>
      <trkpt lat="41.7263960" lon="-8.8692760">
        <ele>4.2</ele>
        <time>2021-05-18T06:58:00Z</time>
      </trkpt>
      <trkpt lat="41.7264070" lon="-8.8693030">
        <ele>4.2</ele>
        <time>2021-05-18T06:58:01Z</time>
      </trkpt>
      <trkpt lat="41.7264120" lon="-8.8693130">
        <ele>4.2</ele>
        <time>2021-05-18T06:58:02Z</time>
      </trkpt>
      <trkpt lat="41.7264180" lon="-8.8693220">
        <ele>4.2</ele>
        <time>2021-05-18T06:58:03Z</time>
      </trkpt>
      <trkpt lat="41.7264290" lon="-8.8693480">
        <ele>4.2</ele>
        <time>2021-05-18T06:58:04Z</time>
      </trkpt>
      <trkpt lat="41.7264350" lon="-8.8693560">
        <ele>4.2</ele>
        <time>2021-05-18T06:58:05Z</time>
      </trkpt>
      <trkpt lat="41.7264400" lon="-8.8693650">
        <ele>4.2</ele>
        <time>2021-05-18T06:58:06Z</time>
      </trkpt>
      <trkpt lat="41.7264500" lon="-8.8693790">
        <ele>4.2</ele>
        <time>2021-05-18T06:58:07Z</time>
      </trkpt>
      <trkpt lat="41.7264600" lon="-8.8693940">
        <ele>4.3</ele>
        <time>2021-05-18T06:58:08Z</time>
      </trkpt>
      <trkpt lat="41.7264660" lon="-8.8694090">
        <ele>4.3</ele>
        <time>2021-05-18T06:58:09Z</time>
      </trkpt>
      <trkpt lat="41.7264760" lon="-8.8694250">
        <ele>4.3</ele>
        <time>2021-05-18T06:58:10Z</time>
      </trkpt>
      <trkpt lat="41.7264880" lon="-8.8694480">
        <ele>4.3</ele>
        <time>2021-05-18T06:58:11Z</time>
      </trkpt>
      <trkpt lat="41.7264930" lon="-8.8694590">
        <ele>4.3</ele>
        <time>2021-05-18T06:58:12Z</time>
      </trkpt>
      <trkpt lat="41.7264970" lon="-8.8694710">
        <ele>4.3</ele>
        <time>2021-05-18T06:58:13Z</time>
      </trkpt>
      <trkpt lat="41.7265070" lon="-8.8694970">
        <ele>4.3</ele>
        <time>2021-05-18T06:58:14Z</time>
      </trkpt>
      <trkpt lat="41.7265120" lon="-8.8695080">
        <ele>4.3</ele>
        <time>2021-05-18T06:58:15Z</time>
      </trkpt>
      <trkpt lat="41.7265170" lon="-8.8695190">
        <ele>4.3</ele>
        <time>2021-05-18T06:58:16Z</time>
      </trkpt>
      <trkpt lat="41.7265270" lon="-8.8695450">
        <ele>4.3</ele>
        <time>2021-05-18T06:58:17Z</time>
      </trkpt>
      <trkpt lat="41.7265320" lon="-8.8695540">
        <ele>4.3</ele>
        <time>2021-05-18T06:58:18Z</time>
      </trkpt>
      <trkpt lat="41.7265360" lon="-8.8695640">
        <ele>4.3</ele>
        <time>2021-05-18T06:58:19Z</time>
      </trkpt>
      <trkpt lat="41.7265470" lon="-8.8695890">
        <ele>4.4</ele>
        <time>2021-05-18T06:58:20Z</time>
      </trkpt>
      <trkpt lat="41.7265530" lon="-8.8695990">
        <ele>4.4</ele>
        <time>2021-05-18T06:58:21Z</time>
      </trkpt>
      <trkpt lat="41.7265590" lon="-8.8696090">
        <ele>4.4</ele>
        <time>2021-05-18T06:58:22Z</time>
      </trkpt>
      <trkpt lat="41.7265670" lon="-8.8696230">
        <ele>4.4</ele>
        <time>2021-05-18T06:58:23Z</time>
      </trkpt>
      <trkpt lat="41.7265740" lon="-8.8696390">
        <ele>4.4</ele>
        <time>2021-05-18T06:58:24Z</time>
      </trkpt>
      <trkpt lat="41.7265830" lon="-8.8696570">
        <ele>4.4</ele>
        <time>2021-05-18T06:58:25Z</time>
      </trkpt>
      <trkpt lat="41.7265890" lon="-8.8696740">
        <ele>4.4</ele>
        <time>2021-05-18T06:58:26Z</time>
      </trkpt>
      <trkpt lat="41.7265980" lon="-8.8696910">
        <ele>4.4</ele>
        <time>2021-05-18T06:58:27Z</time>
      </trkpt>
      <trkpt lat="41.7266090" lon="-8.8697050">
        <ele>4.4</ele>
        <time>2021-05-18T06:58:28Z</time>
      </trkpt>
      <trkpt lat="41.7266220" lon="-8.8697270">
        <ele>4.5</ele>
        <time>2021-05-18T06:58:29Z</time>
      </trkpt>
      <trkpt lat="41.7266280" lon="-8.8697350">
        <ele>4.5</ele>
        <time>2021-05-18T06:58:30Z</time>
      </trkpt>
      <trkpt lat="41.7266350" lon="-8.8697420">
        <ele>4.5</ele>
        <time>2021-05-18T06:58:31Z</time>
      </trkpt>
      <trkpt lat="41.7266480" lon="-8.8697500">
        <ele>4.5</ele>
        <time>2021-05-18T06:58:32Z</time>
      </trkpt>
      <trkpt lat="41.7266570" lon="-8.8697640">
        <ele>4.5</ele>
        <time>2021-05-18T06:58:33Z</time>
      </trkpt>
      <trkpt lat="41.7266700" lon="-8.8697710">
        <ele>4.5</ele>
        <time>2021-05-18T06:58:34Z</time>
      </trkpt>
      <trkpt lat="41.7266840" lon="-8.8697790">
        <ele>4.6</ele>
        <time>2021-05-18T06:58:35Z</time>
      </trkpt>
      <trkpt lat="41.7267040" lon="-8.8697920">
        <ele>4.6</ele>
        <time>2021-05-18T06:58:36Z</time>
      </trkpt>
      <trkpt lat="41.7267130" lon="-8.8697980">
        <ele>4.6</ele>
        <time>2021-05-18T06:58:37Z</time>
      </trkpt>
      <trkpt lat="41.7267210" lon="-8.8698040">
        <ele>4.6</ele>
        <time>2021-05-18T06:58:38Z</time>
      </trkpt>
      <trkpt lat="41.7267350" lon="-8.8698110">
        <ele>4.6</ele>
        <time>2021-05-18T06:58:39Z</time>
      </trkpt>
      <trkpt lat="41.7267470" lon="-8.8698180">
        <ele>4.6</ele>
        <time>2021-05-18T06:58:40Z</time>
      </trkpt>
      <trkpt lat="41.7267590" lon="-8.8698290">
        <ele>4.6</ele>
        <time>2021-05-18T06:58:41Z</time>
      </trkpt>
      <trkpt lat="41.7267710" lon="-8.8698400">
        <ele>4.7</ele>
        <time>2021-05-18T06:58:42Z</time>
      </trkpt>
      <trkpt lat="41.7267890" lon="-8.8698570">
        <ele>4.7</ele>
        <time>2021-05-18T06:58:43Z</time>
      </trkpt>
      <trkpt lat="41.7267960" lon="-8.8698650">
        <ele>4.7</ele>
        <time>2021-05-18T06:58:44Z</time>
      </trkpt>
      <trkpt lat="41.7268040" lon="-8.8698730">
        <ele>4.7</ele>
        <time>2021-05-18T06:58:45Z</time>
      </trkpt>
      <trkpt lat="41.7268190" lon="-8.8698770">
        <ele>4.7</ele>
        <time>2021-05-18T06:58:46Z</time>
      </trkpt>
      <trkpt lat="41.7268300" lon="-8.8698880">
        <ele>4.7</ele>
        <time>2021-05-18T06:58:47Z</time>
      </trkpt>
      <trkpt lat="41.7268510" lon="-8.8699010">
        <ele>4.8</ele>
        <time>2021-05-18T06:58:48Z</time>
      </trkpt>
      <trkpt lat="41.7268580" lon="-8.8699080">
        <ele>4.8</ele>
        <time>2021-05-18T06:58:49Z</time>
      </trkpt>
      <trkpt lat="41.7268660" lon="-8.8699140">
        <ele>4.8</ele>
        <time>2021-05-18T06:58:50Z</time>
      </trkpt>
      <trkpt lat="41.7268740" lon="-8.8699270">
        <ele>4.8</ele>
        <time>2021-05-18T06:58:51Z</time>
      </trkpt>
      <trkpt lat="41.7268830" lon="-8.8699460">
        <ele>4.8</ele>
        <time>2021-05-18T06:58:52Z</time>
      </trkpt>
      <trkpt lat="41.7268970" lon="-8.8699650">
        <ele>4.8</ele>
        <time>2021-05-18T06:58:53Z</time>
      </trkpt>
      <trkpt lat="41.7269020" lon="-8.8699760">
        <ele>4.8</ele>
        <time>2021-05-18T06:58:54Z</time>
      </trkpt>
      <trkpt lat="41.7269060" lon="-8.8699860">
        <ele>4.8</ele>
        <time>2021-05-18T06:58:55Z</time>
      </trkpt>
      <trkpt lat="41.7269170" lon="-8.8699970">
        <ele>4.9</ele>
        <time>2021-05-18T06:58:56Z</time>
      </trkpt>
      <trkpt lat="41.7269250" lon="-8.8700150">
        <ele>4.9</ele>
        <time>2021-05-18T06:58:57Z</time>
      </trkpt>
      <trkpt lat="41.7269300" lon="-8.8700310">
        <ele>4.9</ele>
        <time>2021-05-18T06:58:58Z</time>
      </trkpt>
      <trkpt lat="41.7269330" lon="-8.8700510">
        <ele>4.9</ele>
        <time>2021-05-18T06:58:59Z</time>
      </trkpt>
      <trkpt lat="41.7269420" lon="-8.8700770">
        <ele>4.9</ele>
        <time>2021-05-18T06:59:00Z</time>
      </trkpt>
      <trkpt lat="41.7269450" lon="-8.8700870">
        <ele>4.9</ele>
        <time>2021-05-18T06:59:01Z</time>
      </trkpt>
      <trkpt lat="41.7269490" lon="-8.8700970">
        <ele>4.9</ele>
        <time>2021-05-18T06:59:02Z</time>
      </trkpt>
      <trkpt lat="41.7269530" lon="-8.8701260">
        <ele>4.9</ele>
        <time>2021-05-18T06:59:03Z</time>
      </trkpt>
      <trkpt lat="41.7269550" lon="-8.8701390">
        <ele>5.0</ele>
        <time>2021-05-18T06:59:04Z</time>
      </trkpt>
      <trkpt lat="41.7269560" lon="-8.8701510">
        <ele>5.0</ele>
        <time>2021-05-18T06:59:05Z</time>
      </trkpt>
      <trkpt lat="41.7269600" lon="-8.8701690">
        <ele>5.0</ele>
        <time>2021-05-18T06:59:06Z</time>
      </trkpt>
      <trkpt lat="41.7269680" lon="-8.8701850">
        <ele>5.0</ele>
        <time>2021-05-18T06:59:07Z</time>
      </trkpt>
      <trkpt lat="41.7269710" lon="-8.8702040">
        <ele>5.0</ele>
        <time>2021-05-18T06:59:08Z</time>
      </trkpt>
      <trkpt lat="41.7269770" lon="-8.8702230">
        <ele>5.0</ele>
        <time>2021-05-18T06:59:09Z</time>
      </trkpt>
      <trkpt lat="41.7269820" lon="-8.8702410">
        <ele>5.0</ele>
        <time>2021-05-18T06:59:10Z</time>
      </trkpt>
      <trkpt lat="41.7269860" lon="-8.8702590">
        <ele>5.1</ele>
        <time>2021-05-18T06:59:11Z</time>
      </trkpt>
      <trkpt lat="41.7269910" lon="-8.8702770">
        <ele>5.1</ele>
        <time>2021-05-18T06:59:12Z</time>
      </trkpt>
      <trkpt lat="41.7269930" lon="-8.8702960">
        <ele>5.1</ele>
        <time>2021-05-18T06:59:13Z</time>
      </trkpt>
      <trkpt lat="41.7269940" lon="-8.8703160">
        <ele>5.1</ele>
        <time>2021-05-18T06:59:14Z</time>
      </trkpt>
      <trkpt lat="41.7269990" lon="-8.8703360">
        <ele>5.1</ele>
        <time>2021-05-18T06:59:15Z</time>
      </trkpt>
      <trkpt lat="41.7270060" lon="-8.8703630">
        <ele>5.1</ele>
        <time>2021-05-18T06:59:16Z</time>
      </trkpt>
      <trkpt lat="41.7270110" lon="-8.8703740">
        <ele>5.1</ele>
        <time>2021-05-18T06:59:17Z</time>
      </trkpt>
      <trkpt lat="41.7270150" lon="-8.8703850">
        <ele>5.1</ele>
        <time>2021-05-18T06:59:18Z</time>
      </trkpt>
      <trkpt lat="41.7270210" lon="-8.8704010">
        <ele>5.1</ele>
        <time>2021-05-18T06:59:19Z</time>
      </trkpt>
      <trkpt lat="41.7270220" lon="-8.8704220">
        <ele>5.1</ele>
        <time>2021-05-18T06:59:20Z</time>
      </trkpt>
      <trkpt lat="41.7270290" lon="-8.8704390">
        <ele>5.1</ele>
        <time>2021-05-18T06:59:21Z</time>
      </trkpt>
      <trkpt lat="41.7270360" lon="-8.8704540">
        <ele>5.1</ele>
        <time>2021-05-18T06:59:22Z</time>
      </trkpt>
      <trkpt lat="41.7270440" lon="-8.8704720">
        <ele>5.1</ele>
        <time>2021-05-18T06:59:23Z</time>
      </trkpt>
      <trkpt lat="41.7270540" lon="-8.8704830">
        <ele>5.1</ele>
        <time>2021-05-18T06:59:24Z</time>
      </trkpt>
      <trkpt lat="41.7270640" lon="-8.8704980">
        <ele>5.1</ele>
        <time>2021-05-18T06:59:25Z</time>
      </trkpt>
      <trkpt lat="41.7270730" lon="-8.8705090">
        <ele>5.1</ele>
        <time>2021-05-18T06:59:26Z</time>
      </trkpt>
      <trkpt lat="41.7270850" lon="-8.8705240">
        <ele>5.0</ele>
        <time>2021-05-18T06:59:27Z</time>
      </trkpt>
      <trkpt lat="41.7270930" lon="-8.8705380">
        <ele>5.0</ele>
        <time>2021-05-18T06:59:28Z</time>
      </trkpt>
      <trkpt lat="41.7271070" lon="-8.8705460">
        <ele>5.0</ele>
        <time>2021-05-18T06:59:29Z</time>
      </trkpt>
      <trkpt lat="41.7271190" lon="-8.8705550">
        <ele>5.0</ele>
        <time>2021-05-18T06:59:30Z</time>
      </trkpt>
      <trkpt lat="41.7271330" lon="-8.8705660">
        <ele>5.0</ele>
        <time>2021-05-18T06:59:31Z</time>
      </trkpt>
      <trkpt lat="41.7271450" lon="-8.8705730">
        <ele>5.0</ele>
        <time>2021-05-18T06:59:32Z</time>
      </trkpt>
      <trkpt lat="41.7271590" lon="-8.8705810">
        <ele>5.0</ele>
        <time>2021-05-18T06:59:33Z</time>
      </trkpt>
      <trkpt lat="41.7271750" lon="-8.8705890">
        <ele>5.0</ele>
        <time>2021-05-18T06:59:34Z</time>
      </trkpt>
      <trkpt lat="41.7271890" lon="-8.8705940">
        <ele>5.0</ele>
        <time>2021-05-18T06:59:35Z</time>
      </trkpt>
      <trkpt lat="41.7272030" lon="-8.8706000">
        <ele>5.0</ele>
        <time>2021-05-18T06:59:36Z</time>
      </trkpt>
      <trkpt lat="41.7272160" lon="-8.8706100">
        <ele>4.9</ele>
        <time>2021-05-18T06:59:37Z</time>
      </trkpt>
      <trkpt lat="41.7272320" lon="-8.8706150">
        <ele>4.9</ele>
        <time>2021-05-18T06:59:38Z</time>
      </trkpt>
      <trkpt lat="41.7272460" lon="-8.8706270">
        <ele>4.9</ele>
        <time>2021-05-18T06:59:39Z</time>
      </trkpt>
      <trkpt lat="41.7272570" lon="-8.8706340">
        <ele>4.9</ele>
        <time>2021-05-18T06:59:40Z</time>
      </trkpt>
      <trkpt lat="41.7272780" lon="-8.8706470">
        <ele>4.9</ele>
        <time>2021-05-18T06:59:41Z</time>
      </trkpt>
      <trkpt lat="41.7272860" lon="-8.8706500">
        <ele>4.9</ele>
        <time>2021-05-18T06:59:42Z</time>
      </trkpt>
      <trkpt lat="41.7272950" lon="-8.8706530">
        <ele>4.9</ele>
        <time>2021-05-18T06:59:43Z</time>
      </trkpt>
      <trkpt lat="41.7273080" lon="-8.8706610">
        <ele>4.9</ele>
        <time>2021-05-18T06:59:44Z</time>
      </trkpt>
      <trkpt lat="41.7273210" lon="-8.8706660">
        <ele>4.9</ele>
        <time>2021-05-18T06:59:45Z</time>
      </trkpt>
      <trkpt lat="41.7273340" lon="-8.8706730">
        <ele>4.9</ele>
        <time>2021-05-18T06:59:46Z</time>
      </trkpt>
      <trkpt lat="41.7273460" lon="-8.8706830">
        <ele>4.9</ele>
        <time>2021-05-18T06:59:47Z</time>
      </trkpt>
      <trkpt lat="41.7273600" lon="-8.8706910">
        <ele>4.9</ele>
        <time>2021-05-18T06:59:48Z</time>
      </trkpt>
      <trkpt lat="41.7273740" lon="-8.8707010">
        <ele>4.9</ele>
        <time>2021-05-18T06:59:49Z</time>
      </trkpt>
      <trkpt lat="41.7273930" lon="-8.8707110">
        <ele>4.9</ele>
        <time>2021-05-18T06:59:50Z</time>
      </trkpt>
      <trkpt lat="41.7274020" lon="-8.8707170">
        <ele>4.9</ele>
        <time>2021-05-18T06:59:51Z</time>
      </trkpt>
      <trkpt lat="41.7274100" lon="-8.8707230">
        <ele>4.9</ele>
        <time>2021-05-18T06:59:52Z</time>
      </trkpt>
      <trkpt lat="41.7274200" lon="-8.8707330">
        <ele>4.9</ele>
        <time>2021-05-18T06:59:53Z</time>
      </trkpt>
      <trkpt lat="41.7274330" lon="-8.8707450">
        <ele>4.9</ele>
        <time>2021-05-18T06:59:54Z</time>
      </trkpt>
      <trkpt lat="41.7274470" lon="-8.8707530">
        <ele>4.9</ele>
        <time>2021-05-18T06:59:55Z</time>
      </trkpt>
      <trkpt lat="41.7274610" lon="-8.8707540">
        <ele>4.9</ele>
        <time>2021-05-18T06:59:56Z</time>
      </trkpt>
      <trkpt lat="41.7274830" lon="-8.8707620">
        <ele>4.9</ele>
        <time>2021-05-18T06:59:57Z</time>
      </trkpt>
      <trkpt lat="41.7274910" lon="-8.8707670">
        <ele>4.9</ele>
        <time>2021-05-18T06:59:58Z</time>
      </trkpt>
      <trkpt lat="41.7275000" lon="-8.8707720">
        <ele>4.9</ele>
        <time>2021-05-18T06:59:59Z</time>
      </trkpt>
      <trkpt lat="41.7275140" lon="-8.8707780">
        <ele>4.9</ele>
        <time>2021-05-18T07:00:00Z</time>
      </trkpt>
      <trkpt lat="41.7275260" lon="-8.8707870">
        <ele>4.9</ele>
        <time>2021-05-18T07:00:01Z</time>
      </trkpt>
      <trkpt lat="41.7275460" lon="-8.8707980">
        <ele>4.9</ele>
        <time>2021-05-18T07:00:02Z</time>
      </trkpt>
      <trkpt lat="41.7275560" lon="-8.8708020">
        <ele>4.9</ele>
        <time>2021-05-18T07:00:03Z</time>
      </trkpt>
      <trkpt lat="41.7275650" lon="-8.8708050">
        <ele>4.9</ele>
        <time>2021-05-18T07:00:04Z</time>
      </trkpt>
      <trkpt lat="41.7275870" lon="-8.8708160">
        <ele>4.9</ele>
        <time>2021-05-18T07:00:05Z</time>
      </trkpt>
      <trkpt lat="41.7275950" lon="-8.8708200">
        <ele>4.9</ele>
        <time>2021-05-18T07:00:06Z</time>
      </trkpt>
      <trkpt lat="41.7276040" lon="-8.8708250">
        <ele>4.9</ele>
        <time>2021-05-18T07:00:07Z</time>
      </trkpt>
      <trkpt lat="41.7276240" lon="-8.8708370">
        <ele>4.9</ele>
        <time>2021-05-18T07:00:08Z</time>
      </trkpt>
      <trkpt lat="41.7276320" lon="-8.8708430">
        <ele>4.9</ele>
        <time>2021-05-18T07:00:09Z</time>
      </trkpt>
      <trkpt lat="41.7276400" lon="-8.8708500">
        <ele>4.9</ele>
        <time>2021-05-18T07:00:10Z</time>
      </trkpt>
      <trkpt lat="41.7276530" lon="-8.8708610">
        <ele>4.9</ele>
        <time>2021-05-18T07:00:11Z</time>
      </trkpt>
      <trkpt lat="41.7276650" lon="-8.8708660">
        <ele>4.9</ele>
        <time>2021-05-18T07:00:12Z</time>
      </trkpt>
      <trkpt lat="41.7276770" lon="-8.8708770">
        <ele>4.9</ele>
        <time>2021-05-18T07:00:13Z</time>
      </trkpt>
      <trkpt lat="41.7276900" lon="-8.8708810">
        <ele>4.9</ele>
        <time>2021-05-18T07:00:14Z</time>
      </trkpt>
      <trkpt lat="41.7277040" lon="-8.8708900">
        <ele>4.9</ele>
        <time>2021-05-18T07:00:15Z</time>
      </trkpt>
      <trkpt lat="41.7277140" lon="-8.8708970">
        <ele>4.9</ele>
        <time>2021-05-18T07:00:16Z</time>
      </trkpt>
      <trkpt lat="41.7277350" lon="-8.8709070">
        <ele>4.9</ele>
        <time>2021-05-18T07:00:17Z</time>
      </trkpt>
      <trkpt lat="41.7277440" lon="-8.8709120">
        <ele>4.9</ele>
        <time>2021-05-18T07:00:18Z</time>
      </trkpt>
      <trkpt lat="41.7277520" lon="-8.8709160">
        <ele>4.9</ele>
        <time>2021-05-18T07:00:19Z</time>
      </trkpt>
      <trkpt lat="41.7277670" lon="-8.8709220">
        <ele>4.9</ele>
        <time>2021-05-18T07:00:20Z</time>
      </trkpt>
      <trkpt lat="41.7277800" lon="-8.8709290">
        <ele>4.9</ele>
        <time>2021-05-18T07:00:21Z</time>
      </trkpt>
      <trkpt lat="41.7278010" lon="-8.8709380">
        <ele>4.9</ele>
        <time>2021-05-18T07:00:22Z</time>
      </trkpt>
      <trkpt lat="41.7278100" lon="-8.8709430">
        <ele>4.9</ele>
        <time>2021-05-18T07:00:23Z</time>
      </trkpt>
      <trkpt lat="41.7278190" lon="-8.8709470">
        <ele>4.9</ele>
        <time>2021-05-18T07:00:24Z</time>
      </trkpt>
      <trkpt lat="41.7278310" lon="-8.8709540">
        <ele>4.9</ele>
        <time>2021-05-18T07:00:25Z</time>
      </trkpt>
      <trkpt lat="41.7278470" lon="-8.8709580">
        <ele>4.9</ele>
        <time>2021-05-18T07:00:26Z</time>
      </trkpt>
      <trkpt lat="41.7278590" lon="-8.8709650">
        <ele>4.9</ele>
        <time>2021-05-18T07:00:27Z</time>
      </trkpt>
      <trkpt lat="41.7278740" lon="-8.8709710">
        <ele>4.9</ele>
        <time>2021-05-18T07:00:28Z</time>
      </trkpt>
      <trkpt lat="41.7278860" lon="-8.8709730">
        <ele>4.9</ele>
        <time>2021-05-18T07:00:29Z</time>
      </trkpt>
      <trkpt lat="41.7279000" lon="-8.8709820">
        <ele>5.0</ele>
        <time>2021-05-18T07:00:30Z</time>
      </trkpt>
      <trkpt lat="41.7279140" lon="-8.8709860">
        <ele>5.0</ele>
        <time>2021-05-18T07:00:31Z</time>
      </trkpt>
      <trkpt lat="41.7279270" lon="-8.8709900">
        <ele>5.0</ele>
        <time>2021-05-18T07:00:32Z</time>
      </trkpt>
      <trkpt lat="41.7279390" lon="-8.8709910">
        <ele>5.0</ele>
        <time>2021-05-18T07:00:33Z</time>
      </trkpt>
      <trkpt lat="41.7279540" lon="-8.8709940">
        <ele>5.0</ele>
        <time>2021-05-18T07:00:34Z</time>
      </trkpt>
      <trkpt lat="41.7279680" lon="-8.8710010">
        <ele>5.0</ele>
        <time>2021-05-18T07:00:35Z</time>
      </trkpt>
      <trkpt lat="41.7279810" lon="-8.8710020">
        <ele>5.0</ele>
        <time>2021-05-18T07:00:36Z</time>
      </trkpt>
      <trkpt lat="41.7279950" lon="-8.8710070">
        <ele>5.0</ele>
        <time>2021-05-18T07:00:37Z</time>
      </trkpt>
      <trkpt lat="41.7280090" lon="-8.8710090">
        <ele>5.0</ele>
        <time>2021-05-18T07:00:38Z</time>
      </trkpt>
      <trkpt lat="41.7280290" lon="-8.8710200">
        <ele>5.0</ele>
        <time>2021-05-18T07:00:39Z</time>
      </trkpt>
      <trkpt lat="41.7280370" lon="-8.8710250">
        <ele>5.0</ele>
        <time>2021-05-18T07:00:40Z</time>
      </trkpt>
      <trkpt lat="41.7280450" lon="-8.8710290">
        <ele>5.0</ele>
        <time>2021-05-18T07:00:41Z</time>
      </trkpt>
      <trkpt lat="41.7280610" lon="-8.8710310">
        <ele>5.0</ele>
        <time>2021-05-18T07:00:42Z</time>
      </trkpt>
      <trkpt lat="41.7280760" lon="-8.8710370">
        <ele>5.0</ele>
        <time>2021-05-18T07:00:43Z</time>
      </trkpt>
      <trkpt lat="41.7280890" lon="-8.8710400">
        <ele>5.0</ele>
        <time>2021-05-18T07:00:44Z</time>
      </trkpt>
      <trkpt lat="41.7281020" lon="-8.8710490">
        <ele>5.0</ele>
        <time>2021-05-18T07:00:45Z</time>
      </trkpt>
      <trkpt lat="41.7281240" lon="-8.8710540">
        <ele>5.0</ele>
        <time>2021-05-18T07:00:46Z</time>
      </trkpt>
      <trkpt lat="41.7281340" lon="-8.8710580">
        <ele>5.1</ele>
        <time>2021-05-18T07:00:47Z</time>
      </trkpt>
      <trkpt lat="41.7281440" lon="-8.8710610">
        <ele>5.1</ele>
        <time>2021-05-18T07:00:48Z</time>
      </trkpt>
      <trkpt lat="41.7281550" lon="-8.8710690">
        <ele>5.1</ele>
        <time>2021-05-18T07:00:49Z</time>
      </trkpt>
      <trkpt lat="41.7281700" lon="-8.8710750">
        <ele>5.1</ele>
        <time>2021-05-18T07:00:50Z</time>
      </trkpt>
      <trkpt lat="41.7281910" lon="-8.8710840">
        <ele>5.1</ele>
        <time>2021-05-18T07:00:51Z</time>
      </trkpt>
      <trkpt lat="41.7282000" lon="-8.8710870">
        <ele>5.1</ele>
        <time>2021-05-18T07:00:52Z</time>
      </trkpt>
      <trkpt lat="41.7282080" lon="-8.8710900">
        <ele>5.1</ele>
        <time>2021-05-18T07:00:53Z</time>
      </trkpt>
      <trkpt lat="41.7282220" lon="-8.8710910">
        <ele>5.1</ele>
        <time>2021-05-18T07:00:54Z</time>
      </trkpt>
      <trkpt lat="41.7282360" lon="-8.8710980">
        <ele>5.1</ele>
        <time>2021-05-18T07:00:55Z</time>
      </trkpt>
      <trkpt lat="41.7282500" lon="-8.8711000">
        <ele>5.1</ele>
        <time>2021-05-18T07:00:56Z</time>
      </trkpt>
      <trkpt lat="41.7282510" lon="-8.8711000">
        <ele>5.1</ele>
        <time>2021-05-18T07:00:57Z</time>
      </trkpt>
      <trkpt lat="41.7282520" lon="-8.8711000">
        <ele>5.1</ele>
        <time>2021-05-18T07:00:58Z</time>
      </trkpt>
      <trkpt lat="41.7282520" lon="-8.8711000">
        <ele>5.1</ele>
        <time>2021-05-18T07:00:59Z</time>
      </trkpt>
      <trkpt lat="41.7282530" lon="-8.8711000">
        <ele>5.1</ele>
        <time>2021-05-18T07:01:00Z</time>
      </trkpt>
      <trkpt lat="41.7282540" lon="-8.8711000">
        <ele>5.1</ele>
        <time>2021-05-18T07:01:01Z</time>
      </trkpt>
      <trkpt lat="41.7282550" lon="-8.8711000">
        <ele>5.1</ele>
        <time>2021-05-18T07:01:02Z</time>
      </trkpt>
      <trkpt lat="41.7282560" lon="-8.8711000">
        <ele>5.1</ele>
        <time>2021-05-18T07:01:03Z</time>
      </trkpt>
      <trkpt lat="41.7282570" lon="-8.8711000">
        <ele>5.1</ele>
        <time>2021-05-18T07:01:04Z</time>
      </trkpt>
      <trkpt lat="41.7282580" lon="-8.8711000">
        <ele>5.1</ele>
        <time>2021-05-18T07:01:05Z</time>
      </trkpt>
      <trkpt lat="41.7282590" lon="-8.8711000">
        <ele>5.1</ele>
        <time>2021-05-18T07:01:06Z</time>
      </trkpt>
      <trkpt lat="41.7282590" lon="-8.8711000">
        <ele>5.1</ele>
        <time>2021-05-18T07:01:07Z</time>
      </trkpt>
      <trkpt lat="41.7282600" lon="-8.8711000">
        <ele>5.1</ele>
        <time>2021-05-18T07:01:08Z</time>
      </trkpt>
      <trkpt lat="41.7282610" lon="-8.8711000">
        <ele>5.1</ele>
        <time>2021-05-18T07:01:09Z</time>
      </trkpt>
      <trkpt lat="41.7282620" lon="-8.8711000">
        <ele>5.1</ele>
        <time>2021-05-18T07:01:10Z</time>
      </trkpt>
      <trkpt lat="41.7282630" lon="-8.8711000">
        <ele>5.1</ele>
        <time>2021-05-18T07:01:11Z</time>
      </trkpt>
      <trkpt lat="41.7282640" lon="-8.8711000">
        <ele>5.1</ele>
        <time>2021-05-18T07:01:12Z</time>
      </trkpt>
      <trkpt lat="41.7282650" lon="-8.8711000">
        <ele>5.1</ele>
        <time>2021-05-18T07:01:13Z</time>
      </trkpt>
      <trkpt lat="41.7282650" lon="-8.8711000">
        <ele>5.1</ele>
        <time>2021-05-18T07:01:14Z</time>
      </trkpt>
      <trkpt lat="41.7282660" lon="-8.8711000">
        <ele>5.1</ele>
        <time>2021-05-18T07:01:15Z</time>
      </trkpt>
      <trkpt lat="41.7282670" lon="-8.8711000">
        <ele>5.1</ele>
        <time>2021-05-18T07:01:16Z</time>
      </trkpt>
      <trkpt lat="41.7282680" lon="-8.8711000">
        <ele>5.1</ele>
        <time>2021-05-18T07:01:17Z</time>
      </trkpt>
      <trkpt lat="41.7282690" lon="-8.8711000">
        <ele>5.1</ele>
        <time>2021-05-18T07:01:18Z</time>
      </trkpt>
      <trkpt lat="41.7282700" lon="-8.8711000">
        <ele>5.1</ele>
        <time>2021-05-18T07:01:19Z</time>
      </trkpt>
      <trkpt lat="41.7282710" lon="-8.8711000">
        <ele>5.1</ele>
        <time>2021-05-18T07:01:20Z</time>
      </trkpt>
      <trkpt lat="41.7282720" lon="-8.8711000">
        <ele>5.1</ele>
        <time>2021-05-18T07:01:21Z</time>
      </trkpt>
      <trkpt lat="41.7282720" lon="-8.8711000">
        <ele>5.1</ele>
        <time>2021-05-18T07:01:22Z</time>
      </trkpt>
      <trkpt lat="41.7282730" lon="-8.8711000">
        <ele>5.1</ele>
        <time>2021-05-18T07:01:23Z</time>
      </trkpt>
      <trkpt lat="41.7282740" lon="-8.8711000">
        <ele>5.1</ele>
        <time>2021-05-18T07:01:24Z</time>
      </trkpt>
      <trkpt lat="41.7282750" lon="-8.8711000">
        <ele>5.1</ele>
        <time>2021-05-18T07:01:25Z</time>
      </trkpt>
      <trkpt lat="41.7282970" lon="-8.8711070">
        <ele>5.1</ele>
        <time>2021-05-18T07:01:26Z</time>
      </trkpt>
      <trkpt lat="41.7283090" lon="-8.8711100">
        <ele>5.1</ele>
        <time>2021-05-18T07:01:27Z</time>
      </trkpt>
      <trkpt lat="41.7283200" lon="-8.8711130">
        <ele>5.1</ele>
        <time>2021-05-18T07:01:28Z</time>
      </trkpt>
      <trkpt lat="41.7283400" lon="-8.8711150">
        <ele>5.1</ele>
        <time>2021-05-18T07:01:29Z</time>
      </trkpt>
      <trkpt lat="41.7283500" lon="-8.8711190">
        <ele>5.1</ele>
        <time>2021-05-18T07:01:30Z</time>
      </trkpt>
      <trkpt lat="41.7283590" lon="-8.8711220">
        <ele>5.1</ele>
        <time>2021-05-18T07:01:31Z</time>
      </trkpt>
      <trkpt lat="41.7283800" lon="-8.8711280">
        <ele>5.1</ele>
        <time>2021-05-18T07:01:32Z</time>
      </trkpt>
      <trkpt lat="41.7283890" lon="-8.8711280">
        <ele>5.1</ele>
        <time>2021-05-18T07:01:33Z</time>
      </trkpt>
      <trkpt lat="41.7283980" lon="-8.8711290">
        <ele>5.1</ele>
        <time>2021-05-18T07:01:34Z</time>
      </trkpt>
      <trkpt lat="41.7284190" lon="-8.8711360">
        <ele>5.1</ele>
        <time>2021-05-18T07:01:35Z</time>
      </trkpt>
      <trkpt lat="41.7284290" lon="-8.8711390">
        <ele>5.1</ele>
        <time>2021-05-18T07:01:36Z</time>
      </trkpt>
      <trkpt lat="41.7284380" lon="-8.8711410">
        <ele>5.1</ele>
        <time>2021-05-18T07:01:37Z</time>
      </trkpt>
      <trkpt lat="41.7284530" lon="-8.8711450">
        <ele>5.1</ele>
        <time>2021-05-18T07:01:38Z</time>
      </trkpt>
      <trkpt lat="41.7284700" lon="-8.8711490">
        <ele>5.1</ele>
        <time>2021-05-18T07:01:39Z</time>
      </trkpt>
      <trkpt lat="41.7284860" lon="-8.8711560">
        <ele>5.1</ele>
        <time>2021-05-18T07:01:40Z</time>
      </trkpt>
      <trkpt lat="41.7285020" lon="-8.8711610">
        <ele>5.1</ele>
        <time>2021-05-18T07:01:41Z</time>
      </trkpt>
      <trkpt lat="41.7285180" lon="-8.8711650">
        <ele>5.1</ele>
        <time>2021-05-18T07:01:42Z</time>
      </trkpt>
      <trkpt lat="41.7285320" lon="-8.8711690">
        <ele>5.1</ele>
        <time>2021-05-18T07:01:43Z</time>
      </trkpt>
      <trkpt lat="41.7285460" lon="-8.8711720">
        <ele>5.1</ele>
        <time>2021-05-18T07:01:44Z</time>
      </trkpt>
      <trkpt lat="41.7285600" lon="-8.8711780">
        <ele>5.1</ele>
        <time>2021-05-18T07:01:45Z</time>
      </trkpt>
      <trkpt lat="41.7285740" lon="-8.8711820">
        <ele>5.1</ele>
        <time>2021-05-18T07:01:46Z</time>
      </trkpt>
      <trkpt lat="41.7285870" lon="-8.8711840">
        <ele>5.1</ele>
        <time>2021-05-18T07:01:47Z</time>
      </trkpt>
      <trkpt lat="41.7286010" lon="-8.8711820">
        <ele>5.1</ele>
        <time>2021-05-18T07:01:48Z</time>
      </trkpt>
      <trkpt lat="41.7286160" lon="-8.8711920">
        <ele>5.1</ele>
        <time>2021-05-18T07:01:49Z</time>
      </trkpt>
      <trkpt lat="41.7286300" lon="-8.8711950">
        <ele>5.1</ele>
        <time>2021-05-18T07:01:50Z</time>
      </trkpt>
      <trkpt lat="41.7286440" lon="-8.8711990">
        <ele>5.1</ele>
        <time>2021-05-18T07:01:51Z</time>
      </trkpt>
      <trkpt lat="41.7286580" lon="-8.8712070">
        <ele>5.1</ele>
        <time>2021-05-18T07:01:52Z</time>
      </trkpt>
      <trkpt lat="41.7286720" lon="-8.8712150">
        <ele>5.1</ele>
        <time>2021-05-18T07:01:53Z</time>
      </trkpt>
      <trkpt lat="41.7286860" lon="-8.8712210">
        <ele>5.0</ele>
        <time>2021-05-18T07:01:54Z</time>
      </trkpt>
      <trkpt lat="41.7286990" lon="-8.8712200">
        <ele>5.0</ele>
        <time>2021-05-18T07:01:55Z</time>
      </trkpt>
      <trkpt lat="41.7287120" lon="-8.8712280">
        <ele>5.0</ele>
        <time>2021-05-18T07:01:56Z</time>
      </trkpt>
      <trkpt lat="41.7287260" lon="-8.8712290">
        <ele>5.0</ele>
        <time>2021-05-18T07:01:57Z</time>
      </trkpt>
      <trkpt lat="41.7287410" lon="-8.8712390">
        <ele>5.0</ele>
        <time>2021-05-18T07:01:58Z</time>
      </trkpt>
      <trkpt lat="41.7287570" lon="-8.8712450">
        <ele>5.0</ele>
        <time>2021-05-18T07:01:59Z</time>
      </trkpt>
      <trkpt lat="41.7287700" lon="-8.8712470">
        <ele>5.0</ele>
        <time>2021-05-18T07:02:00Z</time>
      </trkpt>
      <trkpt lat="41.7287840" lon="-8.8712480">
        <ele>5.0</ele>
        <time>2021-05-18T07:02:01Z</time>
      </trkpt>
      <trkpt lat="41.7287970" lon="-8.8712540">
        <ele>5.0</ele>
        <time>2021-05-18T07:02:02Z</time>
      </trkpt>
      <trkpt lat="41.7288130" lon="-8.8712660">
        <ele>5.0</ele>
        <time>2021-05-18T07:02:03Z</time>
      </trkpt>
      <trkpt lat="41.7288280" lon="-8.8712730">
        <ele>4.9</ele>
        <time>2021-05-18T07:02:04Z</time>
      </trkpt>
      <trkpt lat="41.7288420" lon="-8.8712830">
        <ele>4.9</ele>
        <time>2021-05-18T07:02:05Z</time>
      </trkpt>
      <trkpt lat="41.7288540" lon="-8.8712840">
        <ele>4.9</ele>
        <time>2021-05-18T07:02:06Z</time>
      </trkpt>
      <trkpt lat="41.7288710" lon="-8.8712850">
        <ele>4.9</ele>
        <time>2021-05-18T07:02:07Z</time>
      </trkpt>
      <trkpt lat="41.7288870" lon="-8.8712890">
        <ele>4.9</ele>
        <time>2021-05-18T07:02:08Z</time>
      </trkpt>
      <trkpt lat="41.7288990" lon="-8.8712940">
        <ele>4.9</ele>
        <time>2021-05-18T07:02:09Z</time>
      </trkpt>
      <trkpt lat="41.7289130" lon="-8.8713030">
        <ele>4.9</ele>
        <time>2021-05-18T07:02:10Z</time>
      </trkpt>
      <trkpt lat="41.7289280" lon="-8.8713070">
        <ele>4.9</ele>
        <time>2021-05-18T07:02:11Z</time>
      </trkpt>
      <trkpt lat="41.7289410" lon="-8.8713110">
        <ele>4.9</ele>
        <time>2021-05-18T07:02:12Z</time>
      </trkpt>
      <trkpt lat="41.7289550" lon="-8.8713170">
        <ele>4.8</ele>
        <time>2021-05-18T07:02:13Z</time>
      </trkpt>
      <trkpt lat="41.7289670" lon="-8.8713260">
        <ele>4.8</ele>
        <time>2021-05-18T07:02:14Z</time>
      </trkpt>
      <trkpt lat="41.7289800" lon="-8.8713330">
        <ele>4.8</ele>
        <time>2021-05-18T07:02:15Z</time>
      </trkpt>
      <trkpt lat="41.7289930" lon="-8.8713380">
        <ele>4.8</ele>
        <time>2021-05-18T07:02:16Z</time>
      </trkpt>
      <trkpt lat="41.7290050" lon="-8.8713460">
        <ele>4.8</ele>
        <time>2021-05-18T07:02:17Z</time>
      </trkpt>
      <trkpt lat="41.7290190" lon="-8.8713510">
        <ele>4.8</ele>
        <time>2021-05-18T07:02:18Z</time>
      </trkpt>
      <trkpt lat="41.7290330" lon="-8.8713570">
        <ele>4.8</ele>
        <time>2021-05-18T07:02:19Z</time>
      </trkpt>
      <trkpt lat="41.7290470" lon="-8.8713630">
        <ele>4.8</ele>
        <time>2021-05-18T07:02:20Z</time>
      </trkpt>
      <trkpt lat="41.7290660" lon="-8.8713680">
        <ele>4.8</ele>
        <time>2021-05-18T07:02:21Z</time>
      </trkpt>
      <trkpt lat="41.7290880" lon="-8.8713780">
        <ele>4.7</ele>
        <time>2021-05-18T07:02:22Z</time>
      </trkpt>
      <trkpt lat="41.7290950" lon="-8.8713800">
        <ele>4.7</ele>
        <time>2021-05-18T07:02:23Z</time>
      </trkpt>
      <trkpt lat="41.7291030" lon="-8.8713830">
        <ele>4.7</ele>
        <time>2021-05-18T07:02:24Z</time>
      </trkpt>
      <trkpt lat="41.7291200" lon="-8.8713830">
        <ele>4.7</ele>
        <time>2021-05-18T07:02:25Z</time>
      </trkpt>
      <trkpt lat="41.7291320" lon="-8.8713900">
        <ele>4.7</ele>
        <time>2021-05-18T07:02:26Z</time>
      </trkpt>
      <trkpt lat="41.7291430" lon="-8.8713980">
        <ele>4.7</ele>
        <time>2021-05-18T07:02:27Z</time>
      </trkpt>
      <trkpt lat="41.7291580" lon="-8.8714020">
        <ele>4.7</ele>
        <time>2021-05-18T07:02:28Z</time>
      </trkpt>
      <trkpt lat="41.7291730" lon="-8.8714060">
        <ele>4.7</ele>
        <time>2021-05-18T07:02:29Z</time>
      </trkpt>
      <trkpt lat="41.7291850" lon="-8.8714030">
        <ele>4.7</ele>
        <time>2021-05-18T07:02:30Z</time>
      </trkpt>
      <trkpt lat="41.7292010" lon="-8.8714060">
        <ele>4.7</ele>
        <time>2021-05-18T07:02:31Z</time>
      </trkpt>
      <trkpt lat="41.7292150" lon="-8.8714050">
        <ele>4.7</ele>
        <time>2021-05-18T07:02:32Z</time>
      </trkpt>
      <trkpt lat="41.7292360" lon="-8.8714070">
        <ele>4.7</ele>
        <time>2021-05-18T07:02:33Z</time>
      </trkpt>
      <trkpt lat="41.7292460" lon="-8.8714090">
        <ele>4.7</ele>
        <time>2021-05-18T07:02:34Z</time>
      </trkpt>
      <trkpt lat="41.7292550" lon="-8.8714110">
        <ele>4.7</ele>
        <time>2021-05-18T07:02:35Z</time>
      </trkpt>
      <trkpt lat="41.7292710" lon="-8.8714110">
        <ele>4.7</ele>
        <time>2021-05-18T07:02:36Z</time>
      </trkpt>
      <trkpt lat="41.7292850" lon="-8.8714100">
        <ele>4.7</ele>
        <time>2021-05-18T07:02:37Z</time>
      </trkpt>
      <trkpt lat="41.7292990" lon="-8.8714100">
        <ele>4.8</ele>
        <time>2021-05-18T07:02:38Z</time>
      </trkpt>
      <trkpt lat="41.7293120" lon="-8.8714140">
        <ele>4.8</ele>
        <time>2021-05-18T07:02:39Z</time>
      </trkpt>
      <trkpt lat="41.7293260" lon="-8.8714140">
        <ele>4.8</ele>
        <time>2021-05-18T07:02:40Z</time>
      </trkpt>
      <trkpt lat="41.7293410" lon="-8.8714170">
        <ele>4.8</ele>
        <time>2021-05-18T07:02:41Z</time>
      </trkpt>
      <trkpt lat="41.7293540" lon="-8.8714150">
        <ele>4.8</ele>
        <time>2021-05-18T07:02:42Z</time>
      </trkpt>
      <trkpt lat="41.7293700" lon="-8.8714120">
        <ele>4.8</ele>
        <time>2021-05-18T07:02:43Z</time>
      </trkpt>
      <trkpt lat="41.7293840" lon="-8.8714130">
        <ele>4.9</ele>
        <time>2021-05-18T07:02:44Z</time>
      </trkpt>
      <trkpt lat="41.7294000" lon="-8.8714120">
        <ele>4.9</ele>
        <time>2021-05-18T07:02:45Z</time>
      </trkpt>
      <trkpt lat="41.7294150" lon="-8.8714120">
        <ele>4.9</ele>
        <time>2021-05-18T07:02:46Z</time>
      </trkpt>
      <trkpt lat="41.7294310" lon="-8.8714170">
        <ele>4.9</ele>
        <time>2021-05-18T07:02:47Z</time>
      </trkpt>
      <trkpt lat="41.7294520" lon="-8.8714170">
        <ele>5.0</ele>
        <time>2021-05-18T07:02:48Z</time>
      </trkpt>
      <trkpt lat="41.7294600" lon="-8.8714160">
        <ele>5.0</ele>
        <time>2021-05-18T07:02:49Z</time>
      </trkpt>
      <trkpt lat="41.7294690" lon="-8.8714150">
        <ele>5.0</ele>
        <time>2021-05-18T07:02:50Z</time>
      </trkpt>
      <trkpt lat="41.7294850" lon="-8.8714090">
        <ele>5.0</ele>
        <time>2021-05-18T07:02:51Z</time>
      </trkpt>
      <trkpt lat="41.7295000" lon="-8.8714050">
        <ele>5.0</ele>
        <time>2021-05-18T07:02:52Z</time>
      </trkpt>
      <trkpt lat="41.7295130" lon="-8.8714110">
        <ele>5.1</ele>
        <time>2021-05-18T07:02:53Z</time>
      </trkpt>
      <trkpt lat="41.7295270" lon="-8.8714070">
        <ele>5.1</ele>
        <time>2021-05-18T07:02:54Z</time>
      </trkpt>
      <trkpt lat="41.7295410" lon="-8.8714080">
        <ele>5.1</ele>
        <time>2021-05-18T07:02:55Z</time>
      </trkpt>
      <trkpt lat="41.7295550" lon="-8.8714070">
        <ele>5.1</ele>
        <time>2021-05-18T07:02:56Z</time>
      </trkpt>
      <trkpt lat="41.7295670" lon="-8.8714030">
        <ele>5.2</ele>
        <time>2021-05-18T07:02:57Z</time>
      </trkpt>
      <trkpt lat="41.7295820" lon="-8.8714000">
        <ele>5.2</ele>
        <time>2021-05-18T07:02:58Z</time>
      </trkpt>
      <trkpt lat="41.7295940" lon="-8.8713990">
        <ele>5.2</ele>
        <time>2021-05-18T07:02:59Z</time>
      </trkpt>
      <trkpt lat="41.7296110" lon="-8.8713970">
        <ele>5.2</ele>
        <time>2021-05-18T07:03:00Z</time>
      </trkpt>
      <trkpt lat="41.7296240" lon="-8.8713930">
        <ele>5.3</ele>
        <time>2021-05-18T07:03:01Z</time>
      </trkpt>
      <trkpt lat="41.7296390" lon="-8.8713900">
        <ele>5.3</ele>
        <time>2021-05-18T07:03:02Z</time>
      </trkpt>
      <trkpt lat="41.7296530" lon="-8.8713830">
        <ele>5.3</ele>
        <time>2021-05-18T07:03:03Z</time>
      </trkpt>
      <trkpt lat="41.7296690" lon="-8.8713780">
        <ele>5.3</ele>
        <time>2021-05-18T07:03:04Z</time>
      </trkpt>
      <trkpt lat="41.7296890" lon="-8.8713720">
        <ele>5.4</ele>
        <time>2021-05-18T07:03:05Z</time>
      </trkpt>
      <trkpt lat="41.7296970" lon="-8.8713690">
        <ele>5.4</ele>
        <time>2021-05-18T07:03:06Z</time>
      </trkpt>
      <trkpt lat="41.7297060" lon="-8.8713660">
        <ele>5.4</ele>
        <time>2021-05-18T07:03:07Z</time>
      </trkpt>
      <trkpt lat="41.7297200" lon="-8.8713620">
        <ele>5.4</ele>
        <time>2021-05-18T07:03:08Z</time>
      </trkpt>
      <trkpt lat="41.7297360" lon="-8.8713540">
        <ele>5.4</ele>
        <time>2021-05-18T07:03:09Z</time>
      </trkpt>
      <trkpt lat="41.7297580" lon="-8.8713430">
        <ele>5.5</ele>
        <time>2021-05-18T07:03:10Z</time>
      </trkpt>
      <trkpt lat="41.7297670" lon="-8.8713380">
        <ele>5.5</ele>
        <time>2021-05-18T07:03:11Z</time>
      </trkpt>
      <trkpt lat="41.7297750" lon="-8.8713330">
        <ele>5.5</ele>
        <time>2021-05-18T07:03:12Z</time>
      </trkpt>
      <trkpt lat="41.7297890" lon="-8.8713290">
        <ele>5.5</ele>
        <time>2021-05-18T07:03:13Z</time>
      </trkpt>
      <trkpt lat="41.7298020" lon="-8.8713190">
        <ele>5.5</ele>
        <time>2021-05-18T07:03:14Z</time>
      </trkpt>
      <trkpt lat="41.7298170" lon="-8.8713200">
        <ele>5.5</ele>
        <time>2021-05-18T07:03:15Z</time>
      </trkpt>
      <trkpt lat="41.7298300" lon="-8.8713130">
        <ele>5.5</ele>
        <time>2021-05-18T07:03:16Z</time>
      </trkpt>
      <trkpt lat="41.7298510" lon="-8.8713060">
        <ele>5.6</ele>
        <time>2021-05-18T07:03:17Z</time>
      </trkpt>
      <trkpt lat="41.7298610" lon="-8.8713030">
        <ele>5.6</ele>
        <time>2021-05-18T07:03:18Z</time>
      </trkpt>
      <trkpt lat="41.7298710" lon="-8.8713000">
        <ele>5.6</ele>
        <time>2021-05-18T07:03:19Z</time>
      </trkpt>
      <trkpt lat="41.7298840" lon="-8.8712930">
        <ele>5.6</ele>
        <time>2021-05-18T07:03:20Z</time>
      </trkpt>
      <trkpt lat="41.7298970" lon="-8.8712900">
        <ele>5.6</ele>
        <time>2021-05-18T07:03:21Z</time>
      </trkpt>
      <trkpt lat="41.7299190" lon="-8.8712820">
        <ele>5.6</ele>
        <time>2021-05-18T07:03:22Z</time>
      </trkpt>
      <trkpt lat="41.7299280" lon="-8.8712810">
        <ele>5.6</ele>
        <time>2021-05-18T07:03:23Z</time>
      </trkpt>
      <trkpt lat="41.7299360" lon="-8.8712800">
        <ele>5.6</ele>
        <time>2021-05-18T07:03:24Z</time>
      </trkpt>
      <trkpt lat="41.7299510" lon="-8.8712800">
        <ele>5.6</ele>
        <time>2021-05-18T07:03:25Z</time>
      </trkpt>
      <trkpt lat="41.7299640" lon="-8.8712730">
        <ele>5.6</ele>
        <time>2021-05-18T07:03:26Z</time>
      </trkpt>
      <trkpt lat="41.7299770" lon="-8.8712760">
        <ele>5.6</ele>
        <time>2021-05-18T07:03:27Z</time>
      </trkpt>
      <trkpt lat="41.7299920" lon="-8.8712780">
        <ele>5.6</ele>
        <time>2021-05-18T07:03:28Z</time>
      </trkpt>
      <trkpt lat="41.7300050" lon="-8.8712760">
        <ele>5.6</ele>
        <time>2021-05-18T07:03:29Z</time>
      </trkpt>
      <trkpt lat="41.7300220" lon="-8.8712760">
        <ele>5.6</ele>
        <time>2021-05-18T07:03:30Z</time>
      </trkpt>
      <trkpt lat="41.7300360" lon="-8.8712740">
        <ele>5.7</ele>
        <time>2021-05-18T07:03:31Z</time>
      </trkpt>
      <trkpt lat="41.7300490" lon="-8.8712750">
        <ele>5.7</ele>
        <time>2021-05-18T07:03:32Z</time>
      </trkpt>
      <trkpt lat="41.7300630" lon="-8.8712760">
        <ele>5.7</ele>
        <time>2021-05-18T07:03:33Z</time>
      </trkpt>
      <trkpt lat="41.7300770" lon="-8.8712780">
        <ele>5.7</ele>
        <time>2021-05-18T07:03:34Z</time>
      </trkpt>
      <trkpt lat="41.7300920" lon="-8.8712780">
        <ele>5.7</ele>
        <time>2021-05-18T07:03:35Z</time>
      </trkpt>
      <trkpt lat="41.7301050" lon="-8.8712800">
        <ele>5.7</ele>
        <time>2021-05-18T07:03:36Z</time>
      </trkpt>
      <trkpt lat="41.7301180" lon="-8.8712780">
        <ele>5.7</ele>
        <time>2021-05-18T07:03:37Z</time>
      </trkpt>
      <trkpt lat="41.7301340" lon="-8.8712820">
        <ele>5.7</ele>
        <time>2021-05-18T07:03:38Z</time>
      </trkpt>
      <trkpt lat="41.7301480" lon="-8.8712810">
        <ele>5.7</ele>
        <time>2021-05-18T07:03:39Z</time>
      </trkpt>
      <trkpt lat="41.7301620" lon="-8.8712830">
        <ele>5.7</ele>
        <time>2021-05-18T07:03:40Z</time>
      </trkpt>
      <trkpt lat="41.7301780" lon="-8.8712860">
        <ele>5.7</ele>
        <time>2021-05-18T07:03:41Z</time>
      </trkpt>
      <trkpt lat="41.7301930" lon="-8.8712830">
        <ele>5.7</ele>
        <time>2021-05-18T07:03:42Z</time>
      </trkpt>
      <trkpt lat="41.7302060" lon="-8.8712840">
        <ele>5.7</ele>
        <time>2021-05-18T07:03:43Z</time>
      </trkpt>
      <trkpt lat="41.7302200" lon="-8.8712850">
        <ele>5.7</ele>
        <time>2021-05-18T07:03:44Z</time>
      </trkpt>
      <trkpt lat="41.7302310" lon="-8.8712870">
        <ele>5.7</ele>
        <time>2021-05-18T07:03:45Z</time>
      </trkpt>
      <trkpt lat="41.7302470" lon="-8.8712890">
        <ele>5.7</ele>
        <time>2021-05-18T07:03:46Z</time>
      </trkpt>
      <trkpt lat="41.7302620" lon="-8.8712870">
        <ele>5.7</ele>
        <time>2021-05-18T07:03:47Z</time>
      </trkpt>
      <trkpt lat="41.7302780" lon="-8.8712850">
        <ele>5.7</ele>
        <time>2021-05-18T07:03:48Z</time>
      </trkpt>
      <trkpt lat="41.7302990" lon="-8.8712860">
        <ele>5.7</ele>
        <time>2021-05-18T07:03:49Z</time>
      </trkpt>
      <trkpt lat="41.7303080" lon="-8.8712870">
        <ele>5.7</ele>
        <time>2021-05-18T07:03:50Z</time>
      </trkpt>
      <trkpt lat="41.7303160" lon="-8.8712880">
        <ele>5.7</ele>
        <time>2021-05-18T07:03:51Z</time>
      </trkpt>
      <trkpt lat="41.7303290" lon="-8.8712910">
        <ele>5.7</ele>
        <time>2021-05-18T07:03:52Z</time>
      </trkpt>
      <trkpt lat="41.7303440" lon="-8.8712910">
        <ele>5.8</ele>
        <time>2021-05-18T07:03:53Z</time>
      </trkpt>
      <trkpt lat="41.7303610" lon="-8.8712870">
        <ele>5.8</ele>
        <time>2021-05-18T07:03:54Z</time>
      </trkpt>
      <trkpt lat="41.7303740" lon="-8.8712890">
        <ele>5.8</ele>
        <time>2021-05-18T07:03:55Z</time>
      </trkpt>
      <trkpt lat="41.7303900" lon="-8.8712930">
        <ele>5.8</ele>
        <time>2021-05-18T07:03:56Z</time>
      </trkpt>
      <trkpt lat="41.7304050" lon="-8.8712920">
        <ele>5.8</ele>
        <time>2021-05-18T07:03:57Z</time>
      </trkpt>
      <trkpt lat="41.7304190" lon="-8.8712910">
        <ele>5.8</ele>
        <time>2021-05-18T07:03:58Z</time>
      </trkpt>
      <trkpt lat="41.7304320" lon="-8.8712910">
        <ele>5.8</ele>
        <time>2021-05-18T07:03:59Z</time>
      </trkpt>
      <trkpt lat="41.7304470" lon="-8.8712870">
        <ele>5.8</ele>
        <time>2021-05-18T07:04:00Z</time>
      </trkpt>
      <trkpt lat="41.7304610" lon="-8.8712920">
        <ele>5.8</ele>
        <time>2021-05-18T07:04:01Z</time>
      </trkpt>
      <trkpt lat="41.7304760" lon="-8.8712910">
        <ele>5.8</ele>
        <time>2021-05-18T07:04:02Z</time>
      </trkpt>
      <trkpt lat="41.7304910" lon="-8.8712940">
        <ele>5.8</ele>
        <time>2021-05-18T07:04:03Z</time>
      </trkpt>
      <trkpt lat="41.7305040" lon="-8.8712930">
        <ele>5.8</ele>
        <time>2021-05-18T07:04:04Z</time>
      </trkpt>
      <trkpt lat="41.7305190" lon="-8.8712960">
        <ele>5.8</ele>
        <time>2021-05-18T07:04:05Z</time>
      </trkpt>
      <trkpt lat="41.7305340" lon="-8.8712930">
        <ele>5.8</ele>
        <time>2021-05-18T07:04:06Z</time>
      </trkpt>
      <trkpt lat="41.7305480" lon="-8.8712930">
        <ele>5.8</ele>
        <time>2021-05-18T07:04:07Z</time>
      </trkpt>
      <trkpt lat="41.7305590" lon="-8.8712980">
        <ele>5.8</ele>
        <time>2021-05-18T07:04:08Z</time>
      </trkpt>
      <trkpt lat="41.7305590" lon="-8.8712980">
        <ele>5.8</ele>
        <time>2021-05-18T07:04:09Z</time>
      </trkpt>
      <trkpt lat="41.7305600" lon="-8.8712980">
        <ele>5.8</ele>
        <time>2021-05-18T07:04:10Z</time>
      </trkpt>
      <trkpt lat="41.7305600" lon="-8.8712980">
        <ele>5.8</ele>
        <time>2021-05-18T07:04:11Z</time>
      </trkpt>
      <trkpt lat="41.7305610" lon="-8.8712980">
        <ele>5.8</ele>
        <time>2021-05-18T07:04:12Z</time>
      </trkpt>
      <trkpt lat="41.7305610" lon="-8.8712980">
        <ele>5.8</ele>
        <time>2021-05-18T07:04:13Z</time>
      </trkpt>
      <trkpt lat="41.7305620" lon="-8.8712980">
        <ele>5.8</ele>
        <time>2021-05-18T07:04:14Z</time>
      </trkpt>
      <trkpt lat="41.7305630" lon="-8.8712980">
        <ele>5.8</ele>
        <time>2021-05-18T07:04:15Z</time>
      </trkpt>
      <trkpt lat="41.7305630" lon="-8.8712980">
        <ele>5.8</ele>
        <time>2021-05-18T07:04:16Z</time>
      </trkpt>
      <trkpt lat="41.7305640" lon="-8.8712980">
        <ele>5.8</ele>
        <time>2021-05-18T07:04:17Z</time>
      </trkpt>
      <trkpt lat="41.7305640" lon="-8.8712980">
        <ele>5.8</ele>
        <time>2021-05-18T07:04:18Z</time>
      </trkpt>
      <trkpt lat="41.7305650" lon="-8.8712980">
        <ele>5.8</ele>
        <time>2021-05-18T07:04:19Z</time>
      </trkpt>
      <trkpt lat="41.7305660" lon="-8.8712980">
        <ele>5.8</ele>
        <time>2021-05-18T07:04:20Z</time>
      </trkpt>
      <trkpt lat="41.7305660" lon="-8.8712980">
        <ele>5.8</ele>
        <time>2021-05-18T07:04:21Z</time>
      </trkpt>
      <trkpt lat="41.7305670" lon="-8.8712980">
        <ele>5.8</ele>
        <time>2021-05-18T07:04:22Z</time>
      </trkpt>
      <trkpt lat="41.7305670" lon="-8.8712980">
        <ele>5.8</ele>
        <time>2021-05-18T07:04:23Z</time>
      </trkpt>
      <trkpt lat="41.7305680" lon="-8.8712980">
        <ele>5.8</ele>
        <time>2021-05-18T07:04:24Z</time>
      </trkpt>
      <trkpt lat="41.7305680" lon="-8.8712980">
        <ele>5.8</ele>
        <time>2021-05-18T07:04:25Z</time>
      </trkpt>
      <trkpt lat="41.7305690" lon="-8.8712980">
        <ele>5.8</ele>
        <time>2021-05-18T07:04:26Z</time>
      </trkpt>
      <trkpt lat="41.7305700" lon="-8.8712980">
        <ele>5.8</ele>
        <time>2021-05-18T07:04:27Z</time>
      </trkpt>
      <trkpt lat="41.7305700" lon="-8.8712980">
        <ele>5.8</ele>
        <time>2021-05-18T07:04:28Z</time>
      </trkpt>
      <trkpt lat="41.7305710" lon="-8.8712980">
        <ele>5.8</ele>
        <time>2021-05-18T07:04:29Z</time>
      </trkpt>
      <trkpt lat="41.7305710" lon="-8.8712980">
        <ele>5.8</ele>
        <time>2021-05-18T07:04:30Z</time>
      </trkpt>
      <trkpt lat="41.7305720" lon="-8.8712980">
        <ele>5.8</ele>
        <time>2021-05-18T07:04:31Z</time>
      </trkpt>
      <trkpt lat="41.7305720" lon="-8.8712980">
        <ele>5.8</ele>
        <time>2021-05-18T07:04:32Z</time>
      </trkpt>
      <trkpt lat="41.7305730" lon="-8.8712980">
        <ele>5.8</ele>
        <time>2021-05-18T07:04:33Z</time>
      </trkpt>
      <trkpt lat="41.7305740" lon="-8.8712980">
        <ele>5.8</ele>
        <time>2021-05-18T07:04:34Z</time>
      </trkpt>
      <trkpt lat="41.7305740" lon="-8.8712980">
        <ele>5.8</ele>
        <time>2021-05-18T07:04:35Z</time>
      </trkpt>
      <trkpt lat="41.7305750" lon="-8.8712980">
        <ele>5.8</ele>
        <time>2021-05-18T07:04:36Z</time>
      </trkpt>
      <trkpt lat="41.7305750" lon="-8.8712980">
        <ele>5.8</ele>
        <time>2021-05-18T07:04:37Z</time>
      </trkpt>
      <trkpt lat="41.7305760" lon="-8.8712980">
        <ele>5.8</ele>
        <time>2021-05-18T07:04:38Z</time>
      </trkpt>
      <trkpt lat="41.7305770" lon="-8.8712980">
        <ele>5.8</ele>
        <time>2021-05-18T07:04:39Z</time>
      </trkpt>
      <trkpt lat="41.7305770" lon="-8.8712980">
        <ele>5.8</ele>
        <time>2021-05-18T07:04:40Z</time>
      </trkpt>
      <trkpt lat="41.7305780" lon="-8.8712980">
        <ele>5.8</ele>
        <time>2021-05-18T07:04:41Z</time>
      </trkpt>
      <trkpt lat="41.7305780" lon="-8.8712980">
        <ele>5.8</ele>
        <time>2021-05-18T07:04:42Z</time>
      </trkpt>
      <trkpt lat="41.7305790" lon="-8.8712980">
        <ele>5.8</ele>
        <time>2021-05-18T07:04:43Z</time>
      </trkpt>
      <trkpt lat="41.7305790" lon="-8.8712980">
        <ele>5.8</ele>
        <time>2021-05-18T07:04:44Z</time>
      </trkpt>
      <trkpt lat="41.7305800" lon="-8.8712980">
        <ele>5.8</ele>
        <time>2021-05-18T07:04:45Z</time>
      </trkpt>
      <trkpt lat="41.7305810" lon="-8.8712980">
        <ele>5.8</ele>
        <time>2021-05-18T07:04:46Z</time>
      </trkpt>
      <trkpt lat="41.7305810" lon="-8.8712980">
        <ele>5.8</ele>
        <time>2021-05-18T07:04:47Z</time>
      </trkpt>
      <trkpt lat="41.7305820" lon="-8.8712980">
        <ele>5.8</ele>
        <time>2021-05-18T07:04:48Z</time>
      </trkpt>
      <trkpt lat="41.7305820" lon="-8.8712980">
        <ele>5.8</ele>
        <time>2021-05-18T07:04:49Z</time>
      </trkpt>
      <trkpt lat="41.7305830" lon="-8.8712980">
        <ele>5.8</ele>
        <time>2021-05-18T07:04:50Z</time>
      </trkpt>
      <trkpt lat="41.7305830" lon="-8.8712980">
        <ele>5.8</ele>
        <time>2021-05-18T07:04:51Z</time>
      </trkpt>
      <trkpt lat="41.7305840" lon="-8.8712980">
        <ele>5.8</ele>
        <time>2021-05-18T07:04:52Z</time>
      </trkpt>
      <trkpt lat="41.7305850" lon="-8.8712980">
        <ele>5.8</ele>
        <time>2021-05-18T07:04:53Z</time>
      </trkpt>
      <trkpt lat="41.7305850" lon="-8.8712980">
        <ele>5.8</ele>
        <time>2021-05-18T07:04:54Z</time>
      </trkpt>
      <trkpt lat="41.7305860" lon="-8.8712980">
        <ele>5.8</ele>
        <time>2021-05-18T07:04:55Z</time>
      </trkpt>
      <trkpt lat="41.7305860" lon="-8.8712980">
        <ele>5.8</ele>
        <time>2021-05-18T07:04:56Z</time>
      </trkpt>
      <trkpt lat="41.7305870" lon="-8.8712980">
        <ele>5.8</ele>
        <time>2021-05-18T07:04:57Z</time>
      </trkpt>
      <trkpt lat="41.7305880" lon="-8.8712980">
        <ele>5.8</ele>
        <time>2021-05-18T07:04:58Z</time>
      </trkpt>
      <trkpt lat="41.7305880" lon="-8.8712980">
        <ele>5.8</ele>
        <time>2021-05-18T07:04:59Z</time>
      </trkpt>
      <trkpt lat="41.7305890" lon="-8.8712980">
        <ele>5.8</ele>
        <time>2021-05-18T07:05:00Z</time>
      </trkpt>
      <trkpt lat="41.7305890" lon="-8.8712980">
        <ele>5.8</ele>
        <time>2021-05-18T07:05:01Z</time>
      </trkpt>
      <trkpt lat="41.7305900" lon="-8.8712980">
        <ele>5.8</ele>
        <time>2021-05-18T07:05:02Z</time>
      </trkpt>
      <trkpt lat="41.7305900" lon="-8.8712980">
        <ele>5.8</ele>
        <time>2021-05-18T07:05:03Z</time>
      </trkpt>
      <trkpt lat="41.7305910" lon="-8.8712980">
        <ele>5.8</ele>
        <time>2021-05-18T07:05:04Z</time>
      </trkpt>
      <trkpt lat="41.7306010" lon="-8.8712930">
        <ele>5.8</ele>
        <time>2021-05-18T07:05:05Z</time>
      </trkpt>
      <trkpt lat="41.7306180" lon="-8.8712910">
        <ele>5.8</ele>
        <time>2021-05-18T07:05:06Z</time>
      </trkpt>
      <trkpt lat="41.7306360" lon="-8.8712940">
        <ele>5.8</ele>
        <time>2021-05-18T07:05:07Z</time>
      </trkpt>
      <trkpt lat="41.7306520" lon="-8.8712940">
        <ele>5.8</ele>
        <time>2021-05-18T07:05:08Z</time>
      </trkpt>
      <trkpt lat="41.7306620" lon="-8.8712980">
        <ele>5.8</ele>
        <time>2021-05-18T07:05:09Z</time>
      </trkpt>
      <trkpt lat="41.7306810" lon="-8.8712980">
        <ele>5.8</ele>
        <time>2021-05-18T07:05:10Z</time>
      </trkpt>
      <trkpt lat="41.7306980" lon="-8.8712970">
        <ele>5.8</ele>
        <time>2021-05-18T07:05:11Z</time>
      </trkpt>
      <trkpt lat="41.7307070" lon="-8.8712960">
        <ele>5.8</ele>
        <time>2021-05-18T07:05:12Z</time>
      </trkpt>
      <trkpt lat="41.7307170" lon="-8.8712960">
        <ele>5.8</ele>
        <time>2021-05-18T07:05:13Z</time>
      </trkpt>
      <trkpt lat="41.7307340" lon="-8.8713020">
        <ele>5.8</ele>
        <time>2021-05-18T07:05:14Z</time>
      </trkpt>
      <trkpt lat="41.7307500" lon="-8.8713050">
        <ele>5.8</ele>
        <time>2021-05-18T07:05:15Z</time>
      </trkpt>
      <trkpt lat="41.7307670" lon="-8.8713010">
        <ele>5.8</ele>
        <time>2021-05-18T07:05:16Z</time>
      </trkpt>
      <trkpt lat="41.7307810" lon="-8.8712970">
        <ele>5.8</ele>
        <time>2021-05-18T07:05:17Z</time>
      </trkpt>
      <trkpt lat="41.7307960" lon="-8.8713010">
        <ele>5.8</ele>
        <time>2021-05-18T07:05:18Z</time>
      </trkpt>
      <trkpt lat="41.7308130" lon="-8.8713080">
        <ele>5.8</ele>
        <time>2021-05-18T07:05:19Z</time>
      </trkpt>
      <trkpt lat="41.7308290" lon="-8.8713090">
        <ele>5.8</ele>
        <time>2021-05-18T07:05:20Z</time>
      </trkpt>
      <trkpt lat="41.7308420" lon="-8.8713130">
        <ele>5.8</ele>
        <time>2021-05-18T07:05:21Z</time>
      </trkpt>
      <trkpt lat="41.7308570" lon="-8.8713150">
        <ele>5.9</ele>
        <time>2021-05-18T07:05:22Z</time>
      </trkpt>
      <trkpt lat="41.7308730" lon="-8.8713160">
        <ele>5.9</ele>
        <time>2021-05-18T07:05:23Z</time>
      </trkpt>
      <trkpt lat="41.7308870" lon="-8.8713150">
        <ele>5.9</ele>
        <time>2021-05-18T07:05:24Z</time>
      </trkpt>
      <trkpt lat="41.7309040" lon="-8.8713150">
        <ele>5.9</ele>
        <time>2021-05-18T07:05:25Z</time>
      </trkpt>
      <trkpt lat="41.7309190" lon="-8.8713110">
        <ele>5.9</ele>
        <time>2021-05-18T07:05:26Z</time>
      </trkpt>
      <trkpt lat="41.7309330" lon="-8.8713110">
        <ele>5.9</ele>
        <time>2021-05-18T07:05:27Z</time>
      </trkpt>
      <trkpt lat="41.7309470" lon="-8.8713130">
        <ele>5.9</ele>
        <time>2021-05-18T07:05:28Z</time>
      </trkpt>
      <trkpt lat="41.7309600" lon="-8.8713100">
        <ele>5.9</ele>
        <time>2021-05-18T07:05:29Z</time>
      </trkpt>
      <trkpt lat="41.7309740" lon="-8.8713140">
        <ele>5.9</ele>
        <time>2021-05-18T07:05:30Z</time>
      </trkpt>
      <trkpt lat="41.7309890" lon="-8.8713140">
        <ele>5.9</ele>
        <time>2021-05-18T07:05:31Z</time>
      </trkpt>
      <trkpt lat="41.7310050" lon="-8.8713180">
        <ele>5.9</ele>
        <time>2021-05-18T07:05:32Z</time>
      </trkpt>
      <trkpt lat="41.7310210" lon="-8.8713170">
        <ele>5.9</ele>
        <time>2021-05-18T07:05:33Z</time>
      </trkpt>
      <trkpt lat="41.7310370" lon="-8.8713200">
        <ele>5.9</ele>
        <time>2021-05-18T07:05:34Z</time>
      </trkpt>
      <trkpt lat="41.7310490" lon="-8.8713250">
        <ele>5.9</ele>
        <time>2021-05-18T07:05:35Z</time>
      </trkpt>
      <trkpt lat="41.7310620" lon="-8.8713240">
        <ele>5.9</ele>
        <time>2021-05-18T07:05:36Z</time>
      </trkpt>
      <trkpt lat="41.7310760" lon="-8.8713180">
        <ele>5.9</ele>
        <time>2021-05-18T07:05:37Z</time>
      </trkpt>
      <trkpt lat="41.7310900" lon="-8.8713220">
        <ele>5.9</ele>
        <time>2021-05-18T07:05:38Z</time>
      </trkpt>
      <trkpt lat="41.7311070" lon="-8.8713180">
        <ele>5.9</ele>
        <time>2021-05-18T07:05:39Z</time>
      </trkpt>
      <trkpt lat="41.7311270" lon="-8.8713220">
        <ele>5.9</ele>
        <time>2021-05-18T07:05:40Z</time>
      </trkpt>
      <trkpt lat="41.7311370" lon="-8.8713240">
        <ele>5.9</ele>
        <time>2021-05-18T07:05:41Z</time>
      </trkpt>
      <trkpt lat="41.7311460" lon="-8.8713270">
        <ele>5.9</ele>
        <time>2021-05-18T07:05:42Z</time>
      </trkpt>
      <trkpt lat="41.7311600" lon="-8.8713230">
        <ele>5.9</ele>
        <time>2021-05-18T07:05:43Z</time>
      </trkpt>
      <trkpt lat="41.7311750" lon="-8.8713290">
        <ele>5.9</ele>
        <time>2021-05-18T07:05:44Z</time>
      </trkpt>
      <trkpt lat="41.7311910" lon="-8.8713270">
        <ele>5.9</ele>
        <time>2021-05-18T07:05:45Z</time>
      </trkpt>
      <trkpt lat="41.7312060" lon="-8.8713250">
        <ele>5.9</ele>
        <time>2021-05-18T07:05:46Z</time>
      </trkpt>
      <trkpt lat="41.7312290" lon="-8.8713290">
        <ele>5.9</ele>
        <time>2021-05-18T07:05:47Z</time>
      </trkpt>
      <trkpt lat="41.7312380" lon="-8.8713280">
        <ele>5.9</ele>
        <time>2021-05-18T07:05:48Z</time>
      </trkpt>
      <trkpt lat="41.7312480" lon="-8.8713280">
        <ele>5.9</ele>
        <time>2021-05-18T07:05:49Z</time>
      </trkpt>
      <trkpt lat="41.7312630" lon="-8.8713300">
        <ele>5.9</ele>
        <time>2021-05-18T07:05:50Z</time>
      </trkpt>
      <trkpt lat="41.7312770" lon="-8.8713320">
        <ele>5.9</ele>
        <time>2021-05-18T07:05:51Z</time>
      </trkpt>
      <trkpt lat="41.7312920" lon="-8.8713310">
        <ele>5.9</ele>
        <time>2021-05-18T07:05:52Z</time>
      </trkpt>
      <trkpt lat="41.7313040" lon="-8.8713350">
        <ele>5.9</ele>
        <time>2021-05-18T07:05:53Z</time>
      </trkpt>
      <trkpt lat="41.7313180" lon="-8.8713380">
        <ele>5.9</ele>
        <time>2021-05-18T07:05:54Z</time>
      </trkpt>
      <trkpt lat="41.7313320" lon="-8.8713410">
        <ele>5.9</ele>
        <time>2021-05-18T07:05:55Z</time>
      </trkpt>
      <trkpt lat="41.7313440" lon="-8.8713450">
        <ele>5.9</ele>
        <time>2021-05-18T07:05:56Z</time>
      </trkpt>
      <trkpt lat="41.7313600" lon="-8.8713490">
        <ele>5.9</ele>
        <time>2021-05-18T07:05:57Z</time>
      </trkpt>
      <trkpt lat="41.7313830" lon="-8.8713550">
        <ele>5.9</ele>
        <time>2021-05-18T07:05:58Z</time>
      </trkpt>
      <trkpt lat="41.7313920" lon="-8.8713590">
        <ele>6.0</ele>
        <time>2021-05-18T07:05:59Z</time>
      </trkpt>
      <trkpt lat="41.7314000" lon="-8.8713620">
        <ele>6.0</ele>
        <time>2021-05-18T07:06:00Z</time>
      </trkpt>
      <trkpt lat="41.7314160" lon="-8.8713670">
        <ele>6.0</ele>
        <time>2021-05-18T07:06:01Z</time>
      </trkpt>
      <trkpt lat="41.7314270" lon="-8.8713750">
        <ele>6.0</ele>
        <time>2021-05-18T07:06:02Z</time>
      </trkpt>
      <trkpt lat="41.7314400" lon="-8.8713850">
        <ele>6.0</ele>
        <time>2021-05-18T07:06:03Z</time>
      </trkpt>
      <trkpt lat="41.7314540" lon="-8.8713910">
        <ele>6.0</ele>
        <time>2021-05-18T07:06:04Z</time>
      </trkpt>
      <trkpt lat="41.7314680" lon="-8.8713970">
        <ele>6.0</ele>
        <time>2021-05-18T07:06:05Z</time>
      </trkpt>
      <trkpt lat="41.7314820" lon="-8.8714000">
        <ele>6.0</ele>
        <time>2021-05-18T07:06:06Z</time>
      </trkpt>
      <trkpt lat="41.7314930" lon="-8.8714060">
        <ele>6.0</ele>
        <time>2021-05-18T07:06:07Z</time>
      </trkpt>
      <trkpt lat="41.7315090" lon="-8.8714120">
        <ele>6.0</ele>
        <time>2021-05-18T07:06:08Z</time>
      </trkpt>
      <trkpt lat="41.7315270" lon="-8.8714250">
        <ele>6.0</ele>
        <time>2021-05-18T07:06:09Z</time>
      </trkpt>
      <trkpt lat="41.7315360" lon="-8.8714280">
        <ele>6.0</ele>
        <time>2021-05-18T07:06:10Z</time>
      </trkpt>
      <trkpt lat="41.7315460" lon="-8.8714300">
        <ele>6.0</ele>
        <time>2021-05-18T07:06:11Z</time>
      </trkpt>
      <trkpt lat="41.7315600" lon="-8.8714380">
        <ele>6.0</ele>
        <time>2021-05-18T07:06:12Z</time>
      </trkpt>
      <trkpt lat="41.7315740" lon="-8.8714360">
        <ele>6.0</ele>
        <time>2021-05-18T07:06:13Z</time>
      </trkpt>
      <trkpt lat="41.7315960" lon="-8.8714470">
        <ele>6.0</ele>
        <time>2021-05-18T07:06:14Z</time>
      </trkpt>
      <trkpt lat="41.7316050" lon="-8.8714510">
        <ele>6.0</ele>
        <time>2021-05-18T07:06:15Z</time>
      </trkpt>
      <trkpt lat="41.7316130" lon="-8.8714560">
        <ele>6.0</ele>
        <time>2021-05-18T07:06:16Z</time>
      </trkpt>
      <trkpt lat="41.7316320" lon="-8.8714650">
        <ele>6.0</ele>
        <time>2021-05-18T07:06:17Z</time>
      </trkpt>
      <trkpt lat="41.7316410" lon="-8.8714680">
        <ele>6.0</ele>
        <time>2021-05-18T07:06:18Z</time>
      </trkpt>
      <trkpt lat="41.7316500" lon="-8.8714710">
        <ele>6.0</ele>
        <time>2021-05-18T07:06:19Z</time>
      </trkpt>
      <trkpt lat="41.7316660" lon="-8.8714750">
        <ele>6.0</ele>
        <time>2021-05-18T07:06:20Z</time>
      </trkpt>
      <trkpt lat="41.7316790" lon="-8.8714840">
        <ele>6.0</ele>
        <time>2021-05-18T07:06:21Z</time>
      </trkpt>
      <trkpt lat="41.7316960" lon="-8.8714840">
        <ele>6.0</ele>
        <time>2021-05-18T07:06:22Z</time>
      </trkpt>
      <trkpt lat="41.7317100" lon="-8.8714890">
        <ele>6.0</ele>
        <time>2021-05-18T07:06:23Z</time>
      </trkpt>
      <trkpt lat="41.7317250" lon="-8.8714920">
        <ele>6.0</ele>
        <time>2021-05-18T07:06:24Z</time>
      </trkpt>
      <trkpt lat="41.7317380" lon="-8.8714970">
        <ele>6.0</ele>
        <time>2021-05-18T07:06:25Z</time>
      </trkpt>
      <trkpt lat="41.7317510" lon="-8.8715040">
        <ele>6.0</ele>
        <time>2021-05-18T07:06:26Z</time>
      </trkpt>
      <trkpt lat="41.7317620" lon="-8.8715130">
        <ele>6.0</ele>
        <time>2021-05-18T07:06:27Z</time>
      </trkpt>
      <trkpt lat="41.7317830" lon="-8.8715140">
        <ele>6.0</ele>
        <time>2021-05-18T07:06:28Z</time>
      </trkpt>
      <trkpt lat="41.7317920" lon="-8.8715150">
        <ele>6.0</ele>
        <time>2021-05-18T07:06:29Z</time>
      </trkpt>
      <trkpt lat="41.7318000" lon="-8.8715160">
        <ele>6.0</ele>
        <time>2021-05-18T07:06:30Z</time>
      </trkpt>
      <trkpt lat="41.7318170" lon="-8.8715210">
        <ele>6.0</ele>
        <time>2021-05-18T07:06:31Z</time>
      </trkpt>
      <trkpt lat="41.7318290" lon="-8.8715330">
        <ele>6.0</ele>
        <time>2021-05-18T07:06:32Z</time>
      </trkpt>
      <trkpt lat="41.7318440" lon="-8.8715360">
        <ele>6.0</ele>
        <time>2021-05-18T07:06:33Z</time>
      </trkpt>
      <trkpt lat="41.7318570" lon="-8.8715460">
        <ele>6.0</ele>
        <time>2021-05-18T07:06:34Z</time>
      </trkpt>
      <trkpt lat="41.7318680" lon="-8.8715540">
        <ele>6.0</ele>
        <time>2021-05-18T07:06:35Z</time>
      </trkpt>
      <trkpt lat="41.7318850" lon="-8.8715610">
        <ele>6.0</ele>
        <time>2021-05-18T07:06:36Z</time>
      </trkpt>
      <trkpt lat="41.7319060" lon="-8.8715670">
        <ele>6.0</ele>
        <time>2021-05-18T07:06:37Z</time>
      </trkpt>
      <trkpt lat="41.7319140" lon="-8.8715690">
        <ele>6.0</ele>
        <time>2021-05-18T07:06:38Z</time>
      </trkpt>
      <trkpt lat="41.7319210" lon="-8.8715710">
        <ele>6.0</ele>
        <time>2021-05-18T07:06:39Z</time>
      </trkpt>
      <trkpt lat="41.7319350" lon="-8.8715800">
        <ele>6.0</ele>
        <time>2021-05-18T07:06:40Z</time>
      </trkpt>
      <trkpt lat="41.7319500" lon="-8.8715850">
        <ele>6.0</ele>
        <time>2021-05-18T07:06:41Z</time>
      </trkpt>
      <trkpt lat="41.7319630" lon="-8.8715950">
        <ele>6.0</ele>
        <time>2021-05-18T07:06:42Z</time>
      </trkpt>
      <trkpt lat="41.7319770" lon="-8.8716000">
        <ele>6.0</ele>
        <time>2021-05-18T07:06:43Z</time>
      </trkpt>
      <trkpt lat="41.7319890" lon="-8.8716120">
        <ele>6.0</ele>
        <time>2021-05-18T07:06:44Z</time>
      </trkpt>
      <trkpt lat="41.7320050" lon="-8.8716080">
        <ele>6.0</ele>
        <time>2021-05-18T07:06:45Z</time>
      </trkpt>
      <trkpt lat="41.7320240" lon="-8.8716190">
        <ele>6.0</ele>
        <time>2021-05-18T07:06:46Z</time>
      </trkpt>
      <trkpt lat="41.7320310" lon="-8.8716260">
        <ele>6.0</ele>
        <time>2021-05-18T07:06:47Z</time>
      </trkpt>
      <trkpt lat="41.7320380" lon="-8.8716320">
        <ele>6.0</ele>
        <time>2021-05-18T07:06:48Z</time>
      </trkpt>
      <trkpt lat="41.7320540" lon="-8.8716330">
        <ele>6.0</ele>
        <time>2021-05-18T07:06:49Z</time>
      </trkpt>
      <trkpt lat="41.7320680" lon="-8.8716410">
        <ele>6.0</ele>
        <time>2021-05-18T07:06:50Z</time>
      </trkpt>
      <trkpt lat="41.7320820" lon="-8.8716400">
        <ele>6.0</ele>
        <time>2021-05-18T07:06:51Z</time>
      </trkpt>
      <trkpt lat="41.7320960" lon="-8.8716430">
        <ele>6.0</ele>
        <time>2021-05-18T07:06:52Z</time>
      </trkpt>
      <trkpt lat="41.7321110" lon="-8.8716480">
        <ele>6.0</ele>
        <time>2021-05-18T07:06:53Z</time>
      </trkpt>
      <trkpt lat="41.7321230" lon="-8.8716510">
        <ele>6.0</ele>
        <time>2021-05-18T07:06:54Z</time>
      </trkpt>
      <trkpt lat="41.7321380" lon="-8.8716590">
        <ele>6.0</ele>
        <time>2021-05-18T07:06:55Z</time>
      </trkpt>
      <trkpt lat="41.7321510" lon="-8.8716630">
        <ele>6.1</ele>
        <time>2021-05-18T07:06:56Z</time>
      </trkpt>
      <trkpt lat="41.7321710" lon="-8.8716750">
        <ele>6.1</ele>
        <time>2021-05-18T07:06:57Z</time>
      </trkpt>
      <trkpt lat="41.7321790" lon="-8.8716790">
        <ele>6.1</ele>
        <time>2021-05-18T07:06:58Z</time>
      </trkpt>
      <trkpt lat="41.7321870" lon="-8.8716820">
        <ele>6.1</ele>
        <time>2021-05-18T07:06:59Z</time>
      </trkpt>
      <trkpt lat="41.7322100" lon="-8.8716820">
        <ele>6.1</ele>
        <time>2021-05-18T07:07:00Z</time>
      </trkpt>
      <trkpt lat="41.7322200" lon="-8.8716820">
        <ele>6.1</ele>
        <time>2021-05-18T07:07:01Z</time>
      </trkpt>
      <trkpt lat="41.7322300" lon="-8.8716820">
        <ele>6.1</ele>
        <time>2021-05-18T07:07:02Z</time>
      </trkpt>
      <trkpt lat="41.7322400" lon="-8.8716890">
        <ele>6.1</ele>
        <time>2021-05-18T07:07:03Z</time>
      </trkpt>
      <trkpt lat="41.7322560" lon="-8.8716970">
        <ele>6.1</ele>
        <time>2021-05-18T07:07:04Z</time>
      </trkpt>
      <trkpt lat="41.7322670" lon="-8.8717120">
        <ele>6.1</ele>
        <time>2021-05-18T07:07:05Z</time>
      </trkpt>
      <trkpt lat="41.7322800" lon="-8.8717180">
        <ele>6.1</ele>
        <time>2021-05-18T07:07:06Z</time>
      </trkpt>
      <trkpt lat="41.7322920" lon="-8.8717280">
        <ele>6.1</ele>
        <time>2021-05-18T07:07:07Z</time>
      </trkpt>
      <trkpt lat="41.7323010" lon="-8.8717430">
        <ele>6.1</ele>
        <time>2021-05-18T07:07:08Z</time>
      </trkpt>
      <trkpt lat="41.7323150" lon="-8.8717670">
        <ele>6.2</ele>
        <time>2021-05-18T07:07:09Z</time>
      </trkpt>
      <trkpt lat="41.7323230" lon="-8.8717740">
        <ele>6.2</ele>
        <time>2021-05-18T07:07:10Z</time>
      </trkpt>
      <trkpt lat="41.7323300" lon="-8.8717820">
        <ele>6.2</ele>
        <time>2021-05-18T07:07:11Z</time>
      </trkpt>
      <trkpt lat="41.7323420" lon="-8.8717920">
        <ele>6.2</ele>
        <time>2021-05-18T07:07:12Z</time>
      </trkpt>
      <trkpt lat="41.7323400" lon="-8.8718160">
        <ele>6.2</ele>
        <time>2021-05-18T07:07:13Z</time>
      </trkpt>
      <trkpt lat="41.7323530" lon="-8.8718290">
        <ele>6.2</ele>
        <time>2021-05-18T07:07:14Z</time>
      </trkpt>
      <trkpt lat="41.7323580" lon="-8.8718450">
        <ele>6.2</ele>
        <time>2021-05-18T07:07:15Z</time>
      </trkpt>
      <trkpt lat="41.7323670" lon="-8.8718620">
        <ele>6.2</ele>
        <time>2021-05-18T07:07:16Z</time>
      </trkpt>
      <trkpt lat="41.7323770" lon="-8.8718750">
        <ele>6.2</ele>
        <time>2021-05-18T07:07:17Z</time>
      </trkpt>
      <trkpt lat="41.7323850" lon="-8.8718910">
        <ele>6.2</ele>
        <time>2021-05-18T07:07:18Z</time>
      </trkpt>
      <trkpt lat="41.7323960" lon="-8.8719050">
        <ele>6.2</ele>
        <time>2021-05-18T07:07:19Z</time>
      </trkpt>
      <trkpt lat="41.7323990" lon="-8.8719240">
        <ele>6.2</ele>
        <time>2021-05-18T07:07:20Z</time>
      </trkpt>
      <trkpt lat="41.7324120" lon="-8.8719390">
        <ele>6.2</ele>
        <time>2021-05-18T07:07:21Z</time>
      </trkpt>
      <trkpt lat="41.7324210" lon="-8.8719530">
        <ele>6.2</ele>
        <time>2021-05-18T07:07:22Z</time>
      </trkpt>
      <trkpt lat="41.7324280" lon="-8.8719690">
        <ele>6.2</ele>
        <time>2021-05-18T07:07:23Z</time>
      </trkpt>
      <trkpt lat="41.7324350" lon="-8.8719820">
        <ele>6.2</ele>
        <time>2021-05-18T07:07:24Z</time>
      </trkpt>
      <trkpt lat="41.7324490" lon="-8.8719950">
        <ele>6.3</ele>
        <time>2021-05-18T07:07:25Z</time>
      </trkpt>
      <trkpt lat="41.7324670" lon="-8.8720130">
        <ele>6.3</ele>
        <time>2021-05-18T07:07:26Z</time>
      </trkpt>
      <trkpt lat="41.7324750" lon="-8.8720170">
        <ele>6.3</ele>
        <time>2021-05-18T07:07:27Z</time>
      </trkpt>
      <trkpt lat="41.7324830" lon="-8.8720220">
        <ele>6.3</ele>
        <time>2021-05-18T07:07:28Z</time>
      </trkpt>
      <trkpt lat="41.7324950" lon="-8.8720340">
        <ele>6.3</ele>
        <time>2021-05-18T07:07:29Z</time>
      </trkpt>
      <trkpt lat="41.7325090" lon="-8.8720400">
        <ele>6.3</ele>
        <time>2021-05-18T07:07:30Z</time>
      </trkpt>
      <trkpt lat="41.7325230" lon="-8.8720460">
        <ele>6.3</ele>
        <time>2021-05-18T07:07:31Z</time>
      </trkpt>
      <trkpt lat="41.7325370" lon="-8.8720540">
        <ele>6.3</ele>
        <time>2021-05-18T07:07:32Z</time>
      </trkpt>
      <trkpt lat="41.7325500" lon="-8.8720610">
        <ele>6.3</ele>
        <time>2021-05-18T07:07:33Z</time>
      </trkpt>
      <trkpt lat="41.7325640" lon="-8.8720630">
        <ele>6.3</ele>
        <time>2021-05-18T07:07:34Z</time>
      </trkpt>
      <trkpt lat="41.7325790" lon="-8.8720710">
        <ele>6.3</ele>
        <time>2021-05-18T07:07:35Z</time>
      </trkpt>
      <trkpt lat="41.7325920" lon="-8.8720800">
        <ele>6.4</ele>
        <time>2021-05-18T07:07:36Z</time>
      </trkpt>
      <trkpt lat="41.7326070" lon="-8.8720780">
        <ele>6.4</ele>
        <time>2021-05-18T07:07:37Z</time>
      </trkpt>
      <trkpt lat="41.7326200" lon="-8.8720840">
        <ele>6.4</ele>
        <time>2021-05-18T07:07:38Z</time>
      </trkpt>
      <trkpt lat="41.7326330" lon="-8.8720920">
        <ele>6.4</ele>
        <time>2021-05-18T07:07:39Z</time>
      </trkpt>
      <trkpt lat="41.7326490" lon="-8.8720880">
        <ele>6.4</ele>
        <time>2021-05-18T07:07:40Z</time>
      </trkpt>
      <trkpt lat="41.7326640" lon="-8.8720950">
        <ele>6.4</ele>
        <time>2021-05-18T07:07:41Z</time>
      </trkpt>
      <trkpt lat="41.7326760" lon="-8.8721040">
        <ele>6.4</ele>
        <time>2021-05-18T07:07:42Z</time>
      </trkpt>
      <trkpt lat="41.7326970" lon="-8.8721120">
        <ele>6.4</ele>
        <time>2021-05-18T07:07:43Z</time>
      </trkpt>
      <trkpt lat="41.7327070" lon="-8.8721140">
        <ele>6.4</ele>
        <time>2021-05-18T07:07:44Z</time>
      </trkpt>
      <trkpt lat="41.7327160" lon="-8.8721160">
        <ele>6.4</ele>
        <time>2021-05-18T07:07:45Z</time>
      </trkpt>
      <trkpt lat="41.7327300" lon="-8.8721240">
        <ele>6.4</ele>
        <time>2021-05-18T07:07:46Z</time>
      </trkpt>
      <trkpt lat="41.7327440" lon="-8.8721260">
        <ele>6.4</ele>
        <time>2021-05-18T07:07:47Z</time>
      </trkpt>
      <trkpt lat="41.7327580" lon="-8.8721310">
        <ele>6.4</ele>
        <time>2021-05-18T07:07:48Z</time>
      </trkpt>
      <trkpt lat="41.7327700" lon="-8.8721380">
        <ele>6.4</ele>
        <time>2021-05-18T07:07:49Z</time>
      </trkpt>
      <trkpt lat="41.7327840" lon="-8.8721400">
        <ele>6.4</ele>
        <time>2021-05-18T07:07:50Z</time>
      </trkpt>
      <trkpt lat="41.7327990" lon="-8.8721440">
        <ele>6.4</ele>
        <time>2021-05-18T07:07:51Z</time>
      </trkpt>
      <trkpt lat="41.7328210" lon="-8.8721520">
        <ele>6.4</ele>
        <time>2021-05-18T07:07:52Z</time>
      </trkpt>
      <trkpt lat="41.7328290" lon="-8.8721540">
        <ele>6.4</ele>
        <time>2021-05-18T07:07:53Z</time>
      </trkpt>
      <trkpt lat="41.7328380" lon="-8.8721560">
        <ele>6.4</ele>
        <time>2021-05-18T07:07:54Z</time>
      </trkpt>
      <trkpt lat="41.7328510" lon="-8.8721580">
        <ele>6.4</ele>
        <time>2021-05-18T07:07:55Z</time>
      </trkpt>
      <trkpt lat="41.7328570" lon="-8.8721610">
        <ele>6.4</ele>
        <time>2021-05-18T07:07:56Z</time>
      </trkpt>
      <trkpt lat="41.7328510" lon="-8.8721540">
        <ele>6.4</ele>
        <time>2021-05-18T07:07:57Z</time>
      </trkpt>
      <trkpt lat="41.7328420" lon="-8.8721520">
        <ele>6.4</ele>
        <time>2021-05-18T07:07:58Z</time>
      </trkpt>
      <trkpt lat="41.7328410" lon="-8.8721510">
        <ele>6.4</ele>
        <time>2021-05-18T07:07:59Z</time>
      </trkpt>
      <trkpt lat="41.7328410" lon="-8.8721490">
        <ele>6.4</ele>
        <time>2021-05-18T07:08:00Z</time>
      </trkpt>
      <trkpt lat="41.7328420" lon="-8.8721500">
        <ele>6.4</ele>
        <time>2021-05-18T07:08:01Z</time>
      </trkpt>
      <trkpt lat="41.7328400" lon="-8.8721490">
        <ele>6.4</ele>
        <time>2021-05-18T07:08:02Z</time>
      </trkpt>
      <trkpt lat="41.7328500" lon="-8.8721580">
        <ele>6.4</ele>
        <time>2021-05-18T07:08:03Z</time>
      </trkpt>
      <trkpt lat="41.7328540" lon="-8.8721610">
        <ele>6.4</ele>
        <time>2021-05-18T07:08:04Z</time>
      </trkpt>
      <trkpt lat="41.7328490" lon="-8.8721530">
        <ele>6.4</ele>
        <time>2021-05-18T07:08:05Z</time>
      </trkpt>
      <trkpt lat="41.7328510" lon="-8.8721550">
        <ele>6.4</ele>
        <time>2021-05-18T07:08:06Z</time>
      </trkpt>
      <trkpt lat="41.7328480" lon="-8.8721500">
        <ele>6.4</ele>
        <time>2021-05-18T07:08:07Z</time>
      </trkpt>
      <trkpt lat="41.7328680" lon="-8.8721690">
        <ele>6.5</ele>
        <time>2021-05-18T07:08:08Z</time>
      </trkpt>
      <trkpt lat="41.7328940" lon="-8.8721740">
        <ele>6.5</ele>
        <time>2021-05-18T07:08:09Z</time>
      </trkpt>
      <trkpt lat="41.7329010" lon="-8.8721780">
        <ele>6.5</ele>
        <time>2021-05-18T07:08:10Z</time>
      </trkpt>
      <trkpt lat="41.7329080" lon="-8.8721830">
        <ele>6.5</ele>
        <time>2021-05-18T07:08:11Z</time>
      </trkpt>
      <trkpt lat="41.7329260" lon="-8.8721850">
        <ele>6.5</ele>
        <time>2021-05-18T07:08:12Z</time>
      </trkpt>
      <trkpt lat="41.7329360" lon="-8.8721930">
        <ele>6.5</ele>
        <time>2021-05-18T07:08:13Z</time>
      </trkpt>
      <trkpt lat="41.7329450" lon="-8.8722000">
        <ele>6.5</ele>
        <time>2021-05-18T07:08:14Z</time>
      </trkpt>
      <trkpt lat="41.7329610" lon="-8.8722060">
        <ele>6.5</ele>
        <time>2021-05-18T07:08:15Z</time>
      </trkpt>
      <trkpt lat="41.7329770" lon="-8.8722120">
        <ele>6.5</ele>
        <time>2021-05-18T07:08:16Z</time>
      </trkpt>
      <trkpt lat="41.7329910" lon="-8.8722170">
        <ele>6.5</ele>
        <time>2021-05-18T07:08:17Z</time>
      </trkpt>
      <trkpt lat="41.7330060" lon="-8.8722270">
        <ele>6.5</ele>
        <time>2021-05-18T07:08:18Z</time>
      </trkpt>
      <trkpt lat="41.7330220" lon="-8.8722330">
        <ele>6.5</ele>
        <time>2021-05-18T07:08:19Z</time>
      </trkpt>
      <trkpt lat="41.7330360" lon="-8.8722390">
        <ele>6.5</ele>
        <time>2021-05-18T07:08:20Z</time>
      </trkpt>
      <trkpt lat="41.7330490" lon="-8.8722460">
        <ele>6.5</ele>
        <time>2021-05-18T07:08:21Z</time>
      </trkpt>
      <trkpt lat="41.7330630" lon="-8.8722530">
        <ele>6.5</ele>
        <time>2021-05-18T07:08:22Z</time>
      </trkpt>
      <trkpt lat="41.7330770" lon="-8.8722630">
        <ele>6.5</ele>
        <time>2021-05-18T07:08:23Z</time>
      </trkpt>
      <trkpt lat="41.7330890" lon="-8.8722680">
        <ele>6.5</ele>
        <time>2021-05-18T07:08:24Z</time>
      </trkpt>
      <trkpt lat="41.7331020" lon="-8.8722770">
        <ele>6.5</ele>
        <time>2021-05-18T07:08:25Z</time>
      </trkpt>
      <trkpt lat="41.7331170" lon="-8.8722820">
        <ele>6.5</ele>
        <time>2021-05-18T07:08:26Z</time>
      </trkpt>
      <trkpt lat="41.7331320" lon="-8.8722850">
        <ele>6.5</ele>
        <time>2021-05-18T07:08:27Z</time>
      </trkpt>
      <trkpt lat="41.7331450" lon="-8.8722860">
        <ele>6.5</ele>
        <time>2021-05-18T07:08:28Z</time>
      </trkpt>
      <trkpt lat="41.7331600" lon="-8.8722900">
        <ele>6.5</ele>
        <time>2021-05-18T07:08:29Z</time>
      </trkpt>
      <trkpt lat="41.7331770" lon="-8.8722920">
        <ele>6.5</ele>
        <time>2021-05-18T07:08:30Z</time>
      </trkpt>
      <trkpt lat="41.7331890" lon="-8.8722970">
        <ele>6.5</ele>
        <time>2021-05-18T07:08:31Z</time>
      </trkpt>
      <trkpt lat="41.7332060" lon="-8.8723000">
        <ele>6.5</ele>
        <time>2021-05-18T07:08:32Z</time>
      </trkpt>
      <trkpt lat="41.7332200" lon="-8.8723010">
        <ele>6.5</ele>
        <time>2021-05-18T07:08:33Z</time>
      </trkpt>
      <trkpt lat="41.7332310" lon="-8.8723120">
        <ele>6.5</ele>
        <time>2021-05-18T07:08:34Z</time>
      </trkpt>
      <trkpt lat="41.7332420" lon="-8.8723230">
        <ele>6.5</ele>
        <time>2021-05-18T07:08:35Z</time>
      </trkpt>
      <trkpt lat="41.7332550" lon="-8.8723320">
        <ele>6.5</ele>
        <time>2021-05-18T07:08:36Z</time>
      </trkpt>
      <trkpt lat="41.7332740" lon="-8.8723410">
        <ele>6.5</ele>
        <time>2021-05-18T07:08:37Z</time>
      </trkpt>
      <trkpt lat="41.7332830" lon="-8.8723450">
        <ele>6.5</ele>
        <time>2021-05-18T07:08:38Z</time>
      </trkpt>
      <trkpt lat="41.7332910" lon="-8.8723500">
        <ele>6.5</ele>
        <time>2021-05-18T07:08:39Z</time>
      </trkpt>
      <trkpt lat="41.7333090" lon="-8.8723480">
        <ele>6.5</ele>
        <time>2021-05-18T07:08:40Z</time>
      </trkpt>
      <trkpt lat="41.7333200" lon="-8.8723570">
        <ele>6.6</ele>
        <time>2021-05-18T07:08:41Z</time>
      </trkpt>
      <trkpt lat="41.7333300" lon="-8.8723590">
        <ele>6.6</ele>
        <time>2021-05-18T07:08:42Z</time>
      </trkpt>
      <trkpt lat="41.7333370" lon="-8.8723630">
        <ele>6.6</ele>
        <time>2021-05-18T07:08:43Z</time>
      </trkpt>
      <trkpt lat="41.7333510" lon="-8.8723700">
        <ele>6.6</ele>
        <time>2021-05-18T07:08:44Z</time>
      </trkpt>
      <trkpt lat="41.7333720" lon="-8.8723810">
        <ele>6.6</ele>
        <time>2021-05-18T07:08:45Z</time>
      </trkpt>
      <trkpt lat="41.7333790" lon="-8.8723850">
        <ele>6.6</ele>
        <time>2021-05-18T07:08:46Z</time>
      </trkpt>
      <trkpt lat="41.7333860" lon="-8.8723890">
        <ele>6.6</ele>
        <time>2021-05-18T07:08:47Z</time>
      </trkpt>
      <trkpt lat="41.7334000" lon="-8.8723980">
        <ele>6.6</ele>
        <time>2021-05-18T07:08:48Z</time>
      </trkpt>
      <trkpt lat="41.7334120" lon="-8.8724080">
        <ele>6.6</ele>
        <time>2021-05-18T07:08:49Z</time>
      </trkpt>
      <trkpt lat="41.7334300" lon="-8.8724200">
        <ele>6.6</ele>
        <time>2021-05-18T07:08:50Z</time>
      </trkpt>
      <trkpt lat="41.7334370" lon="-8.8724260">
        <ele>6.6</ele>
        <time>2021-05-18T07:08:51Z</time>
      </trkpt>
      <trkpt lat="41.7334450" lon="-8.8724320">
        <ele>6.6</ele>
        <time>2021-05-18T07:08:52Z</time>
      </trkpt>
      <trkpt lat="41.7334570" lon="-8.8724440">
        <ele>6.6</ele>
        <time>2021-05-18T07:08:53Z</time>
      </trkpt>
      <trkpt lat="41.7334700" lon="-8.8724540">
        <ele>6.6</ele>
        <time>2021-05-18T07:08:54Z</time>
      </trkpt>
      <trkpt lat="41.7334850" lon="-8.8724640">
        <ele>6.6</ele>
        <time>2021-05-18T07:08:55Z</time>
      </trkpt>
      <trkpt lat="41.7334990" lon="-8.8724800">
        <ele>6.6</ele>
        <time>2021-05-18T07:08:56Z</time>
      </trkpt>
      <trkpt lat="41.7335130" lon="-8.8724880">
        <ele>6.6</ele>
        <time>2021-05-18T07:08:57Z</time>
      </trkpt>
      <trkpt lat="41.7335280" lon="-8.8724990">
        <ele>6.6</ele>
        <time>2021-05-18T07:08:58Z</time>
      </trkpt>
      <trkpt lat="41.7335430" lon="-8.8725080">
        <ele>6.6</ele>
        <time>2021-05-18T07:08:59Z</time>
      </trkpt>
      <trkpt lat="41.7335550" lon="-8.8725160">
        <ele>6.6</ele>
        <time>2021-05-18T07:09:00Z</time>
      </trkpt>
      <trkpt lat="41.7335690" lon="-8.8725260">
        <ele>6.6</ele>
        <time>2021-05-18T07:09:01Z</time>
      </trkpt>
      <trkpt lat="41.7335820" lon="-8.8725350">
        <ele>6.5</ele>
        <time>2021-05-18T07:09:02Z</time>
      </trkpt>
      <trkpt lat="41.7335950" lon="-8.8725410">
        <ele>6.5</ele>
        <time>2021-05-18T07:09:03Z</time>
      </trkpt>
      <trkpt lat="41.7336070" lon="-8.8725530">
        <ele>6.5</ele>
        <time>2021-05-18T07:09:04Z</time>
      </trkpt>
      <trkpt lat="41.7336240" lon="-8.8725700">
        <ele>6.5</ele>
        <time>2021-05-18T07:09:05Z</time>
      </trkpt>
      <trkpt lat="41.7336320" lon="-8.8725780">
        <ele>6.5</ele>
        <time>2021-05-18T07:09:06Z</time>
      </trkpt>
      <trkpt lat="41.7336390" lon="-8.8725850">
        <ele>6.5</ele>
        <time>2021-05-18T07:09:07Z</time>
      </trkpt>
      <trkpt lat="41.7336510" lon="-8.8725940">
        <ele>6.5</ele>
        <time>2021-05-18T07:09:08Z</time>
      </trkpt>
      <trkpt lat="41.7336620" lon="-8.8726070">
        <ele>6.5</ele>
        <time>2021-05-18T07:09:09Z</time>
      </trkpt>
      <trkpt lat="41.7336840" lon="-8.8726180">
        <ele>6.5</ele>
        <time>2021-05-18T07:09:10Z</time>
      </trkpt>
      <trkpt lat="41.7336910" lon="-8.8726240">
        <ele>6.5</ele>
        <time>2021-05-18T07:09:11Z</time>
      </trkpt>
      <trkpt lat="41.7336990" lon="-8.8726300">
        <ele>6.4</ele>
        <time>2021-05-18T07:09:12Z</time>
      </trkpt>
      <trkpt lat="41.7337130" lon="-8.8726370">
        <ele>6.4</ele>
        <time>2021-05-18T07:09:13Z</time>
      </trkpt>
      <trkpt lat="41.7337260" lon="-8.8726410">
        <ele>6.4</ele>
        <time>2021-05-18T07:09:14Z</time>
      </trkpt>
      <trkpt lat="41.7337410" lon="-8.8726480">
        <ele>6.4</ele>
        <time>2021-05-18T07:09:15Z</time>
      </trkpt>
      <trkpt lat="41.7337530" lon="-8.8726610">
        <ele>6.4</ele>
        <time>2021-05-18T07:09:16Z</time>
      </trkpt>
      <trkpt lat="41.7337620" lon="-8.8726750">
        <ele>6.4</ele>
        <time>2021-05-18T07:09:17Z</time>
      </trkpt>
      <trkpt lat="41.7337750" lon="-8.8726830">
        <ele>6.3</ele>
        <time>2021-05-18T07:09:18Z</time>
      </trkpt>
      <trkpt lat="41.7337900" lon="-8.8726900">
        <ele>6.3</ele>
        <time>2021-05-18T07:09:19Z</time>
      </trkpt>
      <trkpt lat="41.7338050" lon="-8.8726930">
        <ele>6.3</ele>
        <time>2021-05-18T07:09:20Z</time>
      </trkpt>
      <trkpt lat="41.7338250" lon="-8.8727040">
        <ele>6.3</ele>
        <time>2021-05-18T07:09:21Z</time>
      </trkpt>
      <trkpt lat="41.7338330" lon="-8.8727080">
        <ele>6.2</ele>
        <time>2021-05-18T07:09:22Z</time>
      </trkpt>
      <trkpt lat="41.7338420" lon="-8.8727130">
        <ele>6.2</ele>
        <time>2021-05-18T07:09:23Z</time>
      </trkpt>
      <trkpt lat="41.7338520" lon="-8.8727190">
        <ele>6.2</ele>
        <time>2021-05-18T07:09:24Z</time>
      </trkpt>
      <trkpt lat="41.7338690" lon="-8.8727250">
        <ele>6.2</ele>
        <time>2021-05-18T07:09:25Z</time>
      </trkpt>
      <trkpt lat="41.7338820" lon="-8.8727320">
        <ele>6.1</ele>
        <time>2021-05-18T07:09:26Z</time>
      </trkpt>
      <trkpt lat="41.7338980" lon="-8.8727420">
        <ele>6.1</ele>
        <time>2021-05-18T07:09:27Z</time>
      </trkpt>
      <trkpt lat="41.7339210" lon="-8.8727480">
        <ele>6.1</ele>
        <time>2021-05-18T07:09:28Z</time>
      </trkpt>
      <trkpt lat="41.7339310" lon="-8.8727500">
        <ele>6.0</ele>
        <time>2021-05-18T07:09:29Z</time>
      </trkpt>
      <trkpt lat="41.7339400" lon="-8.8727530">
        <ele>6.0</ele>
        <time>2021-05-18T07:09:30Z</time>
      </trkpt>
      <trkpt lat="41.7339610" lon="-8.8727560">
        <ele>6.0</ele>
        <time>2021-05-18T07:09:31Z</time>
      </trkpt>
      <trkpt lat="41.7339710" lon="-8.8727560">
        <ele>5.9</ele>
        <time>2021-05-18T07:09:32Z</time>
      </trkpt>
      <trkpt lat="41.7339800" lon="-8.8727560">
        <ele>5.9</ele>
        <time>2021-05-18T07:09:33Z</time>
      </trkpt>
      <trkpt lat="41.7339940" lon="-8.8727610">
        <ele>5.9</ele>
        <time>2021-05-18T07:09:34Z</time>
      </trkpt>
      <trkpt lat="41.7340060" lon="-8.8727670">
        <ele>5.9</ele>
        <time>2021-05-18T07:09:35Z</time>
      </trkpt>
      <trkpt lat="41.7340240" lon="-8.8727710">
        <ele>5.9</ele>
        <time>2021-05-18T07:09:36Z</time>
      </trkpt>
      <trkpt lat="41.7340370" lon="-8.8727720">
        <ele>5.8</ele>
        <time>2021-05-18T07:09:37Z</time>
      </trkpt>
      <trkpt lat="41.7340510" lon="-8.8727780">
        <ele>5.8</ele>
        <time>2021-05-18T07:09:38Z</time>
      </trkpt>
      <trkpt lat="41.7340660" lon="-8.8727770">
        <ele>5.8</ele>
        <time>2021-05-18T07:09:39Z</time>
      </trkpt>
      <trkpt lat="41.7340860" lon="-8.8727800">
        <ele>5.8</ele>
        <time>2021-05-18T07:09:40Z</time>
      </trkpt>
      <trkpt lat="41.7340950" lon="-8.8727810">
        <ele>5.8</ele>
        <time>2021-05-18T07:09:41Z</time>
      </trkpt>
      <trkpt lat="41.7341040" lon="-8.8727820">
        <ele>5.7</ele>
        <time>2021-05-18T07:09:42Z</time>
      </trkpt>
      <trkpt lat="41.7341120" lon="-8.8727870">
        <ele>5.7</ele>
        <time>2021-05-18T07:09:43Z</time>
      </trkpt>
      <trkpt lat="41.7341250" lon="-8.8727870">
        <ele>5.7</ele>
        <time>2021-05-18T07:09:44Z</time>
      </trkpt>
      <trkpt lat="41.7341360" lon="-8.8727930">
        <ele>5.7</ele>
        <time>2021-05-18T07:09:45Z</time>
      </trkpt>
      <trkpt lat="41.7341460" lon="-8.8727910">
        <ele>5.7</ele>
        <time>2021-05-18T07:09:46Z</time>
      </trkpt>
      <trkpt lat="41.7341600" lon="-8.8727950">
        <ele>5.7</ele>
        <time>2021-05-18T07:09:47Z</time>
      </trkpt>
      <trkpt lat="41.7341710" lon="-8.8728020">
        <ele>5.7</ele>
        <time>2021-05-18T07:09:48Z</time>
      </trkpt>
      <trkpt lat="41.7341870" lon="-8.8728000">
        <ele>5.7</ele>
        <time>2021-05-18T07:09:49Z</time>
      </trkpt>
      <trkpt lat="41.7342050" lon="-8.8728030">
        <ele>5.7</ele>
        <time>2021-05-18T07:09:50Z</time>
      </trkpt>
      <trkpt lat="41.7342200" lon="-8.8728030">
        <ele>5.6</ele>
        <time>2021-05-18T07:09:51Z</time>
      </trkpt>
      <trkpt lat="41.7342350" lon="-8.8728040">
        <ele>5.6</ele>
        <time>2021-05-18T07:09:52Z</time>
      </trkpt>
      <trkpt lat="41.7342590" lon="-8.8728060">
        <ele>5.6</ele>
        <time>2021-05-18T07:09:53Z</time>
      </trkpt>
      <trkpt lat="41.7342670" lon="-8.8728060">
        <ele>5.6</ele>
        <time>2021-05-18T07:09:54Z</time>
      </trkpt>
      <trkpt lat="41.7342750" lon="-8.8728060">
        <ele>5.6</ele>
        <time>2021-05-18T07:09:55Z</time>
      </trkpt>
      <trkpt lat="41.7342900" lon="-8.8728080">
        <ele>5.6</ele>
        <time>2021-05-18T07:09:56Z</time>
      </trkpt>
      <trkpt lat="41.7343040" lon="-8.8728140">
        <ele>5.6</ele>
        <time>2021-05-18T07:09:57Z</time>
      </trkpt>
      <trkpt lat="41.7343240" lon="-8.8728240">
        <ele>5.6</ele>
        <time>2021-05-18T07:09:58Z</time>
      </trkpt>
      <trkpt lat="41.7343330" lon="-8.8728240">
        <ele>5.6</ele>
        <time>2021-05-18T07:09:59Z</time>
      </trkpt>
      <trkpt lat="41.7343410" lon="-8.8728250">
        <ele>5.6</ele>
        <time>2021-05-18T07:10:00Z</time>
      </trkpt>
      <trkpt lat="41.7343580" lon="-8.8728310">
        <ele>5.6</ele>
        <time>2021-05-18T07:10:01Z</time>
      </trkpt>
      <trkpt lat="41.7343670" lon="-8.8728360">
        <ele>5.6</ele>
        <time>2021-05-18T07:10:02Z</time>
      </trkpt>
      <trkpt lat="41.7343750" lon="-8.8728420">
        <ele>5.6</ele>
        <time>2021-05-18T07:10:03Z</time>
      </trkpt>
      <trkpt lat="41.7343960" lon="-8.8728390">
        <ele>5.6</ele>
        <time>2021-05-18T07:10:04Z</time>
      </trkpt>
      <trkpt lat="41.7344060" lon="-8.8728390">
        <ele>5.6</ele>
        <time>2021-05-18T07:10:05Z</time>
      </trkpt>
      <trkpt lat="41.7344160" lon="-8.8728400">
        <ele>5.6</ele>
        <time>2021-05-18T07:10:06Z</time>
      </trkpt>
      <trkpt lat="41.7344320" lon="-8.8728440">
        <ele>5.6</ele>
        <time>2021-05-18T07:10:07Z</time>
      </trkpt>
      <trkpt lat="41.7344450" lon="-8.8728490">
        <ele>5.6</ele>
        <time>2021-05-18T07:10:08Z</time>
      </trkpt>
      <trkpt lat="41.7344610" lon="-8.8728490">
        <ele>5.6</ele>
        <time>2021-05-18T07:10:09Z</time>
      </trkpt>
      <trkpt lat="41.7344740" lon="-8.8728500">
        <ele>5.6</ele>
        <time>2021-05-18T07:10:10Z</time>
      </trkpt>
      <trkpt lat="41.7344890" lon="-8.8728550">
        <ele>5.6</ele>
        <time>2021-05-18T07:10:11Z</time>
      </trkpt>
      <trkpt lat="41.7345020" lon="-8.8728610">
        <ele>5.6</ele>
        <time>2021-05-18T07:10:12Z</time>
      </trkpt>
      <trkpt lat="41.7345240" lon="-8.8728640">
        <ele>5.6</ele>
        <time>2021-05-18T07:10:13Z</time>
      </trkpt>
      <trkpt lat="41.7345320" lon="-8.8728670">
        <ele>5.6</ele>
        <time>2021-05-18T07:10:14Z</time>
      </trkpt>
      <trkpt lat="41.7345400" lon="-8.8728700">
        <ele>5.6</ele>
        <time>2021-05-18T07:10:15Z</time>
      </trkpt>
      <trkpt lat="41.7345530" lon="-8.8728700">
        <ele>5.6</ele>
        <time>2021-05-18T07:10:16Z</time>
      </trkpt>
      <trkpt lat="41.7345670" lon="-8.8728730">
        <ele>5.6</ele>
        <time>2021-05-18T07:10:17Z</time>
      </trkpt>
      <trkpt lat="41.7345980" lon="-8.8728780">
        <ele>5.5</ele>
        <time>2021-05-18T07:10:18Z</time>
      </trkpt>
      <trkpt lat="41.7346100" lon="-8.8728740">
        <ele>5.5</ele>
        <time>2021-05-18T07:10:19Z</time>
      </trkpt>
      <trkpt lat="41.7346300" lon="-8.8728680">
        <ele>5.5</ele>
        <time>2021-05-18T07:10:21Z</time>
      </trkpt>
      <trkpt lat="41.7346430" lon="-8.8728670">
        <ele>5.5</ele>
        <time>2021-05-18T07:10:22Z</time>
      </trkpt>
      <trkpt lat="41.7346600" lon="-8.8728610">
        <ele>5.5</ele>
        <time>2021-05-18T07:10:23Z</time>
      </trkpt>
      <trkpt lat="41.7346710" lon="-8.8728610">
        <ele>5.5</ele>
        <time>2021-05-18T07:10:24Z</time>
      </trkpt>
      <trkpt lat="41.7346710" lon="-8.8728610">
        <ele>5.5</ele>
        <time>2021-05-18T07:10:25Z</time>
      </trkpt>
      <trkpt lat="41.7346720" lon="-8.8728610">
        <ele>5.5</ele>
        <time>2021-05-18T07:10:26Z</time>
      </trkpt>
      <trkpt lat="41.7346720" lon="-8.8728610">
        <ele>5.5</ele>
        <time>2021-05-18T07:10:27Z</time>
      </trkpt>
      <trkpt lat="41.7346730" lon="-8.8728610">
        <ele>5.5</ele>
        <time>2021-05-18T07:10:28Z</time>
      </trkpt>
      <trkpt lat="41.7346740" lon="-8.8728600">
        <ele>5.5</ele>
        <time>2021-05-18T07:10:29Z</time>
      </trkpt>
      <trkpt lat="41.7346740" lon="-8.8728600">
        <ele>5.5</ele>
        <time>2021-05-18T07:10:30Z</time>
      </trkpt>
      <trkpt lat="41.7346750" lon="-8.8728600">
        <ele>5.5</ele>
        <time>2021-05-18T07:10:31Z</time>
      </trkpt>
      <trkpt lat="41.7346760" lon="-8.8728600">
        <ele>5.5</ele>
        <time>2021-05-18T07:10:32Z</time>
      </trkpt>
      <trkpt lat="41.7346760" lon="-8.8728600">
        <ele>5.5</ele>
        <time>2021-05-18T07:10:33Z</time>
      </trkpt>
      <trkpt lat="41.7346770" lon="-8.8728600">
        <ele>5.5</ele>
        <time>2021-05-18T07:10:34Z</time>
      </trkpt>
      <trkpt lat="41.7346770" lon="-8.8728600">
        <ele>5.5</ele>
        <time>2021-05-18T07:10:35Z</time>
      </trkpt>
      <trkpt lat="41.7346780" lon="-8.8728600">
        <ele>5.5</ele>
        <time>2021-05-18T07:10:36Z</time>
      </trkpt>
      <trkpt lat="41.7346790" lon="-8.8728600">
        <ele>5.5</ele>
        <time>2021-05-18T07:10:37Z</time>
      </trkpt>
      <trkpt lat="41.7346790" lon="-8.8728600">
        <ele>5.5</ele>
        <time>2021-05-18T07:10:38Z</time>
      </trkpt>
      <trkpt lat="41.7346800" lon="-8.8728600">
        <ele>5.5</ele>
        <time>2021-05-18T07:10:39Z</time>
      </trkpt>
      <trkpt lat="41.7346810" lon="-8.8728590">
        <ele>5.5</ele>
        <time>2021-05-18T07:10:40Z</time>
      </trkpt>
      <trkpt lat="41.7346810" lon="-8.8728590">
        <ele>5.5</ele>
        <time>2021-05-18T07:10:41Z</time>
      </trkpt>
      <trkpt lat="41.7346820" lon="-8.8728590">
        <ele>5.5</ele>
        <time>2021-05-18T07:10:42Z</time>
      </trkpt>
      <trkpt lat="41.7346820" lon="-8.8728590">
        <ele>5.5</ele>
        <time>2021-05-18T07:10:43Z</time>
      </trkpt>
      <trkpt lat="41.7346830" lon="-8.8728590">
        <ele>5.5</ele>
        <time>2021-05-18T07:10:44Z</time>
      </trkpt>
      <trkpt lat="41.7346840" lon="-8.8728590">
        <ele>5.5</ele>
        <time>2021-05-18T07:10:45Z</time>
      </trkpt>
      <trkpt lat="41.7346840" lon="-8.8728590">
        <ele>5.5</ele>
        <time>2021-05-18T07:10:46Z</time>
      </trkpt>
      <trkpt lat="41.7346850" lon="-8.8728590">
        <ele>5.5</ele>
        <time>2021-05-18T07:10:47Z</time>
      </trkpt>
      <trkpt lat="41.7346860" lon="-8.8728590">
        <ele>5.5</ele>
        <time>2021-05-18T07:10:48Z</time>
      </trkpt>
      <trkpt lat="41.7346860" lon="-8.8728590">
        <ele>5.5</ele>
        <time>2021-05-18T07:10:49Z</time>
      </trkpt>
      <trkpt lat="41.7346870" lon="-8.8728590">
        <ele>5.5</ele>
        <time>2021-05-18T07:10:50Z</time>
      </trkpt>
      <trkpt lat="41.7346870" lon="-8.8728590">
        <ele>5.5</ele>
        <time>2021-05-18T07:10:51Z</time>
      </trkpt>
      <trkpt lat="41.7346880" lon="-8.8728580">
        <ele>5.5</ele>
        <time>2021-05-18T07:10:52Z</time>
      </trkpt>
      <trkpt lat="41.7346890" lon="-8.8728580">
        <ele>5.5</ele>
        <time>2021-05-18T07:10:53Z</time>
      </trkpt>
      <trkpt lat="41.7346890" lon="-8.8728580">
        <ele>5.5</ele>
        <time>2021-05-18T07:10:54Z</time>
      </trkpt>
      <trkpt lat="41.7346900" lon="-8.8728580">
        <ele>5.5</ele>
        <time>2021-05-18T07:10:55Z</time>
      </trkpt>
      <trkpt lat="41.7346910" lon="-8.8728580">
        <ele>5.5</ele>
        <time>2021-05-18T07:10:56Z</time>
      </trkpt>
      <trkpt lat="41.7346910" lon="-8.8728580">
        <ele>5.5</ele>
        <time>2021-05-18T07:10:57Z</time>
      </trkpt>
      <trkpt lat="41.7346920" lon="-8.8728580">
        <ele>5.5</ele>
        <time>2021-05-18T07:10:58Z</time>
      </trkpt>
      <trkpt lat="41.7346920" lon="-8.8728580">
        <ele>5.5</ele>
        <time>2021-05-18T07:10:59Z</time>
      </trkpt>
      <trkpt lat="41.7346930" lon="-8.8728580">
        <ele>5.5</ele>
        <time>2021-05-18T07:11:00Z</time>
      </trkpt>
      <trkpt lat="41.7346940" lon="-8.8728580">
        <ele>5.5</ele>
        <time>2021-05-18T07:11:01Z</time>
      </trkpt>
      <trkpt lat="41.7346940" lon="-8.8728580">
        <ele>5.5</ele>
        <time>2021-05-18T07:11:02Z</time>
      </trkpt>
      <trkpt lat="41.7346950" lon="-8.8728570">
        <ele>5.5</ele>
        <time>2021-05-18T07:11:03Z</time>
      </trkpt>
      <trkpt lat="41.7346960" lon="-8.8728570">
        <ele>5.5</ele>
        <time>2021-05-18T07:11:04Z</time>
      </trkpt>
      <trkpt lat="41.7346960" lon="-8.8728570">
        <ele>5.5</ele>
        <time>2021-05-18T07:11:05Z</time>
      </trkpt>
      <trkpt lat="41.7346970" lon="-8.8728570">
        <ele>5.5</ele>
        <time>2021-05-18T07:11:06Z</time>
      </trkpt>
      <trkpt lat="41.7346970" lon="-8.8728570">
        <ele>5.5</ele>
        <time>2021-05-18T07:11:07Z</time>
      </trkpt>
      <trkpt lat="41.7346980" lon="-8.8728570">
        <ele>5.5</ele>
        <time>2021-05-18T07:11:08Z</time>
      </trkpt>
      <trkpt lat="41.7347130" lon="-8.8728520">
        <ele>5.5</ele>
        <time>2021-05-18T07:11:09Z</time>
      </trkpt>
      <trkpt lat="41.7347180" lon="-8.8728480">
        <ele>5.5</ele>
        <time>2021-05-18T07:11:10Z</time>
      </trkpt>
      <trkpt lat="41.7347280" lon="-8.8728480">
        <ele>5.5</ele>
        <time>2021-05-18T07:11:11Z</time>
      </trkpt>
      <trkpt lat="41.7347490" lon="-8.8728500">
        <ele>5.5</ele>
        <time>2021-05-18T07:11:12Z</time>
      </trkpt>
      <trkpt lat="41.7347580" lon="-8.8728500">
        <ele>5.5</ele>
        <time>2021-05-18T07:11:13Z</time>
      </trkpt>
      <trkpt lat="41.7347670" lon="-8.8728510">
        <ele>5.5</ele>
        <time>2021-05-18T07:11:14Z</time>
      </trkpt>
      <trkpt lat="41.7347750" lon="-8.8728530">
        <ele>5.5</ele>
        <time>2021-05-18T07:11:15Z</time>
      </trkpt>
      <trkpt lat="41.7347960" lon="-8.8728570">
        <ele>5.5</ele>
        <time>2021-05-18T07:11:16Z</time>
      </trkpt>
      <trkpt lat="41.7348030" lon="-8.8728560">
        <ele>5.5</ele>
        <time>2021-05-18T07:11:17Z</time>
      </trkpt>
      <trkpt lat="41.7348180" lon="-8.8728630">
        <ele>5.5</ele>
        <time>2021-05-18T07:11:18Z</time>
      </trkpt>
      <trkpt lat="41.7348180" lon="-8.8728650">
        <ele>5.5</ele>
        <time>2021-05-18T07:11:19Z</time>
      </trkpt>
      <trkpt lat="41.7348120" lon="-8.8728670">
        <ele>5.5</ele>
        <time>2021-05-18T07:11:20Z</time>
      </trkpt>
      <trkpt lat="41.7348120" lon="-8.8728670">
        <ele>5.5</ele>
        <time>2021-05-18T07:11:21Z</time>
      </trkpt>
      <trkpt lat="41.7348110" lon="-8.8728680">
        <ele>5.5</ele>
        <time>2021-05-18T07:11:22Z</time>
      </trkpt>
      <trkpt lat="41.7348060" lon="-8.8728700">
        <ele>5.5</ele>
        <time>2021-05-18T07:11:23Z</time>
      </trkpt>
      <trkpt lat="41.7348080" lon="-8.8728700">
        <ele>5.5</ele>
        <time>2021-05-18T07:11:24Z</time>
      </trkpt>
      <trkpt lat="41.7348080" lon="-8.8728760">
        <ele>5.5</ele>
        <time>2021-05-18T07:11:25Z</time>
      </trkpt>
      <trkpt lat="41.7348070" lon="-8.8728670">
        <ele>5.5</ele>
        <time>2021-05-18T07:11:26Z</time>
      </trkpt>
      <trkpt lat="41.7348070" lon="-8.8728710">
        <ele>5.5</ele>
        <time>2021-05-18T07:11:27Z</time>
      </trkpt>
      <trkpt lat="41.7348070" lon="-8.8728690">
        <ele>5.5</ele>
        <time>2021-05-18T07:11:28Z</time>
      </trkpt>
      <trkpt lat="41.7348080" lon="-8.8728710">
        <ele>5.5</ele>
        <time>2021-05-18T07:11:29Z</time>
      </trkpt>
      <trkpt lat="41.7348080" lon="-8.8728710">
        <ele>5.5</ele>
        <time>2021-05-18T07:11:30Z</time>
      </trkpt>
      <trkpt lat="41.7348120" lon="-8.8728680">
        <ele>5.5</ele>
        <time>2021-05-18T07:11:31Z</time>
      </trkpt>
      <trkpt lat="41.7348130" lon="-8.8728680">
        <ele>5.5</ele>
        <time>2021-05-18T07:11:32Z</time>
      </trkpt>
      <trkpt lat="41.7348120" lon="-8.8728680">
        <ele>5.5</ele>
        <time>2021-05-18T07:11:33Z</time>
      </trkpt>
      <trkpt lat="41.7348120" lon="-8.8728660">
        <ele>5.5</ele>
        <time>2021-05-18T07:11:34Z</time>
      </trkpt>
      <trkpt lat="41.7348110" lon="-8.8728620">
        <ele>5.5</ele>
        <time>2021-05-18T07:11:35Z</time>
      </trkpt>
      <trkpt lat="41.7348110" lon="-8.8728590">
        <ele>5.5</ele>
        <time>2021-05-18T07:11:36Z</time>
      </trkpt>
      <trkpt lat="41.7348100" lon="-8.8728590">
        <ele>5.5</ele>
        <time>2021-05-18T07:11:37Z</time>
      </trkpt>
      <trkpt lat="41.7348100" lon="-8.8728590">
        <ele>5.5</ele>
        <time>2021-05-18T07:11:38Z</time>
      </trkpt>
      <trkpt lat="41.7348080" lon="-8.8728590">
        <ele>5.5</ele>
        <time>2021-05-18T07:11:39Z</time>
      </trkpt>
      <trkpt lat="41.7348090" lon="-8.8728580">
        <ele>5.5</ele>
        <time>2021-05-18T07:11:40Z</time>
      </trkpt>
      <trkpt lat="41.7348090" lon="-8.8728580">
        <ele>5.5</ele>
        <time>2021-05-18T07:11:41Z</time>
      </trkpt>
      <trkpt lat="41.7348110" lon="-8.8728500">
        <ele>5.5</ele>
        <time>2021-05-18T07:11:42Z</time>
      </trkpt>
      <trkpt lat="41.7348120" lon="-8.8728490">
        <ele>5.5</ele>
        <time>2021-05-18T07:11:43Z</time>
      </trkpt>
      <trkpt lat="41.7348120" lon="-8.8728500">
        <ele>5.5</ele>
        <time>2021-05-18T07:11:44Z</time>
      </trkpt>
      <trkpt lat="41.7348120" lon="-8.8728500">
        <ele>5.5</ele>
        <time>2021-05-18T07:11:45Z</time>
      </trkpt>
      <trkpt lat="41.7348150" lon="-8.8728420">
        <ele>5.5</ele>
        <time>2021-05-18T07:11:46Z</time>
      </trkpt>
      <trkpt lat="41.7348180" lon="-8.8728460">
        <ele>5.5</ele>
        <time>2021-05-18T07:11:47Z</time>
      </trkpt>
      <trkpt lat="41.7348190" lon="-8.8728490">
        <ele>5.5</ele>
        <time>2021-05-18T07:11:48Z</time>
      </trkpt>
      <trkpt lat="41.7348200" lon="-8.8728520">
        <ele>5.5</ele>
        <time>2021-05-18T07:11:49Z</time>
      </trkpt>
      <trkpt lat="41.7348200" lon="-8.8728560">
        <ele>5.5</ele>
        <time>2021-05-18T07:11:50Z</time>
      </trkpt>
      <trkpt lat="41.7348210" lon="-8.8728600">
        <ele>5.5</ele>
        <time>2021-05-18T07:11:51Z</time>
      </trkpt>
      <trkpt lat="41.7348200" lon="-8.8728590">
        <ele>5.5</ele>
        <time>2021-05-18T07:11:52Z</time>
      </trkpt>
      <trkpt lat="41.7348190" lon="-8.8728550">
        <ele>5.5</ele>
        <time>2021-05-18T07:11:53Z</time>
      </trkpt>
      <trkpt lat="41.7348190" lon="-8.8728550">
        <ele>5.5</ele>
        <time>2021-05-18T07:11:54Z</time>
      </trkpt>
      <trkpt lat="41.7348180" lon="-8.8728520">
        <ele>5.5</ele>
        <time>2021-05-18T07:11:55Z</time>
      </trkpt>
      <trkpt lat="41.7348210" lon="-8.8728510">
        <ele>5.5</ele>
        <time>2021-05-18T07:11:56Z</time>
      </trkpt>
      <trkpt lat="41.7348210" lon="-8.8728510">
        <ele>5.5</ele>
        <time>2021-05-18T07:11:57Z</time>
      </trkpt>
      <trkpt lat="41.7348220" lon="-8.8728540">
        <ele>5.5</ele>
        <time>2021-05-18T07:11:58Z</time>
      </trkpt>
      <trkpt lat="41.7348220" lon="-8.8728490">
        <ele>5.5</ele>
        <time>2021-05-18T07:11:59Z</time>
      </trkpt>
      <trkpt lat="41.7348230" lon="-8.8728430">
        <ele>5.5</ele>
        <time>2021-05-18T07:12:00Z</time>
      </trkpt>
      <trkpt lat="41.7348220" lon="-8.8728420">
        <ele>5.5</ele>
        <time>2021-05-18T07:12:01Z</time>
      </trkpt>
      <trkpt lat="41.7348230" lon="-8.8728440">
        <ele>5.5</ele>
        <time>2021-05-18T07:12:02Z</time>
      </trkpt>
      <trkpt lat="41.7348190" lon="-8.8728470">
        <ele>5.5</ele>
        <time>2021-05-18T07:12:03Z</time>
      </trkpt>
      <trkpt lat="41.7348190" lon="-8.8728470">
        <ele>5.5</ele>
        <time>2021-05-18T07:12:04Z</time>
      </trkpt>
      <trkpt lat="41.7348200" lon="-8.8728420">
        <ele>5.5</ele>
        <time>2021-05-18T07:12:05Z</time>
      </trkpt>
      <trkpt lat="41.7348140" lon="-8.8728320">
        <ele>5.5</ele>
        <time>2021-05-18T07:12:06Z</time>
      </trkpt>
      <trkpt lat="41.7348110" lon="-8.8728360">
        <ele>5.5</ele>
        <time>2021-05-18T07:12:07Z</time>
      </trkpt>
      <trkpt lat="41.7348090" lon="-8.8728470">
        <ele>5.5</ele>
        <time>2021-05-18T07:12:08Z</time>
      </trkpt>
      <trkpt lat="41.7348080" lon="-8.8728470">
        <ele>5.5</ele>
        <time>2021-05-18T07:12:09Z</time>
      </trkpt>
      <trkpt lat="41.7348180" lon="-8.8728440">
        <ele>5.5</ele>
        <time>2021-05-18T07:12:10Z</time>
      </trkpt>
      <trkpt lat="41.7348280" lon="-8.8728420">
        <ele>5.5</ele>
        <time>2021-05-18T07:12:11Z</time>
      </trkpt>
      <trkpt lat="41.7348580" lon="-8.8728420">
        <ele>5.5</ele>
        <time>2021-05-18T07:12:12Z</time>
      </trkpt>
      <trkpt lat="41.7348650" lon="-8.8728420">
        <ele>5.5</ele>
        <time>2021-05-18T07:12:13Z</time>
      </trkpt>
      <trkpt lat="41.7348770" lon="-8.8728400">
        <ele>5.5</ele>
        <time>2021-05-18T07:12:14Z</time>
      </trkpt>
      <trkpt lat="41.7348870" lon="-8.8728450">
        <ele>5.5</ele>
        <time>2021-05-18T07:12:15Z</time>
      </trkpt>
      <trkpt lat="41.7349000" lon="-8.8728440">
        <ele>5.5</ele>
        <time>2021-05-18T07:12:16Z</time>
      </trkpt>
      <trkpt lat="41.7349150" lon="-8.8728390">
        <ele>5.4</ele>
        <time>2021-05-18T07:12:17Z</time>
      </trkpt>
      <trkpt lat="41.7349300" lon="-8.8728360">
        <ele>5.4</ele>
        <time>2021-05-18T07:12:18Z</time>
      </trkpt>
      <trkpt lat="41.7349420" lon="-8.8728370">
        <ele>5.4</ele>
        <time>2021-05-18T07:12:19Z</time>
      </trkpt>
      <trkpt lat="41.7349580" lon="-8.8728420">
        <ele>5.4</ele>
        <time>2021-05-18T07:12:20Z</time>
      </trkpt>
      <trkpt lat="41.7349770" lon="-8.8728480">
        <ele>5.4</ele>
        <time>2021-05-18T07:12:21Z</time>
      </trkpt>
      <trkpt lat="41.7349850" lon="-8.8728480">
        <ele>5.4</ele>
        <time>2021-05-18T07:12:22Z</time>
      </trkpt>
      <trkpt lat="41.7349940" lon="-8.8728490">
        <ele>5.4</ele>
        <time>2021-05-18T07:12:23Z</time>
      </trkpt>
      <trkpt lat="41.7350150" lon="-8.8728520">
        <ele>5.4</ele>
        <time>2021-05-18T07:12:24Z</time>
      </trkpt>
      <trkpt lat="41.7350300" lon="-8.8728550">
        <ele>5.4</ele>
        <time>2021-05-18T07:12:25Z</time>
      </trkpt>
      <trkpt lat="41.7350420" lon="-8.8728640">
        <ele>5.4</ele>
        <time>2021-05-18T07:12:26Z</time>
      </trkpt>
      <trkpt lat="41.7350570" lon="-8.8728730">
        <ele>5.4</ele>
        <time>2021-05-18T07:12:27Z</time>
      </trkpt>
      <trkpt lat="41.7350700" lon="-8.8728790">
        <ele>5.3</ele>
        <time>2021-05-18T07:12:28Z</time>
      </trkpt>
      <trkpt lat="41.7350850" lon="-8.8728850">
        <ele>5.3</ele>
        <time>2021-05-18T07:12:29Z</time>
      </trkpt>
      <trkpt lat="41.7351000" lon="-8.8728930">
        <ele>5.3</ele>
        <time>2021-05-18T07:12:30Z</time>
      </trkpt>
      <trkpt lat="41.7351140" lon="-8.8728860">
        <ele>5.3</ele>
        <time>2021-05-18T07:12:31Z</time>
      </trkpt>
      <trkpt lat="41.7351280" lon="-8.8728910">
        <ele>5.3</ele>
        <time>2021-05-18T07:12:32Z</time>
      </trkpt>
      <trkpt lat="41.7351440" lon="-8.8729020">
        <ele>5.3</ele>
        <time>2021-05-18T07:12:33Z</time>
      </trkpt>
      <trkpt lat="41.7351570" lon="-8.8729060">
        <ele>5.3</ele>
        <time>2021-05-18T07:12:34Z</time>
      </trkpt>
      <trkpt lat="41.7351720" lon="-8.8729070">
        <ele>5.3</ele>
        <time>2021-05-18T07:12:35Z</time>
      </trkpt>
      <trkpt lat="41.7351880" lon="-8.8729120">
        <ele>5.3</ele>
        <time>2021-05-18T07:12:36Z</time>
      </trkpt>
      <trkpt lat="41.7352010" lon="-8.8729150">
        <ele>5.3</ele>
        <time>2021-05-18T07:12:37Z</time>
      </trkpt>
      <trkpt lat="41.7352130" lon="-8.8729110">
        <ele>5.3</ele>
        <time>2021-05-18T07:12:38Z</time>
      </trkpt>
      <trkpt lat="41.7352280" lon="-8.8729130">
        <ele>5.3</ele>
        <time>2021-05-18T07:12:39Z</time>
      </trkpt>
      <trkpt lat="41.7352430" lon="-8.8729200">
        <ele>5.3</ele>
        <time>2021-05-18T07:12:40Z</time>
      </trkpt>
      <trkpt lat="41.7352550" lon="-8.8729230">
        <ele>5.3</ele>
        <time>2021-05-18T07:12:41Z</time>
      </trkpt>
      <trkpt lat="41.7352720" lon="-8.8729280">
        <ele>5.3</ele>
        <time>2021-05-18T07:12:42Z</time>
      </trkpt>
      <trkpt lat="41.7352850" lon="-8.8729310">
        <ele>5.3</ele>
        <time>2021-05-18T07:12:43Z</time>
      </trkpt>
      <trkpt lat="41.7353000" lon="-8.8729330">
        <ele>5.3</ele>
        <time>2021-05-18T07:12:44Z</time>
      </trkpt>
      <trkpt lat="41.7353150" lon="-8.8729390">
        <ele>5.3</ele>
        <time>2021-05-18T07:12:45Z</time>
      </trkpt>
      <trkpt lat="41.7353350" lon="-8.8729400">
        <ele>5.2</ele>
        <time>2021-05-18T07:12:46Z</time>
      </trkpt>
      <trkpt lat="41.7353450" lon="-8.8729390">
        <ele>5.2</ele>
        <time>2021-05-18T07:12:47Z</time>
      </trkpt>
      <trkpt lat="41.7353540" lon="-8.8729380">
        <ele>5.2</ele>
        <time>2021-05-18T07:12:48Z</time>
      </trkpt>
      <trkpt lat="41.7353760" lon="-8.8729390">
        <ele>5.2</ele>
        <time>2021-05-18T07:12:49Z</time>
      </trkpt>
      <trkpt lat="41.7353840" lon="-8.8729390">
        <ele>5.2</ele>
        <time>2021-05-18T07:12:50Z</time>
      </trkpt>
      <trkpt lat="41.7353920" lon="-8.8729400">
        <ele>5.2</ele>
        <time>2021-05-18T07:12:51Z</time>
      </trkpt>
      <trkpt lat="41.7354120" lon="-8.8729500">
        <ele>5.3</ele>
        <time>2021-05-18T07:12:52Z</time>
      </trkpt>
      <trkpt lat="41.7354200" lon="-8.8729520">
        <ele>5.3</ele>
        <time>2021-05-18T07:12:53Z</time>
      </trkpt>
      <trkpt lat="41.7354280" lon="-8.8729550">
        <ele>5.3</ele>
        <time>2021-05-18T07:12:54Z</time>
      </trkpt>
      <trkpt lat="41.7354480" lon="-8.8729670">
        <ele>5.3</ele>
        <time>2021-05-18T07:12:55Z</time>
      </trkpt>
      <trkpt lat="41.7354560" lon="-8.8729700">
        <ele>5.3</ele>
        <time>2021-05-18T07:12:56Z</time>
      </trkpt>
      <trkpt lat="41.7354630" lon="-8.8729740">
        <ele>5.3</ele>
        <time>2021-05-18T07:12:57Z</time>
      </trkpt>
      <trkpt lat="41.7354770" lon="-8.8729720">
        <ele>5.3</ele>
        <time>2021-05-18T07:12:58Z</time>
      </trkpt>
      <trkpt lat="41.7354900" lon="-8.8729700">
        <ele>5.3</ele>
        <time>2021-05-18T07:12:59Z</time>
      </trkpt>
      <trkpt lat="41.7355020" lon="-8.8729730">
        <ele>5.3</ele>
        <time>2021-05-18T07:13:00Z</time>
      </trkpt>
      <trkpt lat="41.7355140" lon="-8.8729730">
        <ele>5.3</ele>
        <time>2021-05-18T07:13:01Z</time>
      </trkpt>
      <trkpt lat="41.7355260" lon="-8.8729730">
        <ele>5.3</ele>
        <time>2021-05-18T07:13:02Z</time>
      </trkpt>
      <trkpt lat="41.7355470" lon="-8.8729800">
        <ele>5.4</ele>
        <time>2021-05-18T07:13:03Z</time>
      </trkpt>
      <trkpt lat="41.7355540" lon="-8.8729820">
        <ele>5.4</ele>
        <time>2021-05-18T07:13:04Z</time>
      </trkpt>
      <trkpt lat="41.7355620" lon="-8.8729830">
        <ele>5.4</ele>
        <time>2021-05-18T07:13:05Z</time>
      </trkpt>
      <trkpt lat="41.7355830" lon="-8.8729910">
        <ele>5.4</ele>
        <time>2021-05-18T07:13:06Z</time>
      </trkpt>
      <trkpt lat="41.7355910" lon="-8.8729920">
        <ele>5.4</ele>
        <time>2021-05-18T07:13:07Z</time>
      </trkpt>
      <trkpt lat="41.7356000" lon="-8.8729940">
        <ele>5.4</ele>
        <time>2021-05-18T07:13:08Z</time>
      </trkpt>
      <trkpt lat="41.7356230" lon="-8.8729990">
        <ele>5.4</ele>
        <time>2021-05-18T07:13:09Z</time>
      </trkpt>
      <trkpt lat="41.7356330" lon="-8.8730010">
        <ele>5.5</ele>
        <time>2021-05-18T07:13:10Z</time>
      </trkpt>
      <trkpt lat="41.7356420" lon="-8.8730040">
        <ele>5.5</ele>
        <time>2021-05-18T07:13:11Z</time>
      </trkpt>
      <trkpt lat="41.7356540" lon="-8.8730130">
        <ele>5.5</ele>
        <time>2021-05-18T07:13:12Z</time>
      </trkpt>
      <trkpt lat="41.7356680" lon="-8.8730160">
        <ele>5.5</ele>
        <time>2021-05-18T07:13:13Z</time>
      </trkpt>
      <trkpt lat="41.7356820" lon="-8.8730180">
        <ele>5.5</ele>
        <time>2021-05-18T07:13:14Z</time>
      </trkpt>
      <trkpt lat="41.7356960" lon="-8.8730180">
        <ele>5.6</ele>
        <time>2021-05-18T07:13:15Z</time>
      </trkpt>
      <trkpt lat="41.7357090" lon="-8.8730250">
        <ele>5.6</ele>
        <time>2021-05-18T07:13:16Z</time>
      </trkpt>
      <trkpt lat="41.7357230" lon="-8.8730330">
        <ele>5.6</ele>
        <time>2021-05-18T07:13:17Z</time>
      </trkpt>
      <trkpt lat="41.7357370" lon="-8.8730340">
        <ele>5.6</ele>
        <time>2021-05-18T07:13:18Z</time>
      </trkpt>
      <trkpt lat="41.7357510" lon="-8.8730400">
        <ele>5.6</ele>
        <time>2021-05-18T07:13:19Z</time>
      </trkpt>
      <trkpt lat="41.7357720" lon="-8.8730510">
        <ele>5.7</ele>
        <time>2021-05-18T07:13:20Z</time>
      </trkpt>
      <trkpt lat="41.7357800" lon="-8.8730550">
        <ele>5.7</ele>
        <time>2021-05-18T07:13:21Z</time>
      </trkpt>
      <trkpt lat="41.7357890" lon="-8.8730580">
        <ele>5.7</ele>
        <time>2021-05-18T07:13:22Z</time>
      </trkpt>
      <trkpt lat="41.7358040" lon="-8.8730620">
        <ele>5.7</ele>
        <time>2021-05-18T07:13:23Z</time>
      </trkpt>
      <trkpt lat="41.7358190" lon="-8.8730680">
        <ele>5.7</ele>
        <time>2021-05-18T07:13:24Z</time>
      </trkpt>
      <trkpt lat="41.7358310" lon="-8.8730740">
        <ele>5.7</ele>
        <time>2021-05-18T07:13:25Z</time>
      </trkpt>
      <trkpt lat="41.7358470" lon="-8.8730760">
        <ele>5.7</ele>
        <time>2021-05-18T07:13:26Z</time>
      </trkpt>
      <trkpt lat="41.7358620" lon="-8.8730730">
        <ele>5.7</ele>
        <time>2021-05-18T07:13:27Z</time>
      </trkpt>
      <trkpt lat="41.7358760" lon="-8.8730730">
        <ele>5.7</ele>
        <time>2021-05-18T07:13:28Z</time>
      </trkpt>
      <trkpt lat="41.7358900" lon="-8.8730790">
        <ele>5.7</ele>
        <time>2021-05-18T07:13:29Z</time>
      </trkpt>
      <trkpt lat="41.7359020" lon="-8.8730860">
        <ele>5.7</ele>
        <time>2021-05-18T07:13:30Z</time>
      </trkpt>
      <trkpt lat="41.7359240" lon="-8.8730940">
        <ele>5.7</ele>
        <time>2021-05-18T07:13:31Z</time>
      </trkpt>
      <trkpt lat="41.7359330" lon="-8.8730980">
        <ele>5.7</ele>
        <time>2021-05-18T07:13:32Z</time>
      </trkpt>
      <trkpt lat="41.7359420" lon="-8.8731020">
        <ele>5.6</ele>
        <time>2021-05-18T07:13:33Z</time>
      </trkpt>
      <trkpt lat="41.7359550" lon="-8.8731070">
        <ele>5.6</ele>
        <time>2021-05-18T07:13:34Z</time>
      </trkpt>
      <trkpt lat="41.7359690" lon="-8.8731130">
        <ele>5.6</ele>
        <time>2021-05-18T07:13:35Z</time>
      </trkpt>
      <trkpt lat="41.7359840" lon="-8.8731190">
        <ele>5.6</ele>
        <time>2021-05-18T07:13:36Z</time>
      </trkpt>
      <trkpt lat="41.7359990" lon="-8.8731210">
        <ele>5.6</ele>
        <time>2021-05-18T07:13:37Z</time>
      </trkpt>
      <trkpt lat="41.7360140" lon="-8.8731270">
        <ele>5.5</ele>
        <time>2021-05-18T07:13:38Z</time>
      </trkpt>
      <trkpt lat="41.7360270" lon="-8.8731310">
        <ele>5.5</ele>
        <time>2021-05-18T07:13:39Z</time>
      </trkpt>
      <trkpt lat="41.7360410" lon="-8.8731420">
        <ele>5.5</ele>
        <time>2021-05-18T07:13:40Z</time>
      </trkpt>
      <trkpt lat="41.7360560" lon="-8.8731420">
        <ele>5.5</ele>
        <time>2021-05-18T07:13:41Z</time>
      </trkpt>
      <trkpt lat="41.7360670" lon="-8.8731520">
        <ele>5.5</ele>
        <time>2021-05-18T07:13:42Z</time>
      </trkpt>
      <trkpt lat="41.7360820" lon="-8.8731550">
        <ele>5.4</ele>
        <time>2021-05-18T07:13:43Z</time>
      </trkpt>
      <trkpt lat="41.7360970" lon="-8.8731530">
        <ele>5.4</ele>
        <time>2021-05-18T07:13:44Z</time>
      </trkpt>
      <trkpt lat="41.7361140" lon="-8.8731530">
        <ele>5.4</ele>
        <time>2021-05-18T07:13:45Z</time>
      </trkpt>
      <trkpt lat="41.7361350" lon="-8.8731580">
        <ele>5.4</ele>
        <time>2021-05-18T07:13:46Z</time>
      </trkpt>
      <trkpt lat="41.7361440" lon="-8.8731610">
        <ele>5.4</ele>
        <time>2021-05-18T07:13:47Z</time>
      </trkpt>
      <trkpt lat="41.7361530" lon="-8.8731630">
        <ele>5.3</ele>
        <time>2021-05-18T07:13:48Z</time>
      </trkpt>
      <trkpt lat="41.7361650" lon="-8.8731640">
        <ele>5.3</ele>
        <time>2021-05-18T07:13:49Z</time>
      </trkpt>
      <trkpt lat="41.7361800" lon="-8.8731690">
        <ele>5.3</ele>
        <time>2021-05-18T07:13:50Z</time>
      </trkpt>
      <trkpt lat="41.7361970" lon="-8.8731700">
        <ele>5.3</ele>
        <time>2021-05-18T07:13:51Z</time>
      </trkpt>
      <trkpt lat="41.7362110" lon="-8.8731770">
        <ele>5.3</ele>
        <time>2021-05-18T07:13:52Z</time>
      </trkpt>
      <trkpt lat="41.7362260" lon="-8.8731780">
        <ele>5.2</ele>
        <time>2021-05-18T07:13:53Z</time>
      </trkpt>
      <trkpt lat="41.7362380" lon="-8.8731840">
        <ele>5.2</ele>
        <time>2021-05-18T07:13:54Z</time>
      </trkpt>
      <trkpt lat="41.7362540" lon="-8.8731870">
        <ele>5.2</ele>
        <time>2021-05-18T07:13:55Z</time>
      </trkpt>
      <trkpt lat="41.7362690" lon="-8.8731860">
        <ele>5.2</ele>
        <time>2021-05-18T07:13:56Z</time>
      </trkpt>
      <trkpt lat="41.7362820" lon="-8.8731920">
        <ele>5.2</ele>
        <time>2021-05-18T07:13:57Z</time>
      </trkpt>
      <trkpt lat="41.7362970" lon="-8.8731970">
        <ele>5.2</ele>
        <time>2021-05-18T07:13:58Z</time>
      </trkpt>
      <trkpt lat="41.7363090" lon="-8.8732020">
        <ele>5.2</ele>
        <time>2021-05-18T07:13:59Z</time>
      </trkpt>
      <trkpt lat="41.7363230" lon="-8.8732100">
        <ele>5.2</ele>
        <time>2021-05-18T07:14:00Z</time>
      </trkpt>
      <trkpt lat="41.7363410" lon="-8.8732070">
        <ele>5.2</ele>
        <time>2021-05-18T07:14:01Z</time>
      </trkpt>
      <trkpt lat="41.7363550" lon="-8.8732060">
        <ele>5.2</ele>
        <time>2021-05-18T07:14:02Z</time>
      </trkpt>
      <trkpt lat="41.7363680" lon="-8.8732100">
        <ele>5.2</ele>
        <time>2021-05-18T07:14:03Z</time>
      </trkpt>
      <trkpt lat="41.7363820" lon="-8.8732170">
        <ele>5.2</ele>
        <time>2021-05-18T07:14:04Z</time>
      </trkpt>
      <trkpt lat="41.7364040" lon="-8.8732240">
        <ele>5.2</ele>
        <time>2021-05-18T07:14:05Z</time>
      </trkpt>
      <trkpt lat="41.7364120" lon="-8.8732270">
        <ele>5.2</ele>
        <time>2021-05-18T07:14:06Z</time>
      </trkpt>
      <trkpt lat="41.7364210" lon="-8.8732310">
        <ele>5.2</ele>
        <time>2021-05-18T07:14:07Z</time>
      </trkpt>
      <trkpt lat="41.7364430" lon="-8.8732290">
        <ele>5.2</ele>
        <time>2021-05-18T07:14:08Z</time>
      </trkpt>
      <trkpt lat="41.7364530" lon="-8.8732330">
        <ele>5.2</ele>
        <time>2021-05-18T07:14:09Z</time>
      </trkpt>
      <trkpt lat="41.7364620" lon="-8.8732360">
        <ele>5.2</ele>
        <time>2021-05-18T07:14:10Z</time>
      </trkpt>
      <trkpt lat="41.7364750" lon="-8.8732420">
        <ele>5.2</ele>
        <time>2021-05-18T07:14:11Z</time>
      </trkpt>
      <trkpt lat="41.7364920" lon="-8.8732430">
        <ele>5.2</ele>
        <time>2021-05-18T07:14:12Z</time>
      </trkpt>
      <trkpt lat="41.7365100" lon="-8.8732520">
        <ele>5.2</ele>
        <time>2021-05-18T07:14:13Z</time>
      </trkpt>
      <trkpt lat="41.7365190" lon="-8.8732550">
        <ele>5.2</ele>
        <time>2021-05-18T07:14:14Z</time>
      </trkpt>
      <trkpt lat="41.7365290" lon="-8.8732590">
        <ele>5.2</ele>
        <time>2021-05-18T07:14:15Z</time>
      </trkpt>
      <trkpt lat="41.7365460" lon="-8.8732640">
        <ele>5.2</ele>
        <time>2021-05-18T07:14:16Z</time>
      </trkpt>
      <trkpt lat="41.7365590" lon="-8.8732720">
        <ele>5.2</ele>
        <time>2021-05-18T07:14:17Z</time>
      </trkpt>
      <trkpt lat="41.7365730" lon="-8.8732780">
        <ele>5.2</ele>
        <time>2021-05-18T07:14:18Z</time>
      </trkpt>
      <trkpt lat="41.7365830" lon="-8.8732920">
        <ele>5.2</ele>
        <time>2021-05-18T07:14:19Z</time>
      </trkpt>
      <trkpt lat="41.7365950" lon="-8.8732990">
        <ele>5.2</ele>
        <time>2021-05-18T07:14:20Z</time>
      </trkpt>
      <trkpt lat="41.7366100" lon="-8.8733030">
        <ele>5.2</ele>
        <time>2021-05-18T07:14:21Z</time>
      </trkpt>
      <trkpt lat="41.7366240" lon="-8.8733120">
        <ele>5.2</ele>
        <time>2021-05-18T07:14:22Z</time>
      </trkpt>
      <trkpt lat="41.7366370" lon="-8.8733120">
        <ele>5.2</ele>
        <time>2021-05-18T07:14:23Z</time>
      </trkpt>
      <trkpt lat="41.7366580" lon="-8.8733190">
        <ele>5.2</ele>
        <time>2021-05-18T07:14:24Z</time>
      </trkpt>
      <trkpt lat="41.7366670" lon="-8.8733240">
        <ele>5.2</ele>
        <time>2021-05-18T07:14:25Z</time>
      </trkpt>
      <trkpt lat="41.7366760" lon="-8.8733280">
        <ele>5.2</ele>
        <time>2021-05-18T07:14:26Z</time>
      </trkpt>
      <trkpt lat="41.7366870" lon="-8.8733350">
        <ele>5.2</ele>
        <time>2021-05-18T07:14:27Z</time>
      </trkpt>
      <trkpt lat="41.7367030" lon="-8.8733380">
        <ele>5.2</ele>
        <time>2021-05-18T07:14:28Z</time>
      </trkpt>
      <trkpt lat="41.7367160" lon="-8.8733460">
        <ele>5.2</ele>
        <time>2021-05-18T07:14:29Z</time>
      </trkpt>
      <trkpt lat="41.7367270" lon="-8.8733550">
        <ele>5.2</ele>
        <time>2021-05-18T07:14:30Z</time>
      </trkpt>
      <trkpt lat="41.7367410" lon="-8.8733610">
        <ele>5.2</ele>
        <time>2021-05-18T07:14:31Z</time>
      </trkpt>
      <trkpt lat="41.7367540" lon="-8.8733670">
        <ele>5.2</ele>
        <time>2021-05-18T07:14:32Z</time>
      </trkpt>
      <trkpt lat="41.7367650" lon="-8.8733750">
        <ele>5.2</ele>
        <time>2021-05-18T07:14:33Z</time>
      </trkpt>
      <trkpt lat="41.7367800" lon="-8.8733830">
        <ele>5.2</ele>
        <time>2021-05-18T07:14:34Z</time>
      </trkpt>
      <trkpt lat="41.7367950" lon="-8.8733900">
        <ele>5.2</ele>
        <time>2021-05-18T07:14:35Z</time>
      </trkpt>
      <trkpt lat="41.7368090" lon="-8.8733930">
        <ele>5.2</ele>
        <time>2021-05-18T07:14:36Z</time>
      </trkpt>
      <trkpt lat="41.7368240" lon="-8.8734000">
        <ele>5.2</ele>
        <time>2021-05-18T07:14:37Z</time>
      </trkpt>
      <trkpt lat="41.7368370" lon="-8.8734080">
        <ele>5.2</ele>
        <time>2021-05-18T07:14:38Z</time>
      </trkpt>
      <trkpt lat="41.7368510" lon="-8.8734110">
        <ele>5.2</ele>
        <time>2021-05-18T07:14:39Z</time>
      </trkpt>
      <trkpt lat="41.7368670" lon="-8.8734210">
        <ele>5.2</ele>
        <time>2021-05-18T07:14:40Z</time>
      </trkpt>
      <trkpt lat="41.7368820" lon="-8.8734280">
        <ele>5.2</ele>
        <time>2021-05-18T07:14:41Z</time>
      </trkpt>
      <trkpt lat="41.7368920" lon="-8.8734350">
        <ele>5.2</ele>
        <time>2021-05-18T07:14:42Z</time>
      </trkpt>
      <trkpt lat="41.7369080" lon="-8.8734390">
        <ele>5.2</ele>
        <time>2021-05-18T07:14:43Z</time>
      </trkpt>
      <trkpt lat="41.7369210" lon="-8.8734460">
        <ele>5.2</ele>
        <time>2021-05-18T07:14:44Z</time>
      </trkpt>
      <trkpt lat="41.7369440" lon="-8.8734540">
        <ele>5.2</ele>
        <time>2021-05-18T07:14:45Z</time>
      </trkpt>
      <trkpt lat="41.7369510" lon="-8.8734570">
        <ele>5.2</ele>
        <time>2021-05-18T07:14:46Z</time>
      </trkpt>
      <trkpt lat="41.7369590" lon="-8.8734610">
        <ele>5.2</ele>
        <time>2021-05-18T07:14:47Z</time>
      </trkpt>
      <trkpt lat="41.7369730" lon="-8.8734670">
        <ele>5.2</ele>
        <time>2021-05-18T07:14:48Z</time>
      </trkpt>
      <trkpt lat="41.7369840" lon="-8.8734770">
        <ele>5.2</ele>
        <time>2021-05-18T07:14:49Z</time>
      </trkpt>
      <trkpt lat="41.7369970" lon="-8.8734850">
        <ele>5.2</ele>
        <time>2021-05-18T07:14:50Z</time>
      </trkpt>
      <trkpt lat="41.7370090" lon="-8.8734910">
        <ele>5.2</ele>
        <time>2021-05-18T07:14:51Z</time>
      </trkpt>
      <trkpt lat="41.7370250" lon="-8.8734970">
        <ele>5.2</ele>
        <time>2021-05-18T07:14:52Z</time>
      </trkpt>
      <trkpt lat="41.7370370" lon="-8.8735070">
        <ele>5.2</ele>
        <time>2021-05-18T07:14:53Z</time>
      </trkpt>
      <trkpt lat="41.7370590" lon="-8.8735170">
        <ele>5.2</ele>
        <time>2021-05-18T07:14:54Z</time>
      </trkpt>
      <trkpt lat="41.7370670" lon="-8.8735210">
        <ele>5.2</ele>
        <time>2021-05-18T07:14:55Z</time>
      </trkpt>
      <trkpt lat="41.7370740" lon="-8.8735260">
        <ele>5.2</ele>
        <time>2021-05-18T07:14:56Z</time>
      </trkpt>
      <trkpt lat="41.7370900" lon="-8.8735300">
        <ele>5.2</ele>
        <time>2021-05-18T07:14:57Z</time>
      </trkpt>
      <trkpt lat="41.7371070" lon="-8.8735370">
        <ele>5.2</ele>
        <time>2021-05-18T07:14:58Z</time>
      </trkpt>
      <trkpt lat="41.7371220" lon="-8.8735440">
        <ele>5.2</ele>
        <time>2021-05-18T07:14:59Z</time>
      </trkpt>
      <trkpt lat="41.7371370" lon="-8.8735490">
        <ele>5.2</ele>
        <time>2021-05-18T07:15:00Z</time>
      </trkpt>
      <trkpt lat="41.7371570" lon="-8.8735590">
        <ele>5.2</ele>
        <time>2021-05-18T07:15:01Z</time>
      </trkpt>
      <trkpt lat="41.7371640" lon="-8.8735640">
        <ele>5.2</ele>
        <time>2021-05-18T07:15:02Z</time>
      </trkpt>
      <trkpt lat="41.7371720" lon="-8.8735680">
        <ele>5.2</ele>
        <time>2021-05-18T07:15:03Z</time>
      </trkpt>
      <trkpt lat="41.7371840" lon="-8.8735770">
        <ele>5.2</ele>
        <time>2021-05-18T07:15:04Z</time>
      </trkpt>
      <trkpt lat="41.7371990" lon="-8.8735800">
        <ele>5.2</ele>
        <time>2021-05-18T07:15:05Z</time>
      </trkpt>
      <trkpt lat="41.7372120" lon="-8.8735880">
        <ele>5.2</ele>
        <time>2021-05-18T07:15:06Z</time>
      </trkpt>
      <trkpt lat="41.7372260" lon="-8.8735920">
        <ele>5.2</ele>
        <time>2021-05-18T07:15:07Z</time>
      </trkpt>
      <trkpt lat="41.7372380" lon="-8.8735970">
        <ele>5.2</ele>
        <time>2021-05-18T07:15:08Z</time>
      </trkpt>
      <trkpt lat="41.7372510" lon="-8.8736060">
        <ele>5.2</ele>
        <time>2021-05-18T07:15:09Z</time>
      </trkpt>
      <trkpt lat="41.7372650" lon="-8.8736130">
        <ele>5.2</ele>
        <time>2021-05-18T07:15:10Z</time>
      </trkpt>
      <trkpt lat="41.7372780" lon="-8.8736210">
        <ele>5.2</ele>
        <time>2021-05-18T07:15:11Z</time>
      </trkpt>
      <trkpt lat="41.7372900" lon="-8.8736310">
        <ele>5.2</ele>
        <time>2021-05-18T07:15:12Z</time>
      </trkpt>
      <trkpt lat="41.7373050" lon="-8.8736340">
        <ele>5.2</ele>
        <time>2021-05-18T07:15:13Z</time>
      </trkpt>
      <trkpt lat="41.7373180" lon="-8.8736420">
        <ele>5.2</ele>
        <time>2021-05-18T07:15:14Z</time>
      </trkpt>
      <trkpt lat="41.7373310" lon="-8.8736480">
        <ele>5.2</ele>
        <time>2021-05-18T07:15:15Z</time>
      </trkpt>
      <trkpt lat="41.7373490" lon="-8.8736500">
        <ele>5.2</ele>
        <time>2021-05-18T07:15:16Z</time>
      </trkpt>
      <trkpt lat="41.7373630" lon="-8.8736600">
        <ele>5.2</ele>
        <time>2021-05-18T07:15:17Z</time>
      </trkpt>
      <trkpt lat="41.7373780" lon="-8.8736710">
        <ele>5.2</ele>
        <time>2021-05-18T07:15:18Z</time>
      </trkpt>
      <trkpt lat="41.7373880" lon="-8.8736820">
        <ele>5.1</ele>
        <time>2021-05-18T07:15:19Z</time>
      </trkpt>
      <trkpt lat="41.7374020" lon="-8.8736870">
        <ele>5.1</ele>
        <time>2021-05-18T07:15:20Z</time>
      </trkpt>
      <trkpt lat="41.7374160" lon="-8.8736930">
        <ele>5.1</ele>
        <time>2021-05-18T07:15:21Z</time>
      </trkpt>
      <trkpt lat="41.7374300" lon="-8.8736990">
        <ele>5.1</ele>
        <time>2021-05-18T07:15:22Z</time>
      </trkpt>
      <trkpt lat="41.7374460" lon="-8.8737090">
        <ele>5.1</ele>
        <time>2021-05-18T07:15:23Z</time>
      </trkpt>
      <trkpt lat="41.7374580" lon="-8.8737180">
        <ele>5.1</ele>
        <time>2021-05-18T07:15:24Z</time>
      </trkpt>
      <trkpt lat="41.7374720" lon="-8.8737180">
        <ele>5.1</ele>
        <time>2021-05-18T07:15:25Z</time>
      </trkpt>
      <trkpt lat="41.7374860" lon="-8.8737230">
        <ele>5.1</ele>
        <time>2021-05-18T07:15:26Z</time>
      </trkpt>
      <trkpt lat="41.7374980" lon="-8.8737300">
        <ele>5.1</ele>
        <time>2021-05-18T07:15:27Z</time>
      </trkpt>
      <trkpt lat="41.7375150" lon="-8.8737450">
        <ele>5.1</ele>
        <time>2021-05-18T07:15:28Z</time>
      </trkpt>
      <trkpt lat="41.7375240" lon="-8.8737510">
        <ele>5.1</ele>
        <time>2021-05-18T07:15:29Z</time>
      </trkpt>
      <trkpt lat="41.7375330" lon="-8.8737570">
        <ele>5.1</ele>
        <time>2021-05-18T07:15:30Z</time>
      </trkpt>
      <trkpt lat="41.7375470" lon="-8.8737670">
        <ele>5.1</ele>
        <time>2021-05-18T07:15:31Z</time>
      </trkpt>
      <trkpt lat="41.7375600" lon="-8.8737750">
        <ele>5.1</ele>
        <time>2021-05-18T07:15:32Z</time>
      </trkpt>
      <trkpt lat="41.7375790" lon="-8.8737840">
        <ele>5.1</ele>
        <time>2021-05-18T07:15:33Z</time>
      </trkpt>
      <trkpt lat="41.7375880" lon="-8.8737890">
        <ele>5.1</ele>
        <time>2021-05-18T07:15:34Z</time>
      </trkpt>
      <trkpt lat="41.7375960" lon="-8.8737930">
        <ele>5.1</ele>
        <time>2021-05-18T07:15:35Z</time>
      </trkpt>
      <trkpt lat="41.7376090" lon="-8.8738050">
        <ele>5.1</ele>
        <time>2021-05-18T07:15:36Z</time>
      </trkpt>
      <trkpt lat="41.7376220" lon="-8.8738130">
        <ele>5.1</ele>
        <time>2021-05-18T07:15:37Z</time>
      </trkpt>
      <trkpt lat="41.7376320" lon="-8.8738210">
        <ele>5.1</ele>
        <time>2021-05-18T07:15:38Z</time>
      </trkpt>
      <trkpt lat="41.7376460" lon="-8.8738320">
        <ele>5.1</ele>
        <time>2021-05-18T07:15:39Z</time>
      </trkpt>
      <trkpt lat="41.7376620" lon="-8.8738500">
        <ele>5.1</ele>
        <time>2021-05-18T07:15:40Z</time>
      </trkpt>
      <trkpt lat="41.7376690" lon="-8.8738560">
        <ele>5.1</ele>
        <time>2021-05-18T07:15:41Z</time>
      </trkpt>
      <trkpt lat="41.7376770" lon="-8.8738620">
        <ele>5.1</ele>
        <time>2021-05-18T07:15:42Z</time>
      </trkpt>
      <trkpt lat="41.7376950" lon="-8.8738670">
        <ele>5.1</ele>
        <time>2021-05-18T07:15:43Z</time>
      </trkpt>
      <trkpt lat="41.7377070" lon="-8.8738780">
        <ele>5.1</ele>
        <time>2021-05-18T07:15:44Z</time>
      </trkpt>
      <trkpt lat="41.7377240" lon="-8.8738930">
        <ele>5.1</ele>
        <time>2021-05-18T07:15:45Z</time>
      </trkpt>
      <trkpt lat="41.7377330" lon="-8.8738990">
        <ele>5.1</ele>
        <time>2021-05-18T07:15:46Z</time>
      </trkpt>
      <trkpt lat="41.7377410" lon="-8.8739040">
        <ele>5.1</ele>
        <time>2021-05-18T07:15:47Z</time>
      </trkpt>
      <trkpt lat="41.7377560" lon="-8.8739110">
        <ele>5.1</ele>
        <time>2021-05-18T07:15:48Z</time>
      </trkpt>
      <trkpt lat="41.7377650" lon="-8.8739230">
        <ele>5.1</ele>
        <time>2021-05-18T07:15:49Z</time>
      </trkpt>
      <trkpt lat="41.7377780" lon="-8.8739340">
        <ele>5.1</ele>
        <time>2021-05-18T07:15:50Z</time>
      </trkpt>
      <trkpt lat="41.7377910" lon="-8.8739410">
        <ele>5.0</ele>
        <time>2021-05-18T07:15:51Z</time>
      </trkpt>
      <trkpt lat="41.7378040" lon="-8.8739490">
        <ele>5.0</ele>
        <time>2021-05-18T07:15:52Z</time>
      </trkpt>
      <trkpt lat="41.7378170" lon="-8.8739590">
        <ele>5.0</ele>
        <time>2021-05-18T07:15:53Z</time>
      </trkpt>
      <trkpt lat="41.7378290" lon="-8.8739670">
        <ele>5.0</ele>
        <time>2021-05-18T07:15:54Z</time>
      </trkpt>
      <trkpt lat="41.7378420" lon="-8.8739750">
        <ele>5.0</ele>
        <time>2021-05-18T07:15:55Z</time>
      </trkpt>
      <trkpt lat="41.7378560" lon="-8.8739840">
        <ele>5.0</ele>
        <time>2021-05-18T07:15:56Z</time>
      </trkpt>
      <trkpt lat="41.7378690" lon="-8.8739930">
        <ele>5.0</ele>
        <time>2021-05-18T07:15:57Z</time>
      </trkpt>
      <trkpt lat="41.7378850" lon="-8.8740040">
        <ele>5.0</ele>
        <time>2021-05-18T07:15:58Z</time>
      </trkpt>
      <trkpt lat="41.7378990" lon="-8.8740100">
        <ele>5.0</ele>
        <time>2021-05-18T07:15:59Z</time>
      </trkpt>
      <trkpt lat="41.7379110" lon="-8.8740180">
        <ele>5.0</ele>
        <time>2021-05-18T07:16:00Z</time>
      </trkpt>
      <trkpt lat="41.7379250" lon="-8.8740250">
        <ele>5.0</ele>
        <time>2021-05-18T07:16:01Z</time>
      </trkpt>
      <trkpt lat="41.7379370" lon="-8.8740400">
        <ele>5.0</ele>
        <time>2021-05-18T07:16:02Z</time>
      </trkpt>
      <trkpt lat="41.7379520" lon="-8.8740500">
        <ele>5.0</ele>
        <time>2021-05-18T07:16:03Z</time>
      </trkpt>
      <trkpt lat="41.7379640" lon="-8.8740620">
        <ele>4.9</ele>
        <time>2021-05-18T07:16:04Z</time>
      </trkpt>
      <trkpt lat="41.7379790" lon="-8.8740740">
        <ele>4.9</ele>
        <time>2021-05-18T07:16:05Z</time>
      </trkpt>
      <trkpt lat="41.7379920" lon="-8.8740820">
        <ele>4.9</ele>
        <time>2021-05-18T07:16:06Z</time>
      </trkpt>
      <trkpt lat="41.7380040" lon="-8.8740930">
        <ele>4.9</ele>
        <time>2021-05-18T07:16:07Z</time>
      </trkpt>
      <trkpt lat="41.7380190" lon="-8.8740990">
        <ele>4.9</ele>
        <time>2021-05-18T07:16:08Z</time>
      </trkpt>
      <trkpt lat="41.7380330" lon="-8.8741090">
        <ele>4.9</ele>
        <time>2021-05-18T07:16:09Z</time>
      </trkpt>
      <trkpt lat="41.7380470" lon="-8.8741180">
        <ele>4.9</ele>
        <time>2021-05-18T07:16:10Z</time>
      </trkpt>
      <trkpt lat="41.7380620" lon="-8.8741210">
        <ele>4.9</ele>
        <time>2021-05-18T07:16:11Z</time>
      </trkpt>
      <trkpt lat="41.7380790" lon="-8.8741380">
        <ele>4.9</ele>
        <time>2021-05-18T07:16:12Z</time>
      </trkpt>
      <trkpt lat="41.7380880" lon="-8.8741440">
        <ele>4.9</ele>
        <time>2021-05-18T07:16:13Z</time>
      </trkpt>
      <trkpt lat="41.7380960" lon="-8.8741510">
        <ele>4.9</ele>
        <time>2021-05-18T07:16:14Z</time>
      </trkpt>
      <trkpt lat="41.7381130" lon="-8.8741550">
        <ele>4.9</ele>
        <time>2021-05-18T07:16:15Z</time>
      </trkpt>
      <trkpt lat="41.7381240" lon="-8.8741640">
        <ele>4.9</ele>
        <time>2021-05-18T07:16:16Z</time>
      </trkpt>
      <trkpt lat="41.7381370" lon="-8.8741750">
        <ele>4.8</ele>
        <time>2021-05-18T07:16:17Z</time>
      </trkpt>
      <trkpt lat="41.7381440" lon="-8.8741910">
        <ele>4.8</ele>
        <time>2021-05-18T07:16:18Z</time>
      </trkpt>
      <trkpt lat="41.7381590" lon="-8.8742020">
        <ele>4.8</ele>
        <time>2021-05-18T07:16:19Z</time>
      </trkpt>
      <trkpt lat="41.7381720" lon="-8.8742080">
        <ele>4.8</ele>
        <time>2021-05-18T07:16:20Z</time>
      </trkpt>
      <trkpt lat="41.7381890" lon="-8.8742160">
        <ele>4.8</ele>
        <time>2021-05-18T07:16:21Z</time>
      </trkpt>
      <trkpt lat="41.7382000" lon="-8.8742240">
        <ele>4.8</ele>
        <time>2021-05-18T07:16:22Z</time>
      </trkpt>
      <trkpt lat="41.7382140" lon="-8.8742320">
        <ele>4.8</ele>
        <time>2021-05-18T07:16:23Z</time>
      </trkpt>
      <trkpt lat="41.7382200" lon="-8.8742430">
        <ele>4.8</ele>
        <time>2021-05-18T07:16:24Z</time>
      </trkpt>
      <trkpt lat="41.7382300" lon="-8.8742500">
        <ele>4.8</ele>
        <time>2021-05-18T07:16:25Z</time>
      </trkpt>
      <trkpt lat="41.7382430" lon="-8.8742640">
        <ele>4.8</ele>
        <time>2021-05-18T07:16:26Z</time>
      </trkpt>
      <trkpt lat="41.7382580" lon="-8.8742680">
        <ele>4.8</ele>
        <time>2021-05-18T07:16:27Z</time>
      </trkpt>
      <trkpt lat="41.7382740" lon="-8.8742740">
        <ele>4.8</ele>
        <time>2021-05-18T07:16:28Z</time>
      </trkpt>
      <trkpt lat="41.7382840" lon="-8.8742840">
        <ele>4.8</ele>
        <time>2021-05-18T07:16:29Z</time>
      </trkpt>
      <trkpt lat="41.7382980" lon="-8.8742910">
        <ele>4.8</ele>
        <time>2021-05-18T07:16:30Z</time>
      </trkpt>
      <trkpt lat="41.7383080" lon="-8.8743020">
        <ele>4.9</ele>
        <time>2021-05-18T07:16:31Z</time>
      </trkpt>
      <trkpt lat="41.7383180" lon="-8.8743100">
        <ele>4.9</ele>
        <time>2021-05-18T07:16:32Z</time>
      </trkpt>
      <trkpt lat="41.7383340" lon="-8.8743150">
        <ele>4.9</ele>
        <time>2021-05-18T07:16:33Z</time>
      </trkpt>
      <trkpt lat="41.7383490" lon="-8.8743250">
        <ele>4.9</ele>
        <time>2021-05-18T07:16:34Z</time>
      </trkpt>
      <trkpt lat="41.7383630" lon="-8.8743380">
        <ele>4.9</ele>
        <time>2021-05-18T07:16:35Z</time>
      </trkpt>
      <trkpt lat="41.7383770" lon="-8.8743410">
        <ele>4.9</ele>
        <time>2021-05-18T07:16:36Z</time>
      </trkpt>
      <trkpt lat="41.7383880" lon="-8.8743520">
        <ele>4.9</ele>
        <time>2021-05-18T07:16:37Z</time>
      </trkpt>
      <trkpt lat="41.7384040" lon="-8.8743560">
        <ele>4.9</ele>
        <time>2021-05-18T07:16:38Z</time>
      </trkpt>
      <trkpt lat="41.7384180" lon="-8.8743560">
        <ele>4.9</ele>
        <time>2021-05-18T07:16:39Z</time>
      </trkpt>
      <trkpt lat="41.7384320" lon="-8.8743660">
        <ele>4.9</ele>
        <time>2021-05-18T07:16:40Z</time>
      </trkpt>
      <trkpt lat="41.7384460" lon="-8.8743650">
        <ele>4.9</ele>
        <time>2021-05-18T07:16:41Z</time>
      </trkpt>
      <trkpt lat="41.7384580" lon="-8.8743660">
        <ele>4.9</ele>
        <time>2021-05-18T07:16:42Z</time>
      </trkpt>
      <trkpt lat="41.7384750" lon="-8.8743690">
        <ele>4.9</ele>
        <time>2021-05-18T07:16:43Z</time>
      </trkpt>
      <trkpt lat="41.7384960" lon="-8.8743700">
        <ele>4.9</ele>
        <time>2021-05-18T07:16:44Z</time>
      </trkpt>
      <trkpt lat="41.7385050" lon="-8.8743720">
        <ele>4.9</ele>
        <time>2021-05-18T07:16:45Z</time>
      </trkpt>
      <trkpt lat="41.7385150" lon="-8.8743740">
        <ele>4.9</ele>
        <time>2021-05-18T07:16:46Z</time>
      </trkpt>
      <trkpt lat="41.7385280" lon="-8.8743760">
        <ele>4.9</ele>
        <time>2021-05-18T07:16:47Z</time>
      </trkpt>
      <trkpt lat="41.7385440" lon="-8.8743760">
        <ele>4.9</ele>
        <time>2021-05-18T07:16:48Z</time>
      </trkpt>
      <trkpt lat="41.7385650" lon="-8.8743810">
        <ele>4.9</ele>
        <time>2021-05-18T07:16:49Z</time>
      </trkpt>
      <trkpt lat="41.7385740" lon="-8.8743800">
        <ele>4.9</ele>
        <time>2021-05-18T07:16:50Z</time>
      </trkpt>
      <trkpt lat="41.7385840" lon="-8.8743800">
        <ele>4.9</ele>
        <time>2021-05-18T07:16:51Z</time>
      </trkpt>
      <trkpt lat="41.7385980" lon="-8.8743880">
        <ele>4.9</ele>
        <time>2021-05-18T07:16:52Z</time>
      </trkpt>
      <trkpt lat="41.7386130" lon="-8.8743890">
        <ele>4.9</ele>
        <time>2021-05-18T07:16:53Z</time>
      </trkpt>
      <trkpt lat="41.7386350" lon="-8.8743950">
        <ele>4.9</ele>
        <time>2021-05-18T07:16:54Z</time>
      </trkpt>
      <trkpt lat="41.7386450" lon="-8.8743970">
        <ele>4.9</ele>
        <time>2021-05-18T07:16:55Z</time>
      </trkpt>
      <trkpt lat="41.7386550" lon="-8.8743980">
        <ele>4.9</ele>
        <time>2021-05-18T07:16:56Z</time>
      </trkpt>
      <trkpt lat="41.7386680" lon="-8.8744060">
        <ele>4.9</ele>
        <time>2021-05-18T07:16:57Z</time>
      </trkpt>
      <trkpt lat="41.7386870" lon="-8.8744030">
        <ele>4.9</ele>
        <time>2021-05-18T07:16:58Z</time>
      </trkpt>
      <trkpt lat="41.7387090" lon="-8.8744090">
        <ele>5.0</ele>
        <time>2021-05-18T07:16:59Z</time>
      </trkpt>
      <trkpt lat="41.7387180" lon="-8.8744110">
        <ele>5.0</ele>
        <time>2021-05-18T07:17:00Z</time>
      </trkpt>
      <trkpt lat="41.7387270" lon="-8.8744140">
        <ele>5.0</ele>
        <time>2021-05-18T07:17:01Z</time>
      </trkpt>
      <trkpt lat="41.7387500" lon="-8.8744220">
        <ele>5.0</ele>
        <time>2021-05-18T07:17:02Z</time>
      </trkpt>
      <trkpt lat="41.7387610" lon="-8.8744230">
        <ele>5.0</ele>
        <time>2021-05-18T07:17:03Z</time>
      </trkpt>
      <trkpt lat="41.7387710" lon="-8.8744250">
        <ele>5.0</ele>
        <time>2021-05-18T07:17:04Z</time>
      </trkpt>
      <trkpt lat="41.7387860" lon="-8.8744220">
        <ele>5.0</ele>
        <time>2021-05-18T07:17:05Z</time>
      </trkpt>
      <trkpt lat="41.7388010" lon="-8.8744280">
        <ele>5.0</ele>
        <time>2021-05-18T07:17:06Z</time>
      </trkpt>
      <trkpt lat="41.7388220" lon="-8.8744290">
        <ele>5.0</ele>
        <time>2021-05-18T07:17:07Z</time>
      </trkpt>
      <trkpt lat="41.7388300" lon="-8.8744320">
        <ele>5.0</ele>
        <time>2021-05-18T07:17:08Z</time>
      </trkpt>
      <trkpt lat="41.7388380" lon="-8.8744350">
        <ele>5.0</ele>
        <time>2021-05-18T07:17:09Z</time>
      </trkpt>
      <trkpt lat="41.7388520" lon="-8.8744400">
        <ele>5.0</ele>
        <time>2021-05-18T07:17:10Z</time>
      </trkpt>
      <trkpt lat="41.7388680" lon="-8.8744410">
        <ele>5.0</ele>
        <time>2021-05-18T07:17:11Z</time>
      </trkpt>
      <trkpt lat="41.7388920" lon="-8.8744470">
        <ele>5.1</ele>
        <time>2021-05-18T07:17:12Z</time>
      </trkpt>
      <trkpt lat="41.7389000" lon="-8.8744480">
        <ele>5.1</ele>
        <time>2021-05-18T07:17:13Z</time>
      </trkpt>
      <trkpt lat="41.7389090" lon="-8.8744500">
        <ele>5.1</ele>
        <time>2021-05-18T07:17:14Z</time>
      </trkpt>
      <trkpt lat="41.7389210" lon="-8.8744490">
        <ele>5.1</ele>
        <time>2021-05-18T07:17:15Z</time>
      </trkpt>
      <trkpt lat="41.7389360" lon="-8.8744490">
        <ele>5.1</ele>
        <time>2021-05-18T07:17:16Z</time>
      </trkpt>
      <trkpt lat="41.7389580" lon="-8.8744540">
        <ele>5.1</ele>
        <time>2021-05-18T07:17:17Z</time>
      </trkpt>
      <trkpt lat="41.7389660" lon="-8.8744550">
        <ele>5.1</ele>
        <time>2021-05-18T07:17:18Z</time>
      </trkpt>
      <trkpt lat="41.7389750" lon="-8.8744570">
        <ele>5.1</ele>
        <time>2021-05-18T07:17:19Z</time>
      </trkpt>
      <trkpt lat="41.7389890" lon="-8.8744590">
        <ele>5.1</ele>
        <time>2021-05-18T07:17:20Z</time>
      </trkpt>
      <trkpt lat="41.7390050" lon="-8.8744640">
        <ele>5.2</ele>
        <time>2021-05-18T07:17:21Z</time>
      </trkpt>
      <trkpt lat="41.7390270" lon="-8.8744660">
        <ele>5.2</ele>
        <time>2021-05-18T07:17:22Z</time>
      </trkpt>
      <trkpt lat="41.7390360" lon="-8.8744680">
        <ele>5.2</ele>
        <time>2021-05-18T07:17:23Z</time>
      </trkpt>
      <trkpt lat="41.7390440" lon="-8.8744710">
        <ele>5.2</ele>
        <time>2021-05-18T07:17:24Z</time>
      </trkpt>
      <trkpt lat="41.7390600" lon="-8.8744720">
        <ele>5.2</ele>
        <time>2021-05-18T07:17:25Z</time>
      </trkpt>
      <trkpt lat="41.7390740" lon="-8.8744730">
        <ele>5.2</ele>
        <time>2021-05-18T07:17:26Z</time>
      </trkpt>
      <trkpt lat="41.7390970" lon="-8.8744770">
        <ele>5.2</ele>
        <time>2021-05-18T07:17:27Z</time>
      </trkpt>
      <trkpt lat="41.7391050" lon="-8.8744790">
        <ele>5.2</ele>
        <time>2021-05-18T07:17:28Z</time>
      </trkpt>
      <trkpt lat="41.7391130" lon="-8.8744800">
        <ele>5.3</ele>
        <time>2021-05-18T07:17:29Z</time>
      </trkpt>
      <trkpt lat="41.7391280" lon="-8.8744810">
        <ele>5.3</ele>
        <time>2021-05-18T07:17:30Z</time>
      </trkpt>
      <trkpt lat="41.7391470" lon="-8.8744810">
        <ele>5.3</ele>
        <time>2021-05-18T07:17:31Z</time>
      </trkpt>
      <trkpt lat="41.7391620" lon="-8.8744790">
        <ele>5.3</ele>
        <time>2021-05-18T07:17:32Z</time>
      </trkpt>
      <trkpt lat="41.7391780" lon="-8.8744790">
        <ele>5.3</ele>
        <time>2021-05-18T07:17:33Z</time>
      </trkpt>
      <trkpt lat="41.7391920" lon="-8.8744870">
        <ele>5.3</ele>
        <time>2021-05-18T07:17:34Z</time>
      </trkpt>
      <trkpt lat="41.7392060" lon="-8.8744920">
        <ele>5.4</ele>
        <time>2021-05-18T07:17:35Z</time>
      </trkpt>
      <trkpt lat="41.7392300" lon="-8.8744970">
        <ele>5.4</ele>
        <time>2021-05-18T07:17:36Z</time>
      </trkpt>
      <trkpt lat="41.7392390" lon="-8.8744990">
        <ele>5.4</ele>
        <time>2021-05-18T07:17:37Z</time>
      </trkpt>
      <trkpt lat="41.7392490" lon="-8.8745020">
        <ele>5.4</ele>
        <time>2021-05-18T07:17:38Z</time>
      </trkpt>
      <trkpt lat="41.7392630" lon="-8.8745100">
        <ele>5.4</ele>
        <time>2021-05-18T07:17:39Z</time>
      </trkpt>
      <trkpt lat="41.7392750" lon="-8.8745250">
        <ele>5.4</ele>
        <time>2021-05-18T07:17:40Z</time>
      </trkpt>
      <trkpt lat="41.7392850" lon="-8.8745380">
        <ele>5.5</ele>
        <time>2021-05-18T07:17:41Z</time>
      </trkpt>
      <trkpt lat="41.7392920" lon="-8.8745510">
        <ele>5.5</ele>
        <time>2021-05-18T07:17:42Z</time>
      </trkpt>
      <trkpt lat="41.7392910" lon="-8.8745670">
        <ele>5.5</ele>
        <time>2021-05-18T07:17:43Z</time>
      </trkpt>
      <trkpt lat="41.7392970" lon="-8.8745950">
        <ele>5.5</ele>
        <time>2021-05-18T07:17:44Z</time>
      </trkpt>
      <trkpt lat="41.7392990" lon="-8.8746050">
        <ele>5.5</ele>
        <time>2021-05-18T07:17:45Z</time>
      </trkpt>
      <trkpt lat="41.7393010" lon="-8.8746160">
        <ele>5.5</ele>
        <time>2021-05-18T07:17:46Z</time>
      </trkpt>
      <trkpt lat="41.7393060" lon="-8.8746460">
        <ele>5.5</ele>
        <time>2021-05-18T07:17:47Z</time>
      </trkpt>
      <trkpt lat="41.7393090" lon="-8.8746570">
        <ele>5.5</ele>
        <time>2021-05-18T07:17:48Z</time>
      </trkpt>
      <trkpt lat="41.7393130" lon="-8.8746680">
        <ele>5.5</ele>
        <time>2021-05-18T07:17:49Z</time>
      </trkpt>
      <trkpt lat="41.7393160" lon="-8.8746830">
        <ele>5.5</ele>
        <time>2021-05-18T07:17:50Z</time>
      </trkpt>
      <trkpt lat="41.7393240" lon="-8.8747010">
        <ele>5.5</ele>
        <time>2021-05-18T07:17:51Z</time>
      </trkpt>
      <trkpt lat="41.7393320" lon="-8.8747160">
        <ele>5.5</ele>
        <time>2021-05-18T07:17:52Z</time>
      </trkpt>
      <trkpt lat="41.7393430" lon="-8.8747280">
        <ele>5.5</ele>
        <time>2021-05-18T07:17:53Z</time>
      </trkpt>
      <trkpt lat="41.7393610" lon="-8.8747330">
        <ele>5.6</ele>
        <time>2021-05-18T07:17:54Z</time>
      </trkpt>
      <trkpt lat="41.7393770" lon="-8.8747320">
        <ele>5.6</ele>
        <time>2021-05-18T07:17:55Z</time>
      </trkpt>
      <trkpt lat="41.7393920" lon="-8.8747310">
        <ele>5.6</ele>
        <time>2021-05-18T07:17:56Z</time>
      </trkpt>
      <trkpt lat="41.7394070" lon="-8.8747270">
        <ele>5.6</ele>
        <time>2021-05-18T07:17:57Z</time>
      </trkpt>
      <trkpt lat="41.7394210" lon="-8.8747330">
        <ele>5.6</ele>
        <time>2021-05-18T07:17:58Z</time>
      </trkpt>
      <trkpt lat="41.7394370" lon="-8.8747330">
        <ele>5.6</ele>
        <time>2021-05-18T07:17:59Z</time>
      </trkpt>
      <trkpt lat="41.7394530" lon="-8.8747350">
        <ele>5.6</ele>
        <time>2021-05-18T07:18:00Z</time>
      </trkpt>
      <trkpt lat="41.7394650" lon="-8.8747400">
        <ele>5.6</ele>
        <time>2021-05-18T07:18:01Z</time>
      </trkpt>
      <trkpt lat="41.7394830" lon="-8.8747460">
        <ele>5.6</ele>
        <time>2021-05-18T07:18:02Z</time>
      </trkpt>
      <trkpt lat="41.7394990" lon="-8.8747510">
        <ele>5.6</ele>
        <time>2021-05-18T07:18:03Z</time>
      </trkpt>
      <trkpt lat="41.7395130" lon="-8.8747560">
        <ele>5.6</ele>
        <time>2021-05-18T07:18:04Z</time>
      </trkpt>
      <trkpt lat="41.7395290" lon="-8.8747610">
        <ele>5.6</ele>
        <time>2021-05-18T07:18:05Z</time>
      </trkpt>
      <trkpt lat="41.7395440" lon="-8.8747630">
        <ele>5.6</ele>
        <time>2021-05-18T07:18:06Z</time>
      </trkpt>
      <trkpt lat="41.7395590" lon="-8.8747690">
        <ele>5.7</ele>
        <time>2021-05-18T07:18:07Z</time>
      </trkpt>
      <trkpt lat="41.7395720" lon="-8.8747700">
        <ele>5.7</ele>
        <time>2021-05-18T07:18:08Z</time>
      </trkpt>
      <trkpt lat="41.7395880" lon="-8.8747720">
        <ele>5.7</ele>
        <time>2021-05-18T07:18:09Z</time>
      </trkpt>
      <trkpt lat="41.7396080" lon="-8.8747690">
        <ele>5.7</ele>
        <time>2021-05-18T07:18:10Z</time>
      </trkpt>
      <trkpt lat="41.7396180" lon="-8.8747690">
        <ele>5.7</ele>
        <time>2021-05-18T07:18:11Z</time>
      </trkpt>
      <trkpt lat="41.7396270" lon="-8.8747700">
        <ele>5.7</ele>
        <time>2021-05-18T07:18:12Z</time>
      </trkpt>
      <trkpt lat="41.7396400" lon="-8.8747740">
        <ele>5.7</ele>
        <time>2021-05-18T07:18:13Z</time>
      </trkpt>
      <trkpt lat="41.7396560" lon="-8.8747690">
        <ele>5.7</ele>
        <time>2021-05-18T07:18:14Z</time>
      </trkpt>
      <trkpt lat="41.7396760" lon="-8.8747570">
        <ele>5.7</ele>
        <time>2021-05-18T07:18:15Z</time>
      </trkpt>
      <trkpt lat="41.7396840" lon="-8.8747510">
        <ele>6.2</ele>
        <time>2021-05-18T07:18:16Z</time>
      </trkpt>
      <trkpt lat="41.7396910" lon="-8.8747460">
        <ele>6.2</ele>
        <time>2021-05-18T07:18:17Z</time>
      </trkpt>
      <trkpt lat="41.7397020" lon="-8.8747390">
        <ele>6.2</ele>
        <time>2021-05-18T07:18:18Z</time>
      </trkpt>
      <trkpt lat="41.7397140" lon="-8.8747310">
        <ele>6.3</ele>
        <time>2021-05-18T07:18:19Z</time>
      </trkpt>
      <trkpt lat="41.7397230" lon="-8.8747340">
        <ele>6.3</ele>
        <time>2021-05-18T07:18:20Z</time>
      </trkpt>
      <trkpt lat="41.7397320" lon="-8.8747540">
        <ele>6.3</ele>
        <time>2021-05-18T07:18:21Z</time>
      </trkpt>
      <trkpt lat="41.7397310" lon="-8.8747720">
        <ele>6.3</ele>
        <time>2021-05-18T07:18:22Z</time>
      </trkpt>
      <trkpt lat="41.7397270" lon="-8.8748000">
        <ele>6.4</ele>
        <time>2021-05-18T07:18:23Z</time>
      </trkpt>
      <trkpt lat="41.7397240" lon="-8.8748110">
        <ele>6.4</ele>
        <time>2021-05-18T07:18:24Z</time>
      </trkpt>
      <trkpt lat="41.7397220" lon="-8.8748230">
        <ele>6.4</ele>
        <time>2021-05-18T07:18:25Z</time>
      </trkpt>
      <trkpt lat="41.7397190" lon="-8.8748410">
        <ele>6.5</ele>
        <time>2021-05-18T07:18:26Z</time>
      </trkpt>
      <trkpt lat="41.7397150" lon="-8.8748660">
        <ele>6.5</ele>
        <time>2021-05-18T07:18:27Z</time>
      </trkpt>
      <trkpt lat="41.7397250" lon="-8.8748910">
        <ele>6.6</ele>
        <time>2021-05-18T07:18:28Z</time>
      </trkpt>
      <trkpt lat="41.7397330" lon="-8.8748990">
        <ele>6.6</ele>
        <time>2021-05-18T07:18:29Z</time>
      </trkpt>
      <trkpt lat="41.7397420" lon="-8.8749060">
        <ele>6.7</ele>
        <time>2021-05-18T07:18:30Z</time>
      </trkpt>
      <trkpt lat="41.7397590" lon="-8.8749110">
        <ele>6.7</ele>
        <time>2021-05-18T07:18:31Z</time>
      </trkpt>
      <trkpt lat="41.7397760" lon="-8.8749150">
        <ele>6.8</ele>
        <time>2021-05-18T07:18:32Z</time>
      </trkpt>
      <trkpt lat="41.7397900" lon="-8.8749220">
        <ele>6.9</ele>
        <time>2021-05-18T07:18:33Z</time>
      </trkpt>
      <trkpt lat="41.7398040" lon="-8.8749270">
        <ele>6.9</ele>
        <time>2021-05-18T07:18:34Z</time>
      </trkpt>
      <trkpt lat="41.7398170" lon="-8.8749300">
        <ele>7.0</ele>
        <time>2021-05-18T07:18:35Z</time>
      </trkpt>
      <trkpt lat="41.7398300" lon="-8.8749420">
        <ele>7.0</ele>
        <time>2021-05-18T07:18:36Z</time>
      </trkpt>
      <trkpt lat="41.7398430" lon="-8.8749470">
        <ele>7.1</ele>
        <time>2021-05-18T07:18:37Z</time>
      </trkpt>
      <trkpt lat="41.7398580" lon="-8.8749520">
        <ele>7.2</ele>
        <time>2021-05-18T07:18:38Z</time>
      </trkpt>
      <trkpt lat="41.7398720" lon="-8.8749570">
        <ele>7.3</ele>
        <time>2021-05-18T07:18:39Z</time>
      </trkpt>
      <trkpt lat="41.7398860" lon="-8.8749620">
        <ele>7.4</ele>
        <time>2021-05-18T07:18:40Z</time>
      </trkpt>
      <trkpt lat="41.7399000" lon="-8.8749670">
        <ele>7.4</ele>
        <time>2021-05-18T07:18:41Z</time>
      </trkpt>
      <trkpt lat="41.7399150" lon="-8.8749700">
        <ele>7.5</ele>
        <time>2021-05-18T07:18:42Z</time>
      </trkpt>
      <trkpt lat="41.7399310" lon="-8.8749770">
        <ele>7.6</ele>
        <time>2021-05-18T07:18:43Z</time>
      </trkpt>
      <trkpt lat="41.7399450" lon="-8.8749850">
        <ele>7.7</ele>
        <time>2021-05-18T07:18:44Z</time>
      </trkpt>
      <trkpt lat="41.7399590" lon="-8.8749950">
        <ele>7.9</ele>
        <time>2021-05-18T07:18:45Z</time>
      </trkpt>
      <trkpt lat="41.7399730" lon="-8.8749980">
        <ele>8.0</ele>
        <time>2021-05-18T07:18:46Z</time>
      </trkpt>
      <trkpt lat="41.7399890" lon="-8.8750020">
        <ele>8.1</ele>
        <time>2021-05-18T07:18:47Z</time>
      </trkpt>
      <trkpt lat="41.7400040" lon="-8.8750120">
        <ele>8.2</ele>
        <time>2021-05-18T07:18:48Z</time>
      </trkpt>
      <trkpt lat="41.7400170" lon="-8.8750150">
        <ele>8.3</ele>
        <time>2021-05-18T07:18:49Z</time>
      </trkpt>
      <trkpt lat="41.7400270" lon="-8.8750200">
        <ele>8.4</ele>
        <time>2021-05-18T07:18:50Z</time>
      </trkpt>
      <trkpt lat="41.7400340" lon="-8.8750290">
        <ele>8.4</ele>
        <time>2021-05-18T07:18:51Z</time>
      </trkpt>
      <trkpt lat="41.7400530" lon="-8.8750420">
        <ele>8.6</ele>
        <time>2021-05-18T07:18:52Z</time>
      </trkpt>
      <trkpt lat="41.7400620" lon="-8.8750490">
        <ele>8.7</ele>
        <time>2021-05-18T07:18:53Z</time>
      </trkpt>
      <trkpt lat="41.7400710" lon="-8.8750560">
        <ele>8.7</ele>
        <time>2021-05-18T07:18:54Z</time>
      </trkpt>
      <trkpt lat="41.7400780" lon="-8.8750600">
        <ele>8.8</ele>
        <time>2021-05-18T07:18:55Z</time>
      </trkpt>
      <trkpt lat="41.7400860" lon="-8.8750720">
        <ele>8.9</ele>
        <time>2021-05-18T07:18:56Z</time>
      </trkpt>
      <trkpt lat="41.7400950" lon="-8.8750830">
        <ele>9.0</ele>
        <time>2021-05-18T07:18:57Z</time>
      </trkpt>
      <trkpt lat="41.7401120" lon="-8.8750960">
        <ele>9.1</ele>
        <time>2021-05-18T07:18:58Z</time>
      </trkpt>
      <trkpt lat="41.7401200" lon="-8.8751010">
        <ele>9.2</ele>
        <time>2021-05-18T07:18:59Z</time>
      </trkpt>
      <trkpt lat="41.7401290" lon="-8.8751070">
        <ele>9.2</ele>
        <time>2021-05-18T07:19:00Z</time>
      </trkpt>
      <trkpt lat="41.7401390" lon="-8.8751170">
        <ele>9.3</ele>
        <time>2021-05-18T07:19:01Z</time>
      </trkpt>
      <trkpt lat="41.7401510" lon="-8.8751320">
        <ele>9.4</ele>
        <time>2021-05-18T07:19:02Z</time>
      </trkpt>
      <trkpt lat="41.7401630" lon="-8.8751440">
        <ele>9.5</ele>
        <time>2021-05-18T07:19:03Z</time>
      </trkpt>
      <trkpt lat="41.7401780" lon="-8.8751560">
        <ele>9.6</ele>
        <time>2021-05-18T07:19:04Z</time>
      </trkpt>
      <trkpt lat="41.7401890" lon="-8.8751620">
        <ele>9.6</ele>
        <time>2021-05-18T07:19:05Z</time>
      </trkpt>
      <trkpt lat="41.7402030" lon="-8.8751730">
        <ele>9.7</ele>
        <time>2021-05-18T07:19:06Z</time>
      </trkpt>
      <trkpt lat="41.7402130" lon="-8.8751840">
        <ele>9.7</ele>
        <time>2021-05-18T07:19:07Z</time>
      </trkpt>
      <trkpt lat="41.7402240" lon="-8.8751990">
        <ele>9.8</ele>
        <time>2021-05-18T07:19:08Z</time>
      </trkpt>
      <trkpt lat="41.7402340" lon="-8.8752130">
        <ele>9.8</ele>
        <time>2021-05-18T07:19:09Z</time>
      </trkpt>
      <trkpt lat="41.7402470" lon="-8.8752280">
        <ele>9.8</ele>
        <time>2021-05-18T07:19:10Z</time>
      </trkpt>
      <trkpt lat="41.7402590" lon="-8.8752430">
        <ele>9.9</ele>
        <time>2021-05-18T07:19:11Z</time>
      </trkpt>
      <trkpt lat="41.7402710" lon="-8.8752550">
        <ele>9.9</ele>
        <time>2021-05-18T07:19:12Z</time>
      </trkpt>
      <trkpt lat="41.7402830" lon="-8.8752680">
        <ele>9.9</ele>
        <time>2021-05-18T07:19:13Z</time>
      </trkpt>
      <trkpt lat="41.7402940" lon="-8.8752800">
        <ele>9.9</ele>
        <time>2021-05-18T07:19:14Z</time>
      </trkpt>
      <trkpt lat="41.7403030" lon="-8.8752930">
        <ele>9.9</ele>
        <time>2021-05-18T07:19:15Z</time>
      </trkpt>
      <trkpt lat="41.7403180" lon="-8.8753010">
        <ele>9.9</ele>
        <time>2021-05-18T07:19:16Z</time>
      </trkpt>
      <trkpt lat="41.7403290" lon="-8.8753140">
        <ele>9.9</ele>
        <time>2021-05-18T07:19:17Z</time>
      </trkpt>
      <trkpt lat="41.7403410" lon="-8.8753230">
        <ele>9.9</ele>
        <time>2021-05-18T07:19:18Z</time>
      </trkpt>
      <trkpt lat="41.7403530" lon="-8.8753300">
        <ele>9.9</ele>
        <time>2021-05-18T07:19:19Z</time>
      </trkpt>
      <trkpt lat="41.7403620" lon="-8.8753350">
        <ele>9.9</ele>
        <time>2021-05-18T07:19:20Z</time>
      </trkpt>
      <trkpt lat="41.7403690" lon="-8.8753470">
        <ele>9.9</ele>
        <time>2021-05-18T07:19:21Z</time>
      </trkpt>
      <trkpt lat="41.7403760" lon="-8.8753570">
        <ele>9.8</ele>
        <time>2021-05-18T07:19:22Z</time>
      </trkpt>
      <trkpt lat="41.7403890" lon="-8.8753730">
        <ele>9.8</ele>
        <time>2021-05-18T07:19:23Z</time>
      </trkpt>
      <trkpt lat="41.7404010" lon="-8.8753860">
        <ele>9.8</ele>
        <time>2021-05-18T07:19:24Z</time>
      </trkpt>
      <trkpt lat="41.7404140" lon="-8.8754020">
        <ele>9.8</ele>
        <time>2021-05-18T07:19:25Z</time>
      </trkpt>
      <trkpt lat="41.7404280" lon="-8.8754130">
        <ele>9.8</ele>
        <time>2021-05-18T07:19:26Z</time>
      </trkpt>
      <trkpt lat="41.7404400" lon="-8.8754270">
        <ele>9.8</ele>
        <time>2021-05-18T07:19:27Z</time>
      </trkpt>
      <trkpt lat="41.7404500" lon="-8.8754410">
        <ele>9.8</ele>
        <time>2021-05-18T07:19:28Z</time>
      </trkpt>
      <trkpt lat="41.7404610" lon="-8.8754550">
        <ele>9.8</ele>
        <time>2021-05-18T07:19:29Z</time>
      </trkpt>
      <trkpt lat="41.7404730" lon="-8.8754720">
        <ele>9.7</ele>
        <time>2021-05-18T07:19:30Z</time>
      </trkpt>
      <trkpt lat="41.7404800" lon="-8.8754860">
        <ele>9.7</ele>
        <time>2021-05-18T07:19:31Z</time>
      </trkpt>
      <trkpt lat="41.7404920" lon="-8.8755000">
        <ele>9.7</ele>
        <time>2021-05-18T07:19:32Z</time>
      </trkpt>
      <trkpt lat="41.7405020" lon="-8.8755140">
        <ele>9.7</ele>
        <time>2021-05-18T07:19:33Z</time>
      </trkpt>
      <trkpt lat="41.7405150" lon="-8.8755270">
        <ele>9.7</ele>
        <time>2021-05-18T07:19:34Z</time>
      </trkpt>
      <trkpt lat="41.7405260" lon="-8.8755400">
        <ele>9.7</ele>
        <time>2021-05-18T07:19:35Z</time>
      </trkpt>
      <trkpt lat="41.7405370" lon="-8.8755520">
        <ele>9.7</ele>
        <time>2021-05-18T07:19:36Z</time>
      </trkpt>
      <trkpt lat="41.7405490" lon="-8.8755630">
        <ele>9.7</ele>
        <time>2021-05-18T07:19:37Z</time>
      </trkpt>
      <trkpt lat="41.7405600" lon="-8.8755770">
        <ele>9.7</ele>
        <time>2021-05-18T07:19:38Z</time>
      </trkpt>
      <trkpt lat="41.7405750" lon="-8.8755860">
        <ele>9.6</ele>
        <time>2021-05-18T07:19:39Z</time>
      </trkpt>
      <trkpt lat="41.7405870" lon="-8.8755950">
        <ele>9.6</ele>
        <time>2021-05-18T07:19:40Z</time>
      </trkpt>
      <trkpt lat="41.7405960" lon="-8.8756110">
        <ele>9.6</ele>
        <time>2021-05-18T07:19:41Z</time>
      </trkpt>
      <trkpt lat="41.7406090" lon="-8.8756220">
        <ele>9.6</ele>
        <time>2021-05-18T07:19:42Z</time>
      </trkpt>
      <trkpt lat="41.7406210" lon="-8.8756320">
        <ele>9.6</ele>
        <time>2021-05-18T07:19:43Z</time>
      </trkpt>
      <trkpt lat="41.7406350" lon="-8.8756400">
        <ele>9.6</ele>
        <time>2021-05-18T07:19:44Z</time>
      </trkpt>
      <trkpt lat="41.7406450" lon="-8.8756560">
        <ele>9.6</ele>
        <time>2021-05-18T07:19:45Z</time>
      </trkpt>
      <trkpt lat="41.7406560" lon="-8.8756730">
        <ele>9.6</ele>
        <time>2021-05-18T07:19:46Z</time>
      </trkpt>
      <trkpt lat="41.7406690" lon="-8.8756830">
        <ele>9.6</ele>
        <time>2021-05-18T07:19:47Z</time>
      </trkpt>
      <trkpt lat="41.7406890" lon="-8.8756990">
        <ele>9.6</ele>
        <time>2021-05-18T07:19:48Z</time>
      </trkpt>
      <trkpt lat="41.7406980" lon="-8.8757080">
        <ele>9.6</ele>
        <time>2021-05-18T07:19:49Z</time>
      </trkpt>
      <trkpt lat="41.7407070" lon="-8.8757160">
        <ele>9.6</ele>
        <time>2021-05-18T07:19:50Z</time>
      </trkpt>
      <trkpt lat="41.7407180" lon="-8.8757270">
        <ele>9.6</ele>
        <time>2021-05-18T07:19:51Z</time>
      </trkpt>
      <trkpt lat="41.7407300" lon="-8.8757370">
        <ele>9.7</ele>
        <time>2021-05-18T07:19:52Z</time>
      </trkpt>
      <trkpt lat="41.7407410" lon="-8.8757490">
        <ele>9.7</ele>
        <time>2021-05-18T07:19:53Z</time>
      </trkpt>
      <trkpt lat="41.7407490" lon="-8.8757620">
        <ele>9.7</ele>
        <time>2021-05-18T07:19:54Z</time>
      </trkpt>
      <trkpt lat="41.7407630" lon="-8.8757750">
        <ele>9.7</ele>
        <time>2021-05-18T07:19:55Z</time>
      </trkpt>
      <trkpt lat="41.7407740" lon="-8.8757870">
        <ele>9.7</ele>
        <time>2021-05-18T07:19:56Z</time>
      </trkpt>
      <trkpt lat="41.7407830" lon="-8.8757990">
        <ele>9.7</ele>
        <time>2021-05-18T07:19:57Z</time>
      </trkpt>
      <trkpt lat="41.7407970" lon="-8.8758050">
        <ele>9.7</ele>
        <time>2021-05-18T07:19:58Z</time>
      </trkpt>
      <trkpt lat="41.7408140" lon="-8.8758200">
        <ele>9.8</ele>
        <time>2021-05-18T07:19:59Z</time>
      </trkpt>
      <trkpt lat="41.7408220" lon="-8.8758250">
        <ele>9.8</ele>
        <time>2021-05-18T07:20:00Z</time>
      </trkpt>
      <trkpt lat="41.7408290" lon="-8.8758310">
        <ele>9.8</ele>
        <time>2021-05-18T07:20:01Z</time>
      </trkpt>
      <trkpt lat="41.7408490" lon="-8.8758450">
        <ele>9.8</ele>
        <time>2021-05-18T07:20:02Z</time>
      </trkpt>
      <trkpt lat="41.7408570" lon="-8.8758530">
        <ele>9.8</ele>
        <time>2021-05-18T07:20:03Z</time>
      </trkpt>
      <trkpt lat="41.7408640" lon="-8.8758610">
        <ele>9.9</ele>
        <time>2021-05-18T07:20:04Z</time>
      </trkpt>
      <trkpt lat="41.7408760" lon="-8.8758740">
        <ele>9.9</ele>
        <time>2021-05-18T07:20:05Z</time>
      </trkpt>
      <trkpt lat="41.7408890" lon="-8.8758820">
        <ele>9.9</ele>
        <time>2021-05-18T07:20:06Z</time>
      </trkpt>
      <trkpt lat="41.7409050" lon="-8.8758870">
        <ele>9.9</ele>
        <time>2021-05-18T07:20:07Z</time>
      </trkpt>
      <trkpt lat="41.7409150" lon="-8.8759000">
        <ele>10.0</ele>
        <time>2021-05-18T07:20:08Z</time>
      </trkpt>
      <trkpt lat="41.7409360" lon="-8.8759140">
        <ele>10.0</ele>
        <time>2021-05-18T07:20:09Z</time>
      </trkpt>
      <trkpt lat="41.7409430" lon="-8.8759220">
        <ele>10.0</ele>
        <time>2021-05-18T07:20:10Z</time>
      </trkpt>
      <trkpt lat="41.7409510" lon="-8.8759300">
        <ele>10.1</ele>
        <time>2021-05-18T07:20:11Z</time>
      </trkpt>
      <trkpt lat="41.7409610" lon="-8.8759430">
        <ele>10.1</ele>
        <time>2021-05-18T07:20:12Z</time>
      </trkpt>
      <trkpt lat="41.7409750" lon="-8.8759500">
        <ele>10.1</ele>
        <time>2021-05-18T07:20:13Z</time>
      </trkpt>
      <trkpt lat="41.7409940" lon="-8.8759640">
        <ele>10.2</ele>
        <time>2021-05-18T07:20:14Z</time>
      </trkpt>
      <trkpt lat="41.7410000" lon="-8.8759720">
        <ele>10.2</ele>
        <time>2021-05-18T07:20:15Z</time>
      </trkpt>
      <trkpt lat="41.7410070" lon="-8.8759790">
        <ele>10.2</ele>
        <time>2021-05-18T07:20:16Z</time>
      </trkpt>
      <trkpt lat="41.7410210" lon="-8.8759850">
        <ele>10.3</ele>
        <time>2021-05-18T07:20:17Z</time>
      </trkpt>
      <trkpt lat="41.7410340" lon="-8.8759910">
        <ele>10.3</ele>
        <time>2021-05-18T07:20:18Z</time>
      </trkpt>
      <trkpt lat="41.7410430" lon="-8.8760070">
        <ele>10.4</ele>
        <time>2021-05-18T07:20:19Z</time>
      </trkpt>
      <trkpt lat="41.7410550" lon="-8.8760150">
        <ele>10.4</ele>
        <time>2021-05-18T07:20:20Z</time>
      </trkpt>
      <trkpt lat="41.7410730" lon="-8.8760270">
        <ele>10.4</ele>
        <time>2021-05-18T07:20:21Z</time>
      </trkpt>
      <trkpt lat="41.7410810" lon="-8.8760330">
        <ele>10.4</ele>
        <time>2021-05-18T07:20:22Z</time>
      </trkpt>
      <trkpt lat="41.7410880" lon="-8.8760380">
        <ele>10.4</ele>
        <time>2021-05-18T07:20:23Z</time>
      </trkpt>
      <trkpt lat="41.7410960" lon="-8.8760460">
        <ele>10.5</ele>
        <time>2021-05-18T07:20:24Z</time>
      </trkpt>
      <trkpt lat="41.7410970" lon="-8.8760460">
        <ele>10.5</ele>
        <time>2021-05-18T07:20:25Z</time>
      </trkpt>
      <trkpt lat="41.7410970" lon="-8.8760470">
        <ele>10.5</ele>
        <time>2021-05-18T07:20:26Z</time>
      </trkpt>
      <trkpt lat="41.7410980" lon="-8.8760470">
        <ele>10.5</ele>
        <time>2021-05-18T07:20:27Z</time>
      </trkpt>
      <trkpt lat="41.7410990" lon="-8.8760470">
        <ele>10.5</ele>
        <time>2021-05-18T07:20:28Z</time>
      </trkpt>
      <trkpt lat="41.7411000" lon="-8.8760470">
        <ele>10.5</ele>
        <time>2021-05-18T07:20:29Z</time>
      </trkpt>
      <trkpt lat="41.7411010" lon="-8.8760470">
        <ele>10.5</ele>
        <time>2021-05-18T07:20:30Z</time>
      </trkpt>
      <trkpt lat="41.7411020" lon="-8.8760470">
        <ele>10.5</ele>
        <time>2021-05-18T07:20:31Z</time>
      </trkpt>
      <trkpt lat="41.7411020" lon="-8.8760480">
        <ele>10.5</ele>
        <time>2021-05-18T07:20:32Z</time>
      </trkpt>
      <trkpt lat="41.7411030" lon="-8.8760480">
        <ele>10.5</ele>
        <time>2021-05-18T07:20:33Z</time>
      </trkpt>
      <trkpt lat="41.7411040" lon="-8.8760480">
        <ele>10.5</ele>
        <time>2021-05-18T07:20:34Z</time>
      </trkpt>
      <trkpt lat="41.7411050" lon="-8.8760480">
        <ele>10.5</ele>
        <time>2021-05-18T07:20:35Z</time>
      </trkpt>
      <trkpt lat="41.7411060" lon="-8.8760480">
        <ele>10.5</ele>
        <time>2021-05-18T07:20:36Z</time>
      </trkpt>
      <trkpt lat="41.7411070" lon="-8.8760480">
        <ele>10.5</ele>
        <time>2021-05-18T07:20:37Z</time>
      </trkpt>
      <trkpt lat="41.7411070" lon="-8.8760490">
        <ele>10.5</ele>
        <time>2021-05-18T07:20:38Z</time>
      </trkpt>
      <trkpt lat="41.7411080" lon="-8.8760490">
        <ele>10.5</ele>
        <time>2021-05-18T07:20:39Z</time>
      </trkpt>
      <trkpt lat="41.7411090" lon="-8.8760490">
        <ele>10.5</ele>
        <time>2021-05-18T07:20:40Z</time>
      </trkpt>
      <trkpt lat="41.7411100" lon="-8.8760490">
        <ele>10.5</ele>
        <time>2021-05-18T07:20:41Z</time>
      </trkpt>
      <trkpt lat="41.7411110" lon="-8.8760490">
        <ele>10.5</ele>
        <time>2021-05-18T07:20:42Z</time>
      </trkpt>
      <trkpt lat="41.7411110" lon="-8.8760500">
        <ele>10.5</ele>
        <time>2021-05-18T07:20:43Z</time>
      </trkpt>
      <trkpt lat="41.7411120" lon="-8.8760500">
        <ele>10.5</ele>
        <time>2021-05-18T07:20:44Z</time>
      </trkpt>
      <trkpt lat="41.7411130" lon="-8.8760500">
        <ele>10.5</ele>
        <time>2021-05-18T07:20:45Z</time>
      </trkpt>
      <trkpt lat="41.7411140" lon="-8.8760500">
        <ele>10.5</ele>
        <time>2021-05-18T07:20:46Z</time>
      </trkpt>
      <trkpt lat="41.7411150" lon="-8.8760500">
        <ele>10.5</ele>
        <time>2021-05-18T07:20:47Z</time>
      </trkpt>
      <trkpt lat="41.7411160" lon="-8.8760500">
        <ele>10.5</ele>
        <time>2021-05-18T07:20:48Z</time>
      </trkpt>
      <trkpt lat="41.7411160" lon="-8.8760510">
        <ele>10.5</ele>
        <time>2021-05-18T07:20:49Z</time>
      </trkpt>
      <trkpt lat="41.7411170" lon="-8.8760510">
        <ele>10.5</ele>
        <time>2021-05-18T07:20:50Z</time>
      </trkpt>
      <trkpt lat="41.7411180" lon="-8.8760510">
        <ele>10.5</ele>
        <time>2021-05-18T07:20:51Z</time>
      </trkpt>
      <trkpt lat="41.7411190" lon="-8.8760510">
        <ele>10.5</ele>
        <time>2021-05-18T07:20:52Z</time>
      </trkpt>
      <trkpt lat="41.7411200" lon="-8.8760510">
        <ele>10.5</ele>
        <time>2021-05-18T07:20:53Z</time>
      </trkpt>
      <trkpt lat="41.7411210" lon="-8.8760510">
        <ele>10.5</ele>
        <time>2021-05-18T07:20:54Z</time>
      </trkpt>
      <trkpt lat="41.7411210" lon="-8.8760520">
        <ele>10.5</ele>
        <time>2021-05-18T07:20:55Z</time>
      </trkpt>
      <trkpt lat="41.7411220" lon="-8.8760520">
        <ele>10.5</ele>
        <time>2021-05-18T07:20:56Z</time>
      </trkpt>
      <trkpt lat="41.7411230" lon="-8.8760520">
        <ele>10.5</ele>
        <time>2021-05-18T07:20:57Z</time>
      </trkpt>
      <trkpt lat="41.7411420" lon="-8.8760660">
        <ele>10.5</ele>
        <time>2021-05-18T07:20:58Z</time>
      </trkpt>
      <trkpt lat="41.7411480" lon="-8.8760720">
        <ele>10.5</ele>
        <time>2021-05-18T07:20:59Z</time>
      </trkpt>
      <trkpt lat="41.7411550" lon="-8.8760770">
        <ele>10.5</ele>
        <time>2021-05-18T07:21:00Z</time>
      </trkpt>
      <trkpt lat="41.7411710" lon="-8.8760870">
        <ele>10.6</ele>
        <time>2021-05-18T07:21:01Z</time>
      </trkpt>
      <trkpt lat="41.7411830" lon="-8.8760970">
        <ele>10.6</ele>
        <time>2021-05-18T07:21:02Z</time>
      </trkpt>
      <trkpt lat="41.7411900" lon="-8.8761110">
        <ele>10.6</ele>
        <time>2021-05-18T07:21:03Z</time>
      </trkpt>
      <trkpt lat="41.7412050" lon="-8.8761270">
        <ele>10.5</ele>
        <time>2021-05-18T07:21:04Z</time>
      </trkpt>
      <trkpt lat="41.7412150" lon="-8.8761380">
        <ele>10.5</ele>
        <time>2021-05-18T07:21:05Z</time>
      </trkpt>
      <trkpt lat="41.7412290" lon="-8.8761450">
        <ele>10.5</ele>
        <time>2021-05-18T07:21:06Z</time>
      </trkpt>
      <trkpt lat="41.7412420" lon="-8.8761560">
        <ele>10.5</ele>
        <time>2021-05-18T07:21:07Z</time>
      </trkpt>
      <trkpt lat="41.7412560" lon="-8.8761680">
        <ele>10.5</ele>
        <time>2021-05-18T07:21:08Z</time>
      </trkpt>
      <trkpt lat="41.7412660" lon="-8.8761760">
        <ele>10.5</ele>
        <time>2021-05-18T07:21:09Z</time>
      </trkpt>
      <trkpt lat="41.7412790" lon="-8.8761880">
        <ele>10.4</ele>
        <time>2021-05-18T07:21:10Z</time>
      </trkpt>
      <trkpt lat="41.7412940" lon="-8.8761960">
        <ele>10.4</ele>
        <time>2021-05-18T07:21:11Z</time>
      </trkpt>
      <trkpt lat="41.7413060" lon="-8.8762070">
        <ele>10.3</ele>
        <time>2021-05-18T07:21:12Z</time>
      </trkpt>
      <trkpt lat="41.7413190" lon="-8.8762190">
        <ele>10.3</ele>
        <time>2021-05-18T07:21:13Z</time>
      </trkpt>
      <trkpt lat="41.7413310" lon="-8.8762330">
        <ele>10.3</ele>
        <time>2021-05-18T07:21:14Z</time>
      </trkpt>
      <trkpt lat="41.7413460" lon="-8.8762420">
        <ele>10.2</ele>
        <time>2021-05-18T07:21:15Z</time>
      </trkpt>
      <trkpt lat="41.7413600" lon="-8.8762500">
        <ele>10.1</ele>
        <time>2021-05-18T07:21:16Z</time>
      </trkpt>
      <trkpt lat="41.7413740" lon="-8.8762620">
        <ele>10.1</ele>
        <time>2021-05-18T07:21:17Z</time>
      </trkpt>
      <trkpt lat="41.7413880" lon="-8.8762710">
        <ele>10.0</ele>
        <time>2021-05-18T07:21:18Z</time>
      </trkpt>
      <trkpt lat="41.7414090" lon="-8.8762880">
        <ele>9.9</ele>
        <time>2021-05-18T07:21:19Z</time>
      </trkpt>
      <trkpt lat="41.7414160" lon="-8.8762930">
        <ele>9.9</ele>
        <time>2021-05-18T07:21:20Z</time>
      </trkpt>
      <trkpt lat="41.7414240" lon="-8.8762990">
        <ele>9.8</ele>
        <time>2021-05-18T07:21:21Z</time>
      </trkpt>
      <trkpt lat="41.7414330" lon="-8.8763090">
        <ele>9.8</ele>
        <time>2021-05-18T07:21:22Z</time>
      </trkpt>
      <trkpt lat="41.7414460" lon="-8.8763200">
        <ele>9.8</ele>
        <time>2021-05-18T07:21:23Z</time>
      </trkpt>
      <trkpt lat="41.7414590" lon="-8.8763250">
        <ele>9.8</ele>
        <time>2021-05-18T07:21:24Z</time>
      </trkpt>
      <trkpt lat="41.7414740" lon="-8.8763260">
        <ele>9.8</ele>
        <time>2021-05-18T07:21:25Z</time>
      </trkpt>
      <trkpt lat="41.7414880" lon="-8.8763340">
        <ele>9.8</ele>
        <time>2021-05-18T07:21:26Z</time>
      </trkpt>
      <trkpt lat="41.7415010" lon="-8.8763370">
        <ele>9.8</ele>
        <time>2021-05-18T07:21:27Z</time>
      </trkpt>
      <trkpt lat="41.7415160" lon="-8.8763420">
        <ele>9.8</ele>
        <time>2021-05-18T07:21:28Z</time>
      </trkpt>
      <trkpt lat="41.7415290" lon="-8.8763410">
        <ele>9.8</ele>
        <time>2021-05-18T07:21:29Z</time>
      </trkpt>
      <trkpt lat="41.7415400" lon="-8.8763470">
        <ele>9.8</ele>
        <time>2021-05-18T07:21:30Z</time>
      </trkpt>
      <trkpt lat="41.7415550" lon="-8.8763540">
        <ele>9.8</ele>
        <time>2021-05-18T07:21:31Z</time>
      </trkpt>
      <trkpt lat="41.7415750" lon="-8.8763630">
        <ele>9.7</ele>
        <time>2021-05-18T07:21:32Z</time>
      </trkpt>
      <trkpt lat="41.7415840" lon="-8.8763660">
        <ele>9.7</ele>
        <time>2021-05-18T07:21:33Z</time>
      </trkpt>
      <trkpt lat="41.7415930" lon="-8.8763680">
        <ele>9.7</ele>
        <time>2021-05-18T07:21:34Z</time>
      </trkpt>
      <trkpt lat="41.7416080" lon="-8.8763700">
        <ele>9.7</ele>
        <time>2021-05-18T07:21:35Z</time>
      </trkpt>
      <trkpt lat="41.7416200" lon="-8.8763760">
        <ele>9.7</ele>
        <time>2021-05-18T07:21:36Z</time>
      </trkpt>
      <trkpt lat="41.7416330" lon="-8.8763780">
        <ele>9.7</ele>
        <time>2021-05-18T07:21:37Z</time>
      </trkpt>
      <trkpt lat="41.7416470" lon="-8.8763840">
        <ele>9.7</ele>
        <time>2021-05-18T07:21:38Z</time>
      </trkpt>
      <trkpt lat="41.7416590" lon="-8.8763900">
        <ele>9.7</ele>
        <time>2021-05-18T07:21:39Z</time>
      </trkpt>
      <trkpt lat="41.7416740" lon="-8.8763910">
        <ele>9.7</ele>
        <time>2021-05-18T07:21:40Z</time>
      </trkpt>
      <trkpt lat="41.7416960" lon="-8.8763940">
        <ele>9.7</ele>
        <time>2021-05-18T07:21:41Z</time>
      </trkpt>
      <trkpt lat="41.7417040" lon="-8.8763950">
        <ele>9.7</ele>
        <time>2021-05-18T07:21:42Z</time>
      </trkpt>
      <trkpt lat="41.7417130" lon="-8.8763950">
        <ele>9.7</ele>
        <time>2021-05-18T07:21:43Z</time>
      </trkpt>
      <trkpt lat="41.7417280" lon="-8.8764000">
        <ele>9.7</ele>
        <time>2021-05-18T07:21:44Z</time>
      </trkpt>
      <trkpt lat="41.7417430" lon="-8.8764050">
        <ele>9.7</ele>
        <time>2021-05-18T07:21:45Z</time>
      </trkpt>
      <trkpt lat="41.7417660" lon="-8.8764110">
        <ele>9.7</ele>
        <time>2021-05-18T07:21:46Z</time>
      </trkpt>
      <trkpt lat="41.7417740" lon="-8.8764160">
        <ele>9.7</ele>
        <time>2021-05-18T07:21:47Z</time>
      </trkpt>
      <trkpt lat="41.7417830" lon="-8.8764200">
        <ele>9.7</ele>
        <time>2021-05-18T07:21:48Z</time>
      </trkpt>
      <trkpt lat="41.7417950" lon="-8.8764250">
        <ele>9.7</ele>
        <time>2021-05-18T07:21:49Z</time>
      </trkpt>
      <trkpt lat="41.7418080" lon="-8.8764350">
        <ele>9.7</ele>
        <time>2021-05-18T07:21:50Z</time>
      </trkpt>
      <trkpt lat="41.7418300" lon="-8.8764370">
        <ele>9.7</ele>
        <time>2021-05-18T07:21:51Z</time>
      </trkpt>
      <trkpt lat="41.7418390" lon="-8.8764400">
        <ele>9.7</ele>
        <time>2021-05-18T07:21:52Z</time>
      </trkpt>
      <trkpt lat="41.7418470" lon="-8.8764440">
        <ele>9.7</ele>
        <time>2021-05-18T07:21:53Z</time>
      </trkpt>
      <trkpt lat="41.7418690" lon="-8.8764530">
        <ele>9.7</ele>
        <time>2021-05-18T07:21:54Z</time>
      </trkpt>
      <trkpt lat="41.7418770" lon="-8.8764570">
        <ele>9.7</ele>
        <time>2021-05-18T07:21:55Z</time>
      </trkpt>
      <trkpt lat="41.7418860" lon="-8.8764610">
        <ele>9.7</ele>
        <time>2021-05-18T07:21:56Z</time>
      </trkpt>
      <trkpt lat="41.7419080" lon="-8.8764670">
        <ele>9.7</ele>
        <time>2021-05-18T07:21:57Z</time>
      </trkpt>
      <trkpt lat="41.7419180" lon="-8.8764690">
        <ele>9.7</ele>
        <time>2021-05-18T07:21:58Z</time>
      </trkpt>
      <trkpt lat="41.7419280" lon="-8.8764700">
        <ele>9.7</ele>
        <time>2021-05-18T07:21:59Z</time>
      </trkpt>
      <trkpt lat="41.7419420" lon="-8.8764770">
        <ele>9.7</ele>
        <time>2021-05-18T07:22:00Z</time>
      </trkpt>
      <trkpt lat="41.7419580" lon="-8.8764780">
        <ele>9.7</ele>
        <time>2021-05-18T07:22:01Z</time>
      </trkpt>
      <trkpt lat="41.7419730" lon="-8.8764820">
        <ele>9.7</ele>
        <time>2021-05-18T07:22:02Z</time>
      </trkpt>
      <trkpt lat="41.7419850" lon="-8.8764790">
        <ele>9.6</ele>
        <time>2021-05-18T07:22:03Z</time>
      </trkpt>
      <trkpt lat="41.7419970" lon="-8.8764800">
        <ele>9.6</ele>
        <time>2021-05-18T07:22:04Z</time>
      </trkpt>
      <trkpt lat="41.7420140" lon="-8.8764840">
        <ele>9.6</ele>
        <time>2021-05-18T07:22:05Z</time>
      </trkpt>
      <trkpt lat="41.7420270" lon="-8.8764850">
        <ele>9.6</ele>
        <time>2021-05-18T07:22:06Z</time>
      </trkpt>
      <trkpt lat="41.7420410" lon="-8.8764860">
        <ele>9.6</ele>
        <time>2021-05-18T07:22:07Z</time>
      </trkpt>
      <trkpt lat="41.7420560" lon="-8.8764870">
        <ele>9.6</ele>
        <time>2021-05-18T07:22:08Z</time>
      </trkpt>
      <trkpt lat="41.7420700" lon="-8.8764890">
        <ele>9.6</ele>
        <time>2021-05-18T07:22:09Z</time>
      </trkpt>
      <trkpt lat="41.7420850" lon="-8.8764930">
        <ele>9.6</ele>
        <time>2021-05-18T07:22:10Z</time>
      </trkpt>
      <trkpt lat="41.7420990" lon="-8.8764930">
        <ele>9.6</ele>
        <time>2021-05-18T07:22:11Z</time>
      </trkpt>
      <trkpt lat="41.7421130" lon="-8.8764940">
        <ele>9.6</ele>
        <time>2021-05-18T07:22:12Z</time>
      </trkpt>
      <trkpt lat="41.7421270" lon="-8.8765000">
        <ele>9.6</ele>
        <time>2021-05-18T07:22:13Z</time>
      </trkpt>
      <trkpt lat="41.7421480" lon="-8.8765050">
        <ele>9.6</ele>
        <time>2021-05-18T07:22:14Z</time>
      </trkpt>
      <trkpt lat="41.7421590" lon="-8.8765070">
        <ele>9.6</ele>
        <time>2021-05-18T07:22:15Z</time>
      </trkpt>
      <trkpt lat="41.7421690" lon="-8.8765080">
        <ele>9.6</ele>
        <time>2021-05-18T07:22:16Z</time>
      </trkpt>
      <trkpt lat="41.7421820" lon="-8.8765140">
        <ele>9.6</ele>
        <time>2021-05-18T07:22:17Z</time>
      </trkpt>
      <trkpt lat="41.7421920" lon="-8.8765250">
        <ele>9.6</ele>
        <time>2021-05-18T07:22:18Z</time>
      </trkpt>
      <trkpt lat="41.7422070" lon="-8.8765290">
        <ele>9.6</ele>
        <time>2021-05-18T07:22:19Z</time>
      </trkpt>
      <trkpt lat="41.7422220" lon="-8.8765240">
        <ele>9.5</ele>
        <time>2021-05-18T07:22:20Z</time>
      </trkpt>
      <trkpt lat="41.7422370" lon="-8.8765260">
        <ele>9.5</ele>
        <time>2021-05-18T07:22:21Z</time>
      </trkpt>
      <trkpt lat="41.7422500" lon="-8.8765280">
        <ele>9.5</ele>
        <time>2021-05-18T07:22:22Z</time>
      </trkpt>
      <trkpt lat="41.7422730" lon="-8.8765310">
        <ele>9.5</ele>
        <time>2021-05-18T07:22:23Z</time>
      </trkpt>
      <trkpt lat="41.7422810" lon="-8.8765330">
        <ele>9.5</ele>
        <time>2021-05-18T07:22:24Z</time>
      </trkpt>
      <trkpt lat="41.7422890" lon="-8.8765360">
        <ele>9.5</ele>
        <time>2021-05-18T07:22:25Z</time>
      </trkpt>
      <trkpt lat="41.7423110" lon="-8.8765420">
        <ele>9.5</ele>
        <time>2021-05-18T07:22:26Z</time>
      </trkpt>
      <trkpt lat="41.7423210" lon="-8.8765450">
        <ele>9.5</ele>
        <time>2021-05-18T07:22:27Z</time>
      </trkpt>
      <trkpt lat="41.7423300" lon="-8.8765470">
        <ele>9.5</ele>
        <time>2021-05-18T07:22:28Z</time>
      </trkpt>
      <trkpt lat="41.7423460" lon="-8.8765500">
        <ele>9.4</ele>
        <time>2021-05-18T07:22:29Z</time>
      </trkpt>
      <trkpt lat="41.7423590" lon="-8.8765490">
        <ele>9.4</ele>
        <time>2021-05-18T07:22:30Z</time>
      </trkpt>
      <trkpt lat="41.7423770" lon="-8.8765490">
        <ele>9.4</ele>
        <time>2021-05-18T07:22:31Z</time>
      </trkpt>
      <trkpt lat="41.7423910" lon="-8.8765540">
        <ele>9.4</ele>
        <time>2021-05-18T07:22:32Z</time>
      </trkpt>
      <trkpt lat="41.7424120" lon="-8.8765580">
        <ele>9.3</ele>
        <time>2021-05-18T07:22:33Z</time>
      </trkpt>
      <trkpt lat="41.7424200" lon="-8.8765610">
        <ele>9.3</ele>
        <time>2021-05-18T07:22:34Z</time>
      </trkpt>
      <trkpt lat="41.7424280" lon="-8.8765630">
        <ele>9.3</ele>
        <time>2021-05-18T07:22:35Z</time>
      </trkpt>
      <trkpt lat="41.7424410" lon="-8.8765620">
        <ele>9.2</ele>
        <time>2021-05-18T07:22:36Z</time>
      </trkpt>
      <trkpt lat="41.7424560" lon="-8.8765630">
        <ele>9.2</ele>
        <time>2021-05-18T07:22:37Z</time>
      </trkpt>
      <trkpt lat="41.7424720" lon="-8.8765620">
        <ele>9.1</ele>
        <time>2021-05-18T07:22:38Z</time>
      </trkpt>
      <trkpt lat="41.7424840" lon="-8.8765690">
        <ele>9.1</ele>
        <time>2021-05-18T07:22:39Z</time>
      </trkpt>
      <trkpt lat="41.7425050" lon="-8.8765730">
        <ele>9.0</ele>
        <time>2021-05-18T07:22:40Z</time>
      </trkpt>
      <trkpt lat="41.7425140" lon="-8.8765740">
        <ele>9.0</ele>
        <time>2021-05-18T07:22:41Z</time>
      </trkpt>
      <trkpt lat="41.7425240" lon="-8.8765760">
        <ele>8.9</ele>
        <time>2021-05-18T07:22:42Z</time>
      </trkpt>
      <trkpt lat="41.7425450" lon="-8.8765790">
        <ele>8.8</ele>
        <time>2021-05-18T07:22:43Z</time>
      </trkpt>
      <trkpt lat="41.7425540" lon="-8.8765820">
        <ele>8.8</ele>
        <time>2021-05-18T07:22:44Z</time>
      </trkpt>
      <trkpt lat="41.7425620" lon="-8.8765840">
        <ele>8.8</ele>
        <time>2021-05-18T07:22:45Z</time>
      </trkpt>
      <trkpt lat="41.7425770" lon="-8.8765860">
        <ele>8.7</ele>
        <time>2021-05-18T07:22:46Z</time>
      </trkpt>
      <trkpt lat="41.7425880" lon="-8.8765780">
        <ele>8.6</ele>
        <time>2021-05-18T07:22:47Z</time>
      </trkpt>
      <trkpt lat="41.7425960" lon="-8.8765670">
        <ele>8.6</ele>
        <time>2021-05-18T07:22:48Z</time>
      </trkpt>
      <trkpt lat="41.7425860" lon="-8.8765210">
        <ele>8.5</ele>
        <time>2021-05-18T07:22:49Z</time>
      </trkpt>
      <trkpt lat="41.7425820" lon="-8.8765090">
        <ele>8.5</ele>
        <time>2021-05-18T07:22:50Z</time>
      </trkpt>
      <trkpt lat="41.7425790" lon="-8.8764900">
        <ele>8.4</ele>
        <time>2021-05-18T07:22:51Z</time>
      </trkpt>
      <trkpt lat="41.7425830" lon="-8.8764730">
        <ele>8.3</ele>
        <time>2021-05-18T07:22:52Z</time>
      </trkpt>
      <trkpt lat="41.7425820" lon="-8.8764420">
        <ele>8.2</ele>
        <time>2021-05-18T07:22:53Z</time>
      </trkpt>
      <trkpt lat="41.7425830" lon="-8.8764320">
        <ele>8.2</ele>
        <time>2021-05-18T07:22:54Z</time>
      </trkpt>
      <trkpt lat="41.7425830" lon="-8.8764230">
        <ele>8.1</ele>
        <time>2021-05-18T07:22:55Z</time>
      </trkpt>
      <trkpt lat="41.7425830" lon="-8.8764010">
        <ele>8.1</ele>
        <time>2021-05-18T07:22:56Z</time>
      </trkpt>
      <trkpt lat="41.7425850" lon="-8.8763840">
        <ele>8.0</ele>
        <time>2021-05-18T07:22:57Z</time>
      </trkpt>
      <trkpt lat="41.7425890" lon="-8.8763660">
        <ele>7.9</ele>
        <time>2021-05-18T07:22:58Z</time>
      </trkpt>
      <trkpt lat="41.7425930" lon="-8.8763530">
        <ele>7.9</ele>
        <time>2021-05-18T07:22:59Z</time>
      </trkpt>
      <trkpt lat="41.7425960" lon="-8.8763430">
        <ele>7.8</ele>
        <time>2021-05-18T07:23:00Z</time>
      </trkpt>
      <trkpt lat="41.7426000" lon="-8.8763230">
        <ele>7.8</ele>
        <time>2021-05-18T07:23:01Z</time>
      </trkpt>
      <trkpt lat="41.7425990" lon="-8.8763030">
        <ele>7.7</ele>
        <time>2021-05-18T07:23:02Z</time>
      </trkpt>
      <trkpt lat="41.7426010" lon="-8.8762810">
        <ele>7.7</ele>
        <time>2021-05-18T07:23:03Z</time>
      </trkpt>
      <trkpt lat="41.7426030" lon="-8.8762580">
        <ele>7.6</ele>
        <time>2021-05-18T07:23:04Z</time>
      </trkpt>
      <trkpt lat="41.7426090" lon="-8.8762460">
        <ele>7.6</ele>
        <time>2021-05-18T07:23:05Z</time>
      </trkpt>
      <trkpt lat="41.7426070" lon="-8.8762320">
        <ele>7.5</ele>
        <time>2021-05-18T07:23:06Z</time>
      </trkpt>
      <trkpt lat="41.7426160" lon="-8.8762220">
        <ele>7.5</ele>
        <time>2021-05-18T07:23:07Z</time>
      </trkpt>
      <trkpt lat="41.7426180" lon="-8.8762070">
        <ele>7.4</ele>
        <time>2021-05-18T07:23:08Z</time>
      </trkpt>
      <trkpt lat="41.7426260" lon="-8.8761830">
        <ele>7.4</ele>
        <time>2021-05-18T07:23:09Z</time>
      </trkpt>
      <trkpt lat="41.7426320" lon="-8.8761730">
        <ele>7.4</ele>
        <time>2021-05-18T07:23:10Z</time>
      </trkpt>
      <trkpt lat="41.7426380" lon="-8.8761660">
        <ele>7.3</ele>
        <time>2021-05-18T07:23:11Z</time>
      </trkpt>
      <trkpt lat="41.7426430" lon="-8.8761460">
        <ele>7.3</ele>
        <time>2021-05-18T07:23:12Z</time>
      </trkpt>
      <trkpt lat="41.7426430" lon="-8.8761350">
        <ele>7.3</ele>
        <time>2021-05-18T07:23:13Z</time>
      </trkpt>
      <trkpt lat="41.7426490" lon="-8.8761150">
        <ele>7.2</ele>
        <time>2021-05-18T07:23:14Z</time>
      </trkpt>
      <trkpt lat="41.7426540" lon="-8.8761030">
        <ele>7.2</ele>
        <time>2021-05-18T07:23:15Z</time>
      </trkpt>
      <trkpt lat="41.7426620" lon="-8.8760780">
        <ele>7.2</ele>
        <time>2021-05-18T07:23:16Z</time>
      </trkpt>
      <trkpt lat="41.7426650" lon="-8.8760660">
        <ele>7.2</ele>
        <time>2021-05-18T07:23:17Z</time>
      </trkpt>
      <trkpt lat="41.7426680" lon="-8.8760540">
        <ele>7.2</ele>
        <time>2021-05-18T07:23:18Z</time>
      </trkpt>
      <trkpt lat="41.7426810" lon="-8.8760370">
        <ele>7.1</ele>
        <time>2021-05-18T07:23:19Z</time>
      </trkpt>
      <trkpt lat="41.7426860" lon="-8.8760180">
        <ele>7.1</ele>
        <time>2021-05-18T07:23:20Z</time>
      </trkpt>
      <trkpt lat="41.7426960" lon="-8.8759960">
        <ele>7.1</ele>
        <time>2021-05-18T07:23:21Z</time>
      </trkpt>
      <trkpt lat="41.7427030" lon="-8.8759790">
        <ele>7.1</ele>
        <time>2021-05-18T07:23:22Z</time>
      </trkpt>
      <trkpt lat="41.7427100" lon="-8.8759600">
        <ele>7.0</ele>
        <time>2021-05-18T07:23:23Z</time>
      </trkpt>
      <trkpt lat="41.7427180" lon="-8.8759460">
        <ele>7.0</ele>
        <time>2021-05-18T07:23:24Z</time>
      </trkpt>
      <trkpt lat="41.7427210" lon="-8.8759320">
        <ele>7.0</ele>
        <time>2021-05-18T07:23:25Z</time>
      </trkpt>
      <trkpt lat="41.7427260" lon="-8.8759160">
        <ele>7.0</ele>
        <time>2021-05-18T07:23:26Z</time>
      </trkpt>
      <trkpt lat="41.7427280" lon="-8.8759060">
        <ele>7.0</ele>
        <time>2021-05-18T07:23:27Z</time>
      </trkpt>
      <trkpt lat="41.7427290" lon="-8.8758910">
        <ele>7.0</ele>
        <time>2021-05-18T07:23:28Z</time>
      </trkpt>
      <trkpt lat="41.7427360" lon="-8.8758710">
        <ele>6.9</ele>
        <time>2021-05-18T07:23:29Z</time>
      </trkpt>
      <trkpt lat="41.7427400" lon="-8.8758570">
        <ele>6.9</ele>
        <time>2021-05-18T07:23:30Z</time>
      </trkpt>
      <trkpt lat="41.7427450" lon="-8.8758390">
        <ele>6.8</ele>
        <time>2021-05-18T07:23:31Z</time>
      </trkpt>
      <trkpt lat="41.7427550" lon="-8.8758400">
        <ele>6.8</ele>
        <time>2021-05-18T07:23:32Z</time>
      </trkpt>
      <trkpt lat="41.7427660" lon="-8.8758260">
        <ele>6.8</ele>
        <time>2021-05-18T07:23:33Z</time>
      </trkpt>
      <trkpt lat="41.7427780" lon="-8.8758180">
        <ele>6.8</ele>
        <time>2021-05-18T07:23:34Z</time>
      </trkpt>
      <trkpt lat="41.7428000" lon="-8.8758180">
        <ele>6.8</ele>
        <time>2021-05-18T07:23:35Z</time>
      </trkpt>
      <trkpt lat="41.7428090" lon="-8.8758190">
        <ele>6.6</ele>
        <time>2021-05-18T07:23:36Z</time>
      </trkpt>
      <trkpt lat="41.7428190" lon="-8.8758190">
        <ele>6.6</ele>
        <time>2021-05-18T07:23:37Z</time>
      </trkpt>
      <trkpt lat="41.7428380" lon="-8.8758250">
        <ele>6.5</ele>
        <time>2021-05-18T07:23:38Z</time>
      </trkpt>
      <trkpt lat="41.7428480" lon="-8.8758250">
        <ele>6.5</ele>
        <time>2021-05-18T07:23:39Z</time>
      </trkpt>
      <trkpt lat="41.7428570" lon="-8.8758240">
        <ele>6.5</ele>
        <time>2021-05-18T07:23:40Z</time>
      </trkpt>
      <trkpt lat="41.7428710" lon="-8.8758130">
        <ele>6.4</ele>
        <time>2021-05-18T07:23:41Z</time>
      </trkpt>
      <trkpt lat="41.7428870" lon="-8.8758050">
        <ele>6.4</ele>
        <time>2021-05-18T07:23:42Z</time>
      </trkpt>
      <trkpt lat="41.7429040" lon="-8.8757990">
        <ele>6.4</ele>
        <time>2021-05-18T07:23:43Z</time>
      </trkpt>
      <trkpt lat="41.7429190" lon="-8.8758000">
        <ele>6.3</ele>
        <time>2021-05-18T07:23:44Z</time>
      </trkpt>
      <trkpt lat="41.7429350" lon="-8.8757970">
        <ele>6.3</ele>
        <time>2021-05-18T07:23:45Z</time>
      </trkpt>
      <trkpt lat="41.7429510" lon="-8.8758000">
        <ele>6.2</ele>
        <time>2021-05-18T07:23:46Z</time>
      </trkpt>
      <trkpt lat="41.7429670" lon="-8.8757980">
        <ele>6.2</ele>
        <time>2021-05-18T07:23:47Z</time>
      </trkpt>
      <trkpt lat="41.7429830" lon="-8.8758000">
        <ele>6.2</ele>
        <time>2021-05-18T07:23:48Z</time>
      </trkpt>
      <trkpt lat="41.7429980" lon="-8.8758010">
        <ele>6.1</ele>
        <time>2021-05-18T07:23:49Z</time>
      </trkpt>
      <trkpt lat="41.7430110" lon="-8.8758020">
        <ele>6.1</ele>
        <time>2021-05-18T07:23:50Z</time>
      </trkpt>
      <trkpt lat="41.7430260" lon="-8.8758110">
        <ele>6.1</ele>
        <time>2021-05-18T07:23:51Z</time>
      </trkpt>
      <trkpt lat="41.7430400" lon="-8.8758110">
        <ele>6.0</ele>
        <time>2021-05-18T07:23:52Z</time>
      </trkpt>
      <trkpt lat="41.7430570" lon="-8.8758120">
        <ele>6.0</ele>
        <time>2021-05-18T07:23:53Z</time>
      </trkpt>
      <trkpt lat="41.7430700" lon="-8.8758200">
        <ele>6.0</ele>
        <time>2021-05-18T07:23:54Z</time>
      </trkpt>
      <trkpt lat="41.7430830" lon="-8.8758270">
        <ele>5.9</ele>
        <time>2021-05-18T07:23:55Z</time>
      </trkpt>
      <trkpt lat="41.7430970" lon="-8.8758350">
        <ele>5.9</ele>
        <time>2021-05-18T07:23:56Z</time>
      </trkpt>
      <trkpt lat="41.7431120" lon="-8.8758400">
        <ele>5.9</ele>
        <time>2021-05-18T07:23:57Z</time>
      </trkpt>
      <trkpt lat="41.7431250" lon="-8.8758510">
        <ele>5.9</ele>
        <time>2021-05-18T07:23:58Z</time>
      </trkpt>
      <trkpt lat="41.7431390" lon="-8.8758560">
        <ele>5.8</ele>
        <time>2021-05-18T07:23:59Z</time>
      </trkpt>
      <trkpt lat="41.7431540" lon="-8.8758580">
        <ele>5.8</ele>
        <time>2021-05-18T07:24:00Z</time>
      </trkpt>
      <trkpt lat="41.7431670" lon="-8.8758620">
        <ele>5.8</ele>
        <time>2021-05-18T07:24:01Z</time>
      </trkpt>
      <trkpt lat="41.7431810" lon="-8.8758720">
        <ele>5.8</ele>
        <time>2021-05-18T07:24:02Z</time>
      </trkpt>
      <trkpt lat="41.7431950" lon="-8.8758770">
        <ele>5.8</ele>
        <time>2021-05-18T07:24:03Z</time>
      </trkpt>
      <trkpt lat="41.7432070" lon="-8.8758820">
        <ele>5.8</ele>
        <time>2021-05-18T07:24:04Z</time>
      </trkpt>
      <trkpt lat="41.7432190" lon="-8.8758920">
        <ele>5.8</ele>
        <time>2021-05-18T07:24:05Z</time>
      </trkpt>
      <trkpt lat="41.7432330" lon="-8.8758990">
        <ele>5.8</ele>
        <time>2021-05-18T07:24:06Z</time>
      </trkpt>
      <trkpt lat="41.7432480" lon="-8.8759030">
        <ele>5.8</ele>
        <time>2021-05-18T07:24:07Z</time>
      </trkpt>
      <trkpt lat="41.7432620" lon="-8.8759110">
        <ele>5.7</ele>
        <time>2021-05-18T07:24:08Z</time>
      </trkpt>
      <trkpt lat="41.7432770" lon="-8.8759190">
        <ele>5.7</ele>
        <time>2021-05-18T07:24:09Z</time>
      </trkpt>
      <trkpt lat="41.7432910" lon="-8.8759290">
        <ele>5.7</ele>
        <time>2021-05-18T07:24:10Z</time>
      </trkpt>
      <trkpt lat="41.7433050" lon="-8.8759350">
        <ele>5.7</ele>
        <time>2021-05-18T07:24:11Z</time>
      </trkpt>
      <trkpt lat="41.7433160" lon="-8.8759420">
        <ele>5.7</ele>
        <time>2021-05-18T07:24:12Z</time>
      </trkpt>
      <trkpt lat="41.7433300" lon="-8.8759420">
        <ele>5.7</ele>
        <time>2021-05-18T07:24:13Z</time>
      </trkpt>
      <trkpt lat="41.7433430" lon="-8.8759510">
        <ele>5.7</ele>
        <time>2021-05-18T07:24:14Z</time>
      </trkpt>
      <trkpt lat="41.7433570" lon="-8.8759580">
        <ele>5.7</ele>
        <time>2021-05-18T07:24:15Z</time>
      </trkpt>
      <trkpt lat="41.7433690" lon="-8.8759650">
        <ele>5.7</ele>
        <time>2021-05-18T07:24:16Z</time>
      </trkpt>
      <trkpt lat="41.7433840" lon="-8.8759700">
        <ele>5.7</ele>
        <time>2021-05-18T07:24:17Z</time>
      </trkpt>
      <trkpt lat="41.7433980" lon="-8.8759730">
        <ele>5.7</ele>
        <time>2021-05-18T07:24:18Z</time>
      </trkpt>
      <trkpt lat="41.7434150" lon="-8.8759800">
        <ele>5.7</ele>
        <time>2021-05-18T07:24:19Z</time>
      </trkpt>
      <trkpt lat="41.7434300" lon="-8.8759880">
        <ele>5.7</ele>
        <time>2021-05-18T07:24:20Z</time>
      </trkpt>
      <trkpt lat="41.7434500" lon="-8.8759940">
        <ele>5.7</ele>
        <time>2021-05-18T07:24:21Z</time>
      </trkpt>
      <trkpt lat="41.7434570" lon="-8.8759960">
        <ele>5.7</ele>
        <time>2021-05-18T07:24:22Z</time>
      </trkpt>
      <trkpt lat="41.7434650" lon="-8.8759990">
        <ele>5.7</ele>
        <time>2021-05-18T07:24:23Z</time>
      </trkpt>
      <trkpt lat="41.7434850" lon="-8.8760090">
        <ele>5.7</ele>
        <time>2021-05-18T07:24:24Z</time>
      </trkpt>
      <trkpt lat="41.7434940" lon="-8.8760120">
        <ele>5.7</ele>
        <time>2021-05-18T07:24:25Z</time>
      </trkpt>
      <trkpt lat="41.7435020" lon="-8.8760160">
        <ele>5.7</ele>
        <time>2021-05-18T07:24:26Z</time>
      </trkpt>
      <trkpt lat="41.7435130" lon="-8.8760270">
        <ele>5.7</ele>
        <time>2021-05-18T07:24:27Z</time>
      </trkpt>
      <trkpt lat="41.7435270" lon="-8.8760270">
        <ele>5.7</ele>
        <time>2021-05-18T07:24:28Z</time>
      </trkpt>
      <trkpt lat="41.7435330" lon="-8.8760220">
        <ele>5.7</ele>
        <time>2021-05-18T07:24:29Z</time>
      </trkpt>
      <trkpt lat="41.7435470" lon="-8.8760260">
        <ele>5.7</ele>
        <time>2021-05-18T07:24:30Z</time>
      </trkpt>
      <trkpt lat="41.7435550" lon="-8.8760290">
        <ele>5.7</ele>
        <time>2021-05-18T07:24:31Z</time>
      </trkpt>
      <trkpt lat="41.7435670" lon="-8.8760290">
        <ele>5.7</ele>
        <time>2021-05-18T07:24:32Z</time>
      </trkpt>
      <trkpt lat="41.7435840" lon="-8.8760310">
        <ele>5.7</ele>
        <time>2021-05-18T07:24:33Z</time>
      </trkpt>
      <trkpt lat="41.7436020" lon="-8.8760360">
        <ele>5.7</ele>
        <time>2021-05-18T07:24:34Z</time>
      </trkpt>
      <trkpt lat="41.7436160" lon="-8.8760360">
        <ele>5.7</ele>
        <time>2021-05-18T07:24:35Z</time>
      </trkpt>
      <trkpt lat="41.7436320" lon="-8.8760460">
        <ele>5.7</ele>
        <time>2021-05-18T07:24:36Z</time>
      </trkpt>
      <trkpt lat="41.7436460" lon="-8.8760550">
        <ele>5.7</ele>
        <time>2021-05-18T07:24:37Z</time>
      </trkpt>
      <trkpt lat="41.7436610" lon="-8.8760600">
        <ele>5.7</ele>
        <time>2021-05-18T07:24:38Z</time>
      </trkpt>
      <trkpt lat="41.7436770" lon="-8.8760670">
        <ele>5.7</ele>
        <time>2021-05-18T07:24:39Z</time>
      </trkpt>
      <trkpt lat="41.7436930" lon="-8.8760710">
        <ele>5.7</ele>
        <time>2021-05-18T07:24:40Z</time>
      </trkpt>
      <trkpt lat="41.7437080" lon="-8.8760820">
        <ele>5.7</ele>
        <time>2021-05-18T07:24:41Z</time>
      </trkpt>
      <trkpt lat="41.7437220" lon="-8.8760830">
        <ele>5.7</ele>
        <time>2021-05-18T07:24:42Z</time>
      </trkpt>
      <trkpt lat="41.7437360" lon="-8.8760880">
        <ele>5.7</ele>
        <time>2021-05-18T07:24:43Z</time>
      </trkpt>
      <trkpt lat="41.7437510" lon="-8.8760980">
        <ele>5.7</ele>
        <time>2021-05-18T07:24:44Z</time>
      </trkpt>
      <trkpt lat="41.7437620" lon="-8.8761110">
        <ele>5.7</ele>
        <time>2021-05-18T07:24:45Z</time>
      </trkpt>
      <trkpt lat="41.7437790" lon="-8.8761220">
        <ele>5.7</ele>
        <time>2021-05-18T07:24:46Z</time>
      </trkpt>
      <trkpt lat="41.7437890" lon="-8.8761320">
        <ele>5.7</ele>
        <time>2021-05-18T07:24:47Z</time>
      </trkpt>
      <trkpt lat="41.7438020" lon="-8.8761450">
        <ele>5.7</ele>
        <time>2021-05-18T07:24:48Z</time>
      </trkpt>
      <trkpt lat="41.7438060" lon="-8.8761740">
        <ele>5.6</ele>
        <time>2021-05-18T07:24:49Z</time>
      </trkpt>
      <trkpt lat="41.7438030" lon="-8.8761910">
        <ele>5.6</ele>
        <time>2021-05-18T07:24:50Z</time>
      </trkpt>
      <trkpt lat="41.7438000" lon="-8.8762110">
        <ele>5.6</ele>
        <time>2021-05-18T07:24:51Z</time>
      </trkpt>
      <trkpt lat="41.7437980" lon="-8.8762300">
        <ele>5.6</ele>
        <time>2021-05-18T07:24:52Z</time>
      </trkpt>
      <trkpt lat="41.7437970" lon="-8.8762590">
        <ele>5.6</ele>
        <time>2021-05-18T07:24:53Z</time>
      </trkpt>
      <trkpt lat="41.7437980" lon="-8.8762730">
        <ele>5.5</ele>
        <time>2021-05-18T07:24:54Z</time>
      </trkpt>
      <trkpt lat="41.7438000" lon="-8.8762880">
        <ele>5.5</ele>
        <time>2021-05-18T07:24:55Z</time>
      </trkpt>
      <trkpt lat="41.7438030" lon="-8.8763150">
        <ele>5.5</ele>
        <time>2021-05-18T07:24:56Z</time>
      </trkpt>
      <trkpt lat="41.7438050" lon="-8.8763270">
        <ele>5.5</ele>
        <time>2021-05-18T07:24:57Z</time>
      </trkpt>
      <trkpt lat="41.7438080" lon="-8.8763390">
        <ele>5.5</ele>
        <time>2021-05-18T07:24:58Z</time>
      </trkpt>
      <trkpt lat="41.7438150" lon="-8.8763570">
        <ele>5.5</ele>
        <time>2021-05-18T07:24:59Z</time>
      </trkpt>
      <trkpt lat="41.7438230" lon="-8.8763720">
        <ele>5.4</ele>
        <time>2021-05-18T07:25:00Z</time>
      </trkpt>
      <trkpt lat="41.7438390" lon="-8.8763800">
        <ele>5.4</ele>
        <time>2021-05-18T07:25:01Z</time>
      </trkpt>
      <trkpt lat="41.7438520" lon="-8.8763910">
        <ele>5.4</ele>
        <time>2021-05-18T07:25:02Z</time>
      </trkpt>
      <trkpt lat="41.7438700" lon="-8.8763930">
        <ele>5.4</ele>
        <time>2021-05-18T07:25:03Z</time>
      </trkpt>
      <trkpt lat="41.7438810" lon="-8.8764050">
        <ele>5.4</ele>
        <time>2021-05-18T07:25:04Z</time>
      </trkpt>
      <trkpt lat="41.7438960" lon="-8.8764120">
        <ele>5.4</ele>
        <time>2021-05-18T07:25:05Z</time>
      </trkpt>
      <trkpt lat="41.7439130" lon="-8.8764220">
        <ele>5.3</ele>
        <time>2021-05-18T07:25:06Z</time>
      </trkpt>
      <trkpt lat="41.7439260" lon="-8.8764330">
        <ele>5.3</ele>
        <time>2021-05-18T07:25:07Z</time>
      </trkpt>
      <trkpt lat="41.7439360" lon="-8.8764410">
        <ele>5.3</ele>
        <time>2021-05-18T07:25:08Z</time>
      </trkpt>
      <trkpt lat="41.7439480" lon="-8.8764520">
        <ele>5.3</ele>
        <time>2021-05-18T07:25:09Z</time>
      </trkpt>
      <trkpt lat="41.7439610" lon="-8.8764610">
        <ele>5.3</ele>
        <time>2021-05-18T07:25:10Z</time>
      </trkpt>
      <trkpt lat="41.7439760" lon="-8.8764850">
        <ele>5.3</ele>
        <time>2021-05-18T07:25:11Z</time>
      </trkpt>
      <trkpt lat="41.7439840" lon="-8.8764920">
        <ele>5.3</ele>
        <time>2021-05-18T07:25:12Z</time>
      </trkpt>
      <trkpt lat="41.7439910" lon="-8.8765000">
        <ele>5.3</ele>
        <time>2021-05-18T07:25:13Z</time>
      </trkpt>
      <trkpt lat="41.7440010" lon="-8.8765130">
        <ele>5.2</ele>
        <time>2021-05-18T07:25:14Z</time>
      </trkpt>
      <trkpt lat="41.7440090" lon="-8.8765290">
        <ele>5.2</ele>
        <time>2021-05-18T07:25:15Z</time>
      </trkpt>
      <trkpt lat="41.7440210" lon="-8.8765390">
        <ele>5.2</ele>
        <time>2021-05-18T07:25:16Z</time>
      </trkpt>
      <trkpt lat="41.7440320" lon="-8.8765540">
        <ele>5.2</ele>
        <time>2021-05-18T07:25:17Z</time>
      </trkpt>
      <trkpt lat="41.7440530" lon="-8.8765630">
        <ele>5.2</ele>
        <time>2021-05-18T07:25:18Z</time>
      </trkpt>
      <trkpt lat="41.7440630" lon="-8.8765660">
        <ele>5.2</ele>
        <time>2021-05-18T07:25:19Z</time>
      </trkpt>
      <trkpt lat="41.7440720" lon="-8.8765700">
        <ele>5.2</ele>
        <time>2021-05-18T07:25:20Z</time>
      </trkpt>
      <trkpt lat="41.7440860" lon="-8.8765810">
        <ele>5.2</ele>
        <time>2021-05-18T07:25:21Z</time>
      </trkpt>
      <trkpt lat="41.7440980" lon="-8.8765820">
        <ele>5.2</ele>
        <time>2021-05-18T07:25:22Z</time>
      </trkpt>
      <trkpt lat="41.7441090" lon="-8.8765940">
        <ele>5.2</ele>
        <time>2021-05-18T07:25:23Z</time>
      </trkpt>
      <trkpt lat="41.7441240" lon="-8.8765990">
        <ele>5.2</ele>
        <time>2021-05-18T07:25:24Z</time>
      </trkpt>
      <trkpt lat="41.7441350" lon="-8.8766100">
        <ele>5.2</ele>
        <time>2021-05-18T07:25:25Z</time>
      </trkpt>
      <trkpt lat="41.7441470" lon="-8.8766180">
        <ele>5.2</ele>
        <time>2021-05-18T07:25:26Z</time>
      </trkpt>
      <trkpt lat="41.7441530" lon="-8.8766120">
        <ele>5.2</ele>
        <time>2021-05-18T07:25:27Z</time>
      </trkpt>
      <trkpt lat="41.7441540" lon="-8.8766100">
        <ele>5.2</ele>
        <time>2021-05-18T07:25:28Z</time>
      </trkpt>
      <trkpt lat="41.7441480" lon="-8.8766040">
        <ele>5.2</ele>
        <time>2021-05-18T07:25:29Z</time>
      </trkpt>
      <trkpt lat="41.7441440" lon="-8.8765960">
        <ele>5.2</ele>
        <time>2021-05-18T07:25:30Z</time>
      </trkpt>
      <trkpt lat="41.7441420" lon="-8.8765910">
        <ele>5.2</ele>
        <time>2021-05-18T07:25:31Z</time>
      </trkpt>
      <trkpt lat="41.7441400" lon="-8.8765860">
        <ele>5.2</ele>
        <time>2021-05-18T07:25:32Z</time>
      </trkpt>
      <trkpt lat="41.7441400" lon="-8.8765870">
        <ele>5.2</ele>
        <time>2021-05-18T07:25:33Z</time>
      </trkpt>
      <trkpt lat="41.7441400" lon="-8.8765860">
        <ele>5.2</ele>
        <time>2021-05-18T07:25:34Z</time>
      </trkpt>
      <trkpt lat="41.7441380" lon="-8.8765830">
        <ele>5.2</ele>
        <time>2021-05-18T07:25:35Z</time>
      </trkpt>
      <trkpt lat="41.7441390" lon="-8.8765810">
        <ele>5.2</ele>
        <time>2021-05-18T07:25:36Z</time>
      </trkpt>
      <trkpt lat="41.7441400" lon="-8.8765800">
        <ele>5.2</ele>
        <time>2021-05-18T07:25:37Z</time>
      </trkpt>
      <trkpt lat="41.7441410" lon="-8.8765780">
        <ele>5.2</ele>
        <time>2021-05-18T07:25:38Z</time>
      </trkpt>
      <trkpt lat="41.7441400" lon="-8.8765790">
        <ele>5.2</ele>
        <time>2021-05-18T07:25:39Z</time>
      </trkpt>
      <trkpt lat="41.7441370" lon="-8.8765810">
        <ele>5.2</ele>
        <time>2021-05-18T07:25:40Z</time>
      </trkpt>
      <trkpt lat="41.7441350" lon="-8.8765810">
        <ele>5.2</ele>
        <time>2021-05-18T07:25:41Z</time>
      </trkpt>
      <trkpt lat="41.7441340" lon="-8.8765820">
        <ele>5.2</ele>
        <time>2021-05-18T07:25:42Z</time>
      </trkpt>
      <trkpt lat="41.7441330" lon="-8.8765800">
        <ele>5.2</ele>
        <time>2021-05-18T07:25:43Z</time>
      </trkpt>
      <trkpt lat="41.7441330" lon="-8.8765770">
        <ele>5.2</ele>
        <time>2021-05-18T07:25:44Z</time>
      </trkpt>
      <trkpt lat="41.7441340" lon="-8.8765770">
        <ele>5.2</ele>
        <time>2021-05-18T07:25:45Z</time>
      </trkpt>
      <trkpt lat="41.7441340" lon="-8.8765760">
        <ele>5.2</ele>
        <time>2021-05-18T07:25:46Z</time>
      </trkpt>
      <trkpt lat="41.7441310" lon="-8.8765770">
        <ele>5.2</ele>
        <time>2021-05-18T07:25:47Z</time>
      </trkpt>
      <trkpt lat="41.7441300" lon="-8.8765780">
        <ele>5.2</ele>
        <time>2021-05-18T07:25:48Z</time>
      </trkpt>
      <trkpt lat="41.7441320" lon="-8.8765780">
        <ele>5.2</ele>
        <time>2021-05-18T07:25:49Z</time>
      </trkpt>
      <trkpt lat="41.7441320" lon="-8.8765770">
        <ele>5.2</ele>
        <time>2021-05-18T07:25:50Z</time>
      </trkpt>
      <trkpt lat="41.7441290" lon="-8.8765820">
        <ele>5.2</ele>
        <time>2021-05-18T07:25:51Z</time>
      </trkpt>
      <trkpt lat="41.7441270" lon="-8.8765820">
        <ele>5.2</ele>
        <time>2021-05-18T07:25:52Z</time>
      </trkpt>
      <trkpt lat="41.7441260" lon="-8.8765830">
        <ele>5.2</ele>
        <time>2021-05-18T07:25:53Z</time>
      </trkpt>
      <trkpt lat="41.7441250" lon="-8.8765820">
        <ele>5.2</ele>
        <time>2021-05-18T07:25:54Z</time>
      </trkpt>
      <trkpt lat="41.7441250" lon="-8.8765820">
        <ele>5.2</ele>
        <time>2021-05-18T07:25:55Z</time>
      </trkpt>
      <trkpt lat="41.7441240" lon="-8.8765820">
        <ele>5.2</ele>
        <time>2021-05-18T07:25:56Z</time>
      </trkpt>
      <trkpt lat="41.7441270" lon="-8.8765790">
        <ele>5.2</ele>
        <time>2021-05-18T07:25:57Z</time>
      </trkpt>
      <trkpt lat="41.7441270" lon="-8.8765760">
        <ele>5.2</ele>
        <time>2021-05-18T07:25:58Z</time>
      </trkpt>
      <trkpt lat="41.7441320" lon="-8.8765770">
        <ele>5.2</ele>
        <time>2021-05-18T07:25:59Z</time>
      </trkpt>
      <trkpt lat="41.7441420" lon="-8.8765770">
        <ele>5.2</ele>
        <time>2021-05-18T07:26:00Z</time>
      </trkpt>
      <trkpt lat="41.7441530" lon="-8.8765830">
        <ele>5.2</ele>
        <time>2021-05-18T07:26:01Z</time>
      </trkpt>
      <trkpt lat="41.7441670" lon="-8.8765900">
        <ele>5.2</ele>
        <time>2021-05-18T07:26:02Z</time>
      </trkpt>
      <trkpt lat="41.7441810" lon="-8.8766020">
        <ele>5.2</ele>
        <time>2021-05-18T07:26:03Z</time>
      </trkpt>
      <trkpt lat="41.7441920" lon="-8.8766100">
        <ele>5.2</ele>
        <time>2021-05-18T07:26:04Z</time>
      </trkpt>
      <trkpt lat="41.7442110" lon="-8.8766210">
        <ele>5.2</ele>
        <time>2021-05-18T07:26:05Z</time>
      </trkpt>
      <trkpt lat="41.7442200" lon="-8.8766250">
        <ele>5.2</ele>
        <time>2021-05-18T07:26:06Z</time>
      </trkpt>
      <trkpt lat="41.7442290" lon="-8.8766280">
        <ele>5.2</ele>
        <time>2021-05-18T07:26:07Z</time>
      </trkpt>
      <trkpt lat="41.7442390" lon="-8.8766390">
        <ele>5.2</ele>
        <time>2021-05-18T07:26:08Z</time>
      </trkpt>
      <trkpt lat="41.7442470" lon="-8.8766400">
        <ele>5.2</ele>
        <time>2021-05-18T07:26:09Z</time>
      </trkpt>
      <trkpt lat="41.7442540" lon="-8.8766530">
        <ele>5.2</ele>
        <time>2021-05-18T07:26:10Z</time>
      </trkpt>
      <trkpt lat="41.7442540" lon="-8.8766560">
        <ele>5.2</ele>
        <time>2021-05-18T07:26:11Z</time>
      </trkpt>
      <trkpt lat="41.7442480" lon="-8.8766520">
        <ele>5.2</ele>
        <time>2021-05-18T07:26:12Z</time>
      </trkpt>
      <trkpt lat="41.7442480" lon="-8.8766540">
        <ele>5.2</ele>
        <time>2021-05-18T07:26:13Z</time>
      </trkpt>
      <trkpt lat="41.7442480" lon="-8.8766560">
        <ele>5.2</ele>
        <time>2021-05-18T07:26:14Z</time>
      </trkpt>
      <trkpt lat="41.7442450" lon="-8.8766570">
        <ele>5.2</ele>
        <time>2021-05-18T07:26:15Z</time>
      </trkpt>
      <trkpt lat="41.7442340" lon="-8.8766520">
        <ele>5.2</ele>
        <time>2021-05-18T07:26:16Z</time>
      </trkpt>
      <trkpt lat="41.7442290" lon="-8.8766440">
        <ele>5.2</ele>
        <time>2021-05-18T07:26:17Z</time>
      </trkpt>
      <trkpt lat="41.7442250" lon="-8.8766440">
        <ele>5.2</ele>
        <time>2021-05-18T07:26:18Z</time>
      </trkpt>
      <trkpt lat="41.7442250" lon="-8.8766460">
        <ele>5.2</ele>
        <time>2021-05-18T07:26:19Z</time>
      </trkpt>
      <trkpt lat="41.7442250" lon="-8.8766470">
        <ele>5.2</ele>
        <time>2021-05-18T07:26:20Z</time>
      </trkpt>
      <trkpt lat="41.7442250" lon="-8.8766490">
        <ele>5.2</ele>
        <time>2021-05-18T07:26:21Z</time>
      </trkpt>
      <trkpt lat="41.7442260" lon="-8.8766480">
        <ele>5.2</ele>
        <time>2021-05-18T07:26:22Z</time>
      </trkpt>
      <trkpt lat="41.7442260" lon="-8.8766470">
        <ele>5.2</ele>
        <time>2021-05-18T07:26:23Z</time>
      </trkpt>
      <trkpt lat="41.7442270" lon="-8.8766500">
        <ele>5.2</ele>
        <time>2021-05-18T07:26:24Z</time>
      </trkpt>
      <trkpt lat="41.7442310" lon="-8.8766550">
        <ele>5.2</ele>
        <time>2021-05-18T07:26:25Z</time>
      </trkpt>
      <trkpt lat="41.7442450" lon="-8.8766630">
        <ele>5.2</ele>
        <time>2021-05-18T07:26:26Z</time>
      </trkpt>
      <trkpt lat="41.7442550" lon="-8.8766690">
        <ele>5.2</ele>
        <time>2021-05-18T07:26:27Z</time>
      </trkpt>
      <trkpt lat="41.7442720" lon="-8.8766820">
        <ele>5.2</ele>
        <time>2021-05-18T07:26:28Z</time>
      </trkpt>
      <trkpt lat="41.7442800" lon="-8.8766880">
        <ele>5.2</ele>
        <time>2021-05-18T07:26:29Z</time>
      </trkpt>
      <trkpt lat="41.7442870" lon="-8.8766940">
        <ele>5.2</ele>
        <time>2021-05-18T07:26:30Z</time>
      </trkpt>
      <trkpt lat="41.7443150" lon="-8.8767210">
        <ele>5.2</ele>
        <time>2021-05-18T07:26:31Z</time>
      </trkpt>
      <trkpt lat="41.7443200" lon="-8.8767320">
        <ele>5.2</ele>
        <time>2021-05-18T07:26:32Z</time>
      </trkpt>
      <trkpt lat="41.7443300" lon="-8.8767430">
        <ele>5.2</ele>
        <time>2021-05-18T07:26:33Z</time>
      </trkpt>
      <trkpt lat="41.7443410" lon="-8.8767570">
        <ele>5.2</ele>
        <time>2021-05-18T07:26:34Z</time>
      </trkpt>
      <trkpt lat="41.7443600" lon="-8.8767710">
        <ele>5.2</ele>
        <time>2021-05-18T07:26:35Z</time>
      </trkpt>
      <trkpt lat="41.7443680" lon="-8.8767750">
        <ele>5.2</ele>
        <time>2021-05-18T07:26:36Z</time>
      </trkpt>
      <trkpt lat="41.7443750" lon="-8.8767780">
        <ele>5.2</ele>
        <time>2021-05-18T07:26:37Z</time>
      </trkpt>
      <trkpt lat="41.7443860" lon="-8.8767930">
        <ele>5.2</ele>
        <time>2021-05-18T07:26:38Z</time>
      </trkpt>
      <trkpt lat="41.7443980" lon="-8.8768090">
        <ele>5.2</ele>
        <time>2021-05-18T07:26:39Z</time>
      </trkpt>
      <trkpt lat="41.7444030" lon="-8.8768190">
        <ele>5.2</ele>
        <time>2021-05-18T07:26:40Z</time>
      </trkpt>
      <trkpt lat="41.7444090" lon="-8.8768300">
        <ele>5.2</ele>
        <time>2021-05-18T07:26:41Z</time>
      </trkpt>
      <trkpt lat="41.7444240" lon="-8.8768410">
        <ele>5.1</ele>
        <time>2021-05-18T07:26:42Z</time>
      </trkpt>
      <trkpt lat="41.7444360" lon="-8.8768530">
        <ele>5.1</ele>
        <time>2021-05-18T07:26:43Z</time>
      </trkpt>
      <trkpt lat="41.7444420" lon="-8.8768590">
        <ele>5.1</ele>
        <time>2021-05-18T07:26:44Z</time>
      </trkpt>
      <trkpt lat="41.7444480" lon="-8.8768660">
        <ele>5.1</ele>
        <time>2021-05-18T07:26:45Z</time>
      </trkpt>
      <trkpt lat="41.7444540" lon="-8.8768720">
        <ele>5.1</ele>
        <time>2021-05-18T07:26:46Z</time>
      </trkpt>
      <trkpt lat="41.7444600" lon="-8.8768780">
        <ele>5.1</ele>
        <time>2021-05-18T07:26:47Z</time>
      </trkpt>
      <trkpt lat="41.7444710" lon="-8.8768990">
        <ele>5.1</ele>
        <time>2021-05-18T07:26:48Z</time>
      </trkpt>
      <trkpt lat="41.7444780" lon="-8.8769080">
        <ele>5.1</ele>
        <time>2021-05-18T07:26:49Z</time>
      </trkpt>
      <trkpt lat="41.7444840" lon="-8.8769160">
        <ele>5.1</ele>
        <time>2021-05-18T07:26:50Z</time>
      </trkpt>
      <trkpt lat="41.7444880" lon="-8.8769220">
        <ele>5.1</ele>
        <time>2021-05-18T07:26:51Z</time>
      </trkpt>
      <trkpt lat="41.7445030" lon="-8.8769340">
        <ele>5.1</ele>
        <time>2021-05-18T07:26:52Z</time>
      </trkpt>
      <trkpt lat="41.7445130" lon="-8.8769420">
        <ele>5.1</ele>
        <time>2021-05-18T07:26:53Z</time>
      </trkpt>
      <trkpt lat="41.7445320" lon="-8.8769600">
        <ele>5.1</ele>
        <time>2021-05-18T07:26:54Z</time>
      </trkpt>
      <trkpt lat="41.7445400" lon="-8.8769670">
        <ele>5.1</ele>
        <time>2021-05-18T07:26:55Z</time>
      </trkpt>
      <trkpt lat="41.7445470" lon="-8.8769730">
        <ele>5.1</ele>
        <time>2021-05-18T07:26:56Z</time>
      </trkpt>
      <trkpt lat="41.7445600" lon="-8.8769870">
        <ele>5.0</ele>
        <time>2021-05-18T07:26:57Z</time>
      </trkpt>
      <trkpt lat="41.7445690" lon="-8.8769940">
        <ele>5.0</ele>
        <time>2021-05-18T07:26:58Z</time>
      </trkpt>
      <trkpt lat="41.7445780" lon="-8.8770020">
        <ele>5.0</ele>
        <time>2021-05-18T07:26:59Z</time>
      </trkpt>
      <trkpt lat="41.7445970" lon="-8.8770190">
        <ele>5.0</ele>
        <time>2021-05-18T07:27:00Z</time>
      </trkpt>
      <trkpt lat="41.7446030" lon="-8.8770260">
        <ele>5.0</ele>
        <time>2021-05-18T07:27:01Z</time>
      </trkpt>
      <trkpt lat="41.7446100" lon="-8.8770320">
        <ele>5.0</ele>
        <time>2021-05-18T07:27:02Z</time>
      </trkpt>
      <trkpt lat="41.7446240" lon="-8.8770430">
        <ele>5.0</ele>
        <time>2021-05-18T07:27:03Z</time>
      </trkpt>
      <trkpt lat="41.7446600" lon="-8.8770550">
        <ele>5.0</ele>
        <time>2021-05-18T07:27:04Z</time>
      </trkpt>
      <trkpt lat="41.7446770" lon="-8.8770600">
        <ele>5.0</ele>
        <time>2021-05-18T07:27:05Z</time>
      </trkpt>
      <trkpt lat="41.7446920" lon="-8.8770700">
        <ele>4.9</ele>
        <time>2021-05-18T07:27:06Z</time>
      </trkpt>
      <trkpt lat="41.7447060" lon="-8.8770800">
        <ele>4.9</ele>
        <time>2021-05-18T07:27:07Z</time>
      </trkpt>
      <trkpt lat="41.7447210" lon="-8.8770890">
        <ele>4.9</ele>
        <time>2021-05-18T07:27:08Z</time>
      </trkpt>
      <trkpt lat="41.7447360" lon="-8.8770910">
        <ele>4.9</ele>
        <time>2021-05-18T07:27:09Z</time>
      </trkpt>
      <trkpt lat="41.7447450" lon="-8.8770910">
        <ele>4.9</ele>
        <time>2021-05-18T07:27:10Z</time>
      </trkpt>
      <trkpt lat="41.7447410" lon="-8.8770940">
        <ele>4.9</ele>
        <time>2021-05-18T07:27:11Z</time>
      </trkpt>
      <trkpt lat="41.7447350" lon="-8.8770900">
        <ele>4.9</ele>
        <time>2021-05-18T07:27:12Z</time>
      </trkpt>
      <trkpt lat="41.7447320" lon="-8.8770890">
        <ele>4.9</ele>
        <time>2021-05-18T07:27:13Z</time>
      </trkpt>
      <trkpt lat="41.7447310" lon="-8.8770850">
        <ele>4.9</ele>
        <time>2021-05-18T07:27:14Z</time>
      </trkpt>
      <trkpt lat="41.7447280" lon="-8.8770840">
        <ele>4.9</ele>
        <time>2021-05-18T07:27:15Z</time>
      </trkpt>
      <trkpt lat="41.7447240" lon="-8.8770890">
        <ele>4.9</ele>
        <time>2021-05-18T07:27:16Z</time>
      </trkpt>
      <trkpt lat="41.7447310" lon="-8.8770910">
        <ele>4.9</ele>
        <time>2021-05-18T07:27:17Z</time>
      </trkpt>
      <trkpt lat="41.7447390" lon="-8.8770960">
        <ele>4.9</ele>
        <time>2021-05-18T07:27:18Z</time>
      </trkpt>
      <trkpt lat="41.7447420" lon="-8.8770960">
        <ele>4.9</ele>
        <time>2021-05-18T07:27:19Z</time>
      </trkpt>
      <trkpt lat="41.7447300" lon="-8.8770830">
        <ele>4.9</ele>
        <time>2021-05-18T07:27:20Z</time>
      </trkpt>
      <trkpt lat="41.7447230" lon="-8.8770740">
        <ele>4.9</ele>
        <time>2021-05-18T07:27:21Z</time>
      </trkpt>
      <trkpt lat="41.7447180" lon="-8.8770790">
        <ele>4.9</ele>
        <time>2021-05-18T07:27:22Z</time>
      </trkpt>
      <trkpt lat="41.7447140" lon="-8.8770830">
        <ele>4.9</ele>
        <time>2021-05-18T07:27:23Z</time>
      </trkpt>
      <trkpt lat="41.7447070" lon="-8.8770820">
        <ele>4.9</ele>
        <time>2021-05-18T07:27:24Z</time>
      </trkpt>
      <trkpt lat="41.7447080" lon="-8.8770830">
        <ele>4.9</ele>
        <time>2021-05-18T07:27:25Z</time>
      </trkpt>
      <trkpt lat="41.7447120" lon="-8.8770800">
        <ele>4.9</ele>
        <time>2021-05-18T07:27:26Z</time>
      </trkpt>
      <trkpt lat="41.7447100" lon="-8.8770820">
        <ele>4.9</ele>
        <time>2021-05-18T07:27:27Z</time>
      </trkpt>
      <trkpt lat="41.7447090" lon="-8.8770830">
        <ele>4.9</ele>
        <time>2021-05-18T07:27:28Z</time>
      </trkpt>
      <trkpt lat="41.7447080" lon="-8.8770840">
        <ele>4.9</ele>
        <time>2021-05-18T07:27:29Z</time>
      </trkpt>
      <trkpt lat="41.7447090" lon="-8.8770860">
        <ele>4.9</ele>
        <time>2021-05-18T07:27:30Z</time>
      </trkpt>
      <trkpt lat="41.7447120" lon="-8.8770880">
        <ele>4.9</ele>
        <time>2021-05-18T07:27:31Z</time>
      </trkpt>
      <trkpt lat="41.7447180" lon="-8.8770920">
        <ele>4.9</ele>
        <time>2021-05-18T07:27:32Z</time>
      </trkpt>
      <trkpt lat="41.7447310" lon="-8.8770970">
        <ele>4.9</ele>
        <time>2021-05-18T07:27:33Z</time>
      </trkpt>
      <trkpt lat="41.7447420" lon="-8.8771010">
        <ele>4.8</ele>
        <time>2021-05-18T07:27:34Z</time>
      </trkpt>
      <trkpt lat="41.7447650" lon="-8.8771140">
        <ele>4.8</ele>
        <time>2021-05-18T07:27:35Z</time>
      </trkpt>
      <trkpt lat="41.7447800" lon="-8.8771190">
        <ele>4.8</ele>
        <time>2021-05-18T07:27:36Z</time>
      </trkpt>
      <trkpt lat="41.7447950" lon="-8.8771310">
        <ele>4.8</ele>
        <time>2021-05-18T07:27:37Z</time>
      </trkpt>
      <trkpt lat="41.7448020" lon="-8.8771340">
        <ele>4.8</ele>
        <time>2021-05-18T07:27:38Z</time>
      </trkpt>
      <trkpt lat="41.7448230" lon="-8.8771440">
        <ele>4.8</ele>
        <time>2021-05-18T07:27:39Z</time>
      </trkpt>
      <trkpt lat="41.7448390" lon="-8.8771490">
        <ele>4.8</ele>
        <time>2021-05-18T07:27:40Z</time>
      </trkpt>
      <trkpt lat="41.7448470" lon="-8.8771520">
        <ele>4.8</ele>
        <time>2021-05-18T07:27:41Z</time>
      </trkpt>
      <trkpt lat="41.7448540" lon="-8.8771540">
        <ele>4.8</ele>
        <time>2021-05-18T07:27:43Z</time>
      </trkpt>
      <trkpt lat="41.7448610" lon="-8.8771560">
        <ele>4.8</ele>
        <time>2021-05-18T07:27:44Z</time>
      </trkpt>
      <trkpt lat="41.7448680" lon="-8.8771590">
        <ele>4.8</ele>
        <time>2021-05-18T07:27:45Z</time>
      </trkpt>
      <trkpt lat="41.7448760" lon="-8.8771610">
        <ele>4.8</ele>
        <time>2021-05-18T07:27:46Z</time>
      </trkpt>
      <trkpt lat="41.7448830" lon="-8.8771640">
        <ele>4.9</ele>
        <time>2021-05-18T07:27:47Z</time>
      </trkpt>
      <trkpt lat="41.7448900" lon="-8.8771660">
        <ele>4.9</ele>
        <time>2021-05-18T07:27:48Z</time>
      </trkpt>
      <trkpt lat="41.7449110" lon="-8.8771720">
        <ele>4.9</ele>
        <time>2021-05-18T07:27:49Z</time>
      </trkpt>
      <trkpt lat="41.7449210" lon="-8.8771750">
        <ele>4.9</ele>
        <time>2021-05-18T07:27:50Z</time>
      </trkpt>
      <trkpt lat="41.7449300" lon="-8.8771790">
        <ele>4.9</ele>
        <time>2021-05-18T07:27:51Z</time>
      </trkpt>
      <trkpt lat="41.7449450" lon="-8.8771850">
        <ele>4.9</ele>
        <time>2021-05-18T07:27:52Z</time>
      </trkpt>
      <trkpt lat="41.7449600" lon="-8.8771930">
        <ele>4.9</ele>
        <time>2021-05-18T07:27:53Z</time>
      </trkpt>
      <trkpt lat="41.7449740" lon="-8.8772000">
        <ele>4.9</ele>
        <time>2021-05-18T07:27:54Z</time>
      </trkpt>
      <trkpt lat="41.7449870" lon="-8.8772070">
        <ele>4.9</ele>
        <time>2021-05-18T07:27:55Z</time>
      </trkpt>
      <trkpt lat="41.7450090" lon="-8.8772180">
        <ele>4.8</ele>
        <time>2021-05-18T07:27:56Z</time>
      </trkpt>
      <trkpt lat="41.7450180" lon="-8.8772200">
        <ele>4.8</ele>
        <time>2021-05-18T07:27:57Z</time>
      </trkpt>
      <trkpt lat="41.7450270" lon="-8.8772230">
        <ele>4.8</ele>
        <time>2021-05-18T07:27:58Z</time>
      </trkpt>
      <trkpt lat="41.7450480" lon="-8.8772310">
        <ele>4.8</ele>
        <time>2021-05-18T07:27:59Z</time>
      </trkpt>
      <trkpt lat="41.7450570" lon="-8.8772330">
        <ele>4.8</ele>
        <time>2021-05-18T07:28:00Z</time>
      </trkpt>
      <trkpt lat="41.7450660" lon="-8.8772350">
        <ele>4.8</ele>
        <time>2021-05-18T07:28:01Z</time>
      </trkpt>
      <trkpt lat="41.7450870" lon="-8.8772410">
        <ele>4.8</ele>
        <time>2021-05-18T07:28:02Z</time>
      </trkpt>
      <trkpt lat="41.7450960" lon="-8.8772430">
        <ele>4.8</ele>
        <time>2021-05-18T07:28:03Z</time>
      </trkpt>
      <trkpt lat="41.7451040" lon="-8.8772450">
        <ele>4.8</ele>
        <time>2021-05-18T07:28:04Z</time>
      </trkpt>
      <trkpt lat="41.7451230" lon="-8.8772580">
        <ele>4.8</ele>
        <time>2021-05-18T07:28:05Z</time>
      </trkpt>
      <trkpt lat="41.7451300" lon="-8.8772620">
        <ele>4.8</ele>
        <time>2021-05-18T07:28:06Z</time>
      </trkpt>
      <trkpt lat="41.7451380" lon="-8.8772660">
        <ele>4.8</ele>
        <time>2021-05-18T07:28:07Z</time>
      </trkpt>
      <trkpt lat="41.7451480" lon="-8.8772680">
        <ele>4.8</ele>
        <time>2021-05-18T07:28:08Z</time>
      </trkpt>
      <trkpt lat="41.7451550" lon="-8.8772620">
        <ele>4.8</ele>
        <time>2021-05-18T07:28:09Z</time>
      </trkpt>
      <trkpt lat="41.7451600" lon="-8.8772600">
        <ele>4.8</ele>
        <time>2021-05-18T07:28:10Z</time>
      </trkpt>
      <trkpt lat="41.7451680" lon="-8.8772580">
        <ele>4.8</ele>
        <time>2021-05-18T07:28:11Z</time>
      </trkpt>
      <trkpt lat="41.7451770" lon="-8.8772530">
        <ele>4.8</ele>
        <time>2021-05-18T07:28:12Z</time>
      </trkpt>
      <trkpt lat="41.7451870" lon="-8.8772510">
        <ele>4.8</ele>
        <time>2021-05-18T07:28:13Z</time>
      </trkpt>
      <trkpt lat="41.7451960" lon="-8.8772450">
        <ele>4.8</ele>
        <time>2021-05-18T07:28:14Z</time>
      </trkpt>
      <trkpt lat="41.7452070" lon="-8.8772430">
        <ele>4.7</ele>
        <time>2021-05-18T07:28:15Z</time>
      </trkpt>
      <trkpt lat="41.7452160" lon="-8.8772390">
        <ele>4.7</ele>
        <time>2021-05-18T07:28:16Z</time>
      </trkpt>
      <trkpt lat="41.7452250" lon="-8.8772350">
        <ele>4.7</ele>
        <time>2021-05-18T07:28:17Z</time>
      </trkpt>
      <trkpt lat="41.7452370" lon="-8.8772340">
        <ele>4.7</ele>
        <time>2021-05-18T07:28:18Z</time>
      </trkpt>
      <trkpt lat="41.7452480" lon="-8.8772330">
        <ele>4.7</ele>
        <time>2021-05-18T07:28:19Z</time>
      </trkpt>
      <trkpt lat="41.7452500" lon="-8.8772200">
        <ele>4.7</ele>
        <time>2021-05-18T07:28:20Z</time>
      </trkpt>
      <trkpt lat="41.7452690" lon="-8.8772100">
        <ele>4.8</ele>
        <time>2021-05-18T07:28:21Z</time>
      </trkpt>
      <trkpt lat="41.7452770" lon="-8.8772040">
        <ele>4.8</ele>
        <time>2021-05-18T07:28:22Z</time>
      </trkpt>
      <trkpt lat="41.7452850" lon="-8.8771990">
        <ele>4.8</ele>
        <time>2021-05-18T07:28:23Z</time>
      </trkpt>
      <trkpt lat="41.7452980" lon="-8.8771920">
        <ele>4.8</ele>
        <time>2021-05-18T07:28:24Z</time>
      </trkpt>
      <trkpt lat="41.7453040" lon="-8.8771870">
        <ele>4.8</ele>
        <time>2021-05-18T07:28:25Z</time>
      </trkpt>
      <trkpt lat="41.7453150" lon="-8.8771810">
        <ele>4.8</ele>
        <time>2021-05-18T07:28:26Z</time>
      </trkpt>
      <trkpt lat="41.7453280" lon="-8.8771740">
        <ele>4.8</ele>
        <time>2021-05-18T07:28:27Z</time>
      </trkpt>
      <trkpt lat="41.7453400" lon="-8.8771680">
        <ele>4.8</ele>
        <time>2021-05-18T07:28:28Z</time>
      </trkpt>
      <trkpt lat="41.7453580" lon="-8.8771590">
        <ele>4.8</ele>
        <time>2021-05-18T07:28:29Z</time>
      </trkpt>
      <trkpt lat="41.7453670" lon="-8.8771570">
        <ele>4.8</ele>
        <time>2021-05-18T07:28:30Z</time>
      </trkpt>
      <trkpt lat="41.7453760" lon="-8.8771560">
        <ele>4.8</ele>
        <time>2021-05-18T07:28:31Z</time>
      </trkpt>
      <trkpt lat="41.7453880" lon="-8.8771490">
        <ele>4.8</ele>
        <time>2021-05-18T07:28:32Z</time>
      </trkpt>
      <trkpt lat="41.7454040" lon="-8.8771370">
        <ele>4.9</ele>
        <time>2021-05-18T07:28:33Z</time>
      </trkpt>
      <trkpt lat="41.7454100" lon="-8.8771290">
        <ele>4.9</ele>
        <time>2021-05-18T07:28:34Z</time>
      </trkpt>
      <trkpt lat="41.7454230" lon="-8.8771250">
        <ele>4.9</ele>
        <time>2021-05-18T07:28:35Z</time>
      </trkpt>
      <trkpt lat="41.7454380" lon="-8.8771200">
        <ele>4.9</ele>
        <time>2021-05-18T07:28:36Z</time>
      </trkpt>
      <trkpt lat="41.7454500" lon="-8.8771110">
        <ele>4.9</ele>
        <time>2021-05-18T07:28:37Z</time>
      </trkpt>
      <trkpt lat="41.7454660" lon="-8.8771050">
        <ele>5.0</ele>
        <time>2021-05-18T07:28:38Z</time>
      </trkpt>
      <trkpt lat="41.7454780" lon="-8.8770970">
        <ele>5.0</ele>
        <time>2021-05-18T07:28:39Z</time>
      </trkpt>
      <trkpt lat="41.7454970" lon="-8.8770880">
        <ele>5.0</ele>
        <time>2021-05-18T07:28:40Z</time>
      </trkpt>
      <trkpt lat="41.7455260" lon="-8.8770820">
        <ele>5.1</ele>
        <time>2021-05-18T07:28:41Z</time>
      </trkpt>
      <trkpt lat="41.7455340" lon="-8.8770790">
        <ele>5.1</ele>
        <time>2021-05-18T07:28:42Z</time>
      </trkpt>
      <trkpt lat="41.7455620" lon="-8.8770760">
        <ele>5.1</ele>
        <time>2021-05-18T07:28:43Z</time>
      </trkpt>
      <trkpt lat="41.7455710" lon="-8.8770730">
        <ele>5.2</ele>
        <time>2021-05-18T07:28:44Z</time>
      </trkpt>
      <trkpt lat="41.7455870" lon="-8.8770630">
        <ele>5.2</ele>
        <time>2021-05-18T07:28:45Z</time>
      </trkpt>
      <trkpt lat="41.7456030" lon="-8.8770560">
        <ele>5.2</ele>
        <time>2021-05-18T07:28:46Z</time>
      </trkpt>
      <trkpt lat="41.7456180" lon="-8.8770480">
        <ele>5.3</ele>
        <time>2021-05-18T07:28:47Z</time>
      </trkpt>
      <trkpt lat="41.7456350" lon="-8.8770440">
        <ele>5.3</ele>
        <time>2021-05-18T07:28:48Z</time>
      </trkpt>
      <trkpt lat="41.7456490" lon="-8.8770370">
        <ele>5.3</ele>
        <time>2021-05-18T07:28:49Z</time>
      </trkpt>
      <trkpt lat="41.7456650" lon="-8.8770260">
        <ele>5.4</ele>
        <time>2021-05-18T07:28:50Z</time>
      </trkpt>
      <trkpt lat="41.7456750" lon="-8.8770160">
        <ele>5.4</ele>
        <time>2021-05-18T07:28:51Z</time>
      </trkpt>
      <trkpt lat="41.7456900" lon="-8.8770110">
        <ele>5.4</ele>
        <time>2021-05-18T07:28:52Z</time>
      </trkpt>
      <trkpt lat="41.7457060" lon="-8.8770110">
        <ele>5.5</ele>
        <time>2021-05-18T07:28:53Z</time>
      </trkpt>
      <trkpt lat="41.7457180" lon="-8.8770100">
        <ele>5.5</ele>
        <time>2021-05-18T07:28:54Z</time>
      </trkpt>
      <trkpt lat="41.7457390" lon="-8.8770030">
        <ele>5.6</ele>
        <time>2021-05-18T07:28:55Z</time>
      </trkpt>
      <trkpt lat="41.7457480" lon="-8.8769990">
        <ele>5.6</ele>
        <time>2021-05-18T07:28:56Z</time>
      </trkpt>
      <trkpt lat="41.7457580" lon="-8.8769940">
        <ele>5.6</ele>
        <time>2021-05-18T07:28:57Z</time>
      </trkpt>
      <trkpt lat="41.7457720" lon="-8.8769950">
        <ele>5.7</ele>
        <time>2021-05-18T07:28:58Z</time>
      </trkpt>
      <trkpt lat="41.7457870" lon="-8.8769940">
        <ele>5.7</ele>
        <time>2021-05-18T07:28:59Z</time>
      </trkpt>
      <trkpt lat="41.7457990" lon="-8.8769920">
        <ele>5.7</ele>
        <time>2021-05-18T07:29:00Z</time>
      </trkpt>
      <trkpt lat="41.7458140" lon="-8.8769940">
        <ele>5.8</ele>
        <time>2021-05-18T07:29:01Z</time>
      </trkpt>
      <trkpt lat="41.7458280" lon="-8.8769950">
        <ele>5.8</ele>
        <time>2021-05-18T07:29:02Z</time>
      </trkpt>
      <trkpt lat="41.7458410" lon="-8.8769970">
        <ele>5.8</ele>
        <time>2021-05-18T07:29:03Z</time>
      </trkpt>
      <trkpt lat="41.7458540" lon="-8.8769990">
        <ele>5.9</ele>
        <time>2021-05-18T07:29:04Z</time>
      </trkpt>
      <trkpt lat="41.7458640" lon="-8.8769980">
        <ele>5.9</ele>
        <time>2021-05-18T07:29:05Z</time>
      </trkpt>
      <trkpt lat="41.7458730" lon="-8.8770030">
        <ele>5.9</ele>
        <time>2021-05-18T07:29:06Z</time>
      </trkpt>
      <trkpt lat="41.7458770" lon="-8.8770040">
        <ele>5.9</ele>
        <time>2021-05-18T07:29:07Z</time>
      </trkpt>
      <trkpt lat="41.7458780" lon="-8.8770020">
        <ele>5.9</ele>
        <time>2021-05-18T07:29:08Z</time>
      </trkpt>
      <trkpt lat="41.7458860" lon="-8.8770010">
        <ele>5.9</ele>
        <time>2021-05-18T07:29:09Z</time>
      </trkpt>
      <trkpt lat="41.7459070" lon="-8.8770070">
        <ele>6.0</ele>
        <time>2021-05-18T07:29:10Z</time>
      </trkpt>
      <trkpt lat="41.7459170" lon="-8.8770080">
        <ele>6.0</ele>
        <time>2021-05-18T07:29:11Z</time>
      </trkpt>
      <trkpt lat="41.7459220" lon="-8.8770100">
        <ele>6.0</ele>
        <time>2021-05-18T07:29:12Z</time>
      </trkpt>
      <trkpt lat="41.7459250" lon="-8.8770090">
        <ele>6.0</ele>
        <time>2021-05-18T07:29:13Z</time>
      </trkpt>
      <trkpt lat="41.7459320" lon="-8.8770100">
        <ele>6.1</ele>
        <time>2021-05-18T07:29:14Z</time>
      </trkpt>
      <trkpt lat="41.7459410" lon="-8.8770070">
        <ele>6.1</ele>
        <time>2021-05-18T07:29:15Z</time>
      </trkpt>
      <trkpt lat="41.7459520" lon="-8.8770080">
        <ele>6.1</ele>
        <time>2021-05-18T07:29:16Z</time>
      </trkpt>
      <trkpt lat="41.7459610" lon="-8.8770130">
        <ele>6.1</ele>
        <time>2021-05-18T07:29:17Z</time>
      </trkpt>
      <trkpt lat="41.7459710" lon="-8.8770170">
        <ele>6.2</ele>
        <time>2021-05-18T07:29:18Z</time>
      </trkpt>
      <trkpt lat="41.7459810" lon="-8.8770230">
        <ele>6.2</ele>
        <time>2021-05-18T07:29:19Z</time>
      </trkpt>
      <trkpt lat="41.7459880" lon="-8.8770250">
        <ele>6.2</ele>
        <time>2021-05-18T07:29:20Z</time>
      </trkpt>
      <trkpt lat="41.7460010" lon="-8.8770280">
        <ele>6.2</ele>
        <time>2021-05-18T07:29:21Z</time>
      </trkpt>
      <trkpt lat="41.7460050" lon="-8.8770260">
        <ele>6.2</ele>
        <time>2021-05-18T07:29:22Z</time>
      </trkpt>
      <trkpt lat="41.7460000" lon="-8.8770260">
        <ele>6.3</ele>
        <time>2021-05-18T07:29:23Z</time>
      </trkpt>
      <trkpt lat="41.7459970" lon="-8.8770250">
        <ele>6.3</ele>
        <time>2021-05-18T07:29:24Z</time>
      </trkpt>
      <trkpt lat="41.7459920" lon="-8.8770250">
        <ele>6.3</ele>
        <time>2021-05-18T07:29:25Z</time>
      </trkpt>
      <trkpt lat="41.7459910" lon="-8.8770260">
        <ele>6.3</ele>
        <time>2021-05-18T07:29:26Z</time>
      </trkpt>
      <trkpt lat="41.7459900" lon="-8.8770260">
        <ele>6.3</ele>
        <time>2021-05-18T07:29:27Z</time>
      </trkpt>
      <trkpt lat="41.7459880" lon="-8.8770260">
        <ele>6.3</ele>
        <time>2021-05-18T07:29:28Z</time>
      </trkpt>
      <trkpt lat="41.7459870" lon="-8.8770280">
        <ele>6.3</ele>
        <time>2021-05-18T07:29:29Z</time>
      </trkpt>
      <trkpt lat="41.7459860" lon="-8.8770260">
        <ele>6.3</ele>
        <time>2021-05-18T07:29:30Z</time>
      </trkpt>
      <trkpt lat="41.7459850" lon="-8.8770240">
        <ele>6.3</ele>
        <time>2021-05-18T07:29:31Z</time>
      </trkpt>
      <trkpt lat="41.7459840" lon="-8.8770250">
        <ele>6.3</ele>
        <time>2021-05-18T07:29:32Z</time>
      </trkpt>
      <trkpt lat="41.7459840" lon="-8.8770250">
        <ele>6.3</ele>
        <time>2021-05-18T07:29:33Z</time>
      </trkpt>
      <trkpt lat="41.7459770" lon="-8.8770250">
        <ele>6.3</ele>
        <time>2021-05-18T07:29:34Z</time>
      </trkpt>
      <trkpt lat="41.7459790" lon="-8.8770260">
        <ele>6.3</ele>
        <time>2021-05-18T07:29:35Z</time>
      </trkpt>
      <trkpt lat="41.7459900" lon="-8.8770270">
        <ele>6.3</ele>
        <time>2021-05-18T07:29:36Z</time>
      </trkpt>
      <trkpt lat="41.7460020" lon="-8.8770320">
        <ele>6.4</ele>
        <time>2021-05-18T07:29:37Z</time>
      </trkpt>
      <trkpt lat="41.7460150" lon="-8.8770340">
        <ele>6.4</ele>
        <time>2021-05-18T07:29:38Z</time>
      </trkpt>
      <trkpt lat="41.7460250" lon="-8.8770350">
        <ele>6.4</ele>
        <time>2021-05-18T07:29:39Z</time>
      </trkpt>
      <trkpt lat="41.7460370" lon="-8.8770370">
        <ele>6.5</ele>
        <time>2021-05-18T07:29:40Z</time>
      </trkpt>
      <trkpt lat="41.7460590" lon="-8.8770370">
        <ele>6.5</ele>
        <time>2021-05-18T07:29:41Z</time>
      </trkpt>
      <trkpt lat="41.7460670" lon="-8.8770380">
        <ele>6.5</ele>
        <time>2021-05-18T07:29:42Z</time>
      </trkpt>
      <trkpt lat="41.7460750" lon="-8.8770380">
        <ele>6.5</ele>
        <time>2021-05-18T07:29:43Z</time>
      </trkpt>
      <trkpt lat="41.7460860" lon="-8.8770370">
        <ele>6.6</ele>
        <time>2021-05-18T07:29:44Z</time>
      </trkpt>
      <trkpt lat="41.7460960" lon="-8.8770340">
        <ele>6.6</ele>
        <time>2021-05-18T07:29:45Z</time>
      </trkpt>
      <trkpt lat="41.7460930" lon="-8.8770350">
        <ele>6.6</ele>
        <time>2021-05-18T07:29:46Z</time>
      </trkpt>
      <trkpt lat="41.7460900" lon="-8.8770360">
        <ele>6.6</ele>
        <time>2021-05-18T07:29:47Z</time>
      </trkpt>
      <trkpt lat="41.7461000" lon="-8.8770420">
        <ele>6.6</ele>
        <time>2021-05-18T07:29:48Z</time>
      </trkpt>
      <trkpt lat="41.7461040" lon="-8.8770430">
        <ele>6.6</ele>
        <time>2021-05-18T07:29:49Z</time>
      </trkpt>
      <trkpt lat="41.7461120" lon="-8.8770430">
        <ele>6.7</ele>
        <time>2021-05-18T07:29:50Z</time>
      </trkpt>
      <trkpt lat="41.7461250" lon="-8.8770440">
        <ele>6.7</ele>
        <time>2021-05-18T07:29:51Z</time>
      </trkpt>
      <trkpt lat="41.7461390" lon="-8.8770440">
        <ele>6.7</ele>
        <time>2021-05-18T07:29:52Z</time>
      </trkpt>
      <trkpt lat="41.7461530" lon="-8.8770450">
        <ele>6.7</ele>
        <time>2021-05-18T07:29:53Z</time>
      </trkpt>
      <trkpt lat="41.7461690" lon="-8.8770470">
        <ele>6.7</ele>
        <time>2021-05-18T07:29:54Z</time>
      </trkpt>
      <trkpt lat="41.7461720" lon="-8.8770500">
        <ele>6.7</ele>
        <time>2021-05-18T07:29:55Z</time>
      </trkpt>
      <trkpt lat="41.7461820" lon="-8.8770500">
        <ele>6.7</ele>
        <time>2021-05-18T07:29:56Z</time>
      </trkpt>
      <trkpt lat="41.7461900" lon="-8.8770510">
        <ele>6.7</ele>
        <time>2021-05-18T07:29:57Z</time>
      </trkpt>
      <trkpt lat="41.7462020" lon="-8.8770580">
        <ele>6.8</ele>
        <time>2021-05-18T07:29:58Z</time>
      </trkpt>
      <trkpt lat="41.7462120" lon="-8.8770620">
        <ele>6.8</ele>
        <time>2021-05-18T07:29:59Z</time>
      </trkpt>
      <trkpt lat="41.7462240" lon="-8.8770610">
        <ele>6.8</ele>
        <time>2021-05-18T07:30:00Z</time>
      </trkpt>
      <trkpt lat="41.7462360" lon="-8.8770620">
        <ele>6.8</ele>
        <time>2021-05-18T07:30:01Z</time>
      </trkpt>
      <trkpt lat="41.7462360" lon="-8.8770530">
        <ele>6.8</ele>
        <time>2021-05-18T07:30:02Z</time>
      </trkpt>
      <trkpt lat="41.7462310" lon="-8.8770460">
        <ele>6.8</ele>
        <time>2021-05-18T07:30:03Z</time>
      </trkpt>
      <trkpt lat="41.7462270" lon="-8.8770400">
        <ele>6.8</ele>
        <time>2021-05-18T07:30:04Z</time>
      </trkpt>
      <trkpt lat="41.7462220" lon="-8.8770340">
        <ele>6.8</ele>
        <time>2021-05-18T07:30:05Z</time>
      </trkpt>
      <trkpt lat="41.7462180" lon="-8.8770270">
        <ele>6.8</ele>
        <time>2021-05-18T07:30:06Z</time>
      </trkpt>
      <trkpt lat="41.7462140" lon="-8.8770210">
        <ele>6.8</ele>
        <time>2021-05-18T07:30:07Z</time>
      </trkpt>
      <trkpt lat="41.7462090" lon="-8.8770150">
        <ele>6.8</ele>
        <time>2021-05-18T07:30:08Z</time>
      </trkpt>
      <trkpt lat="41.7462050" lon="-8.8770090">
        <ele>6.8</ele>
        <time>2021-05-18T07:30:09Z</time>
      </trkpt>
      <trkpt lat="41.7462000" lon="-8.8770020">
        <ele>6.8</ele>
        <time>2021-05-18T07:30:10Z</time>
      </trkpt>
      <trkpt lat="41.7461960" lon="-8.8769960">
        <ele>6.8</ele>
        <time>2021-05-18T07:30:11Z</time>
      </trkpt>
      <trkpt lat="41.7461940" lon="-8.8769760">
        <ele>6.9</ele>
        <time>2021-05-18T07:30:12Z</time>
      </trkpt>
      <trkpt lat="41.7461970" lon="-8.8769610">
        <ele>6.9</ele>
        <time>2021-05-18T07:30:13Z</time>
      </trkpt>
      <trkpt lat="41.7462070" lon="-8.8769520">
        <ele>6.9</ele>
        <time>2021-05-18T07:30:14Z</time>
      </trkpt>
      <trkpt lat="41.7462140" lon="-8.8769390">
        <ele>6.9</ele>
        <time>2021-05-18T07:30:15Z</time>
      </trkpt>
      <trkpt lat="41.7462250" lon="-8.8769190">
        <ele>6.9</ele>
        <time>2021-05-18T07:30:16Z</time>
      </trkpt>
      <trkpt lat="41.7462380" lon="-8.8769040">
        <ele>6.9</ele>
        <time>2021-05-18T07:30:17Z</time>
      </trkpt>
      <trkpt lat="41.7462480" lon="-8.8768930">
        <ele>7.0</ele>
        <time>2021-05-18T07:30:18Z</time>
      </trkpt>
      <trkpt lat="41.7462600" lon="-8.8768730">
        <ele>7.0</ele>
        <time>2021-05-18T07:30:19Z</time>
      </trkpt>
      <trkpt lat="41.7462680" lon="-8.8768580">
        <ele>7.0</ele>
        <time>2021-05-18T07:30:20Z</time>
      </trkpt>
      <trkpt lat="41.7462840" lon="-8.8768330">
        <ele>7.0</ele>
        <time>2021-05-18T07:30:21Z</time>
      </trkpt>
      <trkpt lat="41.7462920" lon="-8.8768210">
        <ele>7.1</ele>
        <time>2021-05-18T07:30:22Z</time>
      </trkpt>
      <trkpt lat="41.7463000" lon="-8.8768050">
        <ele>7.1</ele>
        <time>2021-05-18T07:30:23Z</time>
      </trkpt>
      <trkpt lat="41.7463090" lon="-8.8767830">
        <ele>7.1</ele>
        <time>2021-05-18T07:30:24Z</time>
      </trkpt>
      <trkpt lat="41.7463190" lon="-8.8767680">
        <ele>7.1</ele>
        <time>2021-05-18T07:30:25Z</time>
      </trkpt>
      <trkpt lat="41.7463250" lon="-8.8767470">
        <ele>7.2</ele>
        <time>2021-05-18T07:30:26Z</time>
      </trkpt>
      <trkpt lat="41.7463370" lon="-8.8767330">
        <ele>7.2</ele>
        <time>2021-05-18T07:30:27Z</time>
      </trkpt>
      <trkpt lat="41.7463470" lon="-8.8767160">
        <ele>7.2</ele>
        <time>2021-05-18T07:30:28Z</time>
      </trkpt>
      <trkpt lat="41.7463600" lon="-8.8767050">
        <ele>7.2</ele>
        <time>2021-05-18T07:30:29Z</time>
      </trkpt>
      <trkpt lat="41.7463710" lon="-8.8766910">
        <ele>7.2</ele>
        <time>2021-05-18T07:30:30Z</time>
      </trkpt>
      <trkpt lat="41.7463840" lon="-8.8766740">
        <ele>7.3</ele>
        <time>2021-05-18T07:30:31Z</time>
      </trkpt>
      <trkpt lat="41.7463950" lon="-8.8766630">
        <ele>7.3</ele>
        <time>2021-05-18T07:30:32Z</time>
      </trkpt>
      <trkpt lat="41.7464110" lon="-8.8766550">
        <ele>7.3</ele>
        <time>2021-05-18T07:30:33Z</time>
      </trkpt>
      <trkpt lat="41.7464240" lon="-8.8766420">
        <ele>7.3</ele>
        <time>2021-05-18T07:30:34Z</time>
      </trkpt>
      <trkpt lat="41.7464380" lon="-8.8766320">
        <ele>7.3</ele>
        <time>2021-05-18T07:30:35Z</time>
      </trkpt>
      <trkpt lat="41.7464510" lon="-8.8766290">
        <ele>7.4</ele>
        <time>2021-05-18T07:30:36Z</time>
      </trkpt>
      <trkpt lat="41.7464640" lon="-8.8766200">
        <ele>7.4</ele>
        <time>2021-05-18T07:30:37Z</time>
      </trkpt>
      <trkpt lat="41.7464780" lon="-8.8766150">
        <ele>7.4</ele>
        <time>2021-05-18T07:30:38Z</time>
      </trkpt>
      <trkpt lat="41.7464900" lon="-8.8766060">
        <ele>7.4</ele>
        <time>2021-05-18T07:30:39Z</time>
      </trkpt>
      <trkpt lat="41.7465030" lon="-8.8766060">
        <ele>7.4</ele>
        <time>2021-05-18T07:30:40Z</time>
      </trkpt>
      <trkpt lat="41.7465090" lon="-8.8766110">
        <ele>7.4</ele>
        <time>2021-05-18T07:30:42Z</time>
      </trkpt>
      <trkpt lat="41.7465030" lon="-8.8766110">
        <ele>7.4</ele>
        <time>2021-05-18T07:30:43Z</time>
      </trkpt>
      <trkpt lat="41.7464950" lon="-8.8766100">
        <ele>7.4</ele>
        <time>2021-05-18T07:30:44Z</time>
      </trkpt>
      <trkpt lat="41.7464950" lon="-8.8766110">
        <ele>7.4</ele>
        <time>2021-05-18T07:30:45Z</time>
      </trkpt>
      <trkpt lat="41.7464950" lon="-8.8766110">
        <ele>7.4</ele>
        <time>2021-05-18T07:30:46Z</time>
      </trkpt>
      <trkpt lat="41.7464920" lon="-8.8766150">
        <ele>7.4</ele>
        <time>2021-05-18T07:30:47Z</time>
      </trkpt>
      <trkpt lat="41.7464850" lon="-8.8766140">
        <ele>7.4</ele>
        <time>2021-05-18T07:30:48Z</time>
      </trkpt>
      <trkpt lat="41.7464800" lon="-8.8766140">
        <ele>7.4</ele>
        <time>2021-05-18T07:30:49Z</time>
      </trkpt>
      <trkpt lat="41.7464770" lon="-8.8766140">
        <ele>7.4</ele>
        <time>2021-05-18T07:30:50Z</time>
      </trkpt>
      <trkpt lat="41.7464840" lon="-8.8766120">
        <ele>7.5</ele>
        <time>2021-05-18T07:30:51Z</time>
      </trkpt>
      <trkpt lat="41.7464980" lon="-8.8766070">
        <ele>7.5</ele>
        <time>2021-05-18T07:30:52Z</time>
      </trkpt>
      <trkpt lat="41.7465090" lon="-8.8766030">
        <ele>7.5</ele>
        <time>2021-05-18T07:30:53Z</time>
      </trkpt>
      <trkpt lat="41.7465130" lon="-8.8765990">
        <ele>7.5</ele>
        <time>2021-05-18T07:30:54Z</time>
      </trkpt>
      <trkpt lat="41.7465280" lon="-8.8765940">
        <ele>7.5</ele>
        <time>2021-05-18T07:30:55Z</time>
      </trkpt>
      <trkpt lat="41.7465390" lon="-8.8765910">
        <ele>7.5</ele>
        <time>2021-05-18T07:30:56Z</time>
      </trkpt>
      <trkpt lat="41.7465570" lon="-8.8765810">
        <ele>7.5</ele>
        <time>2021-05-18T07:30:57Z</time>
      </trkpt>
      <trkpt lat="41.7465650" lon="-8.8765750">
        <ele>7.6</ele>
        <time>2021-05-18T07:30:58Z</time>
      </trkpt>
      <trkpt lat="41.7465720" lon="-8.8765690">
        <ele>7.6</ele>
        <time>2021-05-18T07:30:59Z</time>
      </trkpt>
      <trkpt lat="41.7465790" lon="-8.8765630">
        <ele>7.6</ele>
        <time>2021-05-18T07:31:00Z</time>
      </trkpt>
      <trkpt lat="41.7465890" lon="-8.8765610">
        <ele>7.6</ele>
        <time>2021-05-18T07:31:01Z</time>
      </trkpt>
      <trkpt lat="41.7465980" lon="-8.8765570">
        <ele>7.6</ele>
        <time>2021-05-18T07:31:02Z</time>
      </trkpt>
      <trkpt lat="41.7466130" lon="-8.8765580">
        <ele>7.6</ele>
        <time>2021-05-18T07:31:03Z</time>
      </trkpt>
      <trkpt lat="41.7466330" lon="-8.8765540">
        <ele>7.7</ele>
        <time>2021-05-18T07:31:04Z</time>
      </trkpt>
      <trkpt lat="41.7466560" lon="-8.8765490">
        <ele>7.7</ele>
        <time>2021-05-18T07:31:05Z</time>
      </trkpt>
      <trkpt lat="41.7466640" lon="-8.8765470">
        <ele>7.7</ele>
        <time>2021-05-18T07:31:06Z</time>
      </trkpt>
      <trkpt lat="41.7466720" lon="-8.8765460">
        <ele>7.8</ele>
        <time>2021-05-18T07:31:07Z</time>
      </trkpt>
      <trkpt lat="41.7466940" lon="-8.8765390">
        <ele>7.8</ele>
        <time>2021-05-18T07:31:08Z</time>
      </trkpt>
      <trkpt lat="41.7467010" lon="-8.8765410">
        <ele>7.8</ele>
        <time>2021-05-18T07:31:09Z</time>
      </trkpt>
      <trkpt lat="41.7467090" lon="-8.8765420">
        <ele>7.9</ele>
        <time>2021-05-18T07:31:10Z</time>
      </trkpt>
      <trkpt lat="41.7467300" lon="-8.8765370">
        <ele>7.9</ele>
        <time>2021-05-18T07:31:11Z</time>
      </trkpt>
      <trkpt lat="41.7467390" lon="-8.8765350">
        <ele>7.9</ele>
        <time>2021-05-18T07:31:12Z</time>
      </trkpt>
      <trkpt lat="41.7467480" lon="-8.8765330">
        <ele>8.0</ele>
        <time>2021-05-18T07:31:13Z</time>
      </trkpt>
      <trkpt lat="41.7467630" lon="-8.8765300">
        <ele>8.0</ele>
        <time>2021-05-18T07:31:14Z</time>
      </trkpt>
      <trkpt lat="41.7467770" lon="-8.8765280">
        <ele>8.0</ele>
        <time>2021-05-18T07:31:15Z</time>
      </trkpt>
      <trkpt lat="41.7468050" lon="-8.8765210">
        <ele>8.2</ele>
        <time>2021-05-18T07:31:16Z</time>
      </trkpt>
      <trkpt lat="41.7468130" lon="-8.8765150">
        <ele>8.2</ele>
        <time>2021-05-18T07:31:17Z</time>
      </trkpt>
      <trkpt lat="41.7468290" lon="-8.8765070">
        <ele>8.2</ele>
        <time>2021-05-18T07:31:18Z</time>
      </trkpt>
      <trkpt lat="41.7468400" lon="-8.8765010">
        <ele>8.3</ele>
        <time>2021-05-18T07:31:19Z</time>
      </trkpt>
      <trkpt lat="41.7468620" lon="-8.8764960">
        <ele>8.4</ele>
        <time>2021-05-18T07:31:20Z</time>
      </trkpt>
      <trkpt lat="41.7468710" lon="-8.8764910">
        <ele>8.4</ele>
        <time>2021-05-18T07:31:21Z</time>
      </trkpt>
      <trkpt lat="41.7468800" lon="-8.8764850">
        <ele>8.5</ele>
        <time>2021-05-18T07:31:22Z</time>
      </trkpt>
      <trkpt lat="41.7468900" lon="-8.8764770">
        <ele>8.5</ele>
        <time>2021-05-18T07:31:23Z</time>
      </trkpt>
      <trkpt lat="41.7468980" lon="-8.8764690">
        <ele>8.6</ele>
        <time>2021-05-18T07:31:24Z</time>
      </trkpt>
      <trkpt lat="41.7469060" lon="-8.8764610">
        <ele>8.6</ele>
        <time>2021-05-18T07:31:25Z</time>
      </trkpt>
      <trkpt lat="41.7469150" lon="-8.8764500">
        <ele>8.7</ele>
        <time>2021-05-18T07:31:26Z</time>
      </trkpt>
      <trkpt lat="41.7469270" lon="-8.8764380">
        <ele>8.8</ele>
        <time>2021-05-18T07:31:27Z</time>
      </trkpt>
      <trkpt lat="41.7469420" lon="-8.8764200">
        <ele>8.9</ele>
        <time>2021-05-18T07:31:28Z</time>
      </trkpt>
      <trkpt lat="41.7469500" lon="-8.8764120">
        <ele>9.0</ele>
        <time>2021-05-18T07:31:29Z</time>
      </trkpt>
      <trkpt lat="41.7469580" lon="-8.8764040">
        <ele>9.0</ele>
        <time>2021-05-18T07:31:30Z</time>
      </trkpt>
      <trkpt lat="41.7469730" lon="-8.8763870">
        <ele>9.2</ele>
        <time>2021-05-18T07:31:31Z</time>
      </trkpt>
      <trkpt lat="41.7469800" lon="-8.8763780">
        <ele>9.2</ele>
        <time>2021-05-18T07:31:32Z</time>
      </trkpt>
      <trkpt lat="41.7469860" lon="-8.8763690">
        <ele>9.3</ele>
        <time>2021-05-18T07:31:33Z</time>
      </trkpt>
      <trkpt lat="41.7469960" lon="-8.8763440">
        <ele>9.4</ele>
        <time>2021-05-18T07:31:34Z</time>
      </trkpt>
      <trkpt lat="41.7470020" lon="-8.8763350">
        <ele>9.5</ele>
        <time>2021-05-18T07:31:35Z</time>
      </trkpt>
      <trkpt lat="41.7470080" lon="-8.8763250">
        <ele>9.6</ele>
        <time>2021-05-18T07:31:36Z</time>
      </trkpt>
      <trkpt lat="41.7470140" lon="-8.8763080">
        <ele>9.8</ele>
        <time>2021-05-18T07:31:37Z</time>
      </trkpt>
      <trkpt lat="41.7470160" lon="-8.8762850">
        <ele>9.9</ele>
        <time>2021-05-18T07:31:38Z</time>
      </trkpt>
      <trkpt lat="41.7470250" lon="-8.8762640">
        <ele>10.1</ele>
        <time>2021-05-18T07:31:39Z</time>
      </trkpt>
      <trkpt lat="41.7470240" lon="-8.8762470">
        <ele>10.3</ele>
        <time>2021-05-18T07:31:40Z</time>
      </trkpt>
      <trkpt lat="41.7470350" lon="-8.8762300">
        <ele>10.5</ele>
        <time>2021-05-18T07:31:41Z</time>
      </trkpt>
      <trkpt lat="41.7470380" lon="-8.8762130">
        <ele>10.6</ele>
        <time>2021-05-18T07:31:42Z</time>
      </trkpt>
      <trkpt lat="41.7470450" lon="-8.8761950">
        <ele>10.8</ele>
        <time>2021-05-18T07:31:43Z</time>
      </trkpt>
      <trkpt lat="41.7470520" lon="-8.8761800">
        <ele>11.0</ele>
        <time>2021-05-18T07:31:44Z</time>
      </trkpt>
      <trkpt lat="41.7470540" lon="-8.8761640">
        <ele>11.1</ele>
        <time>2021-05-18T07:31:45Z</time>
      </trkpt>
      <trkpt lat="41.7470570" lon="-8.8761500">
        <ele>11.3</ele>
        <time>2021-05-18T07:31:46Z</time>
      </trkpt>
      <trkpt lat="41.7470570" lon="-8.8761350">
        <ele>11.4</ele>
        <time>2021-05-18T07:31:47Z</time>
      </trkpt>
      <trkpt lat="41.7470630" lon="-8.8761180">
        <ele>11.6</ele>
        <time>2021-05-18T07:31:48Z</time>
      </trkpt>
      <trkpt lat="41.7470670" lon="-8.8760990">
        <ele>11.8</ele>
        <time>2021-05-18T07:31:49Z</time>
      </trkpt>
      <trkpt lat="41.7470720" lon="-8.8760760">
        <ele>12.1</ele>
        <time>2021-05-18T07:31:50Z</time>
      </trkpt>
      <trkpt lat="41.7470810" lon="-8.8760670">
        <ele>12.2</ele>
        <time>2021-05-18T07:31:51Z</time>
      </trkpt>
      <trkpt lat="41.7470900" lon="-8.8760420">
        <ele>12.5</ele>
        <time>2021-05-18T07:31:52Z</time>
      </trkpt>
      <trkpt lat="41.7470930" lon="-8.8760310">
        <ele>12.6</ele>
        <time>2021-05-18T07:31:53Z</time>
      </trkpt>
      <trkpt lat="41.7470960" lon="-8.8760210">
        <ele>12.8</ele>
        <time>2021-05-18T07:31:54Z</time>
      </trkpt>
      <trkpt lat="41.7471000" lon="-8.8760110">
        <ele>12.9</ele>
        <time>2021-05-18T07:31:55Z</time>
      </trkpt>
      <trkpt lat="41.7471030" lon="-8.8759990">
        <ele>13.0</ele>
        <time>2021-05-18T07:31:56Z</time>
      </trkpt>
      <trkpt lat="41.7471070" lon="-8.8759820">
        <ele>13.2</ele>
        <time>2021-05-18T07:31:57Z</time>
      </trkpt>
      <trkpt lat="41.7471240" lon="-8.8759630">
        <ele>13.6</ele>
        <time>2021-05-18T07:31:58Z</time>
      </trkpt>
      <trkpt lat="41.7471320" lon="-8.8759570">
        <ele>13.7</ele>
        <time>2021-05-18T07:31:59Z</time>
      </trkpt>
      <trkpt lat="41.7471390" lon="-8.8759520">
        <ele>13.8</ele>
        <time>2021-05-18T07:32:00Z</time>
      </trkpt>
      <trkpt lat="41.7471450" lon="-8.8759440">
        <ele>14.0</ele>
        <time>2021-05-18T07:32:01Z</time>
      </trkpt>
      <trkpt lat="41.7471520" lon="-8.8759310">
        <ele>14.2</ele>
        <time>2021-05-18T07:32:02Z</time>
      </trkpt>
      <trkpt lat="41.7471600" lon="-8.8759210">
        <ele>14.3</ele>
        <time>2021-05-18T07:32:03Z</time>
      </trkpt>
      <trkpt lat="41.7471790" lon="-8.8759080">
        <ele>14.7</ele>
        <time>2021-05-18T07:32:04Z</time>
      </trkpt>
      <trkpt lat="41.7471870" lon="-8.8759050">
        <ele>14.8</ele>
        <time>2021-05-18T07:32:05Z</time>
      </trkpt>
      <trkpt lat="41.7471940" lon="-8.8759020">
        <ele>14.9</ele>
        <time>2021-05-18T07:32:06Z</time>
      </trkpt>
      <trkpt lat="41.7472120" lon="-8.8759000">
        <ele>15.2</ele>
        <time>2021-05-18T07:32:07Z</time>
      </trkpt>
      <trkpt lat="41.7472280" lon="-8.8758990">
        <ele>15.5</ele>
        <time>2021-05-18T07:32:08Z</time>
      </trkpt>
      <trkpt lat="41.7472370" lon="-8.8758980">
        <ele>15.6</ele>
        <time>2021-05-18T07:32:09Z</time>
      </trkpt>
      <trkpt lat="41.7472440" lon="-8.8758940">
        <ele>15.8</ele>
        <time>2021-05-18T07:32:10Z</time>
      </trkpt>
      <trkpt lat="41.7472530" lon="-8.8758930">
        <ele>15.9</ele>
        <time>2021-05-18T07:32:11Z</time>
      </trkpt>
      <trkpt lat="41.7472550" lon="-8.8758870">
        <ele>16.0</ele>
        <time>2021-05-18T07:32:12Z</time>
      </trkpt>
      <trkpt lat="41.7472640" lon="-8.8758850">
        <ele>16.1</ele>
        <time>2021-05-18T07:32:13Z</time>
      </trkpt>
      <trkpt lat="41.7472760" lon="-8.8758800">
        <ele>16.3</ele>
        <time>2021-05-18T07:32:14Z</time>
      </trkpt>
      <trkpt lat="41.7472860" lon="-8.8758730">
        <ele>16.5</ele>
        <time>2021-05-18T07:32:15Z</time>
      </trkpt>
      <trkpt lat="41.7472960" lon="-8.8758700">
        <ele>16.7</ele>
        <time>2021-05-18T07:32:16Z</time>
      </trkpt>
      <trkpt lat="41.7473080" lon="-8.8758720">
        <ele>16.9</ele>
        <time>2021-05-18T07:32:17Z</time>
      </trkpt>
      <trkpt lat="41.7473170" lon="-8.8758680">
        <ele>17.1</ele>
        <time>2021-05-18T07:32:18Z</time>
      </trkpt>
      <trkpt lat="41.7473290" lon="-8.8758560">
        <ele>17.3</ele>
        <time>2021-05-18T07:32:19Z</time>
      </trkpt>
      <trkpt lat="41.7473410" lon="-8.8758460">
        <ele>17.6</ele>
        <time>2021-05-18T07:32:20Z</time>
      </trkpt>
      <trkpt lat="41.7473530" lon="-8.8758320">
        <ele>17.8</ele>
        <time>2021-05-18T07:32:21Z</time>
      </trkpt>
      <trkpt lat="41.7473590" lon="-8.8758260">
        <ele>18.0</ele>
        <time>2021-05-18T07:32:22Z</time>
      </trkpt>
      <trkpt lat="41.7473660" lon="-8.8758200">
        <ele>18.1</ele>
        <time>2021-05-18T07:32:23Z</time>
      </trkpt>
      <trkpt lat="41.7473720" lon="-8.8758140">
        <ele>18.2</ele>
        <time>2021-05-18T07:32:24Z</time>
      </trkpt>
      <trkpt lat="41.7473780" lon="-8.8758080">
        <ele>18.4</ele>
        <time>2021-05-18T07:32:25Z</time>
      </trkpt>
      <trkpt lat="41.7473880" lon="-8.8758030">
        <ele>18.5</ele>
        <time>2021-05-18T07:32:26Z</time>
      </trkpt>
      <trkpt lat="41.7473910" lon="-8.8757920">
        <ele>18.7</ele>
        <time>2021-05-18T07:32:27Z</time>
      </trkpt>
      <trkpt lat="41.7473920" lon="-8.8757760">
        <ele>18.9</ele>
        <time>2021-05-18T07:32:28Z</time>
      </trkpt>
      <trkpt lat="41.7473970" lon="-8.8757620">
        <ele>19.1</ele>
        <time>2021-05-18T07:32:29Z</time>
      </trkpt>
      <trkpt lat="41.7474000" lon="-8.8757480">
        <ele>19.3</ele>
        <time>2021-05-18T07:32:30Z</time>
      </trkpt>
      <trkpt lat="41.7474030" lon="-8.8757380">
        <ele>19.4</ele>
        <time>2021-05-18T07:32:31Z</time>
      </trkpt>
      <trkpt lat="41.7474090" lon="-8.8757300">
        <ele>19.6</ele>
        <time>2021-05-18T07:32:32Z</time>
      </trkpt>
      <trkpt lat="41.7474190" lon="-8.8757130">
        <ele>19.8</ele>
        <time>2021-05-18T07:32:33Z</time>
      </trkpt>
      <trkpt lat="41.7474290" lon="-8.8757060">
        <ele>20.0</ele>
        <time>2021-05-18T07:32:34Z</time>
      </trkpt>
      <trkpt lat="41.7474380" lon="-8.8756960">
        <ele>20.2</ele>
        <time>2021-05-18T07:32:36Z</time>
      </trkpt>
      <trkpt lat="41.7474490" lon="-8.8756890">
        <ele>20.4</ele>
        <time>2021-05-18T07:32:37Z</time>
      </trkpt>
      <trkpt lat="41.7474560" lon="-8.8756790">
        <ele>20.6</ele>
        <time>2021-05-18T07:32:38Z</time>
      </trkpt>
      <trkpt lat="41.7474600" lon="-8.8756600">
        <ele>20.9</ele>
        <time>2021-05-18T07:32:39Z</time>
      </trkpt>
      <trkpt lat="41.7474670" lon="-8.8756530">
        <ele>21.0</ele>
        <time>2021-05-18T07:32:40Z</time>
      </trkpt>
      <trkpt lat="41.7474710" lon="-8.8756430">
        <ele>21.1</ele>
        <time>2021-05-18T07:32:41Z</time>
      </trkpt>
      <trkpt lat="41.7474780" lon="-8.8756310">
        <ele>21.3</ele>
        <time>2021-05-18T07:32:42Z</time>
      </trkpt>
      <trkpt lat="41.7474900" lon="-8.8756170">
        <ele>21.5</ele>
        <time>2021-05-18T07:32:43Z</time>
      </trkpt>
      <trkpt lat="41.7474940" lon="-8.8756010">
        <ele>21.7</ele>
        <time>2021-05-18T07:32:44Z</time>
      </trkpt>
      <trkpt lat="41.7474990" lon="-8.8755890">
        <ele>21.9</ele>
        <time>2021-05-18T07:32:45Z</time>
      </trkpt>
      <trkpt lat="41.7475060" lon="-8.8755750">
        <ele>22.0</ele>
        <time>2021-05-18T07:32:46Z</time>
      </trkpt>
      <trkpt lat="41.7475130" lon="-8.8755590">
        <ele>22.2</ele>
        <time>2021-05-18T07:32:47Z</time>
      </trkpt>
      <trkpt lat="41.7475190" lon="-8.8755520">
        <ele>22.3</ele>
        <time>2021-05-18T07:32:48Z</time>
      </trkpt>
      <trkpt lat="41.7475210" lon="-8.8755360">
        <ele>22.5</ele>
        <time>2021-05-18T07:32:49Z</time>
      </trkpt>
      <trkpt lat="41.7475280" lon="-8.8755270">
        <ele>22.6</ele>
        <time>2021-05-18T07:32:50Z</time>
      </trkpt>
      <trkpt lat="41.7475370" lon="-8.8755130">
        <ele>22.8</ele>
        <time>2021-05-18T07:32:51Z</time>
      </trkpt>
      <trkpt lat="41.7475460" lon="-8.8755030">
        <ele>22.9</ele>
        <time>2021-05-18T07:32:52Z</time>
      </trkpt>
      <trkpt lat="41.7475550" lon="-8.8754940">
        <ele>23.0</ele>
        <time>2021-05-18T07:32:53Z</time>
      </trkpt>
      <trkpt lat="41.7475700" lon="-8.8754860">
        <ele>23.2</ele>
        <time>2021-05-18T07:32:54Z</time>
      </trkpt>
      <trkpt lat="41.7475900" lon="-8.8754770">
        <ele>23.4</ele>
        <time>2021-05-18T07:32:55Z</time>
      </trkpt>
      <trkpt lat="41.7475960" lon="-8.8754580">
        <ele>23.5</ele>
        <time>2021-05-18T07:32:56Z</time>
      </trkpt>
      <trkpt lat="41.7476070" lon="-8.8754400">
        <ele>23.7</ele>
        <time>2021-05-18T07:32:57Z</time>
      </trkpt>
      <trkpt lat="41.7476160" lon="-8.8754310">
        <ele>23.8</ele>
        <time>2021-05-18T07:32:58Z</time>
      </trkpt>
      <trkpt lat="41.7476240" lon="-8.8754230">
        <ele>23.9</ele>
        <time>2021-05-18T07:32:59Z</time>
      </trkpt>
      <trkpt lat="41.7476320" lon="-8.8754140">
        <ele>24.0</ele>
        <time>2021-05-18T07:33:00Z</time>
      </trkpt>
      <trkpt lat="41.7476340" lon="-8.8754010">
        <ele>24.0</ele>
        <time>2021-05-18T07:33:01Z</time>
      </trkpt>
      <trkpt lat="41.7476340" lon="-8.8753830">
        <ele>24.1</ele>
        <time>2021-05-18T07:33:02Z</time>
      </trkpt>
      <trkpt lat="41.7476420" lon="-8.8753720">
        <ele>24.2</ele>
        <time>2021-05-18T07:33:03Z</time>
      </trkpt>
      <trkpt lat="41.7476470" lon="-8.8753480">
        <ele>24.3</ele>
        <time>2021-05-18T07:33:04Z</time>
      </trkpt>
      <trkpt lat="41.7476530" lon="-8.8753400">
        <ele>24.4</ele>
        <time>2021-05-18T07:33:05Z</time>
      </trkpt>
      <trkpt lat="41.7476640" lon="-8.8753330">
        <ele>24.4</ele>
        <time>2021-05-18T07:33:06Z</time>
      </trkpt>
      <trkpt lat="41.7476770" lon="-8.8753230">
        <ele>24.5</ele>
        <time>2021-05-18T07:33:07Z</time>
      </trkpt>
      <trkpt lat="41.7476840" lon="-8.8752980">
        <ele>24.6</ele>
        <time>2021-05-18T07:33:08Z</time>
      </trkpt>
      <trkpt lat="41.7476870" lon="-8.8752860">
        <ele>24.7</ele>
        <time>2021-05-18T07:33:09Z</time>
      </trkpt>
      <trkpt lat="41.7476890" lon="-8.8752750">
        <ele>24.7</ele>
        <time>2021-05-18T07:33:10Z</time>
      </trkpt>
      <trkpt lat="41.7476850" lon="-8.8752600">
        <ele>24.8</ele>
        <time>2021-05-18T07:33:11Z</time>
      </trkpt>
      <trkpt lat="41.7476910" lon="-8.8752440">
        <ele>24.8</ele>
        <time>2021-05-18T07:33:12Z</time>
      </trkpt>
      <trkpt lat="41.7476970" lon="-8.8752330">
        <ele>24.9</ele>
        <time>2021-05-18T07:33:13Z</time>
      </trkpt>
      <trkpt lat="41.7477000" lon="-8.8752270">
        <ele>24.9</ele>
        <time>2021-05-18T07:33:14Z</time>
      </trkpt>
      <trkpt lat="41.7477150" lon="-8.8752180">
        <ele>25.0</ele>
        <time>2021-05-18T07:33:15Z</time>
      </trkpt>
      <trkpt lat="41.7477220" lon="-8.8752090">
        <ele>25.0</ele>
        <time>2021-05-18T07:33:16Z</time>
      </trkpt>
      <trkpt lat="41.7477380" lon="-8.8751860">
        <ele>25.1</ele>
        <time>2021-05-18T07:33:17Z</time>
      </trkpt>
      <trkpt lat="41.7477400" lon="-8.8751760">
        <ele>25.2</ele>
        <time>2021-05-18T07:33:18Z</time>
      </trkpt>
      <trkpt lat="41.7477410" lon="-8.8751660">
        <ele>25.2</ele>
        <time>2021-05-18T07:33:19Z</time>
      </trkpt>
      <trkpt lat="41.7477570" lon="-8.8751370">
        <ele>25.3</ele>
        <time>2021-05-18T07:33:20Z</time>
      </trkpt>
      <trkpt lat="41.7477620" lon="-8.8751210">
        <ele>25.4</ele>
        <time>2021-05-18T07:33:21Z</time>
      </trkpt>
      <trkpt lat="41.7477670" lon="-8.8751060">
        <ele>25.5</ele>
        <time>2021-05-18T07:33:22Z</time>
      </trkpt>
      <trkpt lat="41.7477780" lon="-8.8750890">
        <ele>25.5</ele>
        <time>2021-05-18T07:33:23Z</time>
      </trkpt>
      <trkpt lat="41.7477820" lon="-8.8750780">
        <ele>25.6</ele>
        <time>2021-05-18T07:33:24Z</time>
      </trkpt>
      <trkpt lat="41.7477930" lon="-8.8750630">
        <ele>25.7</ele>
        <time>2021-05-18T07:33:25Z</time>
      </trkpt>
      <trkpt lat="41.7477960" lon="-8.8750530">
        <ele>25.7</ele>
        <time>2021-05-18T07:33:26Z</time>
      </trkpt>
      <trkpt lat="41.7478050" lon="-8.8750530">
        <ele>25.7</ele>
        <time>2021-05-18T07:33:28Z</time>
      </trkpt>
      <trkpt lat="41.7478160" lon="-8.8750440">
        <ele>25.9</ele>
        <time>2021-05-18T07:33:29Z</time>
      </trkpt>
      <trkpt lat="41.7478240" lon="-8.8750370">
        <ele>25.9</ele>
        <time>2021-05-18T07:33:30Z</time>
      </trkpt>
      <trkpt lat="41.7478290" lon="-8.8750280">
        <ele>26.0</ele>
        <time>2021-05-18T07:33:31Z</time>
      </trkpt>
      <trkpt lat="41.7478420" lon="-8.8750210">
        <ele>26.1</ele>
        <time>2021-05-18T07:33:32Z</time>
      </trkpt>
      <trkpt lat="41.7478530" lon="-8.8750140">
        <ele>26.2</ele>
        <time>2021-05-18T07:33:33Z</time>
      </trkpt>
      <trkpt lat="41.7478630" lon="-8.8750040">
        <ele>26.2</ele>
        <time>2021-05-18T07:33:34Z</time>
      </trkpt>
      <trkpt lat="41.7478680" lon="-8.8749950">
        <ele>26.3</ele>
        <time>2021-05-18T07:33:35Z</time>
      </trkpt>
      <trkpt lat="41.7478760" lon="-8.8749880">
        <ele>26.4</ele>
        <time>2021-05-18T07:33:36Z</time>
      </trkpt>
      <trkpt lat="41.7478940" lon="-8.8749710">
        <ele>26.5</ele>
        <time>2021-05-18T07:33:37Z</time>
      </trkpt>
      <trkpt lat="41.7479010" lon="-8.8749650">
        <ele>26.6</ele>
        <time>2021-05-18T07:33:38Z</time>
      </trkpt>
      <trkpt lat="41.7479070" lon="-8.8749580">
        <ele>26.6</ele>
        <time>2021-05-18T07:33:39Z</time>
      </trkpt>
      <trkpt lat="41.7479220" lon="-8.8749500">
        <ele>26.8</ele>
        <time>2021-05-18T07:33:40Z</time>
      </trkpt>
      <trkpt lat="41.7479330" lon="-8.8749410">
        <ele>26.9</ele>
        <time>2021-05-18T07:33:41Z</time>
      </trkpt>
      <trkpt lat="41.7479390" lon="-8.8749320">
        <ele>26.9</ele>
        <time>2021-05-18T07:33:42Z</time>
      </trkpt>
      <trkpt lat="41.7479480" lon="-8.8749250">
        <ele>27.0</ele>
        <time>2021-05-18T07:33:43Z</time>
      </trkpt>
      <trkpt lat="41.7479560" lon="-8.8749140">
        <ele>27.1</ele>
        <time>2021-05-18T07:33:44Z</time>
      </trkpt>
      <trkpt lat="41.7479650" lon="-8.8749080">
        <ele>27.2</ele>
        <time>2021-05-18T07:33:45Z</time>
      </trkpt>
      <trkpt lat="41.7479700" lon="-8.8748990">
        <ele>27.3</ele>
        <time>2021-05-18T07:33:46Z</time>
      </trkpt>
      <trkpt lat="41.7479840" lon="-8.8748900">
        <ele>27.4</ele>
        <time>2021-05-18T07:33:47Z</time>
      </trkpt>
      <trkpt lat="41.7479900" lon="-8.8748860">
        <ele>27.5</ele>
        <time>2021-05-18T07:33:48Z</time>
      </trkpt>
      <trkpt lat="41.7480010" lon="-8.8748780">
        <ele>27.6</ele>
        <time>2021-05-18T07:33:49Z</time>
      </trkpt>
      <trkpt lat="41.7480080" lon="-8.8748660">
        <ele>27.7</ele>
        <time>2021-05-18T07:33:50Z</time>
      </trkpt>
      <trkpt lat="41.7480230" lon="-8.8748550">
        <ele>27.8</ele>
        <time>2021-05-18T07:33:51Z</time>
      </trkpt>
      <trkpt lat="41.7480280" lon="-8.8748440">
        <ele>27.9</ele>
        <time>2021-05-18T07:33:52Z</time>
      </trkpt>
      <trkpt lat="41.7480370" lon="-8.8748420">
        <ele>28.0</ele>
        <time>2021-05-18T07:33:53Z</time>
      </trkpt>
      <trkpt lat="41.7480470" lon="-8.8748350">
        <ele>28.1</ele>
        <time>2021-05-18T07:33:54Z</time>
      </trkpt>
      <trkpt lat="41.7480570" lon="-8.8748240">
        <ele>28.2</ele>
        <time>2021-05-18T07:33:55Z</time>
      </trkpt>
      <trkpt lat="41.7480690" lon="-8.8748210">
        <ele>28.3</ele>
        <time>2021-05-18T07:33:56Z</time>
      </trkpt>
      <trkpt lat="41.7480780" lon="-8.8748160">
        <ele>28.4</ele>
        <time>2021-05-18T07:33:57Z</time>
      </trkpt>
      <trkpt lat="41.7480890" lon="-8.8748070">
        <ele>28.5</ele>
        <time>2021-05-18T07:33:58Z</time>
      </trkpt>
      <trkpt lat="41.7480990" lon="-8.8747970">
        <ele>28.7</ele>
        <time>2021-05-18T07:33:59Z</time>
      </trkpt>
      <trkpt lat="41.7481080" lon="-8.8747890">
        <ele>28.8</ele>
        <time>2021-05-18T07:34:00Z</time>
      </trkpt>
      <trkpt lat="41.7481180" lon="-8.8747870">
        <ele>28.9</ele>
        <time>2021-05-18T07:34:01Z</time>
      </trkpt>
      <trkpt lat="41.7481320" lon="-8.8747810">
        <ele>29.0</ele>
        <time>2021-05-18T07:34:02Z</time>
      </trkpt>
      <trkpt lat="41.7481480" lon="-8.8747750">
        <ele>29.2</ele>
        <time>2021-05-18T07:34:03Z</time>
      </trkpt>
      <trkpt lat="41.7481600" lon="-8.8747660">
        <ele>29.3</ele>
        <time>2021-05-18T07:34:04Z</time>
      </trkpt>
      <trkpt lat="41.7481680" lon="-8.8747610">
        <ele>29.4</ele>
        <time>2021-05-18T07:34:05Z</time>
      </trkpt>
      <trkpt lat="41.7481750" lon="-8.8747490">
        <ele>29.6</ele>
        <time>2021-05-18T07:34:06Z</time>
      </trkpt>
      <trkpt lat="41.7481870" lon="-8.8747450">
        <ele>29.7</ele>
        <time>2021-05-18T07:34:07Z</time>
      </trkpt>
      <trkpt lat="41.7481960" lon="-8.8747430">
        <ele>29.8</ele>
        <time>2021-05-18T07:34:08Z</time>
      </trkpt>
      <trkpt lat="41.7482050" lon="-8.8747390">
        <ele>29.9</ele>
        <time>2021-05-18T07:34:09Z</time>
      </trkpt>
      <trkpt lat="41.7482130" lon="-8.8747350">
        <ele>30.0</ele>
        <time>2021-05-18T07:34:10Z</time>
      </trkpt>
      <trkpt lat="41.7482220" lon="-8.8747320">
        <ele>30.1</ele>
        <time>2021-05-18T07:34:11Z</time>
      </trkpt>
      <trkpt lat="41.7482370" lon="-8.8747270">
        <ele>30.2</ele>
        <time>2021-05-18T07:34:12Z</time>
      </trkpt>
      <trkpt lat="41.7482480" lon="-8.8747270">
        <ele>30.4</ele>
        <time>2021-05-18T07:34:13Z</time>
      </trkpt>
      <trkpt lat="41.7482610" lon="-8.8747270">
        <ele>30.5</ele>
        <time>2021-05-18T07:34:14Z</time>
      </trkpt>
      <trkpt lat="41.7482660" lon="-8.8747260">
        <ele>30.6</ele>
        <time>2021-05-18T07:34:15Z</time>
      </trkpt>
      <trkpt lat="41.7482820" lon="-8.8747230">
        <ele>30.8</ele>
        <time>2021-05-18T07:34:16Z</time>
      </trkpt>
      <trkpt lat="41.7482910" lon="-8.8747230">
        <ele>30.9</ele>
        <time>2021-05-18T07:34:17Z</time>
      </trkpt>
      <trkpt lat="41.7483000" lon="-8.8747230">
        <ele>31.0</ele>
        <time>2021-05-18T07:34:18Z</time>
      </trkpt>
      <trkpt lat="41.7483120" lon="-8.8747210">
        <ele>31.1</ele>
        <time>2021-05-18T07:34:19Z</time>
      </trkpt>
      <trkpt lat="41.7483340" lon="-8.8747180">
        <ele>31.4</ele>
        <time>2021-05-18T07:34:20Z</time>
      </trkpt>
      <trkpt lat="41.7483450" lon="-8.8747180">
        <ele>31.5</ele>
        <time>2021-05-18T07:34:21Z</time>
      </trkpt>
      <trkpt lat="41.7483570" lon="-8.8747180">
        <ele>31.6</ele>
        <time>2021-05-18T07:34:22Z</time>
      </trkpt>
      <trkpt lat="41.7483710" lon="-8.8747190">
        <ele>31.8</ele>
        <time>2021-05-18T07:34:23Z</time>
      </trkpt>
      <trkpt lat="41.7483800" lon="-8.8747200">
        <ele>31.9</ele>
        <time>2021-05-18T07:34:24Z</time>
      </trkpt>
      <trkpt lat="41.7483820" lon="-8.8747310">
        <ele>32.0</ele>
        <time>2021-05-18T07:34:25Z</time>
      </trkpt>
      <trkpt lat="41.7483920" lon="-8.8747300">
        <ele>32.1</ele>
        <time>2021-05-18T07:34:26Z</time>
      </trkpt>
      <trkpt lat="41.7484110" lon="-8.8747320">
        <ele>32.3</ele>
        <time>2021-05-18T07:34:27Z</time>
      </trkpt>
      <trkpt lat="41.7484200" lon="-8.8747330">
        <ele>32.5</ele>
        <time>2021-05-18T07:34:28Z</time>
      </trkpt>
      <trkpt lat="41.7484270" lon="-8.8747260">
        <ele>32.6</ele>
        <time>2021-05-18T07:34:29Z</time>
      </trkpt>
      <trkpt lat="41.7484430" lon="-8.8747270">
        <ele>32.8</ele>
        <time>2021-05-18T07:34:30Z</time>
      </trkpt>
      <trkpt lat="41.7484470" lon="-8.8747280">
        <ele>32.8</ele>
        <time>2021-05-18T07:34:31Z</time>
      </trkpt>
      <trkpt lat="41.7484520" lon="-8.8747270">
        <ele>32.9</ele>
        <time>2021-05-18T07:34:32Z</time>
      </trkpt>
      <trkpt lat="41.7484630" lon="-8.8747270">
        <ele>33.0</ele>
        <time>2021-05-18T07:34:33Z</time>
      </trkpt>
      <trkpt lat="41.7484700" lon="-8.8747320">
        <ele>33.1</ele>
        <time>2021-05-18T07:34:34Z</time>
      </trkpt>
      <trkpt lat="41.7484760" lon="-8.8747390">
        <ele>33.2</ele>
        <time>2021-05-18T07:34:35Z</time>
      </trkpt>
      <trkpt lat="41.7484740" lon="-8.8747420">
        <ele>33.2</ele>
        <time>2021-05-18T07:34:36Z</time>
      </trkpt>
      <trkpt lat="41.7484760" lon="-8.8747430">
        <ele>33.3</ele>
        <time>2021-05-18T07:34:37Z</time>
      </trkpt>
      <trkpt lat="41.7484740" lon="-8.8747490">
        <ele>33.3</ele>
        <time>2021-05-18T07:34:38Z</time>
      </trkpt>
      <trkpt lat="41.7484770" lon="-8.8747500">
        <ele>33.4</ele>
        <time>2021-05-18T07:34:39Z</time>
      </trkpt>
      <trkpt lat="41.7484820" lon="-8.8747500">
        <ele>33.4</ele>
        <time>2021-05-18T07:34:40Z</time>
      </trkpt>
      <trkpt lat="41.7484820" lon="-8.8747510">
        <ele>33.4</ele>
        <time>2021-05-18T07:34:41Z</time>
      </trkpt>
      <trkpt lat="41.7484810" lon="-8.8747520">
        <ele>33.5</ele>
        <time>2021-05-18T07:34:42Z</time>
      </trkpt>
      <trkpt lat="41.7484790" lon="-8.8747530">
        <ele>33.5</ele>
        <time>2021-05-18T07:34:43Z</time>
      </trkpt>
      <trkpt lat="41.7484770" lon="-8.8747520">
        <ele>33.5</ele>
        <time>2021-05-18T07:34:44Z</time>
      </trkpt>
      <trkpt lat="41.7484770" lon="-8.8747550">
        <ele>33.5</ele>
        <time>2021-05-18T07:34:45Z</time>
      </trkpt>
      <trkpt lat="41.7484790" lon="-8.8747580">
        <ele>33.6</ele>
        <time>2021-05-18T07:34:46Z</time>
      </trkpt>
      <trkpt lat="41.7484800" lon="-8.8747540">
        <ele>33.6</ele>
        <time>2021-05-18T07:34:47Z</time>
      </trkpt>
      <trkpt lat="41.7484790" lon="-8.8747530">
        <ele>33.6</ele>
        <time>2021-05-18T07:34:48Z</time>
      </trkpt>
      <trkpt lat="41.7484790" lon="-8.8747520">
        <ele>33.6</ele>
        <time>2021-05-18T07:34:49Z</time>
      </trkpt>
      <trkpt lat="41.7484770" lon="-8.8747540">
        <ele>33.7</ele>
        <time>2021-05-18T07:34:50Z</time>
      </trkpt>
      <trkpt lat="41.7484780" lon="-8.8747560">
        <ele>33.7</ele>
        <time>2021-05-18T07:34:51Z</time>
      </trkpt>
      <trkpt lat="41.7484760" lon="-8.8747560">
        <ele>33.7</ele>
        <time>2021-05-18T07:34:52Z</time>
      </trkpt>
      <trkpt lat="41.7484750" lon="-8.8747560">
        <ele>33.7</ele>
        <time>2021-05-18T07:34:53Z</time>
      </trkpt>
      <trkpt lat="41.7484750" lon="-8.8747550">
        <ele>33.7</ele>
        <time>2021-05-18T07:34:54Z</time>
      </trkpt>
      <trkpt lat="41.7484780" lon="-8.8747550">
        <ele>33.8</ele>
        <time>2021-05-18T07:34:55Z</time>
      </trkpt>
      <trkpt lat="41.7484770" lon="-8.8747540">
        <ele>33.8</ele>
        <time>2021-05-18T07:34:56Z</time>
      </trkpt>
      <trkpt lat="41.7484780" lon="-8.8747530">
        <ele>33.8</ele>
        <time>2021-05-18T07:34:57Z</time>
      </trkpt>
      <trkpt lat="41.7484800" lon="-8.8747520">
        <ele>33.8</ele>
        <time>2021-05-18T07:34:58Z</time>
      </trkpt>
      <trkpt lat="41.7484810" lon="-8.8747510">
        <ele>33.8</ele>
        <time>2021-05-18T07:34:59Z</time>
      </trkpt>
      <trkpt lat="41.7484810" lon="-8.8747510">
        <ele>33.8</ele>
        <time>2021-05-18T07:35:00Z</time>
      </trkpt>
      <trkpt lat="41.7484820" lon="-8.8747510">
        <ele>33.9</ele>
        <time>2021-05-18T07:35:01Z</time>
      </trkpt>
      <trkpt lat="41.7484820" lon="-8.8747520">
        <ele>33.9</ele>
        <time>2021-05-18T07:35:02Z</time>
      </trkpt>
      <trkpt lat="41.7484820" lon="-8.8747490">
        <ele>33.9</ele>
        <time>2021-05-18T07:35:03Z</time>
      </trkpt>
      <trkpt lat="41.7484840" lon="-8.8747500">
        <ele>33.9</ele>
        <time>2021-05-18T07:35:04Z</time>
      </trkpt>
      <trkpt lat="41.7484850" lon="-8.8747480">
        <ele>33.9</ele>
        <time>2021-05-18T07:35:05Z</time>
      </trkpt>
      <trkpt lat="41.7484890" lon="-8.8747470">
        <ele>34.0</ele>
        <time>2021-05-18T07:35:06Z</time>
      </trkpt>
      <trkpt lat="41.7484910" lon="-8.8747370">
        <ele>34.0</ele>
        <time>2021-05-18T07:35:07Z</time>
      </trkpt>
      <trkpt lat="41.7484970" lon="-8.8747270">
        <ele>34.1</ele>
        <time>2021-05-18T07:35:08Z</time>
      </trkpt>
      <trkpt lat="41.7485100" lon="-8.8747050">
        <ele>34.1</ele>
        <time>2021-05-18T07:35:09Z</time>
      </trkpt>
      <trkpt lat="41.7485150" lon="-8.8746970">
        <ele>34.1</ele>
        <time>2021-05-18T07:35:10Z</time>
      </trkpt>
      <trkpt lat="41.7485210" lon="-8.8746880">
        <ele>34.2</ele>
        <time>2021-05-18T07:35:11Z</time>
      </trkpt>
      <trkpt lat="41.7485200" lon="-8.8746740">
        <ele>34.2</ele>
        <time>2021-05-18T07:35:12Z</time>
      </trkpt>
      <trkpt lat="41.7485280" lon="-8.8746490">
        <ele>34.2</ele>
        <time>2021-05-18T07:35:13Z</time>
      </trkpt>
      <trkpt lat="41.7485330" lon="-8.8746320">
        <ele>34.3</ele>
        <time>2021-05-18T07:35:14Z</time>
      </trkpt>
      <trkpt lat="41.7485330" lon="-8.8746120">
        <ele>34.3</ele>
        <time>2021-05-18T07:35:15Z</time>
      </trkpt>
      <trkpt lat="41.7485360" lon="-8.8745950">
        <ele>34.4</ele>
        <time>2021-05-18T07:35:16Z</time>
      </trkpt>
      <trkpt lat="41.7485470" lon="-8.8745700">
        <ele>34.4</ele>
        <time>2021-05-18T07:35:17Z</time>
      </trkpt>
      <trkpt lat="41.7485560" lon="-8.8745510">
        <ele>34.5</ele>
        <time>2021-05-18T07:35:18Z</time>
      </trkpt>
      <trkpt lat="41.7485590" lon="-8.8745300">
        <ele>34.5</ele>
        <time>2021-05-18T07:35:19Z</time>
      </trkpt>
      <trkpt lat="41.7485610" lon="-8.8745080">
        <ele>34.6</ele>
        <time>2021-05-18T07:35:20Z</time>
      </trkpt>
      <trkpt lat="41.7485640" lon="-8.8744920">
        <ele>34.6</ele>
        <time>2021-05-18T07:35:21Z</time>
      </trkpt>
      <trkpt lat="41.7485700" lon="-8.8744640">
        <ele>34.7</ele>
        <time>2021-05-18T07:35:22Z</time>
      </trkpt>
      <trkpt lat="41.7485720" lon="-8.8744520">
        <ele>34.7</ele>
        <time>2021-05-18T07:35:23Z</time>
      </trkpt>
      <trkpt lat="41.7485730" lon="-8.8744390">
        <ele>34.7</ele>
        <time>2021-05-18T07:35:24Z</time>
      </trkpt>
      <trkpt lat="41.7485730" lon="-8.8744300">
        <ele>34.8</ele>
        <time>2021-05-18T07:35:25Z</time>
      </trkpt>
      <trkpt lat="41.7485870" lon="-8.8744300">
        <ele>34.8</ele>
        <time>2021-05-18T07:35:26Z</time>
      </trkpt>
      <trkpt lat="41.7485910" lon="-8.8744190">
        <ele>35.1</ele>
        <time>2021-05-18T07:35:27Z</time>
      </trkpt>
      <trkpt lat="41.7485960" lon="-8.8744190">
        <ele>35.1</ele>
        <time>2021-05-18T07:35:28Z</time>
      </trkpt>
      <trkpt lat="41.7485990" lon="-8.8744200">
        <ele>35.2</ele>
        <time>2021-05-18T07:35:29Z</time>
      </trkpt>
      <trkpt lat="41.7486090" lon="-8.8744340">
        <ele>35.3</ele>
        <time>2021-05-18T07:35:30Z</time>
      </trkpt>
      <trkpt lat="41.7486230" lon="-8.8744460">
        <ele>35.4</ele>
        <time>2021-05-18T07:35:31Z</time>
      </trkpt>
      <trkpt lat="41.7486340" lon="-8.8744690">
        <ele>35.5</ele>
        <time>2021-05-18T07:35:32Z</time>
      </trkpt>
      <trkpt lat="41.7486400" lon="-8.8744780">
        <ele>35.5</ele>
        <time>2021-05-18T07:35:33Z</time>
      </trkpt>
      <trkpt lat="41.7486450" lon="-8.8744860">
        <ele>35.5</ele>
        <time>2021-05-18T07:35:34Z</time>
      </trkpt>
      <trkpt lat="41.7486650" lon="-8.8744930">
        <ele>35.6</ele>
        <time>2021-05-18T07:35:35Z</time>
      </trkpt>
      <trkpt lat="41.7486740" lon="-8.8744990">
        <ele>35.7</ele>
        <time>2021-05-18T07:35:36Z</time>
      </trkpt>
      <trkpt lat="41.7486830" lon="-8.8745040">
        <ele>35.7</ele>
        <time>2021-05-18T07:35:37Z</time>
      </trkpt>
      <trkpt lat="41.7486920" lon="-8.8745200">
        <ele>35.8</ele>
        <time>2021-05-18T07:35:38Z</time>
      </trkpt>
      <trkpt lat="41.7487130" lon="-8.8745200">
        <ele>35.9</ele>
        <time>2021-05-18T07:35:39Z</time>
      </trkpt>
      <trkpt lat="41.7487280" lon="-8.8745360">
        <ele>36.0</ele>
        <time>2021-05-18T07:35:40Z</time>
      </trkpt>
      <trkpt lat="41.7487370" lon="-8.8745450">
        <ele>36.0</ele>
        <time>2021-05-18T07:35:41Z</time>
      </trkpt>
      <trkpt lat="41.7487460" lon="-8.8745530">
        <ele>36.1</ele>
        <time>2021-05-18T07:35:42Z</time>
      </trkpt>
      <trkpt lat="41.7487550" lon="-8.8745640">
        <ele>36.1</ele>
        <time>2021-05-18T07:35:43Z</time>
      </trkpt>
      <trkpt lat="41.7487610" lon="-8.8745680">
        <ele>36.2</ele>
        <time>2021-05-18T07:35:44Z</time>
      </trkpt>
      <trkpt lat="41.7487750" lon="-8.8745770">
        <ele>36.2</ele>
        <time>2021-05-18T07:35:45Z</time>
      </trkpt>
      <trkpt lat="41.7487840" lon="-8.8745960">
        <ele>36.3</ele>
        <time>2021-05-18T07:35:46Z</time>
      </trkpt>
      <trkpt lat="41.7487930" lon="-8.8746080">
        <ele>36.4</ele>
        <time>2021-05-18T07:35:47Z</time>
      </trkpt>
      <trkpt lat="41.7488060" lon="-8.8746260">
        <ele>36.5</ele>
        <time>2021-05-18T07:35:48Z</time>
      </trkpt>
      <trkpt lat="41.7488130" lon="-8.8746340">
        <ele>36.5</ele>
        <time>2021-05-18T07:35:49Z</time>
      </trkpt>
      <trkpt lat="41.7488170" lon="-8.8746470">
        <ele>36.6</ele>
        <time>2021-05-18T07:35:50Z</time>
      </trkpt>
      <trkpt lat="41.7488190" lon="-8.8746600">
        <ele>36.6</ele>
        <time>2021-05-18T07:35:51Z</time>
      </trkpt>
      <trkpt lat="41.7488230" lon="-8.8746660">
        <ele>36.7</ele>
        <time>2021-05-18T07:35:52Z</time>
      </trkpt>
      <trkpt lat="41.7488320" lon="-8.8746720">
        <ele>36.7</ele>
        <time>2021-05-18T07:35:53Z</time>
      </trkpt>
      <trkpt lat="41.7488490" lon="-8.8746940">
        <ele>36.8</ele>
        <time>2021-05-18T07:35:54Z</time>
      </trkpt>
      <trkpt lat="41.7488550" lon="-8.8747010">
        <ele>36.9</ele>
        <time>2021-05-18T07:35:55Z</time>
      </trkpt>
      <trkpt lat="41.7488620" lon="-8.8747080">
        <ele>36.9</ele>
        <time>2021-05-18T07:35:56Z</time>
      </trkpt>
      <trkpt lat="41.7488720" lon="-8.8747160">
        <ele>37.0</ele>
        <time>2021-05-18T07:35:57Z</time>
      </trkpt>
      <trkpt lat="41.7488850" lon="-8.8747370">
        <ele>37.1</ele>
        <time>2021-05-18T07:35:58Z</time>
      </trkpt>
      <trkpt lat="41.7489000" lon="-8.8747530">
        <ele>37.1</ele>
        <time>2021-05-18T07:35:59Z</time>
      </trkpt>
      <trkpt lat="41.7489090" lon="-8.8747620">
        <ele>37.2</ele>
        <time>2021-05-18T07:36:00Z</time>
      </trkpt>
      <trkpt lat="41.7489170" lon="-8.8747710">
        <ele>37.2</ele>
        <time>2021-05-18T07:36:01Z</time>
      </trkpt>
      <trkpt lat="41.7489340" lon="-8.8747770">
        <ele>37.3</ele>
        <time>2021-05-18T07:36:02Z</time>
      </trkpt>
      <trkpt lat="41.7489480" lon="-8.8747960">
        <ele>37.4</ele>
        <time>2021-05-18T07:36:03Z</time>
      </trkpt>
      <trkpt lat="41.7489610" lon="-8.8747960">
        <ele>37.5</ele>
        <time>2021-05-18T07:36:04Z</time>
      </trkpt>
      <trkpt lat="41.7489800" lon="-8.8748040">
        <ele>37.6</ele>
        <time>2021-05-18T07:36:05Z</time>
      </trkpt>
      <trkpt lat="41.7489940" lon="-8.8748080">
        <ele>37.6</ele>
        <time>2021-05-18T07:36:06Z</time>
      </trkpt>
      <trkpt lat="41.7490090" lon="-8.8748180">
        <ele>37.7</ele>
        <time>2021-05-18T07:36:07Z</time>
      </trkpt>
      <trkpt lat="41.7490290" lon="-8.8748370">
        <ele>37.8</ele>
        <time>2021-05-18T07:36:08Z</time>
      </trkpt>
      <trkpt lat="41.7490360" lon="-8.8748470">
        <ele>37.8</ele>
        <time>2021-05-18T07:36:09Z</time>
      </trkpt>
      <trkpt lat="41.7490620" lon="-8.8748710">
        <ele>38.0</ele>
        <time>2021-05-18T07:36:10Z</time>
      </trkpt>
      <trkpt lat="41.7490670" lon="-8.8748770">
        <ele>38.0</ele>
        <time>2021-05-18T07:36:11Z</time>
      </trkpt>
      <trkpt lat="41.7490790" lon="-8.8748930">
        <ele>38.0</ele>
        <time>2021-05-18T07:36:12Z</time>
      </trkpt>
      <trkpt lat="41.7490870" lon="-8.8749040">
        <ele>38.1</ele>
        <time>2021-05-18T07:36:13Z</time>
      </trkpt>
      <trkpt lat="41.7491040" lon="-8.8749180">
        <ele>38.1</ele>
        <time>2021-05-18T07:36:14Z</time>
      </trkpt>
      <trkpt lat="41.7491130" lon="-8.8749320">
        <ele>38.2</ele>
        <time>2021-05-18T07:36:15Z</time>
      </trkpt>
      <trkpt lat="41.7491290" lon="-8.8749520">
        <ele>38.3</ele>
        <time>2021-05-18T07:36:16Z</time>
      </trkpt>
      <trkpt lat="41.7491370" lon="-8.8749580">
        <ele>38.3</ele>
        <time>2021-05-18T07:36:17Z</time>
      </trkpt>
      <trkpt lat="41.7491440" lon="-8.8749640">
        <ele>38.3</ele>
        <time>2021-05-18T07:36:18Z</time>
      </trkpt>
      <trkpt lat="41.7491580" lon="-8.8749860">
        <ele>38.3</ele>
        <time>2021-05-18T07:36:19Z</time>
      </trkpt>
      <trkpt lat="41.7491640" lon="-8.8749950">
        <ele>38.3</ele>
        <time>2021-05-18T07:36:20Z</time>
      </trkpt>
      <trkpt lat="41.7491690" lon="-8.8750040">
        <ele>38.3</ele>
        <time>2021-05-18T07:36:21Z</time>
      </trkpt>
      <trkpt lat="41.7491750" lon="-8.8750130">
        <ele>38.3</ele>
        <time>2021-05-18T07:36:22Z</time>
      </trkpt>
      <trkpt lat="41.7491770" lon="-8.8750230">
        <ele>38.3</ele>
        <time>2021-05-18T07:36:23Z</time>
      </trkpt>
      <trkpt lat="41.7491860" lon="-8.8750360">
        <ele>38.3</ele>
        <time>2021-05-18T07:36:24Z</time>
      </trkpt>
      <trkpt lat="41.7491990" lon="-8.8750560">
        <ele>38.3</ele>
        <time>2021-05-18T07:36:25Z</time>
      </trkpt>
      <trkpt lat="41.7492040" lon="-8.8750690">
        <ele>38.3</ele>
        <time>2021-05-18T07:36:26Z</time>
      </trkpt>
      <trkpt lat="41.7492080" lon="-8.8750810">
        <ele>38.3</ele>
        <time>2021-05-18T07:36:27Z</time>
      </trkpt>
      <trkpt lat="41.7492150" lon="-8.8750940">
        <ele>38.3</ele>
        <time>2021-05-18T07:36:28Z</time>
      </trkpt>
      <trkpt lat="41.7492230" lon="-8.8751110">
        <ele>38.3</ele>
        <time>2021-05-18T07:36:29Z</time>
      </trkpt>
      <trkpt lat="41.7492350" lon="-8.8751160">
        <ele>38.3</ele>
        <time>2021-05-18T07:36:30Z</time>
      </trkpt>
      <trkpt lat="41.7492380" lon="-8.8751240">
        <ele>38.3</ele>
        <time>2021-05-18T07:36:31Z</time>
      </trkpt>
      <trkpt lat="41.7492460" lon="-8.8751350">
        <ele>38.3</ele>
        <time>2021-05-18T07:36:32Z</time>
      </trkpt>
      <trkpt lat="41.7492540" lon="-8.8751490">
        <ele>38.3</ele>
        <time>2021-05-18T07:36:33Z</time>
      </trkpt>
      <trkpt lat="41.7492620" lon="-8.8751630">
        <ele>38.3</ele>
        <time>2021-05-18T07:36:34Z</time>
      </trkpt>
      <trkpt lat="41.7492700" lon="-8.8751830">
        <ele>38.3</ele>
        <time>2021-05-18T07:36:35Z</time>
      </trkpt>
      <trkpt lat="41.7492790" lon="-8.8751930">
        <ele>38.3</ele>
        <time>2021-05-18T07:36:36Z</time>
      </trkpt>
      <trkpt lat="41.7492940" lon="-8.8752200">
        <ele>38.3</ele>
        <time>2021-05-18T07:36:37Z</time>
      </trkpt>
      <trkpt lat="41.7493000" lon="-8.8752280">
        <ele>38.3</ele>
        <time>2021-05-18T07:36:38Z</time>
      </trkpt>
      <trkpt lat="41.7493070" lon="-8.8752350">
        <ele>38.2</ele>
        <time>2021-05-18T07:36:39Z</time>
      </trkpt>
      <trkpt lat="41.7493200" lon="-8.8752520">
        <ele>38.2</ele>
        <time>2021-05-18T07:36:40Z</time>
      </trkpt>
      <trkpt lat="41.7493270" lon="-8.8752610">
        <ele>38.2</ele>
        <time>2021-05-18T07:36:41Z</time>
      </trkpt>
      <trkpt lat="41.7493340" lon="-8.8752690">
        <ele>38.2</ele>
        <time>2021-05-18T07:36:42Z</time>
      </trkpt>
      <trkpt lat="41.7493490" lon="-8.8752880">
        <ele>38.2</ele>
        <time>2021-05-18T07:36:43Z</time>
      </trkpt>
      <trkpt lat="41.7493570" lon="-8.8752960">
        <ele>38.2</ele>
        <time>2021-05-18T07:36:44Z</time>
      </trkpt>
      <trkpt lat="41.7493640" lon="-8.8753030">
        <ele>38.2</ele>
        <time>2021-05-18T07:36:45Z</time>
      </trkpt>
      <trkpt lat="41.7493780" lon="-8.8753280">
        <ele>38.2</ele>
        <time>2021-05-18T07:36:46Z</time>
      </trkpt>
      <trkpt lat="41.7493850" lon="-8.8753410">
        <ele>38.2</ele>
        <time>2021-05-18T07:36:47Z</time>
      </trkpt>
      <trkpt lat="41.7493910" lon="-8.8753530">
        <ele>38.2</ele>
        <time>2021-05-18T07:36:48Z</time>
      </trkpt>
      <trkpt lat="41.7494040" lon="-8.8753650">
        <ele>38.1</ele>
        <time>2021-05-18T07:36:49Z</time>
      </trkpt>
      <trkpt lat="41.7494170" lon="-8.8753770">
        <ele>38.1</ele>
        <time>2021-05-18T07:36:50Z</time>
      </trkpt>
      <trkpt lat="41.7494300" lon="-8.8753890">
        <ele>38.1</ele>
        <time>2021-05-18T07:36:51Z</time>
      </trkpt>
      <trkpt lat="41.7494380" lon="-8.8754050">
        <ele>38.1</ele>
        <time>2021-05-18T07:36:52Z</time>
      </trkpt>
      <trkpt lat="41.7494450" lon="-8.8754180">
        <ele>38.1</ele>
        <time>2021-05-18T07:36:53Z</time>
      </trkpt>
      <trkpt lat="41.7494490" lon="-8.8754300">
        <ele>38.0</ele>
        <time>2021-05-18T07:36:54Z</time>
      </trkpt>
      <trkpt lat="41.7494470" lon="-8.8754320">
        <ele>38.0</ele>
        <time>2021-05-18T07:36:55Z</time>
      </trkpt>
      <trkpt lat="41.7494450" lon="-8.8754320">
        <ele>38.0</ele>
        <time>2021-05-18T07:36:56Z</time>
      </trkpt>
      <trkpt lat="41.7494450" lon="-8.8754310">
        <ele>38.0</ele>
        <time>2021-05-18T07:36:57Z</time>
      </trkpt>
      <trkpt lat="41.7494440" lon="-8.8754300">
        <ele>38.0</ele>
        <time>2021-05-18T07:36:58Z</time>
      </trkpt>
      <trkpt lat="41.7494470" lon="-8.8754330">
        <ele>38.0</ele>
        <time>2021-05-18T07:36:59Z</time>
      </trkpt>
      <trkpt lat="41.7494480" lon="-8.8754440">
        <ele>38.0</ele>
        <time>2021-05-18T07:37:00Z</time>
      </trkpt>
      <trkpt lat="41.7494400" lon="-8.8754640">
        <ele>38.0</ele>
        <time>2021-05-18T07:37:01Z</time>
      </trkpt>
      <trkpt lat="41.7494430" lon="-8.8754650">
        <ele>38.0</ele>
        <time>2021-05-18T07:37:02Z</time>
      </trkpt>
      <trkpt lat="41.7494460" lon="-8.8754660">
        <ele>38.0</ele>
        <time>2021-05-18T07:37:03Z</time>
      </trkpt>
      <trkpt lat="41.7494490" lon="-8.8754670">
        <ele>38.0</ele>
        <time>2021-05-18T07:37:04Z</time>
      </trkpt>
      <trkpt lat="41.7494520" lon="-8.8754680">
        <ele>38.0</ele>
        <time>2021-05-18T07:37:05Z</time>
      </trkpt>
      <trkpt lat="41.7494550" lon="-8.8754690">
        <ele>38.0</ele>
        <time>2021-05-18T07:37:06Z</time>
      </trkpt>
      <trkpt lat="41.7494590" lon="-8.8754690">
        <ele>38.0</ele>
        <time>2021-05-18T07:37:07Z</time>
      </trkpt>
      <trkpt lat="41.7494620" lon="-8.8754700">
        <ele>38.0</ele>
        <time>2021-05-18T07:37:08Z</time>
      </trkpt>
      <trkpt lat="41.7494650" lon="-8.8754710">
        <ele>38.0</ele>
        <time>2021-05-18T07:37:09Z</time>
      </trkpt>
      <trkpt lat="41.7494680" lon="-8.8754720">
        <ele>38.0</ele>
        <time>2021-05-18T07:37:10Z</time>
      </trkpt>
      <trkpt lat="41.7494710" lon="-8.8754730">
        <ele>38.0</ele>
        <time>2021-05-18T07:37:11Z</time>
      </trkpt>
      <trkpt lat="41.7494740" lon="-8.8754740">
        <ele>38.0</ele>
        <time>2021-05-18T07:37:12Z</time>
      </trkpt>
      <trkpt lat="41.7494770" lon="-8.8754750">
        <ele>38.0</ele>
        <time>2021-05-18T07:37:13Z</time>
      </trkpt>
      <trkpt lat="41.7494800" lon="-8.8754760">
        <ele>37.9</ele>
        <time>2021-05-18T07:37:14Z</time>
      </trkpt>
      <trkpt lat="41.7495020" lon="-8.8754860">
        <ele>37.9</ele>
        <time>2021-05-18T07:37:15Z</time>
      </trkpt>
      <trkpt lat="41.7495090" lon="-8.8754910">
        <ele>37.9</ele>
        <time>2021-05-18T07:37:16Z</time>
      </trkpt>
      <trkpt lat="41.7495160" lon="-8.8754950">
        <ele>37.8</ele>
        <time>2021-05-18T07:37:17Z</time>
      </trkpt>
      <trkpt lat="41.7495370" lon="-8.8755050">
        <ele>37.8</ele>
        <time>2021-05-18T07:37:18Z</time>
      </trkpt>
      <trkpt lat="41.7495460" lon="-8.8755100">
        <ele>37.8</ele>
        <time>2021-05-18T07:37:19Z</time>
      </trkpt>
      <trkpt lat="41.7495540" lon="-8.8755140">
        <ele>37.7</ele>
        <time>2021-05-18T07:37:20Z</time>
      </trkpt>
      <trkpt lat="41.7495640" lon="-8.8755170">
        <ele>37.7</ele>
        <time>2021-05-18T07:37:21Z</time>
      </trkpt>
      <trkpt lat="41.7495810" lon="-8.8755230">
        <ele>37.7</ele>
        <time>2021-05-18T07:37:22Z</time>
      </trkpt>
      <trkpt lat="41.7495920" lon="-8.8755260">
        <ele>37.7</ele>
        <time>2021-05-18T07:37:23Z</time>
      </trkpt>
      <trkpt lat="41.7496090" lon="-8.8755360">
        <ele>37.6</ele>
        <time>2021-05-18T07:37:24Z</time>
      </trkpt>
      <trkpt lat="41.7496180" lon="-8.8755340">
        <ele>37.6</ele>
        <time>2021-05-18T07:37:25Z</time>
      </trkpt>
      <trkpt lat="41.7496290" lon="-8.8755350">
        <ele>37.5</ele>
        <time>2021-05-18T07:37:26Z</time>
      </trkpt>
      <trkpt lat="41.7496390" lon="-8.8755350">
        <ele>37.5</ele>
        <time>2021-05-18T07:37:27Z</time>
      </trkpt>
      <trkpt lat="41.7496600" lon="-8.8755420">
        <ele>37.4</ele>
        <time>2021-05-18T07:37:28Z</time>
      </trkpt>
      <trkpt lat="41.7496730" lon="-8.8755490">
        <ele>37.4</ele>
        <time>2021-05-18T07:37:29Z</time>
      </trkpt>
      <trkpt lat="41.7496840" lon="-8.8755490">
        <ele>37.4</ele>
        <time>2021-05-18T07:37:30Z</time>
      </trkpt>
      <trkpt lat="41.7496930" lon="-8.8755540">
        <ele>37.3</ele>
        <time>2021-05-18T07:37:31Z</time>
      </trkpt>
      <trkpt lat="41.7497020" lon="-8.8755540">
        <ele>37.3</ele>
        <time>2021-05-18T07:37:32Z</time>
      </trkpt>
      <trkpt lat="41.7497130" lon="-8.8755480">
        <ele>37.3</ele>
        <time>2021-05-18T07:37:33Z</time>
      </trkpt>
      <trkpt lat="41.7497240" lon="-8.8755520">
        <ele>37.2</ele>
        <time>2021-05-18T07:37:34Z</time>
      </trkpt>
      <trkpt lat="41.7497340" lon="-8.8755510">
        <ele>37.2</ele>
        <time>2021-05-18T07:37:35Z</time>
      </trkpt>
      <trkpt lat="41.7497520" lon="-8.8755620">
        <ele>37.1</ele>
        <time>2021-05-18T07:37:36Z</time>
      </trkpt>
      <trkpt lat="41.7497630" lon="-8.8755660">
        <ele>37.1</ele>
        <time>2021-05-18T07:37:37Z</time>
      </trkpt>
      <trkpt lat="41.7497770" lon="-8.8755700">
        <ele>37.0</ele>
        <time>2021-05-18T07:37:38Z</time>
      </trkpt>
      <trkpt lat="41.7497920" lon="-8.8755760">
        <ele>37.0</ele>
        <time>2021-05-18T07:37:39Z</time>
      </trkpt>
      <trkpt lat="41.7498020" lon="-8.8755750">
        <ele>36.9</ele>
        <time>2021-05-18T07:37:40Z</time>
      </trkpt>
      <trkpt lat="41.7498160" lon="-8.8755750">
        <ele>36.9</ele>
        <time>2021-05-18T07:37:41Z</time>
      </trkpt>
      <trkpt lat="41.7498280" lon="-8.8755770">
        <ele>36.9</ele>
        <time>2021-05-18T07:37:42Z</time>
      </trkpt>
      <trkpt lat="41.7498350" lon="-8.8755770">
        <ele>36.9</ele>
        <time>2021-05-18T07:37:43Z</time>
      </trkpt>
      <trkpt lat="41.7498500" lon="-8.8755760">
        <ele>36.8</ele>
        <time>2021-05-18T07:37:44Z</time>
      </trkpt>
      <trkpt lat="41.7498600" lon="-8.8755740">
        <ele>36.8</ele>
        <time>2021-05-18T07:37:45Z</time>
      </trkpt>
      <trkpt lat="41.7498830" lon="-8.8755780">
        <ele>36.7</ele>
        <time>2021-05-18T07:37:46Z</time>
      </trkpt>
      <trkpt lat="41.7498900" lon="-8.8755800">
        <ele>36.7</ele>
        <time>2021-05-18T07:37:47Z</time>
      </trkpt>
      <trkpt lat="41.7498960" lon="-8.8755830">
        <ele>36.7</ele>
        <time>2021-05-18T07:37:48Z</time>
      </trkpt>
      <trkpt lat="41.7499090" lon="-8.8755840">
        <ele>36.7</ele>
        <time>2021-05-18T07:37:49Z</time>
      </trkpt>
      <trkpt lat="41.7499230" lon="-8.8755840">
        <ele>36.6</ele>
        <time>2021-05-18T07:37:50Z</time>
      </trkpt>
      <trkpt lat="41.7499450" lon="-8.8755870">
        <ele>36.6</ele>
        <time>2021-05-18T07:37:51Z</time>
      </trkpt>
      <trkpt lat="41.7499550" lon="-8.8755920">
        <ele>36.6</ele>
        <time>2021-05-18T07:37:52Z</time>
      </trkpt>
      <trkpt lat="41.7499650" lon="-8.8755960">
        <ele>36.6</ele>
        <time>2021-05-18T07:37:53Z</time>
      </trkpt>
      <trkpt lat="41.7499810" lon="-8.8756020">
        <ele>36.6</ele>
        <time>2021-05-18T07:37:54Z</time>
      </trkpt>
      <trkpt lat="41.7499880" lon="-8.8756010">
        <ele>36.6</ele>
        <time>2021-05-18T07:37:55Z</time>
      </trkpt>
      <trkpt lat="41.7499960" lon="-8.8756010">
        <ele>36.6</ele>
        <time>2021-05-18T07:37:56Z</time>
      </trkpt>
      <trkpt lat="41.7500030" lon="-8.8756000">
        <ele>36.6</ele>
        <time>2021-05-18T07:37:57Z</time>
      </trkpt>
      <trkpt lat="41.7500210" lon="-8.8756060">
        <ele>36.6</ele>
        <time>2021-05-18T07:37:58Z</time>
      </trkpt>
      <trkpt lat="41.7500310" lon="-8.8756070">
        <ele>36.6</ele>
        <time>2021-05-18T07:37:59Z</time>
      </trkpt>
      <trkpt lat="41.7500400" lon="-8.8756090">
        <ele>36.6</ele>
        <time>2021-05-18T07:38:00Z</time>
      </trkpt>
      <trkpt lat="41.7500580" lon="-8.8756070">
        <ele>36.6</ele>
        <time>2021-05-18T07:38:01Z</time>
      </trkpt>
      <trkpt lat="41.7500680" lon="-8.8756070">
        <ele>36.6</ele>
        <time>2021-05-18T07:38:02Z</time>
      </trkpt>
      <trkpt lat="41.7500780" lon="-8.8756080">
        <ele>36.6</ele>
        <time>2021-05-18T07:38:03Z</time>
      </trkpt>
      <trkpt lat="41.7501000" lon="-8.8756100">
        <ele>36.6</ele>
        <time>2021-05-18T07:38:04Z</time>
      </trkpt>
      <trkpt lat="41.7501070" lon="-8.8756110">
        <ele>36.6</ele>
        <time>2021-05-18T07:38:05Z</time>
      </trkpt>
      <trkpt lat="41.7501150" lon="-8.8756120">
        <ele>36.6</ele>
        <time>2021-05-18T07:38:06Z</time>
      </trkpt>
      <trkpt lat="41.7501320" lon="-8.8756190">
        <ele>36.7</ele>
        <time>2021-05-18T07:38:07Z</time>
      </trkpt>
      <trkpt lat="41.7501440" lon="-8.8756260">
        <ele>36.7</ele>
        <time>2021-05-18T07:38:08Z</time>
      </trkpt>
      <trkpt lat="41.7501580" lon="-8.8756300">
        <ele>36.7</ele>
        <time>2021-05-18T07:38:09Z</time>
      </trkpt>
      <trkpt lat="41.7501600" lon="-8.8756380">
        <ele>36.7</ele>
        <time>2021-05-18T07:38:10Z</time>
      </trkpt>
      <trkpt lat="41.7501790" lon="-8.8756390">
        <ele>36.8</ele>
        <time>2021-05-18T07:38:11Z</time>
      </trkpt>
      <trkpt lat="41.7501870" lon="-8.8756440">
        <ele>36.8</ele>
        <time>2021-05-18T07:38:12Z</time>
      </trkpt>
      <trkpt lat="41.7502010" lon="-8.8756480">
        <ele>36.8</ele>
        <time>2021-05-18T07:38:13Z</time>
      </trkpt>
      <trkpt lat="41.7502090" lon="-8.8756470">
        <ele>36.8</ele>
        <time>2021-05-18T07:38:14Z</time>
      </trkpt>
      <trkpt lat="41.7502270" lon="-8.8756440">
        <ele>36.9</ele>
        <time>2021-05-18T07:38:15Z</time>
      </trkpt>
      <trkpt lat="41.7502360" lon="-8.8756470">
        <ele>36.9</ele>
        <time>2021-05-18T07:38:16Z</time>
      </trkpt>
      <trkpt lat="41.7502460" lon="-8.8756490">
        <ele>36.9</ele>
        <time>2021-05-18T07:38:17Z</time>
      </trkpt>
      <trkpt lat="41.7502560" lon="-8.8756510">
        <ele>36.9</ele>
        <time>2021-05-18T07:38:18Z</time>
      </trkpt>
      <trkpt lat="41.7502670" lon="-8.8756580">
        <ele>36.9</ele>
        <time>2021-05-18T07:38:19Z</time>
      </trkpt>
      <trkpt lat="41.7502800" lon="-8.8756530">
        <ele>37.0</ele>
        <time>2021-05-18T07:38:20Z</time>
      </trkpt>
      <trkpt lat="41.7503000" lon="-8.8756570">
        <ele>37.0</ele>
        <time>2021-05-18T07:38:21Z</time>
      </trkpt>
      <trkpt lat="41.7503080" lon="-8.8756570">
        <ele>37.1</ele>
        <time>2021-05-18T07:38:22Z</time>
      </trkpt>
      <trkpt lat="41.7503210" lon="-8.8756530">
        <ele>37.1</ele>
        <time>2021-05-18T07:38:23Z</time>
      </trkpt>
      <trkpt lat="41.7503290" lon="-8.8756560">
        <ele>37.1</ele>
        <time>2021-05-18T07:38:24Z</time>
      </trkpt>
      <trkpt lat="41.7503420" lon="-8.8756570">
        <ele>37.2</ele>
        <time>2021-05-18T07:38:25Z</time>
      </trkpt>
      <trkpt lat="41.7503540" lon="-8.8756600">
        <ele>37.2</ele>
        <time>2021-05-18T07:38:26Z</time>
      </trkpt>
      <trkpt lat="41.7503630" lon="-8.8756600">
        <ele>37.3</ele>
        <time>2021-05-18T07:38:27Z</time>
      </trkpt>
      <trkpt lat="41.7503750" lon="-8.8756580">
        <ele>37.3</ele>
        <time>2021-05-18T07:38:28Z</time>
      </trkpt>
      <trkpt lat="41.7503930" lon="-8.8756560">
        <ele>37.4</ele>
        <time>2021-05-18T07:38:29Z</time>
      </trkpt>
      <trkpt lat="41.7504040" lon="-8.8756550">
        <ele>37.5</ele>
        <time>2021-05-18T07:38:30Z</time>
      </trkpt>
      <trkpt lat="41.7504170" lon="-8.8756530">
        <ele>37.5</ele>
        <time>2021-05-18T07:38:31Z</time>
      </trkpt>
      <trkpt lat="41.7504270" lon="-8.8756490">
        <ele>37.6</ele>
        <time>2021-05-18T07:38:32Z</time>
      </trkpt>
      <trkpt lat="41.7504380" lon="-8.8756410">
        <ele>37.7</ele>
        <time>2021-05-18T07:38:33Z</time>
      </trkpt>
      <trkpt lat="41.7504620" lon="-8.8756350">
        <ele>37.8</ele>
        <time>2021-05-18T07:38:34Z</time>
      </trkpt>
      <trkpt lat="41.7504710" lon="-8.8756330">
        <ele>37.9</ele>
        <time>2021-05-18T07:38:35Z</time>
      </trkpt>
      <trkpt lat="41.7504800" lon="-8.8756300">
        <ele>37.9</ele>
        <time>2021-05-18T07:38:36Z</time>
      </trkpt>
      <trkpt lat="41.7504980" lon="-8.8756180">
        <ele>38.0</ele>
        <time>2021-05-18T07:38:37Z</time>
      </trkpt>
      <trkpt lat="41.7505070" lon="-8.8756120">
        <ele>38.1</ele>
        <time>2021-05-18T07:38:38Z</time>
      </trkpt>
      <trkpt lat="41.7505160" lon="-8.8756060">
        <ele>38.2</ele>
        <time>2021-05-18T07:38:39Z</time>
      </trkpt>
      <trkpt lat="41.7505360" lon="-8.8755930">
        <ele>38.3</ele>
        <time>2021-05-18T07:38:40Z</time>
      </trkpt>
      <trkpt lat="41.7505470" lon="-8.8755840">
        <ele>38.4</ele>
        <time>2021-05-18T07:38:41Z</time>
      </trkpt>
      <trkpt lat="41.7505570" lon="-8.8755760">
        <ele>38.5</ele>
        <time>2021-05-18T07:38:42Z</time>
      </trkpt>
      <trkpt lat="41.7505670" lon="-8.8755710">
        <ele>38.6</ele>
        <time>2021-05-18T07:38:43Z</time>
      </trkpt>
      <trkpt lat="41.7505830" lon="-8.8755640">
        <ele>38.8</ele>
        <time>2021-05-18T07:38:44Z</time>
      </trkpt>
      <trkpt lat="41.7506040" lon="-8.8755530">
        <ele>39.0</ele>
        <time>2021-05-18T07:38:45Z</time>
      </trkpt>
      <trkpt lat="41.7506110" lon="-8.8755430">
        <ele>39.1</ele>
        <time>2021-05-18T07:38:46Z</time>
      </trkpt>
      <trkpt lat="41.7506230" lon="-8.8755330">
        <ele>39.2</ele>
        <time>2021-05-18T07:38:47Z</time>
      </trkpt>
      <trkpt lat="41.7506270" lon="-8.8755260">
        <ele>39.2</ele>
        <time>2021-05-18T07:38:48Z</time>
      </trkpt>
      <trkpt lat="41.7506390" lon="-8.8755190">
        <ele>39.4</ele>
        <time>2021-05-18T07:38:49Z</time>
      </trkpt>
      <trkpt lat="41.7506500" lon="-8.8755090">
        <ele>39.5</ele>
        <time>2021-05-18T07:38:50Z</time>
      </trkpt>
      <trkpt lat="41.7506650" lon="-8.8755070">
        <ele>39.6</ele>
        <time>2021-05-18T07:38:51Z</time>
      </trkpt>
      <trkpt lat="41.7506720" lon="-8.8754960">
        <ele>39.7</ele>
        <time>2021-05-18T07:38:52Z</time>
      </trkpt>
      <trkpt lat="41.7506810" lon="-8.8754920">
        <ele>39.8</ele>
        <time>2021-05-18T07:38:53Z</time>
      </trkpt>
      <trkpt lat="41.7506880" lon="-8.8754780">
        <ele>40.0</ele>
        <time>2021-05-18T07:38:54Z</time>
      </trkpt>
      <trkpt lat="41.7506940" lon="-8.8754730">
        <ele>40.0</ele>
        <time>2021-05-18T07:38:55Z</time>
      </trkpt>
      <trkpt lat="41.7507060" lon="-8.8754620">
        <ele>40.2</ele>
        <time>2021-05-18T07:38:56Z</time>
      </trkpt>
      <trkpt lat="41.7507100" lon="-8.8754550">
        <ele>40.2</ele>
        <time>2021-05-18T07:38:57Z</time>
      </trkpt>
      <trkpt lat="41.7507280" lon="-8.8754440">
        <ele>40.4</ele>
        <time>2021-05-18T07:38:58Z</time>
      </trkpt>
      <trkpt lat="41.7507370" lon="-8.8754380">
        <ele>40.5</ele>
        <time>2021-05-18T07:38:59Z</time>
      </trkpt>
      <trkpt lat="41.7507450" lon="-8.8754320">
        <ele>40.6</ele>
        <time>2021-05-18T07:39:00Z</time>
      </trkpt>
      <trkpt lat="41.7507640" lon="-8.8754180">
        <ele>40.9</ele>
        <time>2021-05-18T07:39:01Z</time>
      </trkpt>
      <trkpt lat="41.7507700" lon="-8.8754110">
        <ele>40.9</ele>
        <time>2021-05-18T07:39:02Z</time>
      </trkpt>
      <trkpt lat="41.7507760" lon="-8.8754030">
        <ele>41.0</ele>
        <time>2021-05-18T07:39:03Z</time>
      </trkpt>
      <trkpt lat="41.7507880" lon="-8.8753930">
        <ele>41.2</ele>
        <time>2021-05-18T07:39:04Z</time>
      </trkpt>
      <trkpt lat="41.7508020" lon="-8.8753850">
        <ele>41.3</ele>
        <time>2021-05-18T07:39:05Z</time>
      </trkpt>
      <trkpt lat="41.7508070" lon="-8.8753770">
        <ele>41.4</ele>
        <time>2021-05-18T07:39:06Z</time>
      </trkpt>
      <trkpt lat="41.7508170" lon="-8.8753700">
        <ele>41.5</ele>
        <time>2021-05-18T07:39:07Z</time>
      </trkpt>
      <trkpt lat="41.7508280" lon="-8.8753650">
        <ele>41.6</ele>
        <time>2021-05-18T07:39:08Z</time>
      </trkpt>
      <trkpt lat="41.7508450" lon="-8.8753510">
        <ele>41.8</ele>
        <time>2021-05-18T07:39:09Z</time>
      </trkpt>
      <trkpt lat="41.7508520" lon="-8.8753440">
        <ele>41.9</ele>
        <time>2021-05-18T07:39:10Z</time>
      </trkpt>
      <trkpt lat="41.7508590" lon="-8.8753380">
        <ele>42.0</ele>
        <time>2021-05-18T07:39:11Z</time>
      </trkpt>
      <trkpt lat="41.7508730" lon="-8.8753290">
        <ele>42.1</ele>
        <time>2021-05-18T07:39:12Z</time>
      </trkpt>
      <trkpt lat="41.7508810" lon="-8.8753220">
        <ele>42.2</ele>
        <time>2021-05-18T07:39:13Z</time>
      </trkpt>
      <trkpt lat="41.7508870" lon="-8.8753140">
        <ele>42.3</ele>
        <time>2021-05-18T07:39:14Z</time>
      </trkpt>
      <trkpt lat="41.7508960" lon="-8.8753060">
        <ele>42.4</ele>
        <time>2021-05-18T07:39:15Z</time>
      </trkpt>
      <trkpt lat="41.7509000" lon="-8.8752980">
        <ele>42.4</ele>
        <time>2021-05-18T07:39:16Z</time>
      </trkpt>
      <trkpt lat="41.7509100" lon="-8.8752920">
        <ele>42.5</ele>
        <time>2021-05-18T07:39:17Z</time>
      </trkpt>
      <trkpt lat="41.7509230" lon="-8.8752800">
        <ele>42.6</ele>
        <time>2021-05-18T07:39:18Z</time>
      </trkpt>
      <trkpt lat="41.7509360" lon="-8.8752710">
        <ele>42.7</ele>
        <time>2021-05-18T07:39:19Z</time>
      </trkpt>
      <trkpt lat="41.7509440" lon="-8.8752630">
        <ele>42.8</ele>
        <time>2021-05-18T07:39:20Z</time>
      </trkpt>
      <trkpt lat="41.7509520" lon="-8.8752560">
        <ele>42.9</ele>
        <time>2021-05-18T07:39:21Z</time>
      </trkpt>
      <trkpt lat="41.7509640" lon="-8.8752480">
        <ele>42.9</ele>
        <time>2021-05-18T07:39:22Z</time>
      </trkpt>
      <trkpt lat="41.7509730" lon="-8.8752430">
        <ele>43.0</ele>
        <time>2021-05-18T07:39:23Z</time>
      </trkpt>
      <trkpt lat="41.7509850" lon="-8.8752350">
        <ele>43.1</ele>
        <time>2021-05-18T07:39:24Z</time>
      </trkpt>
      <trkpt lat="41.7509950" lon="-8.8752260">
        <ele>43.1</ele>
        <time>2021-05-18T07:39:25Z</time>
      </trkpt>
      <trkpt lat="41.7510140" lon="-8.8752120">
        <ele>43.2</ele>
        <time>2021-05-18T07:39:26Z</time>
      </trkpt>
      <trkpt lat="41.7510210" lon="-8.8752040">
        <ele>43.3</ele>
        <time>2021-05-18T07:39:27Z</time>
      </trkpt>
      <trkpt lat="41.7510270" lon="-8.8751970">
        <ele>43.3</ele>
        <time>2021-05-18T07:39:28Z</time>
      </trkpt>
      <trkpt lat="41.7510440" lon="-8.8751830">
        <ele>43.4</ele>
        <time>2021-05-18T07:39:29Z</time>
      </trkpt>
      <trkpt lat="41.7510520" lon="-8.8751740">
        <ele>43.4</ele>
        <time>2021-05-18T07:39:30Z</time>
      </trkpt>
      <trkpt lat="41.7510600" lon="-8.8751660">
        <ele>43.5</ele>
        <time>2021-05-18T07:39:31Z</time>
      </trkpt>
      <trkpt lat="41.7510700" lon="-8.8751540">
        <ele>43.5</ele>
        <time>2021-05-18T07:39:32Z</time>
      </trkpt>
      <trkpt lat="41.7510850" lon="-8.8751480">
        <ele>43.6</ele>
        <time>2021-05-18T07:39:33Z</time>
      </trkpt>
      <trkpt lat="41.7510920" lon="-8.8751370">
        <ele>43.6</ele>
        <time>2021-05-18T07:39:34Z</time>
      </trkpt>
      <trkpt lat="41.7510920" lon="-8.8751320">
        <ele>43.6</ele>
        <time>2021-05-18T07:39:35Z</time>
      </trkpt>
      <trkpt lat="41.7511090" lon="-8.8751190">
        <ele>43.7</ele>
        <time>2021-05-18T07:39:36Z</time>
      </trkpt>
      <trkpt lat="41.7511190" lon="-8.8751040">
        <ele>43.7</ele>
        <time>2021-05-18T07:39:37Z</time>
      </trkpt>
      <trkpt lat="41.7511330" lon="-8.8750880">
        <ele>43.7</ele>
        <time>2021-05-18T07:39:38Z</time>
      </trkpt>
      <trkpt lat="41.7511440" lon="-8.8750790">
        <ele>43.8</ele>
        <time>2021-05-18T07:39:39Z</time>
      </trkpt>
      <trkpt lat="41.7511570" lon="-8.8750620">
        <ele>43.8</ele>
        <time>2021-05-18T07:39:40Z</time>
      </trkpt>
      <trkpt lat="41.7511720" lon="-8.8750530">
        <ele>43.8</ele>
        <time>2021-05-18T07:39:41Z</time>
      </trkpt>
      <trkpt lat="41.7511810" lon="-8.8750470">
        <ele>43.8</ele>
        <time>2021-05-18T07:39:42Z</time>
      </trkpt>
      <trkpt lat="41.7511900" lon="-8.8750400">
        <ele>43.8</ele>
        <time>2021-05-18T07:39:43Z</time>
      </trkpt>
      <trkpt lat="41.7511990" lon="-8.8750210">
        <ele>43.9</ele>
        <time>2021-05-18T07:39:44Z</time>
      </trkpt>
      <trkpt lat="41.7512110" lon="-8.8750110">
        <ele>43.9</ele>
        <time>2021-05-18T07:39:45Z</time>
      </trkpt>
      <trkpt lat="41.7512220" lon="-8.8749920">
        <ele>43.9</ele>
        <time>2021-05-18T07:39:46Z</time>
      </trkpt>
      <trkpt lat="41.7512310" lon="-8.8749860">
        <ele>43.9</ele>
        <time>2021-05-18T07:39:47Z</time>
      </trkpt>
      <trkpt lat="41.7512400" lon="-8.8749790">
        <ele>43.9</ele>
        <time>2021-05-18T07:39:48Z</time>
      </trkpt>
      <trkpt lat="41.7512530" lon="-8.8749590">
        <ele>43.9</ele>
        <time>2021-05-18T07:39:49Z</time>
      </trkpt>
      <trkpt lat="41.7512630" lon="-8.8749490">
        <ele>43.9</ele>
        <time>2021-05-18T07:39:50Z</time>
      </trkpt>
      <trkpt lat="41.7512730" lon="-8.8749400">
        <ele>43.9</ele>
        <time>2021-05-18T07:39:51Z</time>
      </trkpt>
      <trkpt lat="41.7512800" lon="-8.8749320">
        <ele>43.9</ele>
        <time>2021-05-18T07:39:52Z</time>
      </trkpt>
      <trkpt lat="41.7512910" lon="-8.8749230">
        <ele>43.9</ele>
        <time>2021-05-18T07:39:53Z</time>
      </trkpt>
      <trkpt lat="41.7512980" lon="-8.8749100">
        <ele>43.9</ele>
        <time>2021-05-18T07:39:54Z</time>
      </trkpt>
      <trkpt lat="41.7513100" lon="-8.8749090">
        <ele>43.9</ele>
        <time>2021-05-18T07:39:55Z</time>
      </trkpt>
      <trkpt lat="41.7513170" lon="-8.8749000">
        <ele>43.9</ele>
        <time>2021-05-18T07:39:56Z</time>
      </trkpt>
      <trkpt lat="41.7513270" lon="-8.8748970">
        <ele>43.9</ele>
        <time>2021-05-18T07:39:57Z</time>
      </trkpt>
      <trkpt lat="41.7513370" lon="-8.8748950">
        <ele>43.9</ele>
        <time>2021-05-18T07:39:58Z</time>
      </trkpt>
      <trkpt lat="41.7513550" lon="-8.8748850">
        <ele>43.9</ele>
        <time>2021-05-18T07:39:59Z</time>
      </trkpt>
      <trkpt lat="41.7513640" lon="-8.8748790">
        <ele>43.9</ele>
        <time>2021-05-18T07:40:00Z</time>
      </trkpt>
      <trkpt lat="41.7513750" lon="-8.8748640">
        <ele>43.9</ele>
        <time>2021-05-18T07:40:01Z</time>
      </trkpt>
      <trkpt lat="41.7513840" lon="-8.8748630">
        <ele>43.9</ele>
        <time>2021-05-18T07:40:02Z</time>
      </trkpt>
      <trkpt lat="41.7513950" lon="-8.8748560">
        <ele>43.9</ele>
        <time>2021-05-18T07:40:03Z</time>
      </trkpt>
      <trkpt lat="41.7514020" lon="-8.8748510">
        <ele>43.9</ele>
        <time>2021-05-18T07:40:04Z</time>
      </trkpt>
      <trkpt lat="41.7514130" lon="-8.8748440">
        <ele>43.9</ele>
        <time>2021-05-18T07:40:05Z</time>
      </trkpt>
      <trkpt lat="41.7514320" lon="-8.8748470">
        <ele>43.9</ele>
        <time>2021-05-18T07:40:06Z</time>
      </trkpt>
      <trkpt lat="41.7514440" lon="-8.8748440">
        <ele>43.9</ele>
        <time>2021-05-18T07:40:07Z</time>
      </trkpt>
      <trkpt lat="41.7514560" lon="-8.8748410">
        <ele>44.0</ele>
        <time>2021-05-18T07:40:08Z</time>
      </trkpt>
      <trkpt lat="41.7514790" lon="-8.8748320">
        <ele>44.0</ele>
        <time>2021-05-18T07:40:09Z</time>
      </trkpt>
      <trkpt lat="41.7514860" lon="-8.8748310">
        <ele>44.0</ele>
        <time>2021-05-18T07:40:10Z</time>
      </trkpt>
      <trkpt lat="41.7514930" lon="-8.8748290">
        <ele>44.0</ele>
        <time>2021-05-18T07:40:11Z</time>
      </trkpt>
      <trkpt lat="41.7515170" lon="-8.8748290">
        <ele>43.9</ele>
        <time>2021-05-18T07:40:12Z</time>
      </trkpt>
      <trkpt lat="41.7515300" lon="-8.8748290">
        <ele>43.9</ele>
        <time>2021-05-18T07:40:13Z</time>
      </trkpt>
      <trkpt lat="41.7515490" lon="-8.8748300">
        <ele>43.9</ele>
        <time>2021-05-18T07:40:14Z</time>
      </trkpt>
      <trkpt lat="41.7515610" lon="-8.8748350">
        <ele>43.9</ele>
        <time>2021-05-18T07:40:15Z</time>
      </trkpt>
      <trkpt lat="41.7515720" lon="-8.8748390">
        <ele>43.9</ele>
        <time>2021-05-18T07:40:16Z</time>
      </trkpt>
      <trkpt lat="41.7515860" lon="-8.8748380">
        <ele>43.9</ele>
        <time>2021-05-18T07:40:17Z</time>
      </trkpt>
      <trkpt lat="41.7515980" lon="-8.8748400">
        <ele>43.9</ele>
        <time>2021-05-18T07:40:18Z</time>
      </trkpt>
      <trkpt lat="41.7516060" lon="-8.8748450">
        <ele>43.9</ele>
        <time>2021-05-18T07:40:19Z</time>
      </trkpt>
      <trkpt lat="41.7516120" lon="-8.8748460">
        <ele>43.8</ele>
        <time>2021-05-18T07:40:20Z</time>
      </trkpt>
      <trkpt lat="41.7516330" lon="-8.8748540">
        <ele>43.8</ele>
        <time>2021-05-18T07:40:21Z</time>
      </trkpt>
      <trkpt lat="41.7516440" lon="-8.8748550">
        <ele>43.8</ele>
        <time>2021-05-18T07:40:22Z</time>
      </trkpt>
      <trkpt lat="41.7516510" lon="-8.8748570">
        <ele>43.8</ele>
        <time>2021-05-18T07:40:23Z</time>
      </trkpt>
      <trkpt lat="41.7516640" lon="-8.8748600">
        <ele>43.8</ele>
        <time>2021-05-18T07:40:24Z</time>
      </trkpt>
      <trkpt lat="41.7516860" lon="-8.8748650">
        <ele>43.7</ele>
        <time>2021-05-18T07:40:25Z</time>
      </trkpt>
      <trkpt lat="41.7516970" lon="-8.8748670">
        <ele>43.7</ele>
        <time>2021-05-18T07:40:26Z</time>
      </trkpt>
      <trkpt lat="41.7517070" lon="-8.8748680">
        <ele>43.7</ele>
        <time>2021-05-18T07:40:27Z</time>
      </trkpt>
      <trkpt lat="41.7517230" lon="-8.8748730">
        <ele>43.7</ele>
        <time>2021-05-18T07:40:28Z</time>
      </trkpt>
      <trkpt lat="41.7517360" lon="-8.8748770">
        <ele>43.6</ele>
        <time>2021-05-18T07:40:29Z</time>
      </trkpt>
      <trkpt lat="41.7517430" lon="-8.8748820">
        <ele>43.6</ele>
        <time>2021-05-18T07:40:30Z</time>
      </trkpt>
      <trkpt lat="41.7517490" lon="-8.8748830">
        <ele>43.6</ele>
        <time>2021-05-18T07:40:31Z</time>
      </trkpt>
      <trkpt lat="41.7517640" lon="-8.8748850">
        <ele>43.6</ele>
        <time>2021-05-18T07:40:32Z</time>
      </trkpt>
      <trkpt lat="41.7517870" lon="-8.8748910">
        <ele>43.5</ele>
        <time>2021-05-18T07:40:33Z</time>
      </trkpt>
      <trkpt lat="41.7517940" lon="-8.8748940">
        <ele>43.5</ele>
        <time>2021-05-18T07:40:34Z</time>
      </trkpt>
      <trkpt lat="41.7518130" lon="-8.8749000">
        <ele>43.5</ele>
        <time>2021-05-18T07:40:35Z</time>
      </trkpt>
      <trkpt lat="41.7518270" lon="-8.8749040">
        <ele>43.4</ele>
        <time>2021-05-18T07:40:36Z</time>
      </trkpt>
      <trkpt lat="41.7518480" lon="-8.8749090">
        <ele>43.4</ele>
        <time>2021-05-18T07:40:37Z</time>
      </trkpt>
      <trkpt lat="41.7518560" lon="-8.8749120">
        <ele>43.4</ele>
        <time>2021-05-18T07:40:38Z</time>
      </trkpt>
      <trkpt lat="41.7518640" lon="-8.8749150">
        <ele>43.3</ele>
        <time>2021-05-18T07:40:39Z</time>
      </trkpt>
      <trkpt lat="41.7518790" lon="-8.8749120">
        <ele>43.3</ele>
        <time>2021-05-18T07:40:40Z</time>
      </trkpt>
      <trkpt lat="41.7518950" lon="-8.8749160">
        <ele>43.3</ele>
        <time>2021-05-18T07:40:41Z</time>
      </trkpt>
      <trkpt lat="41.7519240" lon="-8.8749290">
        <ele>43.2</ele>
        <time>2021-05-18T07:40:42Z</time>
      </trkpt>
      <trkpt lat="41.7519330" lon="-8.8749310">
        <ele>43.2</ele>
        <time>2021-05-18T07:40:43Z</time>
      </trkpt>
      <trkpt lat="41.7519610" lon="-8.8749390">
        <ele>43.1</ele>
        <time>2021-05-18T07:40:44Z</time>
      </trkpt>
      <trkpt lat="41.7519700" lon="-8.8749390">
        <ele>43.1</ele>
        <time>2021-05-18T07:40:45Z</time>
      </trkpt>
      <trkpt lat="41.7519870" lon="-8.8749450">
        <ele>43.1</ele>
        <time>2021-05-18T07:40:46Z</time>
      </trkpt>
      <trkpt lat="41.7520050" lon="-8.8749430">
        <ele>43.1</ele>
        <time>2021-05-18T07:40:47Z</time>
      </trkpt>
      <trkpt lat="41.7520200" lon="-8.8749460">
        <ele>43.0</ele>
        <time>2021-05-18T07:40:48Z</time>
      </trkpt>
      <trkpt lat="41.7520350" lon="-8.8749420">
        <ele>43.0</ele>
        <time>2021-05-18T07:40:49Z</time>
      </trkpt>
      <trkpt lat="41.7520520" lon="-8.8749490">
        <ele>43.0</ele>
        <time>2021-05-18T07:40:50Z</time>
      </trkpt>
      <trkpt lat="41.7520690" lon="-8.8749500">
        <ele>43.0</ele>
        <time>2021-05-18T07:40:51Z</time>
      </trkpt>
      <trkpt lat="41.7520850" lon="-8.8749560">
        <ele>42.9</ele>
        <time>2021-05-18T07:40:52Z</time>
      </trkpt>
      <trkpt lat="41.7521000" lon="-8.8749560">
        <ele>42.9</ele>
        <time>2021-05-18T07:40:53Z</time>
      </trkpt>
      <trkpt lat="41.7521170" lon="-8.8749600">
        <ele>42.9</ele>
        <time>2021-05-18T07:40:54Z</time>
      </trkpt>
      <trkpt lat="41.7521320" lon="-8.8749620">
        <ele>42.9</ele>
        <time>2021-05-18T07:40:55Z</time>
      </trkpt>
      <trkpt lat="41.7521470" lon="-8.8749610">
        <ele>42.8</ele>
        <time>2021-05-18T07:40:56Z</time>
      </trkpt>
      <trkpt lat="41.7521610" lon="-8.8749620">
        <ele>42.8</ele>
        <time>2021-05-18T07:40:57Z</time>
      </trkpt>
      <trkpt lat="41.7521760" lon="-8.8749630">
        <ele>42.8</ele>
        <time>2021-05-18T07:40:58Z</time>
      </trkpt>
      <trkpt lat="41.7521880" lon="-8.8749600">
        <ele>42.8</ele>
        <time>2021-05-18T07:40:59Z</time>
      </trkpt>
      <trkpt lat="41.7522020" lon="-8.8749610">
        <ele>42.8</ele>
        <time>2021-05-18T07:41:00Z</time>
      </trkpt>
      <trkpt lat="41.7522130" lon="-8.8749640">
        <ele>42.8</ele>
        <time>2021-05-18T07:41:01Z</time>
      </trkpt>
      <trkpt lat="41.7522180" lon="-8.8749650">
        <ele>42.8</ele>
        <time>2021-05-18T07:41:02Z</time>
      </trkpt>
      <trkpt lat="41.7522290" lon="-8.8749690">
        <ele>42.7</ele>
        <time>2021-05-18T07:41:03Z</time>
      </trkpt>
      <trkpt lat="41.7522380" lon="-8.8749760">
        <ele>42.7</ele>
        <time>2021-05-18T07:41:04Z</time>
      </trkpt>
      <trkpt lat="41.7522450" lon="-8.8749750">
        <ele>42.7</ele>
        <time>2021-05-18T07:41:05Z</time>
      </trkpt>
      <trkpt lat="41.7522470" lon="-8.8749770">
        <ele>42.7</ele>
        <time>2021-05-18T07:41:06Z</time>
      </trkpt>
      <trkpt lat="41.7522530" lon="-8.8749770">
        <ele>42.7</ele>
        <time>2021-05-18T07:41:07Z</time>
      </trkpt>
      <trkpt lat="41.7522640" lon="-8.8749810">
        <ele>42.7</ele>
        <time>2021-05-18T07:41:08Z</time>
      </trkpt>
      <trkpt lat="41.7522780" lon="-8.8749810">
        <ele>42.7</ele>
        <time>2021-05-18T07:41:09Z</time>
      </trkpt>
      <trkpt lat="41.7522940" lon="-8.8749890">
        <ele>42.6</ele>
        <time>2021-05-18T07:41:10Z</time>
      </trkpt>
      <trkpt lat="41.7523030" lon="-8.8749950">
        <ele>42.6</ele>
        <time>2021-05-18T07:41:11Z</time>
      </trkpt>
      <trkpt lat="41.7523160" lon="-8.8749960">
        <ele>42.6</ele>
        <time>2021-05-18T07:41:12Z</time>
      </trkpt>
      <trkpt lat="41.7523180" lon="-8.8749970">
        <ele>42.6</ele>
        <time>2021-05-18T07:41:13Z</time>
      </trkpt>
      <trkpt lat="41.7523310" lon="-8.8749950">
        <ele>42.6</ele>
        <time>2021-05-18T07:41:14Z</time>
      </trkpt>
      <trkpt lat="41.7523500" lon="-8.8750060">
        <ele>42.6</ele>
        <time>2021-05-18T07:41:15Z</time>
      </trkpt>
      <trkpt lat="41.7523590" lon="-8.8750090">
        <ele>42.6</ele>
        <time>2021-05-18T07:41:16Z</time>
      </trkpt>
      <trkpt lat="41.7523670" lon="-8.8750120">
        <ele>42.6</ele>
        <time>2021-05-18T07:41:17Z</time>
      </trkpt>
      <trkpt lat="41.7523910" lon="-8.8750110">
        <ele>42.5</ele>
        <time>2021-05-18T07:41:18Z</time>
      </trkpt>
      <trkpt lat="41.7524000" lon="-8.8750130">
        <ele>42.5</ele>
        <time>2021-05-18T07:41:19Z</time>
      </trkpt>
      <trkpt lat="41.7524090" lon="-8.8750150">
        <ele>42.5</ele>
        <time>2021-05-18T07:41:20Z</time>
      </trkpt>
      <trkpt lat="41.7524110" lon="-8.8750140">
        <ele>42.5</ele>
        <time>2021-05-18T07:41:21Z</time>
      </trkpt>
      <trkpt lat="41.7524250" lon="-8.8750140">
        <ele>42.5</ele>
        <time>2021-05-18T07:41:22Z</time>
      </trkpt>
      <trkpt lat="41.7524390" lon="-8.8750190">
        <ele>42.5</ele>
        <time>2021-05-18T07:41:23Z</time>
      </trkpt>
      <trkpt lat="41.7524580" lon="-8.8750210">
        <ele>42.5</ele>
        <time>2021-05-18T07:41:24Z</time>
      </trkpt>
      <trkpt lat="41.7524680" lon="-8.8750250">
        <ele>42.5</ele>
        <time>2021-05-18T07:41:25Z</time>
      </trkpt>
      <trkpt lat="41.7524830" lon="-8.8750270">
        <ele>42.5</ele>
        <time>2021-05-18T07:41:26Z</time>
      </trkpt>
      <trkpt lat="41.7524920" lon="-8.8750340">
        <ele>42.5</ele>
        <time>2021-05-18T07:41:27Z</time>
      </trkpt>
      <trkpt lat="41.7525020" lon="-8.8750400">
        <ele>42.5</ele>
        <time>2021-05-18T07:41:28Z</time>
      </trkpt>
      <trkpt lat="41.7525220" lon="-8.8750390">
        <ele>42.5</ele>
        <time>2021-05-18T07:41:29Z</time>
      </trkpt>
      <trkpt lat="41.7525320" lon="-8.8750410">
        <ele>42.5</ele>
        <time>2021-05-18T07:41:30Z</time>
      </trkpt>
      <trkpt lat="41.7525420" lon="-8.8750440">
        <ele>42.5</ele>
        <time>2021-05-18T07:41:31Z</time>
      </trkpt>
      <trkpt lat="41.7525550" lon="-8.8750460">
        <ele>42.5</ele>
        <time>2021-05-18T07:41:32Z</time>
      </trkpt>
      <trkpt lat="41.7525660" lon="-8.8750490">
        <ele>42.5</ele>
        <time>2021-05-18T07:41:33Z</time>
      </trkpt>
      <trkpt lat="41.7525770" lon="-8.8750560">
        <ele>42.4</ele>
        <time>2021-05-18T07:41:34Z</time>
      </trkpt>
      <trkpt lat="41.7525980" lon="-8.8750600">
        <ele>42.4</ele>
        <time>2021-05-18T07:41:35Z</time>
      </trkpt>
      <trkpt lat="41.7526060" lon="-8.8750590">
        <ele>42.4</ele>
        <time>2021-05-18T07:41:36Z</time>
      </trkpt>
      <trkpt lat="41.7526150" lon="-8.8750590">
        <ele>42.4</ele>
        <time>2021-05-18T07:41:37Z</time>
      </trkpt>
      <trkpt lat="41.7526320" lon="-8.8750660">
        <ele>42.4</ele>
        <time>2021-05-18T07:41:38Z</time>
      </trkpt>
      <trkpt lat="41.7526400" lon="-8.8750680">
        <ele>42.4</ele>
        <time>2021-05-18T07:41:39Z</time>
      </trkpt>
      <trkpt lat="41.7526500" lon="-8.8750680">
        <ele>42.4</ele>
        <time>2021-05-18T07:41:40Z</time>
      </trkpt>
      <trkpt lat="41.7526620" lon="-8.8750630">
        <ele>42.4</ele>
        <time>2021-05-18T07:41:41Z</time>
      </trkpt>
      <trkpt lat="41.7526820" lon="-8.8750660">
        <ele>42.4</ele>
        <time>2021-05-18T07:41:42Z</time>
      </trkpt>
      <trkpt lat="41.7527010" lon="-8.8750610">
        <ele>42.4</ele>
        <time>2021-05-18T07:41:43Z</time>
      </trkpt>
      <trkpt lat="41.7527110" lon="-8.8750600">
        <ele>42.4</ele>
        <time>2021-05-18T07:41:44Z</time>
      </trkpt>
      <trkpt lat="41.7527210" lon="-8.8750580">
        <ele>42.4</ele>
        <time>2021-05-18T07:41:45Z</time>
      </trkpt>
      <trkpt lat="41.7527300" lon="-8.8750580">
        <ele>42.4</ele>
        <time>2021-05-18T07:41:46Z</time>
      </trkpt>
      <trkpt lat="41.7527410" lon="-8.8750540">
        <ele>42.4</ele>
        <time>2021-05-18T07:41:47Z</time>
      </trkpt>
      <trkpt lat="41.7527560" lon="-8.8750530">
        <ele>42.4</ele>
        <time>2021-05-18T07:41:48Z</time>
      </trkpt>
      <trkpt lat="41.7527690" lon="-8.8750530">
        <ele>42.4</ele>
        <time>2021-05-18T07:41:49Z</time>
      </trkpt>
      <trkpt lat="41.7527840" lon="-8.8750510">
        <ele>42.4</ele>
        <time>2021-05-18T07:41:50Z</time>
      </trkpt>
      <trkpt lat="41.7527970" lon="-8.8750510">
        <ele>42.4</ele>
        <time>2021-05-18T07:41:51Z</time>
      </trkpt>
      <trkpt lat="41.7528120" lon="-8.8750510">
        <ele>42.4</ele>
        <time>2021-05-18T07:41:52Z</time>
      </trkpt>
      <trkpt lat="41.7528310" lon="-8.8750560">
        <ele>42.4</ele>
        <time>2021-05-18T07:41:53Z</time>
      </trkpt>
      <trkpt lat="41.7528430" lon="-8.8750580">
        <ele>42.4</ele>
        <time>2021-05-18T07:41:54Z</time>
      </trkpt>
      <trkpt lat="41.7528540" lon="-8.8750600">
        <ele>42.3</ele>
        <time>2021-05-18T07:41:55Z</time>
      </trkpt>
      <trkpt lat="41.7528640" lon="-8.8750610">
        <ele>42.3</ele>
        <time>2021-05-18T07:41:56Z</time>
      </trkpt>
      <trkpt lat="41.7528720" lon="-8.8750630">
        <ele>42.3</ele>
        <time>2021-05-18T07:41:57Z</time>
      </trkpt>
      <trkpt lat="41.7528820" lon="-8.8750640">
        <ele>42.3</ele>
        <time>2021-05-18T07:41:58Z</time>
      </trkpt>
      <trkpt lat="41.7528990" lon="-8.8750720">
        <ele>42.3</ele>
        <time>2021-05-18T07:41:59Z</time>
      </trkpt>
      <trkpt lat="41.7529090" lon="-8.8750800">
        <ele>42.3</ele>
        <time>2021-05-18T07:42:00Z</time>
      </trkpt>
      <trkpt lat="41.7529130" lon="-8.8750840">
        <ele>42.3</ele>
        <time>2021-05-18T07:42:01Z</time>
      </trkpt>
      <trkpt lat="41.7529300" lon="-8.8750890">
        <ele>42.3</ele>
        <time>2021-05-18T07:42:02Z</time>
      </trkpt>
      <trkpt lat="41.7529370" lon="-8.8750900">
        <ele>42.3</ele>
        <time>2021-05-18T07:42:03Z</time>
      </trkpt>
      <trkpt lat="41.7529480" lon="-8.8750910">
        <ele>42.3</ele>
        <time>2021-05-18T07:42:04Z</time>
      </trkpt>
      <trkpt lat="41.7529560" lon="-8.8750950">
        <ele>42.2</ele>
        <time>2021-05-18T07:42:05Z</time>
      </trkpt>
      <trkpt lat="41.7529670" lon="-8.8750970">
        <ele>42.2</ele>
        <time>2021-05-18T07:42:06Z</time>
      </trkpt>
      <trkpt lat="41.7529760" lon="-8.8750980">
        <ele>42.2</ele>
        <time>2021-05-18T07:42:07Z</time>
      </trkpt>
      <trkpt lat="41.7529820" lon="-8.8750970">
        <ele>42.2</ele>
        <time>2021-05-18T07:42:08Z</time>
      </trkpt>
      <trkpt lat="41.7529970" lon="-8.8751040">
        <ele>42.2</ele>
        <time>2021-05-18T07:42:09Z</time>
      </trkpt>
      <trkpt lat="41.7530160" lon="-8.8751090">
        <ele>42.2</ele>
        <time>2021-05-18T07:42:10Z</time>
      </trkpt>
      <trkpt lat="41.7530260" lon="-8.8751120">
        <ele>42.1</ele>
        <time>2021-05-18T07:42:11Z</time>
      </trkpt>
      <trkpt lat="41.7530350" lon="-8.8751160">
        <ele>42.1</ele>
        <time>2021-05-18T07:42:12Z</time>
      </trkpt>
      <trkpt lat="41.7530550" lon="-8.8751220">
        <ele>42.1</ele>
        <time>2021-05-18T07:42:13Z</time>
      </trkpt>
      <trkpt lat="41.7530650" lon="-8.8751250">
        <ele>42.1</ele>
        <time>2021-05-18T07:42:14Z</time>
      </trkpt>
      <trkpt lat="41.7530750" lon="-8.8751270">
        <ele>42.1</ele>
        <time>2021-05-18T07:42:15Z</time>
      </trkpt>
      <trkpt lat="41.7530900" lon="-8.8751150">
        <ele>42.0</ele>
        <time>2021-05-18T07:42:16Z</time>
      </trkpt>
      <trkpt lat="41.7531060" lon="-8.8751230">
        <ele>42.0</ele>
        <time>2021-05-18T07:42:17Z</time>
      </trkpt>
      <trkpt lat="41.7531320" lon="-8.8751340">
        <ele>42.0</ele>
        <time>2021-05-18T07:42:18Z</time>
      </trkpt>
      <trkpt lat="41.7531410" lon="-8.8751370">
        <ele>41.9</ele>
        <time>2021-05-18T07:42:19Z</time>
      </trkpt>
      <trkpt lat="41.7531510" lon="-8.8751410">
        <ele>41.9</ele>
        <time>2021-05-18T07:42:20Z</time>
      </trkpt>
      <trkpt lat="41.7531780" lon="-8.8751470">
        <ele>41.9</ele>
        <time>2021-05-18T07:42:21Z</time>
      </trkpt>
      <trkpt lat="41.7531880" lon="-8.8751520">
        <ele>41.8</ele>
        <time>2021-05-18T07:42:22Z</time>
      </trkpt>
      <trkpt lat="41.7532080" lon="-8.8751580">
        <ele>41.8</ele>
        <time>2021-05-18T07:42:23Z</time>
      </trkpt>
      <trkpt lat="41.7532160" lon="-8.8751590">
        <ele>41.8</ele>
        <time>2021-05-18T07:42:24Z</time>
      </trkpt>
      <trkpt lat="41.7532240" lon="-8.8751590">
        <ele>41.8</ele>
        <time>2021-05-18T07:42:25Z</time>
      </trkpt>
      <trkpt lat="41.7532430" lon="-8.8751660">
        <ele>41.7</ele>
        <time>2021-05-18T07:42:26Z</time>
      </trkpt>
      <trkpt lat="41.7532570" lon="-8.8751750">
        <ele>41.7</ele>
        <time>2021-05-18T07:42:27Z</time>
      </trkpt>
      <trkpt lat="41.7532740" lon="-8.8751850">
        <ele>41.6</ele>
        <time>2021-05-18T07:42:28Z</time>
      </trkpt>
      <trkpt lat="41.7532860" lon="-8.8751910">
        <ele>41.6</ele>
        <time>2021-05-18T07:42:29Z</time>
      </trkpt>
      <trkpt lat="41.7533010" lon="-8.8752010">
        <ele>41.6</ele>
        <time>2021-05-18T07:42:30Z</time>
      </trkpt>
      <trkpt lat="41.7533150" lon="-8.8752080">
        <ele>41.5</ele>
        <time>2021-05-18T07:42:31Z</time>
      </trkpt>
      <trkpt lat="41.7533410" lon="-8.8752240">
        <ele>41.5</ele>
        <time>2021-05-18T07:42:32Z</time>
      </trkpt>
      <trkpt lat="41.7533480" lon="-8.8752260">
        <ele>41.4</ele>
        <time>2021-05-18T07:42:33Z</time>
      </trkpt>
      <trkpt lat="41.7533540" lon="-8.8752290">
        <ele>41.4</ele>
        <time>2021-05-18T07:42:34Z</time>
      </trkpt>
      <trkpt lat="41.7533710" lon="-8.8752390">
        <ele>41.4</ele>
        <time>2021-05-18T07:42:35Z</time>
      </trkpt>
      <trkpt lat="41.7533860" lon="-8.8752410">
        <ele>41.3</ele>
        <time>2021-05-18T07:42:36Z</time>
      </trkpt>
      <trkpt lat="41.7534020" lon="-8.8752450">
        <ele>41.3</ele>
        <time>2021-05-18T07:42:37Z</time>
      </trkpt>
      <trkpt lat="41.7534160" lon="-8.8752440">
        <ele>41.3</ele>
        <time>2021-05-18T07:42:38Z</time>
      </trkpt>
      <trkpt lat="41.7534340" lon="-8.8752500">
        <ele>41.2</ele>
        <time>2021-05-18T07:42:39Z</time>
      </trkpt>
      <trkpt lat="41.7534440" lon="-8.8752510">
        <ele>41.2</ele>
        <time>2021-05-18T07:42:40Z</time>
      </trkpt>
      <trkpt lat="41.7534650" lon="-8.8752570">
        <ele>41.2</ele>
        <time>2021-05-18T07:42:41Z</time>
      </trkpt>
      <trkpt lat="41.7534720" lon="-8.8752620">
        <ele>41.1</ele>
        <time>2021-05-18T07:42:42Z</time>
      </trkpt>
      <trkpt lat="41.7534800" lon="-8.8752680">
        <ele>41.1</ele>
        <time>2021-05-18T07:42:43Z</time>
      </trkpt>
      <trkpt lat="41.7535000" lon="-8.8752660">
        <ele>41.1</ele>
        <time>2021-05-18T07:42:44Z</time>
      </trkpt>
      <trkpt lat="41.7535110" lon="-8.8752680">
        <ele>41.0</ele>
        <time>2021-05-18T07:42:45Z</time>
      </trkpt>
      <trkpt lat="41.7535220" lon="-8.8752690">
        <ele>41.0</ele>
        <time>2021-05-18T07:42:46Z</time>
      </trkpt>
      <trkpt lat="41.7535410" lon="-8.8752750">
        <ele>41.0</ele>
        <time>2021-05-18T07:42:47Z</time>
      </trkpt>
      <trkpt lat="41.7535530" lon="-8.8752810">
        <ele>41.0</ele>
        <time>2021-05-18T07:42:48Z</time>
      </trkpt>
      <trkpt lat="41.7535870" lon="-8.8752850">
        <ele>40.9</ele>
        <time>2021-05-18T07:42:49Z</time>
      </trkpt>
      <trkpt lat="41.7535980" lon="-8.8752840">
        <ele>40.9</ele>
        <time>2021-05-18T07:42:50Z</time>
      </trkpt>
      <trkpt lat="41.7536270" lon="-8.8752830">
        <ele>40.8</ele>
        <time>2021-05-18T07:42:51Z</time>
      </trkpt>
      <trkpt lat="41.7536360" lon="-8.8752810">
        <ele>40.8</ele>
        <time>2021-05-18T07:42:52Z</time>
      </trkpt>
      <trkpt lat="41.7536640" lon="-8.8752890">
        <ele>40.7</ele>
        <time>2021-05-18T07:42:53Z</time>
      </trkpt>
      <trkpt lat="41.7536750" lon="-8.8752880">
        <ele>40.7</ele>
        <time>2021-05-18T07:42:54Z</time>
      </trkpt>
      <trkpt lat="41.7536920" lon="-8.8752940">
        <ele>40.7</ele>
        <time>2021-05-18T07:42:55Z</time>
      </trkpt>
      <trkpt lat="41.7537090" lon="-8.8752990">
        <ele>40.7</ele>
        <time>2021-05-18T07:42:56Z</time>
      </trkpt>
      <trkpt lat="41.7537240" lon="-8.8752990">
        <ele>40.6</ele>
        <time>2021-05-18T07:42:57Z</time>
      </trkpt>
      <trkpt lat="41.7537410" lon="-8.8753060">
        <ele>40.6</ele>
        <time>2021-05-18T07:42:58Z</time>
      </trkpt>
      <trkpt lat="41.7537590" lon="-8.8753120">
        <ele>40.6</ele>
        <time>2021-05-18T07:42:59Z</time>
      </trkpt>
      <trkpt lat="41.7537770" lon="-8.8753150">
        <ele>40.5</ele>
        <time>2021-05-18T07:43:00Z</time>
      </trkpt>
      <trkpt lat="41.7537910" lon="-8.8753260">
        <ele>40.5</ele>
        <time>2021-05-18T07:43:01Z</time>
      </trkpt>
      <trkpt lat="41.7538080" lon="-8.8753300">
        <ele>40.5</ele>
        <time>2021-05-18T07:43:02Z</time>
      </trkpt>
      <trkpt lat="41.7538270" lon="-8.8753220">
        <ele>40.5</ele>
        <time>2021-05-18T07:43:03Z</time>
      </trkpt>
      <trkpt lat="41.7538440" lon="-8.8753310">
        <ele>40.4</ele>
        <time>2021-05-18T07:43:04Z</time>
      </trkpt>
      <trkpt lat="41.7538590" lon="-8.8753370">
        <ele>40.4</ele>
        <time>2021-05-18T07:43:05Z</time>
      </trkpt>
      <trkpt lat="41.7538690" lon="-8.8753420">
        <ele>40.4</ele>
        <time>2021-05-18T07:43:06Z</time>
      </trkpt>
      <trkpt lat="41.7538870" lon="-8.8753500">
        <ele>40.4</ele>
        <time>2021-05-18T07:43:07Z</time>
      </trkpt>
      <trkpt lat="41.7539010" lon="-8.8753550">
        <ele>40.3</ele>
        <time>2021-05-18T07:43:08Z</time>
      </trkpt>
      <trkpt lat="41.7539140" lon="-8.8753680">
        <ele>40.3</ele>
        <time>2021-05-18T07:43:09Z</time>
      </trkpt>
      <trkpt lat="41.7539290" lon="-8.8753730">
        <ele>40.3</ele>
        <time>2021-05-18T07:43:10Z</time>
      </trkpt>
      <trkpt lat="41.7539340" lon="-8.8753750">
        <ele>40.3</ele>
        <time>2021-05-18T07:43:11Z</time>
      </trkpt>
      <trkpt lat="41.7539380" lon="-8.8753810">
        <ele>40.3</ele>
        <time>2021-05-18T07:43:12Z</time>
      </trkpt>
      <trkpt lat="41.7539440" lon="-8.8753860">
        <ele>40.3</ele>
        <time>2021-05-18T07:43:13Z</time>
      </trkpt>
      <trkpt lat="41.7539440" lon="-8.8753890">
        <ele>40.3</ele>
        <time>2021-05-18T07:43:14Z</time>
      </trkpt>
      <trkpt lat="41.7539540" lon="-8.8753920">
        <ele>40.3</ele>
        <time>2021-05-18T07:43:15Z</time>
      </trkpt>
      <trkpt lat="41.7539600" lon="-8.8753950">
        <ele>40.3</ele>
        <time>2021-05-18T07:43:16Z</time>
      </trkpt>
      <trkpt lat="41.7539600" lon="-8.8754000">
        <ele>40.3</ele>
        <time>2021-05-18T07:43:17Z</time>
      </trkpt>
      <trkpt lat="41.7539800" lon="-8.8754100">
        <ele>40.3</ele>
        <time>2021-05-18T07:43:18Z</time>
      </trkpt>
      <trkpt lat="41.7539840" lon="-8.8754170">
        <ele>40.2</ele>
        <time>2021-05-18T07:43:19Z</time>
      </trkpt>
      <trkpt lat="41.7539820" lon="-8.8754190">
        <ele>40.2</ele>
        <time>2021-05-18T07:43:20Z</time>
      </trkpt>
      <trkpt lat="41.7539890" lon="-8.8754260">
        <ele>40.2</ele>
        <time>2021-05-18T07:43:21Z</time>
      </trkpt>
      <trkpt lat="41.7540060" lon="-8.8754410">
        <ele>40.2</ele>
        <time>2021-05-18T07:43:22Z</time>
      </trkpt>
      <trkpt lat="41.7540140" lon="-8.8754460">
        <ele>40.2</ele>
        <time>2021-05-18T07:43:23Z</time>
      </trkpt>
      <trkpt lat="41.7540230" lon="-8.8754550">
        <ele>40.2</ele>
        <time>2021-05-18T07:43:24Z</time>
      </trkpt>
      <trkpt lat="41.7540360" lon="-8.8754690">
        <ele>40.2</ele>
        <time>2021-05-18T07:43:25Z</time>
      </trkpt>
      <trkpt lat="41.7540570" lon="-8.8754740">
        <ele>40.2</ele>
        <time>2021-05-18T07:43:26Z</time>
      </trkpt>
      <trkpt lat="41.7540680" lon="-8.8754680">
        <ele>40.2</ele>
        <time>2021-05-18T07:43:27Z</time>
      </trkpt>
      <trkpt lat="41.7540860" lon="-8.8754710">
        <ele>40.2</ele>
        <time>2021-05-18T07:43:28Z</time>
      </trkpt>
      <trkpt lat="41.7541000" lon="-8.8754740">
        <ele>40.2</ele>
        <time>2021-05-18T07:43:29Z</time>
      </trkpt>
      <trkpt lat="41.7541180" lon="-8.8754740">
        <ele>40.1</ele>
        <time>2021-05-18T07:43:30Z</time>
      </trkpt>
      <trkpt lat="41.7541340" lon="-8.8754830">
        <ele>40.1</ele>
        <time>2021-05-18T07:43:31Z</time>
      </trkpt>
      <trkpt lat="41.7541530" lon="-8.8754870">
        <ele>40.1</ele>
        <time>2021-05-18T07:43:32Z</time>
      </trkpt>
      <trkpt lat="41.7541630" lon="-8.8754950">
        <ele>40.1</ele>
        <time>2021-05-18T07:43:33Z</time>
      </trkpt>
      <trkpt lat="41.7541860" lon="-8.8755050">
        <ele>40.1</ele>
        <time>2021-05-18T07:43:34Z</time>
      </trkpt>
      <trkpt lat="41.7541920" lon="-8.8755050">
        <ele>40.1</ele>
        <time>2021-05-18T07:43:35Z</time>
      </trkpt>
      <trkpt lat="41.7542180" lon="-8.8755120">
        <ele>40.1</ele>
        <time>2021-05-18T07:43:36Z</time>
      </trkpt>
      <trkpt lat="41.7542280" lon="-8.8755120">
        <ele>40.1</ele>
        <time>2021-05-18T07:43:37Z</time>
      </trkpt>
      <trkpt lat="41.7542420" lon="-8.8755150">
        <ele>40.0</ele>
        <time>2021-05-18T07:43:38Z</time>
      </trkpt>
      <trkpt lat="41.7542610" lon="-8.8755160">
        <ele>40.0</ele>
        <time>2021-05-18T07:43:39Z</time>
      </trkpt>
      <trkpt lat="41.7542740" lon="-8.8755190">
        <ele>40.0</ele>
        <time>2021-05-18T07:43:40Z</time>
      </trkpt>
      <trkpt lat="41.7542940" lon="-8.8755120">
        <ele>40.0</ele>
        <time>2021-05-18T07:43:41Z</time>
      </trkpt>
      <trkpt lat="41.7543040" lon="-8.8755190">
        <ele>40.0</ele>
        <time>2021-05-18T07:43:42Z</time>
      </trkpt>
      <trkpt lat="41.7543120" lon="-8.8755160">
        <ele>40.0</ele>
        <time>2021-05-18T07:43:43Z</time>
      </trkpt>
      <trkpt lat="41.7543220" lon="-8.8755060">
        <ele>40.0</ele>
        <time>2021-05-18T07:43:44Z</time>
      </trkpt>
      <trkpt lat="41.7543260" lon="-8.8755060">
        <ele>40.0</ele>
        <time>2021-05-18T07:43:45Z</time>
      </trkpt>
      <trkpt lat="41.7543390" lon="-8.8755040">
        <ele>40.0</ele>
        <time>2021-05-18T07:43:46Z</time>
      </trkpt>
      <trkpt lat="41.7543400" lon="-8.8755020">
        <ele>40.0</ele>
        <time>2021-05-18T07:43:47Z</time>
      </trkpt>
      <trkpt lat="41.7543580" lon="-8.8754970">
        <ele>39.9</ele>
        <time>2021-05-18T07:43:48Z</time>
      </trkpt>
      <trkpt lat="41.7543710" lon="-8.8754970">
        <ele>39.9</ele>
        <time>2021-05-18T07:43:49Z</time>
      </trkpt>
      <trkpt lat="41.7543820" lon="-8.8754960">
        <ele>39.9</ele>
        <time>2021-05-18T07:43:50Z</time>
      </trkpt>
      <trkpt lat="41.7543920" lon="-8.8754930">
        <ele>39.9</ele>
        <time>2021-05-18T07:43:51Z</time>
      </trkpt>
      <trkpt lat="41.7544090" lon="-8.8754940">
        <ele>39.9</ele>
        <time>2021-05-18T07:43:52Z</time>
      </trkpt>
      <trkpt lat="41.7544210" lon="-8.8754940">
        <ele>39.9</ele>
        <time>2021-05-18T07:43:53Z</time>
      </trkpt>
      <trkpt lat="41.7544310" lon="-8.8754920">
        <ele>39.9</ele>
        <time>2021-05-18T07:43:54Z</time>
      </trkpt>
      <trkpt lat="41.7544480" lon="-8.8754910">
        <ele>39.9</ele>
        <time>2021-05-18T07:43:55Z</time>
      </trkpt>
      <trkpt lat="41.7544600" lon="-8.8754900">
        <ele>39.9</ele>
        <time>2021-05-18T07:43:56Z</time>
      </trkpt>
      <trkpt lat="41.7544720" lon="-8.8754970">
        <ele>39.8</ele>
        <time>2021-05-18T07:43:57Z</time>
      </trkpt>
      <trkpt lat="41.7544810" lon="-8.8754910">
        <ele>39.8</ele>
        <time>2021-05-18T07:43:58Z</time>
      </trkpt>
      <trkpt lat="41.7544980" lon="-8.8754930">
        <ele>39.8</ele>
        <time>2021-05-18T07:43:59Z</time>
      </trkpt>
      <trkpt lat="41.7545140" lon="-8.8754900">
        <ele>39.8</ele>
        <time>2021-05-18T07:44:00Z</time>
      </trkpt>
      <trkpt lat="41.7545330" lon="-8.8754840">
        <ele>39.8</ele>
        <time>2021-05-18T07:44:01Z</time>
      </trkpt>
      <trkpt lat="41.7545410" lon="-8.8754810">
        <ele>39.8</ele>
        <time>2021-05-18T07:44:02Z</time>
      </trkpt>
      <trkpt lat="41.7545490" lon="-8.8754770">
        <ele>39.8</ele>
        <time>2021-05-18T07:44:03Z</time>
      </trkpt>
      <trkpt lat="41.7545620" lon="-8.8754780">
        <ele>39.7</ele>
        <time>2021-05-18T07:44:04Z</time>
      </trkpt>
      <trkpt lat="41.7545790" lon="-8.8754820">
        <ele>39.7</ele>
        <time>2021-05-18T07:44:05Z</time>
      </trkpt>
      <trkpt lat="41.7546090" lon="-8.8754850">
        <ele>39.6</ele>
        <time>2021-05-18T07:44:06Z</time>
      </trkpt>
      <trkpt lat="41.7546210" lon="-8.8754870">
        <ele>39.6</ele>
        <time>2021-05-18T07:44:07Z</time>
      </trkpt>
      <trkpt lat="41.7546360" lon="-8.8754920">
        <ele>39.6</ele>
        <time>2021-05-18T07:44:08Z</time>
      </trkpt>
      <trkpt lat="41.7546480" lon="-8.8754970">
        <ele>39.6</ele>
        <time>2021-05-18T07:44:09Z</time>
      </trkpt>
      <trkpt lat="41.7546650" lon="-8.8754910">
        <ele>39.5</ele>
        <time>2021-05-18T07:44:10Z</time>
      </trkpt>
      <trkpt lat="41.7546810" lon="-8.8754950">
        <ele>39.5</ele>
        <time>2021-05-18T07:44:11Z</time>
      </trkpt>
      <trkpt lat="41.7546950" lon="-8.8754940">
        <ele>39.4</ele>
        <time>2021-05-18T07:44:12Z</time>
      </trkpt>
      <trkpt lat="41.7547150" lon="-8.8754960">
        <ele>39.4</ele>
        <time>2021-05-18T07:44:13Z</time>
      </trkpt>
      <trkpt lat="41.7547270" lon="-8.8754970">
        <ele>39.4</ele>
        <time>2021-05-18T07:44:14Z</time>
      </trkpt>
      <trkpt lat="41.7547480" lon="-8.8754960">
        <ele>39.3</ele>
        <time>2021-05-18T07:44:15Z</time>
      </trkpt>
      <trkpt lat="41.7547630" lon="-8.8754960">
        <ele>39.2</ele>
        <time>2021-05-18T07:44:16Z</time>
      </trkpt>
      <trkpt lat="41.7547830" lon="-8.8754960">
        <ele>39.2</ele>
        <time>2021-05-18T07:44:17Z</time>
      </trkpt>
      <trkpt lat="41.7547950" lon="-8.8754980">
        <ele>39.1</ele>
        <time>2021-05-18T07:44:18Z</time>
      </trkpt>
      <trkpt lat="41.7548100" lon="-8.8755010">
        <ele>39.1</ele>
        <time>2021-05-18T07:44:19Z</time>
      </trkpt>
      <trkpt lat="41.7548220" lon="-8.8754980">
        <ele>39.0</ele>
        <time>2021-05-18T07:44:20Z</time>
      </trkpt>
      <trkpt lat="41.7548440" lon="-8.8755030">
        <ele>39.0</ele>
        <time>2021-05-18T07:44:21Z</time>
      </trkpt>
      <trkpt lat="41.7548510" lon="-8.8755020">
        <ele>38.9</ele>
        <time>2021-05-18T07:44:22Z</time>
      </trkpt>
      <trkpt lat="41.7548530" lon="-8.8755000">
        <ele>38.9</ele>
        <time>2021-05-18T07:44:23Z</time>
      </trkpt>
      <trkpt lat="41.7548630" lon="-8.8755000">
        <ele>38.9</ele>
        <time>2021-05-18T07:44:24Z</time>
      </trkpt>
      <trkpt lat="41.7548760" lon="-8.8755020">
        <ele>38.8</ele>
        <time>2021-05-18T07:44:25Z</time>
      </trkpt>
      <trkpt lat="41.7549060" lon="-8.8755070">
        <ele>38.7</ele>
        <time>2021-05-18T07:44:26Z</time>
      </trkpt>
      <trkpt lat="41.7549170" lon="-8.8755100">
        <ele>38.7</ele>
        <time>2021-05-18T07:44:27Z</time>
      </trkpt>
      <trkpt lat="41.7549220" lon="-8.8755060">
        <ele>38.6</ele>
        <time>2021-05-18T07:44:28Z</time>
      </trkpt>
      <trkpt lat="41.7549370" lon="-8.8755120">
        <ele>38.6</ele>
        <time>2021-05-18T07:44:29Z</time>
      </trkpt>
      <trkpt lat="41.7549490" lon="-8.8755130">
        <ele>38.5</ele>
        <time>2021-05-18T07:44:30Z</time>
      </trkpt>
      <trkpt lat="41.7549730" lon="-8.8755170">
        <ele>38.4</ele>
        <time>2021-05-18T07:44:31Z</time>
      </trkpt>
      <trkpt lat="41.7549820" lon="-8.8755190">
        <ele>38.3</ele>
        <time>2021-05-18T07:44:32Z</time>
      </trkpt>
      <trkpt lat="41.7549920" lon="-8.8755220">
        <ele>38.3</ele>
        <time>2021-05-18T07:44:33Z</time>
      </trkpt>
      <trkpt lat="41.7550120" lon="-8.8755260">
        <ele>38.2</ele>
        <time>2021-05-18T07:44:34Z</time>
      </trkpt>
      <trkpt lat="41.7550280" lon="-8.8755320">
        <ele>38.1</ele>
        <time>2021-05-18T07:44:35Z</time>
      </trkpt>
      <trkpt lat="41.7550490" lon="-8.8755350">
        <ele>38.0</ele>
        <time>2021-05-18T07:44:36Z</time>
      </trkpt>
      <trkpt lat="41.7550590" lon="-8.8755370">
        <ele>37.9</ele>
        <time>2021-05-18T07:44:37Z</time>
      </trkpt>
      <trkpt lat="41.7550690" lon="-8.8755380">
        <ele>37.9</ele>
        <time>2021-05-18T07:44:38Z</time>
      </trkpt>
      <trkpt lat="41.7550830" lon="-8.8755370">
        <ele>37.8</ele>
        <time>2021-05-18T07:44:39Z</time>
      </trkpt>
      <trkpt lat="41.7551000" lon="-8.8755420">
        <ele>37.7</ele>
        <time>2021-05-18T07:44:40Z</time>
      </trkpt>
      <trkpt lat="41.7551130" lon="-8.8755430">
        <ele>37.6</ele>
        <time>2021-05-18T07:44:41Z</time>
      </trkpt>
      <trkpt lat="41.7551340" lon="-8.8755450">
        <ele>37.5</ele>
        <time>2021-05-18T07:44:42Z</time>
      </trkpt>
      <trkpt lat="41.7551460" lon="-8.8755420">
        <ele>37.4</ele>
        <time>2021-05-18T07:44:43Z</time>
      </trkpt>
      <trkpt lat="41.7551570" lon="-8.8755370">
        <ele>37.3</ele>
        <time>2021-05-18T07:44:44Z</time>
      </trkpt>
      <trkpt lat="41.7551670" lon="-8.8755310">
        <ele>37.3</ele>
        <time>2021-05-18T07:44:45Z</time>
      </trkpt>
      <trkpt lat="41.7551930" lon="-8.8755120">
        <ele>37.1</ele>
        <time>2021-05-18T07:44:46Z</time>
      </trkpt>
      <trkpt lat="41.7551980" lon="-8.8755040">
        <ele>37.0</ele>
        <time>2021-05-18T07:44:47Z</time>
      </trkpt>
      <trkpt lat="41.7552130" lon="-8.8754880">
        <ele>36.9</ele>
        <time>2021-05-18T07:44:48Z</time>
      </trkpt>
      <trkpt lat="41.7552180" lon="-8.8754760">
        <ele>36.8</ele>
        <time>2021-05-18T07:44:49Z</time>
      </trkpt>
      <trkpt lat="41.7552320" lon="-8.8754640">
        <ele>36.7</ele>
        <time>2021-05-18T07:44:50Z</time>
      </trkpt>
      <trkpt lat="41.7552410" lon="-8.8754510">
        <ele>36.6</ele>
        <time>2021-05-18T07:44:51Z</time>
      </trkpt>
      <trkpt lat="41.7552520" lon="-8.8754350">
        <ele>36.4</ele>
        <time>2021-05-18T07:44:52Z</time>
      </trkpt>
      <trkpt lat="41.7552600" lon="-8.8754260">
        <ele>36.3</ele>
        <time>2021-05-18T07:44:53Z</time>
      </trkpt>
      <trkpt lat="41.7552670" lon="-8.8754180">
        <ele>36.3</ele>
        <time>2021-05-18T07:44:54Z</time>
      </trkpt>
      <trkpt lat="41.7552740" lon="-8.8754090">
        <ele>36.2</ele>
        <time>2021-05-18T07:44:55Z</time>
      </trkpt>
      <trkpt lat="41.7552780" lon="-8.8753930">
        <ele>36.1</ele>
        <time>2021-05-18T07:44:56Z</time>
      </trkpt>
      <trkpt lat="41.7552770" lon="-8.8753780">
        <ele>36.0</ele>
        <time>2021-05-18T07:44:57Z</time>
      </trkpt>
      <trkpt lat="41.7552800" lon="-8.8753620">
        <ele>35.9</ele>
        <time>2021-05-18T07:44:58Z</time>
      </trkpt>
      <trkpt lat="41.7552760" lon="-8.8753450">
        <ele>35.8</ele>
        <time>2021-05-18T07:44:59Z</time>
      </trkpt>
      <trkpt lat="41.7552810" lon="-8.8753250">
        <ele>35.7</ele>
        <time>2021-05-18T07:45:00Z</time>
      </trkpt>
      <trkpt lat="41.7552820" lon="-8.8753060">
        <ele>35.5</ele>
        <time>2021-05-18T07:45:01Z</time>
      </trkpt>
      <trkpt lat="41.7552850" lon="-8.8752890">
        <ele>35.4</ele>
        <time>2021-05-18T07:45:02Z</time>
      </trkpt>
      <trkpt lat="41.7552850" lon="-8.8752720">
        <ele>35.3</ele>
        <time>2021-05-18T07:45:03Z</time>
      </trkpt>
      <trkpt lat="41.7552910" lon="-8.8752490">
        <ele>35.1</ele>
        <time>2021-05-18T07:45:04Z</time>
      </trkpt>
      <trkpt lat="41.7552990" lon="-8.8752230">
        <ele>34.9</ele>
        <time>2021-05-18T07:45:05Z</time>
      </trkpt>
      <trkpt lat="41.7553060" lon="-8.8752150">
        <ele>34.8</ele>
        <time>2021-05-18T07:45:06Z</time>
      </trkpt>
      <trkpt lat="41.7553100" lon="-8.8751860">
        <ele>34.6</ele>
        <time>2021-05-18T07:45:07Z</time>
      </trkpt>
      <trkpt lat="41.7553140" lon="-8.8751750">
        <ele>34.5</ele>
        <time>2021-05-18T07:45:08Z</time>
      </trkpt>
      <trkpt lat="41.7553170" lon="-8.8751640">
        <ele>34.5</ele>
        <time>2021-05-18T07:45:09Z</time>
      </trkpt>
      <trkpt lat="41.7553180" lon="-8.8751510">
        <ele>34.4</ele>
        <time>2021-05-18T07:45:10Z</time>
      </trkpt>
      <trkpt lat="41.7553240" lon="-8.8751340">
        <ele>34.2</ele>
        <time>2021-05-18T07:45:11Z</time>
      </trkpt>
      <trkpt lat="41.7553200" lon="-8.8751230">
        <ele>34.1</ele>
        <time>2021-05-18T07:45:12Z</time>
      </trkpt>
      <trkpt lat="41.7553270" lon="-8.8751000">
        <ele>34.0</ele>
        <time>2021-05-18T07:45:13Z</time>
      </trkpt>
      <trkpt lat="41.7553330" lon="-8.8750840">
        <ele>33.8</ele>
        <time>2021-05-18T07:45:14Z</time>
      </trkpt>
      <trkpt lat="41.7553460" lon="-8.8750610">
        <ele>33.6</ele>
        <time>2021-05-18T07:45:15Z</time>
      </trkpt>
      <trkpt lat="41.7553510" lon="-8.8750510">
        <ele>33.5</ele>
        <time>2021-05-18T07:45:16Z</time>
      </trkpt>
      <trkpt lat="41.7553560" lon="-8.8750410">
        <ele>33.5</ele>
        <time>2021-05-18T07:45:17Z</time>
      </trkpt>
      <trkpt lat="41.7553700" lon="-8.8750160">
        <ele>33.3</ele>
        <time>2021-05-18T07:45:18Z</time>
      </trkpt>
      <trkpt lat="41.7553750" lon="-8.8750090">
        <ele>33.2</ele>
        <time>2021-05-18T07:45:19Z</time>
      </trkpt>
      <trkpt lat="41.7553800" lon="-8.8750010">
        <ele>33.1</ele>
        <time>2021-05-18T07:45:20Z</time>
      </trkpt>
      <trkpt lat="41.7553870" lon="-8.8749890">
        <ele>33.0</ele>
        <time>2021-05-18T07:45:21Z</time>
      </trkpt>
      <trkpt lat="41.7553920" lon="-8.8749770">
        <ele>33.0</ele>
        <time>2021-05-18T07:45:22Z</time>
      </trkpt>
      <trkpt lat="41.7553970" lon="-8.8749670">
        <ele>32.9</ele>
        <time>2021-05-18T07:45:23Z</time>
      </trkpt>
      <trkpt lat="41.7554030" lon="-8.8749510">
        <ele>32.8</ele>
        <time>2021-05-18T07:45:24Z</time>
      </trkpt>
      <trkpt lat="41.7554100" lon="-8.8749280">
        <ele>32.7</ele>
        <time>2021-05-18T07:45:25Z</time>
      </trkpt>
      <trkpt lat="41.7554220" lon="-8.8749110">
        <ele>32.6</ele>
        <time>2021-05-18T07:45:26Z</time>
      </trkpt>
      <trkpt lat="41.7554290" lon="-8.8748970">
        <ele>32.5</ele>
        <time>2021-05-18T07:45:27Z</time>
      </trkpt>
      <trkpt lat="41.7554580" lon="-8.8748790">
        <ele>32.4</ele>
        <time>2021-05-18T07:45:28Z</time>
      </trkpt>
      <trkpt lat="41.7554640" lon="-8.8748720">
        <ele>32.4</ele>
        <time>2021-05-18T07:45:29Z</time>
      </trkpt>
      <trkpt lat="41.7554840" lon="-8.8748520">
        <ele>32.3</ele>
        <time>2021-05-18T07:45:30Z</time>
      </trkpt>
      <trkpt lat="41.7554860" lon="-8.8748410">
        <ele>32.3</ele>
        <time>2021-05-18T07:45:31Z</time>
      </trkpt>
      <trkpt lat="41.7555120" lon="-8.8748300">
        <ele>32.3</ele>
        <time>2021-05-18T07:45:32Z</time>
      </trkpt>
      <trkpt lat="41.7555350" lon="-8.8748060">
        <ele>32.3</ele>
        <time>2021-05-18T07:45:33Z</time>
      </trkpt>
      <trkpt lat="41.7555450" lon="-8.8748000">
        <ele>32.3</ele>
        <time>2021-05-18T07:45:34Z</time>
      </trkpt>
      <trkpt lat="41.7555580" lon="-8.8747850">
        <ele>32.3</ele>
        <time>2021-05-18T07:45:35Z</time>
      </trkpt>
      <trkpt lat="41.7555710" lon="-8.8747680">
        <ele>32.3</ele>
        <time>2021-05-18T07:45:36Z</time>
      </trkpt>
      <trkpt lat="41.7555930" lon="-8.8747400">
        <ele>32.4</ele>
        <time>2021-05-18T07:45:37Z</time>
      </trkpt>
      <trkpt lat="41.7556010" lon="-8.8747320">
        <ele>32.4</ele>
        <time>2021-05-18T07:45:38Z</time>
      </trkpt>
      <trkpt lat="41.7556130" lon="-8.8747150">
        <ele>32.5</ele>
        <time>2021-05-18T07:45:39Z</time>
      </trkpt>
      <trkpt lat="41.7556170" lon="-8.8746980">
        <ele>32.5</ele>
        <time>2021-05-18T07:45:40Z</time>
      </trkpt>
      <trkpt lat="41.7556330" lon="-8.8746820">
        <ele>32.6</ele>
        <time>2021-05-18T07:45:41Z</time>
      </trkpt>
      <trkpt lat="41.7556400" lon="-8.8746770">
        <ele>32.6</ele>
        <time>2021-05-18T07:45:42Z</time>
      </trkpt>
      <trkpt lat="41.7556500" lon="-8.8746540">
        <ele>32.7</ele>
        <time>2021-05-18T07:45:43Z</time>
      </trkpt>
      <trkpt lat="41.7556560" lon="-8.8746440">
        <ele>32.7</ele>
        <time>2021-05-18T07:45:44Z</time>
      </trkpt>
      <trkpt lat="41.7556640" lon="-8.8746130">
        <ele>32.8</ele>
        <time>2021-05-18T07:45:45Z</time>
      </trkpt>
      <trkpt lat="41.7556660" lon="-8.8746020">
        <ele>32.9</ele>
        <time>2021-05-18T07:45:46Z</time>
      </trkpt>
      <trkpt lat="41.7556680" lon="-8.8745920">
        <ele>32.9</ele>
        <time>2021-05-18T07:45:47Z</time>
      </trkpt>
      <trkpt lat="41.7556750" lon="-8.8745870">
        <ele>33.0</ele>
        <time>2021-05-18T07:45:48Z</time>
      </trkpt>
      <trkpt lat="41.7556770" lon="-8.8745720">
        <ele>33.0</ele>
        <time>2021-05-18T07:45:49Z</time>
      </trkpt>
      <trkpt lat="41.7556830" lon="-8.8745590">
        <ele>33.1</ele>
        <time>2021-05-18T07:45:50Z</time>
      </trkpt>
      <trkpt lat="41.7556910" lon="-8.8745410">
        <ele>33.1</ele>
        <time>2021-05-18T07:45:51Z</time>
      </trkpt>
      <trkpt lat="41.7557040" lon="-8.8745290">
        <ele>33.2</ele>
        <time>2021-05-18T07:45:52Z</time>
      </trkpt>
      <trkpt lat="41.7557180" lon="-8.8745050">
        <ele>33.3</ele>
        <time>2021-05-18T07:45:53Z</time>
      </trkpt>
      <trkpt lat="41.7557230" lon="-8.8744980">
        <ele>33.4</ele>
        <time>2021-05-18T07:45:54Z</time>
      </trkpt>
      <trkpt lat="41.7557280" lon="-8.8744920">
        <ele>33.4</ele>
        <time>2021-05-18T07:45:55Z</time>
      </trkpt>
      <trkpt lat="41.7557380" lon="-8.8744760">
        <ele>33.5</ele>
        <time>2021-05-18T07:45:56Z</time>
      </trkpt>
      <trkpt lat="41.7557430" lon="-8.8744560">
        <ele>33.5</ele>
        <time>2021-05-18T07:45:57Z</time>
      </trkpt>
      <trkpt lat="41.7557430" lon="-8.8744370">
        <ele>33.6</ele>
        <time>2021-05-18T07:45:58Z</time>
      </trkpt>
      <trkpt lat="41.7557490" lon="-8.8744170">
        <ele>33.7</ele>
        <time>2021-05-18T07:45:59Z</time>
      </trkpt>
      <trkpt lat="41.7557500" lon="-8.8743990">
        <ele>33.7</ele>
        <time>2021-05-18T07:46:00Z</time>
      </trkpt>
      <trkpt lat="41.7557510" lon="-8.8743780">
        <ele>33.8</ele>
        <time>2021-05-18T07:46:01Z</time>
      </trkpt>
      <trkpt lat="41.7557660" lon="-8.8743500">
        <ele>33.9</ele>
        <time>2021-05-18T07:46:02Z</time>
      </trkpt>
      <trkpt lat="41.7557720" lon="-8.8743350">
        <ele>34.0</ele>
        <time>2021-05-18T07:46:03Z</time>
      </trkpt>
      <trkpt lat="41.7557760" lon="-8.8743140">
        <ele>34.1</ele>
        <time>2021-05-18T07:46:04Z</time>
      </trkpt>
      <trkpt lat="41.7557810" lon="-8.8742930">
        <ele>34.1</ele>
        <time>2021-05-18T07:46:05Z</time>
      </trkpt>
      <trkpt lat="41.7557870" lon="-8.8742660">
        <ele>34.2</ele>
        <time>2021-05-18T07:46:06Z</time>
      </trkpt>
      <trkpt lat="41.7557920" lon="-8.8742540">
        <ele>34.2</ele>
        <time>2021-05-18T07:46:07Z</time>
      </trkpt>
      <trkpt lat="41.7557960" lon="-8.8742410">
        <ele>34.3</ele>
        <time>2021-05-18T07:46:08Z</time>
      </trkpt>
      <trkpt lat="41.7558060" lon="-8.8742260">
        <ele>34.3</ele>
        <time>2021-05-18T07:46:09Z</time>
      </trkpt>
      <trkpt lat="41.7558190" lon="-8.8742140">
        <ele>34.4</ele>
        <time>2021-05-18T07:46:10Z</time>
      </trkpt>
      <trkpt lat="41.7558240" lon="-8.8742090">
        <ele>34.4</ele>
        <time>2021-05-18T07:46:11Z</time>
      </trkpt>
      <trkpt lat="41.7558330" lon="-8.8742000">
        <ele>34.4</ele>
        <time>2021-05-18T07:46:12Z</time>
      </trkpt>
      <trkpt lat="41.7558480" lon="-8.8741900">
        <ele>34.5</ele>
        <time>2021-05-18T07:46:13Z</time>
      </trkpt>
      <trkpt lat="41.7558690" lon="-8.8741660">
        <ele>34.5</ele>
        <time>2021-05-18T07:46:14Z</time>
      </trkpt>
      <trkpt lat="41.7558750" lon="-8.8741570">
        <ele>34.5</ele>
        <time>2021-05-18T07:46:15Z</time>
      </trkpt>
      <trkpt lat="41.7558980" lon="-8.8741250">
        <ele>34.6</ele>
        <time>2021-05-18T07:46:16Z</time>
      </trkpt>
      <trkpt lat="41.7559070" lon="-8.8741140">
        <ele>34.6</ele>
        <time>2021-05-18T07:46:17Z</time>
      </trkpt>
      <trkpt lat="41.7559160" lon="-8.8741000">
        <ele>34.7</ele>
        <time>2021-05-18T07:46:18Z</time>
      </trkpt>
      <trkpt lat="41.7559250" lon="-8.8740800">
        <ele>34.7</ele>
        <time>2021-05-18T07:46:19Z</time>
      </trkpt>
      <trkpt lat="41.7559310" lon="-8.8740620">
        <ele>34.7</ele>
        <time>2021-05-18T07:46:20Z</time>
      </trkpt>
      <trkpt lat="41.7559360" lon="-8.8740440">
        <ele>34.7</ele>
        <time>2021-05-18T07:46:21Z</time>
      </trkpt>
      <trkpt lat="41.7559380" lon="-8.8740160">
        <ele>34.8</ele>
        <time>2021-05-18T07:46:22Z</time>
      </trkpt>
      <trkpt lat="41.7559400" lon="-8.8740060">
        <ele>34.8</ele>
        <time>2021-05-18T07:46:23Z</time>
      </trkpt>
      <trkpt lat="41.7559410" lon="-8.8739950">
        <ele>34.8</ele>
        <time>2021-05-18T07:46:24Z</time>
      </trkpt>
      <trkpt lat="41.7559400" lon="-8.8739790">
        <ele>34.8</ele>
        <time>2021-05-18T07:46:25Z</time>
      </trkpt>
      <trkpt lat="41.7559400" lon="-8.8739660">
        <ele>34.8</ele>
        <time>2021-05-18T07:46:26Z</time>
      </trkpt>
      <trkpt lat="41.7559430" lon="-8.8739480">
        <ele>34.8</ele>
        <time>2021-05-18T07:46:27Z</time>
      </trkpt>
      <trkpt lat="41.7559390" lon="-8.8739310">
        <ele>34.8</ele>
        <time>2021-05-18T07:46:28Z</time>
      </trkpt>
      <trkpt lat="41.7559450" lon="-8.8739080">
        <ele>34.8</ele>
        <time>2021-05-18T07:46:29Z</time>
      </trkpt>
      <trkpt lat="41.7559490" lon="-8.8738800">
        <ele>34.9</ele>
        <time>2021-05-18T07:46:30Z</time>
      </trkpt>
      <trkpt lat="41.7559530" lon="-8.8738670">
        <ele>34.9</ele>
        <time>2021-05-18T07:46:31Z</time>
      </trkpt>
      <trkpt lat="41.7559560" lon="-8.8738540">
        <ele>34.9</ele>
        <time>2021-05-18T07:46:32Z</time>
      </trkpt>
      <trkpt lat="41.7559580" lon="-8.8738230">
        <ele>34.9</ele>
        <time>2021-05-18T07:46:33Z</time>
      </trkpt>
      <trkpt lat="41.7559590" lon="-8.8738120">
        <ele>34.9</ele>
        <time>2021-05-18T07:46:34Z</time>
      </trkpt>
      <trkpt lat="41.7559610" lon="-8.8738020">
        <ele>34.9</ele>
        <time>2021-05-18T07:46:35Z</time>
      </trkpt>
      <trkpt lat="41.7559650" lon="-8.8737910">
        <ele>34.9</ele>
        <time>2021-05-18T07:46:36Z</time>
      </trkpt>
      <trkpt lat="41.7559750" lon="-8.8737800">
        <ele>34.9</ele>
        <time>2021-05-18T07:46:37Z</time>
      </trkpt>
      <trkpt lat="41.7559810" lon="-8.8737640">
        <ele>34.8</ele>
        <time>2021-05-18T07:46:38Z</time>
      </trkpt>
      <trkpt lat="41.7559900" lon="-8.8737490">
        <ele>34.8</ele>
        <time>2021-05-18T07:46:39Z</time>
      </trkpt>
      <trkpt lat="41.7559960" lon="-8.8737340">
        <ele>34.8</ele>
        <time>2021-05-18T07:46:40Z</time>
      </trkpt>
      <trkpt lat="41.7560020" lon="-8.8737260">
        <ele>34.8</ele>
        <time>2021-05-18T07:46:41Z</time>
      </trkpt>
      <trkpt lat="41.7560120" lon="-8.8737190">
        <ele>34.8</ele>
        <time>2021-05-18T07:46:42Z</time>
      </trkpt>
      <trkpt lat="41.7560200" lon="-8.8737180">
        <ele>34.8</ele>
        <time>2021-05-18T07:46:43Z</time>
      </trkpt>
      <trkpt lat="41.7560320" lon="-8.8737190">
        <ele>34.7</ele>
        <time>2021-05-18T07:46:44Z</time>
      </trkpt>
      <trkpt lat="41.7560580" lon="-8.8737030">
        <ele>34.7</ele>
        <time>2021-05-18T07:46:45Z</time>
      </trkpt>
      <trkpt lat="41.7560680" lon="-8.8736980">
        <ele>34.7</ele>
        <time>2021-05-18T07:46:46Z</time>
      </trkpt>
      <trkpt lat="41.7560850" lon="-8.8736700">
        <ele>34.6</ele>
        <time>2021-05-18T07:46:47Z</time>
      </trkpt>
      <trkpt lat="41.7560920" lon="-8.8736560">
        <ele>34.6</ele>
        <time>2021-05-18T07:46:48Z</time>
      </trkpt>
      <trkpt lat="41.7561040" lon="-8.8736280">
        <ele>34.6</ele>
        <time>2021-05-18T07:46:49Z</time>
      </trkpt>
      <trkpt lat="41.7561070" lon="-8.8736190">
        <ele>34.6</ele>
        <time>2021-05-18T07:46:50Z</time>
      </trkpt>
      <trkpt lat="41.7561100" lon="-8.8736100">
        <ele>34.5</ele>
        <time>2021-05-18T07:46:51Z</time>
      </trkpt>
      <trkpt lat="41.7561130" lon="-8.8735940">
        <ele>34.5</ele>
        <time>2021-05-18T07:46:52Z</time>
      </trkpt>
      <trkpt lat="41.7561160" lon="-8.8735780">
        <ele>34.5</ele>
        <time>2021-05-18T07:46:53Z</time>
      </trkpt>
      <trkpt lat="41.7561150" lon="-8.8735690">
        <ele>34.5</ele>
        <time>2021-05-18T07:46:54Z</time>
      </trkpt>
      <trkpt lat="41.7561180" lon="-8.8735430">
        <ele>34.5</ele>
        <time>2021-05-18T07:46:55Z</time>
      </trkpt>
      <trkpt lat="41.7561200" lon="-8.8735320">
        <ele>34.5</ele>
        <time>2021-05-18T07:46:56Z</time>
      </trkpt>
      <trkpt lat="41.7561230" lon="-8.8735200">
        <ele>34.4</ele>
        <time>2021-05-18T07:46:57Z</time>
      </trkpt>
      <trkpt lat="41.7561280" lon="-8.8734940">
        <ele>34.4</ele>
        <time>2021-05-18T07:46:58Z</time>
      </trkpt>
      <trkpt lat="41.7561350" lon="-8.8734820">
        <ele>34.4</ele>
        <time>2021-05-18T07:46:59Z</time>
      </trkpt>
      <trkpt lat="41.7561420" lon="-8.8734540">
        <ele>34.4</ele>
        <time>2021-05-18T07:47:00Z</time>
      </trkpt>
      <trkpt lat="41.7561440" lon="-8.8734440">
        <ele>34.4</ele>
        <time>2021-05-18T07:47:01Z</time>
      </trkpt>
      <trkpt lat="41.7561470" lon="-8.8734350">
        <ele>34.3</ele>
        <time>2021-05-18T07:47:02Z</time>
      </trkpt>
      <trkpt lat="41.7561530" lon="-8.8734170">
        <ele>34.3</ele>
        <time>2021-05-18T07:47:03Z</time>
      </trkpt>
      <trkpt lat="41.7561570" lon="-8.8734140">
        <ele>34.3</ele>
        <time>2021-05-18T07:47:04Z</time>
      </trkpt>
      <trkpt lat="41.7561610" lon="-8.8734000">
        <ele>34.3</ele>
        <time>2021-05-18T07:47:05Z</time>
      </trkpt>
      <trkpt lat="41.7561600" lon="-8.8733830">
        <ele>34.3</ele>
        <time>2021-05-18T07:47:06Z</time>
      </trkpt>
      <trkpt lat="41.7561670" lon="-8.8733570">
        <ele>34.3</ele>
        <time>2021-05-18T07:47:07Z</time>
      </trkpt>
      <trkpt lat="41.7561690" lon="-8.8733190">
        <ele>34.3</ele>
        <time>2021-05-18T07:47:08Z</time>
      </trkpt>
      <trkpt lat="41.7561690" lon="-8.8733030">
        <ele>34.2</ele>
        <time>2021-05-18T07:47:09Z</time>
      </trkpt>
      <trkpt lat="41.7561720" lon="-8.8732800">
        <ele>34.2</ele>
        <time>2021-05-18T07:47:10Z</time>
      </trkpt>
      <trkpt lat="41.7561730" lon="-8.8732590">
        <ele>34.2</ele>
        <time>2021-05-18T07:47:11Z</time>
      </trkpt>
      <trkpt lat="41.7561760" lon="-8.8732280">
        <ele>34.2</ele>
        <time>2021-05-18T07:47:12Z</time>
      </trkpt>
      <trkpt lat="41.7561800" lon="-8.8732200">
        <ele>34.2</ele>
        <time>2021-05-18T07:47:13Z</time>
      </trkpt>
      <trkpt lat="41.7561830" lon="-8.8732110">
        <ele>34.2</ele>
        <time>2021-05-18T07:47:14Z</time>
      </trkpt>
      <trkpt lat="41.7561940" lon="-8.8731810">
        <ele>34.2</ele>
        <time>2021-05-18T07:47:15Z</time>
      </trkpt>
      <trkpt lat="41.7562000" lon="-8.8731670">
        <ele>34.1</ele>
        <time>2021-05-18T07:47:16Z</time>
      </trkpt>
      <trkpt lat="41.7562060" lon="-8.8731540">
        <ele>34.1</ele>
        <time>2021-05-18T07:47:17Z</time>
      </trkpt>
      <trkpt lat="41.7562100" lon="-8.8731460">
        <ele>34.1</ele>
        <time>2021-05-18T07:47:18Z</time>
      </trkpt>
      <trkpt lat="41.7562100" lon="-8.8731210">
        <ele>34.1</ele>
        <time>2021-05-18T07:47:19Z</time>
      </trkpt>
      <trkpt lat="41.7562130" lon="-8.8731150">
        <ele>34.1</ele>
        <time>2021-05-18T07:47:20Z</time>
      </trkpt>
      <trkpt lat="41.7562120" lon="-8.8730950">
        <ele>34.1</ele>
        <time>2021-05-18T07:47:21Z</time>
      </trkpt>
      <trkpt lat="41.7562180" lon="-8.8730860">
        <ele>34.1</ele>
        <time>2021-05-18T07:47:22Z</time>
      </trkpt>
      <trkpt lat="41.7562260" lon="-8.8730800">
        <ele>34.0</ele>
        <time>2021-05-18T07:47:23Z</time>
      </trkpt>
      <trkpt lat="41.7562410" lon="-8.8730670">
        <ele>34.0</ele>
        <time>2021-05-18T07:47:24Z</time>
      </trkpt>
      <trkpt lat="41.7562500" lon="-8.8730560">
        <ele>34.0</ele>
        <time>2021-05-18T07:47:25Z</time>
      </trkpt>
      <trkpt lat="41.7562640" lon="-8.8730360">
        <ele>33.9</ele>
        <time>2021-05-18T07:47:26Z</time>
      </trkpt>
      <trkpt lat="41.7562700" lon="-8.8730280">
        <ele>33.9</ele>
        <time>2021-05-18T07:47:27Z</time>
      </trkpt>
      <trkpt lat="41.7562760" lon="-8.8730200">
        <ele>33.9</ele>
        <time>2021-05-18T07:47:28Z</time>
      </trkpt>
      <trkpt lat="41.7562870" lon="-8.8730070">
        <ele>33.8</ele>
        <time>2021-05-18T07:47:29Z</time>
      </trkpt>
      <trkpt lat="41.7562970" lon="-8.8729920">
        <ele>33.8</ele>
        <time>2021-05-18T07:47:30Z</time>
      </trkpt>
      <trkpt lat="41.7562970" lon="-8.8729790">
        <ele>33.8</ele>
        <time>2021-05-18T07:47:31Z</time>
      </trkpt>
      <trkpt lat="41.7563040" lon="-8.8729660">
        <ele>33.7</ele>
        <time>2021-05-18T07:47:32Z</time>
      </trkpt>
      <trkpt lat="41.7563130" lon="-8.8729610">
        <ele>33.7</ele>
        <time>2021-05-18T07:47:33Z</time>
      </trkpt>
      <trkpt lat="41.7563230" lon="-8.8729470">
        <ele>33.7</ele>
        <time>2021-05-18T07:47:34Z</time>
      </trkpt>
      <trkpt lat="41.7563330" lon="-8.8729470">
        <ele>33.6</ele>
        <time>2021-05-18T07:47:35Z</time>
      </trkpt>
      <trkpt lat="41.7563420" lon="-8.8729330">
        <ele>33.6</ele>
        <time>2021-05-18T07:47:36Z</time>
      </trkpt>
      <trkpt lat="41.7563500" lon="-8.8729190">
        <ele>33.5</ele>
        <time>2021-05-18T07:47:37Z</time>
      </trkpt>
      <trkpt lat="41.7563610" lon="-8.8729070">
        <ele>33.5</ele>
        <time>2021-05-18T07:47:38Z</time>
      </trkpt>
      <trkpt lat="41.7563700" lon="-8.8728930">
        <ele>33.4</ele>
        <time>2021-05-18T07:47:39Z</time>
      </trkpt>
      <trkpt lat="41.7563740" lon="-8.8728820">
        <ele>33.4</ele>
        <time>2021-05-18T07:47:40Z</time>
      </trkpt>
      <trkpt lat="41.7563790" lon="-8.8728730">
        <ele>33.4</ele>
        <time>2021-05-18T07:47:41Z</time>
      </trkpt>
      <trkpt lat="41.7563880" lon="-8.8728590">
        <ele>33.3</ele>
        <time>2021-05-18T07:47:42Z</time>
      </trkpt>
      <trkpt lat="41.7564010" lon="-8.8728460">
        <ele>33.2</ele>
        <time>2021-05-18T07:47:43Z</time>
      </trkpt>
      <trkpt lat="41.7564250" lon="-8.8728240">
        <ele>33.1</ele>
        <time>2021-05-18T07:47:44Z</time>
      </trkpt>
      <trkpt lat="41.7564320" lon="-8.8728160">
        <ele>33.0</ele>
        <time>2021-05-18T07:47:45Z</time>
      </trkpt>
      <trkpt lat="41.7564460" lon="-8.8727930">
        <ele>32.9</ele>
        <time>2021-05-18T07:47:46Z</time>
      </trkpt>
      <trkpt lat="41.7564530" lon="-8.8727810">
        <ele>32.8</ele>
        <time>2021-05-18T07:47:47Z</time>
      </trkpt>
      <trkpt lat="41.7564590" lon="-8.8727680">
        <ele>32.7</ele>
        <time>2021-05-18T07:47:48Z</time>
      </trkpt>
      <trkpt lat="41.7564650" lon="-8.8727520">
        <ele>32.6</ele>
        <time>2021-05-18T07:47:49Z</time>
      </trkpt>
      <trkpt lat="41.7564750" lon="-8.8727470">
        <ele>32.6</ele>
        <time>2021-05-18T07:47:50Z</time>
      </trkpt>
      <trkpt lat="41.7564850" lon="-8.8727290">
        <ele>32.5</ele>
        <time>2021-05-18T07:47:51Z</time>
      </trkpt>
      <trkpt lat="41.7565000" lon="-8.8727160">
        <ele>32.3</ele>
        <time>2021-05-18T07:47:52Z</time>
      </trkpt>
      <trkpt lat="41.7565150" lon="-8.8727000">
        <ele>32.2</ele>
        <time>2021-05-18T07:47:53Z</time>
      </trkpt>
      <trkpt lat="41.7565210" lon="-8.8726920">
        <ele>32.1</ele>
        <time>2021-05-18T07:47:54Z</time>
      </trkpt>
      <trkpt lat="41.7565280" lon="-8.8726850">
        <ele>32.0</ele>
        <time>2021-05-18T07:47:55Z</time>
      </trkpt>
      <trkpt lat="41.7565440" lon="-8.8726760">
        <ele>31.9</ele>
        <time>2021-05-18T07:47:56Z</time>
      </trkpt>
      <trkpt lat="41.7565540" lon="-8.8726680">
        <ele>31.8</ele>
        <time>2021-05-18T07:47:57Z</time>
      </trkpt>
      <trkpt lat="41.7565630" lon="-8.8726610">
        <ele>31.7</ele>
        <time>2021-05-18T07:47:58Z</time>
      </trkpt>
      <trkpt lat="41.7565730" lon="-8.8726520">
        <ele>31.6</ele>
        <time>2021-05-18T07:47:59Z</time>
      </trkpt>
      <trkpt lat="41.7565820" lon="-8.8726340">
        <ele>31.4</ele>
        <time>2021-05-18T07:48:00Z</time>
      </trkpt>
      <trkpt lat="41.7565920" lon="-8.8726280">
        <ele>31.3</ele>
        <time>2021-05-18T07:48:01Z</time>
      </trkpt>
      <trkpt lat="41.7566070" lon="-8.8726140">
        <ele>31.2</ele>
        <time>2021-05-18T07:48:02Z</time>
      </trkpt>
      <trkpt lat="41.7566130" lon="-8.8726120">
        <ele>31.1</ele>
        <time>2021-05-18T07:48:03Z</time>
      </trkpt>
      <trkpt lat="41.7566270" lon="-8.8725970">
        <ele>31.0</ele>
        <time>2021-05-18T07:48:04Z</time>
      </trkpt>
      <trkpt lat="41.7566350" lon="-8.8726050">
        <ele>30.9</ele>
        <time>2021-05-18T07:48:05Z</time>
      </trkpt>
      <trkpt lat="41.7566640" lon="-8.8725930">
        <ele>30.6</ele>
        <time>2021-05-18T07:48:06Z</time>
      </trkpt>
      <trkpt lat="41.7566720" lon="-8.8725880">
        <ele>30.5</ele>
        <time>2021-05-18T07:48:07Z</time>
      </trkpt>
      <trkpt lat="41.7566890" lon="-8.8725870">
        <ele>30.3</ele>
        <time>2021-05-18T07:48:08Z</time>
      </trkpt>
      <trkpt lat="41.7566980" lon="-8.8725840">
        <ele>30.2</ele>
        <time>2021-05-18T07:48:09Z</time>
      </trkpt>
      <trkpt lat="41.7567080" lon="-8.8725820">
        <ele>30.1</ele>
        <time>2021-05-18T07:48:10Z</time>
      </trkpt>
      <trkpt lat="41.7567170" lon="-8.8725790">
        <ele>30.0</ele>
        <time>2021-05-18T07:48:11Z</time>
      </trkpt>
      <trkpt lat="41.7567250" lon="-8.8725830">
        <ele>29.9</ele>
        <time>2021-05-18T07:48:12Z</time>
      </trkpt>
      <trkpt lat="41.7567490" lon="-8.8725760">
        <ele>29.6</ele>
        <time>2021-05-18T07:48:13Z</time>
      </trkpt>
      <trkpt lat="41.7567610" lon="-8.8725670">
        <ele>29.5</ele>
        <time>2021-05-18T07:48:14Z</time>
      </trkpt>
      <trkpt lat="41.7567780" lon="-8.8725650">
        <ele>29.3</ele>
        <time>2021-05-18T07:48:15Z</time>
      </trkpt>
      <trkpt lat="41.7567960" lon="-8.8725610">
        <ele>29.1</ele>
        <time>2021-05-18T07:48:16Z</time>
      </trkpt>
      <trkpt lat="41.7568050" lon="-8.8725590">
        <ele>29.0</ele>
        <time>2021-05-18T07:48:17Z</time>
      </trkpt>
      <trkpt lat="41.7568130" lon="-8.8725580">
        <ele>28.9</ele>
        <time>2021-05-18T07:48:18Z</time>
      </trkpt>
      <trkpt lat="41.7568210" lon="-8.8725560">
        <ele>28.8</ele>
        <time>2021-05-18T07:48:19Z</time>
      </trkpt>
      <trkpt lat="41.7568400" lon="-8.8725610">
        <ele>28.6</ele>
        <time>2021-05-18T07:48:20Z</time>
      </trkpt>
      <trkpt lat="41.7568550" lon="-8.8725630">
        <ele>28.4</ele>
        <time>2021-05-18T07:48:21Z</time>
      </trkpt>
      <trkpt lat="41.7568690" lon="-8.8725590">
        <ele>28.3</ele>
        <time>2021-05-18T07:48:22Z</time>
      </trkpt>
      <trkpt lat="41.7568890" lon="-8.8725650">
        <ele>28.0</ele>
        <time>2021-05-18T07:48:23Z</time>
      </trkpt>
      <trkpt lat="41.7569060" lon="-8.8725680">
        <ele>27.8</ele>
        <time>2021-05-18T07:48:24Z</time>
      </trkpt>
      <trkpt lat="41.7569250" lon="-8.8725680">
        <ele>27.6</ele>
        <time>2021-05-18T07:48:25Z</time>
      </trkpt>
      <trkpt lat="41.7569360" lon="-8.8725660">
        <ele>27.5</ele>
        <time>2021-05-18T07:48:26Z</time>
      </trkpt>
      <trkpt lat="41.7569540" lon="-8.8725640">
        <ele>27.3</ele>
        <time>2021-05-18T07:48:27Z</time>
      </trkpt>
      <trkpt lat="41.7569600" lon="-8.8725630">
        <ele>27.2</ele>
        <time>2021-05-18T07:48:28Z</time>
      </trkpt>
      <trkpt lat="41.7569680" lon="-8.8725600">
        <ele>27.1</ele>
        <time>2021-05-18T07:48:29Z</time>
      </trkpt>
      <trkpt lat="41.7569850" lon="-8.8725610">
        <ele>26.9</ele>
        <time>2021-05-18T07:48:30Z</time>
      </trkpt>
      <trkpt lat="41.7569930" lon="-8.8725650">
        <ele>26.8</ele>
        <time>2021-05-18T07:48:31Z</time>
      </trkpt>
      <trkpt lat="41.7570010" lon="-8.8725610">
        <ele>26.8</ele>
        <time>2021-05-18T07:48:32Z</time>
      </trkpt>
      <trkpt lat="41.7570190" lon="-8.8725520">
        <ele>26.6</ele>
        <time>2021-05-18T07:48:33Z</time>
      </trkpt>
      <trkpt lat="41.7570430" lon="-8.8725520">
        <ele>26.3</ele>
        <time>2021-05-18T07:48:34Z</time>
      </trkpt>
      <trkpt lat="41.7570500" lon="-8.8725490">
        <ele>26.2</ele>
        <time>2021-05-18T07:48:35Z</time>
      </trkpt>
      <trkpt lat="41.7570580" lon="-8.8725470">
        <ele>26.2</ele>
        <time>2021-05-18T07:48:36Z</time>
      </trkpt>
      <trkpt lat="41.7570720" lon="-8.8725420">
        <ele>26.0</ele>
        <time>2021-05-18T07:48:37Z</time>
      </trkpt>
      <trkpt lat="41.7570860" lon="-8.8725390">
        <ele>25.9</ele>
        <time>2021-05-18T07:48:38Z</time>
      </trkpt>
      <trkpt lat="41.7570980" lon="-8.8725420">
        <ele>25.7</ele>
        <time>2021-05-18T07:48:39Z</time>
      </trkpt>
      <trkpt lat="41.7571190" lon="-8.8725380">
        <ele>25.5</ele>
        <time>2021-05-18T07:48:40Z</time>
      </trkpt>
      <trkpt lat="41.7571290" lon="-8.8725530">
        <ele>25.4</ele>
        <time>2021-05-18T07:48:41Z</time>
      </trkpt>
      <trkpt lat="41.7571450" lon="-8.8725470">
        <ele>25.2</ele>
        <time>2021-05-18T07:48:42Z</time>
      </trkpt>
      <trkpt lat="41.7571480" lon="-8.8725490">
        <ele>25.2</ele>
        <time>2021-05-18T07:48:43Z</time>
      </trkpt>
      <trkpt lat="41.7571700" lon="-8.8725510">
        <ele>24.9</ele>
        <time>2021-05-18T07:48:44Z</time>
      </trkpt>
      <trkpt lat="41.7571850" lon="-8.8725490">
        <ele>24.8</ele>
        <time>2021-05-18T07:48:45Z</time>
      </trkpt>
      <trkpt lat="41.7572000" lon="-8.8725470">
        <ele>24.6</ele>
        <time>2021-05-18T07:48:46Z</time>
      </trkpt>
      <trkpt lat="41.7572250" lon="-8.8725620">
        <ele>24.3</ele>
        <time>2021-05-18T07:48:47Z</time>
      </trkpt>
      <trkpt lat="41.7572360" lon="-8.8725670">
        <ele>24.2</ele>
        <time>2021-05-18T07:48:48Z</time>
      </trkpt>
      <trkpt lat="41.7572460" lon="-8.8725710">
        <ele>24.1</ele>
        <time>2021-05-18T07:48:49Z</time>
      </trkpt>
      <trkpt lat="41.7572700" lon="-8.8725830">
        <ele>23.8</ele>
        <time>2021-05-18T07:48:50Z</time>
      </trkpt>
      <trkpt lat="41.7572810" lon="-8.8725910">
        <ele>23.6</ele>
        <time>2021-05-18T07:48:51Z</time>
      </trkpt>
      <trkpt lat="41.7573010" lon="-8.8726160">
        <ele>23.3</ele>
        <time>2021-05-18T07:48:52Z</time>
      </trkpt>
      <trkpt lat="41.7573120" lon="-8.8726340">
        <ele>23.0</ele>
        <time>2021-05-18T07:48:53Z</time>
      </trkpt>
      <trkpt lat="41.7573200" lon="-8.8726470">
        <ele>22.9</ele>
        <time>2021-05-18T07:48:54Z</time>
      </trkpt>
      <trkpt lat="41.7573180" lon="-8.8726570">
        <ele>22.8</ele>
        <time>2021-05-18T07:48:55Z</time>
      </trkpt>
      <trkpt lat="41.7573280" lon="-8.8726710">
        <ele>22.6</ele>
        <time>2021-05-18T07:48:56Z</time>
      </trkpt>
      <trkpt lat="41.7573370" lon="-8.8726860">
        <ele>22.3</ele>
        <time>2021-05-18T07:48:57Z</time>
      </trkpt>
      <trkpt lat="41.7573480" lon="-8.8727110">
        <ele>22.0</ele>
        <time>2021-05-18T07:48:58Z</time>
      </trkpt>
      <trkpt lat="41.7573450" lon="-8.8727200">
        <ele>21.9</ele>
        <time>2021-05-18T07:48:59Z</time>
      </trkpt>
      <trkpt lat="41.7573450" lon="-8.8727260">
        <ele>21.9</ele>
        <time>2021-05-18T07:49:00Z</time>
      </trkpt>
      <trkpt lat="41.7573520" lon="-8.8727690">
        <ele>21.4</ele>
        <time>2021-05-18T07:49:01Z</time>
      </trkpt>
      <trkpt lat="41.7573520" lon="-8.8727790">
        <ele>21.3</ele>
        <time>2021-05-18T07:49:02Z</time>
      </trkpt>
      <trkpt lat="41.7573610" lon="-8.8728050">
        <ele>21.0</ele>
        <time>2021-05-18T07:49:03Z</time>
      </trkpt>
      <trkpt lat="41.7573650" lon="-8.8728210">
        <ele>20.8</ele>
        <time>2021-05-18T07:49:04Z</time>
      </trkpt>
      <trkpt lat="41.7573670" lon="-8.8728400">
        <ele>20.6</ele>
        <time>2021-05-18T07:49:05Z</time>
      </trkpt>
      <trkpt lat="41.7573740" lon="-8.8728600">
        <ele>20.4</ele>
        <time>2021-05-18T07:49:06Z</time>
      </trkpt>
      <trkpt lat="41.7573820" lon="-8.8728860">
        <ele>20.1</ele>
        <time>2021-05-18T07:49:07Z</time>
      </trkpt>
      <trkpt lat="41.7573860" lon="-8.8729000">
        <ele>20.0</ele>
        <time>2021-05-18T07:49:08Z</time>
      </trkpt>
      <trkpt lat="41.7573890" lon="-8.8729140">
        <ele>19.9</ele>
        <time>2021-05-18T07:49:09Z</time>
      </trkpt>
      <trkpt lat="41.7573930" lon="-8.8729380">
        <ele>19.7</ele>
        <time>2021-05-18T07:49:10Z</time>
      </trkpt>
      <trkpt lat="41.7573940" lon="-8.8729610">
        <ele>19.5</ele>
        <time>2021-05-18T07:49:11Z</time>
      </trkpt>
      <trkpt lat="41.7574040" lon="-8.8729990">
        <ele>19.2</ele>
        <time>2021-05-18T07:49:12Z</time>
      </trkpt>
      <trkpt lat="41.7574070" lon="-8.8730100">
        <ele>19.2</ele>
        <time>2021-05-18T07:49:13Z</time>
      </trkpt>
      <trkpt lat="41.7574150" lon="-8.8730320">
        <ele>19.0</ele>
        <time>2021-05-18T07:49:14Z</time>
      </trkpt>
      <trkpt lat="41.7574240" lon="-8.8730410">
        <ele>18.9</ele>
        <time>2021-05-18T07:49:15Z</time>
      </trkpt>
      <trkpt lat="41.7574270" lon="-8.8730700">
        <ele>18.4</ele>
        <time>2021-05-18T07:49:16Z</time>
      </trkpt>
      <trkpt lat="41.7574320" lon="-8.8730790">
        <ele>18.4</ele>
        <time>2021-05-18T07:49:17Z</time>
      </trkpt>
      <trkpt lat="41.7574370" lon="-8.8730870">
        <ele>18.4</ele>
        <time>2021-05-18T07:49:18Z</time>
      </trkpt>
      <trkpt lat="41.7574490" lon="-8.8731010">
        <ele>18.3</ele>
        <time>2021-05-18T07:49:19Z</time>
      </trkpt>
      <trkpt lat="41.7574660" lon="-8.8731120">
        <ele>18.3</ele>
        <time>2021-05-18T07:49:20Z</time>
      </trkpt>
      <trkpt lat="41.7574770" lon="-8.8731090">
        <ele>18.3</ele>
        <time>2021-05-18T07:49:21Z</time>
      </trkpt>
      <trkpt lat="41.7574830" lon="-8.8731010">
        <ele>18.2</ele>
        <time>2021-05-18T07:49:22Z</time>
      </trkpt>
      <trkpt lat="41.7574920" lon="-8.8730890">
        <ele>18.2</ele>
        <time>2021-05-18T07:49:23Z</time>
      </trkpt>
      <trkpt lat="41.7575130" lon="-8.8730840">
        <ele>18.2</ele>
        <time>2021-05-18T07:49:24Z</time>
      </trkpt>
      <trkpt lat="41.7575200" lon="-8.8730770">
        <ele>18.1</ele>
        <time>2021-05-18T07:49:25Z</time>
      </trkpt>
      <trkpt lat="41.7575260" lon="-8.8730690">
        <ele>18.1</ele>
        <time>2021-05-18T07:49:26Z</time>
      </trkpt>
      <trkpt lat="41.7575340" lon="-8.8730740">
        <ele>18.1</ele>
        <time>2021-05-18T07:49:27Z</time>
      </trkpt>
      <trkpt lat="41.7575510" lon="-8.8730720">
        <ele>18.1</ele>
        <time>2021-05-18T07:49:28Z</time>
      </trkpt>
      <trkpt lat="41.7575620" lon="-8.8730680">
        <ele>18.0</ele>
        <time>2021-05-18T07:49:29Z</time>
      </trkpt>
      <trkpt lat="41.7575820" lon="-8.8730550">
        <ele>18.0</ele>
        <time>2021-05-18T07:49:30Z</time>
      </trkpt>
      <trkpt lat="41.7575910" lon="-8.8730510">
        <ele>18.0</ele>
        <time>2021-05-18T07:49:31Z</time>
      </trkpt>
      <trkpt lat="41.7575990" lon="-8.8730470">
        <ele>18.0</ele>
        <time>2021-05-18T07:49:32Z</time>
      </trkpt>
      <trkpt lat="41.7576110" lon="-8.8730430">
        <ele>18.0</ele>
        <time>2021-05-18T07:49:33Z</time>
      </trkpt>
      <trkpt lat="41.7576210" lon="-8.8730430">
        <ele>17.9</ele>
        <time>2021-05-18T07:49:34Z</time>
      </trkpt>
      <trkpt lat="41.7576330" lon="-8.8730360">
        <ele>17.9</ele>
        <time>2021-05-18T07:49:35Z</time>
      </trkpt>
      <trkpt lat="41.7576500" lon="-8.8730310">
        <ele>17.9</ele>
        <time>2021-05-18T07:49:36Z</time>
      </trkpt>
      <trkpt lat="41.7576650" lon="-8.8730240">
        <ele>17.9</ele>
        <time>2021-05-18T07:49:37Z</time>
      </trkpt>
      <trkpt lat="41.7576820" lon="-8.8730250">
        <ele>17.8</ele>
        <time>2021-05-18T07:49:38Z</time>
      </trkpt>
      <trkpt lat="41.7576960" lon="-8.8730190">
        <ele>17.8</ele>
        <time>2021-05-18T07:49:39Z</time>
      </trkpt>
      <trkpt lat="41.7577160" lon="-8.8730180">
        <ele>17.8</ele>
        <time>2021-05-18T07:49:40Z</time>
      </trkpt>
      <trkpt lat="41.7577240" lon="-8.8730150">
        <ele>17.7</ele>
        <time>2021-05-18T07:49:41Z</time>
      </trkpt>
      <trkpt lat="41.7577320" lon="-8.8730120">
        <ele>17.7</ele>
        <time>2021-05-18T07:49:42Z</time>
      </trkpt>
      <trkpt lat="41.7577440" lon="-8.8730100">
        <ele>17.7</ele>
        <time>2021-05-18T07:49:43Z</time>
      </trkpt>
      <trkpt lat="41.7577670" lon="-8.8730140">
        <ele>17.7</ele>
        <time>2021-05-18T07:49:44Z</time>
      </trkpt>
      <trkpt lat="41.7577830" lon="-8.8730050">
        <ele>17.6</ele>
        <time>2021-05-18T07:49:45Z</time>
      </trkpt>
      <trkpt lat="41.7577980" lon="-8.8730030">
        <ele>17.6</ele>
        <time>2021-05-18T07:49:46Z</time>
      </trkpt>
      <trkpt lat="41.7578230" lon="-8.8729940">
        <ele>17.6</ele>
        <time>2021-05-18T07:49:47Z</time>
      </trkpt>
      <trkpt lat="41.7578310" lon="-8.8729930">
        <ele>17.6</ele>
        <time>2021-05-18T07:49:48Z</time>
      </trkpt>
      <trkpt lat="41.7578400" lon="-8.8729920">
        <ele>17.6</ele>
        <time>2021-05-18T07:49:49Z</time>
      </trkpt>
      <trkpt lat="41.7578390" lon="-8.8729900">
        <ele>17.6</ele>
        <time>2021-05-18T07:49:50Z</time>
      </trkpt>
      <trkpt lat="41.7578530" lon="-8.8729920">
        <ele>17.6</ele>
        <time>2021-05-18T07:49:51Z</time>
      </trkpt>
      <trkpt lat="41.7578670" lon="-8.8729910">
        <ele>17.6</ele>
        <time>2021-05-18T07:49:52Z</time>
      </trkpt>
      <trkpt lat="41.7578790" lon="-8.8729950">
        <ele>17.6</ele>
        <time>2021-05-18T07:49:53Z</time>
      </trkpt>
      <trkpt lat="41.7578880" lon="-8.8729970">
        <ele>17.6</ele>
        <time>2021-05-18T07:49:54Z</time>
      </trkpt>
      <trkpt lat="41.7578980" lon="-8.8730000">
        <ele>17.6</ele>
        <time>2021-05-18T07:49:55Z</time>
      </trkpt>
      <trkpt lat="41.7579070" lon="-8.8730030">
        <ele>17.6</ele>
        <time>2021-05-18T07:49:56Z</time>
      </trkpt>
      <trkpt lat="41.7579460" lon="-8.8730070">
        <ele>17.6</ele>
        <time>2021-05-18T07:49:57Z</time>
      </trkpt>
      <trkpt lat="41.7579600" lon="-8.8730080">
        <ele>17.6</ele>
        <time>2021-05-18T07:49:58Z</time>
      </trkpt>
      <trkpt lat="41.7579710" lon="-8.8730120">
        <ele>17.6</ele>
        <time>2021-05-18T07:49:59Z</time>
      </trkpt>
      <trkpt lat="41.7579900" lon="-8.8730100">
        <ele>17.6</ele>
        <time>2021-05-18T07:50:00Z</time>
      </trkpt>
      <trkpt lat="41.7580190" lon="-8.8730080">
        <ele>17.6</ele>
        <time>2021-05-18T07:50:01Z</time>
      </trkpt>
      <trkpt lat="41.7580290" lon="-8.8730030">
        <ele>17.6</ele>
        <time>2021-05-18T07:50:02Z</time>
      </trkpt>
      <trkpt lat="41.7580560" lon="-8.8729980">
        <ele>17.6</ele>
        <time>2021-05-18T07:50:03Z</time>
      </trkpt>
      <trkpt lat="41.7580660" lon="-8.8729970">
        <ele>17.6</ele>
        <time>2021-05-18T07:50:04Z</time>
      </trkpt>
      <trkpt lat="41.7580950" lon="-8.8729910">
        <ele>17.5</ele>
        <time>2021-05-18T07:50:05Z</time>
      </trkpt>
      <trkpt lat="41.7581030" lon="-8.8729880">
        <ele>17.5</ele>
        <time>2021-05-18T07:50:06Z</time>
      </trkpt>
      <trkpt lat="41.7581340" lon="-8.8729770">
        <ele>17.5</ele>
        <time>2021-05-18T07:50:07Z</time>
      </trkpt>
      <trkpt lat="41.7581430" lon="-8.8729760">
        <ele>17.5</ele>
        <time>2021-05-18T07:50:08Z</time>
      </trkpt>
      <trkpt lat="41.7581580" lon="-8.8729750">
        <ele>17.5</ele>
        <time>2021-05-18T07:50:09Z</time>
      </trkpt>
      <trkpt lat="41.7581760" lon="-8.8729820">
        <ele>17.3</ele>
        <time>2021-05-18T07:50:10Z</time>
      </trkpt>
      <trkpt lat="41.7581960" lon="-8.8729880">
        <ele>17.2</ele>
        <time>2021-05-18T07:50:11Z</time>
      </trkpt>
      <trkpt lat="41.7582080" lon="-8.8729990">
        <ele>17.2</ele>
        <time>2021-05-18T07:50:12Z</time>
      </trkpt>
      <trkpt lat="41.7582170" lon="-8.8730160">
        <ele>17.1</ele>
        <time>2021-05-18T07:50:13Z</time>
      </trkpt>
      <trkpt lat="41.7582280" lon="-8.8730350">
        <ele>17.0</ele>
        <time>2021-05-18T07:50:14Z</time>
      </trkpt>
      <trkpt lat="41.7582340" lon="-8.8730540">
        <ele>16.9</ele>
        <time>2021-05-18T07:50:15Z</time>
      </trkpt>
      <trkpt lat="41.7582410" lon="-8.8730730">
        <ele>16.9</ele>
        <time>2021-05-18T07:50:16Z</time>
      </trkpt>
      <trkpt lat="41.7582460" lon="-8.8730930">
        <ele>16.8</ele>
        <time>2021-05-18T07:50:17Z</time>
      </trkpt>
      <trkpt lat="41.7582490" lon="-8.8731100">
        <ele>16.8</ele>
        <time>2021-05-18T07:50:18Z</time>
      </trkpt>
      <trkpt lat="41.7582540" lon="-8.8731340">
        <ele>16.7</ele>
        <time>2021-05-18T07:50:19Z</time>
      </trkpt>
      <trkpt lat="41.7582580" lon="-8.8731530">
        <ele>16.6</ele>
        <time>2021-05-18T07:50:20Z</time>
      </trkpt>
      <trkpt lat="41.7582620" lon="-8.8731710">
        <ele>16.6</ele>
        <time>2021-05-18T07:50:21Z</time>
      </trkpt>
      <trkpt lat="41.7582640" lon="-8.8731930">
        <ele>16.5</ele>
        <time>2021-05-18T07:50:22Z</time>
      </trkpt>
      <trkpt lat="41.7582790" lon="-8.8732080">
        <ele>16.4</ele>
        <time>2021-05-18T07:50:23Z</time>
      </trkpt>
      <trkpt lat="41.7582860" lon="-8.8732250">
        <ele>16.4</ele>
        <time>2021-05-18T07:50:24Z</time>
      </trkpt>
      <trkpt lat="41.7582900" lon="-8.8732430">
        <ele>16.3</ele>
        <time>2021-05-18T07:50:25Z</time>
      </trkpt>
      <trkpt lat="41.7582990" lon="-8.8732620">
        <ele>16.2</ele>
        <time>2021-05-18T07:50:26Z</time>
      </trkpt>
      <trkpt lat="41.7583000" lon="-8.8732850">
        <ele>16.2</ele>
        <time>2021-05-18T07:50:27Z</time>
      </trkpt>
      <trkpt lat="41.7583050" lon="-8.8733060">
        <ele>16.1</ele>
        <time>2021-05-18T07:50:28Z</time>
      </trkpt>
      <trkpt lat="41.7583100" lon="-8.8733250">
        <ele>16.0</ele>
        <time>2021-05-18T07:50:29Z</time>
      </trkpt>
      <trkpt lat="41.7583140" lon="-8.8733420">
        <ele>16.0</ele>
        <time>2021-05-18T07:50:30Z</time>
      </trkpt>
      <trkpt lat="41.7583190" lon="-8.8733630">
        <ele>15.9</ele>
        <time>2021-05-18T07:50:31Z</time>
      </trkpt>
      <trkpt lat="41.7583250" lon="-8.8733760">
        <ele>15.9</ele>
        <time>2021-05-18T07:50:32Z</time>
      </trkpt>
      <trkpt lat="41.7583210" lon="-8.8733940">
        <ele>15.8</ele>
        <time>2021-05-18T07:50:33Z</time>
      </trkpt>
      <trkpt lat="41.7583270" lon="-8.8734100">
        <ele>15.8</ele>
        <time>2021-05-18T07:50:34Z</time>
      </trkpt>
      <trkpt lat="41.7583280" lon="-8.8734250">
        <ele>15.7</ele>
        <time>2021-05-18T07:50:35Z</time>
      </trkpt>
      <trkpt lat="41.7583340" lon="-8.8734410">
        <ele>15.7</ele>
        <time>2021-05-18T07:50:36Z</time>
      </trkpt>
      <trkpt lat="41.7583440" lon="-8.8734660">
        <ele>15.6</ele>
        <time>2021-05-18T07:50:37Z</time>
      </trkpt>
      <trkpt lat="41.7583400" lon="-8.8734810">
        <ele>15.5</ele>
        <time>2021-05-18T07:50:38Z</time>
      </trkpt>
      <trkpt lat="41.7583520" lon="-8.8735040">
        <ele>15.4</ele>
        <time>2021-05-18T07:50:39Z</time>
      </trkpt>
      <trkpt lat="41.7583570" lon="-8.8735260">
        <ele>15.4</ele>
        <time>2021-05-18T07:50:40Z</time>
      </trkpt>
      <trkpt lat="41.7583640" lon="-8.8735470">
        <ele>15.3</ele>
        <time>2021-05-18T07:50:41Z</time>
      </trkpt>
      <trkpt lat="41.7583760" lon="-8.8735680">
        <ele>15.2</ele>
        <time>2021-05-18T07:50:42Z</time>
      </trkpt>
      <trkpt lat="41.7583810" lon="-8.8735870">
        <ele>15.2</ele>
        <time>2021-05-18T07:50:43Z</time>
      </trkpt>
      <trkpt lat="41.7583830" lon="-8.8736060">
        <ele>15.1</ele>
        <time>2021-05-18T07:50:44Z</time>
      </trkpt>
      <trkpt lat="41.7583900" lon="-8.8736220">
        <ele>15.0</ele>
        <time>2021-05-18T07:50:45Z</time>
      </trkpt>
      <trkpt lat="41.7583900" lon="-8.8736530">
        <ele>15.0</ele>
        <time>2021-05-18T07:50:46Z</time>
      </trkpt>
      <trkpt lat="41.7583940" lon="-8.8736650">
        <ele>14.9</ele>
        <time>2021-05-18T07:50:47Z</time>
      </trkpt>
      <trkpt lat="41.7583990" lon="-8.8736760">
        <ele>14.9</ele>
        <time>2021-05-18T07:50:48Z</time>
      </trkpt>
      <trkpt lat="41.7584020" lon="-8.8736900">
        <ele>14.8</ele>
        <time>2021-05-18T07:50:49Z</time>
      </trkpt>
      <trkpt lat="41.7584120" lon="-8.8737150">
        <ele>14.7</ele>
        <time>2021-05-18T07:50:50Z</time>
      </trkpt>
      <trkpt lat="41.7584170" lon="-8.8737330">
        <ele>14.7</ele>
        <time>2021-05-18T07:50:51Z</time>
      </trkpt>
      <trkpt lat="41.7584220" lon="-8.8737510">
        <ele>14.6</ele>
        <time>2021-05-18T07:50:52Z</time>
      </trkpt>
      <trkpt lat="41.7584280" lon="-8.8737700">
        <ele>14.6</ele>
        <time>2021-05-18T07:50:53Z</time>
      </trkpt>
      <trkpt lat="41.7584340" lon="-8.8737890">
        <ele>14.5</ele>
        <time>2021-05-18T07:50:54Z</time>
      </trkpt>
      <trkpt lat="41.7584400" lon="-8.8738040">
        <ele>14.4</ele>
        <time>2021-05-18T07:50:55Z</time>
      </trkpt>
      <trkpt lat="41.7584450" lon="-8.8738270">
        <ele>14.4</ele>
        <time>2021-05-18T07:50:56Z</time>
      </trkpt>
      <trkpt lat="41.7584550" lon="-8.8738500">
        <ele>14.3</ele>
        <time>2021-05-18T07:50:57Z</time>
      </trkpt>
      <trkpt lat="41.7584600" lon="-8.8738620">
        <ele>14.3</ele>
        <time>2021-05-18T07:50:58Z</time>
      </trkpt>
      <trkpt lat="41.7584640" lon="-8.8738730">
        <ele>14.2</ele>
        <time>2021-05-18T07:50:59Z</time>
      </trkpt>
      <trkpt lat="41.7584670" lon="-8.8738940">
        <ele>14.2</ele>
        <time>2021-05-18T07:51:00Z</time>
      </trkpt>
      <trkpt lat="41.7584740" lon="-8.8739120">
        <ele>14.1</ele>
        <time>2021-05-18T07:51:01Z</time>
      </trkpt>
      <trkpt lat="41.7584740" lon="-8.8739300">
        <ele>14.1</ele>
        <time>2021-05-18T07:51:02Z</time>
      </trkpt>
      <trkpt lat="41.7584800" lon="-8.8739500">
        <ele>14.0</ele>
        <time>2021-05-18T07:51:03Z</time>
      </trkpt>
      <trkpt lat="41.7584890" lon="-8.8739700">
        <ele>13.9</ele>
        <time>2021-05-18T07:51:04Z</time>
      </trkpt>
      <trkpt lat="41.7584900" lon="-8.8739890">
        <ele>13.9</ele>
        <time>2021-05-18T07:51:05Z</time>
      </trkpt>
      <trkpt lat="41.7584970" lon="-8.8740090">
        <ele>13.8</ele>
        <time>2021-05-18T07:51:06Z</time>
      </trkpt>
      <trkpt lat="41.7585010" lon="-8.8740290">
        <ele>13.8</ele>
        <time>2021-05-18T07:51:07Z</time>
      </trkpt>
      <trkpt lat="41.7585030" lon="-8.8740480">
        <ele>13.7</ele>
        <time>2021-05-18T07:51:08Z</time>
      </trkpt>
      <trkpt lat="41.7585010" lon="-8.8740680">
        <ele>13.7</ele>
        <time>2021-05-18T07:51:09Z</time>
      </trkpt>
      <trkpt lat="41.7584980" lon="-8.8740880">
        <ele>13.6</ele>
        <time>2021-05-18T07:51:10Z</time>
      </trkpt>
      <trkpt lat="41.7584920" lon="-8.8741060">
        <ele>13.6</ele>
        <time>2021-05-18T07:51:11Z</time>
      </trkpt>
      <trkpt lat="41.7584920" lon="-8.8741360">
        <ele>13.5</ele>
        <time>2021-05-18T07:51:12Z</time>
      </trkpt>
      <trkpt lat="41.7584890" lon="-8.8741490">
        <ele>13.5</ele>
        <time>2021-05-18T07:51:13Z</time>
      </trkpt>
      <trkpt lat="41.7584850" lon="-8.8741610">
        <ele>13.5</ele>
        <time>2021-05-18T07:51:14Z</time>
      </trkpt>
      <trkpt lat="41.7584750" lon="-8.8741770">
        <ele>13.4</ele>
        <time>2021-05-18T07:51:15Z</time>
      </trkpt>
      <trkpt lat="41.7584610" lon="-8.8741940">
        <ele>13.4</ele>
        <time>2021-05-18T07:51:16Z</time>
      </trkpt>
      <trkpt lat="41.7584480" lon="-8.8742120">
        <ele>13.3</ele>
        <time>2021-05-18T07:51:17Z</time>
      </trkpt>
      <trkpt lat="41.7584350" lon="-8.8742270">
        <ele>13.3</ele>
        <time>2021-05-18T07:51:18Z</time>
      </trkpt>
      <trkpt lat="41.7584220" lon="-8.8742410">
        <ele>13.2</ele>
        <time>2021-05-18T07:51:19Z</time>
      </trkpt>
      <trkpt lat="41.7584100" lon="-8.8742530">
        <ele>13.2</ele>
        <time>2021-05-18T07:51:20Z</time>
      </trkpt>
      <trkpt lat="41.7584020" lon="-8.8742620">
        <ele>13.2</ele>
        <time>2021-05-18T07:51:21Z</time>
      </trkpt>
      <trkpt lat="41.7583990" lon="-8.8742660">
        <ele>13.2</ele>
        <time>2021-05-18T07:51:22Z</time>
      </trkpt>
      <trkpt lat="41.7584010" lon="-8.8742650">
        <ele>13.2</ele>
        <time>2021-05-18T07:51:23Z</time>
      </trkpt>
      <trkpt lat="41.7584040" lon="-8.8742570">
        <ele>13.2</ele>
        <time>2021-05-18T07:51:24Z</time>
      </trkpt>
      <trkpt lat="41.7583970" lon="-8.8742610">
        <ele>13.1</ele>
        <time>2021-05-18T07:51:25Z</time>
      </trkpt>
      <trkpt lat="41.7583810" lon="-8.8742710">
        <ele>13.1</ele>
        <time>2021-05-18T07:51:26Z</time>
      </trkpt>
      <trkpt lat="41.7583670" lon="-8.8742750">
        <ele>13.1</ele>
        <time>2021-05-18T07:51:27Z</time>
      </trkpt>
      <trkpt lat="41.7583540" lon="-8.8742790">
        <ele>13.1</ele>
        <time>2021-05-18T07:51:28Z</time>
      </trkpt>
      <trkpt lat="41.7583370" lon="-8.8742790">
        <ele>13.0</ele>
        <time>2021-05-18T07:51:29Z</time>
      </trkpt>
      <trkpt lat="41.7583250" lon="-8.8742840">
        <ele>13.0</ele>
        <time>2021-05-18T07:51:30Z</time>
      </trkpt>
      <trkpt lat="41.7583070" lon="-8.8742870">
        <ele>13.0</ele>
        <time>2021-05-18T07:51:31Z</time>
      </trkpt>
      <trkpt lat="41.7582970" lon="-8.8742980">
        <ele>13.0</ele>
        <time>2021-05-18T07:51:32Z</time>
      </trkpt>
      <trkpt lat="41.7582830" lon="-8.8743050">
        <ele>12.9</ele>
        <time>2021-05-18T07:51:33Z</time>
      </trkpt>
      <trkpt lat="41.7582680" lon="-8.8743150">
        <ele>12.9</ele>
        <time>2021-05-18T07:51:34Z</time>
      </trkpt>
      <trkpt lat="41.7582500" lon="-8.8743220">
        <ele>12.9</ele>
        <time>2021-05-18T07:51:35Z</time>
      </trkpt>
      <trkpt lat="41.7582410" lon="-8.8743340">
        <ele>12.9</ele>
        <time>2021-05-18T07:51:36Z</time>
      </trkpt>
      <trkpt lat="41.7582210" lon="-8.8743390">
        <ele>12.9</ele>
        <time>2021-05-18T07:51:37Z</time>
      </trkpt>
      <trkpt lat="41.7582110" lon="-8.8743420">
        <ele>12.9</ele>
        <time>2021-05-18T07:51:38Z</time>
      </trkpt>
      <trkpt lat="41.7581930" lon="-8.8743460">
        <ele>12.8</ele>
        <time>2021-05-18T07:51:39Z</time>
      </trkpt>
      <trkpt lat="41.7581820" lon="-8.8743490">
        <ele>12.8</ele>
        <time>2021-05-18T07:51:40Z</time>
      </trkpt>
      <trkpt lat="41.7581680" lon="-8.8743590">
        <ele>12.8</ele>
        <time>2021-05-18T07:51:41Z</time>
      </trkpt>
      <trkpt lat="41.7581520" lon="-8.8743530">
        <ele>12.8</ele>
        <time>2021-05-18T07:51:42Z</time>
      </trkpt>
      <trkpt lat="41.7581370" lon="-8.8743570">
        <ele>12.8</ele>
        <time>2021-05-18T07:51:43Z</time>
      </trkpt>
      <trkpt lat="41.7581230" lon="-8.8743630">
        <ele>12.8</ele>
        <time>2021-05-18T07:51:44Z</time>
      </trkpt>
      <trkpt lat="41.7581090" lon="-8.8743640">
        <ele>12.8</ele>
        <time>2021-05-18T07:51:45Z</time>
      </trkpt>
      <trkpt lat="41.7580880" lon="-8.8743650">
        <ele>12.7</ele>
        <time>2021-05-18T07:51:46Z</time>
      </trkpt>
      <trkpt lat="41.7580770" lon="-8.8743680">
        <ele>12.7</ele>
        <time>2021-05-18T07:51:47Z</time>
      </trkpt>
      <trkpt lat="41.7580590" lon="-8.8743750">
        <ele>12.7</ele>
        <time>2021-05-18T07:51:48Z</time>
      </trkpt>
      <trkpt lat="41.7580460" lon="-8.8743780">
        <ele>12.7</ele>
        <time>2021-05-18T07:51:49Z</time>
      </trkpt>
      <trkpt lat="41.7580310" lon="-8.8743890">
        <ele>12.7</ele>
        <time>2021-05-18T07:51:50Z</time>
      </trkpt>
      <trkpt lat="41.7580110" lon="-8.8743920">
        <ele>12.6</ele>
        <time>2021-05-18T07:51:51Z</time>
      </trkpt>
      <trkpt lat="41.7580000" lon="-8.8743970">
        <ele>12.6</ele>
        <time>2021-05-18T07:51:52Z</time>
      </trkpt>
      <trkpt lat="41.7579900" lon="-8.8744020">
        <ele>12.6</ele>
        <time>2021-05-18T07:51:53Z</time>
      </trkpt>
      <trkpt lat="41.7579750" lon="-8.8744000">
        <ele>12.6</ele>
        <time>2021-05-18T07:51:54Z</time>
      </trkpt>
      <trkpt lat="41.7579600" lon="-8.8743990">
        <ele>12.6</ele>
        <time>2021-05-18T07:51:55Z</time>
      </trkpt>
      <trkpt lat="41.7579480" lon="-8.8744010">
        <ele>12.6</ele>
        <time>2021-05-18T07:51:56Z</time>
      </trkpt>
      <trkpt lat="41.7579320" lon="-8.8744060">
        <ele>12.5</ele>
        <time>2021-05-18T07:51:57Z</time>
      </trkpt>
      <trkpt lat="41.7579160" lon="-8.8744060">
        <ele>12.5</ele>
        <time>2021-05-18T07:51:58Z</time>
      </trkpt>
      <trkpt lat="41.7578990" lon="-8.8744110">
        <ele>12.5</ele>
        <time>2021-05-18T07:51:59Z</time>
      </trkpt>
      <trkpt lat="41.7578770" lon="-8.8744140">
        <ele>12.5</ele>
        <time>2021-05-18T07:52:00Z</time>
      </trkpt>
      <trkpt lat="41.7578670" lon="-8.8744150">
        <ele>12.4</ele>
        <time>2021-05-18T07:52:01Z</time>
      </trkpt>
      <trkpt lat="41.7578580" lon="-8.8744170">
        <ele>12.4</ele>
        <time>2021-05-18T07:52:02Z</time>
      </trkpt>
      <trkpt lat="41.7578370" lon="-8.8744250">
        <ele>12.4</ele>
        <time>2021-05-18T07:52:03Z</time>
      </trkpt>
      <trkpt lat="41.7578250" lon="-8.8744230">
        <ele>12.4</ele>
        <time>2021-05-18T07:52:04Z</time>
      </trkpt>
      <trkpt lat="41.7578080" lon="-8.8744260">
        <ele>12.4</ele>
        <time>2021-05-18T07:52:05Z</time>
      </trkpt>
      <trkpt lat="41.7577960" lon="-8.8744300">
        <ele>12.3</ele>
        <time>2021-05-18T07:52:06Z</time>
      </trkpt>
      <trkpt lat="41.7577830" lon="-8.8744340">
        <ele>12.3</ele>
        <time>2021-05-18T07:52:07Z</time>
      </trkpt>
      <trkpt lat="41.7577700" lon="-8.8744370">
        <ele>12.3</ele>
        <time>2021-05-18T07:52:08Z</time>
      </trkpt>
      <trkpt lat="41.7577560" lon="-8.8744400">
        <ele>12.3</ele>
        <time>2021-05-18T07:52:09Z</time>
      </trkpt>
      <trkpt lat="41.7577390" lon="-8.8744440">
        <ele>12.3</ele>
        <time>2021-05-18T07:52:10Z</time>
      </trkpt>
      <trkpt lat="41.7577270" lon="-8.8744470">
        <ele>12.2</ele>
        <time>2021-05-18T07:52:11Z</time>
      </trkpt>
      <trkpt lat="41.7577090" lon="-8.8744500">
        <ele>12.2</ele>
        <time>2021-05-18T07:52:12Z</time>
      </trkpt>
      <trkpt lat="41.7576960" lon="-8.8744560">
        <ele>12.2</ele>
        <time>2021-05-18T07:52:13Z</time>
      </trkpt>
      <trkpt lat="41.7576790" lon="-8.8744600">
        <ele>12.2</ele>
        <time>2021-05-18T07:52:14Z</time>
      </trkpt>
      <trkpt lat="41.7576590" lon="-8.8744700">
        <ele>12.1</ele>
        <time>2021-05-18T07:52:15Z</time>
      </trkpt>
      <trkpt lat="41.7576510" lon="-8.8744750">
        <ele>12.1</ele>
        <time>2021-05-18T07:52:16Z</time>
      </trkpt>
      <trkpt lat="41.7576430" lon="-8.8744790">
        <ele>12.1</ele>
        <time>2021-05-18T07:52:17Z</time>
      </trkpt>
      <trkpt lat="41.7576280" lon="-8.8744830">
        <ele>12.1</ele>
        <time>2021-05-18T07:52:18Z</time>
      </trkpt>
      <trkpt lat="41.7576140" lon="-8.8744890">
        <ele>12.1</ele>
        <time>2021-05-18T07:52:19Z</time>
      </trkpt>
      <trkpt lat="41.7576010" lon="-8.8744960">
        <ele>12.0</ele>
        <time>2021-05-18T07:52:20Z</time>
      </trkpt>
      <trkpt lat="41.7575850" lon="-8.8744990">
        <ele>12.0</ele>
        <time>2021-05-18T07:52:21Z</time>
      </trkpt>
      <trkpt lat="41.7575640" lon="-8.8745060">
        <ele>12.0</ele>
        <time>2021-05-18T07:52:22Z</time>
      </trkpt>
      <trkpt lat="41.7575570" lon="-8.8745110">
        <ele>11.8</ele>
        <time>2021-05-18T07:52:23Z</time>
      </trkpt>
      <trkpt lat="41.7575490" lon="-8.8745150">
        <ele>11.8</ele>
        <time>2021-05-18T07:52:24Z</time>
      </trkpt>
      <trkpt lat="41.7575350" lon="-8.8745230">
        <ele>11.7</ele>
        <time>2021-05-18T07:52:25Z</time>
      </trkpt>
      <trkpt lat="41.7575230" lon="-8.8745360">
        <ele>11.6</ele>
        <time>2021-05-18T07:52:26Z</time>
      </trkpt>
      <trkpt lat="41.7575100" lon="-8.8745540">
        <ele>11.5</ele>
        <time>2021-05-18T07:52:27Z</time>
      </trkpt>
      <trkpt lat="41.7575060" lon="-8.8745720">
        <ele>11.4</ele>
        <time>2021-05-18T07:52:28Z</time>
      </trkpt>
      <trkpt lat="41.7575020" lon="-8.8746020">
        <ele>11.3</ele>
        <time>2021-05-18T07:52:29Z</time>
      </trkpt>
      <trkpt lat="41.7575000" lon="-8.8746150">
        <ele>11.3</ele>
        <time>2021-05-18T07:52:30Z</time>
      </trkpt>
      <trkpt lat="41.7574980" lon="-8.8746270">
        <ele>11.2</ele>
        <time>2021-05-18T07:52:31Z</time>
      </trkpt>
      <trkpt lat="41.7574930" lon="-8.8746480">
        <ele>11.1</ele>
        <time>2021-05-18T07:52:32Z</time>
      </trkpt>
      <trkpt lat="41.7574890" lon="-8.8746660">
        <ele>11.1</ele>
        <time>2021-05-18T07:52:33Z</time>
      </trkpt>
      <trkpt lat="41.7574860" lon="-8.8746850">
        <ele>11.0</ele>
        <time>2021-05-18T07:52:34Z</time>
      </trkpt>
      <trkpt lat="41.7574830" lon="-8.8747040">
        <ele>10.9</ele>
        <time>2021-05-18T07:52:35Z</time>
      </trkpt>
      <trkpt lat="41.7574830" lon="-8.8747250">
        <ele>10.9</ele>
        <time>2021-05-18T07:52:36Z</time>
      </trkpt>
      <trkpt lat="41.7574790" lon="-8.8747440">
        <ele>10.8</ele>
        <time>2021-05-18T07:52:37Z</time>
      </trkpt>
      <trkpt lat="41.7574780" lon="-8.8747650">
        <ele>10.7</ele>
        <time>2021-05-18T07:52:38Z</time>
      </trkpt>
      <trkpt lat="41.7574750" lon="-8.8747840">
        <ele>10.7</ele>
        <time>2021-05-18T07:52:39Z</time>
      </trkpt>
      <trkpt lat="41.7574760" lon="-8.8748060">
        <ele>10.6</ele>
        <time>2021-05-18T07:52:40Z</time>
      </trkpt>
      <trkpt lat="41.7574710" lon="-8.8748240">
        <ele>10.5</ele>
        <time>2021-05-18T07:52:41Z</time>
      </trkpt>
      <trkpt lat="41.7574690" lon="-8.8748480">
        <ele>10.5</ele>
        <time>2021-05-18T07:52:42Z</time>
      </trkpt>
      <trkpt lat="41.7574640" lon="-8.8748630">
        <ele>10.4</ele>
        <time>2021-05-18T07:52:43Z</time>
      </trkpt>
      <trkpt lat="41.7574570" lon="-8.8748850">
        <ele>10.3</ele>
        <time>2021-05-18T07:52:44Z</time>
      </trkpt>
      <trkpt lat="41.7574590" lon="-8.8749050">
        <ele>10.3</ele>
        <time>2021-05-18T07:52:45Z</time>
      </trkpt>
      <trkpt lat="41.7574590" lon="-8.8749340">
        <ele>10.2</ele>
        <time>2021-05-18T07:52:46Z</time>
      </trkpt>
      <trkpt lat="41.7574590" lon="-8.8749470">
        <ele>10.2</ele>
        <time>2021-05-18T07:52:47Z</time>
      </trkpt>
      <trkpt lat="41.7574590" lon="-8.8749590">
        <ele>10.1</ele>
        <time>2021-05-18T07:52:48Z</time>
      </trkpt>
      <trkpt lat="41.7574520" lon="-8.8749810">
        <ele>10.1</ele>
        <time>2021-05-18T07:52:49Z</time>
      </trkpt>
      <trkpt lat="41.7574490" lon="-8.8750010">
        <ele>10.0</ele>
        <time>2021-05-18T07:52:50Z</time>
      </trkpt>
      <trkpt lat="41.7574480" lon="-8.8750170">
        <ele>10.0</ele>
        <time>2021-05-18T07:52:51Z</time>
      </trkpt>
      <trkpt lat="41.7574470" lon="-8.8750420">
        <ele>9.9</ele>
        <time>2021-05-18T07:52:52Z</time>
      </trkpt>
      <trkpt lat="41.7574490" lon="-8.8750600">
        <ele>9.8</ele>
        <time>2021-05-18T07:52:53Z</time>
      </trkpt>
      <trkpt lat="41.7574440" lon="-8.8750790">
        <ele>9.8</ele>
        <time>2021-05-18T07:52:54Z</time>
      </trkpt>
      <trkpt lat="41.7574400" lon="-8.8750970">
        <ele>9.8</ele>
        <time>2021-05-18T07:52:55Z</time>
      </trkpt>
      <trkpt lat="41.7574350" lon="-8.8751180">
        <ele>9.7</ele>
        <time>2021-05-18T07:52:56Z</time>
      </trkpt>
      <trkpt lat="41.7574280" lon="-8.8751370">
        <ele>9.6</ele>
        <time>2021-05-18T07:52:57Z</time>
      </trkpt>
      <trkpt lat="41.7574220" lon="-8.8751530">
        <ele>9.6</ele>
        <time>2021-05-18T07:52:58Z</time>
      </trkpt>
      <trkpt lat="41.7574200" lon="-8.8751730">
        <ele>9.6</ele>
        <time>2021-05-18T07:52:59Z</time>
      </trkpt>
      <trkpt lat="41.7574210" lon="-8.8751940">
        <ele>9.5</ele>
        <time>2021-05-18T07:53:00Z</time>
      </trkpt>
      <trkpt lat="41.7574140" lon="-8.8752140">
        <ele>9.5</ele>
        <time>2021-05-18T07:53:01Z</time>
      </trkpt>
      <trkpt lat="41.7574110" lon="-8.8752330">
        <ele>9.4</ele>
        <time>2021-05-18T07:53:02Z</time>
      </trkpt>
      <trkpt lat="41.7574090" lon="-8.8752530">
        <ele>9.4</ele>
        <time>2021-05-18T07:53:03Z</time>
      </trkpt>
      <trkpt lat="41.7574000" lon="-8.8752710">
        <ele>9.3</ele>
        <time>2021-05-18T07:53:04Z</time>
      </trkpt>
      <trkpt lat="41.7573980" lon="-8.8752890">
        <ele>9.3</ele>
        <time>2021-05-18T07:53:05Z</time>
      </trkpt>
      <trkpt lat="41.7573940" lon="-8.8753020">
        <ele>9.3</ele>
        <time>2021-05-18T07:53:06Z</time>
      </trkpt>
      <trkpt lat="41.7573870" lon="-8.8753170">
        <ele>9.2</ele>
        <time>2021-05-18T07:53:07Z</time>
      </trkpt>
      <trkpt lat="41.7573850" lon="-8.8753370">
        <ele>9.2</ele>
        <time>2021-05-18T07:53:08Z</time>
      </trkpt>
      <trkpt lat="41.7573800" lon="-8.8753610">
        <ele>9.1</ele>
        <time>2021-05-18T07:53:09Z</time>
      </trkpt>
      <trkpt lat="41.7573810" lon="-8.8753810">
        <ele>9.1</ele>
        <time>2021-05-18T07:53:10Z</time>
      </trkpt>
      <trkpt lat="41.7573800" lon="-8.8754040">
        <ele>9.0</ele>
        <time>2021-05-18T07:53:11Z</time>
      </trkpt>
      <trkpt lat="41.7573790" lon="-8.8754230">
        <ele>9.0</ele>
        <time>2021-05-18T07:53:12Z</time>
      </trkpt>
      <trkpt lat="41.7573690" lon="-8.8754430">
        <ele>8.9</ele>
        <time>2021-05-18T07:53:13Z</time>
      </trkpt>
      <trkpt lat="41.7573600" lon="-8.8754620">
        <ele>8.9</ele>
        <time>2021-05-18T07:53:14Z</time>
      </trkpt>
      <trkpt lat="41.7573590" lon="-8.8754820">
        <ele>8.9</ele>
        <time>2021-05-18T07:53:15Z</time>
      </trkpt>
      <trkpt lat="41.7573530" lon="-8.8755030">
        <ele>8.8</ele>
        <time>2021-05-18T07:53:16Z</time>
      </trkpt>
      <trkpt lat="41.7573570" lon="-8.8755240">
        <ele>8.8</ele>
        <time>2021-05-18T07:53:17Z</time>
      </trkpt>
      <trkpt lat="41.7573570" lon="-8.8755460">
        <ele>8.8</ele>
        <time>2021-05-18T07:53:18Z</time>
      </trkpt>
      <trkpt lat="41.7573570" lon="-8.8755650">
        <ele>8.7</ele>
        <time>2021-05-18T07:53:19Z</time>
      </trkpt>
      <trkpt lat="41.7573560" lon="-8.8755840">
        <ele>8.7</ele>
        <time>2021-05-18T07:53:20Z</time>
      </trkpt>
      <trkpt lat="41.7573510" lon="-8.8756060">
        <ele>8.7</ele>
        <time>2021-05-18T07:53:21Z</time>
      </trkpt>
      <trkpt lat="41.7573480" lon="-8.8756210">
        <ele>8.7</ele>
        <time>2021-05-18T07:53:22Z</time>
      </trkpt>
      <trkpt lat="41.7573440" lon="-8.8756440">
        <ele>8.6</ele>
        <time>2021-05-18T07:53:23Z</time>
      </trkpt>
      <trkpt lat="41.7573430" lon="-8.8756680">
        <ele>8.6</ele>
        <time>2021-05-18T07:53:24Z</time>
      </trkpt>
      <trkpt lat="41.7573480" lon="-8.8756890">
        <ele>8.6</ele>
        <time>2021-05-18T07:53:25Z</time>
      </trkpt>
      <trkpt lat="41.7573500" lon="-8.8757130">
        <ele>8.6</ele>
        <time>2021-05-18T07:53:26Z</time>
      </trkpt>
      <trkpt lat="41.7573460" lon="-8.8757310">
        <ele>8.6</ele>
        <time>2021-05-18T07:53:27Z</time>
      </trkpt>
      <trkpt lat="41.7573420" lon="-8.8757510">
        <ele>8.5</ele>
        <time>2021-05-18T07:53:28Z</time>
      </trkpt>
      <trkpt lat="41.7573460" lon="-8.8757690">
        <ele>8.5</ele>
        <time>2021-05-18T07:53:29Z</time>
      </trkpt>
      <trkpt lat="41.7573510" lon="-8.8757890">
        <ele>8.5</ele>
        <time>2021-05-18T07:53:30Z</time>
      </trkpt>
      <trkpt lat="41.7573480" lon="-8.8758060">
        <ele>8.5</ele>
        <time>2021-05-18T07:53:31Z</time>
      </trkpt>
      <trkpt lat="41.7573480" lon="-8.8758250">
        <ele>8.5</ele>
        <time>2021-05-18T07:53:32Z</time>
      </trkpt>
      <trkpt lat="41.7573450" lon="-8.8758460">
        <ele>8.5</ele>
        <time>2021-05-18T07:53:33Z</time>
      </trkpt>
      <trkpt lat="41.7573450" lon="-8.8758650">
        <ele>8.5</ele>
        <time>2021-05-18T07:53:34Z</time>
      </trkpt>
      <trkpt lat="41.7573450" lon="-8.8758870">
        <ele>8.4</ele>
        <time>2021-05-18T07:53:35Z</time>
      </trkpt>
      <trkpt lat="41.7573460" lon="-8.8759060">
        <ele>8.4</ele>
        <time>2021-05-18T07:53:36Z</time>
      </trkpt>
      <trkpt lat="41.7573420" lon="-8.8759230">
        <ele>8.4</ele>
        <time>2021-05-18T07:53:37Z</time>
      </trkpt>
      <trkpt lat="41.7573390" lon="-8.8759530">
        <ele>8.4</ele>
        <time>2021-05-18T07:53:38Z</time>
      </trkpt>
      <trkpt lat="41.7573400" lon="-8.8759650">
        <ele>8.4</ele>
        <time>2021-05-18T07:53:39Z</time>
      </trkpt>
      <trkpt lat="41.7573410" lon="-8.8759760">
        <ele>8.4</ele>
        <time>2021-05-18T07:53:40Z</time>
      </trkpt>
      <trkpt lat="41.7573430" lon="-8.8759890">
        <ele>8.4</ele>
        <time>2021-05-18T07:53:41Z</time>
      </trkpt>
      <trkpt lat="41.7573450" lon="-8.8760150">
        <ele>8.4</ele>
        <time>2021-05-18T07:53:42Z</time>
      </trkpt>
      <trkpt lat="41.7573470" lon="-8.8760460">
        <ele>8.3</ele>
        <time>2021-05-18T07:53:43Z</time>
      </trkpt>
      <trkpt lat="41.7573480" lon="-8.8760560">
        <ele>8.3</ele>
        <time>2021-05-18T07:53:44Z</time>
      </trkpt>
      <trkpt lat="41.7573490" lon="-8.8760670">
        <ele>8.3</ele>
        <time>2021-05-18T07:53:45Z</time>
      </trkpt>
      <trkpt lat="41.7573460" lon="-8.8760850">
        <ele>8.3</ele>
        <time>2021-05-18T07:53:46Z</time>
      </trkpt>
      <trkpt lat="41.7573530" lon="-8.8761030">
        <ele>8.3</ele>
        <time>2021-05-18T07:53:47Z</time>
      </trkpt>
      <trkpt lat="41.7573500" lon="-8.8761200">
        <ele>8.3</ele>
        <time>2021-05-18T07:53:48Z</time>
      </trkpt>
      <trkpt lat="41.7573510" lon="-8.8761410">
        <ele>8.3</ele>
        <time>2021-05-18T07:53:49Z</time>
      </trkpt>
      <trkpt lat="41.7573500" lon="-8.8761600">
        <ele>8.3</ele>
        <time>2021-05-18T07:53:50Z</time>
      </trkpt>
      <trkpt lat="41.7573510" lon="-8.8761730">
        <ele>8.3</ele>
        <time>2021-05-18T07:53:51Z</time>
      </trkpt>
      <trkpt lat="41.7573470" lon="-8.8761850">
        <ele>8.3</ele>
        <time>2021-05-18T07:53:52Z</time>
      </trkpt>
      <trkpt lat="41.7573480" lon="-8.8762140">
        <ele>8.3</ele>
        <time>2021-05-18T07:53:53Z</time>
      </trkpt>
      <trkpt lat="41.7573480" lon="-8.8762260">
        <ele>8.3</ele>
        <time>2021-05-18T07:53:54Z</time>
      </trkpt>
      <trkpt lat="41.7573480" lon="-8.8762390">
        <ele>8.3</ele>
        <time>2021-05-18T07:53:55Z</time>
      </trkpt>
      <trkpt lat="41.7573520" lon="-8.8762540">
        <ele>8.3</ele>
        <time>2021-05-18T07:53:56Z</time>
      </trkpt>
      <trkpt lat="41.7573490" lon="-8.8762750">
        <ele>8.3</ele>
        <time>2021-05-18T07:53:57Z</time>
      </trkpt>
      <trkpt lat="41.7573510" lon="-8.8763020">
        <ele>8.3</ele>
        <time>2021-05-18T07:53:58Z</time>
      </trkpt>
      <trkpt lat="41.7573520" lon="-8.8763140">
        <ele>8.3</ele>
        <time>2021-05-18T07:53:59Z</time>
      </trkpt>
      <trkpt lat="41.7573520" lon="-8.8763250">
        <ele>8.3</ele>
        <time>2021-05-18T07:54:00Z</time>
      </trkpt>
      <trkpt lat="41.7573570" lon="-8.8763350">
        <ele>8.3</ele>
        <time>2021-05-18T07:54:01Z</time>
      </trkpt>
      <trkpt lat="41.7573630" lon="-8.8763540">
        <ele>8.3</ele>
        <time>2021-05-18T07:54:02Z</time>
      </trkpt>
      <trkpt lat="41.7573680" lon="-8.8763640">
        <ele>8.3</ele>
        <time>2021-05-18T07:54:03Z</time>
      </trkpt>
      <trkpt lat="41.7573800" lon="-8.8763790">
        <ele>8.3</ele>
        <time>2021-05-18T07:54:04Z</time>
      </trkpt>
      <trkpt lat="41.7573920" lon="-8.8763910">
        <ele>8.3</ele>
        <time>2021-05-18T07:54:05Z</time>
      </trkpt>
      <trkpt lat="41.7574060" lon="-8.8764120">
        <ele>8.2</ele>
        <time>2021-05-18T07:54:06Z</time>
      </trkpt>
      <trkpt lat="41.7574120" lon="-8.8764210">
        <ele>8.2</ele>
        <time>2021-05-18T07:54:07Z</time>
      </trkpt>
      <trkpt lat="41.7574190" lon="-8.8764300">
        <ele>8.2</ele>
        <time>2021-05-18T07:54:08Z</time>
      </trkpt>
      <trkpt lat="41.7574350" lon="-8.8764440">
        <ele>8.2</ele>
        <time>2021-05-18T07:54:09Z</time>
      </trkpt>
      <trkpt lat="41.7574500" lon="-8.8764550">
        <ele>8.2</ele>
        <time>2021-05-18T07:54:10Z</time>
      </trkpt>
      <trkpt lat="41.7574640" lon="-8.8764630">
        <ele>8.1</ele>
        <time>2021-05-18T07:54:11Z</time>
      </trkpt>
      <trkpt lat="41.7574770" lon="-8.8764700">
        <ele>8.1</ele>
        <time>2021-05-18T07:54:12Z</time>
      </trkpt>
      <trkpt lat="41.7574950" lon="-8.8764740">
        <ele>8.1</ele>
        <time>2021-05-18T07:54:13Z</time>
      </trkpt>
      <trkpt lat="41.7575110" lon="-8.8764790">
        <ele>8.1</ele>
        <time>2021-05-18T07:54:14Z</time>
      </trkpt>
      <trkpt lat="41.7575270" lon="-8.8764860">
        <ele>8.1</ele>
        <time>2021-05-18T07:54:15Z</time>
      </trkpt>
      <trkpt lat="41.7575430" lon="-8.8764850">
        <ele>8.0</ele>
        <time>2021-05-18T07:54:16Z</time>
      </trkpt>
      <trkpt lat="41.7575590" lon="-8.8764830">
        <ele>8.0</ele>
        <time>2021-05-18T07:54:17Z</time>
      </trkpt>
      <trkpt lat="41.7575740" lon="-8.8764830">
        <ele>8.0</ele>
        <time>2021-05-18T07:54:18Z</time>
      </trkpt>
      <trkpt lat="41.7575900" lon="-8.8764870">
        <ele>8.0</ele>
        <time>2021-05-18T07:54:19Z</time>
      </trkpt>
      <trkpt lat="41.7576070" lon="-8.8764910">
        <ele>8.0</ele>
        <time>2021-05-18T07:54:20Z</time>
      </trkpt>
      <trkpt lat="41.7576240" lon="-8.8764820">
        <ele>7.9</ele>
        <time>2021-05-18T07:54:21Z</time>
      </trkpt>
      <trkpt lat="41.7576410" lon="-8.8764850">
        <ele>7.9</ele>
        <time>2021-05-18T07:54:22Z</time>
      </trkpt>
      <trkpt lat="41.7576550" lon="-8.8764790">
        <ele>7.9</ele>
        <time>2021-05-18T07:54:23Z</time>
      </trkpt>
      <trkpt lat="41.7576710" lon="-8.8764750">
        <ele>7.9</ele>
        <time>2021-05-18T07:54:24Z</time>
      </trkpt>
      <trkpt lat="41.7576880" lon="-8.8764680">
        <ele>7.8</ele>
        <time>2021-05-18T07:54:25Z</time>
      </trkpt>
      <trkpt lat="41.7577030" lon="-8.8764630">
        <ele>7.8</ele>
        <time>2021-05-18T07:54:26Z</time>
      </trkpt>
      <trkpt lat="41.7577190" lon="-8.8764530">
        <ele>7.7</ele>
        <time>2021-05-18T07:54:27Z</time>
      </trkpt>
      <trkpt lat="41.7577360" lon="-8.8764520">
        <ele>7.7</ele>
        <time>2021-05-18T07:54:28Z</time>
      </trkpt>
      <trkpt lat="41.7577510" lon="-8.8764440">
        <ele>7.7</ele>
        <time>2021-05-18T07:54:29Z</time>
      </trkpt>
      <trkpt lat="41.7577660" lon="-8.8764370">
        <ele>7.6</ele>
        <time>2021-05-18T07:54:30Z</time>
      </trkpt>
      <trkpt lat="41.7577760" lon="-8.8764270">
        <ele>7.6</ele>
        <time>2021-05-18T07:54:31Z</time>
      </trkpt>
      <trkpt lat="41.7577880" lon="-8.8764130">
        <ele>7.5</ele>
        <time>2021-05-18T07:54:32Z</time>
      </trkpt>
      <trkpt lat="41.7578040" lon="-8.8764080">
        <ele>7.5</ele>
        <time>2021-05-18T07:54:33Z</time>
      </trkpt>
      <trkpt lat="41.7578200" lon="-8.8764060">
        <ele>7.4</ele>
        <time>2021-05-18T07:54:34Z</time>
      </trkpt>
      <trkpt lat="41.7578360" lon="-8.8764020">
        <ele>7.4</ele>
        <time>2021-05-18T07:54:35Z</time>
      </trkpt>
      <trkpt lat="41.7578490" lon="-8.8763900">
        <ele>7.4</ele>
        <time>2021-05-18T07:54:36Z</time>
      </trkpt>
      <trkpt lat="41.7578650" lon="-8.8763740">
        <ele>7.3</ele>
        <time>2021-05-18T07:54:37Z</time>
      </trkpt>
      <trkpt lat="41.7578750" lon="-8.8763590">
        <ele>7.3</ele>
        <time>2021-05-18T07:54:38Z</time>
      </trkpt>
      <trkpt lat="41.7578890" lon="-8.8763510">
        <ele>7.2</ele>
        <time>2021-05-18T07:54:39Z</time>
      </trkpt>
      <trkpt lat="41.7579020" lon="-8.8763410">
        <ele>7.2</ele>
        <time>2021-05-18T07:54:40Z</time>
      </trkpt>
      <trkpt lat="41.7579130" lon="-8.8763270">
        <ele>7.1</ele>
        <time>2021-05-18T07:54:41Z</time>
      </trkpt>
      <trkpt lat="41.7579270" lon="-8.8763170">
        <ele>7.1</ele>
        <time>2021-05-18T07:54:42Z</time>
      </trkpt>
      <trkpt lat="41.7579380" lon="-8.8763000">
        <ele>7.0</ele>
        <time>2021-05-18T07:54:43Z</time>
      </trkpt>
      <trkpt lat="41.7579490" lon="-8.8762870">
        <ele>7.0</ele>
        <time>2021-05-18T07:54:44Z</time>
      </trkpt>
      <trkpt lat="41.7579620" lon="-8.8762780">
        <ele>6.9</ele>
        <time>2021-05-18T07:54:45Z</time>
      </trkpt>
      <trkpt lat="41.7579770" lon="-8.8762730">
        <ele>6.9</ele>
        <time>2021-05-18T07:54:46Z</time>
      </trkpt>
      <trkpt lat="41.7579910" lon="-8.8762650">
        <ele>6.9</ele>
        <time>2021-05-18T07:54:47Z</time>
      </trkpt>
      <trkpt lat="41.7580060" lon="-8.8762540">
        <ele>6.8</ele>
        <time>2021-05-18T07:54:48Z</time>
      </trkpt>
      <trkpt lat="41.7580160" lon="-8.8762410">
        <ele>6.8</ele>
        <time>2021-05-18T07:54:49Z</time>
      </trkpt>
      <trkpt lat="41.7580290" lon="-8.8762280">
        <ele>6.8</ele>
        <time>2021-05-18T07:54:50Z</time>
      </trkpt>
      <trkpt lat="41.7580430" lon="-8.8762200">
        <ele>6.7</ele>
        <time>2021-05-18T07:54:51Z</time>
      </trkpt>
      <trkpt lat="41.7580550" lon="-8.8762090">
        <ele>6.7</ele>
        <time>2021-05-18T07:54:52Z</time>
      </trkpt>
      <trkpt lat="41.7580670" lon="-8.8761900">
        <ele>6.7</ele>
        <time>2021-05-18T07:54:53Z</time>
      </trkpt>
      <trkpt lat="41.7580830" lon="-8.8761810">
        <ele>6.6</ele>
        <time>2021-05-18T07:54:54Z</time>
      </trkpt>
      <trkpt lat="41.7580980" lon="-8.8761780">
        <ele>6.6</ele>
        <time>2021-05-18T07:54:55Z</time>
      </trkpt>
      <trkpt lat="41.7581120" lon="-8.8761700">
        <ele>6.6</ele>
        <time>2021-05-18T07:54:56Z</time>
      </trkpt>
      <trkpt lat="41.7581240" lon="-8.8761600">
        <ele>6.5</ele>
        <time>2021-05-18T07:54:57Z</time>
      </trkpt>
      <trkpt lat="41.7581350" lon="-8.8761490">
        <ele>6.5</ele>
        <time>2021-05-18T07:54:58Z</time>
      </trkpt>
      <trkpt lat="41.7581500" lon="-8.8761360">
        <ele>6.5</ele>
        <time>2021-05-18T07:54:59Z</time>
      </trkpt>
      <trkpt lat="41.7581640" lon="-8.8761360">
        <ele>6.4</ele>
        <time>2021-05-18T07:55:00Z</time>
      </trkpt>
      <trkpt lat="41.7581820" lon="-8.8761360">
        <ele>6.4</ele>
        <time>2021-05-18T07:55:01Z</time>
      </trkpt>
      <trkpt lat="41.7581980" lon="-8.8761300">
        <ele>6.4</ele>
        <time>2021-05-18T07:55:02Z</time>
      </trkpt>
      <trkpt lat="41.7582140" lon="-8.8761300">
        <ele>6.4</ele>
        <time>2021-05-18T07:55:03Z</time>
      </trkpt>
      <trkpt lat="41.7582280" lon="-8.8761310">
        <ele>6.4</ele>
        <time>2021-05-18T07:55:04Z</time>
      </trkpt>
      <trkpt lat="41.7582430" lon="-8.8761380">
        <ele>6.4</ele>
        <time>2021-05-18T07:55:05Z</time>
      </trkpt>
      <trkpt lat="41.7582590" lon="-8.8761350">
        <ele>6.4</ele>
        <time>2021-05-18T07:55:06Z</time>
      </trkpt>
      <trkpt lat="41.7582730" lon="-8.8761320">
        <ele>6.4</ele>
        <time>2021-05-18T07:55:07Z</time>
      </trkpt>
      <trkpt lat="41.7582870" lon="-8.8761320">
        <ele>6.4</ele>
        <time>2021-05-18T07:55:08Z</time>
      </trkpt>
      <trkpt lat="41.7583070" lon="-8.8761340">
        <ele>6.4</ele>
        <time>2021-05-18T07:55:09Z</time>
      </trkpt>
      <trkpt lat="41.7583160" lon="-8.8761330">
        <ele>6.4</ele>
        <time>2021-05-18T07:55:10Z</time>
      </trkpt>
      <trkpt lat="41.7583250" lon="-8.8761320">
        <ele>6.4</ele>
        <time>2021-05-18T07:55:11Z</time>
      </trkpt>
      <trkpt lat="41.7583460" lon="-8.8761370">
        <ele>6.4</ele>
        <time>2021-05-18T07:55:12Z</time>
      </trkpt>
      <trkpt lat="41.7583550" lon="-8.8761400">
        <ele>6.4</ele>
        <time>2021-05-18T07:55:13Z</time>
      </trkpt>
      <trkpt lat="41.7583640" lon="-8.8761420">
        <ele>6.4</ele>
        <time>2021-05-18T07:55:14Z</time>
      </trkpt>
      <trkpt lat="41.7583770" lon="-8.8761430">
        <ele>6.4</ele>
        <time>2021-05-18T07:55:15Z</time>
      </trkpt>
      <trkpt lat="41.7583910" lon="-8.8761460">
        <ele>6.4</ele>
        <time>2021-05-18T07:55:16Z</time>
      </trkpt>
      <trkpt lat="41.7584070" lon="-8.8761440">
        <ele>6.4</ele>
        <time>2021-05-18T07:55:17Z</time>
      </trkpt>
      <trkpt lat="41.7584190" lon="-8.8761460">
        <ele>6.5</ele>
        <time>2021-05-18T07:55:18Z</time>
      </trkpt>
      <trkpt lat="41.7584340" lon="-8.8761510">
        <ele>6.5</ele>
        <time>2021-05-18T07:55:19Z</time>
      </trkpt>
      <trkpt lat="41.7584470" lon="-8.8761570">
        <ele>6.5</ele>
        <time>2021-05-18T07:55:20Z</time>
      </trkpt>
      <trkpt lat="41.7584610" lon="-8.8761570">
        <ele>6.5</ele>
        <time>2021-05-18T07:55:21Z</time>
      </trkpt>
      <trkpt lat="41.7584760" lon="-8.8761510">
        <ele>6.6</ele>
        <time>2021-05-18T07:55:22Z</time>
      </trkpt>
      <trkpt lat="41.7584910" lon="-8.8761440">
        <ele>6.6</ele>
        <time>2021-05-18T07:55:23Z</time>
      </trkpt>
      <trkpt lat="41.7585070" lon="-8.8761440">
        <ele>6.7</ele>
        <time>2021-05-18T07:55:24Z</time>
      </trkpt>
      <trkpt lat="41.7585230" lon="-8.8761540">
        <ele>6.7</ele>
        <time>2021-05-18T07:55:25Z</time>
      </trkpt>
      <trkpt lat="41.7585350" lon="-8.8761480">
        <ele>6.8</ele>
        <time>2021-05-18T07:55:26Z</time>
      </trkpt>
      <trkpt lat="41.7585470" lon="-8.8761510">
        <ele>6.8</ele>
        <time>2021-05-18T07:55:27Z</time>
      </trkpt>
      <trkpt lat="41.7585630" lon="-8.8761500">
        <ele>6.9</ele>
        <time>2021-05-18T07:55:28Z</time>
      </trkpt>
      <trkpt lat="41.7585780" lon="-8.8761540">
        <ele>6.9</ele>
        <time>2021-05-18T07:55:29Z</time>
      </trkpt>
      <trkpt lat="41.7585920" lon="-8.8761520">
        <ele>7.0</ele>
        <time>2021-05-18T07:55:30Z</time>
      </trkpt>
      <trkpt lat="41.7586050" lon="-8.8761530">
        <ele>7.0</ele>
        <time>2021-05-18T07:55:31Z</time>
      </trkpt>
      <trkpt lat="41.7586210" lon="-8.8761570">
        <ele>7.1</ele>
        <time>2021-05-18T07:55:32Z</time>
      </trkpt>
      <trkpt lat="41.7586360" lon="-8.8761610">
        <ele>7.1</ele>
        <time>2021-05-18T07:55:33Z</time>
      </trkpt>
      <trkpt lat="41.7586500" lon="-8.8761580">
        <ele>7.2</ele>
        <time>2021-05-18T07:55:34Z</time>
      </trkpt>
      <trkpt lat="41.7586650" lon="-8.8761600">
        <ele>7.3</ele>
        <time>2021-05-18T07:55:35Z</time>
      </trkpt>
      <trkpt lat="41.7586810" lon="-8.8761610">
        <ele>7.3</ele>
        <time>2021-05-18T07:55:36Z</time>
      </trkpt>
      <trkpt lat="41.7586940" lon="-8.8761630">
        <ele>7.4</ele>
        <time>2021-05-18T07:55:37Z</time>
      </trkpt>
      <trkpt lat="41.7587110" lon="-8.8761690">
        <ele>7.5</ele>
        <time>2021-05-18T07:55:38Z</time>
      </trkpt>
      <trkpt lat="41.7587280" lon="-8.8761750">
        <ele>7.6</ele>
        <time>2021-05-18T07:55:39Z</time>
      </trkpt>
      <trkpt lat="41.7587410" lon="-8.8761760">
        <ele>7.6</ele>
        <time>2021-05-18T07:55:40Z</time>
      </trkpt>
      <trkpt lat="41.7587590" lon="-8.8761770">
        <ele>7.7</ele>
        <time>2021-05-18T07:55:41Z</time>
      </trkpt>
      <trkpt lat="41.7587740" lon="-8.8761730">
        <ele>7.8</ele>
        <time>2021-05-18T07:55:42Z</time>
      </trkpt>
      <trkpt lat="41.7587880" lon="-8.8761710">
        <ele>7.9</ele>
        <time>2021-05-18T07:55:43Z</time>
      </trkpt>
      <trkpt lat="41.7588040" lon="-8.8761700">
        <ele>8.0</ele>
        <time>2021-05-18T07:55:44Z</time>
      </trkpt>
      <trkpt lat="41.7588210" lon="-8.8761740">
        <ele>8.1</ele>
        <time>2021-05-18T07:55:45Z</time>
      </trkpt>
      <trkpt lat="41.7588370" lon="-8.8761740">
        <ele>8.1</ele>
        <time>2021-05-18T07:55:46Z</time>
      </trkpt>
      <trkpt lat="41.7588510" lon="-8.8761760">
        <ele>8.2</ele>
        <time>2021-05-18T07:55:47Z</time>
      </trkpt>
      <trkpt lat="41.7588650" lon="-8.8761770">
        <ele>8.3</ele>
        <time>2021-05-18T07:55:48Z</time>
      </trkpt>
      <trkpt lat="41.7588760" lon="-8.8761780">
        <ele>8.4</ele>
        <time>2021-05-18T07:55:49Z</time>
      </trkpt>
      <trkpt lat="41.7588940" lon="-8.8761800">
        <ele>8.4</ele>
        <time>2021-05-18T07:55:50Z</time>
      </trkpt>
      <trkpt lat="41.7589070" lon="-8.8761810">
        <ele>8.4</ele>
        <time>2021-05-18T07:55:51Z</time>
      </trkpt>
      <trkpt lat="41.7589220" lon="-8.8761790">
        <ele>8.5</ele>
        <time>2021-05-18T07:55:52Z</time>
      </trkpt>
      <trkpt lat="41.7589370" lon="-8.8761850">
        <ele>8.6</ele>
        <time>2021-05-18T07:55:53Z</time>
      </trkpt>
      <trkpt lat="41.7589490" lon="-8.8761890">
        <ele>8.6</ele>
        <time>2021-05-18T07:55:54Z</time>
      </trkpt>
      <trkpt lat="41.7589640" lon="-8.8761870">
        <ele>8.7</ele>
        <time>2021-05-18T07:55:55Z</time>
      </trkpt>
      <trkpt lat="41.7589800" lon="-8.8761860">
        <ele>8.8</ele>
        <time>2021-05-18T07:55:56Z</time>
      </trkpt>
      <trkpt lat="41.7589960" lon="-8.8761910">
        <ele>8.9</ele>
        <time>2021-05-18T07:55:57Z</time>
      </trkpt>
      <trkpt lat="41.7590100" lon="-8.8761940">
        <ele>8.9</ele>
        <time>2021-05-18T07:55:58Z</time>
      </trkpt>
      <trkpt lat="41.7590240" lon="-8.8761890">
        <ele>9.0</ele>
        <time>2021-05-18T07:55:59Z</time>
      </trkpt>
      <trkpt lat="41.7590410" lon="-8.8761910">
        <ele>9.1</ele>
        <time>2021-05-18T07:56:00Z</time>
      </trkpt>
      <trkpt lat="41.7590550" lon="-8.8761860">
        <ele>9.1</ele>
        <time>2021-05-18T07:56:01Z</time>
      </trkpt>
      <trkpt lat="41.7590710" lon="-8.8761850">
        <ele>9.2</ele>
        <time>2021-05-18T07:56:02Z</time>
      </trkpt>
      <trkpt lat="41.7590900" lon="-8.8761810">
        <ele>9.3</ele>
        <time>2021-05-18T07:56:03Z</time>
      </trkpt>
      <trkpt lat="41.7591000" lon="-8.8761820">
        <ele>9.3</ele>
        <time>2021-05-18T07:56:04Z</time>
      </trkpt>
      <trkpt lat="41.7591090" lon="-8.8761820">
        <ele>9.4</ele>
        <time>2021-05-18T07:56:05Z</time>
      </trkpt>
      <trkpt lat="41.7591210" lon="-8.8761730">
        <ele>9.4</ele>
        <time>2021-05-18T07:56:06Z</time>
      </trkpt>
      <trkpt lat="41.7591350" lon="-8.8761660">
        <ele>9.5</ele>
        <time>2021-05-18T07:56:07Z</time>
      </trkpt>
      <trkpt lat="41.7591510" lon="-8.8761680">
        <ele>9.6</ele>
        <time>2021-05-18T07:56:08Z</time>
      </trkpt>
      <trkpt lat="41.7591660" lon="-8.8761660">
        <ele>9.6</ele>
        <time>2021-05-18T07:56:09Z</time>
      </trkpt>
      <trkpt lat="41.7591800" lon="-8.8761640">
        <ele>9.7</ele>
        <time>2021-05-18T07:56:10Z</time>
      </trkpt>
      <trkpt lat="41.7591940" lon="-8.8761630">
        <ele>9.7</ele>
        <time>2021-05-18T07:56:11Z</time>
      </trkpt>
      <trkpt lat="41.7592110" lon="-8.8761620">
        <ele>9.8</ele>
        <time>2021-05-18T07:56:12Z</time>
      </trkpt>
      <trkpt lat="41.7592260" lon="-8.8761640">
        <ele>9.9</ele>
        <time>2021-05-18T07:56:13Z</time>
      </trkpt>
      <trkpt lat="41.7592470" lon="-8.8761560">
        <ele>10.0</ele>
        <time>2021-05-18T07:56:14Z</time>
      </trkpt>
      <trkpt lat="41.7592560" lon="-8.8761520">
        <ele>10.0</ele>
        <time>2021-05-18T07:56:15Z</time>
      </trkpt>
      <trkpt lat="41.7592640" lon="-8.8761490">
        <ele>10.0</ele>
        <time>2021-05-18T07:56:16Z</time>
      </trkpt>
      <trkpt lat="41.7592790" lon="-8.8761430">
        <ele>10.1</ele>
        <time>2021-05-18T07:56:17Z</time>
      </trkpt>
      <trkpt lat="41.7592940" lon="-8.8761460">
        <ele>10.2</ele>
        <time>2021-05-18T07:56:18Z</time>
      </trkpt>
      <trkpt lat="41.7593080" lon="-8.8761470">
        <ele>10.2</ele>
        <time>2021-05-18T07:56:19Z</time>
      </trkpt>
      <trkpt lat="41.7593220" lon="-8.8761410">
        <ele>10.3</ele>
        <time>2021-05-18T07:56:20Z</time>
      </trkpt>
      <trkpt lat="41.7593340" lon="-8.8761350">
        <ele>10.3</ele>
        <time>2021-05-18T07:56:21Z</time>
      </trkpt>
      <trkpt lat="41.7593440" lon="-8.8761360">
        <ele>10.4</ele>
        <time>2021-05-18T07:56:22Z</time>
      </trkpt>
      <trkpt lat="41.7593480" lon="-8.8761340">
        <ele>10.4</ele>
        <time>2021-05-18T07:56:23Z</time>
      </trkpt>
      <trkpt lat="41.7593400" lon="-8.8761330">
        <ele>10.4</ele>
        <time>2021-05-18T07:56:24Z</time>
      </trkpt>
      <trkpt lat="41.7593170" lon="-8.8761320">
        <ele>10.5</ele>
        <time>2021-05-18T07:56:25Z</time>
      </trkpt>
      <trkpt lat="41.7593130" lon="-8.8761330">
        <ele>10.5</ele>
        <time>2021-05-18T07:56:26Z</time>
      </trkpt>
      <trkpt lat="41.7593100" lon="-8.8761340">
        <ele>10.6</ele>
        <time>2021-05-18T07:56:27Z</time>
      </trkpt>
      <trkpt lat="41.7593080" lon="-8.8761340">
        <ele>10.6</ele>
        <time>2021-05-18T07:56:28Z</time>
      </trkpt>
      <trkpt lat="41.7593150" lon="-8.8761330">
        <ele>10.6</ele>
        <time>2021-05-18T07:56:29Z</time>
      </trkpt>
      <trkpt lat="41.7593290" lon="-8.8761330">
        <ele>10.6</ele>
        <time>2021-05-18T07:56:30Z</time>
      </trkpt>
      <trkpt lat="41.7593410" lon="-8.8761340">
        <ele>10.7</ele>
        <time>2021-05-18T07:56:31Z</time>
      </trkpt>
      <trkpt lat="41.7593530" lon="-8.8761350">
        <ele>10.7</ele>
        <time>2021-05-18T07:56:32Z</time>
      </trkpt>
      <trkpt lat="41.7593720" lon="-8.8761280">
        <ele>10.8</ele>
        <time>2021-05-18T07:56:33Z</time>
      </trkpt>
      <trkpt lat="41.7593810" lon="-8.8761240">
        <ele>10.9</ele>
        <time>2021-05-18T07:56:34Z</time>
      </trkpt>
      <trkpt lat="41.7593890" lon="-8.8761200">
        <ele>10.9</ele>
        <time>2021-05-18T07:56:35Z</time>
      </trkpt>
      <trkpt lat="41.7593940" lon="-8.8761180">
        <ele>10.9</ele>
        <time>2021-05-18T07:56:36Z</time>
      </trkpt>
      <trkpt lat="41.7594060" lon="-8.8761190">
        <ele>11.0</ele>
        <time>2021-05-18T07:56:37Z</time>
      </trkpt>
      <trkpt lat="41.7594200" lon="-8.8761150">
        <ele>11.0</ele>
        <time>2021-05-18T07:56:38Z</time>
      </trkpt>
      <trkpt lat="41.7594350" lon="-8.8761180">
        <ele>11.1</ele>
        <time>2021-05-18T07:56:39Z</time>
      </trkpt>
      <trkpt lat="41.7594480" lon="-8.8761160">
        <ele>11.1</ele>
        <time>2021-05-18T07:56:40Z</time>
      </trkpt>
      <trkpt lat="41.7594580" lon="-8.8761150">
        <ele>11.2</ele>
        <time>2021-05-18T07:56:41Z</time>
      </trkpt>
      <trkpt lat="41.7594650" lon="-8.8761120">
        <ele>11.2</ele>
        <time>2021-05-18T07:56:42Z</time>
      </trkpt>
      <trkpt lat="41.7594830" lon="-8.8761100">
        <ele>11.3</ele>
        <time>2021-05-18T07:56:43Z</time>
      </trkpt>
      <trkpt lat="41.7595050" lon="-8.8761050">
        <ele>11.4</ele>
        <time>2021-05-18T07:56:44Z</time>
      </trkpt>
      <trkpt lat="41.7595160" lon="-8.8761050">
        <ele>11.4</ele>
        <time>2021-05-18T07:56:45Z</time>
      </trkpt>
      <trkpt lat="41.7595260" lon="-8.8761040">
        <ele>11.4</ele>
        <time>2021-05-18T07:56:46Z</time>
      </trkpt>
      <trkpt lat="41.7595410" lon="-8.8761030">
        <ele>11.5</ele>
        <time>2021-05-18T07:56:47Z</time>
      </trkpt>
      <trkpt lat="41.7595520" lon="-8.8761030">
        <ele>11.5</ele>
        <time>2021-05-18T07:56:48Z</time>
      </trkpt>
      <trkpt lat="41.7595600" lon="-8.8760940">
        <ele>11.6</ele>
        <time>2021-05-18T07:56:49Z</time>
      </trkpt>
      <trkpt lat="41.7595740" lon="-8.8760980">
        <ele>11.6</ele>
        <time>2021-05-18T07:56:50Z</time>
      </trkpt>
      <trkpt lat="41.7595880" lon="-8.8761020">
        <ele>11.7</ele>
        <time>2021-05-18T07:56:51Z</time>
      </trkpt>
      <trkpt lat="41.7596030" lon="-8.8760980">
        <ele>11.8</ele>
        <time>2021-05-18T07:56:52Z</time>
      </trkpt>
      <trkpt lat="41.7596200" lon="-8.8760930">
        <ele>11.8</ele>
        <time>2021-05-18T07:56:53Z</time>
      </trkpt>
      <trkpt lat="41.7596310" lon="-8.8760900">
        <ele>11.8</ele>
        <time>2021-05-18T07:56:54Z</time>
      </trkpt>
      <trkpt lat="41.7596430" lon="-8.8760940">
        <ele>11.8</ele>
        <time>2021-05-18T07:56:55Z</time>
      </trkpt>
      <trkpt lat="41.7596560" lon="-8.8760930">
        <ele>11.9</ele>
        <time>2021-05-18T07:56:56Z</time>
      </trkpt>
      <trkpt lat="41.7596660" lon="-8.8760990">
        <ele>11.9</ele>
        <time>2021-05-18T07:56:57Z</time>
      </trkpt>
      <trkpt lat="41.7596820" lon="-8.8761010">
        <ele>11.9</ele>
        <time>2021-05-18T07:56:58Z</time>
      </trkpt>
      <trkpt lat="41.7596890" lon="-8.8760960">
        <ele>11.9</ele>
        <time>2021-05-18T07:56:59Z</time>
      </trkpt>
      <trkpt lat="41.7597130" lon="-8.8761000">
        <ele>11.9</ele>
        <time>2021-05-18T07:57:00Z</time>
      </trkpt>
      <trkpt lat="41.7597220" lon="-8.8760980">
        <ele>12.0</ele>
        <time>2021-05-18T07:57:01Z</time>
      </trkpt>
      <trkpt lat="41.7597300" lon="-8.8760960">
        <ele>12.0</ele>
        <time>2021-05-18T07:57:02Z</time>
      </trkpt>
      <trkpt lat="41.7597550" lon="-8.8760940">
        <ele>12.0</ele>
        <time>2021-05-18T07:57:03Z</time>
      </trkpt>
      <trkpt lat="41.7597680" lon="-8.8760920">
        <ele>12.0</ele>
        <time>2021-05-18T07:57:04Z</time>
      </trkpt>
      <trkpt lat="41.7597810" lon="-8.8760910">
        <ele>12.1</ele>
        <time>2021-05-18T07:57:05Z</time>
      </trkpt>
      <trkpt lat="41.7597980" lon="-8.8760930">
        <ele>12.1</ele>
        <time>2021-05-18T07:57:06Z</time>
      </trkpt>
      <trkpt lat="41.7598130" lon="-8.8760900">
        <ele>12.1</ele>
        <time>2021-05-18T07:57:07Z</time>
      </trkpt>
      <trkpt lat="41.7598270" lon="-8.8760930">
        <ele>12.1</ele>
        <time>2021-05-18T07:57:08Z</time>
      </trkpt>
      <trkpt lat="41.7598440" lon="-8.8760890">
        <ele>12.2</ele>
        <time>2021-05-18T07:57:09Z</time>
      </trkpt>
      <trkpt lat="41.7598620" lon="-8.8760850">
        <ele>12.2</ele>
        <time>2021-05-18T07:57:10Z</time>
      </trkpt>
      <trkpt lat="41.7598760" lon="-8.8760860">
        <ele>12.2</ele>
        <time>2021-05-18T07:57:11Z</time>
      </trkpt>
      <trkpt lat="41.7598920" lon="-8.8760810">
        <ele>12.2</ele>
        <time>2021-05-18T07:57:12Z</time>
      </trkpt>
      <trkpt lat="41.7599060" lon="-8.8760770">
        <ele>12.2</ele>
        <time>2021-05-18T07:57:13Z</time>
      </trkpt>
      <trkpt lat="41.7599230" lon="-8.8760800">
        <ele>12.3</ele>
        <time>2021-05-18T07:57:14Z</time>
      </trkpt>
      <trkpt lat="41.7599370" lon="-8.8760730">
        <ele>12.3</ele>
        <time>2021-05-18T07:57:15Z</time>
      </trkpt>
      <trkpt lat="41.7599530" lon="-8.8760680">
        <ele>12.3</ele>
        <time>2021-05-18T07:57:16Z</time>
      </trkpt>
      <trkpt lat="41.7599690" lon="-8.8760680">
        <ele>12.3</ele>
        <time>2021-05-18T07:57:17Z</time>
      </trkpt>
      <trkpt lat="41.7599840" lon="-8.8760620">
        <ele>12.3</ele>
        <time>2021-05-18T07:57:18Z</time>
      </trkpt>
      <trkpt lat="41.7600000" lon="-8.8760550">
        <ele>12.3</ele>
        <time>2021-05-18T07:57:19Z</time>
      </trkpt>
      <trkpt lat="41.7600150" lon="-8.8760540">
        <ele>12.4</ele>
        <time>2021-05-18T07:57:20Z</time>
      </trkpt>
      <trkpt lat="41.7600300" lon="-8.8760560">
        <ele>12.4</ele>
        <time>2021-05-18T07:57:21Z</time>
      </trkpt>
      <trkpt lat="41.7600470" lon="-8.8760560">
        <ele>12.4</ele>
        <time>2021-05-18T07:57:22Z</time>
      </trkpt>
      <trkpt lat="41.7600640" lon="-8.8760480">
        <ele>12.4</ele>
        <time>2021-05-18T07:57:23Z</time>
      </trkpt>
      <trkpt lat="41.7600790" lon="-8.8760420">
        <ele>12.4</ele>
        <time>2021-05-18T07:57:24Z</time>
      </trkpt>
      <trkpt lat="41.7600920" lon="-8.8760440">
        <ele>12.4</ele>
        <time>2021-05-18T07:57:25Z</time>
      </trkpt>
      <trkpt lat="41.7601140" lon="-8.8760390">
        <ele>12.4</ele>
        <time>2021-05-18T07:57:26Z</time>
      </trkpt>
      <trkpt lat="41.7601230" lon="-8.8760360">
        <ele>12.4</ele>
        <time>2021-05-18T07:57:27Z</time>
      </trkpt>
      <trkpt lat="41.7601330" lon="-8.8760340">
        <ele>12.4</ele>
        <time>2021-05-18T07:57:28Z</time>
      </trkpt>
      <trkpt lat="41.7601490" lon="-8.8760380">
        <ele>12.4</ele>
        <time>2021-05-18T07:57:29Z</time>
      </trkpt>
      <trkpt lat="41.7601660" lon="-8.8760410">
        <ele>12.4</ele>
        <time>2021-05-18T07:57:30Z</time>
      </trkpt>
      <trkpt lat="41.7601810" lon="-8.8760340">
        <ele>12.4</ele>
        <time>2021-05-18T07:57:31Z</time>
      </trkpt>
      <trkpt lat="41.7601960" lon="-8.8760350">
        <ele>12.5</ele>
        <time>2021-05-18T07:57:32Z</time>
      </trkpt>
      <trkpt lat="41.7602180" lon="-8.8760280">
        <ele>12.5</ele>
        <time>2021-05-18T07:57:33Z</time>
      </trkpt>
      <trkpt lat="41.7602270" lon="-8.8760240">
        <ele>12.5</ele>
        <time>2021-05-18T07:57:34Z</time>
      </trkpt>
      <trkpt lat="41.7602360" lon="-8.8760200">
        <ele>12.5</ele>
        <time>2021-05-18T07:57:35Z</time>
      </trkpt>
      <trkpt lat="41.7602500" lon="-8.8760200">
        <ele>12.5</ele>
        <time>2021-05-18T07:57:36Z</time>
      </trkpt>
      <trkpt lat="41.7602650" lon="-8.8760170">
        <ele>12.5</ele>
        <time>2021-05-18T07:57:37Z</time>
      </trkpt>
      <trkpt lat="41.7602790" lon="-8.8760150">
        <ele>12.6</ele>
        <time>2021-05-18T07:57:38Z</time>
      </trkpt>
      <trkpt lat="41.7602950" lon="-8.8760220">
        <ele>12.6</ele>
        <time>2021-05-18T07:57:39Z</time>
      </trkpt>
      <trkpt lat="41.7603100" lon="-8.8760160">
        <ele>12.6</ele>
        <time>2021-05-18T07:57:40Z</time>
      </trkpt>
      <trkpt lat="41.7603230" lon="-8.8760160">
        <ele>12.6</ele>
        <time>2021-05-18T07:57:41Z</time>
      </trkpt>
      <trkpt lat="41.7603370" lon="-8.8760040">
        <ele>12.6</ele>
        <time>2021-05-18T07:57:42Z</time>
      </trkpt>
      <trkpt lat="41.7603500" lon="-8.8760020">
        <ele>12.6</ele>
        <time>2021-05-18T07:57:43Z</time>
      </trkpt>
      <trkpt lat="41.7603660" lon="-8.8760110">
        <ele>12.6</ele>
        <time>2021-05-18T07:57:44Z</time>
      </trkpt>
      <trkpt lat="41.7603800" lon="-8.8760080">
        <ele>12.6</ele>
        <time>2021-05-18T07:57:45Z</time>
      </trkpt>
      <trkpt lat="41.7603960" lon="-8.8760110">
        <ele>12.6</ele>
        <time>2021-05-18T07:57:46Z</time>
      </trkpt>
      <trkpt lat="41.7604110" lon="-8.8760120">
        <ele>12.6</ele>
        <time>2021-05-18T07:57:47Z</time>
      </trkpt>
      <trkpt lat="41.7604280" lon="-8.8760120">
        <ele>12.6</ele>
        <time>2021-05-18T07:57:48Z</time>
      </trkpt>
      <trkpt lat="41.7604430" lon="-8.8760070">
        <ele>12.7</ele>
        <time>2021-05-18T07:57:49Z</time>
      </trkpt>
      <trkpt lat="41.7604660" lon="-8.8760020">
        <ele>12.7</ele>
        <time>2021-05-18T07:57:50Z</time>
      </trkpt>
      <trkpt lat="41.7604740" lon="-8.8759990">
        <ele>12.7</ele>
        <time>2021-05-18T07:57:51Z</time>
      </trkpt>
      <trkpt lat="41.7604830" lon="-8.8759960">
        <ele>12.7</ele>
        <time>2021-05-18T07:57:52Z</time>
      </trkpt>
      <trkpt lat="41.7604960" lon="-8.8759940">
        <ele>12.7</ele>
        <time>2021-05-18T07:57:53Z</time>
      </trkpt>
      <trkpt lat="41.7605100" lon="-8.8759860">
        <ele>12.7</ele>
        <time>2021-05-18T07:57:54Z</time>
      </trkpt>
      <trkpt lat="41.7605230" lon="-8.8759840">
        <ele>12.7</ele>
        <time>2021-05-18T07:57:55Z</time>
      </trkpt>
      <trkpt lat="41.7605390" lon="-8.8759810">
        <ele>12.7</ele>
        <time>2021-05-18T07:57:56Z</time>
      </trkpt>
      <trkpt lat="41.7605600" lon="-8.8759770">
        <ele>12.7</ele>
        <time>2021-05-18T07:57:57Z</time>
      </trkpt>
      <trkpt lat="41.7605690" lon="-8.8759790">
        <ele>12.7</ele>
        <time>2021-05-18T07:57:58Z</time>
      </trkpt>
      <trkpt lat="41.7605780" lon="-8.8759800">
        <ele>12.7</ele>
        <time>2021-05-18T07:57:59Z</time>
      </trkpt>
      <trkpt lat="41.7605930" lon="-8.8759820">
        <ele>12.7</ele>
        <time>2021-05-18T07:58:00Z</time>
      </trkpt>
      <trkpt lat="41.7606070" lon="-8.8759790">
        <ele>12.7</ele>
        <time>2021-05-18T07:58:01Z</time>
      </trkpt>
      <trkpt lat="41.7606210" lon="-8.8759720">
        <ele>12.7</ele>
        <time>2021-05-18T07:58:02Z</time>
      </trkpt>
      <trkpt lat="41.7606370" lon="-8.8759740">
        <ele>12.7</ele>
        <time>2021-05-18T07:58:03Z</time>
      </trkpt>
      <trkpt lat="41.7606500" lon="-8.8759710">
        <ele>12.7</ele>
        <time>2021-05-18T07:58:04Z</time>
      </trkpt>
      <trkpt lat="41.7606640" lon="-8.8759780">
        <ele>12.7</ele>
        <time>2021-05-18T07:58:05Z</time>
      </trkpt>
      <trkpt lat="41.7606780" lon="-8.8759820">
        <ele>12.7</ele>
        <time>2021-05-18T07:58:06Z</time>
      </trkpt>
      <trkpt lat="41.7606910" lon="-8.8759790">
        <ele>12.7</ele>
        <time>2021-05-18T07:58:07Z</time>
      </trkpt>
      <trkpt lat="41.7607070" lon="-8.8759840">
        <ele>12.7</ele>
        <time>2021-05-18T07:58:08Z</time>
      </trkpt>
      <trkpt lat="41.7607210" lon="-8.8759840">
        <ele>12.7</ele>
        <time>2021-05-18T07:58:09Z</time>
      </trkpt>
      <trkpt lat="41.7607430" lon="-8.8760000">
        <ele>12.7</ele>
        <time>2021-05-18T07:58:10Z</time>
      </trkpt>
      <trkpt lat="41.7607520" lon="-8.8760050">
        <ele>12.7</ele>
        <time>2021-05-18T07:58:11Z</time>
      </trkpt>
      <trkpt lat="41.7607620" lon="-8.8760100">
        <ele>12.7</ele>
        <time>2021-05-18T07:58:12Z</time>
      </trkpt>
      <trkpt lat="41.7607750" lon="-8.8760120">
        <ele>12.7</ele>
        <time>2021-05-18T07:58:13Z</time>
      </trkpt>
      <trkpt lat="41.7607900" lon="-8.8760150">
        <ele>12.7</ele>
        <time>2021-05-18T07:58:14Z</time>
      </trkpt>
      <trkpt lat="41.7608040" lon="-8.8760170">
        <ele>12.7</ele>
        <time>2021-05-18T07:58:15Z</time>
      </trkpt>
      <trkpt lat="41.7608210" lon="-8.8760190">
        <ele>12.7</ele>
        <time>2021-05-18T07:58:16Z</time>
      </trkpt>
      <trkpt lat="41.7608340" lon="-8.8760200">
        <ele>12.7</ele>
        <time>2021-05-18T07:58:17Z</time>
      </trkpt>
      <trkpt lat="41.7608480" lon="-8.8760230">
        <ele>12.7</ele>
        <time>2021-05-18T07:58:18Z</time>
      </trkpt>
      <trkpt lat="41.7608620" lon="-8.8760250">
        <ele>12.7</ele>
        <time>2021-05-18T07:58:19Z</time>
      </trkpt>
      <trkpt lat="41.7608760" lon="-8.8760280">
        <ele>12.7</ele>
        <time>2021-05-18T07:58:20Z</time>
      </trkpt>
      <trkpt lat="41.7608920" lon="-8.8760330">
        <ele>12.7</ele>
        <time>2021-05-18T07:58:21Z</time>
      </trkpt>
      <trkpt lat="41.7609080" lon="-8.8760340">
        <ele>12.7</ele>
        <time>2021-05-18T07:58:22Z</time>
      </trkpt>
      <trkpt lat="41.7609280" lon="-8.8760390">
        <ele>12.7</ele>
        <time>2021-05-18T07:58:23Z</time>
      </trkpt>
      <trkpt lat="41.7609380" lon="-8.8760430">
        <ele>12.7</ele>
        <time>2021-05-18T07:58:24Z</time>
      </trkpt>
      <trkpt lat="41.7609470" lon="-8.8760460">
        <ele>12.7</ele>
        <time>2021-05-18T07:58:25Z</time>
      </trkpt>
      <trkpt lat="41.7609600" lon="-8.8760570">
        <ele>12.7</ele>
        <time>2021-05-18T07:58:26Z</time>
      </trkpt>
      <trkpt lat="41.7609730" lon="-8.8760600">
        <ele>12.7</ele>
        <time>2021-05-18T07:58:27Z</time>
      </trkpt>
      <trkpt lat="41.7609870" lon="-8.8760630">
        <ele>12.7</ele>
        <time>2021-05-18T07:58:28Z</time>
      </trkpt>
      <trkpt lat="41.7610020" lon="-8.8760690">
        <ele>12.7</ele>
        <time>2021-05-18T07:58:29Z</time>
      </trkpt>
      <trkpt lat="41.7610150" lon="-8.8760830">
        <ele>12.7</ele>
        <time>2021-05-18T07:58:30Z</time>
      </trkpt>
      <trkpt lat="41.7610290" lon="-8.8760820">
        <ele>12.7</ele>
        <time>2021-05-18T07:58:31Z</time>
      </trkpt>
      <trkpt lat="41.7610440" lon="-8.8760790">
        <ele>12.7</ele>
        <time>2021-05-18T07:58:32Z</time>
      </trkpt>
      <trkpt lat="41.7610580" lon="-8.8760770">
        <ele>12.7</ele>
        <time>2021-05-18T07:58:33Z</time>
      </trkpt>
      <trkpt lat="41.7610730" lon="-8.8760860">
        <ele>12.7</ele>
        <time>2021-05-18T07:58:34Z</time>
      </trkpt>
      <trkpt lat="41.7610890" lon="-8.8760930">
        <ele>12.7</ele>
        <time>2021-05-18T07:58:35Z</time>
      </trkpt>
      <trkpt lat="41.7611040" lon="-8.8760960">
        <ele>12.7</ele>
        <time>2021-05-18T07:58:36Z</time>
      </trkpt>
      <trkpt lat="41.7611180" lon="-8.8760920">
        <ele>12.7</ele>
        <time>2021-05-18T07:58:37Z</time>
      </trkpt>
      <trkpt lat="41.7611320" lon="-8.8760890">
        <ele>12.7</ele>
        <time>2021-05-18T07:58:38Z</time>
      </trkpt>
      <trkpt lat="41.7611470" lon="-8.8760840">
        <ele>12.7</ele>
        <time>2021-05-18T07:58:39Z</time>
      </trkpt>
      <trkpt lat="41.7611620" lon="-8.8760900">
        <ele>12.7</ele>
        <time>2021-05-18T07:58:40Z</time>
      </trkpt>
      <trkpt lat="41.7611760" lon="-8.8760830">
        <ele>12.7</ele>
        <time>2021-05-18T07:58:41Z</time>
      </trkpt>
      <trkpt lat="41.7611910" lon="-8.8760760">
        <ele>12.7</ele>
        <time>2021-05-18T07:58:42Z</time>
      </trkpt>
      <trkpt lat="41.7612050" lon="-8.8760660">
        <ele>12.7</ele>
        <time>2021-05-18T07:58:43Z</time>
      </trkpt>
      <trkpt lat="41.7612210" lon="-8.8760550">
        <ele>12.7</ele>
        <time>2021-05-18T07:58:44Z</time>
      </trkpt>
      <trkpt lat="41.7612360" lon="-8.8760510">
        <ele>12.7</ele>
        <time>2021-05-18T07:58:45Z</time>
      </trkpt>
      <trkpt lat="41.7612470" lon="-8.8760410">
        <ele>12.7</ele>
        <time>2021-05-18T07:58:46Z</time>
      </trkpt>
      <trkpt lat="41.7612610" lon="-8.8760360">
        <ele>12.7</ele>
        <time>2021-05-18T07:58:47Z</time>
      </trkpt>
      <trkpt lat="41.7612730" lon="-8.8760280">
        <ele>12.7</ele>
        <time>2021-05-18T07:58:48Z</time>
      </trkpt>
      <trkpt lat="41.7612890" lon="-8.8760180">
        <ele>12.8</ele>
        <time>2021-05-18T07:58:49Z</time>
      </trkpt>
      <trkpt lat="41.7613040" lon="-8.8760090">
        <ele>12.8</ele>
        <time>2021-05-18T07:58:50Z</time>
      </trkpt>
      <trkpt lat="41.7613180" lon="-8.8760000">
        <ele>12.8</ele>
        <time>2021-05-18T07:58:51Z</time>
      </trkpt>
      <trkpt lat="41.7613320" lon="-8.8759900">
        <ele>12.8</ele>
        <time>2021-05-18T07:58:52Z</time>
      </trkpt>
      <trkpt lat="41.7613480" lon="-8.8759850">
        <ele>12.8</ele>
        <time>2021-05-18T07:58:53Z</time>
      </trkpt>
      <trkpt lat="41.7613630" lon="-8.8759820">
        <ele>12.8</ele>
        <time>2021-05-18T07:58:54Z</time>
      </trkpt>
      <trkpt lat="41.7613760" lon="-8.8759770">
        <ele>12.8</ele>
        <time>2021-05-18T07:58:55Z</time>
      </trkpt>
      <trkpt lat="41.7613910" lon="-8.8759730">
        <ele>12.8</ele>
        <time>2021-05-18T07:58:56Z</time>
      </trkpt>
      <trkpt lat="41.7614050" lon="-8.8759670">
        <ele>12.8</ele>
        <time>2021-05-18T07:58:57Z</time>
      </trkpt>
      <trkpt lat="41.7614210" lon="-8.8759600">
        <ele>12.8</ele>
        <time>2021-05-18T07:58:58Z</time>
      </trkpt>
      <trkpt lat="41.7614340" lon="-8.8759560">
        <ele>12.8</ele>
        <time>2021-05-18T07:58:59Z</time>
      </trkpt>
      <trkpt lat="41.7614490" lon="-8.8759530">
        <ele>12.9</ele>
        <time>2021-05-18T07:59:00Z</time>
      </trkpt>
      <trkpt lat="41.7614620" lon="-8.8759460">
        <ele>12.9</ele>
        <time>2021-05-18T07:59:01Z</time>
      </trkpt>
      <trkpt lat="41.7614770" lon="-8.8759400">
        <ele>12.9</ele>
        <time>2021-05-18T07:59:02Z</time>
      </trkpt>
      <trkpt lat="41.7614890" lon="-8.8759350">
        <ele>12.9</ele>
        <time>2021-05-18T07:59:03Z</time>
      </trkpt>
      <trkpt lat="41.7615070" lon="-8.8759360">
        <ele>12.9</ele>
        <time>2021-05-18T07:59:04Z</time>
      </trkpt>
      <trkpt lat="41.7615180" lon="-8.8759300">
        <ele>12.9</ele>
        <time>2021-05-18T07:59:05Z</time>
      </trkpt>
      <trkpt lat="41.7615300" lon="-8.8759200">
        <ele>12.9</ele>
        <time>2021-05-18T07:59:06Z</time>
      </trkpt>
      <trkpt lat="41.7615440" lon="-8.8759150">
        <ele>12.9</ele>
        <time>2021-05-18T07:59:07Z</time>
      </trkpt>
      <trkpt lat="41.7615600" lon="-8.8759120">
        <ele>12.9</ele>
        <time>2021-05-18T07:59:08Z</time>
      </trkpt>
      <trkpt lat="41.7615750" lon="-8.8759080">
        <ele>12.9</ele>
        <time>2021-05-18T07:59:09Z</time>
      </trkpt>
      <trkpt lat="41.7615910" lon="-8.8759040">
        <ele>12.9</ele>
        <time>2021-05-18T07:59:10Z</time>
      </trkpt>
      <trkpt lat="41.7616070" lon="-8.8759040">
        <ele>13.0</ele>
        <time>2021-05-18T07:59:11Z</time>
      </trkpt>
      <trkpt lat="41.7616220" lon="-8.8759060">
        <ele>13.0</ele>
        <time>2021-05-18T07:59:12Z</time>
      </trkpt>
      <trkpt lat="41.7616380" lon="-8.8759080">
        <ele>13.0</ele>
        <time>2021-05-18T07:59:13Z</time>
      </trkpt>
      <trkpt lat="41.7616540" lon="-8.8759050">
        <ele>13.0</ele>
        <time>2021-05-18T07:59:14Z</time>
      </trkpt>
      <trkpt lat="41.7616680" lon="-8.8758960">
        <ele>13.0</ele>
        <time>2021-05-18T07:59:15Z</time>
      </trkpt>
      <trkpt lat="41.7616830" lon="-8.8758860">
        <ele>13.0</ele>
        <time>2021-05-18T07:59:16Z</time>
      </trkpt>
      <trkpt lat="41.7616990" lon="-8.8758790">
        <ele>13.0</ele>
        <time>2021-05-18T07:59:17Z</time>
      </trkpt>
      <trkpt lat="41.7617100" lon="-8.8758750">
        <ele>13.0</ele>
        <time>2021-05-18T07:59:18Z</time>
      </trkpt>
      <trkpt lat="41.7617250" lon="-8.8758650">
        <ele>13.0</ele>
        <time>2021-05-18T07:59:19Z</time>
      </trkpt>
      <trkpt lat="41.7617380" lon="-8.8758590">
        <ele>13.0</ele>
        <time>2021-05-18T07:59:20Z</time>
      </trkpt>
      <trkpt lat="41.7617520" lon="-8.8758470">
        <ele>13.0</ele>
        <time>2021-05-18T07:59:21Z</time>
      </trkpt>
      <trkpt lat="41.7617680" lon="-8.8758410">
        <ele>13.0</ele>
        <time>2021-05-18T07:59:22Z</time>
      </trkpt>
      <trkpt lat="41.7617840" lon="-8.8758350">
        <ele>13.0</ele>
        <time>2021-05-18T07:59:23Z</time>
      </trkpt>
      <trkpt lat="41.7618000" lon="-8.8758230">
        <ele>13.0</ele>
        <time>2021-05-18T07:59:24Z</time>
      </trkpt>
      <trkpt lat="41.7618130" lon="-8.8758140">
        <ele>13.0</ele>
        <time>2021-05-18T07:59:25Z</time>
      </trkpt>
      <trkpt lat="41.7618280" lon="-8.8758010">
        <ele>13.0</ele>
        <time>2021-05-18T07:59:26Z</time>
      </trkpt>
      <trkpt lat="41.7618420" lon="-8.8757900">
        <ele>13.0</ele>
        <time>2021-05-18T07:59:27Z</time>
      </trkpt>
      <trkpt lat="41.7618540" lon="-8.8757860">
        <ele>13.0</ele>
        <time>2021-05-18T07:59:28Z</time>
      </trkpt>
      <trkpt lat="41.7618700" lon="-8.8757780">
        <ele>13.0</ele>
        <time>2021-05-18T07:59:29Z</time>
      </trkpt>
      <trkpt lat="41.7618810" lon="-8.8757670">
        <ele>13.1</ele>
        <time>2021-05-18T07:59:30Z</time>
      </trkpt>
      <trkpt lat="41.7618920" lon="-8.8757570">
        <ele>13.1</ele>
        <time>2021-05-18T07:59:31Z</time>
      </trkpt>
      <trkpt lat="41.7619040" lon="-8.8757500">
        <ele>13.1</ele>
        <time>2021-05-18T07:59:32Z</time>
      </trkpt>
      <trkpt lat="41.7619190" lon="-8.8757420">
        <ele>13.1</ele>
        <time>2021-05-18T07:59:33Z</time>
      </trkpt>
      <trkpt lat="41.7619320" lon="-8.8757320">
        <ele>13.1</ele>
        <time>2021-05-18T07:59:34Z</time>
      </trkpt>
      <trkpt lat="41.7619460" lon="-8.8757240">
        <ele>13.1</ele>
        <time>2021-05-18T07:59:35Z</time>
      </trkpt>
      <trkpt lat="41.7619620" lon="-8.8757140">
        <ele>13.1</ele>
        <time>2021-05-18T07:59:36Z</time>
      </trkpt>
      <trkpt lat="41.7619720" lon="-8.8757040">
        <ele>13.1</ele>
        <time>2021-05-18T07:59:37Z</time>
      </trkpt>
      <trkpt lat="41.7619860" lon="-8.8756940">
        <ele>13.1</ele>
        <time>2021-05-18T07:59:38Z</time>
      </trkpt>
      <trkpt lat="41.7619970" lon="-8.8756850">
        <ele>13.1</ele>
        <time>2021-05-18T07:59:39Z</time>
      </trkpt>
      <trkpt lat="41.7620040" lon="-8.8756730">
        <ele>13.1</ele>
        <time>2021-05-18T07:59:40Z</time>
      </trkpt>
      <trkpt lat="41.7620150" lon="-8.8756640">
        <ele>13.1</ele>
        <time>2021-05-18T07:59:41Z</time>
      </trkpt>
      <trkpt lat="41.7620270" lon="-8.8756560">
        <ele>13.1</ele>
        <time>2021-05-18T07:59:42Z</time>
      </trkpt>
      <trkpt lat="41.7620430" lon="-8.8756370">
        <ele>13.1</ele>
        <time>2021-05-18T07:59:43Z</time>
      </trkpt>
      <trkpt lat="41.7620490" lon="-8.8756300">
        <ele>13.1</ele>
        <time>2021-05-18T07:59:44Z</time>
      </trkpt>
      <trkpt lat="41.7620560" lon="-8.8756220">
        <ele>13.1</ele>
        <time>2021-05-18T07:59:45Z</time>
      </trkpt>
      <trkpt lat="41.7620630" lon="-8.8756160">
        <ele>13.1</ele>
        <time>2021-05-18T07:59:46Z</time>
      </trkpt>
      <trkpt lat="41.7620820" lon="-8.8756090">
        <ele>13.1</ele>
        <time>2021-05-18T07:59:47Z</time>
      </trkpt>
      <trkpt lat="41.7620970" lon="-8.8756010">
        <ele>13.1</ele>
        <time>2021-05-18T07:59:48Z</time>
      </trkpt>
      <trkpt lat="41.7621110" lon="-8.8755900">
        <ele>13.1</ele>
        <time>2021-05-18T07:59:49Z</time>
      </trkpt>
      <trkpt lat="41.7621200" lon="-8.8755800">
        <ele>13.1</ele>
        <time>2021-05-18T07:59:50Z</time>
      </trkpt>
      <trkpt lat="41.7621330" lon="-8.8755730">
        <ele>13.1</ele>
        <time>2021-05-18T07:59:51Z</time>
      </trkpt>
      <trkpt lat="41.7621440" lon="-8.8755680">
        <ele>13.1</ele>
        <time>2021-05-18T07:59:52Z</time>
      </trkpt>
      <trkpt lat="41.7621540" lon="-8.8755620">
        <ele>13.1</ele>
        <time>2021-05-18T07:59:53Z</time>
      </trkpt>
      <trkpt lat="41.7621610" lon="-8.8755500">
        <ele>13.1</ele>
        <time>2021-05-18T07:59:54Z</time>
      </trkpt>
      <trkpt lat="41.7621740" lon="-8.8755420">
        <ele>13.1</ele>
        <time>2021-05-18T07:59:55Z</time>
      </trkpt>
      <trkpt lat="41.7621900" lon="-8.8755260">
        <ele>13.1</ele>
        <time>2021-05-18T07:59:56Z</time>
      </trkpt>
      <trkpt lat="41.7621970" lon="-8.8755190">
        <ele>13.1</ele>
        <time>2021-05-18T07:59:57Z</time>
      </trkpt>
      <trkpt lat="41.7622050" lon="-8.8755120">
        <ele>13.1</ele>
        <time>2021-05-18T07:59:58Z</time>
      </trkpt>
      <trkpt lat="41.7622230" lon="-8.8754980">
        <ele>13.1</ele>
        <time>2021-05-18T07:59:59Z</time>
      </trkpt>
      <trkpt lat="41.7622320" lon="-8.8754900">
        <ele>13.1</ele>
        <time>2021-05-18T08:00:00Z</time>
      </trkpt>
      <trkpt lat="41.7622410" lon="-8.8754820">
        <ele>13.1</ele>
        <time>2021-05-18T08:00:01Z</time>
      </trkpt>
      <trkpt lat="41.7622570" lon="-8.8754790">
        <ele>13.1</ele>
        <time>2021-05-18T08:00:02Z</time>
      </trkpt>
      <trkpt lat="41.7622720" lon="-8.8754720">
        <ele>13.1</ele>
        <time>2021-05-18T08:00:03Z</time>
      </trkpt>
      <trkpt lat="41.7622880" lon="-8.8754620">
        <ele>13.2</ele>
        <time>2021-05-18T08:00:04Z</time>
      </trkpt>
      <trkpt lat="41.7623010" lon="-8.8754550">
        <ele>13.2</ele>
        <time>2021-05-18T08:00:05Z</time>
      </trkpt>
      <trkpt lat="41.7623170" lon="-8.8754500">
        <ele>13.2</ele>
        <time>2021-05-18T08:00:06Z</time>
      </trkpt>
      <trkpt lat="41.7623280" lon="-8.8754350">
        <ele>13.2</ele>
        <time>2021-05-18T08:00:07Z</time>
      </trkpt>
      <trkpt lat="41.7623440" lon="-8.8754290">
        <ele>13.2</ele>
        <time>2021-05-18T08:00:08Z</time>
      </trkpt>
      <trkpt lat="41.7623570" lon="-8.8754260">
        <ele>13.2</ele>
        <time>2021-05-18T08:00:09Z</time>
      </trkpt>
      <trkpt lat="41.7623720" lon="-8.8754190">
        <ele>13.2</ele>
        <time>2021-05-18T08:00:10Z</time>
      </trkpt>
      <trkpt lat="41.7623870" lon="-8.8754120">
        <ele>13.2</ele>
        <time>2021-05-18T08:00:11Z</time>
      </trkpt>
      <trkpt lat="41.7624010" lon="-8.8754010">
        <ele>13.2</ele>
        <time>2021-05-18T08:00:12Z</time>
      </trkpt>
      <trkpt lat="41.7624170" lon="-8.8753930">
        <ele>13.2</ele>
        <time>2021-05-18T08:00:13Z</time>
      </trkpt>
      <trkpt lat="41.7624320" lon="-8.8753800">
        <ele>13.2</ele>
        <time>2021-05-18T08:00:14Z</time>
      </trkpt>
      <trkpt lat="41.7624460" lon="-8.8753720">
        <ele>13.2</ele>
        <time>2021-05-18T08:00:15Z</time>
      </trkpt>
      <trkpt lat="41.7624620" lon="-8.8753680">
        <ele>13.2</ele>
        <time>2021-05-18T08:00:16Z</time>
      </trkpt>
      <trkpt lat="41.7624780" lon="-8.8753620">
        <ele>13.2</ele>
        <time>2021-05-18T08:00:17Z</time>
      </trkpt>
      <trkpt lat="41.7625030" lon="-8.8753510">
        <ele>13.2</ele>
        <time>2021-05-18T08:00:18Z</time>
      </trkpt>
      <trkpt lat="41.7625130" lon="-8.8753480">
        <ele>13.2</ele>
        <time>2021-05-18T08:00:19Z</time>
      </trkpt>
      <trkpt lat="41.7625250" lon="-8.8753420">
        <ele>13.2</ele>
        <time>2021-05-18T08:00:20Z</time>
      </trkpt>
      <trkpt lat="41.7625400" lon="-8.8753340">
        <ele>13.2</ele>
        <time>2021-05-18T08:00:21Z</time>
      </trkpt>
      <trkpt lat="41.7625610" lon="-8.8753210">
        <ele>13.2</ele>
        <time>2021-05-18T08:00:22Z</time>
      </trkpt>
      <trkpt lat="41.7625700" lon="-8.8753150">
        <ele>13.2</ele>
        <time>2021-05-18T08:00:23Z</time>
      </trkpt>
      <trkpt lat="41.7625790" lon="-8.8753100">
        <ele>13.2</ele>
        <time>2021-05-18T08:00:24Z</time>
      </trkpt>
      <trkpt lat="41.7625920" lon="-8.8753020">
        <ele>13.3</ele>
        <time>2021-05-18T08:00:25Z</time>
      </trkpt>
      <trkpt lat="41.7626090" lon="-8.8752960">
        <ele>13.3</ele>
        <time>2021-05-18T08:00:26Z</time>
      </trkpt>
      <trkpt lat="41.7626270" lon="-8.8752810">
        <ele>13.3</ele>
        <time>2021-05-18T08:00:27Z</time>
      </trkpt>
      <trkpt lat="41.7626360" lon="-8.8752740">
        <ele>13.3</ele>
        <time>2021-05-18T08:00:28Z</time>
      </trkpt>
      <trkpt lat="41.7626440" lon="-8.8752680">
        <ele>13.3</ele>
        <time>2021-05-18T08:00:29Z</time>
      </trkpt>
      <trkpt lat="41.7626590" lon="-8.8752610">
        <ele>13.3</ele>
        <time>2021-05-18T08:00:30Z</time>
      </trkpt>
      <trkpt lat="41.7626720" lon="-8.8752550">
        <ele>13.3</ele>
        <time>2021-05-18T08:00:31Z</time>
      </trkpt>
      <trkpt lat="41.7626890" lon="-8.8752470">
        <ele>13.3</ele>
        <time>2021-05-18T08:00:32Z</time>
      </trkpt>
      <trkpt lat="41.7627030" lon="-8.8752400">
        <ele>13.3</ele>
        <time>2021-05-18T08:00:33Z</time>
      </trkpt>
      <trkpt lat="41.7627140" lon="-8.8752260">
        <ele>13.3</ele>
        <time>2021-05-18T08:00:34Z</time>
      </trkpt>
      <trkpt lat="41.7627270" lon="-8.8752100">
        <ele>13.3</ele>
        <time>2021-05-18T08:00:35Z</time>
      </trkpt>
      <trkpt lat="41.7627380" lon="-8.8751960">
        <ele>13.3</ele>
        <time>2021-05-18T08:00:36Z</time>
      </trkpt>
      <trkpt lat="41.7627490" lon="-8.8751860">
        <ele>13.3</ele>
        <time>2021-05-18T08:00:37Z</time>
      </trkpt>
      <trkpt lat="41.7627600" lon="-8.8751740">
        <ele>13.3</ele>
        <time>2021-05-18T08:00:38Z</time>
      </trkpt>
      <trkpt lat="41.7627710" lon="-8.8751660">
        <ele>13.2</ele>
        <time>2021-05-18T08:00:39Z</time>
      </trkpt>
      <trkpt lat="41.7627780" lon="-8.8751620">
        <ele>13.2</ele>
        <time>2021-05-18T08:00:40Z</time>
      </trkpt>
      <trkpt lat="41.7627960" lon="-8.8751480">
        <ele>13.2</ele>
        <time>2021-05-18T08:00:41Z</time>
      </trkpt>
      <trkpt lat="41.7628030" lon="-8.8751420">
        <ele>13.2</ele>
        <time>2021-05-18T08:00:42Z</time>
      </trkpt>
      <trkpt lat="41.7628110" lon="-8.8751350">
        <ele>13.2</ele>
        <time>2021-05-18T08:00:43Z</time>
      </trkpt>
      <trkpt lat="41.7628150" lon="-8.8751290">
        <ele>13.2</ele>
        <time>2021-05-18T08:00:44Z</time>
      </trkpt>
      <trkpt lat="41.7628300" lon="-8.8751230">
        <ele>13.2</ele>
        <time>2021-05-18T08:00:45Z</time>
      </trkpt>
      <trkpt lat="41.7628380" lon="-8.8751140">
        <ele>13.2</ele>
        <time>2021-05-18T08:00:46Z</time>
      </trkpt>
      <trkpt lat="41.7628590" lon="-8.8750970">
        <ele>13.2</ele>
        <time>2021-05-18T08:00:47Z</time>
      </trkpt>
      <trkpt lat="41.7628650" lon="-8.8750930">
        <ele>13.2</ele>
        <time>2021-05-18T08:00:48Z</time>
      </trkpt>
      <trkpt lat="41.7628710" lon="-8.8750880">
        <ele>13.2</ele>
        <time>2021-05-18T08:00:49Z</time>
      </trkpt>
      <trkpt lat="41.7628860" lon="-8.8750800">
        <ele>13.2</ele>
        <time>2021-05-18T08:00:50Z</time>
      </trkpt>
      <trkpt lat="41.7628980" lon="-8.8750740">
        <ele>13.2</ele>
        <time>2021-05-18T08:00:51Z</time>
      </trkpt>
      <trkpt lat="41.7629160" lon="-8.8750620">
        <ele>13.2</ele>
        <time>2021-05-18T08:00:52Z</time>
      </trkpt>
      <trkpt lat="41.7629310" lon="-8.8750550">
        <ele>13.2</ele>
        <time>2021-05-18T08:00:53Z</time>
      </trkpt>
      <trkpt lat="41.7629440" lon="-8.8750400">
        <ele>13.2</ele>
        <time>2021-05-18T08:00:54Z</time>
      </trkpt>
      <trkpt lat="41.7629590" lon="-8.8750310">
        <ele>13.2</ele>
        <time>2021-05-18T08:00:55Z</time>
      </trkpt>
      <trkpt lat="41.7629740" lon="-8.8750200">
        <ele>13.2</ele>
        <time>2021-05-18T08:00:56Z</time>
      </trkpt>
      <trkpt lat="41.7629820" lon="-8.8750040">
        <ele>13.2</ele>
        <time>2021-05-18T08:00:57Z</time>
      </trkpt>
      <trkpt lat="41.7629990" lon="-8.8749820">
        <ele>13.1</ele>
        <time>2021-05-18T08:00:58Z</time>
      </trkpt>
      <trkpt lat="41.7630040" lon="-8.8749720">
        <ele>13.1</ele>
        <time>2021-05-18T08:00:59Z</time>
      </trkpt>
      <trkpt lat="41.7630080" lon="-8.8749610">
        <ele>13.1</ele>
        <time>2021-05-18T08:01:00Z</time>
      </trkpt>
      <trkpt lat="41.7630050" lon="-8.8749370">
        <ele>13.1</ele>
        <time>2021-05-18T08:01:01Z</time>
      </trkpt>
      <trkpt lat="41.7630010" lon="-8.8749150">
        <ele>13.1</ele>
        <time>2021-05-18T08:01:02Z</time>
      </trkpt>
      <trkpt lat="41.7629980" lon="-8.8748900">
        <ele>13.1</ele>
        <time>2021-05-18T08:01:03Z</time>
      </trkpt>
      <trkpt lat="41.7629950" lon="-8.8748670">
        <ele>13.1</ele>
        <time>2021-05-18T08:01:04Z</time>
      </trkpt>
      <trkpt lat="41.7630000" lon="-8.8748310">
        <ele>13.1</ele>
        <time>2021-05-18T08:01:05Z</time>
      </trkpt>
      <trkpt lat="41.7630010" lon="-8.8748180">
        <ele>13.1</ele>
        <time>2021-05-18T08:01:06Z</time>
      </trkpt>
      <trkpt lat="41.7629950" lon="-8.8748010">
        <ele>13.1</ele>
        <time>2021-05-18T08:01:07Z</time>
      </trkpt>
      <trkpt lat="41.7629970" lon="-8.8747820">
        <ele>13.1</ele>
        <time>2021-05-18T08:01:08Z</time>
      </trkpt>
      <trkpt lat="41.7630000" lon="-8.8747590">
        <ele>13.1</ele>
        <time>2021-05-18T08:01:09Z</time>
      </trkpt>
      <trkpt lat="41.7630080" lon="-8.8747420">
        <ele>13.1</ele>
        <time>2021-05-18T08:01:10Z</time>
      </trkpt>
      <trkpt lat="41.7630070" lon="-8.8747290">
        <ele>13.1</ele>
        <time>2021-05-18T08:01:11Z</time>
      </trkpt>
      <trkpt lat="41.7630120" lon="-8.8747150">
        <ele>13.1</ele>
        <time>2021-05-18T08:01:12Z</time>
      </trkpt>
      <trkpt lat="41.7630150" lon="-8.8747020">
        <ele>13.1</ele>
        <time>2021-05-18T08:01:13Z</time>
      </trkpt>
      <trkpt lat="41.7630180" lon="-8.8746810">
        <ele>13.1</ele>
        <time>2021-05-18T08:01:14Z</time>
      </trkpt>
      <trkpt lat="41.7630250" lon="-8.8746620">
        <ele>13.0</ele>
        <time>2021-05-18T08:01:15Z</time>
      </trkpt>
      <trkpt lat="41.7630290" lon="-8.8746460">
        <ele>13.0</ele>
        <time>2021-05-18T08:01:16Z</time>
      </trkpt>
      <trkpt lat="41.7630400" lon="-8.8746260">
        <ele>13.0</ele>
        <time>2021-05-18T08:01:17Z</time>
      </trkpt>
      <trkpt lat="41.7630520" lon="-8.8746080">
        <ele>13.0</ele>
        <time>2021-05-18T08:01:18Z</time>
      </trkpt>
      <trkpt lat="41.7630630" lon="-8.8745900">
        <ele>13.0</ele>
        <time>2021-05-18T08:01:19Z</time>
      </trkpt>
      <trkpt lat="41.7630670" lon="-8.8745760">
        <ele>13.0</ele>
        <time>2021-05-18T08:01:20Z</time>
      </trkpt>
      <trkpt lat="41.7630830" lon="-8.8745630">
        <ele>13.0</ele>
        <time>2021-05-18T08:01:21Z</time>
      </trkpt>
      <trkpt lat="41.7630890" lon="-8.8745440">
        <ele>13.0</ele>
        <time>2021-05-18T08:01:22Z</time>
      </trkpt>
      <trkpt lat="41.7631010" lon="-8.8745320">
        <ele>13.0</ele>
        <time>2021-05-18T08:01:23Z</time>
      </trkpt>
      <trkpt lat="41.7631110" lon="-8.8745150">
        <ele>13.0</ele>
        <time>2021-05-18T08:01:24Z</time>
      </trkpt>
      <trkpt lat="41.7631210" lon="-8.8745000">
        <ele>13.0</ele>
        <time>2021-05-18T08:01:25Z</time>
      </trkpt>
      <trkpt lat="41.7631310" lon="-8.8744850">
        <ele>13.0</ele>
        <time>2021-05-18T08:01:26Z</time>
      </trkpt>
      <trkpt lat="41.7631390" lon="-8.8744710">
        <ele>13.0</ele>
        <time>2021-05-18T08:01:27Z</time>
      </trkpt>
      <trkpt lat="41.7631480" lon="-8.8744540">
        <ele>13.0</ele>
        <time>2021-05-18T08:01:28Z</time>
      </trkpt>
      <trkpt lat="41.7631600" lon="-8.8744460">
        <ele>13.0</ele>
        <time>2021-05-18T08:01:29Z</time>
      </trkpt>
      <trkpt lat="41.7631670" lon="-8.8744330">
        <ele>13.0</ele>
        <time>2021-05-18T08:01:30Z</time>
      </trkpt>
      <trkpt lat="41.7631760" lon="-8.8744190">
        <ele>13.0</ele>
        <time>2021-05-18T08:01:31Z</time>
      </trkpt>
      <trkpt lat="41.7631830" lon="-8.8744080">
        <ele>13.0</ele>
        <time>2021-05-18T08:01:32Z</time>
      </trkpt>
      <trkpt lat="41.7631910" lon="-8.8743930">
        <ele>13.0</ele>
        <time>2021-05-18T08:01:33Z</time>
      </trkpt>
      <trkpt lat="41.7632040" lon="-8.8743760">
        <ele>13.0</ele>
        <time>2021-05-18T08:01:34Z</time>
      </trkpt>
      <trkpt lat="41.7632170" lon="-8.8743660">
        <ele>13.0</ele>
        <time>2021-05-18T08:01:35Z</time>
      </trkpt>
      <trkpt lat="41.7632250" lon="-8.8743510">
        <ele>13.0</ele>
        <time>2021-05-18T08:01:36Z</time>
      </trkpt>
      <trkpt lat="41.7632340" lon="-8.8743360">
        <ele>13.0</ele>
        <time>2021-05-18T08:01:37Z</time>
      </trkpt>
      <trkpt lat="41.7632440" lon="-8.8743190">
        <ele>13.0</ele>
        <time>2021-05-18T08:01:38Z</time>
      </trkpt>
      <trkpt lat="41.7632560" lon="-8.8743080">
        <ele>13.0</ele>
        <time>2021-05-18T08:01:39Z</time>
      </trkpt>
      <trkpt lat="41.7632690" lon="-8.8742990">
        <ele>13.0</ele>
        <time>2021-05-18T08:01:40Z</time>
      </trkpt>
      <trkpt lat="41.7632770" lon="-8.8742860">
        <ele>13.0</ele>
        <time>2021-05-18T08:01:41Z</time>
      </trkpt>
      <trkpt lat="41.7632850" lon="-8.8742730">
        <ele>13.0</ele>
        <time>2021-05-18T08:01:42Z</time>
      </trkpt>
      <trkpt lat="41.7632910" lon="-8.8742660">
        <ele>13.0</ele>
        <time>2021-05-18T08:01:43Z</time>
      </trkpt>
      <trkpt lat="41.7633010" lon="-8.8742570">
        <ele>12.9</ele>
        <time>2021-05-18T08:01:44Z</time>
      </trkpt>
      <trkpt lat="41.7633050" lon="-8.8742460">
        <ele>12.9</ele>
        <time>2021-05-18T08:01:45Z</time>
      </trkpt>
      <trkpt lat="41.7633190" lon="-8.8742360">
        <ele>12.9</ele>
        <time>2021-05-18T08:01:46Z</time>
      </trkpt>
      <trkpt lat="41.7633400" lon="-8.8742080">
        <ele>12.9</ele>
        <time>2021-05-18T08:01:47Z</time>
      </trkpt>
      <trkpt lat="41.7633460" lon="-8.8742010">
        <ele>12.9</ele>
        <time>2021-05-18T08:01:48Z</time>
      </trkpt>
      <trkpt lat="41.7633620" lon="-8.8741890">
        <ele>12.9</ele>
        <time>2021-05-18T08:01:49Z</time>
      </trkpt>
      <trkpt lat="41.7633760" lon="-8.8741770">
        <ele>12.9</ele>
        <time>2021-05-18T08:01:50Z</time>
      </trkpt>
      <trkpt lat="41.7633920" lon="-8.8741660">
        <ele>12.8</ele>
        <time>2021-05-18T08:01:51Z</time>
      </trkpt>
      <trkpt lat="41.7634060" lon="-8.8741580">
        <ele>12.8</ele>
        <time>2021-05-18T08:01:52Z</time>
      </trkpt>
      <trkpt lat="41.7634230" lon="-8.8741460">
        <ele>12.8</ele>
        <time>2021-05-18T08:01:53Z</time>
      </trkpt>
      <trkpt lat="41.7634370" lon="-8.8741360">
        <ele>12.8</ele>
        <time>2021-05-18T08:01:54Z</time>
      </trkpt>
      <trkpt lat="41.7634530" lon="-8.8741370">
        <ele>12.8</ele>
        <time>2021-05-18T08:01:55Z</time>
      </trkpt>
      <trkpt lat="41.7634690" lon="-8.8741320">
        <ele>12.7</ele>
        <time>2021-05-18T08:01:56Z</time>
      </trkpt>
      <trkpt lat="41.7634820" lon="-8.8741250">
        <ele>12.7</ele>
        <time>2021-05-18T08:01:57Z</time>
      </trkpt>
      <trkpt lat="41.7634970" lon="-8.8741170">
        <ele>12.7</ele>
        <time>2021-05-18T08:01:58Z</time>
      </trkpt>
      <trkpt lat="41.7635070" lon="-8.8741030">
        <ele>12.7</ele>
        <time>2021-05-18T08:01:59Z</time>
      </trkpt>
      <trkpt lat="41.7635210" lon="-8.8740980">
        <ele>12.7</ele>
        <time>2021-05-18T08:02:00Z</time>
      </trkpt>
      <trkpt lat="41.7635350" lon="-8.8740920">
        <ele>12.6</ele>
        <time>2021-05-18T08:02:01Z</time>
      </trkpt>
      <trkpt lat="41.7635510" lon="-8.8740920">
        <ele>12.6</ele>
        <time>2021-05-18T08:02:02Z</time>
      </trkpt>
      <trkpt lat="41.7635660" lon="-8.8740810">
        <ele>12.6</ele>
        <time>2021-05-18T08:02:03Z</time>
      </trkpt>
      <trkpt lat="41.7635790" lon="-8.8740740">
        <ele>12.6</ele>
        <time>2021-05-18T08:02:04Z</time>
      </trkpt>
      <trkpt lat="41.7635950" lon="-8.8740640">
        <ele>12.6</ele>
        <time>2021-05-18T08:02:05Z</time>
      </trkpt>
      <trkpt lat="41.7636070" lon="-8.8740600">
        <ele>12.5</ele>
        <time>2021-05-18T08:02:06Z</time>
      </trkpt>
      <trkpt lat="41.7636250" lon="-8.8740500">
        <ele>12.5</ele>
        <time>2021-05-18T08:02:07Z</time>
      </trkpt>
      <trkpt lat="41.7636350" lon="-8.8740450">
        <ele>12.5</ele>
        <time>2021-05-18T08:02:08Z</time>
      </trkpt>
      <trkpt lat="41.7636440" lon="-8.8740410">
        <ele>12.5</ele>
        <time>2021-05-18T08:02:09Z</time>
      </trkpt>
      <trkpt lat="41.7636540" lon="-8.8740400">
        <ele>12.5</ele>
        <time>2021-05-18T08:02:10Z</time>
      </trkpt>
      <trkpt lat="41.7636660" lon="-8.8740350">
        <ele>12.5</ele>
        <time>2021-05-18T08:02:11Z</time>
      </trkpt>
      <trkpt lat="41.7636720" lon="-8.8740300">
        <ele>12.5</ele>
        <time>2021-05-18T08:02:12Z</time>
      </trkpt>
      <trkpt lat="41.7636930" lon="-8.8740220">
        <ele>12.4</ele>
        <time>2021-05-18T08:02:13Z</time>
      </trkpt>
      <trkpt lat="41.7637010" lon="-8.8740200">
        <ele>12.4</ele>
        <time>2021-05-18T08:02:14Z</time>
      </trkpt>
      <trkpt lat="41.7637090" lon="-8.8740180">
        <ele>12.4</ele>
        <time>2021-05-18T08:02:15Z</time>
      </trkpt>
      <trkpt lat="41.7637180" lon="-8.8740180">
        <ele>12.4</ele>
        <time>2021-05-18T08:02:16Z</time>
      </trkpt>
      <trkpt lat="41.7637270" lon="-8.8740110">
        <ele>12.4</ele>
        <time>2021-05-18T08:02:17Z</time>
      </trkpt>
      <trkpt lat="41.7637370" lon="-8.8740080">
        <ele>12.4</ele>
        <time>2021-05-18T08:02:18Z</time>
      </trkpt>
      <trkpt lat="41.7637580" lon="-8.8739970">
        <ele>12.4</ele>
        <time>2021-05-18T08:02:19Z</time>
      </trkpt>
      <trkpt lat="41.7637670" lon="-8.8739930">
        <ele>12.4</ele>
        <time>2021-05-18T08:02:20Z</time>
      </trkpt>
      <trkpt lat="41.7637760" lon="-8.8739890">
        <ele>12.4</ele>
        <time>2021-05-18T08:02:21Z</time>
      </trkpt>
      <trkpt lat="41.7637860" lon="-8.8739860">
        <ele>12.4</ele>
        <time>2021-05-18T08:02:22Z</time>
      </trkpt>
      <trkpt lat="41.7638000" lon="-8.8739780">
        <ele>12.4</ele>
        <time>2021-05-18T08:02:23Z</time>
      </trkpt>
      <trkpt lat="41.7638110" lon="-8.8739790">
        <ele>12.4</ele>
        <time>2021-05-18T08:02:24Z</time>
      </trkpt>
      <trkpt lat="41.7638290" lon="-8.8739750">
        <ele>12.3</ele>
        <time>2021-05-18T08:02:25Z</time>
      </trkpt>
      <trkpt lat="41.7638420" lon="-8.8739650">
        <ele>12.3</ele>
        <time>2021-05-18T08:02:26Z</time>
      </trkpt>
      <trkpt lat="41.7638520" lon="-8.8739640">
        <ele>12.3</ele>
        <time>2021-05-18T08:02:27Z</time>
      </trkpt>
      <trkpt lat="41.7638610" lon="-8.8739590">
        <ele>12.3</ele>
        <time>2021-05-18T08:02:28Z</time>
      </trkpt>
      <trkpt lat="41.7638720" lon="-8.8739540">
        <ele>12.3</ele>
        <time>2021-05-18T08:02:29Z</time>
      </trkpt>
      <trkpt lat="41.7638980" lon="-8.8739450">
        <ele>12.3</ele>
        <time>2021-05-18T08:02:30Z</time>
      </trkpt>
      <trkpt lat="41.7639040" lon="-8.8739420">
        <ele>12.3</ele>
        <time>2021-05-18T08:02:31Z</time>
      </trkpt>
      <trkpt lat="41.7639110" lon="-8.8739390">
        <ele>12.3</ele>
        <time>2021-05-18T08:02:32Z</time>
      </trkpt>
      <trkpt lat="41.7639270" lon="-8.8739300">
        <ele>12.3</ele>
        <time>2021-05-18T08:02:33Z</time>
      </trkpt>
      <trkpt lat="41.7639420" lon="-8.8739270">
        <ele>12.3</ele>
        <time>2021-05-18T08:02:34Z</time>
      </trkpt>
      <trkpt lat="41.7639660" lon="-8.8739200">
        <ele>12.3</ele>
        <time>2021-05-18T08:02:35Z</time>
      </trkpt>
      <trkpt lat="41.7639760" lon="-8.8739170">
        <ele>12.3</ele>
        <time>2021-05-18T08:02:36Z</time>
      </trkpt>
      <trkpt lat="41.7639860" lon="-8.8739140">
        <ele>12.3</ele>
        <time>2021-05-18T08:02:37Z</time>
      </trkpt>
      <trkpt lat="41.7640060" lon="-8.8739080">
        <ele>12.3</ele>
        <time>2021-05-18T08:02:38Z</time>
      </trkpt>
      <trkpt lat="41.7640140" lon="-8.8739040">
        <ele>12.3</ele>
        <time>2021-05-18T08:02:39Z</time>
      </trkpt>
      <trkpt lat="41.7640210" lon="-8.8738990">
        <ele>12.3</ele>
        <time>2021-05-18T08:02:40Z</time>
      </trkpt>
      <trkpt lat="41.7640440" lon="-8.8738990">
        <ele>12.3</ele>
        <time>2021-05-18T08:02:41Z</time>
      </trkpt>
      <trkpt lat="41.7640530" lon="-8.8738980">
        <ele>12.3</ele>
        <time>2021-05-18T08:02:42Z</time>
      </trkpt>
      <trkpt lat="41.7640630" lon="-8.8738960">
        <ele>12.3</ele>
        <time>2021-05-18T08:02:43Z</time>
      </trkpt>
      <trkpt lat="41.7640770" lon="-8.8738880">
        <ele>12.3</ele>
        <time>2021-05-18T08:02:44Z</time>
      </trkpt>
      <trkpt lat="41.7640930" lon="-8.8738810">
        <ele>12.3</ele>
        <time>2021-05-18T08:02:45Z</time>
      </trkpt>
      <trkpt lat="41.7641070" lon="-8.8738710">
        <ele>12.3</ele>
        <time>2021-05-18T08:02:46Z</time>
      </trkpt>
      <trkpt lat="41.7641230" lon="-8.8738650">
        <ele>12.3</ele>
        <time>2021-05-18T08:02:47Z</time>
      </trkpt>
      <trkpt lat="41.7641400" lon="-8.8738620">
        <ele>12.3</ele>
        <time>2021-05-18T08:02:48Z</time>
      </trkpt>
      <trkpt lat="41.7641560" lon="-8.8738570">
        <ele>12.3</ele>
        <time>2021-05-18T08:02:49Z</time>
      </trkpt>
      <trkpt lat="41.7641720" lon="-8.8738530">
        <ele>12.3</ele>
        <time>2021-05-18T08:02:50Z</time>
      </trkpt>
      <trkpt lat="41.7641860" lon="-8.8738550">
        <ele>12.3</ele>
        <time>2021-05-18T08:02:51Z</time>
      </trkpt>
      <trkpt lat="41.7641980" lon="-8.8738510">
        <ele>12.3</ele>
        <time>2021-05-18T08:02:52Z</time>
      </trkpt>
      <trkpt lat="41.7642160" lon="-8.8738410">
        <ele>12.3</ele>
        <time>2021-05-18T08:02:53Z</time>
      </trkpt>
      <trkpt lat="41.7642280" lon="-8.8738390">
        <ele>12.3</ele>
        <time>2021-05-18T08:02:54Z</time>
      </trkpt>
      <trkpt lat="41.7642460" lon="-8.8738310">
        <ele>12.3</ele>
        <time>2021-05-18T08:02:55Z</time>
      </trkpt>
      <trkpt lat="41.7642610" lon="-8.8738190">
        <ele>12.2</ele>
        <time>2021-05-18T08:02:56Z</time>
      </trkpt>
      <trkpt lat="41.7642770" lon="-8.8738180">
        <ele>12.2</ele>
        <time>2021-05-18T08:02:57Z</time>
      </trkpt>
      <trkpt lat="41.7642920" lon="-8.8738130">
        <ele>12.2</ele>
        <time>2021-05-18T08:02:58Z</time>
      </trkpt>
      <trkpt lat="41.7643090" lon="-8.8738040">
        <ele>12.2</ele>
        <time>2021-05-18T08:02:59Z</time>
      </trkpt>
      <trkpt lat="41.7643230" lon="-8.8738010">
        <ele>12.2</ele>
        <time>2021-05-18T08:03:00Z</time>
      </trkpt>
      <trkpt lat="41.7643370" lon="-8.8737860">
        <ele>12.2</ele>
        <time>2021-05-18T08:03:01Z</time>
      </trkpt>
      <trkpt lat="41.7643560" lon="-8.8737770">
        <ele>12.2</ele>
        <time>2021-05-18T08:03:02Z</time>
      </trkpt>
      <trkpt lat="41.7643700" lon="-8.8737670">
        <ele>12.2</ele>
        <time>2021-05-18T08:03:03Z</time>
      </trkpt>
      <trkpt lat="41.7643870" lon="-8.8737700">
        <ele>12.1</ele>
        <time>2021-05-18T08:03:04Z</time>
      </trkpt>
      <trkpt lat="41.7644030" lon="-8.8737630">
        <ele>12.1</ele>
        <time>2021-05-18T08:03:05Z</time>
      </trkpt>
      <trkpt lat="41.7644200" lon="-8.8737530">
        <ele>12.1</ele>
        <time>2021-05-18T08:03:06Z</time>
      </trkpt>
      <trkpt lat="41.7644350" lon="-8.8737430">
        <ele>12.1</ele>
        <time>2021-05-18T08:03:07Z</time>
      </trkpt>
      <trkpt lat="41.7644490" lon="-8.8737320">
        <ele>12.0</ele>
        <time>2021-05-18T08:03:08Z</time>
      </trkpt>
      <trkpt lat="41.7644630" lon="-8.8737210">
        <ele>12.0</ele>
        <time>2021-05-18T08:03:09Z</time>
      </trkpt>
      <trkpt lat="41.7644750" lon="-8.8737090">
        <ele>12.0</ele>
        <time>2021-05-18T08:03:10Z</time>
      </trkpt>
      <trkpt lat="41.7644850" lon="-8.8736970">
        <ele>12.0</ele>
        <time>2021-05-18T08:03:11Z</time>
      </trkpt>
      <trkpt lat="41.7644970" lon="-8.8736830">
        <ele>12.0</ele>
        <time>2021-05-18T08:03:12Z</time>
      </trkpt>
      <trkpt lat="41.7644950" lon="-8.8736760">
        <ele>12.0</ele>
        <time>2021-05-18T08:03:13Z</time>
      </trkpt>
      <trkpt lat="41.7644980" lon="-8.8736760">
        <ele>12.0</ele>
        <time>2021-05-18T08:03:14Z</time>
      </trkpt>
      <trkpt lat="41.7644940" lon="-8.8736760">
        <ele>12.0</ele>
        <time>2021-05-18T08:03:15Z</time>
      </trkpt>
      <trkpt lat="41.7644930" lon="-8.8736750">
        <ele>12.0</ele>
        <time>2021-05-18T08:03:16Z</time>
      </trkpt>
      <trkpt lat="41.7644900" lon="-8.8736720">
        <ele>12.0</ele>
        <time>2021-05-18T08:03:17Z</time>
      </trkpt>
      <trkpt lat="41.7644900" lon="-8.8736760">
        <ele>11.9</ele>
        <time>2021-05-18T08:03:18Z</time>
      </trkpt>
      <trkpt lat="41.7644920" lon="-8.8736790">
        <ele>11.9</ele>
        <time>2021-05-18T08:03:19Z</time>
      </trkpt>
      <trkpt lat="41.7644940" lon="-8.8736760">
        <ele>11.9</ele>
        <time>2021-05-18T08:03:20Z</time>
      </trkpt>
      <trkpt lat="41.7645000" lon="-8.8736630">
        <ele>11.9</ele>
        <time>2021-05-18T08:03:21Z</time>
      </trkpt>
      <trkpt lat="41.7645080" lon="-8.8736500">
        <ele>11.9</ele>
        <time>2021-05-18T08:03:22Z</time>
      </trkpt>
      <trkpt lat="41.7645220" lon="-8.8736380">
        <ele>11.9</ele>
        <time>2021-05-18T08:03:23Z</time>
      </trkpt>
      <trkpt lat="41.7645360" lon="-8.8736260">
        <ele>11.9</ele>
        <time>2021-05-18T08:03:24Z</time>
      </trkpt>
      <trkpt lat="41.7645470" lon="-8.8736130">
        <ele>11.9</ele>
        <time>2021-05-18T08:03:25Z</time>
      </trkpt>
      <trkpt lat="41.7645610" lon="-8.8735990">
        <ele>11.9</ele>
        <time>2021-05-18T08:03:26Z</time>
      </trkpt>
      <trkpt lat="41.7645760" lon="-8.8735840">
        <ele>11.9</ele>
        <time>2021-05-18T08:03:27Z</time>
      </trkpt>
      <trkpt lat="41.7645890" lon="-8.8735660">
        <ele>11.8</ele>
        <time>2021-05-18T08:03:28Z</time>
      </trkpt>
      <trkpt lat="41.7645950" lon="-8.8735550">
        <ele>11.8</ele>
        <time>2021-05-18T08:03:29Z</time>
      </trkpt>
      <trkpt lat="41.7646020" lon="-8.8735440">
        <ele>11.8</ele>
        <time>2021-05-18T08:03:30Z</time>
      </trkpt>
      <trkpt lat="41.7646180" lon="-8.8735220">
        <ele>11.8</ele>
        <time>2021-05-18T08:03:31Z</time>
      </trkpt>
      <trkpt lat="41.7646230" lon="-8.8735130">
        <ele>11.8</ele>
        <time>2021-05-18T08:03:32Z</time>
      </trkpt>
      <trkpt lat="41.7646280" lon="-8.8735050">
        <ele>11.8</ele>
        <time>2021-05-18T08:03:33Z</time>
      </trkpt>
      <trkpt lat="41.7646400" lon="-8.8734840">
        <ele>11.8</ele>
        <time>2021-05-18T08:03:34Z</time>
      </trkpt>
      <trkpt lat="41.7646450" lon="-8.8734720">
        <ele>11.8</ele>
        <time>2021-05-18T08:03:35Z</time>
      </trkpt>
      <trkpt lat="41.7646510" lon="-8.8734610">
        <ele>11.8</ele>
        <time>2021-05-18T08:03:36Z</time>
      </trkpt>
      <trkpt lat="41.7646610" lon="-8.8734390">
        <ele>11.8</ele>
        <time>2021-05-18T08:03:37Z</time>
      </trkpt>
      <trkpt lat="41.7646770" lon="-8.8734320">
        <ele>11.7</ele>
        <time>2021-05-18T08:03:38Z</time>
      </trkpt>
      <trkpt lat="41.7646820" lon="-8.8734100">
        <ele>11.7</ele>
        <time>2021-05-18T08:03:39Z</time>
      </trkpt>
      <trkpt lat="41.7646930" lon="-8.8733890">
        <ele>11.7</ele>
        <time>2021-05-18T08:03:40Z</time>
      </trkpt>
      <trkpt lat="41.7647000" lon="-8.8733770">
        <ele>11.7</ele>
        <time>2021-05-18T08:03:41Z</time>
      </trkpt>
      <trkpt lat="41.7647110" lon="-8.8733600">
        <ele>11.7</ele>
        <time>2021-05-18T08:03:42Z</time>
      </trkpt>
      <trkpt lat="41.7647250" lon="-8.8733430">
        <ele>11.7</ele>
        <time>2021-05-18T08:03:43Z</time>
      </trkpt>
      <trkpt lat="41.7647310" lon="-8.8733280">
        <ele>11.7</ele>
        <time>2021-05-18T08:03:44Z</time>
      </trkpt>
      <trkpt lat="41.7647520" lon="-8.8733040">
        <ele>11.7</ele>
        <time>2021-05-18T08:03:45Z</time>
      </trkpt>
      <trkpt lat="41.7647570" lon="-8.8732890">
        <ele>11.7</ele>
        <time>2021-05-18T08:03:46Z</time>
      </trkpt>
      <trkpt lat="41.7647720" lon="-8.8732730">
        <ele>11.6</ele>
        <time>2021-05-18T08:03:47Z</time>
      </trkpt>
      <trkpt lat="41.7647790" lon="-8.8732530">
        <ele>11.6</ele>
        <time>2021-05-18T08:03:48Z</time>
      </trkpt>
      <trkpt lat="41.7647870" lon="-8.8732410">
        <ele>11.6</ele>
        <time>2021-05-18T08:03:49Z</time>
      </trkpt>
      <trkpt lat="41.7647940" lon="-8.8732220">
        <ele>11.6</ele>
        <time>2021-05-18T08:03:50Z</time>
      </trkpt>
      <trkpt lat="41.7648030" lon="-8.8732050">
        <ele>11.6</ele>
        <time>2021-05-18T08:03:51Z</time>
      </trkpt>
      <trkpt lat="41.7648130" lon="-8.8731890">
        <ele>11.6</ele>
        <time>2021-05-18T08:03:52Z</time>
      </trkpt>
      <trkpt lat="41.7648240" lon="-8.8731760">
        <ele>11.6</ele>
        <time>2021-05-18T08:03:53Z</time>
      </trkpt>
      <trkpt lat="41.7648360" lon="-8.8731670">
        <ele>11.6</ele>
        <time>2021-05-18T08:03:54Z</time>
      </trkpt>
      <trkpt lat="41.7648470" lon="-8.8731550">
        <ele>11.6</ele>
        <time>2021-05-18T08:03:55Z</time>
      </trkpt>
      <trkpt lat="41.7648620" lon="-8.8731420">
        <ele>11.6</ele>
        <time>2021-05-18T08:03:56Z</time>
      </trkpt>
      <trkpt lat="41.7648740" lon="-8.8731350">
        <ele>11.5</ele>
        <time>2021-05-18T08:03:57Z</time>
      </trkpt>
      <trkpt lat="41.7648830" lon="-8.8731210">
        <ele>11.5</ele>
        <time>2021-05-18T08:03:58Z</time>
      </trkpt>
      <trkpt lat="41.7648950" lon="-8.8731120">
        <ele>11.5</ele>
        <time>2021-05-18T08:03:59Z</time>
      </trkpt>
      <trkpt lat="41.7649010" lon="-8.8731010">
        <ele>11.5</ele>
        <time>2021-05-18T08:04:00Z</time>
      </trkpt>
      <trkpt lat="41.7649140" lon="-8.8730910">
        <ele>11.5</ele>
        <time>2021-05-18T08:04:01Z</time>
      </trkpt>
      <trkpt lat="41.7649190" lon="-8.8730820">
        <ele>11.5</ele>
        <time>2021-05-18T08:04:02Z</time>
      </trkpt>
      <trkpt lat="41.7649320" lon="-8.8730710">
        <ele>11.4</ele>
        <time>2021-05-18T08:04:03Z</time>
      </trkpt>
      <trkpt lat="41.7649400" lon="-8.8730680">
        <ele>11.4</ele>
        <time>2021-05-18T08:04:04Z</time>
      </trkpt>
      <trkpt lat="41.7649470" lon="-8.8730640">
        <ele>11.4</ele>
        <time>2021-05-18T08:04:05Z</time>
      </trkpt>
      <trkpt lat="41.7649540" lon="-8.8730600">
        <ele>11.4</ele>
        <time>2021-05-18T08:04:06Z</time>
      </trkpt>
      <trkpt lat="41.7649670" lon="-8.8730580">
        <ele>11.4</ele>
        <time>2021-05-18T08:04:07Z</time>
      </trkpt>
      <trkpt lat="41.7649790" lon="-8.8730560">
        <ele>11.4</ele>
        <time>2021-05-18T08:04:08Z</time>
      </trkpt>
      <trkpt lat="41.7649850" lon="-8.8730550">
        <ele>11.4</ele>
        <time>2021-05-18T08:04:09Z</time>
      </trkpt>
      <trkpt lat="41.7649920" lon="-8.8730500">
        <ele>11.4</ele>
        <time>2021-05-18T08:04:10Z</time>
      </trkpt>
      <trkpt lat="41.7650090" lon="-8.8730440">
        <ele>11.3</ele>
        <time>2021-05-18T08:04:11Z</time>
      </trkpt>
      <trkpt lat="41.7650140" lon="-8.8730500">
        <ele>11.3</ele>
        <time>2021-05-18T08:04:12Z</time>
      </trkpt>
      <trkpt lat="41.7650370" lon="-8.8730410">
        <ele>11.3</ele>
        <time>2021-05-18T08:04:13Z</time>
      </trkpt>
      <trkpt lat="41.7650460" lon="-8.8730390">
        <ele>11.3</ele>
        <time>2021-05-18T08:04:14Z</time>
      </trkpt>
      <trkpt lat="41.7650540" lon="-8.8730380">
        <ele>11.2</ele>
        <time>2021-05-18T08:04:15Z</time>
      </trkpt>
      <trkpt lat="41.7650800" lon="-8.8730290">
        <ele>11.2</ele>
        <time>2021-05-18T08:04:16Z</time>
      </trkpt>
      <trkpt lat="41.7650890" lon="-8.8730290">
        <ele>11.2</ele>
        <time>2021-05-18T08:04:17Z</time>
      </trkpt>
      <trkpt lat="41.7651000" lon="-8.8730310">
        <ele>11.2</ele>
        <time>2021-05-18T08:04:18Z</time>
      </trkpt>
      <trkpt lat="41.7651170" lon="-8.8730310">
        <ele>11.1</ele>
        <time>2021-05-18T08:04:19Z</time>
      </trkpt>
      <trkpt lat="41.7651440" lon="-8.8730290">
        <ele>11.1</ele>
        <time>2021-05-18T08:04:20Z</time>
      </trkpt>
      <trkpt lat="41.7651540" lon="-8.8730290">
        <ele>11.1</ele>
        <time>2021-05-18T08:04:21Z</time>
      </trkpt>
      <trkpt lat="41.7651640" lon="-8.8730280">
        <ele>11.0</ele>
        <time>2021-05-18T08:04:22Z</time>
      </trkpt>
      <trkpt lat="41.7651890" lon="-8.8730240">
        <ele>11.0</ele>
        <time>2021-05-18T08:04:23Z</time>
      </trkpt>
      <trkpt lat="41.7651940" lon="-8.8730210">
        <ele>11.0</ele>
        <time>2021-05-18T08:04:24Z</time>
      </trkpt>
      <trkpt lat="41.7652060" lon="-8.8730180">
        <ele>11.0</ele>
        <time>2021-05-18T08:04:25Z</time>
      </trkpt>
      <trkpt lat="41.7652160" lon="-8.8730210">
        <ele>10.9</ele>
        <time>2021-05-18T08:04:26Z</time>
      </trkpt>
      <trkpt lat="41.7652150" lon="-8.8730170">
        <ele>10.9</ele>
        <time>2021-05-18T08:04:27Z</time>
      </trkpt>
      <trkpt lat="41.7652290" lon="-8.8730170">
        <ele>10.9</ele>
        <time>2021-05-18T08:04:28Z</time>
      </trkpt>
      <trkpt lat="41.7652500" lon="-8.8730080">
        <ele>10.9</ele>
        <time>2021-05-18T08:04:29Z</time>
      </trkpt>
      <trkpt lat="41.7652590" lon="-8.8730040">
        <ele>10.9</ele>
        <time>2021-05-18T08:04:30Z</time>
      </trkpt>
      <trkpt lat="41.7652680" lon="-8.8730000">
        <ele>10.8</ele>
        <time>2021-05-18T08:04:31Z</time>
      </trkpt>
      <trkpt lat="41.7652810" lon="-8.8729910">
        <ele>10.8</ele>
        <time>2021-05-18T08:04:32Z</time>
      </trkpt>
      <trkpt lat="41.7652950" lon="-8.8729820">
        <ele>10.8</ele>
        <time>2021-05-18T08:04:33Z</time>
      </trkpt>
      <trkpt lat="41.7653020" lon="-8.8729780">
        <ele>10.8</ele>
        <time>2021-05-18T08:04:34Z</time>
      </trkpt>
      <trkpt lat="41.7653210" lon="-8.8729700">
        <ele>10.7</ele>
        <time>2021-05-18T08:04:35Z</time>
      </trkpt>
      <trkpt lat="41.7653390" lon="-8.8729540">
        <ele>10.7</ele>
        <time>2021-05-18T08:04:36Z</time>
      </trkpt>
      <trkpt lat="41.7653470" lon="-8.8729510">
        <ele>10.7</ele>
        <time>2021-05-18T08:04:37Z</time>
      </trkpt>
      <trkpt lat="41.7653550" lon="-8.8729470">
        <ele>10.7</ele>
        <time>2021-05-18T08:04:38Z</time>
      </trkpt>
      <trkpt lat="41.7653680" lon="-8.8729400">
        <ele>10.6</ele>
        <time>2021-05-18T08:04:39Z</time>
      </trkpt>
      <trkpt lat="41.7653800" lon="-8.8729310">
        <ele>10.6</ele>
        <time>2021-05-18T08:04:40Z</time>
      </trkpt>
      <trkpt lat="41.7653970" lon="-8.8729250">
        <ele>10.6</ele>
        <time>2021-05-18T08:04:41Z</time>
      </trkpt>
      <trkpt lat="41.7654120" lon="-8.8729210">
        <ele>10.5</ele>
        <time>2021-05-18T08:04:42Z</time>
      </trkpt>
      <trkpt lat="41.7654380" lon="-8.8729030">
        <ele>10.5</ele>
        <time>2021-05-18T08:04:43Z</time>
      </trkpt>
      <trkpt lat="41.7654490" lon="-8.8728950">
        <ele>10.5</ele>
        <time>2021-05-18T08:04:44Z</time>
      </trkpt>
      <trkpt lat="41.7654760" lon="-8.8728880">
        <ele>10.4</ele>
        <time>2021-05-18T08:04:45Z</time>
      </trkpt>
      <trkpt lat="41.7654870" lon="-8.8728860">
        <ele>10.4</ele>
        <time>2021-05-18T08:04:46Z</time>
      </trkpt>
      <trkpt lat="41.7655030" lon="-8.8728770">
        <ele>10.4</ele>
        <time>2021-05-18T08:04:47Z</time>
      </trkpt>
      <trkpt lat="41.7655190" lon="-8.8728680">
        <ele>10.4</ele>
        <time>2021-05-18T08:04:48Z</time>
      </trkpt>
      <trkpt lat="41.7655510" lon="-8.8728470">
        <ele>10.3</ele>
        <time>2021-05-18T08:04:49Z</time>
      </trkpt>
      <trkpt lat="41.7655600" lon="-8.8728420">
        <ele>10.3</ele>
        <time>2021-05-18T08:04:50Z</time>
      </trkpt>
      <trkpt lat="41.7655860" lon="-8.8728280">
        <ele>10.3</ele>
        <time>2021-05-18T08:04:51Z</time>
      </trkpt>
      <trkpt lat="41.7655940" lon="-8.8728220">
        <ele>10.3</ele>
        <time>2021-05-18T08:04:52Z</time>
      </trkpt>
      <trkpt lat="41.7656070" lon="-8.8728110">
        <ele>10.3</ele>
        <time>2021-05-18T08:04:53Z</time>
      </trkpt>
      <trkpt lat="41.7656250" lon="-8.8728020">
        <ele>10.2</ele>
        <time>2021-05-18T08:04:54Z</time>
      </trkpt>
      <trkpt lat="41.7656400" lon="-8.8727910">
        <ele>10.2</ele>
        <time>2021-05-18T08:04:55Z</time>
      </trkpt>
      <trkpt lat="41.7656540" lon="-8.8727780">
        <ele>10.2</ele>
        <time>2021-05-18T08:04:56Z</time>
      </trkpt>
      <trkpt lat="41.7656690" lon="-8.8727730">
        <ele>10.2</ele>
        <time>2021-05-18T08:04:57Z</time>
      </trkpt>
      <trkpt lat="41.7656860" lon="-8.8727650">
        <ele>10.2</ele>
        <time>2021-05-18T08:04:58Z</time>
      </trkpt>
      <trkpt lat="41.7657000" lon="-8.8727570">
        <ele>10.1</ele>
        <time>2021-05-18T08:04:59Z</time>
      </trkpt>
      <trkpt lat="41.7657100" lon="-8.8727430">
        <ele>10.1</ele>
        <time>2021-05-18T08:05:00Z</time>
      </trkpt>
      <trkpt lat="41.7657170" lon="-8.8727310">
        <ele>10.1</ele>
        <time>2021-05-18T08:05:01Z</time>
      </trkpt>
      <trkpt lat="41.7657280" lon="-8.8727160">
        <ele>10.1</ele>
        <time>2021-05-18T08:05:02Z</time>
      </trkpt>
      <trkpt lat="41.7657470" lon="-8.8727080">
        <ele>10.1</ele>
        <time>2021-05-18T08:05:03Z</time>
      </trkpt>
      <trkpt lat="41.7657560" lon="-8.8727000">
        <ele>10.1</ele>
        <time>2021-05-18T08:05:04Z</time>
      </trkpt>
      <trkpt lat="41.7657770" lon="-8.8726880">
        <ele>10.0</ele>
        <time>2021-05-18T08:05:05Z</time>
      </trkpt>
      <trkpt lat="41.7657840" lon="-8.8726810">
        <ele>10.0</ele>
        <time>2021-05-18T08:05:06Z</time>
      </trkpt>
      <trkpt lat="41.7657900" lon="-8.8726730">
        <ele>10.0</ele>
        <time>2021-05-18T08:05:07Z</time>
      </trkpt>
      <trkpt lat="41.7658000" lon="-8.8726640">
        <ele>10.0</ele>
        <time>2021-05-18T08:05:08Z</time>
      </trkpt>
      <trkpt lat="41.7658170" lon="-8.8726510">
        <ele>9.9</ele>
        <time>2021-05-18T08:05:09Z</time>
      </trkpt>
      <trkpt lat="41.7658290" lon="-8.8726380">
        <ele>9.9</ele>
        <time>2021-05-18T08:05:10Z</time>
      </trkpt>
      <trkpt lat="41.7658390" lon="-8.8726250">
        <ele>9.9</ele>
        <time>2021-05-18T08:05:11Z</time>
      </trkpt>
      <trkpt lat="41.7658500" lon="-8.8726130">
        <ele>9.9</ele>
        <time>2021-05-18T08:05:12Z</time>
      </trkpt>
      <trkpt lat="41.7658620" lon="-8.8726050">
        <ele>9.8</ele>
        <time>2021-05-18T08:05:13Z</time>
      </trkpt>
      <trkpt lat="41.7658890" lon="-8.8725850">
        <ele>9.8</ele>
        <time>2021-05-18T08:05:14Z</time>
      </trkpt>
      <trkpt lat="41.7658950" lon="-8.8725760">
        <ele>9.8</ele>
        <time>2021-05-18T08:05:15Z</time>
      </trkpt>
      <trkpt lat="41.7659070" lon="-8.8725600">
        <ele>9.7</ele>
        <time>2021-05-18T08:05:16Z</time>
      </trkpt>
      <trkpt lat="41.7659230" lon="-8.8725470">
        <ele>9.7</ele>
        <time>2021-05-18T08:05:17Z</time>
      </trkpt>
      <trkpt lat="41.7659360" lon="-8.8725330">
        <ele>9.7</ele>
        <time>2021-05-18T08:05:18Z</time>
      </trkpt>
      <trkpt lat="41.7659470" lon="-8.8725170">
        <ele>9.6</ele>
        <time>2021-05-18T08:05:19Z</time>
      </trkpt>
      <trkpt lat="41.7659600" lon="-8.8725000">
        <ele>9.6</ele>
        <time>2021-05-18T08:05:20Z</time>
      </trkpt>
      <trkpt lat="41.7659670" lon="-8.8724830">
        <ele>9.5</ele>
        <time>2021-05-18T08:05:21Z</time>
      </trkpt>
      <trkpt lat="41.7659750" lon="-8.8724750">
        <ele>9.5</ele>
        <time>2021-05-18T08:05:22Z</time>
      </trkpt>
      <trkpt lat="41.7659850" lon="-8.8724680">
        <ele>9.5</ele>
        <time>2021-05-18T08:05:23Z</time>
      </trkpt>
      <trkpt lat="41.7659970" lon="-8.8724560">
        <ele>9.5</ele>
        <time>2021-05-18T08:05:24Z</time>
      </trkpt>
      <trkpt lat="41.7659970" lon="-8.8724490">
        <ele>9.4</ele>
        <time>2021-05-18T08:05:25Z</time>
      </trkpt>
      <trkpt lat="41.7660160" lon="-8.8724350">
        <ele>9.4</ele>
        <time>2021-05-18T08:05:26Z</time>
      </trkpt>
      <trkpt lat="41.7660270" lon="-8.8724320">
        <ele>9.4</ele>
        <time>2021-05-18T08:05:27Z</time>
      </trkpt>
      <trkpt lat="41.7660450" lon="-8.8724190">
        <ele>9.3</ele>
        <time>2021-05-18T08:05:28Z</time>
      </trkpt>
      <trkpt lat="41.7660530" lon="-8.8724140">
        <ele>9.3</ele>
        <time>2021-05-18T08:05:29Z</time>
      </trkpt>
      <trkpt lat="41.7660610" lon="-8.8724100">
        <ele>9.3</ele>
        <time>2021-05-18T08:05:30Z</time>
      </trkpt>
      <trkpt lat="41.7660710" lon="-8.8724020">
        <ele>9.2</ele>
        <time>2021-05-18T08:05:31Z</time>
      </trkpt>
      <trkpt lat="41.7660780" lon="-8.8724000">
        <ele>9.2</ele>
        <time>2021-05-18T08:05:32Z</time>
      </trkpt>
      <trkpt lat="41.7660850" lon="-8.8723930">
        <ele>9.2</ele>
        <time>2021-05-18T08:05:33Z</time>
      </trkpt>
      <trkpt lat="41.7661040" lon="-8.8723860">
        <ele>9.1</ele>
        <time>2021-05-18T08:05:34Z</time>
      </trkpt>
      <trkpt lat="41.7661170" lon="-8.8723800">
        <ele>9.1</ele>
        <time>2021-05-18T08:05:35Z</time>
      </trkpt>
      <trkpt lat="41.7661320" lon="-8.8723780">
        <ele>9.1</ele>
        <time>2021-05-18T08:05:36Z</time>
      </trkpt>
      <trkpt lat="41.7661470" lon="-8.8723770">
        <ele>9.0</ele>
        <time>2021-05-18T08:05:37Z</time>
      </trkpt>
      <trkpt lat="41.7661670" lon="-8.8723730">
        <ele>8.9</ele>
        <time>2021-05-18T08:05:38Z</time>
      </trkpt>
      <trkpt lat="41.7661800" lon="-8.8723720">
        <ele>8.9</ele>
        <time>2021-05-18T08:05:39Z</time>
      </trkpt>
      <trkpt lat="41.7661980" lon="-8.8723780">
        <ele>8.8</ele>
        <time>2021-05-18T08:05:40Z</time>
      </trkpt>
      <trkpt lat="41.7662120" lon="-8.8723900">
        <ele>8.8</ele>
        <time>2021-05-18T08:05:41Z</time>
      </trkpt>
      <trkpt lat="41.7662320" lon="-8.8723970">
        <ele>8.8</ele>
        <time>2021-05-18T08:05:42Z</time>
      </trkpt>
      <trkpt lat="41.7662400" lon="-8.8723950">
        <ele>8.7</ele>
        <time>2021-05-18T08:05:43Z</time>
      </trkpt>
      <trkpt lat="41.7662490" lon="-8.8723930">
        <ele>8.7</ele>
        <time>2021-05-18T08:05:44Z</time>
      </trkpt>
      <trkpt lat="41.7662560" lon="-8.8723990">
        <ele>8.7</ele>
        <time>2021-05-18T08:05:45Z</time>
      </trkpt>
      <trkpt lat="41.7662640" lon="-8.8723990">
        <ele>8.7</ele>
        <time>2021-05-18T08:05:46Z</time>
      </trkpt>
      <trkpt lat="41.7662750" lon="-8.8724030">
        <ele>8.6</ele>
        <time>2021-05-18T08:05:47Z</time>
      </trkpt>
      <trkpt lat="41.7662790" lon="-8.8723990">
        <ele>8.6</ele>
        <time>2021-05-18T08:05:48Z</time>
      </trkpt>
      <trkpt lat="41.7662890" lon="-8.8724000">
        <ele>8.6</ele>
        <time>2021-05-18T08:05:49Z</time>
      </trkpt>
      <trkpt lat="41.7663020" lon="-8.8724050">
        <ele>8.6</ele>
        <time>2021-05-18T08:05:50Z</time>
      </trkpt>
      <trkpt lat="41.7663170" lon="-8.8724050">
        <ele>8.5</ele>
        <time>2021-05-18T08:05:51Z</time>
      </trkpt>
      <trkpt lat="41.7663260" lon="-8.8724040">
        <ele>8.5</ele>
        <time>2021-05-18T08:05:52Z</time>
      </trkpt>
      <trkpt lat="41.7663370" lon="-8.8724020">
        <ele>8.5</ele>
        <time>2021-05-18T08:05:53Z</time>
      </trkpt>
      <trkpt lat="41.7663580" lon="-8.8724050">
        <ele>8.4</ele>
        <time>2021-05-18T08:05:54Z</time>
      </trkpt>
      <trkpt lat="41.7663670" lon="-8.8724100">
        <ele>8.4</ele>
        <time>2021-05-18T08:05:55Z</time>
      </trkpt>
      <trkpt lat="41.7663750" lon="-8.8724140">
        <ele>8.4</ele>
        <time>2021-05-18T08:05:56Z</time>
      </trkpt>
      <trkpt lat="41.7663950" lon="-8.8724100">
        <ele>8.3</ele>
        <time>2021-05-18T08:05:57Z</time>
      </trkpt>
      <trkpt lat="41.7664030" lon="-8.8724100">
        <ele>8.3</ele>
        <time>2021-05-18T08:05:58Z</time>
      </trkpt>
      <trkpt lat="41.7664120" lon="-8.8724100">
        <ele>8.3</ele>
        <time>2021-05-18T08:05:59Z</time>
      </trkpt>
      <trkpt lat="41.7664360" lon="-8.8724040">
        <ele>8.2</ele>
        <time>2021-05-18T08:06:00Z</time>
      </trkpt>
      <trkpt lat="41.7664460" lon="-8.8724010">
        <ele>8.2</ele>
        <time>2021-05-18T08:06:01Z</time>
      </trkpt>
      <trkpt lat="41.7664550" lon="-8.8723980">
        <ele>8.1</ele>
        <time>2021-05-18T08:06:02Z</time>
      </trkpt>
      <trkpt lat="41.7664860" lon="-8.8724020">
        <ele>8.0</ele>
        <time>2021-05-18T08:06:03Z</time>
      </trkpt>
      <trkpt lat="41.7664930" lon="-8.8724030">
        <ele>8.0</ele>
        <time>2021-05-18T08:06:04Z</time>
      </trkpt>
      <trkpt lat="41.7665010" lon="-8.8724040">
        <ele>8.0</ele>
        <time>2021-05-18T08:06:05Z</time>
      </trkpt>
      <trkpt lat="41.7665050" lon="-8.8724020">
        <ele>8.0</ele>
        <time>2021-05-18T08:06:06Z</time>
      </trkpt>
      <trkpt lat="41.7665200" lon="-8.8724030">
        <ele>7.9</ele>
        <time>2021-05-18T08:06:07Z</time>
      </trkpt>
      <trkpt lat="41.7665300" lon="-8.8724050">
        <ele>7.9</ele>
        <time>2021-05-18T08:06:08Z</time>
      </trkpt>
      <trkpt lat="41.7665440" lon="-8.8723990">
        <ele>7.9</ele>
        <time>2021-05-18T08:06:09Z</time>
      </trkpt>
      <trkpt lat="41.7665640" lon="-8.8723990">
        <ele>7.8</ele>
        <time>2021-05-18T08:06:10Z</time>
      </trkpt>
      <trkpt lat="41.7665750" lon="-8.8723940">
        <ele>7.8</ele>
        <time>2021-05-18T08:06:11Z</time>
      </trkpt>
      <trkpt lat="41.7665940" lon="-8.8723890">
        <ele>7.7</ele>
        <time>2021-05-18T08:06:12Z</time>
      </trkpt>
      <trkpt lat="41.7666050" lon="-8.8723970">
        <ele>7.7</ele>
        <time>2021-05-18T08:06:13Z</time>
      </trkpt>
      <trkpt lat="41.7666280" lon="-8.8724020">
        <ele>7.6</ele>
        <time>2021-05-18T08:06:14Z</time>
      </trkpt>
      <trkpt lat="41.7666380" lon="-8.8724090">
        <ele>7.6</ele>
        <time>2021-05-18T08:06:15Z</time>
      </trkpt>
      <trkpt lat="41.7666590" lon="-8.8724070">
        <ele>7.5</ele>
        <time>2021-05-18T08:06:16Z</time>
      </trkpt>
      <trkpt lat="41.7666720" lon="-8.8724080">
        <ele>7.5</ele>
        <time>2021-05-18T08:06:17Z</time>
      </trkpt>
      <trkpt lat="41.7666870" lon="-8.8724040">
        <ele>7.4</ele>
        <time>2021-05-18T08:06:18Z</time>
      </trkpt>
      <trkpt lat="41.7667060" lon="-8.8724070">
        <ele>7.4</ele>
        <time>2021-05-18T08:06:19Z</time>
      </trkpt>
      <trkpt lat="41.7667190" lon="-8.8724080">
        <ele>7.4</ele>
        <time>2021-05-18T08:06:20Z</time>
      </trkpt>
      <trkpt lat="41.7667410" lon="-8.8724160">
        <ele>7.3</ele>
        <time>2021-05-18T08:06:21Z</time>
      </trkpt>
      <trkpt lat="41.7667480" lon="-8.8724200">
        <ele>7.3</ele>
        <time>2021-05-18T08:06:22Z</time>
      </trkpt>
      <trkpt lat="41.7667660" lon="-8.8724300">
        <ele>7.2</ele>
        <time>2021-05-18T08:06:23Z</time>
      </trkpt>
      <trkpt lat="41.7667770" lon="-8.8724350">
        <ele>7.2</ele>
        <time>2021-05-18T08:06:24Z</time>
      </trkpt>
      <trkpt lat="41.7667890" lon="-8.8724400">
        <ele>7.2</ele>
        <time>2021-05-18T08:06:25Z</time>
      </trkpt>
      <trkpt lat="41.7668020" lon="-8.8724510">
        <ele>7.1</ele>
        <time>2021-05-18T08:06:26Z</time>
      </trkpt>
      <trkpt lat="41.7668170" lon="-8.8724610">
        <ele>7.1</ele>
        <time>2021-05-18T08:06:27Z</time>
      </trkpt>
      <trkpt lat="41.7668270" lon="-8.8724660">
        <ele>7.1</ele>
        <time>2021-05-18T08:06:28Z</time>
      </trkpt>
      <trkpt lat="41.7668350" lon="-8.8724710">
        <ele>7.1</ele>
        <time>2021-05-18T08:06:29Z</time>
      </trkpt>
      <trkpt lat="41.7668460" lon="-8.8724760">
        <ele>7.0</ele>
        <time>2021-05-18T08:06:30Z</time>
      </trkpt>
      <trkpt lat="41.7668510" lon="-8.8724780">
        <ele>7.0</ele>
        <time>2021-05-18T08:06:31Z</time>
      </trkpt>
      <trkpt lat="41.7668660" lon="-8.8724850">
        <ele>7.0</ele>
        <time>2021-05-18T08:06:32Z</time>
      </trkpt>
      <trkpt lat="41.7668770" lon="-8.8724860">
        <ele>7.0</ele>
        <time>2021-05-18T08:06:33Z</time>
      </trkpt>
      <trkpt lat="41.7668820" lon="-8.8724920">
        <ele>7.0</ele>
        <time>2021-05-18T08:06:34Z</time>
      </trkpt>
      <trkpt lat="41.7668860" lon="-8.8724970">
        <ele>7.0</ele>
        <time>2021-05-18T08:06:35Z</time>
      </trkpt>
      <trkpt lat="41.7668900" lon="-8.8724940">
        <ele>6.9</ele>
        <time>2021-05-18T08:06:36Z</time>
      </trkpt>
      <trkpt lat="41.7668920" lon="-8.8724970">
        <ele>6.9</ele>
        <time>2021-05-18T08:06:37Z</time>
      </trkpt>
      <trkpt lat="41.7669030" lon="-8.8724970">
        <ele>6.9</ele>
        <time>2021-05-18T08:06:38Z</time>
      </trkpt>
      <trkpt lat="41.7669050" lon="-8.8724960">
        <ele>6.9</ele>
        <time>2021-05-18T08:06:39Z</time>
      </trkpt>
      <trkpt lat="41.7669030" lon="-8.8724950">
        <ele>6.9</ele>
        <time>2021-05-18T08:06:40Z</time>
      </trkpt>
      <trkpt lat="41.7669060" lon="-8.8724960">
        <ele>6.9</ele>
        <time>2021-05-18T08:06:41Z</time>
      </trkpt>
      <trkpt lat="41.7669090" lon="-8.8724970">
        <ele>6.9</ele>
        <time>2021-05-18T08:06:42Z</time>
      </trkpt>
      <trkpt lat="41.7669130" lon="-8.8725040">
        <ele>6.9</ele>
        <time>2021-05-18T08:06:43Z</time>
      </trkpt>
      <trkpt lat="41.7669210" lon="-8.8725280">
        <ele>6.8</ele>
        <time>2021-05-18T08:06:44Z</time>
      </trkpt>
      <trkpt lat="41.7669180" lon="-8.8725320">
        <ele>6.8</ele>
        <time>2021-05-18T08:06:45Z</time>
      </trkpt>
      <trkpt lat="41.7669200" lon="-8.8725330">
        <ele>6.8</ele>
        <time>2021-05-18T08:06:46Z</time>
      </trkpt>
      <trkpt lat="41.7669220" lon="-8.8725330">
        <ele>6.8</ele>
        <time>2021-05-18T08:06:47Z</time>
      </trkpt>
      <trkpt lat="41.7669290" lon="-8.8725370">
        <ele>6.8</ele>
        <time>2021-05-18T08:06:48Z</time>
      </trkpt>
      <trkpt lat="41.7669370" lon="-8.8725260">
        <ele>6.8</ele>
        <time>2021-05-18T08:06:49Z</time>
      </trkpt>
      <trkpt lat="41.7669500" lon="-8.8725230">
        <ele>6.8</ele>
        <time>2021-05-18T08:06:50Z</time>
      </trkpt>
      <trkpt lat="41.7669550" lon="-8.8725220">
        <ele>6.7</ele>
        <time>2021-05-18T08:06:51Z</time>
      </trkpt>
      <trkpt lat="41.7669740" lon="-8.8725170">
        <ele>6.7</ele>
        <time>2021-05-18T08:06:52Z</time>
      </trkpt>
      <trkpt lat="41.7669810" lon="-8.8725140">
        <ele>6.7</ele>
        <time>2021-05-18T08:06:53Z</time>
      </trkpt>
      <trkpt lat="41.7669960" lon="-8.8724940">
        <ele>6.6</ele>
        <time>2021-05-18T08:06:54Z</time>
      </trkpt>
      <trkpt lat="41.7670060" lon="-8.8724830">
        <ele>6.6</ele>
        <time>2021-05-18T08:06:55Z</time>
      </trkpt>
      <trkpt lat="41.7670120" lon="-8.8724690">
        <ele>6.6</ele>
        <time>2021-05-18T08:06:56Z</time>
      </trkpt>
      <trkpt lat="41.7670250" lon="-8.8724610">
        <ele>6.6</ele>
        <time>2021-05-18T08:06:57Z</time>
      </trkpt>
      <trkpt lat="41.7670340" lon="-8.8724540">
        <ele>6.5</ele>
        <time>2021-05-18T08:06:58Z</time>
      </trkpt>
      <trkpt lat="41.7670440" lon="-8.8724450">
        <ele>6.5</ele>
        <time>2021-05-18T08:06:59Z</time>
      </trkpt>
      <trkpt lat="41.7670550" lon="-8.8724340">
        <ele>6.5</ele>
        <time>2021-05-18T08:07:00Z</time>
      </trkpt>
      <trkpt lat="41.7670550" lon="-8.8724240">
        <ele>6.5</ele>
        <time>2021-05-18T08:07:01Z</time>
      </trkpt>
      <trkpt lat="41.7670620" lon="-8.8724140">
        <ele>6.5</ele>
        <time>2021-05-18T08:07:02Z</time>
      </trkpt>
      <trkpt lat="41.7670690" lon="-8.8724020">
        <ele>6.4</ele>
        <time>2021-05-18T08:07:03Z</time>
      </trkpt>
      <trkpt lat="41.7670770" lon="-8.8723950">
        <ele>6.4</ele>
        <time>2021-05-18T08:07:04Z</time>
      </trkpt>
      <trkpt lat="41.7670870" lon="-8.8723900">
        <ele>6.4</ele>
        <time>2021-05-18T08:07:05Z</time>
      </trkpt>
      <trkpt lat="41.7670980" lon="-8.8723840">
        <ele>6.4</ele>
        <time>2021-05-18T08:07:06Z</time>
      </trkpt>
      <trkpt lat="41.7670990" lon="-8.8723780">
        <ele>6.4</ele>
        <time>2021-05-18T08:07:07Z</time>
      </trkpt>
      <trkpt lat="41.7671000" lon="-8.8723750">
        <ele>6.4</ele>
        <time>2021-05-18T08:07:08Z</time>
      </trkpt>
      <trkpt lat="41.7671020" lon="-8.8723700">
        <ele>6.4</ele>
        <time>2021-05-18T08:07:09Z</time>
      </trkpt>
      <trkpt lat="41.7670980" lon="-8.8723710">
        <ele>6.4</ele>
        <time>2021-05-18T08:07:10Z</time>
      </trkpt>
      <trkpt lat="41.7671050" lon="-8.8723630">
        <ele>6.4</ele>
        <time>2021-05-18T08:07:11Z</time>
      </trkpt>
      <trkpt lat="41.7671080" lon="-8.8723580">
        <ele>6.3</ele>
        <time>2021-05-18T08:07:12Z</time>
      </trkpt>
      <trkpt lat="41.7671100" lon="-8.8723540">
        <ele>6.3</ele>
        <time>2021-05-18T08:07:13Z</time>
      </trkpt>
      <trkpt lat="41.7671100" lon="-8.8723480">
        <ele>6.3</ele>
        <time>2021-05-18T08:07:14Z</time>
      </trkpt>
      <trkpt lat="41.7671150" lon="-8.8723350">
        <ele>6.3</ele>
        <time>2021-05-18T08:07:15Z</time>
      </trkpt>
      <trkpt lat="41.7671180" lon="-8.8723330">
        <ele>6.3</ele>
        <time>2021-05-18T08:07:16Z</time>
      </trkpt>
      <trkpt lat="41.7671230" lon="-8.8723300">
        <ele>6.3</ele>
        <time>2021-05-18T08:07:17Z</time>
      </trkpt>
      <trkpt lat="41.7671280" lon="-8.8723160">
        <ele>6.3</ele>
        <time>2021-05-18T08:07:18Z</time>
      </trkpt>
      <trkpt lat="41.7671330" lon="-8.8723030">
        <ele>6.3</ele>
        <time>2021-05-18T08:07:19Z</time>
      </trkpt>
      <trkpt lat="41.7671460" lon="-8.8722870">
        <ele>6.3</ele>
        <time>2021-05-18T08:07:20Z</time>
      </trkpt>
      <trkpt lat="41.7671610" lon="-8.8722820">
        <ele>6.3</ele>
        <time>2021-05-18T08:07:21Z</time>
      </trkpt>
      <trkpt lat="41.7671690" lon="-8.8722680">
        <ele>6.3</ele>
        <time>2021-05-18T08:07:22Z</time>
      </trkpt>
      <trkpt lat="41.7671800" lon="-8.8722520">
        <ele>6.3</ele>
        <time>2021-05-18T08:07:23Z</time>
      </trkpt>
      <trkpt lat="41.7671850" lon="-8.8722350">
        <ele>6.2</ele>
        <time>2021-05-18T08:07:24Z</time>
      </trkpt>
      <trkpt lat="41.7671880" lon="-8.8722140">
        <ele>6.2</ele>
        <time>2021-05-18T08:07:25Z</time>
      </trkpt>
      <trkpt lat="41.7671940" lon="-8.8722000">
        <ele>6.2</ele>
        <time>2021-05-18T08:07:26Z</time>
      </trkpt>
      <trkpt lat="41.7672020" lon="-8.8721890">
        <ele>6.3</ele>
        <time>2021-05-18T08:07:27Z</time>
      </trkpt>
      <trkpt lat="41.7672060" lon="-8.8721740">
        <ele>6.3</ele>
        <time>2021-05-18T08:07:28Z</time>
      </trkpt>
      <trkpt lat="41.7672110" lon="-8.8721560">
        <ele>6.3</ele>
        <time>2021-05-18T08:07:29Z</time>
      </trkpt>
      <trkpt lat="41.7672160" lon="-8.8721460">
        <ele>6.3</ele>
        <time>2021-05-18T08:07:30Z</time>
      </trkpt>
      <trkpt lat="41.7672240" lon="-8.8721360">
        <ele>6.3</ele>
        <time>2021-05-18T08:07:31Z</time>
      </trkpt>
      <trkpt lat="41.7672360" lon="-8.8721170">
        <ele>6.3</ele>
        <time>2021-05-18T08:07:32Z</time>
      </trkpt>
      <trkpt lat="41.7672410" lon="-8.8721070">
        <ele>6.3</ele>
        <time>2021-05-18T08:07:33Z</time>
      </trkpt>
      <trkpt lat="41.7672460" lon="-8.8720960">
        <ele>6.3</ele>
        <time>2021-05-18T08:07:34Z</time>
      </trkpt>
      <trkpt lat="41.7672570" lon="-8.8720590">
        <ele>6.3</ele>
        <time>2021-05-18T08:07:35Z</time>
      </trkpt>
      <trkpt lat="41.7672590" lon="-8.8720480">
        <ele>6.3</ele>
        <time>2021-05-18T08:07:36Z</time>
      </trkpt>
      <trkpt lat="41.7672600" lon="-8.8720070">
        <ele>6.4</ele>
        <time>2021-05-18T08:07:37Z</time>
      </trkpt>
      <trkpt lat="41.7672610" lon="-8.8719960">
        <ele>6.4</ele>
        <time>2021-05-18T08:07:38Z</time>
      </trkpt>
      <trkpt lat="41.7672670" lon="-8.8719630">
        <ele>6.4</ele>
        <time>2021-05-18T08:07:39Z</time>
      </trkpt>
      <trkpt lat="41.7672740" lon="-8.8719480">
        <ele>6.5</ele>
        <time>2021-05-18T08:07:40Z</time>
      </trkpt>
      <trkpt lat="41.7672790" lon="-8.8719280">
        <ele>6.5</ele>
        <time>2021-05-18T08:07:41Z</time>
      </trkpt>
      <trkpt lat="41.7672790" lon="-8.8719090">
        <ele>6.5</ele>
        <time>2021-05-18T08:07:42Z</time>
      </trkpt>
      <trkpt lat="41.7672860" lon="-8.8718710">
        <ele>6.6</ele>
        <time>2021-05-18T08:07:43Z</time>
      </trkpt>
      <trkpt lat="41.7672860" lon="-8.8718600">
        <ele>6.6</ele>
        <time>2021-05-18T08:07:44Z</time>
      </trkpt>
      <trkpt lat="41.7672960" lon="-8.8718460">
        <ele>6.6</ele>
        <time>2021-05-18T08:07:45Z</time>
      </trkpt>
      <trkpt lat="41.7673040" lon="-8.8718250">
        <ele>6.7</ele>
        <time>2021-05-18T08:07:46Z</time>
      </trkpt>
      <trkpt lat="41.7673040" lon="-8.8718120">
        <ele>6.7</ele>
        <time>2021-05-18T08:07:47Z</time>
      </trkpt>
      <trkpt lat="41.7673040" lon="-8.8717830">
        <ele>6.7</ele>
        <time>2021-05-18T08:07:48Z</time>
      </trkpt>
      <trkpt lat="41.7672970" lon="-8.8717630">
        <ele>6.8</ele>
        <time>2021-05-18T08:07:49Z</time>
      </trkpt>
      <trkpt lat="41.7672930" lon="-8.8717420">
        <ele>6.8</ele>
        <time>2021-05-18T08:07:50Z</time>
      </trkpt>
      <trkpt lat="41.7672880" lon="-8.8717170">
        <ele>6.9</ele>
        <time>2021-05-18T08:07:51Z</time>
      </trkpt>
      <trkpt lat="41.7672880" lon="-8.8717000">
        <ele>6.9</ele>
        <time>2021-05-18T08:07:52Z</time>
      </trkpt>
      <trkpt lat="41.7672910" lon="-8.8716790">
        <ele>7.0</ele>
        <time>2021-05-18T08:07:53Z</time>
      </trkpt>
      <trkpt lat="41.7672900" lon="-8.8716560">
        <ele>7.0</ele>
        <time>2021-05-18T08:07:54Z</time>
      </trkpt>
      <trkpt lat="41.7672960" lon="-8.8716170">
        <ele>7.1</ele>
        <time>2021-05-18T08:07:55Z</time>
      </trkpt>
      <trkpt lat="41.7672980" lon="-8.8716040">
        <ele>7.1</ele>
        <time>2021-05-18T08:07:56Z</time>
      </trkpt>
      <trkpt lat="41.7673010" lon="-8.8715710">
        <ele>7.2</ele>
        <time>2021-05-18T08:07:57Z</time>
      </trkpt>
      <trkpt lat="41.7673030" lon="-8.8715590">
        <ele>7.2</ele>
        <time>2021-05-18T08:07:58Z</time>
      </trkpt>
      <trkpt lat="41.7673040" lon="-8.8715470">
        <ele>7.3</ele>
        <time>2021-05-18T08:07:59Z</time>
      </trkpt>
      <trkpt lat="41.7673050" lon="-8.8715250">
        <ele>7.3</ele>
        <time>2021-05-18T08:08:00Z</time>
      </trkpt>
      <trkpt lat="41.7673100" lon="-8.8715100">
        <ele>7.4</ele>
        <time>2021-05-18T08:08:01Z</time>
      </trkpt>
      <trkpt lat="41.7673140" lon="-8.8714920">
        <ele>7.4</ele>
        <time>2021-05-18T08:08:02Z</time>
      </trkpt>
      <trkpt lat="41.7673170" lon="-8.8714740">
        <ele>7.5</ele>
        <time>2021-05-18T08:08:03Z</time>
      </trkpt>
      <trkpt lat="41.7673180" lon="-8.8714570">
        <ele>7.5</ele>
        <time>2021-05-18T08:08:04Z</time>
      </trkpt>
      <trkpt lat="41.7673220" lon="-8.8714350">
        <ele>7.6</ele>
        <time>2021-05-18T08:08:05Z</time>
      </trkpt>
      <trkpt lat="41.7673280" lon="-8.8714170">
        <ele>7.6</ele>
        <time>2021-05-18T08:08:06Z</time>
      </trkpt>
      <trkpt lat="41.7673310" lon="-8.8713960">
        <ele>7.7</ele>
        <time>2021-05-18T08:08:07Z</time>
      </trkpt>
      <trkpt lat="41.7673450" lon="-8.8713830">
        <ele>7.7</ele>
        <time>2021-05-18T08:08:08Z</time>
      </trkpt>
      <trkpt lat="41.7673520" lon="-8.8713720">
        <ele>7.8</ele>
        <time>2021-05-18T08:08:09Z</time>
      </trkpt>
      <trkpt lat="41.7673570" lon="-8.8713550">
        <ele>7.8</ele>
        <time>2021-05-18T08:08:10Z</time>
      </trkpt>
      <trkpt lat="41.7673690" lon="-8.8713300">
        <ele>7.9</ele>
        <time>2021-05-18T08:08:11Z</time>
      </trkpt>
      <trkpt lat="41.7673700" lon="-8.8713070">
        <ele>8.0</ele>
        <time>2021-05-18T08:08:12Z</time>
      </trkpt>
      <trkpt lat="41.7673720" lon="-8.8712940">
        <ele>8.0</ele>
        <time>2021-05-18T08:08:13Z</time>
      </trkpt>
      <trkpt lat="41.7673740" lon="-8.8712820">
        <ele>8.0</ele>
        <time>2021-05-18T08:08:14Z</time>
      </trkpt>
      <trkpt lat="41.7673680" lon="-8.8712710">
        <ele>8.1</ele>
        <time>2021-05-18T08:08:15Z</time>
      </trkpt>
      <trkpt lat="41.7673670" lon="-8.8712590">
        <ele>8.1</ele>
        <time>2021-05-18T08:08:16Z</time>
      </trkpt>
      <trkpt lat="41.7673610" lon="-8.8712430">
        <ele>8.1</ele>
        <time>2021-05-18T08:08:17Z</time>
      </trkpt>
      <trkpt lat="41.7673660" lon="-8.8712150">
        <ele>8.2</ele>
        <time>2021-05-18T08:08:18Z</time>
      </trkpt>
      <trkpt lat="41.7673710" lon="-8.8711970">
        <ele>8.3</ele>
        <time>2021-05-18T08:08:19Z</time>
      </trkpt>
      <trkpt lat="41.7673660" lon="-8.8711670">
        <ele>8.3</ele>
        <time>2021-05-18T08:08:20Z</time>
      </trkpt>
      <trkpt lat="41.7673680" lon="-8.8711570">
        <ele>8.4</ele>
        <time>2021-05-18T08:08:21Z</time>
      </trkpt>
      <trkpt lat="41.7673690" lon="-8.8711460">
        <ele>8.4</ele>
        <time>2021-05-18T08:08:22Z</time>
      </trkpt>
      <trkpt lat="41.7673660" lon="-8.8711290">
        <ele>8.4</ele>
        <time>2021-05-18T08:08:23Z</time>
      </trkpt>
      <trkpt lat="41.7673690" lon="-8.8711050">
        <ele>8.5</ele>
        <time>2021-05-18T08:08:24Z</time>
      </trkpt>
      <trkpt lat="41.7673720" lon="-8.8710850">
        <ele>8.6</ele>
        <time>2021-05-18T08:08:25Z</time>
      </trkpt>
      <trkpt lat="41.7673790" lon="-8.8710670">
        <ele>8.6</ele>
        <time>2021-05-18T08:08:26Z</time>
      </trkpt>
      <trkpt lat="41.7673770" lon="-8.8710460">
        <ele>8.7</ele>
        <time>2021-05-18T08:08:27Z</time>
      </trkpt>
      <trkpt lat="41.7673790" lon="-8.8710280">
        <ele>8.7</ele>
        <time>2021-05-18T08:08:28Z</time>
      </trkpt>
      <trkpt lat="41.7673830" lon="-8.8710080">
        <ele>8.8</ele>
        <time>2021-05-18T08:08:29Z</time>
      </trkpt>
      <trkpt lat="41.7673900" lon="-8.8709860">
        <ele>8.8</ele>
        <time>2021-05-18T08:08:30Z</time>
      </trkpt>
      <trkpt lat="41.7673960" lon="-8.8709660">
        <ele>8.9</ele>
        <time>2021-05-18T08:08:31Z</time>
      </trkpt>
      <trkpt lat="41.7674020" lon="-8.8709460">
        <ele>8.9</ele>
        <time>2021-05-18T08:08:32Z</time>
      </trkpt>
      <trkpt lat="41.7674120" lon="-8.8709150">
        <ele>9.0</ele>
        <time>2021-05-18T08:08:33Z</time>
      </trkpt>
      <trkpt lat="41.7674160" lon="-8.8709010">
        <ele>9.0</ele>
        <time>2021-05-18T08:08:34Z</time>
      </trkpt>
      <trkpt lat="41.7674280" lon="-8.8708660">
        <ele>9.1</ele>
        <time>2021-05-18T08:08:35Z</time>
      </trkpt>
      <trkpt lat="41.7674300" lon="-8.8708510">
        <ele>9.1</ele>
        <time>2021-05-18T08:08:36Z</time>
      </trkpt>
      <trkpt lat="41.7674510" lon="-8.8708240">
        <ele>9.2</ele>
        <time>2021-05-18T08:08:37Z</time>
      </trkpt>
      <trkpt lat="41.7674560" lon="-8.8708140">
        <ele>9.2</ele>
        <time>2021-05-18T08:08:38Z</time>
      </trkpt>
      <trkpt lat="41.7674630" lon="-8.8707940">
        <ele>9.2</ele>
        <time>2021-05-18T08:08:39Z</time>
      </trkpt>
      <trkpt lat="41.7674670" lon="-8.8707790">
        <ele>9.3</ele>
        <time>2021-05-18T08:08:40Z</time>
      </trkpt>
      <trkpt lat="41.7674740" lon="-8.8707620">
        <ele>9.3</ele>
        <time>2021-05-18T08:08:41Z</time>
      </trkpt>
      <trkpt lat="41.7674810" lon="-8.8707400">
        <ele>9.3</ele>
        <time>2021-05-18T08:08:42Z</time>
      </trkpt>
      <trkpt lat="41.7675020" lon="-8.8707120">
        <ele>9.4</ele>
        <time>2021-05-18T08:08:43Z</time>
      </trkpt>
      <trkpt lat="41.7675120" lon="-8.8707000">
        <ele>9.4</ele>
        <time>2021-05-18T08:08:44Z</time>
      </trkpt>
      <trkpt lat="41.7675290" lon="-8.8706840">
        <ele>9.5</ele>
        <time>2021-05-18T08:08:45Z</time>
      </trkpt>
      <trkpt lat="41.7675370" lon="-8.8706780">
        <ele>9.5</ele>
        <time>2021-05-18T08:08:46Z</time>
      </trkpt>
      <trkpt lat="41.7675460" lon="-8.8706730">
        <ele>9.5</ele>
        <time>2021-05-18T08:08:47Z</time>
      </trkpt>
      <trkpt lat="41.7675570" lon="-8.8706590">
        <ele>9.5</ele>
        <time>2021-05-18T08:08:48Z</time>
      </trkpt>
      <trkpt lat="41.7675720" lon="-8.8706630">
        <ele>9.6</ele>
        <time>2021-05-18T08:08:49Z</time>
      </trkpt>
      <trkpt lat="41.7675910" lon="-8.8706440">
        <ele>9.6</ele>
        <time>2021-05-18T08:08:50Z</time>
      </trkpt>
      <trkpt lat="41.7675970" lon="-8.8706360">
        <ele>9.6</ele>
        <time>2021-05-18T08:08:51Z</time>
      </trkpt>
      <trkpt lat="41.7676040" lon="-8.8706280">
        <ele>9.6</ele>
        <time>2021-05-18T08:08:52Z</time>
      </trkpt>
      <trkpt lat="41.7676320" lon="-8.8706110">
        <ele>9.7</ele>
        <time>2021-05-18T08:08:53Z</time>
      </trkpt>
      <trkpt lat="41.7676380" lon="-8.8706050">
        <ele>9.7</ele>
        <time>2021-05-18T08:08:54Z</time>
      </trkpt>
      <trkpt lat="41.7676520" lon="-8.8705970">
        <ele>9.7</ele>
        <time>2021-05-18T08:08:55Z</time>
      </trkpt>
      <trkpt lat="41.7676650" lon="-8.8705880">
        <ele>9.8</ele>
        <time>2021-05-18T08:08:56Z</time>
      </trkpt>
      <trkpt lat="41.7676810" lon="-8.8705840">
        <ele>9.8</ele>
        <time>2021-05-18T08:08:57Z</time>
      </trkpt>
      <trkpt lat="41.7676920" lon="-8.8705680">
        <ele>9.8</ele>
        <time>2021-05-18T08:08:58Z</time>
      </trkpt>
      <trkpt lat="41.7677080" lon="-8.8705590">
        <ele>9.9</ele>
        <time>2021-05-18T08:08:59Z</time>
      </trkpt>
      <trkpt lat="41.7677250" lon="-8.8705540">
        <ele>9.9</ele>
        <time>2021-05-18T08:09:00Z</time>
      </trkpt>
      <trkpt lat="41.7677400" lon="-8.8705420">
        <ele>9.9</ele>
        <time>2021-05-18T08:09:01Z</time>
      </trkpt>
      <trkpt lat="41.7677510" lon="-8.8705290">
        <ele>10.0</ele>
        <time>2021-05-18T08:09:02Z</time>
      </trkpt>
      <trkpt lat="41.7677650" lon="-8.8705190">
        <ele>10.0</ele>
        <time>2021-05-18T08:09:03Z</time>
      </trkpt>
      <trkpt lat="41.7677960" lon="-8.8704990">
        <ele>10.1</ele>
        <time>2021-05-18T08:09:04Z</time>
      </trkpt>
      <trkpt lat="41.7678110" lon="-8.8704890">
        <ele>10.1</ele>
        <time>2021-05-18T08:09:05Z</time>
      </trkpt>
      <trkpt lat="41.7678270" lon="-8.8704890">
        <ele>10.1</ele>
        <time>2021-05-18T08:09:06Z</time>
      </trkpt>
      <trkpt lat="41.7678420" lon="-8.8704810">
        <ele>10.1</ele>
        <time>2021-05-18T08:09:07Z</time>
      </trkpt>
      <trkpt lat="41.7678570" lon="-8.8704770">
        <ele>10.2</ele>
        <time>2021-05-18T08:09:08Z</time>
      </trkpt>
      <trkpt lat="41.7678700" lon="-8.8704670">
        <ele>10.2</ele>
        <time>2021-05-18T08:09:09Z</time>
      </trkpt>
      <trkpt lat="41.7678820" lon="-8.8704540">
        <ele>10.2</ele>
        <time>2021-05-18T08:09:10Z</time>
      </trkpt>
      <trkpt lat="41.7678970" lon="-8.8704430">
        <ele>10.3</ele>
        <time>2021-05-18T08:09:11Z</time>
      </trkpt>
      <trkpt lat="41.7679100" lon="-8.8704340">
        <ele>10.3</ele>
        <time>2021-05-18T08:09:12Z</time>
      </trkpt>
      <trkpt lat="41.7679240" lon="-8.8704180">
        <ele>10.3</ele>
        <time>2021-05-18T08:09:13Z</time>
      </trkpt>
      <trkpt lat="41.7679380" lon="-8.8704090">
        <ele>10.3</ele>
        <time>2021-05-18T08:09:14Z</time>
      </trkpt>
      <trkpt lat="41.7679540" lon="-8.8704100">
        <ele>10.3</ele>
        <time>2021-05-18T08:09:15Z</time>
      </trkpt>
      <trkpt lat="41.7679670" lon="-8.8704110">
        <ele>10.4</ele>
        <time>2021-05-18T08:09:16Z</time>
      </trkpt>
      <trkpt lat="41.7679820" lon="-8.8704110">
        <ele>10.4</ele>
        <time>2021-05-18T08:09:17Z</time>
      </trkpt>
      <trkpt lat="41.7679990" lon="-8.8704100">
        <ele>10.4</ele>
        <time>2021-05-18T08:09:18Z</time>
      </trkpt>
      <trkpt lat="41.7680140" lon="-8.8704210">
        <ele>10.4</ele>
        <time>2021-05-18T08:09:19Z</time>
      </trkpt>
      <trkpt lat="41.7680290" lon="-8.8704260">
        <ele>10.4</ele>
        <time>2021-05-18T08:09:20Z</time>
      </trkpt>
      <trkpt lat="41.7680440" lon="-8.8704300">
        <ele>10.4</ele>
        <time>2021-05-18T08:09:21Z</time>
      </trkpt>
      <trkpt lat="41.7680570" lon="-8.8704500">
        <ele>10.5</ele>
        <time>2021-05-18T08:09:22Z</time>
      </trkpt>
      <trkpt lat="41.7680690" lon="-8.8704530">
        <ele>10.5</ele>
        <time>2021-05-18T08:09:24Z</time>
      </trkpt>
      <trkpt lat="41.7680830" lon="-8.8704560">
        <ele>10.5</ele>
        <time>2021-05-18T08:09:25Z</time>
      </trkpt>
      <trkpt lat="41.7680970" lon="-8.8704620">
        <ele>10.5</ele>
        <time>2021-05-18T08:09:26Z</time>
      </trkpt>
      <trkpt lat="41.7681150" lon="-8.8704660">
        <ele>10.5</ele>
        <time>2021-05-18T08:09:27Z</time>
      </trkpt>
      <trkpt lat="41.7681300" lon="-8.8704700">
        <ele>10.5</ele>
        <time>2021-05-18T08:09:28Z</time>
      </trkpt>
      <trkpt lat="41.7681470" lon="-8.8704660">
        <ele>10.6</ele>
        <time>2021-05-18T08:09:29Z</time>
      </trkpt>
      <trkpt lat="41.7681630" lon="-8.8704630">
        <ele>10.6</ele>
        <time>2021-05-18T08:09:30Z</time>
      </trkpt>
      <trkpt lat="41.7681780" lon="-8.8704600">
        <ele>10.6</ele>
        <time>2021-05-18T08:09:31Z</time>
      </trkpt>
      <trkpt lat="41.7681940" lon="-8.8704590">
        <ele>10.6</ele>
        <time>2021-05-18T08:09:32Z</time>
      </trkpt>
      <trkpt lat="41.7682080" lon="-8.8704540">
        <ele>10.6</ele>
        <time>2021-05-18T08:09:33Z</time>
      </trkpt>
      <trkpt lat="41.7682220" lon="-8.8704480">
        <ele>10.6</ele>
        <time>2021-05-18T08:09:34Z</time>
      </trkpt>
      <trkpt lat="41.7682380" lon="-8.8704500">
        <ele>10.6</ele>
        <time>2021-05-18T08:09:35Z</time>
      </trkpt>
      <trkpt lat="41.7682510" lon="-8.8704390">
        <ele>10.6</ele>
        <time>2021-05-18T08:09:36Z</time>
      </trkpt>
      <trkpt lat="41.7682660" lon="-8.8704320">
        <ele>10.6</ele>
        <time>2021-05-18T08:09:37Z</time>
      </trkpt>
      <trkpt lat="41.7682810" lon="-8.8704260">
        <ele>10.7</ele>
        <time>2021-05-18T08:09:38Z</time>
      </trkpt>
      <trkpt lat="41.7682960" lon="-8.8704270">
        <ele>10.7</ele>
        <time>2021-05-18T08:09:39Z</time>
      </trkpt>
      <trkpt lat="41.7683110" lon="-8.8704210">
        <ele>10.7</ele>
        <time>2021-05-18T08:09:40Z</time>
      </trkpt>
      <trkpt lat="41.7683270" lon="-8.8704140">
        <ele>10.7</ele>
        <time>2021-05-18T08:09:41Z</time>
      </trkpt>
      <trkpt lat="41.7683380" lon="-8.8704100">
        <ele>10.7</ele>
        <time>2021-05-18T08:09:42Z</time>
      </trkpt>
      <trkpt lat="41.7683520" lon="-8.8704030">
        <ele>10.7</ele>
        <time>2021-05-18T08:09:43Z</time>
      </trkpt>
      <trkpt lat="41.7683680" lon="-8.8704040">
        <ele>10.7</ele>
        <time>2021-05-18T08:09:44Z</time>
      </trkpt>
      <trkpt lat="41.7683830" lon="-8.8703990">
        <ele>10.7</ele>
        <time>2021-05-18T08:09:45Z</time>
      </trkpt>
      <trkpt lat="41.7683990" lon="-8.8703970">
        <ele>10.7</ele>
        <time>2021-05-18T08:09:46Z</time>
      </trkpt>
      <trkpt lat="41.7684210" lon="-8.8703910">
        <ele>10.7</ele>
        <time>2021-05-18T08:09:47Z</time>
      </trkpt>
      <trkpt lat="41.7684300" lon="-8.8703890">
        <ele>10.7</ele>
        <time>2021-05-18T08:09:48Z</time>
      </trkpt>
      <trkpt lat="41.7684400" lon="-8.8703880">
        <ele>10.7</ele>
        <time>2021-05-18T08:09:49Z</time>
      </trkpt>
      <trkpt lat="41.7684560" lon="-8.8703850">
        <ele>10.7</ele>
        <time>2021-05-18T08:09:50Z</time>
      </trkpt>
      <trkpt lat="41.7684680" lon="-8.8703850">
        <ele>10.7</ele>
        <time>2021-05-18T08:09:51Z</time>
      </trkpt>
      <trkpt lat="41.7684820" lon="-8.8703750">
        <ele>10.7</ele>
        <time>2021-05-18T08:09:52Z</time>
      </trkpt>
      <trkpt lat="41.7684950" lon="-8.8703670">
        <ele>10.7</ele>
        <time>2021-05-18T08:09:53Z</time>
      </trkpt>
      <trkpt lat="41.7685100" lon="-8.8703680">
        <ele>10.7</ele>
        <time>2021-05-18T08:09:54Z</time>
      </trkpt>
      <trkpt lat="41.7685250" lon="-8.8703770">
        <ele>10.7</ele>
        <time>2021-05-18T08:09:55Z</time>
      </trkpt>
      <trkpt lat="41.7685420" lon="-8.8703720">
        <ele>10.7</ele>
        <time>2021-05-18T08:09:56Z</time>
      </trkpt>
      <trkpt lat="41.7685560" lon="-8.8703680">
        <ele>10.7</ele>
        <time>2021-05-18T08:09:57Z</time>
      </trkpt>
      <trkpt lat="41.7685700" lon="-8.8703550">
        <ele>10.7</ele>
        <time>2021-05-18T08:09:58Z</time>
      </trkpt>
      <trkpt lat="41.7685840" lon="-8.8703520">
        <ele>10.7</ele>
        <time>2021-05-18T08:09:59Z</time>
      </trkpt>
      <trkpt lat="41.7685990" lon="-8.8703500">
        <ele>10.7</ele>
        <time>2021-05-18T08:10:00Z</time>
      </trkpt>
      <trkpt lat="41.7686150" lon="-8.8703490">
        <ele>10.7</ele>
        <time>2021-05-18T08:10:01Z</time>
      </trkpt>
      <trkpt lat="41.7686300" lon="-8.8703400">
        <ele>10.7</ele>
        <time>2021-05-18T08:10:02Z</time>
      </trkpt>
      <trkpt lat="41.7686470" lon="-8.8703400">
        <ele>10.7</ele>
        <time>2021-05-18T08:10:03Z</time>
      </trkpt>
      <trkpt lat="41.7686620" lon="-8.8703360">
        <ele>10.7</ele>
        <time>2021-05-18T08:10:04Z</time>
      </trkpt>
      <trkpt lat="41.7686760" lon="-8.8703400">
        <ele>10.7</ele>
        <time>2021-05-18T08:10:05Z</time>
      </trkpt>
      <trkpt lat="41.7686900" lon="-8.8703340">
        <ele>10.7</ele>
        <time>2021-05-18T08:10:06Z</time>
      </trkpt>
      <trkpt lat="41.7687040" lon="-8.8703300">
        <ele>10.7</ele>
        <time>2021-05-18T08:10:07Z</time>
      </trkpt>
      <trkpt lat="41.7687180" lon="-8.8703210">
        <ele>10.7</ele>
        <time>2021-05-18T08:10:08Z</time>
      </trkpt>
      <trkpt lat="41.7687350" lon="-8.8703200">
        <ele>10.7</ele>
        <time>2021-05-18T08:10:09Z</time>
      </trkpt>
      <trkpt lat="41.7687470" lon="-8.8703160">
        <ele>10.7</ele>
        <time>2021-05-18T08:10:10Z</time>
      </trkpt>
      <trkpt lat="41.7687620" lon="-8.8703090">
        <ele>10.7</ele>
        <time>2021-05-18T08:10:11Z</time>
      </trkpt>
      <trkpt lat="41.7687840" lon="-8.8703060">
        <ele>10.7</ele>
        <time>2021-05-18T08:10:12Z</time>
      </trkpt>
      <trkpt lat="41.7687940" lon="-8.8703020">
        <ele>10.7</ele>
        <time>2021-05-18T08:10:13Z</time>
      </trkpt>
      <trkpt lat="41.7688030" lon="-8.8702990">
        <ele>10.7</ele>
        <time>2021-05-18T08:10:14Z</time>
      </trkpt>
      <trkpt lat="41.7688250" lon="-8.8702910">
        <ele>10.7</ele>
        <time>2021-05-18T08:10:15Z</time>
      </trkpt>
      <trkpt lat="41.7688320" lon="-8.8702870">
        <ele>10.7</ele>
        <time>2021-05-18T08:10:16Z</time>
      </trkpt>
      <trkpt lat="41.7688400" lon="-8.8702820">
        <ele>10.7</ele>
        <time>2021-05-18T08:10:17Z</time>
      </trkpt>
      <trkpt lat="41.7688530" lon="-8.8702810">
        <ele>10.7</ele>
        <time>2021-05-18T08:10:18Z</time>
      </trkpt>
      <trkpt lat="41.7688660" lon="-8.8702710">
        <ele>10.7</ele>
        <time>2021-05-18T08:10:19Z</time>
      </trkpt>
      <trkpt lat="41.7688820" lon="-8.8702710">
        <ele>10.7</ele>
        <time>2021-05-18T08:10:20Z</time>
      </trkpt>
      <trkpt lat="41.7688970" lon="-8.8702700">
        <ele>10.7</ele>
        <time>2021-05-18T08:10:21Z</time>
      </trkpt>
      <trkpt lat="41.7689110" lon="-8.8702650">
        <ele>10.8</ele>
        <time>2021-05-18T08:10:22Z</time>
      </trkpt>
      <trkpt lat="41.7689260" lon="-8.8702690">
        <ele>10.8</ele>
        <time>2021-05-18T08:10:23Z</time>
      </trkpt>
      <trkpt lat="41.7689420" lon="-8.8702650">
        <ele>10.8</ele>
        <time>2021-05-18T08:10:24Z</time>
      </trkpt>
      <trkpt lat="41.7689590" lon="-8.8702620">
        <ele>10.8</ele>
        <time>2021-05-18T08:10:25Z</time>
      </trkpt>
      <trkpt lat="41.7689760" lon="-8.8702600">
        <ele>10.8</ele>
        <time>2021-05-18T08:10:26Z</time>
      </trkpt>
      <trkpt lat="41.7689910" lon="-8.8702590">
        <ele>10.8</ele>
        <time>2021-05-18T08:10:27Z</time>
      </trkpt>
      <trkpt lat="41.7690040" lon="-8.8702520">
        <ele>10.8</ele>
        <time>2021-05-18T08:10:28Z</time>
      </trkpt>
      <trkpt lat="41.7690200" lon="-8.8702620">
        <ele>10.8</ele>
        <time>2021-05-18T08:10:29Z</time>
      </trkpt>
      <trkpt lat="41.7690350" lon="-8.8702510">
        <ele>10.8</ele>
        <time>2021-05-18T08:10:30Z</time>
      </trkpt>
      <trkpt lat="41.7690500" lon="-8.8702450">
        <ele>10.8</ele>
        <time>2021-05-18T08:10:31Z</time>
      </trkpt>
      <trkpt lat="41.7690640" lon="-8.8702400">
        <ele>10.8</ele>
        <time>2021-05-18T08:10:32Z</time>
      </trkpt>
      <trkpt lat="41.7690790" lon="-8.8702340">
        <ele>10.8</ele>
        <time>2021-05-18T08:10:33Z</time>
      </trkpt>
      <trkpt lat="41.7690930" lon="-8.8702300">
        <ele>10.8</ele>
        <time>2021-05-18T08:10:34Z</time>
      </trkpt>
      <trkpt lat="41.7691110" lon="-8.8702280">
        <ele>10.8</ele>
        <time>2021-05-18T08:10:35Z</time>
      </trkpt>
      <trkpt lat="41.7691310" lon="-8.8702200">
        <ele>10.7</ele>
        <time>2021-05-18T08:10:36Z</time>
      </trkpt>
      <trkpt lat="41.7691400" lon="-8.8702200">
        <ele>10.7</ele>
        <time>2021-05-18T08:10:37Z</time>
      </trkpt>
      <trkpt lat="41.7691490" lon="-8.8702200">
        <ele>10.7</ele>
        <time>2021-05-18T08:10:38Z</time>
      </trkpt>
      <trkpt lat="41.7691630" lon="-8.8702150">
        <ele>10.7</ele>
        <time>2021-05-18T08:10:39Z</time>
      </trkpt>
      <trkpt lat="41.7691800" lon="-8.8702160">
        <ele>10.7</ele>
        <time>2021-05-18T08:10:40Z</time>
      </trkpt>
      <trkpt lat="41.7691950" lon="-8.8702140">
        <ele>10.7</ele>
        <time>2021-05-18T08:10:41Z</time>
      </trkpt>
      <trkpt lat="41.7692100" lon="-8.8702060">
        <ele>10.7</ele>
        <time>2021-05-18T08:10:42Z</time>
      </trkpt>
      <trkpt lat="41.7692280" lon="-8.8702030">
        <ele>10.7</ele>
        <time>2021-05-18T08:10:43Z</time>
      </trkpt>
      <trkpt lat="41.7692430" lon="-8.8701980">
        <ele>10.7</ele>
        <time>2021-05-18T08:10:44Z</time>
      </trkpt>
      <trkpt lat="41.7692570" lon="-8.8701930">
        <ele>10.7</ele>
        <time>2021-05-18T08:10:45Z</time>
      </trkpt>
      <trkpt lat="41.7692730" lon="-8.8701920">
        <ele>10.7</ele>
        <time>2021-05-18T08:10:46Z</time>
      </trkpt>
      <trkpt lat="41.7692860" lon="-8.8701810">
        <ele>10.7</ele>
        <time>2021-05-18T08:10:47Z</time>
      </trkpt>
      <trkpt lat="41.7692990" lon="-8.8701770">
        <ele>10.7</ele>
        <time>2021-05-18T08:10:48Z</time>
      </trkpt>
      <trkpt lat="41.7693120" lon="-8.8701770">
        <ele>10.7</ele>
        <time>2021-05-18T08:10:49Z</time>
      </trkpt>
      <trkpt lat="41.7693270" lon="-8.8701770">
        <ele>10.7</ele>
        <time>2021-05-18T08:10:50Z</time>
      </trkpt>
      <trkpt lat="41.7693420" lon="-8.8701690">
        <ele>10.7</ele>
        <time>2021-05-18T08:10:51Z</time>
      </trkpt>
      <trkpt lat="41.7693580" lon="-8.8701660">
        <ele>10.7</ele>
        <time>2021-05-18T08:10:52Z</time>
      </trkpt>
      <trkpt lat="41.7693810" lon="-8.8701590">
        <ele>10.7</ele>
        <time>2021-05-18T08:10:53Z</time>
      </trkpt>
      <trkpt lat="41.7693900" lon="-8.8701540">
        <ele>10.7</ele>
        <time>2021-05-18T08:10:54Z</time>
      </trkpt>
      <trkpt lat="41.7693990" lon="-8.8701500">
        <ele>10.7</ele>
        <time>2021-05-18T08:10:55Z</time>
      </trkpt>
      <trkpt lat="41.7694150" lon="-8.8701510">
        <ele>10.6</ele>
        <time>2021-05-18T08:10:56Z</time>
      </trkpt>
      <trkpt lat="41.7694290" lon="-8.8701460">
        <ele>10.6</ele>
        <time>2021-05-18T08:10:57Z</time>
      </trkpt>
      <trkpt lat="41.7694500" lon="-8.8701450">
        <ele>10.6</ele>
        <time>2021-05-18T08:10:58Z</time>
      </trkpt>
      <trkpt lat="41.7694590" lon="-8.8701450">
        <ele>10.6</ele>
        <time>2021-05-18T08:10:59Z</time>
      </trkpt>
      <trkpt lat="41.7694670" lon="-8.8701460">
        <ele>10.6</ele>
        <time>2021-05-18T08:11:00Z</time>
      </trkpt>
      <trkpt lat="41.7694780" lon="-8.8701470">
        <ele>10.6</ele>
        <time>2021-05-18T08:11:01Z</time>
      </trkpt>
      <trkpt lat="41.7694940" lon="-8.8701450">
        <ele>10.6</ele>
        <time>2021-05-18T08:11:02Z</time>
      </trkpt>
      <trkpt lat="41.7695090" lon="-8.8701370">
        <ele>10.6</ele>
        <time>2021-05-18T08:11:03Z</time>
      </trkpt>
      <trkpt lat="41.7695240" lon="-8.8701410">
        <ele>10.6</ele>
        <time>2021-05-18T08:11:04Z</time>
      </trkpt>
      <trkpt lat="41.7695350" lon="-8.8701430">
        <ele>10.6</ele>
        <time>2021-05-18T08:11:05Z</time>
      </trkpt>
      <trkpt lat="41.7695460" lon="-8.8701450">
        <ele>10.6</ele>
        <time>2021-05-18T08:11:06Z</time>
      </trkpt>
      <trkpt lat="41.7695580" lon="-8.8701510">
        <ele>10.5</ele>
        <time>2021-05-18T08:11:07Z</time>
      </trkpt>
      <trkpt lat="41.7695790" lon="-8.8701510">
        <ele>10.5</ele>
        <time>2021-05-18T08:11:08Z</time>
      </trkpt>
      <trkpt lat="41.7695890" lon="-8.8701530">
        <ele>10.5</ele>
        <time>2021-05-18T08:11:09Z</time>
      </trkpt>
      <trkpt lat="41.7695980" lon="-8.8701540">
        <ele>10.5</ele>
        <time>2021-05-18T08:11:10Z</time>
      </trkpt>
      <trkpt lat="41.7696120" lon="-8.8701500">
        <ele>10.5</ele>
        <time>2021-05-18T08:11:11Z</time>
      </trkpt>
      <trkpt lat="41.7696260" lon="-8.8701550">
        <ele>10.5</ele>
        <time>2021-05-18T08:11:12Z</time>
      </trkpt>
      <trkpt lat="41.7696390" lon="-8.8701570">
        <ele>10.5</ele>
        <time>2021-05-18T08:11:13Z</time>
      </trkpt>
      <trkpt lat="41.7696530" lon="-8.8701630">
        <ele>10.5</ele>
        <time>2021-05-18T08:11:14Z</time>
      </trkpt>
      <trkpt lat="41.7696720" lon="-8.8701690">
        <ele>10.5</ele>
        <time>2021-05-18T08:11:15Z</time>
      </trkpt>
      <trkpt lat="41.7696810" lon="-8.8701690">
        <ele>10.5</ele>
        <time>2021-05-18T08:11:16Z</time>
      </trkpt>
      <trkpt lat="41.7696900" lon="-8.8701690">
        <ele>10.5</ele>
        <time>2021-05-18T08:11:17Z</time>
      </trkpt>
      <trkpt lat="41.7697050" lon="-8.8701710">
        <ele>10.5</ele>
        <time>2021-05-18T08:11:18Z</time>
      </trkpt>
      <trkpt lat="41.7697180" lon="-8.8701760">
        <ele>10.5</ele>
        <time>2021-05-18T08:11:19Z</time>
      </trkpt>
      <trkpt lat="41.7697320" lon="-8.8701790">
        <ele>10.5</ele>
        <time>2021-05-18T08:11:20Z</time>
      </trkpt>
      <trkpt lat="41.7697460" lon="-8.8701840">
        <ele>10.5</ele>
        <time>2021-05-18T08:11:21Z</time>
      </trkpt>
      <trkpt lat="41.7697590" lon="-8.8701940">
        <ele>10.4</ele>
        <time>2021-05-18T08:11:22Z</time>
      </trkpt>
      <trkpt lat="41.7697720" lon="-8.8701950">
        <ele>10.4</ele>
        <time>2021-05-18T08:11:23Z</time>
      </trkpt>
      <trkpt lat="41.7697870" lon="-8.8701980">
        <ele>10.4</ele>
        <time>2021-05-18T08:11:24Z</time>
      </trkpt>
      <trkpt lat="41.7698000" lon="-8.8702010">
        <ele>10.4</ele>
        <time>2021-05-18T08:11:25Z</time>
      </trkpt>
      <trkpt lat="41.7698210" lon="-8.8702030">
        <ele>10.4</ele>
        <time>2021-05-18T08:11:26Z</time>
      </trkpt>
      <trkpt lat="41.7698310" lon="-8.8702060">
        <ele>10.4</ele>
        <time>2021-05-18T08:11:27Z</time>
      </trkpt>
      <trkpt lat="41.7698400" lon="-8.8702090">
        <ele>10.4</ele>
        <time>2021-05-18T08:11:28Z</time>
      </trkpt>
      <trkpt lat="41.7698560" lon="-8.8702040">
        <ele>10.4</ele>
        <time>2021-05-18T08:11:29Z</time>
      </trkpt>
      <trkpt lat="41.7698680" lon="-8.8702040">
        <ele>10.4</ele>
        <time>2021-05-18T08:11:30Z</time>
      </trkpt>
      <trkpt lat="41.7698820" lon="-8.8702090">
        <ele>10.3</ele>
        <time>2021-05-18T08:11:31Z</time>
      </trkpt>
      <trkpt lat="41.7698930" lon="-8.8702190">
        <ele>10.3</ele>
        <time>2021-05-18T08:11:32Z</time>
      </trkpt>
      <trkpt lat="41.7699070" lon="-8.8702240">
        <ele>10.3</ele>
        <time>2021-05-18T08:11:33Z</time>
      </trkpt>
      <trkpt lat="41.7699240" lon="-8.8702240">
        <ele>10.3</ele>
        <time>2021-05-18T08:11:34Z</time>
      </trkpt>
      <trkpt lat="41.7699360" lon="-8.8702290">
        <ele>10.3</ele>
        <time>2021-05-18T08:11:35Z</time>
      </trkpt>
      <trkpt lat="41.7699500" lon="-8.8702310">
        <ele>10.3</ele>
        <time>2021-05-18T08:11:36Z</time>
      </trkpt>
      <trkpt lat="41.7699700" lon="-8.8702370">
        <ele>10.3</ele>
        <time>2021-05-18T08:11:37Z</time>
      </trkpt>
      <trkpt lat="41.7699790" lon="-8.8702410">
        <ele>10.2</ele>
        <time>2021-05-18T08:11:38Z</time>
      </trkpt>
      <trkpt lat="41.7699870" lon="-8.8702440">
        <ele>10.2</ele>
        <time>2021-05-18T08:11:39Z</time>
      </trkpt>
      <trkpt lat="41.7700000" lon="-8.8702490">
        <ele>10.2</ele>
        <time>2021-05-18T08:11:40Z</time>
      </trkpt>
      <trkpt lat="41.7700030" lon="-8.8702490">
        <ele>10.2</ele>
        <time>2021-05-18T08:11:41Z</time>
      </trkpt>
      <trkpt lat="41.7700040" lon="-8.8702510">
        <ele>10.2</ele>
        <time>2021-05-18T08:11:42Z</time>
      </trkpt>
      <trkpt lat="41.7699960" lon="-8.8702530">
        <ele>10.2</ele>
        <time>2021-05-18T08:11:43Z</time>
      </trkpt>
      <trkpt lat="41.7700080" lon="-8.8702530">
        <ele>10.2</ele>
        <time>2021-05-18T08:11:44Z</time>
      </trkpt>
      <trkpt lat="41.7700160" lon="-8.8702620">
        <ele>10.2</ele>
        <time>2021-05-18T08:11:45Z</time>
      </trkpt>
      <trkpt lat="41.7700300" lon="-8.8702680">
        <ele>10.2</ele>
        <time>2021-05-18T08:11:46Z</time>
      </trkpt>
      <trkpt lat="41.7700370" lon="-8.8702700">
        <ele>10.2</ele>
        <time>2021-05-18T08:11:47Z</time>
      </trkpt>
      <trkpt lat="41.7700440" lon="-8.8702740">
        <ele>10.2</ele>
        <time>2021-05-18T08:11:48Z</time>
      </trkpt>
      <trkpt lat="41.7700620" lon="-8.8702750">
        <ele>10.1</ele>
        <time>2021-05-18T08:11:49Z</time>
      </trkpt>
      <trkpt lat="41.7700710" lon="-8.8702740">
        <ele>10.1</ele>
        <time>2021-05-18T08:11:50Z</time>
      </trkpt>
      <trkpt lat="41.7700930" lon="-8.8702740">
        <ele>10.1</ele>
        <time>2021-05-18T08:11:51Z</time>
      </trkpt>
      <trkpt lat="41.7701020" lon="-8.8702740">
        <ele>10.1</ele>
        <time>2021-05-18T08:11:52Z</time>
      </trkpt>
      <trkpt lat="41.7701120" lon="-8.8702730">
        <ele>10.1</ele>
        <time>2021-05-18T08:11:53Z</time>
      </trkpt>
      <trkpt lat="41.7701240" lon="-8.8702680">
        <ele>10.1</ele>
        <time>2021-05-18T08:11:54Z</time>
      </trkpt>
      <trkpt lat="41.7701420" lon="-8.8702630">
        <ele>10.0</ele>
        <time>2021-05-18T08:11:55Z</time>
      </trkpt>
      <trkpt lat="41.7701590" lon="-8.8702620">
        <ele>10.0</ele>
        <time>2021-05-18T08:11:56Z</time>
      </trkpt>
      <trkpt lat="41.7701750" lon="-8.8702610">
        <ele>10.0</ele>
        <time>2021-05-18T08:11:57Z</time>
      </trkpt>
      <trkpt lat="41.7701940" lon="-8.8702610">
        <ele>10.0</ele>
        <time>2021-05-18T08:11:58Z</time>
      </trkpt>
      <trkpt lat="41.7702090" lon="-8.8702610">
        <ele>9.9</ele>
        <time>2021-05-18T08:11:59Z</time>
      </trkpt>
      <trkpt lat="41.7702250" lon="-8.8702580">
        <ele>9.9</ele>
        <time>2021-05-18T08:12:00Z</time>
      </trkpt>
      <trkpt lat="41.7702430" lon="-8.8702470">
        <ele>9.9</ele>
        <time>2021-05-18T08:12:01Z</time>
      </trkpt>
      <trkpt lat="41.7702590" lon="-8.8702390">
        <ele>9.9</ele>
        <time>2021-05-18T08:12:02Z</time>
      </trkpt>
      <trkpt lat="41.7702760" lon="-8.8702340">
        <ele>9.8</ele>
        <time>2021-05-18T08:12:03Z</time>
      </trkpt>
      <trkpt lat="41.7702880" lon="-8.8702250">
        <ele>9.8</ele>
        <time>2021-05-18T08:12:04Z</time>
      </trkpt>
      <trkpt lat="41.7703050" lon="-8.8702190">
        <ele>9.8</ele>
        <time>2021-05-18T08:12:05Z</time>
      </trkpt>
      <trkpt lat="41.7703220" lon="-8.8702130">
        <ele>9.8</ele>
        <time>2021-05-18T08:12:06Z</time>
      </trkpt>
      <trkpt lat="41.7703360" lon="-8.8702020">
        <ele>9.7</ele>
        <time>2021-05-18T08:12:07Z</time>
      </trkpt>
      <trkpt lat="41.7703590" lon="-8.8701970">
        <ele>9.7</ele>
        <time>2021-05-18T08:12:08Z</time>
      </trkpt>
      <trkpt lat="41.7703680" lon="-8.8701960">
        <ele>9.7</ele>
        <time>2021-05-18T08:12:09Z</time>
      </trkpt>
      <trkpt lat="41.7703780" lon="-8.8701940">
        <ele>9.7</ele>
        <time>2021-05-18T08:12:10Z</time>
      </trkpt>
      <trkpt lat="41.7703910" lon="-8.8701880">
        <ele>9.7</ele>
        <time>2021-05-18T08:12:11Z</time>
      </trkpt>
      <trkpt lat="41.7704060" lon="-8.8701810">
        <ele>9.7</ele>
        <time>2021-05-18T08:12:12Z</time>
      </trkpt>
      <trkpt lat="41.7704260" lon="-8.8701730">
        <ele>9.6</ele>
        <time>2021-05-18T08:12:13Z</time>
      </trkpt>
      <trkpt lat="41.7704340" lon="-8.8701720">
        <ele>9.6</ele>
        <time>2021-05-18T08:12:14Z</time>
      </trkpt>
      <trkpt lat="41.7704420" lon="-8.8701710">
        <ele>9.6</ele>
        <time>2021-05-18T08:12:15Z</time>
      </trkpt>
      <trkpt lat="41.7704510" lon="-8.8701650">
        <ele>9.6</ele>
        <time>2021-05-18T08:12:16Z</time>
      </trkpt>
      <trkpt lat="41.7704650" lon="-8.8701620">
        <ele>9.6</ele>
        <time>2021-05-18T08:12:17Z</time>
      </trkpt>
      <trkpt lat="41.7704730" lon="-8.8701560">
        <ele>9.6</ele>
        <time>2021-05-18T08:12:18Z</time>
      </trkpt>
      <trkpt lat="41.7704830" lon="-8.8701510">
        <ele>9.6</ele>
        <time>2021-05-18T08:12:19Z</time>
      </trkpt>
      <trkpt lat="41.7704910" lon="-8.8701500">
        <ele>9.6</ele>
        <time>2021-05-18T08:12:20Z</time>
      </trkpt>
      <trkpt lat="41.7705020" lon="-8.8701460">
        <ele>9.6</ele>
        <time>2021-05-18T08:12:21Z</time>
      </trkpt>
      <trkpt lat="41.7705130" lon="-8.8701370">
        <ele>9.5</ele>
        <time>2021-05-18T08:12:22Z</time>
      </trkpt>
      <trkpt lat="41.7705250" lon="-8.8701300">
        <ele>9.5</ele>
        <time>2021-05-18T08:12:23Z</time>
      </trkpt>
      <trkpt lat="41.7705330" lon="-8.8701210">
        <ele>9.5</ele>
        <time>2021-05-18T08:12:24Z</time>
      </trkpt>
      <trkpt lat="41.7705360" lon="-8.8701120">
        <ele>9.5</ele>
        <time>2021-05-18T08:12:25Z</time>
      </trkpt>
      <trkpt lat="41.7705430" lon="-8.8701050">
        <ele>9.5</ele>
        <time>2021-05-18T08:12:26Z</time>
      </trkpt>
      <trkpt lat="41.7705560" lon="-8.8700950">
        <ele>9.5</ele>
        <time>2021-05-18T08:12:27Z</time>
      </trkpt>
      <trkpt lat="41.7705590" lon="-8.8700990">
        <ele>9.5</ele>
        <time>2021-05-18T08:12:28Z</time>
      </trkpt>
      <trkpt lat="41.7705670" lon="-8.8700980">
        <ele>9.5</ele>
        <time>2021-05-18T08:12:29Z</time>
      </trkpt>
      <trkpt lat="41.7705780" lon="-8.8700900">
        <ele>9.5</ele>
        <time>2021-05-18T08:12:30Z</time>
      </trkpt>
      <trkpt lat="41.7705900" lon="-8.8700850">
        <ele>9.5</ele>
        <time>2021-05-18T08:12:31Z</time>
      </trkpt>
      <trkpt lat="41.7706020" lon="-8.8700720">
        <ele>9.4</ele>
        <time>2021-05-18T08:12:32Z</time>
      </trkpt>
      <trkpt lat="41.7706080" lon="-8.8700650">
        <ele>9.4</ele>
        <time>2021-05-18T08:12:33Z</time>
      </trkpt>
      <trkpt lat="41.7706200" lon="-8.8700600">
        <ele>9.4</ele>
        <time>2021-05-18T08:12:34Z</time>
      </trkpt>
      <trkpt lat="41.7706380" lon="-8.8700530">
        <ele>9.4</ele>
        <time>2021-05-18T08:12:35Z</time>
      </trkpt>
      <trkpt lat="41.7706420" lon="-8.8700470">
        <ele>9.4</ele>
        <time>2021-05-18T08:12:36Z</time>
      </trkpt>
      <trkpt lat="41.7706540" lon="-8.8700420">
        <ele>9.4</ele>
        <time>2021-05-18T08:12:37Z</time>
      </trkpt>
      <trkpt lat="41.7706640" lon="-8.8700360">
        <ele>9.4</ele>
        <time>2021-05-18T08:12:38Z</time>
      </trkpt>
      <trkpt lat="41.7706700" lon="-8.8700250">
        <ele>9.4</ele>
        <time>2021-05-18T08:12:39Z</time>
      </trkpt>
      <trkpt lat="41.7706760" lon="-8.8700180">
        <ele>9.4</ele>
        <time>2021-05-18T08:12:40Z</time>
      </trkpt>
      <trkpt lat="41.7706900" lon="-8.8700110">
        <ele>9.3</ele>
        <time>2021-05-18T08:12:41Z</time>
      </trkpt>
      <trkpt lat="41.7707060" lon="-8.8700090">
        <ele>9.3</ele>
        <time>2021-05-18T08:12:42Z</time>
      </trkpt>
      <trkpt lat="41.7707160" lon="-8.8700010">
        <ele>9.3</ele>
        <time>2021-05-18T08:12:43Z</time>
      </trkpt>
      <trkpt lat="41.7707260" lon="-8.8699900">
        <ele>9.3</ele>
        <time>2021-05-18T08:12:44Z</time>
      </trkpt>
      <trkpt lat="41.7707320" lon="-8.8699800">
        <ele>9.3</ele>
        <time>2021-05-18T08:12:45Z</time>
      </trkpt>
      <trkpt lat="41.7707410" lon="-8.8699690">
        <ele>9.3</ele>
        <time>2021-05-18T08:12:46Z</time>
      </trkpt>
      <trkpt lat="41.7707650" lon="-8.8699600">
        <ele>9.3</ele>
        <time>2021-05-18T08:12:47Z</time>
      </trkpt>
      <trkpt lat="41.7707830" lon="-8.8699480">
        <ele>9.2</ele>
        <time>2021-05-18T08:12:48Z</time>
      </trkpt>
      <trkpt lat="41.7707940" lon="-8.8699440">
        <ele>9.2</ele>
        <time>2021-05-18T08:12:49Z</time>
      </trkpt>
      <trkpt lat="41.7708060" lon="-8.8699400">
        <ele>9.2</ele>
        <time>2021-05-18T08:12:50Z</time>
      </trkpt>
      <trkpt lat="41.7708180" lon="-8.8699250">
        <ele>9.2</ele>
        <time>2021-05-18T08:12:51Z</time>
      </trkpt>
      <trkpt lat="41.7708260" lon="-8.8699120">
        <ele>9.2</ele>
        <time>2021-05-18T08:12:52Z</time>
      </trkpt>
      <trkpt lat="41.7708520" lon="-8.8699040">
        <ele>9.2</ele>
        <time>2021-05-18T08:12:53Z</time>
      </trkpt>
      <trkpt lat="41.7708610" lon="-8.8698990">
        <ele>9.2</ele>
        <time>2021-05-18T08:12:54Z</time>
      </trkpt>
      <trkpt lat="41.7708750" lon="-8.8698880">
        <ele>9.2</ele>
        <time>2021-05-18T08:12:55Z</time>
      </trkpt>
      <trkpt lat="41.7708890" lon="-8.8698790">
        <ele>9.1</ele>
        <time>2021-05-18T08:12:56Z</time>
      </trkpt>
      <trkpt lat="41.7709000" lon="-8.8698690">
        <ele>9.1</ele>
        <time>2021-05-18T08:12:57Z</time>
      </trkpt>
      <trkpt lat="41.7709160" lon="-8.8698600">
        <ele>9.1</ele>
        <time>2021-05-18T08:12:58Z</time>
      </trkpt>
      <trkpt lat="41.7709300" lon="-8.8698550">
        <ele>9.1</ele>
        <time>2021-05-18T08:12:59Z</time>
      </trkpt>
      <trkpt lat="41.7709450" lon="-8.8698450">
        <ele>9.1</ele>
        <time>2021-05-18T08:13:00Z</time>
      </trkpt>
      <trkpt lat="41.7709490" lon="-8.8698430">
        <ele>9.1</ele>
        <time>2021-05-18T08:13:01Z</time>
      </trkpt>
      <trkpt lat="41.7709570" lon="-8.8698360">
        <ele>9.1</ele>
        <time>2021-05-18T08:13:02Z</time>
      </trkpt>
      <trkpt lat="41.7709650" lon="-8.8698300">
        <ele>9.1</ele>
        <time>2021-05-18T08:13:03Z</time>
      </trkpt>
      <trkpt lat="41.7709690" lon="-8.8698260">
        <ele>9.1</ele>
        <time>2021-05-18T08:13:04Z</time>
      </trkpt>
      <trkpt lat="41.7709760" lon="-8.8698220">
        <ele>9.1</ele>
        <time>2021-05-18T08:13:05Z</time>
      </trkpt>
      <trkpt lat="41.7709950" lon="-8.8697970">
        <ele>9.1</ele>
        <time>2021-05-18T08:13:06Z</time>
      </trkpt>
      <trkpt lat="41.7710080" lon="-8.8697940">
        <ele>9.1</ele>
        <time>2021-05-18T08:13:07Z</time>
      </trkpt>
      <trkpt lat="41.7710150" lon="-8.8697810">
        <ele>9.1</ele>
        <time>2021-05-18T08:13:08Z</time>
      </trkpt>
      <trkpt lat="41.7710230" lon="-8.8697750">
        <ele>9.1</ele>
        <time>2021-05-18T08:13:09Z</time>
      </trkpt>
      <trkpt lat="41.7710420" lon="-8.8697630">
        <ele>9.1</ele>
        <time>2021-05-18T08:13:10Z</time>
      </trkpt>
      <trkpt lat="41.7710500" lon="-8.8697570">
        <ele>9.1</ele>
        <time>2021-05-18T08:13:11Z</time>
      </trkpt>
      <trkpt lat="41.7710580" lon="-8.8697500">
        <ele>9.1</ele>
        <time>2021-05-18T08:13:12Z</time>
      </trkpt>
      <trkpt lat="41.7710720" lon="-8.8697380">
        <ele>9.0</ele>
        <time>2021-05-18T08:13:13Z</time>
      </trkpt>
      <trkpt lat="41.7710850" lon="-8.8697260">
        <ele>9.0</ele>
        <time>2021-05-18T08:13:14Z</time>
      </trkpt>
      <trkpt lat="41.7711000" lon="-8.8697150">
        <ele>9.0</ele>
        <time>2021-05-18T08:13:15Z</time>
      </trkpt>
      <trkpt lat="41.7711150" lon="-8.8697090">
        <ele>9.0</ele>
        <time>2021-05-18T08:13:16Z</time>
      </trkpt>
      <trkpt lat="41.7711210" lon="-8.8697030">
        <ele>9.0</ele>
        <time>2021-05-18T08:13:17Z</time>
      </trkpt>
      <trkpt lat="41.7711310" lon="-8.8696960">
        <ele>9.0</ele>
        <time>2021-05-18T08:13:18Z</time>
      </trkpt>
      <trkpt lat="41.7711410" lon="-8.8696920">
        <ele>9.0</ele>
        <time>2021-05-18T08:13:19Z</time>
      </trkpt>
      <trkpt lat="41.7711540" lon="-8.8696810">
        <ele>9.0</ele>
        <time>2021-05-18T08:13:20Z</time>
      </trkpt>
      <trkpt lat="41.7711670" lon="-8.8696750">
        <ele>9.0</ele>
        <time>2021-05-18T08:13:21Z</time>
      </trkpt>
      <trkpt lat="41.7711990" lon="-8.8696650">
        <ele>9.0</ele>
        <time>2021-05-18T08:13:22Z</time>
      </trkpt>
      <trkpt lat="41.7712100" lon="-8.8696620">
        <ele>9.0</ele>
        <time>2021-05-18T08:13:23Z</time>
      </trkpt>
      <trkpt lat="41.7712400" lon="-8.8696430">
        <ele>9.0</ele>
        <time>2021-05-18T08:13:24Z</time>
      </trkpt>
      <trkpt lat="41.7712510" lon="-8.8696340">
        <ele>9.0</ele>
        <time>2021-05-18T08:13:25Z</time>
      </trkpt>
      <trkpt lat="41.7712840" lon="-8.8696240">
        <ele>9.0</ele>
        <time>2021-05-18T08:13:26Z</time>
      </trkpt>
      <trkpt lat="41.7712920" lon="-8.8696220">
        <ele>9.0</ele>
        <time>2021-05-18T08:13:27Z</time>
      </trkpt>
      <trkpt lat="41.7713070" lon="-8.8696130">
        <ele>9.0</ele>
        <time>2021-05-18T08:13:28Z</time>
      </trkpt>
      <trkpt lat="41.7713210" lon="-8.8696070">
        <ele>8.9</ele>
        <time>2021-05-18T08:13:29Z</time>
      </trkpt>
      <trkpt lat="41.7713310" lon="-8.8695930">
        <ele>8.9</ele>
        <time>2021-05-18T08:13:30Z</time>
      </trkpt>
      <trkpt lat="41.7713470" lon="-8.8695900">
        <ele>8.9</ele>
        <time>2021-05-18T08:13:31Z</time>
      </trkpt>
      <trkpt lat="41.7713740" lon="-8.8695820">
        <ele>8.9</ele>
        <time>2021-05-18T08:13:32Z</time>
      </trkpt>
      <trkpt lat="41.7713830" lon="-8.8695780">
        <ele>8.9</ele>
        <time>2021-05-18T08:13:33Z</time>
      </trkpt>
      <trkpt lat="41.7713920" lon="-8.8695740">
        <ele>8.9</ele>
        <time>2021-05-18T08:13:34Z</time>
      </trkpt>
      <trkpt lat="41.7714050" lon="-8.8695670">
        <ele>8.9</ele>
        <time>2021-05-18T08:13:35Z</time>
      </trkpt>
      <trkpt lat="41.7714200" lon="-8.8695570">
        <ele>9.0</ele>
        <time>2021-05-18T08:13:36Z</time>
      </trkpt>
      <trkpt lat="41.7714410" lon="-8.8695450">
        <ele>9.0</ele>
        <time>2021-05-18T08:13:37Z</time>
      </trkpt>
      <trkpt lat="41.7714510" lon="-8.8695390">
        <ele>9.0</ele>
        <time>2021-05-18T08:13:38Z</time>
      </trkpt>
      <trkpt lat="41.7714610" lon="-8.8695330">
        <ele>9.0</ele>
        <time>2021-05-18T08:13:39Z</time>
      </trkpt>
      <trkpt lat="41.7714800" lon="-8.8695200">
        <ele>9.0</ele>
        <time>2021-05-18T08:13:40Z</time>
      </trkpt>
      <trkpt lat="41.7714900" lon="-8.8695170">
        <ele>9.0</ele>
        <time>2021-05-18T08:13:41Z</time>
      </trkpt>
      <trkpt lat="41.7714990" lon="-8.8695140">
        <ele>9.0</ele>
        <time>2021-05-18T08:13:42Z</time>
      </trkpt>
      <trkpt lat="41.7715140" lon="-8.8695060">
        <ele>9.0</ele>
        <time>2021-05-18T08:13:43Z</time>
      </trkpt>
      <trkpt lat="41.7715240" lon="-8.8695000">
        <ele>9.0</ele>
        <time>2021-05-18T08:13:44Z</time>
      </trkpt>
      <trkpt lat="41.7715390" lon="-8.8694930">
        <ele>9.0</ele>
        <time>2021-05-18T08:13:45Z</time>
      </trkpt>
      <trkpt lat="41.7715510" lon="-8.8694940">
        <ele>9.1</ele>
        <time>2021-05-18T08:13:46Z</time>
      </trkpt>
      <trkpt lat="41.7715530" lon="-8.8694890">
        <ele>9.1</ele>
        <time>2021-05-18T08:13:47Z</time>
      </trkpt>
      <trkpt lat="41.7715600" lon="-8.8694850">
        <ele>9.1</ele>
        <time>2021-05-18T08:13:48Z</time>
      </trkpt>
      <trkpt lat="41.7715740" lon="-8.8694760">
        <ele>9.1</ele>
        <time>2021-05-18T08:13:49Z</time>
      </trkpt>
      <trkpt lat="41.7715780" lon="-8.8694700">
        <ele>9.1</ele>
        <time>2021-05-18T08:13:50Z</time>
      </trkpt>
      <trkpt lat="41.7715810" lon="-8.8694680">
        <ele>9.1</ele>
        <time>2021-05-18T08:13:51Z</time>
      </trkpt>
      <trkpt lat="41.7715820" lon="-8.8694690">
        <ele>9.1</ele>
        <time>2021-05-18T08:13:52Z</time>
      </trkpt>
      <trkpt lat="41.7715910" lon="-8.8694630">
        <ele>9.1</ele>
        <time>2021-05-18T08:13:53Z</time>
      </trkpt>
      <trkpt lat="41.7715980" lon="-8.8694430">
        <ele>9.1</ele>
        <time>2021-05-18T08:13:54Z</time>
      </trkpt>
      <trkpt lat="41.7716020" lon="-8.8694300">
        <ele>9.1</ele>
        <time>2021-05-18T08:13:55Z</time>
      </trkpt>
      <trkpt lat="41.7716070" lon="-8.8694150">
        <ele>9.1</ele>
        <time>2021-05-18T08:13:56Z</time>
      </trkpt>
      <trkpt lat="41.7716120" lon="-8.8693980">
        <ele>9.1</ele>
        <time>2021-05-18T08:13:57Z</time>
      </trkpt>
      <trkpt lat="41.7716150" lon="-8.8693740">
        <ele>9.1</ele>
        <time>2021-05-18T08:13:58Z</time>
      </trkpt>
      <trkpt lat="41.7716190" lon="-8.8693520">
        <ele>9.1</ele>
        <time>2021-05-18T08:13:59Z</time>
      </trkpt>
      <trkpt lat="41.7716210" lon="-8.8693390">
        <ele>9.1</ele>
        <time>2021-05-18T08:14:00Z</time>
      </trkpt>
      <trkpt lat="41.7716210" lon="-8.8693120">
        <ele>9.1</ele>
        <time>2021-05-18T08:14:01Z</time>
      </trkpt>
      <trkpt lat="41.7716240" lon="-8.8692800">
        <ele>9.1</ele>
        <time>2021-05-18T08:14:02Z</time>
      </trkpt>
      <trkpt lat="41.7716230" lon="-8.8692660">
        <ele>9.1</ele>
        <time>2021-05-18T08:14:03Z</time>
      </trkpt>
      <trkpt lat="41.7716220" lon="-8.8692530">
        <ele>9.1</ele>
        <time>2021-05-18T08:14:04Z</time>
      </trkpt>
      <trkpt lat="41.7716170" lon="-8.8692350">
        <ele>9.1</ele>
        <time>2021-05-18T08:14:05Z</time>
      </trkpt>
      <trkpt lat="41.7716170" lon="-8.8692210">
        <ele>9.1</ele>
        <time>2021-05-18T08:14:06Z</time>
      </trkpt>
      <trkpt lat="41.7716120" lon="-8.8692080">
        <ele>9.2</ele>
        <time>2021-05-18T08:14:07Z</time>
      </trkpt>
      <trkpt lat="41.7716090" lon="-8.8691940">
        <ele>9.2</ele>
        <time>2021-05-18T08:14:08Z</time>
      </trkpt>
      <trkpt lat="41.7716030" lon="-8.8691810">
        <ele>9.2</ele>
        <time>2021-05-18T08:14:09Z</time>
      </trkpt>
      <trkpt lat="41.7716020" lon="-8.8691670">
        <ele>9.2</ele>
        <time>2021-05-18T08:14:10Z</time>
      </trkpt>
      <trkpt lat="41.7716000" lon="-8.8691430">
        <ele>9.2</ele>
        <time>2021-05-18T08:14:11Z</time>
      </trkpt>
      <trkpt lat="41.7715990" lon="-8.8691240">
        <ele>9.2</ele>
        <time>2021-05-18T08:14:12Z</time>
      </trkpt>
      <trkpt lat="41.7715970" lon="-8.8691020">
        <ele>9.2</ele>
        <time>2021-05-18T08:14:13Z</time>
      </trkpt>
      <trkpt lat="41.7715960" lon="-8.8690850">
        <ele>9.2</ele>
        <time>2021-05-18T08:14:14Z</time>
      </trkpt>
      <trkpt lat="41.7715930" lon="-8.8690580">
        <ele>9.2</ele>
        <time>2021-05-18T08:14:15Z</time>
      </trkpt>
      <trkpt lat="41.7715900" lon="-8.8690450">
        <ele>9.2</ele>
        <time>2021-05-18T08:14:16Z</time>
      </trkpt>
      <trkpt lat="41.7715880" lon="-8.8690330">
        <ele>9.2</ele>
        <time>2021-05-18T08:14:17Z</time>
      </trkpt>
      <trkpt lat="41.7715870" lon="-8.8690100">
        <ele>9.2</ele>
        <time>2021-05-18T08:14:18Z</time>
      </trkpt>
      <trkpt lat="41.7715840" lon="-8.8689890">
        <ele>9.2</ele>
        <time>2021-05-18T08:14:19Z</time>
      </trkpt>
      <trkpt lat="41.7715730" lon="-8.8689700">
        <ele>9.3</ele>
        <time>2021-05-18T08:14:20Z</time>
      </trkpt>
      <trkpt lat="41.7715680" lon="-8.8689510">
        <ele>9.3</ele>
        <time>2021-05-18T08:14:21Z</time>
      </trkpt>
      <trkpt lat="41.7715640" lon="-8.8689320">
        <ele>9.3</ele>
        <time>2021-05-18T08:14:22Z</time>
      </trkpt>
      <trkpt lat="41.7715600" lon="-8.8689130">
        <ele>9.3</ele>
        <time>2021-05-18T08:14:23Z</time>
      </trkpt>
      <trkpt lat="41.7715610" lon="-8.8688910">
        <ele>9.3</ele>
        <time>2021-05-18T08:14:24Z</time>
      </trkpt>
      <trkpt lat="41.7715600" lon="-8.8688710">
        <ele>9.3</ele>
        <time>2021-05-18T08:14:25Z</time>
      </trkpt>
      <trkpt lat="41.7715530" lon="-8.8688560">
        <ele>9.3</ele>
        <time>2021-05-18T08:14:26Z</time>
      </trkpt>
      <trkpt lat="41.7715500" lon="-8.8688420">
        <ele>9.3</ele>
        <time>2021-05-18T08:14:27Z</time>
      </trkpt>
      <trkpt lat="41.7715530" lon="-8.8688470">
        <ele>9.3</ele>
        <time>2021-05-18T08:14:28Z</time>
      </trkpt>
      <trkpt lat="41.7715540" lon="-8.8688590">
        <ele>9.4</ele>
        <time>2021-05-18T08:14:29Z</time>
      </trkpt>
      <trkpt lat="41.7715530" lon="-8.8688560">
        <ele>9.4</ele>
        <time>2021-05-18T08:14:30Z</time>
      </trkpt>
      <trkpt lat="41.7715470" lon="-8.8688360">
        <ele>9.4</ele>
        <time>2021-05-18T08:14:31Z</time>
      </trkpt>
      <trkpt lat="41.7715430" lon="-8.8688220">
        <ele>9.4</ele>
        <time>2021-05-18T08:14:32Z</time>
      </trkpt>
      <trkpt lat="41.7715420" lon="-8.8688080">
        <ele>9.4</ele>
        <time>2021-05-18T08:14:33Z</time>
      </trkpt>
      <trkpt lat="41.7715390" lon="-8.8687950">
        <ele>9.4</ele>
        <time>2021-05-18T08:14:34Z</time>
      </trkpt>
      <trkpt lat="41.7715340" lon="-8.8687810">
        <ele>9.4</ele>
        <time>2021-05-18T08:14:35Z</time>
      </trkpt>
      <trkpt lat="41.7715310" lon="-8.8687660">
        <ele>9.4</ele>
        <time>2021-05-18T08:14:36Z</time>
      </trkpt>
      <trkpt lat="41.7715290" lon="-8.8687520">
        <ele>9.4</ele>
        <time>2021-05-18T08:14:37Z</time>
      </trkpt>
      <trkpt lat="41.7715250" lon="-8.8687260">
        <ele>9.5</ele>
        <time>2021-05-18T08:14:38Z</time>
      </trkpt>
      <trkpt lat="41.7715230" lon="-8.8687140">
        <ele>9.5</ele>
        <time>2021-05-18T08:14:39Z</time>
      </trkpt>
      <trkpt lat="41.7715220" lon="-8.8687030">
        <ele>9.5</ele>
        <time>2021-05-18T08:14:40Z</time>
      </trkpt>
      <trkpt lat="41.7715150" lon="-8.8686760">
        <ele>9.5</ele>
        <time>2021-05-18T08:14:41Z</time>
      </trkpt>
      <trkpt lat="41.7715120" lon="-8.8686640">
        <ele>9.5</ele>
        <time>2021-05-18T08:14:42Z</time>
      </trkpt>
      <trkpt lat="41.7715090" lon="-8.8686520">
        <ele>9.5</ele>
        <time>2021-05-18T08:14:43Z</time>
      </trkpt>
      <trkpt lat="41.7715060" lon="-8.8686230">
        <ele>9.6</ele>
        <time>2021-05-18T08:14:44Z</time>
      </trkpt>
      <trkpt lat="41.7715060" lon="-8.8686100">
        <ele>9.6</ele>
        <time>2021-05-18T08:14:45Z</time>
      </trkpt>
      <trkpt lat="41.7715060" lon="-8.8685980">
        <ele>9.6</ele>
        <time>2021-05-18T08:14:46Z</time>
      </trkpt>
      <trkpt lat="41.7715020" lon="-8.8685840">
        <ele>9.6</ele>
        <time>2021-05-18T08:14:47Z</time>
      </trkpt>
      <trkpt lat="41.7714990" lon="-8.8685740">
        <ele>9.6</ele>
        <time>2021-05-18T08:14:48Z</time>
      </trkpt>
      <trkpt lat="41.7714970" lon="-8.8685600">
        <ele>9.6</ele>
        <time>2021-05-18T08:14:49Z</time>
      </trkpt>
      <trkpt lat="41.7714920" lon="-8.8685400">
        <ele>9.6</ele>
        <time>2021-05-18T08:14:50Z</time>
      </trkpt>
      <trkpt lat="41.7714890" lon="-8.8685170">
        <ele>9.7</ele>
        <time>2021-05-18T08:14:51Z</time>
      </trkpt>
      <trkpt lat="41.7714860" lon="-8.8685010">
        <ele>9.7</ele>
        <time>2021-05-18T08:14:52Z</time>
      </trkpt>
      <trkpt lat="41.7714820" lon="-8.8684940">
        <ele>9.7</ele>
        <time>2021-05-18T08:14:53Z</time>
      </trkpt>
      <trkpt lat="41.7714800" lon="-8.8684780">
        <ele>9.7</ele>
        <time>2021-05-18T08:14:54Z</time>
      </trkpt>
      <trkpt lat="41.7714730" lon="-8.8684530">
        <ele>9.7</ele>
        <time>2021-05-18T08:14:55Z</time>
      </trkpt>
      <trkpt lat="41.7714710" lon="-8.8684420">
        <ele>9.7</ele>
        <time>2021-05-18T08:14:56Z</time>
      </trkpt>
      <trkpt lat="41.7714700" lon="-8.8684310">
        <ele>9.7</ele>
        <time>2021-05-18T08:14:57Z</time>
      </trkpt>
      <trkpt lat="41.7714690" lon="-8.8684090">
        <ele>9.8</ele>
        <time>2021-05-18T08:14:58Z</time>
      </trkpt>
      <trkpt lat="41.7714630" lon="-8.8683850">
        <ele>9.8</ele>
        <time>2021-05-18T08:14:59Z</time>
      </trkpt>
      <trkpt lat="41.7714610" lon="-8.8683720">
        <ele>9.8</ele>
        <time>2021-05-18T08:15:00Z</time>
      </trkpt>
      <trkpt lat="41.7714520" lon="-8.8683540">
        <ele>9.8</ele>
        <time>2021-05-18T08:15:01Z</time>
      </trkpt>
      <trkpt lat="41.7714500" lon="-8.8683410">
        <ele>9.8</ele>
        <time>2021-05-18T08:15:02Z</time>
      </trkpt>
      <trkpt lat="41.7714480" lon="-8.8683020">
        <ele>9.9</ele>
        <time>2021-05-18T08:15:03Z</time>
      </trkpt>
      <trkpt lat="41.7714440" lon="-8.8682840">
        <ele>9.9</ele>
        <time>2021-05-18T08:15:04Z</time>
      </trkpt>
      <trkpt lat="41.7714340" lon="-8.8682720">
        <ele>9.9</ele>
        <time>2021-05-18T08:15:05Z</time>
      </trkpt>
      <trkpt lat="41.7714310" lon="-8.8682480">
        <ele>9.9</ele>
        <time>2021-05-18T08:15:06Z</time>
      </trkpt>
      <trkpt lat="41.7714280" lon="-8.8682240">
        <ele>9.9</ele>
        <time>2021-05-18T08:15:07Z</time>
      </trkpt>
      <trkpt lat="41.7714240" lon="-8.8682010">
        <ele>9.9</ele>
        <time>2021-05-18T08:15:08Z</time>
      </trkpt>
      <trkpt lat="41.7714230" lon="-8.8681790">
        <ele>10.0</ele>
        <time>2021-05-18T08:15:09Z</time>
      </trkpt>
      <trkpt lat="41.7714140" lon="-8.8681590">
        <ele>10.0</ele>
        <time>2021-05-18T08:15:10Z</time>
      </trkpt>
      <trkpt lat="41.7714100" lon="-8.8681390">
        <ele>10.0</ele>
        <time>2021-05-18T08:15:11Z</time>
      </trkpt>
      <trkpt lat="41.7714060" lon="-8.8681190">
        <ele>10.0</ele>
        <time>2021-05-18T08:15:12Z</time>
      </trkpt>
      <trkpt lat="41.7714030" lon="-8.8681000">
        <ele>10.0</ele>
        <time>2021-05-18T08:15:13Z</time>
      </trkpt>
      <trkpt lat="41.7714020" lon="-8.8680800">
        <ele>10.0</ele>
        <time>2021-05-18T08:15:14Z</time>
      </trkpt>
      <trkpt lat="41.7713990" lon="-8.8680600">
        <ele>10.1</ele>
        <time>2021-05-18T08:15:15Z</time>
      </trkpt>
      <trkpt lat="41.7713950" lon="-8.8680410">
        <ele>10.1</ele>
        <time>2021-05-18T08:15:16Z</time>
      </trkpt>
      <trkpt lat="41.7713960" lon="-8.8680220">
        <ele>10.1</ele>
        <time>2021-05-18T08:15:17Z</time>
      </trkpt>
      <trkpt lat="41.7713930" lon="-8.8680000">
        <ele>10.1</ele>
        <time>2021-05-18T08:15:18Z</time>
      </trkpt>
      <trkpt lat="41.7713930" lon="-8.8679780">
        <ele>10.1</ele>
        <time>2021-05-18T08:15:19Z</time>
      </trkpt>
      <trkpt lat="41.7713880" lon="-8.8679590">
        <ele>10.1</ele>
        <time>2021-05-18T08:15:20Z</time>
      </trkpt>
      <trkpt lat="41.7713850" lon="-8.8679380">
        <ele>10.2</ele>
        <time>2021-05-18T08:15:21Z</time>
      </trkpt>
      <trkpt lat="41.7713830" lon="-8.8679200">
        <ele>10.2</ele>
        <time>2021-05-18T08:15:22Z</time>
      </trkpt>
      <trkpt lat="41.7713770" lon="-8.8679010">
        <ele>10.2</ele>
        <time>2021-05-18T08:15:23Z</time>
      </trkpt>
      <trkpt lat="41.7713730" lon="-8.8678790">
        <ele>10.2</ele>
        <time>2021-05-18T08:15:24Z</time>
      </trkpt>
      <trkpt lat="41.7713680" lon="-8.8678620">
        <ele>10.2</ele>
        <time>2021-05-18T08:15:25Z</time>
      </trkpt>
      <trkpt lat="41.7713610" lon="-8.8678430">
        <ele>10.2</ele>
        <time>2021-05-18T08:15:26Z</time>
      </trkpt>
      <trkpt lat="41.7713540" lon="-8.8678250">
        <ele>10.2</ele>
        <time>2021-05-18T08:15:27Z</time>
      </trkpt>
      <trkpt lat="41.7713550" lon="-8.8678030">
        <ele>10.3</ele>
        <time>2021-05-18T08:15:28Z</time>
      </trkpt>
      <trkpt lat="41.7713530" lon="-8.8677840">
        <ele>10.3</ele>
        <time>2021-05-18T08:15:29Z</time>
      </trkpt>
      <trkpt lat="41.7713510" lon="-8.8677630">
        <ele>10.3</ele>
        <time>2021-05-18T08:15:30Z</time>
      </trkpt>
      <trkpt lat="41.7713480" lon="-8.8677430">
        <ele>10.3</ele>
        <time>2021-05-18T08:15:31Z</time>
      </trkpt>
      <trkpt lat="41.7713410" lon="-8.8677270">
        <ele>10.3</ele>
        <time>2021-05-18T08:15:32Z</time>
      </trkpt>
      <trkpt lat="41.7713410" lon="-8.8677070">
        <ele>10.3</ele>
        <time>2021-05-18T08:15:33Z</time>
      </trkpt>
      <trkpt lat="41.7713360" lon="-8.8676870">
        <ele>10.4</ele>
        <time>2021-05-18T08:15:34Z</time>
      </trkpt>
      <trkpt lat="41.7713320" lon="-8.8676670">
        <ele>10.4</ele>
        <time>2021-05-18T08:15:35Z</time>
      </trkpt>
      <trkpt lat="41.7713320" lon="-8.8676500">
        <ele>10.4</ele>
        <time>2021-05-18T08:15:36Z</time>
      </trkpt>
      <trkpt lat="41.7713260" lon="-8.8676310">
        <ele>10.4</ele>
        <time>2021-05-18T08:15:37Z</time>
      </trkpt>
      <trkpt lat="41.7713220" lon="-8.8676120">
        <ele>10.4</ele>
        <time>2021-05-18T08:15:38Z</time>
      </trkpt>
      <trkpt lat="41.7713150" lon="-8.8675830">
        <ele>10.4</ele>
        <time>2021-05-18T08:15:39Z</time>
      </trkpt>
      <trkpt lat="41.7713120" lon="-8.8675710">
        <ele>10.5</ele>
        <time>2021-05-18T08:15:40Z</time>
      </trkpt>
      <trkpt lat="41.7713100" lon="-8.8675590">
        <ele>10.5</ele>
        <time>2021-05-18T08:15:41Z</time>
      </trkpt>
      <trkpt lat="41.7713100" lon="-8.8675380">
        <ele>10.5</ele>
        <time>2021-05-18T08:15:42Z</time>
      </trkpt>
      <trkpt lat="41.7713060" lon="-8.8675160">
        <ele>10.5</ele>
        <time>2021-05-18T08:15:43Z</time>
      </trkpt>
      <trkpt lat="41.7713030" lon="-8.8674980">
        <ele>10.5</ele>
        <time>2021-05-18T08:15:44Z</time>
      </trkpt>
      <trkpt lat="41.7712980" lon="-8.8674790">
        <ele>10.5</ele>
        <time>2021-05-18T08:15:45Z</time>
      </trkpt>
      <trkpt lat="41.7712950" lon="-8.8674650">
        <ele>10.6</ele>
        <time>2021-05-18T08:15:46Z</time>
      </trkpt>
      <trkpt lat="41.7712840" lon="-8.8674470">
        <ele>10.6</ele>
        <time>2021-05-18T08:15:47Z</time>
      </trkpt>
      <trkpt lat="41.7712830" lon="-8.8674280">
        <ele>10.6</ele>
        <time>2021-05-18T08:15:48Z</time>
      </trkpt>
      <trkpt lat="41.7712780" lon="-8.8674110">
        <ele>10.6</ele>
        <time>2021-05-18T08:15:49Z</time>
      </trkpt>
      <trkpt lat="41.7712740" lon="-8.8673920">
        <ele>10.6</ele>
        <time>2021-05-18T08:15:50Z</time>
      </trkpt>
      <trkpt lat="41.7712700" lon="-8.8673730">
        <ele>10.6</ele>
        <time>2021-05-18T08:15:51Z</time>
      </trkpt>
      <trkpt lat="41.7712680" lon="-8.8673550">
        <ele>10.7</ele>
        <time>2021-05-18T08:15:52Z</time>
      </trkpt>
      <trkpt lat="41.7712670" lon="-8.8673370">
        <ele>10.7</ele>
        <time>2021-05-18T08:15:53Z</time>
      </trkpt>
      <trkpt lat="41.7712670" lon="-8.8673190">
        <ele>10.7</ele>
        <time>2021-05-18T08:15:54Z</time>
      </trkpt>
      <trkpt lat="41.7712640" lon="-8.8673000">
        <ele>10.7</ele>
        <time>2021-05-18T08:15:55Z</time>
      </trkpt>
      <trkpt lat="41.7712580" lon="-8.8672810">
        <ele>10.7</ele>
        <time>2021-05-18T08:15:56Z</time>
      </trkpt>
      <trkpt lat="41.7712520" lon="-8.8672660">
        <ele>10.7</ele>
        <time>2021-05-18T08:15:57Z</time>
      </trkpt>
      <trkpt lat="41.7712510" lon="-8.8672440">
        <ele>10.8</ele>
        <time>2021-05-18T08:15:58Z</time>
      </trkpt>
      <trkpt lat="41.7712520" lon="-8.8672280">
        <ele>10.8</ele>
        <time>2021-05-18T08:15:59Z</time>
      </trkpt>
      <trkpt lat="41.7712510" lon="-8.8671980">
        <ele>10.8</ele>
        <time>2021-05-18T08:16:00Z</time>
      </trkpt>
      <trkpt lat="41.7712510" lon="-8.8671840">
        <ele>10.8</ele>
        <time>2021-05-18T08:16:01Z</time>
      </trkpt>
      <trkpt lat="41.7712520" lon="-8.8671710">
        <ele>10.8</ele>
        <time>2021-05-18T08:16:02Z</time>
      </trkpt>
      <trkpt lat="41.7712590" lon="-8.8671540">
        <ele>10.8</ele>
        <time>2021-05-18T08:16:03Z</time>
      </trkpt>
      <trkpt lat="41.7712660" lon="-8.8671360">
        <ele>10.9</ele>
        <time>2021-05-18T08:16:04Z</time>
      </trkpt>
      <trkpt lat="41.7712740" lon="-8.8671210">
        <ele>10.9</ele>
        <time>2021-05-18T08:16:05Z</time>
      </trkpt>
      <trkpt lat="41.7712840" lon="-8.8671060">
        <ele>10.9</ele>
        <time>2021-05-18T08:16:06Z</time>
      </trkpt>
      <trkpt lat="41.7712920" lon="-8.8670930">
        <ele>10.9</ele>
        <time>2021-05-18T08:16:07Z</time>
      </trkpt>
      <trkpt lat="41.7712980" lon="-8.8670770">
        <ele>10.8</ele>
        <time>2021-05-18T08:16:08Z</time>
      </trkpt>
      <trkpt lat="41.7713060" lon="-8.8670680">
        <ele>10.8</ele>
        <time>2021-05-18T08:16:09Z</time>
      </trkpt>
      <trkpt lat="41.7713240" lon="-8.8670630">
        <ele>10.8</ele>
        <time>2021-05-18T08:16:10Z</time>
      </trkpt>
      <trkpt lat="41.7713340" lon="-8.8670580">
        <ele>10.8</ele>
        <time>2021-05-18T08:16:11Z</time>
      </trkpt>
      <trkpt lat="41.7713430" lon="-8.8670540">
        <ele>10.8</ele>
        <time>2021-05-18T08:16:12Z</time>
      </trkpt>
      <trkpt lat="41.7713630" lon="-8.8670530">
        <ele>10.8</ele>
        <time>2021-05-18T08:16:13Z</time>
      </trkpt>
      <trkpt lat="41.7713720" lon="-8.8670530">
        <ele>10.8</ele>
        <time>2021-05-18T08:16:14Z</time>
      </trkpt>
      <trkpt lat="41.7713820" lon="-8.8670540">
        <ele>10.7</ele>
        <time>2021-05-18T08:16:15Z</time>
      </trkpt>
      <trkpt lat="41.7713980" lon="-8.8670560">
        <ele>10.7</ele>
        <time>2021-05-18T08:16:16Z</time>
      </trkpt>
      <trkpt lat="41.7714160" lon="-8.8670610">
        <ele>10.7</ele>
        <time>2021-05-18T08:16:17Z</time>
      </trkpt>
      <trkpt lat="41.7714280" lon="-8.8670630">
        <ele>10.7</ele>
        <time>2021-05-18T08:16:18Z</time>
      </trkpt>
      <trkpt lat="41.7714450" lon="-8.8670700">
        <ele>10.7</ele>
        <time>2021-05-18T08:16:19Z</time>
      </trkpt>
      <trkpt lat="41.7714600" lon="-8.8670740">
        <ele>10.6</ele>
        <time>2021-05-18T08:16:20Z</time>
      </trkpt>
      <trkpt lat="41.7714760" lon="-8.8670730">
        <ele>10.6</ele>
        <time>2021-05-18T08:16:21Z</time>
      </trkpt>
      <trkpt lat="41.7714900" lon="-8.8670730">
        <ele>10.6</ele>
        <time>2021-05-18T08:16:22Z</time>
      </trkpt>
      <trkpt lat="41.7715040" lon="-8.8670750">
        <ele>10.6</ele>
        <time>2021-05-18T08:16:23Z</time>
      </trkpt>
      <trkpt lat="41.7715200" lon="-8.8670760">
        <ele>10.6</ele>
        <time>2021-05-18T08:16:24Z</time>
      </trkpt>
      <trkpt lat="41.7715370" lon="-8.8670760">
        <ele>10.5</ele>
        <time>2021-05-18T08:16:25Z</time>
      </trkpt>
      <trkpt lat="41.7715600" lon="-8.8670780">
        <ele>10.5</ele>
        <time>2021-05-18T08:16:26Z</time>
      </trkpt>
      <trkpt lat="41.7715690" lon="-8.8670810">
        <ele>10.5</ele>
        <time>2021-05-18T08:16:27Z</time>
      </trkpt>
      <trkpt lat="41.7715790" lon="-8.8670840">
        <ele>10.5</ele>
        <time>2021-05-18T08:16:28Z</time>
      </trkpt>
      <trkpt lat="41.7715930" lon="-8.8670900">
        <ele>10.5</ele>
        <time>2021-05-18T08:16:29Z</time>
      </trkpt>
      <trkpt lat="41.7716070" lon="-8.8670920">
        <ele>10.5</ele>
        <time>2021-05-18T08:16:30Z</time>
      </trkpt>
      <trkpt lat="41.7716210" lon="-8.8670960">
        <ele>10.4</ele>
        <time>2021-05-18T08:16:31Z</time>
      </trkpt>
      <trkpt lat="41.7716380" lon="-8.8670980">
        <ele>10.4</ele>
        <time>2021-05-18T08:16:32Z</time>
      </trkpt>
      <trkpt lat="41.7716520" lon="-8.8670990">
        <ele>10.4</ele>
        <time>2021-05-18T08:16:33Z</time>
      </trkpt>
      <trkpt lat="41.7716680" lon="-8.8670960">
        <ele>10.4</ele>
        <time>2021-05-18T08:16:34Z</time>
      </trkpt>
      <trkpt lat="41.7716820" lon="-8.8671030">
        <ele>10.4</ele>
        <time>2021-05-18T08:16:35Z</time>
      </trkpt>
      <trkpt lat="41.7716980" lon="-8.8671010">
        <ele>10.3</ele>
        <time>2021-05-18T08:16:36Z</time>
      </trkpt>
      <trkpt lat="41.7717120" lon="-8.8671050">
        <ele>10.3</ele>
        <time>2021-05-18T08:16:37Z</time>
      </trkpt>
      <trkpt lat="41.7717250" lon="-8.8671110">
        <ele>10.3</ele>
        <time>2021-05-18T08:16:38Z</time>
      </trkpt>
      <trkpt lat="41.7717410" lon="-8.8671110">
        <ele>10.3</ele>
        <time>2021-05-18T08:16:39Z</time>
      </trkpt>
      <trkpt lat="41.7717570" lon="-8.8671120">
        <ele>10.3</ele>
        <time>2021-05-18T08:16:40Z</time>
      </trkpt>
      <trkpt lat="41.7717720" lon="-8.8671170">
        <ele>10.2</ele>
        <time>2021-05-18T08:16:41Z</time>
      </trkpt>
      <trkpt lat="41.7717870" lon="-8.8671170">
        <ele>10.2</ele>
        <time>2021-05-18T08:16:42Z</time>
      </trkpt>
      <trkpt lat="41.7718050" lon="-8.8671160">
        <ele>10.2</ele>
        <time>2021-05-18T08:16:43Z</time>
      </trkpt>
      <trkpt lat="41.7718220" lon="-8.8671200">
        <ele>10.2</ele>
        <time>2021-05-18T08:16:44Z</time>
      </trkpt>
      <trkpt lat="41.7718390" lon="-8.8671180">
        <ele>10.1</ele>
        <time>2021-05-18T08:16:45Z</time>
      </trkpt>
      <trkpt lat="41.7718540" lon="-8.8671200">
        <ele>10.1</ele>
        <time>2021-05-18T08:16:46Z</time>
      </trkpt>
      <trkpt lat="41.7718690" lon="-8.8671230">
        <ele>10.1</ele>
        <time>2021-05-18T08:16:47Z</time>
      </trkpt>
      <trkpt lat="41.7718820" lon="-8.8671220">
        <ele>10.0</ele>
        <time>2021-05-18T08:16:48Z</time>
      </trkpt>
      <trkpt lat="41.7718980" lon="-8.8671230">
        <ele>10.0</ele>
        <time>2021-05-18T08:16:49Z</time>
      </trkpt>
      <trkpt lat="41.7719120" lon="-8.8671250">
        <ele>10.0</ele>
        <time>2021-05-18T08:16:50Z</time>
      </trkpt>
      <trkpt lat="41.7719290" lon="-8.8671250">
        <ele>10.0</ele>
        <time>2021-05-18T08:16:51Z</time>
      </trkpt>
      <trkpt lat="41.7719430" lon="-8.8671250">
        <ele>9.9</ele>
        <time>2021-05-18T08:16:52Z</time>
      </trkpt>
      <trkpt lat="41.7719590" lon="-8.8671280">
        <ele>9.9</ele>
        <time>2021-05-18T08:16:53Z</time>
      </trkpt>
      <trkpt lat="41.7719710" lon="-8.8671280">
        <ele>9.9</ele>
        <time>2021-05-18T08:16:54Z</time>
      </trkpt>
      <trkpt lat="41.7719870" lon="-8.8671300">
        <ele>9.9</ele>
        <time>2021-05-18T08:16:55Z</time>
      </trkpt>
      <trkpt lat="41.7720010" lon="-8.8671350">
        <ele>9.8</ele>
        <time>2021-05-18T08:16:56Z</time>
      </trkpt>
      <trkpt lat="41.7720250" lon="-8.8671370">
        <ele>9.8</ele>
        <time>2021-05-18T08:16:57Z</time>
      </trkpt>
      <trkpt lat="41.7720330" lon="-8.8671370">
        <ele>9.8</ele>
        <time>2021-05-18T08:16:58Z</time>
      </trkpt>
      <trkpt lat="41.7720420" lon="-8.8671360">
        <ele>9.8</ele>
        <time>2021-05-18T08:16:59Z</time>
      </trkpt>
      <trkpt lat="41.7720580" lon="-8.8671360">
        <ele>9.7</ele>
        <time>2021-05-18T08:17:00Z</time>
      </trkpt>
      <trkpt lat="41.7720720" lon="-8.8671370">
        <ele>9.7</ele>
        <time>2021-05-18T08:17:01Z</time>
      </trkpt>
      <trkpt lat="41.7720870" lon="-8.8671390">
        <ele>9.7</ele>
        <time>2021-05-18T08:17:02Z</time>
      </trkpt>
      <trkpt lat="41.7721010" lon="-8.8671430">
        <ele>9.7</ele>
        <time>2021-05-18T08:17:03Z</time>
      </trkpt>
      <trkpt lat="41.7721170" lon="-8.8671430">
        <ele>9.6</ele>
        <time>2021-05-18T08:17:04Z</time>
      </trkpt>
      <trkpt lat="41.7721290" lon="-8.8671410">
        <ele>9.6</ele>
        <time>2021-05-18T08:17:05Z</time>
      </trkpt>
      <trkpt lat="41.7721420" lon="-8.8671410">
        <ele>9.6</ele>
        <time>2021-05-18T08:17:06Z</time>
      </trkpt>
      <trkpt lat="41.7721560" lon="-8.8671440">
        <ele>9.6</ele>
        <time>2021-05-18T08:17:07Z</time>
      </trkpt>
      <trkpt lat="41.7721680" lon="-8.8671480">
        <ele>9.6</ele>
        <time>2021-05-18T08:17:08Z</time>
      </trkpt>
      <trkpt lat="41.7721850" lon="-8.8671420">
        <ele>9.5</ele>
        <time>2021-05-18T08:17:09Z</time>
      </trkpt>
      <trkpt lat="41.7721990" lon="-8.8671500">
        <ele>9.5</ele>
        <time>2021-05-18T08:17:10Z</time>
      </trkpt>
      <trkpt lat="41.7722150" lon="-8.8671480">
        <ele>9.5</ele>
        <time>2021-05-18T08:17:11Z</time>
      </trkpt>
      <trkpt lat="41.7722320" lon="-8.8671500">
        <ele>9.5</ele>
        <time>2021-05-18T08:17:12Z</time>
      </trkpt>
      <trkpt lat="41.7722470" lon="-8.8671470">
        <ele>9.5</ele>
        <time>2021-05-18T08:17:13Z</time>
      </trkpt>
      <trkpt lat="41.7722620" lon="-8.8671520">
        <ele>9.5</ele>
        <time>2021-05-18T08:17:14Z</time>
      </trkpt>
      <trkpt lat="41.7722760" lon="-8.8671570">
        <ele>9.5</ele>
        <time>2021-05-18T08:17:15Z</time>
      </trkpt>
      <trkpt lat="41.7722980" lon="-8.8671570">
        <ele>9.4</ele>
        <time>2021-05-18T08:17:16Z</time>
      </trkpt>
      <trkpt lat="41.7723060" lon="-8.8671580">
        <ele>9.4</ele>
        <time>2021-05-18T08:17:17Z</time>
      </trkpt>
      <trkpt lat="41.7723150" lon="-8.8671590">
        <ele>9.4</ele>
        <time>2021-05-18T08:17:18Z</time>
      </trkpt>
      <trkpt lat="41.7723290" lon="-8.8671600">
        <ele>9.4</ele>
        <time>2021-05-18T08:17:19Z</time>
      </trkpt>
      <trkpt lat="41.7723430" lon="-8.8671640">
        <ele>9.4</ele>
        <time>2021-05-18T08:17:20Z</time>
      </trkpt>
      <trkpt lat="41.7723640" lon="-8.8671700">
        <ele>9.4</ele>
        <time>2021-05-18T08:17:21Z</time>
      </trkpt>
      <trkpt lat="41.7723740" lon="-8.8671710">
        <ele>9.4</ele>
        <time>2021-05-18T08:17:22Z</time>
      </trkpt>
      <trkpt lat="41.7723830" lon="-8.8671720">
        <ele>9.4</ele>
        <time>2021-05-18T08:17:23Z</time>
      </trkpt>
      <trkpt lat="41.7723980" lon="-8.8671700">
        <ele>9.3</ele>
        <time>2021-05-18T08:17:24Z</time>
      </trkpt>
      <trkpt lat="41.7724120" lon="-8.8671700">
        <ele>9.3</ele>
        <time>2021-05-18T08:17:25Z</time>
      </trkpt>
      <trkpt lat="41.7724260" lon="-8.8671740">
        <ele>9.3</ele>
        <time>2021-05-18T08:17:26Z</time>
      </trkpt>
      <trkpt lat="41.7724420" lon="-8.8671770">
        <ele>9.3</ele>
        <time>2021-05-18T08:17:27Z</time>
      </trkpt>
      <trkpt lat="41.7724630" lon="-8.8671790">
        <ele>9.3</ele>
        <time>2021-05-18T08:17:28Z</time>
      </trkpt>
      <trkpt lat="41.7724730" lon="-8.8671800">
        <ele>9.3</ele>
        <time>2021-05-18T08:17:29Z</time>
      </trkpt>
      <trkpt lat="41.7724820" lon="-8.8671820">
        <ele>9.3</ele>
        <time>2021-05-18T08:17:30Z</time>
      </trkpt>
      <trkpt lat="41.7724950" lon="-8.8671860">
        <ele>9.2</ele>
        <time>2021-05-18T08:17:31Z</time>
      </trkpt>
      <trkpt lat="41.7725090" lon="-8.8671830">
        <ele>9.2</ele>
        <time>2021-05-18T08:17:32Z</time>
      </trkpt>
      <trkpt lat="41.7725240" lon="-8.8671850">
        <ele>9.2</ele>
        <time>2021-05-18T08:17:33Z</time>
      </trkpt>
      <trkpt lat="41.7725380" lon="-8.8671900">
        <ele>9.2</ele>
        <time>2021-05-18T08:17:34Z</time>
      </trkpt>
      <trkpt lat="41.7725570" lon="-8.8671860">
        <ele>9.2</ele>
        <time>2021-05-18T08:17:35Z</time>
      </trkpt>
      <trkpt lat="41.7725670" lon="-8.8671920">
        <ele>9.2</ele>
        <time>2021-05-18T08:17:36Z</time>
      </trkpt>
      <trkpt lat="41.7725820" lon="-8.8671930">
        <ele>9.2</ele>
        <time>2021-05-18T08:17:37Z</time>
      </trkpt>
      <trkpt lat="41.7725950" lon="-8.8671980">
        <ele>9.1</ele>
        <time>2021-05-18T08:17:38Z</time>
      </trkpt>
      <trkpt lat="41.7726090" lon="-8.8672030">
        <ele>9.1</ele>
        <time>2021-05-18T08:17:39Z</time>
      </trkpt>
      <trkpt lat="41.7726240" lon="-8.8672030">
        <ele>9.1</ele>
        <time>2021-05-18T08:17:40Z</time>
      </trkpt>
      <trkpt lat="41.7726370" lon="-8.8672070">
        <ele>9.1</ele>
        <time>2021-05-18T08:17:41Z</time>
      </trkpt>
      <trkpt lat="41.7726520" lon="-8.8672090">
        <ele>9.1</ele>
        <time>2021-05-18T08:17:42Z</time>
      </trkpt>
      <trkpt lat="41.7726670" lon="-8.8672120">
        <ele>9.1</ele>
        <time>2021-05-18T08:17:43Z</time>
      </trkpt>
      <trkpt lat="41.7726800" lon="-8.8672140">
        <ele>9.1</ele>
        <time>2021-05-18T08:17:44Z</time>
      </trkpt>
      <trkpt lat="41.7726910" lon="-8.8672170">
        <ele>9.1</ele>
        <time>2021-05-18T08:17:45Z</time>
      </trkpt>
      <trkpt lat="41.7727080" lon="-8.8672160">
        <ele>9.1</ele>
        <time>2021-05-18T08:17:46Z</time>
      </trkpt>
      <trkpt lat="41.7727300" lon="-8.8672190">
        <ele>9.1</ele>
        <time>2021-05-18T08:17:47Z</time>
      </trkpt>
      <trkpt lat="41.7727400" lon="-8.8672210">
        <ele>9.0</ele>
        <time>2021-05-18T08:17:48Z</time>
      </trkpt>
      <trkpt lat="41.7727490" lon="-8.8672230">
        <ele>9.0</ele>
        <time>2021-05-18T08:17:49Z</time>
      </trkpt>
      <trkpt lat="41.7727620" lon="-8.8672230">
        <ele>9.0</ele>
        <time>2021-05-18T08:17:50Z</time>
      </trkpt>
      <trkpt lat="41.7727760" lon="-8.8672230">
        <ele>9.0</ele>
        <time>2021-05-18T08:17:51Z</time>
      </trkpt>
      <trkpt lat="41.7727910" lon="-8.8672260">
        <ele>9.0</ele>
        <time>2021-05-18T08:17:52Z</time>
      </trkpt>
      <trkpt lat="41.7728050" lon="-8.8672230">
        <ele>9.0</ele>
        <time>2021-05-18T08:17:53Z</time>
      </trkpt>
      <trkpt lat="41.7728240" lon="-8.8672260">
        <ele>9.0</ele>
        <time>2021-05-18T08:17:54Z</time>
      </trkpt>
      <trkpt lat="41.7728330" lon="-8.8672250">
        <ele>9.0</ele>
        <time>2021-05-18T08:17:55Z</time>
      </trkpt>
      <trkpt lat="41.7728420" lon="-8.8672250">
        <ele>9.0</ele>
        <time>2021-05-18T08:17:56Z</time>
      </trkpt>
      <trkpt lat="41.7728580" lon="-8.8672200">
        <ele>8.9</ele>
        <time>2021-05-18T08:17:57Z</time>
      </trkpt>
      <trkpt lat="41.7728740" lon="-8.8672190">
        <ele>8.9</ele>
        <time>2021-05-18T08:17:58Z</time>
      </trkpt>
      <trkpt lat="41.7728960" lon="-8.8672240">
        <ele>8.9</ele>
        <time>2021-05-18T08:17:59Z</time>
      </trkpt>
      <trkpt lat="41.7729050" lon="-8.8672240">
        <ele>8.9</ele>
        <time>2021-05-18T08:18:00Z</time>
      </trkpt>
      <trkpt lat="41.7729150" lon="-8.8672250">
        <ele>8.8</ele>
        <time>2021-05-18T08:18:01Z</time>
      </trkpt>
      <trkpt lat="41.7729380" lon="-8.8672230">
        <ele>8.8</ele>
        <time>2021-05-18T08:18:02Z</time>
      </trkpt>
      <trkpt lat="41.7729470" lon="-8.8672220">
        <ele>8.8</ele>
        <time>2021-05-18T08:18:03Z</time>
      </trkpt>
      <trkpt lat="41.7729570" lon="-8.8672210">
        <ele>8.8</ele>
        <time>2021-05-18T08:18:04Z</time>
      </trkpt>
      <trkpt lat="41.7729790" lon="-8.8672160">
        <ele>8.7</ele>
        <time>2021-05-18T08:18:05Z</time>
      </trkpt>
      <trkpt lat="41.7729880" lon="-8.8672160">
        <ele>8.7</ele>
        <time>2021-05-18T08:18:06Z</time>
      </trkpt>
      <trkpt lat="41.7729970" lon="-8.8672160">
        <ele>8.7</ele>
        <time>2021-05-18T08:18:07Z</time>
      </trkpt>
      <trkpt lat="41.7730110" lon="-8.8672100">
        <ele>8.6</ele>
        <time>2021-05-18T08:18:08Z</time>
      </trkpt>
      <trkpt lat="41.7730220" lon="-8.8672010">
        <ele>8.6</ele>
        <time>2021-05-18T08:18:09Z</time>
      </trkpt>
      <trkpt lat="41.7730350" lon="-8.8671980">
        <ele>8.6</ele>
        <time>2021-05-18T08:18:10Z</time>
      </trkpt>
      <trkpt lat="41.7730500" lon="-8.8671890">
        <ele>8.5</ele>
        <time>2021-05-18T08:18:11Z</time>
      </trkpt>
      <trkpt lat="41.7730630" lon="-8.8671840">
        <ele>8.5</ele>
        <time>2021-05-18T08:18:12Z</time>
      </trkpt>
      <trkpt lat="41.7730760" lon="-8.8671780">
        <ele>8.5</ele>
        <time>2021-05-18T08:18:13Z</time>
      </trkpt>
      <trkpt lat="41.7730890" lon="-8.8671770">
        <ele>8.4</ele>
        <time>2021-05-18T08:18:14Z</time>
      </trkpt>
      <trkpt lat="41.7731050" lon="-8.8671740">
        <ele>8.4</ele>
        <time>2021-05-18T08:18:15Z</time>
      </trkpt>
      <trkpt lat="41.7731210" lon="-8.8671720">
        <ele>8.4</ele>
        <time>2021-05-18T08:18:16Z</time>
      </trkpt>
      <trkpt lat="41.7731330" lon="-8.8671700">
        <ele>8.3</ele>
        <time>2021-05-18T08:18:17Z</time>
      </trkpt>
      <trkpt lat="41.7731540" lon="-8.8671580">
        <ele>8.3</ele>
        <time>2021-05-18T08:18:18Z</time>
      </trkpt>
      <trkpt lat="41.7731620" lon="-8.8671550">
        <ele>8.3</ele>
        <time>2021-05-18T08:18:19Z</time>
      </trkpt>
      <trkpt lat="41.7731710" lon="-8.8671520">
        <ele>8.3</ele>
        <time>2021-05-18T08:18:20Z</time>
      </trkpt>
      <trkpt lat="41.7731830" lon="-8.8671460">
        <ele>8.2</ele>
        <time>2021-05-18T08:18:21Z</time>
      </trkpt>
      <trkpt lat="41.7731970" lon="-8.8671420">
        <ele>8.2</ele>
        <time>2021-05-18T08:18:22Z</time>
      </trkpt>
      <trkpt lat="41.7732030" lon="-8.8671380">
        <ele>8.2</ele>
        <time>2021-05-18T08:18:23Z</time>
      </trkpt>
      <trkpt lat="41.7732110" lon="-8.8671370">
        <ele>8.2</ele>
        <time>2021-05-18T08:18:24Z</time>
      </trkpt>
      <trkpt lat="41.7732280" lon="-8.8671340">
        <ele>8.1</ele>
        <time>2021-05-18T08:18:25Z</time>
      </trkpt>
      <trkpt lat="41.7732340" lon="-8.8671260">
        <ele>8.1</ele>
        <time>2021-05-18T08:18:26Z</time>
      </trkpt>
      <trkpt lat="41.7732430" lon="-8.8671220">
        <ele>8.1</ele>
        <time>2021-05-18T08:18:27Z</time>
      </trkpt>
      <trkpt lat="41.7732530" lon="-8.8671190">
        <ele>8.1</ele>
        <time>2021-05-18T08:18:28Z</time>
      </trkpt>
      <trkpt lat="41.7732660" lon="-8.8671130">
        <ele>8.1</ele>
        <time>2021-05-18T08:18:29Z</time>
      </trkpt>
      <trkpt lat="41.7732780" lon="-8.8671100">
        <ele>8.1</ele>
        <time>2021-05-18T08:18:30Z</time>
      </trkpt>
      <trkpt lat="41.7732870" lon="-8.8671010">
        <ele>8.0</ele>
        <time>2021-05-18T08:18:31Z</time>
      </trkpt>
      <trkpt lat="41.7732910" lon="-8.8670990">
        <ele>8.0</ele>
        <time>2021-05-18T08:18:32Z</time>
      </trkpt>
      <trkpt lat="41.7733050" lon="-8.8670900">
        <ele>8.0</ele>
        <time>2021-05-18T08:18:33Z</time>
      </trkpt>
      <trkpt lat="41.7733130" lon="-8.8670890">
        <ele>8.0</ele>
        <time>2021-05-18T08:18:34Z</time>
      </trkpt>
      <trkpt lat="41.7733290" lon="-8.8670840">
        <ele>8.0</ele>
        <time>2021-05-18T08:18:35Z</time>
      </trkpt>
      <trkpt lat="41.7733450" lon="-8.8670790">
        <ele>8.0</ele>
        <time>2021-05-18T08:18:36Z</time>
      </trkpt>
      <trkpt lat="41.7733560" lon="-8.8670760">
        <ele>7.9</ele>
        <time>2021-05-18T08:18:37Z</time>
      </trkpt>
      <trkpt lat="41.7733550" lon="-8.8670730">
        <ele>7.9</ele>
        <time>2021-05-18T08:18:38Z</time>
      </trkpt>
      <trkpt lat="41.7733780" lon="-8.8670700">
        <ele>7.9</ele>
        <time>2021-05-18T08:18:39Z</time>
      </trkpt>
      <trkpt lat="41.7733820" lon="-8.8670630">
        <ele>7.9</ele>
        <time>2021-05-18T08:18:40Z</time>
      </trkpt>
      <trkpt lat="41.7733970" lon="-8.8670570">
        <ele>7.9</ele>
        <time>2021-05-18T08:18:41Z</time>
      </trkpt>
      <trkpt lat="41.7734030" lon="-8.8670540">
        <ele>7.9</ele>
        <time>2021-05-18T08:18:42Z</time>
      </trkpt>
      <trkpt lat="41.7734170" lon="-8.8670520">
        <ele>7.9</ele>
        <time>2021-05-18T08:18:43Z</time>
      </trkpt>
      <trkpt lat="41.7734190" lon="-8.8670520">
        <ele>7.9</ele>
        <time>2021-05-18T08:18:44Z</time>
      </trkpt>
      <trkpt lat="41.7734350" lon="-8.8670480">
        <ele>7.8</ele>
        <time>2021-05-18T08:18:45Z</time>
      </trkpt>
      <trkpt lat="41.7734560" lon="-8.8670430">
        <ele>7.8</ele>
        <time>2021-05-18T08:18:46Z</time>
      </trkpt>
      <trkpt lat="41.7734640" lon="-8.8670400">
        <ele>7.8</ele>
        <time>2021-05-18T08:18:47Z</time>
      </trkpt>
      <trkpt lat="41.7734710" lon="-8.8670370">
        <ele>7.8</ele>
        <time>2021-05-18T08:18:48Z</time>
      </trkpt>
      <trkpt lat="41.7734870" lon="-8.8670270">
        <ele>7.8</ele>
        <time>2021-05-18T08:18:49Z</time>
      </trkpt>
      <trkpt lat="41.7734970" lon="-8.8670220">
        <ele>7.7</ele>
        <time>2021-05-18T08:18:50Z</time>
      </trkpt>
      <trkpt lat="41.7735010" lon="-8.8670170">
        <ele>7.7</ele>
        <time>2021-05-18T08:18:51Z</time>
      </trkpt>
      <trkpt lat="41.7735050" lon="-8.8670100">
        <ele>7.7</ele>
        <time>2021-05-18T08:18:52Z</time>
      </trkpt>
      <trkpt lat="41.7735180" lon="-8.8669990">
        <ele>7.7</ele>
        <time>2021-05-18T08:18:53Z</time>
      </trkpt>
      <trkpt lat="41.7735330" lon="-8.8669950">
        <ele>7.7</ele>
        <time>2021-05-18T08:18:54Z</time>
      </trkpt>
      <trkpt lat="41.7735410" lon="-8.8669910">
        <ele>7.7</ele>
        <time>2021-05-18T08:18:55Z</time>
      </trkpt>
      <trkpt lat="41.7735430" lon="-8.8669800">
        <ele>7.7</ele>
        <time>2021-05-18T08:18:56Z</time>
      </trkpt>
      <trkpt lat="41.7735600" lon="-8.8669700">
        <ele>7.6</ele>
        <time>2021-05-18T08:18:57Z</time>
      </trkpt>
      <trkpt lat="41.7735660" lon="-8.8669660">
        <ele>7.6</ele>
        <time>2021-05-18T08:18:58Z</time>
      </trkpt>
      <trkpt lat="41.7735710" lon="-8.8669630">
        <ele>7.6</ele>
        <time>2021-05-18T08:18:59Z</time>
      </trkpt>
      <trkpt lat="41.7735760" lon="-8.8669590">
        <ele>7.6</ele>
        <time>2021-05-18T08:19:00Z</time>
      </trkpt>
      <trkpt lat="41.7736000" lon="-8.8669520">
        <ele>7.5</ele>
        <time>2021-05-18T08:19:01Z</time>
      </trkpt>
      <trkpt lat="41.7736070" lon="-8.8669480">
        <ele>7.5</ele>
        <time>2021-05-18T08:19:02Z</time>
      </trkpt>
      <trkpt lat="41.7736150" lon="-8.8669430">
        <ele>7.5</ele>
        <time>2021-05-18T08:19:03Z</time>
      </trkpt>
      <trkpt lat="41.7736330" lon="-8.8669340">
        <ele>7.5</ele>
        <time>2021-05-18T08:19:04Z</time>
      </trkpt>
      <trkpt lat="41.7736420" lon="-8.8669280">
        <ele>7.5</ele>
        <time>2021-05-18T08:19:05Z</time>
      </trkpt>
      <trkpt lat="41.7736570" lon="-8.8669200">
        <ele>7.4</ele>
        <time>2021-05-18T08:19:06Z</time>
      </trkpt>
      <trkpt lat="41.7736710" lon="-8.8669120">
        <ele>7.4</ele>
        <time>2021-05-18T08:19:07Z</time>
      </trkpt>
      <trkpt lat="41.7736860" lon="-8.8669060">
        <ele>7.4</ele>
        <time>2021-05-18T08:19:08Z</time>
      </trkpt>
      <trkpt lat="41.7737050" lon="-8.8669020">
        <ele>7.4</ele>
        <time>2021-05-18T08:19:09Z</time>
      </trkpt>
      <trkpt lat="41.7737230" lon="-8.8668970">
        <ele>7.3</ele>
        <time>2021-05-18T08:19:10Z</time>
      </trkpt>
      <trkpt lat="41.7737330" lon="-8.8668880">
        <ele>7.3</ele>
        <time>2021-05-18T08:19:11Z</time>
      </trkpt>
      <trkpt lat="41.7737570" lon="-8.8668820">
        <ele>7.3</ele>
        <time>2021-05-18T08:19:12Z</time>
      </trkpt>
      <trkpt lat="41.7737630" lon="-8.8668760">
        <ele>7.3</ele>
        <time>2021-05-18T08:19:13Z</time>
      </trkpt>
      <trkpt lat="41.7737880" lon="-8.8668690">
        <ele>7.2</ele>
        <time>2021-05-18T08:19:14Z</time>
      </trkpt>
      <trkpt lat="41.7737980" lon="-8.8668690">
        <ele>7.2</ele>
        <time>2021-05-18T08:19:15Z</time>
      </trkpt>
      <trkpt lat="41.7738070" lon="-8.8668690">
        <ele>7.2</ele>
        <time>2021-05-18T08:19:16Z</time>
      </trkpt>
      <trkpt lat="41.7738470" lon="-8.8668690">
        <ele>7.1</ele>
        <time>2021-05-18T08:19:17Z</time>
      </trkpt>
      <trkpt lat="41.7738630" lon="-8.8668690">
        <ele>7.1</ele>
        <time>2021-05-18T08:19:18Z</time>
      </trkpt>
      <trkpt lat="41.7738760" lon="-8.8668660">
        <ele>7.1</ele>
        <time>2021-05-18T08:19:19Z</time>
      </trkpt>
      <trkpt lat="41.7738910" lon="-8.8668500">
        <ele>7.0</ele>
        <time>2021-05-18T08:19:20Z</time>
      </trkpt>
      <trkpt lat="41.7739210" lon="-8.8668410">
        <ele>7.0</ele>
        <time>2021-05-18T08:19:21Z</time>
      </trkpt>
      <trkpt lat="41.7739310" lon="-8.8668380">
        <ele>7.0</ele>
        <time>2021-05-18T08:19:22Z</time>
      </trkpt>
      <trkpt lat="41.7739470" lon="-8.8668320">
        <ele>6.9</ele>
        <time>2021-05-18T08:19:23Z</time>
      </trkpt>
      <trkpt lat="41.7739660" lon="-8.8668340">
        <ele>6.9</ele>
        <time>2021-05-18T08:19:24Z</time>
      </trkpt>
      <trkpt lat="41.7739830" lon="-8.8668310">
        <ele>6.9</ele>
        <time>2021-05-18T08:19:25Z</time>
      </trkpt>
      <trkpt lat="41.7739970" lon="-8.8668260">
        <ele>6.9</ele>
        <time>2021-05-18T08:19:26Z</time>
      </trkpt>
      <trkpt lat="41.7740150" lon="-8.8668120">
        <ele>6.8</ele>
        <time>2021-05-18T08:19:27Z</time>
      </trkpt>
      <trkpt lat="41.7740220" lon="-8.8668100">
        <ele>6.8</ele>
        <time>2021-05-18T08:19:28Z</time>
      </trkpt>
      <trkpt lat="41.7740280" lon="-8.8668090">
        <ele>6.8</ele>
        <time>2021-05-18T08:19:29Z</time>
      </trkpt>
      <trkpt lat="41.7740350" lon="-8.8668070">
        <ele>6.8</ele>
        <time>2021-05-18T08:19:30Z</time>
      </trkpt>
      <trkpt lat="41.7740470" lon="-8.8667990">
        <ele>6.8</ele>
        <time>2021-05-18T08:19:31Z</time>
      </trkpt>
      <trkpt lat="41.7740660" lon="-8.8667920">
        <ele>6.8</ele>
        <time>2021-05-18T08:19:32Z</time>
      </trkpt>
      <trkpt lat="41.7740770" lon="-8.8667880">
        <ele>6.8</ele>
        <time>2021-05-18T08:19:33Z</time>
      </trkpt>
      <trkpt lat="41.7740930" lon="-8.8667830">
        <ele>6.7</ele>
        <time>2021-05-18T08:19:34Z</time>
      </trkpt>
      <trkpt lat="41.7741070" lon="-8.8667760">
        <ele>6.7</ele>
        <time>2021-05-18T08:19:35Z</time>
      </trkpt>
      <trkpt lat="41.7741220" lon="-8.8667690">
        <ele>6.7</ele>
        <time>2021-05-18T08:19:36Z</time>
      </trkpt>
      <trkpt lat="41.7741370" lon="-8.8667630">
        <ele>6.7</ele>
        <time>2021-05-18T08:19:37Z</time>
      </trkpt>
      <trkpt lat="41.7741530" lon="-8.8667580">
        <ele>6.7</ele>
        <time>2021-05-18T08:19:38Z</time>
      </trkpt>
      <trkpt lat="41.7741670" lon="-8.8667530">
        <ele>6.7</ele>
        <time>2021-05-18T08:19:39Z</time>
      </trkpt>
      <trkpt lat="41.7741820" lon="-8.8667440">
        <ele>6.6</ele>
        <time>2021-05-18T08:19:40Z</time>
      </trkpt>
      <trkpt lat="41.7741930" lon="-8.8667440">
        <ele>6.6</ele>
        <time>2021-05-18T08:19:41Z</time>
      </trkpt>
      <trkpt lat="41.7742090" lon="-8.8667400">
        <ele>6.6</ele>
        <time>2021-05-18T08:19:42Z</time>
      </trkpt>
      <trkpt lat="41.7742170" lon="-8.8667340">
        <ele>6.6</ele>
        <time>2021-05-18T08:19:43Z</time>
      </trkpt>
      <trkpt lat="41.7742270" lon="-8.8667280">
        <ele>6.6</ele>
        <time>2021-05-18T08:19:44Z</time>
      </trkpt>
      <trkpt lat="41.7742340" lon="-8.8667240">
        <ele>6.6</ele>
        <time>2021-05-18T08:19:45Z</time>
      </trkpt>
      <trkpt lat="41.7742370" lon="-8.8667230">
        <ele>6.6</ele>
        <time>2021-05-18T08:19:46Z</time>
      </trkpt>
      <trkpt lat="41.7742450" lon="-8.8667160">
        <ele>6.6</ele>
        <time>2021-05-18T08:19:47Z</time>
      </trkpt>
      <trkpt lat="41.7742530" lon="-8.8667090">
        <ele>6.5</ele>
        <time>2021-05-18T08:19:48Z</time>
      </trkpt>
      <trkpt lat="41.7742630" lon="-8.8667070">
        <ele>6.5</ele>
        <time>2021-05-18T08:19:49Z</time>
      </trkpt>
      <trkpt lat="41.7742760" lon="-8.8667050">
        <ele>6.5</ele>
        <time>2021-05-18T08:19:50Z</time>
      </trkpt>
      <trkpt lat="41.7742850" lon="-8.8667030">
        <ele>6.5</ele>
        <time>2021-05-18T08:19:51Z</time>
      </trkpt>
      <trkpt lat="41.7742930" lon="-8.8667020">
        <ele>6.5</ele>
        <time>2021-05-18T08:19:52Z</time>
      </trkpt>
      <trkpt lat="41.7743020" lon="-8.8667000">
        <ele>6.5</ele>
        <time>2021-05-18T08:19:53Z</time>
      </trkpt>
      <trkpt lat="41.7743290" lon="-8.8666850">
        <ele>6.5</ele>
        <time>2021-05-18T08:19:54Z</time>
      </trkpt>
      <trkpt lat="41.7743390" lon="-8.8666790">
        <ele>6.4</ele>
        <time>2021-05-18T08:19:55Z</time>
      </trkpt>
      <trkpt lat="41.7743640" lon="-8.8666640">
        <ele>6.4</ele>
        <time>2021-05-18T08:19:56Z</time>
      </trkpt>
      <trkpt lat="41.7743720" lon="-8.8666600">
        <ele>6.4</ele>
        <time>2021-05-18T08:19:57Z</time>
      </trkpt>
      <trkpt lat="41.7743890" lon="-8.8666530">
        <ele>6.4</ele>
        <time>2021-05-18T08:19:58Z</time>
      </trkpt>
      <trkpt lat="41.7744020" lon="-8.8666400">
        <ele>6.4</ele>
        <time>2021-05-18T08:19:59Z</time>
      </trkpt>
      <trkpt lat="41.7744200" lon="-8.8666390">
        <ele>6.3</ele>
        <time>2021-05-18T08:20:00Z</time>
      </trkpt>
      <trkpt lat="41.7744380" lon="-8.8666360">
        <ele>6.3</ele>
        <time>2021-05-18T08:20:01Z</time>
      </trkpt>
      <trkpt lat="41.7744560" lon="-8.8666350">
        <ele>6.3</ele>
        <time>2021-05-18T08:20:02Z</time>
      </trkpt>
      <trkpt lat="41.7744710" lon="-8.8666280">
        <ele>6.3</ele>
        <time>2021-05-18T08:20:03Z</time>
      </trkpt>
      <trkpt lat="41.7744850" lon="-8.8666140">
        <ele>6.3</ele>
        <time>2021-05-18T08:20:04Z</time>
      </trkpt>
      <trkpt lat="41.7745010" lon="-8.8666130">
        <ele>6.3</ele>
        <time>2021-05-18T08:20:05Z</time>
      </trkpt>
      <trkpt lat="41.7745180" lon="-8.8666110">
        <ele>6.2</ele>
        <time>2021-05-18T08:20:06Z</time>
      </trkpt>
      <trkpt lat="41.7745360" lon="-8.8666060">
        <ele>6.2</ele>
        <time>2021-05-18T08:20:07Z</time>
      </trkpt>
      <trkpt lat="41.7745510" lon="-8.8666010">
        <ele>6.2</ele>
        <time>2021-05-18T08:20:08Z</time>
      </trkpt>
      <trkpt lat="41.7745650" lon="-8.8665910">
        <ele>6.2</ele>
        <time>2021-05-18T08:20:09Z</time>
      </trkpt>
      <trkpt lat="41.7745800" lon="-8.8665850">
        <ele>6.2</ele>
        <time>2021-05-18T08:20:10Z</time>
      </trkpt>
      <trkpt lat="41.7745940" lon="-8.8665740">
        <ele>6.2</ele>
        <time>2021-05-18T08:20:11Z</time>
      </trkpt>
      <trkpt lat="41.7746090" lon="-8.8665680">
        <ele>6.2</ele>
        <time>2021-05-18T08:20:12Z</time>
      </trkpt>
      <trkpt lat="41.7746240" lon="-8.8665640">
        <ele>6.2</ele>
        <time>2021-05-18T08:20:13Z</time>
      </trkpt>
      <trkpt lat="41.7746390" lon="-8.8665620">
        <ele>6.2</ele>
        <time>2021-05-18T08:20:14Z</time>
      </trkpt>
      <trkpt lat="41.7746520" lon="-8.8665580">
        <ele>6.2</ele>
        <time>2021-05-18T08:20:15Z</time>
      </trkpt>
      <trkpt lat="41.7746600" lon="-8.8665540">
        <ele>6.2</ele>
        <time>2021-05-18T08:20:16Z</time>
      </trkpt>
      <trkpt lat="41.7746740" lon="-8.8665480">
        <ele>6.2</ele>
        <time>2021-05-18T08:20:17Z</time>
      </trkpt>
      <trkpt lat="41.7746840" lon="-8.8665410">
        <ele>6.2</ele>
        <time>2021-05-18T08:20:18Z</time>
      </trkpt>
      <trkpt lat="41.7746940" lon="-8.8665430">
        <ele>6.2</ele>
        <time>2021-05-18T08:20:19Z</time>
      </trkpt>
      <trkpt lat="41.7747070" lon="-8.8665430">
        <ele>6.2</ele>
        <time>2021-05-18T08:20:20Z</time>
      </trkpt>
      <trkpt lat="41.7747180" lon="-8.8665340">
        <ele>6.2</ele>
        <time>2021-05-18T08:20:21Z</time>
      </trkpt>
      <trkpt lat="41.7747280" lon="-8.8665210">
        <ele>6.2</ele>
        <time>2021-05-18T08:20:22Z</time>
      </trkpt>
      <trkpt lat="41.7747380" lon="-8.8665170">
        <ele>6.2</ele>
        <time>2021-05-18T08:20:23Z</time>
      </trkpt>
      <trkpt lat="41.7747440" lon="-8.8665180">
        <ele>6.2</ele>
        <time>2021-05-18T08:20:24Z</time>
      </trkpt>
      <trkpt lat="41.7747570" lon="-8.8665020">
        <ele>6.2</ele>
        <time>2021-05-18T08:20:25Z</time>
      </trkpt>
      <trkpt lat="41.7747740" lon="-8.8664950">
        <ele>6.2</ele>
        <time>2021-05-18T08:20:26Z</time>
      </trkpt>
      <trkpt lat="41.7747930" lon="-8.8664860">
        <ele>6.2</ele>
        <time>2021-05-18T08:20:27Z</time>
      </trkpt>
      <trkpt lat="41.7748020" lon="-8.8664840">
        <ele>6.2</ele>
        <time>2021-05-18T08:20:28Z</time>
      </trkpt>
      <trkpt lat="41.7748110" lon="-8.8664820">
        <ele>6.2</ele>
        <time>2021-05-18T08:20:29Z</time>
      </trkpt>
      <trkpt lat="41.7748330" lon="-8.8664680">
        <ele>6.2</ele>
        <time>2021-05-18T08:20:30Z</time>
      </trkpt>
      <trkpt lat="41.7748450" lon="-8.8664660">
        <ele>6.2</ele>
        <time>2021-05-18T08:20:31Z</time>
      </trkpt>
      <trkpt lat="41.7748570" lon="-8.8664630">
        <ele>6.2</ele>
        <time>2021-05-18T08:20:32Z</time>
      </trkpt>
      <trkpt lat="41.7748730" lon="-8.8664560">
        <ele>6.2</ele>
        <time>2021-05-18T08:20:33Z</time>
      </trkpt>
      <trkpt lat="41.7748890" lon="-8.8664490">
        <ele>6.3</ele>
        <time>2021-05-18T08:20:34Z</time>
      </trkpt>
      <trkpt lat="41.7749020" lon="-8.8664420">
        <ele>6.3</ele>
        <time>2021-05-18T08:20:35Z</time>
      </trkpt>
      <trkpt lat="41.7749160" lon="-8.8664350">
        <ele>6.3</ele>
        <time>2021-05-18T08:20:36Z</time>
      </trkpt>
      <trkpt lat="41.7749290" lon="-8.8664300">
        <ele>6.3</ele>
        <time>2021-05-18T08:20:37Z</time>
      </trkpt>
      <trkpt lat="41.7749430" lon="-8.8664260">
        <ele>6.3</ele>
        <time>2021-05-18T08:20:38Z</time>
      </trkpt>
      <trkpt lat="41.7749590" lon="-8.8664210">
        <ele>6.3</ele>
        <time>2021-05-18T08:20:39Z</time>
      </trkpt>
      <trkpt lat="41.7749750" lon="-8.8664200">
        <ele>6.3</ele>
        <time>2021-05-18T08:20:40Z</time>
      </trkpt>
      <trkpt lat="41.7749890" lon="-8.8664200">
        <ele>6.3</ele>
        <time>2021-05-18T08:20:41Z</time>
      </trkpt>
      <trkpt lat="41.7750040" lon="-8.8664120">
        <ele>6.3</ele>
        <time>2021-05-18T08:20:42Z</time>
      </trkpt>
      <trkpt lat="41.7750180" lon="-8.8664030">
        <ele>6.3</ele>
        <time>2021-05-18T08:20:43Z</time>
      </trkpt>
      <trkpt lat="41.7750350" lon="-8.8664010">
        <ele>6.3</ele>
        <time>2021-05-18T08:20:44Z</time>
      </trkpt>
      <trkpt lat="41.7750490" lon="-8.8663940">
        <ele>6.3</ele>
        <time>2021-05-18T08:20:45Z</time>
      </trkpt>
      <trkpt lat="41.7750640" lon="-8.8663900">
        <ele>6.3</ele>
        <time>2021-05-18T08:20:46Z</time>
      </trkpt>
      <trkpt lat="41.7750780" lon="-8.8663830">
        <ele>6.4</ele>
        <time>2021-05-18T08:20:47Z</time>
      </trkpt>
      <trkpt lat="41.7750920" lon="-8.8663740">
        <ele>6.4</ele>
        <time>2021-05-18T08:20:48Z</time>
      </trkpt>
      <trkpt lat="41.7751070" lon="-8.8663710">
        <ele>6.4</ele>
        <time>2021-05-18T08:20:49Z</time>
      </trkpt>
      <trkpt lat="41.7751210" lon="-8.8663630">
        <ele>6.4</ele>
        <time>2021-05-18T08:20:50Z</time>
      </trkpt>
      <trkpt lat="41.7751350" lon="-8.8663560">
        <ele>6.4</ele>
        <time>2021-05-18T08:20:51Z</time>
      </trkpt>
      <trkpt lat="41.7751490" lon="-8.8663470">
        <ele>6.4</ele>
        <time>2021-05-18T08:20:52Z</time>
      </trkpt>
      <trkpt lat="41.7751650" lon="-8.8663380">
        <ele>6.5</ele>
        <time>2021-05-18T08:20:53Z</time>
      </trkpt>
      <trkpt lat="41.7751790" lon="-8.8663320">
        <ele>6.5</ele>
        <time>2021-05-18T08:20:54Z</time>
      </trkpt>
      <trkpt lat="41.7751950" lon="-8.8663290">
        <ele>6.5</ele>
        <time>2021-05-18T08:20:55Z</time>
      </trkpt>
      <trkpt lat="41.7752080" lon="-8.8663240">
        <ele>6.5</ele>
        <time>2021-05-18T08:20:56Z</time>
      </trkpt>
      <trkpt lat="41.7752240" lon="-8.8663190">
        <ele>6.5</ele>
        <time>2021-05-18T08:20:57Z</time>
      </trkpt>
      <trkpt lat="41.7752380" lon="-8.8663130">
        <ele>6.5</ele>
        <time>2021-05-18T08:20:58Z</time>
      </trkpt>
      <trkpt lat="41.7752540" lon="-8.8663060">
        <ele>6.6</ele>
        <time>2021-05-18T08:20:59Z</time>
      </trkpt>
      <trkpt lat="41.7752670" lon="-8.8663030">
        <ele>6.6</ele>
        <time>2021-05-18T08:21:00Z</time>
      </trkpt>
      <trkpt lat="41.7752830" lon="-8.8663000">
        <ele>6.6</ele>
        <time>2021-05-18T08:21:01Z</time>
      </trkpt>
      <trkpt lat="41.7752960" lon="-8.8662920">
        <ele>6.6</ele>
        <time>2021-05-18T08:21:02Z</time>
      </trkpt>
      <trkpt lat="41.7753110" lon="-8.8662860">
        <ele>6.6</ele>
        <time>2021-05-18T08:21:03Z</time>
      </trkpt>
      <trkpt lat="41.7753250" lon="-8.8662860">
        <ele>6.7</ele>
        <time>2021-05-18T08:21:04Z</time>
      </trkpt>
      <trkpt lat="41.7753380" lon="-8.8662760">
        <ele>6.7</ele>
        <time>2021-05-18T08:21:05Z</time>
      </trkpt>
      <trkpt lat="41.7753530" lon="-8.8662730">
        <ele>6.7</ele>
        <time>2021-05-18T08:21:06Z</time>
      </trkpt>
      <trkpt lat="41.7753680" lon="-8.8662710">
        <ele>6.7</ele>
        <time>2021-05-18T08:21:07Z</time>
      </trkpt>
      <trkpt lat="41.7753810" lon="-8.8662680">
        <ele>6.8</ele>
        <time>2021-05-18T08:21:08Z</time>
      </trkpt>
      <trkpt lat="41.7753950" lon="-8.8662610">
        <ele>6.8</ele>
        <time>2021-05-18T08:21:09Z</time>
      </trkpt>
      <trkpt lat="41.7754050" lon="-8.8662530">
        <ele>6.8</ele>
        <time>2021-05-18T08:21:10Z</time>
      </trkpt>
      <trkpt lat="41.7754170" lon="-8.8662510">
        <ele>6.8</ele>
        <time>2021-05-18T08:21:11Z</time>
      </trkpt>
      <trkpt lat="41.7754310" lon="-8.8662480">
        <ele>6.8</ele>
        <time>2021-05-18T08:21:12Z</time>
      </trkpt>
      <trkpt lat="41.7754410" lon="-8.8662510">
        <ele>6.9</ele>
        <time>2021-05-18T08:21:13Z</time>
      </trkpt>
      <trkpt lat="41.7754530" lon="-8.8662530">
        <ele>6.9</ele>
        <time>2021-05-18T08:21:14Z</time>
      </trkpt>
      <trkpt lat="41.7754630" lon="-8.8662550">
        <ele>6.9</ele>
        <time>2021-05-18T08:21:15Z</time>
      </trkpt>
      <trkpt lat="41.7754700" lon="-8.8662620">
        <ele>6.9</ele>
        <time>2021-05-18T08:21:16Z</time>
      </trkpt>
      <trkpt lat="41.7754650" lon="-8.8662620">
        <ele>6.9</ele>
        <time>2021-05-18T08:21:17Z</time>
      </trkpt>
      <trkpt lat="41.7754630" lon="-8.8662620">
        <ele>6.9</ele>
        <time>2021-05-18T08:21:18Z</time>
      </trkpt>
      <trkpt lat="41.7754610" lon="-8.8662630">
        <ele>6.9</ele>
        <time>2021-05-18T08:21:19Z</time>
      </trkpt>
      <trkpt lat="41.7754580" lon="-8.8662630">
        <ele>6.9</ele>
        <time>2021-05-18T08:21:20Z</time>
      </trkpt>
      <trkpt lat="41.7754560" lon="-8.8662630">
        <ele>6.9</ele>
        <time>2021-05-18T08:21:21Z</time>
      </trkpt>
      <trkpt lat="41.7754540" lon="-8.8662630">
        <ele>6.9</ele>
        <time>2021-05-18T08:21:22Z</time>
      </trkpt>
      <trkpt lat="41.7754520" lon="-8.8662630">
        <ele>6.9</ele>
        <time>2021-05-18T08:21:23Z</time>
      </trkpt>
      <trkpt lat="41.7754500" lon="-8.8662630">
        <ele>6.9</ele>
        <time>2021-05-18T08:21:24Z</time>
      </trkpt>
      <trkpt lat="41.7754480" lon="-8.8662640">
        <ele>6.9</ele>
        <time>2021-05-18T08:21:25Z</time>
      </trkpt>
      <trkpt lat="41.7754450" lon="-8.8662640">
        <ele>6.9</ele>
        <time>2021-05-18T08:21:26Z</time>
      </trkpt>
      <trkpt lat="41.7754430" lon="-8.8662640">
        <ele>6.9</ele>
        <time>2021-05-18T08:21:27Z</time>
      </trkpt>
      <trkpt lat="41.7754410" lon="-8.8662640">
        <ele>6.9</ele>
        <time>2021-05-18T08:21:28Z</time>
      </trkpt>
      <trkpt lat="41.7754390" lon="-8.8662640">
        <ele>7.0</ele>
        <time>2021-05-18T08:21:29Z</time>
      </trkpt>
      <trkpt lat="41.7754370" lon="-8.8662640">
        <ele>7.0</ele>
        <time>2021-05-18T08:21:30Z</time>
      </trkpt>
      <trkpt lat="41.7754340" lon="-8.8662650">
        <ele>7.0</ele>
        <time>2021-05-18T08:21:31Z</time>
      </trkpt>
      <trkpt lat="41.7754320" lon="-8.8662650">
        <ele>7.0</ele>
        <time>2021-05-18T08:21:32Z</time>
      </trkpt>
      <trkpt lat="41.7754300" lon="-8.8662650">
        <ele>7.0</ele>
        <time>2021-05-18T08:21:33Z</time>
      </trkpt>
      <trkpt lat="41.7754280" lon="-8.8662650">
        <ele>7.0</ele>
        <time>2021-05-18T08:21:34Z</time>
      </trkpt>
      <trkpt lat="41.7754470" lon="-8.8662600">
        <ele>7.0</ele>
        <time>2021-05-18T08:21:35Z</time>
      </trkpt>
      <trkpt lat="41.7754560" lon="-8.8662600">
        <ele>7.0</ele>
        <time>2021-05-18T08:21:36Z</time>
      </trkpt>
      <trkpt lat="41.7754660" lon="-8.8662600">
        <ele>7.0</ele>
        <time>2021-05-18T08:21:37Z</time>
      </trkpt>
      <trkpt lat="41.7754800" lon="-8.8662690">
        <ele>7.1</ele>
        <time>2021-05-18T08:21:38Z</time>
      </trkpt>
      <trkpt lat="41.7754890" lon="-8.8662700">
        <ele>7.1</ele>
        <time>2021-05-18T08:21:39Z</time>
      </trkpt>
      <trkpt lat="41.7754970" lon="-8.8662780">
        <ele>7.1</ele>
        <time>2021-05-18T08:21:40Z</time>
      </trkpt>
      <trkpt lat="41.7755130" lon="-8.8662760">
        <ele>7.1</ele>
        <time>2021-05-18T08:21:41Z</time>
      </trkpt>
      <trkpt lat="41.7755260" lon="-8.8662900">
        <ele>7.1</ele>
        <time>2021-05-18T08:21:42Z</time>
      </trkpt>
      <trkpt lat="41.7755350" lon="-8.8662960">
        <ele>7.1</ele>
        <time>2021-05-18T08:21:43Z</time>
      </trkpt>
      <trkpt lat="41.7755470" lon="-8.8663000">
        <ele>7.1</ele>
        <time>2021-05-18T08:21:44Z</time>
      </trkpt>
      <trkpt lat="41.7755590" lon="-8.8663040">
        <ele>7.2</ele>
        <time>2021-05-18T08:21:45Z</time>
      </trkpt>
      <trkpt lat="41.7755750" lon="-8.8663130">
        <ele>7.2</ele>
        <time>2021-05-18T08:21:46Z</time>
      </trkpt>
      <trkpt lat="41.7755850" lon="-8.8663180">
        <ele>7.2</ele>
        <time>2021-05-18T08:21:47Z</time>
      </trkpt>
      <trkpt lat="41.7755950" lon="-8.8663230">
        <ele>7.2</ele>
        <time>2021-05-18T08:21:48Z</time>
      </trkpt>
      <trkpt lat="41.7756100" lon="-8.8663290">
        <ele>7.2</ele>
        <time>2021-05-18T08:21:49Z</time>
      </trkpt>
      <trkpt lat="41.7756220" lon="-8.8663300">
        <ele>7.2</ele>
        <time>2021-05-18T08:21:50Z</time>
      </trkpt>
      <trkpt lat="41.7756410" lon="-8.8663390">
        <ele>7.2</ele>
        <time>2021-05-18T08:21:51Z</time>
      </trkpt>
      <trkpt lat="41.7756510" lon="-8.8663360">
        <ele>7.2</ele>
        <time>2021-05-18T08:21:52Z</time>
      </trkpt>
      <trkpt lat="41.7756650" lon="-8.8663420">
        <ele>7.3</ele>
        <time>2021-05-18T08:21:53Z</time>
      </trkpt>
      <trkpt lat="41.7756810" lon="-8.8663480">
        <ele>7.3</ele>
        <time>2021-05-18T08:21:54Z</time>
      </trkpt>
      <trkpt lat="41.7756960" lon="-8.8663410">
        <ele>7.3</ele>
        <time>2021-05-18T08:21:55Z</time>
      </trkpt>
      <trkpt lat="41.7757100" lon="-8.8663370">
        <ele>7.3</ele>
        <time>2021-05-18T08:21:56Z</time>
      </trkpt>
      <trkpt lat="41.7757260" lon="-8.8663330">
        <ele>7.3</ele>
        <time>2021-05-18T08:21:57Z</time>
      </trkpt>
      <trkpt lat="41.7757400" lon="-8.8663300">
        <ele>7.3</ele>
        <time>2021-05-18T08:21:58Z</time>
      </trkpt>
      <trkpt lat="41.7757550" lon="-8.8663350">
        <ele>7.3</ele>
        <time>2021-05-18T08:21:59Z</time>
      </trkpt>
      <trkpt lat="41.7757710" lon="-8.8663430">
        <ele>7.3</ele>
        <time>2021-05-18T08:22:00Z</time>
      </trkpt>
      <trkpt lat="41.7757880" lon="-8.8663500">
        <ele>7.3</ele>
        <time>2021-05-18T08:22:01Z</time>
      </trkpt>
      <trkpt lat="41.7758030" lon="-8.8663560">
        <ele>7.3</ele>
        <time>2021-05-18T08:22:02Z</time>
      </trkpt>
      <trkpt lat="41.7758190" lon="-8.8663570">
        <ele>7.3</ele>
        <time>2021-05-18T08:22:03Z</time>
      </trkpt>
      <trkpt lat="41.7758330" lon="-8.8663680">
        <ele>7.4</ele>
        <time>2021-05-18T08:22:04Z</time>
      </trkpt>
      <trkpt lat="41.7758470" lon="-8.8663750">
        <ele>7.4</ele>
        <time>2021-05-18T08:22:05Z</time>
      </trkpt>
      <trkpt lat="41.7758630" lon="-8.8663810">
        <ele>7.4</ele>
        <time>2021-05-18T08:22:06Z</time>
      </trkpt>
      <trkpt lat="41.7758790" lon="-8.8663830">
        <ele>7.4</ele>
        <time>2021-05-18T08:22:07Z</time>
      </trkpt>
      <trkpt lat="41.7758940" lon="-8.8663850">
        <ele>7.4</ele>
        <time>2021-05-18T08:22:08Z</time>
      </trkpt>
      <trkpt lat="41.7759100" lon="-8.8663930">
        <ele>7.4</ele>
        <time>2021-05-18T08:22:09Z</time>
      </trkpt>
      <trkpt lat="41.7759230" lon="-8.8664010">
        <ele>7.4</ele>
        <time>2021-05-18T08:22:10Z</time>
      </trkpt>
      <trkpt lat="41.7759380" lon="-8.8664060">
        <ele>7.4</ele>
        <time>2021-05-18T08:22:11Z</time>
      </trkpt>
      <trkpt lat="41.7759500" lon="-8.8664090">
        <ele>7.4</ele>
        <time>2021-05-18T08:22:12Z</time>
      </trkpt>
      <trkpt lat="41.7759650" lon="-8.8664140">
        <ele>7.4</ele>
        <time>2021-05-18T08:22:13Z</time>
      </trkpt>
      <trkpt lat="41.7759790" lon="-8.8664170">
        <ele>7.4</ele>
        <time>2021-05-18T08:22:14Z</time>
      </trkpt>
      <trkpt lat="41.7759930" lon="-8.8664240">
        <ele>7.4</ele>
        <time>2021-05-18T08:22:15Z</time>
      </trkpt>
      <trkpt lat="41.7760080" lon="-8.8664250">
        <ele>7.4</ele>
        <time>2021-05-18T08:22:16Z</time>
      </trkpt>
      <trkpt lat="41.7760210" lon="-8.8664240">
        <ele>7.4</ele>
        <time>2021-05-18T08:22:17Z</time>
      </trkpt>
      <trkpt lat="41.7760350" lon="-8.8664300">
        <ele>7.4</ele>
        <time>2021-05-18T08:22:18Z</time>
      </trkpt>
      <trkpt lat="41.7760490" lon="-8.8664320">
        <ele>7.4</ele>
        <time>2021-05-18T08:22:19Z</time>
      </trkpt>
      <trkpt lat="41.7760640" lon="-8.8664360">
        <ele>7.4</ele>
        <time>2021-05-18T08:22:20Z</time>
      </trkpt>
      <trkpt lat="41.7760790" lon="-8.8664480">
        <ele>7.4</ele>
        <time>2021-05-18T08:22:21Z</time>
      </trkpt>
      <trkpt lat="41.7760930" lon="-8.8664490">
        <ele>7.4</ele>
        <time>2021-05-18T08:22:22Z</time>
      </trkpt>
      <trkpt lat="41.7761070" lon="-8.8664560">
        <ele>7.4</ele>
        <time>2021-05-18T08:22:23Z</time>
      </trkpt>
      <trkpt lat="41.7761220" lon="-8.8664610">
        <ele>7.4</ele>
        <time>2021-05-18T08:22:24Z</time>
      </trkpt>
      <trkpt lat="41.7761350" lon="-8.8664690">
        <ele>7.4</ele>
        <time>2021-05-18T08:22:25Z</time>
      </trkpt>
      <trkpt lat="41.7761510" lon="-8.8664700">
        <ele>7.4</ele>
        <time>2021-05-18T08:22:26Z</time>
      </trkpt>
      <trkpt lat="41.7761670" lon="-8.8664740">
        <ele>7.4</ele>
        <time>2021-05-18T08:22:27Z</time>
      </trkpt>
      <trkpt lat="41.7761830" lon="-8.8664810">
        <ele>7.4</ele>
        <time>2021-05-18T08:22:28Z</time>
      </trkpt>
      <trkpt lat="41.7762050" lon="-8.8664860">
        <ele>7.5</ele>
        <time>2021-05-18T08:22:29Z</time>
      </trkpt>
      <trkpt lat="41.7762140" lon="-8.8664910">
        <ele>7.5</ele>
        <time>2021-05-18T08:22:30Z</time>
      </trkpt>
      <trkpt lat="41.7762230" lon="-8.8664960">
        <ele>7.5</ele>
        <time>2021-05-18T08:22:31Z</time>
      </trkpt>
      <trkpt lat="41.7762370" lon="-8.8664970">
        <ele>7.5</ele>
        <time>2021-05-18T08:22:32Z</time>
      </trkpt>
      <trkpt lat="41.7762510" lon="-8.8665020">
        <ele>7.5</ele>
        <time>2021-05-18T08:22:33Z</time>
      </trkpt>
      <trkpt lat="41.7762640" lon="-8.8665140">
        <ele>7.5</ele>
        <time>2021-05-18T08:22:34Z</time>
      </trkpt>
      <trkpt lat="41.7762760" lon="-8.8665200">
        <ele>7.5</ele>
        <time>2021-05-18T08:22:35Z</time>
      </trkpt>
      <trkpt lat="41.7762890" lon="-8.8665230">
        <ele>7.5</ele>
        <time>2021-05-18T08:22:36Z</time>
      </trkpt>
      <trkpt lat="41.7763040" lon="-8.8665280">
        <ele>7.5</ele>
        <time>2021-05-18T08:22:37Z</time>
      </trkpt>
      <trkpt lat="41.7763160" lon="-8.8665300">
        <ele>7.5</ele>
        <time>2021-05-18T08:22:38Z</time>
      </trkpt>
      <trkpt lat="41.7763280" lon="-8.8665360">
        <ele>7.5</ele>
        <time>2021-05-18T08:22:39Z</time>
      </trkpt>
      <trkpt lat="41.7763390" lon="-8.8665360">
        <ele>7.5</ele>
        <time>2021-05-18T08:22:40Z</time>
      </trkpt>
      <trkpt lat="41.7763550" lon="-8.8665460">
        <ele>7.5</ele>
        <time>2021-05-18T08:22:41Z</time>
      </trkpt>
      <trkpt lat="41.7763700" lon="-8.8665480">
        <ele>7.5</ele>
        <time>2021-05-18T08:22:42Z</time>
      </trkpt>
      <trkpt lat="41.7763850" lon="-8.8665510">
        <ele>7.5</ele>
        <time>2021-05-18T08:22:43Z</time>
      </trkpt>
      <trkpt lat="41.7763990" lon="-8.8665580">
        <ele>7.5</ele>
        <time>2021-05-18T08:22:44Z</time>
      </trkpt>
      <trkpt lat="41.7764110" lon="-8.8665690">
        <ele>7.5</ele>
        <time>2021-05-18T08:22:45Z</time>
      </trkpt>
      <trkpt lat="41.7764260" lon="-8.8665670">
        <ele>7.5</ele>
        <time>2021-05-18T08:22:46Z</time>
      </trkpt>
      <trkpt lat="41.7764420" lon="-8.8665680">
        <ele>7.6</ele>
        <time>2021-05-18T08:22:47Z</time>
      </trkpt>
      <trkpt lat="41.7764560" lon="-8.8665670">
        <ele>7.6</ele>
        <time>2021-05-18T08:22:48Z</time>
      </trkpt>
      <trkpt lat="41.7764710" lon="-8.8665690">
        <ele>7.6</ele>
        <time>2021-05-18T08:22:49Z</time>
      </trkpt>
      <trkpt lat="41.7764860" lon="-8.8665810">
        <ele>7.6</ele>
        <time>2021-05-18T08:22:50Z</time>
      </trkpt>
      <trkpt lat="41.7764990" lon="-8.8665850">
        <ele>7.6</ele>
        <time>2021-05-18T08:22:51Z</time>
      </trkpt>
      <trkpt lat="41.7765150" lon="-8.8665930">
        <ele>7.6</ele>
        <time>2021-05-18T08:22:52Z</time>
      </trkpt>
      <trkpt lat="41.7765370" lon="-8.8666050">
        <ele>7.6</ele>
        <time>2021-05-18T08:22:53Z</time>
      </trkpt>
      <trkpt lat="41.7765470" lon="-8.8666060">
        <ele>7.6</ele>
        <time>2021-05-18T08:22:54Z</time>
      </trkpt>
      <trkpt lat="41.7765580" lon="-8.8666080">
        <ele>7.6</ele>
        <time>2021-05-18T08:22:55Z</time>
      </trkpt>
      <trkpt lat="41.7765700" lon="-8.8666100">
        <ele>7.6</ele>
        <time>2021-05-18T08:22:56Z</time>
      </trkpt>
      <trkpt lat="41.7765860" lon="-8.8666150">
        <ele>7.6</ele>
        <time>2021-05-18T08:22:57Z</time>
      </trkpt>
      <trkpt lat="41.7766000" lon="-8.8666210">
        <ele>7.6</ele>
        <time>2021-05-18T08:22:58Z</time>
      </trkpt>
      <trkpt lat="41.7766120" lon="-8.8666270">
        <ele>7.6</ele>
        <time>2021-05-18T08:22:59Z</time>
      </trkpt>
      <trkpt lat="41.7766250" lon="-8.8666350">
        <ele>7.6</ele>
        <time>2021-05-18T08:23:00Z</time>
      </trkpt>
      <trkpt lat="41.7766390" lon="-8.8666380">
        <ele>7.6</ele>
        <time>2021-05-18T08:23:01Z</time>
      </trkpt>
      <trkpt lat="41.7766550" lon="-8.8666430">
        <ele>7.6</ele>
        <time>2021-05-18T08:23:02Z</time>
      </trkpt>
      <trkpt lat="41.7766670" lon="-8.8666480">
        <ele>7.6</ele>
        <time>2021-05-18T08:23:03Z</time>
      </trkpt>
      <trkpt lat="41.7766810" lon="-8.8666490">
        <ele>7.6</ele>
        <time>2021-05-18T08:23:04Z</time>
      </trkpt>
      <trkpt lat="41.7766960" lon="-8.8666540">
        <ele>7.6</ele>
        <time>2021-05-18T08:23:05Z</time>
      </trkpt>
      <trkpt lat="41.7767120" lon="-8.8666640">
        <ele>7.6</ele>
        <time>2021-05-18T08:23:06Z</time>
      </trkpt>
      <trkpt lat="41.7767260" lon="-8.8666710">
        <ele>7.6</ele>
        <time>2021-05-18T08:23:07Z</time>
      </trkpt>
      <trkpt lat="41.7767350" lon="-8.8666760">
        <ele>7.6</ele>
        <time>2021-05-18T08:23:08Z</time>
      </trkpt>
      <trkpt lat="41.7767510" lon="-8.8666840">
        <ele>7.6</ele>
        <time>2021-05-18T08:23:09Z</time>
      </trkpt>
      <trkpt lat="41.7767670" lon="-8.8666810">
        <ele>7.6</ele>
        <time>2021-05-18T08:23:10Z</time>
      </trkpt>
      <trkpt lat="41.7767810" lon="-8.8666910">
        <ele>7.6</ele>
        <time>2021-05-18T08:23:11Z</time>
      </trkpt>
      <trkpt lat="41.7767990" lon="-8.8666950">
        <ele>7.6</ele>
        <time>2021-05-18T08:23:12Z</time>
      </trkpt>
      <trkpt lat="41.7768130" lon="-8.8667040">
        <ele>7.6</ele>
        <time>2021-05-18T08:23:13Z</time>
      </trkpt>
      <trkpt lat="41.7768250" lon="-8.8667110">
        <ele>7.6</ele>
        <time>2021-05-18T08:23:14Z</time>
      </trkpt>
      <trkpt lat="41.7768390" lon="-8.8667170">
        <ele>7.6</ele>
        <time>2021-05-18T08:23:15Z</time>
      </trkpt>
      <trkpt lat="41.7768610" lon="-8.8667210">
        <ele>7.6</ele>
        <time>2021-05-18T08:23:16Z</time>
      </trkpt>
      <trkpt lat="41.7768700" lon="-8.8667230">
        <ele>7.6</ele>
        <time>2021-05-18T08:23:17Z</time>
      </trkpt>
      <trkpt lat="41.7768780" lon="-8.8667250">
        <ele>7.6</ele>
        <time>2021-05-18T08:23:18Z</time>
      </trkpt>
      <trkpt lat="41.7768930" lon="-8.8667370">
        <ele>7.6</ele>
        <time>2021-05-18T08:23:19Z</time>
      </trkpt>
      <trkpt lat="41.7769060" lon="-8.8667450">
        <ele>7.6</ele>
        <time>2021-05-18T08:23:20Z</time>
      </trkpt>
      <trkpt lat="41.7769190" lon="-8.8667450">
        <ele>7.6</ele>
        <time>2021-05-18T08:23:21Z</time>
      </trkpt>
      <trkpt lat="41.7769330" lon="-8.8667490">
        <ele>7.6</ele>
        <time>2021-05-18T08:23:22Z</time>
      </trkpt>
      <trkpt lat="41.7769480" lon="-8.8667500">
        <ele>7.6</ele>
        <time>2021-05-18T08:23:23Z</time>
      </trkpt>
      <trkpt lat="41.7769620" lon="-8.8667550">
        <ele>7.6</ele>
        <time>2021-05-18T08:23:24Z</time>
      </trkpt>
      <trkpt lat="41.7769830" lon="-8.8667650">
        <ele>7.6</ele>
        <time>2021-05-18T08:23:25Z</time>
      </trkpt>
      <trkpt lat="41.7769920" lon="-8.8667700">
        <ele>7.6</ele>
        <time>2021-05-18T08:23:26Z</time>
      </trkpt>
      <trkpt lat="41.7770020" lon="-8.8667740">
        <ele>7.6</ele>
        <time>2021-05-18T08:23:27Z</time>
      </trkpt>
      <trkpt lat="41.7770150" lon="-8.8667810">
        <ele>7.6</ele>
        <time>2021-05-18T08:23:28Z</time>
      </trkpt>
      <trkpt lat="41.7770290" lon="-8.8667820">
        <ele>7.6</ele>
        <time>2021-05-18T08:23:29Z</time>
      </trkpt>
      <trkpt lat="41.7770490" lon="-8.8667930">
        <ele>7.6</ele>
        <time>2021-05-18T08:23:30Z</time>
      </trkpt>
      <trkpt lat="41.7770580" lon="-8.8667970">
        <ele>7.6</ele>
        <time>2021-05-18T08:23:31Z</time>
      </trkpt>
      <trkpt lat="41.7770670" lon="-8.8668020">
        <ele>7.6</ele>
        <time>2021-05-18T08:23:32Z</time>
      </trkpt>
      <trkpt lat="41.7770800" lon="-8.8668090">
        <ele>7.6</ele>
        <time>2021-05-18T08:23:33Z</time>
      </trkpt>
      <trkpt lat="41.7770940" lon="-8.8668130">
        <ele>7.6</ele>
        <time>2021-05-18T08:23:34Z</time>
      </trkpt>
      <trkpt lat="41.7771150" lon="-8.8668230">
        <ele>7.6</ele>
        <time>2021-05-18T08:23:35Z</time>
      </trkpt>
      <trkpt lat="41.7771220" lon="-8.8668270">
        <ele>7.6</ele>
        <time>2021-05-18T08:23:36Z</time>
      </trkpt>
      <trkpt lat="41.7771290" lon="-8.8668320">
        <ele>7.6</ele>
        <time>2021-05-18T08:23:37Z</time>
      </trkpt>
      <trkpt lat="41.7771500" lon="-8.8668380">
        <ele>7.6</ele>
        <time>2021-05-18T08:23:38Z</time>
      </trkpt>
      <trkpt lat="41.7771600" lon="-8.8668390">
        <ele>7.6</ele>
        <time>2021-05-18T08:23:39Z</time>
      </trkpt>
      <trkpt lat="41.7771690" lon="-8.8668410">
        <ele>7.6</ele>
        <time>2021-05-18T08:23:40Z</time>
      </trkpt>
      <trkpt lat="41.7771830" lon="-8.8668460">
        <ele>7.6</ele>
        <time>2021-05-18T08:23:41Z</time>
      </trkpt>
      <trkpt lat="41.7771940" lon="-8.8668540">
        <ele>7.6</ele>
        <time>2021-05-18T08:23:42Z</time>
      </trkpt>
      <trkpt lat="41.7772070" lon="-8.8668650">
        <ele>7.6</ele>
        <time>2021-05-18T08:23:43Z</time>
      </trkpt>
      <trkpt lat="41.7772200" lon="-8.8668670">
        <ele>7.6</ele>
        <time>2021-05-18T08:23:44Z</time>
      </trkpt>
      <trkpt lat="41.7772350" lon="-8.8668690">
        <ele>7.6</ele>
        <time>2021-05-18T08:23:45Z</time>
      </trkpt>
      <trkpt lat="41.7772470" lon="-8.8668710">
        <ele>7.6</ele>
        <time>2021-05-18T08:23:46Z</time>
      </trkpt>
      <trkpt lat="41.7772700" lon="-8.8668800">
        <ele>7.6</ele>
        <time>2021-05-18T08:23:47Z</time>
      </trkpt>
      <trkpt lat="41.7772780" lon="-8.8668830">
        <ele>7.6</ele>
        <time>2021-05-18T08:23:48Z</time>
      </trkpt>
      <trkpt lat="41.7772870" lon="-8.8668860">
        <ele>7.6</ele>
        <time>2021-05-18T08:23:49Z</time>
      </trkpt>
      <trkpt lat="41.7773000" lon="-8.8668880">
        <ele>7.6</ele>
        <time>2021-05-18T08:23:50Z</time>
      </trkpt>
      <trkpt lat="41.7773140" lon="-8.8668970">
        <ele>7.6</ele>
        <time>2021-05-18T08:23:51Z</time>
      </trkpt>
      <trkpt lat="41.7773340" lon="-8.8669050">
        <ele>7.6</ele>
        <time>2021-05-18T08:23:52Z</time>
      </trkpt>
      <trkpt lat="41.7773440" lon="-8.8669080">
        <ele>7.6</ele>
        <time>2021-05-18T08:23:53Z</time>
      </trkpt>
      <trkpt lat="41.7773530" lon="-8.8669100">
        <ele>7.6</ele>
        <time>2021-05-18T08:23:54Z</time>
      </trkpt>
      <trkpt lat="41.7773640" lon="-8.8669180">
        <ele>7.6</ele>
        <time>2021-05-18T08:23:55Z</time>
      </trkpt>
      <trkpt lat="41.7773790" lon="-8.8669210">
        <ele>7.6</ele>
        <time>2021-05-18T08:23:56Z</time>
      </trkpt>
      <trkpt lat="41.7773990" lon="-8.8669270">
        <ele>7.6</ele>
        <time>2021-05-18T08:23:57Z</time>
      </trkpt>
      <trkpt lat="41.7774090" lon="-8.8669300">
        <ele>7.6</ele>
        <time>2021-05-18T08:23:58Z</time>
      </trkpt>
      <trkpt lat="41.7774180" lon="-8.8669340">
        <ele>7.6</ele>
        <time>2021-05-18T08:23:59Z</time>
      </trkpt>
      <trkpt lat="41.7774320" lon="-8.8669380">
        <ele>7.6</ele>
        <time>2021-05-18T08:24:00Z</time>
      </trkpt>
      <trkpt lat="41.7774460" lon="-8.8669460">
        <ele>7.6</ele>
        <time>2021-05-18T08:24:01Z</time>
      </trkpt>
      <trkpt lat="41.7774600" lon="-8.8669480">
        <ele>7.6</ele>
        <time>2021-05-18T08:24:02Z</time>
      </trkpt>
      <trkpt lat="41.7774730" lon="-8.8669580">
        <ele>7.6</ele>
        <time>2021-05-18T08:24:03Z</time>
      </trkpt>
      <trkpt lat="41.7774930" lon="-8.8669700">
        <ele>7.6</ele>
        <time>2021-05-18T08:24:04Z</time>
      </trkpt>
      <trkpt lat="41.7775010" lon="-8.8669730">
        <ele>7.6</ele>
        <time>2021-05-18T08:24:05Z</time>
      </trkpt>
      <trkpt lat="41.7775100" lon="-8.8669760">
        <ele>7.6</ele>
        <time>2021-05-18T08:24:06Z</time>
      </trkpt>
      <trkpt lat="41.7775240" lon="-8.8669840">
        <ele>7.6</ele>
        <time>2021-05-18T08:24:07Z</time>
      </trkpt>
      <trkpt lat="41.7775380" lon="-8.8669830">
        <ele>7.6</ele>
        <time>2021-05-18T08:24:08Z</time>
      </trkpt>
      <trkpt lat="41.7775610" lon="-8.8669890">
        <ele>7.6</ele>
        <time>2021-05-18T08:24:09Z</time>
      </trkpt>
      <trkpt lat="41.7775680" lon="-8.8669930">
        <ele>7.6</ele>
        <time>2021-05-18T08:24:10Z</time>
      </trkpt>
      <trkpt lat="41.7775760" lon="-8.8669960">
        <ele>7.6</ele>
        <time>2021-05-18T08:24:11Z</time>
      </trkpt>
      <trkpt lat="41.7775920" lon="-8.8669970">
        <ele>7.6</ele>
        <time>2021-05-18T08:24:12Z</time>
      </trkpt>
      <trkpt lat="41.7776060" lon="-8.8670090">
        <ele>7.6</ele>
        <time>2021-05-18T08:24:13Z</time>
      </trkpt>
      <trkpt lat="41.7776210" lon="-8.8670120">
        <ele>7.6</ele>
        <time>2021-05-18T08:24:14Z</time>
      </trkpt>
      <trkpt lat="41.7776340" lon="-8.8670170">
        <ele>7.6</ele>
        <time>2021-05-18T08:24:15Z</time>
      </trkpt>
      <trkpt lat="41.7776560" lon="-8.8670240">
        <ele>7.6</ele>
        <time>2021-05-18T08:24:16Z</time>
      </trkpt>
      <trkpt lat="41.7776660" lon="-8.8670290">
        <ele>7.6</ele>
        <time>2021-05-18T08:24:17Z</time>
      </trkpt>
      <trkpt lat="41.7776760" lon="-8.8670330">
        <ele>7.6</ele>
        <time>2021-05-18T08:24:18Z</time>
      </trkpt>
      <trkpt lat="41.7776980" lon="-8.8670370">
        <ele>7.5</ele>
        <time>2021-05-18T08:24:19Z</time>
      </trkpt>
      <trkpt lat="41.7777070" lon="-8.8670410">
        <ele>7.5</ele>
        <time>2021-05-18T08:24:20Z</time>
      </trkpt>
      <trkpt lat="41.7777160" lon="-8.8670440">
        <ele>7.5</ele>
        <time>2021-05-18T08:24:21Z</time>
      </trkpt>
      <trkpt lat="41.7777370" lon="-8.8670490">
        <ele>7.5</ele>
        <time>2021-05-18T08:24:22Z</time>
      </trkpt>
      <trkpt lat="41.7777470" lon="-8.8670520">
        <ele>7.5</ele>
        <time>2021-05-18T08:24:23Z</time>
      </trkpt>
      <trkpt lat="41.7777560" lon="-8.8670550">
        <ele>7.5</ele>
        <time>2021-05-18T08:24:24Z</time>
      </trkpt>
      <trkpt lat="41.7777650" lon="-8.8670620">
        <ele>7.5</ele>
        <time>2021-05-18T08:24:25Z</time>
      </trkpt>
      <trkpt lat="41.7777500" lon="-8.8670550">
        <ele>7.5</ele>
        <time>2021-05-18T08:24:26Z</time>
      </trkpt>
      <trkpt lat="41.7777400" lon="-8.8670520">
        <ele>7.5</ele>
        <time>2021-05-18T08:24:27Z</time>
      </trkpt>
      <trkpt lat="41.7777370" lon="-8.8670530">
        <ele>7.5</ele>
        <time>2021-05-18T08:24:28Z</time>
      </trkpt>
      <trkpt lat="41.7777290" lon="-8.8670570">
        <ele>7.5</ele>
        <time>2021-05-18T08:24:29Z</time>
      </trkpt>
      <trkpt lat="41.7777250" lon="-8.8670580">
        <ele>7.5</ele>
        <time>2021-05-18T08:24:30Z</time>
      </trkpt>
      <trkpt lat="41.7777210" lon="-8.8670550">
        <ele>7.5</ele>
        <time>2021-05-18T08:24:31Z</time>
      </trkpt>
      <trkpt lat="41.7777200" lon="-8.8670550">
        <ele>7.5</ele>
        <time>2021-05-18T08:24:32Z</time>
      </trkpt>
      <trkpt lat="41.7777160" lon="-8.8670570">
        <ele>7.5</ele>
        <time>2021-05-18T08:24:33Z</time>
      </trkpt>
      <trkpt lat="41.7777150" lon="-8.8670610">
        <ele>7.5</ele>
        <time>2021-05-18T08:24:34Z</time>
      </trkpt>
      <trkpt lat="41.7777180" lon="-8.8670580">
        <ele>7.5</ele>
        <time>2021-05-18T08:24:35Z</time>
      </trkpt>
      <trkpt lat="41.7777180" lon="-8.8670530">
        <ele>7.5</ele>
        <time>2021-05-18T08:24:36Z</time>
      </trkpt>
      <trkpt lat="41.7777160" lon="-8.8670480">
        <ele>7.5</ele>
        <time>2021-05-18T08:24:37Z</time>
      </trkpt>
      <trkpt lat="41.7777110" lon="-8.8670460">
        <ele>7.5</ele>
        <time>2021-05-18T08:24:38Z</time>
      </trkpt>
      <trkpt lat="41.7777090" lon="-8.8670430">
        <ele>7.5</ele>
        <time>2021-05-18T08:24:39Z</time>
      </trkpt>
      <trkpt lat="41.7777090" lon="-8.8670410">
        <ele>7.5</ele>
        <time>2021-05-18T08:24:40Z</time>
      </trkpt>
      <trkpt lat="41.7777070" lon="-8.8670410">
        <ele>7.5</ele>
        <time>2021-05-18T08:24:41Z</time>
      </trkpt>
      <trkpt lat="41.7777060" lon="-8.8670390">
        <ele>7.5</ele>
        <time>2021-05-18T08:24:42Z</time>
      </trkpt>
      <trkpt lat="41.7777050" lon="-8.8670370">
        <ele>7.5</ele>
        <time>2021-05-18T08:24:43Z</time>
      </trkpt>
      <trkpt lat="41.7777050" lon="-8.8670370">
        <ele>7.5</ele>
        <time>2021-05-18T08:24:44Z</time>
      </trkpt>
      <trkpt lat="41.7777040" lon="-8.8670370">
        <ele>7.5</ele>
        <time>2021-05-18T08:24:45Z</time>
      </trkpt>
      <trkpt lat="41.7777050" lon="-8.8670380">
        <ele>7.5</ele>
        <time>2021-05-18T08:24:46Z</time>
      </trkpt>
      <trkpt lat="41.7777040" lon="-8.8670350">
        <ele>7.5</ele>
        <time>2021-05-18T08:24:47Z</time>
      </trkpt>
      <trkpt lat="41.7777030" lon="-8.8670360">
        <ele>7.5</ele>
        <time>2021-05-18T08:24:48Z</time>
      </trkpt>
      <trkpt lat="41.7777020" lon="-8.8670360">
        <ele>7.5</ele>
        <time>2021-05-18T08:24:49Z</time>
      </trkpt>
      <trkpt lat="41.7777010" lon="-8.8670360">
        <ele>7.5</ele>
        <time>2021-05-18T08:24:50Z</time>
      </trkpt>
      <trkpt lat="41.7776970" lon="-8.8670350">
        <ele>7.5</ele>
        <time>2021-05-18T08:24:51Z</time>
      </trkpt>
      <trkpt lat="41.7776970" lon="-8.8670280">
        <ele>7.5</ele>
        <time>2021-05-18T08:24:52Z</time>
      </trkpt>
      <trkpt lat="41.7776970" lon="-8.8670270">
        <ele>7.5</ele>
        <time>2021-05-18T08:24:53Z</time>
      </trkpt>
      <trkpt lat="41.7776940" lon="-8.8670290">
        <ele>7.5</ele>
        <time>2021-05-18T08:24:54Z</time>
      </trkpt>
      <trkpt lat="41.7776920" lon="-8.8670280">
        <ele>7.5</ele>
        <time>2021-05-18T08:24:55Z</time>
      </trkpt>
      <trkpt lat="41.7776930" lon="-8.8670260">
        <ele>7.5</ele>
        <time>2021-05-18T08:24:56Z</time>
      </trkpt>
      <trkpt lat="41.7776930" lon="-8.8670230">
        <ele>7.5</ele>
        <time>2021-05-18T08:24:57Z</time>
      </trkpt>
      <trkpt lat="41.7776930" lon="-8.8670280">
        <ele>7.5</ele>
        <time>2021-05-18T08:24:58Z</time>
      </trkpt>
      <trkpt lat="41.7776930" lon="-8.8670310">
        <ele>7.5</ele>
        <time>2021-05-18T08:24:59Z</time>
      </trkpt>
      <trkpt lat="41.7776910" lon="-8.8670290">
        <ele>7.5</ele>
        <time>2021-05-18T08:25:00Z</time>
      </trkpt>
      <trkpt lat="41.7776900" lon="-8.8670270">
        <ele>7.5</ele>
        <time>2021-05-18T08:25:01Z</time>
      </trkpt>
      <trkpt lat="41.7776900" lon="-8.8670260">
        <ele>7.5</ele>
        <time>2021-05-18T08:25:02Z</time>
      </trkpt>
      <trkpt lat="41.7776930" lon="-8.8670230">
        <ele>7.5</ele>
        <time>2021-05-18T08:25:03Z</time>
      </trkpt>
      <trkpt lat="41.7776940" lon="-8.8670240">
        <ele>7.5</ele>
        <time>2021-05-18T08:25:04Z</time>
      </trkpt>
      <trkpt lat="41.7776940" lon="-8.8670300">
        <ele>7.5</ele>
        <time>2021-05-18T08:25:05Z</time>
      </trkpt>
      <trkpt lat="41.7776920" lon="-8.8670330">
        <ele>7.5</ele>
        <time>2021-05-18T08:25:06Z</time>
      </trkpt>
      <trkpt lat="41.7776940" lon="-8.8670300">
        <ele>7.5</ele>
        <time>2021-05-18T08:25:07Z</time>
      </trkpt>
      <trkpt lat="41.7776980" lon="-8.8670360">
        <ele>7.5</ele>
        <time>2021-05-18T08:25:08Z</time>
      </trkpt>
      <trkpt lat="41.7777000" lon="-8.8670340">
        <ele>7.5</ele>
        <time>2021-05-18T08:25:09Z</time>
      </trkpt>
      <trkpt lat="41.7777020" lon="-8.8670250">
        <ele>7.5</ele>
        <time>2021-05-18T08:25:10Z</time>
      </trkpt>
      <trkpt lat="41.7777020" lon="-8.8670290">
        <ele>7.5</ele>
        <time>2021-05-18T08:25:11Z</time>
      </trkpt>
      <trkpt lat="41.7777040" lon="-8.8670310">
        <ele>7.5</ele>
        <time>2021-05-18T08:25:12Z</time>
      </trkpt>
      <trkpt lat="41.7777060" lon="-8.8670320">
        <ele>7.5</ele>
        <time>2021-05-18T08:25:13Z</time>
      </trkpt>
      <trkpt lat="41.7777070" lon="-8.8670320">
        <ele>7.5</ele>
        <time>2021-05-18T08:25:14Z</time>
      </trkpt>
      <trkpt lat="41.7777080" lon="-8.8670340">
        <ele>7.5</ele>
        <time>2021-05-18T08:25:15Z</time>
      </trkpt>
      <trkpt lat="41.7777080" lon="-8.8670340">
        <ele>7.5</ele>
        <time>2021-05-18T08:25:16Z</time>
      </trkpt>
      <trkpt lat="41.7777090" lon="-8.8670340">
        <ele>7.5</ele>
        <time>2021-05-18T08:25:17Z</time>
      </trkpt>
      <trkpt lat="41.7777070" lon="-8.8670360">
        <ele>7.5</ele>
        <time>2021-05-18T08:25:18Z</time>
      </trkpt>
      <trkpt lat="41.7777090" lon="-8.8670370">
        <ele>7.5</ele>
        <time>2021-05-18T08:25:19Z</time>
      </trkpt>
      <trkpt lat="41.7777250" lon="-8.8670570">
        <ele>7.5</ele>
        <time>2021-05-18T08:25:20Z</time>
      </trkpt>
      <trkpt lat="41.7777390" lon="-8.8670610">
        <ele>7.5</ele>
        <time>2021-05-18T08:25:21Z</time>
      </trkpt>
      <trkpt lat="41.7777560" lon="-8.8670600">
        <ele>7.5</ele>
        <time>2021-05-18T08:25:22Z</time>
      </trkpt>
      <trkpt lat="41.7777660" lon="-8.8670620">
        <ele>7.5</ele>
        <time>2021-05-18T08:25:23Z</time>
      </trkpt>
      <trkpt lat="41.7777760" lon="-8.8670670">
        <ele>7.5</ele>
        <time>2021-05-18T08:25:24Z</time>
      </trkpt>
      <trkpt lat="41.7777910" lon="-8.8670680">
        <ele>7.5</ele>
        <time>2021-05-18T08:25:25Z</time>
      </trkpt>
      <trkpt lat="41.7778070" lon="-8.8670780">
        <ele>7.5</ele>
        <time>2021-05-18T08:25:26Z</time>
      </trkpt>
      <trkpt lat="41.7778220" lon="-8.8670820">
        <ele>7.5</ele>
        <time>2021-05-18T08:25:27Z</time>
      </trkpt>
      <trkpt lat="41.7778250" lon="-8.8670840">
        <ele>7.5</ele>
        <time>2021-05-18T08:25:28Z</time>
      </trkpt>
      <trkpt lat="41.7778400" lon="-8.8670930">
        <ele>7.5</ele>
        <time>2021-05-18T08:25:29Z</time>
      </trkpt>
      <trkpt lat="41.7778500" lon="-8.8670950">
        <ele>7.5</ele>
        <time>2021-05-18T08:25:30Z</time>
      </trkpt>
      <trkpt lat="41.7778660" lon="-8.8670960">
        <ele>7.5</ele>
        <time>2021-05-18T08:25:31Z</time>
      </trkpt>
      <trkpt lat="41.7778780" lon="-8.8671010">
        <ele>7.5</ele>
        <time>2021-05-18T08:25:32Z</time>
      </trkpt>
      <trkpt lat="41.7778990" lon="-8.8671150">
        <ele>7.5</ele>
        <time>2021-05-18T08:25:33Z</time>
      </trkpt>
      <trkpt lat="41.7779070" lon="-8.8671200">
        <ele>7.5</ele>
        <time>2021-05-18T08:25:34Z</time>
      </trkpt>
      <trkpt lat="41.7779150" lon="-8.8671240">
        <ele>7.5</ele>
        <time>2021-05-18T08:25:35Z</time>
      </trkpt>
      <trkpt lat="41.7779270" lon="-8.8671230">
        <ele>7.5</ele>
        <time>2021-05-18T08:25:36Z</time>
      </trkpt>
      <trkpt lat="41.7779420" lon="-8.8671360">
        <ele>7.5</ele>
        <time>2021-05-18T08:25:37Z</time>
      </trkpt>
      <trkpt lat="41.7779660" lon="-8.8671380">
        <ele>7.5</ele>
        <time>2021-05-18T08:25:38Z</time>
      </trkpt>
      <trkpt lat="41.7779740" lon="-8.8671400">
        <ele>7.5</ele>
        <time>2021-05-18T08:25:39Z</time>
      </trkpt>
      <trkpt lat="41.7779810" lon="-8.8671420">
        <ele>7.5</ele>
        <time>2021-05-18T08:25:40Z</time>
      </trkpt>
      <trkpt lat="41.7779950" lon="-8.8671520">
        <ele>7.5</ele>
        <time>2021-05-18T08:25:41Z</time>
      </trkpt>
      <trkpt lat="41.7780030" lon="-8.8671590">
        <ele>7.4</ele>
        <time>2021-05-18T08:25:42Z</time>
      </trkpt>
      <trkpt lat="41.7780120" lon="-8.8671610">
        <ele>7.4</ele>
        <time>2021-05-18T08:25:43Z</time>
      </trkpt>
      <trkpt lat="41.7780260" lon="-8.8671640">
        <ele>7.4</ele>
        <time>2021-05-18T08:25:44Z</time>
      </trkpt>
      <trkpt lat="41.7780390" lon="-8.8671700">
        <ele>7.4</ele>
        <time>2021-05-18T08:25:45Z</time>
      </trkpt>
      <trkpt lat="41.7780490" lon="-8.8671690">
        <ele>7.4</ele>
        <time>2021-05-18T08:25:46Z</time>
      </trkpt>
      <trkpt lat="41.7780570" lon="-8.8671780">
        <ele>7.4</ele>
        <time>2021-05-18T08:25:47Z</time>
      </trkpt>
      <trkpt lat="41.7780700" lon="-8.8671850">
        <ele>7.4</ele>
        <time>2021-05-18T08:25:48Z</time>
      </trkpt>
      <trkpt lat="41.7780820" lon="-8.8671880">
        <ele>7.4</ele>
        <time>2021-05-18T08:25:49Z</time>
      </trkpt>
      <trkpt lat="41.7780990" lon="-8.8671980">
        <ele>7.4</ele>
        <time>2021-05-18T08:25:50Z</time>
      </trkpt>
      <trkpt lat="41.7781360" lon="-8.8672070">
        <ele>7.4</ele>
        <time>2021-05-18T08:25:51Z</time>
      </trkpt>
      <trkpt lat="41.7781520" lon="-8.8672130">
        <ele>7.4</ele>
        <time>2021-05-18T08:25:52Z</time>
      </trkpt>
      <trkpt lat="41.7781680" lon="-8.8672200">
        <ele>7.4</ele>
        <time>2021-05-18T08:25:53Z</time>
      </trkpt>
      <trkpt lat="41.7781850" lon="-8.8672220">
        <ele>7.3</ele>
        <time>2021-05-18T08:25:54Z</time>
      </trkpt>
      <trkpt lat="41.7782010" lon="-8.8672310">
        <ele>7.3</ele>
        <time>2021-05-18T08:25:55Z</time>
      </trkpt>
      <trkpt lat="41.7782150" lon="-8.8672400">
        <ele>7.3</ele>
        <time>2021-05-18T08:25:56Z</time>
      </trkpt>
      <trkpt lat="41.7782310" lon="-8.8672440">
        <ele>7.3</ele>
        <time>2021-05-18T08:25:57Z</time>
      </trkpt>
      <trkpt lat="41.7782470" lon="-8.8672500">
        <ele>7.3</ele>
        <time>2021-05-18T08:25:58Z</time>
      </trkpt>
      <trkpt lat="41.7782610" lon="-8.8672530">
        <ele>7.3</ele>
        <time>2021-05-18T08:25:59Z</time>
      </trkpt>
      <trkpt lat="41.7782780" lon="-8.8672610">
        <ele>7.3</ele>
        <time>2021-05-18T08:26:00Z</time>
      </trkpt>
      <trkpt lat="41.7782930" lon="-8.8672670">
        <ele>7.3</ele>
        <time>2021-05-18T08:26:01Z</time>
      </trkpt>
      <trkpt lat="41.7783120" lon="-8.8672670">
        <ele>7.3</ele>
        <time>2021-05-18T08:26:02Z</time>
      </trkpt>
      <trkpt lat="41.7783290" lon="-8.8672750">
        <ele>7.3</ele>
        <time>2021-05-18T08:26:03Z</time>
      </trkpt>
      <trkpt lat="41.7783430" lon="-8.8672800">
        <ele>7.3</ele>
        <time>2021-05-18T08:26:04Z</time>
      </trkpt>
      <trkpt lat="41.7783590" lon="-8.8672890">
        <ele>7.3</ele>
        <time>2021-05-18T08:26:05Z</time>
      </trkpt>
      <trkpt lat="41.7783760" lon="-8.8672900">
        <ele>7.3</ele>
        <time>2021-05-18T08:26:06Z</time>
      </trkpt>
      <trkpt lat="41.7783920" lon="-8.8672970">
        <ele>7.2</ele>
        <time>2021-05-18T08:26:07Z</time>
      </trkpt>
      <trkpt lat="41.7784060" lon="-8.8672960">
        <ele>7.2</ele>
        <time>2021-05-18T08:26:08Z</time>
      </trkpt>
      <trkpt lat="41.7784220" lon="-8.8673020">
        <ele>7.2</ele>
        <time>2021-05-18T08:26:09Z</time>
      </trkpt>
      <trkpt lat="41.7784360" lon="-8.8673130">
        <ele>7.2</ele>
        <time>2021-05-18T08:26:10Z</time>
      </trkpt>
      <trkpt lat="41.7784510" lon="-8.8673180">
        <ele>7.2</ele>
        <time>2021-05-18T08:26:11Z</time>
      </trkpt>
      <trkpt lat="41.7784790" lon="-8.8673280">
        <ele>7.2</ele>
        <time>2021-05-18T08:26:13Z</time>
      </trkpt>
      <trkpt lat="41.7784940" lon="-8.8673320">
        <ele>7.2</ele>
        <time>2021-05-18T08:26:14Z</time>
      </trkpt>
      <trkpt lat="41.7785070" lon="-8.8673380">
        <ele>7.2</ele>
        <time>2021-05-18T08:26:15Z</time>
      </trkpt>
      <trkpt lat="41.7785220" lon="-8.8673340">
        <ele>7.2</ele>
        <time>2021-05-18T08:26:16Z</time>
      </trkpt>
      <trkpt lat="41.7785340" lon="-8.8673450">
        <ele>7.2</ele>
        <time>2021-05-18T08:26:17Z</time>
      </trkpt>
      <trkpt lat="41.7785520" lon="-8.8673560">
        <ele>7.2</ele>
        <time>2021-05-18T08:26:18Z</time>
      </trkpt>
      <trkpt lat="41.7785600" lon="-8.8673600">
        <ele>7.2</ele>
        <time>2021-05-18T08:26:19Z</time>
      </trkpt>
      <trkpt lat="41.7785690" lon="-8.8673640">
        <ele>7.2</ele>
        <time>2021-05-18T08:26:20Z</time>
      </trkpt>
      <trkpt lat="41.7785850" lon="-8.8673670">
        <ele>7.2</ele>
        <time>2021-05-18T08:26:21Z</time>
      </trkpt>
      <trkpt lat="41.7786000" lon="-8.8673730">
        <ele>7.2</ele>
        <time>2021-05-18T08:26:22Z</time>
      </trkpt>
      <trkpt lat="41.7786130" lon="-8.8673710">
        <ele>7.2</ele>
        <time>2021-05-18T08:26:23Z</time>
      </trkpt>
      <trkpt lat="41.7786270" lon="-8.8673770">
        <ele>7.2</ele>
        <time>2021-05-18T08:26:24Z</time>
      </trkpt>
      <trkpt lat="41.7786420" lon="-8.8673770">
        <ele>7.2</ele>
        <time>2021-05-18T08:26:25Z</time>
      </trkpt>
      <trkpt lat="41.7786550" lon="-8.8673950">
        <ele>7.2</ele>
        <time>2021-05-18T08:26:27Z</time>
      </trkpt>
      <trkpt lat="41.7786710" lon="-8.8673970">
        <ele>7.2</ele>
        <time>2021-05-18T08:26:28Z</time>
      </trkpt>
      <trkpt lat="41.7786840" lon="-8.8674080">
        <ele>7.2</ele>
        <time>2021-05-18T08:26:29Z</time>
      </trkpt>
      <trkpt lat="41.7786990" lon="-8.8674110">
        <ele>7.2</ele>
        <time>2021-05-18T08:26:30Z</time>
      </trkpt>
      <trkpt lat="41.7787140" lon="-8.8674140">
        <ele>7.2</ele>
        <time>2021-05-18T08:26:31Z</time>
      </trkpt>
      <trkpt lat="41.7787320" lon="-8.8674350">
        <ele>7.2</ele>
        <time>2021-05-18T08:26:32Z</time>
      </trkpt>
      <trkpt lat="41.7787390" lon="-8.8674410">
        <ele>7.2</ele>
        <time>2021-05-18T08:26:33Z</time>
      </trkpt>
      <trkpt lat="41.7787470" lon="-8.8674470">
        <ele>7.2</ele>
        <time>2021-05-18T08:26:34Z</time>
      </trkpt>
      <trkpt lat="41.7787620" lon="-8.8674490">
        <ele>7.2</ele>
        <time>2021-05-18T08:26:35Z</time>
      </trkpt>
      <trkpt lat="41.7787760" lon="-8.8674590">
        <ele>7.2</ele>
        <time>2021-05-18T08:26:36Z</time>
      </trkpt>
      <trkpt lat="41.7787880" lon="-8.8674690">
        <ele>7.2</ele>
        <time>2021-05-18T08:26:37Z</time>
      </trkpt>
      <trkpt lat="41.7788010" lon="-8.8674750">
        <ele>7.2</ele>
        <time>2021-05-18T08:26:38Z</time>
      </trkpt>
      <trkpt lat="41.7788220" lon="-8.8674850">
        <ele>7.2</ele>
        <time>2021-05-18T08:26:39Z</time>
      </trkpt>
      <trkpt lat="41.7788300" lon="-8.8674930">
        <ele>7.2</ele>
        <time>2021-05-18T08:26:40Z</time>
      </trkpt>
      <trkpt lat="41.7788370" lon="-8.8675020">
        <ele>7.2</ele>
        <time>2021-05-18T08:26:41Z</time>
      </trkpt>
      <trkpt lat="41.7788530" lon="-8.8675060">
        <ele>7.1</ele>
        <time>2021-05-18T08:26:42Z</time>
      </trkpt>
      <trkpt lat="41.7788650" lon="-8.8675170">
        <ele>7.1</ele>
        <time>2021-05-18T08:26:43Z</time>
      </trkpt>
      <trkpt lat="41.7788880" lon="-8.8675260">
        <ele>7.1</ele>
        <time>2021-05-18T08:26:44Z</time>
      </trkpt>
      <trkpt lat="41.7788960" lon="-8.8675320">
        <ele>7.1</ele>
        <time>2021-05-18T08:26:45Z</time>
      </trkpt>
      <trkpt lat="41.7789030" lon="-8.8675380">
        <ele>7.1</ele>
        <time>2021-05-18T08:26:46Z</time>
      </trkpt>
      <trkpt lat="41.7789230" lon="-8.8675500">
        <ele>7.1</ele>
        <time>2021-05-18T08:26:47Z</time>
      </trkpt>
      <trkpt lat="41.7789320" lon="-8.8675530">
        <ele>7.1</ele>
        <time>2021-05-18T08:26:48Z</time>
      </trkpt>
      <trkpt lat="41.7789410" lon="-8.8675560">
        <ele>7.1</ele>
        <time>2021-05-18T08:26:49Z</time>
      </trkpt>
      <trkpt lat="41.7789530" lon="-8.8675630">
        <ele>7.1</ele>
        <time>2021-05-18T08:26:50Z</time>
      </trkpt>
      <trkpt lat="41.7789660" lon="-8.8675730">
        <ele>7.1</ele>
        <time>2021-05-18T08:26:51Z</time>
      </trkpt>
      <trkpt lat="41.7789790" lon="-8.8675830">
        <ele>7.1</ele>
        <time>2021-05-18T08:26:52Z</time>
      </trkpt>
      <trkpt lat="41.7789930" lon="-8.8675920">
        <ele>7.1</ele>
        <time>2021-05-18T08:26:53Z</time>
      </trkpt>
      <trkpt lat="41.7790060" lon="-8.8675970">
        <ele>7.1</ele>
        <time>2021-05-18T08:26:54Z</time>
      </trkpt>
      <trkpt lat="41.7790200" lon="-8.8676010">
        <ele>7.1</ele>
        <time>2021-05-18T08:26:55Z</time>
      </trkpt>
      <trkpt lat="41.7790410" lon="-8.8676120">
        <ele>7.1</ele>
        <time>2021-05-18T08:26:56Z</time>
      </trkpt>
      <trkpt lat="41.7790490" lon="-8.8676170">
        <ele>7.1</ele>
        <time>2021-05-18T08:26:57Z</time>
      </trkpt>
      <trkpt lat="41.7790570" lon="-8.8676220">
        <ele>7.1</ele>
        <time>2021-05-18T08:26:58Z</time>
      </trkpt>
      <trkpt lat="41.7790700" lon="-8.8676280">
        <ele>7.1</ele>
        <time>2021-05-18T08:26:59Z</time>
      </trkpt>
      <trkpt lat="41.7790810" lon="-8.8676410">
        <ele>7.1</ele>
        <time>2021-05-18T08:27:00Z</time>
      </trkpt>
      <trkpt lat="41.7790970" lon="-8.8676420">
        <ele>7.1</ele>
        <time>2021-05-18T08:27:01Z</time>
      </trkpt>
      <trkpt lat="41.7791070" lon="-8.8676590">
        <ele>7.1</ele>
        <time>2021-05-18T08:27:02Z</time>
      </trkpt>
      <trkpt lat="41.7791210" lon="-8.8676650">
        <ele>7.1</ele>
        <time>2021-05-18T08:27:03Z</time>
      </trkpt>
      <trkpt lat="41.7791330" lon="-8.8676740">
        <ele>7.1</ele>
        <time>2021-05-18T08:27:04Z</time>
      </trkpt>
      <trkpt lat="41.7791430" lon="-8.8676840">
        <ele>7.1</ele>
        <time>2021-05-18T08:27:05Z</time>
      </trkpt>
      <trkpt lat="41.7791540" lon="-8.8676980">
        <ele>7.1</ele>
        <time>2021-05-18T08:27:06Z</time>
      </trkpt>
      <trkpt lat="41.7791690" lon="-8.8676980">
        <ele>7.1</ele>
        <time>2021-05-18T08:27:07Z</time>
      </trkpt>
      <trkpt lat="41.7791820" lon="-8.8677120">
        <ele>7.1</ele>
        <time>2021-05-18T08:27:08Z</time>
      </trkpt>
      <trkpt lat="41.7791910" lon="-8.8677250">
        <ele>7.0</ele>
        <time>2021-05-18T08:27:09Z</time>
      </trkpt>
      <trkpt lat="41.7792030" lon="-8.8677360">
        <ele>7.0</ele>
        <time>2021-05-18T08:27:10Z</time>
      </trkpt>
      <trkpt lat="41.7792150" lon="-8.8677410">
        <ele>7.0</ele>
        <time>2021-05-18T08:27:11Z</time>
      </trkpt>
      <trkpt lat="41.7792270" lon="-8.8677520">
        <ele>7.0</ele>
        <time>2021-05-18T08:27:12Z</time>
      </trkpt>
      <trkpt lat="41.7792400" lon="-8.8677630">
        <ele>7.0</ele>
        <time>2021-05-18T08:27:13Z</time>
      </trkpt>
      <trkpt lat="41.7792510" lon="-8.8677740">
        <ele>7.0</ele>
        <time>2021-05-18T08:27:14Z</time>
      </trkpt>
      <trkpt lat="41.7792650" lon="-8.8677820">
        <ele>7.0</ele>
        <time>2021-05-18T08:27:15Z</time>
      </trkpt>
      <trkpt lat="41.7792790" lon="-8.8677890">
        <ele>7.0</ele>
        <time>2021-05-18T08:27:16Z</time>
      </trkpt>
      <trkpt lat="41.7792990" lon="-8.8678020">
        <ele>7.0</ele>
        <time>2021-05-18T08:27:17Z</time>
      </trkpt>
      <trkpt lat="41.7793070" lon="-8.8678080">
        <ele>7.0</ele>
        <time>2021-05-18T08:27:18Z</time>
      </trkpt>
      <trkpt lat="41.7793150" lon="-8.8678130">
        <ele>7.0</ele>
        <time>2021-05-18T08:27:19Z</time>
      </trkpt>
      <trkpt lat="41.7793350" lon="-8.8678260">
        <ele>7.0</ele>
        <time>2021-05-18T08:27:20Z</time>
      </trkpt>
      <trkpt lat="41.7793440" lon="-8.8678320">
        <ele>7.0</ele>
        <time>2021-05-18T08:27:21Z</time>
      </trkpt>
      <trkpt lat="41.7793520" lon="-8.8678380">
        <ele>7.0</ele>
        <time>2021-05-18T08:27:22Z</time>
      </trkpt>
      <trkpt lat="41.7793630" lon="-8.8678510">
        <ele>7.0</ele>
        <time>2021-05-18T08:27:23Z</time>
      </trkpt>
      <trkpt lat="41.7793740" lon="-8.8678630">
        <ele>7.0</ele>
        <time>2021-05-18T08:27:24Z</time>
      </trkpt>
      <trkpt lat="41.7793880" lon="-8.8678700">
        <ele>7.0</ele>
        <time>2021-05-18T08:27:25Z</time>
      </trkpt>
      <trkpt lat="41.7794010" lon="-8.8678760">
        <ele>7.0</ele>
        <time>2021-05-18T08:27:26Z</time>
      </trkpt>
      <trkpt lat="41.7794150" lon="-8.8678840">
        <ele>7.0</ele>
        <time>2021-05-18T08:27:27Z</time>
      </trkpt>
      <trkpt lat="41.7794280" lon="-8.8678900">
        <ele>7.0</ele>
        <time>2021-05-18T08:27:28Z</time>
      </trkpt>
      <trkpt lat="41.7794450" lon="-8.8679100">
        <ele>7.0</ele>
        <time>2021-05-18T08:27:29Z</time>
      </trkpt>
      <trkpt lat="41.7794510" lon="-8.8679170">
        <ele>7.0</ele>
        <time>2021-05-18T08:27:30Z</time>
      </trkpt>
      <trkpt lat="41.7794580" lon="-8.8679240">
        <ele>7.0</ele>
        <time>2021-05-18T08:27:31Z</time>
      </trkpt>
      <trkpt lat="41.7794700" lon="-8.8679320">
        <ele>7.0</ele>
        <time>2021-05-18T08:27:32Z</time>
      </trkpt>
      <trkpt lat="41.7794830" lon="-8.8679440">
        <ele>7.0</ele>
        <time>2021-05-18T08:27:33Z</time>
      </trkpt>
      <trkpt lat="41.7794970" lon="-8.8679530">
        <ele>7.0</ele>
        <time>2021-05-18T08:27:34Z</time>
      </trkpt>
      <trkpt lat="41.7795070" lon="-8.8679650">
        <ele>7.0</ele>
        <time>2021-05-18T08:27:35Z</time>
      </trkpt>
      <trkpt lat="41.7795190" lon="-8.8679740">
        <ele>7.0</ele>
        <time>2021-05-18T08:27:36Z</time>
      </trkpt>
      <trkpt lat="41.7795290" lon="-8.8679900">
        <ele>7.0</ele>
        <time>2021-05-18T08:27:37Z</time>
      </trkpt>
      <trkpt lat="41.7795440" lon="-8.8679970">
        <ele>6.9</ele>
        <time>2021-05-18T08:27:38Z</time>
      </trkpt>
      <trkpt lat="41.7795560" lon="-8.8680100">
        <ele>6.9</ele>
        <time>2021-05-18T08:27:39Z</time>
      </trkpt>
      <trkpt lat="41.7795760" lon="-8.8680230">
        <ele>6.9</ele>
        <time>2021-05-18T08:27:40Z</time>
      </trkpt>
      <trkpt lat="41.7795840" lon="-8.8680290">
        <ele>6.9</ele>
        <time>2021-05-18T08:27:41Z</time>
      </trkpt>
      <trkpt lat="41.7795930" lon="-8.8680350">
        <ele>6.9</ele>
        <time>2021-05-18T08:27:42Z</time>
      </trkpt>
      <trkpt lat="41.7796050" lon="-8.8680470">
        <ele>6.9</ele>
        <time>2021-05-18T08:27:43Z</time>
      </trkpt>
      <trkpt lat="41.7796170" lon="-8.8680590">
        <ele>6.9</ele>
        <time>2021-05-18T08:27:44Z</time>
      </trkpt>
      <trkpt lat="41.7796260" lon="-8.8680750">
        <ele>6.9</ele>
        <time>2021-05-18T08:27:45Z</time>
      </trkpt>
      <trkpt lat="41.7796380" lon="-8.8680850">
        <ele>6.9</ele>
        <time>2021-05-18T08:27:46Z</time>
      </trkpt>
      <trkpt lat="41.7796530" lon="-8.8680920">
        <ele>6.9</ele>
        <time>2021-05-18T08:27:47Z</time>
      </trkpt>
      <trkpt lat="41.7796670" lon="-8.8681000">
        <ele>6.9</ele>
        <time>2021-05-18T08:27:48Z</time>
      </trkpt>
      <trkpt lat="41.7796840" lon="-8.8681190">
        <ele>6.9</ele>
        <time>2021-05-18T08:27:49Z</time>
      </trkpt>
      <trkpt lat="41.7796920" lon="-8.8681270">
        <ele>6.9</ele>
        <time>2021-05-18T08:27:50Z</time>
      </trkpt>
      <trkpt lat="41.7796990" lon="-8.8681350">
        <ele>6.9</ele>
        <time>2021-05-18T08:27:51Z</time>
      </trkpt>
      <trkpt lat="41.7797160" lon="-8.8681410">
        <ele>6.9</ele>
        <time>2021-05-18T08:27:52Z</time>
      </trkpt>
      <trkpt lat="41.7797300" lon="-8.8681460">
        <ele>6.9</ele>
        <time>2021-05-18T08:27:53Z</time>
      </trkpt>
      <trkpt lat="41.7797420" lon="-8.8681550">
        <ele>6.9</ele>
        <time>2021-05-18T08:27:54Z</time>
      </trkpt>
      <trkpt lat="41.7797550" lon="-8.8681650">
        <ele>6.9</ele>
        <time>2021-05-18T08:27:55Z</time>
      </trkpt>
      <trkpt lat="41.7797780" lon="-8.8681830">
        <ele>6.9</ele>
        <time>2021-05-18T08:27:56Z</time>
      </trkpt>
      <trkpt lat="41.7797900" lon="-8.8681920">
        <ele>6.9</ele>
        <time>2021-05-18T08:27:57Z</time>
      </trkpt>
      <trkpt lat="41.7798020" lon="-8.8682000">
        <ele>6.9</ele>
        <time>2021-05-18T08:27:58Z</time>
      </trkpt>
      <trkpt lat="41.7798130" lon="-8.8682120">
        <ele>6.9</ele>
        <time>2021-05-18T08:27:59Z</time>
      </trkpt>
      <trkpt lat="41.7798340" lon="-8.8682220">
        <ele>6.9</ele>
        <time>2021-05-18T08:28:00Z</time>
      </trkpt>
      <trkpt lat="41.7798430" lon="-8.8682260">
        <ele>6.9</ele>
        <time>2021-05-18T08:28:01Z</time>
      </trkpt>
      <trkpt lat="41.7798510" lon="-8.8682300">
        <ele>6.9</ele>
        <time>2021-05-18T08:28:02Z</time>
      </trkpt>
      <trkpt lat="41.7798690" lon="-8.8682470">
        <ele>6.9</ele>
        <time>2021-05-18T08:28:03Z</time>
      </trkpt>
      <trkpt lat="41.7798770" lon="-8.8682550">
        <ele>6.9</ele>
        <time>2021-05-18T08:28:04Z</time>
      </trkpt>
      <trkpt lat="41.7798840" lon="-8.8682640">
        <ele>6.9</ele>
        <time>2021-05-18T08:28:05Z</time>
      </trkpt>
      <trkpt lat="41.7798960" lon="-8.8682710">
        <ele>6.9</ele>
        <time>2021-05-18T08:28:06Z</time>
      </trkpt>
      <trkpt lat="41.7799090" lon="-8.8682830">
        <ele>6.9</ele>
        <time>2021-05-18T08:28:07Z</time>
      </trkpt>
      <trkpt lat="41.7799230" lon="-8.8682860">
        <ele>6.9</ele>
        <time>2021-05-18T08:28:08Z</time>
      </trkpt>
      <trkpt lat="41.7799390" lon="-8.8682870">
        <ele>6.9</ele>
        <time>2021-05-18T08:28:09Z</time>
      </trkpt>
      <trkpt lat="41.7799500" lon="-8.8682990">
        <ele>6.9</ele>
        <time>2021-05-18T08:28:10Z</time>
      </trkpt>
      <trkpt lat="41.7799610" lon="-8.8683090">
        <ele>6.9</ele>
        <time>2021-05-18T08:28:11Z</time>
      </trkpt>
      <trkpt lat="41.7799750" lon="-8.8683120">
        <ele>6.9</ele>
        <time>2021-05-18T08:28:12Z</time>
      </trkpt>
      <trkpt lat="41.7799890" lon="-8.8683200">
        <ele>6.9</ele>
        <time>2021-05-18T08:28:13Z</time>
      </trkpt>
      <trkpt lat="41.7800020" lon="-8.8683290">
        <ele>6.9</ele>
        <time>2021-05-18T08:28:14Z</time>
      </trkpt>
      <trkpt lat="41.7800160" lon="-8.8683300">
        <ele>6.8</ele>
        <time>2021-05-18T08:28:15Z</time>
      </trkpt>
      <trkpt lat="41.7800280" lon="-8.8683420">
        <ele>6.8</ele>
        <time>2021-05-18T08:28:16Z</time>
      </trkpt>
      <trkpt lat="41.7800400" lon="-8.8683500">
        <ele>6.8</ele>
        <time>2021-05-18T08:28:17Z</time>
      </trkpt>
      <trkpt lat="41.7800530" lon="-8.8683570">
        <ele>6.8</ele>
        <time>2021-05-18T08:28:18Z</time>
      </trkpt>
      <trkpt lat="41.7800660" lon="-8.8683650">
        <ele>6.8</ele>
        <time>2021-05-18T08:28:19Z</time>
      </trkpt>
      <trkpt lat="41.7800800" lon="-8.8683690">
        <ele>6.8</ele>
        <time>2021-05-18T08:28:20Z</time>
      </trkpt>
      <trkpt lat="41.7800930" lon="-8.8683760">
        <ele>6.8</ele>
        <time>2021-05-18T08:28:21Z</time>
      </trkpt>
      <trkpt lat="41.7801060" lon="-8.8683840">
        <ele>6.8</ele>
        <time>2021-05-18T08:28:22Z</time>
      </trkpt>
      <trkpt lat="41.7801190" lon="-8.8683930">
        <ele>6.8</ele>
        <time>2021-05-18T08:28:23Z</time>
      </trkpt>
      <trkpt lat="41.7801340" lon="-8.8684000">
        <ele>6.8</ele>
        <time>2021-05-18T08:28:24Z</time>
      </trkpt>
      <trkpt lat="41.7801470" lon="-8.8684100">
        <ele>6.8</ele>
        <time>2021-05-18T08:28:25Z</time>
      </trkpt>
      <trkpt lat="41.7801620" lon="-8.8684100">
        <ele>6.8</ele>
        <time>2021-05-18T08:28:26Z</time>
      </trkpt>
      <trkpt lat="41.7801750" lon="-8.8684210">
        <ele>6.8</ele>
        <time>2021-05-18T08:28:27Z</time>
      </trkpt>
      <trkpt lat="41.7801880" lon="-8.8684280">
        <ele>6.8</ele>
        <time>2021-05-18T08:28:28Z</time>
      </trkpt>
      <trkpt lat="41.7801970" lon="-8.8684450">
        <ele>6.8</ele>
        <time>2021-05-18T08:28:29Z</time>
      </trkpt>
      <trkpt lat="41.7802120" lon="-8.8684450">
        <ele>6.8</ele>
        <time>2021-05-18T08:28:30Z</time>
      </trkpt>
      <trkpt lat="41.7802270" lon="-8.8684480">
        <ele>6.8</ele>
        <time>2021-05-18T08:28:31Z</time>
      </trkpt>
      <trkpt lat="41.7802400" lon="-8.8684550">
        <ele>6.8</ele>
        <time>2021-05-18T08:28:32Z</time>
      </trkpt>
      <trkpt lat="41.7802550" lon="-8.8684600">
        <ele>6.8</ele>
        <time>2021-05-18T08:28:33Z</time>
      </trkpt>
      <trkpt lat="41.7802670" lon="-8.8684700">
        <ele>6.8</ele>
        <time>2021-05-18T08:28:34Z</time>
      </trkpt>
      <trkpt lat="41.7802810" lon="-8.8684740">
        <ele>6.8</ele>
        <time>2021-05-18T08:28:35Z</time>
      </trkpt>
      <trkpt lat="41.7802930" lon="-8.8684860">
        <ele>6.8</ele>
        <time>2021-05-18T08:28:36Z</time>
      </trkpt>
      <trkpt lat="41.7803070" lon="-8.8684880">
        <ele>6.8</ele>
        <time>2021-05-18T08:28:37Z</time>
      </trkpt>
      <trkpt lat="41.7803200" lon="-8.8684920">
        <ele>6.8</ele>
        <time>2021-05-18T08:28:38Z</time>
      </trkpt>
      <trkpt lat="41.7803330" lon="-8.8685000">
        <ele>6.8</ele>
        <time>2021-05-18T08:28:39Z</time>
      </trkpt>
      <trkpt lat="41.7803470" lon="-8.8685080">
        <ele>6.8</ele>
        <time>2021-05-18T08:28:40Z</time>
      </trkpt>
      <trkpt lat="41.7803600" lon="-8.8685130">
        <ele>6.8</ele>
        <time>2021-05-18T08:28:41Z</time>
      </trkpt>
      <trkpt lat="41.7803750" lon="-8.8685180">
        <ele>6.8</ele>
        <time>2021-05-18T08:28:42Z</time>
      </trkpt>
      <trkpt lat="41.7803880" lon="-8.8685250">
        <ele>6.8</ele>
        <time>2021-05-18T08:28:43Z</time>
      </trkpt>
      <trkpt lat="41.7804030" lon="-8.8685270">
        <ele>6.8</ele>
        <time>2021-05-18T08:28:44Z</time>
      </trkpt>
      <trkpt lat="41.7804170" lon="-8.8685320">
        <ele>6.9</ele>
        <time>2021-05-18T08:28:45Z</time>
      </trkpt>
      <trkpt lat="41.7804310" lon="-8.8685390">
        <ele>6.9</ele>
        <time>2021-05-18T08:28:46Z</time>
      </trkpt>
      <trkpt lat="41.7804450" lon="-8.8685420">
        <ele>6.9</ele>
        <time>2021-05-18T08:28:47Z</time>
      </trkpt>
      <trkpt lat="41.7804590" lon="-8.8685490">
        <ele>6.9</ele>
        <time>2021-05-18T08:28:48Z</time>
      </trkpt>
      <trkpt lat="41.7804720" lon="-8.8685570">
        <ele>6.9</ele>
        <time>2021-05-18T08:28:49Z</time>
      </trkpt>
      <trkpt lat="41.7804880" lon="-8.8685610">
        <ele>6.9</ele>
        <time>2021-05-18T08:28:50Z</time>
      </trkpt>
      <trkpt lat="41.7804980" lon="-8.8685740">
        <ele>6.9</ele>
        <time>2021-05-18T08:28:51Z</time>
      </trkpt>
      <trkpt lat="41.7805060" lon="-8.8686020">
        <ele>6.9</ele>
        <time>2021-05-18T08:28:52Z</time>
      </trkpt>
      <trkpt lat="41.7805070" lon="-8.8686140">
        <ele>6.9</ele>
        <time>2021-05-18T08:28:53Z</time>
      </trkpt>
      <trkpt lat="41.7805070" lon="-8.8686270">
        <ele>6.9</ele>
        <time>2021-05-18T08:28:54Z</time>
      </trkpt>
      <trkpt lat="41.7805100" lon="-8.8686410">
        <ele>6.9</ele>
        <time>2021-05-18T08:28:55Z</time>
      </trkpt>
      <trkpt lat="41.7805090" lon="-8.8686520">
        <ele>6.9</ele>
        <time>2021-05-18T08:28:56Z</time>
      </trkpt>
      <trkpt lat="41.7805130" lon="-8.8686600">
        <ele>6.9</ele>
        <time>2021-05-18T08:28:57Z</time>
      </trkpt>
      <trkpt lat="41.7805070" lon="-8.8686740">
        <ele>6.9</ele>
        <time>2021-05-18T08:28:58Z</time>
      </trkpt>
      <trkpt lat="41.7805090" lon="-8.8686870">
        <ele>6.9</ele>
        <time>2021-05-18T08:28:59Z</time>
      </trkpt>
      <trkpt lat="41.7805070" lon="-8.8687000">
        <ele>6.9</ele>
        <time>2021-05-18T08:29:00Z</time>
      </trkpt>
      <trkpt lat="41.7805080" lon="-8.8687170">
        <ele>6.9</ele>
        <time>2021-05-18T08:29:01Z</time>
      </trkpt>
      <trkpt lat="41.7805120" lon="-8.8687280">
        <ele>6.9</ele>
        <time>2021-05-18T08:29:02Z</time>
      </trkpt>
      <trkpt lat="41.7805190" lon="-8.8687170">
        <ele>6.9</ele>
        <time>2021-05-18T08:29:03Z</time>
      </trkpt>
      <trkpt lat="41.7805310" lon="-8.8687170">
        <ele>6.9</ele>
        <time>2021-05-18T08:29:04Z</time>
      </trkpt>
      <trkpt lat="41.7805360" lon="-8.8687160">
        <ele>6.9</ele>
        <time>2021-05-18T08:29:05Z</time>
      </trkpt>
      <trkpt lat="41.7805400" lon="-8.8687100">
        <ele>6.9</ele>
        <time>2021-05-18T08:29:06Z</time>
      </trkpt>
      <trkpt lat="41.7805400" lon="-8.8687080">
        <ele>6.9</ele>
        <time>2021-05-18T08:29:07Z</time>
      </trkpt>
      <trkpt lat="41.7805500" lon="-8.8687080">
        <ele>6.9</ele>
        <time>2021-05-18T08:29:08Z</time>
      </trkpt>
      <trkpt lat="41.7805640" lon="-8.8687040">
        <ele>6.9</ele>
        <time>2021-05-18T08:29:09Z</time>
      </trkpt>
      <trkpt lat="41.7805780" lon="-8.8687130">
        <ele>6.9</ele>
        <time>2021-05-18T08:29:10Z</time>
      </trkpt>
      <trkpt lat="41.7805940" lon="-8.8687190">
        <ele>6.9</ele>
        <time>2021-05-18T08:29:11Z</time>
      </trkpt>
      <trkpt lat="41.7806120" lon="-8.8687160">
        <ele>6.9</ele>
        <time>2021-05-18T08:29:12Z</time>
      </trkpt>
      <trkpt lat="41.7806230" lon="-8.8687160">
        <ele>6.9</ele>
        <time>2021-05-18T08:29:13Z</time>
      </trkpt>
      <trkpt lat="41.7806350" lon="-8.8687190">
        <ele>6.9</ele>
        <time>2021-05-18T08:29:14Z</time>
      </trkpt>
      <trkpt lat="41.7806470" lon="-8.8687210">
        <ele>6.9</ele>
        <time>2021-05-18T08:29:15Z</time>
      </trkpt>
      <trkpt lat="41.7806500" lon="-8.8687280">
        <ele>6.9</ele>
        <time>2021-05-18T08:29:16Z</time>
      </trkpt>
      <trkpt lat="41.7806640" lon="-8.8687340">
        <ele>6.9</ele>
        <time>2021-05-18T08:29:17Z</time>
      </trkpt>
      <trkpt lat="41.7806780" lon="-8.8687380">
        <ele>6.9</ele>
        <time>2021-05-18T08:29:18Z</time>
      </trkpt>
      <trkpt lat="41.7806870" lon="-8.8687420">
        <ele>6.9</ele>
        <time>2021-05-18T08:29:19Z</time>
      </trkpt>
      <trkpt lat="41.7806970" lon="-8.8687450">
        <ele>6.9</ele>
        <time>2021-05-18T08:29:21Z</time>
      </trkpt>
      <trkpt lat="41.7807020" lon="-8.8687450">
        <ele>6.9</ele>
        <time>2021-05-18T08:29:22Z</time>
      </trkpt>
      <trkpt lat="41.7807120" lon="-8.8687520">
        <ele>6.9</ele>
        <time>2021-05-18T08:29:23Z</time>
      </trkpt>
      <trkpt lat="41.7807250" lon="-8.8687540">
        <ele>6.9</ele>
        <time>2021-05-18T08:29:24Z</time>
      </trkpt>
      <trkpt lat="41.7807380" lon="-8.8687610">
        <ele>6.9</ele>
        <time>2021-05-18T08:29:25Z</time>
      </trkpt>
      <trkpt lat="41.7807480" lon="-8.8687610">
        <ele>6.9</ele>
        <time>2021-05-18T08:29:26Z</time>
      </trkpt>
      <trkpt lat="41.7807600" lon="-8.8687610">
        <ele>6.9</ele>
        <time>2021-05-18T08:29:27Z</time>
      </trkpt>
      <trkpt lat="41.7807660" lon="-8.8687650">
        <ele>6.9</ele>
        <time>2021-05-18T08:29:28Z</time>
      </trkpt>
      <trkpt lat="41.7807820" lon="-8.8687730">
        <ele>6.9</ele>
        <time>2021-05-18T08:29:29Z</time>
      </trkpt>
      <trkpt lat="41.7808020" lon="-8.8687720">
        <ele>6.9</ele>
        <time>2021-05-18T08:29:30Z</time>
      </trkpt>
      <trkpt lat="41.7808140" lon="-8.8687750">
        <ele>6.9</ele>
        <time>2021-05-18T08:29:31Z</time>
      </trkpt>
      <trkpt lat="41.7808270" lon="-8.8687770">
        <ele>6.9</ele>
        <time>2021-05-18T08:29:32Z</time>
      </trkpt>
      <trkpt lat="41.7808440" lon="-8.8687770">
        <ele>6.9</ele>
        <time>2021-05-18T08:29:33Z</time>
      </trkpt>
      <trkpt lat="41.7808590" lon="-8.8687790">
        <ele>6.9</ele>
        <time>2021-05-18T08:29:34Z</time>
      </trkpt>
      <trkpt lat="41.7808730" lon="-8.8687810">
        <ele>6.9</ele>
        <time>2021-05-18T08:29:35Z</time>
      </trkpt>
      <trkpt lat="41.7808890" lon="-8.8687830">
        <ele>7.0</ele>
        <time>2021-05-18T08:29:36Z</time>
      </trkpt>
      <trkpt lat="41.7809050" lon="-8.8687810">
        <ele>7.0</ele>
        <time>2021-05-18T08:29:37Z</time>
      </trkpt>
      <trkpt lat="41.7809210" lon="-8.8687850">
        <ele>7.0</ele>
        <time>2021-05-18T08:29:38Z</time>
      </trkpt>
      <trkpt lat="41.7809360" lon="-8.8687750">
        <ele>7.0</ele>
        <time>2021-05-18T08:29:39Z</time>
      </trkpt>
      <trkpt lat="41.7809390" lon="-8.8687640">
        <ele>7.0</ele>
        <time>2021-05-18T08:29:40Z</time>
      </trkpt>
      <trkpt lat="41.7809390" lon="-8.8687530">
        <ele>7.0</ele>
        <time>2021-05-18T08:29:41Z</time>
      </trkpt>
      <trkpt lat="41.7809400" lon="-8.8687480">
        <ele>7.0</ele>
        <time>2021-05-18T08:29:42Z</time>
      </trkpt>
      <trkpt lat="41.7809380" lon="-8.8687490">
        <ele>7.0</ele>
        <time>2021-05-18T08:29:43Z</time>
      </trkpt>
      <trkpt lat="41.7809370" lon="-8.8687460">
        <ele>7.0</ele>
        <time>2021-05-18T08:29:44Z</time>
      </trkpt>
      <trkpt lat="41.7809370" lon="-8.8687460">
        <ele>7.0</ele>
        <time>2021-05-18T08:29:45Z</time>
      </trkpt>
      <trkpt lat="41.7809380" lon="-8.8687440">
        <ele>7.0</ele>
        <time>2021-05-18T08:29:46Z</time>
      </trkpt>
      <trkpt lat="41.7809360" lon="-8.8687420">
        <ele>7.0</ele>
        <time>2021-05-18T08:29:47Z</time>
      </trkpt>
      <trkpt lat="41.7809360" lon="-8.8687420">
        <ele>7.0</ele>
        <time>2021-05-18T08:29:48Z</time>
      </trkpt>
      <trkpt lat="41.7809360" lon="-8.8687420">
        <ele>7.0</ele>
        <time>2021-05-18T08:29:49Z</time>
      </trkpt>
      <trkpt lat="41.7809360" lon="-8.8687420">
        <ele>7.0</ele>
        <time>2021-05-18T08:29:50Z</time>
      </trkpt>
      <trkpt lat="41.7809180" lon="-8.8687320">
        <ele>7.0</ele>
        <time>2021-05-18T08:29:51Z</time>
      </trkpt>
      <trkpt lat="41.7809180" lon="-8.8687320">
        <ele>7.0</ele>
        <time>2021-05-18T08:29:52Z</time>
      </trkpt>
      <trkpt lat="41.7809180" lon="-8.8687320">
        <ele>7.0</ele>
        <time>2021-05-18T08:29:53Z</time>
      </trkpt>
      <trkpt lat="41.7809130" lon="-8.8687280">
        <ele>7.0</ele>
        <time>2021-05-18T08:29:54Z</time>
      </trkpt>
      <trkpt lat="41.7809120" lon="-8.8687280">
        <ele>7.0</ele>
        <time>2021-05-18T08:29:55Z</time>
      </trkpt>
      <trkpt lat="41.7809120" lon="-8.8687250">
        <ele>7.0</ele>
        <time>2021-05-18T08:29:56Z</time>
      </trkpt>
      <trkpt lat="41.7809110" lon="-8.8687240">
        <ele>7.0</ele>
        <time>2021-05-18T08:29:57Z</time>
      </trkpt>
      <trkpt lat="41.7809110" lon="-8.8687240">
        <ele>7.0</ele>
        <time>2021-05-18T08:29:58Z</time>
      </trkpt>
      <trkpt lat="41.7809080" lon="-8.8687200">
        <ele>7.0</ele>
        <time>2021-05-18T08:29:59Z</time>
      </trkpt>
      <trkpt lat="41.7809110" lon="-8.8687240">
        <ele>7.0</ele>
        <time>2021-05-18T08:30:00Z</time>
      </trkpt>
      <trkpt lat="41.7809110" lon="-8.8687230">
        <ele>7.0</ele>
        <time>2021-05-18T08:30:01Z</time>
      </trkpt>
      <trkpt lat="41.7809120" lon="-8.8687240">
        <ele>7.0</ele>
        <time>2021-05-18T08:30:02Z</time>
      </trkpt>
      <trkpt lat="41.7809130" lon="-8.8687170">
        <ele>7.0</ele>
        <time>2021-05-18T08:30:03Z</time>
      </trkpt>
      <trkpt lat="41.7809060" lon="-8.8687020">
        <ele>7.0</ele>
        <time>2021-05-18T08:30:04Z</time>
      </trkpt>
      <trkpt lat="41.7809000" lon="-8.8687100">
        <ele>7.0</ele>
        <time>2021-05-18T08:30:05Z</time>
      </trkpt>
      <trkpt lat="41.7808980" lon="-8.8687090">
        <ele>7.0</ele>
        <time>2021-05-18T08:30:06Z</time>
      </trkpt>
      <trkpt lat="41.7808970" lon="-8.8687080">
        <ele>7.0</ele>
        <time>2021-05-18T08:30:07Z</time>
      </trkpt>
      <trkpt lat="41.7808960" lon="-8.8687100">
        <ele>7.0</ele>
        <time>2021-05-18T08:30:08Z</time>
      </trkpt>
      <trkpt lat="41.7808980" lon="-8.8687110">
        <ele>7.0</ele>
        <time>2021-05-18T08:30:09Z</time>
      </trkpt>
      <trkpt lat="41.7808950" lon="-8.8687120">
        <ele>7.0</ele>
        <time>2021-05-18T08:30:10Z</time>
      </trkpt>
      <trkpt lat="41.7808940" lon="-8.8687180">
        <ele>7.0</ele>
        <time>2021-05-18T08:30:11Z</time>
      </trkpt>
      <trkpt lat="41.7808930" lon="-8.8687180">
        <ele>7.0</ele>
        <time>2021-05-18T08:30:12Z</time>
      </trkpt>
      <trkpt lat="41.7808940" lon="-8.8687130">
        <ele>7.0</ele>
        <time>2021-05-18T08:30:13Z</time>
      </trkpt>
      <trkpt lat="41.7808920" lon="-8.8687090">
        <ele>7.0</ele>
        <time>2021-05-18T08:30:14Z</time>
      </trkpt>
      <trkpt lat="41.7808930" lon="-8.8687070">
        <ele>7.0</ele>
        <time>2021-05-18T08:30:15Z</time>
      </trkpt>
      <trkpt lat="41.7808950" lon="-8.8687060">
        <ele>7.0</ele>
        <time>2021-05-18T08:30:16Z</time>
      </trkpt>
      <trkpt lat="41.7809060" lon="-8.8687030">
        <ele>7.0</ele>
        <time>2021-05-18T08:30:17Z</time>
      </trkpt>
      <trkpt lat="41.7809030" lon="-8.8687020">
        <ele>7.0</ele>
        <time>2021-05-18T08:30:18Z</time>
      </trkpt>
      <trkpt lat="41.7809060" lon="-8.8686990">
        <ele>7.0</ele>
        <time>2021-05-18T08:30:19Z</time>
      </trkpt>
      <trkpt lat="41.7809080" lon="-8.8687010">
        <ele>7.0</ele>
        <time>2021-05-18T08:30:20Z</time>
      </trkpt>
      <trkpt lat="41.7809140" lon="-8.8687030">
        <ele>7.0</ele>
        <time>2021-05-18T08:30:21Z</time>
      </trkpt>
      <trkpt lat="41.7809180" lon="-8.8687070">
        <ele>7.0</ele>
        <time>2021-05-18T08:30:22Z</time>
      </trkpt>
      <trkpt lat="41.7809270" lon="-8.8687080">
        <ele>7.1</ele>
        <time>2021-05-18T08:30:23Z</time>
      </trkpt>
      <trkpt lat="41.7809380" lon="-8.8687130">
        <ele>7.1</ele>
        <time>2021-05-18T08:30:24Z</time>
      </trkpt>
      <trkpt lat="41.7809600" lon="-8.8687190">
        <ele>7.1</ele>
        <time>2021-05-18T08:30:25Z</time>
      </trkpt>
      <trkpt lat="41.7809720" lon="-8.8687250">
        <ele>7.1</ele>
        <time>2021-05-18T08:30:26Z</time>
      </trkpt>
      <trkpt lat="41.7809930" lon="-8.8687360">
        <ele>7.1</ele>
        <time>2021-05-18T08:30:27Z</time>
      </trkpt>
      <trkpt lat="41.7810030" lon="-8.8687350">
        <ele>7.1</ele>
        <time>2021-05-18T08:30:28Z</time>
      </trkpt>
      <trkpt lat="41.7810140" lon="-8.8687330">
        <ele>7.1</ele>
        <time>2021-05-18T08:30:29Z</time>
      </trkpt>
      <trkpt lat="41.7810210" lon="-8.8687340">
        <ele>7.1</ele>
        <time>2021-05-18T08:30:30Z</time>
      </trkpt>
      <trkpt lat="41.7810300" lon="-8.8687350">
        <ele>7.1</ele>
        <time>2021-05-18T08:30:31Z</time>
      </trkpt>
      <trkpt lat="41.7810460" lon="-8.8687380">
        <ele>7.1</ele>
        <time>2021-05-18T08:30:32Z</time>
      </trkpt>
      <trkpt lat="41.7810640" lon="-8.8687380">
        <ele>7.1</ele>
        <time>2021-05-18T08:30:33Z</time>
      </trkpt>
      <trkpt lat="41.7810770" lon="-8.8687440">
        <ele>7.1</ele>
        <time>2021-05-18T08:30:34Z</time>
      </trkpt>
      <trkpt lat="41.7810890" lon="-8.8687550">
        <ele>7.1</ele>
        <time>2021-05-18T08:30:35Z</time>
      </trkpt>
      <trkpt lat="41.7811090" lon="-8.8687570">
        <ele>7.1</ele>
        <time>2021-05-18T08:30:36Z</time>
      </trkpt>
      <trkpt lat="41.7811330" lon="-8.8687590">
        <ele>7.1</ele>
        <time>2021-05-18T08:30:37Z</time>
      </trkpt>
      <trkpt lat="41.7811410" lon="-8.8687610">
        <ele>7.1</ele>
        <time>2021-05-18T08:30:38Z</time>
      </trkpt>
      <trkpt lat="41.7811480" lon="-8.8687640">
        <ele>7.1</ele>
        <time>2021-05-18T08:30:39Z</time>
      </trkpt>
      <trkpt lat="41.7811560" lon="-8.8687610">
        <ele>7.1</ele>
        <time>2021-05-18T08:30:40Z</time>
      </trkpt>
      <trkpt lat="41.7811690" lon="-8.8687600">
        <ele>7.1</ele>
        <time>2021-05-18T08:30:41Z</time>
      </trkpt>
      <trkpt lat="41.7811810" lon="-8.8687610">
        <ele>7.1</ele>
        <time>2021-05-18T08:30:42Z</time>
      </trkpt>
      <trkpt lat="41.7811900" lon="-8.8687660">
        <ele>7.1</ele>
        <time>2021-05-18T08:30:43Z</time>
      </trkpt>
      <trkpt lat="41.7812090" lon="-8.8687730">
        <ele>7.1</ele>
        <time>2021-05-18T08:30:44Z</time>
      </trkpt>
      <trkpt lat="41.7812190" lon="-8.8687800">
        <ele>7.1</ele>
        <time>2021-05-18T08:30:45Z</time>
      </trkpt>
      <trkpt lat="41.7812310" lon="-8.8687820">
        <ele>7.1</ele>
        <time>2021-05-18T08:30:46Z</time>
      </trkpt>
      <trkpt lat="41.7812430" lon="-8.8687810">
        <ele>7.1</ele>
        <time>2021-05-18T08:30:47Z</time>
      </trkpt>
      <trkpt lat="41.7812670" lon="-8.8687950">
        <ele>7.1</ele>
        <time>2021-05-18T08:30:48Z</time>
      </trkpt>
      <trkpt lat="41.7812780" lon="-8.8687960">
        <ele>7.1</ele>
        <time>2021-05-18T08:30:49Z</time>
      </trkpt>
      <trkpt lat="41.7812890" lon="-8.8687980">
        <ele>7.1</ele>
        <time>2021-05-18T08:30:50Z</time>
      </trkpt>
      <trkpt lat="41.7812970" lon="-8.8687980">
        <ele>7.1</ele>
        <time>2021-05-18T08:30:51Z</time>
      </trkpt>
      <trkpt lat="41.7813180" lon="-8.8687970">
        <ele>7.1</ele>
        <time>2021-05-18T08:30:52Z</time>
      </trkpt>
      <trkpt lat="41.7813340" lon="-8.8688000">
        <ele>7.1</ele>
        <time>2021-05-18T08:30:53Z</time>
      </trkpt>
      <trkpt lat="41.7813500" lon="-8.8688030">
        <ele>7.1</ele>
        <time>2021-05-18T08:30:54Z</time>
      </trkpt>
      <trkpt lat="41.7813700" lon="-8.8688110">
        <ele>7.1</ele>
        <time>2021-05-18T08:30:55Z</time>
      </trkpt>
      <trkpt lat="41.7813800" lon="-8.8688120">
        <ele>7.1</ele>
        <time>2021-05-18T08:30:56Z</time>
      </trkpt>
      <trkpt lat="41.7813910" lon="-8.8688130">
        <ele>7.1</ele>
        <time>2021-05-18T08:30:57Z</time>
      </trkpt>
      <trkpt lat="41.7814190" lon="-8.8688180">
        <ele>7.1</ele>
        <time>2021-05-18T08:30:58Z</time>
      </trkpt>
      <trkpt lat="41.7814280" lon="-8.8688230">
        <ele>7.1</ele>
        <time>2021-05-18T08:30:59Z</time>
      </trkpt>
      <trkpt lat="41.7814440" lon="-8.8688270">
        <ele>7.1</ele>
        <time>2021-05-18T08:31:00Z</time>
      </trkpt>
      <trkpt lat="41.7814610" lon="-8.8688300">
        <ele>7.1</ele>
        <time>2021-05-18T08:31:01Z</time>
      </trkpt>
      <trkpt lat="41.7814780" lon="-8.8688270">
        <ele>7.1</ele>
        <time>2021-05-18T08:31:02Z</time>
      </trkpt>
      <trkpt lat="41.7814950" lon="-8.8688330">
        <ele>7.1</ele>
        <time>2021-05-18T08:31:03Z</time>
      </trkpt>
      <trkpt lat="41.7815110" lon="-8.8688450">
        <ele>7.1</ele>
        <time>2021-05-18T08:31:04Z</time>
      </trkpt>
      <trkpt lat="41.7815250" lon="-8.8688470">
        <ele>7.1</ele>
        <time>2021-05-18T08:31:05Z</time>
      </trkpt>
      <trkpt lat="41.7815400" lon="-8.8688550">
        <ele>7.1</ele>
        <time>2021-05-18T08:31:06Z</time>
      </trkpt>
      <trkpt lat="41.7815580" lon="-8.8688540">
        <ele>7.1</ele>
        <time>2021-05-18T08:31:07Z</time>
      </trkpt>
      <trkpt lat="41.7815750" lon="-8.8688570">
        <ele>7.1</ele>
        <time>2021-05-18T08:31:08Z</time>
      </trkpt>
      <trkpt lat="41.7815900" lon="-8.8688600">
        <ele>7.1</ele>
        <time>2021-05-18T08:31:09Z</time>
      </trkpt>
      <trkpt lat="41.7816060" lon="-8.8688610">
        <ele>7.1</ele>
        <time>2021-05-18T08:31:10Z</time>
      </trkpt>
      <trkpt lat="41.7816220" lon="-8.8688590">
        <ele>7.1</ele>
        <time>2021-05-18T08:31:11Z</time>
      </trkpt>
      <trkpt lat="41.7816380" lon="-8.8688610">
        <ele>7.1</ele>
        <time>2021-05-18T08:31:12Z</time>
      </trkpt>
      <trkpt lat="41.7816530" lon="-8.8688680">
        <ele>7.1</ele>
        <time>2021-05-18T08:31:13Z</time>
      </trkpt>
      <trkpt lat="41.7816700" lon="-8.8688660">
        <ele>7.1</ele>
        <time>2021-05-18T08:31:14Z</time>
      </trkpt>
      <trkpt lat="41.7816860" lon="-8.8688710">
        <ele>7.1</ele>
        <time>2021-05-18T08:31:15Z</time>
      </trkpt>
      <trkpt lat="41.7817020" lon="-8.8688690">
        <ele>7.1</ele>
        <time>2021-05-18T08:31:16Z</time>
      </trkpt>
      <trkpt lat="41.7817180" lon="-8.8688680">
        <ele>7.1</ele>
        <time>2021-05-18T08:31:17Z</time>
      </trkpt>
      <trkpt lat="41.7817320" lon="-8.8688760">
        <ele>7.1</ele>
        <time>2021-05-18T08:31:18Z</time>
      </trkpt>
      <trkpt lat="41.7817480" lon="-8.8688750">
        <ele>7.1</ele>
        <time>2021-05-18T08:31:19Z</time>
      </trkpt>
      <trkpt lat="41.7817650" lon="-8.8688770">
        <ele>7.1</ele>
        <time>2021-05-18T08:31:20Z</time>
      </trkpt>
      <trkpt lat="41.7817790" lon="-8.8688830">
        <ele>7.1</ele>
        <time>2021-05-18T08:31:21Z</time>
      </trkpt>
      <trkpt lat="41.7817930" lon="-8.8688880">
        <ele>7.1</ele>
        <time>2021-05-18T08:31:23Z</time>
      </trkpt>
      <trkpt lat="41.7818070" lon="-8.8688920">
        <ele>7.1</ele>
        <time>2021-05-18T08:31:24Z</time>
      </trkpt>
      <trkpt lat="41.7818230" lon="-8.8688940">
        <ele>7.1</ele>
        <time>2021-05-18T08:31:25Z</time>
      </trkpt>
      <trkpt lat="41.7818370" lon="-8.8689010">
        <ele>7.1</ele>
        <time>2021-05-18T08:31:26Z</time>
      </trkpt>
      <trkpt lat="41.7818520" lon="-8.8689040">
        <ele>7.1</ele>
        <time>2021-05-18T08:31:27Z</time>
      </trkpt>
      <trkpt lat="41.7818640" lon="-8.8689070">
        <ele>7.1</ele>
        <time>2021-05-18T08:31:28Z</time>
      </trkpt>
      <trkpt lat="41.7818720" lon="-8.8689120">
        <ele>7.1</ele>
        <time>2021-05-18T08:31:29Z</time>
      </trkpt>
      <trkpt lat="41.7818780" lon="-8.8689180">
        <ele>7.1</ele>
        <time>2021-05-18T08:31:30Z</time>
      </trkpt>
      <trkpt lat="41.7818940" lon="-8.8689250">
        <ele>7.1</ele>
        <time>2021-05-18T08:31:31Z</time>
      </trkpt>
      <trkpt lat="41.7819080" lon="-8.8689310">
        <ele>7.1</ele>
        <time>2021-05-18T08:31:32Z</time>
      </trkpt>
      <trkpt lat="41.7819180" lon="-8.8689370">
        <ele>7.1</ele>
        <time>2021-05-18T08:31:33Z</time>
      </trkpt>
      <trkpt lat="41.7819280" lon="-8.8689390">
        <ele>7.1</ele>
        <time>2021-05-18T08:31:34Z</time>
      </trkpt>
      <trkpt lat="41.7819490" lon="-8.8689370">
        <ele>7.1</ele>
        <time>2021-05-18T08:31:35Z</time>
      </trkpt>
      <trkpt lat="41.7819580" lon="-8.8689390">
        <ele>7.1</ele>
        <time>2021-05-18T08:31:36Z</time>
      </trkpt>
      <trkpt lat="41.7819670" lon="-8.8689400">
        <ele>7.1</ele>
        <time>2021-05-18T08:31:37Z</time>
      </trkpt>
      <trkpt lat="41.7819730" lon="-8.8689440">
        <ele>7.1</ele>
        <time>2021-05-18T08:31:38Z</time>
      </trkpt>
      <trkpt lat="41.7819860" lon="-8.8689450">
        <ele>7.1</ele>
        <time>2021-05-18T08:31:39Z</time>
      </trkpt>
      <trkpt lat="41.7819990" lon="-8.8689510">
        <ele>7.1</ele>
        <time>2021-05-18T08:31:40Z</time>
      </trkpt>
      <trkpt lat="41.7820260" lon="-8.8689360">
        <ele>7.1</ele>
        <time>2021-05-18T08:31:41Z</time>
      </trkpt>
      <trkpt lat="41.7820340" lon="-8.8689370">
        <ele>7.1</ele>
        <time>2021-05-18T08:31:42Z</time>
      </trkpt>
      <trkpt lat="41.7820420" lon="-8.8689370">
        <ele>7.1</ele>
        <time>2021-05-18T08:31:43Z</time>
      </trkpt>
      <trkpt lat="41.7820530" lon="-8.8689380">
        <ele>7.1</ele>
        <time>2021-05-18T08:31:44Z</time>
      </trkpt>
      <trkpt lat="41.7820610" lon="-8.8689380">
        <ele>7.1</ele>
        <time>2021-05-18T08:31:45Z</time>
      </trkpt>
      <trkpt lat="41.7820690" lon="-8.8689410">
        <ele>7.1</ele>
        <time>2021-05-18T08:31:46Z</time>
      </trkpt>
      <trkpt lat="41.7820800" lon="-8.8689380">
        <ele>7.1</ele>
        <time>2021-05-18T08:31:47Z</time>
      </trkpt>
      <trkpt lat="41.7820910" lon="-8.8689380">
        <ele>7.1</ele>
        <time>2021-05-18T08:31:48Z</time>
      </trkpt>
      <trkpt lat="41.7821020" lon="-8.8689310">
        <ele>7.1</ele>
        <time>2021-05-18T08:31:49Z</time>
      </trkpt>
      <trkpt lat="41.7821300" lon="-8.8689150">
        <ele>7.1</ele>
        <time>2021-05-18T08:31:50Z</time>
      </trkpt>
      <trkpt lat="41.7821370" lon="-8.8689090">
        <ele>7.1</ele>
        <time>2021-05-18T08:31:51Z</time>
      </trkpt>
      <trkpt lat="41.7821530" lon="-8.8689010">
        <ele>7.1</ele>
        <time>2021-05-18T08:31:52Z</time>
      </trkpt>
      <trkpt lat="41.7821690" lon="-8.8689020">
        <ele>7.1</ele>
        <time>2021-05-18T08:31:53Z</time>
      </trkpt>
      <trkpt lat="41.7821850" lon="-8.8689040">
        <ele>7.1</ele>
        <time>2021-05-18T08:31:54Z</time>
      </trkpt>
      <trkpt lat="41.7821990" lon="-8.8689060">
        <ele>7.1</ele>
        <time>2021-05-18T08:31:55Z</time>
      </trkpt>
      <trkpt lat="41.7822160" lon="-8.8689110">
        <ele>7.1</ele>
        <time>2021-05-18T08:31:56Z</time>
      </trkpt>
      <trkpt lat="41.7822320" lon="-8.8689130">
        <ele>7.0</ele>
        <time>2021-05-18T08:31:57Z</time>
      </trkpt>
      <trkpt lat="41.7822490" lon="-8.8689140">
        <ele>7.0</ele>
        <time>2021-05-18T08:31:58Z</time>
      </trkpt>
      <trkpt lat="41.7822650" lon="-8.8689170">
        <ele>7.0</ele>
        <time>2021-05-18T08:31:59Z</time>
      </trkpt>
      <trkpt lat="41.7822800" lon="-8.8689190">
        <ele>7.0</ele>
        <time>2021-05-18T08:32:00Z</time>
      </trkpt>
      <trkpt lat="41.7822970" lon="-8.8689180">
        <ele>7.0</ele>
        <time>2021-05-18T08:32:01Z</time>
      </trkpt>
      <trkpt lat="41.7823110" lon="-8.8689230">
        <ele>7.0</ele>
        <time>2021-05-18T08:32:02Z</time>
      </trkpt>
      <trkpt lat="41.7823280" lon="-8.8689260">
        <ele>7.0</ele>
        <time>2021-05-18T08:32:03Z</time>
      </trkpt>
      <trkpt lat="41.7823440" lon="-8.8689260">
        <ele>7.0</ele>
        <time>2021-05-18T08:32:04Z</time>
      </trkpt>
      <trkpt lat="41.7823610" lon="-8.8689290">
        <ele>7.0</ele>
        <time>2021-05-18T08:32:05Z</time>
      </trkpt>
      <trkpt lat="41.7823780" lon="-8.8689310">
        <ele>7.0</ele>
        <time>2021-05-18T08:32:06Z</time>
      </trkpt>
      <trkpt lat="41.7823940" lon="-8.8689310">
        <ele>7.0</ele>
        <time>2021-05-18T08:32:07Z</time>
      </trkpt>
      <trkpt lat="41.7824090" lon="-8.8689360">
        <ele>7.0</ele>
        <time>2021-05-18T08:32:08Z</time>
      </trkpt>
      <trkpt lat="41.7824240" lon="-8.8689330">
        <ele>7.0</ele>
        <time>2021-05-18T08:32:09Z</time>
      </trkpt>
      <trkpt lat="41.7824530" lon="-8.8689340">
        <ele>7.0</ele>
        <time>2021-05-18T08:32:10Z</time>
      </trkpt>
      <trkpt lat="41.7824680" lon="-8.8689410">
        <ele>7.0</ele>
        <time>2021-05-18T08:32:11Z</time>
      </trkpt>
      <trkpt lat="41.7824850" lon="-8.8689400">
        <ele>7.0</ele>
        <time>2021-05-18T08:32:12Z</time>
      </trkpt>
      <trkpt lat="41.7825000" lon="-8.8689410">
        <ele>7.0</ele>
        <time>2021-05-18T08:32:13Z</time>
      </trkpt>
      <trkpt lat="41.7825160" lon="-8.8689510">
        <ele>7.0</ele>
        <time>2021-05-18T08:32:14Z</time>
      </trkpt>
      <trkpt lat="41.7825330" lon="-8.8689480">
        <ele>7.0</ele>
        <time>2021-05-18T08:32:15Z</time>
      </trkpt>
      <trkpt lat="41.7825480" lon="-8.8689470">
        <ele>7.0</ele>
        <time>2021-05-18T08:32:16Z</time>
      </trkpt>
      <trkpt lat="41.7825630" lon="-8.8689470">
        <ele>7.0</ele>
        <time>2021-05-18T08:32:17Z</time>
      </trkpt>
      <trkpt lat="41.7825780" lon="-8.8689500">
        <ele>7.0</ele>
        <time>2021-05-18T08:32:18Z</time>
      </trkpt>
      <trkpt lat="41.7825920" lon="-8.8689570">
        <ele>7.0</ele>
        <time>2021-05-18T08:32:19Z</time>
      </trkpt>
      <trkpt lat="41.7826080" lon="-8.8689540">
        <ele>7.0</ele>
        <time>2021-05-18T08:32:20Z</time>
      </trkpt>
      <trkpt lat="41.7826220" lon="-8.8689550">
        <ele>7.0</ele>
        <time>2021-05-18T08:32:21Z</time>
      </trkpt>
      <trkpt lat="41.7826370" lon="-8.8689540">
        <ele>7.0</ele>
        <time>2021-05-18T08:32:22Z</time>
      </trkpt>
      <trkpt lat="41.7826520" lon="-8.8689590">
        <ele>7.0</ele>
        <time>2021-05-18T08:32:23Z</time>
      </trkpt>
      <trkpt lat="41.7826670" lon="-8.8689680">
        <ele>7.0</ele>
        <time>2021-05-18T08:32:24Z</time>
      </trkpt>
      <trkpt lat="41.7826810" lon="-8.8689680">
        <ele>7.0</ele>
        <time>2021-05-18T08:32:25Z</time>
      </trkpt>
      <trkpt lat="41.7826950" lon="-8.8689710">
        <ele>7.0</ele>
        <time>2021-05-18T08:32:26Z</time>
      </trkpt>
      <trkpt lat="41.7827100" lon="-8.8689670">
        <ele>7.0</ele>
        <time>2021-05-18T08:32:27Z</time>
      </trkpt>
      <trkpt lat="41.7827250" lon="-8.8689670">
        <ele>7.0</ele>
        <time>2021-05-18T08:32:28Z</time>
      </trkpt>
      <trkpt lat="41.7827400" lon="-8.8689790">
        <ele>7.0</ele>
        <time>2021-05-18T08:32:29Z</time>
      </trkpt>
      <trkpt lat="41.7827550" lon="-8.8689760">
        <ele>7.0</ele>
        <time>2021-05-18T08:32:30Z</time>
      </trkpt>
      <trkpt lat="41.7827700" lon="-8.8689700">
        <ele>7.0</ele>
        <time>2021-05-18T08:32:31Z</time>
      </trkpt>
      <trkpt lat="41.7827850" lon="-8.8689730">
        <ele>7.0</ele>
        <time>2021-05-18T08:32:32Z</time>
      </trkpt>
      <trkpt lat="41.7827980" lon="-8.8689820">
        <ele>7.0</ele>
        <time>2021-05-18T08:32:33Z</time>
      </trkpt>
      <trkpt lat="41.7828130" lon="-8.8689860">
        <ele>7.0</ele>
        <time>2021-05-18T08:32:34Z</time>
      </trkpt>
      <trkpt lat="41.7828270" lon="-8.8689910">
        <ele>7.0</ele>
        <time>2021-05-18T08:32:35Z</time>
      </trkpt>
      <trkpt lat="41.7828420" lon="-8.8689880">
        <ele>7.0</ele>
        <time>2021-05-18T08:32:36Z</time>
      </trkpt>
      <trkpt lat="41.7828580" lon="-8.8689860">
        <ele>7.0</ele>
        <time>2021-05-18T08:32:37Z</time>
      </trkpt>
      <trkpt lat="41.7828720" lon="-8.8689840">
        <ele>7.0</ele>
        <time>2021-05-18T08:32:38Z</time>
      </trkpt>
      <trkpt lat="41.7828850" lon="-8.8689900">
        <ele>7.0</ele>
        <time>2021-05-18T08:32:39Z</time>
      </trkpt>
      <trkpt lat="41.7829000" lon="-8.8689960">
        <ele>7.0</ele>
        <time>2021-05-18T08:32:40Z</time>
      </trkpt>
      <trkpt lat="41.7829160" lon="-8.8690000">
        <ele>7.0</ele>
        <time>2021-05-18T08:32:41Z</time>
      </trkpt>
      <trkpt lat="41.7829310" lon="-8.8690060">
        <ele>7.0</ele>
        <time>2021-05-18T08:32:42Z</time>
      </trkpt>
      <trkpt lat="41.7829450" lon="-8.8690070">
        <ele>7.0</ele>
        <time>2021-05-18T08:32:43Z</time>
      </trkpt>
      <trkpt lat="41.7829600" lon="-8.8690070">
        <ele>7.0</ele>
        <time>2021-05-18T08:32:44Z</time>
      </trkpt>
      <trkpt lat="41.7829740" lon="-8.8690010">
        <ele>7.0</ele>
        <time>2021-05-18T08:32:45Z</time>
      </trkpt>
      <trkpt lat="41.7829880" lon="-8.8689980">
        <ele>7.0</ele>
        <time>2021-05-18T08:32:46Z</time>
      </trkpt>
      <trkpt lat="41.7830030" lon="-8.8690030">
        <ele>6.9</ele>
        <time>2021-05-18T08:32:47Z</time>
      </trkpt>
      <trkpt lat="41.7830180" lon="-8.8690050">
        <ele>6.9</ele>
        <time>2021-05-18T08:32:48Z</time>
      </trkpt>
      <trkpt lat="41.7830390" lon="-8.8690040">
        <ele>6.9</ele>
        <time>2021-05-18T08:32:49Z</time>
      </trkpt>
      <trkpt lat="41.7830470" lon="-8.8690080">
        <ele>6.9</ele>
        <time>2021-05-18T08:32:50Z</time>
      </trkpt>
      <trkpt lat="41.7830550" lon="-8.8690110">
        <ele>6.9</ele>
        <time>2021-05-18T08:32:51Z</time>
      </trkpt>
      <trkpt lat="41.7830710" lon="-8.8690100">
        <ele>6.9</ele>
        <time>2021-05-18T08:32:52Z</time>
      </trkpt>
      <trkpt lat="41.7830870" lon="-8.8690150">
        <ele>6.9</ele>
        <time>2021-05-18T08:32:53Z</time>
      </trkpt>
      <trkpt lat="41.7831020" lon="-8.8690210">
        <ele>6.9</ele>
        <time>2021-05-18T08:32:54Z</time>
      </trkpt>
      <trkpt lat="41.7831180" lon="-8.8690240">
        <ele>6.9</ele>
        <time>2021-05-18T08:32:55Z</time>
      </trkpt>
      <trkpt lat="41.7831330" lon="-8.8690300">
        <ele>6.9</ele>
        <time>2021-05-18T08:32:56Z</time>
      </trkpt>
      <trkpt lat="41.7831490" lon="-8.8690340">
        <ele>6.9</ele>
        <time>2021-05-18T08:32:57Z</time>
      </trkpt>
      <trkpt lat="41.7831630" lon="-8.8690440">
        <ele>6.9</ele>
        <time>2021-05-18T08:32:58Z</time>
      </trkpt>
      <trkpt lat="41.7831800" lon="-8.8690390">
        <ele>6.9</ele>
        <time>2021-05-18T08:32:59Z</time>
      </trkpt>
      <trkpt lat="41.7831940" lon="-8.8690450">
        <ele>6.9</ele>
        <time>2021-05-18T08:33:00Z</time>
      </trkpt>
      <trkpt lat="41.7832100" lon="-8.8690380">
        <ele>6.9</ele>
        <time>2021-05-18T08:33:01Z</time>
      </trkpt>
      <trkpt lat="41.7832310" lon="-8.8690410">
        <ele>6.9</ele>
        <time>2021-05-18T08:33:02Z</time>
      </trkpt>
      <trkpt lat="41.7832420" lon="-8.8690390">
        <ele>6.9</ele>
        <time>2021-05-18T08:33:03Z</time>
      </trkpt>
      <trkpt lat="41.7832520" lon="-8.8690380">
        <ele>6.9</ele>
        <time>2021-05-18T08:33:04Z</time>
      </trkpt>
      <trkpt lat="41.7832680" lon="-8.8690480">
        <ele>6.9</ele>
        <time>2021-05-18T08:33:05Z</time>
      </trkpt>
      <trkpt lat="41.7832830" lon="-8.8690520">
        <ele>6.9</ele>
        <time>2021-05-18T08:33:06Z</time>
      </trkpt>
      <trkpt lat="41.7832990" lon="-8.8690550">
        <ele>6.9</ele>
        <time>2021-05-18T08:33:07Z</time>
      </trkpt>
      <trkpt lat="41.7833100" lon="-8.8690550">
        <ele>6.9</ele>
        <time>2021-05-18T08:33:08Z</time>
      </trkpt>
      <trkpt lat="41.7833250" lon="-8.8690520">
        <ele>6.9</ele>
        <time>2021-05-18T08:33:09Z</time>
      </trkpt>
      <trkpt lat="41.7833390" lon="-8.8690580">
        <ele>6.9</ele>
        <time>2021-05-18T08:33:11Z</time>
      </trkpt>
      <trkpt lat="41.7833540" lon="-8.8690570">
        <ele>6.9</ele>
        <time>2021-05-18T08:33:12Z</time>
      </trkpt>
      <trkpt lat="41.7833670" lon="-8.8690570">
        <ele>6.9</ele>
        <time>2021-05-18T08:33:13Z</time>
      </trkpt>
      <trkpt lat="41.7833800" lon="-8.8690630">
        <ele>6.9</ele>
        <time>2021-05-18T08:33:14Z</time>
      </trkpt>
      <trkpt lat="41.7833960" lon="-8.8690640">
        <ele>6.9</ele>
        <time>2021-05-18T08:33:15Z</time>
      </trkpt>
      <trkpt lat="41.7834100" lon="-8.8690720">
        <ele>6.9</ele>
        <time>2021-05-18T08:33:16Z</time>
      </trkpt>
      <trkpt lat="41.7834250" lon="-8.8690750">
        <ele>6.9</ele>
        <time>2021-05-18T08:33:17Z</time>
      </trkpt>
      <trkpt lat="41.7834410" lon="-8.8690810">
        <ele>6.9</ele>
        <time>2021-05-18T08:33:18Z</time>
      </trkpt>
      <trkpt lat="41.7834560" lon="-8.8690800">
        <ele>6.9</ele>
        <time>2021-05-18T08:33:19Z</time>
      </trkpt>
      <trkpt lat="41.7834710" lon="-8.8690780">
        <ele>6.9</ele>
        <time>2021-05-18T08:33:20Z</time>
      </trkpt>
      <trkpt lat="41.7834840" lon="-8.8690810">
        <ele>6.9</ele>
        <time>2021-05-18T08:33:21Z</time>
      </trkpt>
      <trkpt lat="41.7834990" lon="-8.8690860">
        <ele>6.9</ele>
        <time>2021-05-18T08:33:22Z</time>
      </trkpt>
      <trkpt lat="41.7835150" lon="-8.8690890">
        <ele>6.9</ele>
        <time>2021-05-18T08:33:23Z</time>
      </trkpt>
      <trkpt lat="41.7835360" lon="-8.8690920">
        <ele>6.9</ele>
        <time>2021-05-18T08:33:24Z</time>
      </trkpt>
      <trkpt lat="41.7835450" lon="-8.8690920">
        <ele>6.9</ele>
        <time>2021-05-18T08:33:25Z</time>
      </trkpt>
      <trkpt lat="41.7835540" lon="-8.8690930">
        <ele>6.9</ele>
        <time>2021-05-18T08:33:26Z</time>
      </trkpt>
      <trkpt lat="41.7835660" lon="-8.8690980">
        <ele>6.9</ele>
        <time>2021-05-18T08:33:27Z</time>
      </trkpt>
      <trkpt lat="41.7835800" lon="-8.8691050">
        <ele>6.9</ele>
        <time>2021-05-18T08:33:28Z</time>
      </trkpt>
      <trkpt lat="41.7835930" lon="-8.8691050">
        <ele>6.9</ele>
        <time>2021-05-18T08:33:29Z</time>
      </trkpt>
      <trkpt lat="41.7836080" lon="-8.8691020">
        <ele>6.9</ele>
        <time>2021-05-18T08:33:30Z</time>
      </trkpt>
      <trkpt lat="41.7836290" lon="-8.8691010">
        <ele>6.9</ele>
        <time>2021-05-18T08:33:31Z</time>
      </trkpt>
      <trkpt lat="41.7836380" lon="-8.8691050">
        <ele>6.9</ele>
        <time>2021-05-18T08:33:32Z</time>
      </trkpt>
      <trkpt lat="41.7836460" lon="-8.8691080">
        <ele>6.9</ele>
        <time>2021-05-18T08:33:33Z</time>
      </trkpt>
      <trkpt lat="41.7836600" lon="-8.8691040">
        <ele>6.9</ele>
        <time>2021-05-18T08:33:34Z</time>
      </trkpt>
      <trkpt lat="41.7836730" lon="-8.8691030">
        <ele>6.8</ele>
        <time>2021-05-18T08:33:35Z</time>
      </trkpt>
      <trkpt lat="41.7836880" lon="-8.8691030">
        <ele>6.8</ele>
        <time>2021-05-18T08:33:36Z</time>
      </trkpt>
      <trkpt lat="41.7837020" lon="-8.8691080">
        <ele>6.8</ele>
        <time>2021-05-18T08:33:37Z</time>
      </trkpt>
      <trkpt lat="41.7837150" lon="-8.8691090">
        <ele>6.8</ele>
        <time>2021-05-18T08:33:38Z</time>
      </trkpt>
      <trkpt lat="41.7837290" lon="-8.8691150">
        <ele>6.8</ele>
        <time>2021-05-18T08:33:39Z</time>
      </trkpt>
      <trkpt lat="41.7837440" lon="-8.8691130">
        <ele>6.8</ele>
        <time>2021-05-18T08:33:40Z</time>
      </trkpt>
      <trkpt lat="41.7837580" lon="-8.8691140">
        <ele>6.8</ele>
        <time>2021-05-18T08:33:41Z</time>
      </trkpt>
      <trkpt lat="41.7837710" lon="-8.8691180">
        <ele>6.8</ele>
        <time>2021-05-18T08:33:42Z</time>
      </trkpt>
      <trkpt lat="41.7837860" lon="-8.8691230">
        <ele>6.8</ele>
        <time>2021-05-18T08:33:43Z</time>
      </trkpt>
      <trkpt lat="41.7838010" lon="-8.8691270">
        <ele>6.8</ele>
        <time>2021-05-18T08:33:44Z</time>
      </trkpt>
      <trkpt lat="41.7838170" lon="-8.8691290">
        <ele>6.8</ele>
        <time>2021-05-18T08:33:45Z</time>
      </trkpt>
      <trkpt lat="41.7838300" lon="-8.8691350">
        <ele>6.8</ele>
        <time>2021-05-18T08:33:46Z</time>
      </trkpt>
      <trkpt lat="41.7838460" lon="-8.8691320">
        <ele>6.8</ele>
        <time>2021-05-18T08:33:47Z</time>
      </trkpt>
      <trkpt lat="41.7838590" lon="-8.8691320">
        <ele>6.8</ele>
        <time>2021-05-18T08:33:48Z</time>
      </trkpt>
      <trkpt lat="41.7838730" lon="-8.8691390">
        <ele>6.8</ele>
        <time>2021-05-18T08:33:49Z</time>
      </trkpt>
      <trkpt lat="41.7838870" lon="-8.8691410">
        <ele>6.8</ele>
        <time>2021-05-18T08:33:50Z</time>
      </trkpt>
      <trkpt lat="41.7839010" lon="-8.8691420">
        <ele>6.8</ele>
        <time>2021-05-18T08:33:51Z</time>
      </trkpt>
      <trkpt lat="41.7839160" lon="-8.8691380">
        <ele>6.8</ele>
        <time>2021-05-18T08:33:52Z</time>
      </trkpt>
      <trkpt lat="41.7839290" lon="-8.8691410">
        <ele>6.8</ele>
        <time>2021-05-18T08:33:53Z</time>
      </trkpt>
      <trkpt lat="41.7839420" lon="-8.8691440">
        <ele>6.7</ele>
        <time>2021-05-18T08:33:54Z</time>
      </trkpt>
      <trkpt lat="41.7839570" lon="-8.8691470">
        <ele>6.7</ele>
        <time>2021-05-18T08:33:55Z</time>
      </trkpt>
      <trkpt lat="41.7839720" lon="-8.8691470">
        <ele>6.7</ele>
        <time>2021-05-18T08:33:56Z</time>
      </trkpt>
      <trkpt lat="41.7839850" lon="-8.8691510">
        <ele>6.7</ele>
        <time>2021-05-18T08:33:57Z</time>
      </trkpt>
      <trkpt lat="41.7840000" lon="-8.8691450">
        <ele>6.7</ele>
        <time>2021-05-18T08:33:58Z</time>
      </trkpt>
      <trkpt lat="41.7840140" lon="-8.8691500">
        <ele>6.7</ele>
        <time>2021-05-18T08:33:59Z</time>
      </trkpt>
      <trkpt lat="41.7840360" lon="-8.8691570">
        <ele>6.7</ele>
        <time>2021-05-18T08:34:00Z</time>
      </trkpt>
      <trkpt lat="41.7840450" lon="-8.8691570">
        <ele>6.7</ele>
        <time>2021-05-18T08:34:01Z</time>
      </trkpt>
      <trkpt lat="41.7840540" lon="-8.8691580">
        <ele>6.7</ele>
        <time>2021-05-18T08:34:02Z</time>
      </trkpt>
      <trkpt lat="41.7840680" lon="-8.8691580">
        <ele>6.7</ele>
        <time>2021-05-18T08:34:03Z</time>
      </trkpt>
      <trkpt lat="41.7840810" lon="-8.8691670">
        <ele>6.7</ele>
        <time>2021-05-18T08:34:04Z</time>
      </trkpt>
      <trkpt lat="41.7840960" lon="-8.8691630">
        <ele>6.6</ele>
        <time>2021-05-18T08:34:05Z</time>
      </trkpt>
      <trkpt lat="41.7841110" lon="-8.8691650">
        <ele>6.6</ele>
        <time>2021-05-18T08:34:06Z</time>
      </trkpt>
      <trkpt lat="41.7841250" lon="-8.8691710">
        <ele>6.6</ele>
        <time>2021-05-18T08:34:07Z</time>
      </trkpt>
      <trkpt lat="41.7841380" lon="-8.8691730">
        <ele>6.6</ele>
        <time>2021-05-18T08:34:08Z</time>
      </trkpt>
      <trkpt lat="41.7841540" lon="-8.8691710">
        <ele>6.6</ele>
        <time>2021-05-18T08:34:09Z</time>
      </trkpt>
      <trkpt lat="41.7841700" lon="-8.8691730">
        <ele>6.6</ele>
        <time>2021-05-18T08:34:10Z</time>
      </trkpt>
      <trkpt lat="41.7841870" lon="-8.8691710">
        <ele>6.6</ele>
        <time>2021-05-18T08:34:11Z</time>
      </trkpt>
      <trkpt lat="41.7842010" lon="-8.8691710">
        <ele>6.6</ele>
        <time>2021-05-18T08:34:12Z</time>
      </trkpt>
      <trkpt lat="41.7842140" lon="-8.8691780">
        <ele>6.6</ele>
        <time>2021-05-18T08:34:13Z</time>
      </trkpt>
      <trkpt lat="41.7842290" lon="-8.8691720">
        <ele>6.6</ele>
        <time>2021-05-18T08:34:14Z</time>
      </trkpt>
      <trkpt lat="41.7842430" lon="-8.8691700">
        <ele>6.5</ele>
        <time>2021-05-18T08:34:15Z</time>
      </trkpt>
      <trkpt lat="41.7842710" lon="-8.8691780">
        <ele>6.5</ele>
        <time>2021-05-18T08:34:16Z</time>
      </trkpt>
      <trkpt lat="41.7842920" lon="-8.8691830">
        <ele>6.5</ele>
        <time>2021-05-18T08:34:17Z</time>
      </trkpt>
      <trkpt lat="41.7842990" lon="-8.8691880">
        <ele>6.5</ele>
        <time>2021-05-18T08:34:18Z</time>
      </trkpt>
      <trkpt lat="41.7843130" lon="-8.8691870">
        <ele>6.5</ele>
        <time>2021-05-18T08:34:19Z</time>
      </trkpt>
      <trkpt lat="41.7843270" lon="-8.8691910">
        <ele>6.5</ele>
        <time>2021-05-18T08:34:20Z</time>
      </trkpt>
      <trkpt lat="41.7843410" lon="-8.8691960">
        <ele>6.5</ele>
        <time>2021-05-18T08:34:21Z</time>
      </trkpt>
      <trkpt lat="41.7843560" lon="-8.8692010">
        <ele>6.5</ele>
        <time>2021-05-18T08:34:22Z</time>
      </trkpt>
      <trkpt lat="41.7843710" lon="-8.8691970">
        <ele>6.5</ele>
        <time>2021-05-18T08:34:23Z</time>
      </trkpt>
      <trkpt lat="41.7843850" lon="-8.8692020">
        <ele>6.5</ele>
        <time>2021-05-18T08:34:24Z</time>
      </trkpt>
      <trkpt lat="41.7843970" lon="-8.8692070">
        <ele>6.5</ele>
        <time>2021-05-18T08:34:25Z</time>
      </trkpt>
      <trkpt lat="41.7844130" lon="-8.8692050">
        <ele>6.5</ele>
        <time>2021-05-18T08:34:26Z</time>
      </trkpt>
      <trkpt lat="41.7844280" lon="-8.8692120">
        <ele>6.5</ele>
        <time>2021-05-18T08:34:27Z</time>
      </trkpt>
      <trkpt lat="41.7844420" lon="-8.8692140">
        <ele>6.5</ele>
        <time>2021-05-18T08:34:28Z</time>
      </trkpt>
      <trkpt lat="41.7844620" lon="-8.8692190">
        <ele>6.5</ele>
        <time>2021-05-18T08:34:29Z</time>
      </trkpt>
      <trkpt lat="41.7844700" lon="-8.8692210">
        <ele>6.5</ele>
        <time>2021-05-18T08:34:30Z</time>
      </trkpt>
      <trkpt lat="41.7844780" lon="-8.8692220">
        <ele>6.5</ele>
        <time>2021-05-18T08:34:31Z</time>
      </trkpt>
      <trkpt lat="41.7844990" lon="-8.8692230">
        <ele>6.4</ele>
        <time>2021-05-18T08:34:32Z</time>
      </trkpt>
      <trkpt lat="41.7845070" lon="-8.8692220">
        <ele>6.4</ele>
        <time>2021-05-18T08:34:33Z</time>
      </trkpt>
      <trkpt lat="41.7845160" lon="-8.8692220">
        <ele>6.4</ele>
        <time>2021-05-18T08:34:34Z</time>
      </trkpt>
      <trkpt lat="41.7845320" lon="-8.8692280">
        <ele>6.4</ele>
        <time>2021-05-18T08:34:35Z</time>
      </trkpt>
      <trkpt lat="41.7845460" lon="-8.8692350">
        <ele>6.4</ele>
        <time>2021-05-18T08:34:36Z</time>
      </trkpt>
      <trkpt lat="41.7845580" lon="-8.8692380">
        <ele>6.4</ele>
        <time>2021-05-18T08:34:37Z</time>
      </trkpt>
      <trkpt lat="41.7845740" lon="-8.8692350">
        <ele>6.4</ele>
        <time>2021-05-18T08:34:38Z</time>
      </trkpt>
      <trkpt lat="41.7845880" lon="-8.8692390">
        <ele>6.4</ele>
        <time>2021-05-18T08:34:39Z</time>
      </trkpt>
      <trkpt lat="41.7846020" lon="-8.8692420">
        <ele>6.4</ele>
        <time>2021-05-18T08:34:40Z</time>
      </trkpt>
      <trkpt lat="41.7846140" lon="-8.8692490">
        <ele>6.4</ele>
        <time>2021-05-18T08:34:41Z</time>
      </trkpt>
      <trkpt lat="41.7846280" lon="-8.8692570">
        <ele>6.4</ele>
        <time>2021-05-18T08:34:42Z</time>
      </trkpt>
      <trkpt lat="41.7846410" lon="-8.8692560">
        <ele>6.4</ele>
        <time>2021-05-18T08:34:43Z</time>
      </trkpt>
      <trkpt lat="41.7846550" lon="-8.8692600">
        <ele>6.4</ele>
        <time>2021-05-18T08:34:44Z</time>
      </trkpt>
      <trkpt lat="41.7846760" lon="-8.8692680">
        <ele>6.3</ele>
        <time>2021-05-18T08:34:45Z</time>
      </trkpt>
      <trkpt lat="41.7846840" lon="-8.8692750">
        <ele>6.3</ele>
        <time>2021-05-18T08:34:46Z</time>
      </trkpt>
      <trkpt lat="41.7846920" lon="-8.8692810">
        <ele>6.3</ele>
        <time>2021-05-18T08:34:47Z</time>
      </trkpt>
      <trkpt lat="41.7847000" lon="-8.8692960">
        <ele>6.3</ele>
        <time>2021-05-18T08:34:48Z</time>
      </trkpt>
      <trkpt lat="41.7847020" lon="-8.8693150">
        <ele>6.3</ele>
        <time>2021-05-18T08:34:49Z</time>
      </trkpt>
      <trkpt lat="41.7847070" lon="-8.8693290">
        <ele>6.3</ele>
        <time>2021-05-18T08:34:50Z</time>
      </trkpt>
      <trkpt lat="41.7847090" lon="-8.8693460">
        <ele>6.3</ele>
        <time>2021-05-18T08:34:51Z</time>
      </trkpt>
      <trkpt lat="41.7847150" lon="-8.8693580">
        <ele>6.3</ele>
        <time>2021-05-18T08:34:52Z</time>
      </trkpt>
      <trkpt lat="41.7847210" lon="-8.8693620">
        <ele>6.3</ele>
        <time>2021-05-18T08:34:53Z</time>
      </trkpt>
      <trkpt lat="41.7847170" lon="-8.8693570">
        <ele>6.3</ele>
        <time>2021-05-18T08:34:54Z</time>
      </trkpt>
      <trkpt lat="41.7847140" lon="-8.8693510">
        <ele>6.2</ele>
        <time>2021-05-18T08:34:55Z</time>
      </trkpt>
      <trkpt lat="41.7847110" lon="-8.8693460">
        <ele>6.2</ele>
        <time>2021-05-18T08:34:56Z</time>
      </trkpt>
      <trkpt lat="41.7847080" lon="-8.8693400">
        <ele>6.2</ele>
        <time>2021-05-18T08:34:57Z</time>
      </trkpt>
      <trkpt lat="41.7847040" lon="-8.8693350">
        <ele>6.2</ele>
        <time>2021-05-18T08:34:58Z</time>
      </trkpt>
      <trkpt lat="41.7847010" lon="-8.8693290">
        <ele>6.2</ele>
        <time>2021-05-18T08:34:59Z</time>
      </trkpt>
      <trkpt lat="41.7846980" lon="-8.8693240">
        <ele>6.2</ele>
        <time>2021-05-18T08:35:01Z</time>
      </trkpt>
      <trkpt lat="41.7846950" lon="-8.8693180">
        <ele>6.2</ele>
        <time>2021-05-18T08:35:02Z</time>
      </trkpt>
      <trkpt lat="41.7846910" lon="-8.8693130">
        <ele>6.2</ele>
        <time>2021-05-18T08:35:03Z</time>
      </trkpt>
      <trkpt lat="41.7846880" lon="-8.8693070">
        <ele>6.2</ele>
        <time>2021-05-18T08:35:04Z</time>
      </trkpt>
      <trkpt lat="41.7846830" lon="-8.8693090">
        <ele>6.2</ele>
        <time>2021-05-18T08:35:05Z</time>
      </trkpt>
      <trkpt lat="41.7846800" lon="-8.8693000">
        <ele>6.2</ele>
        <time>2021-05-18T08:35:06Z</time>
      </trkpt>
      <trkpt lat="41.7846870" lon="-8.8693060">
        <ele>6.2</ele>
        <time>2021-05-18T08:35:07Z</time>
      </trkpt>
      <trkpt lat="41.7846970" lon="-8.8693100">
        <ele>6.2</ele>
        <time>2021-05-18T08:35:08Z</time>
      </trkpt>
      <trkpt lat="41.7847060" lon="-8.8693080">
        <ele>6.2</ele>
        <time>2021-05-18T08:35:09Z</time>
      </trkpt>
      <trkpt lat="41.7847150" lon="-8.8693040">
        <ele>6.2</ele>
        <time>2021-05-18T08:35:10Z</time>
      </trkpt>
      <trkpt lat="41.7847270" lon="-8.8693080">
        <ele>6.2</ele>
        <time>2021-05-18T08:35:11Z</time>
      </trkpt>
      <trkpt lat="41.7847450" lon="-8.8693110">
        <ele>6.1</ele>
        <time>2021-05-18T08:35:12Z</time>
      </trkpt>
      <trkpt lat="41.7847540" lon="-8.8693180">
        <ele>6.1</ele>
        <time>2021-05-18T08:35:13Z</time>
      </trkpt>
      <trkpt lat="41.7847620" lon="-8.8693100">
        <ele>6.1</ele>
        <time>2021-05-18T08:35:14Z</time>
      </trkpt>
      <trkpt lat="41.7847760" lon="-8.8693090">
        <ele>6.1</ele>
        <time>2021-05-18T08:35:15Z</time>
      </trkpt>
      <trkpt lat="41.7847820" lon="-8.8693020">
        <ele>6.1</ele>
        <time>2021-05-18T08:35:16Z</time>
      </trkpt>
      <trkpt lat="41.7847980" lon="-8.8693180">
        <ele>6.1</ele>
        <time>2021-05-18T08:35:17Z</time>
      </trkpt>
      <trkpt lat="41.7848120" lon="-8.8693160">
        <ele>6.1</ele>
        <time>2021-05-18T08:35:18Z</time>
      </trkpt>
      <trkpt lat="41.7848270" lon="-8.8693200">
        <ele>6.1</ele>
        <time>2021-05-18T08:35:19Z</time>
      </trkpt>
      <trkpt lat="41.7848430" lon="-8.8693170">
        <ele>6.1</ele>
        <time>2021-05-18T08:35:20Z</time>
      </trkpt>
      <trkpt lat="41.7848590" lon="-8.8693280">
        <ele>6.1</ele>
        <time>2021-05-18T08:35:21Z</time>
      </trkpt>
      <trkpt lat="41.7848690" lon="-8.8693360">
        <ele>6.0</ele>
        <time>2021-05-18T08:35:22Z</time>
      </trkpt>
      <trkpt lat="41.7848750" lon="-8.8693550">
        <ele>6.0</ele>
        <time>2021-05-18T08:35:23Z</time>
      </trkpt>
      <trkpt lat="41.7848690" lon="-8.8693790">
        <ele>6.0</ele>
        <time>2021-05-18T08:35:24Z</time>
      </trkpt>
      <trkpt lat="41.7848650" lon="-8.8694020">
        <ele>6.0</ele>
        <time>2021-05-18T08:35:25Z</time>
      </trkpt>
      <trkpt lat="41.7848590" lon="-8.8694250">
        <ele>6.0</ele>
        <time>2021-05-18T08:35:26Z</time>
      </trkpt>
      <trkpt lat="41.7848570" lon="-8.8694460">
        <ele>6.0</ele>
        <time>2021-05-18T08:35:27Z</time>
      </trkpt>
      <trkpt lat="41.7848500" lon="-8.8694670">
        <ele>6.0</ele>
        <time>2021-05-18T08:35:28Z</time>
      </trkpt>
      <trkpt lat="41.7848560" lon="-8.8694860">
        <ele>6.0</ele>
        <time>2021-05-18T08:35:29Z</time>
      </trkpt>
      <trkpt lat="41.7848500" lon="-8.8695040">
        <ele>6.0</ele>
        <time>2021-05-18T08:35:30Z</time>
      </trkpt>
      <trkpt lat="41.7848510" lon="-8.8695190">
        <ele>5.9</ele>
        <time>2021-05-18T08:35:31Z</time>
      </trkpt>
      <trkpt lat="41.7848480" lon="-8.8695320">
        <ele>5.9</ele>
        <time>2021-05-18T08:35:32Z</time>
      </trkpt>
      <trkpt lat="41.7848430" lon="-8.8695400">
        <ele>5.9</ele>
        <time>2021-05-18T08:35:33Z</time>
      </trkpt>
      <trkpt lat="41.7848430" lon="-8.8695570">
        <ele>5.9</ele>
        <time>2021-05-18T08:35:34Z</time>
      </trkpt>
      <trkpt lat="41.7848400" lon="-8.8695770">
        <ele>5.9</ele>
        <time>2021-05-18T08:35:35Z</time>
      </trkpt>
      <trkpt lat="41.7848300" lon="-8.8696020">
        <ele>5.9</ele>
        <time>2021-05-18T08:35:36Z</time>
      </trkpt>
      <trkpt lat="41.7848250" lon="-8.8696100">
        <ele>5.9</ele>
        <time>2021-05-18T08:35:37Z</time>
      </trkpt>
      <trkpt lat="41.7848210" lon="-8.8696190">
        <ele>5.9</ele>
        <time>2021-05-18T08:35:38Z</time>
      </trkpt>
      <trkpt lat="41.7848130" lon="-8.8696380">
        <ele>5.9</ele>
        <time>2021-05-18T08:35:39Z</time>
      </trkpt>
      <trkpt lat="41.7848080" lon="-8.8696540">
        <ele>5.9</ele>
        <time>2021-05-18T08:35:40Z</time>
      </trkpt>
      <trkpt lat="41.7848060" lon="-8.8696620">
        <ele>5.9</ele>
        <time>2021-05-18T08:35:41Z</time>
      </trkpt>
      <trkpt lat="41.7848040" lon="-8.8696790">
        <ele>5.9</ele>
        <time>2021-05-18T08:35:42Z</time>
      </trkpt>
      <trkpt lat="41.7848020" lon="-8.8696950">
        <ele>5.8</ele>
        <time>2021-05-18T08:35:43Z</time>
      </trkpt>
      <trkpt lat="41.7848090" lon="-8.8696970">
        <ele>5.8</ele>
        <time>2021-05-18T08:35:44Z</time>
      </trkpt>
      <trkpt lat="41.7848160" lon="-8.8696950">
        <ele>5.8</ele>
        <time>2021-05-18T08:35:45Z</time>
      </trkpt>
      <trkpt lat="41.7848190" lon="-8.8696960">
        <ele>5.8</ele>
        <time>2021-05-18T08:35:46Z</time>
      </trkpt>
      <trkpt lat="41.7848190" lon="-8.8696950">
        <ele>5.8</ele>
        <time>2021-05-18T08:35:47Z</time>
      </trkpt>
      <trkpt lat="41.7848210" lon="-8.8696980">
        <ele>5.8</ele>
        <time>2021-05-18T08:35:48Z</time>
      </trkpt>
      <trkpt lat="41.7848240" lon="-8.8696990">
        <ele>5.8</ele>
        <time>2021-05-18T08:35:49Z</time>
      </trkpt>
      <trkpt lat="41.7848330" lon="-8.8696960">
        <ele>5.8</ele>
        <time>2021-05-18T08:35:50Z</time>
      </trkpt>
      <trkpt lat="41.7848410" lon="-8.8696910">
        <ele>5.8</ele>
        <time>2021-05-18T08:35:51Z</time>
      </trkpt>
      <trkpt lat="41.7848460" lon="-8.8696950">
        <ele>5.8</ele>
        <time>2021-05-18T08:35:52Z</time>
      </trkpt>
      <trkpt lat="41.7848430" lon="-8.8696970">
        <ele>5.8</ele>
        <time>2021-05-18T08:35:53Z</time>
      </trkpt>
      <trkpt lat="41.7848450" lon="-8.8696950">
        <ele>5.8</ele>
        <time>2021-05-18T08:35:54Z</time>
      </trkpt>
      <trkpt lat="41.7848590" lon="-8.8696860">
        <ele>5.8</ele>
        <time>2021-05-18T08:35:55Z</time>
      </trkpt>
      <trkpt lat="41.7848640" lon="-8.8696830">
        <ele>5.8</ele>
        <time>2021-05-18T08:35:56Z</time>
      </trkpt>
      <trkpt lat="41.7848760" lon="-8.8696830">
        <ele>5.8</ele>
        <time>2021-05-18T08:35:57Z</time>
      </trkpt>
      <trkpt lat="41.7848940" lon="-8.8696770">
        <ele>5.8</ele>
        <time>2021-05-18T08:35:58Z</time>
      </trkpt>
      <trkpt lat="41.7849040" lon="-8.8696780">
        <ele>5.8</ele>
        <time>2021-05-18T08:35:59Z</time>
      </trkpt>
      <trkpt lat="41.7849150" lon="-8.8696770">
        <ele>5.8</ele>
        <time>2021-05-18T08:36:00Z</time>
      </trkpt>
      <trkpt lat="41.7849300" lon="-8.8696700">
        <ele>5.8</ele>
        <time>2021-05-18T08:36:01Z</time>
      </trkpt>
      <trkpt lat="41.7849420" lon="-8.8696670">
        <ele>5.8</ele>
        <time>2021-05-18T08:36:02Z</time>
      </trkpt>
      <trkpt lat="41.7849440" lon="-8.8696670">
        <ele>5.8</ele>
        <time>2021-05-18T08:36:03Z</time>
      </trkpt>
      <trkpt lat="41.7849460" lon="-8.8696670">
        <ele>5.8</ele>
        <time>2021-05-18T08:36:04Z</time>
      </trkpt>
      <trkpt lat="41.7849480" lon="-8.8696670">
        <ele>5.8</ele>
        <time>2021-05-18T08:36:05Z</time>
      </trkpt>
      <trkpt lat="41.7849500" lon="-8.8696670">
        <ele>5.8</ele>
        <time>2021-05-18T08:36:06Z</time>
      </trkpt>
      <trkpt lat="41.7849510" lon="-8.8696670">
        <ele>5.8</ele>
        <time>2021-05-18T08:36:07Z</time>
      </trkpt>
      <trkpt lat="41.7849530" lon="-8.8696670">
        <ele>5.8</ele>
        <time>2021-05-18T08:36:08Z</time>
      </trkpt>
      <trkpt lat="41.7849550" lon="-8.8696670">
        <ele>5.8</ele>
        <time>2021-05-18T08:36:09Z</time>
      </trkpt>
      <trkpt lat="41.7849570" lon="-8.8696670">
        <ele>5.7</ele>
        <time>2021-05-18T08:36:10Z</time>
      </trkpt>
      <trkpt lat="41.7849590" lon="-8.8696670">
        <ele>5.7</ele>
        <time>2021-05-18T08:36:11Z</time>
      </trkpt>
      <trkpt lat="41.7849610" lon="-8.8696680">
        <ele>5.7</ele>
        <time>2021-05-18T08:36:12Z</time>
      </trkpt>
      <trkpt lat="41.7849630" lon="-8.8696680">
        <ele>5.7</ele>
        <time>2021-05-18T08:36:13Z</time>
      </trkpt>
      <trkpt lat="41.7849650" lon="-8.8696680">
        <ele>5.7</ele>
        <time>2021-05-18T08:36:14Z</time>
      </trkpt>
      <trkpt lat="41.7849670" lon="-8.8696680">
        <ele>5.7</ele>
        <time>2021-05-18T08:36:15Z</time>
      </trkpt>
      <trkpt lat="41.7849690" lon="-8.8696680">
        <ele>5.7</ele>
        <time>2021-05-18T08:36:16Z</time>
      </trkpt>
      <trkpt lat="41.7849700" lon="-8.8696680">
        <ele>5.7</ele>
        <time>2021-05-18T08:36:17Z</time>
      </trkpt>
      <trkpt lat="41.7849720" lon="-8.8696680">
        <ele>5.7</ele>
        <time>2021-05-18T08:36:18Z</time>
      </trkpt>
      <trkpt lat="41.7849740" lon="-8.8696680">
        <ele>5.7</ele>
        <time>2021-05-18T08:36:19Z</time>
      </trkpt>
      <trkpt lat="41.7849760" lon="-8.8696680">
        <ele>5.7</ele>
        <time>2021-05-18T08:36:20Z</time>
      </trkpt>
      <trkpt lat="41.7849780" lon="-8.8696680">
        <ele>5.7</ele>
        <time>2021-05-18T08:36:21Z</time>
      </trkpt>
      <trkpt lat="41.7849800" lon="-8.8696680">
        <ele>5.7</ele>
        <time>2021-05-18T08:36:22Z</time>
      </trkpt>
      <trkpt lat="41.7849990" lon="-8.8696720">
        <ele>5.7</ele>
        <time>2021-05-18T08:36:23Z</time>
      </trkpt>
      <trkpt lat="41.7850260" lon="-8.8696680">
        <ele>5.7</ele>
        <time>2021-05-18T08:36:24Z</time>
      </trkpt>
      <trkpt lat="41.7850360" lon="-8.8696680">
        <ele>5.7</ele>
        <time>2021-05-18T08:36:25Z</time>
      </trkpt>
      <trkpt lat="41.7850600" lon="-8.8696630">
        <ele>5.7</ele>
        <time>2021-05-18T08:36:26Z</time>
      </trkpt>
      <trkpt lat="41.7850690" lon="-8.8696650">
        <ele>5.7</ele>
        <time>2021-05-18T08:36:27Z</time>
      </trkpt>
      <trkpt lat="41.7850780" lon="-8.8696670">
        <ele>5.7</ele>
        <time>2021-05-18T08:36:28Z</time>
      </trkpt>
      <trkpt lat="41.7850990" lon="-8.8696690">
        <ele>5.7</ele>
        <time>2021-05-18T08:36:29Z</time>
      </trkpt>
      <trkpt lat="41.7851110" lon="-8.8696700">
        <ele>5.7</ele>
        <time>2021-05-18T08:36:30Z</time>
      </trkpt>
      <trkpt lat="41.7851240" lon="-8.8696710">
        <ele>5.7</ele>
        <time>2021-05-18T08:36:31Z</time>
      </trkpt>
      <trkpt lat="41.7851520" lon="-8.8696730">
        <ele>5.7</ele>
        <time>2021-05-18T08:36:32Z</time>
      </trkpt>
      <trkpt lat="41.7851620" lon="-8.8696750">
        <ele>5.7</ele>
        <time>2021-05-18T08:36:33Z</time>
      </trkpt>
      <trkpt lat="41.7851930" lon="-8.8696720">
        <ele>5.7</ele>
        <time>2021-05-18T08:36:34Z</time>
      </trkpt>
      <trkpt lat="41.7852020" lon="-8.8696690">
        <ele>5.7</ele>
        <time>2021-05-18T08:36:35Z</time>
      </trkpt>
      <trkpt lat="41.7852210" lon="-8.8696660">
        <ele>5.7</ele>
        <time>2021-05-18T08:36:36Z</time>
      </trkpt>
      <trkpt lat="41.7852340" lon="-8.8696500">
        <ele>5.7</ele>
        <time>2021-05-18T08:36:37Z</time>
      </trkpt>
      <trkpt lat="41.7852490" lon="-8.8696470">
        <ele>5.7</ele>
        <time>2021-05-18T08:36:38Z</time>
      </trkpt>
      <trkpt lat="41.7852600" lon="-8.8696300">
        <ele>5.7</ele>
        <time>2021-05-18T08:36:39Z</time>
      </trkpt>
      <trkpt lat="41.7852740" lon="-8.8696150">
        <ele>5.7</ele>
        <time>2021-05-18T08:36:40Z</time>
      </trkpt>
      <trkpt lat="41.7852870" lon="-8.8696050">
        <ele>5.7</ele>
        <time>2021-05-18T08:36:41Z</time>
      </trkpt>
      <trkpt lat="41.7853170" lon="-8.8696080">
        <ele>5.7</ele>
        <time>2021-05-18T08:36:42Z</time>
      </trkpt>
      <trkpt lat="41.7853250" lon="-8.8696080">
        <ele>5.7</ele>
        <time>2021-05-18T08:36:43Z</time>
      </trkpt>
      <trkpt lat="41.7853420" lon="-8.8696070">
        <ele>5.7</ele>
        <time>2021-05-18T08:36:44Z</time>
      </trkpt>
      <trkpt lat="41.7853550" lon="-8.8696050">
        <ele>5.7</ele>
        <time>2021-05-18T08:36:45Z</time>
      </trkpt>
      <trkpt lat="41.7853720" lon="-8.8696130">
        <ele>5.7</ele>
        <time>2021-05-18T08:36:46Z</time>
      </trkpt>
      <trkpt lat="41.7853880" lon="-8.8696150">
        <ele>5.7</ele>
        <time>2021-05-18T08:36:47Z</time>
      </trkpt>
      <trkpt lat="41.7854020" lon="-8.8696180">
        <ele>5.7</ele>
        <time>2021-05-18T08:36:48Z</time>
      </trkpt>
      <trkpt lat="41.7854170" lon="-8.8696200">
        <ele>5.7</ele>
        <time>2021-05-18T08:36:49Z</time>
      </trkpt>
      <trkpt lat="41.7854320" lon="-8.8696210">
        <ele>5.7</ele>
        <time>2021-05-18T08:36:50Z</time>
      </trkpt>
      <trkpt lat="41.7854450" lon="-8.8696210">
        <ele>5.7</ele>
        <time>2021-05-18T08:36:51Z</time>
      </trkpt>
      <trkpt lat="41.7854600" lon="-8.8696200">
        <ele>5.7</ele>
        <time>2021-05-18T08:36:52Z</time>
      </trkpt>
      <trkpt lat="41.7854760" lon="-8.8696220">
        <ele>5.7</ele>
        <time>2021-05-18T08:36:53Z</time>
      </trkpt>
      <trkpt lat="41.7854920" lon="-8.8696230">
        <ele>5.7</ele>
        <time>2021-05-18T08:36:54Z</time>
      </trkpt>
      <trkpt lat="41.7855080" lon="-8.8696290">
        <ele>5.7</ele>
        <time>2021-05-18T08:36:55Z</time>
      </trkpt>
      <trkpt lat="41.7855240" lon="-8.8696290">
        <ele>5.7</ele>
        <time>2021-05-18T08:36:57Z</time>
      </trkpt>
      <trkpt lat="41.7855390" lon="-8.8696340">
        <ele>5.7</ele>
        <time>2021-05-18T08:36:58Z</time>
      </trkpt>
      <trkpt lat="41.7855540" lon="-8.8696350">
        <ele>5.7</ele>
        <time>2021-05-18T08:36:59Z</time>
      </trkpt>
      <trkpt lat="41.7855680" lon="-8.8696420">
        <ele>5.7</ele>
        <time>2021-05-18T08:37:00Z</time>
      </trkpt>
      <trkpt lat="41.7855840" lon="-8.8696330">
        <ele>5.7</ele>
        <time>2021-05-18T08:37:01Z</time>
      </trkpt>
      <trkpt lat="41.7855980" lon="-8.8696340">
        <ele>5.7</ele>
        <time>2021-05-18T08:37:02Z</time>
      </trkpt>
      <trkpt lat="41.7856200" lon="-8.8696340">
        <ele>5.7</ele>
        <time>2021-05-18T08:37:03Z</time>
      </trkpt>
      <trkpt lat="41.7856290" lon="-8.8696350">
        <ele>5.7</ele>
        <time>2021-05-18T08:37:04Z</time>
      </trkpt>
      <trkpt lat="41.7856370" lon="-8.8696350">
        <ele>5.7</ele>
        <time>2021-05-18T08:37:05Z</time>
      </trkpt>
      <trkpt lat="41.7856500" lon="-8.8696400">
        <ele>5.7</ele>
        <time>2021-05-18T08:37:06Z</time>
      </trkpt>
      <trkpt lat="41.7856650" lon="-8.8696360">
        <ele>5.7</ele>
        <time>2021-05-18T08:37:07Z</time>
      </trkpt>
      <trkpt lat="41.7856790" lon="-8.8696420">
        <ele>5.7</ele>
        <time>2021-05-18T08:37:08Z</time>
      </trkpt>
      <trkpt lat="41.7856920" lon="-8.8696460">
        <ele>5.7</ele>
        <time>2021-05-18T08:37:09Z</time>
      </trkpt>
      <trkpt lat="41.7857060" lon="-8.8696470">
        <ele>5.7</ele>
        <time>2021-05-18T08:37:10Z</time>
      </trkpt>
      <trkpt lat="41.7857210" lon="-8.8696460">
        <ele>5.7</ele>
        <time>2021-05-18T08:37:11Z</time>
      </trkpt>
      <trkpt lat="41.7857350" lon="-8.8696510">
        <ele>5.7</ele>
        <time>2021-05-18T08:37:12Z</time>
      </trkpt>
      <trkpt lat="41.7857490" lon="-8.8696510">
        <ele>5.7</ele>
        <time>2021-05-18T08:37:13Z</time>
      </trkpt>
      <trkpt lat="41.7857620" lon="-8.8696510">
        <ele>5.7</ele>
        <time>2021-05-18T08:37:14Z</time>
      </trkpt>
      <trkpt lat="41.7857760" lon="-8.8696530">
        <ele>5.7</ele>
        <time>2021-05-18T08:37:15Z</time>
      </trkpt>
      <trkpt lat="41.7857890" lon="-8.8696620">
        <ele>5.7</ele>
        <time>2021-05-18T08:37:16Z</time>
      </trkpt>
      <trkpt lat="41.7858030" lon="-8.8696620">
        <ele>5.7</ele>
        <time>2021-05-18T08:37:17Z</time>
      </trkpt>
      <trkpt lat="41.7858150" lon="-8.8696710">
        <ele>5.7</ele>
        <time>2021-05-18T08:37:18Z</time>
      </trkpt>
      <trkpt lat="41.7858310" lon="-8.8696660">
        <ele>5.7</ele>
        <time>2021-05-18T08:37:19Z</time>
      </trkpt>
      <trkpt lat="41.7858530" lon="-8.8696670">
        <ele>5.7</ele>
        <time>2021-05-18T08:37:20Z</time>
      </trkpt>
      <trkpt lat="41.7858630" lon="-8.8696660">
        <ele>5.7</ele>
        <time>2021-05-18T08:37:21Z</time>
      </trkpt>
      <trkpt lat="41.7858720" lon="-8.8696650">
        <ele>5.7</ele>
        <time>2021-05-18T08:37:22Z</time>
      </trkpt>
      <trkpt lat="41.7858860" lon="-8.8696660">
        <ele>5.7</ele>
        <time>2021-05-18T08:37:23Z</time>
      </trkpt>
      <trkpt lat="41.7859000" lon="-8.8696690">
        <ele>5.7</ele>
        <time>2021-05-18T08:37:24Z</time>
      </trkpt>
      <trkpt lat="41.7859140" lon="-8.8696710">
        <ele>5.7</ele>
        <time>2021-05-18T08:37:25Z</time>
      </trkpt>
      <trkpt lat="41.7859270" lon="-8.8696710">
        <ele>5.7</ele>
        <time>2021-05-18T08:37:26Z</time>
      </trkpt>
      <trkpt lat="41.7859480" lon="-8.8696680">
        <ele>5.7</ele>
        <time>2021-05-18T08:37:27Z</time>
      </trkpt>
      <trkpt lat="41.7859550" lon="-8.8696650">
        <ele>5.7</ele>
        <time>2021-05-18T08:37:28Z</time>
      </trkpt>
      <trkpt lat="41.7859630" lon="-8.8696620">
        <ele>5.7</ele>
        <time>2021-05-18T08:37:29Z</time>
      </trkpt>
      <trkpt lat="41.7859720" lon="-8.8696470">
        <ele>5.7</ele>
        <time>2021-05-18T08:37:30Z</time>
      </trkpt>
      <trkpt lat="41.7859680" lon="-8.8696200">
        <ele>5.7</ele>
        <time>2021-05-18T08:37:31Z</time>
      </trkpt>
      <trkpt lat="41.7859550" lon="-8.8695820">
        <ele>5.6</ele>
        <time>2021-05-18T08:37:32Z</time>
      </trkpt>
      <trkpt lat="41.7859500" lon="-8.8695700">
        <ele>5.6</ele>
        <time>2021-05-18T08:37:33Z</time>
      </trkpt>
      <trkpt lat="41.7859480" lon="-8.8695490">
        <ele>5.6</ele>
        <time>2021-05-18T08:37:34Z</time>
      </trkpt>
      <trkpt lat="41.7859550" lon="-8.8695320">
        <ele>5.6</ele>
        <time>2021-05-18T08:37:35Z</time>
      </trkpt>
      <trkpt lat="41.7859670" lon="-8.8695230">
        <ele>5.6</ele>
        <time>2021-05-18T08:37:36Z</time>
      </trkpt>
      <trkpt lat="41.7859840" lon="-8.8695180">
        <ele>5.6</ele>
        <time>2021-05-18T08:37:37Z</time>
      </trkpt>
      <trkpt lat="41.7859980" lon="-8.8695130">
        <ele>5.6</ele>
        <time>2021-05-18T08:37:38Z</time>
      </trkpt>
      <trkpt lat="41.7860100" lon="-8.8695050">
        <ele>5.6</ele>
        <time>2021-05-18T08:37:39Z</time>
      </trkpt>
      <trkpt lat="41.7860250" lon="-8.8695030">
        <ele>5.6</ele>
        <time>2021-05-18T08:37:40Z</time>
      </trkpt>
      <trkpt lat="41.7860380" lon="-8.8694990">
        <ele>5.6</ele>
        <time>2021-05-18T08:37:41Z</time>
      </trkpt>
      <trkpt lat="41.7860520" lon="-8.8694930">
        <ele>5.6</ele>
        <time>2021-05-18T08:37:42Z</time>
      </trkpt>
      <trkpt lat="41.7860660" lon="-8.8694920">
        <ele>5.6</ele>
        <time>2021-05-18T08:37:43Z</time>
      </trkpt>
      <trkpt lat="41.7860800" lon="-8.8694960">
        <ele>5.6</ele>
        <time>2021-05-18T08:37:44Z</time>
      </trkpt>
      <trkpt lat="41.7860930" lon="-8.8694820">
        <ele>5.6</ele>
        <time>2021-05-18T08:37:45Z</time>
      </trkpt>
      <trkpt lat="41.7861070" lon="-8.8694870">
        <ele>5.6</ele>
        <time>2021-05-18T08:37:46Z</time>
      </trkpt>
      <trkpt lat="41.7861210" lon="-8.8694880">
        <ele>5.6</ele>
        <time>2021-05-18T08:37:47Z</time>
      </trkpt>
      <trkpt lat="41.7861330" lon="-8.8694860">
        <ele>5.6</ele>
        <time>2021-05-18T08:37:48Z</time>
      </trkpt>
      <trkpt lat="41.7861480" lon="-8.8694820">
        <ele>5.6</ele>
        <time>2021-05-18T08:37:49Z</time>
      </trkpt>
      <trkpt lat="41.7861640" lon="-8.8694770">
        <ele>5.6</ele>
        <time>2021-05-18T08:37:50Z</time>
      </trkpt>
      <trkpt lat="41.7861780" lon="-8.8694710">
        <ele>5.6</ele>
        <time>2021-05-18T08:37:51Z</time>
      </trkpt>
      <trkpt lat="41.7861920" lon="-8.8694640">
        <ele>5.6</ele>
        <time>2021-05-18T08:37:52Z</time>
      </trkpt>
      <trkpt lat="41.7862090" lon="-8.8694660">
        <ele>5.6</ele>
        <time>2021-05-18T08:37:53Z</time>
      </trkpt>
      <trkpt lat="41.7862230" lon="-8.8694610">
        <ele>5.6</ele>
        <time>2021-05-18T08:37:54Z</time>
      </trkpt>
      <trkpt lat="41.7862350" lon="-8.8694510">
        <ele>5.6</ele>
        <time>2021-05-18T08:37:55Z</time>
      </trkpt>
      <trkpt lat="41.7862490" lon="-8.8694520">
        <ele>5.6</ele>
        <time>2021-05-18T08:37:56Z</time>
      </trkpt>
      <trkpt lat="41.7862620" lon="-8.8694490">
        <ele>5.6</ele>
        <time>2021-05-18T08:37:57Z</time>
      </trkpt>
      <trkpt lat="41.7862820" lon="-8.8694520">
        <ele>5.6</ele>
        <time>2021-05-18T08:37:58Z</time>
      </trkpt>
      <trkpt lat="41.7862960" lon="-8.8694460">
        <ele>5.6</ele>
        <time>2021-05-18T08:37:59Z</time>
      </trkpt>
      <trkpt lat="41.7863180" lon="-8.8694500">
        <ele>5.6</ele>
        <time>2021-05-18T08:38:00Z</time>
      </trkpt>
      <trkpt lat="41.7863270" lon="-8.8694510">
        <ele>5.6</ele>
        <time>2021-05-18T08:38:01Z</time>
      </trkpt>
      <trkpt lat="41.7863350" lon="-8.8694520">
        <ele>5.6</ele>
        <time>2021-05-18T08:38:02Z</time>
      </trkpt>
      <trkpt lat="41.7863490" lon="-8.8694550">
        <ele>5.6</ele>
        <time>2021-05-18T08:38:03Z</time>
      </trkpt>
      <trkpt lat="41.7863630" lon="-8.8694590">
        <ele>5.5</ele>
        <time>2021-05-18T08:38:04Z</time>
      </trkpt>
      <trkpt lat="41.7863770" lon="-8.8694610">
        <ele>5.5</ele>
        <time>2021-05-18T08:38:05Z</time>
      </trkpt>
      <trkpt lat="41.7863930" lon="-8.8694640">
        <ele>5.5</ele>
        <time>2021-05-18T08:38:06Z</time>
      </trkpt>
      <trkpt lat="41.7864050" lon="-8.8694670">
        <ele>5.5</ele>
        <time>2021-05-18T08:38:07Z</time>
      </trkpt>
      <trkpt lat="41.7864190" lon="-8.8694720">
        <ele>5.5</ele>
        <time>2021-05-18T08:38:08Z</time>
      </trkpt>
      <trkpt lat="41.7864350" lon="-8.8694710">
        <ele>5.5</ele>
        <time>2021-05-18T08:38:09Z</time>
      </trkpt>
      <trkpt lat="41.7864480" lon="-8.8694740">
        <ele>5.5</ele>
        <time>2021-05-18T08:38:10Z</time>
      </trkpt>
      <trkpt lat="41.7864600" lon="-8.8694810">
        <ele>5.5</ele>
        <time>2021-05-18T08:38:11Z</time>
      </trkpt>
      <trkpt lat="41.7864740" lon="-8.8694810">
        <ele>5.5</ele>
        <time>2021-05-18T08:38:12Z</time>
      </trkpt>
      <trkpt lat="41.7864890" lon="-8.8694880">
        <ele>5.5</ele>
        <time>2021-05-18T08:38:13Z</time>
      </trkpt>
      <trkpt lat="41.7865030" lon="-8.8694860">
        <ele>5.5</ele>
        <time>2021-05-18T08:38:14Z</time>
      </trkpt>
      <trkpt lat="41.7865180" lon="-8.8694940">
        <ele>5.5</ele>
        <time>2021-05-18T08:38:15Z</time>
      </trkpt>
      <trkpt lat="41.7865340" lon="-8.8694890">
        <ele>5.5</ele>
        <time>2021-05-18T08:38:16Z</time>
      </trkpt>
      <trkpt lat="41.7865480" lon="-8.8694910">
        <ele>5.5</ele>
        <time>2021-05-18T08:38:17Z</time>
      </trkpt>
      <trkpt lat="41.7865640" lon="-8.8694870">
        <ele>5.5</ele>
        <time>2021-05-18T08:38:18Z</time>
      </trkpt>
      <trkpt lat="41.7865770" lon="-8.8694810">
        <ele>5.5</ele>
        <time>2021-05-18T08:38:19Z</time>
      </trkpt>
      <trkpt lat="41.7865910" lon="-8.8694780">
        <ele>5.5</ele>
        <time>2021-05-18T08:38:20Z</time>
      </trkpt>
      <trkpt lat="41.7866070" lon="-8.8694890">
        <ele>5.4</ele>
        <time>2021-05-18T08:38:21Z</time>
      </trkpt>
      <trkpt lat="41.7866210" lon="-8.8694920">
        <ele>5.4</ele>
        <time>2021-05-18T08:38:22Z</time>
      </trkpt>
      <trkpt lat="41.7866430" lon="-8.8695000">
        <ele>5.4</ele>
        <time>2021-05-18T08:38:23Z</time>
      </trkpt>
      <trkpt lat="41.7866520" lon="-8.8694990">
        <ele>5.4</ele>
        <time>2021-05-18T08:38:24Z</time>
      </trkpt>
      <trkpt lat="41.7866600" lon="-8.8694990">
        <ele>5.4</ele>
        <time>2021-05-18T08:38:25Z</time>
      </trkpt>
      <trkpt lat="41.7866860" lon="-8.8695020">
        <ele>5.4</ele>
        <time>2021-05-18T08:38:26Z</time>
      </trkpt>
      <trkpt lat="41.7867000" lon="-8.8695060">
        <ele>5.4</ele>
        <time>2021-05-18T08:38:27Z</time>
      </trkpt>
      <trkpt lat="41.7867130" lon="-8.8695110">
        <ele>5.4</ele>
        <time>2021-05-18T08:38:28Z</time>
      </trkpt>
      <trkpt lat="41.7867280" lon="-8.8695110">
        <ele>5.4</ele>
        <time>2021-05-18T08:38:29Z</time>
      </trkpt>
      <trkpt lat="41.7867410" lon="-8.8695170">
        <ele>5.4</ele>
        <time>2021-05-18T08:38:30Z</time>
      </trkpt>
      <trkpt lat="41.7867540" lon="-8.8695180">
        <ele>5.4</ele>
        <time>2021-05-18T08:38:31Z</time>
      </trkpt>
      <trkpt lat="41.7867700" lon="-8.8695230">
        <ele>5.3</ele>
        <time>2021-05-18T08:38:32Z</time>
      </trkpt>
      <trkpt lat="41.7867840" lon="-8.8695240">
        <ele>5.3</ele>
        <time>2021-05-18T08:38:33Z</time>
      </trkpt>
      <trkpt lat="41.7867970" lon="-8.8695300">
        <ele>5.3</ele>
        <time>2021-05-18T08:38:34Z</time>
      </trkpt>
      <trkpt lat="41.7868110" lon="-8.8695260">
        <ele>5.3</ele>
        <time>2021-05-18T08:38:35Z</time>
      </trkpt>
      <trkpt lat="41.7868250" lon="-8.8695260">
        <ele>5.3</ele>
        <time>2021-05-18T08:38:36Z</time>
      </trkpt>
      <trkpt lat="41.7868410" lon="-8.8695130">
        <ele>5.3</ele>
        <time>2021-05-18T08:38:37Z</time>
      </trkpt>
      <trkpt lat="41.7868550" lon="-8.8695140">
        <ele>5.3</ele>
        <time>2021-05-18T08:38:38Z</time>
      </trkpt>
      <trkpt lat="41.7868690" lon="-8.8695130">
        <ele>5.3</ele>
        <time>2021-05-18T08:38:39Z</time>
      </trkpt>
      <trkpt lat="41.7868830" lon="-8.8695130">
        <ele>5.3</ele>
        <time>2021-05-18T08:38:40Z</time>
      </trkpt>
      <trkpt lat="41.7868960" lon="-8.8695150">
        <ele>5.3</ele>
        <time>2021-05-18T08:38:41Z</time>
      </trkpt>
      <trkpt lat="41.7869190" lon="-8.8695240">
        <ele>5.3</ele>
        <time>2021-05-18T08:38:42Z</time>
      </trkpt>
      <trkpt lat="41.7869270" lon="-8.8695250">
        <ele>5.3</ele>
        <time>2021-05-18T08:38:43Z</time>
      </trkpt>
      <trkpt lat="41.7869360" lon="-8.8695250">
        <ele>5.3</ele>
        <time>2021-05-18T08:38:44Z</time>
      </trkpt>
      <trkpt lat="41.7869500" lon="-8.8695230">
        <ele>5.2</ele>
        <time>2021-05-18T08:38:45Z</time>
      </trkpt>
      <trkpt lat="41.7869640" lon="-8.8695340">
        <ele>5.2</ele>
        <time>2021-05-18T08:38:46Z</time>
      </trkpt>
      <trkpt lat="41.7869780" lon="-8.8695400">
        <ele>5.2</ele>
        <time>2021-05-18T08:38:47Z</time>
      </trkpt>
      <trkpt lat="41.7869920" lon="-8.8695420">
        <ele>5.2</ele>
        <time>2021-05-18T08:38:48Z</time>
      </trkpt>
      <trkpt lat="41.7870070" lon="-8.8695420">
        <ele>5.2</ele>
        <time>2021-05-18T08:38:49Z</time>
      </trkpt>
      <trkpt lat="41.7870220" lon="-8.8695430">
        <ele>5.2</ele>
        <time>2021-05-18T08:38:50Z</time>
      </trkpt>
      <trkpt lat="41.7870360" lon="-8.8695500">
        <ele>5.2</ele>
        <time>2021-05-18T08:38:51Z</time>
      </trkpt>
      <trkpt lat="41.7870490" lon="-8.8695530">
        <ele>5.2</ele>
        <time>2021-05-18T08:38:52Z</time>
      </trkpt>
      <trkpt lat="41.7870610" lon="-8.8695630">
        <ele>5.2</ele>
        <time>2021-05-18T08:38:53Z</time>
      </trkpt>
      <trkpt lat="41.7870750" lon="-8.8695690">
        <ele>5.2</ele>
        <time>2021-05-18T08:38:54Z</time>
      </trkpt>
      <trkpt lat="41.7870980" lon="-8.8695710">
        <ele>5.2</ele>
        <time>2021-05-18T08:38:56Z</time>
      </trkpt>
      <trkpt lat="41.7871070" lon="-8.8695730">
        <ele>5.2</ele>
        <time>2021-05-18T08:38:57Z</time>
      </trkpt>
      <trkpt lat="41.7871150" lon="-8.8695750">
        <ele>5.2</ele>
        <time>2021-05-18T08:38:58Z</time>
      </trkpt>
      <trkpt lat="41.7871310" lon="-8.8695810">
        <ele>5.2</ele>
        <time>2021-05-18T08:38:59Z</time>
      </trkpt>
      <trkpt lat="41.7871430" lon="-8.8695860">
        <ele>5.1</ele>
        <time>2021-05-18T08:39:00Z</time>
      </trkpt>
      <trkpt lat="41.7871570" lon="-8.8695880">
        <ele>5.1</ele>
        <time>2021-05-18T08:39:01Z</time>
      </trkpt>
      <trkpt lat="41.7871700" lon="-8.8695920">
        <ele>5.1</ele>
        <time>2021-05-18T08:39:02Z</time>
      </trkpt>
      <trkpt lat="41.7871850" lon="-8.8696040">
        <ele>5.1</ele>
        <time>2021-05-18T08:39:03Z</time>
      </trkpt>
      <trkpt lat="41.7872000" lon="-8.8696050">
        <ele>5.1</ele>
        <time>2021-05-18T08:39:04Z</time>
      </trkpt>
      <trkpt lat="41.7872210" lon="-8.8696130">
        <ele>5.1</ele>
        <time>2021-05-18T08:39:05Z</time>
      </trkpt>
      <trkpt lat="41.7872310" lon="-8.8696150">
        <ele>5.1</ele>
        <time>2021-05-18T08:39:06Z</time>
      </trkpt>
      <trkpt lat="41.7872400" lon="-8.8696160">
        <ele>5.1</ele>
        <time>2021-05-18T08:39:07Z</time>
      </trkpt>
      <trkpt lat="41.7872610" lon="-8.8696230">
        <ele>5.1</ele>
        <time>2021-05-18T08:39:08Z</time>
      </trkpt>
      <trkpt lat="41.7872690" lon="-8.8696260">
        <ele>5.1</ele>
        <time>2021-05-18T08:39:09Z</time>
      </trkpt>
      <trkpt lat="41.7872780" lon="-8.8696300">
        <ele>5.1</ele>
        <time>2021-05-18T08:39:10Z</time>
      </trkpt>
      <trkpt lat="41.7872910" lon="-8.8696320">
        <ele>5.1</ele>
        <time>2021-05-18T08:39:11Z</time>
      </trkpt>
      <trkpt lat="41.7873050" lon="-8.8696350">
        <ele>5.1</ele>
        <time>2021-05-18T08:39:12Z</time>
      </trkpt>
      <trkpt lat="41.7873270" lon="-8.8696380">
        <ele>5.1</ele>
        <time>2021-05-18T08:39:13Z</time>
      </trkpt>
      <trkpt lat="41.7873350" lon="-8.8696410">
        <ele>5.1</ele>
        <time>2021-05-18T08:39:14Z</time>
      </trkpt>
      <trkpt lat="41.7873440" lon="-8.8696430">
        <ele>5.1</ele>
        <time>2021-05-18T08:39:15Z</time>
      </trkpt>
      <trkpt lat="41.7873580" lon="-8.8696530">
        <ele>5.1</ele>
        <time>2021-05-18T08:39:16Z</time>
      </trkpt>
      <trkpt lat="41.7873710" lon="-8.8696530">
        <ele>5.1</ele>
        <time>2021-05-18T08:39:17Z</time>
      </trkpt>
      <trkpt lat="41.7873840" lon="-8.8696570">
        <ele>5.1</ele>
        <time>2021-05-18T08:39:18Z</time>
      </trkpt>
      <trkpt lat="41.7874000" lon="-8.8696550">
        <ele>5.1</ele>
        <time>2021-05-18T08:39:19Z</time>
      </trkpt>
      <trkpt lat="41.7874150" lon="-8.8696550">
        <ele>5.1</ele>
        <time>2021-05-18T08:39:20Z</time>
      </trkpt>
      <trkpt lat="41.7874290" lon="-8.8696580">
        <ele>5.1</ele>
        <time>2021-05-18T08:39:21Z</time>
      </trkpt>
      <trkpt lat="41.7874420" lon="-8.8696620">
        <ele>5.1</ele>
        <time>2021-05-18T08:39:22Z</time>
      </trkpt>
      <trkpt lat="41.7874560" lon="-8.8696660">
        <ele>5.1</ele>
        <time>2021-05-18T08:39:23Z</time>
      </trkpt>
      <trkpt lat="41.7874690" lon="-8.8696700">
        <ele>5.1</ele>
        <time>2021-05-18T08:39:24Z</time>
      </trkpt>
      <trkpt lat="41.7874830" lon="-8.8696830">
        <ele>5.1</ele>
        <time>2021-05-18T08:39:25Z</time>
      </trkpt>
      <trkpt lat="41.7874980" lon="-8.8696780">
        <ele>5.1</ele>
        <time>2021-05-18T08:39:26Z</time>
      </trkpt>
      <trkpt lat="41.7875110" lon="-8.8696890">
        <ele>5.1</ele>
        <time>2021-05-18T08:39:27Z</time>
      </trkpt>
      <trkpt lat="41.7875240" lon="-8.8696890">
        <ele>5.1</ele>
        <time>2021-05-18T08:39:28Z</time>
      </trkpt>
      <trkpt lat="41.7875380" lon="-8.8696950">
        <ele>5.1</ele>
        <time>2021-05-18T08:39:29Z</time>
      </trkpt>
      <trkpt lat="41.7875510" lon="-8.8696970">
        <ele>5.1</ele>
        <time>2021-05-18T08:39:30Z</time>
      </trkpt>
      <trkpt lat="41.7875650" lon="-8.8697010">
        <ele>5.1</ele>
        <time>2021-05-18T08:39:31Z</time>
      </trkpt>
      <trkpt lat="41.7875770" lon="-8.8697100">
        <ele>5.2</ele>
        <time>2021-05-18T08:39:32Z</time>
      </trkpt>
      <trkpt lat="41.7875940" lon="-8.8697090">
        <ele>5.2</ele>
        <time>2021-05-18T08:39:33Z</time>
      </trkpt>
      <trkpt lat="41.7876070" lon="-8.8697130">
        <ele>5.2</ele>
        <time>2021-05-18T08:39:34Z</time>
      </trkpt>
      <trkpt lat="41.7876210" lon="-8.8697160">
        <ele>5.2</ele>
        <time>2021-05-18T08:39:35Z</time>
      </trkpt>
      <trkpt lat="41.7876340" lon="-8.8697210">
        <ele>5.2</ele>
        <time>2021-05-18T08:39:36Z</time>
      </trkpt>
      <trkpt lat="41.7876460" lon="-8.8697280">
        <ele>5.2</ele>
        <time>2021-05-18T08:39:37Z</time>
      </trkpt>
      <trkpt lat="41.7876690" lon="-8.8697350">
        <ele>5.2</ele>
        <time>2021-05-18T08:39:38Z</time>
      </trkpt>
      <trkpt lat="41.7876780" lon="-8.8697370">
        <ele>5.2</ele>
        <time>2021-05-18T08:39:39Z</time>
      </trkpt>
      <trkpt lat="41.7876860" lon="-8.8697400">
        <ele>5.2</ele>
        <time>2021-05-18T08:39:40Z</time>
      </trkpt>
      <trkpt lat="41.7877080" lon="-8.8697470">
        <ele>5.2</ele>
        <time>2021-05-18T08:39:41Z</time>
      </trkpt>
      <trkpt lat="41.7877170" lon="-8.8697510">
        <ele>5.2</ele>
        <time>2021-05-18T08:39:42Z</time>
      </trkpt>
      <trkpt lat="41.7877250" lon="-8.8697550">
        <ele>5.3</ele>
        <time>2021-05-18T08:39:43Z</time>
      </trkpt>
      <trkpt lat="41.7877390" lon="-8.8697600">
        <ele>5.3</ele>
        <time>2021-05-18T08:39:44Z</time>
      </trkpt>
      <trkpt lat="41.7877520" lon="-8.8697710">
        <ele>5.3</ele>
        <time>2021-05-18T08:39:45Z</time>
      </trkpt>
      <trkpt lat="41.7877670" lon="-8.8697690">
        <ele>5.3</ele>
        <time>2021-05-18T08:39:46Z</time>
      </trkpt>
      <trkpt lat="41.7877810" lon="-8.8697710">
        <ele>5.3</ele>
        <time>2021-05-18T08:39:47Z</time>
      </trkpt>
      <trkpt lat="41.7877950" lon="-8.8697740">
        <ele>5.3</ele>
        <time>2021-05-18T08:39:48Z</time>
      </trkpt>
      <trkpt lat="41.7878080" lon="-8.8697830">
        <ele>5.3</ele>
        <time>2021-05-18T08:39:49Z</time>
      </trkpt>
      <trkpt lat="41.7878240" lon="-8.8697820">
        <ele>5.3</ele>
        <time>2021-05-18T08:39:50Z</time>
      </trkpt>
      <trkpt lat="41.7878390" lon="-8.8697860">
        <ele>5.3</ele>
        <time>2021-05-18T08:39:51Z</time>
      </trkpt>
      <trkpt lat="41.7878530" lon="-8.8697930">
        <ele>5.4</ele>
        <time>2021-05-18T08:39:52Z</time>
      </trkpt>
      <trkpt lat="41.7878670" lon="-8.8697950">
        <ele>5.4</ele>
        <time>2021-05-18T08:39:53Z</time>
      </trkpt>
      <trkpt lat="41.7878820" lon="-8.8698010">
        <ele>5.4</ele>
        <time>2021-05-18T08:39:54Z</time>
      </trkpt>
      <trkpt lat="41.7878980" lon="-8.8697980">
        <ele>5.4</ele>
        <time>2021-05-18T08:39:55Z</time>
      </trkpt>
      <trkpt lat="41.7879120" lon="-8.8698000">
        <ele>5.4</ele>
        <time>2021-05-18T08:39:56Z</time>
      </trkpt>
      <trkpt lat="41.7879260" lon="-8.8698090">
        <ele>5.4</ele>
        <time>2021-05-18T08:39:57Z</time>
      </trkpt>
      <trkpt lat="41.7879420" lon="-8.8698070">
        <ele>5.4</ele>
        <time>2021-05-18T08:39:58Z</time>
      </trkpt>
      <trkpt lat="41.7879540" lon="-8.8698110">
        <ele>5.4</ele>
        <time>2021-05-18T08:39:59Z</time>
      </trkpt>
      <trkpt lat="41.7879660" lon="-8.8698120">
        <ele>5.4</ele>
        <time>2021-05-18T08:40:00Z</time>
      </trkpt>
      <trkpt lat="41.7879760" lon="-8.8698160">
        <ele>5.5</ele>
        <time>2021-05-18T08:40:01Z</time>
      </trkpt>
      <trkpt lat="41.7879790" lon="-8.8698150">
        <ele>5.5</ele>
        <time>2021-05-18T08:40:02Z</time>
      </trkpt>
      <trkpt lat="41.7879850" lon="-8.8698160">
        <ele>5.5</ele>
        <time>2021-05-18T08:40:03Z</time>
      </trkpt>
      <trkpt lat="41.7879910" lon="-8.8698120">
        <ele>5.5</ele>
        <time>2021-05-18T08:40:04Z</time>
      </trkpt>
      <trkpt lat="41.7880060" lon="-8.8698120">
        <ele>5.5</ele>
        <time>2021-05-18T08:40:05Z</time>
      </trkpt>
      <trkpt lat="41.7880170" lon="-8.8698180">
        <ele>5.5</ele>
        <time>2021-05-18T08:40:06Z</time>
      </trkpt>
      <trkpt lat="41.7880240" lon="-8.8698130">
        <ele>5.5</ele>
        <time>2021-05-18T08:40:07Z</time>
      </trkpt>
      <trkpt lat="41.7880380" lon="-8.8698210">
        <ele>5.5</ele>
        <time>2021-05-18T08:40:08Z</time>
      </trkpt>
      <trkpt lat="41.7880490" lon="-8.8698240">
        <ele>5.5</ele>
        <time>2021-05-18T08:40:09Z</time>
      </trkpt>
      <trkpt lat="41.7880520" lon="-8.8698250">
        <ele>5.5</ele>
        <time>2021-05-18T08:40:10Z</time>
      </trkpt>
      <trkpt lat="41.7880620" lon="-8.8698300">
        <ele>5.5</ele>
        <time>2021-05-18T08:40:11Z</time>
      </trkpt>
      <trkpt lat="41.7880750" lon="-8.8698350">
        <ele>5.5</ele>
        <time>2021-05-18T08:40:12Z</time>
      </trkpt>
      <trkpt lat="41.7880870" lon="-8.8698370">
        <ele>5.6</ele>
        <time>2021-05-18T08:40:13Z</time>
      </trkpt>
      <trkpt lat="41.7881010" lon="-8.8698480">
        <ele>5.6</ele>
        <time>2021-05-18T08:40:14Z</time>
      </trkpt>
      <trkpt lat="41.7881010" lon="-8.8698480">
        <ele>5.6</ele>
        <time>2021-05-18T08:40:15Z</time>
      </trkpt>
      <trkpt lat="41.7881130" lon="-8.8698540">
        <ele>5.6</ele>
        <time>2021-05-18T08:40:16Z</time>
      </trkpt>
      <trkpt lat="41.7881260" lon="-8.8698630">
        <ele>5.6</ele>
        <time>2021-05-18T08:40:17Z</time>
      </trkpt>
      <trkpt lat="41.7881380" lon="-8.8698720">
        <ele>5.6</ele>
        <time>2021-05-18T08:40:18Z</time>
      </trkpt>
      <trkpt lat="41.7881480" lon="-8.8698770">
        <ele>5.6</ele>
        <time>2021-05-18T08:40:19Z</time>
      </trkpt>
      <trkpt lat="41.7881540" lon="-8.8698780">
        <ele>5.6</ele>
        <time>2021-05-18T08:40:20Z</time>
      </trkpt>
      <trkpt lat="41.7881690" lon="-8.8698790">
        <ele>5.6</ele>
        <time>2021-05-18T08:40:21Z</time>
      </trkpt>
      <trkpt lat="41.7881780" lon="-8.8698880">
        <ele>5.6</ele>
        <time>2021-05-18T08:40:22Z</time>
      </trkpt>
      <trkpt lat="41.7881880" lon="-8.8698860">
        <ele>5.7</ele>
        <time>2021-05-18T08:40:23Z</time>
      </trkpt>
      <trkpt lat="41.7882080" lon="-8.8698830">
        <ele>5.7</ele>
        <time>2021-05-18T08:40:24Z</time>
      </trkpt>
      <trkpt lat="41.7882190" lon="-8.8698860">
        <ele>5.7</ele>
        <time>2021-05-18T08:40:25Z</time>
      </trkpt>
      <trkpt lat="41.7882300" lon="-8.8698880">
        <ele>5.7</ele>
        <time>2021-05-18T08:40:26Z</time>
      </trkpt>
      <trkpt lat="41.7882430" lon="-8.8698900">
        <ele>5.7</ele>
        <time>2021-05-18T08:40:27Z</time>
      </trkpt>
      <trkpt lat="41.7882580" lon="-8.8698940">
        <ele>5.7</ele>
        <time>2021-05-18T08:40:28Z</time>
      </trkpt>
      <trkpt lat="41.7882600" lon="-8.8698960">
        <ele>5.7</ele>
        <time>2021-05-18T08:40:29Z</time>
      </trkpt>
      <trkpt lat="41.7882840" lon="-8.8699050">
        <ele>5.7</ele>
        <time>2021-05-18T08:40:30Z</time>
      </trkpt>
      <trkpt lat="41.7882960" lon="-8.8699090">
        <ele>5.8</ele>
        <time>2021-05-18T08:40:31Z</time>
      </trkpt>
      <trkpt lat="41.7883130" lon="-8.8699170">
        <ele>5.8</ele>
        <time>2021-05-18T08:40:32Z</time>
      </trkpt>
      <trkpt lat="41.7883250" lon="-8.8699220">
        <ele>5.8</ele>
        <time>2021-05-18T08:40:33Z</time>
      </trkpt>
      <trkpt lat="41.7883440" lon="-8.8699230">
        <ele>5.8</ele>
        <time>2021-05-18T08:40:34Z</time>
      </trkpt>
      <trkpt lat="41.7883630" lon="-8.8699220">
        <ele>5.8</ele>
        <time>2021-05-18T08:40:35Z</time>
      </trkpt>
      <trkpt lat="41.7883720" lon="-8.8699200">
        <ele>5.8</ele>
        <time>2021-05-18T08:40:36Z</time>
      </trkpt>
      <trkpt lat="41.7884030" lon="-8.8699260">
        <ele>5.9</ele>
        <time>2021-05-18T08:40:37Z</time>
      </trkpt>
      <trkpt lat="41.7884100" lon="-8.8699270">
        <ele>5.9</ele>
        <time>2021-05-18T08:40:38Z</time>
      </trkpt>
      <trkpt lat="41.7884210" lon="-8.8699330">
        <ele>5.9</ele>
        <time>2021-05-18T08:40:39Z</time>
      </trkpt>
      <trkpt lat="41.7884250" lon="-8.8699290">
        <ele>5.9</ele>
        <time>2021-05-18T08:40:40Z</time>
      </trkpt>
      <trkpt lat="41.7884400" lon="-8.8699320">
        <ele>5.9</ele>
        <time>2021-05-18T08:40:41Z</time>
      </trkpt>
      <trkpt lat="41.7884590" lon="-8.8699390">
        <ele>5.9</ele>
        <time>2021-05-18T08:40:42Z</time>
      </trkpt>
      <trkpt lat="41.7884690" lon="-8.8699490">
        <ele>5.9</ele>
        <time>2021-05-18T08:40:43Z</time>
      </trkpt>
      <trkpt lat="41.7884800" lon="-8.8699480">
        <ele>5.9</ele>
        <time>2021-05-18T08:40:44Z</time>
      </trkpt>
      <trkpt lat="41.7884970" lon="-8.8699540">
        <ele>6.0</ele>
        <time>2021-05-18T08:40:45Z</time>
      </trkpt>
      <trkpt lat="41.7885080" lon="-8.8699540">
        <ele>6.0</ele>
        <time>2021-05-18T08:40:46Z</time>
      </trkpt>
      <trkpt lat="41.7885240" lon="-8.8699540">
        <ele>6.0</ele>
        <time>2021-05-18T08:40:47Z</time>
      </trkpt>
      <trkpt lat="41.7885330" lon="-8.8699540">
        <ele>6.0</ele>
        <time>2021-05-18T08:40:48Z</time>
      </trkpt>
      <trkpt lat="41.7885440" lon="-8.8699550">
        <ele>6.0</ele>
        <time>2021-05-18T08:40:49Z</time>
      </trkpt>
      <trkpt lat="41.7885560" lon="-8.8699520">
        <ele>6.0</ele>
        <time>2021-05-18T08:40:50Z</time>
      </trkpt>
      <trkpt lat="41.7885750" lon="-8.8699650">
        <ele>6.1</ele>
        <time>2021-05-18T08:40:51Z</time>
      </trkpt>
      <trkpt lat="41.7885840" lon="-8.8699720">
        <ele>6.1</ele>
        <time>2021-05-18T08:40:52Z</time>
      </trkpt>
      <trkpt lat="41.7885920" lon="-8.8699800">
        <ele>6.1</ele>
        <time>2021-05-18T08:40:53Z</time>
      </trkpt>
      <trkpt lat="41.7886030" lon="-8.8699820">
        <ele>6.1</ele>
        <time>2021-05-18T08:40:54Z</time>
      </trkpt>
      <trkpt lat="41.7886180" lon="-8.8699790">
        <ele>6.1</ele>
        <time>2021-05-18T08:40:55Z</time>
      </trkpt>
      <trkpt lat="41.7886290" lon="-8.8699820">
        <ele>6.1</ele>
        <time>2021-05-18T08:40:57Z</time>
      </trkpt>
      <trkpt lat="41.7886470" lon="-8.8699840">
        <ele>6.1</ele>
        <time>2021-05-18T08:40:58Z</time>
      </trkpt>
      <trkpt lat="41.7886620" lon="-8.8699890">
        <ele>6.1</ele>
        <time>2021-05-18T08:40:59Z</time>
      </trkpt>
      <trkpt lat="41.7886750" lon="-8.8699930">
        <ele>6.2</ele>
        <time>2021-05-18T08:41:00Z</time>
      </trkpt>
      <trkpt lat="41.7886920" lon="-8.8699980">
        <ele>6.2</ele>
        <time>2021-05-18T08:41:01Z</time>
      </trkpt>
      <trkpt lat="41.7887100" lon="-8.8699970">
        <ele>6.2</ele>
        <time>2021-05-18T08:41:02Z</time>
      </trkpt>
      <trkpt lat="41.7887200" lon="-8.8699940">
        <ele>6.2</ele>
        <time>2021-05-18T08:41:03Z</time>
      </trkpt>
      <trkpt lat="41.7887320" lon="-8.8700030">
        <ele>6.2</ele>
        <time>2021-05-18T08:41:04Z</time>
      </trkpt>
      <trkpt lat="41.7887490" lon="-8.8700060">
        <ele>6.2</ele>
        <time>2021-05-18T08:41:05Z</time>
      </trkpt>
      <trkpt lat="41.7887740" lon="-8.8700170">
        <ele>6.3</ele>
        <time>2021-05-18T08:41:06Z</time>
      </trkpt>
      <trkpt lat="41.7887940" lon="-8.8700220">
        <ele>6.3</ele>
        <time>2021-05-18T08:41:07Z</time>
      </trkpt>
      <trkpt lat="41.7888090" lon="-8.8700230">
        <ele>6.3</ele>
        <time>2021-05-18T08:41:08Z</time>
      </trkpt>
      <trkpt lat="41.7888270" lon="-8.8700290">
        <ele>6.3</ele>
        <time>2021-05-18T08:41:09Z</time>
      </trkpt>
      <trkpt lat="41.7888430" lon="-8.8700320">
        <ele>6.3</ele>
        <time>2021-05-18T08:41:10Z</time>
      </trkpt>
      <trkpt lat="41.7888610" lon="-8.8700370">
        <ele>6.4</ele>
        <time>2021-05-18T08:41:11Z</time>
      </trkpt>
      <trkpt lat="41.7888760" lon="-8.8700360">
        <ele>6.4</ele>
        <time>2021-05-18T08:41:12Z</time>
      </trkpt>
      <trkpt lat="41.7888920" lon="-8.8700400">
        <ele>6.4</ele>
        <time>2021-05-18T08:41:13Z</time>
      </trkpt>
      <trkpt lat="41.7889090" lon="-8.8700440">
        <ele>6.4</ele>
        <time>2021-05-18T08:41:14Z</time>
      </trkpt>
      <trkpt lat="41.7889380" lon="-8.8700500">
        <ele>6.4</ele>
        <time>2021-05-18T08:41:15Z</time>
      </trkpt>
      <trkpt lat="41.7889460" lon="-8.8700510">
        <ele>6.4</ele>
        <time>2021-05-18T08:41:16Z</time>
      </trkpt>
      <trkpt lat="41.7889650" lon="-8.8700470">
        <ele>6.5</ele>
        <time>2021-05-18T08:41:17Z</time>
      </trkpt>
      <trkpt lat="41.7889800" lon="-8.8700550">
        <ele>6.5</ele>
        <time>2021-05-18T08:41:18Z</time>
      </trkpt>
      <trkpt lat="41.7889980" lon="-8.8700600">
        <ele>6.5</ele>
        <time>2021-05-18T08:41:19Z</time>
      </trkpt>
      <trkpt lat="41.7890130" lon="-8.8700630">
        <ele>6.5</ele>
        <time>2021-05-18T08:41:20Z</time>
      </trkpt>
      <trkpt lat="41.7890290" lon="-8.8700630">
        <ele>6.5</ele>
        <time>2021-05-18T08:41:21Z</time>
      </trkpt>
      <trkpt lat="41.7890450" lon="-8.8700640">
        <ele>6.5</ele>
        <time>2021-05-18T08:41:22Z</time>
      </trkpt>
      <trkpt lat="41.7890590" lon="-8.8700660">
        <ele>6.5</ele>
        <time>2021-05-18T08:41:23Z</time>
      </trkpt>
      <trkpt lat="41.7890750" lon="-8.8700680">
        <ele>6.5</ele>
        <time>2021-05-18T08:41:24Z</time>
      </trkpt>
      <trkpt lat="41.7890890" lon="-8.8700750">
        <ele>6.6</ele>
        <time>2021-05-18T08:41:25Z</time>
      </trkpt>
      <trkpt lat="41.7891030" lon="-8.8700820">
        <ele>6.6</ele>
        <time>2021-05-18T08:41:26Z</time>
      </trkpt>
      <trkpt lat="41.7891180" lon="-8.8700830">
        <ele>6.6</ele>
        <time>2021-05-18T08:41:27Z</time>
      </trkpt>
      <trkpt lat="41.7891320" lon="-8.8700960">
        <ele>6.6</ele>
        <time>2021-05-18T08:41:28Z</time>
      </trkpt>
      <trkpt lat="41.7891480" lon="-8.8700960">
        <ele>6.6</ele>
        <time>2021-05-18T08:41:29Z</time>
      </trkpt>
      <trkpt lat="41.7891640" lon="-8.8700990">
        <ele>6.6</ele>
        <time>2021-05-18T08:41:30Z</time>
      </trkpt>
      <trkpt lat="41.7891800" lon="-8.8701030">
        <ele>6.6</ele>
        <time>2021-05-18T08:41:31Z</time>
      </trkpt>
      <trkpt lat="41.7891960" lon="-8.8701080">
        <ele>6.6</ele>
        <time>2021-05-18T08:41:32Z</time>
      </trkpt>
      <trkpt lat="41.7892090" lon="-8.8701130">
        <ele>6.7</ele>
        <time>2021-05-18T08:41:33Z</time>
      </trkpt>
      <trkpt lat="41.7892250" lon="-8.8701120">
        <ele>6.7</ele>
        <time>2021-05-18T08:41:34Z</time>
      </trkpt>
      <trkpt lat="41.7892390" lon="-8.8701070">
        <ele>6.7</ele>
        <time>2021-05-18T08:41:35Z</time>
      </trkpt>
      <trkpt lat="41.7892530" lon="-8.8701010">
        <ele>6.7</ele>
        <time>2021-05-18T08:41:36Z</time>
      </trkpt>
      <trkpt lat="41.7892710" lon="-8.8701010">
        <ele>6.7</ele>
        <time>2021-05-18T08:41:37Z</time>
      </trkpt>
      <trkpt lat="41.7892860" lon="-8.8701070">
        <ele>6.7</ele>
        <time>2021-05-18T08:41:38Z</time>
      </trkpt>
      <trkpt lat="41.7893020" lon="-8.8701070">
        <ele>6.7</ele>
        <time>2021-05-18T08:41:39Z</time>
      </trkpt>
      <trkpt lat="41.7893180" lon="-8.8701050">
        <ele>6.7</ele>
        <time>2021-05-18T08:41:40Z</time>
      </trkpt>
      <trkpt lat="41.7893340" lon="-8.8701080">
        <ele>6.8</ele>
        <time>2021-05-18T08:41:41Z</time>
      </trkpt>
      <trkpt lat="41.7893490" lon="-8.8700980">
        <ele>6.8</ele>
        <time>2021-05-18T08:41:42Z</time>
      </trkpt>
      <trkpt lat="41.7893640" lon="-8.8700940">
        <ele>6.8</ele>
        <time>2021-05-18T08:41:43Z</time>
      </trkpt>
      <trkpt lat="41.7893770" lon="-8.8700780">
        <ele>6.9</ele>
        <time>2021-05-18T08:41:44Z</time>
      </trkpt>
      <trkpt lat="41.7893920" lon="-8.8700650">
        <ele>6.9</ele>
        <time>2021-05-18T08:41:45Z</time>
      </trkpt>
      <trkpt lat="41.7893990" lon="-8.8700660">
        <ele>6.9</ele>
        <time>2021-05-18T08:41:46Z</time>
      </trkpt>
      <trkpt lat="41.7894090" lon="-8.8700660">
        <ele>6.9</ele>
        <time>2021-05-18T08:41:47Z</time>
      </trkpt>
      <trkpt lat="41.7894190" lon="-8.8700600">
        <ele>6.9</ele>
        <time>2021-05-18T08:41:48Z</time>
      </trkpt>
      <trkpt lat="41.7894290" lon="-8.8700580">
        <ele>6.9</ele>
        <time>2021-05-18T08:41:49Z</time>
      </trkpt>
      <trkpt lat="41.7894390" lon="-8.8700590">
        <ele>6.9</ele>
        <time>2021-05-18T08:41:50Z</time>
      </trkpt>
      <trkpt lat="41.7894490" lon="-8.8700620">
        <ele>6.9</ele>
        <time>2021-05-18T08:41:51Z</time>
      </trkpt>
      <trkpt lat="41.7894600" lon="-8.8700660">
        <ele>6.9</ele>
        <time>2021-05-18T08:41:52Z</time>
      </trkpt>
      <trkpt lat="41.7894730" lon="-8.8700730">
        <ele>6.9</ele>
        <time>2021-05-18T08:41:53Z</time>
      </trkpt>
      <trkpt lat="41.7894830" lon="-8.8700760">
        <ele>6.9</ele>
        <time>2021-05-18T08:41:54Z</time>
      </trkpt>
      <trkpt lat="41.7894910" lon="-8.8700780">
        <ele>6.9</ele>
        <time>2021-05-18T08:41:55Z</time>
      </trkpt>
      <trkpt lat="41.7894980" lon="-8.8700760">
        <ele>6.9</ele>
        <time>2021-05-18T08:41:56Z</time>
      </trkpt>
      <trkpt lat="41.7894950" lon="-8.8700720">
        <ele>6.9</ele>
        <time>2021-05-18T08:41:57Z</time>
      </trkpt>
      <trkpt lat="41.7894850" lon="-8.8700680">
        <ele>6.9</ele>
        <time>2021-05-18T08:41:58Z</time>
      </trkpt>
      <trkpt lat="41.7894750" lon="-8.8700640">
        <ele>6.9</ele>
        <time>2021-05-18T08:41:59Z</time>
      </trkpt>
      <trkpt lat="41.7894700" lon="-8.8700630">
        <ele>6.9</ele>
        <time>2021-05-18T08:42:00Z</time>
      </trkpt>
      <trkpt lat="41.7894670" lon="-8.8700620">
        <ele>6.9</ele>
        <time>2021-05-18T08:42:01Z</time>
      </trkpt>
      <trkpt lat="41.7894580" lon="-8.8700580">
        <ele>6.9</ele>
        <time>2021-05-18T08:42:02Z</time>
      </trkpt>
      <trkpt lat="41.7894630" lon="-8.8700480">
        <ele>6.9</ele>
        <time>2021-05-18T08:42:03Z</time>
      </trkpt>
      <trkpt lat="41.7894690" lon="-8.8700410">
        <ele>6.9</ele>
        <time>2021-05-18T08:42:04Z</time>
      </trkpt>
      <trkpt lat="41.7894780" lon="-8.8700310">
        <ele>6.9</ele>
        <time>2021-05-18T08:42:05Z</time>
      </trkpt>
      <trkpt lat="41.7894850" lon="-8.8700210">
        <ele>6.9</ele>
        <time>2021-05-18T08:42:06Z</time>
      </trkpt>
      <trkpt lat="41.7894920" lon="-8.8700160">
        <ele>7.0</ele>
        <time>2021-05-18T08:42:07Z</time>
      </trkpt>
      <trkpt lat="41.7895010" lon="-8.8700100">
        <ele>7.0</ele>
        <time>2021-05-18T08:42:08Z</time>
      </trkpt>
      <trkpt lat="41.7895050" lon="-8.8700080">
        <ele>7.0</ele>
        <time>2021-05-18T08:42:09Z</time>
      </trkpt>
      <trkpt lat="41.7895070" lon="-8.8700130">
        <ele>7.0</ele>
        <time>2021-05-18T08:42:10Z</time>
      </trkpt>
      <trkpt lat="41.7895160" lon="-8.8700130">
        <ele>7.0</ele>
        <time>2021-05-18T08:42:11Z</time>
      </trkpt>
      <trkpt lat="41.7895220" lon="-8.8700140">
        <ele>7.0</ele>
        <time>2021-05-18T08:42:12Z</time>
      </trkpt>
      <trkpt lat="41.7895360" lon="-8.8700190">
        <ele>7.0</ele>
        <time>2021-05-18T08:42:13Z</time>
      </trkpt>
      <trkpt lat="41.7895400" lon="-8.8700220">
        <ele>7.0</ele>
        <time>2021-05-18T08:42:14Z</time>
      </trkpt>
      <trkpt lat="41.7895470" lon="-8.8700240">
        <ele>7.0</ele>
        <time>2021-05-18T08:42:15Z</time>
      </trkpt>
      <trkpt lat="41.7895540" lon="-8.8700240">
        <ele>7.0</ele>
        <time>2021-05-18T08:42:16Z</time>
      </trkpt>
      <trkpt lat="41.7895600" lon="-8.8700290">
        <ele>7.0</ele>
        <time>2021-05-18T08:42:17Z</time>
      </trkpt>
      <trkpt lat="41.7895680" lon="-8.8700300">
        <ele>7.0</ele>
        <time>2021-05-18T08:42:18Z</time>
      </trkpt>
      <trkpt lat="41.7895820" lon="-8.8700280">
        <ele>7.0</ele>
        <time>2021-05-18T08:42:19Z</time>
      </trkpt>
      <trkpt lat="41.7895920" lon="-8.8700330">
        <ele>7.0</ele>
        <time>2021-05-18T08:42:20Z</time>
      </trkpt>
      <trkpt lat="41.7896030" lon="-8.8700370">
        <ele>7.0</ele>
        <time>2021-05-18T08:42:21Z</time>
      </trkpt>
      <trkpt lat="41.7896240" lon="-8.8700390">
        <ele>7.1</ele>
        <time>2021-05-18T08:42:22Z</time>
      </trkpt>
      <trkpt lat="41.7896320" lon="-8.8700410">
        <ele>7.1</ele>
        <time>2021-05-18T08:42:23Z</time>
      </trkpt>
      <trkpt lat="41.7896410" lon="-8.8700430">
        <ele>7.1</ele>
        <time>2021-05-18T08:42:24Z</time>
      </trkpt>
      <trkpt lat="41.7896570" lon="-8.8700510">
        <ele>7.1</ele>
        <time>2021-05-18T08:42:25Z</time>
      </trkpt>
      <trkpt lat="41.7896680" lon="-8.8700540">
        <ele>7.1</ele>
        <time>2021-05-18T08:42:26Z</time>
      </trkpt>
      <trkpt lat="41.7896790" lon="-8.8700610">
        <ele>7.1</ele>
        <time>2021-05-18T08:42:27Z</time>
      </trkpt>
      <trkpt lat="41.7896870" lon="-8.8700610">
        <ele>7.1</ele>
        <time>2021-05-18T08:42:28Z</time>
      </trkpt>
      <trkpt lat="41.7897000" lon="-8.8700640">
        <ele>7.1</ele>
        <time>2021-05-18T08:42:29Z</time>
      </trkpt>
      <trkpt lat="41.7897110" lon="-8.8700650">
        <ele>7.1</ele>
        <time>2021-05-18T08:42:30Z</time>
      </trkpt>
      <trkpt lat="41.7897240" lon="-8.8700680">
        <ele>7.1</ele>
        <time>2021-05-18T08:42:31Z</time>
      </trkpt>
      <trkpt lat="41.7897350" lon="-8.8700670">
        <ele>7.2</ele>
        <time>2021-05-18T08:42:32Z</time>
      </trkpt>
      <trkpt lat="41.7897510" lon="-8.8700750">
        <ele>7.2</ele>
        <time>2021-05-18T08:42:33Z</time>
      </trkpt>
      <trkpt lat="41.7897650" lon="-8.8700740">
        <ele>7.2</ele>
        <time>2021-05-18T08:42:34Z</time>
      </trkpt>
      <trkpt lat="41.7897790" lon="-8.8700800">
        <ele>7.2</ele>
        <time>2021-05-18T08:42:35Z</time>
      </trkpt>
      <trkpt lat="41.7897920" lon="-8.8700870">
        <ele>7.2</ele>
        <time>2021-05-18T08:42:36Z</time>
      </trkpt>
      <trkpt lat="41.7898060" lon="-8.8700930">
        <ele>7.2</ele>
        <time>2021-05-18T08:42:37Z</time>
      </trkpt>
      <trkpt lat="41.7898180" lon="-8.8700990">
        <ele>7.2</ele>
        <time>2021-05-18T08:42:38Z</time>
      </trkpt>
      <trkpt lat="41.7898240" lon="-8.8701060">
        <ele>7.2</ele>
        <time>2021-05-18T08:42:39Z</time>
      </trkpt>
      <trkpt lat="41.7898490" lon="-8.8701140">
        <ele>7.3</ele>
        <time>2021-05-18T08:42:40Z</time>
      </trkpt>
      <trkpt lat="41.7898600" lon="-8.8701160">
        <ele>7.3</ele>
        <time>2021-05-18T08:42:41Z</time>
      </trkpt>
      <trkpt lat="41.7898740" lon="-8.8701260">
        <ele>7.3</ele>
        <time>2021-05-18T08:42:42Z</time>
      </trkpt>
      <trkpt lat="41.7899000" lon="-8.8701420">
        <ele>7.3</ele>
        <time>2021-05-18T08:42:44Z</time>
      </trkpt>
      <trkpt lat="41.7899180" lon="-8.8701490">
        <ele>7.3</ele>
        <time>2021-05-18T08:42:45Z</time>
      </trkpt>
      <trkpt lat="41.7899340" lon="-8.8701590">
        <ele>7.3</ele>
        <time>2021-05-18T08:42:46Z</time>
      </trkpt>
      <trkpt lat="41.7899520" lon="-8.8701570">
        <ele>7.3</ele>
        <time>2021-05-18T08:42:48Z</time>
      </trkpt>
      <trkpt lat="41.7899670" lon="-8.8701660">
        <ele>7.4</ele>
        <time>2021-05-18T08:42:49Z</time>
      </trkpt>
      <trkpt lat="41.7899830" lon="-8.8701700">
        <ele>7.4</ele>
        <time>2021-05-18T08:42:50Z</time>
      </trkpt>
      <trkpt lat="41.7899960" lon="-8.8701790">
        <ele>7.4</ele>
        <time>2021-05-18T08:42:51Z</time>
      </trkpt>
      <trkpt lat="41.7900100" lon="-8.8701820">
        <ele>7.4</ele>
        <time>2021-05-18T08:42:52Z</time>
      </trkpt>
      <trkpt lat="41.7900270" lon="-8.8701840">
        <ele>7.4</ele>
        <time>2021-05-18T08:42:53Z</time>
      </trkpt>
      <trkpt lat="41.7900400" lon="-8.8701920">
        <ele>7.4</ele>
        <time>2021-05-18T08:42:54Z</time>
      </trkpt>
      <trkpt lat="41.7900550" lon="-8.8701990">
        <ele>7.4</ele>
        <time>2021-05-18T08:42:55Z</time>
      </trkpt>
      <trkpt lat="41.7900680" lon="-8.8702090">
        <ele>7.4</ele>
        <time>2021-05-18T08:42:56Z</time>
      </trkpt>
      <trkpt lat="41.7900860" lon="-8.8702110">
        <ele>7.4</ele>
        <time>2021-05-18T08:42:57Z</time>
      </trkpt>
      <trkpt lat="41.7900980" lon="-8.8702200">
        <ele>7.4</ele>
        <time>2021-05-18T08:42:58Z</time>
      </trkpt>
      <trkpt lat="41.7901130" lon="-8.8702240">
        <ele>7.5</ele>
        <time>2021-05-18T08:42:59Z</time>
      </trkpt>
      <trkpt lat="41.7901300" lon="-8.8702280">
        <ele>7.5</ele>
        <time>2021-05-18T08:43:00Z</time>
      </trkpt>
      <trkpt lat="41.7901420" lon="-8.8702380">
        <ele>7.5</ele>
        <time>2021-05-18T08:43:01Z</time>
      </trkpt>
      <trkpt lat="41.7901560" lon="-8.8702430">
        <ele>7.5</ele>
        <time>2021-05-18T08:43:02Z</time>
      </trkpt>
      <trkpt lat="41.7901700" lon="-8.8702530">
        <ele>7.5</ele>
        <time>2021-05-18T08:43:03Z</time>
      </trkpt>
      <trkpt lat="41.7901840" lon="-8.8702610">
        <ele>7.5</ele>
        <time>2021-05-18T08:43:04Z</time>
      </trkpt>
      <trkpt lat="41.7901970" lon="-8.8702620">
        <ele>7.5</ele>
        <time>2021-05-18T08:43:05Z</time>
      </trkpt>
      <trkpt lat="41.7902130" lon="-8.8702670">
        <ele>7.5</ele>
        <time>2021-05-18T08:43:06Z</time>
      </trkpt>
      <trkpt lat="41.7902340" lon="-8.8702750">
        <ele>7.5</ele>
        <time>2021-05-18T08:43:07Z</time>
      </trkpt>
      <trkpt lat="41.7902420" lon="-8.8702790">
        <ele>7.5</ele>
        <time>2021-05-18T08:43:08Z</time>
      </trkpt>
      <trkpt lat="41.7902500" lon="-8.8702840">
        <ele>7.5</ele>
        <time>2021-05-18T08:43:09Z</time>
      </trkpt>
      <trkpt lat="41.7902640" lon="-8.8702910">
        <ele>7.6</ele>
        <time>2021-05-18T08:43:10Z</time>
      </trkpt>
      <trkpt lat="41.7902800" lon="-8.8702950">
        <ele>7.6</ele>
        <time>2021-05-18T08:43:11Z</time>
      </trkpt>
      <trkpt lat="41.7902940" lon="-8.8702980">
        <ele>7.6</ele>
        <time>2021-05-18T08:43:12Z</time>
      </trkpt>
      <trkpt lat="41.7903080" lon="-8.8702990">
        <ele>7.6</ele>
        <time>2021-05-18T08:43:13Z</time>
      </trkpt>
      <trkpt lat="41.7903230" lon="-8.8703040">
        <ele>7.6</ele>
        <time>2021-05-18T08:43:14Z</time>
      </trkpt>
      <trkpt lat="41.7903370" lon="-8.8703090">
        <ele>7.6</ele>
        <time>2021-05-18T08:43:15Z</time>
      </trkpt>
      <trkpt lat="41.7903520" lon="-8.8703100">
        <ele>7.6</ele>
        <time>2021-05-18T08:43:16Z</time>
      </trkpt>
      <trkpt lat="41.7903700" lon="-8.8703040">
        <ele>7.6</ele>
        <time>2021-05-18T08:43:17Z</time>
      </trkpt>
      <trkpt lat="41.7903830" lon="-8.8703050">
        <ele>7.7</ele>
        <time>2021-05-18T08:43:18Z</time>
      </trkpt>
      <trkpt lat="41.7903980" lon="-8.8703060">
        <ele>7.7</ele>
        <time>2021-05-18T08:43:19Z</time>
      </trkpt>
      <trkpt lat="41.7904130" lon="-8.8703130">
        <ele>7.7</ele>
        <time>2021-05-18T08:43:20Z</time>
      </trkpt>
      <trkpt lat="41.7904290" lon="-8.8703140">
        <ele>7.7</ele>
        <time>2021-05-18T08:43:21Z</time>
      </trkpt>
      <trkpt lat="41.7904510" lon="-8.8703120">
        <ele>7.7</ele>
        <time>2021-05-18T08:43:22Z</time>
      </trkpt>
      <trkpt lat="41.7904590" lon="-8.8703150">
        <ele>7.7</ele>
        <time>2021-05-18T08:43:23Z</time>
      </trkpt>
      <trkpt lat="41.7904670" lon="-8.8703190">
        <ele>7.7</ele>
        <time>2021-05-18T08:43:24Z</time>
      </trkpt>
      <trkpt lat="41.7904790" lon="-8.8703260">
        <ele>7.7</ele>
        <time>2021-05-18T08:43:25Z</time>
      </trkpt>
      <trkpt lat="41.7904890" lon="-8.8703250">
        <ele>7.7</ele>
        <time>2021-05-18T08:43:26Z</time>
      </trkpt>
      <trkpt lat="41.7904970" lon="-8.8703250">
        <ele>7.7</ele>
        <time>2021-05-18T08:43:27Z</time>
      </trkpt>
      <trkpt lat="41.7905100" lon="-8.8703250">
        <ele>7.7</ele>
        <time>2021-05-18T08:43:28Z</time>
      </trkpt>
      <trkpt lat="41.7905190" lon="-8.8703250">
        <ele>7.7</ele>
        <time>2021-05-18T08:43:29Z</time>
      </trkpt>
      <trkpt lat="41.7905280" lon="-8.8703260">
        <ele>7.7</ele>
        <time>2021-05-18T08:43:30Z</time>
      </trkpt>
      <trkpt lat="41.7905370" lon="-8.8703270">
        <ele>7.7</ele>
        <time>2021-05-18T08:43:31Z</time>
      </trkpt>
      <trkpt lat="41.7905490" lon="-8.8703360">
        <ele>7.8</ele>
        <time>2021-05-18T08:43:32Z</time>
      </trkpt>
      <trkpt lat="41.7905580" lon="-8.8703380">
        <ele>7.8</ele>
        <time>2021-05-18T08:43:33Z</time>
      </trkpt>
      <trkpt lat="41.7905660" lon="-8.8703390">
        <ele>7.8</ele>
        <time>2021-05-18T08:43:34Z</time>
      </trkpt>
      <trkpt lat="41.7905740" lon="-8.8703410">
        <ele>7.8</ele>
        <time>2021-05-18T08:43:35Z</time>
      </trkpt>
      <trkpt lat="41.7905860" lon="-8.8703450">
        <ele>7.8</ele>
        <time>2021-05-18T08:43:36Z</time>
      </trkpt>
      <trkpt lat="41.7906000" lon="-8.8703510">
        <ele>7.8</ele>
        <time>2021-05-18T08:43:37Z</time>
      </trkpt>
      <trkpt lat="41.7906120" lon="-8.8703500">
        <ele>7.8</ele>
        <time>2021-05-18T08:43:38Z</time>
      </trkpt>
      <trkpt lat="41.7906280" lon="-8.8703510">
        <ele>7.8</ele>
        <time>2021-05-18T08:43:39Z</time>
      </trkpt>
      <trkpt lat="41.7906370" lon="-8.8703500">
        <ele>7.8</ele>
        <time>2021-05-18T08:43:40Z</time>
      </trkpt>
      <trkpt lat="41.7906470" lon="-8.8703510">
        <ele>7.8</ele>
        <time>2021-05-18T08:43:41Z</time>
      </trkpt>
      <trkpt lat="41.7906550" lon="-8.8703540">
        <ele>7.8</ele>
        <time>2021-05-18T08:43:42Z</time>
      </trkpt>
      <trkpt lat="41.7906760" lon="-8.8703620">
        <ele>7.8</ele>
        <time>2021-05-18T08:43:43Z</time>
      </trkpt>
      <trkpt lat="41.7906900" lon="-8.8703650">
        <ele>7.8</ele>
        <time>2021-05-18T08:43:44Z</time>
      </trkpt>
      <trkpt lat="41.7907040" lon="-8.8703700">
        <ele>7.9</ele>
        <time>2021-05-18T08:43:45Z</time>
      </trkpt>
      <trkpt lat="41.7907200" lon="-8.8703760">
        <ele>7.9</ele>
        <time>2021-05-18T08:43:46Z</time>
      </trkpt>
      <trkpt lat="41.7907370" lon="-8.8703820">
        <ele>7.9</ele>
        <time>2021-05-18T08:43:47Z</time>
      </trkpt>
      <trkpt lat="41.7907480" lon="-8.8703900">
        <ele>7.9</ele>
        <time>2021-05-18T08:43:48Z</time>
      </trkpt>
      <trkpt lat="41.7907650" lon="-8.8703960">
        <ele>7.9</ele>
        <time>2021-05-18T08:43:49Z</time>
      </trkpt>
      <trkpt lat="41.7907800" lon="-8.8704050">
        <ele>7.9</ele>
        <time>2021-05-18T08:43:50Z</time>
      </trkpt>
      <trkpt lat="41.7907950" lon="-8.8704170">
        <ele>8.0</ele>
        <time>2021-05-18T08:43:51Z</time>
      </trkpt>
      <trkpt lat="41.7908080" lon="-8.8704240">
        <ele>8.0</ele>
        <time>2021-05-18T08:43:52Z</time>
      </trkpt>
      <trkpt lat="41.7908220" lon="-8.8704280">
        <ele>8.0</ele>
        <time>2021-05-18T08:43:53Z</time>
      </trkpt>
      <trkpt lat="41.7908340" lon="-8.8704410">
        <ele>8.0</ele>
        <time>2021-05-18T08:43:54Z</time>
      </trkpt>
      <trkpt lat="41.7908470" lon="-8.8704480">
        <ele>8.0</ele>
        <time>2021-05-18T08:43:55Z</time>
      </trkpt>
      <trkpt lat="41.7908600" lon="-8.8704610">
        <ele>8.1</ele>
        <time>2021-05-18T08:43:56Z</time>
      </trkpt>
      <trkpt lat="41.7908720" lon="-8.8704760">
        <ele>8.1</ele>
        <time>2021-05-18T08:43:57Z</time>
      </trkpt>
      <trkpt lat="41.7908800" lon="-8.8704890">
        <ele>8.1</ele>
        <time>2021-05-18T08:43:58Z</time>
      </trkpt>
      <trkpt lat="41.7908930" lon="-8.8704990">
        <ele>8.1</ele>
        <time>2021-05-18T08:43:59Z</time>
      </trkpt>
      <trkpt lat="41.7909020" lon="-8.8705110">
        <ele>8.2</ele>
        <time>2021-05-18T08:44:00Z</time>
      </trkpt>
      <trkpt lat="41.7909150" lon="-8.8705210">
        <ele>8.2</ele>
        <time>2021-05-18T08:44:01Z</time>
      </trkpt>
      <trkpt lat="41.7909270" lon="-8.8705310">
        <ele>8.2</ele>
        <time>2021-05-18T08:44:02Z</time>
      </trkpt>
      <trkpt lat="41.7909430" lon="-8.8705350">
        <ele>8.2</ele>
        <time>2021-05-18T08:44:03Z</time>
      </trkpt>
      <trkpt lat="41.7909560" lon="-8.8705440">
        <ele>8.3</ele>
        <time>2021-05-18T08:44:04Z</time>
      </trkpt>
      <trkpt lat="41.7909700" lon="-8.8705430">
        <ele>8.3</ele>
        <time>2021-05-18T08:44:05Z</time>
      </trkpt>
      <trkpt lat="41.7909850" lon="-8.8705450">
        <ele>8.3</ele>
        <time>2021-05-18T08:44:06Z</time>
      </trkpt>
      <trkpt lat="41.7909980" lon="-8.8705480">
        <ele>8.3</ele>
        <time>2021-05-18T08:44:07Z</time>
      </trkpt>
      <trkpt lat="41.7910140" lon="-8.8705450">
        <ele>8.3</ele>
        <time>2021-05-18T08:44:08Z</time>
      </trkpt>
      <trkpt lat="41.7910300" lon="-8.8705450">
        <ele>8.4</ele>
        <time>2021-05-18T08:44:09Z</time>
      </trkpt>
      <trkpt lat="41.7910450" lon="-8.8705370">
        <ele>8.4</ele>
        <time>2021-05-18T08:44:10Z</time>
      </trkpt>
      <trkpt lat="41.7910600" lon="-8.8705340">
        <ele>8.4</ele>
        <time>2021-05-18T08:44:11Z</time>
      </trkpt>
      <trkpt lat="41.7910750" lon="-8.8705330">
        <ele>8.4</ele>
        <time>2021-05-18T08:44:12Z</time>
      </trkpt>
      <trkpt lat="41.7910910" lon="-8.8705390">
        <ele>8.4</ele>
        <time>2021-05-18T08:44:13Z</time>
      </trkpt>
      <trkpt lat="41.7911050" lon="-8.8705500">
        <ele>8.4</ele>
        <time>2021-05-18T08:44:14Z</time>
      </trkpt>
      <trkpt lat="41.7911210" lon="-8.8705550">
        <ele>8.4</ele>
        <time>2021-05-18T08:44:15Z</time>
      </trkpt>
      <trkpt lat="41.7911320" lon="-8.8705680">
        <ele>8.4</ele>
        <time>2021-05-18T08:44:16Z</time>
      </trkpt>
      <trkpt lat="41.7911370" lon="-8.8705860">
        <ele>8.3</ele>
        <time>2021-05-18T08:44:17Z</time>
      </trkpt>
      <trkpt lat="41.7911470" lon="-8.8706040">
        <ele>8.3</ele>
        <time>2021-05-18T08:44:18Z</time>
      </trkpt>
      <trkpt lat="41.7911560" lon="-8.8706210">
        <ele>8.3</ele>
        <time>2021-05-18T08:44:19Z</time>
      </trkpt>
      <trkpt lat="41.7911670" lon="-8.8706300">
        <ele>8.2</ele>
        <time>2021-05-18T08:44:20Z</time>
      </trkpt>
      <trkpt lat="41.7911730" lon="-8.8706600">
        <ele>8.2</ele>
        <time>2021-05-18T08:44:21Z</time>
      </trkpt>
      <trkpt lat="41.7911760" lon="-8.8706700">
        <ele>8.2</ele>
        <time>2021-05-18T08:44:22Z</time>
      </trkpt>
      <trkpt lat="41.7911780" lon="-8.8706810">
        <ele>8.1</ele>
        <time>2021-05-18T08:44:23Z</time>
      </trkpt>
      <trkpt lat="41.7911740" lon="-8.8706910">
        <ele>8.1</ele>
        <time>2021-05-18T08:44:24Z</time>
      </trkpt>
      <trkpt lat="41.7911760" lon="-8.8707150">
        <ele>8.1</ele>
        <time>2021-05-18T08:44:25Z</time>
      </trkpt>
      <trkpt lat="41.7911830" lon="-8.8707240">
        <ele>8.0</ele>
        <time>2021-05-18T08:44:26Z</time>
      </trkpt>
      <trkpt lat="41.7911900" lon="-8.8707310">
        <ele>8.0</ele>
        <time>2021-05-18T08:44:27Z</time>
      </trkpt>
      <trkpt lat="41.7911890" lon="-8.8707460">
        <ele>8.0</ele>
        <time>2021-05-18T08:44:28Z</time>
      </trkpt>
      <trkpt lat="41.7912000" lon="-8.8707540">
        <ele>7.9</ele>
        <time>2021-05-18T08:44:29Z</time>
      </trkpt>
      <trkpt lat="41.7912080" lon="-8.8707700">
        <ele>7.9</ele>
        <time>2021-05-18T08:44:30Z</time>
      </trkpt>
      <trkpt lat="41.7912150" lon="-8.8707760">
        <ele>7.9</ele>
        <time>2021-05-18T08:44:31Z</time>
      </trkpt>
      <trkpt lat="41.7912190" lon="-8.8707900">
        <ele>7.8</ele>
        <time>2021-05-18T08:44:32Z</time>
      </trkpt>
      <trkpt lat="41.7912250" lon="-8.8708090">
        <ele>7.8</ele>
        <time>2021-05-18T08:44:33Z</time>
      </trkpt>
      <trkpt lat="41.7912340" lon="-8.8708230">
        <ele>7.7</ele>
        <time>2021-05-18T08:44:34Z</time>
      </trkpt>
      <trkpt lat="41.7912370" lon="-8.8708280">
        <ele>7.7</ele>
        <time>2021-05-18T08:44:35Z</time>
      </trkpt>
      <trkpt lat="41.7912450" lon="-8.8708460">
        <ele>7.7</ele>
        <time>2021-05-18T08:44:36Z</time>
      </trkpt>
      <trkpt lat="41.7912490" lon="-8.8708650">
        <ele>7.7</ele>
        <time>2021-05-18T08:44:37Z</time>
      </trkpt>
      <trkpt lat="41.7912590" lon="-8.8708710">
        <ele>7.6</ele>
        <time>2021-05-18T08:44:38Z</time>
      </trkpt>
      <trkpt lat="41.7912620" lon="-8.8708840">
        <ele>7.6</ele>
        <time>2021-05-18T08:44:39Z</time>
      </trkpt>
      <trkpt lat="41.7912650" lon="-8.8708990">
        <ele>7.6</ele>
        <time>2021-05-18T08:44:40Z</time>
      </trkpt>
      <trkpt lat="41.7912770" lon="-8.8709220">
        <ele>7.5</ele>
        <time>2021-05-18T08:44:41Z</time>
      </trkpt>
      <trkpt lat="41.7912840" lon="-8.8709300">
        <ele>7.5</ele>
        <time>2021-05-18T08:44:42Z</time>
      </trkpt>
      <trkpt lat="41.7912920" lon="-8.8709380">
        <ele>7.5</ele>
        <time>2021-05-18T08:44:43Z</time>
      </trkpt>
      <trkpt lat="41.7913020" lon="-8.8709460">
        <ele>7.5</ele>
        <time>2021-05-18T08:44:44Z</time>
      </trkpt>
      <trkpt lat="41.7913120" lon="-8.8709550">
        <ele>7.5</ele>
        <time>2021-05-18T08:44:45Z</time>
      </trkpt>
      <trkpt lat="41.7913190" lon="-8.8709660">
        <ele>7.5</ele>
        <time>2021-05-18T08:44:46Z</time>
      </trkpt>
      <trkpt lat="41.7913260" lon="-8.8709770">
        <ele>7.5</ele>
        <time>2021-05-18T08:44:47Z</time>
      </trkpt>
      <trkpt lat="41.7913320" lon="-8.8709880">
        <ele>7.5</ele>
        <time>2021-05-18T08:44:48Z</time>
      </trkpt>
      <trkpt lat="41.7913450" lon="-8.8709890">
        <ele>7.5</ele>
        <time>2021-05-18T08:44:49Z</time>
      </trkpt>
      <trkpt lat="41.7913620" lon="-8.8710070">
        <ele>7.5</ele>
        <time>2021-05-18T08:44:50Z</time>
      </trkpt>
      <trkpt lat="41.7913700" lon="-8.8710200">
        <ele>7.5</ele>
        <time>2021-05-18T08:44:51Z</time>
      </trkpt>
      <trkpt lat="41.7913770" lon="-8.8710360">
        <ele>7.5</ele>
        <time>2021-05-18T08:44:52Z</time>
      </trkpt>
      <trkpt lat="41.7913880" lon="-8.8710490">
        <ele>7.5</ele>
        <time>2021-05-18T08:44:53Z</time>
      </trkpt>
      <trkpt lat="41.7914060" lon="-8.8710690">
        <ele>7.5</ele>
        <time>2021-05-18T08:44:54Z</time>
      </trkpt>
      <trkpt lat="41.7914150" lon="-8.8710770">
        <ele>7.5</ele>
        <time>2021-05-18T08:44:55Z</time>
      </trkpt>
      <trkpt lat="41.7914240" lon="-8.8710840">
        <ele>7.6</ele>
        <time>2021-05-18T08:44:56Z</time>
      </trkpt>
      <trkpt lat="41.7914300" lon="-8.8710880">
        <ele>7.6</ele>
        <time>2021-05-18T08:44:57Z</time>
      </trkpt>
      <trkpt lat="41.7914390" lon="-8.8710990">
        <ele>7.6</ele>
        <time>2021-05-18T08:44:58Z</time>
      </trkpt>
      <trkpt lat="41.7914540" lon="-8.8711070">
        <ele>7.6</ele>
        <time>2021-05-18T08:44:59Z</time>
      </trkpt>
      <trkpt lat="41.7914660" lon="-8.8711160">
        <ele>7.6</ele>
        <time>2021-05-18T08:45:00Z</time>
      </trkpt>
      <trkpt lat="41.7914720" lon="-8.8711180">
        <ele>7.6</ele>
        <time>2021-05-18T08:45:01Z</time>
      </trkpt>
      <trkpt lat="41.7914790" lon="-8.8711290">
        <ele>7.6</ele>
        <time>2021-05-18T08:45:02Z</time>
      </trkpt>
      <trkpt lat="41.7914850" lon="-8.8711390">
        <ele>7.6</ele>
        <time>2021-05-18T08:45:03Z</time>
      </trkpt>
      <trkpt lat="41.7914950" lon="-8.8711460">
        <ele>7.6</ele>
        <time>2021-05-18T08:45:04Z</time>
      </trkpt>
      <trkpt lat="41.7915080" lon="-8.8711540">
        <ele>7.6</ele>
        <time>2021-05-18T08:45:05Z</time>
      </trkpt>
      <trkpt lat="41.7915200" lon="-8.8711640">
        <ele>7.6</ele>
        <time>2021-05-18T08:45:06Z</time>
      </trkpt>
      <trkpt lat="41.7915270" lon="-8.8711750">
        <ele>7.6</ele>
        <time>2021-05-18T08:45:07Z</time>
      </trkpt>
      <trkpt lat="41.7915300" lon="-8.8711820">
        <ele>7.7</ele>
        <time>2021-05-18T08:45:08Z</time>
      </trkpt>
      <trkpt lat="41.7915330" lon="-8.8711860">
        <ele>7.7</ele>
        <time>2021-05-18T08:45:09Z</time>
      </trkpt>
      <trkpt lat="41.7915380" lon="-8.8711950">
        <ele>7.7</ele>
        <time>2021-05-18T08:45:10Z</time>
      </trkpt>
      <trkpt lat="41.7915420" lon="-8.8712050">
        <ele>7.7</ele>
        <time>2021-05-18T08:45:11Z</time>
      </trkpt>
      <trkpt lat="41.7915470" lon="-8.8712140">
        <ele>7.7</ele>
        <time>2021-05-18T08:45:12Z</time>
      </trkpt>
      <trkpt lat="41.7915520" lon="-8.8712230">
        <ele>7.7</ele>
        <time>2021-05-18T08:45:13Z</time>
      </trkpt>
      <trkpt lat="41.7915720" lon="-8.8712350">
        <ele>7.7</ele>
        <time>2021-05-18T08:45:14Z</time>
      </trkpt>
      <trkpt lat="41.7915800" lon="-8.8712430">
        <ele>7.7</ele>
        <time>2021-05-18T08:45:15Z</time>
      </trkpt>
      <trkpt lat="41.7915990" lon="-8.8712600">
        <ele>7.8</ele>
        <time>2021-05-18T08:45:16Z</time>
      </trkpt>
      <trkpt lat="41.7916040" lon="-8.8712650">
        <ele>7.8</ele>
        <time>2021-05-18T08:45:17Z</time>
      </trkpt>
      <trkpt lat="41.7916100" lon="-8.8712710">
        <ele>7.8</ele>
        <time>2021-05-18T08:45:18Z</time>
      </trkpt>
      <trkpt lat="41.7916210" lon="-8.8712770">
        <ele>7.8</ele>
        <time>2021-05-18T08:45:19Z</time>
      </trkpt>
      <trkpt lat="41.7916300" lon="-8.8712820">
        <ele>7.8</ele>
        <time>2021-05-18T08:45:20Z</time>
      </trkpt>
      <trkpt lat="41.7916420" lon="-8.8712940">
        <ele>7.8</ele>
        <time>2021-05-18T08:45:21Z</time>
      </trkpt>
      <trkpt lat="41.7916500" lon="-8.8712980">
        <ele>7.8</ele>
        <time>2021-05-18T08:45:22Z</time>
      </trkpt>
      <trkpt lat="41.7916590" lon="-8.8713050">
        <ele>7.9</ele>
        <time>2021-05-18T08:45:23Z</time>
      </trkpt>
      <trkpt lat="41.7916650" lon="-8.8713120">
        <ele>7.9</ele>
        <time>2021-05-18T08:45:24Z</time>
      </trkpt>
      <trkpt lat="41.7916740" lon="-8.8713230">
        <ele>7.9</ele>
        <time>2021-05-18T08:45:25Z</time>
      </trkpt>
      <trkpt lat="41.7916820" lon="-8.8713310">
        <ele>7.9</ele>
        <time>2021-05-18T08:45:26Z</time>
      </trkpt>
      <trkpt lat="41.7916920" lon="-8.8713380">
        <ele>7.9</ele>
        <time>2021-05-18T08:45:27Z</time>
      </trkpt>
      <trkpt lat="41.7917120" lon="-8.8713510">
        <ele>8.0</ele>
        <time>2021-05-18T08:45:28Z</time>
      </trkpt>
      <trkpt lat="41.7917230" lon="-8.8713550">
        <ele>8.0</ele>
        <time>2021-05-18T08:45:29Z</time>
      </trkpt>
      <trkpt lat="41.7917340" lon="-8.8713590">
        <ele>8.1</ele>
        <time>2021-05-18T08:45:30Z</time>
      </trkpt>
      <trkpt lat="41.7917390" lon="-8.8713710">
        <ele>8.1</ele>
        <time>2021-05-18T08:45:31Z</time>
      </trkpt>
      <trkpt lat="41.7917540" lon="-8.8713770">
        <ele>8.1</ele>
        <time>2021-05-18T08:45:32Z</time>
      </trkpt>
      <trkpt lat="41.7917600" lon="-8.8713820">
        <ele>8.1</ele>
        <time>2021-05-18T08:45:33Z</time>
      </trkpt>
      <trkpt lat="41.7917820" lon="-8.8713870">
        <ele>8.2</ele>
        <time>2021-05-18T08:45:34Z</time>
      </trkpt>
      <trkpt lat="41.7917930" lon="-8.8713860">
        <ele>8.2</ele>
        <time>2021-05-18T08:45:35Z</time>
      </trkpt>
      <trkpt lat="41.7918050" lon="-8.8713860">
        <ele>8.3</ele>
        <time>2021-05-18T08:45:36Z</time>
      </trkpt>
      <trkpt lat="41.7918120" lon="-8.8713910">
        <ele>8.3</ele>
        <time>2021-05-18T08:45:37Z</time>
      </trkpt>
      <trkpt lat="41.7918290" lon="-8.8713920">
        <ele>8.4</ele>
        <time>2021-05-18T08:45:38Z</time>
      </trkpt>
      <trkpt lat="41.7918400" lon="-8.8713930">
        <ele>8.4</ele>
        <time>2021-05-18T08:45:39Z</time>
      </trkpt>
      <trkpt lat="41.7918520" lon="-8.8713970">
        <ele>8.4</ele>
        <time>2021-05-18T08:45:40Z</time>
      </trkpt>
      <trkpt lat="41.7918630" lon="-8.8713960">
        <ele>8.5</ele>
        <time>2021-05-18T08:45:41Z</time>
      </trkpt>
      <trkpt lat="41.7918750" lon="-8.8713940">
        <ele>8.5</ele>
        <time>2021-05-18T08:45:42Z</time>
      </trkpt>
      <trkpt lat="41.7918820" lon="-8.8713840">
        <ele>8.6</ele>
        <time>2021-05-18T08:45:43Z</time>
      </trkpt>
      <trkpt lat="41.7918900" lon="-8.8713790">
        <ele>8.6</ele>
        <time>2021-05-18T08:45:44Z</time>
      </trkpt>
      <trkpt lat="41.7918910" lon="-8.8713610">
        <ele>8.7</ele>
        <time>2021-05-18T08:45:45Z</time>
      </trkpt>
      <trkpt lat="41.7919050" lon="-8.8713490">
        <ele>8.8</ele>
        <time>2021-05-18T08:45:46Z</time>
      </trkpt>
      <trkpt lat="41.7919150" lon="-8.8713420">
        <ele>8.8</ele>
        <time>2021-05-18T08:45:47Z</time>
      </trkpt>
      <trkpt lat="41.7919240" lon="-8.8713310">
        <ele>8.9</ele>
        <time>2021-05-18T08:45:48Z</time>
      </trkpt>
      <trkpt lat="41.7919340" lon="-8.8713240">
        <ele>8.9</ele>
        <time>2021-05-18T08:45:49Z</time>
      </trkpt>
      <trkpt lat="41.7919410" lon="-8.8713210">
        <ele>9.0</ele>
        <time>2021-05-18T08:45:50Z</time>
      </trkpt>
      <trkpt lat="41.7919460" lon="-8.8713180">
        <ele>9.0</ele>
        <time>2021-05-18T08:45:51Z</time>
      </trkpt>
      <trkpt lat="41.7919540" lon="-8.8713000">
        <ele>9.1</ele>
        <time>2021-05-18T08:45:52Z</time>
      </trkpt>
      <trkpt lat="41.7919710" lon="-8.8713020">
        <ele>9.2</ele>
        <time>2021-05-18T08:45:53Z</time>
      </trkpt>
      <trkpt lat="41.7919990" lon="-8.8712960">
        <ele>9.4</ele>
        <time>2021-05-18T08:45:54Z</time>
      </trkpt>
      <trkpt lat="41.7920100" lon="-8.8712970">
        <ele>9.5</ele>
        <time>2021-05-18T08:45:55Z</time>
      </trkpt>
      <trkpt lat="41.7920220" lon="-8.8712970">
        <ele>9.6</ele>
        <time>2021-05-18T08:45:56Z</time>
      </trkpt>
      <trkpt lat="41.7920320" lon="-8.8712950">
        <ele>9.6</ele>
        <time>2021-05-18T08:45:57Z</time>
      </trkpt>
      <trkpt lat="41.7920400" lon="-8.8712880">
        <ele>9.7</ele>
        <time>2021-05-18T08:45:58Z</time>
      </trkpt>
      <trkpt lat="41.7920540" lon="-8.8712870">
        <ele>9.8</ele>
        <time>2021-05-18T08:45:59Z</time>
      </trkpt>
      <trkpt lat="41.7920660" lon="-8.8712840">
        <ele>9.9</ele>
        <time>2021-05-18T08:46:00Z</time>
      </trkpt>
      <trkpt lat="41.7920780" lon="-8.8712800">
        <ele>10.0</ele>
        <time>2021-05-18T08:46:01Z</time>
      </trkpt>
      <trkpt lat="41.7920880" lon="-8.8712750">
        <ele>10.0</ele>
        <time>2021-05-18T08:46:02Z</time>
      </trkpt>
      <trkpt lat="41.7921080" lon="-8.8712750">
        <ele>10.2</ele>
        <time>2021-05-18T08:46:03Z</time>
      </trkpt>
      <trkpt lat="41.7921190" lon="-8.8712730">
        <ele>10.2</ele>
        <time>2021-05-18T08:46:04Z</time>
      </trkpt>
      <trkpt lat="41.7921300" lon="-8.8712720">
        <ele>10.3</ele>
        <time>2021-05-18T08:46:05Z</time>
      </trkpt>
      <trkpt lat="41.7921410" lon="-8.8712660">
        <ele>10.4</ele>
        <time>2021-05-18T08:46:06Z</time>
      </trkpt>
      <trkpt lat="41.7921500" lon="-8.8712670">
        <ele>10.4</ele>
        <time>2021-05-18T08:46:07Z</time>
      </trkpt>
      <trkpt lat="41.7921610" lon="-8.8712660">
        <ele>10.5</ele>
        <time>2021-05-18T08:46:08Z</time>
      </trkpt>
      <trkpt lat="41.7921860" lon="-8.8712560">
        <ele>10.6</ele>
        <time>2021-05-18T08:46:09Z</time>
      </trkpt>
      <trkpt lat="41.7921930" lon="-8.8712530">
        <ele>10.7</ele>
        <time>2021-05-18T08:46:10Z</time>
      </trkpt>
      <trkpt lat="41.7922020" lon="-8.8712460">
        <ele>10.7</ele>
        <time>2021-05-18T08:46:11Z</time>
      </trkpt>
      <trkpt lat="41.7922100" lon="-8.8712380">
        <ele>10.8</ele>
        <time>2021-05-18T08:46:12Z</time>
      </trkpt>
      <trkpt lat="41.7922230" lon="-8.8712340">
        <ele>10.8</ele>
        <time>2021-05-18T08:46:13Z</time>
      </trkpt>
      <trkpt lat="41.7922360" lon="-8.8712310">
        <ele>10.9</ele>
        <time>2021-05-18T08:46:14Z</time>
      </trkpt>
      <trkpt lat="41.7922440" lon="-8.8712310">
        <ele>10.9</ele>
        <time>2021-05-18T08:46:15Z</time>
      </trkpt>
      <trkpt lat="41.7922510" lon="-8.8712320">
        <ele>11.0</ele>
        <time>2021-05-18T08:46:16Z</time>
      </trkpt>
      <trkpt lat="41.7922590" lon="-8.8712320">
        <ele>11.0</ele>
        <time>2021-05-18T08:46:17Z</time>
      </trkpt>
      <trkpt lat="41.7922770" lon="-8.8712200">
        <ele>11.1</ele>
        <time>2021-05-18T08:46:18Z</time>
      </trkpt>
      <trkpt lat="41.7922850" lon="-8.8712130">
        <ele>11.1</ele>
        <time>2021-05-18T08:46:19Z</time>
      </trkpt>
      <trkpt lat="41.7922930" lon="-8.8712070">
        <ele>11.2</ele>
        <time>2021-05-18T08:46:20Z</time>
      </trkpt>
      <trkpt lat="41.7922960" lon="-8.8712000">
        <ele>11.2</ele>
        <time>2021-05-18T08:46:21Z</time>
      </trkpt>
      <trkpt lat="41.7923050" lon="-8.8711860">
        <ele>11.2</ele>
        <time>2021-05-18T08:46:22Z</time>
      </trkpt>
      <trkpt lat="41.7923120" lon="-8.8711750">
        <ele>11.3</ele>
        <time>2021-05-18T08:46:23Z</time>
      </trkpt>
      <trkpt lat="41.7923270" lon="-8.8711620">
        <ele>11.3</ele>
        <time>2021-05-18T08:46:24Z</time>
      </trkpt>
      <trkpt lat="41.7923370" lon="-8.8711560">
        <ele>11.4</ele>
        <time>2021-05-18T08:46:25Z</time>
      </trkpt>
      <trkpt lat="41.7923470" lon="-8.8711500">
        <ele>11.4</ele>
        <time>2021-05-18T08:46:26Z</time>
      </trkpt>
      <trkpt lat="41.7923540" lon="-8.8711440">
        <ele>11.4</ele>
        <time>2021-05-18T08:46:27Z</time>
      </trkpt>
      <trkpt lat="41.7923650" lon="-8.8711350">
        <ele>11.5</ele>
        <time>2021-05-18T08:46:28Z</time>
      </trkpt>
      <trkpt lat="41.7923940" lon="-8.8711230">
        <ele>11.5</ele>
        <time>2021-05-18T08:46:29Z</time>
      </trkpt>
      <trkpt lat="41.7924010" lon="-8.8711210">
        <ele>11.6</ele>
        <time>2021-05-18T08:46:30Z</time>
      </trkpt>
      <trkpt lat="41.7924160" lon="-8.8711270">
        <ele>11.6</ele>
        <time>2021-05-18T08:46:31Z</time>
      </trkpt>
      <trkpt lat="41.7924290" lon="-8.8711230">
        <ele>11.6</ele>
        <time>2021-05-18T08:46:32Z</time>
      </trkpt>
      <trkpt lat="41.7924420" lon="-8.8711160">
        <ele>11.6</ele>
        <time>2021-05-18T08:46:33Z</time>
      </trkpt>
      <trkpt lat="41.7924610" lon="-8.8711160">
        <ele>11.7</ele>
        <time>2021-05-18T08:46:34Z</time>
      </trkpt>
      <trkpt lat="41.7924810" lon="-8.8711150">
        <ele>11.7</ele>
        <time>2021-05-18T08:46:35Z</time>
      </trkpt>
      <trkpt lat="41.7924950" lon="-8.8711150">
        <ele>11.7</ele>
        <time>2021-05-18T08:46:36Z</time>
      </trkpt>
      <trkpt lat="41.7925140" lon="-8.8711170">
        <ele>11.7</ele>
        <time>2021-05-18T08:46:37Z</time>
      </trkpt>
      <trkpt lat="41.7925300" lon="-8.8711200">
        <ele>11.7</ele>
        <time>2021-05-18T08:46:38Z</time>
      </trkpt>
      <trkpt lat="41.7925510" lon="-8.8711310">
        <ele>11.7</ele>
        <time>2021-05-18T08:46:39Z</time>
      </trkpt>
      <trkpt lat="41.7925600" lon="-8.8711370">
        <ele>11.7</ele>
        <time>2021-05-18T08:46:40Z</time>
      </trkpt>
      <trkpt lat="41.7925680" lon="-8.8711440">
        <ele>11.7</ele>
        <time>2021-05-18T08:46:41Z</time>
      </trkpt>
      <trkpt lat="41.7925900" lon="-8.8711540">
        <ele>11.7</ele>
        <time>2021-05-18T08:46:42Z</time>
      </trkpt>
      <trkpt lat="41.7925980" lon="-8.8711540">
        <ele>11.7</ele>
        <time>2021-05-18T08:46:43Z</time>
      </trkpt>
      <trkpt lat="41.7926060" lon="-8.8711540">
        <ele>11.7</ele>
        <time>2021-05-18T08:46:44Z</time>
      </trkpt>
      <trkpt lat="41.7926150" lon="-8.8711610">
        <ele>11.7</ele>
        <time>2021-05-18T08:46:45Z</time>
      </trkpt>
      <trkpt lat="41.7926220" lon="-8.8711640">
        <ele>11.7</ele>
        <time>2021-05-18T08:46:46Z</time>
      </trkpt>
      <trkpt lat="41.7926300" lon="-8.8711670">
        <ele>11.7</ele>
        <time>2021-05-18T08:46:47Z</time>
      </trkpt>
      <trkpt lat="41.7926370" lon="-8.8711700">
        <ele>11.7</ele>
        <time>2021-05-18T08:46:48Z</time>
      </trkpt>
      <trkpt lat="41.7926440" lon="-8.8711730">
        <ele>11.7</ele>
        <time>2021-05-18T08:46:49Z</time>
      </trkpt>
      <trkpt lat="41.7926590" lon="-8.8711650">
        <ele>11.7</ele>
        <time>2021-05-18T08:46:50Z</time>
      </trkpt>
      <trkpt lat="41.7926750" lon="-8.8711690">
        <ele>11.7</ele>
        <time>2021-05-18T08:46:51Z</time>
      </trkpt>
      <trkpt lat="41.7926890" lon="-8.8711710">
        <ele>11.7</ele>
        <time>2021-05-18T08:46:52Z</time>
      </trkpt>
      <trkpt lat="41.7926920" lon="-8.8711780">
        <ele>11.7</ele>
        <time>2021-05-18T08:46:53Z</time>
      </trkpt>
      <trkpt lat="41.7927090" lon="-8.8711760">
        <ele>11.7</ele>
        <time>2021-05-18T08:46:54Z</time>
      </trkpt>
      <trkpt lat="41.7927290" lon="-8.8711840">
        <ele>11.7</ele>
        <time>2021-05-18T08:46:55Z</time>
      </trkpt>
      <trkpt lat="41.7927450" lon="-8.8711840">
        <ele>11.7</ele>
        <time>2021-05-18T08:46:56Z</time>
      </trkpt>
      <trkpt lat="41.7927560" lon="-8.8711740">
        <ele>11.7</ele>
        <time>2021-05-18T08:46:57Z</time>
      </trkpt>
      <trkpt lat="41.7927720" lon="-8.8711760">
        <ele>11.7</ele>
        <time>2021-05-18T08:46:58Z</time>
      </trkpt>
      <trkpt lat="41.7927890" lon="-8.8711720">
        <ele>11.7</ele>
        <time>2021-05-18T08:46:59Z</time>
      </trkpt>
      <trkpt lat="41.7927990" lon="-8.8711700">
        <ele>11.6</ele>
        <time>2021-05-18T08:47:00Z</time>
      </trkpt>
      <trkpt lat="41.7928100" lon="-8.8711690">
        <ele>11.6</ele>
        <time>2021-05-18T08:47:01Z</time>
      </trkpt>
      <trkpt lat="41.7928200" lon="-8.8711720">
        <ele>11.6</ele>
        <time>2021-05-18T08:47:02Z</time>
      </trkpt>
      <trkpt lat="41.7928330" lon="-8.8711740">
        <ele>11.6</ele>
        <time>2021-05-18T08:47:03Z</time>
      </trkpt>
      <trkpt lat="41.7928420" lon="-8.8711760">
        <ele>11.6</ele>
        <time>2021-05-18T08:47:04Z</time>
      </trkpt>
      <trkpt lat="41.7928740" lon="-8.8711810">
        <ele>11.6</ele>
        <time>2021-05-18T08:47:05Z</time>
      </trkpt>
      <trkpt lat="41.7928810" lon="-8.8711800">
        <ele>11.6</ele>
        <time>2021-05-18T08:47:06Z</time>
      </trkpt>
      <trkpt lat="41.7929020" lon="-8.8711820">
        <ele>11.5</ele>
        <time>2021-05-18T08:47:07Z</time>
      </trkpt>
      <trkpt lat="41.7929120" lon="-8.8711860">
        <ele>11.5</ele>
        <time>2021-05-18T08:47:08Z</time>
      </trkpt>
      <trkpt lat="41.7929210" lon="-8.8711910">
        <ele>11.5</ele>
        <time>2021-05-18T08:47:09Z</time>
      </trkpt>
      <trkpt lat="41.7929300" lon="-8.8711950">
        <ele>11.5</ele>
        <time>2021-05-18T08:47:10Z</time>
      </trkpt>
      <trkpt lat="41.7929510" lon="-8.8712000">
        <ele>11.4</ele>
        <time>2021-05-18T08:47:11Z</time>
      </trkpt>
      <trkpt lat="41.7929580" lon="-8.8712060">
        <ele>11.4</ele>
        <time>2021-05-18T08:47:12Z</time>
      </trkpt>
      <trkpt lat="41.7929660" lon="-8.8712090">
        <ele>11.4</ele>
        <time>2021-05-18T08:47:13Z</time>
      </trkpt>
      <trkpt lat="41.7929800" lon="-8.8712080">
        <ele>11.3</ele>
        <time>2021-05-18T08:47:14Z</time>
      </trkpt>
      <trkpt lat="41.7929900" lon="-8.8712180">
        <ele>11.3</ele>
        <time>2021-05-18T08:47:15Z</time>
      </trkpt>
      <trkpt lat="41.7930080" lon="-8.8712240">
        <ele>11.2</ele>
        <time>2021-05-18T08:47:16Z</time>
      </trkpt>
      <trkpt lat="41.7930220" lon="-8.8712360">
        <ele>11.2</ele>
        <time>2021-05-18T08:47:17Z</time>
      </trkpt>
      <trkpt lat="41.7930440" lon="-8.8712490">
        <ele>11.1</ele>
        <time>2021-05-18T08:47:18Z</time>
      </trkpt>
      <trkpt lat="41.7930520" lon="-8.8712550">
        <ele>11.1</ele>
        <time>2021-05-18T08:47:19Z</time>
      </trkpt>
      <trkpt lat="41.7930610" lon="-8.8712610">
        <ele>11.0</ele>
        <time>2021-05-18T08:47:20Z</time>
      </trkpt>
      <trkpt lat="41.7930750" lon="-8.8712820">
        <ele>10.9</ele>
        <time>2021-05-18T08:47:21Z</time>
      </trkpt>
      <trkpt lat="41.7930810" lon="-8.8712900">
        <ele>10.9</ele>
        <time>2021-05-18T08:47:22Z</time>
      </trkpt>
      <trkpt lat="41.7930880" lon="-8.8712970">
        <ele>10.9</ele>
        <time>2021-05-18T08:47:23Z</time>
      </trkpt>
      <trkpt lat="41.7931040" lon="-8.8713090">
        <ele>10.8</ele>
        <time>2021-05-18T08:47:24Z</time>
      </trkpt>
      <trkpt lat="41.7931130" lon="-8.8713120">
        <ele>10.8</ele>
        <time>2021-05-18T08:47:25Z</time>
      </trkpt>
      <trkpt lat="41.7931220" lon="-8.8713150">
        <ele>10.8</ele>
        <time>2021-05-18T08:47:26Z</time>
      </trkpt>
      <trkpt lat="41.7931360" lon="-8.8713200">
        <ele>10.7</ele>
        <time>2021-05-18T08:47:27Z</time>
      </trkpt>
      <trkpt lat="41.7931510" lon="-8.8713250">
        <ele>10.7</ele>
        <time>2021-05-18T08:47:28Z</time>
      </trkpt>
      <trkpt lat="41.7931570" lon="-8.8713270">
        <ele>10.7</ele>
        <time>2021-05-18T08:47:29Z</time>
      </trkpt>
      <trkpt lat="41.7931630" lon="-8.8713230">
        <ele>10.6</ele>
        <time>2021-05-18T08:47:30Z</time>
      </trkpt>
      <trkpt lat="41.7931690" lon="-8.8713210">
        <ele>10.6</ele>
        <time>2021-05-18T08:47:31Z</time>
      </trkpt>
      <trkpt lat="41.7931830" lon="-8.8713250">
        <ele>10.6</ele>
        <time>2021-05-18T08:47:32Z</time>
      </trkpt>
      <trkpt lat="41.7931970" lon="-8.8713350">
        <ele>10.5</ele>
        <time>2021-05-18T08:47:33Z</time>
      </trkpt>
      <trkpt lat="41.7932060" lon="-8.8713380">
        <ele>10.5</ele>
        <time>2021-05-18T08:47:34Z</time>
      </trkpt>
      <trkpt lat="41.7932150" lon="-8.8713420">
        <ele>10.5</ele>
        <time>2021-05-18T08:47:35Z</time>
      </trkpt>
      <trkpt lat="41.7932240" lon="-8.8713450">
        <ele>10.5</ele>
        <time>2021-05-18T08:47:36Z</time>
      </trkpt>
      <trkpt lat="41.7932450" lon="-8.8713410">
        <ele>10.4</ele>
        <time>2021-05-18T08:47:37Z</time>
      </trkpt>
      <trkpt lat="41.7932550" lon="-8.8713470">
        <ele>10.4</ele>
        <time>2021-05-18T08:47:38Z</time>
      </trkpt>
      <trkpt lat="41.7932640" lon="-8.8713540">
        <ele>10.4</ele>
        <time>2021-05-18T08:47:39Z</time>
      </trkpt>
      <trkpt lat="41.7932790" lon="-8.8713560">
        <ele>10.3</ele>
        <time>2021-05-18T08:47:40Z</time>
      </trkpt>
      <trkpt lat="41.7932920" lon="-8.8713550">
        <ele>10.3</ele>
        <time>2021-05-18T08:47:41Z</time>
      </trkpt>
      <trkpt lat="41.7933020" lon="-8.8713670">
        <ele>10.2</ele>
        <time>2021-05-18T08:47:42Z</time>
      </trkpt>
      <trkpt lat="41.7933080" lon="-8.8713750">
        <ele>10.2</ele>
        <time>2021-05-18T08:47:43Z</time>
      </trkpt>
      <trkpt lat="41.7933140" lon="-8.8713840">
        <ele>10.2</ele>
        <time>2021-05-18T08:47:44Z</time>
      </trkpt>
      <trkpt lat="41.7933200" lon="-8.8713930">
        <ele>10.2</ele>
        <time>2021-05-18T08:47:45Z</time>
      </trkpt>
      <trkpt lat="41.7933310" lon="-8.8714020">
        <ele>10.1</ele>
        <time>2021-05-18T08:47:46Z</time>
      </trkpt>
      <trkpt lat="41.7933400" lon="-8.8714210">
        <ele>10.1</ele>
        <time>2021-05-18T08:47:47Z</time>
      </trkpt>
      <trkpt lat="41.7933470" lon="-8.8714320">
        <ele>10.1</ele>
        <time>2021-05-18T08:47:48Z</time>
      </trkpt>
      <trkpt lat="41.7933540" lon="-8.8714430">
        <ele>10.1</ele>
        <time>2021-05-18T08:47:49Z</time>
      </trkpt>
      <trkpt lat="41.7933610" lon="-8.8714500">
        <ele>10.0</ele>
        <time>2021-05-18T08:47:50Z</time>
      </trkpt>
      <trkpt lat="41.7933720" lon="-8.8714580">
        <ele>10.0</ele>
        <time>2021-05-18T08:47:51Z</time>
      </trkpt>
      <trkpt lat="41.7933750" lon="-8.8714670">
        <ele>10.0</ele>
        <time>2021-05-18T08:47:52Z</time>
      </trkpt>
      <trkpt lat="41.7933820" lon="-8.8714750">
        <ele>10.0</ele>
        <time>2021-05-18T08:47:53Z</time>
      </trkpt>
      <trkpt lat="41.7933980" lon="-8.8714860">
        <ele>9.9</ele>
        <time>2021-05-18T08:47:54Z</time>
      </trkpt>
      <trkpt lat="41.7934060" lon="-8.8714900">
        <ele>9.9</ele>
        <time>2021-05-18T08:47:55Z</time>
      </trkpt>
      <trkpt lat="41.7934150" lon="-8.8714940">
        <ele>9.9</ele>
        <time>2021-05-18T08:47:56Z</time>
      </trkpt>
      <trkpt lat="41.7934230" lon="-8.8714980">
        <ele>9.9</ele>
        <time>2021-05-18T08:47:57Z</time>
      </trkpt>
      <trkpt lat="41.7934380" lon="-8.8715000">
        <ele>9.8</ele>
        <time>2021-05-18T08:47:58Z</time>
      </trkpt>
      <trkpt lat="41.7934530" lon="-8.8715100">
        <ele>9.8</ele>
        <time>2021-05-18T08:47:59Z</time>
      </trkpt>
      <trkpt lat="41.7934660" lon="-8.8715250">
        <ele>9.8</ele>
        <time>2021-05-18T08:48:00Z</time>
      </trkpt>
      <trkpt lat="41.7934800" lon="-8.8715260">
        <ele>9.8</ele>
        <time>2021-05-18T08:48:01Z</time>
      </trkpt>
      <trkpt lat="41.7935000" lon="-8.8715300">
        <ele>9.7</ele>
        <time>2021-05-18T08:48:02Z</time>
      </trkpt>
      <trkpt lat="41.7935130" lon="-8.8715370">
        <ele>9.7</ele>
        <time>2021-05-18T08:48:03Z</time>
      </trkpt>
      <trkpt lat="41.7935300" lon="-8.8715580">
        <ele>9.7</ele>
        <time>2021-05-18T08:48:04Z</time>
      </trkpt>
      <trkpt lat="41.7935360" lon="-8.8715690">
        <ele>9.7</ele>
        <time>2021-05-18T08:48:05Z</time>
      </trkpt>
      <trkpt lat="41.7935420" lon="-8.8715790">
        <ele>9.7</ele>
        <time>2021-05-18T08:48:06Z</time>
      </trkpt>
      <trkpt lat="41.7935510" lon="-8.8715990">
        <ele>9.7</ele>
        <time>2021-05-18T08:48:07Z</time>
      </trkpt>
      <trkpt lat="41.7935550" lon="-8.8716170">
        <ele>9.6</ele>
        <time>2021-05-18T08:48:08Z</time>
      </trkpt>
      <trkpt lat="41.7935580" lon="-8.8716420">
        <ele>9.6</ele>
        <time>2021-05-18T08:48:09Z</time>
      </trkpt>
      <trkpt lat="41.7935610" lon="-8.8716500">
        <ele>9.6</ele>
        <time>2021-05-18T08:48:10Z</time>
      </trkpt>
      <trkpt lat="41.7935640" lon="-8.8716590">
        <ele>9.6</ele>
        <time>2021-05-18T08:48:11Z</time>
      </trkpt>
      <trkpt lat="41.7935670" lon="-8.8716670">
        <ele>9.6</ele>
        <time>2021-05-18T08:48:12Z</time>
      </trkpt>
      <trkpt lat="41.7935700" lon="-8.8716840">
        <ele>9.6</ele>
        <time>2021-05-18T08:48:13Z</time>
      </trkpt>
      <trkpt lat="41.7935720" lon="-8.8716980">
        <ele>9.6</ele>
        <time>2021-05-18T08:48:14Z</time>
      </trkpt>
      <trkpt lat="41.7935730" lon="-8.8717080">
        <ele>9.6</ele>
        <time>2021-05-18T08:48:15Z</time>
      </trkpt>
      <trkpt lat="41.7935750" lon="-8.8717280">
        <ele>9.5</ele>
        <time>2021-05-18T08:48:16Z</time>
      </trkpt>
      <trkpt lat="41.7935650" lon="-8.8717480">
        <ele>9.5</ele>
        <time>2021-05-18T08:48:17Z</time>
      </trkpt>
      <trkpt lat="41.7935690" lon="-8.8717770">
        <ele>9.5</ele>
        <time>2021-05-18T08:48:18Z</time>
      </trkpt>
      <trkpt lat="41.7935700" lon="-8.8717890">
        <ele>9.4</ele>
        <time>2021-05-18T08:48:19Z</time>
      </trkpt>
      <trkpt lat="41.7935720" lon="-8.8718010">
        <ele>9.4</ele>
        <time>2021-05-18T08:48:20Z</time>
      </trkpt>
      <trkpt lat="41.7935750" lon="-8.8718210">
        <ele>9.4</ele>
        <time>2021-05-18T08:48:21Z</time>
      </trkpt>
      <trkpt lat="41.7935790" lon="-8.8718320">
        <ele>9.4</ele>
        <time>2021-05-18T08:48:22Z</time>
      </trkpt>
      <trkpt lat="41.7935800" lon="-8.8718420">
        <ele>9.3</ele>
        <time>2021-05-18T08:48:23Z</time>
      </trkpt>
      <trkpt lat="41.7935850" lon="-8.8718570">
        <ele>9.3</ele>
        <time>2021-05-18T08:48:24Z</time>
      </trkpt>
      <trkpt lat="41.7935830" lon="-8.8718830">
        <ele>9.2</ele>
        <time>2021-05-18T08:48:25Z</time>
      </trkpt>
      <trkpt lat="41.7936050" lon="-8.8718900">
        <ele>9.1</ele>
        <time>2021-05-18T08:48:26Z</time>
      </trkpt>
      <trkpt lat="41.7936120" lon="-8.8718900">
        <ele>9.1</ele>
        <time>2021-05-18T08:48:27Z</time>
      </trkpt>
      <trkpt lat="41.7936210" lon="-8.8719030">
        <ele>9.0</ele>
        <time>2021-05-18T08:48:28Z</time>
      </trkpt>
      <trkpt lat="41.7936370" lon="-8.8719160">
        <ele>8.9</ele>
        <time>2021-05-18T08:48:29Z</time>
      </trkpt>
      <trkpt lat="41.7936450" lon="-8.8719330">
        <ele>8.8</ele>
        <time>2021-05-18T08:48:30Z</time>
      </trkpt>
      <trkpt lat="41.7936490" lon="-8.8719500">
        <ele>8.8</ele>
        <time>2021-05-18T08:48:31Z</time>
      </trkpt>
      <trkpt lat="41.7936650" lon="-8.8719820">
        <ele>8.6</ele>
        <time>2021-05-18T08:48:32Z</time>
      </trkpt>
      <trkpt lat="41.7936700" lon="-8.8719940">
        <ele>8.5</ele>
        <time>2021-05-18T08:48:33Z</time>
      </trkpt>
      <trkpt lat="41.7936760" lon="-8.8720130">
        <ele>8.5</ele>
        <time>2021-05-18T08:48:34Z</time>
      </trkpt>
      <trkpt lat="41.7936800" lon="-8.8720300">
        <ele>8.4</ele>
        <time>2021-05-18T08:48:35Z</time>
      </trkpt>
      <trkpt lat="41.7936850" lon="-8.8720470">
        <ele>8.3</ele>
        <time>2021-05-18T08:48:36Z</time>
      </trkpt>
      <trkpt lat="41.7936900" lon="-8.8720540">
        <ele>8.2</ele>
        <time>2021-05-18T08:48:37Z</time>
      </trkpt>
      <trkpt lat="41.7936950" lon="-8.8720680">
        <ele>8.2</ele>
        <time>2021-05-18T08:48:38Z</time>
      </trkpt>
      <trkpt lat="41.7937010" lon="-8.8720960">
        <ele>8.0</ele>
        <time>2021-05-18T08:48:39Z</time>
      </trkpt>
      <trkpt lat="41.7937040" lon="-8.8721050">
        <ele>8.0</ele>
        <time>2021-05-18T08:48:40Z</time>
      </trkpt>
      <trkpt lat="41.7937080" lon="-8.8721140">
        <ele>8.0</ele>
        <time>2021-05-18T08:48:41Z</time>
      </trkpt>
      <trkpt lat="41.7937140" lon="-8.8721310">
        <ele>7.9</ele>
        <time>2021-05-18T08:48:42Z</time>
      </trkpt>
      <trkpt lat="41.7937170" lon="-8.8721460">
        <ele>7.8</ele>
        <time>2021-05-18T08:48:43Z</time>
      </trkpt>
      <trkpt lat="41.7937170" lon="-8.8721530">
        <ele>7.8</ele>
        <time>2021-05-18T08:48:44Z</time>
      </trkpt>
      <trkpt lat="41.7937330" lon="-8.8721680">
        <ele>7.7</ele>
        <time>2021-05-18T08:48:45Z</time>
      </trkpt>
      <trkpt lat="41.7937430" lon="-8.8721800">
        <ele>7.6</ele>
        <time>2021-05-18T08:48:46Z</time>
      </trkpt>
      <trkpt lat="41.7937560" lon="-8.8722020">
        <ele>7.5</ele>
        <time>2021-05-18T08:48:47Z</time>
      </trkpt>
      <trkpt lat="41.7937630" lon="-8.8722160">
        <ele>7.5</ele>
        <time>2021-05-18T08:48:48Z</time>
      </trkpt>
      <trkpt lat="41.7937670" lon="-8.8722270">
        <ele>7.4</ele>
        <time>2021-05-18T08:48:49Z</time>
      </trkpt>
      <trkpt lat="41.7937680" lon="-8.8722400">
        <ele>7.4</ele>
        <time>2021-05-18T08:48:50Z</time>
      </trkpt>
      <trkpt lat="41.7937780" lon="-8.8722450">
        <ele>7.4</ele>
        <time>2021-05-18T08:48:51Z</time>
      </trkpt>
      <trkpt lat="41.7937850" lon="-8.8722540">
        <ele>7.3</ele>
        <time>2021-05-18T08:48:52Z</time>
      </trkpt>
      <trkpt lat="41.7937930" lon="-8.8722660">
        <ele>7.3</ele>
        <time>2021-05-18T08:48:53Z</time>
      </trkpt>
      <trkpt lat="41.7937980" lon="-8.8722780">
        <ele>7.3</ele>
        <time>2021-05-18T08:48:54Z</time>
      </trkpt>
      <trkpt lat="41.7938060" lon="-8.8722890">
        <ele>7.2</ele>
        <time>2021-05-18T08:48:55Z</time>
      </trkpt>
      <trkpt lat="41.7938200" lon="-8.8723140">
        <ele>7.2</ele>
        <time>2021-05-18T08:48:56Z</time>
      </trkpt>
      <trkpt lat="41.7938270" lon="-8.8723250">
        <ele>7.2</ele>
        <time>2021-05-18T08:48:57Z</time>
      </trkpt>
      <trkpt lat="41.7938330" lon="-8.8723350">
        <ele>7.2</ele>
        <time>2021-05-18T08:48:58Z</time>
      </trkpt>
      <trkpt lat="41.7938400" lon="-8.8723490">
        <ele>7.2</ele>
        <time>2021-05-18T08:48:59Z</time>
      </trkpt>
      <trkpt lat="41.7938580" lon="-8.8723620">
        <ele>7.1</ele>
        <time>2021-05-18T08:49:00Z</time>
      </trkpt>
      <trkpt lat="41.7938630" lon="-8.8723690">
        <ele>7.1</ele>
        <time>2021-05-18T08:49:01Z</time>
      </trkpt>
      <trkpt lat="41.7938680" lon="-8.8723780">
        <ele>7.1</ele>
        <time>2021-05-18T08:49:02Z</time>
      </trkpt>
      <trkpt lat="41.7938800" lon="-8.8723870">
        <ele>7.1</ele>
        <time>2021-05-18T08:49:03Z</time>
      </trkpt>
      <trkpt lat="41.7938890" lon="-8.8724020">
        <ele>7.1</ele>
        <time>2021-05-18T08:49:04Z</time>
      </trkpt>
      <trkpt lat="41.7938940" lon="-8.8724190">
        <ele>7.0</ele>
        <time>2021-05-18T08:49:05Z</time>
      </trkpt>
      <trkpt lat="41.7939000" lon="-8.8724510">
        <ele>7.0</ele>
        <time>2021-05-18T08:49:06Z</time>
      </trkpt>
      <trkpt lat="41.7939040" lon="-8.8724650">
        <ele>7.0</ele>
        <time>2021-05-18T08:49:07Z</time>
      </trkpt>
      <trkpt lat="41.7939080" lon="-8.8724800">
        <ele>6.9</ele>
        <time>2021-05-18T08:49:08Z</time>
      </trkpt>
      <trkpt lat="41.7939050" lon="-8.8724910">
        <ele>6.9</ele>
        <time>2021-05-18T08:49:09Z</time>
      </trkpt>
      <trkpt lat="41.7939140" lon="-8.8724970">
        <ele>6.9</ele>
        <time>2021-05-18T08:49:10Z</time>
      </trkpt>
      <trkpt lat="41.7939120" lon="-8.8724920">
        <ele>6.9</ele>
        <time>2021-05-18T08:49:11Z</time>
      </trkpt>
      <trkpt lat="41.7939110" lon="-8.8724980">
        <ele>6.9</ele>
        <time>2021-05-18T08:49:12Z</time>
      </trkpt>
      <trkpt lat="41.7939120" lon="-8.8725040">
        <ele>6.9</ele>
        <time>2021-05-18T08:49:13Z</time>
      </trkpt>
      <trkpt lat="41.7939160" lon="-8.8725090">
        <ele>6.8</ele>
        <time>2021-05-18T08:49:14Z</time>
      </trkpt>
      <trkpt lat="41.7939130" lon="-8.8725130">
        <ele>6.8</ele>
        <time>2021-05-18T08:49:15Z</time>
      </trkpt>
      <trkpt lat="41.7939130" lon="-8.8725140">
        <ele>6.8</ele>
        <time>2021-05-18T08:49:16Z</time>
      </trkpt>
      <trkpt lat="41.7939160" lon="-8.8725170">
        <ele>6.8</ele>
        <time>2021-05-18T08:49:17Z</time>
      </trkpt>
      <trkpt lat="41.7939160" lon="-8.8725210">
        <ele>6.8</ele>
        <time>2021-05-18T08:49:18Z</time>
      </trkpt>
      <trkpt lat="41.7939220" lon="-8.8725310">
        <ele>6.8</ele>
        <time>2021-05-18T08:49:19Z</time>
      </trkpt>
      <trkpt lat="41.7939260" lon="-8.8725420">
        <ele>6.7</ele>
        <time>2021-05-18T08:49:20Z</time>
      </trkpt>
      <trkpt lat="41.7939330" lon="-8.8725550">
        <ele>6.7</ele>
        <time>2021-05-18T08:49:21Z</time>
      </trkpt>
      <trkpt lat="41.7939390" lon="-8.8725640">
        <ele>6.7</ele>
        <time>2021-05-18T08:49:22Z</time>
      </trkpt>
      <trkpt lat="41.7939470" lon="-8.8725790">
        <ele>6.6</ele>
        <time>2021-05-18T08:49:23Z</time>
      </trkpt>
      <trkpt lat="41.7939550" lon="-8.8725860">
        <ele>6.6</ele>
        <time>2021-05-18T08:49:24Z</time>
      </trkpt>
      <trkpt lat="41.7939590" lon="-8.8726020">
        <ele>6.5</ele>
        <time>2021-05-18T08:49:25Z</time>
      </trkpt>
      <trkpt lat="41.7939630" lon="-8.8726160">
        <ele>6.5</ele>
        <time>2021-05-18T08:49:26Z</time>
      </trkpt>
      <trkpt lat="41.7939650" lon="-8.8726230">
        <ele>6.5</ele>
        <time>2021-05-18T08:49:27Z</time>
      </trkpt>
      <trkpt lat="41.7939630" lon="-8.8726250">
        <ele>6.4</ele>
        <time>2021-05-18T08:49:28Z</time>
      </trkpt>
      <trkpt lat="41.7939640" lon="-8.8726250">
        <ele>6.4</ele>
        <time>2021-05-18T08:49:29Z</time>
      </trkpt>
      <trkpt lat="41.7939640" lon="-8.8726260">
        <ele>6.4</ele>
        <time>2021-05-18T08:49:30Z</time>
      </trkpt>
      <trkpt lat="41.7939650" lon="-8.8726270">
        <ele>6.4</ele>
        <time>2021-05-18T08:49:31Z</time>
      </trkpt>
      <trkpt lat="41.7939660" lon="-8.8726270">
        <ele>6.4</ele>
        <time>2021-05-18T08:49:32Z</time>
      </trkpt>
      <trkpt lat="41.7939670" lon="-8.8726280">
        <ele>6.4</ele>
        <time>2021-05-18T08:49:33Z</time>
      </trkpt>
      <trkpt lat="41.7939680" lon="-8.8726290">
        <ele>6.4</ele>
        <time>2021-05-18T08:49:34Z</time>
      </trkpt>
      <trkpt lat="41.7939690" lon="-8.8726290">
        <ele>6.4</ele>
        <time>2021-05-18T08:49:35Z</time>
      </trkpt>
      <trkpt lat="41.7939690" lon="-8.8726300">
        <ele>6.4</ele>
        <time>2021-05-18T08:49:36Z</time>
      </trkpt>
      <trkpt lat="41.7939700" lon="-8.8726310">
        <ele>6.4</ele>
        <time>2021-05-18T08:49:37Z</time>
      </trkpt>
      <trkpt lat="41.7939710" lon="-8.8726320">
        <ele>6.4</ele>
        <time>2021-05-18T08:49:38Z</time>
      </trkpt>
      <trkpt lat="41.7939720" lon="-8.8726320">
        <ele>6.4</ele>
        <time>2021-05-18T08:49:39Z</time>
      </trkpt>
      <trkpt lat="41.7939730" lon="-8.8726330">
        <ele>6.4</ele>
        <time>2021-05-18T08:49:40Z</time>
      </trkpt>
      <trkpt lat="41.7939740" lon="-8.8726340">
        <ele>6.4</ele>
        <time>2021-05-18T08:49:41Z</time>
      </trkpt>
      <trkpt lat="41.7939740" lon="-8.8726340">
        <ele>6.4</ele>
        <time>2021-05-18T08:49:42Z</time>
      </trkpt>
      <trkpt lat="41.7939750" lon="-8.8726350">
        <ele>6.4</ele>
        <time>2021-05-18T08:49:43Z</time>
      </trkpt>
      <trkpt lat="41.7939760" lon="-8.8726360">
        <ele>6.4</ele>
        <time>2021-05-18T08:49:44Z</time>
      </trkpt>
      <trkpt lat="41.7939770" lon="-8.8726360">
        <ele>6.4</ele>
        <time>2021-05-18T08:49:45Z</time>
      </trkpt>
      <trkpt lat="41.7939780" lon="-8.8726370">
        <ele>6.4</ele>
        <time>2021-05-18T08:49:46Z</time>
      </trkpt>
      <trkpt lat="41.7939790" lon="-8.8726380">
        <ele>6.4</ele>
        <time>2021-05-18T08:49:47Z</time>
      </trkpt>
      <trkpt lat="41.7939790" lon="-8.8726380">
        <ele>6.4</ele>
        <time>2021-05-18T08:49:48Z</time>
      </trkpt>
      <trkpt lat="41.7939800" lon="-8.8726390">
        <ele>6.4</ele>
        <time>2021-05-18T08:49:49Z</time>
      </trkpt>
      <trkpt lat="41.7939810" lon="-8.8726400">
        <ele>6.4</ele>
        <time>2021-05-18T08:49:50Z</time>
      </trkpt>
      <trkpt lat="41.7939820" lon="-8.8726400">
        <ele>6.4</ele>
        <time>2021-05-18T08:49:51Z</time>
      </trkpt>
      <trkpt lat="41.7939830" lon="-8.8726410">
        <ele>6.4</ele>
        <time>2021-05-18T08:49:52Z</time>
      </trkpt>
      <trkpt lat="41.7939840" lon="-8.8726420">
        <ele>6.3</ele>
        <time>2021-05-18T08:49:53Z</time>
      </trkpt>
      <trkpt lat="41.7939840" lon="-8.8726420">
        <ele>6.3</ele>
        <time>2021-05-18T08:49:54Z</time>
      </trkpt>
      <trkpt lat="41.7939850" lon="-8.8726430">
        <ele>6.3</ele>
        <time>2021-05-18T08:49:55Z</time>
      </trkpt>
      <trkpt lat="41.7939860" lon="-8.8726440">
        <ele>6.3</ele>
        <time>2021-05-18T08:49:56Z</time>
      </trkpt>
      <trkpt lat="41.7939870" lon="-8.8726440">
        <ele>6.3</ele>
        <time>2021-05-18T08:49:57Z</time>
      </trkpt>
      <trkpt lat="41.7939880" lon="-8.8726450">
        <ele>6.3</ele>
        <time>2021-05-18T08:49:58Z</time>
      </trkpt>
      <trkpt lat="41.7939890" lon="-8.8726460">
        <ele>6.3</ele>
        <time>2021-05-18T08:49:59Z</time>
      </trkpt>
      <trkpt lat="41.7939890" lon="-8.8726470">
        <ele>6.3</ele>
        <time>2021-05-18T08:50:00Z</time>
      </trkpt>
      <trkpt lat="41.7939900" lon="-8.8726470">
        <ele>6.3</ele>
        <time>2021-05-18T08:50:01Z</time>
      </trkpt>
      <trkpt lat="41.7939910" lon="-8.8726480">
        <ele>6.3</ele>
        <time>2021-05-18T08:50:02Z</time>
      </trkpt>
      <trkpt lat="41.7939920" lon="-8.8726490">
        <ele>6.3</ele>
        <time>2021-05-18T08:50:03Z</time>
      </trkpt>
      <trkpt lat="41.7939930" lon="-8.8726490">
        <ele>6.3</ele>
        <time>2021-05-18T08:50:04Z</time>
      </trkpt>
      <trkpt lat="41.7939940" lon="-8.8726500">
        <ele>6.3</ele>
        <time>2021-05-18T08:50:05Z</time>
      </trkpt>
      <trkpt lat="41.7939940" lon="-8.8726510">
        <ele>6.3</ele>
        <time>2021-05-18T08:50:06Z</time>
      </trkpt>
      <trkpt lat="41.7939950" lon="-8.8726510">
        <ele>6.3</ele>
        <time>2021-05-18T08:50:07Z</time>
      </trkpt>
      <trkpt lat="41.7939960" lon="-8.8726520">
        <ele>6.3</ele>
        <time>2021-05-18T08:50:08Z</time>
      </trkpt>
      <trkpt lat="41.7940180" lon="-8.8726560">
        <ele>6.2</ele>
        <time>2021-05-18T08:50:09Z</time>
      </trkpt>
      <trkpt lat="41.7940260" lon="-8.8726560">
        <ele>6.2</ele>
        <time>2021-05-18T08:50:10Z</time>
      </trkpt>
      <trkpt lat="41.7940330" lon="-8.8726560">
        <ele>6.2</ele>
        <time>2021-05-18T08:50:11Z</time>
      </trkpt>
      <trkpt lat="41.7940480" lon="-8.8726570">
        <ele>6.1</ele>
        <time>2021-05-18T08:50:12Z</time>
      </trkpt>
      <trkpt lat="41.7940610" lon="-8.8726560">
        <ele>6.1</ele>
        <time>2021-05-18T08:50:13Z</time>
      </trkpt>
      <trkpt lat="41.7940810" lon="-8.8726670">
        <ele>6.1</ele>
        <time>2021-05-18T08:50:14Z</time>
      </trkpt>
      <trkpt lat="41.7940900" lon="-8.8726720">
        <ele>6.0</ele>
        <time>2021-05-18T08:50:15Z</time>
      </trkpt>
      <trkpt lat="41.7941000" lon="-8.8726770">
        <ele>6.0</ele>
        <time>2021-05-18T08:50:16Z</time>
      </trkpt>
      <trkpt lat="41.7941080" lon="-8.8726800">
        <ele>6.0</ele>
        <time>2021-05-18T08:50:17Z</time>
      </trkpt>
      <trkpt lat="41.7941140" lon="-8.8726910">
        <ele>6.0</ele>
        <time>2021-05-18T08:50:18Z</time>
      </trkpt>
      <trkpt lat="41.7941210" lon="-8.8727020">
        <ele>6.0</ele>
        <time>2021-05-18T08:50:19Z</time>
      </trkpt>
      <trkpt lat="41.7941310" lon="-8.8727150">
        <ele>5.9</ele>
        <time>2021-05-18T08:50:20Z</time>
      </trkpt>
      <trkpt lat="41.7941400" lon="-8.8727210">
        <ele>5.9</ele>
        <time>2021-05-18T08:50:21Z</time>
      </trkpt>
      <trkpt lat="41.7941480" lon="-8.8727320">
        <ele>5.9</ele>
        <time>2021-05-18T08:50:22Z</time>
      </trkpt>
      <trkpt lat="41.7941570" lon="-8.8727440">
        <ele>5.9</ele>
        <time>2021-05-18T08:50:23Z</time>
      </trkpt>
      <trkpt lat="41.7941660" lon="-8.8727550">
        <ele>5.9</ele>
        <time>2021-05-18T08:50:24Z</time>
      </trkpt>
      <trkpt lat="41.7941690" lon="-8.8727660">
        <ele>5.8</ele>
        <time>2021-05-18T08:50:25Z</time>
      </trkpt>
      <trkpt lat="41.7941780" lon="-8.8727770">
        <ele>5.8</ele>
        <time>2021-05-18T08:50:26Z</time>
      </trkpt>
      <trkpt lat="41.7941780" lon="-8.8727770">
        <ele>5.8</ele>
        <time>2021-05-18T08:50:27Z</time>
      </trkpt>
      <trkpt lat="41.7941790" lon="-8.8727780">
        <ele>5.8</ele>
        <time>2021-05-18T08:50:28Z</time>
      </trkpt>
      <trkpt lat="41.7941800" lon="-8.8727780">
        <ele>5.8</ele>
        <time>2021-05-18T08:50:29Z</time>
      </trkpt>
      <trkpt lat="41.7941800" lon="-8.8727780">
        <ele>5.8</ele>
        <time>2021-05-18T08:50:30Z</time>
      </trkpt>
      <trkpt lat="41.7941810" lon="-8.8727780">
        <ele>5.8</ele>
        <time>2021-05-18T08:50:31Z</time>
      </trkpt>
      <trkpt lat="41.7941820" lon="-8.8727780">
        <ele>5.8</ele>
        <time>2021-05-18T08:50:32Z</time>
      </trkpt>
      <trkpt lat="41.7941820" lon="-8.8727780">
        <ele>5.8</ele>
        <time>2021-05-18T08:50:33Z</time>
      </trkpt>
      <trkpt lat="41.7941830" lon="-8.8727790">
        <ele>5.8</ele>
        <time>2021-05-18T08:50:34Z</time>
      </trkpt>
      <trkpt lat="41.7941840" lon="-8.8727790">
        <ele>5.8</ele>
        <time>2021-05-18T08:50:35Z</time>
      </trkpt>
      <trkpt lat="41.7941840" lon="-8.8727790">
        <ele>5.8</ele>
        <time>2021-05-18T08:50:36Z</time>
      </trkpt>
      <trkpt lat="41.7941850" lon="-8.8727790">
        <ele>5.8</ele>
        <time>2021-05-18T08:50:37Z</time>
      </trkpt>
      <trkpt lat="41.7941860" lon="-8.8727790">
        <ele>5.8</ele>
        <time>2021-05-18T08:50:38Z</time>
      </trkpt>
      <trkpt lat="41.7941860" lon="-8.8727790">
        <ele>5.8</ele>
        <time>2021-05-18T08:50:39Z</time>
      </trkpt>
      <trkpt lat="41.7941870" lon="-8.8727800">
        <ele>5.8</ele>
        <time>2021-05-18T08:50:40Z</time>
      </trkpt>
      <trkpt lat="41.7941880" lon="-8.8727800">
        <ele>5.8</ele>
        <time>2021-05-18T08:50:41Z</time>
      </trkpt>
      <trkpt lat="41.7941880" lon="-8.8727800">
        <ele>5.8</ele>
        <time>2021-05-18T08:50:42Z</time>
      </trkpt>
      <trkpt lat="41.7941890" lon="-8.8727800">
        <ele>5.8</ele>
        <time>2021-05-18T08:50:43Z</time>
      </trkpt>
      <trkpt lat="41.7941890" lon="-8.8727800">
        <ele>5.8</ele>
        <time>2021-05-18T08:50:44Z</time>
      </trkpt>
      <trkpt lat="41.7941900" lon="-8.8727800">
        <ele>5.8</ele>
        <time>2021-05-18T08:50:45Z</time>
      </trkpt>
      <trkpt lat="41.7941910" lon="-8.8727810">
        <ele>5.8</ele>
        <time>2021-05-18T08:50:46Z</time>
      </trkpt>
      <trkpt lat="41.7941910" lon="-8.8727810">
        <ele>5.8</ele>
        <time>2021-05-18T08:50:47Z</time>
      </trkpt>
      <trkpt lat="41.7941920" lon="-8.8727810">
        <ele>5.8</ele>
        <time>2021-05-18T08:50:48Z</time>
      </trkpt>
      <trkpt lat="41.7941930" lon="-8.8727810">
        <ele>5.8</ele>
        <time>2021-05-18T08:50:49Z</time>
      </trkpt>
      <trkpt lat="41.7941930" lon="-8.8727810">
        <ele>5.8</ele>
        <time>2021-05-18T08:50:50Z</time>
      </trkpt>
      <trkpt lat="41.7941940" lon="-8.8727810">
        <ele>5.8</ele>
        <time>2021-05-18T08:50:51Z</time>
      </trkpt>
      <trkpt lat="41.7941950" lon="-8.8727820">
        <ele>5.8</ele>
        <time>2021-05-18T08:50:52Z</time>
      </trkpt>
      <trkpt lat="41.7941950" lon="-8.8727820">
        <ele>5.8</ele>
        <time>2021-05-18T08:50:53Z</time>
      </trkpt>
      <trkpt lat="41.7941960" lon="-8.8727820">
        <ele>5.8</ele>
        <time>2021-05-18T08:50:54Z</time>
      </trkpt>
      <trkpt lat="41.7941970" lon="-8.8727820">
        <ele>5.8</ele>
        <time>2021-05-18T08:50:55Z</time>
      </trkpt>
      <trkpt lat="41.7941970" lon="-8.8727820">
        <ele>5.8</ele>
        <time>2021-05-18T08:50:56Z</time>
      </trkpt>
      <trkpt lat="41.7941980" lon="-8.8727820">
        <ele>5.8</ele>
        <time>2021-05-18T08:50:57Z</time>
      </trkpt>
      <trkpt lat="41.7941990" lon="-8.8727830">
        <ele>5.8</ele>
        <time>2021-05-18T08:50:58Z</time>
      </trkpt>
      <trkpt lat="41.7941990" lon="-8.8727830">
        <ele>5.8</ele>
        <time>2021-05-18T08:50:59Z</time>
      </trkpt>
      <trkpt lat="41.7942000" lon="-8.8727830">
        <ele>5.8</ele>
        <time>2021-05-18T08:51:00Z</time>
      </trkpt>
      <trkpt lat="41.7942010" lon="-8.8727830">
        <ele>5.8</ele>
        <time>2021-05-18T08:51:01Z</time>
      </trkpt>
      <trkpt lat="41.7942010" lon="-8.8727830">
        <ele>5.8</ele>
        <time>2021-05-18T08:51:02Z</time>
      </trkpt>
      <trkpt lat="41.7942020" lon="-8.8727840">
        <ele>5.8</ele>
        <time>2021-05-18T08:51:03Z</time>
      </trkpt>
      <trkpt lat="41.7942030" lon="-8.8727840">
        <ele>5.8</ele>
        <time>2021-05-18T08:51:04Z</time>
      </trkpt>
      <trkpt lat="41.7942030" lon="-8.8727840">
        <ele>5.8</ele>
        <time>2021-05-18T08:51:05Z</time>
      </trkpt>
      <trkpt lat="41.7942040" lon="-8.8727840">
        <ele>5.8</ele>
        <time>2021-05-18T08:51:06Z</time>
      </trkpt>
      <trkpt lat="41.7942050" lon="-8.8727840">
        <ele>5.8</ele>
        <time>2021-05-18T08:51:07Z</time>
      </trkpt>
      <trkpt lat="41.7942050" lon="-8.8727840">
        <ele>5.8</ele>
        <time>2021-05-18T08:51:08Z</time>
      </trkpt>
      <trkpt lat="41.7942060" lon="-8.8727850">
        <ele>5.8</ele>
        <time>2021-05-18T08:51:09Z</time>
      </trkpt>
      <trkpt lat="41.7942070" lon="-8.8727850">
        <ele>5.8</ele>
        <time>2021-05-18T08:51:10Z</time>
      </trkpt>
      <trkpt lat="41.7942070" lon="-8.8727850">
        <ele>5.8</ele>
        <time>2021-05-18T08:51:11Z</time>
      </trkpt>
      <trkpt lat="41.7942080" lon="-8.8727850">
        <ele>5.8</ele>
        <time>2021-05-18T08:51:12Z</time>
      </trkpt>
      <trkpt lat="41.7942090" lon="-8.8727850">
        <ele>5.8</ele>
        <time>2021-05-18T08:51:13Z</time>
      </trkpt>
      <trkpt lat="41.7942090" lon="-8.8727850">
        <ele>5.8</ele>
        <time>2021-05-18T08:51:14Z</time>
      </trkpt>
      <trkpt lat="41.7942100" lon="-8.8727860">
        <ele>5.8</ele>
        <time>2021-05-18T08:51:15Z</time>
      </trkpt>
      <trkpt lat="41.7942100" lon="-8.8727860">
        <ele>5.8</ele>
        <time>2021-05-18T08:51:16Z</time>
      </trkpt>
      <trkpt lat="41.7942110" lon="-8.8727860">
        <ele>5.8</ele>
        <time>2021-05-18T08:51:17Z</time>
      </trkpt>
      <trkpt lat="41.7942120" lon="-8.8727860">
        <ele>5.8</ele>
        <time>2021-05-18T08:51:18Z</time>
      </trkpt>
      <trkpt lat="41.7942120" lon="-8.8727860">
        <ele>5.8</ele>
        <time>2021-05-18T08:51:19Z</time>
      </trkpt>
      <trkpt lat="41.7942130" lon="-8.8727860">
        <ele>5.8</ele>
        <time>2021-05-18T08:51:20Z</time>
      </trkpt>
      <trkpt lat="41.7942140" lon="-8.8727870">
        <ele>5.8</ele>
        <time>2021-05-18T08:51:21Z</time>
      </trkpt>
      <trkpt lat="41.7942140" lon="-8.8727870">
        <ele>5.8</ele>
        <time>2021-05-18T08:51:22Z</time>
      </trkpt>
      <trkpt lat="41.7942150" lon="-8.8727870">
        <ele>5.8</ele>
        <time>2021-05-18T08:51:23Z</time>
      </trkpt>
      <trkpt lat="41.7942160" lon="-8.8727870">
        <ele>5.8</ele>
        <time>2021-05-18T08:51:24Z</time>
      </trkpt>
      <trkpt lat="41.7942160" lon="-8.8727870">
        <ele>5.8</ele>
        <time>2021-05-18T08:51:25Z</time>
      </trkpt>
      <trkpt lat="41.7942170" lon="-8.8727870">
        <ele>5.8</ele>
        <time>2021-05-18T08:51:26Z</time>
      </trkpt>
      <trkpt lat="41.7942180" lon="-8.8727880">
        <ele>5.7</ele>
        <time>2021-05-18T08:51:27Z</time>
      </trkpt>
      <trkpt lat="41.7942180" lon="-8.8727880">
        <ele>5.7</ele>
        <time>2021-05-18T08:51:28Z</time>
      </trkpt>
      <trkpt lat="41.7942190" lon="-8.8727880">
        <ele>5.7</ele>
        <time>2021-05-18T08:51:29Z</time>
      </trkpt>
      <trkpt lat="41.7942330" lon="-8.8727870">
        <ele>5.7</ele>
        <time>2021-05-18T08:51:30Z</time>
      </trkpt>
      <trkpt lat="41.7942460" lon="-8.8727870">
        <ele>5.7</ele>
        <time>2021-05-18T08:51:31Z</time>
      </trkpt>
      <trkpt lat="41.7942560" lon="-8.8727830">
        <ele>5.7</ele>
        <time>2021-05-18T08:51:32Z</time>
      </trkpt>
      <trkpt lat="41.7942670" lon="-8.8727870">
        <ele>5.7</ele>
        <time>2021-05-18T08:51:33Z</time>
      </trkpt>
      <trkpt lat="41.7942780" lon="-8.8727860">
        <ele>5.7</ele>
        <time>2021-05-18T08:51:34Z</time>
      </trkpt>
      <trkpt lat="41.7942900" lon="-8.8727880">
        <ele>5.6</ele>
        <time>2021-05-18T08:51:35Z</time>
      </trkpt>
      <trkpt lat="41.7943040" lon="-8.8727800">
        <ele>5.6</ele>
        <time>2021-05-18T08:51:36Z</time>
      </trkpt>
      <trkpt lat="41.7943120" lon="-8.8727730">
        <ele>5.6</ele>
        <time>2021-05-18T08:51:37Z</time>
      </trkpt>
      <trkpt lat="41.7943240" lon="-8.8727640">
        <ele>5.6</ele>
        <time>2021-05-18T08:51:38Z</time>
      </trkpt>
      <trkpt lat="41.7943290" lon="-8.8727530">
        <ele>5.6</ele>
        <time>2021-05-18T08:51:39Z</time>
      </trkpt>
      <trkpt lat="41.7943310" lon="-8.8727410">
        <ele>5.6</ele>
        <time>2021-05-18T08:51:40Z</time>
      </trkpt>
      <trkpt lat="41.7943520" lon="-8.8727250">
        <ele>5.6</ele>
        <time>2021-05-18T08:51:41Z</time>
      </trkpt>
      <trkpt lat="41.7943550" lon="-8.8727180">
        <ele>5.6</ele>
        <time>2021-05-18T08:51:42Z</time>
      </trkpt>
      <trkpt lat="41.7943590" lon="-8.8727100">
        <ele>5.6</ele>
        <time>2021-05-18T08:51:43Z</time>
      </trkpt>
      <trkpt lat="41.7943630" lon="-8.8727020">
        <ele>5.6</ele>
        <time>2021-05-18T08:51:44Z</time>
      </trkpt>
      <trkpt lat="41.7943620" lon="-8.8726990">
        <ele>5.6</ele>
        <time>2021-05-18T08:51:45Z</time>
      </trkpt>
      <trkpt lat="41.7943710" lon="-8.8726900">
        <ele>5.6</ele>
        <time>2021-05-18T08:51:46Z</time>
      </trkpt>
      <trkpt lat="41.7943780" lon="-8.8726840">
        <ele>5.7</ele>
        <time>2021-05-18T08:51:47Z</time>
      </trkpt>
      <trkpt lat="41.7943860" lon="-8.8726800">
        <ele>5.7</ele>
        <time>2021-05-18T08:51:48Z</time>
      </trkpt>
      <trkpt lat="41.7943920" lon="-8.8726820">
        <ele>5.7</ele>
        <time>2021-05-18T08:51:49Z</time>
      </trkpt>
      <trkpt lat="41.7944050" lon="-8.8726890">
        <ele>5.7</ele>
        <time>2021-05-18T08:51:50Z</time>
      </trkpt>
      <trkpt lat="41.7944250" lon="-8.8727030">
        <ele>5.7</ele>
        <time>2021-05-18T08:51:51Z</time>
      </trkpt>
      <trkpt lat="41.7944350" lon="-8.8727080">
        <ele>5.7</ele>
        <time>2021-05-18T08:51:52Z</time>
      </trkpt>
      <trkpt lat="41.7944450" lon="-8.8727140">
        <ele>5.7</ele>
        <time>2021-05-18T08:51:53Z</time>
      </trkpt>
      <trkpt lat="41.7944560" lon="-8.8727190">
        <ele>5.7</ele>
        <time>2021-05-18T08:51:54Z</time>
      </trkpt>
      <trkpt lat="41.7944660" lon="-8.8727270">
        <ele>5.7</ele>
        <time>2021-05-18T08:51:55Z</time>
      </trkpt>
      <trkpt lat="41.7944750" lon="-8.8727390">
        <ele>5.7</ele>
        <time>2021-05-18T08:51:56Z</time>
      </trkpt>
      <trkpt lat="41.7944910" lon="-8.8727570">
        <ele>5.7</ele>
        <time>2021-05-18T08:51:57Z</time>
      </trkpt>
      <trkpt lat="41.7945000" lon="-8.8727640">
        <ele>5.7</ele>
        <time>2021-05-18T08:51:58Z</time>
      </trkpt>
      <trkpt lat="41.7945080" lon="-8.8727700">
        <ele>5.7</ele>
        <time>2021-05-18T08:51:59Z</time>
      </trkpt>
      <trkpt lat="41.7945210" lon="-8.8727900">
        <ele>5.7</ele>
        <time>2021-05-18T08:52:00Z</time>
      </trkpt>
      <trkpt lat="41.7945210" lon="-8.8728080">
        <ele>5.7</ele>
        <time>2021-05-18T08:52:01Z</time>
      </trkpt>
      <trkpt lat="41.7945280" lon="-8.8728210">
        <ele>5.7</ele>
        <time>2021-05-18T08:52:02Z</time>
      </trkpt>
      <trkpt lat="41.7945400" lon="-8.8728390">
        <ele>5.7</ele>
        <time>2021-05-18T08:52:03Z</time>
      </trkpt>
      <trkpt lat="41.7945570" lon="-8.8728510">
        <ele>5.7</ele>
        <time>2021-05-18T08:52:04Z</time>
      </trkpt>
      <trkpt lat="41.7945690" lon="-8.8728570">
        <ele>5.7</ele>
        <time>2021-05-18T08:52:05Z</time>
      </trkpt>
      <trkpt lat="41.7945990" lon="-8.8728760">
        <ele>5.7</ele>
        <time>2021-05-18T08:52:06Z</time>
      </trkpt>
      <trkpt lat="41.7946070" lon="-8.8728800">
        <ele>5.7</ele>
        <time>2021-05-18T08:52:07Z</time>
      </trkpt>
      <trkpt lat="41.7946210" lon="-8.8728880">
        <ele>5.6</ele>
        <time>2021-05-18T08:52:08Z</time>
      </trkpt>
      <trkpt lat="41.7946380" lon="-8.8728920">
        <ele>5.6</ele>
        <time>2021-05-18T08:52:09Z</time>
      </trkpt>
      <trkpt lat="41.7946540" lon="-8.8728950">
        <ele>5.6</ele>
        <time>2021-05-18T08:52:10Z</time>
      </trkpt>
      <trkpt lat="41.7946680" lon="-8.8729030">
        <ele>5.6</ele>
        <time>2021-05-18T08:52:11Z</time>
      </trkpt>
      <trkpt lat="41.7946820" lon="-8.8729060">
        <ele>5.6</ele>
        <time>2021-05-18T08:52:12Z</time>
      </trkpt>
      <trkpt lat="41.7946940" lon="-8.8729180">
        <ele>5.6</ele>
        <time>2021-05-18T08:52:13Z</time>
      </trkpt>
      <trkpt lat="41.7947090" lon="-8.8729230">
        <ele>5.5</ele>
        <time>2021-05-18T08:52:14Z</time>
      </trkpt>
      <trkpt lat="41.7947220" lon="-8.8729300">
        <ele>5.5</ele>
        <time>2021-05-18T08:52:15Z</time>
      </trkpt>
      <trkpt lat="41.7947360" lon="-8.8729360">
        <ele>5.5</ele>
        <time>2021-05-18T08:52:16Z</time>
      </trkpt>
      <trkpt lat="41.7947520" lon="-8.8729400">
        <ele>5.5</ele>
        <time>2021-05-18T08:52:17Z</time>
      </trkpt>
      <trkpt lat="41.7947650" lon="-8.8729460">
        <ele>5.5</ele>
        <time>2021-05-18T08:52:18Z</time>
      </trkpt>
      <trkpt lat="41.7947780" lon="-8.8729570">
        <ele>5.5</ele>
        <time>2021-05-18T08:52:19Z</time>
      </trkpt>
      <trkpt lat="41.7947880" lon="-8.8729720">
        <ele>5.5</ele>
        <time>2021-05-18T08:52:20Z</time>
      </trkpt>
      <trkpt lat="41.7947960" lon="-8.8729790">
        <ele>5.5</ele>
        <time>2021-05-18T08:52:21Z</time>
      </trkpt>
      <trkpt lat="41.7948070" lon="-8.8729820">
        <ele>5.5</ele>
        <time>2021-05-18T08:52:22Z</time>
      </trkpt>
      <trkpt lat="41.7948090" lon="-8.8729860">
        <ele>5.5</ele>
        <time>2021-05-18T08:52:23Z</time>
      </trkpt>
      <trkpt lat="41.7948260" lon="-8.8729870">
        <ele>5.5</ele>
        <time>2021-05-18T08:52:24Z</time>
      </trkpt>
      <trkpt lat="41.7948280" lon="-8.8729920">
        <ele>5.5</ele>
        <time>2021-05-18T08:52:25Z</time>
      </trkpt>
      <trkpt lat="41.7948370" lon="-8.8730020">
        <ele>5.5</ele>
        <time>2021-05-18T08:52:26Z</time>
      </trkpt>
      <trkpt lat="41.7948510" lon="-8.8730060">
        <ele>5.5</ele>
        <time>2021-05-18T08:52:27Z</time>
      </trkpt>
      <trkpt lat="41.7948570" lon="-8.8730130">
        <ele>5.5</ele>
        <time>2021-05-18T08:52:28Z</time>
      </trkpt>
      <trkpt lat="41.7948610" lon="-8.8730170">
        <ele>5.5</ele>
        <time>2021-05-18T08:52:29Z</time>
      </trkpt>
      <trkpt lat="41.7948800" lon="-8.8730290">
        <ele>5.5</ele>
        <time>2021-05-18T08:52:30Z</time>
      </trkpt>
      <trkpt lat="41.7948860" lon="-8.8730360">
        <ele>5.5</ele>
        <time>2021-05-18T08:52:31Z</time>
      </trkpt>
      <trkpt lat="41.7948930" lon="-8.8730420">
        <ele>5.5</ele>
        <time>2021-05-18T08:52:32Z</time>
      </trkpt>
      <trkpt lat="41.7949050" lon="-8.8730480">
        <ele>5.5</ele>
        <time>2021-05-18T08:52:33Z</time>
      </trkpt>
      <trkpt lat="41.7949140" lon="-8.8730500">
        <ele>5.5</ele>
        <time>2021-05-18T08:52:34Z</time>
      </trkpt>
      <trkpt lat="41.7949240" lon="-8.8730490">
        <ele>5.5</ele>
        <time>2021-05-18T08:52:35Z</time>
      </trkpt>
      <trkpt lat="41.7949350" lon="-8.8730530">
        <ele>5.5</ele>
        <time>2021-05-18T08:52:36Z</time>
      </trkpt>
      <trkpt lat="41.7949530" lon="-8.8730640">
        <ele>5.5</ele>
        <time>2021-05-18T08:52:37Z</time>
      </trkpt>
      <trkpt lat="41.7949730" lon="-8.8730760">
        <ele>5.5</ele>
        <time>2021-05-18T08:52:38Z</time>
      </trkpt>
      <trkpt lat="41.7949820" lon="-8.8730810">
        <ele>5.5</ele>
        <time>2021-05-18T08:52:39Z</time>
      </trkpt>
      <trkpt lat="41.7949900" lon="-8.8730850">
        <ele>5.5</ele>
        <time>2021-05-18T08:52:40Z</time>
      </trkpt>
      <trkpt lat="41.7949930" lon="-8.8730980">
        <ele>5.5</ele>
        <time>2021-05-18T08:52:41Z</time>
      </trkpt>
      <trkpt lat="41.7950030" lon="-8.8731060">
        <ele>5.5</ele>
        <time>2021-05-18T08:52:42Z</time>
      </trkpt>
      <trkpt lat="41.7950170" lon="-8.8731130">
        <ele>5.6</ele>
        <time>2021-05-18T08:52:43Z</time>
      </trkpt>
      <trkpt lat="41.7950270" lon="-8.8731320">
        <ele>5.6</ele>
        <time>2021-05-18T08:52:44Z</time>
      </trkpt>
      <trkpt lat="41.7950310" lon="-8.8731430">
        <ele>5.6</ele>
        <time>2021-05-18T08:52:45Z</time>
      </trkpt>
      <trkpt lat="41.7950370" lon="-8.8731510">
        <ele>5.6</ele>
        <time>2021-05-18T08:52:46Z</time>
      </trkpt>
      <trkpt lat="41.7950620" lon="-8.8731690">
        <ele>5.6</ele>
        <time>2021-05-18T08:52:47Z</time>
      </trkpt>
      <trkpt lat="41.7950780" lon="-8.8731870">
        <ele>5.6</ele>
        <time>2021-05-18T08:52:48Z</time>
      </trkpt>
      <trkpt lat="41.7950890" lon="-8.8731950">
        <ele>5.6</ele>
        <time>2021-05-18T08:52:49Z</time>
      </trkpt>
      <trkpt lat="41.7950990" lon="-8.8732030">
        <ele>5.6</ele>
        <time>2021-05-18T08:52:50Z</time>
      </trkpt>
      <trkpt lat="41.7951130" lon="-8.8732160">
        <ele>5.6</ele>
        <time>2021-05-18T08:52:51Z</time>
      </trkpt>
      <trkpt lat="41.7951220" lon="-8.8732250">
        <ele>5.6</ele>
        <time>2021-05-18T08:52:52Z</time>
      </trkpt>
      <trkpt lat="41.7951430" lon="-8.8732380">
        <ele>5.6</ele>
        <time>2021-05-18T08:52:53Z</time>
      </trkpt>
      <trkpt lat="41.7951500" lon="-8.8732430">
        <ele>5.6</ele>
        <time>2021-05-18T08:52:54Z</time>
      </trkpt>
      <trkpt lat="41.7951580" lon="-8.8732490">
        <ele>5.6</ele>
        <time>2021-05-18T08:52:55Z</time>
      </trkpt>
      <trkpt lat="41.7951640" lon="-8.8732580">
        <ele>5.6</ele>
        <time>2021-05-18T08:52:56Z</time>
      </trkpt>
      <trkpt lat="41.7951750" lon="-8.8732660">
        <ele>5.6</ele>
        <time>2021-05-18T08:52:57Z</time>
      </trkpt>
      <trkpt lat="41.7951790" lon="-8.8732670">
        <ele>5.6</ele>
        <time>2021-05-18T08:52:58Z</time>
      </trkpt>
      <trkpt lat="41.7951840" lon="-8.8732670">
        <ele>5.6</ele>
        <time>2021-05-18T08:52:59Z</time>
      </trkpt>
      <trkpt lat="41.7952000" lon="-8.8732820">
        <ele>5.6</ele>
        <time>2021-05-18T08:53:00Z</time>
      </trkpt>
      <trkpt lat="41.7952070" lon="-8.8732900">
        <ele>5.6</ele>
        <time>2021-05-18T08:53:01Z</time>
      </trkpt>
      <trkpt lat="41.7952150" lon="-8.8732970">
        <ele>5.6</ele>
        <time>2021-05-18T08:53:02Z</time>
      </trkpt>
      <trkpt lat="41.7952310" lon="-8.8733190">
        <ele>5.6</ele>
        <time>2021-05-18T08:53:03Z</time>
      </trkpt>
      <trkpt lat="41.7952360" lon="-8.8733260">
        <ele>5.5</ele>
        <time>2021-05-18T08:53:04Z</time>
      </trkpt>
      <trkpt lat="41.7952420" lon="-8.8733330">
        <ele>5.5</ele>
        <time>2021-05-18T08:53:05Z</time>
      </trkpt>
      <trkpt lat="41.7952530" lon="-8.8733410">
        <ele>5.5</ele>
        <time>2021-05-18T08:53:06Z</time>
      </trkpt>
      <trkpt lat="41.7952640" lon="-8.8733510">
        <ele>5.5</ele>
        <time>2021-05-18T08:53:07Z</time>
      </trkpt>
      <trkpt lat="41.7952710" lon="-8.8733530">
        <ele>5.5</ele>
        <time>2021-05-18T08:53:08Z</time>
      </trkpt>
      <trkpt lat="41.7952740" lon="-8.8733580">
        <ele>5.5</ele>
        <time>2021-05-18T08:53:09Z</time>
      </trkpt>
      <trkpt lat="41.7952820" lon="-8.8733640">
        <ele>5.5</ele>
        <time>2021-05-18T08:53:10Z</time>
      </trkpt>
      <trkpt lat="41.7952970" lon="-8.8733710">
        <ele>5.5</ele>
        <time>2021-05-18T08:53:11Z</time>
      </trkpt>
      <trkpt lat="41.7953130" lon="-8.8733860">
        <ele>5.5</ele>
        <time>2021-05-18T08:53:12Z</time>
      </trkpt>
      <trkpt lat="41.7953190" lon="-8.8733930">
        <ele>5.5</ele>
        <time>2021-05-18T08:53:13Z</time>
      </trkpt>
      <trkpt lat="41.7953360" lon="-8.8734060">
        <ele>5.5</ele>
        <time>2021-05-18T08:53:14Z</time>
      </trkpt>
      <trkpt lat="41.7953470" lon="-8.8734180">
        <ele>5.4</ele>
        <time>2021-05-18T08:53:15Z</time>
      </trkpt>
      <trkpt lat="41.7953700" lon="-8.8734400">
        <ele>5.4</ele>
        <time>2021-05-18T08:53:16Z</time>
      </trkpt>
      <trkpt lat="41.7953800" lon="-8.8734480">
        <ele>5.4</ele>
        <time>2021-05-18T08:53:17Z</time>
      </trkpt>
      <trkpt lat="41.7953910" lon="-8.8734660">
        <ele>5.4</ele>
        <time>2021-05-18T08:53:18Z</time>
      </trkpt>
      <trkpt lat="41.7953980" lon="-8.8734820">
        <ele>5.4</ele>
        <time>2021-05-18T08:53:19Z</time>
      </trkpt>
      <trkpt lat="41.7954140" lon="-8.8734960">
        <ele>5.4</ele>
        <time>2021-05-18T08:53:20Z</time>
      </trkpt>
      <trkpt lat="41.7954220" lon="-8.8735060">
        <ele>5.4</ele>
        <time>2021-05-18T08:53:21Z</time>
      </trkpt>
      <trkpt lat="41.7954360" lon="-8.8735210">
        <ele>5.4</ele>
        <time>2021-05-18T08:53:22Z</time>
      </trkpt>
      <trkpt lat="41.7954430" lon="-8.8735330">
        <ele>5.4</ele>
        <time>2021-05-18T08:53:23Z</time>
      </trkpt>
      <trkpt lat="41.7954640" lon="-8.8735630">
        <ele>5.3</ele>
        <time>2021-05-18T08:53:24Z</time>
      </trkpt>
      <trkpt lat="41.7954700" lon="-8.8735720">
        <ele>5.3</ele>
        <time>2021-05-18T08:53:25Z</time>
      </trkpt>
      <trkpt lat="41.7954810" lon="-8.8735880">
        <ele>5.3</ele>
        <time>2021-05-18T08:53:26Z</time>
      </trkpt>
      <trkpt lat="41.7954950" lon="-8.8736040">
        <ele>5.3</ele>
        <time>2021-05-18T08:53:27Z</time>
      </trkpt>
      <trkpt lat="41.7955080" lon="-8.8736200">
        <ele>5.3</ele>
        <time>2021-05-18T08:53:28Z</time>
      </trkpt>
      <trkpt lat="41.7955180" lon="-8.8736380">
        <ele>5.3</ele>
        <time>2021-05-18T08:53:29Z</time>
      </trkpt>
      <trkpt lat="41.7955310" lon="-8.8736510">
        <ele>5.3</ele>
        <time>2021-05-18T08:53:30Z</time>
      </trkpt>
      <trkpt lat="41.7955420" lon="-8.8736630">
        <ele>5.3</ele>
        <time>2021-05-18T08:53:31Z</time>
      </trkpt>
      <trkpt lat="41.7955580" lon="-8.8736730">
        <ele>5.3</ele>
        <time>2021-05-18T08:53:32Z</time>
      </trkpt>
      <trkpt lat="41.7955680" lon="-8.8736870">
        <ele>5.4</ele>
        <time>2021-05-18T08:53:33Z</time>
      </trkpt>
      <trkpt lat="41.7955780" lon="-8.8736990">
        <ele>5.4</ele>
        <time>2021-05-18T08:53:34Z</time>
      </trkpt>
      <trkpt lat="41.7955970" lon="-8.8737000">
        <ele>5.4</ele>
        <time>2021-05-18T08:53:35Z</time>
      </trkpt>
      <trkpt lat="41.7956080" lon="-8.8737050">
        <ele>5.4</ele>
        <time>2021-05-18T08:53:36Z</time>
      </trkpt>
      <trkpt lat="41.7956160" lon="-8.8737050">
        <ele>5.4</ele>
        <time>2021-05-18T08:53:37Z</time>
      </trkpt>
      <trkpt lat="41.7956240" lon="-8.8737110">
        <ele>5.4</ele>
        <time>2021-05-18T08:53:38Z</time>
      </trkpt>
      <trkpt lat="41.7956340" lon="-8.8737210">
        <ele>5.4</ele>
        <time>2021-05-18T08:53:39Z</time>
      </trkpt>
      <trkpt lat="41.7956480" lon="-8.8737330">
        <ele>5.4</ele>
        <time>2021-05-18T08:53:40Z</time>
      </trkpt>
      <trkpt lat="41.7956590" lon="-8.8737480">
        <ele>5.5</ele>
        <time>2021-05-18T08:53:41Z</time>
      </trkpt>
      <trkpt lat="41.7956590" lon="-8.8737490">
        <ele>5.5</ele>
        <time>2021-05-18T08:53:42Z</time>
      </trkpt>
      <trkpt lat="41.7956660" lon="-8.8737570">
        <ele>5.5</ele>
        <time>2021-05-18T08:53:43Z</time>
      </trkpt>
      <trkpt lat="41.7956680" lon="-8.8737580">
        <ele>5.5</ele>
        <time>2021-05-18T08:53:44Z</time>
      </trkpt>
      <trkpt lat="41.7956640" lon="-8.8737550">
        <ele>5.5</ele>
        <time>2021-05-18T08:53:45Z</time>
      </trkpt>
      <trkpt lat="41.7956640" lon="-8.8737550">
        <ele>5.5</ele>
        <time>2021-05-18T08:53:46Z</time>
      </trkpt>
      <trkpt lat="41.7956610" lon="-8.8737550">
        <ele>5.5</ele>
        <time>2021-05-18T08:53:47Z</time>
      </trkpt>
      <trkpt lat="41.7956610" lon="-8.8737550">
        <ele>5.5</ele>
        <time>2021-05-18T08:53:48Z</time>
      </trkpt>
      <trkpt lat="41.7956580" lon="-8.8737570">
        <ele>5.5</ele>
        <time>2021-05-18T08:53:49Z</time>
      </trkpt>
      <trkpt lat="41.7956570" lon="-8.8737580">
        <ele>5.5</ele>
        <time>2021-05-18T08:53:50Z</time>
      </trkpt>
      <trkpt lat="41.7956570" lon="-8.8737600">
        <ele>5.5</ele>
        <time>2021-05-18T08:53:51Z</time>
      </trkpt>
      <trkpt lat="41.7956560" lon="-8.8737590">
        <ele>5.5</ele>
        <time>2021-05-18T08:53:52Z</time>
      </trkpt>
      <trkpt lat="41.7956580" lon="-8.8737580">
        <ele>5.5</ele>
        <time>2021-05-18T08:53:53Z</time>
      </trkpt>
      <trkpt lat="41.7956620" lon="-8.8737580">
        <ele>5.5</ele>
        <time>2021-05-18T08:53:54Z</time>
      </trkpt>
      <trkpt lat="41.7956710" lon="-8.8737620">
        <ele>5.6</ele>
        <time>2021-05-18T08:53:55Z</time>
      </trkpt>
      <trkpt lat="41.7956830" lon="-8.8737610">
        <ele>5.6</ele>
        <time>2021-05-18T08:53:56Z</time>
      </trkpt>
      <trkpt lat="41.7956990" lon="-8.8737670">
        <ele>5.6</ele>
        <time>2021-05-18T08:53:57Z</time>
      </trkpt>
      <trkpt lat="41.7957120" lon="-8.8737720">
        <ele>5.7</ele>
        <time>2021-05-18T08:53:58Z</time>
      </trkpt>
      <trkpt lat="41.7957210" lon="-8.8737780">
        <ele>5.7</ele>
        <time>2021-05-18T08:53:59Z</time>
      </trkpt>
      <trkpt lat="41.7957330" lon="-8.8737820">
        <ele>5.7</ele>
        <time>2021-05-18T08:54:00Z</time>
      </trkpt>
      <trkpt lat="41.7957550" lon="-8.8737830">
        <ele>5.8</ele>
        <time>2021-05-18T08:54:01Z</time>
      </trkpt>
      <trkpt lat="41.7957620" lon="-8.8737830">
        <ele>5.8</ele>
        <time>2021-05-18T08:54:02Z</time>
      </trkpt>
      <trkpt lat="41.7957700" lon="-8.8737840">
        <ele>5.8</ele>
        <time>2021-05-18T08:54:03Z</time>
      </trkpt>
      <trkpt lat="41.7957840" lon="-8.8737840">
        <ele>5.8</ele>
        <time>2021-05-18T08:54:04Z</time>
      </trkpt>
      <trkpt lat="41.7957970" lon="-8.8737910">
        <ele>5.9</ele>
        <time>2021-05-18T08:54:05Z</time>
      </trkpt>
      <trkpt lat="41.7958070" lon="-8.8737960">
        <ele>5.9</ele>
        <time>2021-05-18T08:54:06Z</time>
      </trkpt>
      <trkpt lat="41.7958100" lon="-8.8738020">
        <ele>5.9</ele>
        <time>2021-05-18T08:54:07Z</time>
      </trkpt>
      <trkpt lat="41.7958120" lon="-8.8738000">
        <ele>5.9</ele>
        <time>2021-05-18T08:54:08Z</time>
      </trkpt>
      <trkpt lat="41.7958100" lon="-8.8738030">
        <ele>5.9</ele>
        <time>2021-05-18T08:54:09Z</time>
      </trkpt>
      <trkpt lat="41.7958100" lon="-8.8738020">
        <ele>5.9</ele>
        <time>2021-05-18T08:54:10Z</time>
      </trkpt>
      <trkpt lat="41.7958090" lon="-8.8738020">
        <ele>5.9</ele>
        <time>2021-05-18T08:54:11Z</time>
      </trkpt>
      <trkpt lat="41.7958090" lon="-8.8738020">
        <ele>5.9</ele>
        <time>2021-05-18T08:54:12Z</time>
      </trkpt>
      <trkpt lat="41.7958080" lon="-8.8738020">
        <ele>5.9</ele>
        <time>2021-05-18T08:54:13Z</time>
      </trkpt>
      <trkpt lat="41.7958080" lon="-8.8738020">
        <ele>5.9</ele>
        <time>2021-05-18T08:54:14Z</time>
      </trkpt>
      <trkpt lat="41.7958090" lon="-8.8738020">
        <ele>5.9</ele>
        <time>2021-05-18T08:54:15Z</time>
      </trkpt>
      <trkpt lat="41.7958090" lon="-8.8738010">
        <ele>5.9</ele>
        <time>2021-05-18T08:54:16Z</time>
      </trkpt>
      <trkpt lat="41.7958090" lon="-8.8738010">
        <ele>5.9</ele>
        <time>2021-05-18T08:54:17Z</time>
      </trkpt>
      <trkpt lat="41.7958110" lon="-8.8738010">
        <ele>5.9</ele>
        <time>2021-05-18T08:54:18Z</time>
      </trkpt>
      <trkpt lat="41.7958110" lon="-8.8738010">
        <ele>5.9</ele>
        <time>2021-05-18T08:54:19Z</time>
      </trkpt>
      <trkpt lat="41.7958090" lon="-8.8737980">
        <ele>5.9</ele>
        <time>2021-05-18T08:54:20Z</time>
      </trkpt>
      <trkpt lat="41.7958090" lon="-8.8737980">
        <ele>5.9</ele>
        <time>2021-05-18T08:54:21Z</time>
      </trkpt>
      <trkpt lat="41.7958110" lon="-8.8737950">
        <ele>5.9</ele>
        <time>2021-05-18T08:54:22Z</time>
      </trkpt>
      <trkpt lat="41.7958120" lon="-8.8737960">
        <ele>5.9</ele>
        <time>2021-05-18T08:54:23Z</time>
      </trkpt>
      <trkpt lat="41.7958120" lon="-8.8737960">
        <ele>5.9</ele>
        <time>2021-05-18T08:54:24Z</time>
      </trkpt>
      <trkpt lat="41.7958120" lon="-8.8737950">
        <ele>5.9</ele>
        <time>2021-05-18T08:54:25Z</time>
      </trkpt>
      <trkpt lat="41.7958120" lon="-8.8737950">
        <ele>5.9</ele>
        <time>2021-05-18T08:54:26Z</time>
      </trkpt>
      <trkpt lat="41.7958120" lon="-8.8737950">
        <ele>5.9</ele>
        <time>2021-05-18T08:54:27Z</time>
      </trkpt>
      <trkpt lat="41.7958120" lon="-8.8737910">
        <ele>5.9</ele>
        <time>2021-05-18T08:54:28Z</time>
      </trkpt>
      <trkpt lat="41.7958120" lon="-8.8737910">
        <ele>5.9</ele>
        <time>2021-05-18T08:54:29Z</time>
      </trkpt>
      <trkpt lat="41.7958120" lon="-8.8737910">
        <ele>5.9</ele>
        <time>2021-05-18T08:54:30Z</time>
      </trkpt>
      <trkpt lat="41.7958120" lon="-8.8737910">
        <ele>5.9</ele>
        <time>2021-05-18T08:54:31Z</time>
      </trkpt>
      <trkpt lat="41.7958100" lon="-8.8737930">
        <ele>5.9</ele>
        <time>2021-05-18T08:54:32Z</time>
      </trkpt>
      <trkpt lat="41.7958090" lon="-8.8737930">
        <ele>5.9</ele>
        <time>2021-05-18T08:54:33Z</time>
      </trkpt>
      <trkpt lat="41.7958100" lon="-8.8737920">
        <ele>5.9</ele>
        <time>2021-05-18T08:54:34Z</time>
      </trkpt>
      <trkpt lat="41.7958090" lon="-8.8737930">
        <ele>5.9</ele>
        <time>2021-05-18T08:54:35Z</time>
      </trkpt>
      <trkpt lat="41.7958120" lon="-8.8737920">
        <ele>6.0</ele>
        <time>2021-05-18T08:54:36Z</time>
      </trkpt>
      <trkpt lat="41.7958140" lon="-8.8737960">
        <ele>6.0</ele>
        <time>2021-05-18T08:54:37Z</time>
      </trkpt>
      <trkpt lat="41.7958280" lon="-8.8737940">
        <ele>6.0</ele>
        <time>2021-05-18T08:54:38Z</time>
      </trkpt>
      <trkpt lat="41.7958410" lon="-8.8737830">
        <ele>6.0</ele>
        <time>2021-05-18T08:54:39Z</time>
      </trkpt>
      <trkpt lat="41.7958530" lon="-8.8737820">
        <ele>6.0</ele>
        <time>2021-05-18T08:54:40Z</time>
      </trkpt>
      <trkpt lat="41.7958640" lon="-8.8737720">
        <ele>6.1</ele>
        <time>2021-05-18T08:54:41Z</time>
      </trkpt>
      <trkpt lat="41.7958790" lon="-8.8737670">
        <ele>6.1</ele>
        <time>2021-05-18T08:54:42Z</time>
      </trkpt>
      <trkpt lat="41.7958890" lon="-8.8737570">
        <ele>6.1</ele>
        <time>2021-05-18T08:54:43Z</time>
      </trkpt>
      <trkpt lat="41.7959040" lon="-8.8737480">
        <ele>6.1</ele>
        <time>2021-05-18T08:54:44Z</time>
      </trkpt>
      <trkpt lat="41.7959170" lon="-8.8737380">
        <ele>6.1</ele>
        <time>2021-05-18T08:54:45Z</time>
      </trkpt>
      <trkpt lat="41.7959310" lon="-8.8737320">
        <ele>6.1</ele>
        <time>2021-05-18T08:54:46Z</time>
      </trkpt>
      <trkpt lat="41.7959510" lon="-8.8737270">
        <ele>6.1</ele>
        <time>2021-05-18T08:54:47Z</time>
      </trkpt>
      <trkpt lat="41.7959600" lon="-8.8737280">
        <ele>6.1</ele>
        <time>2021-05-18T08:54:48Z</time>
      </trkpt>
      <trkpt lat="41.7959700" lon="-8.8737280">
        <ele>6.1</ele>
        <time>2021-05-18T08:54:49Z</time>
      </trkpt>
      <trkpt lat="41.7959830" lon="-8.8737360">
        <ele>6.1</ele>
        <time>2021-05-18T08:54:50Z</time>
      </trkpt>
      <trkpt lat="41.7959940" lon="-8.8737470">
        <ele>6.2</ele>
        <time>2021-05-18T08:54:51Z</time>
      </trkpt>
      <trkpt lat="41.7960050" lon="-8.8737560">
        <ele>6.2</ele>
        <time>2021-05-18T08:54:52Z</time>
      </trkpt>
      <trkpt lat="41.7960130" lon="-8.8737640">
        <ele>6.2</ele>
        <time>2021-05-18T08:54:53Z</time>
      </trkpt>
      <trkpt lat="41.7960230" lon="-8.8737690">
        <ele>6.2</ele>
        <time>2021-05-18T08:54:54Z</time>
      </trkpt>
      <trkpt lat="41.7960330" lon="-8.8737760">
        <ele>6.2</ele>
        <time>2021-05-18T08:54:55Z</time>
      </trkpt>
      <trkpt lat="41.7960440" lon="-8.8737820">
        <ele>6.2</ele>
        <time>2021-05-18T08:54:56Z</time>
      </trkpt>
      <trkpt lat="41.7960520" lon="-8.8737850">
        <ele>6.2</ele>
        <time>2021-05-18T08:54:57Z</time>
      </trkpt>
      <trkpt lat="41.7960560" lon="-8.8737850">
        <ele>6.2</ele>
        <time>2021-05-18T08:54:58Z</time>
      </trkpt>
      <trkpt lat="41.7960620" lon="-8.8737820">
        <ele>6.2</ele>
        <time>2021-05-18T08:54:59Z</time>
      </trkpt>
      <trkpt lat="41.7960690" lon="-8.8737780">
        <ele>6.2</ele>
        <time>2021-05-18T08:55:00Z</time>
      </trkpt>
      <trkpt lat="41.7960770" lon="-8.8737780">
        <ele>6.2</ele>
        <time>2021-05-18T08:55:01Z</time>
      </trkpt>
      <trkpt lat="41.7960780" lon="-8.8737770">
        <ele>6.2</ele>
        <time>2021-05-18T08:55:02Z</time>
      </trkpt>
      <trkpt lat="41.7960740" lon="-8.8737770">
        <ele>6.2</ele>
        <time>2021-05-18T08:55:03Z</time>
      </trkpt>
      <trkpt lat="41.7960730" lon="-8.8737750">
        <ele>6.2</ele>
        <time>2021-05-18T08:55:04Z</time>
      </trkpt>
      <trkpt lat="41.7960720" lon="-8.8737760">
        <ele>6.2</ele>
        <time>2021-05-18T08:55:05Z</time>
      </trkpt>
      <trkpt lat="41.7960710" lon="-8.8737740">
        <ele>6.2</ele>
        <time>2021-05-18T08:55:06Z</time>
      </trkpt>
      <trkpt lat="41.7960700" lon="-8.8737740">
        <ele>6.2</ele>
        <time>2021-05-18T08:55:07Z</time>
      </trkpt>
      <trkpt lat="41.7960700" lon="-8.8737740">
        <ele>6.2</ele>
        <time>2021-05-18T08:55:08Z</time>
      </trkpt>
      <trkpt lat="41.7960700" lon="-8.8737730">
        <ele>6.2</ele>
        <time>2021-05-18T08:55:09Z</time>
      </trkpt>
      <trkpt lat="41.7960700" lon="-8.8737720">
        <ele>6.2</ele>
        <time>2021-05-18T08:55:10Z</time>
      </trkpt>
      <trkpt lat="41.7960700" lon="-8.8737720">
        <ele>6.2</ele>
        <time>2021-05-18T08:55:11Z</time>
      </trkpt>
      <trkpt lat="41.7960690" lon="-8.8737690">
        <ele>6.2</ele>
        <time>2021-05-18T08:55:12Z</time>
      </trkpt>
      <trkpt lat="41.7960680" lon="-8.8737630">
        <ele>6.2</ele>
        <time>2021-05-18T08:55:13Z</time>
      </trkpt>
      <trkpt lat="41.7960710" lon="-8.8737590">
        <ele>6.2</ele>
        <time>2021-05-18T08:55:14Z</time>
      </trkpt>
      <trkpt lat="41.7960720" lon="-8.8737510">
        <ele>6.2</ele>
        <time>2021-05-18T08:55:15Z</time>
      </trkpt>
      <trkpt lat="41.7960640" lon="-8.8737430">
        <ele>6.2</ele>
        <time>2021-05-18T08:55:16Z</time>
      </trkpt>
      <trkpt lat="41.7960590" lon="-8.8737320">
        <ele>6.2</ele>
        <time>2021-05-18T08:55:17Z</time>
      </trkpt>
      <trkpt lat="41.7960550" lon="-8.8737190">
        <ele>6.3</ele>
        <time>2021-05-18T08:55:18Z</time>
      </trkpt>
      <trkpt lat="41.7960510" lon="-8.8736880">
        <ele>6.3</ele>
        <time>2021-05-18T08:55:19Z</time>
      </trkpt>
      <trkpt lat="41.7960480" lon="-8.8736710">
        <ele>6.3</ele>
        <time>2021-05-18T08:55:20Z</time>
      </trkpt>
      <trkpt lat="41.7960520" lon="-8.8736420">
        <ele>6.3</ele>
        <time>2021-05-18T08:55:21Z</time>
      </trkpt>
      <trkpt lat="41.7960540" lon="-8.8736320">
        <ele>6.3</ele>
        <time>2021-05-18T08:55:22Z</time>
      </trkpt>
      <trkpt lat="41.7960570" lon="-8.8736220">
        <ele>6.4</ele>
        <time>2021-05-18T08:55:23Z</time>
      </trkpt>
      <trkpt lat="41.7960690" lon="-8.8736000">
        <ele>6.4</ele>
        <time>2021-05-18T08:55:24Z</time>
      </trkpt>
      <trkpt lat="41.7960760" lon="-8.8735910">
        <ele>6.4</ele>
        <time>2021-05-18T08:55:25Z</time>
      </trkpt>
      <trkpt lat="41.7960820" lon="-8.8735810">
        <ele>6.4</ele>
        <time>2021-05-18T08:55:26Z</time>
      </trkpt>
      <trkpt lat="41.7960900" lon="-8.8735660">
        <ele>6.4</ele>
        <time>2021-05-18T08:55:27Z</time>
      </trkpt>
      <trkpt lat="41.7961020" lon="-8.8735490">
        <ele>6.5</ele>
        <time>2021-05-18T08:55:28Z</time>
      </trkpt>
      <trkpt lat="41.7961110" lon="-8.8735400">
        <ele>6.5</ele>
        <time>2021-05-18T08:55:29Z</time>
      </trkpt>
      <trkpt lat="41.7961200" lon="-8.8735310">
        <ele>6.5</ele>
        <time>2021-05-18T08:55:30Z</time>
      </trkpt>
      <trkpt lat="41.7961260" lon="-8.8735160">
        <ele>6.5</ele>
        <time>2021-05-18T08:55:31Z</time>
      </trkpt>
      <trkpt lat="41.7961320" lon="-8.8734960">
        <ele>6.6</ele>
        <time>2021-05-18T08:55:32Z</time>
      </trkpt>
      <trkpt lat="41.7961360" lon="-8.8734780">
        <ele>6.6</ele>
        <time>2021-05-18T08:55:33Z</time>
      </trkpt>
      <trkpt lat="41.7961430" lon="-8.8734510">
        <ele>6.6</ele>
        <time>2021-05-18T08:55:34Z</time>
      </trkpt>
      <trkpt lat="41.7961470" lon="-8.8734420">
        <ele>6.6</ele>
        <time>2021-05-18T08:55:35Z</time>
      </trkpt>
      <trkpt lat="41.7961520" lon="-8.8734320">
        <ele>6.7</ele>
        <time>2021-05-18T08:55:36Z</time>
      </trkpt>
      <trkpt lat="41.7961620" lon="-8.8734200">
        <ele>6.7</ele>
        <time>2021-05-18T08:55:37Z</time>
      </trkpt>
      <trkpt lat="41.7961720" lon="-8.8734050">
        <ele>6.7</ele>
        <time>2021-05-18T08:55:38Z</time>
      </trkpt>
      <trkpt lat="41.7961860" lon="-8.8733810">
        <ele>6.8</ele>
        <time>2021-05-18T08:55:39Z</time>
      </trkpt>
      <trkpt lat="41.7961910" lon="-8.8733710">
        <ele>6.8</ele>
        <time>2021-05-18T08:55:40Z</time>
      </trkpt>
      <trkpt lat="41.7961960" lon="-8.8733600">
        <ele>6.8</ele>
        <time>2021-05-18T08:55:41Z</time>
      </trkpt>
      <trkpt lat="41.7961990" lon="-8.8733510">
        <ele>6.8</ele>
        <time>2021-05-18T08:55:42Z</time>
      </trkpt>
      <trkpt lat="41.7962080" lon="-8.8733410">
        <ele>6.8</ele>
        <time>2021-05-18T08:55:43Z</time>
      </trkpt>
      <trkpt lat="41.7962160" lon="-8.8733310">
        <ele>6.8</ele>
        <time>2021-05-18T08:55:44Z</time>
      </trkpt>
      <trkpt lat="41.7962260" lon="-8.8733190">
        <ele>6.9</ele>
        <time>2021-05-18T08:55:45Z</time>
      </trkpt>
      <trkpt lat="41.7962390" lon="-8.8733040">
        <ele>6.9</ele>
        <time>2021-05-18T08:55:46Z</time>
      </trkpt>
      <trkpt lat="41.7962520" lon="-8.8732960">
        <ele>6.9</ele>
        <time>2021-05-18T08:55:47Z</time>
      </trkpt>
      <trkpt lat="41.7962670" lon="-8.8732810">
        <ele>6.9</ele>
        <time>2021-05-18T08:55:48Z</time>
      </trkpt>
      <trkpt lat="41.7962800" lon="-8.8732740">
        <ele>6.9</ele>
        <time>2021-05-18T08:55:49Z</time>
      </trkpt>
      <trkpt lat="41.7962920" lon="-8.8732590">
        <ele>6.9</ele>
        <time>2021-05-18T08:55:50Z</time>
      </trkpt>
      <trkpt lat="41.7963040" lon="-8.8732450">
        <ele>7.0</ele>
        <time>2021-05-18T08:55:51Z</time>
      </trkpt>
      <trkpt lat="41.7963180" lon="-8.8732300">
        <ele>7.0</ele>
        <time>2021-05-18T08:55:52Z</time>
      </trkpt>
      <trkpt lat="41.7963310" lon="-8.8732220">
        <ele>7.0</ele>
        <time>2021-05-18T08:55:53Z</time>
      </trkpt>
      <trkpt lat="41.7963410" lon="-8.8732050">
        <ele>7.0</ele>
        <time>2021-05-18T08:55:54Z</time>
      </trkpt>
      <trkpt lat="41.7963510" lon="-8.8731920">
        <ele>7.0</ele>
        <time>2021-05-18T08:55:55Z</time>
      </trkpt>
      <trkpt lat="41.7963610" lon="-8.8731760">
        <ele>7.0</ele>
        <time>2021-05-18T08:55:56Z</time>
      </trkpt>
      <trkpt lat="41.7963720" lon="-8.8731620">
        <ele>7.0</ele>
        <time>2021-05-18T08:55:57Z</time>
      </trkpt>
      <trkpt lat="41.7963850" lon="-8.8731510">
        <ele>7.0</ele>
        <time>2021-05-18T08:55:58Z</time>
      </trkpt>
      <trkpt lat="41.7963920" lon="-8.8731320">
        <ele>7.0</ele>
        <time>2021-05-18T08:55:59Z</time>
      </trkpt>
      <trkpt lat="41.7963960" lon="-8.8731130">
        <ele>7.0</ele>
        <time>2021-05-18T08:56:00Z</time>
      </trkpt>
      <trkpt lat="41.7964060" lon="-8.8730980">
        <ele>7.1</ele>
        <time>2021-05-18T08:56:01Z</time>
      </trkpt>
      <trkpt lat="41.7964170" lon="-8.8730830">
        <ele>7.1</ele>
        <time>2021-05-18T08:56:02Z</time>
      </trkpt>
      <trkpt lat="41.7964260" lon="-8.8730650">
        <ele>7.1</ele>
        <time>2021-05-18T08:56:03Z</time>
      </trkpt>
      <trkpt lat="41.7964380" lon="-8.8730500">
        <ele>7.1</ele>
        <time>2021-05-18T08:56:04Z</time>
      </trkpt>
      <trkpt lat="41.7964510" lon="-8.8730390">
        <ele>7.1</ele>
        <time>2021-05-18T08:56:05Z</time>
      </trkpt>
      <trkpt lat="41.7964660" lon="-8.8730350">
        <ele>7.1</ele>
        <time>2021-05-18T08:56:06Z</time>
      </trkpt>
      <trkpt lat="41.7964810" lon="-8.8730250">
        <ele>7.1</ele>
        <time>2021-05-18T08:56:07Z</time>
      </trkpt>
      <trkpt lat="41.7964950" lon="-8.8730120">
        <ele>7.1</ele>
        <time>2021-05-18T08:56:08Z</time>
      </trkpt>
      <trkpt lat="41.7965110" lon="-8.8730070">
        <ele>7.1</ele>
        <time>2021-05-18T08:56:09Z</time>
      </trkpt>
      <trkpt lat="41.7965260" lon="-8.8729970">
        <ele>7.1</ele>
        <time>2021-05-18T08:56:10Z</time>
      </trkpt>
      <trkpt lat="41.7965400" lon="-8.8729880">
        <ele>7.1</ele>
        <time>2021-05-18T08:56:11Z</time>
      </trkpt>
      <trkpt lat="41.7965550" lon="-8.8729790">
        <ele>7.1</ele>
        <time>2021-05-18T08:56:12Z</time>
      </trkpt>
      <trkpt lat="41.7965680" lon="-8.8729710">
        <ele>7.1</ele>
        <time>2021-05-18T08:56:13Z</time>
      </trkpt>
      <trkpt lat="41.7965830" lon="-8.8729640">
        <ele>7.1</ele>
        <time>2021-05-18T08:56:14Z</time>
      </trkpt>
      <trkpt lat="41.7965960" lon="-8.8729540">
        <ele>7.1</ele>
        <time>2021-05-18T08:56:15Z</time>
      </trkpt>
      <trkpt lat="41.7966130" lon="-8.8729540">
        <ele>7.1</ele>
        <time>2021-05-18T08:56:16Z</time>
      </trkpt>
      <trkpt lat="41.7966270" lon="-8.8729500">
        <ele>7.1</ele>
        <time>2021-05-18T08:56:17Z</time>
      </trkpt>
      <trkpt lat="41.7966410" lon="-8.8729500">
        <ele>7.1</ele>
        <time>2021-05-18T08:56:18Z</time>
      </trkpt>
      <trkpt lat="41.7966570" lon="-8.8729520">
        <ele>7.1</ele>
        <time>2021-05-18T08:56:19Z</time>
      </trkpt>
      <trkpt lat="41.7966720" lon="-8.8729490">
        <ele>7.1</ele>
        <time>2021-05-18T08:56:20Z</time>
      </trkpt>
      <trkpt lat="41.7966880" lon="-8.8729510">
        <ele>7.1</ele>
        <time>2021-05-18T08:56:21Z</time>
      </trkpt>
      <trkpt lat="41.7967030" lon="-8.8729370">
        <ele>7.1</ele>
        <time>2021-05-18T08:56:22Z</time>
      </trkpt>
      <trkpt lat="41.7967170" lon="-8.8729320">
        <ele>7.1</ele>
        <time>2021-05-18T08:56:23Z</time>
      </trkpt>
      <trkpt lat="41.7967300" lon="-8.8729220">
        <ele>7.1</ele>
        <time>2021-05-18T08:56:24Z</time>
      </trkpt>
      <trkpt lat="41.7967520" lon="-8.8729160">
        <ele>7.1</ele>
        <time>2021-05-18T08:56:25Z</time>
      </trkpt>
      <trkpt lat="41.7967610" lon="-8.8729150">
        <ele>7.1</ele>
        <time>2021-05-18T08:56:26Z</time>
      </trkpt>
      <trkpt lat="41.7967700" lon="-8.8729150">
        <ele>7.1</ele>
        <time>2021-05-18T08:56:27Z</time>
      </trkpt>
      <trkpt lat="41.7967830" lon="-8.8729120">
        <ele>7.2</ele>
        <time>2021-05-18T08:56:28Z</time>
      </trkpt>
      <trkpt lat="41.7967970" lon="-8.8729100">
        <ele>7.2</ele>
        <time>2021-05-18T08:56:29Z</time>
      </trkpt>
      <trkpt lat="41.7968040" lon="-8.8729160">
        <ele>7.2</ele>
        <time>2021-05-18T08:56:30Z</time>
      </trkpt>
      <trkpt lat="41.7968150" lon="-8.8729250">
        <ele>7.2</ele>
        <time>2021-05-18T08:56:31Z</time>
      </trkpt>
      <trkpt lat="41.7968260" lon="-8.8729220">
        <ele>7.2</ele>
        <time>2021-05-18T08:56:32Z</time>
      </trkpt>
      <trkpt lat="41.7968390" lon="-8.8729140">
        <ele>7.2</ele>
        <time>2021-05-18T08:56:33Z</time>
      </trkpt>
      <trkpt lat="41.7968520" lon="-8.8729040">
        <ele>7.2</ele>
        <time>2021-05-18T08:56:34Z</time>
      </trkpt>
      <trkpt lat="41.7968630" lon="-8.8728980">
        <ele>7.2</ele>
        <time>2021-05-18T08:56:35Z</time>
      </trkpt>
      <trkpt lat="41.7968750" lon="-8.8728900">
        <ele>7.2</ele>
        <time>2021-05-18T08:56:36Z</time>
      </trkpt>
      <trkpt lat="41.7968880" lon="-8.8728920">
        <ele>7.3</ele>
        <time>2021-05-18T08:56:37Z</time>
      </trkpt>
      <trkpt lat="41.7968970" lon="-8.8728950">
        <ele>7.3</ele>
        <time>2021-05-18T08:56:38Z</time>
      </trkpt>
      <trkpt lat="41.7969080" lon="-8.8729020">
        <ele>7.3</ele>
        <time>2021-05-18T08:56:39Z</time>
      </trkpt>
      <trkpt lat="41.7969170" lon="-8.8729010">
        <ele>7.3</ele>
        <time>2021-05-18T08:56:40Z</time>
      </trkpt>
      <trkpt lat="41.7969280" lon="-8.8729070">
        <ele>7.3</ele>
        <time>2021-05-18T08:56:41Z</time>
      </trkpt>
      <trkpt lat="41.7969380" lon="-8.8729130">
        <ele>7.3</ele>
        <time>2021-05-18T08:56:42Z</time>
      </trkpt>
      <trkpt lat="41.7969500" lon="-8.8729160">
        <ele>7.4</ele>
        <time>2021-05-18T08:56:43Z</time>
      </trkpt>
      <trkpt lat="41.7969610" lon="-8.8729190">
        <ele>7.4</ele>
        <time>2021-05-18T08:56:44Z</time>
      </trkpt>
      <trkpt lat="41.7969710" lon="-8.8729270">
        <ele>7.4</ele>
        <time>2021-05-18T08:56:45Z</time>
      </trkpt>
      <trkpt lat="41.7969820" lon="-8.8729280">
        <ele>7.4</ele>
        <time>2021-05-18T08:56:46Z</time>
      </trkpt>
      <trkpt lat="41.7969950" lon="-8.8729280">
        <ele>7.4</ele>
        <time>2021-05-18T08:56:47Z</time>
      </trkpt>
      <trkpt lat="41.7970050" lon="-8.8729370">
        <ele>7.4</ele>
        <time>2021-05-18T08:56:48Z</time>
      </trkpt>
      <trkpt lat="41.7970140" lon="-8.8729490">
        <ele>7.4</ele>
        <time>2021-05-18T08:56:49Z</time>
      </trkpt>
      <trkpt lat="41.7970230" lon="-8.8729570">
        <ele>7.4</ele>
        <time>2021-05-18T08:56:50Z</time>
      </trkpt>
      <trkpt lat="41.7970320" lon="-8.8729660">
        <ele>7.4</ele>
        <time>2021-05-18T08:56:51Z</time>
      </trkpt>
      <trkpt lat="41.7970390" lon="-8.8729790">
        <ele>7.4</ele>
        <time>2021-05-18T08:56:52Z</time>
      </trkpt>
      <trkpt lat="41.7970490" lon="-8.8729850">
        <ele>7.4</ele>
        <time>2021-05-18T08:56:53Z</time>
      </trkpt>
      <trkpt lat="41.7970650" lon="-8.8730010">
        <ele>7.5</ele>
        <time>2021-05-18T08:56:54Z</time>
      </trkpt>
      <trkpt lat="41.7970710" lon="-8.8730080">
        <ele>7.5</ele>
        <time>2021-05-18T08:56:55Z</time>
      </trkpt>
      <trkpt lat="41.7970780" lon="-8.8730140">
        <ele>7.5</ele>
        <time>2021-05-18T08:56:56Z</time>
      </trkpt>
      <trkpt lat="41.7970880" lon="-8.8730210">
        <ele>7.5</ele>
        <time>2021-05-18T08:56:57Z</time>
      </trkpt>
      <trkpt lat="41.7971000" lon="-8.8730270">
        <ele>7.5</ele>
        <time>2021-05-18T08:56:58Z</time>
      </trkpt>
      <trkpt lat="41.7971110" lon="-8.8730330">
        <ele>7.5</ele>
        <time>2021-05-18T08:56:59Z</time>
      </trkpt>
      <trkpt lat="41.7971310" lon="-8.8730440">
        <ele>7.5</ele>
        <time>2021-05-18T08:57:00Z</time>
      </trkpt>
      <trkpt lat="41.7971380" lon="-8.8730480">
        <ele>7.5</ele>
        <time>2021-05-18T08:57:01Z</time>
      </trkpt>
      <trkpt lat="41.7971460" lon="-8.8730520">
        <ele>7.5</ele>
        <time>2021-05-18T08:57:02Z</time>
      </trkpt>
      <trkpt lat="41.7971660" lon="-8.8730590">
        <ele>7.6</ele>
        <time>2021-05-18T08:57:03Z</time>
      </trkpt>
      <trkpt lat="41.7971760" lon="-8.8730560">
        <ele>7.6</ele>
        <time>2021-05-18T08:57:04Z</time>
      </trkpt>
      <trkpt lat="41.7971850" lon="-8.8730540">
        <ele>7.6</ele>
        <time>2021-05-18T08:57:05Z</time>
      </trkpt>
      <trkpt lat="41.7972070" lon="-8.8730550">
        <ele>7.6</ele>
        <time>2021-05-18T08:57:06Z</time>
      </trkpt>
      <trkpt lat="41.7972140" lon="-8.8730570">
        <ele>7.6</ele>
        <time>2021-05-18T08:57:07Z</time>
      </trkpt>
      <trkpt lat="41.7972220" lon="-8.8730600">
        <ele>7.6</ele>
        <time>2021-05-18T08:57:08Z</time>
      </trkpt>
      <trkpt lat="41.7972380" lon="-8.8730580">
        <ele>7.6</ele>
        <time>2021-05-18T08:57:09Z</time>
      </trkpt>
      <trkpt lat="41.7972510" lon="-8.8730590">
        <ele>7.6</ele>
        <time>2021-05-18T08:57:10Z</time>
      </trkpt>
      <trkpt lat="41.7972640" lon="-8.8730560">
        <ele>7.6</ele>
        <time>2021-05-18T08:57:11Z</time>
      </trkpt>
      <trkpt lat="41.7972780" lon="-8.8730520">
        <ele>7.7</ele>
        <time>2021-05-18T08:57:12Z</time>
      </trkpt>
      <trkpt lat="41.7972920" lon="-8.8730520">
        <ele>7.7</ele>
        <time>2021-05-18T08:57:13Z</time>
      </trkpt>
      <trkpt lat="41.7973060" lon="-8.8730530">
        <ele>7.7</ele>
        <time>2021-05-18T08:57:14Z</time>
      </trkpt>
      <trkpt lat="41.7973270" lon="-8.8730630">
        <ele>7.7</ele>
        <time>2021-05-18T08:57:15Z</time>
      </trkpt>
      <trkpt lat="41.7973350" lon="-8.8730660">
        <ele>7.7</ele>
        <time>2021-05-18T08:57:16Z</time>
      </trkpt>
      <trkpt lat="41.7973440" lon="-8.8730690">
        <ele>7.7</ele>
        <time>2021-05-18T08:57:17Z</time>
      </trkpt>
      <trkpt lat="41.7973650" lon="-8.8730790">
        <ele>7.8</ele>
        <time>2021-05-18T08:57:18Z</time>
      </trkpt>
      <trkpt lat="41.7973720" lon="-8.8730830">
        <ele>7.8</ele>
        <time>2021-05-18T08:57:19Z</time>
      </trkpt>
      <trkpt lat="41.7973800" lon="-8.8730860">
        <ele>7.8</ele>
        <time>2021-05-18T08:57:20Z</time>
      </trkpt>
      <trkpt lat="41.7973930" lon="-8.8730910">
        <ele>7.8</ele>
        <time>2021-05-18T08:57:21Z</time>
      </trkpt>
      <trkpt lat="41.7974040" lon="-8.8730890">
        <ele>7.9</ele>
        <time>2021-05-18T08:57:22Z</time>
      </trkpt>
      <trkpt lat="41.7974150" lon="-8.8730880">
        <ele>7.9</ele>
        <time>2021-05-18T08:57:23Z</time>
      </trkpt>
      <trkpt lat="41.7974270" lon="-8.8730790">
        <ele>7.9</ele>
        <time>2021-05-18T08:57:24Z</time>
      </trkpt>
      <trkpt lat="41.7974390" lon="-8.8730620">
        <ele>8.0</ele>
        <time>2021-05-18T08:57:25Z</time>
      </trkpt>
      <trkpt lat="41.7974470" lon="-8.8730460">
        <ele>8.0</ele>
        <time>2021-05-18T08:57:26Z</time>
      </trkpt>
      <trkpt lat="41.7974570" lon="-8.8730280">
        <ele>8.1</ele>
        <time>2021-05-18T08:57:27Z</time>
      </trkpt>
      <trkpt lat="41.7974640" lon="-8.8730140">
        <ele>8.1</ele>
        <time>2021-05-18T08:57:28Z</time>
      </trkpt>
      <trkpt lat="41.7974750" lon="-8.8729990">
        <ele>8.2</ele>
        <time>2021-05-18T08:57:29Z</time>
      </trkpt>
      <trkpt lat="41.7974790" lon="-8.8730000">
        <ele>8.2</ele>
        <time>2021-05-18T08:57:30Z</time>
      </trkpt>
      <trkpt lat="41.7974850" lon="-8.8729850">
        <ele>8.2</ele>
        <time>2021-05-18T08:57:31Z</time>
      </trkpt>
      <trkpt lat="41.7974950" lon="-8.8729700">
        <ele>8.3</ele>
        <time>2021-05-18T08:57:32Z</time>
      </trkpt>
      <trkpt lat="41.7975090" lon="-8.8729500">
        <ele>8.3</ele>
        <time>2021-05-18T08:57:33Z</time>
      </trkpt>
      <trkpt lat="41.7975160" lon="-8.8729450">
        <ele>8.4</ele>
        <time>2021-05-18T08:57:34Z</time>
      </trkpt>
      <trkpt lat="41.7975240" lon="-8.8729390">
        <ele>8.4</ele>
        <time>2021-05-18T08:57:35Z</time>
      </trkpt>
      <trkpt lat="41.7975320" lon="-8.8729300">
        <ele>8.4</ele>
        <time>2021-05-18T08:57:36Z</time>
      </trkpt>
      <trkpt lat="41.7975480" lon="-8.8729250">
        <ele>8.5</ele>
        <time>2021-05-18T08:57:37Z</time>
      </trkpt>
      <trkpt lat="41.7975560" lon="-8.8729180">
        <ele>8.5</ele>
        <time>2021-05-18T08:57:38Z</time>
      </trkpt>
      <trkpt lat="41.7975650" lon="-8.8729040">
        <ele>8.5</ele>
        <time>2021-05-18T08:57:39Z</time>
      </trkpt>
      <trkpt lat="41.7975800" lon="-8.8728960">
        <ele>8.6</ele>
        <time>2021-05-18T08:57:40Z</time>
      </trkpt>
      <trkpt lat="41.7975960" lon="-8.8728780">
        <ele>8.7</ele>
        <time>2021-05-18T08:57:41Z</time>
      </trkpt>
      <trkpt lat="41.7976030" lon="-8.8728730">
        <ele>8.7</ele>
        <time>2021-05-18T08:57:42Z</time>
      </trkpt>
      <trkpt lat="41.7976100" lon="-8.8728670">
        <ele>8.7</ele>
        <time>2021-05-18T08:57:43Z</time>
      </trkpt>
      <trkpt lat="41.7976230" lon="-8.8728590">
        <ele>8.8</ele>
        <time>2021-05-18T08:57:44Z</time>
      </trkpt>
      <trkpt lat="41.7976350" lon="-8.8728510">
        <ele>8.8</ele>
        <time>2021-05-18T08:57:45Z</time>
      </trkpt>
      <trkpt lat="41.7976470" lon="-8.8728410">
        <ele>8.8</ele>
        <time>2021-05-18T08:57:46Z</time>
      </trkpt>
      <trkpt lat="41.7976590" lon="-8.8728340">
        <ele>8.9</ele>
        <time>2021-05-18T08:57:47Z</time>
      </trkpt>
      <trkpt lat="41.7976720" lon="-8.8728240">
        <ele>8.9</ele>
        <time>2021-05-18T08:57:48Z</time>
      </trkpt>
      <trkpt lat="41.7976840" lon="-8.8728140">
        <ele>9.0</ele>
        <time>2021-05-18T08:57:49Z</time>
      </trkpt>
      <trkpt lat="41.7976960" lon="-8.8728020">
        <ele>9.0</ele>
        <time>2021-05-18T08:57:50Z</time>
      </trkpt>
      <trkpt lat="41.7977080" lon="-8.8727930">
        <ele>9.1</ele>
        <time>2021-05-18T08:57:51Z</time>
      </trkpt>
      <trkpt lat="41.7977210" lon="-8.8727820">
        <ele>9.1</ele>
        <time>2021-05-18T08:57:52Z</time>
      </trkpt>
      <trkpt lat="41.7977320" lon="-8.8727700">
        <ele>9.1</ele>
        <time>2021-05-18T08:57:53Z</time>
      </trkpt>
      <trkpt lat="41.7977430" lon="-8.8727560">
        <ele>9.2</ele>
        <time>2021-05-18T08:57:54Z</time>
      </trkpt>
      <trkpt lat="41.7977560" lon="-8.8727460">
        <ele>9.2</ele>
        <time>2021-05-18T08:57:55Z</time>
      </trkpt>
      <trkpt lat="41.7977660" lon="-8.8727310">
        <ele>9.2</ele>
        <time>2021-05-18T08:57:56Z</time>
      </trkpt>
      <trkpt lat="41.7977790" lon="-8.8727250">
        <ele>9.3</ele>
        <time>2021-05-18T08:57:57Z</time>
      </trkpt>
      <trkpt lat="41.7977900" lon="-8.8727140">
        <ele>9.3</ele>
        <time>2021-05-18T08:57:58Z</time>
      </trkpt>
      <trkpt lat="41.7978020" lon="-8.8727050">
        <ele>9.3</ele>
        <time>2021-05-18T08:57:59Z</time>
      </trkpt>
      <trkpt lat="41.7978190" lon="-8.8726840">
        <ele>9.3</ele>
        <time>2021-05-18T08:58:00Z</time>
      </trkpt>
      <trkpt lat="41.7978250" lon="-8.8726760">
        <ele>9.3</ele>
        <time>2021-05-18T08:58:01Z</time>
      </trkpt>
      <trkpt lat="41.7978320" lon="-8.8726680">
        <ele>9.3</ele>
        <time>2021-05-18T08:58:02Z</time>
      </trkpt>
      <trkpt lat="41.7978510" lon="-8.8726550">
        <ele>9.4</ele>
        <time>2021-05-18T08:58:03Z</time>
      </trkpt>
      <trkpt lat="41.7978590" lon="-8.8726480">
        <ele>9.4</ele>
        <time>2021-05-18T08:58:04Z</time>
      </trkpt>
      <trkpt lat="41.7978660" lon="-8.8726400">
        <ele>9.4</ele>
        <time>2021-05-18T08:58:05Z</time>
      </trkpt>
      <trkpt lat="41.7978790" lon="-8.8726300">
        <ele>9.4</ele>
        <time>2021-05-18T08:58:06Z</time>
      </trkpt>
      <trkpt lat="41.7978920" lon="-8.8726250">
        <ele>9.4</ele>
        <time>2021-05-18T08:58:07Z</time>
      </trkpt>
      <trkpt lat="41.7979050" lon="-8.8726180">
        <ele>9.4</ele>
        <time>2021-05-18T08:58:08Z</time>
      </trkpt>
      <trkpt lat="41.7979160" lon="-8.8726060">
        <ele>9.4</ele>
        <time>2021-05-18T08:58:09Z</time>
      </trkpt>
      <trkpt lat="41.7979290" lon="-8.8725960">
        <ele>9.4</ele>
        <time>2021-05-18T08:58:10Z</time>
      </trkpt>
      <trkpt lat="41.7979400" lon="-8.8725850">
        <ele>9.4</ele>
        <time>2021-05-18T08:58:11Z</time>
      </trkpt>
      <trkpt lat="41.7979530" lon="-8.8725780">
        <ele>9.4</ele>
        <time>2021-05-18T08:58:12Z</time>
      </trkpt>
      <trkpt lat="41.7979630" lon="-8.8725650">
        <ele>9.4</ele>
        <time>2021-05-18T08:58:13Z</time>
      </trkpt>
      <trkpt lat="41.7979750" lon="-8.8725580">
        <ele>9.4</ele>
        <time>2021-05-18T08:58:14Z</time>
      </trkpt>
      <trkpt lat="41.7979890" lon="-8.8725510">
        <ele>9.4</ele>
        <time>2021-05-18T08:58:15Z</time>
      </trkpt>
      <trkpt lat="41.7980040" lon="-8.8725440">
        <ele>9.4</ele>
        <time>2021-05-18T08:58:16Z</time>
      </trkpt>
      <trkpt lat="41.7980160" lon="-8.8725320">
        <ele>9.3</ele>
        <time>2021-05-18T08:58:17Z</time>
      </trkpt>
      <trkpt lat="41.7980270" lon="-8.8725220">
        <ele>9.3</ele>
        <time>2021-05-18T08:58:18Z</time>
      </trkpt>
      <trkpt lat="41.7980410" lon="-8.8725180">
        <ele>9.3</ele>
        <time>2021-05-18T08:58:19Z</time>
      </trkpt>
      <trkpt lat="41.7980540" lon="-8.8725110">
        <ele>9.3</ele>
        <time>2021-05-18T08:58:20Z</time>
      </trkpt>
      <trkpt lat="41.7980650" lon="-8.8725000">
        <ele>9.3</ele>
        <time>2021-05-18T08:58:21Z</time>
      </trkpt>
      <trkpt lat="41.7980770" lon="-8.8724900">
        <ele>9.3</ele>
        <time>2021-05-18T08:58:22Z</time>
      </trkpt>
      <trkpt lat="41.7980910" lon="-8.8724860">
        <ele>9.3</ele>
        <time>2021-05-18T08:58:23Z</time>
      </trkpt>
      <trkpt lat="41.7981020" lon="-8.8724760">
        <ele>9.2</ele>
        <time>2021-05-18T08:58:24Z</time>
      </trkpt>
      <trkpt lat="41.7981150" lon="-8.8724690">
        <ele>9.2</ele>
        <time>2021-05-18T08:58:25Z</time>
      </trkpt>
      <trkpt lat="41.7981320" lon="-8.8724510">
        <ele>9.2</ele>
        <time>2021-05-18T08:58:26Z</time>
      </trkpt>
      <trkpt lat="41.7981400" lon="-8.8724430">
        <ele>9.2</ele>
        <time>2021-05-18T08:58:27Z</time>
      </trkpt>
      <trkpt lat="41.7981470" lon="-8.8724360">
        <ele>9.2</ele>
        <time>2021-05-18T08:58:28Z</time>
      </trkpt>
      <trkpt lat="41.7981610" lon="-8.8724290">
        <ele>9.2</ele>
        <time>2021-05-18T08:58:29Z</time>
      </trkpt>
      <trkpt lat="41.7981730" lon="-8.8724240">
        <ele>9.1</ele>
        <time>2021-05-18T08:58:30Z</time>
      </trkpt>
      <trkpt lat="41.7981870" lon="-8.8724210">
        <ele>9.1</ele>
        <time>2021-05-18T08:58:31Z</time>
      </trkpt>
      <trkpt lat="41.7981990" lon="-8.8724070">
        <ele>9.1</ele>
        <time>2021-05-18T08:58:32Z</time>
      </trkpt>
      <trkpt lat="41.7982120" lon="-8.8724000">
        <ele>9.1</ele>
        <time>2021-05-18T08:58:33Z</time>
      </trkpt>
      <trkpt lat="41.7982270" lon="-8.8723960">
        <ele>9.1</ele>
        <time>2021-05-18T08:58:34Z</time>
      </trkpt>
      <trkpt lat="41.7982380" lon="-8.8723850">
        <ele>9.0</ele>
        <time>2021-05-18T08:58:35Z</time>
      </trkpt>
      <trkpt lat="41.7982490" lon="-8.8723700">
        <ele>9.0</ele>
        <time>2021-05-18T08:58:36Z</time>
      </trkpt>
      <trkpt lat="41.7982590" lon="-8.8723600">
        <ele>9.0</ele>
        <time>2021-05-18T08:58:37Z</time>
      </trkpt>
      <trkpt lat="41.7982720" lon="-8.8723510">
        <ele>9.0</ele>
        <time>2021-05-18T08:58:38Z</time>
      </trkpt>
      <trkpt lat="41.7982840" lon="-8.8723400">
        <ele>9.0</ele>
        <time>2021-05-18T08:58:39Z</time>
      </trkpt>
      <trkpt lat="41.7982930" lon="-8.8723260">
        <ele>8.9</ele>
        <time>2021-05-18T08:58:40Z</time>
      </trkpt>
      <trkpt lat="41.7983050" lon="-8.8723170">
        <ele>8.9</ele>
        <time>2021-05-18T08:58:41Z</time>
      </trkpt>
      <trkpt lat="41.7983170" lon="-8.8723100">
        <ele>8.9</ele>
        <time>2021-05-18T08:58:42Z</time>
      </trkpt>
      <trkpt lat="41.7983370" lon="-8.8722960">
        <ele>8.9</ele>
        <time>2021-05-18T08:58:43Z</time>
      </trkpt>
      <trkpt lat="41.7983450" lon="-8.8722920">
        <ele>8.9</ele>
        <time>2021-05-18T08:58:44Z</time>
      </trkpt>
      <trkpt lat="41.7983530" lon="-8.8722870">
        <ele>8.8</ele>
        <time>2021-05-18T08:58:45Z</time>
      </trkpt>
      <trkpt lat="41.7983690" lon="-8.8722660">
        <ele>8.8</ele>
        <time>2021-05-18T08:58:46Z</time>
      </trkpt>
      <trkpt lat="41.7983760" lon="-8.8722580">
        <ele>8.8</ele>
        <time>2021-05-18T08:58:47Z</time>
      </trkpt>
      <trkpt lat="41.7983820" lon="-8.8722500">
        <ele>8.8</ele>
        <time>2021-05-18T08:58:48Z</time>
      </trkpt>
      <trkpt lat="41.7983970" lon="-8.8722320">
        <ele>8.8</ele>
        <time>2021-05-18T08:58:49Z</time>
      </trkpt>
      <trkpt lat="41.7984050" lon="-8.8722250">
        <ele>8.8</ele>
        <time>2021-05-18T08:58:50Z</time>
      </trkpt>
      <trkpt lat="41.7984130" lon="-8.8722190">
        <ele>8.8</ele>
        <time>2021-05-18T08:58:51Z</time>
      </trkpt>
      <trkpt lat="41.7984250" lon="-8.8721940">
        <ele>8.7</ele>
        <time>2021-05-18T08:58:52Z</time>
      </trkpt>
      <trkpt lat="41.7984300" lon="-8.8721830">
        <ele>8.7</ele>
        <time>2021-05-18T08:58:53Z</time>
      </trkpt>
      <trkpt lat="41.7984340" lon="-8.8721730">
        <ele>8.7</ele>
        <time>2021-05-18T08:58:54Z</time>
      </trkpt>
      <trkpt lat="41.7984460" lon="-8.8721500">
        <ele>8.7</ele>
        <time>2021-05-18T08:58:55Z</time>
      </trkpt>
      <trkpt lat="41.7984510" lon="-8.8721420">
        <ele>8.7</ele>
        <time>2021-05-18T08:58:56Z</time>
      </trkpt>
      <trkpt lat="41.7984570" lon="-8.8721340">
        <ele>8.7</ele>
        <time>2021-05-18T08:58:57Z</time>
      </trkpt>
      <trkpt lat="41.7984650" lon="-8.8721220">
        <ele>8.7</ele>
        <time>2021-05-18T08:58:58Z</time>
      </trkpt>
      <trkpt lat="41.7984730" lon="-8.8721050">
        <ele>8.7</ele>
        <time>2021-05-18T08:58:59Z</time>
      </trkpt>
      <trkpt lat="41.7984860" lon="-8.8720850">
        <ele>8.7</ele>
        <time>2021-05-18T08:59:00Z</time>
      </trkpt>
      <trkpt lat="41.7984920" lon="-8.8720760">
        <ele>8.7</ele>
        <time>2021-05-18T08:59:01Z</time>
      </trkpt>
      <trkpt lat="41.7984970" lon="-8.8720680">
        <ele>8.7</ele>
        <time>2021-05-18T08:59:02Z</time>
      </trkpt>
      <trkpt lat="41.7985060" lon="-8.8720570">
        <ele>8.7</ele>
        <time>2021-05-18T08:59:03Z</time>
      </trkpt>
      <trkpt lat="41.7985150" lon="-8.8720460">
        <ele>8.7</ele>
        <time>2021-05-18T08:59:04Z</time>
      </trkpt>
      <trkpt lat="41.7985200" lon="-8.8720310">
        <ele>8.7</ele>
        <time>2021-05-18T08:59:05Z</time>
      </trkpt>
      <trkpt lat="41.7985290" lon="-8.8720190">
        <ele>8.6</ele>
        <time>2021-05-18T08:59:06Z</time>
      </trkpt>
      <trkpt lat="41.7985340" lon="-8.8720040">
        <ele>8.6</ele>
        <time>2021-05-18T08:59:07Z</time>
      </trkpt>
      <trkpt lat="41.7985430" lon="-8.8719940">
        <ele>8.6</ele>
        <time>2021-05-18T08:59:08Z</time>
      </trkpt>
      <trkpt lat="41.7985570" lon="-8.8719730">
        <ele>8.6</ele>
        <time>2021-05-18T08:59:09Z</time>
      </trkpt>
      <trkpt lat="41.7985630" lon="-8.8719640">
        <ele>8.6</ele>
        <time>2021-05-18T08:59:10Z</time>
      </trkpt>
      <trkpt lat="41.7985690" lon="-8.8719560">
        <ele>8.6</ele>
        <time>2021-05-18T08:59:11Z</time>
      </trkpt>
      <trkpt lat="41.7985850" lon="-8.8719370">
        <ele>8.6</ele>
        <time>2021-05-18T08:59:12Z</time>
      </trkpt>
      <trkpt lat="41.7985910" lon="-8.8719290">
        <ele>8.6</ele>
        <time>2021-05-18T08:59:13Z</time>
      </trkpt>
      <trkpt lat="41.7985970" lon="-8.8719200">
        <ele>8.6</ele>
        <time>2021-05-18T08:59:14Z</time>
      </trkpt>
      <trkpt lat="41.7986040" lon="-8.8719040">
        <ele>8.6</ele>
        <time>2021-05-18T08:59:15Z</time>
      </trkpt>
      <trkpt lat="41.7986120" lon="-8.8718880">
        <ele>8.6</ele>
        <time>2021-05-18T08:59:16Z</time>
      </trkpt>
      <trkpt lat="41.7986220" lon="-8.8718640">
        <ele>8.6</ele>
        <time>2021-05-18T08:59:17Z</time>
      </trkpt>
      <trkpt lat="41.7986260" lon="-8.8718540">
        <ele>8.6</ele>
        <time>2021-05-18T08:59:18Z</time>
      </trkpt>
      <trkpt lat="41.7986300" lon="-8.8718450">
        <ele>8.6</ele>
        <time>2021-05-18T08:59:19Z</time>
      </trkpt>
      <trkpt lat="41.7986450" lon="-8.8718250">
        <ele>8.6</ele>
        <time>2021-05-18T08:59:20Z</time>
      </trkpt>
      <trkpt lat="41.7986500" lon="-8.8718170">
        <ele>8.6</ele>
        <time>2021-05-18T08:59:21Z</time>
      </trkpt>
      <trkpt lat="41.7986560" lon="-8.8718090">
        <ele>8.6</ele>
        <time>2021-05-18T08:59:22Z</time>
      </trkpt>
      <trkpt lat="41.7986720" lon="-8.8717890">
        <ele>8.6</ele>
        <time>2021-05-18T08:59:23Z</time>
      </trkpt>
      <trkpt lat="41.7986790" lon="-8.8717820">
        <ele>8.6</ele>
        <time>2021-05-18T08:59:24Z</time>
      </trkpt>
      <trkpt lat="41.7986860" lon="-8.8717740">
        <ele>8.6</ele>
        <time>2021-05-18T08:59:25Z</time>
      </trkpt>
      <trkpt lat="41.7986990" lon="-8.8717510">
        <ele>8.6</ele>
        <time>2021-05-18T08:59:26Z</time>
      </trkpt>
      <trkpt lat="41.7987050" lon="-8.8717430">
        <ele>8.6</ele>
        <time>2021-05-18T08:59:27Z</time>
      </trkpt>
      <trkpt lat="41.7987100" lon="-8.8717350">
        <ele>8.6</ele>
        <time>2021-05-18T08:59:28Z</time>
      </trkpt>
      <trkpt lat="41.7987220" lon="-8.8717140">
        <ele>8.6</ele>
        <time>2021-05-18T08:59:29Z</time>
      </trkpt>
      <trkpt lat="41.7987280" lon="-8.8717060">
        <ele>8.6</ele>
        <time>2021-05-18T08:59:30Z</time>
      </trkpt>
      <trkpt lat="41.7987330" lon="-8.8716970">
        <ele>8.6</ele>
        <time>2021-05-18T08:59:31Z</time>
      </trkpt>
      <trkpt lat="41.7987440" lon="-8.8716890">
        <ele>8.6</ele>
        <time>2021-05-18T08:59:32Z</time>
      </trkpt>
      <trkpt lat="41.7987450" lon="-8.8716920">
        <ele>8.6</ele>
        <time>2021-05-18T08:59:33Z</time>
      </trkpt>
      <trkpt lat="41.7987470" lon="-8.8717040">
        <ele>8.6</ele>
        <time>2021-05-18T08:59:34Z</time>
      </trkpt>
      <trkpt lat="41.7987300" lon="-8.8717100">
        <ele>8.6</ele>
        <time>2021-05-18T08:59:35Z</time>
      </trkpt>
      <trkpt lat="41.7987300" lon="-8.8717040">
        <ele>8.6</ele>
        <time>2021-05-18T08:59:36Z</time>
      </trkpt>
      <trkpt lat="41.7987360" lon="-8.8716770">
        <ele>8.5</ele>
        <time>2021-05-18T08:59:37Z</time>
      </trkpt>
      <trkpt lat="41.7987500" lon="-8.8716640">
        <ele>8.5</ele>
        <time>2021-05-18T08:59:38Z</time>
      </trkpt>
      <trkpt lat="41.7987560" lon="-8.8716580">
        <ele>8.5</ele>
        <time>2021-05-18T08:59:39Z</time>
      </trkpt>
      <trkpt lat="41.7987670" lon="-8.8716520">
        <ele>8.5</ele>
        <time>2021-05-18T08:59:40Z</time>
      </trkpt>
      <trkpt lat="41.7987720" lon="-8.8716400">
        <ele>8.5</ele>
        <time>2021-05-18T08:59:41Z</time>
      </trkpt>
      <trkpt lat="41.7987770" lon="-8.8716200">
        <ele>8.5</ele>
        <time>2021-05-18T08:59:42Z</time>
      </trkpt>
      <trkpt lat="41.7987780" lon="-8.8716130">
        <ele>8.5</ele>
        <time>2021-05-18T08:59:43Z</time>
      </trkpt>
      <trkpt lat="41.7987800" lon="-8.8716060">
        <ele>8.5</ele>
        <time>2021-05-18T08:59:44Z</time>
      </trkpt>
      <trkpt lat="41.7987810" lon="-8.8715990">
        <ele>8.5</ele>
        <time>2021-05-18T08:59:45Z</time>
      </trkpt>
      <trkpt lat="41.7987820" lon="-8.8715920">
        <ele>8.5</ele>
        <time>2021-05-18T08:59:46Z</time>
      </trkpt>
      <trkpt lat="41.7987880" lon="-8.8715760">
        <ele>8.5</ele>
        <time>2021-05-18T08:59:47Z</time>
      </trkpt>
      <trkpt lat="41.7987950" lon="-8.8715640">
        <ele>8.5</ele>
        <time>2021-05-18T08:59:48Z</time>
      </trkpt>
      <trkpt lat="41.7988060" lon="-8.8715590">
        <ele>8.5</ele>
        <time>2021-05-18T08:59:49Z</time>
      </trkpt>
      <trkpt lat="41.7988170" lon="-8.8715410">
        <ele>8.5</ele>
        <time>2021-05-18T08:59:50Z</time>
      </trkpt>
      <trkpt lat="41.7988260" lon="-8.8715330">
        <ele>8.5</ele>
        <time>2021-05-18T08:59:51Z</time>
      </trkpt>
      <trkpt lat="41.7988350" lon="-8.8715260">
        <ele>8.4</ele>
        <time>2021-05-18T08:59:52Z</time>
      </trkpt>
      <trkpt lat="41.7988420" lon="-8.8715140">
        <ele>8.4</ele>
        <time>2021-05-18T08:59:53Z</time>
      </trkpt>
      <trkpt lat="41.7988520" lon="-8.8714970">
        <ele>8.4</ele>
        <time>2021-05-18T08:59:54Z</time>
      </trkpt>
      <trkpt lat="41.7988540" lon="-8.8714840">
        <ele>8.4</ele>
        <time>2021-05-18T08:59:55Z</time>
      </trkpt>
      <trkpt lat="41.7988590" lon="-8.8714810">
        <ele>8.4</ele>
        <time>2021-05-18T08:59:56Z</time>
      </trkpt>
      <trkpt lat="41.7988750" lon="-8.8714720">
        <ele>8.4</ele>
        <time>2021-05-18T08:59:57Z</time>
      </trkpt>
      <trkpt lat="41.7988860" lon="-8.8714620">
        <ele>8.3</ele>
        <time>2021-05-18T08:59:58Z</time>
      </trkpt>
      <trkpt lat="41.7988950" lon="-8.8714560">
        <ele>8.3</ele>
        <time>2021-05-18T08:59:59Z</time>
      </trkpt>
      <trkpt lat="41.7988970" lon="-8.8714450">
        <ele>8.3</ele>
        <time>2021-05-18T09:00:00Z</time>
      </trkpt>
      <trkpt lat="41.7989020" lon="-8.8714350">
        <ele>8.3</ele>
        <time>2021-05-18T09:00:01Z</time>
      </trkpt>
      <trkpt lat="41.7989110" lon="-8.8714320">
        <ele>8.3</ele>
        <time>2021-05-18T09:00:02Z</time>
      </trkpt>
      <trkpt lat="41.7989210" lon="-8.8714190">
        <ele>8.3</ele>
        <time>2021-05-18T09:00:03Z</time>
      </trkpt>
      <trkpt lat="41.7989370" lon="-8.8714080">
        <ele>8.3</ele>
        <time>2021-05-18T09:00:04Z</time>
      </trkpt>
      <trkpt lat="41.7989480" lon="-8.8714050">
        <ele>8.2</ele>
        <time>2021-05-18T09:00:05Z</time>
      </trkpt>
      <trkpt lat="41.7989700" lon="-8.8713940">
        <ele>8.2</ele>
        <time>2021-05-18T09:00:06Z</time>
      </trkpt>
      <trkpt lat="41.7989760" lon="-8.8713860">
        <ele>8.2</ele>
        <time>2021-05-18T09:00:07Z</time>
      </trkpt>
      <trkpt lat="41.7989830" lon="-8.8713790">
        <ele>8.2</ele>
        <time>2021-05-18T09:00:08Z</time>
      </trkpt>
      <trkpt lat="41.7989940" lon="-8.8713680">
        <ele>8.2</ele>
        <time>2021-05-18T09:00:09Z</time>
      </trkpt>
      <trkpt lat="41.7990070" lon="-8.8713590">
        <ele>8.1</ele>
        <time>2021-05-18T09:00:10Z</time>
      </trkpt>
      <trkpt lat="41.7990100" lon="-8.8713540">
        <ele>8.1</ele>
        <time>2021-05-18T09:00:11Z</time>
      </trkpt>
      <trkpt lat="41.7990240" lon="-8.8713430">
        <ele>8.1</ele>
        <time>2021-05-18T09:00:12Z</time>
      </trkpt>
      <trkpt lat="41.7990320" lon="-8.8713400">
        <ele>8.1</ele>
        <time>2021-05-18T09:00:13Z</time>
      </trkpt>
      <trkpt lat="41.7990420" lon="-8.8713220">
        <ele>8.1</ele>
        <time>2021-05-18T09:00:14Z</time>
      </trkpt>
      <trkpt lat="41.7990480" lon="-8.8713090">
        <ele>8.1</ele>
        <time>2021-05-18T09:00:15Z</time>
      </trkpt>
      <trkpt lat="41.7990650" lon="-8.8712960">
        <ele>8.1</ele>
        <time>2021-05-18T09:00:16Z</time>
      </trkpt>
      <trkpt lat="41.7990730" lon="-8.8712910">
        <ele>8.1</ele>
        <time>2021-05-18T09:00:17Z</time>
      </trkpt>
      <trkpt lat="41.7990810" lon="-8.8712870">
        <ele>8.1</ele>
        <time>2021-05-18T09:00:18Z</time>
      </trkpt>
      <trkpt lat="41.7991010" lon="-8.8712950">
        <ele>8.0</ele>
        <time>2021-05-18T09:00:19Z</time>
      </trkpt>
      <trkpt lat="41.7991100" lon="-8.8712980">
        <ele>8.0</ele>
        <time>2021-05-18T09:00:20Z</time>
      </trkpt>
      <trkpt lat="41.7991200" lon="-8.8713010">
        <ele>8.0</ele>
        <time>2021-05-18T09:00:21Z</time>
      </trkpt>
      <trkpt lat="41.7991290" lon="-8.8713040">
        <ele>8.0</ele>
        <time>2021-05-18T09:00:22Z</time>
      </trkpt>
      <trkpt lat="41.7991370" lon="-8.8713100">
        <ele>8.0</ele>
        <time>2021-05-18T09:00:23Z</time>
      </trkpt>
      <trkpt lat="41.7991520" lon="-8.8713160">
        <ele>8.0</ele>
        <time>2021-05-18T09:00:24Z</time>
      </trkpt>
      <trkpt lat="41.7991610" lon="-8.8713240">
        <ele>8.0</ele>
        <time>2021-05-18T09:00:25Z</time>
      </trkpt>
      <trkpt lat="41.7991720" lon="-8.8713240">
        <ele>8.0</ele>
        <time>2021-05-18T09:00:26Z</time>
      </trkpt>
      <trkpt lat="41.7991800" lon="-8.8713160">
        <ele>8.0</ele>
        <time>2021-05-18T09:00:27Z</time>
      </trkpt>
      <trkpt lat="41.7991910" lon="-8.8713070">
        <ele>8.0</ele>
        <time>2021-05-18T09:00:28Z</time>
      </trkpt>
      <trkpt lat="41.7991980" lon="-8.8712990">
        <ele>8.0</ele>
        <time>2021-05-18T09:00:29Z</time>
      </trkpt>
      <trkpt lat="41.7992010" lon="-8.8712990">
        <ele>7.9</ele>
        <time>2021-05-18T09:00:30Z</time>
      </trkpt>
      <trkpt lat="41.7992000" lon="-8.8712990">
        <ele>7.9</ele>
        <time>2021-05-18T09:00:31Z</time>
      </trkpt>
      <trkpt lat="41.7991960" lon="-8.8712990">
        <ele>7.9</ele>
        <time>2021-05-18T09:00:32Z</time>
      </trkpt>
      <trkpt lat="41.7991990" lon="-8.8713000">
        <ele>7.9</ele>
        <time>2021-05-18T09:00:33Z</time>
      </trkpt>
      <trkpt lat="41.7991970" lon="-8.8713030">
        <ele>7.9</ele>
        <time>2021-05-18T09:00:34Z</time>
      </trkpt>
      <trkpt lat="41.7991940" lon="-8.8713040">
        <ele>7.9</ele>
        <time>2021-05-18T09:00:35Z</time>
      </trkpt>
      <trkpt lat="41.7991940" lon="-8.8713010">
        <ele>7.9</ele>
        <time>2021-05-18T09:00:36Z</time>
      </trkpt>
      <trkpt lat="41.7991940" lon="-8.8713030">
        <ele>7.9</ele>
        <time>2021-05-18T09:00:37Z</time>
      </trkpt>
      <trkpt lat="41.7991950" lon="-8.8713010">
        <ele>7.9</ele>
        <time>2021-05-18T09:00:38Z</time>
      </trkpt>
      <trkpt lat="41.7991930" lon="-8.8713010">
        <ele>7.9</ele>
        <time>2021-05-18T09:00:39Z</time>
      </trkpt>
      <trkpt lat="41.7991920" lon="-8.8713020">
        <ele>7.9</ele>
        <time>2021-05-18T09:00:40Z</time>
      </trkpt>
      <trkpt lat="41.7991930" lon="-8.8713010">
        <ele>7.9</ele>
        <time>2021-05-18T09:00:41Z</time>
      </trkpt>
      <trkpt lat="41.7991940" lon="-8.8713000">
        <ele>7.9</ele>
        <time>2021-05-18T09:00:42Z</time>
      </trkpt>
      <trkpt lat="41.7992010" lon="-8.8712890">
        <ele>7.9</ele>
        <time>2021-05-18T09:00:43Z</time>
      </trkpt>
      <trkpt lat="41.7992110" lon="-8.8712690">
        <ele>7.9</ele>
        <time>2021-05-18T09:00:44Z</time>
      </trkpt>
      <trkpt lat="41.7992230" lon="-8.8712540">
        <ele>7.9</ele>
        <time>2021-05-18T09:00:45Z</time>
      </trkpt>
      <trkpt lat="41.7992300" lon="-8.8712430">
        <ele>7.9</ele>
        <time>2021-05-18T09:00:46Z</time>
      </trkpt>
      <trkpt lat="41.7992330" lon="-8.8712270">
        <ele>7.9</ele>
        <time>2021-05-18T09:00:47Z</time>
      </trkpt>
      <trkpt lat="41.7992410" lon="-8.8712120">
        <ele>7.9</ele>
        <time>2021-05-18T09:00:48Z</time>
      </trkpt>
      <trkpt lat="41.7992570" lon="-8.8712010">
        <ele>7.9</ele>
        <time>2021-05-18T09:00:49Z</time>
      </trkpt>
      <trkpt lat="41.7992630" lon="-8.8711860">
        <ele>7.9</ele>
        <time>2021-05-18T09:00:50Z</time>
      </trkpt>
      <trkpt lat="41.7992800" lon="-8.8711710">
        <ele>7.9</ele>
        <time>2021-05-18T09:00:51Z</time>
      </trkpt>
      <trkpt lat="41.7992850" lon="-8.8711610">
        <ele>7.9</ele>
        <time>2021-05-18T09:00:52Z</time>
      </trkpt>
      <trkpt lat="41.7992910" lon="-8.8711510">
        <ele>7.9</ele>
        <time>2021-05-18T09:00:53Z</time>
      </trkpt>
      <trkpt lat="41.7993050" lon="-8.8711260">
        <ele>7.8</ele>
        <time>2021-05-18T09:00:54Z</time>
      </trkpt>
      <trkpt lat="41.7993110" lon="-8.8711150">
        <ele>7.8</ele>
        <time>2021-05-18T09:00:55Z</time>
      </trkpt>
      <trkpt lat="41.7993180" lon="-8.8711040">
        <ele>7.8</ele>
        <time>2021-05-18T09:00:56Z</time>
      </trkpt>
      <trkpt lat="41.7993300" lon="-8.8710960">
        <ele>7.8</ele>
        <time>2021-05-18T09:00:57Z</time>
      </trkpt>
      <trkpt lat="41.7993350" lon="-8.8710850">
        <ele>7.8</ele>
        <time>2021-05-18T09:00:58Z</time>
      </trkpt>
      <trkpt lat="41.7993410" lon="-8.8710730">
        <ele>7.8</ele>
        <time>2021-05-18T09:00:59Z</time>
      </trkpt>
      <trkpt lat="41.7993550" lon="-8.8710580">
        <ele>7.8</ele>
        <time>2021-05-18T09:01:00Z</time>
      </trkpt>
      <trkpt lat="41.7993620" lon="-8.8710470">
        <ele>7.8</ele>
        <time>2021-05-18T09:01:01Z</time>
      </trkpt>
      <trkpt lat="41.7993790" lon="-8.8710270">
        <ele>7.8</ele>
        <time>2021-05-18T09:01:02Z</time>
      </trkpt>
      <trkpt lat="41.7993870" lon="-8.8710190">
        <ele>7.8</ele>
        <time>2021-05-18T09:01:03Z</time>
      </trkpt>
      <trkpt lat="41.7993980" lon="-8.8710080">
        <ele>7.8</ele>
        <time>2021-05-18T09:01:04Z</time>
      </trkpt>
      <trkpt lat="41.7994030" lon="-8.8709990">
        <ele>7.8</ele>
        <time>2021-05-18T09:01:05Z</time>
      </trkpt>
      <trkpt lat="41.7994140" lon="-8.8709920">
        <ele>7.8</ele>
        <time>2021-05-18T09:01:06Z</time>
      </trkpt>
      <trkpt lat="41.7994250" lon="-8.8709790">
        <ele>7.9</ele>
        <time>2021-05-18T09:01:07Z</time>
      </trkpt>
      <trkpt lat="41.7994430" lon="-8.8709650">
        <ele>7.9</ele>
        <time>2021-05-18T09:01:08Z</time>
      </trkpt>
      <trkpt lat="41.7994530" lon="-8.8709540">
        <ele>7.9</ele>
        <time>2021-05-18T09:01:09Z</time>
      </trkpt>
      <trkpt lat="41.7994660" lon="-8.8709400">
        <ele>7.9</ele>
        <time>2021-05-18T09:01:10Z</time>
      </trkpt>
      <trkpt lat="41.7994750" lon="-8.8709260">
        <ele>7.9</ele>
        <time>2021-05-18T09:01:11Z</time>
      </trkpt>
      <trkpt lat="41.7994890" lon="-8.8709160">
        <ele>7.9</ele>
        <time>2021-05-18T09:01:12Z</time>
      </trkpt>
      <trkpt lat="41.7994980" lon="-8.8708980">
        <ele>7.9</ele>
        <time>2021-05-18T09:01:13Z</time>
      </trkpt>
      <trkpt lat="41.7995060" lon="-8.8708790">
        <ele>7.9</ele>
        <time>2021-05-18T09:01:14Z</time>
      </trkpt>
      <trkpt lat="41.7995160" lon="-8.8708640">
        <ele>8.0</ele>
        <time>2021-05-18T09:01:15Z</time>
      </trkpt>
      <trkpt lat="41.7995280" lon="-8.8708530">
        <ele>8.1</ele>
        <time>2021-05-18T09:01:16Z</time>
      </trkpt>
      <trkpt lat="41.7995400" lon="-8.8708470">
        <ele>8.1</ele>
        <time>2021-05-18T09:01:17Z</time>
      </trkpt>
      <trkpt lat="41.7995460" lon="-8.8708450">
        <ele>8.1</ele>
        <time>2021-05-18T09:01:18Z</time>
      </trkpt>
      <trkpt lat="41.7995420" lon="-8.8708500">
        <ele>8.2</ele>
        <time>2021-05-18T09:01:19Z</time>
      </trkpt>
      <trkpt lat="41.7995380" lon="-8.8708580">
        <ele>8.2</ele>
        <time>2021-05-18T09:01:20Z</time>
      </trkpt>
      <trkpt lat="41.7995360" lon="-8.8708550">
        <ele>8.2</ele>
        <time>2021-05-18T09:01:21Z</time>
      </trkpt>
      <trkpt lat="41.7995330" lon="-8.8708530">
        <ele>8.2</ele>
        <time>2021-05-18T09:01:22Z</time>
      </trkpt>
      <trkpt lat="41.7995280" lon="-8.8708290">
        <ele>8.3</ele>
        <time>2021-05-18T09:01:23Z</time>
      </trkpt>
      <trkpt lat="41.7995240" lon="-8.8708070">
        <ele>8.4</ele>
        <time>2021-05-18T09:01:24Z</time>
      </trkpt>
      <trkpt lat="41.7995170" lon="-8.8707830">
        <ele>8.5</ele>
        <time>2021-05-18T09:01:25Z</time>
      </trkpt>
      <trkpt lat="41.7995120" lon="-8.8707720">
        <ele>8.5</ele>
        <time>2021-05-18T09:01:26Z</time>
      </trkpt>
      <trkpt lat="41.7995080" lon="-8.8707600">
        <ele>8.5</ele>
        <time>2021-05-18T09:01:27Z</time>
      </trkpt>
      <trkpt lat="41.7995000" lon="-8.8707430">
        <ele>8.6</ele>
        <time>2021-05-18T09:01:28Z</time>
      </trkpt>
      <trkpt lat="41.7994980" lon="-8.8707440">
        <ele>8.6</ele>
        <time>2021-05-18T09:01:29Z</time>
      </trkpt>
      <trkpt lat="41.7994970" lon="-8.8707450">
        <ele>8.6</ele>
        <time>2021-05-18T09:01:30Z</time>
      </trkpt>
      <trkpt lat="41.7994950" lon="-8.8707470">
        <ele>8.6</ele>
        <time>2021-05-18T09:01:31Z</time>
      </trkpt>
      <trkpt lat="41.7994940" lon="-8.8707480">
        <ele>8.6</ele>
        <time>2021-05-18T09:01:32Z</time>
      </trkpt>
      <trkpt lat="41.7994920" lon="-8.8707490">
        <ele>8.6</ele>
        <time>2021-05-18T09:01:33Z</time>
      </trkpt>
      <trkpt lat="41.7994910" lon="-8.8707500">
        <ele>8.7</ele>
        <time>2021-05-18T09:01:34Z</time>
      </trkpt>
      <trkpt lat="41.7994890" lon="-8.8707510">
        <ele>8.7</ele>
        <time>2021-05-18T09:01:35Z</time>
      </trkpt>
      <trkpt lat="41.7994880" lon="-8.8707520">
        <ele>8.7</ele>
        <time>2021-05-18T09:01:36Z</time>
      </trkpt>
      <trkpt lat="41.7994860" lon="-8.8707540">
        <ele>8.7</ele>
        <time>2021-05-18T09:01:37Z</time>
      </trkpt>
      <trkpt lat="41.7994850" lon="-8.8707550">
        <ele>8.7</ele>
        <time>2021-05-18T09:01:38Z</time>
      </trkpt>
      <trkpt lat="41.7994830" lon="-8.8707560">
        <ele>8.7</ele>
        <time>2021-05-18T09:01:39Z</time>
      </trkpt>
      <trkpt lat="41.7994820" lon="-8.8707570">
        <ele>8.7</ele>
        <time>2021-05-18T09:01:40Z</time>
      </trkpt>
      <trkpt lat="41.7994800" lon="-8.8707580">
        <ele>8.7</ele>
        <time>2021-05-18T09:01:41Z</time>
      </trkpt>
      <trkpt lat="41.7994790" lon="-8.8707590">
        <ele>8.7</ele>
        <time>2021-05-18T09:01:42Z</time>
      </trkpt>
      <trkpt lat="41.7994770" lon="-8.8707610">
        <ele>8.7</ele>
        <time>2021-05-18T09:01:43Z</time>
      </trkpt>
      <trkpt lat="41.7994760" lon="-8.8707620">
        <ele>8.7</ele>
        <time>2021-05-18T09:01:44Z</time>
      </trkpt>
      <trkpt lat="41.7994740" lon="-8.8707630">
        <ele>8.7</ele>
        <time>2021-05-18T09:01:45Z</time>
      </trkpt>
      <trkpt lat="41.7994730" lon="-8.8707640">
        <ele>8.7</ele>
        <time>2021-05-18T09:01:46Z</time>
      </trkpt>
      <trkpt lat="41.7994710" lon="-8.8707650">
        <ele>8.8</ele>
        <time>2021-05-18T09:01:47Z</time>
      </trkpt>
      <trkpt lat="41.7994700" lon="-8.8707660">
        <ele>8.8</ele>
        <time>2021-05-18T09:01:48Z</time>
      </trkpt>
      <trkpt lat="41.7994680" lon="-8.8707680">
        <ele>8.8</ele>
        <time>2021-05-18T09:01:49Z</time>
      </trkpt>
      <trkpt lat="41.7994670" lon="-8.8707690">
        <ele>8.8</ele>
        <time>2021-05-18T09:01:50Z</time>
      </trkpt>
      <trkpt lat="41.7994650" lon="-8.8707700">
        <ele>8.8</ele>
        <time>2021-05-18T09:01:51Z</time>
      </trkpt>
      <trkpt lat="41.7994640" lon="-8.8707710">
        <ele>8.8</ele>
        <time>2021-05-18T09:01:52Z</time>
      </trkpt>
      <trkpt lat="41.7994640" lon="-8.8707720">
        <ele>8.8</ele>
        <time>2021-05-18T09:01:53Z</time>
      </trkpt>
      <trkpt lat="41.7994630" lon="-8.8707690">
        <ele>8.8</ele>
        <time>2021-05-18T09:01:54Z</time>
      </trkpt>
      <trkpt lat="41.7994600" lon="-8.8707670">
        <ele>8.8</ele>
        <time>2021-05-18T09:01:55Z</time>
      </trkpt>
      <trkpt lat="41.7994620" lon="-8.8707650">
        <ele>8.8</ele>
        <time>2021-05-18T09:01:56Z</time>
      </trkpt>
      <trkpt lat="41.7994630" lon="-8.8707650">
        <ele>8.8</ele>
        <time>2021-05-18T09:01:57Z</time>
      </trkpt>
      <trkpt lat="41.7994600" lon="-8.8707630">
        <ele>8.9</ele>
        <time>2021-05-18T09:01:58Z</time>
      </trkpt>
      <trkpt lat="41.7994580" lon="-8.8707630">
        <ele>8.9</ele>
        <time>2021-05-18T09:01:59Z</time>
      </trkpt>
      <trkpt lat="41.7994610" lon="-8.8707610">
        <ele>8.9</ele>
        <time>2021-05-18T09:02:00Z</time>
      </trkpt>
      <trkpt lat="41.7994620" lon="-8.8707640">
        <ele>8.9</ele>
        <time>2021-05-18T09:02:01Z</time>
      </trkpt>
      <trkpt lat="41.7994620" lon="-8.8707640">
        <ele>8.9</ele>
        <time>2021-05-18T09:02:02Z</time>
      </trkpt>
      <trkpt lat="41.7994600" lon="-8.8707630">
        <ele>8.9</ele>
        <time>2021-05-18T09:02:03Z</time>
      </trkpt>
      <trkpt lat="41.7994590" lon="-8.8707620">
        <ele>8.9</ele>
        <time>2021-05-18T09:02:04Z</time>
      </trkpt>
      <trkpt lat="41.7994620" lon="-8.8707610">
        <ele>8.9</ele>
        <time>2021-05-18T09:02:05Z</time>
      </trkpt>
      <trkpt lat="41.7994630" lon="-8.8707610">
        <ele>8.9</ele>
        <time>2021-05-18T09:02:06Z</time>
      </trkpt>
      <trkpt lat="41.7994620" lon="-8.8707620">
        <ele>8.9</ele>
        <time>2021-05-18T09:02:07Z</time>
      </trkpt>
      <trkpt lat="41.7994610" lon="-8.8707620">
        <ele>8.9</ele>
        <time>2021-05-18T09:02:08Z</time>
      </trkpt>
      <trkpt lat="41.7994600" lon="-8.8707610">
        <ele>8.9</ele>
        <time>2021-05-18T09:02:09Z</time>
      </trkpt>
      <trkpt lat="41.7994590" lon="-8.8707600">
        <ele>8.9</ele>
        <time>2021-05-18T09:02:10Z</time>
      </trkpt>
      <trkpt lat="41.7994610" lon="-8.8707600">
        <ele>9.0</ele>
        <time>2021-05-18T09:02:11Z</time>
      </trkpt>
      <trkpt lat="41.7994650" lon="-8.8707590">
        <ele>9.0</ele>
        <time>2021-05-18T09:02:12Z</time>
      </trkpt>
      <trkpt lat="41.7994650" lon="-8.8707770">
        <ele>9.0</ele>
        <time>2021-05-18T09:02:13Z</time>
      </trkpt>
      <trkpt lat="41.7994720" lon="-8.8707930">
        <ele>9.1</ele>
        <time>2021-05-18T09:02:14Z</time>
      </trkpt>
      <trkpt lat="41.7994730" lon="-8.8708100">
        <ele>9.2</ele>
        <time>2021-05-18T09:02:15Z</time>
      </trkpt>
      <trkpt lat="41.7994830" lon="-8.8708200">
        <ele>9.2</ele>
        <time>2021-05-18T09:02:16Z</time>
      </trkpt>
      <trkpt lat="41.7994860" lon="-8.8708300">
        <ele>9.3</ele>
        <time>2021-05-18T09:02:17Z</time>
      </trkpt>
      <trkpt lat="41.7994870" lon="-8.8708450">
        <ele>9.3</ele>
        <time>2021-05-18T09:02:18Z</time>
      </trkpt>
      <trkpt lat="41.7994860" lon="-8.8708570">
        <ele>9.3</ele>
        <time>2021-05-18T09:02:19Z</time>
      </trkpt>
      <trkpt lat="41.7994830" lon="-8.8708670">
        <ele>9.4</ele>
        <time>2021-05-18T09:02:20Z</time>
      </trkpt>
      <trkpt lat="41.7994880" lon="-8.8708800">
        <ele>9.4</ele>
        <time>2021-05-18T09:02:21Z</time>
      </trkpt>
      <trkpt lat="41.7994880" lon="-8.8708780">
        <ele>9.4</ele>
        <time>2021-05-18T09:02:22Z</time>
      </trkpt>
      <trkpt lat="41.7994970" lon="-8.8708720">
        <ele>9.5</ele>
        <time>2021-05-18T09:02:23Z</time>
      </trkpt>
      <trkpt lat="41.7995130" lon="-8.8708720">
        <ele>9.5</ele>
        <time>2021-05-18T09:02:24Z</time>
      </trkpt>
      <trkpt lat="41.7995280" lon="-8.8708590">
        <ele>9.6</ele>
        <time>2021-05-18T09:02:25Z</time>
      </trkpt>
      <trkpt lat="41.7995340" lon="-8.8708490">
        <ele>9.7</ele>
        <time>2021-05-18T09:02:26Z</time>
      </trkpt>
      <trkpt lat="41.7995460" lon="-8.8708390">
        <ele>9.7</ele>
        <time>2021-05-18T09:02:27Z</time>
      </trkpt>
      <trkpt lat="41.7995590" lon="-8.8708300">
        <ele>9.8</ele>
        <time>2021-05-18T09:02:28Z</time>
      </trkpt>
      <trkpt lat="41.7995710" lon="-8.8708150">
        <ele>9.8</ele>
        <time>2021-05-18T09:02:29Z</time>
      </trkpt>
      <trkpt lat="41.7995810" lon="-8.8708060">
        <ele>9.9</ele>
        <time>2021-05-18T09:02:30Z</time>
      </trkpt>
      <trkpt lat="41.7995920" lon="-8.8707970">
        <ele>9.9</ele>
        <time>2021-05-18T09:02:31Z</time>
      </trkpt>
      <trkpt lat="41.7996040" lon="-8.8707890">
        <ele>9.9</ele>
        <time>2021-05-18T09:02:32Z</time>
      </trkpt>
      <trkpt lat="41.7996120" lon="-8.8707870">
        <ele>10.0</ele>
        <time>2021-05-18T09:02:33Z</time>
      </trkpt>
      <trkpt lat="41.7996310" lon="-8.8707730">
        <ele>10.0</ele>
        <time>2021-05-18T09:02:34Z</time>
      </trkpt>
      <trkpt lat="41.7996380" lon="-8.8707620">
        <ele>10.0</ele>
        <time>2021-05-18T09:02:35Z</time>
      </trkpt>
      <trkpt lat="41.7996540" lon="-8.8707510">
        <ele>10.1</ele>
        <time>2021-05-18T09:02:36Z</time>
      </trkpt>
      <trkpt lat="41.7996630" lon="-8.8707410">
        <ele>10.1</ele>
        <time>2021-05-18T09:02:37Z</time>
      </trkpt>
      <trkpt lat="41.7996820" lon="-8.8707230">
        <ele>10.1</ele>
        <time>2021-05-18T09:02:38Z</time>
      </trkpt>
      <trkpt lat="41.7996910" lon="-8.8707140">
        <ele>10.1</ele>
        <time>2021-05-18T09:02:39Z</time>
      </trkpt>
      <trkpt lat="41.7997010" lon="-8.8707040">
        <ele>10.2</ele>
        <time>2021-05-18T09:02:40Z</time>
      </trkpt>
      <trkpt lat="41.7997170" lon="-8.8707020">
        <ele>10.2</ele>
        <time>2021-05-18T09:02:41Z</time>
      </trkpt>
      <trkpt lat="41.7997300" lon="-8.8706890">
        <ele>10.2</ele>
        <time>2021-05-18T09:02:42Z</time>
      </trkpt>
      <trkpt lat="41.7997420" lon="-8.8706730">
        <ele>10.2</ele>
        <time>2021-05-18T09:02:43Z</time>
      </trkpt>
      <trkpt lat="41.7997580" lon="-8.8706660">
        <ele>10.2</ele>
        <time>2021-05-18T09:02:44Z</time>
      </trkpt>
      <trkpt lat="41.7997720" lon="-8.8706550">
        <ele>10.2</ele>
        <time>2021-05-18T09:02:45Z</time>
      </trkpt>
      <trkpt lat="41.7997850" lon="-8.8706410">
        <ele>10.3</ele>
        <time>2021-05-18T09:02:46Z</time>
      </trkpt>
      <trkpt lat="41.7997950" lon="-8.8706280">
        <ele>10.3</ele>
        <time>2021-05-18T09:02:47Z</time>
      </trkpt>
      <trkpt lat="41.7998090" lon="-8.8706170">
        <ele>10.3</ele>
        <time>2021-05-18T09:02:48Z</time>
      </trkpt>
      <trkpt lat="41.7998220" lon="-8.8706060">
        <ele>10.3</ele>
        <time>2021-05-18T09:02:49Z</time>
      </trkpt>
      <trkpt lat="41.7998370" lon="-8.8705940">
        <ele>10.3</ele>
        <time>2021-05-18T09:02:50Z</time>
      </trkpt>
      <trkpt lat="41.7998490" lon="-8.8705830">
        <ele>10.3</ele>
        <time>2021-05-18T09:02:51Z</time>
      </trkpt>
      <trkpt lat="41.7998600" lon="-8.8705720">
        <ele>10.3</ele>
        <time>2021-05-18T09:02:52Z</time>
      </trkpt>
      <trkpt lat="41.7998780" lon="-8.8705570">
        <ele>10.3</ele>
        <time>2021-05-18T09:02:53Z</time>
      </trkpt>
      <trkpt lat="41.7998840" lon="-8.8705490">
        <ele>10.3</ele>
        <time>2021-05-18T09:02:54Z</time>
      </trkpt>
      <trkpt lat="41.7998910" lon="-8.8705420">
        <ele>10.3</ele>
        <time>2021-05-18T09:02:55Z</time>
      </trkpt>
      <trkpt lat="41.7999050" lon="-8.8705330">
        <ele>10.3</ele>
        <time>2021-05-18T09:02:56Z</time>
      </trkpt>
      <trkpt lat="41.7999140" lon="-8.8705190">
        <ele>10.4</ele>
        <time>2021-05-18T09:02:57Z</time>
      </trkpt>
      <trkpt lat="41.7999250" lon="-8.8705070">
        <ele>10.4</ele>
        <time>2021-05-18T09:02:58Z</time>
      </trkpt>
      <trkpt lat="41.7999370" lon="-8.8704960">
        <ele>10.4</ele>
        <time>2021-05-18T09:02:59Z</time>
      </trkpt>
      <trkpt lat="41.7999450" lon="-8.8704800">
        <ele>10.4</ele>
        <time>2021-05-18T09:03:00Z</time>
      </trkpt>
      <trkpt lat="41.7999600" lon="-8.8704710">
        <ele>10.4</ele>
        <time>2021-05-18T09:03:01Z</time>
      </trkpt>
      <trkpt lat="41.7999700" lon="-8.8704590">
        <ele>10.4</ele>
        <time>2021-05-18T09:03:02Z</time>
      </trkpt>
      <trkpt lat="41.7999800" lon="-8.8704440">
        <ele>10.4</ele>
        <time>2021-05-18T09:03:03Z</time>
      </trkpt>
      <trkpt lat="41.7999920" lon="-8.8704350">
        <ele>10.4</ele>
        <time>2021-05-18T09:03:04Z</time>
      </trkpt>
      <trkpt lat="41.8000030" lon="-8.8704230">
        <ele>10.4</ele>
        <time>2021-05-18T09:03:05Z</time>
      </trkpt>
      <trkpt lat="41.8000150" lon="-8.8704110">
        <ele>10.4</ele>
        <time>2021-05-18T09:03:06Z</time>
      </trkpt>
      <trkpt lat="41.8000260" lon="-8.8704000">
        <ele>10.4</ele>
        <time>2021-05-18T09:03:07Z</time>
      </trkpt>
      <trkpt lat="41.8000460" lon="-8.8703860">
        <ele>10.4</ele>
        <time>2021-05-18T09:03:08Z</time>
      </trkpt>
      <trkpt lat="41.8000530" lon="-8.8703800">
        <ele>10.4</ele>
        <time>2021-05-18T09:03:09Z</time>
      </trkpt>
      <trkpt lat="41.8000610" lon="-8.8703730">
        <ele>10.4</ele>
        <time>2021-05-18T09:03:10Z</time>
      </trkpt>
      <trkpt lat="41.8000740" lon="-8.8703630">
        <ele>10.4</ele>
        <time>2021-05-18T09:03:11Z</time>
      </trkpt>
      <trkpt lat="41.8000870" lon="-8.8703540">
        <ele>10.4</ele>
        <time>2021-05-18T09:03:12Z</time>
      </trkpt>
      <trkpt lat="41.8000980" lon="-8.8703390">
        <ele>10.4</ele>
        <time>2021-05-18T09:03:13Z</time>
      </trkpt>
      <trkpt lat="41.8001110" lon="-8.8703300">
        <ele>10.4</ele>
        <time>2021-05-18T09:03:14Z</time>
      </trkpt>
      <trkpt lat="41.8001250" lon="-8.8703170">
        <ele>10.4</ele>
        <time>2021-05-18T09:03:15Z</time>
      </trkpt>
      <trkpt lat="41.8001360" lon="-8.8703050">
        <ele>10.4</ele>
        <time>2021-05-18T09:03:16Z</time>
      </trkpt>
      <trkpt lat="41.8001450" lon="-8.8702910">
        <ele>10.4</ele>
        <time>2021-05-18T09:03:17Z</time>
      </trkpt>
      <trkpt lat="41.8001590" lon="-8.8702840">
        <ele>10.4</ele>
        <time>2021-05-18T09:03:18Z</time>
      </trkpt>
      <trkpt lat="41.8001720" lon="-8.8702740">
        <ele>10.4</ele>
        <time>2021-05-18T09:03:19Z</time>
      </trkpt>
      <trkpt lat="41.8001830" lon="-8.8702630">
        <ele>10.4</ele>
        <time>2021-05-18T09:03:20Z</time>
      </trkpt>
      <trkpt lat="41.8001940" lon="-8.8702520">
        <ele>10.4</ele>
        <time>2021-05-18T09:03:21Z</time>
      </trkpt>
      <trkpt lat="41.8002070" lon="-8.8702440">
        <ele>10.5</ele>
        <time>2021-05-18T09:03:22Z</time>
      </trkpt>
      <trkpt lat="41.8002190" lon="-8.8702330">
        <ele>10.5</ele>
        <time>2021-05-18T09:03:23Z</time>
      </trkpt>
      <trkpt lat="41.8002300" lon="-8.8702220">
        <ele>10.5</ele>
        <time>2021-05-18T09:03:24Z</time>
      </trkpt>
      <trkpt lat="41.8002420" lon="-8.8702080">
        <ele>10.5</ele>
        <time>2021-05-18T09:03:25Z</time>
      </trkpt>
      <trkpt lat="41.8002550" lon="-8.8701990">
        <ele>10.5</ele>
        <time>2021-05-18T09:03:26Z</time>
      </trkpt>
      <trkpt lat="41.8002650" lon="-8.8701840">
        <ele>10.5</ele>
        <time>2021-05-18T09:03:27Z</time>
      </trkpt>
      <trkpt lat="41.8002790" lon="-8.8701740">
        <ele>10.4</ele>
        <time>2021-05-18T09:03:28Z</time>
      </trkpt>
      <trkpt lat="41.8002930" lon="-8.8701700">
        <ele>10.4</ele>
        <time>2021-05-18T09:03:29Z</time>
      </trkpt>
      <trkpt lat="41.8003050" lon="-8.8701590">
        <ele>10.4</ele>
        <time>2021-05-18T09:03:30Z</time>
      </trkpt>
      <trkpt lat="41.8003140" lon="-8.8701480">
        <ele>10.4</ele>
        <time>2021-05-18T09:03:31Z</time>
      </trkpt>
      <trkpt lat="41.8003240" lon="-8.8701340">
        <ele>10.4</ele>
        <time>2021-05-18T09:03:32Z</time>
      </trkpt>
      <trkpt lat="41.8003350" lon="-8.8701240">
        <ele>10.4</ele>
        <time>2021-05-18T09:03:33Z</time>
      </trkpt>
      <trkpt lat="41.8003480" lon="-8.8701160">
        <ele>10.4</ele>
        <time>2021-05-18T09:03:34Z</time>
      </trkpt>
      <trkpt lat="41.8003610" lon="-8.8701100">
        <ele>10.4</ele>
        <time>2021-05-18T09:03:35Z</time>
      </trkpt>
      <trkpt lat="41.8003740" lon="-8.8701030">
        <ele>10.4</ele>
        <time>2021-05-18T09:03:36Z</time>
      </trkpt>
      <trkpt lat="41.8003840" lon="-8.8700900">
        <ele>10.4</ele>
        <time>2021-05-18T09:03:37Z</time>
      </trkpt>
      <trkpt lat="41.8003920" lon="-8.8700730">
        <ele>10.4</ele>
        <time>2021-05-18T09:03:38Z</time>
      </trkpt>
      <trkpt lat="41.8004120" lon="-8.8700560">
        <ele>10.4</ele>
        <time>2021-05-18T09:03:39Z</time>
      </trkpt>
      <trkpt lat="41.8004180" lon="-8.8700480">
        <ele>10.4</ele>
        <time>2021-05-18T09:03:40Z</time>
      </trkpt>
      <trkpt lat="41.8004250" lon="-8.8700400">
        <ele>10.4</ele>
        <time>2021-05-18T09:03:41Z</time>
      </trkpt>
      <trkpt lat="41.8004450" lon="-8.8700260">
        <ele>10.4</ele>
        <time>2021-05-18T09:03:42Z</time>
      </trkpt>
      <trkpt lat="41.8004520" lon="-8.8700200">
        <ele>10.4</ele>
        <time>2021-05-18T09:03:43Z</time>
      </trkpt>
      <trkpt lat="41.8004600" lon="-8.8700130">
        <ele>10.4</ele>
        <time>2021-05-18T09:03:44Z</time>
      </trkpt>
      <trkpt lat="41.8004720" lon="-8.8700040">
        <ele>10.4</ele>
        <time>2021-05-18T09:03:45Z</time>
      </trkpt>
      <trkpt lat="41.8004820" lon="-8.8699930">
        <ele>10.4</ele>
        <time>2021-05-18T09:03:46Z</time>
      </trkpt>
      <trkpt lat="41.8004940" lon="-8.8699810">
        <ele>10.4</ele>
        <time>2021-05-18T09:03:47Z</time>
      </trkpt>
      <trkpt lat="41.8005060" lon="-8.8699720">
        <ele>10.4</ele>
        <time>2021-05-18T09:03:48Z</time>
      </trkpt>
      <trkpt lat="41.8005170" lon="-8.8699620">
        <ele>10.4</ele>
        <time>2021-05-18T09:03:49Z</time>
      </trkpt>
      <trkpt lat="41.8005300" lon="-8.8699560">
        <ele>10.4</ele>
        <time>2021-05-18T09:03:50Z</time>
      </trkpt>
      <trkpt lat="41.8005430" lon="-8.8699460">
        <ele>10.4</ele>
        <time>2021-05-18T09:03:51Z</time>
      </trkpt>
      <trkpt lat="41.8005550" lon="-8.8699390">
        <ele>10.4</ele>
        <time>2021-05-18T09:03:52Z</time>
      </trkpt>
      <trkpt lat="41.8005710" lon="-8.8699200">
        <ele>10.4</ele>
        <time>2021-05-18T09:03:53Z</time>
      </trkpt>
      <trkpt lat="41.8005780" lon="-8.8699130">
        <ele>10.5</ele>
        <time>2021-05-18T09:03:54Z</time>
      </trkpt>
      <trkpt lat="41.8005850" lon="-8.8699070">
        <ele>10.5</ele>
        <time>2021-05-18T09:03:55Z</time>
      </trkpt>
      <trkpt lat="41.8006000" lon="-8.8698980">
        <ele>10.5</ele>
        <time>2021-05-18T09:03:56Z</time>
      </trkpt>
      <trkpt lat="41.8006110" lon="-8.8698910">
        <ele>10.5</ele>
        <time>2021-05-18T09:03:57Z</time>
      </trkpt>
      <trkpt lat="41.8006280" lon="-8.8698720">
        <ele>10.5</ele>
        <time>2021-05-18T09:03:58Z</time>
      </trkpt>
      <trkpt lat="41.8006360" lon="-8.8698690">
        <ele>10.5</ele>
        <time>2021-05-18T09:03:59Z</time>
      </trkpt>
      <trkpt lat="41.8006440" lon="-8.8698650">
        <ele>10.5</ele>
        <time>2021-05-18T09:04:00Z</time>
      </trkpt>
      <trkpt lat="41.8006550" lon="-8.8698540">
        <ele>10.5</ele>
        <time>2021-05-18T09:04:01Z</time>
      </trkpt>
      <trkpt lat="41.8006670" lon="-8.8698450">
        <ele>10.5</ele>
        <time>2021-05-18T09:04:02Z</time>
      </trkpt>
      <trkpt lat="41.8006790" lon="-8.8698300">
        <ele>10.5</ele>
        <time>2021-05-18T09:04:03Z</time>
      </trkpt>
      <trkpt lat="41.8006900" lon="-8.8698170">
        <ele>10.5</ele>
        <time>2021-05-18T09:04:04Z</time>
      </trkpt>
      <trkpt lat="41.8007000" lon="-8.8698050">
        <ele>10.5</ele>
        <time>2021-05-18T09:04:05Z</time>
      </trkpt>
      <trkpt lat="41.8007130" lon="-8.8697930">
        <ele>10.5</ele>
        <time>2021-05-18T09:04:06Z</time>
      </trkpt>
      <trkpt lat="41.8007320" lon="-8.8697810">
        <ele>10.5</ele>
        <time>2021-05-18T09:04:07Z</time>
      </trkpt>
      <trkpt lat="41.8007390" lon="-8.8697750">
        <ele>10.5</ele>
        <time>2021-05-18T09:04:08Z</time>
      </trkpt>
      <trkpt lat="41.8007470" lon="-8.8697690">
        <ele>10.5</ele>
        <time>2021-05-18T09:04:09Z</time>
      </trkpt>
      <trkpt lat="41.8007610" lon="-8.8697470">
        <ele>10.6</ele>
        <time>2021-05-18T09:04:10Z</time>
      </trkpt>
      <trkpt lat="41.8007680" lon="-8.8697400">
        <ele>10.6</ele>
        <time>2021-05-18T09:04:11Z</time>
      </trkpt>
      <trkpt lat="41.8007750" lon="-8.8697330">
        <ele>10.6</ele>
        <time>2021-05-18T09:04:12Z</time>
      </trkpt>
      <trkpt lat="41.8007850" lon="-8.8697210">
        <ele>10.6</ele>
        <time>2021-05-18T09:04:13Z</time>
      </trkpt>
      <trkpt lat="41.8007960" lon="-8.8697070">
        <ele>10.6</ele>
        <time>2021-05-18T09:04:14Z</time>
      </trkpt>
      <trkpt lat="41.8008090" lon="-8.8697020">
        <ele>10.6</ele>
        <time>2021-05-18T09:04:15Z</time>
      </trkpt>
      <trkpt lat="41.8008200" lon="-8.8696880">
        <ele>10.6</ele>
        <time>2021-05-18T09:04:16Z</time>
      </trkpt>
      <trkpt lat="41.8008380" lon="-8.8696710">
        <ele>10.6</ele>
        <time>2021-05-18T09:04:17Z</time>
      </trkpt>
      <trkpt lat="41.8008450" lon="-8.8696650">
        <ele>10.6</ele>
        <time>2021-05-18T09:04:18Z</time>
      </trkpt>
      <trkpt lat="41.8008530" lon="-8.8696600">
        <ele>10.6</ele>
        <time>2021-05-18T09:04:19Z</time>
      </trkpt>
      <trkpt lat="41.8008710" lon="-8.8696430">
        <ele>10.6</ele>
        <time>2021-05-18T09:04:20Z</time>
      </trkpt>
      <trkpt lat="41.8008770" lon="-8.8696340">
        <ele>10.6</ele>
        <time>2021-05-18T09:04:21Z</time>
      </trkpt>
      <trkpt lat="41.8008840" lon="-8.8696260">
        <ele>10.6</ele>
        <time>2021-05-18T09:04:22Z</time>
      </trkpt>
      <trkpt lat="41.8008950" lon="-8.8696000">
        <ele>10.7</ele>
        <time>2021-05-18T09:04:23Z</time>
      </trkpt>
      <trkpt lat="41.8008990" lon="-8.8695880">
        <ele>10.7</ele>
        <time>2021-05-18T09:04:24Z</time>
      </trkpt>
      <trkpt lat="41.8009020" lon="-8.8695770">
        <ele>10.7</ele>
        <time>2021-05-18T09:04:25Z</time>
      </trkpt>
      <trkpt lat="41.8009080" lon="-8.8695610">
        <ele>10.7</ele>
        <time>2021-05-18T09:04:26Z</time>
      </trkpt>
      <trkpt lat="41.8009110" lon="-8.8695470">
        <ele>10.7</ele>
        <time>2021-05-18T09:04:27Z</time>
      </trkpt>
      <trkpt lat="41.8009140" lon="-8.8695340">
        <ele>10.7</ele>
        <time>2021-05-18T09:04:28Z</time>
      </trkpt>
      <trkpt lat="41.8009200" lon="-8.8695240">
        <ele>10.7</ele>
        <time>2021-05-18T09:04:29Z</time>
      </trkpt>
      <trkpt lat="41.8009160" lon="-8.8695090">
        <ele>10.7</ele>
        <time>2021-05-18T09:04:30Z</time>
      </trkpt>
      <trkpt lat="41.8009180" lon="-8.8694890">
        <ele>10.7</ele>
        <time>2021-05-18T09:04:31Z</time>
      </trkpt>
      <trkpt lat="41.8009180" lon="-8.8694610">
        <ele>10.8</ele>
        <time>2021-05-18T09:04:32Z</time>
      </trkpt>
      <trkpt lat="41.8009170" lon="-8.8694480">
        <ele>10.8</ele>
        <time>2021-05-18T09:04:33Z</time>
      </trkpt>
      <trkpt lat="41.8009170" lon="-8.8694360">
        <ele>10.8</ele>
        <time>2021-05-18T09:04:34Z</time>
      </trkpt>
      <trkpt lat="41.8009200" lon="-8.8694260">
        <ele>10.8</ele>
        <time>2021-05-18T09:04:35Z</time>
      </trkpt>
      <trkpt lat="41.8009270" lon="-8.8694120">
        <ele>10.8</ele>
        <time>2021-05-18T09:04:36Z</time>
      </trkpt>
      <trkpt lat="41.8009330" lon="-8.8694030">
        <ele>10.8</ele>
        <time>2021-05-18T09:04:37Z</time>
      </trkpt>
      <trkpt lat="41.8009430" lon="-8.8693760">
        <ele>10.9</ele>
        <time>2021-05-18T09:04:38Z</time>
      </trkpt>
      <trkpt lat="41.8009470" lon="-8.8693660">
        <ele>10.9</ele>
        <time>2021-05-18T09:04:39Z</time>
      </trkpt>
      <trkpt lat="41.8009500" lon="-8.8693570">
        <ele>10.9</ele>
        <time>2021-05-18T09:04:40Z</time>
      </trkpt>
      <trkpt lat="41.8009560" lon="-8.8693530">
        <ele>10.9</ele>
        <time>2021-05-18T09:04:41Z</time>
      </trkpt>
      <trkpt lat="41.8009600" lon="-8.8693350">
        <ele>10.9</ele>
        <time>2021-05-18T09:04:42Z</time>
      </trkpt>
      <trkpt lat="41.8009670" lon="-8.8693290">
        <ele>11.0</ele>
        <time>2021-05-18T09:04:43Z</time>
      </trkpt>
      <trkpt lat="41.8009680" lon="-8.8693080">
        <ele>11.0</ele>
        <time>2021-05-18T09:04:44Z</time>
      </trkpt>
      <trkpt lat="41.8009700" lon="-8.8692910">
        <ele>11.0</ele>
        <time>2021-05-18T09:04:45Z</time>
      </trkpt>
      <trkpt lat="41.8009790" lon="-8.8692620">
        <ele>11.1</ele>
        <time>2021-05-18T09:04:46Z</time>
      </trkpt>
      <trkpt lat="41.8009820" lon="-8.8692510">
        <ele>11.1</ele>
        <time>2021-05-18T09:04:47Z</time>
      </trkpt>
      <trkpt lat="41.8009840" lon="-8.8692400">
        <ele>11.1</ele>
        <time>2021-05-18T09:04:48Z</time>
      </trkpt>
      <trkpt lat="41.8009860" lon="-8.8692280">
        <ele>11.1</ele>
        <time>2021-05-18T09:04:49Z</time>
      </trkpt>
      <trkpt lat="41.8009910" lon="-8.8692140">
        <ele>11.2</ele>
        <time>2021-05-18T09:04:50Z</time>
      </trkpt>
      <trkpt lat="41.8009990" lon="-8.8691970">
        <ele>11.2</ele>
        <time>2021-05-18T09:04:51Z</time>
      </trkpt>
      <trkpt lat="41.8010110" lon="-8.8691670">
        <ele>11.3</ele>
        <time>2021-05-18T09:04:52Z</time>
      </trkpt>
      <trkpt lat="41.8010150" lon="-8.8691570">
        <ele>11.3</ele>
        <time>2021-05-18T09:04:53Z</time>
      </trkpt>
      <trkpt lat="41.8010180" lon="-8.8691460">
        <ele>11.3</ele>
        <time>2021-05-18T09:04:54Z</time>
      </trkpt>
      <trkpt lat="41.8010240" lon="-8.8691340">
        <ele>11.3</ele>
        <time>2021-05-18T09:04:55Z</time>
      </trkpt>
      <trkpt lat="41.8010300" lon="-8.8691120">
        <ele>11.4</ele>
        <time>2021-05-18T09:04:56Z</time>
      </trkpt>
      <trkpt lat="41.8010330" lon="-8.8691010">
        <ele>11.4</ele>
        <time>2021-05-18T09:04:57Z</time>
      </trkpt>
      <trkpt lat="41.8010430" lon="-8.8690820">
        <ele>11.5</ele>
        <time>2021-05-18T09:04:58Z</time>
      </trkpt>
      <trkpt lat="41.8010460" lon="-8.8690710">
        <ele>11.5</ele>
        <time>2021-05-18T09:04:59Z</time>
      </trkpt>
      <trkpt lat="41.8010490" lon="-8.8690480">
        <ele>11.5</ele>
        <time>2021-05-18T09:05:00Z</time>
      </trkpt>
      <trkpt lat="41.8010610" lon="-8.8690300">
        <ele>11.6</ele>
        <time>2021-05-18T09:05:01Z</time>
      </trkpt>
      <trkpt lat="41.8010700" lon="-8.8690120">
        <ele>11.6</ele>
        <time>2021-05-18T09:05:02Z</time>
      </trkpt>
      <trkpt lat="41.8010730" lon="-8.8689930">
        <ele>11.6</ele>
        <time>2021-05-18T09:05:03Z</time>
      </trkpt>
      <trkpt lat="41.8010770" lon="-8.8689740">
        <ele>11.7</ele>
        <time>2021-05-18T09:05:04Z</time>
      </trkpt>
      <trkpt lat="41.8010860" lon="-8.8689600">
        <ele>11.7</ele>
        <time>2021-05-18T09:05:05Z</time>
      </trkpt>
      <trkpt lat="41.8010930" lon="-8.8689440">
        <ele>11.7</ele>
        <time>2021-05-18T09:05:06Z</time>
      </trkpt>
      <trkpt lat="41.8010990" lon="-8.8689260">
        <ele>11.8</ele>
        <time>2021-05-18T09:05:07Z</time>
      </trkpt>
      <trkpt lat="41.8011110" lon="-8.8689130">
        <ele>11.8</ele>
        <time>2021-05-18T09:05:08Z</time>
      </trkpt>
      <trkpt lat="41.8011190" lon="-8.8689000">
        <ele>11.8</ele>
        <time>2021-05-18T09:05:09Z</time>
      </trkpt>
      <trkpt lat="41.8011270" lon="-8.8688840">
        <ele>11.9</ele>
        <time>2021-05-18T09:05:10Z</time>
      </trkpt>
      <trkpt lat="41.8011390" lon="-8.8688710">
        <ele>11.9</ele>
        <time>2021-05-18T09:05:11Z</time>
      </trkpt>
      <trkpt lat="41.8011480" lon="-8.8688540">
        <ele>11.9</ele>
        <time>2021-05-18T09:05:12Z</time>
      </trkpt>
      <trkpt lat="41.8011540" lon="-8.8688350">
        <ele>12.0</ele>
        <time>2021-05-18T09:05:13Z</time>
      </trkpt>
      <trkpt lat="41.8011640" lon="-8.8688220">
        <ele>12.0</ele>
        <time>2021-05-18T09:05:14Z</time>
      </trkpt>
      <trkpt lat="41.8011700" lon="-8.8688040">
        <ele>12.0</ele>
        <time>2021-05-18T09:05:15Z</time>
      </trkpt>
      <trkpt lat="41.8011810" lon="-8.8687880">
        <ele>12.1</ele>
        <time>2021-05-18T09:05:16Z</time>
      </trkpt>
      <trkpt lat="41.8011900" lon="-8.8687710">
        <ele>12.1</ele>
        <time>2021-05-18T09:05:17Z</time>
      </trkpt>
      <trkpt lat="41.8011970" lon="-8.8687540">
        <ele>12.1</ele>
        <time>2021-05-18T09:05:18Z</time>
      </trkpt>
      <trkpt lat="41.8012060" lon="-8.8687390">
        <ele>12.1</ele>
        <time>2021-05-18T09:05:19Z</time>
      </trkpt>
      <trkpt lat="41.8012140" lon="-8.8687220">
        <ele>12.2</ele>
        <time>2021-05-18T09:05:20Z</time>
      </trkpt>
      <trkpt lat="41.8012220" lon="-8.8687040">
        <ele>12.2</ele>
        <time>2021-05-18T09:05:21Z</time>
      </trkpt>
      <trkpt lat="41.8012300" lon="-8.8686900">
        <ele>12.2</ele>
        <time>2021-05-18T09:05:22Z</time>
      </trkpt>
      <trkpt lat="41.8012360" lon="-8.8686740">
        <ele>12.2</ele>
        <time>2021-05-18T09:05:23Z</time>
      </trkpt>
      <trkpt lat="41.8012490" lon="-8.8686630">
        <ele>12.3</ele>
        <time>2021-05-18T09:05:24Z</time>
      </trkpt>
      <trkpt lat="41.8012580" lon="-8.8686490">
        <ele>12.3</ele>
        <time>2021-05-18T09:05:25Z</time>
      </trkpt>
      <trkpt lat="41.8012690" lon="-8.8686340">
        <ele>12.3</ele>
        <time>2021-05-18T09:05:26Z</time>
      </trkpt>
      <trkpt lat="41.8012790" lon="-8.8686200">
        <ele>12.3</ele>
        <time>2021-05-18T09:05:27Z</time>
      </trkpt>
      <trkpt lat="41.8012890" lon="-8.8686080">
        <ele>12.4</ele>
        <time>2021-05-18T09:05:28Z</time>
      </trkpt>
      <trkpt lat="41.8013000" lon="-8.8685950">
        <ele>12.4</ele>
        <time>2021-05-18T09:05:29Z</time>
      </trkpt>
      <trkpt lat="41.8013080" lon="-8.8685780">
        <ele>12.4</ele>
        <time>2021-05-18T09:05:30Z</time>
      </trkpt>
      <trkpt lat="41.8013200" lon="-8.8685650">
        <ele>12.4</ele>
        <time>2021-05-18T09:05:31Z</time>
      </trkpt>
      <trkpt lat="41.8013280" lon="-8.8685510">
        <ele>12.5</ele>
        <time>2021-05-18T09:05:32Z</time>
      </trkpt>
      <trkpt lat="41.8013380" lon="-8.8685380">
        <ele>12.5</ele>
        <time>2021-05-18T09:05:33Z</time>
      </trkpt>
      <trkpt lat="41.8013460" lon="-8.8685240">
        <ele>12.5</ele>
        <time>2021-05-18T09:05:34Z</time>
      </trkpt>
      <trkpt lat="41.8013510" lon="-8.8685060">
        <ele>12.5</ele>
        <time>2021-05-18T09:05:35Z</time>
      </trkpt>
      <trkpt lat="41.8013620" lon="-8.8684940">
        <ele>12.5</ele>
        <time>2021-05-18T09:05:36Z</time>
      </trkpt>
      <trkpt lat="41.8013720" lon="-8.8684810">
        <ele>12.5</ele>
        <time>2021-05-18T09:05:37Z</time>
      </trkpt>
      <trkpt lat="41.8013900" lon="-8.8684600">
        <ele>12.5</ele>
        <time>2021-05-18T09:05:38Z</time>
      </trkpt>
      <trkpt lat="41.8013960" lon="-8.8684510">
        <ele>12.5</ele>
        <time>2021-05-18T09:05:39Z</time>
      </trkpt>
      <trkpt lat="41.8014030" lon="-8.8684410">
        <ele>12.5</ele>
        <time>2021-05-18T09:05:40Z</time>
      </trkpt>
      <trkpt lat="41.8014100" lon="-8.8684260">
        <ele>12.5</ele>
        <time>2021-05-18T09:05:41Z</time>
      </trkpt>
      <trkpt lat="41.8014170" lon="-8.8684100">
        <ele>12.5</ele>
        <time>2021-05-18T09:05:42Z</time>
      </trkpt>
      <trkpt lat="41.8014300" lon="-8.8684020">
        <ele>12.5</ele>
        <time>2021-05-18T09:05:43Z</time>
      </trkpt>
      <trkpt lat="41.8014440" lon="-8.8683950">
        <ele>12.5</ele>
        <time>2021-05-18T09:05:44Z</time>
      </trkpt>
      <trkpt lat="41.8014630" lon="-8.8683840">
        <ele>12.5</ele>
        <time>2021-05-18T09:05:45Z</time>
      </trkpt>
      <trkpt lat="41.8014710" lon="-8.8683790">
        <ele>12.5</ele>
        <time>2021-05-18T09:05:46Z</time>
      </trkpt>
      <trkpt lat="41.8014780" lon="-8.8683750">
        <ele>12.5</ele>
        <time>2021-05-18T09:05:47Z</time>
      </trkpt>
      <trkpt lat="41.8014900" lon="-8.8683650">
        <ele>12.4</ele>
        <time>2021-05-18T09:05:48Z</time>
      </trkpt>
      <trkpt lat="41.8015020" lon="-8.8683550">
        <ele>12.4</ele>
        <time>2021-05-18T09:05:49Z</time>
      </trkpt>
      <trkpt lat="41.8015080" lon="-8.8683450">
        <ele>12.4</ele>
        <time>2021-05-18T09:05:50Z</time>
      </trkpt>
      <trkpt lat="41.8015220" lon="-8.8683420">
        <ele>12.4</ele>
        <time>2021-05-18T09:05:51Z</time>
      </trkpt>
      <trkpt lat="41.8015300" lon="-8.8683370">
        <ele>12.3</ele>
        <time>2021-05-18T09:05:52Z</time>
      </trkpt>
      <trkpt lat="41.8015350" lon="-8.8683280">
        <ele>12.3</ele>
        <time>2021-05-18T09:05:53Z</time>
      </trkpt>
      <trkpt lat="41.8015490" lon="-8.8683240">
        <ele>12.3</ele>
        <time>2021-05-18T09:05:54Z</time>
      </trkpt>
      <trkpt lat="41.8015610" lon="-8.8683140">
        <ele>12.3</ele>
        <time>2021-05-18T09:05:55Z</time>
      </trkpt>
      <trkpt lat="41.8015650" lon="-8.8683060">
        <ele>12.2</ele>
        <time>2021-05-18T09:05:56Z</time>
      </trkpt>
      <trkpt lat="41.8015750" lon="-8.8683040">
        <ele>12.2</ele>
        <time>2021-05-18T09:05:57Z</time>
      </trkpt>
      <trkpt lat="41.8015870" lon="-8.8682970">
        <ele>12.2</ele>
        <time>2021-05-18T09:05:58Z</time>
      </trkpt>
      <trkpt lat="41.8015930" lon="-8.8682870">
        <ele>12.1</ele>
        <time>2021-05-18T09:05:59Z</time>
      </trkpt>
      <trkpt lat="41.8015990" lon="-8.8682770">
        <ele>12.1</ele>
        <time>2021-05-18T09:06:00Z</time>
      </trkpt>
      <trkpt lat="41.8016110" lon="-8.8682630">
        <ele>12.1</ele>
        <time>2021-05-18T09:06:01Z</time>
      </trkpt>
      <trkpt lat="41.8016200" lon="-8.8682580">
        <ele>12.0</ele>
        <time>2021-05-18T09:06:02Z</time>
      </trkpt>
      <trkpt lat="41.8016260" lon="-8.8682480">
        <ele>12.0</ele>
        <time>2021-05-18T09:06:03Z</time>
      </trkpt>
      <trkpt lat="41.8016390" lon="-8.8682420">
        <ele>12.0</ele>
        <time>2021-05-18T09:06:04Z</time>
      </trkpt>
      <trkpt lat="41.8016480" lon="-8.8682340">
        <ele>11.9</ele>
        <time>2021-05-18T09:06:05Z</time>
      </trkpt>
      <trkpt lat="41.8016570" lon="-8.8682260">
        <ele>11.9</ele>
        <time>2021-05-18T09:06:06Z</time>
      </trkpt>
      <trkpt lat="41.8016660" lon="-8.8682170">
        <ele>11.9</ele>
        <time>2021-05-18T09:06:07Z</time>
      </trkpt>
      <trkpt lat="41.8016790" lon="-8.8682030">
        <ele>11.8</ele>
        <time>2021-05-18T09:06:08Z</time>
      </trkpt>
      <trkpt lat="41.8016860" lon="-8.8681890">
        <ele>11.8</ele>
        <time>2021-05-18T09:06:09Z</time>
      </trkpt>
      <trkpt lat="41.8016990" lon="-8.8681780">
        <ele>11.8</ele>
        <time>2021-05-18T09:06:10Z</time>
      </trkpt>
      <trkpt lat="41.8017040" lon="-8.8681680">
        <ele>11.7</ele>
        <time>2021-05-18T09:06:11Z</time>
      </trkpt>
      <trkpt lat="41.8017110" lon="-8.8681640">
        <ele>11.7</ele>
        <time>2021-05-18T09:06:12Z</time>
      </trkpt>
      <trkpt lat="41.8017260" lon="-8.8681530">
        <ele>11.7</ele>
        <time>2021-05-18T09:06:13Z</time>
      </trkpt>
      <trkpt lat="41.8017360" lon="-8.8681460">
        <ele>11.7</ele>
        <time>2021-05-18T09:06:14Z</time>
      </trkpt>
      <trkpt lat="41.8017440" lon="-8.8681320">
        <ele>11.6</ele>
        <time>2021-05-18T09:06:15Z</time>
      </trkpt>
      <trkpt lat="41.8017510" lon="-8.8681220">
        <ele>11.6</ele>
        <time>2021-05-18T09:06:16Z</time>
      </trkpt>
      <trkpt lat="41.8017620" lon="-8.8681120">
        <ele>11.6</ele>
        <time>2021-05-18T09:06:17Z</time>
      </trkpt>
      <trkpt lat="41.8017770" lon="-8.8680940">
        <ele>11.5</ele>
        <time>2021-05-18T09:06:18Z</time>
      </trkpt>
      <trkpt lat="41.8017840" lon="-8.8680850">
        <ele>11.5</ele>
        <time>2021-05-18T09:06:19Z</time>
      </trkpt>
      <trkpt lat="41.8017910" lon="-8.8680770">
        <ele>11.5</ele>
        <time>2021-05-18T09:06:20Z</time>
      </trkpt>
      <trkpt lat="41.8018010" lon="-8.8680690">
        <ele>11.5</ele>
        <time>2021-05-18T09:06:21Z</time>
      </trkpt>
      <trkpt lat="41.8018100" lon="-8.8680550">
        <ele>11.4</ele>
        <time>2021-05-18T09:06:22Z</time>
      </trkpt>
      <trkpt lat="41.8018090" lon="-8.8680470">
        <ele>11.4</ele>
        <time>2021-05-18T09:06:23Z</time>
      </trkpt>
      <trkpt lat="41.8018060" lon="-8.8680540">
        <ele>11.4</ele>
        <time>2021-05-18T09:06:24Z</time>
      </trkpt>
      <trkpt lat="41.8018060" lon="-8.8680540">
        <ele>11.4</ele>
        <time>2021-05-18T09:06:25Z</time>
      </trkpt>
      <trkpt lat="41.8018070" lon="-8.8680540">
        <ele>11.4</ele>
        <time>2021-05-18T09:06:26Z</time>
      </trkpt>
      <trkpt lat="41.8018060" lon="-8.8680550">
        <ele>11.4</ele>
        <time>2021-05-18T09:06:27Z</time>
      </trkpt>
      <trkpt lat="41.8018060" lon="-8.8680540">
        <ele>11.4</ele>
        <time>2021-05-18T09:06:28Z</time>
      </trkpt>
      <trkpt lat="41.8018080" lon="-8.8680450">
        <ele>11.4</ele>
        <time>2021-05-18T09:06:29Z</time>
      </trkpt>
      <trkpt lat="41.8018180" lon="-8.8680420">
        <ele>11.4</ele>
        <time>2021-05-18T09:06:30Z</time>
      </trkpt>
      <trkpt lat="41.8018360" lon="-8.8680270">
        <ele>11.3</ele>
        <time>2021-05-18T09:06:31Z</time>
      </trkpt>
      <trkpt lat="41.8018490" lon="-8.8680150">
        <ele>11.3</ele>
        <time>2021-05-18T09:06:32Z</time>
      </trkpt>
      <trkpt lat="41.8018600" lon="-8.8680030">
        <ele>11.3</ele>
        <time>2021-05-18T09:06:33Z</time>
      </trkpt>
      <trkpt lat="41.8018670" lon="-8.8680000">
        <ele>11.3</ele>
        <time>2021-05-18T09:06:34Z</time>
      </trkpt>
      <trkpt lat="41.8018670" lon="-8.8680030">
        <ele>11.2</ele>
        <time>2021-05-18T09:06:35Z</time>
      </trkpt>
      <trkpt lat="41.8018670" lon="-8.8679970">
        <ele>11.2</ele>
        <time>2021-05-18T09:06:36Z</time>
      </trkpt>
      <trkpt lat="41.8018730" lon="-8.8679900">
        <ele>11.2</ele>
        <time>2021-05-18T09:06:37Z</time>
      </trkpt>
      <trkpt lat="41.8018880" lon="-8.8679740">
        <ele>11.2</ele>
        <time>2021-05-18T09:06:38Z</time>
      </trkpt>
      <trkpt lat="41.8018990" lon="-8.8679730">
        <ele>11.1</ele>
        <time>2021-05-18T09:06:39Z</time>
      </trkpt>
      <trkpt lat="41.8019140" lon="-8.8679600">
        <ele>11.1</ele>
        <time>2021-05-18T09:06:40Z</time>
      </trkpt>
      <trkpt lat="41.8019200" lon="-8.8679540">
        <ele>11.1</ele>
        <time>2021-05-18T09:06:41Z</time>
      </trkpt>
      <trkpt lat="41.8019310" lon="-8.8679440">
        <ele>11.1</ele>
        <time>2021-05-18T09:06:42Z</time>
      </trkpt>
      <trkpt lat="41.8019400" lon="-8.8679410">
        <ele>11.0</ele>
        <time>2021-05-18T09:06:43Z</time>
      </trkpt>
      <trkpt lat="41.8019520" lon="-8.8679320">
        <ele>11.0</ele>
        <time>2021-05-18T09:06:44Z</time>
      </trkpt>
      <trkpt lat="41.8019640" lon="-8.8679190">
        <ele>11.0</ele>
        <time>2021-05-18T09:06:45Z</time>
      </trkpt>
      <trkpt lat="41.8019790" lon="-8.8678940">
        <ele>10.9</ele>
        <time>2021-05-18T09:06:46Z</time>
      </trkpt>
      <trkpt lat="41.8019850" lon="-8.8678860">
        <ele>10.9</ele>
        <time>2021-05-18T09:06:47Z</time>
      </trkpt>
      <trkpt lat="41.8019920" lon="-8.8678770">
        <ele>10.9</ele>
        <time>2021-05-18T09:06:48Z</time>
      </trkpt>
      <trkpt lat="41.8020010" lon="-8.8678660">
        <ele>10.9</ele>
        <time>2021-05-18T09:06:49Z</time>
      </trkpt>
      <trkpt lat="41.8020160" lon="-8.8678540">
        <ele>10.8</ele>
        <time>2021-05-18T09:06:50Z</time>
      </trkpt>
      <trkpt lat="41.8020290" lon="-8.8678420">
        <ele>10.8</ele>
        <time>2021-05-18T09:06:51Z</time>
      </trkpt>
      <trkpt lat="41.8020390" lon="-8.8678280">
        <ele>10.8</ele>
        <time>2021-05-18T09:06:52Z</time>
      </trkpt>
      <trkpt lat="41.8020500" lon="-8.8678130">
        <ele>10.8</ele>
        <time>2021-05-18T09:06:53Z</time>
      </trkpt>
      <trkpt lat="41.8020620" lon="-8.8677990">
        <ele>10.8</ele>
        <time>2021-05-18T09:06:54Z</time>
      </trkpt>
      <trkpt lat="41.8020770" lon="-8.8677890">
        <ele>10.8</ele>
        <time>2021-05-18T09:06:55Z</time>
      </trkpt>
      <trkpt lat="41.8020880" lon="-8.8677760">
        <ele>10.8</ele>
        <time>2021-05-18T09:06:56Z</time>
      </trkpt>
      <trkpt lat="41.8020990" lon="-8.8677650">
        <ele>10.8</ele>
        <time>2021-05-18T09:06:57Z</time>
      </trkpt>
      <trkpt lat="41.8021120" lon="-8.8677530">
        <ele>10.8</ele>
        <time>2021-05-18T09:06:58Z</time>
      </trkpt>
      <trkpt lat="41.8021260" lon="-8.8677420">
        <ele>10.8</ele>
        <time>2021-05-18T09:06:59Z</time>
      </trkpt>
      <trkpt lat="41.8021360" lon="-8.8677300">
        <ele>10.8</ele>
        <time>2021-05-18T09:07:00Z</time>
      </trkpt>
      <trkpt lat="41.8021530" lon="-8.8677110">
        <ele>10.8</ele>
        <time>2021-05-18T09:07:01Z</time>
      </trkpt>
      <trkpt lat="41.8021590" lon="-8.8677030">
        <ele>10.8</ele>
        <time>2021-05-18T09:07:02Z</time>
      </trkpt>
      <trkpt lat="41.8021640" lon="-8.8676960">
        <ele>10.8</ele>
        <time>2021-05-18T09:07:03Z</time>
      </trkpt>
      <trkpt lat="41.8021740" lon="-8.8676880">
        <ele>10.8</ele>
        <time>2021-05-18T09:07:04Z</time>
      </trkpt>
      <trkpt lat="41.8021790" lon="-8.8676810">
        <ele>10.8</ele>
        <time>2021-05-18T09:07:05Z</time>
      </trkpt>
      <trkpt lat="41.8021870" lon="-8.8676660">
        <ele>10.9</ele>
        <time>2021-05-18T09:07:06Z</time>
      </trkpt>
      <trkpt lat="41.8022000" lon="-8.8676480">
        <ele>10.9</ele>
        <time>2021-05-18T09:07:07Z</time>
      </trkpt>
      <trkpt lat="41.8022060" lon="-8.8676400">
        <ele>10.9</ele>
        <time>2021-05-18T09:07:08Z</time>
      </trkpt>
      <trkpt lat="41.8022130" lon="-8.8676310">
        <ele>10.9</ele>
        <time>2021-05-18T09:07:09Z</time>
      </trkpt>
      <trkpt lat="41.8022260" lon="-8.8676180">
        <ele>11.0</ele>
        <time>2021-05-18T09:07:10Z</time>
      </trkpt>
      <trkpt lat="41.8022360" lon="-8.8676080">
        <ele>11.0</ele>
        <time>2021-05-18T09:07:11Z</time>
      </trkpt>
      <trkpt lat="41.8022470" lon="-8.8676010">
        <ele>11.0</ele>
        <time>2021-05-18T09:07:12Z</time>
      </trkpt>
      <trkpt lat="41.8022610" lon="-8.8675890">
        <ele>11.1</ele>
        <time>2021-05-18T09:07:13Z</time>
      </trkpt>
      <trkpt lat="41.8022760" lon="-8.8675840">
        <ele>11.1</ele>
        <time>2021-05-18T09:07:14Z</time>
      </trkpt>
      <trkpt lat="41.8022880" lon="-8.8675750">
        <ele>11.2</ele>
        <time>2021-05-18T09:07:15Z</time>
      </trkpt>
      <trkpt lat="41.8023040" lon="-8.8675720">
        <ele>11.2</ele>
        <time>2021-05-18T09:07:16Z</time>
      </trkpt>
      <trkpt lat="41.8023170" lon="-8.8675630">
        <ele>11.3</ele>
        <time>2021-05-18T09:07:17Z</time>
      </trkpt>
      <trkpt lat="41.8023270" lon="-8.8675460">
        <ele>11.3</ele>
        <time>2021-05-18T09:07:18Z</time>
      </trkpt>
      <trkpt lat="41.8023390" lon="-8.8675360">
        <ele>11.4</ele>
        <time>2021-05-18T09:07:19Z</time>
      </trkpt>
      <trkpt lat="41.8023500" lon="-8.8675200">
        <ele>11.4</ele>
        <time>2021-05-18T09:07:20Z</time>
      </trkpt>
      <trkpt lat="41.8023630" lon="-8.8675080">
        <ele>11.4</ele>
        <time>2021-05-18T09:07:21Z</time>
      </trkpt>
      <trkpt lat="41.8023780" lon="-8.8675000">
        <ele>11.5</ele>
        <time>2021-05-18T09:07:22Z</time>
      </trkpt>
      <trkpt lat="41.8023880" lon="-8.8674850">
        <ele>11.5</ele>
        <time>2021-05-18T09:07:23Z</time>
      </trkpt>
      <trkpt lat="41.8024000" lon="-8.8674840">
        <ele>11.6</ele>
        <time>2021-05-18T09:07:24Z</time>
      </trkpt>
      <trkpt lat="41.8024070" lon="-8.8674750">
        <ele>11.6</ele>
        <time>2021-05-18T09:07:25Z</time>
      </trkpt>
      <trkpt lat="41.8024140" lon="-8.8674680">
        <ele>11.6</ele>
        <time>2021-05-18T09:07:26Z</time>
      </trkpt>
      <trkpt lat="41.8024230" lon="-8.8674540">
        <ele>11.7</ele>
        <time>2021-05-18T09:07:27Z</time>
      </trkpt>
      <trkpt lat="41.8024350" lon="-8.8674380">
        <ele>11.7</ele>
        <time>2021-05-18T09:07:28Z</time>
      </trkpt>
      <trkpt lat="41.8024470" lon="-8.8674250">
        <ele>11.7</ele>
        <time>2021-05-18T09:07:29Z</time>
      </trkpt>
      <trkpt lat="41.8024540" lon="-8.8674280">
        <ele>11.7</ele>
        <time>2021-05-18T09:07:30Z</time>
      </trkpt>
      <trkpt lat="41.8024600" lon="-8.8674200">
        <ele>11.8</ele>
        <time>2021-05-18T09:07:31Z</time>
      </trkpt>
      <trkpt lat="41.8024790" lon="-8.8674080">
        <ele>11.8</ele>
        <time>2021-05-18T09:07:32Z</time>
      </trkpt>
      <trkpt lat="41.8024850" lon="-8.8673990">
        <ele>11.8</ele>
        <time>2021-05-18T09:07:33Z</time>
      </trkpt>
      <trkpt lat="41.8024920" lon="-8.8673900">
        <ele>11.8</ele>
        <time>2021-05-18T09:07:34Z</time>
      </trkpt>
      <trkpt lat="41.8025080" lon="-8.8673790">
        <ele>11.8</ele>
        <time>2021-05-18T09:07:35Z</time>
      </trkpt>
      <trkpt lat="41.8025170" lon="-8.8673730">
        <ele>11.8</ele>
        <time>2021-05-18T09:07:36Z</time>
      </trkpt>
      <trkpt lat="41.8025280" lon="-8.8673640">
        <ele>11.9</ele>
        <time>2021-05-18T09:07:37Z</time>
      </trkpt>
      <trkpt lat="41.8025400" lon="-8.8673520">
        <ele>11.9</ele>
        <time>2021-05-18T09:07:38Z</time>
      </trkpt>
      <trkpt lat="41.8025480" lon="-8.8673460">
        <ele>11.9</ele>
        <time>2021-05-18T09:07:39Z</time>
      </trkpt>
      <trkpt lat="41.8025610" lon="-8.8673360">
        <ele>11.9</ele>
        <time>2021-05-18T09:07:40Z</time>
      </trkpt>
      <trkpt lat="41.8025690" lon="-8.8673310">
        <ele>11.9</ele>
        <time>2021-05-18T09:07:41Z</time>
      </trkpt>
      <trkpt lat="41.8025830" lon="-8.8673150">
        <ele>11.9</ele>
        <time>2021-05-18T09:07:42Z</time>
      </trkpt>
      <trkpt lat="41.8025880" lon="-8.8673030">
        <ele>11.9</ele>
        <time>2021-05-18T09:07:43Z</time>
      </trkpt>
      <trkpt lat="41.8026010" lon="-8.8672940">
        <ele>11.9</ele>
        <time>2021-05-18T09:07:44Z</time>
      </trkpt>
      <trkpt lat="41.8026110" lon="-8.8672790">
        <ele>11.9</ele>
        <time>2021-05-18T09:07:45Z</time>
      </trkpt>
      <trkpt lat="41.8026340" lon="-8.8672720">
        <ele>11.9</ele>
        <time>2021-05-18T09:07:46Z</time>
      </trkpt>
      <trkpt lat="41.8026420" lon="-8.8672670">
        <ele>11.9</ele>
        <time>2021-05-18T09:07:47Z</time>
      </trkpt>
      <trkpt lat="41.8026510" lon="-8.8672630">
        <ele>11.8</ele>
        <time>2021-05-18T09:07:48Z</time>
      </trkpt>
      <trkpt lat="41.8026580" lon="-8.8672590">
        <ele>11.8</ele>
        <time>2021-05-18T09:07:49Z</time>
      </trkpt>
      <trkpt lat="41.8026710" lon="-8.8672560">
        <ele>11.8</ele>
        <time>2021-05-18T09:07:50Z</time>
      </trkpt>
      <trkpt lat="41.8026820" lon="-8.8672540">
        <ele>11.8</ele>
        <time>2021-05-18T09:07:51Z</time>
      </trkpt>
      <trkpt lat="41.8027000" lon="-8.8672490">
        <ele>11.8</ele>
        <time>2021-05-18T09:07:52Z</time>
      </trkpt>
      <trkpt lat="41.8027110" lon="-8.8672430">
        <ele>11.8</ele>
        <time>2021-05-18T09:07:53Z</time>
      </trkpt>
      <trkpt lat="41.8027210" lon="-8.8672380">
        <ele>11.8</ele>
        <time>2021-05-18T09:07:54Z</time>
      </trkpt>
      <trkpt lat="41.8027380" lon="-8.8672330">
        <ele>11.8</ele>
        <time>2021-05-18T09:07:55Z</time>
      </trkpt>
      <trkpt lat="41.8027490" lon="-8.8672260">
        <ele>11.7</ele>
        <time>2021-05-18T09:07:56Z</time>
      </trkpt>
      <trkpt lat="41.8027650" lon="-8.8672220">
        <ele>11.7</ele>
        <time>2021-05-18T09:07:57Z</time>
      </trkpt>
      <trkpt lat="41.8027840" lon="-8.8672150">
        <ele>11.7</ele>
        <time>2021-05-18T09:07:58Z</time>
      </trkpt>
      <trkpt lat="41.8028020" lon="-8.8672140">
        <ele>11.7</ele>
        <time>2021-05-18T09:07:59Z</time>
      </trkpt>
      <trkpt lat="41.8028170" lon="-8.8672100">
        <ele>11.6</ele>
        <time>2021-05-18T09:08:00Z</time>
      </trkpt>
      <trkpt lat="41.8028310" lon="-8.8671980">
        <ele>11.6</ele>
        <time>2021-05-18T09:08:01Z</time>
      </trkpt>
      <trkpt lat="41.8028430" lon="-8.8671870">
        <ele>11.6</ele>
        <time>2021-05-18T09:08:02Z</time>
      </trkpt>
      <trkpt lat="41.8028580" lon="-8.8671850">
        <ele>11.6</ele>
        <time>2021-05-18T09:08:03Z</time>
      </trkpt>
      <trkpt lat="41.8028760" lon="-8.8671810">
        <ele>11.5</ele>
        <time>2021-05-18T09:08:04Z</time>
      </trkpt>
      <trkpt lat="41.8028920" lon="-8.8671830">
        <ele>11.5</ele>
        <time>2021-05-18T09:08:05Z</time>
      </trkpt>
      <trkpt lat="41.8029080" lon="-8.8671780">
        <ele>11.5</ele>
        <time>2021-05-18T09:08:06Z</time>
      </trkpt>
      <trkpt lat="41.8029230" lon="-8.8671740">
        <ele>11.5</ele>
        <time>2021-05-18T09:08:07Z</time>
      </trkpt>
      <trkpt lat="41.8029390" lon="-8.8671700">
        <ele>11.4</ele>
        <time>2021-05-18T09:08:08Z</time>
      </trkpt>
      <trkpt lat="41.8029540" lon="-8.8671580">
        <ele>11.4</ele>
        <time>2021-05-18T09:08:09Z</time>
      </trkpt>
      <trkpt lat="41.8029700" lon="-8.8671540">
        <ele>11.4</ele>
        <time>2021-05-18T09:08:10Z</time>
      </trkpt>
      <trkpt lat="41.8029850" lon="-8.8671470">
        <ele>11.3</ele>
        <time>2021-05-18T09:08:11Z</time>
      </trkpt>
      <trkpt lat="41.8030010" lon="-8.8671440">
        <ele>11.3</ele>
        <time>2021-05-18T09:08:12Z</time>
      </trkpt>
      <trkpt lat="41.8030140" lon="-8.8671340">
        <ele>11.3</ele>
        <time>2021-05-18T09:08:13Z</time>
      </trkpt>
      <trkpt lat="41.8030290" lon="-8.8671290">
        <ele>11.3</ele>
        <time>2021-05-18T09:08:14Z</time>
      </trkpt>
      <trkpt lat="41.8030400" lon="-8.8671200">
        <ele>11.2</ele>
        <time>2021-05-18T09:08:15Z</time>
      </trkpt>
      <trkpt lat="41.8030530" lon="-8.8671130">
        <ele>11.2</ele>
        <time>2021-05-18T09:08:16Z</time>
      </trkpt>
      <trkpt lat="41.8030660" lon="-8.8671040">
        <ele>11.2</ele>
        <time>2021-05-18T09:08:17Z</time>
      </trkpt>
      <trkpt lat="41.8030800" lon="-8.8670970">
        <ele>11.2</ele>
        <time>2021-05-18T09:08:18Z</time>
      </trkpt>
      <trkpt lat="41.8030930" lon="-8.8670870">
        <ele>11.1</ele>
        <time>2021-05-18T09:08:19Z</time>
      </trkpt>
      <trkpt lat="41.8031080" lon="-8.8670840">
        <ele>11.1</ele>
        <time>2021-05-18T09:08:20Z</time>
      </trkpt>
      <trkpt lat="41.8031190" lon="-8.8670730">
        <ele>11.1</ele>
        <time>2021-05-18T09:08:21Z</time>
      </trkpt>
      <trkpt lat="41.8031320" lon="-8.8670660">
        <ele>11.1</ele>
        <time>2021-05-18T09:08:22Z</time>
      </trkpt>
      <trkpt lat="41.8031470" lon="-8.8670610">
        <ele>11.0</ele>
        <time>2021-05-18T09:08:23Z</time>
      </trkpt>
      <trkpt lat="41.8031610" lon="-8.8670530">
        <ele>11.0</ele>
        <time>2021-05-18T09:08:24Z</time>
      </trkpt>
      <trkpt lat="41.8031720" lon="-8.8670380">
        <ele>11.0</ele>
        <time>2021-05-18T09:08:25Z</time>
      </trkpt>
      <trkpt lat="41.8031870" lon="-8.8670320">
        <ele>11.0</ele>
        <time>2021-05-18T09:08:26Z</time>
      </trkpt>
      <trkpt lat="41.8032000" lon="-8.8670230">
        <ele>11.0</ele>
        <time>2021-05-18T09:08:27Z</time>
      </trkpt>
      <trkpt lat="41.8032160" lon="-8.8670200">
        <ele>11.0</ele>
        <time>2021-05-18T09:08:28Z</time>
      </trkpt>
      <trkpt lat="41.8032260" lon="-8.8670010">
        <ele>11.0</ele>
        <time>2021-05-18T09:08:29Z</time>
      </trkpt>
      <trkpt lat="41.8032420" lon="-8.8669980">
        <ele>11.0</ele>
        <time>2021-05-18T09:08:30Z</time>
      </trkpt>
      <trkpt lat="41.8032510" lon="-8.8669820">
        <ele>11.0</ele>
        <time>2021-05-18T09:08:31Z</time>
      </trkpt>
      <trkpt lat="41.8032680" lon="-8.8669810">
        <ele>11.0</ele>
        <time>2021-05-18T09:08:32Z</time>
      </trkpt>
      <trkpt lat="41.8032810" lon="-8.8669750">
        <ele>11.0</ele>
        <time>2021-05-18T09:08:33Z</time>
      </trkpt>
      <trkpt lat="41.8032940" lon="-8.8669640">
        <ele>11.0</ele>
        <time>2021-05-18T09:08:34Z</time>
      </trkpt>
      <trkpt lat="41.8033050" lon="-8.8669530">
        <ele>11.0</ele>
        <time>2021-05-18T09:08:35Z</time>
      </trkpt>
      <trkpt lat="41.8033240" lon="-8.8669560">
        <ele>11.1</ele>
        <time>2021-05-18T09:08:36Z</time>
      </trkpt>
      <trkpt lat="41.8033340" lon="-8.8669430">
        <ele>11.1</ele>
        <time>2021-05-18T09:08:37Z</time>
      </trkpt>
      <trkpt lat="41.8033480" lon="-8.8669360">
        <ele>11.2</ele>
        <time>2021-05-18T09:08:38Z</time>
      </trkpt>
      <trkpt lat="41.8033610" lon="-8.8669240">
        <ele>11.2</ele>
        <time>2021-05-18T09:08:39Z</time>
      </trkpt>
      <trkpt lat="41.8033740" lon="-8.8669220">
        <ele>11.2</ele>
        <time>2021-05-18T09:08:40Z</time>
      </trkpt>
      <trkpt lat="41.8033960" lon="-8.8669140">
        <ele>11.3</ele>
        <time>2021-05-18T09:08:41Z</time>
      </trkpt>
      <trkpt lat="41.8034040" lon="-8.8669100">
        <ele>11.4</ele>
        <time>2021-05-18T09:08:42Z</time>
      </trkpt>
      <trkpt lat="41.8034120" lon="-8.8669060">
        <ele>11.4</ele>
        <time>2021-05-18T09:08:43Z</time>
      </trkpt>
      <trkpt lat="41.8034210" lon="-8.8669040">
        <ele>11.5</ele>
        <time>2021-05-18T09:08:44Z</time>
      </trkpt>
      <trkpt lat="41.8034260" lon="-8.8668950">
        <ele>11.5</ele>
        <time>2021-05-18T09:08:45Z</time>
      </trkpt>
      <trkpt lat="41.8034290" lon="-8.8668920">
        <ele>11.5</ele>
        <time>2021-05-18T09:08:46Z</time>
      </trkpt>
      <trkpt lat="41.8034240" lon="-8.8668980">
        <ele>11.5</ele>
        <time>2021-05-18T09:08:47Z</time>
      </trkpt>
      <trkpt lat="41.8034210" lon="-8.8669020">
        <ele>11.5</ele>
        <time>2021-05-18T09:08:48Z</time>
      </trkpt>
      <trkpt lat="41.8034180" lon="-8.8669000">
        <ele>11.6</ele>
        <time>2021-05-18T09:08:49Z</time>
      </trkpt>
      <trkpt lat="41.8034150" lon="-8.8668980">
        <ele>11.6</ele>
        <time>2021-05-18T09:08:50Z</time>
      </trkpt>
      <trkpt lat="41.8034110" lon="-8.8668970">
        <ele>11.6</ele>
        <time>2021-05-18T09:08:51Z</time>
      </trkpt>
      <trkpt lat="41.8034070" lon="-8.8668950">
        <ele>11.6</ele>
        <time>2021-05-18T09:08:52Z</time>
      </trkpt>
      <trkpt lat="41.8034070" lon="-8.8668960">
        <ele>11.6</ele>
        <time>2021-05-18T09:08:53Z</time>
      </trkpt>
      <trkpt lat="41.8034200" lon="-8.8668900">
        <ele>11.7</ele>
        <time>2021-05-18T09:08:54Z</time>
      </trkpt>
      <trkpt lat="41.8034310" lon="-8.8668810">
        <ele>11.7</ele>
        <time>2021-05-18T09:08:55Z</time>
      </trkpt>
      <trkpt lat="41.8034420" lon="-8.8668750">
        <ele>11.8</ele>
        <time>2021-05-18T09:08:56Z</time>
      </trkpt>
      <trkpt lat="41.8034470" lon="-8.8668690">
        <ele>11.8</ele>
        <time>2021-05-18T09:08:57Z</time>
      </trkpt>
      <trkpt lat="41.8034580" lon="-8.8668610">
        <ele>11.9</ele>
        <time>2021-05-18T09:08:58Z</time>
      </trkpt>
      <trkpt lat="41.8034780" lon="-8.8668500">
        <ele>11.9</ele>
        <time>2021-05-18T09:08:59Z</time>
      </trkpt>
      <trkpt lat="41.8034870" lon="-8.8668470">
        <ele>12.0</ele>
        <time>2021-05-18T09:09:00Z</time>
      </trkpt>
      <trkpt lat="41.8034970" lon="-8.8668430">
        <ele>12.0</ele>
        <time>2021-05-18T09:09:01Z</time>
      </trkpt>
      <trkpt lat="41.8035100" lon="-8.8668400">
        <ele>12.1</ele>
        <time>2021-05-18T09:09:02Z</time>
      </trkpt>
      <trkpt lat="41.8035140" lon="-8.8668320">
        <ele>12.1</ele>
        <time>2021-05-18T09:09:03Z</time>
      </trkpt>
      <trkpt lat="41.8035220" lon="-8.8668160">
        <ele>12.1</ele>
        <time>2021-05-18T09:09:04Z</time>
      </trkpt>
      <trkpt lat="41.8035370" lon="-8.8668060">
        <ele>12.2</ele>
        <time>2021-05-18T09:09:05Z</time>
      </trkpt>
      <trkpt lat="41.8035450" lon="-8.8667930">
        <ele>12.2</ele>
        <time>2021-05-18T09:09:06Z</time>
      </trkpt>
      <trkpt lat="41.8035560" lon="-8.8667810">
        <ele>12.3</ele>
        <time>2021-05-18T09:09:07Z</time>
      </trkpt>
      <trkpt lat="41.8035650" lon="-8.8667740">
        <ele>12.3</ele>
        <time>2021-05-18T09:09:08Z</time>
      </trkpt>
      <trkpt lat="41.8035730" lon="-8.8667630">
        <ele>12.3</ele>
        <time>2021-05-18T09:09:09Z</time>
      </trkpt>
      <trkpt lat="41.8035890" lon="-8.8667500">
        <ele>12.3</ele>
        <time>2021-05-18T09:09:10Z</time>
      </trkpt>
      <trkpt lat="41.8035970" lon="-8.8667440">
        <ele>12.4</ele>
        <time>2021-05-18T09:09:11Z</time>
      </trkpt>
      <trkpt lat="41.8036060" lon="-8.8667390">
        <ele>12.4</ele>
        <time>2021-05-18T09:09:12Z</time>
      </trkpt>
      <trkpt lat="41.8036210" lon="-8.8667230">
        <ele>12.4</ele>
        <time>2021-05-18T09:09:13Z</time>
      </trkpt>
      <trkpt lat="41.8036290" lon="-8.8667150">
        <ele>12.4</ele>
        <time>2021-05-18T09:09:14Z</time>
      </trkpt>
      <trkpt lat="41.8036360" lon="-8.8667070">
        <ele>12.4</ele>
        <time>2021-05-18T09:09:15Z</time>
      </trkpt>
      <trkpt lat="41.8036440" lon="-8.8667000">
        <ele>12.5</ele>
        <time>2021-05-18T09:09:16Z</time>
      </trkpt>
      <trkpt lat="41.8036520" lon="-8.8666910">
        <ele>12.5</ele>
        <time>2021-05-18T09:09:17Z</time>
      </trkpt>
      <trkpt lat="41.8036630" lon="-8.8666820">
        <ele>12.5</ele>
        <time>2021-05-18T09:09:18Z</time>
      </trkpt>
      <trkpt lat="41.8036730" lon="-8.8666740">
        <ele>12.5</ele>
        <time>2021-05-18T09:09:19Z</time>
      </trkpt>
      <trkpt lat="41.8036870" lon="-8.8666720">
        <ele>12.5</ele>
        <time>2021-05-18T09:09:20Z</time>
      </trkpt>
      <trkpt lat="41.8036940" lon="-8.8666610">
        <ele>12.5</ele>
        <time>2021-05-18T09:09:21Z</time>
      </trkpt>
      <trkpt lat="41.8037090" lon="-8.8666540">
        <ele>12.6</ele>
        <time>2021-05-18T09:09:22Z</time>
      </trkpt>
      <trkpt lat="41.8037170" lon="-8.8666420">
        <ele>12.6</ele>
        <time>2021-05-18T09:09:23Z</time>
      </trkpt>
      <trkpt lat="41.8037320" lon="-8.8666290">
        <ele>12.6</ele>
        <time>2021-05-18T09:09:24Z</time>
      </trkpt>
      <trkpt lat="41.8037420" lon="-8.8666180">
        <ele>12.6</ele>
        <time>2021-05-18T09:09:25Z</time>
      </trkpt>
      <trkpt lat="41.8037710" lon="-8.8666030">
        <ele>12.7</ele>
        <time>2021-05-18T09:09:26Z</time>
      </trkpt>
      <trkpt lat="41.8037780" lon="-8.8665970">
        <ele>12.7</ele>
        <time>2021-05-18T09:09:27Z</time>
      </trkpt>
      <trkpt lat="41.8037950" lon="-8.8665860">
        <ele>12.7</ele>
        <time>2021-05-18T09:09:28Z</time>
      </trkpt>
      <trkpt lat="41.8038070" lon="-8.8665750">
        <ele>12.7</ele>
        <time>2021-05-18T09:09:29Z</time>
      </trkpt>
      <trkpt lat="41.8038200" lon="-8.8665580">
        <ele>12.7</ele>
        <time>2021-05-18T09:09:30Z</time>
      </trkpt>
      <trkpt lat="41.8038380" lon="-8.8665620">
        <ele>12.8</ele>
        <time>2021-05-18T09:09:31Z</time>
      </trkpt>
      <trkpt lat="41.8038510" lon="-8.8665580">
        <ele>12.8</ele>
        <time>2021-05-18T09:09:32Z</time>
      </trkpt>
      <trkpt lat="41.8038620" lon="-8.8665490">
        <ele>12.8</ele>
        <time>2021-05-18T09:09:33Z</time>
      </trkpt>
      <trkpt lat="41.8038680" lon="-8.8665520">
        <ele>12.8</ele>
        <time>2021-05-18T09:09:34Z</time>
      </trkpt>
      <trkpt lat="41.8038840" lon="-8.8665460">
        <ele>12.8</ele>
        <time>2021-05-18T09:09:35Z</time>
      </trkpt>
      <trkpt lat="41.8038970" lon="-8.8665390">
        <ele>12.8</ele>
        <time>2021-05-18T09:09:36Z</time>
      </trkpt>
      <trkpt lat="41.8039100" lon="-8.8665300">
        <ele>12.9</ele>
        <time>2021-05-18T09:09:37Z</time>
      </trkpt>
      <trkpt lat="41.8039170" lon="-8.8665110">
        <ele>12.9</ele>
        <time>2021-05-18T09:09:38Z</time>
      </trkpt>
      <trkpt lat="41.8039360" lon="-8.8664950">
        <ele>12.9</ele>
        <time>2021-05-18T09:09:39Z</time>
      </trkpt>
      <trkpt lat="41.8039430" lon="-8.8664890">
        <ele>12.9</ele>
        <time>2021-05-18T09:09:40Z</time>
      </trkpt>
      <trkpt lat="41.8039510" lon="-8.8664830">
        <ele>12.9</ele>
        <time>2021-05-18T09:09:41Z</time>
      </trkpt>
      <trkpt lat="41.8039660" lon="-8.8664620">
        <ele>12.9</ele>
        <time>2021-05-18T09:09:42Z</time>
      </trkpt>
      <trkpt lat="41.8039730" lon="-8.8664530">
        <ele>12.9</ele>
        <time>2021-05-18T09:09:43Z</time>
      </trkpt>
      <trkpt lat="41.8039810" lon="-8.8664440">
        <ele>12.9</ele>
        <time>2021-05-18T09:09:44Z</time>
      </trkpt>
      <trkpt lat="41.8040010" lon="-8.8664380">
        <ele>12.9</ele>
        <time>2021-05-18T09:09:45Z</time>
      </trkpt>
      <trkpt lat="41.8040110" lon="-8.8664330">
        <ele>12.9</ele>
        <time>2021-05-18T09:09:46Z</time>
      </trkpt>
      <trkpt lat="41.8040200" lon="-8.8664290">
        <ele>12.9</ele>
        <time>2021-05-18T09:09:47Z</time>
      </trkpt>
      <trkpt lat="41.8040380" lon="-8.8664220">
        <ele>12.9</ele>
        <time>2021-05-18T09:09:48Z</time>
      </trkpt>
      <trkpt lat="41.8040510" lon="-8.8664120">
        <ele>12.9</ele>
        <time>2021-05-18T09:09:49Z</time>
      </trkpt>
      <trkpt lat="41.8040670" lon="-8.8664070">
        <ele>12.9</ele>
        <time>2021-05-18T09:09:50Z</time>
      </trkpt>
      <trkpt lat="41.8040790" lon="-8.8663980">
        <ele>12.9</ele>
        <time>2021-05-18T09:09:51Z</time>
      </trkpt>
      <trkpt lat="41.8040920" lon="-8.8663860">
        <ele>12.9</ele>
        <time>2021-05-18T09:09:52Z</time>
      </trkpt>
      <trkpt lat="41.8041090" lon="-8.8663820">
        <ele>12.8</ele>
        <time>2021-05-18T09:09:53Z</time>
      </trkpt>
      <trkpt lat="41.8041240" lon="-8.8663710">
        <ele>12.8</ele>
        <time>2021-05-18T09:09:54Z</time>
      </trkpt>
      <trkpt lat="41.8041400" lon="-8.8663680">
        <ele>12.8</ele>
        <time>2021-05-18T09:09:55Z</time>
      </trkpt>
      <trkpt lat="41.8041580" lon="-8.8663620">
        <ele>12.7</ele>
        <time>2021-05-18T09:09:56Z</time>
      </trkpt>
      <trkpt lat="41.8041720" lon="-8.8663540">
        <ele>12.7</ele>
        <time>2021-05-18T09:09:57Z</time>
      </trkpt>
      <trkpt lat="41.8041860" lon="-8.8663480">
        <ele>12.7</ele>
        <time>2021-05-18T09:09:58Z</time>
      </trkpt>
      <trkpt lat="41.8042020" lon="-8.8663390">
        <ele>12.6</ele>
        <time>2021-05-18T09:09:59Z</time>
      </trkpt>
      <trkpt lat="41.8042140" lon="-8.8663280">
        <ele>12.6</ele>
        <time>2021-05-18T09:10:00Z</time>
      </trkpt>
      <trkpt lat="41.8042280" lon="-8.8663210">
        <ele>12.6</ele>
        <time>2021-05-18T09:10:01Z</time>
      </trkpt>
      <trkpt lat="41.8042420" lon="-8.8663160">
        <ele>12.6</ele>
        <time>2021-05-18T09:10:02Z</time>
      </trkpt>
      <trkpt lat="41.8042580" lon="-8.8663100">
        <ele>12.5</ele>
        <time>2021-05-18T09:10:03Z</time>
      </trkpt>
      <trkpt lat="41.8042710" lon="-8.8663030">
        <ele>12.5</ele>
        <time>2021-05-18T09:10:04Z</time>
      </trkpt>
      <trkpt lat="41.8042830" lon="-8.8662920">
        <ele>12.5</ele>
        <time>2021-05-18T09:10:05Z</time>
      </trkpt>
      <trkpt lat="41.8042950" lon="-8.8662800">
        <ele>12.4</ele>
        <time>2021-05-18T09:10:06Z</time>
      </trkpt>
      <trkpt lat="41.8043060" lon="-8.8662650">
        <ele>12.4</ele>
        <time>2021-05-18T09:10:07Z</time>
      </trkpt>
      <trkpt lat="41.8043210" lon="-8.8662650">
        <ele>12.4</ele>
        <time>2021-05-18T09:10:08Z</time>
      </trkpt>
      <trkpt lat="41.8043340" lon="-8.8662600">
        <ele>12.4</ele>
        <time>2021-05-18T09:10:09Z</time>
      </trkpt>
      <trkpt lat="41.8043470" lon="-8.8662520">
        <ele>12.4</ele>
        <time>2021-05-18T09:10:10Z</time>
      </trkpt>
      <trkpt lat="41.8043580" lon="-8.8662400">
        <ele>12.3</ele>
        <time>2021-05-18T09:10:11Z</time>
      </trkpt>
      <trkpt lat="41.8043740" lon="-8.8662360">
        <ele>12.3</ele>
        <time>2021-05-18T09:10:12Z</time>
      </trkpt>
      <trkpt lat="41.8043870" lon="-8.8662310">
        <ele>12.3</ele>
        <time>2021-05-18T09:10:13Z</time>
      </trkpt>
      <trkpt lat="41.8044020" lon="-8.8662310">
        <ele>12.3</ele>
        <time>2021-05-18T09:10:14Z</time>
      </trkpt>
      <trkpt lat="41.8044170" lon="-8.8662290">
        <ele>12.3</ele>
        <time>2021-05-18T09:10:15Z</time>
      </trkpt>
      <trkpt lat="41.8044340" lon="-8.8662300">
        <ele>12.3</ele>
        <time>2021-05-18T09:10:16Z</time>
      </trkpt>
      <trkpt lat="41.8044480" lon="-8.8662190">
        <ele>12.2</ele>
        <time>2021-05-18T09:10:17Z</time>
      </trkpt>
      <trkpt lat="41.8044630" lon="-8.8662200">
        <ele>12.2</ele>
        <time>2021-05-18T09:10:18Z</time>
      </trkpt>
      <trkpt lat="41.8044790" lon="-8.8662100">
        <ele>12.2</ele>
        <time>2021-05-18T09:10:19Z</time>
      </trkpt>
      <trkpt lat="41.8044900" lon="-8.8662010">
        <ele>12.2</ele>
        <time>2021-05-18T09:10:20Z</time>
      </trkpt>
      <trkpt lat="41.8045040" lon="-8.8661870">
        <ele>12.1</ele>
        <time>2021-05-18T09:10:21Z</time>
      </trkpt>
      <trkpt lat="41.8045240" lon="-8.8661760">
        <ele>12.1</ele>
        <time>2021-05-18T09:10:22Z</time>
      </trkpt>
      <trkpt lat="41.8045330" lon="-8.8661710">
        <ele>12.1</ele>
        <time>2021-05-18T09:10:23Z</time>
      </trkpt>
      <trkpt lat="41.8045420" lon="-8.8661660">
        <ele>12.0</ele>
        <time>2021-05-18T09:10:24Z</time>
      </trkpt>
      <trkpt lat="41.8045550" lon="-8.8661630">
        <ele>12.0</ele>
        <time>2021-05-18T09:10:25Z</time>
      </trkpt>
      <trkpt lat="41.8045690" lon="-8.8661590">
        <ele>12.0</ele>
        <time>2021-05-18T09:10:26Z</time>
      </trkpt>
      <trkpt lat="41.8045890" lon="-8.8661500">
        <ele>11.9</ele>
        <time>2021-05-18T09:10:27Z</time>
      </trkpt>
      <trkpt lat="41.8045970" lon="-8.8661450">
        <ele>11.9</ele>
        <time>2021-05-18T09:10:28Z</time>
      </trkpt>
      <trkpt lat="41.8046050" lon="-8.8661410">
        <ele>11.9</ele>
        <time>2021-05-18T09:10:29Z</time>
      </trkpt>
      <trkpt lat="41.8046210" lon="-8.8661370">
        <ele>11.8</ele>
        <time>2021-05-18T09:10:30Z</time>
      </trkpt>
      <trkpt lat="41.8046360" lon="-8.8661340">
        <ele>11.8</ele>
        <time>2021-05-18T09:10:31Z</time>
      </trkpt>
      <trkpt lat="41.8046500" lon="-8.8661310">
        <ele>11.7</ele>
        <time>2021-05-18T09:10:32Z</time>
      </trkpt>
      <trkpt lat="41.8046640" lon="-8.8661270">
        <ele>11.7</ele>
        <time>2021-05-18T09:10:33Z</time>
      </trkpt>
      <trkpt lat="41.8046760" lon="-8.8661220">
        <ele>11.6</ele>
        <time>2021-05-18T09:10:34Z</time>
      </trkpt>
      <trkpt lat="41.8046890" lon="-8.8661080">
        <ele>11.6</ele>
        <time>2021-05-18T09:10:35Z</time>
      </trkpt>
      <trkpt lat="41.8047100" lon="-8.8660950">
        <ele>11.5</ele>
        <time>2021-05-18T09:10:36Z</time>
      </trkpt>
      <trkpt lat="41.8047190" lon="-8.8660920">
        <ele>11.5</ele>
        <time>2021-05-18T09:10:37Z</time>
      </trkpt>
      <trkpt lat="41.8047280" lon="-8.8660880">
        <ele>11.4</ele>
        <time>2021-05-18T09:10:38Z</time>
      </trkpt>
      <trkpt lat="41.8047400" lon="-8.8660780">
        <ele>11.4</ele>
        <time>2021-05-18T09:10:39Z</time>
      </trkpt>
      <trkpt lat="41.8047550" lon="-8.8660740">
        <ele>11.3</ele>
        <time>2021-05-18T09:10:40Z</time>
      </trkpt>
      <trkpt lat="41.8047680" lon="-8.8660660">
        <ele>11.3</ele>
        <time>2021-05-18T09:10:41Z</time>
      </trkpt>
      <trkpt lat="41.8047820" lon="-8.8660620">
        <ele>11.2</ele>
        <time>2021-05-18T09:10:42Z</time>
      </trkpt>
      <trkpt lat="41.8047950" lon="-8.8660560">
        <ele>11.2</ele>
        <time>2021-05-18T09:10:43Z</time>
      </trkpt>
      <trkpt lat="41.8048090" lon="-8.8660570">
        <ele>11.2</ele>
        <time>2021-05-18T09:10:44Z</time>
      </trkpt>
      <trkpt lat="41.8048250" lon="-8.8660500">
        <ele>11.1</ele>
        <time>2021-05-18T09:10:45Z</time>
      </trkpt>
      <trkpt lat="41.8048370" lon="-8.8660370">
        <ele>11.1</ele>
        <time>2021-05-18T09:10:46Z</time>
      </trkpt>
      <trkpt lat="41.8048510" lon="-8.8660320">
        <ele>11.1</ele>
        <time>2021-05-18T09:10:47Z</time>
      </trkpt>
      <trkpt lat="41.8048640" lon="-8.8660250">
        <ele>11.1</ele>
        <time>2021-05-18T09:10:48Z</time>
      </trkpt>
      <trkpt lat="41.8048850" lon="-8.8660120">
        <ele>11.0</ele>
        <time>2021-05-18T09:10:49Z</time>
      </trkpt>
      <trkpt lat="41.8048940" lon="-8.8660120">
        <ele>11.0</ele>
        <time>2021-05-18T09:10:50Z</time>
      </trkpt>
      <trkpt lat="41.8049030" lon="-8.8660110">
        <ele>11.0</ele>
        <time>2021-05-18T09:10:51Z</time>
      </trkpt>
      <trkpt lat="41.8049170" lon="-8.8660070">
        <ele>11.0</ele>
        <time>2021-05-18T09:10:52Z</time>
      </trkpt>
      <trkpt lat="41.8049330" lon="-8.8660080">
        <ele>11.0</ele>
        <time>2021-05-18T09:10:53Z</time>
      </trkpt>
      <trkpt lat="41.8049440" lon="-8.8659930">
        <ele>11.0</ele>
        <time>2021-05-18T09:10:54Z</time>
      </trkpt>
      <trkpt lat="41.8049580" lon="-8.8659890">
        <ele>11.1</ele>
        <time>2021-05-18T09:10:55Z</time>
      </trkpt>
      <trkpt lat="41.8049720" lon="-8.8659870">
        <ele>11.1</ele>
        <time>2021-05-18T09:10:56Z</time>
      </trkpt>
      <trkpt lat="41.8049850" lon="-8.8659790">
        <ele>11.1</ele>
        <time>2021-05-18T09:10:57Z</time>
      </trkpt>
      <trkpt lat="41.8049990" lon="-8.8659760">
        <ele>11.1</ele>
        <time>2021-05-18T09:10:58Z</time>
      </trkpt>
      <trkpt lat="41.8050150" lon="-8.8659730">
        <ele>11.2</ele>
        <time>2021-05-18T09:10:59Z</time>
      </trkpt>
      <trkpt lat="41.8050370" lon="-8.8659660">
        <ele>11.3</ele>
        <time>2021-05-18T09:11:00Z</time>
      </trkpt>
      <trkpt lat="41.8050470" lon="-8.8659660">
        <ele>11.3</ele>
        <time>2021-05-18T09:11:01Z</time>
      </trkpt>
      <trkpt lat="41.8050570" lon="-8.8659660">
        <ele>11.3</ele>
        <time>2021-05-18T09:11:02Z</time>
      </trkpt>
      <trkpt lat="41.8050680" lon="-8.8659610">
        <ele>11.4</ele>
        <time>2021-05-18T09:11:03Z</time>
      </trkpt>
      <trkpt lat="41.8050790" lon="-8.8659570">
        <ele>11.4</ele>
        <time>2021-05-18T09:11:04Z</time>
      </trkpt>
      <trkpt lat="41.8050910" lon="-8.8659520">
        <ele>11.5</ele>
        <time>2021-05-18T09:11:05Z</time>
      </trkpt>
      <trkpt lat="41.8050940" lon="-8.8659400">
        <ele>11.5</ele>
        <time>2021-05-18T09:11:06Z</time>
      </trkpt>
      <trkpt lat="41.8051090" lon="-8.8659330">
        <ele>11.6</ele>
        <time>2021-05-18T09:11:07Z</time>
      </trkpt>
      <trkpt lat="41.8051180" lon="-8.8659300">
        <ele>11.7</ele>
        <time>2021-05-18T09:11:08Z</time>
      </trkpt>
      <trkpt lat="41.8051280" lon="-8.8659190">
        <ele>11.7</ele>
        <time>2021-05-18T09:11:09Z</time>
      </trkpt>
      <trkpt lat="41.8051320" lon="-8.8659130">
        <ele>11.8</ele>
        <time>2021-05-18T09:11:10Z</time>
      </trkpt>
      <trkpt lat="41.8051420" lon="-8.8659080">
        <ele>11.8</ele>
        <time>2021-05-18T09:11:11Z</time>
      </trkpt>
      <trkpt lat="41.8051620" lon="-8.8658960">
        <ele>12.0</ele>
        <time>2021-05-18T09:11:12Z</time>
      </trkpt>
      <trkpt lat="41.8051710" lon="-8.8658950">
        <ele>12.0</ele>
        <time>2021-05-18T09:11:13Z</time>
      </trkpt>
      <trkpt lat="41.8051800" lon="-8.8658930">
        <ele>12.1</ele>
        <time>2021-05-18T09:11:14Z</time>
      </trkpt>
      <trkpt lat="41.8051920" lon="-8.8658930">
        <ele>12.2</ele>
        <time>2021-05-18T09:11:15Z</time>
      </trkpt>
      <trkpt lat="41.8051980" lon="-8.8658850">
        <ele>12.2</ele>
        <time>2021-05-18T09:11:16Z</time>
      </trkpt>
      <trkpt lat="41.8052070" lon="-8.8658760">
        <ele>12.3</ele>
        <time>2021-05-18T09:11:17Z</time>
      </trkpt>
      <trkpt lat="41.8052170" lon="-8.8658560">
        <ele>12.4</ele>
        <time>2021-05-18T09:11:18Z</time>
      </trkpt>
      <trkpt lat="41.8052240" lon="-8.8658510">
        <ele>12.5</ele>
        <time>2021-05-18T09:11:19Z</time>
      </trkpt>
      <trkpt lat="41.8052300" lon="-8.8658460">
        <ele>12.5</ele>
        <time>2021-05-18T09:11:20Z</time>
      </trkpt>
      <trkpt lat="41.8052370" lon="-8.8658410">
        <ele>12.5</ele>
        <time>2021-05-18T09:11:21Z</time>
      </trkpt>
      <trkpt lat="41.8052490" lon="-8.8658340">
        <ele>12.6</ele>
        <time>2021-05-18T09:11:22Z</time>
      </trkpt>
      <trkpt lat="41.8052600" lon="-8.8658310">
        <ele>12.7</ele>
        <time>2021-05-18T09:11:23Z</time>
      </trkpt>
      <trkpt lat="41.8052680" lon="-8.8658220">
        <ele>12.7</ele>
        <time>2021-05-18T09:11:24Z</time>
      </trkpt>
      <trkpt lat="41.8052870" lon="-8.8658080">
        <ele>12.8</ele>
        <time>2021-05-18T09:11:25Z</time>
      </trkpt>
      <trkpt lat="41.8052930" lon="-8.8658020">
        <ele>12.8</ele>
        <time>2021-05-18T09:11:26Z</time>
      </trkpt>
      <trkpt lat="41.8053000" lon="-8.8657970">
        <ele>12.9</ele>
        <time>2021-05-18T09:11:27Z</time>
      </trkpt>
      <trkpt lat="41.8053150" lon="-8.8657850">
        <ele>12.9</ele>
        <time>2021-05-18T09:11:28Z</time>
      </trkpt>
      <trkpt lat="41.8053230" lon="-8.8657770">
        <ele>13.0</ele>
        <time>2021-05-18T09:11:29Z</time>
      </trkpt>
      <trkpt lat="41.8053300" lon="-8.8657680">
        <ele>13.0</ele>
        <time>2021-05-18T09:11:30Z</time>
      </trkpt>
      <trkpt lat="41.8053380" lon="-8.8657590">
        <ele>13.0</ele>
        <time>2021-05-18T09:11:31Z</time>
      </trkpt>
      <trkpt lat="41.8053480" lon="-8.8657530">
        <ele>13.0</ele>
        <time>2021-05-18T09:11:32Z</time>
      </trkpt>
      <trkpt lat="41.8053570" lon="-8.8657480">
        <ele>13.1</ele>
        <time>2021-05-18T09:11:33Z</time>
      </trkpt>
      <trkpt lat="41.8053690" lon="-8.8657440">
        <ele>13.1</ele>
        <time>2021-05-18T09:11:34Z</time>
      </trkpt>
      <trkpt lat="41.8053790" lon="-8.8657310">
        <ele>13.1</ele>
        <time>2021-05-18T09:11:35Z</time>
      </trkpt>
      <trkpt lat="41.8053860" lon="-8.8657250">
        <ele>13.1</ele>
        <time>2021-05-18T09:11:36Z</time>
      </trkpt>
      <trkpt lat="41.8053980" lon="-8.8657250">
        <ele>13.1</ele>
        <time>2021-05-18T09:11:37Z</time>
      </trkpt>
      <trkpt lat="41.8054140" lon="-8.8657230">
        <ele>13.1</ele>
        <time>2021-05-18T09:11:38Z</time>
      </trkpt>
      <trkpt lat="41.8054250" lon="-8.8657180">
        <ele>13.1</ele>
        <time>2021-05-18T09:11:39Z</time>
      </trkpt>
      <trkpt lat="41.8054450" lon="-8.8657060">
        <ele>13.1</ele>
        <time>2021-05-18T09:11:40Z</time>
      </trkpt>
      <trkpt lat="41.8054530" lon="-8.8657020">
        <ele>13.1</ele>
        <time>2021-05-18T09:11:41Z</time>
      </trkpt>
      <trkpt lat="41.8054620" lon="-8.8656980">
        <ele>13.1</ele>
        <time>2021-05-18T09:11:42Z</time>
      </trkpt>
      <trkpt lat="41.8054830" lon="-8.8656910">
        <ele>13.1</ele>
        <time>2021-05-18T09:11:43Z</time>
      </trkpt>
      <trkpt lat="41.8054910" lon="-8.8656870">
        <ele>13.1</ele>
        <time>2021-05-18T09:11:44Z</time>
      </trkpt>
      <trkpt lat="41.8054990" lon="-8.8656830">
        <ele>13.0</ele>
        <time>2021-05-18T09:11:45Z</time>
      </trkpt>
      <trkpt lat="41.8055120" lon="-8.8656750">
        <ele>13.0</ele>
        <time>2021-05-18T09:11:46Z</time>
      </trkpt>
      <trkpt lat="41.8055310" lon="-8.8656690">
        <ele>13.0</ele>
        <time>2021-05-18T09:11:47Z</time>
      </trkpt>
      <trkpt lat="41.8055470" lon="-8.8656650">
        <ele>12.9</ele>
        <time>2021-05-18T09:11:48Z</time>
      </trkpt>
      <trkpt lat="41.8055640" lon="-8.8656610">
        <ele>12.9</ele>
        <time>2021-05-18T09:11:49Z</time>
      </trkpt>
      <trkpt lat="41.8055800" lon="-8.8656590">
        <ele>12.8</ele>
        <time>2021-05-18T09:11:50Z</time>
      </trkpt>
      <trkpt lat="41.8055970" lon="-8.8656570">
        <ele>12.8</ele>
        <time>2021-05-18T09:11:51Z</time>
      </trkpt>
      <trkpt lat="41.8056090" lon="-8.8656500">
        <ele>12.8</ele>
        <time>2021-05-18T09:11:52Z</time>
      </trkpt>
      <trkpt lat="41.8056240" lon="-8.8656470">
        <ele>12.7</ele>
        <time>2021-05-18T09:11:53Z</time>
      </trkpt>
      <trkpt lat="41.8056330" lon="-8.8656320">
        <ele>12.7</ele>
        <time>2021-05-18T09:11:54Z</time>
      </trkpt>
      <trkpt lat="41.8056460" lon="-8.8656260">
        <ele>12.6</ele>
        <time>2021-05-18T09:11:55Z</time>
      </trkpt>
      <trkpt lat="41.8056570" lon="-8.8656210">
        <ele>12.6</ele>
        <time>2021-05-18T09:11:56Z</time>
      </trkpt>
      <trkpt lat="41.8056680" lon="-8.8656130">
        <ele>12.6</ele>
        <time>2021-05-18T09:11:57Z</time>
      </trkpt>
      <trkpt lat="41.8056780" lon="-8.8656020">
        <ele>12.6</ele>
        <time>2021-05-18T09:11:58Z</time>
      </trkpt>
      <trkpt lat="41.8056870" lon="-8.8655970">
        <ele>12.6</ele>
        <time>2021-05-18T09:11:59Z</time>
      </trkpt>
      <trkpt lat="41.8056940" lon="-8.8655870">
        <ele>12.5</ele>
        <time>2021-05-18T09:12:00Z</time>
      </trkpt>
      <trkpt lat="41.8057060" lon="-8.8655740">
        <ele>12.5</ele>
        <time>2021-05-18T09:12:01Z</time>
      </trkpt>
      <trkpt lat="41.8057160" lon="-8.8655650">
        <ele>12.5</ele>
        <time>2021-05-18T09:12:02Z</time>
      </trkpt>
      <trkpt lat="41.8057210" lon="-8.8655550">
        <ele>12.5</ele>
        <time>2021-05-18T09:12:03Z</time>
      </trkpt>
      <trkpt lat="41.8057300" lon="-8.8655440">
        <ele>12.5</ele>
        <time>2021-05-18T09:12:04Z</time>
      </trkpt>
      <trkpt lat="41.8057370" lon="-8.8655370">
        <ele>12.5</ele>
        <time>2021-05-18T09:12:05Z</time>
      </trkpt>
      <trkpt lat="41.8057500" lon="-8.8655250">
        <ele>12.6</ele>
        <time>2021-05-18T09:12:06Z</time>
      </trkpt>
      <trkpt lat="41.8057570" lon="-8.8655210">
        <ele>12.6</ele>
        <time>2021-05-18T09:12:07Z</time>
      </trkpt>
      <trkpt lat="41.8057760" lon="-8.8655060">
        <ele>12.6</ele>
        <time>2021-05-18T09:12:08Z</time>
      </trkpt>
      <trkpt lat="41.8057830" lon="-8.8655010">
        <ele>12.6</ele>
        <time>2021-05-18T09:12:09Z</time>
      </trkpt>
      <trkpt lat="41.8057910" lon="-8.8654950">
        <ele>12.7</ele>
        <time>2021-05-18T09:12:10Z</time>
      </trkpt>
      <trkpt lat="41.8058060" lon="-8.8654930">
        <ele>12.7</ele>
        <time>2021-05-18T09:12:11Z</time>
      </trkpt>
      <trkpt lat="41.8058120" lon="-8.8654790">
        <ele>12.8</ele>
        <time>2021-05-18T09:12:12Z</time>
      </trkpt>
      <trkpt lat="41.8058230" lon="-8.8654720">
        <ele>12.8</ele>
        <time>2021-05-18T09:12:13Z</time>
      </trkpt>
      <trkpt lat="41.8058280" lon="-8.8654650">
        <ele>12.8</ele>
        <time>2021-05-18T09:12:14Z</time>
      </trkpt>
      <trkpt lat="41.8058380" lon="-8.8654560">
        <ele>12.9</ele>
        <time>2021-05-18T09:12:15Z</time>
      </trkpt>
      <trkpt lat="41.8058480" lon="-8.8654410">
        <ele>12.9</ele>
        <time>2021-05-18T09:12:16Z</time>
      </trkpt>
      <trkpt lat="41.8058690" lon="-8.8654250">
        <ele>13.0</ele>
        <time>2021-05-18T09:12:17Z</time>
      </trkpt>
      <trkpt lat="41.8058760" lon="-8.8654210">
        <ele>13.1</ele>
        <time>2021-05-18T09:12:18Z</time>
      </trkpt>
      <trkpt lat="41.8058820" lon="-8.8654170">
        <ele>13.1</ele>
        <time>2021-05-18T09:12:19Z</time>
      </trkpt>
      <trkpt lat="41.8058950" lon="-8.8654110">
        <ele>13.2</ele>
        <time>2021-05-18T09:12:20Z</time>
      </trkpt>
      <trkpt lat="41.8059080" lon="-8.8654060">
        <ele>13.2</ele>
        <time>2021-05-18T09:12:21Z</time>
      </trkpt>
      <trkpt lat="41.8059250" lon="-8.8653980">
        <ele>13.3</ele>
        <time>2021-05-18T09:12:22Z</time>
      </trkpt>
      <trkpt lat="41.8059310" lon="-8.8653950">
        <ele>13.3</ele>
        <time>2021-05-18T09:12:23Z</time>
      </trkpt>
      <trkpt lat="41.8059370" lon="-8.8653910">
        <ele>13.3</ele>
        <time>2021-05-18T09:12:24Z</time>
      </trkpt>
      <trkpt lat="41.8059430" lon="-8.8653870">
        <ele>13.3</ele>
        <time>2021-05-18T09:12:25Z</time>
      </trkpt>
      <trkpt lat="41.8059540" lon="-8.8653840">
        <ele>13.4</ele>
        <time>2021-05-18T09:12:26Z</time>
      </trkpt>
      <trkpt lat="41.8059670" lon="-8.8653870">
        <ele>13.4</ele>
        <time>2021-05-18T09:12:27Z</time>
      </trkpt>
      <trkpt lat="41.8059780" lon="-8.8653850">
        <ele>13.4</ele>
        <time>2021-05-18T09:12:28Z</time>
      </trkpt>
      <trkpt lat="41.8060030" lon="-8.8653790">
        <ele>13.4</ele>
        <time>2021-05-18T09:12:29Z</time>
      </trkpt>
      <trkpt lat="41.8060150" lon="-8.8653770">
        <ele>13.5</ele>
        <time>2021-05-18T09:12:30Z</time>
      </trkpt>
      <trkpt lat="41.8060340" lon="-8.8653710">
        <ele>13.5</ele>
        <time>2021-05-18T09:12:31Z</time>
      </trkpt>
      <trkpt lat="41.8060430" lon="-8.8653700">
        <ele>13.5</ele>
        <time>2021-05-18T09:12:32Z</time>
      </trkpt>
      <trkpt lat="41.8060510" lon="-8.8653680">
        <ele>13.5</ele>
        <time>2021-05-18T09:12:33Z</time>
      </trkpt>
      <trkpt lat="41.8060580" lon="-8.8653590">
        <ele>13.5</ele>
        <time>2021-05-18T09:12:34Z</time>
      </trkpt>
      <trkpt lat="41.8060780" lon="-8.8653580">
        <ele>13.4</ele>
        <time>2021-05-18T09:12:35Z</time>
      </trkpt>
      <trkpt lat="41.8060920" lon="-8.8653530">
        <ele>13.4</ele>
        <time>2021-05-18T09:12:36Z</time>
      </trkpt>
      <trkpt lat="41.8061070" lon="-8.8653470">
        <ele>13.4</ele>
        <time>2021-05-18T09:12:37Z</time>
      </trkpt>
      <trkpt lat="41.8061230" lon="-8.8653380">
        <ele>13.4</ele>
        <time>2021-05-18T09:12:38Z</time>
      </trkpt>
      <trkpt lat="41.8061360" lon="-8.8653240">
        <ele>13.4</ele>
        <time>2021-05-18T09:12:39Z</time>
      </trkpt>
      <trkpt lat="41.8061530" lon="-8.8653200">
        <ele>13.4</ele>
        <time>2021-05-18T09:12:40Z</time>
      </trkpt>
      <trkpt lat="41.8061680" lon="-8.8653150">
        <ele>13.3</ele>
        <time>2021-05-18T09:12:41Z</time>
      </trkpt>
      <trkpt lat="41.8061840" lon="-8.8653160">
        <ele>13.3</ele>
        <time>2021-05-18T09:12:42Z</time>
      </trkpt>
      <trkpt lat="41.8061990" lon="-8.8653170">
        <ele>13.3</ele>
        <time>2021-05-18T09:12:43Z</time>
      </trkpt>
      <trkpt lat="41.8062140" lon="-8.8653170">
        <ele>13.3</ele>
        <time>2021-05-18T09:12:44Z</time>
      </trkpt>
      <trkpt lat="41.8062280" lon="-8.8653080">
        <ele>13.3</ele>
        <time>2021-05-18T09:12:45Z</time>
      </trkpt>
      <trkpt lat="41.8062420" lon="-8.8653040">
        <ele>13.3</ele>
        <time>2021-05-18T09:12:46Z</time>
      </trkpt>
      <trkpt lat="41.8062560" lon="-8.8652950">
        <ele>13.3</ele>
        <time>2021-05-18T09:12:47Z</time>
      </trkpt>
      <trkpt lat="41.8062680" lon="-8.8652850">
        <ele>13.3</ele>
        <time>2021-05-18T09:12:48Z</time>
      </trkpt>
      <trkpt lat="41.8062800" lon="-8.8652710">
        <ele>13.3</ele>
        <time>2021-05-18T09:12:49Z</time>
      </trkpt>
      <trkpt lat="41.8062940" lon="-8.8652600">
        <ele>13.3</ele>
        <time>2021-05-18T09:12:50Z</time>
      </trkpt>
      <trkpt lat="41.8063060" lon="-8.8652470">
        <ele>13.3</ele>
        <time>2021-05-18T09:12:51Z</time>
      </trkpt>
      <trkpt lat="41.8063190" lon="-8.8652390">
        <ele>13.3</ele>
        <time>2021-05-18T09:12:52Z</time>
      </trkpt>
      <trkpt lat="41.8063320" lon="-8.8652320">
        <ele>13.3</ele>
        <time>2021-05-18T09:12:53Z</time>
      </trkpt>
      <trkpt lat="41.8063470" lon="-8.8652320">
        <ele>13.3</ele>
        <time>2021-05-18T09:12:54Z</time>
      </trkpt>
      <trkpt lat="41.8063570" lon="-8.8652270">
        <ele>13.3</ele>
        <time>2021-05-18T09:12:55Z</time>
      </trkpt>
      <trkpt lat="41.8063670" lon="-8.8652190">
        <ele>13.4</ele>
        <time>2021-05-18T09:12:56Z</time>
      </trkpt>
      <trkpt lat="41.8063740" lon="-8.8652090">
        <ele>13.4</ele>
        <time>2021-05-18T09:12:57Z</time>
      </trkpt>
      <trkpt lat="41.8063810" lon="-8.8651980">
        <ele>13.4</ele>
        <time>2021-05-18T09:12:58Z</time>
      </trkpt>
      <trkpt lat="41.8063910" lon="-8.8651940">
        <ele>13.4</ele>
        <time>2021-05-18T09:12:59Z</time>
      </trkpt>
      <trkpt lat="41.8063980" lon="-8.8651910">
        <ele>13.4</ele>
        <time>2021-05-18T09:13:00Z</time>
      </trkpt>
      <trkpt lat="41.8064080" lon="-8.8651880">
        <ele>13.4</ele>
        <time>2021-05-18T09:13:01Z</time>
      </trkpt>
      <trkpt lat="41.8064160" lon="-8.8651790">
        <ele>13.5</ele>
        <time>2021-05-18T09:13:02Z</time>
      </trkpt>
      <trkpt lat="41.8064230" lon="-8.8651710">
        <ele>13.5</ele>
        <time>2021-05-18T09:13:03Z</time>
      </trkpt>
      <trkpt lat="41.8064290" lon="-8.8651640">
        <ele>13.5</ele>
        <time>2021-05-18T09:13:04Z</time>
      </trkpt>
      <trkpt lat="41.8064360" lon="-8.8651660">
        <ele>13.5</ele>
        <time>2021-05-18T09:13:05Z</time>
      </trkpt>
      <trkpt lat="41.8064460" lon="-8.8651500">
        <ele>13.5</ele>
        <time>2021-05-18T09:13:06Z</time>
      </trkpt>
      <trkpt lat="41.8064520" lon="-8.8651470">
        <ele>13.5</ele>
        <time>2021-05-18T09:13:07Z</time>
      </trkpt>
      <trkpt lat="41.8064580" lon="-8.8651420">
        <ele>13.5</ele>
        <time>2021-05-18T09:13:08Z</time>
      </trkpt>
      <trkpt lat="41.8064670" lon="-8.8651400">
        <ele>13.6</ele>
        <time>2021-05-18T09:13:09Z</time>
      </trkpt>
      <trkpt lat="41.8064690" lon="-8.8651340">
        <ele>13.6</ele>
        <time>2021-05-18T09:13:10Z</time>
      </trkpt>
      <trkpt lat="41.8064760" lon="-8.8651300">
        <ele>13.6</ele>
        <time>2021-05-18T09:13:11Z</time>
      </trkpt>
      <trkpt lat="41.8064870" lon="-8.8651230">
        <ele>13.6</ele>
        <time>2021-05-18T09:13:12Z</time>
      </trkpt>
      <trkpt lat="41.8065040" lon="-8.8651100">
        <ele>13.6</ele>
        <time>2021-05-18T09:13:13Z</time>
      </trkpt>
      <trkpt lat="41.8065190" lon="-8.8651040">
        <ele>13.6</ele>
        <time>2021-05-18T09:13:14Z</time>
      </trkpt>
      <trkpt lat="41.8065350" lon="-8.8651040">
        <ele>13.7</ele>
        <time>2021-05-18T09:13:15Z</time>
      </trkpt>
      <trkpt lat="41.8065480" lon="-8.8650930">
        <ele>13.7</ele>
        <time>2021-05-18T09:13:16Z</time>
      </trkpt>
      <trkpt lat="41.8065630" lon="-8.8650840">
        <ele>13.7</ele>
        <time>2021-05-18T09:13:17Z</time>
      </trkpt>
      <trkpt lat="41.8065780" lon="-8.8650780">
        <ele>13.8</ele>
        <time>2021-05-18T09:13:18Z</time>
      </trkpt>
      <trkpt lat="41.8065930" lon="-8.8650770">
        <ele>13.8</ele>
        <time>2021-05-18T09:13:19Z</time>
      </trkpt>
      <trkpt lat="41.8066060" lon="-8.8650670">
        <ele>13.8</ele>
        <time>2021-05-18T09:13:20Z</time>
      </trkpt>
      <trkpt lat="41.8066180" lon="-8.8650570">
        <ele>13.8</ele>
        <time>2021-05-18T09:13:21Z</time>
      </trkpt>
      <trkpt lat="41.8066310" lon="-8.8650450">
        <ele>13.8</ele>
        <time>2021-05-18T09:13:22Z</time>
      </trkpt>
      <trkpt lat="41.8066410" lon="-8.8650310">
        <ele>13.9</ele>
        <time>2021-05-18T09:13:23Z</time>
      </trkpt>
      <trkpt lat="41.8066550" lon="-8.8650270">
        <ele>13.9</ele>
        <time>2021-05-18T09:13:24Z</time>
      </trkpt>
      <trkpt lat="41.8066600" lon="-8.8650280">
        <ele>13.9</ele>
        <time>2021-05-18T09:13:25Z</time>
      </trkpt>
      <trkpt lat="41.8066690" lon="-8.8650220">
        <ele>13.9</ele>
        <time>2021-05-18T09:13:26Z</time>
      </trkpt>
      <trkpt lat="41.8066740" lon="-8.8650180">
        <ele>13.9</ele>
        <time>2021-05-18T09:13:27Z</time>
      </trkpt>
      <trkpt lat="41.8066830" lon="-8.8650100">
        <ele>13.9</ele>
        <time>2021-05-18T09:13:28Z</time>
      </trkpt>
      <trkpt lat="41.8066940" lon="-8.8650050">
        <ele>14.0</ele>
        <time>2021-05-18T09:13:29Z</time>
      </trkpt>
      <trkpt lat="41.8067070" lon="-8.8649920">
        <ele>14.0</ele>
        <time>2021-05-18T09:13:30Z</time>
      </trkpt>
      <trkpt lat="41.8067130" lon="-8.8649870">
        <ele>14.0</ele>
        <time>2021-05-18T09:13:31Z</time>
      </trkpt>
      <trkpt lat="41.8067190" lon="-8.8649820">
        <ele>14.0</ele>
        <time>2021-05-18T09:13:32Z</time>
      </trkpt>
      <trkpt lat="41.8067250" lon="-8.8649770">
        <ele>14.0</ele>
        <time>2021-05-18T09:13:33Z</time>
      </trkpt>
      <trkpt lat="41.8067300" lon="-8.8649740">
        <ele>14.0</ele>
        <time>2021-05-18T09:13:34Z</time>
      </trkpt>
      <trkpt lat="41.8067390" lon="-8.8649710">
        <ele>14.0</ele>
        <time>2021-05-18T09:13:35Z</time>
      </trkpt>
      <trkpt lat="41.8067490" lon="-8.8649640">
        <ele>14.0</ele>
        <time>2021-05-18T09:13:36Z</time>
      </trkpt>
      <trkpt lat="41.8067510" lon="-8.8649590">
        <ele>14.1</ele>
        <time>2021-05-18T09:13:37Z</time>
      </trkpt>
      <trkpt lat="41.8067590" lon="-8.8649570">
        <ele>14.1</ele>
        <time>2021-05-18T09:13:38Z</time>
      </trkpt>
      <trkpt lat="41.8067680" lon="-8.8649510">
        <ele>14.1</ele>
        <time>2021-05-18T09:13:39Z</time>
      </trkpt>
      <trkpt lat="41.8067780" lon="-8.8649440">
        <ele>14.1</ele>
        <time>2021-05-18T09:13:40Z</time>
      </trkpt>
      <trkpt lat="41.8068000" lon="-8.8649390">
        <ele>14.2</ele>
        <time>2021-05-18T09:13:41Z</time>
      </trkpt>
      <trkpt lat="41.8068080" lon="-8.8649350">
        <ele>14.2</ele>
        <time>2021-05-18T09:13:42Z</time>
      </trkpt>
      <trkpt lat="41.8068170" lon="-8.8649320">
        <ele>14.2</ele>
        <time>2021-05-18T09:13:43Z</time>
      </trkpt>
      <trkpt lat="41.8068230" lon="-8.8649260">
        <ele>14.2</ele>
        <time>2021-05-18T09:13:44Z</time>
      </trkpt>
      <trkpt lat="41.8068280" lon="-8.8649200">
        <ele>14.2</ele>
        <time>2021-05-18T09:13:45Z</time>
      </trkpt>
      <trkpt lat="41.8068420" lon="-8.8649200">
        <ele>14.2</ele>
        <time>2021-05-18T09:13:46Z</time>
      </trkpt>
      <trkpt lat="41.8068460" lon="-8.8649100">
        <ele>14.3</ele>
        <time>2021-05-18T09:13:47Z</time>
      </trkpt>
      <trkpt lat="41.8068620" lon="-8.8648940">
        <ele>14.3</ele>
        <time>2021-05-18T09:13:48Z</time>
      </trkpt>
      <trkpt lat="41.8068700" lon="-8.8648870">
        <ele>14.3</ele>
        <time>2021-05-18T09:13:49Z</time>
      </trkpt>
      <trkpt lat="41.8068770" lon="-8.8648790">
        <ele>14.3</ele>
        <time>2021-05-18T09:13:50Z</time>
      </trkpt>
      <trkpt lat="41.8068900" lon="-8.8648640">
        <ele>14.4</ele>
        <time>2021-05-18T09:13:51Z</time>
      </trkpt>
      <trkpt lat="41.8068990" lon="-8.8648560">
        <ele>14.4</ele>
        <time>2021-05-18T09:13:52Z</time>
      </trkpt>
      <trkpt lat="41.8069080" lon="-8.8648490">
        <ele>14.4</ele>
        <time>2021-05-18T09:13:53Z</time>
      </trkpt>
      <trkpt lat="41.8069270" lon="-8.8648330">
        <ele>14.4</ele>
        <time>2021-05-18T09:13:54Z</time>
      </trkpt>
      <trkpt lat="41.8069340" lon="-8.8648270">
        <ele>14.4</ele>
        <time>2021-05-18T09:13:55Z</time>
      </trkpt>
      <trkpt lat="41.8069410" lon="-8.8648210">
        <ele>14.4</ele>
        <time>2021-05-18T09:13:56Z</time>
      </trkpt>
      <trkpt lat="41.8069500" lon="-8.8648160">
        <ele>14.4</ele>
        <time>2021-05-18T09:13:57Z</time>
      </trkpt>
      <trkpt lat="41.8069600" lon="-8.8648140">
        <ele>14.4</ele>
        <time>2021-05-18T09:13:58Z</time>
      </trkpt>
      <trkpt lat="41.8069680" lon="-8.8648100">
        <ele>14.4</ele>
        <time>2021-05-18T09:13:59Z</time>
      </trkpt>
      <trkpt lat="41.8069880" lon="-8.8648020">
        <ele>14.4</ele>
        <time>2021-05-18T09:14:00Z</time>
      </trkpt>
      <trkpt lat="41.8069910" lon="-8.8648000">
        <ele>14.4</ele>
        <time>2021-05-18T09:14:01Z</time>
      </trkpt>
      <trkpt lat="41.8070020" lon="-8.8648000">
        <ele>14.4</ele>
        <time>2021-05-18T09:14:02Z</time>
      </trkpt>
      <trkpt lat="41.8070090" lon="-8.8647930">
        <ele>14.4</ele>
        <time>2021-05-18T09:14:03Z</time>
      </trkpt>
      <trkpt lat="41.8070230" lon="-8.8647860">
        <ele>14.4</ele>
        <time>2021-05-18T09:14:04Z</time>
      </trkpt>
      <trkpt lat="41.8070260" lon="-8.8647790">
        <ele>14.4</ele>
        <time>2021-05-18T09:14:05Z</time>
      </trkpt>
      <trkpt lat="41.8070500" lon="-8.8647700">
        <ele>14.4</ele>
        <time>2021-05-18T09:14:06Z</time>
      </trkpt>
      <trkpt lat="41.8070550" lon="-8.8647660">
        <ele>14.4</ele>
        <time>2021-05-18T09:14:07Z</time>
      </trkpt>
      <trkpt lat="41.8070610" lon="-8.8647620">
        <ele>14.4</ele>
        <time>2021-05-18T09:14:08Z</time>
      </trkpt>
      <trkpt lat="41.8070740" lon="-8.8647580">
        <ele>14.4</ele>
        <time>2021-05-18T09:14:09Z</time>
      </trkpt>
      <trkpt lat="41.8070820" lon="-8.8647480">
        <ele>14.4</ele>
        <time>2021-05-18T09:14:10Z</time>
      </trkpt>
      <trkpt lat="41.8070910" lon="-8.8647420">
        <ele>14.4</ele>
        <time>2021-05-18T09:14:11Z</time>
      </trkpt>
      <trkpt lat="41.8071080" lon="-8.8647270">
        <ele>14.3</ele>
        <time>2021-05-18T09:14:12Z</time>
      </trkpt>
      <trkpt lat="41.8071160" lon="-8.8647200">
        <ele>14.3</ele>
        <time>2021-05-18T09:14:13Z</time>
      </trkpt>
      <trkpt lat="41.8071230" lon="-8.8647120">
        <ele>14.3</ele>
        <time>2021-05-18T09:14:14Z</time>
      </trkpt>
      <trkpt lat="41.8071400" lon="-8.8647030">
        <ele>14.3</ele>
        <time>2021-05-18T09:14:15Z</time>
      </trkpt>
      <trkpt lat="41.8071470" lon="-8.8646970">
        <ele>14.2</ele>
        <time>2021-05-18T09:14:16Z</time>
      </trkpt>
      <trkpt lat="41.8071530" lon="-8.8646910">
        <ele>14.2</ele>
        <time>2021-05-18T09:14:17Z</time>
      </trkpt>
      <trkpt lat="41.8071660" lon="-8.8646870">
        <ele>14.2</ele>
        <time>2021-05-18T09:14:18Z</time>
      </trkpt>
      <trkpt lat="41.8071740" lon="-8.8646860">
        <ele>14.1</ele>
        <time>2021-05-18T09:14:19Z</time>
      </trkpt>
      <trkpt lat="41.8071860" lon="-8.8646790">
        <ele>14.1</ele>
        <time>2021-05-18T09:14:20Z</time>
      </trkpt>
      <trkpt lat="41.8072080" lon="-8.8646660">
        <ele>14.0</ele>
        <time>2021-05-18T09:14:21Z</time>
      </trkpt>
      <trkpt lat="41.8072170" lon="-8.8646610">
        <ele>13.9</ele>
        <time>2021-05-18T09:14:22Z</time>
      </trkpt>
      <trkpt lat="41.8072260" lon="-8.8646560">
        <ele>13.9</ele>
        <time>2021-05-18T09:14:23Z</time>
      </trkpt>
      <trkpt lat="41.8072390" lon="-8.8646490">
        <ele>13.8</ele>
        <time>2021-05-18T09:14:24Z</time>
      </trkpt>
      <trkpt lat="41.8072550" lon="-8.8646420">
        <ele>13.7</ele>
        <time>2021-05-18T09:14:25Z</time>
      </trkpt>
      <trkpt lat="41.8072680" lon="-8.8646290">
        <ele>13.6</ele>
        <time>2021-05-18T09:14:26Z</time>
      </trkpt>
      <trkpt lat="41.8072840" lon="-8.8646230">
        <ele>13.5</ele>
        <time>2021-05-18T09:14:27Z</time>
      </trkpt>
      <trkpt lat="41.8073040" lon="-8.8646110">
        <ele>13.3</ele>
        <time>2021-05-18T09:14:28Z</time>
      </trkpt>
      <trkpt lat="41.8073120" lon="-8.8646070">
        <ele>13.2</ele>
        <time>2021-05-18T09:14:29Z</time>
      </trkpt>
      <trkpt lat="41.8073210" lon="-8.8646030">
        <ele>13.1</ele>
        <time>2021-05-18T09:14:30Z</time>
      </trkpt>
      <trkpt lat="41.8073410" lon="-8.8645900">
        <ele>12.9</ele>
        <time>2021-05-18T09:14:31Z</time>
      </trkpt>
      <trkpt lat="41.8073480" lon="-8.8645850">
        <ele>12.9</ele>
        <time>2021-05-18T09:14:32Z</time>
      </trkpt>
      <trkpt lat="41.8073560" lon="-8.8645790">
        <ele>12.8</ele>
        <time>2021-05-18T09:14:33Z</time>
      </trkpt>
      <trkpt lat="41.8073670" lon="-8.8645680">
        <ele>12.6</ele>
        <time>2021-05-18T09:14:34Z</time>
      </trkpt>
      <trkpt lat="41.8073840" lon="-8.8645690">
        <ele>12.5</ele>
        <time>2021-05-18T09:14:35Z</time>
      </trkpt>
      <trkpt lat="41.8073960" lon="-8.8645630">
        <ele>12.4</ele>
        <time>2021-05-18T09:14:36Z</time>
      </trkpt>
      <trkpt lat="41.8074080" lon="-8.8645460">
        <ele>12.2</ele>
        <time>2021-05-18T09:14:37Z</time>
      </trkpt>
      <trkpt lat="41.8074160" lon="-8.8645260">
        <ele>12.1</ele>
        <time>2021-05-18T09:14:38Z</time>
      </trkpt>
      <trkpt lat="41.8074230" lon="-8.8645100">
        <ele>12.0</ele>
        <time>2021-05-18T09:14:39Z</time>
      </trkpt>
      <trkpt lat="41.8074310" lon="-8.8644930">
        <ele>11.9</ele>
        <time>2021-05-18T09:14:40Z</time>
      </trkpt>
      <trkpt lat="41.8074360" lon="-8.8644730">
        <ele>11.8</ele>
        <time>2021-05-18T09:14:41Z</time>
      </trkpt>
      <trkpt lat="41.8074500" lon="-8.8644490">
        <ele>11.6</ele>
        <time>2021-05-18T09:14:42Z</time>
      </trkpt>
      <trkpt lat="41.8074540" lon="-8.8644390">
        <ele>11.6</ele>
        <time>2021-05-18T09:14:43Z</time>
      </trkpt>
      <trkpt lat="41.8074590" lon="-8.8644290">
        <ele>11.5</ele>
        <time>2021-05-18T09:14:44Z</time>
      </trkpt>
      <trkpt lat="41.8074660" lon="-8.8644120">
        <ele>11.5</ele>
        <time>2021-05-18T09:14:45Z</time>
      </trkpt>
      <trkpt lat="41.8074790" lon="-8.8643970">
        <ele>11.4</ele>
        <time>2021-05-18T09:14:46Z</time>
      </trkpt>
      <trkpt lat="41.8074900" lon="-8.8643700">
        <ele>11.3</ele>
        <time>2021-05-18T09:14:47Z</time>
      </trkpt>
      <trkpt lat="41.8074950" lon="-8.8643600">
        <ele>11.2</ele>
        <time>2021-05-18T09:14:48Z</time>
      </trkpt>
      <trkpt lat="41.8074990" lon="-8.8643500">
        <ele>11.2</ele>
        <time>2021-05-18T09:14:49Z</time>
      </trkpt>
      <trkpt lat="41.8075110" lon="-8.8643250">
        <ele>11.1</ele>
        <time>2021-05-18T09:14:50Z</time>
      </trkpt>
      <trkpt lat="41.8075160" lon="-8.8643170">
        <ele>11.0</ele>
        <time>2021-05-18T09:14:51Z</time>
      </trkpt>
      <trkpt lat="41.8075220" lon="-8.8643090">
        <ele>11.0</ele>
        <time>2021-05-18T09:14:52Z</time>
      </trkpt>
      <trkpt lat="41.8075340" lon="-8.8642850">
        <ele>10.9</ele>
        <time>2021-05-18T09:14:53Z</time>
      </trkpt>
      <trkpt lat="41.8075370" lon="-8.8642740">
        <ele>10.8</ele>
        <time>2021-05-18T09:14:54Z</time>
      </trkpt>
      <trkpt lat="41.8075400" lon="-8.8642630">
        <ele>10.7</ele>
        <time>2021-05-18T09:14:55Z</time>
      </trkpt>
      <trkpt lat="41.8075480" lon="-8.8642510">
        <ele>10.6</ele>
        <time>2021-05-18T09:14:56Z</time>
      </trkpt>
      <trkpt lat="41.8075520" lon="-8.8642360">
        <ele>10.5</ele>
        <time>2021-05-18T09:14:57Z</time>
      </trkpt>
      <trkpt lat="41.8075580" lon="-8.8642230">
        <ele>10.4</ele>
        <time>2021-05-18T09:14:58Z</time>
      </trkpt>
      <trkpt lat="41.8075540" lon="-8.8641990">
        <ele>10.2</ele>
        <time>2021-05-18T09:14:59Z</time>
      </trkpt>
      <trkpt lat="41.8075520" lon="-8.8641830">
        <ele>10.1</ele>
        <time>2021-05-18T09:15:00Z</time>
      </trkpt>
      <trkpt lat="41.8075480" lon="-8.8641690">
        <ele>9.9</ele>
        <time>2021-05-18T09:15:01Z</time>
      </trkpt>
      <trkpt lat="41.8075530" lon="-8.8641540">
        <ele>9.8</ele>
        <time>2021-05-18T09:15:02Z</time>
      </trkpt>
      <trkpt lat="41.8075580" lon="-8.8641390">
        <ele>9.6</ele>
        <time>2021-05-18T09:15:03Z</time>
      </trkpt>
      <trkpt lat="41.8075530" lon="-8.8641220">
        <ele>9.4</ele>
        <time>2021-05-18T09:15:04Z</time>
      </trkpt>
      <trkpt lat="41.8075480" lon="-8.8641070">
        <ele>9.2</ele>
        <time>2021-05-18T09:15:05Z</time>
      </trkpt>
      <trkpt lat="41.8075480" lon="-8.8640930">
        <ele>9.1</ele>
        <time>2021-05-18T09:15:06Z</time>
      </trkpt>
      <trkpt lat="41.8075490" lon="-8.8640840">
        <ele>9.0</ele>
        <time>2021-05-18T09:15:07Z</time>
      </trkpt>
      <trkpt lat="41.8075490" lon="-8.8640810">
        <ele>8.9</ele>
        <time>2021-05-18T09:15:08Z</time>
      </trkpt>
      <trkpt lat="41.8075450" lon="-8.8640810">
        <ele>8.9</ele>
        <time>2021-05-18T09:15:09Z</time>
      </trkpt>
      <trkpt lat="41.8075410" lon="-8.8640790">
        <ele>8.8</ele>
        <time>2021-05-18T09:15:10Z</time>
      </trkpt>
      <trkpt lat="41.8075410" lon="-8.8640690">
        <ele>8.7</ele>
        <time>2021-05-18T09:15:11Z</time>
      </trkpt>
      <trkpt lat="41.8075370" lon="-8.8640610">
        <ele>8.6</ele>
        <time>2021-05-18T09:15:12Z</time>
      </trkpt>
      <trkpt lat="41.8075380" lon="-8.8640550">
        <ele>8.5</ele>
        <time>2021-05-18T09:15:13Z</time>
      </trkpt>
      <trkpt lat="41.8075370" lon="-8.8640570">
        <ele>8.5</ele>
        <time>2021-05-18T09:15:14Z</time>
      </trkpt>
      <trkpt lat="41.8075340" lon="-8.8640700">
        <ele>8.3</ele>
        <time>2021-05-18T09:15:15Z</time>
      </trkpt>
      <trkpt lat="41.8075300" lon="-8.8640770">
        <ele>8.2</ele>
        <time>2021-05-18T09:15:16Z</time>
      </trkpt>
      <trkpt lat="41.8075260" lon="-8.8640810">
        <ele>8.1</ele>
        <time>2021-05-18T09:15:17Z</time>
      </trkpt>
      <trkpt lat="41.8075250" lon="-8.8640840">
        <ele>8.1</ele>
        <time>2021-05-18T09:15:18Z</time>
      </trkpt>
      <trkpt lat="41.8075250" lon="-8.8640780">
        <ele>8.0</ele>
        <time>2021-05-18T09:15:19Z</time>
      </trkpt>
      <trkpt lat="41.8075190" lon="-8.8640710">
        <ele>7.9</ele>
        <time>2021-05-18T09:15:20Z</time>
      </trkpt>
      <trkpt lat="41.8075170" lon="-8.8640630">
        <ele>7.8</ele>
        <time>2021-05-18T09:15:21Z</time>
      </trkpt>
      <trkpt lat="41.8075200" lon="-8.8640580">
        <ele>7.7</ele>
        <time>2021-05-18T09:15:22Z</time>
      </trkpt>
      <trkpt lat="41.8075190" lon="-8.8640470">
        <ele>7.6</ele>
        <time>2021-05-18T09:15:23Z</time>
      </trkpt>
      <trkpt lat="41.8075200" lon="-8.8640420">
        <ele>7.6</ele>
        <time>2021-05-18T09:15:24Z</time>
      </trkpt>
      <trkpt lat="41.8075230" lon="-8.8640230">
        <ele>7.3</ele>
        <time>2021-05-18T09:15:25Z</time>
      </trkpt>
      <trkpt lat="41.8075160" lon="-8.8640180">
        <ele>7.2</ele>
        <time>2021-05-18T09:15:26Z</time>
      </trkpt>
      <trkpt lat="41.8075200" lon="-8.8640050">
        <ele>7.1</ele>
        <time>2021-05-18T09:15:27Z</time>
      </trkpt>
      <trkpt lat="41.8075190" lon="-8.8639940">
        <ele>7.0</ele>
        <time>2021-05-18T09:15:28Z</time>
      </trkpt>
      <trkpt lat="41.8075230" lon="-8.8639850">
        <ele>6.9</ele>
        <time>2021-05-18T09:15:29Z</time>
      </trkpt>
      <trkpt lat="41.8075220" lon="-8.8639610">
        <ele>6.7</ele>
        <time>2021-05-18T09:15:30Z</time>
      </trkpt>
      <trkpt lat="41.8075250" lon="-8.8639480">
        <ele>6.5</ele>
        <time>2021-05-18T09:15:31Z</time>
      </trkpt>
      <trkpt lat="41.8075270" lon="-8.8639340">
        <ele>6.4</ele>
        <time>2021-05-18T09:15:32Z</time>
      </trkpt>
      <trkpt lat="41.8075260" lon="-8.8639260">
        <ele>6.4</ele>
        <time>2021-05-18T09:15:33Z</time>
      </trkpt>
      <trkpt lat="41.8075240" lon="-8.8639240">
        <ele>6.3</ele>
        <time>2021-05-18T09:15:34Z</time>
      </trkpt>
      <trkpt lat="41.8075210" lon="-8.8639170">
        <ele>6.3</ele>
        <time>2021-05-18T09:15:35Z</time>
      </trkpt>
      <trkpt lat="41.8075150" lon="-8.8638980">
        <ele>6.1</ele>
        <time>2021-05-18T09:15:36Z</time>
      </trkpt>
      <trkpt lat="41.8075180" lon="-8.8638800">
        <ele>6.0</ele>
        <time>2021-05-18T09:15:37Z</time>
      </trkpt>
      <trkpt lat="41.8075140" lon="-8.8638670">
        <ele>5.9</ele>
        <time>2021-05-18T09:15:38Z</time>
      </trkpt>
      <trkpt lat="41.8075130" lon="-8.8638580">
        <ele>5.9</ele>
        <time>2021-05-18T09:15:39Z</time>
      </trkpt>
      <trkpt lat="41.8075060" lon="-8.8638490">
        <ele>5.8</ele>
        <time>2021-05-18T09:15:40Z</time>
      </trkpt>
      <trkpt lat="41.8075020" lon="-8.8638360">
        <ele>5.7</ele>
        <time>2021-05-18T09:15:41Z</time>
      </trkpt>
      <trkpt lat="41.8074950" lon="-8.8638190">
        <ele>5.6</ele>
        <time>2021-05-18T09:15:42Z</time>
      </trkpt>
      <trkpt lat="41.8074900" lon="-8.8638020">
        <ele>5.5</ele>
        <time>2021-05-18T09:15:43Z</time>
      </trkpt>
      <trkpt lat="41.8074870" lon="-8.8637830">
        <ele>5.4</ele>
        <time>2021-05-18T09:15:44Z</time>
      </trkpt>
      <trkpt lat="41.8074840" lon="-8.8637700">
        <ele>5.3</ele>
        <time>2021-05-18T09:15:45Z</time>
      </trkpt>
      <trkpt lat="41.8074820" lon="-8.8637560">
        <ele>5.3</ele>
        <time>2021-05-18T09:15:46Z</time>
      </trkpt>
      <trkpt lat="41.8074760" lon="-8.8637470">
        <ele>5.2</ele>
        <time>2021-05-18T09:15:47Z</time>
      </trkpt>
      <trkpt lat="41.8074720" lon="-8.8637370">
        <ele>5.1</ele>
        <time>2021-05-18T09:15:48Z</time>
      </trkpt>
      <trkpt lat="41.8074700" lon="-8.8637270">
        <ele>5.1</ele>
        <time>2021-05-18T09:15:49Z</time>
      </trkpt>
      <trkpt lat="41.8074690" lon="-8.8637160">
        <ele>5.0</ele>
        <time>2021-05-18T09:15:50Z</time>
      </trkpt>
      <trkpt lat="41.8074670" lon="-8.8637060">
        <ele>5.0</ele>
        <time>2021-05-18T09:15:51Z</time>
      </trkpt>
      <trkpt lat="41.8074660" lon="-8.8636950">
        <ele>5.0</ele>
        <time>2021-05-18T09:15:52Z</time>
      </trkpt>
      <trkpt lat="41.8074620" lon="-8.8636780">
        <ele>5.0</ele>
        <time>2021-05-18T09:15:53Z</time>
      </trkpt>
      <trkpt lat="41.8074630" lon="-8.8636580">
        <ele>5.0</ele>
        <time>2021-05-18T09:15:54Z</time>
      </trkpt>
      <trkpt lat="41.8074510" lon="-8.8636340">
        <ele>5.0</ele>
        <time>2021-05-18T09:15:55Z</time>
      </trkpt>
      <trkpt lat="41.8074470" lon="-8.8636240">
        <ele>5.0</ele>
        <time>2021-05-18T09:15:56Z</time>
      </trkpt>
      <trkpt lat="41.8074440" lon="-8.8636130">
        <ele>5.0</ele>
        <time>2021-05-18T09:15:57Z</time>
      </trkpt>
      <trkpt lat="41.8074410" lon="-8.8636000">
        <ele>5.0</ele>
        <time>2021-05-18T09:15:58Z</time>
      </trkpt>
      <trkpt lat="41.8074350" lon="-8.8635820">
        <ele>5.0</ele>
        <time>2021-05-18T09:15:59Z</time>
      </trkpt>
      <trkpt lat="41.8074330" lon="-8.8635680">
        <ele>5.0</ele>
        <time>2021-05-18T09:16:00Z</time>
      </trkpt>
      <trkpt lat="41.8074340" lon="-8.8635550">
        <ele>5.0</ele>
        <time>2021-05-18T09:16:01Z</time>
      </trkpt>
      <trkpt lat="41.8074340" lon="-8.8635290">
        <ele>5.0</ele>
        <time>2021-05-18T09:16:02Z</time>
      </trkpt>
      <trkpt lat="41.8074330" lon="-8.8635120">
        <ele>5.0</ele>
        <time>2021-05-18T09:16:03Z</time>
      </trkpt>
      <trkpt lat="41.8074310" lon="-8.8634890">
        <ele>5.0</ele>
        <time>2021-05-18T09:16:04Z</time>
      </trkpt>
      <trkpt lat="41.8074260" lon="-8.8634700">
        <ele>5.0</ele>
        <time>2021-05-18T09:16:05Z</time>
      </trkpt>
      <trkpt lat="41.8074290" lon="-8.8634510">
        <ele>5.0</ele>
        <time>2021-05-18T09:16:06Z</time>
      </trkpt>
      <trkpt lat="41.8074270" lon="-8.8634320">
        <ele>5.0</ele>
        <time>2021-05-18T09:16:07Z</time>
      </trkpt>
      <trkpt lat="41.8074210" lon="-8.8634160">
        <ele>4.9</ele>
        <time>2021-05-18T09:16:08Z</time>
      </trkpt>
      <trkpt lat="41.8074160" lon="-8.8633980">
        <ele>4.9</ele>
        <time>2021-05-18T09:16:09Z</time>
      </trkpt>
      <trkpt lat="41.8074150" lon="-8.8633790">
        <ele>4.9</ele>
        <time>2021-05-18T09:16:10Z</time>
      </trkpt>
      <trkpt lat="41.8074080" lon="-8.8633650">
        <ele>4.9</ele>
        <time>2021-05-18T09:16:11Z</time>
      </trkpt>
      <trkpt lat="41.8074050" lon="-8.8633480">
        <ele>4.9</ele>
        <time>2021-05-18T09:16:12Z</time>
      </trkpt>
      <trkpt lat="41.8074020" lon="-8.8633370">
        <ele>4.9</ele>
        <time>2021-05-18T09:16:13Z</time>
      </trkpt>
      <trkpt lat="41.8073940" lon="-8.8633120">
        <ele>4.9</ele>
        <time>2021-05-18T09:16:14Z</time>
      </trkpt>
      <trkpt lat="41.8073930" lon="-8.8632940">
        <ele>4.9</ele>
        <time>2021-05-18T09:16:15Z</time>
      </trkpt>
      <trkpt lat="41.8073880" lon="-8.8632760">
        <ele>4.9</ele>
        <time>2021-05-18T09:16:16Z</time>
      </trkpt>
      <trkpt lat="41.8073840" lon="-8.8632570">
        <ele>4.9</ele>
        <time>2021-05-18T09:16:17Z</time>
      </trkpt>
      <trkpt lat="41.8073810" lon="-8.8632370">
        <ele>4.9</ele>
        <time>2021-05-18T09:16:18Z</time>
      </trkpt>
      <trkpt lat="41.8073790" lon="-8.8632140">
        <ele>4.9</ele>
        <time>2021-05-18T09:16:19Z</time>
      </trkpt>
      <trkpt lat="41.8073780" lon="-8.8631960">
        <ele>4.9</ele>
        <time>2021-05-18T09:16:20Z</time>
      </trkpt>
      <trkpt lat="41.8073740" lon="-8.8631760">
        <ele>4.9</ele>
        <time>2021-05-18T09:16:21Z</time>
      </trkpt>
      <trkpt lat="41.8073720" lon="-8.8631570">
        <ele>4.9</ele>
        <time>2021-05-18T09:16:22Z</time>
      </trkpt>
      <trkpt lat="41.8073640" lon="-8.8631390">
        <ele>4.8</ele>
        <time>2021-05-18T09:16:23Z</time>
      </trkpt>
      <trkpt lat="41.8073690" lon="-8.8631160">
        <ele>4.8</ele>
        <time>2021-05-18T09:16:24Z</time>
      </trkpt>
      <trkpt lat="41.8073630" lon="-8.8630990">
        <ele>4.8</ele>
        <time>2021-05-18T09:16:25Z</time>
      </trkpt>
      <trkpt lat="41.8073560" lon="-8.8630800">
        <ele>4.8</ele>
        <time>2021-05-18T09:16:26Z</time>
      </trkpt>
      <trkpt lat="41.8073570" lon="-8.8630590">
        <ele>4.8</ele>
        <time>2021-05-18T09:16:27Z</time>
      </trkpt>
      <trkpt lat="41.8073510" lon="-8.8630410">
        <ele>4.8</ele>
        <time>2021-05-18T09:16:28Z</time>
      </trkpt>
      <trkpt lat="41.8073540" lon="-8.8630210">
        <ele>4.8</ele>
        <time>2021-05-18T09:16:29Z</time>
      </trkpt>
      <trkpt lat="41.8073510" lon="-8.8630020">
        <ele>4.8</ele>
        <time>2021-05-18T09:16:30Z</time>
      </trkpt>
      <trkpt lat="41.8073460" lon="-8.8629830">
        <ele>4.8</ele>
        <time>2021-05-18T09:16:31Z</time>
      </trkpt>
      <trkpt lat="41.8073420" lon="-8.8629620">
        <ele>4.8</ele>
        <time>2021-05-18T09:16:32Z</time>
      </trkpt>
      <trkpt lat="41.8073400" lon="-8.8629440">
        <ele>4.8</ele>
        <time>2021-05-18T09:16:33Z</time>
      </trkpt>
      <trkpt lat="41.8073390" lon="-8.8629270">
        <ele>4.8</ele>
        <time>2021-05-18T09:16:34Z</time>
      </trkpt>
      <trkpt lat="41.8073440" lon="-8.8629080">
        <ele>4.8</ele>
        <time>2021-05-18T09:16:35Z</time>
      </trkpt>
      <trkpt lat="41.8073410" lon="-8.8628870">
        <ele>4.8</ele>
        <time>2021-05-18T09:16:36Z</time>
      </trkpt>
      <trkpt lat="41.8073450" lon="-8.8628660">
        <ele>4.8</ele>
        <time>2021-05-18T09:16:37Z</time>
      </trkpt>
      <trkpt lat="41.8073430" lon="-8.8628470">
        <ele>4.8</ele>
        <time>2021-05-18T09:16:38Z</time>
      </trkpt>
      <trkpt lat="41.8073410" lon="-8.8628300">
        <ele>4.8</ele>
        <time>2021-05-18T09:16:39Z</time>
      </trkpt>
      <trkpt lat="41.8073440" lon="-8.8628110">
        <ele>4.8</ele>
        <time>2021-05-18T09:16:40Z</time>
      </trkpt>
      <trkpt lat="41.8073420" lon="-8.8627930">
        <ele>4.8</ele>
        <time>2021-05-18T09:16:41Z</time>
      </trkpt>
      <trkpt lat="41.8073420" lon="-8.8627730">
        <ele>4.8</ele>
        <time>2021-05-18T09:16:42Z</time>
      </trkpt>
      <trkpt lat="41.8073440" lon="-8.8627540">
        <ele>4.8</ele>
        <time>2021-05-18T09:16:43Z</time>
      </trkpt>
      <trkpt lat="41.8073460" lon="-8.8627390">
        <ele>4.8</ele>
        <time>2021-05-18T09:16:44Z</time>
      </trkpt>
      <trkpt lat="41.8073490" lon="-8.8627260">
        <ele>4.8</ele>
        <time>2021-05-18T09:16:45Z</time>
      </trkpt>
      <trkpt lat="41.8073440" lon="-8.8627080">
        <ele>4.8</ele>
        <time>2021-05-18T09:16:46Z</time>
      </trkpt>
      <trkpt lat="41.8073380" lon="-8.8626810">
        <ele>4.8</ele>
        <time>2021-05-18T09:16:47Z</time>
      </trkpt>
      <trkpt lat="41.8073370" lon="-8.8626650">
        <ele>4.8</ele>
        <time>2021-05-18T09:16:48Z</time>
      </trkpt>
      <trkpt lat="41.8073360" lon="-8.8626490">
        <ele>4.8</ele>
        <time>2021-05-18T09:16:49Z</time>
      </trkpt>
      <trkpt lat="41.8073350" lon="-8.8626230">
        <ele>4.8</ele>
        <time>2021-05-18T09:16:50Z</time>
      </trkpt>
      <trkpt lat="41.8073340" lon="-8.8626100">
        <ele>4.8</ele>
        <time>2021-05-18T09:16:51Z</time>
      </trkpt>
      <trkpt lat="41.8073340" lon="-8.8625970">
        <ele>4.8</ele>
        <time>2021-05-18T09:16:52Z</time>
      </trkpt>
      <trkpt lat="41.8073350" lon="-8.8625790">
        <ele>4.8</ele>
        <time>2021-05-18T09:16:53Z</time>
      </trkpt>
      <trkpt lat="41.8073340" lon="-8.8625610">
        <ele>4.8</ele>
        <time>2021-05-18T09:16:54Z</time>
      </trkpt>
      <trkpt lat="41.8073300" lon="-8.8625420">
        <ele>4.8</ele>
        <time>2021-05-18T09:16:55Z</time>
      </trkpt>
      <trkpt lat="41.8073250" lon="-8.8625230">
        <ele>4.8</ele>
        <time>2021-05-18T09:16:56Z</time>
      </trkpt>
      <trkpt lat="41.8073210" lon="-8.8624920">
        <ele>4.8</ele>
        <time>2021-05-18T09:16:57Z</time>
      </trkpt>
      <trkpt lat="41.8073210" lon="-8.8624800">
        <ele>4.8</ele>
        <time>2021-05-18T09:16:58Z</time>
      </trkpt>
      <trkpt lat="41.8073210" lon="-8.8624670">
        <ele>4.8</ele>
        <time>2021-05-18T09:16:59Z</time>
      </trkpt>
      <trkpt lat="41.8073230" lon="-8.8624450">
        <ele>4.7</ele>
        <time>2021-05-18T09:17:00Z</time>
      </trkpt>
      <trkpt lat="41.8073240" lon="-8.8624260">
        <ele>4.7</ele>
        <time>2021-05-18T09:17:01Z</time>
      </trkpt>
      <trkpt lat="41.8073240" lon="-8.8623970">
        <ele>4.7</ele>
        <time>2021-05-18T09:17:02Z</time>
      </trkpt>
      <trkpt lat="41.8073250" lon="-8.8623860">
        <ele>4.7</ele>
        <time>2021-05-18T09:17:03Z</time>
      </trkpt>
      <trkpt lat="41.8073250" lon="-8.8623740">
        <ele>4.7</ele>
        <time>2021-05-18T09:17:04Z</time>
      </trkpt>
      <trkpt lat="41.8073200" lon="-8.8623550">
        <ele>4.7</ele>
        <time>2021-05-18T09:17:05Z</time>
      </trkpt>
      <trkpt lat="41.8073170" lon="-8.8623350">
        <ele>4.7</ele>
        <time>2021-05-18T09:17:06Z</time>
      </trkpt>
      <trkpt lat="41.8073110" lon="-8.8623170">
        <ele>4.7</ele>
        <time>2021-05-18T09:17:07Z</time>
      </trkpt>
      <trkpt lat="41.8073070" lon="-8.8623000">
        <ele>4.7</ele>
        <time>2021-05-18T09:17:08Z</time>
      </trkpt>
      <trkpt lat="41.8073060" lon="-8.8622690">
        <ele>4.6</ele>
        <time>2021-05-18T09:17:09Z</time>
      </trkpt>
      <trkpt lat="41.8073040" lon="-8.8622560">
        <ele>4.6</ele>
        <time>2021-05-18T09:17:10Z</time>
      </trkpt>
      <trkpt lat="41.8073020" lon="-8.8622440">
        <ele>4.6</ele>
        <time>2021-05-18T09:17:11Z</time>
      </trkpt>
      <trkpt lat="41.8073000" lon="-8.8622150">
        <ele>4.6</ele>
        <time>2021-05-18T09:17:12Z</time>
      </trkpt>
      <trkpt lat="41.8072970" lon="-8.8622040">
        <ele>4.6</ele>
        <time>2021-05-18T09:17:13Z</time>
      </trkpt>
      <trkpt lat="41.8072950" lon="-8.8621930">
        <ele>4.5</ele>
        <time>2021-05-18T09:17:14Z</time>
      </trkpt>
      <trkpt lat="41.8072910" lon="-8.8621750">
        <ele>4.5</ele>
        <time>2021-05-18T09:17:15Z</time>
      </trkpt>
      <trkpt lat="41.8072910" lon="-8.8621560">
        <ele>4.5</ele>
        <time>2021-05-18T09:17:16Z</time>
      </trkpt>
      <trkpt lat="41.8072880" lon="-8.8621270">
        <ele>4.5</ele>
        <time>2021-05-18T09:17:17Z</time>
      </trkpt>
      <trkpt lat="41.8072860" lon="-8.8621150">
        <ele>4.5</ele>
        <time>2021-05-18T09:17:18Z</time>
      </trkpt>
      <trkpt lat="41.8072840" lon="-8.8621040">
        <ele>4.4</ele>
        <time>2021-05-18T09:17:19Z</time>
      </trkpt>
      <trkpt lat="41.8072800" lon="-8.8620760">
        <ele>4.4</ele>
        <time>2021-05-18T09:17:20Z</time>
      </trkpt>
      <trkpt lat="41.8072780" lon="-8.8620660">
        <ele>4.4</ele>
        <time>2021-05-18T09:17:21Z</time>
      </trkpt>
      <trkpt lat="41.8072770" lon="-8.8620550">
        <ele>4.4</ele>
        <time>2021-05-18T09:17:22Z</time>
      </trkpt>
      <trkpt lat="41.8072790" lon="-8.8620360">
        <ele>4.4</ele>
        <time>2021-05-18T09:17:23Z</time>
      </trkpt>
      <trkpt lat="41.8072840" lon="-8.8620170">
        <ele>4.3</ele>
        <time>2021-05-18T09:17:24Z</time>
      </trkpt>
      <trkpt lat="41.8072910" lon="-8.8619970">
        <ele>4.3</ele>
        <time>2021-05-18T09:17:25Z</time>
      </trkpt>
      <trkpt lat="41.8073040" lon="-8.8619830">
        <ele>4.3</ele>
        <time>2021-05-18T09:17:26Z</time>
      </trkpt>
      <trkpt lat="41.8073140" lon="-8.8619580">
        <ele>4.3</ele>
        <time>2021-05-18T09:17:27Z</time>
      </trkpt>
      <trkpt lat="41.8073170" lon="-8.8619480">
        <ele>4.3</ele>
        <time>2021-05-18T09:17:28Z</time>
      </trkpt>
      <trkpt lat="41.8073210" lon="-8.8619380">
        <ele>4.3</ele>
        <time>2021-05-18T09:17:29Z</time>
      </trkpt>
      <trkpt lat="41.8073210" lon="-8.8619090">
        <ele>4.2</ele>
        <time>2021-05-18T09:17:30Z</time>
      </trkpt>
      <trkpt lat="41.8073220" lon="-8.8618980">
        <ele>4.2</ele>
        <time>2021-05-18T09:17:31Z</time>
      </trkpt>
      <trkpt lat="41.8073230" lon="-8.8618870">
        <ele>4.2</ele>
        <time>2021-05-18T09:17:32Z</time>
      </trkpt>
      <trkpt lat="41.8073200" lon="-8.8618690">
        <ele>4.2</ele>
        <time>2021-05-18T09:17:33Z</time>
      </trkpt>
      <trkpt lat="41.8073120" lon="-8.8618520">
        <ele>4.2</ele>
        <time>2021-05-18T09:17:34Z</time>
      </trkpt>
      <trkpt lat="41.8073070" lon="-8.8618340">
        <ele>4.2</ele>
        <time>2021-05-18T09:17:35Z</time>
      </trkpt>
      <trkpt lat="41.8072940" lon="-8.8618240">
        <ele>4.2</ele>
        <time>2021-05-18T09:17:36Z</time>
      </trkpt>
      <trkpt lat="41.8072830" lon="-8.8618100">
        <ele>4.1</ele>
        <time>2021-05-18T09:17:37Z</time>
      </trkpt>
      <trkpt lat="41.8072690" lon="-8.8617980">
        <ele>4.1</ele>
        <time>2021-05-18T09:17:38Z</time>
      </trkpt>
      <trkpt lat="41.8072600" lon="-8.8617830">
        <ele>4.1</ele>
        <time>2021-05-18T09:17:39Z</time>
      </trkpt>
      <trkpt lat="41.8072490" lon="-8.8617700">
        <ele>4.1</ele>
        <time>2021-05-18T09:17:40Z</time>
      </trkpt>
      <trkpt lat="41.8072390" lon="-8.8617550">
        <ele>4.1</ele>
        <time>2021-05-18T09:17:41Z</time>
      </trkpt>
      <trkpt lat="41.8072330" lon="-8.8617350">
        <ele>4.0</ele>
        <time>2021-05-18T09:17:42Z</time>
      </trkpt>
      <trkpt lat="41.8072290" lon="-8.8617180">
        <ele>4.0</ele>
        <time>2021-05-18T09:17:43Z</time>
      </trkpt>
      <trkpt lat="41.8072230" lon="-8.8616990">
        <ele>4.0</ele>
        <time>2021-05-18T09:17:44Z</time>
      </trkpt>
      <trkpt lat="41.8072150" lon="-8.8616810">
        <ele>4.0</ele>
        <time>2021-05-18T09:17:45Z</time>
      </trkpt>
      <trkpt lat="41.8072110" lon="-8.8616660">
        <ele>4.0</ele>
        <time>2021-05-18T09:17:46Z</time>
      </trkpt>
      <trkpt lat="41.8072060" lon="-8.8616480">
        <ele>3.9</ele>
        <time>2021-05-18T09:17:47Z</time>
      </trkpt>
      <trkpt lat="41.8072060" lon="-8.8616290">
        <ele>3.9</ele>
        <time>2021-05-18T09:17:48Z</time>
      </trkpt>
      <trkpt lat="41.8072000" lon="-8.8616100">
        <ele>3.9</ele>
        <time>2021-05-18T09:17:49Z</time>
      </trkpt>
      <trkpt lat="41.8071970" lon="-8.8615930">
        <ele>3.9</ele>
        <time>2021-05-18T09:17:50Z</time>
      </trkpt>
      <trkpt lat="41.8071950" lon="-8.8615770">
        <ele>3.8</ele>
        <time>2021-05-18T09:17:51Z</time>
      </trkpt>
      <trkpt lat="41.8071900" lon="-8.8615630">
        <ele>3.8</ele>
        <time>2021-05-18T09:17:52Z</time>
      </trkpt>
      <trkpt lat="41.8071850" lon="-8.8615480">
        <ele>3.8</ele>
        <time>2021-05-18T09:17:53Z</time>
      </trkpt>
      <trkpt lat="41.8071780" lon="-8.8615200">
        <ele>3.8</ele>
        <time>2021-05-18T09:17:54Z</time>
      </trkpt>
      <trkpt lat="41.8071760" lon="-8.8615090">
        <ele>3.8</ele>
        <time>2021-05-18T09:17:55Z</time>
      </trkpt>
      <trkpt lat="41.8071730" lon="-8.8614970">
        <ele>3.8</ele>
        <time>2021-05-18T09:17:56Z</time>
      </trkpt>
      <trkpt lat="41.8071650" lon="-8.8614820">
        <ele>3.7</ele>
        <time>2021-05-18T09:17:57Z</time>
      </trkpt>
      <trkpt lat="41.8071570" lon="-8.8614660">
        <ele>3.7</ele>
        <time>2021-05-18T09:17:58Z</time>
      </trkpt>
      <trkpt lat="41.8071450" lon="-8.8614400">
        <ele>3.7</ele>
        <time>2021-05-18T09:17:59Z</time>
      </trkpt>
      <trkpt lat="41.8071430" lon="-8.8614290">
        <ele>3.7</ele>
        <time>2021-05-18T09:18:00Z</time>
      </trkpt>
      <trkpt lat="41.8071410" lon="-8.8614170">
        <ele>3.7</ele>
        <time>2021-05-18T09:18:01Z</time>
      </trkpt>
      <trkpt lat="41.8071360" lon="-8.8613970">
        <ele>3.7</ele>
        <time>2021-05-18T09:18:02Z</time>
      </trkpt>
      <trkpt lat="41.8071330" lon="-8.8613810">
        <ele>3.7</ele>
        <time>2021-05-18T09:18:03Z</time>
      </trkpt>
      <trkpt lat="41.8071240" lon="-8.8613550">
        <ele>3.6</ele>
        <time>2021-05-18T09:18:04Z</time>
      </trkpt>
      <trkpt lat="41.8071220" lon="-8.8613430">
        <ele>3.6</ele>
        <time>2021-05-18T09:18:05Z</time>
      </trkpt>
      <trkpt lat="41.8071200" lon="-8.8613300">
        <ele>3.6</ele>
        <time>2021-05-18T09:18:06Z</time>
      </trkpt>
      <trkpt lat="41.8071080" lon="-8.8613060">
        <ele>3.6</ele>
        <time>2021-05-18T09:18:07Z</time>
      </trkpt>
      <trkpt lat="41.8071030" lon="-8.8612980">
        <ele>3.6</ele>
        <time>2021-05-18T09:18:08Z</time>
      </trkpt>
      <trkpt lat="41.8070980" lon="-8.8612890">
        <ele>3.6</ele>
        <time>2021-05-18T09:18:09Z</time>
      </trkpt>
      <trkpt lat="41.8070960" lon="-8.8612770">
        <ele>3.6</ele>
        <time>2021-05-18T09:18:10Z</time>
      </trkpt>
      <trkpt lat="41.8070880" lon="-8.8612630">
        <ele>3.6</ele>
        <time>2021-05-18T09:18:11Z</time>
      </trkpt>
      <trkpt lat="41.8070920" lon="-8.8612580">
        <ele>3.6</ele>
        <time>2021-05-18T09:18:12Z</time>
      </trkpt>
      <trkpt lat="41.8070920" lon="-8.8612520">
        <ele>3.6</ele>
        <time>2021-05-18T09:18:13Z</time>
      </trkpt>
      <trkpt lat="41.8070840" lon="-8.8612410">
        <ele>3.6</ele>
        <time>2021-05-18T09:18:14Z</time>
      </trkpt>
      <trkpt lat="41.8070830" lon="-8.8612390">
        <ele>3.6</ele>
        <time>2021-05-18T09:18:15Z</time>
      </trkpt>
      <trkpt lat="41.8070850" lon="-8.8612320">
        <ele>3.6</ele>
        <time>2021-05-18T09:18:16Z</time>
      </trkpt>
      <trkpt lat="41.8070850" lon="-8.8612270">
        <ele>3.6</ele>
        <time>2021-05-18T09:18:17Z</time>
      </trkpt>
      <trkpt lat="41.8070830" lon="-8.8612210">
        <ele>3.6</ele>
        <time>2021-05-18T09:18:18Z</time>
      </trkpt>
      <trkpt lat="41.8070880" lon="-8.8612260">
        <ele>3.6</ele>
        <time>2021-05-18T09:18:19Z</time>
      </trkpt>
      <trkpt lat="41.8070890" lon="-8.8612330">
        <ele>3.6</ele>
        <time>2021-05-18T09:18:20Z</time>
      </trkpt>
      <trkpt lat="41.8070910" lon="-8.8612340">
        <ele>3.6</ele>
        <time>2021-05-18T09:18:21Z</time>
      </trkpt>
      <trkpt lat="41.8070910" lon="-8.8612360">
        <ele>3.6</ele>
        <time>2021-05-18T09:18:22Z</time>
      </trkpt>
      <trkpt lat="41.8070940" lon="-8.8612400">
        <ele>3.6</ele>
        <time>2021-05-18T09:18:23Z</time>
      </trkpt>
      <trkpt lat="41.8070940" lon="-8.8612410">
        <ele>3.6</ele>
        <time>2021-05-18T09:18:24Z</time>
      </trkpt>
      <trkpt lat="41.8070960" lon="-8.8612440">
        <ele>3.6</ele>
        <time>2021-05-18T09:18:25Z</time>
      </trkpt>
      <trkpt lat="41.8070960" lon="-8.8612440">
        <ele>3.6</ele>
        <time>2021-05-18T09:18:26Z</time>
      </trkpt>
      <trkpt lat="41.8070960" lon="-8.8612460">
        <ele>3.6</ele>
        <time>2021-05-18T09:18:27Z</time>
      </trkpt>
      <trkpt lat="41.8070960" lon="-8.8612480">
        <ele>3.6</ele>
        <time>2021-05-18T09:18:28Z</time>
      </trkpt>
      <trkpt lat="41.8070950" lon="-8.8612470">
        <ele>3.6</ele>
        <time>2021-05-18T09:18:29Z</time>
      </trkpt>
      <trkpt lat="41.8070960" lon="-8.8612480">
        <ele>3.6</ele>
        <time>2021-05-18T09:18:30Z</time>
      </trkpt>
      <trkpt lat="41.8070960" lon="-8.8612480">
        <ele>3.6</ele>
        <time>2021-05-18T09:18:31Z</time>
      </trkpt>
      <trkpt lat="41.8070950" lon="-8.8612490">
        <ele>3.6</ele>
        <time>2021-05-18T09:18:32Z</time>
      </trkpt>
      <trkpt lat="41.8070960" lon="-8.8612500">
        <ele>3.6</ele>
        <time>2021-05-18T09:18:33Z</time>
      </trkpt>
      <trkpt lat="41.8070960" lon="-8.8612520">
        <ele>3.6</ele>
        <time>2021-05-18T09:18:34Z</time>
      </trkpt>
      <trkpt lat="41.8070980" lon="-8.8612520">
        <ele>3.6</ele>
        <time>2021-05-18T09:18:35Z</time>
      </trkpt>
      <trkpt lat="41.8071000" lon="-8.8612580">
        <ele>3.6</ele>
        <time>2021-05-18T09:18:36Z</time>
      </trkpt>
      <trkpt lat="41.8071010" lon="-8.8612590">
        <ele>3.6</ele>
        <time>2021-05-18T09:18:37Z</time>
      </trkpt>
      <trkpt lat="41.8071010" lon="-8.8612580">
        <ele>3.6</ele>
        <time>2021-05-18T09:18:38Z</time>
      </trkpt>
      <trkpt lat="41.8071000" lon="-8.8612580">
        <ele>3.6</ele>
        <time>2021-05-18T09:18:39Z</time>
      </trkpt>
      <trkpt lat="41.8071010" lon="-8.8612580">
        <ele>3.6</ele>
        <time>2021-05-18T09:18:40Z</time>
      </trkpt>
      <trkpt lat="41.8071020" lon="-8.8612570">
        <ele>3.6</ele>
        <time>2021-05-18T09:18:41Z</time>
      </trkpt>
      <trkpt lat="41.8071020" lon="-8.8612570">
        <ele>3.6</ele>
        <time>2021-05-18T09:18:42Z</time>
      </trkpt>
      <trkpt lat="41.8071030" lon="-8.8612580">
        <ele>3.6</ele>
        <time>2021-05-18T09:18:43Z</time>
      </trkpt>
      <trkpt lat="41.8071030" lon="-8.8612580">
        <ele>3.6</ele>
        <time>2021-05-18T09:18:44Z</time>
      </trkpt>
      <trkpt lat="41.8071040" lon="-8.8612570">
        <ele>3.6</ele>
        <time>2021-05-18T09:18:45Z</time>
      </trkpt>
      <trkpt lat="41.8071050" lon="-8.8612560">
        <ele>3.6</ele>
        <time>2021-05-18T09:18:46Z</time>
      </trkpt>
      <trkpt lat="41.8071040" lon="-8.8612560">
        <ele>3.6</ele>
        <time>2021-05-18T09:18:47Z</time>
      </trkpt>
      <trkpt lat="41.8071040" lon="-8.8612560">
        <ele>3.6</ele>
        <time>2021-05-18T09:18:48Z</time>
      </trkpt>
      <trkpt lat="41.8071040" lon="-8.8612560">
        <ele>3.6</ele>
        <time>2021-05-18T09:18:49Z</time>
      </trkpt>
      <trkpt lat="41.8071070" lon="-8.8612480">
        <ele>3.6</ele>
        <time>2021-05-18T09:18:50Z</time>
      </trkpt>
      <trkpt lat="41.8071050" lon="-8.8612470">
        <ele>3.6</ele>
        <time>2021-05-18T09:18:51Z</time>
      </trkpt>
      <trkpt lat="41.8070970" lon="-8.8612320">
        <ele>3.6</ele>
        <time>2021-05-18T09:18:52Z</time>
      </trkpt>
      <trkpt lat="41.8070930" lon="-8.8612150">
        <ele>3.6</ele>
        <time>2021-05-18T09:18:53Z</time>
      </trkpt>
      <trkpt lat="41.8070900" lon="-8.8611950">
        <ele>3.6</ele>
        <time>2021-05-18T09:18:54Z</time>
      </trkpt>
      <trkpt lat="41.8070870" lon="-8.8611760">
        <ele>3.6</ele>
        <time>2021-05-18T09:18:55Z</time>
      </trkpt>
      <trkpt lat="41.8070840" lon="-8.8611620">
        <ele>3.6</ele>
        <time>2021-05-18T09:18:56Z</time>
      </trkpt>
      <trkpt lat="41.8070770" lon="-8.8611380">
        <ele>3.6</ele>
        <time>2021-05-18T09:18:57Z</time>
      </trkpt>
      <trkpt lat="41.8070780" lon="-8.8611250">
        <ele>3.6</ele>
        <time>2021-05-18T09:18:58Z</time>
      </trkpt>
      <trkpt lat="41.8070850" lon="-8.8611130">
        <ele>3.6</ele>
        <time>2021-05-18T09:18:59Z</time>
      </trkpt>
      <trkpt lat="41.8070770" lon="-8.8610960">
        <ele>3.6</ele>
        <time>2021-05-18T09:19:00Z</time>
      </trkpt>
      <trkpt lat="41.8070750" lon="-8.8610760">
        <ele>3.7</ele>
        <time>2021-05-18T09:19:01Z</time>
      </trkpt>
      <trkpt lat="41.8070740" lon="-8.8610590">
        <ele>3.7</ele>
        <time>2021-05-18T09:19:02Z</time>
      </trkpt>
      <trkpt lat="41.8070740" lon="-8.8610400">
        <ele>3.7</ele>
        <time>2021-05-18T09:19:03Z</time>
      </trkpt>
      <trkpt lat="41.8070720" lon="-8.8610170">
        <ele>3.7</ele>
        <time>2021-05-18T09:19:04Z</time>
      </trkpt>
      <trkpt lat="41.8070680" lon="-8.8610030">
        <ele>3.7</ele>
        <time>2021-05-18T09:19:05Z</time>
      </trkpt>
      <trkpt lat="41.8070620" lon="-8.8609870">
        <ele>3.7</ele>
        <time>2021-05-18T09:19:06Z</time>
      </trkpt>
      <trkpt lat="41.8070630" lon="-8.8609710">
        <ele>3.7</ele>
        <time>2021-05-18T09:19:07Z</time>
      </trkpt>
      <trkpt lat="41.8070660" lon="-8.8609550">
        <ele>3.8</ele>
        <time>2021-05-18T09:19:08Z</time>
      </trkpt>
      <trkpt lat="41.8070650" lon="-8.8609420">
        <ele>3.8</ele>
        <time>2021-05-18T09:19:09Z</time>
      </trkpt>
      <trkpt lat="41.8070610" lon="-8.8609280">
        <ele>3.8</ele>
        <time>2021-05-18T09:19:10Z</time>
      </trkpt>
      <trkpt lat="41.8070570" lon="-8.8609120">
        <ele>3.8</ele>
        <time>2021-05-18T09:19:11Z</time>
      </trkpt>
      <trkpt lat="41.8070580" lon="-8.8608930">
        <ele>3.8</ele>
        <time>2021-05-18T09:19:12Z</time>
      </trkpt>
      <trkpt lat="41.8070610" lon="-8.8608810">
        <ele>3.9</ele>
        <time>2021-05-18T09:19:13Z</time>
      </trkpt>
      <trkpt lat="41.8070680" lon="-8.8608660">
        <ele>3.9</ele>
        <time>2021-05-18T09:19:14Z</time>
      </trkpt>
      <trkpt lat="41.8070780" lon="-8.8608580">
        <ele>3.9</ele>
        <time>2021-05-18T09:19:15Z</time>
      </trkpt>
      <trkpt lat="41.8070910" lon="-8.8608570">
        <ele>3.9</ele>
        <time>2021-05-18T09:19:16Z</time>
      </trkpt>
      <trkpt lat="41.8070990" lon="-8.8608540">
        <ele>3.9</ele>
        <time>2021-05-18T09:19:17Z</time>
      </trkpt>
      <trkpt lat="41.8071020" lon="-8.8608410">
        <ele>3.9</ele>
        <time>2021-05-18T09:19:18Z</time>
      </trkpt>
      <trkpt lat="41.8071130" lon="-8.8608220">
        <ele>3.9</ele>
        <time>2021-05-18T09:19:19Z</time>
      </trkpt>
      <trkpt lat="41.8071220" lon="-8.8607960">
        <ele>3.9</ele>
        <time>2021-05-18T09:19:20Z</time>
      </trkpt>
      <trkpt lat="41.8071250" lon="-8.8607850">
        <ele>3.9</ele>
        <time>2021-05-18T09:19:21Z</time>
      </trkpt>
      <trkpt lat="41.8071270" lon="-8.8607740">
        <ele>3.9</ele>
        <time>2021-05-18T09:19:22Z</time>
      </trkpt>
      <trkpt lat="41.8071290" lon="-8.8607590">
        <ele>3.9</ele>
        <time>2021-05-18T09:19:23Z</time>
      </trkpt>
      <trkpt lat="41.8071280" lon="-8.8607470">
        <ele>3.9</ele>
        <time>2021-05-18T09:19:24Z</time>
      </trkpt>
      <trkpt lat="41.8071260" lon="-8.8607260">
        <ele>4.0</ele>
        <time>2021-05-18T09:19:25Z</time>
      </trkpt>
      <trkpt lat="41.8071230" lon="-8.8607060">
        <ele>4.0</ele>
        <time>2021-05-18T09:19:26Z</time>
      </trkpt>
      <trkpt lat="41.8071230" lon="-8.8606940">
        <ele>4.0</ele>
        <time>2021-05-18T09:19:27Z</time>
      </trkpt>
      <trkpt lat="41.8071210" lon="-8.8606780">
        <ele>4.0</ele>
        <time>2021-05-18T09:19:28Z</time>
      </trkpt>
      <trkpt lat="41.8071190" lon="-8.8606490">
        <ele>4.0</ele>
        <time>2021-05-18T09:19:29Z</time>
      </trkpt>
      <trkpt lat="41.8071160" lon="-8.8606360">
        <ele>4.0</ele>
        <time>2021-05-18T09:19:30Z</time>
      </trkpt>
      <trkpt lat="41.8071140" lon="-8.8606220">
        <ele>4.0</ele>
        <time>2021-05-18T09:19:31Z</time>
      </trkpt>
      <trkpt lat="41.8071150" lon="-8.8605960">
        <ele>4.0</ele>
        <time>2021-05-18T09:19:32Z</time>
      </trkpt>
      <trkpt lat="41.8071140" lon="-8.8605810">
        <ele>4.0</ele>
        <time>2021-05-18T09:19:33Z</time>
      </trkpt>
      <trkpt lat="41.8071150" lon="-8.8605630">
        <ele>4.0</ele>
        <time>2021-05-18T09:19:34Z</time>
      </trkpt>
      <trkpt lat="41.8071130" lon="-8.8605470">
        <ele>4.0</ele>
        <time>2021-05-18T09:19:35Z</time>
      </trkpt>
      <trkpt lat="41.8071170" lon="-8.8605330">
        <ele>4.0</ele>
        <time>2021-05-18T09:19:36Z</time>
      </trkpt>
      <trkpt lat="41.8071190" lon="-8.8605170">
        <ele>4.0</ele>
        <time>2021-05-18T09:19:37Z</time>
      </trkpt>
      <trkpt lat="41.8071180" lon="-8.8604950">
        <ele>4.0</ele>
        <time>2021-05-18T09:19:38Z</time>
      </trkpt>
      <trkpt lat="41.8071120" lon="-8.8604680">
        <ele>4.0</ele>
        <time>2021-05-18T09:19:39Z</time>
      </trkpt>
      <trkpt lat="41.8071090" lon="-8.8604560">
        <ele>4.0</ele>
        <time>2021-05-18T09:19:40Z</time>
      </trkpt>
      <trkpt lat="41.8071070" lon="-8.8604450">
        <ele>4.0</ele>
        <time>2021-05-18T09:19:41Z</time>
      </trkpt>
      <trkpt lat="41.8071000" lon="-8.8604310">
        <ele>4.0</ele>
        <time>2021-05-18T09:19:42Z</time>
      </trkpt>
      <trkpt lat="41.8071020" lon="-8.8604010">
        <ele>4.0</ele>
        <time>2021-05-18T09:19:43Z</time>
      </trkpt>
      <trkpt lat="41.8070990" lon="-8.8603740">
        <ele>4.0</ele>
        <time>2021-05-18T09:19:44Z</time>
      </trkpt>
      <trkpt lat="41.8070970" lon="-8.8603610">
        <ele>4.0</ele>
        <time>2021-05-18T09:19:45Z</time>
      </trkpt>
      <trkpt lat="41.8070960" lon="-8.8603490">
        <ele>4.0</ele>
        <time>2021-05-18T09:19:46Z</time>
      </trkpt>
      <trkpt lat="41.8070960" lon="-8.8603240">
        <ele>4.0</ele>
        <time>2021-05-18T09:19:47Z</time>
      </trkpt>
      <trkpt lat="41.8070910" lon="-8.8603080">
        <ele>4.0</ele>
        <time>2021-05-18T09:19:48Z</time>
      </trkpt>
      <trkpt lat="41.8070920" lon="-8.8602820">
        <ele>4.0</ele>
        <time>2021-05-18T09:19:49Z</time>
      </trkpt>
      <trkpt lat="41.8070830" lon="-8.8602610">
        <ele>4.0</ele>
        <time>2021-05-18T09:19:50Z</time>
      </trkpt>
      <trkpt lat="41.8070820" lon="-8.8602410">
        <ele>4.0</ele>
        <time>2021-05-18T09:19:51Z</time>
      </trkpt>
      <trkpt lat="41.8070770" lon="-8.8602240">
        <ele>4.0</ele>
        <time>2021-05-18T09:19:52Z</time>
      </trkpt>
      <trkpt lat="41.8070780" lon="-8.8601960">
        <ele>4.0</ele>
        <time>2021-05-18T09:19:53Z</time>
      </trkpt>
      <trkpt lat="41.8070770" lon="-8.8601850">
        <ele>4.0</ele>
        <time>2021-05-18T09:19:54Z</time>
      </trkpt>
      <trkpt lat="41.8070770" lon="-8.8601730">
        <ele>4.0</ele>
        <time>2021-05-18T09:19:55Z</time>
      </trkpt>
      <trkpt lat="41.8070700" lon="-8.8601620">
        <ele>4.0</ele>
        <time>2021-05-18T09:19:56Z</time>
      </trkpt>
      <trkpt lat="41.8070680" lon="-8.8601380">
        <ele>4.0</ele>
        <time>2021-05-18T09:19:57Z</time>
      </trkpt>
      <trkpt lat="41.8070660" lon="-8.8601220">
        <ele>4.0</ele>
        <time>2021-05-18T09:19:58Z</time>
      </trkpt>
      <trkpt lat="41.8070640" lon="-8.8601090">
        <ele>4.0</ele>
        <time>2021-05-18T09:19:59Z</time>
      </trkpt>
      <trkpt lat="41.8070620" lon="-8.8600960">
        <ele>4.0</ele>
        <time>2021-05-18T09:20:00Z</time>
      </trkpt>
      <trkpt lat="41.8070590" lon="-8.8600710">
        <ele>4.0</ele>
        <time>2021-05-18T09:20:01Z</time>
      </trkpt>
      <trkpt lat="41.8070560" lon="-8.8600550">
        <ele>4.0</ele>
        <time>2021-05-18T09:20:02Z</time>
      </trkpt>
      <trkpt lat="41.8070520" lon="-8.8600400">
        <ele>4.0</ele>
        <time>2021-05-18T09:20:03Z</time>
      </trkpt>
      <trkpt lat="41.8070530" lon="-8.8600150">
        <ele>4.0</ele>
        <time>2021-05-18T09:20:04Z</time>
      </trkpt>
      <trkpt lat="41.8070490" lon="-8.8599880">
        <ele>4.0</ele>
        <time>2021-05-18T09:20:05Z</time>
      </trkpt>
      <trkpt lat="41.8070490" lon="-8.8599770">
        <ele>4.0</ele>
        <time>2021-05-18T09:20:06Z</time>
      </trkpt>
      <trkpt lat="41.8070490" lon="-8.8599650">
        <ele>4.0</ele>
        <time>2021-05-18T09:20:07Z</time>
      </trkpt>
      <trkpt lat="41.8070470" lon="-8.8599420">
        <ele>4.0</ele>
        <time>2021-05-18T09:20:08Z</time>
      </trkpt>
      <trkpt lat="41.8070450" lon="-8.8599260">
        <ele>4.0</ele>
        <time>2021-05-18T09:20:09Z</time>
      </trkpt>
      <trkpt lat="41.8070480" lon="-8.8598990">
        <ele>4.0</ele>
        <time>2021-05-18T09:20:10Z</time>
      </trkpt>
      <trkpt lat="41.8070490" lon="-8.8598880">
        <ele>4.0</ele>
        <time>2021-05-18T09:20:11Z</time>
      </trkpt>
      <trkpt lat="41.8070500" lon="-8.8598770">
        <ele>3.9</ele>
        <time>2021-05-18T09:20:12Z</time>
      </trkpt>
      <trkpt lat="41.8070440" lon="-8.8598560">
        <ele>3.9</ele>
        <time>2021-05-18T09:20:13Z</time>
      </trkpt>
      <trkpt lat="41.8070430" lon="-8.8598350">
        <ele>3.9</ele>
        <time>2021-05-18T09:20:14Z</time>
      </trkpt>
      <trkpt lat="41.8070400" lon="-8.8598200">
        <ele>3.9</ele>
        <time>2021-05-18T09:20:15Z</time>
      </trkpt>
      <trkpt lat="41.8070390" lon="-8.8598040">
        <ele>3.9</ele>
        <time>2021-05-18T09:20:16Z</time>
      </trkpt>
      <trkpt lat="41.8070350" lon="-8.8597930">
        <ele>3.9</ele>
        <time>2021-05-18T09:20:17Z</time>
      </trkpt>
      <trkpt lat="41.8070320" lon="-8.8597740">
        <ele>3.9</ele>
        <time>2021-05-18T09:20:18Z</time>
      </trkpt>
      <trkpt lat="41.8070280" lon="-8.8597580">
        <ele>3.9</ele>
        <time>2021-05-18T09:20:19Z</time>
      </trkpt>
      <trkpt lat="41.8070240" lon="-8.8597470">
        <ele>3.9</ele>
        <time>2021-05-18T09:20:20Z</time>
      </trkpt>
      <trkpt lat="41.8070160" lon="-8.8597210">
        <ele>3.8</ele>
        <time>2021-05-18T09:20:21Z</time>
      </trkpt>
      <trkpt lat="41.8070130" lon="-8.8597100">
        <ele>3.8</ele>
        <time>2021-05-18T09:20:22Z</time>
      </trkpt>
      <trkpt lat="41.8070090" lon="-8.8596980">
        <ele>3.8</ele>
        <time>2021-05-18T09:20:23Z</time>
      </trkpt>
      <trkpt lat="41.8070050" lon="-8.8596810">
        <ele>3.8</ele>
        <time>2021-05-18T09:20:24Z</time>
      </trkpt>
      <trkpt lat="41.8069960" lon="-8.8596630">
        <ele>3.8</ele>
        <time>2021-05-18T09:20:25Z</time>
      </trkpt>
      <trkpt lat="41.8069960" lon="-8.8596490">
        <ele>3.8</ele>
        <time>2021-05-18T09:20:26Z</time>
      </trkpt>
      <trkpt lat="41.8069910" lon="-8.8596320">
        <ele>3.7</ele>
        <time>2021-05-18T09:20:27Z</time>
      </trkpt>
      <trkpt lat="41.8069880" lon="-8.8596200">
        <ele>3.7</ele>
        <time>2021-05-18T09:20:28Z</time>
      </trkpt>
      <trkpt lat="41.8069780" lon="-8.8595970">
        <ele>3.7</ele>
        <time>2021-05-18T09:20:29Z</time>
      </trkpt>
      <trkpt lat="41.8069690" lon="-8.8595820">
        <ele>3.7</ele>
        <time>2021-05-18T09:20:30Z</time>
      </trkpt>
      <trkpt lat="41.8069610" lon="-8.8595630">
        <ele>3.7</ele>
        <time>2021-05-18T09:20:31Z</time>
      </trkpt>
      <trkpt lat="41.8069580" lon="-8.8595560">
        <ele>3.6</ele>
        <time>2021-05-18T09:20:32Z</time>
      </trkpt>
      <trkpt lat="41.8069540" lon="-8.8595420">
        <ele>3.6</ele>
        <time>2021-05-18T09:20:33Z</time>
      </trkpt>
      <trkpt lat="41.8069450" lon="-8.8595220">
        <ele>3.6</ele>
        <time>2021-05-18T09:20:34Z</time>
      </trkpt>
      <trkpt lat="41.8069360" lon="-8.8595050">
        <ele>3.6</ele>
        <time>2021-05-18T09:20:35Z</time>
      </trkpt>
      <trkpt lat="41.8069250" lon="-8.8594900">
        <ele>3.6</ele>
        <time>2021-05-18T09:20:36Z</time>
      </trkpt>
      <trkpt lat="41.8069160" lon="-8.8594710">
        <ele>3.5</ele>
        <time>2021-05-18T09:20:37Z</time>
      </trkpt>
      <trkpt lat="41.8069070" lon="-8.8594570">
        <ele>3.5</ele>
        <time>2021-05-18T09:20:38Z</time>
      </trkpt>
      <trkpt lat="41.8069040" lon="-8.8594390">
        <ele>3.5</ele>
        <time>2021-05-18T09:20:39Z</time>
      </trkpt>
      <trkpt lat="41.8068960" lon="-8.8594190">
        <ele>3.5</ele>
        <time>2021-05-18T09:20:40Z</time>
      </trkpt>
      <trkpt lat="41.8068830" lon="-8.8594140">
        <ele>3.5</ele>
        <time>2021-05-18T09:20:41Z</time>
      </trkpt>
      <trkpt lat="41.8068750" lon="-8.8593880">
        <ele>3.5</ele>
        <time>2021-05-18T09:20:42Z</time>
      </trkpt>
      <trkpt lat="41.8068710" lon="-8.8593780">
        <ele>3.5</ele>
        <time>2021-05-18T09:20:43Z</time>
      </trkpt>
      <trkpt lat="41.8068660" lon="-8.8593680">
        <ele>3.4</ele>
        <time>2021-05-18T09:20:44Z</time>
      </trkpt>
      <trkpt lat="41.8068520" lon="-8.8593430">
        <ele>3.4</ele>
        <time>2021-05-18T09:20:45Z</time>
      </trkpt>
      <trkpt lat="41.8068460" lon="-8.8593340">
        <ele>3.4</ele>
        <time>2021-05-18T09:20:46Z</time>
      </trkpt>
      <trkpt lat="41.8068400" lon="-8.8593250">
        <ele>3.4</ele>
        <time>2021-05-18T09:20:47Z</time>
      </trkpt>
      <trkpt lat="41.8068250" lon="-8.8593050">
        <ele>3.4</ele>
        <time>2021-05-18T09:20:48Z</time>
      </trkpt>
      <trkpt lat="41.8068200" lon="-8.8592950">
        <ele>3.4</ele>
        <time>2021-05-18T09:20:49Z</time>
      </trkpt>
      <trkpt lat="41.8068160" lon="-8.8592850">
        <ele>3.4</ele>
        <time>2021-05-18T09:20:50Z</time>
      </trkpt>
      <trkpt lat="41.8068060" lon="-8.8592750">
        <ele>3.4</ele>
        <time>2021-05-18T09:20:51Z</time>
      </trkpt>
      <trkpt lat="41.8068030" lon="-8.8592670">
        <ele>3.4</ele>
        <time>2021-05-18T09:20:52Z</time>
      </trkpt>
      <trkpt lat="41.8067950" lon="-8.8592530">
        <ele>3.4</ele>
        <time>2021-05-18T09:20:53Z</time>
      </trkpt>
      <trkpt lat="41.8067800" lon="-8.8592330">
        <ele>3.4</ele>
        <time>2021-05-18T09:20:54Z</time>
      </trkpt>
      <trkpt lat="41.8067720" lon="-8.8592210">
        <ele>3.4</ele>
        <time>2021-05-18T09:20:55Z</time>
      </trkpt>
      <trkpt lat="41.8067660" lon="-8.8592140">
        <ele>3.4</ele>
        <time>2021-05-18T09:20:56Z</time>
      </trkpt>
      <trkpt lat="41.8067620" lon="-8.8591990">
        <ele>3.4</ele>
        <time>2021-05-18T09:20:57Z</time>
      </trkpt>
      <trkpt lat="41.8067500" lon="-8.8591850">
        <ele>3.4</ele>
        <time>2021-05-18T09:20:58Z</time>
      </trkpt>
      <trkpt lat="41.8067370" lon="-8.8591730">
        <ele>3.4</ele>
        <time>2021-05-18T09:20:59Z</time>
      </trkpt>
      <trkpt lat="41.8067230" lon="-8.8591620">
        <ele>3.4</ele>
        <time>2021-05-18T09:21:00Z</time>
      </trkpt>
      <trkpt lat="41.8067120" lon="-8.8591480">
        <ele>3.4</ele>
        <time>2021-05-18T09:21:01Z</time>
      </trkpt>
      <trkpt lat="41.8066950" lon="-8.8591400">
        <ele>3.4</ele>
        <time>2021-05-18T09:21:02Z</time>
      </trkpt>
      <trkpt lat="41.8066870" lon="-8.8591280">
        <ele>3.4</ele>
        <time>2021-05-18T09:21:03Z</time>
      </trkpt>
      <trkpt lat="41.8066770" lon="-8.8591130">
        <ele>3.4</ele>
        <time>2021-05-18T09:21:04Z</time>
      </trkpt>
      <trkpt lat="41.8066660" lon="-8.8590950">
        <ele>3.4</ele>
        <time>2021-05-18T09:21:05Z</time>
      </trkpt>
      <trkpt lat="41.8066530" lon="-8.8590910">
        <ele>3.4</ele>
        <time>2021-05-18T09:21:06Z</time>
      </trkpt>
      <trkpt lat="41.8066410" lon="-8.8590830">
        <ele>3.4</ele>
        <time>2021-05-18T09:21:07Z</time>
      </trkpt>
      <trkpt lat="41.8066280" lon="-8.8590700">
        <ele>3.4</ele>
        <time>2021-05-18T09:21:08Z</time>
      </trkpt>
      <trkpt lat="41.8066190" lon="-8.8590530">
        <ele>3.4</ele>
        <time>2021-05-18T09:21:09Z</time>
      </trkpt>
      <trkpt lat="41.8066080" lon="-8.8590440">
        <ele>3.4</ele>
        <time>2021-05-18T09:21:10Z</time>
      </trkpt>
      <trkpt lat="41.8065910" lon="-8.8590290">
        <ele>3.4</ele>
        <time>2021-05-18T09:21:11Z</time>
      </trkpt>
      <trkpt lat="41.8065850" lon="-8.8590210">
        <ele>3.4</ele>
        <time>2021-05-18T09:21:12Z</time>
      </trkpt>
      <trkpt lat="41.8065790" lon="-8.8590130">
        <ele>3.4</ele>
        <time>2021-05-18T09:21:13Z</time>
      </trkpt>
      <trkpt lat="41.8065640" lon="-8.8589920">
        <ele>3.4</ele>
        <time>2021-05-18T09:21:14Z</time>
      </trkpt>
      <trkpt lat="41.8065560" lon="-8.8589840">
        <ele>3.4</ele>
        <time>2021-05-18T09:21:15Z</time>
      </trkpt>
      <trkpt lat="41.8065480" lon="-8.8589770">
        <ele>3.4</ele>
        <time>2021-05-18T09:21:16Z</time>
      </trkpt>
      <trkpt lat="41.8065370" lon="-8.8589630">
        <ele>3.4</ele>
        <time>2021-05-18T09:21:17Z</time>
      </trkpt>
      <trkpt lat="41.8065270" lon="-8.8589490">
        <ele>3.4</ele>
        <time>2021-05-18T09:21:18Z</time>
      </trkpt>
      <trkpt lat="41.8065170" lon="-8.8589380">
        <ele>3.4</ele>
        <time>2021-05-18T09:21:19Z</time>
      </trkpt>
      <trkpt lat="41.8065040" lon="-8.8589220">
        <ele>3.4</ele>
        <time>2021-05-18T09:21:20Z</time>
      </trkpt>
      <trkpt lat="41.8064940" lon="-8.8589100">
        <ele>3.4</ele>
        <time>2021-05-18T09:21:21Z</time>
      </trkpt>
      <trkpt lat="41.8064890" lon="-8.8589000">
        <ele>3.4</ele>
        <time>2021-05-18T09:21:22Z</time>
      </trkpt>
      <trkpt lat="41.8064810" lon="-8.8588930">
        <ele>3.4</ele>
        <time>2021-05-18T09:21:23Z</time>
      </trkpt>
      <trkpt lat="41.8064610" lon="-8.8588760">
        <ele>3.4</ele>
        <time>2021-05-18T09:21:24Z</time>
      </trkpt>
      <trkpt lat="41.8064560" lon="-8.8588670">
        <ele>3.4</ele>
        <time>2021-05-18T09:21:25Z</time>
      </trkpt>
      <trkpt lat="41.8064510" lon="-8.8588590">
        <ele>3.4</ele>
        <time>2021-05-18T09:21:26Z</time>
      </trkpt>
      <trkpt lat="41.8064380" lon="-8.8588390">
        <ele>3.4</ele>
        <time>2021-05-18T09:21:27Z</time>
      </trkpt>
      <trkpt lat="41.8064300" lon="-8.8588320">
        <ele>3.4</ele>
        <time>2021-05-18T09:21:28Z</time>
      </trkpt>
      <trkpt lat="41.8064230" lon="-8.8588250">
        <ele>3.4</ele>
        <time>2021-05-18T09:21:29Z</time>
      </trkpt>
      <trkpt lat="41.8064090" lon="-8.8588090">
        <ele>3.5</ele>
        <time>2021-05-18T09:21:30Z</time>
      </trkpt>
      <trkpt lat="41.8064030" lon="-8.8587970">
        <ele>3.5</ele>
        <time>2021-05-18T09:21:31Z</time>
      </trkpt>
      <trkpt lat="41.8063880" lon="-8.8587860">
        <ele>3.5</ele>
        <time>2021-05-18T09:21:32Z</time>
      </trkpt>
      <trkpt lat="41.8063760" lon="-8.8587790">
        <ele>3.5</ele>
        <time>2021-05-18T09:21:33Z</time>
      </trkpt>
      <trkpt lat="41.8063590" lon="-8.8587610">
        <ele>3.5</ele>
        <time>2021-05-18T09:21:34Z</time>
      </trkpt>
      <trkpt lat="41.8063520" lon="-8.8587540">
        <ele>3.5</ele>
        <time>2021-05-18T09:21:35Z</time>
      </trkpt>
      <trkpt lat="41.8063460" lon="-8.8587460">
        <ele>3.5</ele>
        <time>2021-05-18T09:21:36Z</time>
      </trkpt>
      <trkpt lat="41.8063270" lon="-8.8587260">
        <ele>3.5</ele>
        <time>2021-05-18T09:21:37Z</time>
      </trkpt>
      <trkpt lat="41.8063200" lon="-8.8587190">
        <ele>3.5</ele>
        <time>2021-05-18T09:21:38Z</time>
      </trkpt>
      <trkpt lat="41.8063120" lon="-8.8587130">
        <ele>3.5</ele>
        <time>2021-05-18T09:21:39Z</time>
      </trkpt>
      <trkpt lat="41.8062990" lon="-8.8586990">
        <ele>3.6</ele>
        <time>2021-05-18T09:21:40Z</time>
      </trkpt>
      <trkpt lat="41.8062910" lon="-8.8586870">
        <ele>3.6</ele>
        <time>2021-05-18T09:21:41Z</time>
      </trkpt>
      <trkpt lat="41.8062750" lon="-8.8586660">
        <ele>3.6</ele>
        <time>2021-05-18T09:21:42Z</time>
      </trkpt>
      <trkpt lat="41.8062670" lon="-8.8586590">
        <ele>3.6</ele>
        <time>2021-05-18T09:21:43Z</time>
      </trkpt>
      <trkpt lat="41.8062600" lon="-8.8586520">
        <ele>3.6</ele>
        <time>2021-05-18T09:21:44Z</time>
      </trkpt>
      <trkpt lat="41.8062490" lon="-8.8586440">
        <ele>3.6</ele>
        <time>2021-05-18T09:21:45Z</time>
      </trkpt>
      <trkpt lat="41.8062360" lon="-8.8586370">
        <ele>3.6</ele>
        <time>2021-05-18T09:21:46Z</time>
      </trkpt>
      <trkpt lat="41.8062290" lon="-8.8586280">
        <ele>3.6</ele>
        <time>2021-05-18T09:21:47Z</time>
      </trkpt>
      <trkpt lat="41.8062140" lon="-8.8586120">
        <ele>3.6</ele>
        <time>2021-05-18T09:21:48Z</time>
      </trkpt>
      <trkpt lat="41.8062090" lon="-8.8585960">
        <ele>3.6</ele>
        <time>2021-05-18T09:21:49Z</time>
      </trkpt>
      <trkpt lat="41.8061970" lon="-8.8585830">
        <ele>3.7</ele>
        <time>2021-05-18T09:21:50Z</time>
      </trkpt>
      <trkpt lat="41.8061850" lon="-8.8585730">
        <ele>3.7</ele>
        <time>2021-05-18T09:21:51Z</time>
      </trkpt>
      <trkpt lat="41.8061780" lon="-8.8585580">
        <ele>3.7</ele>
        <time>2021-05-18T09:21:52Z</time>
      </trkpt>
      <trkpt lat="41.8061710" lon="-8.8585510">
        <ele>3.7</ele>
        <time>2021-05-18T09:21:53Z</time>
      </trkpt>
      <trkpt lat="41.8061600" lon="-8.8585390">
        <ele>3.7</ele>
        <time>2021-05-18T09:21:54Z</time>
      </trkpt>
      <trkpt lat="41.8061510" lon="-8.8585240">
        <ele>3.7</ele>
        <time>2021-05-18T09:21:55Z</time>
      </trkpt>
      <trkpt lat="41.8061400" lon="-8.8585100">
        <ele>3.7</ele>
        <time>2021-05-18T09:21:56Z</time>
      </trkpt>
      <trkpt lat="41.8061160" lon="-8.8584890">
        <ele>3.7</ele>
        <time>2021-05-18T09:21:57Z</time>
      </trkpt>
      <trkpt lat="41.8061070" lon="-8.8584840">
        <ele>3.7</ele>
        <time>2021-05-18T09:21:58Z</time>
      </trkpt>
      <trkpt lat="41.8060940" lon="-8.8584780">
        <ele>3.7</ele>
        <time>2021-05-18T09:21:59Z</time>
      </trkpt>
      <trkpt lat="41.8060870" lon="-8.8584580">
        <ele>3.8</ele>
        <time>2021-05-18T09:22:00Z</time>
      </trkpt>
      <trkpt lat="41.8060760" lon="-8.8584430">
        <ele>3.8</ele>
        <time>2021-05-18T09:22:01Z</time>
      </trkpt>
      <trkpt lat="41.8060650" lon="-8.8584310">
        <ele>3.8</ele>
        <time>2021-05-18T09:22:02Z</time>
      </trkpt>
      <trkpt lat="41.8060490" lon="-8.8584080">
        <ele>3.8</ele>
        <time>2021-05-18T09:22:03Z</time>
      </trkpt>
      <trkpt lat="41.8060420" lon="-8.8584010">
        <ele>3.8</ele>
        <time>2021-05-18T09:22:04Z</time>
      </trkpt>
      <trkpt lat="41.8060360" lon="-8.8583930">
        <ele>3.8</ele>
        <time>2021-05-18T09:22:05Z</time>
      </trkpt>
      <trkpt lat="41.8060330" lon="-8.8583830">
        <ele>3.8</ele>
        <time>2021-05-18T09:22:06Z</time>
      </trkpt>
      <trkpt lat="41.8060250" lon="-8.8583740">
        <ele>3.8</ele>
        <time>2021-05-18T09:22:07Z</time>
      </trkpt>
      <trkpt lat="41.8060150" lon="-8.8583620">
        <ele>3.8</ele>
        <time>2021-05-18T09:22:08Z</time>
      </trkpt>
      <trkpt lat="41.8059990" lon="-8.8583410">
        <ele>3.9</ele>
        <time>2021-05-18T09:22:09Z</time>
      </trkpt>
      <trkpt lat="41.8059930" lon="-8.8583320">
        <ele>3.9</ele>
        <time>2021-05-18T09:22:10Z</time>
      </trkpt>
      <trkpt lat="41.8059860" lon="-8.8583230">
        <ele>3.9</ele>
        <time>2021-05-18T09:22:11Z</time>
      </trkpt>
      <trkpt lat="41.8059770" lon="-8.8583030">
        <ele>3.9</ele>
        <time>2021-05-18T09:22:12Z</time>
      </trkpt>
      <trkpt lat="41.8059740" lon="-8.8582880">
        <ele>3.9</ele>
        <time>2021-05-18T09:22:13Z</time>
      </trkpt>
      <trkpt lat="41.8059720" lon="-8.8582740">
        <ele>3.9</ele>
        <time>2021-05-18T09:22:14Z</time>
      </trkpt>
      <trkpt lat="41.8059690" lon="-8.8582500">
        <ele>3.9</ele>
        <time>2021-05-18T09:22:15Z</time>
      </trkpt>
      <trkpt lat="41.8059680" lon="-8.8582290">
        <ele>3.9</ele>
        <time>2021-05-18T09:22:16Z</time>
      </trkpt>
      <trkpt lat="41.8059750" lon="-8.8582100">
        <ele>3.9</ele>
        <time>2021-05-18T09:22:17Z</time>
      </trkpt>
      <trkpt lat="41.8059800" lon="-8.8581940">
        <ele>3.9</ele>
        <time>2021-05-18T09:22:18Z</time>
      </trkpt>
      <trkpt lat="41.8059980" lon="-8.8581770">
        <ele>3.9</ele>
        <time>2021-05-18T09:22:19Z</time>
      </trkpt>
      <trkpt lat="41.8060060" lon="-8.8581700">
        <ele>3.9</ele>
        <time>2021-05-18T09:22:20Z</time>
      </trkpt>
      <trkpt lat="41.8060140" lon="-8.8581620">
        <ele>3.9</ele>
        <time>2021-05-18T09:22:21Z</time>
      </trkpt>
      <trkpt lat="41.8060270" lon="-8.8581510">
        <ele>3.9</ele>
        <time>2021-05-18T09:22:22Z</time>
      </trkpt>
      <trkpt lat="41.8060400" lon="-8.8581440">
        <ele>3.9</ele>
        <time>2021-05-18T09:22:23Z</time>
      </trkpt>
      <trkpt lat="41.8060560" lon="-8.8581380">
        <ele>3.9</ele>
        <time>2021-05-18T09:22:24Z</time>
      </trkpt>
      <trkpt lat="41.8060640" lon="-8.8581260">
        <ele>3.9</ele>
        <time>2021-05-18T09:22:25Z</time>
      </trkpt>
      <trkpt lat="41.8060790" lon="-8.8581180">
        <ele>3.9</ele>
        <time>2021-05-18T09:22:26Z</time>
      </trkpt>
      <trkpt lat="41.8060920" lon="-8.8581150">
        <ele>3.8</ele>
        <time>2021-05-18T09:22:27Z</time>
      </trkpt>
      <trkpt lat="41.8061110" lon="-8.8580970">
        <ele>3.8</ele>
        <time>2021-05-18T09:22:28Z</time>
      </trkpt>
      <trkpt lat="41.8061160" lon="-8.8580890">
        <ele>3.8</ele>
        <time>2021-05-18T09:22:29Z</time>
      </trkpt>
      <trkpt lat="41.8061220" lon="-8.8580810">
        <ele>3.8</ele>
        <time>2021-05-18T09:22:30Z</time>
      </trkpt>
      <trkpt lat="41.8061190" lon="-8.8580630">
        <ele>3.8</ele>
        <time>2021-05-18T09:22:31Z</time>
      </trkpt>
      <trkpt lat="41.8061180" lon="-8.8580590">
        <ele>3.8</ele>
        <time>2021-05-18T09:22:32Z</time>
      </trkpt>
      <trkpt lat="41.8061200" lon="-8.8580540">
        <ele>3.8</ele>
        <time>2021-05-18T09:22:33Z</time>
      </trkpt>
      <trkpt lat="41.8061300" lon="-8.8580390">
        <ele>3.8</ele>
        <time>2021-05-18T09:22:34Z</time>
      </trkpt>
      <trkpt lat="41.8061360" lon="-8.8580330">
        <ele>3.8</ele>
        <time>2021-05-18T09:22:35Z</time>
      </trkpt>
      <trkpt lat="41.8061470" lon="-8.8580310">
        <ele>3.8</ele>
        <time>2021-05-18T09:22:36Z</time>
      </trkpt>
      <trkpt lat="41.8061440" lon="-8.8580360">
        <ele>3.8</ele>
        <time>2021-05-18T09:22:37Z</time>
      </trkpt>
      <trkpt lat="41.8061440" lon="-8.8580390">
        <ele>3.8</ele>
        <time>2021-05-18T09:22:38Z</time>
      </trkpt>
      <trkpt lat="41.8061450" lon="-8.8580390">
        <ele>3.8</ele>
        <time>2021-05-18T09:22:39Z</time>
      </trkpt>
      <trkpt lat="41.8061510" lon="-8.8580380">
        <ele>3.8</ele>
        <time>2021-05-18T09:22:40Z</time>
      </trkpt>
      <trkpt lat="41.8061510" lon="-8.8580410">
        <ele>3.8</ele>
        <time>2021-05-18T09:22:41Z</time>
      </trkpt>
      <trkpt lat="41.8061520" lon="-8.8580430">
        <ele>3.8</ele>
        <time>2021-05-18T09:22:42Z</time>
      </trkpt>
      <trkpt lat="41.8061510" lon="-8.8580480">
        <ele>3.8</ele>
        <time>2021-05-18T09:22:43Z</time>
      </trkpt>
      <trkpt lat="41.8061510" lon="-8.8580490">
        <ele>3.8</ele>
        <time>2021-05-18T09:22:44Z</time>
      </trkpt>
      <trkpt lat="41.8061490" lon="-8.8580510">
        <ele>3.8</ele>
        <time>2021-05-18T09:22:45Z</time>
      </trkpt>
      <trkpt lat="41.8061490" lon="-8.8580530">
        <ele>3.8</ele>
        <time>2021-05-18T09:22:46Z</time>
      </trkpt>
      <trkpt lat="41.8061490" lon="-8.8580550">
        <ele>3.8</ele>
        <time>2021-05-18T09:22:47Z</time>
      </trkpt>
      <trkpt lat="41.8061490" lon="-8.8580550">
        <ele>3.8</ele>
        <time>2021-05-18T09:22:48Z</time>
      </trkpt>
      <trkpt lat="41.8061440" lon="-8.8580670">
        <ele>3.8</ele>
        <time>2021-05-18T09:22:49Z</time>
      </trkpt>
      <trkpt lat="41.8061420" lon="-8.8580700">
        <ele>3.8</ele>
        <time>2021-05-18T09:22:50Z</time>
      </trkpt>
      <trkpt lat="41.8061420" lon="-8.8580740">
        <ele>3.8</ele>
        <time>2021-05-18T09:22:51Z</time>
      </trkpt>
      <trkpt lat="41.8061440" lon="-8.8580870">
        <ele>3.8</ele>
        <time>2021-05-18T09:22:52Z</time>
      </trkpt>
      <trkpt lat="41.8061640" lon="-8.8580890">
        <ele>3.8</ele>
        <time>2021-05-18T09:22:53Z</time>
      </trkpt>
      <trkpt lat="41.8061690" lon="-8.8580820">
        <ele>3.8</ele>
        <time>2021-05-18T09:22:54Z</time>
      </trkpt>
      <trkpt lat="41.8061680" lon="-8.8580720">
        <ele>3.8</ele>
        <time>2021-05-18T09:22:55Z</time>
      </trkpt>
      <trkpt lat="41.8061780" lon="-8.8580620">
        <ele>3.8</ele>
        <time>2021-05-18T09:22:56Z</time>
      </trkpt>
      <trkpt lat="41.8061880" lon="-8.8580530">
        <ele>3.8</ele>
        <time>2021-05-18T09:22:57Z</time>
      </trkpt>
      <trkpt lat="41.8061980" lon="-8.8580410">
        <ele>3.8</ele>
        <time>2021-05-18T09:22:58Z</time>
      </trkpt>
      <trkpt lat="41.8062020" lon="-8.8580340">
        <ele>3.8</ele>
        <time>2021-05-18T09:22:59Z</time>
      </trkpt>
      <trkpt lat="41.8062120" lon="-8.8580220">
        <ele>3.8</ele>
        <time>2021-05-18T09:23:00Z</time>
      </trkpt>
      <trkpt lat="41.8062180" lon="-8.8580030">
        <ele>3.8</ele>
        <time>2021-05-18T09:23:01Z</time>
      </trkpt>
      <trkpt lat="41.8062200" lon="-8.8579930">
        <ele>3.8</ele>
        <time>2021-05-18T09:23:02Z</time>
      </trkpt>
      <trkpt lat="41.8062210" lon="-8.8579820">
        <ele>3.8</ele>
        <time>2021-05-18T09:23:03Z</time>
      </trkpt>
      <trkpt lat="41.8062230" lon="-8.8579720">
        <ele>3.8</ele>
        <time>2021-05-18T09:23:04Z</time>
      </trkpt>
      <trkpt lat="41.8062290" lon="-8.8579680">
        <ele>3.8</ele>
        <time>2021-05-18T09:23:05Z</time>
      </trkpt>
      <trkpt lat="41.8062350" lon="-8.8579540">
        <ele>3.8</ele>
        <time>2021-05-18T09:23:06Z</time>
      </trkpt>
      <trkpt lat="41.8062400" lon="-8.8579440">
        <ele>3.8</ele>
        <time>2021-05-18T09:23:07Z</time>
      </trkpt>
      <trkpt lat="41.8062420" lon="-8.8579380">
        <ele>3.8</ele>
        <time>2021-05-18T09:23:08Z</time>
      </trkpt>
      <trkpt lat="41.8062540" lon="-8.8579280">
        <ele>3.8</ele>
        <time>2021-05-18T09:23:09Z</time>
      </trkpt>
      <trkpt lat="41.8062600" lon="-8.8579250">
        <ele>3.8</ele>
        <time>2021-05-18T09:23:10Z</time>
      </trkpt>
      <trkpt lat="41.8062670" lon="-8.8579230">
        <ele>3.8</ele>
        <time>2021-05-18T09:23:11Z</time>
      </trkpt>
      <trkpt lat="41.8062730" lon="-8.8579200">
        <ele>3.8</ele>
        <time>2021-05-18T09:23:12Z</time>
      </trkpt>
      <trkpt lat="41.8062800" lon="-8.8579180">
        <ele>3.8</ele>
        <time>2021-05-18T09:23:13Z</time>
      </trkpt>
      <trkpt lat="41.8062770" lon="-8.8579240">
        <ele>3.8</ele>
        <time>2021-05-18T09:23:14Z</time>
      </trkpt>
      <trkpt lat="41.8062850" lon="-8.8579250">
        <ele>3.8</ele>
        <time>2021-05-18T09:23:15Z</time>
      </trkpt>
      <trkpt lat="41.8062930" lon="-8.8579260">
        <ele>3.8</ele>
        <time>2021-05-18T09:23:16Z</time>
      </trkpt>
      <trkpt lat="41.8063110" lon="-8.8579330">
        <ele>3.8</ele>
        <time>2021-05-18T09:23:17Z</time>
      </trkpt>
      <trkpt lat="41.8063170" lon="-8.8579390">
        <ele>3.8</ele>
        <time>2021-05-18T09:23:18Z</time>
      </trkpt>
      <trkpt lat="41.8063210" lon="-8.8579500">
        <ele>3.8</ele>
        <time>2021-05-18T09:23:19Z</time>
      </trkpt>
      <trkpt lat="41.8063380" lon="-8.8579620">
        <ele>3.8</ele>
        <time>2021-05-18T09:23:20Z</time>
      </trkpt>
      <trkpt lat="41.8063520" lon="-8.8579600">
        <ele>3.8</ele>
        <time>2021-05-18T09:23:21Z</time>
      </trkpt>
      <trkpt lat="41.8063590" lon="-8.8579610">
        <ele>3.8</ele>
        <time>2021-05-18T09:23:22Z</time>
      </trkpt>
      <trkpt lat="41.8063670" lon="-8.8579630">
        <ele>3.8</ele>
        <time>2021-05-18T09:23:23Z</time>
      </trkpt>
      <trkpt lat="41.8063740" lon="-8.8579640">
        <ele>3.8</ele>
        <time>2021-05-18T09:23:24Z</time>
      </trkpt>
      <trkpt lat="41.8063820" lon="-8.8579650">
        <ele>3.8</ele>
        <time>2021-05-18T09:23:25Z</time>
      </trkpt>
      <trkpt lat="41.8063820" lon="-8.8579630">
        <ele>3.8</ele>
        <time>2021-05-18T09:23:26Z</time>
      </trkpt>
      <trkpt lat="41.8063800" lon="-8.8579540">
        <ele>3.8</ele>
        <time>2021-05-18T09:23:27Z</time>
      </trkpt>
      <trkpt lat="41.8063780" lon="-8.8579460">
        <ele>3.8</ele>
        <time>2021-05-18T09:23:28Z</time>
      </trkpt>
      <trkpt lat="41.8063760" lon="-8.8579430">
        <ele>3.8</ele>
        <time>2021-05-18T09:23:29Z</time>
      </trkpt>
      <trkpt lat="41.8063790" lon="-8.8579390">
        <ele>3.8</ele>
        <time>2021-05-18T09:23:30Z</time>
      </trkpt>
      <trkpt lat="41.8063900" lon="-8.8579400">
        <ele>3.8</ele>
        <time>2021-05-18T09:23:31Z</time>
      </trkpt>
      <trkpt lat="41.8063940" lon="-8.8579390">
        <ele>3.8</ele>
        <time>2021-05-18T09:23:32Z</time>
      </trkpt>
      <trkpt lat="41.8063900" lon="-8.8579440">
        <ele>3.8</ele>
        <time>2021-05-18T09:23:33Z</time>
      </trkpt>
      <trkpt lat="41.8063890" lon="-8.8579460">
        <ele>3.8</ele>
        <time>2021-05-18T09:23:34Z</time>
      </trkpt>
      <trkpt lat="41.8063880" lon="-8.8579470">
        <ele>3.8</ele>
        <time>2021-05-18T09:23:35Z</time>
      </trkpt>
      <trkpt lat="41.8063820" lon="-8.8579490">
        <ele>3.8</ele>
        <time>2021-05-18T09:23:36Z</time>
      </trkpt>
      <trkpt lat="41.8063810" lon="-8.8579450">
        <ele>3.8</ele>
        <time>2021-05-18T09:23:37Z</time>
      </trkpt>
      <trkpt lat="41.8063850" lon="-8.8579460">
        <ele>3.8</ele>
        <time>2021-05-18T09:23:38Z</time>
      </trkpt>
      <trkpt lat="41.8063810" lon="-8.8579440">
        <ele>3.8</ele>
        <time>2021-05-18T09:23:39Z</time>
      </trkpt>
      <trkpt lat="41.8063790" lon="-8.8579460">
        <ele>3.8</ele>
        <time>2021-05-18T09:23:40Z</time>
      </trkpt>
      <trkpt lat="41.8063810" lon="-8.8579500">
        <ele>3.8</ele>
        <time>2021-05-18T09:23:41Z</time>
      </trkpt>
      <trkpt lat="41.8063810" lon="-8.8579550">
        <ele>3.8</ele>
        <time>2021-05-18T09:23:42Z</time>
      </trkpt>
      <trkpt lat="41.8063840" lon="-8.8579600">
        <ele>3.8</ele>
        <time>2021-05-18T09:23:43Z</time>
      </trkpt>
      <trkpt lat="41.8063860" lon="-8.8579630">
        <ele>3.8</ele>
        <time>2021-05-18T09:23:44Z</time>
      </trkpt>
      <trkpt lat="41.8063880" lon="-8.8579610">
        <ele>3.8</ele>
        <time>2021-05-18T09:23:45Z</time>
      </trkpt>
      <trkpt lat="41.8063880" lon="-8.8579660">
        <ele>3.8</ele>
        <time>2021-05-18T09:23:46Z</time>
      </trkpt>
      <trkpt lat="41.8063890" lon="-8.8579700">
        <ele>3.8</ele>
        <time>2021-05-18T09:23:47Z</time>
      </trkpt>
      <trkpt lat="41.8063880" lon="-8.8579720">
        <ele>3.8</ele>
        <time>2021-05-18T09:23:48Z</time>
      </trkpt>
      <trkpt lat="41.8063860" lon="-8.8579730">
        <ele>3.8</ele>
        <time>2021-05-18T09:23:49Z</time>
      </trkpt>
      <trkpt lat="41.8063880" lon="-8.8579690">
        <ele>3.8</ele>
        <time>2021-05-18T09:23:50Z</time>
      </trkpt>
      <trkpt lat="41.8063880" lon="-8.8579690">
        <ele>3.8</ele>
        <time>2021-05-18T09:23:51Z</time>
      </trkpt>
      <trkpt lat="41.8063860" lon="-8.8579770">
        <ele>3.8</ele>
        <time>2021-05-18T09:23:52Z</time>
      </trkpt>
      <trkpt lat="41.8063860" lon="-8.8579740">
        <ele>3.8</ele>
        <time>2021-05-18T09:23:53Z</time>
      </trkpt>
      <trkpt lat="41.8063850" lon="-8.8579740">
        <ele>3.8</ele>
        <time>2021-05-18T09:23:54Z</time>
      </trkpt>
      <trkpt lat="41.8063840" lon="-8.8579750">
        <ele>3.8</ele>
        <time>2021-05-18T09:23:55Z</time>
      </trkpt>
      <trkpt lat="41.8063850" lon="-8.8579750">
        <ele>3.8</ele>
        <time>2021-05-18T09:23:56Z</time>
      </trkpt>
      <trkpt lat="41.8063800" lon="-8.8579700">
        <ele>3.8</ele>
        <time>2021-05-18T09:23:57Z</time>
      </trkpt>
      <trkpt lat="41.8063790" lon="-8.8579670">
        <ele>3.8</ele>
        <time>2021-05-18T09:23:58Z</time>
      </trkpt>
      <trkpt lat="41.8063770" lon="-8.8579710">
        <ele>3.8</ele>
        <time>2021-05-18T09:23:59Z</time>
      </trkpt>
      <trkpt lat="41.8063740" lon="-8.8579750">
        <ele>3.8</ele>
        <time>2021-05-18T09:24:00Z</time>
      </trkpt>
      <trkpt lat="41.8063790" lon="-8.8579810">
        <ele>3.8</ele>
        <time>2021-05-18T09:24:01Z</time>
      </trkpt>
      <trkpt lat="41.8063910" lon="-8.8579850">
        <ele>3.8</ele>
        <time>2021-05-18T09:24:02Z</time>
      </trkpt>
      <trkpt lat="41.8064030" lon="-8.8579780">
        <ele>3.8</ele>
        <time>2021-05-18T09:24:03Z</time>
      </trkpt>
      <trkpt lat="41.8064110" lon="-8.8579720">
        <ele>3.8</ele>
        <time>2021-05-18T09:24:04Z</time>
      </trkpt>
      <trkpt lat="41.8064230" lon="-8.8579740">
        <ele>3.8</ele>
        <time>2021-05-18T09:24:05Z</time>
      </trkpt>
      <trkpt lat="41.8064410" lon="-8.8579730">
        <ele>3.8</ele>
        <time>2021-05-18T09:24:06Z</time>
      </trkpt>
      <trkpt lat="41.8064540" lon="-8.8579820">
        <ele>3.8</ele>
        <time>2021-05-18T09:24:07Z</time>
      </trkpt>
      <trkpt lat="41.8064650" lon="-8.8579810">
        <ele>3.8</ele>
        <time>2021-05-18T09:24:08Z</time>
      </trkpt>
      <trkpt lat="41.8064760" lon="-8.8579850">
        <ele>3.8</ele>
        <time>2021-05-18T09:24:09Z</time>
      </trkpt>
      <trkpt lat="41.8064870" lon="-8.8579870">
        <ele>3.8</ele>
        <time>2021-05-18T09:24:10Z</time>
      </trkpt>
      <trkpt lat="41.8065050" lon="-8.8580020">
        <ele>3.8</ele>
        <time>2021-05-18T09:24:11Z</time>
      </trkpt>
      <trkpt lat="41.8065120" lon="-8.8580140">
        <ele>3.8</ele>
        <time>2021-05-18T09:24:12Z</time>
      </trkpt>
      <trkpt lat="41.8065260" lon="-8.8580230">
        <ele>3.8</ele>
        <time>2021-05-18T09:24:13Z</time>
      </trkpt>
      <trkpt lat="41.8065350" lon="-8.8580280">
        <ele>3.8</ele>
        <time>2021-05-18T09:24:14Z</time>
      </trkpt>
      <trkpt lat="41.8065500" lon="-8.8580360">
        <ele>3.8</ele>
        <time>2021-05-18T09:24:15Z</time>
      </trkpt>
      <trkpt lat="41.8065530" lon="-8.8580400">
        <ele>3.8</ele>
        <time>2021-05-18T09:24:16Z</time>
      </trkpt>
      <trkpt lat="41.8065630" lon="-8.8580470">
        <ele>3.8</ele>
        <time>2021-05-18T09:24:17Z</time>
      </trkpt>
      <trkpt lat="41.8065740" lon="-8.8580510">
        <ele>3.8</ele>
        <time>2021-05-18T09:24:18Z</time>
      </trkpt>
      <trkpt lat="41.8065890" lon="-8.8580640">
        <ele>3.8</ele>
        <time>2021-05-18T09:24:19Z</time>
      </trkpt>
      <trkpt lat="41.8065970" lon="-8.8580740">
        <ele>3.8</ele>
        <time>2021-05-18T09:24:20Z</time>
      </trkpt>
      <trkpt lat="41.8066030" lon="-8.8580860">
        <ele>3.8</ele>
        <time>2021-05-18T09:24:21Z</time>
      </trkpt>
      <trkpt lat="41.8066100" lon="-8.8580900">
        <ele>3.8</ele>
        <time>2021-05-18T09:24:22Z</time>
      </trkpt>
      <trkpt lat="41.8066200" lon="-8.8581080">
        <ele>3.8</ele>
        <time>2021-05-18T09:24:23Z</time>
      </trkpt>
      <trkpt lat="41.8066300" lon="-8.8581160">
        <ele>3.9</ele>
        <time>2021-05-18T09:24:24Z</time>
      </trkpt>
      <trkpt lat="41.8066460" lon="-8.8581360">
        <ele>3.9</ele>
        <time>2021-05-18T09:24:25Z</time>
      </trkpt>
      <trkpt lat="41.8066560" lon="-8.8581440">
        <ele>3.9</ele>
        <time>2021-05-18T09:24:26Z</time>
      </trkpt>
      <trkpt lat="41.8066730" lon="-8.8581630">
        <ele>3.9</ele>
        <time>2021-05-18T09:24:27Z</time>
      </trkpt>
      <trkpt lat="41.8066820" lon="-8.8581720">
        <ele>4.0</ele>
        <time>2021-05-18T09:24:28Z</time>
      </trkpt>
      <trkpt lat="41.8066900" lon="-8.8581800">
        <ele>4.0</ele>
        <time>2021-05-18T09:24:29Z</time>
      </trkpt>
      <trkpt lat="41.8066990" lon="-8.8581930">
        <ele>4.0</ele>
        <time>2021-05-18T09:24:30Z</time>
      </trkpt>
      <trkpt lat="41.8067140" lon="-8.8582070">
        <ele>4.0</ele>
        <time>2021-05-18T09:24:31Z</time>
      </trkpt>
      <trkpt lat="41.8067340" lon="-8.8582200">
        <ele>4.1</ele>
        <time>2021-05-18T09:24:32Z</time>
      </trkpt>
      <trkpt lat="41.8067420" lon="-8.8582260">
        <ele>4.1</ele>
        <time>2021-05-18T09:24:33Z</time>
      </trkpt>
      <trkpt lat="41.8067510" lon="-8.8582320">
        <ele>4.1</ele>
        <time>2021-05-18T09:24:34Z</time>
      </trkpt>
      <trkpt lat="41.8067640" lon="-8.8582460">
        <ele>4.1</ele>
        <time>2021-05-18T09:24:35Z</time>
      </trkpt>
      <trkpt lat="41.8067740" lon="-8.8582570">
        <ele>4.1</ele>
        <time>2021-05-18T09:24:36Z</time>
      </trkpt>
      <trkpt lat="41.8067890" lon="-8.8582780">
        <ele>4.2</ele>
        <time>2021-05-18T09:24:37Z</time>
      </trkpt>
      <trkpt lat="41.8067980" lon="-8.8582890">
        <ele>4.2</ele>
        <time>2021-05-18T09:24:38Z</time>
      </trkpt>
      <trkpt lat="41.8068070" lon="-8.8582990">
        <ele>4.2</ele>
        <time>2021-05-18T09:24:39Z</time>
      </trkpt>
      <trkpt lat="41.8068180" lon="-8.8583070">
        <ele>4.2</ele>
        <time>2021-05-18T09:24:40Z</time>
      </trkpt>
      <trkpt lat="41.8068230" lon="-8.8583130">
        <ele>4.2</ele>
        <time>2021-05-18T09:24:41Z</time>
      </trkpt>
      <trkpt lat="41.8068310" lon="-8.8583250">
        <ele>4.2</ele>
        <time>2021-05-18T09:24:42Z</time>
      </trkpt>
      <trkpt lat="41.8068440" lon="-8.8583360">
        <ele>4.2</ele>
        <time>2021-05-18T09:24:43Z</time>
      </trkpt>
      <trkpt lat="41.8068560" lon="-8.8583480">
        <ele>4.2</ele>
        <time>2021-05-18T09:24:44Z</time>
      </trkpt>
      <trkpt lat="41.8068660" lon="-8.8583510">
        <ele>4.2</ele>
        <time>2021-05-18T09:24:45Z</time>
      </trkpt>
      <trkpt lat="41.8068790" lon="-8.8583620">
        <ele>4.3</ele>
        <time>2021-05-18T09:24:46Z</time>
      </trkpt>
      <trkpt lat="41.8068860" lon="-8.8583680">
        <ele>4.3</ele>
        <time>2021-05-18T09:24:47Z</time>
      </trkpt>
      <trkpt lat="41.8069010" lon="-8.8583840">
        <ele>4.3</ele>
        <time>2021-05-18T09:24:48Z</time>
      </trkpt>
      <trkpt lat="41.8069140" lon="-8.8583920">
        <ele>4.3</ele>
        <time>2021-05-18T09:24:49Z</time>
      </trkpt>
      <trkpt lat="41.8069320" lon="-8.8583970">
        <ele>4.3</ele>
        <time>2021-05-18T09:24:50Z</time>
      </trkpt>
      <trkpt lat="41.8069420" lon="-8.8584030">
        <ele>4.3</ele>
        <time>2021-05-18T09:24:51Z</time>
      </trkpt>
      <trkpt lat="41.8069640" lon="-8.8584140">
        <ele>4.3</ele>
        <time>2021-05-18T09:24:52Z</time>
      </trkpt>
      <trkpt lat="41.8069700" lon="-8.8584200">
        <ele>4.3</ele>
        <time>2021-05-18T09:24:53Z</time>
      </trkpt>
      <trkpt lat="41.8069770" lon="-8.8584250">
        <ele>4.3</ele>
        <time>2021-05-18T09:24:54Z</time>
      </trkpt>
      <trkpt lat="41.8069950" lon="-8.8584360">
        <ele>4.3</ele>
        <time>2021-05-18T09:24:55Z</time>
      </trkpt>
      <trkpt lat="41.8070060" lon="-8.8584390">
        <ele>4.3</ele>
        <time>2021-05-18T09:24:56Z</time>
      </trkpt>
      <trkpt lat="41.8070160" lon="-8.8584430">
        <ele>4.3</ele>
        <time>2021-05-18T09:24:57Z</time>
      </trkpt>
      <trkpt lat="41.8070290" lon="-8.8584520">
        <ele>4.3</ele>
        <time>2021-05-18T09:24:58Z</time>
      </trkpt>
      <trkpt lat="41.8070430" lon="-8.8584480">
        <ele>4.3</ele>
        <time>2021-05-18T09:24:59Z</time>
      </trkpt>
      <trkpt lat="41.8070500" lon="-8.8584400">
        <ele>4.3</ele>
        <time>2021-05-18T09:25:00Z</time>
      </trkpt>
      <trkpt lat="41.8070630" lon="-8.8584380">
        <ele>4.3</ele>
        <time>2021-05-18T09:25:01Z</time>
      </trkpt>
      <trkpt lat="41.8070720" lon="-8.8584320">
        <ele>4.3</ele>
        <time>2021-05-18T09:25:02Z</time>
      </trkpt>
      <trkpt lat="41.8070870" lon="-8.8584420">
        <ele>4.3</ele>
        <time>2021-05-18T09:25:03Z</time>
      </trkpt>
      <trkpt lat="41.8070970" lon="-8.8584470">
        <ele>4.3</ele>
        <time>2021-05-18T09:25:04Z</time>
      </trkpt>
      <trkpt lat="41.8071090" lon="-8.8584440">
        <ele>4.3</ele>
        <time>2021-05-18T09:25:05Z</time>
      </trkpt>
      <trkpt lat="41.8071200" lon="-8.8584500">
        <ele>4.3</ele>
        <time>2021-05-18T09:25:06Z</time>
      </trkpt>
      <trkpt lat="41.8071300" lon="-8.8584520">
        <ele>4.3</ele>
        <time>2021-05-18T09:25:07Z</time>
      </trkpt>
      <trkpt lat="41.8071400" lon="-8.8584570">
        <ele>4.3</ele>
        <time>2021-05-18T09:25:08Z</time>
      </trkpt>
      <trkpt lat="41.8071510" lon="-8.8584550">
        <ele>4.4</ele>
        <time>2021-05-18T09:25:09Z</time>
      </trkpt>
      <trkpt lat="41.8071590" lon="-8.8584570">
        <ele>4.4</ele>
        <time>2021-05-18T09:25:10Z</time>
      </trkpt>
      <trkpt lat="41.8071780" lon="-8.8584600">
        <ele>4.4</ele>
        <time>2021-05-18T09:25:11Z</time>
      </trkpt>
      <trkpt lat="41.8071840" lon="-8.8584570">
        <ele>4.4</ele>
        <time>2021-05-18T09:25:12Z</time>
      </trkpt>
      <trkpt lat="41.8071930" lon="-8.8584610">
        <ele>4.4</ele>
        <time>2021-05-18T09:25:13Z</time>
      </trkpt>
      <trkpt lat="41.8072120" lon="-8.8584550">
        <ele>4.4</ele>
        <time>2021-05-18T09:25:14Z</time>
      </trkpt>
      <trkpt lat="41.8072220" lon="-8.8584550">
        <ele>4.4</ele>
        <time>2021-05-18T09:25:15Z</time>
      </trkpt>
      <trkpt lat="41.8072450" lon="-8.8584600">
        <ele>4.4</ele>
        <time>2021-05-18T09:25:16Z</time>
      </trkpt>
      <trkpt lat="41.8072540" lon="-8.8584640">
        <ele>4.4</ele>
        <time>2021-05-18T09:25:17Z</time>
      </trkpt>
      <trkpt lat="41.8072630" lon="-8.8584690">
        <ele>4.4</ele>
        <time>2021-05-18T09:25:18Z</time>
      </trkpt>
      <trkpt lat="41.8072760" lon="-8.8584660">
        <ele>4.5</ele>
        <time>2021-05-18T09:25:19Z</time>
      </trkpt>
      <trkpt lat="41.8072860" lon="-8.8584670">
        <ele>4.5</ele>
        <time>2021-05-18T09:25:20Z</time>
      </trkpt>
      <trkpt lat="41.8073000" lon="-8.8584690">
        <ele>4.5</ele>
        <time>2021-05-18T09:25:21Z</time>
      </trkpt>
      <trkpt lat="41.8073110" lon="-8.8584690">
        <ele>4.5</ele>
        <time>2021-05-18T09:25:22Z</time>
      </trkpt>
      <trkpt lat="41.8073300" lon="-8.8584680">
        <ele>4.5</ele>
        <time>2021-05-18T09:25:23Z</time>
      </trkpt>
      <trkpt lat="41.8073450" lon="-8.8584610">
        <ele>4.6</ele>
        <time>2021-05-18T09:25:24Z</time>
      </trkpt>
      <trkpt lat="41.8073590" lon="-8.8584600">
        <ele>4.6</ele>
        <time>2021-05-18T09:25:25Z</time>
      </trkpt>
      <trkpt lat="41.8073820" lon="-8.8584710">
        <ele>4.6</ele>
        <time>2021-05-18T09:25:26Z</time>
      </trkpt>
      <trkpt lat="41.8073890" lon="-8.8584760">
        <ele>4.7</ele>
        <time>2021-05-18T09:25:27Z</time>
      </trkpt>
      <trkpt lat="41.8073970" lon="-8.8584810">
        <ele>4.7</ele>
        <time>2021-05-18T09:25:28Z</time>
      </trkpt>
      <trkpt lat="41.8074190" lon="-8.8584830">
        <ele>4.7</ele>
        <time>2021-05-18T09:25:29Z</time>
      </trkpt>
      <trkpt lat="41.8074310" lon="-8.8584870">
        <ele>4.8</ele>
        <time>2021-05-18T09:25:30Z</time>
      </trkpt>
      <trkpt lat="41.8074430" lon="-8.8584920">
        <ele>4.8</ele>
        <time>2021-05-18T09:25:31Z</time>
      </trkpt>
      <trkpt lat="41.8074610" lon="-8.8584860">
        <ele>4.8</ele>
        <time>2021-05-18T09:25:32Z</time>
      </trkpt>
      <trkpt lat="41.8074710" lon="-8.8584850">
        <ele>4.9</ele>
        <time>2021-05-18T09:25:33Z</time>
      </trkpt>
      <trkpt lat="41.8074800" lon="-8.8584830">
        <ele>4.9</ele>
        <time>2021-05-18T09:25:34Z</time>
      </trkpt>
      <trkpt lat="41.8074980" lon="-8.8584800">
        <ele>4.9</ele>
        <time>2021-05-18T09:25:35Z</time>
      </trkpt>
      <trkpt lat="41.8075120" lon="-8.8584780">
        <ele>5.0</ele>
        <time>2021-05-18T09:25:36Z</time>
      </trkpt>
      <trkpt lat="41.8075270" lon="-8.8584880">
        <ele>5.0</ele>
        <time>2021-05-18T09:25:37Z</time>
      </trkpt>
      <trkpt lat="41.8075390" lon="-8.8585020">
        <ele>5.0</ele>
        <time>2021-05-18T09:25:38Z</time>
      </trkpt>
      <trkpt lat="41.8075600" lon="-8.8585140">
        <ele>5.1</ele>
        <time>2021-05-18T09:25:39Z</time>
      </trkpt>
      <trkpt lat="41.8075690" lon="-8.8585180">
        <ele>5.1</ele>
        <time>2021-05-18T09:25:40Z</time>
      </trkpt>
      <trkpt lat="41.8075780" lon="-8.8585220">
        <ele>5.1</ele>
        <time>2021-05-18T09:25:41Z</time>
      </trkpt>
      <trkpt lat="41.8075910" lon="-8.8585290">
        <ele>5.1</ele>
        <time>2021-05-18T09:25:42Z</time>
      </trkpt>
      <trkpt lat="41.8076070" lon="-8.8585410">
        <ele>5.2</ele>
        <time>2021-05-18T09:25:43Z</time>
      </trkpt>
      <trkpt lat="41.8076220" lon="-8.8585410">
        <ele>5.2</ele>
        <time>2021-05-18T09:25:44Z</time>
      </trkpt>
      <trkpt lat="41.8076360" lon="-8.8585430">
        <ele>5.2</ele>
        <time>2021-05-18T09:25:45Z</time>
      </trkpt>
      <trkpt lat="41.8076440" lon="-8.8585450">
        <ele>5.2</ele>
        <time>2021-05-18T09:25:46Z</time>
      </trkpt>
      <trkpt lat="41.8076560" lon="-8.8585510">
        <ele>5.2</ele>
        <time>2021-05-18T09:25:47Z</time>
      </trkpt>
      <trkpt lat="41.8076680" lon="-8.8585630">
        <ele>5.2</ele>
        <time>2021-05-18T09:25:48Z</time>
      </trkpt>
      <trkpt lat="41.8076800" lon="-8.8585740">
        <ele>5.2</ele>
        <time>2021-05-18T09:25:49Z</time>
      </trkpt>
      <trkpt lat="41.8076890" lon="-8.8585860">
        <ele>5.1</ele>
        <time>2021-05-18T09:25:50Z</time>
      </trkpt>
      <trkpt lat="41.8077070" lon="-8.8586030">
        <ele>5.1</ele>
        <time>2021-05-18T09:25:51Z</time>
      </trkpt>
      <trkpt lat="41.8077140" lon="-8.8586120">
        <ele>5.1</ele>
        <time>2021-05-18T09:25:52Z</time>
      </trkpt>
      <trkpt lat="41.8077210" lon="-8.8586200">
        <ele>5.1</ele>
        <time>2021-05-18T09:25:53Z</time>
      </trkpt>
      <trkpt lat="41.8077260" lon="-8.8586170">
        <ele>5.1</ele>
        <time>2021-05-18T09:25:54Z</time>
      </trkpt>
      <trkpt lat="41.8077320" lon="-8.8586260">
        <ele>5.0</ele>
        <time>2021-05-18T09:25:55Z</time>
      </trkpt>
      <trkpt lat="41.8077430" lon="-8.8586430">
        <ele>5.0</ele>
        <time>2021-05-18T09:25:56Z</time>
      </trkpt>
      <trkpt lat="41.8077520" lon="-8.8586500">
        <ele>5.0</ele>
        <time>2021-05-18T09:25:57Z</time>
      </trkpt>
      <trkpt lat="41.8077620" lon="-8.8586730">
        <ele>4.9</ele>
        <time>2021-05-18T09:25:58Z</time>
      </trkpt>
      <trkpt lat="41.8077750" lon="-8.8586800">
        <ele>4.9</ele>
        <time>2021-05-18T09:25:59Z</time>
      </trkpt>
      <trkpt lat="41.8077860" lon="-8.8586910">
        <ele>4.9</ele>
        <time>2021-05-18T09:26:00Z</time>
      </trkpt>
      <trkpt lat="41.8077960" lon="-8.8587040">
        <ele>4.8</ele>
        <time>2021-05-18T09:26:01Z</time>
      </trkpt>
      <trkpt lat="41.8078100" lon="-8.8587140">
        <ele>4.8</ele>
        <time>2021-05-18T09:26:02Z</time>
      </trkpt>
      <trkpt lat="41.8078190" lon="-8.8587330">
        <ele>4.7</ele>
        <time>2021-05-18T09:26:03Z</time>
      </trkpt>
      <trkpt lat="41.8078320" lon="-8.8587490">
        <ele>4.7</ele>
        <time>2021-05-18T09:26:04Z</time>
      </trkpt>
      <trkpt lat="41.8078520" lon="-8.8587650">
        <ele>4.6</ele>
        <time>2021-05-18T09:26:05Z</time>
      </trkpt>
      <trkpt lat="41.8078610" lon="-8.8587750">
        <ele>4.6</ele>
        <time>2021-05-18T09:26:06Z</time>
      </trkpt>
      <trkpt lat="41.8078700" lon="-8.8587840">
        <ele>4.5</ele>
        <time>2021-05-18T09:26:07Z</time>
      </trkpt>
      <trkpt lat="41.8078790" lon="-8.8588030">
        <ele>4.5</ele>
        <time>2021-05-18T09:26:08Z</time>
      </trkpt>
      <trkpt lat="41.8078880" lon="-8.8588120">
        <ele>4.5</ele>
        <time>2021-05-18T09:26:09Z</time>
      </trkpt>
      <trkpt lat="41.8079090" lon="-8.8588240">
        <ele>4.4</ele>
        <time>2021-05-18T09:26:10Z</time>
      </trkpt>
      <trkpt lat="41.8079160" lon="-8.8588280">
        <ele>4.4</ele>
        <time>2021-05-18T09:26:11Z</time>
      </trkpt>
      <trkpt lat="41.8079230" lon="-8.8588330">
        <ele>4.4</ele>
        <time>2021-05-18T09:26:12Z</time>
      </trkpt>
      <trkpt lat="41.8079340" lon="-8.8588440">
        <ele>4.4</ele>
        <time>2021-05-18T09:26:13Z</time>
      </trkpt>
      <trkpt lat="41.8079430" lon="-8.8588470">
        <ele>4.4</ele>
        <time>2021-05-18T09:26:14Z</time>
      </trkpt>
      <trkpt lat="41.8079520" lon="-8.8588510">
        <ele>4.4</ele>
        <time>2021-05-18T09:26:15Z</time>
      </trkpt>
      <trkpt lat="41.8079670" lon="-8.8588560">
        <ele>4.3</ele>
        <time>2021-05-18T09:26:16Z</time>
      </trkpt>
      <trkpt lat="41.8079780" lon="-8.8588590">
        <ele>4.3</ele>
        <time>2021-05-18T09:26:17Z</time>
      </trkpt>
      <trkpt lat="41.8079930" lon="-8.8588630">
        <ele>4.3</ele>
        <time>2021-05-18T09:26:18Z</time>
      </trkpt>
      <trkpt lat="41.8080050" lon="-8.8588730">
        <ele>4.3</ele>
        <time>2021-05-18T09:26:19Z</time>
      </trkpt>
      <trkpt lat="41.8080120" lon="-8.8588730">
        <ele>4.3</ele>
        <time>2021-05-18T09:26:20Z</time>
      </trkpt>
      <trkpt lat="41.8080230" lon="-8.8588770">
        <ele>4.3</ele>
        <time>2021-05-18T09:26:21Z</time>
      </trkpt>
      <trkpt lat="41.8080350" lon="-8.8588820">
        <ele>4.3</ele>
        <time>2021-05-18T09:26:22Z</time>
      </trkpt>
      <trkpt lat="41.8080490" lon="-8.8588840">
        <ele>4.3</ele>
        <time>2021-05-18T09:26:23Z</time>
      </trkpt>
      <trkpt lat="41.8080570" lon="-8.8588850">
        <ele>4.3</ele>
        <time>2021-05-18T09:26:24Z</time>
      </trkpt>
      <trkpt lat="41.8080710" lon="-8.8588880">
        <ele>4.3</ele>
        <time>2021-05-18T09:26:25Z</time>
      </trkpt>
      <trkpt lat="41.8080890" lon="-8.8588940">
        <ele>4.3</ele>
        <time>2021-05-18T09:26:26Z</time>
      </trkpt>
      <trkpt lat="41.8080990" lon="-8.8588940">
        <ele>4.3</ele>
        <time>2021-05-18T09:26:27Z</time>
      </trkpt>
      <trkpt lat="41.8081100" lon="-8.8588940">
        <ele>4.2</ele>
        <time>2021-05-18T09:26:28Z</time>
      </trkpt>
      <trkpt lat="41.8081250" lon="-8.8588920">
        <ele>4.2</ele>
        <time>2021-05-18T09:26:29Z</time>
      </trkpt>
      <trkpt lat="41.8081380" lon="-8.8588910">
        <ele>4.2</ele>
        <time>2021-05-18T09:26:30Z</time>
      </trkpt>
      <trkpt lat="41.8081600" lon="-8.8588830">
        <ele>4.2</ele>
        <time>2021-05-18T09:26:31Z</time>
      </trkpt>
      <trkpt lat="41.8081690" lon="-8.8588820">
        <ele>4.2</ele>
        <time>2021-05-18T09:26:32Z</time>
      </trkpt>
      <trkpt lat="41.8081790" lon="-8.8588810">
        <ele>4.2</ele>
        <time>2021-05-18T09:26:33Z</time>
      </trkpt>
      <trkpt lat="41.8082040" lon="-8.8588760">
        <ele>4.2</ele>
        <time>2021-05-18T09:26:34Z</time>
      </trkpt>
      <trkpt lat="41.8082120" lon="-8.8588750">
        <ele>4.2</ele>
        <time>2021-05-18T09:26:35Z</time>
      </trkpt>
      <trkpt lat="41.8082210" lon="-8.8588730">
        <ele>4.2</ele>
        <time>2021-05-18T09:26:36Z</time>
      </trkpt>
      <trkpt lat="41.8082280" lon="-8.8588690">
        <ele>4.2</ele>
        <time>2021-05-18T09:26:37Z</time>
      </trkpt>
      <trkpt lat="41.8082350" lon="-8.8588680">
        <ele>4.2</ele>
        <time>2021-05-18T09:26:38Z</time>
      </trkpt>
      <trkpt lat="41.8082470" lon="-8.8588570">
        <ele>4.2</ele>
        <time>2021-05-18T09:26:39Z</time>
      </trkpt>
      <trkpt lat="41.8082700" lon="-8.8588550">
        <ele>4.2</ele>
        <time>2021-05-18T09:26:40Z</time>
      </trkpt>
      <trkpt lat="41.8082790" lon="-8.8588520">
        <ele>4.2</ele>
        <time>2021-05-18T09:26:41Z</time>
      </trkpt>
      <trkpt lat="41.8082880" lon="-8.8588500">
        <ele>4.2</ele>
        <time>2021-05-18T09:26:42Z</time>
      </trkpt>
      <trkpt lat="41.8082960" lon="-8.8588410">
        <ele>4.2</ele>
        <time>2021-05-18T09:26:43Z</time>
      </trkpt>
      <trkpt lat="41.8083180" lon="-8.8588380">
        <ele>4.2</ele>
        <time>2021-05-18T09:26:44Z</time>
      </trkpt>
      <trkpt lat="41.8083300" lon="-8.8588360">
        <ele>4.2</ele>
        <time>2021-05-18T09:26:45Z</time>
      </trkpt>
      <trkpt lat="41.8083450" lon="-8.8588380">
        <ele>4.2</ele>
        <time>2021-05-18T09:26:46Z</time>
      </trkpt>
      <trkpt lat="41.8083570" lon="-8.8588360">
        <ele>4.2</ele>
        <time>2021-05-18T09:26:47Z</time>
      </trkpt>
      <trkpt lat="41.8083750" lon="-8.8588370">
        <ele>4.2</ele>
        <time>2021-05-18T09:26:48Z</time>
      </trkpt>
      <trkpt lat="41.8083860" lon="-8.8588340">
        <ele>4.2</ele>
        <time>2021-05-18T09:26:49Z</time>
      </trkpt>
      <trkpt lat="41.8084110" lon="-8.8588300">
        <ele>4.2</ele>
        <time>2021-05-18T09:26:50Z</time>
      </trkpt>
      <trkpt lat="41.8084240" lon="-8.8588290">
        <ele>4.2</ele>
        <time>2021-05-18T09:26:51Z</time>
      </trkpt>
      <trkpt lat="41.8084380" lon="-8.8588310">
        <ele>4.2</ele>
        <time>2021-05-18T09:26:52Z</time>
      </trkpt>
      <trkpt lat="41.8084540" lon="-8.8588270">
        <ele>4.2</ele>
        <time>2021-05-18T09:26:53Z</time>
      </trkpt>
      <trkpt lat="41.8084690" lon="-8.8588240">
        <ele>4.2</ele>
        <time>2021-05-18T09:26:54Z</time>
      </trkpt>
      <trkpt lat="41.8084820" lon="-8.8588210">
        <ele>4.2</ele>
        <time>2021-05-18T09:26:55Z</time>
      </trkpt>
      <trkpt lat="41.8084930" lon="-8.8588190">
        <ele>4.2</ele>
        <time>2021-05-18T09:26:56Z</time>
      </trkpt>
      <trkpt lat="41.8085040" lon="-8.8588150">
        <ele>4.2</ele>
        <time>2021-05-18T09:26:57Z</time>
      </trkpt>
      <trkpt lat="41.8085160" lon="-8.8588110">
        <ele>4.2</ele>
        <time>2021-05-18T09:26:58Z</time>
      </trkpt>
      <trkpt lat="41.8085310" lon="-8.8588120">
        <ele>4.2</ele>
        <time>2021-05-18T09:26:59Z</time>
      </trkpt>
      <trkpt lat="41.8085490" lon="-8.8588090">
        <ele>4.2</ele>
        <time>2021-05-18T09:27:00Z</time>
      </trkpt>
      <trkpt lat="41.8085640" lon="-8.8588070">
        <ele>4.2</ele>
        <time>2021-05-18T09:27:01Z</time>
      </trkpt>
      <trkpt lat="41.8085980" lon="-8.8588120">
        <ele>4.2</ele>
        <time>2021-05-18T09:27:02Z</time>
      </trkpt>
      <trkpt lat="41.8086080" lon="-8.8588110">
        <ele>4.2</ele>
        <time>2021-05-18T09:27:03Z</time>
      </trkpt>
      <trkpt lat="41.8086350" lon="-8.8588110">
        <ele>4.2</ele>
        <time>2021-05-18T09:27:04Z</time>
      </trkpt>
      <trkpt lat="41.8086440" lon="-8.8588130">
        <ele>4.2</ele>
        <time>2021-05-18T09:27:05Z</time>
      </trkpt>
      <trkpt lat="41.8086610" lon="-8.8588110">
        <ele>4.2</ele>
        <time>2021-05-18T09:27:06Z</time>
      </trkpt>
      <trkpt lat="41.8086770" lon="-8.8588150">
        <ele>4.2</ele>
        <time>2021-05-18T09:27:07Z</time>
      </trkpt>
      <trkpt lat="41.8086930" lon="-8.8588160">
        <ele>4.2</ele>
        <time>2021-05-18T09:27:08Z</time>
      </trkpt>
      <trkpt lat="41.8087070" lon="-8.8588140">
        <ele>4.2</ele>
        <time>2021-05-18T09:27:09Z</time>
      </trkpt>
      <trkpt lat="41.8087230" lon="-8.8588150">
        <ele>4.2</ele>
        <time>2021-05-18T09:27:10Z</time>
      </trkpt>
      <trkpt lat="41.8087380" lon="-8.8588140">
        <ele>4.2</ele>
        <time>2021-05-18T09:27:11Z</time>
      </trkpt>
      <trkpt lat="41.8087530" lon="-8.8588200">
        <ele>4.1</ele>
        <time>2021-05-18T09:27:12Z</time>
      </trkpt>
      <trkpt lat="41.8087690" lon="-8.8588210">
        <ele>4.1</ele>
        <time>2021-05-18T09:27:13Z</time>
      </trkpt>
      <trkpt lat="41.8087830" lon="-8.8588280">
        <ele>4.1</ele>
        <time>2021-05-18T09:27:14Z</time>
      </trkpt>
      <trkpt lat="41.8088010" lon="-8.8588280">
        <ele>4.1</ele>
        <time>2021-05-18T09:27:15Z</time>
      </trkpt>
      <trkpt lat="41.8088140" lon="-8.8588350">
        <ele>4.1</ele>
        <time>2021-05-18T09:27:16Z</time>
      </trkpt>
      <trkpt lat="41.8088290" lon="-8.8588380">
        <ele>4.1</ele>
        <time>2021-05-18T09:27:17Z</time>
      </trkpt>
      <trkpt lat="41.8088420" lon="-8.8588430">
        <ele>4.1</ele>
        <time>2021-05-18T09:27:18Z</time>
      </trkpt>
      <trkpt lat="41.8088570" lon="-8.8588460">
        <ele>4.1</ele>
        <time>2021-05-18T09:27:19Z</time>
      </trkpt>
      <trkpt lat="41.8088710" lon="-8.8588530">
        <ele>4.1</ele>
        <time>2021-05-18T09:27:20Z</time>
      </trkpt>
      <trkpt lat="41.8088850" lon="-8.8588590">
        <ele>4.1</ele>
        <time>2021-05-18T09:27:21Z</time>
      </trkpt>
      <trkpt lat="41.8089000" lon="-8.8588640">
        <ele>4.1</ele>
        <time>2021-05-18T09:27:22Z</time>
      </trkpt>
      <trkpt lat="41.8089160" lon="-8.8588680">
        <ele>4.1</ele>
        <time>2021-05-18T09:27:23Z</time>
      </trkpt>
      <trkpt lat="41.8089300" lon="-8.8588710">
        <ele>4.1</ele>
        <time>2021-05-18T09:27:24Z</time>
      </trkpt>
      <trkpt lat="41.8089440" lon="-8.8588740">
        <ele>4.1</ele>
        <time>2021-05-18T09:27:25Z</time>
      </trkpt>
      <trkpt lat="41.8089580" lon="-8.8588770">
        <ele>4.1</ele>
        <time>2021-05-18T09:27:26Z</time>
      </trkpt>
      <trkpt lat="41.8089730" lon="-8.8588780">
        <ele>4.1</ele>
        <time>2021-05-18T09:27:27Z</time>
      </trkpt>
      <trkpt lat="41.8089880" lon="-8.8588830">
        <ele>4.1</ele>
        <time>2021-05-18T09:27:28Z</time>
      </trkpt>
      <trkpt lat="41.8090020" lon="-8.8588830">
        <ele>4.1</ele>
        <time>2021-05-18T09:27:29Z</time>
      </trkpt>
      <trkpt lat="41.8090240" lon="-8.8588940">
        <ele>4.1</ele>
        <time>2021-05-18T09:27:30Z</time>
      </trkpt>
      <trkpt lat="41.8090330" lon="-8.8588960">
        <ele>4.1</ele>
        <time>2021-05-18T09:27:31Z</time>
      </trkpt>
      <trkpt lat="41.8090420" lon="-8.8588970">
        <ele>4.1</ele>
        <time>2021-05-18T09:27:32Z</time>
      </trkpt>
      <trkpt lat="41.8090560" lon="-8.8589040">
        <ele>4.1</ele>
        <time>2021-05-18T09:27:33Z</time>
      </trkpt>
      <trkpt lat="41.8090690" lon="-8.8589030">
        <ele>4.1</ele>
        <time>2021-05-18T09:27:34Z</time>
      </trkpt>
      <trkpt lat="41.8090830" lon="-8.8589100">
        <ele>4.1</ele>
        <time>2021-05-18T09:27:35Z</time>
      </trkpt>
      <trkpt lat="41.8090950" lon="-8.8589180">
        <ele>4.1</ele>
        <time>2021-05-18T09:27:36Z</time>
      </trkpt>
      <trkpt lat="41.8091090" lon="-8.8589250">
        <ele>4.1</ele>
        <time>2021-05-18T09:27:37Z</time>
      </trkpt>
      <trkpt lat="41.8091240" lon="-8.8589290">
        <ele>4.1</ele>
        <time>2021-05-18T09:27:38Z</time>
      </trkpt>
      <trkpt lat="41.8091360" lon="-8.8589310">
        <ele>4.1</ele>
        <time>2021-05-18T09:27:39Z</time>
      </trkpt>
      <trkpt lat="41.8091520" lon="-8.8589360">
        <ele>4.1</ele>
        <time>2021-05-18T09:27:40Z</time>
      </trkpt>
      <trkpt lat="41.8091630" lon="-8.8589390">
        <ele>4.1</ele>
        <time>2021-05-18T09:27:41Z</time>
      </trkpt>
      <trkpt lat="41.8091780" lon="-8.8589460">
        <ele>4.1</ele>
        <time>2021-05-18T09:27:42Z</time>
      </trkpt>
      <trkpt lat="41.8092010" lon="-8.8589560">
        <ele>4.1</ele>
        <time>2021-05-18T09:27:43Z</time>
      </trkpt>
      <trkpt lat="41.8092100" lon="-8.8589580">
        <ele>4.1</ele>
        <time>2021-05-18T09:27:44Z</time>
      </trkpt>
      <trkpt lat="41.8092190" lon="-8.8589610">
        <ele>4.1</ele>
        <time>2021-05-18T09:27:45Z</time>
      </trkpt>
      <trkpt lat="41.8092350" lon="-8.8589680">
        <ele>4.1</ele>
        <time>2021-05-18T09:27:46Z</time>
      </trkpt>
      <trkpt lat="41.8092500" lon="-8.8589710">
        <ele>4.1</ele>
        <time>2021-05-18T09:27:47Z</time>
      </trkpt>
      <trkpt lat="41.8092640" lon="-8.8589710">
        <ele>4.1</ele>
        <time>2021-05-18T09:27:48Z</time>
      </trkpt>
      <trkpt lat="41.8092790" lon="-8.8589730">
        <ele>4.1</ele>
        <time>2021-05-18T09:27:49Z</time>
      </trkpt>
      <trkpt lat="41.8092930" lon="-8.8589750">
        <ele>4.1</ele>
        <time>2021-05-18T09:27:50Z</time>
      </trkpt>
      <trkpt lat="41.8093070" lon="-8.8589810">
        <ele>4.1</ele>
        <time>2021-05-18T09:27:51Z</time>
      </trkpt>
      <trkpt lat="41.8093220" lon="-8.8589840">
        <ele>4.1</ele>
        <time>2021-05-18T09:27:52Z</time>
      </trkpt>
      <trkpt lat="41.8093370" lon="-8.8589890">
        <ele>4.1</ele>
        <time>2021-05-18T09:27:53Z</time>
      </trkpt>
      <trkpt lat="41.8093480" lon="-8.8589920">
        <ele>4.1</ele>
        <time>2021-05-18T09:27:54Z</time>
      </trkpt>
      <trkpt lat="41.8093580" lon="-8.8589930">
        <ele>4.1</ele>
        <time>2021-05-18T09:27:55Z</time>
      </trkpt>
      <trkpt lat="41.8093670" lon="-8.8589940">
        <ele>4.1</ele>
        <time>2021-05-18T09:27:56Z</time>
      </trkpt>
      <trkpt lat="41.8093760" lon="-8.8589970">
        <ele>4.1</ele>
        <time>2021-05-18T09:27:57Z</time>
      </trkpt>
      <trkpt lat="41.8093810" lon="-8.8590050">
        <ele>4.1</ele>
        <time>2021-05-18T09:27:58Z</time>
      </trkpt>
      <trkpt lat="41.8093940" lon="-8.8590090">
        <ele>4.1</ele>
        <time>2021-05-18T09:27:59Z</time>
      </trkpt>
      <trkpt lat="41.8094080" lon="-8.8590160">
        <ele>4.1</ele>
        <time>2021-05-18T09:28:00Z</time>
      </trkpt>
      <trkpt lat="41.8094170" lon="-8.8590230">
        <ele>4.1</ele>
        <time>2021-05-18T09:28:01Z</time>
      </trkpt>
      <trkpt lat="41.8094270" lon="-8.8590230">
        <ele>4.1</ele>
        <time>2021-05-18T09:28:02Z</time>
      </trkpt>
      <trkpt lat="41.8094430" lon="-8.8590320">
        <ele>4.1</ele>
        <time>2021-05-18T09:28:03Z</time>
      </trkpt>
      <trkpt lat="41.8094510" lon="-8.8590340">
        <ele>4.1</ele>
        <time>2021-05-18T09:28:04Z</time>
      </trkpt>
      <trkpt lat="41.8094580" lon="-8.8590350">
        <ele>4.2</ele>
        <time>2021-05-18T09:28:05Z</time>
      </trkpt>
      <trkpt lat="41.8094660" lon="-8.8590370">
        <ele>4.2</ele>
        <time>2021-05-18T09:28:06Z</time>
      </trkpt>
      <trkpt lat="41.8094860" lon="-8.8590390">
        <ele>4.2</ele>
        <time>2021-05-18T09:28:07Z</time>
      </trkpt>
      <trkpt lat="41.8094950" lon="-8.8590420">
        <ele>4.2</ele>
        <time>2021-05-18T09:28:08Z</time>
      </trkpt>
      <trkpt lat="41.8095040" lon="-8.8590450">
        <ele>4.2</ele>
        <time>2021-05-18T09:28:09Z</time>
      </trkpt>
      <trkpt lat="41.8095180" lon="-8.8590490">
        <ele>4.2</ele>
        <time>2021-05-18T09:28:10Z</time>
      </trkpt>
      <trkpt lat="41.8095320" lon="-8.8590540">
        <ele>4.2</ele>
        <time>2021-05-18T09:28:11Z</time>
      </trkpt>
      <trkpt lat="41.8095470" lon="-8.8590590">
        <ele>4.2</ele>
        <time>2021-05-18T09:28:12Z</time>
      </trkpt>
      <trkpt lat="41.8095610" lon="-8.8590630">
        <ele>4.2</ele>
        <time>2021-05-18T09:28:13Z</time>
      </trkpt>
      <trkpt lat="41.8095740" lon="-8.8590690">
        <ele>4.2</ele>
        <time>2021-05-18T09:28:14Z</time>
      </trkpt>
      <trkpt lat="41.8095880" lon="-8.8590730">
        <ele>4.2</ele>
        <time>2021-05-18T09:28:15Z</time>
      </trkpt>
      <trkpt lat="41.8096000" lon="-8.8590850">
        <ele>4.2</ele>
        <time>2021-05-18T09:28:16Z</time>
      </trkpt>
      <trkpt lat="41.8096100" lon="-8.8590950">
        <ele>4.2</ele>
        <time>2021-05-18T09:28:17Z</time>
      </trkpt>
      <trkpt lat="41.8096260" lon="-8.8590980">
        <ele>4.2</ele>
        <time>2021-05-18T09:28:18Z</time>
      </trkpt>
      <trkpt lat="41.8096370" lon="-8.8591080">
        <ele>4.2</ele>
        <time>2021-05-18T09:28:19Z</time>
      </trkpt>
      <trkpt lat="41.8096450" lon="-8.8591230">
        <ele>4.2</ele>
        <time>2021-05-18T09:28:20Z</time>
      </trkpt>
      <trkpt lat="41.8096560" lon="-8.8591350">
        <ele>4.2</ele>
        <time>2021-05-18T09:28:21Z</time>
      </trkpt>
      <trkpt lat="41.8096670" lon="-8.8591460">
        <ele>4.2</ele>
        <time>2021-05-18T09:28:22Z</time>
      </trkpt>
      <trkpt lat="41.8096780" lon="-8.8591610">
        <ele>4.2</ele>
        <time>2021-05-18T09:28:23Z</time>
      </trkpt>
      <trkpt lat="41.8096910" lon="-8.8591850">
        <ele>4.3</ele>
        <time>2021-05-18T09:28:24Z</time>
      </trkpt>
      <trkpt lat="41.8096980" lon="-8.8591950">
        <ele>4.3</ele>
        <time>2021-05-18T09:28:25Z</time>
      </trkpt>
      <trkpt lat="41.8097040" lon="-8.8592040">
        <ele>4.3</ele>
        <time>2021-05-18T09:28:26Z</time>
      </trkpt>
      <trkpt lat="41.8097170" lon="-8.8592290">
        <ele>4.3</ele>
        <time>2021-05-18T09:28:27Z</time>
      </trkpt>
      <trkpt lat="41.8097180" lon="-8.8592440">
        <ele>4.3</ele>
        <time>2021-05-18T09:28:28Z</time>
      </trkpt>
      <trkpt lat="41.8097200" lon="-8.8592580">
        <ele>4.3</ele>
        <time>2021-05-18T09:28:29Z</time>
      </trkpt>
      <trkpt lat="41.8097300" lon="-8.8592840">
        <ele>4.3</ele>
        <time>2021-05-18T09:28:30Z</time>
      </trkpt>
      <trkpt lat="41.8097340" lon="-8.8592930">
        <ele>4.3</ele>
        <time>2021-05-18T09:28:31Z</time>
      </trkpt>
      <trkpt lat="41.8097380" lon="-8.8593030">
        <ele>4.3</ele>
        <time>2021-05-18T09:28:32Z</time>
      </trkpt>
      <trkpt lat="41.8097540" lon="-8.8593230">
        <ele>4.3</ele>
        <time>2021-05-18T09:28:33Z</time>
      </trkpt>
      <trkpt lat="41.8097620" lon="-8.8593320">
        <ele>4.3</ele>
        <time>2021-05-18T09:28:34Z</time>
      </trkpt>
      <trkpt lat="41.8097690" lon="-8.8593410">
        <ele>4.3</ele>
        <time>2021-05-18T09:28:35Z</time>
      </trkpt>
      <trkpt lat="41.8097740" lon="-8.8593590">
        <ele>4.3</ele>
        <time>2021-05-18T09:28:36Z</time>
      </trkpt>
      <trkpt lat="41.8097810" lon="-8.8593730">
        <ele>4.3</ele>
        <time>2021-05-18T09:28:37Z</time>
      </trkpt>
      <trkpt lat="41.8097880" lon="-8.8593910">
        <ele>4.3</ele>
        <time>2021-05-18T09:28:38Z</time>
      </trkpt>
      <trkpt lat="41.8097960" lon="-8.8594070">
        <ele>4.4</ele>
        <time>2021-05-18T09:28:39Z</time>
      </trkpt>
      <trkpt lat="41.8098070" lon="-8.8594220">
        <ele>4.4</ele>
        <time>2021-05-18T09:28:40Z</time>
      </trkpt>
      <trkpt lat="41.8098160" lon="-8.8594370">
        <ele>4.4</ele>
        <time>2021-05-18T09:28:41Z</time>
      </trkpt>
      <trkpt lat="41.8098280" lon="-8.8594480">
        <ele>4.4</ele>
        <time>2021-05-18T09:28:42Z</time>
      </trkpt>
      <trkpt lat="41.8098390" lon="-8.8594620">
        <ele>4.4</ele>
        <time>2021-05-18T09:28:43Z</time>
      </trkpt>
      <trkpt lat="41.8098520" lon="-8.8594720">
        <ele>4.4</ele>
        <time>2021-05-18T09:28:44Z</time>
      </trkpt>
      <trkpt lat="41.8098670" lon="-8.8594820">
        <ele>4.4</ele>
        <time>2021-05-18T09:28:45Z</time>
      </trkpt>
      <trkpt lat="41.8098770" lon="-8.8594960">
        <ele>4.4</ele>
        <time>2021-05-18T09:28:46Z</time>
      </trkpt>
      <trkpt lat="41.8098900" lon="-8.8595040">
        <ele>4.4</ele>
        <time>2021-05-18T09:28:47Z</time>
      </trkpt>
      <trkpt lat="41.8099040" lon="-8.8595090">
        <ele>4.4</ele>
        <time>2021-05-18T09:28:48Z</time>
      </trkpt>
      <trkpt lat="41.8099160" lon="-8.8595200">
        <ele>4.4</ele>
        <time>2021-05-18T09:28:49Z</time>
      </trkpt>
      <trkpt lat="41.8099370" lon="-8.8595310">
        <ele>4.4</ele>
        <time>2021-05-18T09:28:50Z</time>
      </trkpt>
      <trkpt lat="41.8099430" lon="-8.8595370">
        <ele>4.4</ele>
        <time>2021-05-18T09:28:51Z</time>
      </trkpt>
      <trkpt lat="41.8099500" lon="-8.8595430">
        <ele>4.4</ele>
        <time>2021-05-18T09:28:52Z</time>
      </trkpt>
      <trkpt lat="41.8099610" lon="-8.8595480">
        <ele>4.4</ele>
        <time>2021-05-18T09:28:53Z</time>
      </trkpt>
      <trkpt lat="41.8099750" lon="-8.8595590">
        <ele>4.4</ele>
        <time>2021-05-18T09:28:54Z</time>
      </trkpt>
      <trkpt lat="41.8099900" lon="-8.8595700">
        <ele>4.4</ele>
        <time>2021-05-18T09:28:55Z</time>
      </trkpt>
      <trkpt lat="41.8100010" lon="-8.8595790">
        <ele>4.4</ele>
        <time>2021-05-18T09:28:56Z</time>
      </trkpt>
      <trkpt lat="41.8100120" lon="-8.8595880">
        <ele>4.4</ele>
        <time>2021-05-18T09:28:57Z</time>
      </trkpt>
      <trkpt lat="41.8100250" lon="-8.8595970">
        <ele>4.4</ele>
        <time>2021-05-18T09:28:58Z</time>
      </trkpt>
      <trkpt lat="41.8100360" lon="-8.8596090">
        <ele>4.4</ele>
        <time>2021-05-18T09:28:59Z</time>
      </trkpt>
      <trkpt lat="41.8100510" lon="-8.8596100">
        <ele>4.4</ele>
        <time>2021-05-18T09:29:00Z</time>
      </trkpt>
      <trkpt lat="41.8100630" lon="-8.8596170">
        <ele>4.4</ele>
        <time>2021-05-18T09:29:01Z</time>
      </trkpt>
      <trkpt lat="41.8100750" lon="-8.8596190">
        <ele>4.4</ele>
        <time>2021-05-18T09:29:02Z</time>
      </trkpt>
      <trkpt lat="41.8100810" lon="-8.8596230">
        <ele>4.4</ele>
        <time>2021-05-18T09:29:03Z</time>
      </trkpt>
      <trkpt lat="41.8100890" lon="-8.8596290">
        <ele>4.4</ele>
        <time>2021-05-18T09:29:04Z</time>
      </trkpt>
      <trkpt lat="41.8101020" lon="-8.8596360">
        <ele>4.4</ele>
        <time>2021-05-18T09:29:05Z</time>
      </trkpt>
      <trkpt lat="41.8101110" lon="-8.8596380">
        <ele>4.4</ele>
        <time>2021-05-18T09:29:06Z</time>
      </trkpt>
      <trkpt lat="41.8101170" lon="-8.8596430">
        <ele>4.4</ele>
        <time>2021-05-18T09:29:07Z</time>
      </trkpt>
      <trkpt lat="41.8101280" lon="-8.8596490">
        <ele>4.4</ele>
        <time>2021-05-18T09:29:08Z</time>
      </trkpt>
      <trkpt lat="41.8101370" lon="-8.8596540">
        <ele>4.4</ele>
        <time>2021-05-18T09:29:09Z</time>
      </trkpt>
      <trkpt lat="41.8101540" lon="-8.8596680">
        <ele>4.4</ele>
        <time>2021-05-18T09:29:10Z</time>
      </trkpt>
      <trkpt lat="41.8101600" lon="-8.8596730">
        <ele>4.4</ele>
        <time>2021-05-18T09:29:11Z</time>
      </trkpt>
      <trkpt lat="41.8101650" lon="-8.8596790">
        <ele>4.4</ele>
        <time>2021-05-18T09:29:12Z</time>
      </trkpt>
      <trkpt lat="41.8101710" lon="-8.8596850">
        <ele>4.4</ele>
        <time>2021-05-18T09:29:13Z</time>
      </trkpt>
      <trkpt lat="41.8101820" lon="-8.8596910">
        <ele>4.4</ele>
        <time>2021-05-18T09:29:14Z</time>
      </trkpt>
      <trkpt lat="41.8101820" lon="-8.8596980">
        <ele>4.4</ele>
        <time>2021-05-18T09:29:15Z</time>
      </trkpt>
      <trkpt lat="41.8101950" lon="-8.8597090">
        <ele>4.4</ele>
        <time>2021-05-18T09:29:16Z</time>
      </trkpt>
      <trkpt lat="41.8102050" lon="-8.8597200">
        <ele>4.4</ele>
        <time>2021-05-18T09:29:17Z</time>
      </trkpt>
      <trkpt lat="41.8102120" lon="-8.8597290">
        <ele>4.4</ele>
        <time>2021-05-18T09:29:18Z</time>
      </trkpt>
      <trkpt lat="41.8102230" lon="-8.8597340">
        <ele>4.5</ele>
        <time>2021-05-18T09:29:19Z</time>
      </trkpt>
      <trkpt lat="41.8102370" lon="-8.8597490">
        <ele>4.5</ele>
        <time>2021-05-18T09:29:20Z</time>
      </trkpt>
      <trkpt lat="41.8102500" lon="-8.8597620">
        <ele>4.5</ele>
        <time>2021-05-18T09:29:21Z</time>
      </trkpt>
      <trkpt lat="41.8102630" lon="-8.8597710">
        <ele>4.5</ele>
        <time>2021-05-18T09:29:22Z</time>
      </trkpt>
      <trkpt lat="41.8102700" lon="-8.8597760">
        <ele>4.5</ele>
        <time>2021-05-18T09:29:23Z</time>
      </trkpt>
      <trkpt lat="41.8102780" lon="-8.8597790">
        <ele>4.5</ele>
        <time>2021-05-18T09:29:24Z</time>
      </trkpt>
      <trkpt lat="41.8102930" lon="-8.8597870">
        <ele>4.5</ele>
        <time>2021-05-18T09:29:25Z</time>
      </trkpt>
      <trkpt lat="41.8103040" lon="-8.8597920">
        <ele>4.5</ele>
        <time>2021-05-18T09:29:26Z</time>
      </trkpt>
      <trkpt lat="41.8103160" lon="-8.8598060">
        <ele>4.5</ele>
        <time>2021-05-18T09:29:27Z</time>
      </trkpt>
      <trkpt lat="41.8103300" lon="-8.8598150">
        <ele>4.5</ele>
        <time>2021-05-18T09:29:28Z</time>
      </trkpt>
      <trkpt lat="41.8103440" lon="-8.8598240">
        <ele>4.5</ele>
        <time>2021-05-18T09:29:29Z</time>
      </trkpt>
      <trkpt lat="41.8103570" lon="-8.8598320">
        <ele>4.5</ele>
        <time>2021-05-18T09:29:30Z</time>
      </trkpt>
      <trkpt lat="41.8103730" lon="-8.8598470">
        <ele>4.5</ele>
        <time>2021-05-18T09:29:31Z</time>
      </trkpt>
      <trkpt lat="41.8103810" lon="-8.8598530">
        <ele>4.5</ele>
        <time>2021-05-18T09:29:32Z</time>
      </trkpt>
      <trkpt lat="41.8103890" lon="-8.8598600">
        <ele>4.5</ele>
        <time>2021-05-18T09:29:33Z</time>
      </trkpt>
      <trkpt lat="41.8104050" lon="-8.8598700">
        <ele>4.5</ele>
        <time>2021-05-18T09:29:34Z</time>
      </trkpt>
      <trkpt lat="41.8104130" lon="-8.8598770">
        <ele>4.6</ele>
        <time>2021-05-18T09:29:35Z</time>
      </trkpt>
      <trkpt lat="41.8104340" lon="-8.8598900">
        <ele>4.6</ele>
        <time>2021-05-18T09:29:36Z</time>
      </trkpt>
      <trkpt lat="41.8104420" lon="-8.8598940">
        <ele>4.6</ele>
        <time>2021-05-18T09:29:37Z</time>
      </trkpt>
      <trkpt lat="41.8104510" lon="-8.8598980">
        <ele>4.6</ele>
        <time>2021-05-18T09:29:38Z</time>
      </trkpt>
      <trkpt lat="41.8104600" lon="-8.8599040">
        <ele>4.6</ele>
        <time>2021-05-18T09:29:39Z</time>
      </trkpt>
      <trkpt lat="41.8104750" lon="-8.8599180">
        <ele>4.6</ele>
        <time>2021-05-18T09:29:40Z</time>
      </trkpt>
      <trkpt lat="41.8104950" lon="-8.8599300">
        <ele>4.6</ele>
        <time>2021-05-18T09:29:41Z</time>
      </trkpt>
      <trkpt lat="41.8105020" lon="-8.8599340">
        <ele>4.6</ele>
        <time>2021-05-18T09:29:42Z</time>
      </trkpt>
      <trkpt lat="41.8105090" lon="-8.8599390">
        <ele>4.6</ele>
        <time>2021-05-18T09:29:43Z</time>
      </trkpt>
      <trkpt lat="41.8105150" lon="-8.8599480">
        <ele>4.6</ele>
        <time>2021-05-18T09:29:44Z</time>
      </trkpt>
      <trkpt lat="41.8105270" lon="-8.8599540">
        <ele>4.6</ele>
        <time>2021-05-18T09:29:45Z</time>
      </trkpt>
      <trkpt lat="41.8105400" lon="-8.8599580">
        <ele>4.6</ele>
        <time>2021-05-18T09:29:46Z</time>
      </trkpt>
      <trkpt lat="41.8105550" lon="-8.8599690">
        <ele>4.7</ele>
        <time>2021-05-18T09:29:47Z</time>
      </trkpt>
      <trkpt lat="41.8105650" lon="-8.8599800">
        <ele>4.7</ele>
        <time>2021-05-18T09:29:48Z</time>
      </trkpt>
      <trkpt lat="41.8105780" lon="-8.8599840">
        <ele>4.7</ele>
        <time>2021-05-18T09:29:49Z</time>
      </trkpt>
      <trkpt lat="41.8105910" lon="-8.8599910">
        <ele>4.7</ele>
        <time>2021-05-18T09:29:50Z</time>
      </trkpt>
      <trkpt lat="41.8106040" lon="-8.8599940">
        <ele>4.7</ele>
        <time>2021-05-18T09:29:51Z</time>
      </trkpt>
      <trkpt lat="41.8106170" lon="-8.8600030">
        <ele>4.7</ele>
        <time>2021-05-18T09:29:52Z</time>
      </trkpt>
      <trkpt lat="41.8106300" lon="-8.8600140">
        <ele>4.7</ele>
        <time>2021-05-18T09:29:53Z</time>
      </trkpt>
      <trkpt lat="41.8106410" lon="-8.8600210">
        <ele>4.7</ele>
        <time>2021-05-18T09:29:54Z</time>
      </trkpt>
      <trkpt lat="41.8106550" lon="-8.8600320">
        <ele>4.7</ele>
        <time>2021-05-18T09:29:55Z</time>
      </trkpt>
      <trkpt lat="41.8106700" lon="-8.8600400">
        <ele>4.7</ele>
        <time>2021-05-18T09:29:56Z</time>
      </trkpt>
      <trkpt lat="41.8106920" lon="-8.8600500">
        <ele>4.7</ele>
        <time>2021-05-18T09:29:57Z</time>
      </trkpt>
      <trkpt lat="41.8107030" lon="-8.8600560">
        <ele>4.7</ele>
        <time>2021-05-18T09:29:58Z</time>
      </trkpt>
      <trkpt lat="41.8107130" lon="-8.8600620">
        <ele>4.7</ele>
        <time>2021-05-18T09:29:59Z</time>
      </trkpt>
      <trkpt lat="41.8107270" lon="-8.8600750">
        <ele>4.7</ele>
        <time>2021-05-18T09:30:00Z</time>
      </trkpt>
      <trkpt lat="41.8107410" lon="-8.8600870">
        <ele>4.7</ele>
        <time>2021-05-18T09:30:01Z</time>
      </trkpt>
      <trkpt lat="41.8107580" lon="-8.8600920">
        <ele>4.8</ele>
        <time>2021-05-18T09:30:02Z</time>
      </trkpt>
      <trkpt lat="41.8107710" lon="-8.8601060">
        <ele>4.8</ele>
        <time>2021-05-18T09:30:03Z</time>
      </trkpt>
      <trkpt lat="41.8107860" lon="-8.8601140">
        <ele>4.8</ele>
        <time>2021-05-18T09:30:04Z</time>
      </trkpt>
      <trkpt lat="41.8108020" lon="-8.8601200">
        <ele>4.8</ele>
        <time>2021-05-18T09:30:05Z</time>
      </trkpt>
      <trkpt lat="41.8108150" lon="-8.8601350">
        <ele>4.8</ele>
        <time>2021-05-18T09:30:06Z</time>
      </trkpt>
      <trkpt lat="41.8108280" lon="-8.8601440">
        <ele>4.8</ele>
        <time>2021-05-18T09:30:07Z</time>
      </trkpt>
      <trkpt lat="41.8108370" lon="-8.8601590">
        <ele>4.8</ele>
        <time>2021-05-18T09:30:08Z</time>
      </trkpt>
      <trkpt lat="41.8108540" lon="-8.8601670">
        <ele>4.8</ele>
        <time>2021-05-18T09:30:09Z</time>
      </trkpt>
      <trkpt lat="41.8108710" lon="-8.8601710">
        <ele>4.8</ele>
        <time>2021-05-18T09:30:10Z</time>
      </trkpt>
      <trkpt lat="41.8108820" lon="-8.8601810">
        <ele>4.8</ele>
        <time>2021-05-18T09:30:11Z</time>
      </trkpt>
      <trkpt lat="41.8108950" lon="-8.8601880">
        <ele>4.8</ele>
        <time>2021-05-18T09:30:12Z</time>
      </trkpt>
      <trkpt lat="41.8109080" lon="-8.8601970">
        <ele>4.8</ele>
        <time>2021-05-18T09:30:13Z</time>
      </trkpt>
      <trkpt lat="41.8109190" lon="-8.8602050">
        <ele>4.8</ele>
        <time>2021-05-18T09:30:14Z</time>
      </trkpt>
      <trkpt lat="41.8109320" lon="-8.8602160">
        <ele>4.8</ele>
        <time>2021-05-18T09:30:15Z</time>
      </trkpt>
      <trkpt lat="41.8109430" lon="-8.8602320">
        <ele>4.9</ele>
        <time>2021-05-18T09:30:16Z</time>
      </trkpt>
      <trkpt lat="41.8109560" lon="-8.8602430">
        <ele>4.9</ele>
        <time>2021-05-18T09:30:17Z</time>
      </trkpt>
      <trkpt lat="41.8109720" lon="-8.8602470">
        <ele>4.9</ele>
        <time>2021-05-18T09:30:18Z</time>
      </trkpt>
      <trkpt lat="41.8109830" lon="-8.8602600">
        <ele>4.9</ele>
        <time>2021-05-18T09:30:19Z</time>
      </trkpt>
      <trkpt lat="41.8109950" lon="-8.8602680">
        <ele>4.9</ele>
        <time>2021-05-18T09:30:20Z</time>
      </trkpt>
      <trkpt lat="41.8110080" lon="-8.8602760">
        <ele>4.9</ele>
        <time>2021-05-18T09:30:21Z</time>
      </trkpt>
      <trkpt lat="41.8110220" lon="-8.8602830">
        <ele>4.9</ele>
        <time>2021-05-18T09:30:22Z</time>
      </trkpt>
      <trkpt lat="41.8110330" lon="-8.8602930">
        <ele>4.9</ele>
        <time>2021-05-18T09:30:23Z</time>
      </trkpt>
      <trkpt lat="41.8110470" lon="-8.8603030">
        <ele>5.0</ele>
        <time>2021-05-18T09:30:24Z</time>
      </trkpt>
      <trkpt lat="41.8110610" lon="-8.8603090">
        <ele>5.0</ele>
        <time>2021-05-18T09:30:25Z</time>
      </trkpt>
      <trkpt lat="41.8110730" lon="-8.8603180">
        <ele>5.0</ele>
        <time>2021-05-18T09:30:26Z</time>
      </trkpt>
      <trkpt lat="41.8110840" lon="-8.8603300">
        <ele>5.0</ele>
        <time>2021-05-18T09:30:27Z</time>
      </trkpt>
      <trkpt lat="41.8111000" lon="-8.8603340">
        <ele>5.0</ele>
        <time>2021-05-18T09:30:28Z</time>
      </trkpt>
      <trkpt lat="41.8111140" lon="-8.8603400">
        <ele>5.0</ele>
        <time>2021-05-18T09:30:29Z</time>
      </trkpt>
      <trkpt lat="41.8111290" lon="-8.8603580">
        <ele>5.0</ele>
        <time>2021-05-18T09:30:30Z</time>
      </trkpt>
      <trkpt lat="41.8111380" lon="-8.8603610">
        <ele>5.0</ele>
        <time>2021-05-18T09:30:31Z</time>
      </trkpt>
      <trkpt lat="41.8111460" lon="-8.8603650">
        <ele>5.0</ele>
        <time>2021-05-18T09:30:32Z</time>
      </trkpt>
      <trkpt lat="41.8111580" lon="-8.8603710">
        <ele>5.0</ele>
        <time>2021-05-18T09:30:33Z</time>
      </trkpt>
      <trkpt lat="41.8111710" lon="-8.8603810">
        <ele>5.1</ele>
        <time>2021-05-18T09:30:34Z</time>
      </trkpt>
      <trkpt lat="41.8111830" lon="-8.8603910">
        <ele>5.1</ele>
        <time>2021-05-18T09:30:35Z</time>
      </trkpt>
      <trkpt lat="41.8111950" lon="-8.8603980">
        <ele>5.1</ele>
        <time>2021-05-18T09:30:36Z</time>
      </trkpt>
      <trkpt lat="41.8112110" lon="-8.8604050">
        <ele>5.1</ele>
        <time>2021-05-18T09:30:37Z</time>
      </trkpt>
      <trkpt lat="41.8112230" lon="-8.8604170">
        <ele>5.1</ele>
        <time>2021-05-18T09:30:38Z</time>
      </trkpt>
      <trkpt lat="41.8112350" lon="-8.8604270">
        <ele>5.1</ele>
        <time>2021-05-18T09:30:39Z</time>
      </trkpt>
      <trkpt lat="41.8112470" lon="-8.8604370">
        <ele>5.1</ele>
        <time>2021-05-18T09:30:40Z</time>
      </trkpt>
      <trkpt lat="41.8112560" lon="-8.8604480">
        <ele>5.1</ele>
        <time>2021-05-18T09:30:41Z</time>
      </trkpt>
      <trkpt lat="41.8112680" lon="-8.8604580">
        <ele>5.1</ele>
        <time>2021-05-18T09:30:42Z</time>
      </trkpt>
      <trkpt lat="41.8112780" lon="-8.8604570">
        <ele>5.2</ele>
        <time>2021-05-18T09:30:43Z</time>
      </trkpt>
      <trkpt lat="41.8112870" lon="-8.8604630">
        <ele>5.2</ele>
        <time>2021-05-18T09:30:44Z</time>
      </trkpt>
      <trkpt lat="41.8112890" lon="-8.8604690">
        <ele>5.2</ele>
        <time>2021-05-18T09:30:45Z</time>
      </trkpt>
      <trkpt lat="41.8113020" lon="-8.8604740">
        <ele>5.2</ele>
        <time>2021-05-18T09:30:46Z</time>
      </trkpt>
      <trkpt lat="41.8113220" lon="-8.8604860">
        <ele>5.2</ele>
        <time>2021-05-18T09:30:47Z</time>
      </trkpt>
      <trkpt lat="41.8113300" lon="-8.8604910">
        <ele>5.2</ele>
        <time>2021-05-18T09:30:48Z</time>
      </trkpt>
      <trkpt lat="41.8113390" lon="-8.8604960">
        <ele>5.2</ele>
        <time>2021-05-18T09:30:49Z</time>
      </trkpt>
      <trkpt lat="41.8113430" lon="-8.8605050">
        <ele>5.2</ele>
        <time>2021-05-18T09:30:50Z</time>
      </trkpt>
      <trkpt lat="41.8113490" lon="-8.8605180">
        <ele>5.2</ele>
        <time>2021-05-18T09:30:51Z</time>
      </trkpt>
      <trkpt lat="41.8113590" lon="-8.8605300">
        <ele>5.2</ele>
        <time>2021-05-18T09:30:52Z</time>
      </trkpt>
      <trkpt lat="41.8113680" lon="-8.8605520">
        <ele>5.3</ele>
        <time>2021-05-18T09:30:53Z</time>
      </trkpt>
      <trkpt lat="41.8113730" lon="-8.8605640">
        <ele>5.3</ele>
        <time>2021-05-18T09:30:54Z</time>
      </trkpt>
      <trkpt lat="41.8113780" lon="-8.8605760">
        <ele>5.3</ele>
        <time>2021-05-18T09:30:55Z</time>
      </trkpt>
      <trkpt lat="41.8113890" lon="-8.8606010">
        <ele>5.3</ele>
        <time>2021-05-18T09:30:56Z</time>
      </trkpt>
      <trkpt lat="41.8113960" lon="-8.8606090">
        <ele>5.3</ele>
        <time>2021-05-18T09:30:57Z</time>
      </trkpt>
      <trkpt lat="41.8114020" lon="-8.8606180">
        <ele>5.3</ele>
        <time>2021-05-18T09:30:58Z</time>
      </trkpt>
      <trkpt lat="41.8114180" lon="-8.8606340">
        <ele>5.3</ele>
        <time>2021-05-18T09:30:59Z</time>
      </trkpt>
      <trkpt lat="41.8114280" lon="-8.8606420">
        <ele>5.3</ele>
        <time>2021-05-18T09:31:00Z</time>
      </trkpt>
      <trkpt lat="41.8114370" lon="-8.8606500">
        <ele>5.3</ele>
        <time>2021-05-18T09:31:01Z</time>
      </trkpt>
      <trkpt lat="41.8114500" lon="-8.8606620">
        <ele>5.3</ele>
        <time>2021-05-18T09:31:02Z</time>
      </trkpt>
      <trkpt lat="41.8114560" lon="-8.8606680">
        <ele>5.3</ele>
        <time>2021-05-18T09:31:03Z</time>
      </trkpt>
      <trkpt lat="41.8114570" lon="-8.8606790">
        <ele>5.3</ele>
        <time>2021-05-18T09:31:04Z</time>
      </trkpt>
      <trkpt lat="41.8114710" lon="-8.8606970">
        <ele>5.3</ele>
        <time>2021-05-18T09:31:05Z</time>
      </trkpt>
      <trkpt lat="41.8114770" lon="-8.8607060">
        <ele>5.4</ele>
        <time>2021-05-18T09:31:06Z</time>
      </trkpt>
      <trkpt lat="41.8114830" lon="-8.8607160">
        <ele>5.4</ele>
        <time>2021-05-18T09:31:07Z</time>
      </trkpt>
      <trkpt lat="41.8114890" lon="-8.8607210">
        <ele>5.4</ele>
        <time>2021-05-18T09:31:08Z</time>
      </trkpt>
      <trkpt lat="41.8114970" lon="-8.8607340">
        <ele>5.4</ele>
        <time>2021-05-18T09:31:09Z</time>
      </trkpt>
      <trkpt lat="41.8115040" lon="-8.8607390">
        <ele>5.4</ele>
        <time>2021-05-18T09:31:10Z</time>
      </trkpt>
      <trkpt lat="41.8115080" lon="-8.8607300">
        <ele>5.4</ele>
        <time>2021-05-18T09:31:11Z</time>
      </trkpt>
      <trkpt lat="41.8115100" lon="-8.8607270">
        <ele>5.4</ele>
        <time>2021-05-18T09:31:12Z</time>
      </trkpt>
      <trkpt lat="41.8115110" lon="-8.8607260">
        <ele>5.4</ele>
        <time>2021-05-18T09:31:13Z</time>
      </trkpt>
      <trkpt lat="41.8115080" lon="-8.8607030">
        <ele>5.4</ele>
        <time>2021-05-18T09:31:14Z</time>
      </trkpt>
      <trkpt lat="41.8115020" lon="-8.8607000">
        <ele>5.4</ele>
        <time>2021-05-18T09:31:15Z</time>
      </trkpt>
      <trkpt lat="41.8114920" lon="-8.8606920">
        <ele>5.4</ele>
        <time>2021-05-18T09:31:16Z</time>
      </trkpt>
      <trkpt lat="41.8114860" lon="-8.8606840">
        <ele>5.4</ele>
        <time>2021-05-18T09:31:17Z</time>
      </trkpt>
      <trkpt lat="41.8114790" lon="-8.8606830">
        <ele>5.4</ele>
        <time>2021-05-18T09:31:18Z</time>
      </trkpt>
      <trkpt lat="41.8114730" lon="-8.8606910">
        <ele>5.4</ele>
        <time>2021-05-18T09:31:19Z</time>
      </trkpt>
      <trkpt lat="41.8114660" lon="-8.8606910">
        <ele>5.4</ele>
        <time>2021-05-18T09:31:20Z</time>
      </trkpt>
      <trkpt lat="41.8114540" lon="-8.8606860">
        <ele>5.4</ele>
        <time>2021-05-18T09:31:21Z</time>
      </trkpt>
      <trkpt lat="41.8114600" lon="-8.8606890">
        <ele>5.4</ele>
        <time>2021-05-18T09:31:22Z</time>
      </trkpt>
      <trkpt lat="41.8114580" lon="-8.8606910">
        <ele>5.4</ele>
        <time>2021-05-18T09:31:23Z</time>
      </trkpt>
      <trkpt lat="41.8114590" lon="-8.8606930">
        <ele>5.4</ele>
        <time>2021-05-18T09:31:24Z</time>
      </trkpt>
      <trkpt lat="41.8114600" lon="-8.8606890">
        <ele>5.4</ele>
        <time>2021-05-18T09:31:25Z</time>
      </trkpt>
      <trkpt lat="41.8114590" lon="-8.8606840">
        <ele>5.4</ele>
        <time>2021-05-18T09:31:26Z</time>
      </trkpt>
      <trkpt lat="41.8114600" lon="-8.8606830">
        <ele>5.4</ele>
        <time>2021-05-18T09:31:27Z</time>
      </trkpt>
      <trkpt lat="41.8114590" lon="-8.8606800">
        <ele>5.4</ele>
        <time>2021-05-18T09:31:28Z</time>
      </trkpt>
      <trkpt lat="41.8114590" lon="-8.8606780">
        <ele>5.4</ele>
        <time>2021-05-18T09:31:29Z</time>
      </trkpt>
      <trkpt lat="41.8114610" lon="-8.8606760">
        <ele>5.4</ele>
        <time>2021-05-18T09:31:30Z</time>
      </trkpt>
      <trkpt lat="41.8114620" lon="-8.8606770">
        <ele>5.4</ele>
        <time>2021-05-18T09:31:31Z</time>
      </trkpt>
      <trkpt lat="41.8114640" lon="-8.8606760">
        <ele>5.4</ele>
        <time>2021-05-18T09:31:32Z</time>
      </trkpt>
      <trkpt lat="41.8114810" lon="-8.8606840">
        <ele>5.4</ele>
        <time>2021-05-18T09:31:33Z</time>
      </trkpt>
      <trkpt lat="41.8114930" lon="-8.8606850">
        <ele>5.4</ele>
        <time>2021-05-18T09:31:34Z</time>
      </trkpt>
      <trkpt lat="41.8115090" lon="-8.8606920">
        <ele>5.4</ele>
        <time>2021-05-18T09:31:35Z</time>
      </trkpt>
      <trkpt lat="41.8115050" lon="-8.8607020">
        <ele>5.4</ele>
        <time>2021-05-18T09:31:36Z</time>
      </trkpt>
      <trkpt lat="41.8115160" lon="-8.8607100">
        <ele>5.4</ele>
        <time>2021-05-18T09:31:37Z</time>
      </trkpt>
      <trkpt lat="41.8115300" lon="-8.8607230">
        <ele>5.4</ele>
        <time>2021-05-18T09:31:38Z</time>
      </trkpt>
      <trkpt lat="41.8115400" lon="-8.8607460">
        <ele>5.4</ele>
        <time>2021-05-18T09:31:39Z</time>
      </trkpt>
      <trkpt lat="41.8115460" lon="-8.8607530">
        <ele>5.4</ele>
        <time>2021-05-18T09:31:40Z</time>
      </trkpt>
      <trkpt lat="41.8115520" lon="-8.8607610">
        <ele>5.4</ele>
        <time>2021-05-18T09:31:41Z</time>
      </trkpt>
      <trkpt lat="41.8115550" lon="-8.8607670">
        <ele>5.4</ele>
        <time>2021-05-18T09:31:42Z</time>
      </trkpt>
      <trkpt lat="41.8115670" lon="-8.8607750">
        <ele>5.4</ele>
        <time>2021-05-18T09:31:43Z</time>
      </trkpt>
      <trkpt lat="41.8115800" lon="-8.8607880">
        <ele>5.4</ele>
        <time>2021-05-18T09:31:44Z</time>
      </trkpt>
      <trkpt lat="41.8115900" lon="-8.8608050">
        <ele>5.4</ele>
        <time>2021-05-18T09:31:45Z</time>
      </trkpt>
      <trkpt lat="41.8115920" lon="-8.8608140">
        <ele>5.4</ele>
        <time>2021-05-18T09:31:46Z</time>
      </trkpt>
      <trkpt lat="41.8115950" lon="-8.8608240">
        <ele>5.4</ele>
        <time>2021-05-18T09:31:47Z</time>
      </trkpt>
      <trkpt lat="41.8115970" lon="-8.8608330">
        <ele>5.4</ele>
        <time>2021-05-18T09:31:48Z</time>
      </trkpt>
      <trkpt lat="41.8116040" lon="-8.8608480">
        <ele>5.4</ele>
        <time>2021-05-18T09:31:49Z</time>
      </trkpt>
      <trkpt lat="41.8116160" lon="-8.8608660">
        <ele>5.5</ele>
        <time>2021-05-18T09:31:50Z</time>
      </trkpt>
      <trkpt lat="41.8116320" lon="-8.8608910">
        <ele>5.5</ele>
        <time>2021-05-18T09:31:51Z</time>
      </trkpt>
      <trkpt lat="41.8116360" lon="-8.8609040">
        <ele>5.5</ele>
        <time>2021-05-18T09:31:52Z</time>
      </trkpt>
      <trkpt lat="41.8116400" lon="-8.8609180">
        <ele>5.5</ele>
        <time>2021-05-18T09:31:53Z</time>
      </trkpt>
      <trkpt lat="41.8116550" lon="-8.8609370">
        <ele>5.5</ele>
        <time>2021-05-18T09:31:54Z</time>
      </trkpt>
      <trkpt lat="41.8116620" lon="-8.8609460">
        <ele>5.5</ele>
        <time>2021-05-18T09:31:55Z</time>
      </trkpt>
      <trkpt lat="41.8116680" lon="-8.8609560">
        <ele>5.5</ele>
        <time>2021-05-18T09:31:56Z</time>
      </trkpt>
      <trkpt lat="41.8116900" lon="-8.8609790">
        <ele>5.5</ele>
        <time>2021-05-18T09:31:57Z</time>
      </trkpt>
      <trkpt lat="41.8116970" lon="-8.8609880">
        <ele>5.5</ele>
        <time>2021-05-18T09:31:58Z</time>
      </trkpt>
      <trkpt lat="41.8117070" lon="-8.8610060">
        <ele>5.5</ele>
        <time>2021-05-18T09:31:59Z</time>
      </trkpt>
      <trkpt lat="41.8117190" lon="-8.8610240">
        <ele>5.5</ele>
        <time>2021-05-18T09:32:00Z</time>
      </trkpt>
      <trkpt lat="41.8117290" lon="-8.8610420">
        <ele>5.5</ele>
        <time>2021-05-18T09:32:01Z</time>
      </trkpt>
      <trkpt lat="41.8117410" lon="-8.8610570">
        <ele>5.5</ele>
        <time>2021-05-18T09:32:02Z</time>
      </trkpt>
      <trkpt lat="41.8117530" lon="-8.8610680">
        <ele>5.5</ele>
        <time>2021-05-18T09:32:03Z</time>
      </trkpt>
      <trkpt lat="41.8117640" lon="-8.8610840">
        <ele>5.5</ele>
        <time>2021-05-18T09:32:04Z</time>
      </trkpt>
      <trkpt lat="41.8117740" lon="-8.8611030">
        <ele>5.5</ele>
        <time>2021-05-18T09:32:05Z</time>
      </trkpt>
      <trkpt lat="41.8117830" lon="-8.8611240">
        <ele>5.5</ele>
        <time>2021-05-18T09:32:06Z</time>
      </trkpt>
      <trkpt lat="41.8117930" lon="-8.8611360">
        <ele>5.5</ele>
        <time>2021-05-18T09:32:07Z</time>
      </trkpt>
      <trkpt lat="41.8118040" lon="-8.8611470">
        <ele>5.6</ele>
        <time>2021-05-18T09:32:08Z</time>
      </trkpt>
      <trkpt lat="41.8118150" lon="-8.8611590">
        <ele>5.6</ele>
        <time>2021-05-18T09:32:09Z</time>
      </trkpt>
      <trkpt lat="41.8118280" lon="-8.8611710">
        <ele>5.6</ele>
        <time>2021-05-18T09:32:10Z</time>
      </trkpt>
      <trkpt lat="41.8118360" lon="-8.8611870">
        <ele>5.6</ele>
        <time>2021-05-18T09:32:11Z</time>
      </trkpt>
      <trkpt lat="41.8118430" lon="-8.8612030">
        <ele>5.6</ele>
        <time>2021-05-18T09:32:12Z</time>
      </trkpt>
      <trkpt lat="41.8118430" lon="-8.8612200">
        <ele>5.6</ele>
        <time>2021-05-18T09:32:13Z</time>
      </trkpt>
      <trkpt lat="41.8118410" lon="-8.8612330">
        <ele>5.6</ele>
        <time>2021-05-18T09:32:14Z</time>
      </trkpt>
      <trkpt lat="41.8118380" lon="-8.8612480">
        <ele>5.6</ele>
        <time>2021-05-18T09:32:15Z</time>
      </trkpt>
      <trkpt lat="41.8118530" lon="-8.8612530">
        <ele>5.6</ele>
        <time>2021-05-18T09:32:16Z</time>
      </trkpt>
      <trkpt lat="41.8118590" lon="-8.8612590">
        <ele>5.6</ele>
        <time>2021-05-18T09:32:17Z</time>
      </trkpt>
      <trkpt lat="41.8118660" lon="-8.8612650">
        <ele>5.6</ele>
        <time>2021-05-18T09:32:18Z</time>
      </trkpt>
      <trkpt lat="41.8118720" lon="-8.8612710">
        <ele>5.6</ele>
        <time>2021-05-18T09:32:19Z</time>
      </trkpt>
      <trkpt lat="41.8118790" lon="-8.8612850">
        <ele>5.6</ele>
        <time>2021-05-18T09:32:20Z</time>
      </trkpt>
      <trkpt lat="41.8118860" lon="-8.8612980">
        <ele>5.6</ele>
        <time>2021-05-18T09:32:21Z</time>
      </trkpt>
      <trkpt lat="41.8118940" lon="-8.8613080">
        <ele>5.6</ele>
        <time>2021-05-18T09:32:22Z</time>
      </trkpt>
      <trkpt lat="41.8118990" lon="-8.8613120">
        <ele>5.6</ele>
        <time>2021-05-18T09:32:23Z</time>
      </trkpt>
      <trkpt lat="41.8119070" lon="-8.8613280">
        <ele>5.6</ele>
        <time>2021-05-18T09:32:24Z</time>
      </trkpt>
      <trkpt lat="41.8119110" lon="-8.8613400">
        <ele>5.6</ele>
        <time>2021-05-18T09:32:25Z</time>
      </trkpt>
      <trkpt lat="41.8119150" lon="-8.8613570">
        <ele>5.6</ele>
        <time>2021-05-18T09:32:26Z</time>
      </trkpt>
      <trkpt lat="41.8119180" lon="-8.8613690">
        <ele>5.6</ele>
        <time>2021-05-18T09:32:27Z</time>
      </trkpt>
      <trkpt lat="41.8119250" lon="-8.8613840">
        <ele>5.6</ele>
        <time>2021-05-18T09:32:28Z</time>
      </trkpt>
      <trkpt lat="41.8119330" lon="-8.8613880">
        <ele>5.6</ele>
        <time>2021-05-18T09:32:29Z</time>
      </trkpt>
      <trkpt lat="41.8119400" lon="-8.8614010">
        <ele>5.6</ele>
        <time>2021-05-18T09:32:30Z</time>
      </trkpt>
      <trkpt lat="41.8119460" lon="-8.8614130">
        <ele>5.6</ele>
        <time>2021-05-18T09:32:31Z</time>
      </trkpt>
      <trkpt lat="41.8119470" lon="-8.8614360">
        <ele>5.6</ele>
        <time>2021-05-18T09:32:32Z</time>
      </trkpt>
      <trkpt lat="41.8119590" lon="-8.8614470">
        <ele>5.6</ele>
        <time>2021-05-18T09:32:33Z</time>
      </trkpt>
      <trkpt lat="41.8119590" lon="-8.8614790">
        <ele>5.6</ele>
        <time>2021-05-18T09:32:34Z</time>
      </trkpt>
      <trkpt lat="41.8119580" lon="-8.8614920">
        <ele>5.6</ele>
        <time>2021-05-18T09:32:35Z</time>
      </trkpt>
      <trkpt lat="41.8119580" lon="-8.8615040">
        <ele>5.6</ele>
        <time>2021-05-18T09:32:36Z</time>
      </trkpt>
      <trkpt lat="41.8119570" lon="-8.8615140">
        <ele>5.6</ele>
        <time>2021-05-18T09:32:37Z</time>
      </trkpt>
      <trkpt lat="41.8119470" lon="-8.8615390">
        <ele>5.6</ele>
        <time>2021-05-18T09:32:38Z</time>
      </trkpt>
      <trkpt lat="41.8119460" lon="-8.8615480">
        <ele>5.6</ele>
        <time>2021-05-18T09:32:39Z</time>
      </trkpt>
      <trkpt lat="41.8119450" lon="-8.8615690">
        <ele>5.6</ele>
        <time>2021-05-18T09:32:40Z</time>
      </trkpt>
      <trkpt lat="41.8119400" lon="-8.8615780">
        <ele>5.6</ele>
        <time>2021-05-18T09:32:41Z</time>
      </trkpt>
      <trkpt lat="41.8119320" lon="-8.8616040">
        <ele>5.6</ele>
        <time>2021-05-18T09:32:42Z</time>
      </trkpt>
      <trkpt lat="41.8119340" lon="-8.8616150">
        <ele>5.6</ele>
        <time>2021-05-18T09:32:43Z</time>
      </trkpt>
      <trkpt lat="41.8119300" lon="-8.8616430">
        <ele>5.6</ele>
        <time>2021-05-18T09:32:44Z</time>
      </trkpt>
      <trkpt lat="41.8119280" lon="-8.8616630">
        <ele>5.6</ele>
        <time>2021-05-18T09:32:45Z</time>
      </trkpt>
      <trkpt lat="41.8119280" lon="-8.8616850">
        <ele>5.6</ele>
        <time>2021-05-18T09:32:46Z</time>
      </trkpt>
      <trkpt lat="41.8119290" lon="-8.8617050">
        <ele>5.6</ele>
        <time>2021-05-18T09:32:47Z</time>
      </trkpt>
      <trkpt lat="41.8119310" lon="-8.8617250">
        <ele>5.6</ele>
        <time>2021-05-18T09:32:48Z</time>
      </trkpt>
      <trkpt lat="41.8119310" lon="-8.8617430">
        <ele>5.6</ele>
        <time>2021-05-18T09:32:49Z</time>
      </trkpt>
      <trkpt lat="41.8119280" lon="-8.8617630">
        <ele>5.6</ele>
        <time>2021-05-18T09:32:50Z</time>
      </trkpt>
      <trkpt lat="41.8119320" lon="-8.8617820">
        <ele>5.6</ele>
        <time>2021-05-18T09:32:51Z</time>
      </trkpt>
      <trkpt lat="41.8119310" lon="-8.8618030">
        <ele>5.6</ele>
        <time>2021-05-18T09:32:52Z</time>
      </trkpt>
      <trkpt lat="41.8119370" lon="-8.8618230">
        <ele>5.6</ele>
        <time>2021-05-18T09:32:53Z</time>
      </trkpt>
      <trkpt lat="41.8119360" lon="-8.8618430">
        <ele>5.6</ele>
        <time>2021-05-18T09:32:54Z</time>
      </trkpt>
      <trkpt lat="41.8119370" lon="-8.8618620">
        <ele>5.6</ele>
        <time>2021-05-18T09:32:55Z</time>
      </trkpt>
      <trkpt lat="41.8119380" lon="-8.8618820">
        <ele>5.6</ele>
        <time>2021-05-18T09:32:56Z</time>
      </trkpt>
      <trkpt lat="41.8119400" lon="-8.8619020">
        <ele>5.6</ele>
        <time>2021-05-18T09:32:57Z</time>
      </trkpt>
      <trkpt lat="41.8119440" lon="-8.8619220">
        <ele>5.6</ele>
        <time>2021-05-18T09:32:58Z</time>
      </trkpt>
      <trkpt lat="41.8119460" lon="-8.8619400">
        <ele>5.6</ele>
        <time>2021-05-18T09:32:59Z</time>
      </trkpt>
      <trkpt lat="41.8119480" lon="-8.8619580">
        <ele>5.6</ele>
        <time>2021-05-18T09:33:00Z</time>
      </trkpt>
      <trkpt lat="41.8119520" lon="-8.8619750">
        <ele>5.6</ele>
        <time>2021-05-18T09:33:01Z</time>
      </trkpt>
      <trkpt lat="41.8119540" lon="-8.8619940">
        <ele>5.6</ele>
        <time>2021-05-18T09:33:02Z</time>
      </trkpt>
      <trkpt lat="41.8119570" lon="-8.8620140">
        <ele>5.6</ele>
        <time>2021-05-18T09:33:03Z</time>
      </trkpt>
      <trkpt lat="41.8119610" lon="-8.8620320">
        <ele>5.6</ele>
        <time>2021-05-18T09:33:04Z</time>
      </trkpt>
      <trkpt lat="41.8119670" lon="-8.8620500">
        <ele>5.6</ele>
        <time>2021-05-18T09:33:05Z</time>
      </trkpt>
      <trkpt lat="41.8119790" lon="-8.8620660">
        <ele>5.6</ele>
        <time>2021-05-18T09:33:06Z</time>
      </trkpt>
      <trkpt lat="41.8119790" lon="-8.8620860">
        <ele>5.6</ele>
        <time>2021-05-18T09:33:07Z</time>
      </trkpt>
      <trkpt lat="41.8119840" lon="-8.8621030">
        <ele>5.6</ele>
        <time>2021-05-18T09:33:08Z</time>
      </trkpt>
      <trkpt lat="41.8119840" lon="-8.8621220">
        <ele>5.6</ele>
        <time>2021-05-18T09:33:09Z</time>
      </trkpt>
      <trkpt lat="41.8119830" lon="-8.8621420">
        <ele>5.7</ele>
        <time>2021-05-18T09:33:10Z</time>
      </trkpt>
      <trkpt lat="41.8119840" lon="-8.8621610">
        <ele>5.7</ele>
        <time>2021-05-18T09:33:11Z</time>
      </trkpt>
      <trkpt lat="41.8119850" lon="-8.8621800">
        <ele>5.7</ele>
        <time>2021-05-18T09:33:12Z</time>
      </trkpt>
      <trkpt lat="41.8119850" lon="-8.8621980">
        <ele>5.7</ele>
        <time>2021-05-18T09:33:13Z</time>
      </trkpt>
      <trkpt lat="41.8119790" lon="-8.8622170">
        <ele>5.7</ele>
        <time>2021-05-18T09:33:14Z</time>
      </trkpt>
      <trkpt lat="41.8119790" lon="-8.8622370">
        <ele>5.7</ele>
        <time>2021-05-18T09:33:15Z</time>
      </trkpt>
      <trkpt lat="41.8119790" lon="-8.8622570">
        <ele>5.7</ele>
        <time>2021-05-18T09:33:16Z</time>
      </trkpt>
      <trkpt lat="41.8119770" lon="-8.8622760">
        <ele>5.7</ele>
        <time>2021-05-18T09:33:17Z</time>
      </trkpt>
      <trkpt lat="41.8119750" lon="-8.8622940">
        <ele>5.7</ele>
        <time>2021-05-18T09:33:18Z</time>
      </trkpt>
      <trkpt lat="41.8119740" lon="-8.8623130">
        <ele>5.7</ele>
        <time>2021-05-18T09:33:19Z</time>
      </trkpt>
      <trkpt lat="41.8119720" lon="-8.8623420">
        <ele>5.7</ele>
        <time>2021-05-18T09:33:20Z</time>
      </trkpt>
      <trkpt lat="41.8119680" lon="-8.8623520">
        <ele>5.7</ele>
        <time>2021-05-18T09:33:21Z</time>
      </trkpt>
      <trkpt lat="41.8119650" lon="-8.8623630">
        <ele>5.7</ele>
        <time>2021-05-18T09:33:22Z</time>
      </trkpt>
      <trkpt lat="41.8119580" lon="-8.8623900">
        <ele>5.7</ele>
        <time>2021-05-18T09:33:23Z</time>
      </trkpt>
      <trkpt lat="41.8119520" lon="-8.8624000">
        <ele>5.7</ele>
        <time>2021-05-18T09:33:24Z</time>
      </trkpt>
      <trkpt lat="41.8119470" lon="-8.8624100">
        <ele>5.7</ele>
        <time>2021-05-18T09:33:25Z</time>
      </trkpt>
      <trkpt lat="41.8119390" lon="-8.8624340">
        <ele>5.7</ele>
        <time>2021-05-18T09:33:26Z</time>
      </trkpt>
      <trkpt lat="41.8119360" lon="-8.8624460">
        <ele>5.7</ele>
        <time>2021-05-18T09:33:27Z</time>
      </trkpt>
      <trkpt lat="41.8119330" lon="-8.8624570">
        <ele>5.7</ele>
        <time>2021-05-18T09:33:28Z</time>
      </trkpt>
      <trkpt lat="41.8119290" lon="-8.8624870">
        <ele>5.7</ele>
        <time>2021-05-18T09:33:29Z</time>
      </trkpt>
      <trkpt lat="41.8119300" lon="-8.8624990">
        <ele>5.7</ele>
        <time>2021-05-18T09:33:30Z</time>
      </trkpt>
      <trkpt lat="41.8119300" lon="-8.8625120">
        <ele>5.7</ele>
        <time>2021-05-18T09:33:31Z</time>
      </trkpt>
      <trkpt lat="41.8119350" lon="-8.8625290">
        <ele>5.7</ele>
        <time>2021-05-18T09:33:32Z</time>
      </trkpt>
      <trkpt lat="41.8119410" lon="-8.8625460">
        <ele>5.7</ele>
        <time>2021-05-18T09:33:33Z</time>
      </trkpt>
      <trkpt lat="41.8119460" lon="-8.8625640">
        <ele>5.7</ele>
        <time>2021-05-18T09:33:34Z</time>
      </trkpt>
      <trkpt lat="41.8119570" lon="-8.8625790">
        <ele>5.7</ele>
        <time>2021-05-18T09:33:35Z</time>
      </trkpt>
      <trkpt lat="41.8119640" lon="-8.8625950">
        <ele>5.7</ele>
        <time>2021-05-18T09:33:36Z</time>
      </trkpt>
      <trkpt lat="41.8119700" lon="-8.8626110">
        <ele>5.7</ele>
        <time>2021-05-18T09:33:37Z</time>
      </trkpt>
      <trkpt lat="41.8119710" lon="-8.8626270">
        <ele>5.7</ele>
        <time>2021-05-18T09:33:38Z</time>
      </trkpt>
      <trkpt lat="41.8119750" lon="-8.8626480">
        <ele>5.7</ele>
        <time>2021-05-18T09:33:39Z</time>
      </trkpt>
      <trkpt lat="41.8119840" lon="-8.8626730">
        <ele>5.7</ele>
        <time>2021-05-18T09:33:40Z</time>
      </trkpt>
      <trkpt lat="41.8119900" lon="-8.8626830">
        <ele>5.7</ele>
        <time>2021-05-18T09:33:41Z</time>
      </trkpt>
      <trkpt lat="41.8119960" lon="-8.8626930">
        <ele>5.7</ele>
        <time>2021-05-18T09:33:42Z</time>
      </trkpt>
      <trkpt lat="41.8120060" lon="-8.8627090">
        <ele>5.7</ele>
        <time>2021-05-18T09:33:43Z</time>
      </trkpt>
      <trkpt lat="41.8120090" lon="-8.8627260">
        <ele>5.7</ele>
        <time>2021-05-18T09:33:44Z</time>
      </trkpt>
      <trkpt lat="41.8120170" lon="-8.8627540">
        <ele>5.7</ele>
        <time>2021-05-18T09:33:45Z</time>
      </trkpt>
      <trkpt lat="41.8120230" lon="-8.8627630">
        <ele>5.7</ele>
        <time>2021-05-18T09:33:46Z</time>
      </trkpt>
      <trkpt lat="41.8120300" lon="-8.8627730">
        <ele>5.7</ele>
        <time>2021-05-18T09:33:47Z</time>
      </trkpt>
      <trkpt lat="41.8120380" lon="-8.8627880">
        <ele>5.7</ele>
        <time>2021-05-18T09:33:48Z</time>
      </trkpt>
      <trkpt lat="41.8120460" lon="-8.8628030">
        <ele>5.7</ele>
        <time>2021-05-18T09:33:49Z</time>
      </trkpt>
      <trkpt lat="41.8120590" lon="-8.8628280">
        <ele>5.7</ele>
        <time>2021-05-18T09:33:50Z</time>
      </trkpt>
      <trkpt lat="41.8120630" lon="-8.8628370">
        <ele>5.7</ele>
        <time>2021-05-18T09:33:51Z</time>
      </trkpt>
      <trkpt lat="41.8120680" lon="-8.8628470">
        <ele>5.7</ele>
        <time>2021-05-18T09:33:52Z</time>
      </trkpt>
      <trkpt lat="41.8120800" lon="-8.8628580">
        <ele>5.7</ele>
        <time>2021-05-18T09:33:53Z</time>
      </trkpt>
      <trkpt lat="41.8120970" lon="-8.8628630">
        <ele>5.7</ele>
        <time>2021-05-18T09:33:54Z</time>
      </trkpt>
      <trkpt lat="41.8121080" lon="-8.8628710">
        <ele>5.7</ele>
        <time>2021-05-18T09:33:55Z</time>
      </trkpt>
      <trkpt lat="41.8121180" lon="-8.8628860">
        <ele>5.7</ele>
        <time>2021-05-18T09:33:56Z</time>
      </trkpt>
      <trkpt lat="41.8121280" lon="-8.8628960">
        <ele>5.7</ele>
        <time>2021-05-18T09:33:57Z</time>
      </trkpt>
      <trkpt lat="41.8121380" lon="-8.8629050">
        <ele>5.7</ele>
        <time>2021-05-18T09:33:58Z</time>
      </trkpt>
      <trkpt lat="41.8121490" lon="-8.8629110">
        <ele>5.7</ele>
        <time>2021-05-18T09:33:59Z</time>
      </trkpt>
      <trkpt lat="41.8121610" lon="-8.8629180">
        <ele>5.7</ele>
        <time>2021-05-18T09:34:00Z</time>
      </trkpt>
      <trkpt lat="41.8121690" lon="-8.8629310">
        <ele>5.7</ele>
        <time>2021-05-18T09:34:01Z</time>
      </trkpt>
      <trkpt lat="41.8121760" lon="-8.8629420">
        <ele>5.7</ele>
        <time>2021-05-18T09:34:02Z</time>
      </trkpt>
      <trkpt lat="41.8121910" lon="-8.8629590">
        <ele>5.8</ele>
        <time>2021-05-18T09:34:03Z</time>
      </trkpt>
      <trkpt lat="41.8121980" lon="-8.8629670">
        <ele>5.8</ele>
        <time>2021-05-18T09:34:04Z</time>
      </trkpt>
      <trkpt lat="41.8122050" lon="-8.8629740">
        <ele>5.8</ele>
        <time>2021-05-18T09:34:05Z</time>
      </trkpt>
      <trkpt lat="41.8122150" lon="-8.8629850">
        <ele>5.8</ele>
        <time>2021-05-18T09:34:06Z</time>
      </trkpt>
      <trkpt lat="41.8122290" lon="-8.8629920">
        <ele>5.8</ele>
        <time>2021-05-18T09:34:07Z</time>
      </trkpt>
      <trkpt lat="41.8122410" lon="-8.8630030">
        <ele>5.8</ele>
        <time>2021-05-18T09:34:08Z</time>
      </trkpt>
      <trkpt lat="41.8122550" lon="-8.8630110">
        <ele>5.8</ele>
        <time>2021-05-18T09:34:09Z</time>
      </trkpt>
      <trkpt lat="41.8122660" lon="-8.8630170">
        <ele>5.8</ele>
        <time>2021-05-18T09:34:10Z</time>
      </trkpt>
      <trkpt lat="41.8122710" lon="-8.8630230">
        <ele>5.8</ele>
        <time>2021-05-18T09:34:11Z</time>
      </trkpt>
      <trkpt lat="41.8122730" lon="-8.8630330">
        <ele>5.8</ele>
        <time>2021-05-18T09:34:12Z</time>
      </trkpt>
      <trkpt lat="41.8122770" lon="-8.8630430">
        <ele>5.8</ele>
        <time>2021-05-18T09:34:13Z</time>
      </trkpt>
      <trkpt lat="41.8122810" lon="-8.8630500">
        <ele>5.8</ele>
        <time>2021-05-18T09:34:14Z</time>
      </trkpt>
      <trkpt lat="41.8122870" lon="-8.8630550">
        <ele>5.8</ele>
        <time>2021-05-18T09:34:15Z</time>
      </trkpt>
      <trkpt lat="41.8122980" lon="-8.8630610">
        <ele>5.8</ele>
        <time>2021-05-18T09:34:16Z</time>
      </trkpt>
      <trkpt lat="41.8123070" lon="-8.8630560">
        <ele>5.8</ele>
        <time>2021-05-18T09:34:17Z</time>
      </trkpt>
      <trkpt lat="41.8123110" lon="-8.8630490">
        <ele>5.8</ele>
        <time>2021-05-18T09:34:18Z</time>
      </trkpt>
      <trkpt lat="41.8123190" lon="-8.8630450">
        <ele>5.8</ele>
        <time>2021-05-18T09:34:19Z</time>
      </trkpt>
      <trkpt lat="41.8123270" lon="-8.8630500">
        <ele>5.8</ele>
        <time>2021-05-18T09:34:20Z</time>
      </trkpt>
      <trkpt lat="41.8123260" lon="-8.8630370">
        <ele>5.8</ele>
        <time>2021-05-18T09:34:21Z</time>
      </trkpt>
      <trkpt lat="41.8123280" lon="-8.8630280">
        <ele>5.8</ele>
        <time>2021-05-18T09:34:22Z</time>
      </trkpt>
      <trkpt lat="41.8123350" lon="-8.8630260">
        <ele>5.8</ele>
        <time>2021-05-18T09:34:23Z</time>
      </trkpt>
      <trkpt lat="41.8123360" lon="-8.8630240">
        <ele>5.8</ele>
        <time>2021-05-18T09:34:24Z</time>
      </trkpt>
      <trkpt lat="41.8123370" lon="-8.8630220">
        <ele>5.8</ele>
        <time>2021-05-18T09:34:25Z</time>
      </trkpt>
      <trkpt lat="41.8123380" lon="-8.8630200">
        <ele>5.8</ele>
        <time>2021-05-18T09:34:26Z</time>
      </trkpt>
      <trkpt lat="41.8123390" lon="-8.8630180">
        <ele>5.8</ele>
        <time>2021-05-18T09:34:27Z</time>
      </trkpt>
      <trkpt lat="41.8123400" lon="-8.8630160">
        <ele>5.8</ele>
        <time>2021-05-18T09:34:28Z</time>
      </trkpt>
      <trkpt lat="41.8123410" lon="-8.8630140">
        <ele>5.8</ele>
        <time>2021-05-18T09:34:29Z</time>
      </trkpt>
      <trkpt lat="41.8123420" lon="-8.8630120">
        <ele>5.8</ele>
        <time>2021-05-18T09:34:30Z</time>
      </trkpt>
      <trkpt lat="41.8123430" lon="-8.8630100">
        <ele>5.8</ele>
        <time>2021-05-18T09:34:31Z</time>
      </trkpt>
      <trkpt lat="41.8123440" lon="-8.8630080">
        <ele>5.8</ele>
        <time>2021-05-18T09:34:32Z</time>
      </trkpt>
      <trkpt lat="41.8123450" lon="-8.8630060">
        <ele>5.8</ele>
        <time>2021-05-18T09:34:33Z</time>
      </trkpt>
      <trkpt lat="41.8123460" lon="-8.8630040">
        <ele>5.8</ele>
        <time>2021-05-18T09:34:34Z</time>
      </trkpt>
      <trkpt lat="41.8123470" lon="-8.8630010">
        <ele>5.8</ele>
        <time>2021-05-18T09:34:35Z</time>
      </trkpt>
      <trkpt lat="41.8123480" lon="-8.8629990">
        <ele>5.8</ele>
        <time>2021-05-18T09:34:36Z</time>
      </trkpt>
      <trkpt lat="41.8123490" lon="-8.8629970">
        <ele>5.8</ele>
        <time>2021-05-18T09:34:37Z</time>
      </trkpt>
      <trkpt lat="41.8123500" lon="-8.8629950">
        <ele>5.8</ele>
        <time>2021-05-18T09:34:38Z</time>
      </trkpt>
      <trkpt lat="41.8123510" lon="-8.8629930">
        <ele>5.8</ele>
        <time>2021-05-18T09:34:39Z</time>
      </trkpt>
      <trkpt lat="41.8123520" lon="-8.8629910">
        <ele>5.8</ele>
        <time>2021-05-18T09:34:40Z</time>
      </trkpt>
      <trkpt lat="41.8123540" lon="-8.8629890">
        <ele>5.8</ele>
        <time>2021-05-18T09:34:41Z</time>
      </trkpt>
      <trkpt lat="41.8123550" lon="-8.8629870">
        <ele>5.8</ele>
        <time>2021-05-18T09:34:42Z</time>
      </trkpt>
      <trkpt lat="41.8123560" lon="-8.8629850">
        <ele>5.8</ele>
        <time>2021-05-18T09:34:43Z</time>
      </trkpt>
      <trkpt lat="41.8123570" lon="-8.8629830">
        <ele>5.8</ele>
        <time>2021-05-18T09:34:44Z</time>
      </trkpt>
      <trkpt lat="41.8123580" lon="-8.8629810">
        <ele>5.8</ele>
        <time>2021-05-18T09:34:45Z</time>
      </trkpt>
      <trkpt lat="41.8123590" lon="-8.8629790">
        <ele>5.8</ele>
        <time>2021-05-18T09:34:46Z</time>
      </trkpt>
      <trkpt lat="41.8123600" lon="-8.8629770">
        <ele>5.8</ele>
        <time>2021-05-18T09:34:47Z</time>
      </trkpt>
      <trkpt lat="41.8123610" lon="-8.8629750">
        <ele>5.8</ele>
        <time>2021-05-18T09:34:48Z</time>
      </trkpt>
      <trkpt lat="41.8123620" lon="-8.8629730">
        <ele>5.8</ele>
        <time>2021-05-18T09:34:49Z</time>
      </trkpt>
      <trkpt lat="41.8123630" lon="-8.8629710">
        <ele>5.8</ele>
        <time>2021-05-18T09:34:50Z</time>
      </trkpt>
      <trkpt lat="41.8123640" lon="-8.8629690">
        <ele>5.8</ele>
        <time>2021-05-18T09:34:51Z</time>
      </trkpt>
      <trkpt lat="41.8123650" lon="-8.8629670">
        <ele>5.8</ele>
        <time>2021-05-18T09:34:52Z</time>
      </trkpt>
      <trkpt lat="41.8123660" lon="-8.8629650">
        <ele>5.8</ele>
        <time>2021-05-18T09:34:53Z</time>
      </trkpt>
      <trkpt lat="41.8123670" lon="-8.8629630">
        <ele>5.8</ele>
        <time>2021-05-18T09:34:54Z</time>
      </trkpt>
      <trkpt lat="41.8123680" lon="-8.8629610">
        <ele>5.8</ele>
        <time>2021-05-18T09:34:55Z</time>
      </trkpt>
      <trkpt lat="41.8123690" lon="-8.8629590">
        <ele>5.8</ele>
        <time>2021-05-18T09:34:56Z</time>
      </trkpt>
      <trkpt lat="41.8123700" lon="-8.8629570">
        <ele>5.8</ele>
        <time>2021-05-18T09:34:57Z</time>
      </trkpt>
      <trkpt lat="41.8123710" lon="-8.8629550">
        <ele>5.8</ele>
        <time>2021-05-18T09:34:58Z</time>
      </trkpt>
      <trkpt lat="41.8123720" lon="-8.8629520">
        <ele>5.8</ele>
        <time>2021-05-18T09:34:59Z</time>
      </trkpt>
      <trkpt lat="41.8123730" lon="-8.8629500">
        <ele>5.8</ele>
        <time>2021-05-18T09:35:00Z</time>
      </trkpt>
      <trkpt lat="41.8123740" lon="-8.8629480">
        <ele>5.8</ele>
        <time>2021-05-18T09:35:01Z</time>
      </trkpt>
      <trkpt lat="41.8123750" lon="-8.8629460">
        <ele>5.8</ele>
        <time>2021-05-18T09:35:02Z</time>
      </trkpt>
      <trkpt lat="41.8123760" lon="-8.8629440">
        <ele>5.8</ele>
        <time>2021-05-18T09:35:03Z</time>
      </trkpt>
      <trkpt lat="41.8123770" lon="-8.8629420">
        <ele>5.8</ele>
        <time>2021-05-18T09:35:04Z</time>
      </trkpt>
      <trkpt lat="41.8123780" lon="-8.8629400">
        <ele>5.8</ele>
        <time>2021-05-18T09:35:05Z</time>
      </trkpt>
      <trkpt lat="41.8123790" lon="-8.8629380">
        <ele>5.8</ele>
        <time>2021-05-18T09:35:06Z</time>
      </trkpt>
      <trkpt lat="41.8123800" lon="-8.8629360">
        <ele>5.8</ele>
        <time>2021-05-18T09:35:07Z</time>
      </trkpt>
      <trkpt lat="41.8123810" lon="-8.8629340">
        <ele>5.8</ele>
        <time>2021-05-18T09:35:08Z</time>
      </trkpt>
      <trkpt lat="41.8123820" lon="-8.8629320">
        <ele>5.8</ele>
        <time>2021-05-18T09:35:09Z</time>
      </trkpt>
      <trkpt lat="41.8123830" lon="-8.8629300">
        <ele>5.8</ele>
        <time>2021-05-18T09:35:10Z</time>
      </trkpt>
      <trkpt lat="41.8123840" lon="-8.8629280">
        <ele>5.8</ele>
        <time>2021-05-18T09:35:11Z</time>
      </trkpt>
      <trkpt lat="41.8123850" lon="-8.8629260">
        <ele>5.8</ele>
        <time>2021-05-18T09:35:12Z</time>
      </trkpt>
      <trkpt lat="41.8123860" lon="-8.8629240">
        <ele>5.8</ele>
        <time>2021-05-18T09:35:13Z</time>
      </trkpt>
      <trkpt lat="41.8123870" lon="-8.8629220">
        <ele>5.8</ele>
        <time>2021-05-18T09:35:14Z</time>
      </trkpt>
      <trkpt lat="41.8123880" lon="-8.8629200">
        <ele>5.8</ele>
        <time>2021-05-18T09:35:15Z</time>
      </trkpt>
      <trkpt lat="41.8123890" lon="-8.8629180">
        <ele>5.8</ele>
        <time>2021-05-18T09:35:16Z</time>
      </trkpt>
      <trkpt lat="41.8123910" lon="-8.8629160">
        <ele>5.8</ele>
        <time>2021-05-18T09:35:17Z</time>
      </trkpt>
      <trkpt lat="41.8123920" lon="-8.8629140">
        <ele>5.8</ele>
        <time>2021-05-18T09:35:18Z</time>
      </trkpt>
      <trkpt lat="41.8123930" lon="-8.8629120">
        <ele>5.8</ele>
        <time>2021-05-18T09:35:19Z</time>
      </trkpt>
      <trkpt lat="41.8123940" lon="-8.8629100">
        <ele>5.8</ele>
        <time>2021-05-18T09:35:20Z</time>
      </trkpt>
      <trkpt lat="41.8123950" lon="-8.8629080">
        <ele>5.8</ele>
        <time>2021-05-18T09:35:21Z</time>
      </trkpt>
      <trkpt lat="41.8123960" lon="-8.8629060">
        <ele>5.8</ele>
        <time>2021-05-18T09:35:22Z</time>
      </trkpt>
      <trkpt lat="41.8123970" lon="-8.8629030">
        <ele>5.8</ele>
        <time>2021-05-18T09:35:23Z</time>
      </trkpt>
      <trkpt lat="41.8123980" lon="-8.8629010">
        <ele>5.8</ele>
        <time>2021-05-18T09:35:24Z</time>
      </trkpt>
      <trkpt lat="41.8123990" lon="-8.8628990">
        <ele>5.8</ele>
        <time>2021-05-18T09:35:25Z</time>
      </trkpt>
      <trkpt lat="41.8124000" lon="-8.8628970">
        <ele>5.8</ele>
        <time>2021-05-18T09:35:26Z</time>
      </trkpt>
      <trkpt lat="41.8124010" lon="-8.8628950">
        <ele>5.8</ele>
        <time>2021-05-18T09:35:27Z</time>
      </trkpt>
      <trkpt lat="41.8124020" lon="-8.8628930">
        <ele>5.8</ele>
        <time>2021-05-18T09:35:28Z</time>
      </trkpt>
      <trkpt lat="41.8124030" lon="-8.8628910">
        <ele>5.8</ele>
        <time>2021-05-18T09:35:29Z</time>
      </trkpt>
      <trkpt lat="41.8124040" lon="-8.8628890">
        <ele>5.8</ele>
        <time>2021-05-18T09:35:30Z</time>
      </trkpt>
      <trkpt lat="41.8124050" lon="-8.8628870">
        <ele>5.8</ele>
        <time>2021-05-18T09:35:31Z</time>
      </trkpt>
      <trkpt lat="41.8124060" lon="-8.8628850">
        <ele>5.8</ele>
        <time>2021-05-18T09:35:32Z</time>
      </trkpt>
      <trkpt lat="41.8124070" lon="-8.8628830">
        <ele>5.8</ele>
        <time>2021-05-18T09:35:33Z</time>
      </trkpt>
      <trkpt lat="41.8124080" lon="-8.8628810">
        <ele>5.8</ele>
        <time>2021-05-18T09:35:34Z</time>
      </trkpt>
      <trkpt lat="41.8124090" lon="-8.8628790">
        <ele>5.8</ele>
        <time>2021-05-18T09:35:35Z</time>
      </trkpt>
      <trkpt lat="41.8124050" lon="-8.8628850">
        <ele>5.8</ele>
        <time>2021-05-18T09:35:36Z</time>
      </trkpt>
      <trkpt lat="41.8124070" lon="-8.8628900">
        <ele>5.8</ele>
        <time>2021-05-18T09:35:37Z</time>
      </trkpt>
      <trkpt lat="41.8124190" lon="-8.8629100">
        <ele>5.8</ele>
        <time>2021-05-18T09:35:38Z</time>
      </trkpt>
      <trkpt lat="41.8124150" lon="-8.8629240">
        <ele>5.8</ele>
        <time>2021-05-18T09:35:39Z</time>
      </trkpt>
      <trkpt lat="41.8124140" lon="-8.8629350">
        <ele>5.8</ele>
        <time>2021-05-18T09:35:40Z</time>
      </trkpt>
      <trkpt lat="41.8124000" lon="-8.8629430">
        <ele>5.8</ele>
        <time>2021-05-18T09:35:41Z</time>
      </trkpt>
      <trkpt lat="41.8123870" lon="-8.8629530">
        <ele>5.8</ele>
        <time>2021-05-18T09:35:42Z</time>
      </trkpt>
      <trkpt lat="41.8123590" lon="-8.8629800">
        <ele>5.8</ele>
        <time>2021-05-18T09:35:43Z</time>
      </trkpt>
      <trkpt lat="41.8123430" lon="-8.8630170">
        <ele>5.8</ele>
        <time>2021-05-18T09:35:44Z</time>
      </trkpt>
      <trkpt lat="41.8123290" lon="-8.8630410">
        <ele>5.8</ele>
        <time>2021-05-18T09:35:45Z</time>
      </trkpt>
      <trkpt lat="41.8123220" lon="-8.8630560">
        <ele>5.8</ele>
        <time>2021-05-18T09:35:46Z</time>
      </trkpt>
      <trkpt lat="41.8123160" lon="-8.8630720">
        <ele>5.8</ele>
        <time>2021-05-18T09:35:47Z</time>
      </trkpt>
      <trkpt lat="41.8122980" lon="-8.8630610">
        <ele>5.8</ele>
        <time>2021-05-18T09:35:48Z</time>
      </trkpt>
      <trkpt lat="41.8122940" lon="-8.8630590">
        <ele>5.8</ele>
        <time>2021-05-18T09:35:49Z</time>
      </trkpt>
      <trkpt lat="41.8122890" lon="-8.8630580">
        <ele>5.8</ele>
        <time>2021-05-18T09:35:50Z</time>
      </trkpt>
      <trkpt lat="41.8122840" lon="-8.8630560">
        <ele>5.8</ele>
        <time>2021-05-18T09:35:51Z</time>
      </trkpt>
      <trkpt lat="41.8122800" lon="-8.8630540">
        <ele>5.8</ele>
        <time>2021-05-18T09:35:52Z</time>
      </trkpt>
      <trkpt lat="41.8122750" lon="-8.8630520">
        <ele>5.8</ele>
        <time>2021-05-18T09:35:53Z</time>
      </trkpt>
      <trkpt lat="41.8122700" lon="-8.8630510">
        <ele>5.8</ele>
        <time>2021-05-18T09:35:54Z</time>
      </trkpt>
      <trkpt lat="41.8122660" lon="-8.8630490">
        <ele>5.8</ele>
        <time>2021-05-18T09:35:55Z</time>
      </trkpt>
      <trkpt lat="41.8122610" lon="-8.8630470">
        <ele>5.8</ele>
        <time>2021-05-18T09:35:56Z</time>
      </trkpt>
      <trkpt lat="41.8122560" lon="-8.8630450">
        <ele>5.8</ele>
        <time>2021-05-18T09:35:57Z</time>
      </trkpt>
      <trkpt lat="41.8122520" lon="-8.8630440">
        <ele>5.8</ele>
        <time>2021-05-18T09:35:58Z</time>
      </trkpt>
      <trkpt lat="41.8122470" lon="-8.8630420">
        <ele>5.8</ele>
        <time>2021-05-18T09:35:59Z</time>
      </trkpt>
      <trkpt lat="41.8122420" lon="-8.8630400">
        <ele>5.8</ele>
        <time>2021-05-18T09:36:00Z</time>
      </trkpt>
      <trkpt lat="41.8122380" lon="-8.8630380">
        <ele>5.8</ele>
        <time>2021-05-18T09:36:01Z</time>
      </trkpt>
      <trkpt lat="41.8122330" lon="-8.8630370">
        <ele>5.8</ele>
        <time>2021-05-18T09:36:02Z</time>
      </trkpt>
      <trkpt lat="41.8122290" lon="-8.8630350">
        <ele>5.8</ele>
        <time>2021-05-18T09:36:03Z</time>
      </trkpt>
      <trkpt lat="41.8122240" lon="-8.8630330">
        <ele>5.8</ele>
        <time>2021-05-18T09:36:04Z</time>
      </trkpt>
      <trkpt lat="41.8122190" lon="-8.8630310">
        <ele>5.8</ele>
        <time>2021-05-18T09:36:05Z</time>
      </trkpt>
      <trkpt lat="41.8122150" lon="-8.8630300">
        <ele>5.8</ele>
        <time>2021-05-18T09:36:06Z</time>
      </trkpt>
      <trkpt lat="41.8122100" lon="-8.8630280">
        <ele>5.8</ele>
        <time>2021-05-18T09:36:07Z</time>
      </trkpt>
      <trkpt lat="41.8122050" lon="-8.8630260">
        <ele>5.8</ele>
        <time>2021-05-18T09:36:08Z</time>
      </trkpt>
      <trkpt lat="41.8122010" lon="-8.8630240">
        <ele>5.8</ele>
        <time>2021-05-18T09:36:09Z</time>
      </trkpt>
      <trkpt lat="41.8121960" lon="-8.8630230">
        <ele>5.8</ele>
        <time>2021-05-18T09:36:10Z</time>
      </trkpt>
      <trkpt lat="41.8121910" lon="-8.8630210">
        <ele>5.8</ele>
        <time>2021-05-18T09:36:11Z</time>
      </trkpt>
      <trkpt lat="41.8121870" lon="-8.8630190">
        <ele>5.8</ele>
        <time>2021-05-18T09:36:12Z</time>
      </trkpt>
      <trkpt lat="41.8121820" lon="-8.8630170">
        <ele>5.8</ele>
        <time>2021-05-18T09:36:13Z</time>
      </trkpt>
      <trkpt lat="41.8121770" lon="-8.8630160">
        <ele>5.8</ele>
        <time>2021-05-18T09:36:14Z</time>
      </trkpt>
      <trkpt lat="41.8121730" lon="-8.8630140">
        <ele>5.8</ele>
        <time>2021-05-18T09:36:15Z</time>
      </trkpt>
      <trkpt lat="41.8121680" lon="-8.8630120">
        <ele>5.8</ele>
        <time>2021-05-18T09:36:16Z</time>
      </trkpt>
      <trkpt lat="41.8121740" lon="-8.8630270">
        <ele>5.8</ele>
        <time>2021-05-18T09:36:17Z</time>
      </trkpt>
      <trkpt lat="41.8121800" lon="-8.8630400">
        <ele>5.8</ele>
        <time>2021-05-18T09:36:18Z</time>
      </trkpt>
      <trkpt lat="41.8121860" lon="-8.8630530">
        <ele>5.8</ele>
        <time>2021-05-18T09:36:19Z</time>
      </trkpt>
      <trkpt lat="41.8121920" lon="-8.8630670">
        <ele>5.8</ele>
        <time>2021-05-18T09:36:20Z</time>
      </trkpt>
      <trkpt lat="41.8121980" lon="-8.8630800">
        <ele>5.8</ele>
        <time>2021-05-18T09:36:21Z</time>
      </trkpt>
      <trkpt lat="41.8122040" lon="-8.8630930">
        <ele>5.8</ele>
        <time>2021-05-18T09:36:22Z</time>
      </trkpt>
      <trkpt lat="41.8122050" lon="-8.8631120">
        <ele>5.8</ele>
        <time>2021-05-18T09:36:23Z</time>
      </trkpt>
      <trkpt lat="41.8122040" lon="-8.8631220">
        <ele>5.8</ele>
        <time>2021-05-18T09:36:24Z</time>
      </trkpt>
      <trkpt lat="41.8122020" lon="-8.8631320">
        <ele>5.8</ele>
        <time>2021-05-18T09:36:25Z</time>
      </trkpt>
      <trkpt lat="41.8122000" lon="-8.8631420">
        <ele>5.8</ele>
        <time>2021-05-18T09:36:26Z</time>
      </trkpt>
      <trkpt lat="41.8122220" lon="-8.8631170">
        <ele>5.8</ele>
        <time>2021-05-18T09:36:27Z</time>
      </trkpt>
      <trkpt lat="41.8122260" lon="-8.8630910">
        <ele>5.8</ele>
        <time>2021-05-18T09:36:28Z</time>
      </trkpt>
      <trkpt lat="41.8122310" lon="-8.8630770">
        <ele>5.8</ele>
        <time>2021-05-18T09:36:29Z</time>
      </trkpt>
      <trkpt lat="41.8122370" lon="-8.8630640">
        <ele>5.8</ele>
        <time>2021-05-18T09:36:30Z</time>
      </trkpt>
      <trkpt lat="41.8122420" lon="-8.8630500">
        <ele>5.8</ele>
        <time>2021-05-18T09:36:31Z</time>
      </trkpt>
      <trkpt lat="41.8122550" lon="-8.8630560">
        <ele>5.8</ele>
        <time>2021-05-18T09:36:32Z</time>
      </trkpt>
      <trkpt lat="41.8122740" lon="-8.8630590">
        <ele>5.8</ele>
        <time>2021-05-18T09:36:33Z</time>
      </trkpt>
      <trkpt lat="41.8122920" lon="-8.8630700">
        <ele>5.8</ele>
        <time>2021-05-18T09:36:34Z</time>
      </trkpt>
      <trkpt lat="41.8123040" lon="-8.8630790">
        <ele>5.8</ele>
        <time>2021-05-18T09:36:35Z</time>
      </trkpt>
      <trkpt lat="41.8123170" lon="-8.8630750">
        <ele>5.8</ele>
        <time>2021-05-18T09:36:36Z</time>
      </trkpt>
      <trkpt lat="41.8123330" lon="-8.8630550">
        <ele>5.8</ele>
        <time>2021-05-18T09:36:37Z</time>
      </trkpt>
      <trkpt lat="41.8123420" lon="-8.8630400">
        <ele>5.8</ele>
        <time>2021-05-18T09:36:38Z</time>
      </trkpt>
      <trkpt lat="41.8123360" lon="-8.8630100">
        <ele>5.8</ele>
        <time>2021-05-18T09:36:39Z</time>
      </trkpt>
      <trkpt lat="41.8123350" lon="-8.8629680">
        <ele>5.8</ele>
        <time>2021-05-18T09:36:40Z</time>
      </trkpt>
      <trkpt lat="41.8123350" lon="-8.8629600">
        <ele>5.8</ele>
        <time>2021-05-18T09:36:41Z</time>
      </trkpt>
      <trkpt lat="41.8123300" lon="-8.8629560">
        <ele>5.8</ele>
        <time>2021-05-18T09:36:42Z</time>
      </trkpt>
      <trkpt lat="41.8123280" lon="-8.8629530">
        <ele>5.8</ele>
        <time>2021-05-18T09:36:43Z</time>
      </trkpt>
      <trkpt lat="41.8123280" lon="-8.8629510">
        <ele>5.8</ele>
        <time>2021-05-18T09:36:44Z</time>
      </trkpt>
      <trkpt lat="41.8123290" lon="-8.8629470">
        <ele>5.8</ele>
        <time>2021-05-18T09:36:45Z</time>
      </trkpt>
      <trkpt lat="41.8123280" lon="-8.8629460">
        <ele>5.8</ele>
        <time>2021-05-18T09:36:46Z</time>
      </trkpt>
      <trkpt lat="41.8123310" lon="-8.8629400">
        <ele>5.8</ele>
        <time>2021-05-18T09:36:47Z</time>
      </trkpt>
      <trkpt lat="41.8123320" lon="-8.8629370">
        <ele>5.8</ele>
        <time>2021-05-18T09:36:48Z</time>
      </trkpt>
      <trkpt lat="41.8123380" lon="-8.8629260">
        <ele>5.8</ele>
        <time>2021-05-18T09:36:49Z</time>
      </trkpt>
      <trkpt lat="41.8123400" lon="-8.8629210">
        <ele>5.7</ele>
        <time>2021-05-18T09:36:50Z</time>
      </trkpt>
      <trkpt lat="41.8123400" lon="-8.8629090">
        <ele>5.7</ele>
        <time>2021-05-18T09:36:51Z</time>
      </trkpt>
      <trkpt lat="41.8123560" lon="-8.8628880">
        <ele>5.7</ele>
        <time>2021-05-18T09:36:52Z</time>
      </trkpt>
      <trkpt lat="41.8123610" lon="-8.8628850">
        <ele>5.7</ele>
        <time>2021-05-18T09:36:53Z</time>
      </trkpt>
      <trkpt lat="41.8123650" lon="-8.8628850">
        <ele>5.7</ele>
        <time>2021-05-18T09:36:54Z</time>
      </trkpt>
      <trkpt lat="41.8123700" lon="-8.8628800">
        <ele>5.7</ele>
        <time>2021-05-18T09:36:55Z</time>
      </trkpt>
      <trkpt lat="41.8123740" lon="-8.8628800">
        <ele>5.7</ele>
        <time>2021-05-18T09:36:56Z</time>
      </trkpt>
      <trkpt lat="41.8123770" lon="-8.8628780">
        <ele>5.7</ele>
        <time>2021-05-18T09:36:57Z</time>
      </trkpt>
      <trkpt lat="41.8123760" lon="-8.8628710">
        <ele>5.7</ele>
        <time>2021-05-18T09:36:58Z</time>
      </trkpt>
      <trkpt lat="41.8123800" lon="-8.8628690">
        <ele>5.7</ele>
        <time>2021-05-18T09:36:59Z</time>
      </trkpt>
      <trkpt lat="41.8123840" lon="-8.8628730">
        <ele>5.7</ele>
        <time>2021-05-18T09:37:00Z</time>
      </trkpt>
      <trkpt lat="41.8123900" lon="-8.8628900">
        <ele>5.7</ele>
        <time>2021-05-18T09:37:01Z</time>
      </trkpt>
      <trkpt lat="41.8123920" lon="-8.8628990">
        <ele>5.7</ele>
        <time>2021-05-18T09:37:02Z</time>
      </trkpt>
      <trkpt lat="41.8123990" lon="-8.8629080">
        <ele>5.7</ele>
        <time>2021-05-18T09:37:03Z</time>
      </trkpt>
      <trkpt lat="41.8124090" lon="-8.8629160">
        <ele>5.7</ele>
        <time>2021-05-18T09:37:04Z</time>
      </trkpt>
      <trkpt lat="41.8124190" lon="-8.8629260">
        <ele>5.7</ele>
        <time>2021-05-18T09:37:05Z</time>
      </trkpt>
      <trkpt lat="41.8124270" lon="-8.8629240">
        <ele>5.7</ele>
        <time>2021-05-18T09:37:06Z</time>
      </trkpt>
      <trkpt lat="41.8124270" lon="-8.8629310">
        <ele>5.7</ele>
        <time>2021-05-18T09:37:07Z</time>
      </trkpt>
      <trkpt lat="41.8124250" lon="-8.8629350">
        <ele>5.7</ele>
        <time>2021-05-18T09:37:08Z</time>
      </trkpt>
      <trkpt lat="41.8124310" lon="-8.8629420">
        <ele>5.7</ele>
        <time>2021-05-18T09:37:09Z</time>
      </trkpt>
      <trkpt lat="41.8124300" lon="-8.8629470">
        <ele>5.7</ele>
        <time>2021-05-18T09:37:10Z</time>
      </trkpt>
      <trkpt lat="41.8124240" lon="-8.8629440">
        <ele>5.7</ele>
        <time>2021-05-18T09:37:11Z</time>
      </trkpt>
      <trkpt lat="41.8124040" lon="-8.8629500">
        <ele>5.7</ele>
        <time>2021-05-18T09:37:12Z</time>
      </trkpt>
      <trkpt lat="41.8124020" lon="-8.8629480">
        <ele>5.7</ele>
        <time>2021-05-18T09:37:13Z</time>
      </trkpt>
      <trkpt lat="41.8124020" lon="-8.8629470">
        <ele>5.7</ele>
        <time>2021-05-18T09:37:14Z</time>
      </trkpt>
      <trkpt lat="41.8124030" lon="-8.8629440">
        <ele>5.7</ele>
        <time>2021-05-18T09:37:15Z</time>
      </trkpt>
      <trkpt lat="41.8124030" lon="-8.8629430">
        <ele>5.7</ele>
        <time>2021-05-18T09:37:16Z</time>
      </trkpt>
      <trkpt lat="41.8124030" lon="-8.8629550">
        <ele>5.7</ele>
        <time>2021-05-18T09:37:17Z</time>
      </trkpt>
      <trkpt lat="41.8124020" lon="-8.8629700">
        <ele>5.7</ele>
        <time>2021-05-18T09:37:18Z</time>
      </trkpt>
      <trkpt lat="41.8124020" lon="-8.8629990">
        <ele>5.7</ele>
        <time>2021-05-18T09:37:19Z</time>
      </trkpt>
      <trkpt lat="41.8123940" lon="-8.8630330">
        <ele>5.7</ele>
        <time>2021-05-18T09:37:20Z</time>
      </trkpt>
      <trkpt lat="41.8123860" lon="-8.8630490">
        <ele>5.7</ele>
        <time>2021-05-18T09:37:21Z</time>
      </trkpt>
      <trkpt lat="41.8123730" lon="-8.8630700">
        <ele>5.8</ele>
        <time>2021-05-18T09:37:22Z</time>
      </trkpt>
      <trkpt lat="41.8123670" lon="-8.8630880">
        <ele>5.8</ele>
        <time>2021-05-18T09:37:23Z</time>
      </trkpt>
      <trkpt lat="41.8123610" lon="-8.8631010">
        <ele>5.8</ele>
        <time>2021-05-18T09:37:24Z</time>
      </trkpt>
      <trkpt lat="41.8123610" lon="-8.8631150">
        <ele>5.7</ele>
        <time>2021-05-18T09:37:25Z</time>
      </trkpt>
      <trkpt lat="41.8123640" lon="-8.8631310">
        <ele>5.7</ele>
        <time>2021-05-18T09:37:26Z</time>
      </trkpt>
      <trkpt lat="41.8123670" lon="-8.8631500">
        <ele>5.7</ele>
        <time>2021-05-18T09:37:27Z</time>
      </trkpt>
      <trkpt lat="41.8123820" lon="-8.8631710">
        <ele>5.7</ele>
        <time>2021-05-18T09:37:28Z</time>
      </trkpt>
      <trkpt lat="41.8123890" lon="-8.8631850">
        <ele>5.8</ele>
        <time>2021-05-18T09:37:29Z</time>
      </trkpt>
      <trkpt lat="41.8123960" lon="-8.8632040">
        <ele>5.8</ele>
        <time>2021-05-18T09:37:31Z</time>
      </trkpt>
      <trkpt lat="41.8124010" lon="-8.8632150">
        <ele>5.8</ele>
        <time>2021-05-18T09:37:32Z</time>
      </trkpt>
      <trkpt lat="41.8124070" lon="-8.8632270">
        <ele>5.8</ele>
        <time>2021-05-18T09:37:33Z</time>
      </trkpt>
      <trkpt lat="41.8124210" lon="-8.8632510">
        <ele>5.8</ele>
        <time>2021-05-18T09:37:34Z</time>
      </trkpt>
      <trkpt lat="41.8124260" lon="-8.8632550">
        <ele>5.8</ele>
        <time>2021-05-18T09:37:35Z</time>
      </trkpt>
      <trkpt lat="41.8124350" lon="-8.8632660">
        <ele>5.8</ele>
        <time>2021-05-18T09:37:36Z</time>
      </trkpt>
      <trkpt lat="41.8124510" lon="-8.8632780">
        <ele>5.8</ele>
        <time>2021-05-18T09:37:37Z</time>
      </trkpt>
      <trkpt lat="41.8124570" lon="-8.8632910">
        <ele>5.8</ele>
        <time>2021-05-18T09:37:38Z</time>
      </trkpt>
      <trkpt lat="41.8124670" lon="-8.8633030">
        <ele>5.8</ele>
        <time>2021-05-18T09:37:39Z</time>
      </trkpt>
      <trkpt lat="41.8124700" lon="-8.8633130">
        <ele>5.8</ele>
        <time>2021-05-18T09:37:40Z</time>
      </trkpt>
      <trkpt lat="41.8124800" lon="-8.8633290">
        <ele>5.8</ele>
        <time>2021-05-18T09:37:41Z</time>
      </trkpt>
      <trkpt lat="41.8124900" lon="-8.8633410">
        <ele>5.8</ele>
        <time>2021-05-18T09:37:42Z</time>
      </trkpt>
      <trkpt lat="41.8124990" lon="-8.8633560">
        <ele>5.8</ele>
        <time>2021-05-18T09:37:43Z</time>
      </trkpt>
      <trkpt lat="41.8125030" lon="-8.8633610">
        <ele>5.8</ele>
        <time>2021-05-18T09:37:44Z</time>
      </trkpt>
      <trkpt lat="41.8125050" lon="-8.8633730">
        <ele>5.8</ele>
        <time>2021-05-18T09:37:45Z</time>
      </trkpt>
      <trkpt lat="41.8125180" lon="-8.8633950">
        <ele>5.8</ele>
        <time>2021-05-18T09:37:46Z</time>
      </trkpt>
      <trkpt lat="41.8125250" lon="-8.8634090">
        <ele>5.8</ele>
        <time>2021-05-18T09:37:47Z</time>
      </trkpt>
      <trkpt lat="41.8125380" lon="-8.8634200">
        <ele>5.8</ele>
        <time>2021-05-18T09:37:48Z</time>
      </trkpt>
      <trkpt lat="41.8125500" lon="-8.8634350">
        <ele>5.8</ele>
        <time>2021-05-18T09:37:49Z</time>
      </trkpt>
      <trkpt lat="41.8125620" lon="-8.8634500">
        <ele>5.8</ele>
        <time>2021-05-18T09:37:50Z</time>
      </trkpt>
      <trkpt lat="41.8125760" lon="-8.8634740">
        <ele>5.8</ele>
        <time>2021-05-18T09:37:51Z</time>
      </trkpt>
      <trkpt lat="41.8125820" lon="-8.8634840">
        <ele>5.8</ele>
        <time>2021-05-18T09:37:52Z</time>
      </trkpt>
      <trkpt lat="41.8125870" lon="-8.8634950">
        <ele>5.8</ele>
        <time>2021-05-18T09:37:53Z</time>
      </trkpt>
      <trkpt lat="41.8125940" lon="-8.8635110">
        <ele>5.8</ele>
        <time>2021-05-18T09:37:54Z</time>
      </trkpt>
      <trkpt lat="41.8126050" lon="-8.8635250">
        <ele>5.8</ele>
        <time>2021-05-18T09:37:55Z</time>
      </trkpt>
      <trkpt lat="41.8126130" lon="-8.8635430">
        <ele>5.8</ele>
        <time>2021-05-18T09:37:56Z</time>
      </trkpt>
      <trkpt lat="41.8126230" lon="-8.8635590">
        <ele>5.8</ele>
        <time>2021-05-18T09:37:57Z</time>
      </trkpt>
      <trkpt lat="41.8126350" lon="-8.8635690">
        <ele>5.8</ele>
        <time>2021-05-18T09:37:58Z</time>
      </trkpt>
      <trkpt lat="41.8126480" lon="-8.8635780">
        <ele>5.8</ele>
        <time>2021-05-18T09:37:59Z</time>
      </trkpt>
      <trkpt lat="41.8126580" lon="-8.8635900">
        <ele>5.8</ele>
        <time>2021-05-18T09:38:00Z</time>
      </trkpt>
      <trkpt lat="41.8126680" lon="-8.8636020">
        <ele>5.8</ele>
        <time>2021-05-18T09:38:01Z</time>
      </trkpt>
      <trkpt lat="41.8126770" lon="-8.8636180">
        <ele>5.8</ele>
        <time>2021-05-18T09:38:02Z</time>
      </trkpt>
      <trkpt lat="41.8126880" lon="-8.8636300">
        <ele>5.8</ele>
        <time>2021-05-18T09:38:03Z</time>
      </trkpt>
      <trkpt lat="41.8126970" lon="-8.8636460">
        <ele>5.8</ele>
        <time>2021-05-18T09:38:04Z</time>
      </trkpt>
      <trkpt lat="41.8127060" lon="-8.8636610">
        <ele>5.8</ele>
        <time>2021-05-18T09:38:05Z</time>
      </trkpt>
      <trkpt lat="41.8127130" lon="-8.8636790">
        <ele>5.8</ele>
        <time>2021-05-18T09:38:06Z</time>
      </trkpt>
      <trkpt lat="41.8127220" lon="-8.8636940">
        <ele>5.8</ele>
        <time>2021-05-18T09:38:07Z</time>
      </trkpt>
      <trkpt lat="41.8127320" lon="-8.8637100">
        <ele>5.8</ele>
        <time>2021-05-18T09:38:08Z</time>
      </trkpt>
      <trkpt lat="41.8127430" lon="-8.8637250">
        <ele>5.8</ele>
        <time>2021-05-18T09:38:09Z</time>
      </trkpt>
      <trkpt lat="41.8127540" lon="-8.8637360">
        <ele>5.8</ele>
        <time>2021-05-18T09:38:10Z</time>
      </trkpt>
      <trkpt lat="41.8127630" lon="-8.8637500">
        <ele>5.8</ele>
        <time>2021-05-18T09:38:11Z</time>
      </trkpt>
      <trkpt lat="41.8127700" lon="-8.8637680">
        <ele>5.9</ele>
        <time>2021-05-18T09:38:12Z</time>
      </trkpt>
      <trkpt lat="41.8127770" lon="-8.8637870">
        <ele>5.9</ele>
        <time>2021-05-18T09:38:13Z</time>
      </trkpt>
      <trkpt lat="41.8127850" lon="-8.8638010">
        <ele>5.9</ele>
        <time>2021-05-18T09:38:14Z</time>
      </trkpt>
      <trkpt lat="41.8127940" lon="-8.8638180">
        <ele>5.9</ele>
        <time>2021-05-18T09:38:15Z</time>
      </trkpt>
      <trkpt lat="41.8128020" lon="-8.8638340">
        <ele>5.9</ele>
        <time>2021-05-18T09:38:16Z</time>
      </trkpt>
      <trkpt lat="41.8128100" lon="-8.8638490">
        <ele>5.9</ele>
        <time>2021-05-18T09:38:17Z</time>
      </trkpt>
      <trkpt lat="41.8128170" lon="-8.8638640">
        <ele>5.9</ele>
        <time>2021-05-18T09:38:18Z</time>
      </trkpt>
      <trkpt lat="41.8128270" lon="-8.8638790">
        <ele>5.9</ele>
        <time>2021-05-18T09:38:19Z</time>
      </trkpt>
      <trkpt lat="41.8128410" lon="-8.8639020">
        <ele>5.9</ele>
        <time>2021-05-18T09:38:20Z</time>
      </trkpt>
      <trkpt lat="41.8128460" lon="-8.8639100">
        <ele>5.9</ele>
        <time>2021-05-18T09:38:21Z</time>
      </trkpt>
      <trkpt lat="41.8128520" lon="-8.8639190">
        <ele>5.9</ele>
        <time>2021-05-18T09:38:22Z</time>
      </trkpt>
      <trkpt lat="41.8128610" lon="-8.8639330">
        <ele>5.9</ele>
        <time>2021-05-18T09:38:23Z</time>
      </trkpt>
      <trkpt lat="41.8128680" lon="-8.8639500">
        <ele>5.9</ele>
        <time>2021-05-18T09:38:24Z</time>
      </trkpt>
      <trkpt lat="41.8128740" lon="-8.8639620">
        <ele>5.9</ele>
        <time>2021-05-18T09:38:25Z</time>
      </trkpt>
      <trkpt lat="41.8128880" lon="-8.8639690">
        <ele>5.9</ele>
        <time>2021-05-18T09:38:26Z</time>
      </trkpt>
      <trkpt lat="41.8128910" lon="-8.8639850">
        <ele>5.9</ele>
        <time>2021-05-18T09:38:27Z</time>
      </trkpt>
      <trkpt lat="41.8129050" lon="-8.8640000">
        <ele>5.9</ele>
        <time>2021-05-18T09:38:28Z</time>
      </trkpt>
      <trkpt lat="41.8129150" lon="-8.8640080">
        <ele>5.9</ele>
        <time>2021-05-18T09:38:29Z</time>
      </trkpt>
      <trkpt lat="41.8129200" lon="-8.8640280">
        <ele>5.9</ele>
        <time>2021-05-18T09:38:30Z</time>
      </trkpt>
      <trkpt lat="41.8129290" lon="-8.8640410">
        <ele>5.9</ele>
        <time>2021-05-18T09:38:31Z</time>
      </trkpt>
      <trkpt lat="41.8129450" lon="-8.8640480">
        <ele>5.9</ele>
        <time>2021-05-18T09:38:32Z</time>
      </trkpt>
      <trkpt lat="41.8129500" lon="-8.8640640">
        <ele>5.9</ele>
        <time>2021-05-18T09:38:33Z</time>
      </trkpt>
      <trkpt lat="41.8129640" lon="-8.8640870">
        <ele>5.9</ele>
        <time>2021-05-18T09:38:34Z</time>
      </trkpt>
      <trkpt lat="41.8129720" lon="-8.8640950">
        <ele>5.9</ele>
        <time>2021-05-18T09:38:35Z</time>
      </trkpt>
      <trkpt lat="41.8129800" lon="-8.8641040">
        <ele>5.9</ele>
        <time>2021-05-18T09:38:36Z</time>
      </trkpt>
      <trkpt lat="41.8129950" lon="-8.8641250">
        <ele>5.9</ele>
        <time>2021-05-18T09:38:37Z</time>
      </trkpt>
      <trkpt lat="41.8130020" lon="-8.8641340">
        <ele>5.9</ele>
        <time>2021-05-18T09:38:38Z</time>
      </trkpt>
      <trkpt lat="41.8130090" lon="-8.8641440">
        <ele>5.9</ele>
        <time>2021-05-18T09:38:39Z</time>
      </trkpt>
      <trkpt lat="41.8130230" lon="-8.8641690">
        <ele>5.9</ele>
        <time>2021-05-18T09:38:40Z</time>
      </trkpt>
      <trkpt lat="41.8130280" lon="-8.8641780">
        <ele>5.9</ele>
        <time>2021-05-18T09:38:41Z</time>
      </trkpt>
      <trkpt lat="41.8130340" lon="-8.8641880">
        <ele>5.9</ele>
        <time>2021-05-18T09:38:42Z</time>
      </trkpt>
      <trkpt lat="41.8130460" lon="-8.8641990">
        <ele>5.9</ele>
        <time>2021-05-18T09:38:43Z</time>
      </trkpt>
      <trkpt lat="41.8130570" lon="-8.8642110">
        <ele>5.9</ele>
        <time>2021-05-18T09:38:44Z</time>
      </trkpt>
      <trkpt lat="41.8130670" lon="-8.8642240">
        <ele>5.9</ele>
        <time>2021-05-18T09:38:45Z</time>
      </trkpt>
      <trkpt lat="41.8130770" lon="-8.8642350">
        <ele>5.9</ele>
        <time>2021-05-18T09:38:46Z</time>
      </trkpt>
      <trkpt lat="41.8130890" lon="-8.8642570">
        <ele>5.9</ele>
        <time>2021-05-18T09:38:47Z</time>
      </trkpt>
      <trkpt lat="41.8130950" lon="-8.8642660">
        <ele>5.9</ele>
        <time>2021-05-18T09:38:48Z</time>
      </trkpt>
      <trkpt lat="41.8131000" lon="-8.8642740">
        <ele>5.9</ele>
        <time>2021-05-18T09:38:49Z</time>
      </trkpt>
      <trkpt lat="41.8131070" lon="-8.8642890">
        <ele>5.9</ele>
        <time>2021-05-18T09:38:50Z</time>
      </trkpt>
      <trkpt lat="41.8131210" lon="-8.8643010">
        <ele>5.9</ele>
        <time>2021-05-18T09:38:51Z</time>
      </trkpt>
      <trkpt lat="41.8131370" lon="-8.8643240">
        <ele>5.9</ele>
        <time>2021-05-18T09:38:52Z</time>
      </trkpt>
      <trkpt lat="41.8131430" lon="-8.8643340">
        <ele>5.9</ele>
        <time>2021-05-18T09:38:53Z</time>
      </trkpt>
      <trkpt lat="41.8131500" lon="-8.8643430">
        <ele>5.9</ele>
        <time>2021-05-18T09:38:54Z</time>
      </trkpt>
      <trkpt lat="41.8131600" lon="-8.8643560">
        <ele>5.9</ele>
        <time>2021-05-18T09:38:55Z</time>
      </trkpt>
      <trkpt lat="41.8131710" lon="-8.8643690">
        <ele>5.8</ele>
        <time>2021-05-18T09:38:56Z</time>
      </trkpt>
      <trkpt lat="41.8131830" lon="-8.8643810">
        <ele>5.8</ele>
        <time>2021-05-18T09:38:57Z</time>
      </trkpt>
      <trkpt lat="41.8131920" lon="-8.8643950">
        <ele>5.8</ele>
        <time>2021-05-18T09:38:58Z</time>
      </trkpt>
      <trkpt lat="41.8132080" lon="-8.8644170">
        <ele>5.8</ele>
        <time>2021-05-18T09:38:59Z</time>
      </trkpt>
      <trkpt lat="41.8132130" lon="-8.8644250">
        <ele>5.8</ele>
        <time>2021-05-18T09:39:00Z</time>
      </trkpt>
      <trkpt lat="41.8132190" lon="-8.8644330">
        <ele>5.8</ele>
        <time>2021-05-18T09:39:01Z</time>
      </trkpt>
      <trkpt lat="41.8132310" lon="-8.8644450">
        <ele>5.8</ele>
        <time>2021-05-18T09:39:02Z</time>
      </trkpt>
      <trkpt lat="41.8132430" lon="-8.8644600">
        <ele>5.8</ele>
        <time>2021-05-18T09:39:03Z</time>
      </trkpt>
      <trkpt lat="41.8132540" lon="-8.8644720">
        <ele>5.8</ele>
        <time>2021-05-18T09:39:04Z</time>
      </trkpt>
      <trkpt lat="41.8132670" lon="-8.8644820">
        <ele>5.8</ele>
        <time>2021-05-18T09:39:05Z</time>
      </trkpt>
      <trkpt lat="41.8132700" lon="-8.8645030">
        <ele>5.8</ele>
        <time>2021-05-18T09:39:07Z</time>
      </trkpt>
      <trkpt lat="41.8132750" lon="-8.8645190">
        <ele>5.8</ele>
        <time>2021-05-18T09:39:08Z</time>
      </trkpt>
      <trkpt lat="41.8132920" lon="-8.8645400">
        <ele>5.8</ele>
        <time>2021-05-18T09:39:09Z</time>
      </trkpt>
      <trkpt lat="41.8132960" lon="-8.8645500">
        <ele>5.8</ele>
        <time>2021-05-18T09:39:10Z</time>
      </trkpt>
      <trkpt lat="41.8133010" lon="-8.8645600">
        <ele>5.8</ele>
        <time>2021-05-18T09:39:11Z</time>
      </trkpt>
      <trkpt lat="41.8133110" lon="-8.8645720">
        <ele>5.8</ele>
        <time>2021-05-18T09:39:12Z</time>
      </trkpt>
      <trkpt lat="41.8133160" lon="-8.8645920">
        <ele>5.8</ele>
        <time>2021-05-18T09:39:13Z</time>
      </trkpt>
      <trkpt lat="41.8133230" lon="-8.8646040">
        <ele>5.8</ele>
        <time>2021-05-18T09:39:14Z</time>
      </trkpt>
      <trkpt lat="41.8133330" lon="-8.8646170">
        <ele>5.8</ele>
        <time>2021-05-18T09:39:15Z</time>
      </trkpt>
      <trkpt lat="41.8133410" lon="-8.8646240">
        <ele>5.8</ele>
        <time>2021-05-18T09:39:16Z</time>
      </trkpt>
      <trkpt lat="41.8133560" lon="-8.8646460">
        <ele>5.8</ele>
        <time>2021-05-18T09:39:17Z</time>
      </trkpt>
      <trkpt lat="41.8133620" lon="-8.8646550">
        <ele>5.8</ele>
        <time>2021-05-18T09:39:18Z</time>
      </trkpt>
      <trkpt lat="41.8133690" lon="-8.8646640">
        <ele>5.8</ele>
        <time>2021-05-18T09:39:19Z</time>
      </trkpt>
      <trkpt lat="41.8133870" lon="-8.8646890">
        <ele>5.8</ele>
        <time>2021-05-18T09:39:20Z</time>
      </trkpt>
      <trkpt lat="41.8133950" lon="-8.8647010">
        <ele>5.8</ele>
        <time>2021-05-18T09:39:21Z</time>
      </trkpt>
      <trkpt lat="41.8134040" lon="-8.8647140">
        <ele>5.8</ele>
        <time>2021-05-18T09:39:22Z</time>
      </trkpt>
      <trkpt lat="41.8134150" lon="-8.8647240">
        <ele>5.8</ele>
        <time>2021-05-18T09:39:23Z</time>
      </trkpt>
      <trkpt lat="41.8134180" lon="-8.8647380">
        <ele>5.8</ele>
        <time>2021-05-18T09:39:24Z</time>
      </trkpt>
      <trkpt lat="41.8134320" lon="-8.8647450">
        <ele>5.8</ele>
        <time>2021-05-18T09:39:25Z</time>
      </trkpt>
      <trkpt lat="41.8134410" lon="-8.8647600">
        <ele>5.8</ele>
        <time>2021-05-18T09:39:26Z</time>
      </trkpt>
      <trkpt lat="41.8134490" lon="-8.8647760">
        <ele>5.8</ele>
        <time>2021-05-18T09:39:27Z</time>
      </trkpt>
      <trkpt lat="41.8134620" lon="-8.8647890">
        <ele>5.8</ele>
        <time>2021-05-18T09:39:28Z</time>
      </trkpt>
      <trkpt lat="41.8134720" lon="-8.8648040">
        <ele>5.8</ele>
        <time>2021-05-18T09:39:29Z</time>
      </trkpt>
      <trkpt lat="41.8134810" lon="-8.8648150">
        <ele>5.8</ele>
        <time>2021-05-18T09:39:30Z</time>
      </trkpt>
      <trkpt lat="41.8134940" lon="-8.8648370">
        <ele>5.8</ele>
        <time>2021-05-18T09:39:31Z</time>
      </trkpt>
      <trkpt lat="41.8134990" lon="-8.8648460">
        <ele>5.8</ele>
        <time>2021-05-18T09:39:32Z</time>
      </trkpt>
      <trkpt lat="41.8135050" lon="-8.8648550">
        <ele>5.8</ele>
        <time>2021-05-18T09:39:33Z</time>
      </trkpt>
      <trkpt lat="41.8135160" lon="-8.8648790">
        <ele>5.8</ele>
        <time>2021-05-18T09:39:34Z</time>
      </trkpt>
      <trkpt lat="41.8135200" lon="-8.8648890">
        <ele>5.8</ele>
        <time>2021-05-18T09:39:35Z</time>
      </trkpt>
      <trkpt lat="41.8135240" lon="-8.8648990">
        <ele>5.8</ele>
        <time>2021-05-18T09:39:36Z</time>
      </trkpt>
      <trkpt lat="41.8135350" lon="-8.8649090">
        <ele>5.8</ele>
        <time>2021-05-18T09:39:37Z</time>
      </trkpt>
      <trkpt lat="41.8135420" lon="-8.8649200">
        <ele>5.8</ele>
        <time>2021-05-18T09:39:38Z</time>
      </trkpt>
      <trkpt lat="41.8135520" lon="-8.8649250">
        <ele>5.8</ele>
        <time>2021-05-18T09:39:39Z</time>
      </trkpt>
      <trkpt lat="41.8135690" lon="-8.8649390">
        <ele>5.8</ele>
        <time>2021-05-18T09:39:40Z</time>
      </trkpt>
      <trkpt lat="41.8135770" lon="-8.8649440">
        <ele>5.8</ele>
        <time>2021-05-18T09:39:41Z</time>
      </trkpt>
      <trkpt lat="41.8135850" lon="-8.8649490">
        <ele>5.8</ele>
        <time>2021-05-18T09:39:42Z</time>
      </trkpt>
      <trkpt lat="41.8135910" lon="-8.8649640">
        <ele>5.8</ele>
        <time>2021-05-18T09:39:43Z</time>
      </trkpt>
      <trkpt lat="41.8135990" lon="-8.8649750">
        <ele>5.8</ele>
        <time>2021-05-18T09:39:44Z</time>
      </trkpt>
      <trkpt lat="41.8136040" lon="-8.8649860">
        <ele>5.8</ele>
        <time>2021-05-18T09:39:45Z</time>
      </trkpt>
      <trkpt lat="41.8136120" lon="-8.8650010">
        <ele>5.8</ele>
        <time>2021-05-18T09:39:46Z</time>
      </trkpt>
      <trkpt lat="41.8136240" lon="-8.8650140">
        <ele>5.8</ele>
        <time>2021-05-18T09:39:47Z</time>
      </trkpt>
      <trkpt lat="41.8136340" lon="-8.8650260">
        <ele>5.8</ele>
        <time>2021-05-18T09:39:48Z</time>
      </trkpt>
      <trkpt lat="41.8136450" lon="-8.8650380">
        <ele>5.8</ele>
        <time>2021-05-18T09:39:49Z</time>
      </trkpt>
      <trkpt lat="41.8136500" lon="-8.8650570">
        <ele>5.8</ele>
        <time>2021-05-18T09:39:50Z</time>
      </trkpt>
      <trkpt lat="41.8136620" lon="-8.8650680">
        <ele>5.8</ele>
        <time>2021-05-18T09:39:51Z</time>
      </trkpt>
      <trkpt lat="41.8136740" lon="-8.8650780">
        <ele>5.8</ele>
        <time>2021-05-18T09:39:52Z</time>
      </trkpt>
      <trkpt lat="41.8136860" lon="-8.8650890">
        <ele>5.8</ele>
        <time>2021-05-18T09:39:53Z</time>
      </trkpt>
      <trkpt lat="41.8137030" lon="-8.8651070">
        <ele>5.8</ele>
        <time>2021-05-18T09:39:54Z</time>
      </trkpt>
      <trkpt lat="41.8137080" lon="-8.8651180">
        <ele>5.8</ele>
        <time>2021-05-18T09:39:55Z</time>
      </trkpt>
      <trkpt lat="41.8137120" lon="-8.8651300">
        <ele>5.8</ele>
        <time>2021-05-18T09:39:56Z</time>
      </trkpt>
      <trkpt lat="41.8137220" lon="-8.8651450">
        <ele>5.8</ele>
        <time>2021-05-18T09:39:57Z</time>
      </trkpt>
      <trkpt lat="41.8137300" lon="-8.8651580">
        <ele>5.8</ele>
        <time>2021-05-18T09:39:58Z</time>
      </trkpt>
      <trkpt lat="41.8137440" lon="-8.8651810">
        <ele>5.8</ele>
        <time>2021-05-18T09:39:59Z</time>
      </trkpt>
      <trkpt lat="41.8137490" lon="-8.8651880">
        <ele>5.8</ele>
        <time>2021-05-18T09:40:00Z</time>
      </trkpt>
      <trkpt lat="41.8137550" lon="-8.8651950">
        <ele>5.8</ele>
        <time>2021-05-18T09:40:01Z</time>
      </trkpt>
      <trkpt lat="41.8137700" lon="-8.8652160">
        <ele>5.8</ele>
        <time>2021-05-18T09:40:02Z</time>
      </trkpt>
      <trkpt lat="41.8137750" lon="-8.8652240">
        <ele>5.8</ele>
        <time>2021-05-18T09:40:03Z</time>
      </trkpt>
      <trkpt lat="41.8137810" lon="-8.8652310">
        <ele>5.8</ele>
        <time>2021-05-18T09:40:04Z</time>
      </trkpt>
      <trkpt lat="41.8137910" lon="-8.8652490">
        <ele>5.8</ele>
        <time>2021-05-18T09:40:05Z</time>
      </trkpt>
      <trkpt lat="41.8138040" lon="-8.8652610">
        <ele>5.8</ele>
        <time>2021-05-18T09:40:06Z</time>
      </trkpt>
      <trkpt lat="41.8138180" lon="-8.8652850">
        <ele>5.8</ele>
        <time>2021-05-18T09:40:07Z</time>
      </trkpt>
      <trkpt lat="41.8138240" lon="-8.8652940">
        <ele>5.8</ele>
        <time>2021-05-18T09:40:08Z</time>
      </trkpt>
      <trkpt lat="41.8138290" lon="-8.8653040">
        <ele>5.8</ele>
        <time>2021-05-18T09:40:09Z</time>
      </trkpt>
      <trkpt lat="41.8138390" lon="-8.8653150">
        <ele>5.8</ele>
        <time>2021-05-18T09:40:10Z</time>
      </trkpt>
      <trkpt lat="41.8138490" lon="-8.8653290">
        <ele>5.8</ele>
        <time>2021-05-18T09:40:11Z</time>
      </trkpt>
      <trkpt lat="41.8138650" lon="-8.8653480">
        <ele>5.8</ele>
        <time>2021-05-18T09:40:12Z</time>
      </trkpt>
      <trkpt lat="41.8138720" lon="-8.8653560">
        <ele>5.8</ele>
        <time>2021-05-18T09:40:13Z</time>
      </trkpt>
      <trkpt lat="41.8138780" lon="-8.8653650">
        <ele>5.8</ele>
        <time>2021-05-18T09:40:14Z</time>
      </trkpt>
      <trkpt lat="41.8138880" lon="-8.8653880">
        <ele>5.8</ele>
        <time>2021-05-18T09:40:15Z</time>
      </trkpt>
      <trkpt lat="41.8138930" lon="-8.8653980">
        <ele>5.8</ele>
        <time>2021-05-18T09:40:16Z</time>
      </trkpt>
      <trkpt lat="41.8138980" lon="-8.8654070">
        <ele>5.8</ele>
        <time>2021-05-18T09:40:17Z</time>
      </trkpt>
      <trkpt lat="41.8139070" lon="-8.8654210">
        <ele>5.8</ele>
        <time>2021-05-18T09:40:18Z</time>
      </trkpt>
      <trkpt lat="41.8139210" lon="-8.8654280">
        <ele>5.8</ele>
        <time>2021-05-18T09:40:19Z</time>
      </trkpt>
      <trkpt lat="41.8139400" lon="-8.8654410">
        <ele>5.8</ele>
        <time>2021-05-18T09:40:20Z</time>
      </trkpt>
      <trkpt lat="41.8139460" lon="-8.8654490">
        <ele>5.8</ele>
        <time>2021-05-18T09:40:21Z</time>
      </trkpt>
      <trkpt lat="41.8139520" lon="-8.8654570">
        <ele>5.8</ele>
        <time>2021-05-18T09:40:22Z</time>
      </trkpt>
      <trkpt lat="41.8139690" lon="-8.8654760">
        <ele>5.8</ele>
        <time>2021-05-18T09:40:23Z</time>
      </trkpt>
      <trkpt lat="41.8139750" lon="-8.8654830">
        <ele>5.8</ele>
        <time>2021-05-18T09:40:24Z</time>
      </trkpt>
      <trkpt lat="41.8139800" lon="-8.8654910">
        <ele>5.8</ele>
        <time>2021-05-18T09:40:25Z</time>
      </trkpt>
      <trkpt lat="41.8139940" lon="-8.8654980">
        <ele>5.8</ele>
        <time>2021-05-18T09:40:26Z</time>
      </trkpt>
      <trkpt lat="41.8140050" lon="-8.8655080">
        <ele>5.8</ele>
        <time>2021-05-18T09:40:27Z</time>
      </trkpt>
      <trkpt lat="41.8140130" lon="-8.8655230">
        <ele>5.8</ele>
        <time>2021-05-18T09:40:28Z</time>
      </trkpt>
      <trkpt lat="41.8140200" lon="-8.8655400">
        <ele>5.8</ele>
        <time>2021-05-18T09:40:29Z</time>
      </trkpt>
      <trkpt lat="41.8140330" lon="-8.8655600">
        <ele>5.8</ele>
        <time>2021-05-18T09:40:30Z</time>
      </trkpt>
      <trkpt lat="41.8140420" lon="-8.8655640">
        <ele>5.8</ele>
        <time>2021-05-18T09:40:31Z</time>
      </trkpt>
      <trkpt lat="41.8140510" lon="-8.8655690">
        <ele>5.8</ele>
        <time>2021-05-18T09:40:32Z</time>
      </trkpt>
      <trkpt lat="41.8140600" lon="-8.8655750">
        <ele>5.8</ele>
        <time>2021-05-18T09:40:33Z</time>
      </trkpt>
      <trkpt lat="41.8140670" lon="-8.8655870">
        <ele>5.8</ele>
        <time>2021-05-18T09:40:34Z</time>
      </trkpt>
      <trkpt lat="41.8140770" lon="-8.8655970">
        <ele>5.8</ele>
        <time>2021-05-18T09:40:35Z</time>
      </trkpt>
      <trkpt lat="41.8140850" lon="-8.8656120">
        <ele>5.8</ele>
        <time>2021-05-18T09:40:36Z</time>
      </trkpt>
      <trkpt lat="41.8140930" lon="-8.8656270">
        <ele>5.8</ele>
        <time>2021-05-18T09:40:37Z</time>
      </trkpt>
      <trkpt lat="41.8141010" lon="-8.8656440">
        <ele>5.8</ele>
        <time>2021-05-18T09:40:38Z</time>
      </trkpt>
      <trkpt lat="41.8141050" lon="-8.8656620">
        <ele>5.8</ele>
        <time>2021-05-18T09:40:39Z</time>
      </trkpt>
      <trkpt lat="41.8141150" lon="-8.8656880">
        <ele>5.8</ele>
        <time>2021-05-18T09:40:40Z</time>
      </trkpt>
      <trkpt lat="41.8141190" lon="-8.8656990">
        <ele>5.8</ele>
        <time>2021-05-18T09:40:41Z</time>
      </trkpt>
      <trkpt lat="41.8141240" lon="-8.8657090">
        <ele>5.8</ele>
        <time>2021-05-18T09:40:42Z</time>
      </trkpt>
      <trkpt lat="41.8141360" lon="-8.8657240">
        <ele>5.8</ele>
        <time>2021-05-18T09:40:43Z</time>
      </trkpt>
      <trkpt lat="41.8141440" lon="-8.8657370">
        <ele>5.8</ele>
        <time>2021-05-18T09:40:44Z</time>
      </trkpt>
      <trkpt lat="41.8141540" lon="-8.8657480">
        <ele>5.8</ele>
        <time>2021-05-18T09:40:45Z</time>
      </trkpt>
      <trkpt lat="41.8141640" lon="-8.8657610">
        <ele>5.8</ele>
        <time>2021-05-18T09:40:46Z</time>
      </trkpt>
      <trkpt lat="41.8141740" lon="-8.8657720">
        <ele>5.8</ele>
        <time>2021-05-18T09:40:47Z</time>
      </trkpt>
      <trkpt lat="41.8141850" lon="-8.8657840">
        <ele>5.8</ele>
        <time>2021-05-18T09:40:48Z</time>
      </trkpt>
      <trkpt lat="41.8141980" lon="-8.8657930">
        <ele>5.8</ele>
        <time>2021-05-18T09:40:49Z</time>
      </trkpt>
      <trkpt lat="41.8142100" lon="-8.8658020">
        <ele>5.8</ele>
        <time>2021-05-18T09:40:50Z</time>
      </trkpt>
      <trkpt lat="41.8142170" lon="-8.8658210">
        <ele>5.8</ele>
        <time>2021-05-18T09:40:51Z</time>
      </trkpt>
      <trkpt lat="41.8142250" lon="-8.8658380">
        <ele>5.8</ele>
        <time>2021-05-18T09:40:52Z</time>
      </trkpt>
      <trkpt lat="41.8142360" lon="-8.8658500">
        <ele>5.8</ele>
        <time>2021-05-18T09:40:53Z</time>
      </trkpt>
      <trkpt lat="41.8142470" lon="-8.8658590">
        <ele>5.8</ele>
        <time>2021-05-18T09:40:54Z</time>
      </trkpt>
      <trkpt lat="41.8142550" lon="-8.8658750">
        <ele>5.8</ele>
        <time>2021-05-18T09:40:55Z</time>
      </trkpt>
      <trkpt lat="41.8142680" lon="-8.8658850">
        <ele>5.8</ele>
        <time>2021-05-18T09:40:56Z</time>
      </trkpt>
      <trkpt lat="41.8142830" lon="-8.8659050">
        <ele>5.8</ele>
        <time>2021-05-18T09:40:57Z</time>
      </trkpt>
      <trkpt lat="41.8142910" lon="-8.8659100">
        <ele>5.8</ele>
        <time>2021-05-18T09:40:58Z</time>
      </trkpt>
      <trkpt lat="41.8142990" lon="-8.8659140">
        <ele>5.7</ele>
        <time>2021-05-18T09:40:59Z</time>
      </trkpt>
      <trkpt lat="41.8143080" lon="-8.8659240">
        <ele>5.7</ele>
        <time>2021-05-18T09:41:00Z</time>
      </trkpt>
      <trkpt lat="41.8143160" lon="-8.8659300">
        <ele>5.7</ele>
        <time>2021-05-18T09:41:01Z</time>
      </trkpt>
      <trkpt lat="41.8143250" lon="-8.8659290">
        <ele>5.7</ele>
        <time>2021-05-18T09:41:02Z</time>
      </trkpt>
      <trkpt lat="41.8143340" lon="-8.8659450">
        <ele>5.7</ele>
        <time>2021-05-18T09:41:03Z</time>
      </trkpt>
      <trkpt lat="41.8143390" lon="-8.8659650">
        <ele>5.7</ele>
        <time>2021-05-18T09:41:04Z</time>
      </trkpt>
      <trkpt lat="41.8143510" lon="-8.8659770">
        <ele>5.7</ele>
        <time>2021-05-18T09:41:05Z</time>
      </trkpt>
      <trkpt lat="41.8143600" lon="-8.8659880">
        <ele>5.7</ele>
        <time>2021-05-18T09:41:06Z</time>
      </trkpt>
      <trkpt lat="41.8143600" lon="-8.8659940">
        <ele>5.7</ele>
        <time>2021-05-18T09:41:07Z</time>
      </trkpt>
      <trkpt lat="41.8143710" lon="-8.8660110">
        <ele>5.7</ele>
        <time>2021-05-18T09:41:08Z</time>
      </trkpt>
      <trkpt lat="41.8143800" lon="-8.8660170">
        <ele>5.7</ele>
        <time>2021-05-18T09:41:09Z</time>
      </trkpt>
      <trkpt lat="41.8143890" lon="-8.8660360">
        <ele>5.7</ele>
        <time>2021-05-18T09:41:10Z</time>
      </trkpt>
      <trkpt lat="41.8143970" lon="-8.8660530">
        <ele>5.7</ele>
        <time>2021-05-18T09:41:11Z</time>
      </trkpt>
      <trkpt lat="41.8144020" lon="-8.8660590">
        <ele>5.7</ele>
        <time>2021-05-18T09:41:12Z</time>
      </trkpt>
      <trkpt lat="41.8144100" lon="-8.8660770">
        <ele>5.7</ele>
        <time>2021-05-18T09:41:13Z</time>
      </trkpt>
      <trkpt lat="41.8144200" lon="-8.8660820">
        <ele>5.7</ele>
        <time>2021-05-18T09:41:14Z</time>
      </trkpt>
      <trkpt lat="41.8144320" lon="-8.8660930">
        <ele>5.7</ele>
        <time>2021-05-18T09:41:15Z</time>
      </trkpt>
      <trkpt lat="41.8144410" lon="-8.8661050">
        <ele>5.7</ele>
        <time>2021-05-18T09:41:16Z</time>
      </trkpt>
      <trkpt lat="41.8144570" lon="-8.8661120">
        <ele>5.7</ele>
        <time>2021-05-18T09:41:17Z</time>
      </trkpt>
      <trkpt lat="41.8144670" lon="-8.8661250">
        <ele>5.7</ele>
        <time>2021-05-18T09:41:18Z</time>
      </trkpt>
      <trkpt lat="41.8144760" lon="-8.8661410">
        <ele>5.7</ele>
        <time>2021-05-18T09:41:19Z</time>
      </trkpt>
      <trkpt lat="41.8144850" lon="-8.8661550">
        <ele>5.7</ele>
        <time>2021-05-18T09:41:20Z</time>
      </trkpt>
      <trkpt lat="41.8144920" lon="-8.8661700">
        <ele>5.7</ele>
        <time>2021-05-18T09:41:21Z</time>
      </trkpt>
      <trkpt lat="41.8144950" lon="-8.8661920">
        <ele>5.7</ele>
        <time>2021-05-18T09:41:22Z</time>
      </trkpt>
      <trkpt lat="41.8145090" lon="-8.8662120">
        <ele>5.7</ele>
        <time>2021-05-18T09:41:23Z</time>
      </trkpt>
      <trkpt lat="41.8145170" lon="-8.8662200">
        <ele>5.7</ele>
        <time>2021-05-18T09:41:24Z</time>
      </trkpt>
      <trkpt lat="41.8145240" lon="-8.8662270">
        <ele>5.7</ele>
        <time>2021-05-18T09:41:25Z</time>
      </trkpt>
      <trkpt lat="41.8145340" lon="-8.8662400">
        <ele>5.7</ele>
        <time>2021-05-18T09:41:26Z</time>
      </trkpt>
      <trkpt lat="41.8145440" lon="-8.8662560">
        <ele>5.7</ele>
        <time>2021-05-18T09:41:27Z</time>
      </trkpt>
      <trkpt lat="41.8145570" lon="-8.8662680">
        <ele>5.7</ele>
        <time>2021-05-18T09:41:28Z</time>
      </trkpt>
      <trkpt lat="41.8145630" lon="-8.8662840">
        <ele>5.7</ele>
        <time>2021-05-18T09:41:29Z</time>
      </trkpt>
      <trkpt lat="41.8145720" lon="-8.8662990">
        <ele>5.7</ele>
        <time>2021-05-18T09:41:30Z</time>
      </trkpt>
      <trkpt lat="41.8145810" lon="-8.8663140">
        <ele>5.6</ele>
        <time>2021-05-18T09:41:31Z</time>
      </trkpt>
      <trkpt lat="41.8145940" lon="-8.8663250">
        <ele>5.6</ele>
        <time>2021-05-18T09:41:32Z</time>
      </trkpt>
      <trkpt lat="41.8146030" lon="-8.8663400">
        <ele>5.6</ele>
        <time>2021-05-18T09:41:33Z</time>
      </trkpt>
      <trkpt lat="41.8146080" lon="-8.8663600">
        <ele>5.6</ele>
        <time>2021-05-18T09:41:34Z</time>
      </trkpt>
      <trkpt lat="41.8146180" lon="-8.8663700">
        <ele>5.6</ele>
        <time>2021-05-18T09:41:35Z</time>
      </trkpt>
      <trkpt lat="41.8146340" lon="-8.8663870">
        <ele>5.6</ele>
        <time>2021-05-18T09:41:36Z</time>
      </trkpt>
      <trkpt lat="41.8146410" lon="-8.8663950">
        <ele>5.6</ele>
        <time>2021-05-18T09:41:37Z</time>
      </trkpt>
      <trkpt lat="41.8146470" lon="-8.8664030">
        <ele>5.6</ele>
        <time>2021-05-18T09:41:38Z</time>
      </trkpt>
      <trkpt lat="41.8146600" lon="-8.8664250">
        <ele>5.6</ele>
        <time>2021-05-18T09:41:39Z</time>
      </trkpt>
      <trkpt lat="41.8146660" lon="-8.8664330">
        <ele>5.6</ele>
        <time>2021-05-18T09:41:40Z</time>
      </trkpt>
      <trkpt lat="41.8146720" lon="-8.8664410">
        <ele>5.6</ele>
        <time>2021-05-18T09:41:41Z</time>
      </trkpt>
      <trkpt lat="41.8146840" lon="-8.8664520">
        <ele>5.5</ele>
        <time>2021-05-18T09:41:42Z</time>
      </trkpt>
      <trkpt lat="41.8146910" lon="-8.8664700">
        <ele>5.5</ele>
        <time>2021-05-18T09:41:43Z</time>
      </trkpt>
      <trkpt lat="41.8147070" lon="-8.8664900">
        <ele>5.5</ele>
        <time>2021-05-18T09:41:44Z</time>
      </trkpt>
      <trkpt lat="41.8147130" lon="-8.8664980">
        <ele>5.5</ele>
        <time>2021-05-18T09:41:45Z</time>
      </trkpt>
      <trkpt lat="41.8147200" lon="-8.8665070">
        <ele>5.5</ele>
        <time>2021-05-18T09:41:46Z</time>
      </trkpt>
      <trkpt lat="41.8147380" lon="-8.8665230">
        <ele>5.5</ele>
        <time>2021-05-18T09:41:47Z</time>
      </trkpt>
      <trkpt lat="41.8147460" lon="-8.8665280">
        <ele>5.5</ele>
        <time>2021-05-18T09:41:48Z</time>
      </trkpt>
      <trkpt lat="41.8147550" lon="-8.8665320">
        <ele>5.4</ele>
        <time>2021-05-18T09:41:49Z</time>
      </trkpt>
      <trkpt lat="41.8147660" lon="-8.8665430">
        <ele>5.4</ele>
        <time>2021-05-18T09:41:50Z</time>
      </trkpt>
      <trkpt lat="41.8147770" lon="-8.8665570">
        <ele>5.4</ele>
        <time>2021-05-18T09:41:51Z</time>
      </trkpt>
      <trkpt lat="41.8147860" lon="-8.8665710">
        <ele>5.4</ele>
        <time>2021-05-18T09:41:52Z</time>
      </trkpt>
      <trkpt lat="41.8147980" lon="-8.8665810">
        <ele>5.4</ele>
        <time>2021-05-18T09:41:53Z</time>
      </trkpt>
      <trkpt lat="41.8148100" lon="-8.8665890">
        <ele>5.4</ele>
        <time>2021-05-18T09:41:54Z</time>
      </trkpt>
      <trkpt lat="41.8148220" lon="-8.8665990">
        <ele>5.4</ele>
        <time>2021-05-18T09:41:55Z</time>
      </trkpt>
      <trkpt lat="41.8148350" lon="-8.8666070">
        <ele>5.3</ele>
        <time>2021-05-18T09:41:56Z</time>
      </trkpt>
      <trkpt lat="41.8148480" lon="-8.8666100">
        <ele>5.3</ele>
        <time>2021-05-18T09:41:57Z</time>
      </trkpt>
      <trkpt lat="41.8148580" lon="-8.8666220">
        <ele>5.3</ele>
        <time>2021-05-18T09:41:58Z</time>
      </trkpt>
      <trkpt lat="41.8148700" lon="-8.8666320">
        <ele>5.3</ele>
        <time>2021-05-18T09:41:59Z</time>
      </trkpt>
      <trkpt lat="41.8148850" lon="-8.8666530">
        <ele>5.3</ele>
        <time>2021-05-18T09:42:00Z</time>
      </trkpt>
      <trkpt lat="41.8148930" lon="-8.8666590">
        <ele>5.3</ele>
        <time>2021-05-18T09:42:01Z</time>
      </trkpt>
      <trkpt lat="41.8149000" lon="-8.8666660">
        <ele>5.3</ele>
        <time>2021-05-18T09:42:02Z</time>
      </trkpt>
      <trkpt lat="41.8149110" lon="-8.8666770">
        <ele>5.3</ele>
        <time>2021-05-18T09:42:03Z</time>
      </trkpt>
      <trkpt lat="41.8149250" lon="-8.8666840">
        <ele>5.3</ele>
        <time>2021-05-18T09:42:04Z</time>
      </trkpt>
      <trkpt lat="41.8149390" lon="-8.8666910">
        <ele>5.3</ele>
        <time>2021-05-18T09:42:05Z</time>
      </trkpt>
      <trkpt lat="41.8149510" lon="-8.8667000">
        <ele>5.3</ele>
        <time>2021-05-18T09:42:06Z</time>
      </trkpt>
      <trkpt lat="41.8149630" lon="-8.8667010">
        <ele>5.3</ele>
        <time>2021-05-18T09:42:07Z</time>
      </trkpt>
      <trkpt lat="41.8149780" lon="-8.8667070">
        <ele>5.3</ele>
        <time>2021-05-18T09:42:08Z</time>
      </trkpt>
      <trkpt lat="41.8149920" lon="-8.8667110">
        <ele>5.3</ele>
        <time>2021-05-18T09:42:09Z</time>
      </trkpt>
      <trkpt lat="41.8150080" lon="-8.8667130">
        <ele>5.3</ele>
        <time>2021-05-18T09:42:10Z</time>
      </trkpt>
      <trkpt lat="41.8150230" lon="-8.8667190">
        <ele>5.3</ele>
        <time>2021-05-18T09:42:11Z</time>
      </trkpt>
      <trkpt lat="41.8150380" lon="-8.8667190">
        <ele>5.3</ele>
        <time>2021-05-18T09:42:12Z</time>
      </trkpt>
      <trkpt lat="41.8150490" lon="-8.8667200">
        <ele>5.3</ele>
        <time>2021-05-18T09:42:13Z</time>
      </trkpt>
      <trkpt lat="41.8150640" lon="-8.8667270">
        <ele>5.3</ele>
        <time>2021-05-18T09:42:14Z</time>
      </trkpt>
      <trkpt lat="41.8150770" lon="-8.8667260">
        <ele>5.3</ele>
        <time>2021-05-18T09:42:15Z</time>
      </trkpt>
      <trkpt lat="41.8150930" lon="-8.8667250">
        <ele>5.3</ele>
        <time>2021-05-18T09:42:16Z</time>
      </trkpt>
      <trkpt lat="41.8151140" lon="-8.8667250">
        <ele>5.3</ele>
        <time>2021-05-18T09:42:17Z</time>
      </trkpt>
      <trkpt lat="41.8151240" lon="-8.8667250">
        <ele>5.3</ele>
        <time>2021-05-18T09:42:18Z</time>
      </trkpt>
      <trkpt lat="41.8151330" lon="-8.8667250">
        <ele>5.3</ele>
        <time>2021-05-18T09:42:19Z</time>
      </trkpt>
      <trkpt lat="41.8151480" lon="-8.8667230">
        <ele>5.4</ele>
        <time>2021-05-18T09:42:20Z</time>
      </trkpt>
      <trkpt lat="41.8151620" lon="-8.8667210">
        <ele>5.4</ele>
        <time>2021-05-18T09:42:21Z</time>
      </trkpt>
      <trkpt lat="41.8151840" lon="-8.8667140">
        <ele>5.4</ele>
        <time>2021-05-18T09:42:22Z</time>
      </trkpt>
      <trkpt lat="41.8151920" lon="-8.8667110">
        <ele>5.4</ele>
        <time>2021-05-18T09:42:23Z</time>
      </trkpt>
      <trkpt lat="41.8152010" lon="-8.8667090">
        <ele>5.4</ele>
        <time>2021-05-18T09:42:24Z</time>
      </trkpt>
      <trkpt lat="41.8152240" lon="-8.8666990">
        <ele>5.5</ele>
        <time>2021-05-18T09:42:25Z</time>
      </trkpt>
      <trkpt lat="41.8152330" lon="-8.8666970">
        <ele>5.5</ele>
        <time>2021-05-18T09:42:26Z</time>
      </trkpt>
      <trkpt lat="41.8152420" lon="-8.8666960">
        <ele>5.5</ele>
        <time>2021-05-18T09:42:27Z</time>
      </trkpt>
      <trkpt lat="41.8152610" lon="-8.8666920">
        <ele>5.6</ele>
        <time>2021-05-18T09:42:28Z</time>
      </trkpt>
      <trkpt lat="41.8152700" lon="-8.8666890">
        <ele>5.6</ele>
        <time>2021-05-18T09:42:29Z</time>
      </trkpt>
      <trkpt lat="41.8152780" lon="-8.8666870">
        <ele>5.6</ele>
        <time>2021-05-18T09:42:30Z</time>
      </trkpt>
      <trkpt lat="41.8152930" lon="-8.8666850">
        <ele>5.6</ele>
        <time>2021-05-18T09:42:31Z</time>
      </trkpt>
      <trkpt lat="41.8153080" lon="-8.8666780">
        <ele>5.7</ele>
        <time>2021-05-18T09:42:32Z</time>
      </trkpt>
      <trkpt lat="41.8153230" lon="-8.8666750">
        <ele>5.7</ele>
        <time>2021-05-18T09:42:33Z</time>
      </trkpt>
      <trkpt lat="41.8153360" lon="-8.8666670">
        <ele>5.7</ele>
        <time>2021-05-18T09:42:34Z</time>
      </trkpt>
      <trkpt lat="41.8153500" lon="-8.8666600">
        <ele>5.8</ele>
        <time>2021-05-18T09:42:35Z</time>
      </trkpt>
      <trkpt lat="41.8153650" lon="-8.8666600">
        <ele>5.8</ele>
        <time>2021-05-18T09:42:36Z</time>
      </trkpt>
      <trkpt lat="41.8153810" lon="-8.8666580">
        <ele>5.8</ele>
        <time>2021-05-18T09:42:37Z</time>
      </trkpt>
      <trkpt lat="41.8153930" lon="-8.8666550">
        <ele>5.9</ele>
        <time>2021-05-18T09:42:38Z</time>
      </trkpt>
      <trkpt lat="41.8154080" lon="-8.8666520">
        <ele>5.9</ele>
        <time>2021-05-18T09:42:39Z</time>
      </trkpt>
      <trkpt lat="41.8154210" lon="-8.8666490">
        <ele>5.9</ele>
        <time>2021-05-18T09:42:40Z</time>
      </trkpt>
      <trkpt lat="41.8154340" lon="-8.8666460">
        <ele>6.0</ele>
        <time>2021-05-18T09:42:41Z</time>
      </trkpt>
      <trkpt lat="41.8154480" lon="-8.8666400">
        <ele>6.0</ele>
        <time>2021-05-18T09:42:42Z</time>
      </trkpt>
      <trkpt lat="41.8154600" lon="-8.8666310">
        <ele>6.0</ele>
        <time>2021-05-18T09:42:43Z</time>
      </trkpt>
      <trkpt lat="41.8154730" lon="-8.8666230">
        <ele>6.1</ele>
        <time>2021-05-18T09:42:44Z</time>
      </trkpt>
      <trkpt lat="41.8154960" lon="-8.8666210">
        <ele>6.1</ele>
        <time>2021-05-18T09:42:45Z</time>
      </trkpt>
      <trkpt lat="41.8155060" lon="-8.8666210">
        <ele>6.2</ele>
        <time>2021-05-18T09:42:46Z</time>
      </trkpt>
      <trkpt lat="41.8155160" lon="-8.8666210">
        <ele>6.2</ele>
        <time>2021-05-18T09:42:47Z</time>
      </trkpt>
      <trkpt lat="41.8155300" lon="-8.8666220">
        <ele>6.2</ele>
        <time>2021-05-18T09:42:48Z</time>
      </trkpt>
      <trkpt lat="41.8155440" lon="-8.8666190">
        <ele>6.2</ele>
        <time>2021-05-18T09:42:49Z</time>
      </trkpt>
      <trkpt lat="41.8155580" lon="-8.8666160">
        <ele>6.3</ele>
        <time>2021-05-18T09:42:50Z</time>
      </trkpt>
      <trkpt lat="41.8155730" lon="-8.8666130">
        <ele>6.3</ele>
        <time>2021-05-18T09:42:51Z</time>
      </trkpt>
      <trkpt lat="41.8155860" lon="-8.8666090">
        <ele>6.3</ele>
        <time>2021-05-18T09:42:52Z</time>
      </trkpt>
      <trkpt lat="41.8156000" lon="-8.8666100">
        <ele>6.4</ele>
        <time>2021-05-18T09:42:53Z</time>
      </trkpt>
      <trkpt lat="41.8156220" lon="-8.8666080">
        <ele>6.4</ele>
        <time>2021-05-18T09:42:54Z</time>
      </trkpt>
      <trkpt lat="41.8156310" lon="-8.8666050">
        <ele>6.4</ele>
        <time>2021-05-18T09:42:55Z</time>
      </trkpt>
      <trkpt lat="41.8156400" lon="-8.8666030">
        <ele>6.5</ele>
        <time>2021-05-18T09:42:56Z</time>
      </trkpt>
      <trkpt lat="41.8156530" lon="-8.8666060">
        <ele>6.5</ele>
        <time>2021-05-18T09:42:57Z</time>
      </trkpt>
      <trkpt lat="41.8156680" lon="-8.8666100">
        <ele>6.5</ele>
        <time>2021-05-18T09:42:58Z</time>
      </trkpt>
      <trkpt lat="41.8156800" lon="-8.8666210">
        <ele>6.6</ele>
        <time>2021-05-18T09:42:59Z</time>
      </trkpt>
      <trkpt lat="41.8156890" lon="-8.8666330">
        <ele>6.6</ele>
        <time>2021-05-18T09:43:00Z</time>
      </trkpt>
      <trkpt lat="41.8156950" lon="-8.8666630">
        <ele>6.6</ele>
        <time>2021-05-18T09:43:01Z</time>
      </trkpt>
      <trkpt lat="41.8156950" lon="-8.8666760">
        <ele>6.6</ele>
        <time>2021-05-18T09:43:02Z</time>
      </trkpt>
      <trkpt lat="41.8156960" lon="-8.8666890">
        <ele>6.7</ele>
        <time>2021-05-18T09:43:03Z</time>
      </trkpt>
      <trkpt lat="41.8156980" lon="-8.8667060">
        <ele>6.7</ele>
        <time>2021-05-18T09:43:04Z</time>
      </trkpt>
      <trkpt lat="41.8157020" lon="-8.8667260">
        <ele>6.7</ele>
        <time>2021-05-18T09:43:05Z</time>
      </trkpt>
      <trkpt lat="41.8157020" lon="-8.8667470">
        <ele>6.7</ele>
        <time>2021-05-18T09:43:06Z</time>
      </trkpt>
      <trkpt lat="41.8157070" lon="-8.8667650">
        <ele>6.7</ele>
        <time>2021-05-18T09:43:07Z</time>
      </trkpt>
      <trkpt lat="41.8157110" lon="-8.8667810">
        <ele>6.7</ele>
        <time>2021-05-18T09:43:08Z</time>
      </trkpt>
      <trkpt lat="41.8157200" lon="-8.8667970">
        <ele>6.8</ele>
        <time>2021-05-18T09:43:09Z</time>
      </trkpt>
      <trkpt lat="41.8157270" lon="-8.8668250">
        <ele>6.8</ele>
        <time>2021-05-18T09:43:10Z</time>
      </trkpt>
      <trkpt lat="41.8157300" lon="-8.8668390">
        <ele>6.8</ele>
        <time>2021-05-18T09:43:11Z</time>
      </trkpt>
      <trkpt lat="41.8157320" lon="-8.8668520">
        <ele>6.8</ele>
        <time>2021-05-18T09:43:12Z</time>
      </trkpt>
      <trkpt lat="41.8157400" lon="-8.8668790">
        <ele>6.8</ele>
        <time>2021-05-18T09:43:13Z</time>
      </trkpt>
      <trkpt lat="41.8157440" lon="-8.8668890">
        <ele>6.8</ele>
        <time>2021-05-18T09:43:14Z</time>
      </trkpt>
      <trkpt lat="41.8157470" lon="-8.8669000">
        <ele>6.8</ele>
        <time>2021-05-18T09:43:15Z</time>
      </trkpt>
      <trkpt lat="41.8157500" lon="-8.8669200">
        <ele>6.8</ele>
        <time>2021-05-18T09:43:16Z</time>
      </trkpt>
      <trkpt lat="41.8157560" lon="-8.8669380">
        <ele>6.8</ele>
        <time>2021-05-18T09:43:17Z</time>
      </trkpt>
      <trkpt lat="41.8157620" lon="-8.8669560">
        <ele>6.8</ele>
        <time>2021-05-18T09:43:18Z</time>
      </trkpt>
      <trkpt lat="41.8157720" lon="-8.8669710">
        <ele>6.8</ele>
        <time>2021-05-18T09:43:19Z</time>
      </trkpt>
      <trkpt lat="41.8157780" lon="-8.8669880">
        <ele>6.8</ele>
        <time>2021-05-18T09:43:20Z</time>
      </trkpt>
      <trkpt lat="41.8157770" lon="-8.8670120">
        <ele>6.8</ele>
        <time>2021-05-18T09:43:21Z</time>
      </trkpt>
      <trkpt lat="41.8157820" lon="-8.8670300">
        <ele>6.8</ele>
        <time>2021-05-18T09:43:22Z</time>
      </trkpt>
      <trkpt lat="41.8157880" lon="-8.8670470">
        <ele>6.8</ele>
        <time>2021-05-18T09:43:23Z</time>
      </trkpt>
      <trkpt lat="41.8157890" lon="-8.8670670">
        <ele>6.8</ele>
        <time>2021-05-18T09:43:24Z</time>
      </trkpt>
      <trkpt lat="41.8157990" lon="-8.8670820">
        <ele>6.8</ele>
        <time>2021-05-18T09:43:25Z</time>
      </trkpt>
      <trkpt lat="41.8158050" lon="-8.8671020">
        <ele>6.8</ele>
        <time>2021-05-18T09:43:26Z</time>
      </trkpt>
      <trkpt lat="41.8158120" lon="-8.8671210">
        <ele>6.8</ele>
        <time>2021-05-18T09:43:27Z</time>
      </trkpt>
      <trkpt lat="41.8158200" lon="-8.8671380">
        <ele>6.8</ele>
        <time>2021-05-18T09:43:28Z</time>
      </trkpt>
      <trkpt lat="41.8158270" lon="-8.8671530">
        <ele>6.8</ele>
        <time>2021-05-18T09:43:29Z</time>
      </trkpt>
      <trkpt lat="41.8158360" lon="-8.8671690">
        <ele>6.8</ele>
        <time>2021-05-18T09:43:30Z</time>
      </trkpt>
      <trkpt lat="41.8158450" lon="-8.8671840">
        <ele>6.8</ele>
        <time>2021-05-18T09:43:31Z</time>
      </trkpt>
      <trkpt lat="41.8158530" lon="-8.8672000">
        <ele>6.8</ele>
        <time>2021-05-18T09:43:32Z</time>
      </trkpt>
      <trkpt lat="41.8158590" lon="-8.8672160">
        <ele>6.8</ele>
        <time>2021-05-18T09:43:33Z</time>
      </trkpt>
      <trkpt lat="41.8158650" lon="-8.8672320">
        <ele>6.8</ele>
        <time>2021-05-18T09:43:34Z</time>
      </trkpt>
      <trkpt lat="41.8158700" lon="-8.8672500">
        <ele>6.8</ele>
        <time>2021-05-18T09:43:35Z</time>
      </trkpt>
      <trkpt lat="41.8158770" lon="-8.8672790">
        <ele>6.8</ele>
        <time>2021-05-18T09:43:36Z</time>
      </trkpt>
      <trkpt lat="41.8158830" lon="-8.8672890">
        <ele>6.8</ele>
        <time>2021-05-18T09:43:37Z</time>
      </trkpt>
      <trkpt lat="41.8158880" lon="-8.8672990">
        <ele>6.8</ele>
        <time>2021-05-18T09:43:38Z</time>
      </trkpt>
      <trkpt lat="41.8158980" lon="-8.8673140">
        <ele>6.8</ele>
        <time>2021-05-18T09:43:39Z</time>
      </trkpt>
      <trkpt lat="41.8159030" lon="-8.8673320">
        <ele>6.8</ele>
        <time>2021-05-18T09:43:40Z</time>
      </trkpt>
      <trkpt lat="41.8159150" lon="-8.8673470">
        <ele>6.8</ele>
        <time>2021-05-18T09:43:41Z</time>
      </trkpt>
      <trkpt lat="41.8159200" lon="-8.8673620">
        <ele>6.8</ele>
        <time>2021-05-18T09:43:42Z</time>
      </trkpt>
      <trkpt lat="41.8159240" lon="-8.8673820">
        <ele>6.8</ele>
        <time>2021-05-18T09:43:43Z</time>
      </trkpt>
      <trkpt lat="41.8159280" lon="-8.8674010">
        <ele>6.8</ele>
        <time>2021-05-18T09:43:44Z</time>
      </trkpt>
      <trkpt lat="41.8159330" lon="-8.8674190">
        <ele>6.8</ele>
        <time>2021-05-18T09:43:45Z</time>
      </trkpt>
      <trkpt lat="41.8159380" lon="-8.8674390">
        <ele>6.8</ele>
        <time>2021-05-18T09:43:46Z</time>
      </trkpt>
      <trkpt lat="41.8159490" lon="-8.8674530">
        <ele>6.8</ele>
        <time>2021-05-18T09:43:47Z</time>
      </trkpt>
      <trkpt lat="41.8159560" lon="-8.8674690">
        <ele>6.8</ele>
        <time>2021-05-18T09:43:48Z</time>
      </trkpt>
      <trkpt lat="41.8159620" lon="-8.8674860">
        <ele>6.8</ele>
        <time>2021-05-18T09:43:49Z</time>
      </trkpt>
      <trkpt lat="41.8159660" lon="-8.8675040">
        <ele>6.8</ele>
        <time>2021-05-18T09:43:50Z</time>
      </trkpt>
      <trkpt lat="41.8159780" lon="-8.8675300">
        <ele>6.8</ele>
        <time>2021-05-18T09:43:51Z</time>
      </trkpt>
      <trkpt lat="41.8159830" lon="-8.8675400">
        <ele>6.8</ele>
        <time>2021-05-18T09:43:52Z</time>
      </trkpt>
      <trkpt lat="41.8159890" lon="-8.8675490">
        <ele>6.8</ele>
        <time>2021-05-18T09:43:53Z</time>
      </trkpt>
      <trkpt lat="41.8160020" lon="-8.8675740">
        <ele>6.8</ele>
        <time>2021-05-18T09:43:54Z</time>
      </trkpt>
      <trkpt lat="41.8160040" lon="-8.8675850">
        <ele>6.8</ele>
        <time>2021-05-18T09:43:55Z</time>
      </trkpt>
      <trkpt lat="41.8160070" lon="-8.8675950">
        <ele>6.8</ele>
        <time>2021-05-18T09:43:56Z</time>
      </trkpt>
      <trkpt lat="41.8160200" lon="-8.8676080">
        <ele>6.8</ele>
        <time>2021-05-18T09:43:57Z</time>
      </trkpt>
      <trkpt lat="41.8160230" lon="-8.8676270">
        <ele>6.8</ele>
        <time>2021-05-18T09:43:58Z</time>
      </trkpt>
      <trkpt lat="41.8160300" lon="-8.8676430">
        <ele>6.8</ele>
        <time>2021-05-18T09:43:59Z</time>
      </trkpt>
      <trkpt lat="41.8160350" lon="-8.8676620">
        <ele>6.8</ele>
        <time>2021-05-18T09:44:00Z</time>
      </trkpt>
      <trkpt lat="41.8160420" lon="-8.8676890">
        <ele>6.8</ele>
        <time>2021-05-18T09:44:01Z</time>
      </trkpt>
      <trkpt lat="41.8160460" lon="-8.8676990">
        <ele>6.8</ele>
        <time>2021-05-18T09:44:02Z</time>
      </trkpt>
      <trkpt lat="41.8160500" lon="-8.8677090">
        <ele>6.8</ele>
        <time>2021-05-18T09:44:03Z</time>
      </trkpt>
      <trkpt lat="41.8160610" lon="-8.8677180">
        <ele>6.8</ele>
        <time>2021-05-18T09:44:04Z</time>
      </trkpt>
      <trkpt lat="41.8160650" lon="-8.8677340">
        <ele>6.8</ele>
        <time>2021-05-18T09:44:05Z</time>
      </trkpt>
      <trkpt lat="41.8160700" lon="-8.8677490">
        <ele>6.8</ele>
        <time>2021-05-18T09:44:06Z</time>
      </trkpt>
      <trkpt lat="41.8160800" lon="-8.8677740">
        <ele>6.8</ele>
        <time>2021-05-18T09:44:07Z</time>
      </trkpt>
      <trkpt lat="41.8160840" lon="-8.8677840">
        <ele>6.8</ele>
        <time>2021-05-18T09:44:08Z</time>
      </trkpt>
      <trkpt lat="41.8160890" lon="-8.8677930">
        <ele>6.8</ele>
        <time>2021-05-18T09:44:09Z</time>
      </trkpt>
      <trkpt lat="41.8160960" lon="-8.8678090">
        <ele>6.8</ele>
        <time>2021-05-18T09:44:10Z</time>
      </trkpt>
      <trkpt lat="41.8160980" lon="-8.8678280">
        <ele>6.8</ele>
        <time>2021-05-18T09:44:11Z</time>
      </trkpt>
      <trkpt lat="41.8161090" lon="-8.8678420">
        <ele>6.8</ele>
        <time>2021-05-18T09:44:12Z</time>
      </trkpt>
      <trkpt lat="41.8161150" lon="-8.8678590">
        <ele>6.8</ele>
        <time>2021-05-18T09:44:13Z</time>
      </trkpt>
      <trkpt lat="41.8161250" lon="-8.8678870">
        <ele>6.8</ele>
        <time>2021-05-18T09:44:14Z</time>
      </trkpt>
      <trkpt lat="41.8161300" lon="-8.8678980">
        <ele>6.8</ele>
        <time>2021-05-18T09:44:15Z</time>
      </trkpt>
      <trkpt lat="41.8161350" lon="-8.8679080">
        <ele>6.8</ele>
        <time>2021-05-18T09:44:16Z</time>
      </trkpt>
      <trkpt lat="41.8161470" lon="-8.8679300">
        <ele>6.8</ele>
        <time>2021-05-18T09:44:17Z</time>
      </trkpt>
      <trkpt lat="41.8161530" lon="-8.8679380">
        <ele>6.8</ele>
        <time>2021-05-18T09:44:18Z</time>
      </trkpt>
      <trkpt lat="41.8161580" lon="-8.8679470">
        <ele>6.8</ele>
        <time>2021-05-18T09:44:19Z</time>
      </trkpt>
      <trkpt lat="41.8161650" lon="-8.8679640">
        <ele>6.8</ele>
        <time>2021-05-18T09:44:20Z</time>
      </trkpt>
      <trkpt lat="41.8161700" lon="-8.8679800">
        <ele>6.8</ele>
        <time>2021-05-18T09:44:21Z</time>
      </trkpt>
      <trkpt lat="41.8161790" lon="-8.8680070">
        <ele>6.8</ele>
        <time>2021-05-18T09:44:22Z</time>
      </trkpt>
      <trkpt lat="41.8161830" lon="-8.8680180">
        <ele>6.8</ele>
        <time>2021-05-18T09:44:23Z</time>
      </trkpt>
      <trkpt lat="41.8161870" lon="-8.8680290">
        <ele>6.7</ele>
        <time>2021-05-18T09:44:24Z</time>
      </trkpt>
      <trkpt lat="41.8161990" lon="-8.8680540">
        <ele>6.7</ele>
        <time>2021-05-18T09:44:25Z</time>
      </trkpt>
      <trkpt lat="41.8162020" lon="-8.8680640">
        <ele>6.7</ele>
        <time>2021-05-18T09:44:26Z</time>
      </trkpt>
      <trkpt lat="41.8162060" lon="-8.8680740">
        <ele>6.7</ele>
        <time>2021-05-18T09:44:27Z</time>
      </trkpt>
      <trkpt lat="41.8162090" lon="-8.8681020">
        <ele>6.7</ele>
        <time>2021-05-18T09:44:28Z</time>
      </trkpt>
      <trkpt lat="41.8162090" lon="-8.8681120">
        <ele>6.7</ele>
        <time>2021-05-18T09:44:29Z</time>
      </trkpt>
      <trkpt lat="41.8162100" lon="-8.8681230">
        <ele>6.7</ele>
        <time>2021-05-18T09:44:30Z</time>
      </trkpt>
      <trkpt lat="41.8162180" lon="-8.8681490">
        <ele>6.7</ele>
        <time>2021-05-18T09:44:31Z</time>
      </trkpt>
      <trkpt lat="41.8162210" lon="-8.8681590">
        <ele>6.7</ele>
        <time>2021-05-18T09:44:32Z</time>
      </trkpt>
      <trkpt lat="41.8162250" lon="-8.8681690">
        <ele>6.7</ele>
        <time>2021-05-18T09:44:33Z</time>
      </trkpt>
      <trkpt lat="41.8162420" lon="-8.8681910">
        <ele>6.7</ele>
        <time>2021-05-18T09:44:34Z</time>
      </trkpt>
      <trkpt lat="41.8162450" lon="-8.8682020">
        <ele>6.7</ele>
        <time>2021-05-18T09:44:35Z</time>
      </trkpt>
      <trkpt lat="41.8162490" lon="-8.8682120">
        <ele>6.7</ele>
        <time>2021-05-18T09:44:36Z</time>
      </trkpt>
      <trkpt lat="41.8162530" lon="-8.8682250">
        <ele>6.7</ele>
        <time>2021-05-18T09:44:37Z</time>
      </trkpt>
      <trkpt lat="41.8162540" lon="-8.8682410">
        <ele>6.7</ele>
        <time>2021-05-18T09:44:38Z</time>
      </trkpt>
      <trkpt lat="41.8162530" lon="-8.8682560">
        <ele>6.7</ele>
        <time>2021-05-18T09:44:39Z</time>
      </trkpt>
      <trkpt lat="41.8162550" lon="-8.8682710">
        <ele>6.7</ele>
        <time>2021-05-18T09:44:40Z</time>
      </trkpt>
      <trkpt lat="41.8162560" lon="-8.8682880">
        <ele>6.7</ele>
        <time>2021-05-18T09:44:41Z</time>
      </trkpt>
      <trkpt lat="41.8162570" lon="-8.8683010">
        <ele>6.7</ele>
        <time>2021-05-18T09:44:42Z</time>
      </trkpt>
      <trkpt lat="41.8162570" lon="-8.8683140">
        <ele>6.7</ele>
        <time>2021-05-18T09:44:43Z</time>
      </trkpt>
      <trkpt lat="41.8162570" lon="-8.8683280">
        <ele>6.7</ele>
        <time>2021-05-18T09:44:44Z</time>
      </trkpt>
      <trkpt lat="41.8162590" lon="-8.8683440">
        <ele>6.7</ele>
        <time>2021-05-18T09:44:45Z</time>
      </trkpt>
      <trkpt lat="41.8162650" lon="-8.8683690">
        <ele>6.7</ele>
        <time>2021-05-18T09:44:46Z</time>
      </trkpt>
      <trkpt lat="41.8162680" lon="-8.8683810">
        <ele>6.7</ele>
        <time>2021-05-18T09:44:47Z</time>
      </trkpt>
      <trkpt lat="41.8162700" lon="-8.8683920">
        <ele>6.7</ele>
        <time>2021-05-18T09:44:48Z</time>
      </trkpt>
      <trkpt lat="41.8162700" lon="-8.8684210">
        <ele>6.7</ele>
        <time>2021-05-18T09:44:49Z</time>
      </trkpt>
      <trkpt lat="41.8162700" lon="-8.8684320">
        <ele>6.7</ele>
        <time>2021-05-18T09:44:50Z</time>
      </trkpt>
      <trkpt lat="41.8162710" lon="-8.8684430">
        <ele>6.7</ele>
        <time>2021-05-18T09:44:51Z</time>
      </trkpt>
      <trkpt lat="41.8162700" lon="-8.8684570">
        <ele>6.7</ele>
        <time>2021-05-18T09:44:52Z</time>
      </trkpt>
      <trkpt lat="41.8162700" lon="-8.8684720">
        <ele>6.7</ele>
        <time>2021-05-18T09:44:53Z</time>
      </trkpt>
      <trkpt lat="41.8162690" lon="-8.8684910">
        <ele>6.7</ele>
        <time>2021-05-18T09:44:54Z</time>
      </trkpt>
      <trkpt lat="41.8162680" lon="-8.8685070">
        <ele>6.7</ele>
        <time>2021-05-18T09:44:55Z</time>
      </trkpt>
      <trkpt lat="41.8162670" lon="-8.8685200">
        <ele>6.7</ele>
        <time>2021-05-18T09:44:56Z</time>
      </trkpt>
      <trkpt lat="41.8162660" lon="-8.8685360">
        <ele>6.7</ele>
        <time>2021-05-18T09:44:57Z</time>
      </trkpt>
      <trkpt lat="41.8162700" lon="-8.8685490">
        <ele>6.7</ele>
        <time>2021-05-18T09:44:58Z</time>
      </trkpt>
      <trkpt lat="41.8162720" lon="-8.8685640">
        <ele>6.7</ele>
        <time>2021-05-18T09:44:59Z</time>
      </trkpt>
      <trkpt lat="41.8162750" lon="-8.8685810">
        <ele>6.7</ele>
        <time>2021-05-18T09:45:00Z</time>
      </trkpt>
      <trkpt lat="41.8162750" lon="-8.8685980">
        <ele>6.7</ele>
        <time>2021-05-18T09:45:01Z</time>
      </trkpt>
      <trkpt lat="41.8162740" lon="-8.8686100">
        <ele>6.7</ele>
        <time>2021-05-18T09:45:02Z</time>
      </trkpt>
      <trkpt lat="41.8162750" lon="-8.8686180">
        <ele>6.7</ele>
        <time>2021-05-18T09:45:03Z</time>
      </trkpt>
      <trkpt lat="41.8162770" lon="-8.8686150">
        <ele>6.7</ele>
        <time>2021-05-18T09:45:04Z</time>
      </trkpt>
      <trkpt lat="41.8162770" lon="-8.8686120">
        <ele>6.7</ele>
        <time>2021-05-18T09:45:05Z</time>
      </trkpt>
      <trkpt lat="41.8162770" lon="-8.8686090">
        <ele>6.7</ele>
        <time>2021-05-18T09:45:06Z</time>
      </trkpt>
      <trkpt lat="41.8162770" lon="-8.8686060">
        <ele>6.7</ele>
        <time>2021-05-18T09:45:07Z</time>
      </trkpt>
      <trkpt lat="41.8162770" lon="-8.8686030">
        <ele>6.7</ele>
        <time>2021-05-18T09:45:08Z</time>
      </trkpt>
      <trkpt lat="41.8162780" lon="-8.8686000">
        <ele>6.7</ele>
        <time>2021-05-18T09:45:09Z</time>
      </trkpt>
      <trkpt lat="41.8162780" lon="-8.8685970">
        <ele>6.7</ele>
        <time>2021-05-18T09:45:10Z</time>
      </trkpt>
      <trkpt lat="41.8162780" lon="-8.8685940">
        <ele>6.7</ele>
        <time>2021-05-18T09:45:11Z</time>
      </trkpt>
      <trkpt lat="41.8162780" lon="-8.8685910">
        <ele>6.7</ele>
        <time>2021-05-18T09:45:12Z</time>
      </trkpt>
      <trkpt lat="41.8162780" lon="-8.8685880">
        <ele>6.7</ele>
        <time>2021-05-18T09:45:13Z</time>
      </trkpt>
      <trkpt lat="41.8162780" lon="-8.8685850">
        <ele>6.7</ele>
        <time>2021-05-18T09:45:14Z</time>
      </trkpt>
      <trkpt lat="41.8162780" lon="-8.8685820">
        <ele>6.7</ele>
        <time>2021-05-18T09:45:15Z</time>
      </trkpt>
      <trkpt lat="41.8162780" lon="-8.8685790">
        <ele>6.7</ele>
        <time>2021-05-18T09:45:16Z</time>
      </trkpt>
      <trkpt lat="41.8162780" lon="-8.8685760">
        <ele>6.7</ele>
        <time>2021-05-18T09:45:17Z</time>
      </trkpt>
      <trkpt lat="41.8162780" lon="-8.8685730">
        <ele>6.7</ele>
        <time>2021-05-18T09:45:18Z</time>
      </trkpt>
      <trkpt lat="41.8162790" lon="-8.8685700">
        <ele>6.7</ele>
        <time>2021-05-18T09:45:19Z</time>
      </trkpt>
      <trkpt lat="41.8162790" lon="-8.8685670">
        <ele>6.7</ele>
        <time>2021-05-18T09:45:20Z</time>
      </trkpt>
      <trkpt lat="41.8162790" lon="-8.8685640">
        <ele>6.7</ele>
        <time>2021-05-18T09:45:21Z</time>
      </trkpt>
      <trkpt lat="41.8162790" lon="-8.8685610">
        <ele>6.7</ele>
        <time>2021-05-18T09:45:22Z</time>
      </trkpt>
      <trkpt lat="41.8162790" lon="-8.8685580">
        <ele>6.7</ele>
        <time>2021-05-18T09:45:23Z</time>
      </trkpt>
      <trkpt lat="41.8162790" lon="-8.8685540">
        <ele>6.7</ele>
        <time>2021-05-18T09:45:24Z</time>
      </trkpt>
      <trkpt lat="41.8162790" lon="-8.8685510">
        <ele>6.7</ele>
        <time>2021-05-18T09:45:25Z</time>
      </trkpt>
      <trkpt lat="41.8162790" lon="-8.8685480">
        <ele>6.7</ele>
        <time>2021-05-18T09:45:26Z</time>
      </trkpt>
      <trkpt lat="41.8162790" lon="-8.8685450">
        <ele>6.7</ele>
        <time>2021-05-18T09:45:27Z</time>
      </trkpt>
      <trkpt lat="41.8162790" lon="-8.8685420">
        <ele>6.7</ele>
        <time>2021-05-18T09:45:28Z</time>
      </trkpt>
      <trkpt lat="41.8162800" lon="-8.8685390">
        <ele>6.7</ele>
        <time>2021-05-18T09:45:29Z</time>
      </trkpt>
      <trkpt lat="41.8162800" lon="-8.8685360">
        <ele>6.7</ele>
        <time>2021-05-18T09:45:30Z</time>
      </trkpt>
      <trkpt lat="41.8162800" lon="-8.8685330">
        <ele>6.7</ele>
        <time>2021-05-18T09:45:31Z</time>
      </trkpt>
      <trkpt lat="41.8162800" lon="-8.8685300">
        <ele>6.7</ele>
        <time>2021-05-18T09:45:32Z</time>
      </trkpt>
      <trkpt lat="41.8162800" lon="-8.8685270">
        <ele>6.7</ele>
        <time>2021-05-18T09:45:33Z</time>
      </trkpt>
      <trkpt lat="41.8162800" lon="-8.8685240">
        <ele>6.7</ele>
        <time>2021-05-18T09:45:34Z</time>
      </trkpt>
      <trkpt lat="41.8162800" lon="-8.8685210">
        <ele>6.7</ele>
        <time>2021-05-18T09:45:35Z</time>
      </trkpt>
      <trkpt lat="41.8162800" lon="-8.8685180">
        <ele>6.7</ele>
        <time>2021-05-18T09:45:36Z</time>
      </trkpt>
      <trkpt lat="41.8162800" lon="-8.8685150">
        <ele>6.7</ele>
        <time>2021-05-18T09:45:37Z</time>
      </trkpt>
      <trkpt lat="41.8162800" lon="-8.8685120">
        <ele>6.7</ele>
        <time>2021-05-18T09:45:38Z</time>
      </trkpt>
      <trkpt lat="41.8162810" lon="-8.8685090">
        <ele>6.7</ele>
        <time>2021-05-18T09:45:39Z</time>
      </trkpt>
      <trkpt lat="41.8162810" lon="-8.8685060">
        <ele>6.7</ele>
        <time>2021-05-18T09:45:40Z</time>
      </trkpt>
      <trkpt lat="41.8162810" lon="-8.8685030">
        <ele>6.7</ele>
        <time>2021-05-18T09:45:41Z</time>
      </trkpt>
      <trkpt lat="41.8162810" lon="-8.8685000">
        <ele>6.7</ele>
        <time>2021-05-18T09:45:42Z</time>
      </trkpt>
      <trkpt lat="41.8162810" lon="-8.8684970">
        <ele>6.7</ele>
        <time>2021-05-18T09:45:43Z</time>
      </trkpt>
      <trkpt lat="41.8162810" lon="-8.8684940">
        <ele>6.7</ele>
        <time>2021-05-18T09:45:44Z</time>
      </trkpt>
      <trkpt lat="41.8162780" lon="-8.8684770">
        <ele>6.7</ele>
        <time>2021-05-18T09:45:45Z</time>
      </trkpt>
      <trkpt lat="41.8162780" lon="-8.8684560">
        <ele>6.7</ele>
        <time>2021-05-18T09:45:46Z</time>
      </trkpt>
      <trkpt lat="41.8162730" lon="-8.8684400">
        <ele>6.7</ele>
        <time>2021-05-18T09:45:47Z</time>
      </trkpt>
      <trkpt lat="41.8162770" lon="-8.8684210">
        <ele>6.7</ele>
        <time>2021-05-18T09:45:48Z</time>
      </trkpt>
      <trkpt lat="41.8162850" lon="-8.8684090">
        <ele>6.7</ele>
        <time>2021-05-18T09:45:49Z</time>
      </trkpt>
      <trkpt lat="41.8162900" lon="-8.8684030">
        <ele>6.7</ele>
        <time>2021-05-18T09:45:50Z</time>
      </trkpt>
      <trkpt lat="41.8162940" lon="-8.8684020">
        <ele>6.7</ele>
        <time>2021-05-18T09:45:51Z</time>
      </trkpt>
      <trkpt lat="41.8162970" lon="-8.8684020">
        <ele>6.7</ele>
        <time>2021-05-18T09:45:52Z</time>
      </trkpt>
      <trkpt lat="41.8163000" lon="-8.8684020">
        <ele>6.7</ele>
        <time>2021-05-18T09:45:53Z</time>
      </trkpt>
      <trkpt lat="41.8163040" lon="-8.8684010">
        <ele>6.7</ele>
        <time>2021-05-18T09:45:54Z</time>
      </trkpt>
      <trkpt lat="41.8163070" lon="-8.8684010">
        <ele>6.7</ele>
        <time>2021-05-18T09:45:55Z</time>
      </trkpt>
      <trkpt lat="41.8163100" lon="-8.8684000">
        <ele>6.7</ele>
        <time>2021-05-18T09:45:56Z</time>
      </trkpt>
      <trkpt lat="41.8163140" lon="-8.8684000">
        <ele>6.7</ele>
        <time>2021-05-18T09:45:57Z</time>
      </trkpt>
      <trkpt lat="41.8163170" lon="-8.8684000">
        <ele>6.7</ele>
        <time>2021-05-18T09:45:58Z</time>
      </trkpt>
      <trkpt lat="41.8163200" lon="-8.8683990">
        <ele>6.7</ele>
        <time>2021-05-18T09:45:59Z</time>
      </trkpt>
      <trkpt lat="41.8163230" lon="-8.8683990">
        <ele>6.7</ele>
        <time>2021-05-18T09:46:00Z</time>
      </trkpt>
      <trkpt lat="41.8163270" lon="-8.8683990">
        <ele>6.7</ele>
        <time>2021-05-18T09:46:01Z</time>
      </trkpt>
      <trkpt lat="41.8163300" lon="-8.8683980">
        <ele>6.7</ele>
        <time>2021-05-18T09:46:02Z</time>
      </trkpt>
      <trkpt lat="41.8163330" lon="-8.8683980">
        <ele>6.7</ele>
        <time>2021-05-18T09:46:04Z</time>
      </trkpt>
      <trkpt lat="41.8163370" lon="-8.8683970">
        <ele>6.7</ele>
        <time>2021-05-18T09:46:05Z</time>
      </trkpt>
      <trkpt lat="41.8163400" lon="-8.8683970">
        <ele>6.7</ele>
        <time>2021-05-18T09:46:06Z</time>
      </trkpt>
      <trkpt lat="41.8163770" lon="-8.8683880">
        <ele>6.7</ele>
        <time>2021-05-18T09:46:07Z</time>
      </trkpt>
      <trkpt lat="41.8164160" lon="-8.8683760">
        <ele>6.7</ele>
        <time>2021-05-18T09:46:08Z</time>
      </trkpt>
      <trkpt lat="41.8164240" lon="-8.8683660">
        <ele>6.7</ele>
        <time>2021-05-18T09:46:09Z</time>
      </trkpt>
      <trkpt lat="41.8164270" lon="-8.8683580">
        <ele>6.7</ele>
        <time>2021-05-18T09:46:10Z</time>
      </trkpt>
      <trkpt lat="41.8164390" lon="-8.8683600">
        <ele>6.7</ele>
        <time>2021-05-18T09:46:11Z</time>
      </trkpt>
      <trkpt lat="41.8164440" lon="-8.8683670">
        <ele>6.7</ele>
        <time>2021-05-18T09:46:12Z</time>
      </trkpt>
      <trkpt lat="41.8164550" lon="-8.8687030">
        <ele>6.6</ele>
        <time>2021-05-18T09:46:41Z</time>
      </trkpt>
      <trkpt lat="41.8164600" lon="-8.8687680">
        <ele>6.6</ele>
        <time>2021-05-18T09:46:42Z</time>
      </trkpt>
      <trkpt lat="41.8164640" lon="-8.8688320">
        <ele>6.6</ele>
        <time>2021-05-18T09:46:43Z</time>
      </trkpt>
      <trkpt lat="41.8164340" lon="-8.8686540">
        <ele>6.6</ele>
        <time>2021-05-18T09:46:44Z</time>
      </trkpt>
      <trkpt lat="41.8163880" lon="-8.8685080">
        <ele>6.6</ele>
        <time>2021-05-18T09:46:45Z</time>
      </trkpt>
      <trkpt lat="41.8163080" lon="-8.8683140">
        <ele>6.6</ele>
        <time>2021-05-18T09:46:46Z</time>
      </trkpt>
      <trkpt lat="41.8162310" lon="-8.8683070">
        <ele>6.6</ele>
        <time>2021-05-18T09:46:47Z</time>
      </trkpt>
      <trkpt lat="41.8162000" lon="-8.8683420">
        <ele>6.6</ele>
        <time>2021-05-18T09:46:48Z</time>
      </trkpt>
      <trkpt lat="41.8162050" lon="-8.8683670">
        <ele>6.6</ele>
        <time>2021-05-18T09:46:49Z</time>
      </trkpt>
      <trkpt lat="41.8162100" lon="-8.8683910">
        <ele>6.6</ele>
        <time>2021-05-18T09:46:50Z</time>
      </trkpt>
      <trkpt lat="41.8162140" lon="-8.8684150">
        <ele>6.6</ele>
        <time>2021-05-18T09:46:51Z</time>
      </trkpt>
      <trkpt lat="41.8162190" lon="-8.8684400">
        <ele>6.6</ele>
        <time>2021-05-18T09:46:52Z</time>
      </trkpt>
      <trkpt lat="41.8162240" lon="-8.8684640">
        <ele>6.6</ele>
        <time>2021-05-18T09:46:53Z</time>
      </trkpt>
      <trkpt lat="41.8162210" lon="-8.8684840">
        <ele>6.6</ele>
        <time>2021-05-18T09:46:54Z</time>
      </trkpt>
      <trkpt lat="41.8162200" lon="-8.8685000">
        <ele>6.6</ele>
        <time>2021-05-18T09:46:55Z</time>
      </trkpt>
      <trkpt lat="41.8162220" lon="-8.8684900">
        <ele>6.6</ele>
        <time>2021-05-18T09:46:56Z</time>
      </trkpt>
      <trkpt lat="41.8162300" lon="-8.8685170">
        <ele>6.6</ele>
        <time>2021-05-18T09:46:57Z</time>
      </trkpt>
      <trkpt lat="41.8162380" lon="-8.8685210">
        <ele>6.6</ele>
        <time>2021-05-18T09:46:58Z</time>
      </trkpt>
      <trkpt lat="41.8162430" lon="-8.8685250">
        <ele>6.6</ele>
        <time>2021-05-18T09:46:59Z</time>
      </trkpt>
      <trkpt lat="41.8162520" lon="-8.8685360">
        <ele>6.6</ele>
        <time>2021-05-18T09:47:00Z</time>
      </trkpt>
      <trkpt lat="41.8162560" lon="-8.8685440">
        <ele>6.6</ele>
        <time>2021-05-18T09:47:01Z</time>
      </trkpt>
      <trkpt lat="41.8162610" lon="-8.8685510">
        <ele>6.6</ele>
        <time>2021-05-18T09:47:02Z</time>
      </trkpt>
      <trkpt lat="41.8162650" lon="-8.8685590">
        <ele>6.6</ele>
        <time>2021-05-18T09:47:03Z</time>
      </trkpt>
      <trkpt lat="41.8162690" lon="-8.8685660">
        <ele>6.6</ele>
        <time>2021-05-18T09:47:04Z</time>
      </trkpt>
      <trkpt lat="41.8162720" lon="-8.8685700">
        <ele>6.6</ele>
        <time>2021-05-18T09:47:05Z</time>
      </trkpt>
      <trkpt lat="41.8162720" lon="-8.8685700">
        <ele>6.6</ele>
        <time>2021-05-18T09:47:06Z</time>
      </trkpt>
      <trkpt lat="41.8162720" lon="-8.8685700">
        <ele>6.6</ele>
        <time>2021-05-18T09:47:07Z</time>
      </trkpt>
      <trkpt lat="41.8162720" lon="-8.8685700">
        <ele>6.6</ele>
        <time>2021-05-18T09:47:08Z</time>
      </trkpt>
      <trkpt lat="41.8162720" lon="-8.8685700">
        <ele>6.6</ele>
        <time>2021-05-18T09:47:09Z</time>
      </trkpt>
      <trkpt lat="41.8162720" lon="-8.8685700">
        <ele>6.6</ele>
        <time>2021-05-18T09:47:10Z</time>
      </trkpt>
      <trkpt lat="41.8162720" lon="-8.8685690">
        <ele>6.6</ele>
        <time>2021-05-18T09:47:11Z</time>
      </trkpt>
      <trkpt lat="41.8162710" lon="-8.8685690">
        <ele>6.6</ele>
        <time>2021-05-18T09:47:12Z</time>
      </trkpt>
      <trkpt lat="41.8162710" lon="-8.8685690">
        <ele>6.6</ele>
        <time>2021-05-18T09:47:13Z</time>
      </trkpt>
      <trkpt lat="41.8162710" lon="-8.8685690">
        <ele>6.6</ele>
        <time>2021-05-18T09:47:14Z</time>
      </trkpt>
      <trkpt lat="41.8162710" lon="-8.8685690">
        <ele>6.6</ele>
        <time>2021-05-18T09:47:15Z</time>
      </trkpt>
      <trkpt lat="41.8162710" lon="-8.8685690">
        <ele>6.6</ele>
        <time>2021-05-18T09:47:16Z</time>
      </trkpt>
      <trkpt lat="41.8162710" lon="-8.8685690">
        <ele>6.6</ele>
        <time>2021-05-18T09:47:17Z</time>
      </trkpt>
      <trkpt lat="41.8162710" lon="-8.8685690">
        <ele>6.6</ele>
        <time>2021-05-18T09:47:18Z</time>
      </trkpt>
      <trkpt lat="41.8162710" lon="-8.8685690">
        <ele>6.6</ele>
        <time>2021-05-18T09:47:19Z</time>
      </trkpt>
      <trkpt lat="41.8162710" lon="-8.8685690">
        <ele>6.6</ele>
        <time>2021-05-18T09:47:20Z</time>
      </trkpt>
      <trkpt lat="41.8162710" lon="-8.8685690">
        <ele>6.6</ele>
        <time>2021-05-18T09:47:21Z</time>
      </trkpt>
      <trkpt lat="41.8162710" lon="-8.8685690">
        <ele>6.6</ele>
        <time>2021-05-18T09:47:22Z</time>
      </trkpt>
      <trkpt lat="41.8162710" lon="-8.8685680">
        <ele>6.6</ele>
        <time>2021-05-18T09:47:23Z</time>
      </trkpt>
      <trkpt lat="41.8162710" lon="-8.8685680">
        <ele>6.6</ele>
        <time>2021-05-18T09:47:24Z</time>
      </trkpt>
      <trkpt lat="41.8162710" lon="-8.8685680">
        <ele>6.6</ele>
        <time>2021-05-18T09:47:25Z</time>
      </trkpt>
      <trkpt lat="41.8162710" lon="-8.8685680">
        <ele>6.6</ele>
        <time>2021-05-18T09:47:26Z</time>
      </trkpt>
      <trkpt lat="41.8162700" lon="-8.8685680">
        <ele>6.6</ele>
        <time>2021-05-18T09:47:27Z</time>
      </trkpt>
      <trkpt lat="41.8162700" lon="-8.8685680">
        <ele>6.6</ele>
        <time>2021-05-18T09:47:28Z</time>
      </trkpt>
      <trkpt lat="41.8162700" lon="-8.8685680">
        <ele>6.6</ele>
        <time>2021-05-18T09:47:29Z</time>
      </trkpt>
      <trkpt lat="41.8162700" lon="-8.8685680">
        <ele>6.6</ele>
        <time>2021-05-18T09:47:30Z</time>
      </trkpt>
      <trkpt lat="41.8162700" lon="-8.8685680">
        <ele>6.6</ele>
        <time>2021-05-18T09:47:31Z</time>
      </trkpt>
      <trkpt lat="41.8162700" lon="-8.8685680">
        <ele>6.6</ele>
        <time>2021-05-18T09:47:32Z</time>
      </trkpt>
      <trkpt lat="41.8162700" lon="-8.8685680">
        <ele>6.6</ele>
        <time>2021-05-18T09:47:33Z</time>
      </trkpt>
      <trkpt lat="41.8162700" lon="-8.8685680">
        <ele>6.6</ele>
        <time>2021-05-18T09:47:34Z</time>
      </trkpt>
      <trkpt lat="41.8162700" lon="-8.8685670">
        <ele>6.6</ele>
        <time>2021-05-18T09:47:35Z</time>
      </trkpt>
      <trkpt lat="41.8162700" lon="-8.8685670">
        <ele>6.6</ele>
        <time>2021-05-18T09:47:36Z</time>
      </trkpt>
      <trkpt lat="41.8162700" lon="-8.8685670">
        <ele>6.6</ele>
        <time>2021-05-18T09:47:37Z</time>
      </trkpt>
      <trkpt lat="41.8162700" lon="-8.8685670">
        <ele>6.6</ele>
        <time>2021-05-18T09:47:38Z</time>
      </trkpt>
      <trkpt lat="41.8162700" lon="-8.8685670">
        <ele>6.6</ele>
        <time>2021-05-18T09:47:39Z</time>
      </trkpt>
      <trkpt lat="41.8162700" lon="-8.8685670">
        <ele>6.6</ele>
        <time>2021-05-18T09:47:40Z</time>
      </trkpt>
      <trkpt lat="41.8162700" lon="-8.8685670">
        <ele>6.6</ele>
        <time>2021-05-18T09:47:41Z</time>
      </trkpt>
      <trkpt lat="41.8162690" lon="-8.8685670">
        <ele>6.6</ele>
        <time>2021-05-18T09:47:42Z</time>
      </trkpt>
      <trkpt lat="41.8162690" lon="-8.8685670">
        <ele>6.6</ele>
        <time>2021-05-18T09:47:43Z</time>
      </trkpt>
      <trkpt lat="41.8162690" lon="-8.8685670">
        <ele>6.6</ele>
        <time>2021-05-18T09:47:44Z</time>
      </trkpt>
      <trkpt lat="41.8162690" lon="-8.8685670">
        <ele>6.6</ele>
        <time>2021-05-18T09:47:45Z</time>
      </trkpt>
      <trkpt lat="41.8162690" lon="-8.8685670">
        <ele>6.6</ele>
        <time>2021-05-18T09:47:46Z</time>
      </trkpt>
      <trkpt lat="41.8162690" lon="-8.8685660">
        <ele>6.6</ele>
        <time>2021-05-18T09:47:47Z</time>
      </trkpt>
      <trkpt lat="41.8162690" lon="-8.8685660">
        <ele>6.6</ele>
        <time>2021-05-18T09:47:48Z</time>
      </trkpt>
      <trkpt lat="41.8162690" lon="-8.8685660">
        <ele>6.6</ele>
        <time>2021-05-18T09:47:49Z</time>
      </trkpt>
      <trkpt lat="41.8162690" lon="-8.8685660">
        <ele>6.6</ele>
        <time>2021-05-18T09:47:50Z</time>
      </trkpt>
      <trkpt lat="41.8162690" lon="-8.8685660">
        <ele>6.6</ele>
        <time>2021-05-18T09:47:51Z</time>
      </trkpt>
      <trkpt lat="41.8162690" lon="-8.8685660">
        <ele>6.6</ele>
        <time>2021-05-18T09:47:52Z</time>
      </trkpt>
      <trkpt lat="41.8162690" lon="-8.8685660">
        <ele>6.6</ele>
        <time>2021-05-18T09:47:53Z</time>
      </trkpt>
      <trkpt lat="41.8162690" lon="-8.8685660">
        <ele>6.6</ele>
        <time>2021-05-18T09:47:54Z</time>
      </trkpt>
      <trkpt lat="41.8162690" lon="-8.8685660">
        <ele>6.6</ele>
        <time>2021-05-18T09:47:55Z</time>
      </trkpt>
      <trkpt lat="41.8162690" lon="-8.8685660">
        <ele>6.6</ele>
        <time>2021-05-18T09:47:56Z</time>
      </trkpt>
      <trkpt lat="41.8162690" lon="-8.8685660">
        <ele>6.6</ele>
        <time>2021-05-18T09:47:57Z</time>
      </trkpt>
      <trkpt lat="41.8162680" lon="-8.8685660">
        <ele>6.6</ele>
        <time>2021-05-18T09:47:58Z</time>
      </trkpt>
      <trkpt lat="41.8162680" lon="-8.8685650">
        <ele>6.6</ele>
        <time>2021-05-18T09:47:59Z</time>
      </trkpt>
      <trkpt lat="41.8162680" lon="-8.8685650">
        <ele>6.6</ele>
        <time>2021-05-18T09:48:00Z</time>
      </trkpt>
      <trkpt lat="41.8162680" lon="-8.8685650">
        <ele>6.6</ele>
        <time>2021-05-18T09:48:01Z</time>
      </trkpt>
      <trkpt lat="41.8162680" lon="-8.8685650">
        <ele>6.6</ele>
        <time>2021-05-18T09:48:02Z</time>
      </trkpt>
      <trkpt lat="41.8162680" lon="-8.8685650">
        <ele>6.6</ele>
        <time>2021-05-18T09:48:03Z</time>
      </trkpt>
      <trkpt lat="41.8162680" lon="-8.8685650">
        <ele>6.6</ele>
        <time>2021-05-18T09:48:04Z</time>
      </trkpt>
      <trkpt lat="41.8162680" lon="-8.8685650">
        <ele>6.6</ele>
        <time>2021-05-18T09:48:05Z</time>
      </trkpt>
      <trkpt lat="41.8162680" lon="-8.8685650">
        <ele>6.6</ele>
        <time>2021-05-18T09:48:06Z</time>
      </trkpt>
      <trkpt lat="41.8162680" lon="-8.8685650">
        <ele>6.6</ele>
        <time>2021-05-18T09:48:07Z</time>
      </trkpt>
      <trkpt lat="41.8162680" lon="-8.8685650">
        <ele>6.6</ele>
        <time>2021-05-18T09:48:08Z</time>
      </trkpt>
      <trkpt lat="41.8162680" lon="-8.8685650">
        <ele>6.6</ele>
        <time>2021-05-18T09:48:09Z</time>
      </trkpt>
      <trkpt lat="41.8162680" lon="-8.8685650">
        <ele>6.6</ele>
        <time>2021-05-18T09:48:10Z</time>
      </trkpt>
      <trkpt lat="41.8162680" lon="-8.8685640">
        <ele>6.6</ele>
        <time>2021-05-18T09:48:11Z</time>
      </trkpt>
      <trkpt lat="41.8162680" lon="-8.8685640">
        <ele>6.6</ele>
        <time>2021-05-18T09:48:12Z</time>
      </trkpt>
      <trkpt lat="41.8162670" lon="-8.8685640">
        <ele>6.6</ele>
        <time>2021-05-18T09:48:13Z</time>
      </trkpt>
      <trkpt lat="41.8162670" lon="-8.8685640">
        <ele>6.6</ele>
        <time>2021-05-18T09:48:14Z</time>
      </trkpt>
      <trkpt lat="41.8162670" lon="-8.8685640">
        <ele>6.6</ele>
        <time>2021-05-18T09:48:15Z</time>
      </trkpt>
      <trkpt lat="41.8162670" lon="-8.8685640">
        <ele>6.6</ele>
        <time>2021-05-18T09:48:16Z</time>
      </trkpt>
      <trkpt lat="41.8162670" lon="-8.8685640">
        <ele>6.6</ele>
        <time>2021-05-18T09:48:17Z</time>
      </trkpt>
      <trkpt lat="41.8162670" lon="-8.8685640">
        <ele>6.6</ele>
        <time>2021-05-18T09:48:18Z</time>
      </trkpt>
      <trkpt lat="41.8162670" lon="-8.8685640">
        <ele>6.6</ele>
        <time>2021-05-18T09:48:19Z</time>
      </trkpt>
      <trkpt lat="41.8162670" lon="-8.8685640">
        <ele>6.6</ele>
        <time>2021-05-18T09:48:20Z</time>
      </trkpt>
      <trkpt lat="41.8162670" lon="-8.8685640">
        <ele>6.6</ele>
        <time>2021-05-18T09:48:21Z</time>
      </trkpt>
      <trkpt lat="41.8162670" lon="-8.8685640">
        <ele>6.6</ele>
        <time>2021-05-18T09:48:22Z</time>
      </trkpt>
      <trkpt lat="41.8162670" lon="-8.8685630">
        <ele>6.6</ele>
        <time>2021-05-18T09:48:23Z</time>
      </trkpt>
      <trkpt lat="41.8162670" lon="-8.8685630">
        <ele>6.6</ele>
        <time>2021-05-18T09:48:24Z</time>
      </trkpt>
      <trkpt lat="41.8162670" lon="-8.8685630">
        <ele>6.6</ele>
        <time>2021-05-18T09:48:25Z</time>
      </trkpt>
      <trkpt lat="41.8162670" lon="-8.8685630">
        <ele>6.6</ele>
        <time>2021-05-18T09:48:26Z</time>
      </trkpt>
      <trkpt lat="41.8162670" lon="-8.8685630">
        <ele>6.6</ele>
        <time>2021-05-18T09:48:27Z</time>
      </trkpt>
      <trkpt lat="41.8162660" lon="-8.8685630">
        <ele>6.6</ele>
        <time>2021-05-18T09:48:28Z</time>
      </trkpt>
      <trkpt lat="41.8162660" lon="-8.8685630">
        <ele>6.6</ele>
        <time>2021-05-18T09:48:29Z</time>
      </trkpt>
      <trkpt lat="41.8162660" lon="-8.8685630">
        <ele>6.6</ele>
        <time>2021-05-18T09:48:30Z</time>
      </trkpt>
      <trkpt lat="41.8162660" lon="-8.8685630">
        <ele>6.6</ele>
        <time>2021-05-18T09:48:31Z</time>
      </trkpt>
      <trkpt lat="41.8162660" lon="-8.8685630">
        <ele>6.6</ele>
        <time>2021-05-18T09:48:32Z</time>
      </trkpt>
      <trkpt lat="41.8162660" lon="-8.8685630">
        <ele>6.6</ele>
        <time>2021-05-18T09:48:33Z</time>
      </trkpt>
      <trkpt lat="41.8162660" lon="-8.8685630">
        <ele>6.6</ele>
        <time>2021-05-18T09:48:35Z</time>
      </trkpt>
      <trkpt lat="41.8162660" lon="-8.8685620">
        <ele>6.6</ele>
        <time>2021-05-18T09:48:36Z</time>
      </trkpt>
      <trkpt lat="41.8162660" lon="-8.8685620">
        <ele>6.6</ele>
        <time>2021-05-18T09:48:37Z</time>
      </trkpt>
      <trkpt lat="41.8162660" lon="-8.8685620">
        <ele>6.6</ele>
        <time>2021-05-18T09:48:38Z</time>
      </trkpt>
      <trkpt lat="41.8162660" lon="-8.8685620">
        <ele>6.6</ele>
        <time>2021-05-18T09:48:39Z</time>
      </trkpt>
      <trkpt lat="41.8162660" lon="-8.8685620">
        <ele>6.6</ele>
        <time>2021-05-18T09:48:40Z</time>
      </trkpt>
      <trkpt lat="41.8162660" lon="-8.8685620">
        <ele>6.6</ele>
        <time>2021-05-18T09:48:41Z</time>
      </trkpt>
      <trkpt lat="41.8162660" lon="-8.8685620">
        <ele>6.6</ele>
        <time>2021-05-18T09:48:42Z</time>
      </trkpt>
      <trkpt lat="41.8162660" lon="-8.8685620">
        <ele>6.6</ele>
        <time>2021-05-18T09:48:43Z</time>
      </trkpt>
      <trkpt lat="41.8162650" lon="-8.8685620">
        <ele>6.6</ele>
        <time>2021-05-18T09:48:44Z</time>
      </trkpt>
      <trkpt lat="41.8162650" lon="-8.8685620">
        <ele>6.6</ele>
        <time>2021-05-18T09:48:45Z</time>
      </trkpt>
      <trkpt lat="41.8162650" lon="-8.8685620">
        <ele>6.6</ele>
        <time>2021-05-18T09:48:46Z</time>
      </trkpt>
      <trkpt lat="41.8162650" lon="-8.8685620">
        <ele>6.6</ele>
        <time>2021-05-18T09:48:47Z</time>
      </trkpt>
      <trkpt lat="41.8162650" lon="-8.8685620">
        <ele>6.6</ele>
        <time>2021-05-18T09:48:48Z</time>
      </trkpt>
      <trkpt lat="41.8162650" lon="-8.8685610">
        <ele>6.6</ele>
        <time>2021-05-18T09:48:49Z</time>
      </trkpt>
      <trkpt lat="41.8162650" lon="-8.8685610">
        <ele>6.6</ele>
        <time>2021-05-18T09:48:50Z</time>
      </trkpt>
      <trkpt lat="41.8162650" lon="-8.8685610">
        <ele>6.6</ele>
        <time>2021-05-18T09:48:51Z</time>
      </trkpt>
      <trkpt lat="41.8162650" lon="-8.8685610">
        <ele>6.6</ele>
        <time>2021-05-18T09:48:52Z</time>
      </trkpt>
      <trkpt lat="41.8162650" lon="-8.8685610">
        <ele>6.6</ele>
        <time>2021-05-18T09:48:53Z</time>
      </trkpt>
      <trkpt lat="41.8162650" lon="-8.8685610">
        <ele>6.6</ele>
        <time>2021-05-18T09:48:54Z</time>
      </trkpt>
      <trkpt lat="41.8162650" lon="-8.8685610">
        <ele>6.6</ele>
        <time>2021-05-18T09:48:55Z</time>
      </trkpt>
      <trkpt lat="41.8162650" lon="-8.8685610">
        <ele>6.6</ele>
        <time>2021-05-18T09:48:56Z</time>
      </trkpt>
      <trkpt lat="41.8162650" lon="-8.8685610">
        <ele>6.6</ele>
        <time>2021-05-18T09:48:57Z</time>
      </trkpt>
      <trkpt lat="41.8162650" lon="-8.8685610">
        <ele>6.6</ele>
        <time>2021-05-18T09:48:58Z</time>
      </trkpt>
      <trkpt lat="41.8162640" lon="-8.8685610">
        <ele>6.6</ele>
        <time>2021-05-18T09:48:59Z</time>
      </trkpt>
      <trkpt lat="41.8162640" lon="-8.8685610">
        <ele>6.6</ele>
        <time>2021-05-18T09:49:00Z</time>
      </trkpt>
      <trkpt lat="41.8162640" lon="-8.8685600">
        <ele>6.6</ele>
        <time>2021-05-18T09:49:01Z</time>
      </trkpt>
      <trkpt lat="41.8162640" lon="-8.8685600">
        <ele>6.6</ele>
        <time>2021-05-18T09:49:02Z</time>
      </trkpt>
      <trkpt lat="41.8162640" lon="-8.8685600">
        <ele>6.6</ele>
        <time>2021-05-18T09:49:03Z</time>
      </trkpt>
      <trkpt lat="41.8162640" lon="-8.8685600">
        <ele>6.6</ele>
        <time>2021-05-18T09:49:04Z</time>
      </trkpt>
      <trkpt lat="41.8162640" lon="-8.8685600">
        <ele>6.6</ele>
        <time>2021-05-18T09:49:05Z</time>
      </trkpt>
      <trkpt lat="41.8162640" lon="-8.8685600">
        <ele>6.6</ele>
        <time>2021-05-18T09:49:06Z</time>
      </trkpt>
      <trkpt lat="41.8162640" lon="-8.8685600">
        <ele>6.6</ele>
        <time>2021-05-18T09:49:07Z</time>
      </trkpt>
      <trkpt lat="41.8162640" lon="-8.8685600">
        <ele>6.6</ele>
        <time>2021-05-18T09:49:08Z</time>
      </trkpt>
      <trkpt lat="41.8162640" lon="-8.8685600">
        <ele>6.6</ele>
        <time>2021-05-18T09:49:09Z</time>
      </trkpt>
      <trkpt lat="41.8162640" lon="-8.8685600">
        <ele>6.6</ele>
        <time>2021-05-18T09:49:10Z</time>
      </trkpt>
      <trkpt lat="41.8162640" lon="-8.8685600">
        <ele>6.6</ele>
        <time>2021-05-18T09:49:11Z</time>
      </trkpt>
      <trkpt lat="41.8162640" lon="-8.8685600">
        <ele>6.6</ele>
        <time>2021-05-18T09:49:12Z</time>
      </trkpt>
      <trkpt lat="41.8162640" lon="-8.8685590">
        <ele>6.6</ele>
        <time>2021-05-18T09:49:13Z</time>
      </trkpt>
      <trkpt lat="41.8162630" lon="-8.8685590">
        <ele>6.6</ele>
        <time>2021-05-18T09:49:14Z</time>
      </trkpt>
      <trkpt lat="41.8162630" lon="-8.8685590">
        <ele>6.6</ele>
        <time>2021-05-18T09:49:15Z</time>
      </trkpt>
      <trkpt lat="41.8162630" lon="-8.8685590">
        <ele>6.6</ele>
        <time>2021-05-18T09:49:16Z</time>
      </trkpt>
      <trkpt lat="41.8162630" lon="-8.8685590">
        <ele>6.6</ele>
        <time>2021-05-18T09:49:17Z</time>
      </trkpt>
      <trkpt lat="41.8162630" lon="-8.8685590">
        <ele>6.6</ele>
        <time>2021-05-18T09:49:18Z</time>
      </trkpt>
      <trkpt lat="41.8162630" lon="-8.8685590">
        <ele>6.6</ele>
        <time>2021-05-18T09:49:19Z</time>
      </trkpt>
      <trkpt lat="41.8162630" lon="-8.8685590">
        <ele>6.6</ele>
        <time>2021-05-18T09:49:20Z</time>
      </trkpt>
      <trkpt lat="41.8162630" lon="-8.8685590">
        <ele>6.6</ele>
        <time>2021-05-18T09:49:21Z</time>
      </trkpt>
      <trkpt lat="41.8162630" lon="-8.8685590">
        <ele>6.6</ele>
        <time>2021-05-18T09:49:22Z</time>
      </trkpt>
      <trkpt lat="41.8162630" lon="-8.8685590">
        <ele>6.6</ele>
        <time>2021-05-18T09:49:23Z</time>
      </trkpt>
      <trkpt lat="41.8162630" lon="-8.8685590">
        <ele>6.6</ele>
        <time>2021-05-18T09:49:24Z</time>
      </trkpt>
      <trkpt lat="41.8162630" lon="-8.8685580">
        <ele>6.6</ele>
        <time>2021-05-18T09:49:25Z</time>
      </trkpt>
      <trkpt lat="41.8162630" lon="-8.8685580">
        <ele>6.6</ele>
        <time>2021-05-18T09:49:26Z</time>
      </trkpt>
      <trkpt lat="41.8162630" lon="-8.8685580">
        <ele>6.6</ele>
        <time>2021-05-18T09:49:27Z</time>
      </trkpt>
      <trkpt lat="41.8162630" lon="-8.8685580">
        <ele>6.6</ele>
        <time>2021-05-18T09:49:28Z</time>
      </trkpt>
      <trkpt lat="41.8162630" lon="-8.8685580">
        <ele>6.6</ele>
        <time>2021-05-18T09:49:29Z</time>
      </trkpt>
      <trkpt lat="41.8162620" lon="-8.8685580">
        <ele>6.6</ele>
        <time>2021-05-18T09:49:30Z</time>
      </trkpt>
      <trkpt lat="41.8162620" lon="-8.8685580">
        <ele>6.6</ele>
        <time>2021-05-18T09:49:31Z</time>
      </trkpt>
      <trkpt lat="41.8162620" lon="-8.8685580">
        <ele>6.6</ele>
        <time>2021-05-18T09:49:32Z</time>
      </trkpt>
      <trkpt lat="41.8162620" lon="-8.8685580">
        <ele>6.6</ele>
        <time>2021-05-18T09:49:33Z</time>
      </trkpt>
      <trkpt lat="41.8162620" lon="-8.8685580">
        <ele>6.6</ele>
        <time>2021-05-18T09:49:34Z</time>
      </trkpt>
      <trkpt lat="41.8162620" lon="-8.8685580">
        <ele>6.6</ele>
        <time>2021-05-18T09:49:35Z</time>
      </trkpt>
      <trkpt lat="41.8162620" lon="-8.8685580">
        <ele>6.6</ele>
        <time>2021-05-18T09:49:36Z</time>
      </trkpt>
      <trkpt lat="41.8162620" lon="-8.8685570">
        <ele>6.6</ele>
        <time>2021-05-18T09:49:37Z</time>
      </trkpt>
      <trkpt lat="41.8162620" lon="-8.8685570">
        <ele>6.6</ele>
        <time>2021-05-18T09:49:38Z</time>
      </trkpt>
      <trkpt lat="41.8162620" lon="-8.8685570">
        <ele>6.6</ele>
        <time>2021-05-18T09:49:39Z</time>
      </trkpt>
      <trkpt lat="41.8162620" lon="-8.8685570">
        <ele>6.6</ele>
        <time>2021-05-18T09:49:40Z</time>
      </trkpt>
      <trkpt lat="41.8162620" lon="-8.8685570">
        <ele>6.6</ele>
        <time>2021-05-18T09:49:41Z</time>
      </trkpt>
      <trkpt lat="41.8162620" lon="-8.8685570">
        <ele>6.6</ele>
        <time>2021-05-18T09:49:42Z</time>
      </trkpt>
      <trkpt lat="41.8162620" lon="-8.8685570">
        <ele>6.6</ele>
        <time>2021-05-18T09:49:43Z</time>
      </trkpt>
      <trkpt lat="41.8162620" lon="-8.8685570">
        <ele>6.6</ele>
        <time>2021-05-18T09:49:44Z</time>
      </trkpt>
      <trkpt lat="41.8162610" lon="-8.8685570">
        <ele>6.6</ele>
        <time>2021-05-18T09:49:45Z</time>
      </trkpt>
      <trkpt lat="41.8162610" lon="-8.8685570">
        <ele>6.6</ele>
        <time>2021-05-18T09:49:46Z</time>
      </trkpt>
      <trkpt lat="41.8162610" lon="-8.8685570">
        <ele>6.6</ele>
        <time>2021-05-18T09:49:47Z</time>
      </trkpt>
      <trkpt lat="41.8162610" lon="-8.8685570">
        <ele>6.6</ele>
        <time>2021-05-18T09:49:48Z</time>
      </trkpt>
      <trkpt lat="41.8162610" lon="-8.8685560">
        <ele>6.6</ele>
        <time>2021-05-18T09:49:49Z</time>
      </trkpt>
      <trkpt lat="41.8162610" lon="-8.8685560">
        <ele>6.6</ele>
        <time>2021-05-18T09:49:50Z</time>
      </trkpt>
      <trkpt lat="41.8162610" lon="-8.8685560">
        <ele>6.6</ele>
        <time>2021-05-18T09:49:51Z</time>
      </trkpt>
      <trkpt lat="41.8162610" lon="-8.8685560">
        <ele>6.6</ele>
        <time>2021-05-18T09:49:52Z</time>
      </trkpt>
      <trkpt lat="41.8162610" lon="-8.8685560">
        <ele>6.6</ele>
        <time>2021-05-18T09:49:53Z</time>
      </trkpt>
      <trkpt lat="41.8162610" lon="-8.8685560">
        <ele>6.6</ele>
        <time>2021-05-18T09:49:54Z</time>
      </trkpt>
      <trkpt lat="41.8162610" lon="-8.8685560">
        <ele>6.6</ele>
        <time>2021-05-18T09:49:55Z</time>
      </trkpt>
      <trkpt lat="41.8162610" lon="-8.8685560">
        <ele>6.6</ele>
        <time>2021-05-18T09:49:56Z</time>
      </trkpt>
      <trkpt lat="41.8162610" lon="-8.8685560">
        <ele>6.6</ele>
        <time>2021-05-18T09:49:57Z</time>
      </trkpt>
      <trkpt lat="41.8162610" lon="-8.8685560">
        <ele>6.6</ele>
        <time>2021-05-18T09:49:58Z</time>
      </trkpt>
      <trkpt lat="41.8162610" lon="-8.8685560">
        <ele>6.6</ele>
        <time>2021-05-18T09:49:59Z</time>
      </trkpt>
      <trkpt lat="41.8162600" lon="-8.8685560">
        <ele>6.6</ele>
        <time>2021-05-18T09:50:00Z</time>
      </trkpt>
      <trkpt lat="41.8162600" lon="-8.8685550">
        <ele>6.6</ele>
        <time>2021-05-18T09:50:01Z</time>
      </trkpt>
      <trkpt lat="41.8162600" lon="-8.8685550">
        <ele>6.6</ele>
        <time>2021-05-18T09:50:02Z</time>
      </trkpt>
      <trkpt lat="41.8162600" lon="-8.8685550">
        <ele>6.6</ele>
        <time>2021-05-18T09:50:03Z</time>
      </trkpt>
      <trkpt lat="41.8162600" lon="-8.8685550">
        <ele>6.6</ele>
        <time>2021-05-18T09:50:04Z</time>
      </trkpt>
      <trkpt lat="41.8162600" lon="-8.8685550">
        <ele>6.6</ele>
        <time>2021-05-18T09:50:05Z</time>
      </trkpt>
      <trkpt lat="41.8162600" lon="-8.8685550">
        <ele>6.6</ele>
        <time>2021-05-18T09:50:06Z</time>
      </trkpt>
      <trkpt lat="41.8162600" lon="-8.8685550">
        <ele>6.6</ele>
        <time>2021-05-18T09:50:07Z</time>
      </trkpt>
      <trkpt lat="41.8162600" lon="-8.8685550">
        <ele>6.6</ele>
        <time>2021-05-18T09:50:08Z</time>
      </trkpt>
      <trkpt lat="41.8162600" lon="-8.8685550">
        <ele>6.6</ele>
        <time>2021-05-18T09:50:09Z</time>
      </trkpt>
      <trkpt lat="41.8162600" lon="-8.8685550">
        <ele>6.6</ele>
        <time>2021-05-18T09:50:10Z</time>
      </trkpt>
      <trkpt lat="41.8162600" lon="-8.8685550">
        <ele>6.6</ele>
        <time>2021-05-18T09:50:11Z</time>
      </trkpt>
      <trkpt lat="41.8162600" lon="-8.8685550">
        <ele>6.6</ele>
        <time>2021-05-18T09:50:12Z</time>
      </trkpt>
      <trkpt lat="41.8162600" lon="-8.8685550">
        <ele>6.6</ele>
        <time>2021-05-18T09:50:13Z</time>
      </trkpt>
      <trkpt lat="41.8162600" lon="-8.8685540">
        <ele>6.6</ele>
        <time>2021-05-18T09:50:14Z</time>
      </trkpt>
      <trkpt lat="41.8162590" lon="-8.8685540">
        <ele>6.6</ele>
        <time>2021-05-18T09:50:15Z</time>
      </trkpt>
      <trkpt lat="41.8162590" lon="-8.8685540">
        <ele>6.6</ele>
        <time>2021-05-18T09:50:16Z</time>
      </trkpt>
      <trkpt lat="41.8162590" lon="-8.8685540">
        <ele>6.6</ele>
        <time>2021-05-18T09:50:17Z</time>
      </trkpt>
      <trkpt lat="41.8162590" lon="-8.8685540">
        <ele>6.6</ele>
        <time>2021-05-18T09:50:18Z</time>
      </trkpt>
      <trkpt lat="41.8162590" lon="-8.8685540">
        <ele>6.6</ele>
        <time>2021-05-18T09:50:19Z</time>
      </trkpt>
      <trkpt lat="41.8162590" lon="-8.8685540">
        <ele>6.6</ele>
        <time>2021-05-18T09:50:20Z</time>
      </trkpt>
      <trkpt lat="41.8162590" lon="-8.8685540">
        <ele>6.6</ele>
        <time>2021-05-18T09:50:21Z</time>
      </trkpt>
      <trkpt lat="41.8162590" lon="-8.8685540">
        <ele>6.6</ele>
        <time>2021-05-18T09:50:22Z</time>
      </trkpt>
      <trkpt lat="41.8162590" lon="-8.8685540">
        <ele>6.6</ele>
        <time>2021-05-18T09:50:23Z</time>
      </trkpt>
      <trkpt lat="41.8162590" lon="-8.8685540">
        <ele>6.6</ele>
        <time>2021-05-18T09:50:24Z</time>
      </trkpt>
      <trkpt lat="41.8162590" lon="-8.8685540">
        <ele>6.6</ele>
        <time>2021-05-18T09:50:25Z</time>
      </trkpt>
      <trkpt lat="41.8162590" lon="-8.8685530">
        <ele>6.6</ele>
        <time>2021-05-18T09:50:26Z</time>
      </trkpt>
      <trkpt lat="41.8162590" lon="-8.8685530">
        <ele>6.6</ele>
        <time>2021-05-18T09:50:27Z</time>
      </trkpt>
      <trkpt lat="41.8162590" lon="-8.8685530">
        <ele>6.6</ele>
        <time>2021-05-18T09:50:28Z</time>
      </trkpt>
      <trkpt lat="41.8162590" lon="-8.8685530">
        <ele>6.6</ele>
        <time>2021-05-18T09:50:29Z</time>
      </trkpt>
      <trkpt lat="41.8162580" lon="-8.8685530">
        <ele>6.6</ele>
        <time>2021-05-18T09:50:30Z</time>
      </trkpt>
      <trkpt lat="41.8162580" lon="-8.8685530">
        <ele>6.6</ele>
        <time>2021-05-18T09:50:31Z</time>
      </trkpt>
      <trkpt lat="41.8162580" lon="-8.8685530">
        <ele>6.6</ele>
        <time>2021-05-18T09:50:32Z</time>
      </trkpt>
      <trkpt lat="41.8162580" lon="-8.8685530">
        <ele>6.6</ele>
        <time>2021-05-18T09:50:33Z</time>
      </trkpt>
      <trkpt lat="41.8162580" lon="-8.8685530">
        <ele>6.6</ele>
        <time>2021-05-18T09:50:34Z</time>
      </trkpt>
      <trkpt lat="41.8162580" lon="-8.8685530">
        <ele>6.6</ele>
        <time>2021-05-18T09:50:35Z</time>
      </trkpt>
      <trkpt lat="41.8162580" lon="-8.8685530">
        <ele>6.6</ele>
        <time>2021-05-18T09:50:36Z</time>
      </trkpt>
      <trkpt lat="41.8162580" lon="-8.8685530">
        <ele>6.6</ele>
        <time>2021-05-18T09:50:37Z</time>
      </trkpt>
      <trkpt lat="41.8162580" lon="-8.8685520">
        <ele>6.6</ele>
        <time>2021-05-18T09:50:38Z</time>
      </trkpt>
      <trkpt lat="41.8162580" lon="-8.8685520">
        <ele>6.6</ele>
        <time>2021-05-18T09:50:39Z</time>
      </trkpt>
      <trkpt lat="41.8162580" lon="-8.8685520">
        <ele>6.6</ele>
        <time>2021-05-18T09:50:40Z</time>
      </trkpt>
      <trkpt lat="41.8162580" lon="-8.8685520">
        <ele>6.6</ele>
        <time>2021-05-18T09:50:41Z</time>
      </trkpt>
      <trkpt lat="41.8162580" lon="-8.8685520">
        <ele>6.6</ele>
        <time>2021-05-18T09:50:42Z</time>
      </trkpt>
      <trkpt lat="41.8162580" lon="-8.8685520">
        <ele>6.6</ele>
        <time>2021-05-18T09:50:43Z</time>
      </trkpt>
      <trkpt lat="41.8162580" lon="-8.8685520">
        <ele>6.6</ele>
        <time>2021-05-18T09:50:44Z</time>
      </trkpt>
      <trkpt lat="41.8162570" lon="-8.8685520">
        <ele>6.6</ele>
        <time>2021-05-18T09:50:45Z</time>
      </trkpt>
      <trkpt lat="41.8162570" lon="-8.8685520">
        <ele>6.6</ele>
        <time>2021-05-18T09:50:46Z</time>
      </trkpt>
      <trkpt lat="41.8162570" lon="-8.8685520">
        <ele>6.6</ele>
        <time>2021-05-18T09:50:47Z</time>
      </trkpt>
      <trkpt lat="41.8162570" lon="-8.8685520">
        <ele>6.6</ele>
        <time>2021-05-18T09:50:48Z</time>
      </trkpt>
      <trkpt lat="41.8162570" lon="-8.8685520">
        <ele>6.6</ele>
        <time>2021-05-18T09:50:49Z</time>
      </trkpt>
      <trkpt lat="41.8162570" lon="-8.8685510">
        <ele>6.6</ele>
        <time>2021-05-18T09:50:50Z</time>
      </trkpt>
      <trkpt lat="41.8162570" lon="-8.8685510">
        <ele>6.6</ele>
        <time>2021-05-18T09:50:51Z</time>
      </trkpt>
      <trkpt lat="41.8162570" lon="-8.8685510">
        <ele>6.6</ele>
        <time>2021-05-18T09:50:52Z</time>
      </trkpt>
      <trkpt lat="41.8162570" lon="-8.8685510">
        <ele>6.6</ele>
        <time>2021-05-18T09:50:53Z</time>
      </trkpt>
      <trkpt lat="41.8162570" lon="-8.8685510">
        <ele>6.6</ele>
        <time>2021-05-18T09:50:54Z</time>
      </trkpt>
      <trkpt lat="41.8162570" lon="-8.8685510">
        <ele>6.6</ele>
        <time>2021-05-18T09:50:55Z</time>
      </trkpt>
      <trkpt lat="41.8162570" lon="-8.8685510">
        <ele>6.6</ele>
        <time>2021-05-18T09:50:56Z</time>
      </trkpt>
      <trkpt lat="41.8162570" lon="-8.8685510">
        <ele>6.6</ele>
        <time>2021-05-18T09:50:57Z</time>
      </trkpt>
      <trkpt lat="41.8162570" lon="-8.8685510">
        <ele>6.6</ele>
        <time>2021-05-18T09:50:58Z</time>
      </trkpt>
      <trkpt lat="41.8162570" lon="-8.8685510">
        <ele>6.6</ele>
        <time>2021-05-18T09:50:59Z</time>
      </trkpt>
      <trkpt lat="41.8162570" lon="-8.8685510">
        <ele>6.6</ele>
        <time>2021-05-18T09:51:00Z</time>
      </trkpt>
      <trkpt lat="41.8162560" lon="-8.8685510">
        <ele>6.6</ele>
        <time>2021-05-18T09:51:01Z</time>
      </trkpt>
      <trkpt lat="41.8162560" lon="-8.8685500">
        <ele>6.6</ele>
        <time>2021-05-18T09:51:02Z</time>
      </trkpt>
      <trkpt lat="41.8162560" lon="-8.8685500">
        <ele>6.6</ele>
        <time>2021-05-18T09:51:03Z</time>
      </trkpt>
      <trkpt lat="41.8162560" lon="-8.8685500">
        <ele>6.6</ele>
        <time>2021-05-18T09:51:04Z</time>
      </trkpt>
      <trkpt lat="41.8162560" lon="-8.8685500">
        <ele>6.6</ele>
        <time>2021-05-18T09:51:05Z</time>
      </trkpt>
      <trkpt lat="41.8162560" lon="-8.8685500">
        <ele>6.6</ele>
        <time>2021-05-18T09:51:06Z</time>
      </trkpt>
      <trkpt lat="41.8162560" lon="-8.8685500">
        <ele>6.6</ele>
        <time>2021-05-18T09:51:07Z</time>
      </trkpt>
      <trkpt lat="41.8162560" lon="-8.8685500">
        <ele>6.6</ele>
        <time>2021-05-18T09:51:08Z</time>
      </trkpt>
      <trkpt lat="41.8162560" lon="-8.8685500">
        <ele>6.6</ele>
        <time>2021-05-18T09:51:09Z</time>
      </trkpt>
      <trkpt lat="41.8162560" lon="-8.8685500">
        <ele>6.6</ele>
        <time>2021-05-18T09:51:10Z</time>
      </trkpt>
      <trkpt lat="41.8162560" lon="-8.8685500">
        <ele>6.6</ele>
        <time>2021-05-18T09:51:11Z</time>
      </trkpt>
      <trkpt lat="41.8162560" lon="-8.8685500">
        <ele>6.6</ele>
        <time>2021-05-18T09:51:12Z</time>
      </trkpt>
      <trkpt lat="41.8162560" lon="-8.8685500">
        <ele>6.6</ele>
        <time>2021-05-18T09:51:13Z</time>
      </trkpt>
      <trkpt lat="41.8162560" lon="-8.8685490">
        <ele>6.6</ele>
        <time>2021-05-18T09:51:14Z</time>
      </trkpt>
      <trkpt lat="41.8162560" lon="-8.8685490">
        <ele>6.6</ele>
        <time>2021-05-18T09:51:15Z</time>
      </trkpt>
      <trkpt lat="41.8162550" lon="-8.8685490">
        <ele>6.6</ele>
        <time>2021-05-18T09:51:16Z</time>
      </trkpt>
      <trkpt lat="41.8162550" lon="-8.8685490">
        <ele>6.6</ele>
        <time>2021-05-18T09:51:17Z</time>
      </trkpt>
      <trkpt lat="41.8162550" lon="-8.8685490">
        <ele>6.6</ele>
        <time>2021-05-18T09:51:18Z</time>
      </trkpt>
      <trkpt lat="41.8162550" lon="-8.8685490">
        <ele>6.6</ele>
        <time>2021-05-18T09:51:19Z</time>
      </trkpt>
      <trkpt lat="41.8162550" lon="-8.8685490">
        <ele>6.6</ele>
        <time>2021-05-18T09:51:20Z</time>
      </trkpt>
      <trkpt lat="41.8162550" lon="-8.8685490">
        <ele>6.6</ele>
        <time>2021-05-18T09:51:21Z</time>
      </trkpt>
      <trkpt lat="41.8162550" lon="-8.8685490">
        <ele>6.6</ele>
        <time>2021-05-18T09:51:22Z</time>
      </trkpt>
      <trkpt lat="41.8162550" lon="-8.8685490">
        <ele>6.6</ele>
        <time>2021-05-18T09:51:23Z</time>
      </trkpt>
      <trkpt lat="41.8162550" lon="-8.8685490">
        <ele>6.6</ele>
        <time>2021-05-18T09:51:24Z</time>
      </trkpt>
      <trkpt lat="41.8162550" lon="-8.8685490">
        <ele>6.6</ele>
        <time>2021-05-18T09:51:25Z</time>
      </trkpt>
      <trkpt lat="41.8162550" lon="-8.8685480">
        <ele>6.6</ele>
        <time>2021-05-18T09:51:26Z</time>
      </trkpt>
      <trkpt lat="41.8162550" lon="-8.8685480">
        <ele>6.6</ele>
        <time>2021-05-18T09:51:27Z</time>
      </trkpt>
      <trkpt lat="41.8162550" lon="-8.8685480">
        <ele>6.6</ele>
        <time>2021-05-18T09:51:28Z</time>
      </trkpt>
      <trkpt lat="41.8162550" lon="-8.8685480">
        <ele>6.6</ele>
        <time>2021-05-18T09:51:29Z</time>
      </trkpt>
      <trkpt lat="41.8162550" lon="-8.8685480">
        <ele>6.6</ele>
        <time>2021-05-18T09:51:30Z</time>
      </trkpt>
      <trkpt lat="41.8162540" lon="-8.8685480">
        <ele>6.6</ele>
        <time>2021-05-18T09:51:31Z</time>
      </trkpt>
      <trkpt lat="41.8162540" lon="-8.8685480">
        <ele>6.6</ele>
        <time>2021-05-18T09:51:32Z</time>
      </trkpt>
      <trkpt lat="41.8162540" lon="-8.8685480">
        <ele>6.6</ele>
        <time>2021-05-18T09:51:33Z</time>
      </trkpt>
      <trkpt lat="41.8162540" lon="-8.8685480">
        <ele>6.6</ele>
        <time>2021-05-18T09:51:34Z</time>
      </trkpt>
      <trkpt lat="41.8162540" lon="-8.8685480">
        <ele>6.6</ele>
        <time>2021-05-18T09:51:35Z</time>
      </trkpt>
      <trkpt lat="41.8162540" lon="-8.8685480">
        <ele>6.6</ele>
        <time>2021-05-18T09:51:36Z</time>
      </trkpt>
      <trkpt lat="41.8162540" lon="-8.8685480">
        <ele>6.6</ele>
        <time>2021-05-18T09:51:37Z</time>
      </trkpt>
      <trkpt lat="41.8162540" lon="-8.8685470">
        <ele>6.6</ele>
        <time>2021-05-18T09:51:38Z</time>
      </trkpt>
      <trkpt lat="41.8162540" lon="-8.8685470">
        <ele>6.6</ele>
        <time>2021-05-18T09:51:39Z</time>
      </trkpt>
      <trkpt lat="41.8162540" lon="-8.8685470">
        <ele>6.6</ele>
        <time>2021-05-18T09:51:40Z</time>
      </trkpt>
      <trkpt lat="41.8162540" lon="-8.8685470">
        <ele>6.6</ele>
        <time>2021-05-18T09:51:41Z</time>
      </trkpt>
      <trkpt lat="41.8162540" lon="-8.8685470">
        <ele>6.6</ele>
        <time>2021-05-18T09:51:42Z</time>
      </trkpt>
      <trkpt lat="41.8162540" lon="-8.8685470">
        <ele>6.6</ele>
        <time>2021-05-18T09:51:43Z</time>
      </trkpt>
      <trkpt lat="41.8162540" lon="-8.8685470">
        <ele>6.6</ele>
        <time>2021-05-18T09:51:44Z</time>
      </trkpt>
      <trkpt lat="41.8162540" lon="-8.8685470">
        <ele>6.6</ele>
        <time>2021-05-18T09:51:45Z</time>
      </trkpt>
      <trkpt lat="41.8162530" lon="-8.8685470">
        <ele>6.6</ele>
        <time>2021-05-18T09:51:46Z</time>
      </trkpt>
      <trkpt lat="41.8162530" lon="-8.8685470">
        <ele>6.6</ele>
        <time>2021-05-18T09:51:47Z</time>
      </trkpt>
      <trkpt lat="41.8162530" lon="-8.8685470">
        <ele>6.6</ele>
        <time>2021-05-18T09:51:48Z</time>
      </trkpt>
      <trkpt lat="41.8162530" lon="-8.8685470">
        <ele>6.6</ele>
        <time>2021-05-18T09:51:49Z</time>
      </trkpt>
      <trkpt lat="41.8162530" lon="-8.8685470">
        <ele>6.6</ele>
        <time>2021-05-18T09:51:50Z</time>
      </trkpt>
      <trkpt lat="41.8162530" lon="-8.8685460">
        <ele>6.6</ele>
        <time>2021-05-18T09:51:51Z</time>
      </trkpt>
      <trkpt lat="41.8162530" lon="-8.8685460">
        <ele>6.6</ele>
        <time>2021-05-18T09:51:52Z</time>
      </trkpt>
      <trkpt lat="41.8162530" lon="-8.8685460">
        <ele>6.6</ele>
        <time>2021-05-18T09:51:53Z</time>
      </trkpt>
      <trkpt lat="41.8162530" lon="-8.8685460">
        <ele>6.6</ele>
        <time>2021-05-18T09:51:54Z</time>
      </trkpt>
      <trkpt lat="41.8162530" lon="-8.8685460">
        <ele>6.6</ele>
        <time>2021-05-18T09:51:55Z</time>
      </trkpt>
      <trkpt lat="41.8162530" lon="-8.8685460">
        <ele>6.6</ele>
        <time>2021-05-18T09:51:56Z</time>
      </trkpt>
      <trkpt lat="41.8162530" lon="-8.8685460">
        <ele>6.6</ele>
        <time>2021-05-18T09:51:57Z</time>
      </trkpt>
      <trkpt lat="41.8162530" lon="-8.8685460">
        <ele>6.6</ele>
        <time>2021-05-18T09:51:58Z</time>
      </trkpt>
      <trkpt lat="41.8162530" lon="-8.8685460">
        <ele>6.6</ele>
        <time>2021-05-18T09:51:59Z</time>
      </trkpt>
      <trkpt lat="41.8162530" lon="-8.8685460">
        <ele>6.6</ele>
        <time>2021-05-18T09:52:00Z</time>
      </trkpt>
      <trkpt lat="41.8162520" lon="-8.8685460">
        <ele>6.6</ele>
        <time>2021-05-18T09:52:01Z</time>
      </trkpt>
      <trkpt lat="41.8162520" lon="-8.8685460">
        <ele>6.6</ele>
        <time>2021-05-18T09:52:02Z</time>
      </trkpt>
      <trkpt lat="41.8162520" lon="-8.8685450">
        <ele>6.6</ele>
        <time>2021-05-18T09:52:03Z</time>
      </trkpt>
      <trkpt lat="41.8162520" lon="-8.8685450">
        <ele>6.6</ele>
        <time>2021-05-18T09:52:04Z</time>
      </trkpt>
      <trkpt lat="41.8162520" lon="-8.8685450">
        <ele>6.6</ele>
        <time>2021-05-18T09:52:05Z</time>
      </trkpt>
      <trkpt lat="41.8162520" lon="-8.8685450">
        <ele>6.6</ele>
        <time>2021-05-18T09:52:06Z</time>
      </trkpt>
      <trkpt lat="41.8162520" lon="-8.8685450">
        <ele>6.6</ele>
        <time>2021-05-18T09:52:07Z</time>
      </trkpt>
      <trkpt lat="41.8162520" lon="-8.8685450">
        <ele>6.6</ele>
        <time>2021-05-18T09:52:08Z</time>
      </trkpt>
      <trkpt lat="41.8162520" lon="-8.8685450">
        <ele>6.6</ele>
        <time>2021-05-18T09:52:09Z</time>
      </trkpt>
      <trkpt lat="41.8162520" lon="-8.8685450">
        <ele>6.6</ele>
        <time>2021-05-18T09:52:10Z</time>
      </trkpt>
      <trkpt lat="41.8162520" lon="-8.8685450">
        <ele>6.6</ele>
        <time>2021-05-18T09:52:11Z</time>
      </trkpt>
      <trkpt lat="41.8162520" lon="-8.8685450">
        <ele>6.6</ele>
        <time>2021-05-18T09:52:12Z</time>
      </trkpt>
      <trkpt lat="41.8162520" lon="-8.8685450">
        <ele>6.6</ele>
        <time>2021-05-18T09:52:13Z</time>
      </trkpt>
      <trkpt lat="41.8162520" lon="-8.8685450">
        <ele>6.6</ele>
        <time>2021-05-18T09:52:14Z</time>
      </trkpt>
      <trkpt lat="41.8162520" lon="-8.8685440">
        <ele>6.6</ele>
        <time>2021-05-18T09:52:15Z</time>
      </trkpt>
      <trkpt lat="41.8162510" lon="-8.8685440">
        <ele>6.6</ele>
        <time>2021-05-18T09:52:16Z</time>
      </trkpt>
      <trkpt lat="41.8162510" lon="-8.8685440">
        <ele>6.6</ele>
        <time>2021-05-18T09:52:17Z</time>
      </trkpt>
      <trkpt lat="41.8162510" lon="-8.8685440">
        <ele>6.6</ele>
        <time>2021-05-18T09:52:18Z</time>
      </trkpt>
      <trkpt lat="41.8162510" lon="-8.8685440">
        <ele>6.6</ele>
        <time>2021-05-18T09:52:19Z</time>
      </trkpt>
      <trkpt lat="41.8162510" lon="-8.8685440">
        <ele>6.6</ele>
        <time>2021-05-18T09:52:20Z</time>
      </trkpt>
      <trkpt lat="41.8162510" lon="-8.8685440">
        <ele>6.6</ele>
        <time>2021-05-18T09:52:21Z</time>
      </trkpt>
      <trkpt lat="41.8162510" lon="-8.8685440">
        <ele>6.6</ele>
        <time>2021-05-18T09:52:22Z</time>
      </trkpt>
      <trkpt lat="41.8162510" lon="-8.8685440">
        <ele>6.6</ele>
        <time>2021-05-18T09:52:23Z</time>
      </trkpt>
      <trkpt lat="41.8162510" lon="-8.8685440">
        <ele>6.6</ele>
        <time>2021-05-18T09:52:24Z</time>
      </trkpt>
      <trkpt lat="41.8162510" lon="-8.8685440">
        <ele>6.6</ele>
        <time>2021-05-18T09:52:25Z</time>
      </trkpt>
      <trkpt lat="41.8162510" lon="-8.8685440">
        <ele>6.6</ele>
        <time>2021-05-18T09:52:26Z</time>
      </trkpt>
      <trkpt lat="41.8162510" lon="-8.8685430">
        <ele>6.6</ele>
        <time>2021-05-18T09:52:27Z</time>
      </trkpt>
      <trkpt lat="41.8162510" lon="-8.8685430">
        <ele>6.6</ele>
        <time>2021-05-18T09:52:28Z</time>
      </trkpt>
      <trkpt lat="41.8162510" lon="-8.8685430">
        <ele>6.6</ele>
        <time>2021-05-18T09:52:29Z</time>
      </trkpt>
      <trkpt lat="41.8162510" lon="-8.8685430">
        <ele>6.6</ele>
        <time>2021-05-18T09:52:30Z</time>
      </trkpt>
      <trkpt lat="41.8162510" lon="-8.8685430">
        <ele>6.6</ele>
        <time>2021-05-18T09:52:31Z</time>
      </trkpt>
      <trkpt lat="41.8162500" lon="-8.8685430">
        <ele>6.6</ele>
        <time>2021-05-18T09:52:32Z</time>
      </trkpt>
      <trkpt lat="41.8162500" lon="-8.8685430">
        <ele>6.6</ele>
        <time>2021-05-18T09:52:33Z</time>
      </trkpt>
      <trkpt lat="41.8162500" lon="-8.8685430">
        <ele>6.6</ele>
        <time>2021-05-18T09:52:34Z</time>
      </trkpt>
      <trkpt lat="41.8162500" lon="-8.8685430">
        <ele>6.6</ele>
        <time>2021-05-18T09:52:35Z</time>
      </trkpt>
      <trkpt lat="41.8162500" lon="-8.8685430">
        <ele>6.6</ele>
        <time>2021-05-18T09:52:36Z</time>
      </trkpt>
      <trkpt lat="41.8162500" lon="-8.8685430">
        <ele>6.6</ele>
        <time>2021-05-18T09:52:37Z</time>
      </trkpt>
      <trkpt lat="41.8162500" lon="-8.8685430">
        <ele>6.6</ele>
        <time>2021-05-18T09:52:38Z</time>
      </trkpt>
      <trkpt lat="41.8162500" lon="-8.8685420">
        <ele>6.6</ele>
        <time>2021-05-18T09:52:39Z</time>
      </trkpt>
      <trkpt lat="41.8162500" lon="-8.8685420">
        <ele>6.6</ele>
        <time>2021-05-18T09:52:40Z</time>
      </trkpt>
      <trkpt lat="41.8162500" lon="-8.8685420">
        <ele>6.6</ele>
        <time>2021-05-18T09:52:41Z</time>
      </trkpt>
      <trkpt lat="41.8162500" lon="-8.8685420">
        <ele>6.6</ele>
        <time>2021-05-18T09:52:42Z</time>
      </trkpt>
      <trkpt lat="41.8162500" lon="-8.8685420">
        <ele>6.6</ele>
        <time>2021-05-18T09:52:43Z</time>
      </trkpt>
      <trkpt lat="41.8162500" lon="-8.8685420">
        <ele>6.6</ele>
        <time>2021-05-18T09:52:44Z</time>
      </trkpt>
      <trkpt lat="41.8162500" lon="-8.8685420">
        <ele>6.6</ele>
        <time>2021-05-18T09:52:45Z</time>
      </trkpt>
      <trkpt lat="41.8162500" lon="-8.8685420">
        <ele>6.6</ele>
        <time>2021-05-18T09:52:46Z</time>
      </trkpt>
      <trkpt lat="41.8162490" lon="-8.8685420">
        <ele>6.6</ele>
        <time>2021-05-18T09:52:47Z</time>
      </trkpt>
      <trkpt lat="41.8162490" lon="-8.8685420">
        <ele>6.6</ele>
        <time>2021-05-18T09:52:48Z</time>
      </trkpt>
      <trkpt lat="41.8162490" lon="-8.8685420">
        <ele>6.6</ele>
        <time>2021-05-18T09:52:49Z</time>
      </trkpt>
      <trkpt lat="41.8162490" lon="-8.8685420">
        <ele>6.6</ele>
        <time>2021-05-18T09:52:50Z</time>
      </trkpt>
      <trkpt lat="41.8162490" lon="-8.8685410">
        <ele>6.6</ele>
        <time>2021-05-18T09:52:51Z</time>
      </trkpt>
      <trkpt lat="41.8162490" lon="-8.8685410">
        <ele>6.6</ele>
        <time>2021-05-18T09:52:52Z</time>
      </trkpt>
      <trkpt lat="41.8162490" lon="-8.8685410">
        <ele>6.6</ele>
        <time>2021-05-18T09:52:53Z</time>
      </trkpt>
      <trkpt lat="41.8162490" lon="-8.8685410">
        <ele>6.6</ele>
        <time>2021-05-18T09:52:54Z</time>
      </trkpt>
      <trkpt lat="41.8162490" lon="-8.8685410">
        <ele>6.6</ele>
        <time>2021-05-18T09:52:55Z</time>
      </trkpt>
      <trkpt lat="41.8162490" lon="-8.8685410">
        <ele>6.6</ele>
        <time>2021-05-18T09:52:56Z</time>
      </trkpt>
      <trkpt lat="41.8162490" lon="-8.8685410">
        <ele>6.6</ele>
        <time>2021-05-18T09:52:57Z</time>
      </trkpt>
      <trkpt lat="41.8162490" lon="-8.8685410">
        <ele>6.6</ele>
        <time>2021-05-18T09:52:58Z</time>
      </trkpt>
      <trkpt lat="41.8162490" lon="-8.8685410">
        <ele>6.6</ele>
        <time>2021-05-18T09:52:59Z</time>
      </trkpt>
      <trkpt lat="41.8162490" lon="-8.8685410">
        <ele>6.6</ele>
        <time>2021-05-18T09:53:00Z</time>
      </trkpt>
      <trkpt lat="41.8162490" lon="-8.8685410">
        <ele>6.6</ele>
        <time>2021-05-18T09:53:01Z</time>
      </trkpt>
      <trkpt lat="41.8162480" lon="-8.8685410">
        <ele>6.6</ele>
        <time>2021-05-18T09:53:02Z</time>
      </trkpt>
      <trkpt lat="41.8162480" lon="-8.8685400">
        <ele>6.6</ele>
        <time>2021-05-18T09:53:03Z</time>
      </trkpt>
      <trkpt lat="41.8162480" lon="-8.8685400">
        <ele>6.6</ele>
        <time>2021-05-18T09:53:04Z</time>
      </trkpt>
      <trkpt lat="41.8162480" lon="-8.8685400">
        <ele>6.6</ele>
        <time>2021-05-18T09:53:05Z</time>
      </trkpt>
      <trkpt lat="41.8162480" lon="-8.8685400">
        <ele>6.6</ele>
        <time>2021-05-18T09:53:06Z</time>
      </trkpt>
      <trkpt lat="41.8162480" lon="-8.8685400">
        <ele>6.6</ele>
        <time>2021-05-18T09:53:07Z</time>
      </trkpt>
      <trkpt lat="41.8162480" lon="-8.8685400">
        <ele>6.6</ele>
        <time>2021-05-18T09:53:08Z</time>
      </trkpt>
      <trkpt lat="41.8162480" lon="-8.8685400">
        <ele>6.6</ele>
        <time>2021-05-18T09:53:09Z</time>
      </trkpt>
      <trkpt lat="41.8162480" lon="-8.8685400">
        <ele>6.6</ele>
        <time>2021-05-18T09:53:10Z</time>
      </trkpt>
      <trkpt lat="41.8162480" lon="-8.8685400">
        <ele>6.6</ele>
        <time>2021-05-18T09:53:11Z</time>
      </trkpt>
      <trkpt lat="41.8162480" lon="-8.8685400">
        <ele>6.6</ele>
        <time>2021-05-18T09:53:12Z</time>
      </trkpt>
      <trkpt lat="41.8162480" lon="-8.8685400">
        <ele>6.6</ele>
        <time>2021-05-18T09:53:13Z</time>
      </trkpt>
      <trkpt lat="41.8162480" lon="-8.8685400">
        <ele>6.6</ele>
        <time>2021-05-18T09:53:14Z</time>
      </trkpt>
      <trkpt lat="41.8162480" lon="-8.8685400">
        <ele>6.6</ele>
        <time>2021-05-18T09:53:15Z</time>
      </trkpt>
      <trkpt lat="41.8162480" lon="-8.8685390">
        <ele>6.6</ele>
        <time>2021-05-18T09:53:16Z</time>
      </trkpt>
      <trkpt lat="41.8162470" lon="-8.8685390">
        <ele>6.6</ele>
        <time>2021-05-18T09:53:17Z</time>
      </trkpt>
      <trkpt lat="41.8162470" lon="-8.8685390">
        <ele>6.6</ele>
        <time>2021-05-18T09:53:18Z</time>
      </trkpt>
      <trkpt lat="41.8162470" lon="-8.8685390">
        <ele>6.6</ele>
        <time>2021-05-18T09:53:19Z</time>
      </trkpt>
      <trkpt lat="41.8162470" lon="-8.8685390">
        <ele>6.6</ele>
        <time>2021-05-18T09:53:20Z</time>
      </trkpt>
      <trkpt lat="41.8162470" lon="-8.8685390">
        <ele>6.6</ele>
        <time>2021-05-18T09:53:21Z</time>
      </trkpt>
      <trkpt lat="41.8162470" lon="-8.8685390">
        <ele>6.6</ele>
        <time>2021-05-18T09:53:22Z</time>
      </trkpt>
      <trkpt lat="41.8162470" lon="-8.8685390">
        <ele>6.6</ele>
        <time>2021-05-18T09:53:23Z</time>
      </trkpt>
      <trkpt lat="41.8162470" lon="-8.8685390">
        <ele>6.6</ele>
        <time>2021-05-18T09:53:24Z</time>
      </trkpt>
      <trkpt lat="41.8162470" lon="-8.8685390">
        <ele>6.6</ele>
        <time>2021-05-18T09:53:25Z</time>
      </trkpt>
      <trkpt lat="41.8162470" lon="-8.8685390">
        <ele>6.6</ele>
        <time>2021-05-18T09:53:26Z</time>
      </trkpt>
      <trkpt lat="41.8162470" lon="-8.8685390">
        <ele>6.6</ele>
        <time>2021-05-18T09:53:27Z</time>
      </trkpt>
      <trkpt lat="41.8162470" lon="-8.8685380">
        <ele>6.6</ele>
        <time>2021-05-18T09:53:28Z</time>
      </trkpt>
      <trkpt lat="41.8162470" lon="-8.8685380">
        <ele>6.6</ele>
        <time>2021-05-18T09:53:29Z</time>
      </trkpt>
      <trkpt lat="41.8162470" lon="-8.8685380">
        <ele>6.6</ele>
        <time>2021-05-18T09:53:30Z</time>
      </trkpt>
      <trkpt lat="41.8162470" lon="-8.8685380">
        <ele>6.6</ele>
        <time>2021-05-18T09:53:31Z</time>
      </trkpt>
      <trkpt lat="41.8162460" lon="-8.8685380">
        <ele>6.6</ele>
        <time>2021-05-18T09:53:32Z</time>
      </trkpt>
      <trkpt lat="41.8162460" lon="-8.8685380">
        <ele>6.6</ele>
        <time>2021-05-18T09:53:33Z</time>
      </trkpt>
      <trkpt lat="41.8162460" lon="-8.8685380">
        <ele>6.6</ele>
        <time>2021-05-18T09:53:34Z</time>
      </trkpt>
      <trkpt lat="41.8162460" lon="-8.8685380">
        <ele>6.6</ele>
        <time>2021-05-18T09:53:35Z</time>
      </trkpt>
      <trkpt lat="41.8162460" lon="-8.8685380">
        <ele>6.6</ele>
        <time>2021-05-18T09:53:36Z</time>
      </trkpt>
      <trkpt lat="41.8162460" lon="-8.8685380">
        <ele>6.6</ele>
        <time>2021-05-18T09:53:37Z</time>
      </trkpt>
      <trkpt lat="41.8162460" lon="-8.8685380">
        <ele>6.6</ele>
        <time>2021-05-18T09:53:38Z</time>
      </trkpt>
      <trkpt lat="41.8162460" lon="-8.8685380">
        <ele>6.6</ele>
        <time>2021-05-18T09:53:39Z</time>
      </trkpt>
      <trkpt lat="41.8162460" lon="-8.8685370">
        <ele>6.6</ele>
        <time>2021-05-18T09:53:40Z</time>
      </trkpt>
      <trkpt lat="41.8162460" lon="-8.8685370">
        <ele>6.6</ele>
        <time>2021-05-18T09:53:41Z</time>
      </trkpt>
      <trkpt lat="41.8162460" lon="-8.8685370">
        <ele>6.6</ele>
        <time>2021-05-18T09:53:42Z</time>
      </trkpt>
      <trkpt lat="41.8162460" lon="-8.8685370">
        <ele>6.6</ele>
        <time>2021-05-18T09:53:43Z</time>
      </trkpt>
      <trkpt lat="41.8162460" lon="-8.8685370">
        <ele>6.6</ele>
        <time>2021-05-18T09:53:44Z</time>
      </trkpt>
      <trkpt lat="41.8162460" lon="-8.8685370">
        <ele>6.6</ele>
        <time>2021-05-18T09:53:45Z</time>
      </trkpt>
      <trkpt lat="41.8162460" lon="-8.8685370">
        <ele>6.6</ele>
        <time>2021-05-18T09:53:46Z</time>
      </trkpt>
      <trkpt lat="41.8162450" lon="-8.8685370">
        <ele>6.6</ele>
        <time>2021-05-18T09:53:47Z</time>
      </trkpt>
      <trkpt lat="41.8162450" lon="-8.8685370">
        <ele>6.6</ele>
        <time>2021-05-18T09:53:48Z</time>
      </trkpt>
      <trkpt lat="41.8162450" lon="-8.8685370">
        <ele>6.6</ele>
        <time>2021-05-18T09:53:49Z</time>
      </trkpt>
      <trkpt lat="41.8162450" lon="-8.8685370">
        <ele>6.6</ele>
        <time>2021-05-18T09:53:50Z</time>
      </trkpt>
      <trkpt lat="41.8162450" lon="-8.8685370">
        <ele>6.6</ele>
        <time>2021-05-18T09:53:51Z</time>
      </trkpt>
      <trkpt lat="41.8162450" lon="-8.8685360">
        <ele>6.6</ele>
        <time>2021-05-18T09:53:52Z</time>
      </trkpt>
      <trkpt lat="41.8162450" lon="-8.8685360">
        <ele>6.6</ele>
        <time>2021-05-18T09:53:53Z</time>
      </trkpt>
      <trkpt lat="41.8162450" lon="-8.8685360">
        <ele>6.6</ele>
        <time>2021-05-18T09:53:54Z</time>
      </trkpt>
      <trkpt lat="41.8162450" lon="-8.8685360">
        <ele>6.6</ele>
        <time>2021-05-18T09:53:55Z</time>
      </trkpt>
      <trkpt lat="41.8162450" lon="-8.8685360">
        <ele>6.6</ele>
        <time>2021-05-18T09:53:56Z</time>
      </trkpt>
      <trkpt lat="41.8162450" lon="-8.8685360">
        <ele>6.6</ele>
        <time>2021-05-18T09:53:57Z</time>
      </trkpt>
      <trkpt lat="41.8162450" lon="-8.8685360">
        <ele>6.6</ele>
        <time>2021-05-18T09:53:58Z</time>
      </trkpt>
      <trkpt lat="41.8162450" lon="-8.8685360">
        <ele>6.6</ele>
        <time>2021-05-18T09:53:59Z</time>
      </trkpt>
      <trkpt lat="41.8162450" lon="-8.8685360">
        <ele>6.6</ele>
        <time>2021-05-18T09:54:00Z</time>
      </trkpt>
      <trkpt lat="41.8162450" lon="-8.8685360">
        <ele>6.6</ele>
        <time>2021-05-18T09:54:01Z</time>
      </trkpt>
      <trkpt lat="41.8162450" lon="-8.8685360">
        <ele>6.6</ele>
        <time>2021-05-18T09:54:02Z</time>
      </trkpt>
      <trkpt lat="41.8162440" lon="-8.8685360">
        <ele>6.6</ele>
        <time>2021-05-18T09:54:03Z</time>
      </trkpt>
      <trkpt lat="41.8162440" lon="-8.8685350">
        <ele>6.6</ele>
        <time>2021-05-18T09:54:04Z</time>
      </trkpt>
      <trkpt lat="41.8162440" lon="-8.8685350">
        <ele>6.6</ele>
        <time>2021-05-18T09:54:05Z</time>
      </trkpt>
      <trkpt lat="41.8162440" lon="-8.8685350">
        <ele>6.6</ele>
        <time>2021-05-18T09:54:06Z</time>
      </trkpt>
      <trkpt lat="41.8162440" lon="-8.8685350">
        <ele>6.6</ele>
        <time>2021-05-18T09:54:07Z</time>
      </trkpt>
      <trkpt lat="41.8162440" lon="-8.8685350">
        <ele>6.6</ele>
        <time>2021-05-18T09:54:08Z</time>
      </trkpt>
      <trkpt lat="41.8162440" lon="-8.8685350">
        <ele>6.6</ele>
        <time>2021-05-18T09:54:09Z</time>
      </trkpt>
      <trkpt lat="41.8162440" lon="-8.8685350">
        <ele>6.6</ele>
        <time>2021-05-18T09:54:10Z</time>
      </trkpt>
      <trkpt lat="41.8162440" lon="-8.8685350">
        <ele>6.6</ele>
        <time>2021-05-18T09:54:11Z</time>
      </trkpt>
      <trkpt lat="41.8162440" lon="-8.8685350">
        <ele>6.6</ele>
        <time>2021-05-18T09:54:12Z</time>
      </trkpt>
      <trkpt lat="41.8162440" lon="-8.8685350">
        <ele>6.6</ele>
        <time>2021-05-18T09:54:13Z</time>
      </trkpt>
      <trkpt lat="41.8162440" lon="-8.8685350">
        <ele>6.6</ele>
        <time>2021-05-18T09:54:14Z</time>
      </trkpt>
      <trkpt lat="41.8162440" lon="-8.8685350">
        <ele>6.6</ele>
        <time>2021-05-18T09:54:15Z</time>
      </trkpt>
      <trkpt lat="41.8162440" lon="-8.8685340">
        <ele>6.6</ele>
        <time>2021-05-18T09:54:16Z</time>
      </trkpt>
      <trkpt lat="41.8162440" lon="-8.8685340">
        <ele>6.6</ele>
        <time>2021-05-18T09:54:17Z</time>
      </trkpt>
      <trkpt lat="41.8162430" lon="-8.8685340">
        <ele>6.6</ele>
        <time>2021-05-18T09:54:18Z</time>
      </trkpt>
      <trkpt lat="41.8162430" lon="-8.8685340">
        <ele>6.6</ele>
        <time>2021-05-18T09:54:19Z</time>
      </trkpt>
      <trkpt lat="41.8162430" lon="-8.8685340">
        <ele>6.6</ele>
        <time>2021-05-18T09:54:20Z</time>
      </trkpt>
      <trkpt lat="41.8162430" lon="-8.8685340">
        <ele>6.6</ele>
        <time>2021-05-18T09:54:21Z</time>
      </trkpt>
      <trkpt lat="41.8162430" lon="-8.8685340">
        <ele>6.6</ele>
        <time>2021-05-18T09:54:22Z</time>
      </trkpt>
      <trkpt lat="41.8162430" lon="-8.8685340">
        <ele>6.6</ele>
        <time>2021-05-18T09:54:23Z</time>
      </trkpt>
      <trkpt lat="41.8162430" lon="-8.8685340">
        <ele>6.6</ele>
        <time>2021-05-18T09:54:24Z</time>
      </trkpt>
      <trkpt lat="41.8162430" lon="-8.8685340">
        <ele>6.6</ele>
        <time>2021-05-18T09:54:25Z</time>
      </trkpt>
      <trkpt lat="41.8162430" lon="-8.8685340">
        <ele>6.6</ele>
        <time>2021-05-18T09:54:26Z</time>
      </trkpt>
      <trkpt lat="41.8162430" lon="-8.8685340">
        <ele>6.6</ele>
        <time>2021-05-18T09:54:27Z</time>
      </trkpt>
      <trkpt lat="41.8162430" lon="-8.8685330">
        <ele>6.6</ele>
        <time>2021-05-18T09:54:28Z</time>
      </trkpt>
      <trkpt lat="41.8162430" lon="-8.8685330">
        <ele>6.6</ele>
        <time>2021-05-18T09:54:29Z</time>
      </trkpt>
      <trkpt lat="41.8162430" lon="-8.8685330">
        <ele>6.6</ele>
        <time>2021-05-18T09:54:30Z</time>
      </trkpt>
      <trkpt lat="41.8162430" lon="-8.8685330">
        <ele>6.6</ele>
        <time>2021-05-18T09:54:31Z</time>
      </trkpt>
      <trkpt lat="41.8162430" lon="-8.8685330">
        <ele>6.6</ele>
        <time>2021-05-18T09:54:32Z</time>
      </trkpt>
      <trkpt lat="41.8162420" lon="-8.8685330">
        <ele>6.6</ele>
        <time>2021-05-18T09:54:33Z</time>
      </trkpt>
      <trkpt lat="41.8162420" lon="-8.8685330">
        <ele>6.6</ele>
        <time>2021-05-18T09:54:34Z</time>
      </trkpt>
      <trkpt lat="41.8162420" lon="-8.8685330">
        <ele>6.6</ele>
        <time>2021-05-18T09:54:35Z</time>
      </trkpt>
      <trkpt lat="41.8162420" lon="-8.8685330">
        <ele>6.6</ele>
        <time>2021-05-18T09:54:36Z</time>
      </trkpt>
      <trkpt lat="41.8162420" lon="-8.8685330">
        <ele>6.6</ele>
        <time>2021-05-18T09:54:37Z</time>
      </trkpt>
      <trkpt lat="41.8162420" lon="-8.8685330">
        <ele>6.6</ele>
        <time>2021-05-18T09:54:38Z</time>
      </trkpt>
      <trkpt lat="41.8162420" lon="-8.8685330">
        <ele>6.6</ele>
        <time>2021-05-18T09:54:39Z</time>
      </trkpt>
      <trkpt lat="41.8162420" lon="-8.8685320">
        <ele>6.6</ele>
        <time>2021-05-18T09:54:40Z</time>
      </trkpt>
      <trkpt lat="41.8162420" lon="-8.8685320">
        <ele>6.6</ele>
        <time>2021-05-18T09:54:41Z</time>
      </trkpt>
      <trkpt lat="41.8162420" lon="-8.8685320">
        <ele>6.6</ele>
        <time>2021-05-18T09:54:42Z</time>
      </trkpt>
      <trkpt lat="41.8162420" lon="-8.8685320">
        <ele>6.6</ele>
        <time>2021-05-18T09:54:43Z</time>
      </trkpt>
      <trkpt lat="41.8162420" lon="-8.8685320">
        <ele>6.6</ele>
        <time>2021-05-18T09:54:44Z</time>
      </trkpt>
      <trkpt lat="41.8162420" lon="-8.8685320">
        <ele>6.6</ele>
        <time>2021-05-18T09:54:45Z</time>
      </trkpt>
      <trkpt lat="41.8162420" lon="-8.8685320">
        <ele>6.6</ele>
        <time>2021-05-18T09:54:46Z</time>
      </trkpt>
      <trkpt lat="41.8162420" lon="-8.8685320">
        <ele>6.6</ele>
        <time>2021-05-18T09:54:47Z</time>
      </trkpt>
      <trkpt lat="41.8162410" lon="-8.8685320">
        <ele>6.6</ele>
        <time>2021-05-18T09:54:48Z</time>
      </trkpt>
      <trkpt lat="41.8162410" lon="-8.8685320">
        <ele>6.6</ele>
        <time>2021-05-18T09:54:49Z</time>
      </trkpt>
      <trkpt lat="41.8162410" lon="-8.8685320">
        <ele>6.6</ele>
        <time>2021-05-18T09:54:50Z</time>
      </trkpt>
      <trkpt lat="41.8162410" lon="-8.8685320">
        <ele>6.6</ele>
        <time>2021-05-18T09:54:51Z</time>
      </trkpt>
      <trkpt lat="41.8162410" lon="-8.8685320">
        <ele>6.6</ele>
        <time>2021-05-18T09:54:52Z</time>
      </trkpt>
      <trkpt lat="41.8162410" lon="-8.8685310">
        <ele>6.6</ele>
        <time>2021-05-18T09:54:53Z</time>
      </trkpt>
      <trkpt lat="41.8162410" lon="-8.8685310">
        <ele>6.6</ele>
        <time>2021-05-18T09:54:54Z</time>
      </trkpt>
      <trkpt lat="41.8162410" lon="-8.8685310">
        <ele>6.6</ele>
        <time>2021-05-18T09:54:55Z</time>
      </trkpt>
      <trkpt lat="41.8162410" lon="-8.8685310">
        <ele>6.6</ele>
        <time>2021-05-18T09:54:56Z</time>
      </trkpt>
      <trkpt lat="41.8162410" lon="-8.8685310">
        <ele>6.6</ele>
        <time>2021-05-18T09:54:57Z</time>
      </trkpt>
      <trkpt lat="41.8162410" lon="-8.8685310">
        <ele>6.6</ele>
        <time>2021-05-18T09:54:58Z</time>
      </trkpt>
      <trkpt lat="41.8162410" lon="-8.8685310">
        <ele>6.6</ele>
        <time>2021-05-18T09:54:59Z</time>
      </trkpt>
      <trkpt lat="41.8162410" lon="-8.8685310">
        <ele>6.6</ele>
        <time>2021-05-18T09:55:00Z</time>
      </trkpt>
      <trkpt lat="41.8162410" lon="-8.8685310">
        <ele>6.6</ele>
        <time>2021-05-18T09:55:01Z</time>
      </trkpt>
      <trkpt lat="41.8162410" lon="-8.8685310">
        <ele>6.6</ele>
        <time>2021-05-18T09:55:02Z</time>
      </trkpt>
      <trkpt lat="41.8162400" lon="-8.8685310">
        <ele>6.6</ele>
        <time>2021-05-18T09:55:03Z</time>
      </trkpt>
      <trkpt lat="41.8162400" lon="-8.8685310">
        <ele>6.6</ele>
        <time>2021-05-18T09:55:04Z</time>
      </trkpt>
      <trkpt lat="41.8162400" lon="-8.8685300">
        <ele>6.6</ele>
        <time>2021-05-18T09:55:05Z</time>
      </trkpt>
      <trkpt lat="41.8162400" lon="-8.8685300">
        <ele>6.6</ele>
        <time>2021-05-18T09:55:06Z</time>
      </trkpt>
      <trkpt lat="41.8162400" lon="-8.8685300">
        <ele>6.6</ele>
        <time>2021-05-18T09:55:07Z</time>
      </trkpt>
      <trkpt lat="41.8162400" lon="-8.8685300">
        <ele>6.6</ele>
        <time>2021-05-18T09:55:08Z</time>
      </trkpt>
      <trkpt lat="41.8162400" lon="-8.8685300">
        <ele>6.6</ele>
        <time>2021-05-18T09:55:09Z</time>
      </trkpt>
      <trkpt lat="41.8162400" lon="-8.8685300">
        <ele>6.6</ele>
        <time>2021-05-18T09:55:10Z</time>
      </trkpt>
      <trkpt lat="41.8162400" lon="-8.8685300">
        <ele>6.6</ele>
        <time>2021-05-18T09:55:11Z</time>
      </trkpt>
      <trkpt lat="41.8162400" lon="-8.8685300">
        <ele>6.6</ele>
        <time>2021-05-18T09:55:12Z</time>
      </trkpt>
      <trkpt lat="41.8162400" lon="-8.8685300">
        <ele>6.6</ele>
        <time>2021-05-18T09:55:13Z</time>
      </trkpt>
      <trkpt lat="41.8162400" lon="-8.8685300">
        <ele>6.6</ele>
        <time>2021-05-18T09:55:14Z</time>
      </trkpt>
      <trkpt lat="41.8162400" lon="-8.8685300">
        <ele>6.6</ele>
        <time>2021-05-18T09:55:15Z</time>
      </trkpt>
      <trkpt lat="41.8162400" lon="-8.8685300">
        <ele>6.6</ele>
        <time>2021-05-18T09:55:16Z</time>
      </trkpt>
      <trkpt lat="41.8162400" lon="-8.8685290">
        <ele>6.6</ele>
        <time>2021-05-18T09:55:17Z</time>
      </trkpt>
      <trkpt lat="41.8162390" lon="-8.8685290">
        <ele>6.6</ele>
        <time>2021-05-18T09:55:18Z</time>
      </trkpt>
      <trkpt lat="41.8162390" lon="-8.8685290">
        <ele>6.6</ele>
        <time>2021-05-18T09:55:19Z</time>
      </trkpt>
      <trkpt lat="41.8162390" lon="-8.8685290">
        <ele>6.6</ele>
        <time>2021-05-18T09:55:20Z</time>
      </trkpt>
      <trkpt lat="41.8162390" lon="-8.8685290">
        <ele>6.6</ele>
        <time>2021-05-18T09:55:21Z</time>
      </trkpt>
      <trkpt lat="41.8162390" lon="-8.8685290">
        <ele>6.6</ele>
        <time>2021-05-18T09:55:22Z</time>
      </trkpt>
      <trkpt lat="41.8162390" lon="-8.8685290">
        <ele>6.6</ele>
        <time>2021-05-18T09:55:23Z</time>
      </trkpt>
      <trkpt lat="41.8162390" lon="-8.8685290">
        <ele>6.6</ele>
        <time>2021-05-18T09:55:24Z</time>
      </trkpt>
      <trkpt lat="41.8162390" lon="-8.8685290">
        <ele>6.6</ele>
        <time>2021-05-18T09:55:25Z</time>
      </trkpt>
      <trkpt lat="41.8162390" lon="-8.8685290">
        <ele>6.6</ele>
        <time>2021-05-18T09:55:26Z</time>
      </trkpt>
      <trkpt lat="41.8162390" lon="-8.8685290">
        <ele>6.6</ele>
        <time>2021-05-18T09:55:27Z</time>
      </trkpt>
      <trkpt lat="41.8162390" lon="-8.8685290">
        <ele>6.6</ele>
        <time>2021-05-18T09:55:28Z</time>
      </trkpt>
      <trkpt lat="41.8162390" lon="-8.8685280">
        <ele>6.6</ele>
        <time>2021-05-18T09:55:29Z</time>
      </trkpt>
      <trkpt lat="41.8162390" lon="-8.8685280">
        <ele>6.6</ele>
        <time>2021-05-18T09:55:30Z</time>
      </trkpt>
      <trkpt lat="41.8162390" lon="-8.8685280">
        <ele>6.6</ele>
        <time>2021-05-18T09:55:31Z</time>
      </trkpt>
      <trkpt lat="41.8162390" lon="-8.8685280">
        <ele>6.6</ele>
        <time>2021-05-18T09:55:32Z</time>
      </trkpt>
      <trkpt lat="41.8162390" lon="-8.8685280">
        <ele>6.6</ele>
        <time>2021-05-18T09:55:33Z</time>
      </trkpt>
      <trkpt lat="41.8162380" lon="-8.8685280">
        <ele>6.6</ele>
        <time>2021-05-18T09:55:34Z</time>
      </trkpt>
      <trkpt lat="41.8162380" lon="-8.8685280">
        <ele>6.6</ele>
        <time>2021-05-18T09:55:35Z</time>
      </trkpt>
      <trkpt lat="41.8162380" lon="-8.8685280">
        <ele>6.6</ele>
        <time>2021-05-18T09:55:36Z</time>
      </trkpt>
      <trkpt lat="41.8162380" lon="-8.8685280">
        <ele>6.6</ele>
        <time>2021-05-18T09:55:37Z</time>
      </trkpt>
      <trkpt lat="41.8162380" lon="-8.8685280">
        <ele>6.6</ele>
        <time>2021-05-18T09:55:38Z</time>
      </trkpt>
      <trkpt lat="41.8162380" lon="-8.8685280">
        <ele>6.6</ele>
        <time>2021-05-18T09:55:39Z</time>
      </trkpt>
      <trkpt lat="41.8162380" lon="-8.8685280">
        <ele>6.6</ele>
        <time>2021-05-18T09:55:40Z</time>
      </trkpt>
      <trkpt lat="41.8162380" lon="-8.8685270">
        <ele>6.6</ele>
        <time>2021-05-18T09:55:41Z</time>
      </trkpt>
      <trkpt lat="41.8162380" lon="-8.8685270">
        <ele>6.6</ele>
        <time>2021-05-18T09:55:42Z</time>
      </trkpt>
      <trkpt lat="41.8162380" lon="-8.8685270">
        <ele>6.6</ele>
        <time>2021-05-18T09:55:43Z</time>
      </trkpt>
      <trkpt lat="41.8162380" lon="-8.8685270">
        <ele>6.6</ele>
        <time>2021-05-18T09:55:44Z</time>
      </trkpt>
      <trkpt lat="41.8162380" lon="-8.8685270">
        <ele>6.6</ele>
        <time>2021-05-18T09:55:45Z</time>
      </trkpt>
      <trkpt lat="41.8162380" lon="-8.8685270">
        <ele>6.6</ele>
        <time>2021-05-18T09:55:46Z</time>
      </trkpt>
      <trkpt lat="41.8162380" lon="-8.8685270">
        <ele>6.6</ele>
        <time>2021-05-18T09:55:47Z</time>
      </trkpt>
      <trkpt lat="41.8162380" lon="-8.8685270">
        <ele>6.6</ele>
        <time>2021-05-18T09:55:48Z</time>
      </trkpt>
      <trkpt lat="41.8162370" lon="-8.8685270">
        <ele>6.6</ele>
        <time>2021-05-18T09:55:49Z</time>
      </trkpt>
      <trkpt lat="41.8162370" lon="-8.8685270">
        <ele>6.6</ele>
        <time>2021-05-18T09:55:50Z</time>
      </trkpt>
      <trkpt lat="41.8162370" lon="-8.8685270">
        <ele>6.6</ele>
        <time>2021-05-18T09:55:51Z</time>
      </trkpt>
      <trkpt lat="41.8162370" lon="-8.8685270">
        <ele>6.6</ele>
        <time>2021-05-18T09:55:52Z</time>
      </trkpt>
      <trkpt lat="41.8162370" lon="-8.8685260">
        <ele>6.6</ele>
        <time>2021-05-18T09:55:53Z</time>
      </trkpt>
      <trkpt lat="41.8162370" lon="-8.8685260">
        <ele>6.6</ele>
        <time>2021-05-18T09:55:54Z</time>
      </trkpt>
      <trkpt lat="41.8162370" lon="-8.8685260">
        <ele>6.6</ele>
        <time>2021-05-18T09:55:55Z</time>
      </trkpt>
      <trkpt lat="41.8162370" lon="-8.8685260">
        <ele>6.6</ele>
        <time>2021-05-18T09:55:56Z</time>
      </trkpt>
      <trkpt lat="41.8162370" lon="-8.8685260">
        <ele>6.6</ele>
        <time>2021-05-18T09:55:57Z</time>
      </trkpt>
      <trkpt lat="41.8162370" lon="-8.8685260">
        <ele>6.6</ele>
        <time>2021-05-18T09:55:58Z</time>
      </trkpt>
      <trkpt lat="41.8162370" lon="-8.8685260">
        <ele>6.6</ele>
        <time>2021-05-18T09:55:59Z</time>
      </trkpt>
      <trkpt lat="41.8162370" lon="-8.8685260">
        <ele>6.6</ele>
        <time>2021-05-18T09:56:00Z</time>
      </trkpt>
      <trkpt lat="41.8162370" lon="-8.8685260">
        <ele>6.6</ele>
        <time>2021-05-18T09:56:01Z</time>
      </trkpt>
      <trkpt lat="41.8162370" lon="-8.8685260">
        <ele>6.6</ele>
        <time>2021-05-18T09:56:02Z</time>
      </trkpt>
      <trkpt lat="41.8162370" lon="-8.8685260">
        <ele>6.6</ele>
        <time>2021-05-18T09:56:03Z</time>
      </trkpt>
      <trkpt lat="41.8162360" lon="-8.8685260">
        <ele>6.6</ele>
        <time>2021-05-18T09:56:04Z</time>
      </trkpt>
      <trkpt lat="41.8162360" lon="-8.8685250">
        <ele>6.6</ele>
        <time>2021-05-18T09:56:05Z</time>
      </trkpt>
      <trkpt lat="41.8162360" lon="-8.8685250">
        <ele>6.6</ele>
        <time>2021-05-18T09:56:06Z</time>
      </trkpt>
      <trkpt lat="41.8162360" lon="-8.8685250">
        <ele>6.6</ele>
        <time>2021-05-18T09:56:07Z</time>
      </trkpt>
      <trkpt lat="41.8162360" lon="-8.8685250">
        <ele>6.6</ele>
        <time>2021-05-18T09:56:08Z</time>
      </trkpt>
      <trkpt lat="41.8162360" lon="-8.8685250">
        <ele>6.6</ele>
        <time>2021-05-18T09:56:09Z</time>
      </trkpt>
      <trkpt lat="41.8162360" lon="-8.8685250">
        <ele>6.6</ele>
        <time>2021-05-18T09:56:10Z</time>
      </trkpt>
      <trkpt lat="41.8162360" lon="-8.8685250">
        <ele>6.6</ele>
        <time>2021-05-18T09:56:11Z</time>
      </trkpt>
      <trkpt lat="41.8162420" lon="-8.8685200">
        <ele>6.6</ele>
        <time>2021-05-18T09:56:12Z</time>
      </trkpt>
      <trkpt lat="41.8162400" lon="-8.8685200">
        <ele>6.6</ele>
        <time>2021-05-18T09:56:13Z</time>
      </trkpt>
      <trkpt lat="41.8162420" lon="-8.8685250">
        <ele>6.6</ele>
        <time>2021-05-18T09:56:14Z</time>
      </trkpt>
      <trkpt lat="41.8162420" lon="-8.8685250">
        <ele>6.6</ele>
        <time>2021-05-18T09:56:15Z</time>
      </trkpt>
      <trkpt lat="41.8162450" lon="-8.8685190">
        <ele>6.6</ele>
        <time>2021-05-18T09:56:16Z</time>
      </trkpt>
      <trkpt lat="41.8162430" lon="-8.8685140">
        <ele>6.6</ele>
        <time>2021-05-18T09:56:17Z</time>
      </trkpt>
      <trkpt lat="41.8162430" lon="-8.8685160">
        <ele>6.6</ele>
        <time>2021-05-18T09:56:18Z</time>
      </trkpt>
      <trkpt lat="41.8162450" lon="-8.8685110">
        <ele>6.6</ele>
        <time>2021-05-18T09:56:19Z</time>
      </trkpt>
      <trkpt lat="41.8162500" lon="-8.8685110">
        <ele>6.6</ele>
        <time>2021-05-18T09:56:20Z</time>
      </trkpt>
      <trkpt lat="41.8162520" lon="-8.8685070">
        <ele>6.6</ele>
        <time>2021-05-18T09:56:21Z</time>
      </trkpt>
      <trkpt lat="41.8162590" lon="-8.8684990">
        <ele>6.6</ele>
        <time>2021-05-18T09:56:22Z</time>
      </trkpt>
      <trkpt lat="41.8162650" lon="-8.8684780">
        <ele>6.6</ele>
        <time>2021-05-18T09:56:23Z</time>
      </trkpt>
      <trkpt lat="41.8162660" lon="-8.8684670">
        <ele>6.6</ele>
        <time>2021-05-18T09:56:24Z</time>
      </trkpt>
      <trkpt lat="41.8162660" lon="-8.8684570">
        <ele>6.6</ele>
        <time>2021-05-18T09:56:25Z</time>
      </trkpt>
      <trkpt lat="41.8162660" lon="-8.8684460">
        <ele>6.6</ele>
        <time>2021-05-18T09:56:26Z</time>
      </trkpt>
      <trkpt lat="41.8162700" lon="-8.8684410">
        <ele>6.6</ele>
        <time>2021-05-18T09:56:27Z</time>
      </trkpt>
      <trkpt lat="41.8162710" lon="-8.8684430">
        <ele>6.6</ele>
        <time>2021-05-18T09:56:28Z</time>
      </trkpt>
      <trkpt lat="41.8162710" lon="-8.8684440">
        <ele>6.6</ele>
        <time>2021-05-18T09:56:29Z</time>
      </trkpt>
      <trkpt lat="41.8162710" lon="-8.8684460">
        <ele>6.6</ele>
        <time>2021-05-18T09:56:30Z</time>
      </trkpt>
      <trkpt lat="41.8162720" lon="-8.8684480">
        <ele>6.6</ele>
        <time>2021-05-18T09:56:31Z</time>
      </trkpt>
      <trkpt lat="41.8162720" lon="-8.8684500">
        <ele>6.6</ele>
        <time>2021-05-18T09:56:32Z</time>
      </trkpt>
      <trkpt lat="41.8162730" lon="-8.8684520">
        <ele>6.6</ele>
        <time>2021-05-18T09:56:33Z</time>
      </trkpt>
      <trkpt lat="41.8162730" lon="-8.8684540">
        <ele>6.6</ele>
        <time>2021-05-18T09:56:34Z</time>
      </trkpt>
      <trkpt lat="41.8162730" lon="-8.8684550">
        <ele>6.6</ele>
        <time>2021-05-18T09:56:35Z</time>
      </trkpt>
      <trkpt lat="41.8162740" lon="-8.8684570">
        <ele>6.6</ele>
        <time>2021-05-18T09:56:36Z</time>
      </trkpt>
      <trkpt lat="41.8162740" lon="-8.8684590">
        <ele>6.6</ele>
        <time>2021-05-18T09:56:37Z</time>
      </trkpt>
      <trkpt lat="41.8162740" lon="-8.8684610">
        <ele>6.6</ele>
        <time>2021-05-18T09:56:38Z</time>
      </trkpt>
      <trkpt lat="41.8162750" lon="-8.8684630">
        <ele>6.6</ele>
        <time>2021-05-18T09:56:39Z</time>
      </trkpt>
      <trkpt lat="41.8162750" lon="-8.8684640">
        <ele>6.6</ele>
        <time>2021-05-18T09:56:40Z</time>
      </trkpt>
      <trkpt lat="41.8162760" lon="-8.8684660">
        <ele>6.6</ele>
        <time>2021-05-18T09:57:27Z</time>
      </trkpt>
      <trkpt lat="41.8162760" lon="-8.8684680">
        <ele>6.6</ele>
        <time>2021-05-18T09:57:33Z</time>
      </trkpt>
      <trkpt lat="41.8162760" lon="-8.8684700">
        <ele>6.6</ele>
        <time>2021-05-18T09:57:34Z</time>
      </trkpt>
      <trkpt lat="41.8162770" lon="-8.8684720">
        <ele>6.6</ele>
        <time>2021-05-18T09:57:41Z</time>
      </trkpt>
      <trkpt lat="41.8162770" lon="-8.8684730">
        <ele>6.6</ele>
        <time>2021-05-18T09:57:42Z</time>
      </trkpt>
      <trkpt lat="41.8162770" lon="-8.8684750">
        <ele>6.6</ele>
        <time>2021-05-18T09:57:49Z</time>
      </trkpt>
      <trkpt lat="41.8162780" lon="-8.8684770">
        <ele>6.6</ele>
        <time>2021-05-18T09:57:50Z</time>
      </trkpt>
      <trkpt lat="41.8162780" lon="-8.8684790">
        <ele>6.6</ele>
        <time>2021-05-18T09:57:58Z</time>
      </trkpt>
      <trkpt lat="41.8162790" lon="-8.8684810">
        <ele>6.6</ele>
        <time>2021-05-18T09:57:59Z</time>
      </trkpt>
      <trkpt lat="41.8162790" lon="-8.8684830">
        <ele>6.6</ele>
        <time>2021-05-18T09:58:00Z</time>
      </trkpt>
      <trkpt lat="41.8162790" lon="-8.8684840">
        <ele>6.6</ele>
        <time>2021-05-18T09:58:01Z</time>
      </trkpt>
      <trkpt lat="41.8162800" lon="-8.8684860">
        <ele>6.6</ele>
        <time>2021-05-18T09:58:02Z</time>
      </trkpt>
      <trkpt lat="41.8162800" lon="-8.8684880">
        <ele>6.6</ele>
        <time>2021-05-18T09:58:03Z</time>
      </trkpt>
      <trkpt lat="41.8162800" lon="-8.8684900">
        <ele>6.6</ele>
        <time>2021-05-18T09:58:04Z</time>
      </trkpt>
      <trkpt lat="41.8162810" lon="-8.8684920">
        <ele>6.6</ele>
        <time>2021-05-18T09:58:05Z</time>
      </trkpt>
      <trkpt lat="41.8162810" lon="-8.8684930">
        <ele>6.6</ele>
        <time>2021-05-18T09:58:06Z</time>
      </trkpt>
      <trkpt lat="41.8162810" lon="-8.8684950">
        <ele>6.6</ele>
        <time>2021-05-18T09:58:07Z</time>
      </trkpt>
      <trkpt lat="41.8162820" lon="-8.8684970">
        <ele>6.6</ele>
        <time>2021-05-18T09:58:08Z</time>
      </trkpt>
      <trkpt lat="41.8162820" lon="-8.8684990">
        <ele>6.6</ele>
        <time>2021-05-18T09:58:09Z</time>
      </trkpt>
      <trkpt lat="41.8162830" lon="-8.8685010">
        <ele>6.6</ele>
        <time>2021-05-18T09:58:10Z</time>
      </trkpt>
      <trkpt lat="41.8162830" lon="-8.8685030">
        <ele>6.6</ele>
        <time>2021-05-18T09:58:11Z</time>
      </trkpt>
      <trkpt lat="41.8162830" lon="-8.8685040">
        <ele>6.6</ele>
        <time>2021-05-18T09:58:13Z</time>
      </trkpt>
      <trkpt lat="41.8162840" lon="-8.8685060">
        <ele>6.6</ele>
        <time>2021-05-18T09:58:14Z</time>
      </trkpt>
      <trkpt lat="41.8162840" lon="-8.8685080">
        <ele>6.6</ele>
        <time>2021-05-18T09:58:15Z</time>
      </trkpt>
      <trkpt lat="41.8162840" lon="-8.8685100">
        <ele>6.6</ele>
        <time>2021-05-18T09:58:16Z</time>
      </trkpt>
      <trkpt lat="41.8162850" lon="-8.8685120">
        <ele>6.6</ele>
        <time>2021-05-18T09:58:17Z</time>
      </trkpt>
      <trkpt lat="41.8162850" lon="-8.8685130">
        <ele>6.6</ele>
        <time>2021-05-18T09:58:18Z</time>
      </trkpt>
      <trkpt lat="41.8162860" lon="-8.8685150">
        <ele>6.6</ele>
        <time>2021-05-18T09:58:19Z</time>
      </trkpt>
      <trkpt lat="41.8162860" lon="-8.8685170">
        <ele>6.6</ele>
        <time>2021-05-18T09:58:20Z</time>
      </trkpt>
      <trkpt lat="41.8162860" lon="-8.8685190">
        <ele>6.6</ele>
        <time>2021-05-18T09:58:21Z</time>
      </trkpt>
      <trkpt lat="41.8162870" lon="-8.8685210">
        <ele>6.6</ele>
        <time>2021-05-18T09:58:22Z</time>
      </trkpt>
      <trkpt lat="41.8162870" lon="-8.8685220">
        <ele>6.6</ele>
        <time>2021-05-18T09:58:23Z</time>
      </trkpt>
      <trkpt lat="41.8162870" lon="-8.8685240">
        <ele>6.6</ele>
        <time>2021-05-18T09:58:39Z</time>
      </trkpt>
      <trkpt lat="41.8162880" lon="-8.8685260">
        <ele>6.6</ele>
        <time>2021-05-18T09:58:40Z</time>
      </trkpt>
      <trkpt lat="41.8162880" lon="-8.8685280">
        <ele>6.6</ele>
        <time>2021-05-18T09:58:41Z</time>
      </trkpt>
      <trkpt lat="41.8162890" lon="-8.8685300">
        <ele>6.6</ele>
        <time>2021-05-18T09:58:42Z</time>
      </trkpt>
      <trkpt lat="41.8162890" lon="-8.8685320">
        <ele>6.6</ele>
        <time>2021-05-18T09:58:43Z</time>
      </trkpt>
      <trkpt lat="41.8162890" lon="-8.8685330">
        <ele>6.6</ele>
        <time>2021-05-18T09:58:44Z</time>
      </trkpt>
      <trkpt lat="41.8162900" lon="-8.8685350">
        <ele>6.6</ele>
        <time>2021-05-18T09:58:45Z</time>
      </trkpt>
      <trkpt lat="41.8162900" lon="-8.8685370">
        <ele>6.6</ele>
        <time>2021-05-18T09:58:46Z</time>
      </trkpt>
      <trkpt lat="41.8162820" lon="-8.8685580">
        <ele>6.6</ele>
        <time>2021-05-18T09:58:47Z</time>
      </trkpt>
      <trkpt lat="41.8162670" lon="-8.8685450">
        <ele>6.6</ele>
        <time>2021-05-18T09:58:48Z</time>
      </trkpt>
      <trkpt lat="41.8162530" lon="-8.8685310">
        <ele>6.5</ele>
        <time>2021-05-18T09:58:49Z</time>
      </trkpt>
      <trkpt lat="41.8162520" lon="-8.8685440">
        <ele>6.5</ele>
        <time>2021-05-18T09:58:50Z</time>
      </trkpt>
      <trkpt lat="41.8162550" lon="-8.8685530">
        <ele>6.5</ele>
        <time>2021-05-18T09:58:51Z</time>
      </trkpt>
      <trkpt lat="41.8162590" lon="-8.8685610">
        <ele>6.5</ele>
        <time>2021-05-18T09:58:52Z</time>
      </trkpt>
      <trkpt lat="41.8162620" lon="-8.8685700">
        <ele>6.5</ele>
        <time>2021-05-18T09:58:53Z</time>
      </trkpt>
      <trkpt lat="41.8162650" lon="-8.8685790">
        <ele>6.5</ele>
        <time>2021-05-18T09:58:54Z</time>
      </trkpt>
      <trkpt lat="41.8162710" lon="-8.8685890">
        <ele>6.5</ele>
        <time>2021-05-18T09:58:55Z</time>
      </trkpt>
      <trkpt lat="41.8162740" lon="-8.8685930">
        <ele>6.5</ele>
        <time>2021-05-18T09:58:56Z</time>
      </trkpt>
      <trkpt lat="41.8162730" lon="-8.8685960">
        <ele>6.5</ele>
        <time>2021-05-18T09:58:57Z</time>
      </trkpt>
      <trkpt lat="41.8162660" lon="-8.8685860">
        <ele>6.4</ele>
        <time>2021-05-18T09:58:58Z</time>
      </trkpt>
      <trkpt lat="41.8162620" lon="-8.8685860">
        <ele>6.4</ele>
        <time>2021-05-18T09:58:59Z</time>
      </trkpt>
      <trkpt lat="41.8162630" lon="-8.8685800">
        <ele>6.4</ele>
        <time>2021-05-18T09:59:00Z</time>
      </trkpt>
      <trkpt lat="41.8162620" lon="-8.8685810">
        <ele>6.4</ele>
        <time>2021-05-18T09:59:01Z</time>
      </trkpt>
      <trkpt lat="41.8162610" lon="-8.8685830">
        <ele>6.4</ele>
        <time>2021-05-18T09:59:02Z</time>
      </trkpt>
      <trkpt lat="41.8162520" lon="-8.8685710">
        <ele>6.4</ele>
        <time>2021-05-18T09:59:03Z</time>
      </trkpt>
      <trkpt lat="41.8162530" lon="-8.8685740">
        <ele>6.4</ele>
        <time>2021-05-18T09:59:04Z</time>
      </trkpt>
      <trkpt lat="41.8162550" lon="-8.8685780">
        <ele>6.4</ele>
        <time>2021-05-18T09:59:05Z</time>
      </trkpt>
      <trkpt lat="41.8162530" lon="-8.8685800">
        <ele>6.4</ele>
        <time>2021-05-18T09:59:06Z</time>
      </trkpt>
      <trkpt lat="41.8162520" lon="-8.8685820">
        <ele>6.4</ele>
        <time>2021-05-18T09:59:07Z</time>
      </trkpt>
      <trkpt lat="41.8162500" lon="-8.8685850">
        <ele>6.4</ele>
        <time>2021-05-18T09:59:08Z</time>
      </trkpt>
      <trkpt lat="41.8162480" lon="-8.8685900">
        <ele>6.4</ele>
        <time>2021-05-18T09:59:09Z</time>
      </trkpt>
      <trkpt lat="41.8162620" lon="-8.8686060">
        <ele>6.3</ele>
        <time>2021-05-18T09:59:10Z</time>
      </trkpt>
      <trkpt lat="41.8162840" lon="-8.8686140">
        <ele>6.3</ele>
        <time>2021-05-18T09:59:11Z</time>
      </trkpt>
      <trkpt lat="41.8162820" lon="-8.8686000">
        <ele>6.3</ele>
        <time>2021-05-18T09:59:12Z</time>
      </trkpt>
      <trkpt lat="41.8162810" lon="-8.8685970">
        <ele>6.3</ele>
        <time>2021-05-18T09:59:13Z</time>
      </trkpt>
      <trkpt lat="41.8162800" lon="-8.8685930">
        <ele>6.3</ele>
        <time>2021-05-18T09:59:14Z</time>
      </trkpt>
      <trkpt lat="41.8162790" lon="-8.8685900">
        <ele>6.3</ele>
        <time>2021-05-18T09:59:15Z</time>
      </trkpt>
      <trkpt lat="41.8162780" lon="-8.8685870">
        <ele>6.3</ele>
        <time>2021-05-18T09:59:16Z</time>
      </trkpt>
      <trkpt lat="41.8162770" lon="-8.8685840">
        <ele>6.3</ele>
        <time>2021-05-18T09:59:17Z</time>
      </trkpt>
      <trkpt lat="41.8162760" lon="-8.8685810">
        <ele>6.3</ele>
        <time>2021-05-18T09:59:18Z</time>
      </trkpt>
      <trkpt lat="41.8162750" lon="-8.8685770">
        <ele>6.3</ele>
        <time>2021-05-18T09:59:19Z</time>
      </trkpt>
      <trkpt lat="41.8162740" lon="-8.8685740">
        <ele>6.3</ele>
        <time>2021-05-18T09:59:20Z</time>
      </trkpt>
      <trkpt lat="41.8162730" lon="-8.8685710">
        <ele>6.3</ele>
        <time>2021-05-18T09:59:21Z</time>
      </trkpt>
      <trkpt lat="41.8162720" lon="-8.8685680">
        <ele>6.3</ele>
        <time>2021-05-18T09:59:22Z</time>
      </trkpt>
      <trkpt lat="41.8162710" lon="-8.8685650">
        <ele>6.2</ele>
        <time>2021-05-18T09:59:23Z</time>
      </trkpt>
      <trkpt lat="41.8162700" lon="-8.8685620">
        <ele>6.2</ele>
        <time>2021-05-18T09:59:24Z</time>
      </trkpt>
      <trkpt lat="41.8162690" lon="-8.8685580">
        <ele>6.2</ele>
        <time>2021-05-18T09:59:25Z</time>
      </trkpt>
      <trkpt lat="41.8162680" lon="-8.8685550">
        <ele>6.2</ele>
        <time>2021-05-18T09:59:26Z</time>
      </trkpt>
      <trkpt lat="41.8162670" lon="-8.8685520">
        <ele>6.2</ele>
        <time>2021-05-18T09:59:27Z</time>
      </trkpt>
      <trkpt lat="41.8162660" lon="-8.8685490">
        <ele>6.2</ele>
        <time>2021-05-18T09:59:28Z</time>
      </trkpt>
      <trkpt lat="41.8162650" lon="-8.8685460">
        <ele>6.2</ele>
        <time>2021-05-18T09:59:29Z</time>
      </trkpt>
      <trkpt lat="41.8162640" lon="-8.8685420">
        <ele>6.2</ele>
        <time>2021-05-18T09:59:30Z</time>
      </trkpt>
      <trkpt lat="41.8162630" lon="-8.8685390">
        <ele>6.2</ele>
        <time>2021-05-18T09:59:31Z</time>
      </trkpt>
      <trkpt lat="41.8162620" lon="-8.8685360">
        <ele>6.2</ele>
        <time>2021-05-18T09:59:32Z</time>
      </trkpt>
      <trkpt lat="41.8162610" lon="-8.8685330">
        <ele>6.2</ele>
        <time>2021-05-18T09:59:33Z</time>
      </trkpt>
      <trkpt lat="41.8162600" lon="-8.8685300">
        <ele>6.2</ele>
        <time>2021-05-18T09:59:34Z</time>
      </trkpt>
      <trkpt lat="41.8162590" lon="-8.8685260">
        <ele>6.1</ele>
        <time>2021-05-18T09:59:35Z</time>
      </trkpt>
      <trkpt lat="41.8162580" lon="-8.8685230">
        <ele>6.1</ele>
        <time>2021-05-18T09:59:36Z</time>
      </trkpt>
      <trkpt lat="41.8162570" lon="-8.8685200">
        <ele>6.1</ele>
        <time>2021-05-18T09:59:37Z</time>
      </trkpt>
      <trkpt lat="41.8162570" lon="-8.8685170">
        <ele>6.1</ele>
        <time>2021-05-18T09:59:38Z</time>
      </trkpt>
      <trkpt lat="41.8162560" lon="-8.8685140">
        <ele>6.1</ele>
        <time>2021-05-18T09:59:39Z</time>
      </trkpt>
      <trkpt lat="41.8162550" lon="-8.8685110">
        <ele>6.1</ele>
        <time>2021-05-18T09:59:40Z</time>
      </trkpt>
      <trkpt lat="41.8162540" lon="-8.8685070">
        <ele>6.1</ele>
        <time>2021-05-18T09:59:41Z</time>
      </trkpt>
      <trkpt lat="41.8162530" lon="-8.8685040">
        <ele>6.1</ele>
        <time>2021-05-18T09:59:42Z</time>
      </trkpt>
      <trkpt lat="41.8162520" lon="-8.8685010">
        <ele>6.1</ele>
        <time>2021-05-18T09:59:43Z</time>
      </trkpt>
      <trkpt lat="41.8162510" lon="-8.8684980">
        <ele>6.1</ele>
        <time>2021-05-18T09:59:44Z</time>
      </trkpt>
      <trkpt lat="41.8162500" lon="-8.8684950">
        <ele>6.1</ele>
        <time>2021-05-18T09:59:45Z</time>
      </trkpt>
      <trkpt lat="41.8162490" lon="-8.8684910">
        <ele>6.0</ele>
        <time>2021-05-18T09:59:46Z</time>
      </trkpt>
      <trkpt lat="41.8162480" lon="-8.8684880">
        <ele>6.1</ele>
        <time>2021-05-18T09:59:47Z</time>
      </trkpt>
      <trkpt lat="41.8162470" lon="-8.8684850">
        <ele>6.1</ele>
        <time>2021-05-18T09:59:48Z</time>
      </trkpt>
      <trkpt lat="41.8162460" lon="-8.8684820">
        <ele>6.1</ele>
        <time>2021-05-18T09:59:49Z</time>
      </trkpt>
      <trkpt lat="41.8162450" lon="-8.8684790">
        <ele>6.1</ele>
        <time>2021-05-18T09:59:50Z</time>
      </trkpt>
      <trkpt lat="41.8162440" lon="-8.8684750">
        <ele>6.1</ele>
        <time>2021-05-18T09:59:51Z</time>
      </trkpt>
      <trkpt lat="41.8162430" lon="-8.8684720">
        <ele>6.1</ele>
        <time>2021-05-18T09:59:52Z</time>
      </trkpt>
      <trkpt lat="41.8162420" lon="-8.8684690">
        <ele>6.0</ele>
        <time>2021-05-18T09:59:53Z</time>
      </trkpt>
      <trkpt lat="41.8162410" lon="-8.8684660">
        <ele>6.0</ele>
        <time>2021-05-18T09:59:54Z</time>
      </trkpt>
      <trkpt lat="41.8162400" lon="-8.8684630">
        <ele>6.0</ele>
        <time>2021-05-18T09:59:55Z</time>
      </trkpt>
      <trkpt lat="41.8162390" lon="-8.8684600">
        <ele>6.0</ele>
        <time>2021-05-18T09:59:56Z</time>
      </trkpt>
      <trkpt lat="41.8162380" lon="-8.8684560">
        <ele>6.0</ele>
        <time>2021-05-18T09:59:57Z</time>
      </trkpt>
      <trkpt lat="41.8162370" lon="-8.8684530">
        <ele>6.0</ele>
        <time>2021-05-18T09:59:58Z</time>
      </trkpt>
      <trkpt lat="41.8162360" lon="-8.8684500">
        <ele>6.0</ele>
        <time>2021-05-18T09:59:59Z</time>
      </trkpt>
      <trkpt lat="41.8162350" lon="-8.8684470">
        <ele>6.0</ele>
        <time>2021-05-18T10:00:00Z</time>
      </trkpt>
      <trkpt lat="41.8162340" lon="-8.8684440">
        <ele>6.0</ele>
        <time>2021-05-18T10:00:01Z</time>
      </trkpt>
      <trkpt lat="41.8162330" lon="-8.8684400">
        <ele>6.0</ele>
        <time>2021-05-18T10:00:02Z</time>
      </trkpt>
      <trkpt lat="41.8162320" lon="-8.8684370">
        <ele>6.0</ele>
        <time>2021-05-18T10:00:03Z</time>
      </trkpt>
      <trkpt lat="41.8162310" lon="-8.8684340">
        <ele>6.0</ele>
        <time>2021-05-18T10:00:04Z</time>
      </trkpt>
      <trkpt lat="41.8162340" lon="-8.8684590">
        <ele>6.0</ele>
        <time>2021-05-18T10:00:05Z</time>
      </trkpt>
      <trkpt lat="41.8162350" lon="-8.8684750">
        <ele>5.9</ele>
        <time>2021-05-18T10:00:06Z</time>
      </trkpt>
      <trkpt lat="41.8162370" lon="-8.8684900">
        <ele>5.9</ele>
        <time>2021-05-18T10:00:07Z</time>
      </trkpt>
      <trkpt lat="41.8162320" lon="-8.8684850">
        <ele>6.0</ele>
        <time>2021-05-18T10:00:08Z</time>
      </trkpt>
      <trkpt lat="41.8162390" lon="-8.8684880">
        <ele>6.0</ele>
        <time>2021-05-18T10:00:09Z</time>
      </trkpt>
      <trkpt lat="41.8162420" lon="-8.8684920">
        <ele>6.0</ele>
        <time>2021-05-18T10:00:10Z</time>
      </trkpt>
      <trkpt lat="41.8162490" lon="-8.8684980">
        <ele>6.0</ele>
        <time>2021-05-18T10:00:11Z</time>
      </trkpt>
      <trkpt lat="41.8162490" lon="-8.8684980">
        <ele>6.0</ele>
        <time>2021-05-18T10:00:12Z</time>
      </trkpt>
      <trkpt lat="41.8162490" lon="-8.8684980">
        <ele>6.0</ele>
        <time>2021-05-18T10:00:13Z</time>
      </trkpt>
      <trkpt lat="41.8162480" lon="-8.8684970">
        <ele>6.0</ele>
        <time>2021-05-18T10:00:14Z</time>
      </trkpt>
      <trkpt lat="41.8162480" lon="-8.8684970">
        <ele>6.0</ele>
        <time>2021-05-18T10:00:15Z</time>
      </trkpt>
      <trkpt lat="41.8162420" lon="-8.8684910">
        <ele>6.0</ele>
        <time>2021-05-18T10:00:16Z</time>
      </trkpt>
      <trkpt lat="41.8162380" lon="-8.8684850">
        <ele>5.9</ele>
        <time>2021-05-18T10:00:17Z</time>
      </trkpt>
      <trkpt lat="41.8162330" lon="-8.8684770">
        <ele>5.9</ele>
        <time>2021-05-18T10:00:18Z</time>
      </trkpt>
      <trkpt lat="41.8162330" lon="-8.8684770">
        <ele>5.9</ele>
        <time>2021-05-18T10:00:19Z</time>
      </trkpt>
      <trkpt lat="41.8162330" lon="-8.8684830">
        <ele>5.9</ele>
        <time>2021-05-18T10:00:20Z</time>
      </trkpt>
      <trkpt lat="41.8162310" lon="-8.8684880">
        <ele>5.9</ele>
        <time>2021-05-18T10:00:21Z</time>
      </trkpt>
      <trkpt lat="41.8162310" lon="-8.8684910">
        <ele>5.9</ele>
        <time>2021-05-18T10:00:22Z</time>
      </trkpt>
      <trkpt lat="41.8162220" lon="-8.8684830">
        <ele>5.9</ele>
        <time>2021-05-18T10:00:23Z</time>
      </trkpt>
      <trkpt lat="41.8162210" lon="-8.8684840">
        <ele>5.9</ele>
        <time>2021-05-18T10:00:24Z</time>
      </trkpt>
      <trkpt lat="41.8162290" lon="-8.8685010">
        <ele>5.9</ele>
        <time>2021-05-18T10:00:25Z</time>
      </trkpt>
      <trkpt lat="41.8162310" lon="-8.8685130">
        <ele>6.0</ele>
        <time>2021-05-18T10:00:26Z</time>
      </trkpt>
      <trkpt lat="41.8162350" lon="-8.8685280">
        <ele>6.0</ele>
        <time>2021-05-18T10:00:27Z</time>
      </trkpt>
      <trkpt lat="41.8162370" lon="-8.8685270">
        <ele>6.0</ele>
        <time>2021-05-18T10:00:28Z</time>
      </trkpt>
      <trkpt lat="41.8162370" lon="-8.8685270">
        <ele>6.0</ele>
        <time>2021-05-18T10:00:29Z</time>
      </trkpt>
      <trkpt lat="41.8162370" lon="-8.8685270">
        <ele>6.0</ele>
        <time>2021-05-18T10:00:30Z</time>
      </trkpt>
      <trkpt lat="41.8162370" lon="-8.8685270">
        <ele>6.0</ele>
        <time>2021-05-18T10:00:31Z</time>
      </trkpt>
      <trkpt lat="41.8162370" lon="-8.8685270">
        <ele>6.0</ele>
        <time>2021-05-18T10:00:32Z</time>
      </trkpt>
      <trkpt lat="41.8162370" lon="-8.8685270">
        <ele>6.0</ele>
        <time>2021-05-18T10:00:33Z</time>
      </trkpt>
      <trkpt lat="41.8162370" lon="-8.8685270">
        <ele>6.0</ele>
        <time>2021-05-18T10:00:34Z</time>
      </trkpt>
      <trkpt lat="41.8162370" lon="-8.8685270">
        <ele>6.0</ele>
        <time>2021-05-18T10:00:35Z</time>
      </trkpt>
      <trkpt lat="41.8162370" lon="-8.8685270">
        <ele>6.0</ele>
        <time>2021-05-18T10:00:36Z</time>
      </trkpt>
      <trkpt lat="41.8162450" lon="-8.8685060">
        <ele>6.0</ele>
        <time>2021-05-18T10:00:37Z</time>
      </trkpt>
      <trkpt lat="41.8162430" lon="-8.8685080">
        <ele>6.0</ele>
        <time>2021-05-18T10:00:38Z</time>
      </trkpt>
      <trkpt lat="41.8162430" lon="-8.8685080">
        <ele>6.0</ele>
        <time>2021-05-18T10:00:39Z</time>
      </trkpt>
      <trkpt lat="41.8162460" lon="-8.8685220">
        <ele>6.0</ele>
        <time>2021-05-18T10:00:40Z</time>
      </trkpt>
      <trkpt lat="41.8162480" lon="-8.8685260">
        <ele>6.0</ele>
        <time>2021-05-18T10:00:41Z</time>
      </trkpt>
      <trkpt lat="41.8162480" lon="-8.8685250">
        <ele>6.0</ele>
        <time>2021-05-18T10:00:42Z</time>
      </trkpt>
      <trkpt lat="41.8162560" lon="-8.8685250">
        <ele>6.0</ele>
        <time>2021-05-18T10:00:43Z</time>
      </trkpt>
      <trkpt lat="41.8162580" lon="-8.8685300">
        <ele>6.0</ele>
        <time>2021-05-18T10:00:44Z</time>
      </trkpt>
      <trkpt lat="41.8162630" lon="-8.8685380">
        <ele>6.0</ele>
        <time>2021-05-18T10:00:45Z</time>
      </trkpt>
      <trkpt lat="41.8162580" lon="-8.8685330">
        <ele>6.0</ele>
        <time>2021-05-18T10:00:46Z</time>
      </trkpt>
      <trkpt lat="41.8162570" lon="-8.8685380">
        <ele>6.0</ele>
        <time>2021-05-18T10:00:47Z</time>
      </trkpt>
      <trkpt lat="41.8162540" lon="-8.8685330">
        <ele>6.0</ele>
        <time>2021-05-18T10:00:48Z</time>
      </trkpt>
      <trkpt lat="41.8162410" lon="-8.8685220">
        <ele>6.1</ele>
        <time>2021-05-18T10:00:49Z</time>
      </trkpt>
      <trkpt lat="41.8162360" lon="-8.8685190">
        <ele>6.1</ele>
        <time>2021-05-18T10:00:50Z</time>
      </trkpt>
      <trkpt lat="41.8162440" lon="-8.8685390">
        <ele>6.1</ele>
        <time>2021-05-18T10:00:51Z</time>
      </trkpt>
      <trkpt lat="41.8162490" lon="-8.8685460">
        <ele>6.1</ele>
        <time>2021-05-18T10:00:52Z</time>
      </trkpt>
      <trkpt lat="41.8162450" lon="-8.8685410">
        <ele>6.1</ele>
        <time>2021-05-18T10:00:53Z</time>
      </trkpt>
      <trkpt lat="41.8162420" lon="-8.8685390">
        <ele>6.1</ele>
        <time>2021-05-18T10:00:54Z</time>
      </trkpt>
      <trkpt lat="41.8162440" lon="-8.8685380">
        <ele>6.1</ele>
        <time>2021-05-18T10:00:55Z</time>
      </trkpt>
      <trkpt lat="41.8162480" lon="-8.8685460">
        <ele>6.1</ele>
        <time>2021-05-18T10:00:56Z</time>
      </trkpt>
      <trkpt lat="41.8162480" lon="-8.8685460">
        <ele>6.1</ele>
        <time>2021-05-18T10:00:57Z</time>
      </trkpt>
      <trkpt lat="41.8162480" lon="-8.8685460">
        <ele>6.1</ele>
        <time>2021-05-18T10:00:58Z</time>
      </trkpt>
      <trkpt lat="41.8162350" lon="-8.8685250">
        <ele>6.1</ele>
        <time>2021-05-18T10:00:59Z</time>
      </trkpt>
      <trkpt lat="41.8162350" lon="-8.8685250">
        <ele>6.1</ele>
        <time>2021-05-18T10:01:00Z</time>
      </trkpt>
      <trkpt lat="41.8162350" lon="-8.8685250">
        <ele>6.1</ele>
        <time>2021-05-18T10:01:01Z</time>
      </trkpt>
      <trkpt lat="41.8162350" lon="-8.8685250">
        <ele>6.1</ele>
        <time>2021-05-18T10:01:02Z</time>
      </trkpt>
      <trkpt lat="41.8162350" lon="-8.8685250">
        <ele>6.1</ele>
        <time>2021-05-18T10:01:03Z</time>
      </trkpt>
      <trkpt lat="41.8162350" lon="-8.8685250">
        <ele>6.1</ele>
        <time>2021-05-18T10:01:04Z</time>
      </trkpt>
      <trkpt lat="41.8162350" lon="-8.8685250">
        <ele>6.1</ele>
        <time>2021-05-18T10:01:05Z</time>
      </trkpt>
      <trkpt lat="41.8162350" lon="-8.8685250">
        <ele>6.1</ele>
        <time>2021-05-18T10:01:06Z</time>
      </trkpt>
      <trkpt lat="41.8162350" lon="-8.8685250">
        <ele>6.1</ele>
        <time>2021-05-18T10:01:07Z</time>
      </trkpt>
      <trkpt lat="41.8162350" lon="-8.8685250">
        <ele>6.1</ele>
        <time>2021-05-18T10:01:08Z</time>
      </trkpt>
      <trkpt lat="41.8162350" lon="-8.8685250">
        <ele>6.1</ele>
        <time>2021-05-18T10:01:09Z</time>
      </trkpt>
      <trkpt lat="41.8162350" lon="-8.8685250">
        <ele>6.1</ele>
        <time>2021-05-18T10:01:10Z</time>
      </trkpt>
      <trkpt lat="41.8162350" lon="-8.8685250">
        <ele>6.1</ele>
        <time>2021-05-18T10:01:11Z</time>
      </trkpt>
      <trkpt lat="41.8162350" lon="-8.8685250">
        <ele>6.1</ele>
        <time>2021-05-18T10:01:12Z</time>
      </trkpt>
      <trkpt lat="41.8162350" lon="-8.8685250">
        <ele>6.1</ele>
        <time>2021-05-18T10:01:13Z</time>
      </trkpt>
      <trkpt lat="41.8162350" lon="-8.8685250">
        <ele>6.1</ele>
        <time>2021-05-18T10:01:14Z</time>
      </trkpt>
      <trkpt lat="41.8162350" lon="-8.8685250">
        <ele>6.1</ele>
        <time>2021-05-18T10:01:15Z</time>
      </trkpt>
      <trkpt lat="41.8162430" lon="-8.8685610">
        <ele>6.2</ele>
        <time>2021-05-18T10:01:16Z</time>
      </trkpt>
      <trkpt lat="41.8162430" lon="-8.8685610">
        <ele>6.2</ele>
        <time>2021-05-18T10:01:17Z</time>
      </trkpt>
      <trkpt lat="41.8162440" lon="-8.8685620">
        <ele>6.2</ele>
        <time>2021-05-18T10:01:18Z</time>
      </trkpt>
      <trkpt lat="41.8162440" lon="-8.8685620">
        <ele>6.2</ele>
        <time>2021-05-18T10:01:19Z</time>
      </trkpt>
      <trkpt lat="41.8162440" lon="-8.8685630">
        <ele>6.2</ele>
        <time>2021-05-18T10:01:20Z</time>
      </trkpt>
      <trkpt lat="41.8162450" lon="-8.8685630">
        <ele>6.2</ele>
        <time>2021-05-18T10:01:21Z</time>
      </trkpt>
      <trkpt lat="41.8162450" lon="-8.8685630">
        <ele>6.2</ele>
        <time>2021-05-18T10:01:22Z</time>
      </trkpt>
      <trkpt lat="41.8162450" lon="-8.8685640">
        <ele>6.2</ele>
        <time>2021-05-18T10:01:23Z</time>
      </trkpt>
      <trkpt lat="41.8162450" lon="-8.8685640">
        <ele>6.2</ele>
        <time>2021-05-18T10:01:24Z</time>
      </trkpt>
      <trkpt lat="41.8162460" lon="-8.8685650">
        <ele>6.2</ele>
        <time>2021-05-18T10:01:25Z</time>
      </trkpt>
      <trkpt lat="41.8162460" lon="-8.8685650">
        <ele>6.2</ele>
        <time>2021-05-18T10:01:26Z</time>
      </trkpt>
      <trkpt lat="41.8162460" lon="-8.8685650">
        <ele>6.2</ele>
        <time>2021-05-18T10:01:27Z</time>
      </trkpt>
      <trkpt lat="41.8162470" lon="-8.8685660">
        <ele>6.2</ele>
        <time>2021-05-18T10:01:28Z</time>
      </trkpt>
      <trkpt lat="41.8162470" lon="-8.8685660">
        <ele>6.2</ele>
        <time>2021-05-18T10:01:29Z</time>
      </trkpt>
      <trkpt lat="41.8162470" lon="-8.8685660">
        <ele>6.2</ele>
        <time>2021-05-18T10:01:30Z</time>
      </trkpt>
      <trkpt lat="41.8162480" lon="-8.8685670">
        <ele>6.2</ele>
        <time>2021-05-18T10:01:31Z</time>
      </trkpt>
      <trkpt lat="41.8162480" lon="-8.8685670">
        <ele>6.2</ele>
        <time>2021-05-18T10:01:32Z</time>
      </trkpt>
      <trkpt lat="41.8162480" lon="-8.8685680">
        <ele>6.2</ele>
        <time>2021-05-18T10:01:33Z</time>
      </trkpt>
      <trkpt lat="41.8162490" lon="-8.8685680">
        <ele>6.2</ele>
        <time>2021-05-18T10:01:34Z</time>
      </trkpt>
      <trkpt lat="41.8162490" lon="-8.8685680">
        <ele>6.2</ele>
        <time>2021-05-18T10:01:35Z</time>
      </trkpt>
      <trkpt lat="41.8162490" lon="-8.8685690">
        <ele>6.2</ele>
        <time>2021-05-18T10:01:36Z</time>
      </trkpt>
      <trkpt lat="41.8162500" lon="-8.8685690">
        <ele>6.2</ele>
        <time>2021-05-18T10:01:37Z</time>
      </trkpt>
      <trkpt lat="41.8162500" lon="-8.8685700">
        <ele>6.2</ele>
        <time>2021-05-18T10:01:38Z</time>
      </trkpt>
      <trkpt lat="41.8162500" lon="-8.8685700">
        <ele>6.2</ele>
        <time>2021-05-18T10:01:39Z</time>
      </trkpt>
      <trkpt lat="41.8162500" lon="-8.8685700">
        <ele>6.2</ele>
        <time>2021-05-18T10:01:40Z</time>
      </trkpt>
      <trkpt lat="41.8162510" lon="-8.8685710">
        <ele>6.2</ele>
        <time>2021-05-18T10:01:41Z</time>
      </trkpt>
      <trkpt lat="41.8162510" lon="-8.8685710">
        <ele>6.2</ele>
        <time>2021-05-18T10:01:42Z</time>
      </trkpt>
      <trkpt lat="41.8162510" lon="-8.8685720">
        <ele>6.2</ele>
        <time>2021-05-18T10:01:43Z</time>
      </trkpt>
      <trkpt lat="41.8162520" lon="-8.8685720">
        <ele>6.2</ele>
        <time>2021-05-18T10:01:44Z</time>
      </trkpt>
      <trkpt lat="41.8162520" lon="-8.8685720">
        <ele>6.2</ele>
        <time>2021-05-18T10:01:45Z</time>
      </trkpt>
      <trkpt lat="41.8162520" lon="-8.8685730">
        <ele>6.2</ele>
        <time>2021-05-18T10:01:46Z</time>
      </trkpt>
      <trkpt lat="41.8162530" lon="-8.8685730">
        <ele>6.2</ele>
        <time>2021-05-18T10:01:47Z</time>
      </trkpt>
      <trkpt lat="41.8162530" lon="-8.8685740">
        <ele>6.2</ele>
        <time>2021-05-18T10:01:48Z</time>
      </trkpt>
      <trkpt lat="41.8162530" lon="-8.8685740">
        <ele>6.2</ele>
        <time>2021-05-18T10:01:49Z</time>
      </trkpt>
      <trkpt lat="41.8162540" lon="-8.8685740">
        <ele>6.2</ele>
        <time>2021-05-18T10:01:50Z</time>
      </trkpt>
      <trkpt lat="41.8162540" lon="-8.8685750">
        <ele>6.2</ele>
        <time>2021-05-18T10:01:51Z</time>
      </trkpt>
      <trkpt lat="41.8162540" lon="-8.8685750">
        <ele>6.2</ele>
        <time>2021-05-18T10:01:52Z</time>
      </trkpt>
      <trkpt lat="41.8162540" lon="-8.8685750">
        <ele>6.2</ele>
        <time>2021-05-18T10:01:53Z</time>
      </trkpt>
      <trkpt lat="41.8162550" lon="-8.8685760">
        <ele>6.2</ele>
        <time>2021-05-18T10:01:54Z</time>
      </trkpt>
      <trkpt lat="41.8162550" lon="-8.8685760">
        <ele>6.2</ele>
        <time>2021-05-18T10:01:55Z</time>
      </trkpt>
      <trkpt lat="41.8162550" lon="-8.8685770">
        <ele>6.2</ele>
        <time>2021-05-18T10:01:56Z</time>
      </trkpt>
      <trkpt lat="41.8162560" lon="-8.8685770">
        <ele>6.2</ele>
        <time>2021-05-18T10:01:57Z</time>
      </trkpt>
      <trkpt lat="41.8162560" lon="-8.8685770">
        <ele>6.2</ele>
        <time>2021-05-18T10:01:58Z</time>
      </trkpt>
      <trkpt lat="41.8162560" lon="-8.8685780">
        <ele>6.2</ele>
        <time>2021-05-18T10:01:59Z</time>
      </trkpt>
      <trkpt lat="41.8162570" lon="-8.8685780">
        <ele>6.2</ele>
        <time>2021-05-18T10:02:00Z</time>
      </trkpt>
      <trkpt lat="41.8162570" lon="-8.8685790">
        <ele>6.2</ele>
        <time>2021-05-18T10:02:01Z</time>
      </trkpt>
      <trkpt lat="41.8162570" lon="-8.8685790">
        <ele>6.2</ele>
        <time>2021-05-18T10:02:02Z</time>
      </trkpt>
      <trkpt lat="41.8162580" lon="-8.8685790">
        <ele>6.2</ele>
        <time>2021-05-18T10:02:03Z</time>
      </trkpt>
      <trkpt lat="41.8162580" lon="-8.8685800">
        <ele>6.2</ele>
        <time>2021-05-18T10:02:04Z</time>
      </trkpt>
      <trkpt lat="41.8162580" lon="-8.8685800">
        <ele>6.2</ele>
        <time>2021-05-18T10:02:05Z</time>
      </trkpt>
      <trkpt lat="41.8162590" lon="-8.8685810">
        <ele>6.2</ele>
        <time>2021-05-18T10:02:06Z</time>
      </trkpt>
      <trkpt lat="41.8162590" lon="-8.8685810">
        <ele>6.2</ele>
        <time>2021-05-18T10:02:07Z</time>
      </trkpt>
      <trkpt lat="41.8162590" lon="-8.8685810">
        <ele>6.2</ele>
        <time>2021-05-18T10:02:08Z</time>
      </trkpt>
      <trkpt lat="41.8162590" lon="-8.8685820">
        <ele>6.2</ele>
        <time>2021-05-18T10:02:09Z</time>
      </trkpt>
      <trkpt lat="41.8162600" lon="-8.8685820">
        <ele>6.2</ele>
        <time>2021-05-18T10:02:10Z</time>
      </trkpt>
      <trkpt lat="41.8162600" lon="-8.8685820">
        <ele>6.2</ele>
        <time>2021-05-18T10:02:11Z</time>
      </trkpt>
      <trkpt lat="41.8162600" lon="-8.8685830">
        <ele>6.2</ele>
        <time>2021-05-18T10:02:12Z</time>
      </trkpt>
      <trkpt lat="41.8162610" lon="-8.8685830">
        <ele>6.2</ele>
        <time>2021-05-18T10:02:13Z</time>
      </trkpt>
      <trkpt lat="41.8162610" lon="-8.8685840">
        <ele>6.2</ele>
        <time>2021-05-18T10:02:14Z</time>
      </trkpt>
      <trkpt lat="41.8162610" lon="-8.8685840">
        <ele>6.2</ele>
        <time>2021-05-18T10:02:15Z</time>
      </trkpt>
      <trkpt lat="41.8162620" lon="-8.8685840">
        <ele>6.2</ele>
        <time>2021-05-18T10:02:16Z</time>
      </trkpt>
      <trkpt lat="41.8162620" lon="-8.8685850">
        <ele>6.2</ele>
        <time>2021-05-18T10:02:17Z</time>
      </trkpt>
      <trkpt lat="41.8162620" lon="-8.8685850">
        <ele>6.2</ele>
        <time>2021-05-18T10:02:18Z</time>
      </trkpt>
      <trkpt lat="41.8162630" lon="-8.8685860">
        <ele>6.2</ele>
        <time>2021-05-18T10:02:19Z</time>
      </trkpt>
      <trkpt lat="41.8162630" lon="-8.8685860">
        <ele>6.2</ele>
        <time>2021-05-18T10:02:20Z</time>
      </trkpt>
      <trkpt lat="41.8162630" lon="-8.8685860">
        <ele>6.2</ele>
        <time>2021-05-18T10:02:21Z</time>
      </trkpt>
      <trkpt lat="41.8162630" lon="-8.8685870">
        <ele>6.2</ele>
        <time>2021-05-18T10:02:22Z</time>
      </trkpt>
      <trkpt lat="41.8162640" lon="-8.8685870">
        <ele>6.2</ele>
        <time>2021-05-18T10:02:23Z</time>
      </trkpt>
      <trkpt lat="41.8162640" lon="-8.8685880">
        <ele>6.2</ele>
        <time>2021-05-18T10:02:24Z</time>
      </trkpt>
      <trkpt lat="41.8162640" lon="-8.8685880">
        <ele>6.2</ele>
        <time>2021-05-18T10:02:25Z</time>
      </trkpt>
      <trkpt lat="41.8162650" lon="-8.8685880">
        <ele>6.2</ele>
        <time>2021-05-18T10:02:26Z</time>
      </trkpt>
      <trkpt lat="41.8162650" lon="-8.8685890">
        <ele>6.2</ele>
        <time>2021-05-18T10:02:27Z</time>
      </trkpt>
      <trkpt lat="41.8162650" lon="-8.8685890">
        <ele>6.2</ele>
        <time>2021-05-18T10:02:28Z</time>
      </trkpt>
      <trkpt lat="41.8162660" lon="-8.8685900">
        <ele>6.2</ele>
        <time>2021-05-18T10:02:29Z</time>
      </trkpt>
      <trkpt lat="41.8162660" lon="-8.8685900">
        <ele>6.2</ele>
        <time>2021-05-18T10:02:30Z</time>
      </trkpt>
      <trkpt lat="41.8162660" lon="-8.8685900">
        <ele>6.2</ele>
        <time>2021-05-18T10:02:31Z</time>
      </trkpt>
      <trkpt lat="41.8162670" lon="-8.8685910">
        <ele>6.2</ele>
        <time>2021-05-18T10:02:32Z</time>
      </trkpt>
      <trkpt lat="41.8162670" lon="-8.8685910">
        <ele>6.2</ele>
        <time>2021-05-18T10:02:33Z</time>
      </trkpt>
      <trkpt lat="41.8162670" lon="-8.8685910">
        <ele>6.2</ele>
        <time>2021-05-18T10:02:34Z</time>
      </trkpt>
      <trkpt lat="41.8162680" lon="-8.8685920">
        <ele>6.2</ele>
        <time>2021-05-18T10:02:35Z</time>
      </trkpt>
      <trkpt lat="41.8162680" lon="-8.8685920">
        <ele>6.2</ele>
        <time>2021-05-18T10:02:36Z</time>
      </trkpt>
      <trkpt lat="41.8162680" lon="-8.8685930">
        <ele>6.2</ele>
        <time>2021-05-18T10:02:37Z</time>
      </trkpt>
      <trkpt lat="41.8162680" lon="-8.8685930">
        <ele>6.2</ele>
        <time>2021-05-18T10:02:38Z</time>
      </trkpt>
      <trkpt lat="41.8162690" lon="-8.8685930">
        <ele>6.2</ele>
        <time>2021-05-18T10:02:39Z</time>
      </trkpt>
      <trkpt lat="41.8162690" lon="-8.8685940">
        <ele>6.2</ele>
        <time>2021-05-18T10:02:40Z</time>
      </trkpt>
      <trkpt lat="41.8162690" lon="-8.8685940">
        <ele>6.2</ele>
        <time>2021-05-18T10:02:41Z</time>
      </trkpt>
      <trkpt lat="41.8162700" lon="-8.8685950">
        <ele>6.2</ele>
        <time>2021-05-18T10:02:42Z</time>
      </trkpt>
      <trkpt lat="41.8162700" lon="-8.8685950">
        <ele>6.2</ele>
        <time>2021-05-18T10:02:43Z</time>
      </trkpt>
      <trkpt lat="41.8162720" lon="-8.8685870">
        <ele>6.2</ele>
        <time>2021-05-18T10:02:44Z</time>
      </trkpt>
      <trkpt lat="41.8162840" lon="-8.8685920">
        <ele>6.2</ele>
        <time>2021-05-18T10:02:45Z</time>
      </trkpt>
      <trkpt lat="41.8162840" lon="-8.8685840">
        <ele>6.2</ele>
        <time>2021-05-18T10:02:46Z</time>
      </trkpt>
      <trkpt lat="41.8162860" lon="-8.8685820">
        <ele>6.2</ele>
        <time>2021-05-18T10:02:47Z</time>
      </trkpt>
      <trkpt lat="41.8162900" lon="-8.8685810">
        <ele>6.2</ele>
        <time>2021-05-18T10:02:48Z</time>
      </trkpt>
      <trkpt lat="41.8162890" lon="-8.8685640">
        <ele>6.3</ele>
        <time>2021-05-18T10:02:49Z</time>
      </trkpt>
      <trkpt lat="41.8162870" lon="-8.8685520">
        <ele>6.3</ele>
        <time>2021-05-18T10:02:50Z</time>
      </trkpt>
      <trkpt lat="41.8162960" lon="-8.8685380">
        <ele>6.3</ele>
        <time>2021-05-18T10:02:51Z</time>
      </trkpt>
      <trkpt lat="41.8163140" lon="-8.8685380">
        <ele>6.3</ele>
        <time>2021-05-18T10:02:52Z</time>
      </trkpt>
      <trkpt lat="41.8163270" lon="-8.8685410">
        <ele>6.3</ele>
        <time>2021-05-18T10:02:53Z</time>
      </trkpt>
      <trkpt lat="41.8163430" lon="-8.8685270">
        <ele>6.3</ele>
        <time>2021-05-18T10:02:54Z</time>
      </trkpt>
      <trkpt lat="41.8163560" lon="-8.8685200">
        <ele>6.4</ele>
        <time>2021-05-18T10:02:55Z</time>
      </trkpt>
      <trkpt lat="41.8163640" lon="-8.8685140">
        <ele>6.4</ele>
        <time>2021-05-18T10:02:56Z</time>
      </trkpt>
      <trkpt lat="41.8163710" lon="-8.8685090">
        <ele>6.4</ele>
        <time>2021-05-18T10:02:57Z</time>
      </trkpt>
      <trkpt lat="41.8163780" lon="-8.8685030">
        <ele>6.4</ele>
        <time>2021-05-18T10:02:58Z</time>
      </trkpt>
      <trkpt lat="41.8163860" lon="-8.8684960">
        <ele>6.4</ele>
        <time>2021-05-18T10:02:59Z</time>
      </trkpt>
      <trkpt lat="41.8163970" lon="-8.8684970">
        <ele>6.4</ele>
        <time>2021-05-18T10:03:00Z</time>
      </trkpt>
      <trkpt lat="41.8164060" lon="-8.8685000">
        <ele>6.4</ele>
        <time>2021-05-18T10:03:01Z</time>
      </trkpt>
      <trkpt lat="41.8164210" lon="-8.8685040">
        <ele>6.4</ele>
        <time>2021-05-18T10:03:02Z</time>
      </trkpt>
      <trkpt lat="41.8164290" lon="-8.8685030">
        <ele>6.4</ele>
        <time>2021-05-18T10:03:03Z</time>
      </trkpt>
      <trkpt lat="41.8164290" lon="-8.8684910">
        <ele>6.5</ele>
        <time>2021-05-18T10:03:04Z</time>
      </trkpt>
      <trkpt lat="41.8164360" lon="-8.8684880">
        <ele>6.5</ele>
        <time>2021-05-18T10:03:05Z</time>
      </trkpt>
      <trkpt lat="41.8164480" lon="-8.8684920">
        <ele>6.5</ele>
        <time>2021-05-18T10:03:06Z</time>
      </trkpt>
      <trkpt lat="41.8164570" lon="-8.8684920">
        <ele>6.5</ele>
        <time>2021-05-18T10:03:07Z</time>
      </trkpt>
      <trkpt lat="41.8164660" lon="-8.8684980">
        <ele>6.5</ele>
        <time>2021-05-18T10:03:08Z</time>
      </trkpt>
      <trkpt lat="41.8164890" lon="-8.8685140">
        <ele>6.5</ele>
        <time>2021-05-18T10:03:09Z</time>
      </trkpt>
      <trkpt lat="41.8164990" lon="-8.8685260">
        <ele>6.5</ele>
        <time>2021-05-18T10:03:10Z</time>
      </trkpt>
      <trkpt lat="41.8165100" lon="-8.8685380">
        <ele>6.6</ele>
        <time>2021-05-18T10:03:11Z</time>
      </trkpt>
      <trkpt lat="41.8165250" lon="-8.8685610">
        <ele>6.6</ele>
        <time>2021-05-18T10:03:12Z</time>
      </trkpt>
      <trkpt lat="41.8165320" lon="-8.8685710">
        <ele>6.6</ele>
        <time>2021-05-18T10:03:13Z</time>
      </trkpt>
      <trkpt lat="41.8165390" lon="-8.8685810">
        <ele>6.6</ele>
        <time>2021-05-18T10:03:14Z</time>
      </trkpt>
      <trkpt lat="41.8165290" lon="-8.8685970">
        <ele>6.6</ele>
        <time>2021-05-18T10:03:15Z</time>
      </trkpt>
      <trkpt lat="41.8165310" lon="-8.8686170">
        <ele>6.6</ele>
        <time>2021-05-18T10:03:16Z</time>
      </trkpt>
      <trkpt lat="41.8165360" lon="-8.8686310">
        <ele>6.6</ele>
        <time>2021-05-18T10:03:17Z</time>
      </trkpt>
      <trkpt lat="41.8165420" lon="-8.8686470">
        <ele>6.6</ele>
        <time>2021-05-18T10:03:18Z</time>
      </trkpt>
      <trkpt lat="41.8165520" lon="-8.8686540">
        <ele>6.6</ele>
        <time>2021-05-18T10:03:19Z</time>
      </trkpt>
      <trkpt lat="41.8165690" lon="-8.8686720">
        <ele>6.6</ele>
        <time>2021-05-18T10:03:20Z</time>
      </trkpt>
      <trkpt lat="41.8165760" lon="-8.8686800">
        <ele>6.6</ele>
        <time>2021-05-18T10:03:21Z</time>
      </trkpt>
      <trkpt lat="41.8165820" lon="-8.8686880">
        <ele>6.6</ele>
        <time>2021-05-18T10:03:22Z</time>
      </trkpt>
      <trkpt lat="41.8165910" lon="-8.8686990">
        <ele>6.6</ele>
        <time>2021-05-18T10:03:23Z</time>
      </trkpt>
      <trkpt lat="41.8166000" lon="-8.8687060">
        <ele>6.6</ele>
        <time>2021-05-18T10:03:24Z</time>
      </trkpt>
      <trkpt lat="41.8166130" lon="-8.8687120">
        <ele>6.6</ele>
        <time>2021-05-18T10:03:25Z</time>
      </trkpt>
      <trkpt lat="41.8166290" lon="-8.8687290">
        <ele>6.6</ele>
        <time>2021-05-18T10:03:26Z</time>
      </trkpt>
      <trkpt lat="41.8166350" lon="-8.8687390">
        <ele>6.6</ele>
        <time>2021-05-18T10:03:27Z</time>
      </trkpt>
      <trkpt lat="41.8166410" lon="-8.8687480">
        <ele>6.6</ele>
        <time>2021-05-18T10:03:28Z</time>
      </trkpt>
      <trkpt lat="41.8166500" lon="-8.8687620">
        <ele>6.6</ele>
        <time>2021-05-18T10:03:29Z</time>
      </trkpt>
      <trkpt lat="41.8166550" lon="-8.8687800">
        <ele>6.6</ele>
        <time>2021-05-18T10:03:30Z</time>
      </trkpt>
      <trkpt lat="41.8166640" lon="-8.8687860">
        <ele>6.6</ele>
        <time>2021-05-18T10:03:31Z</time>
      </trkpt>
      <trkpt lat="41.8166700" lon="-8.8687970">
        <ele>6.6</ele>
        <time>2021-05-18T10:03:32Z</time>
      </trkpt>
      <trkpt lat="41.8166780" lon="-8.8688110">
        <ele>6.6</ele>
        <time>2021-05-18T10:03:33Z</time>
      </trkpt>
      <trkpt lat="41.8166830" lon="-8.8688220">
        <ele>6.6</ele>
        <time>2021-05-18T10:03:34Z</time>
      </trkpt>
      <trkpt lat="41.8166920" lon="-8.8688320">
        <ele>6.6</ele>
        <time>2021-05-18T10:03:35Z</time>
      </trkpt>
      <trkpt lat="41.8166970" lon="-8.8688480">
        <ele>6.6</ele>
        <time>2021-05-18T10:03:36Z</time>
      </trkpt>
      <trkpt lat="41.8167080" lon="-8.8688730">
        <ele>6.5</ele>
        <time>2021-05-18T10:03:37Z</time>
      </trkpt>
      <trkpt lat="41.8167200" lon="-8.8688840">
        <ele>6.5</ele>
        <time>2021-05-18T10:03:38Z</time>
      </trkpt>
      <trkpt lat="41.8167290" lon="-8.8689010">
        <ele>6.5</ele>
        <time>2021-05-18T10:03:39Z</time>
      </trkpt>
      <trkpt lat="41.8167360" lon="-8.8689230">
        <ele>6.5</ele>
        <time>2021-05-18T10:03:40Z</time>
      </trkpt>
      <trkpt lat="41.8167460" lon="-8.8689370">
        <ele>6.5</ele>
        <time>2021-05-18T10:03:41Z</time>
      </trkpt>
      <trkpt lat="41.8167530" lon="-8.8689590">
        <ele>6.5</ele>
        <time>2021-05-18T10:03:42Z</time>
      </trkpt>
      <trkpt lat="41.8167610" lon="-8.8689780">
        <ele>6.5</ele>
        <time>2021-05-18T10:03:43Z</time>
      </trkpt>
      <trkpt lat="41.8167700" lon="-8.8689960">
        <ele>6.5</ele>
        <time>2021-05-18T10:03:44Z</time>
      </trkpt>
      <trkpt lat="41.8167780" lon="-8.8690160">
        <ele>6.5</ele>
        <time>2021-05-18T10:03:45Z</time>
      </trkpt>
      <trkpt lat="41.8167900" lon="-8.8690300">
        <ele>6.5</ele>
        <time>2021-05-18T10:03:46Z</time>
      </trkpt>
      <trkpt lat="41.8167980" lon="-8.8690460">
        <ele>6.5</ele>
        <time>2021-05-18T10:03:47Z</time>
      </trkpt>
      <trkpt lat="41.8168080" lon="-8.8690640">
        <ele>6.5</ele>
        <time>2021-05-18T10:03:48Z</time>
      </trkpt>
      <trkpt lat="41.8168150" lon="-8.8690810">
        <ele>6.5</ele>
        <time>2021-05-18T10:03:49Z</time>
      </trkpt>
      <trkpt lat="41.8168250" lon="-8.8690970">
        <ele>6.5</ele>
        <time>2021-05-18T10:03:50Z</time>
      </trkpt>
      <trkpt lat="41.8168310" lon="-8.8691160">
        <ele>6.5</ele>
        <time>2021-05-18T10:03:51Z</time>
      </trkpt>
      <trkpt lat="41.8168390" lon="-8.8691340">
        <ele>6.4</ele>
        <time>2021-05-18T10:03:52Z</time>
      </trkpt>
      <trkpt lat="41.8168500" lon="-8.8691490">
        <ele>6.4</ele>
        <time>2021-05-18T10:03:53Z</time>
      </trkpt>
      <trkpt lat="41.8168590" lon="-8.8691660">
        <ele>6.4</ele>
        <time>2021-05-18T10:03:54Z</time>
      </trkpt>
      <trkpt lat="41.8168670" lon="-8.8691820">
        <ele>6.4</ele>
        <time>2021-05-18T10:03:55Z</time>
      </trkpt>
      <trkpt lat="41.8168780" lon="-8.8691970">
        <ele>6.4</ele>
        <time>2021-05-18T10:03:56Z</time>
      </trkpt>
      <trkpt lat="41.8168800" lon="-8.8692170">
        <ele>6.4</ele>
        <time>2021-05-18T10:03:57Z</time>
      </trkpt>
      <trkpt lat="41.8168870" lon="-8.8692320">
        <ele>6.4</ele>
        <time>2021-05-18T10:03:58Z</time>
      </trkpt>
      <trkpt lat="41.8168950" lon="-8.8692390">
        <ele>6.4</ele>
        <time>2021-05-18T10:03:59Z</time>
      </trkpt>
      <trkpt lat="41.8168980" lon="-8.8692470">
        <ele>6.4</ele>
        <time>2021-05-18T10:04:00Z</time>
      </trkpt>
      <trkpt lat="41.8169050" lon="-8.8692620">
        <ele>6.4</ele>
        <time>2021-05-18T10:04:01Z</time>
      </trkpt>
      <trkpt lat="41.8169140" lon="-8.8692650">
        <ele>6.4</ele>
        <time>2021-05-18T10:04:02Z</time>
      </trkpt>
      <trkpt lat="41.8169210" lon="-8.8692800">
        <ele>6.4</ele>
        <time>2021-05-18T10:04:03Z</time>
      </trkpt>
      <trkpt lat="41.8169280" lon="-8.8692970">
        <ele>6.4</ele>
        <time>2021-05-18T10:04:04Z</time>
      </trkpt>
      <trkpt lat="41.8169370" lon="-8.8693270">
        <ele>6.3</ele>
        <time>2021-05-18T10:04:05Z</time>
      </trkpt>
      <trkpt lat="41.8169430" lon="-8.8693350">
        <ele>6.3</ele>
        <time>2021-05-18T10:04:06Z</time>
      </trkpt>
      <trkpt lat="41.8169490" lon="-8.8693430">
        <ele>6.3</ele>
        <time>2021-05-18T10:04:07Z</time>
      </trkpt>
      <trkpt lat="41.8169550" lon="-8.8693490">
        <ele>6.3</ele>
        <time>2021-05-18T10:04:08Z</time>
      </trkpt>
      <trkpt lat="41.8169630" lon="-8.8693590">
        <ele>6.3</ele>
        <time>2021-05-18T10:04:09Z</time>
      </trkpt>
      <trkpt lat="41.8169690" lon="-8.8693750">
        <ele>6.3</ele>
        <time>2021-05-18T10:04:10Z</time>
      </trkpt>
      <trkpt lat="41.8169790" lon="-8.8693930">
        <ele>6.3</ele>
        <time>2021-05-18T10:04:11Z</time>
      </trkpt>
      <trkpt lat="41.8169880" lon="-8.8694060">
        <ele>6.3</ele>
        <time>2021-05-18T10:04:12Z</time>
      </trkpt>
      <trkpt lat="41.8170030" lon="-8.8694230">
        <ele>6.3</ele>
        <time>2021-05-18T10:04:13Z</time>
      </trkpt>
      <trkpt lat="41.8170100" lon="-8.8694310">
        <ele>6.3</ele>
        <time>2021-05-18T10:04:14Z</time>
      </trkpt>
      <trkpt lat="41.8170170" lon="-8.8694400">
        <ele>6.3</ele>
        <time>2021-05-18T10:04:15Z</time>
      </trkpt>
      <trkpt lat="41.8170260" lon="-8.8694590">
        <ele>6.3</ele>
        <time>2021-05-18T10:04:16Z</time>
      </trkpt>
      <trkpt lat="41.8170360" lon="-8.8694760">
        <ele>6.3</ele>
        <time>2021-05-18T10:04:17Z</time>
      </trkpt>
      <trkpt lat="41.8170440" lon="-8.8694920">
        <ele>6.3</ele>
        <time>2021-05-18T10:04:18Z</time>
      </trkpt>
      <trkpt lat="41.8170490" lon="-8.8695110">
        <ele>6.3</ele>
        <time>2021-05-18T10:04:19Z</time>
      </trkpt>
      <trkpt lat="41.8170560" lon="-8.8695300">
        <ele>6.2</ele>
        <time>2021-05-18T10:04:20Z</time>
      </trkpt>
      <trkpt lat="41.8170660" lon="-8.8695430">
        <ele>6.2</ele>
        <time>2021-05-18T10:04:21Z</time>
      </trkpt>
      <trkpt lat="41.8170760" lon="-8.8695600">
        <ele>6.2</ele>
        <time>2021-05-18T10:04:22Z</time>
      </trkpt>
      <trkpt lat="41.8170800" lon="-8.8695810">
        <ele>6.2</ele>
        <time>2021-05-18T10:04:23Z</time>
      </trkpt>
      <trkpt lat="41.8170890" lon="-8.8695990">
        <ele>6.2</ele>
        <time>2021-05-18T10:04:24Z</time>
      </trkpt>
      <trkpt lat="41.8170970" lon="-8.8696150">
        <ele>6.2</ele>
        <time>2021-05-18T10:04:25Z</time>
      </trkpt>
      <trkpt lat="41.8171000" lon="-8.8696340">
        <ele>6.2</ele>
        <time>2021-05-18T10:04:26Z</time>
      </trkpt>
      <trkpt lat="41.8170990" lon="-8.8696530">
        <ele>6.2</ele>
        <time>2021-05-18T10:04:27Z</time>
      </trkpt>
      <trkpt lat="41.8170960" lon="-8.8696680">
        <ele>6.2</ele>
        <time>2021-05-18T10:04:28Z</time>
      </trkpt>
      <trkpt lat="41.8171020" lon="-8.8696770">
        <ele>6.2</ele>
        <time>2021-05-18T10:04:29Z</time>
      </trkpt>
      <trkpt lat="41.8171060" lon="-8.8696900">
        <ele>6.2</ele>
        <time>2021-05-18T10:04:30Z</time>
      </trkpt>
      <trkpt lat="41.8171180" lon="-8.8697080">
        <ele>6.2</ele>
        <time>2021-05-18T10:04:31Z</time>
      </trkpt>
      <trkpt lat="41.8171240" lon="-8.8697170">
        <ele>6.2</ele>
        <time>2021-05-18T10:04:32Z</time>
      </trkpt>
      <trkpt lat="41.8171290" lon="-8.8697250">
        <ele>6.2</ele>
        <time>2021-05-18T10:04:33Z</time>
      </trkpt>
      <trkpt lat="41.8171340" lon="-8.8697340">
        <ele>6.2</ele>
        <time>2021-05-18T10:04:34Z</time>
      </trkpt>
      <trkpt lat="41.8171550" lon="-8.8697480">
        <ele>6.2</ele>
        <time>2021-05-18T10:04:35Z</time>
      </trkpt>
      <trkpt lat="41.8171630" lon="-8.8697550">
        <ele>6.2</ele>
        <time>2021-05-18T10:04:36Z</time>
      </trkpt>
      <trkpt lat="41.8171700" lon="-8.8697610">
        <ele>6.2</ele>
        <time>2021-05-18T10:04:37Z</time>
      </trkpt>
      <trkpt lat="41.8171770" lon="-8.8697730">
        <ele>6.2</ele>
        <time>2021-05-18T10:04:38Z</time>
      </trkpt>
      <trkpt lat="41.8171800" lon="-8.8697790">
        <ele>6.2</ele>
        <time>2021-05-18T10:04:39Z</time>
      </trkpt>
      <trkpt lat="41.8171830" lon="-8.8697970">
        <ele>6.2</ele>
        <time>2021-05-18T10:04:40Z</time>
      </trkpt>
      <trkpt lat="41.8171860" lon="-8.8698060">
        <ele>6.2</ele>
        <time>2021-05-18T10:04:41Z</time>
      </trkpt>
      <trkpt lat="41.8171940" lon="-8.8698190">
        <ele>6.2</ele>
        <time>2021-05-18T10:04:42Z</time>
      </trkpt>
      <trkpt lat="41.8172020" lon="-8.8698350">
        <ele>6.2</ele>
        <time>2021-05-18T10:04:43Z</time>
      </trkpt>
      <trkpt lat="41.8172180" lon="-8.8698570">
        <ele>6.2</ele>
        <time>2021-05-18T10:04:44Z</time>
      </trkpt>
      <trkpt lat="41.8172240" lon="-8.8698670">
        <ele>6.2</ele>
        <time>2021-05-18T10:04:45Z</time>
      </trkpt>
      <trkpt lat="41.8172300" lon="-8.8698760">
        <ele>6.2</ele>
        <time>2021-05-18T10:04:46Z</time>
      </trkpt>
      <trkpt lat="41.8172410" lon="-8.8698890">
        <ele>6.2</ele>
        <time>2021-05-18T10:04:47Z</time>
      </trkpt>
      <trkpt lat="41.8172500" lon="-8.8699020">
        <ele>6.2</ele>
        <time>2021-05-18T10:04:48Z</time>
      </trkpt>
      <trkpt lat="41.8172590" lon="-8.8699100">
        <ele>6.2</ele>
        <time>2021-05-18T10:04:49Z</time>
      </trkpt>
      <trkpt lat="41.8172650" lon="-8.8699180">
        <ele>6.2</ele>
        <time>2021-05-18T10:04:50Z</time>
      </trkpt>
      <trkpt lat="41.8172750" lon="-8.8699310">
        <ele>6.2</ele>
        <time>2021-05-18T10:04:51Z</time>
      </trkpt>
      <trkpt lat="41.8172840" lon="-8.8699430">
        <ele>6.2</ele>
        <time>2021-05-18T10:04:52Z</time>
      </trkpt>
      <trkpt lat="41.8172900" lon="-8.8699520">
        <ele>6.2</ele>
        <time>2021-05-18T10:04:53Z</time>
      </trkpt>
      <trkpt lat="41.8172980" lon="-8.8699650">
        <ele>6.2</ele>
        <time>2021-05-18T10:04:54Z</time>
      </trkpt>
      <trkpt lat="41.8173100" lon="-8.8699830">
        <ele>6.2</ele>
        <time>2021-05-18T10:04:55Z</time>
      </trkpt>
      <trkpt lat="41.8173200" lon="-8.8699980">
        <ele>6.2</ele>
        <time>2021-05-18T10:04:56Z</time>
      </trkpt>
      <trkpt lat="41.8173320" lon="-8.8700210">
        <ele>6.2</ele>
        <time>2021-05-18T10:04:57Z</time>
      </trkpt>
      <trkpt lat="41.8173370" lon="-8.8700310">
        <ele>6.2</ele>
        <time>2021-05-18T10:04:58Z</time>
      </trkpt>
      <trkpt lat="41.8173420" lon="-8.8700400">
        <ele>6.2</ele>
        <time>2021-05-18T10:04:59Z</time>
      </trkpt>
      <trkpt lat="41.8173390" lon="-8.8700650">
        <ele>6.2</ele>
        <time>2021-05-18T10:05:00Z</time>
      </trkpt>
      <trkpt lat="41.8173430" lon="-8.8700870">
        <ele>6.3</ele>
        <time>2021-05-18T10:05:01Z</time>
      </trkpt>
      <trkpt lat="41.8173460" lon="-8.8700960">
        <ele>6.3</ele>
        <time>2021-05-18T10:05:02Z</time>
      </trkpt>
      <trkpt lat="41.8173590" lon="-8.8701170">
        <ele>6.3</ele>
        <time>2021-05-18T10:05:03Z</time>
      </trkpt>
      <trkpt lat="41.8173660" lon="-8.8701420">
        <ele>6.3</ele>
        <time>2021-05-18T10:05:04Z</time>
      </trkpt>
      <trkpt lat="41.8173710" lon="-8.8701530">
        <ele>6.3</ele>
        <time>2021-05-18T10:05:05Z</time>
      </trkpt>
      <trkpt lat="41.8173750" lon="-8.8701640">
        <ele>6.3</ele>
        <time>2021-05-18T10:05:06Z</time>
      </trkpt>
      <trkpt lat="41.8173850" lon="-8.8701810">
        <ele>6.3</ele>
        <time>2021-05-18T10:05:07Z</time>
      </trkpt>
      <trkpt lat="41.8173950" lon="-8.8702000">
        <ele>6.3</ele>
        <time>2021-05-18T10:05:08Z</time>
      </trkpt>
      <trkpt lat="41.8174020" lon="-8.8702190">
        <ele>6.3</ele>
        <time>2021-05-18T10:05:09Z</time>
      </trkpt>
      <trkpt lat="41.8174080" lon="-8.8702390">
        <ele>6.3</ele>
        <time>2021-05-18T10:05:10Z</time>
      </trkpt>
      <trkpt lat="41.8174160" lon="-8.8702570">
        <ele>6.3</ele>
        <time>2021-05-18T10:05:11Z</time>
      </trkpt>
      <trkpt lat="41.8174240" lon="-8.8702760">
        <ele>6.3</ele>
        <time>2021-05-18T10:05:12Z</time>
      </trkpt>
      <trkpt lat="41.8174350" lon="-8.8702900">
        <ele>6.3</ele>
        <time>2021-05-18T10:05:13Z</time>
      </trkpt>
      <trkpt lat="41.8174420" lon="-8.8703070">
        <ele>6.3</ele>
        <time>2021-05-18T10:05:14Z</time>
      </trkpt>
      <trkpt lat="41.8174500" lon="-8.8703230">
        <ele>6.3</ele>
        <time>2021-05-18T10:05:15Z</time>
      </trkpt>
      <trkpt lat="41.8174620" lon="-8.8703390">
        <ele>6.3</ele>
        <time>2021-05-18T10:05:16Z</time>
      </trkpt>
      <trkpt lat="41.8174730" lon="-8.8703520">
        <ele>6.3</ele>
        <time>2021-05-18T10:05:17Z</time>
      </trkpt>
      <trkpt lat="41.8174850" lon="-8.8703660">
        <ele>6.3</ele>
        <time>2021-05-18T10:05:18Z</time>
      </trkpt>
      <trkpt lat="41.8174980" lon="-8.8703750">
        <ele>6.2</ele>
        <time>2021-05-18T10:05:19Z</time>
      </trkpt>
      <trkpt lat="41.8175090" lon="-8.8703850">
        <ele>6.2</ele>
        <time>2021-05-18T10:05:20Z</time>
      </trkpt>
      <trkpt lat="41.8175220" lon="-8.8703950">
        <ele>6.2</ele>
        <time>2021-05-18T10:05:21Z</time>
      </trkpt>
      <trkpt lat="41.8175370" lon="-8.8703990">
        <ele>6.2</ele>
        <time>2021-05-18T10:05:22Z</time>
      </trkpt>
      <trkpt lat="41.8175500" lon="-8.8704100">
        <ele>6.2</ele>
        <time>2021-05-18T10:05:23Z</time>
      </trkpt>
      <trkpt lat="41.8175640" lon="-8.8704150">
        <ele>6.2</ele>
        <time>2021-05-18T10:05:24Z</time>
      </trkpt>
      <trkpt lat="41.8175790" lon="-8.8704180">
        <ele>6.2</ele>
        <time>2021-05-18T10:05:25Z</time>
      </trkpt>
      <trkpt lat="41.8175960" lon="-8.8704220">
        <ele>6.2</ele>
        <time>2021-05-18T10:05:26Z</time>
      </trkpt>
      <trkpt lat="41.8176170" lon="-8.8704310">
        <ele>6.2</ele>
        <time>2021-05-18T10:05:27Z</time>
      </trkpt>
      <trkpt lat="41.8176240" lon="-8.8704340">
        <ele>6.2</ele>
        <time>2021-05-18T10:05:28Z</time>
      </trkpt>
      <trkpt lat="41.8176310" lon="-8.8704380">
        <ele>6.2</ele>
        <time>2021-05-18T10:05:29Z</time>
      </trkpt>
      <trkpt lat="41.8176520" lon="-8.8704360">
        <ele>6.2</ele>
        <time>2021-05-18T10:05:30Z</time>
      </trkpt>
      <trkpt lat="41.8176600" lon="-8.8704350">
        <ele>6.2</ele>
        <time>2021-05-18T10:05:31Z</time>
      </trkpt>
      <trkpt lat="41.8176680" lon="-8.8704340">
        <ele>6.2</ele>
        <time>2021-05-18T10:05:32Z</time>
      </trkpt>
      <trkpt lat="41.8176840" lon="-8.8704340">
        <ele>6.2</ele>
        <time>2021-05-18T10:05:33Z</time>
      </trkpt>
      <trkpt lat="41.8176970" lon="-8.8704370">
        <ele>6.2</ele>
        <time>2021-05-18T10:05:34Z</time>
      </trkpt>
      <trkpt lat="41.8177120" lon="-8.8704400">
        <ele>6.2</ele>
        <time>2021-05-18T10:05:35Z</time>
      </trkpt>
      <trkpt lat="41.8177260" lon="-8.8704440">
        <ele>6.2</ele>
        <time>2021-05-18T10:05:36Z</time>
      </trkpt>
      <trkpt lat="41.8177410" lon="-8.8704500">
        <ele>6.2</ele>
        <time>2021-05-18T10:05:37Z</time>
      </trkpt>
      <trkpt lat="41.8177570" lon="-8.8704510">
        <ele>6.2</ele>
        <time>2021-05-18T10:05:38Z</time>
      </trkpt>
      <trkpt lat="41.8177700" lon="-8.8704630">
        <ele>6.2</ele>
        <time>2021-05-18T10:05:39Z</time>
      </trkpt>
      <trkpt lat="41.8177810" lon="-8.8704740">
        <ele>6.2</ele>
        <time>2021-05-18T10:05:40Z</time>
      </trkpt>
      <trkpt lat="41.8177940" lon="-8.8704850">
        <ele>6.2</ele>
        <time>2021-05-18T10:05:41Z</time>
      </trkpt>
      <trkpt lat="41.8178050" lon="-8.8704950">
        <ele>6.2</ele>
        <time>2021-05-18T10:05:42Z</time>
      </trkpt>
      <trkpt lat="41.8178150" lon="-8.8705080">
        <ele>6.2</ele>
        <time>2021-05-18T10:05:43Z</time>
      </trkpt>
      <trkpt lat="41.8178280" lon="-8.8705190">
        <ele>6.2</ele>
        <time>2021-05-18T10:05:44Z</time>
      </trkpt>
      <trkpt lat="41.8178450" lon="-8.8705360">
        <ele>6.2</ele>
        <time>2021-05-18T10:05:45Z</time>
      </trkpt>
      <trkpt lat="41.8178530" lon="-8.8705420">
        <ele>6.2</ele>
        <time>2021-05-18T10:05:46Z</time>
      </trkpt>
      <trkpt lat="41.8178600" lon="-8.8705480">
        <ele>6.2</ele>
        <time>2021-05-18T10:05:47Z</time>
      </trkpt>
      <trkpt lat="41.8178720" lon="-8.8705570">
        <ele>6.2</ele>
        <time>2021-05-18T10:05:48Z</time>
      </trkpt>
      <trkpt lat="41.8178830" lon="-8.8705680">
        <ele>6.2</ele>
        <time>2021-05-18T10:05:49Z</time>
      </trkpt>
      <trkpt lat="41.8178940" lon="-8.8705820">
        <ele>6.2</ele>
        <time>2021-05-18T10:05:50Z</time>
      </trkpt>
      <trkpt lat="41.8179030" lon="-8.8705960">
        <ele>6.2</ele>
        <time>2021-05-18T10:05:51Z</time>
      </trkpt>
      <trkpt lat="41.8179120" lon="-8.8706100">
        <ele>6.2</ele>
        <time>2021-05-18T10:05:52Z</time>
      </trkpt>
      <trkpt lat="41.8179260" lon="-8.8706180">
        <ele>6.2</ele>
        <time>2021-05-18T10:05:53Z</time>
      </trkpt>
      <trkpt lat="41.8179440" lon="-8.8706350">
        <ele>6.2</ele>
        <time>2021-05-18T10:05:54Z</time>
      </trkpt>
      <trkpt lat="41.8179510" lon="-8.8706420">
        <ele>6.2</ele>
        <time>2021-05-18T10:05:55Z</time>
      </trkpt>
      <trkpt lat="41.8179580" lon="-8.8706490">
        <ele>6.2</ele>
        <time>2021-05-18T10:05:56Z</time>
      </trkpt>
      <trkpt lat="41.8179680" lon="-8.8706580">
        <ele>6.2</ele>
        <time>2021-05-18T10:05:57Z</time>
      </trkpt>
      <trkpt lat="41.8179790" lon="-8.8706710">
        <ele>6.2</ele>
        <time>2021-05-18T10:05:58Z</time>
      </trkpt>
      <trkpt lat="41.8179920" lon="-8.8706820">
        <ele>6.2</ele>
        <time>2021-05-18T10:05:59Z</time>
      </trkpt>
      <trkpt lat="41.8180040" lon="-8.8706890">
        <ele>6.2</ele>
        <time>2021-05-18T10:06:00Z</time>
      </trkpt>
      <trkpt lat="41.8180090" lon="-8.8707040">
        <ele>6.2</ele>
        <time>2021-05-18T10:06:01Z</time>
      </trkpt>
      <trkpt lat="41.8180190" lon="-8.8707140">
        <ele>6.2</ele>
        <time>2021-05-18T10:06:02Z</time>
      </trkpt>
      <trkpt lat="41.8180250" lon="-8.8707210">
        <ele>6.2</ele>
        <time>2021-05-18T10:06:03Z</time>
      </trkpt>
      <trkpt lat="41.8180350" lon="-8.8707260">
        <ele>6.2</ele>
        <time>2021-05-18T10:06:04Z</time>
      </trkpt>
      <trkpt lat="41.8180390" lon="-8.8707340">
        <ele>6.2</ele>
        <time>2021-05-18T10:06:05Z</time>
      </trkpt>
      <trkpt lat="41.8180540" lon="-8.8707410">
        <ele>6.2</ele>
        <time>2021-05-18T10:06:06Z</time>
      </trkpt>
      <trkpt lat="41.8180590" lon="-8.8707510">
        <ele>6.2</ele>
        <time>2021-05-18T10:06:07Z</time>
      </trkpt>
      <trkpt lat="41.8180710" lon="-8.8707640">
        <ele>6.2</ele>
        <time>2021-05-18T10:06:08Z</time>
      </trkpt>
      <trkpt lat="41.8180800" lon="-8.8707720">
        <ele>6.2</ele>
        <time>2021-05-18T10:06:09Z</time>
      </trkpt>
      <trkpt lat="41.8180900" lon="-8.8707800">
        <ele>6.2</ele>
        <time>2021-05-18T10:06:10Z</time>
      </trkpt>
      <trkpt lat="41.8181040" lon="-8.8707940">
        <ele>6.2</ele>
        <time>2021-05-18T10:06:11Z</time>
      </trkpt>
      <trkpt lat="41.8181200" lon="-8.8708130">
        <ele>6.2</ele>
        <time>2021-05-18T10:06:12Z</time>
      </trkpt>
      <trkpt lat="41.8181270" lon="-8.8708220">
        <ele>6.3</ele>
        <time>2021-05-18T10:06:13Z</time>
      </trkpt>
      <trkpt lat="41.8181340" lon="-8.8708300">
        <ele>6.3</ele>
        <time>2021-05-18T10:06:14Z</time>
      </trkpt>
      <trkpt lat="41.8181470" lon="-8.8708380">
        <ele>6.3</ele>
        <time>2021-05-18T10:06:15Z</time>
      </trkpt>
      <trkpt lat="41.8181610" lon="-8.8708470">
        <ele>6.3</ele>
        <time>2021-05-18T10:06:16Z</time>
      </trkpt>
      <trkpt lat="41.8181760" lon="-8.8708570">
        <ele>6.3</ele>
        <time>2021-05-18T10:06:17Z</time>
      </trkpt>
      <trkpt lat="41.8181880" lon="-8.8708670">
        <ele>6.3</ele>
        <time>2021-05-18T10:06:18Z</time>
      </trkpt>
      <trkpt lat="41.8182070" lon="-8.8708820">
        <ele>6.3</ele>
        <time>2021-05-18T10:06:19Z</time>
      </trkpt>
      <trkpt lat="41.8182130" lon="-8.8708900">
        <ele>6.3</ele>
        <time>2021-05-18T10:06:20Z</time>
      </trkpt>
      <trkpt lat="41.8182200" lon="-8.8708980">
        <ele>6.3</ele>
        <time>2021-05-18T10:06:21Z</time>
      </trkpt>
      <trkpt lat="41.8182320" lon="-8.8709110">
        <ele>6.3</ele>
        <time>2021-05-18T10:06:22Z</time>
      </trkpt>
      <trkpt lat="41.8182420" lon="-8.8709230">
        <ele>6.3</ele>
        <time>2021-05-18T10:06:23Z</time>
      </trkpt>
      <trkpt lat="41.8182520" lon="-8.8709380">
        <ele>6.3</ele>
        <time>2021-05-18T10:06:24Z</time>
      </trkpt>
      <trkpt lat="41.8182610" lon="-8.8709520">
        <ele>6.3</ele>
        <time>2021-05-18T10:06:25Z</time>
      </trkpt>
      <trkpt lat="41.8182730" lon="-8.8709600">
        <ele>6.3</ele>
        <time>2021-05-18T10:06:26Z</time>
      </trkpt>
      <trkpt lat="41.8182840" lon="-8.8709710">
        <ele>6.4</ele>
        <time>2021-05-18T10:06:27Z</time>
      </trkpt>
      <trkpt lat="41.8182990" lon="-8.8709790">
        <ele>6.4</ele>
        <time>2021-05-18T10:06:28Z</time>
      </trkpt>
      <trkpt lat="41.8183080" lon="-8.8709900">
        <ele>6.4</ele>
        <time>2021-05-18T10:06:29Z</time>
      </trkpt>
      <trkpt lat="41.8183200" lon="-8.8710050">
        <ele>6.4</ele>
        <time>2021-05-18T10:06:30Z</time>
      </trkpt>
      <trkpt lat="41.8183330" lon="-8.8710160">
        <ele>6.4</ele>
        <time>2021-05-18T10:06:31Z</time>
      </trkpt>
      <trkpt lat="41.8183450" lon="-8.8710270">
        <ele>6.4</ele>
        <time>2021-05-18T10:06:32Z</time>
      </trkpt>
      <trkpt lat="41.8183580" lon="-8.8710390">
        <ele>6.4</ele>
        <time>2021-05-18T10:06:33Z</time>
      </trkpt>
      <trkpt lat="41.8183670" lon="-8.8710540">
        <ele>6.4</ele>
        <time>2021-05-18T10:06:34Z</time>
      </trkpt>
      <trkpt lat="41.8183780" lon="-8.8710630">
        <ele>6.4</ele>
        <time>2021-05-18T10:06:35Z</time>
      </trkpt>
      <trkpt lat="41.8183900" lon="-8.8710740">
        <ele>6.4</ele>
        <time>2021-05-18T10:06:36Z</time>
      </trkpt>
      <trkpt lat="41.8184040" lon="-8.8710830">
        <ele>6.4</ele>
        <time>2021-05-18T10:06:37Z</time>
      </trkpt>
      <trkpt lat="41.8184160" lon="-8.8710940">
        <ele>6.5</ele>
        <time>2021-05-18T10:06:38Z</time>
      </trkpt>
      <trkpt lat="41.8184420" lon="-8.8711090">
        <ele>6.5</ele>
        <time>2021-05-18T10:06:39Z</time>
      </trkpt>
      <trkpt lat="41.8184560" lon="-8.8711250">
        <ele>6.5</ele>
        <time>2021-05-18T10:06:40Z</time>
      </trkpt>
      <trkpt lat="41.8184610" lon="-8.8711300">
        <ele>6.5</ele>
        <time>2021-05-18T10:06:41Z</time>
      </trkpt>
      <trkpt lat="41.8184730" lon="-8.8711480">
        <ele>6.5</ele>
        <time>2021-05-18T10:06:42Z</time>
      </trkpt>
      <trkpt lat="41.8184840" lon="-8.8711620">
        <ele>6.5</ele>
        <time>2021-05-18T10:06:43Z</time>
      </trkpt>
      <trkpt lat="41.8185040" lon="-8.8711760">
        <ele>6.5</ele>
        <time>2021-05-18T10:06:44Z</time>
      </trkpt>
      <trkpt lat="41.8185110" lon="-8.8711840">
        <ele>6.5</ele>
        <time>2021-05-18T10:06:45Z</time>
      </trkpt>
      <trkpt lat="41.8185180" lon="-8.8711930">
        <ele>6.5</ele>
        <time>2021-05-18T10:06:46Z</time>
      </trkpt>
      <trkpt lat="41.8185280" lon="-8.8712040">
        <ele>6.5</ele>
        <time>2021-05-18T10:06:47Z</time>
      </trkpt>
      <trkpt lat="41.8185390" lon="-8.8712180">
        <ele>6.5</ele>
        <time>2021-05-18T10:06:48Z</time>
      </trkpt>
      <trkpt lat="41.8185490" lon="-8.8712300">
        <ele>6.5</ele>
        <time>2021-05-18T10:06:49Z</time>
      </trkpt>
      <trkpt lat="41.8185590" lon="-8.8712440">
        <ele>6.6</ele>
        <time>2021-05-18T10:06:50Z</time>
      </trkpt>
      <trkpt lat="41.8185780" lon="-8.8712590">
        <ele>6.6</ele>
        <time>2021-05-18T10:06:51Z</time>
      </trkpt>
      <trkpt lat="41.8185860" lon="-8.8712640">
        <ele>6.6</ele>
        <time>2021-05-18T10:06:52Z</time>
      </trkpt>
      <trkpt lat="41.8185950" lon="-8.8712700">
        <ele>6.6</ele>
        <time>2021-05-18T10:06:53Z</time>
      </trkpt>
      <trkpt lat="41.8186070" lon="-8.8712810">
        <ele>6.6</ele>
        <time>2021-05-18T10:06:54Z</time>
      </trkpt>
      <trkpt lat="41.8186190" lon="-8.8712920">
        <ele>6.6</ele>
        <time>2021-05-18T10:06:55Z</time>
      </trkpt>
      <trkpt lat="41.8186340" lon="-8.8712980">
        <ele>6.6</ele>
        <time>2021-05-18T10:06:56Z</time>
      </trkpt>
      <trkpt lat="41.8186470" lon="-8.8713090">
        <ele>6.6</ele>
        <time>2021-05-18T10:06:57Z</time>
      </trkpt>
      <trkpt lat="41.8186580" lon="-8.8713220">
        <ele>6.6</ele>
        <time>2021-05-18T10:06:58Z</time>
      </trkpt>
      <trkpt lat="41.8186710" lon="-8.8713300">
        <ele>6.6</ele>
        <time>2021-05-18T10:06:59Z</time>
      </trkpt>
      <trkpt lat="41.8186810" lon="-8.8713400">
        <ele>6.6</ele>
        <time>2021-05-18T10:07:00Z</time>
      </trkpt>
      <trkpt lat="41.8186950" lon="-8.8713490">
        <ele>6.7</ele>
        <time>2021-05-18T10:07:01Z</time>
      </trkpt>
      <trkpt lat="41.8187070" lon="-8.8713580">
        <ele>6.7</ele>
        <time>2021-05-18T10:07:02Z</time>
      </trkpt>
      <trkpt lat="41.8187200" lon="-8.8713670">
        <ele>6.7</ele>
        <time>2021-05-18T10:07:03Z</time>
      </trkpt>
      <trkpt lat="41.8187340" lon="-8.8713730">
        <ele>6.7</ele>
        <time>2021-05-18T10:07:04Z</time>
      </trkpt>
      <trkpt lat="41.8187460" lon="-8.8713770">
        <ele>6.7</ele>
        <time>2021-05-18T10:07:05Z</time>
      </trkpt>
      <trkpt lat="41.8187580" lon="-8.8713870">
        <ele>6.7</ele>
        <time>2021-05-18T10:07:06Z</time>
      </trkpt>
      <trkpt lat="41.8187690" lon="-8.8713970">
        <ele>6.7</ele>
        <time>2021-05-18T10:07:07Z</time>
      </trkpt>
      <trkpt lat="41.8187860" lon="-8.8714140">
        <ele>6.7</ele>
        <time>2021-05-18T10:07:08Z</time>
      </trkpt>
      <trkpt lat="41.8187930" lon="-8.8714220">
        <ele>6.7</ele>
        <time>2021-05-18T10:07:09Z</time>
      </trkpt>
      <trkpt lat="41.8188000" lon="-8.8714300">
        <ele>6.7</ele>
        <time>2021-05-18T10:07:10Z</time>
      </trkpt>
      <trkpt lat="41.8188060" lon="-8.8714410">
        <ele>6.8</ele>
        <time>2021-05-18T10:07:11Z</time>
      </trkpt>
      <trkpt lat="41.8188180" lon="-8.8714490">
        <ele>6.8</ele>
        <time>2021-05-18T10:07:12Z</time>
      </trkpt>
      <trkpt lat="41.8188260" lon="-8.8714590">
        <ele>6.8</ele>
        <time>2021-05-18T10:07:13Z</time>
      </trkpt>
      <trkpt lat="41.8188360" lon="-8.8714660">
        <ele>6.8</ele>
        <time>2021-05-18T10:07:14Z</time>
      </trkpt>
      <trkpt lat="41.8188460" lon="-8.8714730">
        <ele>6.8</ele>
        <time>2021-05-18T10:07:15Z</time>
      </trkpt>
      <trkpt lat="41.8188560" lon="-8.8714840">
        <ele>6.8</ele>
        <time>2021-05-18T10:07:16Z</time>
      </trkpt>
      <trkpt lat="41.8188650" lon="-8.8714930">
        <ele>6.8</ele>
        <time>2021-05-18T10:07:17Z</time>
      </trkpt>
      <trkpt lat="41.8188710" lon="-8.8714980">
        <ele>6.8</ele>
        <time>2021-05-18T10:07:18Z</time>
      </trkpt>
      <trkpt lat="41.8188800" lon="-8.8715080">
        <ele>6.8</ele>
        <time>2021-05-18T10:07:19Z</time>
      </trkpt>
      <trkpt lat="41.8188900" lon="-8.8715190">
        <ele>6.8</ele>
        <time>2021-05-18T10:07:20Z</time>
      </trkpt>
      <trkpt lat="41.8188990" lon="-8.8715280">
        <ele>6.8</ele>
        <time>2021-05-18T10:07:21Z</time>
      </trkpt>
      <trkpt lat="41.8189060" lon="-8.8715380">
        <ele>6.8</ele>
        <time>2021-05-18T10:07:22Z</time>
      </trkpt>
      <trkpt lat="41.8189140" lon="-8.8715460">
        <ele>6.8</ele>
        <time>2021-05-18T10:07:23Z</time>
      </trkpt>
      <trkpt lat="41.8189250" lon="-8.8715540">
        <ele>6.9</ele>
        <time>2021-05-18T10:07:24Z</time>
      </trkpt>
      <trkpt lat="41.8189340" lon="-8.8715570">
        <ele>6.9</ele>
        <time>2021-05-18T10:07:25Z</time>
      </trkpt>
      <trkpt lat="41.8189450" lon="-8.8715710">
        <ele>6.9</ele>
        <time>2021-05-18T10:07:26Z</time>
      </trkpt>
      <trkpt lat="41.8189540" lon="-8.8715840">
        <ele>6.9</ele>
        <time>2021-05-18T10:07:27Z</time>
      </trkpt>
      <trkpt lat="41.8189730" lon="-8.8715960">
        <ele>6.9</ele>
        <time>2021-05-18T10:07:28Z</time>
      </trkpt>
      <trkpt lat="41.8189800" lon="-8.8716020">
        <ele>6.9</ele>
        <time>2021-05-18T10:07:29Z</time>
      </trkpt>
      <trkpt lat="41.8189880" lon="-8.8716080">
        <ele>6.9</ele>
        <time>2021-05-18T10:07:30Z</time>
      </trkpt>
      <trkpt lat="41.8189970" lon="-8.8716170">
        <ele>6.9</ele>
        <time>2021-05-18T10:07:31Z</time>
      </trkpt>
      <trkpt lat="41.8190050" lon="-8.8716300">
        <ele>6.9</ele>
        <time>2021-05-18T10:07:32Z</time>
      </trkpt>
      <trkpt lat="41.8190170" lon="-8.8716380">
        <ele>6.9</ele>
        <time>2021-05-18T10:07:33Z</time>
      </trkpt>
      <trkpt lat="41.8190340" lon="-8.8716530">
        <ele>6.9</ele>
        <time>2021-05-18T10:07:34Z</time>
      </trkpt>
      <trkpt lat="41.8190420" lon="-8.8716600">
        <ele>6.9</ele>
        <time>2021-05-18T10:07:35Z</time>
      </trkpt>
      <trkpt lat="41.8190490" lon="-8.8716670">
        <ele>6.9</ele>
        <time>2021-05-18T10:07:36Z</time>
      </trkpt>
      <trkpt lat="41.8190620" lon="-8.8716770">
        <ele>6.9</ele>
        <time>2021-05-18T10:07:37Z</time>
      </trkpt>
      <trkpt lat="41.8190750" lon="-8.8716850">
        <ele>6.9</ele>
        <time>2021-05-18T10:07:38Z</time>
      </trkpt>
      <trkpt lat="41.8190790" lon="-8.8716940">
        <ele>6.9</ele>
        <time>2021-05-18T10:07:39Z</time>
      </trkpt>
      <trkpt lat="41.8190880" lon="-8.8717040">
        <ele>6.9</ele>
        <time>2021-05-18T10:07:40Z</time>
      </trkpt>
      <trkpt lat="41.8190980" lon="-8.8717140">
        <ele>6.9</ele>
        <time>2021-05-18T10:07:41Z</time>
      </trkpt>
      <trkpt lat="41.8191090" lon="-8.8717220">
        <ele>6.9</ele>
        <time>2021-05-18T10:07:42Z</time>
      </trkpt>
      <trkpt lat="41.8191220" lon="-8.8717370">
        <ele>6.9</ele>
        <time>2021-05-18T10:07:43Z</time>
      </trkpt>
      <trkpt lat="41.8191330" lon="-8.8717460">
        <ele>6.9</ele>
        <time>2021-05-18T10:07:44Z</time>
      </trkpt>
      <trkpt lat="41.8191450" lon="-8.8717590">
        <ele>7.0</ele>
        <time>2021-05-18T10:07:45Z</time>
      </trkpt>
      <trkpt lat="41.8191620" lon="-8.8717770">
        <ele>7.0</ele>
        <time>2021-05-18T10:07:46Z</time>
      </trkpt>
      <trkpt lat="41.8191700" lon="-8.8717860">
        <ele>7.0</ele>
        <time>2021-05-18T10:07:47Z</time>
      </trkpt>
      <trkpt lat="41.8191780" lon="-8.8717940">
        <ele>7.0</ele>
        <time>2021-05-18T10:07:48Z</time>
      </trkpt>
      <trkpt lat="41.8191970" lon="-8.8718080">
        <ele>7.0</ele>
        <time>2021-05-18T10:07:49Z</time>
      </trkpt>
      <trkpt lat="41.8192050" lon="-8.8718150">
        <ele>7.0</ele>
        <time>2021-05-18T10:07:50Z</time>
      </trkpt>
      <trkpt lat="41.8192120" lon="-8.8718230">
        <ele>7.0</ele>
        <time>2021-05-18T10:07:51Z</time>
      </trkpt>
      <trkpt lat="41.8192290" lon="-8.8718430">
        <ele>7.0</ele>
        <time>2021-05-18T10:07:52Z</time>
      </trkpt>
      <trkpt lat="41.8192340" lon="-8.8718510">
        <ele>7.0</ele>
        <time>2021-05-18T10:07:53Z</time>
      </trkpt>
      <trkpt lat="41.8192390" lon="-8.8718590">
        <ele>7.0</ele>
        <time>2021-05-18T10:07:54Z</time>
      </trkpt>
      <trkpt lat="41.8192530" lon="-8.8718720">
        <ele>7.0</ele>
        <time>2021-05-18T10:07:55Z</time>
      </trkpt>
      <trkpt lat="41.8192630" lon="-8.8718790">
        <ele>7.0</ele>
        <time>2021-05-18T10:07:56Z</time>
      </trkpt>
      <trkpt lat="41.8192800" lon="-8.8718960">
        <ele>7.1</ele>
        <time>2021-05-18T10:07:57Z</time>
      </trkpt>
      <trkpt lat="41.8192880" lon="-8.8719010">
        <ele>7.1</ele>
        <time>2021-05-18T10:07:58Z</time>
      </trkpt>
      <trkpt lat="41.8192970" lon="-8.8719060">
        <ele>7.1</ele>
        <time>2021-05-18T10:07:59Z</time>
      </trkpt>
      <trkpt lat="41.8193140" lon="-8.8719230">
        <ele>7.1</ele>
        <time>2021-05-18T10:08:00Z</time>
      </trkpt>
      <trkpt lat="41.8193230" lon="-8.8719320">
        <ele>7.1</ele>
        <time>2021-05-18T10:08:01Z</time>
      </trkpt>
      <trkpt lat="41.8193320" lon="-8.8719400">
        <ele>7.1</ele>
        <time>2021-05-18T10:08:02Z</time>
      </trkpt>
      <trkpt lat="41.8193430" lon="-8.8719520">
        <ele>7.1</ele>
        <time>2021-05-18T10:08:03Z</time>
      </trkpt>
      <trkpt lat="41.8193550" lon="-8.8719640">
        <ele>7.1</ele>
        <time>2021-05-18T10:08:04Z</time>
      </trkpt>
      <trkpt lat="41.8193590" lon="-8.8719700">
        <ele>7.1</ele>
        <time>2021-05-18T10:08:05Z</time>
      </trkpt>
      <trkpt lat="41.8193680" lon="-8.8719800">
        <ele>7.1</ele>
        <time>2021-05-18T10:08:06Z</time>
      </trkpt>
      <trkpt lat="41.8193790" lon="-8.8719910">
        <ele>7.1</ele>
        <time>2021-05-18T10:08:07Z</time>
      </trkpt>
      <trkpt lat="41.8193960" lon="-8.8720040">
        <ele>7.2</ele>
        <time>2021-05-18T10:08:08Z</time>
      </trkpt>
      <trkpt lat="41.8194040" lon="-8.8720090">
        <ele>7.2</ele>
        <time>2021-05-18T10:08:09Z</time>
      </trkpt>
      <trkpt lat="41.8194120" lon="-8.8720150">
        <ele>7.2</ele>
        <time>2021-05-18T10:08:10Z</time>
      </trkpt>
      <trkpt lat="41.8194230" lon="-8.8720270">
        <ele>7.2</ele>
        <time>2021-05-18T10:08:11Z</time>
      </trkpt>
      <trkpt lat="41.8194350" lon="-8.8720360">
        <ele>7.2</ele>
        <time>2021-05-18T10:08:12Z</time>
      </trkpt>
      <trkpt lat="41.8194540" lon="-8.8720520">
        <ele>7.2</ele>
        <time>2021-05-18T10:08:13Z</time>
      </trkpt>
      <trkpt lat="41.8194610" lon="-8.8720590">
        <ele>7.2</ele>
        <time>2021-05-18T10:08:14Z</time>
      </trkpt>
      <trkpt lat="41.8194670" lon="-8.8720650">
        <ele>7.2</ele>
        <time>2021-05-18T10:08:15Z</time>
      </trkpt>
      <trkpt lat="41.8194820" lon="-8.8720790">
        <ele>7.2</ele>
        <time>2021-05-18T10:08:16Z</time>
      </trkpt>
      <trkpt lat="41.8194900" lon="-8.8720850">
        <ele>7.2</ele>
        <time>2021-05-18T10:08:17Z</time>
      </trkpt>
      <trkpt lat="41.8194970" lon="-8.8720920">
        <ele>7.2</ele>
        <time>2021-05-18T10:08:18Z</time>
      </trkpt>
      <trkpt lat="41.8195120" lon="-8.8721000">
        <ele>7.2</ele>
        <time>2021-05-18T10:08:19Z</time>
      </trkpt>
      <trkpt lat="41.8195250" lon="-8.8721080">
        <ele>7.2</ele>
        <time>2021-05-18T10:08:20Z</time>
      </trkpt>
      <trkpt lat="41.8195320" lon="-8.8721190">
        <ele>7.2</ele>
        <time>2021-05-18T10:08:21Z</time>
      </trkpt>
      <trkpt lat="41.8195400" lon="-8.8721290">
        <ele>7.2</ele>
        <time>2021-05-18T10:08:22Z</time>
      </trkpt>
      <trkpt lat="41.8195500" lon="-8.8721420">
        <ele>7.2</ele>
        <time>2021-05-18T10:08:23Z</time>
      </trkpt>
      <trkpt lat="41.8195690" lon="-8.8721530">
        <ele>7.2</ele>
        <time>2021-05-18T10:08:24Z</time>
      </trkpt>
      <trkpt lat="41.8195800" lon="-8.8721620">
        <ele>7.2</ele>
        <time>2021-05-18T10:08:25Z</time>
      </trkpt>
      <trkpt lat="41.8195910" lon="-8.8721700">
        <ele>7.2</ele>
        <time>2021-05-18T10:08:26Z</time>
      </trkpt>
      <trkpt lat="41.8196030" lon="-8.8721820">
        <ele>7.2</ele>
        <time>2021-05-18T10:08:27Z</time>
      </trkpt>
      <trkpt lat="41.8196160" lon="-8.8721940">
        <ele>7.2</ele>
        <time>2021-05-18T10:08:28Z</time>
      </trkpt>
      <trkpt lat="41.8196270" lon="-8.8722110">
        <ele>7.2</ele>
        <time>2021-05-18T10:08:29Z</time>
      </trkpt>
      <trkpt lat="41.8196400" lon="-8.8722230">
        <ele>7.2</ele>
        <time>2021-05-18T10:08:30Z</time>
      </trkpt>
      <trkpt lat="41.8196520" lon="-8.8722360">
        <ele>7.3</ele>
        <time>2021-05-18T10:08:31Z</time>
      </trkpt>
      <trkpt lat="41.8196620" lon="-8.8722490">
        <ele>7.3</ele>
        <time>2021-05-18T10:08:32Z</time>
      </trkpt>
      <trkpt lat="41.8196750" lon="-8.8722610">
        <ele>7.3</ele>
        <time>2021-05-18T10:08:33Z</time>
      </trkpt>
      <trkpt lat="41.8196860" lon="-8.8722730">
        <ele>7.3</ele>
        <time>2021-05-18T10:08:34Z</time>
      </trkpt>
      <trkpt lat="41.8197010" lon="-8.8722820">
        <ele>7.3</ele>
        <time>2021-05-18T10:08:35Z</time>
      </trkpt>
      <trkpt lat="41.8197120" lon="-8.8722960">
        <ele>7.3</ele>
        <time>2021-05-18T10:08:36Z</time>
      </trkpt>
      <trkpt lat="41.8197240" lon="-8.8723050">
        <ele>7.3</ele>
        <time>2021-05-18T10:08:37Z</time>
      </trkpt>
      <trkpt lat="41.8197360" lon="-8.8723150">
        <ele>7.3</ele>
        <time>2021-05-18T10:08:38Z</time>
      </trkpt>
      <trkpt lat="41.8197470" lon="-8.8723270">
        <ele>7.3</ele>
        <time>2021-05-18T10:08:39Z</time>
      </trkpt>
      <trkpt lat="41.8197580" lon="-8.8723410">
        <ele>7.3</ele>
        <time>2021-05-18T10:08:40Z</time>
      </trkpt>
      <trkpt lat="41.8197680" lon="-8.8723560">
        <ele>7.3</ele>
        <time>2021-05-18T10:08:41Z</time>
      </trkpt>
      <trkpt lat="41.8197810" lon="-8.8723640">
        <ele>7.3</ele>
        <time>2021-05-18T10:08:42Z</time>
      </trkpt>
      <trkpt lat="41.8197940" lon="-8.8723740">
        <ele>7.3</ele>
        <time>2021-05-18T10:08:43Z</time>
      </trkpt>
      <trkpt lat="41.8198010" lon="-8.8723910">
        <ele>7.3</ele>
        <time>2021-05-18T10:08:44Z</time>
      </trkpt>
      <trkpt lat="41.8198200" lon="-8.8724070">
        <ele>7.3</ele>
        <time>2021-05-18T10:08:45Z</time>
      </trkpt>
      <trkpt lat="41.8198270" lon="-8.8724150">
        <ele>7.3</ele>
        <time>2021-05-18T10:08:46Z</time>
      </trkpt>
      <trkpt lat="41.8198350" lon="-8.8724220">
        <ele>7.3</ele>
        <time>2021-05-18T10:08:47Z</time>
      </trkpt>
      <trkpt lat="41.8198470" lon="-8.8724350">
        <ele>7.4</ele>
        <time>2021-05-18T10:08:48Z</time>
      </trkpt>
      <trkpt lat="41.8198570" lon="-8.8724450">
        <ele>7.4</ele>
        <time>2021-05-18T10:08:49Z</time>
      </trkpt>
      <trkpt lat="41.8198740" lon="-8.8724640">
        <ele>7.4</ele>
        <time>2021-05-18T10:08:50Z</time>
      </trkpt>
      <trkpt lat="41.8198820" lon="-8.8724710">
        <ele>7.4</ele>
        <time>2021-05-18T10:08:51Z</time>
      </trkpt>
      <trkpt lat="41.8198910" lon="-8.8724770">
        <ele>7.4</ele>
        <time>2021-05-18T10:08:52Z</time>
      </trkpt>
      <trkpt lat="41.8199010" lon="-8.8724900">
        <ele>7.4</ele>
        <time>2021-05-18T10:08:53Z</time>
      </trkpt>
      <trkpt lat="41.8199110" lon="-8.8725030">
        <ele>7.4</ele>
        <time>2021-05-18T10:08:54Z</time>
      </trkpt>
      <trkpt lat="41.8199210" lon="-8.8725090">
        <ele>7.4</ele>
        <time>2021-05-18T10:08:55Z</time>
      </trkpt>
      <trkpt lat="41.8199320" lon="-8.8725170">
        <ele>7.4</ele>
        <time>2021-05-18T10:08:56Z</time>
      </trkpt>
      <trkpt lat="41.8199420" lon="-8.8725220">
        <ele>7.4</ele>
        <time>2021-05-18T10:08:57Z</time>
      </trkpt>
      <trkpt lat="41.8199560" lon="-8.8725300">
        <ele>7.4</ele>
        <time>2021-05-18T10:08:58Z</time>
      </trkpt>
      <trkpt lat="41.8199630" lon="-8.8725370">
        <ele>7.4</ele>
        <time>2021-05-18T10:08:59Z</time>
      </trkpt>
      <trkpt lat="41.8199730" lon="-8.8725410">
        <ele>7.4</ele>
        <time>2021-05-18T10:09:00Z</time>
      </trkpt>
      <trkpt lat="41.8199770" lon="-8.8725460">
        <ele>7.4</ele>
        <time>2021-05-18T10:09:01Z</time>
      </trkpt>
      <trkpt lat="41.8199920" lon="-8.8725560">
        <ele>7.4</ele>
        <time>2021-05-18T10:09:02Z</time>
      </trkpt>
      <trkpt lat="41.8200000" lon="-8.8725620">
        <ele>7.4</ele>
        <time>2021-05-18T10:09:03Z</time>
      </trkpt>
      <trkpt lat="41.8200180" lon="-8.8725720">
        <ele>7.4</ele>
        <time>2021-05-18T10:09:04Z</time>
      </trkpt>
      <trkpt lat="41.8200250" lon="-8.8725790">
        <ele>7.4</ele>
        <time>2021-05-18T10:09:05Z</time>
      </trkpt>
      <trkpt lat="41.8200330" lon="-8.8725860">
        <ele>7.4</ele>
        <time>2021-05-18T10:09:06Z</time>
      </trkpt>
      <trkpt lat="41.8200460" lon="-8.8725970">
        <ele>7.4</ele>
        <time>2021-05-18T10:09:07Z</time>
      </trkpt>
      <trkpt lat="41.8200600" lon="-8.8726070">
        <ele>7.4</ele>
        <time>2021-05-18T10:09:08Z</time>
      </trkpt>
      <trkpt lat="41.8200700" lon="-8.8726200">
        <ele>7.4</ele>
        <time>2021-05-18T10:09:09Z</time>
      </trkpt>
      <trkpt lat="41.8200830" lon="-8.8726270">
        <ele>7.4</ele>
        <time>2021-05-18T10:09:10Z</time>
      </trkpt>
      <trkpt lat="41.8200950" lon="-8.8726350">
        <ele>7.4</ele>
        <time>2021-05-18T10:09:11Z</time>
      </trkpt>
      <trkpt lat="41.8201100" lon="-8.8726420">
        <ele>7.4</ele>
        <time>2021-05-18T10:09:12Z</time>
      </trkpt>
      <trkpt lat="41.8201250" lon="-8.8726470">
        <ele>7.4</ele>
        <time>2021-05-18T10:09:13Z</time>
      </trkpt>
      <trkpt lat="41.8201410" lon="-8.8726480">
        <ele>7.5</ele>
        <time>2021-05-18T10:09:14Z</time>
      </trkpt>
      <trkpt lat="41.8201540" lon="-8.8726530">
        <ele>7.5</ele>
        <time>2021-05-18T10:09:15Z</time>
      </trkpt>
      <trkpt lat="41.8201710" lon="-8.8726600">
        <ele>7.5</ele>
        <time>2021-05-18T10:09:16Z</time>
      </trkpt>
      <trkpt lat="41.8201850" lon="-8.8726700">
        <ele>7.5</ele>
        <time>2021-05-18T10:09:17Z</time>
      </trkpt>
      <trkpt lat="41.8201990" lon="-8.8726780">
        <ele>7.5</ele>
        <time>2021-05-18T10:09:18Z</time>
      </trkpt>
      <trkpt lat="41.8202110" lon="-8.8726860">
        <ele>7.5</ele>
        <time>2021-05-18T10:09:19Z</time>
      </trkpt>
      <trkpt lat="41.8202250" lon="-8.8726900">
        <ele>7.5</ele>
        <time>2021-05-18T10:09:20Z</time>
      </trkpt>
      <trkpt lat="41.8202390" lon="-8.8726960">
        <ele>7.5</ele>
        <time>2021-05-18T10:09:21Z</time>
      </trkpt>
      <trkpt lat="41.8202510" lon="-8.8727020">
        <ele>7.5</ele>
        <time>2021-05-18T10:09:22Z</time>
      </trkpt>
      <trkpt lat="41.8202650" lon="-8.8727100">
        <ele>7.5</ele>
        <time>2021-05-18T10:09:23Z</time>
      </trkpt>
      <trkpt lat="41.8202810" lon="-8.8727130">
        <ele>7.5</ele>
        <time>2021-05-18T10:09:24Z</time>
      </trkpt>
      <trkpt lat="41.8202930" lon="-8.8727170">
        <ele>7.5</ele>
        <time>2021-05-18T10:09:25Z</time>
      </trkpt>
      <trkpt lat="41.8203070" lon="-8.8727220">
        <ele>7.5</ele>
        <time>2021-05-18T10:09:26Z</time>
      </trkpt>
      <trkpt lat="41.8203200" lon="-8.8727260">
        <ele>7.5</ele>
        <time>2021-05-18T10:09:27Z</time>
      </trkpt>
      <trkpt lat="41.8203340" lon="-8.8727260">
        <ele>7.5</ele>
        <time>2021-05-18T10:09:28Z</time>
      </trkpt>
      <trkpt lat="41.8203550" lon="-8.8727320">
        <ele>7.5</ele>
        <time>2021-05-18T10:09:29Z</time>
      </trkpt>
      <trkpt lat="41.8203630" lon="-8.8727330">
        <ele>7.5</ele>
        <time>2021-05-18T10:09:30Z</time>
      </trkpt>
      <trkpt lat="41.8203720" lon="-8.8727350">
        <ele>7.5</ele>
        <time>2021-05-18T10:09:31Z</time>
      </trkpt>
      <trkpt lat="41.8203860" lon="-8.8727410">
        <ele>7.6</ele>
        <time>2021-05-18T10:09:32Z</time>
      </trkpt>
      <trkpt lat="41.8203970" lon="-8.8727510">
        <ele>7.6</ele>
        <time>2021-05-18T10:09:33Z</time>
      </trkpt>
      <trkpt lat="41.8204180" lon="-8.8727590">
        <ele>7.6</ele>
        <time>2021-05-18T10:09:34Z</time>
      </trkpt>
      <trkpt lat="41.8204280" lon="-8.8727590">
        <ele>7.6</ele>
        <time>2021-05-18T10:09:35Z</time>
      </trkpt>
      <trkpt lat="41.8204370" lon="-8.8727600">
        <ele>7.6</ele>
        <time>2021-05-18T10:09:36Z</time>
      </trkpt>
      <trkpt lat="41.8204510" lon="-8.8727610">
        <ele>7.6</ele>
        <time>2021-05-18T10:09:37Z</time>
      </trkpt>
      <trkpt lat="41.8204660" lon="-8.8727590">
        <ele>7.6</ele>
        <time>2021-05-18T10:09:38Z</time>
      </trkpt>
      <trkpt lat="41.8204790" lon="-8.8727600">
        <ele>7.6</ele>
        <time>2021-05-18T10:09:39Z</time>
      </trkpt>
      <trkpt lat="41.8204940" lon="-8.8727590">
        <ele>7.6</ele>
        <time>2021-05-18T10:09:40Z</time>
      </trkpt>
      <trkpt lat="41.8205170" lon="-8.8727660">
        <ele>7.7</ele>
        <time>2021-05-18T10:09:41Z</time>
      </trkpt>
      <trkpt lat="41.8205260" lon="-8.8727670">
        <ele>7.7</ele>
        <time>2021-05-18T10:09:42Z</time>
      </trkpt>
      <trkpt lat="41.8205340" lon="-8.8727690">
        <ele>7.7</ele>
        <time>2021-05-18T10:09:43Z</time>
      </trkpt>
      <trkpt lat="41.8205500" lon="-8.8727700">
        <ele>7.7</ele>
        <time>2021-05-18T10:09:44Z</time>
      </trkpt>
      <trkpt lat="41.8205630" lon="-8.8727790">
        <ele>7.7</ele>
        <time>2021-05-18T10:09:45Z</time>
      </trkpt>
      <trkpt lat="41.8205770" lon="-8.8727820">
        <ele>7.7</ele>
        <time>2021-05-18T10:09:46Z</time>
      </trkpt>
      <trkpt lat="41.8205910" lon="-8.8727850">
        <ele>7.7</ele>
        <time>2021-05-18T10:09:47Z</time>
      </trkpt>
      <trkpt lat="41.8206050" lon="-8.8727890">
        <ele>7.8</ele>
        <time>2021-05-18T10:09:48Z</time>
      </trkpt>
      <trkpt lat="41.8206200" lon="-8.8727910">
        <ele>7.8</ele>
        <time>2021-05-18T10:09:49Z</time>
      </trkpt>
      <trkpt lat="41.8206340" lon="-8.8727920">
        <ele>7.8</ele>
        <time>2021-05-18T10:09:50Z</time>
      </trkpt>
      <trkpt lat="41.8206480" lon="-8.8727970">
        <ele>7.8</ele>
        <time>2021-05-18T10:09:51Z</time>
      </trkpt>
      <trkpt lat="41.8206610" lon="-8.8728000">
        <ele>7.8</ele>
        <time>2021-05-18T10:09:52Z</time>
      </trkpt>
      <trkpt lat="41.8206760" lon="-8.8727990">
        <ele>7.8</ele>
        <time>2021-05-18T10:09:53Z</time>
      </trkpt>
      <trkpt lat="41.8206980" lon="-8.8728040">
        <ele>7.9</ele>
        <time>2021-05-18T10:09:54Z</time>
      </trkpt>
      <trkpt lat="41.8207060" lon="-8.8728070">
        <ele>7.9</ele>
        <time>2021-05-18T10:09:55Z</time>
      </trkpt>
      <trkpt lat="41.8207150" lon="-8.8728090">
        <ele>7.9</ele>
        <time>2021-05-18T10:09:56Z</time>
      </trkpt>
      <trkpt lat="41.8207260" lon="-8.8728110">
        <ele>7.9</ele>
        <time>2021-05-18T10:09:57Z</time>
      </trkpt>
      <trkpt lat="41.8207380" lon="-8.8728150">
        <ele>7.9</ele>
        <time>2021-05-18T10:09:58Z</time>
      </trkpt>
      <trkpt lat="41.8207500" lon="-8.8728190">
        <ele>7.9</ele>
        <time>2021-05-18T10:09:59Z</time>
      </trkpt>
      <trkpt lat="41.8207700" lon="-8.8728220">
        <ele>7.9</ele>
        <time>2021-05-18T10:10:00Z</time>
      </trkpt>
      <trkpt lat="41.8207790" lon="-8.8728230">
        <ele>7.9</ele>
        <time>2021-05-18T10:10:01Z</time>
      </trkpt>
      <trkpt lat="41.8207870" lon="-8.8728240">
        <ele>8.0</ele>
        <time>2021-05-18T10:10:02Z</time>
      </trkpt>
      <trkpt lat="41.8208070" lon="-8.8728320">
        <ele>8.0</ele>
        <time>2021-05-18T10:10:03Z</time>
      </trkpt>
      <trkpt lat="41.8208160" lon="-8.8728330">
        <ele>8.0</ele>
        <time>2021-05-18T10:10:04Z</time>
      </trkpt>
      <trkpt lat="41.8208250" lon="-8.8728330">
        <ele>8.0</ele>
        <time>2021-05-18T10:10:05Z</time>
      </trkpt>
      <trkpt lat="41.8208380" lon="-8.8728280">
        <ele>8.0</ele>
        <time>2021-05-18T10:10:06Z</time>
      </trkpt>
      <trkpt lat="41.8208520" lon="-8.8728250">
        <ele>8.0</ele>
        <time>2021-05-18T10:10:07Z</time>
      </trkpt>
      <trkpt lat="41.8208670" lon="-8.8728250">
        <ele>8.0</ele>
        <time>2021-05-18T10:10:08Z</time>
      </trkpt>
      <trkpt lat="41.8208810" lon="-8.8728270">
        <ele>8.1</ele>
        <time>2021-05-18T10:10:09Z</time>
      </trkpt>
      <trkpt lat="41.8209010" lon="-8.8728320">
        <ele>8.1</ele>
        <time>2021-05-18T10:10:10Z</time>
      </trkpt>
      <trkpt lat="41.8209100" lon="-8.8728350">
        <ele>8.1</ele>
        <time>2021-05-18T10:10:11Z</time>
      </trkpt>
      <trkpt lat="41.8209180" lon="-8.8728370">
        <ele>8.1</ele>
        <time>2021-05-18T10:10:12Z</time>
      </trkpt>
      <trkpt lat="41.8209300" lon="-8.8728430">
        <ele>8.1</ele>
        <time>2021-05-18T10:10:13Z</time>
      </trkpt>
      <trkpt lat="41.8209440" lon="-8.8728450">
        <ele>8.1</ele>
        <time>2021-05-18T10:10:14Z</time>
      </trkpt>
      <trkpt lat="41.8209650" lon="-8.8728480">
        <ele>8.1</ele>
        <time>2021-05-18T10:10:15Z</time>
      </trkpt>
      <trkpt lat="41.8209740" lon="-8.8728480">
        <ele>8.2</ele>
        <time>2021-05-18T10:10:16Z</time>
      </trkpt>
      <trkpt lat="41.8209830" lon="-8.8728480">
        <ele>8.2</ele>
        <time>2021-05-18T10:10:17Z</time>
      </trkpt>
      <trkpt lat="41.8210040" lon="-8.8728530">
        <ele>8.2</ele>
        <time>2021-05-18T10:10:18Z</time>
      </trkpt>
      <trkpt lat="41.8210110" lon="-8.8728570">
        <ele>8.2</ele>
        <time>2021-05-18T10:10:19Z</time>
      </trkpt>
      <trkpt lat="41.8210190" lon="-8.8728600">
        <ele>8.2</ele>
        <time>2021-05-18T10:10:20Z</time>
      </trkpt>
      <trkpt lat="41.8210300" lon="-8.8728620">
        <ele>8.2</ele>
        <time>2021-05-18T10:10:21Z</time>
      </trkpt>
      <trkpt lat="41.8210380" lon="-8.8728630">
        <ele>8.2</ele>
        <time>2021-05-18T10:10:22Z</time>
      </trkpt>
      <trkpt lat="41.8210500" lon="-8.8728650">
        <ele>8.2</ele>
        <time>2021-05-18T10:10:23Z</time>
      </trkpt>
      <trkpt lat="41.8210560" lon="-8.8728660">
        <ele>8.2</ele>
        <time>2021-05-18T10:10:24Z</time>
      </trkpt>
      <trkpt lat="41.8210690" lon="-8.8728680">
        <ele>8.2</ele>
        <time>2021-05-18T10:10:25Z</time>
      </trkpt>
      <trkpt lat="41.8210760" lon="-8.8728710">
        <ele>8.2</ele>
        <time>2021-05-18T10:10:26Z</time>
      </trkpt>
      <trkpt lat="41.8210830" lon="-8.8728750">
        <ele>8.2</ele>
        <time>2021-05-18T10:10:27Z</time>
      </trkpt>
      <trkpt lat="41.8210930" lon="-8.8728780">
        <ele>8.2</ele>
        <time>2021-05-18T10:10:28Z</time>
      </trkpt>
      <trkpt lat="41.8211020" lon="-8.8728780">
        <ele>8.2</ele>
        <time>2021-05-18T10:10:29Z</time>
      </trkpt>
      <trkpt lat="41.8211060" lon="-8.8728800">
        <ele>8.2</ele>
        <time>2021-05-18T10:10:30Z</time>
      </trkpt>
      <trkpt lat="41.8211150" lon="-8.8728840">
        <ele>8.2</ele>
        <time>2021-05-18T10:10:31Z</time>
      </trkpt>
      <trkpt lat="41.8211320" lon="-8.8728830">
        <ele>8.2</ele>
        <time>2021-05-18T10:10:32Z</time>
      </trkpt>
      <trkpt lat="41.8211400" lon="-8.8728850">
        <ele>8.2</ele>
        <time>2021-05-18T10:10:33Z</time>
      </trkpt>
      <trkpt lat="41.8211500" lon="-8.8728880">
        <ele>8.2</ele>
        <time>2021-05-18T10:10:34Z</time>
      </trkpt>
      <trkpt lat="41.8211580" lon="-8.8728940">
        <ele>8.2</ele>
        <time>2021-05-18T10:10:35Z</time>
      </trkpt>
      <trkpt lat="41.8211680" lon="-8.8728970">
        <ele>8.2</ele>
        <time>2021-05-18T10:10:36Z</time>
      </trkpt>
      <trkpt lat="41.8211800" lon="-8.8729020">
        <ele>8.2</ele>
        <time>2021-05-18T10:10:37Z</time>
      </trkpt>
      <trkpt lat="41.8211880" lon="-8.8729020">
        <ele>8.3</ele>
        <time>2021-05-18T10:10:38Z</time>
      </trkpt>
      <trkpt lat="41.8212000" lon="-8.8729050">
        <ele>8.3</ele>
        <time>2021-05-18T10:10:39Z</time>
      </trkpt>
      <trkpt lat="41.8212130" lon="-8.8729050">
        <ele>8.3</ele>
        <time>2021-05-18T10:10:40Z</time>
      </trkpt>
      <trkpt lat="41.8212360" lon="-8.8729040">
        <ele>8.3</ele>
        <time>2021-05-18T10:10:41Z</time>
      </trkpt>
      <trkpt lat="41.8212430" lon="-8.8729020">
        <ele>8.3</ele>
        <time>2021-05-18T10:10:42Z</time>
      </trkpt>
      <trkpt lat="41.8212510" lon="-8.8729000">
        <ele>8.3</ele>
        <time>2021-05-18T10:10:43Z</time>
      </trkpt>
      <trkpt lat="41.8212650" lon="-8.8729010">
        <ele>8.3</ele>
        <time>2021-05-18T10:10:44Z</time>
      </trkpt>
      <trkpt lat="41.8212740" lon="-8.8729050">
        <ele>8.3</ele>
        <time>2021-05-18T10:10:45Z</time>
      </trkpt>
      <trkpt lat="41.8212810" lon="-8.8729060">
        <ele>8.3</ele>
        <time>2021-05-18T10:10:46Z</time>
      </trkpt>
      <trkpt lat="41.8212870" lon="-8.8729110">
        <ele>8.3</ele>
        <time>2021-05-18T10:10:47Z</time>
      </trkpt>
      <trkpt lat="41.8213010" lon="-8.8729170">
        <ele>8.3</ele>
        <time>2021-05-18T10:10:48Z</time>
      </trkpt>
      <trkpt lat="41.8213110" lon="-8.8729220">
        <ele>8.3</ele>
        <time>2021-05-18T10:10:49Z</time>
      </trkpt>
      <trkpt lat="41.8213270" lon="-8.8729270">
        <ele>8.4</ele>
        <time>2021-05-18T10:10:50Z</time>
      </trkpt>
      <trkpt lat="41.8213370" lon="-8.8729320">
        <ele>8.4</ele>
        <time>2021-05-18T10:10:51Z</time>
      </trkpt>
      <trkpt lat="41.8213590" lon="-8.8729360">
        <ele>8.4</ele>
        <time>2021-05-18T10:10:52Z</time>
      </trkpt>
      <trkpt lat="41.8213670" lon="-8.8729360">
        <ele>8.4</ele>
        <time>2021-05-18T10:10:53Z</time>
      </trkpt>
      <trkpt lat="41.8213740" lon="-8.8729370">
        <ele>8.4</ele>
        <time>2021-05-18T10:10:54Z</time>
      </trkpt>
      <trkpt lat="41.8213860" lon="-8.8729390">
        <ele>8.4</ele>
        <time>2021-05-18T10:10:55Z</time>
      </trkpt>
      <trkpt lat="41.8213960" lon="-8.8729420">
        <ele>8.4</ele>
        <time>2021-05-18T10:10:56Z</time>
      </trkpt>
      <trkpt lat="41.8214060" lon="-8.8729440">
        <ele>8.4</ele>
        <time>2021-05-18T10:10:57Z</time>
      </trkpt>
      <trkpt lat="41.8214250" lon="-8.8729480">
        <ele>8.4</ele>
        <time>2021-05-18T10:10:58Z</time>
      </trkpt>
      <trkpt lat="41.8214340" lon="-8.8729500">
        <ele>8.4</ele>
        <time>2021-05-18T10:10:59Z</time>
      </trkpt>
      <trkpt lat="41.8214440" lon="-8.8729520">
        <ele>8.4</ele>
        <time>2021-05-18T10:11:00Z</time>
      </trkpt>
      <trkpt lat="41.8214620" lon="-8.8729580">
        <ele>8.4</ele>
        <time>2021-05-18T10:11:01Z</time>
      </trkpt>
      <trkpt lat="41.8214710" lon="-8.8729590">
        <ele>8.4</ele>
        <time>2021-05-18T10:11:02Z</time>
      </trkpt>
      <trkpt lat="41.8214800" lon="-8.8729600">
        <ele>8.4</ele>
        <time>2021-05-18T10:11:03Z</time>
      </trkpt>
      <trkpt lat="41.8214960" lon="-8.8729620">
        <ele>8.4</ele>
        <time>2021-05-18T10:11:04Z</time>
      </trkpt>
      <trkpt lat="41.8215120" lon="-8.8729650">
        <ele>8.4</ele>
        <time>2021-05-18T10:11:05Z</time>
      </trkpt>
      <trkpt lat="41.8215270" lon="-8.8729650">
        <ele>8.4</ele>
        <time>2021-05-18T10:11:06Z</time>
      </trkpt>
      <trkpt lat="41.8215420" lon="-8.8729680">
        <ele>8.4</ele>
        <time>2021-05-18T10:11:07Z</time>
      </trkpt>
      <trkpt lat="41.8215590" lon="-8.8729690">
        <ele>8.4</ele>
        <time>2021-05-18T10:11:08Z</time>
      </trkpt>
      <trkpt lat="41.8215730" lon="-8.8729720">
        <ele>8.4</ele>
        <time>2021-05-18T10:11:09Z</time>
      </trkpt>
      <trkpt lat="41.8215860" lon="-8.8729720">
        <ele>8.4</ele>
        <time>2021-05-18T10:11:10Z</time>
      </trkpt>
      <trkpt lat="41.8216020" lon="-8.8729790">
        <ele>8.4</ele>
        <time>2021-05-18T10:11:11Z</time>
      </trkpt>
      <trkpt lat="41.8216150" lon="-8.8729840">
        <ele>8.4</ele>
        <time>2021-05-18T10:11:12Z</time>
      </trkpt>
      <trkpt lat="41.8216300" lon="-8.8729880">
        <ele>8.4</ele>
        <time>2021-05-18T10:11:13Z</time>
      </trkpt>
      <trkpt lat="41.8216440" lon="-8.8729960">
        <ele>8.4</ele>
        <time>2021-05-18T10:11:14Z</time>
      </trkpt>
      <trkpt lat="41.8216600" lon="-8.8730000">
        <ele>8.4</ele>
        <time>2021-05-18T10:11:15Z</time>
      </trkpt>
      <trkpt lat="41.8216760" lon="-8.8730000">
        <ele>8.4</ele>
        <time>2021-05-18T10:11:16Z</time>
      </trkpt>
      <trkpt lat="41.8216900" lon="-8.8730080">
        <ele>8.4</ele>
        <time>2021-05-18T10:11:17Z</time>
      </trkpt>
      <trkpt lat="41.8217050" lon="-8.8730150">
        <ele>8.4</ele>
        <time>2021-05-18T10:11:18Z</time>
      </trkpt>
      <trkpt lat="41.8217190" lon="-8.8730180">
        <ele>8.4</ele>
        <time>2021-05-18T10:11:19Z</time>
      </trkpt>
      <trkpt lat="41.8217320" lon="-8.8730260">
        <ele>8.4</ele>
        <time>2021-05-18T10:11:20Z</time>
      </trkpt>
      <trkpt lat="41.8217460" lon="-8.8730330">
        <ele>8.4</ele>
        <time>2021-05-18T10:11:21Z</time>
      </trkpt>
      <trkpt lat="41.8217600" lon="-8.8730410">
        <ele>8.4</ele>
        <time>2021-05-18T10:11:22Z</time>
      </trkpt>
      <trkpt lat="41.8217720" lon="-8.8730440">
        <ele>8.4</ele>
        <time>2021-05-18T10:11:23Z</time>
      </trkpt>
      <trkpt lat="41.8217860" lon="-8.8730510">
        <ele>8.4</ele>
        <time>2021-05-18T10:11:24Z</time>
      </trkpt>
      <trkpt lat="41.8218000" lon="-8.8730560">
        <ele>8.4</ele>
        <time>2021-05-18T10:11:25Z</time>
      </trkpt>
      <trkpt lat="41.8218150" lon="-8.8730580">
        <ele>8.4</ele>
        <time>2021-05-18T10:11:26Z</time>
      </trkpt>
      <trkpt lat="41.8218320" lon="-8.8730570">
        <ele>8.4</ele>
        <time>2021-05-18T10:11:27Z</time>
      </trkpt>
      <trkpt lat="41.8218430" lon="-8.8730690">
        <ele>8.4</ele>
        <time>2021-05-18T10:11:28Z</time>
      </trkpt>
      <trkpt lat="41.8218550" lon="-8.8730760">
        <ele>8.4</ele>
        <time>2021-05-18T10:11:29Z</time>
      </trkpt>
      <trkpt lat="41.8218690" lon="-8.8730790">
        <ele>8.4</ele>
        <time>2021-05-18T10:11:30Z</time>
      </trkpt>
      <trkpt lat="41.8218830" lon="-8.8730860">
        <ele>8.4</ele>
        <time>2021-05-18T10:11:31Z</time>
      </trkpt>
      <trkpt lat="41.8218940" lon="-8.8730980">
        <ele>8.4</ele>
        <time>2021-05-18T10:11:32Z</time>
      </trkpt>
      <trkpt lat="41.8219070" lon="-8.8731060">
        <ele>8.4</ele>
        <time>2021-05-18T10:11:33Z</time>
      </trkpt>
      <trkpt lat="41.8219220" lon="-8.8731100">
        <ele>8.4</ele>
        <time>2021-05-18T10:11:34Z</time>
      </trkpt>
      <trkpt lat="41.8219350" lon="-8.8731180">
        <ele>8.4</ele>
        <time>2021-05-18T10:11:35Z</time>
      </trkpt>
      <trkpt lat="41.8219490" lon="-8.8731230">
        <ele>8.4</ele>
        <time>2021-05-18T10:11:36Z</time>
      </trkpt>
      <trkpt lat="41.8219620" lon="-8.8731300">
        <ele>8.4</ele>
        <time>2021-05-18T10:11:37Z</time>
      </trkpt>
      <trkpt lat="41.8219840" lon="-8.8731370">
        <ele>8.4</ele>
        <time>2021-05-18T10:11:38Z</time>
      </trkpt>
      <trkpt lat="41.8219920" lon="-8.8731400">
        <ele>8.4</ele>
        <time>2021-05-18T10:11:39Z</time>
      </trkpt>
      <trkpt lat="41.8220010" lon="-8.8731440">
        <ele>8.3</ele>
        <time>2021-05-18T10:11:40Z</time>
      </trkpt>
      <trkpt lat="41.8220140" lon="-8.8731480">
        <ele>8.3</ele>
        <time>2021-05-18T10:11:41Z</time>
      </trkpt>
      <trkpt lat="41.8220290" lon="-8.8731560">
        <ele>8.3</ele>
        <time>2021-05-18T10:11:42Z</time>
      </trkpt>
      <trkpt lat="41.8220420" lon="-8.8731630">
        <ele>8.3</ele>
        <time>2021-05-18T10:11:43Z</time>
      </trkpt>
      <trkpt lat="41.8220550" lon="-8.8731680">
        <ele>8.3</ele>
        <time>2021-05-18T10:11:44Z</time>
      </trkpt>
      <trkpt lat="41.8220680" lon="-8.8731790">
        <ele>8.3</ele>
        <time>2021-05-18T10:11:45Z</time>
      </trkpt>
      <trkpt lat="41.8220800" lon="-8.8731860">
        <ele>8.3</ele>
        <time>2021-05-18T10:11:46Z</time>
      </trkpt>
      <trkpt lat="41.8221010" lon="-8.8731950">
        <ele>8.3</ele>
        <time>2021-05-18T10:11:47Z</time>
      </trkpt>
      <trkpt lat="41.8221080" lon="-8.8732020">
        <ele>8.3</ele>
        <time>2021-05-18T10:11:48Z</time>
      </trkpt>
      <trkpt lat="41.8221160" lon="-8.8732080">
        <ele>8.3</ele>
        <time>2021-05-18T10:11:49Z</time>
      </trkpt>
      <trkpt lat="41.8221290" lon="-8.8732110">
        <ele>8.3</ele>
        <time>2021-05-18T10:11:50Z</time>
      </trkpt>
      <trkpt lat="41.8221420" lon="-8.8732230">
        <ele>8.3</ele>
        <time>2021-05-18T10:11:51Z</time>
      </trkpt>
      <trkpt lat="41.8221550" lon="-8.8732260">
        <ele>8.3</ele>
        <time>2021-05-18T10:11:52Z</time>
      </trkpt>
      <trkpt lat="41.8221700" lon="-8.8732250">
        <ele>8.3</ele>
        <time>2021-05-18T10:11:53Z</time>
      </trkpt>
      <trkpt lat="41.8221870" lon="-8.8732190">
        <ele>8.3</ele>
        <time>2021-05-18T10:11:54Z</time>
      </trkpt>
      <trkpt lat="41.8222000" lon="-8.8732200">
        <ele>8.3</ele>
        <time>2021-05-18T10:11:55Z</time>
      </trkpt>
      <trkpt lat="41.8222180" lon="-8.8732360">
        <ele>8.3</ele>
        <time>2021-05-18T10:11:56Z</time>
      </trkpt>
      <trkpt lat="41.8222260" lon="-8.8732430">
        <ele>8.2</ele>
        <time>2021-05-18T10:11:57Z</time>
      </trkpt>
      <trkpt lat="41.8222330" lon="-8.8732500">
        <ele>8.2</ele>
        <time>2021-05-18T10:11:58Z</time>
      </trkpt>
      <trkpt lat="41.8222440" lon="-8.8732540">
        <ele>8.2</ele>
        <time>2021-05-18T10:11:59Z</time>
      </trkpt>
      <trkpt lat="41.8222540" lon="-8.8732600">
        <ele>8.2</ele>
        <time>2021-05-18T10:12:00Z</time>
      </trkpt>
      <trkpt lat="41.8222650" lon="-8.8732630">
        <ele>8.2</ele>
        <time>2021-05-18T10:12:01Z</time>
      </trkpt>
      <trkpt lat="41.8222760" lon="-8.8732670">
        <ele>8.2</ele>
        <time>2021-05-18T10:12:02Z</time>
      </trkpt>
      <trkpt lat="41.8222840" lon="-8.8732610">
        <ele>8.2</ele>
        <time>2021-05-18T10:12:03Z</time>
      </trkpt>
      <trkpt lat="41.8222970" lon="-8.8732660">
        <ele>8.2</ele>
        <time>2021-05-18T10:12:04Z</time>
      </trkpt>
      <trkpt lat="41.8223100" lon="-8.8732740">
        <ele>8.2</ele>
        <time>2021-05-18T10:12:05Z</time>
      </trkpt>
      <trkpt lat="41.8223210" lon="-8.8732770">
        <ele>8.2</ele>
        <time>2021-05-18T10:12:06Z</time>
      </trkpt>
      <trkpt lat="41.8223280" lon="-8.8732830">
        <ele>8.2</ele>
        <time>2021-05-18T10:12:07Z</time>
      </trkpt>
      <trkpt lat="41.8223370" lon="-8.8732890">
        <ele>8.2</ele>
        <time>2021-05-18T10:12:08Z</time>
      </trkpt>
      <trkpt lat="41.8223470" lon="-8.8732870">
        <ele>8.2</ele>
        <time>2021-05-18T10:12:09Z</time>
      </trkpt>
      <trkpt lat="41.8223570" lon="-8.8732990">
        <ele>8.2</ele>
        <time>2021-05-18T10:12:10Z</time>
      </trkpt>
      <trkpt lat="41.8223780" lon="-8.8733070">
        <ele>8.1</ele>
        <time>2021-05-18T10:12:11Z</time>
      </trkpt>
      <trkpt lat="41.8223860" lon="-8.8733120">
        <ele>8.1</ele>
        <time>2021-05-18T10:12:12Z</time>
      </trkpt>
      <trkpt lat="41.8223950" lon="-8.8733160">
        <ele>8.1</ele>
        <time>2021-05-18T10:12:13Z</time>
      </trkpt>
      <trkpt lat="41.8224070" lon="-8.8733210">
        <ele>8.1</ele>
        <time>2021-05-18T10:12:14Z</time>
      </trkpt>
      <trkpt lat="41.8224210" lon="-8.8733280">
        <ele>8.1</ele>
        <time>2021-05-18T10:12:15Z</time>
      </trkpt>
      <trkpt lat="41.8224360" lon="-8.8733340">
        <ele>8.1</ele>
        <time>2021-05-18T10:12:16Z</time>
      </trkpt>
      <trkpt lat="41.8224490" lon="-8.8733390">
        <ele>8.1</ele>
        <time>2021-05-18T10:12:17Z</time>
      </trkpt>
      <trkpt lat="41.8224610" lon="-8.8733530">
        <ele>8.1</ele>
        <time>2021-05-18T10:12:18Z</time>
      </trkpt>
      <trkpt lat="41.8224740" lon="-8.8733640">
        <ele>8.1</ele>
        <time>2021-05-18T10:12:19Z</time>
      </trkpt>
      <trkpt lat="41.8224870" lon="-8.8733710">
        <ele>8.1</ele>
        <time>2021-05-18T10:12:20Z</time>
      </trkpt>
      <trkpt lat="41.8225020" lon="-8.8733730">
        <ele>8.1</ele>
        <time>2021-05-18T10:12:21Z</time>
      </trkpt>
      <trkpt lat="41.8225230" lon="-8.8733830">
        <ele>8.1</ele>
        <time>2021-05-18T10:12:22Z</time>
      </trkpt>
      <trkpt lat="41.8225330" lon="-8.8733840">
        <ele>8.1</ele>
        <time>2021-05-18T10:12:23Z</time>
      </trkpt>
      <trkpt lat="41.8225420" lon="-8.8733860">
        <ele>8.1</ele>
        <time>2021-05-18T10:12:24Z</time>
      </trkpt>
      <trkpt lat="41.8225570" lon="-8.8733910">
        <ele>8.0</ele>
        <time>2021-05-18T10:12:25Z</time>
      </trkpt>
      <trkpt lat="41.8225690" lon="-8.8734000">
        <ele>8.0</ele>
        <time>2021-05-18T10:12:26Z</time>
      </trkpt>
      <trkpt lat="41.8225820" lon="-8.8734100">
        <ele>8.0</ele>
        <time>2021-05-18T10:12:27Z</time>
      </trkpt>
      <trkpt lat="41.8225960" lon="-8.8734140">
        <ele>8.0</ele>
        <time>2021-05-18T10:12:28Z</time>
      </trkpt>
      <trkpt lat="41.8226110" lon="-8.8734140">
        <ele>8.0</ele>
        <time>2021-05-18T10:12:29Z</time>
      </trkpt>
      <trkpt lat="41.8226230" lon="-8.8734200">
        <ele>8.0</ele>
        <time>2021-05-18T10:12:30Z</time>
      </trkpt>
      <trkpt lat="41.8226430" lon="-8.8734310">
        <ele>8.0</ele>
        <time>2021-05-18T10:12:31Z</time>
      </trkpt>
      <trkpt lat="41.8226520" lon="-8.8734320">
        <ele>8.0</ele>
        <time>2021-05-18T10:12:32Z</time>
      </trkpt>
      <trkpt lat="41.8226610" lon="-8.8734330">
        <ele>8.0</ele>
        <time>2021-05-18T10:12:33Z</time>
      </trkpt>
      <trkpt lat="41.8226820" lon="-8.8734420">
        <ele>8.0</ele>
        <time>2021-05-18T10:12:34Z</time>
      </trkpt>
      <trkpt lat="41.8226900" lon="-8.8734450">
        <ele>8.0</ele>
        <time>2021-05-18T10:12:35Z</time>
      </trkpt>
      <trkpt lat="41.8226980" lon="-8.8734480">
        <ele>8.0</ele>
        <time>2021-05-18T10:12:36Z</time>
      </trkpt>
      <trkpt lat="41.8227170" lon="-8.8734590">
        <ele>8.0</ele>
        <time>2021-05-18T10:12:37Z</time>
      </trkpt>
      <trkpt lat="41.8227250" lon="-8.8734630">
        <ele>8.0</ele>
        <time>2021-05-18T10:12:38Z</time>
      </trkpt>
      <trkpt lat="41.8227320" lon="-8.8734680">
        <ele>8.0</ele>
        <time>2021-05-18T10:12:39Z</time>
      </trkpt>
      <trkpt lat="41.8227450" lon="-8.8734770">
        <ele>8.0</ele>
        <time>2021-05-18T10:12:40Z</time>
      </trkpt>
      <trkpt lat="41.8227590" lon="-8.8734800">
        <ele>8.0</ele>
        <time>2021-05-18T10:12:41Z</time>
      </trkpt>
      <trkpt lat="41.8227720" lon="-8.8734840">
        <ele>7.9</ele>
        <time>2021-05-18T10:12:42Z</time>
      </trkpt>
      <trkpt lat="41.8227860" lon="-8.8734840">
        <ele>7.9</ele>
        <time>2021-05-18T10:12:43Z</time>
      </trkpt>
      <trkpt lat="41.8228010" lon="-8.8734870">
        <ele>7.9</ele>
        <time>2021-05-18T10:12:44Z</time>
      </trkpt>
      <trkpt lat="41.8228160" lon="-8.8734940">
        <ele>7.9</ele>
        <time>2021-05-18T10:12:45Z</time>
      </trkpt>
      <trkpt lat="41.8228280" lon="-8.8735070">
        <ele>7.9</ele>
        <time>2021-05-18T10:12:46Z</time>
      </trkpt>
      <trkpt lat="41.8228400" lon="-8.8735180">
        <ele>7.9</ele>
        <time>2021-05-18T10:12:47Z</time>
      </trkpt>
      <trkpt lat="41.8228540" lon="-8.8735190">
        <ele>7.9</ele>
        <time>2021-05-18T10:12:48Z</time>
      </trkpt>
      <trkpt lat="41.8228690" lon="-8.8735200">
        <ele>7.9</ele>
        <time>2021-05-18T10:12:49Z</time>
      </trkpt>
      <trkpt lat="41.8228820" lon="-8.8735270">
        <ele>7.9</ele>
        <time>2021-05-18T10:12:50Z</time>
      </trkpt>
      <trkpt lat="41.8228950" lon="-8.8735320">
        <ele>7.9</ele>
        <time>2021-05-18T10:12:51Z</time>
      </trkpt>
      <trkpt lat="41.8229130" lon="-8.8735460">
        <ele>7.9</ele>
        <time>2021-05-18T10:12:52Z</time>
      </trkpt>
      <trkpt lat="41.8229200" lon="-8.8735530">
        <ele>7.9</ele>
        <time>2021-05-18T10:12:53Z</time>
      </trkpt>
      <trkpt lat="41.8229280" lon="-8.8735590">
        <ele>7.9</ele>
        <time>2021-05-18T10:12:54Z</time>
      </trkpt>
      <trkpt lat="41.8229400" lon="-8.8735610">
        <ele>7.9</ele>
        <time>2021-05-18T10:12:55Z</time>
      </trkpt>
      <trkpt lat="41.8229520" lon="-8.8735650">
        <ele>7.8</ele>
        <time>2021-05-18T10:12:56Z</time>
      </trkpt>
      <trkpt lat="41.8229630" lon="-8.8735710">
        <ele>7.8</ele>
        <time>2021-05-18T10:12:57Z</time>
      </trkpt>
      <trkpt lat="41.8229820" lon="-8.8735830">
        <ele>7.8</ele>
        <time>2021-05-18T10:12:58Z</time>
      </trkpt>
      <trkpt lat="41.8229910" lon="-8.8735880">
        <ele>7.8</ele>
        <time>2021-05-18T10:12:59Z</time>
      </trkpt>
      <trkpt lat="41.8229990" lon="-8.8735920">
        <ele>7.8</ele>
        <time>2021-05-18T10:13:00Z</time>
      </trkpt>
      <trkpt lat="41.8230210" lon="-8.8735950">
        <ele>7.8</ele>
        <time>2021-05-18T10:13:01Z</time>
      </trkpt>
      <trkpt lat="41.8230290" lon="-8.8735980">
        <ele>7.8</ele>
        <time>2021-05-18T10:13:02Z</time>
      </trkpt>
      <trkpt lat="41.8230380" lon="-8.8736010">
        <ele>7.8</ele>
        <time>2021-05-18T10:13:03Z</time>
      </trkpt>
      <trkpt lat="41.8230510" lon="-8.8736060">
        <ele>7.8</ele>
        <time>2021-05-18T10:13:04Z</time>
      </trkpt>
      <trkpt lat="41.8230660" lon="-8.8736090">
        <ele>7.8</ele>
        <time>2021-05-18T10:13:05Z</time>
      </trkpt>
      <trkpt lat="41.8230860" lon="-8.8736220">
        <ele>7.8</ele>
        <time>2021-05-18T10:13:06Z</time>
      </trkpt>
      <trkpt lat="41.8230950" lon="-8.8736250">
        <ele>7.8</ele>
        <time>2021-05-18T10:13:07Z</time>
      </trkpt>
      <trkpt lat="41.8231030" lon="-8.8736280">
        <ele>7.8</ele>
        <time>2021-05-18T10:13:08Z</time>
      </trkpt>
      <trkpt lat="41.8231230" lon="-8.8736380">
        <ele>7.7</ele>
        <time>2021-05-18T10:13:09Z</time>
      </trkpt>
      <trkpt lat="41.8231320" lon="-8.8736420">
        <ele>7.7</ele>
        <time>2021-05-18T10:13:10Z</time>
      </trkpt>
      <trkpt lat="41.8231400" lon="-8.8736470">
        <ele>7.7</ele>
        <time>2021-05-18T10:13:11Z</time>
      </trkpt>
      <trkpt lat="41.8231550" lon="-8.8736530">
        <ele>7.7</ele>
        <time>2021-05-18T10:13:12Z</time>
      </trkpt>
      <trkpt lat="41.8231680" lon="-8.8736610">
        <ele>7.7</ele>
        <time>2021-05-18T10:13:13Z</time>
      </trkpt>
      <trkpt lat="41.8231830" lon="-8.8736620">
        <ele>7.7</ele>
        <time>2021-05-18T10:13:14Z</time>
      </trkpt>
      <trkpt lat="41.8231970" lon="-8.8736590">
        <ele>7.7</ele>
        <time>2021-05-18T10:13:15Z</time>
      </trkpt>
      <trkpt lat="41.8232180" lon="-8.8736670">
        <ele>7.7</ele>
        <time>2021-05-18T10:13:16Z</time>
      </trkpt>
      <trkpt lat="41.8232260" lon="-8.8736700">
        <ele>7.7</ele>
        <time>2021-05-18T10:13:17Z</time>
      </trkpt>
      <trkpt lat="41.8232350" lon="-8.8736740">
        <ele>7.7</ele>
        <time>2021-05-18T10:13:18Z</time>
      </trkpt>
      <trkpt lat="41.8232480" lon="-8.8736770">
        <ele>7.7</ele>
        <time>2021-05-18T10:13:19Z</time>
      </trkpt>
      <trkpt lat="41.8232620" lon="-8.8736750">
        <ele>7.7</ele>
        <time>2021-05-18T10:13:20Z</time>
      </trkpt>
      <trkpt lat="41.8232760" lon="-8.8736760">
        <ele>7.7</ele>
        <time>2021-05-18T10:13:21Z</time>
      </trkpt>
      <trkpt lat="41.8232900" lon="-8.8736790">
        <ele>7.7</ele>
        <time>2021-05-18T10:13:22Z</time>
      </trkpt>
      <trkpt lat="41.8233040" lon="-8.8736840">
        <ele>7.8</ele>
        <time>2021-05-18T10:13:23Z</time>
      </trkpt>
      <trkpt lat="41.8233170" lon="-8.8736880">
        <ele>7.8</ele>
        <time>2021-05-18T10:13:24Z</time>
      </trkpt>
      <trkpt lat="41.8233380" lon="-8.8736830">
        <ele>7.8</ele>
        <time>2021-05-18T10:13:25Z</time>
      </trkpt>
      <trkpt lat="41.8233470" lon="-8.8736800">
        <ele>7.8</ele>
        <time>2021-05-18T10:13:26Z</time>
      </trkpt>
      <trkpt lat="41.8233560" lon="-8.8736780">
        <ele>7.8</ele>
        <time>2021-05-18T10:13:27Z</time>
      </trkpt>
      <trkpt lat="41.8233770" lon="-8.8736810">
        <ele>7.8</ele>
        <time>2021-05-18T10:13:28Z</time>
      </trkpt>
      <trkpt lat="41.8233860" lon="-8.8736820">
        <ele>7.8</ele>
        <time>2021-05-18T10:13:29Z</time>
      </trkpt>
      <trkpt lat="41.8233950" lon="-8.8736840">
        <ele>7.8</ele>
        <time>2021-05-18T10:13:30Z</time>
      </trkpt>
      <trkpt lat="41.8234170" lon="-8.8736840">
        <ele>7.8</ele>
        <time>2021-05-18T10:13:31Z</time>
      </trkpt>
      <trkpt lat="41.8234270" lon="-8.8736840">
        <ele>7.9</ele>
        <time>2021-05-18T10:13:32Z</time>
      </trkpt>
      <trkpt lat="41.8234360" lon="-8.8736850">
        <ele>7.9</ele>
        <time>2021-05-18T10:13:33Z</time>
      </trkpt>
      <trkpt lat="41.8234500" lon="-8.8736870">
        <ele>7.9</ele>
        <time>2021-05-18T10:13:34Z</time>
      </trkpt>
      <trkpt lat="41.8234670" lon="-8.8736850">
        <ele>7.9</ele>
        <time>2021-05-18T10:13:35Z</time>
      </trkpt>
      <trkpt lat="41.8234880" lon="-8.8736830">
        <ele>7.9</ele>
        <time>2021-05-18T10:13:36Z</time>
      </trkpt>
      <trkpt lat="41.8234980" lon="-8.8736810">
        <ele>8.0</ele>
        <time>2021-05-18T10:13:37Z</time>
      </trkpt>
      <trkpt lat="41.8235070" lon="-8.8736800">
        <ele>8.0</ele>
        <time>2021-05-18T10:13:38Z</time>
      </trkpt>
      <trkpt lat="41.8235290" lon="-8.8736770">
        <ele>8.0</ele>
        <time>2021-05-18T10:13:39Z</time>
      </trkpt>
      <trkpt lat="41.8235380" lon="-8.8736780">
        <ele>8.0</ele>
        <time>2021-05-18T10:13:40Z</time>
      </trkpt>
      <trkpt lat="41.8235460" lon="-8.8736780">
        <ele>8.1</ele>
        <time>2021-05-18T10:13:41Z</time>
      </trkpt>
      <trkpt lat="41.8235690" lon="-8.8736740">
        <ele>8.1</ele>
        <time>2021-05-18T10:13:42Z</time>
      </trkpt>
      <trkpt lat="41.8235770" lon="-8.8736720">
        <ele>8.1</ele>
        <time>2021-05-18T10:13:43Z</time>
      </trkpt>
      <trkpt lat="41.8235860" lon="-8.8736700">
        <ele>8.2</ele>
        <time>2021-05-18T10:13:44Z</time>
      </trkpt>
      <trkpt lat="41.8236010" lon="-8.8736720">
        <ele>8.2</ele>
        <time>2021-05-18T10:13:45Z</time>
      </trkpt>
      <trkpt lat="41.8236130" lon="-8.8736680">
        <ele>8.2</ele>
        <time>2021-05-18T10:13:46Z</time>
      </trkpt>
      <trkpt lat="41.8236260" lon="-8.8736650">
        <ele>8.3</ele>
        <time>2021-05-18T10:13:47Z</time>
      </trkpt>
      <trkpt lat="41.8236400" lon="-8.8736580">
        <ele>8.3</ele>
        <time>2021-05-18T10:13:48Z</time>
      </trkpt>
      <trkpt lat="41.8236610" lon="-8.8736510">
        <ele>8.4</ele>
        <time>2021-05-18T10:13:49Z</time>
      </trkpt>
      <trkpt lat="41.8236710" lon="-8.8736490">
        <ele>8.4</ele>
        <time>2021-05-18T10:13:50Z</time>
      </trkpt>
      <trkpt lat="41.8236800" lon="-8.8736470">
        <ele>8.5</ele>
        <time>2021-05-18T10:13:51Z</time>
      </trkpt>
      <trkpt lat="41.8236940" lon="-8.8736430">
        <ele>8.5</ele>
        <time>2021-05-18T10:13:52Z</time>
      </trkpt>
      <trkpt lat="41.8237080" lon="-8.8736390">
        <ele>8.6</ele>
        <time>2021-05-18T10:13:53Z</time>
      </trkpt>
      <trkpt lat="41.8237210" lon="-8.8736300">
        <ele>8.7</ele>
        <time>2021-05-18T10:13:54Z</time>
      </trkpt>
      <trkpt lat="41.8237350" lon="-8.8736260">
        <ele>8.7</ele>
        <time>2021-05-18T10:13:55Z</time>
      </trkpt>
      <trkpt lat="41.8237480" lon="-8.8736250">
        <ele>8.8</ele>
        <time>2021-05-18T10:13:56Z</time>
      </trkpt>
      <trkpt lat="41.8237610" lon="-8.8736210">
        <ele>8.9</ele>
        <time>2021-05-18T10:13:57Z</time>
      </trkpt>
      <trkpt lat="41.8237640" lon="-8.8736160">
        <ele>8.9</ele>
        <time>2021-05-18T10:13:58Z</time>
      </trkpt>
      <trkpt lat="41.8237790" lon="-8.8736060">
        <ele>9.0</ele>
        <time>2021-05-18T10:13:59Z</time>
      </trkpt>
      <trkpt lat="41.8237850" lon="-8.8736000">
        <ele>9.0</ele>
        <time>2021-05-18T10:14:00Z</time>
      </trkpt>
      <trkpt lat="41.8237920" lon="-8.8735930">
        <ele>9.0</ele>
        <time>2021-05-18T10:14:01Z</time>
      </trkpt>
      <trkpt lat="41.8237980" lon="-8.8735870">
        <ele>9.1</ele>
        <time>2021-05-18T10:14:02Z</time>
      </trkpt>
      <trkpt lat="41.8238120" lon="-8.8735790">
        <ele>9.2</ele>
        <time>2021-05-18T10:14:03Z</time>
      </trkpt>
      <trkpt lat="41.8238150" lon="-8.8735730">
        <ele>9.2</ele>
        <time>2021-05-18T10:14:04Z</time>
      </trkpt>
      <trkpt lat="41.8238280" lon="-8.8735640">
        <ele>9.3</ele>
        <time>2021-05-18T10:14:05Z</time>
      </trkpt>
      <trkpt lat="41.8238390" lon="-8.8735530">
        <ele>9.3</ele>
        <time>2021-05-18T10:14:06Z</time>
      </trkpt>
      <trkpt lat="41.8238380" lon="-8.8735470">
        <ele>9.3</ele>
        <time>2021-05-18T10:14:07Z</time>
      </trkpt>
      <trkpt lat="41.8238490" lon="-8.8735340">
        <ele>9.4</ele>
        <time>2021-05-18T10:14:08Z</time>
      </trkpt>
      <trkpt lat="41.8238670" lon="-8.8735200">
        <ele>9.5</ele>
        <time>2021-05-18T10:14:09Z</time>
      </trkpt>
      <trkpt lat="41.8238720" lon="-8.8735150">
        <ele>9.5</ele>
        <time>2021-05-18T10:14:10Z</time>
      </trkpt>
      <trkpt lat="41.8238760" lon="-8.8735100">
        <ele>9.5</ele>
        <time>2021-05-18T10:14:11Z</time>
      </trkpt>
      <trkpt lat="41.8238810" lon="-8.8735050">
        <ele>9.5</ele>
        <time>2021-05-18T10:14:12Z</time>
      </trkpt>
      <trkpt lat="41.8238910" lon="-8.8734990">
        <ele>9.6</ele>
        <time>2021-05-18T10:14:13Z</time>
      </trkpt>
      <trkpt lat="41.8239020" lon="-8.8734880">
        <ele>9.6</ele>
        <time>2021-05-18T10:14:14Z</time>
      </trkpt>
      <trkpt lat="41.8239060" lon="-8.8734830">
        <ele>9.6</ele>
        <time>2021-05-18T10:14:15Z</time>
      </trkpt>
      <trkpt lat="41.8239150" lon="-8.8734760">
        <ele>9.6</ele>
        <time>2021-05-18T10:14:16Z</time>
      </trkpt>
      <trkpt lat="41.8239240" lon="-8.8734740">
        <ele>9.6</ele>
        <time>2021-05-18T10:14:17Z</time>
      </trkpt>
      <trkpt lat="41.8239340" lon="-8.8734700">
        <ele>9.6</ele>
        <time>2021-05-18T10:14:18Z</time>
      </trkpt>
      <trkpt lat="41.8239470" lon="-8.8734610">
        <ele>9.7</ele>
        <time>2021-05-18T10:14:19Z</time>
      </trkpt>
      <trkpt lat="41.8239520" lon="-8.8734610">
        <ele>9.7</ele>
        <time>2021-05-18T10:14:20Z</time>
      </trkpt>
      <trkpt lat="41.8239640" lon="-8.8734560">
        <ele>9.7</ele>
        <time>2021-05-18T10:14:21Z</time>
      </trkpt>
      <trkpt lat="41.8239700" lon="-8.8734550">
        <ele>9.7</ele>
        <time>2021-05-18T10:14:22Z</time>
      </trkpt>
      <trkpt lat="41.8239810" lon="-8.8734580">
        <ele>9.7</ele>
        <time>2021-05-18T10:14:23Z</time>
      </trkpt>
      <trkpt lat="41.8239950" lon="-8.8734560">
        <ele>9.7</ele>
        <time>2021-05-18T10:14:24Z</time>
      </trkpt>
      <trkpt lat="41.8240190" lon="-8.8734600">
        <ele>9.6</ele>
        <time>2021-05-18T10:14:25Z</time>
      </trkpt>
      <trkpt lat="41.8240280" lon="-8.8734600">
        <ele>9.6</ele>
        <time>2021-05-18T10:14:26Z</time>
      </trkpt>
      <trkpt lat="41.8240370" lon="-8.8734610">
        <ele>9.6</ele>
        <time>2021-05-18T10:14:27Z</time>
      </trkpt>
      <trkpt lat="41.8240510" lon="-8.8734610">
        <ele>9.6</ele>
        <time>2021-05-18T10:14:28Z</time>
      </trkpt>
      <trkpt lat="41.8240590" lon="-8.8734610">
        <ele>9.6</ele>
        <time>2021-05-18T10:14:29Z</time>
      </trkpt>
      <trkpt lat="41.8240730" lon="-8.8734690">
        <ele>9.5</ele>
        <time>2021-05-18T10:14:30Z</time>
      </trkpt>
      <trkpt lat="41.8240860" lon="-8.8734680">
        <ele>9.5</ele>
        <time>2021-05-18T10:14:31Z</time>
      </trkpt>
      <trkpt lat="41.8241060" lon="-8.8734720">
        <ele>9.5</ele>
        <time>2021-05-18T10:14:32Z</time>
      </trkpt>
      <trkpt lat="41.8241200" lon="-8.8734700">
        <ele>9.4</ele>
        <time>2021-05-18T10:14:33Z</time>
      </trkpt>
      <trkpt lat="41.8241350" lon="-8.8734810">
        <ele>9.4</ele>
        <time>2021-05-18T10:14:34Z</time>
      </trkpt>
      <trkpt lat="41.8241500" lon="-8.8734870">
        <ele>9.3</ele>
        <time>2021-05-18T10:14:35Z</time>
      </trkpt>
      <trkpt lat="41.8241660" lon="-8.8734890">
        <ele>9.3</ele>
        <time>2021-05-18T10:14:36Z</time>
      </trkpt>
      <trkpt lat="41.8241820" lon="-8.8734860">
        <ele>9.2</ele>
        <time>2021-05-18T10:14:37Z</time>
      </trkpt>
      <trkpt lat="41.8241950" lon="-8.8734890">
        <ele>9.2</ele>
        <time>2021-05-18T10:14:38Z</time>
      </trkpt>
      <trkpt lat="41.8242090" lon="-8.8734890">
        <ele>9.2</ele>
        <time>2021-05-18T10:14:39Z</time>
      </trkpt>
      <trkpt lat="41.8242250" lon="-8.8734870">
        <ele>9.1</ele>
        <time>2021-05-18T10:14:40Z</time>
      </trkpt>
      <trkpt lat="41.8242380" lon="-8.8734850">
        <ele>9.1</ele>
        <time>2021-05-18T10:14:41Z</time>
      </trkpt>
      <trkpt lat="41.8242530" lon="-8.8734850">
        <ele>9.1</ele>
        <time>2021-05-18T10:14:42Z</time>
      </trkpt>
      <trkpt lat="41.8242680" lon="-8.8734850">
        <ele>9.0</ele>
        <time>2021-05-18T10:14:43Z</time>
      </trkpt>
      <trkpt lat="41.8242840" lon="-8.8734850">
        <ele>9.0</ele>
        <time>2021-05-18T10:14:44Z</time>
      </trkpt>
      <trkpt lat="41.8242980" lon="-8.8734870">
        <ele>8.9</ele>
        <time>2021-05-18T10:14:45Z</time>
      </trkpt>
      <trkpt lat="41.8243150" lon="-8.8734840">
        <ele>8.9</ele>
        <time>2021-05-18T10:14:46Z</time>
      </trkpt>
      <trkpt lat="41.8243260" lon="-8.8734850">
        <ele>8.9</ele>
        <time>2021-05-18T10:14:47Z</time>
      </trkpt>
      <trkpt lat="41.8243420" lon="-8.8734880">
        <ele>8.8</ele>
        <time>2021-05-18T10:14:48Z</time>
      </trkpt>
      <trkpt lat="41.8243620" lon="-8.8734910">
        <ele>8.8</ele>
        <time>2021-05-18T10:14:49Z</time>
      </trkpt>
      <trkpt lat="41.8243710" lon="-8.8734930">
        <ele>8.8</ele>
        <time>2021-05-18T10:14:50Z</time>
      </trkpt>
      <trkpt lat="41.8243800" lon="-8.8734950">
        <ele>8.7</ele>
        <time>2021-05-18T10:14:51Z</time>
      </trkpt>
      <trkpt lat="41.8243930" lon="-8.8735000">
        <ele>8.7</ele>
        <time>2021-05-18T10:14:52Z</time>
      </trkpt>
      <trkpt lat="41.8244070" lon="-8.8734980">
        <ele>8.7</ele>
        <time>2021-05-18T10:14:53Z</time>
      </trkpt>
      <trkpt lat="41.8244210" lon="-8.8735040">
        <ele>8.6</ele>
        <time>2021-05-18T10:14:54Z</time>
      </trkpt>
      <trkpt lat="41.8244350" lon="-8.8735010">
        <ele>8.6</ele>
        <time>2021-05-18T10:14:55Z</time>
      </trkpt>
      <trkpt lat="41.8244580" lon="-8.8735010">
        <ele>8.6</ele>
        <time>2021-05-18T10:14:56Z</time>
      </trkpt>
      <trkpt lat="41.8244660" lon="-8.8735000">
        <ele>8.6</ele>
        <time>2021-05-18T10:14:57Z</time>
      </trkpt>
      <trkpt lat="41.8244750" lon="-8.8735000">
        <ele>8.5</ele>
        <time>2021-05-18T10:14:58Z</time>
      </trkpt>
      <trkpt lat="41.8244880" lon="-8.8734990">
        <ele>8.5</ele>
        <time>2021-05-18T10:14:59Z</time>
      </trkpt>
      <trkpt lat="41.8245020" lon="-8.8735050">
        <ele>8.5</ele>
        <time>2021-05-18T10:15:00Z</time>
      </trkpt>
      <trkpt lat="41.8245240" lon="-8.8735000">
        <ele>8.5</ele>
        <time>2021-05-18T10:15:01Z</time>
      </trkpt>
      <trkpt lat="41.8245320" lon="-8.8735000">
        <ele>8.4</ele>
        <time>2021-05-18T10:15:02Z</time>
      </trkpt>
      <trkpt lat="41.8245410" lon="-8.8735010">
        <ele>8.4</ele>
        <time>2021-05-18T10:15:03Z</time>
      </trkpt>
      <trkpt lat="41.8245560" lon="-8.8735010">
        <ele>8.4</ele>
        <time>2021-05-18T10:15:04Z</time>
      </trkpt>
      <trkpt lat="41.8245700" lon="-8.8734970">
        <ele>8.4</ele>
        <time>2021-05-18T10:15:05Z</time>
      </trkpt>
      <trkpt lat="41.8245830" lon="-8.8734940">
        <ele>8.4</ele>
        <time>2021-05-18T10:15:06Z</time>
      </trkpt>
      <trkpt lat="41.8245980" lon="-8.8734970">
        <ele>8.3</ele>
        <time>2021-05-18T10:15:07Z</time>
      </trkpt>
      <trkpt lat="41.8246120" lon="-8.8734920">
        <ele>8.3</ele>
        <time>2021-05-18T10:15:08Z</time>
      </trkpt>
      <trkpt lat="41.8246250" lon="-8.8734930">
        <ele>8.3</ele>
        <time>2021-05-18T10:15:09Z</time>
      </trkpt>
      <trkpt lat="41.8246410" lon="-8.8734850">
        <ele>8.3</ele>
        <time>2021-05-18T10:15:10Z</time>
      </trkpt>
      <trkpt lat="41.8246530" lon="-8.8734830">
        <ele>8.2</ele>
        <time>2021-05-18T10:15:11Z</time>
      </trkpt>
      <trkpt lat="41.8246730" lon="-8.8734790">
        <ele>8.2</ele>
        <time>2021-05-18T10:15:12Z</time>
      </trkpt>
      <trkpt lat="41.8246820" lon="-8.8734800">
        <ele>8.2</ele>
        <time>2021-05-18T10:15:13Z</time>
      </trkpt>
      <trkpt lat="41.8246900" lon="-8.8734800">
        <ele>8.2</ele>
        <time>2021-05-18T10:15:14Z</time>
      </trkpt>
      <trkpt lat="41.8247030" lon="-8.8734750">
        <ele>8.2</ele>
        <time>2021-05-18T10:15:15Z</time>
      </trkpt>
      <trkpt lat="41.8247160" lon="-8.8734730">
        <ele>8.1</ele>
        <time>2021-05-18T10:15:16Z</time>
      </trkpt>
      <trkpt lat="41.8247300" lon="-8.8734760">
        <ele>8.1</ele>
        <time>2021-05-18T10:15:17Z</time>
      </trkpt>
      <trkpt lat="41.8247440" lon="-8.8734700">
        <ele>8.1</ele>
        <time>2021-05-18T10:15:18Z</time>
      </trkpt>
      <trkpt lat="41.8247650" lon="-8.8734720">
        <ele>8.0</ele>
        <time>2021-05-18T10:15:19Z</time>
      </trkpt>
      <trkpt lat="41.8247720" lon="-8.8734710">
        <ele>8.0</ele>
        <time>2021-05-18T10:15:20Z</time>
      </trkpt>
      <trkpt lat="41.8247800" lon="-8.8734710">
        <ele>8.0</ele>
        <time>2021-05-18T10:15:21Z</time>
      </trkpt>
      <trkpt lat="41.8248020" lon="-8.8734640">
        <ele>8.0</ele>
        <time>2021-05-18T10:15:22Z</time>
      </trkpt>
      <trkpt lat="41.8248110" lon="-8.8734620">
        <ele>8.0</ele>
        <time>2021-05-18T10:15:23Z</time>
      </trkpt>
      <trkpt lat="41.8248200" lon="-8.8734600">
        <ele>8.0</ele>
        <time>2021-05-18T10:15:24Z</time>
      </trkpt>
      <trkpt lat="41.8248400" lon="-8.8734510">
        <ele>7.9</ele>
        <time>2021-05-18T10:15:25Z</time>
      </trkpt>
      <trkpt lat="41.8248480" lon="-8.8734470">
        <ele>7.9</ele>
        <time>2021-05-18T10:15:26Z</time>
      </trkpt>
      <trkpt lat="41.8248560" lon="-8.8734430">
        <ele>7.9</ele>
        <time>2021-05-18T10:15:27Z</time>
      </trkpt>
      <trkpt lat="41.8248690" lon="-8.8734390">
        <ele>7.9</ele>
        <time>2021-05-18T10:15:28Z</time>
      </trkpt>
      <trkpt lat="41.8248820" lon="-8.8734320">
        <ele>7.9</ele>
        <time>2021-05-18T10:15:29Z</time>
      </trkpt>
      <trkpt lat="41.8248960" lon="-8.8734260">
        <ele>7.9</ele>
        <time>2021-05-18T10:15:30Z</time>
      </trkpt>
      <trkpt lat="41.8249090" lon="-8.8734190">
        <ele>7.9</ele>
        <time>2021-05-18T10:15:31Z</time>
      </trkpt>
      <trkpt lat="41.8249210" lon="-8.8734150">
        <ele>7.9</ele>
        <time>2021-05-18T10:15:32Z</time>
      </trkpt>
      <trkpt lat="41.8249350" lon="-8.8734070">
        <ele>7.9</ele>
        <time>2021-05-18T10:15:33Z</time>
      </trkpt>
      <trkpt lat="41.8249570" lon="-8.8733990">
        <ele>7.9</ele>
        <time>2021-05-18T10:15:34Z</time>
      </trkpt>
      <trkpt lat="41.8249650" lon="-8.8733960">
        <ele>7.9</ele>
        <time>2021-05-18T10:15:35Z</time>
      </trkpt>
      <trkpt lat="41.8249740" lon="-8.8733930">
        <ele>7.9</ele>
        <time>2021-05-18T10:15:36Z</time>
      </trkpt>
      <trkpt lat="41.8249940" lon="-8.8733860">
        <ele>7.8</ele>
        <time>2021-05-18T10:15:37Z</time>
      </trkpt>
      <trkpt lat="41.8250030" lon="-8.8733820">
        <ele>7.8</ele>
        <time>2021-05-18T10:15:38Z</time>
      </trkpt>
      <trkpt lat="41.8250110" lon="-8.8733790">
        <ele>7.8</ele>
        <time>2021-05-18T10:15:39Z</time>
      </trkpt>
      <trkpt lat="41.8250310" lon="-8.8733670">
        <ele>7.8</ele>
        <time>2021-05-18T10:15:40Z</time>
      </trkpt>
      <trkpt lat="41.8250400" lon="-8.8733610">
        <ele>7.8</ele>
        <time>2021-05-18T10:15:41Z</time>
      </trkpt>
      <trkpt lat="41.8250480" lon="-8.8733540">
        <ele>7.8</ele>
        <time>2021-05-18T10:15:42Z</time>
      </trkpt>
      <trkpt lat="41.8250610" lon="-8.8733430">
        <ele>7.8</ele>
        <time>2021-05-18T10:15:43Z</time>
      </trkpt>
      <trkpt lat="41.8250730" lon="-8.8733360">
        <ele>7.8</ele>
        <time>2021-05-18T10:15:44Z</time>
      </trkpt>
      <trkpt lat="41.8250860" lon="-8.8733290">
        <ele>7.8</ele>
        <time>2021-05-18T10:15:45Z</time>
      </trkpt>
      <trkpt lat="41.8250980" lon="-8.8733210">
        <ele>7.8</ele>
        <time>2021-05-18T10:15:46Z</time>
      </trkpt>
      <trkpt lat="41.8251100" lon="-8.8733110">
        <ele>7.8</ele>
        <time>2021-05-18T10:15:47Z</time>
      </trkpt>
      <trkpt lat="41.8251220" lon="-8.8733050">
        <ele>7.8</ele>
        <time>2021-05-18T10:15:48Z</time>
      </trkpt>
      <trkpt lat="41.8251420" lon="-8.8732960">
        <ele>7.8</ele>
        <time>2021-05-18T10:15:49Z</time>
      </trkpt>
      <trkpt lat="41.8251510" lon="-8.8732920">
        <ele>7.8</ele>
        <time>2021-05-18T10:15:50Z</time>
      </trkpt>
      <trkpt lat="41.8251590" lon="-8.8732890">
        <ele>7.8</ele>
        <time>2021-05-18T10:15:51Z</time>
      </trkpt>
      <trkpt lat="41.8251800" lon="-8.8732850">
        <ele>7.7</ele>
        <time>2021-05-18T10:15:52Z</time>
      </trkpt>
      <trkpt lat="41.8251890" lon="-8.8732800">
        <ele>7.7</ele>
        <time>2021-05-18T10:15:53Z</time>
      </trkpt>
      <trkpt lat="41.8251980" lon="-8.8732750">
        <ele>7.7</ele>
        <time>2021-05-18T10:15:54Z</time>
      </trkpt>
      <trkpt lat="41.8252090" lon="-8.8732660">
        <ele>7.7</ele>
        <time>2021-05-18T10:15:55Z</time>
      </trkpt>
      <trkpt lat="41.8252210" lon="-8.8732560">
        <ele>7.7</ele>
        <time>2021-05-18T10:15:56Z</time>
      </trkpt>
      <trkpt lat="41.8252400" lon="-8.8732410">
        <ele>7.7</ele>
        <time>2021-05-18T10:15:57Z</time>
      </trkpt>
      <trkpt lat="41.8252470" lon="-8.8732360">
        <ele>7.7</ele>
        <time>2021-05-18T10:15:58Z</time>
      </trkpt>
      <trkpt lat="41.8252550" lon="-8.8732310">
        <ele>7.7</ele>
        <time>2021-05-18T10:15:59Z</time>
      </trkpt>
      <trkpt lat="41.8252730" lon="-8.8732160">
        <ele>7.6</ele>
        <time>2021-05-18T10:16:00Z</time>
      </trkpt>
      <trkpt lat="41.8252790" lon="-8.8732100">
        <ele>7.6</ele>
        <time>2021-05-18T10:16:01Z</time>
      </trkpt>
      <trkpt lat="41.8252860" lon="-8.8732040">
        <ele>7.6</ele>
        <time>2021-05-18T10:16:02Z</time>
      </trkpt>
      <trkpt lat="41.8252980" lon="-8.8732010">
        <ele>7.6</ele>
        <time>2021-05-18T10:16:03Z</time>
      </trkpt>
      <trkpt lat="41.8253080" lon="-8.8731920">
        <ele>7.6</ele>
        <time>2021-05-18T10:16:04Z</time>
      </trkpt>
      <trkpt lat="41.8253190" lon="-8.8731850">
        <ele>7.6</ele>
        <time>2021-05-18T10:16:05Z</time>
      </trkpt>
      <trkpt lat="41.8253370" lon="-8.8731680">
        <ele>7.5</ele>
        <time>2021-05-18T10:16:06Z</time>
      </trkpt>
      <trkpt lat="41.8253440" lon="-8.8731630">
        <ele>7.5</ele>
        <time>2021-05-18T10:16:07Z</time>
      </trkpt>
      <trkpt lat="41.8253510" lon="-8.8731570">
        <ele>7.5</ele>
        <time>2021-05-18T10:16:08Z</time>
      </trkpt>
      <trkpt lat="41.8253710" lon="-8.8731470">
        <ele>7.5</ele>
        <time>2021-05-18T10:16:09Z</time>
      </trkpt>
      <trkpt lat="41.8253780" lon="-8.8731430">
        <ele>7.5</ele>
        <time>2021-05-18T10:16:10Z</time>
      </trkpt>
      <trkpt lat="41.8253860" lon="-8.8731390">
        <ele>7.5</ele>
        <time>2021-05-18T10:16:11Z</time>
      </trkpt>
      <trkpt lat="41.8253990" lon="-8.8731340">
        <ele>7.5</ele>
        <time>2021-05-18T10:16:12Z</time>
      </trkpt>
      <trkpt lat="41.8254120" lon="-8.8731280">
        <ele>7.4</ele>
        <time>2021-05-18T10:16:13Z</time>
      </trkpt>
      <trkpt lat="41.8254250" lon="-8.8731190">
        <ele>7.4</ele>
        <time>2021-05-18T10:16:14Z</time>
      </trkpt>
      <trkpt lat="41.8254380" lon="-8.8731100">
        <ele>7.4</ele>
        <time>2021-05-18T10:16:15Z</time>
      </trkpt>
      <trkpt lat="41.8254570" lon="-8.8730970">
        <ele>7.4</ele>
        <time>2021-05-18T10:16:16Z</time>
      </trkpt>
      <trkpt lat="41.8254640" lon="-8.8730920">
        <ele>7.4</ele>
        <time>2021-05-18T10:16:17Z</time>
      </trkpt>
      <trkpt lat="41.8254720" lon="-8.8730870">
        <ele>7.4</ele>
        <time>2021-05-18T10:16:18Z</time>
      </trkpt>
      <trkpt lat="41.8254920" lon="-8.8730750">
        <ele>7.3</ele>
        <time>2021-05-18T10:16:19Z</time>
      </trkpt>
      <trkpt lat="41.8255000" lon="-8.8730710">
        <ele>7.3</ele>
        <time>2021-05-18T10:16:20Z</time>
      </trkpt>
      <trkpt lat="41.8255090" lon="-8.8730680">
        <ele>7.3</ele>
        <time>2021-05-18T10:16:21Z</time>
      </trkpt>
      <trkpt lat="41.8255220" lon="-8.8730640">
        <ele>7.3</ele>
        <time>2021-05-18T10:16:22Z</time>
      </trkpt>
      <trkpt lat="41.8255360" lon="-8.8730570">
        <ele>7.3</ele>
        <time>2021-05-18T10:16:23Z</time>
      </trkpt>
      <trkpt lat="41.8255500" lon="-8.8730560">
        <ele>7.3</ele>
        <time>2021-05-18T10:16:24Z</time>
      </trkpt>
      <trkpt lat="41.8255640" lon="-8.8730550">
        <ele>7.3</ele>
        <time>2021-05-18T10:16:25Z</time>
      </trkpt>
      <trkpt lat="41.8255750" lon="-8.8730440">
        <ele>7.3</ele>
        <time>2021-05-18T10:16:26Z</time>
      </trkpt>
      <trkpt lat="41.8255870" lon="-8.8730310">
        <ele>7.3</ele>
        <time>2021-05-18T10:16:27Z</time>
      </trkpt>
      <trkpt lat="41.8256000" lon="-8.8730290">
        <ele>7.3</ele>
        <time>2021-05-18T10:16:28Z</time>
      </trkpt>
      <trkpt lat="41.8256120" lon="-8.8730180">
        <ele>7.2</ele>
        <time>2021-05-18T10:16:29Z</time>
      </trkpt>
      <trkpt lat="41.8256250" lon="-8.8730090">
        <ele>7.2</ele>
        <time>2021-05-18T10:16:30Z</time>
      </trkpt>
      <trkpt lat="41.8256400" lon="-8.8730040">
        <ele>7.2</ele>
        <time>2021-05-18T10:16:31Z</time>
      </trkpt>
      <trkpt lat="41.8256610" lon="-8.8729940">
        <ele>7.2</ele>
        <time>2021-05-18T10:16:32Z</time>
      </trkpt>
      <trkpt lat="41.8256700" lon="-8.8729890">
        <ele>7.2</ele>
        <time>2021-05-18T10:16:33Z</time>
      </trkpt>
      <trkpt lat="41.8256780" lon="-8.8729840">
        <ele>7.2</ele>
        <time>2021-05-18T10:16:34Z</time>
      </trkpt>
      <trkpt lat="41.8256960" lon="-8.8729680">
        <ele>7.2</ele>
        <time>2021-05-18T10:16:35Z</time>
      </trkpt>
      <trkpt lat="41.8257030" lon="-8.8729610">
        <ele>7.2</ele>
        <time>2021-05-18T10:16:36Z</time>
      </trkpt>
      <trkpt lat="41.8257100" lon="-8.8729550">
        <ele>7.2</ele>
        <time>2021-05-18T10:16:37Z</time>
      </trkpt>
      <trkpt lat="41.8257190" lon="-8.8729450">
        <ele>7.2</ele>
        <time>2021-05-18T10:16:38Z</time>
      </trkpt>
      <trkpt lat="41.8257270" lon="-8.8729350">
        <ele>7.2</ele>
        <time>2021-05-18T10:16:39Z</time>
      </trkpt>
      <trkpt lat="41.8257380" lon="-8.8729260">
        <ele>7.2</ele>
        <time>2021-05-18T10:16:40Z</time>
      </trkpt>
      <trkpt lat="41.8257580" lon="-8.8729130">
        <ele>7.2</ele>
        <time>2021-05-18T10:16:41Z</time>
      </trkpt>
      <trkpt lat="41.8257660" lon="-8.8729090">
        <ele>7.2</ele>
        <time>2021-05-18T10:16:42Z</time>
      </trkpt>
      <trkpt lat="41.8257740" lon="-8.8729040">
        <ele>7.2</ele>
        <time>2021-05-18T10:16:43Z</time>
      </trkpt>
      <trkpt lat="41.8257940" lon="-8.8728940">
        <ele>7.2</ele>
        <time>2021-05-18T10:16:44Z</time>
      </trkpt>
      <trkpt lat="41.8258030" lon="-8.8728930">
        <ele>7.2</ele>
        <time>2021-05-18T10:16:45Z</time>
      </trkpt>
      <trkpt lat="41.8258120" lon="-8.8728930">
        <ele>7.2</ele>
        <time>2021-05-18T10:16:46Z</time>
      </trkpt>
      <trkpt lat="41.8258310" lon="-8.8728860">
        <ele>7.2</ele>
        <time>2021-05-18T10:16:47Z</time>
      </trkpt>
      <trkpt lat="41.8258370" lon="-8.8728770">
        <ele>7.2</ele>
        <time>2021-05-18T10:16:48Z</time>
      </trkpt>
      <trkpt lat="41.8258440" lon="-8.8728690">
        <ele>7.2</ele>
        <time>2021-05-18T10:16:49Z</time>
      </trkpt>
      <trkpt lat="41.8258660" lon="-8.8728620">
        <ele>7.2</ele>
        <time>2021-05-18T10:16:50Z</time>
      </trkpt>
      <trkpt lat="41.8258750" lon="-8.8728590">
        <ele>7.3</ele>
        <time>2021-05-18T10:16:51Z</time>
      </trkpt>
      <trkpt lat="41.8258840" lon="-8.8728550">
        <ele>7.3</ele>
        <time>2021-05-18T10:16:52Z</time>
      </trkpt>
      <trkpt lat="41.8258950" lon="-8.8728510">
        <ele>7.3</ele>
        <time>2021-05-18T10:16:53Z</time>
      </trkpt>
      <trkpt lat="41.8259060" lon="-8.8728460">
        <ele>7.3</ele>
        <time>2021-05-18T10:16:54Z</time>
      </trkpt>
      <trkpt lat="41.8259160" lon="-8.8728400">
        <ele>7.3</ele>
        <time>2021-05-18T10:16:55Z</time>
      </trkpt>
      <trkpt lat="41.8259290" lon="-8.8728390">
        <ele>7.3</ele>
        <time>2021-05-18T10:16:56Z</time>
      </trkpt>
      <trkpt lat="41.8259390" lon="-8.8728350">
        <ele>7.3</ele>
        <time>2021-05-18T10:16:57Z</time>
      </trkpt>
      <trkpt lat="41.8259500" lon="-8.8728300">
        <ele>7.3</ele>
        <time>2021-05-18T10:16:58Z</time>
      </trkpt>
      <trkpt lat="41.8259600" lon="-8.8728280">
        <ele>7.3</ele>
        <time>2021-05-18T10:16:59Z</time>
      </trkpt>
      <trkpt lat="41.8259700" lon="-8.8728250">
        <ele>7.3</ele>
        <time>2021-05-18T10:17:00Z</time>
      </trkpt>
      <trkpt lat="41.8259810" lon="-8.8728250">
        <ele>7.3</ele>
        <time>2021-05-18T10:17:01Z</time>
      </trkpt>
      <trkpt lat="41.8260020" lon="-8.8728220">
        <ele>7.3</ele>
        <time>2021-05-18T10:17:02Z</time>
      </trkpt>
      <trkpt lat="41.8260100" lon="-8.8728210">
        <ele>7.4</ele>
        <time>2021-05-18T10:17:03Z</time>
      </trkpt>
      <trkpt lat="41.8260190" lon="-8.8728210">
        <ele>7.4</ele>
        <time>2021-05-18T10:17:04Z</time>
      </trkpt>
      <trkpt lat="41.8260300" lon="-8.8728180">
        <ele>7.4</ele>
        <time>2021-05-18T10:17:05Z</time>
      </trkpt>
      <trkpt lat="41.8260430" lon="-8.8728170">
        <ele>7.4</ele>
        <time>2021-05-18T10:17:06Z</time>
      </trkpt>
      <trkpt lat="41.8260560" lon="-8.8728190">
        <ele>7.4</ele>
        <time>2021-05-18T10:17:07Z</time>
      </trkpt>
      <trkpt lat="41.8260670" lon="-8.8728130">
        <ele>7.4</ele>
        <time>2021-05-18T10:17:08Z</time>
      </trkpt>
      <trkpt lat="41.8260780" lon="-8.8728160">
        <ele>7.4</ele>
        <time>2021-05-18T10:17:09Z</time>
      </trkpt>
      <trkpt lat="41.8260890" lon="-8.8728140">
        <ele>7.4</ele>
        <time>2021-05-18T10:17:10Z</time>
      </trkpt>
      <trkpt lat="41.8261010" lon="-8.8728120">
        <ele>7.4</ele>
        <time>2021-05-18T10:17:11Z</time>
      </trkpt>
      <trkpt lat="41.8261120" lon="-8.8728120">
        <ele>7.4</ele>
        <time>2021-05-18T10:17:12Z</time>
      </trkpt>
      <trkpt lat="41.8261250" lon="-8.8728100">
        <ele>7.4</ele>
        <time>2021-05-18T10:17:13Z</time>
      </trkpt>
      <trkpt lat="41.8261460" lon="-8.8728130">
        <ele>7.4</ele>
        <time>2021-05-18T10:17:14Z</time>
      </trkpt>
      <trkpt lat="41.8261540" lon="-8.8728120">
        <ele>7.4</ele>
        <time>2021-05-18T10:17:15Z</time>
      </trkpt>
      <trkpt lat="41.8261620" lon="-8.8728120">
        <ele>7.4</ele>
        <time>2021-05-18T10:17:16Z</time>
      </trkpt>
      <trkpt lat="41.8261820" lon="-8.8728140">
        <ele>7.5</ele>
        <time>2021-05-18T10:17:17Z</time>
      </trkpt>
      <trkpt lat="41.8261910" lon="-8.8728150">
        <ele>7.5</ele>
        <time>2021-05-18T10:17:18Z</time>
      </trkpt>
      <trkpt lat="41.8261990" lon="-8.8728170">
        <ele>7.5</ele>
        <time>2021-05-18T10:17:19Z</time>
      </trkpt>
      <trkpt lat="41.8262120" lon="-8.8728210">
        <ele>7.5</ele>
        <time>2021-05-18T10:17:20Z</time>
      </trkpt>
      <trkpt lat="41.8262240" lon="-8.8728210">
        <ele>7.5</ele>
        <time>2021-05-18T10:17:21Z</time>
      </trkpt>
      <trkpt lat="41.8262350" lon="-8.8728240">
        <ele>7.5</ele>
        <time>2021-05-18T10:17:22Z</time>
      </trkpt>
      <trkpt lat="41.8262480" lon="-8.8728230">
        <ele>7.5</ele>
        <time>2021-05-18T10:17:23Z</time>
      </trkpt>
      <trkpt lat="41.8262600" lon="-8.8728250">
        <ele>7.5</ele>
        <time>2021-05-18T10:17:24Z</time>
      </trkpt>
      <trkpt lat="41.8262710" lon="-8.8728280">
        <ele>7.5</ele>
        <time>2021-05-18T10:17:25Z</time>
      </trkpt>
      <trkpt lat="41.8262940" lon="-8.8728280">
        <ele>7.5</ele>
        <time>2021-05-18T10:17:26Z</time>
      </trkpt>
      <trkpt lat="41.8263020" lon="-8.8728310">
        <ele>7.5</ele>
        <time>2021-05-18T10:17:27Z</time>
      </trkpt>
      <trkpt lat="41.8263110" lon="-8.8728340">
        <ele>7.5</ele>
        <time>2021-05-18T10:17:28Z</time>
      </trkpt>
      <trkpt lat="41.8263310" lon="-8.8728310">
        <ele>7.5</ele>
        <time>2021-05-18T10:17:29Z</time>
      </trkpt>
      <trkpt lat="41.8263400" lon="-8.8728310">
        <ele>7.5</ele>
        <time>2021-05-18T10:17:30Z</time>
      </trkpt>
      <trkpt lat="41.8263480" lon="-8.8728310">
        <ele>7.5</ele>
        <time>2021-05-18T10:17:31Z</time>
      </trkpt>
      <trkpt lat="41.8263610" lon="-8.8728300">
        <ele>7.5</ele>
        <time>2021-05-18T10:17:32Z</time>
      </trkpt>
      <trkpt lat="41.8263750" lon="-8.8728300">
        <ele>7.5</ele>
        <time>2021-05-18T10:17:33Z</time>
      </trkpt>
      <trkpt lat="41.8263870" lon="-8.8728330">
        <ele>7.5</ele>
        <time>2021-05-18T10:17:34Z</time>
      </trkpt>
      <trkpt lat="41.8263980" lon="-8.8728360">
        <ele>7.5</ele>
        <time>2021-05-18T10:17:35Z</time>
      </trkpt>
      <trkpt lat="41.8264100" lon="-8.8728380">
        <ele>7.5</ele>
        <time>2021-05-18T10:17:36Z</time>
      </trkpt>
      <trkpt lat="41.8264300" lon="-8.8728400">
        <ele>7.5</ele>
        <time>2021-05-18T10:17:37Z</time>
      </trkpt>
      <trkpt lat="41.8264390" lon="-8.8728410">
        <ele>7.6</ele>
        <time>2021-05-18T10:17:38Z</time>
      </trkpt>
      <trkpt lat="41.8264470" lon="-8.8728420">
        <ele>7.6</ele>
        <time>2021-05-18T10:17:39Z</time>
      </trkpt>
      <trkpt lat="41.8264690" lon="-8.8728410">
        <ele>7.6</ele>
        <time>2021-05-18T10:17:40Z</time>
      </trkpt>
      <trkpt lat="41.8264760" lon="-8.8728410">
        <ele>7.6</ele>
        <time>2021-05-18T10:17:41Z</time>
      </trkpt>
      <trkpt lat="41.8264840" lon="-8.8728410">
        <ele>7.6</ele>
        <time>2021-05-18T10:17:42Z</time>
      </trkpt>
      <trkpt lat="41.8265050" lon="-8.8728430">
        <ele>7.6</ele>
        <time>2021-05-18T10:17:43Z</time>
      </trkpt>
      <trkpt lat="41.8265130" lon="-8.8728440">
        <ele>7.6</ele>
        <time>2021-05-18T10:17:44Z</time>
      </trkpt>
      <trkpt lat="41.8265210" lon="-8.8728450">
        <ele>7.6</ele>
        <time>2021-05-18T10:17:45Z</time>
      </trkpt>
      <trkpt lat="41.8265430" lon="-8.8728510">
        <ele>7.6</ele>
        <time>2021-05-18T10:17:46Z</time>
      </trkpt>
      <trkpt lat="41.8265510" lon="-8.8728520">
        <ele>7.6</ele>
        <time>2021-05-18T10:17:47Z</time>
      </trkpt>
      <trkpt lat="41.8265600" lon="-8.8728540">
        <ele>7.6</ele>
        <time>2021-05-18T10:17:48Z</time>
      </trkpt>
      <trkpt lat="41.8265830" lon="-8.8728500">
        <ele>7.6</ele>
        <time>2021-05-18T10:17:49Z</time>
      </trkpt>
      <trkpt lat="41.8265920" lon="-8.8728500">
        <ele>7.7</ele>
        <time>2021-05-18T10:17:50Z</time>
      </trkpt>
      <trkpt lat="41.8266010" lon="-8.8728510">
        <ele>7.7</ele>
        <time>2021-05-18T10:17:51Z</time>
      </trkpt>
      <trkpt lat="41.8266220" lon="-8.8728460">
        <ele>7.7</ele>
        <time>2021-05-18T10:17:52Z</time>
      </trkpt>
      <trkpt lat="41.8266300" lon="-8.8728460">
        <ele>7.7</ele>
        <time>2021-05-18T10:17:53Z</time>
      </trkpt>
      <trkpt lat="41.8266380" lon="-8.8728460">
        <ele>7.7</ele>
        <time>2021-05-18T10:17:54Z</time>
      </trkpt>
      <trkpt lat="41.8266510" lon="-8.8728460">
        <ele>7.7</ele>
        <time>2021-05-18T10:17:55Z</time>
      </trkpt>
      <trkpt lat="41.8266630" lon="-8.8728470">
        <ele>7.7</ele>
        <time>2021-05-18T10:17:56Z</time>
      </trkpt>
      <trkpt lat="41.8266750" lon="-8.8728430">
        <ele>7.7</ele>
        <time>2021-05-18T10:17:57Z</time>
      </trkpt>
      <trkpt lat="41.8266960" lon="-8.8728450">
        <ele>7.7</ele>
        <time>2021-05-18T10:17:58Z</time>
      </trkpt>
      <trkpt lat="41.8267050" lon="-8.8728460">
        <ele>7.7</ele>
        <time>2021-05-18T10:17:59Z</time>
      </trkpt>
      <trkpt lat="41.8267140" lon="-8.8728470">
        <ele>7.7</ele>
        <time>2021-05-18T10:18:00Z</time>
      </trkpt>
      <trkpt lat="41.8267360" lon="-8.8728550">
        <ele>7.7</ele>
        <time>2021-05-18T10:18:01Z</time>
      </trkpt>
      <trkpt lat="41.8267450" lon="-8.8728550">
        <ele>7.7</ele>
        <time>2021-05-18T10:18:02Z</time>
      </trkpt>
      <trkpt lat="41.8267530" lon="-8.8728560">
        <ele>7.7</ele>
        <time>2021-05-18T10:18:03Z</time>
      </trkpt>
      <trkpt lat="41.8267740" lon="-8.8728570">
        <ele>7.7</ele>
        <time>2021-05-18T10:18:04Z</time>
      </trkpt>
      <trkpt lat="41.8267830" lon="-8.8728550">
        <ele>7.7</ele>
        <time>2021-05-18T10:18:05Z</time>
      </trkpt>
      <trkpt lat="41.8267910" lon="-8.8728540">
        <ele>7.7</ele>
        <time>2021-05-18T10:18:06Z</time>
      </trkpt>
      <trkpt lat="41.8268140" lon="-8.8728530">
        <ele>7.8</ele>
        <time>2021-05-18T10:18:07Z</time>
      </trkpt>
      <trkpt lat="41.8268230" lon="-8.8728550">
        <ele>7.8</ele>
        <time>2021-05-18T10:18:08Z</time>
      </trkpt>
      <trkpt lat="41.8268320" lon="-8.8728560">
        <ele>7.8</ele>
        <time>2021-05-18T10:18:09Z</time>
      </trkpt>
      <trkpt lat="41.8268550" lon="-8.8728570">
        <ele>7.8</ele>
        <time>2021-05-18T10:18:10Z</time>
      </trkpt>
      <trkpt lat="41.8268630" lon="-8.8728590">
        <ele>7.8</ele>
        <time>2021-05-18T10:18:11Z</time>
      </trkpt>
      <trkpt lat="41.8268720" lon="-8.8728600">
        <ele>7.8</ele>
        <time>2021-05-18T10:18:12Z</time>
      </trkpt>
      <trkpt lat="41.8268940" lon="-8.8728600">
        <ele>7.8</ele>
        <time>2021-05-18T10:18:13Z</time>
      </trkpt>
      <trkpt lat="41.8269020" lon="-8.8728620">
        <ele>7.8</ele>
        <time>2021-05-18T10:18:14Z</time>
      </trkpt>
      <trkpt lat="41.8269110" lon="-8.8728630">
        <ele>7.8</ele>
        <time>2021-05-18T10:18:15Z</time>
      </trkpt>
      <trkpt lat="41.8269320" lon="-8.8728640">
        <ele>7.8</ele>
        <time>2021-05-18T10:18:16Z</time>
      </trkpt>
      <trkpt lat="41.8269420" lon="-8.8728640">
        <ele>7.8</ele>
        <time>2021-05-18T10:18:17Z</time>
      </trkpt>
      <trkpt lat="41.8269510" lon="-8.8728630">
        <ele>7.8</ele>
        <time>2021-05-18T10:18:18Z</time>
      </trkpt>
      <trkpt lat="41.8269640" lon="-8.8728660">
        <ele>7.8</ele>
        <time>2021-05-18T10:18:19Z</time>
      </trkpt>
      <trkpt lat="41.8269790" lon="-8.8728640">
        <ele>7.8</ele>
        <time>2021-05-18T10:18:20Z</time>
      </trkpt>
      <trkpt lat="41.8269890" lon="-8.8728700">
        <ele>7.8</ele>
        <time>2021-05-18T10:18:21Z</time>
      </trkpt>
      <trkpt lat="41.8270020" lon="-8.8728690">
        <ele>7.9</ele>
        <time>2021-05-18T10:18:22Z</time>
      </trkpt>
      <trkpt lat="41.8270130" lon="-8.8728710">
        <ele>7.9</ele>
        <time>2021-05-18T10:18:23Z</time>
      </trkpt>
      <trkpt lat="41.8270340" lon="-8.8728710">
        <ele>7.9</ele>
        <time>2021-05-18T10:18:24Z</time>
      </trkpt>
      <trkpt lat="41.8270430" lon="-8.8728710">
        <ele>7.9</ele>
        <time>2021-05-18T10:18:25Z</time>
      </trkpt>
      <trkpt lat="41.8270510" lon="-8.8728700">
        <ele>7.9</ele>
        <time>2021-05-18T10:18:26Z</time>
      </trkpt>
      <trkpt lat="41.8270650" lon="-8.8728740">
        <ele>7.9</ele>
        <time>2021-05-18T10:18:27Z</time>
      </trkpt>
      <trkpt lat="41.8270780" lon="-8.8728730">
        <ele>7.9</ele>
        <time>2021-05-18T10:18:28Z</time>
      </trkpt>
      <trkpt lat="41.8270990" lon="-8.8728740">
        <ele>7.9</ele>
        <time>2021-05-18T10:18:29Z</time>
      </trkpt>
      <trkpt lat="41.8271090" lon="-8.8728750">
        <ele>7.9</ele>
        <time>2021-05-18T10:18:30Z</time>
      </trkpt>
      <trkpt lat="41.8271180" lon="-8.8728750">
        <ele>7.9</ele>
        <time>2021-05-18T10:18:31Z</time>
      </trkpt>
      <trkpt lat="41.8271390" lon="-8.8728740">
        <ele>7.9</ele>
        <time>2021-05-18T10:18:32Z</time>
      </trkpt>
      <trkpt lat="41.8271480" lon="-8.8728740">
        <ele>7.9</ele>
        <time>2021-05-18T10:18:33Z</time>
      </trkpt>
      <trkpt lat="41.8271560" lon="-8.8728750">
        <ele>7.9</ele>
        <time>2021-05-18T10:18:34Z</time>
      </trkpt>
      <trkpt lat="41.8271700" lon="-8.8728750">
        <ele>7.9</ele>
        <time>2021-05-18T10:18:35Z</time>
      </trkpt>
      <trkpt lat="41.8271810" lon="-8.8728790">
        <ele>8.0</ele>
        <time>2021-05-18T10:18:36Z</time>
      </trkpt>
      <trkpt lat="41.8271920" lon="-8.8728790">
        <ele>8.0</ele>
        <time>2021-05-18T10:18:37Z</time>
      </trkpt>
      <trkpt lat="41.8272130" lon="-8.8728850">
        <ele>8.0</ele>
        <time>2021-05-18T10:18:38Z</time>
      </trkpt>
      <trkpt lat="41.8272210" lon="-8.8728890">
        <ele>8.0</ele>
        <time>2021-05-18T10:18:39Z</time>
      </trkpt>
      <trkpt lat="41.8272290" lon="-8.8728930">
        <ele>8.0</ele>
        <time>2021-05-18T10:18:40Z</time>
      </trkpt>
      <trkpt lat="41.8272510" lon="-8.8728860">
        <ele>8.0</ele>
        <time>2021-05-18T10:18:41Z</time>
      </trkpt>
      <trkpt lat="41.8272600" lon="-8.8728850">
        <ele>8.0</ele>
        <time>2021-05-18T10:18:42Z</time>
      </trkpt>
      <trkpt lat="41.8272680" lon="-8.8728830">
        <ele>8.0</ele>
        <time>2021-05-18T10:18:43Z</time>
      </trkpt>
      <trkpt lat="41.8272880" lon="-8.8728720">
        <ele>8.0</ele>
        <time>2021-05-18T10:18:44Z</time>
      </trkpt>
      <trkpt lat="41.8272970" lon="-8.8728720">
        <ele>8.0</ele>
        <time>2021-05-18T10:18:45Z</time>
      </trkpt>
      <trkpt lat="41.8273060" lon="-8.8728730">
        <ele>8.0</ele>
        <time>2021-05-18T10:18:46Z</time>
      </trkpt>
      <trkpt lat="41.8273180" lon="-8.8728700">
        <ele>8.0</ele>
        <time>2021-05-18T10:18:47Z</time>
      </trkpt>
      <trkpt lat="41.8273300" lon="-8.8728770">
        <ele>8.0</ele>
        <time>2021-05-18T10:18:48Z</time>
      </trkpt>
      <trkpt lat="41.8273400" lon="-8.8728790">
        <ele>8.0</ele>
        <time>2021-05-18T10:18:49Z</time>
      </trkpt>
      <trkpt lat="41.8273520" lon="-8.8728840">
        <ele>8.0</ele>
        <time>2021-05-18T10:18:50Z</time>
      </trkpt>
      <trkpt lat="41.8273660" lon="-8.8728880">
        <ele>8.0</ele>
        <time>2021-05-18T10:18:51Z</time>
      </trkpt>
      <trkpt lat="41.8273870" lon="-8.8728900">
        <ele>8.0</ele>
        <time>2021-05-18T10:18:52Z</time>
      </trkpt>
      <trkpt lat="41.8273960" lon="-8.8728900">
        <ele>8.0</ele>
        <time>2021-05-18T10:18:53Z</time>
      </trkpt>
      <trkpt lat="41.8274040" lon="-8.8728890">
        <ele>8.0</ele>
        <time>2021-05-18T10:18:54Z</time>
      </trkpt>
      <trkpt lat="41.8274250" lon="-8.8728920">
        <ele>8.1</ele>
        <time>2021-05-18T10:18:55Z</time>
      </trkpt>
      <trkpt lat="41.8274330" lon="-8.8728940">
        <ele>8.1</ele>
        <time>2021-05-18T10:18:56Z</time>
      </trkpt>
      <trkpt lat="41.8274420" lon="-8.8728960">
        <ele>8.1</ele>
        <time>2021-05-18T10:18:57Z</time>
      </trkpt>
      <trkpt lat="41.8274540" lon="-8.8728960">
        <ele>8.1</ele>
        <time>2021-05-18T10:18:58Z</time>
      </trkpt>
      <trkpt lat="41.8274660" lon="-8.8728930">
        <ele>8.1</ele>
        <time>2021-05-18T10:18:59Z</time>
      </trkpt>
      <trkpt lat="41.8274780" lon="-8.8728950">
        <ele>8.1</ele>
        <time>2021-05-18T10:19:00Z</time>
      </trkpt>
      <trkpt lat="41.8274920" lon="-8.8729010">
        <ele>8.1</ele>
        <time>2021-05-18T10:19:01Z</time>
      </trkpt>
      <trkpt lat="41.8275060" lon="-8.8729040">
        <ele>8.1</ele>
        <time>2021-05-18T10:19:02Z</time>
      </trkpt>
      <trkpt lat="41.8275280" lon="-8.8729070">
        <ele>8.1</ele>
        <time>2021-05-18T10:19:03Z</time>
      </trkpt>
      <trkpt lat="41.8275370" lon="-8.8729070">
        <ele>8.1</ele>
        <time>2021-05-18T10:19:04Z</time>
      </trkpt>
      <trkpt lat="41.8275460" lon="-8.8729070">
        <ele>8.1</ele>
        <time>2021-05-18T10:19:05Z</time>
      </trkpt>
      <trkpt lat="41.8275600" lon="-8.8729050">
        <ele>8.1</ele>
        <time>2021-05-18T10:19:06Z</time>
      </trkpt>
      <trkpt lat="41.8275740" lon="-8.8729080">
        <ele>8.2</ele>
        <time>2021-05-18T10:19:07Z</time>
      </trkpt>
      <trkpt lat="41.8275960" lon="-8.8729080">
        <ele>8.2</ele>
        <time>2021-05-18T10:19:08Z</time>
      </trkpt>
      <trkpt lat="41.8276050" lon="-8.8729100">
        <ele>8.2</ele>
        <time>2021-05-18T10:19:09Z</time>
      </trkpt>
      <trkpt lat="41.8276130" lon="-8.8729120">
        <ele>8.2</ele>
        <time>2021-05-18T10:19:10Z</time>
      </trkpt>
      <trkpt lat="41.8276340" lon="-8.8729170">
        <ele>8.2</ele>
        <time>2021-05-18T10:19:11Z</time>
      </trkpt>
      <trkpt lat="41.8276420" lon="-8.8729170">
        <ele>8.2</ele>
        <time>2021-05-18T10:19:12Z</time>
      </trkpt>
      <trkpt lat="41.8276500" lon="-8.8729180">
        <ele>8.2</ele>
        <time>2021-05-18T10:19:13Z</time>
      </trkpt>
      <trkpt lat="41.8276720" lon="-8.8729150">
        <ele>8.3</ele>
        <time>2021-05-18T10:19:14Z</time>
      </trkpt>
      <trkpt lat="41.8276810" lon="-8.8729150">
        <ele>8.3</ele>
        <time>2021-05-18T10:19:15Z</time>
      </trkpt>
      <trkpt lat="41.8276900" lon="-8.8729160">
        <ele>8.3</ele>
        <time>2021-05-18T10:19:16Z</time>
      </trkpt>
      <trkpt lat="41.8277110" lon="-8.8729130">
        <ele>8.3</ele>
        <time>2021-05-18T10:19:17Z</time>
      </trkpt>
      <trkpt lat="41.8277190" lon="-8.8729140">
        <ele>8.3</ele>
        <time>2021-05-18T10:19:18Z</time>
      </trkpt>
      <trkpt lat="41.8277270" lon="-8.8729140">
        <ele>8.4</ele>
        <time>2021-05-18T10:19:19Z</time>
      </trkpt>
      <trkpt lat="41.8277480" lon="-8.8729150">
        <ele>8.4</ele>
        <time>2021-05-18T10:19:20Z</time>
      </trkpt>
      <trkpt lat="41.8277570" lon="-8.8729160">
        <ele>8.4</ele>
        <time>2021-05-18T10:19:21Z</time>
      </trkpt>
      <trkpt lat="41.8277650" lon="-8.8729160">
        <ele>8.4</ele>
        <time>2021-05-18T10:19:22Z</time>
      </trkpt>
      <trkpt lat="41.8277790" lon="-8.8729210">
        <ele>8.4</ele>
        <time>2021-05-18T10:19:23Z</time>
      </trkpt>
      <trkpt lat="41.8277920" lon="-8.8729230">
        <ele>8.5</ele>
        <time>2021-05-18T10:19:24Z</time>
      </trkpt>
      <trkpt lat="41.8278130" lon="-8.8729240">
        <ele>8.5</ele>
        <time>2021-05-18T10:19:25Z</time>
      </trkpt>
      <trkpt lat="41.8278210" lon="-8.8729240">
        <ele>8.5</ele>
        <time>2021-05-18T10:19:26Z</time>
      </trkpt>
      <trkpt lat="41.8278290" lon="-8.8729240">
        <ele>8.5</ele>
        <time>2021-05-18T10:19:27Z</time>
      </trkpt>
      <trkpt lat="41.8278500" lon="-8.8729270">
        <ele>8.6</ele>
        <time>2021-05-18T10:19:28Z</time>
      </trkpt>
      <trkpt lat="41.8278590" lon="-8.8729280">
        <ele>8.6</ele>
        <time>2021-05-18T10:19:29Z</time>
      </trkpt>
      <trkpt lat="41.8278670" lon="-8.8729300">
        <ele>8.6</ele>
        <time>2021-05-18T10:19:30Z</time>
      </trkpt>
      <trkpt lat="41.8278860" lon="-8.8729350">
        <ele>8.7</ele>
        <time>2021-05-18T10:19:31Z</time>
      </trkpt>
      <trkpt lat="41.8278950" lon="-8.8729360">
        <ele>8.7</ele>
        <time>2021-05-18T10:19:32Z</time>
      </trkpt>
      <trkpt lat="41.8279030" lon="-8.8729360">
        <ele>8.7</ele>
        <time>2021-05-18T10:19:33Z</time>
      </trkpt>
      <trkpt lat="41.8279240" lon="-8.8729370">
        <ele>8.7</ele>
        <time>2021-05-18T10:19:34Z</time>
      </trkpt>
      <trkpt lat="41.8279330" lon="-8.8729350">
        <ele>8.8</ele>
        <time>2021-05-18T10:19:35Z</time>
      </trkpt>
      <trkpt lat="41.8279410" lon="-8.8729340">
        <ele>8.8</ele>
        <time>2021-05-18T10:19:36Z</time>
      </trkpt>
      <trkpt lat="41.8279610" lon="-8.8729350">
        <ele>8.8</ele>
        <time>2021-05-18T10:19:37Z</time>
      </trkpt>
      <trkpt lat="41.8279700" lon="-8.8729360">
        <ele>8.9</ele>
        <time>2021-05-18T10:19:38Z</time>
      </trkpt>
      <trkpt lat="41.8279780" lon="-8.8729370">
        <ele>8.9</ele>
        <time>2021-05-18T10:19:39Z</time>
      </trkpt>
      <trkpt lat="41.8280000" lon="-8.8729340">
        <ele>8.9</ele>
        <time>2021-05-18T10:19:40Z</time>
      </trkpt>
      <trkpt lat="41.8280090" lon="-8.8729340">
        <ele>9.0</ele>
        <time>2021-05-18T10:19:41Z</time>
      </trkpt>
      <trkpt lat="41.8280180" lon="-8.8729350">
        <ele>9.0</ele>
        <time>2021-05-18T10:19:42Z</time>
      </trkpt>
      <trkpt lat="41.8280390" lon="-8.8729410">
        <ele>9.1</ele>
        <time>2021-05-18T10:19:43Z</time>
      </trkpt>
      <trkpt lat="41.8280480" lon="-8.8729430">
        <ele>9.1</ele>
        <time>2021-05-18T10:19:44Z</time>
      </trkpt>
      <trkpt lat="41.8280560" lon="-8.8729440">
        <ele>9.1</ele>
        <time>2021-05-18T10:19:45Z</time>
      </trkpt>
      <trkpt lat="41.8280760" lon="-8.8729420">
        <ele>9.2</ele>
        <time>2021-05-18T10:19:46Z</time>
      </trkpt>
      <trkpt lat="41.8280850" lon="-8.8729430">
        <ele>9.2</ele>
        <time>2021-05-18T10:19:47Z</time>
      </trkpt>
      <trkpt lat="41.8280930" lon="-8.8729440">
        <ele>9.2</ele>
        <time>2021-05-18T10:19:48Z</time>
      </trkpt>
      <trkpt lat="41.8281110" lon="-8.8729440">
        <ele>9.3</ele>
        <time>2021-05-18T10:19:49Z</time>
      </trkpt>
      <trkpt lat="41.8281160" lon="-8.8729450">
        <ele>9.3</ele>
        <time>2021-05-18T10:19:50Z</time>
      </trkpt>
      <trkpt lat="41.8281200" lon="-8.8729450">
        <ele>9.3</ele>
        <time>2021-05-18T10:19:51Z</time>
      </trkpt>
      <trkpt lat="41.8281250" lon="-8.8729460">
        <ele>9.3</ele>
        <time>2021-05-18T10:19:52Z</time>
      </trkpt>
      <trkpt lat="41.8281300" lon="-8.8729460">
        <ele>9.3</ele>
        <time>2021-05-18T10:19:53Z</time>
      </trkpt>
      <trkpt lat="41.8281380" lon="-8.8729470">
        <ele>9.4</ele>
        <time>2021-05-18T10:19:54Z</time>
      </trkpt>
      <trkpt lat="41.8281380" lon="-8.8729390">
        <ele>9.4</ele>
        <time>2021-05-18T10:19:55Z</time>
      </trkpt>
      <trkpt lat="41.8281410" lon="-8.8729400">
        <ele>9.4</ele>
        <time>2021-05-18T10:19:56Z</time>
      </trkpt>
      <trkpt lat="41.8281410" lon="-8.8729400">
        <ele>9.4</ele>
        <time>2021-05-18T10:19:57Z</time>
      </trkpt>
      <trkpt lat="41.8281480" lon="-8.8729380">
        <ele>9.4</ele>
        <time>2021-05-18T10:19:58Z</time>
      </trkpt>
      <trkpt lat="41.8281500" lon="-8.8729400">
        <ele>9.4</ele>
        <time>2021-05-18T10:19:59Z</time>
      </trkpt>
      <trkpt lat="41.8281610" lon="-8.8729420">
        <ele>9.4</ele>
        <time>2021-05-18T10:20:00Z</time>
      </trkpt>
      <trkpt lat="41.8281750" lon="-8.8729430">
        <ele>9.5</ele>
        <time>2021-05-18T10:20:01Z</time>
      </trkpt>
      <trkpt lat="41.8281840" lon="-8.8729420">
        <ele>9.5</ele>
        <time>2021-05-18T10:20:02Z</time>
      </trkpt>
      <trkpt lat="41.8281930" lon="-8.8729420">
        <ele>9.5</ele>
        <time>2021-05-18T10:20:03Z</time>
      </trkpt>
      <trkpt lat="41.8282080" lon="-8.8729430">
        <ele>9.6</ele>
        <time>2021-05-18T10:20:04Z</time>
      </trkpt>
      <trkpt lat="41.8282180" lon="-8.8729410">
        <ele>9.6</ele>
        <time>2021-05-18T10:20:05Z</time>
      </trkpt>
      <trkpt lat="41.8282280" lon="-8.8729420">
        <ele>9.6</ele>
        <time>2021-05-18T10:20:06Z</time>
      </trkpt>
      <trkpt lat="41.8282400" lon="-8.8729440">
        <ele>9.6</ele>
        <time>2021-05-18T10:20:07Z</time>
      </trkpt>
      <trkpt lat="41.8282510" lon="-8.8729430">
        <ele>9.7</ele>
        <time>2021-05-18T10:20:08Z</time>
      </trkpt>
      <trkpt lat="41.8282600" lon="-8.8729440">
        <ele>9.7</ele>
        <time>2021-05-18T10:20:09Z</time>
      </trkpt>
      <trkpt lat="41.8282690" lon="-8.8729450">
        <ele>9.7</ele>
        <time>2021-05-18T10:20:10Z</time>
      </trkpt>
      <trkpt lat="41.8282760" lon="-8.8729490">
        <ele>9.7</ele>
        <time>2021-05-18T10:20:11Z</time>
      </trkpt>
      <trkpt lat="41.8282830" lon="-8.8729500">
        <ele>9.7</ele>
        <time>2021-05-18T10:20:12Z</time>
      </trkpt>
      <trkpt lat="41.8282950" lon="-8.8729540">
        <ele>9.7</ele>
        <time>2021-05-18T10:20:13Z</time>
      </trkpt>
      <trkpt lat="41.8283170" lon="-8.8729610">
        <ele>9.8</ele>
        <time>2021-05-18T10:20:14Z</time>
      </trkpt>
      <trkpt lat="41.8283240" lon="-8.8729640">
        <ele>9.8</ele>
        <time>2021-05-18T10:20:15Z</time>
      </trkpt>
      <trkpt lat="41.8283310" lon="-8.8729680">
        <ele>9.8</ele>
        <time>2021-05-18T10:20:16Z</time>
      </trkpt>
      <trkpt lat="41.8283380" lon="-8.8729730">
        <ele>9.8</ele>
        <time>2021-05-18T10:20:17Z</time>
      </trkpt>
      <trkpt lat="41.8283490" lon="-8.8729760">
        <ele>9.8</ele>
        <time>2021-05-18T10:20:18Z</time>
      </trkpt>
      <trkpt lat="41.8283590" lon="-8.8729880">
        <ele>9.8</ele>
        <time>2021-05-18T10:20:19Z</time>
      </trkpt>
      <trkpt lat="41.8283660" lon="-8.8729950">
        <ele>9.8</ele>
        <time>2021-05-18T10:20:20Z</time>
      </trkpt>
      <trkpt lat="41.8283780" lon="-8.8730050">
        <ele>9.8</ele>
        <time>2021-05-18T10:20:21Z</time>
      </trkpt>
      <trkpt lat="41.8283870" lon="-8.8730110">
        <ele>9.8</ele>
        <time>2021-05-18T10:20:22Z</time>
      </trkpt>
      <trkpt lat="41.8283920" lon="-8.8730230">
        <ele>9.8</ele>
        <time>2021-05-18T10:20:23Z</time>
      </trkpt>
      <trkpt lat="41.8284000" lon="-8.8730330">
        <ele>9.8</ele>
        <time>2021-05-18T10:20:24Z</time>
      </trkpt>
      <trkpt lat="41.8284070" lon="-8.8730450">
        <ele>9.8</ele>
        <time>2021-05-18T10:20:25Z</time>
      </trkpt>
      <trkpt lat="41.8284140" lon="-8.8730500">
        <ele>9.8</ele>
        <time>2021-05-18T10:20:26Z</time>
      </trkpt>
      <trkpt lat="41.8284210" lon="-8.8730600">
        <ele>9.8</ele>
        <time>2021-05-18T10:20:27Z</time>
      </trkpt>
      <trkpt lat="41.8284280" lon="-8.8730690">
        <ele>9.8</ele>
        <time>2021-05-18T10:20:28Z</time>
      </trkpt>
      <trkpt lat="41.8284320" lon="-8.8730810">
        <ele>9.8</ele>
        <time>2021-05-18T10:20:29Z</time>
      </trkpt>
      <trkpt lat="41.8284450" lon="-8.8730940">
        <ele>9.8</ele>
        <time>2021-05-18T10:20:30Z</time>
      </trkpt>
      <trkpt lat="41.8284520" lon="-8.8731000">
        <ele>9.8</ele>
        <time>2021-05-18T10:20:31Z</time>
      </trkpt>
      <trkpt lat="41.8284580" lon="-8.8731130">
        <ele>9.8</ele>
        <time>2021-05-18T10:20:32Z</time>
      </trkpt>
      <trkpt lat="41.8284700" lon="-8.8731300">
        <ele>9.8</ele>
        <time>2021-05-18T10:20:33Z</time>
      </trkpt>
      <trkpt lat="41.8284760" lon="-8.8731380">
        <ele>9.8</ele>
        <time>2021-05-18T10:20:34Z</time>
      </trkpt>
      <trkpt lat="41.8284870" lon="-8.8731460">
        <ele>9.8</ele>
        <time>2021-05-18T10:20:35Z</time>
      </trkpt>
      <trkpt lat="41.8284880" lon="-8.8731540">
        <ele>9.8</ele>
        <time>2021-05-18T10:20:36Z</time>
      </trkpt>
      <trkpt lat="41.8284950" lon="-8.8731660">
        <ele>9.8</ele>
        <time>2021-05-18T10:20:37Z</time>
      </trkpt>
      <trkpt lat="41.8284970" lon="-8.8731710">
        <ele>9.8</ele>
        <time>2021-05-18T10:20:38Z</time>
      </trkpt>
      <trkpt lat="41.8285070" lon="-8.8731800">
        <ele>9.8</ele>
        <time>2021-05-18T10:20:39Z</time>
      </trkpt>
      <trkpt lat="41.8285180" lon="-8.8731920">
        <ele>9.8</ele>
        <time>2021-05-18T10:20:40Z</time>
      </trkpt>
      <trkpt lat="41.8285320" lon="-8.8732070">
        <ele>9.8</ele>
        <time>2021-05-18T10:20:41Z</time>
      </trkpt>
      <trkpt lat="41.8285370" lon="-8.8732140">
        <ele>9.8</ele>
        <time>2021-05-18T10:20:42Z</time>
      </trkpt>
      <trkpt lat="41.8285430" lon="-8.8732220">
        <ele>9.8</ele>
        <time>2021-05-18T10:20:43Z</time>
      </trkpt>
      <trkpt lat="41.8285480" lon="-8.8732290">
        <ele>9.8</ele>
        <time>2021-05-18T10:20:44Z</time>
      </trkpt>
      <trkpt lat="41.8285520" lon="-8.8732530">
        <ele>9.8</ele>
        <time>2021-05-18T10:20:45Z</time>
      </trkpt>
      <trkpt lat="41.8285550" lon="-8.8732660">
        <ele>9.7</ele>
        <time>2021-05-18T10:20:46Z</time>
      </trkpt>
      <trkpt lat="41.8285580" lon="-8.8732790">
        <ele>9.7</ele>
        <time>2021-05-18T10:20:47Z</time>
      </trkpt>
      <trkpt lat="41.8285680" lon="-8.8732890">
        <ele>9.7</ele>
        <time>2021-05-18T10:20:48Z</time>
      </trkpt>
      <trkpt lat="41.8285830" lon="-8.8733050">
        <ele>9.7</ele>
        <time>2021-05-18T10:20:49Z</time>
      </trkpt>
      <trkpt lat="41.8285970" lon="-8.8733200">
        <ele>9.7</ele>
        <time>2021-05-18T10:20:50Z</time>
      </trkpt>
      <trkpt lat="41.8286070" lon="-8.8733330">
        <ele>9.7</ele>
        <time>2021-05-18T10:20:51Z</time>
      </trkpt>
      <trkpt lat="41.8286160" lon="-8.8733430">
        <ele>9.7</ele>
        <time>2021-05-18T10:20:52Z</time>
      </trkpt>
      <trkpt lat="41.8286220" lon="-8.8733580">
        <ele>9.7</ele>
        <time>2021-05-18T10:20:53Z</time>
      </trkpt>
      <trkpt lat="41.8286270" lon="-8.8733740">
        <ele>9.7</ele>
        <time>2021-05-18T10:20:54Z</time>
      </trkpt>
      <trkpt lat="41.8286360" lon="-8.8734000">
        <ele>9.7</ele>
        <time>2021-05-18T10:20:55Z</time>
      </trkpt>
      <trkpt lat="41.8286430" lon="-8.8734090">
        <ele>9.7</ele>
        <time>2021-05-18T10:20:56Z</time>
      </trkpt>
      <trkpt lat="41.8286490" lon="-8.8734170">
        <ele>9.7</ele>
        <time>2021-05-18T10:20:57Z</time>
      </trkpt>
      <trkpt lat="41.8286610" lon="-8.8734330">
        <ele>9.7</ele>
        <time>2021-05-18T10:20:58Z</time>
      </trkpt>
      <trkpt lat="41.8286740" lon="-8.8734430">
        <ele>9.7</ele>
        <time>2021-05-18T10:20:59Z</time>
      </trkpt>
      <trkpt lat="41.8286900" lon="-8.8734640">
        <ele>9.7</ele>
        <time>2021-05-18T10:21:00Z</time>
      </trkpt>
      <trkpt lat="41.8286980" lon="-8.8734700">
        <ele>9.7</ele>
        <time>2021-05-18T10:21:01Z</time>
      </trkpt>
      <trkpt lat="41.8287050" lon="-8.8734760">
        <ele>9.7</ele>
        <time>2021-05-18T10:21:02Z</time>
      </trkpt>
      <trkpt lat="41.8287140" lon="-8.8734850">
        <ele>9.7</ele>
        <time>2021-05-18T10:21:03Z</time>
      </trkpt>
      <trkpt lat="41.8287200" lon="-8.8734910">
        <ele>9.7</ele>
        <time>2021-05-18T10:21:04Z</time>
      </trkpt>
      <trkpt lat="41.8287300" lon="-8.8735070">
        <ele>9.7</ele>
        <time>2021-05-18T10:21:05Z</time>
      </trkpt>
      <trkpt lat="41.8287480" lon="-8.8735200">
        <ele>9.7</ele>
        <time>2021-05-18T10:21:06Z</time>
      </trkpt>
      <trkpt lat="41.8287580" lon="-8.8735240">
        <ele>9.7</ele>
        <time>2021-05-18T10:21:07Z</time>
      </trkpt>
      <trkpt lat="41.8287670" lon="-8.8735270">
        <ele>9.7</ele>
        <time>2021-05-18T10:21:08Z</time>
      </trkpt>
      <trkpt lat="41.8287780" lon="-8.8735390">
        <ele>9.7</ele>
        <time>2021-05-18T10:21:09Z</time>
      </trkpt>
      <trkpt lat="41.8287870" lon="-8.8735500">
        <ele>9.7</ele>
        <time>2021-05-18T10:21:10Z</time>
      </trkpt>
      <trkpt lat="41.8287940" lon="-8.8735570">
        <ele>9.6</ele>
        <time>2021-05-18T10:21:11Z</time>
      </trkpt>
      <trkpt lat="41.8288110" lon="-8.8735710">
        <ele>9.6</ele>
        <time>2021-05-18T10:21:12Z</time>
      </trkpt>
      <trkpt lat="41.8288200" lon="-8.8735790">
        <ele>9.6</ele>
        <time>2021-05-18T10:21:13Z</time>
      </trkpt>
      <trkpt lat="41.8288280" lon="-8.8735880">
        <ele>9.6</ele>
        <time>2021-05-18T10:21:14Z</time>
      </trkpt>
      <trkpt lat="41.8288400" lon="-8.8735980">
        <ele>9.6</ele>
        <time>2021-05-18T10:21:15Z</time>
      </trkpt>
      <trkpt lat="41.8288510" lon="-8.8736110">
        <ele>9.6</ele>
        <time>2021-05-18T10:21:16Z</time>
      </trkpt>
      <trkpt lat="41.8288570" lon="-8.8736130">
        <ele>9.6</ele>
        <time>2021-05-18T10:21:17Z</time>
      </trkpt>
      <trkpt lat="41.8288690" lon="-8.8736240">
        <ele>9.6</ele>
        <time>2021-05-18T10:21:18Z</time>
      </trkpt>
      <trkpt lat="41.8288780" lon="-8.8736310">
        <ele>9.6</ele>
        <time>2021-05-18T10:21:19Z</time>
      </trkpt>
      <trkpt lat="41.8288950" lon="-8.8736460">
        <ele>9.6</ele>
        <time>2021-05-18T10:21:20Z</time>
      </trkpt>
      <trkpt lat="41.8289030" lon="-8.8736510">
        <ele>9.6</ele>
        <time>2021-05-18T10:21:21Z</time>
      </trkpt>
      <trkpt lat="41.8289120" lon="-8.8736570">
        <ele>9.5</ele>
        <time>2021-05-18T10:21:22Z</time>
      </trkpt>
      <trkpt lat="41.8289310" lon="-8.8736720">
        <ele>9.5</ele>
        <time>2021-05-18T10:21:23Z</time>
      </trkpt>
      <trkpt lat="41.8289380" lon="-8.8736790">
        <ele>9.5</ele>
        <time>2021-05-18T10:21:24Z</time>
      </trkpt>
      <trkpt lat="41.8289450" lon="-8.8736850">
        <ele>9.5</ele>
        <time>2021-05-18T10:21:25Z</time>
      </trkpt>
      <trkpt lat="41.8289520" lon="-8.8736940">
        <ele>9.5</ele>
        <time>2021-05-18T10:21:26Z</time>
      </trkpt>
      <trkpt lat="41.8289630" lon="-8.8737040">
        <ele>9.5</ele>
        <time>2021-05-18T10:21:27Z</time>
      </trkpt>
      <trkpt lat="41.8289740" lon="-8.8737110">
        <ele>9.5</ele>
        <time>2021-05-18T10:21:28Z</time>
      </trkpt>
      <trkpt lat="41.8289850" lon="-8.8737180">
        <ele>9.5</ele>
        <time>2021-05-18T10:21:29Z</time>
      </trkpt>
      <trkpt lat="41.8289930" lon="-8.8737270">
        <ele>9.5</ele>
        <time>2021-05-18T10:21:30Z</time>
      </trkpt>
      <trkpt lat="41.8290060" lon="-8.8737350">
        <ele>9.5</ele>
        <time>2021-05-18T10:21:31Z</time>
      </trkpt>
      <trkpt lat="41.8290200" lon="-8.8737510">
        <ele>9.4</ele>
        <time>2021-05-18T10:21:32Z</time>
      </trkpt>
      <trkpt lat="41.8290270" lon="-8.8737580">
        <ele>9.4</ele>
        <time>2021-05-18T10:21:33Z</time>
      </trkpt>
      <trkpt lat="41.8290350" lon="-8.8737660">
        <ele>9.4</ele>
        <time>2021-05-18T10:21:34Z</time>
      </trkpt>
      <trkpt lat="41.8290460" lon="-8.8737710">
        <ele>9.4</ele>
        <time>2021-05-18T10:21:35Z</time>
      </trkpt>
      <trkpt lat="41.8290550" lon="-8.8737770">
        <ele>9.4</ele>
        <time>2021-05-18T10:21:36Z</time>
      </trkpt>
      <trkpt lat="41.8290640" lon="-8.8737860">
        <ele>9.4</ele>
        <time>2021-05-18T10:21:37Z</time>
      </trkpt>
      <trkpt lat="41.8290760" lon="-8.8738010">
        <ele>9.4</ele>
        <time>2021-05-18T10:21:38Z</time>
      </trkpt>
      <trkpt lat="41.8290860" lon="-8.8738080">
        <ele>9.4</ele>
        <time>2021-05-18T10:21:39Z</time>
      </trkpt>
      <trkpt lat="41.8291040" lon="-8.8738250">
        <ele>9.3</ele>
        <time>2021-05-18T10:21:40Z</time>
      </trkpt>
      <trkpt lat="41.8291100" lon="-8.8738310">
        <ele>9.3</ele>
        <time>2021-05-18T10:21:41Z</time>
      </trkpt>
      <trkpt lat="41.8291170" lon="-8.8738370">
        <ele>9.3</ele>
        <time>2021-05-18T10:21:42Z</time>
      </trkpt>
      <trkpt lat="41.8291340" lon="-8.8738510">
        <ele>9.3</ele>
        <time>2021-05-18T10:21:43Z</time>
      </trkpt>
      <trkpt lat="41.8291400" lon="-8.8738590">
        <ele>9.3</ele>
        <time>2021-05-18T10:21:44Z</time>
      </trkpt>
      <trkpt lat="41.8291470" lon="-8.8738670">
        <ele>9.3</ele>
        <time>2021-05-18T10:21:45Z</time>
      </trkpt>
      <trkpt lat="41.8291590" lon="-8.8738760">
        <ele>9.3</ele>
        <time>2021-05-18T10:21:46Z</time>
      </trkpt>
      <trkpt lat="41.8291720" lon="-8.8738870">
        <ele>9.2</ele>
        <time>2021-05-18T10:21:47Z</time>
      </trkpt>
      <trkpt lat="41.8291910" lon="-8.8738990">
        <ele>9.2</ele>
        <time>2021-05-18T10:21:48Z</time>
      </trkpt>
      <trkpt lat="41.8291990" lon="-8.8739040">
        <ele>9.2</ele>
        <time>2021-05-18T10:21:49Z</time>
      </trkpt>
      <trkpt lat="41.8292080" lon="-8.8739090">
        <ele>9.2</ele>
        <time>2021-05-18T10:21:50Z</time>
      </trkpt>
      <trkpt lat="41.8292260" lon="-8.8739140">
        <ele>9.2</ele>
        <time>2021-05-18T10:21:51Z</time>
      </trkpt>
      <trkpt lat="41.8292370" lon="-8.8739170">
        <ele>9.2</ele>
        <time>2021-05-18T10:21:52Z</time>
      </trkpt>
      <trkpt lat="41.8292470" lon="-8.8739210">
        <ele>9.2</ele>
        <time>2021-05-18T10:21:53Z</time>
      </trkpt>
      <trkpt lat="41.8292540" lon="-8.8739250">
        <ele>9.1</ele>
        <time>2021-05-18T10:21:54Z</time>
      </trkpt>
      <trkpt lat="41.8292610" lon="-8.8739330">
        <ele>9.1</ele>
        <time>2021-05-18T10:21:55Z</time>
      </trkpt>
      <trkpt lat="41.8292750" lon="-8.8739400">
        <ele>9.1</ele>
        <time>2021-05-18T10:21:56Z</time>
      </trkpt>
      <trkpt lat="41.8292860" lon="-8.8739450">
        <ele>9.1</ele>
        <time>2021-05-18T10:21:57Z</time>
      </trkpt>
      <trkpt lat="41.8292970" lon="-8.8739490">
        <ele>9.1</ele>
        <time>2021-05-18T10:21:58Z</time>
      </trkpt>
      <trkpt lat="41.8293080" lon="-8.8739560">
        <ele>9.1</ele>
        <time>2021-05-18T10:21:59Z</time>
      </trkpt>
      <trkpt lat="41.8293150" lon="-8.8739580">
        <ele>9.1</ele>
        <time>2021-05-18T10:22:00Z</time>
      </trkpt>
      <trkpt lat="41.8293190" lon="-8.8739570">
        <ele>9.1</ele>
        <time>2021-05-18T10:22:01Z</time>
      </trkpt>
      <trkpt lat="41.8293150" lon="-8.8739530">
        <ele>9.1</ele>
        <time>2021-05-18T10:22:02Z</time>
      </trkpt>
      <trkpt lat="41.8293160" lon="-8.8739510">
        <ele>9.1</ele>
        <time>2021-05-18T10:22:03Z</time>
      </trkpt>
      <trkpt lat="41.8293180" lon="-8.8739510">
        <ele>9.1</ele>
        <time>2021-05-18T10:22:04Z</time>
      </trkpt>
      <trkpt lat="41.8293180" lon="-8.8739490">
        <ele>9.1</ele>
        <time>2021-05-18T10:22:05Z</time>
      </trkpt>
      <trkpt lat="41.8293190" lon="-8.8739510">
        <ele>9.1</ele>
        <time>2021-05-18T10:22:06Z</time>
      </trkpt>
      <trkpt lat="41.8293180" lon="-8.8739530">
        <ele>9.1</ele>
        <time>2021-05-18T10:22:07Z</time>
      </trkpt>
      <trkpt lat="41.8293220" lon="-8.8739510">
        <ele>9.1</ele>
        <time>2021-05-18T10:22:08Z</time>
      </trkpt>
      <trkpt lat="41.8293210" lon="-8.8739480">
        <ele>9.1</ele>
        <time>2021-05-18T10:22:09Z</time>
      </trkpt>
      <trkpt lat="41.8293220" lon="-8.8739470">
        <ele>9.1</ele>
        <time>2021-05-18T10:22:10Z</time>
      </trkpt>
      <trkpt lat="41.8293240" lon="-8.8739450">
        <ele>9.1</ele>
        <time>2021-05-18T10:22:11Z</time>
      </trkpt>
      <trkpt lat="41.8293220" lon="-8.8739420">
        <ele>9.1</ele>
        <time>2021-05-18T10:22:12Z</time>
      </trkpt>
      <trkpt lat="41.8293190" lon="-8.8739400">
        <ele>9.1</ele>
        <time>2021-05-18T10:22:13Z</time>
      </trkpt>
      <trkpt lat="41.8293150" lon="-8.8739360">
        <ele>9.1</ele>
        <time>2021-05-18T10:22:14Z</time>
      </trkpt>
      <trkpt lat="41.8293110" lon="-8.8739360">
        <ele>9.1</ele>
        <time>2021-05-18T10:22:15Z</time>
      </trkpt>
      <trkpt lat="41.8293090" lon="-8.8739350">
        <ele>9.1</ele>
        <time>2021-05-18T10:22:16Z</time>
      </trkpt>
      <trkpt lat="41.8293070" lon="-8.8739330">
        <ele>9.1</ele>
        <time>2021-05-18T10:22:17Z</time>
      </trkpt>
      <trkpt lat="41.8293070" lon="-8.8739340">
        <ele>9.1</ele>
        <time>2021-05-18T10:22:18Z</time>
      </trkpt>
      <trkpt lat="41.8293070" lon="-8.8739290">
        <ele>9.1</ele>
        <time>2021-05-18T10:22:19Z</time>
      </trkpt>
      <trkpt lat="41.8293090" lon="-8.8739260">
        <ele>9.0</ele>
        <time>2021-05-18T10:22:20Z</time>
      </trkpt>
      <trkpt lat="41.8293110" lon="-8.8739240">
        <ele>9.0</ele>
        <time>2021-05-18T10:22:21Z</time>
      </trkpt>
      <trkpt lat="41.8293140" lon="-8.8739220">
        <ele>9.0</ele>
        <time>2021-05-18T10:22:22Z</time>
      </trkpt>
      <trkpt lat="41.8293170" lon="-8.8739200">
        <ele>9.0</ele>
        <time>2021-05-18T10:22:23Z</time>
      </trkpt>
      <trkpt lat="41.8293190" lon="-8.8739190">
        <ele>9.0</ele>
        <time>2021-05-18T10:22:24Z</time>
      </trkpt>
      <trkpt lat="41.8293200" lon="-8.8739180">
        <ele>9.0</ele>
        <time>2021-05-18T10:22:25Z</time>
      </trkpt>
      <trkpt lat="41.8293210" lon="-8.8739150">
        <ele>9.0</ele>
        <time>2021-05-18T10:22:26Z</time>
      </trkpt>
      <trkpt lat="41.8293230" lon="-8.8739140">
        <ele>9.0</ele>
        <time>2021-05-18T10:22:27Z</time>
      </trkpt>
      <trkpt lat="41.8293240" lon="-8.8739110">
        <ele>9.0</ele>
        <time>2021-05-18T10:22:28Z</time>
      </trkpt>
      <trkpt lat="41.8293260" lon="-8.8739080">
        <ele>9.0</ele>
        <time>2021-05-18T10:22:29Z</time>
      </trkpt>
      <trkpt lat="41.8293280" lon="-8.8739120">
        <ele>9.0</ele>
        <time>2021-05-18T10:22:30Z</time>
      </trkpt>
      <trkpt lat="41.8293240" lon="-8.8739110">
        <ele>9.0</ele>
        <time>2021-05-18T10:22:31Z</time>
      </trkpt>
      <trkpt lat="41.8293330" lon="-8.8739050">
        <ele>9.0</ele>
        <time>2021-05-18T10:22:32Z</time>
      </trkpt>
      <trkpt lat="41.8293460" lon="-8.8739150">
        <ele>9.0</ele>
        <time>2021-05-18T10:22:33Z</time>
      </trkpt>
      <trkpt lat="41.8293580" lon="-8.8739190">
        <ele>9.0</ele>
        <time>2021-05-18T10:22:34Z</time>
      </trkpt>
      <trkpt lat="41.8293710" lon="-8.8739290">
        <ele>9.0</ele>
        <time>2021-05-18T10:22:35Z</time>
      </trkpt>
      <trkpt lat="41.8293790" lon="-8.8739340">
        <ele>9.0</ele>
        <time>2021-05-18T10:22:36Z</time>
      </trkpt>
      <trkpt lat="41.8293900" lon="-8.8739390">
        <ele>9.0</ele>
        <time>2021-05-18T10:22:37Z</time>
      </trkpt>
      <trkpt lat="41.8294020" lon="-8.8739430">
        <ele>9.0</ele>
        <time>2021-05-18T10:22:38Z</time>
      </trkpt>
      <trkpt lat="41.8294120" lon="-8.8739450">
        <ele>9.0</ele>
        <time>2021-05-18T10:22:39Z</time>
      </trkpt>
      <trkpt lat="41.8294250" lon="-8.8739520">
        <ele>9.0</ele>
        <time>2021-05-18T10:22:40Z</time>
      </trkpt>
      <trkpt lat="41.8294400" lon="-8.8739510">
        <ele>9.0</ele>
        <time>2021-05-18T10:22:41Z</time>
      </trkpt>
      <trkpt lat="41.8294560" lon="-8.8739480">
        <ele>9.0</ele>
        <time>2021-05-18T10:22:42Z</time>
      </trkpt>
      <trkpt lat="41.8294660" lon="-8.8739610">
        <ele>9.0</ele>
        <time>2021-05-18T10:22:43Z</time>
      </trkpt>
      <trkpt lat="41.8294710" lon="-8.8739720">
        <ele>9.0</ele>
        <time>2021-05-18T10:22:44Z</time>
      </trkpt>
      <trkpt lat="41.8294810" lon="-8.8739720">
        <ele>9.0</ele>
        <time>2021-05-18T10:22:45Z</time>
      </trkpt>
      <trkpt lat="41.8294920" lon="-8.8739740">
        <ele>9.0</ele>
        <time>2021-05-18T10:22:46Z</time>
      </trkpt>
      <trkpt lat="41.8295110" lon="-8.8739820">
        <ele>9.0</ele>
        <time>2021-05-18T10:22:47Z</time>
      </trkpt>
      <trkpt lat="41.8295200" lon="-8.8739870">
        <ele>9.0</ele>
        <time>2021-05-18T10:22:48Z</time>
      </trkpt>
      <trkpt lat="41.8295280" lon="-8.8739910">
        <ele>9.0</ele>
        <time>2021-05-18T10:22:49Z</time>
      </trkpt>
      <trkpt lat="41.8295400" lon="-8.8739950">
        <ele>9.0</ele>
        <time>2021-05-18T10:22:50Z</time>
      </trkpt>
      <trkpt lat="41.8295490" lon="-8.8739980">
        <ele>9.0</ele>
        <time>2021-05-18T10:22:51Z</time>
      </trkpt>
      <trkpt lat="41.8295610" lon="-8.8740030">
        <ele>9.0</ele>
        <time>2021-05-18T10:22:52Z</time>
      </trkpt>
      <trkpt lat="41.8295730" lon="-8.8740090">
        <ele>9.0</ele>
        <time>2021-05-18T10:22:53Z</time>
      </trkpt>
      <trkpt lat="41.8295860" lon="-8.8740160">
        <ele>9.0</ele>
        <time>2021-05-18T10:22:54Z</time>
      </trkpt>
      <trkpt lat="41.8295930" lon="-8.8740180">
        <ele>9.0</ele>
        <time>2021-05-18T10:22:55Z</time>
      </trkpt>
      <trkpt lat="41.8296060" lon="-8.8740190">
        <ele>9.0</ele>
        <time>2021-05-18T10:22:56Z</time>
      </trkpt>
      <trkpt lat="41.8296190" lon="-8.8740260">
        <ele>9.0</ele>
        <time>2021-05-18T10:22:57Z</time>
      </trkpt>
      <trkpt lat="41.8296300" lon="-8.8740320">
        <ele>9.0</ele>
        <time>2021-05-18T10:22:58Z</time>
      </trkpt>
      <trkpt lat="41.8296400" lon="-8.8740310">
        <ele>9.0</ele>
        <time>2021-05-18T10:22:59Z</time>
      </trkpt>
      <trkpt lat="41.8296500" lon="-8.8740340">
        <ele>9.0</ele>
        <time>2021-05-18T10:23:00Z</time>
      </trkpt>
      <trkpt lat="41.8296580" lon="-8.8740350">
        <ele>9.0</ele>
        <time>2021-05-18T10:23:01Z</time>
      </trkpt>
      <trkpt lat="41.8296690" lon="-8.8740370">
        <ele>9.0</ele>
        <time>2021-05-18T10:23:02Z</time>
      </trkpt>
      <trkpt lat="41.8296800" lon="-8.8740410">
        <ele>9.0</ele>
        <time>2021-05-18T10:23:03Z</time>
      </trkpt>
      <trkpt lat="41.8296890" lon="-8.8740440">
        <ele>9.0</ele>
        <time>2021-05-18T10:23:04Z</time>
      </trkpt>
      <trkpt lat="41.8297010" lon="-8.8740480">
        <ele>9.0</ele>
        <time>2021-05-18T10:23:05Z</time>
      </trkpt>
      <trkpt lat="41.8297120" lon="-8.8740500">
        <ele>9.0</ele>
        <time>2021-05-18T10:23:06Z</time>
      </trkpt>
      <trkpt lat="41.8297200" lon="-8.8740580">
        <ele>9.0</ele>
        <time>2021-05-18T10:23:07Z</time>
      </trkpt>
      <trkpt lat="41.8297300" lon="-8.8740620">
        <ele>9.0</ele>
        <time>2021-05-18T10:23:08Z</time>
      </trkpt>
      <trkpt lat="41.8297400" lon="-8.8740640">
        <ele>9.0</ele>
        <time>2021-05-18T10:23:09Z</time>
      </trkpt>
      <trkpt lat="41.8297510" lon="-8.8740690">
        <ele>9.0</ele>
        <time>2021-05-18T10:23:10Z</time>
      </trkpt>
      <trkpt lat="41.8297630" lon="-8.8740770">
        <ele>9.0</ele>
        <time>2021-05-18T10:23:11Z</time>
      </trkpt>
      <trkpt lat="41.8297650" lon="-8.8740800">
        <ele>9.0</ele>
        <time>2021-05-18T10:23:12Z</time>
      </trkpt>
      <trkpt lat="41.8297740" lon="-8.8740830">
        <ele>9.0</ele>
        <time>2021-05-18T10:23:13Z</time>
      </trkpt>
      <trkpt lat="41.8297790" lon="-8.8740810">
        <ele>9.0</ele>
        <time>2021-05-18T10:23:14Z</time>
      </trkpt>
      <trkpt lat="41.8297890" lon="-8.8740820">
        <ele>9.0</ele>
        <time>2021-05-18T10:23:15Z</time>
      </trkpt>
      <trkpt lat="41.8298000" lon="-8.8740870">
        <ele>9.0</ele>
        <time>2021-05-18T10:23:16Z</time>
      </trkpt>
      <trkpt lat="41.8298060" lon="-8.8740920">
        <ele>9.0</ele>
        <time>2021-05-18T10:23:17Z</time>
      </trkpt>
      <trkpt lat="41.8298080" lon="-8.8740980">
        <ele>9.0</ele>
        <time>2021-05-18T10:23:18Z</time>
      </trkpt>
      <trkpt lat="41.8298080" lon="-8.8741030">
        <ele>9.0</ele>
        <time>2021-05-18T10:23:19Z</time>
      </trkpt>
      <trkpt lat="41.8298110" lon="-8.8741050">
        <ele>9.0</ele>
        <time>2021-05-18T10:23:20Z</time>
      </trkpt>
      <trkpt lat="41.8298220" lon="-8.8741150">
        <ele>8.9</ele>
        <time>2021-05-18T10:23:21Z</time>
      </trkpt>
      <trkpt lat="41.8298260" lon="-8.8741230">
        <ele>8.9</ele>
        <time>2021-05-18T10:23:22Z</time>
      </trkpt>
      <trkpt lat="41.8298270" lon="-8.8741240">
        <ele>8.9</ele>
        <time>2021-05-18T10:23:23Z</time>
      </trkpt>
      <trkpt lat="41.8298290" lon="-8.8741260">
        <ele>8.9</ele>
        <time>2021-05-18T10:23:24Z</time>
      </trkpt>
      <trkpt lat="41.8298300" lon="-8.8741270">
        <ele>8.9</ele>
        <time>2021-05-18T10:23:25Z</time>
      </trkpt>
      <trkpt lat="41.8298310" lon="-8.8741290">
        <ele>8.9</ele>
        <time>2021-05-18T10:23:26Z</time>
      </trkpt>
      <trkpt lat="41.8298320" lon="-8.8741310">
        <ele>8.9</ele>
        <time>2021-05-18T10:23:27Z</time>
      </trkpt>
      <trkpt lat="41.8298340" lon="-8.8741320">
        <ele>8.9</ele>
        <time>2021-05-18T10:23:28Z</time>
      </trkpt>
      <trkpt lat="41.8298350" lon="-8.8741340">
        <ele>8.9</ele>
        <time>2021-05-18T10:23:29Z</time>
      </trkpt>
      <trkpt lat="41.8298360" lon="-8.8741360">
        <ele>8.9</ele>
        <time>2021-05-18T10:23:30Z</time>
      </trkpt>
      <trkpt lat="41.8298370" lon="-8.8741370">
        <ele>8.9</ele>
        <time>2021-05-18T10:23:31Z</time>
      </trkpt>
      <trkpt lat="41.8298390" lon="-8.8741390">
        <ele>8.9</ele>
        <time>2021-05-18T10:23:32Z</time>
      </trkpt>
      <trkpt lat="41.8298400" lon="-8.8741400">
        <ele>8.9</ele>
        <time>2021-05-18T10:23:33Z</time>
      </trkpt>
      <trkpt lat="41.8298410" lon="-8.8741420">
        <ele>8.9</ele>
        <time>2021-05-18T10:23:34Z</time>
      </trkpt>
      <trkpt lat="41.8298420" lon="-8.8741440">
        <ele>8.9</ele>
        <time>2021-05-18T10:23:35Z</time>
      </trkpt>
      <trkpt lat="41.8298440" lon="-8.8741450">
        <ele>8.9</ele>
        <time>2021-05-18T10:23:36Z</time>
      </trkpt>
      <trkpt lat="41.8298450" lon="-8.8741470">
        <ele>8.9</ele>
        <time>2021-05-18T10:23:37Z</time>
      </trkpt>
      <trkpt lat="41.8298460" lon="-8.8741490">
        <ele>8.9</ele>
        <time>2021-05-18T10:23:38Z</time>
      </trkpt>
      <trkpt lat="41.8298470" lon="-8.8741500">
        <ele>8.9</ele>
        <time>2021-05-18T10:23:39Z</time>
      </trkpt>
      <trkpt lat="41.8298490" lon="-8.8741520">
        <ele>8.9</ele>
        <time>2021-05-18T10:23:40Z</time>
      </trkpt>
      <trkpt lat="41.8298500" lon="-8.8741530">
        <ele>8.9</ele>
        <time>2021-05-18T10:23:41Z</time>
      </trkpt>
      <trkpt lat="41.8298510" lon="-8.8741550">
        <ele>8.9</ele>
        <time>2021-05-18T10:23:42Z</time>
      </trkpt>
      <trkpt lat="41.8298670" lon="-8.8741680">
        <ele>8.9</ele>
        <time>2021-05-18T10:23:43Z</time>
      </trkpt>
      <trkpt lat="41.8298710" lon="-8.8741760">
        <ele>8.9</ele>
        <time>2021-05-18T10:23:44Z</time>
      </trkpt>
      <trkpt lat="41.8298760" lon="-8.8741830">
        <ele>8.9</ele>
        <time>2021-05-18T10:23:45Z</time>
      </trkpt>
      <trkpt lat="41.8298820" lon="-8.8741880">
        <ele>8.9</ele>
        <time>2021-05-18T10:23:46Z</time>
      </trkpt>
      <trkpt lat="41.8298890" lon="-8.8741910">
        <ele>8.8</ele>
        <time>2021-05-18T10:23:47Z</time>
      </trkpt>
      <trkpt lat="41.8298950" lon="-8.8741940">
        <ele>8.8</ele>
        <time>2021-05-18T10:23:48Z</time>
      </trkpt>
      <trkpt lat="41.8298940" lon="-8.8741910">
        <ele>8.8</ele>
        <time>2021-05-18T10:23:49Z</time>
      </trkpt>
      <trkpt lat="41.8298930" lon="-8.8741870">
        <ele>8.8</ele>
        <time>2021-05-18T10:23:50Z</time>
      </trkpt>
      <trkpt lat="41.8298960" lon="-8.8741860">
        <ele>8.8</ele>
        <time>2021-05-18T10:23:51Z</time>
      </trkpt>
      <trkpt lat="41.8298950" lon="-8.8741820">
        <ele>8.8</ele>
        <time>2021-05-18T10:23:52Z</time>
      </trkpt>
      <trkpt lat="41.8299000" lon="-8.8741700">
        <ele>8.8</ele>
        <time>2021-05-18T10:23:53Z</time>
      </trkpt>
      <trkpt lat="41.8299010" lon="-8.8741700">
        <ele>8.8</ele>
        <time>2021-05-18T10:23:54Z</time>
      </trkpt>
      <trkpt lat="41.8298990" lon="-8.8741640">
        <ele>8.8</ele>
        <time>2021-05-18T10:23:55Z</time>
      </trkpt>
      <trkpt lat="41.8299000" lon="-8.8741640">
        <ele>8.8</ele>
        <time>2021-05-18T10:23:56Z</time>
      </trkpt>
      <trkpt lat="41.8299070" lon="-8.8741610">
        <ele>8.8</ele>
        <time>2021-05-18T10:23:57Z</time>
      </trkpt>
      <trkpt lat="41.8299070" lon="-8.8741600">
        <ele>8.8</ele>
        <time>2021-05-18T10:23:58Z</time>
      </trkpt>
      <trkpt lat="41.8299080" lon="-8.8741600">
        <ele>8.8</ele>
        <time>2021-05-18T10:23:59Z</time>
      </trkpt>
      <trkpt lat="41.8299060" lon="-8.8741590">
        <ele>8.8</ele>
        <time>2021-05-18T10:24:00Z</time>
      </trkpt>
      <trkpt lat="41.8299100" lon="-8.8741590">
        <ele>8.8</ele>
        <time>2021-05-18T10:24:01Z</time>
      </trkpt>
      <trkpt lat="41.8299100" lon="-8.8741560">
        <ele>8.8</ele>
        <time>2021-05-18T10:24:02Z</time>
      </trkpt>
      <trkpt lat="41.8299090" lon="-8.8741600">
        <ele>8.8</ele>
        <time>2021-05-18T10:24:03Z</time>
      </trkpt>
      <trkpt lat="41.8299060" lon="-8.8741630">
        <ele>8.8</ele>
        <time>2021-05-18T10:24:04Z</time>
      </trkpt>
      <trkpt lat="41.8298960" lon="-8.8741750">
        <ele>8.8</ele>
        <time>2021-05-18T10:24:05Z</time>
      </trkpt>
      <trkpt lat="41.8298870" lon="-8.8741840">
        <ele>8.7</ele>
        <time>2021-05-18T10:24:06Z</time>
      </trkpt>
      <trkpt lat="41.8298780" lon="-8.8741980">
        <ele>8.7</ele>
        <time>2021-05-18T10:24:07Z</time>
      </trkpt>
      <trkpt lat="41.8298720" lon="-8.8742120">
        <ele>8.7</ele>
        <time>2021-05-18T10:24:08Z</time>
      </trkpt>
      <trkpt lat="41.8298600" lon="-8.8742400">
        <ele>8.7</ele>
        <time>2021-05-18T10:24:09Z</time>
      </trkpt>
      <trkpt lat="41.8298520" lon="-8.8742610">
        <ele>8.7</ele>
        <time>2021-05-18T10:24:10Z</time>
      </trkpt>
      <trkpt lat="41.8298480" lon="-8.8742740">
        <ele>8.7</ele>
        <time>2021-05-18T10:24:11Z</time>
      </trkpt>
      <trkpt lat="41.8298410" lon="-8.8742970">
        <ele>8.6</ele>
        <time>2021-05-18T10:24:12Z</time>
      </trkpt>
      <trkpt lat="41.8298410" lon="-8.8743120">
        <ele>8.6</ele>
        <time>2021-05-18T10:24:13Z</time>
      </trkpt>
      <trkpt lat="41.8298370" lon="-8.8743390">
        <ele>8.6</ele>
        <time>2021-05-18T10:24:14Z</time>
      </trkpt>
      <trkpt lat="41.8298360" lon="-8.8743500">
        <ele>8.6</ele>
        <time>2021-05-18T10:24:15Z</time>
      </trkpt>
      <trkpt lat="41.8298350" lon="-8.8743610">
        <ele>8.6</ele>
        <time>2021-05-18T10:24:16Z</time>
      </trkpt>
      <trkpt lat="41.8298330" lon="-8.8743790">
        <ele>8.6</ele>
        <time>2021-05-18T10:24:17Z</time>
      </trkpt>
      <trkpt lat="41.8298350" lon="-8.8744000">
        <ele>8.6</ele>
        <time>2021-05-18T10:24:18Z</time>
      </trkpt>
      <trkpt lat="41.8298340" lon="-8.8744180">
        <ele>8.6</ele>
        <time>2021-05-18T10:24:19Z</time>
      </trkpt>
      <trkpt lat="41.8298280" lon="-8.8744380">
        <ele>8.5</ele>
        <time>2021-05-18T10:24:20Z</time>
      </trkpt>
      <trkpt lat="41.8298260" lon="-8.8744680">
        <ele>8.5</ele>
        <time>2021-05-18T10:24:21Z</time>
      </trkpt>
      <trkpt lat="41.8298250" lon="-8.8744800">
        <ele>8.5</ele>
        <time>2021-05-18T10:24:22Z</time>
      </trkpt>
      <trkpt lat="41.8298240" lon="-8.8744930">
        <ele>8.5</ele>
        <time>2021-05-18T10:24:23Z</time>
      </trkpt>
      <trkpt lat="41.8298200" lon="-8.8745110">
        <ele>8.5</ele>
        <time>2021-05-18T10:24:24Z</time>
      </trkpt>
      <trkpt lat="41.8298190" lon="-8.8745320">
        <ele>8.5</ele>
        <time>2021-05-18T10:24:25Z</time>
      </trkpt>
      <trkpt lat="41.8298170" lon="-8.8745580">
        <ele>8.5</ele>
        <time>2021-05-18T10:24:26Z</time>
      </trkpt>
      <trkpt lat="41.8298140" lon="-8.8745710">
        <ele>8.5</ele>
        <time>2021-05-18T10:24:27Z</time>
      </trkpt>
      <trkpt lat="41.8298110" lon="-8.8745830">
        <ele>8.5</ele>
        <time>2021-05-18T10:24:28Z</time>
      </trkpt>
      <trkpt lat="41.8298070" lon="-8.8745990">
        <ele>8.5</ele>
        <time>2021-05-18T10:24:29Z</time>
      </trkpt>
      <trkpt lat="41.8298010" lon="-8.8746200">
        <ele>8.4</ele>
        <time>2021-05-18T10:24:30Z</time>
      </trkpt>
      <trkpt lat="41.8298020" lon="-8.8746350">
        <ele>8.4</ele>
        <time>2021-05-18T10:24:31Z</time>
      </trkpt>
      <trkpt lat="41.8297980" lon="-8.8746440">
        <ele>8.4</ele>
        <time>2021-05-18T10:24:32Z</time>
      </trkpt>
      <trkpt lat="41.8297970" lon="-8.8746640">
        <ele>8.4</ele>
        <time>2021-05-18T10:24:33Z</time>
      </trkpt>
      <trkpt lat="41.8297930" lon="-8.8746840">
        <ele>8.4</ele>
        <time>2021-05-18T10:24:34Z</time>
      </trkpt>
      <trkpt lat="41.8297920" lon="-8.8746890">
        <ele>8.4</ele>
        <time>2021-05-18T10:24:35Z</time>
      </trkpt>
      <trkpt lat="41.8297920" lon="-8.8746950">
        <ele>8.4</ele>
        <time>2021-05-18T10:24:36Z</time>
      </trkpt>
      <trkpt lat="41.8297920" lon="-8.8747010">
        <ele>8.3</ele>
        <time>2021-05-18T10:24:37Z</time>
      </trkpt>
      <trkpt lat="41.8297910" lon="-8.8747060">
        <ele>8.3</ele>
        <time>2021-05-18T10:24:38Z</time>
      </trkpt>
      <trkpt lat="41.8297910" lon="-8.8747120">
        <ele>8.3</ele>
        <time>2021-05-18T10:24:39Z</time>
      </trkpt>
      <trkpt lat="41.8297880" lon="-8.8747290">
        <ele>8.3</ele>
        <time>2021-05-18T10:24:40Z</time>
      </trkpt>
      <trkpt lat="41.8297950" lon="-8.8747500">
        <ele>8.3</ele>
        <time>2021-05-18T10:24:41Z</time>
      </trkpt>
      <trkpt lat="41.8298050" lon="-8.8747670">
        <ele>8.3</ele>
        <time>2021-05-18T10:24:42Z</time>
      </trkpt>
      <trkpt lat="41.8298160" lon="-8.8747740">
        <ele>8.3</ele>
        <time>2021-05-18T10:24:43Z</time>
      </trkpt>
      <trkpt lat="41.8298270" lon="-8.8747780">
        <ele>8.3</ele>
        <time>2021-05-18T10:24:44Z</time>
      </trkpt>
      <trkpt lat="41.8298370" lon="-8.8747820">
        <ele>8.3</ele>
        <time>2021-05-18T10:24:45Z</time>
      </trkpt>
      <trkpt lat="41.8298500" lon="-8.8747830">
        <ele>8.3</ele>
        <time>2021-05-18T10:24:46Z</time>
      </trkpt>
      <trkpt lat="41.8298600" lon="-8.8747780">
        <ele>8.3</ele>
        <time>2021-05-18T10:24:47Z</time>
      </trkpt>
      <trkpt lat="41.8298820" lon="-8.8747830">
        <ele>8.2</ele>
        <time>2021-05-18T10:24:48Z</time>
      </trkpt>
      <trkpt lat="41.8298930" lon="-8.8747870">
        <ele>8.2</ele>
        <time>2021-05-18T10:24:49Z</time>
      </trkpt>
      <trkpt lat="41.8299100" lon="-8.8747980">
        <ele>8.2</ele>
        <time>2021-05-18T10:24:50Z</time>
      </trkpt>
      <trkpt lat="41.8299250" lon="-8.8747970">
        <ele>8.2</ele>
        <time>2021-05-18T10:24:51Z</time>
      </trkpt>
      <trkpt lat="41.8299420" lon="-8.8747890">
        <ele>8.2</ele>
        <time>2021-05-18T10:24:52Z</time>
      </trkpt>
      <trkpt lat="41.8299580" lon="-8.8747890">
        <ele>8.2</ele>
        <time>2021-05-18T10:24:53Z</time>
      </trkpt>
      <trkpt lat="41.8299740" lon="-8.8747990">
        <ele>8.2</ele>
        <time>2021-05-18T10:24:54Z</time>
      </trkpt>
      <trkpt lat="41.8299900" lon="-8.8748020">
        <ele>8.2</ele>
        <time>2021-05-18T10:24:55Z</time>
      </trkpt>
      <trkpt lat="41.8300000" lon="-8.8748010">
        <ele>8.2</ele>
        <time>2021-05-18T10:24:56Z</time>
      </trkpt>
      <trkpt lat="41.8300090" lon="-8.8748000">
        <ele>8.1</ele>
        <time>2021-05-18T10:24:57Z</time>
      </trkpt>
      <trkpt lat="41.8300210" lon="-8.8748040">
        <ele>8.1</ele>
        <time>2021-05-18T10:24:58Z</time>
      </trkpt>
      <trkpt lat="41.8300300" lon="-8.8748020">
        <ele>8.1</ele>
        <time>2021-05-18T10:24:59Z</time>
      </trkpt>
      <trkpt lat="41.8300410" lon="-8.8748030">
        <ele>8.1</ele>
        <time>2021-05-18T10:25:00Z</time>
      </trkpt>
      <trkpt lat="41.8300510" lon="-8.8748090">
        <ele>8.1</ele>
        <time>2021-05-18T10:25:01Z</time>
      </trkpt>
      <trkpt lat="41.8300700" lon="-8.8748120">
        <ele>8.1</ele>
        <time>2021-05-18T10:25:02Z</time>
      </trkpt>
      <trkpt lat="41.8300880" lon="-8.8748170">
        <ele>8.1</ele>
        <time>2021-05-18T10:25:03Z</time>
      </trkpt>
      <trkpt lat="41.8300970" lon="-8.8748180">
        <ele>8.1</ele>
        <time>2021-05-18T10:25:04Z</time>
      </trkpt>
      <trkpt lat="41.8301070" lon="-8.8748200">
        <ele>8.1</ele>
        <time>2021-05-18T10:25:05Z</time>
      </trkpt>
      <trkpt lat="41.8301130" lon="-8.8748190">
        <ele>8.1</ele>
        <time>2021-05-18T10:25:06Z</time>
      </trkpt>
      <trkpt lat="41.8301280" lon="-8.8748220">
        <ele>8.1</ele>
        <time>2021-05-18T10:25:07Z</time>
      </trkpt>
      <trkpt lat="41.8301370" lon="-8.8748270">
        <ele>8.1</ele>
        <time>2021-05-18T10:25:08Z</time>
      </trkpt>
      <trkpt lat="41.8301630" lon="-8.8748370">
        <ele>8.1</ele>
        <time>2021-05-18T10:25:09Z</time>
      </trkpt>
      <trkpt lat="41.8301690" lon="-8.8748380">
        <ele>8.1</ele>
        <time>2021-05-18T10:25:10Z</time>
      </trkpt>
      <trkpt lat="41.8301750" lon="-8.8748390">
        <ele>8.0</ele>
        <time>2021-05-18T10:25:11Z</time>
      </trkpt>
      <trkpt lat="41.8301950" lon="-8.8748390">
        <ele>8.0</ele>
        <time>2021-05-18T10:25:12Z</time>
      </trkpt>
      <trkpt lat="41.8302040" lon="-8.8748430">
        <ele>8.0</ele>
        <time>2021-05-18T10:25:13Z</time>
      </trkpt>
      <trkpt lat="41.8302130" lon="-8.8748470">
        <ele>8.0</ele>
        <time>2021-05-18T10:25:14Z</time>
      </trkpt>
      <trkpt lat="41.8302330" lon="-8.8748640">
        <ele>8.0</ele>
        <time>2021-05-18T10:25:15Z</time>
      </trkpt>
      <trkpt lat="41.8302410" lon="-8.8748680">
        <ele>8.0</ele>
        <time>2021-05-18T10:25:16Z</time>
      </trkpt>
      <trkpt lat="41.8302500" lon="-8.8748730">
        <ele>8.0</ele>
        <time>2021-05-18T10:25:17Z</time>
      </trkpt>
      <trkpt lat="41.8302670" lon="-8.8748760">
        <ele>7.9</ele>
        <time>2021-05-18T10:25:18Z</time>
      </trkpt>
      <trkpt lat="41.8302790" lon="-8.8748860">
        <ele>7.9</ele>
        <time>2021-05-18T10:25:19Z</time>
      </trkpt>
      <trkpt lat="41.8302850" lon="-8.8748890">
        <ele>7.9</ele>
        <time>2021-05-18T10:25:20Z</time>
      </trkpt>
      <trkpt lat="41.8302960" lon="-8.8748920">
        <ele>7.9</ele>
        <time>2021-05-18T10:25:21Z</time>
      </trkpt>
      <trkpt lat="41.8303090" lon="-8.8748990">
        <ele>7.9</ele>
        <time>2021-05-18T10:25:22Z</time>
      </trkpt>
      <trkpt lat="41.8303310" lon="-8.8749060">
        <ele>7.9</ele>
        <time>2021-05-18T10:25:23Z</time>
      </trkpt>
      <trkpt lat="41.8303400" lon="-8.8749080">
        <ele>7.9</ele>
        <time>2021-05-18T10:25:24Z</time>
      </trkpt>
      <trkpt lat="41.8303480" lon="-8.8749110">
        <ele>7.9</ele>
        <time>2021-05-18T10:25:25Z</time>
      </trkpt>
      <trkpt lat="41.8303690" lon="-8.8749170">
        <ele>7.8</ele>
        <time>2021-05-18T10:25:26Z</time>
      </trkpt>
      <trkpt lat="41.8303770" lon="-8.8749170">
        <ele>7.8</ele>
        <time>2021-05-18T10:25:27Z</time>
      </trkpt>
      <trkpt lat="41.8303860" lon="-8.8749180">
        <ele>7.8</ele>
        <time>2021-05-18T10:25:28Z</time>
      </trkpt>
      <trkpt lat="41.8304000" lon="-8.8749200">
        <ele>7.8</ele>
        <time>2021-05-18T10:25:29Z</time>
      </trkpt>
      <trkpt lat="41.8304140" lon="-8.8749270">
        <ele>7.8</ele>
        <time>2021-05-18T10:25:30Z</time>
      </trkpt>
      <trkpt lat="41.8304340" lon="-8.8749350">
        <ele>7.8</ele>
        <time>2021-05-18T10:25:31Z</time>
      </trkpt>
      <trkpt lat="41.8304420" lon="-8.8749390">
        <ele>7.8</ele>
        <time>2021-05-18T10:25:32Z</time>
      </trkpt>
      <trkpt lat="41.8304510" lon="-8.8749430">
        <ele>7.8</ele>
        <time>2021-05-18T10:25:33Z</time>
      </trkpt>
      <trkpt lat="41.8304570" lon="-8.8749490">
        <ele>7.8</ele>
        <time>2021-05-18T10:25:34Z</time>
      </trkpt>
      <trkpt lat="41.8304700" lon="-8.8749560">
        <ele>7.7</ele>
        <time>2021-05-18T10:25:35Z</time>
      </trkpt>
      <trkpt lat="41.8304840" lon="-8.8749590">
        <ele>7.7</ele>
        <time>2021-05-18T10:25:36Z</time>
      </trkpt>
      <trkpt lat="41.8305020" lon="-8.8749650">
        <ele>7.7</ele>
        <time>2021-05-18T10:25:37Z</time>
      </trkpt>
      <trkpt lat="41.8305130" lon="-8.8749690">
        <ele>7.7</ele>
        <time>2021-05-18T10:25:38Z</time>
      </trkpt>
      <trkpt lat="41.8305230" lon="-8.8749720">
        <ele>7.7</ele>
        <time>2021-05-18T10:25:39Z</time>
      </trkpt>
      <trkpt lat="41.8305280" lon="-8.8749610">
        <ele>7.7</ele>
        <time>2021-05-18T10:25:40Z</time>
      </trkpt>
      <trkpt lat="41.8305380" lon="-8.8749590">
        <ele>7.7</ele>
        <time>2021-05-18T10:25:41Z</time>
      </trkpt>
      <trkpt lat="41.8305530" lon="-8.8749630">
        <ele>7.7</ele>
        <time>2021-05-18T10:25:42Z</time>
      </trkpt>
      <trkpt lat="41.8305660" lon="-8.8749690">
        <ele>7.7</ele>
        <time>2021-05-18T10:25:43Z</time>
      </trkpt>
      <trkpt lat="41.8305830" lon="-8.8749710">
        <ele>7.6</ele>
        <time>2021-05-18T10:25:44Z</time>
      </trkpt>
      <trkpt lat="41.8305940" lon="-8.8749720">
        <ele>7.6</ele>
        <time>2021-05-18T10:25:45Z</time>
      </trkpt>
      <trkpt lat="41.8306050" lon="-8.8749730">
        <ele>7.6</ele>
        <time>2021-05-18T10:25:46Z</time>
      </trkpt>
      <trkpt lat="41.8306120" lon="-8.8749750">
        <ele>7.6</ele>
        <time>2021-05-18T10:25:47Z</time>
      </trkpt>
      <trkpt lat="41.8306270" lon="-8.8749770">
        <ele>7.6</ele>
        <time>2021-05-18T10:25:48Z</time>
      </trkpt>
      <trkpt lat="41.8306370" lon="-8.8749770">
        <ele>7.6</ele>
        <time>2021-05-18T10:25:49Z</time>
      </trkpt>
      <trkpt lat="41.8306480" lon="-8.8749810">
        <ele>7.6</ele>
        <time>2021-05-18T10:25:50Z</time>
      </trkpt>
      <trkpt lat="41.8306640" lon="-8.8749790">
        <ele>7.6</ele>
        <time>2021-05-18T10:25:51Z</time>
      </trkpt>
      <trkpt lat="41.8306800" lon="-8.8749840">
        <ele>7.6</ele>
        <time>2021-05-18T10:25:52Z</time>
      </trkpt>
      <trkpt lat="41.8307010" lon="-8.8749860">
        <ele>7.5</ele>
        <time>2021-05-18T10:25:53Z</time>
      </trkpt>
      <trkpt lat="41.8307090" lon="-8.8749860">
        <ele>7.5</ele>
        <time>2021-05-18T10:25:54Z</time>
      </trkpt>
      <trkpt lat="41.8307180" lon="-8.8749870">
        <ele>7.5</ele>
        <time>2021-05-18T10:25:55Z</time>
      </trkpt>
      <trkpt lat="41.8307260" lon="-8.8749880">
        <ele>7.5</ele>
        <time>2021-05-18T10:25:56Z</time>
      </trkpt>
      <trkpt lat="41.8307380" lon="-8.8749900">
        <ele>7.5</ele>
        <time>2021-05-18T10:25:57Z</time>
      </trkpt>
      <trkpt lat="41.8307500" lon="-8.8749930">
        <ele>7.5</ele>
        <time>2021-05-18T10:25:58Z</time>
      </trkpt>
      <trkpt lat="41.8307640" lon="-8.8750040">
        <ele>7.5</ele>
        <time>2021-05-18T10:25:59Z</time>
      </trkpt>
      <trkpt lat="41.8307730" lon="-8.8750070">
        <ele>7.5</ele>
        <time>2021-05-18T10:26:00Z</time>
      </trkpt>
      <trkpt lat="41.8307800" lon="-8.8750110">
        <ele>7.5</ele>
        <time>2021-05-18T10:26:01Z</time>
      </trkpt>
      <trkpt lat="41.8308010" lon="-8.8750180">
        <ele>7.5</ele>
        <time>2021-05-18T10:26:02Z</time>
      </trkpt>
      <trkpt lat="41.8308100" lon="-8.8750200">
        <ele>7.5</ele>
        <time>2021-05-18T10:26:03Z</time>
      </trkpt>
      <trkpt lat="41.8308190" lon="-8.8750220">
        <ele>7.5</ele>
        <time>2021-05-18T10:26:04Z</time>
      </trkpt>
      <trkpt lat="41.8308390" lon="-8.8750170">
        <ele>7.5</ele>
        <time>2021-05-18T10:26:05Z</time>
      </trkpt>
      <trkpt lat="41.8308480" lon="-8.8750170">
        <ele>7.5</ele>
        <time>2021-05-18T10:26:06Z</time>
      </trkpt>
      <trkpt lat="41.8308560" lon="-8.8750180">
        <ele>7.5</ele>
        <time>2021-05-18T10:26:07Z</time>
      </trkpt>
      <trkpt lat="41.8308800" lon="-8.8750210">
        <ele>7.5</ele>
        <time>2021-05-18T10:26:08Z</time>
      </trkpt>
      <trkpt lat="41.8308870" lon="-8.8750240">
        <ele>7.5</ele>
        <time>2021-05-18T10:26:09Z</time>
      </trkpt>
      <trkpt lat="41.8308930" lon="-8.8750260">
        <ele>7.4</ele>
        <time>2021-05-18T10:26:10Z</time>
      </trkpt>
      <trkpt lat="41.8308980" lon="-8.8750300">
        <ele>7.4</ele>
        <time>2021-05-18T10:26:11Z</time>
      </trkpt>
      <trkpt lat="41.8309100" lon="-8.8750270">
        <ele>7.4</ele>
        <time>2021-05-18T10:26:12Z</time>
      </trkpt>
      <trkpt lat="41.8309230" lon="-8.8750330">
        <ele>7.4</ele>
        <time>2021-05-18T10:26:13Z</time>
      </trkpt>
      <trkpt lat="41.8309340" lon="-8.8750350">
        <ele>7.4</ele>
        <time>2021-05-18T10:26:14Z</time>
      </trkpt>
      <trkpt lat="41.8309460" lon="-8.8750390">
        <ele>7.4</ele>
        <time>2021-05-18T10:26:15Z</time>
      </trkpt>
      <trkpt lat="41.8309570" lon="-8.8750400">
        <ele>7.4</ele>
        <time>2021-05-18T10:26:16Z</time>
      </trkpt>
      <trkpt lat="41.8309690" lon="-8.8750460">
        <ele>7.4</ele>
        <time>2021-05-18T10:26:17Z</time>
      </trkpt>
      <trkpt lat="41.8309820" lon="-8.8750490">
        <ele>7.4</ele>
        <time>2021-05-18T10:26:18Z</time>
      </trkpt>
      <trkpt lat="41.8309880" lon="-8.8750550">
        <ele>7.4</ele>
        <time>2021-05-18T10:26:19Z</time>
      </trkpt>
      <trkpt lat="41.8310110" lon="-8.8750580">
        <ele>7.4</ele>
        <time>2021-05-18T10:26:20Z</time>
      </trkpt>
      <trkpt lat="41.8310190" lon="-8.8750600">
        <ele>7.4</ele>
        <time>2021-05-18T10:26:21Z</time>
      </trkpt>
      <trkpt lat="41.8310280" lon="-8.8750610">
        <ele>7.4</ele>
        <time>2021-05-18T10:26:22Z</time>
      </trkpt>
      <trkpt lat="41.8310350" lon="-8.8750640">
        <ele>7.4</ele>
        <time>2021-05-18T10:26:23Z</time>
      </trkpt>
      <trkpt lat="41.8310500" lon="-8.8750670">
        <ele>7.4</ele>
        <time>2021-05-18T10:26:24Z</time>
      </trkpt>
      <trkpt lat="41.8310570" lon="-8.8750690">
        <ele>7.4</ele>
        <time>2021-05-18T10:26:25Z</time>
      </trkpt>
      <trkpt lat="41.8310660" lon="-8.8750690">
        <ele>7.4</ele>
        <time>2021-05-18T10:26:26Z</time>
      </trkpt>
      <trkpt lat="41.8310700" lon="-8.8750730">
        <ele>7.4</ele>
        <time>2021-05-18T10:26:27Z</time>
      </trkpt>
      <trkpt lat="41.8310810" lon="-8.8750640">
        <ele>7.4</ele>
        <time>2021-05-18T10:26:28Z</time>
      </trkpt>
      <trkpt lat="41.8310910" lon="-8.8750670">
        <ele>7.4</ele>
        <time>2021-05-18T10:26:29Z</time>
      </trkpt>
      <trkpt lat="41.8311000" lon="-8.8750730">
        <ele>7.4</ele>
        <time>2021-05-18T10:26:30Z</time>
      </trkpt>
      <trkpt lat="41.8311060" lon="-8.8750860">
        <ele>7.4</ele>
        <time>2021-05-18T10:26:31Z</time>
      </trkpt>
      <trkpt lat="41.8311130" lon="-8.8750960">
        <ele>7.4</ele>
        <time>2021-05-18T10:26:32Z</time>
      </trkpt>
      <trkpt lat="41.8311160" lon="-8.8750950">
        <ele>7.4</ele>
        <time>2021-05-18T10:26:33Z</time>
      </trkpt>
      <trkpt lat="41.8311140" lon="-8.8750920">
        <ele>7.4</ele>
        <time>2021-05-18T10:26:34Z</time>
      </trkpt>
      <trkpt lat="41.8311130" lon="-8.8750890">
        <ele>7.4</ele>
        <time>2021-05-18T10:26:35Z</time>
      </trkpt>
      <trkpt lat="41.8311120" lon="-8.8750860">
        <ele>7.4</ele>
        <time>2021-05-18T10:26:36Z</time>
      </trkpt>
      <trkpt lat="41.8311180" lon="-8.8750930">
        <ele>7.4</ele>
        <time>2021-05-18T10:26:37Z</time>
      </trkpt>
      <trkpt lat="41.8311280" lon="-8.8750980">
        <ele>7.4</ele>
        <time>2021-05-18T10:26:38Z</time>
      </trkpt>
      <trkpt lat="41.8311370" lon="-8.8750930">
        <ele>7.4</ele>
        <time>2021-05-18T10:26:39Z</time>
      </trkpt>
      <trkpt lat="41.8311450" lon="-8.8750950">
        <ele>7.4</ele>
        <time>2021-05-18T10:26:40Z</time>
      </trkpt>
      <trkpt lat="41.8311550" lon="-8.8750930">
        <ele>7.4</ele>
        <time>2021-05-18T10:26:41Z</time>
      </trkpt>
      <trkpt lat="41.8311630" lon="-8.8750880">
        <ele>7.4</ele>
        <time>2021-05-18T10:26:42Z</time>
      </trkpt>
      <trkpt lat="41.8311730" lon="-8.8750890">
        <ele>7.4</ele>
        <time>2021-05-18T10:26:43Z</time>
      </trkpt>
      <trkpt lat="41.8311800" lon="-8.8750910">
        <ele>7.4</ele>
        <time>2021-05-18T10:26:44Z</time>
      </trkpt>
      <trkpt lat="41.8311810" lon="-8.8750900">
        <ele>7.4</ele>
        <time>2021-05-18T10:26:45Z</time>
      </trkpt>
      <trkpt lat="41.8311820" lon="-8.8750900">
        <ele>7.4</ele>
        <time>2021-05-18T10:26:46Z</time>
      </trkpt>
      <trkpt lat="41.8311830" lon="-8.8750900">
        <ele>7.4</ele>
        <time>2021-05-18T10:26:47Z</time>
      </trkpt>
      <trkpt lat="41.8311840" lon="-8.8750890">
        <ele>7.4</ele>
        <time>2021-05-18T10:26:48Z</time>
      </trkpt>
      <trkpt lat="41.8311840" lon="-8.8750890">
        <ele>7.4</ele>
        <time>2021-05-18T10:26:49Z</time>
      </trkpt>
      <trkpt lat="41.8311850" lon="-8.8750890">
        <ele>7.4</ele>
        <time>2021-05-18T10:26:50Z</time>
      </trkpt>
      <trkpt lat="41.8311860" lon="-8.8750880">
        <ele>7.4</ele>
        <time>2021-05-18T10:26:51Z</time>
      </trkpt>
      <trkpt lat="41.8311870" lon="-8.8750880">
        <ele>7.4</ele>
        <time>2021-05-18T10:26:52Z</time>
      </trkpt>
      <trkpt lat="41.8311880" lon="-8.8750880">
        <ele>7.4</ele>
        <time>2021-05-18T10:26:53Z</time>
      </trkpt>
      <trkpt lat="41.8311890" lon="-8.8750870">
        <ele>7.4</ele>
        <time>2021-05-18T10:26:54Z</time>
      </trkpt>
      <trkpt lat="41.8311900" lon="-8.8750870">
        <ele>7.4</ele>
        <time>2021-05-18T10:26:55Z</time>
      </trkpt>
      <trkpt lat="41.8311910" lon="-8.8750860">
        <ele>7.4</ele>
        <time>2021-05-18T10:26:56Z</time>
      </trkpt>
      <trkpt lat="41.8311920" lon="-8.8750860">
        <ele>7.4</ele>
        <time>2021-05-18T10:26:57Z</time>
      </trkpt>
      <trkpt lat="41.8311930" lon="-8.8750860">
        <ele>7.4</ele>
        <time>2021-05-18T10:26:58Z</time>
      </trkpt>
      <trkpt lat="41.8311930" lon="-8.8750850">
        <ele>7.4</ele>
        <time>2021-05-18T10:26:59Z</time>
      </trkpt>
      <trkpt lat="41.8311940" lon="-8.8750850">
        <ele>7.4</ele>
        <time>2021-05-18T10:27:00Z</time>
      </trkpt>
      <trkpt lat="41.8311950" lon="-8.8750850">
        <ele>7.4</ele>
        <time>2021-05-18T10:27:01Z</time>
      </trkpt>
      <trkpt lat="41.8311960" lon="-8.8750840">
        <ele>7.4</ele>
        <time>2021-05-18T10:27:02Z</time>
      </trkpt>
      <trkpt lat="41.8311970" lon="-8.8750840">
        <ele>7.4</ele>
        <time>2021-05-18T10:27:03Z</time>
      </trkpt>
      <trkpt lat="41.8311980" lon="-8.8750840">
        <ele>7.4</ele>
        <time>2021-05-18T10:27:04Z</time>
      </trkpt>
      <trkpt lat="41.8311990" lon="-8.8750830">
        <ele>7.4</ele>
        <time>2021-05-18T10:27:05Z</time>
      </trkpt>
      <trkpt lat="41.8312000" lon="-8.8750830">
        <ele>7.4</ele>
        <time>2021-05-18T10:27:06Z</time>
      </trkpt>
      <trkpt lat="41.8312010" lon="-8.8750830">
        <ele>7.4</ele>
        <time>2021-05-18T10:27:07Z</time>
      </trkpt>
      <trkpt lat="41.8312020" lon="-8.8750820">
        <ele>7.4</ele>
        <time>2021-05-18T10:27:08Z</time>
      </trkpt>
      <trkpt lat="41.8312020" lon="-8.8750820">
        <ele>7.4</ele>
        <time>2021-05-18T10:27:09Z</time>
      </trkpt>
      <trkpt lat="41.8312030" lon="-8.8750820">
        <ele>7.4</ele>
        <time>2021-05-18T10:27:10Z</time>
      </trkpt>
      <trkpt lat="41.8312040" lon="-8.8750810">
        <ele>7.4</ele>
        <time>2021-05-18T10:27:11Z</time>
      </trkpt>
      <trkpt lat="41.8312050" lon="-8.8750810">
        <ele>7.4</ele>
        <time>2021-05-18T10:27:12Z</time>
      </trkpt>
      <trkpt lat="41.8312060" lon="-8.8750810">
        <ele>7.4</ele>
        <time>2021-05-18T10:27:13Z</time>
      </trkpt>
      <trkpt lat="41.8312070" lon="-8.8750800">
        <ele>7.4</ele>
        <time>2021-05-18T10:27:14Z</time>
      </trkpt>
      <trkpt lat="41.8312080" lon="-8.8750800">
        <ele>7.4</ele>
        <time>2021-05-18T10:27:15Z</time>
      </trkpt>
      <trkpt lat="41.8312090" lon="-8.8750790">
        <ele>7.4</ele>
        <time>2021-05-18T10:27:16Z</time>
      </trkpt>
      <trkpt lat="41.8312100" lon="-8.8750790">
        <ele>7.4</ele>
        <time>2021-05-18T10:27:17Z</time>
      </trkpt>
      <trkpt lat="41.8312110" lon="-8.8750790">
        <ele>7.4</ele>
        <time>2021-05-18T10:27:18Z</time>
      </trkpt>
      <trkpt lat="41.8312110" lon="-8.8750780">
        <ele>7.4</ele>
        <time>2021-05-18T10:27:19Z</time>
      </trkpt>
      <trkpt lat="41.8312120" lon="-8.8750780">
        <ele>7.4</ele>
        <time>2021-05-18T10:27:20Z</time>
      </trkpt>
      <trkpt lat="41.8312130" lon="-8.8750780">
        <ele>7.4</ele>
        <time>2021-05-18T10:27:21Z</time>
      </trkpt>
      <trkpt lat="41.8312140" lon="-8.8750770">
        <ele>7.4</ele>
        <time>2021-05-18T10:27:22Z</time>
      </trkpt>
      <trkpt lat="41.8312150" lon="-8.8750770">
        <ele>7.4</ele>
        <time>2021-05-18T10:27:23Z</time>
      </trkpt>
      <trkpt lat="41.8312300" lon="-8.8750850">
        <ele>7.4</ele>
        <time>2021-05-18T10:27:24Z</time>
      </trkpt>
      <trkpt lat="41.8312450" lon="-8.8750960">
        <ele>7.4</ele>
        <time>2021-05-18T10:27:25Z</time>
      </trkpt>
      <trkpt lat="41.8312650" lon="-8.8751030">
        <ele>7.4</ele>
        <time>2021-05-18T10:27:26Z</time>
      </trkpt>
      <trkpt lat="41.8312740" lon="-8.8751030">
        <ele>7.4</ele>
        <time>2021-05-18T10:27:27Z</time>
      </trkpt>
      <trkpt lat="41.8312830" lon="-8.8751030">
        <ele>7.4</ele>
        <time>2021-05-18T10:27:28Z</time>
      </trkpt>
      <trkpt lat="41.8312970" lon="-8.8751080">
        <ele>7.4</ele>
        <time>2021-05-18T10:27:29Z</time>
      </trkpt>
      <trkpt lat="41.8313080" lon="-8.8751150">
        <ele>7.4</ele>
        <time>2021-05-18T10:27:30Z</time>
      </trkpt>
      <trkpt lat="41.8313160" lon="-8.8751240">
        <ele>7.4</ele>
        <time>2021-05-18T10:27:31Z</time>
      </trkpt>
      <trkpt lat="41.8313400" lon="-8.8751150">
        <ele>7.4</ele>
        <time>2021-05-18T10:27:32Z</time>
      </trkpt>
      <trkpt lat="41.8313490" lon="-8.8751110">
        <ele>7.5</ele>
        <time>2021-05-18T10:27:33Z</time>
      </trkpt>
      <trkpt lat="41.8313570" lon="-8.8751060">
        <ele>7.5</ele>
        <time>2021-05-18T10:27:34Z</time>
      </trkpt>
      <trkpt lat="41.8313780" lon="-8.8751050">
        <ele>7.5</ele>
        <time>2021-05-18T10:27:35Z</time>
      </trkpt>
      <trkpt lat="41.8313860" lon="-8.8751040">
        <ele>7.5</ele>
        <time>2021-05-18T10:27:36Z</time>
      </trkpt>
      <trkpt lat="41.8313940" lon="-8.8751030">
        <ele>7.5</ele>
        <time>2021-05-18T10:27:37Z</time>
      </trkpt>
      <trkpt lat="41.8314070" lon="-8.8751020">
        <ele>7.5</ele>
        <time>2021-05-18T10:27:38Z</time>
      </trkpt>
      <trkpt lat="41.8314180" lon="-8.8751000">
        <ele>7.5</ele>
        <time>2021-05-18T10:27:39Z</time>
      </trkpt>
      <trkpt lat="41.8314300" lon="-8.8751020">
        <ele>7.5</ele>
        <time>2021-05-18T10:27:40Z</time>
      </trkpt>
      <trkpt lat="41.8314370" lon="-8.8750990">
        <ele>7.5</ele>
        <time>2021-05-18T10:27:41Z</time>
      </trkpt>
      <trkpt lat="41.8314370" lon="-8.8750990">
        <ele>7.5</ele>
        <time>2021-05-18T10:27:42Z</time>
      </trkpt>
      <trkpt lat="41.8314380" lon="-8.8750980">
        <ele>7.5</ele>
        <time>2021-05-18T10:27:43Z</time>
      </trkpt>
      <trkpt lat="41.8314380" lon="-8.8750980">
        <ele>7.5</ele>
        <time>2021-05-18T10:27:44Z</time>
      </trkpt>
      <trkpt lat="41.8314380" lon="-8.8750970">
        <ele>7.5</ele>
        <time>2021-05-18T10:27:45Z</time>
      </trkpt>
      <trkpt lat="41.8314380" lon="-8.8750960">
        <ele>7.5</ele>
        <time>2021-05-18T10:27:46Z</time>
      </trkpt>
      <trkpt lat="41.8314380" lon="-8.8750960">
        <ele>7.5</ele>
        <time>2021-05-18T10:27:47Z</time>
      </trkpt>
      <trkpt lat="41.8314390" lon="-8.8750950">
        <ele>7.5</ele>
        <time>2021-05-18T10:27:48Z</time>
      </trkpt>
      <trkpt lat="41.8314390" lon="-8.8750950">
        <ele>7.5</ele>
        <time>2021-05-18T10:27:49Z</time>
      </trkpt>
      <trkpt lat="41.8314390" lon="-8.8750940">
        <ele>7.5</ele>
        <time>2021-05-18T10:27:50Z</time>
      </trkpt>
      <trkpt lat="41.8314390" lon="-8.8750930">
        <ele>7.5</ele>
        <time>2021-05-18T10:27:51Z</time>
      </trkpt>
      <trkpt lat="41.8314390" lon="-8.8750930">
        <ele>7.5</ele>
        <time>2021-05-18T10:27:52Z</time>
      </trkpt>
      <trkpt lat="41.8314400" lon="-8.8750920">
        <ele>7.5</ele>
        <time>2021-05-18T10:27:53Z</time>
      </trkpt>
      <trkpt lat="41.8314400" lon="-8.8750920">
        <ele>7.5</ele>
        <time>2021-05-18T10:27:54Z</time>
      </trkpt>
      <trkpt lat="41.8314400" lon="-8.8750910">
        <ele>7.5</ele>
        <time>2021-05-18T10:27:55Z</time>
      </trkpt>
      <trkpt lat="41.8314400" lon="-8.8750910">
        <ele>7.5</ele>
        <time>2021-05-18T10:27:56Z</time>
      </trkpt>
      <trkpt lat="41.8314400" lon="-8.8750900">
        <ele>7.5</ele>
        <time>2021-05-18T10:27:57Z</time>
      </trkpt>
      <trkpt lat="41.8314410" lon="-8.8750890">
        <ele>7.5</ele>
        <time>2021-05-18T10:27:58Z</time>
      </trkpt>
      <trkpt lat="41.8314410" lon="-8.8750890">
        <ele>7.5</ele>
        <time>2021-05-18T10:27:59Z</time>
      </trkpt>
      <trkpt lat="41.8314410" lon="-8.8750880">
        <ele>7.5</ele>
        <time>2021-05-18T10:28:00Z</time>
      </trkpt>
      <trkpt lat="41.8314410" lon="-8.8750880">
        <ele>7.5</ele>
        <time>2021-05-18T10:28:01Z</time>
      </trkpt>
      <trkpt lat="41.8314410" lon="-8.8750870">
        <ele>7.5</ele>
        <time>2021-05-18T10:28:02Z</time>
      </trkpt>
      <trkpt lat="41.8314420" lon="-8.8750860">
        <ele>7.5</ele>
        <time>2021-05-18T10:28:03Z</time>
      </trkpt>
      <trkpt lat="41.8314420" lon="-8.8750860">
        <ele>7.5</ele>
        <time>2021-05-18T10:28:04Z</time>
      </trkpt>
      <trkpt lat="41.8314420" lon="-8.8750850">
        <ele>7.5</ele>
        <time>2021-05-18T10:28:05Z</time>
      </trkpt>
      <trkpt lat="41.8314420" lon="-8.8750850">
        <ele>7.5</ele>
        <time>2021-05-18T10:28:06Z</time>
      </trkpt>
      <trkpt lat="41.8314420" lon="-8.8750840">
        <ele>7.5</ele>
        <time>2021-05-18T10:28:07Z</time>
      </trkpt>
      <trkpt lat="41.8314430" lon="-8.8750830">
        <ele>7.5</ele>
        <time>2021-05-18T10:28:08Z</time>
      </trkpt>
      <trkpt lat="41.8314430" lon="-8.8750830">
        <ele>7.5</ele>
        <time>2021-05-18T10:28:09Z</time>
      </trkpt>
      <trkpt lat="41.8314430" lon="-8.8750820">
        <ele>7.5</ele>
        <time>2021-05-18T10:28:10Z</time>
      </trkpt>
      <trkpt lat="41.8314430" lon="-8.8750820">
        <ele>7.5</ele>
        <time>2021-05-18T10:28:11Z</time>
      </trkpt>
      <trkpt lat="41.8314430" lon="-8.8750810">
        <ele>7.5</ele>
        <time>2021-05-18T10:28:12Z</time>
      </trkpt>
      <trkpt lat="41.8314440" lon="-8.8750800">
        <ele>7.5</ele>
        <time>2021-05-18T10:28:13Z</time>
      </trkpt>
      <trkpt lat="41.8314440" lon="-8.8750800">
        <ele>7.5</ele>
        <time>2021-05-18T10:28:14Z</time>
      </trkpt>
      <trkpt lat="41.8314440" lon="-8.8750790">
        <ele>7.5</ele>
        <time>2021-05-18T10:28:15Z</time>
      </trkpt>
      <trkpt lat="41.8314440" lon="-8.8750790">
        <ele>7.5</ele>
        <time>2021-05-18T10:28:16Z</time>
      </trkpt>
      <trkpt lat="41.8314440" lon="-8.8750780">
        <ele>7.5</ele>
        <time>2021-05-18T10:28:17Z</time>
      </trkpt>
      <trkpt lat="41.8314450" lon="-8.8750770">
        <ele>7.5</ele>
        <time>2021-05-18T10:28:18Z</time>
      </trkpt>
      <trkpt lat="41.8314450" lon="-8.8750770">
        <ele>7.5</ele>
        <time>2021-05-18T10:28:19Z</time>
      </trkpt>
      <trkpt lat="41.8314450" lon="-8.8750760">
        <ele>7.5</ele>
        <time>2021-05-18T10:28:20Z</time>
      </trkpt>
      <trkpt lat="41.8314450" lon="-8.8750760">
        <ele>7.5</ele>
        <time>2021-05-18T10:28:21Z</time>
      </trkpt>
      <trkpt lat="41.8314450" lon="-8.8750750">
        <ele>7.5</ele>
        <time>2021-05-18T10:28:22Z</time>
      </trkpt>
      <trkpt lat="41.8314450" lon="-8.8750750">
        <ele>7.5</ele>
        <time>2021-05-18T10:28:23Z</time>
      </trkpt>
      <trkpt lat="41.8314460" lon="-8.8750740">
        <ele>7.5</ele>
        <time>2021-05-18T10:28:24Z</time>
      </trkpt>
      <trkpt lat="41.8314460" lon="-8.8750730">
        <ele>7.5</ele>
        <time>2021-05-18T10:28:25Z</time>
      </trkpt>
      <trkpt lat="41.8314460" lon="-8.8750730">
        <ele>7.5</ele>
        <time>2021-05-18T10:28:26Z</time>
      </trkpt>
      <trkpt lat="41.8314460" lon="-8.8750720">
        <ele>7.5</ele>
        <time>2021-05-18T10:28:27Z</time>
      </trkpt>
      <trkpt lat="41.8314460" lon="-8.8750720">
        <ele>7.5</ele>
        <time>2021-05-18T10:28:28Z</time>
      </trkpt>
      <trkpt lat="41.8314470" lon="-8.8750710">
        <ele>7.5</ele>
        <time>2021-05-18T10:28:29Z</time>
      </trkpt>
      <trkpt lat="41.8314470" lon="-8.8750700">
        <ele>7.5</ele>
        <time>2021-05-18T10:28:30Z</time>
      </trkpt>
      <trkpt lat="41.8314470" lon="-8.8750700">
        <ele>7.5</ele>
        <time>2021-05-18T10:28:31Z</time>
      </trkpt>
      <trkpt lat="41.8314470" lon="-8.8750690">
        <ele>7.5</ele>
        <time>2021-05-18T10:28:32Z</time>
      </trkpt>
      <trkpt lat="41.8314470" lon="-8.8750690">
        <ele>7.5</ele>
        <time>2021-05-18T10:28:33Z</time>
      </trkpt>
      <trkpt lat="41.8314480" lon="-8.8750680">
        <ele>7.5</ele>
        <time>2021-05-18T10:28:34Z</time>
      </trkpt>
      <trkpt lat="41.8314480" lon="-8.8750670">
        <ele>7.5</ele>
        <time>2021-05-18T10:28:35Z</time>
      </trkpt>
      <trkpt lat="41.8314480" lon="-8.8750670">
        <ele>7.5</ele>
        <time>2021-05-18T10:28:36Z</time>
      </trkpt>
      <trkpt lat="41.8314480" lon="-8.8750660">
        <ele>7.5</ele>
        <time>2021-05-18T10:28:37Z</time>
      </trkpt>
      <trkpt lat="41.8314480" lon="-8.8750660">
        <ele>7.5</ele>
        <time>2021-05-18T10:28:38Z</time>
      </trkpt>
      <trkpt lat="41.8314490" lon="-8.8750650">
        <ele>7.5</ele>
        <time>2021-05-18T10:28:39Z</time>
      </trkpt>
      <trkpt lat="41.8314490" lon="-8.8750640">
        <ele>7.5</ele>
        <time>2021-05-18T10:28:40Z</time>
      </trkpt>
      <trkpt lat="41.8314490" lon="-8.8750640">
        <ele>7.5</ele>
        <time>2021-05-18T10:28:41Z</time>
      </trkpt>
      <trkpt lat="41.8314490" lon="-8.8750630">
        <ele>7.5</ele>
        <time>2021-05-18T10:28:42Z</time>
      </trkpt>
      <trkpt lat="41.8314490" lon="-8.8750630">
        <ele>7.5</ele>
        <time>2021-05-18T10:28:43Z</time>
      </trkpt>
      <trkpt lat="41.8314500" lon="-8.8750620">
        <ele>7.5</ele>
        <time>2021-05-18T10:28:44Z</time>
      </trkpt>
      <trkpt lat="41.8314500" lon="-8.8750610">
        <ele>7.5</ele>
        <time>2021-05-18T10:28:45Z</time>
      </trkpt>
      <trkpt lat="41.8314500" lon="-8.8750610">
        <ele>7.5</ele>
        <time>2021-05-18T10:28:46Z</time>
      </trkpt>
      <trkpt lat="41.8314500" lon="-8.8750600">
        <ele>7.5</ele>
        <time>2021-05-18T10:28:47Z</time>
      </trkpt>
      <trkpt lat="41.8314500" lon="-8.8750600">
        <ele>7.5</ele>
        <time>2021-05-18T10:28:48Z</time>
      </trkpt>
      <trkpt lat="41.8314510" lon="-8.8750590">
        <ele>7.5</ele>
        <time>2021-05-18T10:28:49Z</time>
      </trkpt>
      <trkpt lat="41.8314510" lon="-8.8750590">
        <ele>7.5</ele>
        <time>2021-05-18T10:28:50Z</time>
      </trkpt>
      <trkpt lat="41.8314510" lon="-8.8750580">
        <ele>7.5</ele>
        <time>2021-05-18T10:28:51Z</time>
      </trkpt>
      <trkpt lat="41.8314510" lon="-8.8750570">
        <ele>7.5</ele>
        <time>2021-05-18T10:28:52Z</time>
      </trkpt>
      <trkpt lat="41.8314510" lon="-8.8750570">
        <ele>7.5</ele>
        <time>2021-05-18T10:28:53Z</time>
      </trkpt>
      <trkpt lat="41.8314520" lon="-8.8750560">
        <ele>7.5</ele>
        <time>2021-05-18T10:28:54Z</time>
      </trkpt>
      <trkpt lat="41.8314520" lon="-8.8750560">
        <ele>7.5</ele>
        <time>2021-05-18T10:28:55Z</time>
      </trkpt>
      <trkpt lat="41.8314520" lon="-8.8750550">
        <ele>7.5</ele>
        <time>2021-05-18T10:28:56Z</time>
      </trkpt>
      <trkpt lat="41.8314520" lon="-8.8750540">
        <ele>7.5</ele>
        <time>2021-05-18T10:28:57Z</time>
      </trkpt>
      <trkpt lat="41.8314520" lon="-8.8750540">
        <ele>7.5</ele>
        <time>2021-05-18T10:28:58Z</time>
      </trkpt>
      <trkpt lat="41.8314530" lon="-8.8750530">
        <ele>7.5</ele>
        <time>2021-05-18T10:28:59Z</time>
      </trkpt>
      <trkpt lat="41.8314530" lon="-8.8750530">
        <ele>7.5</ele>
        <time>2021-05-18T10:29:00Z</time>
      </trkpt>
      <trkpt lat="41.8314530" lon="-8.8750520">
        <ele>7.5</ele>
        <time>2021-05-18T10:29:01Z</time>
      </trkpt>
      <trkpt lat="41.8314410" lon="-8.8750610">
        <ele>7.5</ele>
        <time>2021-05-18T10:29:02Z</time>
      </trkpt>
      <trkpt lat="41.8314450" lon="-8.8750600">
        <ele>7.5</ele>
        <time>2021-05-18T10:29:03Z</time>
      </trkpt>
      <trkpt lat="41.8314460" lon="-8.8750630">
        <ele>7.5</ele>
        <time>2021-05-18T10:29:04Z</time>
      </trkpt>
      <trkpt lat="41.8314460" lon="-8.8750660">
        <ele>7.5</ele>
        <time>2021-05-18T10:29:05Z</time>
      </trkpt>
      <trkpt lat="41.8314460" lon="-8.8750720">
        <ele>7.5</ele>
        <time>2021-05-18T10:29:06Z</time>
      </trkpt>
      <trkpt lat="41.8314530" lon="-8.8750750">
        <ele>7.5</ele>
        <time>2021-05-18T10:29:07Z</time>
      </trkpt>
      <trkpt lat="41.8314580" lon="-8.8750800">
        <ele>7.5</ele>
        <time>2021-05-18T10:29:08Z</time>
      </trkpt>
      <trkpt lat="41.8314640" lon="-8.8750780">
        <ele>7.5</ele>
        <time>2021-05-18T10:29:09Z</time>
      </trkpt>
      <trkpt lat="41.8314690" lon="-8.8750760">
        <ele>7.5</ele>
        <time>2021-05-18T10:29:10Z</time>
      </trkpt>
      <trkpt lat="41.8314690" lon="-8.8750800">
        <ele>7.5</ele>
        <time>2021-05-18T10:29:11Z</time>
      </trkpt>
      <trkpt lat="41.8314720" lon="-8.8750830">
        <ele>7.5</ele>
        <time>2021-05-18T10:29:12Z</time>
      </trkpt>
      <trkpt lat="41.8314930" lon="-8.8750890">
        <ele>7.6</ele>
        <time>2021-05-18T10:29:13Z</time>
      </trkpt>
      <trkpt lat="41.8315050" lon="-8.8750940">
        <ele>7.6</ele>
        <time>2021-05-18T10:29:14Z</time>
      </trkpt>
      <trkpt lat="41.8315160" lon="-8.8750980">
        <ele>7.6</ele>
        <time>2021-05-18T10:29:15Z</time>
      </trkpt>
      <trkpt lat="41.8315230" lon="-8.8750960">
        <ele>7.6</ele>
        <time>2021-05-18T10:29:16Z</time>
      </trkpt>
      <trkpt lat="41.8315360" lon="-8.8751040">
        <ele>7.6</ele>
        <time>2021-05-18T10:29:17Z</time>
      </trkpt>
      <trkpt lat="41.8315450" lon="-8.8751090">
        <ele>7.6</ele>
        <time>2021-05-18T10:29:18Z</time>
      </trkpt>
      <trkpt lat="41.8315540" lon="-8.8751090">
        <ele>7.6</ele>
        <time>2021-05-18T10:29:19Z</time>
      </trkpt>
      <trkpt lat="41.8315570" lon="-8.8751090">
        <ele>7.6</ele>
        <time>2021-05-18T10:29:20Z</time>
      </trkpt>
      <trkpt lat="41.8315610" lon="-8.8751080">
        <ele>7.6</ele>
        <time>2021-05-18T10:29:21Z</time>
      </trkpt>
      <trkpt lat="41.8315640" lon="-8.8751080">
        <ele>7.6</ele>
        <time>2021-05-18T10:29:22Z</time>
      </trkpt>
      <trkpt lat="41.8315680" lon="-8.8751080">
        <ele>7.6</ele>
        <time>2021-05-18T10:29:23Z</time>
      </trkpt>
      <trkpt lat="41.8315710" lon="-8.8751080">
        <ele>7.6</ele>
        <time>2021-05-18T10:29:24Z</time>
      </trkpt>
      <trkpt lat="41.8315750" lon="-8.8751070">
        <ele>7.6</ele>
        <time>2021-05-18T10:29:25Z</time>
      </trkpt>
      <trkpt lat="41.8315780" lon="-8.8751070">
        <ele>7.6</ele>
        <time>2021-05-18T10:29:26Z</time>
      </trkpt>
      <trkpt lat="41.8315820" lon="-8.8751070">
        <ele>7.6</ele>
        <time>2021-05-18T10:29:27Z</time>
      </trkpt>
      <trkpt lat="41.8315990" lon="-8.8751060">
        <ele>7.6</ele>
        <time>2021-05-18T10:29:28Z</time>
      </trkpt>
      <trkpt lat="41.8316130" lon="-8.8751090">
        <ele>7.6</ele>
        <time>2021-05-18T10:29:29Z</time>
      </trkpt>
      <trkpt lat="41.8316230" lon="-8.8751020">
        <ele>7.6</ele>
        <time>2021-05-18T10:29:30Z</time>
      </trkpt>
      <trkpt lat="41.8316290" lon="-8.8750990">
        <ele>7.6</ele>
        <time>2021-05-18T10:29:31Z</time>
      </trkpt>
      <trkpt lat="41.8316340" lon="-8.8751030">
        <ele>7.6</ele>
        <time>2021-05-18T10:29:32Z</time>
      </trkpt>
      <trkpt lat="41.8316480" lon="-8.8751060">
        <ele>7.6</ele>
        <time>2021-05-18T10:29:33Z</time>
      </trkpt>
      <trkpt lat="41.8316650" lon="-8.8751020">
        <ele>7.6</ele>
        <time>2021-05-18T10:29:34Z</time>
      </trkpt>
      <trkpt lat="41.8316750" lon="-8.8751010">
        <ele>7.6</ele>
        <time>2021-05-18T10:29:35Z</time>
      </trkpt>
      <trkpt lat="41.8316820" lon="-8.8751030">
        <ele>7.6</ele>
        <time>2021-05-18T10:29:36Z</time>
      </trkpt>
      <trkpt lat="41.8317030" lon="-8.8751010">
        <ele>7.6</ele>
        <time>2021-05-18T10:29:37Z</time>
      </trkpt>
      <trkpt lat="41.8317140" lon="-8.8751000">
        <ele>7.6</ele>
        <time>2021-05-18T10:29:38Z</time>
      </trkpt>
      <trkpt lat="41.8317240" lon="-8.8750990">
        <ele>7.6</ele>
        <time>2021-05-18T10:29:39Z</time>
      </trkpt>
      <trkpt lat="41.8317390" lon="-8.8750980">
        <ele>7.7</ele>
        <time>2021-05-18T10:29:40Z</time>
      </trkpt>
      <trkpt lat="41.8317540" lon="-8.8750960">
        <ele>7.7</ele>
        <time>2021-05-18T10:29:41Z</time>
      </trkpt>
      <trkpt lat="41.8317670" lon="-8.8750920">
        <ele>7.7</ele>
        <time>2021-05-18T10:29:42Z</time>
      </trkpt>
      <trkpt lat="41.8317820" lon="-8.8750860">
        <ele>7.7</ele>
        <time>2021-05-18T10:29:43Z</time>
      </trkpt>
      <trkpt lat="41.8318020" lon="-8.8750780">
        <ele>7.7</ele>
        <time>2021-05-18T10:29:44Z</time>
      </trkpt>
      <trkpt lat="41.8318100" lon="-8.8750730">
        <ele>7.7</ele>
        <time>2021-05-18T10:29:45Z</time>
      </trkpt>
      <trkpt lat="41.8318180" lon="-8.8750670">
        <ele>7.7</ele>
        <time>2021-05-18T10:29:46Z</time>
      </trkpt>
      <trkpt lat="41.8318310" lon="-8.8750590">
        <ele>7.7</ele>
        <time>2021-05-18T10:29:47Z</time>
      </trkpt>
      <trkpt lat="41.8318460" lon="-8.8750500">
        <ele>7.8</ele>
        <time>2021-05-18T10:29:48Z</time>
      </trkpt>
      <trkpt lat="41.8318580" lon="-8.8750480">
        <ele>7.8</ele>
        <time>2021-05-18T10:29:49Z</time>
      </trkpt>
      <trkpt lat="41.8318680" lon="-8.8750450">
        <ele>7.8</ele>
        <time>2021-05-18T10:29:50Z</time>
      </trkpt>
      <trkpt lat="41.8318800" lon="-8.8750370">
        <ele>7.8</ele>
        <time>2021-05-18T10:29:51Z</time>
      </trkpt>
      <trkpt lat="41.8318890" lon="-8.8750360">
        <ele>7.8</ele>
        <time>2021-05-18T10:29:52Z</time>
      </trkpt>
      <trkpt lat="41.8319010" lon="-8.8750340">
        <ele>7.8</ele>
        <time>2021-05-18T10:29:53Z</time>
      </trkpt>
      <trkpt lat="41.8319120" lon="-8.8750270">
        <ele>7.8</ele>
        <time>2021-05-18T10:29:54Z</time>
      </trkpt>
      <trkpt lat="41.8319350" lon="-8.8750200">
        <ele>7.9</ele>
        <time>2021-05-18T10:29:55Z</time>
      </trkpt>
      <trkpt lat="41.8319440" lon="-8.8750180">
        <ele>7.9</ele>
        <time>2021-05-18T10:29:56Z</time>
      </trkpt>
      <trkpt lat="41.8319540" lon="-8.8750170">
        <ele>7.9</ele>
        <time>2021-05-18T10:29:57Z</time>
      </trkpt>
      <trkpt lat="41.8319660" lon="-8.8750160">
        <ele>7.9</ele>
        <time>2021-05-18T10:29:58Z</time>
      </trkpt>
      <trkpt lat="41.8319760" lon="-8.8750160">
        <ele>7.9</ele>
        <time>2021-05-18T10:29:59Z</time>
      </trkpt>
      <trkpt lat="41.8319900" lon="-8.8750100">
        <ele>7.9</ele>
        <time>2021-05-18T10:30:00Z</time>
      </trkpt>
      <trkpt lat="41.8320090" lon="-8.8750050">
        <ele>7.9</ele>
        <time>2021-05-18T10:30:01Z</time>
      </trkpt>
      <trkpt lat="41.8320170" lon="-8.8750020">
        <ele>8.0</ele>
        <time>2021-05-18T10:30:02Z</time>
      </trkpt>
      <trkpt lat="41.8320260" lon="-8.8749990">
        <ele>8.0</ele>
        <time>2021-05-18T10:30:03Z</time>
      </trkpt>
      <trkpt lat="41.8320370" lon="-8.8749890">
        <ele>8.0</ele>
        <time>2021-05-18T10:30:04Z</time>
      </trkpt>
      <trkpt lat="41.8320470" lon="-8.8749820">
        <ele>8.0</ele>
        <time>2021-05-18T10:30:05Z</time>
      </trkpt>
      <trkpt lat="41.8320550" lon="-8.8749790">
        <ele>8.0</ele>
        <time>2021-05-18T10:30:06Z</time>
      </trkpt>
      <trkpt lat="41.8320660" lon="-8.8749770">
        <ele>8.0</ele>
        <time>2021-05-18T10:30:07Z</time>
      </trkpt>
      <trkpt lat="41.8320840" lon="-8.8749740">
        <ele>8.0</ele>
        <time>2021-05-18T10:30:08Z</time>
      </trkpt>
      <trkpt lat="41.8320960" lon="-8.8749730">
        <ele>8.0</ele>
        <time>2021-05-18T10:30:09Z</time>
      </trkpt>
      <trkpt lat="41.8321120" lon="-8.8749710">
        <ele>8.0</ele>
        <time>2021-05-18T10:30:10Z</time>
      </trkpt>
      <trkpt lat="41.8321350" lon="-8.8749740">
        <ele>8.1</ele>
        <time>2021-05-18T10:30:11Z</time>
      </trkpt>
      <trkpt lat="41.8321420" lon="-8.8749750">
        <ele>8.1</ele>
        <time>2021-05-18T10:30:12Z</time>
      </trkpt>
      <trkpt lat="41.8321500" lon="-8.8749770">
        <ele>8.1</ele>
        <time>2021-05-18T10:30:13Z</time>
      </trkpt>
      <trkpt lat="41.8321700" lon="-8.8749710">
        <ele>8.1</ele>
        <time>2021-05-18T10:30:14Z</time>
      </trkpt>
      <trkpt lat="41.8321800" lon="-8.8749710">
        <ele>8.1</ele>
        <time>2021-05-18T10:30:15Z</time>
      </trkpt>
      <trkpt lat="41.8321890" lon="-8.8749700">
        <ele>8.1</ele>
        <time>2021-05-18T10:30:16Z</time>
      </trkpt>
      <trkpt lat="41.8322070" lon="-8.8749660">
        <ele>8.1</ele>
        <time>2021-05-18T10:30:17Z</time>
      </trkpt>
      <trkpt lat="41.8322090" lon="-8.8749640">
        <ele>8.1</ele>
        <time>2021-05-18T10:30:18Z</time>
      </trkpt>
      <trkpt lat="41.8322160" lon="-8.8749640">
        <ele>8.1</ele>
        <time>2021-05-18T10:30:19Z</time>
      </trkpt>
      <trkpt lat="41.8322290" lon="-8.8749640">
        <ele>8.1</ele>
        <time>2021-05-18T10:30:20Z</time>
      </trkpt>
      <trkpt lat="41.8322430" lon="-8.8749600">
        <ele>8.2</ele>
        <time>2021-05-18T10:30:21Z</time>
      </trkpt>
      <trkpt lat="41.8322630" lon="-8.8749550">
        <ele>8.2</ele>
        <time>2021-05-18T10:30:22Z</time>
      </trkpt>
      <trkpt lat="41.8322730" lon="-8.8749550">
        <ele>8.2</ele>
        <time>2021-05-18T10:30:23Z</time>
      </trkpt>
      <trkpt lat="41.8322820" lon="-8.8749540">
        <ele>8.2</ele>
        <time>2021-05-18T10:30:24Z</time>
      </trkpt>
      <trkpt lat="41.8322970" lon="-8.8749500">
        <ele>8.2</ele>
        <time>2021-05-18T10:30:25Z</time>
      </trkpt>
      <trkpt lat="41.8323120" lon="-8.8749450">
        <ele>8.2</ele>
        <time>2021-05-18T10:30:26Z</time>
      </trkpt>
      <trkpt lat="41.8323200" lon="-8.8749460">
        <ele>8.2</ele>
        <time>2021-05-18T10:30:27Z</time>
      </trkpt>
      <trkpt lat="41.8323370" lon="-8.8749480">
        <ele>8.2</ele>
        <time>2021-05-18T10:30:28Z</time>
      </trkpt>
      <trkpt lat="41.8323480" lon="-8.8749480">
        <ele>8.2</ele>
        <time>2021-05-18T10:30:29Z</time>
      </trkpt>
      <trkpt lat="41.8323700" lon="-8.8749480">
        <ele>8.3</ele>
        <time>2021-05-18T10:30:30Z</time>
      </trkpt>
      <trkpt lat="41.8323790" lon="-8.8749500">
        <ele>8.3</ele>
        <time>2021-05-18T10:30:31Z</time>
      </trkpt>
      <trkpt lat="41.8323880" lon="-8.8749510">
        <ele>8.3</ele>
        <time>2021-05-18T10:30:32Z</time>
      </trkpt>
      <trkpt lat="41.8324040" lon="-8.8749530">
        <ele>8.3</ele>
        <time>2021-05-18T10:30:33Z</time>
      </trkpt>
      <trkpt lat="41.8324180" lon="-8.8749530">
        <ele>8.3</ele>
        <time>2021-05-18T10:30:34Z</time>
      </trkpt>
      <trkpt lat="41.8324420" lon="-8.8749500">
        <ele>8.3</ele>
        <time>2021-05-18T10:30:35Z</time>
      </trkpt>
      <trkpt lat="41.8324530" lon="-8.8749470">
        <ele>8.3</ele>
        <time>2021-05-18T10:30:36Z</time>
      </trkpt>
      <trkpt lat="41.8324640" lon="-8.8749440">
        <ele>8.3</ele>
        <time>2021-05-18T10:30:37Z</time>
      </trkpt>
      <trkpt lat="41.8324750" lon="-8.8749480">
        <ele>8.3</ele>
        <time>2021-05-18T10:30:38Z</time>
      </trkpt>
      <trkpt lat="41.8324810" lon="-8.8749470">
        <ele>8.3</ele>
        <time>2021-05-18T10:30:39Z</time>
      </trkpt>
      <trkpt lat="41.8324930" lon="-8.8749450">
        <ele>8.3</ele>
        <time>2021-05-18T10:30:40Z</time>
      </trkpt>
      <trkpt lat="41.8325120" lon="-8.8749460">
        <ele>8.3</ele>
        <time>2021-05-18T10:30:41Z</time>
      </trkpt>
      <trkpt lat="41.8325240" lon="-8.8749470">
        <ele>8.3</ele>
        <time>2021-05-18T10:30:42Z</time>
      </trkpt>
      <trkpt lat="41.8325350" lon="-8.8749480">
        <ele>8.3</ele>
        <time>2021-05-18T10:30:43Z</time>
      </trkpt>
      <trkpt lat="41.8325470" lon="-8.8749500">
        <ele>8.3</ele>
        <time>2021-05-18T10:30:44Z</time>
      </trkpt>
      <trkpt lat="41.8325630" lon="-8.8749460">
        <ele>8.3</ele>
        <time>2021-05-18T10:30:45Z</time>
      </trkpt>
      <trkpt lat="41.8325830" lon="-8.8749500">
        <ele>8.3</ele>
        <time>2021-05-18T10:30:46Z</time>
      </trkpt>
      <trkpt lat="41.8325910" lon="-8.8749500">
        <ele>8.3</ele>
        <time>2021-05-18T10:30:47Z</time>
      </trkpt>
      <trkpt lat="41.8326000" lon="-8.8749490">
        <ele>8.3</ele>
        <time>2021-05-18T10:30:48Z</time>
      </trkpt>
      <trkpt lat="41.8326190" lon="-8.8749420">
        <ele>8.3</ele>
        <time>2021-05-18T10:30:49Z</time>
      </trkpt>
      <trkpt lat="41.8326290" lon="-8.8749400">
        <ele>8.3</ele>
        <time>2021-05-18T10:30:50Z</time>
      </trkpt>
      <trkpt lat="41.8326380" lon="-8.8749390">
        <ele>8.3</ele>
        <time>2021-05-18T10:30:51Z</time>
      </trkpt>
      <trkpt lat="41.8326510" lon="-8.8749370">
        <ele>8.3</ele>
        <time>2021-05-18T10:30:52Z</time>
      </trkpt>
      <trkpt lat="41.8326590" lon="-8.8749400">
        <ele>8.3</ele>
        <time>2021-05-18T10:30:53Z</time>
      </trkpt>
      <trkpt lat="41.8326680" lon="-8.8749410">
        <ele>8.3</ele>
        <time>2021-05-18T10:30:54Z</time>
      </trkpt>
      <trkpt lat="41.8326860" lon="-8.8749480">
        <ele>8.3</ele>
        <time>2021-05-18T10:30:55Z</time>
      </trkpt>
      <trkpt lat="41.8327030" lon="-8.8749470">
        <ele>8.3</ele>
        <time>2021-05-18T10:30:56Z</time>
      </trkpt>
      <trkpt lat="41.8327120" lon="-8.8749520">
        <ele>8.3</ele>
        <time>2021-05-18T10:30:57Z</time>
      </trkpt>
      <trkpt lat="41.8327220" lon="-8.8749550">
        <ele>8.3</ele>
        <time>2021-05-18T10:30:58Z</time>
      </trkpt>
      <trkpt lat="41.8327370" lon="-8.8749520">
        <ele>8.3</ele>
        <time>2021-05-18T10:30:59Z</time>
      </trkpt>
      <trkpt lat="41.8327530" lon="-8.8749530">
        <ele>8.3</ele>
        <time>2021-05-18T10:31:00Z</time>
      </trkpt>
      <trkpt lat="41.8327630" lon="-8.8749540">
        <ele>8.3</ele>
        <time>2021-05-18T10:31:01Z</time>
      </trkpt>
      <trkpt lat="41.8327730" lon="-8.8749550">
        <ele>8.3</ele>
        <time>2021-05-18T10:31:02Z</time>
      </trkpt>
      <trkpt lat="41.8327830" lon="-8.8749560">
        <ele>8.3</ele>
        <time>2021-05-18T10:31:03Z</time>
      </trkpt>
      <trkpt lat="41.8328060" lon="-8.8749610">
        <ele>8.3</ele>
        <time>2021-05-18T10:31:04Z</time>
      </trkpt>
      <trkpt lat="41.8328140" lon="-8.8749620">
        <ele>8.3</ele>
        <time>2021-05-18T10:31:05Z</time>
      </trkpt>
      <trkpt lat="41.8328230" lon="-8.8749640">
        <ele>8.3</ele>
        <time>2021-05-18T10:31:06Z</time>
      </trkpt>
      <trkpt lat="41.8328410" lon="-8.8749680">
        <ele>8.3</ele>
        <time>2021-05-18T10:31:07Z</time>
      </trkpt>
      <trkpt lat="41.8328510" lon="-8.8749690">
        <ele>8.3</ele>
        <time>2021-05-18T10:31:08Z</time>
      </trkpt>
      <trkpt lat="41.8328600" lon="-8.8749700">
        <ele>8.3</ele>
        <time>2021-05-18T10:31:09Z</time>
      </trkpt>
      <trkpt lat="41.8328750" lon="-8.8749720">
        <ele>8.3</ele>
        <time>2021-05-18T10:31:10Z</time>
      </trkpt>
      <trkpt lat="41.8328900" lon="-8.8749770">
        <ele>8.3</ele>
        <time>2021-05-18T10:31:11Z</time>
      </trkpt>
      <trkpt lat="41.8329010" lon="-8.8749810">
        <ele>8.3</ele>
        <time>2021-05-18T10:31:12Z</time>
      </trkpt>
      <trkpt lat="41.8329110" lon="-8.8749860">
        <ele>8.3</ele>
        <time>2021-05-18T10:31:13Z</time>
      </trkpt>
      <trkpt lat="41.8329250" lon="-8.8749870">
        <ele>8.3</ele>
        <time>2021-05-18T10:31:14Z</time>
      </trkpt>
      <trkpt lat="41.8329400" lon="-8.8749900">
        <ele>8.3</ele>
        <time>2021-05-18T10:31:15Z</time>
      </trkpt>
      <trkpt lat="41.8329510" lon="-8.8749920">
        <ele>8.3</ele>
        <time>2021-05-18T10:31:16Z</time>
      </trkpt>
      <trkpt lat="41.8329690" lon="-8.8749920">
        <ele>8.3</ele>
        <time>2021-05-18T10:31:17Z</time>
      </trkpt>
      <trkpt lat="41.8329870" lon="-8.8749940">
        <ele>8.3</ele>
        <time>2021-05-18T10:31:18Z</time>
      </trkpt>
      <trkpt lat="41.8330020" lon="-8.8749940">
        <ele>8.3</ele>
        <time>2021-05-18T10:31:19Z</time>
      </trkpt>
      <trkpt lat="41.8330200" lon="-8.8749940">
        <ele>8.3</ele>
        <time>2021-05-18T10:31:20Z</time>
      </trkpt>
      <trkpt lat="41.8330360" lon="-8.8749980">
        <ele>8.3</ele>
        <time>2021-05-18T10:31:21Z</time>
      </trkpt>
      <trkpt lat="41.8330490" lon="-8.8750020">
        <ele>8.3</ele>
        <time>2021-05-18T10:31:22Z</time>
      </trkpt>
      <trkpt lat="41.8330650" lon="-8.8750000">
        <ele>8.3</ele>
        <time>2021-05-18T10:31:23Z</time>
      </trkpt>
      <trkpt lat="41.8330810" lon="-8.8750030">
        <ele>8.3</ele>
        <time>2021-05-18T10:31:24Z</time>
      </trkpt>
      <trkpt lat="41.8330950" lon="-8.8750010">
        <ele>8.3</ele>
        <time>2021-05-18T10:31:25Z</time>
      </trkpt>
      <trkpt lat="41.8331110" lon="-8.8750070">
        <ele>8.3</ele>
        <time>2021-05-18T10:31:26Z</time>
      </trkpt>
      <trkpt lat="41.8331260" lon="-8.8750010">
        <ele>8.3</ele>
        <time>2021-05-18T10:31:27Z</time>
      </trkpt>
      <trkpt lat="41.8331410" lon="-8.8750020">
        <ele>8.2</ele>
        <time>2021-05-18T10:31:28Z</time>
      </trkpt>
      <trkpt lat="41.8331560" lon="-8.8750040">
        <ele>8.2</ele>
        <time>2021-05-18T10:31:29Z</time>
      </trkpt>
      <trkpt lat="41.8331670" lon="-8.8750030">
        <ele>8.2</ele>
        <time>2021-05-18T10:31:30Z</time>
      </trkpt>
      <trkpt lat="41.8331750" lon="-8.8750020">
        <ele>8.2</ele>
        <time>2021-05-18T10:31:31Z</time>
      </trkpt>
      <trkpt lat="41.8331960" lon="-8.8750070">
        <ele>8.2</ele>
        <time>2021-05-18T10:31:32Z</time>
      </trkpt>
      <trkpt lat="41.8332040" lon="-8.8750110">
        <ele>8.2</ele>
        <time>2021-05-18T10:31:33Z</time>
      </trkpt>
      <trkpt lat="41.8332120" lon="-8.8750140">
        <ele>8.2</ele>
        <time>2021-05-18T10:31:34Z</time>
      </trkpt>
      <trkpt lat="41.8332340" lon="-8.8750160">
        <ele>8.2</ele>
        <time>2021-05-18T10:31:35Z</time>
      </trkpt>
      <trkpt lat="41.8332410" lon="-8.8750160">
        <ele>8.2</ele>
        <time>2021-05-18T10:31:36Z</time>
      </trkpt>
      <trkpt lat="41.8332490" lon="-8.8750170">
        <ele>8.2</ele>
        <time>2021-05-18T10:31:37Z</time>
      </trkpt>
      <trkpt lat="41.8332600" lon="-8.8750150">
        <ele>8.1</ele>
        <time>2021-05-18T10:31:38Z</time>
      </trkpt>
      <trkpt lat="41.8332680" lon="-8.8750210">
        <ele>8.1</ele>
        <time>2021-05-18T10:31:39Z</time>
      </trkpt>
      <trkpt lat="41.8332820" lon="-8.8750240">
        <ele>8.1</ele>
        <time>2021-05-18T10:31:40Z</time>
      </trkpt>
      <trkpt lat="41.8332880" lon="-8.8750270">
        <ele>8.1</ele>
        <time>2021-05-18T10:31:41Z</time>
      </trkpt>
      <trkpt lat="41.8332970" lon="-8.8750270">
        <ele>8.1</ele>
        <time>2021-05-18T10:31:42Z</time>
      </trkpt>
      <trkpt lat="41.8333120" lon="-8.8750240">
        <ele>8.1</ele>
        <time>2021-05-18T10:31:43Z</time>
      </trkpt>
      <trkpt lat="41.8333290" lon="-8.8750230">
        <ele>8.1</ele>
        <time>2021-05-18T10:31:44Z</time>
      </trkpt>
      <trkpt lat="41.8333410" lon="-8.8750220">
        <ele>8.1</ele>
        <time>2021-05-18T10:31:45Z</time>
      </trkpt>
      <trkpt lat="41.8333520" lon="-8.8750200">
        <ele>8.1</ele>
        <time>2021-05-18T10:31:46Z</time>
      </trkpt>
      <trkpt lat="41.8333670" lon="-8.8750170">
        <ele>8.0</ele>
        <time>2021-05-18T10:31:47Z</time>
      </trkpt>
      <trkpt lat="41.8333800" lon="-8.8750140">
        <ele>8.0</ele>
        <time>2021-05-18T10:31:48Z</time>
      </trkpt>
      <trkpt lat="41.8333960" lon="-8.8750110">
        <ele>8.0</ele>
        <time>2021-05-18T10:31:49Z</time>
      </trkpt>
      <trkpt lat="41.8334070" lon="-8.8750100">
        <ele>8.0</ele>
        <time>2021-05-18T10:31:50Z</time>
      </trkpt>
      <trkpt lat="41.8334250" lon="-8.8750120">
        <ele>8.0</ele>
        <time>2021-05-18T10:31:51Z</time>
      </trkpt>
      <trkpt lat="41.8334370" lon="-8.8750130">
        <ele>8.0</ele>
        <time>2021-05-18T10:31:52Z</time>
      </trkpt>
      <trkpt lat="41.8334520" lon="-8.8750050">
        <ele>8.0</ele>
        <time>2021-05-18T10:31:53Z</time>
      </trkpt>
      <trkpt lat="41.8334680" lon="-8.8750030">
        <ele>8.0</ele>
        <time>2021-05-18T10:31:54Z</time>
      </trkpt>
      <trkpt lat="41.8334770" lon="-8.8750020">
        <ele>8.0</ele>
        <time>2021-05-18T10:31:55Z</time>
      </trkpt>
      <trkpt lat="41.8334900" lon="-8.8750000">
        <ele>8.0</ele>
        <time>2021-05-18T10:31:56Z</time>
      </trkpt>
      <trkpt lat="41.8335000" lon="-8.8749970">
        <ele>8.0</ele>
        <time>2021-05-18T10:31:57Z</time>
      </trkpt>
      <trkpt lat="41.8335180" lon="-8.8749960">
        <ele>8.0</ele>
        <time>2021-05-18T10:31:58Z</time>
      </trkpt>
      <trkpt lat="41.8335320" lon="-8.8749990">
        <ele>7.9</ele>
        <time>2021-05-18T10:31:59Z</time>
      </trkpt>
      <trkpt lat="41.8335450" lon="-8.8749940">
        <ele>7.9</ele>
        <time>2021-05-18T10:32:00Z</time>
      </trkpt>
      <trkpt lat="41.8335620" lon="-8.8749940">
        <ele>7.9</ele>
        <time>2021-05-18T10:32:01Z</time>
      </trkpt>
      <trkpt lat="41.8335830" lon="-8.8749850">
        <ele>7.9</ele>
        <time>2021-05-18T10:32:02Z</time>
      </trkpt>
      <trkpt lat="41.8335910" lon="-8.8749840">
        <ele>7.9</ele>
        <time>2021-05-18T10:32:03Z</time>
      </trkpt>
      <trkpt lat="41.8335990" lon="-8.8749840">
        <ele>7.9</ele>
        <time>2021-05-18T10:32:04Z</time>
      </trkpt>
      <trkpt lat="41.8336060" lon="-8.8749810">
        <ele>7.9</ele>
        <time>2021-05-18T10:32:05Z</time>
      </trkpt>
      <trkpt lat="41.8336190" lon="-8.8749790">
        <ele>7.9</ele>
        <time>2021-05-18T10:32:06Z</time>
      </trkpt>
      <trkpt lat="41.8336310" lon="-8.8749740">
        <ele>7.9</ele>
        <time>2021-05-18T10:32:07Z</time>
      </trkpt>
      <trkpt lat="41.8336510" lon="-8.8749690">
        <ele>7.9</ele>
        <time>2021-05-18T10:32:08Z</time>
      </trkpt>
      <trkpt lat="41.8336590" lon="-8.8749650">
        <ele>7.8</ele>
        <time>2021-05-18T10:32:09Z</time>
      </trkpt>
      <trkpt lat="41.8336680" lon="-8.8749620">
        <ele>7.8</ele>
        <time>2021-05-18T10:32:10Z</time>
      </trkpt>
      <trkpt lat="41.8336830" lon="-8.8749600">
        <ele>7.8</ele>
        <time>2021-05-18T10:32:11Z</time>
      </trkpt>
      <trkpt lat="41.8336970" lon="-8.8749530">
        <ele>7.8</ele>
        <time>2021-05-18T10:32:12Z</time>
      </trkpt>
      <trkpt lat="41.8337090" lon="-8.8749530">
        <ele>7.8</ele>
        <time>2021-05-18T10:32:13Z</time>
      </trkpt>
      <trkpt lat="41.8337270" lon="-8.8749500">
        <ele>7.8</ele>
        <time>2021-05-18T10:32:14Z</time>
      </trkpt>
      <trkpt lat="41.8337440" lon="-8.8749470">
        <ele>7.8</ele>
        <time>2021-05-18T10:32:15Z</time>
      </trkpt>
      <trkpt lat="41.8337590" lon="-8.8749320">
        <ele>7.8</ele>
        <time>2021-05-18T10:32:16Z</time>
      </trkpt>
      <trkpt lat="41.8337750" lon="-8.8749270">
        <ele>7.7</ele>
        <time>2021-05-18T10:32:17Z</time>
      </trkpt>
      <trkpt lat="41.8337890" lon="-8.8749200">
        <ele>7.7</ele>
        <time>2021-05-18T10:32:18Z</time>
      </trkpt>
      <trkpt lat="41.8338030" lon="-8.8749150">
        <ele>7.7</ele>
        <time>2021-05-18T10:32:19Z</time>
      </trkpt>
      <trkpt lat="41.8338180" lon="-8.8749150">
        <ele>7.7</ele>
        <time>2021-05-18T10:32:20Z</time>
      </trkpt>
      <trkpt lat="41.8338350" lon="-8.8749130">
        <ele>7.7</ele>
        <time>2021-05-18T10:32:21Z</time>
      </trkpt>
      <trkpt lat="41.8338510" lon="-8.8749060">
        <ele>7.7</ele>
        <time>2021-05-18T10:32:22Z</time>
      </trkpt>
      <trkpt lat="41.8338680" lon="-8.8749040">
        <ele>7.7</ele>
        <time>2021-05-18T10:32:23Z</time>
      </trkpt>
      <trkpt lat="41.8338820" lon="-8.8748930">
        <ele>7.7</ele>
        <time>2021-05-18T10:32:24Z</time>
      </trkpt>
      <trkpt lat="41.8338980" lon="-8.8748950">
        <ele>7.7</ele>
        <time>2021-05-18T10:32:25Z</time>
      </trkpt>
      <trkpt lat="41.8339120" lon="-8.8748870">
        <ele>7.7</ele>
        <time>2021-05-18T10:32:26Z</time>
      </trkpt>
      <trkpt lat="41.8339260" lon="-8.8748860">
        <ele>7.7</ele>
        <time>2021-05-18T10:32:27Z</time>
      </trkpt>
      <trkpt lat="41.8339410" lon="-8.8748820">
        <ele>7.7</ele>
        <time>2021-05-18T10:32:28Z</time>
      </trkpt>
      <trkpt lat="41.8339550" lon="-8.8748830">
        <ele>7.7</ele>
        <time>2021-05-18T10:32:29Z</time>
      </trkpt>
      <trkpt lat="41.8339680" lon="-8.8748800">
        <ele>7.6</ele>
        <time>2021-05-18T10:32:30Z</time>
      </trkpt>
      <trkpt lat="41.8339840" lon="-8.8748810">
        <ele>7.6</ele>
        <time>2021-05-18T10:32:31Z</time>
      </trkpt>
      <trkpt lat="41.8339980" lon="-8.8748760">
        <ele>7.6</ele>
        <time>2021-05-18T10:32:32Z</time>
      </trkpt>
      <trkpt lat="41.8340130" lon="-8.8748740">
        <ele>7.6</ele>
        <time>2021-05-18T10:32:33Z</time>
      </trkpt>
      <trkpt lat="41.8340280" lon="-8.8748790">
        <ele>7.6</ele>
        <time>2021-05-18T10:32:34Z</time>
      </trkpt>
      <trkpt lat="41.8340430" lon="-8.8748830">
        <ele>7.6</ele>
        <time>2021-05-18T10:32:35Z</time>
      </trkpt>
      <trkpt lat="41.8340570" lon="-8.8748850">
        <ele>7.6</ele>
        <time>2021-05-18T10:32:36Z</time>
      </trkpt>
      <trkpt lat="41.8340710" lon="-8.8748850">
        <ele>7.6</ele>
        <time>2021-05-18T10:32:37Z</time>
      </trkpt>
      <trkpt lat="41.8340840" lon="-8.8748860">
        <ele>7.6</ele>
        <time>2021-05-18T10:32:38Z</time>
      </trkpt>
      <trkpt lat="41.8340920" lon="-8.8748910">
        <ele>7.6</ele>
        <time>2021-05-18T10:32:39Z</time>
      </trkpt>
      <trkpt lat="41.8340980" lon="-8.8748970">
        <ele>7.6</ele>
        <time>2021-05-18T10:32:40Z</time>
      </trkpt>
      <trkpt lat="41.8340990" lon="-8.8749030">
        <ele>7.6</ele>
        <time>2021-05-18T10:32:41Z</time>
      </trkpt>
      <trkpt lat="41.8341040" lon="-8.8749030">
        <ele>7.6</ele>
        <time>2021-05-18T10:32:42Z</time>
      </trkpt>
      <trkpt lat="41.8341070" lon="-8.8749030">
        <ele>7.6</ele>
        <time>2021-05-18T10:32:43Z</time>
      </trkpt>
      <trkpt lat="41.8341200" lon="-8.8749100">
        <ele>7.6</ele>
        <time>2021-05-18T10:32:44Z</time>
      </trkpt>
      <trkpt lat="41.8341350" lon="-8.8749130">
        <ele>7.6</ele>
        <time>2021-05-18T10:32:45Z</time>
      </trkpt>
      <trkpt lat="41.8341470" lon="-8.8749160">
        <ele>7.6</ele>
        <time>2021-05-18T10:32:46Z</time>
      </trkpt>
      <trkpt lat="41.8341550" lon="-8.8749210">
        <ele>7.5</ele>
        <time>2021-05-18T10:32:47Z</time>
      </trkpt>
      <trkpt lat="41.8341620" lon="-8.8749260">
        <ele>7.5</ele>
        <time>2021-05-18T10:32:48Z</time>
      </trkpt>
      <trkpt lat="41.8341690" lon="-8.8749240">
        <ele>7.5</ele>
        <time>2021-05-18T10:32:49Z</time>
      </trkpt>
      <trkpt lat="41.8341870" lon="-8.8749280">
        <ele>7.5</ele>
        <time>2021-05-18T10:32:50Z</time>
      </trkpt>
      <trkpt lat="41.8341960" lon="-8.8749250">
        <ele>7.5</ele>
        <time>2021-05-18T10:32:51Z</time>
      </trkpt>
      <trkpt lat="41.8342060" lon="-8.8749190">
        <ele>7.5</ele>
        <time>2021-05-18T10:32:52Z</time>
      </trkpt>
      <trkpt lat="41.8342200" lon="-8.8749200">
        <ele>7.5</ele>
        <time>2021-05-18T10:32:53Z</time>
      </trkpt>
      <trkpt lat="41.8342390" lon="-8.8749180">
        <ele>7.5</ele>
        <time>2021-05-18T10:32:54Z</time>
      </trkpt>
      <trkpt lat="41.8342490" lon="-8.8749150">
        <ele>7.5</ele>
        <time>2021-05-18T10:32:55Z</time>
      </trkpt>
      <trkpt lat="41.8342580" lon="-8.8749110">
        <ele>7.5</ele>
        <time>2021-05-18T10:32:56Z</time>
      </trkpt>
      <trkpt lat="41.8342640" lon="-8.8749080">
        <ele>7.5</ele>
        <time>2021-05-18T10:32:57Z</time>
      </trkpt>
      <trkpt lat="41.8342750" lon="-8.8749040">
        <ele>7.5</ele>
        <time>2021-05-18T10:32:58Z</time>
      </trkpt>
      <trkpt lat="41.8342880" lon="-8.8749000">
        <ele>7.5</ele>
        <time>2021-05-18T10:32:59Z</time>
      </trkpt>
      <trkpt lat="41.8343010" lon="-8.8748970">
        <ele>7.5</ele>
        <time>2021-05-18T10:33:00Z</time>
      </trkpt>
      <trkpt lat="41.8343130" lon="-8.8748920">
        <ele>7.5</ele>
        <time>2021-05-18T10:33:01Z</time>
      </trkpt>
      <trkpt lat="41.8343220" lon="-8.8748870">
        <ele>7.5</ele>
        <time>2021-05-18T10:33:02Z</time>
      </trkpt>
      <trkpt lat="41.8343340" lon="-8.8748840">
        <ele>7.5</ele>
        <time>2021-05-18T10:33:03Z</time>
      </trkpt>
      <trkpt lat="41.8343480" lon="-8.8748740">
        <ele>7.5</ele>
        <time>2021-05-18T10:33:04Z</time>
      </trkpt>
      <trkpt lat="41.8343570" lon="-8.8748710">
        <ele>7.5</ele>
        <time>2021-05-18T10:33:05Z</time>
      </trkpt>
      <trkpt lat="41.8343690" lon="-8.8748640">
        <ele>7.5</ele>
        <time>2021-05-18T10:33:06Z</time>
      </trkpt>
      <trkpt lat="41.8343790" lon="-8.8748600">
        <ele>7.5</ele>
        <time>2021-05-18T10:33:07Z</time>
      </trkpt>
      <trkpt lat="41.8344020" lon="-8.8748580">
        <ele>7.5</ele>
        <time>2021-05-18T10:33:08Z</time>
      </trkpt>
      <trkpt lat="41.8344110" lon="-8.8748560">
        <ele>7.5</ele>
        <time>2021-05-18T10:33:09Z</time>
      </trkpt>
      <trkpt lat="41.8344210" lon="-8.8748530">
        <ele>7.5</ele>
        <time>2021-05-18T10:33:10Z</time>
      </trkpt>
      <trkpt lat="41.8344310" lon="-8.8748510">
        <ele>7.5</ele>
        <time>2021-05-18T10:33:11Z</time>
      </trkpt>
      <trkpt lat="41.8344360" lon="-8.8748470">
        <ele>7.5</ele>
        <time>2021-05-18T10:33:12Z</time>
      </trkpt>
      <trkpt lat="41.8344500" lon="-8.8748430">
        <ele>7.5</ele>
        <time>2021-05-18T10:33:13Z</time>
      </trkpt>
      <trkpt lat="41.8344670" lon="-8.8748420">
        <ele>7.5</ele>
        <time>2021-05-18T10:33:14Z</time>
      </trkpt>
      <trkpt lat="41.8344790" lon="-8.8748380">
        <ele>7.5</ele>
        <time>2021-05-18T10:33:15Z</time>
      </trkpt>
      <trkpt lat="41.8344940" lon="-8.8748400">
        <ele>7.5</ele>
        <time>2021-05-18T10:33:16Z</time>
      </trkpt>
      <trkpt lat="41.8345080" lon="-8.8748330">
        <ele>7.5</ele>
        <time>2021-05-18T10:33:17Z</time>
      </trkpt>
      <trkpt lat="41.8345220" lon="-8.8748280">
        <ele>7.5</ele>
        <time>2021-05-18T10:33:18Z</time>
      </trkpt>
      <trkpt lat="41.8345370" lon="-8.8748200">
        <ele>7.5</ele>
        <time>2021-05-18T10:33:19Z</time>
      </trkpt>
      <trkpt lat="41.8345540" lon="-8.8748170">
        <ele>7.5</ele>
        <time>2021-05-18T10:33:20Z</time>
      </trkpt>
      <trkpt lat="41.8345650" lon="-8.8748150">
        <ele>7.5</ele>
        <time>2021-05-18T10:33:21Z</time>
      </trkpt>
      <trkpt lat="41.8345750" lon="-8.8748140">
        <ele>7.5</ele>
        <time>2021-05-18T10:33:22Z</time>
      </trkpt>
      <trkpt lat="41.8345850" lon="-8.8748090">
        <ele>7.5</ele>
        <time>2021-05-18T10:33:23Z</time>
      </trkpt>
      <trkpt lat="41.8345970" lon="-8.8748030">
        <ele>7.5</ele>
        <time>2021-05-18T10:33:24Z</time>
      </trkpt>
      <trkpt lat="41.8345990" lon="-8.8747970">
        <ele>7.5</ele>
        <time>2021-05-18T10:33:25Z</time>
      </trkpt>
      <trkpt lat="41.8346140" lon="-8.8747950">
        <ele>7.5</ele>
        <time>2021-05-18T10:33:26Z</time>
      </trkpt>
      <trkpt lat="41.8346290" lon="-8.8747920">
        <ele>7.5</ele>
        <time>2021-05-18T10:33:27Z</time>
      </trkpt>
      <trkpt lat="41.8346420" lon="-8.8747890">
        <ele>7.5</ele>
        <time>2021-05-18T10:33:28Z</time>
      </trkpt>
      <trkpt lat="41.8346570" lon="-8.8747870">
        <ele>7.5</ele>
        <time>2021-05-18T10:33:29Z</time>
      </trkpt>
      <trkpt lat="41.8346650" lon="-8.8747820">
        <ele>7.5</ele>
        <time>2021-05-18T10:33:30Z</time>
      </trkpt>
      <trkpt lat="41.8346760" lon="-8.8747800">
        <ele>7.5</ele>
        <time>2021-05-18T10:33:31Z</time>
      </trkpt>
      <trkpt lat="41.8346880" lon="-8.8747790">
        <ele>7.5</ele>
        <time>2021-05-18T10:33:32Z</time>
      </trkpt>
      <trkpt lat="41.8347000" lon="-8.8747750">
        <ele>7.5</ele>
        <time>2021-05-18T10:33:33Z</time>
      </trkpt>
      <trkpt lat="41.8347190" lon="-8.8747740">
        <ele>7.5</ele>
        <time>2021-05-18T10:33:34Z</time>
      </trkpt>
      <trkpt lat="41.8347400" lon="-8.8747720">
        <ele>7.5</ele>
        <time>2021-05-18T10:33:35Z</time>
      </trkpt>
      <trkpt lat="41.8347500" lon="-8.8747720">
        <ele>7.5</ele>
        <time>2021-05-18T10:33:36Z</time>
      </trkpt>
      <trkpt lat="41.8347600" lon="-8.8747710">
        <ele>7.5</ele>
        <time>2021-05-18T10:33:37Z</time>
      </trkpt>
      <trkpt lat="41.8347750" lon="-8.8747700">
        <ele>7.5</ele>
        <time>2021-05-18T10:33:38Z</time>
      </trkpt>
      <trkpt lat="41.8347870" lon="-8.8747670">
        <ele>7.5</ele>
        <time>2021-05-18T10:33:39Z</time>
      </trkpt>
      <trkpt lat="41.8347970" lon="-8.8747610">
        <ele>7.5</ele>
        <time>2021-05-18T10:33:40Z</time>
      </trkpt>
      <trkpt lat="41.8348130" lon="-8.8747530">
        <ele>7.5</ele>
        <time>2021-05-18T10:33:41Z</time>
      </trkpt>
      <trkpt lat="41.8348330" lon="-8.8747500">
        <ele>7.5</ele>
        <time>2021-05-18T10:33:42Z</time>
      </trkpt>
      <trkpt lat="41.8348420" lon="-8.8747520">
        <ele>7.5</ele>
        <time>2021-05-18T10:33:43Z</time>
      </trkpt>
      <trkpt lat="41.8348510" lon="-8.8747530">
        <ele>7.5</ele>
        <time>2021-05-18T10:33:44Z</time>
      </trkpt>
      <trkpt lat="41.8348710" lon="-8.8747480">
        <ele>7.5</ele>
        <time>2021-05-18T10:33:45Z</time>
      </trkpt>
      <trkpt lat="41.8348810" lon="-8.8747440">
        <ele>7.5</ele>
        <time>2021-05-18T10:33:46Z</time>
      </trkpt>
      <trkpt lat="41.8348900" lon="-8.8747410">
        <ele>7.5</ele>
        <time>2021-05-18T10:33:47Z</time>
      </trkpt>
      <trkpt lat="41.8349010" lon="-8.8747350">
        <ele>7.5</ele>
        <time>2021-05-18T10:33:48Z</time>
      </trkpt>
      <trkpt lat="41.8349110" lon="-8.8747300">
        <ele>7.5</ele>
        <time>2021-05-18T10:33:49Z</time>
      </trkpt>
      <trkpt lat="41.8349210" lon="-8.8747300">
        <ele>7.5</ele>
        <time>2021-05-18T10:33:50Z</time>
      </trkpt>
      <trkpt lat="41.8349430" lon="-8.8747230">
        <ele>7.5</ele>
        <time>2021-05-18T10:33:51Z</time>
      </trkpt>
      <trkpt lat="41.8349530" lon="-8.8747200">
        <ele>7.5</ele>
        <time>2021-05-18T10:33:52Z</time>
      </trkpt>
      <trkpt lat="41.8349620" lon="-8.8747160">
        <ele>7.5</ele>
        <time>2021-05-18T10:33:53Z</time>
      </trkpt>
      <trkpt lat="41.8349800" lon="-8.8747080">
        <ele>7.5</ele>
        <time>2021-05-18T10:33:54Z</time>
      </trkpt>
      <trkpt lat="41.8349950" lon="-8.8747050">
        <ele>7.5</ele>
        <time>2021-05-18T10:33:55Z</time>
      </trkpt>
      <trkpt lat="41.8350080" lon="-8.8746950">
        <ele>7.5</ele>
        <time>2021-05-18T10:33:56Z</time>
      </trkpt>
      <trkpt lat="41.8350220" lon="-8.8746920">
        <ele>7.5</ele>
        <time>2021-05-18T10:33:57Z</time>
      </trkpt>
      <trkpt lat="41.8350400" lon="-8.8746880">
        <ele>7.5</ele>
        <time>2021-05-18T10:33:58Z</time>
      </trkpt>
      <trkpt lat="41.8350570" lon="-8.8746790">
        <ele>7.5</ele>
        <time>2021-05-18T10:33:59Z</time>
      </trkpt>
      <trkpt lat="41.8350700" lon="-8.8746660">
        <ele>7.5</ele>
        <time>2021-05-18T10:34:00Z</time>
      </trkpt>
      <trkpt lat="41.8350850" lon="-8.8746630">
        <ele>7.5</ele>
        <time>2021-05-18T10:34:01Z</time>
      </trkpt>
      <trkpt lat="41.8351000" lon="-8.8746610">
        <ele>7.5</ele>
        <time>2021-05-18T10:34:02Z</time>
      </trkpt>
      <trkpt lat="41.8351170" lon="-8.8746570">
        <ele>7.5</ele>
        <time>2021-05-18T10:34:03Z</time>
      </trkpt>
      <trkpt lat="41.8351320" lon="-8.8746550">
        <ele>7.5</ele>
        <time>2021-05-18T10:34:04Z</time>
      </trkpt>
      <trkpt lat="41.8351470" lon="-8.8746550">
        <ele>7.5</ele>
        <time>2021-05-18T10:34:05Z</time>
      </trkpt>
      <trkpt lat="41.8351610" lon="-8.8746550">
        <ele>7.5</ele>
        <time>2021-05-18T10:34:06Z</time>
      </trkpt>
      <trkpt lat="41.8351760" lon="-8.8746520">
        <ele>7.5</ele>
        <time>2021-05-18T10:34:07Z</time>
      </trkpt>
      <trkpt lat="41.8351900" lon="-8.8746490">
        <ele>7.5</ele>
        <time>2021-05-18T10:34:08Z</time>
      </trkpt>
      <trkpt lat="41.8352040" lon="-8.8746530">
        <ele>7.5</ele>
        <time>2021-05-18T10:34:09Z</time>
      </trkpt>
      <trkpt lat="41.8352180" lon="-8.8746480">
        <ele>7.5</ele>
        <time>2021-05-18T10:34:10Z</time>
      </trkpt>
      <trkpt lat="41.8352320" lon="-8.8746540">
        <ele>7.5</ele>
        <time>2021-05-18T10:34:11Z</time>
      </trkpt>
      <trkpt lat="41.8352480" lon="-8.8746510">
        <ele>7.5</ele>
        <time>2021-05-18T10:34:12Z</time>
      </trkpt>
      <trkpt lat="41.8352640" lon="-8.8746500">
        <ele>7.5</ele>
        <time>2021-05-18T10:34:13Z</time>
      </trkpt>
      <trkpt lat="41.8352780" lon="-8.8746450">
        <ele>7.5</ele>
        <time>2021-05-18T10:34:14Z</time>
      </trkpt>
      <trkpt lat="41.8352920" lon="-8.8746460">
        <ele>7.5</ele>
        <time>2021-05-18T10:34:15Z</time>
      </trkpt>
      <trkpt lat="41.8353060" lon="-8.8746560">
        <ele>7.5</ele>
        <time>2021-05-18T10:34:16Z</time>
      </trkpt>
      <trkpt lat="41.8353190" lon="-8.8746620">
        <ele>7.5</ele>
        <time>2021-05-18T10:34:17Z</time>
      </trkpt>
      <trkpt lat="41.8353330" lon="-8.8746640">
        <ele>7.5</ele>
        <time>2021-05-18T10:34:18Z</time>
      </trkpt>
      <trkpt lat="41.8353470" lon="-8.8746630">
        <ele>7.5</ele>
        <time>2021-05-18T10:34:19Z</time>
      </trkpt>
      <trkpt lat="41.8353610" lon="-8.8746630">
        <ele>7.4</ele>
        <time>2021-05-18T10:34:20Z</time>
      </trkpt>
      <trkpt lat="41.8353760" lon="-8.8746640">
        <ele>7.4</ele>
        <time>2021-05-18T10:34:21Z</time>
      </trkpt>
      <trkpt lat="41.8353900" lon="-8.8746660">
        <ele>7.4</ele>
        <time>2021-05-18T10:34:22Z</time>
      </trkpt>
      <trkpt lat="41.8354050" lon="-8.8746690">
        <ele>7.4</ele>
        <time>2021-05-18T10:34:23Z</time>
      </trkpt>
      <trkpt lat="41.8354190" lon="-8.8746700">
        <ele>7.4</ele>
        <time>2021-05-18T10:34:24Z</time>
      </trkpt>
      <trkpt lat="41.8354320" lon="-8.8746670">
        <ele>7.4</ele>
        <time>2021-05-18T10:34:25Z</time>
      </trkpt>
      <trkpt lat="41.8354460" lon="-8.8746640">
        <ele>7.4</ele>
        <time>2021-05-18T10:34:26Z</time>
      </trkpt>
      <trkpt lat="41.8354610" lon="-8.8746660">
        <ele>7.4</ele>
        <time>2021-05-18T10:34:27Z</time>
      </trkpt>
      <trkpt lat="41.8354740" lon="-8.8746640">
        <ele>7.4</ele>
        <time>2021-05-18T10:34:28Z</time>
      </trkpt>
      <trkpt lat="41.8354880" lon="-8.8746610">
        <ele>7.4</ele>
        <time>2021-05-18T10:34:29Z</time>
      </trkpt>
      <trkpt lat="41.8355020" lon="-8.8746620">
        <ele>7.4</ele>
        <time>2021-05-18T10:34:30Z</time>
      </trkpt>
      <trkpt lat="41.8355160" lon="-8.8746620">
        <ele>7.4</ele>
        <time>2021-05-18T10:34:31Z</time>
      </trkpt>
      <trkpt lat="41.8355300" lon="-8.8746610">
        <ele>7.4</ele>
        <time>2021-05-18T10:34:32Z</time>
      </trkpt>
      <trkpt lat="41.8355430" lon="-8.8746600">
        <ele>7.4</ele>
        <time>2021-05-18T10:34:33Z</time>
      </trkpt>
      <trkpt lat="41.8355670" lon="-8.8746620">
        <ele>7.4</ele>
        <time>2021-05-18T10:34:34Z</time>
      </trkpt>
      <trkpt lat="41.8355760" lon="-8.8746600">
        <ele>7.4</ele>
        <time>2021-05-18T10:34:35Z</time>
      </trkpt>
      <trkpt lat="41.8355850" lon="-8.8746590">
        <ele>7.4</ele>
        <time>2021-05-18T10:34:36Z</time>
      </trkpt>
      <trkpt lat="41.8355980" lon="-8.8746470">
        <ele>7.4</ele>
        <time>2021-05-18T10:34:37Z</time>
      </trkpt>
      <trkpt lat="41.8356120" lon="-8.8746440">
        <ele>7.4</ele>
        <time>2021-05-18T10:34:38Z</time>
      </trkpt>
      <trkpt lat="41.8356270" lon="-8.8746420">
        <ele>7.4</ele>
        <time>2021-05-18T10:34:39Z</time>
      </trkpt>
      <trkpt lat="41.8356410" lon="-8.8746360">
        <ele>7.4</ele>
        <time>2021-05-18T10:34:40Z</time>
      </trkpt>
      <trkpt lat="41.8356550" lon="-8.8746310">
        <ele>7.4</ele>
        <time>2021-05-18T10:34:41Z</time>
      </trkpt>
      <trkpt lat="41.8356700" lon="-8.8746250">
        <ele>7.4</ele>
        <time>2021-05-18T10:34:42Z</time>
      </trkpt>
      <trkpt lat="41.8356840" lon="-8.8746200">
        <ele>7.4</ele>
        <time>2021-05-18T10:34:43Z</time>
      </trkpt>
      <trkpt lat="41.8356970" lon="-8.8746150">
        <ele>7.4</ele>
        <time>2021-05-18T10:34:44Z</time>
      </trkpt>
      <trkpt lat="41.8357110" lon="-8.8746100">
        <ele>7.4</ele>
        <time>2021-05-18T10:34:45Z</time>
      </trkpt>
      <trkpt lat="41.8357240" lon="-8.8746020">
        <ele>7.4</ele>
        <time>2021-05-18T10:34:46Z</time>
      </trkpt>
      <trkpt lat="41.8357390" lon="-8.8745970">
        <ele>7.4</ele>
        <time>2021-05-18T10:34:47Z</time>
      </trkpt>
      <trkpt lat="41.8357530" lon="-8.8745910">
        <ele>7.4</ele>
        <time>2021-05-18T10:34:48Z</time>
      </trkpt>
      <trkpt lat="41.8357660" lon="-8.8745830">
        <ele>7.4</ele>
        <time>2021-05-18T10:34:49Z</time>
      </trkpt>
      <trkpt lat="41.8357780" lon="-8.8745780">
        <ele>7.4</ele>
        <time>2021-05-18T10:34:50Z</time>
      </trkpt>
      <trkpt lat="41.8357920" lon="-8.8745710">
        <ele>7.4</ele>
        <time>2021-05-18T10:34:51Z</time>
      </trkpt>
      <trkpt lat="41.8358060" lon="-8.8745690">
        <ele>7.4</ele>
        <time>2021-05-18T10:34:52Z</time>
      </trkpt>
      <trkpt lat="41.8358250" lon="-8.8745600">
        <ele>7.4</ele>
        <time>2021-05-18T10:34:53Z</time>
      </trkpt>
      <trkpt lat="41.8358330" lon="-8.8745570">
        <ele>7.4</ele>
        <time>2021-05-18T10:34:54Z</time>
      </trkpt>
      <trkpt lat="41.8358400" lon="-8.8745530">
        <ele>7.4</ele>
        <time>2021-05-18T10:34:55Z</time>
      </trkpt>
      <trkpt lat="41.8358470" lon="-8.8745490">
        <ele>7.4</ele>
        <time>2021-05-18T10:34:56Z</time>
      </trkpt>
      <trkpt lat="41.8358560" lon="-8.8745450">
        <ele>7.4</ele>
        <time>2021-05-18T10:34:57Z</time>
      </trkpt>
      <trkpt lat="41.8358630" lon="-8.8745420">
        <ele>7.4</ele>
        <time>2021-05-18T10:34:58Z</time>
      </trkpt>
      <trkpt lat="41.8358740" lon="-8.8745380">
        <ele>7.4</ele>
        <time>2021-05-18T10:34:59Z</time>
      </trkpt>
      <trkpt lat="41.8358840" lon="-8.8745400">
        <ele>7.4</ele>
        <time>2021-05-18T10:35:00Z</time>
      </trkpt>
      <trkpt lat="41.8358910" lon="-8.8745360">
        <ele>7.4</ele>
        <time>2021-05-18T10:35:01Z</time>
      </trkpt>
      <trkpt lat="41.8358980" lon="-8.8745360">
        <ele>7.4</ele>
        <time>2021-05-18T10:35:02Z</time>
      </trkpt>
      <trkpt lat="41.8359060" lon="-8.8745290">
        <ele>7.4</ele>
        <time>2021-05-18T10:35:03Z</time>
      </trkpt>
      <trkpt lat="41.8359230" lon="-8.8745260">
        <ele>7.5</ele>
        <time>2021-05-18T10:35:04Z</time>
      </trkpt>
      <trkpt lat="41.8359310" lon="-8.8745240">
        <ele>7.5</ele>
        <time>2021-05-18T10:35:05Z</time>
      </trkpt>
      <trkpt lat="41.8359380" lon="-8.8745210">
        <ele>7.5</ele>
        <time>2021-05-18T10:35:06Z</time>
      </trkpt>
      <trkpt lat="41.8359460" lon="-8.8745180">
        <ele>7.5</ele>
        <time>2021-05-18T10:35:07Z</time>
      </trkpt>
      <trkpt lat="41.8359680" lon="-8.8745130">
        <ele>7.5</ele>
        <time>2021-05-18T10:35:08Z</time>
      </trkpt>
      <trkpt lat="41.8359770" lon="-8.8745090">
        <ele>7.5</ele>
        <time>2021-05-18T10:35:09Z</time>
      </trkpt>
      <trkpt lat="41.8359860" lon="-8.8745060">
        <ele>7.5</ele>
        <time>2021-05-18T10:35:10Z</time>
      </trkpt>
      <trkpt lat="41.8360070" lon="-8.8745020">
        <ele>7.5</ele>
        <time>2021-05-18T10:35:11Z</time>
      </trkpt>
      <trkpt lat="41.8360160" lon="-8.8745000">
        <ele>7.5</ele>
        <time>2021-05-18T10:35:12Z</time>
      </trkpt>
      <trkpt lat="41.8360240" lon="-8.8744970">
        <ele>7.5</ele>
        <time>2021-05-18T10:35:13Z</time>
      </trkpt>
      <trkpt lat="41.8360330" lon="-8.8744930">
        <ele>7.5</ele>
        <time>2021-05-18T10:35:14Z</time>
      </trkpt>
      <trkpt lat="41.8360490" lon="-8.8744940">
        <ele>7.5</ele>
        <time>2021-05-18T10:35:15Z</time>
      </trkpt>
      <trkpt lat="41.8360590" lon="-8.8744880">
        <ele>7.5</ele>
        <time>2021-05-18T10:35:16Z</time>
      </trkpt>
      <trkpt lat="41.8360740" lon="-8.8744870">
        <ele>7.5</ele>
        <time>2021-05-18T10:35:17Z</time>
      </trkpt>
      <trkpt lat="41.8360820" lon="-8.8744860">
        <ele>7.5</ele>
        <time>2021-05-18T10:35:18Z</time>
      </trkpt>
      <trkpt lat="41.8360870" lon="-8.8744830">
        <ele>7.6</ele>
        <time>2021-05-18T10:35:20Z</time>
      </trkpt>
      <trkpt lat="41.8360930" lon="-8.8744820">
        <ele>7.6</ele>
        <time>2021-05-18T10:35:21Z</time>
      </trkpt>
      <trkpt lat="41.8361030" lon="-8.8744780">
        <ele>7.6</ele>
        <time>2021-05-18T10:35:22Z</time>
      </trkpt>
      <trkpt lat="41.8361180" lon="-8.8744810">
        <ele>7.6</ele>
        <time>2021-05-18T10:35:23Z</time>
      </trkpt>
      <trkpt lat="41.8361320" lon="-8.8744740">
        <ele>7.6</ele>
        <time>2021-05-18T10:35:24Z</time>
      </trkpt>
      <trkpt lat="41.8361460" lon="-8.8744700">
        <ele>7.6</ele>
        <time>2021-05-18T10:35:25Z</time>
      </trkpt>
      <trkpt lat="41.8361470" lon="-8.8744740">
        <ele>7.6</ele>
        <time>2021-05-18T10:35:26Z</time>
      </trkpt>
      <trkpt lat="41.8361640" lon="-8.8744730">
        <ele>7.6</ele>
        <time>2021-05-18T10:35:27Z</time>
      </trkpt>
      <trkpt lat="41.8361690" lon="-8.8744690">
        <ele>7.6</ele>
        <time>2021-05-18T10:35:28Z</time>
      </trkpt>
      <trkpt lat="41.8361810" lon="-8.8744670">
        <ele>7.6</ele>
        <time>2021-05-18T10:35:29Z</time>
      </trkpt>
      <trkpt lat="41.8362050" lon="-8.8744670">
        <ele>7.6</ele>
        <time>2021-05-18T10:35:30Z</time>
      </trkpt>
      <trkpt lat="41.8362110" lon="-8.8744670">
        <ele>7.6</ele>
        <time>2021-05-18T10:35:31Z</time>
      </trkpt>
      <trkpt lat="41.8362180" lon="-8.8744660">
        <ele>7.6</ele>
        <time>2021-05-18T10:35:32Z</time>
      </trkpt>
      <trkpt lat="41.8362400" lon="-8.8744630">
        <ele>7.6</ele>
        <time>2021-05-18T10:35:33Z</time>
      </trkpt>
      <trkpt lat="41.8362470" lon="-8.8744660">
        <ele>7.6</ele>
        <time>2021-05-18T10:35:34Z</time>
      </trkpt>
      <trkpt lat="41.8362690" lon="-8.8744630">
        <ele>7.6</ele>
        <time>2021-05-18T10:35:35Z</time>
      </trkpt>
      <trkpt lat="41.8362760" lon="-8.8744630">
        <ele>7.6</ele>
        <time>2021-05-18T10:35:36Z</time>
      </trkpt>
      <trkpt lat="41.8362840" lon="-8.8744620">
        <ele>7.6</ele>
        <time>2021-05-18T10:35:37Z</time>
      </trkpt>
      <trkpt lat="41.8362940" lon="-8.8744630">
        <ele>7.6</ele>
        <time>2021-05-18T10:35:38Z</time>
      </trkpt>
      <trkpt lat="41.8363000" lon="-8.8744630">
        <ele>7.6</ele>
        <time>2021-05-18T10:35:39Z</time>
      </trkpt>
      <trkpt lat="41.8363170" lon="-8.8744660">
        <ele>7.6</ele>
        <time>2021-05-18T10:35:40Z</time>
      </trkpt>
      <trkpt lat="41.8363210" lon="-8.8744690">
        <ele>7.6</ele>
        <time>2021-05-18T10:35:41Z</time>
      </trkpt>
      <trkpt lat="41.8363300" lon="-8.8744680">
        <ele>7.6</ele>
        <time>2021-05-18T10:35:42Z</time>
      </trkpt>
      <trkpt lat="41.8363340" lon="-8.8744690">
        <ele>7.6</ele>
        <time>2021-05-18T10:35:43Z</time>
      </trkpt>
      <trkpt lat="41.8363470" lon="-8.8744690">
        <ele>7.6</ele>
        <time>2021-05-18T10:35:44Z</time>
      </trkpt>
      <trkpt lat="41.8363630" lon="-8.8744700">
        <ele>7.7</ele>
        <time>2021-05-18T10:35:45Z</time>
      </trkpt>
      <trkpt lat="41.8363750" lon="-8.8744700">
        <ele>7.7</ele>
        <time>2021-05-18T10:35:46Z</time>
      </trkpt>
      <trkpt lat="41.8363890" lon="-8.8744650">
        <ele>7.7</ele>
        <time>2021-05-18T10:35:47Z</time>
      </trkpt>
      <trkpt lat="41.8364080" lon="-8.8744640">
        <ele>7.7</ele>
        <time>2021-05-18T10:35:48Z</time>
      </trkpt>
      <trkpt lat="41.8364290" lon="-8.8744590">
        <ele>7.7</ele>
        <time>2021-05-18T10:35:49Z</time>
      </trkpt>
      <trkpt lat="41.8364400" lon="-8.8744560">
        <ele>7.7</ele>
        <time>2021-05-18T10:35:50Z</time>
      </trkpt>
      <trkpt lat="41.8364520" lon="-8.8744520">
        <ele>7.7</ele>
        <time>2021-05-18T10:35:51Z</time>
      </trkpt>
      <trkpt lat="41.8364660" lon="-8.8744470">
        <ele>7.7</ele>
        <time>2021-05-18T10:35:52Z</time>
      </trkpt>
      <trkpt lat="41.8364830" lon="-8.8744450">
        <ele>7.7</ele>
        <time>2021-05-18T10:35:53Z</time>
      </trkpt>
      <trkpt lat="41.8364990" lon="-8.8744400">
        <ele>7.7</ele>
        <time>2021-05-18T10:35:54Z</time>
      </trkpt>
      <trkpt lat="41.8365130" lon="-8.8744320">
        <ele>7.7</ele>
        <time>2021-05-18T10:35:55Z</time>
      </trkpt>
      <trkpt lat="41.8365260" lon="-8.8744250">
        <ele>7.7</ele>
        <time>2021-05-18T10:35:56Z</time>
      </trkpt>
      <trkpt lat="41.8365420" lon="-8.8744170">
        <ele>7.7</ele>
        <time>2021-05-18T10:35:57Z</time>
      </trkpt>
      <trkpt lat="41.8365570" lon="-8.8744140">
        <ele>7.7</ele>
        <time>2021-05-18T10:35:58Z</time>
      </trkpt>
      <trkpt lat="41.8365730" lon="-8.8744050">
        <ele>7.7</ele>
        <time>2021-05-18T10:35:59Z</time>
      </trkpt>
      <trkpt lat="41.8365950" lon="-8.8743960">
        <ele>7.7</ele>
        <time>2021-05-18T10:36:00Z</time>
      </trkpt>
      <trkpt lat="41.8366050" lon="-8.8743930">
        <ele>7.7</ele>
        <time>2021-05-18T10:36:01Z</time>
      </trkpt>
      <trkpt lat="41.8366140" lon="-8.8743900">
        <ele>7.7</ele>
        <time>2021-05-18T10:36:02Z</time>
      </trkpt>
      <trkpt lat="41.8366270" lon="-8.8743870">
        <ele>7.7</ele>
        <time>2021-05-18T10:36:03Z</time>
      </trkpt>
      <trkpt lat="41.8366410" lon="-8.8743800">
        <ele>7.7</ele>
        <time>2021-05-18T10:36:04Z</time>
      </trkpt>
      <trkpt lat="41.8366540" lon="-8.8743760">
        <ele>7.7</ele>
        <time>2021-05-18T10:36:05Z</time>
      </trkpt>
      <trkpt lat="41.8366690" lon="-8.8743700">
        <ele>7.7</ele>
        <time>2021-05-18T10:36:06Z</time>
      </trkpt>
      <trkpt lat="41.8366850" lon="-8.8743670">
        <ele>7.7</ele>
        <time>2021-05-18T10:36:07Z</time>
      </trkpt>
      <trkpt lat="41.8367010" lon="-8.8743600">
        <ele>7.7</ele>
        <time>2021-05-18T10:36:08Z</time>
      </trkpt>
      <trkpt lat="41.8367140" lon="-8.8743510">
        <ele>7.7</ele>
        <time>2021-05-18T10:36:09Z</time>
      </trkpt>
      <trkpt lat="41.8367300" lon="-8.8743470">
        <ele>7.7</ele>
        <time>2021-05-18T10:36:10Z</time>
      </trkpt>
      <trkpt lat="41.8367430" lon="-8.8743390">
        <ele>7.7</ele>
        <time>2021-05-18T10:36:11Z</time>
      </trkpt>
      <trkpt lat="41.8367580" lon="-8.8743310">
        <ele>7.7</ele>
        <time>2021-05-18T10:36:12Z</time>
      </trkpt>
      <trkpt lat="41.8367730" lon="-8.8743240">
        <ele>7.7</ele>
        <time>2021-05-18T10:36:13Z</time>
      </trkpt>
      <trkpt lat="41.8367860" lon="-8.8743160">
        <ele>7.7</ele>
        <time>2021-05-18T10:36:14Z</time>
      </trkpt>
      <trkpt lat="41.8368000" lon="-8.8743070">
        <ele>7.7</ele>
        <time>2021-05-18T10:36:15Z</time>
      </trkpt>
      <trkpt lat="41.8368150" lon="-8.8743040">
        <ele>7.7</ele>
        <time>2021-05-18T10:36:16Z</time>
      </trkpt>
      <trkpt lat="41.8368300" lon="-8.8742960">
        <ele>7.7</ele>
        <time>2021-05-18T10:36:17Z</time>
      </trkpt>
      <trkpt lat="41.8368440" lon="-8.8742890">
        <ele>7.7</ele>
        <time>2021-05-18T10:36:18Z</time>
      </trkpt>
      <trkpt lat="41.8368550" lon="-8.8742750">
        <ele>7.7</ele>
        <time>2021-05-18T10:36:19Z</time>
      </trkpt>
      <trkpt lat="41.8368650" lon="-8.8742640">
        <ele>7.7</ele>
        <time>2021-05-18T10:36:20Z</time>
      </trkpt>
      <trkpt lat="41.8368740" lon="-8.8742510">
        <ele>7.7</ele>
        <time>2021-05-18T10:36:21Z</time>
      </trkpt>
      <trkpt lat="41.8368840" lon="-8.8742440">
        <ele>7.7</ele>
        <time>2021-05-18T10:36:22Z</time>
      </trkpt>
      <trkpt lat="41.8368930" lon="-8.8742350">
        <ele>7.7</ele>
        <time>2021-05-18T10:36:23Z</time>
      </trkpt>
      <trkpt lat="41.8368990" lon="-8.8742290">
        <ele>7.7</ele>
        <time>2021-05-18T10:36:24Z</time>
      </trkpt>
      <trkpt lat="41.8369110" lon="-8.8742180">
        <ele>7.7</ele>
        <time>2021-05-18T10:36:25Z</time>
      </trkpt>
      <trkpt lat="41.8369220" lon="-8.8742110">
        <ele>7.7</ele>
        <time>2021-05-18T10:36:26Z</time>
      </trkpt>
      <trkpt lat="41.8369400" lon="-8.8741970">
        <ele>7.6</ele>
        <time>2021-05-18T10:36:27Z</time>
      </trkpt>
      <trkpt lat="41.8369520" lon="-8.8741930">
        <ele>7.6</ele>
        <time>2021-05-18T10:36:28Z</time>
      </trkpt>
      <trkpt lat="41.8369680" lon="-8.8741870">
        <ele>7.6</ele>
        <time>2021-05-18T10:36:29Z</time>
      </trkpt>
      <trkpt lat="41.8369760" lon="-8.8741850">
        <ele>7.6</ele>
        <time>2021-05-18T10:36:30Z</time>
      </trkpt>
      <trkpt lat="41.8369830" lon="-8.8741820">
        <ele>7.6</ele>
        <time>2021-05-18T10:36:31Z</time>
      </trkpt>
      <trkpt lat="41.8369900" lon="-8.8741800">
        <ele>7.6</ele>
        <time>2021-05-18T10:36:32Z</time>
      </trkpt>
      <trkpt lat="41.8370020" lon="-8.8741760">
        <ele>7.6</ele>
        <time>2021-05-18T10:36:33Z</time>
      </trkpt>
      <trkpt lat="41.8370190" lon="-8.8741690">
        <ele>7.6</ele>
        <time>2021-05-18T10:36:34Z</time>
      </trkpt>
      <trkpt lat="41.8370270" lon="-8.8741700">
        <ele>7.6</ele>
        <time>2021-05-18T10:36:35Z</time>
      </trkpt>
      <trkpt lat="41.8370400" lon="-8.8741690">
        <ele>7.6</ele>
        <time>2021-05-18T10:36:36Z</time>
      </trkpt>
      <trkpt lat="41.8370540" lon="-8.8741730">
        <ele>7.6</ele>
        <time>2021-05-18T10:36:37Z</time>
      </trkpt>
      <trkpt lat="41.8370730" lon="-8.8741630">
        <ele>7.6</ele>
        <time>2021-05-18T10:36:38Z</time>
      </trkpt>
      <trkpt lat="41.8370810" lon="-8.8741630">
        <ele>7.6</ele>
        <time>2021-05-18T10:36:39Z</time>
      </trkpt>
      <trkpt lat="41.8370900" lon="-8.8741620">
        <ele>7.6</ele>
        <time>2021-05-18T10:36:40Z</time>
      </trkpt>
      <trkpt lat="41.8371040" lon="-8.8741580">
        <ele>7.6</ele>
        <time>2021-05-18T10:36:41Z</time>
      </trkpt>
      <trkpt lat="41.8371130" lon="-8.8741580">
        <ele>7.6</ele>
        <time>2021-05-18T10:36:42Z</time>
      </trkpt>
      <trkpt lat="41.8371210" lon="-8.8741590">
        <ele>7.6</ele>
        <time>2021-05-18T10:36:43Z</time>
      </trkpt>
      <trkpt lat="41.8371300" lon="-8.8741590">
        <ele>7.6</ele>
        <time>2021-05-18T10:36:44Z</time>
      </trkpt>
      <trkpt lat="41.8371480" lon="-8.8741610">
        <ele>7.6</ele>
        <time>2021-05-18T10:36:45Z</time>
      </trkpt>
      <trkpt lat="41.8371640" lon="-8.8741630">
        <ele>7.5</ele>
        <time>2021-05-18T10:36:46Z</time>
      </trkpt>
      <trkpt lat="41.8371740" lon="-8.8741610">
        <ele>7.5</ele>
        <time>2021-05-18T10:36:47Z</time>
      </trkpt>
      <trkpt lat="41.8371800" lon="-8.8741660">
        <ele>7.5</ele>
        <time>2021-05-18T10:36:48Z</time>
      </trkpt>
      <trkpt lat="41.8371880" lon="-8.8741730">
        <ele>7.5</ele>
        <time>2021-05-18T10:36:49Z</time>
      </trkpt>
      <trkpt lat="41.8371970" lon="-8.8741780">
        <ele>7.5</ele>
        <time>2021-05-18T10:36:50Z</time>
      </trkpt>
      <trkpt lat="41.8372090" lon="-8.8741780">
        <ele>7.5</ele>
        <time>2021-05-18T10:36:51Z</time>
      </trkpt>
      <trkpt lat="41.8372180" lon="-8.8741820">
        <ele>7.5</ele>
        <time>2021-05-18T10:36:52Z</time>
      </trkpt>
      <trkpt lat="41.8372270" lon="-8.8741890">
        <ele>7.5</ele>
        <time>2021-05-18T10:36:53Z</time>
      </trkpt>
      <trkpt lat="41.8372460" lon="-8.8741900">
        <ele>7.5</ele>
        <time>2021-05-18T10:36:54Z</time>
      </trkpt>
      <trkpt lat="41.8372550" lon="-8.8741890">
        <ele>7.5</ele>
        <time>2021-05-18T10:36:55Z</time>
      </trkpt>
      <trkpt lat="41.8372650" lon="-8.8741890">
        <ele>7.5</ele>
        <time>2021-05-18T10:36:56Z</time>
      </trkpt>
      <trkpt lat="41.8372790" lon="-8.8741910">
        <ele>7.5</ele>
        <time>2021-05-18T10:36:57Z</time>
      </trkpt>
      <trkpt lat="41.8372950" lon="-8.8741880">
        <ele>7.5</ele>
        <time>2021-05-18T10:36:58Z</time>
      </trkpt>
      <trkpt lat="41.8373120" lon="-8.8741990">
        <ele>7.5</ele>
        <time>2021-05-18T10:36:59Z</time>
      </trkpt>
      <trkpt lat="41.8373210" lon="-8.8742020">
        <ele>7.5</ele>
        <time>2021-05-18T10:37:00Z</time>
      </trkpt>
      <trkpt lat="41.8373300" lon="-8.8742060">
        <ele>7.5</ele>
        <time>2021-05-18T10:37:01Z</time>
      </trkpt>
      <trkpt lat="41.8373430" lon="-8.8742040">
        <ele>7.5</ele>
        <time>2021-05-18T10:37:02Z</time>
      </trkpt>
      <trkpt lat="41.8373460" lon="-8.8742120">
        <ele>7.5</ele>
        <time>2021-05-18T10:37:03Z</time>
      </trkpt>
      <trkpt lat="41.8373620" lon="-8.8742080">
        <ele>7.5</ele>
        <time>2021-05-18T10:37:04Z</time>
      </trkpt>
      <trkpt lat="41.8373740" lon="-8.8742100">
        <ele>7.5</ele>
        <time>2021-05-18T10:37:05Z</time>
      </trkpt>
      <trkpt lat="41.8373870" lon="-8.8742040">
        <ele>7.5</ele>
        <time>2021-05-18T10:37:06Z</time>
      </trkpt>
      <trkpt lat="41.8373990" lon="-8.8742030">
        <ele>7.5</ele>
        <time>2021-05-18T10:37:07Z</time>
      </trkpt>
      <trkpt lat="41.8374200" lon="-8.8741990">
        <ele>7.5</ele>
        <time>2021-05-18T10:37:08Z</time>
      </trkpt>
      <trkpt lat="41.8374300" lon="-8.8741980">
        <ele>7.4</ele>
        <time>2021-05-18T10:37:09Z</time>
      </trkpt>
      <trkpt lat="41.8374410" lon="-8.8741970">
        <ele>7.4</ele>
        <time>2021-05-18T10:37:10Z</time>
      </trkpt>
      <trkpt lat="41.8374560" lon="-8.8741920">
        <ele>7.4</ele>
        <time>2021-05-18T10:37:11Z</time>
      </trkpt>
      <trkpt lat="41.8374660" lon="-8.8741900">
        <ele>7.4</ele>
        <time>2021-05-18T10:37:12Z</time>
      </trkpt>
      <trkpt lat="41.8374750" lon="-8.8741820">
        <ele>7.4</ele>
        <time>2021-05-18T10:37:13Z</time>
      </trkpt>
      <trkpt lat="41.8374920" lon="-8.8741770">
        <ele>7.4</ele>
        <time>2021-05-18T10:37:14Z</time>
      </trkpt>
      <trkpt lat="41.8375040" lon="-8.8741720">
        <ele>7.4</ele>
        <time>2021-05-18T10:37:15Z</time>
      </trkpt>
      <trkpt lat="41.8375210" lon="-8.8741610">
        <ele>7.4</ele>
        <time>2021-05-18T10:37:16Z</time>
      </trkpt>
      <trkpt lat="41.8375310" lon="-8.8741580">
        <ele>7.4</ele>
        <time>2021-05-18T10:37:17Z</time>
      </trkpt>
      <trkpt lat="41.8375400" lon="-8.8741540">
        <ele>7.4</ele>
        <time>2021-05-18T10:37:18Z</time>
      </trkpt>
      <trkpt lat="41.8375520" lon="-8.8741500">
        <ele>7.4</ele>
        <time>2021-05-18T10:37:19Z</time>
      </trkpt>
      <trkpt lat="41.8375670" lon="-8.8741430">
        <ele>7.4</ele>
        <time>2021-05-18T10:37:20Z</time>
      </trkpt>
      <trkpt lat="41.8375870" lon="-8.8741400">
        <ele>7.4</ele>
        <time>2021-05-18T10:37:21Z</time>
      </trkpt>
      <trkpt lat="41.8375960" lon="-8.8741400">
        <ele>7.4</ele>
        <time>2021-05-18T10:37:22Z</time>
      </trkpt>
      <trkpt lat="41.8376060" lon="-8.8741400">
        <ele>7.4</ele>
        <time>2021-05-18T10:37:23Z</time>
      </trkpt>
      <trkpt lat="41.8376180" lon="-8.8741350">
        <ele>7.4</ele>
        <time>2021-05-18T10:37:24Z</time>
      </trkpt>
      <trkpt lat="41.8376330" lon="-8.8741300">
        <ele>7.4</ele>
        <time>2021-05-18T10:37:25Z</time>
      </trkpt>
      <trkpt lat="41.8376380" lon="-8.8741240">
        <ele>7.4</ele>
        <time>2021-05-18T10:37:26Z</time>
      </trkpt>
      <trkpt lat="41.8376480" lon="-8.8741180">
        <ele>7.4</ele>
        <time>2021-05-18T10:37:27Z</time>
      </trkpt>
      <trkpt lat="41.8376590" lon="-8.8741110">
        <ele>7.4</ele>
        <time>2021-05-18T10:37:28Z</time>
      </trkpt>
      <trkpt lat="41.8376750" lon="-8.8741090">
        <ele>7.4</ele>
        <time>2021-05-18T10:37:29Z</time>
      </trkpt>
      <trkpt lat="41.8376870" lon="-8.8741060">
        <ele>7.4</ele>
        <time>2021-05-18T10:37:31Z</time>
      </trkpt>
      <trkpt lat="41.8377060" lon="-8.8741030">
        <ele>7.4</ele>
        <time>2021-05-18T10:37:32Z</time>
      </trkpt>
      <trkpt lat="41.8377190" lon="-8.8740930">
        <ele>7.4</ele>
        <time>2021-05-18T10:37:33Z</time>
      </trkpt>
      <trkpt lat="41.8377330" lon="-8.8740920">
        <ele>7.4</ele>
        <time>2021-05-18T10:37:34Z</time>
      </trkpt>
      <trkpt lat="41.8377450" lon="-8.8740850">
        <ele>7.4</ele>
        <time>2021-05-18T10:37:35Z</time>
      </trkpt>
      <trkpt lat="41.8377560" lon="-8.8740830">
        <ele>7.4</ele>
        <time>2021-05-18T10:37:36Z</time>
      </trkpt>
      <trkpt lat="41.8377650" lon="-8.8740800">
        <ele>7.4</ele>
        <time>2021-05-18T10:37:37Z</time>
      </trkpt>
      <trkpt lat="41.8377750" lon="-8.8740730">
        <ele>7.4</ele>
        <time>2021-05-18T10:37:38Z</time>
      </trkpt>
      <trkpt lat="41.8377900" lon="-8.8740700">
        <ele>7.4</ele>
        <time>2021-05-18T10:37:39Z</time>
      </trkpt>
      <trkpt lat="41.8378100" lon="-8.8740650">
        <ele>7.4</ele>
        <time>2021-05-18T10:37:40Z</time>
      </trkpt>
      <trkpt lat="41.8378280" lon="-8.8740600">
        <ele>7.4</ele>
        <time>2021-05-18T10:37:41Z</time>
      </trkpt>
      <trkpt lat="41.8378390" lon="-8.8740550">
        <ele>7.4</ele>
        <time>2021-05-18T10:37:42Z</time>
      </trkpt>
      <trkpt lat="41.8378490" lon="-8.8740510">
        <ele>7.4</ele>
        <time>2021-05-18T10:37:43Z</time>
      </trkpt>
      <trkpt lat="41.8378720" lon="-8.8740470">
        <ele>7.4</ele>
        <time>2021-05-18T10:37:44Z</time>
      </trkpt>
      <trkpt lat="41.8378800" lon="-8.8740470">
        <ele>7.4</ele>
        <time>2021-05-18T10:37:45Z</time>
      </trkpt>
      <trkpt lat="41.8378890" lon="-8.8740460">
        <ele>7.4</ele>
        <time>2021-05-18T10:37:46Z</time>
      </trkpt>
      <trkpt lat="41.8379060" lon="-8.8740440">
        <ele>7.4</ele>
        <time>2021-05-18T10:37:47Z</time>
      </trkpt>
      <trkpt lat="41.8379230" lon="-8.8740340">
        <ele>7.4</ele>
        <time>2021-05-18T10:37:48Z</time>
      </trkpt>
      <trkpt lat="41.8379390" lon="-8.8740300">
        <ele>7.4</ele>
        <time>2021-05-18T10:37:49Z</time>
      </trkpt>
      <trkpt lat="41.8379540" lon="-8.8740290">
        <ele>7.4</ele>
        <time>2021-05-18T10:37:50Z</time>
      </trkpt>
      <trkpt lat="41.8379680" lon="-8.8740260">
        <ele>7.4</ele>
        <time>2021-05-18T10:37:51Z</time>
      </trkpt>
      <trkpt lat="41.8379840" lon="-8.8740190">
        <ele>7.4</ele>
        <time>2021-05-18T10:37:52Z</time>
      </trkpt>
      <trkpt lat="41.8379990" lon="-8.8740170">
        <ele>7.4</ele>
        <time>2021-05-18T10:37:53Z</time>
      </trkpt>
      <trkpt lat="41.8380130" lon="-8.8740130">
        <ele>7.4</ele>
        <time>2021-05-18T10:37:54Z</time>
      </trkpt>
      <trkpt lat="41.8380270" lon="-8.8740140">
        <ele>7.4</ele>
        <time>2021-05-18T10:37:55Z</time>
      </trkpt>
      <trkpt lat="41.8380420" lon="-8.8740080">
        <ele>7.4</ele>
        <time>2021-05-18T10:37:56Z</time>
      </trkpt>
      <trkpt lat="41.8380560" lon="-8.8740030">
        <ele>7.4</ele>
        <time>2021-05-18T10:37:57Z</time>
      </trkpt>
      <trkpt lat="41.8380720" lon="-8.8740030">
        <ele>7.4</ele>
        <time>2021-05-18T10:37:58Z</time>
      </trkpt>
      <trkpt lat="41.8380870" lon="-8.8740010">
        <ele>7.4</ele>
        <time>2021-05-18T10:37:59Z</time>
      </trkpt>
      <trkpt lat="41.8381020" lon="-8.8739950">
        <ele>7.4</ele>
        <time>2021-05-18T10:38:00Z</time>
      </trkpt>
      <trkpt lat="41.8381100" lon="-8.8739930">
        <ele>7.4</ele>
        <time>2021-05-18T10:38:01Z</time>
      </trkpt>
      <trkpt lat="41.8381190" lon="-8.8739900">
        <ele>7.4</ele>
        <time>2021-05-18T10:38:02Z</time>
      </trkpt>
      <trkpt lat="41.8381310" lon="-8.8739890">
        <ele>7.4</ele>
        <time>2021-05-18T10:38:03Z</time>
      </trkpt>
      <trkpt lat="41.8381440" lon="-8.8739910">
        <ele>7.4</ele>
        <time>2021-05-18T10:38:04Z</time>
      </trkpt>
      <trkpt lat="41.8381530" lon="-8.8739910">
        <ele>7.4</ele>
        <time>2021-05-18T10:38:05Z</time>
      </trkpt>
      <trkpt lat="41.8381610" lon="-8.8739920">
        <ele>7.4</ele>
        <time>2021-05-18T10:38:06Z</time>
      </trkpt>
      <trkpt lat="41.8381690" lon="-8.8739920">
        <ele>7.4</ele>
        <time>2021-05-18T10:38:07Z</time>
      </trkpt>
      <trkpt lat="41.8381810" lon="-8.8739880">
        <ele>7.4</ele>
        <time>2021-05-18T10:38:08Z</time>
      </trkpt>
      <trkpt lat="41.8381900" lon="-8.8739880">
        <ele>7.4</ele>
        <time>2021-05-18T10:38:09Z</time>
      </trkpt>
      <trkpt lat="41.8382000" lon="-8.8739860">
        <ele>7.4</ele>
        <time>2021-05-18T10:38:10Z</time>
      </trkpt>
      <trkpt lat="41.8382140" lon="-8.8739820">
        <ele>7.4</ele>
        <time>2021-05-18T10:38:11Z</time>
      </trkpt>
      <trkpt lat="41.8382220" lon="-8.8739800">
        <ele>7.4</ele>
        <time>2021-05-18T10:38:12Z</time>
      </trkpt>
      <trkpt lat="41.8382310" lon="-8.8739770">
        <ele>7.4</ele>
        <time>2021-05-18T10:38:13Z</time>
      </trkpt>
      <trkpt lat="41.8382390" lon="-8.8739740">
        <ele>7.4</ele>
        <time>2021-05-18T10:38:14Z</time>
      </trkpt>
      <trkpt lat="41.8382530" lon="-8.8739700">
        <ele>7.4</ele>
        <time>2021-05-18T10:38:15Z</time>
      </trkpt>
      <trkpt lat="41.8382650" lon="-8.8739660">
        <ele>7.4</ele>
        <time>2021-05-18T10:38:16Z</time>
      </trkpt>
      <trkpt lat="41.8382840" lon="-8.8739670">
        <ele>7.4</ele>
        <time>2021-05-18T10:38:17Z</time>
      </trkpt>
      <trkpt lat="41.8382910" lon="-8.8739670">
        <ele>7.4</ele>
        <time>2021-05-18T10:38:18Z</time>
      </trkpt>
      <trkpt lat="41.8382970" lon="-8.8739680">
        <ele>7.4</ele>
        <time>2021-05-18T10:38:19Z</time>
      </trkpt>
      <trkpt lat="41.8383030" lon="-8.8739690">
        <ele>7.4</ele>
        <time>2021-05-18T10:38:20Z</time>
      </trkpt>
      <trkpt lat="41.8383160" lon="-8.8739660">
        <ele>7.4</ele>
        <time>2021-05-18T10:38:21Z</time>
      </trkpt>
      <trkpt lat="41.8383350" lon="-8.8739620">
        <ele>7.4</ele>
        <time>2021-05-18T10:38:22Z</time>
      </trkpt>
      <trkpt lat="41.8383470" lon="-8.8739620">
        <ele>7.4</ele>
        <time>2021-05-18T10:38:23Z</time>
      </trkpt>
      <trkpt lat="41.8383540" lon="-8.8739620">
        <ele>7.4</ele>
        <time>2021-05-18T10:38:24Z</time>
      </trkpt>
      <trkpt lat="41.8383690" lon="-8.8739630">
        <ele>7.4</ele>
        <time>2021-05-18T10:38:25Z</time>
      </trkpt>
      <trkpt lat="41.8383810" lon="-8.8739600">
        <ele>7.4</ele>
        <time>2021-05-18T10:38:26Z</time>
      </trkpt>
      <trkpt lat="41.8383970" lon="-8.8739580">
        <ele>7.3</ele>
        <time>2021-05-18T10:38:27Z</time>
      </trkpt>
      <trkpt lat="41.8384180" lon="-8.8739530">
        <ele>7.3</ele>
        <time>2021-05-18T10:38:28Z</time>
      </trkpt>
      <trkpt lat="41.8384260" lon="-8.8739520">
        <ele>7.3</ele>
        <time>2021-05-18T10:38:29Z</time>
      </trkpt>
      <trkpt lat="41.8384350" lon="-8.8739520">
        <ele>7.3</ele>
        <time>2021-05-18T10:38:30Z</time>
      </trkpt>
      <trkpt lat="41.8384580" lon="-8.8739490">
        <ele>7.3</ele>
        <time>2021-05-18T10:38:31Z</time>
      </trkpt>
      <trkpt lat="41.8384690" lon="-8.8739470">
        <ele>7.3</ele>
        <time>2021-05-18T10:38:32Z</time>
      </trkpt>
      <trkpt lat="41.8384850" lon="-8.8739420">
        <ele>7.3</ele>
        <time>2021-05-18T10:38:33Z</time>
      </trkpt>
      <trkpt lat="41.8384950" lon="-8.8739400">
        <ele>7.3</ele>
        <time>2021-05-18T10:38:34Z</time>
      </trkpt>
      <trkpt lat="41.8385250" lon="-8.8739350">
        <ele>7.3</ele>
        <time>2021-05-18T10:38:36Z</time>
      </trkpt>
      <trkpt lat="41.8385400" lon="-8.8739370">
        <ele>7.3</ele>
        <time>2021-05-18T10:38:37Z</time>
      </trkpt>
      <trkpt lat="41.8385510" lon="-8.8739330">
        <ele>7.3</ele>
        <time>2021-05-18T10:38:38Z</time>
      </trkpt>
      <trkpt lat="41.8385640" lon="-8.8739360">
        <ele>7.3</ele>
        <time>2021-05-18T10:38:39Z</time>
      </trkpt>
      <trkpt lat="41.8385710" lon="-8.8739310">
        <ele>7.4</ele>
        <time>2021-05-18T10:38:40Z</time>
      </trkpt>
      <trkpt lat="41.8385930" lon="-8.8739280">
        <ele>7.4</ele>
        <time>2021-05-18T10:38:41Z</time>
      </trkpt>
      <trkpt lat="41.8386020" lon="-8.8739280">
        <ele>7.4</ele>
        <time>2021-05-18T10:38:42Z</time>
      </trkpt>
      <trkpt lat="41.8386110" lon="-8.8739270">
        <ele>7.4</ele>
        <time>2021-05-18T10:38:43Z</time>
      </trkpt>
      <trkpt lat="41.8386310" lon="-8.8739250">
        <ele>7.4</ele>
        <time>2021-05-18T10:38:44Z</time>
      </trkpt>
      <trkpt lat="41.8386430" lon="-8.8739220">
        <ele>7.4</ele>
        <time>2021-05-18T10:38:45Z</time>
      </trkpt>
      <trkpt lat="41.8386540" lon="-8.8739180">
        <ele>7.4</ele>
        <time>2021-05-18T10:38:46Z</time>
      </trkpt>
      <trkpt lat="41.8386740" lon="-8.8739130">
        <ele>7.4</ele>
        <time>2021-05-18T10:38:47Z</time>
      </trkpt>
      <trkpt lat="41.8386830" lon="-8.8739130">
        <ele>7.4</ele>
        <time>2021-05-18T10:38:48Z</time>
      </trkpt>
      <trkpt lat="41.8386910" lon="-8.8739130">
        <ele>7.4</ele>
        <time>2021-05-18T10:38:49Z</time>
      </trkpt>
      <trkpt lat="41.8387060" lon="-8.8739130">
        <ele>7.4</ele>
        <time>2021-05-18T10:38:50Z</time>
      </trkpt>
      <trkpt lat="41.8387200" lon="-8.8739100">
        <ele>7.4</ele>
        <time>2021-05-18T10:38:51Z</time>
      </trkpt>
      <trkpt lat="41.8387380" lon="-8.8739070">
        <ele>7.4</ele>
        <time>2021-05-18T10:38:52Z</time>
      </trkpt>
      <trkpt lat="41.8387470" lon="-8.8739050">
        <ele>7.4</ele>
        <time>2021-05-18T10:38:53Z</time>
      </trkpt>
      <trkpt lat="41.8387570" lon="-8.8739030">
        <ele>7.4</ele>
        <time>2021-05-18T10:38:54Z</time>
      </trkpt>
      <trkpt lat="41.8387750" lon="-8.8738980">
        <ele>7.4</ele>
        <time>2021-05-18T10:38:55Z</time>
      </trkpt>
      <trkpt lat="41.8387850" lon="-8.8738950">
        <ele>7.4</ele>
        <time>2021-05-18T10:38:56Z</time>
      </trkpt>
      <trkpt lat="41.8387940" lon="-8.8738930">
        <ele>7.4</ele>
        <time>2021-05-18T10:38:57Z</time>
      </trkpt>
      <trkpt lat="41.8388100" lon="-8.8738900">
        <ele>7.4</ele>
        <time>2021-05-18T10:38:58Z</time>
      </trkpt>
      <trkpt lat="41.8388260" lon="-8.8738890">
        <ele>7.4</ele>
        <time>2021-05-18T10:38:59Z</time>
      </trkpt>
      <trkpt lat="41.8388420" lon="-8.8738820">
        <ele>7.4</ele>
        <time>2021-05-18T10:39:00Z</time>
      </trkpt>
      <trkpt lat="41.8388600" lon="-8.8738830">
        <ele>7.4</ele>
        <time>2021-05-18T10:39:01Z</time>
      </trkpt>
      <trkpt lat="41.8388760" lon="-8.8738760">
        <ele>7.4</ele>
        <time>2021-05-18T10:39:02Z</time>
      </trkpt>
      <trkpt lat="41.8388910" lon="-8.8738740">
        <ele>7.4</ele>
        <time>2021-05-18T10:39:03Z</time>
      </trkpt>
      <trkpt lat="41.8389050" lon="-8.8738710">
        <ele>7.4</ele>
        <time>2021-05-18T10:39:04Z</time>
      </trkpt>
      <trkpt lat="41.8389210" lon="-8.8738690">
        <ele>7.4</ele>
        <time>2021-05-18T10:39:05Z</time>
      </trkpt>
      <trkpt lat="41.8389350" lon="-8.8738650">
        <ele>7.4</ele>
        <time>2021-05-18T10:39:06Z</time>
      </trkpt>
      <trkpt lat="41.8389490" lon="-8.8738560">
        <ele>7.4</ele>
        <time>2021-05-18T10:39:08Z</time>
      </trkpt>
      <trkpt lat="41.8389640" lon="-8.8738510">
        <ele>7.4</ele>
        <time>2021-05-18T10:39:09Z</time>
      </trkpt>
      <trkpt lat="41.8389800" lon="-8.8738490">
        <ele>7.4</ele>
        <time>2021-05-18T10:39:10Z</time>
      </trkpt>
      <trkpt lat="41.8389940" lon="-8.8738490">
        <ele>7.4</ele>
        <time>2021-05-18T10:39:11Z</time>
      </trkpt>
      <trkpt lat="41.8390100" lon="-8.8738420">
        <ele>7.4</ele>
        <time>2021-05-18T10:39:12Z</time>
      </trkpt>
      <trkpt lat="41.8390230" lon="-8.8738360">
        <ele>7.4</ele>
        <time>2021-05-18T10:39:13Z</time>
      </trkpt>
      <trkpt lat="41.8390410" lon="-8.8738350">
        <ele>7.4</ele>
        <time>2021-05-18T10:39:14Z</time>
      </trkpt>
      <trkpt lat="41.8390550" lon="-8.8738290">
        <ele>7.4</ele>
        <time>2021-05-18T10:39:15Z</time>
      </trkpt>
      <trkpt lat="41.8390690" lon="-8.8738270">
        <ele>7.4</ele>
        <time>2021-05-18T10:39:16Z</time>
      </trkpt>
      <trkpt lat="41.8390830" lon="-8.8738250">
        <ele>7.4</ele>
        <time>2021-05-18T10:39:17Z</time>
      </trkpt>
      <trkpt lat="41.8390990" lon="-8.8738230">
        <ele>7.4</ele>
        <time>2021-05-18T10:39:18Z</time>
      </trkpt>
      <trkpt lat="41.8391140" lon="-8.8738160">
        <ele>7.4</ele>
        <time>2021-05-18T10:39:19Z</time>
      </trkpt>
      <trkpt lat="41.8391270" lon="-8.8738070">
        <ele>7.4</ele>
        <time>2021-05-18T10:39:20Z</time>
      </trkpt>
      <trkpt lat="41.8391440" lon="-8.8738050">
        <ele>7.4</ele>
        <time>2021-05-18T10:39:21Z</time>
      </trkpt>
      <trkpt lat="41.8391580" lon="-8.8737980">
        <ele>7.4</ele>
        <time>2021-05-18T10:39:22Z</time>
      </trkpt>
      <trkpt lat="41.8391730" lon="-8.8737990">
        <ele>7.4</ele>
        <time>2021-05-18T10:39:23Z</time>
      </trkpt>
      <trkpt lat="41.8391880" lon="-8.8737920">
        <ele>7.4</ele>
        <time>2021-05-18T10:39:24Z</time>
      </trkpt>
      <trkpt lat="41.8392020" lon="-8.8737850">
        <ele>7.4</ele>
        <time>2021-05-18T10:39:25Z</time>
      </trkpt>
      <trkpt lat="41.8392160" lon="-8.8737800">
        <ele>7.4</ele>
        <time>2021-05-18T10:39:26Z</time>
      </trkpt>
      <trkpt lat="41.8392290" lon="-8.8737730">
        <ele>7.3</ele>
        <time>2021-05-18T10:39:27Z</time>
      </trkpt>
      <trkpt lat="41.8392430" lon="-8.8737690">
        <ele>7.3</ele>
        <time>2021-05-18T10:39:28Z</time>
      </trkpt>
      <trkpt lat="41.8392560" lon="-8.8737620">
        <ele>7.3</ele>
        <time>2021-05-18T10:39:29Z</time>
      </trkpt>
      <trkpt lat="41.8392690" lon="-8.8737570">
        <ele>7.3</ele>
        <time>2021-05-18T10:39:30Z</time>
      </trkpt>
      <trkpt lat="41.8392850" lon="-8.8737580">
        <ele>7.3</ele>
        <time>2021-05-18T10:39:31Z</time>
      </trkpt>
      <trkpt lat="41.8392980" lon="-8.8737530">
        <ele>7.3</ele>
        <time>2021-05-18T10:39:32Z</time>
      </trkpt>
      <trkpt lat="41.8393190" lon="-8.8737490">
        <ele>7.3</ele>
        <time>2021-05-18T10:39:33Z</time>
      </trkpt>
      <trkpt lat="41.8393270" lon="-8.8737450">
        <ele>7.3</ele>
        <time>2021-05-18T10:39:34Z</time>
      </trkpt>
      <trkpt lat="41.8393350" lon="-8.8737400">
        <ele>7.3</ele>
        <time>2021-05-18T10:39:35Z</time>
      </trkpt>
      <trkpt lat="41.8393470" lon="-8.8737330">
        <ele>7.3</ele>
        <time>2021-05-18T10:39:36Z</time>
      </trkpt>
      <trkpt lat="41.8393600" lon="-8.8737270">
        <ele>7.3</ele>
        <time>2021-05-18T10:39:37Z</time>
      </trkpt>
      <trkpt lat="41.8393830" lon="-8.8737240">
        <ele>7.3</ele>
        <time>2021-05-18T10:39:38Z</time>
      </trkpt>
      <trkpt lat="41.8393920" lon="-8.8737240">
        <ele>7.3</ele>
        <time>2021-05-18T10:39:39Z</time>
      </trkpt>
      <trkpt lat="41.8394020" lon="-8.8737230">
        <ele>7.3</ele>
        <time>2021-05-18T10:39:40Z</time>
      </trkpt>
      <trkpt lat="41.8394160" lon="-8.8737120">
        <ele>7.3</ele>
        <time>2021-05-18T10:39:41Z</time>
      </trkpt>
      <trkpt lat="41.8394300" lon="-8.8737120">
        <ele>7.3</ele>
        <time>2021-05-18T10:39:42Z</time>
      </trkpt>
      <trkpt lat="41.8394460" lon="-8.8737100">
        <ele>7.3</ele>
        <time>2021-05-18T10:39:43Z</time>
      </trkpt>
      <trkpt lat="41.8394620" lon="-8.8737080">
        <ele>7.4</ele>
        <time>2021-05-18T10:39:44Z</time>
      </trkpt>
      <trkpt lat="41.8394750" lon="-8.8737000">
        <ele>7.4</ele>
        <time>2021-05-18T10:39:45Z</time>
      </trkpt>
      <trkpt lat="41.8394900" lon="-8.8736980">
        <ele>7.4</ele>
        <time>2021-05-18T10:39:46Z</time>
      </trkpt>
      <trkpt lat="41.8395050" lon="-8.8736910">
        <ele>7.4</ele>
        <time>2021-05-18T10:39:47Z</time>
      </trkpt>
      <trkpt lat="41.8395190" lon="-8.8736860">
        <ele>7.4</ele>
        <time>2021-05-18T10:39:48Z</time>
      </trkpt>
      <trkpt lat="41.8395330" lon="-8.8736800">
        <ele>7.4</ele>
        <time>2021-05-18T10:39:49Z</time>
      </trkpt>
      <trkpt lat="41.8395490" lon="-8.8736780">
        <ele>7.4</ele>
        <time>2021-05-18T10:39:50Z</time>
      </trkpt>
      <trkpt lat="41.8395630" lon="-8.8736730">
        <ele>7.4</ele>
        <time>2021-05-18T10:39:51Z</time>
      </trkpt>
      <trkpt lat="41.8395760" lon="-8.8736750">
        <ele>7.4</ele>
        <time>2021-05-18T10:39:52Z</time>
      </trkpt>
      <trkpt lat="41.8395890" lon="-8.8736680">
        <ele>7.4</ele>
        <time>2021-05-18T10:39:53Z</time>
      </trkpt>
      <trkpt lat="41.8396020" lon="-8.8736640">
        <ele>7.4</ele>
        <time>2021-05-18T10:39:54Z</time>
      </trkpt>
      <trkpt lat="41.8396160" lon="-8.8736610">
        <ele>7.4</ele>
        <time>2021-05-18T10:39:55Z</time>
      </trkpt>
      <trkpt lat="41.8396280" lon="-8.8736530">
        <ele>7.4</ele>
        <time>2021-05-18T10:39:56Z</time>
      </trkpt>
      <trkpt lat="41.8396380" lon="-8.8736480">
        <ele>7.4</ele>
        <time>2021-05-18T10:39:57Z</time>
      </trkpt>
      <trkpt lat="41.8396460" lon="-8.8736440">
        <ele>7.4</ele>
        <time>2021-05-18T10:39:58Z</time>
      </trkpt>
      <trkpt lat="41.8396570" lon="-8.8736370">
        <ele>7.4</ele>
        <time>2021-05-18T10:39:59Z</time>
      </trkpt>
      <trkpt lat="41.8396600" lon="-8.8736350">
        <ele>7.4</ele>
        <time>2021-05-18T10:40:00Z</time>
      </trkpt>
      <trkpt lat="41.8396660" lon="-8.8736310">
        <ele>7.4</ele>
        <time>2021-05-18T10:40:01Z</time>
      </trkpt>
      <trkpt lat="41.8396750" lon="-8.8736290">
        <ele>7.4</ele>
        <time>2021-05-18T10:40:02Z</time>
      </trkpt>
      <trkpt lat="41.8396870" lon="-8.8736270">
        <ele>7.4</ele>
        <time>2021-05-18T10:40:03Z</time>
      </trkpt>
      <trkpt lat="41.8396980" lon="-8.8736300">
        <ele>7.4</ele>
        <time>2021-05-18T10:40:04Z</time>
      </trkpt>
      <trkpt lat="41.8397070" lon="-8.8736290">
        <ele>7.4</ele>
        <time>2021-05-18T10:40:05Z</time>
      </trkpt>
      <trkpt lat="41.8397190" lon="-8.8736280">
        <ele>7.4</ele>
        <time>2021-05-18T10:40:06Z</time>
      </trkpt>
      <trkpt lat="41.8397300" lon="-8.8736270">
        <ele>7.4</ele>
        <time>2021-05-18T10:40:07Z</time>
      </trkpt>
      <trkpt lat="41.8397330" lon="-8.8736330">
        <ele>7.4</ele>
        <time>2021-05-18T10:40:08Z</time>
      </trkpt>
      <trkpt lat="41.8397460" lon="-8.8736270">
        <ele>7.4</ele>
        <time>2021-05-18T10:40:09Z</time>
      </trkpt>
      <trkpt lat="41.8397520" lon="-8.8736250">
        <ele>7.4</ele>
        <time>2021-05-18T10:40:10Z</time>
      </trkpt>
      <trkpt lat="41.8397740" lon="-8.8736130">
        <ele>7.4</ele>
        <time>2021-05-18T10:40:11Z</time>
      </trkpt>
      <trkpt lat="41.8397800" lon="-8.8736100">
        <ele>7.4</ele>
        <time>2021-05-18T10:40:12Z</time>
      </trkpt>
      <trkpt lat="41.8397860" lon="-8.8736070">
        <ele>7.4</ele>
        <time>2021-05-18T10:40:13Z</time>
      </trkpt>
      <trkpt lat="41.8397980" lon="-8.8736040">
        <ele>7.4</ele>
        <time>2021-05-18T10:40:14Z</time>
      </trkpt>
      <trkpt lat="41.8398050" lon="-8.8736040">
        <ele>7.4</ele>
        <time>2021-05-18T10:40:15Z</time>
      </trkpt>
      <trkpt lat="41.8398100" lon="-8.8735960">
        <ele>7.4</ele>
        <time>2021-05-18T10:40:16Z</time>
      </trkpt>
      <trkpt lat="41.8398220" lon="-8.8735990">
        <ele>7.4</ele>
        <time>2021-05-18T10:40:17Z</time>
      </trkpt>
      <trkpt lat="41.8398380" lon="-8.8735970">
        <ele>7.4</ele>
        <time>2021-05-18T10:40:18Z</time>
      </trkpt>
      <trkpt lat="41.8398450" lon="-8.8735950">
        <ele>7.4</ele>
        <time>2021-05-18T10:40:19Z</time>
      </trkpt>
      <trkpt lat="41.8398560" lon="-8.8735890">
        <ele>7.4</ele>
        <time>2021-05-18T10:40:20Z</time>
      </trkpt>
      <trkpt lat="41.8398630" lon="-8.8735880">
        <ele>7.4</ele>
        <time>2021-05-18T10:40:21Z</time>
      </trkpt>
      <trkpt lat="41.8398750" lon="-8.8735810">
        <ele>7.4</ele>
        <time>2021-05-18T10:40:22Z</time>
      </trkpt>
      <trkpt lat="41.8398850" lon="-8.8735830">
        <ele>7.4</ele>
        <time>2021-05-18T10:40:23Z</time>
      </trkpt>
      <trkpt lat="41.8399030" lon="-8.8735730">
        <ele>7.4</ele>
        <time>2021-05-18T10:40:24Z</time>
      </trkpt>
      <trkpt lat="41.8399130" lon="-8.8735690">
        <ele>7.4</ele>
        <time>2021-05-18T10:40:25Z</time>
      </trkpt>
      <trkpt lat="41.8399230" lon="-8.8735660">
        <ele>7.4</ele>
        <time>2021-05-18T10:40:26Z</time>
      </trkpt>
      <trkpt lat="41.8399340" lon="-8.8735650">
        <ele>7.4</ele>
        <time>2021-05-18T10:40:27Z</time>
      </trkpt>
      <trkpt lat="41.8399510" lon="-8.8735610">
        <ele>7.4</ele>
        <time>2021-05-18T10:40:28Z</time>
      </trkpt>
      <trkpt lat="41.8399620" lon="-8.8735560">
        <ele>7.4</ele>
        <time>2021-05-18T10:40:29Z</time>
      </trkpt>
      <trkpt lat="41.8399770" lon="-8.8735540">
        <ele>7.4</ele>
        <time>2021-05-18T10:40:30Z</time>
      </trkpt>
      <trkpt lat="41.8399850" lon="-8.8735510">
        <ele>7.4</ele>
        <time>2021-05-18T10:40:31Z</time>
      </trkpt>
      <trkpt lat="41.8400130" lon="-8.8735510">
        <ele>7.4</ele>
        <time>2021-05-18T10:40:32Z</time>
      </trkpt>
      <trkpt lat="41.8400300" lon="-8.8735480">
        <ele>7.4</ele>
        <time>2021-05-18T10:40:33Z</time>
      </trkpt>
      <trkpt lat="41.8400450" lon="-8.8735480">
        <ele>7.4</ele>
        <time>2021-05-18T10:40:34Z</time>
      </trkpt>
      <trkpt lat="41.8400600" lon="-8.8735380">
        <ele>7.4</ele>
        <time>2021-05-18T10:40:35Z</time>
      </trkpt>
      <trkpt lat="41.8400740" lon="-8.8735370">
        <ele>7.4</ele>
        <time>2021-05-18T10:40:36Z</time>
      </trkpt>
      <trkpt lat="41.8400940" lon="-8.8735300">
        <ele>7.4</ele>
        <time>2021-05-18T10:40:37Z</time>
      </trkpt>
      <trkpt lat="41.8401040" lon="-8.8735280">
        <ele>7.4</ele>
        <time>2021-05-18T10:40:38Z</time>
      </trkpt>
      <trkpt lat="41.8401130" lon="-8.8735260">
        <ele>7.4</ele>
        <time>2021-05-18T10:40:39Z</time>
      </trkpt>
      <trkpt lat="41.8401320" lon="-8.8735180">
        <ele>7.4</ele>
        <time>2021-05-18T10:40:40Z</time>
      </trkpt>
      <trkpt lat="41.8401400" lon="-8.8735140">
        <ele>7.4</ele>
        <time>2021-05-18T10:40:41Z</time>
      </trkpt>
      <trkpt lat="41.8401480" lon="-8.8735100">
        <ele>7.4</ele>
        <time>2021-05-18T10:40:42Z</time>
      </trkpt>
      <trkpt lat="41.8401610" lon="-8.8735060">
        <ele>7.4</ele>
        <time>2021-05-18T10:40:43Z</time>
      </trkpt>
      <trkpt lat="41.8401760" lon="-8.8735000">
        <ele>7.3</ele>
        <time>2021-05-18T10:40:44Z</time>
      </trkpt>
      <trkpt lat="41.8401900" lon="-8.8734960">
        <ele>7.3</ele>
        <time>2021-05-18T10:40:45Z</time>
      </trkpt>
      <trkpt lat="41.8402050" lon="-8.8734920">
        <ele>7.3</ele>
        <time>2021-05-18T10:40:46Z</time>
      </trkpt>
      <trkpt lat="41.8402200" lon="-8.8734860">
        <ele>7.3</ele>
        <time>2021-05-18T10:40:47Z</time>
      </trkpt>
      <trkpt lat="41.8402360" lon="-8.8734800">
        <ele>7.3</ele>
        <time>2021-05-18T10:40:48Z</time>
      </trkpt>
      <trkpt lat="41.8402500" lon="-8.8734700">
        <ele>7.3</ele>
        <time>2021-05-18T10:40:49Z</time>
      </trkpt>
      <trkpt lat="41.8402630" lon="-8.8734680">
        <ele>7.3</ele>
        <time>2021-05-18T10:40:50Z</time>
      </trkpt>
      <trkpt lat="41.8402750" lon="-8.8734560">
        <ele>7.3</ele>
        <time>2021-05-18T10:40:51Z</time>
      </trkpt>
      <trkpt lat="41.8402880" lon="-8.8734500">
        <ele>7.3</ele>
        <time>2021-05-18T10:40:52Z</time>
      </trkpt>
      <trkpt lat="41.8403070" lon="-8.8734360">
        <ele>7.3</ele>
        <time>2021-05-18T10:40:53Z</time>
      </trkpt>
      <trkpt lat="41.8403140" lon="-8.8734320">
        <ele>7.3</ele>
        <time>2021-05-18T10:40:54Z</time>
      </trkpt>
      <trkpt lat="41.8403220" lon="-8.8734280">
        <ele>7.3</ele>
        <time>2021-05-18T10:40:55Z</time>
      </trkpt>
      <trkpt lat="41.8403280" lon="-8.8734240">
        <ele>7.3</ele>
        <time>2021-05-18T10:40:56Z</time>
      </trkpt>
      <trkpt lat="41.8403380" lon="-8.8734270">
        <ele>7.3</ele>
        <time>2021-05-18T10:40:57Z</time>
      </trkpt>
      <trkpt lat="41.8403500" lon="-8.8734190">
        <ele>7.3</ele>
        <time>2021-05-18T10:40:58Z</time>
      </trkpt>
      <trkpt lat="41.8403610" lon="-8.8734140">
        <ele>7.3</ele>
        <time>2021-05-18T10:40:59Z</time>
      </trkpt>
      <trkpt lat="41.8403730" lon="-8.8734100">
        <ele>7.3</ele>
        <time>2021-05-18T10:41:00Z</time>
      </trkpt>
      <trkpt lat="41.8403790" lon="-8.8734060">
        <ele>7.3</ele>
        <time>2021-05-18T10:41:01Z</time>
      </trkpt>
      <trkpt lat="41.8403920" lon="-8.8734030">
        <ele>7.3</ele>
        <time>2021-05-18T10:41:02Z</time>
      </trkpt>
      <trkpt lat="41.8403990" lon="-8.8734010">
        <ele>7.3</ele>
        <time>2021-05-18T10:41:03Z</time>
      </trkpt>
      <trkpt lat="41.8404050" lon="-8.8733980">
        <ele>7.3</ele>
        <time>2021-05-18T10:41:04Z</time>
      </trkpt>
      <trkpt lat="41.8404140" lon="-8.8733870">
        <ele>7.3</ele>
        <time>2021-05-18T10:41:05Z</time>
      </trkpt>
      <trkpt lat="41.8404230" lon="-8.8733830">
        <ele>7.3</ele>
        <time>2021-05-18T10:41:06Z</time>
      </trkpt>
      <trkpt lat="41.8404350" lon="-8.8733720">
        <ele>7.4</ele>
        <time>2021-05-18T10:41:07Z</time>
      </trkpt>
      <trkpt lat="41.8404440" lon="-8.8733670">
        <ele>7.4</ele>
        <time>2021-05-18T10:41:08Z</time>
      </trkpt>
      <trkpt lat="41.8404500" lon="-8.8733610">
        <ele>7.4</ele>
        <time>2021-05-18T10:41:09Z</time>
      </trkpt>
      <trkpt lat="41.8404610" lon="-8.8733530">
        <ele>7.4</ele>
        <time>2021-05-18T10:41:10Z</time>
      </trkpt>
      <trkpt lat="41.8404650" lon="-8.8733500">
        <ele>7.4</ele>
        <time>2021-05-18T10:41:11Z</time>
      </trkpt>
      <trkpt lat="41.8404780" lon="-8.8733410">
        <ele>7.4</ele>
        <time>2021-05-18T10:41:12Z</time>
      </trkpt>
      <trkpt lat="41.8404890" lon="-8.8733370">
        <ele>7.4</ele>
        <time>2021-05-18T10:41:13Z</time>
      </trkpt>
      <trkpt lat="41.8404980" lon="-8.8733310">
        <ele>7.4</ele>
        <time>2021-05-18T10:41:14Z</time>
      </trkpt>
      <trkpt lat="41.8405080" lon="-8.8733240">
        <ele>7.4</ele>
        <time>2021-05-18T10:41:15Z</time>
      </trkpt>
      <trkpt lat="41.8405180" lon="-8.8733170">
        <ele>7.4</ele>
        <time>2021-05-18T10:41:16Z</time>
      </trkpt>
      <trkpt lat="41.8405310" lon="-8.8733100">
        <ele>7.4</ele>
        <time>2021-05-18T10:41:17Z</time>
      </trkpt>
      <trkpt lat="41.8405390" lon="-8.8733030">
        <ele>7.4</ele>
        <time>2021-05-18T10:41:18Z</time>
      </trkpt>
      <trkpt lat="41.8405480" lon="-8.8732950">
        <ele>7.4</ele>
        <time>2021-05-18T10:41:19Z</time>
      </trkpt>
      <trkpt lat="41.8405550" lon="-8.8732920">
        <ele>7.5</ele>
        <time>2021-05-18T10:41:20Z</time>
      </trkpt>
      <trkpt lat="41.8405580" lon="-8.8732890">
        <ele>7.5</ele>
        <time>2021-05-18T10:41:21Z</time>
      </trkpt>
      <trkpt lat="41.8405730" lon="-8.8732810">
        <ele>7.5</ele>
        <time>2021-05-18T10:41:22Z</time>
      </trkpt>
      <trkpt lat="41.8405880" lon="-8.8732710">
        <ele>7.5</ele>
        <time>2021-05-18T10:41:23Z</time>
      </trkpt>
      <trkpt lat="41.8406020" lon="-8.8732600">
        <ele>7.5</ele>
        <time>2021-05-18T10:41:24Z</time>
      </trkpt>
      <trkpt lat="41.8406080" lon="-8.8732570">
        <ele>7.5</ele>
        <time>2021-05-18T10:41:25Z</time>
      </trkpt>
      <trkpt lat="41.8406180" lon="-8.8732470">
        <ele>7.5</ele>
        <time>2021-05-18T10:41:26Z</time>
      </trkpt>
      <trkpt lat="41.8406330" lon="-8.8732360">
        <ele>7.5</ele>
        <time>2021-05-18T10:41:27Z</time>
      </trkpt>
      <trkpt lat="41.8406420" lon="-8.8732290">
        <ele>7.5</ele>
        <time>2021-05-18T10:41:28Z</time>
      </trkpt>
      <trkpt lat="41.8406590" lon="-8.8732190">
        <ele>7.5</ele>
        <time>2021-05-18T10:41:29Z</time>
      </trkpt>
      <trkpt lat="41.8406720" lon="-8.8732120">
        <ele>7.6</ele>
        <time>2021-05-18T10:41:30Z</time>
      </trkpt>
      <trkpt lat="41.8406860" lon="-8.8732090">
        <ele>7.6</ele>
        <time>2021-05-18T10:41:31Z</time>
      </trkpt>
      <trkpt lat="41.8407050" lon="-8.8731940">
        <ele>7.6</ele>
        <time>2021-05-18T10:41:32Z</time>
      </trkpt>
      <trkpt lat="41.8407130" lon="-8.8731880">
        <ele>7.6</ele>
        <time>2021-05-18T10:41:33Z</time>
      </trkpt>
      <trkpt lat="41.8407200" lon="-8.8731820">
        <ele>7.6</ele>
        <time>2021-05-18T10:41:34Z</time>
      </trkpt>
      <trkpt lat="41.8407370" lon="-8.8731710">
        <ele>7.6</ele>
        <time>2021-05-18T10:41:35Z</time>
      </trkpt>
      <trkpt lat="41.8407510" lon="-8.8731620">
        <ele>7.6</ele>
        <time>2021-05-18T10:41:36Z</time>
      </trkpt>
      <trkpt lat="41.8407580" lon="-8.8731540">
        <ele>7.6</ele>
        <time>2021-05-18T10:41:37Z</time>
      </trkpt>
      <trkpt lat="41.8407680" lon="-8.8731470">
        <ele>7.6</ele>
        <time>2021-05-18T10:41:38Z</time>
      </trkpt>
      <trkpt lat="41.8407790" lon="-8.8731380">
        <ele>7.6</ele>
        <time>2021-05-18T10:41:39Z</time>
      </trkpt>
      <trkpt lat="41.8407970" lon="-8.8731220">
        <ele>7.6</ele>
        <time>2021-05-18T10:41:40Z</time>
      </trkpt>
      <trkpt lat="41.8408030" lon="-8.8731170">
        <ele>7.6</ele>
        <time>2021-05-18T10:41:41Z</time>
      </trkpt>
      <trkpt lat="41.8408100" lon="-8.8731110">
        <ele>7.7</ele>
        <time>2021-05-18T10:41:42Z</time>
      </trkpt>
      <trkpt lat="41.8408170" lon="-8.8731050">
        <ele>7.7</ele>
        <time>2021-05-18T10:41:43Z</time>
      </trkpt>
      <trkpt lat="41.8408290" lon="-8.8731020">
        <ele>7.7</ele>
        <time>2021-05-18T10:41:44Z</time>
      </trkpt>
      <trkpt lat="41.8408390" lon="-8.8730960">
        <ele>7.7</ele>
        <time>2021-05-18T10:41:45Z</time>
      </trkpt>
      <trkpt lat="41.8408510" lon="-8.8730870">
        <ele>7.7</ele>
        <time>2021-05-18T10:41:46Z</time>
      </trkpt>
      <trkpt lat="41.8408660" lon="-8.8730800">
        <ele>7.7</ele>
        <time>2021-05-18T10:41:47Z</time>
      </trkpt>
      <trkpt lat="41.8408830" lon="-8.8730720">
        <ele>7.7</ele>
        <time>2021-05-18T10:41:48Z</time>
      </trkpt>
      <trkpt lat="41.8408900" lon="-8.8730690">
        <ele>7.7</ele>
        <time>2021-05-18T10:41:49Z</time>
      </trkpt>
      <trkpt lat="41.8408960" lon="-8.8730650">
        <ele>7.7</ele>
        <time>2021-05-18T10:41:50Z</time>
      </trkpt>
      <trkpt lat="41.8409020" lon="-8.8730610">
        <ele>7.7</ele>
        <time>2021-05-18T10:41:51Z</time>
      </trkpt>
      <trkpt lat="41.8409120" lon="-8.8730570">
        <ele>7.7</ele>
        <time>2021-05-18T10:41:52Z</time>
      </trkpt>
      <trkpt lat="41.8409220" lon="-8.8730510">
        <ele>7.7</ele>
        <time>2021-05-18T10:41:53Z</time>
      </trkpt>
      <trkpt lat="41.8409340" lon="-8.8730470">
        <ele>7.7</ele>
        <time>2021-05-18T10:41:54Z</time>
      </trkpt>
      <trkpt lat="41.8409560" lon="-8.8730310">
        <ele>7.8</ele>
        <time>2021-05-18T10:41:55Z</time>
      </trkpt>
      <trkpt lat="41.8409620" lon="-8.8730250">
        <ele>7.8</ele>
        <time>2021-05-18T10:41:56Z</time>
      </trkpt>
      <trkpt lat="41.8409690" lon="-8.8730200">
        <ele>7.8</ele>
        <time>2021-05-18T10:41:57Z</time>
      </trkpt>
      <trkpt lat="41.8409840" lon="-8.8730100">
        <ele>7.8</ele>
        <time>2021-05-18T10:41:58Z</time>
      </trkpt>
      <trkpt lat="41.8409960" lon="-8.8729950">
        <ele>7.8</ele>
        <time>2021-05-18T10:41:59Z</time>
      </trkpt>
      <trkpt lat="41.8410170" lon="-8.8729850">
        <ele>7.8</ele>
        <time>2021-05-18T10:42:00Z</time>
      </trkpt>
      <trkpt lat="41.8410250" lon="-8.8729830">
        <ele>7.8</ele>
        <time>2021-05-18T10:42:01Z</time>
      </trkpt>
      <trkpt lat="41.8410320" lon="-8.8729800">
        <ele>7.8</ele>
        <time>2021-05-18T10:42:02Z</time>
      </trkpt>
      <trkpt lat="41.8410490" lon="-8.8729680">
        <ele>7.8</ele>
        <time>2021-05-18T10:42:03Z</time>
      </trkpt>
      <trkpt lat="41.8410560" lon="-8.8729610">
        <ele>7.8</ele>
        <time>2021-05-18T10:42:04Z</time>
      </trkpt>
      <trkpt lat="41.8410630" lon="-8.8729550">
        <ele>7.8</ele>
        <time>2021-05-18T10:42:05Z</time>
      </trkpt>
      <trkpt lat="41.8410740" lon="-8.8729390">
        <ele>7.8</ele>
        <time>2021-05-18T10:42:06Z</time>
      </trkpt>
      <trkpt lat="41.8410810" lon="-8.8729300">
        <ele>7.8</ele>
        <time>2021-05-18T10:42:07Z</time>
      </trkpt>
      <trkpt lat="41.8410860" lon="-8.8729270">
        <ele>7.8</ele>
        <time>2021-05-18T10:42:08Z</time>
      </trkpt>
      <trkpt lat="41.8410960" lon="-8.8729190">
        <ele>7.8</ele>
        <time>2021-05-18T10:42:09Z</time>
      </trkpt>
      <trkpt lat="41.8411080" lon="-8.8729130">
        <ele>7.9</ele>
        <time>2021-05-18T10:42:10Z</time>
      </trkpt>
      <trkpt lat="41.8411150" lon="-8.8729110">
        <ele>7.9</ele>
        <time>2021-05-18T10:42:11Z</time>
      </trkpt>
      <trkpt lat="41.8411250" lon="-8.8729020">
        <ele>7.9</ele>
        <time>2021-05-18T10:42:12Z</time>
      </trkpt>
      <trkpt lat="41.8411400" lon="-8.8728890">
        <ele>7.9</ele>
        <time>2021-05-18T10:42:13Z</time>
      </trkpt>
      <trkpt lat="41.8411610" lon="-8.8728780">
        <ele>7.9</ele>
        <time>2021-05-18T10:42:14Z</time>
      </trkpt>
      <trkpt lat="41.8411670" lon="-8.8728720">
        <ele>7.9</ele>
        <time>2021-05-18T10:42:15Z</time>
      </trkpt>
      <trkpt lat="41.8411740" lon="-8.8728670">
        <ele>7.9</ele>
        <time>2021-05-18T10:42:16Z</time>
      </trkpt>
      <trkpt lat="41.8411880" lon="-8.8728520">
        <ele>7.9</ele>
        <time>2021-05-18T10:42:17Z</time>
      </trkpt>
      <trkpt lat="41.8411960" lon="-8.8728450">
        <ele>7.9</ele>
        <time>2021-05-18T10:42:18Z</time>
      </trkpt>
      <trkpt lat="41.8412020" lon="-8.8728330">
        <ele>7.9</ele>
        <time>2021-05-18T10:42:19Z</time>
      </trkpt>
      <trkpt lat="41.8412120" lon="-8.8728270">
        <ele>7.9</ele>
        <time>2021-05-18T10:42:20Z</time>
      </trkpt>
      <trkpt lat="41.8412230" lon="-8.8728170">
        <ele>7.9</ele>
        <time>2021-05-18T10:42:21Z</time>
      </trkpt>
      <trkpt lat="41.8412350" lon="-8.8728100">
        <ele>7.9</ele>
        <time>2021-05-18T10:42:22Z</time>
      </trkpt>
      <trkpt lat="41.8412490" lon="-8.8727960">
        <ele>7.9</ele>
        <time>2021-05-18T10:42:23Z</time>
      </trkpt>
      <trkpt lat="41.8412600" lon="-8.8727890">
        <ele>8.0</ele>
        <time>2021-05-18T10:42:24Z</time>
      </trkpt>
      <trkpt lat="41.8412670" lon="-8.8727780">
        <ele>8.0</ele>
        <time>2021-05-18T10:42:25Z</time>
      </trkpt>
      <trkpt lat="41.8412750" lon="-8.8727730">
        <ele>8.0</ele>
        <time>2021-05-18T10:42:26Z</time>
      </trkpt>
      <trkpt lat="41.8412850" lon="-8.8727590">
        <ele>8.0</ele>
        <time>2021-05-18T10:42:27Z</time>
      </trkpt>
      <trkpt lat="41.8412900" lon="-8.8727560">
        <ele>8.0</ele>
        <time>2021-05-18T10:42:28Z</time>
      </trkpt>
      <trkpt lat="41.8413010" lon="-8.8727420">
        <ele>8.0</ele>
        <time>2021-05-18T10:42:29Z</time>
      </trkpt>
      <trkpt lat="41.8413120" lon="-8.8727360">
        <ele>8.0</ele>
        <time>2021-05-18T10:42:30Z</time>
      </trkpt>
      <trkpt lat="41.8413180" lon="-8.8727320">
        <ele>8.0</ele>
        <time>2021-05-18T10:42:31Z</time>
      </trkpt>
      <trkpt lat="41.8413320" lon="-8.8727190">
        <ele>8.0</ele>
        <time>2021-05-18T10:42:32Z</time>
      </trkpt>
      <trkpt lat="41.8413490" lon="-8.8727070">
        <ele>8.0</ele>
        <time>2021-05-18T10:42:33Z</time>
      </trkpt>
      <trkpt lat="41.8413570" lon="-8.8727010">
        <ele>8.0</ele>
        <time>2021-05-18T10:42:34Z</time>
      </trkpt>
      <trkpt lat="41.8413710" lon="-8.8726890">
        <ele>8.0</ele>
        <time>2021-05-18T10:42:35Z</time>
      </trkpt>
      <trkpt lat="41.8413830" lon="-8.8726850">
        <ele>8.0</ele>
        <time>2021-05-18T10:42:36Z</time>
      </trkpt>
      <trkpt lat="41.8413940" lon="-8.8726770">
        <ele>8.0</ele>
        <time>2021-05-18T10:42:37Z</time>
      </trkpt>
      <trkpt lat="41.8414090" lon="-8.8726710">
        <ele>8.0</ele>
        <time>2021-05-18T10:42:38Z</time>
      </trkpt>
      <trkpt lat="41.8414160" lon="-8.8726600">
        <ele>8.0</ele>
        <time>2021-05-18T10:42:39Z</time>
      </trkpt>
      <trkpt lat="41.8414220" lon="-8.8726480">
        <ele>8.0</ele>
        <time>2021-05-18T10:42:40Z</time>
      </trkpt>
      <trkpt lat="41.8414330" lon="-8.8726330">
        <ele>8.0</ele>
        <time>2021-05-18T10:42:41Z</time>
      </trkpt>
      <trkpt lat="41.8414490" lon="-8.8726150">
        <ele>8.0</ele>
        <time>2021-05-18T10:42:42Z</time>
      </trkpt>
      <trkpt lat="41.8414560" lon="-8.8726100">
        <ele>8.1</ele>
        <time>2021-05-18T10:42:43Z</time>
      </trkpt>
      <trkpt lat="41.8414640" lon="-8.8726050">
        <ele>8.1</ele>
        <time>2021-05-18T10:42:44Z</time>
      </trkpt>
      <trkpt lat="41.8414750" lon="-8.8725930">
        <ele>8.1</ele>
        <time>2021-05-18T10:42:45Z</time>
      </trkpt>
      <trkpt lat="41.8414790" lon="-8.8725850">
        <ele>8.1</ele>
        <time>2021-05-18T10:42:46Z</time>
      </trkpt>
      <trkpt lat="41.8414900" lon="-8.8725770">
        <ele>8.1</ele>
        <time>2021-05-18T10:42:47Z</time>
      </trkpt>
      <trkpt lat="41.8415010" lon="-8.8725740">
        <ele>8.1</ele>
        <time>2021-05-18T10:42:48Z</time>
      </trkpt>
      <trkpt lat="41.8415150" lon="-8.8725620">
        <ele>8.1</ele>
        <time>2021-05-18T10:42:49Z</time>
      </trkpt>
      <trkpt lat="41.8415320" lon="-8.8725500">
        <ele>8.1</ele>
        <time>2021-05-18T10:42:50Z</time>
      </trkpt>
      <trkpt lat="41.8415410" lon="-8.8725440">
        <ele>8.1</ele>
        <time>2021-05-18T10:42:51Z</time>
      </trkpt>
      <trkpt lat="41.8415490" lon="-8.8725390">
        <ele>8.1</ele>
        <time>2021-05-18T10:42:52Z</time>
      </trkpt>
      <trkpt lat="41.8415590" lon="-8.8725360">
        <ele>8.1</ele>
        <time>2021-05-18T10:42:53Z</time>
      </trkpt>
      <trkpt lat="41.8415670" lon="-8.8725230">
        <ele>8.1</ele>
        <time>2021-05-18T10:42:54Z</time>
      </trkpt>
      <trkpt lat="41.8415730" lon="-8.8725200">
        <ele>8.1</ele>
        <time>2021-05-18T10:42:55Z</time>
      </trkpt>
      <trkpt lat="41.8415820" lon="-8.8725120">
        <ele>8.1</ele>
        <time>2021-05-18T10:42:56Z</time>
      </trkpt>
      <trkpt lat="41.8415990" lon="-8.8725000">
        <ele>8.1</ele>
        <time>2021-05-18T10:42:57Z</time>
      </trkpt>
      <trkpt lat="41.8416110" lon="-8.8724940">
        <ele>8.1</ele>
        <time>2021-05-18T10:42:58Z</time>
      </trkpt>
      <trkpt lat="41.8416280" lon="-8.8724860">
        <ele>8.1</ele>
        <time>2021-05-18T10:42:59Z</time>
      </trkpt>
      <trkpt lat="41.8416460" lon="-8.8724800">
        <ele>8.1</ele>
        <time>2021-05-18T10:43:00Z</time>
      </trkpt>
      <trkpt lat="41.8416590" lon="-8.8724790">
        <ele>8.1</ele>
        <time>2021-05-18T10:43:01Z</time>
      </trkpt>
      <trkpt lat="41.8416680" lon="-8.8724730">
        <ele>8.1</ele>
        <time>2021-05-18T10:43:02Z</time>
      </trkpt>
      <trkpt lat="41.8416820" lon="-8.8724620">
        <ele>8.1</ele>
        <time>2021-05-18T10:43:03Z</time>
      </trkpt>
      <trkpt lat="41.8416890" lon="-8.8724510">
        <ele>8.1</ele>
        <time>2021-05-18T10:43:04Z</time>
      </trkpt>
      <trkpt lat="41.8417050" lon="-8.8724410">
        <ele>8.1</ele>
        <time>2021-05-18T10:43:05Z</time>
      </trkpt>
      <trkpt lat="41.8417180" lon="-8.8724330">
        <ele>8.1</ele>
        <time>2021-05-18T10:43:06Z</time>
      </trkpt>
      <trkpt lat="41.8417290" lon="-8.8724220">
        <ele>8.1</ele>
        <time>2021-05-18T10:43:07Z</time>
      </trkpt>
      <trkpt lat="41.8417450" lon="-8.8724110">
        <ele>8.1</ele>
        <time>2021-05-18T10:43:08Z</time>
      </trkpt>
      <trkpt lat="41.8417580" lon="-8.8724040">
        <ele>8.1</ele>
        <time>2021-05-18T10:43:09Z</time>
      </trkpt>
      <trkpt lat="41.8417720" lon="-8.8723970">
        <ele>8.1</ele>
        <time>2021-05-18T10:43:10Z</time>
      </trkpt>
      <trkpt lat="41.8417870" lon="-8.8723900">
        <ele>8.1</ele>
        <time>2021-05-18T10:43:11Z</time>
      </trkpt>
      <trkpt lat="41.8418000" lon="-8.8723810">
        <ele>8.1</ele>
        <time>2021-05-18T10:43:12Z</time>
      </trkpt>
      <trkpt lat="41.8418140" lon="-8.8723760">
        <ele>8.1</ele>
        <time>2021-05-18T10:43:13Z</time>
      </trkpt>
      <trkpt lat="41.8418270" lon="-8.8723620">
        <ele>8.1</ele>
        <time>2021-05-18T10:43:14Z</time>
      </trkpt>
      <trkpt lat="41.8418410" lon="-8.8723540">
        <ele>8.1</ele>
        <time>2021-05-18T10:43:15Z</time>
      </trkpt>
      <trkpt lat="41.8418550" lon="-8.8723420">
        <ele>8.0</ele>
        <time>2021-05-18T10:43:16Z</time>
      </trkpt>
      <trkpt lat="41.8418710" lon="-8.8723350">
        <ele>8.0</ele>
        <time>2021-05-18T10:43:17Z</time>
      </trkpt>
      <trkpt lat="41.8418870" lon="-8.8723270">
        <ele>8.0</ele>
        <time>2021-05-18T10:43:18Z</time>
      </trkpt>
      <trkpt lat="41.8419020" lon="-8.8723200">
        <ele>8.0</ele>
        <time>2021-05-18T10:43:19Z</time>
      </trkpt>
      <trkpt lat="41.8419160" lon="-8.8723120">
        <ele>8.0</ele>
        <time>2021-05-18T10:43:20Z</time>
      </trkpt>
      <trkpt lat="41.8419270" lon="-8.8722970">
        <ele>8.0</ele>
        <time>2021-05-18T10:43:21Z</time>
      </trkpt>
      <trkpt lat="41.8419410" lon="-8.8722880">
        <ele>8.0</ele>
        <time>2021-05-18T10:43:22Z</time>
      </trkpt>
      <trkpt lat="41.8419540" lon="-8.8722750">
        <ele>8.0</ele>
        <time>2021-05-18T10:43:23Z</time>
      </trkpt>
      <trkpt lat="41.8419700" lon="-8.8722680">
        <ele>8.0</ele>
        <time>2021-05-18T10:43:24Z</time>
      </trkpt>
      <trkpt lat="41.8419830" lon="-8.8722600">
        <ele>8.0</ele>
        <time>2021-05-18T10:43:25Z</time>
      </trkpt>
      <trkpt lat="41.8419960" lon="-8.8722480">
        <ele>8.0</ele>
        <time>2021-05-18T10:43:26Z</time>
      </trkpt>
      <trkpt lat="41.8420090" lon="-8.8722380">
        <ele>8.0</ele>
        <time>2021-05-18T10:43:27Z</time>
      </trkpt>
      <trkpt lat="41.8420230" lon="-8.8722330">
        <ele>8.0</ele>
        <time>2021-05-18T10:43:28Z</time>
      </trkpt>
      <trkpt lat="41.8420360" lon="-8.8722260">
        <ele>8.0</ele>
        <time>2021-05-18T10:43:29Z</time>
      </trkpt>
      <trkpt lat="41.8420490" lon="-8.8722180">
        <ele>8.0</ele>
        <time>2021-05-18T10:43:30Z</time>
      </trkpt>
      <trkpt lat="41.8420630" lon="-8.8722070">
        <ele>8.0</ele>
        <time>2021-05-18T10:43:31Z</time>
      </trkpt>
      <trkpt lat="41.8420780" lon="-8.8722000">
        <ele>8.0</ele>
        <time>2021-05-18T10:43:32Z</time>
      </trkpt>
      <trkpt lat="41.8420920" lon="-8.8721890">
        <ele>8.0</ele>
        <time>2021-05-18T10:43:33Z</time>
      </trkpt>
      <trkpt lat="41.8421040" lon="-8.8721780">
        <ele>8.0</ele>
        <time>2021-05-18T10:43:34Z</time>
      </trkpt>
      <trkpt lat="41.8421160" lon="-8.8721650">
        <ele>7.9</ele>
        <time>2021-05-18T10:43:35Z</time>
      </trkpt>
      <trkpt lat="41.8421290" lon="-8.8721540">
        <ele>7.9</ele>
        <time>2021-05-18T10:43:36Z</time>
      </trkpt>
      <trkpt lat="41.8421420" lon="-8.8721430">
        <ele>7.9</ele>
        <time>2021-05-18T10:43:37Z</time>
      </trkpt>
      <trkpt lat="41.8421570" lon="-8.8721350">
        <ele>7.9</ele>
        <time>2021-05-18T10:43:38Z</time>
      </trkpt>
      <trkpt lat="41.8421710" lon="-8.8721280">
        <ele>7.9</ele>
        <time>2021-05-18T10:43:39Z</time>
      </trkpt>
      <trkpt lat="41.8421830" lon="-8.8721220">
        <ele>7.9</ele>
        <time>2021-05-18T10:43:40Z</time>
      </trkpt>
      <trkpt lat="41.8421980" lon="-8.8721150">
        <ele>7.9</ele>
        <time>2021-05-18T10:43:41Z</time>
      </trkpt>
      <trkpt lat="41.8422120" lon="-8.8721100">
        <ele>7.9</ele>
        <time>2021-05-18T10:43:42Z</time>
      </trkpt>
      <trkpt lat="41.8422250" lon="-8.8721020">
        <ele>7.9</ele>
        <time>2021-05-18T10:43:43Z</time>
      </trkpt>
      <trkpt lat="41.8422390" lon="-8.8720910">
        <ele>7.9</ele>
        <time>2021-05-18T10:43:44Z</time>
      </trkpt>
      <trkpt lat="41.8422520" lon="-8.8720790">
        <ele>7.9</ele>
        <time>2021-05-18T10:43:45Z</time>
      </trkpt>
      <trkpt lat="41.8422650" lon="-8.8720680">
        <ele>7.9</ele>
        <time>2021-05-18T10:43:46Z</time>
      </trkpt>
      <trkpt lat="41.8422770" lon="-8.8720580">
        <ele>7.9</ele>
        <time>2021-05-18T10:43:47Z</time>
      </trkpt>
      <trkpt lat="41.8422900" lon="-8.8720490">
        <ele>7.9</ele>
        <time>2021-05-18T10:43:48Z</time>
      </trkpt>
      <trkpt lat="41.8423090" lon="-8.8720400">
        <ele>7.9</ele>
        <time>2021-05-18T10:43:49Z</time>
      </trkpt>
      <trkpt lat="41.8423200" lon="-8.8720360">
        <ele>7.9</ele>
        <time>2021-05-18T10:43:50Z</time>
      </trkpt>
      <trkpt lat="41.8423300" lon="-8.8720330">
        <ele>7.9</ele>
        <time>2021-05-18T10:43:51Z</time>
      </trkpt>
      <trkpt lat="41.8423440" lon="-8.8720300">
        <ele>7.9</ele>
        <time>2021-05-18T10:43:52Z</time>
      </trkpt>
      <trkpt lat="41.8423570" lon="-8.8720240">
        <ele>7.9</ele>
        <time>2021-05-18T10:43:53Z</time>
      </trkpt>
      <trkpt lat="41.8423710" lon="-8.8720190">
        <ele>8.0</ele>
        <time>2021-05-18T10:43:54Z</time>
      </trkpt>
      <trkpt lat="41.8423820" lon="-8.8720080">
        <ele>8.0</ele>
        <time>2021-05-18T10:43:55Z</time>
      </trkpt>
      <trkpt lat="41.8424030" lon="-8.8719980">
        <ele>8.0</ele>
        <time>2021-05-18T10:43:56Z</time>
      </trkpt>
      <trkpt lat="41.8424120" lon="-8.8719930">
        <ele>8.0</ele>
        <time>2021-05-18T10:43:57Z</time>
      </trkpt>
      <trkpt lat="41.8424210" lon="-8.8719890">
        <ele>8.0</ele>
        <time>2021-05-18T10:43:58Z</time>
      </trkpt>
      <trkpt lat="41.8424320" lon="-8.8719870">
        <ele>8.0</ele>
        <time>2021-05-18T10:43:59Z</time>
      </trkpt>
      <trkpt lat="41.8424370" lon="-8.8719760">
        <ele>8.0</ele>
        <time>2021-05-18T10:44:00Z</time>
      </trkpt>
      <trkpt lat="41.8424420" lon="-8.8719720">
        <ele>8.0</ele>
        <time>2021-05-18T10:44:01Z</time>
      </trkpt>
      <trkpt lat="41.8424510" lon="-8.8719640">
        <ele>7.9</ele>
        <time>2021-05-18T10:44:02Z</time>
      </trkpt>
      <trkpt lat="41.8424630" lon="-8.8719600">
        <ele>7.9</ele>
        <time>2021-05-18T10:44:03Z</time>
      </trkpt>
      <trkpt lat="41.8424700" lon="-8.8719490">
        <ele>7.9</ele>
        <time>2021-05-18T10:44:04Z</time>
      </trkpt>
      <trkpt lat="41.8424760" lon="-8.8719410">
        <ele>7.9</ele>
        <time>2021-05-18T10:44:05Z</time>
      </trkpt>
      <trkpt lat="41.8424860" lon="-8.8719400">
        <ele>7.9</ele>
        <time>2021-05-18T10:44:06Z</time>
      </trkpt>
      <trkpt lat="41.8424940" lon="-8.8719310">
        <ele>7.9</ele>
        <time>2021-05-18T10:44:07Z</time>
      </trkpt>
      <trkpt lat="41.8425020" lon="-8.8719210">
        <ele>7.9</ele>
        <time>2021-05-18T10:44:08Z</time>
      </trkpt>
      <trkpt lat="41.8425100" lon="-8.8719150">
        <ele>7.9</ele>
        <time>2021-05-18T10:44:09Z</time>
      </trkpt>
      <trkpt lat="41.8425170" lon="-8.8719050">
        <ele>7.9</ele>
        <time>2021-05-18T10:44:10Z</time>
      </trkpt>
      <trkpt lat="41.8425270" lon="-8.8718950">
        <ele>7.9</ele>
        <time>2021-05-18T10:44:11Z</time>
      </trkpt>
      <trkpt lat="41.8425380" lon="-8.8718880">
        <ele>7.9</ele>
        <time>2021-05-18T10:44:12Z</time>
      </trkpt>
      <trkpt lat="41.8425450" lon="-8.8718790">
        <ele>7.9</ele>
        <time>2021-05-18T10:44:13Z</time>
      </trkpt>
      <trkpt lat="41.8425540" lon="-8.8718740">
        <ele>7.9</ele>
        <time>2021-05-18T10:44:14Z</time>
      </trkpt>
      <trkpt lat="41.8425660" lon="-8.8718670">
        <ele>7.9</ele>
        <time>2021-05-18T10:44:15Z</time>
      </trkpt>
      <trkpt lat="41.8425750" lon="-8.8718580">
        <ele>7.9</ele>
        <time>2021-05-18T10:44:16Z</time>
      </trkpt>
      <trkpt lat="41.8425790" lon="-8.8718570">
        <ele>7.9</ele>
        <time>2021-05-18T10:44:17Z</time>
      </trkpt>
      <trkpt lat="41.8425870" lon="-8.8718510">
        <ele>7.9</ele>
        <time>2021-05-18T10:44:18Z</time>
      </trkpt>
      <trkpt lat="41.8425990" lon="-8.8718390">
        <ele>7.9</ele>
        <time>2021-05-18T10:44:19Z</time>
      </trkpt>
      <trkpt lat="41.8426080" lon="-8.8718320">
        <ele>7.9</ele>
        <time>2021-05-18T10:44:20Z</time>
      </trkpt>
      <trkpt lat="41.8426210" lon="-8.8718150">
        <ele>7.9</ele>
        <time>2021-05-18T10:44:21Z</time>
      </trkpt>
      <trkpt lat="41.8426280" lon="-8.8718070">
        <ele>7.9</ele>
        <time>2021-05-18T10:44:22Z</time>
      </trkpt>
      <trkpt lat="41.8426350" lon="-8.8717990">
        <ele>7.9</ele>
        <time>2021-05-18T10:44:23Z</time>
      </trkpt>
      <trkpt lat="41.8426390" lon="-8.8717910">
        <ele>7.8</ele>
        <time>2021-05-18T10:44:24Z</time>
      </trkpt>
      <trkpt lat="41.8426460" lon="-8.8717860">
        <ele>7.8</ele>
        <time>2021-05-18T10:44:25Z</time>
      </trkpt>
      <trkpt lat="41.8426580" lon="-8.8717660">
        <ele>7.8</ele>
        <time>2021-05-18T10:44:26Z</time>
      </trkpt>
      <trkpt lat="41.8426660" lon="-8.8717510">
        <ele>7.8</ele>
        <time>2021-05-18T10:44:27Z</time>
      </trkpt>
      <trkpt lat="41.8426670" lon="-8.8717450">
        <ele>7.8</ele>
        <time>2021-05-18T10:44:28Z</time>
      </trkpt>
      <trkpt lat="41.8426740" lon="-8.8717270">
        <ele>7.8</ele>
        <time>2021-05-18T10:44:29Z</time>
      </trkpt>
      <trkpt lat="41.8426770" lon="-8.8717170">
        <ele>7.8</ele>
        <time>2021-05-18T10:44:30Z</time>
      </trkpt>
      <trkpt lat="41.8426790" lon="-8.8716990">
        <ele>7.8</ele>
        <time>2021-05-18T10:44:31Z</time>
      </trkpt>
      <trkpt lat="41.8426830" lon="-8.8716820">
        <ele>7.8</ele>
        <time>2021-05-18T10:44:32Z</time>
      </trkpt>
      <trkpt lat="41.8426870" lon="-8.8716650">
        <ele>7.8</ele>
        <time>2021-05-18T10:44:33Z</time>
      </trkpt>
      <trkpt lat="41.8426800" lon="-8.8716450">
        <ele>7.8</ele>
        <time>2021-05-18T10:44:34Z</time>
      </trkpt>
      <trkpt lat="41.8426770" lon="-8.8716180">
        <ele>7.8</ele>
        <time>2021-05-18T10:44:35Z</time>
      </trkpt>
      <trkpt lat="41.8426810" lon="-8.8716080">
        <ele>7.7</ele>
        <time>2021-05-18T10:44:36Z</time>
      </trkpt>
      <trkpt lat="41.8426840" lon="-8.8715970">
        <ele>7.7</ele>
        <time>2021-05-18T10:44:37Z</time>
      </trkpt>
      <trkpt lat="41.8426900" lon="-8.8715670">
        <ele>7.7</ele>
        <time>2021-05-18T10:44:38Z</time>
      </trkpt>
      <trkpt lat="41.8426910" lon="-8.8715550">
        <ele>7.7</ele>
        <time>2021-05-18T10:44:39Z</time>
      </trkpt>
      <trkpt lat="41.8426930" lon="-8.8715430">
        <ele>7.7</ele>
        <time>2021-05-18T10:44:40Z</time>
      </trkpt>
      <trkpt lat="41.8426930" lon="-8.8715230">
        <ele>7.7</ele>
        <time>2021-05-18T10:44:41Z</time>
      </trkpt>
      <trkpt lat="41.8426930" lon="-8.8715010">
        <ele>7.7</ele>
        <time>2021-05-18T10:44:42Z</time>
      </trkpt>
      <trkpt lat="41.8426920" lon="-8.8714760">
        <ele>7.7</ele>
        <time>2021-05-18T10:44:43Z</time>
      </trkpt>
      <trkpt lat="41.8426940" lon="-8.8714630">
        <ele>7.7</ele>
        <time>2021-05-18T10:44:44Z</time>
      </trkpt>
      <trkpt lat="41.8426960" lon="-8.8714500">
        <ele>7.6</ele>
        <time>2021-05-18T10:44:45Z</time>
      </trkpt>
      <trkpt lat="41.8426960" lon="-8.8714190">
        <ele>7.6</ele>
        <time>2021-05-18T10:44:46Z</time>
      </trkpt>
      <trkpt lat="41.8426990" lon="-8.8714080">
        <ele>7.6</ele>
        <time>2021-05-18T10:44:47Z</time>
      </trkpt>
      <trkpt lat="41.8427010" lon="-8.8713960">
        <ele>7.6</ele>
        <time>2021-05-18T10:44:48Z</time>
      </trkpt>
      <trkpt lat="41.8427050" lon="-8.8713660">
        <ele>7.6</ele>
        <time>2021-05-18T10:44:49Z</time>
      </trkpt>
      <trkpt lat="41.8427110" lon="-8.8713560">
        <ele>7.6</ele>
        <time>2021-05-18T10:44:50Z</time>
      </trkpt>
      <trkpt lat="41.8427160" lon="-8.8713450">
        <ele>7.6</ele>
        <time>2021-05-18T10:44:51Z</time>
      </trkpt>
      <trkpt lat="41.8427180" lon="-8.8713320">
        <ele>7.6</ele>
        <time>2021-05-18T10:44:52Z</time>
      </trkpt>
      <trkpt lat="41.8427200" lon="-8.8713130">
        <ele>7.6</ele>
        <time>2021-05-18T10:44:53Z</time>
      </trkpt>
      <trkpt lat="41.8427280" lon="-8.8713030">
        <ele>7.6</ele>
        <time>2021-05-18T10:44:54Z</time>
      </trkpt>
      <trkpt lat="41.8427300" lon="-8.8712880">
        <ele>7.5</ele>
        <time>2021-05-18T10:44:55Z</time>
      </trkpt>
      <trkpt lat="41.8427420" lon="-8.8712710">
        <ele>7.5</ele>
        <time>2021-05-18T10:44:56Z</time>
      </trkpt>
      <trkpt lat="41.8427450" lon="-8.8712500">
        <ele>7.5</ele>
        <time>2021-05-18T10:44:57Z</time>
      </trkpt>
      <trkpt lat="41.8427530" lon="-8.8712400">
        <ele>7.5</ele>
        <time>2021-05-18T10:44:58Z</time>
      </trkpt>
      <trkpt lat="41.8427570" lon="-8.8712270">
        <ele>7.5</ele>
        <time>2021-05-18T10:44:59Z</time>
      </trkpt>
      <trkpt lat="41.8427680" lon="-8.8712060">
        <ele>7.5</ele>
        <time>2021-05-18T10:45:00Z</time>
      </trkpt>
      <trkpt lat="41.8427740" lon="-8.8711990">
        <ele>7.5</ele>
        <time>2021-05-18T10:45:01Z</time>
      </trkpt>
      <trkpt lat="41.8427870" lon="-8.8711770">
        <ele>7.5</ele>
        <time>2021-05-18T10:45:02Z</time>
      </trkpt>
      <trkpt lat="41.8427920" lon="-8.8711670">
        <ele>7.5</ele>
        <time>2021-05-18T10:45:03Z</time>
      </trkpt>
      <trkpt lat="41.8427970" lon="-8.8711570">
        <ele>7.5</ele>
        <time>2021-05-18T10:45:04Z</time>
      </trkpt>
      <trkpt lat="41.8428080" lon="-8.8711310">
        <ele>7.4</ele>
        <time>2021-05-18T10:45:05Z</time>
      </trkpt>
      <trkpt lat="41.8428130" lon="-8.8711220">
        <ele>7.4</ele>
        <time>2021-05-18T10:45:06Z</time>
      </trkpt>
      <trkpt lat="41.8428190" lon="-8.8711120">
        <ele>7.4</ele>
        <time>2021-05-18T10:45:07Z</time>
      </trkpt>
      <trkpt lat="41.8428270" lon="-8.8710980">
        <ele>7.4</ele>
        <time>2021-05-18T10:45:08Z</time>
      </trkpt>
      <trkpt lat="41.8428320" lon="-8.8710890">
        <ele>7.4</ele>
        <time>2021-05-18T10:45:09Z</time>
      </trkpt>
      <trkpt lat="41.8428400" lon="-8.8710830">
        <ele>7.4</ele>
        <time>2021-05-18T10:45:10Z</time>
      </trkpt>
      <trkpt lat="41.8428560" lon="-8.8710560">
        <ele>7.4</ele>
        <time>2021-05-18T10:45:11Z</time>
      </trkpt>
      <trkpt lat="41.8428600" lon="-8.8710470">
        <ele>7.4</ele>
        <time>2021-05-18T10:45:12Z</time>
      </trkpt>
      <trkpt lat="41.8428650" lon="-8.8710380">
        <ele>7.4</ele>
        <time>2021-05-18T10:45:13Z</time>
      </trkpt>
      <trkpt lat="41.8428770" lon="-8.8710140">
        <ele>7.4</ele>
        <time>2021-05-18T10:45:14Z</time>
      </trkpt>
      <trkpt lat="41.8428830" lon="-8.8710040">
        <ele>7.4</ele>
        <time>2021-05-18T10:45:15Z</time>
      </trkpt>
      <trkpt lat="41.8428890" lon="-8.8709940">
        <ele>7.4</ele>
        <time>2021-05-18T10:45:16Z</time>
      </trkpt>
      <trkpt lat="41.8429010" lon="-8.8709820">
        <ele>7.4</ele>
        <time>2021-05-18T10:45:17Z</time>
      </trkpt>
      <trkpt lat="41.8429090" lon="-8.8709680">
        <ele>7.4</ele>
        <time>2021-05-18T10:45:18Z</time>
      </trkpt>
      <trkpt lat="41.8429210" lon="-8.8709630">
        <ele>7.4</ele>
        <time>2021-05-18T10:45:19Z</time>
      </trkpt>
      <trkpt lat="41.8429250" lon="-8.8709540">
        <ele>7.4</ele>
        <time>2021-05-18T10:45:20Z</time>
      </trkpt>
      <trkpt lat="41.8429310" lon="-8.8709430">
        <ele>7.4</ele>
        <time>2021-05-18T10:45:21Z</time>
      </trkpt>
      <trkpt lat="41.8429460" lon="-8.8709300">
        <ele>7.3</ele>
        <time>2021-05-18T10:45:22Z</time>
      </trkpt>
      <trkpt lat="41.8429560" lon="-8.8709200">
        <ele>7.3</ele>
        <time>2021-05-18T10:45:23Z</time>
      </trkpt>
      <trkpt lat="41.8429600" lon="-8.8709080">
        <ele>7.3</ele>
        <time>2021-05-18T10:45:24Z</time>
      </trkpt>
      <trkpt lat="41.8429650" lon="-8.8708950">
        <ele>7.3</ele>
        <time>2021-05-18T10:45:25Z</time>
      </trkpt>
      <trkpt lat="41.8429710" lon="-8.8708800">
        <ele>7.3</ele>
        <time>2021-05-18T10:45:26Z</time>
      </trkpt>
      <trkpt lat="41.8429900" lon="-8.8708610">
        <ele>7.3</ele>
        <time>2021-05-18T10:45:27Z</time>
      </trkpt>
      <trkpt lat="41.8429980" lon="-8.8708520">
        <ele>7.3</ele>
        <time>2021-05-18T10:45:28Z</time>
      </trkpt>
      <trkpt lat="41.8430060" lon="-8.8708420">
        <ele>7.3</ele>
        <time>2021-05-18T10:45:29Z</time>
      </trkpt>
      <trkpt lat="41.8430210" lon="-8.8708240">
        <ele>7.3</ele>
        <time>2021-05-18T10:45:30Z</time>
      </trkpt>
      <trkpt lat="41.8430290" lon="-8.8708160">
        <ele>7.3</ele>
        <time>2021-05-18T10:45:31Z</time>
      </trkpt>
      <trkpt lat="41.8430370" lon="-8.8708090">
        <ele>7.3</ele>
        <time>2021-05-18T10:45:32Z</time>
      </trkpt>
      <trkpt lat="41.8430500" lon="-8.8707890">
        <ele>7.3</ele>
        <time>2021-05-18T10:45:33Z</time>
      </trkpt>
      <trkpt lat="41.8430590" lon="-8.8707800">
        <ele>7.3</ele>
        <time>2021-05-18T10:45:34Z</time>
      </trkpt>
      <trkpt lat="41.8430670" lon="-8.8707720">
        <ele>7.3</ele>
        <time>2021-05-18T10:45:35Z</time>
      </trkpt>
      <trkpt lat="41.8430860" lon="-8.8707530">
        <ele>7.3</ele>
        <time>2021-05-18T10:45:36Z</time>
      </trkpt>
      <trkpt lat="41.8430940" lon="-8.8707450">
        <ele>7.3</ele>
        <time>2021-05-18T10:45:37Z</time>
      </trkpt>
      <trkpt lat="41.8431030" lon="-8.8707360">
        <ele>7.3</ele>
        <time>2021-05-18T10:45:38Z</time>
      </trkpt>
      <trkpt lat="41.8431110" lon="-8.8707260">
        <ele>7.3</ele>
        <time>2021-05-18T10:45:39Z</time>
      </trkpt>
      <trkpt lat="41.8431200" lon="-8.8707170">
        <ele>7.3</ele>
        <time>2021-05-18T10:45:40Z</time>
      </trkpt>
      <trkpt lat="41.8431270" lon="-8.8707080">
        <ele>7.3</ele>
        <time>2021-05-18T10:45:41Z</time>
      </trkpt>
      <trkpt lat="41.8431460" lon="-8.8706950">
        <ele>7.3</ele>
        <time>2021-05-18T10:45:42Z</time>
      </trkpt>
      <trkpt lat="41.8431520" lon="-8.8706910">
        <ele>7.3</ele>
        <time>2021-05-18T10:45:43Z</time>
      </trkpt>
      <trkpt lat="41.8431590" lon="-8.8706860">
        <ele>7.3</ele>
        <time>2021-05-18T10:45:44Z</time>
      </trkpt>
      <trkpt lat="41.8431800" lon="-8.8706670">
        <ele>7.3</ele>
        <time>2021-05-18T10:45:45Z</time>
      </trkpt>
      <trkpt lat="41.8431860" lon="-8.8706590">
        <ele>7.3</ele>
        <time>2021-05-18T10:45:46Z</time>
      </trkpt>
      <trkpt lat="41.8431930" lon="-8.8706510">
        <ele>7.3</ele>
        <time>2021-05-18T10:45:47Z</time>
      </trkpt>
      <trkpt lat="41.8432040" lon="-8.8706390">
        <ele>7.3</ele>
        <time>2021-05-18T10:45:48Z</time>
      </trkpt>
      <trkpt lat="41.8432170" lon="-8.8706300">
        <ele>7.3</ele>
        <time>2021-05-18T10:45:49Z</time>
      </trkpt>
      <trkpt lat="41.8432340" lon="-8.8706200">
        <ele>7.3</ele>
        <time>2021-05-18T10:45:50Z</time>
      </trkpt>
      <trkpt lat="41.8432430" lon="-8.8706110">
        <ele>7.3</ele>
        <time>2021-05-18T10:45:51Z</time>
      </trkpt>
      <trkpt lat="41.8432580" lon="-8.8706040">
        <ele>7.3</ele>
        <time>2021-05-18T10:45:52Z</time>
      </trkpt>
      <trkpt lat="41.8432670" lon="-8.8705940">
        <ele>7.3</ele>
        <time>2021-05-18T10:45:53Z</time>
      </trkpt>
      <trkpt lat="41.8432770" lon="-8.8705820">
        <ele>7.3</ele>
        <time>2021-05-18T10:45:54Z</time>
      </trkpt>
      <trkpt lat="41.8432880" lon="-8.8705670">
        <ele>7.3</ele>
        <time>2021-05-18T10:45:55Z</time>
      </trkpt>
      <trkpt lat="41.8433050" lon="-8.8705490">
        <ele>7.3</ele>
        <time>2021-05-18T10:45:56Z</time>
      </trkpt>
      <trkpt lat="41.8433110" lon="-8.8705430">
        <ele>7.3</ele>
        <time>2021-05-18T10:45:57Z</time>
      </trkpt>
      <trkpt lat="41.8433170" lon="-8.8705360">
        <ele>7.3</ele>
        <time>2021-05-18T10:45:58Z</time>
      </trkpt>
      <trkpt lat="41.8433320" lon="-8.8705160">
        <ele>7.3</ele>
        <time>2021-05-18T10:45:59Z</time>
      </trkpt>
      <trkpt lat="41.8433390" lon="-8.8705090">
        <ele>7.3</ele>
        <time>2021-05-18T10:46:00Z</time>
      </trkpt>
      <trkpt lat="41.8433460" lon="-8.8705030">
        <ele>7.3</ele>
        <time>2021-05-18T10:46:01Z</time>
      </trkpt>
      <trkpt lat="41.8433650" lon="-8.8704840">
        <ele>7.3</ele>
        <time>2021-05-18T10:46:02Z</time>
      </trkpt>
      <trkpt lat="41.8433720" lon="-8.8704760">
        <ele>7.3</ele>
        <time>2021-05-18T10:46:03Z</time>
      </trkpt>
      <trkpt lat="41.8433780" lon="-8.8704680">
        <ele>7.3</ele>
        <time>2021-05-18T10:46:04Z</time>
      </trkpt>
      <trkpt lat="41.8433970" lon="-8.8704540">
        <ele>7.3</ele>
        <time>2021-05-18T10:46:05Z</time>
      </trkpt>
      <trkpt lat="41.8434040" lon="-8.8704470">
        <ele>7.3</ele>
        <time>2021-05-18T10:46:06Z</time>
      </trkpt>
      <trkpt lat="41.8434110" lon="-8.8704400">
        <ele>7.3</ele>
        <time>2021-05-18T10:46:07Z</time>
      </trkpt>
      <trkpt lat="41.8434210" lon="-8.8704250">
        <ele>7.3</ele>
        <time>2021-05-18T10:46:08Z</time>
      </trkpt>
      <trkpt lat="41.8434240" lon="-8.8704200">
        <ele>7.3</ele>
        <time>2021-05-18T10:46:09Z</time>
      </trkpt>
      <trkpt lat="41.8434370" lon="-8.8704120">
        <ele>7.3</ele>
        <time>2021-05-18T10:46:10Z</time>
      </trkpt>
      <trkpt lat="41.8434430" lon="-8.8704020">
        <ele>7.3</ele>
        <time>2021-05-18T10:46:11Z</time>
      </trkpt>
      <trkpt lat="41.8434600" lon="-8.8703890">
        <ele>7.2</ele>
        <time>2021-05-18T10:46:12Z</time>
      </trkpt>
      <trkpt lat="41.8434730" lon="-8.8703760">
        <ele>7.2</ele>
        <time>2021-05-18T10:46:13Z</time>
      </trkpt>
      <trkpt lat="41.8434860" lon="-8.8703630">
        <ele>7.2</ele>
        <time>2021-05-18T10:46:14Z</time>
      </trkpt>
      <trkpt lat="41.8434940" lon="-8.8703510">
        <ele>7.2</ele>
        <time>2021-05-18T10:46:15Z</time>
      </trkpt>
      <trkpt lat="41.8434960" lon="-8.8703470">
        <ele>7.2</ele>
        <time>2021-05-18T10:46:16Z</time>
      </trkpt>
      <trkpt lat="41.8435070" lon="-8.8703460">
        <ele>7.2</ele>
        <time>2021-05-18T10:46:17Z</time>
      </trkpt>
      <trkpt lat="41.8435150" lon="-8.8703370">
        <ele>7.2</ele>
        <time>2021-05-18T10:46:18Z</time>
      </trkpt>
      <trkpt lat="41.8435190" lon="-8.8703200">
        <ele>7.2</ele>
        <time>2021-05-18T10:46:19Z</time>
      </trkpt>
      <trkpt lat="41.8435300" lon="-8.8703030">
        <ele>7.2</ele>
        <time>2021-05-18T10:46:20Z</time>
      </trkpt>
      <trkpt lat="41.8435460" lon="-8.8702910">
        <ele>7.2</ele>
        <time>2021-05-18T10:46:21Z</time>
      </trkpt>
      <trkpt lat="41.8435540" lon="-8.8702760">
        <ele>7.2</ele>
        <time>2021-05-18T10:46:22Z</time>
      </trkpt>
      <trkpt lat="41.8435710" lon="-8.8702560">
        <ele>7.2</ele>
        <time>2021-05-18T10:46:23Z</time>
      </trkpt>
      <trkpt lat="41.8435800" lon="-8.8702510">
        <ele>7.2</ele>
        <time>2021-05-18T10:46:24Z</time>
      </trkpt>
      <trkpt lat="41.8435890" lon="-8.8702450">
        <ele>7.2</ele>
        <time>2021-05-18T10:46:25Z</time>
      </trkpt>
      <trkpt lat="41.8436020" lon="-8.8702330">
        <ele>7.2</ele>
        <time>2021-05-18T10:46:26Z</time>
      </trkpt>
      <trkpt lat="41.8436080" lon="-8.8702240">
        <ele>7.2</ele>
        <time>2021-05-18T10:46:27Z</time>
      </trkpt>
      <trkpt lat="41.8436170" lon="-8.8702200">
        <ele>7.2</ele>
        <time>2021-05-18T10:46:28Z</time>
      </trkpt>
      <trkpt lat="41.8436230" lon="-8.8702180">
        <ele>7.2</ele>
        <time>2021-05-18T10:46:29Z</time>
      </trkpt>
      <trkpt lat="41.8436210" lon="-8.8702190">
        <ele>7.2</ele>
        <time>2021-05-18T10:46:30Z</time>
      </trkpt>
      <trkpt lat="41.8436180" lon="-8.8702200">
        <ele>7.2</ele>
        <time>2021-05-18T10:46:31Z</time>
      </trkpt>
      <trkpt lat="41.8436160" lon="-8.8702210">
        <ele>7.2</ele>
        <time>2021-05-18T10:46:32Z</time>
      </trkpt>
      <trkpt lat="41.8436130" lon="-8.8702220">
        <ele>7.2</ele>
        <time>2021-05-18T10:46:33Z</time>
      </trkpt>
      <trkpt lat="41.8436100" lon="-8.8702230">
        <ele>7.2</ele>
        <time>2021-05-18T10:46:34Z</time>
      </trkpt>
      <trkpt lat="41.8436080" lon="-8.8702240">
        <ele>7.2</ele>
        <time>2021-05-18T10:46:35Z</time>
      </trkpt>
      <trkpt lat="41.8436050" lon="-8.8702250">
        <ele>7.2</ele>
        <time>2021-05-18T10:46:36Z</time>
      </trkpt>
      <trkpt lat="41.8436030" lon="-8.8702260">
        <ele>7.2</ele>
        <time>2021-05-18T10:46:37Z</time>
      </trkpt>
      <trkpt lat="41.8436000" lon="-8.8702270">
        <ele>7.2</ele>
        <time>2021-05-18T10:46:38Z</time>
      </trkpt>
      <trkpt lat="41.8435980" lon="-8.8702280">
        <ele>7.2</ele>
        <time>2021-05-18T10:46:40Z</time>
      </trkpt>
      <trkpt lat="41.8435950" lon="-8.8702290">
        <ele>7.2</ele>
        <time>2021-05-18T10:46:41Z</time>
      </trkpt>
      <trkpt lat="41.8435920" lon="-8.8702300">
        <ele>7.2</ele>
        <time>2021-05-18T10:46:42Z</time>
      </trkpt>
      <trkpt lat="41.8435900" lon="-8.8702310">
        <ele>7.2</ele>
        <time>2021-05-18T10:46:43Z</time>
      </trkpt>
      <trkpt lat="41.8435870" lon="-8.8702320">
        <ele>7.2</ele>
        <time>2021-05-18T10:46:44Z</time>
      </trkpt>
      <trkpt lat="41.8435850" lon="-8.8702330">
        <ele>7.2</ele>
        <time>2021-05-18T10:46:45Z</time>
      </trkpt>
      <trkpt lat="41.8435820" lon="-8.8702340">
        <ele>7.2</ele>
        <time>2021-05-18T10:46:46Z</time>
      </trkpt>
      <trkpt lat="41.8435790" lon="-8.8702350">
        <ele>7.2</ele>
        <time>2021-05-18T10:46:47Z</time>
      </trkpt>
      <trkpt lat="41.8435770" lon="-8.8702360">
        <ele>7.2</ele>
        <time>2021-05-18T10:46:48Z</time>
      </trkpt>
      <trkpt lat="41.8435740" lon="-8.8702370">
        <ele>7.2</ele>
        <time>2021-05-18T10:46:49Z</time>
      </trkpt>
      <trkpt lat="41.8435720" lon="-8.8702380">
        <ele>7.2</ele>
        <time>2021-05-18T10:46:50Z</time>
      </trkpt>
      <trkpt lat="41.8435690" lon="-8.8702390">
        <ele>7.2</ele>
        <time>2021-05-18T10:46:51Z</time>
      </trkpt>
      <trkpt lat="41.8435670" lon="-8.8702400">
        <ele>7.2</ele>
        <time>2021-05-18T10:46:52Z</time>
      </trkpt>
      <trkpt lat="41.8435640" lon="-8.8702410">
        <ele>7.2</ele>
        <time>2021-05-18T10:46:53Z</time>
      </trkpt>
      <trkpt lat="41.8435610" lon="-8.8702420">
        <ele>7.2</ele>
        <time>2021-05-18T10:46:54Z</time>
      </trkpt>
      <trkpt lat="41.8435590" lon="-8.8702430">
        <ele>7.2</ele>
        <time>2021-05-18T10:46:55Z</time>
      </trkpt>
      <trkpt lat="41.8435560" lon="-8.8702440">
        <ele>7.2</ele>
        <time>2021-05-18T10:46:56Z</time>
      </trkpt>
      <trkpt lat="41.8435540" lon="-8.8702450">
        <ele>7.2</ele>
        <time>2021-05-18T10:46:57Z</time>
      </trkpt>
      <trkpt lat="41.8435510" lon="-8.8702460">
        <ele>7.2</ele>
        <time>2021-05-18T10:46:58Z</time>
      </trkpt>
      <trkpt lat="41.8435280" lon="-8.8702560">
        <ele>7.2</ele>
        <time>2021-05-18T10:46:59Z</time>
      </trkpt>
      <trkpt lat="41.8435320" lon="-8.8702520">
        <ele>7.2</ele>
        <time>2021-05-18T10:47:00Z</time>
      </trkpt>
      <trkpt lat="41.8435350" lon="-8.8702570">
        <ele>7.2</ele>
        <time>2021-05-18T10:47:01Z</time>
      </trkpt>
      <trkpt lat="41.8435330" lon="-8.8702570">
        <ele>7.2</ele>
        <time>2021-05-18T10:47:02Z</time>
      </trkpt>
      <trkpt lat="41.8435330" lon="-8.8702600">
        <ele>7.2</ele>
        <time>2021-05-18T10:47:03Z</time>
      </trkpt>
      <trkpt lat="41.8435350" lon="-8.8702640">
        <ele>7.2</ele>
        <time>2021-05-18T10:47:04Z</time>
      </trkpt>
      <trkpt lat="41.8435360" lon="-8.8702640">
        <ele>7.2</ele>
        <time>2021-05-18T10:47:05Z</time>
      </trkpt>
      <trkpt lat="41.8435390" lon="-8.8702610">
        <ele>7.2</ele>
        <time>2021-05-18T10:47:06Z</time>
      </trkpt>
      <trkpt lat="41.8435560" lon="-8.8702560">
        <ele>7.1</ele>
        <time>2021-05-18T10:47:07Z</time>
      </trkpt>
      <trkpt lat="41.8435570" lon="-8.8702560">
        <ele>7.1</ele>
        <time>2021-05-18T10:47:08Z</time>
      </trkpt>
      <trkpt lat="41.8435450" lon="-8.8702530">
        <ele>7.1</ele>
        <time>2021-05-18T10:47:09Z</time>
      </trkpt>
      <trkpt lat="41.8435440" lon="-8.8702540">
        <ele>7.1</ele>
        <time>2021-05-18T10:47:10Z</time>
      </trkpt>
      <trkpt lat="41.8435430" lon="-8.8702530">
        <ele>7.1</ele>
        <time>2021-05-18T10:47:11Z</time>
      </trkpt>
      <trkpt lat="41.8435410" lon="-8.8702510">
        <ele>7.1</ele>
        <time>2021-05-18T10:47:12Z</time>
      </trkpt>
      <trkpt lat="41.8435400" lon="-8.8702510">
        <ele>7.1</ele>
        <time>2021-05-18T10:47:13Z</time>
      </trkpt>
      <trkpt lat="41.8435400" lon="-8.8702480">
        <ele>7.1</ele>
        <time>2021-05-18T10:47:14Z</time>
      </trkpt>
      <trkpt lat="41.8435370" lon="-8.8702470">
        <ele>7.1</ele>
        <time>2021-05-18T10:47:15Z</time>
      </trkpt>
      <trkpt lat="41.8435340" lon="-8.8702450">
        <ele>7.1</ele>
        <time>2021-05-18T10:47:16Z</time>
      </trkpt>
      <trkpt lat="41.8435340" lon="-8.8702420">
        <ele>7.1</ele>
        <time>2021-05-18T10:47:17Z</time>
      </trkpt>
      <trkpt lat="41.8435340" lon="-8.8702430">
        <ele>7.1</ele>
        <time>2021-05-18T10:47:18Z</time>
      </trkpt>
      <trkpt lat="41.8435360" lon="-8.8702420">
        <ele>7.1</ele>
        <time>2021-05-18T10:47:19Z</time>
      </trkpt>
      <trkpt lat="41.8435320" lon="-8.8702460">
        <ele>7.1</ele>
        <time>2021-05-18T10:47:20Z</time>
      </trkpt>
      <trkpt lat="41.8435350" lon="-8.8702520">
        <ele>7.1</ele>
        <time>2021-05-18T10:47:21Z</time>
      </trkpt>
      <trkpt lat="41.8435360" lon="-8.8702530">
        <ele>7.1</ele>
        <time>2021-05-18T10:47:22Z</time>
      </trkpt>
      <trkpt lat="41.8435360" lon="-8.8702530">
        <ele>7.1</ele>
        <time>2021-05-18T10:47:23Z</time>
      </trkpt>
      <trkpt lat="41.8435230" lon="-8.8702550">
        <ele>7.1</ele>
        <time>2021-05-18T10:47:24Z</time>
      </trkpt>
      <trkpt lat="41.8435140" lon="-8.8702580">
        <ele>7.1</ele>
        <time>2021-05-18T10:47:25Z</time>
      </trkpt>
      <trkpt lat="41.8435140" lon="-8.8702600">
        <ele>7.1</ele>
        <time>2021-05-18T10:47:26Z</time>
      </trkpt>
      <trkpt lat="41.8435180" lon="-8.8702600">
        <ele>7.1</ele>
        <time>2021-05-18T10:47:27Z</time>
      </trkpt>
      <trkpt lat="41.8435200" lon="-8.8702600">
        <ele>7.1</ele>
        <time>2021-05-18T10:47:28Z</time>
      </trkpt>
      <trkpt lat="41.8435200" lon="-8.8702590">
        <ele>7.1</ele>
        <time>2021-05-18T10:47:29Z</time>
      </trkpt>
      <trkpt lat="41.8435200" lon="-8.8702610">
        <ele>7.1</ele>
        <time>2021-05-18T10:47:30Z</time>
      </trkpt>
      <trkpt lat="41.8435210" lon="-8.8702620">
        <ele>7.1</ele>
        <time>2021-05-18T10:47:31Z</time>
      </trkpt>
      <trkpt lat="41.8435250" lon="-8.8702610">
        <ele>7.1</ele>
        <time>2021-05-18T10:47:32Z</time>
      </trkpt>
      <trkpt lat="41.8435350" lon="-8.8702550">
        <ele>7.1</ele>
        <time>2021-05-18T10:47:33Z</time>
      </trkpt>
      <trkpt lat="41.8435400" lon="-8.8702670">
        <ele>7.1</ele>
        <time>2021-05-18T10:47:34Z</time>
      </trkpt>
      <trkpt lat="41.8435330" lon="-8.8702640">
        <ele>7.1</ele>
        <time>2021-05-18T10:47:35Z</time>
      </trkpt>
      <trkpt lat="41.8435340" lon="-8.8702570">
        <ele>7.1</ele>
        <time>2021-05-18T10:47:36Z</time>
      </trkpt>
      <trkpt lat="41.8435340" lon="-8.8702540">
        <ele>7.1</ele>
        <time>2021-05-18T10:47:37Z</time>
      </trkpt>
      <trkpt lat="41.8435340" lon="-8.8702550">
        <ele>7.1</ele>
        <time>2021-05-18T10:47:38Z</time>
      </trkpt>
      <trkpt lat="41.8435320" lon="-8.8702520">
        <ele>7.1</ele>
        <time>2021-05-18T10:47:39Z</time>
      </trkpt>
      <trkpt lat="41.8435280" lon="-8.8702520">
        <ele>7.1</ele>
        <time>2021-05-18T10:47:40Z</time>
      </trkpt>
      <trkpt lat="41.8435200" lon="-8.8702510">
        <ele>7.1</ele>
        <time>2021-05-18T10:47:41Z</time>
      </trkpt>
      <trkpt lat="41.8435240" lon="-8.8702490">
        <ele>7.1</ele>
        <time>2021-05-18T10:47:42Z</time>
      </trkpt>
      <trkpt lat="41.8435260" lon="-8.8702500">
        <ele>7.1</ele>
        <time>2021-05-18T10:47:43Z</time>
      </trkpt>
      <trkpt lat="41.8435320" lon="-8.8702540">
        <ele>7.1</ele>
        <time>2021-05-18T10:47:44Z</time>
      </trkpt>
      <trkpt lat="41.8435410" lon="-8.8702520">
        <ele>7.1</ele>
        <time>2021-05-18T10:47:45Z</time>
      </trkpt>
      <trkpt lat="41.8435420" lon="-8.8702520">
        <ele>7.1</ele>
        <time>2021-05-18T10:47:46Z</time>
      </trkpt>
      <trkpt lat="41.8435450" lon="-8.8702580">
        <ele>7.1</ele>
        <time>2021-05-18T10:47:47Z</time>
      </trkpt>
      <trkpt lat="41.8435470" lon="-8.8702590">
        <ele>7.1</ele>
        <time>2021-05-18T10:47:48Z</time>
      </trkpt>
      <trkpt lat="41.8435470" lon="-8.8702580">
        <ele>7.1</ele>
        <time>2021-05-18T10:47:49Z</time>
      </trkpt>
      <trkpt lat="41.8435480" lon="-8.8702530">
        <ele>7.1</ele>
        <time>2021-05-18T10:47:50Z</time>
      </trkpt>
      <trkpt lat="41.8435490" lon="-8.8702520">
        <ele>7.1</ele>
        <time>2021-05-18T10:47:51Z</time>
      </trkpt>
      <trkpt lat="41.8435480" lon="-8.8702520">
        <ele>7.1</ele>
        <time>2021-05-18T10:47:52Z</time>
      </trkpt>
      <trkpt lat="41.8435510" lon="-8.8702560">
        <ele>7.1</ele>
        <time>2021-05-18T10:47:53Z</time>
      </trkpt>
      <trkpt lat="41.8435510" lon="-8.8702520">
        <ele>7.1</ele>
        <time>2021-05-18T10:47:54Z</time>
      </trkpt>
      <trkpt lat="41.8435510" lon="-8.8702520">
        <ele>7.1</ele>
        <time>2021-05-18T10:47:55Z</time>
      </trkpt>
      <trkpt lat="41.8435520" lon="-8.8702510">
        <ele>7.1</ele>
        <time>2021-05-18T10:47:56Z</time>
      </trkpt>
      <trkpt lat="41.8435520" lon="-8.8702510">
        <ele>7.1</ele>
        <time>2021-05-18T10:47:57Z</time>
      </trkpt>
      <trkpt lat="41.8435530" lon="-8.8702500">
        <ele>7.1</ele>
        <time>2021-05-18T10:47:58Z</time>
      </trkpt>
      <trkpt lat="41.8435530" lon="-8.8702500">
        <ele>7.1</ele>
        <time>2021-05-18T10:47:59Z</time>
      </trkpt>
      <trkpt lat="41.8435540" lon="-8.8702490">
        <ele>7.1</ele>
        <time>2021-05-18T10:48:00Z</time>
      </trkpt>
      <trkpt lat="41.8435540" lon="-8.8702480">
        <ele>7.1</ele>
        <time>2021-05-18T10:48:01Z</time>
      </trkpt>
      <trkpt lat="41.8435550" lon="-8.8702480">
        <ele>7.1</ele>
        <time>2021-05-18T10:48:02Z</time>
      </trkpt>
      <trkpt lat="41.8435550" lon="-8.8702470">
        <ele>7.1</ele>
        <time>2021-05-18T10:48:03Z</time>
      </trkpt>
      <trkpt lat="41.8435560" lon="-8.8702470">
        <ele>7.1</ele>
        <time>2021-05-18T10:48:04Z</time>
      </trkpt>
      <trkpt lat="41.8435560" lon="-8.8702460">
        <ele>7.1</ele>
        <time>2021-05-18T10:48:05Z</time>
      </trkpt>
      <trkpt lat="41.8435570" lon="-8.8702460">
        <ele>7.1</ele>
        <time>2021-05-18T10:48:06Z</time>
      </trkpt>
      <trkpt lat="41.8435580" lon="-8.8702450">
        <ele>7.1</ele>
        <time>2021-05-18T10:48:07Z</time>
      </trkpt>
      <trkpt lat="41.8435580" lon="-8.8702440">
        <ele>7.1</ele>
        <time>2021-05-18T10:48:08Z</time>
      </trkpt>
      <trkpt lat="41.8435590" lon="-8.8702440">
        <ele>7.1</ele>
        <time>2021-05-18T10:48:09Z</time>
      </trkpt>
      <trkpt lat="41.8435590" lon="-8.8702430">
        <ele>7.1</ele>
        <time>2021-05-18T10:48:10Z</time>
      </trkpt>
      <trkpt lat="41.8435600" lon="-8.8702430">
        <ele>7.1</ele>
        <time>2021-05-18T10:48:11Z</time>
      </trkpt>
      <trkpt lat="41.8435600" lon="-8.8702420">
        <ele>7.1</ele>
        <time>2021-05-18T10:48:12Z</time>
      </trkpt>
      <trkpt lat="41.8435610" lon="-8.8702420">
        <ele>7.1</ele>
        <time>2021-05-18T10:48:13Z</time>
      </trkpt>
      <trkpt lat="41.8435610" lon="-8.8702410">
        <ele>7.1</ele>
        <time>2021-05-18T10:48:14Z</time>
      </trkpt>
      <trkpt lat="41.8435620" lon="-8.8702400">
        <ele>7.1</ele>
        <time>2021-05-18T10:48:15Z</time>
      </trkpt>
      <trkpt lat="41.8435620" lon="-8.8702400">
        <ele>7.1</ele>
        <time>2021-05-18T10:48:16Z</time>
      </trkpt>
      <trkpt lat="41.8435630" lon="-8.8702390">
        <ele>7.1</ele>
        <time>2021-05-18T10:48:17Z</time>
      </trkpt>
      <trkpt lat="41.8435630" lon="-8.8702390">
        <ele>7.1</ele>
        <time>2021-05-18T10:48:18Z</time>
      </trkpt>
      <trkpt lat="41.8435640" lon="-8.8702380">
        <ele>7.1</ele>
        <time>2021-05-18T10:48:19Z</time>
      </trkpt>
      <trkpt lat="41.8435650" lon="-8.8702380">
        <ele>7.1</ele>
        <time>2021-05-18T10:48:20Z</time>
      </trkpt>
      <trkpt lat="41.8435650" lon="-8.8702370">
        <ele>7.1</ele>
        <time>2021-05-18T10:48:21Z</time>
      </trkpt>
      <trkpt lat="41.8435660" lon="-8.8702360">
        <ele>7.1</ele>
        <time>2021-05-18T10:48:22Z</time>
      </trkpt>
      <trkpt lat="41.8435660" lon="-8.8702360">
        <ele>7.1</ele>
        <time>2021-05-18T10:48:23Z</time>
      </trkpt>
      <trkpt lat="41.8435670" lon="-8.8702350">
        <ele>7.1</ele>
        <time>2021-05-18T10:48:24Z</time>
      </trkpt>
      <trkpt lat="41.8435670" lon="-8.8702350">
        <ele>7.1</ele>
        <time>2021-05-18T10:48:25Z</time>
      </trkpt>
      <trkpt lat="41.8435680" lon="-8.8702340">
        <ele>7.1</ele>
        <time>2021-05-18T10:48:26Z</time>
      </trkpt>
      <trkpt lat="41.8435680" lon="-8.8702330">
        <ele>7.1</ele>
        <time>2021-05-18T10:48:27Z</time>
      </trkpt>
      <trkpt lat="41.8435690" lon="-8.8702330">
        <ele>7.1</ele>
        <time>2021-05-18T10:48:28Z</time>
      </trkpt>
      <trkpt lat="41.8435690" lon="-8.8702320">
        <ele>7.1</ele>
        <time>2021-05-18T10:48:29Z</time>
      </trkpt>
      <trkpt lat="41.8435700" lon="-8.8702320">
        <ele>7.1</ele>
        <time>2021-05-18T10:48:30Z</time>
      </trkpt>
      <trkpt lat="41.8435700" lon="-8.8702310">
        <ele>7.1</ele>
        <time>2021-05-18T10:48:31Z</time>
      </trkpt>
      <trkpt lat="41.8435710" lon="-8.8702310">
        <ele>7.1</ele>
        <time>2021-05-18T10:48:32Z</time>
      </trkpt>
      <trkpt lat="41.8435710" lon="-8.8702300">
        <ele>7.1</ele>
        <time>2021-05-18T10:48:33Z</time>
      </trkpt>
      <trkpt lat="41.8435720" lon="-8.8702290">
        <ele>7.0</ele>
        <time>2021-05-18T10:48:34Z</time>
      </trkpt>
      <trkpt lat="41.8435730" lon="-8.8702290">
        <ele>7.0</ele>
        <time>2021-05-18T10:48:35Z</time>
      </trkpt>
      <trkpt lat="41.8435730" lon="-8.8702280">
        <ele>7.0</ele>
        <time>2021-05-18T10:48:36Z</time>
      </trkpt>
      <trkpt lat="41.8435740" lon="-8.8702280">
        <ele>7.0</ele>
        <time>2021-05-18T10:48:37Z</time>
      </trkpt>
      <trkpt lat="41.8435740" lon="-8.8702270">
        <ele>7.0</ele>
        <time>2021-05-18T10:48:38Z</time>
      </trkpt>
      <trkpt lat="41.8435750" lon="-8.8702270">
        <ele>7.0</ele>
        <time>2021-05-18T10:48:39Z</time>
      </trkpt>
      <trkpt lat="41.8435750" lon="-8.8702260">
        <ele>7.0</ele>
        <time>2021-05-18T10:48:40Z</time>
      </trkpt>
      <trkpt lat="41.8435760" lon="-8.8702250">
        <ele>7.0</ele>
        <time>2021-05-18T10:48:41Z</time>
      </trkpt>
      <trkpt lat="41.8435760" lon="-8.8702250">
        <ele>7.0</ele>
        <time>2021-05-18T10:48:42Z</time>
      </trkpt>
      <trkpt lat="41.8435770" lon="-8.8702240">
        <ele>7.0</ele>
        <time>2021-05-18T10:48:43Z</time>
      </trkpt>
      <trkpt lat="41.8435770" lon="-8.8702240">
        <ele>7.0</ele>
        <time>2021-05-18T10:48:44Z</time>
      </trkpt>
      <trkpt lat="41.8435780" lon="-8.8702230">
        <ele>7.0</ele>
        <time>2021-05-18T10:48:45Z</time>
      </trkpt>
      <trkpt lat="41.8435780" lon="-8.8702230">
        <ele>7.0</ele>
        <time>2021-05-18T10:48:46Z</time>
      </trkpt>
      <trkpt lat="41.8435790" lon="-8.8702220">
        <ele>7.0</ele>
        <time>2021-05-18T10:48:47Z</time>
      </trkpt>
      <trkpt lat="41.8435880" lon="-8.8702020">
        <ele>7.0</ele>
        <time>2021-05-18T10:48:48Z</time>
      </trkpt>
      <trkpt lat="41.8435940" lon="-8.8701970">
        <ele>7.0</ele>
        <time>2021-05-18T10:48:49Z</time>
      </trkpt>
      <trkpt lat="41.8436010" lon="-8.8701910">
        <ele>7.0</ele>
        <time>2021-05-18T10:48:50Z</time>
      </trkpt>
      <trkpt lat="41.8436070" lon="-8.8701860">
        <ele>7.0</ele>
        <time>2021-05-18T10:48:51Z</time>
      </trkpt>
      <trkpt lat="41.8436240" lon="-8.8701640">
        <ele>7.0</ele>
        <time>2021-05-18T10:48:52Z</time>
      </trkpt>
      <trkpt lat="41.8436300" lon="-8.8701540">
        <ele>7.0</ele>
        <time>2021-05-18T10:48:53Z</time>
      </trkpt>
      <trkpt lat="41.8436360" lon="-8.8701440">
        <ele>7.0</ele>
        <time>2021-05-18T10:48:54Z</time>
      </trkpt>
      <trkpt lat="41.8436450" lon="-8.8701250">
        <ele>7.0</ele>
        <time>2021-05-18T10:48:55Z</time>
      </trkpt>
      <trkpt lat="41.8436530" lon="-8.8701120">
        <ele>7.0</ele>
        <time>2021-05-18T10:48:56Z</time>
      </trkpt>
      <trkpt lat="41.8436660" lon="-8.8700920">
        <ele>7.0</ele>
        <time>2021-05-18T10:48:57Z</time>
      </trkpt>
      <trkpt lat="41.8436720" lon="-8.8700830">
        <ele>7.0</ele>
        <time>2021-05-18T10:48:58Z</time>
      </trkpt>
      <trkpt lat="41.8436770" lon="-8.8700750">
        <ele>7.0</ele>
        <time>2021-05-18T10:48:59Z</time>
      </trkpt>
      <trkpt lat="41.8436860" lon="-8.8700460">
        <ele>7.0</ele>
        <time>2021-05-18T10:49:00Z</time>
      </trkpt>
      <trkpt lat="41.8436910" lon="-8.8700330">
        <ele>7.0</ele>
        <time>2021-05-18T10:49:01Z</time>
      </trkpt>
      <trkpt lat="41.8436960" lon="-8.8700200">
        <ele>7.0</ele>
        <time>2021-05-18T10:49:02Z</time>
      </trkpt>
      <trkpt lat="41.8437070" lon="-8.8700070">
        <ele>7.0</ele>
        <time>2021-05-18T10:49:03Z</time>
      </trkpt>
      <trkpt lat="41.8437200" lon="-8.8699960">
        <ele>7.0</ele>
        <time>2021-05-18T10:49:04Z</time>
      </trkpt>
      <trkpt lat="41.8437310" lon="-8.8699830">
        <ele>7.0</ele>
        <time>2021-05-18T10:49:05Z</time>
      </trkpt>
      <trkpt lat="41.8437360" lon="-8.8699670">
        <ele>7.0</ele>
        <time>2021-05-18T10:49:06Z</time>
      </trkpt>
      <trkpt lat="41.8437380" lon="-8.8699580">
        <ele>7.0</ele>
        <time>2021-05-18T10:49:07Z</time>
      </trkpt>
      <trkpt lat="41.8437450" lon="-8.8699380">
        <ele>7.0</ele>
        <time>2021-05-18T10:49:08Z</time>
      </trkpt>
      <trkpt lat="41.8437520" lon="-8.8699220">
        <ele>6.9</ele>
        <time>2021-05-18T10:49:09Z</time>
      </trkpt>
      <trkpt lat="41.8437560" lon="-8.8699060">
        <ele>6.9</ele>
        <time>2021-05-18T10:49:10Z</time>
      </trkpt>
      <trkpt lat="41.8437650" lon="-8.8698910">
        <ele>6.9</ele>
        <time>2021-05-18T10:49:11Z</time>
      </trkpt>
      <trkpt lat="41.8437710" lon="-8.8698810">
        <ele>6.9</ele>
        <time>2021-05-18T10:49:12Z</time>
      </trkpt>
      <trkpt lat="41.8437740" lon="-8.8698650">
        <ele>6.9</ele>
        <time>2021-05-18T10:49:13Z</time>
      </trkpt>
      <trkpt lat="41.8437860" lon="-8.8698470">
        <ele>6.9</ele>
        <time>2021-05-18T10:49:14Z</time>
      </trkpt>
      <trkpt lat="41.8438010" lon="-8.8698260">
        <ele>6.9</ele>
        <time>2021-05-18T10:49:15Z</time>
      </trkpt>
      <trkpt lat="41.8438050" lon="-8.8698170">
        <ele>6.9</ele>
        <time>2021-05-18T10:49:16Z</time>
      </trkpt>
      <trkpt lat="41.8438090" lon="-8.8698080">
        <ele>6.9</ele>
        <time>2021-05-18T10:49:17Z</time>
      </trkpt>
      <trkpt lat="41.8438240" lon="-8.8697870">
        <ele>6.9</ele>
        <time>2021-05-18T10:49:18Z</time>
      </trkpt>
      <trkpt lat="41.8438310" lon="-8.8697780">
        <ele>6.9</ele>
        <time>2021-05-18T10:49:19Z</time>
      </trkpt>
      <trkpt lat="41.8438380" lon="-8.8697680">
        <ele>6.9</ele>
        <time>2021-05-18T10:49:20Z</time>
      </trkpt>
      <trkpt lat="41.8438500" lon="-8.8697530">
        <ele>6.9</ele>
        <time>2021-05-18T10:49:21Z</time>
      </trkpt>
      <trkpt lat="41.8438500" lon="-8.8697480">
        <ele>6.9</ele>
        <time>2021-05-18T10:49:22Z</time>
      </trkpt>
      <trkpt lat="41.8438540" lon="-8.8697320">
        <ele>6.8</ele>
        <time>2021-05-18T10:49:23Z</time>
      </trkpt>
      <trkpt lat="41.8438620" lon="-8.8697070">
        <ele>6.8</ele>
        <time>2021-05-18T10:49:24Z</time>
      </trkpt>
      <trkpt lat="41.8438670" lon="-8.8696980">
        <ele>6.8</ele>
        <time>2021-05-18T10:49:25Z</time>
      </trkpt>
      <trkpt lat="41.8438720" lon="-8.8696880">
        <ele>6.8</ele>
        <time>2021-05-18T10:49:26Z</time>
      </trkpt>
      <trkpt lat="41.8438820" lon="-8.8696660">
        <ele>6.8</ele>
        <time>2021-05-18T10:49:27Z</time>
      </trkpt>
      <trkpt lat="41.8438910" lon="-8.8696500">
        <ele>6.8</ele>
        <time>2021-05-18T10:49:28Z</time>
      </trkpt>
      <trkpt lat="41.8439030" lon="-8.8696350">
        <ele>6.8</ele>
        <time>2021-05-18T10:49:29Z</time>
      </trkpt>
      <trkpt lat="41.8439110" lon="-8.8696160">
        <ele>6.8</ele>
        <time>2021-05-18T10:49:30Z</time>
      </trkpt>
      <trkpt lat="41.8439230" lon="-8.8696020">
        <ele>6.8</ele>
        <time>2021-05-18T10:49:31Z</time>
      </trkpt>
      <trkpt lat="41.8439330" lon="-8.8695870">
        <ele>6.8</ele>
        <time>2021-05-18T10:49:32Z</time>
      </trkpt>
      <trkpt lat="41.8439420" lon="-8.8695680">
        <ele>6.8</ele>
        <time>2021-05-18T10:49:33Z</time>
      </trkpt>
      <trkpt lat="41.8439540" lon="-8.8695540">
        <ele>6.8</ele>
        <time>2021-05-18T10:49:34Z</time>
      </trkpt>
      <trkpt lat="41.8439610" lon="-8.8695360">
        <ele>6.7</ele>
        <time>2021-05-18T10:49:35Z</time>
      </trkpt>
      <trkpt lat="41.8439730" lon="-8.8695200">
        <ele>6.7</ele>
        <time>2021-05-18T10:49:36Z</time>
      </trkpt>
      <trkpt lat="41.8439810" lon="-8.8695030">
        <ele>6.7</ele>
        <time>2021-05-18T10:49:37Z</time>
      </trkpt>
      <trkpt lat="41.8439890" lon="-8.8694840">
        <ele>6.7</ele>
        <time>2021-05-18T10:49:38Z</time>
      </trkpt>
      <trkpt lat="41.8439970" lon="-8.8694660">
        <ele>6.7</ele>
        <time>2021-05-18T10:49:39Z</time>
      </trkpt>
      <trkpt lat="41.8440090" lon="-8.8694510">
        <ele>6.7</ele>
        <time>2021-05-18T10:49:40Z</time>
      </trkpt>
      <trkpt lat="41.8440170" lon="-8.8694340">
        <ele>6.7</ele>
        <time>2021-05-18T10:49:41Z</time>
      </trkpt>
      <trkpt lat="41.8440270" lon="-8.8694170">
        <ele>6.7</ele>
        <time>2021-05-18T10:49:42Z</time>
      </trkpt>
      <trkpt lat="41.8440340" lon="-8.8694000">
        <ele>6.7</ele>
        <time>2021-05-18T10:49:43Z</time>
      </trkpt>
      <trkpt lat="41.8440430" lon="-8.8693860">
        <ele>6.7</ele>
        <time>2021-05-18T10:49:44Z</time>
      </trkpt>
      <trkpt lat="41.8440460" lon="-8.8693650">
        <ele>6.7</ele>
        <time>2021-05-18T10:49:45Z</time>
      </trkpt>
      <trkpt lat="41.8440510" lon="-8.8693480">
        <ele>6.7</ele>
        <time>2021-05-18T10:49:46Z</time>
      </trkpt>
      <trkpt lat="41.8440560" lon="-8.8693310">
        <ele>6.7</ele>
        <time>2021-05-18T10:49:47Z</time>
      </trkpt>
      <trkpt lat="41.8440620" lon="-8.8693120">
        <ele>6.7</ele>
        <time>2021-05-18T10:49:48Z</time>
      </trkpt>
      <trkpt lat="41.8440700" lon="-8.8692870">
        <ele>6.7</ele>
        <time>2021-05-18T10:49:49Z</time>
      </trkpt>
      <trkpt lat="41.8440710" lon="-8.8692740">
        <ele>6.7</ele>
        <time>2021-05-18T10:49:50Z</time>
      </trkpt>
      <trkpt lat="41.8440730" lon="-8.8692620">
        <ele>6.7</ele>
        <time>2021-05-18T10:49:51Z</time>
      </trkpt>
      <trkpt lat="41.8440770" lon="-8.8692420">
        <ele>6.7</ele>
        <time>2021-05-18T10:49:52Z</time>
      </trkpt>
      <trkpt lat="41.8440860" lon="-8.8692270">
        <ele>6.7</ele>
        <time>2021-05-18T10:49:53Z</time>
      </trkpt>
      <trkpt lat="41.8440910" lon="-8.8692090">
        <ele>6.7</ele>
        <time>2021-05-18T10:49:54Z</time>
      </trkpt>
      <trkpt lat="41.8440930" lon="-8.8691890">
        <ele>6.7</ele>
        <time>2021-05-18T10:49:55Z</time>
      </trkpt>
      <trkpt lat="41.8440930" lon="-8.8691670">
        <ele>6.7</ele>
        <time>2021-05-18T10:49:56Z</time>
      </trkpt>
      <trkpt lat="41.8441000" lon="-8.8691530">
        <ele>6.7</ele>
        <time>2021-05-18T10:49:57Z</time>
      </trkpt>
      <trkpt lat="41.8441030" lon="-8.8691370">
        <ele>6.7</ele>
        <time>2021-05-18T10:49:58Z</time>
      </trkpt>
      <trkpt lat="41.8441090" lon="-8.8691160">
        <ele>6.7</ele>
        <time>2021-05-18T10:49:59Z</time>
      </trkpt>
      <trkpt lat="41.8441060" lon="-8.8690970">
        <ele>6.7</ele>
        <time>2021-05-18T10:50:00Z</time>
      </trkpt>
      <trkpt lat="41.8441090" lon="-8.8690770">
        <ele>6.7</ele>
        <time>2021-05-18T10:50:01Z</time>
      </trkpt>
      <trkpt lat="41.8441140" lon="-8.8690610">
        <ele>6.7</ele>
        <time>2021-05-18T10:50:02Z</time>
      </trkpt>
      <trkpt lat="41.8441240" lon="-8.8690500">
        <ele>6.7</ele>
        <time>2021-05-18T10:50:03Z</time>
      </trkpt>
      <trkpt lat="41.8441280" lon="-8.8690370">
        <ele>6.7</ele>
        <time>2021-05-18T10:50:04Z</time>
      </trkpt>
      <trkpt lat="41.8441270" lon="-8.8690190">
        <ele>6.6</ele>
        <time>2021-05-18T10:50:05Z</time>
      </trkpt>
      <trkpt lat="41.8441320" lon="-8.8690010">
        <ele>6.6</ele>
        <time>2021-05-18T10:50:06Z</time>
      </trkpt>
      <trkpt lat="41.8441290" lon="-8.8689890">
        <ele>6.6</ele>
        <time>2021-05-18T10:50:07Z</time>
      </trkpt>
      <trkpt lat="41.8441300" lon="-8.8689810">
        <ele>6.6</ele>
        <time>2021-05-18T10:50:08Z</time>
      </trkpt>
      <trkpt lat="41.8441300" lon="-8.8689670">
        <ele>6.6</ele>
        <time>2021-05-18T10:50:09Z</time>
      </trkpt>
      <trkpt lat="41.8441330" lon="-8.8689550">
        <ele>6.6</ele>
        <time>2021-05-18T10:50:10Z</time>
      </trkpt>
      <trkpt lat="41.8441360" lon="-8.8689440">
        <ele>6.6</ele>
        <time>2021-05-18T10:50:11Z</time>
      </trkpt>
      <trkpt lat="41.8441440" lon="-8.8689170">
        <ele>6.6</ele>
        <time>2021-05-18T10:50:12Z</time>
      </trkpt>
      <trkpt lat="41.8441480" lon="-8.8689090">
        <ele>6.6</ele>
        <time>2021-05-18T10:50:13Z</time>
      </trkpt>
      <trkpt lat="41.8441510" lon="-8.8689000">
        <ele>6.6</ele>
        <time>2021-05-18T10:50:14Z</time>
      </trkpt>
      <trkpt lat="41.8441560" lon="-8.8688780">
        <ele>6.6</ele>
        <time>2021-05-18T10:50:15Z</time>
      </trkpt>
      <trkpt lat="41.8441570" lon="-8.8688650">
        <ele>6.6</ele>
        <time>2021-05-18T10:50:16Z</time>
      </trkpt>
      <trkpt lat="41.8441590" lon="-8.8688500">
        <ele>6.6</ele>
        <time>2021-05-18T10:50:17Z</time>
      </trkpt>
      <trkpt lat="41.8441620" lon="-8.8688350">
        <ele>6.6</ele>
        <time>2021-05-18T10:50:18Z</time>
      </trkpt>
      <trkpt lat="41.8441610" lon="-8.8688230">
        <ele>6.6</ele>
        <time>2021-05-18T10:50:19Z</time>
      </trkpt>
      <trkpt lat="41.8441670" lon="-8.8687980">
        <ele>6.6</ele>
        <time>2021-05-18T10:50:20Z</time>
      </trkpt>
      <trkpt lat="41.8441710" lon="-8.8687870">
        <ele>6.6</ele>
        <time>2021-05-18T10:50:21Z</time>
      </trkpt>
      <trkpt lat="41.8441750" lon="-8.8687770">
        <ele>6.6</ele>
        <time>2021-05-18T10:50:22Z</time>
      </trkpt>
      <trkpt lat="41.8441850" lon="-8.8687620">
        <ele>6.6</ele>
        <time>2021-05-18T10:50:23Z</time>
      </trkpt>
      <trkpt lat="41.8441840" lon="-8.8687490">
        <ele>6.6</ele>
        <time>2021-05-18T10:50:24Z</time>
      </trkpt>
      <trkpt lat="41.8441800" lon="-8.8687400">
        <ele>6.6</ele>
        <time>2021-05-18T10:50:25Z</time>
      </trkpt>
      <trkpt lat="41.8441880" lon="-8.8687250">
        <ele>6.6</ele>
        <time>2021-05-18T10:50:26Z</time>
      </trkpt>
      <trkpt lat="41.8441930" lon="-8.8687040">
        <ele>6.6</ele>
        <time>2021-05-18T10:50:27Z</time>
      </trkpt>
      <trkpt lat="41.8441930" lon="-8.8686820">
        <ele>6.6</ele>
        <time>2021-05-18T10:50:28Z</time>
      </trkpt>
      <trkpt lat="41.8442000" lon="-8.8686680">
        <ele>6.6</ele>
        <time>2021-05-18T10:50:29Z</time>
      </trkpt>
      <trkpt lat="41.8441960" lon="-8.8686540">
        <ele>6.5</ele>
        <time>2021-05-18T10:50:30Z</time>
      </trkpt>
      <trkpt lat="41.8441990" lon="-8.8686370">
        <ele>6.5</ele>
        <time>2021-05-18T10:50:31Z</time>
      </trkpt>
      <trkpt lat="41.8441990" lon="-8.8686210">
        <ele>6.5</ele>
        <time>2021-05-18T10:50:32Z</time>
      </trkpt>
      <trkpt lat="41.8442020" lon="-8.8686110">
        <ele>6.5</ele>
        <time>2021-05-18T10:50:33Z</time>
      </trkpt>
      <trkpt lat="41.8442060" lon="-8.8686000">
        <ele>6.5</ele>
        <time>2021-05-18T10:50:34Z</time>
      </trkpt>
      <trkpt lat="41.8442110" lon="-8.8685840">
        <ele>6.5</ele>
        <time>2021-05-18T10:50:35Z</time>
      </trkpt>
      <trkpt lat="41.8442190" lon="-8.8685670">
        <ele>6.5</ele>
        <time>2021-05-18T10:50:36Z</time>
      </trkpt>
      <trkpt lat="41.8442230" lon="-8.8685470">
        <ele>6.5</ele>
        <time>2021-05-18T10:50:37Z</time>
      </trkpt>
      <trkpt lat="41.8442330" lon="-8.8685290">
        <ele>6.5</ele>
        <time>2021-05-18T10:50:38Z</time>
      </trkpt>
      <trkpt lat="41.8442380" lon="-8.8685150">
        <ele>6.5</ele>
        <time>2021-05-18T10:50:39Z</time>
      </trkpt>
      <trkpt lat="41.8442390" lon="-8.8685030">
        <ele>6.5</ele>
        <time>2021-05-18T10:50:40Z</time>
      </trkpt>
      <trkpt lat="41.8442430" lon="-8.8684930">
        <ele>6.5</ele>
        <time>2021-05-18T10:50:41Z</time>
      </trkpt>
      <trkpt lat="41.8442470" lon="-8.8684710">
        <ele>6.4</ele>
        <time>2021-05-18T10:50:42Z</time>
      </trkpt>
      <trkpt lat="41.8442550" lon="-8.8684540">
        <ele>6.4</ele>
        <time>2021-05-18T10:50:43Z</time>
      </trkpt>
      <trkpt lat="41.8442640" lon="-8.8684390">
        <ele>6.4</ele>
        <time>2021-05-18T10:50:44Z</time>
      </trkpt>
      <trkpt lat="41.8442710" lon="-8.8684250">
        <ele>6.4</ele>
        <time>2021-05-18T10:50:45Z</time>
      </trkpt>
      <trkpt lat="41.8442770" lon="-8.8684050">
        <ele>6.4</ele>
        <time>2021-05-18T10:50:46Z</time>
      </trkpt>
      <trkpt lat="41.8442800" lon="-8.8683960">
        <ele>6.4</ele>
        <time>2021-05-18T10:50:47Z</time>
      </trkpt>
      <trkpt lat="41.8442870" lon="-8.8683780">
        <ele>6.4</ele>
        <time>2021-05-18T10:50:48Z</time>
      </trkpt>
      <trkpt lat="41.8442960" lon="-8.8683660">
        <ele>6.4</ele>
        <time>2021-05-18T10:50:49Z</time>
      </trkpt>
      <trkpt lat="41.8443080" lon="-8.8683260">
        <ele>6.3</ele>
        <time>2021-05-18T10:50:50Z</time>
      </trkpt>
      <trkpt lat="41.8443120" lon="-8.8683150">
        <ele>6.3</ele>
        <time>2021-05-18T10:50:51Z</time>
      </trkpt>
      <trkpt lat="41.8443170" lon="-8.8682940">
        <ele>6.3</ele>
        <time>2021-05-18T10:50:52Z</time>
      </trkpt>
      <trkpt lat="41.8443280" lon="-8.8682770">
        <ele>6.3</ele>
        <time>2021-05-18T10:50:53Z</time>
      </trkpt>
      <trkpt lat="41.8443420" lon="-8.8682640">
        <ele>6.3</ele>
        <time>2021-05-18T10:50:54Z</time>
      </trkpt>
      <trkpt lat="41.8443520" lon="-8.8682470">
        <ele>6.3</ele>
        <time>2021-05-18T10:50:55Z</time>
      </trkpt>
      <trkpt lat="41.8443650" lon="-8.8682360">
        <ele>6.3</ele>
        <time>2021-05-18T10:50:56Z</time>
      </trkpt>
      <trkpt lat="41.8443750" lon="-8.8682200">
        <ele>6.3</ele>
        <time>2021-05-18T10:50:57Z</time>
      </trkpt>
      <trkpt lat="41.8443820" lon="-8.8682030">
        <ele>6.3</ele>
        <time>2021-05-18T10:50:58Z</time>
      </trkpt>
      <trkpt lat="41.8443950" lon="-8.8681890">
        <ele>6.3</ele>
        <time>2021-05-18T10:50:59Z</time>
      </trkpt>
      <trkpt lat="41.8443990" lon="-8.8681650">
        <ele>6.3</ele>
        <time>2021-05-18T10:51:00Z</time>
      </trkpt>
      <trkpt lat="41.8444060" lon="-8.8681480">
        <ele>6.3</ele>
        <time>2021-05-18T10:51:01Z</time>
      </trkpt>
      <trkpt lat="41.8444140" lon="-8.8681310">
        <ele>6.2</ele>
        <time>2021-05-18T10:51:02Z</time>
      </trkpt>
      <trkpt lat="41.8444230" lon="-8.8681150">
        <ele>6.2</ele>
        <time>2021-05-18T10:51:03Z</time>
      </trkpt>
      <trkpt lat="41.8444320" lon="-8.8680990">
        <ele>6.2</ele>
        <time>2021-05-18T10:51:04Z</time>
      </trkpt>
      <trkpt lat="41.8444420" lon="-8.8680840">
        <ele>6.2</ele>
        <time>2021-05-18T10:51:05Z</time>
      </trkpt>
      <trkpt lat="41.8444530" lon="-8.8680700">
        <ele>6.2</ele>
        <time>2021-05-18T10:51:06Z</time>
      </trkpt>
      <trkpt lat="41.8444660" lon="-8.8680570">
        <ele>6.2</ele>
        <time>2021-05-18T10:51:07Z</time>
      </trkpt>
      <trkpt lat="41.8444750" lon="-8.8680420">
        <ele>6.2</ele>
        <time>2021-05-18T10:51:08Z</time>
      </trkpt>
      <trkpt lat="41.8444870" lon="-8.8680270">
        <ele>6.2</ele>
        <time>2021-05-18T10:51:09Z</time>
      </trkpt>
      <trkpt lat="41.8444990" lon="-8.8680150">
        <ele>6.2</ele>
        <time>2021-05-18T10:51:10Z</time>
      </trkpt>
      <trkpt lat="41.8445110" lon="-8.8680020">
        <ele>6.2</ele>
        <time>2021-05-18T10:51:11Z</time>
      </trkpt>
      <trkpt lat="41.8445190" lon="-8.8679860">
        <ele>6.2</ele>
        <time>2021-05-18T10:51:12Z</time>
      </trkpt>
      <trkpt lat="41.8445290" lon="-8.8679710">
        <ele>6.2</ele>
        <time>2021-05-18T10:51:13Z</time>
      </trkpt>
      <trkpt lat="41.8445390" lon="-8.8679590">
        <ele>6.2</ele>
        <time>2021-05-18T10:51:14Z</time>
      </trkpt>
      <trkpt lat="41.8445490" lon="-8.8679420">
        <ele>6.3</ele>
        <time>2021-05-18T10:51:15Z</time>
      </trkpt>
      <trkpt lat="41.8445610" lon="-8.8679310">
        <ele>6.3</ele>
        <time>2021-05-18T10:51:16Z</time>
      </trkpt>
      <trkpt lat="41.8445720" lon="-8.8679160">
        <ele>6.3</ele>
        <time>2021-05-18T10:51:17Z</time>
      </trkpt>
      <trkpt lat="41.8445800" lon="-8.8678990">
        <ele>6.3</ele>
        <time>2021-05-18T10:51:18Z</time>
      </trkpt>
      <trkpt lat="41.8445920" lon="-8.8678910">
        <ele>6.3</ele>
        <time>2021-05-18T10:51:19Z</time>
      </trkpt>
      <trkpt lat="41.8446090" lon="-8.8678850">
        <ele>6.3</ele>
        <time>2021-05-18T10:51:20Z</time>
      </trkpt>
      <trkpt lat="41.8446230" lon="-8.8678760">
        <ele>6.3</ele>
        <time>2021-05-18T10:51:21Z</time>
      </trkpt>
      <trkpt lat="41.8446350" lon="-8.8678630">
        <ele>6.3</ele>
        <time>2021-05-18T10:51:22Z</time>
      </trkpt>
      <trkpt lat="41.8446490" lon="-8.8678540">
        <ele>6.3</ele>
        <time>2021-05-18T10:51:23Z</time>
      </trkpt>
      <trkpt lat="41.8446580" lon="-8.8678390">
        <ele>6.3</ele>
        <time>2021-05-18T10:51:24Z</time>
      </trkpt>
      <trkpt lat="41.8446690" lon="-8.8678260">
        <ele>6.3</ele>
        <time>2021-05-18T10:51:25Z</time>
      </trkpt>
      <trkpt lat="41.8446820" lon="-8.8678190">
        <ele>6.3</ele>
        <time>2021-05-18T10:51:26Z</time>
      </trkpt>
      <trkpt lat="41.8446900" lon="-8.8678010">
        <ele>6.3</ele>
        <time>2021-05-18T10:51:27Z</time>
      </trkpt>
      <trkpt lat="41.8447070" lon="-8.8678010">
        <ele>6.4</ele>
        <time>2021-05-18T10:51:28Z</time>
      </trkpt>
      <trkpt lat="41.8447170" lon="-8.8677860">
        <ele>6.4</ele>
        <time>2021-05-18T10:51:29Z</time>
      </trkpt>
      <trkpt lat="41.8447270" lon="-8.8677720">
        <ele>6.4</ele>
        <time>2021-05-18T10:51:30Z</time>
      </trkpt>
      <trkpt lat="41.8447380" lon="-8.8677600">
        <ele>6.4</ele>
        <time>2021-05-18T10:51:31Z</time>
      </trkpt>
      <trkpt lat="41.8447480" lon="-8.8677450">
        <ele>6.4</ele>
        <time>2021-05-18T10:51:32Z</time>
      </trkpt>
      <trkpt lat="41.8447620" lon="-8.8677360">
        <ele>6.4</ele>
        <time>2021-05-18T10:51:33Z</time>
      </trkpt>
      <trkpt lat="41.8447750" lon="-8.8677260">
        <ele>6.4</ele>
        <time>2021-05-18T10:51:34Z</time>
      </trkpt>
      <trkpt lat="41.8447870" lon="-8.8677190">
        <ele>6.4</ele>
        <time>2021-05-18T10:51:35Z</time>
      </trkpt>
      <trkpt lat="41.8447990" lon="-8.8677070">
        <ele>6.4</ele>
        <time>2021-05-18T10:51:36Z</time>
      </trkpt>
      <trkpt lat="41.8448090" lon="-8.8676920">
        <ele>6.4</ele>
        <time>2021-05-18T10:51:37Z</time>
      </trkpt>
      <trkpt lat="41.8448250" lon="-8.8676890">
        <ele>6.5</ele>
        <time>2021-05-18T10:51:38Z</time>
      </trkpt>
      <trkpt lat="41.8448340" lon="-8.8676760">
        <ele>6.5</ele>
        <time>2021-05-18T10:51:39Z</time>
      </trkpt>
      <trkpt lat="41.8448440" lon="-8.8676660">
        <ele>6.5</ele>
        <time>2021-05-18T10:51:40Z</time>
      </trkpt>
      <trkpt lat="41.8448540" lon="-8.8676490">
        <ele>6.5</ele>
        <time>2021-05-18T10:51:41Z</time>
      </trkpt>
      <trkpt lat="41.8448690" lon="-8.8676420">
        <ele>6.5</ele>
        <time>2021-05-18T10:51:42Z</time>
      </trkpt>
      <trkpt lat="41.8448810" lon="-8.8676300">
        <ele>6.5</ele>
        <time>2021-05-18T10:51:43Z</time>
      </trkpt>
      <trkpt lat="41.8448990" lon="-8.8676120">
        <ele>6.5</ele>
        <time>2021-05-18T10:51:44Z</time>
      </trkpt>
      <trkpt lat="41.8449070" lon="-8.8676070">
        <ele>6.5</ele>
        <time>2021-05-18T10:51:45Z</time>
      </trkpt>
      <trkpt lat="41.8449150" lon="-8.8676010">
        <ele>6.5</ele>
        <time>2021-05-18T10:51:46Z</time>
      </trkpt>
      <trkpt lat="41.8449260" lon="-8.8675870">
        <ele>6.5</ele>
        <time>2021-05-18T10:51:47Z</time>
      </trkpt>
      <trkpt lat="41.8449340" lon="-8.8675720">
        <ele>6.5</ele>
        <time>2021-05-18T10:51:48Z</time>
      </trkpt>
      <trkpt lat="41.8449460" lon="-8.8675650">
        <ele>6.5</ele>
        <time>2021-05-18T10:51:49Z</time>
      </trkpt>
      <trkpt lat="41.8449570" lon="-8.8675530">
        <ele>6.5</ele>
        <time>2021-05-18T10:51:50Z</time>
      </trkpt>
      <trkpt lat="41.8449700" lon="-8.8675430">
        <ele>6.5</ele>
        <time>2021-05-18T10:51:51Z</time>
      </trkpt>
      <trkpt lat="41.8449800" lon="-8.8675330">
        <ele>6.5</ele>
        <time>2021-05-18T10:51:52Z</time>
      </trkpt>
      <trkpt lat="41.8449930" lon="-8.8675220">
        <ele>6.5</ele>
        <time>2021-05-18T10:51:53Z</time>
      </trkpt>
      <trkpt lat="41.8450060" lon="-8.8675110">
        <ele>6.5</ele>
        <time>2021-05-18T10:51:54Z</time>
      </trkpt>
      <trkpt lat="41.8450170" lon="-8.8675010">
        <ele>6.5</ele>
        <time>2021-05-18T10:51:55Z</time>
      </trkpt>
      <trkpt lat="41.8450190" lon="-8.8674920">
        <ele>6.5</ele>
        <time>2021-05-18T10:51:56Z</time>
      </trkpt>
      <trkpt lat="41.8450260" lon="-8.8674870">
        <ele>6.5</ele>
        <time>2021-05-18T10:51:57Z</time>
      </trkpt>
      <trkpt lat="41.8450310" lon="-8.8674850">
        <ele>6.5</ele>
        <time>2021-05-18T10:51:58Z</time>
      </trkpt>
      <trkpt lat="41.8450370" lon="-8.8674830">
        <ele>6.5</ele>
        <time>2021-05-18T10:51:59Z</time>
      </trkpt>
      <trkpt lat="41.8450460" lon="-8.8674820">
        <ele>6.5</ele>
        <time>2021-05-18T10:52:00Z</time>
      </trkpt>
      <trkpt lat="41.8450530" lon="-8.8674880">
        <ele>6.5</ele>
        <time>2021-05-18T10:52:01Z</time>
      </trkpt>
      <trkpt lat="41.8450550" lon="-8.8674940">
        <ele>6.5</ele>
        <time>2021-05-18T10:52:02Z</time>
      </trkpt>
      <trkpt lat="41.8450550" lon="-8.8675010">
        <ele>6.5</ele>
        <time>2021-05-18T10:52:03Z</time>
      </trkpt>
      <trkpt lat="41.8450430" lon="-8.8675060">
        <ele>6.6</ele>
        <time>2021-05-18T10:52:04Z</time>
      </trkpt>
      <trkpt lat="41.8450330" lon="-8.8675070">
        <ele>6.6</ele>
        <time>2021-05-18T10:52:05Z</time>
      </trkpt>
      <trkpt lat="41.8450260" lon="-8.8675090">
        <ele>6.6</ele>
        <time>2021-05-18T10:52:06Z</time>
      </trkpt>
      <trkpt lat="41.8450190" lon="-8.8675100">
        <ele>6.6</ele>
        <time>2021-05-18T10:52:07Z</time>
      </trkpt>
      <trkpt lat="41.8450160" lon="-8.8675110">
        <ele>6.6</ele>
        <time>2021-05-18T10:52:08Z</time>
      </trkpt>
      <trkpt lat="41.8450120" lon="-8.8675120">
        <ele>6.6</ele>
        <time>2021-05-18T10:52:09Z</time>
      </trkpt>
      <trkpt lat="41.8450080" lon="-8.8675130">
        <ele>6.6</ele>
        <time>2021-05-18T10:52:10Z</time>
      </trkpt>
      <trkpt lat="41.8450050" lon="-8.8675140">
        <ele>6.6</ele>
        <time>2021-05-18T10:52:11Z</time>
      </trkpt>
      <trkpt lat="41.8449990" lon="-8.8675150">
        <ele>6.6</ele>
        <time>2021-05-18T10:52:12Z</time>
      </trkpt>
      <trkpt lat="41.8449940" lon="-8.8675160">
        <ele>6.6</ele>
        <time>2021-05-18T10:52:13Z</time>
      </trkpt>
      <trkpt lat="41.8449880" lon="-8.8675160">
        <ele>6.6</ele>
        <time>2021-05-18T10:52:14Z</time>
      </trkpt>
      <trkpt lat="41.8449850" lon="-8.8675170">
        <ele>6.6</ele>
        <time>2021-05-18T10:52:15Z</time>
      </trkpt>
      <trkpt lat="41.8449810" lon="-8.8675190">
        <ele>6.6</ele>
        <time>2021-05-18T10:52:16Z</time>
      </trkpt>
      <trkpt lat="41.8449790" lon="-8.8675210">
        <ele>6.6</ele>
        <time>2021-05-18T10:52:17Z</time>
      </trkpt>
      <trkpt lat="41.8449760" lon="-8.8675190">
        <ele>6.6</ele>
        <time>2021-05-18T10:52:18Z</time>
      </trkpt>
      <trkpt lat="41.8449740" lon="-8.8675220">
        <ele>6.6</ele>
        <time>2021-05-18T10:52:19Z</time>
      </trkpt>
      <trkpt lat="41.8449720" lon="-8.8675210">
        <ele>6.6</ele>
        <time>2021-05-18T10:52:20Z</time>
      </trkpt>
      <trkpt lat="41.8449710" lon="-8.8675220">
        <ele>6.6</ele>
        <time>2021-05-18T10:52:21Z</time>
      </trkpt>
      <trkpt lat="41.8449700" lon="-8.8675220">
        <ele>6.6</ele>
        <time>2021-05-18T10:52:22Z</time>
      </trkpt>
      <trkpt lat="41.8449680" lon="-8.8675210">
        <ele>6.6</ele>
        <time>2021-05-18T10:52:23Z</time>
      </trkpt>
      <trkpt lat="41.8449670" lon="-8.8675210">
        <ele>6.6</ele>
        <time>2021-05-18T10:52:24Z</time>
      </trkpt>
      <trkpt lat="41.8449660" lon="-8.8675200">
        <ele>6.6</ele>
        <time>2021-05-18T10:52:25Z</time>
      </trkpt>
      <trkpt lat="41.8449630" lon="-8.8675200">
        <ele>6.6</ele>
        <time>2021-05-18T10:52:26Z</time>
      </trkpt>
      <trkpt lat="41.8449620" lon="-8.8675210">
        <ele>6.6</ele>
        <time>2021-05-18T10:52:27Z</time>
      </trkpt>
      <trkpt lat="41.8449600" lon="-8.8675210">
        <ele>6.6</ele>
        <time>2021-05-18T10:52:28Z</time>
      </trkpt>
      <trkpt lat="41.8449570" lon="-8.8675220">
        <ele>6.6</ele>
        <time>2021-05-18T10:52:29Z</time>
      </trkpt>
      <trkpt lat="41.8449560" lon="-8.8675230">
        <ele>6.6</ele>
        <time>2021-05-18T10:52:30Z</time>
      </trkpt>
      <trkpt lat="41.8449540" lon="-8.8675230">
        <ele>6.6</ele>
        <time>2021-05-18T10:52:31Z</time>
      </trkpt>
      <trkpt lat="41.8449530" lon="-8.8675230">
        <ele>6.6</ele>
        <time>2021-05-18T10:52:32Z</time>
      </trkpt>
      <trkpt lat="41.8449530" lon="-8.8675250">
        <ele>6.6</ele>
        <time>2021-05-18T10:52:33Z</time>
      </trkpt>
      <trkpt lat="41.8449520" lon="-8.8675250">
        <ele>6.6</ele>
        <time>2021-05-18T10:52:34Z</time>
      </trkpt>
      <trkpt lat="41.8449500" lon="-8.8675230">
        <ele>6.6</ele>
        <time>2021-05-18T10:52:35Z</time>
      </trkpt>
      <trkpt lat="41.8449620" lon="-8.8675200">
        <ele>6.6</ele>
        <time>2021-05-18T10:52:36Z</time>
      </trkpt>
      <trkpt lat="41.8449720" lon="-8.8675090">
        <ele>6.6</ele>
        <time>2021-05-18T10:52:37Z</time>
      </trkpt>
      <trkpt lat="41.8449810" lon="-8.8674990">
        <ele>6.7</ele>
        <time>2021-05-18T10:52:38Z</time>
      </trkpt>
      <trkpt lat="41.8449920" lon="-8.8674890">
        <ele>6.7</ele>
        <time>2021-05-18T10:52:39Z</time>
      </trkpt>
      <trkpt lat="41.8450060" lon="-8.8674710">
        <ele>6.7</ele>
        <time>2021-05-18T10:52:40Z</time>
      </trkpt>
      <trkpt lat="41.8450090" lon="-8.8674530">
        <ele>6.7</ele>
        <time>2021-05-18T10:52:41Z</time>
      </trkpt>
      <trkpt lat="41.8450230" lon="-8.8674490">
        <ele>6.7</ele>
        <time>2021-05-18T10:52:42Z</time>
      </trkpt>
      <trkpt lat="41.8450300" lon="-8.8674430">
        <ele>6.7</ele>
        <time>2021-05-18T10:52:43Z</time>
      </trkpt>
      <trkpt lat="41.8450440" lon="-8.8674310">
        <ele>6.7</ele>
        <time>2021-05-18T10:52:44Z</time>
      </trkpt>
      <trkpt lat="41.8450580" lon="-8.8674230">
        <ele>6.7</ele>
        <time>2021-05-18T10:52:45Z</time>
      </trkpt>
      <trkpt lat="41.8450840" lon="-8.8674010">
        <ele>6.7</ele>
        <time>2021-05-18T10:52:46Z</time>
      </trkpt>
      <trkpt lat="41.8450910" lon="-8.8673920">
        <ele>6.7</ele>
        <time>2021-05-18T10:52:47Z</time>
      </trkpt>
      <trkpt lat="41.8451070" lon="-8.8673760">
        <ele>6.7</ele>
        <time>2021-05-18T10:52:48Z</time>
      </trkpt>
      <trkpt lat="41.8451150" lon="-8.8673700">
        <ele>6.7</ele>
        <time>2021-05-18T10:52:49Z</time>
      </trkpt>
      <trkpt lat="41.8451230" lon="-8.8673630">
        <ele>6.7</ele>
        <time>2021-05-18T10:52:50Z</time>
      </trkpt>
      <trkpt lat="41.8451350" lon="-8.8673540">
        <ele>6.8</ele>
        <time>2021-05-18T10:52:51Z</time>
      </trkpt>
      <trkpt lat="41.8451410" lon="-8.8673480">
        <ele>6.8</ele>
        <time>2021-05-18T10:52:52Z</time>
      </trkpt>
      <trkpt lat="41.8451500" lon="-8.8673320">
        <ele>6.8</ele>
        <time>2021-05-18T10:52:53Z</time>
      </trkpt>
      <trkpt lat="41.8451650" lon="-8.8673180">
        <ele>6.8</ele>
        <time>2021-05-18T10:52:54Z</time>
      </trkpt>
      <trkpt lat="41.8451750" lon="-8.8673090">
        <ele>6.8</ele>
        <time>2021-05-18T10:52:55Z</time>
      </trkpt>
      <trkpt lat="41.8451840" lon="-8.8673000">
        <ele>6.8</ele>
        <time>2021-05-18T10:52:56Z</time>
      </trkpt>
      <trkpt lat="41.8452080" lon="-8.8672790">
        <ele>6.8</ele>
        <time>2021-05-18T10:52:57Z</time>
      </trkpt>
      <trkpt lat="41.8452160" lon="-8.8672710">
        <ele>6.8</ele>
        <time>2021-05-18T10:52:58Z</time>
      </trkpt>
      <trkpt lat="41.8452300" lon="-8.8672590">
        <ele>6.8</ele>
        <time>2021-05-18T10:52:59Z</time>
      </trkpt>
      <trkpt lat="41.8452420" lon="-8.8672410">
        <ele>6.9</ele>
        <time>2021-05-18T10:53:00Z</time>
      </trkpt>
      <trkpt lat="41.8452600" lon="-8.8672360">
        <ele>6.9</ele>
        <time>2021-05-18T10:53:01Z</time>
      </trkpt>
      <trkpt lat="41.8452780" lon="-8.8672300">
        <ele>6.9</ele>
        <time>2021-05-18T10:53:02Z</time>
      </trkpt>
      <trkpt lat="41.8452950" lon="-8.8672200">
        <ele>6.9</ele>
        <time>2021-05-18T10:53:03Z</time>
      </trkpt>
      <trkpt lat="41.8453070" lon="-8.8672080">
        <ele>6.9</ele>
        <time>2021-05-18T10:53:04Z</time>
      </trkpt>
      <trkpt lat="41.8453200" lon="-8.8671920">
        <ele>6.9</ele>
        <time>2021-05-18T10:53:05Z</time>
      </trkpt>
      <trkpt lat="41.8453380" lon="-8.8671840">
        <ele>6.9</ele>
        <time>2021-05-18T10:53:06Z</time>
      </trkpt>
      <trkpt lat="41.8453470" lon="-8.8671660">
        <ele>6.9</ele>
        <time>2021-05-18T10:53:07Z</time>
      </trkpt>
      <trkpt lat="41.8453590" lon="-8.8671530">
        <ele>7.0</ele>
        <time>2021-05-18T10:53:08Z</time>
      </trkpt>
      <trkpt lat="41.8453700" lon="-8.8671360">
        <ele>7.0</ele>
        <time>2021-05-18T10:53:09Z</time>
      </trkpt>
      <trkpt lat="41.8453880" lon="-8.8671320">
        <ele>7.0</ele>
        <time>2021-05-18T10:53:10Z</time>
      </trkpt>
      <trkpt lat="41.8454020" lon="-8.8671210">
        <ele>7.0</ele>
        <time>2021-05-18T10:53:11Z</time>
      </trkpt>
      <trkpt lat="41.8454150" lon="-8.8671050">
        <ele>7.0</ele>
        <time>2021-05-18T10:53:12Z</time>
      </trkpt>
      <trkpt lat="41.8454310" lon="-8.8670950">
        <ele>7.0</ele>
        <time>2021-05-18T10:53:13Z</time>
      </trkpt>
      <trkpt lat="41.8454460" lon="-8.8670910">
        <ele>6.9</ele>
        <time>2021-05-18T10:53:14Z</time>
      </trkpt>
      <trkpt lat="41.8454600" lon="-8.8670810">
        <ele>6.9</ele>
        <time>2021-05-18T10:53:15Z</time>
      </trkpt>
      <trkpt lat="41.8454730" lon="-8.8670690">
        <ele>6.9</ele>
        <time>2021-05-18T10:53:16Z</time>
      </trkpt>
      <trkpt lat="41.8454880" lon="-8.8670580">
        <ele>6.9</ele>
        <time>2021-05-18T10:53:17Z</time>
      </trkpt>
      <trkpt lat="41.8455010" lon="-8.8670460">
        <ele>6.9</ele>
        <time>2021-05-18T10:53:18Z</time>
      </trkpt>
      <trkpt lat="41.8455130" lon="-8.8670340">
        <ele>6.9</ele>
        <time>2021-05-18T10:53:19Z</time>
      </trkpt>
      <trkpt lat="41.8455250" lon="-8.8670220">
        <ele>6.9</ele>
        <time>2021-05-18T10:53:20Z</time>
      </trkpt>
      <trkpt lat="41.8455400" lon="-8.8670120">
        <ele>6.9</ele>
        <time>2021-05-18T10:53:21Z</time>
      </trkpt>
      <trkpt lat="41.8455510" lon="-8.8669970">
        <ele>6.8</ele>
        <time>2021-05-18T10:53:22Z</time>
      </trkpt>
      <trkpt lat="41.8455660" lon="-8.8669910">
        <ele>6.8</ele>
        <time>2021-05-18T10:53:23Z</time>
      </trkpt>
      <trkpt lat="41.8455760" lon="-8.8669790">
        <ele>6.8</ele>
        <time>2021-05-18T10:53:24Z</time>
      </trkpt>
      <trkpt lat="41.8455870" lon="-8.8669660">
        <ele>6.8</ele>
        <time>2021-05-18T10:53:25Z</time>
      </trkpt>
      <trkpt lat="41.8455990" lon="-8.8669540">
        <ele>6.8</ele>
        <time>2021-05-18T10:53:26Z</time>
      </trkpt>
      <trkpt lat="41.8456140" lon="-8.8669460">
        <ele>6.8</ele>
        <time>2021-05-18T10:53:27Z</time>
      </trkpt>
      <trkpt lat="41.8456240" lon="-8.8669300">
        <ele>6.8</ele>
        <time>2021-05-18T10:53:28Z</time>
      </trkpt>
      <trkpt lat="41.8456350" lon="-8.8669170">
        <ele>6.8</ele>
        <time>2021-05-18T10:53:29Z</time>
      </trkpt>
      <trkpt lat="41.8456480" lon="-8.8669070">
        <ele>6.8</ele>
        <time>2021-05-18T10:53:30Z</time>
      </trkpt>
      <trkpt lat="41.8456600" lon="-8.8668960">
        <ele>6.7</ele>
        <time>2021-05-18T10:53:31Z</time>
      </trkpt>
      <trkpt lat="41.8456740" lon="-8.8668880">
        <ele>6.7</ele>
        <time>2021-05-18T10:53:32Z</time>
      </trkpt>
      <trkpt lat="41.8456860" lon="-8.8668780">
        <ele>6.7</ele>
        <time>2021-05-18T10:53:33Z</time>
      </trkpt>
      <trkpt lat="41.8456980" lon="-8.8668680">
        <ele>6.7</ele>
        <time>2021-05-18T10:53:34Z</time>
      </trkpt>
      <trkpt lat="41.8457110" lon="-8.8668590">
        <ele>6.7</ele>
        <time>2021-05-18T10:53:35Z</time>
      </trkpt>
      <trkpt lat="41.8457250" lon="-8.8668530">
        <ele>6.7</ele>
        <time>2021-05-18T10:53:36Z</time>
      </trkpt>
      <trkpt lat="41.8457360" lon="-8.8668390">
        <ele>6.7</ele>
        <time>2021-05-18T10:53:37Z</time>
      </trkpt>
      <trkpt lat="41.8457520" lon="-8.8668340">
        <ele>6.7</ele>
        <time>2021-05-18T10:53:38Z</time>
      </trkpt>
      <trkpt lat="41.8457640" lon="-8.8668260">
        <ele>6.7</ele>
        <time>2021-05-18T10:53:39Z</time>
      </trkpt>
      <trkpt lat="41.8457780" lon="-8.8668230">
        <ele>6.6</ele>
        <time>2021-05-18T10:53:40Z</time>
      </trkpt>
      <trkpt lat="41.8457920" lon="-8.8668150">
        <ele>6.6</ele>
        <time>2021-05-18T10:53:41Z</time>
      </trkpt>
      <trkpt lat="41.8458050" lon="-8.8668050">
        <ele>6.6</ele>
        <time>2021-05-18T10:53:42Z</time>
      </trkpt>
      <trkpt lat="41.8458190" lon="-8.8667990">
        <ele>6.6</ele>
        <time>2021-05-18T10:53:43Z</time>
      </trkpt>
      <trkpt lat="41.8458320" lon="-8.8667920">
        <ele>6.6</ele>
        <time>2021-05-18T10:53:44Z</time>
      </trkpt>
      <trkpt lat="41.8458510" lon="-8.8667740">
        <ele>6.6</ele>
        <time>2021-05-18T10:53:45Z</time>
      </trkpt>
      <trkpt lat="41.8458590" lon="-8.8667710">
        <ele>6.6</ele>
        <time>2021-05-18T10:53:46Z</time>
      </trkpt>
      <trkpt lat="41.8458680" lon="-8.8667680">
        <ele>6.6</ele>
        <time>2021-05-18T10:53:47Z</time>
      </trkpt>
      <trkpt lat="41.8458890" lon="-8.8667620">
        <ele>6.5</ele>
        <time>2021-05-18T10:53:48Z</time>
      </trkpt>
      <trkpt lat="41.8458980" lon="-8.8667580">
        <ele>6.5</ele>
        <time>2021-05-18T10:53:49Z</time>
      </trkpt>
      <trkpt lat="41.8459060" lon="-8.8667530">
        <ele>6.5</ele>
        <time>2021-05-18T10:53:50Z</time>
      </trkpt>
      <trkpt lat="41.8459250" lon="-8.8667400">
        <ele>6.5</ele>
        <time>2021-05-18T10:53:51Z</time>
      </trkpt>
      <trkpt lat="41.8459340" lon="-8.8667370">
        <ele>6.5</ele>
        <time>2021-05-18T10:53:52Z</time>
      </trkpt>
      <trkpt lat="41.8459430" lon="-8.8667330">
        <ele>6.5</ele>
        <time>2021-05-18T10:53:53Z</time>
      </trkpt>
      <trkpt lat="41.8459560" lon="-8.8667220">
        <ele>6.5</ele>
        <time>2021-05-18T10:53:54Z</time>
      </trkpt>
      <trkpt lat="41.8459690" lon="-8.8667150">
        <ele>6.5</ele>
        <time>2021-05-18T10:53:55Z</time>
      </trkpt>
      <trkpt lat="41.8459850" lon="-8.8667130">
        <ele>6.4</ele>
        <time>2021-05-18T10:53:56Z</time>
      </trkpt>
      <trkpt lat="41.8459990" lon="-8.8667060">
        <ele>6.4</ele>
        <time>2021-05-18T10:53:57Z</time>
      </trkpt>
      <trkpt lat="41.8460190" lon="-8.8666900">
        <ele>6.4</ele>
        <time>2021-05-18T10:53:58Z</time>
      </trkpt>
      <trkpt lat="41.8460280" lon="-8.8666850">
        <ele>6.4</ele>
        <time>2021-05-18T10:53:59Z</time>
      </trkpt>
      <trkpt lat="41.8460360" lon="-8.8666810">
        <ele>6.4</ele>
        <time>2021-05-18T10:54:00Z</time>
      </trkpt>
      <trkpt lat="41.8460490" lon="-8.8666780">
        <ele>6.4</ele>
        <time>2021-05-18T10:54:01Z</time>
      </trkpt>
      <trkpt lat="41.8460610" lon="-8.8666700">
        <ele>6.3</ele>
        <time>2021-05-18T10:54:02Z</time>
      </trkpt>
      <trkpt lat="41.8460820" lon="-8.8666630">
        <ele>6.3</ele>
        <time>2021-05-18T10:54:03Z</time>
      </trkpt>
      <trkpt lat="41.8460900" lon="-8.8666600">
        <ele>6.3</ele>
        <time>2021-05-18T10:54:04Z</time>
      </trkpt>
      <trkpt lat="41.8460970" lon="-8.8666560">
        <ele>6.3</ele>
        <time>2021-05-18T10:54:05Z</time>
      </trkpt>
      <trkpt lat="41.8461170" lon="-8.8666470">
        <ele>6.3</ele>
        <time>2021-05-18T10:54:06Z</time>
      </trkpt>
      <trkpt lat="41.8461260" lon="-8.8666410">
        <ele>6.3</ele>
        <time>2021-05-18T10:54:07Z</time>
      </trkpt>
      <trkpt lat="41.8461340" lon="-8.8666360">
        <ele>6.3</ele>
        <time>2021-05-18T10:54:08Z</time>
      </trkpt>
      <trkpt lat="41.8461550" lon="-8.8666300">
        <ele>6.3</ele>
        <time>2021-05-18T10:54:09Z</time>
      </trkpt>
      <trkpt lat="41.8461610" lon="-8.8666230">
        <ele>6.3</ele>
        <time>2021-05-18T10:54:10Z</time>
      </trkpt>
      <trkpt lat="41.8461680" lon="-8.8666160">
        <ele>6.3</ele>
        <time>2021-05-18T10:54:11Z</time>
      </trkpt>
      <trkpt lat="41.8461810" lon="-8.8666060">
        <ele>6.2</ele>
        <time>2021-05-18T10:54:12Z</time>
      </trkpt>
      <trkpt lat="41.8461940" lon="-8.8666060">
        <ele>6.2</ele>
        <time>2021-05-18T10:54:13Z</time>
      </trkpt>
      <trkpt lat="41.8462090" lon="-8.8665990">
        <ele>6.2</ele>
        <time>2021-05-18T10:54:14Z</time>
      </trkpt>
      <trkpt lat="41.8462190" lon="-8.8665870">
        <ele>6.2</ele>
        <time>2021-05-18T10:54:15Z</time>
      </trkpt>
      <trkpt lat="41.8462310" lon="-8.8665760">
        <ele>6.2</ele>
        <time>2021-05-18T10:54:16Z</time>
      </trkpt>
      <trkpt lat="41.8462460" lon="-8.8665790">
        <ele>6.2</ele>
        <time>2021-05-18T10:54:17Z</time>
      </trkpt>
      <trkpt lat="41.8462650" lon="-8.8665650">
        <ele>6.2</ele>
        <time>2021-05-18T10:54:18Z</time>
      </trkpt>
      <trkpt lat="41.8462750" lon="-8.8665640">
        <ele>6.2</ele>
        <time>2021-05-18T10:54:19Z</time>
      </trkpt>
      <trkpt lat="41.8462840" lon="-8.8665630">
        <ele>6.2</ele>
        <time>2021-05-18T10:54:20Z</time>
      </trkpt>
      <trkpt lat="41.8463060" lon="-8.8665540">
        <ele>6.2</ele>
        <time>2021-05-18T10:54:21Z</time>
      </trkpt>
      <trkpt lat="41.8463140" lon="-8.8665500">
        <ele>6.2</ele>
        <time>2021-05-18T10:54:22Z</time>
      </trkpt>
      <trkpt lat="41.8463230" lon="-8.8665470">
        <ele>6.2</ele>
        <time>2021-05-18T10:54:23Z</time>
      </trkpt>
      <trkpt lat="41.8463360" lon="-8.8665430">
        <ele>6.2</ele>
        <time>2021-05-18T10:54:24Z</time>
      </trkpt>
      <trkpt lat="41.8463510" lon="-8.8665420">
        <ele>6.3</ele>
        <time>2021-05-18T10:54:25Z</time>
      </trkpt>
      <trkpt lat="41.8463720" lon="-8.8665340">
        <ele>6.3</ele>
        <time>2021-05-18T10:54:26Z</time>
      </trkpt>
      <trkpt lat="41.8463810" lon="-8.8665310">
        <ele>6.3</ele>
        <time>2021-05-18T10:54:27Z</time>
      </trkpt>
      <trkpt lat="41.8463900" lon="-8.8665290">
        <ele>6.3</ele>
        <time>2021-05-18T10:54:28Z</time>
      </trkpt>
      <trkpt lat="41.8464110" lon="-8.8665180">
        <ele>6.3</ele>
        <time>2021-05-18T10:54:29Z</time>
      </trkpt>
      <trkpt lat="41.8464190" lon="-8.8665150">
        <ele>6.3</ele>
        <time>2021-05-18T10:54:30Z</time>
      </trkpt>
      <trkpt lat="41.8464280" lon="-8.8665120">
        <ele>6.3</ele>
        <time>2021-05-18T10:54:31Z</time>
      </trkpt>
      <trkpt lat="41.8464480" lon="-8.8665020">
        <ele>6.3</ele>
        <time>2021-05-18T10:54:32Z</time>
      </trkpt>
      <trkpt lat="41.8464560" lon="-8.8664970">
        <ele>6.3</ele>
        <time>2021-05-18T10:54:33Z</time>
      </trkpt>
      <trkpt lat="41.8464640" lon="-8.8664930">
        <ele>6.3</ele>
        <time>2021-05-18T10:54:34Z</time>
      </trkpt>
      <trkpt lat="41.8464840" lon="-8.8664810">
        <ele>6.4</ele>
        <time>2021-05-18T10:54:35Z</time>
      </trkpt>
      <trkpt lat="41.8464920" lon="-8.8664780">
        <ele>6.4</ele>
        <time>2021-05-18T10:54:36Z</time>
      </trkpt>
      <trkpt lat="41.8465010" lon="-8.8664740">
        <ele>6.4</ele>
        <time>2021-05-18T10:54:37Z</time>
      </trkpt>
      <trkpt lat="41.8465130" lon="-8.8664690">
        <ele>6.4</ele>
        <time>2021-05-18T10:54:38Z</time>
      </trkpt>
      <trkpt lat="41.8465260" lon="-8.8664660">
        <ele>6.4</ele>
        <time>2021-05-18T10:54:39Z</time>
      </trkpt>
      <trkpt lat="41.8465360" lon="-8.8664660">
        <ele>6.4</ele>
        <time>2021-05-18T10:54:40Z</time>
      </trkpt>
      <trkpt lat="41.8465560" lon="-8.8664520">
        <ele>6.4</ele>
        <time>2021-05-18T10:54:41Z</time>
      </trkpt>
      <trkpt lat="41.8465640" lon="-8.8664490">
        <ele>6.4</ele>
        <time>2021-05-18T10:54:42Z</time>
      </trkpt>
      <trkpt lat="41.8465730" lon="-8.8664450">
        <ele>6.5</ele>
        <time>2021-05-18T10:54:43Z</time>
      </trkpt>
      <trkpt lat="41.8465860" lon="-8.8664330">
        <ele>6.5</ele>
        <time>2021-05-18T10:54:44Z</time>
      </trkpt>
      <trkpt lat="41.8465990" lon="-8.8664210">
        <ele>6.5</ele>
        <time>2021-05-18T10:54:45Z</time>
      </trkpt>
      <trkpt lat="41.8466140" lon="-8.8664090">
        <ele>6.5</ele>
        <time>2021-05-18T10:54:46Z</time>
      </trkpt>
      <trkpt lat="41.8466280" lon="-8.8663960">
        <ele>6.5</ele>
        <time>2021-05-18T10:54:47Z</time>
      </trkpt>
      <trkpt lat="41.8466360" lon="-8.8663830">
        <ele>6.6</ele>
        <time>2021-05-18T10:54:48Z</time>
      </trkpt>
      <trkpt lat="41.8466460" lon="-8.8663760">
        <ele>6.6</ele>
        <time>2021-05-18T10:54:49Z</time>
      </trkpt>
      <trkpt lat="41.8466510" lon="-8.8663700">
        <ele>6.6</ele>
        <time>2021-05-18T10:54:50Z</time>
      </trkpt>
      <trkpt lat="41.8466530" lon="-8.8663500">
        <ele>6.6</ele>
        <time>2021-05-18T10:54:51Z</time>
      </trkpt>
      <trkpt lat="41.8466590" lon="-8.8663370">
        <ele>6.6</ele>
        <time>2021-05-18T10:54:52Z</time>
      </trkpt>
      <trkpt lat="41.8466660" lon="-8.8663270">
        <ele>6.6</ele>
        <time>2021-05-18T10:54:53Z</time>
      </trkpt>
      <trkpt lat="41.8466740" lon="-8.8663200">
        <ele>6.6</ele>
        <time>2021-05-18T10:54:54Z</time>
      </trkpt>
      <trkpt lat="41.8466820" lon="-8.8663100">
        <ele>6.6</ele>
        <time>2021-05-18T10:54:55Z</time>
      </trkpt>
      <trkpt lat="41.8466890" lon="-8.8662950">
        <ele>6.7</ele>
        <time>2021-05-18T10:54:56Z</time>
      </trkpt>
      <trkpt lat="41.8467030" lon="-8.8662780">
        <ele>6.7</ele>
        <time>2021-05-18T10:54:57Z</time>
      </trkpt>
      <trkpt lat="41.8467100" lon="-8.8662710">
        <ele>7.0</ele>
        <time>2021-05-18T10:54:58Z</time>
      </trkpt>
      <trkpt lat="41.8467180" lon="-8.8662630">
        <ele>7.0</ele>
        <time>2021-05-18T10:54:59Z</time>
      </trkpt>
      <trkpt lat="41.8467400" lon="-8.8662380">
        <ele>7.1</ele>
        <time>2021-05-18T10:55:00Z</time>
      </trkpt>
      <trkpt lat="41.8467450" lon="-8.8662290">
        <ele>7.1</ele>
        <time>2021-05-18T10:55:01Z</time>
      </trkpt>
      <trkpt lat="41.8467580" lon="-8.8661990">
        <ele>7.2</ele>
        <time>2021-05-18T10:55:02Z</time>
      </trkpt>
      <trkpt lat="41.8467650" lon="-8.8661840">
        <ele>7.2</ele>
        <time>2021-05-18T10:55:03Z</time>
      </trkpt>
      <trkpt lat="41.8467730" lon="-8.8661700">
        <ele>7.3</ele>
        <time>2021-05-18T10:55:04Z</time>
      </trkpt>
      <trkpt lat="41.8468000" lon="-8.8661620">
        <ele>7.3</ele>
        <time>2021-05-18T10:55:05Z</time>
      </trkpt>
      <trkpt lat="41.8468100" lon="-8.8661660">
        <ele>7.4</ele>
        <time>2021-05-18T10:55:06Z</time>
      </trkpt>
      <trkpt lat="41.8468410" lon="-8.8661790">
        <ele>7.5</ele>
        <time>2021-05-18T10:55:07Z</time>
      </trkpt>
      <trkpt lat="41.8468470" lon="-8.8661850">
        <ele>7.5</ele>
        <time>2021-05-18T10:55:08Z</time>
      </trkpt>
      <trkpt lat="41.8468580" lon="-8.8661930">
        <ele>7.5</ele>
        <time>2021-05-18T10:55:09Z</time>
      </trkpt>
      <trkpt lat="41.8468720" lon="-8.8661940">
        <ele>7.5</ele>
        <time>2021-05-18T10:55:10Z</time>
      </trkpt>
      <trkpt lat="41.8468800" lon="-8.8661890">
        <ele>7.6</ele>
        <time>2021-05-18T10:55:11Z</time>
      </trkpt>
      <trkpt lat="41.8469060" lon="-8.8661650">
        <ele>7.6</ele>
        <time>2021-05-18T10:55:12Z</time>
      </trkpt>
      <trkpt lat="41.8469130" lon="-8.8661610">
        <ele>7.7</ele>
        <time>2021-05-18T10:55:13Z</time>
      </trkpt>
      <trkpt lat="41.8469220" lon="-8.8661670">
        <ele>7.7</ele>
        <time>2021-05-18T10:55:14Z</time>
      </trkpt>
      <trkpt lat="41.8469300" lon="-8.8661660">
        <ele>7.7</ele>
        <time>2021-05-18T10:55:15Z</time>
      </trkpt>
      <trkpt lat="41.8469400" lon="-8.8661700">
        <ele>7.7</ele>
        <time>2021-05-18T10:55:16Z</time>
      </trkpt>
      <trkpt lat="41.8469560" lon="-8.8661940">
        <ele>7.8</ele>
        <time>2021-05-18T10:55:17Z</time>
      </trkpt>
      <trkpt lat="41.8469600" lon="-8.8662040">
        <ele>7.8</ele>
        <time>2021-05-18T10:55:18Z</time>
      </trkpt>
      <trkpt lat="41.8469650" lon="-8.8662150">
        <ele>7.8</ele>
        <time>2021-05-18T10:55:19Z</time>
      </trkpt>
      <trkpt lat="41.8469680" lon="-8.8662500">
        <ele>7.9</ele>
        <time>2021-05-18T10:55:20Z</time>
      </trkpt>
      <trkpt lat="41.8469700" lon="-8.8662630">
        <ele>7.9</ele>
        <time>2021-05-18T10:55:21Z</time>
      </trkpt>
      <trkpt lat="41.8469880" lon="-8.8663050">
        <ele>8.0</ele>
        <time>2021-05-18T10:55:22Z</time>
      </trkpt>
      <trkpt lat="41.8469930" lon="-8.8663230">
        <ele>8.0</ele>
        <time>2021-05-18T10:55:23Z</time>
      </trkpt>
      <trkpt lat="41.8469980" lon="-8.8663350">
        <ele>8.0</ele>
        <time>2021-05-18T10:55:24Z</time>
      </trkpt>
      <trkpt lat="41.8470040" lon="-8.8663460">
        <ele>8.1</ele>
        <time>2021-05-18T10:55:25Z</time>
      </trkpt>
      <trkpt lat="41.8470100" lon="-8.8663580">
        <ele>8.1</ele>
        <time>2021-05-18T10:55:26Z</time>
      </trkpt>
      <trkpt lat="41.8470160" lon="-8.8663690">
        <ele>8.1</ele>
        <time>2021-05-18T10:55:27Z</time>
      </trkpt>
      <trkpt lat="41.8470350" lon="-8.8664060">
        <ele>8.2</ele>
        <time>2021-05-18T10:55:28Z</time>
      </trkpt>
      <trkpt lat="41.8470330" lon="-8.8664180">
        <ele>8.2</ele>
        <time>2021-05-18T10:55:29Z</time>
      </trkpt>
      <trkpt lat="41.8470320" lon="-8.8664410">
        <ele>8.2</ele>
        <time>2021-05-18T10:55:30Z</time>
      </trkpt>
      <trkpt lat="41.8470340" lon="-8.8664520">
        <ele>8.2</ele>
        <time>2021-05-18T10:55:31Z</time>
      </trkpt>
      <trkpt lat="41.8470440" lon="-8.8664620">
        <ele>8.3</ele>
        <time>2021-05-18T10:55:32Z</time>
      </trkpt>
      <trkpt lat="41.8470590" lon="-8.8664640">
        <ele>8.3</ele>
        <time>2021-05-18T10:55:33Z</time>
      </trkpt>
      <trkpt lat="41.8470700" lon="-8.8664690">
        <ele>8.3</ele>
        <time>2021-05-18T10:55:34Z</time>
      </trkpt>
      <trkpt lat="41.8470790" lon="-8.8664690">
        <ele>8.3</ele>
        <time>2021-05-18T10:55:35Z</time>
      </trkpt>
      <trkpt lat="41.8470910" lon="-8.8664670">
        <ele>8.3</ele>
        <time>2021-05-18T10:55:36Z</time>
      </trkpt>
      <trkpt lat="41.8471070" lon="-8.8664690">
        <ele>8.4</ele>
        <time>2021-05-18T10:55:37Z</time>
      </trkpt>
      <trkpt lat="41.8471280" lon="-8.8664730">
        <ele>8.4</ele>
        <time>2021-05-18T10:55:38Z</time>
      </trkpt>
      <trkpt lat="41.8471420" lon="-8.8664690">
        <ele>8.4</ele>
        <time>2021-05-18T10:55:39Z</time>
      </trkpt>
      <trkpt lat="41.8471560" lon="-8.8664660">
        <ele>8.4</ele>
        <time>2021-05-18T10:55:40Z</time>
      </trkpt>
      <trkpt lat="41.8471720" lon="-8.8664620">
        <ele>8.4</ele>
        <time>2021-05-18T10:55:41Z</time>
      </trkpt>
      <trkpt lat="41.8471860" lon="-8.8664580">
        <ele>8.5</ele>
        <time>2021-05-18T10:55:42Z</time>
      </trkpt>
      <trkpt lat="41.8471970" lon="-8.8664470">
        <ele>8.5</ele>
        <time>2021-05-18T10:55:43Z</time>
      </trkpt>
      <trkpt lat="41.8472100" lon="-8.8664420">
        <ele>8.5</ele>
        <time>2021-05-18T10:55:44Z</time>
      </trkpt>
      <trkpt lat="41.8472250" lon="-8.8664420">
        <ele>8.5</ele>
        <time>2021-05-18T10:55:45Z</time>
      </trkpt>
      <trkpt lat="41.8472370" lon="-8.8664330">
        <ele>8.5</ele>
        <time>2021-05-18T10:55:46Z</time>
      </trkpt>
      <trkpt lat="41.8472520" lon="-8.8664330">
        <ele>8.5</ele>
        <time>2021-05-18T10:55:47Z</time>
      </trkpt>
      <trkpt lat="41.8472660" lon="-8.8664290">
        <ele>8.5</ele>
        <time>2021-05-18T10:55:48Z</time>
      </trkpt>
      <trkpt lat="41.8472800" lon="-8.8664240">
        <ele>8.6</ele>
        <time>2021-05-18T10:55:49Z</time>
      </trkpt>
      <trkpt lat="41.8472950" lon="-8.8664230">
        <ele>8.6</ele>
        <time>2021-05-18T10:55:50Z</time>
      </trkpt>
      <trkpt lat="41.8473090" lon="-8.8664120">
        <ele>8.6</ele>
        <time>2021-05-18T10:55:51Z</time>
      </trkpt>
      <trkpt lat="41.8473230" lon="-8.8664040">
        <ele>8.6</ele>
        <time>2021-05-18T10:55:52Z</time>
      </trkpt>
      <trkpt lat="41.8473360" lon="-8.8663930">
        <ele>8.6</ele>
        <time>2021-05-18T10:55:53Z</time>
      </trkpt>
      <trkpt lat="41.8473500" lon="-8.8663880">
        <ele>8.6</ele>
        <time>2021-05-18T10:55:54Z</time>
      </trkpt>
      <trkpt lat="41.8473630" lon="-8.8663810">
        <ele>8.6</ele>
        <time>2021-05-18T10:55:55Z</time>
      </trkpt>
      <trkpt lat="41.8473790" lon="-8.8663750">
        <ele>8.6</ele>
        <time>2021-05-18T10:55:56Z</time>
      </trkpt>
      <trkpt lat="41.8473920" lon="-8.8663660">
        <ele>8.6</ele>
        <time>2021-05-18T10:55:57Z</time>
      </trkpt>
      <trkpt lat="41.8474090" lon="-8.8663660">
        <ele>8.6</ele>
        <time>2021-05-18T10:55:58Z</time>
      </trkpt>
      <trkpt lat="41.8474230" lon="-8.8663580">
        <ele>8.6</ele>
        <time>2021-05-18T10:55:59Z</time>
      </trkpt>
      <trkpt lat="41.8474370" lon="-8.8663540">
        <ele>8.6</ele>
        <time>2021-05-18T10:56:00Z</time>
      </trkpt>
      <trkpt lat="41.8474500" lon="-8.8663450">
        <ele>8.6</ele>
        <time>2021-05-18T10:56:01Z</time>
      </trkpt>
      <trkpt lat="41.8474630" lon="-8.8663400">
        <ele>8.6</ele>
        <time>2021-05-18T10:56:02Z</time>
      </trkpt>
      <trkpt lat="41.8474770" lon="-8.8663390">
        <ele>8.6</ele>
        <time>2021-05-18T10:56:03Z</time>
      </trkpt>
      <trkpt lat="41.8474980" lon="-8.8663320">
        <ele>8.6</ele>
        <time>2021-05-18T10:56:04Z</time>
      </trkpt>
      <trkpt lat="41.8475070" lon="-8.8663270">
        <ele>8.6</ele>
        <time>2021-05-18T10:56:05Z</time>
      </trkpt>
      <trkpt lat="41.8475150" lon="-8.8663210">
        <ele>8.6</ele>
        <time>2021-05-18T10:56:06Z</time>
      </trkpt>
      <trkpt lat="41.8475290" lon="-8.8663160">
        <ele>8.6</ele>
        <time>2021-05-18T10:56:07Z</time>
      </trkpt>
      <trkpt lat="41.8475410" lon="-8.8663060">
        <ele>8.6</ele>
        <time>2021-05-18T10:56:08Z</time>
      </trkpt>
      <trkpt lat="41.8475540" lon="-8.8662990">
        <ele>8.6</ele>
        <time>2021-05-18T10:56:09Z</time>
      </trkpt>
      <trkpt lat="41.8475680" lon="-8.8662930">
        <ele>8.6</ele>
        <time>2021-05-18T10:56:10Z</time>
      </trkpt>
      <trkpt lat="41.8475830" lon="-8.8662920">
        <ele>8.6</ele>
        <time>2021-05-18T10:56:11Z</time>
      </trkpt>
      <trkpt lat="41.8475970" lon="-8.8662900">
        <ele>8.7</ele>
        <time>2021-05-18T10:56:12Z</time>
      </trkpt>
      <trkpt lat="41.8476090" lon="-8.8662790">
        <ele>8.7</ele>
        <time>2021-05-18T10:56:13Z</time>
      </trkpt>
      <trkpt lat="41.8476230" lon="-8.8662770">
        <ele>8.7</ele>
        <time>2021-05-18T10:56:14Z</time>
      </trkpt>
      <trkpt lat="41.8476380" lon="-8.8662710">
        <ele>8.7</ele>
        <time>2021-05-18T10:56:15Z</time>
      </trkpt>
      <trkpt lat="41.8476520" lon="-8.8662650">
        <ele>8.7</ele>
        <time>2021-05-18T10:56:16Z</time>
      </trkpt>
      <trkpt lat="41.8476670" lon="-8.8662670">
        <ele>8.7</ele>
        <time>2021-05-18T10:56:17Z</time>
      </trkpt>
      <trkpt lat="41.8476810" lon="-8.8662670">
        <ele>8.7</ele>
        <time>2021-05-18T10:56:18Z</time>
      </trkpt>
      <trkpt lat="41.8476950" lon="-8.8662640">
        <ele>8.7</ele>
        <time>2021-05-18T10:56:19Z</time>
      </trkpt>
      <trkpt lat="41.8477080" lon="-8.8662650">
        <ele>8.7</ele>
        <time>2021-05-18T10:56:20Z</time>
      </trkpt>
      <trkpt lat="41.8477220" lon="-8.8662590">
        <ele>8.7</ele>
        <time>2021-05-18T10:56:21Z</time>
      </trkpt>
      <trkpt lat="41.8477380" lon="-8.8662580">
        <ele>8.7</ele>
        <time>2021-05-18T10:56:22Z</time>
      </trkpt>
      <trkpt lat="41.8477530" lon="-8.8662420">
        <ele>8.7</ele>
        <time>2021-05-18T10:56:23Z</time>
      </trkpt>
      <trkpt lat="41.8477680" lon="-8.8662440">
        <ele>8.7</ele>
        <time>2021-05-18T10:56:24Z</time>
      </trkpt>
      <trkpt lat="41.8477820" lon="-8.8662410">
        <ele>8.7</ele>
        <time>2021-05-18T10:56:25Z</time>
      </trkpt>
      <trkpt lat="41.8477950" lon="-8.8662360">
        <ele>8.7</ele>
        <time>2021-05-18T10:56:26Z</time>
      </trkpt>
      <trkpt lat="41.8478090" lon="-8.8662290">
        <ele>8.7</ele>
        <time>2021-05-18T10:56:27Z</time>
      </trkpt>
      <trkpt lat="41.8478240" lon="-8.8662270">
        <ele>8.7</ele>
        <time>2021-05-18T10:56:28Z</time>
      </trkpt>
      <trkpt lat="41.8478390" lon="-8.8662230">
        <ele>8.7</ele>
        <time>2021-05-18T10:56:30Z</time>
      </trkpt>
      <trkpt lat="41.8478540" lon="-8.8662220">
        <ele>8.7</ele>
        <time>2021-05-18T10:56:31Z</time>
      </trkpt>
      <trkpt lat="41.8478680" lon="-8.8662120">
        <ele>8.7</ele>
        <time>2021-05-18T10:56:32Z</time>
      </trkpt>
      <trkpt lat="41.8478830" lon="-8.8662110">
        <ele>8.7</ele>
        <time>2021-05-18T10:56:33Z</time>
      </trkpt>
      <trkpt lat="41.8478970" lon="-8.8662090">
        <ele>8.7</ele>
        <time>2021-05-18T10:56:34Z</time>
      </trkpt>
      <trkpt lat="41.8479120" lon="-8.8662080">
        <ele>8.7</ele>
        <time>2021-05-18T10:56:35Z</time>
      </trkpt>
      <trkpt lat="41.8479340" lon="-8.8661990">
        <ele>8.7</ele>
        <time>2021-05-18T10:56:36Z</time>
      </trkpt>
      <trkpt lat="41.8479420" lon="-8.8661970">
        <ele>8.7</ele>
        <time>2021-05-18T10:56:37Z</time>
      </trkpt>
      <trkpt lat="41.8479510" lon="-8.8661940">
        <ele>8.7</ele>
        <time>2021-05-18T10:56:38Z</time>
      </trkpt>
      <trkpt lat="41.8479640" lon="-8.8661890">
        <ele>8.7</ele>
        <time>2021-05-18T10:56:39Z</time>
      </trkpt>
      <trkpt lat="41.8479780" lon="-8.8661870">
        <ele>8.7</ele>
        <time>2021-05-18T10:56:40Z</time>
      </trkpt>
      <trkpt lat="41.8479910" lon="-8.8661780">
        <ele>8.7</ele>
        <time>2021-05-18T10:56:41Z</time>
      </trkpt>
      <trkpt lat="41.8480050" lon="-8.8661770">
        <ele>8.7</ele>
        <time>2021-05-18T10:56:42Z</time>
      </trkpt>
      <trkpt lat="41.8480260" lon="-8.8661670">
        <ele>8.7</ele>
        <time>2021-05-18T10:56:43Z</time>
      </trkpt>
      <trkpt lat="41.8480360" lon="-8.8661650">
        <ele>8.7</ele>
        <time>2021-05-18T10:56:44Z</time>
      </trkpt>
      <trkpt lat="41.8480450" lon="-8.8661640">
        <ele>8.6</ele>
        <time>2021-05-18T10:56:45Z</time>
      </trkpt>
      <trkpt lat="41.8480650" lon="-8.8661630">
        <ele>8.6</ele>
        <time>2021-05-18T10:56:46Z</time>
      </trkpt>
      <trkpt lat="41.8480740" lon="-8.8661610">
        <ele>8.6</ele>
        <time>2021-05-18T10:56:47Z</time>
      </trkpt>
      <trkpt lat="41.8480820" lon="-8.8661600">
        <ele>8.6</ele>
        <time>2021-05-18T10:56:48Z</time>
      </trkpt>
      <trkpt lat="41.8480950" lon="-8.8661530">
        <ele>8.6</ele>
        <time>2021-05-18T10:56:49Z</time>
      </trkpt>
      <trkpt lat="41.8481070" lon="-8.8661450">
        <ele>8.6</ele>
        <time>2021-05-18T10:56:50Z</time>
      </trkpt>
      <trkpt lat="41.8481270" lon="-8.8661340">
        <ele>8.6</ele>
        <time>2021-05-18T10:56:51Z</time>
      </trkpt>
      <trkpt lat="41.8481360" lon="-8.8661340">
        <ele>8.6</ele>
        <time>2021-05-18T10:56:52Z</time>
      </trkpt>
      <trkpt lat="41.8481450" lon="-8.8661330">
        <ele>8.6</ele>
        <time>2021-05-18T10:56:53Z</time>
      </trkpt>
      <trkpt lat="41.8481580" lon="-8.8661330">
        <ele>8.6</ele>
        <time>2021-05-18T10:56:54Z</time>
      </trkpt>
      <trkpt lat="41.8481700" lon="-8.8661330">
        <ele>8.6</ele>
        <time>2021-05-18T10:56:55Z</time>
      </trkpt>
      <trkpt lat="41.8481790" lon="-8.8661230">
        <ele>8.6</ele>
        <time>2021-05-18T10:56:56Z</time>
      </trkpt>
      <trkpt lat="41.8481920" lon="-8.8661220">
        <ele>8.6</ele>
        <time>2021-05-18T10:56:57Z</time>
      </trkpt>
      <trkpt lat="41.8482030" lon="-8.8661190">
        <ele>8.6</ele>
        <time>2021-05-18T10:56:58Z</time>
      </trkpt>
      <trkpt lat="41.8482150" lon="-8.8661190">
        <ele>8.6</ele>
        <time>2021-05-18T10:56:59Z</time>
      </trkpt>
      <trkpt lat="41.8482360" lon="-8.8661250">
        <ele>8.6</ele>
        <time>2021-05-18T10:57:00Z</time>
      </trkpt>
      <trkpt lat="41.8482440" lon="-8.8661260">
        <ele>8.6</ele>
        <time>2021-05-18T10:57:01Z</time>
      </trkpt>
      <trkpt lat="41.8482530" lon="-8.8661280">
        <ele>8.6</ele>
        <time>2021-05-18T10:57:02Z</time>
      </trkpt>
      <trkpt lat="41.8482660" lon="-8.8661320">
        <ele>8.6</ele>
        <time>2021-05-18T10:57:03Z</time>
      </trkpt>
      <trkpt lat="41.8482790" lon="-8.8661350">
        <ele>8.6</ele>
        <time>2021-05-18T10:57:04Z</time>
      </trkpt>
      <trkpt lat="41.8482890" lon="-8.8661320">
        <ele>8.6</ele>
        <time>2021-05-18T10:57:05Z</time>
      </trkpt>
      <trkpt lat="41.8483010" lon="-8.8661310">
        <ele>8.6</ele>
        <time>2021-05-18T10:57:06Z</time>
      </trkpt>
      <trkpt lat="41.8483120" lon="-8.8661270">
        <ele>8.6</ele>
        <time>2021-05-18T10:57:07Z</time>
      </trkpt>
      <trkpt lat="41.8483230" lon="-8.8661270">
        <ele>8.6</ele>
        <time>2021-05-18T10:57:08Z</time>
      </trkpt>
      <trkpt lat="41.8483570" lon="-8.8661240">
        <ele>8.6</ele>
        <time>2021-05-18T10:57:09Z</time>
      </trkpt>
      <trkpt lat="41.8483630" lon="-8.8661220">
        <ele>8.6</ele>
        <time>2021-05-18T10:57:10Z</time>
      </trkpt>
      <trkpt lat="41.8483840" lon="-8.8661210">
        <ele>8.6</ele>
        <time>2021-05-18T10:57:11Z</time>
      </trkpt>
      <trkpt lat="41.8483930" lon="-8.8661230">
        <ele>8.6</ele>
        <time>2021-05-18T10:57:12Z</time>
      </trkpt>
      <trkpt lat="41.8484010" lon="-8.8661250">
        <ele>8.6</ele>
        <time>2021-05-18T10:57:13Z</time>
      </trkpt>
      <trkpt lat="41.8484230" lon="-8.8661230">
        <ele>8.6</ele>
        <time>2021-05-18T10:57:14Z</time>
      </trkpt>
      <trkpt lat="41.8484300" lon="-8.8661230">
        <ele>8.6</ele>
        <time>2021-05-18T10:57:15Z</time>
      </trkpt>
      <trkpt lat="41.8484380" lon="-8.8661220">
        <ele>8.6</ele>
        <time>2021-05-18T10:57:16Z</time>
      </trkpt>
      <trkpt lat="41.8484600" lon="-8.8661210">
        <ele>8.6</ele>
        <time>2021-05-18T10:57:17Z</time>
      </trkpt>
      <trkpt lat="41.8484680" lon="-8.8661180">
        <ele>8.6</ele>
        <time>2021-05-18T10:57:18Z</time>
      </trkpt>
      <trkpt lat="41.8484770" lon="-8.8661150">
        <ele>8.6</ele>
        <time>2021-05-18T10:57:19Z</time>
      </trkpt>
      <trkpt lat="41.8485000" lon="-8.8661090">
        <ele>8.6</ele>
        <time>2021-05-18T10:57:20Z</time>
      </trkpt>
      <trkpt lat="41.8485090" lon="-8.8661090">
        <ele>8.6</ele>
        <time>2021-05-18T10:57:21Z</time>
      </trkpt>
      <trkpt lat="41.8485190" lon="-8.8661100">
        <ele>8.6</ele>
        <time>2021-05-18T10:57:22Z</time>
      </trkpt>
      <trkpt lat="41.8485330" lon="-8.8661130">
        <ele>8.6</ele>
        <time>2021-05-18T10:57:23Z</time>
      </trkpt>
      <trkpt lat="41.8485480" lon="-8.8661150">
        <ele>8.6</ele>
        <time>2021-05-18T10:57:24Z</time>
      </trkpt>
      <trkpt lat="41.8485620" lon="-8.8661120">
        <ele>8.6</ele>
        <time>2021-05-18T10:57:25Z</time>
      </trkpt>
      <trkpt lat="41.8485750" lon="-8.8661090">
        <ele>8.6</ele>
        <time>2021-05-18T10:57:26Z</time>
      </trkpt>
      <trkpt lat="41.8485900" lon="-8.8661110">
        <ele>8.6</ele>
        <time>2021-05-18T10:57:27Z</time>
      </trkpt>
      <trkpt lat="41.8486040" lon="-8.8661130">
        <ele>8.6</ele>
        <time>2021-05-18T10:57:28Z</time>
      </trkpt>
      <trkpt lat="41.8486130" lon="-8.8661180">
        <ele>8.6</ele>
        <time>2021-05-18T10:57:29Z</time>
      </trkpt>
      <trkpt lat="41.8486240" lon="-8.8661230">
        <ele>8.6</ele>
        <time>2021-05-18T10:57:30Z</time>
      </trkpt>
      <trkpt lat="41.8486360" lon="-8.8661270">
        <ele>8.6</ele>
        <time>2021-05-18T10:57:31Z</time>
      </trkpt>
      <trkpt lat="41.8486570" lon="-8.8661350">
        <ele>8.6</ele>
        <time>2021-05-18T10:57:32Z</time>
      </trkpt>
      <trkpt lat="41.8486650" lon="-8.8661370">
        <ele>8.6</ele>
        <time>2021-05-18T10:57:33Z</time>
      </trkpt>
      <trkpt lat="41.8486740" lon="-8.8661380">
        <ele>8.6</ele>
        <time>2021-05-18T10:57:34Z</time>
      </trkpt>
      <trkpt lat="41.8486890" lon="-8.8661410">
        <ele>8.6</ele>
        <time>2021-05-18T10:57:35Z</time>
      </trkpt>
      <trkpt lat="41.8487040" lon="-8.8661340">
        <ele>8.6</ele>
        <time>2021-05-18T10:57:36Z</time>
      </trkpt>
      <trkpt lat="41.8487190" lon="-8.8661370">
        <ele>8.6</ele>
        <time>2021-05-18T10:57:37Z</time>
      </trkpt>
      <trkpt lat="41.8487330" lon="-8.8661370">
        <ele>8.6</ele>
        <time>2021-05-18T10:57:38Z</time>
      </trkpt>
      <trkpt lat="41.8487560" lon="-8.8661380">
        <ele>8.6</ele>
        <time>2021-05-18T10:57:39Z</time>
      </trkpt>
      <trkpt lat="41.8487660" lon="-8.8661380">
        <ele>8.6</ele>
        <time>2021-05-18T10:57:40Z</time>
      </trkpt>
      <trkpt lat="41.8487750" lon="-8.8661390">
        <ele>8.6</ele>
        <time>2021-05-18T10:57:41Z</time>
      </trkpt>
      <trkpt lat="41.8487900" lon="-8.8661380">
        <ele>8.6</ele>
        <time>2021-05-18T10:57:42Z</time>
      </trkpt>
      <trkpt lat="41.8488050" lon="-8.8661360">
        <ele>8.6</ele>
        <time>2021-05-18T10:57:43Z</time>
      </trkpt>
      <trkpt lat="41.8488200" lon="-8.8661350">
        <ele>8.6</ele>
        <time>2021-05-18T10:57:44Z</time>
      </trkpt>
      <trkpt lat="41.8488370" lon="-8.8661350">
        <ele>8.6</ele>
        <time>2021-05-18T10:57:45Z</time>
      </trkpt>
      <trkpt lat="41.8488590" lon="-8.8661390">
        <ele>8.6</ele>
        <time>2021-05-18T10:57:46Z</time>
      </trkpt>
      <trkpt lat="41.8488670" lon="-8.8661390">
        <ele>8.6</ele>
        <time>2021-05-18T10:57:47Z</time>
      </trkpt>
      <trkpt lat="41.8488760" lon="-8.8661390">
        <ele>8.6</ele>
        <time>2021-05-18T10:57:48Z</time>
      </trkpt>
      <trkpt lat="41.8488970" lon="-8.8661440">
        <ele>8.6</ele>
        <time>2021-05-18T10:57:49Z</time>
      </trkpt>
      <trkpt lat="41.8489050" lon="-8.8661440">
        <ele>8.6</ele>
        <time>2021-05-18T10:57:50Z</time>
      </trkpt>
      <trkpt lat="41.8489130" lon="-8.8661450">
        <ele>8.6</ele>
        <time>2021-05-18T10:57:51Z</time>
      </trkpt>
      <trkpt lat="41.8489350" lon="-8.8661460">
        <ele>8.6</ele>
        <time>2021-05-18T10:57:52Z</time>
      </trkpt>
      <trkpt lat="41.8489430" lon="-8.8661450">
        <ele>8.6</ele>
        <time>2021-05-18T10:57:53Z</time>
      </trkpt>
      <trkpt lat="41.8489520" lon="-8.8661450">
        <ele>8.6</ele>
        <time>2021-05-18T10:57:54Z</time>
      </trkpt>
      <trkpt lat="41.8489630" lon="-8.8661470">
        <ele>8.6</ele>
        <time>2021-05-18T10:57:55Z</time>
      </trkpt>
      <trkpt lat="41.8489740" lon="-8.8661420">
        <ele>8.7</ele>
        <time>2021-05-18T10:57:56Z</time>
      </trkpt>
      <trkpt lat="41.8489840" lon="-8.8661430">
        <ele>8.7</ele>
        <time>2021-05-18T10:57:57Z</time>
      </trkpt>
      <trkpt lat="41.8489930" lon="-8.8661360">
        <ele>8.7</ele>
        <time>2021-05-18T10:57:58Z</time>
      </trkpt>
      <trkpt lat="41.8490040" lon="-8.8661380">
        <ele>8.7</ele>
        <time>2021-05-18T10:57:59Z</time>
      </trkpt>
      <trkpt lat="41.8490090" lon="-8.8661410">
        <ele>8.7</ele>
        <time>2021-05-18T10:58:00Z</time>
      </trkpt>
      <trkpt lat="41.8490160" lon="-8.8661420">
        <ele>8.7</ele>
        <time>2021-05-18T10:58:01Z</time>
      </trkpt>
      <trkpt lat="41.8490230" lon="-8.8661400">
        <ele>8.7</ele>
        <time>2021-05-18T10:58:02Z</time>
      </trkpt>
      <trkpt lat="41.8490280" lon="-8.8661380">
        <ele>8.7</ele>
        <time>2021-05-18T10:58:03Z</time>
      </trkpt>
      <trkpt lat="41.8490330" lon="-8.8661350">
        <ele>8.7</ele>
        <time>2021-05-18T10:58:04Z</time>
      </trkpt>
      <trkpt lat="41.8490410" lon="-8.8661350">
        <ele>8.7</ele>
        <time>2021-05-18T10:58:05Z</time>
      </trkpt>
      <trkpt lat="41.8490440" lon="-8.8661350">
        <ele>8.7</ele>
        <time>2021-05-18T10:58:06Z</time>
      </trkpt>
      <trkpt lat="41.8490480" lon="-8.8661370">
        <ele>8.7</ele>
        <time>2021-05-18T10:58:07Z</time>
      </trkpt>
      <trkpt lat="41.8490490" lon="-8.8661390">
        <ele>8.7</ele>
        <time>2021-05-18T10:58:08Z</time>
      </trkpt>
      <trkpt lat="41.8490600" lon="-8.8661460">
        <ele>8.7</ele>
        <time>2021-05-18T10:58:09Z</time>
      </trkpt>
      <trkpt lat="41.8490690" lon="-8.8661500">
        <ele>8.7</ele>
        <time>2021-05-18T10:58:10Z</time>
      </trkpt>
      <trkpt lat="41.8490750" lon="-8.8661580">
        <ele>8.7</ele>
        <time>2021-05-18T10:58:11Z</time>
      </trkpt>
      <trkpt lat="41.8490810" lon="-8.8661640">
        <ele>8.7</ele>
        <time>2021-05-18T10:58:12Z</time>
      </trkpt>
      <trkpt lat="41.8490900" lon="-8.8661720">
        <ele>8.7</ele>
        <time>2021-05-18T10:58:13Z</time>
      </trkpt>
      <trkpt lat="41.8490990" lon="-8.8661700">
        <ele>8.7</ele>
        <time>2021-05-18T10:58:14Z</time>
      </trkpt>
      <trkpt lat="41.8491100" lon="-8.8661770">
        <ele>8.7</ele>
        <time>2021-05-18T10:58:15Z</time>
      </trkpt>
      <trkpt lat="41.8491170" lon="-8.8661740">
        <ele>8.7</ele>
        <time>2021-05-18T10:58:16Z</time>
      </trkpt>
      <trkpt lat="41.8491220" lon="-8.8661740">
        <ele>8.7</ele>
        <time>2021-05-18T10:58:17Z</time>
      </trkpt>
      <trkpt lat="41.8491300" lon="-8.8661710">
        <ele>8.7</ele>
        <time>2021-05-18T10:58:18Z</time>
      </trkpt>
      <trkpt lat="41.8491440" lon="-8.8661690">
        <ele>8.7</ele>
        <time>2021-05-18T10:58:19Z</time>
      </trkpt>
      <trkpt lat="41.8491590" lon="-8.8661720">
        <ele>8.7</ele>
        <time>2021-05-18T10:58:20Z</time>
      </trkpt>
      <trkpt lat="41.8491740" lon="-8.8661700">
        <ele>8.7</ele>
        <time>2021-05-18T10:58:21Z</time>
      </trkpt>
      <trkpt lat="41.8491860" lon="-8.8661710">
        <ele>8.7</ele>
        <time>2021-05-18T10:58:22Z</time>
      </trkpt>
      <trkpt lat="41.8492040" lon="-8.8661680">
        <ele>8.7</ele>
        <time>2021-05-18T10:58:23Z</time>
      </trkpt>
      <trkpt lat="41.8492110" lon="-8.8661670">
        <ele>8.7</ele>
        <time>2021-05-18T10:58:24Z</time>
      </trkpt>
      <trkpt lat="41.8492170" lon="-8.8661650">
        <ele>8.7</ele>
        <time>2021-05-18T10:58:25Z</time>
      </trkpt>
      <trkpt lat="41.8492230" lon="-8.8661630">
        <ele>8.7</ele>
        <time>2021-05-18T10:58:26Z</time>
      </trkpt>
      <trkpt lat="41.8492340" lon="-8.8661680">
        <ele>8.8</ele>
        <time>2021-05-18T10:58:27Z</time>
      </trkpt>
      <trkpt lat="41.8492540" lon="-8.8661670">
        <ele>8.8</ele>
        <time>2021-05-18T10:58:28Z</time>
      </trkpt>
      <trkpt lat="41.8492730" lon="-8.8661670">
        <ele>8.8</ele>
        <time>2021-05-18T10:58:29Z</time>
      </trkpt>
      <trkpt lat="41.8492880" lon="-8.8661670">
        <ele>8.8</ele>
        <time>2021-05-18T10:58:30Z</time>
      </trkpt>
      <trkpt lat="41.8493020" lon="-8.8661670">
        <ele>8.8</ele>
        <time>2021-05-18T10:58:31Z</time>
      </trkpt>
      <trkpt lat="41.8493160" lon="-8.8661670">
        <ele>8.8</ele>
        <time>2021-05-18T10:58:32Z</time>
      </trkpt>
      <trkpt lat="41.8493300" lon="-8.8661680">
        <ele>8.8</ele>
        <time>2021-05-18T10:58:33Z</time>
      </trkpt>
      <trkpt lat="41.8493440" lon="-8.8661740">
        <ele>8.8</ele>
        <time>2021-05-18T10:58:34Z</time>
      </trkpt>
      <trkpt lat="41.8493580" lon="-8.8661720">
        <ele>8.8</ele>
        <time>2021-05-18T10:58:35Z</time>
      </trkpt>
      <trkpt lat="41.8493720" lon="-8.8661660">
        <ele>8.8</ele>
        <time>2021-05-18T10:58:36Z</time>
      </trkpt>
      <trkpt lat="41.8493880" lon="-8.8661620">
        <ele>8.9</ele>
        <time>2021-05-18T10:58:37Z</time>
      </trkpt>
      <trkpt lat="41.8494030" lon="-8.8661610">
        <ele>8.9</ele>
        <time>2021-05-18T10:58:38Z</time>
      </trkpt>
      <trkpt lat="41.8494170" lon="-8.8661610">
        <ele>8.9</ele>
        <time>2021-05-18T10:58:39Z</time>
      </trkpt>
      <trkpt lat="41.8494300" lon="-8.8661620">
        <ele>8.9</ele>
        <time>2021-05-18T10:58:40Z</time>
      </trkpt>
      <trkpt lat="41.8494450" lon="-8.8661680">
        <ele>8.9</ele>
        <time>2021-05-18T10:58:41Z</time>
      </trkpt>
      <trkpt lat="41.8494600" lon="-8.8661650">
        <ele>8.9</ele>
        <time>2021-05-18T10:58:42Z</time>
      </trkpt>
      <trkpt lat="41.8494770" lon="-8.8661700">
        <ele>8.9</ele>
        <time>2021-05-18T10:58:43Z</time>
      </trkpt>
      <trkpt lat="41.8494900" lon="-8.8661700">
        <ele>8.9</ele>
        <time>2021-05-18T10:58:44Z</time>
      </trkpt>
      <trkpt lat="41.8495060" lon="-8.8661650">
        <ele>8.9</ele>
        <time>2021-05-18T10:58:45Z</time>
      </trkpt>
      <trkpt lat="41.8495230" lon="-8.8661620">
        <ele>8.9</ele>
        <time>2021-05-18T10:58:46Z</time>
      </trkpt>
      <trkpt lat="41.8495390" lon="-8.8661610">
        <ele>9.0</ele>
        <time>2021-05-18T10:58:47Z</time>
      </trkpt>
      <trkpt lat="41.8495530" lon="-8.8661620">
        <ele>9.0</ele>
        <time>2021-05-18T10:58:48Z</time>
      </trkpt>
      <trkpt lat="41.8495690" lon="-8.8661590">
        <ele>9.0</ele>
        <time>2021-05-18T10:58:49Z</time>
      </trkpt>
      <trkpt lat="41.8495820" lon="-8.8661580">
        <ele>9.0</ele>
        <time>2021-05-18T10:58:51Z</time>
      </trkpt>
      <trkpt lat="41.8495960" lon="-8.8661560">
        <ele>9.0</ele>
        <time>2021-05-18T10:58:52Z</time>
      </trkpt>
      <trkpt lat="41.8496110" lon="-8.8661560">
        <ele>9.0</ele>
        <time>2021-05-18T10:58:53Z</time>
      </trkpt>
      <trkpt lat="41.8496320" lon="-8.8661600">
        <ele>9.0</ele>
        <time>2021-05-18T10:58:54Z</time>
      </trkpt>
      <trkpt lat="41.8496400" lon="-8.8661600">
        <ele>9.0</ele>
        <time>2021-05-18T10:58:55Z</time>
      </trkpt>
      <trkpt lat="41.8496490" lon="-8.8661600">
        <ele>9.0</ele>
        <time>2021-05-18T10:58:56Z</time>
      </trkpt>
      <trkpt lat="41.8496690" lon="-8.8661600">
        <ele>9.0</ele>
        <time>2021-05-18T10:58:57Z</time>
      </trkpt>
      <trkpt lat="41.8496780" lon="-8.8661600">
        <ele>9.0</ele>
        <time>2021-05-18T10:58:58Z</time>
      </trkpt>
      <trkpt lat="41.8496860" lon="-8.8661610">
        <ele>9.0</ele>
        <time>2021-05-18T10:58:59Z</time>
      </trkpt>
      <trkpt lat="41.8496990" lon="-8.8661590">
        <ele>9.1</ele>
        <time>2021-05-18T10:59:00Z</time>
      </trkpt>
      <trkpt lat="41.8497090" lon="-8.8661600">
        <ele>9.1</ele>
        <time>2021-05-18T10:59:01Z</time>
      </trkpt>
      <trkpt lat="41.8497180" lon="-8.8661550">
        <ele>9.1</ele>
        <time>2021-05-18T10:59:02Z</time>
      </trkpt>
      <trkpt lat="41.8497280" lon="-8.8661540">
        <ele>9.1</ele>
        <time>2021-05-18T10:59:03Z</time>
      </trkpt>
      <trkpt lat="41.8497340" lon="-8.8661590">
        <ele>9.1</ele>
        <time>2021-05-18T10:59:04Z</time>
      </trkpt>
      <trkpt lat="41.8497460" lon="-8.8661600">
        <ele>9.1</ele>
        <time>2021-05-18T10:59:05Z</time>
      </trkpt>
      <trkpt lat="41.8497570" lon="-8.8661680">
        <ele>9.1</ele>
        <time>2021-05-18T10:59:06Z</time>
      </trkpt>
      <trkpt lat="41.8497660" lon="-8.8661700">
        <ele>9.1</ele>
        <time>2021-05-18T10:59:07Z</time>
      </trkpt>
      <trkpt lat="41.8497740" lon="-8.8661730">
        <ele>9.1</ele>
        <time>2021-05-18T10:59:08Z</time>
      </trkpt>
      <trkpt lat="41.8497830" lon="-8.8661760">
        <ele>9.1</ele>
        <time>2021-05-18T10:59:09Z</time>
      </trkpt>
      <trkpt lat="41.8497930" lon="-8.8661800">
        <ele>9.1</ele>
        <time>2021-05-18T10:59:10Z</time>
      </trkpt>
      <trkpt lat="41.8497990" lon="-8.8661780">
        <ele>9.1</ele>
        <time>2021-05-18T10:59:11Z</time>
      </trkpt>
      <trkpt lat="41.8498070" lon="-8.8661750">
        <ele>9.1</ele>
        <time>2021-05-18T10:59:12Z</time>
      </trkpt>
      <trkpt lat="41.8498170" lon="-8.8661700">
        <ele>9.1</ele>
        <time>2021-05-18T10:59:13Z</time>
      </trkpt>
      <trkpt lat="41.8498260" lon="-8.8661650">
        <ele>9.1</ele>
        <time>2021-05-18T10:59:14Z</time>
      </trkpt>
      <trkpt lat="41.8498480" lon="-8.8661520">
        <ele>9.1</ele>
        <time>2021-05-18T10:59:15Z</time>
      </trkpt>
      <trkpt lat="41.8498530" lon="-8.8661430">
        <ele>9.1</ele>
        <time>2021-05-18T10:59:16Z</time>
      </trkpt>
      <trkpt lat="41.8498580" lon="-8.8661350">
        <ele>9.1</ele>
        <time>2021-05-18T10:59:17Z</time>
      </trkpt>
      <trkpt lat="41.8498630" lon="-8.8661210">
        <ele>9.1</ele>
        <time>2021-05-18T10:59:18Z</time>
      </trkpt>
      <trkpt lat="41.8498640" lon="-8.8661010">
        <ele>9.1</ele>
        <time>2021-05-18T10:59:19Z</time>
      </trkpt>
      <trkpt lat="41.8498630" lon="-8.8660820">
        <ele>9.1</ele>
        <time>2021-05-18T10:59:20Z</time>
      </trkpt>
      <trkpt lat="41.8498570" lon="-8.8660690">
        <ele>9.1</ele>
        <time>2021-05-18T10:59:21Z</time>
      </trkpt>
      <trkpt lat="41.8498550" lon="-8.8660510">
        <ele>9.0</ele>
        <time>2021-05-18T10:59:22Z</time>
      </trkpt>
      <trkpt lat="41.8498520" lon="-8.8660430">
        <ele>9.0</ele>
        <time>2021-05-18T10:59:23Z</time>
      </trkpt>
      <trkpt lat="41.8498550" lon="-8.8660160">
        <ele>9.0</ele>
        <time>2021-05-18T10:59:24Z</time>
      </trkpt>
      <trkpt lat="41.8498480" lon="-8.8660030">
        <ele>9.0</ele>
        <time>2021-05-18T10:59:25Z</time>
      </trkpt>
      <trkpt lat="41.8498530" lon="-8.8659860">
        <ele>9.0</ele>
        <time>2021-05-18T10:59:26Z</time>
      </trkpt>
      <trkpt lat="41.8498590" lon="-8.8659680">
        <ele>9.0</ele>
        <time>2021-05-18T10:59:27Z</time>
      </trkpt>
      <trkpt lat="41.8498680" lon="-8.8659540">
        <ele>9.0</ele>
        <time>2021-05-18T10:59:28Z</time>
      </trkpt>
      <trkpt lat="41.8498690" lon="-8.8659430">
        <ele>9.0</ele>
        <time>2021-05-18T10:59:29Z</time>
      </trkpt>
      <trkpt lat="41.8498690" lon="-8.8659320">
        <ele>9.0</ele>
        <time>2021-05-18T10:59:30Z</time>
      </trkpt>
      <trkpt lat="41.8498680" lon="-8.8659150">
        <ele>9.0</ele>
        <time>2021-05-18T10:59:31Z</time>
      </trkpt>
      <trkpt lat="41.8498720" lon="-8.8658910">
        <ele>9.0</ele>
        <time>2021-05-18T10:59:32Z</time>
      </trkpt>
      <trkpt lat="41.8498750" lon="-8.8658740">
        <ele>9.0</ele>
        <time>2021-05-18T10:59:33Z</time>
      </trkpt>
      <trkpt lat="41.8498770" lon="-8.8658650">
        <ele>9.0</ele>
        <time>2021-05-18T10:59:34Z</time>
      </trkpt>
      <trkpt lat="41.8498800" lon="-8.8658470">
        <ele>9.0</ele>
        <time>2021-05-18T10:59:35Z</time>
      </trkpt>
      <trkpt lat="41.8498780" lon="-8.8658310">
        <ele>9.0</ele>
        <time>2021-05-18T10:59:36Z</time>
      </trkpt>
      <trkpt lat="41.8498740" lon="-8.8658160">
        <ele>9.0</ele>
        <time>2021-05-18T10:59:37Z</time>
      </trkpt>
      <trkpt lat="41.8498740" lon="-8.8658050">
        <ele>9.0</ele>
        <time>2021-05-18T10:59:38Z</time>
      </trkpt>
      <trkpt lat="41.8498800" lon="-8.8657830">
        <ele>9.0</ele>
        <time>2021-05-18T10:59:39Z</time>
      </trkpt>
      <trkpt lat="41.8498810" lon="-8.8657700">
        <ele>9.0</ele>
        <time>2021-05-18T10:59:40Z</time>
      </trkpt>
      <trkpt lat="41.8498810" lon="-8.8657690">
        <ele>9.0</ele>
        <time>2021-05-18T10:59:41Z</time>
      </trkpt>
      <trkpt lat="41.8498850" lon="-8.8657640">
        <ele>9.0</ele>
        <time>2021-05-18T10:59:42Z</time>
      </trkpt>
      <trkpt lat="41.8498950" lon="-8.8657610">
        <ele>9.0</ele>
        <time>2021-05-18T10:59:43Z</time>
      </trkpt>
      <trkpt lat="41.8499070" lon="-8.8657540">
        <ele>8.9</ele>
        <time>2021-05-18T10:59:44Z</time>
      </trkpt>
      <trkpt lat="41.8499320" lon="-8.8657550">
        <ele>8.9</ele>
        <time>2021-05-18T10:59:45Z</time>
      </trkpt>
      <trkpt lat="41.8499410" lon="-8.8657530">
        <ele>8.9</ele>
        <time>2021-05-18T10:59:46Z</time>
      </trkpt>
      <trkpt lat="41.8499500" lon="-8.8657520">
        <ele>8.9</ele>
        <time>2021-05-18T10:59:47Z</time>
      </trkpt>
      <trkpt lat="41.8499620" lon="-8.8657490">
        <ele>8.9</ele>
        <time>2021-05-18T10:59:48Z</time>
      </trkpt>
      <trkpt lat="41.8499700" lon="-8.8657570">
        <ele>8.9</ele>
        <time>2021-05-18T10:59:49Z</time>
      </trkpt>
      <trkpt lat="41.8499830" lon="-8.8657660">
        <ele>8.9</ele>
        <time>2021-05-18T10:59:50Z</time>
      </trkpt>
      <trkpt lat="41.8500030" lon="-8.8657680">
        <ele>8.9</ele>
        <time>2021-05-18T10:59:51Z</time>
      </trkpt>
      <trkpt lat="41.8500160" lon="-8.8657730">
        <ele>8.9</ele>
        <time>2021-05-18T10:59:52Z</time>
      </trkpt>
      <trkpt lat="41.8500360" lon="-8.8657660">
        <ele>8.9</ele>
        <time>2021-05-18T10:59:53Z</time>
      </trkpt>
      <trkpt lat="41.8500470" lon="-8.8657650">
        <ele>8.9</ele>
        <time>2021-05-18T10:59:54Z</time>
      </trkpt>
      <trkpt lat="41.8500510" lon="-8.8657650">
        <ele>8.9</ele>
        <time>2021-05-18T10:59:55Z</time>
      </trkpt>
      <trkpt lat="41.8500640" lon="-8.8657640">
        <ele>8.9</ele>
        <time>2021-05-18T10:59:56Z</time>
      </trkpt>
      <trkpt lat="41.8500770" lon="-8.8657630">
        <ele>8.9</ele>
        <time>2021-05-18T10:59:57Z</time>
      </trkpt>
      <trkpt lat="41.8500860" lon="-8.8657620">
        <ele>8.9</ele>
        <time>2021-05-18T10:59:58Z</time>
      </trkpt>
      <trkpt lat="41.8501030" lon="-8.8657590">
        <ele>8.9</ele>
        <time>2021-05-18T10:59:59Z</time>
      </trkpt>
      <trkpt lat="41.8501110" lon="-8.8657550">
        <ele>8.9</ele>
        <time>2021-05-18T11:00:00Z</time>
      </trkpt>
      <trkpt lat="41.8501320" lon="-8.8657430">
        <ele>8.9</ele>
        <time>2021-05-18T11:00:01Z</time>
      </trkpt>
      <trkpt lat="41.8501420" lon="-8.8657390">
        <ele>8.8</ele>
        <time>2021-05-18T11:00:02Z</time>
      </trkpt>
      <trkpt lat="41.8501520" lon="-8.8657360">
        <ele>8.8</ele>
        <time>2021-05-18T11:00:03Z</time>
      </trkpt>
      <trkpt lat="41.8501740" lon="-8.8657380">
        <ele>8.8</ele>
        <time>2021-05-18T11:00:04Z</time>
      </trkpt>
      <trkpt lat="41.8501840" lon="-8.8657380">
        <ele>8.8</ele>
        <time>2021-05-18T11:00:05Z</time>
      </trkpt>
      <trkpt lat="41.8501940" lon="-8.8657390">
        <ele>8.8</ele>
        <time>2021-05-18T11:00:06Z</time>
      </trkpt>
      <trkpt lat="41.8502020" lon="-8.8657370">
        <ele>8.8</ele>
        <time>2021-05-18T11:00:07Z</time>
      </trkpt>
      <trkpt lat="41.8502210" lon="-8.8657330">
        <ele>8.8</ele>
        <time>2021-05-18T11:00:08Z</time>
      </trkpt>
      <trkpt lat="41.8502370" lon="-8.8657300">
        <ele>8.8</ele>
        <time>2021-05-18T11:00:09Z</time>
      </trkpt>
      <trkpt lat="41.8502450" lon="-8.8657260">
        <ele>8.8</ele>
        <time>2021-05-18T11:00:10Z</time>
      </trkpt>
      <trkpt lat="41.8502530" lon="-8.8657220">
        <ele>8.7</ele>
        <time>2021-05-18T11:00:11Z</time>
      </trkpt>
      <trkpt lat="41.8502610" lon="-8.8657180">
        <ele>8.7</ele>
        <time>2021-05-18T11:00:12Z</time>
      </trkpt>
      <trkpt lat="41.8502710" lon="-8.8657080">
        <ele>8.7</ele>
        <time>2021-05-18T11:00:13Z</time>
      </trkpt>
      <trkpt lat="41.8502860" lon="-8.8657140">
        <ele>8.7</ele>
        <time>2021-05-18T11:00:14Z</time>
      </trkpt>
      <trkpt lat="41.8502960" lon="-8.8657130">
        <ele>8.7</ele>
        <time>2021-05-18T11:00:15Z</time>
      </trkpt>
      <trkpt lat="41.8503090" lon="-8.8657090">
        <ele>8.7</ele>
        <time>2021-05-18T11:00:16Z</time>
      </trkpt>
      <trkpt lat="41.8503270" lon="-8.8657070">
        <ele>8.7</ele>
        <time>2021-05-18T11:00:17Z</time>
      </trkpt>
      <trkpt lat="41.8503360" lon="-8.8657070">
        <ele>8.7</ele>
        <time>2021-05-18T11:00:18Z</time>
      </trkpt>
      <trkpt lat="41.8503490" lon="-8.8656960">
        <ele>8.7</ele>
        <time>2021-05-18T11:00:19Z</time>
      </trkpt>
      <trkpt lat="41.8503540" lon="-8.8656960">
        <ele>8.6</ele>
        <time>2021-05-18T11:00:20Z</time>
      </trkpt>
      <trkpt lat="41.8503680" lon="-8.8656900">
        <ele>8.6</ele>
        <time>2021-05-18T11:00:21Z</time>
      </trkpt>
      <trkpt lat="41.8503840" lon="-8.8656740">
        <ele>8.6</ele>
        <time>2021-05-18T11:00:22Z</time>
      </trkpt>
      <trkpt lat="41.8504000" lon="-8.8656710">
        <ele>8.6</ele>
        <time>2021-05-18T11:00:23Z</time>
      </trkpt>
      <trkpt lat="41.8504160" lon="-8.8656660">
        <ele>8.6</ele>
        <time>2021-05-18T11:00:24Z</time>
      </trkpt>
      <trkpt lat="41.8504270" lon="-8.8656640">
        <ele>8.6</ele>
        <time>2021-05-18T11:00:25Z</time>
      </trkpt>
      <trkpt lat="41.8504410" lon="-8.8656580">
        <ele>8.6</ele>
        <time>2021-05-18T11:00:26Z</time>
      </trkpt>
      <trkpt lat="41.8504510" lon="-8.8656610">
        <ele>8.6</ele>
        <time>2021-05-18T11:00:27Z</time>
      </trkpt>
      <trkpt lat="41.8504610" lon="-8.8656570">
        <ele>8.5</ele>
        <time>2021-05-18T11:00:28Z</time>
      </trkpt>
      <trkpt lat="41.8504700" lon="-8.8656540">
        <ele>8.5</ele>
        <time>2021-05-18T11:00:29Z</time>
      </trkpt>
      <trkpt lat="41.8504780" lon="-8.8656500">
        <ele>8.5</ele>
        <time>2021-05-18T11:00:30Z</time>
      </trkpt>
      <trkpt lat="41.8504870" lon="-8.8656460">
        <ele>8.5</ele>
        <time>2021-05-18T11:00:31Z</time>
      </trkpt>
      <trkpt lat="41.8504970" lon="-8.8656400">
        <ele>8.5</ele>
        <time>2021-05-18T11:00:32Z</time>
      </trkpt>
      <trkpt lat="41.8505070" lon="-8.8656390">
        <ele>8.5</ele>
        <time>2021-05-18T11:00:33Z</time>
      </trkpt>
      <trkpt lat="41.8505170" lon="-8.8656380">
        <ele>8.5</ele>
        <time>2021-05-18T11:00:34Z</time>
      </trkpt>
      <trkpt lat="41.8505270" lon="-8.8656370">
        <ele>8.5</ele>
        <time>2021-05-18T11:00:35Z</time>
      </trkpt>
      <trkpt lat="41.8505340" lon="-8.8656470">
        <ele>8.5</ele>
        <time>2021-05-18T11:00:36Z</time>
      </trkpt>
      <trkpt lat="41.8505560" lon="-8.8656470">
        <ele>8.5</ele>
        <time>2021-05-18T11:00:37Z</time>
      </trkpt>
      <trkpt lat="41.8505680" lon="-8.8656340">
        <ele>8.4</ele>
        <time>2021-05-18T11:00:38Z</time>
      </trkpt>
      <trkpt lat="41.8505860" lon="-8.8656250">
        <ele>8.4</ele>
        <time>2021-05-18T11:00:39Z</time>
      </trkpt>
      <trkpt lat="41.8506040" lon="-8.8656240">
        <ele>8.4</ele>
        <time>2021-05-18T11:00:40Z</time>
      </trkpt>
      <trkpt lat="41.8506170" lon="-8.8656160">
        <ele>8.4</ele>
        <time>2021-05-18T11:00:41Z</time>
      </trkpt>
      <trkpt lat="41.8506470" lon="-8.8656040">
        <ele>8.4</ele>
        <time>2021-05-18T11:00:43Z</time>
      </trkpt>
      <trkpt lat="41.8506640" lon="-8.8656080">
        <ele>8.3</ele>
        <time>2021-05-18T11:00:45Z</time>
      </trkpt>
      <trkpt lat="41.8506820" lon="-8.8656130">
        <ele>8.3</ele>
        <time>2021-05-18T11:00:46Z</time>
      </trkpt>
      <trkpt lat="41.8506970" lon="-8.8656110">
        <ele>8.3</ele>
        <time>2021-05-18T11:00:47Z</time>
      </trkpt>
      <trkpt lat="41.8507140" lon="-8.8656050">
        <ele>8.3</ele>
        <time>2021-05-18T11:00:48Z</time>
      </trkpt>
      <trkpt lat="41.8507300" lon="-8.8656070">
        <ele>8.3</ele>
        <time>2021-05-18T11:00:49Z</time>
      </trkpt>
      <trkpt lat="41.8507440" lon="-8.8656080">
        <ele>8.3</ele>
        <time>2021-05-18T11:00:50Z</time>
      </trkpt>
      <trkpt lat="41.8507600" lon="-8.8656080">
        <ele>8.3</ele>
        <time>2021-05-18T11:00:51Z</time>
      </trkpt>
      <trkpt lat="41.8507770" lon="-8.8656100">
        <ele>8.3</ele>
        <time>2021-05-18T11:00:52Z</time>
      </trkpt>
      <trkpt lat="41.8507950" lon="-8.8656130">
        <ele>8.3</ele>
        <time>2021-05-18T11:00:53Z</time>
      </trkpt>
      <trkpt lat="41.8508050" lon="-8.8656150">
        <ele>8.3</ele>
        <time>2021-05-18T11:00:54Z</time>
      </trkpt>
      <trkpt lat="41.8508140" lon="-8.8656170">
        <ele>8.3</ele>
        <time>2021-05-18T11:00:55Z</time>
      </trkpt>
      <trkpt lat="41.8508330" lon="-8.8656140">
        <ele>8.3</ele>
        <time>2021-05-18T11:00:56Z</time>
      </trkpt>
      <trkpt lat="41.8508430" lon="-8.8656110">
        <ele>8.3</ele>
        <time>2021-05-18T11:00:57Z</time>
      </trkpt>
      <trkpt lat="41.8508530" lon="-8.8656080">
        <ele>8.2</ele>
        <time>2021-05-18T11:00:58Z</time>
      </trkpt>
      <trkpt lat="41.8508730" lon="-8.8656170">
        <ele>8.2</ele>
        <time>2021-05-18T11:00:59Z</time>
      </trkpt>
      <trkpt lat="41.8508860" lon="-8.8656080">
        <ele>8.2</ele>
        <time>2021-05-18T11:01:00Z</time>
      </trkpt>
      <trkpt lat="41.8509060" lon="-8.8656110">
        <ele>8.2</ele>
        <time>2021-05-18T11:01:01Z</time>
      </trkpt>
      <trkpt lat="41.8509150" lon="-8.8656100">
        <ele>8.2</ele>
        <time>2021-05-18T11:01:02Z</time>
      </trkpt>
      <trkpt lat="41.8509240" lon="-8.8656100">
        <ele>8.3</ele>
        <time>2021-05-18T11:01:03Z</time>
      </trkpt>
      <trkpt lat="41.8509360" lon="-8.8656150">
        <ele>8.3</ele>
        <time>2021-05-18T11:01:04Z</time>
      </trkpt>
      <trkpt lat="41.8509440" lon="-8.8656150">
        <ele>8.3</ele>
        <time>2021-05-18T11:01:05Z</time>
      </trkpt>
      <trkpt lat="41.8509530" lon="-8.8656140">
        <ele>8.3</ele>
        <time>2021-05-18T11:01:06Z</time>
      </trkpt>
      <trkpt lat="41.8509610" lon="-8.8656130">
        <ele>8.3</ele>
        <time>2021-05-18T11:01:07Z</time>
      </trkpt>
      <trkpt lat="41.8509840" lon="-8.8656140">
        <ele>8.3</ele>
        <time>2021-05-18T11:01:08Z</time>
      </trkpt>
      <trkpt lat="41.8509940" lon="-8.8656160">
        <ele>8.3</ele>
        <time>2021-05-18T11:01:09Z</time>
      </trkpt>
      <trkpt lat="41.8510030" lon="-8.8656190">
        <ele>8.3</ele>
        <time>2021-05-18T11:01:10Z</time>
      </trkpt>
      <trkpt lat="41.8510150" lon="-8.8656170">
        <ele>8.3</ele>
        <time>2021-05-18T11:01:11Z</time>
      </trkpt>
      <trkpt lat="41.8510270" lon="-8.8656160">
        <ele>8.3</ele>
        <time>2021-05-18T11:01:12Z</time>
      </trkpt>
      <trkpt lat="41.8510380" lon="-8.8656190">
        <ele>8.3</ele>
        <time>2021-05-18T11:01:13Z</time>
      </trkpt>
      <trkpt lat="41.8510470" lon="-8.8656210">
        <ele>8.3</ele>
        <time>2021-05-18T11:01:14Z</time>
      </trkpt>
      <trkpt lat="41.8510550" lon="-8.8656240">
        <ele>8.3</ele>
        <time>2021-05-18T11:01:15Z</time>
      </trkpt>
      <trkpt lat="41.8510680" lon="-8.8656350">
        <ele>8.3</ele>
        <time>2021-05-18T11:01:16Z</time>
      </trkpt>
      <trkpt lat="41.8510880" lon="-8.8656340">
        <ele>8.3</ele>
        <time>2021-05-18T11:01:17Z</time>
      </trkpt>
      <trkpt lat="41.8511010" lon="-8.8656420">
        <ele>8.3</ele>
        <time>2021-05-18T11:01:18Z</time>
      </trkpt>
      <trkpt lat="41.8511130" lon="-8.8656370">
        <ele>8.3</ele>
        <time>2021-05-18T11:01:19Z</time>
      </trkpt>
      <trkpt lat="41.8511320" lon="-8.8656380">
        <ele>8.3</ele>
        <time>2021-05-18T11:01:20Z</time>
      </trkpt>
      <trkpt lat="41.8511540" lon="-8.8656430">
        <ele>8.3</ele>
        <time>2021-05-18T11:01:21Z</time>
      </trkpt>
      <trkpt lat="41.8511640" lon="-8.8656470">
        <ele>8.3</ele>
        <time>2021-05-18T11:01:22Z</time>
      </trkpt>
      <trkpt lat="41.8511810" lon="-8.8656490">
        <ele>8.3</ele>
        <time>2021-05-18T11:01:23Z</time>
      </trkpt>
      <trkpt lat="41.8511940" lon="-8.8656470">
        <ele>8.3</ele>
        <time>2021-05-18T11:01:24Z</time>
      </trkpt>
      <trkpt lat="41.8512040" lon="-8.8656510">
        <ele>8.3</ele>
        <time>2021-05-18T11:01:25Z</time>
      </trkpt>
      <trkpt lat="41.8512210" lon="-8.8656520">
        <ele>8.3</ele>
        <time>2021-05-18T11:01:26Z</time>
      </trkpt>
      <trkpt lat="41.8512350" lon="-8.8656560">
        <ele>8.3</ele>
        <time>2021-05-18T11:01:27Z</time>
      </trkpt>
      <trkpt lat="41.8512420" lon="-8.8656540">
        <ele>8.3</ele>
        <time>2021-05-18T11:01:28Z</time>
      </trkpt>
      <trkpt lat="41.8512520" lon="-8.8656640">
        <ele>8.3</ele>
        <time>2021-05-18T11:01:29Z</time>
      </trkpt>
      <trkpt lat="41.8512740" lon="-8.8656700">
        <ele>8.3</ele>
        <time>2021-05-18T11:01:30Z</time>
      </trkpt>
      <trkpt lat="41.8512820" lon="-8.8656720">
        <ele>8.3</ele>
        <time>2021-05-18T11:01:31Z</time>
      </trkpt>
      <trkpt lat="41.8512910" lon="-8.8656750">
        <ele>8.3</ele>
        <time>2021-05-18T11:01:32Z</time>
      </trkpt>
      <trkpt lat="41.8513050" lon="-8.8656770">
        <ele>8.3</ele>
        <time>2021-05-18T11:01:33Z</time>
      </trkpt>
      <trkpt lat="41.8513200" lon="-8.8656780">
        <ele>8.3</ele>
        <time>2021-05-18T11:01:34Z</time>
      </trkpt>
      <trkpt lat="41.8513420" lon="-8.8656890">
        <ele>8.4</ele>
        <time>2021-05-18T11:01:35Z</time>
      </trkpt>
      <trkpt lat="41.8513510" lon="-8.8656860">
        <ele>8.4</ele>
        <time>2021-05-18T11:01:36Z</time>
      </trkpt>
      <trkpt lat="41.8513600" lon="-8.8656840">
        <ele>8.4</ele>
        <time>2021-05-18T11:01:37Z</time>
      </trkpt>
      <trkpt lat="41.8513800" lon="-8.8656880">
        <ele>8.4</ele>
        <time>2021-05-18T11:01:38Z</time>
      </trkpt>
      <trkpt lat="41.8513900" lon="-8.8656930">
        <ele>8.4</ele>
        <time>2021-05-18T11:01:39Z</time>
      </trkpt>
      <trkpt lat="41.8513990" lon="-8.8656970">
        <ele>8.4</ele>
        <time>2021-05-18T11:01:40Z</time>
      </trkpt>
      <trkpt lat="41.8514100" lon="-8.8657060">
        <ele>8.4</ele>
        <time>2021-05-18T11:01:41Z</time>
      </trkpt>
      <trkpt lat="41.8514210" lon="-8.8657080">
        <ele>8.4</ele>
        <time>2021-05-18T11:01:42Z</time>
      </trkpt>
      <trkpt lat="41.8514330" lon="-8.8657090">
        <ele>8.4</ele>
        <time>2021-05-18T11:01:43Z</time>
      </trkpt>
      <trkpt lat="41.8514480" lon="-8.8657080">
        <ele>8.4</ele>
        <time>2021-05-18T11:01:44Z</time>
      </trkpt>
      <trkpt lat="41.8514610" lon="-8.8657080">
        <ele>8.4</ele>
        <time>2021-05-18T11:01:45Z</time>
      </trkpt>
      <trkpt lat="41.8514830" lon="-8.8657140">
        <ele>8.4</ele>
        <time>2021-05-18T11:01:46Z</time>
      </trkpt>
      <trkpt lat="41.8514930" lon="-8.8657190">
        <ele>8.4</ele>
        <time>2021-05-18T11:01:47Z</time>
      </trkpt>
      <trkpt lat="41.8515020" lon="-8.8657230">
        <ele>8.4</ele>
        <time>2021-05-18T11:01:48Z</time>
      </trkpt>
      <trkpt lat="41.8515230" lon="-8.8657270">
        <ele>8.4</ele>
        <time>2021-05-18T11:01:49Z</time>
      </trkpt>
      <trkpt lat="41.8515310" lon="-8.8657250">
        <ele>8.4</ele>
        <time>2021-05-18T11:01:50Z</time>
      </trkpt>
      <trkpt lat="41.8515400" lon="-8.8657240">
        <ele>8.4</ele>
        <time>2021-05-18T11:01:51Z</time>
      </trkpt>
      <trkpt lat="41.8515580" lon="-8.8657210">
        <ele>8.4</ele>
        <time>2021-05-18T11:01:52Z</time>
      </trkpt>
      <trkpt lat="41.8515710" lon="-8.8657220">
        <ele>8.4</ele>
        <time>2021-05-18T11:01:53Z</time>
      </trkpt>
      <trkpt lat="41.8515760" lon="-8.8657210">
        <ele>8.4</ele>
        <time>2021-05-18T11:01:54Z</time>
      </trkpt>
      <trkpt lat="41.8515970" lon="-8.8657280">
        <ele>8.4</ele>
        <time>2021-05-18T11:01:55Z</time>
      </trkpt>
      <trkpt lat="41.8516040" lon="-8.8657380">
        <ele>8.4</ele>
        <time>2021-05-18T11:01:56Z</time>
      </trkpt>
      <trkpt lat="41.8516160" lon="-8.8657410">
        <ele>8.4</ele>
        <time>2021-05-18T11:01:57Z</time>
      </trkpt>
      <trkpt lat="41.8516320" lon="-8.8657420">
        <ele>8.4</ele>
        <time>2021-05-18T11:01:58Z</time>
      </trkpt>
      <trkpt lat="41.8516480" lon="-8.8657450">
        <ele>8.4</ele>
        <time>2021-05-18T11:01:59Z</time>
      </trkpt>
      <trkpt lat="41.8516620" lon="-8.8657500">
        <ele>8.4</ele>
        <time>2021-05-18T11:02:00Z</time>
      </trkpt>
      <trkpt lat="41.8516810" lon="-8.8657510">
        <ele>8.4</ele>
        <time>2021-05-18T11:02:01Z</time>
      </trkpt>
      <trkpt lat="41.8516930" lon="-8.8657540">
        <ele>8.4</ele>
        <time>2021-05-18T11:02:02Z</time>
      </trkpt>
      <trkpt lat="41.8517070" lon="-8.8657500">
        <ele>8.4</ele>
        <time>2021-05-18T11:02:03Z</time>
      </trkpt>
      <trkpt lat="41.8517190" lon="-8.8657450">
        <ele>8.4</ele>
        <time>2021-05-18T11:02:04Z</time>
      </trkpt>
      <trkpt lat="41.8517420" lon="-8.8657510">
        <ele>8.4</ele>
        <time>2021-05-18T11:02:05Z</time>
      </trkpt>
      <trkpt lat="41.8517520" lon="-8.8657510">
        <ele>8.4</ele>
        <time>2021-05-18T11:02:06Z</time>
      </trkpt>
      <trkpt lat="41.8517610" lon="-8.8657500">
        <ele>8.4</ele>
        <time>2021-05-18T11:02:07Z</time>
      </trkpt>
      <trkpt lat="41.8517720" lon="-8.8657490">
        <ele>8.4</ele>
        <time>2021-05-18T11:02:08Z</time>
      </trkpt>
      <trkpt lat="41.8517790" lon="-8.8657480">
        <ele>8.4</ele>
        <time>2021-05-18T11:02:09Z</time>
      </trkpt>
      <trkpt lat="41.8517930" lon="-8.8657500">
        <ele>8.4</ele>
        <time>2021-05-18T11:02:10Z</time>
      </trkpt>
      <trkpt lat="41.8518150" lon="-8.8657520">
        <ele>8.4</ele>
        <time>2021-05-18T11:02:11Z</time>
      </trkpt>
      <trkpt lat="41.8518230" lon="-8.8657530">
        <ele>8.4</ele>
        <time>2021-05-18T11:02:12Z</time>
      </trkpt>
      <trkpt lat="41.8518310" lon="-8.8657530">
        <ele>8.4</ele>
        <time>2021-05-18T11:02:13Z</time>
      </trkpt>
      <trkpt lat="41.8518490" lon="-8.8657520">
        <ele>8.4</ele>
        <time>2021-05-18T11:02:14Z</time>
      </trkpt>
      <trkpt lat="41.8518650" lon="-8.8657550">
        <ele>8.4</ele>
        <time>2021-05-18T11:02:15Z</time>
      </trkpt>
      <trkpt lat="41.8518860" lon="-8.8657560">
        <ele>8.4</ele>
        <time>2021-05-18T11:02:16Z</time>
      </trkpt>
      <trkpt lat="41.8518940" lon="-8.8657550">
        <ele>8.4</ele>
        <time>2021-05-18T11:02:17Z</time>
      </trkpt>
      <trkpt lat="41.8519030" lon="-8.8657540">
        <ele>8.3</ele>
        <time>2021-05-18T11:02:18Z</time>
      </trkpt>
      <trkpt lat="41.8519180" lon="-8.8657600">
        <ele>8.3</ele>
        <time>2021-05-18T11:02:19Z</time>
      </trkpt>
      <trkpt lat="41.8519360" lon="-8.8657730">
        <ele>8.3</ele>
        <time>2021-05-18T11:02:20Z</time>
      </trkpt>
      <trkpt lat="41.8519550" lon="-8.8657660">
        <ele>8.3</ele>
        <time>2021-05-18T11:02:21Z</time>
      </trkpt>
      <trkpt lat="41.8519630" lon="-8.8657600">
        <ele>8.3</ele>
        <time>2021-05-18T11:02:22Z</time>
      </trkpt>
      <trkpt lat="41.8519700" lon="-8.8657550">
        <ele>8.3</ele>
        <time>2021-05-18T11:02:23Z</time>
      </trkpt>
      <trkpt lat="41.8519810" lon="-8.8657610">
        <ele>8.3</ele>
        <time>2021-05-18T11:02:24Z</time>
      </trkpt>
      <trkpt lat="41.8519980" lon="-8.8657610">
        <ele>8.3</ele>
        <time>2021-05-18T11:02:25Z</time>
      </trkpt>
      <trkpt lat="41.8520180" lon="-8.8657650">
        <ele>8.3</ele>
        <time>2021-05-18T11:02:26Z</time>
      </trkpt>
      <trkpt lat="41.8520300" lon="-8.8657640">
        <ele>8.3</ele>
        <time>2021-05-18T11:02:27Z</time>
      </trkpt>
      <trkpt lat="41.8520410" lon="-8.8657640">
        <ele>8.3</ele>
        <time>2021-05-18T11:02:28Z</time>
      </trkpt>
      <trkpt lat="41.8520540" lon="-8.8657590">
        <ele>8.2</ele>
        <time>2021-05-18T11:02:29Z</time>
      </trkpt>
      <trkpt lat="41.8520680" lon="-8.8657580">
        <ele>8.2</ele>
        <time>2021-05-18T11:02:30Z</time>
      </trkpt>
      <trkpt lat="41.8520810" lon="-8.8657700">
        <ele>8.2</ele>
        <time>2021-05-18T11:02:31Z</time>
      </trkpt>
      <trkpt lat="41.8520970" lon="-8.8657630">
        <ele>8.2</ele>
        <time>2021-05-18T11:02:32Z</time>
      </trkpt>
      <trkpt lat="41.8521160" lon="-8.8657620">
        <ele>8.2</ele>
        <time>2021-05-18T11:02:33Z</time>
      </trkpt>
      <trkpt lat="41.8521260" lon="-8.8657600">
        <ele>8.2</ele>
        <time>2021-05-18T11:02:34Z</time>
      </trkpt>
      <trkpt lat="41.8521350" lon="-8.8657590">
        <ele>8.2</ele>
        <time>2021-05-18T11:02:35Z</time>
      </trkpt>
      <trkpt lat="41.8521560" lon="-8.8657590">
        <ele>8.1</ele>
        <time>2021-05-18T11:02:36Z</time>
      </trkpt>
      <trkpt lat="41.8521680" lon="-8.8657580">
        <ele>8.1</ele>
        <time>2021-05-18T11:02:37Z</time>
      </trkpt>
      <trkpt lat="41.8521790" lon="-8.8657560">
        <ele>8.1</ele>
        <time>2021-05-18T11:02:38Z</time>
      </trkpt>
      <trkpt lat="41.8521930" lon="-8.8657520">
        <ele>8.1</ele>
        <time>2021-05-18T11:02:39Z</time>
      </trkpt>
      <trkpt lat="41.8522080" lon="-8.8657440">
        <ele>8.1</ele>
        <time>2021-05-18T11:02:40Z</time>
      </trkpt>
      <trkpt lat="41.8522160" lon="-8.8657410">
        <ele>8.1</ele>
        <time>2021-05-18T11:02:41Z</time>
      </trkpt>
      <trkpt lat="41.8522350" lon="-8.8657410">
        <ele>8.0</ele>
        <time>2021-05-18T11:02:42Z</time>
      </trkpt>
      <trkpt lat="41.8522490" lon="-8.8657400">
        <ele>8.0</ele>
        <time>2021-05-18T11:02:43Z</time>
      </trkpt>
      <trkpt lat="41.8522650" lon="-8.8657360">
        <ele>8.0</ele>
        <time>2021-05-18T11:02:44Z</time>
      </trkpt>
      <trkpt lat="41.8522740" lon="-8.8657380">
        <ele>8.0</ele>
        <time>2021-05-18T11:02:45Z</time>
      </trkpt>
      <trkpt lat="41.8522880" lon="-8.8657360">
        <ele>7.9</ele>
        <time>2021-05-18T11:02:46Z</time>
      </trkpt>
      <trkpt lat="41.8523000" lon="-8.8657310">
        <ele>7.9</ele>
        <time>2021-05-18T11:02:47Z</time>
      </trkpt>
      <trkpt lat="41.8523080" lon="-8.8657220">
        <ele>7.9</ele>
        <time>2021-05-18T11:02:48Z</time>
      </trkpt>
      <trkpt lat="41.8523190" lon="-8.8657210">
        <ele>7.8</ele>
        <time>2021-05-18T11:02:49Z</time>
      </trkpt>
      <trkpt lat="41.8523310" lon="-8.8657170">
        <ele>7.8</ele>
        <time>2021-05-18T11:02:50Z</time>
      </trkpt>
      <trkpt lat="41.8523530" lon="-8.8657160">
        <ele>7.8</ele>
        <time>2021-05-18T11:02:51Z</time>
      </trkpt>
      <trkpt lat="41.8523630" lon="-8.8657150">
        <ele>7.7</ele>
        <time>2021-05-18T11:02:52Z</time>
      </trkpt>
      <trkpt lat="41.8523740" lon="-8.8657150">
        <ele>7.7</ele>
        <time>2021-05-18T11:02:53Z</time>
      </trkpt>
      <trkpt lat="41.8523900" lon="-8.8657130">
        <ele>7.7</ele>
        <time>2021-05-18T11:02:54Z</time>
      </trkpt>
      <trkpt lat="41.8524030" lon="-8.8657120">
        <ele>7.6</ele>
        <time>2021-05-18T11:02:55Z</time>
      </trkpt>
      <trkpt lat="41.8524130" lon="-8.8657130">
        <ele>7.6</ele>
        <time>2021-05-18T11:02:56Z</time>
      </trkpt>
      <trkpt lat="41.8524220" lon="-8.8657090">
        <ele>7.6</ele>
        <time>2021-05-18T11:02:57Z</time>
      </trkpt>
      <trkpt lat="41.8524330" lon="-8.8657090">
        <ele>7.6</ele>
        <time>2021-05-18T11:02:58Z</time>
      </trkpt>
      <trkpt lat="41.8524610" lon="-8.8657010">
        <ele>7.5</ele>
        <time>2021-05-18T11:02:59Z</time>
      </trkpt>
      <trkpt lat="41.8524700" lon="-8.8656980">
        <ele>7.5</ele>
        <time>2021-05-18T11:03:00Z</time>
      </trkpt>
      <trkpt lat="41.8524820" lon="-8.8656940">
        <ele>7.4</ele>
        <time>2021-05-18T11:03:01Z</time>
      </trkpt>
      <trkpt lat="41.8525000" lon="-8.8656960">
        <ele>7.4</ele>
        <time>2021-05-18T11:03:02Z</time>
      </trkpt>
      <trkpt lat="41.8525060" lon="-8.8656910">
        <ele>7.3</ele>
        <time>2021-05-18T11:03:03Z</time>
      </trkpt>
      <trkpt lat="41.8525170" lon="-8.8656840">
        <ele>7.3</ele>
        <time>2021-05-18T11:03:04Z</time>
      </trkpt>
      <trkpt lat="41.8525300" lon="-8.8656820">
        <ele>7.3</ele>
        <time>2021-05-18T11:03:05Z</time>
      </trkpt>
      <trkpt lat="41.8525490" lon="-8.8656790">
        <ele>7.2</ele>
        <time>2021-05-18T11:03:06Z</time>
      </trkpt>
      <trkpt lat="41.8525570" lon="-8.8656750">
        <ele>7.2</ele>
        <time>2021-05-18T11:03:07Z</time>
      </trkpt>
      <trkpt lat="41.8525660" lon="-8.8656710">
        <ele>7.1</ele>
        <time>2021-05-18T11:03:08Z</time>
      </trkpt>
      <trkpt lat="41.8525690" lon="-8.8656700">
        <ele>7.1</ele>
        <time>2021-05-18T11:03:09Z</time>
      </trkpt>
      <trkpt lat="41.8525800" lon="-8.8656660">
        <ele>7.1</ele>
        <time>2021-05-18T11:03:10Z</time>
      </trkpt>
      <trkpt lat="41.8525910" lon="-8.8656610">
        <ele>7.0</ele>
        <time>2021-05-18T11:03:11Z</time>
      </trkpt>
      <trkpt lat="41.8526270" lon="-8.8656450">
        <ele>6.9</ele>
        <time>2021-05-18T11:03:13Z</time>
      </trkpt>
      <trkpt lat="41.8526370" lon="-8.8656470">
        <ele>6.9</ele>
        <time>2021-05-18T11:03:14Z</time>
      </trkpt>
      <trkpt lat="41.8526440" lon="-8.8656440">
        <ele>6.8</ele>
        <time>2021-05-18T11:03:15Z</time>
      </trkpt>
      <trkpt lat="41.8526550" lon="-8.8656400">
        <ele>6.8</ele>
        <time>2021-05-18T11:03:16Z</time>
      </trkpt>
      <trkpt lat="41.8526710" lon="-8.8656330">
        <ele>6.7</ele>
        <time>2021-05-18T11:03:17Z</time>
      </trkpt>
      <trkpt lat="41.8527040" lon="-8.8656140">
        <ele>6.6</ele>
        <time>2021-05-18T11:03:19Z</time>
      </trkpt>
      <trkpt lat="41.8527120" lon="-8.8656130">
        <ele>6.6</ele>
        <time>2021-05-18T11:03:20Z</time>
      </trkpt>
      <trkpt lat="41.8527390" lon="-8.8656060">
        <ele>6.5</ele>
        <time>2021-05-18T11:03:22Z</time>
      </trkpt>
      <trkpt lat="41.8527690" lon="-8.8656010">
        <ele>6.3</ele>
        <time>2021-05-18T11:03:23Z</time>
      </trkpt>
      <trkpt lat="41.8527760" lon="-8.8655990">
        <ele>6.3</ele>
        <time>2021-05-18T11:03:24Z</time>
      </trkpt>
      <trkpt lat="41.8527870" lon="-8.8655940">
        <ele>6.3</ele>
        <time>2021-05-18T11:03:25Z</time>
      </trkpt>
      <trkpt lat="41.8528010" lon="-8.8655860">
        <ele>6.2</ele>
        <time>2021-05-18T11:03:26Z</time>
      </trkpt>
      <trkpt lat="41.8528220" lon="-8.8655810">
        <ele>6.1</ele>
        <time>2021-05-18T11:03:27Z</time>
      </trkpt>
      <trkpt lat="41.8528340" lon="-8.8655770">
        <ele>6.1</ele>
        <time>2021-05-18T11:03:28Z</time>
      </trkpt>
      <trkpt lat="41.8528460" lon="-8.8655740">
        <ele>6.0</ele>
        <time>2021-05-18T11:03:29Z</time>
      </trkpt>
      <trkpt lat="41.8528520" lon="-8.8655680">
        <ele>6.0</ele>
        <time>2021-05-18T11:03:30Z</time>
      </trkpt>
      <trkpt lat="41.8528710" lon="-8.8655610">
        <ele>5.9</ele>
        <time>2021-05-18T11:03:31Z</time>
      </trkpt>
      <trkpt lat="41.8528900" lon="-8.8655510">
        <ele>5.9</ele>
        <time>2021-05-18T11:03:32Z</time>
      </trkpt>
      <trkpt lat="41.8529040" lon="-8.8655460">
        <ele>5.8</ele>
        <time>2021-05-18T11:03:33Z</time>
      </trkpt>
      <trkpt lat="41.8529170" lon="-8.8655400">
        <ele>5.8</ele>
        <time>2021-05-18T11:03:34Z</time>
      </trkpt>
      <trkpt lat="41.8529250" lon="-8.8655380">
        <ele>5.8</ele>
        <time>2021-05-18T11:03:35Z</time>
      </trkpt>
      <trkpt lat="41.8529320" lon="-8.8655340">
        <ele>5.8</ele>
        <time>2021-05-18T11:03:36Z</time>
      </trkpt>
      <trkpt lat="41.8529390" lon="-8.8655370">
        <ele>5.8</ele>
        <time>2021-05-18T11:03:37Z</time>
      </trkpt>
      <trkpt lat="41.8529430" lon="-8.8655330">
        <ele>5.8</ele>
        <time>2021-05-18T11:03:38Z</time>
      </trkpt>
      <trkpt lat="41.8529370" lon="-8.8655230">
        <ele>5.8</ele>
        <time>2021-05-18T11:03:39Z</time>
      </trkpt>
      <trkpt lat="41.8529440" lon="-8.8655100">
        <ele>5.8</ele>
        <time>2021-05-18T11:03:40Z</time>
      </trkpt>
      <trkpt lat="41.8529500" lon="-8.8655010">
        <ele>5.8</ele>
        <time>2021-05-18T11:03:41Z</time>
      </trkpt>
      <trkpt lat="41.8529490" lon="-8.8654940">
        <ele>5.8</ele>
        <time>2021-05-18T11:03:42Z</time>
      </trkpt>
      <trkpt lat="41.8529400" lon="-8.8655100">
        <ele>5.8</ele>
        <time>2021-05-18T11:03:43Z</time>
      </trkpt>
      <trkpt lat="41.8529380" lon="-8.8654910">
        <ele>5.7</ele>
        <time>2021-05-18T11:03:44Z</time>
      </trkpt>
      <trkpt lat="41.8529380" lon="-8.8654960">
        <ele>5.7</ele>
        <time>2021-05-18T11:03:45Z</time>
      </trkpt>
      <trkpt lat="41.8529350" lon="-8.8654960">
        <ele>5.7</ele>
        <time>2021-05-18T11:03:46Z</time>
      </trkpt>
      <trkpt lat="41.8529330" lon="-8.8654970">
        <ele>5.7</ele>
        <time>2021-05-18T11:03:47Z</time>
      </trkpt>
      <trkpt lat="41.8529270" lon="-8.8654960">
        <ele>5.7</ele>
        <time>2021-05-18T11:03:48Z</time>
      </trkpt>
      <trkpt lat="41.8529230" lon="-8.8654950">
        <ele>5.7</ele>
        <time>2021-05-18T11:03:49Z</time>
      </trkpt>
      <trkpt lat="41.8529240" lon="-8.8654930">
        <ele>5.7</ele>
        <time>2021-05-18T11:03:50Z</time>
      </trkpt>
      <trkpt lat="41.8529240" lon="-8.8654910">
        <ele>5.7</ele>
        <time>2021-05-18T11:03:51Z</time>
      </trkpt>
      <trkpt lat="41.8529240" lon="-8.8654890">
        <ele>5.7</ele>
        <time>2021-05-18T11:03:52Z</time>
      </trkpt>
      <trkpt lat="41.8529230" lon="-8.8654880">
        <ele>5.7</ele>
        <time>2021-05-18T11:03:53Z</time>
      </trkpt>
      <trkpt lat="41.8529220" lon="-8.8654840">
        <ele>5.7</ele>
        <time>2021-05-18T11:03:54Z</time>
      </trkpt>
      <trkpt lat="41.8529200" lon="-8.8654870">
        <ele>5.7</ele>
        <time>2021-05-18T11:03:55Z</time>
      </trkpt>
      <trkpt lat="41.8529200" lon="-8.8654870">
        <ele>5.7</ele>
        <time>2021-05-18T11:03:56Z</time>
      </trkpt>
      <trkpt lat="41.8529180" lon="-8.8654840">
        <ele>5.7</ele>
        <time>2021-05-18T11:03:57Z</time>
      </trkpt>
      <trkpt lat="41.8529170" lon="-8.8654810">
        <ele>5.7</ele>
        <time>2021-05-18T11:03:58Z</time>
      </trkpt>
      <trkpt lat="41.8529160" lon="-8.8654820">
        <ele>5.7</ele>
        <time>2021-05-18T11:03:59Z</time>
      </trkpt>
      <trkpt lat="41.8529090" lon="-8.8654830">
        <ele>5.6</ele>
        <time>2021-05-18T11:04:00Z</time>
      </trkpt>
      <trkpt lat="41.8529090" lon="-8.8654840">
        <ele>5.6</ele>
        <time>2021-05-18T11:04:01Z</time>
      </trkpt>
      <trkpt lat="41.8529100" lon="-8.8654860">
        <ele>5.6</ele>
        <time>2021-05-18T11:04:02Z</time>
      </trkpt>
      <trkpt lat="41.8529130" lon="-8.8654890">
        <ele>5.6</ele>
        <time>2021-05-18T11:04:03Z</time>
      </trkpt>
      <trkpt lat="41.8529130" lon="-8.8654900">
        <ele>5.6</ele>
        <time>2021-05-18T11:04:04Z</time>
      </trkpt>
      <trkpt lat="41.8529160" lon="-8.8654940">
        <ele>5.6</ele>
        <time>2021-05-18T11:04:05Z</time>
      </trkpt>
      <trkpt lat="41.8529170" lon="-8.8655010">
        <ele>5.6</ele>
        <time>2021-05-18T11:04:06Z</time>
      </trkpt>
      <trkpt lat="41.8529280" lon="-8.8654920">
        <ele>5.6</ele>
        <time>2021-05-18T11:04:07Z</time>
      </trkpt>
      <trkpt lat="41.8529410" lon="-8.8654870">
        <ele>5.6</ele>
        <time>2021-05-18T11:04:08Z</time>
      </trkpt>
      <trkpt lat="41.8529490" lon="-8.8654810">
        <ele>5.6</ele>
        <time>2021-05-18T11:04:09Z</time>
      </trkpt>
      <trkpt lat="41.8529610" lon="-8.8654760">
        <ele>5.5</ele>
        <time>2021-05-18T11:04:10Z</time>
      </trkpt>
      <trkpt lat="41.8529680" lon="-8.8654720">
        <ele>5.5</ele>
        <time>2021-05-18T11:04:11Z</time>
      </trkpt>
      <trkpt lat="41.8529620" lon="-8.8654810">
        <ele>5.5</ele>
        <time>2021-05-18T11:04:12Z</time>
      </trkpt>
      <trkpt lat="41.8529820" lon="-8.8654780">
        <ele>5.5</ele>
        <time>2021-05-18T11:04:13Z</time>
      </trkpt>
      <trkpt lat="41.8530100" lon="-8.8654740">
        <ele>5.4</ele>
        <time>2021-05-18T11:04:14Z</time>
      </trkpt>
      <trkpt lat="41.8530200" lon="-8.8654700">
        <ele>5.4</ele>
        <time>2021-05-18T11:04:15Z</time>
      </trkpt>
      <trkpt lat="41.8530360" lon="-8.8654610">
        <ele>5.4</ele>
        <time>2021-05-18T11:04:16Z</time>
      </trkpt>
      <trkpt lat="41.8530450" lon="-8.8654580">
        <ele>5.4</ele>
        <time>2021-05-18T11:04:17Z</time>
      </trkpt>
      <trkpt lat="41.8530550" lon="-8.8654540">
        <ele>5.4</ele>
        <time>2021-05-18T11:04:18Z</time>
      </trkpt>
      <trkpt lat="41.8530690" lon="-8.8654510">
        <ele>5.4</ele>
        <time>2021-05-18T11:04:19Z</time>
      </trkpt>
      <trkpt lat="41.8530830" lon="-8.8654510">
        <ele>5.4</ele>
        <time>2021-05-18T11:04:20Z</time>
      </trkpt>
      <trkpt lat="41.8530980" lon="-8.8654440">
        <ele>5.4</ele>
        <time>2021-05-18T11:04:21Z</time>
      </trkpt>
      <trkpt lat="41.8531140" lon="-8.8654440">
        <ele>5.4</ele>
        <time>2021-05-18T11:04:22Z</time>
      </trkpt>
      <trkpt lat="41.8531420" lon="-8.8654350">
        <ele>5.3</ele>
        <time>2021-05-18T11:04:23Z</time>
      </trkpt>
      <trkpt lat="41.8531500" lon="-8.8654360">
        <ele>5.3</ele>
        <time>2021-05-18T11:04:24Z</time>
      </trkpt>
      <trkpt lat="41.8531810" lon="-8.8654270">
        <ele>5.3</ele>
        <time>2021-05-18T11:04:25Z</time>
      </trkpt>
      <trkpt lat="41.8531900" lon="-8.8654240">
        <ele>5.3</ele>
        <time>2021-05-18T11:04:26Z</time>
      </trkpt>
      <trkpt lat="41.8532180" lon="-8.8654170">
        <ele>5.3</ele>
        <time>2021-05-18T11:04:27Z</time>
      </trkpt>
      <trkpt lat="41.8532270" lon="-8.8654150">
        <ele>5.3</ele>
        <time>2021-05-18T11:04:28Z</time>
      </trkpt>
      <trkpt lat="41.8532400" lon="-8.8654020">
        <ele>5.3</ele>
        <time>2021-05-18T11:04:29Z</time>
      </trkpt>
      <trkpt lat="41.8532550" lon="-8.8653950">
        <ele>5.2</ele>
        <time>2021-05-18T11:04:30Z</time>
      </trkpt>
      <trkpt lat="41.8532690" lon="-8.8653880">
        <ele>5.2</ele>
        <time>2021-05-18T11:04:31Z</time>
      </trkpt>
      <trkpt lat="41.8532830" lon="-8.8653750">
        <ele>5.2</ele>
        <time>2021-05-18T11:04:32Z</time>
      </trkpt>
      <trkpt lat="41.8533010" lon="-8.8653740">
        <ele>5.2</ele>
        <time>2021-05-18T11:04:33Z</time>
      </trkpt>
      <trkpt lat="41.8533190" lon="-8.8653720">
        <ele>5.2</ele>
        <time>2021-05-18T11:04:34Z</time>
      </trkpt>
      <trkpt lat="41.8533350" lon="-8.8653690">
        <ele>5.2</ele>
        <time>2021-05-18T11:04:35Z</time>
      </trkpt>
      <trkpt lat="41.8533540" lon="-8.8653730">
        <ele>5.2</ele>
        <time>2021-05-18T11:04:36Z</time>
      </trkpt>
      <trkpt lat="41.8533720" lon="-8.8653700">
        <ele>5.2</ele>
        <time>2021-05-18T11:04:37Z</time>
      </trkpt>
      <trkpt lat="41.8533860" lon="-8.8653690">
        <ele>5.2</ele>
        <time>2021-05-18T11:04:38Z</time>
      </trkpt>
      <trkpt lat="41.8534000" lon="-8.8653680">
        <ele>5.1</ele>
        <time>2021-05-18T11:04:39Z</time>
      </trkpt>
      <trkpt lat="41.8534170" lon="-8.8653660">
        <ele>5.1</ele>
        <time>2021-05-18T11:04:40Z</time>
      </trkpt>
      <trkpt lat="41.8534330" lon="-8.8653640">
        <ele>5.1</ele>
        <time>2021-05-18T11:04:41Z</time>
      </trkpt>
      <trkpt lat="41.8534480" lon="-8.8653650">
        <ele>5.1</ele>
        <time>2021-05-18T11:04:42Z</time>
      </trkpt>
      <trkpt lat="41.8534630" lon="-8.8653770">
        <ele>5.1</ele>
        <time>2021-05-18T11:04:43Z</time>
      </trkpt>
      <trkpt lat="41.8534780" lon="-8.8653770">
        <ele>5.1</ele>
        <time>2021-05-18T11:04:44Z</time>
      </trkpt>
      <trkpt lat="41.8534930" lon="-8.8653670">
        <ele>5.1</ele>
        <time>2021-05-18T11:04:45Z</time>
      </trkpt>
      <trkpt lat="41.8535080" lon="-8.8653700">
        <ele>5.0</ele>
        <time>2021-05-18T11:04:46Z</time>
      </trkpt>
      <trkpt lat="41.8535240" lon="-8.8653680">
        <ele>5.0</ele>
        <time>2021-05-18T11:04:47Z</time>
      </trkpt>
      <trkpt lat="41.8535390" lon="-8.8653750">
        <ele>5.0</ele>
        <time>2021-05-18T11:04:48Z</time>
      </trkpt>
      <trkpt lat="41.8535540" lon="-8.8653830">
        <ele>5.0</ele>
        <time>2021-05-18T11:04:49Z</time>
      </trkpt>
      <trkpt lat="41.8535610" lon="-8.8653910">
        <ele>5.0</ele>
        <time>2021-05-18T11:04:50Z</time>
      </trkpt>
      <trkpt lat="41.8535640" lon="-8.8653900">
        <ele>5.0</ele>
        <time>2021-05-18T11:04:51Z</time>
      </trkpt>
      <trkpt lat="41.8535740" lon="-8.8653890">
        <ele>5.0</ele>
        <time>2021-05-18T11:04:52Z</time>
      </trkpt>
      <trkpt lat="41.8535870" lon="-8.8653910">
        <ele>4.9</ele>
        <time>2021-05-18T11:04:53Z</time>
      </trkpt>
      <trkpt lat="41.8535990" lon="-8.8653990">
        <ele>4.9</ele>
        <time>2021-05-18T11:04:54Z</time>
      </trkpt>
      <trkpt lat="41.8536140" lon="-8.8653970">
        <ele>4.9</ele>
        <time>2021-05-18T11:04:55Z</time>
      </trkpt>
      <trkpt lat="41.8536210" lon="-8.8653970">
        <ele>4.9</ele>
        <time>2021-05-18T11:04:56Z</time>
      </trkpt>
      <trkpt lat="41.8536290" lon="-8.8653960">
        <ele>4.9</ele>
        <time>2021-05-18T11:04:57Z</time>
      </trkpt>
      <trkpt lat="41.8536360" lon="-8.8653960">
        <ele>4.9</ele>
        <time>2021-05-18T11:04:58Z</time>
      </trkpt>
      <trkpt lat="41.8536470" lon="-8.8653930">
        <ele>4.8</ele>
        <time>2021-05-18T11:04:59Z</time>
      </trkpt>
      <trkpt lat="41.8536600" lon="-8.8653950">
        <ele>4.8</ele>
        <time>2021-05-18T11:05:00Z</time>
      </trkpt>
      <trkpt lat="41.8536710" lon="-8.8654020">
        <ele>4.8</ele>
        <time>2021-05-18T11:05:01Z</time>
      </trkpt>
      <trkpt lat="41.8536910" lon="-8.8653970">
        <ele>4.7</ele>
        <time>2021-05-18T11:05:02Z</time>
      </trkpt>
      <trkpt lat="41.8537010" lon="-8.8653980">
        <ele>4.7</ele>
        <time>2021-05-18T11:05:03Z</time>
      </trkpt>
      <trkpt lat="41.8537110" lon="-8.8653980">
        <ele>4.7</ele>
        <time>2021-05-18T11:05:04Z</time>
      </trkpt>
      <trkpt lat="41.8537250" lon="-8.8654050">
        <ele>4.7</ele>
        <time>2021-05-18T11:05:05Z</time>
      </trkpt>
      <trkpt lat="41.8537330" lon="-8.8654110">
        <ele>4.6</ele>
        <time>2021-05-18T11:05:06Z</time>
      </trkpt>
      <trkpt lat="41.8537460" lon="-8.8654080">
        <ele>4.6</ele>
        <time>2021-05-18T11:05:07Z</time>
      </trkpt>
      <trkpt lat="41.8537690" lon="-8.8654040">
        <ele>4.5</ele>
        <time>2021-05-18T11:05:08Z</time>
      </trkpt>
      <trkpt lat="41.8537750" lon="-8.8654020">
        <ele>4.5</ele>
        <time>2021-05-18T11:05:09Z</time>
      </trkpt>
      <trkpt lat="41.8537820" lon="-8.8654010">
        <ele>4.5</ele>
        <time>2021-05-18T11:05:10Z</time>
      </trkpt>
      <trkpt lat="41.8537860" lon="-8.8653960">
        <ele>4.5</ele>
        <time>2021-05-18T11:05:11Z</time>
      </trkpt>
      <trkpt lat="41.8537990" lon="-8.8653850">
        <ele>4.5</ele>
        <time>2021-05-18T11:05:12Z</time>
      </trkpt>
      <trkpt lat="41.8538070" lon="-8.8653820">
        <ele>4.4</ele>
        <time>2021-05-18T11:05:13Z</time>
      </trkpt>
      <trkpt lat="41.8538230" lon="-8.8653810">
        <ele>4.4</ele>
        <time>2021-05-18T11:05:14Z</time>
      </trkpt>
      <trkpt lat="41.8538310" lon="-8.8653790">
        <ele>4.4</ele>
        <time>2021-05-18T11:05:15Z</time>
      </trkpt>
      <trkpt lat="41.8538400" lon="-8.8653780">
        <ele>4.4</ele>
        <time>2021-05-18T11:05:16Z</time>
      </trkpt>
      <trkpt lat="41.8538630" lon="-8.8653710">
        <ele>4.3</ele>
        <time>2021-05-18T11:05:17Z</time>
      </trkpt>
      <trkpt lat="41.8538720" lon="-8.8653730">
        <ele>4.3</ele>
        <time>2021-05-18T11:05:18Z</time>
      </trkpt>
      <trkpt lat="41.8538800" lon="-8.8653750">
        <ele>4.3</ele>
        <time>2021-05-18T11:05:19Z</time>
      </trkpt>
      <trkpt lat="41.8538930" lon="-8.8653690">
        <ele>4.2</ele>
        <time>2021-05-18T11:05:20Z</time>
      </trkpt>
      <trkpt lat="41.8539040" lon="-8.8653630">
        <ele>4.2</ele>
        <time>2021-05-18T11:05:21Z</time>
      </trkpt>
      <trkpt lat="41.8539150" lon="-8.8653630">
        <ele>4.2</ele>
        <time>2021-05-18T11:05:22Z</time>
      </trkpt>
      <trkpt lat="41.8539280" lon="-8.8653590">
        <ele>4.2</ele>
        <time>2021-05-18T11:05:23Z</time>
      </trkpt>
      <trkpt lat="41.8539490" lon="-8.8653510">
        <ele>4.1</ele>
        <time>2021-05-18T11:05:24Z</time>
      </trkpt>
      <trkpt lat="41.8539620" lon="-8.8653400">
        <ele>4.1</ele>
        <time>2021-05-18T11:05:25Z</time>
      </trkpt>
      <trkpt lat="41.8539700" lon="-8.8653330">
        <ele>4.1</ele>
        <time>2021-05-18T11:05:26Z</time>
      </trkpt>
      <trkpt lat="41.8539770" lon="-8.8653250">
        <ele>4.1</ele>
        <time>2021-05-18T11:05:27Z</time>
      </trkpt>
      <trkpt lat="41.8539850" lon="-8.8653170">
        <ele>4.1</ele>
        <time>2021-05-18T11:05:28Z</time>
      </trkpt>
      <trkpt lat="41.8540050" lon="-8.8653120">
        <ele>4.1</ele>
        <time>2021-05-18T11:05:29Z</time>
      </trkpt>
      <trkpt lat="41.8540150" lon="-8.8653080">
        <ele>4.1</ele>
        <time>2021-05-18T11:05:30Z</time>
      </trkpt>
      <trkpt lat="41.8540250" lon="-8.8653050">
        <ele>4.1</ele>
        <time>2021-05-18T11:05:31Z</time>
      </trkpt>
      <trkpt lat="41.8540380" lon="-8.8652990">
        <ele>4.1</ele>
        <time>2021-05-18T11:05:32Z</time>
      </trkpt>
      <trkpt lat="41.8540580" lon="-8.8652940">
        <ele>4.0</ele>
        <time>2021-05-18T11:05:33Z</time>
      </trkpt>
      <trkpt lat="41.8540750" lon="-8.8652890">
        <ele>4.0</ele>
        <time>2021-05-18T11:05:34Z</time>
      </trkpt>
      <trkpt lat="41.8540910" lon="-8.8652880">
        <ele>4.0</ele>
        <time>2021-05-18T11:05:35Z</time>
      </trkpt>
      <trkpt lat="41.8541070" lon="-8.8652940">
        <ele>4.0</ele>
        <time>2021-05-18T11:05:36Z</time>
      </trkpt>
      <trkpt lat="41.8541240" lon="-8.8652900">
        <ele>4.0</ele>
        <time>2021-05-18T11:05:37Z</time>
      </trkpt>
      <trkpt lat="41.8541540" lon="-8.8652930">
        <ele>4.1</ele>
        <time>2021-05-18T11:05:38Z</time>
      </trkpt>
      <trkpt lat="41.8541640" lon="-8.8652920">
        <ele>4.1</ele>
        <time>2021-05-18T11:05:39Z</time>
      </trkpt>
      <trkpt lat="41.8541810" lon="-8.8652940">
        <ele>4.1</ele>
        <time>2021-05-18T11:05:40Z</time>
      </trkpt>
      <trkpt lat="41.8541920" lon="-8.8652940">
        <ele>4.1</ele>
        <time>2021-05-18T11:05:41Z</time>
      </trkpt>
      <trkpt lat="41.8542060" lon="-8.8652860">
        <ele>4.1</ele>
        <time>2021-05-18T11:05:42Z</time>
      </trkpt>
      <trkpt lat="41.8542210" lon="-8.8652850">
        <ele>4.1</ele>
        <time>2021-05-18T11:05:43Z</time>
      </trkpt>
      <trkpt lat="41.8542350" lon="-8.8652810">
        <ele>4.1</ele>
        <time>2021-05-18T11:05:44Z</time>
      </trkpt>
      <trkpt lat="41.8542490" lon="-8.8652750">
        <ele>4.1</ele>
        <time>2021-05-18T11:05:45Z</time>
      </trkpt>
      <trkpt lat="41.8542630" lon="-8.8652680">
        <ele>4.1</ele>
        <time>2021-05-18T11:05:46Z</time>
      </trkpt>
      <trkpt lat="41.8542780" lon="-8.8652680">
        <ele>4.1</ele>
        <time>2021-05-18T11:05:47Z</time>
      </trkpt>
      <trkpt lat="41.8542940" lon="-8.8652720">
        <ele>4.1</ele>
        <time>2021-05-18T11:05:48Z</time>
      </trkpt>
      <trkpt lat="41.8543120" lon="-8.8652710">
        <ele>4.1</ele>
        <time>2021-05-18T11:05:49Z</time>
      </trkpt>
      <trkpt lat="41.8543290" lon="-8.8652720">
        <ele>4.1</ele>
        <time>2021-05-18T11:05:50Z</time>
      </trkpt>
      <trkpt lat="41.8543430" lon="-8.8652730">
        <ele>4.1</ele>
        <time>2021-05-18T11:05:51Z</time>
      </trkpt>
      <trkpt lat="41.8543600" lon="-8.8652740">
        <ele>4.1</ele>
        <time>2021-05-18T11:05:52Z</time>
      </trkpt>
      <trkpt lat="41.8543750" lon="-8.8652760">
        <ele>4.1</ele>
        <time>2021-05-18T11:05:53Z</time>
      </trkpt>
      <trkpt lat="41.8543910" lon="-8.8652750">
        <ele>4.1</ele>
        <time>2021-05-18T11:05:54Z</time>
      </trkpt>
      <trkpt lat="41.8544080" lon="-8.8652740">
        <ele>4.1</ele>
        <time>2021-05-18T11:05:55Z</time>
      </trkpt>
      <trkpt lat="41.8544260" lon="-8.8652750">
        <ele>4.1</ele>
        <time>2021-05-18T11:05:56Z</time>
      </trkpt>
      <trkpt lat="41.8544420" lon="-8.8652760">
        <ele>4.1</ele>
        <time>2021-05-18T11:05:57Z</time>
      </trkpt>
      <trkpt lat="41.8544590" lon="-8.8652780">
        <ele>4.1</ele>
        <time>2021-05-18T11:05:58Z</time>
      </trkpt>
      <trkpt lat="41.8544740" lon="-8.8652750">
        <ele>4.1</ele>
        <time>2021-05-18T11:05:59Z</time>
      </trkpt>
      <trkpt lat="41.8544900" lon="-8.8652690">
        <ele>4.1</ele>
        <time>2021-05-18T11:06:00Z</time>
      </trkpt>
      <trkpt lat="41.8545070" lon="-8.8652630">
        <ele>4.1</ele>
        <time>2021-05-18T11:06:01Z</time>
      </trkpt>
      <trkpt lat="41.8545210" lon="-8.8652500">
        <ele>4.1</ele>
        <time>2021-05-18T11:06:02Z</time>
      </trkpt>
      <trkpt lat="41.8545370" lon="-8.8652530">
        <ele>4.2</ele>
        <time>2021-05-18T11:06:03Z</time>
      </trkpt>
      <trkpt lat="41.8545510" lon="-8.8652480">
        <ele>4.2</ele>
        <time>2021-05-18T11:06:04Z</time>
      </trkpt>
      <trkpt lat="41.8545650" lon="-8.8652450">
        <ele>4.2</ele>
        <time>2021-05-18T11:06:05Z</time>
      </trkpt>
      <trkpt lat="41.8545790" lon="-8.8652440">
        <ele>4.2</ele>
        <time>2021-05-18T11:06:06Z</time>
      </trkpt>
      <trkpt lat="41.8545930" lon="-8.8652380">
        <ele>4.2</ele>
        <time>2021-05-18T11:06:07Z</time>
      </trkpt>
      <trkpt lat="41.8546100" lon="-8.8652400">
        <ele>4.2</ele>
        <time>2021-05-18T11:06:08Z</time>
      </trkpt>
      <trkpt lat="41.8546250" lon="-8.8652450">
        <ele>4.3</ele>
        <time>2021-05-18T11:06:09Z</time>
      </trkpt>
      <trkpt lat="41.8546390" lon="-8.8652540">
        <ele>4.3</ele>
        <time>2021-05-18T11:06:10Z</time>
      </trkpt>
      <trkpt lat="41.8546550" lon="-8.8652560">
        <ele>4.3</ele>
        <time>2021-05-18T11:06:11Z</time>
      </trkpt>
      <trkpt lat="41.8546690" lon="-8.8652660">
        <ele>4.3</ele>
        <time>2021-05-18T11:06:12Z</time>
      </trkpt>
      <trkpt lat="41.8546800" lon="-8.8652770">
        <ele>4.3</ele>
        <time>2021-05-18T11:06:13Z</time>
      </trkpt>
      <trkpt lat="41.8546940" lon="-8.8652800">
        <ele>4.3</ele>
        <time>2021-05-18T11:06:14Z</time>
      </trkpt>
      <trkpt lat="41.8547010" lon="-8.8652860">
        <ele>4.3</ele>
        <time>2021-05-18T11:06:15Z</time>
      </trkpt>
      <trkpt lat="41.8547040" lon="-8.8652980">
        <ele>4.4</ele>
        <time>2021-05-18T11:06:16Z</time>
      </trkpt>
      <trkpt lat="41.8547100" lon="-8.8653090">
        <ele>4.4</ele>
        <time>2021-05-18T11:06:17Z</time>
      </trkpt>
      <trkpt lat="41.8547200" lon="-8.8653210">
        <ele>4.4</ele>
        <time>2021-05-18T11:06:18Z</time>
      </trkpt>
      <trkpt lat="41.8547310" lon="-8.8653310">
        <ele>4.4</ele>
        <time>2021-05-18T11:06:19Z</time>
      </trkpt>
      <trkpt lat="41.8547360" lon="-8.8653380">
        <ele>4.4</ele>
        <time>2021-05-18T11:06:20Z</time>
      </trkpt>
      <trkpt lat="41.8547360" lon="-8.8653470">
        <ele>4.4</ele>
        <time>2021-05-18T11:06:21Z</time>
      </trkpt>
      <trkpt lat="41.8547350" lon="-8.8653660">
        <ele>4.3</ele>
        <time>2021-05-18T11:06:22Z</time>
      </trkpt>
      <trkpt lat="41.8547440" lon="-8.8653750">
        <ele>4.3</ele>
        <time>2021-05-18T11:06:23Z</time>
      </trkpt>
      <trkpt lat="41.8547580" lon="-8.8653920">
        <ele>4.3</ele>
        <time>2021-05-18T11:06:24Z</time>
      </trkpt>
      <trkpt lat="41.8547640" lon="-8.8653930">
        <ele>4.3</ele>
        <time>2021-05-18T11:06:25Z</time>
      </trkpt>
      <trkpt lat="41.8547690" lon="-8.8653950">
        <ele>4.3</ele>
        <time>2021-05-18T11:06:26Z</time>
      </trkpt>
      <trkpt lat="41.8547750" lon="-8.8653960">
        <ele>4.3</ele>
        <time>2021-05-18T11:06:27Z</time>
      </trkpt>
      <trkpt lat="41.8547800" lon="-8.8653980">
        <ele>4.3</ele>
        <time>2021-05-18T11:06:28Z</time>
      </trkpt>
      <trkpt lat="41.8547890" lon="-8.8654030">
        <ele>4.3</ele>
        <time>2021-05-18T11:06:29Z</time>
      </trkpt>
      <trkpt lat="41.8547980" lon="-8.8654000">
        <ele>4.3</ele>
        <time>2021-05-18T11:06:30Z</time>
      </trkpt>
      <trkpt lat="41.8548080" lon="-8.8654040">
        <ele>4.3</ele>
        <time>2021-05-18T11:06:31Z</time>
      </trkpt>
      <trkpt lat="41.8548310" lon="-8.8654140">
        <ele>4.3</ele>
        <time>2021-05-18T11:06:32Z</time>
      </trkpt>
      <trkpt lat="41.8548410" lon="-8.8654200">
        <ele>4.3</ele>
        <time>2021-05-18T11:06:33Z</time>
      </trkpt>
      <trkpt lat="41.8548510" lon="-8.8654260">
        <ele>4.2</ele>
        <time>2021-05-18T11:06:34Z</time>
      </trkpt>
      <trkpt lat="41.8548520" lon="-8.8654290">
        <ele>4.2</ele>
        <time>2021-05-18T11:06:35Z</time>
      </trkpt>
      <trkpt lat="41.8548530" lon="-8.8654340">
        <ele>4.2</ele>
        <time>2021-05-18T11:06:36Z</time>
      </trkpt>
      <trkpt lat="41.8548610" lon="-8.8654450">
        <ele>4.2</ele>
        <time>2021-05-18T11:06:37Z</time>
      </trkpt>
      <trkpt lat="41.8548710" lon="-8.8654540">
        <ele>4.2</ele>
        <time>2021-05-18T11:06:38Z</time>
      </trkpt>
      <trkpt lat="41.8548840" lon="-8.8654650">
        <ele>4.2</ele>
        <time>2021-05-18T11:06:39Z</time>
      </trkpt>
      <trkpt lat="41.8548930" lon="-8.8654730">
        <ele>4.2</ele>
        <time>2021-05-18T11:06:40Z</time>
      </trkpt>
      <trkpt lat="41.8548970" lon="-8.8654770">
        <ele>4.2</ele>
        <time>2021-05-18T11:06:41Z</time>
      </trkpt>
      <trkpt lat="41.8549010" lon="-8.8654780">
        <ele>4.2</ele>
        <time>2021-05-18T11:06:42Z</time>
      </trkpt>
      <trkpt lat="41.8549130" lon="-8.8654720">
        <ele>4.2</ele>
        <time>2021-05-18T11:06:43Z</time>
      </trkpt>
      <trkpt lat="41.8549320" lon="-8.8654760">
        <ele>4.1</ele>
        <time>2021-05-18T11:06:44Z</time>
      </trkpt>
      <trkpt lat="41.8549530" lon="-8.8654800">
        <ele>4.1</ele>
        <time>2021-05-18T11:06:45Z</time>
      </trkpt>
      <trkpt lat="41.8549620" lon="-8.8654780">
        <ele>4.1</ele>
        <time>2021-05-18T11:06:46Z</time>
      </trkpt>
      <trkpt lat="41.8549700" lon="-8.8654770">
        <ele>4.1</ele>
        <time>2021-05-18T11:06:47Z</time>
      </trkpt>
      <trkpt lat="41.8550050" lon="-8.8654740">
        <ele>4.1</ele>
        <time>2021-05-18T11:06:48Z</time>
      </trkpt>
      <trkpt lat="41.8550170" lon="-8.8654720">
        <ele>4.1</ele>
        <time>2021-05-18T11:06:49Z</time>
      </trkpt>
      <trkpt lat="41.8550480" lon="-8.8654710">
        <ele>4.0</ele>
        <time>2021-05-18T11:06:50Z</time>
      </trkpt>
      <trkpt lat="41.8550580" lon="-8.8654680">
        <ele>4.0</ele>
        <time>2021-05-18T11:06:51Z</time>
      </trkpt>
      <trkpt lat="41.8550870" lon="-8.8654720">
        <ele>4.0</ele>
        <time>2021-05-18T11:06:52Z</time>
      </trkpt>
      <trkpt lat="41.8550970" lon="-8.8654750">
        <ele>4.0</ele>
        <time>2021-05-18T11:06:53Z</time>
      </trkpt>
      <trkpt lat="41.8551140" lon="-8.8654680">
        <ele>4.0</ele>
        <time>2021-05-18T11:06:54Z</time>
      </trkpt>
      <trkpt lat="41.8551300" lon="-8.8654680">
        <ele>4.0</ele>
        <time>2021-05-18T11:06:55Z</time>
      </trkpt>
      <trkpt lat="41.8551450" lon="-8.8654700">
        <ele>4.0</ele>
        <time>2021-05-18T11:06:56Z</time>
      </trkpt>
      <trkpt lat="41.8551630" lon="-8.8654640">
        <ele>4.0</ele>
        <time>2021-05-18T11:06:57Z</time>
      </trkpt>
      <trkpt lat="41.8551790" lon="-8.8654640">
        <ele>4.0</ele>
        <time>2021-05-18T11:06:58Z</time>
      </trkpt>
      <trkpt lat="41.8551970" lon="-8.8654700">
        <ele>4.0</ele>
        <time>2021-05-18T11:06:59Z</time>
      </trkpt>
      <trkpt lat="41.8552120" lon="-8.8654720">
        <ele>4.0</ele>
        <time>2021-05-18T11:07:00Z</time>
      </trkpt>
      <trkpt lat="41.8552270" lon="-8.8654750">
        <ele>3.9</ele>
        <time>2021-05-18T11:07:01Z</time>
      </trkpt>
      <trkpt lat="41.8552420" lon="-8.8654730">
        <ele>3.9</ele>
        <time>2021-05-18T11:07:02Z</time>
      </trkpt>
      <trkpt lat="41.8552580" lon="-8.8654740">
        <ele>3.9</ele>
        <time>2021-05-18T11:07:03Z</time>
      </trkpt>
      <trkpt lat="41.8552760" lon="-8.8654760">
        <ele>3.9</ele>
        <time>2021-05-18T11:07:04Z</time>
      </trkpt>
      <trkpt lat="41.8552940" lon="-8.8654780">
        <ele>3.9</ele>
        <time>2021-05-18T11:07:05Z</time>
      </trkpt>
      <trkpt lat="41.8553090" lon="-8.8654810">
        <ele>3.9</ele>
        <time>2021-05-18T11:07:06Z</time>
      </trkpt>
      <trkpt lat="41.8553250" lon="-8.8654790">
        <ele>3.9</ele>
        <time>2021-05-18T11:07:07Z</time>
      </trkpt>
      <trkpt lat="41.8553400" lon="-8.8654800">
        <ele>3.9</ele>
        <time>2021-05-18T11:07:08Z</time>
      </trkpt>
      <trkpt lat="41.8553550" lon="-8.8654790">
        <ele>3.9</ele>
        <time>2021-05-18T11:07:09Z</time>
      </trkpt>
      <trkpt lat="41.8553700" lon="-8.8654750">
        <ele>3.9</ele>
        <time>2021-05-18T11:07:10Z</time>
      </trkpt>
      <trkpt lat="41.8553850" lon="-8.8654690">
        <ele>3.9</ele>
        <time>2021-05-18T11:07:11Z</time>
      </trkpt>
      <trkpt lat="41.8554000" lon="-8.8654660">
        <ele>3.9</ele>
        <time>2021-05-18T11:07:12Z</time>
      </trkpt>
      <trkpt lat="41.8554130" lon="-8.8654600">
        <ele>3.9</ele>
        <time>2021-05-18T11:07:13Z</time>
      </trkpt>
      <trkpt lat="41.8554290" lon="-8.8654490">
        <ele>3.9</ele>
        <time>2021-05-18T11:07:14Z</time>
      </trkpt>
      <trkpt lat="41.8554440" lon="-8.8654400">
        <ele>3.9</ele>
        <time>2021-05-18T11:07:15Z</time>
      </trkpt>
      <trkpt lat="41.8554570" lon="-8.8654300">
        <ele>4.0</ele>
        <time>2021-05-18T11:07:16Z</time>
      </trkpt>
      <trkpt lat="41.8554710" lon="-8.8654230">
        <ele>4.0</ele>
        <time>2021-05-18T11:07:17Z</time>
      </trkpt>
      <trkpt lat="41.8554850" lon="-8.8654150">
        <ele>4.0</ele>
        <time>2021-05-18T11:07:18Z</time>
      </trkpt>
      <trkpt lat="41.8555020" lon="-8.8654060">
        <ele>4.0</ele>
        <time>2021-05-18T11:07:19Z</time>
      </trkpt>
      <trkpt lat="41.8555150" lon="-8.8653980">
        <ele>4.0</ele>
        <time>2021-05-18T11:07:20Z</time>
      </trkpt>
      <trkpt lat="41.8555270" lon="-8.8653880">
        <ele>4.0</ele>
        <time>2021-05-18T11:07:21Z</time>
      </trkpt>
      <trkpt lat="41.8555400" lon="-8.8653780">
        <ele>4.0</ele>
        <time>2021-05-18T11:07:22Z</time>
      </trkpt>
      <trkpt lat="41.8555520" lon="-8.8653680">
        <ele>4.0</ele>
        <time>2021-05-18T11:07:23Z</time>
      </trkpt>
      <trkpt lat="41.8555670" lon="-8.8653670">
        <ele>4.1</ele>
        <time>2021-05-18T11:07:24Z</time>
      </trkpt>
      <trkpt lat="41.8555800" lon="-8.8653580">
        <ele>4.1</ele>
        <time>2021-05-18T11:07:25Z</time>
      </trkpt>
      <trkpt lat="41.8556020" lon="-8.8653490">
        <ele>4.2</ele>
        <time>2021-05-18T11:07:26Z</time>
      </trkpt>
      <trkpt lat="41.8556100" lon="-8.8653470">
        <ele>4.2</ele>
        <time>2021-05-18T11:07:27Z</time>
      </trkpt>
      <trkpt lat="41.8556180" lon="-8.8653450">
        <ele>4.2</ele>
        <time>2021-05-18T11:07:28Z</time>
      </trkpt>
      <trkpt lat="41.8556270" lon="-8.8653360">
        <ele>4.3</ele>
        <time>2021-05-18T11:07:29Z</time>
      </trkpt>
      <trkpt lat="41.8556290" lon="-8.8653350">
        <ele>4.3</ele>
        <time>2021-05-18T11:07:30Z</time>
      </trkpt>
      <trkpt lat="41.8556320" lon="-8.8653290">
        <ele>4.3</ele>
        <time>2021-05-18T11:07:31Z</time>
      </trkpt>
      <trkpt lat="41.8556460" lon="-8.8653270">
        <ele>4.3</ele>
        <time>2021-05-18T11:07:32Z</time>
      </trkpt>
      <trkpt lat="41.8556550" lon="-8.8653340">
        <ele>4.4</ele>
        <time>2021-05-18T11:07:33Z</time>
      </trkpt>
      <trkpt lat="41.8556620" lon="-8.8653340">
        <ele>4.4</ele>
        <time>2021-05-18T11:07:34Z</time>
      </trkpt>
      <trkpt lat="41.8556700" lon="-8.8653350">
        <ele>4.4</ele>
        <time>2021-05-18T11:07:35Z</time>
      </trkpt>
      <trkpt lat="41.8556770" lon="-8.8653350">
        <ele>4.4</ele>
        <time>2021-05-18T11:07:36Z</time>
      </trkpt>
      <trkpt lat="41.8556840" lon="-8.8653350">
        <ele>4.4</ele>
        <time>2021-05-18T11:07:37Z</time>
      </trkpt>
      <trkpt lat="41.8557060" lon="-8.8653290">
        <ele>4.5</ele>
        <time>2021-05-18T11:07:38Z</time>
      </trkpt>
      <trkpt lat="41.8557120" lon="-8.8653250">
        <ele>4.5</ele>
        <time>2021-05-18T11:07:39Z</time>
      </trkpt>
      <trkpt lat="41.8557190" lon="-8.8653200">
        <ele>4.5</ele>
        <time>2021-05-18T11:07:40Z</time>
      </trkpt>
      <trkpt lat="41.8557290" lon="-8.8653040">
        <ele>4.5</ele>
        <time>2021-05-18T11:07:41Z</time>
      </trkpt>
      <trkpt lat="41.8557350" lon="-8.8652970">
        <ele>4.5</ele>
        <time>2021-05-18T11:07:42Z</time>
      </trkpt>
      <trkpt lat="41.8557410" lon="-8.8652910">
        <ele>4.5</ele>
        <time>2021-05-18T11:07:43Z</time>
      </trkpt>
      <trkpt lat="41.8557470" lon="-8.8652840">
        <ele>4.5</ele>
        <time>2021-05-18T11:07:44Z</time>
      </trkpt>
      <trkpt lat="41.8557680" lon="-8.8652750">
        <ele>4.6</ele>
        <time>2021-05-18T11:07:45Z</time>
      </trkpt>
      <trkpt lat="41.8557700" lon="-8.8652770">
        <ele>4.6</ele>
        <time>2021-05-18T11:07:46Z</time>
      </trkpt>
      <trkpt lat="41.8557800" lon="-8.8652770">
        <ele>4.6</ele>
        <time>2021-05-18T11:07:47Z</time>
      </trkpt>
      <trkpt lat="41.8557920" lon="-8.8652670">
        <ele>4.6</ele>
        <time>2021-05-18T11:07:48Z</time>
      </trkpt>
      <trkpt lat="41.8557970" lon="-8.8652610">
        <ele>4.6</ele>
        <time>2021-05-18T11:07:49Z</time>
      </trkpt>
      <trkpt lat="41.8558010" lon="-8.8652520">
        <ele>4.6</ele>
        <time>2021-05-18T11:07:50Z</time>
      </trkpt>
      <trkpt lat="41.8558040" lon="-8.8652460">
        <ele>4.6</ele>
        <time>2021-05-18T11:07:51Z</time>
      </trkpt>
      <trkpt lat="41.8558070" lon="-8.8652420">
        <ele>4.6</ele>
        <time>2021-05-18T11:07:52Z</time>
      </trkpt>
      <trkpt lat="41.8558090" lon="-8.8652320">
        <ele>4.6</ele>
        <time>2021-05-18T11:07:53Z</time>
      </trkpt>
      <trkpt lat="41.8558210" lon="-8.8652230">
        <ele>4.6</ele>
        <time>2021-05-18T11:07:54Z</time>
      </trkpt>
      <trkpt lat="41.8558390" lon="-8.8652100">
        <ele>4.5</ele>
        <time>2021-05-18T11:07:55Z</time>
      </trkpt>
      <trkpt lat="41.8558460" lon="-8.8652060">
        <ele>4.5</ele>
        <time>2021-05-18T11:07:56Z</time>
      </trkpt>
      <trkpt lat="41.8558540" lon="-8.8652020">
        <ele>4.5</ele>
        <time>2021-05-18T11:07:57Z</time>
      </trkpt>
      <trkpt lat="41.8558640" lon="-8.8651880">
        <ele>4.5</ele>
        <time>2021-05-18T11:07:58Z</time>
      </trkpt>
      <trkpt lat="41.8558730" lon="-8.8651820">
        <ele>4.5</ele>
        <time>2021-05-18T11:07:59Z</time>
      </trkpt>
      <trkpt lat="41.8558870" lon="-8.8651800">
        <ele>4.5</ele>
        <time>2021-05-18T11:08:00Z</time>
      </trkpt>
      <trkpt lat="41.8559060" lon="-8.8651710">
        <ele>4.5</ele>
        <time>2021-05-18T11:08:01Z</time>
      </trkpt>
      <trkpt lat="41.8559140" lon="-8.8651660">
        <ele>4.5</ele>
        <time>2021-05-18T11:08:02Z</time>
      </trkpt>
      <trkpt lat="41.8559220" lon="-8.8651610">
        <ele>4.5</ele>
        <time>2021-05-18T11:08:03Z</time>
      </trkpt>
      <trkpt lat="41.8559440" lon="-8.8651600">
        <ele>4.5</ele>
        <time>2021-05-18T11:08:04Z</time>
      </trkpt>
      <trkpt lat="41.8559520" lon="-8.8651560">
        <ele>4.5</ele>
        <time>2021-05-18T11:08:05Z</time>
      </trkpt>
      <trkpt lat="41.8559610" lon="-8.8651520">
        <ele>4.5</ele>
        <time>2021-05-18T11:08:06Z</time>
      </trkpt>
      <trkpt lat="41.8559840" lon="-8.8651430">
        <ele>4.5</ele>
        <time>2021-05-18T11:08:07Z</time>
      </trkpt>
      <trkpt lat="41.8559910" lon="-8.8651420">
        <ele>4.5</ele>
        <time>2021-05-18T11:08:08Z</time>
      </trkpt>
      <trkpt lat="41.8559970" lon="-8.8651400">
        <ele>4.5</ele>
        <time>2021-05-18T11:08:09Z</time>
      </trkpt>
      <trkpt lat="41.8560120" lon="-8.8651380">
        <ele>4.5</ele>
        <time>2021-05-18T11:08:10Z</time>
      </trkpt>
      <trkpt lat="41.8560260" lon="-8.8651410">
        <ele>4.5</ele>
        <time>2021-05-18T11:08:11Z</time>
      </trkpt>
      <trkpt lat="41.8560450" lon="-8.8651360">
        <ele>4.5</ele>
        <time>2021-05-18T11:08:12Z</time>
      </trkpt>
      <trkpt lat="41.8560570" lon="-8.8651330">
        <ele>4.6</ele>
        <time>2021-05-18T11:08:13Z</time>
      </trkpt>
      <trkpt lat="41.8560680" lon="-8.8651300">
        <ele>4.6</ele>
        <time>2021-05-18T11:08:14Z</time>
      </trkpt>
      <trkpt lat="41.8560810" lon="-8.8651320">
        <ele>4.6</ele>
        <time>2021-05-18T11:08:15Z</time>
      </trkpt>
      <trkpt lat="41.8560900" lon="-8.8651260">
        <ele>4.6</ele>
        <time>2021-05-18T11:08:16Z</time>
      </trkpt>
      <trkpt lat="41.8560990" lon="-8.8651230">
        <ele>4.6</ele>
        <time>2021-05-18T11:08:17Z</time>
      </trkpt>
      <trkpt lat="41.8561110" lon="-8.8651190">
        <ele>4.6</ele>
        <time>2021-05-18T11:08:18Z</time>
      </trkpt>
      <trkpt lat="41.8561280" lon="-8.8651130">
        <ele>4.6</ele>
        <time>2021-05-18T11:08:19Z</time>
      </trkpt>
      <trkpt lat="41.8561590" lon="-8.8651030">
        <ele>4.7</ele>
        <time>2021-05-18T11:08:20Z</time>
      </trkpt>
      <trkpt lat="41.8561680" lon="-8.8651000">
        <ele>4.7</ele>
        <time>2021-05-18T11:08:21Z</time>
      </trkpt>
      <trkpt lat="41.8561760" lon="-8.8650910">
        <ele>4.7</ele>
        <time>2021-05-18T11:08:22Z</time>
      </trkpt>
      <trkpt lat="41.8561910" lon="-8.8650790">
        <ele>4.7</ele>
        <time>2021-05-18T11:08:23Z</time>
      </trkpt>
      <trkpt lat="41.8562050" lon="-8.8650660">
        <ele>4.8</ele>
        <time>2021-05-18T11:08:24Z</time>
      </trkpt>
      <trkpt lat="41.8562180" lon="-8.8650560">
        <ele>4.8</ele>
        <time>2021-05-18T11:08:25Z</time>
      </trkpt>
      <trkpt lat="41.8562280" lon="-8.8650490">
        <ele>4.8</ele>
        <time>2021-05-18T11:08:26Z</time>
      </trkpt>
      <trkpt lat="41.8562440" lon="-8.8650450">
        <ele>4.8</ele>
        <time>2021-05-18T11:08:27Z</time>
      </trkpt>
      <trkpt lat="41.8562570" lon="-8.8650400">
        <ele>4.8</ele>
        <time>2021-05-18T11:08:28Z</time>
      </trkpt>
      <trkpt lat="41.8562660" lon="-8.8650340">
        <ele>4.8</ele>
        <time>2021-05-18T11:08:29Z</time>
      </trkpt>
      <trkpt lat="41.8562760" lon="-8.8650280">
        <ele>4.8</ele>
        <time>2021-05-18T11:08:30Z</time>
      </trkpt>
      <trkpt lat="41.8562780" lon="-8.8650260">
        <ele>4.8</ele>
        <time>2021-05-18T11:08:31Z</time>
      </trkpt>
      <trkpt lat="41.8562920" lon="-8.8650080">
        <ele>4.8</ele>
        <time>2021-05-18T11:08:32Z</time>
      </trkpt>
      <trkpt lat="41.8563020" lon="-8.8650050">
        <ele>4.8</ele>
        <time>2021-05-18T11:08:33Z</time>
      </trkpt>
      <trkpt lat="41.8563170" lon="-8.8649970">
        <ele>4.9</ele>
        <time>2021-05-18T11:08:34Z</time>
      </trkpt>
      <trkpt lat="41.8563240" lon="-8.8649950">
        <ele>4.9</ele>
        <time>2021-05-18T11:08:35Z</time>
      </trkpt>
      <trkpt lat="41.8563310" lon="-8.8649930">
        <ele>4.9</ele>
        <time>2021-05-18T11:08:36Z</time>
      </trkpt>
      <trkpt lat="41.8563380" lon="-8.8649910">
        <ele>4.9</ele>
        <time>2021-05-18T11:08:37Z</time>
      </trkpt>
      <trkpt lat="41.8563540" lon="-8.8649830">
        <ele>4.9</ele>
        <time>2021-05-18T11:08:38Z</time>
      </trkpt>
      <trkpt lat="41.8563650" lon="-8.8649750">
        <ele>4.9</ele>
        <time>2021-05-18T11:08:39Z</time>
      </trkpt>
      <trkpt lat="41.8563730" lon="-8.8649770">
        <ele>4.8</ele>
        <time>2021-05-18T11:08:40Z</time>
      </trkpt>
      <trkpt lat="41.8563730" lon="-8.8649730">
        <ele>4.8</ele>
        <time>2021-05-18T11:08:41Z</time>
      </trkpt>
      <trkpt lat="41.8563840" lon="-8.8649690">
        <ele>4.8</ele>
        <time>2021-05-18T11:08:42Z</time>
      </trkpt>
      <trkpt lat="41.8563990" lon="-8.8649590">
        <ele>4.8</ele>
        <time>2021-05-18T11:08:43Z</time>
      </trkpt>
      <trkpt lat="41.8564110" lon="-8.8649570">
        <ele>4.8</ele>
        <time>2021-05-18T11:08:44Z</time>
      </trkpt>
      <trkpt lat="41.8564160" lon="-8.8649600">
        <ele>4.8</ele>
        <time>2021-05-18T11:08:45Z</time>
      </trkpt>
      <trkpt lat="41.8564250" lon="-8.8649690">
        <ele>4.8</ele>
        <time>2021-05-18T11:08:46Z</time>
      </trkpt>
      <trkpt lat="41.8564310" lon="-8.8649740">
        <ele>4.8</ele>
        <time>2021-05-18T11:08:47Z</time>
      </trkpt>
      <trkpt lat="41.8564460" lon="-8.8649640">
        <ele>4.7</ele>
        <time>2021-05-18T11:08:48Z</time>
      </trkpt>
      <trkpt lat="41.8564630" lon="-8.8649740">
        <ele>4.7</ele>
        <time>2021-05-18T11:08:49Z</time>
      </trkpt>
      <trkpt lat="41.8564940" lon="-8.8649830">
        <ele>4.6</ele>
        <time>2021-05-18T11:08:50Z</time>
      </trkpt>
      <trkpt lat="41.8565040" lon="-8.8649850">
        <ele>4.6</ele>
        <time>2021-05-18T11:08:51Z</time>
      </trkpt>
      <trkpt lat="41.8565210" lon="-8.8649840">
        <ele>4.5</ele>
        <time>2021-05-18T11:08:52Z</time>
      </trkpt>
      <trkpt lat="41.8565210" lon="-8.8649860">
        <ele>4.5</ele>
        <time>2021-05-18T11:08:53Z</time>
      </trkpt>
      <trkpt lat="41.8565230" lon="-8.8649860">
        <ele>4.5</ele>
        <time>2021-05-18T11:08:54Z</time>
      </trkpt>
      <trkpt lat="41.8565340" lon="-8.8649840">
        <ele>4.5</ele>
        <time>2021-05-18T11:08:55Z</time>
      </trkpt>
      <trkpt lat="41.8565490" lon="-8.8649780">
        <ele>4.5</ele>
        <time>2021-05-18T11:08:56Z</time>
      </trkpt>
      <trkpt lat="41.8565630" lon="-8.8649730">
        <ele>4.4</ele>
        <time>2021-05-18T11:08:57Z</time>
      </trkpt>
      <trkpt lat="41.8565830" lon="-8.8649670">
        <ele>4.4</ele>
        <time>2021-05-18T11:08:58Z</time>
      </trkpt>
      <trkpt lat="41.8565920" lon="-8.8649670">
        <ele>4.3</ele>
        <time>2021-05-18T11:08:59Z</time>
      </trkpt>
      <trkpt lat="41.8566070" lon="-8.8649640">
        <ele>4.3</ele>
        <time>2021-05-18T11:09:00Z</time>
      </trkpt>
      <trkpt lat="41.8566230" lon="-8.8649610">
        <ele>4.2</ele>
        <time>2021-05-18T11:09:01Z</time>
      </trkpt>
      <trkpt lat="41.8566400" lon="-8.8649700">
        <ele>4.2</ele>
        <time>2021-05-18T11:09:02Z</time>
      </trkpt>
      <trkpt lat="41.8566530" lon="-8.8649640">
        <ele>4.1</ele>
        <time>2021-05-18T11:09:03Z</time>
      </trkpt>
      <trkpt lat="41.8566700" lon="-8.8649580">
        <ele>4.1</ele>
        <time>2021-05-18T11:09:04Z</time>
      </trkpt>
      <trkpt lat="41.8566820" lon="-8.8649550">
        <ele>4.1</ele>
        <time>2021-05-18T11:09:05Z</time>
      </trkpt>
      <trkpt lat="41.8566960" lon="-8.8649470">
        <ele>4.0</ele>
        <time>2021-05-18T11:09:06Z</time>
      </trkpt>
      <trkpt lat="41.8567080" lon="-8.8649400">
        <ele>4.0</ele>
        <time>2021-05-18T11:09:07Z</time>
      </trkpt>
      <trkpt lat="41.8567200" lon="-8.8649340">
        <ele>4.0</ele>
        <time>2021-05-18T11:09:08Z</time>
      </trkpt>
      <trkpt lat="41.8567340" lon="-8.8649270">
        <ele>3.9</ele>
        <time>2021-05-18T11:09:09Z</time>
      </trkpt>
      <trkpt lat="41.8567590" lon="-8.8649050">
        <ele>3.9</ele>
        <time>2021-05-18T11:09:10Z</time>
      </trkpt>
      <trkpt lat="41.8567650" lon="-8.8648970">
        <ele>3.8</ele>
        <time>2021-05-18T11:09:11Z</time>
      </trkpt>
      <trkpt lat="41.8567880" lon="-8.8648760">
        <ele>3.8</ele>
        <time>2021-05-18T11:09:12Z</time>
      </trkpt>
      <trkpt lat="41.8567980" lon="-8.8648660">
        <ele>3.8</ele>
        <time>2021-05-18T11:09:13Z</time>
      </trkpt>
      <trkpt lat="41.8568030" lon="-8.8648580">
        <ele>3.8</ele>
        <time>2021-05-18T11:09:14Z</time>
      </trkpt>
      <trkpt lat="41.8568050" lon="-8.8648490">
        <ele>3.8</ele>
        <time>2021-05-18T11:09:15Z</time>
      </trkpt>
      <trkpt lat="41.8568210" lon="-8.8648430">
        <ele>3.7</ele>
        <time>2021-05-18T11:09:16Z</time>
      </trkpt>
      <trkpt lat="41.8568380" lon="-8.8648300">
        <ele>3.7</ele>
        <time>2021-05-18T11:09:17Z</time>
      </trkpt>
      <trkpt lat="41.8568500" lon="-8.8648190">
        <ele>3.7</ele>
        <time>2021-05-18T11:09:18Z</time>
      </trkpt>
      <trkpt lat="41.8568540" lon="-8.8648030">
        <ele>3.7</ele>
        <time>2021-05-18T11:09:19Z</time>
      </trkpt>
      <trkpt lat="41.8568690" lon="-8.8647980">
        <ele>3.7</ele>
        <time>2021-05-18T11:09:20Z</time>
      </trkpt>
      <trkpt lat="41.8568780" lon="-8.8647920">
        <ele>3.7</ele>
        <time>2021-05-18T11:09:21Z</time>
      </trkpt>
      <trkpt lat="41.8568940" lon="-8.8647820">
        <ele>3.7</ele>
        <time>2021-05-18T11:09:22Z</time>
      </trkpt>
      <trkpt lat="41.8569050" lon="-8.8647780">
        <ele>3.7</ele>
        <time>2021-05-18T11:09:23Z</time>
      </trkpt>
      <trkpt lat="41.8569310" lon="-8.8647620">
        <ele>3.7</ele>
        <time>2021-05-18T11:09:24Z</time>
      </trkpt>
      <trkpt lat="41.8569400" lon="-8.8647560">
        <ele>3.7</ele>
        <time>2021-05-18T11:09:25Z</time>
      </trkpt>
      <trkpt lat="41.8569460" lon="-8.8647540">
        <ele>3.7</ele>
        <time>2021-05-18T11:09:26Z</time>
      </trkpt>
      <trkpt lat="41.8569540" lon="-8.8647500">
        <ele>3.7</ele>
        <time>2021-05-18T11:09:27Z</time>
      </trkpt>
      <trkpt lat="41.8569670" lon="-8.8647440">
        <ele>3.7</ele>
        <time>2021-05-18T11:09:28Z</time>
      </trkpt>
      <trkpt lat="41.8569780" lon="-8.8647400">
        <ele>3.7</ele>
        <time>2021-05-18T11:09:29Z</time>
      </trkpt>
      <trkpt lat="41.8569920" lon="-8.8647340">
        <ele>3.7</ele>
        <time>2021-05-18T11:09:30Z</time>
      </trkpt>
      <trkpt lat="41.8569950" lon="-8.8647320">
        <ele>3.7</ele>
        <time>2021-05-18T11:09:31Z</time>
      </trkpt>
      <trkpt lat="41.8570120" lon="-8.8647170">
        <ele>3.7</ele>
        <time>2021-05-18T11:09:32Z</time>
      </trkpt>
      <trkpt lat="41.8570240" lon="-8.8647070">
        <ele>3.7</ele>
        <time>2021-05-18T11:09:33Z</time>
      </trkpt>
      <trkpt lat="41.8570360" lon="-8.8646960">
        <ele>3.7</ele>
        <time>2021-05-18T11:09:34Z</time>
      </trkpt>
      <trkpt lat="41.8570620" lon="-8.8646850">
        <ele>3.7</ele>
        <time>2021-05-18T11:09:35Z</time>
      </trkpt>
      <trkpt lat="41.8570710" lon="-8.8646820">
        <ele>3.7</ele>
        <time>2021-05-18T11:09:36Z</time>
      </trkpt>
      <trkpt lat="41.8570950" lon="-8.8646620">
        <ele>3.7</ele>
        <time>2021-05-18T11:09:37Z</time>
      </trkpt>
      <trkpt lat="41.8571160" lon="-8.8646500">
        <ele>3.7</ele>
        <time>2021-05-18T11:09:38Z</time>
      </trkpt>
      <trkpt lat="41.8571270" lon="-8.8646470">
        <ele>3.7</ele>
        <time>2021-05-18T11:09:39Z</time>
      </trkpt>
      <trkpt lat="41.8571380" lon="-8.8646480">
        <ele>3.7</ele>
        <time>2021-05-18T11:09:40Z</time>
      </trkpt>
      <trkpt lat="41.8571490" lon="-8.8646500">
        <ele>3.8</ele>
        <time>2021-05-18T11:09:41Z</time>
      </trkpt>
      <trkpt lat="41.8571600" lon="-8.8646470">
        <ele>3.8</ele>
        <time>2021-05-18T11:09:42Z</time>
      </trkpt>
      <trkpt lat="41.8571700" lon="-8.8646450">
        <ele>3.8</ele>
        <time>2021-05-18T11:09:43Z</time>
      </trkpt>
      <trkpt lat="41.8571750" lon="-8.8646460">
        <ele>3.8</ele>
        <time>2021-05-18T11:09:44Z</time>
      </trkpt>
      <trkpt lat="41.8571890" lon="-8.8646410">
        <ele>3.8</ele>
        <time>2021-05-18T11:09:45Z</time>
      </trkpt>
      <trkpt lat="41.8572060" lon="-8.8646440">
        <ele>3.8</ele>
        <time>2021-05-18T11:09:46Z</time>
      </trkpt>
      <trkpt lat="41.8572120" lon="-8.8646410">
        <ele>3.8</ele>
        <time>2021-05-18T11:09:47Z</time>
      </trkpt>
      <trkpt lat="41.8572210" lon="-8.8646470">
        <ele>3.8</ele>
        <time>2021-05-18T11:09:48Z</time>
      </trkpt>
      <trkpt lat="41.8572430" lon="-8.8646460">
        <ele>3.8</ele>
        <time>2021-05-18T11:09:49Z</time>
      </trkpt>
      <trkpt lat="41.8572530" lon="-8.8646450">
        <ele>3.8</ele>
        <time>2021-05-18T11:09:50Z</time>
      </trkpt>
      <trkpt lat="41.8572650" lon="-8.8646500">
        <ele>3.7</ele>
        <time>2021-05-18T11:09:51Z</time>
      </trkpt>
      <trkpt lat="41.8572830" lon="-8.8646580">
        <ele>3.7</ele>
        <time>2021-05-18T11:09:52Z</time>
      </trkpt>
      <trkpt lat="41.8573120" lon="-8.8646650">
        <ele>3.7</ele>
        <time>2021-05-18T11:09:53Z</time>
      </trkpt>
      <trkpt lat="41.8573220" lon="-8.8646640">
        <ele>3.7</ele>
        <time>2021-05-18T11:09:54Z</time>
      </trkpt>
      <trkpt lat="41.8573310" lon="-8.8646650">
        <ele>3.7</ele>
        <time>2021-05-18T11:09:55Z</time>
      </trkpt>
      <trkpt lat="41.8573520" lon="-8.8646650">
        <ele>3.7</ele>
        <time>2021-05-18T11:09:56Z</time>
      </trkpt>
      <trkpt lat="41.8573670" lon="-8.8646660">
        <ele>3.7</ele>
        <time>2021-05-18T11:09:57Z</time>
      </trkpt>
      <trkpt lat="41.8573820" lon="-8.8646650">
        <ele>3.7</ele>
        <time>2021-05-18T11:09:58Z</time>
      </trkpt>
      <trkpt lat="41.8573950" lon="-8.8646560">
        <ele>3.7</ele>
        <time>2021-05-18T11:09:59Z</time>
      </trkpt>
      <trkpt lat="41.8574120" lon="-8.8646450">
        <ele>3.7</ele>
        <time>2021-05-18T11:10:00Z</time>
      </trkpt>
      <trkpt lat="41.8574300" lon="-8.8646360">
        <ele>3.7</ele>
        <time>2021-05-18T11:10:01Z</time>
      </trkpt>
      <trkpt lat="41.8574430" lon="-8.8646280">
        <ele>3.7</ele>
        <time>2021-05-18T11:10:02Z</time>
      </trkpt>
      <trkpt lat="41.8574590" lon="-8.8646130">
        <ele>3.7</ele>
        <time>2021-05-18T11:10:03Z</time>
      </trkpt>
      <trkpt lat="41.8574670" lon="-8.8646060">
        <ele>3.7</ele>
        <time>2021-05-18T11:10:04Z</time>
      </trkpt>
      <trkpt lat="41.8574750" lon="-8.8646000">
        <ele>3.7</ele>
        <time>2021-05-18T11:10:05Z</time>
      </trkpt>
      <trkpt lat="41.8574760" lon="-8.8645940">
        <ele>3.7</ele>
        <time>2021-05-18T11:10:06Z</time>
      </trkpt>
      <trkpt lat="41.8574780" lon="-8.8645880">
        <ele>3.7</ele>
        <time>2021-05-18T11:10:07Z</time>
      </trkpt>
      <trkpt lat="41.8574840" lon="-8.8645880">
        <ele>3.7</ele>
        <time>2021-05-18T11:10:08Z</time>
      </trkpt>
      <trkpt lat="41.8574930" lon="-8.8645880">
        <ele>3.7</ele>
        <time>2021-05-18T11:10:09Z</time>
      </trkpt>
      <trkpt lat="41.8575030" lon="-8.8645870">
        <ele>3.7</ele>
        <time>2021-05-18T11:10:10Z</time>
      </trkpt>
      <trkpt lat="41.8575140" lon="-8.8645860">
        <ele>3.7</ele>
        <time>2021-05-18T11:10:11Z</time>
      </trkpt>
      <trkpt lat="41.8575260" lon="-8.8645820">
        <ele>3.7</ele>
        <time>2021-05-18T11:10:12Z</time>
      </trkpt>
      <trkpt lat="41.8575380" lon="-8.8645770">
        <ele>3.7</ele>
        <time>2021-05-18T11:10:13Z</time>
      </trkpt>
      <trkpt lat="41.8575500" lon="-8.8645720">
        <ele>3.7</ele>
        <time>2021-05-18T11:10:14Z</time>
      </trkpt>
      <trkpt lat="41.8575610" lon="-8.8645650">
        <ele>3.7</ele>
        <time>2021-05-18T11:10:15Z</time>
      </trkpt>
      <trkpt lat="41.8575770" lon="-8.8645600">
        <ele>3.7</ele>
        <time>2021-05-18T11:10:16Z</time>
      </trkpt>
      <trkpt lat="41.8575920" lon="-8.8645590">
        <ele>3.7</ele>
        <time>2021-05-18T11:10:17Z</time>
      </trkpt>
      <trkpt lat="41.8576080" lon="-8.8645500">
        <ele>3.7</ele>
        <time>2021-05-18T11:10:18Z</time>
      </trkpt>
      <trkpt lat="41.8576120" lon="-8.8645520">
        <ele>3.7</ele>
        <time>2021-05-18T11:10:19Z</time>
      </trkpt>
      <trkpt lat="41.8576180" lon="-8.8645520">
        <ele>3.7</ele>
        <time>2021-05-18T11:10:20Z</time>
      </trkpt>
      <trkpt lat="41.8576400" lon="-8.8645480">
        <ele>3.7</ele>
        <time>2021-05-18T11:10:21Z</time>
      </trkpt>
      <trkpt lat="41.8576610" lon="-8.8645390">
        <ele>3.7</ele>
        <time>2021-05-18T11:10:22Z</time>
      </trkpt>
      <trkpt lat="41.8576690" lon="-8.8645420">
        <ele>3.7</ele>
        <time>2021-05-18T11:10:23Z</time>
      </trkpt>
      <trkpt lat="41.8576780" lon="-8.8645440">
        <ele>3.7</ele>
        <time>2021-05-18T11:10:24Z</time>
      </trkpt>
      <trkpt lat="41.8576940" lon="-8.8645440">
        <ele>3.7</ele>
        <time>2021-05-18T11:10:25Z</time>
      </trkpt>
      <trkpt lat="41.8577120" lon="-8.8645430">
        <ele>3.6</ele>
        <time>2021-05-18T11:10:26Z</time>
      </trkpt>
      <trkpt lat="41.8577250" lon="-8.8645420">
        <ele>3.6</ele>
        <time>2021-05-18T11:10:27Z</time>
      </trkpt>
      <trkpt lat="41.8577400" lon="-8.8645400">
        <ele>3.6</ele>
        <time>2021-05-18T11:10:28Z</time>
      </trkpt>
      <trkpt lat="41.8577650" lon="-8.8645350">
        <ele>3.6</ele>
        <time>2021-05-18T11:10:29Z</time>
      </trkpt>
      <trkpt lat="41.8577760" lon="-8.8645290">
        <ele>3.6</ele>
        <time>2021-05-18T11:10:30Z</time>
      </trkpt>
      <trkpt lat="41.8577880" lon="-8.8645240">
        <ele>3.6</ele>
        <time>2021-05-18T11:10:31Z</time>
      </trkpt>
      <trkpt lat="41.8577990" lon="-8.8645240">
        <ele>3.6</ele>
        <time>2021-05-18T11:10:32Z</time>
      </trkpt>
      <trkpt lat="41.8578180" lon="-8.8645210">
        <ele>3.6</ele>
        <time>2021-05-18T11:10:33Z</time>
      </trkpt>
      <trkpt lat="41.8578280" lon="-8.8645160">
        <ele>3.6</ele>
        <time>2021-05-18T11:10:34Z</time>
      </trkpt>
      <trkpt lat="41.8578480" lon="-8.8645150">
        <ele>3.6</ele>
        <time>2021-05-18T11:10:35Z</time>
      </trkpt>
      <trkpt lat="41.8578690" lon="-8.8645140">
        <ele>3.6</ele>
        <time>2021-05-18T11:10:36Z</time>
      </trkpt>
      <trkpt lat="41.8578780" lon="-8.8645140">
        <ele>3.6</ele>
        <time>2021-05-18T11:10:37Z</time>
      </trkpt>
      <trkpt lat="41.8578870" lon="-8.8645130">
        <ele>3.6</ele>
        <time>2021-05-18T11:10:38Z</time>
      </trkpt>
      <trkpt lat="41.8579080" lon="-8.8645110">
        <ele>3.6</ele>
        <time>2021-05-18T11:10:39Z</time>
      </trkpt>
      <trkpt lat="41.8579160" lon="-8.8645080">
        <ele>3.6</ele>
        <time>2021-05-18T11:10:40Z</time>
      </trkpt>
      <trkpt lat="41.8579240" lon="-8.8645040">
        <ele>3.6</ele>
        <time>2021-05-18T11:10:41Z</time>
      </trkpt>
      <trkpt lat="41.8579420" lon="-8.8644980">
        <ele>3.5</ele>
        <time>2021-05-18T11:10:42Z</time>
      </trkpt>
      <trkpt lat="41.8579590" lon="-8.8644930">
        <ele>3.5</ele>
        <time>2021-05-18T11:10:43Z</time>
      </trkpt>
      <trkpt lat="41.8579760" lon="-8.8644810">
        <ele>3.5</ele>
        <time>2021-05-18T11:10:44Z</time>
      </trkpt>
      <trkpt lat="41.8579830" lon="-8.8644750">
        <ele>3.5</ele>
        <time>2021-05-18T11:10:45Z</time>
      </trkpt>
      <trkpt lat="41.8579920" lon="-8.8644840">
        <ele>3.5</ele>
        <time>2021-05-18T11:10:46Z</time>
      </trkpt>
      <trkpt lat="41.8580050" lon="-8.8644890">
        <ele>3.5</ele>
        <time>2021-05-18T11:10:47Z</time>
      </trkpt>
      <trkpt lat="41.8580180" lon="-8.8644850">
        <ele>3.5</ele>
        <time>2021-05-18T11:10:48Z</time>
      </trkpt>
      <trkpt lat="41.8580340" lon="-8.8644760">
        <ele>3.5</ele>
        <time>2021-05-18T11:10:49Z</time>
      </trkpt>
      <trkpt lat="41.8580480" lon="-8.8644770">
        <ele>3.5</ele>
        <time>2021-05-18T11:10:50Z</time>
      </trkpt>
      <trkpt lat="41.8580710" lon="-8.8644730">
        <ele>3.5</ele>
        <time>2021-05-18T11:10:51Z</time>
      </trkpt>
      <trkpt lat="41.8580840" lon="-8.8644730">
        <ele>3.5</ele>
        <time>2021-05-18T11:10:52Z</time>
      </trkpt>
      <trkpt lat="41.8580960" lon="-8.8644730">
        <ele>3.5</ele>
        <time>2021-05-18T11:10:53Z</time>
      </trkpt>
      <trkpt lat="41.8581110" lon="-8.8644720">
        <ele>3.5</ele>
        <time>2021-05-18T11:10:54Z</time>
      </trkpt>
      <trkpt lat="41.8581240" lon="-8.8644770">
        <ele>3.5</ele>
        <time>2021-05-18T11:10:55Z</time>
      </trkpt>
      <trkpt lat="41.8581430" lon="-8.8644720">
        <ele>3.5</ele>
        <time>2021-05-18T11:10:56Z</time>
      </trkpt>
      <trkpt lat="41.8581520" lon="-8.8644720">
        <ele>3.5</ele>
        <time>2021-05-18T11:10:57Z</time>
      </trkpt>
      <trkpt lat="41.8581600" lon="-8.8644720">
        <ele>3.5</ele>
        <time>2021-05-18T11:10:58Z</time>
      </trkpt>
      <trkpt lat="41.8581850" lon="-8.8644780">
        <ele>3.5</ele>
        <time>2021-05-18T11:10:59Z</time>
      </trkpt>
      <trkpt lat="41.8581950" lon="-8.8644780">
        <ele>3.5</ele>
        <time>2021-05-18T11:11:00Z</time>
      </trkpt>
      <trkpt lat="41.8582060" lon="-8.8644790">
        <ele>3.5</ele>
        <time>2021-05-18T11:11:01Z</time>
      </trkpt>
      <trkpt lat="41.8582270" lon="-8.8644770">
        <ele>3.5</ele>
        <time>2021-05-18T11:11:02Z</time>
      </trkpt>
      <trkpt lat="41.8582420" lon="-8.8644770">
        <ele>3.5</ele>
        <time>2021-05-18T11:11:03Z</time>
      </trkpt>
      <trkpt lat="41.8582560" lon="-8.8644730">
        <ele>3.5</ele>
        <time>2021-05-18T11:11:04Z</time>
      </trkpt>
      <trkpt lat="41.8582650" lon="-8.8644680">
        <ele>3.5</ele>
        <time>2021-05-18T11:11:05Z</time>
      </trkpt>
      <trkpt lat="41.8582670" lon="-8.8644700">
        <ele>3.5</ele>
        <time>2021-05-18T11:11:06Z</time>
      </trkpt>
      <trkpt lat="41.8582760" lon="-8.8644660">
        <ele>3.5</ele>
        <time>2021-05-18T11:11:07Z</time>
      </trkpt>
      <trkpt lat="41.8582940" lon="-8.8644670">
        <ele>3.6</ele>
        <time>2021-05-18T11:11:08Z</time>
      </trkpt>
      <trkpt lat="41.8583080" lon="-8.8644610">
        <ele>3.6</ele>
        <time>2021-05-18T11:11:09Z</time>
      </trkpt>
      <trkpt lat="41.8583140" lon="-8.8644660">
        <ele>3.6</ele>
        <time>2021-05-18T11:11:10Z</time>
      </trkpt>
      <trkpt lat="41.8583230" lon="-8.8644640">
        <ele>3.6</ele>
        <time>2021-05-18T11:11:11Z</time>
      </trkpt>
      <trkpt lat="41.8583360" lon="-8.8644600">
        <ele>3.6</ele>
        <time>2021-05-18T11:11:12Z</time>
      </trkpt>
      <trkpt lat="41.8583640" lon="-8.8644510">
        <ele>3.6</ele>
        <time>2021-05-18T11:11:13Z</time>
      </trkpt>
      <trkpt lat="41.8583720" lon="-8.8644490">
        <ele>3.6</ele>
        <time>2021-05-18T11:11:14Z</time>
      </trkpt>
      <trkpt lat="41.8583830" lon="-8.8644450">
        <ele>3.6</ele>
        <time>2021-05-18T11:11:15Z</time>
      </trkpt>
      <trkpt lat="41.8583880" lon="-8.8644350">
        <ele>3.6</ele>
        <time>2021-05-18T11:11:16Z</time>
      </trkpt>
      <trkpt lat="41.8584050" lon="-8.8644400">
        <ele>3.6</ele>
        <time>2021-05-18T11:11:17Z</time>
      </trkpt>
      <trkpt lat="41.8584190" lon="-8.8644310">
        <ele>3.7</ele>
        <time>2021-05-18T11:11:18Z</time>
      </trkpt>
      <trkpt lat="41.8584340" lon="-8.8644330">
        <ele>3.7</ele>
        <time>2021-05-18T11:11:19Z</time>
      </trkpt>
      <trkpt lat="41.8584520" lon="-8.8644280">
        <ele>3.7</ele>
        <time>2021-05-18T11:11:20Z</time>
      </trkpt>
      <trkpt lat="41.8584650" lon="-8.8644290">
        <ele>3.7</ele>
        <time>2021-05-18T11:11:21Z</time>
      </trkpt>
      <trkpt lat="41.8584750" lon="-8.8644330">
        <ele>3.7</ele>
        <time>2021-05-18T11:11:22Z</time>
      </trkpt>
      <trkpt lat="41.8584970" lon="-8.8644330">
        <ele>3.7</ele>
        <time>2021-05-18T11:11:23Z</time>
      </trkpt>
      <trkpt lat="41.8585170" lon="-8.8644340">
        <ele>3.7</ele>
        <time>2021-05-18T11:11:24Z</time>
      </trkpt>
      <trkpt lat="41.8585270" lon="-8.8644310">
        <ele>3.7</ele>
        <time>2021-05-18T11:11:25Z</time>
      </trkpt>
      <trkpt lat="41.8585480" lon="-8.8644320">
        <ele>3.7</ele>
        <time>2021-05-18T11:11:26Z</time>
      </trkpt>
      <trkpt lat="41.8585570" lon="-8.8644300">
        <ele>3.7</ele>
        <time>2021-05-18T11:11:27Z</time>
      </trkpt>
      <trkpt lat="41.8585660" lon="-8.8644290">
        <ele>3.7</ele>
        <time>2021-05-18T11:11:28Z</time>
      </trkpt>
      <trkpt lat="41.8585810" lon="-8.8644280">
        <ele>3.8</ele>
        <time>2021-05-18T11:11:29Z</time>
      </trkpt>
      <trkpt lat="41.8585930" lon="-8.8644210">
        <ele>3.8</ele>
        <time>2021-05-18T11:11:30Z</time>
      </trkpt>
      <trkpt lat="41.8586190" lon="-8.8644110">
        <ele>3.8</ele>
        <time>2021-05-18T11:11:31Z</time>
      </trkpt>
      <trkpt lat="41.8586270" lon="-8.8644080">
        <ele>3.8</ele>
        <time>2021-05-18T11:11:32Z</time>
      </trkpt>
      <trkpt lat="41.8586360" lon="-8.8644040">
        <ele>3.8</ele>
        <time>2021-05-18T11:11:33Z</time>
      </trkpt>
      <trkpt lat="41.8586430" lon="-8.8644050">
        <ele>3.8</ele>
        <time>2021-05-18T11:11:34Z</time>
      </trkpt>
      <trkpt lat="41.8586520" lon="-8.8643940">
        <ele>3.8</ele>
        <time>2021-05-18T11:11:35Z</time>
      </trkpt>
      <trkpt lat="41.8586650" lon="-8.8643970">
        <ele>3.8</ele>
        <time>2021-05-18T11:11:36Z</time>
      </trkpt>
      <trkpt lat="41.8586800" lon="-8.8643970">
        <ele>3.9</ele>
        <time>2021-05-18T11:11:37Z</time>
      </trkpt>
      <trkpt lat="41.8586910" lon="-8.8644010">
        <ele>3.9</ele>
        <time>2021-05-18T11:11:38Z</time>
      </trkpt>
      <trkpt lat="41.8587010" lon="-8.8643940">
        <ele>3.9</ele>
        <time>2021-05-18T11:11:39Z</time>
      </trkpt>
      <trkpt lat="41.8587200" lon="-8.8644060">
        <ele>3.9</ele>
        <time>2021-05-18T11:11:40Z</time>
      </trkpt>
      <trkpt lat="41.8587320" lon="-8.8644060">
        <ele>3.9</ele>
        <time>2021-05-18T11:11:41Z</time>
      </trkpt>
      <trkpt lat="41.8587440" lon="-8.8644070">
        <ele>3.9</ele>
        <time>2021-05-18T11:11:42Z</time>
      </trkpt>
      <trkpt lat="41.8587740" lon="-8.8643940">
        <ele>4.0</ele>
        <time>2021-05-18T11:11:43Z</time>
      </trkpt>
      <trkpt lat="41.8587830" lon="-8.8643880">
        <ele>4.0</ele>
        <time>2021-05-18T11:11:44Z</time>
      </trkpt>
      <trkpt lat="41.8587960" lon="-8.8643890">
        <ele>4.0</ele>
        <time>2021-05-18T11:11:45Z</time>
      </trkpt>
      <trkpt lat="41.8588060" lon="-8.8643900">
        <ele>4.0</ele>
        <time>2021-05-18T11:11:46Z</time>
      </trkpt>
      <trkpt lat="41.8588160" lon="-8.8643950">
        <ele>4.1</ele>
        <time>2021-05-18T11:11:47Z</time>
      </trkpt>
      <trkpt lat="41.8588280" lon="-8.8643910">
        <ele>4.1</ele>
        <time>2021-05-18T11:11:48Z</time>
      </trkpt>
      <trkpt lat="41.8588410" lon="-8.8643870">
        <ele>4.1</ele>
        <time>2021-05-18T11:11:49Z</time>
      </trkpt>
      <trkpt lat="41.8588540" lon="-8.8643840">
        <ele>4.1</ele>
        <time>2021-05-18T11:11:50Z</time>
      </trkpt>
      <trkpt lat="41.8588670" lon="-8.8643800">
        <ele>4.1</ele>
        <time>2021-05-18T11:11:51Z</time>
      </trkpt>
      <trkpt lat="41.8589000" lon="-8.8643670">
        <ele>4.2</ele>
        <time>2021-05-18T11:11:52Z</time>
      </trkpt>
      <trkpt lat="41.8589080" lon="-8.8643620">
        <ele>4.2</ele>
        <time>2021-05-18T11:11:53Z</time>
      </trkpt>
      <trkpt lat="41.8589080" lon="-8.8643560">
        <ele>4.3</ele>
        <time>2021-05-18T11:11:54Z</time>
      </trkpt>
      <trkpt lat="41.8589130" lon="-8.8643500">
        <ele>4.3</ele>
        <time>2021-05-18T11:11:55Z</time>
      </trkpt>
      <trkpt lat="41.8589220" lon="-8.8643500">
        <ele>4.3</ele>
        <time>2021-05-18T11:11:56Z</time>
      </trkpt>
      <trkpt lat="41.8589300" lon="-8.8643460">
        <ele>4.3</ele>
        <time>2021-05-18T11:11:57Z</time>
      </trkpt>
      <trkpt lat="41.8589410" lon="-8.8643530">
        <ele>4.3</ele>
        <time>2021-05-18T11:11:58Z</time>
      </trkpt>
      <trkpt lat="41.8589580" lon="-8.8643540">
        <ele>4.4</ele>
        <time>2021-05-18T11:11:59Z</time>
      </trkpt>
      <trkpt lat="41.8589610" lon="-8.8643550">
        <ele>4.4</ele>
        <time>2021-05-18T11:12:00Z</time>
      </trkpt>
      <trkpt lat="41.8589730" lon="-8.8643590">
        <ele>4.4</ele>
        <time>2021-05-18T11:12:01Z</time>
      </trkpt>
      <trkpt lat="41.8589760" lon="-8.8643610">
        <ele>4.4</ele>
        <time>2021-05-18T11:12:02Z</time>
      </trkpt>
      <trkpt lat="41.8589850" lon="-8.8643610">
        <ele>4.4</ele>
        <time>2021-05-18T11:12:03Z</time>
      </trkpt>
      <trkpt lat="41.8589990" lon="-8.8643580">
        <ele>4.5</ele>
        <time>2021-05-18T11:12:04Z</time>
      </trkpt>
      <trkpt lat="41.8590130" lon="-8.8643580">
        <ele>4.5</ele>
        <time>2021-05-18T11:12:05Z</time>
      </trkpt>
      <trkpt lat="41.8590430" lon="-8.8643480">
        <ele>4.6</ele>
        <time>2021-05-18T11:12:06Z</time>
      </trkpt>
      <trkpt lat="41.8590680" lon="-8.8643280">
        <ele>4.6</ele>
        <time>2021-05-18T11:12:07Z</time>
      </trkpt>
      <trkpt lat="41.8590780" lon="-8.8643200">
        <ele>4.7</ele>
        <time>2021-05-18T11:12:08Z</time>
      </trkpt>
      <trkpt lat="41.8591030" lon="-8.8643100">
        <ele>4.7</ele>
        <time>2021-05-18T11:12:09Z</time>
      </trkpt>
      <trkpt lat="41.8591160" lon="-8.8643010">
        <ele>4.7</ele>
        <time>2021-05-18T11:12:10Z</time>
      </trkpt>
      <trkpt lat="41.8591290" lon="-8.8643110">
        <ele>4.8</ele>
        <time>2021-05-18T11:12:11Z</time>
      </trkpt>
      <trkpt lat="41.8591410" lon="-8.8643010">
        <ele>4.8</ele>
        <time>2021-05-18T11:12:12Z</time>
      </trkpt>
      <trkpt lat="41.8591480" lon="-8.8643020">
        <ele>4.8</ele>
        <time>2021-05-18T11:12:13Z</time>
      </trkpt>
      <trkpt lat="41.8591590" lon="-8.8643000">
        <ele>4.8</ele>
        <time>2021-05-18T11:12:14Z</time>
      </trkpt>
      <trkpt lat="41.8591760" lon="-8.8642950">
        <ele>4.9</ele>
        <time>2021-05-18T11:12:15Z</time>
      </trkpt>
      <trkpt lat="41.8591880" lon="-8.8642930">
        <ele>4.9</ele>
        <time>2021-05-18T11:12:16Z</time>
      </trkpt>
      <trkpt lat="41.8591960" lon="-8.8642940">
        <ele>4.9</ele>
        <time>2021-05-18T11:12:17Z</time>
      </trkpt>
      <trkpt lat="41.8592070" lon="-8.8642890">
        <ele>4.9</ele>
        <time>2021-05-18T11:12:18Z</time>
      </trkpt>
      <trkpt lat="41.8592220" lon="-8.8642880">
        <ele>4.9</ele>
        <time>2021-05-18T11:12:19Z</time>
      </trkpt>
      <trkpt lat="41.8592370" lon="-8.8642940">
        <ele>5.0</ele>
        <time>2021-05-18T11:12:20Z</time>
      </trkpt>
      <trkpt lat="41.8592670" lon="-8.8643050">
        <ele>5.0</ele>
        <time>2021-05-18T11:12:21Z</time>
      </trkpt>
      <trkpt lat="41.8592790" lon="-8.8643110">
        <ele>5.0</ele>
        <time>2021-05-18T11:12:22Z</time>
      </trkpt>
      <trkpt lat="41.8593050" lon="-8.8643050">
        <ele>5.1</ele>
        <time>2021-05-18T11:12:23Z</time>
      </trkpt>
      <trkpt lat="41.8593240" lon="-8.8643020">
        <ele>5.1</ele>
        <time>2021-05-18T11:12:24Z</time>
      </trkpt>
      <trkpt lat="41.8593330" lon="-8.8643080">
        <ele>5.1</ele>
        <time>2021-05-18T11:12:25Z</time>
      </trkpt>
      <trkpt lat="41.8593380" lon="-8.8643100">
        <ele>5.1</ele>
        <time>2021-05-18T11:12:26Z</time>
      </trkpt>
      <trkpt lat="41.8593450" lon="-8.8643160">
        <ele>5.1</ele>
        <time>2021-05-18T11:12:27Z</time>
      </trkpt>
      <trkpt lat="41.8593550" lon="-8.8643170">
        <ele>5.1</ele>
        <time>2021-05-18T11:12:28Z</time>
      </trkpt>
      <trkpt lat="41.8593630" lon="-8.8643210">
        <ele>5.2</ele>
        <time>2021-05-18T11:12:29Z</time>
      </trkpt>
      <trkpt lat="41.8593690" lon="-8.8643250">
        <ele>5.2</ele>
        <time>2021-05-18T11:12:30Z</time>
      </trkpt>
      <trkpt lat="41.8593890" lon="-8.8643210">
        <ele>5.2</ele>
        <time>2021-05-18T11:12:31Z</time>
      </trkpt>
      <trkpt lat="41.8593980" lon="-8.8643170">
        <ele>5.2</ele>
        <time>2021-05-18T11:12:32Z</time>
      </trkpt>
      <trkpt lat="41.8594110" lon="-8.8643150">
        <ele>5.2</ele>
        <time>2021-05-18T11:12:33Z</time>
      </trkpt>
      <trkpt lat="41.8594190" lon="-8.8643170">
        <ele>5.2</ele>
        <time>2021-05-18T11:12:34Z</time>
      </trkpt>
      <trkpt lat="41.8594290" lon="-8.8643090">
        <ele>5.3</ele>
        <time>2021-05-18T11:12:35Z</time>
      </trkpt>
      <trkpt lat="41.8594440" lon="-8.8643100">
        <ele>5.3</ele>
        <time>2021-05-18T11:12:36Z</time>
      </trkpt>
      <trkpt lat="41.8594600" lon="-8.8643100">
        <ele>5.3</ele>
        <time>2021-05-18T11:12:37Z</time>
      </trkpt>
      <trkpt lat="41.8594730" lon="-8.8643110">
        <ele>5.3</ele>
        <time>2021-05-18T11:12:38Z</time>
      </trkpt>
      <trkpt lat="41.8594780" lon="-8.8643090">
        <ele>5.3</ele>
        <time>2021-05-18T11:12:39Z</time>
      </trkpt>
      <trkpt lat="41.8594940" lon="-8.8643060">
        <ele>5.3</ele>
        <time>2021-05-18T11:12:40Z</time>
      </trkpt>
      <trkpt lat="41.8595090" lon="-8.8643030">
        <ele>5.4</ele>
        <time>2021-05-18T11:12:41Z</time>
      </trkpt>
      <trkpt lat="41.8595240" lon="-8.8642990">
        <ele>5.4</ele>
        <time>2021-05-18T11:12:42Z</time>
      </trkpt>
      <trkpt lat="41.8595420" lon="-8.8643000">
        <ele>5.4</ele>
        <time>2021-05-18T11:12:43Z</time>
      </trkpt>
      <trkpt lat="41.8595520" lon="-8.8643050">
        <ele>5.4</ele>
        <time>2021-05-18T11:12:44Z</time>
      </trkpt>
      <trkpt lat="41.8595650" lon="-8.8643020">
        <ele>5.4</ele>
        <time>2021-05-18T11:12:45Z</time>
      </trkpt>
      <trkpt lat="41.8595840" lon="-8.8642890">
        <ele>5.5</ele>
        <time>2021-05-18T11:12:46Z</time>
      </trkpt>
      <trkpt lat="41.8595980" lon="-8.8642790">
        <ele>5.5</ele>
        <time>2021-05-18T11:12:47Z</time>
      </trkpt>
      <trkpt lat="41.8596030" lon="-8.8642740">
        <ele>5.5</ele>
        <time>2021-05-18T11:12:48Z</time>
      </trkpt>
      <trkpt lat="41.8596150" lon="-8.8642700">
        <ele>5.5</ele>
        <time>2021-05-18T11:12:49Z</time>
      </trkpt>
      <trkpt lat="41.8596340" lon="-8.8642670">
        <ele>5.6</ele>
        <time>2021-05-18T11:12:50Z</time>
      </trkpt>
      <trkpt lat="41.8596430" lon="-8.8642660">
        <ele>5.6</ele>
        <time>2021-05-18T11:12:51Z</time>
      </trkpt>
      <trkpt lat="41.8596520" lon="-8.8642650">
        <ele>5.6</ele>
        <time>2021-05-18T11:12:52Z</time>
      </trkpt>
      <trkpt lat="41.8596630" lon="-8.8642700">
        <ele>5.6</ele>
        <time>2021-05-18T11:12:53Z</time>
      </trkpt>
      <trkpt lat="41.8596730" lon="-8.8642720">
        <ele>5.7</ele>
        <time>2021-05-18T11:12:54Z</time>
      </trkpt>
      <trkpt lat="41.8596870" lon="-8.8642720">
        <ele>5.7</ele>
        <time>2021-05-18T11:12:55Z</time>
      </trkpt>
      <trkpt lat="41.8597020" lon="-8.8642680">
        <ele>5.7</ele>
        <time>2021-05-18T11:12:56Z</time>
      </trkpt>
      <trkpt lat="41.8597180" lon="-8.8642690">
        <ele>5.8</ele>
        <time>2021-05-18T11:12:57Z</time>
      </trkpt>
      <trkpt lat="41.8597320" lon="-8.8642730">
        <ele>5.8</ele>
        <time>2021-05-18T11:12:58Z</time>
      </trkpt>
      <trkpt lat="41.8597520" lon="-8.8642740">
        <ele>5.8</ele>
        <time>2021-05-18T11:12:59Z</time>
      </trkpt>
      <trkpt lat="41.8597640" lon="-8.8642740">
        <ele>5.9</ele>
        <time>2021-05-18T11:13:00Z</time>
      </trkpt>
      <trkpt lat="41.8597810" lon="-8.8642750">
        <ele>5.9</ele>
        <time>2021-05-18T11:13:01Z</time>
      </trkpt>
      <trkpt lat="41.8597990" lon="-8.8642760">
        <ele>6.0</ele>
        <time>2021-05-18T11:13:02Z</time>
      </trkpt>
      <trkpt lat="41.8598110" lon="-8.8642690">
        <ele>6.0</ele>
        <time>2021-05-18T11:13:03Z</time>
      </trkpt>
      <trkpt lat="41.8598340" lon="-8.8642660">
        <ele>6.1</ele>
        <time>2021-05-18T11:13:04Z</time>
      </trkpt>
      <trkpt lat="41.8598400" lon="-8.8642650">
        <ele>6.1</ele>
        <time>2021-05-18T11:13:05Z</time>
      </trkpt>
      <trkpt lat="41.8598470" lon="-8.8642640">
        <ele>6.1</ele>
        <time>2021-05-18T11:13:06Z</time>
      </trkpt>
      <trkpt lat="41.8598530" lon="-8.8642610">
        <ele>6.1</ele>
        <time>2021-05-18T11:13:07Z</time>
      </trkpt>
      <trkpt lat="41.8598640" lon="-8.8642570">
        <ele>6.1</ele>
        <time>2021-05-18T11:13:08Z</time>
      </trkpt>
      <trkpt lat="41.8598750" lon="-8.8642550">
        <ele>6.2</ele>
        <time>2021-05-18T11:13:09Z</time>
      </trkpt>
      <trkpt lat="41.8598950" lon="-8.8642430">
        <ele>6.2</ele>
        <time>2021-05-18T11:13:10Z</time>
      </trkpt>
      <trkpt lat="41.8599060" lon="-8.8642400">
        <ele>6.2</ele>
        <time>2021-05-18T11:13:11Z</time>
      </trkpt>
      <trkpt lat="41.8599220" lon="-8.8642320">
        <ele>6.3</ele>
        <time>2021-05-18T11:13:12Z</time>
      </trkpt>
      <trkpt lat="41.8599340" lon="-8.8642240">
        <ele>6.3</ele>
        <time>2021-05-18T11:13:13Z</time>
      </trkpt>
      <trkpt lat="41.8599510" lon="-8.8642210">
        <ele>6.3</ele>
        <time>2021-05-18T11:13:14Z</time>
      </trkpt>
      <trkpt lat="41.8599630" lon="-8.8642230">
        <ele>6.3</ele>
        <time>2021-05-18T11:13:15Z</time>
      </trkpt>
      <trkpt lat="41.8599790" lon="-8.8642140">
        <ele>6.3</ele>
        <time>2021-05-18T11:13:16Z</time>
      </trkpt>
      <trkpt lat="41.8599950" lon="-8.8642100">
        <ele>6.4</ele>
        <time>2021-05-18T11:13:17Z</time>
      </trkpt>
      <trkpt lat="41.8600140" lon="-8.8642100">
        <ele>6.4</ele>
        <time>2021-05-18T11:13:18Z</time>
      </trkpt>
      <trkpt lat="41.8600250" lon="-8.8642060">
        <ele>6.4</ele>
        <time>2021-05-18T11:13:19Z</time>
      </trkpt>
      <trkpt lat="41.8600380" lon="-8.8642020">
        <ele>6.4</ele>
        <time>2021-05-18T11:13:20Z</time>
      </trkpt>
      <trkpt lat="41.8600480" lon="-8.8641980">
        <ele>6.4</ele>
        <time>2021-05-18T11:13:21Z</time>
      </trkpt>
      <trkpt lat="41.8600600" lon="-8.8641920">
        <ele>6.4</ele>
        <time>2021-05-18T11:13:22Z</time>
      </trkpt>
      <trkpt lat="41.8600690" lon="-8.8641950">
        <ele>6.4</ele>
        <time>2021-05-18T11:13:23Z</time>
      </trkpt>
      <trkpt lat="41.8600770" lon="-8.8641900">
        <ele>6.4</ele>
        <time>2021-05-18T11:13:24Z</time>
      </trkpt>
      <trkpt lat="41.8600910" lon="-8.8641800">
        <ele>6.4</ele>
        <time>2021-05-18T11:13:25Z</time>
      </trkpt>
      <trkpt lat="41.8601100" lon="-8.8641730">
        <ele>6.4</ele>
        <time>2021-05-18T11:13:26Z</time>
      </trkpt>
      <trkpt lat="41.8601190" lon="-8.8641700">
        <ele>6.4</ele>
        <time>2021-05-18T11:13:27Z</time>
      </trkpt>
      <trkpt lat="41.8601280" lon="-8.8641660">
        <ele>6.4</ele>
        <time>2021-05-18T11:13:28Z</time>
      </trkpt>
      <trkpt lat="41.8601400" lon="-8.8641620">
        <ele>6.4</ele>
        <time>2021-05-18T11:13:29Z</time>
      </trkpt>
      <trkpt lat="41.8601600" lon="-8.8641530">
        <ele>6.3</ele>
        <time>2021-05-18T11:13:30Z</time>
      </trkpt>
      <trkpt lat="41.8601730" lon="-8.8641430">
        <ele>6.3</ele>
        <time>2021-05-18T11:13:31Z</time>
      </trkpt>
      <trkpt lat="41.8601890" lon="-8.8641330">
        <ele>6.3</ele>
        <time>2021-05-18T11:13:32Z</time>
      </trkpt>
      <trkpt lat="41.8602080" lon="-8.8641200">
        <ele>6.3</ele>
        <time>2021-05-18T11:13:33Z</time>
      </trkpt>
      <trkpt lat="41.8602220" lon="-8.8641200">
        <ele>6.3</ele>
        <time>2021-05-18T11:13:34Z</time>
      </trkpt>
      <trkpt lat="41.8602280" lon="-8.8641240">
        <ele>6.3</ele>
        <time>2021-05-18T11:13:35Z</time>
      </trkpt>
      <trkpt lat="41.8602380" lon="-8.8641230">
        <ele>6.3</ele>
        <time>2021-05-18T11:13:36Z</time>
      </trkpt>
      <trkpt lat="41.8602420" lon="-8.8641240">
        <ele>6.3</ele>
        <time>2021-05-18T11:13:37Z</time>
      </trkpt>
      <trkpt lat="41.8602530" lon="-8.8641160">
        <ele>6.2</ele>
        <time>2021-05-18T11:13:38Z</time>
      </trkpt>
      <trkpt lat="41.8602660" lon="-8.8641120">
        <ele>6.2</ele>
        <time>2021-05-18T11:13:39Z</time>
      </trkpt>
      <trkpt lat="41.8602810" lon="-8.8641050">
        <ele>6.2</ele>
        <time>2021-05-18T11:13:40Z</time>
      </trkpt>
      <trkpt lat="41.8602960" lon="-8.8640990">
        <ele>6.2</ele>
        <time>2021-05-18T11:13:41Z</time>
      </trkpt>
      <trkpt lat="41.8603140" lon="-8.8640930">
        <ele>6.2</ele>
        <time>2021-05-18T11:13:42Z</time>
      </trkpt>
      <trkpt lat="41.8603210" lon="-8.8640890">
        <ele>6.1</ele>
        <time>2021-05-18T11:13:43Z</time>
      </trkpt>
      <trkpt lat="41.8603300" lon="-8.8640960">
        <ele>6.1</ele>
        <time>2021-05-18T11:13:44Z</time>
      </trkpt>
      <trkpt lat="41.8603490" lon="-8.8640850">
        <ele>6.1</ele>
        <time>2021-05-18T11:13:45Z</time>
      </trkpt>
      <trkpt lat="41.8603700" lon="-8.8640750">
        <ele>6.1</ele>
        <time>2021-05-18T11:13:46Z</time>
      </trkpt>
      <trkpt lat="41.8603780" lon="-8.8640720">
        <ele>6.0</ele>
        <time>2021-05-18T11:13:47Z</time>
      </trkpt>
      <trkpt lat="41.8603860" lon="-8.8640700">
        <ele>6.0</ele>
        <time>2021-05-18T11:13:48Z</time>
      </trkpt>
      <trkpt lat="41.8604010" lon="-8.8640670">
        <ele>6.0</ele>
        <time>2021-05-18T11:13:49Z</time>
      </trkpt>
      <trkpt lat="41.8604150" lon="-8.8640590">
        <ele>6.0</ele>
        <time>2021-05-18T11:13:50Z</time>
      </trkpt>
      <trkpt lat="41.8604310" lon="-8.8640470">
        <ele>5.9</ele>
        <time>2021-05-18T11:13:51Z</time>
      </trkpt>
      <trkpt lat="41.8604470" lon="-8.8640390">
        <ele>5.9</ele>
        <time>2021-05-18T11:13:52Z</time>
      </trkpt>
      <trkpt lat="41.8604660" lon="-8.8640320">
        <ele>5.9</ele>
        <time>2021-05-18T11:13:53Z</time>
      </trkpt>
      <trkpt lat="41.8604760" lon="-8.8640320">
        <ele>5.8</ele>
        <time>2021-05-18T11:13:54Z</time>
      </trkpt>
      <trkpt lat="41.8604980" lon="-8.8640220">
        <ele>5.8</ele>
        <time>2021-05-18T11:13:55Z</time>
      </trkpt>
      <trkpt lat="41.8605100" lon="-8.8640230">
        <ele>5.8</ele>
        <time>2021-05-18T11:13:56Z</time>
      </trkpt>
      <trkpt lat="41.8605360" lon="-8.8640230">
        <ele>5.7</ele>
        <time>2021-05-18T11:13:57Z</time>
      </trkpt>
      <trkpt lat="41.8605470" lon="-8.8640230">
        <ele>5.7</ele>
        <time>2021-05-18T11:13:58Z</time>
      </trkpt>
      <trkpt lat="41.8605660" lon="-8.8640330">
        <ele>5.6</ele>
        <time>2021-05-18T11:13:59Z</time>
      </trkpt>
      <trkpt lat="41.8605810" lon="-8.8640380">
        <ele>5.6</ele>
        <time>2021-05-18T11:14:00Z</time>
      </trkpt>
      <trkpt lat="41.8606030" lon="-8.8640330">
        <ele>5.6</ele>
        <time>2021-05-18T11:14:01Z</time>
      </trkpt>
      <trkpt lat="41.8606130" lon="-8.8640310">
        <ele>5.5</ele>
        <time>2021-05-18T11:14:02Z</time>
      </trkpt>
      <trkpt lat="41.8606220" lon="-8.8640290">
        <ele>5.5</ele>
        <time>2021-05-18T11:14:03Z</time>
      </trkpt>
      <trkpt lat="41.8606400" lon="-8.8640250">
        <ele>5.5</ele>
        <time>2021-05-18T11:14:04Z</time>
      </trkpt>
      <trkpt lat="41.8606560" lon="-8.8640210">
        <ele>5.4</ele>
        <time>2021-05-18T11:14:05Z</time>
      </trkpt>
      <trkpt lat="41.8606660" lon="-8.8640210">
        <ele>5.4</ele>
        <time>2021-05-18T11:14:06Z</time>
      </trkpt>
      <trkpt lat="41.8606740" lon="-8.8640250">
        <ele>5.4</ele>
        <time>2021-05-18T11:14:07Z</time>
      </trkpt>
      <trkpt lat="41.8606900" lon="-8.8640240">
        <ele>5.4</ele>
        <time>2021-05-18T11:14:08Z</time>
      </trkpt>
      <trkpt lat="41.8606970" lon="-8.8640200">
        <ele>5.4</ele>
        <time>2021-05-18T11:14:09Z</time>
      </trkpt>
      <trkpt lat="41.8607050" lon="-8.8640140">
        <ele>5.3</ele>
        <time>2021-05-18T11:14:10Z</time>
      </trkpt>
      <trkpt lat="41.8607160" lon="-8.8640120">
        <ele>5.3</ele>
        <time>2021-05-18T11:14:11Z</time>
      </trkpt>
      <trkpt lat="41.8607250" lon="-8.8640090">
        <ele>5.3</ele>
        <time>2021-05-18T11:14:12Z</time>
      </trkpt>
      <trkpt lat="41.8607450" lon="-8.8640030">
        <ele>5.3</ele>
        <time>2021-05-18T11:14:13Z</time>
      </trkpt>
      <trkpt lat="41.8607710" lon="-8.8639980">
        <ele>5.2</ele>
        <time>2021-05-18T11:14:14Z</time>
      </trkpt>
      <trkpt lat="41.8607820" lon="-8.8639960">
        <ele>5.2</ele>
        <time>2021-05-18T11:14:15Z</time>
      </trkpt>
      <trkpt lat="41.8607920" lon="-8.8639930">
        <ele>5.2</ele>
        <time>2021-05-18T11:14:16Z</time>
      </trkpt>
      <trkpt lat="41.8608120" lon="-8.8639820">
        <ele>5.2</ele>
        <time>2021-05-18T11:14:17Z</time>
      </trkpt>
      <trkpt lat="41.8608220" lon="-8.8639800">
        <ele>5.2</ele>
        <time>2021-05-18T11:14:18Z</time>
      </trkpt>
      <trkpt lat="41.8608310" lon="-8.8639780">
        <ele>5.2</ele>
        <time>2021-05-18T11:14:19Z</time>
      </trkpt>
      <trkpt lat="41.8608540" lon="-8.8639780">
        <ele>5.2</ele>
        <time>2021-05-18T11:14:20Z</time>
      </trkpt>
      <trkpt lat="41.8608640" lon="-8.8639760">
        <ele>5.1</ele>
        <time>2021-05-18T11:14:21Z</time>
      </trkpt>
      <trkpt lat="41.8608740" lon="-8.8639750">
        <ele>5.1</ele>
        <time>2021-05-18T11:14:22Z</time>
      </trkpt>
      <trkpt lat="41.8608930" lon="-8.8639710">
        <ele>5.1</ele>
        <time>2021-05-18T11:14:23Z</time>
      </trkpt>
      <trkpt lat="41.8609070" lon="-8.8639730">
        <ele>5.1</ele>
        <time>2021-05-18T11:14:24Z</time>
      </trkpt>
      <trkpt lat="41.8609260" lon="-8.8639650">
        <ele>5.1</ele>
        <time>2021-05-18T11:14:25Z</time>
      </trkpt>
      <trkpt lat="41.8609360" lon="-8.8639630">
        <ele>5.1</ele>
        <time>2021-05-18T11:14:26Z</time>
      </trkpt>
      <trkpt lat="41.8609480" lon="-8.8639590">
        <ele>5.1</ele>
        <time>2021-05-18T11:14:27Z</time>
      </trkpt>
      <trkpt lat="41.8609580" lon="-8.8639540">
        <ele>5.1</ele>
        <time>2021-05-18T11:14:28Z</time>
      </trkpt>
      <trkpt lat="41.8609640" lon="-8.8639510">
        <ele>5.1</ele>
        <time>2021-05-18T11:14:29Z</time>
      </trkpt>
      <trkpt lat="41.8609840" lon="-8.8639400">
        <ele>5.1</ele>
        <time>2021-05-18T11:14:30Z</time>
      </trkpt>
      <trkpt lat="41.8609940" lon="-8.8639340">
        <ele>5.1</ele>
        <time>2021-05-18T11:14:31Z</time>
      </trkpt>
      <trkpt lat="41.8610040" lon="-8.8639290">
        <ele>5.1</ele>
        <time>2021-05-18T11:14:32Z</time>
      </trkpt>
      <trkpt lat="41.8610200" lon="-8.8639170">
        <ele>5.2</ele>
        <time>2021-05-18T11:14:33Z</time>
      </trkpt>
      <trkpt lat="41.8610320" lon="-8.8639080">
        <ele>5.2</ele>
        <time>2021-05-18T11:14:34Z</time>
      </trkpt>
      <trkpt lat="41.8610470" lon="-8.8638990">
        <ele>5.2</ele>
        <time>2021-05-18T11:14:35Z</time>
      </trkpt>
      <trkpt lat="41.8610600" lon="-8.8638970">
        <ele>5.2</ele>
        <time>2021-05-18T11:14:36Z</time>
      </trkpt>
      <trkpt lat="41.8610720" lon="-8.8638900">
        <ele>5.2</ele>
        <time>2021-05-18T11:14:37Z</time>
      </trkpt>
      <trkpt lat="41.8610840" lon="-8.8638870">
        <ele>5.2</ele>
        <time>2021-05-18T11:14:38Z</time>
      </trkpt>
      <trkpt lat="41.8610860" lon="-8.8638950">
        <ele>5.3</ele>
        <time>2021-05-18T11:14:39Z</time>
      </trkpt>
      <trkpt lat="41.8610890" lon="-8.8639010">
        <ele>5.3</ele>
        <time>2021-05-18T11:14:40Z</time>
      </trkpt>
      <trkpt lat="41.8610940" lon="-8.8639040">
        <ele>5.3</ele>
        <time>2021-05-18T11:14:41Z</time>
      </trkpt>
      <trkpt lat="41.8610970" lon="-8.8639020">
        <ele>5.3</ele>
        <time>2021-05-18T11:14:42Z</time>
      </trkpt>
      <trkpt lat="41.8611000" lon="-8.8639010">
        <ele>5.3</ele>
        <time>2021-05-18T11:14:43Z</time>
      </trkpt>
      <trkpt lat="41.8611030" lon="-8.8638990">
        <ele>5.3</ele>
        <time>2021-05-18T11:14:44Z</time>
      </trkpt>
      <trkpt lat="41.8611070" lon="-8.8638980">
        <ele>5.3</ele>
        <time>2021-05-18T11:14:45Z</time>
      </trkpt>
      <trkpt lat="41.8611100" lon="-8.8638960">
        <ele>5.3</ele>
        <time>2021-05-18T11:14:46Z</time>
      </trkpt>
      <trkpt lat="41.8611130" lon="-8.8638950">
        <ele>5.3</ele>
        <time>2021-05-18T11:14:47Z</time>
      </trkpt>
      <trkpt lat="41.8611160" lon="-8.8638930">
        <ele>5.3</ele>
        <time>2021-05-18T11:14:48Z</time>
      </trkpt>
      <trkpt lat="41.8611190" lon="-8.8638920">
        <ele>5.3</ele>
        <time>2021-05-18T11:14:49Z</time>
      </trkpt>
      <trkpt lat="41.8611220" lon="-8.8638900">
        <ele>5.3</ele>
        <time>2021-05-18T11:14:50Z</time>
      </trkpt>
      <trkpt lat="41.8611250" lon="-8.8638890">
        <ele>5.3</ele>
        <time>2021-05-18T11:14:51Z</time>
      </trkpt>
      <trkpt lat="41.8611280" lon="-8.8638870">
        <ele>5.3</ele>
        <time>2021-05-18T11:14:52Z</time>
      </trkpt>
      <trkpt lat="41.8611310" lon="-8.8638860">
        <ele>5.3</ele>
        <time>2021-05-18T11:14:53Z</time>
      </trkpt>
      <trkpt lat="41.8611350" lon="-8.8638850">
        <ele>5.3</ele>
        <time>2021-05-18T11:14:54Z</time>
      </trkpt>
      <trkpt lat="41.8611380" lon="-8.8638830">
        <ele>5.3</ele>
        <time>2021-05-18T11:14:55Z</time>
      </trkpt>
      <trkpt lat="41.8611410" lon="-8.8638820">
        <ele>5.3</ele>
        <time>2021-05-18T11:14:56Z</time>
      </trkpt>
      <trkpt lat="41.8611440" lon="-8.8638800">
        <ele>5.3</ele>
        <time>2021-05-18T11:14:57Z</time>
      </trkpt>
      <trkpt lat="41.8611470" lon="-8.8638790">
        <ele>5.3</ele>
        <time>2021-05-18T11:14:58Z</time>
      </trkpt>
      <trkpt lat="41.8611500" lon="-8.8638770">
        <ele>5.3</ele>
        <time>2021-05-18T11:14:59Z</time>
      </trkpt>
      <trkpt lat="41.8611530" lon="-8.8638760">
        <ele>5.3</ele>
        <time>2021-05-18T11:15:00Z</time>
      </trkpt>
      <trkpt lat="41.8611560" lon="-8.8638740">
        <ele>5.3</ele>
        <time>2021-05-18T11:15:01Z</time>
      </trkpt>
      <trkpt lat="41.8611590" lon="-8.8638730">
        <ele>5.3</ele>
        <time>2021-05-18T11:15:02Z</time>
      </trkpt>
      <trkpt lat="41.8611620" lon="-8.8638710">
        <ele>5.4</ele>
        <time>2021-05-18T11:15:03Z</time>
      </trkpt>
      <trkpt lat="41.8611660" lon="-8.8638700">
        <ele>5.4</ele>
        <time>2021-05-18T11:15:04Z</time>
      </trkpt>
      <trkpt lat="41.8611690" lon="-8.8638680">
        <ele>5.4</ele>
        <time>2021-05-18T11:15:05Z</time>
      </trkpt>
      <trkpt lat="41.8611720" lon="-8.8638670">
        <ele>5.4</ele>
        <time>2021-05-18T11:15:06Z</time>
      </trkpt>
      <trkpt lat="41.8611750" lon="-8.8638650">
        <ele>5.4</ele>
        <time>2021-05-18T11:15:07Z</time>
      </trkpt>
      <trkpt lat="41.8611780" lon="-8.8638640">
        <ele>5.4</ele>
        <time>2021-05-18T11:15:08Z</time>
      </trkpt>
      <trkpt lat="41.8612010" lon="-8.8638540">
        <ele>5.4</ele>
        <time>2021-05-18T11:15:09Z</time>
      </trkpt>
      <trkpt lat="41.8612100" lon="-8.8638490">
        <ele>5.4</ele>
        <time>2021-05-18T11:15:10Z</time>
      </trkpt>
      <trkpt lat="41.8612190" lon="-8.8638440">
        <ele>5.4</ele>
        <time>2021-05-18T11:15:11Z</time>
      </trkpt>
      <trkpt lat="41.8612250" lon="-8.8638380">
        <ele>5.4</ele>
        <time>2021-05-18T11:15:12Z</time>
      </trkpt>
      <trkpt lat="41.8612310" lon="-8.8638370">
        <ele>5.4</ele>
        <time>2021-05-18T11:15:13Z</time>
      </trkpt>
      <trkpt lat="41.8612350" lon="-8.8638310">
        <ele>5.4</ele>
        <time>2021-05-18T11:15:14Z</time>
      </trkpt>
      <trkpt lat="41.8612250" lon="-8.8638300">
        <ele>5.4</ele>
        <time>2021-05-18T11:15:15Z</time>
      </trkpt>
      <trkpt lat="41.8612240" lon="-8.8638260">
        <ele>5.4</ele>
        <time>2021-05-18T11:15:16Z</time>
      </trkpt>
      <trkpt lat="41.8612250" lon="-8.8638160">
        <ele>5.4</ele>
        <time>2021-05-18T11:15:17Z</time>
      </trkpt>
      <trkpt lat="41.8612220" lon="-8.8638090">
        <ele>5.4</ele>
        <time>2021-05-18T11:15:18Z</time>
      </trkpt>
      <trkpt lat="41.8612180" lon="-8.8638020">
        <ele>5.4</ele>
        <time>2021-05-18T11:15:19Z</time>
      </trkpt>
      <trkpt lat="41.8612190" lon="-8.8637940">
        <ele>5.4</ele>
        <time>2021-05-18T11:15:20Z</time>
      </trkpt>
      <trkpt lat="41.8612260" lon="-8.8637910">
        <ele>5.4</ele>
        <time>2021-05-18T11:15:21Z</time>
      </trkpt>
      <trkpt lat="41.8612260" lon="-8.8637940">
        <ele>5.4</ele>
        <time>2021-05-18T11:15:22Z</time>
      </trkpt>
      <trkpt lat="41.8612310" lon="-8.8637950">
        <ele>5.4</ele>
        <time>2021-05-18T11:15:23Z</time>
      </trkpt>
      <trkpt lat="41.8612360" lon="-8.8637950">
        <ele>5.4</ele>
        <time>2021-05-18T11:15:24Z</time>
      </trkpt>
      <trkpt lat="41.8612340" lon="-8.8637920">
        <ele>5.4</ele>
        <time>2021-05-18T11:15:25Z</time>
      </trkpt>
      <trkpt lat="41.8612280" lon="-8.8637890">
        <ele>5.4</ele>
        <time>2021-05-18T11:15:26Z</time>
      </trkpt>
      <trkpt lat="41.8612250" lon="-8.8637900">
        <ele>5.4</ele>
        <time>2021-05-18T11:15:27Z</time>
      </trkpt>
      <trkpt lat="41.8612150" lon="-8.8637900">
        <ele>5.4</ele>
        <time>2021-05-18T11:15:28Z</time>
      </trkpt>
      <trkpt lat="41.8612110" lon="-8.8637910">
        <ele>5.4</ele>
        <time>2021-05-18T11:15:29Z</time>
      </trkpt>
      <trkpt lat="41.8612080" lon="-8.8637940">
        <ele>5.4</ele>
        <time>2021-05-18T11:15:30Z</time>
      </trkpt>
      <trkpt lat="41.8612090" lon="-8.8637960">
        <ele>5.4</ele>
        <time>2021-05-18T11:15:31Z</time>
      </trkpt>
      <trkpt lat="41.8612110" lon="-8.8637980">
        <ele>5.4</ele>
        <time>2021-05-18T11:15:32Z</time>
      </trkpt>
      <trkpt lat="41.8612070" lon="-8.8637980">
        <ele>5.4</ele>
        <time>2021-05-18T11:15:33Z</time>
      </trkpt>
      <trkpt lat="41.8612030" lon="-8.8638010">
        <ele>5.4</ele>
        <time>2021-05-18T11:15:34Z</time>
      </trkpt>
      <trkpt lat="41.8612080" lon="-8.8637990">
        <ele>5.4</ele>
        <time>2021-05-18T11:15:35Z</time>
      </trkpt>
      <trkpt lat="41.8612110" lon="-8.8637930">
        <ele>5.4</ele>
        <time>2021-05-18T11:15:36Z</time>
      </trkpt>
      <trkpt lat="41.8612160" lon="-8.8637990">
        <ele>5.4</ele>
        <time>2021-05-18T11:15:37Z</time>
      </trkpt>
      <trkpt lat="41.8612150" lon="-8.8638030">
        <ele>5.4</ele>
        <time>2021-05-18T11:15:38Z</time>
      </trkpt>
      <trkpt lat="41.8612140" lon="-8.8638030">
        <ele>5.4</ele>
        <time>2021-05-18T11:15:39Z</time>
      </trkpt>
      <trkpt lat="41.8612120" lon="-8.8638020">
        <ele>5.4</ele>
        <time>2021-05-18T11:15:40Z</time>
      </trkpt>
      <trkpt lat="41.8612090" lon="-8.8638020">
        <ele>5.4</ele>
        <time>2021-05-18T11:15:41Z</time>
      </trkpt>
      <trkpt lat="41.8612090" lon="-8.8637990">
        <ele>5.4</ele>
        <time>2021-05-18T11:15:42Z</time>
      </trkpt>
      <trkpt lat="41.8612080" lon="-8.8637950">
        <ele>5.4</ele>
        <time>2021-05-18T11:15:43Z</time>
      </trkpt>
      <trkpt lat="41.8612060" lon="-8.8637980">
        <ele>5.4</ele>
        <time>2021-05-18T11:15:44Z</time>
      </trkpt>
      <trkpt lat="41.8612060" lon="-8.8637940">
        <ele>5.4</ele>
        <time>2021-05-18T11:15:45Z</time>
      </trkpt>
      <trkpt lat="41.8612040" lon="-8.8637970">
        <ele>5.4</ele>
        <time>2021-05-18T11:15:46Z</time>
      </trkpt>
      <trkpt lat="41.8612020" lon="-8.8637980">
        <ele>5.4</ele>
        <time>2021-05-18T11:15:47Z</time>
      </trkpt>
      <trkpt lat="41.8612000" lon="-8.8637950">
        <ele>5.4</ele>
        <time>2021-05-18T11:15:48Z</time>
      </trkpt>
      <trkpt lat="41.8611990" lon="-8.8637920">
        <ele>5.4</ele>
        <time>2021-05-18T11:15:49Z</time>
      </trkpt>
      <trkpt lat="41.8612000" lon="-8.8637940">
        <ele>5.4</ele>
        <time>2021-05-18T11:15:50Z</time>
      </trkpt>
      <trkpt lat="41.8611990" lon="-8.8637960">
        <ele>5.4</ele>
        <time>2021-05-18T11:15:51Z</time>
      </trkpt>
      <trkpt lat="41.8611960" lon="-8.8638020">
        <ele>5.4</ele>
        <time>2021-05-18T11:15:52Z</time>
      </trkpt>
      <trkpt lat="41.8611980" lon="-8.8638060">
        <ele>5.4</ele>
        <time>2021-05-18T11:15:53Z</time>
      </trkpt>
      <trkpt lat="41.8611980" lon="-8.8638060">
        <ele>5.4</ele>
        <time>2021-05-18T11:15:54Z</time>
      </trkpt>
      <trkpt lat="41.8611880" lon="-8.8638110">
        <ele>5.4</ele>
        <time>2021-05-18T11:15:55Z</time>
      </trkpt>
      <trkpt lat="41.8611780" lon="-8.8638160">
        <ele>5.4</ele>
        <time>2021-05-18T11:15:56Z</time>
      </trkpt>
      <trkpt lat="41.8611770" lon="-8.8638160">
        <ele>5.4</ele>
        <time>2021-05-18T11:15:57Z</time>
      </trkpt>
      <trkpt lat="41.8611590" lon="-8.8638240">
        <ele>5.3</ele>
        <time>2021-05-18T11:15:58Z</time>
      </trkpt>
      <trkpt lat="41.8611560" lon="-8.8638230">
        <ele>5.3</ele>
        <time>2021-05-18T11:15:59Z</time>
      </trkpt>
      <trkpt lat="41.8611530" lon="-8.8638230">
        <ele>5.3</ele>
        <time>2021-05-18T11:16:00Z</time>
      </trkpt>
      <trkpt lat="41.8611520" lon="-8.8638240">
        <ele>5.3</ele>
        <time>2021-05-18T11:16:01Z</time>
      </trkpt>
      <trkpt lat="41.8611550" lon="-8.8638210">
        <ele>5.3</ele>
        <time>2021-05-18T11:16:02Z</time>
      </trkpt>
      <trkpt lat="41.8611570" lon="-8.8638180">
        <ele>5.3</ele>
        <time>2021-05-18T11:16:03Z</time>
      </trkpt>
      <trkpt lat="41.8611610" lon="-8.8638150">
        <ele>5.3</ele>
        <time>2021-05-18T11:16:04Z</time>
      </trkpt>
      <trkpt lat="41.8611680" lon="-8.8638100">
        <ele>5.3</ele>
        <time>2021-05-18T11:16:05Z</time>
      </trkpt>
      <trkpt lat="41.8611710" lon="-8.8638060">
        <ele>5.3</ele>
        <time>2021-05-18T11:16:06Z</time>
      </trkpt>
      <trkpt lat="41.8611820" lon="-8.8638030">
        <ele>5.3</ele>
        <time>2021-05-18T11:16:07Z</time>
      </trkpt>
      <trkpt lat="41.8612000" lon="-8.8637890">
        <ele>5.3</ele>
        <time>2021-05-18T11:16:08Z</time>
      </trkpt>
      <trkpt lat="41.8612070" lon="-8.8637820">
        <ele>5.3</ele>
        <time>2021-05-18T11:16:09Z</time>
      </trkpt>
      <trkpt lat="41.8612140" lon="-8.8637760">
        <ele>5.3</ele>
        <time>2021-05-18T11:16:10Z</time>
      </trkpt>
      <trkpt lat="41.8612180" lon="-8.8637700">
        <ele>5.3</ele>
        <time>2021-05-18T11:16:11Z</time>
      </trkpt>
      <trkpt lat="41.8612160" lon="-8.8637760">
        <ele>5.3</ele>
        <time>2021-05-18T11:16:12Z</time>
      </trkpt>
      <trkpt lat="41.8612160" lon="-8.8637800">
        <ele>5.3</ele>
        <time>2021-05-18T11:16:13Z</time>
      </trkpt>
      <trkpt lat="41.8612130" lon="-8.8637820">
        <ele>5.3</ele>
        <time>2021-05-18T11:16:14Z</time>
      </trkpt>
      <trkpt lat="41.8612130" lon="-8.8637830">
        <ele>5.3</ele>
        <time>2021-05-18T11:16:15Z</time>
      </trkpt>
      <trkpt lat="41.8612110" lon="-8.8637820">
        <ele>5.3</ele>
        <time>2021-05-18T11:16:16Z</time>
      </trkpt>
      <trkpt lat="41.8612070" lon="-8.8637830">
        <ele>5.3</ele>
        <time>2021-05-18T11:16:17Z</time>
      </trkpt>
      <trkpt lat="41.8612090" lon="-8.8637770">
        <ele>5.3</ele>
        <time>2021-05-18T11:16:18Z</time>
      </trkpt>
      <trkpt lat="41.8612180" lon="-8.8637640">
        <ele>5.3</ele>
        <time>2021-05-18T11:16:19Z</time>
      </trkpt>
      <trkpt lat="41.8612220" lon="-8.8637380">
        <ele>5.3</ele>
        <time>2021-05-18T11:16:20Z</time>
      </trkpt>
      <trkpt lat="41.8612450" lon="-8.8637320">
        <ele>5.3</ele>
        <time>2021-05-18T11:16:21Z</time>
      </trkpt>
      <trkpt lat="41.8612590" lon="-8.8637350">
        <ele>5.3</ele>
        <time>2021-05-18T11:16:22Z</time>
      </trkpt>
      <trkpt lat="41.8612720" lon="-8.8637310">
        <ele>5.3</ele>
        <time>2021-05-18T11:16:23Z</time>
      </trkpt>
      <trkpt lat="41.8612820" lon="-8.8637270">
        <ele>5.3</ele>
        <time>2021-05-18T11:16:24Z</time>
      </trkpt>
      <trkpt lat="41.8612850" lon="-8.8637250">
        <ele>5.3</ele>
        <time>2021-05-18T11:16:25Z</time>
      </trkpt>
      <trkpt lat="41.8612900" lon="-8.8637200">
        <ele>5.3</ele>
        <time>2021-05-18T11:16:26Z</time>
      </trkpt>
      <trkpt lat="41.8612970" lon="-8.8637120">
        <ele>5.3</ele>
        <time>2021-05-18T11:16:27Z</time>
      </trkpt>
      <trkpt lat="41.8613070" lon="-8.8637100">
        <ele>5.3</ele>
        <time>2021-05-18T11:16:28Z</time>
      </trkpt>
      <trkpt lat="41.8613190" lon="-8.8637080">
        <ele>5.3</ele>
        <time>2021-05-18T11:16:29Z</time>
      </trkpt>
      <trkpt lat="41.8613450" lon="-8.8637110">
        <ele>5.3</ele>
        <time>2021-05-18T11:16:30Z</time>
      </trkpt>
      <trkpt lat="41.8613530" lon="-8.8637120">
        <ele>5.2</ele>
        <time>2021-05-18T11:16:31Z</time>
      </trkpt>
      <trkpt lat="41.8613610" lon="-8.8637130">
        <ele>5.2</ele>
        <time>2021-05-18T11:16:32Z</time>
      </trkpt>
      <trkpt lat="41.8613910" lon="-8.8637040">
        <ele>5.2</ele>
        <time>2021-05-18T11:16:33Z</time>
      </trkpt>
      <trkpt lat="41.8613980" lon="-8.8637030">
        <ele>5.2</ele>
        <time>2021-05-18T11:16:34Z</time>
      </trkpt>
      <trkpt lat="41.8614100" lon="-8.8637030">
        <ele>5.2</ele>
        <time>2021-05-18T11:16:35Z</time>
      </trkpt>
      <trkpt lat="41.8614160" lon="-8.8637000">
        <ele>5.2</ele>
        <time>2021-05-18T11:16:36Z</time>
      </trkpt>
      <trkpt lat="41.8614250" lon="-8.8636990">
        <ele>5.2</ele>
        <time>2021-05-18T11:16:37Z</time>
      </trkpt>
      <trkpt lat="41.8614510" lon="-8.8636880">
        <ele>5.2</ele>
        <time>2021-05-18T11:16:38Z</time>
      </trkpt>
      <trkpt lat="41.8614560" lon="-8.8636880">
        <ele>5.2</ele>
        <time>2021-05-18T11:16:39Z</time>
      </trkpt>
      <trkpt lat="41.8614610" lon="-8.8636870">
        <ele>5.2</ele>
        <time>2021-05-18T11:16:40Z</time>
      </trkpt>
      <trkpt lat="41.8614920" lon="-8.8636760">
        <ele>5.1</ele>
        <time>2021-05-18T11:16:41Z</time>
      </trkpt>
      <trkpt lat="41.8615020" lon="-8.8636730">
        <ele>5.1</ele>
        <time>2021-05-18T11:16:42Z</time>
      </trkpt>
      <trkpt lat="41.8615240" lon="-8.8636660">
        <ele>5.1</ele>
        <time>2021-05-18T11:16:43Z</time>
      </trkpt>
      <trkpt lat="41.8615310" lon="-8.8636630">
        <ele>5.1</ele>
        <time>2021-05-18T11:16:44Z</time>
      </trkpt>
      <trkpt lat="41.8615390" lon="-8.8636610">
        <ele>5.1</ele>
        <time>2021-05-18T11:16:45Z</time>
      </trkpt>
      <trkpt lat="41.8615510" lon="-8.8636560">
        <ele>5.0</ele>
        <time>2021-05-18T11:16:46Z</time>
      </trkpt>
      <trkpt lat="41.8615680" lon="-8.8636510">
        <ele>5.0</ele>
        <time>2021-05-18T11:16:47Z</time>
      </trkpt>
      <trkpt lat="41.8615800" lon="-8.8636430">
        <ele>5.0</ele>
        <time>2021-05-18T11:16:48Z</time>
      </trkpt>
      <trkpt lat="41.8615980" lon="-8.8636440">
        <ele>5.0</ele>
        <time>2021-05-18T11:16:49Z</time>
      </trkpt>
      <trkpt lat="41.8616260" lon="-8.8636450">
        <ele>4.9</ele>
        <time>2021-05-18T11:16:50Z</time>
      </trkpt>
      <trkpt lat="41.8616350" lon="-8.8636450">
        <ele>4.9</ele>
        <time>2021-05-18T11:16:51Z</time>
      </trkpt>
      <trkpt lat="41.8616530" lon="-8.8636450">
        <ele>4.9</ele>
        <time>2021-05-18T11:16:52Z</time>
      </trkpt>
      <trkpt lat="41.8616640" lon="-8.8636430">
        <ele>4.9</ele>
        <time>2021-05-18T11:16:53Z</time>
      </trkpt>
      <trkpt lat="41.8616760" lon="-8.8636400">
        <ele>4.8</ele>
        <time>2021-05-18T11:16:54Z</time>
      </trkpt>
      <trkpt lat="41.8616890" lon="-8.8636390">
        <ele>4.8</ele>
        <time>2021-05-18T11:16:55Z</time>
      </trkpt>
      <trkpt lat="41.8617120" lon="-8.8636350">
        <ele>4.8</ele>
        <time>2021-05-18T11:16:56Z</time>
      </trkpt>
      <trkpt lat="41.8617400" lon="-8.8636310">
        <ele>4.8</ele>
        <time>2021-05-18T11:16:57Z</time>
      </trkpt>
      <trkpt lat="41.8617490" lon="-8.8636280">
        <ele>4.8</ele>
        <time>2021-05-18T11:16:58Z</time>
      </trkpt>
      <trkpt lat="41.8617530" lon="-8.8636300">
        <ele>4.8</ele>
        <time>2021-05-18T11:16:59Z</time>
      </trkpt>
      <trkpt lat="41.8617700" lon="-8.8636300">
        <ele>4.7</ele>
        <time>2021-05-18T11:17:00Z</time>
      </trkpt>
      <trkpt lat="41.8617840" lon="-8.8636240">
        <ele>4.7</ele>
        <time>2021-05-18T11:17:01Z</time>
      </trkpt>
      <trkpt lat="41.8617900" lon="-8.8636210">
        <ele>4.7</ele>
        <time>2021-05-18T11:17:02Z</time>
      </trkpt>
      <trkpt lat="41.8618160" lon="-8.8636130">
        <ele>4.7</ele>
        <time>2021-05-18T11:17:03Z</time>
      </trkpt>
      <trkpt lat="41.8618330" lon="-8.8636130">
        <ele>4.7</ele>
        <time>2021-05-18T11:17:04Z</time>
      </trkpt>
      <trkpt lat="41.8618450" lon="-8.8636030">
        <ele>4.7</ele>
        <time>2021-05-18T11:17:05Z</time>
      </trkpt>
      <trkpt lat="41.8618500" lon="-8.8635980">
        <ele>4.7</ele>
        <time>2021-05-18T11:17:06Z</time>
      </trkpt>
      <trkpt lat="41.8618670" lon="-8.8635930">
        <ele>4.7</ele>
        <time>2021-05-18T11:17:07Z</time>
      </trkpt>
      <trkpt lat="41.8618750" lon="-8.8635920">
        <ele>4.7</ele>
        <time>2021-05-18T11:17:08Z</time>
      </trkpt>
      <trkpt lat="41.8618900" lon="-8.8635780">
        <ele>4.7</ele>
        <time>2021-05-18T11:17:09Z</time>
      </trkpt>
      <trkpt lat="41.8619020" lon="-8.8635790">
        <ele>4.6</ele>
        <time>2021-05-18T11:17:10Z</time>
      </trkpt>
      <trkpt lat="41.8619210" lon="-8.8635780">
        <ele>4.6</ele>
        <time>2021-05-18T11:17:11Z</time>
      </trkpt>
      <trkpt lat="41.8619320" lon="-8.8635790">
        <ele>4.6</ele>
        <time>2021-05-18T11:17:12Z</time>
      </trkpt>
      <trkpt lat="41.8619420" lon="-8.8635790">
        <ele>4.6</ele>
        <time>2021-05-18T11:17:13Z</time>
      </trkpt>
      <trkpt lat="41.8619610" lon="-8.8635720">
        <ele>4.6</ele>
        <time>2021-05-18T11:17:14Z</time>
      </trkpt>
      <trkpt lat="41.8619690" lon="-8.8635640">
        <ele>4.5</ele>
        <time>2021-05-18T11:17:15Z</time>
      </trkpt>
      <trkpt lat="41.8619820" lon="-8.8635580">
        <ele>4.5</ele>
        <time>2021-05-18T11:17:16Z</time>
      </trkpt>
      <trkpt lat="41.8619920" lon="-8.8635520">
        <ele>4.5</ele>
        <time>2021-05-18T11:17:17Z</time>
      </trkpt>
      <trkpt lat="41.8619970" lon="-8.8635460">
        <ele>4.5</ele>
        <time>2021-05-18T11:17:18Z</time>
      </trkpt>
      <trkpt lat="41.8620140" lon="-8.8635520">
        <ele>4.4</ele>
        <time>2021-05-18T11:17:19Z</time>
      </trkpt>
      <trkpt lat="41.8620300" lon="-8.8635470">
        <ele>4.4</ele>
        <time>2021-05-18T11:17:20Z</time>
      </trkpt>
      <trkpt lat="41.8620520" lon="-8.8635390">
        <ele>4.3</ele>
        <time>2021-05-18T11:17:21Z</time>
      </trkpt>
      <trkpt lat="41.8620600" lon="-8.8635350">
        <ele>4.3</ele>
        <time>2021-05-18T11:17:22Z</time>
      </trkpt>
      <trkpt lat="41.8620690" lon="-8.8635320">
        <ele>4.2</ele>
        <time>2021-05-18T11:17:23Z</time>
      </trkpt>
      <trkpt lat="41.8620820" lon="-8.8635370">
        <ele>4.2</ele>
        <time>2021-05-18T11:17:24Z</time>
      </trkpt>
      <trkpt lat="41.8620860" lon="-8.8635440">
        <ele>4.2</ele>
        <time>2021-05-18T11:17:25Z</time>
      </trkpt>
      <trkpt lat="41.8620970" lon="-8.8635420">
        <ele>4.2</ele>
        <time>2021-05-18T11:17:26Z</time>
      </trkpt>
      <trkpt lat="41.8621070" lon="-8.8635440">
        <ele>4.1</ele>
        <time>2021-05-18T11:17:27Z</time>
      </trkpt>
      <trkpt lat="41.8621140" lon="-8.8635430">
        <ele>4.1</ele>
        <time>2021-05-18T11:17:28Z</time>
      </trkpt>
      <trkpt lat="41.8621240" lon="-8.8635360">
        <ele>4.1</ele>
        <time>2021-05-18T11:17:29Z</time>
      </trkpt>
      <trkpt lat="41.8621500" lon="-8.8635350">
        <ele>4.0</ele>
        <time>2021-05-18T11:17:30Z</time>
      </trkpt>
      <trkpt lat="41.8621630" lon="-8.8635380">
        <ele>4.0</ele>
        <time>2021-05-18T11:17:31Z</time>
      </trkpt>
      <trkpt lat="41.8621800" lon="-8.8635330">
        <ele>3.9</ele>
        <time>2021-05-18T11:17:32Z</time>
      </trkpt>
      <trkpt lat="41.8621970" lon="-8.8635310">
        <ele>3.9</ele>
        <time>2021-05-18T11:17:33Z</time>
      </trkpt>
      <trkpt lat="41.8622070" lon="-8.8635340">
        <ele>3.8</ele>
        <time>2021-05-18T11:17:34Z</time>
      </trkpt>
      <trkpt lat="41.8622240" lon="-8.8635220">
        <ele>3.8</ele>
        <time>2021-05-18T11:17:35Z</time>
      </trkpt>
      <trkpt lat="41.8622380" lon="-8.8635130">
        <ele>3.7</ele>
        <time>2021-05-18T11:17:36Z</time>
      </trkpt>
      <trkpt lat="41.8622560" lon="-8.8635110">
        <ele>3.7</ele>
        <time>2021-05-18T11:17:37Z</time>
      </trkpt>
      <trkpt lat="41.8622650" lon="-8.8635050">
        <ele>3.7</ele>
        <time>2021-05-18T11:17:38Z</time>
      </trkpt>
      <trkpt lat="41.8622810" lon="-8.8634970">
        <ele>3.6</ele>
        <time>2021-05-18T11:17:39Z</time>
      </trkpt>
      <trkpt lat="41.8623080" lon="-8.8634790">
        <ele>3.6</ele>
        <time>2021-05-18T11:17:40Z</time>
      </trkpt>
      <trkpt lat="41.8623160" lon="-8.8634720">
        <ele>3.5</ele>
        <time>2021-05-18T11:17:41Z</time>
      </trkpt>
      <trkpt lat="41.8623240" lon="-8.8634660">
        <ele>3.5</ele>
        <time>2021-05-18T11:17:42Z</time>
      </trkpt>
      <trkpt lat="41.8623350" lon="-8.8634590">
        <ele>3.5</ele>
        <time>2021-05-18T11:17:43Z</time>
      </trkpt>
      <trkpt lat="41.8623410" lon="-8.8634500">
        <ele>3.5</ele>
        <time>2021-05-18T11:17:44Z</time>
      </trkpt>
      <trkpt lat="41.8623450" lon="-8.8634380">
        <ele>3.5</ele>
        <time>2021-05-18T11:17:45Z</time>
      </trkpt>
      <trkpt lat="41.8623680" lon="-8.8634160">
        <ele>3.4</ele>
        <time>2021-05-18T11:17:46Z</time>
      </trkpt>
      <trkpt lat="41.8623750" lon="-8.8634070">
        <ele>3.4</ele>
        <time>2021-05-18T11:17:47Z</time>
      </trkpt>
      <trkpt lat="41.8623940" lon="-8.8633980">
        <ele>3.4</ele>
        <time>2021-05-18T11:17:48Z</time>
      </trkpt>
      <trkpt lat="41.8624060" lon="-8.8633900">
        <ele>3.4</ele>
        <time>2021-05-18T11:17:49Z</time>
      </trkpt>
      <trkpt lat="41.8624160" lon="-8.8633840">
        <ele>3.4</ele>
        <time>2021-05-18T11:17:50Z</time>
      </trkpt>
      <trkpt lat="41.8624330" lon="-8.8633730">
        <ele>3.4</ele>
        <time>2021-05-18T11:17:51Z</time>
      </trkpt>
      <trkpt lat="41.8624460" lon="-8.8633670">
        <ele>3.4</ele>
        <time>2021-05-18T11:17:52Z</time>
      </trkpt>
      <trkpt lat="41.8624540" lon="-8.8633640">
        <ele>3.4</ele>
        <time>2021-05-18T11:17:53Z</time>
      </trkpt>
      <trkpt lat="41.8624620" lon="-8.8633610">
        <ele>3.4</ele>
        <time>2021-05-18T11:17:54Z</time>
      </trkpt>
      <trkpt lat="41.8624800" lon="-8.8633610">
        <ele>3.4</ele>
        <time>2021-05-18T11:17:55Z</time>
      </trkpt>
      <trkpt lat="41.8624860" lon="-8.8633550">
        <ele>3.4</ele>
        <time>2021-05-18T11:17:56Z</time>
      </trkpt>
      <trkpt lat="41.8624920" lon="-8.8633500">
        <ele>3.4</ele>
        <time>2021-05-18T11:17:57Z</time>
      </trkpt>
      <trkpt lat="41.8624980" lon="-8.8633440">
        <ele>3.5</ele>
        <time>2021-05-18T11:17:58Z</time>
      </trkpt>
      <trkpt lat="41.8625240" lon="-8.8633340">
        <ele>3.5</ele>
        <time>2021-05-18T11:17:59Z</time>
      </trkpt>
      <trkpt lat="41.8625390" lon="-8.8633250">
        <ele>3.5</ele>
        <time>2021-05-18T11:18:00Z</time>
      </trkpt>
      <trkpt lat="41.8625670" lon="-8.8633270">
        <ele>3.6</ele>
        <time>2021-05-18T11:18:01Z</time>
      </trkpt>
      <trkpt lat="41.8625770" lon="-8.8633260">
        <ele>3.6</ele>
        <time>2021-05-18T11:18:02Z</time>
      </trkpt>
      <trkpt lat="41.8625930" lon="-8.8633220">
        <ele>3.6</ele>
        <time>2021-05-18T11:18:03Z</time>
      </trkpt>
      <trkpt lat="41.8626120" lon="-8.8633170">
        <ele>3.7</ele>
        <time>2021-05-18T11:18:04Z</time>
      </trkpt>
      <trkpt lat="41.8626240" lon="-8.8633170">
        <ele>3.7</ele>
        <time>2021-05-18T11:18:05Z</time>
      </trkpt>
      <trkpt lat="41.8626390" lon="-8.8633090">
        <ele>3.7</ele>
        <time>2021-05-18T11:18:06Z</time>
      </trkpt>
      <trkpt lat="41.8626570" lon="-8.8632960">
        <ele>3.8</ele>
        <time>2021-05-18T11:18:07Z</time>
      </trkpt>
      <trkpt lat="41.8626650" lon="-8.8632950">
        <ele>3.8</ele>
        <time>2021-05-18T11:18:08Z</time>
      </trkpt>
      <trkpt lat="41.8626740" lon="-8.8632930">
        <ele>3.8</ele>
        <time>2021-05-18T11:18:09Z</time>
      </trkpt>
      <trkpt lat="41.8627080" lon="-8.8632800">
        <ele>3.9</ele>
        <time>2021-05-18T11:18:10Z</time>
      </trkpt>
      <trkpt lat="41.8627170" lon="-8.8632750">
        <ele>3.9</ele>
        <time>2021-05-18T11:18:11Z</time>
      </trkpt>
      <trkpt lat="41.8627480" lon="-8.8632740">
        <ele>4.0</ele>
        <time>2021-05-18T11:18:12Z</time>
      </trkpt>
      <trkpt lat="41.8627550" lon="-8.8632720">
        <ele>4.0</ele>
        <time>2021-05-18T11:18:13Z</time>
      </trkpt>
      <trkpt lat="41.8627750" lon="-8.8632730">
        <ele>4.1</ele>
        <time>2021-05-18T11:18:14Z</time>
      </trkpt>
      <trkpt lat="41.8627890" lon="-8.8632660">
        <ele>4.1</ele>
        <time>2021-05-18T11:18:15Z</time>
      </trkpt>
      <trkpt lat="41.8627980" lon="-8.8632630">
        <ele>4.2</ele>
        <time>2021-05-18T11:18:16Z</time>
      </trkpt>
      <trkpt lat="41.8628020" lon="-8.8632700">
        <ele>4.2</ele>
        <time>2021-05-18T11:18:17Z</time>
      </trkpt>
      <trkpt lat="41.8628140" lon="-8.8632610">
        <ele>4.2</ele>
        <time>2021-05-18T11:18:18Z</time>
      </trkpt>
      <trkpt lat="41.8628220" lon="-8.8632630">
        <ele>4.2</ele>
        <time>2021-05-18T11:18:19Z</time>
      </trkpt>
      <trkpt lat="41.8628290" lon="-8.8632600">
        <ele>4.3</ele>
        <time>2021-05-18T11:18:20Z</time>
      </trkpt>
      <trkpt lat="41.8628500" lon="-8.8632540">
        <ele>4.3</ele>
        <time>2021-05-18T11:18:21Z</time>
      </trkpt>
      <trkpt lat="41.8628720" lon="-8.8632540">
        <ele>4.4</ele>
        <time>2021-05-18T11:18:22Z</time>
      </trkpt>
      <trkpt lat="41.8628800" lon="-8.8632500">
        <ele>4.4</ele>
        <time>2021-05-18T11:18:23Z</time>
      </trkpt>
      <trkpt lat="41.8628880" lon="-8.8632460">
        <ele>4.4</ele>
        <time>2021-05-18T11:18:24Z</time>
      </trkpt>
      <trkpt lat="41.8629030" lon="-8.8632400">
        <ele>4.5</ele>
        <time>2021-05-18T11:18:25Z</time>
      </trkpt>
      <trkpt lat="41.8629070" lon="-8.8632360">
        <ele>4.5</ele>
        <time>2021-05-18T11:18:26Z</time>
      </trkpt>
      <trkpt lat="41.8629160" lon="-8.8632310">
        <ele>4.5</ele>
        <time>2021-05-18T11:18:27Z</time>
      </trkpt>
      <trkpt lat="41.8629250" lon="-8.8632290">
        <ele>4.5</ele>
        <time>2021-05-18T11:18:28Z</time>
      </trkpt>
      <trkpt lat="41.8629330" lon="-8.8632290">
        <ele>4.5</ele>
        <time>2021-05-18T11:18:29Z</time>
      </trkpt>
      <trkpt lat="41.8629360" lon="-8.8632210">
        <ele>4.6</ele>
        <time>2021-05-18T11:18:30Z</time>
      </trkpt>
      <trkpt lat="41.8629400" lon="-8.8632220">
        <ele>4.6</ele>
        <time>2021-05-18T11:18:31Z</time>
      </trkpt>
      <trkpt lat="41.8629500" lon="-8.8632240">
        <ele>4.6</ele>
        <time>2021-05-18T11:18:32Z</time>
      </trkpt>
      <trkpt lat="41.8629640" lon="-8.8632290">
        <ele>4.6</ele>
        <time>2021-05-18T11:18:33Z</time>
      </trkpt>
      <trkpt lat="41.8629750" lon="-8.8632320">
        <ele>4.7</ele>
        <time>2021-05-18T11:18:34Z</time>
      </trkpt>
      <trkpt lat="41.8629810" lon="-8.8632320">
        <ele>4.7</ele>
        <time>2021-05-18T11:18:35Z</time>
      </trkpt>
      <trkpt lat="41.8629980" lon="-8.8632210">
        <ele>4.7</ele>
        <time>2021-05-18T11:18:36Z</time>
      </trkpt>
      <trkpt lat="41.8630120" lon="-8.8632280">
        <ele>4.8</ele>
        <time>2021-05-18T11:18:37Z</time>
      </trkpt>
      <trkpt lat="41.8630340" lon="-8.8632240">
        <ele>4.8</ele>
        <time>2021-05-18T11:18:38Z</time>
      </trkpt>
      <trkpt lat="41.8630450" lon="-8.8632240">
        <ele>4.8</ele>
        <time>2021-05-18T11:18:39Z</time>
      </trkpt>
      <trkpt lat="41.8630740" lon="-8.8632230">
        <ele>4.9</ele>
        <time>2021-05-18T11:18:40Z</time>
      </trkpt>
      <trkpt lat="41.8630830" lon="-8.8632210">
        <ele>4.9</ele>
        <time>2021-05-18T11:18:41Z</time>
      </trkpt>
      <trkpt lat="41.8630920" lon="-8.8632180">
        <ele>5.0</ele>
        <time>2021-05-18T11:18:42Z</time>
      </trkpt>
      <trkpt lat="41.8630990" lon="-8.8632130">
        <ele>5.0</ele>
        <time>2021-05-18T11:18:43Z</time>
      </trkpt>
      <trkpt lat="41.8631100" lon="-8.8632150">
        <ele>5.0</ele>
        <time>2021-05-18T11:18:44Z</time>
      </trkpt>
      <trkpt lat="41.8631300" lon="-8.8632160">
        <ele>5.1</ele>
        <time>2021-05-18T11:18:45Z</time>
      </trkpt>
      <trkpt lat="41.8631380" lon="-8.8632150">
        <ele>5.1</ele>
        <time>2021-05-18T11:18:46Z</time>
      </trkpt>
      <trkpt lat="41.8631450" lon="-8.8632150">
        <ele>5.1</ele>
        <time>2021-05-18T11:18:47Z</time>
      </trkpt>
      <trkpt lat="41.8631530" lon="-8.8632140">
        <ele>5.1</ele>
        <time>2021-05-18T11:18:48Z</time>
      </trkpt>
      <trkpt lat="41.8631620" lon="-8.8632100">
        <ele>5.2</ele>
        <time>2021-05-18T11:18:49Z</time>
      </trkpt>
      <trkpt lat="41.8631700" lon="-8.8632130">
        <ele>5.2</ele>
        <time>2021-05-18T11:18:50Z</time>
      </trkpt>
      <trkpt lat="41.8631860" lon="-8.8632120">
        <ele>5.2</ele>
        <time>2021-05-18T11:18:51Z</time>
      </trkpt>
      <trkpt lat="41.8632000" lon="-8.8632100">
        <ele>5.3</ele>
        <time>2021-05-18T11:18:52Z</time>
      </trkpt>
      <trkpt lat="41.8632090" lon="-8.8632170">
        <ele>5.3</ele>
        <time>2021-05-18T11:18:53Z</time>
      </trkpt>
      <trkpt lat="41.8632130" lon="-8.8632190">
        <ele>5.3</ele>
        <time>2021-05-18T11:18:54Z</time>
      </trkpt>
      <trkpt lat="41.8632350" lon="-8.8632140">
        <ele>5.4</ele>
        <time>2021-05-18T11:18:55Z</time>
      </trkpt>
      <trkpt lat="41.8632460" lon="-8.8632120">
        <ele>5.4</ele>
        <time>2021-05-18T11:18:56Z</time>
      </trkpt>
      <trkpt lat="41.8632630" lon="-8.8632090">
        <ele>5.5</ele>
        <time>2021-05-18T11:18:57Z</time>
      </trkpt>
      <trkpt lat="41.8632710" lon="-8.8632070">
        <ele>5.5</ele>
        <time>2021-05-18T11:18:58Z</time>
      </trkpt>
      <trkpt lat="41.8632780" lon="-8.8632060">
        <ele>5.5</ele>
        <time>2021-05-18T11:18:59Z</time>
      </trkpt>
      <trkpt lat="41.8632820" lon="-8.8632050">
        <ele>5.6</ele>
        <time>2021-05-18T11:19:00Z</time>
      </trkpt>
      <trkpt lat="41.8632940" lon="-8.8632090">
        <ele>5.6</ele>
        <time>2021-05-18T11:19:01Z</time>
      </trkpt>
      <trkpt lat="41.8633050" lon="-8.8632040">
        <ele>5.6</ele>
        <time>2021-05-18T11:19:02Z</time>
      </trkpt>
      <trkpt lat="41.8633110" lon="-8.8632010">
        <ele>5.7</ele>
        <time>2021-05-18T11:19:03Z</time>
      </trkpt>
      <trkpt lat="41.8633240" lon="-8.8631990">
        <ele>5.7</ele>
        <time>2021-05-18T11:19:04Z</time>
      </trkpt>
      <trkpt lat="41.8633410" lon="-8.8631970">
        <ele>5.8</ele>
        <time>2021-05-18T11:19:05Z</time>
      </trkpt>
      <trkpt lat="41.8633720" lon="-8.8631830">
        <ele>5.9</ele>
        <time>2021-05-18T11:19:06Z</time>
      </trkpt>
      <trkpt lat="41.8633840" lon="-8.8631780">
        <ele>5.9</ele>
        <time>2021-05-18T11:19:07Z</time>
      </trkpt>
      <trkpt lat="41.8634010" lon="-8.8631700">
        <ele>6.0</ele>
        <time>2021-05-18T11:19:08Z</time>
      </trkpt>
      <trkpt lat="41.8634150" lon="-8.8631740">
        <ele>6.0</ele>
        <time>2021-05-18T11:19:09Z</time>
      </trkpt>
      <trkpt lat="41.8634450" lon="-8.8631710">
        <ele>6.1</ele>
        <time>2021-05-18T11:19:10Z</time>
      </trkpt>
      <trkpt lat="41.8634510" lon="-8.8631740">
        <ele>6.1</ele>
        <time>2021-05-18T11:19:11Z</time>
      </trkpt>
      <trkpt lat="41.8634700" lon="-8.8631720">
        <ele>6.1</ele>
        <time>2021-05-18T11:19:12Z</time>
      </trkpt>
      <trkpt lat="41.8634790" lon="-8.8631740">
        <ele>6.1</ele>
        <time>2021-05-18T11:19:13Z</time>
      </trkpt>
      <trkpt lat="41.8634890" lon="-8.8631750">
        <ele>6.2</ele>
        <time>2021-05-18T11:19:14Z</time>
      </trkpt>
      <trkpt lat="41.8635050" lon="-8.8631730">
        <ele>6.2</ele>
        <time>2021-05-18T11:19:15Z</time>
      </trkpt>
      <trkpt lat="41.8635190" lon="-8.8631690">
        <ele>6.2</ele>
        <time>2021-05-18T11:19:16Z</time>
      </trkpt>
      <trkpt lat="41.8635290" lon="-8.8631690">
        <ele>6.2</ele>
        <time>2021-05-18T11:19:17Z</time>
      </trkpt>
      <trkpt lat="41.8635380" lon="-8.8631690">
        <ele>6.2</ele>
        <time>2021-05-18T11:19:18Z</time>
      </trkpt>
      <trkpt lat="41.8635470" lon="-8.8631680">
        <ele>6.3</ele>
        <time>2021-05-18T11:19:19Z</time>
      </trkpt>
      <trkpt lat="41.8635560" lon="-8.8631670">
        <ele>6.3</ele>
        <time>2021-05-18T11:19:20Z</time>
      </trkpt>
      <trkpt lat="41.8635860" lon="-8.8631590">
        <ele>6.3</ele>
        <time>2021-05-18T11:19:21Z</time>
      </trkpt>
      <trkpt lat="41.8636040" lon="-8.8631530">
        <ele>6.3</ele>
        <time>2021-05-18T11:19:22Z</time>
      </trkpt>
      <trkpt lat="41.8636150" lon="-8.8631520">
        <ele>6.3</ele>
        <time>2021-05-18T11:19:23Z</time>
      </trkpt>
      <trkpt lat="41.8636220" lon="-8.8631440">
        <ele>6.3</ele>
        <time>2021-05-18T11:19:24Z</time>
      </trkpt>
      <trkpt lat="41.8636340" lon="-8.8631360">
        <ele>6.3</ele>
        <time>2021-05-18T11:19:25Z</time>
      </trkpt>
      <trkpt lat="41.8636440" lon="-8.8631340">
        <ele>6.3</ele>
        <time>2021-05-18T11:19:26Z</time>
      </trkpt>
      <trkpt lat="41.8636640" lon="-8.8631410">
        <ele>6.3</ele>
        <time>2021-05-18T11:19:27Z</time>
      </trkpt>
      <trkpt lat="41.8636740" lon="-8.8631420">
        <ele>6.3</ele>
        <time>2021-05-18T11:19:28Z</time>
      </trkpt>
      <trkpt lat="41.8636830" lon="-8.8631440">
        <ele>6.3</ele>
        <time>2021-05-18T11:19:29Z</time>
      </trkpt>
      <trkpt lat="41.8637030" lon="-8.8631380">
        <ele>6.3</ele>
        <time>2021-05-18T11:19:30Z</time>
      </trkpt>
      <trkpt lat="41.8637150" lon="-8.8631330">
        <ele>6.3</ele>
        <time>2021-05-18T11:19:31Z</time>
      </trkpt>
      <trkpt lat="41.8637280" lon="-8.8631290">
        <ele>6.3</ele>
        <time>2021-05-18T11:19:32Z</time>
      </trkpt>
      <trkpt lat="41.8637370" lon="-8.8631250">
        <ele>6.3</ele>
        <time>2021-05-18T11:19:33Z</time>
      </trkpt>
      <trkpt lat="41.8637530" lon="-8.8631170">
        <ele>6.3</ele>
        <time>2021-05-18T11:19:34Z</time>
      </trkpt>
      <trkpt lat="41.8637580" lon="-8.8631120">
        <ele>6.3</ele>
        <time>2021-05-18T11:19:35Z</time>
      </trkpt>
      <trkpt lat="41.8637780" lon="-8.8631070">
        <ele>6.2</ele>
        <time>2021-05-18T11:19:36Z</time>
      </trkpt>
      <trkpt lat="41.8637830" lon="-8.8630960">
        <ele>6.2</ele>
        <time>2021-05-18T11:19:37Z</time>
      </trkpt>
      <trkpt lat="41.8637940" lon="-8.8630880">
        <ele>6.2</ele>
        <time>2021-05-18T11:19:38Z</time>
      </trkpt>
      <trkpt lat="41.8638070" lon="-8.8630810">
        <ele>6.2</ele>
        <time>2021-05-18T11:19:39Z</time>
      </trkpt>
      <trkpt lat="41.8638150" lon="-8.8630770">
        <ele>6.2</ele>
        <time>2021-05-18T11:19:40Z</time>
      </trkpt>
      <trkpt lat="41.8638200" lon="-8.8630830">
        <ele>6.2</ele>
        <time>2021-05-18T11:19:41Z</time>
      </trkpt>
      <trkpt lat="41.8638280" lon="-8.8630810">
        <ele>6.2</ele>
        <time>2021-05-18T11:19:42Z</time>
      </trkpt>
      <trkpt lat="41.8638450" lon="-8.8630760">
        <ele>6.1</ele>
        <time>2021-05-18T11:19:43Z</time>
      </trkpt>
      <trkpt lat="41.8638730" lon="-8.8630670">
        <ele>6.1</ele>
        <time>2021-05-18T11:19:44Z</time>
      </trkpt>
      <trkpt lat="41.8638820" lon="-8.8630620">
        <ele>6.1</ele>
        <time>2021-05-18T11:19:45Z</time>
      </trkpt>
      <trkpt lat="41.8638850" lon="-8.8630610">
        <ele>6.1</ele>
        <time>2021-05-18T11:19:46Z</time>
      </trkpt>
      <trkpt lat="41.8639110" lon="-8.8630430">
        <ele>6.0</ele>
        <time>2021-05-18T11:19:47Z</time>
      </trkpt>
      <trkpt lat="41.8639380" lon="-8.8630320">
        <ele>5.9</ele>
        <time>2021-05-18T11:19:48Z</time>
      </trkpt>
      <trkpt lat="41.8639470" lon="-8.8630320">
        <ele>5.9</ele>
        <time>2021-05-18T11:19:49Z</time>
      </trkpt>
      <trkpt lat="41.8639590" lon="-8.8630250">
        <ele>5.9</ele>
        <time>2021-05-18T11:19:50Z</time>
      </trkpt>
      <trkpt lat="41.8639570" lon="-8.8630230">
        <ele>5.8</ele>
        <time>2021-05-18T11:19:51Z</time>
      </trkpt>
      <trkpt lat="41.8639760" lon="-8.8630210">
        <ele>5.8</ele>
        <time>2021-05-18T11:19:52Z</time>
      </trkpt>
      <trkpt lat="41.8640010" lon="-8.8630060">
        <ele>5.7</ele>
        <time>2021-05-18T11:19:53Z</time>
      </trkpt>
      <trkpt lat="41.8640120" lon="-8.8630020">
        <ele>5.6</ele>
        <time>2021-05-18T11:19:54Z</time>
      </trkpt>
      <trkpt lat="41.8640300" lon="-8.8630010">
        <ele>5.6</ele>
        <time>2021-05-18T11:19:55Z</time>
      </trkpt>
      <trkpt lat="41.8640430" lon="-8.8629930">
        <ele>5.5</ele>
        <time>2021-05-18T11:19:56Z</time>
      </trkpt>
      <trkpt lat="41.8640590" lon="-8.8629900">
        <ele>5.4</ele>
        <time>2021-05-18T11:19:57Z</time>
      </trkpt>
      <trkpt lat="41.8640740" lon="-8.8629850">
        <ele>5.4</ele>
        <time>2021-05-18T11:19:58Z</time>
      </trkpt>
      <trkpt lat="41.8640800" lon="-8.8629880">
        <ele>5.4</ele>
        <time>2021-05-18T11:19:59Z</time>
      </trkpt>
      <trkpt lat="41.8641000" lon="-8.8629910">
        <ele>5.3</ele>
        <time>2021-05-18T11:20:00Z</time>
      </trkpt>
      <trkpt lat="41.8641070" lon="-8.8629870">
        <ele>5.2</ele>
        <time>2021-05-18T11:20:01Z</time>
      </trkpt>
      <trkpt lat="41.8641330" lon="-8.8629690">
        <ele>5.1</ele>
        <time>2021-05-18T11:20:02Z</time>
      </trkpt>
      <trkpt lat="41.8641400" lon="-8.8629720">
        <ele>5.1</ele>
        <time>2021-05-18T11:20:03Z</time>
      </trkpt>
      <trkpt lat="41.8641610" lon="-8.8629600">
        <ele>5.0</ele>
        <time>2021-05-18T11:20:04Z</time>
      </trkpt>
      <trkpt lat="41.8641760" lon="-8.8629560">
        <ele>4.9</ele>
        <time>2021-05-18T11:20:05Z</time>
      </trkpt>
      <trkpt lat="41.8641900" lon="-8.8629460">
        <ele>4.9</ele>
        <time>2021-05-18T11:20:06Z</time>
      </trkpt>
      <trkpt lat="41.8641970" lon="-8.8629450">
        <ele>4.9</ele>
        <time>2021-05-18T11:20:07Z</time>
      </trkpt>
      <trkpt lat="41.8642180" lon="-8.8629380">
        <ele>4.8</ele>
        <time>2021-05-18T11:20:08Z</time>
      </trkpt>
      <trkpt lat="41.8642250" lon="-8.8629300">
        <ele>4.8</ele>
        <time>2021-05-18T11:20:09Z</time>
      </trkpt>
      <trkpt lat="41.8642460" lon="-8.8629140">
        <ele>4.7</ele>
        <time>2021-05-18T11:20:10Z</time>
      </trkpt>
      <trkpt lat="41.8642540" lon="-8.8629020">
        <ele>4.7</ele>
        <time>2021-05-18T11:20:11Z</time>
      </trkpt>
      <trkpt lat="41.8642740" lon="-8.8628900">
        <ele>4.7</ele>
        <time>2021-05-18T11:20:12Z</time>
      </trkpt>
      <trkpt lat="41.8642870" lon="-8.8628820">
        <ele>4.7</ele>
        <time>2021-05-18T11:20:13Z</time>
      </trkpt>
      <trkpt lat="41.8643040" lon="-8.8628770">
        <ele>4.7</ele>
        <time>2021-05-18T11:20:14Z</time>
      </trkpt>
      <trkpt lat="41.8643210" lon="-8.8628730">
        <ele>4.7</ele>
        <time>2021-05-18T11:20:15Z</time>
      </trkpt>
      <trkpt lat="41.8643360" lon="-8.8628710">
        <ele>4.7</ele>
        <time>2021-05-18T11:20:16Z</time>
      </trkpt>
      <trkpt lat="41.8643510" lon="-8.8628640">
        <ele>4.7</ele>
        <time>2021-05-18T11:20:17Z</time>
      </trkpt>
      <trkpt lat="41.8643610" lon="-8.8628530">
        <ele>4.8</ele>
        <time>2021-05-18T11:20:18Z</time>
      </trkpt>
      <trkpt lat="41.8643740" lon="-8.8628450">
        <ele>4.8</ele>
        <time>2021-05-18T11:20:19Z</time>
      </trkpt>
      <trkpt lat="41.8643790" lon="-8.8628370">
        <ele>4.8</ele>
        <time>2021-05-18T11:20:20Z</time>
      </trkpt>
      <trkpt lat="41.8643820" lon="-8.8628260">
        <ele>4.8</ele>
        <time>2021-05-18T11:20:21Z</time>
      </trkpt>
      <trkpt lat="41.8643870" lon="-8.8628150">
        <ele>4.9</ele>
        <time>2021-05-18T11:20:22Z</time>
      </trkpt>
      <trkpt lat="41.8643860" lon="-8.8628160">
        <ele>4.9</ele>
        <time>2021-05-18T11:20:23Z</time>
      </trkpt>
      <trkpt lat="41.8644000" lon="-8.8627980">
        <ele>4.9</ele>
        <time>2021-05-18T11:20:24Z</time>
      </trkpt>
      <trkpt lat="41.8644110" lon="-8.8627850">
        <ele>5.0</ele>
        <time>2021-05-18T11:20:25Z</time>
      </trkpt>
      <trkpt lat="41.8644220" lon="-8.8627700">
        <ele>5.1</ele>
        <time>2021-05-18T11:20:26Z</time>
      </trkpt>
      <trkpt lat="41.8644360" lon="-8.8627540">
        <ele>5.2</ele>
        <time>2021-05-18T11:20:27Z</time>
      </trkpt>
      <trkpt lat="41.8644460" lon="-8.8627490">
        <ele>5.2</ele>
        <time>2021-05-18T11:20:28Z</time>
      </trkpt>
      <trkpt lat="41.8644610" lon="-8.8627390">
        <ele>5.3</ele>
        <time>2021-05-18T11:20:29Z</time>
      </trkpt>
      <trkpt lat="41.8644720" lon="-8.8627300">
        <ele>5.4</ele>
        <time>2021-05-18T11:20:30Z</time>
      </trkpt>
      <trkpt lat="41.8644920" lon="-8.8627130">
        <ele>5.5</ele>
        <time>2021-05-18T11:20:31Z</time>
      </trkpt>
      <trkpt lat="41.8644970" lon="-8.8627070">
        <ele>5.5</ele>
        <time>2021-05-18T11:20:32Z</time>
      </trkpt>
      <trkpt lat="41.8645020" lon="-8.8627020">
        <ele>5.6</ele>
        <time>2021-05-18T11:20:33Z</time>
      </trkpt>
      <trkpt lat="41.8645130" lon="-8.8626950">
        <ele>5.6</ele>
        <time>2021-05-18T11:20:34Z</time>
      </trkpt>
      <trkpt lat="41.8645220" lon="-8.8626870">
        <ele>5.7</ele>
        <time>2021-05-18T11:20:35Z</time>
      </trkpt>
      <trkpt lat="41.8645310" lon="-8.8626820">
        <ele>5.8</ele>
        <time>2021-05-18T11:20:36Z</time>
      </trkpt>
      <trkpt lat="41.8645450" lon="-8.8626700">
        <ele>5.8</ele>
        <time>2021-05-18T11:20:37Z</time>
      </trkpt>
      <trkpt lat="41.8645600" lon="-8.8626530">
        <ele>6.0</ele>
        <time>2021-05-18T11:20:38Z</time>
      </trkpt>
      <trkpt lat="41.8645880" lon="-8.8626320">
        <ele>6.1</ele>
        <time>2021-05-18T11:20:39Z</time>
      </trkpt>
      <trkpt lat="41.8645970" lon="-8.8626260">
        <ele>6.2</ele>
        <time>2021-05-18T11:20:40Z</time>
      </trkpt>
      <trkpt lat="41.8646080" lon="-8.8626300">
        <ele>6.2</ele>
        <time>2021-05-18T11:20:41Z</time>
      </trkpt>
      <trkpt lat="41.8646220" lon="-8.8626220">
        <ele>6.3</ele>
        <time>2021-05-18T11:20:42Z</time>
      </trkpt>
      <trkpt lat="41.8646330" lon="-8.8626160">
        <ele>6.3</ele>
        <time>2021-05-18T11:20:43Z</time>
      </trkpt>
      <trkpt lat="41.8646400" lon="-8.8626150">
        <ele>6.3</ele>
        <time>2021-05-18T11:20:44Z</time>
      </trkpt>
      <trkpt lat="41.8646520" lon="-8.8626180">
        <ele>6.4</ele>
        <time>2021-05-18T11:20:45Z</time>
      </trkpt>
      <trkpt lat="41.8646630" lon="-8.8626220">
        <ele>6.4</ele>
        <time>2021-05-18T11:20:46Z</time>
      </trkpt>
      <trkpt lat="41.8646910" lon="-8.8626170">
        <ele>6.5</ele>
        <time>2021-05-18T11:20:47Z</time>
      </trkpt>
      <trkpt lat="41.8647020" lon="-8.8626150">
        <ele>6.5</ele>
        <time>2021-05-18T11:20:48Z</time>
      </trkpt>
      <trkpt lat="41.8647140" lon="-8.8626130">
        <ele>6.5</ele>
        <time>2021-05-18T11:20:49Z</time>
      </trkpt>
      <trkpt lat="41.8647230" lon="-8.8626140">
        <ele>6.6</ele>
        <time>2021-05-18T11:20:50Z</time>
      </trkpt>
      <trkpt lat="41.8647360" lon="-8.8626090">
        <ele>6.6</ele>
        <time>2021-05-18T11:20:51Z</time>
      </trkpt>
      <trkpt lat="41.8647500" lon="-8.8626050">
        <ele>6.6</ele>
        <time>2021-05-18T11:20:52Z</time>
      </trkpt>
      <trkpt lat="41.8647750" lon="-8.8626020">
        <ele>6.7</ele>
        <time>2021-05-18T11:20:53Z</time>
      </trkpt>
      <trkpt lat="41.8647860" lon="-8.8626000">
        <ele>6.7</ele>
        <time>2021-05-18T11:20:54Z</time>
      </trkpt>
      <trkpt lat="41.8647970" lon="-8.8625970">
        <ele>6.7</ele>
        <time>2021-05-18T11:20:55Z</time>
      </trkpt>
      <trkpt lat="41.8648140" lon="-8.8625870">
        <ele>6.8</ele>
        <time>2021-05-18T11:20:56Z</time>
      </trkpt>
      <trkpt lat="41.8648240" lon="-8.8625820">
        <ele>6.8</ele>
        <time>2021-05-18T11:20:57Z</time>
      </trkpt>
      <trkpt lat="41.8648310" lon="-8.8625740">
        <ele>6.8</ele>
        <time>2021-05-18T11:20:58Z</time>
      </trkpt>
      <trkpt lat="41.8648500" lon="-8.8625550">
        <ele>6.8</ele>
        <time>2021-05-18T11:20:59Z</time>
      </trkpt>
      <trkpt lat="41.8648680" lon="-8.8625470">
        <ele>6.9</ele>
        <time>2021-05-18T11:21:00Z</time>
      </trkpt>
      <trkpt lat="41.8648790" lon="-8.8625460">
        <ele>6.9</ele>
        <time>2021-05-18T11:21:01Z</time>
      </trkpt>
      <trkpt lat="41.8648910" lon="-8.8625390">
        <ele>6.9</ele>
        <time>2021-05-18T11:21:02Z</time>
      </trkpt>
      <trkpt lat="41.8649130" lon="-8.8625310">
        <ele>6.9</ele>
        <time>2021-05-18T11:21:03Z</time>
      </trkpt>
      <trkpt lat="41.8649240" lon="-8.8625220">
        <ele>6.9</ele>
        <time>2021-05-18T11:21:04Z</time>
      </trkpt>
      <trkpt lat="41.8649310" lon="-8.8625130">
        <ele>6.9</ele>
        <time>2021-05-18T11:21:05Z</time>
      </trkpt>
      <trkpt lat="41.8649380" lon="-8.8625100">
        <ele>6.9</ele>
        <time>2021-05-18T11:21:06Z</time>
      </trkpt>
      <trkpt lat="41.8649440" lon="-8.8625110">
        <ele>6.9</ele>
        <time>2021-05-18T11:21:07Z</time>
      </trkpt>
      <trkpt lat="41.8649600" lon="-8.8625070">
        <ele>6.9</ele>
        <time>2021-05-18T11:21:08Z</time>
      </trkpt>
      <trkpt lat="41.8649730" lon="-8.8625010">
        <ele>6.9</ele>
        <time>2021-05-18T11:21:09Z</time>
      </trkpt>
      <trkpt lat="41.8649770" lon="-8.8624950">
        <ele>6.9</ele>
        <time>2021-05-18T11:21:10Z</time>
      </trkpt>
      <trkpt lat="41.8649950" lon="-8.8624860">
        <ele>6.9</ele>
        <time>2021-05-18T11:21:11Z</time>
      </trkpt>
      <trkpt lat="41.8650050" lon="-8.8624800">
        <ele>6.9</ele>
        <time>2021-05-18T11:21:12Z</time>
      </trkpt>
      <trkpt lat="41.8650190" lon="-8.8624780">
        <ele>6.9</ele>
        <time>2021-05-18T11:21:13Z</time>
      </trkpt>
      <trkpt lat="41.8650220" lon="-8.8624710">
        <ele>6.9</ele>
        <time>2021-05-18T11:21:14Z</time>
      </trkpt>
      <trkpt lat="41.8650340" lon="-8.8624690">
        <ele>6.9</ele>
        <time>2021-05-18T11:21:15Z</time>
      </trkpt>
      <trkpt lat="41.8650420" lon="-8.8624640">
        <ele>6.9</ele>
        <time>2021-05-18T11:21:16Z</time>
      </trkpt>
      <trkpt lat="41.8650610" lon="-8.8624630">
        <ele>6.9</ele>
        <time>2021-05-18T11:21:17Z</time>
      </trkpt>
      <trkpt lat="41.8650720" lon="-8.8624610">
        <ele>6.9</ele>
        <time>2021-05-18T11:21:18Z</time>
      </trkpt>
      <trkpt lat="41.8650870" lon="-8.8624610">
        <ele>6.8</ele>
        <time>2021-05-18T11:21:19Z</time>
      </trkpt>
      <trkpt lat="41.8650930" lon="-8.8624560">
        <ele>6.8</ele>
        <time>2021-05-18T11:21:20Z</time>
      </trkpt>
      <trkpt lat="41.8651030" lon="-8.8624550">
        <ele>6.8</ele>
        <time>2021-05-18T11:21:21Z</time>
      </trkpt>
      <trkpt lat="41.8651250" lon="-8.8624540">
        <ele>6.8</ele>
        <time>2021-05-18T11:21:22Z</time>
      </trkpt>
      <trkpt lat="41.8651520" lon="-8.8624490">
        <ele>6.7</ele>
        <time>2021-05-18T11:21:23Z</time>
      </trkpt>
      <trkpt lat="41.8651680" lon="-8.8624410">
        <ele>6.7</ele>
        <time>2021-05-18T11:21:24Z</time>
      </trkpt>
      <trkpt lat="41.8651860" lon="-8.8624340">
        <ele>6.6</ele>
        <time>2021-05-18T11:21:25Z</time>
      </trkpt>
      <trkpt lat="41.8652130" lon="-8.8624320">
        <ele>6.6</ele>
        <time>2021-05-18T11:21:26Z</time>
      </trkpt>
      <trkpt lat="41.8652230" lon="-8.8624330">
        <ele>6.5</ele>
        <time>2021-05-18T11:21:27Z</time>
      </trkpt>
      <trkpt lat="41.8652390" lon="-8.8624240">
        <ele>6.5</ele>
        <time>2021-05-18T11:21:28Z</time>
      </trkpt>
      <trkpt lat="41.8652550" lon="-8.8624140">
        <ele>6.4</ele>
        <time>2021-05-18T11:21:29Z</time>
      </trkpt>
      <trkpt lat="41.8652720" lon="-8.8624040">
        <ele>6.4</ele>
        <time>2021-05-18T11:21:30Z</time>
      </trkpt>
      <trkpt lat="41.8652890" lon="-8.8623970">
        <ele>6.3</ele>
        <time>2021-05-18T11:21:31Z</time>
      </trkpt>
      <trkpt lat="41.8653060" lon="-8.8623940">
        <ele>6.2</ele>
        <time>2021-05-18T11:21:32Z</time>
      </trkpt>
      <trkpt lat="41.8653180" lon="-8.8623850">
        <ele>6.2</ele>
        <time>2021-05-18T11:21:34Z</time>
      </trkpt>
      <trkpt lat="41.8653320" lon="-8.8623800">
        <ele>6.1</ele>
        <time>2021-05-18T11:21:35Z</time>
      </trkpt>
      <trkpt lat="41.8653460" lon="-8.8623830">
        <ele>6.0</ele>
        <time>2021-05-18T11:21:36Z</time>
      </trkpt>
      <trkpt lat="41.8653560" lon="-8.8623740">
        <ele>6.0</ele>
        <time>2021-05-18T11:21:37Z</time>
      </trkpt>
      <trkpt lat="41.8653640" lon="-8.8623760">
        <ele>6.0</ele>
        <time>2021-05-18T11:21:38Z</time>
      </trkpt>
      <trkpt lat="41.8653660" lon="-8.8623820">
        <ele>6.0</ele>
        <time>2021-05-18T11:21:39Z</time>
      </trkpt>
      <trkpt lat="41.8653820" lon="-8.8623890">
        <ele>5.9</ele>
        <time>2021-05-18T11:21:40Z</time>
      </trkpt>
      <trkpt lat="41.8653850" lon="-8.8623900">
        <ele>5.9</ele>
        <time>2021-05-18T11:21:41Z</time>
      </trkpt>
      <trkpt lat="41.8653880" lon="-8.8623930">
        <ele>5.9</ele>
        <time>2021-05-18T11:21:42Z</time>
      </trkpt>
      <trkpt lat="41.8654030" lon="-8.8623970">
        <ele>5.8</ele>
        <time>2021-05-18T11:21:43Z</time>
      </trkpt>
      <trkpt lat="41.8654090" lon="-8.8624000">
        <ele>5.8</ele>
        <time>2021-05-18T11:21:44Z</time>
      </trkpt>
      <trkpt lat="41.8654210" lon="-8.8623980">
        <ele>5.7</ele>
        <time>2021-05-18T11:21:45Z</time>
      </trkpt>
      <trkpt lat="41.8654320" lon="-8.8624010">
        <ele>5.7</ele>
        <time>2021-05-18T11:21:46Z</time>
      </trkpt>
      <trkpt lat="41.8654440" lon="-8.8623990">
        <ele>5.7</ele>
        <time>2021-05-18T11:21:47Z</time>
      </trkpt>
      <trkpt lat="41.8654570" lon="-8.8623930">
        <ele>5.6</ele>
        <time>2021-05-18T11:21:48Z</time>
      </trkpt>
      <trkpt lat="41.8654760" lon="-8.8623950">
        <ele>5.5</ele>
        <time>2021-05-18T11:21:49Z</time>
      </trkpt>
      <trkpt lat="41.8654940" lon="-8.8623870">
        <ele>5.5</ele>
        <time>2021-05-18T11:21:50Z</time>
      </trkpt>
      <trkpt lat="41.8655100" lon="-8.8623870">
        <ele>5.4</ele>
        <time>2021-05-18T11:21:51Z</time>
      </trkpt>
      <trkpt lat="41.8655230" lon="-8.8623850">
        <ele>5.4</ele>
        <time>2021-05-18T11:21:52Z</time>
      </trkpt>
      <trkpt lat="41.8655310" lon="-8.8623850">
        <ele>5.4</ele>
        <time>2021-05-18T11:21:53Z</time>
      </trkpt>
      <trkpt lat="41.8655380" lon="-8.8623840">
        <ele>5.4</ele>
        <time>2021-05-18T11:21:54Z</time>
      </trkpt>
      <trkpt lat="41.8655460" lon="-8.8623840">
        <ele>5.3</ele>
        <time>2021-05-18T11:21:55Z</time>
      </trkpt>
      <trkpt lat="41.8655530" lon="-8.8623840">
        <ele>5.3</ele>
        <time>2021-05-18T11:21:56Z</time>
      </trkpt>
      <trkpt lat="41.8655730" lon="-8.8623720">
        <ele>5.3</ele>
        <time>2021-05-18T11:21:57Z</time>
      </trkpt>
      <trkpt lat="41.8655790" lon="-8.8623670">
        <ele>5.2</ele>
        <time>2021-05-18T11:21:58Z</time>
      </trkpt>
      <trkpt lat="41.8655860" lon="-8.8623630">
        <ele>5.2</ele>
        <time>2021-05-18T11:21:59Z</time>
      </trkpt>
      <trkpt lat="41.8655900" lon="-8.8623610">
        <ele>5.2</ele>
        <time>2021-05-18T11:22:00Z</time>
      </trkpt>
      <trkpt lat="41.8655980" lon="-8.8623560">
        <ele>5.2</ele>
        <time>2021-05-18T11:22:01Z</time>
      </trkpt>
      <trkpt lat="41.8656120" lon="-8.8623550">
        <ele>5.2</ele>
        <time>2021-05-18T11:22:02Z</time>
      </trkpt>
      <trkpt lat="41.8656210" lon="-8.8623490">
        <ele>5.1</ele>
        <time>2021-05-18T11:22:03Z</time>
      </trkpt>
      <trkpt lat="41.8656490" lon="-8.8623430">
        <ele>5.1</ele>
        <time>2021-05-18T11:22:04Z</time>
      </trkpt>
      <trkpt lat="41.8656570" lon="-8.8623390">
        <ele>5.1</ele>
        <time>2021-05-18T11:22:05Z</time>
      </trkpt>
      <trkpt lat="41.8656600" lon="-8.8623380">
        <ele>5.1</ele>
        <time>2021-05-18T11:22:06Z</time>
      </trkpt>
      <trkpt lat="41.8656720" lon="-8.8623240">
        <ele>5.0</ele>
        <time>2021-05-18T11:22:07Z</time>
      </trkpt>
      <trkpt lat="41.8656850" lon="-8.8623110">
        <ele>5.0</ele>
        <time>2021-05-18T11:22:08Z</time>
      </trkpt>
      <trkpt lat="41.8657040" lon="-8.8622960">
        <ele>4.9</ele>
        <time>2021-05-18T11:22:09Z</time>
      </trkpt>
      <trkpt lat="41.8657080" lon="-8.8622860">
        <ele>4.9</ele>
        <time>2021-05-18T11:22:10Z</time>
      </trkpt>
      <trkpt lat="41.8657130" lon="-8.8622750">
        <ele>4.9</ele>
        <time>2021-05-18T11:22:11Z</time>
      </trkpt>
      <trkpt lat="41.8657270" lon="-8.8622640">
        <ele>4.9</ele>
        <time>2021-05-18T11:22:12Z</time>
      </trkpt>
      <trkpt lat="41.8657250" lon="-8.8622640">
        <ele>4.9</ele>
        <time>2021-05-18T11:22:13Z</time>
      </trkpt>
      <trkpt lat="41.8657380" lon="-8.8622510">
        <ele>4.9</ele>
        <time>2021-05-18T11:22:14Z</time>
      </trkpt>
      <trkpt lat="41.8657460" lon="-8.8622480">
        <ele>4.9</ele>
        <time>2021-05-18T11:22:15Z</time>
      </trkpt>
      <trkpt lat="41.8657520" lon="-8.8622470">
        <ele>4.9</ele>
        <time>2021-05-18T11:22:16Z</time>
      </trkpt>
      <trkpt lat="41.8657570" lon="-8.8622450">
        <ele>4.9</ele>
        <time>2021-05-18T11:22:17Z</time>
      </trkpt>
      <trkpt lat="41.8657690" lon="-8.8622310">
        <ele>4.9</ele>
        <time>2021-05-18T11:22:18Z</time>
      </trkpt>
      <trkpt lat="41.8657870" lon="-8.8622210">
        <ele>4.8</ele>
        <time>2021-05-18T11:22:19Z</time>
      </trkpt>
      <trkpt lat="41.8657960" lon="-8.8622120">
        <ele>4.8</ele>
        <time>2021-05-18T11:22:20Z</time>
      </trkpt>
      <trkpt lat="41.8658260" lon="-8.8622060">
        <ele>4.8</ele>
        <time>2021-05-18T11:22:21Z</time>
      </trkpt>
      <trkpt lat="41.8658530" lon="-8.8621950">
        <ele>4.8</ele>
        <time>2021-05-18T11:22:22Z</time>
      </trkpt>
      <trkpt lat="41.8658620" lon="-8.8621930">
        <ele>4.8</ele>
        <time>2021-05-18T11:22:23Z</time>
      </trkpt>
      <trkpt lat="41.8658870" lon="-8.8621890">
        <ele>4.8</ele>
        <time>2021-05-18T11:22:24Z</time>
      </trkpt>
      <trkpt lat="41.8658960" lon="-8.8621880">
        <ele>4.8</ele>
        <time>2021-05-18T11:22:25Z</time>
      </trkpt>
      <trkpt lat="41.8659050" lon="-8.8621870">
        <ele>4.8</ele>
        <time>2021-05-18T11:22:26Z</time>
      </trkpt>
      <trkpt lat="41.8659280" lon="-8.8621860">
        <ele>4.7</ele>
        <time>2021-05-18T11:22:27Z</time>
      </trkpt>
      <trkpt lat="41.8659370" lon="-8.8621860">
        <ele>4.7</ele>
        <time>2021-05-18T11:22:28Z</time>
      </trkpt>
      <trkpt lat="41.8659450" lon="-8.8621870">
        <ele>4.7</ele>
        <time>2021-05-18T11:22:29Z</time>
      </trkpt>
      <trkpt lat="41.8659630" lon="-8.8621820">
        <ele>4.7</ele>
        <time>2021-05-18T11:22:30Z</time>
      </trkpt>
      <trkpt lat="41.8659730" lon="-8.8621800">
        <ele>4.7</ele>
        <time>2021-05-18T11:22:31Z</time>
      </trkpt>
      <trkpt lat="41.8659820" lon="-8.8621790">
        <ele>4.7</ele>
        <time>2021-05-18T11:22:32Z</time>
      </trkpt>
      <trkpt lat="41.8660030" lon="-8.8621690">
        <ele>4.7</ele>
        <time>2021-05-18T11:22:33Z</time>
      </trkpt>
      <trkpt lat="41.8660130" lon="-8.8621660">
        <ele>4.7</ele>
        <time>2021-05-18T11:22:34Z</time>
      </trkpt>
      <trkpt lat="41.8660220" lon="-8.8621640">
        <ele>4.7</ele>
        <time>2021-05-18T11:22:35Z</time>
      </trkpt>
      <trkpt lat="41.8660260" lon="-8.8621590">
        <ele>4.7</ele>
        <time>2021-05-18T11:22:36Z</time>
      </trkpt>
      <trkpt lat="41.8660360" lon="-8.8621580">
        <ele>4.8</ele>
        <time>2021-05-18T11:22:37Z</time>
      </trkpt>
      <trkpt lat="41.8660460" lon="-8.8621550">
        <ele>4.8</ele>
        <time>2021-05-18T11:22:38Z</time>
      </trkpt>
      <trkpt lat="41.8660560" lon="-8.8621520">
        <ele>4.8</ele>
        <time>2021-05-18T11:22:39Z</time>
      </trkpt>
      <trkpt lat="41.8660650" lon="-8.8621550">
        <ele>4.8</ele>
        <time>2021-05-18T11:22:40Z</time>
      </trkpt>
      <trkpt lat="41.8660670" lon="-8.8621570">
        <ele>4.8</ele>
        <time>2021-05-18T11:22:41Z</time>
      </trkpt>
      <trkpt lat="41.8660770" lon="-8.8621530">
        <ele>4.8</ele>
        <time>2021-05-18T11:22:42Z</time>
      </trkpt>
      <trkpt lat="41.8660840" lon="-8.8621490">
        <ele>4.8</ele>
        <time>2021-05-18T11:22:43Z</time>
      </trkpt>
      <trkpt lat="41.8661100" lon="-8.8621370">
        <ele>4.8</ele>
        <time>2021-05-18T11:22:44Z</time>
      </trkpt>
      <trkpt lat="41.8661190" lon="-8.8621300">
        <ele>4.8</ele>
        <time>2021-05-18T11:22:45Z</time>
      </trkpt>
      <trkpt lat="41.8661390" lon="-8.8621230">
        <ele>4.8</ele>
        <time>2021-05-18T11:22:46Z</time>
      </trkpt>
      <trkpt lat="41.8661470" lon="-8.8621210">
        <ele>4.8</ele>
        <time>2021-05-18T11:22:47Z</time>
      </trkpt>
      <trkpt lat="41.8661550" lon="-8.8621180">
        <ele>4.9</ele>
        <time>2021-05-18T11:22:48Z</time>
      </trkpt>
      <trkpt lat="41.8661780" lon="-8.8621110">
        <ele>4.9</ele>
        <time>2021-05-18T11:22:49Z</time>
      </trkpt>
      <trkpt lat="41.8661870" lon="-8.8621060">
        <ele>4.9</ele>
        <time>2021-05-18T11:22:50Z</time>
      </trkpt>
      <trkpt lat="41.8661950" lon="-8.8621010">
        <ele>4.9</ele>
        <time>2021-05-18T11:22:51Z</time>
      </trkpt>
      <trkpt lat="41.8662140" lon="-8.8620910">
        <ele>4.9</ele>
        <time>2021-05-18T11:22:52Z</time>
      </trkpt>
      <trkpt lat="41.8662250" lon="-8.8620800">
        <ele>4.9</ele>
        <time>2021-05-18T11:22:53Z</time>
      </trkpt>
      <trkpt lat="41.8662440" lon="-8.8620700">
        <ele>5.0</ele>
        <time>2021-05-18T11:22:54Z</time>
      </trkpt>
      <trkpt lat="41.8662590" lon="-8.8620610">
        <ele>5.0</ele>
        <time>2021-05-18T11:22:55Z</time>
      </trkpt>
      <trkpt lat="41.8662810" lon="-8.8620460">
        <ele>5.0</ele>
        <time>2021-05-18T11:22:56Z</time>
      </trkpt>
      <trkpt lat="41.8662910" lon="-8.8620380">
        <ele>5.0</ele>
        <time>2021-05-18T11:22:57Z</time>
      </trkpt>
      <trkpt lat="41.8663040" lon="-8.8620180">
        <ele>5.0</ele>
        <time>2021-05-18T11:22:58Z</time>
      </trkpt>
      <trkpt lat="41.8663090" lon="-8.8620090">
        <ele>5.0</ele>
        <time>2021-05-18T11:22:59Z</time>
      </trkpt>
      <trkpt lat="41.8663150" lon="-8.8620010">
        <ele>5.0</ele>
        <time>2021-05-18T11:23:00Z</time>
      </trkpt>
      <trkpt lat="41.8663310" lon="-8.8619840">
        <ele>5.0</ele>
        <time>2021-05-18T11:23:01Z</time>
      </trkpt>
      <trkpt lat="41.8663440" lon="-8.8619760">
        <ele>5.0</ele>
        <time>2021-05-18T11:23:02Z</time>
      </trkpt>
      <trkpt lat="41.8663500" lon="-8.8619580">
        <ele>5.0</ele>
        <time>2021-05-18T11:23:03Z</time>
      </trkpt>
      <trkpt lat="41.8663540" lon="-8.8619540">
        <ele>5.0</ele>
        <time>2021-05-18T11:23:04Z</time>
      </trkpt>
      <trkpt lat="41.8663710" lon="-8.8619450">
        <ele>5.0</ele>
        <time>2021-05-18T11:23:05Z</time>
      </trkpt>
      <trkpt lat="41.8663810" lon="-8.8619360">
        <ele>5.0</ele>
        <time>2021-05-18T11:23:06Z</time>
      </trkpt>
      <trkpt lat="41.8663930" lon="-8.8619210">
        <ele>5.0</ele>
        <time>2021-05-18T11:23:07Z</time>
      </trkpt>
      <trkpt lat="41.8663980" lon="-8.8619100">
        <ele>5.0</ele>
        <time>2021-05-18T11:23:08Z</time>
      </trkpt>
      <trkpt lat="41.8664090" lon="-8.8618990">
        <ele>5.0</ele>
        <time>2021-05-18T11:23:09Z</time>
      </trkpt>
      <trkpt lat="41.8664190" lon="-8.8618890">
        <ele>4.9</ele>
        <time>2021-05-18T11:23:10Z</time>
      </trkpt>
      <trkpt lat="41.8664200" lon="-8.8618790">
        <ele>4.9</ele>
        <time>2021-05-18T11:23:11Z</time>
      </trkpt>
      <trkpt lat="41.8664360" lon="-8.8618640">
        <ele>4.9</ele>
        <time>2021-05-18T11:23:12Z</time>
      </trkpt>
      <trkpt lat="41.8664410" lon="-8.8618620">
        <ele>4.9</ele>
        <time>2021-05-18T11:23:13Z</time>
      </trkpt>
      <trkpt lat="41.8664620" lon="-8.8618520">
        <ele>4.9</ele>
        <time>2021-05-18T11:23:14Z</time>
      </trkpt>
      <trkpt lat="41.8664690" lon="-8.8618460">
        <ele>4.9</ele>
        <time>2021-05-18T11:23:15Z</time>
      </trkpt>
      <trkpt lat="41.8664770" lon="-8.8618410">
        <ele>4.9</ele>
        <time>2021-05-18T11:23:16Z</time>
      </trkpt>
      <trkpt lat="41.8664930" lon="-8.8618280">
        <ele>4.9</ele>
        <time>2021-05-18T11:23:17Z</time>
      </trkpt>
      <trkpt lat="41.8665010" lon="-8.8618230">
        <ele>4.9</ele>
        <time>2021-05-18T11:23:18Z</time>
      </trkpt>
      <trkpt lat="41.8665090" lon="-8.8618180">
        <ele>4.9</ele>
        <time>2021-05-18T11:23:19Z</time>
      </trkpt>
      <trkpt lat="41.8665170" lon="-8.8618130">
        <ele>4.8</ele>
        <time>2021-05-18T11:23:20Z</time>
      </trkpt>
      <trkpt lat="41.8665290" lon="-8.8618070">
        <ele>4.8</ele>
        <time>2021-05-18T11:23:21Z</time>
      </trkpt>
      <trkpt lat="41.8665340" lon="-8.8618010">
        <ele>4.8</ele>
        <time>2021-05-18T11:23:22Z</time>
      </trkpt>
      <trkpt lat="41.8665450" lon="-8.8617930">
        <ele>4.8</ele>
        <time>2021-05-18T11:23:23Z</time>
      </trkpt>
      <trkpt lat="41.8665550" lon="-8.8617770">
        <ele>4.8</ele>
        <time>2021-05-18T11:23:24Z</time>
      </trkpt>
      <trkpt lat="41.8665660" lon="-8.8617630">
        <ele>4.8</ele>
        <time>2021-05-18T11:23:25Z</time>
      </trkpt>
      <trkpt lat="41.8665730" lon="-8.8617580">
        <ele>4.8</ele>
        <time>2021-05-18T11:23:26Z</time>
      </trkpt>
      <trkpt lat="41.8665920" lon="-8.8617400">
        <ele>4.8</ele>
        <time>2021-05-18T11:23:27Z</time>
      </trkpt>
      <trkpt lat="41.8666070" lon="-8.8617280">
        <ele>4.8</ele>
        <time>2021-05-18T11:23:28Z</time>
      </trkpt>
      <trkpt lat="41.8666150" lon="-8.8617150">
        <ele>4.8</ele>
        <time>2021-05-18T11:23:29Z</time>
      </trkpt>
      <trkpt lat="41.8666220" lon="-8.8617090">
        <ele>4.8</ele>
        <time>2021-05-18T11:23:30Z</time>
      </trkpt>
      <trkpt lat="41.8666370" lon="-8.8617110">
        <ele>4.8</ele>
        <time>2021-05-18T11:23:31Z</time>
      </trkpt>
      <trkpt lat="41.8666450" lon="-8.8617030">
        <ele>4.8</ele>
        <time>2021-05-18T11:23:32Z</time>
      </trkpt>
      <trkpt lat="41.8666530" lon="-8.8616980">
        <ele>4.9</ele>
        <time>2021-05-18T11:23:33Z</time>
      </trkpt>
      <trkpt lat="41.8666640" lon="-8.8616880">
        <ele>4.9</ele>
        <time>2021-05-18T11:23:34Z</time>
      </trkpt>
      <trkpt lat="41.8666730" lon="-8.8616800">
        <ele>4.9</ele>
        <time>2021-05-18T11:23:36Z</time>
      </trkpt>
      <trkpt lat="41.8666880" lon="-8.8616700">
        <ele>4.9</ele>
        <time>2021-05-18T11:23:37Z</time>
      </trkpt>
      <trkpt lat="41.8667020" lon="-8.8616630">
        <ele>4.9</ele>
        <time>2021-05-18T11:23:38Z</time>
      </trkpt>
      <trkpt lat="41.8667110" lon="-8.8616520">
        <ele>4.9</ele>
        <time>2021-05-18T11:23:39Z</time>
      </trkpt>
      <trkpt lat="41.8667300" lon="-8.8616420">
        <ele>5.0</ele>
        <time>2021-05-18T11:23:40Z</time>
      </trkpt>
      <trkpt lat="41.8667490" lon="-8.8616320">
        <ele>5.0</ele>
        <time>2021-05-18T11:23:41Z</time>
      </trkpt>
      <trkpt lat="41.8667630" lon="-8.8616210">
        <ele>5.0</ele>
        <time>2021-05-18T11:23:42Z</time>
      </trkpt>
      <trkpt lat="41.8667790" lon="-8.8616020">
        <ele>5.0</ele>
        <time>2021-05-18T11:23:43Z</time>
      </trkpt>
      <trkpt lat="41.8667820" lon="-8.8615940">
        <ele>5.1</ele>
        <time>2021-05-18T11:23:44Z</time>
      </trkpt>
      <trkpt lat="41.8667930" lon="-8.8615800">
        <ele>5.1</ele>
        <time>2021-05-18T11:23:45Z</time>
      </trkpt>
      <trkpt lat="41.8668050" lon="-8.8615600">
        <ele>5.1</ele>
        <time>2021-05-18T11:23:46Z</time>
      </trkpt>
      <trkpt lat="41.8668090" lon="-8.8615500">
        <ele>5.1</ele>
        <time>2021-05-18T11:23:47Z</time>
      </trkpt>
      <trkpt lat="41.8668240" lon="-8.8615270">
        <ele>5.1</ele>
        <time>2021-05-18T11:23:48Z</time>
      </trkpt>
      <trkpt lat="41.8668230" lon="-8.8615140">
        <ele>5.1</ele>
        <time>2021-05-18T11:23:49Z</time>
      </trkpt>
      <trkpt lat="41.8668330" lon="-8.8614990">
        <ele>5.1</ele>
        <time>2021-05-18T11:23:50Z</time>
      </trkpt>
      <trkpt lat="41.8668420" lon="-8.8614930">
        <ele>5.1</ele>
        <time>2021-05-18T11:23:51Z</time>
      </trkpt>
      <trkpt lat="41.8668560" lon="-8.8614770">
        <ele>5.1</ele>
        <time>2021-05-18T11:23:52Z</time>
      </trkpt>
      <trkpt lat="41.8668660" lon="-8.8614680">
        <ele>5.1</ele>
        <time>2021-05-18T11:23:53Z</time>
      </trkpt>
      <trkpt lat="41.8668740" lon="-8.8614630">
        <ele>5.1</ele>
        <time>2021-05-18T11:23:54Z</time>
      </trkpt>
      <trkpt lat="41.8668790" lon="-8.8614490">
        <ele>5.1</ele>
        <time>2021-05-18T11:23:55Z</time>
      </trkpt>
      <trkpt lat="41.8668850" lon="-8.8614350">
        <ele>5.1</ele>
        <time>2021-05-18T11:23:56Z</time>
      </trkpt>
      <trkpt lat="41.8668910" lon="-8.8614300">
        <ele>5.1</ele>
        <time>2021-05-18T11:23:57Z</time>
      </trkpt>
      <trkpt lat="41.8668980" lon="-8.8614260">
        <ele>5.1</ele>
        <time>2021-05-18T11:23:58Z</time>
      </trkpt>
      <trkpt lat="41.8669130" lon="-8.8614100">
        <ele>5.0</ele>
        <time>2021-05-18T11:23:59Z</time>
      </trkpt>
      <trkpt lat="41.8669170" lon="-8.8613980">
        <ele>5.0</ele>
        <time>2021-05-18T11:24:00Z</time>
      </trkpt>
      <trkpt lat="41.8669270" lon="-8.8613770">
        <ele>5.0</ele>
        <time>2021-05-18T11:24:01Z</time>
      </trkpt>
      <trkpt lat="41.8669320" lon="-8.8613640">
        <ele>5.0</ele>
        <time>2021-05-18T11:24:02Z</time>
      </trkpt>
      <trkpt lat="41.8669360" lon="-8.8613530">
        <ele>4.9</ele>
        <time>2021-05-18T11:24:03Z</time>
      </trkpt>
      <trkpt lat="41.8669390" lon="-8.8613410">
        <ele>4.9</ele>
        <time>2021-05-18T11:24:04Z</time>
      </trkpt>
      <trkpt lat="41.8669430" lon="-8.8613300">
        <ele>4.9</ele>
        <time>2021-05-18T11:24:05Z</time>
      </trkpt>
      <trkpt lat="41.8669460" lon="-8.8613190">
        <ele>4.9</ele>
        <time>2021-05-18T11:24:06Z</time>
      </trkpt>
      <trkpt lat="41.8669620" lon="-8.8612980">
        <ele>4.8</ele>
        <time>2021-05-18T11:24:07Z</time>
      </trkpt>
      <trkpt lat="41.8669680" lon="-8.8612920">
        <ele>4.8</ele>
        <time>2021-05-18T11:24:08Z</time>
      </trkpt>
      <trkpt lat="41.8669730" lon="-8.8612850">
        <ele>4.8</ele>
        <time>2021-05-18T11:24:09Z</time>
      </trkpt>
      <trkpt lat="41.8669750" lon="-8.8612760">
        <ele>4.8</ele>
        <time>2021-05-18T11:24:10Z</time>
      </trkpt>
      <trkpt lat="41.8669850" lon="-8.8612670">
        <ele>4.8</ele>
        <time>2021-05-18T11:24:11Z</time>
      </trkpt>
      <trkpt lat="41.8669910" lon="-8.8612550">
        <ele>4.7</ele>
        <time>2021-05-18T11:24:12Z</time>
      </trkpt>
      <trkpt lat="41.8670090" lon="-8.8612290">
        <ele>4.7</ele>
        <time>2021-05-18T11:24:13Z</time>
      </trkpt>
      <trkpt lat="41.8670170" lon="-8.8612200">
        <ele>4.7</ele>
        <time>2021-05-18T11:24:14Z</time>
      </trkpt>
      <trkpt lat="41.8670240" lon="-8.8612110">
        <ele>4.6</ele>
        <time>2021-05-18T11:24:15Z</time>
      </trkpt>
      <trkpt lat="41.8670330" lon="-8.8611940">
        <ele>4.6</ele>
        <time>2021-05-18T11:24:16Z</time>
      </trkpt>
      <trkpt lat="41.8670400" lon="-8.8611760">
        <ele>4.6</ele>
        <time>2021-05-18T11:24:17Z</time>
      </trkpt>
      <trkpt lat="41.8670420" lon="-8.8611660">
        <ele>4.6</ele>
        <time>2021-05-18T11:24:18Z</time>
      </trkpt>
      <trkpt lat="41.8670520" lon="-8.8611530">
        <ele>4.5</ele>
        <time>2021-05-18T11:24:19Z</time>
      </trkpt>
      <trkpt lat="41.8670580" lon="-8.8611460">
        <ele>4.5</ele>
        <time>2021-05-18T11:24:20Z</time>
      </trkpt>
      <trkpt lat="41.8670650" lon="-8.8611300">
        <ele>4.5</ele>
        <time>2021-05-18T11:24:21Z</time>
      </trkpt>
      <trkpt lat="41.8670750" lon="-8.8611240">
        <ele>4.5</ele>
        <time>2021-05-18T11:24:22Z</time>
      </trkpt>
      <trkpt lat="41.8670770" lon="-8.8611130">
        <ele>4.5</ele>
        <time>2021-05-18T11:24:23Z</time>
      </trkpt>
      <trkpt lat="41.8670940" lon="-8.8611000">
        <ele>4.4</ele>
        <time>2021-05-18T11:24:24Z</time>
      </trkpt>
      <trkpt lat="41.8670960" lon="-8.8610940">
        <ele>4.4</ele>
        <time>2021-05-18T11:24:25Z</time>
      </trkpt>
      <trkpt lat="41.8671040" lon="-8.8610800">
        <ele>4.4</ele>
        <time>2021-05-18T11:24:26Z</time>
      </trkpt>
      <trkpt lat="41.8671230" lon="-8.8610620">
        <ele>4.4</ele>
        <time>2021-05-18T11:24:27Z</time>
      </trkpt>
      <trkpt lat="41.8671290" lon="-8.8610550">
        <ele>4.4</ele>
        <time>2021-05-18T11:24:28Z</time>
      </trkpt>
      <trkpt lat="41.8671340" lon="-8.8610470">
        <ele>4.4</ele>
        <time>2021-05-18T11:24:29Z</time>
      </trkpt>
      <trkpt lat="41.8671610" lon="-8.8610230">
        <ele>4.4</ele>
        <time>2021-05-18T11:24:30Z</time>
      </trkpt>
      <trkpt lat="41.8671690" lon="-8.8610140">
        <ele>4.3</ele>
        <time>2021-05-18T11:24:31Z</time>
      </trkpt>
      <trkpt lat="41.8671760" lon="-8.8610040">
        <ele>4.3</ele>
        <time>2021-05-18T11:24:32Z</time>
      </trkpt>
      <trkpt lat="41.8671840" lon="-8.8609960">
        <ele>4.3</ele>
        <time>2021-05-18T11:24:33Z</time>
      </trkpt>
      <trkpt lat="41.8671960" lon="-8.8609840">
        <ele>4.3</ele>
        <time>2021-05-18T11:24:34Z</time>
      </trkpt>
      <trkpt lat="41.8672100" lon="-8.8609730">
        <ele>4.3</ele>
        <time>2021-05-18T11:24:35Z</time>
      </trkpt>
      <trkpt lat="41.8672200" lon="-8.8609660">
        <ele>4.3</ele>
        <time>2021-05-18T11:24:36Z</time>
      </trkpt>
      <trkpt lat="41.8672250" lon="-8.8609570">
        <ele>4.3</ele>
        <time>2021-05-18T11:24:37Z</time>
      </trkpt>
      <trkpt lat="41.8672340" lon="-8.8609480">
        <ele>4.3</ele>
        <time>2021-05-18T11:24:38Z</time>
      </trkpt>
      <trkpt lat="41.8672410" lon="-8.8609360">
        <ele>4.3</ele>
        <time>2021-05-18T11:24:39Z</time>
      </trkpt>
      <trkpt lat="41.8672520" lon="-8.8609300">
        <ele>4.2</ele>
        <time>2021-05-18T11:24:40Z</time>
      </trkpt>
      <trkpt lat="41.8672590" lon="-8.8609340">
        <ele>4.2</ele>
        <time>2021-05-18T11:24:41Z</time>
      </trkpt>
      <trkpt lat="41.8672600" lon="-8.8609340">
        <ele>4.2</ele>
        <time>2021-05-18T11:24:42Z</time>
      </trkpt>
      <trkpt lat="41.8672610" lon="-8.8609350">
        <ele>4.2</ele>
        <time>2021-05-18T11:24:43Z</time>
      </trkpt>
      <trkpt lat="41.8672620" lon="-8.8609350">
        <ele>4.2</ele>
        <time>2021-05-18T11:24:44Z</time>
      </trkpt>
      <trkpt lat="41.8672630" lon="-8.8609350">
        <ele>4.2</ele>
        <time>2021-05-18T11:24:45Z</time>
      </trkpt>
      <trkpt lat="41.8672640" lon="-8.8609350">
        <ele>4.2</ele>
        <time>2021-05-18T11:24:46Z</time>
      </trkpt>
      <trkpt lat="41.8672650" lon="-8.8609360">
        <ele>4.2</ele>
        <time>2021-05-18T11:24:47Z</time>
      </trkpt>
      <trkpt lat="41.8672660" lon="-8.8609360">
        <ele>4.2</ele>
        <time>2021-05-18T11:24:48Z</time>
      </trkpt>
      <trkpt lat="41.8672670" lon="-8.8609360">
        <ele>4.2</ele>
        <time>2021-05-18T11:24:49Z</time>
      </trkpt>
      <trkpt lat="41.8672680" lon="-8.8609360">
        <ele>4.2</ele>
        <time>2021-05-18T11:24:50Z</time>
      </trkpt>
      <trkpt lat="41.8672690" lon="-8.8609370">
        <ele>4.2</ele>
        <time>2021-05-18T11:24:51Z</time>
      </trkpt>
      <trkpt lat="41.8672700" lon="-8.8609370">
        <ele>4.2</ele>
        <time>2021-05-18T11:24:52Z</time>
      </trkpt>
      <trkpt lat="41.8672710" lon="-8.8609370">
        <ele>4.2</ele>
        <time>2021-05-18T11:24:53Z</time>
      </trkpt>
      <trkpt lat="41.8672720" lon="-8.8609370">
        <ele>4.2</ele>
        <time>2021-05-18T11:24:54Z</time>
      </trkpt>
      <trkpt lat="41.8672730" lon="-8.8609370">
        <ele>4.2</ele>
        <time>2021-05-18T11:24:55Z</time>
      </trkpt>
      <trkpt lat="41.8672740" lon="-8.8609380">
        <ele>4.2</ele>
        <time>2021-05-18T11:24:56Z</time>
      </trkpt>
      <trkpt lat="41.8672750" lon="-8.8609380">
        <ele>4.2</ele>
        <time>2021-05-18T11:24:57Z</time>
      </trkpt>
      <trkpt lat="41.8672760" lon="-8.8609380">
        <ele>4.2</ele>
        <time>2021-05-18T11:24:58Z</time>
      </trkpt>
      <trkpt lat="41.8672770" lon="-8.8609380">
        <ele>4.2</ele>
        <time>2021-05-18T11:24:59Z</time>
      </trkpt>
      <trkpt lat="41.8672780" lon="-8.8609390">
        <ele>4.2</ele>
        <time>2021-05-18T11:25:00Z</time>
      </trkpt>
      <trkpt lat="41.8672790" lon="-8.8609390">
        <ele>4.2</ele>
        <time>2021-05-18T11:25:01Z</time>
      </trkpt>
      <trkpt lat="41.8672800" lon="-8.8609390">
        <ele>4.2</ele>
        <time>2021-05-18T11:25:02Z</time>
      </trkpt>
      <trkpt lat="41.8672810" lon="-8.8609390">
        <ele>4.2</ele>
        <time>2021-05-18T11:25:03Z</time>
      </trkpt>
      <trkpt lat="41.8672830" lon="-8.8609390">
        <ele>4.2</ele>
        <time>2021-05-18T11:25:04Z</time>
      </trkpt>
      <trkpt lat="41.8672840" lon="-8.8609400">
        <ele>4.2</ele>
        <time>2021-05-18T11:25:05Z</time>
      </trkpt>
      <trkpt lat="41.8672850" lon="-8.8609400">
        <ele>4.2</ele>
        <time>2021-05-18T11:25:06Z</time>
      </trkpt>
      <trkpt lat="41.8672860" lon="-8.8609400">
        <ele>4.2</ele>
        <time>2021-05-18T11:25:07Z</time>
      </trkpt>
      <trkpt lat="41.8672870" lon="-8.8609400">
        <ele>4.2</ele>
        <time>2021-05-18T11:25:08Z</time>
      </trkpt>
      <trkpt lat="41.8672880" lon="-8.8609410">
        <ele>4.2</ele>
        <time>2021-05-18T11:25:09Z</time>
      </trkpt>
      <trkpt lat="41.8672890" lon="-8.8609410">
        <ele>4.2</ele>
        <time>2021-05-18T11:25:10Z</time>
      </trkpt>
      <trkpt lat="41.8672900" lon="-8.8609410">
        <ele>4.2</ele>
        <time>2021-05-18T11:25:11Z</time>
      </trkpt>
      <trkpt lat="41.8672910" lon="-8.8609410">
        <ele>4.2</ele>
        <time>2021-05-18T11:25:12Z</time>
      </trkpt>
      <trkpt lat="41.8672920" lon="-8.8609420">
        <ele>4.2</ele>
        <time>2021-05-18T11:25:13Z</time>
      </trkpt>
      <trkpt lat="41.8672930" lon="-8.8609420">
        <ele>4.2</ele>
        <time>2021-05-18T11:25:14Z</time>
      </trkpt>
      <trkpt lat="41.8672940" lon="-8.8609420">
        <ele>4.2</ele>
        <time>2021-05-18T11:25:15Z</time>
      </trkpt>
      <trkpt lat="41.8672950" lon="-8.8609420">
        <ele>4.2</ele>
        <time>2021-05-18T11:25:17Z</time>
      </trkpt>
      <trkpt lat="41.8672960" lon="-8.8609420">
        <ele>4.2</ele>
        <time>2021-05-18T11:25:18Z</time>
      </trkpt>
      <trkpt lat="41.8672970" lon="-8.8609430">
        <ele>4.2</ele>
        <time>2021-05-18T11:25:19Z</time>
      </trkpt>
      <trkpt lat="41.8672980" lon="-8.8609430">
        <ele>4.2</ele>
        <time>2021-05-18T11:25:20Z</time>
      </trkpt>
      <trkpt lat="41.8672990" lon="-8.8609430">
        <ele>4.2</ele>
        <time>2021-05-18T11:25:21Z</time>
      </trkpt>
      <trkpt lat="41.8673000" lon="-8.8609430">
        <ele>4.2</ele>
        <time>2021-05-18T11:25:22Z</time>
      </trkpt>
      <trkpt lat="41.8673010" lon="-8.8609440">
        <ele>4.2</ele>
        <time>2021-05-18T11:25:23Z</time>
      </trkpt>
      <trkpt lat="41.8673020" lon="-8.8609440">
        <ele>4.2</ele>
        <time>2021-05-18T11:25:24Z</time>
      </trkpt>
      <trkpt lat="41.8673030" lon="-8.8609440">
        <ele>4.2</ele>
        <time>2021-05-18T11:25:25Z</time>
      </trkpt>
      <trkpt lat="41.8673040" lon="-8.8609440">
        <ele>4.2</ele>
        <time>2021-05-18T11:25:26Z</time>
      </trkpt>
      <trkpt lat="41.8673050" lon="-8.8609450">
        <ele>4.2</ele>
        <time>2021-05-18T11:25:27Z</time>
      </trkpt>
      <trkpt lat="41.8673060" lon="-8.8609450">
        <ele>4.2</ele>
        <time>2021-05-18T11:25:28Z</time>
      </trkpt>
      <trkpt lat="41.8673070" lon="-8.8609450">
        <ele>4.2</ele>
        <time>2021-05-18T11:25:29Z</time>
      </trkpt>
      <trkpt lat="41.8673170" lon="-8.8609320">
        <ele>4.1</ele>
        <time>2021-05-18T11:25:30Z</time>
      </trkpt>
      <trkpt lat="41.8673130" lon="-8.8609280">
        <ele>4.1</ele>
        <time>2021-05-18T11:25:31Z</time>
      </trkpt>
      <trkpt lat="41.8673000" lon="-8.8609180">
        <ele>4.1</ele>
        <time>2021-05-18T11:25:32Z</time>
      </trkpt>
      <trkpt lat="41.8672910" lon="-8.8609040">
        <ele>4.1</ele>
        <time>2021-05-18T11:25:33Z</time>
      </trkpt>
      <trkpt lat="41.8672920" lon="-8.8608860">
        <ele>4.1</ele>
        <time>2021-05-18T11:25:34Z</time>
      </trkpt>
      <trkpt lat="41.8672940" lon="-8.8608710">
        <ele>4.0</ele>
        <time>2021-05-18T11:25:35Z</time>
      </trkpt>
      <trkpt lat="41.8672970" lon="-8.8608570">
        <ele>4.0</ele>
        <time>2021-05-18T11:25:36Z</time>
      </trkpt>
      <trkpt lat="41.8673090" lon="-8.8608350">
        <ele>4.0</ele>
        <time>2021-05-18T11:25:37Z</time>
      </trkpt>
      <trkpt lat="41.8673130" lon="-8.8608310">
        <ele>4.0</ele>
        <time>2021-05-18T11:25:38Z</time>
      </trkpt>
      <trkpt lat="41.8673180" lon="-8.8608280">
        <ele>4.0</ele>
        <time>2021-05-18T11:25:39Z</time>
      </trkpt>
      <trkpt lat="41.8673220" lon="-8.8608240">
        <ele>4.0</ele>
        <time>2021-05-18T11:25:40Z</time>
      </trkpt>
      <trkpt lat="41.8673270" lon="-8.8608200">
        <ele>4.0</ele>
        <time>2021-05-18T11:25:41Z</time>
      </trkpt>
      <trkpt lat="41.8673310" lon="-8.8608160">
        <ele>3.9</ele>
        <time>2021-05-18T11:25:42Z</time>
      </trkpt>
      <trkpt lat="41.8673400" lon="-8.8607960">
        <ele>3.9</ele>
        <time>2021-05-18T11:25:43Z</time>
      </trkpt>
      <trkpt lat="41.8673480" lon="-8.8607830">
        <ele>3.9</ele>
        <time>2021-05-18T11:25:44Z</time>
      </trkpt>
      <trkpt lat="41.8673520" lon="-8.8607710">
        <ele>3.9</ele>
        <time>2021-05-18T11:25:45Z</time>
      </trkpt>
      <trkpt lat="41.8673520" lon="-8.8607600">
        <ele>3.9</ele>
        <time>2021-05-18T11:25:46Z</time>
      </trkpt>
      <trkpt lat="41.8673630" lon="-8.8607440">
        <ele>3.9</ele>
        <time>2021-05-18T11:25:47Z</time>
      </trkpt>
      <trkpt lat="41.8673710" lon="-8.8607240">
        <ele>3.9</ele>
        <time>2021-05-18T11:25:48Z</time>
      </trkpt>
      <trkpt lat="41.8673740" lon="-8.8607150">
        <ele>3.9</ele>
        <time>2021-05-18T11:25:49Z</time>
      </trkpt>
      <trkpt lat="41.8673780" lon="-8.8607060">
        <ele>3.8</ele>
        <time>2021-05-18T11:25:50Z</time>
      </trkpt>
      <trkpt lat="41.8673810" lon="-8.8606970">
        <ele>3.8</ele>
        <time>2021-05-18T11:25:51Z</time>
      </trkpt>
      <trkpt lat="41.8673850" lon="-8.8606800">
        <ele>3.8</ele>
        <time>2021-05-18T11:25:52Z</time>
      </trkpt>
      <trkpt lat="41.8673940" lon="-8.8606710">
        <ele>3.8</ele>
        <time>2021-05-18T11:25:53Z</time>
      </trkpt>
      <trkpt lat="41.8673880" lon="-8.8606640">
        <ele>3.8</ele>
        <time>2021-05-18T11:25:54Z</time>
      </trkpt>
      <trkpt lat="41.8673950" lon="-8.8606580">
        <ele>3.8</ele>
        <time>2021-05-18T11:25:55Z</time>
      </trkpt>
      <trkpt lat="41.8674050" lon="-8.8606390">
        <ele>3.8</ele>
        <time>2021-05-18T11:25:56Z</time>
      </trkpt>
      <trkpt lat="41.8674030" lon="-8.8606290">
        <ele>3.8</ele>
        <time>2021-05-18T11:25:57Z</time>
      </trkpt>
      <trkpt lat="41.8674020" lon="-8.8606190">
        <ele>3.8</ele>
        <time>2021-05-18T11:25:58Z</time>
      </trkpt>
      <trkpt lat="41.8674000" lon="-8.8606090">
        <ele>3.8</ele>
        <time>2021-05-18T11:25:59Z</time>
      </trkpt>
      <trkpt lat="41.8673980" lon="-8.8605950">
        <ele>3.8</ele>
        <time>2021-05-18T11:26:00Z</time>
      </trkpt>
      <trkpt lat="41.8673990" lon="-8.8605760">
        <ele>3.8</ele>
        <time>2021-05-18T11:26:01Z</time>
      </trkpt>
      <trkpt lat="41.8673950" lon="-8.8605630">
        <ele>3.8</ele>
        <time>2021-05-18T11:26:02Z</time>
      </trkpt>
      <trkpt lat="41.8673910" lon="-8.8605460">
        <ele>3.8</ele>
        <time>2021-05-18T11:26:03Z</time>
      </trkpt>
      <trkpt lat="41.8673890" lon="-8.8605320">
        <ele>3.8</ele>
        <time>2021-05-18T11:26:04Z</time>
      </trkpt>
      <trkpt lat="41.8673830" lon="-8.8605270">
        <ele>3.8</ele>
        <time>2021-05-18T11:26:05Z</time>
      </trkpt>
      <trkpt lat="41.8673860" lon="-8.8605020">
        <ele>3.8</ele>
        <time>2021-05-18T11:26:06Z</time>
      </trkpt>
      <trkpt lat="41.8673870" lon="-8.8604870">
        <ele>3.8</ele>
        <time>2021-05-18T11:26:07Z</time>
      </trkpt>
      <trkpt lat="41.8673800" lon="-8.8604640">
        <ele>3.8</ele>
        <time>2021-05-18T11:26:08Z</time>
      </trkpt>
      <trkpt lat="41.8673790" lon="-8.8604530">
        <ele>3.8</ele>
        <time>2021-05-18T11:26:09Z</time>
      </trkpt>
      <trkpt lat="41.8673770" lon="-8.8604410">
        <ele>3.8</ele>
        <time>2021-05-18T11:26:10Z</time>
      </trkpt>
      <trkpt lat="41.8673750" lon="-8.8604300">
        <ele>3.8</ele>
        <time>2021-05-18T11:26:11Z</time>
      </trkpt>
      <trkpt lat="41.8673760" lon="-8.8604000">
        <ele>3.8</ele>
        <time>2021-05-18T11:26:12Z</time>
      </trkpt>
      <trkpt lat="41.8673730" lon="-8.8603890">
        <ele>3.8</ele>
        <time>2021-05-18T11:26:13Z</time>
      </trkpt>
      <trkpt lat="41.8673710" lon="-8.8603790">
        <ele>3.8</ele>
        <time>2021-05-18T11:26:14Z</time>
      </trkpt>
      <trkpt lat="41.8673690" lon="-8.8603620">
        <ele>3.8</ele>
        <time>2021-05-18T11:26:15Z</time>
      </trkpt>
      <trkpt lat="41.8673660" lon="-8.8603380">
        <ele>3.8</ele>
        <time>2021-05-18T11:26:16Z</time>
      </trkpt>
      <trkpt lat="41.8673650" lon="-8.8603070">
        <ele>3.8</ele>
        <time>2021-05-18T11:26:17Z</time>
      </trkpt>
      <trkpt lat="41.8673640" lon="-8.8602980">
        <ele>3.8</ele>
        <time>2021-05-18T11:26:18Z</time>
      </trkpt>
      <trkpt lat="41.8673630" lon="-8.8602880">
        <ele>3.8</ele>
        <time>2021-05-18T11:26:19Z</time>
      </trkpt>
      <trkpt lat="41.8673580" lon="-8.8602580">
        <ele>3.8</ele>
        <time>2021-05-18T11:26:20Z</time>
      </trkpt>
      <trkpt lat="41.8673560" lon="-8.8602470">
        <ele>3.8</ele>
        <time>2021-05-18T11:26:21Z</time>
      </trkpt>
      <trkpt lat="41.8673550" lon="-8.8602350">
        <ele>3.8</ele>
        <time>2021-05-18T11:26:22Z</time>
      </trkpt>
      <trkpt lat="41.8673460" lon="-8.8602080">
        <ele>3.8</ele>
        <time>2021-05-18T11:26:23Z</time>
      </trkpt>
      <trkpt lat="41.8673440" lon="-8.8601960">
        <ele>3.8</ele>
        <time>2021-05-18T11:26:24Z</time>
      </trkpt>
      <trkpt lat="41.8673410" lon="-8.8601850">
        <ele>3.8</ele>
        <time>2021-05-18T11:26:25Z</time>
      </trkpt>
      <trkpt lat="41.8673340" lon="-8.8601620">
        <ele>3.8</ele>
        <time>2021-05-18T11:26:26Z</time>
      </trkpt>
      <trkpt lat="41.8673340" lon="-8.8601490">
        <ele>3.8</ele>
        <time>2021-05-18T11:26:27Z</time>
      </trkpt>
      <trkpt lat="41.8673330" lon="-8.8601350">
        <ele>3.8</ele>
        <time>2021-05-18T11:26:28Z</time>
      </trkpt>
      <trkpt lat="41.8673330" lon="-8.8601220">
        <ele>3.8</ele>
        <time>2021-05-18T11:26:29Z</time>
      </trkpt>
      <trkpt lat="41.8673270" lon="-8.8601060">
        <ele>3.8</ele>
        <time>2021-05-18T11:26:30Z</time>
      </trkpt>
      <trkpt lat="41.8673220" lon="-8.8600960">
        <ele>3.8</ele>
        <time>2021-05-18T11:26:31Z</time>
      </trkpt>
      <trkpt lat="41.8673210" lon="-8.8600650">
        <ele>3.8</ele>
        <time>2021-05-18T11:26:32Z</time>
      </trkpt>
      <trkpt lat="41.8673210" lon="-8.8600550">
        <ele>3.8</ele>
        <time>2021-05-18T11:26:33Z</time>
      </trkpt>
      <trkpt lat="41.8673220" lon="-8.8600460">
        <ele>3.8</ele>
        <time>2021-05-18T11:26:34Z</time>
      </trkpt>
      <trkpt lat="41.8673170" lon="-8.8600340">
        <ele>3.8</ele>
        <time>2021-05-18T11:26:35Z</time>
      </trkpt>
      <trkpt lat="41.8673100" lon="-8.8600230">
        <ele>3.8</ele>
        <time>2021-05-18T11:26:36Z</time>
      </trkpt>
      <trkpt lat="41.8673080" lon="-8.8600050">
        <ele>3.8</ele>
        <time>2021-05-18T11:26:37Z</time>
      </trkpt>
      <trkpt lat="41.8673070" lon="-8.8599880">
        <ele>3.8</ele>
        <time>2021-05-18T11:26:38Z</time>
      </trkpt>
      <trkpt lat="41.8673040" lon="-8.8599730">
        <ele>3.8</ele>
        <time>2021-05-18T11:26:39Z</time>
      </trkpt>
      <trkpt lat="41.8673080" lon="-8.8599660">
        <ele>3.8</ele>
        <time>2021-05-18T11:26:40Z</time>
      </trkpt>
      <trkpt lat="41.8673020" lon="-8.8599540">
        <ele>3.8</ele>
        <time>2021-05-18T11:26:41Z</time>
      </trkpt>
      <trkpt lat="41.8673050" lon="-8.8599420">
        <ele>3.8</ele>
        <time>2021-05-18T11:26:42Z</time>
      </trkpt>
      <trkpt lat="41.8673020" lon="-8.8599320">
        <ele>3.8</ele>
        <time>2021-05-18T11:26:43Z</time>
      </trkpt>
      <trkpt lat="41.8673020" lon="-8.8599220">
        <ele>3.8</ele>
        <time>2021-05-18T11:26:44Z</time>
      </trkpt>
      <trkpt lat="41.8673040" lon="-8.8599080">
        <ele>3.9</ele>
        <time>2021-05-18T11:26:45Z</time>
      </trkpt>
      <trkpt lat="41.8673020" lon="-8.8598910">
        <ele>3.9</ele>
        <time>2021-05-18T11:26:46Z</time>
      </trkpt>
      <trkpt lat="41.8673010" lon="-8.8598810">
        <ele>3.9</ele>
        <time>2021-05-18T11:26:47Z</time>
      </trkpt>
      <trkpt lat="41.8672990" lon="-8.8598740">
        <ele>3.9</ele>
        <time>2021-05-18T11:26:48Z</time>
      </trkpt>
      <trkpt lat="41.8673010" lon="-8.8598600">
        <ele>3.9</ele>
        <time>2021-05-18T11:26:49Z</time>
      </trkpt>
      <trkpt lat="41.8672970" lon="-8.8598530">
        <ele>3.9</ele>
        <time>2021-05-18T11:26:50Z</time>
      </trkpt>
      <trkpt lat="41.8672950" lon="-8.8598480">
        <ele>3.9</ele>
        <time>2021-05-18T11:26:51Z</time>
      </trkpt>
      <trkpt lat="41.8672980" lon="-8.8598420">
        <ele>3.9</ele>
        <time>2021-05-18T11:26:52Z</time>
      </trkpt>
      <trkpt lat="41.8672950" lon="-8.8598410">
        <ele>3.9</ele>
        <time>2021-05-18T11:26:53Z</time>
      </trkpt>
      <trkpt lat="41.8672910" lon="-8.8598390">
        <ele>3.9</ele>
        <time>2021-05-18T11:26:54Z</time>
      </trkpt>
      <trkpt lat="41.8672880" lon="-8.8598380">
        <ele>3.9</ele>
        <time>2021-05-18T11:26:55Z</time>
      </trkpt>
      <trkpt lat="41.8672830" lon="-8.8598390">
        <ele>3.9</ele>
        <time>2021-05-18T11:26:56Z</time>
      </trkpt>
      <trkpt lat="41.8672830" lon="-8.8598360">
        <ele>3.9</ele>
        <time>2021-05-18T11:26:57Z</time>
      </trkpt>
      <trkpt lat="41.8672820" lon="-8.8598300">
        <ele>3.9</ele>
        <time>2021-05-18T11:26:58Z</time>
      </trkpt>
      <trkpt lat="41.8672790" lon="-8.8598310">
        <ele>3.9</ele>
        <time>2021-05-18T11:26:59Z</time>
      </trkpt>
      <trkpt lat="41.8672770" lon="-8.8598310">
        <ele>3.9</ele>
        <time>2021-05-18T11:27:00Z</time>
      </trkpt>
      <trkpt lat="41.8672760" lon="-8.8598270">
        <ele>3.9</ele>
        <time>2021-05-18T11:27:01Z</time>
      </trkpt>
      <trkpt lat="41.8672730" lon="-8.8598220">
        <ele>3.9</ele>
        <time>2021-05-18T11:27:02Z</time>
      </trkpt>
      <trkpt lat="41.8672770" lon="-8.8598210">
        <ele>3.9</ele>
        <time>2021-05-18T11:27:03Z</time>
      </trkpt>
      <trkpt lat="41.8672770" lon="-8.8598200">
        <ele>3.9</ele>
        <time>2021-05-18T11:27:04Z</time>
      </trkpt>
      <trkpt lat="41.8672770" lon="-8.8598160">
        <ele>3.9</ele>
        <time>2021-05-18T11:27:05Z</time>
      </trkpt>
      <trkpt lat="41.8672780" lon="-8.8598160">
        <ele>3.9</ele>
        <time>2021-05-18T11:27:06Z</time>
      </trkpt>
      <trkpt lat="41.8672820" lon="-8.8598180">
        <ele>3.9</ele>
        <time>2021-05-18T11:27:07Z</time>
      </trkpt>
      <trkpt lat="41.8672890" lon="-8.8598130">
        <ele>3.9</ele>
        <time>2021-05-18T11:27:08Z</time>
      </trkpt>
      <trkpt lat="41.8672830" lon="-8.8598050">
        <ele>3.9</ele>
        <time>2021-05-18T11:27:09Z</time>
      </trkpt>
      <trkpt lat="41.8672880" lon="-8.8598110">
        <ele>3.9</ele>
        <time>2021-05-18T11:27:10Z</time>
      </trkpt>
      <trkpt lat="41.8672980" lon="-8.8598150">
        <ele>3.9</ele>
        <time>2021-05-18T11:27:11Z</time>
      </trkpt>
      <trkpt lat="41.8673060" lon="-8.8598140">
        <ele>3.9</ele>
        <time>2021-05-18T11:27:12Z</time>
      </trkpt>
      <trkpt lat="41.8673070" lon="-8.8598190">
        <ele>3.9</ele>
        <time>2021-05-18T11:27:13Z</time>
      </trkpt>
      <trkpt lat="41.8673040" lon="-8.8598220">
        <ele>3.9</ele>
        <time>2021-05-18T11:27:14Z</time>
      </trkpt>
      <trkpt lat="41.8673020" lon="-8.8598250">
        <ele>3.9</ele>
        <time>2021-05-18T11:27:15Z</time>
      </trkpt>
      <trkpt lat="41.8673010" lon="-8.8598210">
        <ele>3.9</ele>
        <time>2021-05-18T11:27:16Z</time>
      </trkpt>
      <trkpt lat="41.8672960" lon="-8.8598200">
        <ele>3.9</ele>
        <time>2021-05-18T11:27:17Z</time>
      </trkpt>
      <trkpt lat="41.8672890" lon="-8.8598150">
        <ele>3.9</ele>
        <time>2021-05-18T11:27:18Z</time>
      </trkpt>
      <trkpt lat="41.8672890" lon="-8.8598210">
        <ele>3.9</ele>
        <time>2021-05-18T11:27:19Z</time>
      </trkpt>
      <trkpt lat="41.8672840" lon="-8.8598120">
        <ele>3.9</ele>
        <time>2021-05-18T11:27:20Z</time>
      </trkpt>
      <trkpt lat="41.8672790" lon="-8.8598000">
        <ele>3.9</ele>
        <time>2021-05-18T11:27:21Z</time>
      </trkpt>
      <trkpt lat="41.8672690" lon="-8.8597930">
        <ele>3.9</ele>
        <time>2021-05-18T11:27:22Z</time>
      </trkpt>
      <trkpt lat="41.8672630" lon="-8.8597860">
        <ele>3.9</ele>
        <time>2021-05-18T11:27:23Z</time>
      </trkpt>
      <trkpt lat="41.8672630" lon="-8.8597720">
        <ele>3.9</ele>
        <time>2021-05-18T11:27:24Z</time>
      </trkpt>
      <trkpt lat="41.8672580" lon="-8.8597670">
        <ele>3.9</ele>
        <time>2021-05-18T11:27:25Z</time>
      </trkpt>
      <trkpt lat="41.8672530" lon="-8.8597640">
        <ele>3.9</ele>
        <time>2021-05-18T11:27:26Z</time>
      </trkpt>
      <trkpt lat="41.8672460" lon="-8.8597560">
        <ele>3.9</ele>
        <time>2021-05-18T11:27:27Z</time>
      </trkpt>
      <trkpt lat="41.8672440" lon="-8.8597550">
        <ele>3.9</ele>
        <time>2021-05-18T11:27:28Z</time>
      </trkpt>
      <trkpt lat="41.8672420" lon="-8.8597560">
        <ele>3.9</ele>
        <time>2021-05-18T11:27:29Z</time>
      </trkpt>
      <trkpt lat="41.8672390" lon="-8.8597580">
        <ele>3.9</ele>
        <time>2021-05-18T11:27:30Z</time>
      </trkpt>
      <trkpt lat="41.8672360" lon="-8.8597590">
        <ele>3.9</ele>
        <time>2021-05-18T11:27:31Z</time>
      </trkpt>
      <trkpt lat="41.8672370" lon="-8.8597570">
        <ele>3.9</ele>
        <time>2021-05-18T11:27:32Z</time>
      </trkpt>
      <trkpt lat="41.8672330" lon="-8.8597570">
        <ele>3.9</ele>
        <time>2021-05-18T11:27:33Z</time>
      </trkpt>
      <trkpt lat="41.8672320" lon="-8.8597650">
        <ele>3.9</ele>
        <time>2021-05-18T11:27:34Z</time>
      </trkpt>
      <trkpt lat="41.8672320" lon="-8.8597640">
        <ele>3.9</ele>
        <time>2021-05-18T11:27:35Z</time>
      </trkpt>
      <trkpt lat="41.8672470" lon="-8.8597820">
        <ele>3.9</ele>
        <time>2021-05-18T11:27:36Z</time>
      </trkpt>
      <trkpt lat="41.8672440" lon="-8.8597820">
        <ele>3.9</ele>
        <time>2021-05-18T11:27:37Z</time>
      </trkpt>
      <trkpt lat="41.8672420" lon="-8.8597820">
        <ele>3.9</ele>
        <time>2021-05-18T11:27:38Z</time>
      </trkpt>
      <trkpt lat="41.8672390" lon="-8.8597820">
        <ele>3.9</ele>
        <time>2021-05-18T11:27:39Z</time>
      </trkpt>
      <trkpt lat="41.8672380" lon="-8.8597820">
        <ele>3.9</ele>
        <time>2021-05-18T11:27:40Z</time>
      </trkpt>
      <trkpt lat="41.8672370" lon="-8.8597840">
        <ele>3.9</ele>
        <time>2021-05-18T11:27:41Z</time>
      </trkpt>
      <trkpt lat="41.8672310" lon="-8.8597900">
        <ele>3.9</ele>
        <time>2021-05-18T11:27:42Z</time>
      </trkpt>
      <trkpt lat="41.8672330" lon="-8.8597910">
        <ele>3.9</ele>
        <time>2021-05-18T11:27:43Z</time>
      </trkpt>
      <trkpt lat="41.8672370" lon="-8.8597890">
        <ele>3.9</ele>
        <time>2021-05-18T11:27:44Z</time>
      </trkpt>
      <trkpt lat="41.8672340" lon="-8.8597890">
        <ele>3.9</ele>
        <time>2021-05-18T11:27:45Z</time>
      </trkpt>
      <trkpt lat="41.8672370" lon="-8.8597920">
        <ele>3.9</ele>
        <time>2021-05-18T11:27:46Z</time>
      </trkpt>
      <trkpt lat="41.8672350" lon="-8.8597910">
        <ele>3.9</ele>
        <time>2021-05-18T11:27:47Z</time>
      </trkpt>
      <trkpt lat="41.8672330" lon="-8.8597900">
        <ele>3.9</ele>
        <time>2021-05-18T11:27:48Z</time>
      </trkpt>
      <trkpt lat="41.8672340" lon="-8.8597880">
        <ele>3.9</ele>
        <time>2021-05-18T11:27:49Z</time>
      </trkpt>
      <trkpt lat="41.8672270" lon="-8.8597880">
        <ele>3.9</ele>
        <time>2021-05-18T11:27:50Z</time>
      </trkpt>
      <trkpt lat="41.8672240" lon="-8.8597880">
        <ele>3.9</ele>
        <time>2021-05-18T11:27:51Z</time>
      </trkpt>
      <trkpt lat="41.8672330" lon="-8.8597860">
        <ele>3.9</ele>
        <time>2021-05-18T11:27:52Z</time>
      </trkpt>
      <trkpt lat="41.8672350" lon="-8.8597850">
        <ele>3.9</ele>
        <time>2021-05-18T11:27:53Z</time>
      </trkpt>
      <trkpt lat="41.8672390" lon="-8.8597820">
        <ele>3.9</ele>
        <time>2021-05-18T11:27:54Z</time>
      </trkpt>
      <trkpt lat="41.8672370" lon="-8.8597820">
        <ele>3.9</ele>
        <time>2021-05-18T11:27:55Z</time>
      </trkpt>
      <trkpt lat="41.8672390" lon="-8.8597850">
        <ele>3.9</ele>
        <time>2021-05-18T11:27:56Z</time>
      </trkpt>
      <trkpt lat="41.8672370" lon="-8.8597890">
        <ele>3.9</ele>
        <time>2021-05-18T11:27:57Z</time>
      </trkpt>
      <trkpt lat="41.8672390" lon="-8.8597900">
        <ele>3.9</ele>
        <time>2021-05-18T11:27:58Z</time>
      </trkpt>
      <trkpt lat="41.8672320" lon="-8.8597870">
        <ele>3.9</ele>
        <time>2021-05-18T11:27:59Z</time>
      </trkpt>
      <trkpt lat="41.8672290" lon="-8.8597850">
        <ele>3.9</ele>
        <time>2021-05-18T11:28:00Z</time>
      </trkpt>
      <trkpt lat="41.8672340" lon="-8.8597830">
        <ele>3.9</ele>
        <time>2021-05-18T11:28:01Z</time>
      </trkpt>
      <trkpt lat="41.8672320" lon="-8.8597790">
        <ele>3.9</ele>
        <time>2021-05-18T11:28:02Z</time>
      </trkpt>
      <trkpt lat="41.8672320" lon="-8.8597790">
        <ele>3.9</ele>
        <time>2021-05-18T11:28:03Z</time>
      </trkpt>
      <trkpt lat="41.8672280" lon="-8.8597720">
        <ele>3.9</ele>
        <time>2021-05-18T11:28:04Z</time>
      </trkpt>
      <trkpt lat="41.8672330" lon="-8.8597740">
        <ele>3.9</ele>
        <time>2021-05-18T11:28:05Z</time>
      </trkpt>
      <trkpt lat="41.8672390" lon="-8.8597650">
        <ele>3.9</ele>
        <time>2021-05-18T11:28:06Z</time>
      </trkpt>
      <trkpt lat="41.8672350" lon="-8.8597710">
        <ele>3.9</ele>
        <time>2021-05-18T11:28:07Z</time>
      </trkpt>
      <trkpt lat="41.8672350" lon="-8.8597720">
        <ele>3.9</ele>
        <time>2021-05-18T11:28:08Z</time>
      </trkpt>
      <trkpt lat="41.8672350" lon="-8.8597740">
        <ele>3.9</ele>
        <time>2021-05-18T11:28:09Z</time>
      </trkpt>
      <trkpt lat="41.8672340" lon="-8.8597740">
        <ele>3.9</ele>
        <time>2021-05-18T11:28:10Z</time>
      </trkpt>
      <trkpt lat="41.8672320" lon="-8.8597750">
        <ele>3.9</ele>
        <time>2021-05-18T11:28:11Z</time>
      </trkpt>
      <trkpt lat="41.8672370" lon="-8.8597740">
        <ele>3.9</ele>
        <time>2021-05-18T11:28:12Z</time>
      </trkpt>
      <trkpt lat="41.8672400" lon="-8.8597740">
        <ele>3.9</ele>
        <time>2021-05-18T11:28:13Z</time>
      </trkpt>
      <trkpt lat="41.8672420" lon="-8.8597740">
        <ele>3.9</ele>
        <time>2021-05-18T11:28:14Z</time>
      </trkpt>
      <trkpt lat="41.8672430" lon="-8.8597740">
        <ele>3.9</ele>
        <time>2021-05-18T11:28:15Z</time>
      </trkpt>
      <trkpt lat="41.8672430" lon="-8.8597740">
        <ele>3.9</ele>
        <time>2021-05-18T11:28:16Z</time>
      </trkpt>
      <trkpt lat="41.8672430" lon="-8.8597740">
        <ele>3.9</ele>
        <time>2021-05-18T11:28:17Z</time>
      </trkpt>
      <trkpt lat="41.8672400" lon="-8.8597790">
        <ele>3.9</ele>
        <time>2021-05-18T11:28:18Z</time>
      </trkpt>
      <trkpt lat="41.8672390" lon="-8.8597790">
        <ele>3.9</ele>
        <time>2021-05-18T11:28:19Z</time>
      </trkpt>
      <trkpt lat="41.8672440" lon="-8.8597810">
        <ele>3.9</ele>
        <time>2021-05-18T11:28:20Z</time>
      </trkpt>
      <trkpt lat="41.8672440" lon="-8.8597810">
        <ele>3.9</ele>
        <time>2021-05-18T11:28:21Z</time>
      </trkpt>
      <trkpt lat="41.8672450" lon="-8.8597820">
        <ele>3.9</ele>
        <time>2021-05-18T11:28:22Z</time>
      </trkpt>
      <trkpt lat="41.8672400" lon="-8.8597810">
        <ele>3.9</ele>
        <time>2021-05-18T11:28:23Z</time>
      </trkpt>
      <trkpt lat="41.8672410" lon="-8.8597760">
        <ele>3.9</ele>
        <time>2021-05-18T11:28:24Z</time>
      </trkpt>
      <trkpt lat="41.8672440" lon="-8.8597770">
        <ele>3.9</ele>
        <time>2021-05-18T11:28:25Z</time>
      </trkpt>
      <trkpt lat="41.8672470" lon="-8.8597820">
        <ele>3.9</ele>
        <time>2021-05-18T11:28:26Z</time>
      </trkpt>
      <trkpt lat="41.8672450" lon="-8.8597820">
        <ele>3.9</ele>
        <time>2021-05-18T11:28:27Z</time>
      </trkpt>
      <trkpt lat="41.8672440" lon="-8.8597840">
        <ele>3.9</ele>
        <time>2021-05-18T11:28:28Z</time>
      </trkpt>
      <trkpt lat="41.8672500" lon="-8.8597810">
        <ele>3.9</ele>
        <time>2021-05-18T11:28:29Z</time>
      </trkpt>
      <trkpt lat="41.8672550" lon="-8.8597790">
        <ele>3.9</ele>
        <time>2021-05-18T11:28:30Z</time>
      </trkpt>
      <trkpt lat="41.8672500" lon="-8.8597790">
        <ele>3.9</ele>
        <time>2021-05-18T11:28:31Z</time>
      </trkpt>
      <trkpt lat="41.8672480" lon="-8.8597780">
        <ele>3.9</ele>
        <time>2021-05-18T11:28:32Z</time>
      </trkpt>
      <trkpt lat="41.8672390" lon="-8.8597810">
        <ele>3.9</ele>
        <time>2021-05-18T11:28:33Z</time>
      </trkpt>
      <trkpt lat="41.8672440" lon="-8.8597800">
        <ele>3.9</ele>
        <time>2021-05-18T11:28:34Z</time>
      </trkpt>
      <trkpt lat="41.8672450" lon="-8.8597790">
        <ele>3.9</ele>
        <time>2021-05-18T11:28:35Z</time>
      </trkpt>
      <trkpt lat="41.8672490" lon="-8.8597730">
        <ele>3.9</ele>
        <time>2021-05-18T11:28:36Z</time>
      </trkpt>
      <trkpt lat="41.8672490" lon="-8.8597730">
        <ele>3.9</ele>
        <time>2021-05-18T11:28:37Z</time>
      </trkpt>
      <trkpt lat="41.8672400" lon="-8.8597770">
        <ele>3.9</ele>
        <time>2021-05-18T11:28:38Z</time>
      </trkpt>
      <trkpt lat="41.8672390" lon="-8.8597780">
        <ele>3.9</ele>
        <time>2021-05-18T11:28:39Z</time>
      </trkpt>
      <trkpt lat="41.8672390" lon="-8.8597780">
        <ele>3.9</ele>
        <time>2021-05-18T11:28:40Z</time>
      </trkpt>
      <trkpt lat="41.8672380" lon="-8.8597800">
        <ele>3.9</ele>
        <time>2021-05-18T11:28:41Z</time>
      </trkpt>
      <trkpt lat="41.8672400" lon="-8.8597760">
        <ele>3.9</ele>
        <time>2021-05-18T11:28:42Z</time>
      </trkpt>
      <trkpt lat="41.8672480" lon="-8.8597730">
        <ele>3.9</ele>
        <time>2021-05-18T11:28:43Z</time>
      </trkpt>
      <trkpt lat="41.8672410" lon="-8.8597770">
        <ele>3.9</ele>
        <time>2021-05-18T11:28:44Z</time>
      </trkpt>
      <trkpt lat="41.8672410" lon="-8.8597820">
        <ele>3.9</ele>
        <time>2021-05-18T11:28:45Z</time>
      </trkpt>
      <trkpt lat="41.8672390" lon="-8.8597770">
        <ele>3.9</ele>
        <time>2021-05-18T11:28:46Z</time>
      </trkpt>
      <trkpt lat="41.8672340" lon="-8.8597780">
        <ele>3.9</ele>
        <time>2021-05-18T11:28:47Z</time>
      </trkpt>
      <trkpt lat="41.8672370" lon="-8.8597780">
        <ele>3.9</ele>
        <time>2021-05-18T11:28:48Z</time>
      </trkpt>
      <trkpt lat="41.8672430" lon="-8.8597770">
        <ele>3.9</ele>
        <time>2021-05-18T11:28:49Z</time>
      </trkpt>
      <trkpt lat="41.8672380" lon="-8.8597780">
        <ele>3.9</ele>
        <time>2021-05-18T11:28:50Z</time>
      </trkpt>
      <trkpt lat="41.8672490" lon="-8.8597810">
        <ele>3.9</ele>
        <time>2021-05-18T11:28:51Z</time>
      </trkpt>
      <trkpt lat="41.8672580" lon="-8.8597850">
        <ele>3.9</ele>
        <time>2021-05-18T11:28:52Z</time>
      </trkpt>
      <trkpt lat="41.8672530" lon="-8.8597860">
        <ele>3.9</ele>
        <time>2021-05-18T11:28:53Z</time>
      </trkpt>
      <trkpt lat="41.8672460" lon="-8.8597880">
        <ele>3.9</ele>
        <time>2021-05-18T11:28:54Z</time>
      </trkpt>
      <trkpt lat="41.8672500" lon="-8.8597900">
        <ele>3.9</ele>
        <time>2021-05-18T11:28:55Z</time>
      </trkpt>
      <trkpt lat="41.8672610" lon="-8.8597890">
        <ele>3.9</ele>
        <time>2021-05-18T11:28:56Z</time>
      </trkpt>
      <trkpt lat="41.8672590" lon="-8.8597880">
        <ele>3.9</ele>
        <time>2021-05-18T11:28:57Z</time>
      </trkpt>
      <trkpt lat="41.8672560" lon="-8.8597880">
        <ele>3.9</ele>
        <time>2021-05-18T11:28:58Z</time>
      </trkpt>
      <trkpt lat="41.8672540" lon="-8.8597870">
        <ele>3.9</ele>
        <time>2021-05-18T11:28:59Z</time>
      </trkpt>
      <trkpt lat="41.8672520" lon="-8.8597870">
        <ele>3.9</ele>
        <time>2021-05-18T11:29:00Z</time>
      </trkpt>
      <trkpt lat="41.8672490" lon="-8.8597860">
        <ele>3.9</ele>
        <time>2021-05-18T11:29:01Z</time>
      </trkpt>
      <trkpt lat="41.8672470" lon="-8.8597860">
        <ele>3.9</ele>
        <time>2021-05-18T11:29:02Z</time>
      </trkpt>
      <trkpt lat="41.8672440" lon="-8.8597850">
        <ele>3.9</ele>
        <time>2021-05-18T11:29:03Z</time>
      </trkpt>
      <trkpt lat="41.8672420" lon="-8.8597850">
        <ele>3.9</ele>
        <time>2021-05-18T11:29:04Z</time>
      </trkpt>
      <trkpt lat="41.8672400" lon="-8.8597840">
        <ele>4.0</ele>
        <time>2021-05-18T11:29:05Z</time>
      </trkpt>
      <trkpt lat="41.8672370" lon="-8.8597840">
        <ele>4.0</ele>
        <time>2021-05-18T11:29:06Z</time>
      </trkpt>
      <trkpt lat="41.8672350" lon="-8.8597830">
        <ele>4.0</ele>
        <time>2021-05-18T11:29:07Z</time>
      </trkpt>
      <trkpt lat="41.8672330" lon="-8.8597830">
        <ele>4.0</ele>
        <time>2021-05-18T11:29:08Z</time>
      </trkpt>
      <trkpt lat="41.8672300" lon="-8.8597820">
        <ele>4.0</ele>
        <time>2021-05-18T11:29:09Z</time>
      </trkpt>
      <trkpt lat="41.8672280" lon="-8.8597820">
        <ele>4.0</ele>
        <time>2021-05-18T11:29:10Z</time>
      </trkpt>
      <trkpt lat="41.8672250" lon="-8.8597810">
        <ele>4.0</ele>
        <time>2021-05-18T11:29:11Z</time>
      </trkpt>
      <trkpt lat="41.8672230" lon="-8.8597810">
        <ele>4.0</ele>
        <time>2021-05-18T11:29:12Z</time>
      </trkpt>
      <trkpt lat="41.8672210" lon="-8.8597860">
        <ele>4.0</ele>
        <time>2021-05-18T11:29:13Z</time>
      </trkpt>
      <trkpt lat="41.8672210" lon="-8.8597860">
        <ele>4.0</ele>
        <time>2021-05-18T11:29:14Z</time>
      </trkpt>
      <trkpt lat="41.8672210" lon="-8.8597870">
        <ele>4.0</ele>
        <time>2021-05-18T11:29:15Z</time>
      </trkpt>
      <trkpt lat="41.8672210" lon="-8.8597870">
        <ele>4.0</ele>
        <time>2021-05-18T11:29:16Z</time>
      </trkpt>
      <trkpt lat="41.8672210" lon="-8.8597870">
        <ele>4.0</ele>
        <time>2021-05-18T11:29:17Z</time>
      </trkpt>
      <trkpt lat="41.8672240" lon="-8.8597810">
        <ele>4.0</ele>
        <time>2021-05-18T11:29:18Z</time>
      </trkpt>
      <trkpt lat="41.8672340" lon="-8.8597780">
        <ele>4.0</ele>
        <time>2021-05-18T11:29:19Z</time>
      </trkpt>
      <trkpt lat="41.8672340" lon="-8.8597780">
        <ele>4.0</ele>
        <time>2021-05-18T11:29:20Z</time>
      </trkpt>
      <trkpt lat="41.8672340" lon="-8.8597780">
        <ele>4.0</ele>
        <time>2021-05-18T11:29:21Z</time>
      </trkpt>
      <trkpt lat="41.8672220" lon="-8.8597810">
        <ele>4.0</ele>
        <time>2021-05-18T11:29:22Z</time>
      </trkpt>
      <trkpt lat="41.8672160" lon="-8.8597770">
        <ele>4.0</ele>
        <time>2021-05-18T11:29:23Z</time>
      </trkpt>
      <trkpt lat="41.8672170" lon="-8.8597760">
        <ele>4.0</ele>
        <time>2021-05-18T11:29:24Z</time>
      </trkpt>
      <trkpt lat="41.8672130" lon="-8.8597710">
        <ele>4.0</ele>
        <time>2021-05-18T11:29:25Z</time>
      </trkpt>
      <trkpt lat="41.8672130" lon="-8.8597710">
        <ele>4.0</ele>
        <time>2021-05-18T11:29:26Z</time>
      </trkpt>
      <trkpt lat="41.8672130" lon="-8.8597710">
        <ele>4.0</ele>
        <time>2021-05-18T11:29:27Z</time>
      </trkpt>
      <trkpt lat="41.8672130" lon="-8.8597710">
        <ele>4.0</ele>
        <time>2021-05-18T11:29:28Z</time>
      </trkpt>
      <trkpt lat="41.8672130" lon="-8.8597710">
        <ele>4.0</ele>
        <time>2021-05-18T11:29:29Z</time>
      </trkpt>
      <trkpt lat="41.8672130" lon="-8.8597710">
        <ele>4.0</ele>
        <time>2021-05-18T11:29:30Z</time>
      </trkpt>
      <trkpt lat="41.8672130" lon="-8.8597710">
        <ele>4.0</ele>
        <time>2021-05-18T11:29:31Z</time>
      </trkpt>
      <trkpt lat="41.8672130" lon="-8.8597710">
        <ele>4.0</ele>
        <time>2021-05-18T11:29:32Z</time>
      </trkpt>
      <trkpt lat="41.8672130" lon="-8.8597710">
        <ele>4.0</ele>
        <time>2021-05-18T11:29:33Z</time>
      </trkpt>
      <trkpt lat="41.8672130" lon="-8.8597710">
        <ele>4.0</ele>
        <time>2021-05-18T11:29:34Z</time>
      </trkpt>
      <trkpt lat="41.8671970" lon="-8.8597700">
        <ele>4.0</ele>
        <time>2021-05-18T11:29:35Z</time>
      </trkpt>
      <trkpt lat="41.8671970" lon="-8.8597700">
        <ele>4.0</ele>
        <time>2021-05-18T11:29:36Z</time>
      </trkpt>
      <trkpt lat="41.8671970" lon="-8.8597700">
        <ele>4.0</ele>
        <time>2021-05-18T11:29:37Z</time>
      </trkpt>
      <trkpt lat="41.8672030" lon="-8.8597830">
        <ele>4.0</ele>
        <time>2021-05-18T11:29:38Z</time>
      </trkpt>
      <trkpt lat="41.8672040" lon="-8.8597840">
        <ele>4.0</ele>
        <time>2021-05-18T11:29:39Z</time>
      </trkpt>
      <trkpt lat="41.8672040" lon="-8.8597840">
        <ele>4.0</ele>
        <time>2021-05-18T11:29:40Z</time>
      </trkpt>
      <trkpt lat="41.8672040" lon="-8.8597840">
        <ele>4.0</ele>
        <time>2021-05-18T11:29:41Z</time>
      </trkpt>
      <trkpt lat="41.8672040" lon="-8.8597840">
        <ele>4.0</ele>
        <time>2021-05-18T11:29:42Z</time>
      </trkpt>
      <trkpt lat="41.8672040" lon="-8.8597840">
        <ele>4.0</ele>
        <time>2021-05-18T11:29:43Z</time>
      </trkpt>
      <trkpt lat="41.8672040" lon="-8.8597840">
        <ele>4.0</ele>
        <time>2021-05-18T11:29:44Z</time>
      </trkpt>
      <trkpt lat="41.8672040" lon="-8.8597840">
        <ele>4.0</ele>
        <time>2021-05-18T11:29:45Z</time>
      </trkpt>
      <trkpt lat="41.8672000" lon="-8.8597810">
        <ele>4.0</ele>
        <time>2021-05-18T11:29:46Z</time>
      </trkpt>
      <trkpt lat="41.8672000" lon="-8.8597810">
        <ele>4.0</ele>
        <time>2021-05-18T11:29:47Z</time>
      </trkpt>
      <trkpt lat="41.8672000" lon="-8.8597810">
        <ele>4.0</ele>
        <time>2021-05-18T11:29:48Z</time>
      </trkpt>
      <trkpt lat="41.8672000" lon="-8.8597810">
        <ele>4.0</ele>
        <time>2021-05-18T11:29:49Z</time>
      </trkpt>
      <trkpt lat="41.8671980" lon="-8.8597840">
        <ele>4.0</ele>
        <time>2021-05-18T11:29:50Z</time>
      </trkpt>
      <trkpt lat="41.8671980" lon="-8.8597840">
        <ele>4.0</ele>
        <time>2021-05-18T11:29:51Z</time>
      </trkpt>
      <trkpt lat="41.8672040" lon="-8.8597800">
        <ele>4.0</ele>
        <time>2021-05-18T11:29:52Z</time>
      </trkpt>
      <trkpt lat="41.8672040" lon="-8.8597790">
        <ele>4.0</ele>
        <time>2021-05-18T11:29:53Z</time>
      </trkpt>
      <trkpt lat="41.8672080" lon="-8.8597800">
        <ele>4.0</ele>
        <time>2021-05-18T11:29:54Z</time>
      </trkpt>
      <trkpt lat="41.8672110" lon="-8.8597880">
        <ele>4.0</ele>
        <time>2021-05-18T11:29:55Z</time>
      </trkpt>
      <trkpt lat="41.8671990" lon="-8.8597870">
        <ele>4.0</ele>
        <time>2021-05-18T11:29:56Z</time>
      </trkpt>
      <trkpt lat="41.8671970" lon="-8.8597840">
        <ele>4.0</ele>
        <time>2021-05-18T11:29:57Z</time>
      </trkpt>
      <trkpt lat="41.8672010" lon="-8.8597830">
        <ele>4.0</ele>
        <time>2021-05-18T11:29:58Z</time>
      </trkpt>
      <trkpt lat="41.8672050" lon="-8.8597840">
        <ele>4.0</ele>
        <time>2021-05-18T11:29:59Z</time>
      </trkpt>
      <trkpt lat="41.8672070" lon="-8.8597840">
        <ele>4.0</ele>
        <time>2021-05-18T11:30:00Z</time>
      </trkpt>
      <trkpt lat="41.8672060" lon="-8.8597870">
        <ele>4.0</ele>
        <time>2021-05-18T11:30:01Z</time>
      </trkpt>
      <trkpt lat="41.8672070" lon="-8.8597850">
        <ele>4.0</ele>
        <time>2021-05-18T11:30:02Z</time>
      </trkpt>
      <trkpt lat="41.8672060" lon="-8.8597830">
        <ele>4.0</ele>
        <time>2021-05-18T11:30:03Z</time>
      </trkpt>
      <trkpt lat="41.8672080" lon="-8.8597830">
        <ele>4.0</ele>
        <time>2021-05-18T11:30:04Z</time>
      </trkpt>
      <trkpt lat="41.8672050" lon="-8.8597830">
        <ele>4.0</ele>
        <time>2021-05-18T11:30:05Z</time>
      </trkpt>
      <trkpt lat="41.8672000" lon="-8.8597820">
        <ele>4.0</ele>
        <time>2021-05-18T11:30:06Z</time>
      </trkpt>
      <trkpt lat="41.8672020" lon="-8.8597820">
        <ele>4.0</ele>
        <time>2021-05-18T11:30:07Z</time>
      </trkpt>
      <trkpt lat="41.8672030" lon="-8.8597820">
        <ele>4.0</ele>
        <time>2021-05-18T11:30:08Z</time>
      </trkpt>
      <trkpt lat="41.8672050" lon="-8.8597830">
        <ele>4.0</ele>
        <time>2021-05-18T11:30:09Z</time>
      </trkpt>
      <trkpt lat="41.8671990" lon="-8.8597850">
        <ele>4.0</ele>
        <time>2021-05-18T11:30:10Z</time>
      </trkpt>
      <trkpt lat="41.8671950" lon="-8.8597860">
        <ele>4.0</ele>
        <time>2021-05-18T11:30:11Z</time>
      </trkpt>
      <trkpt lat="41.8671960" lon="-8.8597860">
        <ele>4.0</ele>
        <time>2021-05-18T11:30:12Z</time>
      </trkpt>
      <trkpt lat="41.8671940" lon="-8.8597780">
        <ele>4.0</ele>
        <time>2021-05-18T11:30:13Z</time>
      </trkpt>
      <trkpt lat="41.8672010" lon="-8.8597760">
        <ele>4.0</ele>
        <time>2021-05-18T11:30:14Z</time>
      </trkpt>
      <trkpt lat="41.8672040" lon="-8.8597780">
        <ele>4.0</ele>
        <time>2021-05-18T11:30:15Z</time>
      </trkpt>
      <trkpt lat="41.8672010" lon="-8.8597810">
        <ele>4.0</ele>
        <time>2021-05-18T11:30:16Z</time>
      </trkpt>
      <trkpt lat="41.8672000" lon="-8.8597820">
        <ele>4.0</ele>
        <time>2021-05-18T11:30:17Z</time>
      </trkpt>
      <trkpt lat="41.8672030" lon="-8.8597860">
        <ele>4.0</ele>
        <time>2021-05-18T11:30:18Z</time>
      </trkpt>
      <trkpt lat="41.8671970" lon="-8.8597890">
        <ele>4.0</ele>
        <time>2021-05-18T11:30:19Z</time>
      </trkpt>
      <trkpt lat="41.8671970" lon="-8.8597900">
        <ele>4.0</ele>
        <time>2021-05-18T11:30:20Z</time>
      </trkpt>
      <trkpt lat="41.8671900" lon="-8.8597920">
        <ele>4.0</ele>
        <time>2021-05-18T11:30:22Z</time>
      </trkpt>
      <trkpt lat="41.8671840" lon="-8.8598020">
        <ele>4.0</ele>
        <time>2021-05-18T11:30:23Z</time>
      </trkpt>
      <trkpt lat="41.8671840" lon="-8.8598040">
        <ele>4.0</ele>
        <time>2021-05-18T11:30:24Z</time>
      </trkpt>
      <trkpt lat="41.8671820" lon="-8.8598060">
        <ele>4.0</ele>
        <time>2021-05-18T11:30:25Z</time>
      </trkpt>
      <trkpt lat="41.8671800" lon="-8.8598090">
        <ele>4.0</ele>
        <time>2021-05-18T11:30:26Z</time>
      </trkpt>
      <trkpt lat="41.8671900" lon="-8.8598030">
        <ele>4.0</ele>
        <time>2021-05-18T11:30:27Z</time>
      </trkpt>
      <trkpt lat="41.8671920" lon="-8.8597970">
        <ele>4.0</ele>
        <time>2021-05-18T11:30:28Z</time>
      </trkpt>
      <trkpt lat="41.8671990" lon="-8.8597970">
        <ele>4.0</ele>
        <time>2021-05-18T11:30:29Z</time>
      </trkpt>
      <trkpt lat="41.8671990" lon="-8.8597950">
        <ele>4.0</ele>
        <time>2021-05-18T11:30:30Z</time>
      </trkpt>
      <trkpt lat="41.8671960" lon="-8.8597950">
        <ele>4.0</ele>
        <time>2021-05-18T11:30:31Z</time>
      </trkpt>
      <trkpt lat="41.8671990" lon="-8.8597970">
        <ele>4.0</ele>
        <time>2021-05-18T11:30:32Z</time>
      </trkpt>
      <trkpt lat="41.8671980" lon="-8.8597970">
        <ele>4.0</ele>
        <time>2021-05-18T11:30:33Z</time>
      </trkpt>
      <trkpt lat="41.8672000" lon="-8.8597940">
        <ele>4.0</ele>
        <time>2021-05-18T11:30:34Z</time>
      </trkpt>
      <trkpt lat="41.8672090" lon="-8.8597920">
        <ele>4.0</ele>
        <time>2021-05-18T11:30:35Z</time>
      </trkpt>
      <trkpt lat="41.8672090" lon="-8.8597920">
        <ele>4.0</ele>
        <time>2021-05-18T11:30:36Z</time>
      </trkpt>
      <trkpt lat="41.8672170" lon="-8.8597910">
        <ele>4.0</ele>
        <time>2021-05-18T11:30:37Z</time>
      </trkpt>
      <trkpt lat="41.8672260" lon="-8.8597880">
        <ele>4.0</ele>
        <time>2021-05-18T11:30:38Z</time>
      </trkpt>
      <trkpt lat="41.8672230" lon="-8.8597850">
        <ele>4.0</ele>
        <time>2021-05-18T11:30:39Z</time>
      </trkpt>
      <trkpt lat="41.8672220" lon="-8.8597850">
        <ele>4.0</ele>
        <time>2021-05-18T11:30:40Z</time>
      </trkpt>
      <trkpt lat="41.8672210" lon="-8.8597850">
        <ele>4.0</ele>
        <time>2021-05-18T11:30:41Z</time>
      </trkpt>
      <trkpt lat="41.8672190" lon="-8.8597840">
        <ele>4.0</ele>
        <time>2021-05-18T11:30:42Z</time>
      </trkpt>
      <trkpt lat="41.8672180" lon="-8.8597840">
        <ele>4.0</ele>
        <time>2021-05-18T11:30:43Z</time>
      </trkpt>
      <trkpt lat="41.8672160" lon="-8.8597850">
        <ele>4.0</ele>
        <time>2021-05-18T11:30:44Z</time>
      </trkpt>
      <trkpt lat="41.8672150" lon="-8.8597860">
        <ele>4.0</ele>
        <time>2021-05-18T11:30:45Z</time>
      </trkpt>
      <trkpt lat="41.8672110" lon="-8.8597860">
        <ele>4.0</ele>
        <time>2021-05-18T11:30:46Z</time>
      </trkpt>
      <trkpt lat="41.8672070" lon="-8.8597900">
        <ele>4.0</ele>
        <time>2021-05-18T11:30:47Z</time>
      </trkpt>
      <trkpt lat="41.8672080" lon="-8.8597900">
        <ele>4.0</ele>
        <time>2021-05-18T11:30:48Z</time>
      </trkpt>
      <trkpt lat="41.8672090" lon="-8.8597850">
        <ele>4.0</ele>
        <time>2021-05-18T11:30:49Z</time>
      </trkpt>
      <trkpt lat="41.8672100" lon="-8.8597870">
        <ele>4.0</ele>
        <time>2021-05-18T11:30:50Z</time>
      </trkpt>
      <trkpt lat="41.8672120" lon="-8.8597870">
        <ele>4.0</ele>
        <time>2021-05-18T11:30:51Z</time>
      </trkpt>
      <trkpt lat="41.8672110" lon="-8.8597920">
        <ele>4.0</ele>
        <time>2021-05-18T11:30:52Z</time>
      </trkpt>
      <trkpt lat="41.8672110" lon="-8.8597920">
        <ele>4.0</ele>
        <time>2021-05-18T11:30:53Z</time>
      </trkpt>
      <trkpt lat="41.8672140" lon="-8.8597950">
        <ele>4.0</ele>
        <time>2021-05-18T11:30:54Z</time>
      </trkpt>
      <trkpt lat="41.8672180" lon="-8.8597930">
        <ele>4.0</ele>
        <time>2021-05-18T11:30:55Z</time>
      </trkpt>
      <trkpt lat="41.8672140" lon="-8.8597920">
        <ele>4.0</ele>
        <time>2021-05-18T11:30:56Z</time>
      </trkpt>
      <trkpt lat="41.8672160" lon="-8.8597880">
        <ele>4.0</ele>
        <time>2021-05-18T11:30:57Z</time>
      </trkpt>
      <trkpt lat="41.8672150" lon="-8.8597850">
        <ele>4.0</ele>
        <time>2021-05-18T11:30:58Z</time>
      </trkpt>
      <trkpt lat="41.8672230" lon="-8.8597870">
        <ele>3.9</ele>
        <time>2021-05-18T11:30:59Z</time>
      </trkpt>
      <trkpt lat="41.8672220" lon="-8.8597920">
        <ele>3.9</ele>
        <time>2021-05-18T11:31:00Z</time>
      </trkpt>
      <trkpt lat="41.8672220" lon="-8.8597930">
        <ele>3.9</ele>
        <time>2021-05-18T11:31:01Z</time>
      </trkpt>
      <trkpt lat="41.8672230" lon="-8.8597910">
        <ele>3.9</ele>
        <time>2021-05-18T11:31:02Z</time>
      </trkpt>
      <trkpt lat="41.8672230" lon="-8.8597890">
        <ele>3.9</ele>
        <time>2021-05-18T11:31:03Z</time>
      </trkpt>
      <trkpt lat="41.8672200" lon="-8.8597890">
        <ele>3.9</ele>
        <time>2021-05-18T11:31:04Z</time>
      </trkpt>
      <trkpt lat="41.8672220" lon="-8.8597870">
        <ele>3.9</ele>
        <time>2021-05-18T11:31:05Z</time>
      </trkpt>
      <trkpt lat="41.8672220" lon="-8.8597880">
        <ele>3.9</ele>
        <time>2021-05-18T11:31:06Z</time>
      </trkpt>
      <trkpt lat="41.8672230" lon="-8.8597900">
        <ele>3.9</ele>
        <time>2021-05-18T11:31:07Z</time>
      </trkpt>
      <trkpt lat="41.8672220" lon="-8.8597930">
        <ele>3.9</ele>
        <time>2021-05-18T11:31:08Z</time>
      </trkpt>
      <trkpt lat="41.8672210" lon="-8.8597910">
        <ele>3.9</ele>
        <time>2021-05-18T11:31:09Z</time>
      </trkpt>
      <trkpt lat="41.8672190" lon="-8.8597910">
        <ele>3.9</ele>
        <time>2021-05-18T11:31:10Z</time>
      </trkpt>
      <trkpt lat="41.8672190" lon="-8.8597910">
        <ele>3.9</ele>
        <time>2021-05-18T11:31:11Z</time>
      </trkpt>
      <trkpt lat="41.8672150" lon="-8.8597910">
        <ele>3.9</ele>
        <time>2021-05-18T11:31:12Z</time>
      </trkpt>
      <trkpt lat="41.8672110" lon="-8.8597930">
        <ele>3.9</ele>
        <time>2021-05-18T11:31:13Z</time>
      </trkpt>
      <trkpt lat="41.8672080" lon="-8.8597950">
        <ele>3.9</ele>
        <time>2021-05-18T11:31:14Z</time>
      </trkpt>
      <trkpt lat="41.8672050" lon="-8.8597970">
        <ele>3.9</ele>
        <time>2021-05-18T11:31:15Z</time>
      </trkpt>
      <trkpt lat="41.8672030" lon="-8.8597960">
        <ele>3.9</ele>
        <time>2021-05-18T11:31:16Z</time>
      </trkpt>
      <trkpt lat="41.8671980" lon="-8.8597960">
        <ele>3.9</ele>
        <time>2021-05-18T11:31:17Z</time>
      </trkpt>
      <trkpt lat="41.8671920" lon="-8.8597960">
        <ele>3.9</ele>
        <time>2021-05-18T11:31:18Z</time>
      </trkpt>
      <trkpt lat="41.8671910" lon="-8.8597940">
        <ele>3.9</ele>
        <time>2021-05-18T11:31:19Z</time>
      </trkpt>
      <trkpt lat="41.8671960" lon="-8.8597970">
        <ele>3.9</ele>
        <time>2021-05-18T11:31:20Z</time>
      </trkpt>
      <trkpt lat="41.8671980" lon="-8.8598000">
        <ele>3.9</ele>
        <time>2021-05-18T11:31:21Z</time>
      </trkpt>
      <trkpt lat="41.8672000" lon="-8.8598010">
        <ele>3.9</ele>
        <time>2021-05-18T11:31:22Z</time>
      </trkpt>
      <trkpt lat="41.8672000" lon="-8.8598010">
        <ele>3.9</ele>
        <time>2021-05-18T11:31:23Z</time>
      </trkpt>
      <trkpt lat="41.8672040" lon="-8.8598030">
        <ele>3.9</ele>
        <time>2021-05-18T11:31:24Z</time>
      </trkpt>
      <trkpt lat="41.8672090" lon="-8.8598010">
        <ele>3.9</ele>
        <time>2021-05-18T11:31:25Z</time>
      </trkpt>
      <trkpt lat="41.8672090" lon="-8.8598010">
        <ele>3.9</ele>
        <time>2021-05-18T11:31:26Z</time>
      </trkpt>
      <trkpt lat="41.8672090" lon="-8.8598010">
        <ele>3.9</ele>
        <time>2021-05-18T11:31:27Z</time>
      </trkpt>
      <trkpt lat="41.8672160" lon="-8.8598040">
        <ele>3.9</ele>
        <time>2021-05-18T11:31:28Z</time>
      </trkpt>
      <trkpt lat="41.8672180" lon="-8.8598060">
        <ele>3.9</ele>
        <time>2021-05-18T11:31:29Z</time>
      </trkpt>
      <trkpt lat="41.8672210" lon="-8.8598080">
        <ele>3.9</ele>
        <time>2021-05-18T11:31:30Z</time>
      </trkpt>
      <trkpt lat="41.8672210" lon="-8.8598080">
        <ele>3.9</ele>
        <time>2021-05-18T11:31:31Z</time>
      </trkpt>
      <trkpt lat="41.8672240" lon="-8.8598090">
        <ele>3.9</ele>
        <time>2021-05-18T11:31:32Z</time>
      </trkpt>
      <trkpt lat="41.8672280" lon="-8.8598040">
        <ele>3.9</ele>
        <time>2021-05-18T11:31:33Z</time>
      </trkpt>
      <trkpt lat="41.8672280" lon="-8.8598040">
        <ele>3.9</ele>
        <time>2021-05-18T11:31:34Z</time>
      </trkpt>
      <trkpt lat="41.8672280" lon="-8.8598040">
        <ele>3.9</ele>
        <time>2021-05-18T11:31:35Z</time>
      </trkpt>
      <trkpt lat="41.8672420" lon="-8.8598050">
        <ele>3.9</ele>
        <time>2021-05-18T11:31:36Z</time>
      </trkpt>
      <trkpt lat="41.8672470" lon="-8.8598030">
        <ele>3.9</ele>
        <time>2021-05-18T11:31:37Z</time>
      </trkpt>
      <trkpt lat="41.8672490" lon="-8.8598020">
        <ele>3.9</ele>
        <time>2021-05-18T11:31:38Z</time>
      </trkpt>
      <trkpt lat="41.8672490" lon="-8.8598020">
        <ele>3.9</ele>
        <time>2021-05-18T11:31:39Z</time>
      </trkpt>
      <trkpt lat="41.8672520" lon="-8.8597990">
        <ele>3.9</ele>
        <time>2021-05-18T11:31:40Z</time>
      </trkpt>
      <trkpt lat="41.8672520" lon="-8.8597990">
        <ele>3.9</ele>
        <time>2021-05-18T11:31:41Z</time>
      </trkpt>
      <trkpt lat="41.8672520" lon="-8.8597990">
        <ele>3.9</ele>
        <time>2021-05-18T11:31:42Z</time>
      </trkpt>
      <trkpt lat="41.8672530" lon="-8.8597940">
        <ele>3.9</ele>
        <time>2021-05-18T11:31:43Z</time>
      </trkpt>
      <trkpt lat="41.8672530" lon="-8.8597900">
        <ele>3.9</ele>
        <time>2021-05-18T11:31:44Z</time>
      </trkpt>
      <trkpt lat="41.8672520" lon="-8.8597870">
        <ele>3.9</ele>
        <time>2021-05-18T11:31:45Z</time>
      </trkpt>
      <trkpt lat="41.8672450" lon="-8.8597890">
        <ele>3.9</ele>
        <time>2021-05-18T11:31:46Z</time>
      </trkpt>
      <trkpt lat="41.8672460" lon="-8.8597930">
        <ele>3.9</ele>
        <time>2021-05-18T11:31:47Z</time>
      </trkpt>
      <trkpt lat="41.8672490" lon="-8.8597900">
        <ele>3.9</ele>
        <time>2021-05-18T11:31:48Z</time>
      </trkpt>
      <trkpt lat="41.8672450" lon="-8.8597880">
        <ele>3.9</ele>
        <time>2021-05-18T11:31:49Z</time>
      </trkpt>
      <trkpt lat="41.8672400" lon="-8.8597850">
        <ele>3.9</ele>
        <time>2021-05-18T11:31:50Z</time>
      </trkpt>
      <trkpt lat="41.8672400" lon="-8.8597840">
        <ele>3.9</ele>
        <time>2021-05-18T11:31:51Z</time>
      </trkpt>
      <trkpt lat="41.8672440" lon="-8.8597850">
        <ele>3.9</ele>
        <time>2021-05-18T11:31:52Z</time>
      </trkpt>
      <trkpt lat="41.8672460" lon="-8.8597850">
        <ele>3.9</ele>
        <time>2021-05-18T11:31:53Z</time>
      </trkpt>
      <trkpt lat="41.8672470" lon="-8.8597870">
        <ele>3.9</ele>
        <time>2021-05-18T11:31:54Z</time>
      </trkpt>
      <trkpt lat="41.8672450" lon="-8.8597890">
        <ele>3.9</ele>
        <time>2021-05-18T11:31:55Z</time>
      </trkpt>
      <trkpt lat="41.8672470" lon="-8.8597890">
        <ele>3.9</ele>
        <time>2021-05-18T11:31:56Z</time>
      </trkpt>
      <trkpt lat="41.8672460" lon="-8.8597880">
        <ele>3.9</ele>
        <time>2021-05-18T11:31:57Z</time>
      </trkpt>
      <trkpt lat="41.8672440" lon="-8.8597870">
        <ele>3.9</ele>
        <time>2021-05-18T11:31:58Z</time>
      </trkpt>
      <trkpt lat="41.8672430" lon="-8.8597880">
        <ele>3.9</ele>
        <time>2021-05-18T11:31:59Z</time>
      </trkpt>
      <trkpt lat="41.8672460" lon="-8.8597910">
        <ele>3.9</ele>
        <time>2021-05-18T11:32:00Z</time>
      </trkpt>
      <trkpt lat="41.8672450" lon="-8.8597910">
        <ele>3.9</ele>
        <time>2021-05-18T11:32:01Z</time>
      </trkpt>
      <trkpt lat="41.8672440" lon="-8.8597890">
        <ele>3.9</ele>
        <time>2021-05-18T11:32:02Z</time>
      </trkpt>
      <trkpt lat="41.8672430" lon="-8.8597890">
        <ele>3.9</ele>
        <time>2021-05-18T11:32:03Z</time>
      </trkpt>
      <trkpt lat="41.8672420" lon="-8.8597890">
        <ele>3.9</ele>
        <time>2021-05-18T11:32:04Z</time>
      </trkpt>
      <trkpt lat="41.8672440" lon="-8.8597890">
        <ele>3.9</ele>
        <time>2021-05-18T11:32:05Z</time>
      </trkpt>
      <trkpt lat="41.8672450" lon="-8.8597880">
        <ele>3.9</ele>
        <time>2021-05-18T11:32:06Z</time>
      </trkpt>
      <trkpt lat="41.8672480" lon="-8.8597870">
        <ele>3.9</ele>
        <time>2021-05-18T11:32:07Z</time>
      </trkpt>
      <trkpt lat="41.8672430" lon="-8.8597890">
        <ele>3.9</ele>
        <time>2021-05-18T11:32:08Z</time>
      </trkpt>
      <trkpt lat="41.8672440" lon="-8.8597880">
        <ele>3.9</ele>
        <time>2021-05-18T11:32:09Z</time>
      </trkpt>
      <trkpt lat="41.8672460" lon="-8.8597860">
        <ele>3.9</ele>
        <time>2021-05-18T11:32:10Z</time>
      </trkpt>
      <trkpt lat="41.8672470" lon="-8.8597850">
        <ele>3.9</ele>
        <time>2021-05-18T11:32:11Z</time>
      </trkpt>
      <trkpt lat="41.8672420" lon="-8.8597860">
        <ele>3.9</ele>
        <time>2021-05-18T11:32:12Z</time>
      </trkpt>
      <trkpt lat="41.8672400" lon="-8.8597870">
        <ele>3.9</ele>
        <time>2021-05-18T11:32:13Z</time>
      </trkpt>
      <trkpt lat="41.8672400" lon="-8.8597880">
        <ele>3.9</ele>
        <time>2021-05-18T11:32:14Z</time>
      </trkpt>
      <trkpt lat="41.8672430" lon="-8.8597850">
        <ele>3.9</ele>
        <time>2021-05-18T11:32:15Z</time>
      </trkpt>
      <trkpt lat="41.8672560" lon="-8.8597840">
        <ele>3.9</ele>
        <time>2021-05-18T11:32:16Z</time>
      </trkpt>
      <trkpt lat="41.8672700" lon="-8.8597850">
        <ele>3.9</ele>
        <time>2021-05-18T11:32:17Z</time>
      </trkpt>
      <trkpt lat="41.8672620" lon="-8.8597870">
        <ele>3.9</ele>
        <time>2021-05-18T11:32:18Z</time>
      </trkpt>
      <trkpt lat="41.8672660" lon="-8.8597870">
        <ele>3.9</ele>
        <time>2021-05-18T11:32:19Z</time>
      </trkpt>
      <trkpt lat="41.8672690" lon="-8.8598100">
        <ele>3.9</ele>
        <time>2021-05-18T11:32:20Z</time>
      </trkpt>
      <trkpt lat="41.8672660" lon="-8.8598140">
        <ele>3.9</ele>
        <time>2021-05-18T11:32:21Z</time>
      </trkpt>
      <trkpt lat="41.8672630" lon="-8.8598250">
        <ele>3.9</ele>
        <time>2021-05-18T11:32:22Z</time>
      </trkpt>
      <trkpt lat="41.8672640" lon="-8.8598280">
        <ele>3.9</ele>
        <time>2021-05-18T11:32:23Z</time>
      </trkpt>
      <trkpt lat="41.8672590" lon="-8.8598370">
        <ele>3.9</ele>
        <time>2021-05-18T11:32:24Z</time>
      </trkpt>
      <trkpt lat="41.8672590" lon="-8.8598450">
        <ele>3.9</ele>
        <time>2021-05-18T11:32:25Z</time>
      </trkpt>
      <trkpt lat="41.8672590" lon="-8.8598500">
        <ele>3.9</ele>
        <time>2021-05-18T11:32:26Z</time>
      </trkpt>
      <trkpt lat="41.8672600" lon="-8.8598530">
        <ele>3.9</ele>
        <time>2021-05-18T11:32:27Z</time>
      </trkpt>
      <trkpt lat="41.8672630" lon="-8.8598630">
        <ele>3.9</ele>
        <time>2021-05-18T11:32:28Z</time>
      </trkpt>
      <trkpt lat="41.8672680" lon="-8.8598670">
        <ele>3.9</ele>
        <time>2021-05-18T11:32:29Z</time>
      </trkpt>
      <trkpt lat="41.8672670" lon="-8.8598710">
        <ele>3.9</ele>
        <time>2021-05-18T11:32:30Z</time>
      </trkpt>
      <trkpt lat="41.8672670" lon="-8.8598700">
        <ele>3.9</ele>
        <time>2021-05-18T11:32:31Z</time>
      </trkpt>
      <trkpt lat="41.8672690" lon="-8.8598790">
        <ele>3.9</ele>
        <time>2021-05-18T11:32:32Z</time>
      </trkpt>
      <trkpt lat="41.8672690" lon="-8.8598990">
        <ele>3.9</ele>
        <time>2021-05-18T11:32:33Z</time>
      </trkpt>
      <trkpt lat="41.8672690" lon="-8.8599100">
        <ele>3.9</ele>
        <time>2021-05-18T11:32:34Z</time>
      </trkpt>
      <trkpt lat="41.8672690" lon="-8.8599120">
        <ele>3.9</ele>
        <time>2021-05-18T11:32:35Z</time>
      </trkpt>
      <trkpt lat="41.8672710" lon="-8.8599130">
        <ele>3.9</ele>
        <time>2021-05-18T11:32:36Z</time>
      </trkpt>
      <trkpt lat="41.8672690" lon="-8.8599180">
        <ele>3.9</ele>
        <time>2021-05-18T11:32:37Z</time>
      </trkpt>
      <trkpt lat="41.8672660" lon="-8.8599200">
        <ele>3.9</ele>
        <time>2021-05-18T11:32:38Z</time>
      </trkpt>
      <trkpt lat="41.8672660" lon="-8.8599200">
        <ele>3.9</ele>
        <time>2021-05-18T11:32:39Z</time>
      </trkpt>
      <trkpt lat="41.8672550" lon="-8.8599250">
        <ele>3.9</ele>
        <time>2021-05-18T11:32:40Z</time>
      </trkpt>
      <trkpt lat="41.8672540" lon="-8.8599270">
        <ele>3.9</ele>
        <time>2021-05-18T11:32:41Z</time>
      </trkpt>
      <trkpt lat="41.8672540" lon="-8.8599280">
        <ele>3.9</ele>
        <time>2021-05-18T11:32:42Z</time>
      </trkpt>
      <trkpt lat="41.8672530" lon="-8.8599310">
        <ele>3.9</ele>
        <time>2021-05-18T11:32:43Z</time>
      </trkpt>
      <trkpt lat="41.8672530" lon="-8.8599320">
        <ele>3.9</ele>
        <time>2021-05-18T11:32:44Z</time>
      </trkpt>
      <trkpt lat="41.8672540" lon="-8.8599330">
        <ele>3.9</ele>
        <time>2021-05-18T11:32:45Z</time>
      </trkpt>
      <trkpt lat="41.8672540" lon="-8.8599330">
        <ele>3.9</ele>
        <time>2021-05-18T11:32:46Z</time>
      </trkpt>
      <trkpt lat="41.8672540" lon="-8.8599330">
        <ele>3.9</ele>
        <time>2021-05-18T11:32:47Z</time>
      </trkpt>
      <trkpt lat="41.8672540" lon="-8.8599330">
        <ele>3.9</ele>
        <time>2021-05-18T11:32:48Z</time>
      </trkpt>
      <trkpt lat="41.8672540" lon="-8.8599330">
        <ele>3.9</ele>
        <time>2021-05-18T11:32:49Z</time>
      </trkpt>
      <trkpt lat="41.8672540" lon="-8.8599330">
        <ele>3.9</ele>
        <time>2021-05-18T11:32:50Z</time>
      </trkpt>
      <trkpt lat="41.8672540" lon="-8.8599330">
        <ele>3.9</ele>
        <time>2021-05-18T11:32:51Z</time>
      </trkpt>
      <trkpt lat="41.8672540" lon="-8.8599330">
        <ele>3.9</ele>
        <time>2021-05-18T11:32:52Z</time>
      </trkpt>
      <trkpt lat="41.8672540" lon="-8.8599330">
        <ele>3.9</ele>
        <time>2021-05-18T11:32:53Z</time>
      </trkpt>
      <trkpt lat="41.8672540" lon="-8.8599330">
        <ele>3.9</ele>
        <time>2021-05-18T11:32:54Z</time>
      </trkpt>
      <trkpt lat="41.8672540" lon="-8.8599330">
        <ele>3.9</ele>
        <time>2021-05-18T11:32:55Z</time>
      </trkpt>
      <trkpt lat="41.8672540" lon="-8.8599330">
        <ele>3.9</ele>
        <time>2021-05-18T11:32:56Z</time>
      </trkpt>
      <trkpt lat="41.8672540" lon="-8.8599330">
        <ele>3.9</ele>
        <time>2021-05-18T11:32:57Z</time>
      </trkpt>
      <trkpt lat="41.8672540" lon="-8.8599330">
        <ele>3.9</ele>
        <time>2021-05-18T11:32:58Z</time>
      </trkpt>
      <trkpt lat="41.8672540" lon="-8.8599330">
        <ele>3.9</ele>
        <time>2021-05-18T11:32:59Z</time>
      </trkpt>
      <trkpt lat="41.8672540" lon="-8.8599330">
        <ele>3.9</ele>
        <time>2021-05-18T11:33:00Z</time>
      </trkpt>
      <trkpt lat="41.8672490" lon="-8.8599450">
        <ele>3.9</ele>
        <time>2021-05-18T11:33:01Z</time>
      </trkpt>
      <trkpt lat="41.8672490" lon="-8.8599460">
        <ele>3.9</ele>
        <time>2021-05-18T11:33:02Z</time>
      </trkpt>
      <trkpt lat="41.8672480" lon="-8.8599460">
        <ele>3.9</ele>
        <time>2021-05-18T11:33:03Z</time>
      </trkpt>
      <trkpt lat="41.8672480" lon="-8.8599460">
        <ele>3.9</ele>
        <time>2021-05-18T11:33:04Z</time>
      </trkpt>
      <trkpt lat="41.8672470" lon="-8.8599470">
        <ele>3.9</ele>
        <time>2021-05-18T11:33:05Z</time>
      </trkpt>
      <trkpt lat="41.8672430" lon="-8.8599430">
        <ele>3.9</ele>
        <time>2021-05-18T11:33:06Z</time>
      </trkpt>
      <trkpt lat="41.8672430" lon="-8.8599440">
        <ele>3.9</ele>
        <time>2021-05-18T11:33:07Z</time>
      </trkpt>
      <trkpt lat="41.8672480" lon="-8.8599450">
        <ele>3.9</ele>
        <time>2021-05-18T11:33:08Z</time>
      </trkpt>
      <trkpt lat="41.8672480" lon="-8.8599440">
        <ele>3.9</ele>
        <time>2021-05-18T11:33:09Z</time>
      </trkpt>
      <trkpt lat="41.8672480" lon="-8.8599430">
        <ele>3.9</ele>
        <time>2021-05-18T11:33:10Z</time>
      </trkpt>
      <trkpt lat="41.8672420" lon="-8.8599420">
        <ele>3.9</ele>
        <time>2021-05-18T11:33:11Z</time>
      </trkpt>
      <trkpt lat="41.8672430" lon="-8.8599430">
        <ele>3.9</ele>
        <time>2021-05-18T11:33:12Z</time>
      </trkpt>
      <trkpt lat="41.8672430" lon="-8.8599430">
        <ele>3.9</ele>
        <time>2021-05-18T11:33:13Z</time>
      </trkpt>
      <trkpt lat="41.8672440" lon="-8.8599400">
        <ele>3.9</ele>
        <time>2021-05-18T11:33:14Z</time>
      </trkpt>
      <trkpt lat="41.8672430" lon="-8.8599390">
        <ele>3.9</ele>
        <time>2021-05-18T11:33:15Z</time>
      </trkpt>
      <trkpt lat="41.8672440" lon="-8.8599370">
        <ele>3.9</ele>
        <time>2021-05-18T11:33:16Z</time>
      </trkpt>
      <trkpt lat="41.8672460" lon="-8.8599370">
        <ele>3.9</ele>
        <time>2021-05-18T11:33:17Z</time>
      </trkpt>
      <trkpt lat="41.8672460" lon="-8.8599370">
        <ele>3.9</ele>
        <time>2021-05-18T11:33:18Z</time>
      </trkpt>
      <trkpt lat="41.8672620" lon="-8.8599390">
        <ele>3.9</ele>
        <time>2021-05-18T11:33:19Z</time>
      </trkpt>
      <trkpt lat="41.8672620" lon="-8.8599400">
        <ele>3.9</ele>
        <time>2021-05-18T11:33:20Z</time>
      </trkpt>
      <trkpt lat="41.8672620" lon="-8.8599400">
        <ele>3.9</ele>
        <time>2021-05-18T11:33:21Z</time>
      </trkpt>
      <trkpt lat="41.8672640" lon="-8.8599390">
        <ele>3.9</ele>
        <time>2021-05-18T11:33:22Z</time>
      </trkpt>
      <trkpt lat="41.8672650" lon="-8.8599390">
        <ele>3.9</ele>
        <time>2021-05-18T11:33:23Z</time>
      </trkpt>
      <trkpt lat="41.8672660" lon="-8.8599380">
        <ele>3.9</ele>
        <time>2021-05-18T11:33:24Z</time>
      </trkpt>
      <trkpt lat="41.8672660" lon="-8.8599380">
        <ele>3.9</ele>
        <time>2021-05-18T11:33:25Z</time>
      </trkpt>
      <trkpt lat="41.8672650" lon="-8.8599410">
        <ele>3.9</ele>
        <time>2021-05-18T11:33:26Z</time>
      </trkpt>
      <trkpt lat="41.8672630" lon="-8.8599410">
        <ele>3.9</ele>
        <time>2021-05-18T11:33:27Z</time>
      </trkpt>
      <trkpt lat="41.8672600" lon="-8.8599410">
        <ele>3.9</ele>
        <time>2021-05-18T11:33:28Z</time>
      </trkpt>
      <trkpt lat="41.8672480" lon="-8.8599460">
        <ele>3.9</ele>
        <time>2021-05-18T11:33:29Z</time>
      </trkpt>
      <trkpt lat="41.8672480" lon="-8.8599460">
        <ele>3.9</ele>
        <time>2021-05-18T11:33:30Z</time>
      </trkpt>
      <trkpt lat="41.8672470" lon="-8.8599540">
        <ele>3.9</ele>
        <time>2021-05-18T11:33:31Z</time>
      </trkpt>
      <trkpt lat="41.8672470" lon="-8.8599570">
        <ele>3.9</ele>
        <time>2021-05-18T11:33:32Z</time>
      </trkpt>
      <trkpt lat="41.8672520" lon="-8.8599550">
        <ele>3.9</ele>
        <time>2021-05-18T11:33:33Z</time>
      </trkpt>
      <trkpt lat="41.8672520" lon="-8.8599530">
        <ele>3.9</ele>
        <time>2021-05-18T11:33:34Z</time>
      </trkpt>
      <trkpt lat="41.8672540" lon="-8.8599550">
        <ele>3.9</ele>
        <time>2021-05-18T11:33:35Z</time>
      </trkpt>
      <trkpt lat="41.8672530" lon="-8.8599520">
        <ele>3.9</ele>
        <time>2021-05-18T11:33:36Z</time>
      </trkpt>
      <trkpt lat="41.8672550" lon="-8.8599540">
        <ele>3.9</ele>
        <time>2021-05-18T11:33:37Z</time>
      </trkpt>
      <trkpt lat="41.8672530" lon="-8.8599560">
        <ele>3.9</ele>
        <time>2021-05-18T11:33:38Z</time>
      </trkpt>
      <trkpt lat="41.8672490" lon="-8.8599560">
        <ele>3.9</ele>
        <time>2021-05-18T11:33:39Z</time>
      </trkpt>
      <trkpt lat="41.8672480" lon="-8.8599470">
        <ele>3.9</ele>
        <time>2021-05-18T11:33:40Z</time>
      </trkpt>
      <trkpt lat="41.8672520" lon="-8.8599400">
        <ele>3.9</ele>
        <time>2021-05-18T11:33:41Z</time>
      </trkpt>
      <trkpt lat="41.8672550" lon="-8.8599360">
        <ele>3.9</ele>
        <time>2021-05-18T11:33:42Z</time>
      </trkpt>
      <trkpt lat="41.8672480" lon="-8.8599330">
        <ele>3.9</ele>
        <time>2021-05-18T11:33:43Z</time>
      </trkpt>
      <trkpt lat="41.8672460" lon="-8.8599310">
        <ele>3.9</ele>
        <time>2021-05-18T11:33:44Z</time>
      </trkpt>
      <trkpt lat="41.8672510" lon="-8.8599290">
        <ele>3.9</ele>
        <time>2021-05-18T11:33:45Z</time>
      </trkpt>
      <trkpt lat="41.8672530" lon="-8.8599200">
        <ele>3.9</ele>
        <time>2021-05-18T11:33:46Z</time>
      </trkpt>
      <trkpt lat="41.8672530" lon="-8.8599080">
        <ele>3.9</ele>
        <time>2021-05-18T11:33:47Z</time>
      </trkpt>
      <trkpt lat="41.8672560" lon="-8.8599020">
        <ele>3.9</ele>
        <time>2021-05-18T11:33:48Z</time>
      </trkpt>
      <trkpt lat="41.8672560" lon="-8.8598990">
        <ele>3.9</ele>
        <time>2021-05-18T11:33:49Z</time>
      </trkpt>
      <trkpt lat="41.8672600" lon="-8.8598960">
        <ele>3.9</ele>
        <time>2021-05-18T11:33:50Z</time>
      </trkpt>
      <trkpt lat="41.8672590" lon="-8.8598940">
        <ele>3.9</ele>
        <time>2021-05-18T11:33:51Z</time>
      </trkpt>
      <trkpt lat="41.8672610" lon="-8.8598980">
        <ele>3.9</ele>
        <time>2021-05-18T11:33:52Z</time>
      </trkpt>
      <trkpt lat="41.8672610" lon="-8.8599000">
        <ele>3.9</ele>
        <time>2021-05-18T11:33:53Z</time>
      </trkpt>
      <trkpt lat="41.8672600" lon="-8.8599050">
        <ele>3.9</ele>
        <time>2021-05-18T11:33:54Z</time>
      </trkpt>
      <trkpt lat="41.8672560" lon="-8.8599000">
        <ele>3.9</ele>
        <time>2021-05-18T11:33:55Z</time>
      </trkpt>
      <trkpt lat="41.8672560" lon="-8.8598970">
        <ele>3.9</ele>
        <time>2021-05-18T11:33:56Z</time>
      </trkpt>
      <trkpt lat="41.8672540" lon="-8.8598950">
        <ele>3.9</ele>
        <time>2021-05-18T11:33:57Z</time>
      </trkpt>
      <trkpt lat="41.8672560" lon="-8.8598930">
        <ele>3.9</ele>
        <time>2021-05-18T11:33:58Z</time>
      </trkpt>
      <trkpt lat="41.8672570" lon="-8.8598920">
        <ele>3.9</ele>
        <time>2021-05-18T11:33:59Z</time>
      </trkpt>
      <trkpt lat="41.8672560" lon="-8.8598930">
        <ele>3.9</ele>
        <time>2021-05-18T11:34:00Z</time>
      </trkpt>
      <trkpt lat="41.8672550" lon="-8.8598940">
        <ele>3.9</ele>
        <time>2021-05-18T11:34:01Z</time>
      </trkpt>
      <trkpt lat="41.8672540" lon="-8.8598940">
        <ele>3.9</ele>
        <time>2021-05-18T11:34:02Z</time>
      </trkpt>
      <trkpt lat="41.8672540" lon="-8.8598970">
        <ele>3.9</ele>
        <time>2021-05-18T11:34:03Z</time>
      </trkpt>
      <trkpt lat="41.8672560" lon="-8.8598980">
        <ele>3.9</ele>
        <time>2021-05-18T11:34:04Z</time>
      </trkpt>
      <trkpt lat="41.8672550" lon="-8.8598990">
        <ele>3.9</ele>
        <time>2021-05-18T11:34:05Z</time>
      </trkpt>
      <trkpt lat="41.8672530" lon="-8.8599100">
        <ele>3.9</ele>
        <time>2021-05-18T11:34:06Z</time>
      </trkpt>
      <trkpt lat="41.8672530" lon="-8.8599100">
        <ele>3.9</ele>
        <time>2021-05-18T11:34:07Z</time>
      </trkpt>
      <trkpt lat="41.8672510" lon="-8.8599080">
        <ele>3.9</ele>
        <time>2021-05-18T11:34:08Z</time>
      </trkpt>
      <trkpt lat="41.8672520" lon="-8.8599090">
        <ele>3.9</ele>
        <time>2021-05-18T11:34:09Z</time>
      </trkpt>
      <trkpt lat="41.8672530" lon="-8.8599060">
        <ele>3.9</ele>
        <time>2021-05-18T11:34:10Z</time>
      </trkpt>
      <trkpt lat="41.8672480" lon="-8.8599080">
        <ele>3.9</ele>
        <time>2021-05-18T11:34:11Z</time>
      </trkpt>
      <trkpt lat="41.8672490" lon="-8.8599080">
        <ele>3.9</ele>
        <time>2021-05-18T11:34:12Z</time>
      </trkpt>
      <trkpt lat="41.8672470" lon="-8.8599070">
        <ele>3.9</ele>
        <time>2021-05-18T11:34:13Z</time>
      </trkpt>
      <trkpt lat="41.8672390" lon="-8.8599100">
        <ele>3.9</ele>
        <time>2021-05-18T11:34:14Z</time>
      </trkpt>
      <trkpt lat="41.8672340" lon="-8.8599090">
        <ele>3.9</ele>
        <time>2021-05-18T11:34:15Z</time>
      </trkpt>
      <trkpt lat="41.8672320" lon="-8.8599110">
        <ele>3.9</ele>
        <time>2021-05-18T11:34:16Z</time>
      </trkpt>
      <trkpt lat="41.8672320" lon="-8.8599110">
        <ele>3.9</ele>
        <time>2021-05-18T11:34:17Z</time>
      </trkpt>
      <trkpt lat="41.8672330" lon="-8.8599120">
        <ele>3.9</ele>
        <time>2021-05-18T11:34:18Z</time>
      </trkpt>
      <trkpt lat="41.8672340" lon="-8.8599140">
        <ele>3.9</ele>
        <time>2021-05-18T11:34:19Z</time>
      </trkpt>
      <trkpt lat="41.8672360" lon="-8.8599140">
        <ele>3.9</ele>
        <time>2021-05-18T11:34:20Z</time>
      </trkpt>
      <trkpt lat="41.8672440" lon="-8.8599070">
        <ele>3.9</ele>
        <time>2021-05-18T11:34:21Z</time>
      </trkpt>
      <trkpt lat="41.8672490" lon="-8.8599020">
        <ele>3.9</ele>
        <time>2021-05-18T11:34:22Z</time>
      </trkpt>
      <trkpt lat="41.8672530" lon="-8.8599020">
        <ele>3.9</ele>
        <time>2021-05-18T11:34:23Z</time>
      </trkpt>
      <trkpt lat="41.8672550" lon="-8.8599040">
        <ele>3.9</ele>
        <time>2021-05-18T11:34:24Z</time>
      </trkpt>
      <trkpt lat="41.8672570" lon="-8.8599000">
        <ele>3.9</ele>
        <time>2021-05-18T11:34:25Z</time>
      </trkpt>
      <trkpt lat="41.8672600" lon="-8.8598960">
        <ele>3.9</ele>
        <time>2021-05-18T11:34:26Z</time>
      </trkpt>
      <trkpt lat="41.8672620" lon="-8.8598900">
        <ele>3.9</ele>
        <time>2021-05-18T11:34:27Z</time>
      </trkpt>
      <trkpt lat="41.8672640" lon="-8.8598840">
        <ele>3.9</ele>
        <time>2021-05-18T11:34:28Z</time>
      </trkpt>
      <trkpt lat="41.8672650" lon="-8.8598850">
        <ele>3.9</ele>
        <time>2021-05-18T11:34:29Z</time>
      </trkpt>
      <trkpt lat="41.8672620" lon="-8.8598910">
        <ele>3.9</ele>
        <time>2021-05-18T11:34:30Z</time>
      </trkpt>
      <trkpt lat="41.8672610" lon="-8.8598870">
        <ele>3.9</ele>
        <time>2021-05-18T11:34:31Z</time>
      </trkpt>
      <trkpt lat="41.8672600" lon="-8.8598810">
        <ele>3.9</ele>
        <time>2021-05-18T11:34:32Z</time>
      </trkpt>
      <trkpt lat="41.8672620" lon="-8.8598780">
        <ele>3.9</ele>
        <time>2021-05-18T11:34:33Z</time>
      </trkpt>
      <trkpt lat="41.8672610" lon="-8.8598750">
        <ele>3.9</ele>
        <time>2021-05-18T11:34:34Z</time>
      </trkpt>
      <trkpt lat="41.8672610" lon="-8.8598750">
        <ele>3.9</ele>
        <time>2021-05-18T11:34:35Z</time>
      </trkpt>
      <trkpt lat="41.8672610" lon="-8.8598710">
        <ele>3.9</ele>
        <time>2021-05-18T11:34:36Z</time>
      </trkpt>
      <trkpt lat="41.8672610" lon="-8.8598700">
        <ele>3.9</ele>
        <time>2021-05-18T11:34:37Z</time>
      </trkpt>
      <trkpt lat="41.8672600" lon="-8.8598680">
        <ele>3.9</ele>
        <time>2021-05-18T11:34:38Z</time>
      </trkpt>
      <trkpt lat="41.8672570" lon="-8.8598720">
        <ele>3.9</ele>
        <time>2021-05-18T11:34:39Z</time>
      </trkpt>
      <trkpt lat="41.8672550" lon="-8.8598680">
        <ele>3.9</ele>
        <time>2021-05-18T11:34:40Z</time>
      </trkpt>
      <trkpt lat="41.8672570" lon="-8.8598700">
        <ele>3.9</ele>
        <time>2021-05-18T11:34:41Z</time>
      </trkpt>
      <trkpt lat="41.8672580" lon="-8.8598690">
        <ele>3.9</ele>
        <time>2021-05-18T11:34:42Z</time>
      </trkpt>
      <trkpt lat="41.8672600" lon="-8.8598670">
        <ele>3.9</ele>
        <time>2021-05-18T11:34:43Z</time>
      </trkpt>
      <trkpt lat="41.8672600" lon="-8.8598670">
        <ele>3.9</ele>
        <time>2021-05-18T11:34:44Z</time>
      </trkpt>
      <trkpt lat="41.8672600" lon="-8.8598640">
        <ele>3.9</ele>
        <time>2021-05-18T11:34:45Z</time>
      </trkpt>
      <trkpt lat="41.8672600" lon="-8.8598630">
        <ele>3.9</ele>
        <time>2021-05-18T11:34:46Z</time>
      </trkpt>
      <trkpt lat="41.8672610" lon="-8.8598630">
        <ele>3.9</ele>
        <time>2021-05-18T11:34:47Z</time>
      </trkpt>
      <trkpt lat="41.8672620" lon="-8.8598630">
        <ele>3.9</ele>
        <time>2021-05-18T11:34:48Z</time>
      </trkpt>
      <trkpt lat="41.8672610" lon="-8.8598620">
        <ele>3.9</ele>
        <time>2021-05-18T11:34:49Z</time>
      </trkpt>
      <trkpt lat="41.8672610" lon="-8.8598640">
        <ele>3.9</ele>
        <time>2021-05-18T11:34:50Z</time>
      </trkpt>
      <trkpt lat="41.8672620" lon="-8.8598640">
        <ele>3.9</ele>
        <time>2021-05-18T11:34:51Z</time>
      </trkpt>
      <trkpt lat="41.8672620" lon="-8.8598650">
        <ele>3.9</ele>
        <time>2021-05-18T11:34:52Z</time>
      </trkpt>
      <trkpt lat="41.8672650" lon="-8.8598680">
        <ele>3.9</ele>
        <time>2021-05-18T11:34:53Z</time>
      </trkpt>
      <trkpt lat="41.8672690" lon="-8.8598680">
        <ele>3.9</ele>
        <time>2021-05-18T11:34:54Z</time>
      </trkpt>
      <trkpt lat="41.8672650" lon="-8.8598650">
        <ele>3.9</ele>
        <time>2021-05-18T11:34:55Z</time>
      </trkpt>
      <trkpt lat="41.8672670" lon="-8.8598610">
        <ele>3.9</ele>
        <time>2021-05-18T11:34:57Z</time>
      </trkpt>
      <trkpt lat="41.8672660" lon="-8.8598580">
        <ele>3.9</ele>
        <time>2021-05-18T11:34:58Z</time>
      </trkpt>
      <trkpt lat="41.8672760" lon="-8.8598440">
        <ele>3.9</ele>
        <time>2021-05-18T11:34:59Z</time>
      </trkpt>
      <trkpt lat="41.8672820" lon="-8.8598260">
        <ele>3.9</ele>
        <time>2021-05-18T11:35:00Z</time>
      </trkpt>
      <trkpt lat="41.8672790" lon="-8.8598150">
        <ele>3.9</ele>
        <time>2021-05-18T11:35:01Z</time>
      </trkpt>
      <trkpt lat="41.8672860" lon="-8.8598130">
        <ele>3.9</ele>
        <time>2021-05-18T11:35:02Z</time>
      </trkpt>
      <trkpt lat="41.8672900" lon="-8.8598070">
        <ele>3.9</ele>
        <time>2021-05-18T11:35:03Z</time>
      </trkpt>
      <trkpt lat="41.8672890" lon="-8.8598060">
        <ele>3.9</ele>
        <time>2021-05-18T11:35:04Z</time>
      </trkpt>
      <trkpt lat="41.8672850" lon="-8.8598040">
        <ele>3.9</ele>
        <time>2021-05-18T11:35:05Z</time>
      </trkpt>
      <trkpt lat="41.8672850" lon="-8.8597870">
        <ele>3.9</ele>
        <time>2021-05-18T11:35:06Z</time>
      </trkpt>
      <trkpt lat="41.8672860" lon="-8.8597670">
        <ele>3.9</ele>
        <time>2021-05-18T11:35:07Z</time>
      </trkpt>
      <trkpt lat="41.8672880" lon="-8.8597490">
        <ele>3.9</ele>
        <time>2021-05-18T11:35:08Z</time>
      </trkpt>
      <trkpt lat="41.8672900" lon="-8.8597360">
        <ele>3.9</ele>
        <time>2021-05-18T11:35:09Z</time>
      </trkpt>
      <trkpt lat="41.8672890" lon="-8.8597130">
        <ele>3.9</ele>
        <time>2021-05-18T11:35:10Z</time>
      </trkpt>
      <trkpt lat="41.8672910" lon="-8.8597010">
        <ele>3.9</ele>
        <time>2021-05-18T11:35:11Z</time>
      </trkpt>
      <trkpt lat="41.8672920" lon="-8.8596890">
        <ele>3.9</ele>
        <time>2021-05-18T11:35:12Z</time>
      </trkpt>
      <trkpt lat="41.8672870" lon="-8.8596730">
        <ele>3.9</ele>
        <time>2021-05-18T11:35:13Z</time>
      </trkpt>
      <trkpt lat="41.8672870" lon="-8.8596540">
        <ele>3.9</ele>
        <time>2021-05-18T11:35:14Z</time>
      </trkpt>
      <trkpt lat="41.8672860" lon="-8.8596400">
        <ele>3.9</ele>
        <time>2021-05-18T11:35:15Z</time>
      </trkpt>
      <trkpt lat="41.8672840" lon="-8.8596210">
        <ele>3.9</ele>
        <time>2021-05-18T11:35:16Z</time>
      </trkpt>
      <trkpt lat="41.8672840" lon="-8.8596090">
        <ele>3.9</ele>
        <time>2021-05-18T11:35:17Z</time>
      </trkpt>
      <trkpt lat="41.8672840" lon="-8.8595800">
        <ele>3.9</ele>
        <time>2021-05-18T11:35:18Z</time>
      </trkpt>
      <trkpt lat="41.8672820" lon="-8.8595700">
        <ele>3.9</ele>
        <time>2021-05-18T11:35:19Z</time>
      </trkpt>
      <trkpt lat="41.8672810" lon="-8.8595590">
        <ele>3.9</ele>
        <time>2021-05-18T11:35:20Z</time>
      </trkpt>
      <trkpt lat="41.8672790" lon="-8.8595460">
        <ele>3.9</ele>
        <time>2021-05-18T11:35:21Z</time>
      </trkpt>
      <trkpt lat="41.8672770" lon="-8.8595190">
        <ele>3.9</ele>
        <time>2021-05-18T11:35:22Z</time>
      </trkpt>
      <trkpt lat="41.8672750" lon="-8.8595030">
        <ele>3.9</ele>
        <time>2021-05-18T11:35:23Z</time>
      </trkpt>
      <trkpt lat="41.8672700" lon="-8.8594890">
        <ele>3.9</ele>
        <time>2021-05-18T11:35:24Z</time>
      </trkpt>
      <trkpt lat="41.8672690" lon="-8.8594720">
        <ele>3.9</ele>
        <time>2021-05-18T11:35:25Z</time>
      </trkpt>
      <trkpt lat="41.8672680" lon="-8.8594660">
        <ele>3.9</ele>
        <time>2021-05-18T11:35:26Z</time>
      </trkpt>
      <trkpt lat="41.8672660" lon="-8.8594480">
        <ele>3.9</ele>
        <time>2021-05-18T11:35:27Z</time>
      </trkpt>
      <trkpt lat="41.8672640" lon="-8.8594320">
        <ele>3.9</ele>
        <time>2021-05-18T11:35:28Z</time>
      </trkpt>
      <trkpt lat="41.8672650" lon="-8.8594090">
        <ele>3.9</ele>
        <time>2021-05-18T11:35:29Z</time>
      </trkpt>
      <trkpt lat="41.8672590" lon="-8.8593940">
        <ele>3.9</ele>
        <time>2021-05-18T11:35:30Z</time>
      </trkpt>
      <trkpt lat="41.8672620" lon="-8.8593800">
        <ele>3.9</ele>
        <time>2021-05-18T11:35:31Z</time>
      </trkpt>
      <trkpt lat="41.8672590" lon="-8.8593590">
        <ele>3.9</ele>
        <time>2021-05-18T11:35:32Z</time>
      </trkpt>
      <trkpt lat="41.8672560" lon="-8.8593450">
        <ele>3.9</ele>
        <time>2021-05-18T11:35:33Z</time>
      </trkpt>
      <trkpt lat="41.8672530" lon="-8.8593140">
        <ele>3.9</ele>
        <time>2021-05-18T11:35:34Z</time>
      </trkpt>
      <trkpt lat="41.8672530" lon="-8.8593030">
        <ele>3.9</ele>
        <time>2021-05-18T11:35:35Z</time>
      </trkpt>
      <trkpt lat="41.8672520" lon="-8.8592920">
        <ele>3.9</ele>
        <time>2021-05-18T11:35:36Z</time>
      </trkpt>
      <trkpt lat="41.8672520" lon="-8.8592590">
        <ele>3.9</ele>
        <time>2021-05-18T11:35:37Z</time>
      </trkpt>
      <trkpt lat="41.8672500" lon="-8.8592460">
        <ele>3.9</ele>
        <time>2021-05-18T11:35:38Z</time>
      </trkpt>
      <trkpt lat="41.8672480" lon="-8.8592330">
        <ele>3.9</ele>
        <time>2021-05-18T11:35:39Z</time>
      </trkpt>
      <trkpt lat="41.8672460" lon="-8.8592170">
        <ele>3.9</ele>
        <time>2021-05-18T11:35:40Z</time>
      </trkpt>
      <trkpt lat="41.8672440" lon="-8.8592020">
        <ele>3.9</ele>
        <time>2021-05-18T11:35:41Z</time>
      </trkpt>
      <trkpt lat="41.8672480" lon="-8.8591890">
        <ele>3.9</ele>
        <time>2021-05-18T11:35:42Z</time>
      </trkpt>
      <trkpt lat="41.8672500" lon="-8.8591580">
        <ele>3.9</ele>
        <time>2021-05-18T11:35:43Z</time>
      </trkpt>
      <trkpt lat="41.8672500" lon="-8.8591480">
        <ele>3.9</ele>
        <time>2021-05-18T11:35:44Z</time>
      </trkpt>
      <trkpt lat="41.8672500" lon="-8.8591380">
        <ele>3.9</ele>
        <time>2021-05-18T11:35:45Z</time>
      </trkpt>
      <trkpt lat="41.8672550" lon="-8.8591080">
        <ele>3.9</ele>
        <time>2021-05-18T11:35:46Z</time>
      </trkpt>
      <trkpt lat="41.8672550" lon="-8.8590980">
        <ele>3.9</ele>
        <time>2021-05-18T11:35:47Z</time>
      </trkpt>
      <trkpt lat="41.8672560" lon="-8.8590870">
        <ele>3.9</ele>
        <time>2021-05-18T11:35:48Z</time>
      </trkpt>
      <trkpt lat="41.8672530" lon="-8.8590600">
        <ele>3.9</ele>
        <time>2021-05-18T11:35:49Z</time>
      </trkpt>
      <trkpt lat="41.8672550" lon="-8.8590410">
        <ele>3.9</ele>
        <time>2021-05-18T11:35:50Z</time>
      </trkpt>
      <trkpt lat="41.8672540" lon="-8.8590210">
        <ele>3.9</ele>
        <time>2021-05-18T11:35:51Z</time>
      </trkpt>
      <trkpt lat="41.8672510" lon="-8.8590010">
        <ele>3.9</ele>
        <time>2021-05-18T11:35:52Z</time>
      </trkpt>
      <trkpt lat="41.8672510" lon="-8.8589790">
        <ele>3.9</ele>
        <time>2021-05-18T11:35:53Z</time>
      </trkpt>
      <trkpt lat="41.8672550" lon="-8.8589600">
        <ele>3.9</ele>
        <time>2021-05-18T11:35:54Z</time>
      </trkpt>
      <trkpt lat="41.8672520" lon="-8.8589390">
        <ele>3.9</ele>
        <time>2021-05-18T11:35:55Z</time>
      </trkpt>
      <trkpt lat="41.8672550" lon="-8.8589200">
        <ele>3.9</ele>
        <time>2021-05-18T11:35:56Z</time>
      </trkpt>
      <trkpt lat="41.8672520" lon="-8.8588990">
        <ele>3.9</ele>
        <time>2021-05-18T11:35:57Z</time>
      </trkpt>
      <trkpt lat="41.8672480" lon="-8.8588790">
        <ele>3.9</ele>
        <time>2021-05-18T11:35:58Z</time>
      </trkpt>
      <trkpt lat="41.8672420" lon="-8.8588600">
        <ele>3.9</ele>
        <time>2021-05-18T11:35:59Z</time>
      </trkpt>
      <trkpt lat="41.8672330" lon="-8.8588400">
        <ele>3.9</ele>
        <time>2021-05-18T11:36:00Z</time>
      </trkpt>
      <trkpt lat="41.8672320" lon="-8.8588090">
        <ele>3.9</ele>
        <time>2021-05-18T11:36:01Z</time>
      </trkpt>
      <trkpt lat="41.8672340" lon="-8.8587980">
        <ele>3.9</ele>
        <time>2021-05-18T11:36:02Z</time>
      </trkpt>
      <trkpt lat="41.8672350" lon="-8.8587860">
        <ele>3.9</ele>
        <time>2021-05-18T11:36:03Z</time>
      </trkpt>
      <trkpt lat="41.8672250" lon="-8.8587650">
        <ele>3.9</ele>
        <time>2021-05-18T11:36:04Z</time>
      </trkpt>
      <trkpt lat="41.8672190" lon="-8.8587470">
        <ele>3.9</ele>
        <time>2021-05-18T11:36:05Z</time>
      </trkpt>
      <trkpt lat="41.8672140" lon="-8.8587300">
        <ele>3.9</ele>
        <time>2021-05-18T11:36:06Z</time>
      </trkpt>
      <trkpt lat="41.8672110" lon="-8.8587100">
        <ele>3.9</ele>
        <time>2021-05-18T11:36:07Z</time>
      </trkpt>
      <trkpt lat="41.8672110" lon="-8.8586810">
        <ele>4.0</ele>
        <time>2021-05-18T11:36:08Z</time>
      </trkpt>
      <trkpt lat="41.8672130" lon="-8.8586700">
        <ele>4.0</ele>
        <time>2021-05-18T11:36:09Z</time>
      </trkpt>
      <trkpt lat="41.8672140" lon="-8.8586590">
        <ele>4.0</ele>
        <time>2021-05-18T11:36:10Z</time>
      </trkpt>
      <trkpt lat="41.8672100" lon="-8.8586470">
        <ele>4.0</ele>
        <time>2021-05-18T11:36:11Z</time>
      </trkpt>
      <trkpt lat="41.8672070" lon="-8.8586320">
        <ele>4.0</ele>
        <time>2021-05-18T11:36:12Z</time>
      </trkpt>
      <trkpt lat="41.8672010" lon="-8.8586220">
        <ele>4.0</ele>
        <time>2021-05-18T11:36:13Z</time>
      </trkpt>
      <trkpt lat="41.8671970" lon="-8.8586060">
        <ele>4.0</ele>
        <time>2021-05-18T11:36:14Z</time>
      </trkpt>
      <trkpt lat="41.8672000" lon="-8.8585830">
        <ele>4.0</ele>
        <time>2021-05-18T11:36:15Z</time>
      </trkpt>
      <trkpt lat="41.8671980" lon="-8.8585600">
        <ele>4.0</ele>
        <time>2021-05-18T11:36:16Z</time>
      </trkpt>
      <trkpt lat="41.8671970" lon="-8.8585470">
        <ele>4.0</ele>
        <time>2021-05-18T11:36:17Z</time>
      </trkpt>
      <trkpt lat="41.8671970" lon="-8.8585340">
        <ele>4.0</ele>
        <time>2021-05-18T11:36:18Z</time>
      </trkpt>
      <trkpt lat="41.8671990" lon="-8.8585200">
        <ele>4.0</ele>
        <time>2021-05-18T11:36:19Z</time>
      </trkpt>
      <trkpt lat="41.8671980" lon="-8.8585100">
        <ele>4.0</ele>
        <time>2021-05-18T11:36:20Z</time>
      </trkpt>
      <trkpt lat="41.8671870" lon="-8.8584910">
        <ele>4.0</ele>
        <time>2021-05-18T11:36:21Z</time>
      </trkpt>
      <trkpt lat="41.8671870" lon="-8.8584770">
        <ele>4.0</ele>
        <time>2021-05-18T11:36:22Z</time>
      </trkpt>
      <trkpt lat="41.8671810" lon="-8.8584620">
        <ele>4.0</ele>
        <time>2021-05-18T11:36:23Z</time>
      </trkpt>
      <trkpt lat="41.8671800" lon="-8.8584490">
        <ele>4.0</ele>
        <time>2021-05-18T11:36:24Z</time>
      </trkpt>
      <trkpt lat="41.8671760" lon="-8.8584390">
        <ele>4.0</ele>
        <time>2021-05-18T11:36:25Z</time>
      </trkpt>
      <trkpt lat="41.8671740" lon="-8.8584150">
        <ele>4.0</ele>
        <time>2021-05-18T11:36:26Z</time>
      </trkpt>
      <trkpt lat="41.8671750" lon="-8.8584020">
        <ele>4.0</ele>
        <time>2021-05-18T11:36:27Z</time>
      </trkpt>
      <trkpt lat="41.8671710" lon="-8.8583880">
        <ele>4.0</ele>
        <time>2021-05-18T11:36:28Z</time>
      </trkpt>
      <trkpt lat="41.8671760" lon="-8.8583690">
        <ele>4.0</ele>
        <time>2021-05-18T11:36:29Z</time>
      </trkpt>
      <trkpt lat="41.8671770" lon="-8.8583550">
        <ele>4.0</ele>
        <time>2021-05-18T11:36:30Z</time>
      </trkpt>
      <trkpt lat="41.8671740" lon="-8.8583260">
        <ele>4.0</ele>
        <time>2021-05-18T11:36:31Z</time>
      </trkpt>
      <trkpt lat="41.8671740" lon="-8.8583170">
        <ele>4.0</ele>
        <time>2021-05-18T11:36:32Z</time>
      </trkpt>
      <trkpt lat="41.8671740" lon="-8.8583070">
        <ele>4.0</ele>
        <time>2021-05-18T11:36:33Z</time>
      </trkpt>
      <trkpt lat="41.8671740" lon="-8.8582970">
        <ele>4.0</ele>
        <time>2021-05-18T11:36:34Z</time>
      </trkpt>
      <trkpt lat="41.8671750" lon="-8.8582690">
        <ele>4.0</ele>
        <time>2021-05-18T11:36:35Z</time>
      </trkpt>
      <trkpt lat="41.8671730" lon="-8.8582580">
        <ele>4.0</ele>
        <time>2021-05-18T11:36:36Z</time>
      </trkpt>
      <trkpt lat="41.8671720" lon="-8.8582480">
        <ele>4.0</ele>
        <time>2021-05-18T11:36:37Z</time>
      </trkpt>
      <trkpt lat="41.8671760" lon="-8.8582260">
        <ele>4.0</ele>
        <time>2021-05-18T11:36:38Z</time>
      </trkpt>
      <trkpt lat="41.8671790" lon="-8.8582100">
        <ele>4.0</ele>
        <time>2021-05-18T11:36:39Z</time>
      </trkpt>
      <trkpt lat="41.8671690" lon="-8.8581830">
        <ele>4.0</ele>
        <time>2021-05-18T11:36:40Z</time>
      </trkpt>
      <trkpt lat="41.8671670" lon="-8.8581730">
        <ele>4.0</ele>
        <time>2021-05-18T11:36:41Z</time>
      </trkpt>
      <trkpt lat="41.8671660" lon="-8.8581630">
        <ele>4.0</ele>
        <time>2021-05-18T11:36:42Z</time>
      </trkpt>
      <trkpt lat="41.8671670" lon="-8.8581460">
        <ele>4.0</ele>
        <time>2021-05-18T11:36:43Z</time>
      </trkpt>
      <trkpt lat="41.8671630" lon="-8.8581360">
        <ele>4.0</ele>
        <time>2021-05-18T11:36:44Z</time>
      </trkpt>
      <trkpt lat="41.8671620" lon="-8.8581230">
        <ele>4.0</ele>
        <time>2021-05-18T11:36:45Z</time>
      </trkpt>
      <trkpt lat="41.8671540" lon="-8.8581080">
        <ele>4.0</ele>
        <time>2021-05-18T11:36:46Z</time>
      </trkpt>
      <trkpt lat="41.8671500" lon="-8.8580830">
        <ele>4.0</ele>
        <time>2021-05-18T11:36:47Z</time>
      </trkpt>
      <trkpt lat="41.8671520" lon="-8.8580720">
        <ele>4.0</ele>
        <time>2021-05-18T11:36:48Z</time>
      </trkpt>
      <trkpt lat="41.8671520" lon="-8.8580480">
        <ele>4.0</ele>
        <time>2021-05-18T11:36:50Z</time>
      </trkpt>
      <trkpt lat="41.8671500" lon="-8.8580350">
        <ele>4.0</ele>
        <time>2021-05-18T11:36:51Z</time>
      </trkpt>
      <trkpt lat="41.8671520" lon="-8.8580150">
        <ele>4.0</ele>
        <time>2021-05-18T11:36:52Z</time>
      </trkpt>
      <trkpt lat="41.8671510" lon="-8.8580020">
        <ele>4.0</ele>
        <time>2021-05-18T11:36:53Z</time>
      </trkpt>
      <trkpt lat="41.8671500" lon="-8.8579870">
        <ele>4.0</ele>
        <time>2021-05-18T11:36:54Z</time>
      </trkpt>
      <trkpt lat="41.8671480" lon="-8.8579730">
        <ele>4.0</ele>
        <time>2021-05-18T11:36:55Z</time>
      </trkpt>
      <trkpt lat="41.8671420" lon="-8.8579560">
        <ele>4.0</ele>
        <time>2021-05-18T11:36:56Z</time>
      </trkpt>
      <trkpt lat="41.8671440" lon="-8.8579400">
        <ele>4.0</ele>
        <time>2021-05-18T11:36:57Z</time>
      </trkpt>
      <trkpt lat="41.8671440" lon="-8.8579110">
        <ele>4.0</ele>
        <time>2021-05-18T11:36:58Z</time>
      </trkpt>
      <trkpt lat="41.8671450" lon="-8.8578980">
        <ele>4.0</ele>
        <time>2021-05-18T11:36:59Z</time>
      </trkpt>
      <trkpt lat="41.8671460" lon="-8.8578860">
        <ele>4.0</ele>
        <time>2021-05-18T11:37:00Z</time>
      </trkpt>
      <trkpt lat="41.8671410" lon="-8.8578540">
        <ele>4.0</ele>
        <time>2021-05-18T11:37:01Z</time>
      </trkpt>
      <trkpt lat="41.8671370" lon="-8.8578380">
        <ele>4.0</ele>
        <time>2021-05-18T11:37:02Z</time>
      </trkpt>
      <trkpt lat="41.8671340" lon="-8.8578220">
        <ele>4.0</ele>
        <time>2021-05-18T11:37:03Z</time>
      </trkpt>
      <trkpt lat="41.8671340" lon="-8.8577900">
        <ele>4.0</ele>
        <time>2021-05-18T11:37:04Z</time>
      </trkpt>
      <trkpt lat="41.8671330" lon="-8.8577790">
        <ele>4.0</ele>
        <time>2021-05-18T11:37:05Z</time>
      </trkpt>
      <trkpt lat="41.8671270" lon="-8.8577660">
        <ele>4.0</ele>
        <time>2021-05-18T11:37:06Z</time>
      </trkpt>
      <trkpt lat="41.8671270" lon="-8.8577460">
        <ele>4.0</ele>
        <time>2021-05-18T11:37:07Z</time>
      </trkpt>
      <trkpt lat="41.8671210" lon="-8.8577380">
        <ele>4.0</ele>
        <time>2021-05-18T11:37:08Z</time>
      </trkpt>
      <trkpt lat="41.8671230" lon="-8.8577100">
        <ele>4.0</ele>
        <time>2021-05-18T11:37:09Z</time>
      </trkpt>
      <trkpt lat="41.8671260" lon="-8.8576970">
        <ele>4.0</ele>
        <time>2021-05-18T11:37:10Z</time>
      </trkpt>
      <trkpt lat="41.8671290" lon="-8.8576850">
        <ele>4.0</ele>
        <time>2021-05-18T11:37:11Z</time>
      </trkpt>
      <trkpt lat="41.8671300" lon="-8.8576630">
        <ele>4.0</ele>
        <time>2021-05-18T11:37:12Z</time>
      </trkpt>
      <trkpt lat="41.8671240" lon="-8.8576480">
        <ele>4.0</ele>
        <time>2021-05-18T11:37:13Z</time>
      </trkpt>
      <trkpt lat="41.8671230" lon="-8.8576170">
        <ele>3.9</ele>
        <time>2021-05-18T11:37:14Z</time>
      </trkpt>
      <trkpt lat="41.8671210" lon="-8.8576050">
        <ele>3.9</ele>
        <time>2021-05-18T11:37:15Z</time>
      </trkpt>
      <trkpt lat="41.8671200" lon="-8.8575930">
        <ele>3.9</ele>
        <time>2021-05-18T11:37:16Z</time>
      </trkpt>
      <trkpt lat="41.8671270" lon="-8.8575710">
        <ele>3.9</ele>
        <time>2021-05-18T11:37:17Z</time>
      </trkpt>
      <trkpt lat="41.8671230" lon="-8.8575610">
        <ele>3.9</ele>
        <time>2021-05-18T11:37:18Z</time>
      </trkpt>
      <trkpt lat="41.8671230" lon="-8.8575450">
        <ele>3.9</ele>
        <time>2021-05-18T11:37:19Z</time>
      </trkpt>
      <trkpt lat="41.8671260" lon="-8.8575210">
        <ele>3.9</ele>
        <time>2021-05-18T11:37:20Z</time>
      </trkpt>
      <trkpt lat="41.8671250" lon="-8.8574980">
        <ele>3.9</ele>
        <time>2021-05-18T11:37:21Z</time>
      </trkpt>
      <trkpt lat="41.8671190" lon="-8.8574780">
        <ele>3.9</ele>
        <time>2021-05-18T11:37:22Z</time>
      </trkpt>
      <trkpt lat="41.8671220" lon="-8.8574600">
        <ele>3.9</ele>
        <time>2021-05-18T11:37:23Z</time>
      </trkpt>
      <trkpt lat="41.8671220" lon="-8.8574400">
        <ele>3.9</ele>
        <time>2021-05-18T11:37:24Z</time>
      </trkpt>
      <trkpt lat="41.8671240" lon="-8.8574230">
        <ele>3.9</ele>
        <time>2021-05-18T11:37:25Z</time>
      </trkpt>
      <trkpt lat="41.8671260" lon="-8.8574050">
        <ele>3.9</ele>
        <time>2021-05-18T11:37:26Z</time>
      </trkpt>
      <trkpt lat="41.8671240" lon="-8.8573820">
        <ele>3.9</ele>
        <time>2021-05-18T11:37:27Z</time>
      </trkpt>
      <trkpt lat="41.8671290" lon="-8.8573640">
        <ele>3.9</ele>
        <time>2021-05-18T11:37:28Z</time>
      </trkpt>
      <trkpt lat="41.8671290" lon="-8.8573430">
        <ele>3.8</ele>
        <time>2021-05-18T11:37:29Z</time>
      </trkpt>
      <trkpt lat="41.8671300" lon="-8.8573260">
        <ele>3.8</ele>
        <time>2021-05-18T11:37:30Z</time>
      </trkpt>
      <trkpt lat="41.8671320" lon="-8.8573060">
        <ele>3.8</ele>
        <time>2021-05-18T11:37:31Z</time>
      </trkpt>
      <trkpt lat="41.8671280" lon="-8.8572870">
        <ele>3.8</ele>
        <time>2021-05-18T11:37:32Z</time>
      </trkpt>
      <trkpt lat="41.8671210" lon="-8.8572680">
        <ele>3.8</ele>
        <time>2021-05-18T11:37:33Z</time>
      </trkpt>
      <trkpt lat="41.8671210" lon="-8.8572530">
        <ele>3.8</ele>
        <time>2021-05-18T11:37:34Z</time>
      </trkpt>
      <trkpt lat="41.8671200" lon="-8.8572390">
        <ele>3.8</ele>
        <time>2021-05-18T11:37:35Z</time>
      </trkpt>
      <trkpt lat="41.8671200" lon="-8.8572280">
        <ele>3.8</ele>
        <time>2021-05-18T11:37:36Z</time>
      </trkpt>
      <trkpt lat="41.8671210" lon="-8.8571990">
        <ele>3.7</ele>
        <time>2021-05-18T11:37:37Z</time>
      </trkpt>
      <trkpt lat="41.8671190" lon="-8.8571890">
        <ele>3.7</ele>
        <time>2021-05-18T11:37:38Z</time>
      </trkpt>
      <trkpt lat="41.8671170" lon="-8.8571780">
        <ele>3.7</ele>
        <time>2021-05-18T11:37:39Z</time>
      </trkpt>
      <trkpt lat="41.8671160" lon="-8.8571640">
        <ele>3.7</ele>
        <time>2021-05-18T11:37:40Z</time>
      </trkpt>
      <trkpt lat="41.8671120" lon="-8.8571480">
        <ele>3.7</ele>
        <time>2021-05-18T11:37:41Z</time>
      </trkpt>
      <trkpt lat="41.8671130" lon="-8.8571340">
        <ele>3.7</ele>
        <time>2021-05-18T11:37:42Z</time>
      </trkpt>
      <trkpt lat="41.8671090" lon="-8.8571190">
        <ele>3.7</ele>
        <time>2021-05-18T11:37:43Z</time>
      </trkpt>
      <trkpt lat="41.8671090" lon="-8.8571040">
        <ele>3.7</ele>
        <time>2021-05-18T11:37:44Z</time>
      </trkpt>
      <trkpt lat="41.8671110" lon="-8.8570880">
        <ele>3.7</ele>
        <time>2021-05-18T11:37:45Z</time>
      </trkpt>
      <trkpt lat="41.8671090" lon="-8.8570690">
        <ele>3.7</ele>
        <time>2021-05-18T11:37:46Z</time>
      </trkpt>
      <trkpt lat="41.8671080" lon="-8.8570480">
        <ele>3.7</ele>
        <time>2021-05-18T11:37:47Z</time>
      </trkpt>
      <trkpt lat="41.8671020" lon="-8.8570300">
        <ele>3.6</ele>
        <time>2021-05-18T11:37:48Z</time>
      </trkpt>
      <trkpt lat="41.8671020" lon="-8.8570120">
        <ele>3.6</ele>
        <time>2021-05-18T11:37:49Z</time>
      </trkpt>
      <trkpt lat="41.8671020" lon="-8.8569910">
        <ele>3.6</ele>
        <time>2021-05-18T11:37:50Z</time>
      </trkpt>
      <trkpt lat="41.8671000" lon="-8.8569730">
        <ele>3.6</ele>
        <time>2021-05-18T11:37:51Z</time>
      </trkpt>
      <trkpt lat="41.8671010" lon="-8.8569560">
        <ele>3.6</ele>
        <time>2021-05-18T11:37:52Z</time>
      </trkpt>
      <trkpt lat="41.8670970" lon="-8.8569350">
        <ele>3.6</ele>
        <time>2021-05-18T11:37:53Z</time>
      </trkpt>
      <trkpt lat="41.8670940" lon="-8.8569140">
        <ele>3.6</ele>
        <time>2021-05-18T11:37:54Z</time>
      </trkpt>
      <trkpt lat="41.8670930" lon="-8.8568960">
        <ele>3.6</ele>
        <time>2021-05-18T11:37:55Z</time>
      </trkpt>
      <trkpt lat="41.8670870" lon="-8.8568770">
        <ele>3.6</ele>
        <time>2021-05-18T11:37:56Z</time>
      </trkpt>
      <trkpt lat="41.8670880" lon="-8.8568570">
        <ele>3.6</ele>
        <time>2021-05-18T11:37:57Z</time>
      </trkpt>
      <trkpt lat="41.8670880" lon="-8.8568390">
        <ele>3.6</ele>
        <time>2021-05-18T11:37:58Z</time>
      </trkpt>
      <trkpt lat="41.8670890" lon="-8.8568190">
        <ele>3.6</ele>
        <time>2021-05-18T11:37:59Z</time>
      </trkpt>
      <trkpt lat="41.8670860" lon="-8.8567970">
        <ele>3.5</ele>
        <time>2021-05-18T11:38:00Z</time>
      </trkpt>
      <trkpt lat="41.8670840" lon="-8.8567780">
        <ele>3.5</ele>
        <time>2021-05-18T11:38:01Z</time>
      </trkpt>
      <trkpt lat="41.8670820" lon="-8.8567620">
        <ele>3.5</ele>
        <time>2021-05-18T11:38:02Z</time>
      </trkpt>
      <trkpt lat="41.8670840" lon="-8.8567450">
        <ele>3.5</ele>
        <time>2021-05-18T11:38:03Z</time>
      </trkpt>
      <trkpt lat="41.8670810" lon="-8.8567320">
        <ele>3.5</ele>
        <time>2021-05-18T11:38:04Z</time>
      </trkpt>
      <trkpt lat="41.8670780" lon="-8.8567210">
        <ele>3.5</ele>
        <time>2021-05-18T11:38:05Z</time>
      </trkpt>
      <trkpt lat="41.8670770" lon="-8.8567040">
        <ele>3.5</ele>
        <time>2021-05-18T11:38:06Z</time>
      </trkpt>
      <trkpt lat="41.8670660" lon="-8.8566890">
        <ele>3.5</ele>
        <time>2021-05-18T11:38:08Z</time>
      </trkpt>
      <trkpt lat="41.8670650" lon="-8.8566800">
        <ele>3.5</ele>
        <time>2021-05-18T11:38:09Z</time>
      </trkpt>
      <trkpt lat="41.8670610" lon="-8.8566660">
        <ele>3.5</ele>
        <time>2021-05-18T11:38:10Z</time>
      </trkpt>
      <trkpt lat="41.8670600" lon="-8.8566480">
        <ele>3.5</ele>
        <time>2021-05-18T11:38:11Z</time>
      </trkpt>
      <trkpt lat="41.8670530" lon="-8.8566260">
        <ele>3.5</ele>
        <time>2021-05-18T11:38:12Z</time>
      </trkpt>
      <trkpt lat="41.8670500" lon="-8.8566120">
        <ele>3.5</ele>
        <time>2021-05-18T11:38:13Z</time>
      </trkpt>
      <trkpt lat="41.8670470" lon="-8.8565940">
        <ele>3.4</ele>
        <time>2021-05-18T11:38:14Z</time>
      </trkpt>
      <trkpt lat="41.8670450" lon="-8.8565810">
        <ele>3.4</ele>
        <time>2021-05-18T11:38:15Z</time>
      </trkpt>
      <trkpt lat="41.8670460" lon="-8.8565690">
        <ele>3.4</ele>
        <time>2021-05-18T11:38:16Z</time>
      </trkpt>
      <trkpt lat="41.8670460" lon="-8.8565550">
        <ele>3.4</ele>
        <time>2021-05-18T11:38:17Z</time>
      </trkpt>
      <trkpt lat="41.8670360" lon="-8.8565400">
        <ele>3.4</ele>
        <time>2021-05-18T11:38:18Z</time>
      </trkpt>
      <trkpt lat="41.8670360" lon="-8.8565230">
        <ele>3.4</ele>
        <time>2021-05-18T11:38:19Z</time>
      </trkpt>
      <trkpt lat="41.8670350" lon="-8.8564990">
        <ele>3.4</ele>
        <time>2021-05-18T11:38:20Z</time>
      </trkpt>
      <trkpt lat="41.8670350" lon="-8.8564840">
        <ele>3.4</ele>
        <time>2021-05-18T11:38:21Z</time>
      </trkpt>
      <trkpt lat="41.8670340" lon="-8.8564540">
        <ele>3.4</ele>
        <time>2021-05-18T11:38:22Z</time>
      </trkpt>
      <trkpt lat="41.8670320" lon="-8.8564440">
        <ele>3.4</ele>
        <time>2021-05-18T11:38:23Z</time>
      </trkpt>
      <trkpt lat="41.8670300" lon="-8.8564330">
        <ele>3.4</ele>
        <time>2021-05-18T11:38:24Z</time>
      </trkpt>
      <trkpt lat="41.8670300" lon="-8.8564040">
        <ele>3.4</ele>
        <time>2021-05-18T11:38:25Z</time>
      </trkpt>
      <trkpt lat="41.8670290" lon="-8.8563920">
        <ele>3.4</ele>
        <time>2021-05-18T11:38:26Z</time>
      </trkpt>
      <trkpt lat="41.8670270" lon="-8.8563800">
        <ele>3.4</ele>
        <time>2021-05-18T11:38:27Z</time>
      </trkpt>
      <trkpt lat="41.8670240" lon="-8.8563530">
        <ele>3.4</ele>
        <time>2021-05-18T11:38:28Z</time>
      </trkpt>
      <trkpt lat="41.8670250" lon="-8.8563400">
        <ele>3.4</ele>
        <time>2021-05-18T11:38:29Z</time>
      </trkpt>
      <trkpt lat="41.8670250" lon="-8.8563260">
        <ele>3.4</ele>
        <time>2021-05-18T11:38:30Z</time>
      </trkpt>
      <trkpt lat="41.8670190" lon="-8.8562970">
        <ele>3.4</ele>
        <time>2021-05-18T11:38:31Z</time>
      </trkpt>
      <trkpt lat="41.8670170" lon="-8.8562860">
        <ele>3.4</ele>
        <time>2021-05-18T11:38:32Z</time>
      </trkpt>
      <trkpt lat="41.8670140" lon="-8.8562750">
        <ele>3.4</ele>
        <time>2021-05-18T11:38:33Z</time>
      </trkpt>
      <trkpt lat="41.8670130" lon="-8.8562510">
        <ele>3.4</ele>
        <time>2021-05-18T11:38:34Z</time>
      </trkpt>
      <trkpt lat="41.8670160" lon="-8.8562370">
        <ele>3.4</ele>
        <time>2021-05-18T11:38:35Z</time>
      </trkpt>
      <trkpt lat="41.8670200" lon="-8.8562240">
        <ele>3.4</ele>
        <time>2021-05-18T11:38:36Z</time>
      </trkpt>
      <trkpt lat="41.8670110" lon="-8.8561930">
        <ele>3.4</ele>
        <time>2021-05-18T11:38:37Z</time>
      </trkpt>
      <trkpt lat="41.8670120" lon="-8.8561820">
        <ele>3.4</ele>
        <time>2021-05-18T11:38:38Z</time>
      </trkpt>
      <trkpt lat="41.8670130" lon="-8.8561720">
        <ele>3.4</ele>
        <time>2021-05-18T11:38:39Z</time>
      </trkpt>
      <trkpt lat="41.8670100" lon="-8.8561450">
        <ele>3.4</ele>
        <time>2021-05-18T11:38:40Z</time>
      </trkpt>
      <trkpt lat="41.8670090" lon="-8.8561260">
        <ele>3.3</ele>
        <time>2021-05-18T11:38:41Z</time>
      </trkpt>
      <trkpt lat="41.8670140" lon="-8.8561050">
        <ele>3.3</ele>
        <time>2021-05-18T11:38:42Z</time>
      </trkpt>
      <trkpt lat="41.8670110" lon="-8.8560840">
        <ele>3.3</ele>
        <time>2021-05-18T11:38:43Z</time>
      </trkpt>
      <trkpt lat="41.8670100" lon="-8.8560670">
        <ele>3.3</ele>
        <time>2021-05-18T11:38:44Z</time>
      </trkpt>
      <trkpt lat="41.8670040" lon="-8.8560470">
        <ele>3.3</ele>
        <time>2021-05-18T11:38:45Z</time>
      </trkpt>
      <trkpt lat="41.8670080" lon="-8.8560270">
        <ele>3.3</ele>
        <time>2021-05-18T11:38:46Z</time>
      </trkpt>
      <trkpt lat="41.8670030" lon="-8.8560080">
        <ele>3.3</ele>
        <time>2021-05-18T11:38:47Z</time>
      </trkpt>
      <trkpt lat="41.8670020" lon="-8.8559910">
        <ele>3.3</ele>
        <time>2021-05-18T11:38:48Z</time>
      </trkpt>
      <trkpt lat="41.8670030" lon="-8.8559790">
        <ele>3.3</ele>
        <time>2021-05-18T11:38:49Z</time>
      </trkpt>
      <trkpt lat="41.8670020" lon="-8.8559670">
        <ele>3.3</ele>
        <time>2021-05-18T11:38:50Z</time>
      </trkpt>
      <trkpt lat="41.8669950" lon="-8.8559490">
        <ele>3.3</ele>
        <time>2021-05-18T11:38:51Z</time>
      </trkpt>
      <trkpt lat="41.8669910" lon="-8.8559320">
        <ele>3.3</ele>
        <time>2021-05-18T11:38:52Z</time>
      </trkpt>
      <trkpt lat="41.8669860" lon="-8.8559030">
        <ele>3.3</ele>
        <time>2021-05-18T11:38:53Z</time>
      </trkpt>
      <trkpt lat="41.8669840" lon="-8.8558910">
        <ele>3.3</ele>
        <time>2021-05-18T11:38:54Z</time>
      </trkpt>
      <trkpt lat="41.8669830" lon="-8.8558790">
        <ele>3.3</ele>
        <time>2021-05-18T11:38:55Z</time>
      </trkpt>
      <trkpt lat="41.8669840" lon="-8.8558630">
        <ele>3.3</ele>
        <time>2021-05-18T11:38:56Z</time>
      </trkpt>
      <trkpt lat="41.8669800" lon="-8.8558440">
        <ele>3.3</ele>
        <time>2021-05-18T11:38:57Z</time>
      </trkpt>
      <trkpt lat="41.8669730" lon="-8.8558390">
        <ele>3.3</ele>
        <time>2021-05-18T11:38:58Z</time>
      </trkpt>
      <trkpt lat="41.8669710" lon="-8.8558160">
        <ele>3.3</ele>
        <time>2021-05-18T11:38:59Z</time>
      </trkpt>
      <trkpt lat="41.8669670" lon="-8.8558060">
        <ele>3.3</ele>
        <time>2021-05-18T11:39:00Z</time>
      </trkpt>
      <trkpt lat="41.8669710" lon="-8.8557920">
        <ele>3.3</ele>
        <time>2021-05-18T11:39:01Z</time>
      </trkpt>
      <trkpt lat="41.8669710" lon="-8.8557640">
        <ele>3.3</ele>
        <time>2021-05-18T11:39:02Z</time>
      </trkpt>
      <trkpt lat="41.8669690" lon="-8.8557530">
        <ele>3.3</ele>
        <time>2021-05-18T11:39:03Z</time>
      </trkpt>
      <trkpt lat="41.8669660" lon="-8.8557430">
        <ele>3.3</ele>
        <time>2021-05-18T11:39:04Z</time>
      </trkpt>
      <trkpt lat="41.8669650" lon="-8.8557130">
        <ele>3.3</ele>
        <time>2021-05-18T11:39:05Z</time>
      </trkpt>
      <trkpt lat="41.8669610" lon="-8.8557030">
        <ele>3.3</ele>
        <time>2021-05-18T11:39:06Z</time>
      </trkpt>
      <trkpt lat="41.8669560" lon="-8.8556930">
        <ele>3.3</ele>
        <time>2021-05-18T11:39:07Z</time>
      </trkpt>
      <trkpt lat="41.8669500" lon="-8.8556740">
        <ele>3.3</ele>
        <time>2021-05-18T11:39:08Z</time>
      </trkpt>
      <trkpt lat="41.8669570" lon="-8.8556560">
        <ele>3.3</ele>
        <time>2021-05-18T11:39:09Z</time>
      </trkpt>
      <trkpt lat="41.8669510" lon="-8.8556290">
        <ele>3.3</ele>
        <time>2021-05-18T11:39:10Z</time>
      </trkpt>
      <trkpt lat="41.8669450" lon="-8.8556160">
        <ele>3.3</ele>
        <time>2021-05-18T11:39:11Z</time>
      </trkpt>
      <trkpt lat="41.8669400" lon="-8.8556040">
        <ele>3.3</ele>
        <time>2021-05-18T11:39:12Z</time>
      </trkpt>
      <trkpt lat="41.8669420" lon="-8.8555770">
        <ele>3.3</ele>
        <time>2021-05-18T11:39:13Z</time>
      </trkpt>
      <trkpt lat="41.8669400" lon="-8.8555640">
        <ele>3.3</ele>
        <time>2021-05-18T11:39:14Z</time>
      </trkpt>
      <trkpt lat="41.8669380" lon="-8.8555510">
        <ele>3.3</ele>
        <time>2021-05-18T11:39:15Z</time>
      </trkpt>
      <trkpt lat="41.8669440" lon="-8.8555370">
        <ele>3.3</ele>
        <time>2021-05-18T11:39:16Z</time>
      </trkpt>
      <trkpt lat="41.8669370" lon="-8.8555150">
        <ele>3.3</ele>
        <time>2021-05-18T11:39:17Z</time>
      </trkpt>
      <trkpt lat="41.8669350" lon="-8.8555060">
        <ele>3.3</ele>
        <time>2021-05-18T11:39:18Z</time>
      </trkpt>
      <trkpt lat="41.8669370" lon="-8.8554710">
        <ele>3.2</ele>
        <time>2021-05-18T11:39:19Z</time>
      </trkpt>
      <trkpt lat="41.8669350" lon="-8.8554550">
        <ele>3.2</ele>
        <time>2021-05-18T11:39:20Z</time>
      </trkpt>
      <trkpt lat="41.8669350" lon="-8.8554390">
        <ele>3.2</ele>
        <time>2021-05-18T11:39:21Z</time>
      </trkpt>
      <trkpt lat="41.8669320" lon="-8.8554240">
        <ele>3.2</ele>
        <time>2021-05-18T11:39:22Z</time>
      </trkpt>
      <trkpt lat="41.8669260" lon="-8.8553960">
        <ele>3.2</ele>
        <time>2021-05-18T11:39:23Z</time>
      </trkpt>
      <trkpt lat="41.8669230" lon="-8.8553830">
        <ele>3.2</ele>
        <time>2021-05-18T11:39:24Z</time>
      </trkpt>
      <trkpt lat="41.8669200" lon="-8.8553700">
        <ele>3.2</ele>
        <time>2021-05-18T11:39:25Z</time>
      </trkpt>
      <trkpt lat="41.8669150" lon="-8.8553510">
        <ele>3.2</ele>
        <time>2021-05-18T11:39:26Z</time>
      </trkpt>
      <trkpt lat="41.8669040" lon="-8.8553340">
        <ele>3.2</ele>
        <time>2021-05-18T11:39:27Z</time>
      </trkpt>
      <trkpt lat="41.8669050" lon="-8.8553230">
        <ele>3.2</ele>
        <time>2021-05-18T11:39:28Z</time>
      </trkpt>
      <trkpt lat="41.8669010" lon="-8.8553090">
        <ele>3.2</ele>
        <time>2021-05-18T11:39:29Z</time>
      </trkpt>
      <trkpt lat="41.8668970" lon="-8.8552900">
        <ele>3.2</ele>
        <time>2021-05-18T11:39:30Z</time>
      </trkpt>
      <trkpt lat="41.8668890" lon="-8.8552650">
        <ele>3.2</ele>
        <time>2021-05-18T11:39:31Z</time>
      </trkpt>
      <trkpt lat="41.8668850" lon="-8.8552560">
        <ele>3.2</ele>
        <time>2021-05-18T11:39:32Z</time>
      </trkpt>
      <trkpt lat="41.8668800" lon="-8.8552460">
        <ele>3.2</ele>
        <time>2021-05-18T11:39:33Z</time>
      </trkpt>
      <trkpt lat="41.8668690" lon="-8.8552260">
        <ele>3.2</ele>
        <time>2021-05-18T11:39:34Z</time>
      </trkpt>
      <trkpt lat="41.8668640" lon="-8.8552160">
        <ele>3.2</ele>
        <time>2021-05-18T11:39:35Z</time>
      </trkpt>
      <trkpt lat="41.8668580" lon="-8.8552060">
        <ele>3.2</ele>
        <time>2021-05-18T11:39:36Z</time>
      </trkpt>
      <trkpt lat="41.8668500" lon="-8.8551800">
        <ele>3.2</ele>
        <time>2021-05-18T11:39:37Z</time>
      </trkpt>
      <trkpt lat="41.8668480" lon="-8.8551690">
        <ele>3.2</ele>
        <time>2021-05-18T11:39:38Z</time>
      </trkpt>
      <trkpt lat="41.8668450" lon="-8.8551570">
        <ele>3.2</ele>
        <time>2021-05-18T11:39:39Z</time>
      </trkpt>
      <trkpt lat="41.8668330" lon="-8.8551300">
        <ele>3.2</ele>
        <time>2021-05-18T11:39:40Z</time>
      </trkpt>
      <trkpt lat="41.8668300" lon="-8.8551200">
        <ele>3.2</ele>
        <time>2021-05-18T11:39:41Z</time>
      </trkpt>
      <trkpt lat="41.8668260" lon="-8.8551100">
        <ele>3.2</ele>
        <time>2021-05-18T11:39:42Z</time>
      </trkpt>
      <trkpt lat="41.8668230" lon="-8.8550950">
        <ele>3.2</ele>
        <time>2021-05-18T11:39:43Z</time>
      </trkpt>
      <trkpt lat="41.8668110" lon="-8.8550770">
        <ele>3.3</ele>
        <time>2021-05-18T11:39:44Z</time>
      </trkpt>
      <trkpt lat="41.8668060" lon="-8.8550600">
        <ele>3.3</ele>
        <time>2021-05-18T11:39:46Z</time>
      </trkpt>
      <trkpt lat="41.8668030" lon="-8.8550450">
        <ele>3.3</ele>
        <time>2021-05-18T11:39:47Z</time>
      </trkpt>
      <trkpt lat="41.8668010" lon="-8.8550320">
        <ele>3.3</ele>
        <time>2021-05-18T11:39:48Z</time>
      </trkpt>
      <trkpt lat="41.8667900" lon="-8.8550060">
        <ele>3.3</ele>
        <time>2021-05-18T11:39:49Z</time>
      </trkpt>
      <trkpt lat="41.8667860" lon="-8.8549960">
        <ele>3.3</ele>
        <time>2021-05-18T11:39:50Z</time>
      </trkpt>
      <trkpt lat="41.8667810" lon="-8.8549850">
        <ele>3.3</ele>
        <time>2021-05-18T11:39:51Z</time>
      </trkpt>
      <trkpt lat="41.8667700" lon="-8.8549620">
        <ele>3.3</ele>
        <time>2021-05-18T11:39:52Z</time>
      </trkpt>
      <trkpt lat="41.8667650" lon="-8.8549530">
        <ele>3.3</ele>
        <time>2021-05-18T11:39:53Z</time>
      </trkpt>
      <trkpt lat="41.8667610" lon="-8.8549440">
        <ele>3.3</ele>
        <time>2021-05-18T11:39:54Z</time>
      </trkpt>
      <trkpt lat="41.8667560" lon="-8.8549270">
        <ele>3.3</ele>
        <time>2021-05-18T11:39:55Z</time>
      </trkpt>
      <trkpt lat="41.8667500" lon="-8.8549160">
        <ele>3.3</ele>
        <time>2021-05-18T11:39:56Z</time>
      </trkpt>
      <trkpt lat="41.8667510" lon="-8.8549050">
        <ele>3.3</ele>
        <time>2021-05-18T11:39:57Z</time>
      </trkpt>
      <trkpt lat="41.8667430" lon="-8.8548890">
        <ele>3.3</ele>
        <time>2021-05-18T11:39:58Z</time>
      </trkpt>
      <trkpt lat="41.8667380" lon="-8.8548750">
        <ele>3.4</ele>
        <time>2021-05-18T11:39:59Z</time>
      </trkpt>
      <trkpt lat="41.8667350" lon="-8.8548610">
        <ele>3.4</ele>
        <time>2021-05-18T11:40:00Z</time>
      </trkpt>
      <trkpt lat="41.8667260" lon="-8.8548330">
        <ele>3.4</ele>
        <time>2021-05-18T11:40:01Z</time>
      </trkpt>
      <trkpt lat="41.8667210" lon="-8.8548170">
        <ele>3.4</ele>
        <time>2021-05-18T11:40:02Z</time>
      </trkpt>
      <trkpt lat="41.8667120" lon="-8.8547920">
        <ele>3.4</ele>
        <time>2021-05-18T11:40:03Z</time>
      </trkpt>
      <trkpt lat="41.8667090" lon="-8.8547800">
        <ele>3.4</ele>
        <time>2021-05-18T11:40:04Z</time>
      </trkpt>
      <trkpt lat="41.8667060" lon="-8.8547690">
        <ele>3.4</ele>
        <time>2021-05-18T11:40:05Z</time>
      </trkpt>
      <trkpt lat="41.8666970" lon="-8.8547570">
        <ele>3.4</ele>
        <time>2021-05-18T11:40:06Z</time>
      </trkpt>
      <trkpt lat="41.8666830" lon="-8.8547370">
        <ele>3.4</ele>
        <time>2021-05-18T11:40:07Z</time>
      </trkpt>
      <trkpt lat="41.8666710" lon="-8.8547270">
        <ele>3.4</ele>
        <time>2021-05-18T11:40:08Z</time>
      </trkpt>
      <trkpt lat="41.8666700" lon="-8.8547110">
        <ele>3.4</ele>
        <time>2021-05-18T11:40:09Z</time>
      </trkpt>
      <trkpt lat="41.8666620" lon="-8.8546990">
        <ele>3.4</ele>
        <time>2021-05-18T11:40:10Z</time>
      </trkpt>
      <trkpt lat="41.8666530" lon="-8.8546760">
        <ele>3.4</ele>
        <time>2021-05-18T11:40:11Z</time>
      </trkpt>
      <trkpt lat="41.8666480" lon="-8.8546660">
        <ele>3.4</ele>
        <time>2021-05-18T11:40:12Z</time>
      </trkpt>
      <trkpt lat="41.8666430" lon="-8.8546570">
        <ele>3.4</ele>
        <time>2021-05-18T11:40:13Z</time>
      </trkpt>
      <trkpt lat="41.8666380" lon="-8.8546260">
        <ele>3.4</ele>
        <time>2021-05-18T11:40:14Z</time>
      </trkpt>
      <trkpt lat="41.8666350" lon="-8.8546150">
        <ele>3.4</ele>
        <time>2021-05-18T11:40:15Z</time>
      </trkpt>
      <trkpt lat="41.8666320" lon="-8.8546030">
        <ele>3.4</ele>
        <time>2021-05-18T11:40:16Z</time>
      </trkpt>
      <trkpt lat="41.8666310" lon="-8.8545880">
        <ele>3.4</ele>
        <time>2021-05-18T11:40:17Z</time>
      </trkpt>
      <trkpt lat="41.8666320" lon="-8.8545750">
        <ele>3.4</ele>
        <time>2021-05-18T11:40:18Z</time>
      </trkpt>
      <trkpt lat="41.8666290" lon="-8.8545650">
        <ele>3.4</ele>
        <time>2021-05-18T11:40:19Z</time>
      </trkpt>
      <trkpt lat="41.8666270" lon="-8.8545340">
        <ele>3.5</ele>
        <time>2021-05-18T11:40:20Z</time>
      </trkpt>
      <trkpt lat="41.8666290" lon="-8.8545240">
        <ele>3.5</ele>
        <time>2021-05-18T11:40:21Z</time>
      </trkpt>
      <trkpt lat="41.8666310" lon="-8.8545140">
        <ele>3.5</ele>
        <time>2021-05-18T11:40:22Z</time>
      </trkpt>
      <trkpt lat="41.8666300" lon="-8.8545020">
        <ele>3.5</ele>
        <time>2021-05-18T11:40:23Z</time>
      </trkpt>
      <trkpt lat="41.8666360" lon="-8.8544870">
        <ele>3.5</ele>
        <time>2021-05-18T11:40:24Z</time>
      </trkpt>
      <trkpt lat="41.8666390" lon="-8.8544690">
        <ele>3.5</ele>
        <time>2021-05-18T11:40:25Z</time>
      </trkpt>
      <trkpt lat="41.8666340" lon="-8.8544570">
        <ele>3.5</ele>
        <time>2021-05-18T11:40:26Z</time>
      </trkpt>
      <trkpt lat="41.8666340" lon="-8.8544330">
        <ele>3.5</ele>
        <time>2021-05-18T11:40:27Z</time>
      </trkpt>
      <trkpt lat="41.8666320" lon="-8.8544200">
        <ele>3.5</ele>
        <time>2021-05-18T11:40:28Z</time>
      </trkpt>
      <trkpt lat="41.8666360" lon="-8.8544080">
        <ele>3.5</ele>
        <time>2021-05-18T11:40:29Z</time>
      </trkpt>
      <trkpt lat="41.8666350" lon="-8.8543920">
        <ele>3.5</ele>
        <time>2021-05-18T11:40:30Z</time>
      </trkpt>
      <trkpt lat="41.8666350" lon="-8.8543820">
        <ele>3.5</ele>
        <time>2021-05-18T11:40:31Z</time>
      </trkpt>
      <trkpt lat="41.8666350" lon="-8.8543640">
        <ele>3.5</ele>
        <time>2021-05-18T11:40:32Z</time>
      </trkpt>
      <trkpt lat="41.8666380" lon="-8.8543440">
        <ele>3.5</ele>
        <time>2021-05-18T11:40:33Z</time>
      </trkpt>
      <trkpt lat="41.8666390" lon="-8.8543130">
        <ele>3.5</ele>
        <time>2021-05-18T11:40:34Z</time>
      </trkpt>
      <trkpt lat="41.8666400" lon="-8.8543010">
        <ele>3.5</ele>
        <time>2021-05-18T11:40:35Z</time>
      </trkpt>
      <trkpt lat="41.8666420" lon="-8.8542880">
        <ele>3.5</ele>
        <time>2021-05-18T11:40:36Z</time>
      </trkpt>
      <trkpt lat="41.8666380" lon="-8.8542560">
        <ele>3.5</ele>
        <time>2021-05-18T11:40:37Z</time>
      </trkpt>
      <trkpt lat="41.8666380" lon="-8.8542450">
        <ele>3.5</ele>
        <time>2021-05-18T11:40:38Z</time>
      </trkpt>
      <trkpt lat="41.8666380" lon="-8.8542350">
        <ele>3.5</ele>
        <time>2021-05-18T11:40:39Z</time>
      </trkpt>
      <trkpt lat="41.8666450" lon="-8.8542080">
        <ele>3.5</ele>
        <time>2021-05-18T11:40:40Z</time>
      </trkpt>
      <trkpt lat="41.8666470" lon="-8.8541960">
        <ele>3.5</ele>
        <time>2021-05-18T11:40:41Z</time>
      </trkpt>
      <trkpt lat="41.8666500" lon="-8.8541850">
        <ele>3.5</ele>
        <time>2021-05-18T11:40:42Z</time>
      </trkpt>
      <trkpt lat="41.8666520" lon="-8.8541620">
        <ele>3.5</ele>
        <time>2021-05-18T11:40:43Z</time>
      </trkpt>
      <trkpt lat="41.8666540" lon="-8.8541520">
        <ele>3.5</ele>
        <time>2021-05-18T11:40:44Z</time>
      </trkpt>
      <trkpt lat="41.8666530" lon="-8.8541360">
        <ele>3.5</ele>
        <time>2021-05-18T11:40:45Z</time>
      </trkpt>
      <trkpt lat="41.8666540" lon="-8.8541280">
        <ele>3.5</ele>
        <time>2021-05-18T11:40:46Z</time>
      </trkpt>
      <trkpt lat="41.8666570" lon="-8.8541100">
        <ele>3.5</ele>
        <time>2021-05-18T11:40:47Z</time>
      </trkpt>
      <trkpt lat="41.8666540" lon="-8.8540890">
        <ele>3.5</ele>
        <time>2021-05-18T11:40:48Z</time>
      </trkpt>
      <trkpt lat="41.8666610" lon="-8.8540590">
        <ele>3.5</ele>
        <time>2021-05-18T11:40:49Z</time>
      </trkpt>
      <trkpt lat="41.8666630" lon="-8.8540470">
        <ele>3.5</ele>
        <time>2021-05-18T11:40:50Z</time>
      </trkpt>
      <trkpt lat="41.8666640" lon="-8.8540340">
        <ele>3.5</ele>
        <time>2021-05-18T11:40:51Z</time>
      </trkpt>
      <trkpt lat="41.8666660" lon="-8.8540080">
        <ele>3.5</ele>
        <time>2021-05-18T11:40:52Z</time>
      </trkpt>
      <trkpt lat="41.8666650" lon="-8.8539970">
        <ele>3.5</ele>
        <time>2021-05-18T11:40:53Z</time>
      </trkpt>
      <trkpt lat="41.8666640" lon="-8.8539850">
        <ele>3.5</ele>
        <time>2021-05-18T11:40:54Z</time>
      </trkpt>
      <trkpt lat="41.8666670" lon="-8.8539780">
        <ele>3.5</ele>
        <time>2021-05-18T11:40:55Z</time>
      </trkpt>
      <trkpt lat="41.8666650" lon="-8.8539550">
        <ele>3.5</ele>
        <time>2021-05-18T11:40:56Z</time>
      </trkpt>
      <trkpt lat="41.8666650" lon="-8.8539370">
        <ele>3.5</ele>
        <time>2021-05-18T11:40:57Z</time>
      </trkpt>
      <trkpt lat="41.8666620" lon="-8.8539070">
        <ele>3.5</ele>
        <time>2021-05-18T11:40:58Z</time>
      </trkpt>
      <trkpt lat="41.8666640" lon="-8.8538960">
        <ele>3.5</ele>
        <time>2021-05-18T11:40:59Z</time>
      </trkpt>
      <trkpt lat="41.8666660" lon="-8.8538850">
        <ele>3.5</ele>
        <time>2021-05-18T11:41:00Z</time>
      </trkpt>
      <trkpt lat="41.8666580" lon="-8.8538610">
        <ele>3.5</ele>
        <time>2021-05-18T11:41:01Z</time>
      </trkpt>
      <trkpt lat="41.8666580" lon="-8.8538460">
        <ele>3.5</ele>
        <time>2021-05-18T11:41:02Z</time>
      </trkpt>
      <trkpt lat="41.8666580" lon="-8.8538310">
        <ele>3.5</ele>
        <time>2021-05-18T11:41:03Z</time>
      </trkpt>
      <trkpt lat="41.8666530" lon="-8.8538050">
        <ele>3.5</ele>
        <time>2021-05-18T11:41:04Z</time>
      </trkpt>
      <trkpt lat="41.8666530" lon="-8.8537940">
        <ele>3.5</ele>
        <time>2021-05-18T11:41:05Z</time>
      </trkpt>
      <trkpt lat="41.8666540" lon="-8.8537820">
        <ele>3.5</ele>
        <time>2021-05-18T11:41:06Z</time>
      </trkpt>
      <trkpt lat="41.8666610" lon="-8.8537640">
        <ele>3.5</ele>
        <time>2021-05-18T11:41:07Z</time>
      </trkpt>
      <trkpt lat="41.8666630" lon="-8.8537450">
        <ele>3.6</ele>
        <time>2021-05-18T11:41:08Z</time>
      </trkpt>
      <trkpt lat="41.8666590" lon="-8.8537270">
        <ele>3.6</ele>
        <time>2021-05-18T11:41:09Z</time>
      </trkpt>
      <trkpt lat="41.8666570" lon="-8.8537040">
        <ele>3.6</ele>
        <time>2021-05-18T11:41:10Z</time>
      </trkpt>
      <trkpt lat="41.8666550" lon="-8.8536760">
        <ele>3.6</ele>
        <time>2021-05-18T11:41:11Z</time>
      </trkpt>
      <trkpt lat="41.8666550" lon="-8.8536640">
        <ele>3.6</ele>
        <time>2021-05-18T11:41:12Z</time>
      </trkpt>
      <trkpt lat="41.8666540" lon="-8.8536520">
        <ele>3.6</ele>
        <time>2021-05-18T11:41:13Z</time>
      </trkpt>
      <trkpt lat="41.8666530" lon="-8.8536240">
        <ele>3.6</ele>
        <time>2021-05-18T11:41:14Z</time>
      </trkpt>
      <trkpt lat="41.8666500" lon="-8.8536110">
        <ele>3.6</ele>
        <time>2021-05-18T11:41:15Z</time>
      </trkpt>
      <trkpt lat="41.8666480" lon="-8.8535980">
        <ele>3.6</ele>
        <time>2021-05-18T11:41:16Z</time>
      </trkpt>
      <trkpt lat="41.8666430" lon="-8.8535690">
        <ele>3.6</ele>
        <time>2021-05-18T11:41:17Z</time>
      </trkpt>
      <trkpt lat="41.8666410" lon="-8.8535590">
        <ele>3.6</ele>
        <time>2021-05-18T11:41:18Z</time>
      </trkpt>
      <trkpt lat="41.8666390" lon="-8.8535480">
        <ele>3.6</ele>
        <time>2021-05-18T11:41:19Z</time>
      </trkpt>
      <trkpt lat="41.8666380" lon="-8.8535410">
        <ele>3.6</ele>
        <time>2021-05-18T11:41:20Z</time>
      </trkpt>
      <trkpt lat="41.8666360" lon="-8.8535150">
        <ele>3.6</ele>
        <time>2021-05-18T11:41:21Z</time>
      </trkpt>
      <trkpt lat="41.8666370" lon="-8.8535060">
        <ele>3.6</ele>
        <time>2021-05-18T11:41:22Z</time>
      </trkpt>
      <trkpt lat="41.8666370" lon="-8.8534670">
        <ele>3.6</ele>
        <time>2021-05-18T11:41:23Z</time>
      </trkpt>
      <trkpt lat="41.8666380" lon="-8.8534560">
        <ele>3.6</ele>
        <time>2021-05-18T11:41:24Z</time>
      </trkpt>
      <trkpt lat="41.8666340" lon="-8.8534290">
        <ele>3.6</ele>
        <time>2021-05-18T11:41:25Z</time>
      </trkpt>
      <trkpt lat="41.8666320" lon="-8.8534180">
        <ele>3.6</ele>
        <time>2021-05-18T11:41:26Z</time>
      </trkpt>
      <trkpt lat="41.8666290" lon="-8.8534070">
        <ele>3.6</ele>
        <time>2021-05-18T11:41:27Z</time>
      </trkpt>
      <trkpt lat="41.8666290" lon="-8.8533850">
        <ele>3.6</ele>
        <time>2021-05-18T11:41:28Z</time>
      </trkpt>
      <trkpt lat="41.8666270" lon="-8.8533650">
        <ele>3.6</ele>
        <time>2021-05-18T11:41:29Z</time>
      </trkpt>
      <trkpt lat="41.8666300" lon="-8.8533450">
        <ele>3.6</ele>
        <time>2021-05-18T11:41:30Z</time>
      </trkpt>
      <trkpt lat="41.8666260" lon="-8.8533290">
        <ele>3.6</ele>
        <time>2021-05-18T11:41:31Z</time>
      </trkpt>
      <trkpt lat="41.8666260" lon="-8.8533020">
        <ele>3.6</ele>
        <time>2021-05-18T11:41:32Z</time>
      </trkpt>
      <trkpt lat="41.8666240" lon="-8.8532870">
        <ele>3.6</ele>
        <time>2021-05-18T11:41:33Z</time>
      </trkpt>
      <trkpt lat="41.8666220" lon="-8.8532720">
        <ele>3.6</ele>
        <time>2021-05-18T11:41:34Z</time>
      </trkpt>
      <trkpt lat="41.8666200" lon="-8.8532640">
        <ele>3.6</ele>
        <time>2021-05-18T11:41:35Z</time>
      </trkpt>
      <trkpt lat="41.8666240" lon="-8.8532470">
        <ele>3.6</ele>
        <time>2021-05-18T11:41:36Z</time>
      </trkpt>
      <trkpt lat="41.8666250" lon="-8.8532310">
        <ele>3.6</ele>
        <time>2021-05-18T11:41:37Z</time>
      </trkpt>
      <trkpt lat="41.8666200" lon="-8.8532020">
        <ele>3.6</ele>
        <time>2021-05-18T11:41:38Z</time>
      </trkpt>
      <trkpt lat="41.8666180" lon="-8.8531890">
        <ele>3.6</ele>
        <time>2021-05-18T11:41:39Z</time>
      </trkpt>
      <trkpt lat="41.8666160" lon="-8.8531770">
        <ele>3.6</ele>
        <time>2021-05-18T11:41:40Z</time>
      </trkpt>
      <trkpt lat="41.8666130" lon="-8.8531610">
        <ele>3.6</ele>
        <time>2021-05-18T11:41:41Z</time>
      </trkpt>
      <trkpt lat="41.8666180" lon="-8.8531400">
        <ele>3.6</ele>
        <time>2021-05-18T11:41:42Z</time>
      </trkpt>
      <trkpt lat="41.8666160" lon="-8.8531120">
        <ele>3.6</ele>
        <time>2021-05-18T11:41:43Z</time>
      </trkpt>
      <trkpt lat="41.8666140" lon="-8.8531010">
        <ele>3.6</ele>
        <time>2021-05-18T11:41:44Z</time>
      </trkpt>
      <trkpt lat="41.8666110" lon="-8.8530910">
        <ele>3.6</ele>
        <time>2021-05-18T11:41:45Z</time>
      </trkpt>
      <trkpt lat="41.8666120" lon="-8.8530600">
        <ele>3.6</ele>
        <time>2021-05-18T11:41:46Z</time>
      </trkpt>
      <trkpt lat="41.8666110" lon="-8.8530490">
        <ele>3.6</ele>
        <time>2021-05-18T11:41:47Z</time>
      </trkpt>
      <trkpt lat="41.8666110" lon="-8.8530380">
        <ele>3.6</ele>
        <time>2021-05-18T11:41:48Z</time>
      </trkpt>
      <trkpt lat="41.8666140" lon="-8.8530110">
        <ele>3.6</ele>
        <time>2021-05-18T11:41:49Z</time>
      </trkpt>
      <trkpt lat="41.8666140" lon="-8.8529990">
        <ele>3.6</ele>
        <time>2021-05-18T11:41:50Z</time>
      </trkpt>
      <trkpt lat="41.8666150" lon="-8.8529880">
        <ele>3.6</ele>
        <time>2021-05-18T11:41:51Z</time>
      </trkpt>
      <trkpt lat="41.8666130" lon="-8.8529580">
        <ele>3.6</ele>
        <time>2021-05-18T11:41:52Z</time>
      </trkpt>
      <trkpt lat="41.8666140" lon="-8.8529480">
        <ele>3.6</ele>
        <time>2021-05-18T11:41:53Z</time>
      </trkpt>
      <trkpt lat="41.8666140" lon="-8.8529380">
        <ele>3.6</ele>
        <time>2021-05-18T11:41:54Z</time>
      </trkpt>
      <trkpt lat="41.8666100" lon="-8.8529210">
        <ele>3.6</ele>
        <time>2021-05-18T11:41:55Z</time>
      </trkpt>
      <trkpt lat="41.8666060" lon="-8.8529110">
        <ele>3.6</ele>
        <time>2021-05-18T11:41:56Z</time>
      </trkpt>
      <trkpt lat="41.8666070" lon="-8.8528960">
        <ele>3.6</ele>
        <time>2021-05-18T11:41:57Z</time>
      </trkpt>
      <trkpt lat="41.8666090" lon="-8.8528800">
        <ele>3.6</ele>
        <time>2021-05-18T11:41:58Z</time>
      </trkpt>
      <trkpt lat="41.8666090" lon="-8.8528600">
        <ele>3.6</ele>
        <time>2021-05-18T11:41:59Z</time>
      </trkpt>
      <trkpt lat="41.8666050" lon="-8.8528430">
        <ele>3.6</ele>
        <time>2021-05-18T11:42:00Z</time>
      </trkpt>
      <trkpt lat="41.8665970" lon="-8.8528270">
        <ele>3.6</ele>
        <time>2021-05-18T11:42:01Z</time>
      </trkpt>
      <trkpt lat="41.8665970" lon="-8.8527970">
        <ele>3.6</ele>
        <time>2021-05-18T11:42:02Z</time>
      </trkpt>
      <trkpt lat="41.8666000" lon="-8.8527870">
        <ele>3.6</ele>
        <time>2021-05-18T11:42:03Z</time>
      </trkpt>
      <trkpt lat="41.8666030" lon="-8.8527760">
        <ele>3.6</ele>
        <time>2021-05-18T11:42:04Z</time>
      </trkpt>
      <trkpt lat="41.8666050" lon="-8.8527450">
        <ele>3.6</ele>
        <time>2021-05-18T11:42:05Z</time>
      </trkpt>
      <trkpt lat="41.8666040" lon="-8.8527340">
        <ele>3.6</ele>
        <time>2021-05-18T11:42:06Z</time>
      </trkpt>
      <trkpt lat="41.8666040" lon="-8.8527230">
        <ele>3.6</ele>
        <time>2021-05-18T11:42:07Z</time>
      </trkpt>
      <trkpt lat="41.8666020" lon="-8.8526950">
        <ele>3.6</ele>
        <time>2021-05-18T11:42:08Z</time>
      </trkpt>
      <trkpt lat="41.8666010" lon="-8.8526820">
        <ele>3.6</ele>
        <time>2021-05-18T11:42:09Z</time>
      </trkpt>
      <trkpt lat="41.8665990" lon="-8.8526700">
        <ele>3.6</ele>
        <time>2021-05-18T11:42:10Z</time>
      </trkpt>
      <trkpt lat="41.8665960" lon="-8.8526380">
        <ele>3.6</ele>
        <time>2021-05-18T11:42:11Z</time>
      </trkpt>
      <trkpt lat="41.8665960" lon="-8.8526250">
        <ele>3.6</ele>
        <time>2021-05-18T11:42:12Z</time>
      </trkpt>
      <trkpt lat="41.8665970" lon="-8.8526110">
        <ele>3.6</ele>
        <time>2021-05-18T11:42:13Z</time>
      </trkpt>
      <trkpt lat="41.8665960" lon="-8.8525840">
        <ele>3.6</ele>
        <time>2021-05-18T11:42:14Z</time>
      </trkpt>
      <trkpt lat="41.8665950" lon="-8.8525720">
        <ele>3.6</ele>
        <time>2021-05-18T11:42:15Z</time>
      </trkpt>
      <trkpt lat="41.8665940" lon="-8.8525610">
        <ele>3.6</ele>
        <time>2021-05-18T11:42:16Z</time>
      </trkpt>
      <trkpt lat="41.8665990" lon="-8.8525340">
        <ele>3.6</ele>
        <time>2021-05-18T11:42:17Z</time>
      </trkpt>
      <trkpt lat="41.8666010" lon="-8.8525210">
        <ele>3.6</ele>
        <time>2021-05-18T11:42:18Z</time>
      </trkpt>
      <trkpt lat="41.8666030" lon="-8.8525080">
        <ele>3.6</ele>
        <time>2021-05-18T11:42:19Z</time>
      </trkpt>
      <trkpt lat="41.8665930" lon="-8.8524830">
        <ele>3.6</ele>
        <time>2021-05-18T11:42:20Z</time>
      </trkpt>
      <trkpt lat="41.8665930" lon="-8.8524700">
        <ele>3.6</ele>
        <time>2021-05-18T11:42:21Z</time>
      </trkpt>
      <trkpt lat="41.8665920" lon="-8.8524570">
        <ele>3.6</ele>
        <time>2021-05-18T11:42:22Z</time>
      </trkpt>
      <trkpt lat="41.8665920" lon="-8.8524490">
        <ele>3.6</ele>
        <time>2021-05-18T11:42:23Z</time>
      </trkpt>
      <trkpt lat="41.8665940" lon="-8.8524270">
        <ele>3.6</ele>
        <time>2021-05-18T11:42:24Z</time>
      </trkpt>
      <trkpt lat="41.8665880" lon="-8.8524100">
        <ele>3.6</ele>
        <time>2021-05-18T11:42:25Z</time>
      </trkpt>
      <trkpt lat="41.8665850" lon="-8.8524000">
        <ele>3.6</ele>
        <time>2021-05-18T11:42:26Z</time>
      </trkpt>
      <trkpt lat="41.8665770" lon="-8.8523780">
        <ele>3.6</ele>
        <time>2021-05-18T11:42:27Z</time>
      </trkpt>
      <trkpt lat="41.8665730" lon="-8.8523660">
        <ele>3.6</ele>
        <time>2021-05-18T11:42:28Z</time>
      </trkpt>
      <trkpt lat="41.8665710" lon="-8.8523430">
        <ele>3.6</ele>
        <time>2021-05-18T11:42:29Z</time>
      </trkpt>
      <trkpt lat="41.8665700" lon="-8.8523220">
        <ele>3.6</ele>
        <time>2021-05-18T11:42:30Z</time>
      </trkpt>
      <trkpt lat="41.8665680" lon="-8.8523120">
        <ele>3.6</ele>
        <time>2021-05-18T11:42:31Z</time>
      </trkpt>
      <trkpt lat="41.8665670" lon="-8.8522930">
        <ele>3.5</ele>
        <time>2021-05-18T11:42:32Z</time>
      </trkpt>
      <trkpt lat="41.8665620" lon="-8.8522800">
        <ele>3.5</ele>
        <time>2021-05-18T11:42:33Z</time>
      </trkpt>
      <trkpt lat="41.8665650" lon="-8.8522510">
        <ele>3.5</ele>
        <time>2021-05-18T11:42:34Z</time>
      </trkpt>
      <trkpt lat="41.8665630" lon="-8.8522390">
        <ele>3.5</ele>
        <time>2021-05-18T11:42:35Z</time>
      </trkpt>
      <trkpt lat="41.8665620" lon="-8.8522260">
        <ele>3.5</ele>
        <time>2021-05-18T11:42:36Z</time>
      </trkpt>
      <trkpt lat="41.8665660" lon="-8.8522130">
        <ele>3.5</ele>
        <time>2021-05-18T11:42:37Z</time>
      </trkpt>
      <trkpt lat="41.8665600" lon="-8.8521950">
        <ele>3.5</ele>
        <time>2021-05-18T11:42:38Z</time>
      </trkpt>
      <trkpt lat="41.8665560" lon="-8.8521790">
        <ele>3.5</ele>
        <time>2021-05-18T11:42:39Z</time>
      </trkpt>
      <trkpt lat="41.8665530" lon="-8.8521510">
        <ele>3.5</ele>
        <time>2021-05-18T11:42:40Z</time>
      </trkpt>
      <trkpt lat="41.8665520" lon="-8.8521380">
        <ele>3.5</ele>
        <time>2021-05-18T11:42:41Z</time>
      </trkpt>
      <trkpt lat="41.8665510" lon="-8.8521250">
        <ele>3.5</ele>
        <time>2021-05-18T11:42:42Z</time>
      </trkpt>
      <trkpt lat="41.8665550" lon="-8.8520950">
        <ele>3.5</ele>
        <time>2021-05-18T11:42:43Z</time>
      </trkpt>
      <trkpt lat="41.8665530" lon="-8.8520830">
        <ele>3.5</ele>
        <time>2021-05-18T11:42:44Z</time>
      </trkpt>
      <trkpt lat="41.8665520" lon="-8.8520720">
        <ele>3.5</ele>
        <time>2021-05-18T11:42:45Z</time>
      </trkpt>
      <trkpt lat="41.8665540" lon="-8.8520610">
        <ele>3.5</ele>
        <time>2021-05-18T11:42:46Z</time>
      </trkpt>
      <trkpt lat="41.8665470" lon="-8.8520410">
        <ele>3.5</ele>
        <time>2021-05-18T11:42:47Z</time>
      </trkpt>
      <trkpt lat="41.8665460" lon="-8.8520250">
        <ele>3.5</ele>
        <time>2021-05-18T11:42:48Z</time>
      </trkpt>
      <trkpt lat="41.8665490" lon="-8.8519950">
        <ele>3.5</ele>
        <time>2021-05-18T11:42:49Z</time>
      </trkpt>
      <trkpt lat="41.8665490" lon="-8.8519860">
        <ele>3.5</ele>
        <time>2021-05-18T11:42:50Z</time>
      </trkpt>
      <trkpt lat="41.8665480" lon="-8.8519760">
        <ele>3.5</ele>
        <time>2021-05-18T11:42:51Z</time>
      </trkpt>
      <trkpt lat="41.8665470" lon="-8.8519440">
        <ele>3.5</ele>
        <time>2021-05-18T11:42:52Z</time>
      </trkpt>
      <trkpt lat="41.8665500" lon="-8.8519310">
        <ele>3.5</ele>
        <time>2021-05-18T11:42:53Z</time>
      </trkpt>
      <trkpt lat="41.8665520" lon="-8.8519190">
        <ele>3.5</ele>
        <time>2021-05-18T11:42:54Z</time>
      </trkpt>
      <trkpt lat="41.8665510" lon="-8.8519010">
        <ele>3.5</ele>
        <time>2021-05-18T11:42:55Z</time>
      </trkpt>
      <trkpt lat="41.8665460" lon="-8.8518900">
        <ele>3.5</ele>
        <time>2021-05-18T11:42:56Z</time>
      </trkpt>
      <trkpt lat="41.8665390" lon="-8.8518750">
        <ele>3.5</ele>
        <time>2021-05-18T11:42:57Z</time>
      </trkpt>
      <trkpt lat="41.8665350" lon="-8.8518570">
        <ele>3.5</ele>
        <time>2021-05-18T11:42:58Z</time>
      </trkpt>
      <trkpt lat="41.8665320" lon="-8.8518370">
        <ele>3.5</ele>
        <time>2021-05-18T11:42:59Z</time>
      </trkpt>
      <trkpt lat="41.8665330" lon="-8.8518110">
        <ele>3.5</ele>
        <time>2021-05-18T11:43:00Z</time>
      </trkpt>
      <trkpt lat="41.8665340" lon="-8.8517980">
        <ele>3.5</ele>
        <time>2021-05-18T11:43:01Z</time>
      </trkpt>
      <trkpt lat="41.8665350" lon="-8.8517840">
        <ele>3.5</ele>
        <time>2021-05-18T11:43:02Z</time>
      </trkpt>
      <trkpt lat="41.8665320" lon="-8.8517700">
        <ele>3.5</ele>
        <time>2021-05-18T11:43:03Z</time>
      </trkpt>
      <trkpt lat="41.8665260" lon="-8.8517550">
        <ele>3.5</ele>
        <time>2021-05-18T11:43:04Z</time>
      </trkpt>
      <trkpt lat="41.8665220" lon="-8.8517430">
        <ele>3.5</ele>
        <time>2021-05-18T11:43:05Z</time>
      </trkpt>
      <trkpt lat="41.8665150" lon="-8.8517150">
        <ele>3.5</ele>
        <time>2021-05-18T11:43:06Z</time>
      </trkpt>
      <trkpt lat="41.8665120" lon="-8.8517050">
        <ele>3.5</ele>
        <time>2021-05-18T11:43:07Z</time>
      </trkpt>
      <trkpt lat="41.8665100" lon="-8.8516960">
        <ele>3.5</ele>
        <time>2021-05-18T11:43:08Z</time>
      </trkpt>
      <trkpt lat="41.8665070" lon="-8.8516620">
        <ele>3.5</ele>
        <time>2021-05-18T11:43:09Z</time>
      </trkpt>
      <trkpt lat="41.8665060" lon="-8.8516510">
        <ele>3.5</ele>
        <time>2021-05-18T11:43:10Z</time>
      </trkpt>
      <trkpt lat="41.8665040" lon="-8.8516400">
        <ele>3.5</ele>
        <time>2021-05-18T11:43:11Z</time>
      </trkpt>
      <trkpt lat="41.8665000" lon="-8.8516260">
        <ele>3.5</ele>
        <time>2021-05-18T11:43:12Z</time>
      </trkpt>
      <trkpt lat="41.8664960" lon="-8.8516140">
        <ele>3.5</ele>
        <time>2021-05-18T11:43:13Z</time>
      </trkpt>
      <trkpt lat="41.8664920" lon="-8.8515990">
        <ele>3.5</ele>
        <time>2021-05-18T11:43:14Z</time>
      </trkpt>
      <trkpt lat="41.8664920" lon="-8.8515750">
        <ele>3.5</ele>
        <time>2021-05-18T11:43:15Z</time>
      </trkpt>
      <trkpt lat="41.8664890" lon="-8.8515550">
        <ele>3.5</ele>
        <time>2021-05-18T11:43:16Z</time>
      </trkpt>
      <trkpt lat="41.8664870" lon="-8.8515450">
        <ele>3.5</ele>
        <time>2021-05-18T11:43:17Z</time>
      </trkpt>
      <trkpt lat="41.8664820" lon="-8.8515300">
        <ele>3.5</ele>
        <time>2021-05-18T11:43:18Z</time>
      </trkpt>
      <trkpt lat="41.8664810" lon="-8.8515080">
        <ele>3.5</ele>
        <time>2021-05-18T11:43:19Z</time>
      </trkpt>
      <trkpt lat="41.8664740" lon="-8.8514800">
        <ele>3.5</ele>
        <time>2021-05-18T11:43:20Z</time>
      </trkpt>
      <trkpt lat="41.8664720" lon="-8.8514700">
        <ele>3.5</ele>
        <time>2021-05-18T11:43:21Z</time>
      </trkpt>
      <trkpt lat="41.8664710" lon="-8.8514600">
        <ele>3.5</ele>
        <time>2021-05-18T11:43:22Z</time>
      </trkpt>
      <trkpt lat="41.8664690" lon="-8.8514300">
        <ele>3.5</ele>
        <time>2021-05-18T11:43:23Z</time>
      </trkpt>
      <trkpt lat="41.8664650" lon="-8.8514190">
        <ele>3.5</ele>
        <time>2021-05-18T11:43:24Z</time>
      </trkpt>
      <trkpt lat="41.8664620" lon="-8.8514090">
        <ele>3.5</ele>
        <time>2021-05-18T11:43:25Z</time>
      </trkpt>
      <trkpt lat="41.8664590" lon="-8.8513900">
        <ele>3.6</ele>
        <time>2021-05-18T11:43:26Z</time>
      </trkpt>
      <trkpt lat="41.8664590" lon="-8.8513720">
        <ele>3.6</ele>
        <time>2021-05-18T11:43:27Z</time>
      </trkpt>
      <trkpt lat="41.8664580" lon="-8.8513430">
        <ele>3.6</ele>
        <time>2021-05-18T11:43:28Z</time>
      </trkpt>
      <trkpt lat="41.8664550" lon="-8.8513300">
        <ele>3.6</ele>
        <time>2021-05-18T11:43:29Z</time>
      </trkpt>
      <trkpt lat="41.8664510" lon="-8.8513180">
        <ele>3.6</ele>
        <time>2021-05-18T11:43:30Z</time>
      </trkpt>
      <trkpt lat="41.8664470" lon="-8.8513070">
        <ele>3.6</ele>
        <time>2021-05-18T11:43:31Z</time>
      </trkpt>
      <trkpt lat="41.8664510" lon="-8.8512900">
        <ele>3.6</ele>
        <time>2021-05-18T11:43:32Z</time>
      </trkpt>
      <trkpt lat="41.8664440" lon="-8.8512750">
        <ele>3.6</ele>
        <time>2021-05-18T11:43:33Z</time>
      </trkpt>
      <trkpt lat="41.8664420" lon="-8.8512560">
        <ele>3.6</ele>
        <time>2021-05-18T11:43:34Z</time>
      </trkpt>
      <trkpt lat="41.8664360" lon="-8.8512390">
        <ele>3.6</ele>
        <time>2021-05-18T11:43:35Z</time>
      </trkpt>
      <trkpt lat="41.8664290" lon="-8.8512240">
        <ele>3.6</ele>
        <time>2021-05-18T11:43:36Z</time>
      </trkpt>
      <trkpt lat="41.8664300" lon="-8.8512000">
        <ele>3.6</ele>
        <time>2021-05-18T11:43:37Z</time>
      </trkpt>
      <trkpt lat="41.8664250" lon="-8.8511900">
        <ele>3.6</ele>
        <time>2021-05-18T11:43:38Z</time>
      </trkpt>
      <trkpt lat="41.8664210" lon="-8.8511720">
        <ele>3.6</ele>
        <time>2021-05-18T11:43:39Z</time>
      </trkpt>
      <trkpt lat="41.8664230" lon="-8.8511530">
        <ele>3.6</ele>
        <time>2021-05-18T11:43:40Z</time>
      </trkpt>
      <trkpt lat="41.8664190" lon="-8.8511280">
        <ele>3.6</ele>
        <time>2021-05-18T11:43:41Z</time>
      </trkpt>
      <trkpt lat="41.8664150" lon="-8.8511150">
        <ele>3.6</ele>
        <time>2021-05-18T11:43:42Z</time>
      </trkpt>
      <trkpt lat="41.8664120" lon="-8.8511030">
        <ele>3.6</ele>
        <time>2021-05-18T11:43:43Z</time>
      </trkpt>
      <trkpt lat="41.8664140" lon="-8.8510850">
        <ele>3.6</ele>
        <time>2021-05-18T11:43:44Z</time>
      </trkpt>
      <trkpt lat="41.8664090" lon="-8.8510650">
        <ele>3.6</ele>
        <time>2021-05-18T11:43:45Z</time>
      </trkpt>
      <trkpt lat="41.8664040" lon="-8.8510550">
        <ele>3.6</ele>
        <time>2021-05-18T11:43:46Z</time>
      </trkpt>
      <trkpt lat="41.8664050" lon="-8.8510380">
        <ele>3.6</ele>
        <time>2021-05-18T11:43:47Z</time>
      </trkpt>
      <trkpt lat="41.8664000" lon="-8.8510200">
        <ele>3.6</ele>
        <time>2021-05-18T11:43:48Z</time>
      </trkpt>
      <trkpt lat="41.8664010" lon="-8.8510030">
        <ele>3.6</ele>
        <time>2021-05-18T11:43:49Z</time>
      </trkpt>
      <trkpt lat="41.8663990" lon="-8.8509950">
        <ele>3.6</ele>
        <time>2021-05-18T11:43:50Z</time>
      </trkpt>
      <trkpt lat="41.8663980" lon="-8.8509750">
        <ele>3.6</ele>
        <time>2021-05-18T11:43:51Z</time>
      </trkpt>
      <trkpt lat="41.8663950" lon="-8.8509540">
        <ele>3.6</ele>
        <time>2021-05-18T11:43:52Z</time>
      </trkpt>
      <trkpt lat="41.8663880" lon="-8.8509390">
        <ele>3.6</ele>
        <time>2021-05-18T11:43:53Z</time>
      </trkpt>
      <trkpt lat="41.8663910" lon="-8.8509170">
        <ele>3.6</ele>
        <time>2021-05-18T11:43:54Z</time>
      </trkpt>
      <trkpt lat="41.8663870" lon="-8.8508960">
        <ele>3.6</ele>
        <time>2021-05-18T11:43:55Z</time>
      </trkpt>
      <trkpt lat="41.8663790" lon="-8.8508750">
        <ele>3.6</ele>
        <time>2021-05-18T11:43:56Z</time>
      </trkpt>
      <trkpt lat="41.8663750" lon="-8.8508550">
        <ele>3.6</ele>
        <time>2021-05-18T11:43:57Z</time>
      </trkpt>
      <trkpt lat="41.8663720" lon="-8.8508330">
        <ele>3.6</ele>
        <time>2021-05-18T11:43:58Z</time>
      </trkpt>
      <trkpt lat="41.8663690" lon="-8.8508150">
        <ele>3.6</ele>
        <time>2021-05-18T11:43:59Z</time>
      </trkpt>
      <trkpt lat="41.8663650" lon="-8.8507940">
        <ele>3.6</ele>
        <time>2021-05-18T11:44:00Z</time>
      </trkpt>
      <trkpt lat="41.8663620" lon="-8.8507740">
        <ele>3.6</ele>
        <time>2021-05-18T11:44:01Z</time>
      </trkpt>
      <trkpt lat="41.8663590" lon="-8.8507540">
        <ele>3.6</ele>
        <time>2021-05-18T11:44:02Z</time>
      </trkpt>
      <trkpt lat="41.8663570" lon="-8.8507340">
        <ele>3.6</ele>
        <time>2021-05-18T11:44:03Z</time>
      </trkpt>
      <trkpt lat="41.8663510" lon="-8.8507150">
        <ele>3.6</ele>
        <time>2021-05-18T11:44:04Z</time>
      </trkpt>
      <trkpt lat="41.8663500" lon="-8.8506970">
        <ele>3.6</ele>
        <time>2021-05-18T11:44:05Z</time>
      </trkpt>
      <trkpt lat="41.8663420" lon="-8.8506780">
        <ele>3.6</ele>
        <time>2021-05-18T11:44:06Z</time>
      </trkpt>
      <trkpt lat="41.8663400" lon="-8.8506610">
        <ele>3.6</ele>
        <time>2021-05-18T11:44:07Z</time>
      </trkpt>
      <trkpt lat="41.8663340" lon="-8.8506340">
        <ele>3.6</ele>
        <time>2021-05-18T11:44:08Z</time>
      </trkpt>
      <trkpt lat="41.8663320" lon="-8.8506220">
        <ele>3.7</ele>
        <time>2021-05-18T11:44:09Z</time>
      </trkpt>
      <trkpt lat="41.8663300" lon="-8.8506100">
        <ele>3.7</ele>
        <time>2021-05-18T11:44:10Z</time>
      </trkpt>
      <trkpt lat="41.8663280" lon="-8.8505910">
        <ele>3.7</ele>
        <time>2021-05-18T11:44:11Z</time>
      </trkpt>
      <trkpt lat="41.8663190" lon="-8.8505770">
        <ele>3.7</ele>
        <time>2021-05-18T11:44:12Z</time>
      </trkpt>
      <trkpt lat="41.8663090" lon="-8.8505650">
        <ele>3.7</ele>
        <time>2021-05-18T11:44:13Z</time>
      </trkpt>
      <trkpt lat="41.8663060" lon="-8.8505440">
        <ele>3.7</ele>
        <time>2021-05-18T11:44:14Z</time>
      </trkpt>
      <trkpt lat="41.8663010" lon="-8.8505260">
        <ele>3.7</ele>
        <time>2021-05-18T11:44:15Z</time>
      </trkpt>
      <trkpt lat="41.8662950" lon="-8.8505090">
        <ele>3.7</ele>
        <time>2021-05-18T11:44:16Z</time>
      </trkpt>
      <trkpt lat="41.8662850" lon="-8.8504820">
        <ele>3.7</ele>
        <time>2021-05-18T11:44:17Z</time>
      </trkpt>
      <trkpt lat="41.8662780" lon="-8.8504740">
        <ele>3.7</ele>
        <time>2021-05-18T11:44:18Z</time>
      </trkpt>
      <trkpt lat="41.8662720" lon="-8.8504660">
        <ele>3.7</ele>
        <time>2021-05-18T11:44:19Z</time>
      </trkpt>
      <trkpt lat="41.8662580" lon="-8.8504570">
        <ele>3.7</ele>
        <time>2021-05-18T11:44:20Z</time>
      </trkpt>
      <trkpt lat="41.8662480" lon="-8.8504460">
        <ele>3.7</ele>
        <time>2021-05-18T11:44:21Z</time>
      </trkpt>
      <trkpt lat="41.8662370" lon="-8.8504360">
        <ele>3.7</ele>
        <time>2021-05-18T11:44:22Z</time>
      </trkpt>
      <trkpt lat="41.8662250" lon="-8.8504220">
        <ele>3.7</ele>
        <time>2021-05-18T11:44:23Z</time>
      </trkpt>
      <trkpt lat="41.8662120" lon="-8.8504140">
        <ele>3.7</ele>
        <time>2021-05-18T11:44:24Z</time>
      </trkpt>
      <trkpt lat="41.8661990" lon="-8.8504060">
        <ele>3.7</ele>
        <time>2021-05-18T11:44:25Z</time>
      </trkpt>
      <trkpt lat="41.8661870" lon="-8.8504030">
        <ele>3.7</ele>
        <time>2021-05-18T11:44:26Z</time>
      </trkpt>
      <trkpt lat="41.8661710" lon="-8.8504020">
        <ele>3.7</ele>
        <time>2021-05-18T11:44:27Z</time>
      </trkpt>
      <trkpt lat="41.8661510" lon="-8.8503920">
        <ele>3.7</ele>
        <time>2021-05-18T11:44:28Z</time>
      </trkpt>
      <trkpt lat="41.8661430" lon="-8.8503890">
        <ele>3.7</ele>
        <time>2021-05-18T11:44:29Z</time>
      </trkpt>
      <trkpt lat="41.8661350" lon="-8.8503850">
        <ele>3.7</ele>
        <time>2021-05-18T11:44:30Z</time>
      </trkpt>
      <trkpt lat="41.8661120" lon="-8.8503820">
        <ele>3.7</ele>
        <time>2021-05-18T11:44:31Z</time>
      </trkpt>
      <trkpt lat="41.8661020" lon="-8.8503790">
        <ele>3.8</ele>
        <time>2021-05-18T11:44:32Z</time>
      </trkpt>
      <trkpt lat="41.8660930" lon="-8.8503760">
        <ele>3.8</ele>
        <time>2021-05-18T11:44:33Z</time>
      </trkpt>
      <trkpt lat="41.8660770" lon="-8.8503750">
        <ele>3.8</ele>
        <time>2021-05-18T11:44:34Z</time>
      </trkpt>
      <trkpt lat="41.8660640" lon="-8.8503640">
        <ele>3.8</ele>
        <time>2021-05-18T11:44:35Z</time>
      </trkpt>
      <trkpt lat="41.8660520" lon="-8.8503590">
        <ele>3.8</ele>
        <time>2021-05-18T11:44:36Z</time>
      </trkpt>
      <trkpt lat="41.8660410" lon="-8.8503500">
        <ele>3.8</ele>
        <time>2021-05-18T11:44:37Z</time>
      </trkpt>
      <trkpt lat="41.8660310" lon="-8.8503460">
        <ele>3.8</ele>
        <time>2021-05-18T11:44:38Z</time>
      </trkpt>
      <trkpt lat="41.8660190" lon="-8.8503380">
        <ele>3.8</ele>
        <time>2021-05-18T11:44:39Z</time>
      </trkpt>
      <trkpt lat="41.8660110" lon="-8.8503360">
        <ele>3.8</ele>
        <time>2021-05-18T11:44:40Z</time>
      </trkpt>
      <trkpt lat="41.8660050" lon="-8.8503320">
        <ele>3.8</ele>
        <time>2021-05-18T11:44:41Z</time>
      </trkpt>
      <trkpt lat="41.8659970" lon="-8.8503290">
        <ele>3.8</ele>
        <time>2021-05-18T11:44:42Z</time>
      </trkpt>
      <trkpt lat="41.8659840" lon="-8.8503210">
        <ele>3.8</ele>
        <time>2021-05-18T11:44:43Z</time>
      </trkpt>
      <trkpt lat="41.8659750" lon="-8.8503160">
        <ele>3.8</ele>
        <time>2021-05-18T11:44:44Z</time>
      </trkpt>
      <trkpt lat="41.8659620" lon="-8.8503130">
        <ele>3.8</ele>
        <time>2021-05-18T11:44:45Z</time>
      </trkpt>
      <trkpt lat="41.8659500" lon="-8.8503070">
        <ele>3.8</ele>
        <time>2021-05-18T11:44:46Z</time>
      </trkpt>
      <trkpt lat="41.8659450" lon="-8.8502980">
        <ele>3.8</ele>
        <time>2021-05-18T11:44:47Z</time>
      </trkpt>
      <trkpt lat="41.8659230" lon="-8.8502940">
        <ele>3.8</ele>
        <time>2021-05-18T11:44:48Z</time>
      </trkpt>
      <trkpt lat="41.8659150" lon="-8.8502930">
        <ele>3.8</ele>
        <time>2021-05-18T11:44:49Z</time>
      </trkpt>
      <trkpt lat="41.8659060" lon="-8.8502930">
        <ele>3.8</ele>
        <time>2021-05-18T11:44:50Z</time>
      </trkpt>
      <trkpt lat="41.8658990" lon="-8.8502770">
        <ele>3.8</ele>
        <time>2021-05-18T11:44:51Z</time>
      </trkpt>
      <trkpt lat="41.8658980" lon="-8.8502670">
        <ele>3.8</ele>
        <time>2021-05-18T11:44:52Z</time>
      </trkpt>
      <trkpt lat="41.8658960" lon="-8.8502560">
        <ele>3.8</ele>
        <time>2021-05-18T11:44:53Z</time>
      </trkpt>
      <trkpt lat="41.8658950" lon="-8.8502460">
        <ele>3.8</ele>
        <time>2021-05-18T11:44:54Z</time>
      </trkpt>
      <trkpt lat="41.8658920" lon="-8.8502290">
        <ele>3.8</ele>
        <time>2021-05-18T11:44:55Z</time>
      </trkpt>
      <trkpt lat="41.8658920" lon="-8.8502290">
        <ele>3.8</ele>
        <time>2021-05-18T11:44:56Z</time>
      </trkpt>
      <trkpt lat="41.8658860" lon="-8.8502220">
        <ele>3.8</ele>
        <time>2021-05-18T11:44:57Z</time>
      </trkpt>
      <trkpt lat="41.8658850" lon="-8.8502150">
        <ele>3.8</ele>
        <time>2021-05-18T11:44:58Z</time>
      </trkpt>
      <trkpt lat="41.8658830" lon="-8.8502060">
        <ele>3.8</ele>
        <time>2021-05-18T11:44:59Z</time>
      </trkpt>
      <trkpt lat="41.8658770" lon="-8.8501670">
        <ele>3.7</ele>
        <time>2021-05-18T11:45:00Z</time>
      </trkpt>
      <trkpt lat="41.8658740" lon="-8.8501560">
        <ele>3.7</ele>
        <time>2021-05-18T11:45:01Z</time>
      </trkpt>
      <trkpt lat="41.8658740" lon="-8.8501330">
        <ele>3.7</ele>
        <time>2021-05-18T11:45:02Z</time>
      </trkpt>
      <trkpt lat="41.8658720" lon="-8.8501080">
        <ele>3.7</ele>
        <time>2021-05-18T11:45:03Z</time>
      </trkpt>
      <trkpt lat="41.8658690" lon="-8.8500870">
        <ele>3.7</ele>
        <time>2021-05-18T11:45:04Z</time>
      </trkpt>
      <trkpt lat="41.8658650" lon="-8.8500700">
        <ele>3.7</ele>
        <time>2021-05-18T11:45:05Z</time>
      </trkpt>
      <trkpt lat="41.8658600" lon="-8.8500500">
        <ele>3.7</ele>
        <time>2021-05-18T11:45:06Z</time>
      </trkpt>
      <trkpt lat="41.8658530" lon="-8.8500310">
        <ele>3.7</ele>
        <time>2021-05-18T11:45:07Z</time>
      </trkpt>
      <trkpt lat="41.8658450" lon="-8.8500120">
        <ele>3.7</ele>
        <time>2021-05-18T11:45:08Z</time>
      </trkpt>
      <trkpt lat="41.8658370" lon="-8.8499950">
        <ele>3.7</ele>
        <time>2021-05-18T11:45:09Z</time>
      </trkpt>
      <trkpt lat="41.8658290" lon="-8.8499750">
        <ele>3.7</ele>
        <time>2021-05-18T11:45:10Z</time>
      </trkpt>
      <trkpt lat="41.8658190" lon="-8.8499630">
        <ele>3.7</ele>
        <time>2021-05-18T11:45:11Z</time>
      </trkpt>
      <trkpt lat="41.8658100" lon="-8.8499530">
        <ele>3.7</ele>
        <time>2021-05-18T11:45:12Z</time>
      </trkpt>
      <trkpt lat="41.8658090" lon="-8.8499400">
        <ele>3.7</ele>
        <time>2021-05-18T11:45:13Z</time>
      </trkpt>
      <trkpt lat="41.8658040" lon="-8.8499330">
        <ele>3.7</ele>
        <time>2021-05-18T11:45:14Z</time>
      </trkpt>
      <trkpt lat="41.8658000" lon="-8.8499260">
        <ele>3.7</ele>
        <time>2021-05-18T11:45:15Z</time>
      </trkpt>
      <trkpt lat="41.8657910" lon="-8.8499090">
        <ele>3.7</ele>
        <time>2021-05-18T11:45:16Z</time>
      </trkpt>
      <trkpt lat="41.8657870" lon="-8.8499000">
        <ele>3.7</ele>
        <time>2021-05-18T11:45:17Z</time>
      </trkpt>
      <trkpt lat="41.8657830" lon="-8.8498900">
        <ele>3.7</ele>
        <time>2021-05-18T11:45:18Z</time>
      </trkpt>
      <trkpt lat="41.8657790" lon="-8.8498810">
        <ele>3.7</ele>
        <time>2021-05-18T11:45:19Z</time>
      </trkpt>
      <trkpt lat="41.8657740" lon="-8.8498690">
        <ele>3.7</ele>
        <time>2021-05-18T11:45:20Z</time>
      </trkpt>
      <trkpt lat="41.8657680" lon="-8.8498540">
        <ele>3.7</ele>
        <time>2021-05-18T11:45:21Z</time>
      </trkpt>
      <trkpt lat="41.8657630" lon="-8.8498430">
        <ele>3.7</ele>
        <time>2021-05-18T11:45:22Z</time>
      </trkpt>
      <trkpt lat="41.8657600" lon="-8.8498290">
        <ele>3.7</ele>
        <time>2021-05-18T11:45:23Z</time>
      </trkpt>
      <trkpt lat="41.8657560" lon="-8.8498110">
        <ele>3.7</ele>
        <time>2021-05-18T11:45:24Z</time>
      </trkpt>
      <trkpt lat="41.8657500" lon="-8.8498020">
        <ele>3.7</ele>
        <time>2021-05-18T11:45:25Z</time>
      </trkpt>
      <trkpt lat="41.8657440" lon="-8.8497950">
        <ele>3.7</ele>
        <time>2021-05-18T11:45:26Z</time>
      </trkpt>
      <trkpt lat="41.8657360" lon="-8.8497840">
        <ele>3.7</ele>
        <time>2021-05-18T11:45:27Z</time>
      </trkpt>
      <trkpt lat="41.8657360" lon="-8.8497700">
        <ele>3.7</ele>
        <time>2021-05-18T11:45:28Z</time>
      </trkpt>
      <trkpt lat="41.8657380" lon="-8.8497470">
        <ele>3.7</ele>
        <time>2021-05-18T11:45:29Z</time>
      </trkpt>
      <trkpt lat="41.8657420" lon="-8.8497350">
        <ele>3.6</ele>
        <time>2021-05-18T11:45:30Z</time>
      </trkpt>
      <trkpt lat="41.8657450" lon="-8.8497240">
        <ele>3.6</ele>
        <time>2021-05-18T11:45:31Z</time>
      </trkpt>
      <trkpt lat="41.8657480" lon="-8.8497120">
        <ele>3.6</ele>
        <time>2021-05-18T11:45:32Z</time>
      </trkpt>
      <trkpt lat="41.8657520" lon="-8.8497080">
        <ele>3.6</ele>
        <time>2021-05-18T11:45:33Z</time>
      </trkpt>
      <trkpt lat="41.8657600" lon="-8.8496990">
        <ele>3.6</ele>
        <time>2021-05-18T11:45:34Z</time>
      </trkpt>
      <trkpt lat="41.8657650" lon="-8.8496920">
        <ele>3.6</ele>
        <time>2021-05-18T11:45:35Z</time>
      </trkpt>
      <trkpt lat="41.8657720" lon="-8.8496790">
        <ele>3.6</ele>
        <time>2021-05-18T11:45:36Z</time>
      </trkpt>
      <trkpt lat="41.8657700" lon="-8.8496670">
        <ele>3.6</ele>
        <time>2021-05-18T11:45:37Z</time>
      </trkpt>
      <trkpt lat="41.8657800" lon="-8.8496560">
        <ele>3.6</ele>
        <time>2021-05-18T11:45:38Z</time>
      </trkpt>
      <trkpt lat="41.8657900" lon="-8.8496460">
        <ele>3.6</ele>
        <time>2021-05-18T11:45:39Z</time>
      </trkpt>
      <trkpt lat="41.8658030" lon="-8.8496310">
        <ele>3.6</ele>
        <time>2021-05-18T11:45:40Z</time>
      </trkpt>
      <trkpt lat="41.8658080" lon="-8.8496210">
        <ele>3.6</ele>
        <time>2021-05-18T11:45:41Z</time>
      </trkpt>
      <trkpt lat="41.8658130" lon="-8.8496110">
        <ele>3.6</ele>
        <time>2021-05-18T11:45:42Z</time>
      </trkpt>
      <trkpt lat="41.8658180" lon="-8.8496010">
        <ele>3.6</ele>
        <time>2021-05-18T11:45:43Z</time>
      </trkpt>
      <trkpt lat="41.8658140" lon="-8.8495920">
        <ele>3.6</ele>
        <time>2021-05-18T11:45:44Z</time>
      </trkpt>
      <trkpt lat="41.8658170" lon="-8.8495750">
        <ele>3.6</ele>
        <time>2021-05-18T11:45:45Z</time>
      </trkpt>
      <trkpt lat="41.8658250" lon="-8.8495570">
        <ele>3.6</ele>
        <time>2021-05-18T11:45:46Z</time>
      </trkpt>
      <trkpt lat="41.8658310" lon="-8.8495310">
        <ele>3.6</ele>
        <time>2021-05-18T11:45:47Z</time>
      </trkpt>
      <trkpt lat="41.8658330" lon="-8.8495170">
        <ele>3.6</ele>
        <time>2021-05-18T11:45:48Z</time>
      </trkpt>
      <trkpt lat="41.8658350" lon="-8.8495040">
        <ele>3.6</ele>
        <time>2021-05-18T11:45:49Z</time>
      </trkpt>
      <trkpt lat="41.8658280" lon="-8.8494860">
        <ele>3.6</ele>
        <time>2021-05-18T11:45:50Z</time>
      </trkpt>
      <trkpt lat="41.8658230" lon="-8.8494610">
        <ele>3.6</ele>
        <time>2021-05-18T11:45:51Z</time>
      </trkpt>
      <trkpt lat="41.8658230" lon="-8.8494460">
        <ele>3.6</ele>
        <time>2021-05-18T11:45:52Z</time>
      </trkpt>
      <trkpt lat="41.8658220" lon="-8.8494230">
        <ele>3.6</ele>
        <time>2021-05-18T11:45:53Z</time>
      </trkpt>
      <trkpt lat="41.8658370" lon="-8.8494180">
        <ele>3.6</ele>
        <time>2021-05-18T11:45:54Z</time>
      </trkpt>
      <trkpt lat="41.8658420" lon="-8.8493980">
        <ele>3.6</ele>
        <time>2021-05-18T11:45:55Z</time>
      </trkpt>
      <trkpt lat="41.8658570" lon="-8.8493760">
        <ele>3.6</ele>
        <time>2021-05-18T11:45:56Z</time>
      </trkpt>
      <trkpt lat="41.8658570" lon="-8.8493650">
        <ele>3.6</ele>
        <time>2021-05-18T11:45:57Z</time>
      </trkpt>
      <trkpt lat="41.8658580" lon="-8.8493530">
        <ele>3.6</ele>
        <time>2021-05-18T11:45:58Z</time>
      </trkpt>
      <trkpt lat="41.8658660" lon="-8.8493300">
        <ele>3.6</ele>
        <time>2021-05-18T11:45:59Z</time>
      </trkpt>
      <trkpt lat="41.8658580" lon="-8.8493110">
        <ele>3.6</ele>
        <time>2021-05-18T11:46:00Z</time>
      </trkpt>
      <trkpt lat="41.8658680" lon="-8.8492960">
        <ele>3.6</ele>
        <time>2021-05-18T11:46:01Z</time>
      </trkpt>
      <trkpt lat="41.8658770" lon="-8.8492800">
        <ele>3.6</ele>
        <time>2021-05-18T11:46:02Z</time>
      </trkpt>
      <trkpt lat="41.8658820" lon="-8.8492660">
        <ele>3.6</ele>
        <time>2021-05-18T11:46:03Z</time>
      </trkpt>
      <trkpt lat="41.8658850" lon="-8.8492550">
        <ele>3.6</ele>
        <time>2021-05-18T11:46:04Z</time>
      </trkpt>
      <trkpt lat="41.8658830" lon="-8.8492400">
        <ele>3.6</ele>
        <time>2021-05-18T11:46:05Z</time>
      </trkpt>
      <trkpt lat="41.8658930" lon="-8.8492210">
        <ele>3.6</ele>
        <time>2021-05-18T11:46:06Z</time>
      </trkpt>
      <trkpt lat="41.8658990" lon="-8.8492080">
        <ele>3.6</ele>
        <time>2021-05-18T11:46:07Z</time>
      </trkpt>
      <trkpt lat="41.8659130" lon="-8.8491780">
        <ele>3.6</ele>
        <time>2021-05-18T11:46:08Z</time>
      </trkpt>
      <trkpt lat="41.8659190" lon="-8.8491680">
        <ele>3.6</ele>
        <time>2021-05-18T11:46:09Z</time>
      </trkpt>
      <trkpt lat="41.8659250" lon="-8.8491570">
        <ele>3.6</ele>
        <time>2021-05-18T11:46:10Z</time>
      </trkpt>
      <trkpt lat="41.8659340" lon="-8.8491350">
        <ele>3.6</ele>
        <time>2021-05-18T11:46:11Z</time>
      </trkpt>
      <trkpt lat="41.8659420" lon="-8.8491140">
        <ele>3.6</ele>
        <time>2021-05-18T11:46:12Z</time>
      </trkpt>
      <trkpt lat="41.8659540" lon="-8.8490970">
        <ele>3.6</ele>
        <time>2021-05-18T11:46:13Z</time>
      </trkpt>
      <trkpt lat="41.8659640" lon="-8.8490790">
        <ele>3.6</ele>
        <time>2021-05-18T11:46:14Z</time>
      </trkpt>
      <trkpt lat="41.8659750" lon="-8.8490640">
        <ele>3.6</ele>
        <time>2021-05-18T11:46:15Z</time>
      </trkpt>
      <trkpt lat="41.8659830" lon="-8.8490470">
        <ele>3.6</ele>
        <time>2021-05-18T11:46:16Z</time>
      </trkpt>
      <trkpt lat="41.8659880" lon="-8.8490270">
        <ele>3.6</ele>
        <time>2021-05-18T11:46:17Z</time>
      </trkpt>
      <trkpt lat="41.8659920" lon="-8.8490100">
        <ele>3.6</ele>
        <time>2021-05-18T11:46:18Z</time>
      </trkpt>
      <trkpt lat="41.8660030" lon="-8.8489900">
        <ele>3.6</ele>
        <time>2021-05-18T11:46:19Z</time>
      </trkpt>
      <trkpt lat="41.8660080" lon="-8.8489720">
        <ele>3.6</ele>
        <time>2021-05-18T11:46:20Z</time>
      </trkpt>
      <trkpt lat="41.8660150" lon="-8.8489440">
        <ele>3.6</ele>
        <time>2021-05-18T11:46:21Z</time>
      </trkpt>
      <trkpt lat="41.8660170" lon="-8.8489320">
        <ele>3.6</ele>
        <time>2021-05-18T11:46:22Z</time>
      </trkpt>
      <trkpt lat="41.8660190" lon="-8.8489200">
        <ele>3.6</ele>
        <time>2021-05-18T11:46:23Z</time>
      </trkpt>
      <trkpt lat="41.8660210" lon="-8.8489090">
        <ele>3.6</ele>
        <time>2021-05-18T11:46:24Z</time>
      </trkpt>
      <trkpt lat="41.8660250" lon="-8.8488960">
        <ele>3.6</ele>
        <time>2021-05-18T11:46:25Z</time>
      </trkpt>
      <trkpt lat="41.8660270" lon="-8.8488790">
        <ele>3.6</ele>
        <time>2021-05-18T11:46:26Z</time>
      </trkpt>
      <trkpt lat="41.8660300" lon="-8.8488500">
        <ele>3.6</ele>
        <time>2021-05-18T11:46:27Z</time>
      </trkpt>
      <trkpt lat="41.8660320" lon="-8.8488380">
        <ele>3.6</ele>
        <time>2021-05-18T11:46:28Z</time>
      </trkpt>
      <trkpt lat="41.8660330" lon="-8.8488270">
        <ele>3.6</ele>
        <time>2021-05-18T11:46:29Z</time>
      </trkpt>
      <trkpt lat="41.8660330" lon="-8.8488130">
        <ele>3.6</ele>
        <time>2021-05-18T11:46:30Z</time>
      </trkpt>
      <trkpt lat="41.8660310" lon="-8.8488030">
        <ele>3.6</ele>
        <time>2021-05-18T11:46:31Z</time>
      </trkpt>
      <trkpt lat="41.8660310" lon="-8.8487870">
        <ele>3.6</ele>
        <time>2021-05-18T11:46:32Z</time>
      </trkpt>
      <trkpt lat="41.8660380" lon="-8.8487640">
        <ele>3.6</ele>
        <time>2021-05-18T11:46:33Z</time>
      </trkpt>
      <trkpt lat="41.8660410" lon="-8.8487450">
        <ele>3.6</ele>
        <time>2021-05-18T11:46:34Z</time>
      </trkpt>
      <trkpt lat="41.8660500" lon="-8.8487290">
        <ele>3.6</ele>
        <time>2021-05-18T11:46:35Z</time>
      </trkpt>
      <trkpt lat="41.8660510" lon="-8.8487200">
        <ele>3.6</ele>
        <time>2021-05-18T11:46:36Z</time>
      </trkpt>
      <trkpt lat="41.8660580" lon="-8.8487020">
        <ele>3.6</ele>
        <time>2021-05-18T11:46:37Z</time>
      </trkpt>
      <trkpt lat="41.8660580" lon="-8.8486840">
        <ele>3.6</ele>
        <time>2021-05-18T11:46:38Z</time>
      </trkpt>
      <trkpt lat="41.8660610" lon="-8.8486610">
        <ele>3.6</ele>
        <time>2021-05-18T11:46:39Z</time>
      </trkpt>
      <trkpt lat="41.8660640" lon="-8.8486440">
        <ele>3.6</ele>
        <time>2021-05-18T11:46:40Z</time>
      </trkpt>
      <trkpt lat="41.8660720" lon="-8.8486270">
        <ele>3.6</ele>
        <time>2021-05-18T11:46:41Z</time>
      </trkpt>
      <trkpt lat="41.8660790" lon="-8.8486030">
        <ele>3.6</ele>
        <time>2021-05-18T11:46:42Z</time>
      </trkpt>
      <trkpt lat="41.8660860" lon="-8.8485930">
        <ele>3.6</ele>
        <time>2021-05-18T11:46:43Z</time>
      </trkpt>
      <trkpt lat="41.8660920" lon="-8.8485830">
        <ele>3.6</ele>
        <time>2021-05-18T11:46:44Z</time>
      </trkpt>
      <trkpt lat="41.8660970" lon="-8.8485540">
        <ele>3.6</ele>
        <time>2021-05-18T11:46:45Z</time>
      </trkpt>
      <trkpt lat="41.8660960" lon="-8.8485400">
        <ele>3.6</ele>
        <time>2021-05-18T11:46:46Z</time>
      </trkpt>
      <trkpt lat="41.8660950" lon="-8.8485260">
        <ele>3.6</ele>
        <time>2021-05-18T11:46:47Z</time>
      </trkpt>
      <trkpt lat="41.8661030" lon="-8.8485120">
        <ele>3.6</ele>
        <time>2021-05-18T11:46:48Z</time>
      </trkpt>
      <trkpt lat="41.8660990" lon="-8.8484980">
        <ele>3.6</ele>
        <time>2021-05-18T11:46:49Z</time>
      </trkpt>
      <trkpt lat="41.8661020" lon="-8.8484810">
        <ele>3.6</ele>
        <time>2021-05-18T11:46:50Z</time>
      </trkpt>
      <trkpt lat="41.8661190" lon="-8.8484570">
        <ele>3.6</ele>
        <time>2021-05-18T11:46:51Z</time>
      </trkpt>
      <trkpt lat="41.8661250" lon="-8.8484490">
        <ele>3.6</ele>
        <time>2021-05-18T11:46:52Z</time>
      </trkpt>
      <trkpt lat="41.8661300" lon="-8.8484400">
        <ele>3.6</ele>
        <time>2021-05-18T11:46:53Z</time>
      </trkpt>
      <trkpt lat="41.8661310" lon="-8.8484240">
        <ele>3.6</ele>
        <time>2021-05-18T11:46:54Z</time>
      </trkpt>
      <trkpt lat="41.8661360" lon="-8.8484100">
        <ele>3.6</ele>
        <time>2021-05-18T11:46:55Z</time>
      </trkpt>
      <trkpt lat="41.8661370" lon="-8.8483950">
        <ele>3.6</ele>
        <time>2021-05-18T11:46:56Z</time>
      </trkpt>
      <trkpt lat="41.8661500" lon="-8.8483660">
        <ele>3.6</ele>
        <time>2021-05-18T11:46:57Z</time>
      </trkpt>
      <trkpt lat="41.8661510" lon="-8.8483570">
        <ele>3.6</ele>
        <time>2021-05-18T11:46:58Z</time>
      </trkpt>
      <trkpt lat="41.8661520" lon="-8.8483470">
        <ele>3.7</ele>
        <time>2021-05-18T11:46:59Z</time>
      </trkpt>
      <trkpt lat="41.8661550" lon="-8.8483170">
        <ele>3.7</ele>
        <time>2021-05-18T11:47:00Z</time>
      </trkpt>
      <trkpt lat="41.8661530" lon="-8.8483060">
        <ele>3.7</ele>
        <time>2021-05-18T11:47:01Z</time>
      </trkpt>
      <trkpt lat="41.8661520" lon="-8.8482960">
        <ele>3.7</ele>
        <time>2021-05-18T11:47:02Z</time>
      </trkpt>
      <trkpt lat="41.8661560" lon="-8.8482840">
        <ele>3.7</ele>
        <time>2021-05-18T11:47:03Z</time>
      </trkpt>
      <trkpt lat="41.8661610" lon="-8.8482670">
        <ele>3.7</ele>
        <time>2021-05-18T11:47:04Z</time>
      </trkpt>
      <trkpt lat="41.8661630" lon="-8.8482510">
        <ele>3.7</ele>
        <time>2021-05-18T11:47:05Z</time>
      </trkpt>
      <trkpt lat="41.8661800" lon="-8.8482360">
        <ele>3.7</ele>
        <time>2021-05-18T11:47:06Z</time>
      </trkpt>
      <trkpt lat="41.8661850" lon="-8.8482260">
        <ele>3.7</ele>
        <time>2021-05-18T11:47:07Z</time>
      </trkpt>
      <trkpt lat="41.8661880" lon="-8.8482120">
        <ele>3.7</ele>
        <time>2021-05-18T11:47:08Z</time>
      </trkpt>
      <trkpt lat="41.8661950" lon="-8.8482030">
        <ele>3.7</ele>
        <time>2021-05-18T11:47:09Z</time>
      </trkpt>
      <trkpt lat="41.8662080" lon="-8.8481980">
        <ele>3.7</ele>
        <time>2021-05-18T11:47:10Z</time>
      </trkpt>
      <trkpt lat="41.8662210" lon="-8.8481800">
        <ele>3.7</ele>
        <time>2021-05-18T11:47:11Z</time>
      </trkpt>
      <trkpt lat="41.8662280" lon="-8.8481700">
        <ele>3.7</ele>
        <time>2021-05-18T11:47:12Z</time>
      </trkpt>
      <trkpt lat="41.8662340" lon="-8.8481610">
        <ele>3.7</ele>
        <time>2021-05-18T11:47:13Z</time>
      </trkpt>
      <trkpt lat="41.8662400" lon="-8.8481560">
        <ele>3.7</ele>
        <time>2021-05-18T11:47:14Z</time>
      </trkpt>
      <trkpt lat="41.8662480" lon="-8.8481510">
        <ele>3.7</ele>
        <time>2021-05-18T11:47:15Z</time>
      </trkpt>
      <trkpt lat="41.8662630" lon="-8.8481460">
        <ele>3.7</ele>
        <time>2021-05-18T11:47:16Z</time>
      </trkpt>
      <trkpt lat="41.8662640" lon="-8.8481390">
        <ele>3.7</ele>
        <time>2021-05-18T11:47:17Z</time>
      </trkpt>
      <trkpt lat="41.8662730" lon="-8.8481250">
        <ele>3.7</ele>
        <time>2021-05-18T11:47:18Z</time>
      </trkpt>
      <trkpt lat="41.8662820" lon="-8.8481150">
        <ele>3.7</ele>
        <time>2021-05-18T11:47:19Z</time>
      </trkpt>
      <trkpt lat="41.8662990" lon="-8.8480980">
        <ele>3.7</ele>
        <time>2021-05-18T11:47:20Z</time>
      </trkpt>
      <trkpt lat="41.8663050" lon="-8.8480860">
        <ele>3.7</ele>
        <time>2021-05-18T11:47:21Z</time>
      </trkpt>
      <trkpt lat="41.8663120" lon="-8.8480790">
        <ele>3.7</ele>
        <time>2021-05-18T11:47:22Z</time>
      </trkpt>
      <trkpt lat="41.8663210" lon="-8.8480690">
        <ele>3.7</ele>
        <time>2021-05-18T11:47:23Z</time>
      </trkpt>
      <trkpt lat="41.8663280" lon="-8.8480610">
        <ele>3.7</ele>
        <time>2021-05-18T11:47:24Z</time>
      </trkpt>
      <trkpt lat="41.8663330" lon="-8.8480520">
        <ele>3.7</ele>
        <time>2021-05-18T11:47:25Z</time>
      </trkpt>
      <trkpt lat="41.8663440" lon="-8.8480430">
        <ele>3.7</ele>
        <time>2021-05-18T11:47:26Z</time>
      </trkpt>
      <trkpt lat="41.8663520" lon="-8.8480300">
        <ele>3.7</ele>
        <time>2021-05-18T11:47:27Z</time>
      </trkpt>
      <trkpt lat="41.8663670" lon="-8.8480130">
        <ele>3.7</ele>
        <time>2021-05-18T11:47:28Z</time>
      </trkpt>
      <trkpt lat="41.8663740" lon="-8.8480060">
        <ele>3.7</ele>
        <time>2021-05-18T11:47:29Z</time>
      </trkpt>
      <trkpt lat="41.8663820" lon="-8.8479990">
        <ele>3.7</ele>
        <time>2021-05-18T11:47:30Z</time>
      </trkpt>
      <trkpt lat="41.8663940" lon="-8.8479910">
        <ele>3.7</ele>
        <time>2021-05-18T11:47:31Z</time>
      </trkpt>
      <trkpt lat="41.8664030" lon="-8.8479830">
        <ele>3.7</ele>
        <time>2021-05-18T11:47:32Z</time>
      </trkpt>
      <trkpt lat="41.8664110" lon="-8.8479780">
        <ele>3.7</ele>
        <time>2021-05-18T11:47:33Z</time>
      </trkpt>
      <trkpt lat="41.8664210" lon="-8.8479710">
        <ele>3.7</ele>
        <time>2021-05-18T11:47:34Z</time>
      </trkpt>
      <trkpt lat="41.8664310" lon="-8.8479640">
        <ele>3.7</ele>
        <time>2021-05-18T11:47:35Z</time>
      </trkpt>
      <trkpt lat="41.8664360" lon="-8.8479600">
        <ele>3.7</ele>
        <time>2021-05-18T11:47:36Z</time>
      </trkpt>
      <trkpt lat="41.8664540" lon="-8.8479420">
        <ele>3.7</ele>
        <time>2021-05-18T11:47:37Z</time>
      </trkpt>
      <trkpt lat="41.8664600" lon="-8.8479350">
        <ele>3.7</ele>
        <time>2021-05-18T11:47:38Z</time>
      </trkpt>
      <trkpt lat="41.8664660" lon="-8.8479280">
        <ele>3.7</ele>
        <time>2021-05-18T11:47:39Z</time>
      </trkpt>
      <trkpt lat="41.8664810" lon="-8.8479080">
        <ele>3.7</ele>
        <time>2021-05-18T11:47:40Z</time>
      </trkpt>
      <trkpt lat="41.8664890" lon="-8.8479020">
        <ele>3.7</ele>
        <time>2021-05-18T11:47:41Z</time>
      </trkpt>
      <trkpt lat="41.8664960" lon="-8.8478960">
        <ele>3.7</ele>
        <time>2021-05-18T11:47:42Z</time>
      </trkpt>
      <trkpt lat="41.8665170" lon="-8.8478830">
        <ele>3.7</ele>
        <time>2021-05-18T11:47:43Z</time>
      </trkpt>
      <trkpt lat="41.8665250" lon="-8.8478770">
        <ele>3.7</ele>
        <time>2021-05-18T11:47:44Z</time>
      </trkpt>
      <trkpt lat="41.8665320" lon="-8.8478700">
        <ele>3.7</ele>
        <time>2021-05-18T11:47:45Z</time>
      </trkpt>
      <trkpt lat="41.8665510" lon="-8.8478590">
        <ele>3.7</ele>
        <time>2021-05-18T11:47:46Z</time>
      </trkpt>
      <trkpt lat="41.8665580" lon="-8.8478530">
        <ele>3.7</ele>
        <time>2021-05-18T11:47:47Z</time>
      </trkpt>
      <trkpt lat="41.8665640" lon="-8.8478470">
        <ele>3.7</ele>
        <time>2021-05-18T11:47:48Z</time>
      </trkpt>
      <trkpt lat="41.8665760" lon="-8.8478420">
        <ele>3.7</ele>
        <time>2021-05-18T11:47:49Z</time>
      </trkpt>
      <trkpt lat="41.8665860" lon="-8.8478300">
        <ele>3.7</ele>
        <time>2021-05-18T11:47:50Z</time>
      </trkpt>
      <trkpt lat="41.8665900" lon="-8.8478140">
        <ele>3.7</ele>
        <time>2021-05-18T11:47:51Z</time>
      </trkpt>
      <trkpt lat="41.8665980" lon="-8.8478010">
        <ele>3.7</ele>
        <time>2021-05-18T11:47:52Z</time>
      </trkpt>
      <trkpt lat="41.8666080" lon="-8.8477930">
        <ele>3.7</ele>
        <time>2021-05-18T11:47:53Z</time>
      </trkpt>
      <trkpt lat="41.8666170" lon="-8.8477810">
        <ele>3.7</ele>
        <time>2021-05-18T11:47:54Z</time>
      </trkpt>
      <trkpt lat="41.8666280" lon="-8.8477670">
        <ele>3.7</ele>
        <time>2021-05-18T11:47:55Z</time>
      </trkpt>
      <trkpt lat="41.8666370" lon="-8.8477610">
        <ele>3.7</ele>
        <time>2021-05-18T11:47:56Z</time>
      </trkpt>
      <trkpt lat="41.8666380" lon="-8.8477550">
        <ele>3.7</ele>
        <time>2021-05-18T11:47:57Z</time>
      </trkpt>
      <trkpt lat="41.8666550" lon="-8.8477440">
        <ele>3.7</ele>
        <time>2021-05-18T11:47:58Z</time>
      </trkpt>
      <trkpt lat="41.8666640" lon="-8.8477370">
        <ele>3.7</ele>
        <time>2021-05-18T11:47:59Z</time>
      </trkpt>
      <trkpt lat="41.8666720" lon="-8.8477310">
        <ele>3.7</ele>
        <time>2021-05-18T11:48:00Z</time>
      </trkpt>
      <trkpt lat="41.8666800" lon="-8.8477200">
        <ele>3.7</ele>
        <time>2021-05-18T11:48:01Z</time>
      </trkpt>
      <trkpt lat="41.8666950" lon="-8.8477090">
        <ele>3.7</ele>
        <time>2021-05-18T11:48:02Z</time>
      </trkpt>
      <trkpt lat="41.8667130" lon="-8.8476920">
        <ele>3.7</ele>
        <time>2021-05-18T11:48:03Z</time>
      </trkpt>
      <trkpt lat="41.8667200" lon="-8.8476840">
        <ele>3.7</ele>
        <time>2021-05-18T11:48:04Z</time>
      </trkpt>
      <trkpt lat="41.8667280" lon="-8.8476760">
        <ele>3.7</ele>
        <time>2021-05-18T11:48:05Z</time>
      </trkpt>
      <trkpt lat="41.8667400" lon="-8.8476720">
        <ele>3.7</ele>
        <time>2021-05-18T11:48:06Z</time>
      </trkpt>
      <trkpt lat="41.8667490" lon="-8.8476610">
        <ele>3.7</ele>
        <time>2021-05-18T11:48:07Z</time>
      </trkpt>
      <trkpt lat="41.8667590" lon="-8.8476520">
        <ele>3.7</ele>
        <time>2021-05-18T11:48:08Z</time>
      </trkpt>
      <trkpt lat="41.8667700" lon="-8.8476380">
        <ele>3.7</ele>
        <time>2021-05-18T11:48:09Z</time>
      </trkpt>
      <trkpt lat="41.8667820" lon="-8.8476290">
        <ele>3.7</ele>
        <time>2021-05-18T11:48:10Z</time>
      </trkpt>
      <trkpt lat="41.8667930" lon="-8.8476160">
        <ele>3.7</ele>
        <time>2021-05-18T11:48:11Z</time>
      </trkpt>
      <trkpt lat="41.8668020" lon="-8.8476060">
        <ele>3.7</ele>
        <time>2021-05-18T11:48:12Z</time>
      </trkpt>
      <trkpt lat="41.8668070" lon="-8.8475960">
        <ele>3.7</ele>
        <time>2021-05-18T11:48:13Z</time>
      </trkpt>
      <trkpt lat="41.8668130" lon="-8.8475870">
        <ele>3.7</ele>
        <time>2021-05-18T11:48:14Z</time>
      </trkpt>
      <trkpt lat="41.8668300" lon="-8.8475740">
        <ele>3.7</ele>
        <time>2021-05-18T11:48:15Z</time>
      </trkpt>
      <trkpt lat="41.8668410" lon="-8.8475650">
        <ele>3.7</ele>
        <time>2021-05-18T11:48:16Z</time>
      </trkpt>
      <trkpt lat="41.8668540" lon="-8.8475520">
        <ele>3.7</ele>
        <time>2021-05-18T11:48:17Z</time>
      </trkpt>
      <trkpt lat="41.8668690" lon="-8.8475400">
        <ele>3.7</ele>
        <time>2021-05-18T11:48:18Z</time>
      </trkpt>
      <trkpt lat="41.8668790" lon="-8.8475250">
        <ele>3.7</ele>
        <time>2021-05-18T11:48:19Z</time>
      </trkpt>
      <trkpt lat="41.8668980" lon="-8.8475210">
        <ele>3.7</ele>
        <time>2021-05-18T11:48:20Z</time>
      </trkpt>
      <trkpt lat="41.8669130" lon="-8.8475130">
        <ele>3.7</ele>
        <time>2021-05-18T11:48:21Z</time>
      </trkpt>
      <trkpt lat="41.8669280" lon="-8.8475040">
        <ele>3.7</ele>
        <time>2021-05-18T11:48:22Z</time>
      </trkpt>
      <trkpt lat="41.8669430" lon="-8.8474930">
        <ele>3.7</ele>
        <time>2021-05-18T11:48:23Z</time>
      </trkpt>
      <trkpt lat="41.8669550" lon="-8.8474790">
        <ele>3.6</ele>
        <time>2021-05-18T11:48:24Z</time>
      </trkpt>
      <trkpt lat="41.8669660" lon="-8.8474660">
        <ele>3.6</ele>
        <time>2021-05-18T11:48:25Z</time>
      </trkpt>
      <trkpt lat="41.8669810" lon="-8.8474590">
        <ele>3.6</ele>
        <time>2021-05-18T11:48:26Z</time>
      </trkpt>
      <trkpt lat="41.8669920" lon="-8.8474470">
        <ele>3.6</ele>
        <time>2021-05-18T11:48:27Z</time>
      </trkpt>
      <trkpt lat="41.8670080" lon="-8.8474440">
        <ele>3.6</ele>
        <time>2021-05-18T11:48:28Z</time>
      </trkpt>
      <trkpt lat="41.8670200" lon="-8.8474310">
        <ele>3.6</ele>
        <time>2021-05-18T11:48:29Z</time>
      </trkpt>
      <trkpt lat="41.8670340" lon="-8.8474230">
        <ele>3.6</ele>
        <time>2021-05-18T11:48:30Z</time>
      </trkpt>
      <trkpt lat="41.8670450" lon="-8.8474140">
        <ele>3.6</ele>
        <time>2021-05-18T11:48:31Z</time>
      </trkpt>
      <trkpt lat="41.8670570" lon="-8.8473970">
        <ele>3.6</ele>
        <time>2021-05-18T11:48:32Z</time>
      </trkpt>
      <trkpt lat="41.8670680" lon="-8.8473880">
        <ele>3.6</ele>
        <time>2021-05-18T11:48:33Z</time>
      </trkpt>
      <trkpt lat="41.8670840" lon="-8.8473850">
        <ele>3.6</ele>
        <time>2021-05-18T11:48:34Z</time>
      </trkpt>
      <trkpt lat="41.8670970" lon="-8.8473780">
        <ele>3.6</ele>
        <time>2021-05-18T11:48:35Z</time>
      </trkpt>
      <trkpt lat="41.8671070" lon="-8.8473650">
        <ele>3.6</ele>
        <time>2021-05-18T11:48:36Z</time>
      </trkpt>
      <trkpt lat="41.8671200" lon="-8.8473560">
        <ele>3.6</ele>
        <time>2021-05-18T11:48:37Z</time>
      </trkpt>
      <trkpt lat="41.8671300" lon="-8.8473410">
        <ele>3.6</ele>
        <time>2021-05-18T11:48:38Z</time>
      </trkpt>
      <trkpt lat="41.8671410" lon="-8.8473290">
        <ele>3.6</ele>
        <time>2021-05-18T11:48:39Z</time>
      </trkpt>
      <trkpt lat="41.8671520" lon="-8.8473190">
        <ele>3.6</ele>
        <time>2021-05-18T11:48:40Z</time>
      </trkpt>
      <trkpt lat="41.8671670" lon="-8.8473130">
        <ele>3.6</ele>
        <time>2021-05-18T11:48:41Z</time>
      </trkpt>
      <trkpt lat="41.8671820" lon="-8.8473080">
        <ele>3.6</ele>
        <time>2021-05-18T11:48:42Z</time>
      </trkpt>
      <trkpt lat="41.8671940" lon="-8.8472990">
        <ele>3.6</ele>
        <time>2021-05-18T11:48:43Z</time>
      </trkpt>
      <trkpt lat="41.8672050" lon="-8.8472880">
        <ele>3.6</ele>
        <time>2021-05-18T11:48:44Z</time>
      </trkpt>
      <trkpt lat="41.8672160" lon="-8.8472770">
        <ele>3.6</ele>
        <time>2021-05-18T11:48:45Z</time>
      </trkpt>
      <trkpt lat="41.8672340" lon="-8.8472590">
        <ele>3.6</ele>
        <time>2021-05-18T11:48:46Z</time>
      </trkpt>
      <trkpt lat="41.8672400" lon="-8.8472520">
        <ele>3.6</ele>
        <time>2021-05-18T11:48:47Z</time>
      </trkpt>
      <trkpt lat="41.8672470" lon="-8.8472440">
        <ele>3.6</ele>
        <time>2021-05-18T11:48:48Z</time>
      </trkpt>
      <trkpt lat="41.8672660" lon="-8.8472250">
        <ele>3.6</ele>
        <time>2021-05-18T11:48:49Z</time>
      </trkpt>
      <trkpt lat="41.8672730" lon="-8.8472190">
        <ele>3.6</ele>
        <time>2021-05-18T11:48:50Z</time>
      </trkpt>
      <trkpt lat="41.8672810" lon="-8.8472140">
        <ele>3.6</ele>
        <time>2021-05-18T11:48:51Z</time>
      </trkpt>
      <trkpt lat="41.8672930" lon="-8.8472070">
        <ele>3.6</ele>
        <time>2021-05-18T11:48:52Z</time>
      </trkpt>
      <trkpt lat="41.8673060" lon="-8.8471970">
        <ele>3.6</ele>
        <time>2021-05-18T11:48:53Z</time>
      </trkpt>
      <trkpt lat="41.8673180" lon="-8.8471890">
        <ele>3.6</ele>
        <time>2021-05-18T11:48:54Z</time>
      </trkpt>
      <trkpt lat="41.8673300" lon="-8.8471810">
        <ele>3.6</ele>
        <time>2021-05-18T11:48:55Z</time>
      </trkpt>
      <trkpt lat="41.8673420" lon="-8.8471720">
        <ele>3.6</ele>
        <time>2021-05-18T11:48:56Z</time>
      </trkpt>
      <trkpt lat="41.8673550" lon="-8.8471640">
        <ele>3.6</ele>
        <time>2021-05-18T11:48:57Z</time>
      </trkpt>
      <trkpt lat="41.8673740" lon="-8.8471480">
        <ele>3.6</ele>
        <time>2021-05-18T11:48:58Z</time>
      </trkpt>
      <trkpt lat="41.8673810" lon="-8.8471420">
        <ele>3.6</ele>
        <time>2021-05-18T11:48:59Z</time>
      </trkpt>
      <trkpt lat="41.8673890" lon="-8.8471360">
        <ele>3.6</ele>
        <time>2021-05-18T11:49:00Z</time>
      </trkpt>
      <trkpt lat="41.8674070" lon="-8.8471180">
        <ele>3.6</ele>
        <time>2021-05-18T11:49:01Z</time>
      </trkpt>
      <trkpt lat="41.8674150" lon="-8.8471150">
        <ele>3.6</ele>
        <time>2021-05-18T11:49:02Z</time>
      </trkpt>
      <trkpt lat="41.8674230" lon="-8.8471110">
        <ele>3.6</ele>
        <time>2021-05-18T11:49:03Z</time>
      </trkpt>
      <trkpt lat="41.8674410" lon="-8.8470970">
        <ele>3.6</ele>
        <time>2021-05-18T11:49:04Z</time>
      </trkpt>
      <trkpt lat="41.8674500" lon="-8.8470930">
        <ele>3.6</ele>
        <time>2021-05-18T11:49:05Z</time>
      </trkpt>
      <trkpt lat="41.8674590" lon="-8.8470890">
        <ele>3.6</ele>
        <time>2021-05-18T11:49:06Z</time>
      </trkpt>
      <trkpt lat="41.8674680" lon="-8.8470750">
        <ele>3.6</ele>
        <time>2021-05-18T11:49:07Z</time>
      </trkpt>
      <trkpt lat="41.8674790" lon="-8.8470630">
        <ele>3.6</ele>
        <time>2021-05-18T11:49:08Z</time>
      </trkpt>
      <trkpt lat="41.8674900" lon="-8.8470560">
        <ele>3.6</ele>
        <time>2021-05-18T11:49:09Z</time>
      </trkpt>
      <trkpt lat="41.8675020" lon="-8.8470440">
        <ele>3.6</ele>
        <time>2021-05-18T11:49:10Z</time>
      </trkpt>
      <trkpt lat="41.8675140" lon="-8.8470360">
        <ele>3.6</ele>
        <time>2021-05-18T11:49:11Z</time>
      </trkpt>
      <trkpt lat="41.8675270" lon="-8.8470300">
        <ele>3.6</ele>
        <time>2021-05-18T11:49:12Z</time>
      </trkpt>
      <trkpt lat="41.8675370" lon="-8.8470140">
        <ele>3.6</ele>
        <time>2021-05-18T11:49:13Z</time>
      </trkpt>
      <trkpt lat="41.8675460" lon="-8.8470030">
        <ele>3.6</ele>
        <time>2021-05-18T11:49:14Z</time>
      </trkpt>
      <trkpt lat="41.8675620" lon="-8.8469830">
        <ele>3.6</ele>
        <time>2021-05-18T11:49:15Z</time>
      </trkpt>
      <trkpt lat="41.8675700" lon="-8.8469780">
        <ele>3.6</ele>
        <time>2021-05-18T11:49:16Z</time>
      </trkpt>
      <trkpt lat="41.8675770" lon="-8.8469730">
        <ele>3.6</ele>
        <time>2021-05-18T11:49:17Z</time>
      </trkpt>
      <trkpt lat="41.8675910" lon="-8.8469540">
        <ele>3.6</ele>
        <time>2021-05-18T11:49:18Z</time>
      </trkpt>
      <trkpt lat="41.8675960" lon="-8.8469440">
        <ele>3.6</ele>
        <time>2021-05-18T11:49:19Z</time>
      </trkpt>
      <trkpt lat="41.8676010" lon="-8.8469330">
        <ele>3.6</ele>
        <time>2021-05-18T11:49:20Z</time>
      </trkpt>
      <trkpt lat="41.8676120" lon="-8.8469210">
        <ele>3.6</ele>
        <time>2021-05-18T11:49:21Z</time>
      </trkpt>
      <trkpt lat="41.8676240" lon="-8.8469110">
        <ele>3.6</ele>
        <time>2021-05-18T11:49:22Z</time>
      </trkpt>
      <trkpt lat="41.8676420" lon="-8.8469010">
        <ele>3.6</ele>
        <time>2021-05-18T11:49:23Z</time>
      </trkpt>
      <trkpt lat="41.8676500" lon="-8.8468960">
        <ele>3.6</ele>
        <time>2021-05-18T11:49:24Z</time>
      </trkpt>
      <trkpt lat="41.8676570" lon="-8.8468920">
        <ele>3.6</ele>
        <time>2021-05-18T11:49:25Z</time>
      </trkpt>
      <trkpt lat="41.8676650" lon="-8.8468820">
        <ele>3.6</ele>
        <time>2021-05-18T11:49:26Z</time>
      </trkpt>
      <trkpt lat="41.8676750" lon="-8.8468750">
        <ele>3.6</ele>
        <time>2021-05-18T11:49:27Z</time>
      </trkpt>
      <trkpt lat="41.8676870" lon="-8.8468680">
        <ele>3.5</ele>
        <time>2021-05-18T11:49:28Z</time>
      </trkpt>
      <trkpt lat="41.8676960" lon="-8.8468580">
        <ele>3.5</ele>
        <time>2021-05-18T11:49:29Z</time>
      </trkpt>
      <trkpt lat="41.8677020" lon="-8.8468430">
        <ele>3.5</ele>
        <time>2021-05-18T11:49:30Z</time>
      </trkpt>
      <trkpt lat="41.8677130" lon="-8.8468340">
        <ele>3.5</ele>
        <time>2021-05-18T11:49:31Z</time>
      </trkpt>
      <trkpt lat="41.8677230" lon="-8.8468220">
        <ele>3.5</ele>
        <time>2021-05-18T11:49:32Z</time>
      </trkpt>
      <trkpt lat="41.8677310" lon="-8.8468130">
        <ele>3.5</ele>
        <time>2021-05-18T11:49:33Z</time>
      </trkpt>
      <trkpt lat="41.8677420" lon="-8.8468060">
        <ele>3.5</ele>
        <time>2021-05-18T11:49:34Z</time>
      </trkpt>
      <trkpt lat="41.8677600" lon="-8.8467910">
        <ele>3.5</ele>
        <time>2021-05-18T11:49:35Z</time>
      </trkpt>
      <trkpt lat="41.8677660" lon="-8.8467820">
        <ele>3.5</ele>
        <time>2021-05-18T11:49:36Z</time>
      </trkpt>
      <trkpt lat="41.8677710" lon="-8.8467740">
        <ele>3.5</ele>
        <time>2021-05-18T11:49:37Z</time>
      </trkpt>
      <trkpt lat="41.8677900" lon="-8.8467630">
        <ele>3.5</ele>
        <time>2021-05-18T11:49:38Z</time>
      </trkpt>
      <trkpt lat="41.8677990" lon="-8.8467590">
        <ele>3.5</ele>
        <time>2021-05-18T11:49:39Z</time>
      </trkpt>
      <trkpt lat="41.8678070" lon="-8.8467550">
        <ele>3.5</ele>
        <time>2021-05-18T11:49:40Z</time>
      </trkpt>
      <trkpt lat="41.8678160" lon="-8.8467480">
        <ele>3.5</ele>
        <time>2021-05-18T11:49:41Z</time>
      </trkpt>
      <trkpt lat="41.8678260" lon="-8.8467390">
        <ele>3.5</ele>
        <time>2021-05-18T11:49:42Z</time>
      </trkpt>
      <trkpt lat="41.8678340" lon="-8.8467240">
        <ele>3.5</ele>
        <time>2021-05-18T11:49:43Z</time>
      </trkpt>
      <trkpt lat="41.8678510" lon="-8.8467090">
        <ele>3.5</ele>
        <time>2021-05-18T11:49:44Z</time>
      </trkpt>
      <trkpt lat="41.8678580" lon="-8.8467040">
        <ele>3.5</ele>
        <time>2021-05-18T11:49:45Z</time>
      </trkpt>
      <trkpt lat="41.8678660" lon="-8.8466980">
        <ele>3.5</ele>
        <time>2021-05-18T11:49:46Z</time>
      </trkpt>
      <trkpt lat="41.8678820" lon="-8.8466800">
        <ele>3.5</ele>
        <time>2021-05-18T11:49:47Z</time>
      </trkpt>
      <trkpt lat="41.8678900" lon="-8.8466740">
        <ele>3.5</ele>
        <time>2021-05-18T11:49:48Z</time>
      </trkpt>
      <trkpt lat="41.8678970" lon="-8.8466670">
        <ele>3.5</ele>
        <time>2021-05-18T11:49:49Z</time>
      </trkpt>
      <trkpt lat="41.8679160" lon="-8.8466520">
        <ele>3.5</ele>
        <time>2021-05-18T11:49:50Z</time>
      </trkpt>
      <trkpt lat="41.8679240" lon="-8.8466450">
        <ele>3.5</ele>
        <time>2021-05-18T11:49:51Z</time>
      </trkpt>
      <trkpt lat="41.8679310" lon="-8.8466390">
        <ele>3.5</ele>
        <time>2021-05-18T11:49:52Z</time>
      </trkpt>
      <trkpt lat="41.8679430" lon="-8.8466310">
        <ele>3.5</ele>
        <time>2021-05-18T11:49:53Z</time>
      </trkpt>
      <trkpt lat="41.8679650" lon="-8.8466100">
        <ele>3.5</ele>
        <time>2021-05-18T11:49:54Z</time>
      </trkpt>
      <trkpt lat="41.8679760" lon="-8.8465990">
        <ele>3.5</ele>
        <time>2021-05-18T11:49:55Z</time>
      </trkpt>
      <trkpt lat="41.8679930" lon="-8.8465820">
        <ele>3.5</ele>
        <time>2021-05-18T11:49:56Z</time>
      </trkpt>
      <trkpt lat="41.8680000" lon="-8.8465770">
        <ele>3.5</ele>
        <time>2021-05-18T11:49:57Z</time>
      </trkpt>
      <trkpt lat="41.8680080" lon="-8.8465710">
        <ele>3.5</ele>
        <time>2021-05-18T11:49:58Z</time>
      </trkpt>
      <trkpt lat="41.8680260" lon="-8.8465550">
        <ele>3.5</ele>
        <time>2021-05-18T11:49:59Z</time>
      </trkpt>
      <trkpt lat="41.8680340" lon="-8.8465480">
        <ele>3.5</ele>
        <time>2021-05-18T11:50:00Z</time>
      </trkpt>
      <trkpt lat="41.8680410" lon="-8.8465420">
        <ele>3.5</ele>
        <time>2021-05-18T11:50:01Z</time>
      </trkpt>
      <trkpt lat="41.8680580" lon="-8.8465270">
        <ele>3.5</ele>
        <time>2021-05-18T11:50:02Z</time>
      </trkpt>
      <trkpt lat="41.8680660" lon="-8.8465220">
        <ele>3.5</ele>
        <time>2021-05-18T11:50:03Z</time>
      </trkpt>
      <trkpt lat="41.8680730" lon="-8.8465160">
        <ele>3.5</ele>
        <time>2021-05-18T11:50:04Z</time>
      </trkpt>
      <trkpt lat="41.8680900" lon="-8.8464960">
        <ele>3.5</ele>
        <time>2021-05-18T11:50:05Z</time>
      </trkpt>
      <trkpt lat="41.8680970" lon="-8.8464910">
        <ele>3.5</ele>
        <time>2021-05-18T11:50:06Z</time>
      </trkpt>
      <trkpt lat="41.8681040" lon="-8.8464850">
        <ele>3.6</ele>
        <time>2021-05-18T11:50:07Z</time>
      </trkpt>
      <trkpt lat="41.8681140" lon="-8.8464810">
        <ele>3.6</ele>
        <time>2021-05-18T11:50:08Z</time>
      </trkpt>
      <trkpt lat="41.8681190" lon="-8.8464700">
        <ele>3.6</ele>
        <time>2021-05-18T11:50:09Z</time>
      </trkpt>
      <trkpt lat="41.8681260" lon="-8.8464610">
        <ele>3.6</ele>
        <time>2021-05-18T11:50:10Z</time>
      </trkpt>
      <trkpt lat="41.8681320" lon="-8.8464440">
        <ele>3.6</ele>
        <time>2021-05-18T11:50:11Z</time>
      </trkpt>
      <trkpt lat="41.8681380" lon="-8.8464380">
        <ele>3.6</ele>
        <time>2021-05-18T11:50:12Z</time>
      </trkpt>
      <trkpt lat="41.8681430" lon="-8.8464310">
        <ele>3.6</ele>
        <time>2021-05-18T11:50:13Z</time>
      </trkpt>
      <trkpt lat="41.8681490" lon="-8.8464240">
        <ele>3.6</ele>
        <time>2021-05-18T11:50:14Z</time>
      </trkpt>
      <trkpt lat="41.8681480" lon="-8.8464150">
        <ele>3.6</ele>
        <time>2021-05-18T11:50:15Z</time>
      </trkpt>
      <trkpt lat="41.8681530" lon="-8.8464080">
        <ele>3.6</ele>
        <time>2021-05-18T11:50:16Z</time>
      </trkpt>
      <trkpt lat="41.8681620" lon="-8.8463970">
        <ele>3.6</ele>
        <time>2021-05-18T11:50:17Z</time>
      </trkpt>
      <trkpt lat="41.8681680" lon="-8.8463840">
        <ele>3.6</ele>
        <time>2021-05-18T11:50:18Z</time>
      </trkpt>
      <trkpt lat="41.8681840" lon="-8.8463610">
        <ele>3.6</ele>
        <time>2021-05-18T11:50:19Z</time>
      </trkpt>
      <trkpt lat="41.8681890" lon="-8.8463540">
        <ele>3.6</ele>
        <time>2021-05-18T11:50:20Z</time>
      </trkpt>
      <trkpt lat="41.8681950" lon="-8.8463470">
        <ele>3.6</ele>
        <time>2021-05-18T11:50:21Z</time>
      </trkpt>
      <trkpt lat="41.8682070" lon="-8.8463380">
        <ele>3.6</ele>
        <time>2021-05-18T11:50:22Z</time>
      </trkpt>
      <trkpt lat="41.8682190" lon="-8.8463270">
        <ele>3.6</ele>
        <time>2021-05-18T11:50:23Z</time>
      </trkpt>
      <trkpt lat="41.8682290" lon="-8.8463140">
        <ele>3.6</ele>
        <time>2021-05-18T11:50:24Z</time>
      </trkpt>
      <trkpt lat="41.8682400" lon="-8.8463030">
        <ele>3.6</ele>
        <time>2021-05-18T11:50:25Z</time>
      </trkpt>
      <trkpt lat="41.8682520" lon="-8.8462980">
        <ele>3.6</ele>
        <time>2021-05-18T11:50:26Z</time>
      </trkpt>
      <trkpt lat="41.8682650" lon="-8.8462880">
        <ele>3.6</ele>
        <time>2021-05-18T11:50:27Z</time>
      </trkpt>
      <trkpt lat="41.8682760" lon="-8.8462810">
        <ele>3.4</ele>
        <time>2021-05-18T11:50:28Z</time>
      </trkpt>
      <trkpt lat="41.8682880" lon="-8.8462790">
        <ele>3.2</ele>
        <time>2021-05-18T11:50:29Z</time>
      </trkpt>
      <trkpt lat="41.8682920" lon="-8.8462640">
        <ele>3.2</ele>
        <time>2021-05-18T11:50:30Z</time>
      </trkpt>
      <trkpt lat="41.8682910" lon="-8.8462290">
        <ele>3.0</ele>
        <time>2021-05-18T11:50:31Z</time>
      </trkpt>
      <trkpt lat="41.8682860" lon="-8.8462150">
        <ele>3.0</ele>
        <time>2021-05-18T11:50:32Z</time>
      </trkpt>
      <trkpt lat="41.8682540" lon="-8.8461700">
        <ele>3.4</ele>
        <time>2021-05-18T11:50:34Z</time>
      </trkpt>
      <trkpt lat="41.8682400" lon="-8.8461510">
        <ele>3.5</ele>
        <time>2021-05-18T11:50:35Z</time>
      </trkpt>
      <trkpt lat="41.8682410" lon="-8.8461270">
        <ele>3.9</ele>
        <time>2021-05-18T11:50:36Z</time>
      </trkpt>
      <trkpt lat="41.8682380" lon="-8.8460990">
        <ele>3.8</ele>
        <time>2021-05-18T11:50:38Z</time>
      </trkpt>
      <trkpt lat="41.8682370" lon="-8.8460870">
        <ele>4.2</ele>
        <time>2021-05-18T11:50:39Z</time>
      </trkpt>
      <trkpt lat="41.8682350" lon="-8.8460760">
        <ele>4.0</ele>
        <time>2021-05-18T11:50:40Z</time>
      </trkpt>
      <trkpt lat="41.8682370" lon="-8.8460610">
        <ele>3.9</ele>
        <time>2021-05-18T11:50:41Z</time>
      </trkpt>
      <trkpt lat="41.8682340" lon="-8.8460490">
        <ele>4.3</ele>
        <time>2021-05-18T11:50:42Z</time>
      </trkpt>
      <trkpt lat="41.8682390" lon="-8.8460310">
        <ele>4.1</ele>
        <time>2021-05-18T11:50:43Z</time>
      </trkpt>
      <trkpt lat="41.8682350" lon="-8.8460090">
        <ele>4.5</ele>
        <time>2021-05-18T11:50:44Z</time>
      </trkpt>
      <trkpt lat="41.8682340" lon="-8.8459990">
        <ele>4.5</ele>
        <time>2021-05-18T11:50:45Z</time>
      </trkpt>
      <trkpt lat="41.8682330" lon="-8.8459900">
        <ele>4.5</ele>
        <time>2021-05-18T11:50:46Z</time>
      </trkpt>
      <trkpt lat="41.8682320" lon="-8.8459800">
        <ele>4.5</ele>
        <time>2021-05-18T11:50:47Z</time>
      </trkpt>
      <trkpt lat="41.8682350" lon="-8.8459660">
        <ele>4.5</ele>
        <time>2021-05-18T11:50:48Z</time>
      </trkpt>
      <trkpt lat="41.8682400" lon="-8.8459620">
        <ele>4.5</ele>
        <time>2021-05-18T11:50:49Z</time>
      </trkpt>
      <trkpt lat="41.8682460" lon="-8.8459590">
        <ele>4.5</ele>
        <time>2021-05-18T11:50:50Z</time>
      </trkpt>
      <trkpt lat="41.8682520" lon="-8.8459550">
        <ele>4.5</ele>
        <time>2021-05-18T11:50:51Z</time>
      </trkpt>
      <trkpt lat="41.8682570" lon="-8.8459510">
        <ele>4.5</ele>
        <time>2021-05-18T11:50:52Z</time>
      </trkpt>
      <trkpt lat="41.8682630" lon="-8.8459470">
        <ele>4.5</ele>
        <time>2021-05-18T11:50:53Z</time>
      </trkpt>
      <trkpt lat="41.8682650" lon="-8.8459380">
        <ele>4.5</ele>
        <time>2021-05-18T11:50:54Z</time>
      </trkpt>
      <trkpt lat="41.8682780" lon="-8.8459300">
        <ele>4.5</ele>
        <time>2021-05-18T11:50:55Z</time>
      </trkpt>
      <trkpt lat="41.8682940" lon="-8.8459260">
        <ele>4.5</ele>
        <time>2021-05-18T11:50:56Z</time>
      </trkpt>
      <trkpt lat="41.8683130" lon="-8.8459070">
        <ele>4.5</ele>
        <time>2021-05-18T11:50:57Z</time>
      </trkpt>
      <trkpt lat="41.8683200" lon="-8.8458990">
        <ele>4.5</ele>
        <time>2021-05-18T11:50:58Z</time>
      </trkpt>
      <trkpt lat="41.8683260" lon="-8.8458910">
        <ele>4.5</ele>
        <time>2021-05-18T11:50:59Z</time>
      </trkpt>
      <trkpt lat="41.8683360" lon="-8.8458880">
        <ele>4.5</ele>
        <time>2021-05-18T11:51:00Z</time>
      </trkpt>
      <trkpt lat="41.8683370" lon="-8.8458780">
        <ele>4.5</ele>
        <time>2021-05-18T11:51:01Z</time>
      </trkpt>
      <trkpt lat="41.8683510" lon="-8.8458730">
        <ele>4.5</ele>
        <time>2021-05-18T11:51:02Z</time>
      </trkpt>
      <trkpt lat="41.8683620" lon="-8.8458590">
        <ele>4.5</ele>
        <time>2021-05-18T11:51:03Z</time>
      </trkpt>
      <trkpt lat="41.8683770" lon="-8.8458520">
        <ele>4.4</ele>
        <time>2021-05-18T11:51:04Z</time>
      </trkpt>
      <trkpt lat="41.8683890" lon="-8.8458420">
        <ele>4.4</ele>
        <time>2021-05-18T11:51:05Z</time>
      </trkpt>
      <trkpt lat="41.8683870" lon="-8.8458340">
        <ele>4.4</ele>
        <time>2021-05-18T11:51:06Z</time>
      </trkpt>
      <trkpt lat="41.8684010" lon="-8.8458290">
        <ele>4.4</ele>
        <time>2021-05-18T11:51:07Z</time>
      </trkpt>
      <trkpt lat="41.8684100" lon="-8.8458190">
        <ele>4.4</ele>
        <time>2021-05-18T11:51:08Z</time>
      </trkpt>
      <trkpt lat="41.8684100" lon="-8.8458130">
        <ele>4.4</ele>
        <time>2021-05-18T11:51:09Z</time>
      </trkpt>
      <trkpt lat="41.8684260" lon="-8.8458080">
        <ele>4.4</ele>
        <time>2021-05-18T11:51:10Z</time>
      </trkpt>
      <trkpt lat="41.8684440" lon="-8.8457880">
        <ele>4.4</ele>
        <time>2021-05-18T11:51:11Z</time>
      </trkpt>
      <trkpt lat="41.8684500" lon="-8.8457820">
        <ele>4.4</ele>
        <time>2021-05-18T11:51:12Z</time>
      </trkpt>
      <trkpt lat="41.8684560" lon="-8.8457760">
        <ele>4.4</ele>
        <time>2021-05-18T11:51:13Z</time>
      </trkpt>
      <trkpt lat="41.8684760" lon="-8.8457600">
        <ele>4.4</ele>
        <time>2021-05-18T11:51:14Z</time>
      </trkpt>
      <trkpt lat="41.8684840" lon="-8.8457550">
        <ele>4.4</ele>
        <time>2021-05-18T11:51:15Z</time>
      </trkpt>
      <trkpt lat="41.8684920" lon="-8.8457510">
        <ele>4.4</ele>
        <time>2021-05-18T11:51:16Z</time>
      </trkpt>
      <trkpt lat="41.8685020" lon="-8.8457450">
        <ele>4.4</ele>
        <time>2021-05-18T11:51:17Z</time>
      </trkpt>
      <trkpt lat="41.8685110" lon="-8.8457270">
        <ele>4.4</ele>
        <time>2021-05-18T11:51:18Z</time>
      </trkpt>
      <trkpt lat="41.8685150" lon="-8.8457210">
        <ele>4.4</ele>
        <time>2021-05-18T11:51:19Z</time>
      </trkpt>
      <trkpt lat="41.8685260" lon="-8.8457120">
        <ele>4.4</ele>
        <time>2021-05-18T11:51:20Z</time>
      </trkpt>
      <trkpt lat="41.8685370" lon="-8.8457030">
        <ele>4.4</ele>
        <time>2021-05-18T11:51:21Z</time>
      </trkpt>
      <trkpt lat="41.8685420" lon="-8.8456940">
        <ele>4.4</ele>
        <time>2021-05-18T11:51:22Z</time>
      </trkpt>
      <trkpt lat="41.8685600" lon="-8.8456770">
        <ele>4.4</ele>
        <time>2021-05-18T11:51:23Z</time>
      </trkpt>
      <trkpt lat="41.8685690" lon="-8.8456700">
        <ele>4.4</ele>
        <time>2021-05-18T11:51:24Z</time>
      </trkpt>
      <trkpt lat="41.8685770" lon="-8.8456620">
        <ele>4.5</ele>
        <time>2021-05-18T11:51:25Z</time>
      </trkpt>
      <trkpt lat="41.8685850" lon="-8.8456510">
        <ele>4.5</ele>
        <time>2021-05-18T11:51:26Z</time>
      </trkpt>
      <trkpt lat="41.8685990" lon="-8.8456450">
        <ele>4.5</ele>
        <time>2021-05-18T11:51:27Z</time>
      </trkpt>
      <trkpt lat="41.8686060" lon="-8.8456400">
        <ele>4.5</ele>
        <time>2021-05-18T11:51:28Z</time>
      </trkpt>
      <trkpt lat="41.8686200" lon="-8.8456350">
        <ele>4.5</ele>
        <time>2021-05-18T11:51:29Z</time>
      </trkpt>
      <trkpt lat="41.8686370" lon="-8.8456310">
        <ele>4.5</ele>
        <time>2021-05-18T11:51:30Z</time>
      </trkpt>
      <trkpt lat="41.8686460" lon="-8.8456230">
        <ele>4.5</ele>
        <time>2021-05-18T11:51:31Z</time>
      </trkpt>
      <trkpt lat="41.8686590" lon="-8.8456080">
        <ele>4.5</ele>
        <time>2021-05-18T11:51:32Z</time>
      </trkpt>
      <trkpt lat="41.8686720" lon="-8.8456010">
        <ele>4.5</ele>
        <time>2021-05-18T11:51:33Z</time>
      </trkpt>
      <trkpt lat="41.8686810" lon="-8.8455980">
        <ele>4.5</ele>
        <time>2021-05-18T11:51:34Z</time>
      </trkpt>
      <trkpt lat="41.8686880" lon="-8.8455860">
        <ele>4.5</ele>
        <time>2021-05-18T11:51:35Z</time>
      </trkpt>
      <trkpt lat="41.8686940" lon="-8.8455810">
        <ele>4.5</ele>
        <time>2021-05-18T11:51:36Z</time>
      </trkpt>
      <trkpt lat="41.8687050" lon="-8.8455710">
        <ele>4.5</ele>
        <time>2021-05-18T11:51:37Z</time>
      </trkpt>
      <trkpt lat="41.8687160" lon="-8.8455650">
        <ele>4.5</ele>
        <time>2021-05-18T11:51:38Z</time>
      </trkpt>
      <trkpt lat="41.8687270" lon="-8.8455520">
        <ele>4.5</ele>
        <time>2021-05-18T11:51:39Z</time>
      </trkpt>
      <trkpt lat="41.8687400" lon="-8.8455430">
        <ele>4.5</ele>
        <time>2021-05-18T11:51:40Z</time>
      </trkpt>
      <trkpt lat="41.8687550" lon="-8.8455280">
        <ele>4.5</ele>
        <time>2021-05-18T11:51:41Z</time>
      </trkpt>
      <trkpt lat="41.8687680" lon="-8.8455220">
        <ele>4.5</ele>
        <time>2021-05-18T11:51:42Z</time>
      </trkpt>
      <trkpt lat="41.8687770" lon="-8.8455170">
        <ele>4.5</ele>
        <time>2021-05-18T11:51:43Z</time>
      </trkpt>
      <trkpt lat="41.8687910" lon="-8.8455000">
        <ele>4.5</ele>
        <time>2021-05-18T11:51:44Z</time>
      </trkpt>
      <trkpt lat="41.8688190" lon="-8.8454810">
        <ele>4.5</ele>
        <time>2021-05-18T11:51:45Z</time>
      </trkpt>
      <trkpt lat="41.8688270" lon="-8.8454730">
        <ele>4.5</ele>
        <time>2021-05-18T11:51:47Z</time>
      </trkpt>
      <trkpt lat="41.8688350" lon="-8.8454660">
        <ele>4.5</ele>
        <time>2021-05-18T11:51:48Z</time>
      </trkpt>
      <trkpt lat="41.8688430" lon="-8.8454580">
        <ele>4.5</ele>
        <time>2021-05-18T11:51:49Z</time>
      </trkpt>
      <trkpt lat="41.8688510" lon="-8.8454510">
        <ele>4.5</ele>
        <time>2021-05-18T11:51:50Z</time>
      </trkpt>
      <trkpt lat="41.8688660" lon="-8.8454370">
        <ele>4.5</ele>
        <time>2021-05-18T11:51:51Z</time>
      </trkpt>
      <trkpt lat="41.8688740" lon="-8.8454300">
        <ele>4.5</ele>
        <time>2021-05-18T11:51:52Z</time>
      </trkpt>
      <trkpt lat="41.8688820" lon="-8.8454240">
        <ele>4.5</ele>
        <time>2021-05-18T11:51:53Z</time>
      </trkpt>
      <trkpt lat="41.8688960" lon="-8.8454150">
        <ele>4.5</ele>
        <time>2021-05-18T11:51:54Z</time>
      </trkpt>
      <trkpt lat="41.8689060" lon="-8.8454040">
        <ele>4.5</ele>
        <time>2021-05-18T11:51:55Z</time>
      </trkpt>
      <trkpt lat="41.8689330" lon="-8.8453850">
        <ele>4.5</ele>
        <time>2021-05-18T11:51:56Z</time>
      </trkpt>
      <trkpt lat="41.8689450" lon="-8.8453780">
        <ele>4.5</ele>
        <time>2021-05-18T11:51:57Z</time>
      </trkpt>
      <trkpt lat="41.8689580" lon="-8.8453710">
        <ele>4.4</ele>
        <time>2021-05-18T11:51:58Z</time>
      </trkpt>
      <trkpt lat="41.8689700" lon="-8.8453640">
        <ele>4.4</ele>
        <time>2021-05-18T11:51:59Z</time>
      </trkpt>
      <trkpt lat="41.8689740" lon="-8.8453490">
        <ele>4.4</ele>
        <time>2021-05-18T11:52:00Z</time>
      </trkpt>
      <trkpt lat="41.8689930" lon="-8.8453420">
        <ele>4.4</ele>
        <time>2021-05-18T11:52:01Z</time>
      </trkpt>
      <trkpt lat="41.8690120" lon="-8.8453280">
        <ele>4.4</ele>
        <time>2021-05-18T11:52:02Z</time>
      </trkpt>
      <trkpt lat="41.8690180" lon="-8.8453240">
        <ele>4.4</ele>
        <time>2021-05-18T11:52:03Z</time>
      </trkpt>
      <trkpt lat="41.8690250" lon="-8.8453200">
        <ele>4.4</ele>
        <time>2021-05-18T11:52:04Z</time>
      </trkpt>
      <trkpt lat="41.8690350" lon="-8.8453170">
        <ele>4.4</ele>
        <time>2021-05-18T11:52:05Z</time>
      </trkpt>
      <trkpt lat="41.8690500" lon="-8.8453040">
        <ele>4.4</ele>
        <time>2021-05-18T11:52:06Z</time>
      </trkpt>
      <trkpt lat="41.8690660" lon="-8.8452970">
        <ele>4.4</ele>
        <time>2021-05-18T11:52:07Z</time>
      </trkpt>
      <trkpt lat="41.8690760" lon="-8.8452930">
        <ele>4.4</ele>
        <time>2021-05-18T11:52:08Z</time>
      </trkpt>
      <trkpt lat="41.8690850" lon="-8.8452900">
        <ele>4.4</ele>
        <time>2021-05-18T11:52:09Z</time>
      </trkpt>
      <trkpt lat="41.8690890" lon="-8.8452790">
        <ele>4.4</ele>
        <time>2021-05-18T11:52:10Z</time>
      </trkpt>
      <trkpt lat="41.8691000" lon="-8.8452730">
        <ele>4.4</ele>
        <time>2021-05-18T11:52:11Z</time>
      </trkpt>
      <trkpt lat="41.8691090" lon="-8.8452640">
        <ele>4.4</ele>
        <time>2021-05-18T11:52:12Z</time>
      </trkpt>
      <trkpt lat="41.8691300" lon="-8.8452530">
        <ele>4.4</ele>
        <time>2021-05-18T11:52:13Z</time>
      </trkpt>
      <trkpt lat="41.8691370" lon="-8.8452500">
        <ele>4.4</ele>
        <time>2021-05-18T11:52:14Z</time>
      </trkpt>
      <trkpt lat="41.8691450" lon="-8.8452470">
        <ele>4.4</ele>
        <time>2021-05-18T11:52:15Z</time>
      </trkpt>
      <trkpt lat="41.8691580" lon="-8.8452260">
        <ele>4.4</ele>
        <time>2021-05-18T11:52:16Z</time>
      </trkpt>
      <trkpt lat="41.8691660" lon="-8.8452200">
        <ele>4.4</ele>
        <time>2021-05-18T11:52:17Z</time>
      </trkpt>
      <trkpt lat="41.8691730" lon="-8.8452150">
        <ele>4.4</ele>
        <time>2021-05-18T11:52:18Z</time>
      </trkpt>
      <trkpt lat="41.8691940" lon="-8.8452030">
        <ele>4.4</ele>
        <time>2021-05-18T11:52:19Z</time>
      </trkpt>
      <trkpt lat="41.8692040" lon="-8.8451970">
        <ele>4.4</ele>
        <time>2021-05-18T11:52:20Z</time>
      </trkpt>
      <trkpt lat="41.8692140" lon="-8.8451910">
        <ele>4.4</ele>
        <time>2021-05-18T11:52:21Z</time>
      </trkpt>
      <trkpt lat="41.8692240" lon="-8.8451850">
        <ele>4.4</ele>
        <time>2021-05-18T11:52:22Z</time>
      </trkpt>
      <trkpt lat="41.8692310" lon="-8.8451760">
        <ele>4.4</ele>
        <time>2021-05-18T11:52:23Z</time>
      </trkpt>
      <trkpt lat="41.8692380" lon="-8.8451680">
        <ele>4.4</ele>
        <time>2021-05-18T11:52:24Z</time>
      </trkpt>
      <trkpt lat="41.8692530" lon="-8.8451610">
        <ele>4.4</ele>
        <time>2021-05-18T11:52:25Z</time>
      </trkpt>
      <trkpt lat="41.8692720" lon="-8.8451520">
        <ele>4.4</ele>
        <time>2021-05-18T11:52:26Z</time>
      </trkpt>
      <trkpt lat="41.8692860" lon="-8.8451460">
        <ele>4.4</ele>
        <time>2021-05-18T11:52:27Z</time>
      </trkpt>
      <trkpt lat="41.8693030" lon="-8.8451400">
        <ele>4.4</ele>
        <time>2021-05-18T11:52:28Z</time>
      </trkpt>
      <trkpt lat="41.8693160" lon="-8.8451300">
        <ele>4.4</ele>
        <time>2021-05-18T11:52:29Z</time>
      </trkpt>
      <trkpt lat="41.8693310" lon="-8.8451180">
        <ele>4.4</ele>
        <time>2021-05-18T11:52:30Z</time>
      </trkpt>
      <trkpt lat="41.8693460" lon="-8.8451100">
        <ele>4.4</ele>
        <time>2021-05-18T11:52:31Z</time>
      </trkpt>
      <trkpt lat="41.8693590" lon="-8.8451030">
        <ele>4.4</ele>
        <time>2021-05-18T11:52:32Z</time>
      </trkpt>
      <trkpt lat="41.8693700" lon="-8.8450970">
        <ele>4.4</ele>
        <time>2021-05-18T11:52:33Z</time>
      </trkpt>
      <trkpt lat="41.8693840" lon="-8.8450890">
        <ele>4.4</ele>
        <time>2021-05-18T11:52:34Z</time>
      </trkpt>
      <trkpt lat="41.8694000" lon="-8.8450840">
        <ele>4.4</ele>
        <time>2021-05-18T11:52:35Z</time>
      </trkpt>
      <trkpt lat="41.8694150" lon="-8.8450800">
        <ele>4.4</ele>
        <time>2021-05-18T11:52:36Z</time>
      </trkpt>
      <trkpt lat="41.8694310" lon="-8.8450720">
        <ele>4.4</ele>
        <time>2021-05-18T11:52:37Z</time>
      </trkpt>
      <trkpt lat="41.8694440" lon="-8.8450580">
        <ele>4.4</ele>
        <time>2021-05-18T11:52:38Z</time>
      </trkpt>
      <trkpt lat="41.8694560" lon="-8.8450460">
        <ele>4.4</ele>
        <time>2021-05-18T11:52:39Z</time>
      </trkpt>
      <trkpt lat="41.8694700" lon="-8.8450390">
        <ele>4.4</ele>
        <time>2021-05-18T11:52:40Z</time>
      </trkpt>
      <trkpt lat="41.8694810" lon="-8.8450300">
        <ele>4.4</ele>
        <time>2021-05-18T11:52:41Z</time>
      </trkpt>
      <trkpt lat="41.8694940" lon="-8.8450230">
        <ele>4.4</ele>
        <time>2021-05-18T11:52:42Z</time>
      </trkpt>
      <trkpt lat="41.8695100" lon="-8.8450160">
        <ele>4.4</ele>
        <time>2021-05-18T11:52:43Z</time>
      </trkpt>
      <trkpt lat="41.8695220" lon="-8.8450040">
        <ele>4.4</ele>
        <time>2021-05-18T11:52:44Z</time>
      </trkpt>
      <trkpt lat="41.8695360" lon="-8.8449970">
        <ele>4.4</ele>
        <time>2021-05-18T11:52:45Z</time>
      </trkpt>
      <trkpt lat="41.8695490" lon="-8.8449860">
        <ele>4.4</ele>
        <time>2021-05-18T11:52:46Z</time>
      </trkpt>
      <trkpt lat="41.8695640" lon="-8.8449810">
        <ele>4.4</ele>
        <time>2021-05-18T11:52:47Z</time>
      </trkpt>
      <trkpt lat="41.8695760" lon="-8.8449680">
        <ele>4.5</ele>
        <time>2021-05-18T11:52:48Z</time>
      </trkpt>
      <trkpt lat="41.8695910" lon="-8.8449690">
        <ele>4.5</ele>
        <time>2021-05-18T11:52:49Z</time>
      </trkpt>
      <trkpt lat="41.8696060" lon="-8.8449610">
        <ele>4.5</ele>
        <time>2021-05-18T11:52:50Z</time>
      </trkpt>
      <trkpt lat="41.8696210" lon="-8.8449590">
        <ele>4.5</ele>
        <time>2021-05-18T11:52:51Z</time>
      </trkpt>
      <trkpt lat="41.8696340" lon="-8.8449480">
        <ele>4.5</ele>
        <time>2021-05-18T11:52:52Z</time>
      </trkpt>
      <trkpt lat="41.8696480" lon="-8.8449430">
        <ele>4.5</ele>
        <time>2021-05-18T11:52:53Z</time>
      </trkpt>
      <trkpt lat="41.8696620" lon="-8.8449340">
        <ele>4.5</ele>
        <time>2021-05-18T11:52:54Z</time>
      </trkpt>
      <trkpt lat="41.8696760" lon="-8.8449330">
        <ele>4.5</ele>
        <time>2021-05-18T11:52:55Z</time>
      </trkpt>
      <trkpt lat="41.8696860" lon="-8.8449140">
        <ele>4.5</ele>
        <time>2021-05-18T11:52:56Z</time>
      </trkpt>
      <trkpt lat="41.8696990" lon="-8.8449090">
        <ele>4.5</ele>
        <time>2021-05-18T11:52:57Z</time>
      </trkpt>
      <trkpt lat="41.8697080" lon="-8.8448920">
        <ele>4.5</ele>
        <time>2021-05-18T11:52:58Z</time>
      </trkpt>
      <trkpt lat="41.8697210" lon="-8.8448840">
        <ele>4.5</ele>
        <time>2021-05-18T11:52:59Z</time>
      </trkpt>
      <trkpt lat="41.8697340" lon="-8.8448790">
        <ele>4.5</ele>
        <time>2021-05-18T11:53:00Z</time>
      </trkpt>
      <trkpt lat="41.8697460" lon="-8.8448700">
        <ele>4.5</ele>
        <time>2021-05-18T11:53:01Z</time>
      </trkpt>
      <trkpt lat="41.8697550" lon="-8.8448520">
        <ele>4.4</ele>
        <time>2021-05-18T11:53:02Z</time>
      </trkpt>
      <trkpt lat="41.8697760" lon="-8.8448430">
        <ele>4.4</ele>
        <time>2021-05-18T11:53:03Z</time>
      </trkpt>
      <trkpt lat="41.8697850" lon="-8.8448370">
        <ele>4.4</ele>
        <time>2021-05-18T11:53:04Z</time>
      </trkpt>
      <trkpt lat="41.8697930" lon="-8.8448320">
        <ele>4.3</ele>
        <time>2021-05-18T11:53:05Z</time>
      </trkpt>
      <trkpt lat="41.8698060" lon="-8.8448250">
        <ele>4.3</ele>
        <time>2021-05-18T11:53:06Z</time>
      </trkpt>
      <trkpt lat="41.8698200" lon="-8.8448170">
        <ele>4.3</ele>
        <time>2021-05-18T11:53:07Z</time>
      </trkpt>
      <trkpt lat="41.8698330" lon="-8.8448080">
        <ele>4.2</ele>
        <time>2021-05-18T11:53:08Z</time>
      </trkpt>
      <trkpt lat="41.8698440" lon="-8.8447940">
        <ele>4.2</ele>
        <time>2021-05-18T11:53:09Z</time>
      </trkpt>
      <trkpt lat="41.8698630" lon="-8.8447810">
        <ele>4.1</ele>
        <time>2021-05-18T11:53:10Z</time>
      </trkpt>
      <trkpt lat="41.8698700" lon="-8.8447740">
        <ele>4.1</ele>
        <time>2021-05-18T11:53:11Z</time>
      </trkpt>
      <trkpt lat="41.8698770" lon="-8.8447680">
        <ele>4.1</ele>
        <time>2021-05-18T11:53:12Z</time>
      </trkpt>
      <trkpt lat="41.8698970" lon="-8.8447570">
        <ele>4.0</ele>
        <time>2021-05-18T11:53:13Z</time>
      </trkpt>
      <trkpt lat="41.8699060" lon="-8.8447540">
        <ele>4.0</ele>
        <time>2021-05-18T11:53:14Z</time>
      </trkpt>
      <trkpt lat="41.8699150" lon="-8.8447500">
        <ele>4.0</ele>
        <time>2021-05-18T11:53:15Z</time>
      </trkpt>
      <trkpt lat="41.8699280" lon="-8.8447420">
        <ele>3.9</ele>
        <time>2021-05-18T11:53:16Z</time>
      </trkpt>
      <trkpt lat="41.8699420" lon="-8.8447370">
        <ele>3.9</ele>
        <time>2021-05-18T11:53:17Z</time>
      </trkpt>
      <trkpt lat="41.8699540" lon="-8.8447250">
        <ele>3.9</ele>
        <time>2021-05-18T11:53:18Z</time>
      </trkpt>
      <trkpt lat="41.8699680" lon="-8.8447130">
        <ele>3.8</ele>
        <time>2021-05-18T11:53:19Z</time>
      </trkpt>
      <trkpt lat="41.8699810" lon="-8.8447090">
        <ele>3.8</ele>
        <time>2021-05-18T11:53:20Z</time>
      </trkpt>
      <trkpt lat="41.8699950" lon="-8.8447060">
        <ele>3.7</ele>
        <time>2021-05-18T11:53:21Z</time>
      </trkpt>
      <trkpt lat="41.8700080" lon="-8.8446950">
        <ele>3.7</ele>
        <time>2021-05-18T11:53:22Z</time>
      </trkpt>
      <trkpt lat="41.8700200" lon="-8.8446830">
        <ele>3.7</ele>
        <time>2021-05-18T11:53:23Z</time>
      </trkpt>
      <trkpt lat="41.8700450" lon="-8.8446730">
        <ele>3.6</ele>
        <time>2021-05-18T11:53:24Z</time>
      </trkpt>
      <trkpt lat="41.8700540" lon="-8.8446660">
        <ele>3.5</ele>
        <time>2021-05-18T11:53:26Z</time>
      </trkpt>
      <trkpt lat="41.8700640" lon="-8.8446600">
        <ele>3.5</ele>
        <time>2021-05-18T11:53:27Z</time>
      </trkpt>
      <trkpt lat="41.8700730" lon="-8.8446530">
        <ele>3.5</ele>
        <time>2021-05-18T11:53:28Z</time>
      </trkpt>
      <trkpt lat="41.8700830" lon="-8.8446470">
        <ele>3.5</ele>
        <time>2021-05-18T11:53:29Z</time>
      </trkpt>
      <trkpt lat="41.8700950" lon="-8.8446360">
        <ele>3.4</ele>
        <time>2021-05-18T11:53:30Z</time>
      </trkpt>
      <trkpt lat="41.8701100" lon="-8.8446350">
        <ele>3.4</ele>
        <time>2021-05-18T11:53:31Z</time>
      </trkpt>
      <trkpt lat="41.8701290" lon="-8.8446190">
        <ele>3.3</ele>
        <time>2021-05-18T11:53:32Z</time>
      </trkpt>
      <trkpt lat="41.8701370" lon="-8.8446130">
        <ele>3.3</ele>
        <time>2021-05-18T11:53:33Z</time>
      </trkpt>
      <trkpt lat="41.8701450" lon="-8.8446070">
        <ele>3.3</ele>
        <time>2021-05-18T11:53:34Z</time>
      </trkpt>
      <trkpt lat="41.8701650" lon="-8.8445970">
        <ele>3.2</ele>
        <time>2021-05-18T11:53:35Z</time>
      </trkpt>
      <trkpt lat="41.8701730" lon="-8.8445910">
        <ele>3.2</ele>
        <time>2021-05-18T11:53:36Z</time>
      </trkpt>
      <trkpt lat="41.8701820" lon="-8.8445860">
        <ele>3.2</ele>
        <time>2021-05-18T11:53:37Z</time>
      </trkpt>
      <trkpt lat="41.8701950" lon="-8.8445800">
        <ele>3.2</ele>
        <time>2021-05-18T11:53:38Z</time>
      </trkpt>
      <trkpt lat="41.8702060" lon="-8.8445670">
        <ele>3.1</ele>
        <time>2021-05-18T11:53:39Z</time>
      </trkpt>
      <trkpt lat="41.8702180" lon="-8.8445610">
        <ele>3.1</ele>
        <time>2021-05-18T11:53:40Z</time>
      </trkpt>
      <trkpt lat="41.8702300" lon="-8.8445500">
        <ele>3.1</ele>
        <time>2021-05-18T11:53:41Z</time>
      </trkpt>
      <trkpt lat="41.8702490" lon="-8.8445350">
        <ele>3.0</ele>
        <time>2021-05-18T11:53:42Z</time>
      </trkpt>
      <trkpt lat="41.8702570" lon="-8.8445300">
        <ele>3.0</ele>
        <time>2021-05-18T11:53:43Z</time>
      </trkpt>
      <trkpt lat="41.8702650" lon="-8.8445240">
        <ele>3.0</ele>
        <time>2021-05-18T11:53:44Z</time>
      </trkpt>
      <trkpt lat="41.8702830" lon="-8.8445110">
        <ele>2.9</ele>
        <time>2021-05-18T11:53:45Z</time>
      </trkpt>
      <trkpt lat="41.8702920" lon="-8.8445070">
        <ele>2.9</ele>
        <time>2021-05-18T11:53:46Z</time>
      </trkpt>
      <trkpt lat="41.8703000" lon="-8.8445020">
        <ele>2.9</ele>
        <time>2021-05-18T11:53:47Z</time>
      </trkpt>
      <trkpt lat="41.8703200" lon="-8.8444950">
        <ele>2.8</ele>
        <time>2021-05-18T11:53:48Z</time>
      </trkpt>
      <trkpt lat="41.8703270" lon="-8.8444880">
        <ele>2.8</ele>
        <time>2021-05-18T11:53:49Z</time>
      </trkpt>
      <trkpt lat="41.8703340" lon="-8.8444820">
        <ele>2.8</ele>
        <time>2021-05-18T11:53:50Z</time>
      </trkpt>
      <trkpt lat="41.8703580" lon="-8.8444620">
        <ele>2.7</ele>
        <time>2021-05-18T11:53:51Z</time>
      </trkpt>
      <trkpt lat="41.8703680" lon="-8.8444480">
        <ele>2.6</ele>
        <time>2021-05-18T11:53:52Z</time>
      </trkpt>
      <trkpt lat="41.8703790" lon="-8.8444370">
        <ele>2.6</ele>
        <time>2021-05-18T11:53:53Z</time>
      </trkpt>
      <trkpt lat="41.8703980" lon="-8.8444210">
        <ele>2.5</ele>
        <time>2021-05-18T11:53:54Z</time>
      </trkpt>
      <trkpt lat="41.8704050" lon="-8.8444140">
        <ele>2.5</ele>
        <time>2021-05-18T11:53:55Z</time>
      </trkpt>
      <trkpt lat="41.8704130" lon="-8.8444080">
        <ele>2.5</ele>
        <time>2021-05-18T11:53:56Z</time>
      </trkpt>
      <trkpt lat="41.8704230" lon="-8.8443980">
        <ele>2.4</ele>
        <time>2021-05-18T11:53:57Z</time>
      </trkpt>
      <trkpt lat="41.8704350" lon="-8.8443920">
        <ele>2.4</ele>
        <time>2021-05-18T11:53:58Z</time>
      </trkpt>
      <trkpt lat="41.8704450" lon="-8.8443860">
        <ele>2.4</ele>
        <time>2021-05-18T11:53:59Z</time>
      </trkpt>
      <trkpt lat="41.8704640" lon="-8.8443760">
        <ele>2.3</ele>
        <time>2021-05-18T11:54:00Z</time>
      </trkpt>
      <trkpt lat="41.8704710" lon="-8.8443710">
        <ele>2.3</ele>
        <time>2021-05-18T11:54:01Z</time>
      </trkpt>
      <trkpt lat="41.8704790" lon="-8.8443670">
        <ele>2.3</ele>
        <time>2021-05-18T11:54:02Z</time>
      </trkpt>
      <trkpt lat="41.8704980" lon="-8.8443510">
        <ele>2.2</ele>
        <time>2021-05-18T11:54:03Z</time>
      </trkpt>
      <trkpt lat="41.8705050" lon="-8.8443460">
        <ele>2.2</ele>
        <time>2021-05-18T11:54:04Z</time>
      </trkpt>
      <trkpt lat="41.8705130" lon="-8.8443410">
        <ele>2.2</ele>
        <time>2021-05-18T11:54:05Z</time>
      </trkpt>
      <trkpt lat="41.8705300" lon="-8.8443210">
        <ele>2.1</ele>
        <time>2021-05-18T11:54:06Z</time>
      </trkpt>
      <trkpt lat="41.8705370" lon="-8.8443150">
        <ele>2.1</ele>
        <time>2021-05-18T11:54:07Z</time>
      </trkpt>
      <trkpt lat="41.8705440" lon="-8.8443100">
        <ele>2.0</ele>
        <time>2021-05-18T11:54:08Z</time>
      </trkpt>
      <trkpt lat="41.8705630" lon="-8.8442970">
        <ele>2.0</ele>
        <time>2021-05-18T11:54:09Z</time>
      </trkpt>
      <trkpt lat="41.8705700" lon="-8.8442890">
        <ele>2.0</ele>
        <time>2021-05-18T11:54:10Z</time>
      </trkpt>
      <trkpt lat="41.8705770" lon="-8.8442820">
        <ele>1.9</ele>
        <time>2021-05-18T11:54:11Z</time>
      </trkpt>
      <trkpt lat="41.8705880" lon="-8.8442760">
        <ele>1.9</ele>
        <time>2021-05-18T11:54:12Z</time>
      </trkpt>
      <trkpt lat="41.8705980" lon="-8.8442640">
        <ele>1.9</ele>
        <time>2021-05-18T11:54:13Z</time>
      </trkpt>
      <trkpt lat="41.8706090" lon="-8.8442580">
        <ele>1.8</ele>
        <time>2021-05-18T11:54:14Z</time>
      </trkpt>
      <trkpt lat="41.8706170" lon="-8.8442470">
        <ele>1.8</ele>
        <time>2021-05-18T11:54:15Z</time>
      </trkpt>
      <trkpt lat="41.8706280" lon="-8.8442460">
        <ele>1.8</ele>
        <time>2021-05-18T11:54:16Z</time>
      </trkpt>
      <trkpt lat="41.8706380" lon="-8.8442340">
        <ele>1.7</ele>
        <time>2021-05-18T11:54:17Z</time>
      </trkpt>
      <trkpt lat="41.8706500" lon="-8.8442290">
        <ele>1.7</ele>
        <time>2021-05-18T11:54:18Z</time>
      </trkpt>
      <trkpt lat="41.8706620" lon="-8.8442180">
        <ele>1.7</ele>
        <time>2021-05-18T11:54:19Z</time>
      </trkpt>
      <trkpt lat="41.8706740" lon="-8.8442130">
        <ele>1.6</ele>
        <time>2021-05-18T11:54:20Z</time>
      </trkpt>
      <trkpt lat="41.8706830" lon="-8.8442020">
        <ele>1.6</ele>
        <time>2021-05-18T11:54:21Z</time>
      </trkpt>
      <trkpt lat="41.8706960" lon="-8.8441980">
        <ele>1.5</ele>
        <time>2021-05-18T11:54:22Z</time>
      </trkpt>
      <trkpt lat="41.8707120" lon="-8.8441790">
        <ele>1.5</ele>
        <time>2021-05-18T11:54:23Z</time>
      </trkpt>
      <trkpt lat="41.8707190" lon="-8.8441720">
        <ele>1.5</ele>
        <time>2021-05-18T11:54:24Z</time>
      </trkpt>
      <trkpt lat="41.8707260" lon="-8.8441660">
        <ele>1.4</ele>
        <time>2021-05-18T11:54:25Z</time>
      </trkpt>
      <trkpt lat="41.8707390" lon="-8.8441650">
        <ele>1.4</ele>
        <time>2021-05-18T11:54:26Z</time>
      </trkpt>
      <trkpt lat="41.8707480" lon="-8.8441560">
        <ele>1.4</ele>
        <time>2021-05-18T11:54:27Z</time>
      </trkpt>
      <trkpt lat="41.8707580" lon="-8.8441450">
        <ele>1.3</ele>
        <time>2021-05-18T11:54:28Z</time>
      </trkpt>
      <trkpt lat="41.8707750" lon="-8.8441260">
        <ele>1.3</ele>
        <time>2021-05-18T11:54:29Z</time>
      </trkpt>
      <trkpt lat="41.8707830" lon="-8.8441210">
        <ele>1.2</ele>
        <time>2021-05-18T11:54:30Z</time>
      </trkpt>
      <trkpt lat="41.8707900" lon="-8.8441160">
        <ele>1.2</ele>
        <time>2021-05-18T11:54:31Z</time>
      </trkpt>
      <trkpt lat="41.8708000" lon="-8.8441040">
        <ele>1.2</ele>
        <time>2021-05-18T11:54:32Z</time>
      </trkpt>
      <trkpt lat="41.8708140" lon="-8.8440990">
        <ele>1.1</ele>
        <time>2021-05-18T11:54:33Z</time>
      </trkpt>
      <trkpt lat="41.8708240" lon="-8.8440900">
        <ele>1.1</ele>
        <time>2021-05-18T11:54:34Z</time>
      </trkpt>
      <trkpt lat="41.8708360" lon="-8.8440900">
        <ele>1.1</ele>
        <time>2021-05-18T11:54:35Z</time>
      </trkpt>
      <trkpt lat="41.8708460" lon="-8.8440810">
        <ele>1.0</ele>
        <time>2021-05-18T11:54:36Z</time>
      </trkpt>
      <trkpt lat="41.8708560" lon="-8.8440680">
        <ele>1.0</ele>
        <time>2021-05-18T11:54:37Z</time>
      </trkpt>
      <trkpt lat="41.8708640" lon="-8.8440550">
        <ele>1.0</ele>
        <time>2021-05-18T11:54:38Z</time>
      </trkpt>
      <trkpt lat="41.8708800" lon="-8.8440350">
        <ele>0.9</ele>
        <time>2021-05-18T11:54:39Z</time>
      </trkpt>
      <trkpt lat="41.8708880" lon="-8.8440290">
        <ele>0.9</ele>
        <time>2021-05-18T11:54:40Z</time>
      </trkpt>
      <trkpt lat="41.8708950" lon="-8.8440230">
        <ele>0.8</ele>
        <time>2021-05-18T11:54:41Z</time>
      </trkpt>
      <trkpt lat="41.8709160" lon="-8.8440160">
        <ele>0.8</ele>
        <time>2021-05-18T11:54:42Z</time>
      </trkpt>
      <trkpt lat="41.8709230" lon="-8.8440130">
        <ele>0.7</ele>
        <time>2021-05-18T11:54:43Z</time>
      </trkpt>
      <trkpt lat="41.8709310" lon="-8.8440090">
        <ele>0.7</ele>
        <time>2021-05-18T11:54:44Z</time>
      </trkpt>
      <trkpt lat="41.8709410" lon="-8.8440030">
        <ele>0.7</ele>
        <time>2021-05-18T11:54:45Z</time>
      </trkpt>
      <trkpt lat="41.8709520" lon="-8.8439930">
        <ele>0.6</ele>
        <time>2021-05-18T11:54:46Z</time>
      </trkpt>
      <trkpt lat="41.8709640" lon="-8.8439890">
        <ele>0.6</ele>
        <time>2021-05-18T11:54:47Z</time>
      </trkpt>
      <trkpt lat="41.8709810" lon="-8.8439740">
        <ele>0.5</ele>
        <time>2021-05-18T11:54:48Z</time>
      </trkpt>
      <trkpt lat="41.8709880" lon="-8.8439680">
        <ele>0.5</ele>
        <time>2021-05-18T11:54:49Z</time>
      </trkpt>
      <trkpt lat="41.8709940" lon="-8.8439610">
        <ele>0.5</ele>
        <time>2021-05-18T11:54:50Z</time>
      </trkpt>
      <trkpt lat="41.8710220" lon="-8.8439400">
        <ele>0.4</ele>
        <time>2021-05-18T11:54:52Z</time>
      </trkpt>
      <trkpt lat="41.8710270" lon="-8.8439360">
        <ele>0.4</ele>
        <time>2021-05-18T11:54:53Z</time>
      </trkpt>
      <trkpt lat="41.8710390" lon="-8.8439310">
        <ele>0.3</ele>
        <time>2021-05-18T11:54:54Z</time>
      </trkpt>
      <trkpt lat="41.8710490" lon="-8.8439230">
        <ele>0.3</ele>
        <time>2021-05-18T11:54:55Z</time>
      </trkpt>
      <trkpt lat="41.8710610" lon="-8.8439210">
        <ele>0.3</ele>
        <time>2021-05-18T11:54:56Z</time>
      </trkpt>
      <trkpt lat="41.8710790" lon="-8.8439090">
        <ele>0.2</ele>
        <time>2021-05-18T11:54:57Z</time>
      </trkpt>
      <trkpt lat="41.8710860" lon="-8.8439030">
        <ele>0.2</ele>
        <time>2021-05-18T11:54:58Z</time>
      </trkpt>
      <trkpt lat="41.8710930" lon="-8.8438980">
        <ele>0.1</ele>
        <time>2021-05-18T11:54:59Z</time>
      </trkpt>
      <trkpt lat="41.8711140" lon="-8.8438890">
        <ele>0.1</ele>
        <time>2021-05-18T11:55:00Z</time>
      </trkpt>
      <trkpt lat="41.8711220" lon="-8.8438860">
        <ele>0.1</ele>
        <time>2021-05-18T11:55:01Z</time>
      </trkpt>
      <trkpt lat="41.8711310" lon="-8.8438820">
        <ele>0.0</ele>
        <time>2021-05-18T11:55:02Z</time>
      </trkpt>
      <trkpt lat="41.8711420" lon="-8.8438790">
        <ele>0.0</ele>
        <time>2021-05-18T11:55:03Z</time>
      </trkpt>
      <trkpt lat="41.8711510" lon="-8.8438650">
        <ele>0.0</ele>
        <time>2021-05-18T11:55:04Z</time>
      </trkpt>
      <trkpt lat="41.8711620" lon="-8.8438600">
        <ele>-0.1</ele>
        <time>2021-05-18T11:55:05Z</time>
      </trkpt>
      <trkpt lat="41.8711730" lon="-8.8438530">
        <ele>-0.1</ele>
        <time>2021-05-18T11:55:06Z</time>
      </trkpt>
      <trkpt lat="41.8711920" lon="-8.8438340">
        <ele>-0.2</ele>
        <time>2021-05-18T11:55:08Z</time>
      </trkpt>
      <trkpt lat="41.8712000" lon="-8.8438320">
        <ele>-0.2</ele>
        <time>2021-05-18T11:55:09Z</time>
      </trkpt>
      <trkpt lat="41.8712020" lon="-8.8438220">
        <ele>-0.2</ele>
        <time>2021-05-18T11:55:10Z</time>
      </trkpt>
      <trkpt lat="41.8712100" lon="-8.8438140">
        <ele>-0.2</ele>
        <time>2021-05-18T11:55:12Z</time>
      </trkpt>
      <trkpt lat="41.8712090" lon="-8.8438100">
        <ele>-0.2</ele>
        <time>2021-05-18T11:55:13Z</time>
      </trkpt>
      <trkpt lat="41.8712160" lon="-8.8438050">
        <ele>-0.3</ele>
        <time>2021-05-18T11:55:14Z</time>
      </trkpt>
      <trkpt lat="41.8712180" lon="-8.8437960">
        <ele>-0.3</ele>
        <time>2021-05-18T11:55:15Z</time>
      </trkpt>
      <trkpt lat="41.8712280" lon="-8.8437880">
        <ele>-0.2</ele>
        <time>2021-05-18T11:55:16Z</time>
      </trkpt>
      <trkpt lat="41.8712310" lon="-8.8437790">
        <ele>-0.2</ele>
        <time>2021-05-18T11:55:17Z</time>
      </trkpt>
      <trkpt lat="41.8712350" lon="-8.8437690">
        <ele>-0.2</ele>
        <time>2021-05-18T11:55:18Z</time>
      </trkpt>
      <trkpt lat="41.8712380" lon="-8.8437600">
        <ele>-0.2</ele>
        <time>2021-05-18T11:55:19Z</time>
      </trkpt>
      <trkpt lat="41.8712450" lon="-8.8437540">
        <ele>-0.1</ele>
        <time>2021-05-18T11:55:20Z</time>
      </trkpt>
      <trkpt lat="41.8712570" lon="-8.8437470">
        <ele>-0.1</ele>
        <time>2021-05-18T11:55:21Z</time>
      </trkpt>
      <trkpt lat="41.8712600" lon="-8.8437370">
        <ele>-0.1</ele>
        <time>2021-05-18T11:55:22Z</time>
      </trkpt>
      <trkpt lat="41.8712660" lon="-8.8437220">
        <ele>-0.1</ele>
        <time>2021-05-18T11:55:23Z</time>
      </trkpt>
      <trkpt lat="41.8712740" lon="-8.8437190">
        <ele>0.0</ele>
        <time>2021-05-18T11:55:24Z</time>
      </trkpt>
      <trkpt lat="41.8712680" lon="-8.8437090">
        <ele>0.0</ele>
        <time>2021-05-18T11:55:25Z</time>
      </trkpt>
      <trkpt lat="41.8712820" lon="-8.8436940">
        <ele>0.0</ele>
        <time>2021-05-18T11:55:26Z</time>
      </trkpt>
      <trkpt lat="41.8712920" lon="-8.8436820">
        <ele>0.1</ele>
        <time>2021-05-18T11:55:27Z</time>
      </trkpt>
      <trkpt lat="41.8712990" lon="-8.8436730">
        <ele>0.1</ele>
        <time>2021-05-18T11:55:28Z</time>
      </trkpt>
      <trkpt lat="41.8713090" lon="-8.8436590">
        <ele>0.2</ele>
        <time>2021-05-18T11:55:29Z</time>
      </trkpt>
      <trkpt lat="41.8713150" lon="-8.8436520">
        <ele>0.2</ele>
        <time>2021-05-18T11:55:30Z</time>
      </trkpt>
      <trkpt lat="41.8713300" lon="-8.8436360">
        <ele>0.2</ele>
        <time>2021-05-18T11:55:31Z</time>
      </trkpt>
      <trkpt lat="41.8713350" lon="-8.8436300">
        <ele>0.3</ele>
        <time>2021-05-18T11:55:32Z</time>
      </trkpt>
      <trkpt lat="41.8713400" lon="-8.8436230">
        <ele>0.3</ele>
        <time>2021-05-18T11:55:33Z</time>
      </trkpt>
      <trkpt lat="41.8713450" lon="-8.8436160">
        <ele>0.3</ele>
        <time>2021-05-18T11:55:34Z</time>
      </trkpt>
      <trkpt lat="41.8713600" lon="-8.8436100">
        <ele>0.4</ele>
        <time>2021-05-18T11:55:35Z</time>
      </trkpt>
      <trkpt lat="41.8713660" lon="-8.8436060">
        <ele>0.4</ele>
        <time>2021-05-18T11:55:36Z</time>
      </trkpt>
      <trkpt lat="41.8713720" lon="-8.8435980">
        <ele>0.4</ele>
        <time>2021-05-18T11:55:37Z</time>
      </trkpt>
      <trkpt lat="41.8713880" lon="-8.8435830">
        <ele>0.5</ele>
        <time>2021-05-18T11:55:38Z</time>
      </trkpt>
      <trkpt lat="41.8713940" lon="-8.8435750">
        <ele>0.5</ele>
        <time>2021-05-18T11:55:39Z</time>
      </trkpt>
      <trkpt lat="41.8714010" lon="-8.8435670">
        <ele>0.5</ele>
        <time>2021-05-18T11:55:40Z</time>
      </trkpt>
      <trkpt lat="41.8714100" lon="-8.8435570">
        <ele>0.6</ele>
        <time>2021-05-18T11:55:41Z</time>
      </trkpt>
      <trkpt lat="41.8714190" lon="-8.8435510">
        <ele>0.6</ele>
        <time>2021-05-18T11:55:42Z</time>
      </trkpt>
      <trkpt lat="41.8714270" lon="-8.8435420">
        <ele>0.6</ele>
        <time>2021-05-18T11:55:43Z</time>
      </trkpt>
      <trkpt lat="41.8714320" lon="-8.8435360">
        <ele>0.6</ele>
        <time>2021-05-18T11:55:44Z</time>
      </trkpt>
      <trkpt lat="41.8714450" lon="-8.8435290">
        <ele>0.7</ele>
        <time>2021-05-18T11:55:45Z</time>
      </trkpt>
      <trkpt lat="41.8714530" lon="-8.8435190">
        <ele>0.7</ele>
        <time>2021-05-18T11:55:46Z</time>
      </trkpt>
      <trkpt lat="41.8714730" lon="-8.8434990">
        <ele>0.8</ele>
        <time>2021-05-18T11:55:47Z</time>
      </trkpt>
      <trkpt lat="41.8714810" lon="-8.8434920">
        <ele>0.8</ele>
        <time>2021-05-18T11:55:48Z</time>
      </trkpt>
      <trkpt lat="41.8714890" lon="-8.8434840">
        <ele>0.9</ele>
        <time>2021-05-18T11:55:49Z</time>
      </trkpt>
      <trkpt lat="41.8714970" lon="-8.8434730">
        <ele>1.4</ele>
        <time>2021-05-18T11:55:50Z</time>
      </trkpt>
      <trkpt lat="41.8715010" lon="-8.8434740">
        <ele>1.4</ele>
        <time>2021-05-18T11:55:51Z</time>
      </trkpt>
      <trkpt lat="41.8715110" lon="-8.8434610">
        <ele>1.4</ele>
        <time>2021-05-18T11:55:52Z</time>
      </trkpt>
      <trkpt lat="41.8715240" lon="-8.8434540">
        <ele>1.4</ele>
        <time>2021-05-18T11:55:53Z</time>
      </trkpt>
      <trkpt lat="41.8715390" lon="-8.8434420">
        <ele>1.3</ele>
        <time>2021-05-18T11:55:54Z</time>
      </trkpt>
      <trkpt lat="41.8715480" lon="-8.8434410">
        <ele>1.3</ele>
        <time>2021-05-18T11:55:55Z</time>
      </trkpt>
      <trkpt lat="41.8715560" lon="-8.8434290">
        <ele>1.3</ele>
        <time>2021-05-18T11:55:56Z</time>
      </trkpt>
      <trkpt lat="41.8715730" lon="-8.8434180">
        <ele>1.3</ele>
        <time>2021-05-18T11:55:57Z</time>
      </trkpt>
      <trkpt lat="41.8715880" lon="-8.8434060">
        <ele>1.3</ele>
        <time>2021-05-18T11:55:58Z</time>
      </trkpt>
      <trkpt lat="41.8715960" lon="-8.8434010">
        <ele>1.3</ele>
        <time>2021-05-18T11:55:59Z</time>
      </trkpt>
      <trkpt lat="41.8716020" lon="-8.8433900">
        <ele>1.3</ele>
        <time>2021-05-18T11:56:00Z</time>
      </trkpt>
      <trkpt lat="41.8716140" lon="-8.8433800">
        <ele>1.3</ele>
        <time>2021-05-18T11:56:01Z</time>
      </trkpt>
      <trkpt lat="41.8716200" lon="-8.8433690">
        <ele>1.3</ele>
        <time>2021-05-18T11:56:02Z</time>
      </trkpt>
      <trkpt lat="41.8716410" lon="-8.8433580">
        <ele>1.3</ele>
        <time>2021-05-18T11:56:03Z</time>
      </trkpt>
      <trkpt lat="41.8716560" lon="-8.8433450">
        <ele>1.3</ele>
        <time>2021-05-18T11:56:04Z</time>
      </trkpt>
      <trkpt lat="41.8716700" lon="-8.8433360">
        <ele>1.3</ele>
        <time>2021-05-18T11:56:05Z</time>
      </trkpt>
      <trkpt lat="41.8716840" lon="-8.8433260">
        <ele>1.3</ele>
        <time>2021-05-18T11:56:06Z</time>
      </trkpt>
      <trkpt lat="41.8717000" lon="-8.8433190">
        <ele>1.3</ele>
        <time>2021-05-18T11:56:07Z</time>
      </trkpt>
      <trkpt lat="41.8717190" lon="-8.8433150">
        <ele>1.3</ele>
        <time>2021-05-18T11:56:08Z</time>
      </trkpt>
      <trkpt lat="41.8717340" lon="-8.8433050">
        <ele>1.3</ele>
        <time>2021-05-18T11:56:09Z</time>
      </trkpt>
      <trkpt lat="41.8717470" lon="-8.8432920">
        <ele>1.3</ele>
        <time>2021-05-18T11:56:10Z</time>
      </trkpt>
      <trkpt lat="41.8717640" lon="-8.8432810">
        <ele>1.3</ele>
        <time>2021-05-18T11:56:11Z</time>
      </trkpt>
      <trkpt lat="41.8717790" lon="-8.8432730">
        <ele>1.4</ele>
        <time>2021-05-18T11:56:12Z</time>
      </trkpt>
      <trkpt lat="41.8717950" lon="-8.8432680">
        <ele>1.4</ele>
        <time>2021-05-18T11:56:13Z</time>
      </trkpt>
      <trkpt lat="41.8718070" lon="-8.8432520">
        <ele>1.4</ele>
        <time>2021-05-18T11:56:14Z</time>
      </trkpt>
      <trkpt lat="41.8718200" lon="-8.8432440">
        <ele>1.4</ele>
        <time>2021-05-18T11:56:15Z</time>
      </trkpt>
      <trkpt lat="41.8718360" lon="-8.8432420">
        <ele>1.4</ele>
        <time>2021-05-18T11:56:16Z</time>
      </trkpt>
      <trkpt lat="41.8718500" lon="-8.8432350">
        <ele>1.4</ele>
        <time>2021-05-18T11:56:17Z</time>
      </trkpt>
      <trkpt lat="41.8718640" lon="-8.8432330">
        <ele>1.4</ele>
        <time>2021-05-18T11:56:18Z</time>
      </trkpt>
      <trkpt lat="41.8718790" lon="-8.8432250">
        <ele>1.4</ele>
        <time>2021-05-18T11:56:19Z</time>
      </trkpt>
      <trkpt lat="41.8718930" lon="-8.8432180">
        <ele>1.4</ele>
        <time>2021-05-18T11:56:20Z</time>
      </trkpt>
      <trkpt lat="41.8719080" lon="-8.8432120">
        <ele>1.4</ele>
        <time>2021-05-18T11:56:21Z</time>
      </trkpt>
      <trkpt lat="41.8719220" lon="-8.8432020">
        <ele>1.4</ele>
        <time>2021-05-18T11:56:22Z</time>
      </trkpt>
      <trkpt lat="41.8719360" lon="-8.8431910">
        <ele>1.5</ele>
        <time>2021-05-18T11:56:23Z</time>
      </trkpt>
      <trkpt lat="41.8719480" lon="-8.8431780">
        <ele>1.5</ele>
        <time>2021-05-18T11:56:24Z</time>
      </trkpt>
      <trkpt lat="41.8719610" lon="-8.8431710">
        <ele>1.5</ele>
        <time>2021-05-18T11:56:25Z</time>
      </trkpt>
      <trkpt lat="41.8719730" lon="-8.8431610">
        <ele>1.5</ele>
        <time>2021-05-18T11:56:26Z</time>
      </trkpt>
      <trkpt lat="41.8719850" lon="-8.8431490">
        <ele>1.5</ele>
        <time>2021-05-18T11:56:27Z</time>
      </trkpt>
      <trkpt lat="41.8720130" lon="-8.8431410">
        <ele>1.6</ele>
        <time>2021-05-18T11:56:29Z</time>
      </trkpt>
      <trkpt lat="41.8720240" lon="-8.8431300">
        <ele>1.6</ele>
        <time>2021-05-18T11:56:30Z</time>
      </trkpt>
      <trkpt lat="41.8720360" lon="-8.8431190">
        <ele>1.6</ele>
        <time>2021-05-18T11:56:31Z</time>
      </trkpt>
      <trkpt lat="41.8720460" lon="-8.8431060">
        <ele>1.6</ele>
        <time>2021-05-18T11:56:32Z</time>
      </trkpt>
      <trkpt lat="41.8720580" lon="-8.8430920">
        <ele>1.6</ele>
        <time>2021-05-18T11:56:33Z</time>
      </trkpt>
      <trkpt lat="41.8720710" lon="-8.8430810">
        <ele>1.6</ele>
        <time>2021-05-18T11:56:34Z</time>
      </trkpt>
      <trkpt lat="41.8720870" lon="-8.8430770">
        <ele>1.7</ele>
        <time>2021-05-18T11:56:35Z</time>
      </trkpt>
      <trkpt lat="41.8721010" lon="-8.8430740">
        <ele>1.7</ele>
        <time>2021-05-18T11:56:36Z</time>
      </trkpt>
      <trkpt lat="41.8721130" lon="-8.8430630">
        <ele>1.7</ele>
        <time>2021-05-18T11:56:37Z</time>
      </trkpt>
      <trkpt lat="41.8721260" lon="-8.8430620">
        <ele>1.7</ele>
        <time>2021-05-18T11:56:38Z</time>
      </trkpt>
      <trkpt lat="41.8721360" lon="-8.8430440">
        <ele>1.7</ele>
        <time>2021-05-18T11:56:39Z</time>
      </trkpt>
      <trkpt lat="41.8721470" lon="-8.8430340">
        <ele>1.7</ele>
        <time>2021-05-18T11:56:40Z</time>
      </trkpt>
      <trkpt lat="41.8721600" lon="-8.8430220">
        <ele>1.8</ele>
        <time>2021-05-18T11:56:41Z</time>
      </trkpt>
      <trkpt lat="41.8721810" lon="-8.8430100">
        <ele>1.8</ele>
        <time>2021-05-18T11:56:42Z</time>
      </trkpt>
      <trkpt lat="41.8721890" lon="-8.8430040">
        <ele>1.8</ele>
        <time>2021-05-18T11:56:43Z</time>
      </trkpt>
      <trkpt lat="41.8721970" lon="-8.8429970">
        <ele>1.8</ele>
        <time>2021-05-18T11:56:44Z</time>
      </trkpt>
      <trkpt lat="41.8722170" lon="-8.8429870">
        <ele>1.8</ele>
        <time>2021-05-18T11:56:45Z</time>
      </trkpt>
      <trkpt lat="41.8722240" lon="-8.8429780">
        <ele>1.8</ele>
        <time>2021-05-18T11:56:46Z</time>
      </trkpt>
      <trkpt lat="41.8722310" lon="-8.8429690">
        <ele>1.8</ele>
        <time>2021-05-18T11:56:47Z</time>
      </trkpt>
      <trkpt lat="41.8722520" lon="-8.8429620">
        <ele>1.9</ele>
        <time>2021-05-18T11:56:48Z</time>
      </trkpt>
      <trkpt lat="41.8722600" lon="-8.8429560">
        <ele>1.9</ele>
        <time>2021-05-18T11:56:49Z</time>
      </trkpt>
      <trkpt lat="41.8722690" lon="-8.8429510">
        <ele>1.9</ele>
        <time>2021-05-18T11:56:50Z</time>
      </trkpt>
      <trkpt lat="41.8722850" lon="-8.8429340">
        <ele>1.9</ele>
        <time>2021-05-18T11:56:51Z</time>
      </trkpt>
      <trkpt lat="41.8722920" lon="-8.8429280">
        <ele>1.9</ele>
        <time>2021-05-18T11:56:52Z</time>
      </trkpt>
      <trkpt lat="41.8722990" lon="-8.8429220">
        <ele>1.9</ele>
        <time>2021-05-18T11:56:53Z</time>
      </trkpt>
      <trkpt lat="41.8723110" lon="-8.8429120">
        <ele>1.9</ele>
        <time>2021-05-18T11:56:54Z</time>
      </trkpt>
      <trkpt lat="41.8723230" lon="-8.8429010">
        <ele>2.0</ele>
        <time>2021-05-18T11:56:55Z</time>
      </trkpt>
      <trkpt lat="41.8723430" lon="-8.8428900">
        <ele>2.0</ele>
        <time>2021-05-18T11:56:56Z</time>
      </trkpt>
      <trkpt lat="41.8723520" lon="-8.8428860">
        <ele>2.0</ele>
        <time>2021-05-18T11:56:57Z</time>
      </trkpt>
      <trkpt lat="41.8723610" lon="-8.8428820">
        <ele>2.0</ele>
        <time>2021-05-18T11:56:58Z</time>
      </trkpt>
      <trkpt lat="41.8723730" lon="-8.8428710">
        <ele>2.0</ele>
        <time>2021-05-18T11:56:59Z</time>
      </trkpt>
      <trkpt lat="41.8723820" lon="-8.8428580">
        <ele>2.0</ele>
        <time>2021-05-18T11:57:00Z</time>
      </trkpt>
      <trkpt lat="41.8723950" lon="-8.8428510">
        <ele>2.0</ele>
        <time>2021-05-18T11:57:01Z</time>
      </trkpt>
      <trkpt lat="41.8724090" lon="-8.8428460">
        <ele>2.0</ele>
        <time>2021-05-18T11:57:02Z</time>
      </trkpt>
      <trkpt lat="41.8724220" lon="-8.8428400">
        <ele>2.1</ele>
        <time>2021-05-18T11:57:03Z</time>
      </trkpt>
      <trkpt lat="41.8724350" lon="-8.8428310">
        <ele>2.1</ele>
        <time>2021-05-18T11:57:04Z</time>
      </trkpt>
      <trkpt lat="41.8724460" lon="-8.8428200">
        <ele>2.1</ele>
        <time>2021-05-18T11:57:05Z</time>
      </trkpt>
      <trkpt lat="41.8724580" lon="-8.8428150">
        <ele>2.1</ele>
        <time>2021-05-18T11:57:06Z</time>
      </trkpt>
      <trkpt lat="41.8724680" lon="-8.8428050">
        <ele>2.1</ele>
        <time>2021-05-18T11:57:08Z</time>
      </trkpt>
      <trkpt lat="41.8724880" lon="-8.8427920">
        <ele>2.1</ele>
        <time>2021-05-18T11:57:09Z</time>
      </trkpt>
      <trkpt lat="41.8724970" lon="-8.8427870">
        <ele>2.1</ele>
        <time>2021-05-18T11:57:10Z</time>
      </trkpt>
      <trkpt lat="41.8725050" lon="-8.8427820">
        <ele>2.1</ele>
        <time>2021-05-18T11:57:11Z</time>
      </trkpt>
      <trkpt lat="41.8725240" lon="-8.8427700">
        <ele>2.2</ele>
        <time>2021-05-18T11:57:12Z</time>
      </trkpt>
      <trkpt lat="41.8725330" lon="-8.8427660">
        <ele>2.2</ele>
        <time>2021-05-18T11:57:13Z</time>
      </trkpt>
      <trkpt lat="41.8725410" lon="-8.8427610">
        <ele>2.2</ele>
        <time>2021-05-18T11:57:14Z</time>
      </trkpt>
      <trkpt lat="41.8725550" lon="-8.8427540">
        <ele>2.2</ele>
        <time>2021-05-18T11:57:15Z</time>
      </trkpt>
      <trkpt lat="41.8725650" lon="-8.8427380">
        <ele>2.2</ele>
        <time>2021-05-18T11:57:16Z</time>
      </trkpt>
      <trkpt lat="41.8725780" lon="-8.8427280">
        <ele>2.2</ele>
        <time>2021-05-18T11:57:17Z</time>
      </trkpt>
      <trkpt lat="41.8725900" lon="-8.8427240">
        <ele>2.2</ele>
        <time>2021-05-18T11:57:18Z</time>
      </trkpt>
      <trkpt lat="41.8726100" lon="-8.8427080">
        <ele>2.2</ele>
        <time>2021-05-18T11:57:19Z</time>
      </trkpt>
      <trkpt lat="41.8726160" lon="-8.8427000">
        <ele>2.2</ele>
        <time>2021-05-18T11:57:20Z</time>
      </trkpt>
      <trkpt lat="41.8726230" lon="-8.8426920">
        <ele>2.2</ele>
        <time>2021-05-18T11:57:21Z</time>
      </trkpt>
      <trkpt lat="41.8726360" lon="-8.8426920">
        <ele>2.2</ele>
        <time>2021-05-18T11:57:22Z</time>
      </trkpt>
      <trkpt lat="41.8726490" lon="-8.8426850">
        <ele>2.2</ele>
        <time>2021-05-18T11:57:23Z</time>
      </trkpt>
      <trkpt lat="41.8726670" lon="-8.8426700">
        <ele>2.2</ele>
        <time>2021-05-18T11:57:24Z</time>
      </trkpt>
      <trkpt lat="41.8726750" lon="-8.8426650">
        <ele>2.2</ele>
        <time>2021-05-18T11:57:25Z</time>
      </trkpt>
      <trkpt lat="41.8726820" lon="-8.8426590">
        <ele>2.2</ele>
        <time>2021-05-18T11:57:26Z</time>
      </trkpt>
      <trkpt lat="41.8727000" lon="-8.8426430">
        <ele>2.2</ele>
        <time>2021-05-18T11:57:27Z</time>
      </trkpt>
      <trkpt lat="41.8727070" lon="-8.8426350">
        <ele>2.2</ele>
        <time>2021-05-18T11:57:28Z</time>
      </trkpt>
      <trkpt lat="41.8727140" lon="-8.8426280">
        <ele>2.2</ele>
        <time>2021-05-18T11:57:29Z</time>
      </trkpt>
      <trkpt lat="41.8727250" lon="-8.8426160">
        <ele>2.2</ele>
        <time>2021-05-18T11:57:30Z</time>
      </trkpt>
      <trkpt lat="41.8727350" lon="-8.8426030">
        <ele>2.2</ele>
        <time>2021-05-18T11:57:31Z</time>
      </trkpt>
      <trkpt lat="41.8727480" lon="-8.8425960">
        <ele>2.2</ele>
        <time>2021-05-18T11:57:32Z</time>
      </trkpt>
      <trkpt lat="41.8727610" lon="-8.8425880">
        <ele>2.2</ele>
        <time>2021-05-18T11:57:33Z</time>
      </trkpt>
      <trkpt lat="41.8727760" lon="-8.8425800">
        <ele>2.2</ele>
        <time>2021-05-18T11:57:34Z</time>
      </trkpt>
      <trkpt lat="41.8727910" lon="-8.8425740">
        <ele>2.2</ele>
        <time>2021-05-18T11:57:35Z</time>
      </trkpt>
      <trkpt lat="41.8728090" lon="-8.8425610">
        <ele>2.2</ele>
        <time>2021-05-18T11:57:36Z</time>
      </trkpt>
      <trkpt lat="41.8728170" lon="-8.8425560">
        <ele>2.2</ele>
        <time>2021-05-18T11:57:37Z</time>
      </trkpt>
      <trkpt lat="41.8728250" lon="-8.8425520">
        <ele>2.2</ele>
        <time>2021-05-18T11:57:38Z</time>
      </trkpt>
      <trkpt lat="41.8728410" lon="-8.8425360">
        <ele>2.3</ele>
        <time>2021-05-18T11:57:39Z</time>
      </trkpt>
      <trkpt lat="41.8728490" lon="-8.8425300">
        <ele>2.3</ele>
        <time>2021-05-18T11:57:40Z</time>
      </trkpt>
      <trkpt lat="41.8728560" lon="-8.8425240">
        <ele>2.3</ele>
        <time>2021-05-18T11:57:41Z</time>
      </trkpt>
      <trkpt lat="41.8728660" lon="-8.8425150">
        <ele>2.3</ele>
        <time>2021-05-18T11:57:42Z</time>
      </trkpt>
      <trkpt lat="41.8728750" lon="-8.8425040">
        <ele>2.3</ele>
        <time>2021-05-18T11:57:43Z</time>
      </trkpt>
      <trkpt lat="41.8728830" lon="-8.8424940">
        <ele>2.3</ele>
        <time>2021-05-18T11:57:44Z</time>
      </trkpt>
      <trkpt lat="41.8729030" lon="-8.8424860">
        <ele>2.3</ele>
        <time>2021-05-18T11:57:45Z</time>
      </trkpt>
      <trkpt lat="41.8729110" lon="-8.8424800">
        <ele>2.3</ele>
        <time>2021-05-18T11:57:46Z</time>
      </trkpt>
      <trkpt lat="41.8729180" lon="-8.8424740">
        <ele>2.3</ele>
        <time>2021-05-18T11:57:47Z</time>
      </trkpt>
      <trkpt lat="41.8729260" lon="-8.8424640">
        <ele>2.4</ele>
        <time>2021-05-18T11:57:48Z</time>
      </trkpt>
      <trkpt lat="41.8729350" lon="-8.8424510">
        <ele>2.4</ele>
        <time>2021-05-18T11:57:49Z</time>
      </trkpt>
      <trkpt lat="41.8729400" lon="-8.8424420">
        <ele>2.4</ele>
        <time>2021-05-18T11:57:50Z</time>
      </trkpt>
      <trkpt lat="41.8729410" lon="-8.8424320">
        <ele>2.4</ele>
        <time>2021-05-18T11:57:51Z</time>
      </trkpt>
      <trkpt lat="41.8729410" lon="-8.8424250">
        <ele>2.4</ele>
        <time>2021-05-18T11:57:52Z</time>
      </trkpt>
      <trkpt lat="41.8729430" lon="-8.8424150">
        <ele>2.4</ele>
        <time>2021-05-18T11:57:53Z</time>
      </trkpt>
      <trkpt lat="41.8729530" lon="-8.8424060">
        <ele>2.4</ele>
        <time>2021-05-18T11:57:54Z</time>
      </trkpt>
      <trkpt lat="41.8729520" lon="-8.8423990">
        <ele>2.4</ele>
        <time>2021-05-18T11:57:55Z</time>
      </trkpt>
      <trkpt lat="41.8729620" lon="-8.8423820">
        <ele>2.4</ele>
        <time>2021-05-18T11:57:56Z</time>
      </trkpt>
      <trkpt lat="41.8729660" lon="-8.8423800">
        <ele>2.4</ele>
        <time>2021-05-18T11:57:57Z</time>
      </trkpt>
      <trkpt lat="41.8729730" lon="-8.8423700">
        <ele>2.4</ele>
        <time>2021-05-18T11:57:58Z</time>
      </trkpt>
      <trkpt lat="41.8729780" lon="-8.8423640">
        <ele>2.5</ele>
        <time>2021-05-18T11:57:59Z</time>
      </trkpt>
      <trkpt lat="41.8729930" lon="-8.8423580">
        <ele>2.5</ele>
        <time>2021-05-18T11:58:00Z</time>
      </trkpt>
      <trkpt lat="41.8730050" lon="-8.8423480">
        <ele>2.5</ele>
        <time>2021-05-18T11:58:01Z</time>
      </trkpt>
      <trkpt lat="41.8730300" lon="-8.8423320">
        <ele>2.5</ele>
        <time>2021-05-18T11:58:02Z</time>
      </trkpt>
      <trkpt lat="41.8730390" lon="-8.8423240">
        <ele>2.5</ele>
        <time>2021-05-18T11:58:03Z</time>
      </trkpt>
      <trkpt lat="41.8730480" lon="-8.8423140">
        <ele>2.5</ele>
        <time>2021-05-18T11:58:04Z</time>
      </trkpt>
      <trkpt lat="41.8730560" lon="-8.8423090">
        <ele>2.5</ele>
        <time>2021-05-18T11:58:05Z</time>
      </trkpt>
      <trkpt lat="41.8730620" lon="-8.8423000">
        <ele>2.6</ele>
        <time>2021-05-18T11:58:06Z</time>
      </trkpt>
      <trkpt lat="41.8730780" lon="-8.8422870">
        <ele>2.6</ele>
        <time>2021-05-18T11:58:07Z</time>
      </trkpt>
      <trkpt lat="41.8730870" lon="-8.8422820">
        <ele>2.6</ele>
        <time>2021-05-18T11:58:08Z</time>
      </trkpt>
      <trkpt lat="41.8730960" lon="-8.8422780">
        <ele>2.6</ele>
        <time>2021-05-18T11:58:09Z</time>
      </trkpt>
      <trkpt lat="41.8731110" lon="-8.8422610">
        <ele>2.6</ele>
        <time>2021-05-18T11:58:10Z</time>
      </trkpt>
      <trkpt lat="41.8731200" lon="-8.8422560">
        <ele>2.6</ele>
        <time>2021-05-18T11:58:11Z</time>
      </trkpt>
      <trkpt lat="41.8731280" lon="-8.8422500">
        <ele>2.6</ele>
        <time>2021-05-18T11:58:12Z</time>
      </trkpt>
      <trkpt lat="41.8731430" lon="-8.8422410">
        <ele>2.7</ele>
        <time>2021-05-18T11:58:13Z</time>
      </trkpt>
      <trkpt lat="41.8731580" lon="-8.8422380">
        <ele>2.7</ele>
        <time>2021-05-18T11:58:14Z</time>
      </trkpt>
      <trkpt lat="41.8731640" lon="-8.8422270">
        <ele>2.7</ele>
        <time>2021-05-18T11:58:15Z</time>
      </trkpt>
      <trkpt lat="41.8731740" lon="-8.8422090">
        <ele>2.7</ele>
        <time>2021-05-18T11:58:16Z</time>
      </trkpt>
      <trkpt lat="41.8731770" lon="-8.8422010">
        <ele>2.7</ele>
        <time>2021-05-18T11:58:17Z</time>
      </trkpt>
      <trkpt lat="41.8731890" lon="-8.8421950">
        <ele>2.7</ele>
        <time>2021-05-18T11:58:18Z</time>
      </trkpt>
      <trkpt lat="41.8732000" lon="-8.8421900">
        <ele>2.7</ele>
        <time>2021-05-18T11:58:19Z</time>
      </trkpt>
      <trkpt lat="41.8732070" lon="-8.8421770">
        <ele>2.7</ele>
        <time>2021-05-18T11:58:20Z</time>
      </trkpt>
      <trkpt lat="41.8732130" lon="-8.8421680">
        <ele>2.8</ele>
        <time>2021-05-18T11:58:21Z</time>
      </trkpt>
      <trkpt lat="41.8732280" lon="-8.8421660">
        <ele>2.8</ele>
        <time>2021-05-18T11:58:22Z</time>
      </trkpt>
      <trkpt lat="41.8732390" lon="-8.8421560">
        <ele>2.8</ele>
        <time>2021-05-18T11:58:23Z</time>
      </trkpt>
      <trkpt lat="41.8732480" lon="-8.8421500">
        <ele>2.8</ele>
        <time>2021-05-18T11:58:24Z</time>
      </trkpt>
      <trkpt lat="41.8732590" lon="-8.8421440">
        <ele>2.8</ele>
        <time>2021-05-18T11:58:25Z</time>
      </trkpt>
      <trkpt lat="41.8732810" lon="-8.8421270">
        <ele>2.9</ele>
        <time>2021-05-18T11:58:26Z</time>
      </trkpt>
      <trkpt lat="41.8732860" lon="-8.8421220">
        <ele>2.9</ele>
        <time>2021-05-18T11:58:27Z</time>
      </trkpt>
      <trkpt lat="41.8732920" lon="-8.8421160">
        <ele>2.9</ele>
        <time>2021-05-18T11:58:28Z</time>
      </trkpt>
      <trkpt lat="41.8733060" lon="-8.8421120">
        <ele>2.9</ele>
        <time>2021-05-18T11:58:29Z</time>
      </trkpt>
      <trkpt lat="41.8733110" lon="-8.8421070">
        <ele>2.9</ele>
        <time>2021-05-18T11:58:30Z</time>
      </trkpt>
      <trkpt lat="41.8733200" lon="-8.8421030">
        <ele>2.9</ele>
        <time>2021-05-18T11:58:31Z</time>
      </trkpt>
      <trkpt lat="41.8733340" lon="-8.8420930">
        <ele>2.9</ele>
        <time>2021-05-18T11:58:32Z</time>
      </trkpt>
      <trkpt lat="41.8733480" lon="-8.8420870">
        <ele>3.0</ele>
        <time>2021-05-18T11:58:33Z</time>
      </trkpt>
      <trkpt lat="41.8733670" lon="-8.8420740">
        <ele>3.0</ele>
        <time>2021-05-18T11:58:34Z</time>
      </trkpt>
      <trkpt lat="41.8733750" lon="-8.8420700">
        <ele>3.0</ele>
        <time>2021-05-18T11:58:35Z</time>
      </trkpt>
      <trkpt lat="41.8733840" lon="-8.8420660">
        <ele>3.0</ele>
        <time>2021-05-18T11:58:36Z</time>
      </trkpt>
      <trkpt lat="41.8734010" lon="-8.8420510">
        <ele>3.0</ele>
        <time>2021-05-18T11:58:37Z</time>
      </trkpt>
      <trkpt lat="41.8734070" lon="-8.8420440">
        <ele>3.0</ele>
        <time>2021-05-18T11:58:38Z</time>
      </trkpt>
      <trkpt lat="41.8734130" lon="-8.8420360">
        <ele>3.0</ele>
        <time>2021-05-18T11:58:39Z</time>
      </trkpt>
      <trkpt lat="41.8734230" lon="-8.8420270">
        <ele>3.0</ele>
        <time>2021-05-18T11:58:40Z</time>
      </trkpt>
      <trkpt lat="41.8734350" lon="-8.8420180">
        <ele>3.1</ele>
        <time>2021-05-18T11:58:41Z</time>
      </trkpt>
      <trkpt lat="41.8734420" lon="-8.8420120">
        <ele>3.1</ele>
        <time>2021-05-18T11:58:42Z</time>
      </trkpt>
      <trkpt lat="41.8734500" lon="-8.8420070">
        <ele>3.1</ele>
        <time>2021-05-18T11:58:43Z</time>
      </trkpt>
      <trkpt lat="41.8734590" lon="-8.8420000">
        <ele>3.1</ele>
        <time>2021-05-18T11:58:44Z</time>
      </trkpt>
      <trkpt lat="41.8734720" lon="-8.8419910">
        <ele>3.1</ele>
        <time>2021-05-18T11:58:45Z</time>
      </trkpt>
      <trkpt lat="41.8734800" lon="-8.8419800">
        <ele>3.1</ele>
        <time>2021-05-18T11:58:46Z</time>
      </trkpt>
      <trkpt lat="41.8734960" lon="-8.8419700">
        <ele>3.1</ele>
        <time>2021-05-18T11:58:47Z</time>
      </trkpt>
      <trkpt lat="41.8735170" lon="-8.8419610">
        <ele>3.2</ele>
        <time>2021-05-18T11:58:48Z</time>
      </trkpt>
      <trkpt lat="41.8735250" lon="-8.8419570">
        <ele>3.2</ele>
        <time>2021-05-18T11:58:49Z</time>
      </trkpt>
      <trkpt lat="41.8735340" lon="-8.8419520">
        <ele>3.2</ele>
        <time>2021-05-18T11:58:50Z</time>
      </trkpt>
      <trkpt lat="41.8735480" lon="-8.8419400">
        <ele>3.2</ele>
        <time>2021-05-18T11:58:51Z</time>
      </trkpt>
      <trkpt lat="41.8735620" lon="-8.8419400">
        <ele>3.2</ele>
        <time>2021-05-18T11:58:52Z</time>
      </trkpt>
      <trkpt lat="41.8735790" lon="-8.8419290">
        <ele>3.2</ele>
        <time>2021-05-18T11:58:53Z</time>
      </trkpt>
      <trkpt lat="41.8735880" lon="-8.8419240">
        <ele>3.3</ele>
        <time>2021-05-18T11:58:54Z</time>
      </trkpt>
      <trkpt lat="41.8735960" lon="-8.8419200">
        <ele>3.3</ele>
        <time>2021-05-18T11:58:55Z</time>
      </trkpt>
      <trkpt lat="41.8736080" lon="-8.8419150">
        <ele>3.3</ele>
        <time>2021-05-18T11:58:56Z</time>
      </trkpt>
      <trkpt lat="41.8736200" lon="-8.8419070">
        <ele>3.3</ele>
        <time>2021-05-18T11:58:57Z</time>
      </trkpt>
      <trkpt lat="41.8736290" lon="-8.8419000">
        <ele>3.3</ele>
        <time>2021-05-18T11:58:58Z</time>
      </trkpt>
      <trkpt lat="41.8736380" lon="-8.8418910">
        <ele>3.3</ele>
        <time>2021-05-18T11:58:59Z</time>
      </trkpt>
      <trkpt lat="41.8736550" lon="-8.8418830">
        <ele>3.4</ele>
        <time>2021-05-18T11:59:00Z</time>
      </trkpt>
      <trkpt lat="41.8736670" lon="-8.8418750">
        <ele>3.4</ele>
        <time>2021-05-18T11:59:01Z</time>
      </trkpt>
      <trkpt lat="41.8736790" lon="-8.8418690">
        <ele>3.4</ele>
        <time>2021-05-18T11:59:02Z</time>
      </trkpt>
      <trkpt lat="41.8736850" lon="-8.8418620">
        <ele>3.4</ele>
        <time>2021-05-18T11:59:03Z</time>
      </trkpt>
      <trkpt lat="41.8737000" lon="-8.8418540">
        <ele>3.4</ele>
        <time>2021-05-18T11:59:04Z</time>
      </trkpt>
      <trkpt lat="41.8737080" lon="-8.8418530">
        <ele>3.4</ele>
        <time>2021-05-18T11:59:05Z</time>
      </trkpt>
      <trkpt lat="41.8737130" lon="-8.8418470">
        <ele>3.4</ele>
        <time>2021-05-18T11:59:06Z</time>
      </trkpt>
      <trkpt lat="41.8737260" lon="-8.8418260">
        <ele>3.5</ele>
        <time>2021-05-18T11:59:07Z</time>
      </trkpt>
      <trkpt lat="41.8737410" lon="-8.8418220">
        <ele>3.5</ele>
        <time>2021-05-18T11:59:08Z</time>
      </trkpt>
      <trkpt lat="41.8737540" lon="-8.8418190">
        <ele>3.5</ele>
        <time>2021-05-18T11:59:09Z</time>
      </trkpt>
      <trkpt lat="41.8737600" lon="-8.8418120">
        <ele>3.5</ele>
        <time>2021-05-18T11:59:10Z</time>
      </trkpt>
      <trkpt lat="41.8737710" lon="-8.8418070">
        <ele>3.5</ele>
        <time>2021-05-18T11:59:11Z</time>
      </trkpt>
      <trkpt lat="41.8737830" lon="-8.8418000">
        <ele>3.5</ele>
        <time>2021-05-18T11:59:12Z</time>
      </trkpt>
      <trkpt lat="41.8737970" lon="-8.8417890">
        <ele>3.6</ele>
        <time>2021-05-18T11:59:13Z</time>
      </trkpt>
      <trkpt lat="41.8738200" lon="-8.8417780">
        <ele>3.6</ele>
        <time>2021-05-18T11:59:14Z</time>
      </trkpt>
      <trkpt lat="41.8738260" lon="-8.8417740">
        <ele>3.6</ele>
        <time>2021-05-18T11:59:15Z</time>
      </trkpt>
      <trkpt lat="41.8738320" lon="-8.8417690">
        <ele>3.6</ele>
        <time>2021-05-18T11:59:16Z</time>
      </trkpt>
      <trkpt lat="41.8738520" lon="-8.8417540">
        <ele>3.6</ele>
        <time>2021-05-18T11:59:17Z</time>
      </trkpt>
      <trkpt lat="41.8738600" lon="-8.8417500">
        <ele>3.6</ele>
        <time>2021-05-18T11:59:18Z</time>
      </trkpt>
      <trkpt lat="41.8738680" lon="-8.8417450">
        <ele>3.6</ele>
        <time>2021-05-18T11:59:19Z</time>
      </trkpt>
      <trkpt lat="41.8738800" lon="-8.8417390">
        <ele>3.6</ele>
        <time>2021-05-18T11:59:20Z</time>
      </trkpt>
      <trkpt lat="41.8738930" lon="-8.8417360">
        <ele>3.7</ele>
        <time>2021-05-18T11:59:21Z</time>
      </trkpt>
      <trkpt lat="41.8739000" lon="-8.8417250">
        <ele>3.7</ele>
        <time>2021-05-18T11:59:22Z</time>
      </trkpt>
      <trkpt lat="41.8739100" lon="-8.8417160">
        <ele>3.7</ele>
        <time>2021-05-18T11:59:23Z</time>
      </trkpt>
      <trkpt lat="41.8739170" lon="-8.8417130">
        <ele>3.7</ele>
        <time>2021-05-18T11:59:24Z</time>
      </trkpt>
      <trkpt lat="41.8739250" lon="-8.8417010">
        <ele>3.7</ele>
        <time>2021-05-18T11:59:25Z</time>
      </trkpt>
      <trkpt lat="41.8739430" lon="-8.8416850">
        <ele>3.7</ele>
        <time>2021-05-18T11:59:26Z</time>
      </trkpt>
      <trkpt lat="41.8739500" lon="-8.8416790">
        <ele>3.7</ele>
        <time>2021-05-18T11:59:27Z</time>
      </trkpt>
      <trkpt lat="41.8739560" lon="-8.8416720">
        <ele>3.8</ele>
        <time>2021-05-18T11:59:28Z</time>
      </trkpt>
      <trkpt lat="41.8739770" lon="-8.8416610">
        <ele>3.8</ele>
        <time>2021-05-18T11:59:29Z</time>
      </trkpt>
      <trkpt lat="41.8739850" lon="-8.8416590">
        <ele>3.8</ele>
        <time>2021-05-18T11:59:30Z</time>
      </trkpt>
      <trkpt lat="41.8739940" lon="-8.8416560">
        <ele>3.8</ele>
        <time>2021-05-18T11:59:31Z</time>
      </trkpt>
      <trkpt lat="41.8740050" lon="-8.8416510">
        <ele>3.8</ele>
        <time>2021-05-18T11:59:32Z</time>
      </trkpt>
      <trkpt lat="41.8740190" lon="-8.8416400">
        <ele>3.8</ele>
        <time>2021-05-18T11:59:33Z</time>
      </trkpt>
      <trkpt lat="41.8740300" lon="-8.8416310">
        <ele>3.9</ele>
        <time>2021-05-18T11:59:34Z</time>
      </trkpt>
      <trkpt lat="41.8740440" lon="-8.8416300">
        <ele>3.9</ele>
        <time>2021-05-18T11:59:35Z</time>
      </trkpt>
      <trkpt lat="41.8740540" lon="-8.8416200">
        <ele>3.9</ele>
        <time>2021-05-18T11:59:37Z</time>
      </trkpt>
      <trkpt lat="41.8740710" lon="-8.8416100">
        <ele>3.9</ele>
        <time>2021-05-18T11:59:38Z</time>
      </trkpt>
      <trkpt lat="41.8740800" lon="-8.8416050">
        <ele>3.9</ele>
        <time>2021-05-18T11:59:39Z</time>
      </trkpt>
      <trkpt lat="41.8740880" lon="-8.8416000">
        <ele>4.0</ele>
        <time>2021-05-18T11:59:40Z</time>
      </trkpt>
      <trkpt lat="41.8741040" lon="-8.8415850">
        <ele>4.0</ele>
        <time>2021-05-18T11:59:41Z</time>
      </trkpt>
      <trkpt lat="41.8741130" lon="-8.8415800">
        <ele>4.0</ele>
        <time>2021-05-18T11:59:42Z</time>
      </trkpt>
      <trkpt lat="41.8741210" lon="-8.8415740">
        <ele>4.0</ele>
        <time>2021-05-18T11:59:43Z</time>
      </trkpt>
      <trkpt lat="41.8741390" lon="-8.8415550">
        <ele>4.0</ele>
        <time>2021-05-18T11:59:44Z</time>
      </trkpt>
      <trkpt lat="41.8741470" lon="-8.8415480">
        <ele>4.0</ele>
        <time>2021-05-18T11:59:45Z</time>
      </trkpt>
      <trkpt lat="41.8741540" lon="-8.8415400">
        <ele>4.1</ele>
        <time>2021-05-18T11:59:46Z</time>
      </trkpt>
      <trkpt lat="41.8741570" lon="-8.8415280">
        <ele>4.1</ele>
        <time>2021-05-18T11:59:47Z</time>
      </trkpt>
      <trkpt lat="41.8741700" lon="-8.8415220">
        <ele>4.1</ele>
        <time>2021-05-18T11:59:48Z</time>
      </trkpt>
      <trkpt lat="41.8741780" lon="-8.8415190">
        <ele>4.1</ele>
        <time>2021-05-18T11:59:49Z</time>
      </trkpt>
      <trkpt lat="41.8741970" lon="-8.8415010">
        <ele>4.1</ele>
        <time>2021-05-18T11:59:50Z</time>
      </trkpt>
      <trkpt lat="41.8742040" lon="-8.8414960">
        <ele>4.1</ele>
        <time>2021-05-18T11:59:51Z</time>
      </trkpt>
      <trkpt lat="41.8742120" lon="-8.8414900">
        <ele>4.1</ele>
        <time>2021-05-18T11:59:52Z</time>
      </trkpt>
      <trkpt lat="41.8742210" lon="-8.8414840">
        <ele>4.1</ele>
        <time>2021-05-18T11:59:53Z</time>
      </trkpt>
      <trkpt lat="41.8742380" lon="-8.8414760">
        <ele>4.1</ele>
        <time>2021-05-18T11:59:54Z</time>
      </trkpt>
      <trkpt lat="41.8742530" lon="-8.8414670">
        <ele>4.1</ele>
        <time>2021-05-18T11:59:55Z</time>
      </trkpt>
      <trkpt lat="41.8742580" lon="-8.8414640">
        <ele>4.1</ele>
        <time>2021-05-18T11:59:56Z</time>
      </trkpt>
      <trkpt lat="41.8742710" lon="-8.8414580">
        <ele>4.1</ele>
        <time>2021-05-18T11:59:57Z</time>
      </trkpt>
      <trkpt lat="41.8742900" lon="-8.8414520">
        <ele>4.1</ele>
        <time>2021-05-18T11:59:58Z</time>
      </trkpt>
      <trkpt lat="41.8742980" lon="-8.8414490">
        <ele>4.1</ele>
        <time>2021-05-18T11:59:59Z</time>
      </trkpt>
      <trkpt lat="41.8743070" lon="-8.8414460">
        <ele>4.1</ele>
        <time>2021-05-18T12:00:00Z</time>
      </trkpt>
      <trkpt lat="41.8743190" lon="-8.8414340">
        <ele>4.1</ele>
        <time>2021-05-18T12:00:01Z</time>
      </trkpt>
      <trkpt lat="41.8743320" lon="-8.8414310">
        <ele>4.1</ele>
        <time>2021-05-18T12:00:02Z</time>
      </trkpt>
      <trkpt lat="41.8743480" lon="-8.8414240">
        <ele>4.0</ele>
        <time>2021-05-18T12:00:03Z</time>
      </trkpt>
      <trkpt lat="41.8743610" lon="-8.8414170">
        <ele>4.0</ele>
        <time>2021-05-18T12:00:04Z</time>
      </trkpt>
      <trkpt lat="41.8743670" lon="-8.8414110">
        <ele>4.0</ele>
        <time>2021-05-18T12:00:05Z</time>
      </trkpt>
      <trkpt lat="41.8743800" lon="-8.8414010">
        <ele>4.0</ele>
        <time>2021-05-18T12:00:06Z</time>
      </trkpt>
      <trkpt lat="41.8743930" lon="-8.8413980">
        <ele>4.0</ele>
        <time>2021-05-18T12:00:07Z</time>
      </trkpt>
      <trkpt lat="41.8744050" lon="-8.8413900">
        <ele>4.0</ele>
        <time>2021-05-18T12:00:08Z</time>
      </trkpt>
      <trkpt lat="41.8744280" lon="-8.8413780">
        <ele>4.0</ele>
        <time>2021-05-18T12:00:09Z</time>
      </trkpt>
      <trkpt lat="41.8744360" lon="-8.8413730">
        <ele>4.0</ele>
        <time>2021-05-18T12:00:10Z</time>
      </trkpt>
      <trkpt lat="41.8744500" lon="-8.8413650">
        <ele>4.0</ele>
        <time>2021-05-18T12:00:11Z</time>
      </trkpt>
      <trkpt lat="41.8744620" lon="-8.8413590">
        <ele>4.0</ele>
        <time>2021-05-18T12:00:12Z</time>
      </trkpt>
      <trkpt lat="41.8744740" lon="-8.8413580">
        <ele>4.0</ele>
        <time>2021-05-18T12:00:13Z</time>
      </trkpt>
      <trkpt lat="41.8744840" lon="-8.8413500">
        <ele>4.0</ele>
        <time>2021-05-18T12:00:14Z</time>
      </trkpt>
      <trkpt lat="41.8745030" lon="-8.8413390">
        <ele>4.0</ele>
        <time>2021-05-18T12:00:15Z</time>
      </trkpt>
      <trkpt lat="41.8745110" lon="-8.8413360">
        <ele>4.0</ele>
        <time>2021-05-18T12:00:16Z</time>
      </trkpt>
      <trkpt lat="41.8745180" lon="-8.8413320">
        <ele>4.0</ele>
        <time>2021-05-18T12:00:17Z</time>
      </trkpt>
      <trkpt lat="41.8745260" lon="-8.8413270">
        <ele>4.0</ele>
        <time>2021-05-18T12:00:18Z</time>
      </trkpt>
      <trkpt lat="41.8745440" lon="-8.8413180">
        <ele>4.0</ele>
        <time>2021-05-18T12:00:19Z</time>
      </trkpt>
      <trkpt lat="41.8745520" lon="-8.8413100">
        <ele>4.0</ele>
        <time>2021-05-18T12:00:20Z</time>
      </trkpt>
      <trkpt lat="41.8745690" lon="-8.8413040">
        <ele>4.0</ele>
        <time>2021-05-18T12:00:21Z</time>
      </trkpt>
      <trkpt lat="41.8745800" lon="-8.8412940">
        <ele>4.0</ele>
        <time>2021-05-18T12:00:22Z</time>
      </trkpt>
      <trkpt lat="41.8745870" lon="-8.8412830">
        <ele>4.0</ele>
        <time>2021-05-18T12:00:23Z</time>
      </trkpt>
      <trkpt lat="41.8745980" lon="-8.8412770">
        <ele>4.0</ele>
        <time>2021-05-18T12:00:24Z</time>
      </trkpt>
      <trkpt lat="41.8746140" lon="-8.8412690">
        <ele>4.0</ele>
        <time>2021-05-18T12:00:25Z</time>
      </trkpt>
      <trkpt lat="41.8746260" lon="-8.8412590">
        <ele>4.0</ele>
        <time>2021-05-18T12:00:26Z</time>
      </trkpt>
      <trkpt lat="41.8746310" lon="-8.8412540">
        <ele>4.0</ele>
        <time>2021-05-18T12:00:27Z</time>
      </trkpt>
      <trkpt lat="41.8746450" lon="-8.8412450">
        <ele>3.9</ele>
        <time>2021-05-18T12:00:28Z</time>
      </trkpt>
      <trkpt lat="41.8746540" lon="-8.8412370">
        <ele>3.9</ele>
        <time>2021-05-18T12:00:29Z</time>
      </trkpt>
      <trkpt lat="41.8746690" lon="-8.8412280">
        <ele>3.9</ele>
        <time>2021-05-18T12:00:30Z</time>
      </trkpt>
      <trkpt lat="41.8746830" lon="-8.8412240">
        <ele>3.9</ele>
        <time>2021-05-18T12:00:31Z</time>
      </trkpt>
      <trkpt lat="41.8747030" lon="-8.8412180">
        <ele>3.9</ele>
        <time>2021-05-18T12:00:32Z</time>
      </trkpt>
      <trkpt lat="41.8747080" lon="-8.8412100">
        <ele>3.9</ele>
        <time>2021-05-18T12:00:33Z</time>
      </trkpt>
      <trkpt lat="41.8747260" lon="-8.8411960">
        <ele>3.9</ele>
        <time>2021-05-18T12:00:34Z</time>
      </trkpt>
      <trkpt lat="41.8747350" lon="-8.8411920">
        <ele>3.9</ele>
        <time>2021-05-18T12:00:35Z</time>
      </trkpt>
      <trkpt lat="41.8747440" lon="-8.8411870">
        <ele>3.9</ele>
        <time>2021-05-18T12:00:36Z</time>
      </trkpt>
      <trkpt lat="41.8747560" lon="-8.8411790">
        <ele>3.9</ele>
        <time>2021-05-18T12:00:37Z</time>
      </trkpt>
      <trkpt lat="41.8747690" lon="-8.8411740">
        <ele>3.9</ele>
        <time>2021-05-18T12:00:38Z</time>
      </trkpt>
      <trkpt lat="41.8747770" lon="-8.8411670">
        <ele>3.9</ele>
        <time>2021-05-18T12:00:39Z</time>
      </trkpt>
      <trkpt lat="41.8747950" lon="-8.8411620">
        <ele>3.9</ele>
        <time>2021-05-18T12:00:40Z</time>
      </trkpt>
      <trkpt lat="41.8748030" lon="-8.8411550">
        <ele>3.9</ele>
        <time>2021-05-18T12:00:41Z</time>
      </trkpt>
      <trkpt lat="41.8748100" lon="-8.8411470">
        <ele>3.9</ele>
        <time>2021-05-18T12:00:42Z</time>
      </trkpt>
      <trkpt lat="41.8748230" lon="-8.8411420">
        <ele>3.9</ele>
        <time>2021-05-18T12:00:43Z</time>
      </trkpt>
      <trkpt lat="41.8748430" lon="-8.8411300">
        <ele>3.9</ele>
        <time>2021-05-18T12:00:44Z</time>
      </trkpt>
      <trkpt lat="41.8748500" lon="-8.8411250">
        <ele>3.9</ele>
        <time>2021-05-18T12:00:45Z</time>
      </trkpt>
      <trkpt lat="41.8748560" lon="-8.8411200">
        <ele>3.9</ele>
        <time>2021-05-18T12:00:46Z</time>
      </trkpt>
      <trkpt lat="41.8748580" lon="-8.8411160">
        <ele>3.9</ele>
        <time>2021-05-18T12:00:47Z</time>
      </trkpt>
      <trkpt lat="41.8748770" lon="-8.8411080">
        <ele>3.9</ele>
        <time>2021-05-18T12:00:48Z</time>
      </trkpt>
      <trkpt lat="41.8748870" lon="-8.8411020">
        <ele>3.9</ele>
        <time>2021-05-18T12:00:49Z</time>
      </trkpt>
      <trkpt lat="41.8748970" lon="-8.8410990">
        <ele>3.9</ele>
        <time>2021-05-18T12:00:50Z</time>
      </trkpt>
      <trkpt lat="41.8749140" lon="-8.8410900">
        <ele>3.9</ele>
        <time>2021-05-18T12:00:51Z</time>
      </trkpt>
      <trkpt lat="41.8749230" lon="-8.8410830">
        <ele>3.9</ele>
        <time>2021-05-18T12:00:52Z</time>
      </trkpt>
      <trkpt lat="41.8749360" lon="-8.8410730">
        <ele>3.9</ele>
        <time>2021-05-18T12:00:53Z</time>
      </trkpt>
      <trkpt lat="41.8749460" lon="-8.8410730">
        <ele>3.9</ele>
        <time>2021-05-18T12:00:54Z</time>
      </trkpt>
      <trkpt lat="41.8749580" lon="-8.8410670">
        <ele>3.9</ele>
        <time>2021-05-18T12:00:55Z</time>
      </trkpt>
      <trkpt lat="41.8749730" lon="-8.8410620">
        <ele>3.9</ele>
        <time>2021-05-18T12:00:56Z</time>
      </trkpt>
      <trkpt lat="41.8749830" lon="-8.8410530">
        <ele>3.9</ele>
        <time>2021-05-18T12:00:57Z</time>
      </trkpt>
      <trkpt lat="41.8749920" lon="-8.8410490">
        <ele>3.9</ele>
        <time>2021-05-18T12:00:58Z</time>
      </trkpt>
      <trkpt lat="41.8750000" lon="-8.8410470">
        <ele>3.9</ele>
        <time>2021-05-18T12:00:59Z</time>
      </trkpt>
      <trkpt lat="41.8750220" lon="-8.8410410">
        <ele>3.9</ele>
        <time>2021-05-18T12:01:00Z</time>
      </trkpt>
      <trkpt lat="41.8750310" lon="-8.8410360">
        <ele>3.9</ele>
        <time>2021-05-18T12:01:01Z</time>
      </trkpt>
      <trkpt lat="41.8750410" lon="-8.8410320">
        <ele>3.9</ele>
        <time>2021-05-18T12:01:02Z</time>
      </trkpt>
      <trkpt lat="41.8750490" lon="-8.8410220">
        <ele>3.9</ele>
        <time>2021-05-18T12:01:03Z</time>
      </trkpt>
      <trkpt lat="41.8750610" lon="-8.8410100">
        <ele>3.9</ele>
        <time>2021-05-18T12:01:04Z</time>
      </trkpt>
      <trkpt lat="41.8750700" lon="-8.8410030">
        <ele>3.9</ele>
        <time>2021-05-18T12:01:05Z</time>
      </trkpt>
      <trkpt lat="41.8750860" lon="-8.8409960">
        <ele>3.9</ele>
        <time>2021-05-18T12:01:06Z</time>
      </trkpt>
      <trkpt lat="41.8750990" lon="-8.8409920">
        <ele>3.9</ele>
        <time>2021-05-18T12:01:07Z</time>
      </trkpt>
      <trkpt lat="41.8751100" lon="-8.8409800">
        <ele>3.9</ele>
        <time>2021-05-18T12:01:08Z</time>
      </trkpt>
      <trkpt lat="41.8751200" lon="-8.8409690">
        <ele>3.9</ele>
        <time>2021-05-18T12:01:09Z</time>
      </trkpt>
      <trkpt lat="41.8751370" lon="-8.8409590">
        <ele>3.9</ele>
        <time>2021-05-18T12:01:10Z</time>
      </trkpt>
      <trkpt lat="41.8751530" lon="-8.8409540">
        <ele>3.9</ele>
        <time>2021-05-18T12:01:11Z</time>
      </trkpt>
      <trkpt lat="41.8751680" lon="-8.8409370">
        <ele>3.9</ele>
        <time>2021-05-18T12:01:12Z</time>
      </trkpt>
      <trkpt lat="41.8751750" lon="-8.8409280">
        <ele>3.9</ele>
        <time>2021-05-18T12:01:13Z</time>
      </trkpt>
      <trkpt lat="41.8751810" lon="-8.8409180">
        <ele>3.9</ele>
        <time>2021-05-18T12:01:14Z</time>
      </trkpt>
      <trkpt lat="41.8751950" lon="-8.8409090">
        <ele>3.9</ele>
        <time>2021-05-18T12:01:15Z</time>
      </trkpt>
      <trkpt lat="41.8752080" lon="-8.8408940">
        <ele>3.9</ele>
        <time>2021-05-18T12:01:16Z</time>
      </trkpt>
      <trkpt lat="41.8752230" lon="-8.8408710">
        <ele>3.9</ele>
        <time>2021-05-18T12:01:17Z</time>
      </trkpt>
      <trkpt lat="41.8752290" lon="-8.8408620">
        <ele>3.9</ele>
        <time>2021-05-18T12:01:18Z</time>
      </trkpt>
      <trkpt lat="41.8752360" lon="-8.8408540">
        <ele>3.9</ele>
        <time>2021-05-18T12:01:19Z</time>
      </trkpt>
      <trkpt lat="41.8752470" lon="-8.8408250">
        <ele>4.0</ele>
        <time>2021-05-18T12:01:20Z</time>
      </trkpt>
      <trkpt lat="41.8752510" lon="-8.8408150">
        <ele>4.0</ele>
        <time>2021-05-18T12:01:21Z</time>
      </trkpt>
      <trkpt lat="41.8752550" lon="-8.8408040">
        <ele>4.0</ele>
        <time>2021-05-18T12:01:22Z</time>
      </trkpt>
      <trkpt lat="41.8752680" lon="-8.8407790">
        <ele>4.0</ele>
        <time>2021-05-18T12:01:23Z</time>
      </trkpt>
      <trkpt lat="41.8752710" lon="-8.8407660">
        <ele>4.0</ele>
        <time>2021-05-18T12:01:24Z</time>
      </trkpt>
      <trkpt lat="41.8752750" lon="-8.8407530">
        <ele>4.0</ele>
        <time>2021-05-18T12:01:25Z</time>
      </trkpt>
      <trkpt lat="41.8752800" lon="-8.8407270">
        <ele>4.0</ele>
        <time>2021-05-18T12:01:26Z</time>
      </trkpt>
      <trkpt lat="41.8752850" lon="-8.8407150">
        <ele>4.0</ele>
        <time>2021-05-18T12:01:27Z</time>
      </trkpt>
      <trkpt lat="41.8752890" lon="-8.8407040">
        <ele>4.0</ele>
        <time>2021-05-18T12:01:28Z</time>
      </trkpt>
      <trkpt lat="41.8752940" lon="-8.8406770">
        <ele>4.0</ele>
        <time>2021-05-18T12:01:29Z</time>
      </trkpt>
      <trkpt lat="41.8752960" lon="-8.8406630">
        <ele>4.0</ele>
        <time>2021-05-18T12:01:30Z</time>
      </trkpt>
      <trkpt lat="41.8752990" lon="-8.8406480">
        <ele>4.1</ele>
        <time>2021-05-18T12:01:31Z</time>
      </trkpt>
      <trkpt lat="41.8753070" lon="-8.8406220">
        <ele>4.1</ele>
        <time>2021-05-18T12:01:32Z</time>
      </trkpt>
      <trkpt lat="41.8753110" lon="-8.8406120">
        <ele>4.1</ele>
        <time>2021-05-18T12:01:33Z</time>
      </trkpt>
      <trkpt lat="41.8753140" lon="-8.8406020">
        <ele>4.1</ele>
        <time>2021-05-18T12:01:34Z</time>
      </trkpt>
      <trkpt lat="41.8753180" lon="-8.8405900">
        <ele>4.1</ele>
        <time>2021-05-18T12:01:35Z</time>
      </trkpt>
      <trkpt lat="41.8753230" lon="-8.8405720">
        <ele>4.1</ele>
        <time>2021-05-18T12:01:36Z</time>
      </trkpt>
      <trkpt lat="41.8753260" lon="-8.8405590">
        <ele>4.1</ele>
        <time>2021-05-18T12:01:37Z</time>
      </trkpt>
      <trkpt lat="41.8753330" lon="-8.8405360">
        <ele>4.1</ele>
        <time>2021-05-18T12:01:38Z</time>
      </trkpt>
      <trkpt lat="41.8753390" lon="-8.8405240">
        <ele>4.1</ele>
        <time>2021-05-18T12:01:39Z</time>
      </trkpt>
      <trkpt lat="41.8753390" lon="-8.8405030">
        <ele>4.1</ele>
        <time>2021-05-18T12:01:40Z</time>
      </trkpt>
      <trkpt lat="41.8753470" lon="-8.8404820">
        <ele>4.2</ele>
        <time>2021-05-18T12:01:41Z</time>
      </trkpt>
      <trkpt lat="41.8753480" lon="-8.8404690">
        <ele>4.2</ele>
        <time>2021-05-18T12:01:42Z</time>
      </trkpt>
      <trkpt lat="41.8753490" lon="-8.8404560">
        <ele>4.2</ele>
        <time>2021-05-18T12:01:43Z</time>
      </trkpt>
      <trkpt lat="41.8753510" lon="-8.8404450">
        <ele>4.2</ele>
        <time>2021-05-18T12:01:44Z</time>
      </trkpt>
      <trkpt lat="41.8753510" lon="-8.8404320">
        <ele>4.2</ele>
        <time>2021-05-18T12:01:45Z</time>
      </trkpt>
      <trkpt lat="41.8753530" lon="-8.8404180">
        <ele>4.2</ele>
        <time>2021-05-18T12:01:47Z</time>
      </trkpt>
      <trkpt lat="41.8753580" lon="-8.8404020">
        <ele>4.3</ele>
        <time>2021-05-18T12:01:48Z</time>
      </trkpt>
      <trkpt lat="41.8753640" lon="-8.8403970">
        <ele>4.3</ele>
        <time>2021-05-18T12:01:49Z</time>
      </trkpt>
      <trkpt lat="41.8753720" lon="-8.8403870">
        <ele>4.3</ele>
        <time>2021-05-18T12:01:50Z</time>
      </trkpt>
      <trkpt lat="41.8753830" lon="-8.8403740">
        <ele>4.3</ele>
        <time>2021-05-18T12:01:51Z</time>
      </trkpt>
      <trkpt lat="41.8753930" lon="-8.8403690">
        <ele>4.3</ele>
        <time>2021-05-18T12:01:52Z</time>
      </trkpt>
      <trkpt lat="41.8754000" lon="-8.8403630">
        <ele>4.3</ele>
        <time>2021-05-18T12:01:53Z</time>
      </trkpt>
      <trkpt lat="41.8754100" lon="-8.8403560">
        <ele>4.3</ele>
        <time>2021-05-18T12:01:54Z</time>
      </trkpt>
      <trkpt lat="41.8754190" lon="-8.8403450">
        <ele>4.3</ele>
        <time>2021-05-18T12:01:55Z</time>
      </trkpt>
      <trkpt lat="41.8754250" lon="-8.8403390">
        <ele>4.3</ele>
        <time>2021-05-18T12:01:56Z</time>
      </trkpt>
      <trkpt lat="41.8754340" lon="-8.8403330">
        <ele>4.3</ele>
        <time>2021-05-18T12:01:57Z</time>
      </trkpt>
      <trkpt lat="41.8754460" lon="-8.8403250">
        <ele>4.3</ele>
        <time>2021-05-18T12:01:58Z</time>
      </trkpt>
      <trkpt lat="41.8754530" lon="-8.8403230">
        <ele>4.3</ele>
        <time>2021-05-18T12:01:59Z</time>
      </trkpt>
      <trkpt lat="41.8754610" lon="-8.8403150">
        <ele>4.3</ele>
        <time>2021-05-18T12:02:00Z</time>
      </trkpt>
      <trkpt lat="41.8754710" lon="-8.8403100">
        <ele>4.3</ele>
        <time>2021-05-18T12:02:01Z</time>
      </trkpt>
      <trkpt lat="41.8754800" lon="-8.8403070">
        <ele>4.4</ele>
        <time>2021-05-18T12:02:02Z</time>
      </trkpt>
      <trkpt lat="41.8754910" lon="-8.8402950">
        <ele>4.4</ele>
        <time>2021-05-18T12:02:03Z</time>
      </trkpt>
      <trkpt lat="41.8754990" lon="-8.8402930">
        <ele>4.4</ele>
        <time>2021-05-18T12:02:04Z</time>
      </trkpt>
      <trkpt lat="41.8755110" lon="-8.8402830">
        <ele>4.4</ele>
        <time>2021-05-18T12:02:05Z</time>
      </trkpt>
      <trkpt lat="41.8755240" lon="-8.8402770">
        <ele>4.4</ele>
        <time>2021-05-18T12:02:06Z</time>
      </trkpt>
      <trkpt lat="41.8755410" lon="-8.8402620">
        <ele>4.4</ele>
        <time>2021-05-18T12:02:07Z</time>
      </trkpt>
      <trkpt lat="41.8755510" lon="-8.8402580">
        <ele>4.4</ele>
        <time>2021-05-18T12:02:08Z</time>
      </trkpt>
      <trkpt lat="41.8755600" lon="-8.8402530">
        <ele>4.4</ele>
        <time>2021-05-18T12:02:09Z</time>
      </trkpt>
      <trkpt lat="41.8755650" lon="-8.8402510">
        <ele>4.4</ele>
        <time>2021-05-18T12:02:10Z</time>
      </trkpt>
      <trkpt lat="41.8755690" lon="-8.8402450">
        <ele>4.4</ele>
        <time>2021-05-18T12:02:11Z</time>
      </trkpt>
      <trkpt lat="41.8755810" lon="-8.8402400">
        <ele>4.4</ele>
        <time>2021-05-18T12:02:12Z</time>
      </trkpt>
      <trkpt lat="41.8755810" lon="-8.8402270">
        <ele>4.4</ele>
        <time>2021-05-18T12:02:13Z</time>
      </trkpt>
      <trkpt lat="41.8755860" lon="-8.8401980">
        <ele>4.4</ele>
        <time>2021-05-18T12:02:14Z</time>
      </trkpt>
      <trkpt lat="41.8755880" lon="-8.8401760">
        <ele>4.5</ele>
        <time>2021-05-18T12:02:15Z</time>
      </trkpt>
      <trkpt lat="41.8755830" lon="-8.8401540">
        <ele>4.6</ele>
        <time>2021-05-18T12:02:16Z</time>
      </trkpt>
      <trkpt lat="41.8755770" lon="-8.8401380">
        <ele>4.6</ele>
        <time>2021-05-18T12:02:17Z</time>
      </trkpt>
      <trkpt lat="41.8755770" lon="-8.8401190">
        <ele>4.7</ele>
        <time>2021-05-18T12:02:18Z</time>
      </trkpt>
      <trkpt lat="41.8755780" lon="-8.8400970">
        <ele>4.7</ele>
        <time>2021-05-18T12:02:19Z</time>
      </trkpt>
      <trkpt lat="41.8755800" lon="-8.8400800">
        <ele>4.8</ele>
        <time>2021-05-18T12:02:20Z</time>
      </trkpt>
      <trkpt lat="41.8755770" lon="-8.8400590">
        <ele>4.8</ele>
        <time>2021-05-18T12:02:21Z</time>
      </trkpt>
      <trkpt lat="41.8755660" lon="-8.8400330">
        <ele>4.9</ele>
        <time>2021-05-18T12:02:22Z</time>
      </trkpt>
      <trkpt lat="41.8755630" lon="-8.8400220">
        <ele>4.9</ele>
        <time>2021-05-18T12:02:23Z</time>
      </trkpt>
      <trkpt lat="41.8755590" lon="-8.8400120">
        <ele>4.9</ele>
        <time>2021-05-18T12:02:24Z</time>
      </trkpt>
      <trkpt lat="41.8755510" lon="-8.8400020">
        <ele>5.0</ele>
        <time>2021-05-18T12:02:25Z</time>
      </trkpt>
      <trkpt lat="41.8755480" lon="-8.8399940">
        <ele>5.0</ele>
        <time>2021-05-18T12:02:26Z</time>
      </trkpt>
      <trkpt lat="41.8755460" lon="-8.8399910">
        <ele>5.0</ele>
        <time>2021-05-18T12:02:27Z</time>
      </trkpt>
      <trkpt lat="41.8755390" lon="-8.8399770">
        <ele>5.0</ele>
        <time>2021-05-18T12:02:28Z</time>
      </trkpt>
      <trkpt lat="41.8755370" lon="-8.8399690">
        <ele>5.0</ele>
        <time>2021-05-18T12:02:29Z</time>
      </trkpt>
      <trkpt lat="41.8755370" lon="-8.8399520">
        <ele>5.0</ele>
        <time>2021-05-18T12:02:30Z</time>
      </trkpt>
      <trkpt lat="41.8755360" lon="-8.8399320">
        <ele>5.0</ele>
        <time>2021-05-18T12:02:31Z</time>
      </trkpt>
      <trkpt lat="41.8755390" lon="-8.8399170">
        <ele>5.1</ele>
        <time>2021-05-18T12:02:32Z</time>
      </trkpt>
      <trkpt lat="41.8755340" lon="-8.8399090">
        <ele>5.1</ele>
        <time>2021-05-18T12:02:33Z</time>
      </trkpt>
      <trkpt lat="41.8755270" lon="-8.8398980">
        <ele>5.1</ele>
        <time>2021-05-18T12:02:34Z</time>
      </trkpt>
      <trkpt lat="41.8755200" lon="-8.8398910">
        <ele>5.1</ele>
        <time>2021-05-18T12:02:35Z</time>
      </trkpt>
      <trkpt lat="41.8755100" lon="-8.8398750">
        <ele>5.1</ele>
        <time>2021-05-18T12:02:36Z</time>
      </trkpt>
      <trkpt lat="41.8755050" lon="-8.8398680">
        <ele>5.1</ele>
        <time>2021-05-18T12:02:37Z</time>
      </trkpt>
      <trkpt lat="41.8754990" lon="-8.8398610">
        <ele>5.1</ele>
        <time>2021-05-18T12:02:38Z</time>
      </trkpt>
      <trkpt lat="41.8754930" lon="-8.8398540">
        <ele>5.1</ele>
        <time>2021-05-18T12:02:39Z</time>
      </trkpt>
      <trkpt lat="41.8754820" lon="-8.8398360">
        <ele>5.2</ele>
        <time>2021-05-18T12:02:40Z</time>
      </trkpt>
      <trkpt lat="41.8754710" lon="-8.8398230">
        <ele>5.2</ele>
        <time>2021-05-18T12:02:41Z</time>
      </trkpt>
      <trkpt lat="41.8754590" lon="-8.8398090">
        <ele>5.2</ele>
        <time>2021-05-18T12:02:42Z</time>
      </trkpt>
      <trkpt lat="41.8754520" lon="-8.8397970">
        <ele>5.2</ele>
        <time>2021-05-18T12:02:43Z</time>
      </trkpt>
      <trkpt lat="41.8754430" lon="-8.8397820">
        <ele>5.2</ele>
        <time>2021-05-18T12:02:44Z</time>
      </trkpt>
      <trkpt lat="41.8754390" lon="-8.8397710">
        <ele>5.3</ele>
        <time>2021-05-18T12:02:45Z</time>
      </trkpt>
      <trkpt lat="41.8754350" lon="-8.8397610">
        <ele>5.3</ele>
        <time>2021-05-18T12:02:46Z</time>
      </trkpt>
      <trkpt lat="41.8754290" lon="-8.8397500">
        <ele>5.3</ele>
        <time>2021-05-18T12:02:47Z</time>
      </trkpt>
      <trkpt lat="41.8754210" lon="-8.8397340">
        <ele>5.3</ele>
        <time>2021-05-18T12:02:48Z</time>
      </trkpt>
      <trkpt lat="41.8754170" lon="-8.8397180">
        <ele>5.3</ele>
        <time>2021-05-18T12:02:49Z</time>
      </trkpt>
      <trkpt lat="41.8754050" lon="-8.8397090">
        <ele>5.4</ele>
        <time>2021-05-18T12:02:50Z</time>
      </trkpt>
      <trkpt lat="41.8753910" lon="-8.8397040">
        <ele>5.4</ele>
        <time>2021-05-18T12:02:51Z</time>
      </trkpt>
      <trkpt lat="41.8753750" lon="-8.8396950">
        <ele>5.4</ele>
        <time>2021-05-18T12:02:52Z</time>
      </trkpt>
      <trkpt lat="41.8753660" lon="-8.8396800">
        <ele>5.4</ele>
        <time>2021-05-18T12:02:53Z</time>
      </trkpt>
      <trkpt lat="41.8753620" lon="-8.8396690">
        <ele>5.5</ele>
        <time>2021-05-18T12:02:54Z</time>
      </trkpt>
      <trkpt lat="41.8753550" lon="-8.8396750">
        <ele>5.5</ele>
        <time>2021-05-18T12:02:55Z</time>
      </trkpt>
      <trkpt lat="41.8753490" lon="-8.8396690">
        <ele>5.5</ele>
        <time>2021-05-18T12:02:56Z</time>
      </trkpt>
      <trkpt lat="41.8753470" lon="-8.8396640">
        <ele>5.5</ele>
        <time>2021-05-18T12:02:57Z</time>
      </trkpt>
      <trkpt lat="41.8753470" lon="-8.8396580">
        <ele>5.5</ele>
        <time>2021-05-18T12:02:58Z</time>
      </trkpt>
      <trkpt lat="41.8753450" lon="-8.8396530">
        <ele>5.5</ele>
        <time>2021-05-18T12:02:59Z</time>
      </trkpt>
      <trkpt lat="41.8753450" lon="-8.8396410">
        <ele>5.5</ele>
        <time>2021-05-18T12:03:00Z</time>
      </trkpt>
      <trkpt lat="41.8753460" lon="-8.8396240">
        <ele>5.6</ele>
        <time>2021-05-18T12:03:01Z</time>
      </trkpt>
      <trkpt lat="41.8753470" lon="-8.8396200">
        <ele>5.6</ele>
        <time>2021-05-18T12:03:02Z</time>
      </trkpt>
      <trkpt lat="41.8753510" lon="-8.8396150">
        <ele>5.6</ele>
        <time>2021-05-18T12:03:03Z</time>
      </trkpt>
      <trkpt lat="41.8753480" lon="-8.8395910">
        <ele>5.6</ele>
        <time>2021-05-18T12:03:04Z</time>
      </trkpt>
      <trkpt lat="41.8753440" lon="-8.8395860">
        <ele>5.6</ele>
        <time>2021-05-18T12:03:05Z</time>
      </trkpt>
      <trkpt lat="41.8753400" lon="-8.8395750">
        <ele>5.6</ele>
        <time>2021-05-18T12:03:06Z</time>
      </trkpt>
      <trkpt lat="41.8753370" lon="-8.8395620">
        <ele>5.7</ele>
        <time>2021-05-18T12:03:07Z</time>
      </trkpt>
      <trkpt lat="41.8753320" lon="-8.8395430">
        <ele>5.7</ele>
        <time>2021-05-18T12:03:08Z</time>
      </trkpt>
      <trkpt lat="41.8753290" lon="-8.8395410">
        <ele>5.7</ele>
        <time>2021-05-18T12:03:09Z</time>
      </trkpt>
      <trkpt lat="41.8753310" lon="-8.8395460">
        <ele>5.7</ele>
        <time>2021-05-18T12:03:10Z</time>
      </trkpt>
      <trkpt lat="41.8753370" lon="-8.8395550">
        <ele>5.7</ele>
        <time>2021-05-18T12:03:11Z</time>
      </trkpt>
      <trkpt lat="41.8753370" lon="-8.8395670">
        <ele>5.8</ele>
        <time>2021-05-18T12:03:12Z</time>
      </trkpt>
      <trkpt lat="41.8753310" lon="-8.8395660">
        <ele>5.8</ele>
        <time>2021-05-18T12:03:13Z</time>
      </trkpt>
      <trkpt lat="41.8753280" lon="-8.8395650">
        <ele>5.8</ele>
        <time>2021-05-18T12:03:14Z</time>
      </trkpt>
      <trkpt lat="41.8753270" lon="-8.8395720">
        <ele>5.8</ele>
        <time>2021-05-18T12:03:15Z</time>
      </trkpt>
      <trkpt lat="41.8753270" lon="-8.8395740">
        <ele>5.8</ele>
        <time>2021-05-18T12:03:16Z</time>
      </trkpt>
      <trkpt lat="41.8753240" lon="-8.8395820">
        <ele>5.8</ele>
        <time>2021-05-18T12:03:17Z</time>
      </trkpt>
      <trkpt lat="41.8753400" lon="-8.8395860">
        <ele>5.9</ele>
        <time>2021-05-18T12:03:18Z</time>
      </trkpt>
      <trkpt lat="41.8753470" lon="-8.8395800">
        <ele>5.9</ele>
        <time>2021-05-18T12:03:19Z</time>
      </trkpt>
      <trkpt lat="41.8753540" lon="-8.8395720">
        <ele>5.9</ele>
        <time>2021-05-18T12:03:20Z</time>
      </trkpt>
      <trkpt lat="41.8753650" lon="-8.8395660">
        <ele>5.9</ele>
        <time>2021-05-18T12:03:21Z</time>
      </trkpt>
      <trkpt lat="41.8753740" lon="-8.8395380">
        <ele>6.0</ele>
        <time>2021-05-18T12:03:22Z</time>
      </trkpt>
      <trkpt lat="41.8753770" lon="-8.8395180">
        <ele>6.3</ele>
        <time>2021-05-18T12:03:23Z</time>
      </trkpt>
      <trkpt lat="41.8753870" lon="-8.8394950">
        <ele>6.3</ele>
        <time>2021-05-18T12:03:24Z</time>
      </trkpt>
      <trkpt lat="41.8753930" lon="-8.8394860">
        <ele>6.3</ele>
        <time>2021-05-18T12:03:25Z</time>
      </trkpt>
      <trkpt lat="41.8754000" lon="-8.8394810">
        <ele>6.3</ele>
        <time>2021-05-18T12:03:26Z</time>
      </trkpt>
      <trkpt lat="41.8754150" lon="-8.8394740">
        <ele>6.3</ele>
        <time>2021-05-18T12:03:27Z</time>
      </trkpt>
      <trkpt lat="41.8754280" lon="-8.8394570">
        <ele>6.3</ele>
        <time>2021-05-18T12:03:28Z</time>
      </trkpt>
      <trkpt lat="41.8754410" lon="-8.8394490">
        <ele>6.3</ele>
        <time>2021-05-18T12:03:29Z</time>
      </trkpt>
      <trkpt lat="41.8754480" lon="-8.8394370">
        <ele>6.3</ele>
        <time>2021-05-18T12:03:30Z</time>
      </trkpt>
      <trkpt lat="41.8754660" lon="-8.8394300">
        <ele>6.3</ele>
        <time>2021-05-18T12:03:31Z</time>
      </trkpt>
      <trkpt lat="41.8754760" lon="-8.8394140">
        <ele>6.3</ele>
        <time>2021-05-18T12:03:32Z</time>
      </trkpt>
      <trkpt lat="41.8754860" lon="-8.8394020">
        <ele>6.3</ele>
        <time>2021-05-18T12:03:33Z</time>
      </trkpt>
      <trkpt lat="41.8754950" lon="-8.8393840">
        <ele>6.3</ele>
        <time>2021-05-18T12:03:34Z</time>
      </trkpt>
      <trkpt lat="41.8755040" lon="-8.8393650">
        <ele>6.3</ele>
        <time>2021-05-18T12:03:35Z</time>
      </trkpt>
      <trkpt lat="41.8755130" lon="-8.8393480">
        <ele>6.3</ele>
        <time>2021-05-18T12:03:36Z</time>
      </trkpt>
      <trkpt lat="41.8755220" lon="-8.8393370">
        <ele>6.3</ele>
        <time>2021-05-18T12:03:37Z</time>
      </trkpt>
      <trkpt lat="41.8755320" lon="-8.8393130">
        <ele>6.3</ele>
        <time>2021-05-18T12:03:38Z</time>
      </trkpt>
      <trkpt lat="41.8755470" lon="-8.8393140">
        <ele>6.3</ele>
        <time>2021-05-18T12:03:39Z</time>
      </trkpt>
      <trkpt lat="41.8755610" lon="-8.8393030">
        <ele>6.3</ele>
        <time>2021-05-18T12:03:40Z</time>
      </trkpt>
      <trkpt lat="41.8755700" lon="-8.8392980">
        <ele>6.3</ele>
        <time>2021-05-18T12:03:41Z</time>
      </trkpt>
      <trkpt lat="41.8755780" lon="-8.8392920">
        <ele>6.4</ele>
        <time>2021-05-18T12:03:42Z</time>
      </trkpt>
      <trkpt lat="41.8755860" lon="-8.8392870">
        <ele>6.4</ele>
        <time>2021-05-18T12:03:43Z</time>
      </trkpt>
      <trkpt lat="41.8755950" lon="-8.8392900">
        <ele>6.4</ele>
        <time>2021-05-18T12:03:44Z</time>
      </trkpt>
      <trkpt lat="41.8755980" lon="-8.8392840">
        <ele>6.4</ele>
        <time>2021-05-18T12:03:45Z</time>
      </trkpt>
      <trkpt lat="41.8756010" lon="-8.8392790">
        <ele>6.4</ele>
        <time>2021-05-18T12:03:46Z</time>
      </trkpt>
      <trkpt lat="41.8756040" lon="-8.8392730">
        <ele>6.4</ele>
        <time>2021-05-18T12:03:47Z</time>
      </trkpt>
      <trkpt lat="41.8756060" lon="-8.8392680">
        <ele>6.4</ele>
        <time>2021-05-18T12:03:48Z</time>
      </trkpt>
      <trkpt lat="41.8756090" lon="-8.8392620">
        <ele>6.4</ele>
        <time>2021-05-18T12:03:49Z</time>
      </trkpt>
      <trkpt lat="41.8756120" lon="-8.8392570">
        <ele>6.4</ele>
        <time>2021-05-18T12:03:50Z</time>
      </trkpt>
      <trkpt lat="41.8756150" lon="-8.8392510">
        <ele>6.4</ele>
        <time>2021-05-18T12:03:51Z</time>
      </trkpt>
      <trkpt lat="41.8756250" lon="-8.8392450">
        <ele>6.4</ele>
        <time>2021-05-18T12:03:52Z</time>
      </trkpt>
      <trkpt lat="41.8756290" lon="-8.8392400">
        <ele>6.4</ele>
        <time>2021-05-18T12:03:53Z</time>
      </trkpt>
      <trkpt lat="41.8756420" lon="-8.8392390">
        <ele>6.4</ele>
        <time>2021-05-18T12:03:54Z</time>
      </trkpt>
      <trkpt lat="41.8756510" lon="-8.8392470">
        <ele>6.4</ele>
        <time>2021-05-18T12:03:55Z</time>
      </trkpt>
      <trkpt lat="41.8756600" lon="-8.8392420">
        <ele>6.4</ele>
        <time>2021-05-18T12:03:56Z</time>
      </trkpt>
      <trkpt lat="41.8756710" lon="-8.8392460">
        <ele>6.4</ele>
        <time>2021-05-18T12:03:57Z</time>
      </trkpt>
      <trkpt lat="41.8756810" lon="-8.8392320">
        <ele>6.4</ele>
        <time>2021-05-18T12:03:58Z</time>
      </trkpt>
      <trkpt lat="41.8756940" lon="-8.8392180">
        <ele>6.4</ele>
        <time>2021-05-18T12:03:59Z</time>
      </trkpt>
      <trkpt lat="41.8757040" lon="-8.8392040">
        <ele>6.4</ele>
        <time>2021-05-18T12:04:00Z</time>
      </trkpt>
      <trkpt lat="41.8757010" lon="-8.8391970">
        <ele>6.4</ele>
        <time>2021-05-18T12:04:01Z</time>
      </trkpt>
      <trkpt lat="41.8756990" lon="-8.8391930">
        <ele>6.4</ele>
        <time>2021-05-18T12:04:02Z</time>
      </trkpt>
      <trkpt lat="41.8756920" lon="-8.8391860">
        <ele>6.4</ele>
        <time>2021-05-18T12:04:03Z</time>
      </trkpt>
      <trkpt lat="41.8756900" lon="-8.8391800">
        <ele>6.4</ele>
        <time>2021-05-18T12:04:04Z</time>
      </trkpt>
      <trkpt lat="41.8756900" lon="-8.8391800">
        <ele>6.4</ele>
        <time>2021-05-18T12:04:05Z</time>
      </trkpt>
      <trkpt lat="41.8756970" lon="-8.8391590">
        <ele>6.4</ele>
        <time>2021-05-18T12:04:06Z</time>
      </trkpt>
      <trkpt lat="41.8756980" lon="-8.8391570">
        <ele>6.4</ele>
        <time>2021-05-18T12:04:07Z</time>
      </trkpt>
      <trkpt lat="41.8756970" lon="-8.8391540">
        <ele>6.4</ele>
        <time>2021-05-18T12:04:08Z</time>
      </trkpt>
      <trkpt lat="41.8756950" lon="-8.8391540">
        <ele>6.4</ele>
        <time>2021-05-18T12:04:09Z</time>
      </trkpt>
      <trkpt lat="41.8756970" lon="-8.8391530">
        <ele>6.5</ele>
        <time>2021-05-18T12:04:10Z</time>
      </trkpt>
      <trkpt lat="41.8756990" lon="-8.8391530">
        <ele>6.5</ele>
        <time>2021-05-18T12:04:11Z</time>
      </trkpt>
      <trkpt lat="41.8756940" lon="-8.8391550">
        <ele>6.5</ele>
        <time>2021-05-18T12:04:12Z</time>
      </trkpt>
      <trkpt lat="41.8756910" lon="-8.8391540">
        <ele>6.5</ele>
        <time>2021-05-18T12:04:13Z</time>
      </trkpt>
      <trkpt lat="41.8757000" lon="-8.8391570">
        <ele>6.5</ele>
        <time>2021-05-18T12:04:14Z</time>
      </trkpt>
      <trkpt lat="41.8757090" lon="-8.8391560">
        <ele>6.5</ele>
        <time>2021-05-18T12:04:15Z</time>
      </trkpt>
      <trkpt lat="41.8757150" lon="-8.8391500">
        <ele>6.5</ele>
        <time>2021-05-18T12:04:16Z</time>
      </trkpt>
      <trkpt lat="41.8757330" lon="-8.8391370">
        <ele>6.5</ele>
        <time>2021-05-18T12:04:17Z</time>
      </trkpt>
      <trkpt lat="41.8757450" lon="-8.8391290">
        <ele>6.5</ele>
        <time>2021-05-18T12:04:18Z</time>
      </trkpt>
      <trkpt lat="41.8757620" lon="-8.8391150">
        <ele>6.5</ele>
        <time>2021-05-18T12:04:19Z</time>
      </trkpt>
      <trkpt lat="41.8757700" lon="-8.8391070">
        <ele>6.5</ele>
        <time>2021-05-18T12:04:20Z</time>
      </trkpt>
      <trkpt lat="41.8757770" lon="-8.8391000">
        <ele>6.5</ele>
        <time>2021-05-18T12:04:21Z</time>
      </trkpt>
      <trkpt lat="41.8757850" lon="-8.8390930">
        <ele>6.5</ele>
        <time>2021-05-18T12:04:22Z</time>
      </trkpt>
      <trkpt lat="41.8757940" lon="-8.8390810">
        <ele>6.5</ele>
        <time>2021-05-18T12:04:23Z</time>
      </trkpt>
      <trkpt lat="41.8758040" lon="-8.8390740">
        <ele>6.5</ele>
        <time>2021-05-18T12:04:24Z</time>
      </trkpt>
      <trkpt lat="41.8758140" lon="-8.8390600">
        <ele>6.5</ele>
        <time>2021-05-18T12:04:25Z</time>
      </trkpt>
      <trkpt lat="41.8758260" lon="-8.8390490">
        <ele>6.5</ele>
        <time>2021-05-18T12:04:26Z</time>
      </trkpt>
      <trkpt lat="41.8758420" lon="-8.8390310">
        <ele>6.5</ele>
        <time>2021-05-18T12:04:27Z</time>
      </trkpt>
      <trkpt lat="41.8758490" lon="-8.8390240">
        <ele>6.5</ele>
        <time>2021-05-18T12:04:28Z</time>
      </trkpt>
      <trkpt lat="41.8758570" lon="-8.8390170">
        <ele>6.6</ele>
        <time>2021-05-18T12:04:29Z</time>
      </trkpt>
      <trkpt lat="41.8758670" lon="-8.8390060">
        <ele>6.6</ele>
        <time>2021-05-18T12:04:30Z</time>
      </trkpt>
      <trkpt lat="41.8758810" lon="-8.8389890">
        <ele>6.6</ele>
        <time>2021-05-18T12:04:31Z</time>
      </trkpt>
      <trkpt lat="41.8758920" lon="-8.8389740">
        <ele>6.6</ele>
        <time>2021-05-18T12:04:32Z</time>
      </trkpt>
      <trkpt lat="41.8759020" lon="-8.8389600">
        <ele>6.6</ele>
        <time>2021-05-18T12:04:33Z</time>
      </trkpt>
      <trkpt lat="41.8759160" lon="-8.8389540">
        <ele>6.6</ele>
        <time>2021-05-18T12:04:34Z</time>
      </trkpt>
      <trkpt lat="41.8759270" lon="-8.8389440">
        <ele>6.6</ele>
        <time>2021-05-18T12:04:35Z</time>
      </trkpt>
      <trkpt lat="41.8759450" lon="-8.8389270">
        <ele>6.6</ele>
        <time>2021-05-18T12:04:36Z</time>
      </trkpt>
      <trkpt lat="41.8759490" lon="-8.8389180">
        <ele>6.6</ele>
        <time>2021-05-18T12:04:37Z</time>
      </trkpt>
      <trkpt lat="41.8759590" lon="-8.8389080">
        <ele>6.7</ele>
        <time>2021-05-18T12:04:38Z</time>
      </trkpt>
      <trkpt lat="41.8759690" lon="-8.8388950">
        <ele>6.7</ele>
        <time>2021-05-18T12:04:39Z</time>
      </trkpt>
      <trkpt lat="41.8759740" lon="-8.8388850">
        <ele>6.7</ele>
        <time>2021-05-18T12:04:40Z</time>
      </trkpt>
      <trkpt lat="41.8759780" lon="-8.8388720">
        <ele>6.7</ele>
        <time>2021-05-18T12:04:41Z</time>
      </trkpt>
      <trkpt lat="41.8759830" lon="-8.8388600">
        <ele>6.7</ele>
        <time>2021-05-18T12:04:42Z</time>
      </trkpt>
      <trkpt lat="41.8759910" lon="-8.8388370">
        <ele>6.7</ele>
        <time>2021-05-18T12:04:43Z</time>
      </trkpt>
      <trkpt lat="41.8759960" lon="-8.8388270">
        <ele>6.7</ele>
        <time>2021-05-18T12:04:44Z</time>
      </trkpt>
      <trkpt lat="41.8760010" lon="-8.8388180">
        <ele>6.7</ele>
        <time>2021-05-18T12:04:45Z</time>
      </trkpt>
      <trkpt lat="41.8760020" lon="-8.8388070">
        <ele>6.7</ele>
        <time>2021-05-18T12:04:46Z</time>
      </trkpt>
      <trkpt lat="41.8760010" lon="-8.8387940">
        <ele>6.7</ele>
        <time>2021-05-18T12:04:47Z</time>
      </trkpt>
      <trkpt lat="41.8760050" lon="-8.8387730">
        <ele>6.8</ele>
        <time>2021-05-18T12:04:48Z</time>
      </trkpt>
      <trkpt lat="41.8759990" lon="-8.8387600">
        <ele>6.8</ele>
        <time>2021-05-18T12:04:49Z</time>
      </trkpt>
      <trkpt lat="41.8759900" lon="-8.8387540">
        <ele>6.8</ele>
        <time>2021-05-18T12:04:50Z</time>
      </trkpt>
      <trkpt lat="41.8759920" lon="-8.8387390">
        <ele>6.8</ele>
        <time>2021-05-18T12:04:51Z</time>
      </trkpt>
      <trkpt lat="41.8759950" lon="-8.8387090">
        <ele>6.8</ele>
        <time>2021-05-18T12:04:52Z</time>
      </trkpt>
      <trkpt lat="41.8759940" lon="-8.8386990">
        <ele>6.8</ele>
        <time>2021-05-18T12:04:53Z</time>
      </trkpt>
      <trkpt lat="41.8759940" lon="-8.8386880">
        <ele>6.8</ele>
        <time>2021-05-18T12:04:54Z</time>
      </trkpt>
      <trkpt lat="41.8759800" lon="-8.8386780">
        <ele>6.8</ele>
        <time>2021-05-18T12:04:55Z</time>
      </trkpt>
      <trkpt lat="41.8759730" lon="-8.8386760">
        <ele>6.8</ele>
        <time>2021-05-18T12:04:56Z</time>
      </trkpt>
      <trkpt lat="41.8759660" lon="-8.8386750">
        <ele>6.9</ele>
        <time>2021-05-18T12:04:57Z</time>
      </trkpt>
      <trkpt lat="41.8759590" lon="-8.8386740">
        <ele>6.9</ele>
        <time>2021-05-18T12:04:58Z</time>
      </trkpt>
      <trkpt lat="41.8759380" lon="-8.8386660">
        <ele>6.9</ele>
        <time>2021-05-18T12:04:59Z</time>
      </trkpt>
      <trkpt lat="41.8759280" lon="-8.8386620">
        <ele>6.9</ele>
        <time>2021-05-18T12:05:00Z</time>
      </trkpt>
      <trkpt lat="41.8759190" lon="-8.8386580">
        <ele>6.9</ele>
        <time>2021-05-18T12:05:01Z</time>
      </trkpt>
      <trkpt lat="41.8758990" lon="-8.8386570">
        <ele>6.9</ele>
        <time>2021-05-18T12:05:02Z</time>
      </trkpt>
      <trkpt lat="41.8758860" lon="-8.8386510">
        <ele>6.9</ele>
        <time>2021-05-18T12:05:03Z</time>
      </trkpt>
      <trkpt lat="41.8758750" lon="-8.8386430">
        <ele>6.9</ele>
        <time>2021-05-18T12:05:04Z</time>
      </trkpt>
      <trkpt lat="41.8758620" lon="-8.8386330">
        <ele>7.0</ele>
        <time>2021-05-18T12:05:05Z</time>
      </trkpt>
      <trkpt lat="41.8758400" lon="-8.8386260">
        <ele>7.1</ele>
        <time>2021-05-18T12:05:06Z</time>
      </trkpt>
      <trkpt lat="41.8758330" lon="-8.8386210">
        <ele>7.1</ele>
        <time>2021-05-18T12:05:07Z</time>
      </trkpt>
      <trkpt lat="41.8758260" lon="-8.8386170">
        <ele>7.1</ele>
        <time>2021-05-18T12:05:08Z</time>
      </trkpt>
      <trkpt lat="41.8758060" lon="-8.8386220">
        <ele>7.1</ele>
        <time>2021-05-18T12:05:09Z</time>
      </trkpt>
      <trkpt lat="41.8757960" lon="-8.8386230">
        <ele>7.1</ele>
        <time>2021-05-18T12:05:10Z</time>
      </trkpt>
      <trkpt lat="41.8757860" lon="-8.8386240">
        <ele>7.1</ele>
        <time>2021-05-18T12:05:11Z</time>
      </trkpt>
      <trkpt lat="41.8757700" lon="-8.8386260">
        <ele>7.1</ele>
        <time>2021-05-18T12:05:12Z</time>
      </trkpt>
      <trkpt lat="41.8757580" lon="-8.8386230">
        <ele>7.1</ele>
        <time>2021-05-18T12:05:13Z</time>
      </trkpt>
      <trkpt lat="41.8757460" lon="-8.8386210">
        <ele>7.1</ele>
        <time>2021-05-18T12:05:14Z</time>
      </trkpt>
      <trkpt lat="41.8757400" lon="-8.8386210">
        <ele>7.1</ele>
        <time>2021-05-18T12:05:15Z</time>
      </trkpt>
      <trkpt lat="41.8757310" lon="-8.8386210">
        <ele>7.2</ele>
        <time>2021-05-18T12:05:16Z</time>
      </trkpt>
      <trkpt lat="41.8757140" lon="-8.8386180">
        <ele>7.2</ele>
        <time>2021-05-18T12:05:17Z</time>
      </trkpt>
      <trkpt lat="41.8757080" lon="-8.8386240">
        <ele>7.2</ele>
        <time>2021-05-18T12:05:18Z</time>
      </trkpt>
      <trkpt lat="41.8756920" lon="-8.8386280">
        <ele>7.2</ele>
        <time>2021-05-18T12:05:19Z</time>
      </trkpt>
      <trkpt lat="41.8756810" lon="-8.8386330">
        <ele>7.2</ele>
        <time>2021-05-18T12:05:20Z</time>
      </trkpt>
      <trkpt lat="41.8756770" lon="-8.8386310">
        <ele>7.2</ele>
        <time>2021-05-18T12:05:21Z</time>
      </trkpt>
      <trkpt lat="41.8756680" lon="-8.8386420">
        <ele>7.2</ele>
        <time>2021-05-18T12:05:22Z</time>
      </trkpt>
      <trkpt lat="41.8756460" lon="-8.8386470">
        <ele>7.2</ele>
        <time>2021-05-18T12:05:23Z</time>
      </trkpt>
      <trkpt lat="41.8756440" lon="-8.8386500">
        <ele>7.2</ele>
        <time>2021-05-18T12:05:24Z</time>
      </trkpt>
      <trkpt lat="41.8756300" lon="-8.8386520">
        <ele>7.2</ele>
        <time>2021-05-18T12:05:25Z</time>
      </trkpt>
      <trkpt lat="41.8756150" lon="-8.8386530">
        <ele>7.2</ele>
        <time>2021-05-18T12:05:26Z</time>
      </trkpt>
      <trkpt lat="41.8755990" lon="-8.8386530">
        <ele>7.2</ele>
        <time>2021-05-18T12:05:27Z</time>
      </trkpt>
      <trkpt lat="41.8755900" lon="-8.8386540">
        <ele>7.2</ele>
        <time>2021-05-18T12:05:28Z</time>
      </trkpt>
      <trkpt lat="41.8755810" lon="-8.8386540">
        <ele>7.2</ele>
        <time>2021-05-18T12:05:29Z</time>
      </trkpt>
      <trkpt lat="41.8755720" lon="-8.8386540">
        <ele>7.2</ele>
        <time>2021-05-18T12:05:30Z</time>
      </trkpt>
      <trkpt lat="41.8755570" lon="-8.8386630">
        <ele>7.2</ele>
        <time>2021-05-18T12:05:31Z</time>
      </trkpt>
      <trkpt lat="41.8755550" lon="-8.8386620">
        <ele>7.2</ele>
        <time>2021-05-18T12:05:32Z</time>
      </trkpt>
      <trkpt lat="41.8755470" lon="-8.8386690">
        <ele>7.2</ele>
        <time>2021-05-18T12:05:33Z</time>
      </trkpt>
      <trkpt lat="41.8755430" lon="-8.8386740">
        <ele>7.2</ele>
        <time>2021-05-18T12:05:34Z</time>
      </trkpt>
      <trkpt lat="41.8755350" lon="-8.8386860">
        <ele>7.2</ele>
        <time>2021-05-18T12:05:35Z</time>
      </trkpt>
      <trkpt lat="41.8755330" lon="-8.8386890">
        <ele>7.2</ele>
        <time>2021-05-18T12:05:36Z</time>
      </trkpt>
      <trkpt lat="41.8755270" lon="-8.8386960">
        <ele>7.2</ele>
        <time>2021-05-18T12:05:37Z</time>
      </trkpt>
      <trkpt lat="41.8755160" lon="-8.8387010">
        <ele>7.2</ele>
        <time>2021-05-18T12:05:38Z</time>
      </trkpt>
      <trkpt lat="41.8755100" lon="-8.8386830">
        <ele>7.2</ele>
        <time>2021-05-18T12:05:39Z</time>
      </trkpt>
      <trkpt lat="41.8755170" lon="-8.8386840">
        <ele>7.2</ele>
        <time>2021-05-18T12:05:40Z</time>
      </trkpt>
      <trkpt lat="41.8755030" lon="-8.8386760">
        <ele>7.2</ele>
        <time>2021-05-18T12:05:41Z</time>
      </trkpt>
      <trkpt lat="41.8754960" lon="-8.8386760">
        <ele>7.2</ele>
        <time>2021-05-18T12:05:42Z</time>
      </trkpt>
      <trkpt lat="41.8754920" lon="-8.8386760">
        <ele>7.2</ele>
        <time>2021-05-18T12:05:43Z</time>
      </trkpt>
      <trkpt lat="41.8754850" lon="-8.8386800">
        <ele>7.2</ele>
        <time>2021-05-18T12:05:44Z</time>
      </trkpt>
      <trkpt lat="41.8754870" lon="-8.8386800">
        <ele>7.2</ele>
        <time>2021-05-18T12:05:45Z</time>
      </trkpt>
      <trkpt lat="41.8754840" lon="-8.8386850">
        <ele>7.2</ele>
        <time>2021-05-18T12:05:46Z</time>
      </trkpt>
      <trkpt lat="41.8754840" lon="-8.8386900">
        <ele>7.2</ele>
        <time>2021-05-18T12:05:47Z</time>
      </trkpt>
      <trkpt lat="41.8754760" lon="-8.8386930">
        <ele>7.2</ele>
        <time>2021-05-18T12:05:48Z</time>
      </trkpt>
      <trkpt lat="41.8754780" lon="-8.8386960">
        <ele>7.2</ele>
        <time>2021-05-18T12:05:49Z</time>
      </trkpt>
      <trkpt lat="41.8754740" lon="-8.8386980">
        <ele>7.2</ele>
        <time>2021-05-18T12:05:50Z</time>
      </trkpt>
      <trkpt lat="41.8754730" lon="-8.8386960">
        <ele>7.2</ele>
        <time>2021-05-18T12:05:51Z</time>
      </trkpt>
      <trkpt lat="41.8754700" lon="-8.8386960">
        <ele>7.2</ele>
        <time>2021-05-18T12:05:52Z</time>
      </trkpt>
      <trkpt lat="41.8754610" lon="-8.8386940">
        <ele>7.2</ele>
        <time>2021-05-18T12:05:53Z</time>
      </trkpt>
      <trkpt lat="41.8754590" lon="-8.8387000">
        <ele>7.2</ele>
        <time>2021-05-18T12:05:54Z</time>
      </trkpt>
      <trkpt lat="41.8754590" lon="-8.8387030">
        <ele>7.2</ele>
        <time>2021-05-18T12:05:55Z</time>
      </trkpt>
      <trkpt lat="41.8754580" lon="-8.8387060">
        <ele>7.2</ele>
        <time>2021-05-18T12:05:56Z</time>
      </trkpt>
      <trkpt lat="41.8754540" lon="-8.8387110">
        <ele>7.2</ele>
        <time>2021-05-18T12:05:57Z</time>
      </trkpt>
      <trkpt lat="41.8754560" lon="-8.8387080">
        <ele>7.2</ele>
        <time>2021-05-18T12:05:58Z</time>
      </trkpt>
      <trkpt lat="41.8754440" lon="-8.8387050">
        <ele>7.2</ele>
        <time>2021-05-18T12:05:59Z</time>
      </trkpt>
      <trkpt lat="41.8754540" lon="-8.8387030">
        <ele>7.2</ele>
        <time>2021-05-18T12:06:00Z</time>
      </trkpt>
      <trkpt lat="41.8754500" lon="-8.8387050">
        <ele>7.2</ele>
        <time>2021-05-18T12:06:01Z</time>
      </trkpt>
      <trkpt lat="41.8754480" lon="-8.8387030">
        <ele>7.2</ele>
        <time>2021-05-18T12:06:02Z</time>
      </trkpt>
      <trkpt lat="41.8754430" lon="-8.8386930">
        <ele>7.2</ele>
        <time>2021-05-18T12:06:03Z</time>
      </trkpt>
      <trkpt lat="41.8754340" lon="-8.8386840">
        <ele>7.2</ele>
        <time>2021-05-18T12:06:04Z</time>
      </trkpt>
      <trkpt lat="41.8754340" lon="-8.8386870">
        <ele>7.2</ele>
        <time>2021-05-18T12:06:05Z</time>
      </trkpt>
      <trkpt lat="41.8754240" lon="-8.8386860">
        <ele>7.2</ele>
        <time>2021-05-18T12:06:06Z</time>
      </trkpt>
      <trkpt lat="41.8754170" lon="-8.8386820">
        <ele>7.2</ele>
        <time>2021-05-18T12:06:07Z</time>
      </trkpt>
      <trkpt lat="41.8754160" lon="-8.8386790">
        <ele>7.2</ele>
        <time>2021-05-18T12:06:08Z</time>
      </trkpt>
      <trkpt lat="41.8754190" lon="-8.8386840">
        <ele>7.2</ele>
        <time>2021-05-18T12:06:09Z</time>
      </trkpt>
      <trkpt lat="41.8754150" lon="-8.8386820">
        <ele>7.2</ele>
        <time>2021-05-18T12:06:10Z</time>
      </trkpt>
      <trkpt lat="41.8754120" lon="-8.8386870">
        <ele>7.2</ele>
        <time>2021-05-18T12:06:11Z</time>
      </trkpt>
      <trkpt lat="41.8754080" lon="-8.8386910">
        <ele>7.2</ele>
        <time>2021-05-18T12:06:12Z</time>
      </trkpt>
      <trkpt lat="41.8754090" lon="-8.8386830">
        <ele>7.2</ele>
        <time>2021-05-18T12:06:13Z</time>
      </trkpt>
      <trkpt lat="41.8754120" lon="-8.8386790">
        <ele>7.2</ele>
        <time>2021-05-18T12:06:14Z</time>
      </trkpt>
      <trkpt lat="41.8754090" lon="-8.8386650">
        <ele>7.2</ele>
        <time>2021-05-18T12:06:15Z</time>
      </trkpt>
      <trkpt lat="41.8754020" lon="-8.8386590">
        <ele>7.2</ele>
        <time>2021-05-18T12:06:16Z</time>
      </trkpt>
      <trkpt lat="41.8753990" lon="-8.8386650">
        <ele>7.2</ele>
        <time>2021-05-18T12:06:17Z</time>
      </trkpt>
      <trkpt lat="41.8754010" lon="-8.8386670">
        <ele>7.2</ele>
        <time>2021-05-18T12:06:18Z</time>
      </trkpt>
      <trkpt lat="41.8754070" lon="-8.8386640">
        <ele>7.2</ele>
        <time>2021-05-18T12:06:19Z</time>
      </trkpt>
      <trkpt lat="41.8754120" lon="-8.8386630">
        <ele>7.2</ele>
        <time>2021-05-18T12:06:20Z</time>
      </trkpt>
      <trkpt lat="41.8754140" lon="-8.8386670">
        <ele>7.2</ele>
        <time>2021-05-18T12:06:21Z</time>
      </trkpt>
      <trkpt lat="41.8754130" lon="-8.8386620">
        <ele>7.2</ele>
        <time>2021-05-18T12:06:22Z</time>
      </trkpt>
      <trkpt lat="41.8754180" lon="-8.8386690">
        <ele>7.2</ele>
        <time>2021-05-18T12:06:23Z</time>
      </trkpt>
      <trkpt lat="41.8754200" lon="-8.8386750">
        <ele>7.2</ele>
        <time>2021-05-18T12:06:24Z</time>
      </trkpt>
      <trkpt lat="41.8754280" lon="-8.8386790">
        <ele>7.2</ele>
        <time>2021-05-18T12:06:25Z</time>
      </trkpt>
      <trkpt lat="41.8754290" lon="-8.8386770">
        <ele>7.2</ele>
        <time>2021-05-18T12:06:26Z</time>
      </trkpt>
      <trkpt lat="41.8754300" lon="-8.8386720">
        <ele>7.2</ele>
        <time>2021-05-18T12:06:27Z</time>
      </trkpt>
      <trkpt lat="41.8754280" lon="-8.8386760">
        <ele>7.2</ele>
        <time>2021-05-18T12:06:28Z</time>
      </trkpt>
      <trkpt lat="41.8754350" lon="-8.8386740">
        <ele>7.2</ele>
        <time>2021-05-18T12:06:29Z</time>
      </trkpt>
      <trkpt lat="41.8754260" lon="-8.8386850">
        <ele>7.2</ele>
        <time>2021-05-18T12:06:30Z</time>
      </trkpt>
      <trkpt lat="41.8754250" lon="-8.8387020">
        <ele>7.2</ele>
        <time>2021-05-18T12:06:31Z</time>
      </trkpt>
      <trkpt lat="41.8754280" lon="-8.8387070">
        <ele>7.2</ele>
        <time>2021-05-18T12:06:32Z</time>
      </trkpt>
      <trkpt lat="41.8754260" lon="-8.8387040">
        <ele>7.2</ele>
        <time>2021-05-18T12:06:33Z</time>
      </trkpt>
      <trkpt lat="41.8754200" lon="-8.8387150">
        <ele>7.2</ele>
        <time>2021-05-18T12:06:34Z</time>
      </trkpt>
      <trkpt lat="41.8754160" lon="-8.8387210">
        <ele>7.2</ele>
        <time>2021-05-18T12:06:35Z</time>
      </trkpt>
      <trkpt lat="41.8754160" lon="-8.8387150">
        <ele>7.2</ele>
        <time>2021-05-18T12:06:36Z</time>
      </trkpt>
      <trkpt lat="41.8754170" lon="-8.8387100">
        <ele>7.2</ele>
        <time>2021-05-18T12:06:37Z</time>
      </trkpt>
      <trkpt lat="41.8754170" lon="-8.8387040">
        <ele>7.2</ele>
        <time>2021-05-18T12:06:38Z</time>
      </trkpt>
      <trkpt lat="41.8754180" lon="-8.8386990">
        <ele>7.2</ele>
        <time>2021-05-18T12:06:39Z</time>
      </trkpt>
      <trkpt lat="41.8754190" lon="-8.8386930">
        <ele>7.2</ele>
        <time>2021-05-18T12:06:40Z</time>
      </trkpt>
      <trkpt lat="41.8754200" lon="-8.8386880">
        <ele>7.2</ele>
        <time>2021-05-18T12:06:42Z</time>
      </trkpt>
      <trkpt lat="41.8754200" lon="-8.8386820">
        <ele>7.2</ele>
        <time>2021-05-18T12:06:45Z</time>
      </trkpt>
      <trkpt lat="41.8754210" lon="-8.8386760">
        <ele>7.2</ele>
        <time>2021-05-18T12:06:46Z</time>
      </trkpt>
      <trkpt lat="41.8754220" lon="-8.8386710">
        <ele>7.2</ele>
        <time>2021-05-18T12:06:47Z</time>
      </trkpt>
      <trkpt lat="41.8754230" lon="-8.8386650">
        <ele>7.2</ele>
        <time>2021-05-18T12:06:48Z</time>
      </trkpt>
      <trkpt lat="41.8754230" lon="-8.8386600">
        <ele>7.2</ele>
        <time>2021-05-18T12:06:49Z</time>
      </trkpt>
      <trkpt lat="41.8754240" lon="-8.8386540">
        <ele>7.2</ele>
        <time>2021-05-18T12:06:50Z</time>
      </trkpt>
      <trkpt lat="41.8754290" lon="-8.8385990">
        <ele>7.3</ele>
        <time>2021-05-18T12:06:51Z</time>
      </trkpt>
      <trkpt lat="41.8754370" lon="-8.8385600">
        <ele>7.3</ele>
        <time>2021-05-18T12:06:52Z</time>
      </trkpt>
      <trkpt lat="41.8754360" lon="-8.8385460">
        <ele>7.3</ele>
        <time>2021-05-18T12:06:53Z</time>
      </trkpt>
      <trkpt lat="41.8754300" lon="-8.8385630">
        <ele>7.3</ele>
        <time>2021-05-18T12:06:54Z</time>
      </trkpt>
      <trkpt lat="41.8754250" lon="-8.8385800">
        <ele>7.3</ele>
        <time>2021-05-18T12:06:55Z</time>
      </trkpt>
      <trkpt lat="41.8754200" lon="-8.8385960">
        <ele>7.3</ele>
        <time>2021-05-18T12:06:56Z</time>
      </trkpt>
      <trkpt lat="41.8754140" lon="-8.8386130">
        <ele>7.6</ele>
        <time>2021-05-18T12:06:57Z</time>
      </trkpt>
      <trkpt lat="41.8754090" lon="-8.8386300">
        <ele>7.6</ele>
        <time>2021-05-18T12:06:58Z</time>
      </trkpt>
      <trkpt lat="41.8753820" lon="-8.8386720">
        <ele>7.6</ele>
        <time>2021-05-18T12:06:59Z</time>
      </trkpt>
      <trkpt lat="41.8753420" lon="-8.8387210">
        <ele>7.6</ele>
        <time>2021-05-18T12:07:00Z</time>
      </trkpt>
      <trkpt lat="41.8753210" lon="-8.8387470">
        <ele>7.6</ele>
        <time>2021-05-18T12:07:01Z</time>
      </trkpt>
      <trkpt lat="41.8753120" lon="-8.8387780">
        <ele>7.6</ele>
        <time>2021-05-18T12:07:02Z</time>
      </trkpt>
      <trkpt lat="41.8752930" lon="-8.8387670">
        <ele>7.6</ele>
        <time>2021-05-18T12:07:03Z</time>
      </trkpt>
      <trkpt lat="41.8752850" lon="-8.8387670">
        <ele>7.6</ele>
        <time>2021-05-18T12:07:04Z</time>
      </trkpt>
      <trkpt lat="41.8752900" lon="-8.8387820">
        <ele>7.6</ele>
        <time>2021-05-18T12:07:05Z</time>
      </trkpt>
      <trkpt lat="41.8752960" lon="-8.8387980">
        <ele>7.6</ele>
        <time>2021-05-18T12:07:06Z</time>
      </trkpt>
      <trkpt lat="41.8753010" lon="-8.8388130">
        <ele>7.6</ele>
        <time>2021-05-18T12:07:07Z</time>
      </trkpt>
      <trkpt lat="41.8753060" lon="-8.8388280">
        <ele>7.6</ele>
        <time>2021-05-18T12:07:08Z</time>
      </trkpt>
      <trkpt lat="41.8753080" lon="-8.8388690">
        <ele>7.6</ele>
        <time>2021-05-18T12:07:09Z</time>
      </trkpt>
      <trkpt lat="41.8753080" lon="-8.8388890">
        <ele>7.6</ele>
        <time>2021-05-18T12:07:10Z</time>
      </trkpt>
      <trkpt lat="41.8753150" lon="-8.8389050">
        <ele>7.6</ele>
        <time>2021-05-18T12:07:11Z</time>
      </trkpt>
      <trkpt lat="41.8753160" lon="-8.8389090">
        <ele>7.6</ele>
        <time>2021-05-18T12:07:12Z</time>
      </trkpt>
      <trkpt lat="41.8753170" lon="-8.8389120">
        <ele>7.6</ele>
        <time>2021-05-18T12:07:13Z</time>
      </trkpt>
      <trkpt lat="41.8753180" lon="-8.8389150">
        <ele>7.6</ele>
        <time>2021-05-18T12:07:14Z</time>
      </trkpt>
      <trkpt lat="41.8753190" lon="-8.8389180">
        <ele>7.6</ele>
        <time>2021-05-18T12:07:15Z</time>
      </trkpt>
      <trkpt lat="41.8753200" lon="-8.8389220">
        <ele>7.6</ele>
        <time>2021-05-18T12:07:16Z</time>
      </trkpt>
      <trkpt lat="41.8753210" lon="-8.8389250">
        <ele>7.6</ele>
        <time>2021-05-18T12:07:17Z</time>
      </trkpt>
      <trkpt lat="41.8753220" lon="-8.8389280">
        <ele>7.6</ele>
        <time>2021-05-18T12:07:18Z</time>
      </trkpt>
      <trkpt lat="41.8753230" lon="-8.8389310">
        <ele>7.6</ele>
        <time>2021-05-18T12:07:19Z</time>
      </trkpt>
      <trkpt lat="41.8753240" lon="-8.8389350">
        <ele>7.6</ele>
        <time>2021-05-18T12:07:20Z</time>
      </trkpt>
      <trkpt lat="41.8753250" lon="-8.8389380">
        <ele>7.6</ele>
        <time>2021-05-18T12:07:21Z</time>
      </trkpt>
      <trkpt lat="41.8753260" lon="-8.8389410">
        <ele>7.6</ele>
        <time>2021-05-18T12:07:22Z</time>
      </trkpt>
      <trkpt lat="41.8753270" lon="-8.8389450">
        <ele>7.6</ele>
        <time>2021-05-18T12:07:23Z</time>
      </trkpt>
      <trkpt lat="41.8753280" lon="-8.8389480">
        <ele>7.6</ele>
        <time>2021-05-18T12:07:24Z</time>
      </trkpt>
      <trkpt lat="41.8753290" lon="-8.8389510">
        <ele>7.6</ele>
        <time>2021-05-18T12:07:25Z</time>
      </trkpt>
      <trkpt lat="41.8753300" lon="-8.8389540">
        <ele>7.6</ele>
        <time>2021-05-18T12:07:26Z</time>
      </trkpt>
      <trkpt lat="41.8753310" lon="-8.8389580">
        <ele>7.6</ele>
        <time>2021-05-18T12:07:27Z</time>
      </trkpt>
      <trkpt lat="41.8753320" lon="-8.8389610">
        <ele>7.6</ele>
        <time>2021-05-18T12:07:28Z</time>
      </trkpt>
      <trkpt lat="41.8753280" lon="-8.8389410">
        <ele>7.6</ele>
        <time>2021-05-18T12:07:29Z</time>
      </trkpt>
      <trkpt lat="41.8753270" lon="-8.8389480">
        <ele>7.6</ele>
        <time>2021-05-18T12:07:30Z</time>
      </trkpt>
      <trkpt lat="41.8753350" lon="-8.8389370">
        <ele>7.6</ele>
        <time>2021-05-18T12:07:31Z</time>
      </trkpt>
      <trkpt lat="41.8753400" lon="-8.8389420">
        <ele>7.6</ele>
        <time>2021-05-18T12:07:32Z</time>
      </trkpt>
      <trkpt lat="41.8753440" lon="-8.8389440">
        <ele>7.6</ele>
        <time>2021-05-18T12:07:33Z</time>
      </trkpt>
      <trkpt lat="41.8753380" lon="-8.8389470">
        <ele>7.6</ele>
        <time>2021-05-18T12:07:34Z</time>
      </trkpt>
      <trkpt lat="41.8753330" lon="-8.8389430">
        <ele>7.6</ele>
        <time>2021-05-18T12:07:35Z</time>
      </trkpt>
      <trkpt lat="41.8753260" lon="-8.8389550">
        <ele>7.6</ele>
        <time>2021-05-18T12:07:36Z</time>
      </trkpt>
      <trkpt lat="41.8753290" lon="-8.8389490">
        <ele>7.6</ele>
        <time>2021-05-18T12:07:37Z</time>
      </trkpt>
      <trkpt lat="41.8753300" lon="-8.8389480">
        <ele>7.6</ele>
        <time>2021-05-18T12:07:38Z</time>
      </trkpt>
      <trkpt lat="41.8753320" lon="-8.8389510">
        <ele>7.6</ele>
        <time>2021-05-18T12:07:39Z</time>
      </trkpt>
      <trkpt lat="41.8753320" lon="-8.8389430">
        <ele>7.6</ele>
        <time>2021-05-18T12:07:40Z</time>
      </trkpt>
      <trkpt lat="41.8753290" lon="-8.8389420">
        <ele>7.6</ele>
        <time>2021-05-18T12:07:41Z</time>
      </trkpt>
      <trkpt lat="41.8753280" lon="-8.8389420">
        <ele>7.6</ele>
        <time>2021-05-18T12:07:42Z</time>
      </trkpt>
      <trkpt lat="41.8753280" lon="-8.8389360">
        <ele>7.6</ele>
        <time>2021-05-18T12:07:43Z</time>
      </trkpt>
      <trkpt lat="41.8753300" lon="-8.8389280">
        <ele>7.6</ele>
        <time>2021-05-18T12:07:44Z</time>
      </trkpt>
      <trkpt lat="41.8753320" lon="-8.8389230">
        <ele>7.6</ele>
        <time>2021-05-18T12:07:45Z</time>
      </trkpt>
      <trkpt lat="41.8753280" lon="-8.8389310">
        <ele>7.6</ele>
        <time>2021-05-18T12:07:46Z</time>
      </trkpt>
      <trkpt lat="41.8753220" lon="-8.8389400">
        <ele>7.6</ele>
        <time>2021-05-18T12:07:47Z</time>
      </trkpt>
      <trkpt lat="41.8753180" lon="-8.8389480">
        <ele>7.7</ele>
        <time>2021-05-18T12:07:48Z</time>
      </trkpt>
      <trkpt lat="41.8753170" lon="-8.8389550">
        <ele>7.7</ele>
        <time>2021-05-18T12:07:49Z</time>
      </trkpt>
      <trkpt lat="41.8753090" lon="-8.8389600">
        <ele>7.7</ele>
        <time>2021-05-18T12:07:50Z</time>
      </trkpt>
      <trkpt lat="41.8753100" lon="-8.8389600">
        <ele>7.7</ele>
        <time>2021-05-18T12:07:51Z</time>
      </trkpt>
      <trkpt lat="41.8753100" lon="-8.8389600">
        <ele>7.7</ele>
        <time>2021-05-18T12:07:52Z</time>
      </trkpt>
      <trkpt lat="41.8753100" lon="-8.8389600">
        <ele>7.7</ele>
        <time>2021-05-18T12:07:53Z</time>
      </trkpt>
      <trkpt lat="41.8753110" lon="-8.8389600">
        <ele>7.7</ele>
        <time>2021-05-18T12:07:54Z</time>
      </trkpt>
      <trkpt lat="41.8753110" lon="-8.8389600">
        <ele>7.7</ele>
        <time>2021-05-18T12:07:55Z</time>
      </trkpt>
      <trkpt lat="41.8753110" lon="-8.8389600">
        <ele>7.7</ele>
        <time>2021-05-18T12:07:56Z</time>
      </trkpt>
      <trkpt lat="41.8753110" lon="-8.8389600">
        <ele>7.7</ele>
        <time>2021-05-18T12:07:57Z</time>
      </trkpt>
      <trkpt lat="41.8753120" lon="-8.8389600">
        <ele>7.7</ele>
        <time>2021-05-18T12:07:58Z</time>
      </trkpt>
      <trkpt lat="41.8753120" lon="-8.8389600">
        <ele>7.7</ele>
        <time>2021-05-18T12:07:59Z</time>
      </trkpt>
      <trkpt lat="41.8753120" lon="-8.8389600">
        <ele>7.7</ele>
        <time>2021-05-18T12:08:00Z</time>
      </trkpt>
      <trkpt lat="41.8753130" lon="-8.8389600">
        <ele>7.7</ele>
        <time>2021-05-18T12:08:01Z</time>
      </trkpt>
      <trkpt lat="41.8753130" lon="-8.8389600">
        <ele>7.7</ele>
        <time>2021-05-18T12:08:02Z</time>
      </trkpt>
      <trkpt lat="41.8753130" lon="-8.8389600">
        <ele>7.7</ele>
        <time>2021-05-18T12:08:03Z</time>
      </trkpt>
      <trkpt lat="41.8753140" lon="-8.8389600">
        <ele>7.7</ele>
        <time>2021-05-18T12:08:04Z</time>
      </trkpt>
      <trkpt lat="41.8753140" lon="-8.8389600">
        <ele>7.7</ele>
        <time>2021-05-18T12:08:05Z</time>
      </trkpt>
      <trkpt lat="41.8753140" lon="-8.8389600">
        <ele>7.7</ele>
        <time>2021-05-18T12:08:06Z</time>
      </trkpt>
      <trkpt lat="41.8753150" lon="-8.8389600">
        <ele>7.7</ele>
        <time>2021-05-18T12:08:07Z</time>
      </trkpt>
      <trkpt lat="41.8753150" lon="-8.8389600">
        <ele>7.7</ele>
        <time>2021-05-18T12:08:08Z</time>
      </trkpt>
      <trkpt lat="41.8753150" lon="-8.8389600">
        <ele>7.7</ele>
        <time>2021-05-18T12:08:09Z</time>
      </trkpt>
      <trkpt lat="41.8753150" lon="-8.8389600">
        <ele>7.7</ele>
        <time>2021-05-18T12:08:10Z</time>
      </trkpt>
      <trkpt lat="41.8753160" lon="-8.8389600">
        <ele>7.7</ele>
        <time>2021-05-18T12:08:11Z</time>
      </trkpt>
      <trkpt lat="41.8753160" lon="-8.8389600">
        <ele>7.7</ele>
        <time>2021-05-18T12:08:12Z</time>
      </trkpt>
      <trkpt lat="41.8753160" lon="-8.8389600">
        <ele>7.7</ele>
        <time>2021-05-18T12:08:13Z</time>
      </trkpt>
      <trkpt lat="41.8753170" lon="-8.8389600">
        <ele>7.7</ele>
        <time>2021-05-18T12:08:14Z</time>
      </trkpt>
      <trkpt lat="41.8753170" lon="-8.8389600">
        <ele>7.7</ele>
        <time>2021-05-18T12:08:15Z</time>
      </trkpt>
      <trkpt lat="41.8753170" lon="-8.8389600">
        <ele>7.7</ele>
        <time>2021-05-18T12:08:16Z</time>
      </trkpt>
      <trkpt lat="41.8753180" lon="-8.8389600">
        <ele>7.7</ele>
        <time>2021-05-18T12:08:17Z</time>
      </trkpt>
      <trkpt lat="41.8753180" lon="-8.8389600">
        <ele>7.7</ele>
        <time>2021-05-18T12:08:18Z</time>
      </trkpt>
      <trkpt lat="41.8753180" lon="-8.8389600">
        <ele>7.7</ele>
        <time>2021-05-18T12:08:19Z</time>
      </trkpt>
      <trkpt lat="41.8753190" lon="-8.8389600">
        <ele>7.7</ele>
        <time>2021-05-18T12:08:20Z</time>
      </trkpt>
      <trkpt lat="41.8753190" lon="-8.8389600">
        <ele>7.7</ele>
        <time>2021-05-18T12:08:21Z</time>
      </trkpt>
      <trkpt lat="41.8753190" lon="-8.8389600">
        <ele>7.7</ele>
        <time>2021-05-18T12:08:22Z</time>
      </trkpt>
      <trkpt lat="41.8753190" lon="-8.8389600">
        <ele>7.7</ele>
        <time>2021-05-18T12:08:23Z</time>
      </trkpt>
      <trkpt lat="41.8753200" lon="-8.8389600">
        <ele>7.7</ele>
        <time>2021-05-18T12:08:24Z</time>
      </trkpt>
      <trkpt lat="41.8753200" lon="-8.8389600">
        <ele>7.7</ele>
        <time>2021-05-18T12:08:25Z</time>
      </trkpt>
      <trkpt lat="41.8753200" lon="-8.8389600">
        <ele>7.7</ele>
        <time>2021-05-18T12:08:26Z</time>
      </trkpt>
      <trkpt lat="41.8753210" lon="-8.8389600">
        <ele>7.7</ele>
        <time>2021-05-18T12:08:27Z</time>
      </trkpt>
      <trkpt lat="41.8753210" lon="-8.8389600">
        <ele>7.7</ele>
        <time>2021-05-18T12:08:28Z</time>
      </trkpt>
      <trkpt lat="41.8753210" lon="-8.8389600">
        <ele>7.7</ele>
        <time>2021-05-18T12:08:29Z</time>
      </trkpt>
      <trkpt lat="41.8753220" lon="-8.8389600">
        <ele>7.7</ele>
        <time>2021-05-18T12:08:30Z</time>
      </trkpt>
      <trkpt lat="41.8753220" lon="-8.8389600">
        <ele>7.7</ele>
        <time>2021-05-18T12:08:31Z</time>
      </trkpt>
      <trkpt lat="41.8753220" lon="-8.8389600">
        <ele>7.7</ele>
        <time>2021-05-18T12:08:32Z</time>
      </trkpt>
      <trkpt lat="41.8753230" lon="-8.8389600">
        <ele>7.7</ele>
        <time>2021-05-18T12:08:33Z</time>
      </trkpt>
      <trkpt lat="41.8753230" lon="-8.8389600">
        <ele>7.7</ele>
        <time>2021-05-18T12:08:34Z</time>
      </trkpt>
      <trkpt lat="41.8753230" lon="-8.8389600">
        <ele>7.7</ele>
        <time>2021-05-18T12:08:35Z</time>
      </trkpt>
      <trkpt lat="41.8753230" lon="-8.8389600">
        <ele>7.7</ele>
        <time>2021-05-18T12:08:36Z</time>
      </trkpt>
      <trkpt lat="41.8753240" lon="-8.8389600">
        <ele>7.7</ele>
        <time>2021-05-18T12:08:37Z</time>
      </trkpt>
      <trkpt lat="41.8753240" lon="-8.8389600">
        <ele>7.7</ele>
        <time>2021-05-18T12:08:38Z</time>
      </trkpt>
      <trkpt lat="41.8753240" lon="-8.8389600">
        <ele>7.7</ele>
        <time>2021-05-18T12:08:39Z</time>
      </trkpt>
      <trkpt lat="41.8753250" lon="-8.8389600">
        <ele>7.7</ele>
        <time>2021-05-18T12:08:40Z</time>
      </trkpt>
      <trkpt lat="41.8753250" lon="-8.8389600">
        <ele>7.7</ele>
        <time>2021-05-18T12:08:41Z</time>
      </trkpt>
      <trkpt lat="41.8753250" lon="-8.8389600">
        <ele>7.7</ele>
        <time>2021-05-18T12:08:42Z</time>
      </trkpt>
      <trkpt lat="41.8753260" lon="-8.8389600">
        <ele>7.7</ele>
        <time>2021-05-18T12:08:43Z</time>
      </trkpt>
      <trkpt lat="41.8753260" lon="-8.8389600">
        <ele>7.7</ele>
        <time>2021-05-18T12:08:44Z</time>
      </trkpt>
      <trkpt lat="41.8753260" lon="-8.8389600">
        <ele>7.7</ele>
        <time>2021-05-18T12:08:45Z</time>
      </trkpt>
      <trkpt lat="41.8753270" lon="-8.8389600">
        <ele>7.7</ele>
        <time>2021-05-18T12:08:46Z</time>
      </trkpt>
      <trkpt lat="41.8753270" lon="-8.8389600">
        <ele>7.7</ele>
        <time>2021-05-18T12:08:47Z</time>
      </trkpt>
      <trkpt lat="41.8753270" lon="-8.8389600">
        <ele>7.7</ele>
        <time>2021-05-18T12:08:48Z</time>
      </trkpt>
      <trkpt lat="41.8753270" lon="-8.8389600">
        <ele>7.7</ele>
        <time>2021-05-18T12:08:49Z</time>
      </trkpt>
      <trkpt lat="41.8753280" lon="-8.8389600">
        <ele>7.7</ele>
        <time>2021-05-18T12:08:50Z</time>
      </trkpt>
      <trkpt lat="41.8753280" lon="-8.8389600">
        <ele>7.7</ele>
        <time>2021-05-18T12:08:51Z</time>
      </trkpt>
      <trkpt lat="41.8753280" lon="-8.8389600">
        <ele>7.7</ele>
        <time>2021-05-18T12:08:52Z</time>
      </trkpt>
      <trkpt lat="41.8753290" lon="-8.8389600">
        <ele>7.7</ele>
        <time>2021-05-18T12:08:53Z</time>
      </trkpt>
      <trkpt lat="41.8753290" lon="-8.8389600">
        <ele>7.7</ele>
        <time>2021-05-18T12:08:54Z</time>
      </trkpt>
      <trkpt lat="41.8753290" lon="-8.8389600">
        <ele>7.7</ele>
        <time>2021-05-18T12:08:55Z</time>
      </trkpt>
      <trkpt lat="41.8753300" lon="-8.8389600">
        <ele>7.7</ele>
        <time>2021-05-18T12:08:56Z</time>
      </trkpt>
      <trkpt lat="41.8753300" lon="-8.8389600">
        <ele>7.7</ele>
        <time>2021-05-18T12:08:57Z</time>
      </trkpt>
      <trkpt lat="41.8753300" lon="-8.8389600">
        <ele>7.7</ele>
        <time>2021-05-18T12:08:58Z</time>
      </trkpt>
      <trkpt lat="41.8753310" lon="-8.8389600">
        <ele>7.7</ele>
        <time>2021-05-18T12:08:59Z</time>
      </trkpt>
      <trkpt lat="41.8753310" lon="-8.8389600">
        <ele>7.7</ele>
        <time>2021-05-18T12:09:00Z</time>
      </trkpt>
      <trkpt lat="41.8753310" lon="-8.8389600">
        <ele>7.7</ele>
        <time>2021-05-18T12:09:01Z</time>
      </trkpt>
      <trkpt lat="41.8753310" lon="-8.8389600">
        <ele>7.7</ele>
        <time>2021-05-18T12:09:02Z</time>
      </trkpt>
      <trkpt lat="41.8753320" lon="-8.8389600">
        <ele>7.7</ele>
        <time>2021-05-18T12:09:03Z</time>
      </trkpt>
      <trkpt lat="41.8753320" lon="-8.8389600">
        <ele>7.7</ele>
        <time>2021-05-18T12:09:04Z</time>
      </trkpt>
      <trkpt lat="41.8753320" lon="-8.8389600">
        <ele>7.7</ele>
        <time>2021-05-18T12:09:05Z</time>
      </trkpt>
      <trkpt lat="41.8753330" lon="-8.8389600">
        <ele>7.7</ele>
        <time>2021-05-18T12:09:06Z</time>
      </trkpt>
      <trkpt lat="41.8753330" lon="-8.8389600">
        <ele>7.7</ele>
        <time>2021-05-18T12:09:07Z</time>
      </trkpt>
      <trkpt lat="41.8753330" lon="-8.8389610">
        <ele>7.7</ele>
        <time>2021-05-18T12:09:08Z</time>
      </trkpt>
      <trkpt lat="41.8753340" lon="-8.8389610">
        <ele>7.7</ele>
        <time>2021-05-18T12:09:09Z</time>
      </trkpt>
      <trkpt lat="41.8753340" lon="-8.8389610">
        <ele>7.7</ele>
        <time>2021-05-18T12:09:10Z</time>
      </trkpt>
      <trkpt lat="41.8753340" lon="-8.8389610">
        <ele>7.7</ele>
        <time>2021-05-18T12:09:11Z</time>
      </trkpt>
      <trkpt lat="41.8753350" lon="-8.8389610">
        <ele>7.7</ele>
        <time>2021-05-18T12:09:12Z</time>
      </trkpt>
      <trkpt lat="41.8753350" lon="-8.8389610">
        <ele>7.7</ele>
        <time>2021-05-18T12:09:13Z</time>
      </trkpt>
      <trkpt lat="41.8753350" lon="-8.8389610">
        <ele>7.7</ele>
        <time>2021-05-18T12:09:14Z</time>
      </trkpt>
      <trkpt lat="41.8753350" lon="-8.8389610">
        <ele>7.7</ele>
        <time>2021-05-18T12:09:15Z</time>
      </trkpt>
      <trkpt lat="41.8753360" lon="-8.8389610">
        <ele>7.7</ele>
        <time>2021-05-18T12:09:16Z</time>
      </trkpt>
      <trkpt lat="41.8753360" lon="-8.8389610">
        <ele>7.7</ele>
        <time>2021-05-18T12:09:17Z</time>
      </trkpt>
      <trkpt lat="41.8753360" lon="-8.8389610">
        <ele>7.7</ele>
        <time>2021-05-18T12:09:18Z</time>
      </trkpt>
      <trkpt lat="41.8753370" lon="-8.8389610">
        <ele>7.7</ele>
        <time>2021-05-18T12:09:19Z</time>
      </trkpt>
      <trkpt lat="41.8753370" lon="-8.8389610">
        <ele>7.7</ele>
        <time>2021-05-18T12:09:20Z</time>
      </trkpt>
      <trkpt lat="41.8753370" lon="-8.8389610">
        <ele>7.7</ele>
        <time>2021-05-18T12:09:21Z</time>
      </trkpt>
      <trkpt lat="41.8753380" lon="-8.8389610">
        <ele>7.7</ele>
        <time>2021-05-18T12:09:22Z</time>
      </trkpt>
      <trkpt lat="41.8753380" lon="-8.8389610">
        <ele>7.7</ele>
        <time>2021-05-18T12:09:23Z</time>
      </trkpt>
      <trkpt lat="41.8753380" lon="-8.8389610">
        <ele>7.7</ele>
        <time>2021-05-18T12:09:24Z</time>
      </trkpt>
      <trkpt lat="41.8753390" lon="-8.8389610">
        <ele>7.7</ele>
        <time>2021-05-18T12:09:25Z</time>
      </trkpt>
      <trkpt lat="41.8753390" lon="-8.8389610">
        <ele>7.7</ele>
        <time>2021-05-18T12:09:26Z</time>
      </trkpt>
      <trkpt lat="41.8753390" lon="-8.8389610">
        <ele>7.7</ele>
        <time>2021-05-18T12:09:27Z</time>
      </trkpt>
      <trkpt lat="41.8753390" lon="-8.8389610">
        <ele>7.7</ele>
        <time>2021-05-18T12:09:28Z</time>
      </trkpt>
      <trkpt lat="41.8753400" lon="-8.8389610">
        <ele>7.7</ele>
        <time>2021-05-18T12:09:30Z</time>
      </trkpt>
      <trkpt lat="41.8753400" lon="-8.8389610">
        <ele>7.7</ele>
        <time>2021-05-18T12:09:31Z</time>
      </trkpt>
      <trkpt lat="41.8753400" lon="-8.8389610">
        <ele>7.7</ele>
        <time>2021-05-18T12:09:32Z</time>
      </trkpt>
      <trkpt lat="41.8753410" lon="-8.8389610">
        <ele>7.7</ele>
        <time>2021-05-18T12:09:33Z</time>
      </trkpt>
      <trkpt lat="41.8753410" lon="-8.8389610">
        <ele>7.7</ele>
        <time>2021-05-18T12:09:34Z</time>
      </trkpt>
      <trkpt lat="41.8753410" lon="-8.8389610">
        <ele>7.7</ele>
        <time>2021-05-18T12:09:35Z</time>
      </trkpt>
      <trkpt lat="41.8753420" lon="-8.8389610">
        <ele>7.7</ele>
        <time>2021-05-18T12:09:36Z</time>
      </trkpt>
      <trkpt lat="41.8753420" lon="-8.8389610">
        <ele>7.7</ele>
        <time>2021-05-18T12:09:37Z</time>
      </trkpt>
      <trkpt lat="41.8753420" lon="-8.8389610">
        <ele>7.7</ele>
        <time>2021-05-18T12:09:38Z</time>
      </trkpt>
      <trkpt lat="41.8753430" lon="-8.8389610">
        <ele>7.7</ele>
        <time>2021-05-18T12:09:39Z</time>
      </trkpt>
      <trkpt lat="41.8753430" lon="-8.8389610">
        <ele>7.7</ele>
        <time>2021-05-18T12:09:40Z</time>
      </trkpt>
      <trkpt lat="41.8753430" lon="-8.8389610">
        <ele>7.7</ele>
        <time>2021-05-18T12:09:41Z</time>
      </trkpt>
      <trkpt lat="41.8753430" lon="-8.8389610">
        <ele>7.7</ele>
        <time>2021-05-18T12:09:42Z</time>
      </trkpt>
      <trkpt lat="41.8753440" lon="-8.8389610">
        <ele>7.7</ele>
        <time>2021-05-18T12:09:43Z</time>
      </trkpt>
      <trkpt lat="41.8753440" lon="-8.8389610">
        <ele>7.7</ele>
        <time>2021-05-18T12:09:44Z</time>
      </trkpt>
      <trkpt lat="41.8753440" lon="-8.8389610">
        <ele>7.7</ele>
        <time>2021-05-18T12:09:45Z</time>
      </trkpt>
      <trkpt lat="41.8753450" lon="-8.8389610">
        <ele>7.7</ele>
        <time>2021-05-18T12:09:46Z</time>
      </trkpt>
      <trkpt lat="41.8753450" lon="-8.8389610">
        <ele>7.7</ele>
        <time>2021-05-18T12:09:47Z</time>
      </trkpt>
      <trkpt lat="41.8753450" lon="-8.8389610">
        <ele>7.7</ele>
        <time>2021-05-18T12:09:48Z</time>
      </trkpt>
      <trkpt lat="41.8753460" lon="-8.8389610">
        <ele>7.7</ele>
        <time>2021-05-18T12:09:49Z</time>
      </trkpt>
      <trkpt lat="41.8753460" lon="-8.8389610">
        <ele>7.7</ele>
        <time>2021-05-18T12:09:50Z</time>
      </trkpt>
      <trkpt lat="41.8753460" lon="-8.8389610">
        <ele>7.7</ele>
        <time>2021-05-18T12:09:51Z</time>
      </trkpt>
      <trkpt lat="41.8753470" lon="-8.8389610">
        <ele>7.7</ele>
        <time>2021-05-18T12:09:52Z</time>
      </trkpt>
      <trkpt lat="41.8753470" lon="-8.8389610">
        <ele>7.7</ele>
        <time>2021-05-18T12:09:53Z</time>
      </trkpt>
      <trkpt lat="41.8753470" lon="-8.8389610">
        <ele>7.7</ele>
        <time>2021-05-18T12:09:54Z</time>
      </trkpt>
      <trkpt lat="41.8753470" lon="-8.8389610">
        <ele>7.7</ele>
        <time>2021-05-18T12:09:55Z</time>
      </trkpt>
      <trkpt lat="41.8753480" lon="-8.8389610">
        <ele>7.7</ele>
        <time>2021-05-18T12:09:56Z</time>
      </trkpt>
      <trkpt lat="41.8753480" lon="-8.8389610">
        <ele>7.7</ele>
        <time>2021-05-18T12:09:57Z</time>
      </trkpt>
      <trkpt lat="41.8753480" lon="-8.8389610">
        <ele>7.7</ele>
        <time>2021-05-18T12:09:58Z</time>
      </trkpt>
      <trkpt lat="41.8753490" lon="-8.8389610">
        <ele>7.7</ele>
        <time>2021-05-18T12:09:59Z</time>
      </trkpt>
      <trkpt lat="41.8753490" lon="-8.8389610">
        <ele>7.7</ele>
        <time>2021-05-18T12:10:00Z</time>
      </trkpt>
      <trkpt lat="41.8753490" lon="-8.8389610">
        <ele>7.7</ele>
        <time>2021-05-18T12:10:01Z</time>
      </trkpt>
      <trkpt lat="41.8753500" lon="-8.8389610">
        <ele>7.7</ele>
        <time>2021-05-18T12:10:02Z</time>
      </trkpt>
      <trkpt lat="41.8753500" lon="-8.8389610">
        <ele>7.7</ele>
        <time>2021-05-18T12:10:03Z</time>
      </trkpt>
      <trkpt lat="41.8753500" lon="-8.8389610">
        <ele>7.7</ele>
        <time>2021-05-18T12:10:04Z</time>
      </trkpt>
      <trkpt lat="41.8753510" lon="-8.8389610">
        <ele>7.7</ele>
        <time>2021-05-18T12:10:05Z</time>
      </trkpt>
      <trkpt lat="41.8753510" lon="-8.8389610">
        <ele>7.7</ele>
        <time>2021-05-18T12:10:06Z</time>
      </trkpt>
      <trkpt lat="41.8753510" lon="-8.8389610">
        <ele>7.7</ele>
        <time>2021-05-18T12:10:07Z</time>
      </trkpt>
      <trkpt lat="41.8753510" lon="-8.8389610">
        <ele>7.7</ele>
        <time>2021-05-18T12:10:08Z</time>
      </trkpt>
      <trkpt lat="41.8753520" lon="-8.8389610">
        <ele>7.7</ele>
        <time>2021-05-18T12:10:09Z</time>
      </trkpt>
      <trkpt lat="41.8753520" lon="-8.8389610">
        <ele>7.7</ele>
        <time>2021-05-18T12:10:10Z</time>
      </trkpt>
      <trkpt lat="41.8753520" lon="-8.8389610">
        <ele>7.7</ele>
        <time>2021-05-18T12:10:11Z</time>
      </trkpt>
      <trkpt lat="41.8753530" lon="-8.8389610">
        <ele>7.7</ele>
        <time>2021-05-18T12:10:12Z</time>
      </trkpt>
      <trkpt lat="41.8753530" lon="-8.8389610">
        <ele>7.7</ele>
        <time>2021-05-18T12:10:13Z</time>
      </trkpt>
      <trkpt lat="41.8753530" lon="-8.8389610">
        <ele>7.7</ele>
        <time>2021-05-18T12:10:14Z</time>
      </trkpt>
      <trkpt lat="41.8753540" lon="-8.8389610">
        <ele>7.7</ele>
        <time>2021-05-18T12:10:15Z</time>
      </trkpt>
      <trkpt lat="41.8753540" lon="-8.8389610">
        <ele>7.7</ele>
        <time>2021-05-18T12:10:16Z</time>
      </trkpt>
      <trkpt lat="41.8753540" lon="-8.8389610">
        <ele>7.7</ele>
        <time>2021-05-18T12:10:17Z</time>
      </trkpt>
      <trkpt lat="41.8753550" lon="-8.8389610">
        <ele>7.7</ele>
        <time>2021-05-18T12:10:18Z</time>
      </trkpt>
      <trkpt lat="41.8753550" lon="-8.8389610">
        <ele>7.7</ele>
        <time>2021-05-18T12:10:19Z</time>
      </trkpt>
      <trkpt lat="41.8753550" lon="-8.8389610">
        <ele>7.7</ele>
        <time>2021-05-18T12:10:20Z</time>
      </trkpt>
      <trkpt lat="41.8753550" lon="-8.8389610">
        <ele>7.7</ele>
        <time>2021-05-18T12:10:21Z</time>
      </trkpt>
      <trkpt lat="41.8753560" lon="-8.8389610">
        <ele>7.7</ele>
        <time>2021-05-18T12:10:22Z</time>
      </trkpt>
      <trkpt lat="41.8753560" lon="-8.8389610">
        <ele>7.7</ele>
        <time>2021-05-18T12:10:23Z</time>
      </trkpt>
      <trkpt lat="41.8753560" lon="-8.8389610">
        <ele>7.7</ele>
        <time>2021-05-18T12:10:24Z</time>
      </trkpt>
      <trkpt lat="41.8753570" lon="-8.8389610">
        <ele>7.7</ele>
        <time>2021-05-18T12:10:25Z</time>
      </trkpt>
      <trkpt lat="41.8753570" lon="-8.8389610">
        <ele>7.7</ele>
        <time>2021-05-18T12:10:26Z</time>
      </trkpt>
      <trkpt lat="41.8753620" lon="-8.8389640">
        <ele>7.7</ele>
        <time>2021-05-18T12:10:27Z</time>
      </trkpt>
      <trkpt lat="41.8753630" lon="-8.8389730">
        <ele>7.7</ele>
        <time>2021-05-18T12:10:28Z</time>
      </trkpt>
      <trkpt lat="41.8753580" lon="-8.8389800">
        <ele>7.7</ele>
        <time>2021-05-18T12:10:29Z</time>
      </trkpt>
      <trkpt lat="41.8753510" lon="-8.8389720">
        <ele>7.7</ele>
        <time>2021-05-18T12:10:30Z</time>
      </trkpt>
      <trkpt lat="41.8753520" lon="-8.8389710">
        <ele>7.7</ele>
        <time>2021-05-18T12:10:31Z</time>
      </trkpt>
      <trkpt lat="41.8753520" lon="-8.8389710">
        <ele>7.7</ele>
        <time>2021-05-18T12:10:32Z</time>
      </trkpt>
      <trkpt lat="41.8753540" lon="-8.8389560">
        <ele>7.7</ele>
        <time>2021-05-18T12:10:33Z</time>
      </trkpt>
      <trkpt lat="41.8753540" lon="-8.8389540">
        <ele>7.7</ele>
        <time>2021-05-18T12:10:34Z</time>
      </trkpt>
      <trkpt lat="41.8753540" lon="-8.8389540">
        <ele>7.7</ele>
        <time>2021-05-18T12:10:35Z</time>
      </trkpt>
      <trkpt lat="41.8753540" lon="-8.8389540">
        <ele>7.7</ele>
        <time>2021-05-18T12:10:36Z</time>
      </trkpt>
      <trkpt lat="41.8753540" lon="-8.8389540">
        <ele>7.7</ele>
        <time>2021-05-18T12:10:37Z</time>
      </trkpt>
      <trkpt lat="41.8753540" lon="-8.8389540">
        <ele>7.7</ele>
        <time>2021-05-18T12:10:38Z</time>
      </trkpt>
      <trkpt lat="41.8753530" lon="-8.8389490">
        <ele>7.7</ele>
        <time>2021-05-18T12:10:39Z</time>
      </trkpt>
      <trkpt lat="41.8753530" lon="-8.8389520">
        <ele>7.7</ele>
        <time>2021-05-18T12:10:40Z</time>
      </trkpt>
      <trkpt lat="41.8753510" lon="-8.8389600">
        <ele>7.7</ele>
        <time>2021-05-18T12:10:41Z</time>
      </trkpt>
      <trkpt lat="41.8753450" lon="-8.8389770">
        <ele>7.7</ele>
        <time>2021-05-18T12:10:42Z</time>
      </trkpt>
      <trkpt lat="41.8753450" lon="-8.8389730">
        <ele>7.7</ele>
        <time>2021-05-18T12:10:43Z</time>
      </trkpt>
      <trkpt lat="41.8753480" lon="-8.8389640">
        <ele>7.7</ele>
        <time>2021-05-18T12:10:44Z</time>
      </trkpt>
      <trkpt lat="41.8753470" lon="-8.8389640">
        <ele>7.7</ele>
        <time>2021-05-18T12:10:45Z</time>
      </trkpt>
      <trkpt lat="41.8753460" lon="-8.8389650">
        <ele>7.7</ele>
        <time>2021-05-18T12:10:46Z</time>
      </trkpt>
      <trkpt lat="41.8753480" lon="-8.8389640">
        <ele>7.7</ele>
        <time>2021-05-18T12:10:47Z</time>
      </trkpt>
      <trkpt lat="41.8753480" lon="-8.8389620">
        <ele>7.7</ele>
        <time>2021-05-18T12:10:48Z</time>
      </trkpt>
      <trkpt lat="41.8753480" lon="-8.8389620">
        <ele>7.7</ele>
        <time>2021-05-18T12:10:49Z</time>
      </trkpt>
      <trkpt lat="41.8753480" lon="-8.8389620">
        <ele>7.7</ele>
        <time>2021-05-18T12:10:50Z</time>
      </trkpt>
      <trkpt lat="41.8753480" lon="-8.8389620">
        <ele>7.7</ele>
        <time>2021-05-18T12:10:51Z</time>
      </trkpt>
      <trkpt lat="41.8753480" lon="-8.8389620">
        <ele>7.7</ele>
        <time>2021-05-18T12:10:52Z</time>
      </trkpt>
      <trkpt lat="41.8753480" lon="-8.8389620">
        <ele>7.7</ele>
        <time>2021-05-18T12:10:53Z</time>
      </trkpt>
      <trkpt lat="41.8753480" lon="-8.8389620">
        <ele>7.7</ele>
        <time>2021-05-18T12:10:54Z</time>
      </trkpt>
      <trkpt lat="41.8753480" lon="-8.8389620">
        <ele>7.7</ele>
        <time>2021-05-18T12:10:55Z</time>
      </trkpt>
      <trkpt lat="41.8753480" lon="-8.8389620">
        <ele>7.7</ele>
        <time>2021-05-18T12:10:56Z</time>
      </trkpt>
      <trkpt lat="41.8753450" lon="-8.8389640">
        <ele>7.7</ele>
        <time>2021-05-18T12:10:57Z</time>
      </trkpt>
      <trkpt lat="41.8753450" lon="-8.8389640">
        <ele>7.7</ele>
        <time>2021-05-18T12:10:58Z</time>
      </trkpt>
      <trkpt lat="41.8753440" lon="-8.8389680">
        <ele>7.7</ele>
        <time>2021-05-18T12:10:59Z</time>
      </trkpt>
      <trkpt lat="41.8753440" lon="-8.8389690">
        <ele>7.7</ele>
        <time>2021-05-18T12:11:00Z</time>
      </trkpt>
      <trkpt lat="41.8753410" lon="-8.8389690">
        <ele>7.7</ele>
        <time>2021-05-18T12:11:01Z</time>
      </trkpt>
      <trkpt lat="41.8753410" lon="-8.8389720">
        <ele>7.7</ele>
        <time>2021-05-18T12:11:02Z</time>
      </trkpt>
      <trkpt lat="41.8753430" lon="-8.8389670">
        <ele>7.7</ele>
        <time>2021-05-18T12:11:03Z</time>
      </trkpt>
      <trkpt lat="41.8753430" lon="-8.8389660">
        <ele>7.7</ele>
        <time>2021-05-18T12:11:04Z</time>
      </trkpt>
      <trkpt lat="41.8753440" lon="-8.8389640">
        <ele>7.7</ele>
        <time>2021-05-18T12:11:05Z</time>
      </trkpt>
      <trkpt lat="41.8753440" lon="-8.8389640">
        <ele>7.7</ele>
        <time>2021-05-18T12:11:06Z</time>
      </trkpt>
      <trkpt lat="41.8753440" lon="-8.8389640">
        <ele>7.7</ele>
        <time>2021-05-18T12:11:07Z</time>
      </trkpt>
      <trkpt lat="41.8753440" lon="-8.8389640">
        <ele>7.7</ele>
        <time>2021-05-18T12:11:08Z</time>
      </trkpt>
      <trkpt lat="41.8753440" lon="-8.8389640">
        <ele>7.7</ele>
        <time>2021-05-18T12:11:09Z</time>
      </trkpt>
      <trkpt lat="41.8753440" lon="-8.8389640">
        <ele>7.7</ele>
        <time>2021-05-18T12:11:10Z</time>
      </trkpt>
      <trkpt lat="41.8753440" lon="-8.8389640">
        <ele>7.7</ele>
        <time>2021-05-18T12:11:11Z</time>
      </trkpt>
      <trkpt lat="41.8753440" lon="-8.8389640">
        <ele>7.7</ele>
        <time>2021-05-18T12:11:12Z</time>
      </trkpt>
      <trkpt lat="41.8753440" lon="-8.8389640">
        <ele>7.7</ele>
        <time>2021-05-18T12:11:13Z</time>
      </trkpt>
      <trkpt lat="41.8753440" lon="-8.8389640">
        <ele>7.7</ele>
        <time>2021-05-18T12:11:14Z</time>
      </trkpt>
      <trkpt lat="41.8753440" lon="-8.8389640">
        <ele>7.7</ele>
        <time>2021-05-18T12:11:15Z</time>
      </trkpt>
      <trkpt lat="41.8753440" lon="-8.8389640">
        <ele>7.7</ele>
        <time>2021-05-18T12:11:16Z</time>
      </trkpt>
      <trkpt lat="41.8753440" lon="-8.8389640">
        <ele>7.7</ele>
        <time>2021-05-18T12:11:17Z</time>
      </trkpt>
      <trkpt lat="41.8753440" lon="-8.8389640">
        <ele>7.7</ele>
        <time>2021-05-18T12:11:18Z</time>
      </trkpt>
      <trkpt lat="41.8753440" lon="-8.8389640">
        <ele>7.7</ele>
        <time>2021-05-18T12:11:19Z</time>
      </trkpt>
      <trkpt lat="41.8753440" lon="-8.8389640">
        <ele>7.7</ele>
        <time>2021-05-18T12:11:20Z</time>
      </trkpt>
      <trkpt lat="41.8753360" lon="-8.8389670">
        <ele>7.7</ele>
        <time>2021-05-18T12:11:21Z</time>
      </trkpt>
      <trkpt lat="41.8753360" lon="-8.8389680">
        <ele>7.7</ele>
        <time>2021-05-18T12:11:22Z</time>
      </trkpt>
      <trkpt lat="41.8753360" lon="-8.8389710">
        <ele>7.7</ele>
        <time>2021-05-18T12:11:23Z</time>
      </trkpt>
      <trkpt lat="41.8753360" lon="-8.8389710">
        <ele>7.7</ele>
        <time>2021-05-18T12:11:24Z</time>
      </trkpt>
      <trkpt lat="41.8753340" lon="-8.8389690">
        <ele>7.7</ele>
        <time>2021-05-18T12:11:25Z</time>
      </trkpt>
      <trkpt lat="41.8753320" lon="-8.8389730">
        <ele>7.7</ele>
        <time>2021-05-18T12:11:26Z</time>
      </trkpt>
      <trkpt lat="41.8753320" lon="-8.8389730">
        <ele>7.7</ele>
        <time>2021-05-18T12:11:27Z</time>
      </trkpt>
      <trkpt lat="41.8753300" lon="-8.8389720">
        <ele>7.7</ele>
        <time>2021-05-18T12:11:28Z</time>
      </trkpt>
      <trkpt lat="41.8753290" lon="-8.8389750">
        <ele>7.7</ele>
        <time>2021-05-18T12:11:29Z</time>
      </trkpt>
      <trkpt lat="41.8753300" lon="-8.8389770">
        <ele>7.7</ele>
        <time>2021-05-18T12:11:30Z</time>
      </trkpt>
      <trkpt lat="41.8753310" lon="-8.8389760">
        <ele>7.7</ele>
        <time>2021-05-18T12:11:31Z</time>
      </trkpt>
      <trkpt lat="41.8753310" lon="-8.8389740">
        <ele>7.7</ele>
        <time>2021-05-18T12:11:32Z</time>
      </trkpt>
      <trkpt lat="41.8753300" lon="-8.8389730">
        <ele>7.7</ele>
        <time>2021-05-18T12:11:33Z</time>
      </trkpt>
      <trkpt lat="41.8753300" lon="-8.8389730">
        <ele>7.7</ele>
        <time>2021-05-18T12:11:34Z</time>
      </trkpt>
      <trkpt lat="41.8753300" lon="-8.8389730">
        <ele>7.7</ele>
        <time>2021-05-18T12:11:35Z</time>
      </trkpt>
      <trkpt lat="41.8753290" lon="-8.8389740">
        <ele>7.7</ele>
        <time>2021-05-18T12:11:36Z</time>
      </trkpt>
      <trkpt lat="41.8753280" lon="-8.8389760">
        <ele>7.7</ele>
        <time>2021-05-18T12:11:37Z</time>
      </trkpt>
      <trkpt lat="41.8753280" lon="-8.8389760">
        <ele>7.7</ele>
        <time>2021-05-18T12:11:38Z</time>
      </trkpt>
      <trkpt lat="41.8753270" lon="-8.8389740">
        <ele>7.7</ele>
        <time>2021-05-18T12:11:39Z</time>
      </trkpt>
      <trkpt lat="41.8753290" lon="-8.8389710">
        <ele>7.7</ele>
        <time>2021-05-18T12:11:40Z</time>
      </trkpt>
      <trkpt lat="41.8753290" lon="-8.8389700">
        <ele>7.7</ele>
        <time>2021-05-18T12:11:41Z</time>
      </trkpt>
      <trkpt lat="41.8753290" lon="-8.8389690">
        <ele>7.7</ele>
        <time>2021-05-18T12:11:42Z</time>
      </trkpt>
      <trkpt lat="41.8753290" lon="-8.8389690">
        <ele>7.7</ele>
        <time>2021-05-18T12:11:43Z</time>
      </trkpt>
      <trkpt lat="41.8753290" lon="-8.8389690">
        <ele>7.7</ele>
        <time>2021-05-18T12:11:44Z</time>
      </trkpt>
      <trkpt lat="41.8753290" lon="-8.8389690">
        <ele>7.7</ele>
        <time>2021-05-18T12:11:45Z</time>
      </trkpt>
      <trkpt lat="41.8753290" lon="-8.8389690">
        <ele>7.7</ele>
        <time>2021-05-18T12:11:46Z</time>
      </trkpt>
      <trkpt lat="41.8753290" lon="-8.8389690">
        <ele>7.7</ele>
        <time>2021-05-18T12:11:47Z</time>
      </trkpt>
      <trkpt lat="41.8753330" lon="-8.8389720">
        <ele>7.7</ele>
        <time>2021-05-18T12:11:48Z</time>
      </trkpt>
      <trkpt lat="41.8753330" lon="-8.8389730">
        <ele>7.7</ele>
        <time>2021-05-18T12:11:49Z</time>
      </trkpt>
      <trkpt lat="41.8753310" lon="-8.8389760">
        <ele>7.7</ele>
        <time>2021-05-18T12:11:50Z</time>
      </trkpt>
      <trkpt lat="41.8753300" lon="-8.8389770">
        <ele>7.7</ele>
        <time>2021-05-18T12:11:51Z</time>
      </trkpt>
      <trkpt lat="41.8753270" lon="-8.8389800">
        <ele>7.7</ele>
        <time>2021-05-18T12:11:52Z</time>
      </trkpt>
      <trkpt lat="41.8753250" lon="-8.8389770">
        <ele>7.7</ele>
        <time>2021-05-18T12:11:53Z</time>
      </trkpt>
      <trkpt lat="41.8753260" lon="-8.8389730">
        <ele>7.7</ele>
        <time>2021-05-18T12:11:54Z</time>
      </trkpt>
      <trkpt lat="41.8753260" lon="-8.8389730">
        <ele>7.7</ele>
        <time>2021-05-18T12:11:55Z</time>
      </trkpt>
      <trkpt lat="41.8753260" lon="-8.8389730">
        <ele>7.7</ele>
        <time>2021-05-18T12:11:56Z</time>
      </trkpt>
      <trkpt lat="41.8753260" lon="-8.8389730">
        <ele>7.7</ele>
        <time>2021-05-18T12:11:57Z</time>
      </trkpt>
      <trkpt lat="41.8753260" lon="-8.8389730">
        <ele>7.7</ele>
        <time>2021-05-18T12:11:59Z</time>
      </trkpt>
      <trkpt lat="41.8753260" lon="-8.8389730">
        <ele>7.7</ele>
        <time>2021-05-18T12:12:00Z</time>
      </trkpt>
      <trkpt lat="41.8753260" lon="-8.8389730">
        <ele>7.7</ele>
        <time>2021-05-18T12:12:01Z</time>
      </trkpt>
      <trkpt lat="41.8753260" lon="-8.8389730">
        <ele>7.7</ele>
        <time>2021-05-18T12:12:02Z</time>
      </trkpt>
      <trkpt lat="41.8753260" lon="-8.8389730">
        <ele>7.7</ele>
        <time>2021-05-18T12:12:03Z</time>
      </trkpt>
      <trkpt lat="41.8753260" lon="-8.8389730">
        <ele>7.7</ele>
        <time>2021-05-18T12:12:04Z</time>
      </trkpt>
      <trkpt lat="41.8753260" lon="-8.8389730">
        <ele>7.7</ele>
        <time>2021-05-18T12:12:05Z</time>
      </trkpt>
      <trkpt lat="41.8753260" lon="-8.8389730">
        <ele>7.7</ele>
        <time>2021-05-18T12:12:06Z</time>
      </trkpt>
      <trkpt lat="41.8753260" lon="-8.8389730">
        <ele>7.7</ele>
        <time>2021-05-18T12:12:07Z</time>
      </trkpt>
      <trkpt lat="41.8753260" lon="-8.8389730">
        <ele>7.7</ele>
        <time>2021-05-18T12:12:08Z</time>
      </trkpt>
      <trkpt lat="41.8753260" lon="-8.8389730">
        <ele>7.7</ele>
        <time>2021-05-18T12:12:09Z</time>
      </trkpt>
      <trkpt lat="41.8753260" lon="-8.8389730">
        <ele>7.7</ele>
        <time>2021-05-18T12:12:10Z</time>
      </trkpt>
      <trkpt lat="41.8753260" lon="-8.8389730">
        <ele>7.7</ele>
        <time>2021-05-18T12:12:11Z</time>
      </trkpt>
      <trkpt lat="41.8753260" lon="-8.8389730">
        <ele>7.7</ele>
        <time>2021-05-18T12:12:12Z</time>
      </trkpt>
      <trkpt lat="41.8753260" lon="-8.8389730">
        <ele>7.7</ele>
        <time>2021-05-18T12:12:13Z</time>
      </trkpt>
      <trkpt lat="41.8753260" lon="-8.8389730">
        <ele>7.7</ele>
        <time>2021-05-18T12:12:14Z</time>
      </trkpt>
      <trkpt lat="41.8753300" lon="-8.8389580">
        <ele>7.7</ele>
        <time>2021-05-18T12:12:15Z</time>
      </trkpt>
      <trkpt lat="41.8753290" lon="-8.8389580">
        <ele>7.7</ele>
        <time>2021-05-18T12:12:16Z</time>
      </trkpt>
      <trkpt lat="41.8753290" lon="-8.8389580">
        <ele>7.7</ele>
        <time>2021-05-18T12:12:17Z</time>
      </trkpt>
      <trkpt lat="41.8753290" lon="-8.8389580">
        <ele>7.7</ele>
        <time>2021-05-18T12:12:18Z</time>
      </trkpt>
      <trkpt lat="41.8753290" lon="-8.8389580">
        <ele>7.7</ele>
        <time>2021-05-18T12:12:19Z</time>
      </trkpt>
      <trkpt lat="41.8753290" lon="-8.8389580">
        <ele>7.7</ele>
        <time>2021-05-18T12:12:20Z</time>
      </trkpt>
      <trkpt lat="41.8753290" lon="-8.8389580">
        <ele>7.7</ele>
        <time>2021-05-18T12:12:21Z</time>
      </trkpt>
      <trkpt lat="41.8753290" lon="-8.8389580">
        <ele>7.7</ele>
        <time>2021-05-18T12:12:22Z</time>
      </trkpt>
      <trkpt lat="41.8753290" lon="-8.8389580">
        <ele>7.7</ele>
        <time>2021-05-18T12:12:23Z</time>
      </trkpt>
      <trkpt lat="41.8753290" lon="-8.8389580">
        <ele>7.7</ele>
        <time>2021-05-18T12:12:24Z</time>
      </trkpt>
      <trkpt lat="41.8753290" lon="-8.8389580">
        <ele>7.7</ele>
        <time>2021-05-18T12:12:25Z</time>
      </trkpt>
      <trkpt lat="41.8753290" lon="-8.8389580">
        <ele>7.7</ele>
        <time>2021-05-18T12:12:26Z</time>
      </trkpt>
      <trkpt lat="41.8753290" lon="-8.8389580">
        <ele>7.7</ele>
        <time>2021-05-18T12:12:27Z</time>
      </trkpt>
      <trkpt lat="41.8753290" lon="-8.8389580">
        <ele>7.7</ele>
        <time>2021-05-18T12:12:28Z</time>
      </trkpt>
      <trkpt lat="41.8753290" lon="-8.8389580">
        <ele>7.7</ele>
        <time>2021-05-18T12:12:29Z</time>
      </trkpt>
      <trkpt lat="41.8753340" lon="-8.8389480">
        <ele>7.7</ele>
        <time>2021-05-18T12:12:30Z</time>
      </trkpt>
      <trkpt lat="41.8753340" lon="-8.8389480">
        <ele>7.7</ele>
        <time>2021-05-18T12:12:31Z</time>
      </trkpt>
      <trkpt lat="41.8753340" lon="-8.8389480">
        <ele>7.7</ele>
        <time>2021-05-18T12:12:32Z</time>
      </trkpt>
      <trkpt lat="41.8753340" lon="-8.8389480">
        <ele>7.7</ele>
        <time>2021-05-18T12:12:33Z</time>
      </trkpt>
      <trkpt lat="41.8753340" lon="-8.8389480">
        <ele>7.7</ele>
        <time>2021-05-18T12:12:34Z</time>
      </trkpt>
      <trkpt lat="41.8753340" lon="-8.8389480">
        <ele>7.7</ele>
        <time>2021-05-18T12:12:35Z</time>
      </trkpt>
      <trkpt lat="41.8753340" lon="-8.8389480">
        <ele>7.7</ele>
        <time>2021-05-18T12:12:36Z</time>
      </trkpt>
      <trkpt lat="41.8753340" lon="-8.8389480">
        <ele>7.7</ele>
        <time>2021-05-18T12:12:37Z</time>
      </trkpt>
      <trkpt lat="41.8753340" lon="-8.8389480">
        <ele>7.7</ele>
        <time>2021-05-18T12:12:38Z</time>
      </trkpt>
      <trkpt lat="41.8753340" lon="-8.8389480">
        <ele>7.7</ele>
        <time>2021-05-18T12:12:39Z</time>
      </trkpt>
      <trkpt lat="41.8753340" lon="-8.8389480">
        <ele>7.7</ele>
        <time>2021-05-18T12:12:40Z</time>
      </trkpt>
      <trkpt lat="41.8753340" lon="-8.8389480">
        <ele>7.7</ele>
        <time>2021-05-18T12:12:41Z</time>
      </trkpt>
      <trkpt lat="41.8753340" lon="-8.8389480">
        <ele>7.7</ele>
        <time>2021-05-18T12:12:42Z</time>
      </trkpt>
      <trkpt lat="41.8753340" lon="-8.8389480">
        <ele>7.7</ele>
        <time>2021-05-18T12:12:43Z</time>
      </trkpt>
      <trkpt lat="41.8753340" lon="-8.8389480">
        <ele>7.7</ele>
        <time>2021-05-18T12:12:44Z</time>
      </trkpt>
      <trkpt lat="41.8753320" lon="-8.8389640">
        <ele>7.7</ele>
        <time>2021-05-18T12:12:45Z</time>
      </trkpt>
      <trkpt lat="41.8753320" lon="-8.8389640">
        <ele>7.7</ele>
        <time>2021-05-18T12:12:46Z</time>
      </trkpt>
      <trkpt lat="41.8753320" lon="-8.8389640">
        <ele>7.7</ele>
        <time>2021-05-18T12:12:47Z</time>
      </trkpt>
      <trkpt lat="41.8753320" lon="-8.8389640">
        <ele>7.7</ele>
        <time>2021-05-18T12:12:48Z</time>
      </trkpt>
      <trkpt lat="41.8753320" lon="-8.8389640">
        <ele>7.7</ele>
        <time>2021-05-18T12:12:49Z</time>
      </trkpt>
      <trkpt lat="41.8753320" lon="-8.8389640">
        <ele>7.7</ele>
        <time>2021-05-18T12:12:50Z</time>
      </trkpt>
      <trkpt lat="41.8753320" lon="-8.8389640">
        <ele>7.7</ele>
        <time>2021-05-18T12:12:51Z</time>
      </trkpt>
      <trkpt lat="41.8753320" lon="-8.8389640">
        <ele>7.7</ele>
        <time>2021-05-18T12:12:52Z</time>
      </trkpt>
      <trkpt lat="41.8753320" lon="-8.8389640">
        <ele>7.7</ele>
        <time>2021-05-18T12:12:53Z</time>
      </trkpt>
      <trkpt lat="41.8753320" lon="-8.8389640">
        <ele>7.7</ele>
        <time>2021-05-18T12:12:54Z</time>
      </trkpt>
      <trkpt lat="41.8753320" lon="-8.8389640">
        <ele>7.7</ele>
        <time>2021-05-18T12:12:55Z</time>
      </trkpt>
      <trkpt lat="41.8753320" lon="-8.8389640">
        <ele>7.7</ele>
        <time>2021-05-18T12:12:56Z</time>
      </trkpt>
      <trkpt lat="41.8753320" lon="-8.8389640">
        <ele>7.7</ele>
        <time>2021-05-18T12:12:57Z</time>
      </trkpt>
      <trkpt lat="41.8753320" lon="-8.8389640">
        <ele>7.7</ele>
        <time>2021-05-18T12:12:58Z</time>
      </trkpt>
      <trkpt lat="41.8753320" lon="-8.8389640">
        <ele>7.7</ele>
        <time>2021-05-18T12:12:59Z</time>
      </trkpt>
      <trkpt lat="41.8753320" lon="-8.8389640">
        <ele>7.7</ele>
        <time>2021-05-18T12:13:00Z</time>
      </trkpt>
      <trkpt lat="41.8753320" lon="-8.8389640">
        <ele>7.7</ele>
        <time>2021-05-18T12:13:01Z</time>
      </trkpt>
      <trkpt lat="41.8753320" lon="-8.8389640">
        <ele>7.7</ele>
        <time>2021-05-18T12:13:02Z</time>
      </trkpt>
      <trkpt lat="41.8753320" lon="-8.8389640">
        <ele>7.7</ele>
        <time>2021-05-18T12:13:03Z</time>
      </trkpt>
      <trkpt lat="41.8753320" lon="-8.8389640">
        <ele>7.7</ele>
        <time>2021-05-18T12:13:04Z</time>
      </trkpt>
      <trkpt lat="41.8753320" lon="-8.8389640">
        <ele>7.7</ele>
        <time>2021-05-18T12:13:05Z</time>
      </trkpt>
      <trkpt lat="41.8753320" lon="-8.8389640">
        <ele>7.7</ele>
        <time>2021-05-18T12:13:06Z</time>
      </trkpt>
      <trkpt lat="41.8753320" lon="-8.8389640">
        <ele>7.7</ele>
        <time>2021-05-18T12:13:07Z</time>
      </trkpt>
      <trkpt lat="41.8753320" lon="-8.8389640">
        <ele>7.7</ele>
        <time>2021-05-18T12:13:08Z</time>
      </trkpt>
      <trkpt lat="41.8753320" lon="-8.8389640">
        <ele>7.7</ele>
        <time>2021-05-18T12:13:09Z</time>
      </trkpt>
      <trkpt lat="41.8753210" lon="-8.8389840">
        <ele>7.7</ele>
        <time>2021-05-18T12:13:10Z</time>
      </trkpt>
      <trkpt lat="41.8753200" lon="-8.8389820">
        <ele>7.7</ele>
        <time>2021-05-18T12:13:11Z</time>
      </trkpt>
      <trkpt lat="41.8753170" lon="-8.8389760">
        <ele>7.7</ele>
        <time>2021-05-18T12:13:12Z</time>
      </trkpt>
      <trkpt lat="41.8753200" lon="-8.8389620">
        <ele>7.7</ele>
        <time>2021-05-18T12:13:13Z</time>
      </trkpt>
      <trkpt lat="41.8753150" lon="-8.8389670">
        <ele>7.7</ele>
        <time>2021-05-18T12:13:14Z</time>
      </trkpt>
      <trkpt lat="41.8753180" lon="-8.8389580">
        <ele>7.7</ele>
        <time>2021-05-18T12:13:15Z</time>
      </trkpt>
      <trkpt lat="41.8753150" lon="-8.8389580">
        <ele>7.7</ele>
        <time>2021-05-18T12:13:16Z</time>
      </trkpt>
      <trkpt lat="41.8753150" lon="-8.8389580">
        <ele>7.7</ele>
        <time>2021-05-18T12:13:17Z</time>
      </trkpt>
      <trkpt lat="41.8753140" lon="-8.8389610">
        <ele>7.7</ele>
        <time>2021-05-18T12:13:18Z</time>
      </trkpt>
      <trkpt lat="41.8753140" lon="-8.8389610">
        <ele>7.7</ele>
        <time>2021-05-18T12:13:19Z</time>
      </trkpt>
      <trkpt lat="41.8753140" lon="-8.8389610">
        <ele>7.7</ele>
        <time>2021-05-18T12:13:20Z</time>
      </trkpt>
      <trkpt lat="41.8753140" lon="-8.8389610">
        <ele>7.7</ele>
        <time>2021-05-18T12:13:21Z</time>
      </trkpt>
      <trkpt lat="41.8753140" lon="-8.8389610">
        <ele>7.7</ele>
        <time>2021-05-18T12:13:22Z</time>
      </trkpt>
      <trkpt lat="41.8753140" lon="-8.8389610">
        <ele>7.7</ele>
        <time>2021-05-18T12:13:23Z</time>
      </trkpt>
      <trkpt lat="41.8753140" lon="-8.8389610">
        <ele>7.7</ele>
        <time>2021-05-18T12:13:24Z</time>
      </trkpt>
      <trkpt lat="41.8753140" lon="-8.8389610">
        <ele>7.7</ele>
        <time>2021-05-18T12:13:25Z</time>
      </trkpt>
      <trkpt lat="41.8753140" lon="-8.8389610">
        <ele>7.7</ele>
        <time>2021-05-18T12:13:26Z</time>
      </trkpt>
      <trkpt lat="41.8753040" lon="-8.8389540">
        <ele>7.7</ele>
        <time>2021-05-18T12:13:27Z</time>
      </trkpt>
      <trkpt lat="41.8753040" lon="-8.8389550">
        <ele>7.7</ele>
        <time>2021-05-18T12:13:28Z</time>
      </trkpt>
      <trkpt lat="41.8753080" lon="-8.8389600">
        <ele>7.7</ele>
        <time>2021-05-18T12:13:29Z</time>
      </trkpt>
      <trkpt lat="41.8753100" lon="-8.8389630">
        <ele>7.7</ele>
        <time>2021-05-18T12:13:30Z</time>
      </trkpt>
      <trkpt lat="41.8753110" lon="-8.8389640">
        <ele>7.7</ele>
        <time>2021-05-18T12:13:31Z</time>
      </trkpt>
      <trkpt lat="41.8753110" lon="-8.8389640">
        <ele>7.7</ele>
        <time>2021-05-18T12:13:32Z</time>
      </trkpt>
      <trkpt lat="41.8753110" lon="-8.8389640">
        <ele>7.7</ele>
        <time>2021-05-18T12:13:33Z</time>
      </trkpt>
      <trkpt lat="41.8753110" lon="-8.8389640">
        <ele>7.7</ele>
        <time>2021-05-18T12:13:34Z</time>
      </trkpt>
      <trkpt lat="41.8753110" lon="-8.8389640">
        <ele>7.7</ele>
        <time>2021-05-18T12:13:35Z</time>
      </trkpt>
      <trkpt lat="41.8753110" lon="-8.8389640">
        <ele>7.7</ele>
        <time>2021-05-18T12:13:36Z</time>
      </trkpt>
      <trkpt lat="41.8753110" lon="-8.8389640">
        <ele>7.7</ele>
        <time>2021-05-18T12:13:37Z</time>
      </trkpt>
      <trkpt lat="41.8753120" lon="-8.8389750">
        <ele>7.7</ele>
        <time>2021-05-18T12:13:38Z</time>
      </trkpt>
      <trkpt lat="41.8753100" lon="-8.8389730">
        <ele>7.7</ele>
        <time>2021-05-18T12:13:39Z</time>
      </trkpt>
      <trkpt lat="41.8753100" lon="-8.8389710">
        <ele>7.7</ele>
        <time>2021-05-18T12:13:40Z</time>
      </trkpt>
      <trkpt lat="41.8753100" lon="-8.8389710">
        <ele>7.7</ele>
        <time>2021-05-18T12:13:41Z</time>
      </trkpt>
      <trkpt lat="41.8753100" lon="-8.8389710">
        <ele>7.7</ele>
        <time>2021-05-18T12:13:42Z</time>
      </trkpt>
      <trkpt lat="41.8753100" lon="-8.8389710">
        <ele>7.7</ele>
        <time>2021-05-18T12:13:43Z</time>
      </trkpt>
      <trkpt lat="41.8753100" lon="-8.8389710">
        <ele>7.7</ele>
        <time>2021-05-18T12:13:44Z</time>
      </trkpt>
      <trkpt lat="41.8753100" lon="-8.8389710">
        <ele>7.7</ele>
        <time>2021-05-18T12:13:45Z</time>
      </trkpt>
      <trkpt lat="41.8753140" lon="-8.8389690">
        <ele>7.7</ele>
        <time>2021-05-18T12:13:46Z</time>
      </trkpt>
      <trkpt lat="41.8753130" lon="-8.8389640">
        <ele>7.7</ele>
        <time>2021-05-18T12:13:47Z</time>
      </trkpt>
      <trkpt lat="41.8753140" lon="-8.8389600">
        <ele>7.7</ele>
        <time>2021-05-18T12:13:48Z</time>
      </trkpt>
      <trkpt lat="41.8753130" lon="-8.8389580">
        <ele>7.7</ele>
        <time>2021-05-18T12:13:49Z</time>
      </trkpt>
      <trkpt lat="41.8753090" lon="-8.8389510">
        <ele>7.7</ele>
        <time>2021-05-18T12:13:51Z</time>
      </trkpt>
      <trkpt lat="41.8753080" lon="-8.8389470">
        <ele>7.7</ele>
        <time>2021-05-18T12:13:53Z</time>
      </trkpt>
      <trkpt lat="41.8753090" lon="-8.8389460">
        <ele>7.7</ele>
        <time>2021-05-18T12:13:54Z</time>
      </trkpt>
      <trkpt lat="41.8753100" lon="-8.8389450">
        <ele>7.7</ele>
        <time>2021-05-18T12:13:55Z</time>
      </trkpt>
      <trkpt lat="41.8753060" lon="-8.8389400">
        <ele>7.7</ele>
        <time>2021-05-18T12:13:56Z</time>
      </trkpt>
      <trkpt lat="41.8753040" lon="-8.8389370">
        <ele>7.7</ele>
        <time>2021-05-18T12:13:57Z</time>
      </trkpt>
      <trkpt lat="41.8753040" lon="-8.8389360">
        <ele>7.7</ele>
        <time>2021-05-18T12:13:58Z</time>
      </trkpt>
      <trkpt lat="41.8753040" lon="-8.8389360">
        <ele>7.7</ele>
        <time>2021-05-18T12:13:59Z</time>
      </trkpt>
      <trkpt lat="41.8753050" lon="-8.8389460">
        <ele>7.7</ele>
        <time>2021-05-18T12:14:00Z</time>
      </trkpt>
      <trkpt lat="41.8753060" lon="-8.8389470">
        <ele>7.7</ele>
        <time>2021-05-18T12:14:01Z</time>
      </trkpt>
      <trkpt lat="41.8753040" lon="-8.8389410">
        <ele>7.7</ele>
        <time>2021-05-18T12:14:02Z</time>
      </trkpt>
      <trkpt lat="41.8753020" lon="-8.8389430">
        <ele>7.7</ele>
        <time>2021-05-18T12:14:03Z</time>
      </trkpt>
      <trkpt lat="41.8753020" lon="-8.8389430">
        <ele>7.7</ele>
        <time>2021-05-18T12:14:04Z</time>
      </trkpt>
      <trkpt lat="41.8753020" lon="-8.8389430">
        <ele>7.7</ele>
        <time>2021-05-18T12:14:05Z</time>
      </trkpt>
      <trkpt lat="41.8753030" lon="-8.8389440">
        <ele>7.7</ele>
        <time>2021-05-18T12:14:06Z</time>
      </trkpt>
      <trkpt lat="41.8753000" lon="-8.8389540">
        <ele>7.7</ele>
        <time>2021-05-18T12:14:07Z</time>
      </trkpt>
      <trkpt lat="41.8753000" lon="-8.8389540">
        <ele>7.7</ele>
        <time>2021-05-18T12:14:08Z</time>
      </trkpt>
      <trkpt lat="41.8753000" lon="-8.8389540">
        <ele>7.7</ele>
        <time>2021-05-18T12:14:09Z</time>
      </trkpt>
      <trkpt lat="41.8752870" lon="-8.8389580">
        <ele>7.7</ele>
        <time>2021-05-18T12:14:10Z</time>
      </trkpt>
      <trkpt lat="41.8752860" lon="-8.8389540">
        <ele>7.7</ele>
        <time>2021-05-18T12:14:11Z</time>
      </trkpt>
      <trkpt lat="41.8752860" lon="-8.8389530">
        <ele>7.7</ele>
        <time>2021-05-18T12:14:12Z</time>
      </trkpt>
      <trkpt lat="41.8752860" lon="-8.8389530">
        <ele>7.7</ele>
        <time>2021-05-18T12:14:13Z</time>
      </trkpt>
      <trkpt lat="41.8752860" lon="-8.8389530">
        <ele>7.7</ele>
        <time>2021-05-18T12:14:14Z</time>
      </trkpt>
      <trkpt lat="41.8752800" lon="-8.8389410">
        <ele>7.7</ele>
        <time>2021-05-18T12:14:15Z</time>
      </trkpt>
      <trkpt lat="41.8752800" lon="-8.8389360">
        <ele>7.7</ele>
        <time>2021-05-18T12:14:16Z</time>
      </trkpt>
      <trkpt lat="41.8752800" lon="-8.8389360">
        <ele>7.7</ele>
        <time>2021-05-18T12:14:17Z</time>
      </trkpt>
      <trkpt lat="41.8752800" lon="-8.8389360">
        <ele>7.7</ele>
        <time>2021-05-18T12:14:18Z</time>
      </trkpt>
      <trkpt lat="41.8752800" lon="-8.8389360">
        <ele>7.7</ele>
        <time>2021-05-18T12:14:19Z</time>
      </trkpt>
      <trkpt lat="41.8752800" lon="-8.8389360">
        <ele>7.7</ele>
        <time>2021-05-18T12:14:20Z</time>
      </trkpt>
      <trkpt lat="41.8752840" lon="-8.8389240">
        <ele>7.7</ele>
        <time>2021-05-18T12:14:21Z</time>
      </trkpt>
      <trkpt lat="41.8752840" lon="-8.8389240">
        <ele>7.7</ele>
        <time>2021-05-18T12:14:22Z</time>
      </trkpt>
      <trkpt lat="41.8752870" lon="-8.8389190">
        <ele>7.7</ele>
        <time>2021-05-18T12:14:23Z</time>
      </trkpt>
      <trkpt lat="41.8752870" lon="-8.8389190">
        <ele>7.7</ele>
        <time>2021-05-18T12:14:24Z</time>
      </trkpt>
      <trkpt lat="41.8752910" lon="-8.8389240">
        <ele>7.7</ele>
        <time>2021-05-18T12:14:25Z</time>
      </trkpt>
      <trkpt lat="41.8752960" lon="-8.8389240">
        <ele>7.7</ele>
        <time>2021-05-18T12:14:26Z</time>
      </trkpt>
      <trkpt lat="41.8752960" lon="-8.8389240">
        <ele>7.7</ele>
        <time>2021-05-18T12:14:27Z</time>
      </trkpt>
      <trkpt lat="41.8752960" lon="-8.8389240">
        <ele>7.7</ele>
        <time>2021-05-18T12:14:28Z</time>
      </trkpt>
      <trkpt lat="41.8752960" lon="-8.8389240">
        <ele>7.7</ele>
        <time>2021-05-18T12:14:29Z</time>
      </trkpt>
      <trkpt lat="41.8752960" lon="-8.8389240">
        <ele>7.7</ele>
        <time>2021-05-18T12:14:30Z</time>
      </trkpt>
      <trkpt lat="41.8752950" lon="-8.8389220">
        <ele>7.7</ele>
        <time>2021-05-18T12:14:31Z</time>
      </trkpt>
      <trkpt lat="41.8752940" lon="-8.8389240">
        <ele>7.7</ele>
        <time>2021-05-18T12:14:32Z</time>
      </trkpt>
      <trkpt lat="41.8752930" lon="-8.8389210">
        <ele>7.7</ele>
        <time>2021-05-18T12:14:33Z</time>
      </trkpt>
      <trkpt lat="41.8752800" lon="-8.8389210">
        <ele>7.7</ele>
        <time>2021-05-18T12:14:34Z</time>
      </trkpt>
      <trkpt lat="41.8752790" lon="-8.8389300">
        <ele>7.7</ele>
        <time>2021-05-18T12:14:35Z</time>
      </trkpt>
      <trkpt lat="41.8752850" lon="-8.8389320">
        <ele>7.7</ele>
        <time>2021-05-18T12:14:36Z</time>
      </trkpt>
      <trkpt lat="41.8752850" lon="-8.8389310">
        <ele>7.7</ele>
        <time>2021-05-18T12:14:37Z</time>
      </trkpt>
      <trkpt lat="41.8752850" lon="-8.8389310">
        <ele>7.7</ele>
        <time>2021-05-18T12:14:38Z</time>
      </trkpt>
      <trkpt lat="41.8752850" lon="-8.8389310">
        <ele>7.7</ele>
        <time>2021-05-18T12:14:39Z</time>
      </trkpt>
      <trkpt lat="41.8752850" lon="-8.8389310">
        <ele>7.7</ele>
        <time>2021-05-18T12:14:40Z</time>
      </trkpt>
      <trkpt lat="41.8752880" lon="-8.8389320">
        <ele>7.7</ele>
        <time>2021-05-18T12:14:41Z</time>
      </trkpt>
      <trkpt lat="41.8752880" lon="-8.8389430">
        <ele>7.7</ele>
        <time>2021-05-18T12:14:42Z</time>
      </trkpt>
      <trkpt lat="41.8752930" lon="-8.8389510">
        <ele>7.7</ele>
        <time>2021-05-18T12:14:43Z</time>
      </trkpt>
      <trkpt lat="41.8752930" lon="-8.8389520">
        <ele>7.7</ele>
        <time>2021-05-18T12:14:44Z</time>
      </trkpt>
      <trkpt lat="41.8752930" lon="-8.8389510">
        <ele>7.7</ele>
        <time>2021-05-18T12:14:45Z</time>
      </trkpt>
      <trkpt lat="41.8752970" lon="-8.8389550">
        <ele>7.7</ele>
        <time>2021-05-18T12:14:46Z</time>
      </trkpt>
      <trkpt lat="41.8752970" lon="-8.8389550">
        <ele>7.7</ele>
        <time>2021-05-18T12:14:47Z</time>
      </trkpt>
      <trkpt lat="41.8753010" lon="-8.8389520">
        <ele>7.7</ele>
        <time>2021-05-18T12:14:48Z</time>
      </trkpt>
      <trkpt lat="41.8753040" lon="-8.8389490">
        <ele>7.7</ele>
        <time>2021-05-18T12:14:49Z</time>
      </trkpt>
      <trkpt lat="41.8753060" lon="-8.8389430">
        <ele>7.7</ele>
        <time>2021-05-18T12:14:50Z</time>
      </trkpt>
      <trkpt lat="41.8753030" lon="-8.8389410">
        <ele>7.7</ele>
        <time>2021-05-18T12:14:51Z</time>
      </trkpt>
      <trkpt lat="41.8753060" lon="-8.8389400">
        <ele>7.7</ele>
        <time>2021-05-18T12:14:52Z</time>
      </trkpt>
      <trkpt lat="41.8753000" lon="-8.8389350">
        <ele>7.7</ele>
        <time>2021-05-18T12:14:53Z</time>
      </trkpt>
      <trkpt lat="41.8753000" lon="-8.8389350">
        <ele>7.7</ele>
        <time>2021-05-18T12:14:54Z</time>
      </trkpt>
      <trkpt lat="41.8752940" lon="-8.8389330">
        <ele>7.7</ele>
        <time>2021-05-18T12:14:55Z</time>
      </trkpt>
      <trkpt lat="41.8752940" lon="-8.8389340">
        <ele>7.7</ele>
        <time>2021-05-18T12:14:56Z</time>
      </trkpt>
      <trkpt lat="41.8752930" lon="-8.8389280">
        <ele>7.7</ele>
        <time>2021-05-18T12:14:57Z</time>
      </trkpt>
      <trkpt lat="41.8752940" lon="-8.8389300">
        <ele>7.7</ele>
        <time>2021-05-18T12:14:58Z</time>
      </trkpt>
      <trkpt lat="41.8752940" lon="-8.8389300">
        <ele>7.7</ele>
        <time>2021-05-18T12:14:59Z</time>
      </trkpt>
      <trkpt lat="41.8752940" lon="-8.8389300">
        <ele>7.7</ele>
        <time>2021-05-18T12:15:00Z</time>
      </trkpt>
      <trkpt lat="41.8752860" lon="-8.8389340">
        <ele>7.7</ele>
        <time>2021-05-18T12:15:01Z</time>
      </trkpt>
      <trkpt lat="41.8752850" lon="-8.8389330">
        <ele>7.7</ele>
        <time>2021-05-18T12:15:02Z</time>
      </trkpt>
      <trkpt lat="41.8752920" lon="-8.8389190">
        <ele>7.7</ele>
        <time>2021-05-18T12:15:03Z</time>
      </trkpt>
      <trkpt lat="41.8752950" lon="-8.8389120">
        <ele>7.7</ele>
        <time>2021-05-18T12:15:04Z</time>
      </trkpt>
      <trkpt lat="41.8752900" lon="-8.8389170">
        <ele>7.7</ele>
        <time>2021-05-18T12:15:05Z</time>
      </trkpt>
      <trkpt lat="41.8752870" lon="-8.8389160">
        <ele>7.7</ele>
        <time>2021-05-18T12:15:06Z</time>
      </trkpt>
      <trkpt lat="41.8752910" lon="-8.8389040">
        <ele>7.7</ele>
        <time>2021-05-18T12:15:07Z</time>
      </trkpt>
      <trkpt lat="41.8752910" lon="-8.8389040">
        <ele>7.7</ele>
        <time>2021-05-18T12:15:08Z</time>
      </trkpt>
      <trkpt lat="41.8752910" lon="-8.8389040">
        <ele>7.7</ele>
        <time>2021-05-18T12:15:09Z</time>
      </trkpt>
      <trkpt lat="41.8752910" lon="-8.8389040">
        <ele>7.7</ele>
        <time>2021-05-18T12:15:10Z</time>
      </trkpt>
      <trkpt lat="41.8752910" lon="-8.8389040">
        <ele>7.7</ele>
        <time>2021-05-18T12:15:11Z</time>
      </trkpt>
      <trkpt lat="41.8752910" lon="-8.8389040">
        <ele>7.7</ele>
        <time>2021-05-18T12:15:12Z</time>
      </trkpt>
      <trkpt lat="41.8752840" lon="-8.8389010">
        <ele>7.7</ele>
        <time>2021-05-18T12:15:13Z</time>
      </trkpt>
      <trkpt lat="41.8752860" lon="-8.8389000">
        <ele>7.7</ele>
        <time>2021-05-18T12:15:14Z</time>
      </trkpt>
      <trkpt lat="41.8752840" lon="-8.8388980">
        <ele>7.7</ele>
        <time>2021-05-18T12:15:15Z</time>
      </trkpt>
      <trkpt lat="41.8752850" lon="-8.8388930">
        <ele>7.7</ele>
        <time>2021-05-18T12:15:16Z</time>
      </trkpt>
      <trkpt lat="41.8752860" lon="-8.8388920">
        <ele>7.7</ele>
        <time>2021-05-18T12:15:17Z</time>
      </trkpt>
      <trkpt lat="41.8752860" lon="-8.8388920">
        <ele>7.7</ele>
        <time>2021-05-18T12:15:18Z</time>
      </trkpt>
      <trkpt lat="41.8752860" lon="-8.8388920">
        <ele>7.7</ele>
        <time>2021-05-18T12:15:19Z</time>
      </trkpt>
      <trkpt lat="41.8752860" lon="-8.8388920">
        <ele>7.7</ele>
        <time>2021-05-18T12:15:20Z</time>
      </trkpt>
      <trkpt lat="41.8752920" lon="-8.8388980">
        <ele>7.7</ele>
        <time>2021-05-18T12:15:21Z</time>
      </trkpt>
      <trkpt lat="41.8752930" lon="-8.8388930">
        <ele>7.7</ele>
        <time>2021-05-18T12:15:22Z</time>
      </trkpt>
      <trkpt lat="41.8752900" lon="-8.8388990">
        <ele>7.7</ele>
        <time>2021-05-18T12:15:23Z</time>
      </trkpt>
      <trkpt lat="41.8752890" lon="-8.8389120">
        <ele>7.8</ele>
        <time>2021-05-18T12:15:24Z</time>
      </trkpt>
      <trkpt lat="41.8752970" lon="-8.8389090">
        <ele>7.8</ele>
        <time>2021-05-18T12:15:25Z</time>
      </trkpt>
      <trkpt lat="41.8752970" lon="-8.8389090">
        <ele>7.8</ele>
        <time>2021-05-18T12:15:26Z</time>
      </trkpt>
      <trkpt lat="41.8752910" lon="-8.8389000">
        <ele>7.8</ele>
        <time>2021-05-18T12:15:27Z</time>
      </trkpt>
      <trkpt lat="41.8752910" lon="-8.8389000">
        <ele>7.8</ele>
        <time>2021-05-18T12:15:28Z</time>
      </trkpt>
      <trkpt lat="41.8752890" lon="-8.8389110">
        <ele>7.8</ele>
        <time>2021-05-18T12:15:29Z</time>
      </trkpt>
      <trkpt lat="41.8752890" lon="-8.8389000">
        <ele>7.8</ele>
        <time>2021-05-18T12:15:30Z</time>
      </trkpt>
      <trkpt lat="41.8752910" lon="-8.8389020">
        <ele>7.8</ele>
        <time>2021-05-18T12:15:31Z</time>
      </trkpt>
      <trkpt lat="41.8752890" lon="-8.8389000">
        <ele>7.8</ele>
        <time>2021-05-18T12:15:32Z</time>
      </trkpt>
      <trkpt lat="41.8752910" lon="-8.8388970">
        <ele>7.8</ele>
        <time>2021-05-18T12:15:33Z</time>
      </trkpt>
      <trkpt lat="41.8752930" lon="-8.8388970">
        <ele>7.8</ele>
        <time>2021-05-18T12:15:34Z</time>
      </trkpt>
      <trkpt lat="41.8752960" lon="-8.8388950">
        <ele>7.8</ele>
        <time>2021-05-18T12:15:35Z</time>
      </trkpt>
      <trkpt lat="41.8752920" lon="-8.8388910">
        <ele>7.8</ele>
        <time>2021-05-18T12:15:36Z</time>
      </trkpt>
      <trkpt lat="41.8752890" lon="-8.8388970">
        <ele>7.8</ele>
        <time>2021-05-18T12:15:37Z</time>
      </trkpt>
      <trkpt lat="41.8752900" lon="-8.8388970">
        <ele>7.8</ele>
        <time>2021-05-18T12:15:38Z</time>
      </trkpt>
      <trkpt lat="41.8752900" lon="-8.8388970">
        <ele>7.8</ele>
        <time>2021-05-18T12:15:39Z</time>
      </trkpt>
      <trkpt lat="41.8752910" lon="-8.8389040">
        <ele>7.8</ele>
        <time>2021-05-18T12:15:40Z</time>
      </trkpt>
      <trkpt lat="41.8752910" lon="-8.8389040">
        <ele>7.8</ele>
        <time>2021-05-18T12:15:41Z</time>
      </trkpt>
      <trkpt lat="41.8752830" lon="-8.8389110">
        <ele>7.8</ele>
        <time>2021-05-18T12:15:42Z</time>
      </trkpt>
      <trkpt lat="41.8752860" lon="-8.8389150">
        <ele>7.8</ele>
        <time>2021-05-18T12:15:43Z</time>
      </trkpt>
      <trkpt lat="41.8752880" lon="-8.8389120">
        <ele>7.8</ele>
        <time>2021-05-18T12:15:44Z</time>
      </trkpt>
      <trkpt lat="41.8752930" lon="-8.8389060">
        <ele>7.8</ele>
        <time>2021-05-18T12:15:45Z</time>
      </trkpt>
      <trkpt lat="41.8752970" lon="-8.8389020">
        <ele>7.8</ele>
        <time>2021-05-18T12:15:46Z</time>
      </trkpt>
      <trkpt lat="41.8752970" lon="-8.8389010">
        <ele>7.8</ele>
        <time>2021-05-18T12:15:47Z</time>
      </trkpt>
      <trkpt lat="41.8753020" lon="-8.8389030">
        <ele>7.8</ele>
        <time>2021-05-18T12:15:48Z</time>
      </trkpt>
      <trkpt lat="41.8753020" lon="-8.8389080">
        <ele>7.8</ele>
        <time>2021-05-18T12:15:49Z</time>
      </trkpt>
      <trkpt lat="41.8753040" lon="-8.8389150">
        <ele>7.8</ele>
        <time>2021-05-18T12:15:50Z</time>
      </trkpt>
      <trkpt lat="41.8753020" lon="-8.8389120">
        <ele>7.8</ele>
        <time>2021-05-18T12:15:51Z</time>
      </trkpt>
      <trkpt lat="41.8752970" lon="-8.8389190">
        <ele>7.8</ele>
        <time>2021-05-18T12:15:52Z</time>
      </trkpt>
      <trkpt lat="41.8752910" lon="-8.8389170">
        <ele>7.8</ele>
        <time>2021-05-18T12:15:53Z</time>
      </trkpt>
      <trkpt lat="41.8752940" lon="-8.8389120">
        <ele>7.8</ele>
        <time>2021-05-18T12:15:54Z</time>
      </trkpt>
      <trkpt lat="41.8752930" lon="-8.8389100">
        <ele>7.8</ele>
        <time>2021-05-18T12:15:55Z</time>
      </trkpt>
      <trkpt lat="41.8752910" lon="-8.8389070">
        <ele>7.8</ele>
        <time>2021-05-18T12:15:56Z</time>
      </trkpt>
      <trkpt lat="41.8752980" lon="-8.8389070">
        <ele>7.8</ele>
        <time>2021-05-18T12:15:57Z</time>
      </trkpt>
      <trkpt lat="41.8752990" lon="-8.8389070">
        <ele>7.8</ele>
        <time>2021-05-18T12:15:58Z</time>
      </trkpt>
      <trkpt lat="41.8752920" lon="-8.8389040">
        <ele>7.8</ele>
        <time>2021-05-18T12:15:59Z</time>
      </trkpt>
      <trkpt lat="41.8752920" lon="-8.8389040">
        <ele>7.8</ele>
        <time>2021-05-18T12:16:00Z</time>
      </trkpt>
      <trkpt lat="41.8752900" lon="-8.8389090">
        <ele>7.8</ele>
        <time>2021-05-18T12:16:01Z</time>
      </trkpt>
      <trkpt lat="41.8752910" lon="-8.8389000">
        <ele>7.8</ele>
        <time>2021-05-18T12:16:02Z</time>
      </trkpt>
      <trkpt lat="41.8752940" lon="-8.8389020">
        <ele>7.8</ele>
        <time>2021-05-18T12:16:03Z</time>
      </trkpt>
      <trkpt lat="41.8752930" lon="-8.8389020">
        <ele>7.8</ele>
        <time>2021-05-18T12:16:04Z</time>
      </trkpt>
      <trkpt lat="41.8752930" lon="-8.8388960">
        <ele>7.8</ele>
        <time>2021-05-18T12:16:05Z</time>
      </trkpt>
      <trkpt lat="41.8752930" lon="-8.8388960">
        <ele>7.8</ele>
        <time>2021-05-18T12:16:06Z</time>
      </trkpt>
      <trkpt lat="41.8752960" lon="-8.8388960">
        <ele>7.8</ele>
        <time>2021-05-18T12:16:07Z</time>
      </trkpt>
      <trkpt lat="41.8753010" lon="-8.8389100">
        <ele>7.8</ele>
        <time>2021-05-18T12:16:08Z</time>
      </trkpt>
      <trkpt lat="41.8753070" lon="-8.8389160">
        <ele>7.8</ele>
        <time>2021-05-18T12:16:09Z</time>
      </trkpt>
      <trkpt lat="41.8753040" lon="-8.8389060">
        <ele>7.8</ele>
        <time>2021-05-18T12:16:10Z</time>
      </trkpt>
      <trkpt lat="41.8753130" lon="-8.8389170">
        <ele>7.8</ele>
        <time>2021-05-18T12:16:11Z</time>
      </trkpt>
      <trkpt lat="41.8753180" lon="-8.8389210">
        <ele>7.8</ele>
        <time>2021-05-18T12:16:12Z</time>
      </trkpt>
      <trkpt lat="41.8753180" lon="-8.8389310">
        <ele>7.8</ele>
        <time>2021-05-18T12:16:13Z</time>
      </trkpt>
      <trkpt lat="41.8753210" lon="-8.8389360">
        <ele>7.8</ele>
        <time>2021-05-18T12:16:14Z</time>
      </trkpt>
      <trkpt lat="41.8753240" lon="-8.8389370">
        <ele>7.8</ele>
        <time>2021-05-18T12:16:15Z</time>
      </trkpt>
      <trkpt lat="41.8753220" lon="-8.8389440">
        <ele>7.8</ele>
        <time>2021-05-18T12:16:16Z</time>
      </trkpt>
      <trkpt lat="41.8753230" lon="-8.8389440">
        <ele>7.8</ele>
        <time>2021-05-18T12:16:17Z</time>
      </trkpt>
      <trkpt lat="41.8753230" lon="-8.8389420">
        <ele>7.8</ele>
        <time>2021-05-18T12:16:18Z</time>
      </trkpt>
      <trkpt lat="41.8753210" lon="-8.8389440">
        <ele>7.8</ele>
        <time>2021-05-18T12:16:19Z</time>
      </trkpt>
      <trkpt lat="41.8753260" lon="-8.8389430">
        <ele>7.8</ele>
        <time>2021-05-18T12:16:21Z</time>
      </trkpt>
      <trkpt lat="41.8753270" lon="-8.8389470">
        <ele>7.8</ele>
        <time>2021-05-18T12:16:22Z</time>
      </trkpt>
      <trkpt lat="41.8753250" lon="-8.8389470">
        <ele>7.8</ele>
        <time>2021-05-18T12:16:23Z</time>
      </trkpt>
      <trkpt lat="41.8753190" lon="-8.8389410">
        <ele>7.8</ele>
        <time>2021-05-18T12:16:25Z</time>
      </trkpt>
      <trkpt lat="41.8753210" lon="-8.8389350">
        <ele>7.8</ele>
        <time>2021-05-18T12:16:26Z</time>
      </trkpt>
      <trkpt lat="41.8753210" lon="-8.8389390">
        <ele>7.8</ele>
        <time>2021-05-18T12:16:27Z</time>
      </trkpt>
      <trkpt lat="41.8753230" lon="-8.8389340">
        <ele>7.8</ele>
        <time>2021-05-18T12:16:28Z</time>
      </trkpt>
      <trkpt lat="41.8753250" lon="-8.8389330">
        <ele>7.8</ele>
        <time>2021-05-18T12:16:29Z</time>
      </trkpt>
      <trkpt lat="41.8753250" lon="-8.8389320">
        <ele>7.8</ele>
        <time>2021-05-18T12:16:30Z</time>
      </trkpt>
      <trkpt lat="41.8753250" lon="-8.8389290">
        <ele>7.8</ele>
        <time>2021-05-18T12:16:31Z</time>
      </trkpt>
      <trkpt lat="41.8753240" lon="-8.8389250">
        <ele>7.8</ele>
        <time>2021-05-18T12:16:32Z</time>
      </trkpt>
      <trkpt lat="41.8753250" lon="-8.8389220">
        <ele>7.8</ele>
        <time>2021-05-18T12:16:33Z</time>
      </trkpt>
      <trkpt lat="41.8753250" lon="-8.8389250">
        <ele>7.8</ele>
        <time>2021-05-18T12:16:34Z</time>
      </trkpt>
      <trkpt lat="41.8753250" lon="-8.8389240">
        <ele>7.8</ele>
        <time>2021-05-18T12:16:35Z</time>
      </trkpt>
      <trkpt lat="41.8753220" lon="-8.8389290">
        <ele>7.8</ele>
        <time>2021-05-18T12:16:36Z</time>
      </trkpt>
      <trkpt lat="41.8753210" lon="-8.8389210">
        <ele>7.8</ele>
        <time>2021-05-18T12:16:37Z</time>
      </trkpt>
      <trkpt lat="41.8753220" lon="-8.8389210">
        <ele>7.8</ele>
        <time>2021-05-18T12:16:38Z</time>
      </trkpt>
      <trkpt lat="41.8753220" lon="-8.8389170">
        <ele>7.8</ele>
        <time>2021-05-18T12:16:39Z</time>
      </trkpt>
      <trkpt lat="41.8753220" lon="-8.8389160">
        <ele>7.8</ele>
        <time>2021-05-18T12:16:40Z</time>
      </trkpt>
      <trkpt lat="41.8753240" lon="-8.8389190">
        <ele>7.8</ele>
        <time>2021-05-18T12:16:41Z</time>
      </trkpt>
      <trkpt lat="41.8753250" lon="-8.8389220">
        <ele>7.8</ele>
        <time>2021-05-18T12:16:42Z</time>
      </trkpt>
      <trkpt lat="41.8753280" lon="-8.8389220">
        <ele>7.8</ele>
        <time>2021-05-18T12:16:43Z</time>
      </trkpt>
      <trkpt lat="41.8753280" lon="-8.8389220">
        <ele>7.8</ele>
        <time>2021-05-18T12:16:44Z</time>
      </trkpt>
      <trkpt lat="41.8753280" lon="-8.8389220">
        <ele>7.8</ele>
        <time>2021-05-18T12:16:45Z</time>
      </trkpt>
      <trkpt lat="41.8753280" lon="-8.8389220">
        <ele>7.8</ele>
        <time>2021-05-18T12:16:46Z</time>
      </trkpt>
      <trkpt lat="41.8753280" lon="-8.8389220">
        <ele>7.8</ele>
        <time>2021-05-18T12:16:47Z</time>
      </trkpt>
      <trkpt lat="41.8753300" lon="-8.8389440">
        <ele>7.8</ele>
        <time>2021-05-18T12:16:48Z</time>
      </trkpt>
      <trkpt lat="41.8753300" lon="-8.8389450">
        <ele>7.8</ele>
        <time>2021-05-18T12:16:49Z</time>
      </trkpt>
      <trkpt lat="41.8753290" lon="-8.8389410">
        <ele>7.8</ele>
        <time>2021-05-18T12:16:50Z</time>
      </trkpt>
      <trkpt lat="41.8753290" lon="-8.8389400">
        <ele>7.8</ele>
        <time>2021-05-18T12:16:51Z</time>
      </trkpt>
      <trkpt lat="41.8753270" lon="-8.8389370">
        <ele>7.8</ele>
        <time>2021-05-18T12:16:52Z</time>
      </trkpt>
      <trkpt lat="41.8753260" lon="-8.8389350">
        <ele>7.8</ele>
        <time>2021-05-18T12:16:53Z</time>
      </trkpt>
      <trkpt lat="41.8753280" lon="-8.8389420">
        <ele>7.8</ele>
        <time>2021-05-18T12:16:54Z</time>
      </trkpt>
      <trkpt lat="41.8753190" lon="-8.8389300">
        <ele>7.8</ele>
        <time>2021-05-18T12:16:55Z</time>
      </trkpt>
      <trkpt lat="41.8753140" lon="-8.8389200">
        <ele>7.8</ele>
        <time>2021-05-18T12:16:56Z</time>
      </trkpt>
      <trkpt lat="41.8753140" lon="-8.8389200">
        <ele>7.8</ele>
        <time>2021-05-18T12:16:57Z</time>
      </trkpt>
      <trkpt lat="41.8753140" lon="-8.8389200">
        <ele>7.8</ele>
        <time>2021-05-18T12:16:58Z</time>
      </trkpt>
      <trkpt lat="41.8753140" lon="-8.8389110">
        <ele>7.8</ele>
        <time>2021-05-18T12:16:59Z</time>
      </trkpt>
      <trkpt lat="41.8753140" lon="-8.8389110">
        <ele>7.8</ele>
        <time>2021-05-18T12:17:00Z</time>
      </trkpt>
      <trkpt lat="41.8753140" lon="-8.8389110">
        <ele>7.8</ele>
        <time>2021-05-18T12:17:01Z</time>
      </trkpt>
      <trkpt lat="41.8753140" lon="-8.8389110">
        <ele>7.8</ele>
        <time>2021-05-18T12:17:02Z</time>
      </trkpt>
      <trkpt lat="41.8753140" lon="-8.8389110">
        <ele>7.8</ele>
        <time>2021-05-18T12:17:03Z</time>
      </trkpt>
      <trkpt lat="41.8753140" lon="-8.8389110">
        <ele>7.8</ele>
        <time>2021-05-18T12:17:04Z</time>
      </trkpt>
      <trkpt lat="41.8753140" lon="-8.8389110">
        <ele>7.8</ele>
        <time>2021-05-18T12:17:05Z</time>
      </trkpt>
      <trkpt lat="41.8753140" lon="-8.8389110">
        <ele>7.8</ele>
        <time>2021-05-18T12:17:06Z</time>
      </trkpt>
      <trkpt lat="41.8753140" lon="-8.8389110">
        <ele>7.8</ele>
        <time>2021-05-18T12:17:07Z</time>
      </trkpt>
      <trkpt lat="41.8753140" lon="-8.8389110">
        <ele>7.8</ele>
        <time>2021-05-18T12:17:08Z</time>
      </trkpt>
      <trkpt lat="41.8753140" lon="-8.8389110">
        <ele>7.8</ele>
        <time>2021-05-18T12:17:09Z</time>
      </trkpt>
      <trkpt lat="41.8753140" lon="-8.8389110">
        <ele>7.8</ele>
        <time>2021-05-18T12:17:10Z</time>
      </trkpt>
      <trkpt lat="41.8753140" lon="-8.8389110">
        <ele>7.8</ele>
        <time>2021-05-18T12:17:11Z</time>
      </trkpt>
      <trkpt lat="41.8753140" lon="-8.8389110">
        <ele>7.8</ele>
        <time>2021-05-18T12:17:12Z</time>
      </trkpt>
      <trkpt lat="41.8753050" lon="-8.8389170">
        <ele>7.8</ele>
        <time>2021-05-18T12:17:13Z</time>
      </trkpt>
      <trkpt lat="41.8753070" lon="-8.8389140">
        <ele>7.8</ele>
        <time>2021-05-18T12:17:14Z</time>
      </trkpt>
      <trkpt lat="41.8753090" lon="-8.8389090">
        <ele>7.8</ele>
        <time>2021-05-18T12:17:15Z</time>
      </trkpt>
      <trkpt lat="41.8753100" lon="-8.8389080">
        <ele>7.8</ele>
        <time>2021-05-18T12:17:16Z</time>
      </trkpt>
      <trkpt lat="41.8753100" lon="-8.8389080">
        <ele>7.8</ele>
        <time>2021-05-18T12:17:17Z</time>
      </trkpt>
      <trkpt lat="41.8753100" lon="-8.8389080">
        <ele>7.8</ele>
        <time>2021-05-18T12:17:18Z</time>
      </trkpt>
      <trkpt lat="41.8753100" lon="-8.8389080">
        <ele>7.8</ele>
        <time>2021-05-18T12:17:19Z</time>
      </trkpt>
      <trkpt lat="41.8753100" lon="-8.8389080">
        <ele>7.8</ele>
        <time>2021-05-18T12:17:20Z</time>
      </trkpt>
      <trkpt lat="41.8753090" lon="-8.8389160">
        <ele>7.8</ele>
        <time>2021-05-18T12:17:21Z</time>
      </trkpt>
      <trkpt lat="41.8753100" lon="-8.8389150">
        <ele>7.8</ele>
        <time>2021-05-18T12:17:22Z</time>
      </trkpt>
      <trkpt lat="41.8753120" lon="-8.8389150">
        <ele>7.8</ele>
        <time>2021-05-18T12:17:23Z</time>
      </trkpt>
      <trkpt lat="41.8753110" lon="-8.8389150">
        <ele>7.8</ele>
        <time>2021-05-18T12:17:24Z</time>
      </trkpt>
      <trkpt lat="41.8753110" lon="-8.8389130">
        <ele>7.8</ele>
        <time>2021-05-18T12:17:25Z</time>
      </trkpt>
      <trkpt lat="41.8753120" lon="-8.8389130">
        <ele>7.8</ele>
        <time>2021-05-18T12:17:26Z</time>
      </trkpt>
      <trkpt lat="41.8753120" lon="-8.8389130">
        <ele>7.8</ele>
        <time>2021-05-18T12:17:27Z</time>
      </trkpt>
      <trkpt lat="41.8753120" lon="-8.8389130">
        <ele>7.8</ele>
        <time>2021-05-18T12:17:28Z</time>
      </trkpt>
      <trkpt lat="41.8753120" lon="-8.8389130">
        <ele>7.8</ele>
        <time>2021-05-18T12:17:29Z</time>
      </trkpt>
      <trkpt lat="41.8753090" lon="-8.8389080">
        <ele>7.8</ele>
        <time>2021-05-18T12:17:30Z</time>
      </trkpt>
      <trkpt lat="41.8753110" lon="-8.8389100">
        <ele>7.8</ele>
        <time>2021-05-18T12:17:31Z</time>
      </trkpt>
      <trkpt lat="41.8753110" lon="-8.8389100">
        <ele>7.8</ele>
        <time>2021-05-18T12:17:32Z</time>
      </trkpt>
      <trkpt lat="41.8753110" lon="-8.8389100">
        <ele>7.8</ele>
        <time>2021-05-18T12:17:33Z</time>
      </trkpt>
      <trkpt lat="41.8753110" lon="-8.8389100">
        <ele>7.8</ele>
        <time>2021-05-18T12:17:34Z</time>
      </trkpt>
      <trkpt lat="41.8753110" lon="-8.8389100">
        <ele>7.8</ele>
        <time>2021-05-18T12:17:35Z</time>
      </trkpt>
      <trkpt lat="41.8753110" lon="-8.8389120">
        <ele>7.8</ele>
        <time>2021-05-18T12:17:36Z</time>
      </trkpt>
      <trkpt lat="41.8753110" lon="-8.8389110">
        <ele>7.8</ele>
        <time>2021-05-18T12:17:37Z</time>
      </trkpt>
      <trkpt lat="41.8753130" lon="-8.8389160">
        <ele>7.8</ele>
        <time>2021-05-18T12:17:38Z</time>
      </trkpt>
      <trkpt lat="41.8753140" lon="-8.8389200">
        <ele>7.8</ele>
        <time>2021-05-18T12:17:39Z</time>
      </trkpt>
      <trkpt lat="41.8753210" lon="-8.8389170">
        <ele>7.8</ele>
        <time>2021-05-18T12:17:40Z</time>
      </trkpt>
      <trkpt lat="41.8753140" lon="-8.8389160">
        <ele>7.8</ele>
        <time>2021-05-18T12:17:41Z</time>
      </trkpt>
      <trkpt lat="41.8753130" lon="-8.8389180">
        <ele>7.8</ele>
        <time>2021-05-18T12:17:42Z</time>
      </trkpt>
      <trkpt lat="41.8753110" lon="-8.8389170">
        <ele>7.8</ele>
        <time>2021-05-18T12:17:43Z</time>
      </trkpt>
      <trkpt lat="41.8753110" lon="-8.8389160">
        <ele>7.8</ele>
        <time>2021-05-18T12:17:44Z</time>
      </trkpt>
      <trkpt lat="41.8753110" lon="-8.8389160">
        <ele>7.8</ele>
        <time>2021-05-18T12:17:45Z</time>
      </trkpt>
      <trkpt lat="41.8753130" lon="-8.8389080">
        <ele>7.8</ele>
        <time>2021-05-18T12:17:46Z</time>
      </trkpt>
      <trkpt lat="41.8753110" lon="-8.8389090">
        <ele>7.8</ele>
        <time>2021-05-18T12:17:47Z</time>
      </trkpt>
      <trkpt lat="41.8753110" lon="-8.8389090">
        <ele>7.8</ele>
        <time>2021-05-18T12:17:48Z</time>
      </trkpt>
      <trkpt lat="41.8753110" lon="-8.8389210">
        <ele>7.8</ele>
        <time>2021-05-18T12:17:49Z</time>
      </trkpt>
      <trkpt lat="41.8753120" lon="-8.8389200">
        <ele>7.8</ele>
        <time>2021-05-18T12:17:50Z</time>
      </trkpt>
      <trkpt lat="41.8753160" lon="-8.8389110">
        <ele>7.8</ele>
        <time>2021-05-18T12:17:51Z</time>
      </trkpt>
      <trkpt lat="41.8753130" lon="-8.8389120">
        <ele>7.8</ele>
        <time>2021-05-18T12:17:52Z</time>
      </trkpt>
      <trkpt lat="41.8753160" lon="-8.8389150">
        <ele>7.8</ele>
        <time>2021-05-18T12:17:53Z</time>
      </trkpt>
      <trkpt lat="41.8753170" lon="-8.8389130">
        <ele>7.8</ele>
        <time>2021-05-18T12:17:54Z</time>
      </trkpt>
      <trkpt lat="41.8753150" lon="-8.8389100">
        <ele>7.8</ele>
        <time>2021-05-18T12:17:55Z</time>
      </trkpt>
      <trkpt lat="41.8753160" lon="-8.8389080">
        <ele>7.8</ele>
        <time>2021-05-18T12:17:56Z</time>
      </trkpt>
      <trkpt lat="41.8753140" lon="-8.8389130">
        <ele>7.8</ele>
        <time>2021-05-18T12:17:57Z</time>
      </trkpt>
      <trkpt lat="41.8753140" lon="-8.8389140">
        <ele>7.8</ele>
        <time>2021-05-18T12:17:58Z</time>
      </trkpt>
      <trkpt lat="41.8753150" lon="-8.8389230">
        <ele>7.8</ele>
        <time>2021-05-18T12:17:59Z</time>
      </trkpt>
      <trkpt lat="41.8753130" lon="-8.8389210">
        <ele>7.8</ele>
        <time>2021-05-18T12:18:00Z</time>
      </trkpt>
      <trkpt lat="41.8753090" lon="-8.8389240">
        <ele>7.8</ele>
        <time>2021-05-18T12:18:01Z</time>
      </trkpt>
      <trkpt lat="41.8753170" lon="-8.8389310">
        <ele>7.8</ele>
        <time>2021-05-18T12:18:02Z</time>
      </trkpt>
      <trkpt lat="41.8753200" lon="-8.8389280">
        <ele>7.8</ele>
        <time>2021-05-18T12:18:03Z</time>
      </trkpt>
      <trkpt lat="41.8753180" lon="-8.8389260">
        <ele>7.8</ele>
        <time>2021-05-18T12:18:04Z</time>
      </trkpt>
      <trkpt lat="41.8753160" lon="-8.8389240">
        <ele>7.8</ele>
        <time>2021-05-18T12:18:05Z</time>
      </trkpt>
      <trkpt lat="41.8753160" lon="-8.8389270">
        <ele>7.8</ele>
        <time>2021-05-18T12:18:06Z</time>
      </trkpt>
      <trkpt lat="41.8753180" lon="-8.8389270">
        <ele>7.8</ele>
        <time>2021-05-18T12:18:07Z</time>
      </trkpt>
      <trkpt lat="41.8753160" lon="-8.8389310">
        <ele>7.8</ele>
        <time>2021-05-18T12:18:08Z</time>
      </trkpt>
      <trkpt lat="41.8753150" lon="-8.8389300">
        <ele>7.8</ele>
        <time>2021-05-18T12:18:09Z</time>
      </trkpt>
      <trkpt lat="41.8753170" lon="-8.8389270">
        <ele>7.8</ele>
        <time>2021-05-18T12:18:10Z</time>
      </trkpt>
      <trkpt lat="41.8753160" lon="-8.8389260">
        <ele>7.8</ele>
        <time>2021-05-18T12:18:11Z</time>
      </trkpt>
      <trkpt lat="41.8753130" lon="-8.8389140">
        <ele>7.8</ele>
        <time>2021-05-18T12:18:12Z</time>
      </trkpt>
      <trkpt lat="41.8753150" lon="-8.8389090">
        <ele>7.8</ele>
        <time>2021-05-18T12:18:13Z</time>
      </trkpt>
      <trkpt lat="41.8753110" lon="-8.8388950">
        <ele>7.8</ele>
        <time>2021-05-18T12:18:14Z</time>
      </trkpt>
      <trkpt lat="41.8753100" lon="-8.8389100">
        <ele>7.8</ele>
        <time>2021-05-18T12:18:15Z</time>
      </trkpt>
      <trkpt lat="41.8753140" lon="-8.8389170">
        <ele>7.8</ele>
        <time>2021-05-18T12:18:16Z</time>
      </trkpt>
      <trkpt lat="41.8753120" lon="-8.8389230">
        <ele>7.8</ele>
        <time>2021-05-18T12:18:17Z</time>
      </trkpt>
      <trkpt lat="41.8753140" lon="-8.8389240">
        <ele>7.8</ele>
        <time>2021-05-18T12:18:18Z</time>
      </trkpt>
      <trkpt lat="41.8753150" lon="-8.8389250">
        <ele>7.8</ele>
        <time>2021-05-18T12:18:19Z</time>
      </trkpt>
      <trkpt lat="41.8753180" lon="-8.8389170">
        <ele>7.8</ele>
        <time>2021-05-18T12:18:20Z</time>
      </trkpt>
      <trkpt lat="41.8753150" lon="-8.8389180">
        <ele>7.8</ele>
        <time>2021-05-18T12:18:21Z</time>
      </trkpt>
      <trkpt lat="41.8753170" lon="-8.8389180">
        <ele>7.8</ele>
        <time>2021-05-18T12:18:22Z</time>
      </trkpt>
      <trkpt lat="41.8753230" lon="-8.8389270">
        <ele>7.8</ele>
        <time>2021-05-18T12:18:23Z</time>
      </trkpt>
      <trkpt lat="41.8753230" lon="-8.8389270">
        <ele>7.8</ele>
        <time>2021-05-18T12:18:24Z</time>
      </trkpt>
      <trkpt lat="41.8753290" lon="-8.8389330">
        <ele>7.8</ele>
        <time>2021-05-18T12:18:25Z</time>
      </trkpt>
      <trkpt lat="41.8753330" lon="-8.8389400">
        <ele>7.8</ele>
        <time>2021-05-18T12:18:26Z</time>
      </trkpt>
      <trkpt lat="41.8753300" lon="-8.8389330">
        <ele>7.8</ele>
        <time>2021-05-18T12:18:27Z</time>
      </trkpt>
      <trkpt lat="41.8753310" lon="-8.8389330">
        <ele>7.8</ele>
        <time>2021-05-18T12:18:28Z</time>
      </trkpt>
      <trkpt lat="41.8753300" lon="-8.8389340">
        <ele>7.8</ele>
        <time>2021-05-18T12:18:29Z</time>
      </trkpt>
      <trkpt lat="41.8753280" lon="-8.8389320">
        <ele>7.8</ele>
        <time>2021-05-18T12:18:30Z</time>
      </trkpt>
      <trkpt lat="41.8753260" lon="-8.8389360">
        <ele>7.8</ele>
        <time>2021-05-18T12:18:31Z</time>
      </trkpt>
      <trkpt lat="41.8753270" lon="-8.8389410">
        <ele>7.8</ele>
        <time>2021-05-18T12:18:32Z</time>
      </trkpt>
      <trkpt lat="41.8753300" lon="-8.8389290">
        <ele>7.8</ele>
        <time>2021-05-18T12:18:33Z</time>
      </trkpt>
      <trkpt lat="41.8753290" lon="-8.8389330">
        <ele>7.8</ele>
        <time>2021-05-18T12:18:34Z</time>
      </trkpt>
      <trkpt lat="41.8753280" lon="-8.8389360">
        <ele>7.8</ele>
        <time>2021-05-18T12:18:35Z</time>
      </trkpt>
      <trkpt lat="41.8753270" lon="-8.8389400">
        <ele>7.8</ele>
        <time>2021-05-18T12:18:36Z</time>
      </trkpt>
      <trkpt lat="41.8753250" lon="-8.8389450">
        <ele>7.8</ele>
        <time>2021-05-18T12:18:37Z</time>
      </trkpt>
      <trkpt lat="41.8753250" lon="-8.8389520">
        <ele>7.8</ele>
        <time>2021-05-18T12:18:38Z</time>
      </trkpt>
      <trkpt lat="41.8753230" lon="-8.8389460">
        <ele>7.8</ele>
        <time>2021-05-18T12:18:39Z</time>
      </trkpt>
      <trkpt lat="41.8753250" lon="-8.8389510">
        <ele>7.8</ele>
        <time>2021-05-18T12:18:40Z</time>
      </trkpt>
      <trkpt lat="41.8753260" lon="-8.8389580">
        <ele>7.8</ele>
        <time>2021-05-18T12:18:41Z</time>
      </trkpt>
      <trkpt lat="41.8753250" lon="-8.8389640">
        <ele>7.8</ele>
        <time>2021-05-18T12:18:42Z</time>
      </trkpt>
      <trkpt lat="41.8753230" lon="-8.8389600">
        <ele>7.8</ele>
        <time>2021-05-18T12:18:43Z</time>
      </trkpt>
      <trkpt lat="41.8753230" lon="-8.8389550">
        <ele>7.8</ele>
        <time>2021-05-18T12:18:44Z</time>
      </trkpt>
      <trkpt lat="41.8753230" lon="-8.8389550">
        <ele>7.8</ele>
        <time>2021-05-18T12:18:45Z</time>
      </trkpt>
      <trkpt lat="41.8753230" lon="-8.8389580">
        <ele>7.8</ele>
        <time>2021-05-18T12:18:46Z</time>
      </trkpt>
      <trkpt lat="41.8753210" lon="-8.8389570">
        <ele>7.8</ele>
        <time>2021-05-18T12:18:47Z</time>
      </trkpt>
      <trkpt lat="41.8753210" lon="-8.8389570">
        <ele>7.8</ele>
        <time>2021-05-18T12:18:48Z</time>
      </trkpt>
      <trkpt lat="41.8753180" lon="-8.8389530">
        <ele>7.8</ele>
        <time>2021-05-18T12:18:49Z</time>
      </trkpt>
      <trkpt lat="41.8753180" lon="-8.8389530">
        <ele>7.8</ele>
        <time>2021-05-18T12:18:50Z</time>
      </trkpt>
      <trkpt lat="41.8753180" lon="-8.8389530">
        <ele>7.8</ele>
        <time>2021-05-18T12:18:51Z</time>
      </trkpt>
      <trkpt lat="41.8753180" lon="-8.8389530">
        <ele>7.8</ele>
        <time>2021-05-18T12:18:53Z</time>
      </trkpt>
      <trkpt lat="41.8753180" lon="-8.8389530">
        <ele>7.8</ele>
        <time>2021-05-18T12:18:54Z</time>
      </trkpt>
      <trkpt lat="41.8753180" lon="-8.8389530">
        <ele>7.8</ele>
        <time>2021-05-18T12:18:55Z</time>
      </trkpt>
      <trkpt lat="41.8753180" lon="-8.8389530">
        <ele>7.8</ele>
        <time>2021-05-18T12:18:56Z</time>
      </trkpt>
      <trkpt lat="41.8753180" lon="-8.8389530">
        <ele>7.8</ele>
        <time>2021-05-18T12:18:57Z</time>
      </trkpt>
      <trkpt lat="41.8753090" lon="-8.8389550">
        <ele>7.8</ele>
        <time>2021-05-18T12:18:58Z</time>
      </trkpt>
      <trkpt lat="41.8753100" lon="-8.8389570">
        <ele>7.8</ele>
        <time>2021-05-18T12:18:59Z</time>
      </trkpt>
      <trkpt lat="41.8753120" lon="-8.8389590">
        <ele>7.8</ele>
        <time>2021-05-18T12:19:00Z</time>
      </trkpt>
      <trkpt lat="41.8753150" lon="-8.8389620">
        <ele>7.8</ele>
        <time>2021-05-18T12:19:01Z</time>
      </trkpt>
      <trkpt lat="41.8753150" lon="-8.8389600">
        <ele>7.8</ele>
        <time>2021-05-18T12:19:02Z</time>
      </trkpt>
      <trkpt lat="41.8753200" lon="-8.8389530">
        <ele>7.8</ele>
        <time>2021-05-18T12:19:03Z</time>
      </trkpt>
      <trkpt lat="41.8753180" lon="-8.8389650">
        <ele>7.8</ele>
        <time>2021-05-18T12:19:04Z</time>
      </trkpt>
      <trkpt lat="41.8753200" lon="-8.8389710">
        <ele>7.8</ele>
        <time>2021-05-18T12:19:05Z</time>
      </trkpt>
      <trkpt lat="41.8753210" lon="-8.8389670">
        <ele>7.8</ele>
        <time>2021-05-18T12:19:06Z</time>
      </trkpt>
      <trkpt lat="41.8753220" lon="-8.8389660">
        <ele>7.8</ele>
        <time>2021-05-18T12:19:07Z</time>
      </trkpt>
      <trkpt lat="41.8753220" lon="-8.8389710">
        <ele>7.8</ele>
        <time>2021-05-18T12:19:08Z</time>
      </trkpt>
      <trkpt lat="41.8753200" lon="-8.8389710">
        <ele>7.8</ele>
        <time>2021-05-18T12:19:09Z</time>
      </trkpt>
      <trkpt lat="41.8753180" lon="-8.8389730">
        <ele>7.8</ele>
        <time>2021-05-18T12:19:10Z</time>
      </trkpt>
      <trkpt lat="41.8753210" lon="-8.8389620">
        <ele>7.8</ele>
        <time>2021-05-18T12:19:11Z</time>
      </trkpt>
      <trkpt lat="41.8753210" lon="-8.8389500">
        <ele>7.8</ele>
        <time>2021-05-18T12:19:12Z</time>
      </trkpt>
      <trkpt lat="41.8753210" lon="-8.8389450">
        <ele>7.8</ele>
        <time>2021-05-18T12:19:13Z</time>
      </trkpt>
      <trkpt lat="41.8753220" lon="-8.8389440">
        <ele>7.8</ele>
        <time>2021-05-18T12:19:14Z</time>
      </trkpt>
      <trkpt lat="41.8753220" lon="-8.8389440">
        <ele>7.8</ele>
        <time>2021-05-18T12:19:15Z</time>
      </trkpt>
      <trkpt lat="41.8753220" lon="-8.8389440">
        <ele>7.8</ele>
        <time>2021-05-18T12:19:16Z</time>
      </trkpt>
      <trkpt lat="41.8753210" lon="-8.8389400">
        <ele>7.8</ele>
        <time>2021-05-18T12:19:17Z</time>
      </trkpt>
      <trkpt lat="41.8753220" lon="-8.8389330">
        <ele>7.8</ele>
        <time>2021-05-18T12:19:18Z</time>
      </trkpt>
      <trkpt lat="41.8753230" lon="-8.8389320">
        <ele>7.8</ele>
        <time>2021-05-18T12:19:19Z</time>
      </trkpt>
      <trkpt lat="41.8753220" lon="-8.8389260">
        <ele>7.8</ele>
        <time>2021-05-18T12:19:20Z</time>
      </trkpt>
      <trkpt lat="41.8753200" lon="-8.8389240">
        <ele>7.8</ele>
        <time>2021-05-18T12:19:21Z</time>
      </trkpt>
      <trkpt lat="41.8753210" lon="-8.8389170">
        <ele>7.8</ele>
        <time>2021-05-18T12:19:22Z</time>
      </trkpt>
      <trkpt lat="41.8753250" lon="-8.8389200">
        <ele>7.8</ele>
        <time>2021-05-18T12:19:23Z</time>
      </trkpt>
      <trkpt lat="41.8753250" lon="-8.8389200">
        <ele>7.8</ele>
        <time>2021-05-18T12:19:24Z</time>
      </trkpt>
      <trkpt lat="41.8753250" lon="-8.8389200">
        <ele>7.8</ele>
        <time>2021-05-18T12:19:25Z</time>
      </trkpt>
      <trkpt lat="41.8753340" lon="-8.8389220">
        <ele>7.8</ele>
        <time>2021-05-18T12:19:26Z</time>
      </trkpt>
      <trkpt lat="41.8753300" lon="-8.8389130">
        <ele>7.8</ele>
        <time>2021-05-18T12:19:27Z</time>
      </trkpt>
      <trkpt lat="41.8753330" lon="-8.8389200">
        <ele>7.8</ele>
        <time>2021-05-18T12:19:28Z</time>
      </trkpt>
      <trkpt lat="41.8753330" lon="-8.8389200">
        <ele>7.8</ele>
        <time>2021-05-18T12:19:29Z</time>
      </trkpt>
      <trkpt lat="41.8753330" lon="-8.8389200">
        <ele>7.8</ele>
        <time>2021-05-18T12:19:30Z</time>
      </trkpt>
      <trkpt lat="41.8753320" lon="-8.8389140">
        <ele>7.8</ele>
        <time>2021-05-18T12:19:31Z</time>
      </trkpt>
      <trkpt lat="41.8753310" lon="-8.8389090">
        <ele>7.8</ele>
        <time>2021-05-18T12:19:32Z</time>
      </trkpt>
      <trkpt lat="41.8753240" lon="-8.8389050">
        <ele>7.8</ele>
        <time>2021-05-18T12:19:33Z</time>
      </trkpt>
      <trkpt lat="41.8753280" lon="-8.8389010">
        <ele>7.8</ele>
        <time>2021-05-18T12:19:34Z</time>
      </trkpt>
      <trkpt lat="41.8753280" lon="-8.8389070">
        <ele>7.8</ele>
        <time>2021-05-18T12:19:35Z</time>
      </trkpt>
      <trkpt lat="41.8753280" lon="-8.8389030">
        <ele>7.8</ele>
        <time>2021-05-18T12:19:36Z</time>
      </trkpt>
      <trkpt lat="41.8753280" lon="-8.8389060">
        <ele>7.8</ele>
        <time>2021-05-18T12:19:37Z</time>
      </trkpt>
      <trkpt lat="41.8753250" lon="-8.8389170">
        <ele>7.8</ele>
        <time>2021-05-18T12:19:38Z</time>
      </trkpt>
      <trkpt lat="41.8753250" lon="-8.8389290">
        <ele>7.8</ele>
        <time>2021-05-18T12:19:39Z</time>
      </trkpt>
      <trkpt lat="41.8753260" lon="-8.8389310">
        <ele>7.8</ele>
        <time>2021-05-18T12:19:40Z</time>
      </trkpt>
      <trkpt lat="41.8753250" lon="-8.8389320">
        <ele>7.8</ele>
        <time>2021-05-18T12:19:41Z</time>
      </trkpt>
      <trkpt lat="41.8753250" lon="-8.8389320">
        <ele>7.8</ele>
        <time>2021-05-18T12:19:42Z</time>
      </trkpt>
      <trkpt lat="41.8753260" lon="-8.8389370">
        <ele>7.8</ele>
        <time>2021-05-18T12:19:43Z</time>
      </trkpt>
      <trkpt lat="41.8753280" lon="-8.8389380">
        <ele>7.8</ele>
        <time>2021-05-18T12:19:44Z</time>
      </trkpt>
      <trkpt lat="41.8753300" lon="-8.8389370">
        <ele>7.8</ele>
        <time>2021-05-18T12:19:45Z</time>
      </trkpt>
      <trkpt lat="41.8753300" lon="-8.8389400">
        <ele>7.8</ele>
        <time>2021-05-18T12:19:46Z</time>
      </trkpt>
      <trkpt lat="41.8753290" lon="-8.8389410">
        <ele>7.8</ele>
        <time>2021-05-18T12:19:47Z</time>
      </trkpt>
      <trkpt lat="41.8753290" lon="-8.8389410">
        <ele>7.8</ele>
        <time>2021-05-18T12:19:48Z</time>
      </trkpt>
      <trkpt lat="41.8753290" lon="-8.8389410">
        <ele>7.8</ele>
        <time>2021-05-18T12:19:49Z</time>
      </trkpt>
      <trkpt lat="41.8753260" lon="-8.8389390">
        <ele>7.8</ele>
        <time>2021-05-18T12:19:50Z</time>
      </trkpt>
      <trkpt lat="41.8753250" lon="-8.8389400">
        <ele>7.8</ele>
        <time>2021-05-18T12:19:51Z</time>
      </trkpt>
      <trkpt lat="41.8753260" lon="-8.8389400">
        <ele>7.8</ele>
        <time>2021-05-18T12:19:52Z</time>
      </trkpt>
      <trkpt lat="41.8753250" lon="-8.8389400">
        <ele>7.8</ele>
        <time>2021-05-18T12:19:53Z</time>
      </trkpt>
      <trkpt lat="41.8753250" lon="-8.8389380">
        <ele>7.8</ele>
        <time>2021-05-18T12:19:54Z</time>
      </trkpt>
      <trkpt lat="41.8753250" lon="-8.8389370">
        <ele>7.8</ele>
        <time>2021-05-18T12:19:55Z</time>
      </trkpt>
      <trkpt lat="41.8753240" lon="-8.8389320">
        <ele>7.8</ele>
        <time>2021-05-18T12:19:56Z</time>
      </trkpt>
      <trkpt lat="41.8753240" lon="-8.8389290">
        <ele>7.8</ele>
        <time>2021-05-18T12:19:57Z</time>
      </trkpt>
      <trkpt lat="41.8753250" lon="-8.8389260">
        <ele>7.8</ele>
        <time>2021-05-18T12:19:58Z</time>
      </trkpt>
      <trkpt lat="41.8753230" lon="-8.8389260">
        <ele>7.8</ele>
        <time>2021-05-18T12:19:59Z</time>
      </trkpt>
      <trkpt lat="41.8753220" lon="-8.8389280">
        <ele>7.8</ele>
        <time>2021-05-18T12:20:00Z</time>
      </trkpt>
      <trkpt lat="41.8753220" lon="-8.8389210">
        <ele>7.8</ele>
        <time>2021-05-18T12:20:01Z</time>
      </trkpt>
      <trkpt lat="41.8753220" lon="-8.8389290">
        <ele>7.8</ele>
        <time>2021-05-18T12:20:02Z</time>
      </trkpt>
      <trkpt lat="41.8753240" lon="-8.8389310">
        <ele>7.8</ele>
        <time>2021-05-18T12:20:03Z</time>
      </trkpt>
      <trkpt lat="41.8753240" lon="-8.8389310">
        <ele>7.8</ele>
        <time>2021-05-18T12:20:04Z</time>
      </trkpt>
      <trkpt lat="41.8753240" lon="-8.8389310">
        <ele>7.8</ele>
        <time>2021-05-18T12:20:05Z</time>
      </trkpt>
      <trkpt lat="41.8753240" lon="-8.8389310">
        <ele>7.8</ele>
        <time>2021-05-18T12:20:06Z</time>
      </trkpt>
      <trkpt lat="41.8753240" lon="-8.8389310">
        <ele>7.8</ele>
        <time>2021-05-18T12:20:07Z</time>
      </trkpt>
      <trkpt lat="41.8753210" lon="-8.8389360">
        <ele>7.8</ele>
        <time>2021-05-18T12:20:08Z</time>
      </trkpt>
      <trkpt lat="41.8753210" lon="-8.8389360">
        <ele>7.8</ele>
        <time>2021-05-18T12:20:09Z</time>
      </trkpt>
      <trkpt lat="41.8753240" lon="-8.8389220">
        <ele>7.8</ele>
        <time>2021-05-18T12:20:10Z</time>
      </trkpt>
      <trkpt lat="41.8753230" lon="-8.8389160">
        <ele>7.9</ele>
        <time>2021-05-18T12:20:11Z</time>
      </trkpt>
      <trkpt lat="41.8753240" lon="-8.8389220">
        <ele>7.9</ele>
        <time>2021-05-18T12:20:12Z</time>
      </trkpt>
      <trkpt lat="41.8753250" lon="-8.8389220">
        <ele>7.9</ele>
        <time>2021-05-18T12:20:13Z</time>
      </trkpt>
      <trkpt lat="41.8753230" lon="-8.8389300">
        <ele>7.9</ele>
        <time>2021-05-18T12:20:14Z</time>
      </trkpt>
      <trkpt lat="41.8753220" lon="-8.8389320">
        <ele>7.9</ele>
        <time>2021-05-18T12:20:15Z</time>
      </trkpt>
      <trkpt lat="41.8753240" lon="-8.8389230">
        <ele>7.9</ele>
        <time>2021-05-18T12:20:16Z</time>
      </trkpt>
      <trkpt lat="41.8753260" lon="-8.8389200">
        <ele>7.9</ele>
        <time>2021-05-18T12:20:17Z</time>
      </trkpt>
      <trkpt lat="41.8753260" lon="-8.8389170">
        <ele>7.9</ele>
        <time>2021-05-18T12:20:18Z</time>
      </trkpt>
      <trkpt lat="41.8753260" lon="-8.8389210">
        <ele>7.9</ele>
        <time>2021-05-18T12:20:19Z</time>
      </trkpt>
      <trkpt lat="41.8753260" lon="-8.8389250">
        <ele>7.9</ele>
        <time>2021-05-18T12:20:20Z</time>
      </trkpt>
      <trkpt lat="41.8753260" lon="-8.8389260">
        <ele>7.9</ele>
        <time>2021-05-18T12:20:21Z</time>
      </trkpt>
      <trkpt lat="41.8753240" lon="-8.8389270">
        <ele>7.9</ele>
        <time>2021-05-18T12:20:22Z</time>
      </trkpt>
      <trkpt lat="41.8753320" lon="-8.8389300">
        <ele>7.9</ele>
        <time>2021-05-18T12:20:23Z</time>
      </trkpt>
      <trkpt lat="41.8753310" lon="-8.8389460">
        <ele>7.9</ele>
        <time>2021-05-18T12:20:24Z</time>
      </trkpt>
      <trkpt lat="41.8753290" lon="-8.8389480">
        <ele>7.9</ele>
        <time>2021-05-18T12:20:25Z</time>
      </trkpt>
      <trkpt lat="41.8753270" lon="-8.8389380">
        <ele>7.9</ele>
        <time>2021-05-18T12:20:26Z</time>
      </trkpt>
      <trkpt lat="41.8753270" lon="-8.8389380">
        <ele>7.9</ele>
        <time>2021-05-18T12:20:27Z</time>
      </trkpt>
      <trkpt lat="41.8753250" lon="-8.8389320">
        <ele>7.9</ele>
        <time>2021-05-18T12:20:28Z</time>
      </trkpt>
      <trkpt lat="41.8753260" lon="-8.8389320">
        <ele>7.9</ele>
        <time>2021-05-18T12:20:29Z</time>
      </trkpt>
      <trkpt lat="41.8753270" lon="-8.8389390">
        <ele>7.9</ele>
        <time>2021-05-18T12:20:30Z</time>
      </trkpt>
      <trkpt lat="41.8753330" lon="-8.8389390">
        <ele>7.9</ele>
        <time>2021-05-18T12:20:31Z</time>
      </trkpt>
      <trkpt lat="41.8753340" lon="-8.8389330">
        <ele>7.9</ele>
        <time>2021-05-18T12:20:32Z</time>
      </trkpt>
      <trkpt lat="41.8753300" lon="-8.8389370">
        <ele>7.9</ele>
        <time>2021-05-18T12:20:33Z</time>
      </trkpt>
      <trkpt lat="41.8753340" lon="-8.8389420">
        <ele>7.9</ele>
        <time>2021-05-18T12:20:34Z</time>
      </trkpt>
      <trkpt lat="41.8753300" lon="-8.8389410">
        <ele>7.9</ele>
        <time>2021-05-18T12:20:35Z</time>
      </trkpt>
      <trkpt lat="41.8753280" lon="-8.8389380">
        <ele>7.9</ele>
        <time>2021-05-18T12:20:36Z</time>
      </trkpt>
      <trkpt lat="41.8753220" lon="-8.8389350">
        <ele>7.9</ele>
        <time>2021-05-18T12:20:37Z</time>
      </trkpt>
      <trkpt lat="41.8753220" lon="-8.8389350">
        <ele>7.9</ele>
        <time>2021-05-18T12:20:38Z</time>
      </trkpt>
      <trkpt lat="41.8753230" lon="-8.8389340">
        <ele>7.9</ele>
        <time>2021-05-18T12:20:39Z</time>
      </trkpt>
      <trkpt lat="41.8753240" lon="-8.8389360">
        <ele>7.9</ele>
        <time>2021-05-18T12:20:40Z</time>
      </trkpt>
      <trkpt lat="41.8753240" lon="-8.8389360">
        <ele>7.9</ele>
        <time>2021-05-18T12:20:41Z</time>
      </trkpt>
      <trkpt lat="41.8753210" lon="-8.8389390">
        <ele>7.9</ele>
        <time>2021-05-18T12:20:42Z</time>
      </trkpt>
      <trkpt lat="41.8753240" lon="-8.8389440">
        <ele>7.9</ele>
        <time>2021-05-18T12:20:43Z</time>
      </trkpt>
      <trkpt lat="41.8753260" lon="-8.8389440">
        <ele>7.9</ele>
        <time>2021-05-18T12:20:44Z</time>
      </trkpt>
      <trkpt lat="41.8753220" lon="-8.8389510">
        <ele>7.9</ele>
        <time>2021-05-18T12:20:45Z</time>
      </trkpt>
      <trkpt lat="41.8753250" lon="-8.8389470">
        <ele>7.9</ele>
        <time>2021-05-18T12:20:46Z</time>
      </trkpt>
      <trkpt lat="41.8753250" lon="-8.8389460">
        <ele>7.9</ele>
        <time>2021-05-18T12:20:48Z</time>
      </trkpt>
      <trkpt lat="41.8753230" lon="-8.8389520">
        <ele>7.9</ele>
        <time>2021-05-18T12:20:49Z</time>
      </trkpt>
      <trkpt lat="41.8753200" lon="-8.8389580">
        <ele>7.9</ele>
        <time>2021-05-18T12:20:50Z</time>
      </trkpt>
      <trkpt lat="41.8753180" lon="-8.8389670">
        <ele>7.9</ele>
        <time>2021-05-18T12:20:51Z</time>
      </trkpt>
      <trkpt lat="41.8753170" lon="-8.8389630">
        <ele>7.9</ele>
        <time>2021-05-18T12:20:52Z</time>
      </trkpt>
      <trkpt lat="41.8753100" lon="-8.8389600">
        <ele>7.9</ele>
        <time>2021-05-18T12:20:53Z</time>
      </trkpt>
      <trkpt lat="41.8753070" lon="-8.8389600">
        <ele>7.9</ele>
        <time>2021-05-18T12:20:54Z</time>
      </trkpt>
      <trkpt lat="41.8753040" lon="-8.8389490">
        <ele>7.9</ele>
        <time>2021-05-18T12:20:55Z</time>
      </trkpt>
      <trkpt lat="41.8753040" lon="-8.8389430">
        <ele>7.9</ele>
        <time>2021-05-18T12:20:56Z</time>
      </trkpt>
      <trkpt lat="41.8753090" lon="-8.8389390">
        <ele>7.9</ele>
        <time>2021-05-18T12:20:57Z</time>
      </trkpt>
      <trkpt lat="41.8753100" lon="-8.8389440">
        <ele>7.9</ele>
        <time>2021-05-18T12:20:58Z</time>
      </trkpt>
      <trkpt lat="41.8753090" lon="-8.8389480">
        <ele>7.9</ele>
        <time>2021-05-18T12:20:59Z</time>
      </trkpt>
      <trkpt lat="41.8753090" lon="-8.8389480">
        <ele>7.9</ele>
        <time>2021-05-18T12:21:00Z</time>
      </trkpt>
      <trkpt lat="41.8753090" lon="-8.8389480">
        <ele>7.9</ele>
        <time>2021-05-18T12:21:01Z</time>
      </trkpt>
      <trkpt lat="41.8753080" lon="-8.8389420">
        <ele>7.9</ele>
        <time>2021-05-18T12:21:02Z</time>
      </trkpt>
      <trkpt lat="41.8753070" lon="-8.8389340">
        <ele>7.9</ele>
        <time>2021-05-18T12:21:03Z</time>
      </trkpt>
      <trkpt lat="41.8753060" lon="-8.8389330">
        <ele>7.9</ele>
        <time>2021-05-18T12:21:04Z</time>
      </trkpt>
      <trkpt lat="41.8753060" lon="-8.8389340">
        <ele>7.9</ele>
        <time>2021-05-18T12:21:05Z</time>
      </trkpt>
      <trkpt lat="41.8753080" lon="-8.8389320">
        <ele>7.9</ele>
        <time>2021-05-18T12:21:06Z</time>
      </trkpt>
      <trkpt lat="41.8753080" lon="-8.8389320">
        <ele>7.9</ele>
        <time>2021-05-18T12:21:07Z</time>
      </trkpt>
      <trkpt lat="41.8753080" lon="-8.8389320">
        <ele>7.9</ele>
        <time>2021-05-18T12:21:08Z</time>
      </trkpt>
      <trkpt lat="41.8753050" lon="-8.8389260">
        <ele>7.9</ele>
        <time>2021-05-18T12:21:09Z</time>
      </trkpt>
      <trkpt lat="41.8753050" lon="-8.8389260">
        <ele>7.9</ele>
        <time>2021-05-18T12:21:10Z</time>
      </trkpt>
      <trkpt lat="41.8753050" lon="-8.8389260">
        <ele>7.9</ele>
        <time>2021-05-18T12:21:11Z</time>
      </trkpt>
      <trkpt lat="41.8753050" lon="-8.8389260">
        <ele>7.9</ele>
        <time>2021-05-18T12:21:12Z</time>
      </trkpt>
      <trkpt lat="41.8753060" lon="-8.8389270">
        <ele>7.9</ele>
        <time>2021-05-18T12:21:13Z</time>
      </trkpt>
      <trkpt lat="41.8753060" lon="-8.8389270">
        <ele>7.9</ele>
        <time>2021-05-18T12:21:14Z</time>
      </trkpt>
      <trkpt lat="41.8753060" lon="-8.8389270">
        <ele>7.9</ele>
        <time>2021-05-18T12:21:15Z</time>
      </trkpt>
      <trkpt lat="41.8753060" lon="-8.8389270">
        <ele>7.9</ele>
        <time>2021-05-18T12:21:16Z</time>
      </trkpt>
      <trkpt lat="41.8753060" lon="-8.8389270">
        <ele>7.9</ele>
        <time>2021-05-18T12:21:17Z</time>
      </trkpt>
      <trkpt lat="41.8753060" lon="-8.8389270">
        <ele>7.9</ele>
        <time>2021-05-18T12:21:18Z</time>
      </trkpt>
      <trkpt lat="41.8753030" lon="-8.8389310">
        <ele>7.9</ele>
        <time>2021-05-18T12:21:19Z</time>
      </trkpt>
      <trkpt lat="41.8753030" lon="-8.8389310">
        <ele>7.9</ele>
        <time>2021-05-18T12:21:20Z</time>
      </trkpt>
      <trkpt lat="41.8753020" lon="-8.8389310">
        <ele>7.9</ele>
        <time>2021-05-18T12:21:21Z</time>
      </trkpt>
      <trkpt lat="41.8753020" lon="-8.8389310">
        <ele>7.9</ele>
        <time>2021-05-18T12:21:22Z</time>
      </trkpt>
      <trkpt lat="41.8753000" lon="-8.8389370">
        <ele>7.9</ele>
        <time>2021-05-18T12:21:23Z</time>
      </trkpt>
      <trkpt lat="41.8753000" lon="-8.8389340">
        <ele>7.9</ele>
        <time>2021-05-18T12:21:24Z</time>
      </trkpt>
      <trkpt lat="41.8752980" lon="-8.8389290">
        <ele>7.9</ele>
        <time>2021-05-18T12:21:25Z</time>
      </trkpt>
      <trkpt lat="41.8753010" lon="-8.8389160">
        <ele>7.9</ele>
        <time>2021-05-18T12:21:26Z</time>
      </trkpt>
      <trkpt lat="41.8753010" lon="-8.8388990">
        <ele>7.9</ele>
        <time>2021-05-18T12:21:27Z</time>
      </trkpt>
      <trkpt lat="41.8753050" lon="-8.8388940">
        <ele>7.9</ele>
        <time>2021-05-18T12:21:28Z</time>
      </trkpt>
      <trkpt lat="41.8753040" lon="-8.8388980">
        <ele>7.9</ele>
        <time>2021-05-18T12:21:29Z</time>
      </trkpt>
      <trkpt lat="41.8753040" lon="-8.8388980">
        <ele>7.9</ele>
        <time>2021-05-18T12:21:30Z</time>
      </trkpt>
      <trkpt lat="41.8753060" lon="-8.8389090">
        <ele>7.9</ele>
        <time>2021-05-18T12:21:31Z</time>
      </trkpt>
      <trkpt lat="41.8753050" lon="-8.8389170">
        <ele>7.9</ele>
        <time>2021-05-18T12:21:32Z</time>
      </trkpt>
      <trkpt lat="41.8753080" lon="-8.8389220">
        <ele>7.9</ele>
        <time>2021-05-18T12:21:33Z</time>
      </trkpt>
      <trkpt lat="41.8753090" lon="-8.8389170">
        <ele>7.9</ele>
        <time>2021-05-18T12:21:34Z</time>
      </trkpt>
      <trkpt lat="41.8753110" lon="-8.8389200">
        <ele>7.9</ele>
        <time>2021-05-18T12:21:35Z</time>
      </trkpt>
      <trkpt lat="41.8753120" lon="-8.8389300">
        <ele>7.9</ele>
        <time>2021-05-18T12:21:36Z</time>
      </trkpt>
      <trkpt lat="41.8753120" lon="-8.8389300">
        <ele>7.9</ele>
        <time>2021-05-18T12:21:37Z</time>
      </trkpt>
      <trkpt lat="41.8753140" lon="-8.8389300">
        <ele>7.9</ele>
        <time>2021-05-18T12:21:38Z</time>
      </trkpt>
      <trkpt lat="41.8753140" lon="-8.8389310">
        <ele>7.9</ele>
        <time>2021-05-18T12:21:39Z</time>
      </trkpt>
      <trkpt lat="41.8753140" lon="-8.8389310">
        <ele>7.9</ele>
        <time>2021-05-18T12:21:40Z</time>
      </trkpt>
      <trkpt lat="41.8753140" lon="-8.8389310">
        <ele>7.9</ele>
        <time>2021-05-18T12:21:41Z</time>
      </trkpt>
      <trkpt lat="41.8753140" lon="-8.8389310">
        <ele>7.9</ele>
        <time>2021-05-18T12:21:42Z</time>
      </trkpt>
      <trkpt lat="41.8753140" lon="-8.8389310">
        <ele>7.9</ele>
        <time>2021-05-18T12:21:43Z</time>
      </trkpt>
      <trkpt lat="41.8753140" lon="-8.8389310">
        <ele>7.9</ele>
        <time>2021-05-18T12:21:44Z</time>
      </trkpt>
      <trkpt lat="41.8753160" lon="-8.8389430">
        <ele>7.9</ele>
        <time>2021-05-18T12:21:45Z</time>
      </trkpt>
      <trkpt lat="41.8753150" lon="-8.8389410">
        <ele>7.9</ele>
        <time>2021-05-18T12:21:46Z</time>
      </trkpt>
      <trkpt lat="41.8753180" lon="-8.8389490">
        <ele>7.9</ele>
        <time>2021-05-18T12:21:47Z</time>
      </trkpt>
      <trkpt lat="41.8753170" lon="-8.8389490">
        <ele>7.9</ele>
        <time>2021-05-18T12:21:48Z</time>
      </trkpt>
      <trkpt lat="41.8753170" lon="-8.8389490">
        <ele>7.9</ele>
        <time>2021-05-18T12:21:49Z</time>
      </trkpt>
      <trkpt lat="41.8753170" lon="-8.8389490">
        <ele>7.9</ele>
        <time>2021-05-18T12:21:50Z</time>
      </trkpt>
      <trkpt lat="41.8753230" lon="-8.8389520">
        <ele>7.9</ele>
        <time>2021-05-18T12:21:51Z</time>
      </trkpt>
      <trkpt lat="41.8753220" lon="-8.8389470">
        <ele>7.9</ele>
        <time>2021-05-18T12:21:52Z</time>
      </trkpt>
      <trkpt lat="41.8753220" lon="-8.8389460">
        <ele>7.9</ele>
        <time>2021-05-18T12:21:53Z</time>
      </trkpt>
      <trkpt lat="41.8753200" lon="-8.8389420">
        <ele>7.9</ele>
        <time>2021-05-18T12:21:54Z</time>
      </trkpt>
      <trkpt lat="41.8753210" lon="-8.8389400">
        <ele>7.9</ele>
        <time>2021-05-18T12:21:55Z</time>
      </trkpt>
      <trkpt lat="41.8753280" lon="-8.8389280">
        <ele>7.9</ele>
        <time>2021-05-18T12:21:56Z</time>
      </trkpt>
      <trkpt lat="41.8753290" lon="-8.8389250">
        <ele>7.9</ele>
        <time>2021-05-18T12:21:57Z</time>
      </trkpt>
      <trkpt lat="41.8753260" lon="-8.8389340">
        <ele>7.9</ele>
        <time>2021-05-18T12:21:58Z</time>
      </trkpt>
      <trkpt lat="41.8753200" lon="-8.8389300">
        <ele>7.9</ele>
        <time>2021-05-18T12:21:59Z</time>
      </trkpt>
      <trkpt lat="41.8753190" lon="-8.8389250">
        <ele>7.9</ele>
        <time>2021-05-18T12:22:00Z</time>
      </trkpt>
      <trkpt lat="41.8753200" lon="-8.8389270">
        <ele>7.9</ele>
        <time>2021-05-18T12:22:01Z</time>
      </trkpt>
      <trkpt lat="41.8753190" lon="-8.8389260">
        <ele>7.9</ele>
        <time>2021-05-18T12:22:02Z</time>
      </trkpt>
      <trkpt lat="41.8753180" lon="-8.8389350">
        <ele>7.9</ele>
        <time>2021-05-18T12:22:03Z</time>
      </trkpt>
      <trkpt lat="41.8753180" lon="-8.8389350">
        <ele>7.9</ele>
        <time>2021-05-18T12:22:04Z</time>
      </trkpt>
      <trkpt lat="41.8753180" lon="-8.8389350">
        <ele>7.9</ele>
        <time>2021-05-18T12:22:05Z</time>
      </trkpt>
      <trkpt lat="41.8753180" lon="-8.8389410">
        <ele>7.9</ele>
        <time>2021-05-18T12:22:06Z</time>
      </trkpt>
      <trkpt lat="41.8753170" lon="-8.8389590">
        <ele>7.9</ele>
        <time>2021-05-18T12:22:07Z</time>
      </trkpt>
      <trkpt lat="41.8753160" lon="-8.8389600">
        <ele>7.9</ele>
        <time>2021-05-18T12:22:08Z</time>
      </trkpt>
      <trkpt lat="41.8753190" lon="-8.8389570">
        <ele>7.9</ele>
        <time>2021-05-18T12:22:09Z</time>
      </trkpt>
      <trkpt lat="41.8753170" lon="-8.8389550">
        <ele>7.9</ele>
        <time>2021-05-18T12:22:10Z</time>
      </trkpt>
      <trkpt lat="41.8753160" lon="-8.8389470">
        <ele>7.9</ele>
        <time>2021-05-18T12:22:11Z</time>
      </trkpt>
      <trkpt lat="41.8753180" lon="-8.8389430">
        <ele>7.9</ele>
        <time>2021-05-18T12:22:12Z</time>
      </trkpt>
      <trkpt lat="41.8753180" lon="-8.8389420">
        <ele>7.9</ele>
        <time>2021-05-18T12:22:13Z</time>
      </trkpt>
      <trkpt lat="41.8753170" lon="-8.8389430">
        <ele>7.9</ele>
        <time>2021-05-18T12:22:14Z</time>
      </trkpt>
      <trkpt lat="41.8753200" lon="-8.8389490">
        <ele>7.9</ele>
        <time>2021-05-18T12:22:15Z</time>
      </trkpt>
      <trkpt lat="41.8753220" lon="-8.8389590">
        <ele>7.9</ele>
        <time>2021-05-18T12:22:16Z</time>
      </trkpt>
      <trkpt lat="41.8753240" lon="-8.8389680">
        <ele>7.9</ele>
        <time>2021-05-18T12:22:17Z</time>
      </trkpt>
      <trkpt lat="41.8753240" lon="-8.8389680">
        <ele>7.9</ele>
        <time>2021-05-18T12:22:18Z</time>
      </trkpt>
      <trkpt lat="41.8753240" lon="-8.8389680">
        <ele>7.9</ele>
        <time>2021-05-18T12:22:19Z</time>
      </trkpt>
      <trkpt lat="41.8753240" lon="-8.8389680">
        <ele>7.9</ele>
        <time>2021-05-18T12:22:20Z</time>
      </trkpt>
      <trkpt lat="41.8753240" lon="-8.8389680">
        <ele>7.9</ele>
        <time>2021-05-18T12:22:21Z</time>
      </trkpt>
      <trkpt lat="41.8753240" lon="-8.8389680">
        <ele>7.9</ele>
        <time>2021-05-18T12:22:22Z</time>
      </trkpt>
      <trkpt lat="41.8753240" lon="-8.8389680">
        <ele>7.9</ele>
        <time>2021-05-18T12:22:23Z</time>
      </trkpt>
      <trkpt lat="41.8753240" lon="-8.8389680">
        <ele>7.9</ele>
        <time>2021-05-18T12:22:24Z</time>
      </trkpt>
      <trkpt lat="41.8753240" lon="-8.8389680">
        <ele>7.9</ele>
        <time>2021-05-18T12:22:25Z</time>
      </trkpt>
      <trkpt lat="41.8753240" lon="-8.8389680">
        <ele>7.9</ele>
        <time>2021-05-18T12:22:26Z</time>
      </trkpt>
      <trkpt lat="41.8753240" lon="-8.8389680">
        <ele>7.9</ele>
        <time>2021-05-18T12:22:27Z</time>
      </trkpt>
      <trkpt lat="41.8753240" lon="-8.8389680">
        <ele>7.9</ele>
        <time>2021-05-18T12:22:28Z</time>
      </trkpt>
      <trkpt lat="41.8753250" lon="-8.8389820">
        <ele>7.9</ele>
        <time>2021-05-18T12:22:29Z</time>
      </trkpt>
      <trkpt lat="41.8753270" lon="-8.8389800">
        <ele>7.9</ele>
        <time>2021-05-18T12:22:30Z</time>
      </trkpt>
      <trkpt lat="41.8753260" lon="-8.8389770">
        <ele>7.9</ele>
        <time>2021-05-18T12:22:31Z</time>
      </trkpt>
      <trkpt lat="41.8753260" lon="-8.8389780">
        <ele>7.9</ele>
        <time>2021-05-18T12:22:32Z</time>
      </trkpt>
      <trkpt lat="41.8753260" lon="-8.8389780">
        <ele>7.9</ele>
        <time>2021-05-18T12:22:33Z</time>
      </trkpt>
      <trkpt lat="41.8753260" lon="-8.8389780">
        <ele>7.9</ele>
        <time>2021-05-18T12:22:34Z</time>
      </trkpt>
      <trkpt lat="41.8753260" lon="-8.8389780">
        <ele>7.9</ele>
        <time>2021-05-18T12:22:35Z</time>
      </trkpt>
      <trkpt lat="41.8753260" lon="-8.8389780">
        <ele>7.9</ele>
        <time>2021-05-18T12:22:36Z</time>
      </trkpt>
      <trkpt lat="41.8753260" lon="-8.8389780">
        <ele>7.9</ele>
        <time>2021-05-18T12:22:37Z</time>
      </trkpt>
      <trkpt lat="41.8753260" lon="-8.8389780">
        <ele>7.9</ele>
        <time>2021-05-18T12:22:38Z</time>
      </trkpt>
      <trkpt lat="41.8753260" lon="-8.8389780">
        <ele>7.9</ele>
        <time>2021-05-18T12:22:39Z</time>
      </trkpt>
      <trkpt lat="41.8753260" lon="-8.8389780">
        <ele>7.9</ele>
        <time>2021-05-18T12:22:40Z</time>
      </trkpt>
      <trkpt lat="41.8753260" lon="-8.8389780">
        <ele>7.9</ele>
        <time>2021-05-18T12:22:42Z</time>
      </trkpt>
      <trkpt lat="41.8753260" lon="-8.8389780">
        <ele>7.9</ele>
        <time>2021-05-18T12:22:43Z</time>
      </trkpt>
      <trkpt lat="41.8753260" lon="-8.8389780">
        <ele>7.9</ele>
        <time>2021-05-18T12:22:44Z</time>
      </trkpt>
      <trkpt lat="41.8753260" lon="-8.8389780">
        <ele>7.9</ele>
        <time>2021-05-18T12:22:45Z</time>
      </trkpt>
      <trkpt lat="41.8753230" lon="-8.8389830">
        <ele>7.9</ele>
        <time>2021-05-18T12:22:46Z</time>
      </trkpt>
      <trkpt lat="41.8753220" lon="-8.8389840">
        <ele>7.9</ele>
        <time>2021-05-18T12:22:47Z</time>
      </trkpt>
      <trkpt lat="41.8753220" lon="-8.8389820">
        <ele>7.9</ele>
        <time>2021-05-18T12:22:48Z</time>
      </trkpt>
      <trkpt lat="41.8753240" lon="-8.8389800">
        <ele>7.9</ele>
        <time>2021-05-18T12:22:49Z</time>
      </trkpt>
      <trkpt lat="41.8753230" lon="-8.8389820">
        <ele>7.9</ele>
        <time>2021-05-18T12:22:50Z</time>
      </trkpt>
      <trkpt lat="41.8753230" lon="-8.8389820">
        <ele>7.9</ele>
        <time>2021-05-18T12:22:51Z</time>
      </trkpt>
      <trkpt lat="41.8753200" lon="-8.8389780">
        <ele>7.9</ele>
        <time>2021-05-18T12:22:52Z</time>
      </trkpt>
      <trkpt lat="41.8753190" lon="-8.8389770">
        <ele>7.9</ele>
        <time>2021-05-18T12:22:53Z</time>
      </trkpt>
      <trkpt lat="41.8753200" lon="-8.8389720">
        <ele>7.9</ele>
        <time>2021-05-18T12:22:54Z</time>
      </trkpt>
      <trkpt lat="41.8753210" lon="-8.8389670">
        <ele>7.9</ele>
        <time>2021-05-18T12:22:55Z</time>
      </trkpt>
      <trkpt lat="41.8753260" lon="-8.8389640">
        <ele>7.9</ele>
        <time>2021-05-18T12:22:56Z</time>
      </trkpt>
      <trkpt lat="41.8753240" lon="-8.8389590">
        <ele>7.9</ele>
        <time>2021-05-18T12:22:57Z</time>
      </trkpt>
      <trkpt lat="41.8753240" lon="-8.8389590">
        <ele>7.9</ele>
        <time>2021-05-18T12:22:58Z</time>
      </trkpt>
      <trkpt lat="41.8753240" lon="-8.8389590">
        <ele>7.9</ele>
        <time>2021-05-18T12:22:59Z</time>
      </trkpt>
      <trkpt lat="41.8753240" lon="-8.8389590">
        <ele>7.9</ele>
        <time>2021-05-18T12:23:00Z</time>
      </trkpt>
      <trkpt lat="41.8753230" lon="-8.8389440">
        <ele>7.9</ele>
        <time>2021-05-18T12:23:01Z</time>
      </trkpt>
      <trkpt lat="41.8753230" lon="-8.8389440">
        <ele>7.9</ele>
        <time>2021-05-18T12:23:02Z</time>
      </trkpt>
      <trkpt lat="41.8753230" lon="-8.8389440">
        <ele>7.9</ele>
        <time>2021-05-18T12:23:03Z</time>
      </trkpt>
      <trkpt lat="41.8753230" lon="-8.8389440">
        <ele>7.9</ele>
        <time>2021-05-18T12:23:04Z</time>
      </trkpt>
      <trkpt lat="41.8753230" lon="-8.8389440">
        <ele>7.9</ele>
        <time>2021-05-18T12:23:05Z</time>
      </trkpt>
      <trkpt lat="41.8753230" lon="-8.8389440">
        <ele>7.9</ele>
        <time>2021-05-18T12:23:06Z</time>
      </trkpt>
      <trkpt lat="41.8753230" lon="-8.8389440">
        <ele>7.9</ele>
        <time>2021-05-18T12:23:07Z</time>
      </trkpt>
      <trkpt lat="41.8753230" lon="-8.8389440">
        <ele>7.9</ele>
        <time>2021-05-18T12:23:08Z</time>
      </trkpt>
      <trkpt lat="41.8753230" lon="-8.8389440">
        <ele>7.9</ele>
        <time>2021-05-18T12:23:09Z</time>
      </trkpt>
      <trkpt lat="41.8753230" lon="-8.8389440">
        <ele>7.9</ele>
        <time>2021-05-18T12:23:10Z</time>
      </trkpt>
      <trkpt lat="41.8753230" lon="-8.8389440">
        <ele>7.9</ele>
        <time>2021-05-18T12:23:11Z</time>
      </trkpt>
      <trkpt lat="41.8753140" lon="-8.8389290">
        <ele>7.9</ele>
        <time>2021-05-18T12:23:12Z</time>
      </trkpt>
      <trkpt lat="41.8753110" lon="-8.8389310">
        <ele>7.9</ele>
        <time>2021-05-18T12:23:13Z</time>
      </trkpt>
      <trkpt lat="41.8753110" lon="-8.8389300">
        <ele>7.9</ele>
        <time>2021-05-18T12:23:14Z</time>
      </trkpt>
      <trkpt lat="41.8753110" lon="-8.8389300">
        <ele>7.9</ele>
        <time>2021-05-18T12:23:15Z</time>
      </trkpt>
      <trkpt lat="41.8753110" lon="-8.8389300">
        <ele>7.9</ele>
        <time>2021-05-18T12:23:16Z</time>
      </trkpt>
      <trkpt lat="41.8753130" lon="-8.8389270">
        <ele>7.9</ele>
        <time>2021-05-18T12:23:17Z</time>
      </trkpt>
      <trkpt lat="41.8753130" lon="-8.8389270">
        <ele>7.9</ele>
        <time>2021-05-18T12:23:18Z</time>
      </trkpt>
      <trkpt lat="41.8753120" lon="-8.8389280">
        <ele>7.9</ele>
        <time>2021-05-18T12:23:19Z</time>
      </trkpt>
      <trkpt lat="41.8753120" lon="-8.8389280">
        <ele>7.9</ele>
        <time>2021-05-18T12:23:20Z</time>
      </trkpt>
      <trkpt lat="41.8753110" lon="-8.8389280">
        <ele>7.9</ele>
        <time>2021-05-18T12:23:21Z</time>
      </trkpt>
      <trkpt lat="41.8753060" lon="-8.8389320">
        <ele>7.9</ele>
        <time>2021-05-18T12:23:22Z</time>
      </trkpt>
      <trkpt lat="41.8753080" lon="-8.8389340">
        <ele>7.9</ele>
        <time>2021-05-18T12:23:23Z</time>
      </trkpt>
      <trkpt lat="41.8753080" lon="-8.8389340">
        <ele>7.9</ele>
        <time>2021-05-18T12:23:24Z</time>
      </trkpt>
      <trkpt lat="41.8753080" lon="-8.8389340">
        <ele>7.9</ele>
        <time>2021-05-18T12:23:25Z</time>
      </trkpt>
      <trkpt lat="41.8753050" lon="-8.8389300">
        <ele>7.9</ele>
        <time>2021-05-18T12:23:26Z</time>
      </trkpt>
      <trkpt lat="41.8753050" lon="-8.8389310">
        <ele>7.9</ele>
        <time>2021-05-18T12:23:27Z</time>
      </trkpt>
      <trkpt lat="41.8753050" lon="-8.8389310">
        <ele>7.9</ele>
        <time>2021-05-18T12:23:28Z</time>
      </trkpt>
      <trkpt lat="41.8753050" lon="-8.8389310">
        <ele>7.9</ele>
        <time>2021-05-18T12:23:29Z</time>
      </trkpt>
      <trkpt lat="41.8753050" lon="-8.8389310">
        <ele>7.9</ele>
        <time>2021-05-18T12:23:30Z</time>
      </trkpt>
      <trkpt lat="41.8753050" lon="-8.8389310">
        <ele>7.9</ele>
        <time>2021-05-18T12:23:31Z</time>
      </trkpt>
      <trkpt lat="41.8752990" lon="-8.8389250">
        <ele>7.9</ele>
        <time>2021-05-18T12:23:32Z</time>
      </trkpt>
      <trkpt lat="41.8752990" lon="-8.8389250">
        <ele>7.9</ele>
        <time>2021-05-18T12:23:33Z</time>
      </trkpt>
      <trkpt lat="41.8752990" lon="-8.8389250">
        <ele>7.9</ele>
        <time>2021-05-18T12:23:34Z</time>
      </trkpt>
      <trkpt lat="41.8753010" lon="-8.8389270">
        <ele>7.9</ele>
        <time>2021-05-18T12:23:35Z</time>
      </trkpt>
      <trkpt lat="41.8752980" lon="-8.8389300">
        <ele>7.9</ele>
        <time>2021-05-18T12:23:36Z</time>
      </trkpt>
      <trkpt lat="41.8752980" lon="-8.8389310">
        <ele>7.9</ele>
        <time>2021-05-18T12:23:37Z</time>
      </trkpt>
      <trkpt lat="41.8752950" lon="-8.8389360">
        <ele>7.9</ele>
        <time>2021-05-18T12:23:38Z</time>
      </trkpt>
      <trkpt lat="41.8752950" lon="-8.8389360">
        <ele>7.9</ele>
        <time>2021-05-18T12:23:39Z</time>
      </trkpt>
      <trkpt lat="41.8752950" lon="-8.8389360">
        <ele>7.9</ele>
        <time>2021-05-18T12:23:40Z</time>
      </trkpt>
      <trkpt lat="41.8752950" lon="-8.8389360">
        <ele>7.9</ele>
        <time>2021-05-18T12:23:41Z</time>
      </trkpt>
      <trkpt lat="41.8752950" lon="-8.8389360">
        <ele>7.9</ele>
        <time>2021-05-18T12:23:42Z</time>
      </trkpt>
      <trkpt lat="41.8752950" lon="-8.8389360">
        <ele>7.9</ele>
        <time>2021-05-18T12:23:43Z</time>
      </trkpt>
      <trkpt lat="41.8752950" lon="-8.8389360">
        <ele>7.9</ele>
        <time>2021-05-18T12:23:44Z</time>
      </trkpt>
      <trkpt lat="41.8752950" lon="-8.8389360">
        <ele>7.9</ele>
        <time>2021-05-18T12:23:45Z</time>
      </trkpt>
      <trkpt lat="41.8752950" lon="-8.8389360">
        <ele>7.9</ele>
        <time>2021-05-18T12:23:46Z</time>
      </trkpt>
      <trkpt lat="41.8752930" lon="-8.8389630">
        <ele>7.9</ele>
        <time>2021-05-18T12:23:47Z</time>
      </trkpt>
      <trkpt lat="41.8752930" lon="-8.8389650">
        <ele>7.9</ele>
        <time>2021-05-18T12:23:48Z</time>
      </trkpt>
      <trkpt lat="41.8752930" lon="-8.8389650">
        <ele>7.9</ele>
        <time>2021-05-18T12:23:49Z</time>
      </trkpt>
      <trkpt lat="41.8752930" lon="-8.8389650">
        <ele>7.9</ele>
        <time>2021-05-18T12:23:50Z</time>
      </trkpt>
      <trkpt lat="41.8752930" lon="-8.8389650">
        <ele>7.9</ele>
        <time>2021-05-18T12:23:51Z</time>
      </trkpt>
      <trkpt lat="41.8752930" lon="-8.8389650">
        <ele>7.9</ele>
        <time>2021-05-18T12:23:52Z</time>
      </trkpt>
      <trkpt lat="41.8752930" lon="-8.8389650">
        <ele>7.9</ele>
        <time>2021-05-18T12:23:53Z</time>
      </trkpt>
      <trkpt lat="41.8752930" lon="-8.8389650">
        <ele>7.9</ele>
        <time>2021-05-18T12:23:54Z</time>
      </trkpt>
      <trkpt lat="41.8752930" lon="-8.8389650">
        <ele>7.9</ele>
        <time>2021-05-18T12:23:55Z</time>
      </trkpt>
      <trkpt lat="41.8752930" lon="-8.8389650">
        <ele>7.9</ele>
        <time>2021-05-18T12:23:56Z</time>
      </trkpt>
      <trkpt lat="41.8752930" lon="-8.8389650">
        <ele>7.9</ele>
        <time>2021-05-18T12:23:57Z</time>
      </trkpt>
      <trkpt lat="41.8752930" lon="-8.8389650">
        <ele>7.9</ele>
        <time>2021-05-18T12:23:58Z</time>
      </trkpt>
      <trkpt lat="41.8752930" lon="-8.8389650">
        <ele>7.9</ele>
        <time>2021-05-18T12:23:59Z</time>
      </trkpt>
      <trkpt lat="41.8753040" lon="-8.8389760">
        <ele>7.9</ele>
        <time>2021-05-18T12:24:00Z</time>
      </trkpt>
      <trkpt lat="41.8753040" lon="-8.8389760">
        <ele>7.9</ele>
        <time>2021-05-18T12:24:01Z</time>
      </trkpt>
      <trkpt lat="41.8753030" lon="-8.8389740">
        <ele>7.9</ele>
        <time>2021-05-18T12:24:02Z</time>
      </trkpt>
      <trkpt lat="41.8753040" lon="-8.8389750">
        <ele>7.9</ele>
        <time>2021-05-18T12:24:03Z</time>
      </trkpt>
      <trkpt lat="41.8753040" lon="-8.8389750">
        <ele>7.9</ele>
        <time>2021-05-18T12:24:04Z</time>
      </trkpt>
      <trkpt lat="41.8753070" lon="-8.8389750">
        <ele>7.9</ele>
        <time>2021-05-18T12:24:05Z</time>
      </trkpt>
      <trkpt lat="41.8753070" lon="-8.8389750">
        <ele>7.9</ele>
        <time>2021-05-18T12:24:06Z</time>
      </trkpt>
      <trkpt lat="41.8753070" lon="-8.8389720">
        <ele>7.9</ele>
        <time>2021-05-18T12:24:07Z</time>
      </trkpt>
      <trkpt lat="41.8753080" lon="-8.8389650">
        <ele>7.9</ele>
        <time>2021-05-18T12:24:08Z</time>
      </trkpt>
      <trkpt lat="41.8753090" lon="-8.8389690">
        <ele>7.9</ele>
        <time>2021-05-18T12:24:09Z</time>
      </trkpt>
      <trkpt lat="41.8753090" lon="-8.8389760">
        <ele>7.9</ele>
        <time>2021-05-18T12:24:10Z</time>
      </trkpt>
      <trkpt lat="41.8753090" lon="-8.8389760">
        <ele>7.9</ele>
        <time>2021-05-18T12:24:11Z</time>
      </trkpt>
      <trkpt lat="41.8753090" lon="-8.8389760">
        <ele>7.9</ele>
        <time>2021-05-18T12:24:12Z</time>
      </trkpt>
      <trkpt lat="41.8753090" lon="-8.8389760">
        <ele>7.9</ele>
        <time>2021-05-18T12:24:13Z</time>
      </trkpt>
      <trkpt lat="41.8753090" lon="-8.8389760">
        <ele>7.9</ele>
        <time>2021-05-18T12:24:14Z</time>
      </trkpt>
      <trkpt lat="41.8753090" lon="-8.8389760">
        <ele>7.9</ele>
        <time>2021-05-18T12:24:15Z</time>
      </trkpt>
      <trkpt lat="41.8753090" lon="-8.8389760">
        <ele>7.9</ele>
        <time>2021-05-18T12:24:16Z</time>
      </trkpt>
      <trkpt lat="41.8753130" lon="-8.8389730">
        <ele>7.9</ele>
        <time>2021-05-18T12:24:17Z</time>
      </trkpt>
      <trkpt lat="41.8753120" lon="-8.8389740">
        <ele>7.9</ele>
        <time>2021-05-18T12:24:18Z</time>
      </trkpt>
      <trkpt lat="41.8753120" lon="-8.8389740">
        <ele>7.9</ele>
        <time>2021-05-18T12:24:19Z</time>
      </trkpt>
      <trkpt lat="41.8753160" lon="-8.8389690">
        <ele>7.9</ele>
        <time>2021-05-18T12:24:20Z</time>
      </trkpt>
      <trkpt lat="41.8753160" lon="-8.8389690">
        <ele>7.9</ele>
        <time>2021-05-18T12:24:21Z</time>
      </trkpt>
      <trkpt lat="41.8753160" lon="-8.8389690">
        <ele>7.9</ele>
        <time>2021-05-18T12:24:22Z</time>
      </trkpt>
      <trkpt lat="41.8753160" lon="-8.8389690">
        <ele>7.9</ele>
        <time>2021-05-18T12:24:23Z</time>
      </trkpt>
      <trkpt lat="41.8753180" lon="-8.8389560">
        <ele>7.9</ele>
        <time>2021-05-18T12:24:24Z</time>
      </trkpt>
      <trkpt lat="41.8753190" lon="-8.8389560">
        <ele>7.9</ele>
        <time>2021-05-18T12:24:25Z</time>
      </trkpt>
      <trkpt lat="41.8753190" lon="-8.8389520">
        <ele>7.9</ele>
        <time>2021-05-18T12:24:26Z</time>
      </trkpt>
      <trkpt lat="41.8753170" lon="-8.8389520">
        <ele>7.9</ele>
        <time>2021-05-18T12:24:27Z</time>
      </trkpt>
      <trkpt lat="41.8753160" lon="-8.8389570">
        <ele>7.9</ele>
        <time>2021-05-18T12:24:28Z</time>
      </trkpt>
      <trkpt lat="41.8753190" lon="-8.8389540">
        <ele>7.9</ele>
        <time>2021-05-18T12:24:29Z</time>
      </trkpt>
      <trkpt lat="41.8753190" lon="-8.8389530">
        <ele>7.9</ele>
        <time>2021-05-18T12:24:30Z</time>
      </trkpt>
      <trkpt lat="41.8753120" lon="-8.8389470">
        <ele>7.9</ele>
        <time>2021-05-18T12:24:31Z</time>
      </trkpt>
      <trkpt lat="41.8753120" lon="-8.8389380">
        <ele>7.9</ele>
        <time>2021-05-18T12:24:32Z</time>
      </trkpt>
      <trkpt lat="41.8753120" lon="-8.8389380">
        <ele>7.9</ele>
        <time>2021-05-18T12:24:33Z</time>
      </trkpt>
      <trkpt lat="41.8753120" lon="-8.8389380">
        <ele>7.9</ele>
        <time>2021-05-18T12:24:34Z</time>
      </trkpt>
      <trkpt lat="41.8753120" lon="-8.8389380">
        <ele>7.9</ele>
        <time>2021-05-18T12:24:35Z</time>
      </trkpt>
      <trkpt lat="41.8753120" lon="-8.8389380">
        <ele>7.9</ele>
        <time>2021-05-18T12:24:36Z</time>
      </trkpt>
      <trkpt lat="41.8753120" lon="-8.8389380">
        <ele>7.9</ele>
        <time>2021-05-18T12:24:37Z</time>
      </trkpt>
      <trkpt lat="41.8753120" lon="-8.8389380">
        <ele>7.9</ele>
        <time>2021-05-18T12:24:39Z</time>
      </trkpt>
      <trkpt lat="41.8753120" lon="-8.8389380">
        <ele>7.9</ele>
        <time>2021-05-18T12:24:40Z</time>
      </trkpt>
      <trkpt lat="41.8753120" lon="-8.8389380">
        <ele>7.9</ele>
        <time>2021-05-18T12:24:41Z</time>
      </trkpt>
      <trkpt lat="41.8753120" lon="-8.8389380">
        <ele>7.9</ele>
        <time>2021-05-18T12:24:42Z</time>
      </trkpt>
      <trkpt lat="41.8753120" lon="-8.8389380">
        <ele>7.9</ele>
        <time>2021-05-18T12:24:43Z</time>
      </trkpt>
      <trkpt lat="41.8753120" lon="-8.8389380">
        <ele>7.9</ele>
        <time>2021-05-18T12:24:44Z</time>
      </trkpt>
      <trkpt lat="41.8753120" lon="-8.8389380">
        <ele>7.9</ele>
        <time>2021-05-18T12:24:45Z</time>
      </trkpt>
      <trkpt lat="41.8753120" lon="-8.8389380">
        <ele>7.9</ele>
        <time>2021-05-18T12:24:46Z</time>
      </trkpt>
      <trkpt lat="41.8753120" lon="-8.8389380">
        <ele>7.9</ele>
        <time>2021-05-18T12:24:47Z</time>
      </trkpt>
      <trkpt lat="41.8753120" lon="-8.8389380">
        <ele>7.9</ele>
        <time>2021-05-18T12:24:48Z</time>
      </trkpt>
      <trkpt lat="41.8753120" lon="-8.8389380">
        <ele>7.9</ele>
        <time>2021-05-18T12:24:49Z</time>
      </trkpt>
      <trkpt lat="41.8753120" lon="-8.8389380">
        <ele>7.9</ele>
        <time>2021-05-18T12:24:50Z</time>
      </trkpt>
      <trkpt lat="41.8753120" lon="-8.8389380">
        <ele>7.9</ele>
        <time>2021-05-18T12:24:51Z</time>
      </trkpt>
      <trkpt lat="41.8753120" lon="-8.8389380">
        <ele>7.9</ele>
        <time>2021-05-18T12:24:52Z</time>
      </trkpt>
      <trkpt lat="41.8753120" lon="-8.8389380">
        <ele>7.9</ele>
        <time>2021-05-18T12:24:53Z</time>
      </trkpt>
      <trkpt lat="41.8753120" lon="-8.8389380">
        <ele>7.9</ele>
        <time>2021-05-18T12:24:54Z</time>
      </trkpt>
      <trkpt lat="41.8753120" lon="-8.8389380">
        <ele>7.9</ele>
        <time>2021-05-18T12:24:55Z</time>
      </trkpt>
      <trkpt lat="41.8753120" lon="-8.8389380">
        <ele>7.9</ele>
        <time>2021-05-18T12:24:56Z</time>
      </trkpt>
      <trkpt lat="41.8753210" lon="-8.8389330">
        <ele>7.9</ele>
        <time>2021-05-18T12:24:57Z</time>
      </trkpt>
      <trkpt lat="41.8753220" lon="-8.8389320">
        <ele>7.9</ele>
        <time>2021-05-18T12:24:58Z</time>
      </trkpt>
      <trkpt lat="41.8753280" lon="-8.8389220">
        <ele>7.9</ele>
        <time>2021-05-18T12:24:59Z</time>
      </trkpt>
      <trkpt lat="41.8753300" lon="-8.8389180">
        <ele>7.9</ele>
        <time>2021-05-18T12:25:00Z</time>
      </trkpt>
      <trkpt lat="41.8753310" lon="-8.8389200">
        <ele>7.9</ele>
        <time>2021-05-18T12:25:01Z</time>
      </trkpt>
      <trkpt lat="41.8753310" lon="-8.8389210">
        <ele>7.9</ele>
        <time>2021-05-18T12:25:02Z</time>
      </trkpt>
      <trkpt lat="41.8753320" lon="-8.8389230">
        <ele>7.9</ele>
        <time>2021-05-18T12:25:03Z</time>
      </trkpt>
      <trkpt lat="41.8753320" lon="-8.8389240">
        <ele>7.9</ele>
        <time>2021-05-18T12:25:04Z</time>
      </trkpt>
      <trkpt lat="41.8753330" lon="-8.8389260">
        <ele>7.9</ele>
        <time>2021-05-18T12:25:05Z</time>
      </trkpt>
      <trkpt lat="41.8753330" lon="-8.8389280">
        <ele>7.9</ele>
        <time>2021-05-18T12:25:06Z</time>
      </trkpt>
      <trkpt lat="41.8753340" lon="-8.8389290">
        <ele>7.9</ele>
        <time>2021-05-18T12:25:07Z</time>
      </trkpt>
      <trkpt lat="41.8753340" lon="-8.8389310">
        <ele>7.9</ele>
        <time>2021-05-18T12:25:08Z</time>
      </trkpt>
      <trkpt lat="41.8753350" lon="-8.8389320">
        <ele>7.9</ele>
        <time>2021-05-18T12:25:09Z</time>
      </trkpt>
      <trkpt lat="41.8753350" lon="-8.8389340">
        <ele>7.9</ele>
        <time>2021-05-18T12:25:10Z</time>
      </trkpt>
      <trkpt lat="41.8753360" lon="-8.8389350">
        <ele>7.9</ele>
        <time>2021-05-18T12:25:11Z</time>
      </trkpt>
      <trkpt lat="41.8753360" lon="-8.8389370">
        <ele>7.9</ele>
        <time>2021-05-18T12:25:12Z</time>
      </trkpt>
      <trkpt lat="41.8753370" lon="-8.8389390">
        <ele>7.9</ele>
        <time>2021-05-18T12:25:13Z</time>
      </trkpt>
      <trkpt lat="41.8753370" lon="-8.8389400">
        <ele>7.9</ele>
        <time>2021-05-18T12:25:14Z</time>
      </trkpt>
      <trkpt lat="41.8753380" lon="-8.8389420">
        <ele>7.9</ele>
        <time>2021-05-18T12:25:15Z</time>
      </trkpt>
      <trkpt lat="41.8753380" lon="-8.8389430">
        <ele>7.9</ele>
        <time>2021-05-18T12:25:16Z</time>
      </trkpt>
      <trkpt lat="41.8753390" lon="-8.8389450">
        <ele>7.9</ele>
        <time>2021-05-18T12:25:17Z</time>
      </trkpt>
      <trkpt lat="41.8753390" lon="-8.8389470">
        <ele>7.9</ele>
        <time>2021-05-18T12:25:18Z</time>
      </trkpt>
      <trkpt lat="41.8753400" lon="-8.8389480">
        <ele>7.9</ele>
        <time>2021-05-18T12:25:19Z</time>
      </trkpt>
      <trkpt lat="41.8753400" lon="-8.8389500">
        <ele>7.9</ele>
        <time>2021-05-18T12:25:20Z</time>
      </trkpt>
      <trkpt lat="41.8753410" lon="-8.8389510">
        <ele>7.9</ele>
        <time>2021-05-18T12:25:21Z</time>
      </trkpt>
      <trkpt lat="41.8753410" lon="-8.8389530">
        <ele>7.9</ele>
        <time>2021-05-18T12:25:22Z</time>
      </trkpt>
      <trkpt lat="41.8753420" lon="-8.8389540">
        <ele>7.9</ele>
        <time>2021-05-18T12:25:23Z</time>
      </trkpt>
      <trkpt lat="41.8753420" lon="-8.8389560">
        <ele>7.9</ele>
        <time>2021-05-18T12:25:24Z</time>
      </trkpt>
      <trkpt lat="41.8753430" lon="-8.8389580">
        <ele>7.9</ele>
        <time>2021-05-18T12:25:25Z</time>
      </trkpt>
      <trkpt lat="41.8753430" lon="-8.8389590">
        <ele>7.9</ele>
        <time>2021-05-18T12:25:26Z</time>
      </trkpt>
      <trkpt lat="41.8753440" lon="-8.8389610">
        <ele>7.9</ele>
        <time>2021-05-18T12:25:27Z</time>
      </trkpt>
      <trkpt lat="41.8753440" lon="-8.8389620">
        <ele>7.9</ele>
        <time>2021-05-18T12:25:28Z</time>
      </trkpt>
      <trkpt lat="41.8753450" lon="-8.8389640">
        <ele>7.9</ele>
        <time>2021-05-18T12:25:29Z</time>
      </trkpt>
      <trkpt lat="41.8753450" lon="-8.8389650">
        <ele>7.9</ele>
        <time>2021-05-18T12:25:30Z</time>
      </trkpt>
      <trkpt lat="41.8753450" lon="-8.8389650">
        <ele>7.9</ele>
        <time>2021-05-18T12:25:31Z</time>
      </trkpt>
      <trkpt lat="41.8753440" lon="-8.8389660">
        <ele>7.9</ele>
        <time>2021-05-18T12:25:32Z</time>
      </trkpt>
      <trkpt lat="41.8753440" lon="-8.8389660">
        <ele>7.9</ele>
        <time>2021-05-18T12:25:33Z</time>
      </trkpt>
      <trkpt lat="41.8753440" lon="-8.8389660">
        <ele>7.9</ele>
        <time>2021-05-18T12:25:34Z</time>
      </trkpt>
      <trkpt lat="41.8753440" lon="-8.8389660">
        <ele>7.9</ele>
        <time>2021-05-18T12:25:35Z</time>
      </trkpt>
      <trkpt lat="41.8753440" lon="-8.8389660">
        <ele>7.9</ele>
        <time>2021-05-18T12:25:36Z</time>
      </trkpt>
      <trkpt lat="41.8753440" lon="-8.8389660">
        <ele>7.9</ele>
        <time>2021-05-18T12:25:37Z</time>
      </trkpt>
      <trkpt lat="41.8753440" lon="-8.8389660">
        <ele>7.9</ele>
        <time>2021-05-18T12:25:38Z</time>
      </trkpt>
      <trkpt lat="41.8753440" lon="-8.8389660">
        <ele>7.9</ele>
        <time>2021-05-18T12:25:39Z</time>
      </trkpt>
      <trkpt lat="41.8753440" lon="-8.8389660">
        <ele>7.9</ele>
        <time>2021-05-18T12:25:40Z</time>
      </trkpt>
      <trkpt lat="41.8753440" lon="-8.8389610">
        <ele>7.9</ele>
        <time>2021-05-18T12:25:41Z</time>
      </trkpt>
      <trkpt lat="41.8753440" lon="-8.8389620">
        <ele>7.9</ele>
        <time>2021-05-18T12:25:42Z</time>
      </trkpt>
      <trkpt lat="41.8753470" lon="-8.8389620">
        <ele>7.9</ele>
        <time>2021-05-18T12:25:43Z</time>
      </trkpt>
      <trkpt lat="41.8753430" lon="-8.8389710">
        <ele>7.9</ele>
        <time>2021-05-18T12:25:44Z</time>
      </trkpt>
      <trkpt lat="41.8753420" lon="-8.8389720">
        <ele>7.9</ele>
        <time>2021-05-18T12:25:45Z</time>
      </trkpt>
      <trkpt lat="41.8753420" lon="-8.8389760">
        <ele>7.9</ele>
        <time>2021-05-18T12:25:46Z</time>
      </trkpt>
      <trkpt lat="41.8753440" lon="-8.8389720">
        <ele>7.9</ele>
        <time>2021-05-18T12:25:47Z</time>
      </trkpt>
      <trkpt lat="41.8753410" lon="-8.8389740">
        <ele>7.9</ele>
        <time>2021-05-18T12:25:48Z</time>
      </trkpt>
      <trkpt lat="41.8753380" lon="-8.8389740">
        <ele>7.9</ele>
        <time>2021-05-18T12:25:49Z</time>
      </trkpt>
      <trkpt lat="41.8753360" lon="-8.8389760">
        <ele>7.9</ele>
        <time>2021-05-18T12:25:50Z</time>
      </trkpt>
      <trkpt lat="41.8753340" lon="-8.8389810">
        <ele>7.9</ele>
        <time>2021-05-18T12:25:51Z</time>
      </trkpt>
      <trkpt lat="41.8753340" lon="-8.8389840">
        <ele>7.9</ele>
        <time>2021-05-18T12:25:52Z</time>
      </trkpt>
      <trkpt lat="41.8753330" lon="-8.8389850">
        <ele>7.9</ele>
        <time>2021-05-18T12:25:53Z</time>
      </trkpt>
      <trkpt lat="41.8753300" lon="-8.8389860">
        <ele>7.9</ele>
        <time>2021-05-18T12:25:54Z</time>
      </trkpt>
      <trkpt lat="41.8753260" lon="-8.8389880">
        <ele>7.9</ele>
        <time>2021-05-18T12:25:55Z</time>
      </trkpt>
      <trkpt lat="41.8753230" lon="-8.8389880">
        <ele>7.9</ele>
        <time>2021-05-18T12:25:56Z</time>
      </trkpt>
      <trkpt lat="41.8753200" lon="-8.8389920">
        <ele>7.9</ele>
        <time>2021-05-18T12:25:57Z</time>
      </trkpt>
      <trkpt lat="41.8753180" lon="-8.8389920">
        <ele>7.9</ele>
        <time>2021-05-18T12:25:58Z</time>
      </trkpt>
      <trkpt lat="41.8753190" lon="-8.8389930">
        <ele>7.9</ele>
        <time>2021-05-18T12:25:59Z</time>
      </trkpt>
      <trkpt lat="41.8753080" lon="-8.8390080">
        <ele>7.9</ele>
        <time>2021-05-18T12:26:00Z</time>
      </trkpt>
      <trkpt lat="41.8753070" lon="-8.8390060">
        <ele>7.9</ele>
        <time>2021-05-18T12:26:01Z</time>
      </trkpt>
      <trkpt lat="41.8753050" lon="-8.8390100">
        <ele>7.9</ele>
        <time>2021-05-18T12:26:02Z</time>
      </trkpt>
      <trkpt lat="41.8753010" lon="-8.8390120">
        <ele>7.9</ele>
        <time>2021-05-18T12:26:03Z</time>
      </trkpt>
      <trkpt lat="41.8753030" lon="-8.8390130">
        <ele>7.9</ele>
        <time>2021-05-18T12:26:04Z</time>
      </trkpt>
      <trkpt lat="41.8753030" lon="-8.8390130">
        <ele>7.9</ele>
        <time>2021-05-18T12:26:05Z</time>
      </trkpt>
      <trkpt lat="41.8753030" lon="-8.8390130">
        <ele>7.9</ele>
        <time>2021-05-18T12:26:06Z</time>
      </trkpt>
      <trkpt lat="41.8753030" lon="-8.8390130">
        <ele>7.9</ele>
        <time>2021-05-18T12:26:07Z</time>
      </trkpt>
      <trkpt lat="41.8753030" lon="-8.8390080">
        <ele>7.9</ele>
        <time>2021-05-18T12:26:08Z</time>
      </trkpt>
      <trkpt lat="41.8753070" lon="-8.8390050">
        <ele>7.9</ele>
        <time>2021-05-18T12:26:09Z</time>
      </trkpt>
      <trkpt lat="41.8753070" lon="-8.8390040">
        <ele>7.9</ele>
        <time>2021-05-18T12:26:10Z</time>
      </trkpt>
      <trkpt lat="41.8753060" lon="-8.8390020">
        <ele>7.9</ele>
        <time>2021-05-18T12:26:11Z</time>
      </trkpt>
      <trkpt lat="41.8753060" lon="-8.8390020">
        <ele>7.9</ele>
        <time>2021-05-18T12:26:12Z</time>
      </trkpt>
      <trkpt lat="41.8753060" lon="-8.8390020">
        <ele>7.9</ele>
        <time>2021-05-18T12:26:13Z</time>
      </trkpt>
      <trkpt lat="41.8753000" lon="-8.8390060">
        <ele>7.9</ele>
        <time>2021-05-18T12:26:14Z</time>
      </trkpt>
      <trkpt lat="41.8753030" lon="-8.8389990">
        <ele>7.9</ele>
        <time>2021-05-18T12:26:15Z</time>
      </trkpt>
      <trkpt lat="41.8753030" lon="-8.8389990">
        <ele>7.9</ele>
        <time>2021-05-18T12:26:16Z</time>
      </trkpt>
      <trkpt lat="41.8753030" lon="-8.8389990">
        <ele>7.9</ele>
        <time>2021-05-18T12:26:17Z</time>
      </trkpt>
      <trkpt lat="41.8752950" lon="-8.8389950">
        <ele>7.9</ele>
        <time>2021-05-18T12:26:18Z</time>
      </trkpt>
      <trkpt lat="41.8752930" lon="-8.8389920">
        <ele>7.9</ele>
        <time>2021-05-18T12:26:19Z</time>
      </trkpt>
      <trkpt lat="41.8752900" lon="-8.8389920">
        <ele>7.9</ele>
        <time>2021-05-18T12:26:20Z</time>
      </trkpt>
      <trkpt lat="41.8752890" lon="-8.8389930">
        <ele>7.9</ele>
        <time>2021-05-18T12:26:21Z</time>
      </trkpt>
      <trkpt lat="41.8752970" lon="-8.8389880">
        <ele>7.9</ele>
        <time>2021-05-18T12:26:22Z</time>
      </trkpt>
      <trkpt lat="41.8752940" lon="-8.8389860">
        <ele>7.9</ele>
        <time>2021-05-18T12:26:23Z</time>
      </trkpt>
      <trkpt lat="41.8752970" lon="-8.8389840">
        <ele>7.9</ele>
        <time>2021-05-18T12:26:24Z</time>
      </trkpt>
      <trkpt lat="41.8753010" lon="-8.8389810">
        <ele>7.9</ele>
        <time>2021-05-18T12:26:25Z</time>
      </trkpt>
      <trkpt lat="41.8753040" lon="-8.8389770">
        <ele>7.9</ele>
        <time>2021-05-18T12:26:26Z</time>
      </trkpt>
      <trkpt lat="41.8753030" lon="-8.8389770">
        <ele>7.9</ele>
        <time>2021-05-18T12:26:27Z</time>
      </trkpt>
      <trkpt lat="41.8753040" lon="-8.8389740">
        <ele>7.9</ele>
        <time>2021-05-18T12:26:28Z</time>
      </trkpt>
      <trkpt lat="41.8753020" lon="-8.8389720">
        <ele>7.9</ele>
        <time>2021-05-18T12:26:29Z</time>
      </trkpt>
      <trkpt lat="41.8753010" lon="-8.8389720">
        <ele>7.9</ele>
        <time>2021-05-18T12:26:30Z</time>
      </trkpt>
      <trkpt lat="41.8753010" lon="-8.8389720">
        <ele>7.9</ele>
        <time>2021-05-18T12:26:31Z</time>
      </trkpt>
      <trkpt lat="41.8753030" lon="-8.8389710">
        <ele>7.9</ele>
        <time>2021-05-18T12:26:32Z</time>
      </trkpt>
      <trkpt lat="41.8753040" lon="-8.8389710">
        <ele>7.9</ele>
        <time>2021-05-18T12:26:33Z</time>
      </trkpt>
      <trkpt lat="41.8753040" lon="-8.8389710">
        <ele>7.9</ele>
        <time>2021-05-18T12:26:34Z</time>
      </trkpt>
      <trkpt lat="41.8753040" lon="-8.8389710">
        <ele>7.9</ele>
        <time>2021-05-18T12:26:35Z</time>
      </trkpt>
      <trkpt lat="41.8753060" lon="-8.8389660">
        <ele>7.9</ele>
        <time>2021-05-18T12:26:36Z</time>
      </trkpt>
      <trkpt lat="41.8753060" lon="-8.8389660">
        <ele>7.9</ele>
        <time>2021-05-18T12:26:37Z</time>
      </trkpt>
      <trkpt lat="41.8753060" lon="-8.8389660">
        <ele>7.9</ele>
        <time>2021-05-18T12:26:38Z</time>
      </trkpt>
      <trkpt lat="41.8753110" lon="-8.8389550">
        <ele>7.9</ele>
        <time>2021-05-18T12:26:39Z</time>
      </trkpt>
      <trkpt lat="41.8753120" lon="-8.8389540">
        <ele>7.9</ele>
        <time>2021-05-18T12:26:40Z</time>
      </trkpt>
      <trkpt lat="41.8753120" lon="-8.8389540">
        <ele>7.9</ele>
        <time>2021-05-18T12:26:41Z</time>
      </trkpt>
      <trkpt lat="41.8753120" lon="-8.8389540">
        <ele>7.9</ele>
        <time>2021-05-18T12:26:42Z</time>
      </trkpt>
      <trkpt lat="41.8753160" lon="-8.8389470">
        <ele>7.9</ele>
        <time>2021-05-18T12:26:43Z</time>
      </trkpt>
      <trkpt lat="41.8753170" lon="-8.8389450">
        <ele>7.9</ele>
        <time>2021-05-18T12:26:44Z</time>
      </trkpt>
      <trkpt lat="41.8753150" lon="-8.8389480">
        <ele>7.9</ele>
        <time>2021-05-18T12:26:45Z</time>
      </trkpt>
      <trkpt lat="41.8753170" lon="-8.8389490">
        <ele>7.9</ele>
        <time>2021-05-18T12:26:46Z</time>
      </trkpt>
      <trkpt lat="41.8753200" lon="-8.8389480">
        <ele>7.9</ele>
        <time>2021-05-18T12:26:47Z</time>
      </trkpt>
      <trkpt lat="41.8753220" lon="-8.8389480">
        <ele>7.9</ele>
        <time>2021-05-18T12:26:48Z</time>
      </trkpt>
      <trkpt lat="41.8753240" lon="-8.8389460">
        <ele>7.9</ele>
        <time>2021-05-18T12:26:49Z</time>
      </trkpt>
      <trkpt lat="41.8753240" lon="-8.8389460">
        <ele>7.9</ele>
        <time>2021-05-18T12:26:50Z</time>
      </trkpt>
      <trkpt lat="41.8753240" lon="-8.8389460">
        <ele>7.9</ele>
        <time>2021-05-18T12:26:52Z</time>
      </trkpt>
      <trkpt lat="41.8753260" lon="-8.8389390">
        <ele>7.9</ele>
        <time>2021-05-18T12:26:53Z</time>
      </trkpt>
      <trkpt lat="41.8753250" lon="-8.8389400">
        <ele>7.9</ele>
        <time>2021-05-18T12:26:54Z</time>
      </trkpt>
      <trkpt lat="41.8753260" lon="-8.8389400">
        <ele>7.9</ele>
        <time>2021-05-18T12:26:55Z</time>
      </trkpt>
      <trkpt lat="41.8753240" lon="-8.8389400">
        <ele>7.9</ele>
        <time>2021-05-18T12:26:56Z</time>
      </trkpt>
      <trkpt lat="41.8753240" lon="-8.8389400">
        <ele>7.9</ele>
        <time>2021-05-18T12:26:57Z</time>
      </trkpt>
      <trkpt lat="41.8753180" lon="-8.8389360">
        <ele>7.9</ele>
        <time>2021-05-18T12:26:58Z</time>
      </trkpt>
      <trkpt lat="41.8753160" lon="-8.8389370">
        <ele>7.9</ele>
        <time>2021-05-18T12:26:59Z</time>
      </trkpt>
      <trkpt lat="41.8753160" lon="-8.8389380">
        <ele>7.9</ele>
        <time>2021-05-18T12:27:00Z</time>
      </trkpt>
      <trkpt lat="41.8753120" lon="-8.8389400">
        <ele>7.9</ele>
        <time>2021-05-18T12:27:01Z</time>
      </trkpt>
      <trkpt lat="41.8753110" lon="-8.8389400">
        <ele>7.9</ele>
        <time>2021-05-18T12:27:02Z</time>
      </trkpt>
      <trkpt lat="41.8753110" lon="-8.8389400">
        <ele>7.9</ele>
        <time>2021-05-18T12:27:03Z</time>
      </trkpt>
      <trkpt lat="41.8753100" lon="-8.8389400">
        <ele>7.9</ele>
        <time>2021-05-18T12:27:04Z</time>
      </trkpt>
      <trkpt lat="41.8753090" lon="-8.8389400">
        <ele>7.9</ele>
        <time>2021-05-18T12:27:05Z</time>
      </trkpt>
      <trkpt lat="41.8753110" lon="-8.8389390">
        <ele>7.9</ele>
        <time>2021-05-18T12:27:06Z</time>
      </trkpt>
      <trkpt lat="41.8753130" lon="-8.8389380">
        <ele>7.9</ele>
        <time>2021-05-18T12:27:07Z</time>
      </trkpt>
      <trkpt lat="41.8753140" lon="-8.8389380">
        <ele>7.9</ele>
        <time>2021-05-18T12:27:08Z</time>
      </trkpt>
      <trkpt lat="41.8753180" lon="-8.8389380">
        <ele>7.9</ele>
        <time>2021-05-18T12:27:09Z</time>
      </trkpt>
      <trkpt lat="41.8753170" lon="-8.8389400">
        <ele>7.9</ele>
        <time>2021-05-18T12:27:10Z</time>
      </trkpt>
      <trkpt lat="41.8753180" lon="-8.8389480">
        <ele>7.9</ele>
        <time>2021-05-18T12:27:11Z</time>
      </trkpt>
      <trkpt lat="41.8753150" lon="-8.8389540">
        <ele>7.9</ele>
        <time>2021-05-18T12:27:12Z</time>
      </trkpt>
      <trkpt lat="41.8753170" lon="-8.8389520">
        <ele>7.9</ele>
        <time>2021-05-18T12:27:13Z</time>
      </trkpt>
      <trkpt lat="41.8753180" lon="-8.8389560">
        <ele>7.9</ele>
        <time>2021-05-18T12:27:14Z</time>
      </trkpt>
      <trkpt lat="41.8753200" lon="-8.8389550">
        <ele>7.9</ele>
        <time>2021-05-18T12:27:15Z</time>
      </trkpt>
      <trkpt lat="41.8753210" lon="-8.8389550">
        <ele>7.9</ele>
        <time>2021-05-18T12:27:16Z</time>
      </trkpt>
      <trkpt lat="41.8753210" lon="-8.8389550">
        <ele>7.9</ele>
        <time>2021-05-18T12:27:17Z</time>
      </trkpt>
      <trkpt lat="41.8753210" lon="-8.8389550">
        <ele>7.9</ele>
        <time>2021-05-18T12:27:18Z</time>
      </trkpt>
      <trkpt lat="41.8753190" lon="-8.8389420">
        <ele>7.9</ele>
        <time>2021-05-18T12:27:19Z</time>
      </trkpt>
      <trkpt lat="41.8753230" lon="-8.8389410">
        <ele>7.9</ele>
        <time>2021-05-18T12:27:20Z</time>
      </trkpt>
      <trkpt lat="41.8753220" lon="-8.8389410">
        <ele>7.9</ele>
        <time>2021-05-18T12:27:21Z</time>
      </trkpt>
      <trkpt lat="41.8753230" lon="-8.8389390">
        <ele>7.9</ele>
        <time>2021-05-18T12:27:22Z</time>
      </trkpt>
      <trkpt lat="41.8753230" lon="-8.8389420">
        <ele>7.9</ele>
        <time>2021-05-18T12:27:23Z</time>
      </trkpt>
      <trkpt lat="41.8753160" lon="-8.8389450">
        <ele>7.9</ele>
        <time>2021-05-18T12:27:24Z</time>
      </trkpt>
      <trkpt lat="41.8753160" lon="-8.8389480">
        <ele>7.9</ele>
        <time>2021-05-18T12:27:25Z</time>
      </trkpt>
      <trkpt lat="41.8753160" lon="-8.8389430">
        <ele>7.9</ele>
        <time>2021-05-18T12:27:26Z</time>
      </trkpt>
      <trkpt lat="41.8753160" lon="-8.8389490">
        <ele>7.9</ele>
        <time>2021-05-18T12:27:27Z</time>
      </trkpt>
      <trkpt lat="41.8753180" lon="-8.8389540">
        <ele>7.9</ele>
        <time>2021-05-18T12:27:28Z</time>
      </trkpt>
      <trkpt lat="41.8753180" lon="-8.8389510">
        <ele>7.9</ele>
        <time>2021-05-18T12:27:29Z</time>
      </trkpt>
      <trkpt lat="41.8753170" lon="-8.8389570">
        <ele>7.9</ele>
        <time>2021-05-18T12:27:30Z</time>
      </trkpt>
      <trkpt lat="41.8753180" lon="-8.8389570">
        <ele>7.9</ele>
        <time>2021-05-18T12:27:31Z</time>
      </trkpt>
      <trkpt lat="41.8753200" lon="-8.8389560">
        <ele>7.9</ele>
        <time>2021-05-18T12:27:32Z</time>
      </trkpt>
      <trkpt lat="41.8753220" lon="-8.8389590">
        <ele>7.9</ele>
        <time>2021-05-18T12:27:33Z</time>
      </trkpt>
      <trkpt lat="41.8753210" lon="-8.8389560">
        <ele>7.9</ele>
        <time>2021-05-18T12:27:34Z</time>
      </trkpt>
      <trkpt lat="41.8753230" lon="-8.8389500">
        <ele>7.9</ele>
        <time>2021-05-18T12:27:35Z</time>
      </trkpt>
      <trkpt lat="41.8753230" lon="-8.8389490">
        <ele>7.9</ele>
        <time>2021-05-18T12:27:36Z</time>
      </trkpt>
      <trkpt lat="41.8753230" lon="-8.8389490">
        <ele>7.9</ele>
        <time>2021-05-18T12:27:37Z</time>
      </trkpt>
      <trkpt lat="41.8753230" lon="-8.8389490">
        <ele>7.9</ele>
        <time>2021-05-18T12:27:38Z</time>
      </trkpt>
      <trkpt lat="41.8753230" lon="-8.8389490">
        <ele>7.9</ele>
        <time>2021-05-18T12:27:39Z</time>
      </trkpt>
      <trkpt lat="41.8753230" lon="-8.8389490">
        <ele>7.9</ele>
        <time>2021-05-18T12:27:40Z</time>
      </trkpt>
      <trkpt lat="41.8753230" lon="-8.8389490">
        <ele>7.9</ele>
        <time>2021-05-18T12:27:41Z</time>
      </trkpt>
      <trkpt lat="41.8753230" lon="-8.8389490">
        <ele>7.9</ele>
        <time>2021-05-18T12:27:42Z</time>
      </trkpt>
      <trkpt lat="41.8753230" lon="-8.8389490">
        <ele>7.9</ele>
        <time>2021-05-18T12:27:43Z</time>
      </trkpt>
      <trkpt lat="41.8753230" lon="-8.8389490">
        <ele>7.9</ele>
        <time>2021-05-18T12:27:44Z</time>
      </trkpt>
      <trkpt lat="41.8753230" lon="-8.8389490">
        <ele>7.9</ele>
        <time>2021-05-18T12:27:45Z</time>
      </trkpt>
      <trkpt lat="41.8753230" lon="-8.8389490">
        <ele>7.9</ele>
        <time>2021-05-18T12:27:46Z</time>
      </trkpt>
      <trkpt lat="41.8753230" lon="-8.8389490">
        <ele>7.9</ele>
        <time>2021-05-18T12:27:47Z</time>
      </trkpt>
      <trkpt lat="41.8753230" lon="-8.8389490">
        <ele>7.9</ele>
        <time>2021-05-18T12:27:48Z</time>
      </trkpt>
      <trkpt lat="41.8753230" lon="-8.8389490">
        <ele>7.9</ele>
        <time>2021-05-18T12:27:49Z</time>
      </trkpt>
      <trkpt lat="41.8753230" lon="-8.8389490">
        <ele>7.9</ele>
        <time>2021-05-18T12:27:50Z</time>
      </trkpt>
      <trkpt lat="41.8753230" lon="-8.8389490">
        <ele>7.9</ele>
        <time>2021-05-18T12:27:51Z</time>
      </trkpt>
      <trkpt lat="41.8753230" lon="-8.8389490">
        <ele>7.9</ele>
        <time>2021-05-18T12:27:52Z</time>
      </trkpt>
      <trkpt lat="41.8753230" lon="-8.8389490">
        <ele>7.9</ele>
        <time>2021-05-18T12:27:53Z</time>
      </trkpt>
      <trkpt lat="41.8753230" lon="-8.8389490">
        <ele>7.9</ele>
        <time>2021-05-18T12:27:54Z</time>
      </trkpt>
      <trkpt lat="41.8753230" lon="-8.8389490">
        <ele>7.9</ele>
        <time>2021-05-18T12:27:55Z</time>
      </trkpt>
      <trkpt lat="41.8753230" lon="-8.8389490">
        <ele>7.9</ele>
        <time>2021-05-18T12:27:56Z</time>
      </trkpt>
      <trkpt lat="41.8753230" lon="-8.8389490">
        <ele>7.9</ele>
        <time>2021-05-18T12:27:57Z</time>
      </trkpt>
      <trkpt lat="41.8753230" lon="-8.8389490">
        <ele>7.9</ele>
        <time>2021-05-18T12:27:58Z</time>
      </trkpt>
      <trkpt lat="41.8753230" lon="-8.8389490">
        <ele>7.9</ele>
        <time>2021-05-18T12:27:59Z</time>
      </trkpt>
      <trkpt lat="41.8753230" lon="-8.8389490">
        <ele>7.9</ele>
        <time>2021-05-18T12:28:00Z</time>
      </trkpt>
      <trkpt lat="41.8753230" lon="-8.8389490">
        <ele>7.9</ele>
        <time>2021-05-18T12:28:01Z</time>
      </trkpt>
      <trkpt lat="41.8753230" lon="-8.8389490">
        <ele>7.9</ele>
        <time>2021-05-18T12:28:02Z</time>
      </trkpt>
      <trkpt lat="41.8753230" lon="-8.8389490">
        <ele>7.9</ele>
        <time>2021-05-18T12:28:03Z</time>
      </trkpt>
      <trkpt lat="41.8753230" lon="-8.8389490">
        <ele>7.9</ele>
        <time>2021-05-18T12:28:04Z</time>
      </trkpt>
      <trkpt lat="41.8753230" lon="-8.8389490">
        <ele>7.9</ele>
        <time>2021-05-18T12:28:05Z</time>
      </trkpt>
      <trkpt lat="41.8753230" lon="-8.8389490">
        <ele>7.9</ele>
        <time>2021-05-18T12:28:06Z</time>
      </trkpt>
      <trkpt lat="41.8753230" lon="-8.8389490">
        <ele>7.9</ele>
        <time>2021-05-18T12:28:07Z</time>
      </trkpt>
      <trkpt lat="41.8753230" lon="-8.8389490">
        <ele>7.9</ele>
        <time>2021-05-18T12:28:08Z</time>
      </trkpt>
      <trkpt lat="41.8753230" lon="-8.8389490">
        <ele>7.9</ele>
        <time>2021-05-18T12:28:09Z</time>
      </trkpt>
      <trkpt lat="41.8753230" lon="-8.8389490">
        <ele>7.9</ele>
        <time>2021-05-18T12:28:10Z</time>
      </trkpt>
      <trkpt lat="41.8753230" lon="-8.8389490">
        <ele>7.9</ele>
        <time>2021-05-18T12:28:11Z</time>
      </trkpt>
      <trkpt lat="41.8753230" lon="-8.8389490">
        <ele>7.9</ele>
        <time>2021-05-18T12:28:12Z</time>
      </trkpt>
      <trkpt lat="41.8753230" lon="-8.8389490">
        <ele>7.9</ele>
        <time>2021-05-18T12:28:13Z</time>
      </trkpt>
      <trkpt lat="41.8753230" lon="-8.8389490">
        <ele>7.9</ele>
        <time>2021-05-18T12:28:14Z</time>
      </trkpt>
      <trkpt lat="41.8753230" lon="-8.8389490">
        <ele>7.9</ele>
        <time>2021-05-18T12:28:15Z</time>
      </trkpt>
      <trkpt lat="41.8753230" lon="-8.8389490">
        <ele>7.9</ele>
        <time>2021-05-18T12:28:16Z</time>
      </trkpt>
      <trkpt lat="41.8753230" lon="-8.8389490">
        <ele>7.9</ele>
        <time>2021-05-18T12:28:17Z</time>
      </trkpt>
      <trkpt lat="41.8753230" lon="-8.8389490">
        <ele>7.9</ele>
        <time>2021-05-18T12:28:18Z</time>
      </trkpt>
      <trkpt lat="41.8753230" lon="-8.8389490">
        <ele>7.9</ele>
        <time>2021-05-18T12:28:19Z</time>
      </trkpt>
      <trkpt lat="41.8753230" lon="-8.8389490">
        <ele>7.9</ele>
        <time>2021-05-18T12:28:20Z</time>
      </trkpt>
      <trkpt lat="41.8753230" lon="-8.8389490">
        <ele>7.9</ele>
        <time>2021-05-18T12:28:21Z</time>
      </trkpt>
      <trkpt lat="41.8753230" lon="-8.8389490">
        <ele>7.9</ele>
        <time>2021-05-18T12:28:22Z</time>
      </trkpt>
      <trkpt lat="41.8753230" lon="-8.8389490">
        <ele>7.9</ele>
        <time>2021-05-18T12:28:23Z</time>
      </trkpt>
      <trkpt lat="41.8753230" lon="-8.8389490">
        <ele>7.9</ele>
        <time>2021-05-18T12:28:24Z</time>
      </trkpt>
      <trkpt lat="41.8753230" lon="-8.8389490">
        <ele>7.9</ele>
        <time>2021-05-18T12:28:25Z</time>
      </trkpt>
      <trkpt lat="41.8753230" lon="-8.8389490">
        <ele>7.9</ele>
        <time>2021-05-18T12:28:26Z</time>
      </trkpt>
      <trkpt lat="41.8753230" lon="-8.8389490">
        <ele>7.9</ele>
        <time>2021-05-18T12:28:27Z</time>
      </trkpt>
      <trkpt lat="41.8753230" lon="-8.8389490">
        <ele>7.9</ele>
        <time>2021-05-18T12:28:28Z</time>
      </trkpt>
      <trkpt lat="41.8753230" lon="-8.8389490">
        <ele>7.9</ele>
        <time>2021-05-18T12:28:29Z</time>
      </trkpt>
      <trkpt lat="41.8753230" lon="-8.8389490">
        <ele>7.9</ele>
        <time>2021-05-18T12:28:30Z</time>
      </trkpt>
      <trkpt lat="41.8753230" lon="-8.8389490">
        <ele>7.9</ele>
        <time>2021-05-18T12:28:31Z</time>
      </trkpt>
      <trkpt lat="41.8753230" lon="-8.8389490">
        <ele>7.9</ele>
        <time>2021-05-18T12:28:32Z</time>
      </trkpt>
      <trkpt lat="41.8753230" lon="-8.8389490">
        <ele>7.9</ele>
        <time>2021-05-18T12:28:33Z</time>
      </trkpt>
      <trkpt lat="41.8753230" lon="-8.8389490">
        <ele>7.9</ele>
        <time>2021-05-18T12:28:34Z</time>
      </trkpt>
      <trkpt lat="41.8753230" lon="-8.8389490">
        <ele>7.9</ele>
        <time>2021-05-18T12:28:35Z</time>
      </trkpt>
      <trkpt lat="41.8753230" lon="-8.8389490">
        <ele>7.9</ele>
        <time>2021-05-18T12:28:36Z</time>
      </trkpt>
      <trkpt lat="41.8753230" lon="-8.8389490">
        <ele>7.9</ele>
        <time>2021-05-18T12:28:37Z</time>
      </trkpt>
      <trkpt lat="41.8753230" lon="-8.8389490">
        <ele>7.9</ele>
        <time>2021-05-18T12:28:38Z</time>
      </trkpt>
      <trkpt lat="41.8753230" lon="-8.8389490">
        <ele>7.9</ele>
        <time>2021-05-18T12:28:39Z</time>
      </trkpt>
      <trkpt lat="41.8753230" lon="-8.8389490">
        <ele>7.9</ele>
        <time>2021-05-18T12:28:40Z</time>
      </trkpt>
      <trkpt lat="41.8753230" lon="-8.8389490">
        <ele>7.9</ele>
        <time>2021-05-18T12:28:41Z</time>
      </trkpt>
      <trkpt lat="41.8753230" lon="-8.8389490">
        <ele>7.9</ele>
        <time>2021-05-18T12:28:42Z</time>
      </trkpt>
      <trkpt lat="41.8753230" lon="-8.8389490">
        <ele>7.9</ele>
        <time>2021-05-18T12:28:43Z</time>
      </trkpt>
      <trkpt lat="41.8753230" lon="-8.8389490">
        <ele>7.9</ele>
        <time>2021-05-18T12:28:44Z</time>
      </trkpt>
      <trkpt lat="41.8753230" lon="-8.8389490">
        <ele>7.9</ele>
        <time>2021-05-18T12:28:45Z</time>
      </trkpt>
      <trkpt lat="41.8753230" lon="-8.8389490">
        <ele>7.9</ele>
        <time>2021-05-18T12:28:46Z</time>
      </trkpt>
      <trkpt lat="41.8753230" lon="-8.8389490">
        <ele>7.9</ele>
        <time>2021-05-18T12:28:47Z</time>
      </trkpt>
      <trkpt lat="41.8753230" lon="-8.8389490">
        <ele>7.9</ele>
        <time>2021-05-18T12:28:48Z</time>
      </trkpt>
      <trkpt lat="41.8753230" lon="-8.8389490">
        <ele>7.9</ele>
        <time>2021-05-18T12:28:49Z</time>
      </trkpt>
      <trkpt lat="41.8753230" lon="-8.8389490">
        <ele>7.9</ele>
        <time>2021-05-18T12:28:50Z</time>
      </trkpt>
      <trkpt lat="41.8753230" lon="-8.8389490">
        <ele>7.9</ele>
        <time>2021-05-18T12:28:51Z</time>
      </trkpt>
      <trkpt lat="41.8753230" lon="-8.8389490">
        <ele>7.9</ele>
        <time>2021-05-18T12:28:52Z</time>
      </trkpt>
      <trkpt lat="41.8753230" lon="-8.8389490">
        <ele>7.9</ele>
        <time>2021-05-18T12:28:53Z</time>
      </trkpt>
      <trkpt lat="41.8753230" lon="-8.8389490">
        <ele>7.9</ele>
        <time>2021-05-18T12:28:54Z</time>
      </trkpt>
      <trkpt lat="41.8753230" lon="-8.8389490">
        <ele>7.9</ele>
        <time>2021-05-18T12:28:55Z</time>
      </trkpt>
      <trkpt lat="41.8753230" lon="-8.8389490">
        <ele>7.9</ele>
        <time>2021-05-18T12:28:56Z</time>
      </trkpt>
      <trkpt lat="41.8753230" lon="-8.8389490">
        <ele>7.9</ele>
        <time>2021-05-18T12:28:57Z</time>
      </trkpt>
      <trkpt lat="41.8753230" lon="-8.8389490">
        <ele>7.9</ele>
        <time>2021-05-18T12:28:58Z</time>
      </trkpt>
      <trkpt lat="41.8753230" lon="-8.8389490">
        <ele>7.9</ele>
        <time>2021-05-18T12:28:59Z</time>
      </trkpt>
      <trkpt lat="41.8753230" lon="-8.8389490">
        <ele>7.9</ele>
        <time>2021-05-18T12:29:00Z</time>
      </trkpt>
      <trkpt lat="41.8753230" lon="-8.8389490">
        <ele>7.9</ele>
        <time>2021-05-18T12:29:01Z</time>
      </trkpt>
      <trkpt lat="41.8753230" lon="-8.8389490">
        <ele>7.9</ele>
        <time>2021-05-18T12:29:02Z</time>
      </trkpt>
      <trkpt lat="41.8753230" lon="-8.8389490">
        <ele>7.9</ele>
        <time>2021-05-18T12:29:03Z</time>
      </trkpt>
      <trkpt lat="41.8753230" lon="-8.8389490">
        <ele>7.9</ele>
        <time>2021-05-18T12:29:04Z</time>
      </trkpt>
      <trkpt lat="41.8753230" lon="-8.8389490">
        <ele>7.9</ele>
        <time>2021-05-18T12:29:05Z</time>
      </trkpt>
      <trkpt lat="41.8753230" lon="-8.8389490">
        <ele>7.9</ele>
        <time>2021-05-18T12:29:06Z</time>
      </trkpt>
      <trkpt lat="41.8753230" lon="-8.8389490">
        <ele>7.9</ele>
        <time>2021-05-18T12:29:07Z</time>
      </trkpt>
      <trkpt lat="41.8753230" lon="-8.8389490">
        <ele>7.9</ele>
        <time>2021-05-18T12:29:08Z</time>
      </trkpt>
      <trkpt lat="41.8753230" lon="-8.8389490">
        <ele>7.9</ele>
        <time>2021-05-18T12:29:09Z</time>
      </trkpt>
      <trkpt lat="41.8753230" lon="-8.8389490">
        <ele>7.9</ele>
        <time>2021-05-18T12:29:10Z</time>
      </trkpt>
      <trkpt lat="41.8753230" lon="-8.8389490">
        <ele>7.9</ele>
        <time>2021-05-18T12:29:11Z</time>
      </trkpt>
      <trkpt lat="41.8753230" lon="-8.8389490">
        <ele>7.9</ele>
        <time>2021-05-18T12:29:12Z</time>
      </trkpt>
      <trkpt lat="41.8753230" lon="-8.8389490">
        <ele>7.9</ele>
        <time>2021-05-18T12:29:13Z</time>
      </trkpt>
      <trkpt lat="41.8753230" lon="-8.8389490">
        <ele>7.9</ele>
        <time>2021-05-18T12:29:14Z</time>
      </trkpt>
      <trkpt lat="41.8753230" lon="-8.8389490">
        <ele>7.9</ele>
        <time>2021-05-18T12:29:16Z</time>
      </trkpt>
      <trkpt lat="41.8753230" lon="-8.8389490">
        <ele>7.9</ele>
        <time>2021-05-18T12:29:17Z</time>
      </trkpt>
      <trkpt lat="41.8753230" lon="-8.8389490">
        <ele>7.9</ele>
        <time>2021-05-18T12:29:18Z</time>
      </trkpt>
      <trkpt lat="41.8753230" lon="-8.8389490">
        <ele>7.9</ele>
        <time>2021-05-18T12:29:19Z</time>
      </trkpt>
      <trkpt lat="41.8753230" lon="-8.8389490">
        <ele>7.9</ele>
        <time>2021-05-18T12:29:20Z</time>
      </trkpt>
      <trkpt lat="41.8753230" lon="-8.8389490">
        <ele>7.9</ele>
        <time>2021-05-18T12:29:21Z</time>
      </trkpt>
      <trkpt lat="41.8753230" lon="-8.8389490">
        <ele>7.9</ele>
        <time>2021-05-18T12:29:22Z</time>
      </trkpt>
      <trkpt lat="41.8753230" lon="-8.8389490">
        <ele>7.9</ele>
        <time>2021-05-18T12:29:23Z</time>
      </trkpt>
      <trkpt lat="41.8753230" lon="-8.8389490">
        <ele>7.9</ele>
        <time>2021-05-18T12:29:24Z</time>
      </trkpt>
      <trkpt lat="41.8753230" lon="-8.8389490">
        <ele>7.9</ele>
        <time>2021-05-18T12:29:25Z</time>
      </trkpt>
      <trkpt lat="41.8753230" lon="-8.8389490">
        <ele>7.9</ele>
        <time>2021-05-18T12:29:26Z</time>
      </trkpt>
      <trkpt lat="41.8753230" lon="-8.8389490">
        <ele>7.9</ele>
        <time>2021-05-18T12:29:27Z</time>
      </trkpt>
      <trkpt lat="41.8753230" lon="-8.8389490">
        <ele>7.9</ele>
        <time>2021-05-18T12:29:28Z</time>
      </trkpt>
      <trkpt lat="41.8753230" lon="-8.8389490">
        <ele>7.9</ele>
        <time>2021-05-18T12:29:29Z</time>
      </trkpt>
      <trkpt lat="41.8753230" lon="-8.8389490">
        <ele>7.9</ele>
        <time>2021-05-18T12:29:30Z</time>
      </trkpt>
      <trkpt lat="41.8753230" lon="-8.8389490">
        <ele>7.9</ele>
        <time>2021-05-18T12:29:31Z</time>
      </trkpt>
      <trkpt lat="41.8753230" lon="-8.8389490">
        <ele>7.9</ele>
        <time>2021-05-18T12:29:32Z</time>
      </trkpt>
      <trkpt lat="41.8753230" lon="-8.8389490">
        <ele>7.9</ele>
        <time>2021-05-18T12:29:33Z</time>
      </trkpt>
      <trkpt lat="41.8753230" lon="-8.8389490">
        <ele>7.9</ele>
        <time>2021-05-18T12:29:34Z</time>
      </trkpt>
      <trkpt lat="41.8753230" lon="-8.8389490">
        <ele>7.9</ele>
        <time>2021-05-18T12:29:35Z</time>
      </trkpt>
      <trkpt lat="41.8753230" lon="-8.8389490">
        <ele>7.9</ele>
        <time>2021-05-18T12:29:36Z</time>
      </trkpt>
      <trkpt lat="41.8753230" lon="-8.8389490">
        <ele>7.9</ele>
        <time>2021-05-18T12:29:37Z</time>
      </trkpt>
      <trkpt lat="41.8753230" lon="-8.8389490">
        <ele>7.9</ele>
        <time>2021-05-18T12:29:38Z</time>
      </trkpt>
      <trkpt lat="41.8753230" lon="-8.8389490">
        <ele>7.9</ele>
        <time>2021-05-18T12:29:39Z</time>
      </trkpt>
      <trkpt lat="41.8753230" lon="-8.8389490">
        <ele>7.9</ele>
        <time>2021-05-18T12:29:40Z</time>
      </trkpt>
      <trkpt lat="41.8753230" lon="-8.8389490">
        <ele>7.9</ele>
        <time>2021-05-18T12:29:41Z</time>
      </trkpt>
      <trkpt lat="41.8753230" lon="-8.8389490">
        <ele>7.9</ele>
        <time>2021-05-18T12:29:42Z</time>
      </trkpt>
      <trkpt lat="41.8753230" lon="-8.8389490">
        <ele>7.9</ele>
        <time>2021-05-18T12:29:43Z</time>
      </trkpt>
      <trkpt lat="41.8753230" lon="-8.8389490">
        <ele>7.9</ele>
        <time>2021-05-18T12:29:44Z</time>
      </trkpt>
      <trkpt lat="41.8753230" lon="-8.8389490">
        <ele>7.9</ele>
        <time>2021-05-18T12:29:45Z</time>
      </trkpt>
      <trkpt lat="41.8753230" lon="-8.8389490">
        <ele>7.9</ele>
        <time>2021-05-18T12:29:46Z</time>
      </trkpt>
      <trkpt lat="41.8753230" lon="-8.8389490">
        <ele>7.9</ele>
        <time>2021-05-18T12:29:47Z</time>
      </trkpt>
      <trkpt lat="41.8753230" lon="-8.8389490">
        <ele>7.9</ele>
        <time>2021-05-18T12:29:48Z</time>
      </trkpt>
      <trkpt lat="41.8753230" lon="-8.8389490">
        <ele>7.9</ele>
        <time>2021-05-18T12:29:49Z</time>
      </trkpt>
      <trkpt lat="41.8753230" lon="-8.8389490">
        <ele>7.9</ele>
        <time>2021-05-18T12:29:50Z</time>
      </trkpt>
      <trkpt lat="41.8753230" lon="-8.8389490">
        <ele>7.9</ele>
        <time>2021-05-18T12:29:51Z</time>
      </trkpt>
      <trkpt lat="41.8753230" lon="-8.8389490">
        <ele>7.9</ele>
        <time>2021-05-18T12:29:52Z</time>
      </trkpt>
      <trkpt lat="41.8753230" lon="-8.8389490">
        <ele>7.9</ele>
        <time>2021-05-18T12:29:53Z</time>
      </trkpt>
      <trkpt lat="41.8753230" lon="-8.8389490">
        <ele>7.9</ele>
        <time>2021-05-18T12:29:54Z</time>
      </trkpt>
      <trkpt lat="41.8753230" lon="-8.8389490">
        <ele>7.9</ele>
        <time>2021-05-18T12:29:55Z</time>
      </trkpt>
      <trkpt lat="41.8753230" lon="-8.8389490">
        <ele>7.9</ele>
        <time>2021-05-18T12:29:56Z</time>
      </trkpt>
      <trkpt lat="41.8753230" lon="-8.8389490">
        <ele>7.9</ele>
        <time>2021-05-18T12:29:57Z</time>
      </trkpt>
      <trkpt lat="41.8753230" lon="-8.8389490">
        <ele>7.9</ele>
        <time>2021-05-18T12:29:58Z</time>
      </trkpt>
      <trkpt lat="41.8753230" lon="-8.8389490">
        <ele>7.9</ele>
        <time>2021-05-18T12:29:59Z</time>
      </trkpt>
      <trkpt lat="41.8753230" lon="-8.8389490">
        <ele>7.9</ele>
        <time>2021-05-18T12:30:00Z</time>
      </trkpt>
      <trkpt lat="41.8753230" lon="-8.8389490">
        <ele>7.9</ele>
        <time>2021-05-18T12:30:01Z</time>
      </trkpt>
      <trkpt lat="41.8753230" lon="-8.8389490">
        <ele>7.9</ele>
        <time>2021-05-18T12:30:02Z</time>
      </trkpt>
      <trkpt lat="41.8753230" lon="-8.8389490">
        <ele>7.9</ele>
        <time>2021-05-18T12:30:03Z</time>
      </trkpt>
      <trkpt lat="41.8753230" lon="-8.8389490">
        <ele>7.9</ele>
        <time>2021-05-18T12:30:04Z</time>
      </trkpt>
      <trkpt lat="41.8753230" lon="-8.8389490">
        <ele>7.9</ele>
        <time>2021-05-18T12:30:05Z</time>
      </trkpt>
      <trkpt lat="41.8753230" lon="-8.8389490">
        <ele>7.9</ele>
        <time>2021-05-18T12:30:06Z</time>
      </trkpt>
      <trkpt lat="41.8753230" lon="-8.8389490">
        <ele>7.9</ele>
        <time>2021-05-18T12:30:07Z</time>
      </trkpt>
      <trkpt lat="41.8753230" lon="-8.8389490">
        <ele>7.9</ele>
        <time>2021-05-18T12:30:08Z</time>
      </trkpt>
      <trkpt lat="41.8753230" lon="-8.8389490">
        <ele>7.9</ele>
        <time>2021-05-18T12:30:09Z</time>
      </trkpt>
      <trkpt lat="41.8753230" lon="-8.8389490">
        <ele>7.9</ele>
        <time>2021-05-18T12:30:10Z</time>
      </trkpt>
      <trkpt lat="41.8753230" lon="-8.8389490">
        <ele>7.9</ele>
        <time>2021-05-18T12:30:11Z</time>
      </trkpt>
      <trkpt lat="41.8753230" lon="-8.8389490">
        <ele>7.9</ele>
        <time>2021-05-18T12:30:12Z</time>
      </trkpt>
      <trkpt lat="41.8753230" lon="-8.8389490">
        <ele>7.9</ele>
        <time>2021-05-18T12:30:13Z</time>
      </trkpt>
      <trkpt lat="41.8753230" lon="-8.8389490">
        <ele>7.9</ele>
        <time>2021-05-18T12:30:14Z</time>
      </trkpt>
      <trkpt lat="41.8753230" lon="-8.8389490">
        <ele>7.9</ele>
        <time>2021-05-18T12:30:15Z</time>
      </trkpt>
      <trkpt lat="41.8753230" lon="-8.8389490">
        <ele>7.9</ele>
        <time>2021-05-18T12:30:16Z</time>
      </trkpt>
      <trkpt lat="41.8753230" lon="-8.8389490">
        <ele>7.9</ele>
        <time>2021-05-18T12:30:17Z</time>
      </trkpt>
      <trkpt lat="41.8753230" lon="-8.8389490">
        <ele>7.9</ele>
        <time>2021-05-18T12:30:18Z</time>
      </trkpt>
      <trkpt lat="41.8753230" lon="-8.8389490">
        <ele>7.9</ele>
        <time>2021-05-18T12:30:19Z</time>
      </trkpt>
      <trkpt lat="41.8753230" lon="-8.8389490">
        <ele>7.9</ele>
        <time>2021-05-18T12:30:20Z</time>
      </trkpt>
      <trkpt lat="41.8753230" lon="-8.8389490">
        <ele>7.9</ele>
        <time>2021-05-18T12:30:21Z</time>
      </trkpt>
      <trkpt lat="41.8753230" lon="-8.8389490">
        <ele>7.9</ele>
        <time>2021-05-18T12:30:22Z</time>
      </trkpt>
      <trkpt lat="41.8753230" lon="-8.8389490">
        <ele>7.9</ele>
        <time>2021-05-18T12:30:23Z</time>
      </trkpt>
      <trkpt lat="41.8753230" lon="-8.8389490">
        <ele>7.9</ele>
        <time>2021-05-18T12:30:24Z</time>
      </trkpt>
      <trkpt lat="41.8753230" lon="-8.8389490">
        <ele>7.9</ele>
        <time>2021-05-18T12:30:25Z</time>
      </trkpt>
      <trkpt lat="41.8753230" lon="-8.8389490">
        <ele>7.9</ele>
        <time>2021-05-18T12:30:26Z</time>
      </trkpt>
      <trkpt lat="41.8753230" lon="-8.8389490">
        <ele>7.9</ele>
        <time>2021-05-18T12:30:27Z</time>
      </trkpt>
      <trkpt lat="41.8753230" lon="-8.8389490">
        <ele>7.9</ele>
        <time>2021-05-18T12:30:28Z</time>
      </trkpt>
      <trkpt lat="41.8753230" lon="-8.8389490">
        <ele>7.9</ele>
        <time>2021-05-18T12:30:29Z</time>
      </trkpt>
      <trkpt lat="41.8753230" lon="-8.8389490">
        <ele>7.9</ele>
        <time>2021-05-18T12:30:30Z</time>
      </trkpt>
      <trkpt lat="41.8753230" lon="-8.8389490">
        <ele>7.9</ele>
        <time>2021-05-18T12:30:31Z</time>
      </trkpt>
      <trkpt lat="41.8753230" lon="-8.8389490">
        <ele>7.9</ele>
        <time>2021-05-18T12:30:32Z</time>
      </trkpt>
      <trkpt lat="41.8753230" lon="-8.8389490">
        <ele>7.9</ele>
        <time>2021-05-18T12:30:33Z</time>
      </trkpt>
      <trkpt lat="41.8753230" lon="-8.8389490">
        <ele>7.9</ele>
        <time>2021-05-18T12:30:34Z</time>
      </trkpt>
      <trkpt lat="41.8753230" lon="-8.8389490">
        <ele>7.9</ele>
        <time>2021-05-18T12:30:35Z</time>
      </trkpt>
      <trkpt lat="41.8753230" lon="-8.8389490">
        <ele>7.9</ele>
        <time>2021-05-18T12:30:36Z</time>
      </trkpt>
      <trkpt lat="41.8753230" lon="-8.8389490">
        <ele>7.9</ele>
        <time>2021-05-18T12:30:37Z</time>
      </trkpt>
      <trkpt lat="41.8753230" lon="-8.8389490">
        <ele>7.9</ele>
        <time>2021-05-18T12:30:38Z</time>
      </trkpt>
      <trkpt lat="41.8753230" lon="-8.8389490">
        <ele>7.9</ele>
        <time>2021-05-18T12:30:39Z</time>
      </trkpt>
      <trkpt lat="41.8753230" lon="-8.8389490">
        <ele>7.9</ele>
        <time>2021-05-18T12:30:40Z</time>
      </trkpt>
      <trkpt lat="41.8753230" lon="-8.8389490">
        <ele>7.9</ele>
        <time>2021-05-18T12:30:41Z</time>
      </trkpt>
      <trkpt lat="41.8753230" lon="-8.8389490">
        <ele>7.9</ele>
        <time>2021-05-18T12:30:42Z</time>
      </trkpt>
      <trkpt lat="41.8753230" lon="-8.8389490">
        <ele>7.9</ele>
        <time>2021-05-18T12:30:43Z</time>
      </trkpt>
      <trkpt lat="41.8753230" lon="-8.8389490">
        <ele>7.9</ele>
        <time>2021-05-18T12:30:44Z</time>
      </trkpt>
      <trkpt lat="41.8753230" lon="-8.8389490">
        <ele>7.9</ele>
        <time>2021-05-18T12:30:45Z</time>
      </trkpt>
      <trkpt lat="41.8753230" lon="-8.8389490">
        <ele>7.9</ele>
        <time>2021-05-18T12:30:46Z</time>
      </trkpt>
      <trkpt lat="41.8753230" lon="-8.8389490">
        <ele>7.9</ele>
        <time>2021-05-18T12:30:47Z</time>
      </trkpt>
      <trkpt lat="41.8753230" lon="-8.8389490">
        <ele>7.9</ele>
        <time>2021-05-18T12:30:48Z</time>
      </trkpt>
      <trkpt lat="41.8753230" lon="-8.8389490">
        <ele>7.9</ele>
        <time>2021-05-18T12:30:49Z</time>
      </trkpt>
      <trkpt lat="41.8753230" lon="-8.8389490">
        <ele>7.9</ele>
        <time>2021-05-18T12:30:50Z</time>
      </trkpt>
      <trkpt lat="41.8753230" lon="-8.8389490">
        <ele>7.9</ele>
        <time>2021-05-18T12:30:51Z</time>
      </trkpt>
      <trkpt lat="41.8753230" lon="-8.8389490">
        <ele>7.9</ele>
        <time>2021-05-18T12:30:53Z</time>
      </trkpt>
      <trkpt lat="41.8753230" lon="-8.8389490">
        <ele>7.9</ele>
        <time>2021-05-18T12:30:54Z</time>
      </trkpt>
      <trkpt lat="41.8753230" lon="-8.8389490">
        <ele>7.9</ele>
        <time>2021-05-18T12:30:55Z</time>
      </trkpt>
      <trkpt lat="41.8753230" lon="-8.8389490">
        <ele>7.9</ele>
        <time>2021-05-18T12:30:56Z</time>
      </trkpt>
      <trkpt lat="41.8753230" lon="-8.8389490">
        <ele>7.9</ele>
        <time>2021-05-18T12:30:57Z</time>
      </trkpt>
      <trkpt lat="41.8753230" lon="-8.8389490">
        <ele>7.9</ele>
        <time>2021-05-18T12:30:58Z</time>
      </trkpt>
      <trkpt lat="41.8753230" lon="-8.8389490">
        <ele>7.9</ele>
        <time>2021-05-18T12:30:59Z</time>
      </trkpt>
      <trkpt lat="41.8753230" lon="-8.8389490">
        <ele>7.9</ele>
        <time>2021-05-18T12:31:00Z</time>
      </trkpt>
      <trkpt lat="41.8753230" lon="-8.8389490">
        <ele>7.9</ele>
        <time>2021-05-18T12:31:01Z</time>
      </trkpt>
      <trkpt lat="41.8753230" lon="-8.8389490">
        <ele>7.9</ele>
        <time>2021-05-18T12:31:02Z</time>
      </trkpt>
      <trkpt lat="41.8753230" lon="-8.8389490">
        <ele>7.9</ele>
        <time>2021-05-18T12:31:03Z</time>
      </trkpt>
      <trkpt lat="41.8753230" lon="-8.8389490">
        <ele>7.9</ele>
        <time>2021-05-18T12:31:04Z</time>
      </trkpt>
      <trkpt lat="41.8753230" lon="-8.8389490">
        <ele>7.9</ele>
        <time>2021-05-18T12:31:05Z</time>
      </trkpt>
      <trkpt lat="41.8753230" lon="-8.8389490">
        <ele>7.9</ele>
        <time>2021-05-18T12:31:06Z</time>
      </trkpt>
      <trkpt lat="41.8753230" lon="-8.8389490">
        <ele>7.9</ele>
        <time>2021-05-18T12:31:07Z</time>
      </trkpt>
      <trkpt lat="41.8753230" lon="-8.8389490">
        <ele>7.9</ele>
        <time>2021-05-18T12:31:08Z</time>
      </trkpt>
      <trkpt lat="41.8753230" lon="-8.8389490">
        <ele>7.9</ele>
        <time>2021-05-18T12:31:09Z</time>
      </trkpt>
      <trkpt lat="41.8753230" lon="-8.8389490">
        <ele>7.9</ele>
        <time>2021-05-18T12:31:10Z</time>
      </trkpt>
      <trkpt lat="41.8753230" lon="-8.8389490">
        <ele>7.9</ele>
        <time>2021-05-18T12:31:11Z</time>
      </trkpt>
      <trkpt lat="41.8753230" lon="-8.8389490">
        <ele>7.9</ele>
        <time>2021-05-18T12:31:12Z</time>
      </trkpt>
      <trkpt lat="41.8753230" lon="-8.8389490">
        <ele>7.9</ele>
        <time>2021-05-18T12:31:13Z</time>
      </trkpt>
      <trkpt lat="41.8753230" lon="-8.8389490">
        <ele>7.9</ele>
        <time>2021-05-18T12:31:14Z</time>
      </trkpt>
      <trkpt lat="41.8753230" lon="-8.8389490">
        <ele>7.9</ele>
        <time>2021-05-18T12:31:15Z</time>
      </trkpt>
      <trkpt lat="41.8753230" lon="-8.8389490">
        <ele>7.9</ele>
        <time>2021-05-18T12:31:16Z</time>
      </trkpt>
      <trkpt lat="41.8753230" lon="-8.8389490">
        <ele>7.9</ele>
        <time>2021-05-18T12:31:17Z</time>
      </trkpt>
      <trkpt lat="41.8753230" lon="-8.8389490">
        <ele>7.9</ele>
        <time>2021-05-18T12:31:18Z</time>
      </trkpt>
      <trkpt lat="41.8753230" lon="-8.8389490">
        <ele>7.9</ele>
        <time>2021-05-18T12:31:19Z</time>
      </trkpt>
      <trkpt lat="41.8753230" lon="-8.8389490">
        <ele>7.9</ele>
        <time>2021-05-18T12:31:20Z</time>
      </trkpt>
      <trkpt lat="41.8753230" lon="-8.8389490">
        <ele>7.9</ele>
        <time>2021-05-18T12:31:21Z</time>
      </trkpt>
      <trkpt lat="41.8753230" lon="-8.8389490">
        <ele>7.9</ele>
        <time>2021-05-18T12:31:22Z</time>
      </trkpt>
      <trkpt lat="41.8753230" lon="-8.8389490">
        <ele>7.9</ele>
        <time>2021-05-18T12:31:23Z</time>
      </trkpt>
      <trkpt lat="41.8753230" lon="-8.8389490">
        <ele>7.9</ele>
        <time>2021-05-18T12:31:24Z</time>
      </trkpt>
      <trkpt lat="41.8753230" lon="-8.8389490">
        <ele>7.9</ele>
        <time>2021-05-18T12:31:25Z</time>
      </trkpt>
      <trkpt lat="41.8753230" lon="-8.8389490">
        <ele>7.9</ele>
        <time>2021-05-18T12:31:26Z</time>
      </trkpt>
      <trkpt lat="41.8753230" lon="-8.8389490">
        <ele>7.9</ele>
        <time>2021-05-18T12:31:27Z</time>
      </trkpt>
      <trkpt lat="41.8753230" lon="-8.8389490">
        <ele>7.9</ele>
        <time>2021-05-18T12:31:28Z</time>
      </trkpt>
      <trkpt lat="41.8753230" lon="-8.8389490">
        <ele>7.9</ele>
        <time>2021-05-18T12:31:29Z</time>
      </trkpt>
      <trkpt lat="41.8753230" lon="-8.8389490">
        <ele>7.9</ele>
        <time>2021-05-18T12:31:30Z</time>
      </trkpt>
      <trkpt lat="41.8753230" lon="-8.8389490">
        <ele>7.9</ele>
        <time>2021-05-18T12:31:31Z</time>
      </trkpt>
      <trkpt lat="41.8753230" lon="-8.8389490">
        <ele>7.9</ele>
        <time>2021-05-18T12:31:32Z</time>
      </trkpt>
      <trkpt lat="41.8753230" lon="-8.8389490">
        <ele>7.9</ele>
        <time>2021-05-18T12:31:33Z</time>
      </trkpt>
      <trkpt lat="41.8753230" lon="-8.8389490">
        <ele>7.9</ele>
        <time>2021-05-18T12:31:34Z</time>
      </trkpt>
      <trkpt lat="41.8753230" lon="-8.8389490">
        <ele>7.9</ele>
        <time>2021-05-18T12:31:35Z</time>
      </trkpt>
      <trkpt lat="41.8753230" lon="-8.8389490">
        <ele>7.9</ele>
        <time>2021-05-18T12:31:36Z</time>
      </trkpt>
      <trkpt lat="41.8753230" lon="-8.8389490">
        <ele>7.9</ele>
        <time>2021-05-18T12:31:37Z</time>
      </trkpt>
      <trkpt lat="41.8753230" lon="-8.8389490">
        <ele>7.9</ele>
        <time>2021-05-18T12:31:38Z</time>
      </trkpt>
      <trkpt lat="41.8753230" lon="-8.8389490">
        <ele>7.9</ele>
        <time>2021-05-18T12:31:39Z</time>
      </trkpt>
      <trkpt lat="41.8753230" lon="-8.8389490">
        <ele>7.9</ele>
        <time>2021-05-18T12:31:40Z</time>
      </trkpt>
      <trkpt lat="41.8753230" lon="-8.8389490">
        <ele>7.9</ele>
        <time>2021-05-18T12:31:41Z</time>
      </trkpt>
      <trkpt lat="41.8753230" lon="-8.8389490">
        <ele>7.9</ele>
        <time>2021-05-18T12:31:42Z</time>
      </trkpt>
      <trkpt lat="41.8753230" lon="-8.8389490">
        <ele>7.9</ele>
        <time>2021-05-18T12:31:43Z</time>
      </trkpt>
      <trkpt lat="41.8753230" lon="-8.8389490">
        <ele>7.9</ele>
        <time>2021-05-18T12:31:44Z</time>
      </trkpt>
      <trkpt lat="41.8753230" lon="-8.8389490">
        <ele>7.9</ele>
        <time>2021-05-18T12:31:45Z</time>
      </trkpt>
      <trkpt lat="41.8753230" lon="-8.8389490">
        <ele>7.9</ele>
        <time>2021-05-18T12:31:46Z</time>
      </trkpt>
      <trkpt lat="41.8753230" lon="-8.8389490">
        <ele>7.9</ele>
        <time>2021-05-18T12:31:47Z</time>
      </trkpt>
      <trkpt lat="41.8753230" lon="-8.8389490">
        <ele>7.9</ele>
        <time>2021-05-18T12:31:48Z</time>
      </trkpt>
      <trkpt lat="41.8753230" lon="-8.8389490">
        <ele>7.9</ele>
        <time>2021-05-18T12:31:49Z</time>
      </trkpt>
      <trkpt lat="41.8753230" lon="-8.8389490">
        <ele>7.9</ele>
        <time>2021-05-18T12:31:50Z</time>
      </trkpt>
      <trkpt lat="41.8753230" lon="-8.8389490">
        <ele>7.9</ele>
        <time>2021-05-18T12:31:51Z</time>
      </trkpt>
      <trkpt lat="41.8753230" lon="-8.8389490">
        <ele>7.9</ele>
        <time>2021-05-18T12:31:52Z</time>
      </trkpt>
      <trkpt lat="41.8753230" lon="-8.8389490">
        <ele>7.9</ele>
        <time>2021-05-18T12:31:53Z</time>
      </trkpt>
      <trkpt lat="41.8753230" lon="-8.8389490">
        <ele>7.9</ele>
        <time>2021-05-18T12:31:54Z</time>
      </trkpt>
      <trkpt lat="41.8753230" lon="-8.8389490">
        <ele>7.9</ele>
        <time>2021-05-18T12:31:55Z</time>
      </trkpt>
      <trkpt lat="41.8753230" lon="-8.8389490">
        <ele>7.9</ele>
        <time>2021-05-18T12:31:56Z</time>
      </trkpt>
      <trkpt lat="41.8753230" lon="-8.8389490">
        <ele>7.9</ele>
        <time>2021-05-18T12:31:57Z</time>
      </trkpt>
      <trkpt lat="41.8753230" lon="-8.8389490">
        <ele>7.9</ele>
        <time>2021-05-18T12:31:58Z</time>
      </trkpt>
      <trkpt lat="41.8753230" lon="-8.8389490">
        <ele>7.9</ele>
        <time>2021-05-18T12:31:59Z</time>
      </trkpt>
      <trkpt lat="41.8753230" lon="-8.8389490">
        <ele>7.9</ele>
        <time>2021-05-18T12:32:00Z</time>
      </trkpt>
      <trkpt lat="41.8753230" lon="-8.8389490">
        <ele>7.9</ele>
        <time>2021-05-18T12:32:01Z</time>
      </trkpt>
      <trkpt lat="41.8753230" lon="-8.8389490">
        <ele>7.9</ele>
        <time>2021-05-18T12:32:02Z</time>
      </trkpt>
      <trkpt lat="41.8753230" lon="-8.8389490">
        <ele>7.9</ele>
        <time>2021-05-18T12:32:03Z</time>
      </trkpt>
      <trkpt lat="41.8753230" lon="-8.8389490">
        <ele>7.9</ele>
        <time>2021-05-18T12:32:04Z</time>
      </trkpt>
      <trkpt lat="41.8753230" lon="-8.8389490">
        <ele>7.9</ele>
        <time>2021-05-18T12:32:05Z</time>
      </trkpt>
      <trkpt lat="41.8753230" lon="-8.8389490">
        <ele>7.9</ele>
        <time>2021-05-18T12:32:06Z</time>
      </trkpt>
      <trkpt lat="41.8753230" lon="-8.8389490">
        <ele>7.9</ele>
        <time>2021-05-18T12:32:07Z</time>
      </trkpt>
      <trkpt lat="41.8753230" lon="-8.8389490">
        <ele>7.9</ele>
        <time>2021-05-18T12:32:08Z</time>
      </trkpt>
      <trkpt lat="41.8753230" lon="-8.8389490">
        <ele>7.9</ele>
        <time>2021-05-18T12:32:09Z</time>
      </trkpt>
      <trkpt lat="41.8753230" lon="-8.8389490">
        <ele>7.9</ele>
        <time>2021-05-18T12:32:10Z</time>
      </trkpt>
      <trkpt lat="41.8753230" lon="-8.8389490">
        <ele>7.9</ele>
        <time>2021-05-18T12:32:11Z</time>
      </trkpt>
      <trkpt lat="41.8753230" lon="-8.8389490">
        <ele>7.9</ele>
        <time>2021-05-18T12:32:12Z</time>
      </trkpt>
      <trkpt lat="41.8753230" lon="-8.8389490">
        <ele>7.9</ele>
        <time>2021-05-18T12:32:13Z</time>
      </trkpt>
      <trkpt lat="41.8753230" lon="-8.8389490">
        <ele>7.9</ele>
        <time>2021-05-18T12:32:14Z</time>
      </trkpt>
      <trkpt lat="41.8753230" lon="-8.8389490">
        <ele>7.9</ele>
        <time>2021-05-18T12:32:15Z</time>
      </trkpt>
      <trkpt lat="41.8753230" lon="-8.8389490">
        <ele>7.9</ele>
        <time>2021-05-18T12:32:16Z</time>
      </trkpt>
      <trkpt lat="41.8753230" lon="-8.8389490">
        <ele>7.9</ele>
        <time>2021-05-18T12:32:17Z</time>
      </trkpt>
      <trkpt lat="41.8753230" lon="-8.8389490">
        <ele>7.9</ele>
        <time>2021-05-18T12:32:18Z</time>
      </trkpt>
      <trkpt lat="41.8753230" lon="-8.8389490">
        <ele>7.9</ele>
        <time>2021-05-18T12:32:19Z</time>
      </trkpt>
      <trkpt lat="41.8753230" lon="-8.8389490">
        <ele>7.9</ele>
        <time>2021-05-18T12:32:20Z</time>
      </trkpt>
      <trkpt lat="41.8753230" lon="-8.8389490">
        <ele>7.9</ele>
        <time>2021-05-18T12:32:21Z</time>
      </trkpt>
      <trkpt lat="41.8753230" lon="-8.8389490">
        <ele>7.9</ele>
        <time>2021-05-18T12:32:22Z</time>
      </trkpt>
      <trkpt lat="41.8753230" lon="-8.8389490">
        <ele>7.9</ele>
        <time>2021-05-18T12:32:23Z</time>
      </trkpt>
      <trkpt lat="41.8753230" lon="-8.8389490">
        <ele>7.9</ele>
        <time>2021-05-18T12:32:24Z</time>
      </trkpt>
      <trkpt lat="41.8753230" lon="-8.8389490">
        <ele>7.9</ele>
        <time>2021-05-18T12:32:25Z</time>
      </trkpt>
      <trkpt lat="41.8753230" lon="-8.8389490">
        <ele>7.9</ele>
        <time>2021-05-18T12:32:26Z</time>
      </trkpt>
      <trkpt lat="41.8753230" lon="-8.8389490">
        <ele>7.9</ele>
        <time>2021-05-18T12:32:27Z</time>
      </trkpt>
      <trkpt lat="41.8753230" lon="-8.8389490">
        <ele>7.9</ele>
        <time>2021-05-18T12:32:28Z</time>
      </trkpt>
      <trkpt lat="41.8753230" lon="-8.8389490">
        <ele>7.9</ele>
        <time>2021-05-18T12:32:29Z</time>
      </trkpt>
      <trkpt lat="41.8753230" lon="-8.8389490">
        <ele>7.9</ele>
        <time>2021-05-18T12:32:30Z</time>
      </trkpt>
      <trkpt lat="41.8753230" lon="-8.8389490">
        <ele>7.9</ele>
        <time>2021-05-18T12:32:31Z</time>
      </trkpt>
      <trkpt lat="41.8753230" lon="-8.8389490">
        <ele>7.9</ele>
        <time>2021-05-18T12:32:32Z</time>
      </trkpt>
      <trkpt lat="41.8753230" lon="-8.8389490">
        <ele>7.9</ele>
        <time>2021-05-18T12:32:33Z</time>
      </trkpt>
      <trkpt lat="41.8753230" lon="-8.8389490">
        <ele>7.9</ele>
        <time>2021-05-18T12:32:34Z</time>
      </trkpt>
      <trkpt lat="41.8753230" lon="-8.8389490">
        <ele>7.9</ele>
        <time>2021-05-18T12:32:35Z</time>
      </trkpt>
      <trkpt lat="41.8753310" lon="-8.8389310">
        <ele>7.9</ele>
        <time>2021-05-18T12:32:36Z</time>
      </trkpt>
      <trkpt lat="41.8753310" lon="-8.8389320">
        <ele>7.9</ele>
        <time>2021-05-18T12:32:37Z</time>
      </trkpt>
      <trkpt lat="41.8753310" lon="-8.8389320">
        <ele>7.9</ele>
        <time>2021-05-18T12:32:38Z</time>
      </trkpt>
      <trkpt lat="41.8753310" lon="-8.8389320">
        <ele>7.9</ele>
        <time>2021-05-18T12:32:39Z</time>
      </trkpt>
      <trkpt lat="41.8753310" lon="-8.8389320">
        <ele>7.9</ele>
        <time>2021-05-18T12:32:40Z</time>
      </trkpt>
      <trkpt lat="41.8753310" lon="-8.8389320">
        <ele>7.9</ele>
        <time>2021-05-18T12:32:42Z</time>
      </trkpt>
      <trkpt lat="41.8753310" lon="-8.8389320">
        <ele>7.9</ele>
        <time>2021-05-18T12:32:43Z</time>
      </trkpt>
      <trkpt lat="41.8753310" lon="-8.8389320">
        <ele>7.9</ele>
        <time>2021-05-18T12:32:44Z</time>
      </trkpt>
      <trkpt lat="41.8753310" lon="-8.8389320">
        <ele>7.9</ele>
        <time>2021-05-18T12:32:45Z</time>
      </trkpt>
      <trkpt lat="41.8753310" lon="-8.8389320">
        <ele>7.9</ele>
        <time>2021-05-18T12:32:46Z</time>
      </trkpt>
      <trkpt lat="41.8753310" lon="-8.8389320">
        <ele>7.9</ele>
        <time>2021-05-18T12:32:47Z</time>
      </trkpt>
      <trkpt lat="41.8753310" lon="-8.8389320">
        <ele>7.9</ele>
        <time>2021-05-18T12:32:48Z</time>
      </trkpt>
      <trkpt lat="41.8753310" lon="-8.8389320">
        <ele>7.9</ele>
        <time>2021-05-18T12:32:49Z</time>
      </trkpt>
      <trkpt lat="41.8753310" lon="-8.8389320">
        <ele>7.9</ele>
        <time>2021-05-18T12:32:50Z</time>
      </trkpt>
      <trkpt lat="41.8753310" lon="-8.8389320">
        <ele>7.9</ele>
        <time>2021-05-18T12:32:51Z</time>
      </trkpt>
      <trkpt lat="41.8753310" lon="-8.8389320">
        <ele>7.9</ele>
        <time>2021-05-18T12:32:52Z</time>
      </trkpt>
      <trkpt lat="41.8753310" lon="-8.8389320">
        <ele>7.9</ele>
        <time>2021-05-18T12:32:53Z</time>
      </trkpt>
      <trkpt lat="41.8753310" lon="-8.8389320">
        <ele>7.9</ele>
        <time>2021-05-18T12:32:54Z</time>
      </trkpt>
      <trkpt lat="41.8753310" lon="-8.8389320">
        <ele>7.9</ele>
        <time>2021-05-18T12:32:55Z</time>
      </trkpt>
      <trkpt lat="41.8753310" lon="-8.8389320">
        <ele>7.9</ele>
        <time>2021-05-18T12:32:56Z</time>
      </trkpt>
      <trkpt lat="41.8753310" lon="-8.8389320">
        <ele>7.9</ele>
        <time>2021-05-18T12:32:57Z</time>
      </trkpt>
      <trkpt lat="41.8753310" lon="-8.8389320">
        <ele>7.9</ele>
        <time>2021-05-18T12:32:58Z</time>
      </trkpt>
      <trkpt lat="41.8753310" lon="-8.8389320">
        <ele>7.9</ele>
        <time>2021-05-18T12:32:59Z</time>
      </trkpt>
      <trkpt lat="41.8753310" lon="-8.8389320">
        <ele>7.9</ele>
        <time>2021-05-18T12:33:00Z</time>
      </trkpt>
      <trkpt lat="41.8753310" lon="-8.8389320">
        <ele>7.9</ele>
        <time>2021-05-18T12:33:01Z</time>
      </trkpt>
      <trkpt lat="41.8753310" lon="-8.8389320">
        <ele>7.9</ele>
        <time>2021-05-18T12:33:02Z</time>
      </trkpt>
      <trkpt lat="41.8753310" lon="-8.8389320">
        <ele>7.9</ele>
        <time>2021-05-18T12:33:03Z</time>
      </trkpt>
      <trkpt lat="41.8753310" lon="-8.8389320">
        <ele>7.9</ele>
        <time>2021-05-18T12:33:04Z</time>
      </trkpt>
      <trkpt lat="41.8753310" lon="-8.8389320">
        <ele>7.9</ele>
        <time>2021-05-18T12:33:05Z</time>
      </trkpt>
      <trkpt lat="41.8753310" lon="-8.8389320">
        <ele>7.9</ele>
        <time>2021-05-18T12:33:06Z</time>
      </trkpt>
      <trkpt lat="41.8753310" lon="-8.8389320">
        <ele>7.9</ele>
        <time>2021-05-18T12:33:07Z</time>
      </trkpt>
      <trkpt lat="41.8753310" lon="-8.8389320">
        <ele>7.9</ele>
        <time>2021-05-18T12:33:08Z</time>
      </trkpt>
      <trkpt lat="41.8753310" lon="-8.8389320">
        <ele>7.9</ele>
        <time>2021-05-18T12:33:09Z</time>
      </trkpt>
      <trkpt lat="41.8753310" lon="-8.8389320">
        <ele>7.9</ele>
        <time>2021-05-18T12:33:10Z</time>
      </trkpt>
      <trkpt lat="41.8753310" lon="-8.8389320">
        <ele>7.9</ele>
        <time>2021-05-18T12:33:11Z</time>
      </trkpt>
      <trkpt lat="41.8753310" lon="-8.8389320">
        <ele>7.9</ele>
        <time>2021-05-18T12:33:12Z</time>
      </trkpt>
      <trkpt lat="41.8753310" lon="-8.8389320">
        <ele>7.9</ele>
        <time>2021-05-18T12:33:13Z</time>
      </trkpt>
      <trkpt lat="41.8753310" lon="-8.8389320">
        <ele>7.9</ele>
        <time>2021-05-18T12:33:14Z</time>
      </trkpt>
      <trkpt lat="41.8753310" lon="-8.8389320">
        <ele>7.9</ele>
        <time>2021-05-18T12:33:15Z</time>
      </trkpt>
      <trkpt lat="41.8753310" lon="-8.8389320">
        <ele>7.9</ele>
        <time>2021-05-18T12:33:16Z</time>
      </trkpt>
      <trkpt lat="41.8753310" lon="-8.8389320">
        <ele>7.9</ele>
        <time>2021-05-18T12:33:17Z</time>
      </trkpt>
      <trkpt lat="41.8753310" lon="-8.8389320">
        <ele>7.9</ele>
        <time>2021-05-18T12:33:18Z</time>
      </trkpt>
      <trkpt lat="41.8753310" lon="-8.8389320">
        <ele>7.9</ele>
        <time>2021-05-18T12:33:19Z</time>
      </trkpt>
      <trkpt lat="41.8753310" lon="-8.8389320">
        <ele>7.9</ele>
        <time>2021-05-18T12:33:20Z</time>
      </trkpt>
      <trkpt lat="41.8753310" lon="-8.8389320">
        <ele>7.9</ele>
        <time>2021-05-18T12:33:21Z</time>
      </trkpt>
      <trkpt lat="41.8753310" lon="-8.8389320">
        <ele>7.9</ele>
        <time>2021-05-18T12:33:22Z</time>
      </trkpt>
      <trkpt lat="41.8753310" lon="-8.8389320">
        <ele>7.9</ele>
        <time>2021-05-18T12:33:23Z</time>
      </trkpt>
      <trkpt lat="41.8753310" lon="-8.8389320">
        <ele>7.9</ele>
        <time>2021-05-18T12:33:24Z</time>
      </trkpt>
      <trkpt lat="41.8753310" lon="-8.8389320">
        <ele>7.9</ele>
        <time>2021-05-18T12:33:25Z</time>
      </trkpt>
      <trkpt lat="41.8753310" lon="-8.8389320">
        <ele>7.9</ele>
        <time>2021-05-18T12:33:26Z</time>
      </trkpt>
      <trkpt lat="41.8753310" lon="-8.8389320">
        <ele>7.9</ele>
        <time>2021-05-18T12:33:27Z</time>
      </trkpt>
      <trkpt lat="41.8753310" lon="-8.8389320">
        <ele>7.9</ele>
        <time>2021-05-18T12:33:28Z</time>
      </trkpt>
      <trkpt lat="41.8753310" lon="-8.8389320">
        <ele>7.9</ele>
        <time>2021-05-18T12:33:29Z</time>
      </trkpt>
      <trkpt lat="41.8753310" lon="-8.8389320">
        <ele>7.9</ele>
        <time>2021-05-18T12:33:30Z</time>
      </trkpt>
      <trkpt lat="41.8753310" lon="-8.8389320">
        <ele>7.9</ele>
        <time>2021-05-18T12:33:31Z</time>
      </trkpt>
      <trkpt lat="41.8753310" lon="-8.8389320">
        <ele>7.9</ele>
        <time>2021-05-18T12:33:32Z</time>
      </trkpt>
      <trkpt lat="41.8753310" lon="-8.8389320">
        <ele>7.9</ele>
        <time>2021-05-18T12:33:33Z</time>
      </trkpt>
      <trkpt lat="41.8753310" lon="-8.8389320">
        <ele>7.9</ele>
        <time>2021-05-18T12:33:34Z</time>
      </trkpt>
      <trkpt lat="41.8753310" lon="-8.8389320">
        <ele>7.9</ele>
        <time>2021-05-18T12:33:35Z</time>
      </trkpt>
      <trkpt lat="41.8753310" lon="-8.8389320">
        <ele>7.9</ele>
        <time>2021-05-18T12:33:36Z</time>
      </trkpt>
      <trkpt lat="41.8753310" lon="-8.8389320">
        <ele>7.9</ele>
        <time>2021-05-18T12:33:37Z</time>
      </trkpt>
      <trkpt lat="41.8753310" lon="-8.8389320">
        <ele>7.9</ele>
        <time>2021-05-18T12:33:38Z</time>
      </trkpt>
      <trkpt lat="41.8753310" lon="-8.8389320">
        <ele>7.9</ele>
        <time>2021-05-18T12:33:39Z</time>
      </trkpt>
      <trkpt lat="41.8753310" lon="-8.8389320">
        <ele>7.9</ele>
        <time>2021-05-18T12:33:40Z</time>
      </trkpt>
      <trkpt lat="41.8753310" lon="-8.8389320">
        <ele>7.9</ele>
        <time>2021-05-18T12:33:41Z</time>
      </trkpt>
      <trkpt lat="41.8753310" lon="-8.8389320">
        <ele>7.9</ele>
        <time>2021-05-18T12:33:42Z</time>
      </trkpt>
      <trkpt lat="41.8753310" lon="-8.8389320">
        <ele>7.9</ele>
        <time>2021-05-18T12:33:43Z</time>
      </trkpt>
      <trkpt lat="41.8753310" lon="-8.8389320">
        <ele>7.9</ele>
        <time>2021-05-18T12:33:44Z</time>
      </trkpt>
      <trkpt lat="41.8753310" lon="-8.8389320">
        <ele>7.9</ele>
        <time>2021-05-18T12:33:45Z</time>
      </trkpt>
      <trkpt lat="41.8753310" lon="-8.8389320">
        <ele>7.9</ele>
        <time>2021-05-18T12:33:46Z</time>
      </trkpt>
      <trkpt lat="41.8753310" lon="-8.8389320">
        <ele>7.9</ele>
        <time>2021-05-18T12:33:47Z</time>
      </trkpt>
      <trkpt lat="41.8753310" lon="-8.8389320">
        <ele>7.9</ele>
        <time>2021-05-18T12:33:48Z</time>
      </trkpt>
      <trkpt lat="41.8753310" lon="-8.8389320">
        <ele>7.9</ele>
        <time>2021-05-18T12:33:49Z</time>
      </trkpt>
      <trkpt lat="41.8753310" lon="-8.8389320">
        <ele>7.9</ele>
        <time>2021-05-18T12:33:50Z</time>
      </trkpt>
      <trkpt lat="41.8753310" lon="-8.8389320">
        <ele>7.9</ele>
        <time>2021-05-18T12:33:51Z</time>
      </trkpt>
      <trkpt lat="41.8753310" lon="-8.8389320">
        <ele>7.9</ele>
        <time>2021-05-18T12:33:52Z</time>
      </trkpt>
      <trkpt lat="41.8753310" lon="-8.8389320">
        <ele>7.9</ele>
        <time>2021-05-18T12:33:53Z</time>
      </trkpt>
      <trkpt lat="41.8753310" lon="-8.8389320">
        <ele>7.9</ele>
        <time>2021-05-18T12:33:54Z</time>
      </trkpt>
      <trkpt lat="41.8753310" lon="-8.8389320">
        <ele>7.9</ele>
        <time>2021-05-18T12:33:55Z</time>
      </trkpt>
      <trkpt lat="41.8753310" lon="-8.8389320">
        <ele>7.9</ele>
        <time>2021-05-18T12:33:56Z</time>
      </trkpt>
      <trkpt lat="41.8753310" lon="-8.8389320">
        <ele>7.9</ele>
        <time>2021-05-18T12:33:57Z</time>
      </trkpt>
      <trkpt lat="41.8753310" lon="-8.8389320">
        <ele>7.9</ele>
        <time>2021-05-18T12:33:58Z</time>
      </trkpt>
      <trkpt lat="41.8753310" lon="-8.8389320">
        <ele>7.9</ele>
        <time>2021-05-18T12:33:59Z</time>
      </trkpt>
      <trkpt lat="41.8753310" lon="-8.8389320">
        <ele>7.9</ele>
        <time>2021-05-18T12:34:00Z</time>
      </trkpt>
      <trkpt lat="41.8753310" lon="-8.8389320">
        <ele>7.9</ele>
        <time>2021-05-18T12:34:01Z</time>
      </trkpt>
      <trkpt lat="41.8753310" lon="-8.8389320">
        <ele>7.9</ele>
        <time>2021-05-18T12:34:02Z</time>
      </trkpt>
      <trkpt lat="41.8753310" lon="-8.8389320">
        <ele>7.9</ele>
        <time>2021-05-18T12:34:03Z</time>
      </trkpt>
      <trkpt lat="41.8753310" lon="-8.8389320">
        <ele>7.9</ele>
        <time>2021-05-18T12:34:04Z</time>
      </trkpt>
      <trkpt lat="41.8753310" lon="-8.8389320">
        <ele>7.9</ele>
        <time>2021-05-18T12:34:05Z</time>
      </trkpt>
      <trkpt lat="41.8753310" lon="-8.8389320">
        <ele>7.9</ele>
        <time>2021-05-18T12:34:06Z</time>
      </trkpt>
      <trkpt lat="41.8753310" lon="-8.8389320">
        <ele>7.9</ele>
        <time>2021-05-18T12:34:07Z</time>
      </trkpt>
      <trkpt lat="41.8753310" lon="-8.8389320">
        <ele>7.9</ele>
        <time>2021-05-18T12:34:08Z</time>
      </trkpt>
      <trkpt lat="41.8753310" lon="-8.8389320">
        <ele>7.9</ele>
        <time>2021-05-18T12:34:09Z</time>
      </trkpt>
      <trkpt lat="41.8753310" lon="-8.8389320">
        <ele>7.9</ele>
        <time>2021-05-18T12:34:10Z</time>
      </trkpt>
      <trkpt lat="41.8753310" lon="-8.8389320">
        <ele>7.9</ele>
        <time>2021-05-18T12:34:11Z</time>
      </trkpt>
      <trkpt lat="41.8753310" lon="-8.8389320">
        <ele>7.9</ele>
        <time>2021-05-18T12:34:12Z</time>
      </trkpt>
      <trkpt lat="41.8753310" lon="-8.8389320">
        <ele>7.9</ele>
        <time>2021-05-18T12:34:13Z</time>
      </trkpt>
      <trkpt lat="41.8753310" lon="-8.8389320">
        <ele>7.9</ele>
        <time>2021-05-18T12:34:14Z</time>
      </trkpt>
      <trkpt lat="41.8753310" lon="-8.8389320">
        <ele>7.9</ele>
        <time>2021-05-18T12:34:15Z</time>
      </trkpt>
      <trkpt lat="41.8753310" lon="-8.8389320">
        <ele>7.9</ele>
        <time>2021-05-18T12:34:16Z</time>
      </trkpt>
      <trkpt lat="41.8753310" lon="-8.8389320">
        <ele>7.9</ele>
        <time>2021-05-18T12:34:17Z</time>
      </trkpt>
      <trkpt lat="41.8753310" lon="-8.8389320">
        <ele>7.9</ele>
        <time>2021-05-18T12:34:18Z</time>
      </trkpt>
      <trkpt lat="41.8753310" lon="-8.8389320">
        <ele>7.9</ele>
        <time>2021-05-18T12:34:19Z</time>
      </trkpt>
      <trkpt lat="41.8753310" lon="-8.8389320">
        <ele>7.9</ele>
        <time>2021-05-18T12:34:20Z</time>
      </trkpt>
      <trkpt lat="41.8753310" lon="-8.8389320">
        <ele>7.9</ele>
        <time>2021-05-18T12:34:21Z</time>
      </trkpt>
      <trkpt lat="41.8753310" lon="-8.8389320">
        <ele>7.9</ele>
        <time>2021-05-18T12:34:22Z</time>
      </trkpt>
      <trkpt lat="41.8753310" lon="-8.8389320">
        <ele>7.9</ele>
        <time>2021-05-18T12:34:23Z</time>
      </trkpt>
      <trkpt lat="41.8753310" lon="-8.8389320">
        <ele>7.9</ele>
        <time>2021-05-18T12:34:24Z</time>
      </trkpt>
      <trkpt lat="41.8753310" lon="-8.8389320">
        <ele>7.9</ele>
        <time>2021-05-18T12:34:25Z</time>
      </trkpt>
      <trkpt lat="41.8753310" lon="-8.8389320">
        <ele>7.9</ele>
        <time>2021-05-18T12:34:26Z</time>
      </trkpt>
      <trkpt lat="41.8753310" lon="-8.8389320">
        <ele>7.9</ele>
        <time>2021-05-18T12:34:27Z</time>
      </trkpt>
      <trkpt lat="41.8753310" lon="-8.8389320">
        <ele>7.9</ele>
        <time>2021-05-18T12:34:28Z</time>
      </trkpt>
      <trkpt lat="41.8753310" lon="-8.8389320">
        <ele>7.9</ele>
        <time>2021-05-18T12:34:29Z</time>
      </trkpt>
      <trkpt lat="41.8753310" lon="-8.8389320">
        <ele>7.9</ele>
        <time>2021-05-18T12:34:30Z</time>
      </trkpt>
      <trkpt lat="41.8753310" lon="-8.8389320">
        <ele>7.9</ele>
        <time>2021-05-18T12:34:31Z</time>
      </trkpt>
      <trkpt lat="41.8753310" lon="-8.8389320">
        <ele>7.9</ele>
        <time>2021-05-18T12:34:32Z</time>
      </trkpt>
      <trkpt lat="41.8753310" lon="-8.8389320">
        <ele>7.9</ele>
        <time>2021-05-18T12:34:33Z</time>
      </trkpt>
      <trkpt lat="41.8753310" lon="-8.8389320">
        <ele>7.9</ele>
        <time>2021-05-18T12:34:34Z</time>
      </trkpt>
      <trkpt lat="41.8753310" lon="-8.8389320">
        <ele>7.9</ele>
        <time>2021-05-18T12:34:35Z</time>
      </trkpt>
      <trkpt lat="41.8753310" lon="-8.8389320">
        <ele>7.9</ele>
        <time>2021-05-18T12:34:36Z</time>
      </trkpt>
      <trkpt lat="41.8753310" lon="-8.8389320">
        <ele>7.9</ele>
        <time>2021-05-18T12:34:37Z</time>
      </trkpt>
      <trkpt lat="41.8753310" lon="-8.8389320">
        <ele>7.9</ele>
        <time>2021-05-18T12:34:38Z</time>
      </trkpt>
      <trkpt lat="41.8753310" lon="-8.8389320">
        <ele>7.9</ele>
        <time>2021-05-18T12:34:39Z</time>
      </trkpt>
      <trkpt lat="41.8753310" lon="-8.8389320">
        <ele>7.9</ele>
        <time>2021-05-18T12:34:40Z</time>
      </trkpt>
      <trkpt lat="41.8753310" lon="-8.8389320">
        <ele>7.9</ele>
        <time>2021-05-18T12:34:41Z</time>
      </trkpt>
      <trkpt lat="41.8753310" lon="-8.8389320">
        <ele>7.9</ele>
        <time>2021-05-18T12:34:42Z</time>
      </trkpt>
      <trkpt lat="41.8753310" lon="-8.8389320">
        <ele>7.9</ele>
        <time>2021-05-18T12:34:43Z</time>
      </trkpt>
      <trkpt lat="41.8753310" lon="-8.8389320">
        <ele>7.9</ele>
        <time>2021-05-18T12:34:44Z</time>
      </trkpt>
      <trkpt lat="41.8753310" lon="-8.8389320">
        <ele>7.9</ele>
        <time>2021-05-18T12:34:45Z</time>
      </trkpt>
      <trkpt lat="41.8753310" lon="-8.8389320">
        <ele>7.9</ele>
        <time>2021-05-18T12:34:46Z</time>
      </trkpt>
      <trkpt lat="41.8753310" lon="-8.8389320">
        <ele>7.9</ele>
        <time>2021-05-18T12:34:47Z</time>
      </trkpt>
      <trkpt lat="41.8753310" lon="-8.8389320">
        <ele>7.9</ele>
        <time>2021-05-18T12:34:48Z</time>
      </trkpt>
      <trkpt lat="41.8753310" lon="-8.8389320">
        <ele>7.9</ele>
        <time>2021-05-18T12:34:50Z</time>
      </trkpt>
      <trkpt lat="41.8753310" lon="-8.8389320">
        <ele>7.9</ele>
        <time>2021-05-18T12:34:51Z</time>
      </trkpt>
      <trkpt lat="41.8753310" lon="-8.8389320">
        <ele>7.9</ele>
        <time>2021-05-18T12:34:52Z</time>
      </trkpt>
      <trkpt lat="41.8753310" lon="-8.8389320">
        <ele>7.9</ele>
        <time>2021-05-18T12:34:53Z</time>
      </trkpt>
      <trkpt lat="41.8753310" lon="-8.8389320">
        <ele>7.9</ele>
        <time>2021-05-18T12:34:54Z</time>
      </trkpt>
      <trkpt lat="41.8753310" lon="-8.8389320">
        <ele>7.9</ele>
        <time>2021-05-18T12:34:55Z</time>
      </trkpt>
      <trkpt lat="41.8753310" lon="-8.8389320">
        <ele>7.9</ele>
        <time>2021-05-18T12:34:56Z</time>
      </trkpt>
      <trkpt lat="41.8753310" lon="-8.8389320">
        <ele>7.9</ele>
        <time>2021-05-18T12:34:57Z</time>
      </trkpt>
      <trkpt lat="41.8753310" lon="-8.8389320">
        <ele>7.9</ele>
        <time>2021-05-18T12:34:58Z</time>
      </trkpt>
      <trkpt lat="41.8753310" lon="-8.8389320">
        <ele>7.9</ele>
        <time>2021-05-18T12:34:59Z</time>
      </trkpt>
      <trkpt lat="41.8753310" lon="-8.8389320">
        <ele>7.9</ele>
        <time>2021-05-18T12:35:00Z</time>
      </trkpt>
      <trkpt lat="41.8753310" lon="-8.8389320">
        <ele>7.9</ele>
        <time>2021-05-18T12:35:01Z</time>
      </trkpt>
      <trkpt lat="41.8753310" lon="-8.8389320">
        <ele>7.9</ele>
        <time>2021-05-18T12:35:02Z</time>
      </trkpt>
      <trkpt lat="41.8753310" lon="-8.8389320">
        <ele>7.9</ele>
        <time>2021-05-18T12:35:03Z</time>
      </trkpt>
      <trkpt lat="41.8753310" lon="-8.8389320">
        <ele>7.9</ele>
        <time>2021-05-18T12:35:04Z</time>
      </trkpt>
      <trkpt lat="41.8753310" lon="-8.8389320">
        <ele>7.9</ele>
        <time>2021-05-18T12:35:05Z</time>
      </trkpt>
      <trkpt lat="41.8753310" lon="-8.8389320">
        <ele>7.9</ele>
        <time>2021-05-18T12:35:06Z</time>
      </trkpt>
      <trkpt lat="41.8753310" lon="-8.8389320">
        <ele>7.9</ele>
        <time>2021-05-18T12:35:07Z</time>
      </trkpt>
      <trkpt lat="41.8753310" lon="-8.8389320">
        <ele>7.9</ele>
        <time>2021-05-18T12:35:08Z</time>
      </trkpt>
      <trkpt lat="41.8753310" lon="-8.8389320">
        <ele>7.9</ele>
        <time>2021-05-18T12:35:09Z</time>
      </trkpt>
      <trkpt lat="41.8753310" lon="-8.8389320">
        <ele>7.9</ele>
        <time>2021-05-18T12:35:10Z</time>
      </trkpt>
      <trkpt lat="41.8753310" lon="-8.8389320">
        <ele>7.9</ele>
        <time>2021-05-18T12:35:11Z</time>
      </trkpt>
      <trkpt lat="41.8753310" lon="-8.8389320">
        <ele>7.9</ele>
        <time>2021-05-18T12:35:12Z</time>
      </trkpt>
      <trkpt lat="41.8753310" lon="-8.8389320">
        <ele>7.9</ele>
        <time>2021-05-18T12:35:13Z</time>
      </trkpt>
      <trkpt lat="41.8753310" lon="-8.8389320">
        <ele>7.9</ele>
        <time>2021-05-18T12:35:14Z</time>
      </trkpt>
      <trkpt lat="41.8753310" lon="-8.8389320">
        <ele>7.9</ele>
        <time>2021-05-18T12:35:15Z</time>
      </trkpt>
      <trkpt lat="41.8753310" lon="-8.8389320">
        <ele>7.9</ele>
        <time>2021-05-18T12:35:16Z</time>
      </trkpt>
      <trkpt lat="41.8753310" lon="-8.8389320">
        <ele>7.9</ele>
        <time>2021-05-18T12:35:17Z</time>
      </trkpt>
      <trkpt lat="41.8753310" lon="-8.8389320">
        <ele>7.9</ele>
        <time>2021-05-18T12:35:18Z</time>
      </trkpt>
      <trkpt lat="41.8753310" lon="-8.8389320">
        <ele>7.9</ele>
        <time>2021-05-18T12:35:19Z</time>
      </trkpt>
      <trkpt lat="41.8753310" lon="-8.8389320">
        <ele>7.9</ele>
        <time>2021-05-18T12:35:20Z</time>
      </trkpt>
      <trkpt lat="41.8753310" lon="-8.8389320">
        <ele>7.9</ele>
        <time>2021-05-18T12:35:21Z</time>
      </trkpt>
      <trkpt lat="41.8753310" lon="-8.8389320">
        <ele>7.9</ele>
        <time>2021-05-18T12:35:22Z</time>
      </trkpt>
      <trkpt lat="41.8753310" lon="-8.8389320">
        <ele>7.9</ele>
        <time>2021-05-18T12:35:23Z</time>
      </trkpt>
      <trkpt lat="41.8753310" lon="-8.8389320">
        <ele>7.9</ele>
        <time>2021-05-18T12:35:24Z</time>
      </trkpt>
      <trkpt lat="41.8753310" lon="-8.8389320">
        <ele>7.9</ele>
        <time>2021-05-18T12:35:25Z</time>
      </trkpt>
      <trkpt lat="41.8753310" lon="-8.8389320">
        <ele>7.9</ele>
        <time>2021-05-18T12:35:26Z</time>
      </trkpt>
      <trkpt lat="41.8753310" lon="-8.8389320">
        <ele>7.9</ele>
        <time>2021-05-18T12:35:27Z</time>
      </trkpt>
      <trkpt lat="41.8753310" lon="-8.8389320">
        <ele>7.9</ele>
        <time>2021-05-18T12:35:28Z</time>
      </trkpt>
      <trkpt lat="41.8753310" lon="-8.8389320">
        <ele>7.9</ele>
        <time>2021-05-18T12:35:29Z</time>
      </trkpt>
      <trkpt lat="41.8753310" lon="-8.8389320">
        <ele>7.9</ele>
        <time>2021-05-18T12:35:30Z</time>
      </trkpt>
      <trkpt lat="41.8753310" lon="-8.8389320">
        <ele>7.9</ele>
        <time>2021-05-18T12:35:31Z</time>
      </trkpt>
      <trkpt lat="41.8753310" lon="-8.8389320">
        <ele>7.9</ele>
        <time>2021-05-18T12:35:32Z</time>
      </trkpt>
      <trkpt lat="41.8753310" lon="-8.8389320">
        <ele>7.9</ele>
        <time>2021-05-18T12:35:33Z</time>
      </trkpt>
      <trkpt lat="41.8753310" lon="-8.8389320">
        <ele>7.9</ele>
        <time>2021-05-18T12:35:34Z</time>
      </trkpt>
      <trkpt lat="41.8753310" lon="-8.8389320">
        <ele>7.9</ele>
        <time>2021-05-18T12:35:35Z</time>
      </trkpt>
      <trkpt lat="41.8753310" lon="-8.8389320">
        <ele>7.9</ele>
        <time>2021-05-18T12:35:36Z</time>
      </trkpt>
      <trkpt lat="41.8753310" lon="-8.8389320">
        <ele>7.9</ele>
        <time>2021-05-18T12:35:37Z</time>
      </trkpt>
      <trkpt lat="41.8753310" lon="-8.8389320">
        <ele>7.9</ele>
        <time>2021-05-18T12:35:38Z</time>
      </trkpt>
      <trkpt lat="41.8753310" lon="-8.8389320">
        <ele>7.9</ele>
        <time>2021-05-18T12:35:39Z</time>
      </trkpt>
      <trkpt lat="41.8753350" lon="-8.8389170">
        <ele>7.9</ele>
        <time>2021-05-18T12:35:40Z</time>
      </trkpt>
      <trkpt lat="41.8753330" lon="-8.8389140">
        <ele>7.9</ele>
        <time>2021-05-18T12:35:41Z</time>
      </trkpt>
      <trkpt lat="41.8753330" lon="-8.8389140">
        <ele>7.9</ele>
        <time>2021-05-18T12:35:42Z</time>
      </trkpt>
      <trkpt lat="41.8753330" lon="-8.8389140">
        <ele>7.9</ele>
        <time>2021-05-18T12:35:43Z</time>
      </trkpt>
      <trkpt lat="41.8753330" lon="-8.8389140">
        <ele>7.9</ele>
        <time>2021-05-18T12:35:44Z</time>
      </trkpt>
      <trkpt lat="41.8753330" lon="-8.8389140">
        <ele>7.9</ele>
        <time>2021-05-18T12:35:45Z</time>
      </trkpt>
      <trkpt lat="41.8753330" lon="-8.8389140">
        <ele>7.9</ele>
        <time>2021-05-18T12:35:46Z</time>
      </trkpt>
      <trkpt lat="41.8753330" lon="-8.8389140">
        <ele>7.9</ele>
        <time>2021-05-18T12:35:47Z</time>
      </trkpt>
      <trkpt lat="41.8753330" lon="-8.8389140">
        <ele>7.9</ele>
        <time>2021-05-18T12:35:48Z</time>
      </trkpt>
      <trkpt lat="41.8753330" lon="-8.8389140">
        <ele>7.9</ele>
        <time>2021-05-18T12:35:49Z</time>
      </trkpt>
      <trkpt lat="41.8753330" lon="-8.8389140">
        <ele>7.9</ele>
        <time>2021-05-18T12:35:50Z</time>
      </trkpt>
      <trkpt lat="41.8753330" lon="-8.8389140">
        <ele>7.9</ele>
        <time>2021-05-18T12:35:51Z</time>
      </trkpt>
      <trkpt lat="41.8753330" lon="-8.8389140">
        <ele>7.9</ele>
        <time>2021-05-18T12:35:52Z</time>
      </trkpt>
      <trkpt lat="41.8753330" lon="-8.8389140">
        <ele>7.9</ele>
        <time>2021-05-18T12:35:53Z</time>
      </trkpt>
      <trkpt lat="41.8753330" lon="-8.8389140">
        <ele>7.9</ele>
        <time>2021-05-18T12:35:54Z</time>
      </trkpt>
      <trkpt lat="41.8753330" lon="-8.8389140">
        <ele>7.9</ele>
        <time>2021-05-18T12:35:55Z</time>
      </trkpt>
      <trkpt lat="41.8753330" lon="-8.8389140">
        <ele>7.9</ele>
        <time>2021-05-18T12:35:56Z</time>
      </trkpt>
      <trkpt lat="41.8753330" lon="-8.8389140">
        <ele>7.9</ele>
        <time>2021-05-18T12:35:57Z</time>
      </trkpt>
      <trkpt lat="41.8753330" lon="-8.8389140">
        <ele>7.9</ele>
        <time>2021-05-18T12:35:58Z</time>
      </trkpt>
      <trkpt lat="41.8753330" lon="-8.8389140">
        <ele>7.9</ele>
        <time>2021-05-18T12:35:59Z</time>
      </trkpt>
      <trkpt lat="41.8753330" lon="-8.8389140">
        <ele>7.9</ele>
        <time>2021-05-18T12:36:00Z</time>
      </trkpt>
      <trkpt lat="41.8753330" lon="-8.8389140">
        <ele>7.9</ele>
        <time>2021-05-18T12:36:01Z</time>
      </trkpt>
      <trkpt lat="41.8753330" lon="-8.8389140">
        <ele>7.9</ele>
        <time>2021-05-18T12:36:02Z</time>
      </trkpt>
      <trkpt lat="41.8753330" lon="-8.8389140">
        <ele>7.9</ele>
        <time>2021-05-18T12:36:03Z</time>
      </trkpt>
      <trkpt lat="41.8753330" lon="-8.8389140">
        <ele>7.9</ele>
        <time>2021-05-18T12:36:04Z</time>
      </trkpt>
      <trkpt lat="41.8753330" lon="-8.8389140">
        <ele>7.9</ele>
        <time>2021-05-18T12:36:05Z</time>
      </trkpt>
      <trkpt lat="41.8753330" lon="-8.8389140">
        <ele>7.9</ele>
        <time>2021-05-18T12:36:06Z</time>
      </trkpt>
      <trkpt lat="41.8753330" lon="-8.8389140">
        <ele>7.9</ele>
        <time>2021-05-18T12:36:07Z</time>
      </trkpt>
      <trkpt lat="41.8753330" lon="-8.8389140">
        <ele>7.9</ele>
        <time>2021-05-18T12:36:08Z</time>
      </trkpt>
      <trkpt lat="41.8753330" lon="-8.8389140">
        <ele>7.9</ele>
        <time>2021-05-18T12:36:09Z</time>
      </trkpt>
      <trkpt lat="41.8753330" lon="-8.8389140">
        <ele>7.9</ele>
        <time>2021-05-18T12:36:10Z</time>
      </trkpt>
      <trkpt lat="41.8753330" lon="-8.8389140">
        <ele>7.9</ele>
        <time>2021-05-18T12:36:11Z</time>
      </trkpt>
      <trkpt lat="41.8753330" lon="-8.8389140">
        <ele>7.9</ele>
        <time>2021-05-18T12:36:12Z</time>
      </trkpt>
      <trkpt lat="41.8753330" lon="-8.8389140">
        <ele>7.9</ele>
        <time>2021-05-18T12:36:13Z</time>
      </trkpt>
      <trkpt lat="41.8753330" lon="-8.8389140">
        <ele>7.9</ele>
        <time>2021-05-18T12:36:14Z</time>
      </trkpt>
      <trkpt lat="41.8753330" lon="-8.8389140">
        <ele>7.9</ele>
        <time>2021-05-18T12:36:15Z</time>
      </trkpt>
      <trkpt lat="41.8753330" lon="-8.8389140">
        <ele>7.9</ele>
        <time>2021-05-18T12:36:16Z</time>
      </trkpt>
      <trkpt lat="41.8753330" lon="-8.8389140">
        <ele>7.9</ele>
        <time>2021-05-18T12:36:17Z</time>
      </trkpt>
      <trkpt lat="41.8753330" lon="-8.8389140">
        <ele>7.9</ele>
        <time>2021-05-18T12:36:18Z</time>
      </trkpt>
      <trkpt lat="41.8753330" lon="-8.8389140">
        <ele>7.9</ele>
        <time>2021-05-18T12:36:19Z</time>
      </trkpt>
      <trkpt lat="41.8753330" lon="-8.8389140">
        <ele>7.9</ele>
        <time>2021-05-18T12:36:20Z</time>
      </trkpt>
      <trkpt lat="41.8753330" lon="-8.8389140">
        <ele>7.9</ele>
        <time>2021-05-18T12:36:21Z</time>
      </trkpt>
      <trkpt lat="41.8753330" lon="-8.8389140">
        <ele>7.9</ele>
        <time>2021-05-18T12:36:22Z</time>
      </trkpt>
      <trkpt lat="41.8753330" lon="-8.8389140">
        <ele>7.9</ele>
        <time>2021-05-18T12:36:23Z</time>
      </trkpt>
      <trkpt lat="41.8753330" lon="-8.8389140">
        <ele>7.9</ele>
        <time>2021-05-18T12:36:24Z</time>
      </trkpt>
      <trkpt lat="41.8753330" lon="-8.8389140">
        <ele>7.9</ele>
        <time>2021-05-18T12:36:25Z</time>
      </trkpt>
      <trkpt lat="41.8753330" lon="-8.8389140">
        <ele>7.9</ele>
        <time>2021-05-18T12:36:26Z</time>
      </trkpt>
      <trkpt lat="41.8753330" lon="-8.8389140">
        <ele>7.9</ele>
        <time>2021-05-18T12:36:27Z</time>
      </trkpt>
      <trkpt lat="41.8753330" lon="-8.8389140">
        <ele>7.9</ele>
        <time>2021-05-18T12:36:28Z</time>
      </trkpt>
      <trkpt lat="41.8753330" lon="-8.8389140">
        <ele>7.9</ele>
        <time>2021-05-18T12:36:29Z</time>
      </trkpt>
      <trkpt lat="41.8753330" lon="-8.8389140">
        <ele>7.9</ele>
        <time>2021-05-18T12:36:30Z</time>
      </trkpt>
      <trkpt lat="41.8753330" lon="-8.8389140">
        <ele>7.9</ele>
        <time>2021-05-18T12:36:31Z</time>
      </trkpt>
      <trkpt lat="41.8753330" lon="-8.8389140">
        <ele>7.9</ele>
        <time>2021-05-18T12:36:32Z</time>
      </trkpt>
      <trkpt lat="41.8753330" lon="-8.8389140">
        <ele>7.9</ele>
        <time>2021-05-18T12:36:33Z</time>
      </trkpt>
      <trkpt lat="41.8753330" lon="-8.8389140">
        <ele>7.9</ele>
        <time>2021-05-18T12:36:34Z</time>
      </trkpt>
      <trkpt lat="41.8753330" lon="-8.8389140">
        <ele>7.9</ele>
        <time>2021-05-18T12:36:35Z</time>
      </trkpt>
      <trkpt lat="41.8753330" lon="-8.8389140">
        <ele>7.9</ele>
        <time>2021-05-18T12:36:36Z</time>
      </trkpt>
      <trkpt lat="41.8753330" lon="-8.8389140">
        <ele>7.9</ele>
        <time>2021-05-18T12:36:37Z</time>
      </trkpt>
      <trkpt lat="41.8753330" lon="-8.8389140">
        <ele>7.9</ele>
        <time>2021-05-18T12:36:38Z</time>
      </trkpt>
      <trkpt lat="41.8753330" lon="-8.8389140">
        <ele>7.9</ele>
        <time>2021-05-18T12:36:39Z</time>
      </trkpt>
      <trkpt lat="41.8753330" lon="-8.8389140">
        <ele>7.9</ele>
        <time>2021-05-18T12:36:40Z</time>
      </trkpt>
      <trkpt lat="41.8753330" lon="-8.8389140">
        <ele>7.9</ele>
        <time>2021-05-18T12:36:41Z</time>
      </trkpt>
      <trkpt lat="41.8753330" lon="-8.8389140">
        <ele>7.9</ele>
        <time>2021-05-18T12:36:42Z</time>
      </trkpt>
      <trkpt lat="41.8753330" lon="-8.8389140">
        <ele>7.9</ele>
        <time>2021-05-18T12:36:43Z</time>
      </trkpt>
      <trkpt lat="41.8753330" lon="-8.8389140">
        <ele>7.9</ele>
        <time>2021-05-18T12:36:44Z</time>
      </trkpt>
      <trkpt lat="41.8753330" lon="-8.8389140">
        <ele>7.9</ele>
        <time>2021-05-18T12:36:45Z</time>
      </trkpt>
      <trkpt lat="41.8753330" lon="-8.8389140">
        <ele>7.9</ele>
        <time>2021-05-18T12:36:46Z</time>
      </trkpt>
      <trkpt lat="41.8753330" lon="-8.8389140">
        <ele>7.9</ele>
        <time>2021-05-18T12:36:47Z</time>
      </trkpt>
      <trkpt lat="41.8753330" lon="-8.8389140">
        <ele>7.9</ele>
        <time>2021-05-18T12:36:49Z</time>
      </trkpt>
      <trkpt lat="41.8753330" lon="-8.8389140">
        <ele>7.9</ele>
        <time>2021-05-18T12:36:50Z</time>
      </trkpt>
      <trkpt lat="41.8753330" lon="-8.8389140">
        <ele>7.9</ele>
        <time>2021-05-18T12:36:51Z</time>
      </trkpt>
      <trkpt lat="41.8753330" lon="-8.8389140">
        <ele>7.9</ele>
        <time>2021-05-18T12:36:52Z</time>
      </trkpt>
      <trkpt lat="41.8753330" lon="-8.8389140">
        <ele>7.9</ele>
        <time>2021-05-18T12:36:53Z</time>
      </trkpt>
      <trkpt lat="41.8753330" lon="-8.8389140">
        <ele>7.9</ele>
        <time>2021-05-18T12:36:54Z</time>
      </trkpt>
      <trkpt lat="41.8753330" lon="-8.8389140">
        <ele>7.9</ele>
        <time>2021-05-18T12:36:55Z</time>
      </trkpt>
      <trkpt lat="41.8753330" lon="-8.8389140">
        <ele>7.9</ele>
        <time>2021-05-18T12:36:56Z</time>
      </trkpt>
      <trkpt lat="41.8753330" lon="-8.8389140">
        <ele>7.9</ele>
        <time>2021-05-18T12:36:57Z</time>
      </trkpt>
      <trkpt lat="41.8753330" lon="-8.8389140">
        <ele>7.9</ele>
        <time>2021-05-18T12:36:58Z</time>
      </trkpt>
      <trkpt lat="41.8753330" lon="-8.8389140">
        <ele>7.9</ele>
        <time>2021-05-18T12:36:59Z</time>
      </trkpt>
      <trkpt lat="41.8753330" lon="-8.8389140">
        <ele>7.9</ele>
        <time>2021-05-18T12:37:00Z</time>
      </trkpt>
      <trkpt lat="41.8753330" lon="-8.8389140">
        <ele>7.9</ele>
        <time>2021-05-18T12:37:01Z</time>
      </trkpt>
      <trkpt lat="41.8753330" lon="-8.8389140">
        <ele>7.9</ele>
        <time>2021-05-18T12:37:02Z</time>
      </trkpt>
      <trkpt lat="41.8753570" lon="-8.8389230">
        <ele>7.9</ele>
        <time>2021-05-18T12:37:03Z</time>
      </trkpt>
      <trkpt lat="41.8753570" lon="-8.8389230">
        <ele>7.9</ele>
        <time>2021-05-18T12:37:04Z</time>
      </trkpt>
      <trkpt lat="41.8753570" lon="-8.8389230">
        <ele>7.9</ele>
        <time>2021-05-18T12:37:05Z</time>
      </trkpt>
      <trkpt lat="41.8753570" lon="-8.8389230">
        <ele>7.9</ele>
        <time>2021-05-18T12:37:06Z</time>
      </trkpt>
      <trkpt lat="41.8753570" lon="-8.8389230">
        <ele>7.9</ele>
        <time>2021-05-18T12:37:07Z</time>
      </trkpt>
      <trkpt lat="41.8753570" lon="-8.8389230">
        <ele>7.9</ele>
        <time>2021-05-18T12:37:08Z</time>
      </trkpt>
      <trkpt lat="41.8753570" lon="-8.8389230">
        <ele>7.9</ele>
        <time>2021-05-18T12:37:09Z</time>
      </trkpt>
      <trkpt lat="41.8753570" lon="-8.8389230">
        <ele>7.9</ele>
        <time>2021-05-18T12:37:10Z</time>
      </trkpt>
      <trkpt lat="41.8753570" lon="-8.8389230">
        <ele>7.9</ele>
        <time>2021-05-18T12:37:11Z</time>
      </trkpt>
      <trkpt lat="41.8753570" lon="-8.8389230">
        <ele>7.9</ele>
        <time>2021-05-18T12:37:12Z</time>
      </trkpt>
      <trkpt lat="41.8753570" lon="-8.8389230">
        <ele>7.9</ele>
        <time>2021-05-18T12:37:13Z</time>
      </trkpt>
      <trkpt lat="41.8753570" lon="-8.8389230">
        <ele>7.9</ele>
        <time>2021-05-18T12:37:14Z</time>
      </trkpt>
      <trkpt lat="41.8753570" lon="-8.8389230">
        <ele>7.9</ele>
        <time>2021-05-18T12:37:15Z</time>
      </trkpt>
      <trkpt lat="41.8753570" lon="-8.8389230">
        <ele>7.9</ele>
        <time>2021-05-18T12:37:16Z</time>
      </trkpt>
      <trkpt lat="41.8753570" lon="-8.8389230">
        <ele>7.9</ele>
        <time>2021-05-18T12:37:17Z</time>
      </trkpt>
      <trkpt lat="41.8753570" lon="-8.8389230">
        <ele>7.9</ele>
        <time>2021-05-18T12:37:18Z</time>
      </trkpt>
      <trkpt lat="41.8753570" lon="-8.8389230">
        <ele>7.9</ele>
        <time>2021-05-18T12:37:19Z</time>
      </trkpt>
      <trkpt lat="41.8753570" lon="-8.8389230">
        <ele>7.9</ele>
        <time>2021-05-18T12:37:20Z</time>
      </trkpt>
      <trkpt lat="41.8753570" lon="-8.8389230">
        <ele>7.9</ele>
        <time>2021-05-18T12:37:21Z</time>
      </trkpt>
      <trkpt lat="41.8753570" lon="-8.8389230">
        <ele>7.9</ele>
        <time>2021-05-18T12:37:22Z</time>
      </trkpt>
      <trkpt lat="41.8753570" lon="-8.8389230">
        <ele>7.9</ele>
        <time>2021-05-18T12:37:23Z</time>
      </trkpt>
      <trkpt lat="41.8753570" lon="-8.8389230">
        <ele>7.9</ele>
        <time>2021-05-18T12:37:24Z</time>
      </trkpt>
      <trkpt lat="41.8753570" lon="-8.8389230">
        <ele>7.9</ele>
        <time>2021-05-18T12:37:25Z</time>
      </trkpt>
      <trkpt lat="41.8753570" lon="-8.8389230">
        <ele>7.9</ele>
        <time>2021-05-18T12:37:26Z</time>
      </trkpt>
      <trkpt lat="41.8753570" lon="-8.8389230">
        <ele>7.9</ele>
        <time>2021-05-18T12:37:27Z</time>
      </trkpt>
      <trkpt lat="41.8753570" lon="-8.8389230">
        <ele>7.9</ele>
        <time>2021-05-18T12:37:28Z</time>
      </trkpt>
      <trkpt lat="41.8753570" lon="-8.8389230">
        <ele>7.9</ele>
        <time>2021-05-18T12:37:29Z</time>
      </trkpt>
      <trkpt lat="41.8753570" lon="-8.8389230">
        <ele>7.9</ele>
        <time>2021-05-18T12:37:30Z</time>
      </trkpt>
      <trkpt lat="41.8753570" lon="-8.8389230">
        <ele>7.9</ele>
        <time>2021-05-18T12:37:31Z</time>
      </trkpt>
      <trkpt lat="41.8753570" lon="-8.8389230">
        <ele>7.9</ele>
        <time>2021-05-18T12:37:32Z</time>
      </trkpt>
      <trkpt lat="41.8753570" lon="-8.8389230">
        <ele>7.9</ele>
        <time>2021-05-18T12:37:33Z</time>
      </trkpt>
      <trkpt lat="41.8753570" lon="-8.8389230">
        <ele>7.9</ele>
        <time>2021-05-18T12:37:34Z</time>
      </trkpt>
      <trkpt lat="41.8753570" lon="-8.8389230">
        <ele>7.9</ele>
        <time>2021-05-18T12:37:35Z</time>
      </trkpt>
      <trkpt lat="41.8753570" lon="-8.8389230">
        <ele>7.9</ele>
        <time>2021-05-18T12:37:36Z</time>
      </trkpt>
      <trkpt lat="41.8753570" lon="-8.8389230">
        <ele>7.9</ele>
        <time>2021-05-18T12:37:37Z</time>
      </trkpt>
      <trkpt lat="41.8753570" lon="-8.8389230">
        <ele>7.9</ele>
        <time>2021-05-18T12:37:38Z</time>
      </trkpt>
      <trkpt lat="41.8753570" lon="-8.8389230">
        <ele>7.9</ele>
        <time>2021-05-18T12:37:39Z</time>
      </trkpt>
      <trkpt lat="41.8753570" lon="-8.8389230">
        <ele>7.9</ele>
        <time>2021-05-18T12:37:40Z</time>
      </trkpt>
      <trkpt lat="41.8753570" lon="-8.8389230">
        <ele>7.9</ele>
        <time>2021-05-18T12:37:41Z</time>
      </trkpt>
      <trkpt lat="41.8753570" lon="-8.8389230">
        <ele>7.9</ele>
        <time>2021-05-18T12:37:42Z</time>
      </trkpt>
      <trkpt lat="41.8753570" lon="-8.8389230">
        <ele>7.9</ele>
        <time>2021-05-18T12:37:43Z</time>
      </trkpt>
      <trkpt lat="41.8753570" lon="-8.8389230">
        <ele>7.9</ele>
        <time>2021-05-18T12:37:44Z</time>
      </trkpt>
      <trkpt lat="41.8753570" lon="-8.8389230">
        <ele>7.9</ele>
        <time>2021-05-18T12:37:45Z</time>
      </trkpt>
      <trkpt lat="41.8753570" lon="-8.8389230">
        <ele>7.9</ele>
        <time>2021-05-18T12:37:46Z</time>
      </trkpt>
      <trkpt lat="41.8753570" lon="-8.8389230">
        <ele>7.9</ele>
        <time>2021-05-18T12:37:47Z</time>
      </trkpt>
      <trkpt lat="41.8753570" lon="-8.8389230">
        <ele>7.9</ele>
        <time>2021-05-18T12:37:48Z</time>
      </trkpt>
      <trkpt lat="41.8753570" lon="-8.8389230">
        <ele>7.9</ele>
        <time>2021-05-18T12:37:49Z</time>
      </trkpt>
      <trkpt lat="41.8753570" lon="-8.8389230">
        <ele>7.9</ele>
        <time>2021-05-18T12:37:50Z</time>
      </trkpt>
      <trkpt lat="41.8753570" lon="-8.8389230">
        <ele>7.9</ele>
        <time>2021-05-18T12:37:51Z</time>
      </trkpt>
      <trkpt lat="41.8753570" lon="-8.8389230">
        <ele>7.9</ele>
        <time>2021-05-18T12:37:52Z</time>
      </trkpt>
      <trkpt lat="41.8753540" lon="-8.8389220">
        <ele>7.9</ele>
        <time>2021-05-18T12:37:53Z</time>
      </trkpt>
      <trkpt lat="41.8753530" lon="-8.8389180">
        <ele>7.9</ele>
        <time>2021-05-18T12:37:54Z</time>
      </trkpt>
      <trkpt lat="41.8753520" lon="-8.8389170">
        <ele>7.9</ele>
        <time>2021-05-18T12:37:55Z</time>
      </trkpt>
      <trkpt lat="41.8753500" lon="-8.8389160">
        <ele>7.9</ele>
        <time>2021-05-18T12:37:56Z</time>
      </trkpt>
      <trkpt lat="41.8753490" lon="-8.8389170">
        <ele>7.9</ele>
        <time>2021-05-18T12:37:57Z</time>
      </trkpt>
      <trkpt lat="41.8753500" lon="-8.8389190">
        <ele>7.9</ele>
        <time>2021-05-18T12:37:58Z</time>
      </trkpt>
      <trkpt lat="41.8753470" lon="-8.8389260">
        <ele>7.9</ele>
        <time>2021-05-18T12:37:59Z</time>
      </trkpt>
      <trkpt lat="41.8753460" lon="-8.8389280">
        <ele>7.9</ele>
        <time>2021-05-18T12:38:00Z</time>
      </trkpt>
      <trkpt lat="41.8753490" lon="-8.8389230">
        <ele>7.9</ele>
        <time>2021-05-18T12:38:01Z</time>
      </trkpt>
      <trkpt lat="41.8753460" lon="-8.8389270">
        <ele>7.9</ele>
        <time>2021-05-18T12:38:02Z</time>
      </trkpt>
      <trkpt lat="41.8753450" lon="-8.8389270">
        <ele>7.9</ele>
        <time>2021-05-18T12:38:03Z</time>
      </trkpt>
      <trkpt lat="41.8753440" lon="-8.8389360">
        <ele>7.9</ele>
        <time>2021-05-18T12:38:04Z</time>
      </trkpt>
      <trkpt lat="41.8753400" lon="-8.8389420">
        <ele>7.9</ele>
        <time>2021-05-18T12:38:05Z</time>
      </trkpt>
      <trkpt lat="41.8753430" lon="-8.8389380">
        <ele>7.9</ele>
        <time>2021-05-18T12:38:06Z</time>
      </trkpt>
      <trkpt lat="41.8753440" lon="-8.8389340">
        <ele>7.9</ele>
        <time>2021-05-18T12:38:07Z</time>
      </trkpt>
      <trkpt lat="41.8753430" lon="-8.8389360">
        <ele>7.9</ele>
        <time>2021-05-18T12:38:08Z</time>
      </trkpt>
      <trkpt lat="41.8753440" lon="-8.8389360">
        <ele>7.9</ele>
        <time>2021-05-18T12:38:09Z</time>
      </trkpt>
      <trkpt lat="41.8753430" lon="-8.8389320">
        <ele>7.9</ele>
        <time>2021-05-18T12:38:10Z</time>
      </trkpt>
      <trkpt lat="41.8753400" lon="-8.8389330">
        <ele>7.9</ele>
        <time>2021-05-18T12:38:11Z</time>
      </trkpt>
      <trkpt lat="41.8753430" lon="-8.8389330">
        <ele>7.9</ele>
        <time>2021-05-18T12:38:12Z</time>
      </trkpt>
      <trkpt lat="41.8753430" lon="-8.8389330">
        <ele>7.9</ele>
        <time>2021-05-18T12:38:13Z</time>
      </trkpt>
      <trkpt lat="41.8753430" lon="-8.8389330">
        <ele>7.9</ele>
        <time>2021-05-18T12:38:14Z</time>
      </trkpt>
      <trkpt lat="41.8753480" lon="-8.8389330">
        <ele>7.9</ele>
        <time>2021-05-18T12:38:15Z</time>
      </trkpt>
      <trkpt lat="41.8753470" lon="-8.8389310">
        <ele>7.9</ele>
        <time>2021-05-18T12:38:16Z</time>
      </trkpt>
      <trkpt lat="41.8753470" lon="-8.8389310">
        <ele>7.9</ele>
        <time>2021-05-18T12:38:17Z</time>
      </trkpt>
      <trkpt lat="41.8753410" lon="-8.8389320">
        <ele>7.9</ele>
        <time>2021-05-18T12:38:18Z</time>
      </trkpt>
      <trkpt lat="41.8753330" lon="-8.8389380">
        <ele>7.9</ele>
        <time>2021-05-18T12:38:19Z</time>
      </trkpt>
      <trkpt lat="41.8753330" lon="-8.8389410">
        <ele>7.9</ele>
        <time>2021-05-18T12:38:20Z</time>
      </trkpt>
      <trkpt lat="41.8753340" lon="-8.8389410">
        <ele>7.9</ele>
        <time>2021-05-18T12:38:21Z</time>
      </trkpt>
      <trkpt lat="41.8753370" lon="-8.8389450">
        <ele>7.9</ele>
        <time>2021-05-18T12:38:22Z</time>
      </trkpt>
      <trkpt lat="41.8753380" lon="-8.8389450">
        <ele>7.9</ele>
        <time>2021-05-18T12:38:23Z</time>
      </trkpt>
      <trkpt lat="41.8753410" lon="-8.8389430">
        <ele>7.9</ele>
        <time>2021-05-18T12:38:24Z</time>
      </trkpt>
      <trkpt lat="41.8753400" lon="-8.8389420">
        <ele>7.9</ele>
        <time>2021-05-18T12:38:25Z</time>
      </trkpt>
      <trkpt lat="41.8753400" lon="-8.8389420">
        <ele>7.9</ele>
        <time>2021-05-18T12:38:26Z</time>
      </trkpt>
      <trkpt lat="41.8753400" lon="-8.8389410">
        <ele>7.9</ele>
        <time>2021-05-18T12:38:27Z</time>
      </trkpt>
      <trkpt lat="41.8753400" lon="-8.8389400">
        <ele>7.9</ele>
        <time>2021-05-18T12:38:28Z</time>
      </trkpt>
      <trkpt lat="41.8753400" lon="-8.8389360">
        <ele>7.9</ele>
        <time>2021-05-18T12:38:29Z</time>
      </trkpt>
      <trkpt lat="41.8753400" lon="-8.8389360">
        <ele>7.9</ele>
        <time>2021-05-18T12:38:30Z</time>
      </trkpt>
      <trkpt lat="41.8753330" lon="-8.8389400">
        <ele>7.9</ele>
        <time>2021-05-18T12:38:31Z</time>
      </trkpt>
      <trkpt lat="41.8753350" lon="-8.8389410">
        <ele>7.9</ele>
        <time>2021-05-18T12:38:32Z</time>
      </trkpt>
      <trkpt lat="41.8753370" lon="-8.8389420">
        <ele>7.9</ele>
        <time>2021-05-18T12:38:33Z</time>
      </trkpt>
      <trkpt lat="41.8753380" lon="-8.8389450">
        <ele>7.9</ele>
        <time>2021-05-18T12:38:34Z</time>
      </trkpt>
      <trkpt lat="41.8753390" lon="-8.8389450">
        <ele>7.9</ele>
        <time>2021-05-18T12:38:35Z</time>
      </trkpt>
      <trkpt lat="41.8753420" lon="-8.8389530">
        <ele>7.9</ele>
        <time>2021-05-18T12:38:36Z</time>
      </trkpt>
      <trkpt lat="41.8753390" lon="-8.8389560">
        <ele>7.9</ele>
        <time>2021-05-18T12:38:37Z</time>
      </trkpt>
      <trkpt lat="41.8753390" lon="-8.8389560">
        <ele>7.9</ele>
        <time>2021-05-18T12:38:38Z</time>
      </trkpt>
      <trkpt lat="41.8753370" lon="-8.8389620">
        <ele>7.9</ele>
        <time>2021-05-18T12:38:39Z</time>
      </trkpt>
      <trkpt lat="41.8753390" lon="-8.8389660">
        <ele>7.9</ele>
        <time>2021-05-18T12:38:40Z</time>
      </trkpt>
      <trkpt lat="41.8753390" lon="-8.8389660">
        <ele>7.9</ele>
        <time>2021-05-18T12:38:41Z</time>
      </trkpt>
      <trkpt lat="41.8753390" lon="-8.8389660">
        <ele>7.9</ele>
        <time>2021-05-18T12:38:42Z</time>
      </trkpt>
      <trkpt lat="41.8753390" lon="-8.8389660">
        <ele>7.9</ele>
        <time>2021-05-18T12:38:43Z</time>
      </trkpt>
      <trkpt lat="41.8753480" lon="-8.8389840">
        <ele>7.9</ele>
        <time>2021-05-18T12:38:44Z</time>
      </trkpt>
      <trkpt lat="41.8753480" lon="-8.8389840">
        <ele>7.9</ele>
        <time>2021-05-18T12:38:45Z</time>
      </trkpt>
      <trkpt lat="41.8753480" lon="-8.8389840">
        <ele>7.9</ele>
        <time>2021-05-18T12:38:46Z</time>
      </trkpt>
      <trkpt lat="41.8753480" lon="-8.8389840">
        <ele>7.9</ele>
        <time>2021-05-18T12:38:47Z</time>
      </trkpt>
      <trkpt lat="41.8753480" lon="-8.8389840">
        <ele>7.9</ele>
        <time>2021-05-18T12:38:48Z</time>
      </trkpt>
      <trkpt lat="41.8753480" lon="-8.8389840">
        <ele>7.9</ele>
        <time>2021-05-18T12:38:49Z</time>
      </trkpt>
      <trkpt lat="41.8753480" lon="-8.8389840">
        <ele>7.9</ele>
        <time>2021-05-18T12:38:50Z</time>
      </trkpt>
      <trkpt lat="41.8753480" lon="-8.8389840">
        <ele>7.9</ele>
        <time>2021-05-18T12:38:51Z</time>
      </trkpt>
      <trkpt lat="41.8753380" lon="-8.8389900">
        <ele>7.9</ele>
        <time>2021-05-18T12:38:52Z</time>
      </trkpt>
      <trkpt lat="41.8753370" lon="-8.8389890">
        <ele>7.9</ele>
        <time>2021-05-18T12:38:53Z</time>
      </trkpt>
      <trkpt lat="41.8753360" lon="-8.8389850">
        <ele>7.9</ele>
        <time>2021-05-18T12:38:54Z</time>
      </trkpt>
      <trkpt lat="41.8753360" lon="-8.8389860">
        <ele>7.9</ele>
        <time>2021-05-18T12:38:55Z</time>
      </trkpt>
      <trkpt lat="41.8753340" lon="-8.8389840">
        <ele>7.9</ele>
        <time>2021-05-18T12:38:56Z</time>
      </trkpt>
      <trkpt lat="41.8753350" lon="-8.8389800">
        <ele>7.9</ele>
        <time>2021-05-18T12:38:57Z</time>
      </trkpt>
      <trkpt lat="41.8753350" lon="-8.8389790">
        <ele>7.9</ele>
        <time>2021-05-18T12:38:59Z</time>
      </trkpt>
      <trkpt lat="41.8753350" lon="-8.8389820">
        <ele>7.9</ele>
        <time>2021-05-18T12:39:00Z</time>
      </trkpt>
      <trkpt lat="41.8753360" lon="-8.8389810">
        <ele>7.9</ele>
        <time>2021-05-18T12:39:01Z</time>
      </trkpt>
      <trkpt lat="41.8753360" lon="-8.8389810">
        <ele>7.9</ele>
        <time>2021-05-18T12:39:02Z</time>
      </trkpt>
      <trkpt lat="41.8753370" lon="-8.8389860">
        <ele>7.9</ele>
        <time>2021-05-18T12:39:03Z</time>
      </trkpt>
      <trkpt lat="41.8753370" lon="-8.8389870">
        <ele>7.9</ele>
        <time>2021-05-18T12:39:04Z</time>
      </trkpt>
      <trkpt lat="41.8753400" lon="-8.8389840">
        <ele>7.9</ele>
        <time>2021-05-18T12:39:05Z</time>
      </trkpt>
      <trkpt lat="41.8753450" lon="-8.8389890">
        <ele>7.9</ele>
        <time>2021-05-18T12:39:06Z</time>
      </trkpt>
      <trkpt lat="41.8753450" lon="-8.8389900">
        <ele>7.9</ele>
        <time>2021-05-18T12:39:07Z</time>
      </trkpt>
      <trkpt lat="41.8753440" lon="-8.8389940">
        <ele>7.9</ele>
        <time>2021-05-18T12:39:08Z</time>
      </trkpt>
      <trkpt lat="41.8753480" lon="-8.8389990">
        <ele>7.9</ele>
        <time>2021-05-18T12:39:09Z</time>
      </trkpt>
      <trkpt lat="41.8753480" lon="-8.8389970">
        <ele>7.9</ele>
        <time>2021-05-18T12:39:10Z</time>
      </trkpt>
      <trkpt lat="41.8753470" lon="-8.8389990">
        <ele>7.9</ele>
        <time>2021-05-18T12:39:11Z</time>
      </trkpt>
      <trkpt lat="41.8753470" lon="-8.8389990">
        <ele>7.9</ele>
        <time>2021-05-18T12:39:12Z</time>
      </trkpt>
      <trkpt lat="41.8753470" lon="-8.8389990">
        <ele>7.9</ele>
        <time>2021-05-18T12:39:13Z</time>
      </trkpt>
      <trkpt lat="41.8753490" lon="-8.8390040">
        <ele>7.9</ele>
        <time>2021-05-18T12:39:14Z</time>
      </trkpt>
      <trkpt lat="41.8753490" lon="-8.8390150">
        <ele>7.9</ele>
        <time>2021-05-18T12:39:15Z</time>
      </trkpt>
      <trkpt lat="41.8753490" lon="-8.8390150">
        <ele>7.9</ele>
        <time>2021-05-18T12:39:16Z</time>
      </trkpt>
      <trkpt lat="41.8753440" lon="-8.8390220">
        <ele>7.9</ele>
        <time>2021-05-18T12:39:17Z</time>
      </trkpt>
      <trkpt lat="41.8753440" lon="-8.8390220">
        <ele>7.9</ele>
        <time>2021-05-18T12:39:18Z</time>
      </trkpt>
      <trkpt lat="41.8753440" lon="-8.8390210">
        <ele>7.9</ele>
        <time>2021-05-18T12:39:19Z</time>
      </trkpt>
      <trkpt lat="41.8753430" lon="-8.8390190">
        <ele>7.9</ele>
        <time>2021-05-18T12:39:20Z</time>
      </trkpt>
      <trkpt lat="41.8753420" lon="-8.8390120">
        <ele>7.9</ele>
        <time>2021-05-18T12:39:21Z</time>
      </trkpt>
      <trkpt lat="41.8753400" lon="-8.8390140">
        <ele>7.9</ele>
        <time>2021-05-18T12:39:22Z</time>
      </trkpt>
      <trkpt lat="41.8753390" lon="-8.8390130">
        <ele>7.9</ele>
        <time>2021-05-18T12:39:23Z</time>
      </trkpt>
      <trkpt lat="41.8753390" lon="-8.8390130">
        <ele>7.9</ele>
        <time>2021-05-18T12:39:24Z</time>
      </trkpt>
      <trkpt lat="41.8753390" lon="-8.8390130">
        <ele>7.9</ele>
        <time>2021-05-18T12:39:25Z</time>
      </trkpt>
      <trkpt lat="41.8753390" lon="-8.8390130">
        <ele>7.9</ele>
        <time>2021-05-18T12:39:26Z</time>
      </trkpt>
      <trkpt lat="41.8753390" lon="-8.8390130">
        <ele>7.9</ele>
        <time>2021-05-18T12:39:27Z</time>
      </trkpt>
      <trkpt lat="41.8753390" lon="-8.8390130">
        <ele>7.9</ele>
        <time>2021-05-18T12:39:28Z</time>
      </trkpt>
      <trkpt lat="41.8753390" lon="-8.8390130">
        <ele>7.9</ele>
        <time>2021-05-18T12:39:29Z</time>
      </trkpt>
      <trkpt lat="41.8753390" lon="-8.8390130">
        <ele>7.9</ele>
        <time>2021-05-18T12:39:30Z</time>
      </trkpt>
      <trkpt lat="41.8753390" lon="-8.8390130">
        <ele>7.9</ele>
        <time>2021-05-18T12:39:31Z</time>
      </trkpt>
      <trkpt lat="41.8753390" lon="-8.8390130">
        <ele>7.9</ele>
        <time>2021-05-18T12:39:32Z</time>
      </trkpt>
      <trkpt lat="41.8753390" lon="-8.8390130">
        <ele>7.9</ele>
        <time>2021-05-18T12:39:33Z</time>
      </trkpt>
      <trkpt lat="41.8753390" lon="-8.8390130">
        <ele>7.9</ele>
        <time>2021-05-18T12:39:34Z</time>
      </trkpt>
      <trkpt lat="41.8753390" lon="-8.8390130">
        <ele>7.9</ele>
        <time>2021-05-18T12:39:35Z</time>
      </trkpt>
      <trkpt lat="41.8753390" lon="-8.8390130">
        <ele>7.9</ele>
        <time>2021-05-18T12:39:36Z</time>
      </trkpt>
      <trkpt lat="41.8753390" lon="-8.8390130">
        <ele>7.9</ele>
        <time>2021-05-18T12:39:37Z</time>
      </trkpt>
      <trkpt lat="41.8753340" lon="-8.8389820">
        <ele>7.9</ele>
        <time>2021-05-18T12:39:38Z</time>
      </trkpt>
      <trkpt lat="41.8753340" lon="-8.8389810">
        <ele>7.9</ele>
        <time>2021-05-18T12:39:39Z</time>
      </trkpt>
      <trkpt lat="41.8753350" lon="-8.8389810">
        <ele>7.9</ele>
        <time>2021-05-18T12:39:40Z</time>
      </trkpt>
      <trkpt lat="41.8753380" lon="-8.8389830">
        <ele>7.9</ele>
        <time>2021-05-18T12:39:41Z</time>
      </trkpt>
      <trkpt lat="41.8753370" lon="-8.8389820">
        <ele>7.9</ele>
        <time>2021-05-18T12:39:42Z</time>
      </trkpt>
      <trkpt lat="41.8753370" lon="-8.8389820">
        <ele>7.9</ele>
        <time>2021-05-18T12:39:43Z</time>
      </trkpt>
      <trkpt lat="41.8753370" lon="-8.8389820">
        <ele>7.9</ele>
        <time>2021-05-18T12:39:44Z</time>
      </trkpt>
      <trkpt lat="41.8753370" lon="-8.8389820">
        <ele>7.9</ele>
        <time>2021-05-18T12:39:45Z</time>
      </trkpt>
      <trkpt lat="41.8753370" lon="-8.8389820">
        <ele>7.9</ele>
        <time>2021-05-18T12:39:46Z</time>
      </trkpt>
      <trkpt lat="41.8753370" lon="-8.8389820">
        <ele>7.9</ele>
        <time>2021-05-18T12:39:47Z</time>
      </trkpt>
      <trkpt lat="41.8753370" lon="-8.8389820">
        <ele>7.9</ele>
        <time>2021-05-18T12:39:48Z</time>
      </trkpt>
      <trkpt lat="41.8753370" lon="-8.8389820">
        <ele>7.9</ele>
        <time>2021-05-18T12:39:49Z</time>
      </trkpt>
      <trkpt lat="41.8753370" lon="-8.8389820">
        <ele>7.9</ele>
        <time>2021-05-18T12:39:50Z</time>
      </trkpt>
      <trkpt lat="41.8753370" lon="-8.8389820">
        <ele>7.9</ele>
        <time>2021-05-18T12:39:51Z</time>
      </trkpt>
      <trkpt lat="41.8753370" lon="-8.8389820">
        <ele>7.9</ele>
        <time>2021-05-18T12:39:52Z</time>
      </trkpt>
      <trkpt lat="41.8753370" lon="-8.8389820">
        <ele>7.9</ele>
        <time>2021-05-18T12:39:53Z</time>
      </trkpt>
      <trkpt lat="41.8753370" lon="-8.8389820">
        <ele>7.9</ele>
        <time>2021-05-18T12:39:54Z</time>
      </trkpt>
      <trkpt lat="41.8753370" lon="-8.8389820">
        <ele>7.9</ele>
        <time>2021-05-18T12:39:55Z</time>
      </trkpt>
      <trkpt lat="41.8753370" lon="-8.8389820">
        <ele>7.9</ele>
        <time>2021-05-18T12:39:56Z</time>
      </trkpt>
      <trkpt lat="41.8753370" lon="-8.8389820">
        <ele>7.9</ele>
        <time>2021-05-18T12:39:57Z</time>
      </trkpt>
      <trkpt lat="41.8753440" lon="-8.8389730">
        <ele>7.9</ele>
        <time>2021-05-18T12:39:58Z</time>
      </trkpt>
      <trkpt lat="41.8753440" lon="-8.8389720">
        <ele>7.9</ele>
        <time>2021-05-18T12:39:59Z</time>
      </trkpt>
      <trkpt lat="41.8753440" lon="-8.8389720">
        <ele>7.9</ele>
        <time>2021-05-18T12:40:00Z</time>
      </trkpt>
      <trkpt lat="41.8753440" lon="-8.8389720">
        <ele>7.9</ele>
        <time>2021-05-18T12:40:01Z</time>
      </trkpt>
      <trkpt lat="41.8753440" lon="-8.8389720">
        <ele>7.9</ele>
        <time>2021-05-18T12:40:02Z</time>
      </trkpt>
      <trkpt lat="41.8753440" lon="-8.8389720">
        <ele>7.9</ele>
        <time>2021-05-18T12:40:03Z</time>
      </trkpt>
      <trkpt lat="41.8753440" lon="-8.8389720">
        <ele>7.9</ele>
        <time>2021-05-18T12:40:04Z</time>
      </trkpt>
      <trkpt lat="41.8753440" lon="-8.8389720">
        <ele>7.9</ele>
        <time>2021-05-18T12:40:05Z</time>
      </trkpt>
      <trkpt lat="41.8753440" lon="-8.8389720">
        <ele>7.9</ele>
        <time>2021-05-18T12:40:06Z</time>
      </trkpt>
      <trkpt lat="41.8753440" lon="-8.8389720">
        <ele>7.9</ele>
        <time>2021-05-18T12:40:07Z</time>
      </trkpt>
      <trkpt lat="41.8753500" lon="-8.8389690">
        <ele>7.9</ele>
        <time>2021-05-18T12:40:08Z</time>
      </trkpt>
      <trkpt lat="41.8753500" lon="-8.8389670">
        <ele>7.9</ele>
        <time>2021-05-18T12:40:09Z</time>
      </trkpt>
      <trkpt lat="41.8753520" lon="-8.8389660">
        <ele>7.9</ele>
        <time>2021-05-18T12:40:10Z</time>
      </trkpt>
      <trkpt lat="41.8753530" lon="-8.8389630">
        <ele>7.9</ele>
        <time>2021-05-18T12:40:11Z</time>
      </trkpt>
      <trkpt lat="41.8753530" lon="-8.8389610">
        <ele>7.9</ele>
        <time>2021-05-18T12:40:12Z</time>
      </trkpt>
      <trkpt lat="41.8753540" lon="-8.8389600">
        <ele>7.9</ele>
        <time>2021-05-18T12:40:13Z</time>
      </trkpt>
      <trkpt lat="41.8753540" lon="-8.8389600">
        <ele>7.9</ele>
        <time>2021-05-18T12:40:14Z</time>
      </trkpt>
      <trkpt lat="41.8753540" lon="-8.8389600">
        <ele>7.9</ele>
        <time>2021-05-18T12:40:15Z</time>
      </trkpt>
      <trkpt lat="41.8753540" lon="-8.8389600">
        <ele>7.9</ele>
        <time>2021-05-18T12:40:16Z</time>
      </trkpt>
      <trkpt lat="41.8753560" lon="-8.8389530">
        <ele>7.9</ele>
        <time>2021-05-18T12:40:17Z</time>
      </trkpt>
      <trkpt lat="41.8753560" lon="-8.8389530">
        <ele>7.9</ele>
        <time>2021-05-18T12:40:18Z</time>
      </trkpt>
      <trkpt lat="41.8753560" lon="-8.8389530">
        <ele>7.9</ele>
        <time>2021-05-18T12:40:19Z</time>
      </trkpt>
      <trkpt lat="41.8753580" lon="-8.8389520">
        <ele>7.9</ele>
        <time>2021-05-18T12:40:20Z</time>
      </trkpt>
      <trkpt lat="41.8753560" lon="-8.8389520">
        <ele>7.9</ele>
        <time>2021-05-18T12:40:21Z</time>
      </trkpt>
      <trkpt lat="41.8753590" lon="-8.8389520">
        <ele>7.9</ele>
        <time>2021-05-18T12:40:22Z</time>
      </trkpt>
      <trkpt lat="41.8753610" lon="-8.8389560">
        <ele>7.9</ele>
        <time>2021-05-18T12:40:23Z</time>
      </trkpt>
      <trkpt lat="41.8753610" lon="-8.8389550">
        <ele>7.9</ele>
        <time>2021-05-18T12:40:24Z</time>
      </trkpt>
      <trkpt lat="41.8753610" lon="-8.8389550">
        <ele>7.9</ele>
        <time>2021-05-18T12:40:25Z</time>
      </trkpt>
      <trkpt lat="41.8753610" lon="-8.8389550">
        <ele>7.9</ele>
        <time>2021-05-18T12:40:26Z</time>
      </trkpt>
      <trkpt lat="41.8753610" lon="-8.8389550">
        <ele>7.9</ele>
        <time>2021-05-18T12:40:27Z</time>
      </trkpt>
      <trkpt lat="41.8753650" lon="-8.8389540">
        <ele>7.9</ele>
        <time>2021-05-18T12:40:28Z</time>
      </trkpt>
      <trkpt lat="41.8753650" lon="-8.8389490">
        <ele>7.9</ele>
        <time>2021-05-18T12:40:29Z</time>
      </trkpt>
      <trkpt lat="41.8753580" lon="-8.8389550">
        <ele>7.9</ele>
        <time>2021-05-18T12:40:30Z</time>
      </trkpt>
      <trkpt lat="41.8753550" lon="-8.8389570">
        <ele>7.9</ele>
        <time>2021-05-18T12:40:31Z</time>
      </trkpt>
      <trkpt lat="41.8753540" lon="-8.8389570">
        <ele>7.9</ele>
        <time>2021-05-18T12:40:32Z</time>
      </trkpt>
      <trkpt lat="41.8753380" lon="-8.8389540">
        <ele>7.9</ele>
        <time>2021-05-18T12:40:33Z</time>
      </trkpt>
      <trkpt lat="41.8753380" lon="-8.8389540">
        <ele>7.9</ele>
        <time>2021-05-18T12:40:34Z</time>
      </trkpt>
      <trkpt lat="41.8753390" lon="-8.8389570">
        <ele>7.9</ele>
        <time>2021-05-18T12:40:35Z</time>
      </trkpt>
      <trkpt lat="41.8753370" lon="-8.8389570">
        <ele>7.9</ele>
        <time>2021-05-18T12:40:36Z</time>
      </trkpt>
      <trkpt lat="41.8753300" lon="-8.8389690">
        <ele>7.9</ele>
        <time>2021-05-18T12:40:37Z</time>
      </trkpt>
      <trkpt lat="41.8753260" lon="-8.8389760">
        <ele>7.9</ele>
        <time>2021-05-18T12:40:38Z</time>
      </trkpt>
      <trkpt lat="41.8753260" lon="-8.8389760">
        <ele>7.9</ele>
        <time>2021-05-18T12:40:39Z</time>
      </trkpt>
      <trkpt lat="41.8753260" lon="-8.8389760">
        <ele>7.9</ele>
        <time>2021-05-18T12:40:40Z</time>
      </trkpt>
      <trkpt lat="41.8753300" lon="-8.8389730">
        <ele>7.9</ele>
        <time>2021-05-18T12:40:41Z</time>
      </trkpt>
      <trkpt lat="41.8753280" lon="-8.8389770">
        <ele>7.9</ele>
        <time>2021-05-18T12:40:42Z</time>
      </trkpt>
      <trkpt lat="41.8753280" lon="-8.8389790">
        <ele>7.9</ele>
        <time>2021-05-18T12:40:43Z</time>
      </trkpt>
      <trkpt lat="41.8753280" lon="-8.8389790">
        <ele>7.9</ele>
        <time>2021-05-18T12:40:44Z</time>
      </trkpt>
      <trkpt lat="41.8753280" lon="-8.8389790">
        <ele>7.9</ele>
        <time>2021-05-18T12:40:45Z</time>
      </trkpt>
      <trkpt lat="41.8753280" lon="-8.8389790">
        <ele>7.9</ele>
        <time>2021-05-18T12:40:46Z</time>
      </trkpt>
      <trkpt lat="41.8753280" lon="-8.8389790">
        <ele>7.9</ele>
        <time>2021-05-18T12:40:47Z</time>
      </trkpt>
      <trkpt lat="41.8753280" lon="-8.8389790">
        <ele>7.9</ele>
        <time>2021-05-18T12:40:48Z</time>
      </trkpt>
      <trkpt lat="41.8753280" lon="-8.8389790">
        <ele>7.9</ele>
        <time>2021-05-18T12:40:49Z</time>
      </trkpt>
      <trkpt lat="41.8753280" lon="-8.8389790">
        <ele>7.9</ele>
        <time>2021-05-18T12:40:50Z</time>
      </trkpt>
      <trkpt lat="41.8753280" lon="-8.8389790">
        <ele>7.9</ele>
        <time>2021-05-18T12:40:52Z</time>
      </trkpt>
      <trkpt lat="41.8753280" lon="-8.8389790">
        <ele>7.9</ele>
        <time>2021-05-18T12:40:53Z</time>
      </trkpt>
      <trkpt lat="41.8753280" lon="-8.8389790">
        <ele>7.9</ele>
        <time>2021-05-18T12:40:54Z</time>
      </trkpt>
      <trkpt lat="41.8753280" lon="-8.8389790">
        <ele>7.9</ele>
        <time>2021-05-18T12:40:55Z</time>
      </trkpt>
      <trkpt lat="41.8753280" lon="-8.8389790">
        <ele>7.9</ele>
        <time>2021-05-18T12:40:56Z</time>
      </trkpt>
      <trkpt lat="41.8753280" lon="-8.8389790">
        <ele>7.9</ele>
        <time>2021-05-18T12:40:57Z</time>
      </trkpt>
      <trkpt lat="41.8753280" lon="-8.8389790">
        <ele>7.9</ele>
        <time>2021-05-18T12:40:58Z</time>
      </trkpt>
      <trkpt lat="41.8753280" lon="-8.8389790">
        <ele>7.9</ele>
        <time>2021-05-18T12:40:59Z</time>
      </trkpt>
      <trkpt lat="41.8753280" lon="-8.8389790">
        <ele>7.9</ele>
        <time>2021-05-18T12:41:00Z</time>
      </trkpt>
      <trkpt lat="41.8753280" lon="-8.8389790">
        <ele>7.9</ele>
        <time>2021-05-18T12:41:01Z</time>
      </trkpt>
      <trkpt lat="41.8753280" lon="-8.8389790">
        <ele>7.9</ele>
        <time>2021-05-18T12:41:02Z</time>
      </trkpt>
      <trkpt lat="41.8753280" lon="-8.8389790">
        <ele>7.9</ele>
        <time>2021-05-18T12:41:03Z</time>
      </trkpt>
      <trkpt lat="41.8753280" lon="-8.8389790">
        <ele>7.9</ele>
        <time>2021-05-18T12:41:04Z</time>
      </trkpt>
      <trkpt lat="41.8753280" lon="-8.8389790">
        <ele>7.9</ele>
        <time>2021-05-18T12:41:05Z</time>
      </trkpt>
      <trkpt lat="41.8753280" lon="-8.8389790">
        <ele>7.9</ele>
        <time>2021-05-18T12:41:06Z</time>
      </trkpt>
      <trkpt lat="41.8753100" lon="-8.8389930">
        <ele>7.9</ele>
        <time>2021-05-18T12:41:07Z</time>
      </trkpt>
      <trkpt lat="41.8753100" lon="-8.8389930">
        <ele>7.9</ele>
        <time>2021-05-18T12:41:08Z</time>
      </trkpt>
      <trkpt lat="41.8753100" lon="-8.8389930">
        <ele>7.9</ele>
        <time>2021-05-18T12:41:09Z</time>
      </trkpt>
      <trkpt lat="41.8753100" lon="-8.8389930">
        <ele>7.9</ele>
        <time>2021-05-18T12:41:10Z</time>
      </trkpt>
      <trkpt lat="41.8753100" lon="-8.8389930">
        <ele>7.9</ele>
        <time>2021-05-18T12:41:11Z</time>
      </trkpt>
      <trkpt lat="41.8753100" lon="-8.8389930">
        <ele>7.9</ele>
        <time>2021-05-18T12:41:12Z</time>
      </trkpt>
      <trkpt lat="41.8753100" lon="-8.8389930">
        <ele>7.9</ele>
        <time>2021-05-18T12:41:13Z</time>
      </trkpt>
      <trkpt lat="41.8753100" lon="-8.8389930">
        <ele>7.9</ele>
        <time>2021-05-18T12:41:14Z</time>
      </trkpt>
      <trkpt lat="41.8753100" lon="-8.8389930">
        <ele>7.9</ele>
        <time>2021-05-18T12:41:15Z</time>
      </trkpt>
      <trkpt lat="41.8753100" lon="-8.8389930">
        <ele>7.8</ele>
        <time>2021-05-18T12:41:16Z</time>
      </trkpt>
      <trkpt lat="41.8753100" lon="-8.8389930">
        <ele>7.8</ele>
        <time>2021-05-18T12:41:17Z</time>
      </trkpt>
      <trkpt lat="41.8753100" lon="-8.8389930">
        <ele>7.8</ele>
        <time>2021-05-18T12:41:18Z</time>
      </trkpt>
      <trkpt lat="41.8753100" lon="-8.8389930">
        <ele>7.8</ele>
        <time>2021-05-18T12:41:19Z</time>
      </trkpt>
      <trkpt lat="41.8753100" lon="-8.8389930">
        <ele>7.8</ele>
        <time>2021-05-18T12:41:20Z</time>
      </trkpt>
      <trkpt lat="41.8753100" lon="-8.8389930">
        <ele>7.8</ele>
        <time>2021-05-18T12:41:21Z</time>
      </trkpt>
      <trkpt lat="41.8753100" lon="-8.8389930">
        <ele>7.8</ele>
        <time>2021-05-18T12:41:22Z</time>
      </trkpt>
      <trkpt lat="41.8753100" lon="-8.8389930">
        <ele>7.7</ele>
        <time>2021-05-18T12:41:23Z</time>
      </trkpt>
      <trkpt lat="41.8753100" lon="-8.8389930">
        <ele>7.7</ele>
        <time>2021-05-18T12:41:24Z</time>
      </trkpt>
      <trkpt lat="41.8753100" lon="-8.8389930">
        <ele>7.7</ele>
        <time>2021-05-18T12:41:25Z</time>
      </trkpt>
      <trkpt lat="41.8753100" lon="-8.8389930">
        <ele>7.7</ele>
        <time>2021-05-18T12:41:26Z</time>
      </trkpt>
      <trkpt lat="41.8753100" lon="-8.8389930">
        <ele>7.7</ele>
        <time>2021-05-18T12:41:27Z</time>
      </trkpt>
      <trkpt lat="41.8753100" lon="-8.8389930">
        <ele>7.7</ele>
        <time>2021-05-18T12:41:28Z</time>
      </trkpt>
      <trkpt lat="41.8753100" lon="-8.8389930">
        <ele>7.6</ele>
        <time>2021-05-18T12:41:29Z</time>
      </trkpt>
      <trkpt lat="41.8753100" lon="-8.8389930">
        <ele>7.6</ele>
        <time>2021-05-18T12:41:30Z</time>
      </trkpt>
      <trkpt lat="41.8753100" lon="-8.8389930">
        <ele>7.6</ele>
        <time>2021-05-18T12:41:31Z</time>
      </trkpt>
      <trkpt lat="41.8753100" lon="-8.8389930">
        <ele>7.6</ele>
        <time>2021-05-18T12:41:32Z</time>
      </trkpt>
      <trkpt lat="41.8753100" lon="-8.8389930">
        <ele>7.6</ele>
        <time>2021-05-18T12:41:33Z</time>
      </trkpt>
      <trkpt lat="41.8753100" lon="-8.8389930">
        <ele>7.6</ele>
        <time>2021-05-18T12:41:34Z</time>
      </trkpt>
      <trkpt lat="41.8753100" lon="-8.8389930">
        <ele>7.6</ele>
        <time>2021-05-18T12:41:35Z</time>
      </trkpt>
      <trkpt lat="41.8753100" lon="-8.8389930">
        <ele>7.5</ele>
        <time>2021-05-18T12:41:36Z</time>
      </trkpt>
      <trkpt lat="41.8753100" lon="-8.8389930">
        <ele>7.5</ele>
        <time>2021-05-18T12:41:37Z</time>
      </trkpt>
      <trkpt lat="41.8753100" lon="-8.8389930">
        <ele>7.5</ele>
        <time>2021-05-18T12:41:38Z</time>
      </trkpt>
      <trkpt lat="41.8753100" lon="-8.8389930">
        <ele>7.5</ele>
        <time>2021-05-18T12:41:39Z</time>
      </trkpt>
      <trkpt lat="41.8753100" lon="-8.8389930">
        <ele>7.5</ele>
        <time>2021-05-18T12:41:40Z</time>
      </trkpt>
      <trkpt lat="41.8753100" lon="-8.8389930">
        <ele>7.5</ele>
        <time>2021-05-18T12:41:41Z</time>
      </trkpt>
      <trkpt lat="41.8753100" lon="-8.8389930">
        <ele>7.5</ele>
        <time>2021-05-18T12:41:42Z</time>
      </trkpt>
      <trkpt lat="41.8753100" lon="-8.8389930">
        <ele>7.4</ele>
        <time>2021-05-18T12:41:43Z</time>
      </trkpt>
      <trkpt lat="41.8753100" lon="-8.8389930">
        <ele>7.4</ele>
        <time>2021-05-18T12:41:44Z</time>
      </trkpt>
      <trkpt lat="41.8753100" lon="-8.8389930">
        <ele>7.4</ele>
        <time>2021-05-18T12:41:45Z</time>
      </trkpt>
      <trkpt lat="41.8753100" lon="-8.8389930">
        <ele>7.4</ele>
        <time>2021-05-18T12:41:46Z</time>
      </trkpt>
      <trkpt lat="41.8753100" lon="-8.8389930">
        <ele>7.4</ele>
        <time>2021-05-18T12:41:47Z</time>
      </trkpt>
      <trkpt lat="41.8753200" lon="-8.8389910">
        <ele>7.4</ele>
        <time>2021-05-18T12:41:48Z</time>
      </trkpt>
      <trkpt lat="41.8753200" lon="-8.8389910">
        <ele>7.3</ele>
        <time>2021-05-18T12:41:49Z</time>
      </trkpt>
      <trkpt lat="41.8753200" lon="-8.8389910">
        <ele>7.3</ele>
        <time>2021-05-18T12:41:50Z</time>
      </trkpt>
      <trkpt lat="41.8753200" lon="-8.8389910">
        <ele>7.3</ele>
        <time>2021-05-18T12:41:51Z</time>
      </trkpt>
      <trkpt lat="41.8753200" lon="-8.8389910">
        <ele>7.3</ele>
        <time>2021-05-18T12:41:52Z</time>
      </trkpt>
      <trkpt lat="41.8753200" lon="-8.8389910">
        <ele>7.3</ele>
        <time>2021-05-18T12:41:53Z</time>
      </trkpt>
      <trkpt lat="41.8753200" lon="-8.8389910">
        <ele>7.3</ele>
        <time>2021-05-18T12:41:54Z</time>
      </trkpt>
      <trkpt lat="41.8753200" lon="-8.8389910">
        <ele>7.3</ele>
        <time>2021-05-18T12:41:55Z</time>
      </trkpt>
      <trkpt lat="41.8753200" lon="-8.8389910">
        <ele>7.2</ele>
        <time>2021-05-18T12:41:56Z</time>
      </trkpt>
      <trkpt lat="41.8753220" lon="-8.8389780">
        <ele>7.2</ele>
        <time>2021-05-18T12:41:57Z</time>
      </trkpt>
      <trkpt lat="41.8753220" lon="-8.8389770">
        <ele>7.2</ele>
        <time>2021-05-18T12:41:58Z</time>
      </trkpt>
      <trkpt lat="41.8753240" lon="-8.8389760">
        <ele>7.2</ele>
        <time>2021-05-18T12:41:59Z</time>
      </trkpt>
      <trkpt lat="41.8753240" lon="-8.8389740">
        <ele>7.2</ele>
        <time>2021-05-18T12:42:00Z</time>
      </trkpt>
      <trkpt lat="41.8753250" lon="-8.8389740">
        <ele>7.2</ele>
        <time>2021-05-18T12:42:01Z</time>
      </trkpt>
      <trkpt lat="41.8753260" lon="-8.8389780">
        <ele>7.2</ele>
        <time>2021-05-18T12:42:02Z</time>
      </trkpt>
      <trkpt lat="41.8753260" lon="-8.8389800">
        <ele>7.1</ele>
        <time>2021-05-18T12:42:03Z</time>
      </trkpt>
      <trkpt lat="41.8753280" lon="-8.8389790">
        <ele>7.1</ele>
        <time>2021-05-18T12:42:04Z</time>
      </trkpt>
      <trkpt lat="41.8753280" lon="-8.8389810">
        <ele>7.1</ele>
        <time>2021-05-18T12:42:05Z</time>
      </trkpt>
      <trkpt lat="41.8753310" lon="-8.8389790">
        <ele>7.1</ele>
        <time>2021-05-18T12:42:06Z</time>
      </trkpt>
      <trkpt lat="41.8753310" lon="-8.8389790">
        <ele>7.1</ele>
        <time>2021-05-18T12:42:07Z</time>
      </trkpt>
      <trkpt lat="41.8753350" lon="-8.8389790">
        <ele>7.1</ele>
        <time>2021-05-18T12:42:08Z</time>
      </trkpt>
      <trkpt lat="41.8753340" lon="-8.8389830">
        <ele>7.0</ele>
        <time>2021-05-18T12:42:09Z</time>
      </trkpt>
      <trkpt lat="41.8753340" lon="-8.8389830">
        <ele>7.0</ele>
        <time>2021-05-18T12:42:10Z</time>
      </trkpt>
      <trkpt lat="41.8753340" lon="-8.8389830">
        <ele>7.0</ele>
        <time>2021-05-18T12:42:11Z</time>
      </trkpt>
      <trkpt lat="41.8753340" lon="-8.8389830">
        <ele>7.0</ele>
        <time>2021-05-18T12:42:12Z</time>
      </trkpt>
      <trkpt lat="41.8753340" lon="-8.8389830">
        <ele>7.0</ele>
        <time>2021-05-18T12:42:13Z</time>
      </trkpt>
      <trkpt lat="41.8753340" lon="-8.8389830">
        <ele>7.0</ele>
        <time>2021-05-18T12:42:14Z</time>
      </trkpt>
      <trkpt lat="41.8753390" lon="-8.8389730">
        <ele>7.0</ele>
        <time>2021-05-18T12:42:15Z</time>
      </trkpt>
      <trkpt lat="41.8753390" lon="-8.8389740">
        <ele>6.9</ele>
        <time>2021-05-18T12:42:16Z</time>
      </trkpt>
      <trkpt lat="41.8753390" lon="-8.8389730">
        <ele>6.9</ele>
        <time>2021-05-18T12:42:17Z</time>
      </trkpt>
      <trkpt lat="41.8753380" lon="-8.8389680">
        <ele>6.9</ele>
        <time>2021-05-18T12:42:18Z</time>
      </trkpt>
      <trkpt lat="41.8753380" lon="-8.8389670">
        <ele>6.9</ele>
        <time>2021-05-18T12:42:19Z</time>
      </trkpt>
      <trkpt lat="41.8753380" lon="-8.8389670">
        <ele>6.9</ele>
        <time>2021-05-18T12:42:20Z</time>
      </trkpt>
      <trkpt lat="41.8753440" lon="-8.8389720">
        <ele>6.9</ele>
        <time>2021-05-18T12:42:21Z</time>
      </trkpt>
      <trkpt lat="41.8753420" lon="-8.8389750">
        <ele>6.9</ele>
        <time>2021-05-18T12:42:22Z</time>
      </trkpt>
      <trkpt lat="41.8753420" lon="-8.8389750">
        <ele>6.8</ele>
        <time>2021-05-18T12:42:23Z</time>
      </trkpt>
      <trkpt lat="41.8753420" lon="-8.8389750">
        <ele>6.8</ele>
        <time>2021-05-18T12:42:24Z</time>
      </trkpt>
      <trkpt lat="41.8753420" lon="-8.8389750">
        <ele>6.8</ele>
        <time>2021-05-18T12:42:25Z</time>
      </trkpt>
      <trkpt lat="41.8753420" lon="-8.8389750">
        <ele>6.8</ele>
        <time>2021-05-18T12:42:26Z</time>
      </trkpt>
      <trkpt lat="41.8753420" lon="-8.8389750">
        <ele>6.8</ele>
        <time>2021-05-18T12:42:27Z</time>
      </trkpt>
      <trkpt lat="41.8753420" lon="-8.8389800">
        <ele>6.8</ele>
        <time>2021-05-18T12:42:28Z</time>
      </trkpt>
      <trkpt lat="41.8753420" lon="-8.8389810">
        <ele>6.7</ele>
        <time>2021-05-18T12:42:29Z</time>
      </trkpt>
      <trkpt lat="41.8753400" lon="-8.8389790">
        <ele>6.7</ele>
        <time>2021-05-18T12:42:31Z</time>
      </trkpt>
      <trkpt lat="41.8753410" lon="-8.8389790">
        <ele>6.7</ele>
        <time>2021-05-18T12:42:32Z</time>
      </trkpt>
      <trkpt lat="41.8753410" lon="-8.8389790">
        <ele>6.7</ele>
        <time>2021-05-18T12:42:33Z</time>
      </trkpt>
      <trkpt lat="41.8753410" lon="-8.8389790">
        <ele>6.7</ele>
        <time>2021-05-18T12:42:34Z</time>
      </trkpt>
      <trkpt lat="41.8753410" lon="-8.8389790">
        <ele>6.7</ele>
        <time>2021-05-18T12:42:35Z</time>
      </trkpt>
      <trkpt lat="41.8753410" lon="-8.8389790">
        <ele>6.7</ele>
        <time>2021-05-18T12:42:36Z</time>
      </trkpt>
      <trkpt lat="41.8753370" lon="-8.8389780">
        <ele>6.6</ele>
        <time>2021-05-18T12:42:37Z</time>
      </trkpt>
      <trkpt lat="41.8753390" lon="-8.8389700">
        <ele>6.6</ele>
        <time>2021-05-18T12:42:38Z</time>
      </trkpt>
      <trkpt lat="41.8753390" lon="-8.8389670">
        <ele>6.6</ele>
        <time>2021-05-18T12:42:39Z</time>
      </trkpt>
      <trkpt lat="41.8753390" lon="-8.8389660">
        <ele>6.6</ele>
        <time>2021-05-18T12:42:40Z</time>
      </trkpt>
      <trkpt lat="41.8753420" lon="-8.8389570">
        <ele>6.6</ele>
        <time>2021-05-18T12:42:41Z</time>
      </trkpt>
      <trkpt lat="41.8753390" lon="-8.8389590">
        <ele>6.6</ele>
        <time>2021-05-18T12:42:42Z</time>
      </trkpt>
      <trkpt lat="41.8753390" lon="-8.8389590">
        <ele>6.6</ele>
        <time>2021-05-18T12:42:43Z</time>
      </trkpt>
      <trkpt lat="41.8753390" lon="-8.8389590">
        <ele>6.5</ele>
        <time>2021-05-18T12:42:44Z</time>
      </trkpt>
      <trkpt lat="41.8753390" lon="-8.8389590">
        <ele>6.5</ele>
        <time>2021-05-18T12:42:45Z</time>
      </trkpt>
      <trkpt lat="41.8753390" lon="-8.8389590">
        <ele>6.5</ele>
        <time>2021-05-18T12:42:46Z</time>
      </trkpt>
      <trkpt lat="41.8753390" lon="-8.8389590">
        <ele>6.5</ele>
        <time>2021-05-18T12:42:47Z</time>
      </trkpt>
      <trkpt lat="41.8753390" lon="-8.8389590">
        <ele>6.5</ele>
        <time>2021-05-18T12:42:48Z</time>
      </trkpt>
      <trkpt lat="41.8753330" lon="-8.8389680">
        <ele>6.5</ele>
        <time>2021-05-18T12:42:49Z</time>
      </trkpt>
      <trkpt lat="41.8753340" lon="-8.8389680">
        <ele>6.4</ele>
        <time>2021-05-18T12:42:50Z</time>
      </trkpt>
      <trkpt lat="41.8753350" lon="-8.8389700">
        <ele>6.4</ele>
        <time>2021-05-18T12:42:51Z</time>
      </trkpt>
      <trkpt lat="41.8753350" lon="-8.8389740">
        <ele>6.4</ele>
        <time>2021-05-18T12:42:52Z</time>
      </trkpt>
      <trkpt lat="41.8753340" lon="-8.8389680">
        <ele>6.4</ele>
        <time>2021-05-18T12:42:53Z</time>
      </trkpt>
      <trkpt lat="41.8753350" lon="-8.8389680">
        <ele>6.4</ele>
        <time>2021-05-18T12:42:54Z</time>
      </trkpt>
      <trkpt lat="41.8753370" lon="-8.8389670">
        <ele>6.4</ele>
        <time>2021-05-18T12:42:55Z</time>
      </trkpt>
      <trkpt lat="41.8753390" lon="-8.8389760">
        <ele>6.4</ele>
        <time>2021-05-18T12:42:56Z</time>
      </trkpt>
      <trkpt lat="41.8753390" lon="-8.8389760">
        <ele>6.4</ele>
        <time>2021-05-18T12:42:57Z</time>
      </trkpt>
      <trkpt lat="41.8753390" lon="-8.8389760">
        <ele>6.4</ele>
        <time>2021-05-18T12:42:58Z</time>
      </trkpt>
      <trkpt lat="41.8753390" lon="-8.8389760">
        <ele>6.4</ele>
        <time>2021-05-18T12:42:59Z</time>
      </trkpt>
      <trkpt lat="41.8753300" lon="-8.8389830">
        <ele>6.4</ele>
        <time>2021-05-18T12:43:00Z</time>
      </trkpt>
      <trkpt lat="41.8753300" lon="-8.8389820">
        <ele>6.4</ele>
        <time>2021-05-18T12:43:01Z</time>
      </trkpt>
      <trkpt lat="41.8753280" lon="-8.8389760">
        <ele>6.4</ele>
        <time>2021-05-18T12:43:02Z</time>
      </trkpt>
      <trkpt lat="41.8753290" lon="-8.8389780">
        <ele>6.4</ele>
        <time>2021-05-18T12:43:03Z</time>
      </trkpt>
      <trkpt lat="41.8753310" lon="-8.8389780">
        <ele>6.4</ele>
        <time>2021-05-18T12:43:04Z</time>
      </trkpt>
      <trkpt lat="41.8753310" lon="-8.8389850">
        <ele>6.4</ele>
        <time>2021-05-18T12:43:05Z</time>
      </trkpt>
      <trkpt lat="41.8753310" lon="-8.8389820">
        <ele>6.4</ele>
        <time>2021-05-18T12:43:06Z</time>
      </trkpt>
      <trkpt lat="41.8753350" lon="-8.8389880">
        <ele>6.4</ele>
        <time>2021-05-18T12:43:07Z</time>
      </trkpt>
      <trkpt lat="41.8753350" lon="-8.8389880">
        <ele>6.4</ele>
        <time>2021-05-18T12:43:08Z</time>
      </trkpt>
      <trkpt lat="41.8753350" lon="-8.8389880">
        <ele>6.4</ele>
        <time>2021-05-18T12:43:09Z</time>
      </trkpt>
      <trkpt lat="41.8753350" lon="-8.8389880">
        <ele>6.4</ele>
        <time>2021-05-18T12:43:10Z</time>
      </trkpt>
      <trkpt lat="41.8753350" lon="-8.8389880">
        <ele>6.4</ele>
        <time>2021-05-18T12:43:11Z</time>
      </trkpt>
      <trkpt lat="41.8753350" lon="-8.8389880">
        <ele>6.4</ele>
        <time>2021-05-18T12:43:12Z</time>
      </trkpt>
      <trkpt lat="41.8753350" lon="-8.8389880">
        <ele>6.4</ele>
        <time>2021-05-18T12:43:13Z</time>
      </trkpt>
      <trkpt lat="41.8753350" lon="-8.8389880">
        <ele>6.4</ele>
        <time>2021-05-18T12:43:14Z</time>
      </trkpt>
      <trkpt lat="41.8753350" lon="-8.8389880">
        <ele>6.4</ele>
        <time>2021-05-18T12:43:15Z</time>
      </trkpt>
      <trkpt lat="41.8753350" lon="-8.8389880">
        <ele>6.4</ele>
        <time>2021-05-18T12:43:16Z</time>
      </trkpt>
      <trkpt lat="41.8753350" lon="-8.8389880">
        <ele>6.4</ele>
        <time>2021-05-18T12:43:17Z</time>
      </trkpt>
      <trkpt lat="41.8753350" lon="-8.8389880">
        <ele>6.4</ele>
        <time>2021-05-18T12:43:18Z</time>
      </trkpt>
      <trkpt lat="41.8753350" lon="-8.8389880">
        <ele>6.4</ele>
        <time>2021-05-18T12:43:19Z</time>
      </trkpt>
      <trkpt lat="41.8753350" lon="-8.8389880">
        <ele>6.4</ele>
        <time>2021-05-18T12:43:20Z</time>
      </trkpt>
      <trkpt lat="41.8753350" lon="-8.8389880">
        <ele>6.4</ele>
        <time>2021-05-18T12:43:21Z</time>
      </trkpt>
      <trkpt lat="41.8753350" lon="-8.8389880">
        <ele>6.4</ele>
        <time>2021-05-18T12:43:22Z</time>
      </trkpt>
      <trkpt lat="41.8753350" lon="-8.8389880">
        <ele>6.4</ele>
        <time>2021-05-18T12:43:23Z</time>
      </trkpt>
      <trkpt lat="41.8753350" lon="-8.8389880">
        <ele>6.4</ele>
        <time>2021-05-18T12:43:24Z</time>
      </trkpt>
      <trkpt lat="41.8753350" lon="-8.8389880">
        <ele>6.4</ele>
        <time>2021-05-18T12:43:25Z</time>
      </trkpt>
      <trkpt lat="41.8753350" lon="-8.8389880">
        <ele>6.4</ele>
        <time>2021-05-18T12:43:26Z</time>
      </trkpt>
      <trkpt lat="41.8753350" lon="-8.8389880">
        <ele>6.4</ele>
        <time>2021-05-18T12:43:27Z</time>
      </trkpt>
      <trkpt lat="41.8753350" lon="-8.8389880">
        <ele>6.4</ele>
        <time>2021-05-18T12:43:28Z</time>
      </trkpt>
      <trkpt lat="41.8753350" lon="-8.8389880">
        <ele>6.4</ele>
        <time>2021-05-18T12:43:29Z</time>
      </trkpt>
      <trkpt lat="41.8753350" lon="-8.8389880">
        <ele>6.4</ele>
        <time>2021-05-18T12:43:30Z</time>
      </trkpt>
      <trkpt lat="41.8753350" lon="-8.8389880">
        <ele>6.4</ele>
        <time>2021-05-18T12:43:31Z</time>
      </trkpt>
      <trkpt lat="41.8753350" lon="-8.8389880">
        <ele>6.4</ele>
        <time>2021-05-18T12:43:32Z</time>
      </trkpt>
      <trkpt lat="41.8753350" lon="-8.8389880">
        <ele>6.4</ele>
        <time>2021-05-18T12:43:33Z</time>
      </trkpt>
      <trkpt lat="41.8753350" lon="-8.8389880">
        <ele>6.4</ele>
        <time>2021-05-18T12:43:34Z</time>
      </trkpt>
      <trkpt lat="41.8753350" lon="-8.8389880">
        <ele>6.4</ele>
        <time>2021-05-18T12:43:35Z</time>
      </trkpt>
      <trkpt lat="41.8753350" lon="-8.8389880">
        <ele>6.4</ele>
        <time>2021-05-18T12:43:36Z</time>
      </trkpt>
      <trkpt lat="41.8753350" lon="-8.8389880">
        <ele>6.4</ele>
        <time>2021-05-18T12:43:37Z</time>
      </trkpt>
      <trkpt lat="41.8753350" lon="-8.8389880">
        <ele>6.4</ele>
        <time>2021-05-18T12:43:38Z</time>
      </trkpt>
      <trkpt lat="41.8753350" lon="-8.8389880">
        <ele>6.4</ele>
        <time>2021-05-18T12:43:39Z</time>
      </trkpt>
      <trkpt lat="41.8753350" lon="-8.8389880">
        <ele>6.4</ele>
        <time>2021-05-18T12:43:40Z</time>
      </trkpt>
      <trkpt lat="41.8753350" lon="-8.8389880">
        <ele>6.4</ele>
        <time>2021-05-18T12:43:41Z</time>
      </trkpt>
      <trkpt lat="41.8753350" lon="-8.8389880">
        <ele>6.4</ele>
        <time>2021-05-18T12:43:42Z</time>
      </trkpt>
      <trkpt lat="41.8753350" lon="-8.8389880">
        <ele>6.4</ele>
        <time>2021-05-18T12:43:43Z</time>
      </trkpt>
      <trkpt lat="41.8753350" lon="-8.8389880">
        <ele>6.4</ele>
        <time>2021-05-18T12:43:44Z</time>
      </trkpt>
      <trkpt lat="41.8753350" lon="-8.8389880">
        <ele>6.4</ele>
        <time>2021-05-18T12:43:45Z</time>
      </trkpt>
      <trkpt lat="41.8753350" lon="-8.8389880">
        <ele>6.4</ele>
        <time>2021-05-18T12:43:46Z</time>
      </trkpt>
      <trkpt lat="41.8753350" lon="-8.8389880">
        <ele>6.4</ele>
        <time>2021-05-18T12:43:47Z</time>
      </trkpt>
      <trkpt lat="41.8753350" lon="-8.8389880">
        <ele>6.4</ele>
        <time>2021-05-18T12:43:48Z</time>
      </trkpt>
      <trkpt lat="41.8753350" lon="-8.8389880">
        <ele>6.4</ele>
        <time>2021-05-18T12:43:49Z</time>
      </trkpt>
      <trkpt lat="41.8753350" lon="-8.8389880">
        <ele>6.4</ele>
        <time>2021-05-18T12:43:50Z</time>
      </trkpt>
      <trkpt lat="41.8753290" lon="-8.8390160">
        <ele>6.3</ele>
        <time>2021-05-18T12:43:51Z</time>
      </trkpt>
      <trkpt lat="41.8753290" lon="-8.8390170">
        <ele>6.3</ele>
        <time>2021-05-18T12:43:52Z</time>
      </trkpt>
      <trkpt lat="41.8753290" lon="-8.8390210">
        <ele>6.3</ele>
        <time>2021-05-18T12:43:53Z</time>
      </trkpt>
      <trkpt lat="41.8753290" lon="-8.8390210">
        <ele>6.3</ele>
        <time>2021-05-18T12:43:54Z</time>
      </trkpt>
      <trkpt lat="41.8753290" lon="-8.8390210">
        <ele>6.3</ele>
        <time>2021-05-18T12:43:55Z</time>
      </trkpt>
      <trkpt lat="41.8753290" lon="-8.8390210">
        <ele>6.3</ele>
        <time>2021-05-18T12:43:56Z</time>
      </trkpt>
      <trkpt lat="41.8753290" lon="-8.8390210">
        <ele>6.3</ele>
        <time>2021-05-18T12:43:57Z</time>
      </trkpt>
      <trkpt lat="41.8753290" lon="-8.8390210">
        <ele>6.3</ele>
        <time>2021-05-18T12:43:58Z</time>
      </trkpt>
      <trkpt lat="41.8753290" lon="-8.8390210">
        <ele>6.3</ele>
        <time>2021-05-18T12:43:59Z</time>
      </trkpt>
      <trkpt lat="41.8753290" lon="-8.8390210">
        <ele>6.3</ele>
        <time>2021-05-18T12:44:00Z</time>
      </trkpt>
      <trkpt lat="41.8753290" lon="-8.8390210">
        <ele>6.3</ele>
        <time>2021-05-18T12:44:01Z</time>
      </trkpt>
      <trkpt lat="41.8753290" lon="-8.8390210">
        <ele>6.3</ele>
        <time>2021-05-18T12:44:02Z</time>
      </trkpt>
      <trkpt lat="41.8753290" lon="-8.8390210">
        <ele>6.3</ele>
        <time>2021-05-18T12:44:03Z</time>
      </trkpt>
      <trkpt lat="41.8753290" lon="-8.8390210">
        <ele>6.3</ele>
        <time>2021-05-18T12:44:04Z</time>
      </trkpt>
      <trkpt lat="41.8753290" lon="-8.8390210">
        <ele>6.3</ele>
        <time>2021-05-18T12:44:05Z</time>
      </trkpt>
      <trkpt lat="41.8753290" lon="-8.8390210">
        <ele>6.3</ele>
        <time>2021-05-18T12:44:06Z</time>
      </trkpt>
      <trkpt lat="41.8753290" lon="-8.8390210">
        <ele>6.3</ele>
        <time>2021-05-18T12:44:07Z</time>
      </trkpt>
      <trkpt lat="41.8753290" lon="-8.8390210">
        <ele>6.3</ele>
        <time>2021-05-18T12:44:08Z</time>
      </trkpt>
      <trkpt lat="41.8753290" lon="-8.8390210">
        <ele>6.3</ele>
        <time>2021-05-18T12:44:09Z</time>
      </trkpt>
      <trkpt lat="41.8753290" lon="-8.8390210">
        <ele>6.3</ele>
        <time>2021-05-18T12:44:10Z</time>
      </trkpt>
      <trkpt lat="41.8753290" lon="-8.8390210">
        <ele>6.3</ele>
        <time>2021-05-18T12:44:11Z</time>
      </trkpt>
      <trkpt lat="41.8753290" lon="-8.8390210">
        <ele>6.3</ele>
        <time>2021-05-18T12:44:12Z</time>
      </trkpt>
      <trkpt lat="41.8753290" lon="-8.8390210">
        <ele>6.3</ele>
        <time>2021-05-18T12:44:13Z</time>
      </trkpt>
      <trkpt lat="41.8753290" lon="-8.8390210">
        <ele>6.3</ele>
        <time>2021-05-18T12:44:14Z</time>
      </trkpt>
      <trkpt lat="41.8753290" lon="-8.8390210">
        <ele>6.3</ele>
        <time>2021-05-18T12:44:15Z</time>
      </trkpt>
      <trkpt lat="41.8753290" lon="-8.8390210">
        <ele>6.3</ele>
        <time>2021-05-18T12:44:16Z</time>
      </trkpt>
      <trkpt lat="41.8753290" lon="-8.8390210">
        <ele>6.3</ele>
        <time>2021-05-18T12:44:17Z</time>
      </trkpt>
      <trkpt lat="41.8753290" lon="-8.8390210">
        <ele>6.3</ele>
        <time>2021-05-18T12:44:18Z</time>
      </trkpt>
      <trkpt lat="41.8753290" lon="-8.8390210">
        <ele>6.3</ele>
        <time>2021-05-18T12:44:19Z</time>
      </trkpt>
      <trkpt lat="41.8753290" lon="-8.8390210">
        <ele>6.3</ele>
        <time>2021-05-18T12:44:20Z</time>
      </trkpt>
      <trkpt lat="41.8753290" lon="-8.8390210">
        <ele>6.3</ele>
        <time>2021-05-18T12:44:21Z</time>
      </trkpt>
      <trkpt lat="41.8753290" lon="-8.8390210">
        <ele>6.3</ele>
        <time>2021-05-18T12:44:22Z</time>
      </trkpt>
      <trkpt lat="41.8753290" lon="-8.8390210">
        <ele>6.3</ele>
        <time>2021-05-18T12:44:23Z</time>
      </trkpt>
      <trkpt lat="41.8753290" lon="-8.8390210">
        <ele>6.3</ele>
        <time>2021-05-18T12:44:24Z</time>
      </trkpt>
      <trkpt lat="41.8753290" lon="-8.8390210">
        <ele>6.3</ele>
        <time>2021-05-18T12:44:25Z</time>
      </trkpt>
      <trkpt lat="41.8753290" lon="-8.8390210">
        <ele>6.3</ele>
        <time>2021-05-18T12:44:26Z</time>
      </trkpt>
      <trkpt lat="41.8753290" lon="-8.8390210">
        <ele>6.3</ele>
        <time>2021-05-18T12:44:27Z</time>
      </trkpt>
      <trkpt lat="41.8753290" lon="-8.8390210">
        <ele>6.3</ele>
        <time>2021-05-18T12:44:28Z</time>
      </trkpt>
      <trkpt lat="41.8753290" lon="-8.8390210">
        <ele>6.3</ele>
        <time>2021-05-18T12:44:29Z</time>
      </trkpt>
      <trkpt lat="41.8753290" lon="-8.8390210">
        <ele>6.3</ele>
        <time>2021-05-18T12:44:30Z</time>
      </trkpt>
      <trkpt lat="41.8753290" lon="-8.8390210">
        <ele>6.3</ele>
        <time>2021-05-18T12:44:31Z</time>
      </trkpt>
      <trkpt lat="41.8753290" lon="-8.8390210">
        <ele>6.3</ele>
        <time>2021-05-18T12:44:32Z</time>
      </trkpt>
      <trkpt lat="41.8753290" lon="-8.8390210">
        <ele>6.3</ele>
        <time>2021-05-18T12:44:33Z</time>
      </trkpt>
      <trkpt lat="41.8753290" lon="-8.8390210">
        <ele>6.3</ele>
        <time>2021-05-18T12:44:34Z</time>
      </trkpt>
      <trkpt lat="41.8753390" lon="-8.8390270">
        <ele>6.3</ele>
        <time>2021-05-18T12:44:35Z</time>
      </trkpt>
      <trkpt lat="41.8753390" lon="-8.8390290">
        <ele>6.3</ele>
        <time>2021-05-18T12:44:36Z</time>
      </trkpt>
      <trkpt lat="41.8753310" lon="-8.8390400">
        <ele>6.3</ele>
        <time>2021-05-18T12:44:37Z</time>
      </trkpt>
      <trkpt lat="41.8753210" lon="-8.8390460">
        <ele>6.3</ele>
        <time>2021-05-18T12:44:38Z</time>
      </trkpt>
      <trkpt lat="41.8753210" lon="-8.8390400">
        <ele>6.3</ele>
        <time>2021-05-18T12:44:39Z</time>
      </trkpt>
      <trkpt lat="41.8753240" lon="-8.8390330">
        <ele>6.3</ele>
        <time>2021-05-18T12:44:40Z</time>
      </trkpt>
      <trkpt lat="41.8753300" lon="-8.8390190">
        <ele>6.3</ele>
        <time>2021-05-18T12:44:41Z</time>
      </trkpt>
      <trkpt lat="41.8753330" lon="-8.8390090">
        <ele>6.4</ele>
        <time>2021-05-18T12:44:42Z</time>
      </trkpt>
      <trkpt lat="41.8753370" lon="-8.8389960">
        <ele>6.4</ele>
        <time>2021-05-18T12:44:43Z</time>
      </trkpt>
      <trkpt lat="41.8753370" lon="-8.8389910">
        <ele>6.4</ele>
        <time>2021-05-18T12:44:44Z</time>
      </trkpt>
      <trkpt lat="41.8753360" lon="-8.8389860">
        <ele>6.4</ele>
        <time>2021-05-18T12:44:45Z</time>
      </trkpt>
      <trkpt lat="41.8753370" lon="-8.8389770">
        <ele>6.4</ele>
        <time>2021-05-18T12:44:46Z</time>
      </trkpt>
      <trkpt lat="41.8753370" lon="-8.8389770">
        <ele>6.4</ele>
        <time>2021-05-18T12:44:47Z</time>
      </trkpt>
      <trkpt lat="41.8753370" lon="-8.8389770">
        <ele>6.4</ele>
        <time>2021-05-18T12:44:48Z</time>
      </trkpt>
      <trkpt lat="41.8753370" lon="-8.8389770">
        <ele>6.4</ele>
        <time>2021-05-18T12:44:49Z</time>
      </trkpt>
      <trkpt lat="41.8753400" lon="-8.8389550">
        <ele>6.4</ele>
        <time>2021-05-18T12:44:50Z</time>
      </trkpt>
      <trkpt lat="41.8753360" lon="-8.8389580">
        <ele>6.4</ele>
        <time>2021-05-18T12:44:51Z</time>
      </trkpt>
      <trkpt lat="41.8753380" lon="-8.8389570">
        <ele>6.4</ele>
        <time>2021-05-18T12:44:52Z</time>
      </trkpt>
      <trkpt lat="41.8753370" lon="-8.8389560">
        <ele>6.4</ele>
        <time>2021-05-18T12:44:53Z</time>
      </trkpt>
      <trkpt lat="41.8753370" lon="-8.8389560">
        <ele>6.4</ele>
        <time>2021-05-18T12:44:54Z</time>
      </trkpt>
      <trkpt lat="41.8753340" lon="-8.8389520">
        <ele>6.4</ele>
        <time>2021-05-18T12:44:55Z</time>
      </trkpt>
      <trkpt lat="41.8753340" lon="-8.8389510">
        <ele>6.4</ele>
        <time>2021-05-18T12:44:56Z</time>
      </trkpt>
      <trkpt lat="41.8753370" lon="-8.8389440">
        <ele>6.4</ele>
        <time>2021-05-18T12:44:57Z</time>
      </trkpt>
      <trkpt lat="41.8753360" lon="-8.8389430">
        <ele>6.4</ele>
        <time>2021-05-18T12:44:58Z</time>
      </trkpt>
      <trkpt lat="41.8753360" lon="-8.8389450">
        <ele>6.4</ele>
        <time>2021-05-18T12:44:59Z</time>
      </trkpt>
      <trkpt lat="41.8753360" lon="-8.8389450">
        <ele>6.4</ele>
        <time>2021-05-18T12:45:00Z</time>
      </trkpt>
      <trkpt lat="41.8753370" lon="-8.8389450">
        <ele>6.4</ele>
        <time>2021-05-18T12:45:01Z</time>
      </trkpt>
      <trkpt lat="41.8753380" lon="-8.8389450">
        <ele>6.4</ele>
        <time>2021-05-18T12:45:02Z</time>
      </trkpt>
      <trkpt lat="41.8753390" lon="-8.8389450">
        <ele>6.4</ele>
        <time>2021-05-18T12:45:03Z</time>
      </trkpt>
      <trkpt lat="41.8753370" lon="-8.8389460">
        <ele>6.4</ele>
        <time>2021-05-18T12:45:04Z</time>
      </trkpt>
      <trkpt lat="41.8753370" lon="-8.8389460">
        <ele>6.4</ele>
        <time>2021-05-18T12:45:05Z</time>
      </trkpt>
      <trkpt lat="41.8753350" lon="-8.8389470">
        <ele>6.4</ele>
        <time>2021-05-18T12:45:06Z</time>
      </trkpt>
      <trkpt lat="41.8753350" lon="-8.8389470">
        <ele>6.4</ele>
        <time>2021-05-18T12:45:07Z</time>
      </trkpt>
      <trkpt lat="41.8753350" lon="-8.8389470">
        <ele>6.4</ele>
        <time>2021-05-18T12:45:08Z</time>
      </trkpt>
      <trkpt lat="41.8753350" lon="-8.8389470">
        <ele>6.4</ele>
        <time>2021-05-18T12:45:09Z</time>
      </trkpt>
      <trkpt lat="41.8753350" lon="-8.8389470">
        <ele>6.4</ele>
        <time>2021-05-18T12:45:10Z</time>
      </trkpt>
      <trkpt lat="41.8753350" lon="-8.8389470">
        <ele>6.4</ele>
        <time>2021-05-18T12:45:11Z</time>
      </trkpt>
      <trkpt lat="41.8753350" lon="-8.8389470">
        <ele>6.4</ele>
        <time>2021-05-18T12:45:12Z</time>
      </trkpt>
      <trkpt lat="41.8753350" lon="-8.8389470">
        <ele>6.4</ele>
        <time>2021-05-18T12:45:13Z</time>
      </trkpt>
      <trkpt lat="41.8753350" lon="-8.8389470">
        <ele>6.4</ele>
        <time>2021-05-18T12:45:14Z</time>
      </trkpt>
      <trkpt lat="41.8753350" lon="-8.8389470">
        <ele>6.4</ele>
        <time>2021-05-18T12:45:15Z</time>
      </trkpt>
      <trkpt lat="41.8753350" lon="-8.8389470">
        <ele>6.4</ele>
        <time>2021-05-18T12:45:16Z</time>
      </trkpt>
      <trkpt lat="41.8753340" lon="-8.8389550">
        <ele>6.4</ele>
        <time>2021-05-18T12:45:17Z</time>
      </trkpt>
      <trkpt lat="41.8753340" lon="-8.8389550">
        <ele>6.4</ele>
        <time>2021-05-18T12:45:18Z</time>
      </trkpt>
      <trkpt lat="41.8753320" lon="-8.8389580">
        <ele>6.4</ele>
        <time>2021-05-18T12:45:19Z</time>
      </trkpt>
      <trkpt lat="41.8753320" lon="-8.8389560">
        <ele>6.4</ele>
        <time>2021-05-18T12:45:20Z</time>
      </trkpt>
      <trkpt lat="41.8753310" lon="-8.8389570">
        <ele>6.4</ele>
        <time>2021-05-18T12:45:21Z</time>
      </trkpt>
      <trkpt lat="41.8753300" lon="-8.8389660">
        <ele>6.4</ele>
        <time>2021-05-18T12:45:22Z</time>
      </trkpt>
      <trkpt lat="41.8753300" lon="-8.8389660">
        <ele>6.4</ele>
        <time>2021-05-18T12:45:23Z</time>
      </trkpt>
      <trkpt lat="41.8753360" lon="-8.8389600">
        <ele>6.4</ele>
        <time>2021-05-18T12:45:24Z</time>
      </trkpt>
      <trkpt lat="41.8753360" lon="-8.8389600">
        <ele>6.4</ele>
        <time>2021-05-18T12:45:25Z</time>
      </trkpt>
      <trkpt lat="41.8753360" lon="-8.8389590">
        <ele>6.4</ele>
        <time>2021-05-18T12:45:26Z</time>
      </trkpt>
      <trkpt lat="41.8753340" lon="-8.8389620">
        <ele>6.4</ele>
        <time>2021-05-18T12:45:27Z</time>
      </trkpt>
      <trkpt lat="41.8753340" lon="-8.8389670">
        <ele>6.4</ele>
        <time>2021-05-18T12:45:28Z</time>
      </trkpt>
      <trkpt lat="41.8753330" lon="-8.8389650">
        <ele>6.4</ele>
        <time>2021-05-18T12:45:29Z</time>
      </trkpt>
      <trkpt lat="41.8753330" lon="-8.8389650">
        <ele>6.4</ele>
        <time>2021-05-18T12:45:30Z</time>
      </trkpt>
      <trkpt lat="41.8753330" lon="-8.8389650">
        <ele>6.4</ele>
        <time>2021-05-18T12:45:31Z</time>
      </trkpt>
      <trkpt lat="41.8753330" lon="-8.8389650">
        <ele>6.4</ele>
        <time>2021-05-18T12:45:32Z</time>
      </trkpt>
      <trkpt lat="41.8753330" lon="-8.8389650">
        <ele>6.4</ele>
        <time>2021-05-18T12:45:33Z</time>
      </trkpt>
      <trkpt lat="41.8753330" lon="-8.8389650">
        <ele>6.4</ele>
        <time>2021-05-18T12:45:34Z</time>
      </trkpt>
      <trkpt lat="41.8753330" lon="-8.8389650">
        <ele>6.4</ele>
        <time>2021-05-18T12:45:35Z</time>
      </trkpt>
      <trkpt lat="41.8753330" lon="-8.8389650">
        <ele>6.4</ele>
        <time>2021-05-18T12:45:36Z</time>
      </trkpt>
      <trkpt lat="41.8753330" lon="-8.8389650">
        <ele>6.4</ele>
        <time>2021-05-18T12:45:37Z</time>
      </trkpt>
      <trkpt lat="41.8753330" lon="-8.8389650">
        <ele>6.4</ele>
        <time>2021-05-18T12:45:38Z</time>
      </trkpt>
      <trkpt lat="41.8753330" lon="-8.8389650">
        <ele>6.4</ele>
        <time>2021-05-18T12:45:39Z</time>
      </trkpt>
      <trkpt lat="41.8753330" lon="-8.8389650">
        <ele>6.4</ele>
        <time>2021-05-18T12:45:40Z</time>
      </trkpt>
      <trkpt lat="41.8753330" lon="-8.8389650">
        <ele>6.4</ele>
        <time>2021-05-18T12:45:41Z</time>
      </trkpt>
      <trkpt lat="41.8753330" lon="-8.8389650">
        <ele>6.4</ele>
        <time>2021-05-18T12:45:42Z</time>
      </trkpt>
      <trkpt lat="41.8753330" lon="-8.8389650">
        <ele>6.4</ele>
        <time>2021-05-18T12:45:43Z</time>
      </trkpt>
      <trkpt lat="41.8753330" lon="-8.8389650">
        <ele>6.4</ele>
        <time>2021-05-18T12:45:44Z</time>
      </trkpt>
      <trkpt lat="41.8753330" lon="-8.8389650">
        <ele>6.4</ele>
        <time>2021-05-18T12:45:45Z</time>
      </trkpt>
      <trkpt lat="41.8753330" lon="-8.8389650">
        <ele>6.4</ele>
        <time>2021-05-18T12:45:46Z</time>
      </trkpt>
      <trkpt lat="41.8753330" lon="-8.8389650">
        <ele>6.4</ele>
        <time>2021-05-18T12:45:47Z</time>
      </trkpt>
      <trkpt lat="41.8753330" lon="-8.8389650">
        <ele>6.4</ele>
        <time>2021-05-18T12:45:48Z</time>
      </trkpt>
      <trkpt lat="41.8753330" lon="-8.8389650">
        <ele>6.4</ele>
        <time>2021-05-18T12:45:49Z</time>
      </trkpt>
      <trkpt lat="41.8753330" lon="-8.8389650">
        <ele>6.4</ele>
        <time>2021-05-18T12:45:50Z</time>
      </trkpt>
      <trkpt lat="41.8753330" lon="-8.8389650">
        <ele>6.4</ele>
        <time>2021-05-18T12:45:51Z</time>
      </trkpt>
      <trkpt lat="41.8753330" lon="-8.8389650">
        <ele>6.4</ele>
        <time>2021-05-18T12:45:52Z</time>
      </trkpt>
      <trkpt lat="41.8753330" lon="-8.8389650">
        <ele>6.4</ele>
        <time>2021-05-18T12:45:53Z</time>
      </trkpt>
      <trkpt lat="41.8753330" lon="-8.8389650">
        <ele>6.4</ele>
        <time>2021-05-18T12:45:54Z</time>
      </trkpt>
      <trkpt lat="41.8753330" lon="-8.8389650">
        <ele>6.4</ele>
        <time>2021-05-18T12:45:55Z</time>
      </trkpt>
      <trkpt lat="41.8753330" lon="-8.8389650">
        <ele>6.4</ele>
        <time>2021-05-18T12:45:56Z</time>
      </trkpt>
      <trkpt lat="41.8753330" lon="-8.8389650">
        <ele>6.4</ele>
        <time>2021-05-18T12:45:57Z</time>
      </trkpt>
      <trkpt lat="41.8753330" lon="-8.8389650">
        <ele>6.4</ele>
        <time>2021-05-18T12:45:58Z</time>
      </trkpt>
      <trkpt lat="41.8753340" lon="-8.8389610">
        <ele>6.4</ele>
        <time>2021-05-18T12:45:59Z</time>
      </trkpt>
      <trkpt lat="41.8753330" lon="-8.8389610">
        <ele>6.4</ele>
        <time>2021-05-18T12:46:00Z</time>
      </trkpt>
      <trkpt lat="41.8753330" lon="-8.8389610">
        <ele>6.4</ele>
        <time>2021-05-18T12:46:01Z</time>
      </trkpt>
      <trkpt lat="41.8753330" lon="-8.8389610">
        <ele>6.4</ele>
        <time>2021-05-18T12:46:02Z</time>
      </trkpt>
      <trkpt lat="41.8753330" lon="-8.8389610">
        <ele>6.4</ele>
        <time>2021-05-18T12:46:03Z</time>
      </trkpt>
      <trkpt lat="41.8753330" lon="-8.8389610">
        <ele>6.4</ele>
        <time>2021-05-18T12:46:04Z</time>
      </trkpt>
      <trkpt lat="41.8753330" lon="-8.8389610">
        <ele>6.4</ele>
        <time>2021-05-18T12:46:05Z</time>
      </trkpt>
      <trkpt lat="41.8753330" lon="-8.8389610">
        <ele>6.4</ele>
        <time>2021-05-18T12:46:06Z</time>
      </trkpt>
      <trkpt lat="41.8753330" lon="-8.8389610">
        <ele>6.4</ele>
        <time>2021-05-18T12:46:07Z</time>
      </trkpt>
      <trkpt lat="41.8753330" lon="-8.8389610">
        <ele>6.4</ele>
        <time>2021-05-18T12:46:08Z</time>
      </trkpt>
      <trkpt lat="41.8753330" lon="-8.8389610">
        <ele>6.4</ele>
        <time>2021-05-18T12:46:09Z</time>
      </trkpt>
      <trkpt lat="41.8753330" lon="-8.8389610">
        <ele>6.4</ele>
        <time>2021-05-18T12:46:10Z</time>
      </trkpt>
      <trkpt lat="41.8753330" lon="-8.8389610">
        <ele>6.4</ele>
        <time>2021-05-18T12:46:11Z</time>
      </trkpt>
      <trkpt lat="41.8753330" lon="-8.8389610">
        <ele>6.4</ele>
        <time>2021-05-18T12:46:12Z</time>
      </trkpt>
      <trkpt lat="41.8753330" lon="-8.8389610">
        <ele>6.4</ele>
        <time>2021-05-18T12:46:13Z</time>
      </trkpt>
      <trkpt lat="41.8753330" lon="-8.8389610">
        <ele>6.4</ele>
        <time>2021-05-18T12:46:14Z</time>
      </trkpt>
      <trkpt lat="41.8753330" lon="-8.8389610">
        <ele>6.4</ele>
        <time>2021-05-18T12:46:15Z</time>
      </trkpt>
      <trkpt lat="41.8753330" lon="-8.8389610">
        <ele>6.4</ele>
        <time>2021-05-18T12:46:16Z</time>
      </trkpt>
      <trkpt lat="41.8753330" lon="-8.8389610">
        <ele>6.4</ele>
        <time>2021-05-18T12:46:17Z</time>
      </trkpt>
      <trkpt lat="41.8753330" lon="-8.8389610">
        <ele>6.4</ele>
        <time>2021-05-18T12:46:18Z</time>
      </trkpt>
      <trkpt lat="41.8753330" lon="-8.8389610">
        <ele>6.4</ele>
        <time>2021-05-18T12:46:19Z</time>
      </trkpt>
      <trkpt lat="41.8753330" lon="-8.8389610">
        <ele>6.4</ele>
        <time>2021-05-18T12:46:20Z</time>
      </trkpt>
      <trkpt lat="41.8753330" lon="-8.8389610">
        <ele>6.4</ele>
        <time>2021-05-18T12:46:21Z</time>
      </trkpt>
      <trkpt lat="41.8753330" lon="-8.8389610">
        <ele>6.4</ele>
        <time>2021-05-18T12:46:22Z</time>
      </trkpt>
      <trkpt lat="41.8753330" lon="-8.8389610">
        <ele>6.4</ele>
        <time>2021-05-18T12:46:23Z</time>
      </trkpt>
      <trkpt lat="41.8753330" lon="-8.8389610">
        <ele>6.4</ele>
        <time>2021-05-18T12:46:24Z</time>
      </trkpt>
      <trkpt lat="41.8753330" lon="-8.8389610">
        <ele>6.4</ele>
        <time>2021-05-18T12:46:25Z</time>
      </trkpt>
      <trkpt lat="41.8753090" lon="-8.8389650">
        <ele>6.5</ele>
        <time>2021-05-18T12:46:26Z</time>
      </trkpt>
      <trkpt lat="41.8753050" lon="-8.8389640">
        <ele>6.5</ele>
        <time>2021-05-18T12:46:27Z</time>
      </trkpt>
      <trkpt lat="41.8753050" lon="-8.8389640">
        <ele>6.5</ele>
        <time>2021-05-18T12:46:28Z</time>
      </trkpt>
      <trkpt lat="41.8753050" lon="-8.8389640">
        <ele>6.5</ele>
        <time>2021-05-18T12:46:29Z</time>
      </trkpt>
      <trkpt lat="41.8753050" lon="-8.8389640">
        <ele>6.5</ele>
        <time>2021-05-18T12:46:30Z</time>
      </trkpt>
      <trkpt lat="41.8753050" lon="-8.8389640">
        <ele>6.5</ele>
        <time>2021-05-18T12:46:31Z</time>
      </trkpt>
      <trkpt lat="41.8753050" lon="-8.8389640">
        <ele>6.5</ele>
        <time>2021-05-18T12:46:32Z</time>
      </trkpt>
      <trkpt lat="41.8753050" lon="-8.8389640">
        <ele>6.5</ele>
        <time>2021-05-18T12:46:33Z</time>
      </trkpt>
      <trkpt lat="41.8753050" lon="-8.8389640">
        <ele>6.5</ele>
        <time>2021-05-18T12:46:34Z</time>
      </trkpt>
      <trkpt lat="41.8753050" lon="-8.8389640">
        <ele>6.5</ele>
        <time>2021-05-18T12:46:35Z</time>
      </trkpt>
      <trkpt lat="41.8753050" lon="-8.8389640">
        <ele>6.5</ele>
        <time>2021-05-18T12:46:36Z</time>
      </trkpt>
      <trkpt lat="41.8753050" lon="-8.8389640">
        <ele>6.5</ele>
        <time>2021-05-18T12:46:37Z</time>
      </trkpt>
      <trkpt lat="41.8753050" lon="-8.8389640">
        <ele>6.5</ele>
        <time>2021-05-18T12:46:38Z</time>
      </trkpt>
      <trkpt lat="41.8753050" lon="-8.8389640">
        <ele>6.5</ele>
        <time>2021-05-18T12:46:39Z</time>
      </trkpt>
      <trkpt lat="41.8753050" lon="-8.8389640">
        <ele>6.5</ele>
        <time>2021-05-18T12:46:40Z</time>
      </trkpt>
      <trkpt lat="41.8753050" lon="-8.8389640">
        <ele>6.5</ele>
        <time>2021-05-18T12:46:41Z</time>
      </trkpt>
      <trkpt lat="41.8753050" lon="-8.8389640">
        <ele>6.5</ele>
        <time>2021-05-18T12:46:42Z</time>
      </trkpt>
      <trkpt lat="41.8753050" lon="-8.8389640">
        <ele>6.5</ele>
        <time>2021-05-18T12:46:43Z</time>
      </trkpt>
      <trkpt lat="41.8753050" lon="-8.8389640">
        <ele>6.5</ele>
        <time>2021-05-18T12:46:44Z</time>
      </trkpt>
      <trkpt lat="41.8753050" lon="-8.8389640">
        <ele>6.5</ele>
        <time>2021-05-18T12:46:45Z</time>
      </trkpt>
      <trkpt lat="41.8753050" lon="-8.8389640">
        <ele>6.5</ele>
        <time>2021-05-18T12:46:46Z</time>
      </trkpt>
      <trkpt lat="41.8753050" lon="-8.8389640">
        <ele>6.5</ele>
        <time>2021-05-18T12:46:47Z</time>
      </trkpt>
      <trkpt lat="41.8753050" lon="-8.8389640">
        <ele>6.5</ele>
        <time>2021-05-18T12:46:48Z</time>
      </trkpt>
      <trkpt lat="41.8753050" lon="-8.8389640">
        <ele>6.5</ele>
        <time>2021-05-18T12:46:49Z</time>
      </trkpt>
      <trkpt lat="41.8753050" lon="-8.8389640">
        <ele>6.5</ele>
        <time>2021-05-18T12:46:50Z</time>
      </trkpt>
      <trkpt lat="41.8753050" lon="-8.8389640">
        <ele>6.5</ele>
        <time>2021-05-18T12:46:51Z</time>
      </trkpt>
      <trkpt lat="41.8753050" lon="-8.8389640">
        <ele>6.5</ele>
        <time>2021-05-18T12:46:52Z</time>
      </trkpt>
      <trkpt lat="41.8753050" lon="-8.8389640">
        <ele>6.5</ele>
        <time>2021-05-18T12:46:53Z</time>
      </trkpt>
      <trkpt lat="41.8753050" lon="-8.8389640">
        <ele>6.5</ele>
        <time>2021-05-18T12:46:54Z</time>
      </trkpt>
      <trkpt lat="41.8753050" lon="-8.8389640">
        <ele>6.5</ele>
        <time>2021-05-18T12:46:55Z</time>
      </trkpt>
      <trkpt lat="41.8753050" lon="-8.8389640">
        <ele>6.5</ele>
        <time>2021-05-18T12:46:56Z</time>
      </trkpt>
      <trkpt lat="41.8753050" lon="-8.8389640">
        <ele>6.5</ele>
        <time>2021-05-18T12:46:57Z</time>
      </trkpt>
      <trkpt lat="41.8753050" lon="-8.8389640">
        <ele>6.5</ele>
        <time>2021-05-18T12:46:58Z</time>
      </trkpt>
      <trkpt lat="41.8753050" lon="-8.8389640">
        <ele>6.5</ele>
        <time>2021-05-18T12:46:59Z</time>
      </trkpt>
      <trkpt lat="41.8753050" lon="-8.8389640">
        <ele>6.5</ele>
        <time>2021-05-18T12:47:00Z</time>
      </trkpt>
      <trkpt lat="41.8753050" lon="-8.8389640">
        <ele>6.5</ele>
        <time>2021-05-18T12:47:01Z</time>
      </trkpt>
      <trkpt lat="41.8753050" lon="-8.8389640">
        <ele>6.5</ele>
        <time>2021-05-18T12:47:02Z</time>
      </trkpt>
      <trkpt lat="41.8753050" lon="-8.8389640">
        <ele>6.5</ele>
        <time>2021-05-18T12:47:03Z</time>
      </trkpt>
      <trkpt lat="41.8753050" lon="-8.8389640">
        <ele>6.5</ele>
        <time>2021-05-18T12:47:04Z</time>
      </trkpt>
      <trkpt lat="41.8753050" lon="-8.8389640">
        <ele>6.5</ele>
        <time>2021-05-18T12:47:05Z</time>
      </trkpt>
      <trkpt lat="41.8753050" lon="-8.8389640">
        <ele>6.5</ele>
        <time>2021-05-18T12:47:06Z</time>
      </trkpt>
      <trkpt lat="41.8753050" lon="-8.8389640">
        <ele>6.5</ele>
        <time>2021-05-18T12:47:07Z</time>
      </trkpt>
      <trkpt lat="41.8753050" lon="-8.8389640">
        <ele>6.5</ele>
        <time>2021-05-18T12:47:08Z</time>
      </trkpt>
      <trkpt lat="41.8753050" lon="-8.8389640">
        <ele>6.5</ele>
        <time>2021-05-18T12:47:09Z</time>
      </trkpt>
      <trkpt lat="41.8753050" lon="-8.8389640">
        <ele>6.5</ele>
        <time>2021-05-18T12:47:10Z</time>
      </trkpt>
      <trkpt lat="41.8753050" lon="-8.8389640">
        <ele>6.5</ele>
        <time>2021-05-18T12:47:11Z</time>
      </trkpt>
      <trkpt lat="41.8753050" lon="-8.8389640">
        <ele>6.5</ele>
        <time>2021-05-18T12:47:12Z</time>
      </trkpt>
      <trkpt lat="41.8753050" lon="-8.8389640">
        <ele>6.5</ele>
        <time>2021-05-18T12:47:13Z</time>
      </trkpt>
      <trkpt lat="41.8753050" lon="-8.8389640">
        <ele>6.5</ele>
        <time>2021-05-18T12:47:14Z</time>
      </trkpt>
      <trkpt lat="41.8753050" lon="-8.8389640">
        <ele>6.5</ele>
        <time>2021-05-18T12:47:15Z</time>
      </trkpt>
      <trkpt lat="41.8753050" lon="-8.8389640">
        <ele>6.5</ele>
        <time>2021-05-18T12:47:16Z</time>
      </trkpt>
      <trkpt lat="41.8753050" lon="-8.8389640">
        <ele>6.5</ele>
        <time>2021-05-18T12:47:17Z</time>
      </trkpt>
      <trkpt lat="41.8753050" lon="-8.8389640">
        <ele>6.5</ele>
        <time>2021-05-18T12:47:18Z</time>
      </trkpt>
      <trkpt lat="41.8753050" lon="-8.8389640">
        <ele>6.5</ele>
        <time>2021-05-18T12:47:19Z</time>
      </trkpt>
      <trkpt lat="41.8753050" lon="-8.8389640">
        <ele>6.5</ele>
        <time>2021-05-18T12:47:20Z</time>
      </trkpt>
      <trkpt lat="41.8753050" lon="-8.8389640">
        <ele>6.5</ele>
        <time>2021-05-18T12:47:21Z</time>
      </trkpt>
      <trkpt lat="41.8753050" lon="-8.8389640">
        <ele>6.5</ele>
        <time>2021-05-18T12:47:22Z</time>
      </trkpt>
      <trkpt lat="41.8753050" lon="-8.8389640">
        <ele>6.5</ele>
        <time>2021-05-18T12:47:23Z</time>
      </trkpt>
      <trkpt lat="41.8753050" lon="-8.8389640">
        <ele>6.5</ele>
        <time>2021-05-18T12:47:24Z</time>
      </trkpt>
      <trkpt lat="41.8753050" lon="-8.8389640">
        <ele>6.5</ele>
        <time>2021-05-18T12:47:25Z</time>
      </trkpt>
      <trkpt lat="41.8753050" lon="-8.8389640">
        <ele>6.5</ele>
        <time>2021-05-18T12:47:26Z</time>
      </trkpt>
      <trkpt lat="41.8753050" lon="-8.8389640">
        <ele>6.5</ele>
        <time>2021-05-18T12:47:27Z</time>
      </trkpt>
      <trkpt lat="41.8753050" lon="-8.8389640">
        <ele>6.5</ele>
        <time>2021-05-18T12:47:28Z</time>
      </trkpt>
      <trkpt lat="41.8753050" lon="-8.8389640">
        <ele>6.5</ele>
        <time>2021-05-18T12:47:29Z</time>
      </trkpt>
      <trkpt lat="41.8753050" lon="-8.8389640">
        <ele>6.5</ele>
        <time>2021-05-18T12:47:30Z</time>
      </trkpt>
      <trkpt lat="41.8753050" lon="-8.8389640">
        <ele>6.5</ele>
        <time>2021-05-18T12:47:31Z</time>
      </trkpt>
      <trkpt lat="41.8753050" lon="-8.8389640">
        <ele>6.5</ele>
        <time>2021-05-18T12:47:32Z</time>
      </trkpt>
      <trkpt lat="41.8753050" lon="-8.8389640">
        <ele>6.5</ele>
        <time>2021-05-18T12:47:33Z</time>
      </trkpt>
      <trkpt lat="41.8753050" lon="-8.8389640">
        <ele>6.5</ele>
        <time>2021-05-18T12:47:34Z</time>
      </trkpt>
      <trkpt lat="41.8753050" lon="-8.8389640">
        <ele>6.5</ele>
        <time>2021-05-18T12:47:35Z</time>
      </trkpt>
      <trkpt lat="41.8753050" lon="-8.8389640">
        <ele>6.5</ele>
        <time>2021-05-18T12:47:36Z</time>
      </trkpt>
      <trkpt lat="41.8753050" lon="-8.8389640">
        <ele>6.5</ele>
        <time>2021-05-18T12:47:37Z</time>
      </trkpt>
      <trkpt lat="41.8753050" lon="-8.8389640">
        <ele>6.5</ele>
        <time>2021-05-18T12:47:38Z</time>
      </trkpt>
      <trkpt lat="41.8753050" lon="-8.8389640">
        <ele>6.5</ele>
        <time>2021-05-18T12:47:39Z</time>
      </trkpt>
      <trkpt lat="41.8753050" lon="-8.8389640">
        <ele>6.5</ele>
        <time>2021-05-18T12:47:40Z</time>
      </trkpt>
      <trkpt lat="41.8753050" lon="-8.8389640">
        <ele>6.5</ele>
        <time>2021-05-18T12:47:41Z</time>
      </trkpt>
      <trkpt lat="41.8753050" lon="-8.8389640">
        <ele>6.5</ele>
        <time>2021-05-18T12:47:42Z</time>
      </trkpt>
      <trkpt lat="41.8753050" lon="-8.8389640">
        <ele>6.5</ele>
        <time>2021-05-18T12:47:43Z</time>
      </trkpt>
      <trkpt lat="41.8753050" lon="-8.8389640">
        <ele>6.5</ele>
        <time>2021-05-18T12:47:44Z</time>
      </trkpt>
      <trkpt lat="41.8753050" lon="-8.8389640">
        <ele>6.5</ele>
        <time>2021-05-18T12:47:45Z</time>
      </trkpt>
      <trkpt lat="41.8753050" lon="-8.8389640">
        <ele>6.5</ele>
        <time>2021-05-18T12:47:46Z</time>
      </trkpt>
      <trkpt lat="41.8753050" lon="-8.8389640">
        <ele>6.5</ele>
        <time>2021-05-18T12:47:47Z</time>
      </trkpt>
      <trkpt lat="41.8753050" lon="-8.8389640">
        <ele>6.5</ele>
        <time>2021-05-18T12:47:48Z</time>
      </trkpt>
      <trkpt lat="41.8753050" lon="-8.8389640">
        <ele>6.5</ele>
        <time>2021-05-18T12:47:49Z</time>
      </trkpt>
      <trkpt lat="41.8753050" lon="-8.8389640">
        <ele>6.5</ele>
        <time>2021-05-18T12:47:50Z</time>
      </trkpt>
      <trkpt lat="41.8753050" lon="-8.8389640">
        <ele>6.5</ele>
        <time>2021-05-18T12:47:51Z</time>
      </trkpt>
      <trkpt lat="41.8753050" lon="-8.8389640">
        <ele>6.5</ele>
        <time>2021-05-18T12:47:52Z</time>
      </trkpt>
      <trkpt lat="41.8753050" lon="-8.8389640">
        <ele>6.5</ele>
        <time>2021-05-18T12:47:53Z</time>
      </trkpt>
      <trkpt lat="41.8753050" lon="-8.8389640">
        <ele>6.5</ele>
        <time>2021-05-18T12:47:54Z</time>
      </trkpt>
      <trkpt lat="41.8753050" lon="-8.8389640">
        <ele>6.5</ele>
        <time>2021-05-18T12:47:55Z</time>
      </trkpt>
      <trkpt lat="41.8753050" lon="-8.8389640">
        <ele>6.5</ele>
        <time>2021-05-18T12:47:56Z</time>
      </trkpt>
      <trkpt lat="41.8752920" lon="-8.8389740">
        <ele>6.4</ele>
        <time>2021-05-18T12:47:57Z</time>
      </trkpt>
      <trkpt lat="41.8752920" lon="-8.8389740">
        <ele>6.4</ele>
        <time>2021-05-18T12:47:58Z</time>
      </trkpt>
      <trkpt lat="41.8752890" lon="-8.8389770">
        <ele>6.4</ele>
        <time>2021-05-18T12:47:59Z</time>
      </trkpt>
      <trkpt lat="41.8752870" lon="-8.8389780">
        <ele>6.4</ele>
        <time>2021-05-18T12:48:00Z</time>
      </trkpt>
      <trkpt lat="41.8752890" lon="-8.8389720">
        <ele>6.5</ele>
        <time>2021-05-18T12:48:01Z</time>
      </trkpt>
      <trkpt lat="41.8752930" lon="-8.8389710">
        <ele>6.5</ele>
        <time>2021-05-18T12:48:02Z</time>
      </trkpt>
      <trkpt lat="41.8752940" lon="-8.8389690">
        <ele>6.5</ele>
        <time>2021-05-18T12:48:03Z</time>
      </trkpt>
      <trkpt lat="41.8752960" lon="-8.8389650">
        <ele>6.5</ele>
        <time>2021-05-18T12:48:04Z</time>
      </trkpt>
      <trkpt lat="41.8752960" lon="-8.8389650">
        <ele>6.5</ele>
        <time>2021-05-18T12:48:05Z</time>
      </trkpt>
      <trkpt lat="41.8752960" lon="-8.8389650">
        <ele>6.5</ele>
        <time>2021-05-18T12:48:06Z</time>
      </trkpt>
      <trkpt lat="41.8752960" lon="-8.8389670">
        <ele>6.5</ele>
        <time>2021-05-18T12:48:07Z</time>
      </trkpt>
      <trkpt lat="41.8752960" lon="-8.8389670">
        <ele>6.5</ele>
        <time>2021-05-18T12:48:08Z</time>
      </trkpt>
      <trkpt lat="41.8752960" lon="-8.8389670">
        <ele>6.5</ele>
        <time>2021-05-18T12:48:09Z</time>
      </trkpt>
      <trkpt lat="41.8752960" lon="-8.8389670">
        <ele>6.5</ele>
        <time>2021-05-18T12:48:10Z</time>
      </trkpt>
      <trkpt lat="41.8752960" lon="-8.8389670">
        <ele>6.5</ele>
        <time>2021-05-18T12:48:11Z</time>
      </trkpt>
      <trkpt lat="41.8752960" lon="-8.8389670">
        <ele>6.5</ele>
        <time>2021-05-18T12:48:12Z</time>
      </trkpt>
      <trkpt lat="41.8752960" lon="-8.8389670">
        <ele>6.5</ele>
        <time>2021-05-18T12:48:13Z</time>
      </trkpt>
      <trkpt lat="41.8752960" lon="-8.8389670">
        <ele>6.5</ele>
        <time>2021-05-18T12:48:14Z</time>
      </trkpt>
      <trkpt lat="41.8752960" lon="-8.8389670">
        <ele>6.5</ele>
        <time>2021-05-18T12:48:15Z</time>
      </trkpt>
      <trkpt lat="41.8752960" lon="-8.8389670">
        <ele>6.5</ele>
        <time>2021-05-18T12:48:16Z</time>
      </trkpt>
      <trkpt lat="41.8752960" lon="-8.8389670">
        <ele>6.5</ele>
        <time>2021-05-18T12:48:17Z</time>
      </trkpt>
      <trkpt lat="41.8752960" lon="-8.8389670">
        <ele>6.5</ele>
        <time>2021-05-18T12:48:18Z</time>
      </trkpt>
      <trkpt lat="41.8752960" lon="-8.8389670">
        <ele>6.5</ele>
        <time>2021-05-18T12:48:19Z</time>
      </trkpt>
      <trkpt lat="41.8752960" lon="-8.8389670">
        <ele>6.5</ele>
        <time>2021-05-18T12:48:20Z</time>
      </trkpt>
      <trkpt lat="41.8752960" lon="-8.8389670">
        <ele>6.5</ele>
        <time>2021-05-18T12:48:21Z</time>
      </trkpt>
      <trkpt lat="41.8752960" lon="-8.8389670">
        <ele>6.5</ele>
        <time>2021-05-18T12:48:22Z</time>
      </trkpt>
      <trkpt lat="41.8752960" lon="-8.8389670">
        <ele>6.5</ele>
        <time>2021-05-18T12:48:23Z</time>
      </trkpt>
      <trkpt lat="41.8752960" lon="-8.8389670">
        <ele>6.5</ele>
        <time>2021-05-18T12:48:24Z</time>
      </trkpt>
      <trkpt lat="41.8752960" lon="-8.8389670">
        <ele>6.5</ele>
        <time>2021-05-18T12:48:25Z</time>
      </trkpt>
      <trkpt lat="41.8752960" lon="-8.8389670">
        <ele>6.5</ele>
        <time>2021-05-18T12:48:26Z</time>
      </trkpt>
      <trkpt lat="41.8752960" lon="-8.8389670">
        <ele>6.5</ele>
        <time>2021-05-18T12:48:27Z</time>
      </trkpt>
      <trkpt lat="41.8752960" lon="-8.8389670">
        <ele>6.5</ele>
        <time>2021-05-18T12:48:28Z</time>
      </trkpt>
      <trkpt lat="41.8752960" lon="-8.8389670">
        <ele>6.5</ele>
        <time>2021-05-18T12:48:29Z</time>
      </trkpt>
      <trkpt lat="41.8752960" lon="-8.8389670">
        <ele>6.5</ele>
        <time>2021-05-18T12:48:30Z</time>
      </trkpt>
      <trkpt lat="41.8752960" lon="-8.8389670">
        <ele>6.5</ele>
        <time>2021-05-18T12:48:31Z</time>
      </trkpt>
      <trkpt lat="41.8752960" lon="-8.8389670">
        <ele>6.5</ele>
        <time>2021-05-18T12:48:32Z</time>
      </trkpt>
      <trkpt lat="41.8752960" lon="-8.8389670">
        <ele>6.5</ele>
        <time>2021-05-18T12:48:33Z</time>
      </trkpt>
      <trkpt lat="41.8752960" lon="-8.8389670">
        <ele>6.5</ele>
        <time>2021-05-18T12:48:34Z</time>
      </trkpt>
      <trkpt lat="41.8752960" lon="-8.8389670">
        <ele>6.5</ele>
        <time>2021-05-18T12:48:35Z</time>
      </trkpt>
      <trkpt lat="41.8752960" lon="-8.8389670">
        <ele>6.5</ele>
        <time>2021-05-18T12:48:36Z</time>
      </trkpt>
      <trkpt lat="41.8752960" lon="-8.8389670">
        <ele>6.5</ele>
        <time>2021-05-18T12:48:37Z</time>
      </trkpt>
      <trkpt lat="41.8752960" lon="-8.8389670">
        <ele>6.5</ele>
        <time>2021-05-18T12:48:38Z</time>
      </trkpt>
      <trkpt lat="41.8752960" lon="-8.8389670">
        <ele>6.5</ele>
        <time>2021-05-18T12:48:39Z</time>
      </trkpt>
      <trkpt lat="41.8752960" lon="-8.8389670">
        <ele>6.5</ele>
        <time>2021-05-18T12:48:40Z</time>
      </trkpt>
      <trkpt lat="41.8752960" lon="-8.8389670">
        <ele>6.5</ele>
        <time>2021-05-18T12:48:41Z</time>
      </trkpt>
      <trkpt lat="41.8752960" lon="-8.8389670">
        <ele>6.5</ele>
        <time>2021-05-18T12:48:42Z</time>
      </trkpt>
      <trkpt lat="41.8752960" lon="-8.8389670">
        <ele>6.5</ele>
        <time>2021-05-18T12:48:43Z</time>
      </trkpt>
      <trkpt lat="41.8752960" lon="-8.8389670">
        <ele>6.5</ele>
        <time>2021-05-18T12:48:44Z</time>
      </trkpt>
      <trkpt lat="41.8752960" lon="-8.8389670">
        <ele>6.5</ele>
        <time>2021-05-18T12:48:45Z</time>
      </trkpt>
      <trkpt lat="41.8752960" lon="-8.8389670">
        <ele>6.5</ele>
        <time>2021-05-18T12:48:46Z</time>
      </trkpt>
      <trkpt lat="41.8752960" lon="-8.8389670">
        <ele>6.5</ele>
        <time>2021-05-18T12:48:47Z</time>
      </trkpt>
      <trkpt lat="41.8752960" lon="-8.8389670">
        <ele>6.5</ele>
        <time>2021-05-18T12:48:48Z</time>
      </trkpt>
      <trkpt lat="41.8752960" lon="-8.8389670">
        <ele>6.5</ele>
        <time>2021-05-18T12:48:49Z</time>
      </trkpt>
      <trkpt lat="41.8752960" lon="-8.8389670">
        <ele>6.5</ele>
        <time>2021-05-18T12:48:50Z</time>
      </trkpt>
      <trkpt lat="41.8752960" lon="-8.8389670">
        <ele>6.5</ele>
        <time>2021-05-18T12:48:51Z</time>
      </trkpt>
      <trkpt lat="41.8752960" lon="-8.8389670">
        <ele>6.5</ele>
        <time>2021-05-18T12:48:52Z</time>
      </trkpt>
      <trkpt lat="41.8752960" lon="-8.8389670">
        <ele>6.5</ele>
        <time>2021-05-18T12:48:53Z</time>
      </trkpt>
      <trkpt lat="41.8752960" lon="-8.8389670">
        <ele>6.5</ele>
        <time>2021-05-18T12:48:54Z</time>
      </trkpt>
      <trkpt lat="41.8752960" lon="-8.8389670">
        <ele>6.5</ele>
        <time>2021-05-18T12:48:55Z</time>
      </trkpt>
      <trkpt lat="41.8752960" lon="-8.8389670">
        <ele>6.5</ele>
        <time>2021-05-18T12:48:56Z</time>
      </trkpt>
      <trkpt lat="41.8752960" lon="-8.8389670">
        <ele>6.5</ele>
        <time>2021-05-18T12:48:57Z</time>
      </trkpt>
      <trkpt lat="41.8752960" lon="-8.8389670">
        <ele>6.5</ele>
        <time>2021-05-18T12:48:58Z</time>
      </trkpt>
      <trkpt lat="41.8752960" lon="-8.8389670">
        <ele>6.5</ele>
        <time>2021-05-18T12:48:59Z</time>
      </trkpt>
      <trkpt lat="41.8752960" lon="-8.8389670">
        <ele>6.5</ele>
        <time>2021-05-18T12:49:00Z</time>
      </trkpt>
      <trkpt lat="41.8752960" lon="-8.8389670">
        <ele>6.5</ele>
        <time>2021-05-18T12:49:01Z</time>
      </trkpt>
      <trkpt lat="41.8752960" lon="-8.8389670">
        <ele>6.5</ele>
        <time>2021-05-18T12:49:02Z</time>
      </trkpt>
      <trkpt lat="41.8752960" lon="-8.8389670">
        <ele>6.5</ele>
        <time>2021-05-18T12:49:03Z</time>
      </trkpt>
      <trkpt lat="41.8752960" lon="-8.8389670">
        <ele>6.5</ele>
        <time>2021-05-18T12:49:04Z</time>
      </trkpt>
      <trkpt lat="41.8752960" lon="-8.8389670">
        <ele>6.5</ele>
        <time>2021-05-18T12:49:05Z</time>
      </trkpt>
      <trkpt lat="41.8752960" lon="-8.8389670">
        <ele>6.5</ele>
        <time>2021-05-18T12:49:06Z</time>
      </trkpt>
      <trkpt lat="41.8752960" lon="-8.8389670">
        <ele>6.5</ele>
        <time>2021-05-18T12:49:07Z</time>
      </trkpt>
      <trkpt lat="41.8752960" lon="-8.8389670">
        <ele>6.5</ele>
        <time>2021-05-18T12:49:08Z</time>
      </trkpt>
      <trkpt lat="41.8752960" lon="-8.8389670">
        <ele>6.5</ele>
        <time>2021-05-18T12:49:09Z</time>
      </trkpt>
      <trkpt lat="41.8752960" lon="-8.8389670">
        <ele>6.5</ele>
        <time>2021-05-18T12:49:10Z</time>
      </trkpt>
      <trkpt lat="41.8753010" lon="-8.8389830">
        <ele>6.4</ele>
        <time>2021-05-18T12:49:11Z</time>
      </trkpt>
      <trkpt lat="41.8753010" lon="-8.8389830">
        <ele>6.4</ele>
        <time>2021-05-18T12:49:12Z</time>
      </trkpt>
      <trkpt lat="41.8753010" lon="-8.8389830">
        <ele>6.4</ele>
        <time>2021-05-18T12:49:13Z</time>
      </trkpt>
      <trkpt lat="41.8753010" lon="-8.8389830">
        <ele>6.4</ele>
        <time>2021-05-18T12:49:14Z</time>
      </trkpt>
      <trkpt lat="41.8753010" lon="-8.8389830">
        <ele>6.4</ele>
        <time>2021-05-18T12:49:15Z</time>
      </trkpt>
      <trkpt lat="41.8753010" lon="-8.8389830">
        <ele>6.4</ele>
        <time>2021-05-18T12:49:16Z</time>
      </trkpt>
      <trkpt lat="41.8753010" lon="-8.8389830">
        <ele>6.4</ele>
        <time>2021-05-18T12:49:17Z</time>
      </trkpt>
      <trkpt lat="41.8753010" lon="-8.8389830">
        <ele>6.4</ele>
        <time>2021-05-18T12:49:18Z</time>
      </trkpt>
      <trkpt lat="41.8753010" lon="-8.8389830">
        <ele>6.4</ele>
        <time>2021-05-18T12:49:19Z</time>
      </trkpt>
      <trkpt lat="41.8753010" lon="-8.8389830">
        <ele>6.4</ele>
        <time>2021-05-18T12:49:20Z</time>
      </trkpt>
      <trkpt lat="41.8753010" lon="-8.8389830">
        <ele>6.4</ele>
        <time>2021-05-18T12:49:21Z</time>
      </trkpt>
      <trkpt lat="41.8753010" lon="-8.8389830">
        <ele>6.4</ele>
        <time>2021-05-18T12:49:22Z</time>
      </trkpt>
      <trkpt lat="41.8753010" lon="-8.8389830">
        <ele>6.4</ele>
        <time>2021-05-18T12:49:23Z</time>
      </trkpt>
      <trkpt lat="41.8753010" lon="-8.8389830">
        <ele>6.4</ele>
        <time>2021-05-18T12:49:24Z</time>
      </trkpt>
      <trkpt lat="41.8753010" lon="-8.8389830">
        <ele>6.4</ele>
        <time>2021-05-18T12:49:25Z</time>
      </trkpt>
      <trkpt lat="41.8753010" lon="-8.8389830">
        <ele>6.4</ele>
        <time>2021-05-18T12:49:26Z</time>
      </trkpt>
      <trkpt lat="41.8753010" lon="-8.8389830">
        <ele>6.4</ele>
        <time>2021-05-18T12:49:27Z</time>
      </trkpt>
      <trkpt lat="41.8753010" lon="-8.8389830">
        <ele>6.4</ele>
        <time>2021-05-18T12:49:28Z</time>
      </trkpt>
      <trkpt lat="41.8753040" lon="-8.8389860">
        <ele>6.4</ele>
        <time>2021-05-18T12:49:29Z</time>
      </trkpt>
      <trkpt lat="41.8753050" lon="-8.8389830">
        <ele>6.4</ele>
        <time>2021-05-18T12:49:30Z</time>
      </trkpt>
      <trkpt lat="41.8753050" lon="-8.8389830">
        <ele>6.4</ele>
        <time>2021-05-18T12:49:31Z</time>
      </trkpt>
      <trkpt lat="41.8753050" lon="-8.8389830">
        <ele>6.4</ele>
        <time>2021-05-18T12:49:32Z</time>
      </trkpt>
      <trkpt lat="41.8753050" lon="-8.8389780">
        <ele>6.4</ele>
        <time>2021-05-18T12:49:33Z</time>
      </trkpt>
      <trkpt lat="41.8753050" lon="-8.8389780">
        <ele>6.4</ele>
        <time>2021-05-18T12:49:34Z</time>
      </trkpt>
      <trkpt lat="41.8753050" lon="-8.8389780">
        <ele>6.4</ele>
        <time>2021-05-18T12:49:35Z</time>
      </trkpt>
      <trkpt lat="41.8753050" lon="-8.8389780">
        <ele>6.4</ele>
        <time>2021-05-18T12:49:36Z</time>
      </trkpt>
      <trkpt lat="41.8753050" lon="-8.8389780">
        <ele>6.4</ele>
        <time>2021-05-18T12:49:37Z</time>
      </trkpt>
      <trkpt lat="41.8753050" lon="-8.8389780">
        <ele>6.4</ele>
        <time>2021-05-18T12:49:38Z</time>
      </trkpt>
      <trkpt lat="41.8753050" lon="-8.8389780">
        <ele>6.4</ele>
        <time>2021-05-18T12:49:39Z</time>
      </trkpt>
      <trkpt lat="41.8753050" lon="-8.8389780">
        <ele>6.4</ele>
        <time>2021-05-18T12:49:40Z</time>
      </trkpt>
      <trkpt lat="41.8753050" lon="-8.8389780">
        <ele>6.4</ele>
        <time>2021-05-18T12:49:41Z</time>
      </trkpt>
      <trkpt lat="41.8753050" lon="-8.8389780">
        <ele>6.4</ele>
        <time>2021-05-18T12:49:42Z</time>
      </trkpt>
      <trkpt lat="41.8753040" lon="-8.8389820">
        <ele>6.4</ele>
        <time>2021-05-18T12:49:43Z</time>
      </trkpt>
      <trkpt lat="41.8753060" lon="-8.8389790">
        <ele>6.4</ele>
        <time>2021-05-18T12:49:44Z</time>
      </trkpt>
      <trkpt lat="41.8753110" lon="-8.8389760">
        <ele>6.4</ele>
        <time>2021-05-18T12:49:45Z</time>
      </trkpt>
      <trkpt lat="41.8753110" lon="-8.8389760">
        <ele>6.4</ele>
        <time>2021-05-18T12:49:46Z</time>
      </trkpt>
      <trkpt lat="41.8753110" lon="-8.8389760">
        <ele>6.4</ele>
        <time>2021-05-18T12:49:47Z</time>
      </trkpt>
      <trkpt lat="41.8753110" lon="-8.8389760">
        <ele>6.4</ele>
        <time>2021-05-18T12:49:48Z</time>
      </trkpt>
      <trkpt lat="41.8753110" lon="-8.8389760">
        <ele>6.4</ele>
        <time>2021-05-18T12:49:49Z</time>
      </trkpt>
      <trkpt lat="41.8753110" lon="-8.8389760">
        <ele>6.4</ele>
        <time>2021-05-18T12:49:50Z</time>
      </trkpt>
      <trkpt lat="41.8753110" lon="-8.8389760">
        <ele>6.4</ele>
        <time>2021-05-18T12:49:51Z</time>
      </trkpt>
      <trkpt lat="41.8753110" lon="-8.8389760">
        <ele>6.4</ele>
        <time>2021-05-18T12:49:52Z</time>
      </trkpt>
      <trkpt lat="41.8753110" lon="-8.8389760">
        <ele>6.4</ele>
        <time>2021-05-18T12:49:53Z</time>
      </trkpt>
      <trkpt lat="41.8753110" lon="-8.8389760">
        <ele>6.4</ele>
        <time>2021-05-18T12:49:54Z</time>
      </trkpt>
      <trkpt lat="41.8753110" lon="-8.8389760">
        <ele>6.4</ele>
        <time>2021-05-18T12:49:55Z</time>
      </trkpt>
      <trkpt lat="41.8753110" lon="-8.8389760">
        <ele>6.4</ele>
        <time>2021-05-18T12:49:56Z</time>
      </trkpt>
      <trkpt lat="41.8753110" lon="-8.8389760">
        <ele>6.4</ele>
        <time>2021-05-18T12:49:57Z</time>
      </trkpt>
      <trkpt lat="41.8753110" lon="-8.8389760">
        <ele>6.4</ele>
        <time>2021-05-18T12:49:58Z</time>
      </trkpt>
      <trkpt lat="41.8753110" lon="-8.8389760">
        <ele>6.4</ele>
        <time>2021-05-18T12:49:59Z</time>
      </trkpt>
      <trkpt lat="41.8753090" lon="-8.8389610">
        <ele>6.5</ele>
        <time>2021-05-18T12:50:00Z</time>
      </trkpt>
      <trkpt lat="41.8753090" lon="-8.8389610">
        <ele>6.5</ele>
        <time>2021-05-18T12:50:01Z</time>
      </trkpt>
      <trkpt lat="41.8753110" lon="-8.8389610">
        <ele>6.5</ele>
        <time>2021-05-18T12:50:02Z</time>
      </trkpt>
      <trkpt lat="41.8753130" lon="-8.8389640">
        <ele>6.4</ele>
        <time>2021-05-18T12:50:03Z</time>
      </trkpt>
      <trkpt lat="41.8753130" lon="-8.8389640">
        <ele>6.4</ele>
        <time>2021-05-18T12:50:04Z</time>
      </trkpt>
      <trkpt lat="41.8753130" lon="-8.8389640">
        <ele>6.4</ele>
        <time>2021-05-18T12:50:05Z</time>
      </trkpt>
      <trkpt lat="41.8753130" lon="-8.8389640">
        <ele>6.4</ele>
        <time>2021-05-18T12:50:06Z</time>
      </trkpt>
      <trkpt lat="41.8753130" lon="-8.8389640">
        <ele>6.4</ele>
        <time>2021-05-18T12:50:07Z</time>
      </trkpt>
      <trkpt lat="41.8753130" lon="-8.8389640">
        <ele>6.4</ele>
        <time>2021-05-18T12:50:08Z</time>
      </trkpt>
      <trkpt lat="41.8753130" lon="-8.8389640">
        <ele>6.4</ele>
        <time>2021-05-18T12:50:09Z</time>
      </trkpt>
      <trkpt lat="41.8753130" lon="-8.8389640">
        <ele>6.4</ele>
        <time>2021-05-18T12:50:10Z</time>
      </trkpt>
      <trkpt lat="41.8753130" lon="-8.8389640">
        <ele>6.4</ele>
        <time>2021-05-18T12:50:11Z</time>
      </trkpt>
      <trkpt lat="41.8753130" lon="-8.8389640">
        <ele>6.4</ele>
        <time>2021-05-18T12:50:12Z</time>
      </trkpt>
      <trkpt lat="41.8753130" lon="-8.8389640">
        <ele>6.4</ele>
        <time>2021-05-18T12:50:13Z</time>
      </trkpt>
      <trkpt lat="41.8753130" lon="-8.8389640">
        <ele>6.4</ele>
        <time>2021-05-18T12:50:14Z</time>
      </trkpt>
      <trkpt lat="41.8753130" lon="-8.8389640">
        <ele>6.4</ele>
        <time>2021-05-18T12:50:15Z</time>
      </trkpt>
      <trkpt lat="41.8753130" lon="-8.8389640">
        <ele>6.4</ele>
        <time>2021-05-18T12:50:16Z</time>
      </trkpt>
      <trkpt lat="41.8753130" lon="-8.8389640">
        <ele>6.4</ele>
        <time>2021-05-18T12:50:17Z</time>
      </trkpt>
      <trkpt lat="41.8753130" lon="-8.8389640">
        <ele>6.4</ele>
        <time>2021-05-18T12:50:18Z</time>
      </trkpt>
      <trkpt lat="41.8753130" lon="-8.8389640">
        <ele>6.4</ele>
        <time>2021-05-18T12:50:19Z</time>
      </trkpt>
      <trkpt lat="41.8753200" lon="-8.8389860">
        <ele>6.4</ele>
        <time>2021-05-18T12:50:20Z</time>
      </trkpt>
      <trkpt lat="41.8753180" lon="-8.8389840">
        <ele>6.4</ele>
        <time>2021-05-18T12:50:21Z</time>
      </trkpt>
      <trkpt lat="41.8753170" lon="-8.8389830">
        <ele>6.4</ele>
        <time>2021-05-18T12:50:22Z</time>
      </trkpt>
      <trkpt lat="41.8753010" lon="-8.8389870">
        <ele>6.4</ele>
        <time>2021-05-18T12:50:23Z</time>
      </trkpt>
      <trkpt lat="41.8753150" lon="-8.8389820">
        <ele>6.4</ele>
        <time>2021-05-18T12:50:24Z</time>
      </trkpt>
      <trkpt lat="41.8753160" lon="-8.8389720">
        <ele>6.4</ele>
        <time>2021-05-18T12:50:25Z</time>
      </trkpt>
      <trkpt lat="41.8753190" lon="-8.8389690">
        <ele>6.4</ele>
        <time>2021-05-18T12:50:26Z</time>
      </trkpt>
      <trkpt lat="41.8753200" lon="-8.8389670">
        <ele>6.4</ele>
        <time>2021-05-18T12:50:27Z</time>
      </trkpt>
      <trkpt lat="41.8753200" lon="-8.8389670">
        <ele>6.4</ele>
        <time>2021-05-18T12:50:28Z</time>
      </trkpt>
      <trkpt lat="41.8753200" lon="-8.8389670">
        <ele>6.4</ele>
        <time>2021-05-18T12:50:29Z</time>
      </trkpt>
      <trkpt lat="41.8753260" lon="-8.8389590">
        <ele>6.4</ele>
        <time>2021-05-18T12:50:30Z</time>
      </trkpt>
      <trkpt lat="41.8753290" lon="-8.8389580">
        <ele>6.4</ele>
        <time>2021-05-18T12:50:31Z</time>
      </trkpt>
      <trkpt lat="41.8753310" lon="-8.8389540">
        <ele>6.4</ele>
        <time>2021-05-18T12:50:32Z</time>
      </trkpt>
      <trkpt lat="41.8753310" lon="-8.8389530">
        <ele>6.4</ele>
        <time>2021-05-18T12:50:33Z</time>
      </trkpt>
      <trkpt lat="41.8753310" lon="-8.8389520">
        <ele>6.4</ele>
        <time>2021-05-18T12:50:34Z</time>
      </trkpt>
      <trkpt lat="41.8753320" lon="-8.8389510">
        <ele>6.4</ele>
        <time>2021-05-18T12:50:35Z</time>
      </trkpt>
      <trkpt lat="41.8753310" lon="-8.8389520">
        <ele>6.4</ele>
        <time>2021-05-18T12:50:36Z</time>
      </trkpt>
      <trkpt lat="41.8753320" lon="-8.8389490">
        <ele>6.4</ele>
        <time>2021-05-18T12:50:37Z</time>
      </trkpt>
      <trkpt lat="41.8753300" lon="-8.8389510">
        <ele>6.4</ele>
        <time>2021-05-18T12:50:38Z</time>
      </trkpt>
      <trkpt lat="41.8753300" lon="-8.8389520">
        <ele>6.4</ele>
        <time>2021-05-18T12:50:39Z</time>
      </trkpt>
      <trkpt lat="41.8753320" lon="-8.8389490">
        <ele>6.4</ele>
        <time>2021-05-18T12:50:40Z</time>
      </trkpt>
      <trkpt lat="41.8753330" lon="-8.8389460">
        <ele>6.4</ele>
        <time>2021-05-18T12:50:41Z</time>
      </trkpt>
      <trkpt lat="41.8753330" lon="-8.8389460">
        <ele>6.4</ele>
        <time>2021-05-18T12:50:42Z</time>
      </trkpt>
      <trkpt lat="41.8753330" lon="-8.8389470">
        <ele>6.4</ele>
        <time>2021-05-18T12:50:43Z</time>
      </trkpt>
      <trkpt lat="41.8753330" lon="-8.8389470">
        <ele>6.4</ele>
        <time>2021-05-18T12:50:44Z</time>
      </trkpt>
      <trkpt lat="41.8753330" lon="-8.8389450">
        <ele>6.4</ele>
        <time>2021-05-18T12:50:45Z</time>
      </trkpt>
      <trkpt lat="41.8753350" lon="-8.8389440">
        <ele>6.4</ele>
        <time>2021-05-18T12:50:46Z</time>
      </trkpt>
      <trkpt lat="41.8753340" lon="-8.8389410">
        <ele>6.4</ele>
        <time>2021-05-18T12:50:47Z</time>
      </trkpt>
      <trkpt lat="41.8753330" lon="-8.8389400">
        <ele>6.4</ele>
        <time>2021-05-18T12:50:48Z</time>
      </trkpt>
      <trkpt lat="41.8753340" lon="-8.8389400">
        <ele>6.4</ele>
        <time>2021-05-18T12:50:49Z</time>
      </trkpt>
      <trkpt lat="41.8753330" lon="-8.8389370">
        <ele>6.4</ele>
        <time>2021-05-18T12:50:50Z</time>
      </trkpt>
      <trkpt lat="41.8753350" lon="-8.8389340">
        <ele>6.4</ele>
        <time>2021-05-18T12:50:51Z</time>
      </trkpt>
      <trkpt lat="41.8753330" lon="-8.8389350">
        <ele>6.4</ele>
        <time>2021-05-18T12:50:52Z</time>
      </trkpt>
      <trkpt lat="41.8753330" lon="-8.8389350">
        <ele>6.4</ele>
        <time>2021-05-18T12:50:53Z</time>
      </trkpt>
      <trkpt lat="41.8753260" lon="-8.8389460">
        <ele>6.4</ele>
        <time>2021-05-18T12:50:54Z</time>
      </trkpt>
      <trkpt lat="41.8753250" lon="-8.8389470">
        <ele>6.4</ele>
        <time>2021-05-18T12:50:55Z</time>
      </trkpt>
      <trkpt lat="41.8753240" lon="-8.8389440">
        <ele>6.4</ele>
        <time>2021-05-18T12:50:56Z</time>
      </trkpt>
      <trkpt lat="41.8753230" lon="-8.8389460">
        <ele>6.4</ele>
        <time>2021-05-18T12:50:57Z</time>
      </trkpt>
      <trkpt lat="41.8753230" lon="-8.8389460">
        <ele>6.4</ele>
        <time>2021-05-18T12:50:58Z</time>
      </trkpt>
      <trkpt lat="41.8753230" lon="-8.8389440">
        <ele>6.4</ele>
        <time>2021-05-18T12:50:59Z</time>
      </trkpt>
      <trkpt lat="41.8753190" lon="-8.8389460">
        <ele>6.4</ele>
        <time>2021-05-18T12:51:00Z</time>
      </trkpt>
      <trkpt lat="41.8753160" lon="-8.8389460">
        <ele>6.4</ele>
        <time>2021-05-18T12:51:01Z</time>
      </trkpt>
      <trkpt lat="41.8753150" lon="-8.8389510">
        <ele>6.4</ele>
        <time>2021-05-18T12:51:02Z</time>
      </trkpt>
      <trkpt lat="41.8753150" lon="-8.8389510">
        <ele>6.4</ele>
        <time>2021-05-18T12:51:03Z</time>
      </trkpt>
      <trkpt lat="41.8753150" lon="-8.8389510">
        <ele>6.4</ele>
        <time>2021-05-18T12:51:04Z</time>
      </trkpt>
      <trkpt lat="41.8753170" lon="-8.8389530">
        <ele>6.4</ele>
        <time>2021-05-18T12:51:05Z</time>
      </trkpt>
      <trkpt lat="41.8753160" lon="-8.8389530">
        <ele>6.4</ele>
        <time>2021-05-18T12:51:06Z</time>
      </trkpt>
      <trkpt lat="41.8753180" lon="-8.8389520">
        <ele>6.4</ele>
        <time>2021-05-18T12:51:07Z</time>
      </trkpt>
      <trkpt lat="41.8753180" lon="-8.8389520">
        <ele>6.4</ele>
        <time>2021-05-18T12:51:08Z</time>
      </trkpt>
      <trkpt lat="41.8753190" lon="-8.8389520">
        <ele>6.4</ele>
        <time>2021-05-18T12:51:09Z</time>
      </trkpt>
      <trkpt lat="41.8753200" lon="-8.8389530">
        <ele>6.4</ele>
        <time>2021-05-18T12:51:10Z</time>
      </trkpt>
      <trkpt lat="41.8753200" lon="-8.8389550">
        <ele>6.4</ele>
        <time>2021-05-18T12:51:11Z</time>
      </trkpt>
      <trkpt lat="41.8753210" lon="-8.8389570">
        <ele>6.4</ele>
        <time>2021-05-18T12:51:12Z</time>
      </trkpt>
      <trkpt lat="41.8753210" lon="-8.8389580">
        <ele>6.4</ele>
        <time>2021-05-18T12:51:13Z</time>
      </trkpt>
      <trkpt lat="41.8753230" lon="-8.8389580">
        <ele>6.4</ele>
        <time>2021-05-18T12:51:14Z</time>
      </trkpt>
      <trkpt lat="41.8753220" lon="-8.8389570">
        <ele>6.4</ele>
        <time>2021-05-18T12:51:15Z</time>
      </trkpt>
      <trkpt lat="41.8753210" lon="-8.8389570">
        <ele>6.4</ele>
        <time>2021-05-18T12:51:16Z</time>
      </trkpt>
      <trkpt lat="41.8753200" lon="-8.8389560">
        <ele>6.4</ele>
        <time>2021-05-18T12:51:17Z</time>
      </trkpt>
      <trkpt lat="41.8753210" lon="-8.8389550">
        <ele>6.4</ele>
        <time>2021-05-18T12:51:18Z</time>
      </trkpt>
      <trkpt lat="41.8753210" lon="-8.8389550">
        <ele>6.4</ele>
        <time>2021-05-18T12:51:19Z</time>
      </trkpt>
      <trkpt lat="41.8753210" lon="-8.8389550">
        <ele>6.4</ele>
        <time>2021-05-18T12:51:20Z</time>
      </trkpt>
      <trkpt lat="41.8753210" lon="-8.8389550">
        <ele>6.4</ele>
        <time>2021-05-18T12:51:21Z</time>
      </trkpt>
      <trkpt lat="41.8753280" lon="-8.8389470">
        <ele>6.4</ele>
        <time>2021-05-18T12:51:22Z</time>
      </trkpt>
      <trkpt lat="41.8753290" lon="-8.8389450">
        <ele>6.4</ele>
        <time>2021-05-18T12:51:23Z</time>
      </trkpt>
      <trkpt lat="41.8753280" lon="-8.8389450">
        <ele>6.4</ele>
        <time>2021-05-18T12:51:24Z</time>
      </trkpt>
      <trkpt lat="41.8753280" lon="-8.8389450">
        <ele>6.4</ele>
        <time>2021-05-18T12:51:25Z</time>
      </trkpt>
      <trkpt lat="41.8753280" lon="-8.8389450">
        <ele>6.4</ele>
        <time>2021-05-18T12:51:26Z</time>
      </trkpt>
      <trkpt lat="41.8753280" lon="-8.8389450">
        <ele>6.4</ele>
        <time>2021-05-18T12:51:27Z</time>
      </trkpt>
      <trkpt lat="41.8753280" lon="-8.8389450">
        <ele>6.4</ele>
        <time>2021-05-18T12:51:28Z</time>
      </trkpt>
      <trkpt lat="41.8753280" lon="-8.8389450">
        <ele>6.4</ele>
        <time>2021-05-18T12:51:29Z</time>
      </trkpt>
      <trkpt lat="41.8753260" lon="-8.8389470">
        <ele>6.4</ele>
        <time>2021-05-18T12:51:30Z</time>
      </trkpt>
      <trkpt lat="41.8753260" lon="-8.8389480">
        <ele>6.4</ele>
        <time>2021-05-18T12:51:31Z</time>
      </trkpt>
      <trkpt lat="41.8753260" lon="-8.8389480">
        <ele>6.4</ele>
        <time>2021-05-18T12:51:32Z</time>
      </trkpt>
      <trkpt lat="41.8753230" lon="-8.8389500">
        <ele>6.4</ele>
        <time>2021-05-18T12:51:33Z</time>
      </trkpt>
      <trkpt lat="41.8753220" lon="-8.8389530">
        <ele>6.4</ele>
        <time>2021-05-18T12:51:34Z</time>
      </trkpt>
      <trkpt lat="41.8753210" lon="-8.8389540">
        <ele>6.4</ele>
        <time>2021-05-18T12:51:35Z</time>
      </trkpt>
      <trkpt lat="41.8753180" lon="-8.8389560">
        <ele>6.4</ele>
        <time>2021-05-18T12:51:36Z</time>
      </trkpt>
      <trkpt lat="41.8753200" lon="-8.8389530">
        <ele>6.4</ele>
        <time>2021-05-18T12:51:37Z</time>
      </trkpt>
      <trkpt lat="41.8753180" lon="-8.8389530">
        <ele>6.4</ele>
        <time>2021-05-18T12:51:38Z</time>
      </trkpt>
      <trkpt lat="41.8753150" lon="-8.8389550">
        <ele>6.4</ele>
        <time>2021-05-18T12:51:39Z</time>
      </trkpt>
      <trkpt lat="41.8753150" lon="-8.8389550">
        <ele>6.4</ele>
        <time>2021-05-18T12:51:40Z</time>
      </trkpt>
      <trkpt lat="41.8753150" lon="-8.8389550">
        <ele>6.4</ele>
        <time>2021-05-18T12:51:41Z</time>
      </trkpt>
      <trkpt lat="41.8753150" lon="-8.8389550">
        <ele>6.4</ele>
        <time>2021-05-18T12:51:42Z</time>
      </trkpt>
      <trkpt lat="41.8753100" lon="-8.8389510">
        <ele>6.5</ele>
        <time>2021-05-18T12:51:43Z</time>
      </trkpt>
      <trkpt lat="41.8753120" lon="-8.8389490">
        <ele>6.5</ele>
        <time>2021-05-18T12:51:44Z</time>
      </trkpt>
      <trkpt lat="41.8753120" lon="-8.8389470">
        <ele>6.5</ele>
        <time>2021-05-18T12:51:45Z</time>
      </trkpt>
      <trkpt lat="41.8753100" lon="-8.8389450">
        <ele>6.5</ele>
        <time>2021-05-18T12:51:46Z</time>
      </trkpt>
      <trkpt lat="41.8753080" lon="-8.8389430">
        <ele>6.5</ele>
        <time>2021-05-18T12:51:47Z</time>
      </trkpt>
      <trkpt lat="41.8753090" lon="-8.8389430">
        <ele>6.5</ele>
        <time>2021-05-18T12:51:48Z</time>
      </trkpt>
      <trkpt lat="41.8753100" lon="-8.8389430">
        <ele>6.5</ele>
        <time>2021-05-18T12:51:49Z</time>
      </trkpt>
      <trkpt lat="41.8753100" lon="-8.8389430">
        <ele>6.5</ele>
        <time>2021-05-18T12:51:50Z</time>
      </trkpt>
      <trkpt lat="41.8753080" lon="-8.8389350">
        <ele>6.5</ele>
        <time>2021-05-18T12:51:51Z</time>
      </trkpt>
      <trkpt lat="41.8753080" lon="-8.8389350">
        <ele>6.5</ele>
        <time>2021-05-18T12:51:52Z</time>
      </trkpt>
      <trkpt lat="41.8753070" lon="-8.8389300">
        <ele>6.5</ele>
        <time>2021-05-18T12:51:53Z</time>
      </trkpt>
      <trkpt lat="41.8753070" lon="-8.8389300">
        <ele>6.5</ele>
        <time>2021-05-18T12:51:54Z</time>
      </trkpt>
      <trkpt lat="41.8753070" lon="-8.8389300">
        <ele>6.5</ele>
        <time>2021-05-18T12:51:55Z</time>
      </trkpt>
      <trkpt lat="41.8753090" lon="-8.8389290">
        <ele>6.5</ele>
        <time>2021-05-18T12:51:56Z</time>
      </trkpt>
      <trkpt lat="41.8753090" lon="-8.8389290">
        <ele>6.5</ele>
        <time>2021-05-18T12:51:57Z</time>
      </trkpt>
      <trkpt lat="41.8753090" lon="-8.8389270">
        <ele>6.5</ele>
        <time>2021-05-18T12:51:58Z</time>
      </trkpt>
      <trkpt lat="41.8753090" lon="-8.8389260">
        <ele>6.5</ele>
        <time>2021-05-18T12:51:59Z</time>
      </trkpt>
      <trkpt lat="41.8753100" lon="-8.8389240">
        <ele>6.5</ele>
        <time>2021-05-18T12:52:00Z</time>
      </trkpt>
      <trkpt lat="41.8753100" lon="-8.8389240">
        <ele>6.5</ele>
        <time>2021-05-18T12:52:01Z</time>
      </trkpt>
      <trkpt lat="41.8753100" lon="-8.8389240">
        <ele>6.5</ele>
        <time>2021-05-18T12:52:02Z</time>
      </trkpt>
      <trkpt lat="41.8753100" lon="-8.8389240">
        <ele>6.5</ele>
        <time>2021-05-18T12:52:03Z</time>
      </trkpt>
      <trkpt lat="41.8753060" lon="-8.8389270">
        <ele>6.5</ele>
        <time>2021-05-18T12:52:04Z</time>
      </trkpt>
      <trkpt lat="41.8753080" lon="-8.8389260">
        <ele>6.5</ele>
        <time>2021-05-18T12:52:05Z</time>
      </trkpt>
      <trkpt lat="41.8753090" lon="-8.8389240">
        <ele>6.5</ele>
        <time>2021-05-18T12:52:06Z</time>
      </trkpt>
      <trkpt lat="41.8753100" lon="-8.8389220">
        <ele>6.5</ele>
        <time>2021-05-18T12:52:07Z</time>
      </trkpt>
      <trkpt lat="41.8753120" lon="-8.8389210">
        <ele>6.5</ele>
        <time>2021-05-18T12:52:08Z</time>
      </trkpt>
      <trkpt lat="41.8753110" lon="-8.8389220">
        <ele>6.5</ele>
        <time>2021-05-18T12:52:09Z</time>
      </trkpt>
      <trkpt lat="41.8753120" lon="-8.8389210">
        <ele>6.5</ele>
        <time>2021-05-18T12:52:10Z</time>
      </trkpt>
      <trkpt lat="41.8753150" lon="-8.8389200">
        <ele>6.5</ele>
        <time>2021-05-18T12:52:11Z</time>
      </trkpt>
      <trkpt lat="41.8753160" lon="-8.8389190">
        <ele>6.5</ele>
        <time>2021-05-18T12:52:12Z</time>
      </trkpt>
      <trkpt lat="41.8753140" lon="-8.8389240">
        <ele>6.5</ele>
        <time>2021-05-18T12:52:13Z</time>
      </trkpt>
      <trkpt lat="41.8753160" lon="-8.8389260">
        <ele>6.5</ele>
        <time>2021-05-18T12:52:14Z</time>
      </trkpt>
      <trkpt lat="41.8753190" lon="-8.8389280">
        <ele>6.5</ele>
        <time>2021-05-18T12:52:15Z</time>
      </trkpt>
      <trkpt lat="41.8753220" lon="-8.8389250">
        <ele>6.5</ele>
        <time>2021-05-18T12:52:16Z</time>
      </trkpt>
      <trkpt lat="41.8753220" lon="-8.8389250">
        <ele>6.5</ele>
        <time>2021-05-18T12:52:17Z</time>
      </trkpt>
      <trkpt lat="41.8753270" lon="-8.8389290">
        <ele>6.5</ele>
        <time>2021-05-18T12:52:18Z</time>
      </trkpt>
      <trkpt lat="41.8753280" lon="-8.8389300">
        <ele>6.5</ele>
        <time>2021-05-18T12:52:19Z</time>
      </trkpt>
      <trkpt lat="41.8753240" lon="-8.8389350">
        <ele>6.4</ele>
        <time>2021-05-18T12:52:20Z</time>
      </trkpt>
      <trkpt lat="41.8753200" lon="-8.8389410">
        <ele>6.4</ele>
        <time>2021-05-18T12:52:21Z</time>
      </trkpt>
      <trkpt lat="41.8753200" lon="-8.8389450">
        <ele>6.4</ele>
        <time>2021-05-18T12:52:22Z</time>
      </trkpt>
      <trkpt lat="41.8753210" lon="-8.8389460">
        <ele>6.4</ele>
        <time>2021-05-18T12:52:23Z</time>
      </trkpt>
      <trkpt lat="41.8753200" lon="-8.8389480">
        <ele>6.4</ele>
        <time>2021-05-18T12:52:24Z</time>
      </trkpt>
      <trkpt lat="41.8753200" lon="-8.8389480">
        <ele>6.4</ele>
        <time>2021-05-18T12:52:25Z</time>
      </trkpt>
      <trkpt lat="41.8753150" lon="-8.8389560">
        <ele>6.4</ele>
        <time>2021-05-18T12:52:26Z</time>
      </trkpt>
      <trkpt lat="41.8753140" lon="-8.8389600">
        <ele>6.4</ele>
        <time>2021-05-18T12:52:27Z</time>
      </trkpt>
      <trkpt lat="41.8753120" lon="-8.8389630">
        <ele>6.5</ele>
        <time>2021-05-18T12:52:28Z</time>
      </trkpt>
      <trkpt lat="41.8753090" lon="-8.8389670">
        <ele>6.5</ele>
        <time>2021-05-18T12:52:29Z</time>
      </trkpt>
      <trkpt lat="41.8753070" lon="-8.8389720">
        <ele>6.5</ele>
        <time>2021-05-18T12:52:30Z</time>
      </trkpt>
      <trkpt lat="41.8753060" lon="-8.8389720">
        <ele>6.5</ele>
        <time>2021-05-18T12:52:31Z</time>
      </trkpt>
      <trkpt lat="41.8753050" lon="-8.8389730">
        <ele>6.5</ele>
        <time>2021-05-18T12:52:32Z</time>
      </trkpt>
      <trkpt lat="41.8753060" lon="-8.8389730">
        <ele>6.5</ele>
        <time>2021-05-18T12:52:33Z</time>
      </trkpt>
      <trkpt lat="41.8753050" lon="-8.8389730">
        <ele>6.5</ele>
        <time>2021-05-18T12:52:34Z</time>
      </trkpt>
      <trkpt lat="41.8753050" lon="-8.8389730">
        <ele>6.5</ele>
        <time>2021-05-18T12:52:35Z</time>
      </trkpt>
      <trkpt lat="41.8753050" lon="-8.8389720">
        <ele>6.5</ele>
        <time>2021-05-18T12:52:36Z</time>
      </trkpt>
      <trkpt lat="41.8753050" lon="-8.8389700">
        <ele>6.5</ele>
        <time>2021-05-18T12:52:37Z</time>
      </trkpt>
      <trkpt lat="41.8753020" lon="-8.8389700">
        <ele>6.5</ele>
        <time>2021-05-18T12:52:38Z</time>
      </trkpt>
      <trkpt lat="41.8753050" lon="-8.8389660">
        <ele>6.5</ele>
        <time>2021-05-18T12:52:39Z</time>
      </trkpt>
      <trkpt lat="41.8753050" lon="-8.8389640">
        <ele>6.5</ele>
        <time>2021-05-18T12:52:40Z</time>
      </trkpt>
      <trkpt lat="41.8753060" lon="-8.8389630">
        <ele>6.5</ele>
        <time>2021-05-18T12:52:41Z</time>
      </trkpt>
      <trkpt lat="41.8753070" lon="-8.8389620">
        <ele>6.5</ele>
        <time>2021-05-18T12:52:42Z</time>
      </trkpt>
      <trkpt lat="41.8753070" lon="-8.8389600">
        <ele>6.5</ele>
        <time>2021-05-18T12:52:43Z</time>
      </trkpt>
      <trkpt lat="41.8753080" lon="-8.8389610">
        <ele>6.5</ele>
        <time>2021-05-18T12:52:44Z</time>
      </trkpt>
      <trkpt lat="41.8753080" lon="-8.8389610">
        <ele>6.5</ele>
        <time>2021-05-18T12:52:45Z</time>
      </trkpt>
      <trkpt lat="41.8753080" lon="-8.8389610">
        <ele>6.5</ele>
        <time>2021-05-18T12:52:46Z</time>
      </trkpt>
      <trkpt lat="41.8753080" lon="-8.8389610">
        <ele>6.5</ele>
        <time>2021-05-18T12:52:47Z</time>
      </trkpt>
      <trkpt lat="41.8753060" lon="-8.8389620">
        <ele>6.5</ele>
        <time>2021-05-18T12:52:48Z</time>
      </trkpt>
      <trkpt lat="41.8753060" lon="-8.8389600">
        <ele>6.5</ele>
        <time>2021-05-18T12:52:49Z</time>
      </trkpt>
      <trkpt lat="41.8753040" lon="-8.8389580">
        <ele>6.5</ele>
        <time>2021-05-18T12:52:50Z</time>
      </trkpt>
      <trkpt lat="41.8753040" lon="-8.8389570">
        <ele>6.5</ele>
        <time>2021-05-18T12:52:51Z</time>
      </trkpt>
      <trkpt lat="41.8753040" lon="-8.8389570">
        <ele>6.5</ele>
        <time>2021-05-18T12:52:52Z</time>
      </trkpt>
      <trkpt lat="41.8753060" lon="-8.8389510">
        <ele>6.5</ele>
        <time>2021-05-18T12:52:53Z</time>
      </trkpt>
      <trkpt lat="41.8753070" lon="-8.8389500">
        <ele>6.5</ele>
        <time>2021-05-18T12:52:54Z</time>
      </trkpt>
      <trkpt lat="41.8753070" lon="-8.8389500">
        <ele>6.5</ele>
        <time>2021-05-18T12:52:55Z</time>
      </trkpt>
      <trkpt lat="41.8753070" lon="-8.8389480">
        <ele>6.5</ele>
        <time>2021-05-18T12:52:56Z</time>
      </trkpt>
      <trkpt lat="41.8753090" lon="-8.8389430">
        <ele>6.5</ele>
        <time>2021-05-18T12:52:57Z</time>
      </trkpt>
      <trkpt lat="41.8753110" lon="-8.8389400">
        <ele>6.5</ele>
        <time>2021-05-18T12:52:58Z</time>
      </trkpt>
      <trkpt lat="41.8753100" lon="-8.8389380">
        <ele>6.5</ele>
        <time>2021-05-18T12:52:59Z</time>
      </trkpt>
      <trkpt lat="41.8753110" lon="-8.8389350">
        <ele>6.5</ele>
        <time>2021-05-18T12:53:00Z</time>
      </trkpt>
      <trkpt lat="41.8753110" lon="-8.8389320">
        <ele>6.5</ele>
        <time>2021-05-18T12:53:01Z</time>
      </trkpt>
      <trkpt lat="41.8753110" lon="-8.8389330">
        <ele>6.5</ele>
        <time>2021-05-18T12:53:02Z</time>
      </trkpt>
      <trkpt lat="41.8753110" lon="-8.8389300">
        <ele>6.5</ele>
        <time>2021-05-18T12:53:03Z</time>
      </trkpt>
      <trkpt lat="41.8753140" lon="-8.8389310">
        <ele>6.4</ele>
        <time>2021-05-18T12:53:04Z</time>
      </trkpt>
      <trkpt lat="41.8753160" lon="-8.8389280">
        <ele>6.5</ele>
        <time>2021-05-18T12:53:05Z</time>
      </trkpt>
      <trkpt lat="41.8753140" lon="-8.8389300">
        <ele>6.5</ele>
        <time>2021-05-18T12:53:06Z</time>
      </trkpt>
      <trkpt lat="41.8753140" lon="-8.8389300">
        <ele>6.5</ele>
        <time>2021-05-18T12:53:07Z</time>
      </trkpt>
      <trkpt lat="41.8753150" lon="-8.8389290">
        <ele>6.5</ele>
        <time>2021-05-18T12:53:09Z</time>
      </trkpt>
      <trkpt lat="41.8753160" lon="-8.8389300">
        <ele>6.5</ele>
        <time>2021-05-18T12:53:10Z</time>
      </trkpt>
      <trkpt lat="41.8753160" lon="-8.8389300">
        <ele>6.5</ele>
        <time>2021-05-18T12:53:11Z</time>
      </trkpt>
      <trkpt lat="41.8753160" lon="-8.8389300">
        <ele>6.5</ele>
        <time>2021-05-18T12:53:12Z</time>
      </trkpt>
      <trkpt lat="41.8753160" lon="-8.8389300">
        <ele>6.5</ele>
        <time>2021-05-18T12:53:13Z</time>
      </trkpt>
      <trkpt lat="41.8753160" lon="-8.8389320">
        <ele>6.4</ele>
        <time>2021-05-18T12:53:14Z</time>
      </trkpt>
      <trkpt lat="41.8753150" lon="-8.8389310">
        <ele>6.4</ele>
        <time>2021-05-18T12:53:15Z</time>
      </trkpt>
      <trkpt lat="41.8753160" lon="-8.8389310">
        <ele>6.4</ele>
        <time>2021-05-18T12:53:16Z</time>
      </trkpt>
      <trkpt lat="41.8753160" lon="-8.8389310">
        <ele>6.4</ele>
        <time>2021-05-18T12:53:17Z</time>
      </trkpt>
      <trkpt lat="41.8753160" lon="-8.8389310">
        <ele>6.4</ele>
        <time>2021-05-18T12:53:18Z</time>
      </trkpt>
      <trkpt lat="41.8753160" lon="-8.8389320">
        <ele>6.4</ele>
        <time>2021-05-18T12:53:19Z</time>
      </trkpt>
      <trkpt lat="41.8753160" lon="-8.8389330">
        <ele>6.4</ele>
        <time>2021-05-18T12:53:20Z</time>
      </trkpt>
      <trkpt lat="41.8753170" lon="-8.8389320">
        <ele>6.4</ele>
        <time>2021-05-18T12:53:21Z</time>
      </trkpt>
      <trkpt lat="41.8753180" lon="-8.8389330">
        <ele>6.4</ele>
        <time>2021-05-18T12:53:22Z</time>
      </trkpt>
      <trkpt lat="41.8753210" lon="-8.8389320">
        <ele>6.4</ele>
        <time>2021-05-18T12:53:23Z</time>
      </trkpt>
      <trkpt lat="41.8753240" lon="-8.8389290">
        <ele>6.5</ele>
        <time>2021-05-18T12:53:24Z</time>
      </trkpt>
      <trkpt lat="41.8753240" lon="-8.8389290">
        <ele>6.5</ele>
        <time>2021-05-18T12:53:25Z</time>
      </trkpt>
      <trkpt lat="41.8753270" lon="-8.8389300">
        <ele>6.5</ele>
        <time>2021-05-18T12:53:26Z</time>
      </trkpt>
      <trkpt lat="41.8753270" lon="-8.8389310">
        <ele>6.4</ele>
        <time>2021-05-18T12:53:27Z</time>
      </trkpt>
      <trkpt lat="41.8753250" lon="-8.8389330">
        <ele>6.4</ele>
        <time>2021-05-18T12:53:28Z</time>
      </trkpt>
      <trkpt lat="41.8753230" lon="-8.8389330">
        <ele>6.4</ele>
        <time>2021-05-18T12:53:29Z</time>
      </trkpt>
      <trkpt lat="41.8753270" lon="-8.8389360">
        <ele>6.4</ele>
        <time>2021-05-18T12:53:30Z</time>
      </trkpt>
      <trkpt lat="41.8753320" lon="-8.8389340">
        <ele>6.4</ele>
        <time>2021-05-18T12:53:31Z</time>
      </trkpt>
      <trkpt lat="41.8753320" lon="-8.8389300">
        <ele>6.5</ele>
        <time>2021-05-18T12:53:32Z</time>
      </trkpt>
      <trkpt lat="41.8753320" lon="-8.8389270">
        <ele>6.5</ele>
        <time>2021-05-18T12:53:33Z</time>
      </trkpt>
      <trkpt lat="41.8753330" lon="-8.8389230">
        <ele>6.5</ele>
        <time>2021-05-18T12:53:34Z</time>
      </trkpt>
      <trkpt lat="41.8753350" lon="-8.8389220">
        <ele>6.5</ele>
        <time>2021-05-18T12:53:35Z</time>
      </trkpt>
      <trkpt lat="41.8753350" lon="-8.8389210">
        <ele>6.5</ele>
        <time>2021-05-18T12:53:36Z</time>
      </trkpt>
      <trkpt lat="41.8753390" lon="-8.8389190">
        <ele>6.5</ele>
        <time>2021-05-18T12:53:37Z</time>
      </trkpt>
      <trkpt lat="41.8753390" lon="-8.8389190">
        <ele>6.5</ele>
        <time>2021-05-18T12:53:38Z</time>
      </trkpt>
      <trkpt lat="41.8753420" lon="-8.8389170">
        <ele>6.5</ele>
        <time>2021-05-18T12:53:39Z</time>
      </trkpt>
      <trkpt lat="41.8753430" lon="-8.8389170">
        <ele>6.5</ele>
        <time>2021-05-18T12:53:40Z</time>
      </trkpt>
      <trkpt lat="41.8753440" lon="-8.8389150">
        <ele>6.5</ele>
        <time>2021-05-18T12:53:41Z</time>
      </trkpt>
      <trkpt lat="41.8753440" lon="-8.8389130">
        <ele>6.5</ele>
        <time>2021-05-18T12:53:42Z</time>
      </trkpt>
      <trkpt lat="41.8753430" lon="-8.8389130">
        <ele>6.5</ele>
        <time>2021-05-18T12:53:43Z</time>
      </trkpt>
      <trkpt lat="41.8753430" lon="-8.8389130">
        <ele>6.5</ele>
        <time>2021-05-18T12:53:44Z</time>
      </trkpt>
      <trkpt lat="41.8753440" lon="-8.8389120">
        <ele>6.5</ele>
        <time>2021-05-18T12:53:45Z</time>
      </trkpt>
      <trkpt lat="41.8753450" lon="-8.8389120">
        <ele>6.4</ele>
        <time>2021-05-18T12:53:46Z</time>
      </trkpt>
      <trkpt lat="41.8753460" lon="-8.8389110">
        <ele>6.4</ele>
        <time>2021-05-18T12:53:47Z</time>
      </trkpt>
      <trkpt lat="41.8753470" lon="-8.8389090">
        <ele>6.4</ele>
        <time>2021-05-18T12:53:48Z</time>
      </trkpt>
      <trkpt lat="41.8753490" lon="-8.8389070">
        <ele>6.4</ele>
        <time>2021-05-18T12:53:49Z</time>
      </trkpt>
      <trkpt lat="41.8753490" lon="-8.8389050">
        <ele>6.4</ele>
        <time>2021-05-18T12:53:50Z</time>
      </trkpt>
      <trkpt lat="41.8753490" lon="-8.8389050">
        <ele>6.4</ele>
        <time>2021-05-18T12:53:51Z</time>
      </trkpt>
      <trkpt lat="41.8753500" lon="-8.8389040">
        <ele>6.4</ele>
        <time>2021-05-18T12:53:52Z</time>
      </trkpt>
      <trkpt lat="41.8753510" lon="-8.8389030">
        <ele>6.4</ele>
        <time>2021-05-18T12:53:53Z</time>
      </trkpt>
      <trkpt lat="41.8753520" lon="-8.8389020">
        <ele>6.4</ele>
        <time>2021-05-18T12:53:54Z</time>
      </trkpt>
      <trkpt lat="41.8753510" lon="-8.8389030">
        <ele>6.4</ele>
        <time>2021-05-18T12:53:55Z</time>
      </trkpt>
      <trkpt lat="41.8753510" lon="-8.8389040">
        <ele>6.4</ele>
        <time>2021-05-18T12:53:56Z</time>
      </trkpt>
      <trkpt lat="41.8753490" lon="-8.8389050">
        <ele>6.4</ele>
        <time>2021-05-18T12:53:57Z</time>
      </trkpt>
      <trkpt lat="41.8753480" lon="-8.8389050">
        <ele>6.4</ele>
        <time>2021-05-18T12:53:58Z</time>
      </trkpt>
      <trkpt lat="41.8753480" lon="-8.8389050">
        <ele>6.4</ele>
        <time>2021-05-18T12:53:59Z</time>
      </trkpt>
      <trkpt lat="41.8753480" lon="-8.8389060">
        <ele>6.4</ele>
        <time>2021-05-18T12:54:00Z</time>
      </trkpt>
      <trkpt lat="41.8753490" lon="-8.8389060">
        <ele>6.4</ele>
        <time>2021-05-18T12:54:01Z</time>
      </trkpt>
      <trkpt lat="41.8753500" lon="-8.8389060">
        <ele>6.4</ele>
        <time>2021-05-18T12:54:02Z</time>
      </trkpt>
      <trkpt lat="41.8753490" lon="-8.8389070">
        <ele>6.4</ele>
        <time>2021-05-18T12:54:03Z</time>
      </trkpt>
      <trkpt lat="41.8753490" lon="-8.8389080">
        <ele>6.4</ele>
        <time>2021-05-18T12:54:04Z</time>
      </trkpt>
      <trkpt lat="41.8753500" lon="-8.8389070">
        <ele>6.4</ele>
        <time>2021-05-18T12:54:05Z</time>
      </trkpt>
      <trkpt lat="41.8753500" lon="-8.8389050">
        <ele>6.4</ele>
        <time>2021-05-18T12:54:06Z</time>
      </trkpt>
      <trkpt lat="41.8753500" lon="-8.8389040">
        <ele>6.4</ele>
        <time>2021-05-18T12:54:07Z</time>
      </trkpt>
      <trkpt lat="41.8753490" lon="-8.8389020">
        <ele>6.4</ele>
        <time>2021-05-18T12:54:08Z</time>
      </trkpt>
      <trkpt lat="41.8753490" lon="-8.8389020">
        <ele>6.4</ele>
        <time>2021-05-18T12:54:09Z</time>
      </trkpt>
      <trkpt lat="41.8753490" lon="-8.8389020">
        <ele>6.4</ele>
        <time>2021-05-18T12:54:10Z</time>
      </trkpt>
      <trkpt lat="41.8753490" lon="-8.8389000">
        <ele>6.4</ele>
        <time>2021-05-18T12:54:11Z</time>
      </trkpt>
      <trkpt lat="41.8753480" lon="-8.8389010">
        <ele>6.4</ele>
        <time>2021-05-18T12:54:12Z</time>
      </trkpt>
      <trkpt lat="41.8753470" lon="-8.8389010">
        <ele>6.4</ele>
        <time>2021-05-18T12:54:13Z</time>
      </trkpt>
      <trkpt lat="41.8753470" lon="-8.8389030">
        <ele>6.4</ele>
        <time>2021-05-18T12:54:14Z</time>
      </trkpt>
      <trkpt lat="41.8753470" lon="-8.8389030">
        <ele>6.4</ele>
        <time>2021-05-18T12:54:15Z</time>
      </trkpt>
      <trkpt lat="41.8753480" lon="-8.8389030">
        <ele>6.4</ele>
        <time>2021-05-18T12:54:16Z</time>
      </trkpt>
      <trkpt lat="41.8753490" lon="-8.8389040">
        <ele>6.4</ele>
        <time>2021-05-18T12:54:17Z</time>
      </trkpt>
      <trkpt lat="41.8753480" lon="-8.8389060">
        <ele>6.4</ele>
        <time>2021-05-18T12:54:18Z</time>
      </trkpt>
      <trkpt lat="41.8753490" lon="-8.8389060">
        <ele>6.4</ele>
        <time>2021-05-18T12:54:19Z</time>
      </trkpt>
      <trkpt lat="41.8753490" lon="-8.8389060">
        <ele>6.4</ele>
        <time>2021-05-18T12:54:20Z</time>
      </trkpt>
      <trkpt lat="41.8753480" lon="-8.8389070">
        <ele>6.4</ele>
        <time>2021-05-18T12:54:21Z</time>
      </trkpt>
      <trkpt lat="41.8753470" lon="-8.8389080">
        <ele>6.4</ele>
        <time>2021-05-18T12:54:22Z</time>
      </trkpt>
      <trkpt lat="41.8753480" lon="-8.8389100">
        <ele>6.4</ele>
        <time>2021-05-18T12:54:23Z</time>
      </trkpt>
      <trkpt lat="41.8753470" lon="-8.8389110">
        <ele>6.4</ele>
        <time>2021-05-18T12:54:24Z</time>
      </trkpt>
      <trkpt lat="41.8753480" lon="-8.8389110">
        <ele>6.4</ele>
        <time>2021-05-18T12:54:25Z</time>
      </trkpt>
      <trkpt lat="41.8753480" lon="-8.8389120">
        <ele>6.4</ele>
        <time>2021-05-18T12:54:26Z</time>
      </trkpt>
      <trkpt lat="41.8753480" lon="-8.8389120">
        <ele>6.4</ele>
        <time>2021-05-18T12:54:27Z</time>
      </trkpt>
      <trkpt lat="41.8753460" lon="-8.8389130">
        <ele>6.4</ele>
        <time>2021-05-18T12:54:28Z</time>
      </trkpt>
      <trkpt lat="41.8753450" lon="-8.8389140">
        <ele>6.4</ele>
        <time>2021-05-18T12:54:29Z</time>
      </trkpt>
      <trkpt lat="41.8753440" lon="-8.8389150">
        <ele>6.5</ele>
        <time>2021-05-18T12:54:30Z</time>
      </trkpt>
      <trkpt lat="41.8753440" lon="-8.8389150">
        <ele>6.5</ele>
        <time>2021-05-18T12:54:31Z</time>
      </trkpt>
      <trkpt lat="41.8753440" lon="-8.8389150">
        <ele>6.5</ele>
        <time>2021-05-18T12:54:32Z</time>
      </trkpt>
      <trkpt lat="41.8753430" lon="-8.8389160">
        <ele>6.5</ele>
        <time>2021-05-18T12:54:33Z</time>
      </trkpt>
      <trkpt lat="41.8753430" lon="-8.8389170">
        <ele>6.5</ele>
        <time>2021-05-18T12:54:34Z</time>
      </trkpt>
      <trkpt lat="41.8753400" lon="-8.8389200">
        <ele>6.5</ele>
        <time>2021-05-18T12:54:35Z</time>
      </trkpt>
      <trkpt lat="41.8753390" lon="-8.8389210">
        <ele>6.5</ele>
        <time>2021-05-18T12:54:36Z</time>
      </trkpt>
      <trkpt lat="41.8753380" lon="-8.8389210">
        <ele>6.5</ele>
        <time>2021-05-18T12:54:37Z</time>
      </trkpt>
      <trkpt lat="41.8753380" lon="-8.8389210">
        <ele>6.5</ele>
        <time>2021-05-18T12:54:38Z</time>
      </trkpt>
      <trkpt lat="41.8753380" lon="-8.8389210">
        <ele>6.5</ele>
        <time>2021-05-18T12:54:39Z</time>
      </trkpt>
      <trkpt lat="41.8753360" lon="-8.8389220">
        <ele>6.5</ele>
        <time>2021-05-18T12:54:40Z</time>
      </trkpt>
      <trkpt lat="41.8753370" lon="-8.8389200">
        <ele>6.5</ele>
        <time>2021-05-18T12:54:41Z</time>
      </trkpt>
      <trkpt lat="41.8753380" lon="-8.8389170">
        <ele>6.5</ele>
        <time>2021-05-18T12:54:42Z</time>
      </trkpt>
      <trkpt lat="41.8753370" lon="-8.8389180">
        <ele>6.5</ele>
        <time>2021-05-18T12:54:43Z</time>
      </trkpt>
      <trkpt lat="41.8753370" lon="-8.8389180">
        <ele>6.5</ele>
        <time>2021-05-18T12:54:44Z</time>
      </trkpt>
      <trkpt lat="41.8753360" lon="-8.8389190">
        <ele>6.5</ele>
        <time>2021-05-18T12:54:45Z</time>
      </trkpt>
      <trkpt lat="41.8753360" lon="-8.8389190">
        <ele>6.5</ele>
        <time>2021-05-18T12:54:46Z</time>
      </trkpt>
      <trkpt lat="41.8753360" lon="-8.8389190">
        <ele>6.5</ele>
        <time>2021-05-18T12:54:47Z</time>
      </trkpt>
      <trkpt lat="41.8753370" lon="-8.8389180">
        <ele>6.5</ele>
        <time>2021-05-18T12:54:48Z</time>
      </trkpt>
      <trkpt lat="41.8753380" lon="-8.8389160">
        <ele>6.5</ele>
        <time>2021-05-18T12:54:49Z</time>
      </trkpt>
      <trkpt lat="41.8753400" lon="-8.8389140">
        <ele>6.5</ele>
        <time>2021-05-18T12:54:50Z</time>
      </trkpt>
      <trkpt lat="41.8753390" lon="-8.8389150">
        <ele>6.5</ele>
        <time>2021-05-18T12:54:51Z</time>
      </trkpt>
      <trkpt lat="41.8753390" lon="-8.8389130">
        <ele>6.5</ele>
        <time>2021-05-18T12:54:52Z</time>
      </trkpt>
      <trkpt lat="41.8753390" lon="-8.8389120">
        <ele>6.5</ele>
        <time>2021-05-18T12:54:53Z</time>
      </trkpt>
      <trkpt lat="41.8753400" lon="-8.8389110">
        <ele>6.5</ele>
        <time>2021-05-18T12:54:54Z</time>
      </trkpt>
      <trkpt lat="41.8753400" lon="-8.8389100">
        <ele>6.5</ele>
        <time>2021-05-18T12:54:55Z</time>
      </trkpt>
      <trkpt lat="41.8753380" lon="-8.8389100">
        <ele>6.5</ele>
        <time>2021-05-18T12:54:56Z</time>
      </trkpt>
      <trkpt lat="41.8753380" lon="-8.8389090">
        <ele>6.5</ele>
        <time>2021-05-18T12:54:57Z</time>
      </trkpt>
      <trkpt lat="41.8753370" lon="-8.8389070">
        <ele>6.5</ele>
        <time>2021-05-18T12:54:58Z</time>
      </trkpt>
      <trkpt lat="41.8753370" lon="-8.8389090">
        <ele>6.5</ele>
        <time>2021-05-18T12:54:59Z</time>
      </trkpt>
      <trkpt lat="41.8753370" lon="-8.8389150">
        <ele>6.5</ele>
        <time>2021-05-18T12:55:00Z</time>
      </trkpt>
      <trkpt lat="41.8753370" lon="-8.8389160">
        <ele>6.5</ele>
        <time>2021-05-18T12:55:01Z</time>
      </trkpt>
      <trkpt lat="41.8753380" lon="-8.8389160">
        <ele>6.5</ele>
        <time>2021-05-18T12:55:02Z</time>
      </trkpt>
      <trkpt lat="41.8753380" lon="-8.8389150">
        <ele>6.5</ele>
        <time>2021-05-18T12:55:03Z</time>
      </trkpt>
      <trkpt lat="41.8753400" lon="-8.8389170">
        <ele>6.5</ele>
        <time>2021-05-18T12:55:04Z</time>
      </trkpt>
      <trkpt lat="41.8753410" lon="-8.8389190">
        <ele>6.5</ele>
        <time>2021-05-18T12:55:05Z</time>
      </trkpt>
      <trkpt lat="41.8753410" lon="-8.8389190">
        <ele>6.5</ele>
        <time>2021-05-18T12:55:06Z</time>
      </trkpt>
      <trkpt lat="41.8753420" lon="-8.8389190">
        <ele>6.5</ele>
        <time>2021-05-18T12:55:07Z</time>
      </trkpt>
      <trkpt lat="41.8753420" lon="-8.8389220">
        <ele>6.5</ele>
        <time>2021-05-18T12:55:08Z</time>
      </trkpt>
      <trkpt lat="41.8753430" lon="-8.8389230">
        <ele>6.5</ele>
        <time>2021-05-18T12:55:09Z</time>
      </trkpt>
      <trkpt lat="41.8753440" lon="-8.8389250">
        <ele>6.5</ele>
        <time>2021-05-18T12:55:10Z</time>
      </trkpt>
      <trkpt lat="41.8753430" lon="-8.8389260">
        <ele>6.5</ele>
        <time>2021-05-18T12:55:11Z</time>
      </trkpt>
      <trkpt lat="41.8753440" lon="-8.8389260">
        <ele>6.5</ele>
        <time>2021-05-18T12:55:12Z</time>
      </trkpt>
      <trkpt lat="41.8753440" lon="-8.8389290">
        <ele>6.5</ele>
        <time>2021-05-18T12:55:13Z</time>
      </trkpt>
      <trkpt lat="41.8753440" lon="-8.8389300">
        <ele>6.5</ele>
        <time>2021-05-18T12:55:14Z</time>
      </trkpt>
      <trkpt lat="41.8753430" lon="-8.8389300">
        <ele>6.5</ele>
        <time>2021-05-18T12:55:16Z</time>
      </trkpt>
      <trkpt lat="41.8753420" lon="-8.8389300">
        <ele>6.5</ele>
        <time>2021-05-18T12:55:17Z</time>
      </trkpt>
      <trkpt lat="41.8753430" lon="-8.8389300">
        <ele>6.5</ele>
        <time>2021-05-18T12:55:18Z</time>
      </trkpt>
      <trkpt lat="41.8753400" lon="-8.8389330">
        <ele>6.4</ele>
        <time>2021-05-18T12:55:19Z</time>
      </trkpt>
      <trkpt lat="41.8753400" lon="-8.8389370">
        <ele>6.4</ele>
        <time>2021-05-18T12:55:20Z</time>
      </trkpt>
      <trkpt lat="41.8753420" lon="-8.8389370">
        <ele>6.4</ele>
        <time>2021-05-18T12:55:21Z</time>
      </trkpt>
      <trkpt lat="41.8753410" lon="-8.8389400">
        <ele>6.4</ele>
        <time>2021-05-18T12:55:22Z</time>
      </trkpt>
      <trkpt lat="41.8753410" lon="-8.8389410">
        <ele>6.4</ele>
        <time>2021-05-18T12:55:23Z</time>
      </trkpt>
      <trkpt lat="41.8753410" lon="-8.8389420">
        <ele>6.4</ele>
        <time>2021-05-18T12:55:24Z</time>
      </trkpt>
      <trkpt lat="41.8753420" lon="-8.8389420">
        <ele>6.4</ele>
        <time>2021-05-18T12:55:25Z</time>
      </trkpt>
      <trkpt lat="41.8753420" lon="-8.8389440">
        <ele>6.4</ele>
        <time>2021-05-18T12:55:26Z</time>
      </trkpt>
      <trkpt lat="41.8753420" lon="-8.8389460">
        <ele>6.4</ele>
        <time>2021-05-18T12:55:27Z</time>
      </trkpt>
      <trkpt lat="41.8753420" lon="-8.8389470">
        <ele>6.4</ele>
        <time>2021-05-18T12:55:28Z</time>
      </trkpt>
      <trkpt lat="41.8753410" lon="-8.8389470">
        <ele>6.4</ele>
        <time>2021-05-18T12:55:29Z</time>
      </trkpt>
      <trkpt lat="41.8753410" lon="-8.8389470">
        <ele>6.4</ele>
        <time>2021-05-18T12:55:30Z</time>
      </trkpt>
      <trkpt lat="41.8753420" lon="-8.8389490">
        <ele>6.4</ele>
        <time>2021-05-18T12:55:31Z</time>
      </trkpt>
      <trkpt lat="41.8753420" lon="-8.8389490">
        <ele>6.4</ele>
        <time>2021-05-18T12:55:32Z</time>
      </trkpt>
      <trkpt lat="41.8753420" lon="-8.8389490">
        <ele>6.4</ele>
        <time>2021-05-18T12:55:33Z</time>
      </trkpt>
      <trkpt lat="41.8753400" lon="-8.8389500">
        <ele>6.4</ele>
        <time>2021-05-18T12:55:34Z</time>
      </trkpt>
      <trkpt lat="41.8753390" lon="-8.8389500">
        <ele>6.4</ele>
        <time>2021-05-18T12:55:35Z</time>
      </trkpt>
      <trkpt lat="41.8753360" lon="-8.8389510">
        <ele>6.4</ele>
        <time>2021-05-18T12:55:36Z</time>
      </trkpt>
      <trkpt lat="41.8753360" lon="-8.8389500">
        <ele>6.4</ele>
        <time>2021-05-18T12:55:37Z</time>
      </trkpt>
      <trkpt lat="41.8753370" lon="-8.8389490">
        <ele>6.4</ele>
        <time>2021-05-18T12:55:38Z</time>
      </trkpt>
      <trkpt lat="41.8753360" lon="-8.8389490">
        <ele>6.4</ele>
        <time>2021-05-18T12:55:39Z</time>
      </trkpt>
      <trkpt lat="41.8753370" lon="-8.8389450">
        <ele>6.4</ele>
        <time>2021-05-18T12:55:40Z</time>
      </trkpt>
      <trkpt lat="41.8753380" lon="-8.8389430">
        <ele>6.4</ele>
        <time>2021-05-18T12:55:41Z</time>
      </trkpt>
      <trkpt lat="41.8753400" lon="-8.8389400">
        <ele>6.4</ele>
        <time>2021-05-18T12:55:42Z</time>
      </trkpt>
      <trkpt lat="41.8753400" lon="-8.8389400">
        <ele>6.4</ele>
        <time>2021-05-18T12:55:43Z</time>
      </trkpt>
      <trkpt lat="41.8753420" lon="-8.8389320">
        <ele>6.4</ele>
        <time>2021-05-18T12:55:44Z</time>
      </trkpt>
      <trkpt lat="41.8753410" lon="-8.8389330">
        <ele>6.4</ele>
        <time>2021-05-18T12:55:45Z</time>
      </trkpt>
      <trkpt lat="41.8753410" lon="-8.8389310">
        <ele>6.4</ele>
        <time>2021-05-18T12:55:46Z</time>
      </trkpt>
      <trkpt lat="41.8753430" lon="-8.8389270">
        <ele>6.5</ele>
        <time>2021-05-18T12:55:47Z</time>
      </trkpt>
      <trkpt lat="41.8753420" lon="-8.8389260">
        <ele>6.5</ele>
        <time>2021-05-18T12:55:48Z</time>
      </trkpt>
      <trkpt lat="41.8753440" lon="-8.8389250">
        <ele>6.5</ele>
        <time>2021-05-18T12:55:49Z</time>
      </trkpt>
      <trkpt lat="41.8753440" lon="-8.8389250">
        <ele>6.5</ele>
        <time>2021-05-18T12:55:50Z</time>
      </trkpt>
      <trkpt lat="41.8753440" lon="-8.8389280">
        <ele>6.5</ele>
        <time>2021-05-18T12:55:51Z</time>
      </trkpt>
      <trkpt lat="41.8753440" lon="-8.8389280">
        <ele>6.5</ele>
        <time>2021-05-18T12:55:52Z</time>
      </trkpt>
      <trkpt lat="41.8753430" lon="-8.8389260">
        <ele>6.5</ele>
        <time>2021-05-18T12:55:53Z</time>
      </trkpt>
      <trkpt lat="41.8753430" lon="-8.8389310">
        <ele>6.4</ele>
        <time>2021-05-18T12:55:54Z</time>
      </trkpt>
      <trkpt lat="41.8753440" lon="-8.8389300">
        <ele>6.5</ele>
        <time>2021-05-18T12:55:55Z</time>
      </trkpt>
      <trkpt lat="41.8753450" lon="-8.8389270">
        <ele>6.4</ele>
        <time>2021-05-18T12:55:56Z</time>
      </trkpt>
      <trkpt lat="41.8753460" lon="-8.8389280">
        <ele>6.4</ele>
        <time>2021-05-18T12:55:57Z</time>
      </trkpt>
      <trkpt lat="41.8753450" lon="-8.8389250">
        <ele>6.4</ele>
        <time>2021-05-18T12:55:58Z</time>
      </trkpt>
      <trkpt lat="41.8753410" lon="-8.8389260">
        <ele>6.5</ele>
        <time>2021-05-18T12:55:59Z</time>
      </trkpt>
      <trkpt lat="41.8753330" lon="-8.8389310">
        <ele>6.4</ele>
        <time>2021-05-18T12:56:00Z</time>
      </trkpt>
      <trkpt lat="41.8753220" lon="-8.8389330">
        <ele>6.4</ele>
        <time>2021-05-18T12:56:01Z</time>
      </trkpt>
      <trkpt lat="41.8753250" lon="-8.8389320">
        <ele>6.4</ele>
        <time>2021-05-18T12:56:02Z</time>
      </trkpt>
      <trkpt lat="41.8753340" lon="-8.8389300">
        <ele>6.5</ele>
        <time>2021-05-18T12:56:03Z</time>
      </trkpt>
      <trkpt lat="41.8753340" lon="-8.8389300">
        <ele>6.5</ele>
        <time>2021-05-18T12:56:04Z</time>
      </trkpt>
      <trkpt lat="41.8753340" lon="-8.8389300">
        <ele>6.5</ele>
        <time>2021-05-18T12:56:05Z</time>
      </trkpt>
      <trkpt lat="41.8753340" lon="-8.8389300">
        <ele>6.5</ele>
        <time>2021-05-18T12:56:06Z</time>
      </trkpt>
      <trkpt lat="41.8753340" lon="-8.8389300">
        <ele>6.5</ele>
        <time>2021-05-18T12:56:07Z</time>
      </trkpt>
      <trkpt lat="41.8753340" lon="-8.8389300">
        <ele>6.5</ele>
        <time>2021-05-18T12:56:08Z</time>
      </trkpt>
      <trkpt lat="41.8753340" lon="-8.8389300">
        <ele>6.5</ele>
        <time>2021-05-18T12:56:09Z</time>
      </trkpt>
      <trkpt lat="41.8753340" lon="-8.8389300">
        <ele>6.5</ele>
        <time>2021-05-18T12:56:10Z</time>
      </trkpt>
      <trkpt lat="41.8753340" lon="-8.8389300">
        <ele>6.5</ele>
        <time>2021-05-18T12:56:11Z</time>
      </trkpt>
      <trkpt lat="41.8753340" lon="-8.8389300">
        <ele>6.5</ele>
        <time>2021-05-18T12:56:12Z</time>
      </trkpt>
      <trkpt lat="41.8753340" lon="-8.8389300">
        <ele>6.5</ele>
        <time>2021-05-18T12:56:13Z</time>
      </trkpt>
      <trkpt lat="41.8753340" lon="-8.8389300">
        <ele>6.5</ele>
        <time>2021-05-18T12:56:14Z</time>
      </trkpt>
      <trkpt lat="41.8753340" lon="-8.8389300">
        <ele>6.5</ele>
        <time>2021-05-18T12:56:15Z</time>
      </trkpt>
      <trkpt lat="41.8753340" lon="-8.8389300">
        <ele>6.5</ele>
        <time>2021-05-18T12:56:16Z</time>
      </trkpt>
      <trkpt lat="41.8753340" lon="-8.8389300">
        <ele>6.5</ele>
        <time>2021-05-18T12:56:17Z</time>
      </trkpt>
      <trkpt lat="41.8753340" lon="-8.8389300">
        <ele>6.5</ele>
        <time>2021-05-18T12:56:18Z</time>
      </trkpt>
      <trkpt lat="41.8753340" lon="-8.8389300">
        <ele>6.5</ele>
        <time>2021-05-18T12:56:19Z</time>
      </trkpt>
      <trkpt lat="41.8753340" lon="-8.8389300">
        <ele>6.5</ele>
        <time>2021-05-18T12:56:20Z</time>
      </trkpt>
      <trkpt lat="41.8753340" lon="-8.8389300">
        <ele>6.5</ele>
        <time>2021-05-18T12:56:21Z</time>
      </trkpt>
      <trkpt lat="41.8753340" lon="-8.8389300">
        <ele>6.5</ele>
        <time>2021-05-18T12:56:22Z</time>
      </trkpt>
      <trkpt lat="41.8753340" lon="-8.8389300">
        <ele>6.5</ele>
        <time>2021-05-18T12:56:23Z</time>
      </trkpt>
      <trkpt lat="41.8753340" lon="-8.8389300">
        <ele>6.5</ele>
        <time>2021-05-18T12:56:24Z</time>
      </trkpt>
      <trkpt lat="41.8753050" lon="-8.8389280">
        <ele>6.5</ele>
        <time>2021-05-18T12:56:25Z</time>
      </trkpt>
      <trkpt lat="41.8753040" lon="-8.8389290">
        <ele>6.5</ele>
        <time>2021-05-18T12:56:26Z</time>
      </trkpt>
      <trkpt lat="41.8753040" lon="-8.8389300">
        <ele>6.5</ele>
        <time>2021-05-18T12:56:27Z</time>
      </trkpt>
      <trkpt lat="41.8753030" lon="-8.8389310">
        <ele>6.5</ele>
        <time>2021-05-18T12:56:28Z</time>
      </trkpt>
      <trkpt lat="41.8753020" lon="-8.8389320">
        <ele>6.5</ele>
        <time>2021-05-18T12:56:29Z</time>
      </trkpt>
      <trkpt lat="41.8753020" lon="-8.8389330">
        <ele>6.5</ele>
        <time>2021-05-18T12:56:30Z</time>
      </trkpt>
      <trkpt lat="41.8753010" lon="-8.8389350">
        <ele>6.5</ele>
        <time>2021-05-18T12:56:31Z</time>
      </trkpt>
      <trkpt lat="41.8753010" lon="-8.8389360">
        <ele>6.5</ele>
        <time>2021-05-18T12:56:32Z</time>
      </trkpt>
      <trkpt lat="41.8753000" lon="-8.8389370">
        <ele>6.5</ele>
        <time>2021-05-18T12:56:33Z</time>
      </trkpt>
      <trkpt lat="41.8752990" lon="-8.8389380">
        <ele>6.5</ele>
        <time>2021-05-18T12:56:34Z</time>
      </trkpt>
      <trkpt lat="41.8752990" lon="-8.8389390">
        <ele>6.5</ele>
        <time>2021-05-18T12:56:35Z</time>
      </trkpt>
      <trkpt lat="41.8752980" lon="-8.8389400">
        <ele>6.5</ele>
        <time>2021-05-18T12:56:36Z</time>
      </trkpt>
      <trkpt lat="41.8752970" lon="-8.8389410">
        <ele>6.5</ele>
        <time>2021-05-18T12:56:37Z</time>
      </trkpt>
      <trkpt lat="41.8752970" lon="-8.8389420">
        <ele>6.5</ele>
        <time>2021-05-18T12:56:38Z</time>
      </trkpt>
      <trkpt lat="41.8752960" lon="-8.8389430">
        <ele>6.5</ele>
        <time>2021-05-18T12:56:39Z</time>
      </trkpt>
      <trkpt lat="41.8752960" lon="-8.8389440">
        <ele>6.5</ele>
        <time>2021-05-18T12:56:40Z</time>
      </trkpt>
      <trkpt lat="41.8752950" lon="-8.8389460">
        <ele>6.5</ele>
        <time>2021-05-18T12:56:41Z</time>
      </trkpt>
      <trkpt lat="41.8752940" lon="-8.8389470">
        <ele>6.5</ele>
        <time>2021-05-18T12:56:42Z</time>
      </trkpt>
      <trkpt lat="41.8752940" lon="-8.8389480">
        <ele>6.5</ele>
        <time>2021-05-18T12:56:43Z</time>
      </trkpt>
      <trkpt lat="41.8752930" lon="-8.8389490">
        <ele>6.5</ele>
        <time>2021-05-18T12:56:44Z</time>
      </trkpt>
      <trkpt lat="41.8752920" lon="-8.8389500">
        <ele>6.5</ele>
        <time>2021-05-18T12:56:45Z</time>
      </trkpt>
      <trkpt lat="41.8752920" lon="-8.8389510">
        <ele>6.5</ele>
        <time>2021-05-18T12:56:46Z</time>
      </trkpt>
      <trkpt lat="41.8752910" lon="-8.8389520">
        <ele>6.5</ele>
        <time>2021-05-18T12:56:47Z</time>
      </trkpt>
      <trkpt lat="41.8752910" lon="-8.8389530">
        <ele>6.5</ele>
        <time>2021-05-18T12:56:48Z</time>
      </trkpt>
      <trkpt lat="41.8752900" lon="-8.8389540">
        <ele>6.5</ele>
        <time>2021-05-18T12:56:49Z</time>
      </trkpt>
      <trkpt lat="41.8752890" lon="-8.8389550">
        <ele>6.5</ele>
        <time>2021-05-18T12:56:50Z</time>
      </trkpt>
      <trkpt lat="41.8752890" lon="-8.8389570">
        <ele>6.5</ele>
        <time>2021-05-18T12:56:51Z</time>
      </trkpt>
      <trkpt lat="41.8752880" lon="-8.8389580">
        <ele>6.5</ele>
        <time>2021-05-18T12:56:52Z</time>
      </trkpt>
      <trkpt lat="41.8752870" lon="-8.8389590">
        <ele>6.5</ele>
        <time>2021-05-18T12:56:53Z</time>
      </trkpt>
      <trkpt lat="41.8752870" lon="-8.8389600">
        <ele>6.5</ele>
        <time>2021-05-18T12:56:54Z</time>
      </trkpt>
      <trkpt lat="41.8752860" lon="-8.8389610">
        <ele>6.5</ele>
        <time>2021-05-18T12:56:55Z</time>
      </trkpt>
      <trkpt lat="41.8752860" lon="-8.8389620">
        <ele>6.5</ele>
        <time>2021-05-18T12:56:56Z</time>
      </trkpt>
      <trkpt lat="41.8752850" lon="-8.8389630">
        <ele>6.5</ele>
        <time>2021-05-18T12:56:57Z</time>
      </trkpt>
      <trkpt lat="41.8752840" lon="-8.8389640">
        <ele>6.5</ele>
        <time>2021-05-18T12:56:58Z</time>
      </trkpt>
      <trkpt lat="41.8752840" lon="-8.8389650">
        <ele>6.5</ele>
        <time>2021-05-18T12:56:59Z</time>
      </trkpt>
      <trkpt lat="41.8752830" lon="-8.8389660">
        <ele>6.5</ele>
        <time>2021-05-18T12:57:00Z</time>
      </trkpt>
      <trkpt lat="41.8752820" lon="-8.8389680">
        <ele>6.5</ele>
        <time>2021-05-18T12:57:01Z</time>
      </trkpt>
      <trkpt lat="41.8752820" lon="-8.8389690">
        <ele>6.5</ele>
        <time>2021-05-18T12:57:02Z</time>
      </trkpt>
      <trkpt lat="41.8752810" lon="-8.8389700">
        <ele>6.5</ele>
        <time>2021-05-18T12:57:03Z</time>
      </trkpt>
      <trkpt lat="41.8752810" lon="-8.8389710">
        <ele>6.5</ele>
        <time>2021-05-18T12:57:04Z</time>
      </trkpt>
      <trkpt lat="41.8752800" lon="-8.8389720">
        <ele>6.6</ele>
        <time>2021-05-18T12:57:05Z</time>
      </trkpt>
      <trkpt lat="41.8752790" lon="-8.8389730">
        <ele>6.6</ele>
        <time>2021-05-18T12:57:06Z</time>
      </trkpt>
      <trkpt lat="41.8752790" lon="-8.8389740">
        <ele>6.5</ele>
        <time>2021-05-18T12:57:07Z</time>
      </trkpt>
      <trkpt lat="41.8752780" lon="-8.8389750">
        <ele>6.5</ele>
        <time>2021-05-18T12:57:08Z</time>
      </trkpt>
      <trkpt lat="41.8752770" lon="-8.8389760">
        <ele>6.5</ele>
        <time>2021-05-18T12:57:09Z</time>
      </trkpt>
      <trkpt lat="41.8752770" lon="-8.8389770">
        <ele>6.5</ele>
        <time>2021-05-18T12:57:10Z</time>
      </trkpt>
      <trkpt lat="41.8752760" lon="-8.8389790">
        <ele>6.5</ele>
        <time>2021-05-18T12:57:11Z</time>
      </trkpt>
      <trkpt lat="41.8752760" lon="-8.8389800">
        <ele>6.5</ele>
        <time>2021-05-18T12:57:12Z</time>
      </trkpt>
      <trkpt lat="41.8752750" lon="-8.8389810">
        <ele>6.5</ele>
        <time>2021-05-18T12:57:13Z</time>
      </trkpt>
      <trkpt lat="41.8752740" lon="-8.8389820">
        <ele>6.5</ele>
        <time>2021-05-18T12:57:14Z</time>
      </trkpt>
      <trkpt lat="41.8752740" lon="-8.8389830">
        <ele>6.5</ele>
        <time>2021-05-18T12:57:15Z</time>
      </trkpt>
      <trkpt lat="41.8752730" lon="-8.8389840">
        <ele>6.5</ele>
        <time>2021-05-18T12:57:16Z</time>
      </trkpt>
      <trkpt lat="41.8752740" lon="-8.8389830">
        <ele>6.5</ele>
        <time>2021-05-18T12:57:17Z</time>
      </trkpt>
      <trkpt lat="41.8752740" lon="-8.8389820">
        <ele>6.5</ele>
        <time>2021-05-18T12:57:18Z</time>
      </trkpt>
      <trkpt lat="41.8752750" lon="-8.8389820">
        <ele>6.5</ele>
        <time>2021-05-18T12:57:19Z</time>
      </trkpt>
      <trkpt lat="41.8752760" lon="-8.8389810">
        <ele>6.5</ele>
        <time>2021-05-18T12:57:20Z</time>
      </trkpt>
      <trkpt lat="41.8752760" lon="-8.8389800">
        <ele>6.5</ele>
        <time>2021-05-18T12:57:22Z</time>
      </trkpt>
      <trkpt lat="41.8752770" lon="-8.8389790">
        <ele>6.5</ele>
        <time>2021-05-18T12:57:23Z</time>
      </trkpt>
      <trkpt lat="41.8752780" lon="-8.8389780">
        <ele>6.5</ele>
        <time>2021-05-18T12:57:24Z</time>
      </trkpt>
      <trkpt lat="41.8752790" lon="-8.8389770">
        <ele>6.5</ele>
        <time>2021-05-18T12:57:25Z</time>
      </trkpt>
      <trkpt lat="41.8752790" lon="-8.8389770">
        <ele>6.5</ele>
        <time>2021-05-18T12:57:26Z</time>
      </trkpt>
      <trkpt lat="41.8752800" lon="-8.8389760">
        <ele>6.5</ele>
        <time>2021-05-18T12:57:27Z</time>
      </trkpt>
      <trkpt lat="41.8752810" lon="-8.8389750">
        <ele>6.4</ele>
        <time>2021-05-18T12:57:28Z</time>
      </trkpt>
      <trkpt lat="41.8752810" lon="-8.8389740">
        <ele>6.4</ele>
        <time>2021-05-18T12:57:29Z</time>
      </trkpt>
      <trkpt lat="41.8752820" lon="-8.8389730">
        <ele>6.5</ele>
        <time>2021-05-18T12:57:30Z</time>
      </trkpt>
      <trkpt lat="41.8752830" lon="-8.8389720">
        <ele>6.5</ele>
        <time>2021-05-18T12:57:31Z</time>
      </trkpt>
      <trkpt lat="41.8752830" lon="-8.8389720">
        <ele>6.5</ele>
        <time>2021-05-18T12:57:32Z</time>
      </trkpt>
      <trkpt lat="41.8752840" lon="-8.8389710">
        <ele>6.5</ele>
        <time>2021-05-18T12:57:33Z</time>
      </trkpt>
      <trkpt lat="41.8752850" lon="-8.8389700">
        <ele>6.5</ele>
        <time>2021-05-18T12:57:34Z</time>
      </trkpt>
      <trkpt lat="41.8752850" lon="-8.8389690">
        <ele>6.5</ele>
        <time>2021-05-18T12:57:35Z</time>
      </trkpt>
      <trkpt lat="41.8752860" lon="-8.8389680">
        <ele>6.5</ele>
        <time>2021-05-18T12:57:36Z</time>
      </trkpt>
      <trkpt lat="41.8752870" lon="-8.8389670">
        <ele>6.5</ele>
        <time>2021-05-18T12:57:37Z</time>
      </trkpt>
      <trkpt lat="41.8752880" lon="-8.8389670">
        <ele>6.5</ele>
        <time>2021-05-18T12:57:38Z</time>
      </trkpt>
      <trkpt lat="41.8752880" lon="-8.8389660">
        <ele>6.5</ele>
        <time>2021-05-18T12:57:39Z</time>
      </trkpt>
      <trkpt lat="41.8752890" lon="-8.8389650">
        <ele>6.5</ele>
        <time>2021-05-18T12:57:40Z</time>
      </trkpt>
      <trkpt lat="41.8752900" lon="-8.8389640">
        <ele>6.5</ele>
        <time>2021-05-18T12:57:41Z</time>
      </trkpt>
      <trkpt lat="41.8752900" lon="-8.8389630">
        <ele>6.5</ele>
        <time>2021-05-18T12:57:42Z</time>
      </trkpt>
      <trkpt lat="41.8752910" lon="-8.8389630">
        <ele>6.5</ele>
        <time>2021-05-18T12:57:43Z</time>
      </trkpt>
      <trkpt lat="41.8752920" lon="-8.8389620">
        <ele>6.5</ele>
        <time>2021-05-18T12:57:44Z</time>
      </trkpt>
      <trkpt lat="41.8752920" lon="-8.8389610">
        <ele>6.5</ele>
        <time>2021-05-18T12:57:45Z</time>
      </trkpt>
      <trkpt lat="41.8752930" lon="-8.8389600">
        <ele>6.5</ele>
        <time>2021-05-18T12:57:46Z</time>
      </trkpt>
      <trkpt lat="41.8752940" lon="-8.8389590">
        <ele>6.5</ele>
        <time>2021-05-18T12:57:47Z</time>
      </trkpt>
      <trkpt lat="41.8752940" lon="-8.8389580">
        <ele>6.5</ele>
        <time>2021-05-18T12:57:48Z</time>
      </trkpt>
      <trkpt lat="41.8752950" lon="-8.8389580">
        <ele>6.5</ele>
        <time>2021-05-18T12:57:49Z</time>
      </trkpt>
      <trkpt lat="41.8752960" lon="-8.8389570">
        <ele>6.5</ele>
        <time>2021-05-18T12:57:50Z</time>
      </trkpt>
      <trkpt lat="41.8752970" lon="-8.8389560">
        <ele>6.5</ele>
        <time>2021-05-18T12:57:51Z</time>
      </trkpt>
      <trkpt lat="41.8752970" lon="-8.8389550">
        <ele>6.5</ele>
        <time>2021-05-18T12:57:52Z</time>
      </trkpt>
      <trkpt lat="41.8752980" lon="-8.8389540">
        <ele>6.5</ele>
        <time>2021-05-18T12:57:53Z</time>
      </trkpt>
      <trkpt lat="41.8752990" lon="-8.8389530">
        <ele>6.5</ele>
        <time>2021-05-18T12:57:54Z</time>
      </trkpt>
      <trkpt lat="41.8752990" lon="-8.8389530">
        <ele>6.5</ele>
        <time>2021-05-18T12:57:55Z</time>
      </trkpt>
      <trkpt lat="41.8753000" lon="-8.8389520">
        <ele>6.5</ele>
        <time>2021-05-18T12:57:56Z</time>
      </trkpt>
      <trkpt lat="41.8753010" lon="-8.8389510">
        <ele>6.5</ele>
        <time>2021-05-18T12:57:57Z</time>
      </trkpt>
      <trkpt lat="41.8753010" lon="-8.8389500">
        <ele>6.5</ele>
        <time>2021-05-18T12:57:58Z</time>
      </trkpt>
      <trkpt lat="41.8753020" lon="-8.8389490">
        <ele>6.5</ele>
        <time>2021-05-18T12:57:59Z</time>
      </trkpt>
      <trkpt lat="41.8753030" lon="-8.8389480">
        <ele>6.5</ele>
        <time>2021-05-18T12:58:00Z</time>
      </trkpt>
      <trkpt lat="41.8753030" lon="-8.8389480">
        <ele>6.5</ele>
        <time>2021-05-18T12:58:01Z</time>
      </trkpt>
      <trkpt lat="41.8753040" lon="-8.8389470">
        <ele>6.5</ele>
        <time>2021-05-18T12:58:02Z</time>
      </trkpt>
      <trkpt lat="41.8753050" lon="-8.8389460">
        <ele>6.5</ele>
        <time>2021-05-18T12:58:03Z</time>
      </trkpt>
      <trkpt lat="41.8753060" lon="-8.8389450">
        <ele>6.5</ele>
        <time>2021-05-18T12:58:04Z</time>
      </trkpt>
      <trkpt lat="41.8753060" lon="-8.8389440">
        <ele>6.5</ele>
        <time>2021-05-18T12:58:05Z</time>
      </trkpt>
      <trkpt lat="41.8753070" lon="-8.8389430">
        <ele>6.5</ele>
        <time>2021-05-18T12:58:06Z</time>
      </trkpt>
      <trkpt lat="41.8753080" lon="-8.8389430">
        <ele>6.5</ele>
        <time>2021-05-18T12:58:07Z</time>
      </trkpt>
      <trkpt lat="41.8753080" lon="-8.8389420">
        <ele>6.5</ele>
        <time>2021-05-18T12:58:08Z</time>
      </trkpt>
      <trkpt lat="41.8753090" lon="-8.8389410">
        <ele>6.5</ele>
        <time>2021-05-18T12:58:09Z</time>
      </trkpt>
      <trkpt lat="41.8753120" lon="-8.8389310">
        <ele>6.5</ele>
        <time>2021-05-18T12:58:10Z</time>
      </trkpt>
      <trkpt lat="41.8753120" lon="-8.8389310">
        <ele>6.5</ele>
        <time>2021-05-18T12:58:11Z</time>
      </trkpt>
      <trkpt lat="41.8753120" lon="-8.8389310">
        <ele>6.5</ele>
        <time>2021-05-18T12:58:12Z</time>
      </trkpt>
      <trkpt lat="41.8753130" lon="-8.8389310">
        <ele>6.4</ele>
        <time>2021-05-18T12:58:13Z</time>
      </trkpt>
      <trkpt lat="41.8753130" lon="-8.8389310">
        <ele>6.4</ele>
        <time>2021-05-18T12:58:14Z</time>
      </trkpt>
      <trkpt lat="41.8753130" lon="-8.8389310">
        <ele>6.4</ele>
        <time>2021-05-18T12:58:15Z</time>
      </trkpt>
      <trkpt lat="41.8753130" lon="-8.8389310">
        <ele>6.4</ele>
        <time>2021-05-18T12:58:16Z</time>
      </trkpt>
      <trkpt lat="41.8753130" lon="-8.8389310">
        <ele>6.4</ele>
        <time>2021-05-18T12:58:17Z</time>
      </trkpt>
      <trkpt lat="41.8753130" lon="-8.8389310">
        <ele>6.4</ele>
        <time>2021-05-18T12:58:18Z</time>
      </trkpt>
      <trkpt lat="41.8753130" lon="-8.8389310">
        <ele>6.4</ele>
        <time>2021-05-18T12:58:19Z</time>
      </trkpt>
      <trkpt lat="41.8753140" lon="-8.8389310">
        <ele>6.4</ele>
        <time>2021-05-18T12:58:20Z</time>
      </trkpt>
      <trkpt lat="41.8753140" lon="-8.8389310">
        <ele>6.4</ele>
        <time>2021-05-18T12:58:21Z</time>
      </trkpt>
      <trkpt lat="41.8753140" lon="-8.8389310">
        <ele>6.4</ele>
        <time>2021-05-18T12:58:22Z</time>
      </trkpt>
      <trkpt lat="41.8753140" lon="-8.8389310">
        <ele>6.4</ele>
        <time>2021-05-18T12:58:23Z</time>
      </trkpt>
      <trkpt lat="41.8753140" lon="-8.8389310">
        <ele>6.4</ele>
        <time>2021-05-18T12:58:24Z</time>
      </trkpt>
      <trkpt lat="41.8753140" lon="-8.8389310">
        <ele>6.4</ele>
        <time>2021-05-18T12:58:25Z</time>
      </trkpt>
      <trkpt lat="41.8753140" lon="-8.8389310">
        <ele>6.4</ele>
        <time>2021-05-18T12:58:26Z</time>
      </trkpt>
      <trkpt lat="41.8753150" lon="-8.8389310">
        <ele>6.4</ele>
        <time>2021-05-18T12:58:27Z</time>
      </trkpt>
      <trkpt lat="41.8753150" lon="-8.8389310">
        <ele>6.4</ele>
        <time>2021-05-18T12:58:28Z</time>
      </trkpt>
      <trkpt lat="41.8753150" lon="-8.8389310">
        <ele>6.4</ele>
        <time>2021-05-18T12:58:29Z</time>
      </trkpt>
      <trkpt lat="41.8753150" lon="-8.8389310">
        <ele>6.4</ele>
        <time>2021-05-18T12:58:30Z</time>
      </trkpt>
      <trkpt lat="41.8753150" lon="-8.8389310">
        <ele>6.4</ele>
        <time>2021-05-18T12:58:31Z</time>
      </trkpt>
      <trkpt lat="41.8753150" lon="-8.8389310">
        <ele>6.4</ele>
        <time>2021-05-18T12:58:32Z</time>
      </trkpt>
      <trkpt lat="41.8753160" lon="-8.8389310">
        <ele>6.4</ele>
        <time>2021-05-18T12:58:33Z</time>
      </trkpt>
      <trkpt lat="41.8753160" lon="-8.8389310">
        <ele>6.4</ele>
        <time>2021-05-18T12:58:34Z</time>
      </trkpt>
      <trkpt lat="41.8753160" lon="-8.8389310">
        <ele>6.4</ele>
        <time>2021-05-18T12:58:35Z</time>
      </trkpt>
      <trkpt lat="41.8753160" lon="-8.8389310">
        <ele>6.4</ele>
        <time>2021-05-18T12:58:36Z</time>
      </trkpt>
      <trkpt lat="41.8753160" lon="-8.8389310">
        <ele>6.4</ele>
        <time>2021-05-18T12:58:37Z</time>
      </trkpt>
      <trkpt lat="41.8753160" lon="-8.8389310">
        <ele>6.4</ele>
        <time>2021-05-18T12:58:38Z</time>
      </trkpt>
      <trkpt lat="41.8753160" lon="-8.8389310">
        <ele>6.4</ele>
        <time>2021-05-18T12:58:39Z</time>
      </trkpt>
      <trkpt lat="41.8753170" lon="-8.8389310">
        <ele>6.4</ele>
        <time>2021-05-18T12:58:40Z</time>
      </trkpt>
      <trkpt lat="41.8753170" lon="-8.8389310">
        <ele>6.4</ele>
        <time>2021-05-18T12:58:41Z</time>
      </trkpt>
      <trkpt lat="41.8753170" lon="-8.8389310">
        <ele>6.4</ele>
        <time>2021-05-18T12:58:42Z</time>
      </trkpt>
      <trkpt lat="41.8753170" lon="-8.8389310">
        <ele>6.4</ele>
        <time>2021-05-18T12:58:43Z</time>
      </trkpt>
      <trkpt lat="41.8753170" lon="-8.8389310">
        <ele>6.4</ele>
        <time>2021-05-18T12:58:44Z</time>
      </trkpt>
      <trkpt lat="41.8753170" lon="-8.8389310">
        <ele>6.4</ele>
        <time>2021-05-18T12:58:45Z</time>
      </trkpt>
      <trkpt lat="41.8753170" lon="-8.8389310">
        <ele>6.4</ele>
        <time>2021-05-18T12:58:46Z</time>
      </trkpt>
      <trkpt lat="41.8753180" lon="-8.8389310">
        <ele>6.4</ele>
        <time>2021-05-18T12:58:47Z</time>
      </trkpt>
      <trkpt lat="41.8753180" lon="-8.8389310">
        <ele>6.4</ele>
        <time>2021-05-18T12:58:48Z</time>
      </trkpt>
      <trkpt lat="41.8753180" lon="-8.8389310">
        <ele>6.4</ele>
        <time>2021-05-18T12:58:49Z</time>
      </trkpt>
      <trkpt lat="41.8753180" lon="-8.8389310">
        <ele>6.4</ele>
        <time>2021-05-18T12:58:50Z</time>
      </trkpt>
      <trkpt lat="41.8753180" lon="-8.8389310">
        <ele>6.4</ele>
        <time>2021-05-18T12:58:51Z</time>
      </trkpt>
      <trkpt lat="41.8753180" lon="-8.8389310">
        <ele>6.4</ele>
        <time>2021-05-18T12:58:52Z</time>
      </trkpt>
      <trkpt lat="41.8753180" lon="-8.8389310">
        <ele>6.4</ele>
        <time>2021-05-18T12:58:53Z</time>
      </trkpt>
      <trkpt lat="41.8753190" lon="-8.8389310">
        <ele>6.4</ele>
        <time>2021-05-18T12:58:54Z</time>
      </trkpt>
      <trkpt lat="41.8753190" lon="-8.8389310">
        <ele>6.4</ele>
        <time>2021-05-18T12:58:55Z</time>
      </trkpt>
      <trkpt lat="41.8753190" lon="-8.8389310">
        <ele>6.4</ele>
        <time>2021-05-18T12:58:56Z</time>
      </trkpt>
      <trkpt lat="41.8753190" lon="-8.8389310">
        <ele>6.4</ele>
        <time>2021-05-18T12:58:57Z</time>
      </trkpt>
      <trkpt lat="41.8753190" lon="-8.8389310">
        <ele>6.4</ele>
        <time>2021-05-18T12:58:58Z</time>
      </trkpt>
      <trkpt lat="41.8753190" lon="-8.8389310">
        <ele>6.4</ele>
        <time>2021-05-18T12:58:59Z</time>
      </trkpt>
      <trkpt lat="41.8753190" lon="-8.8389310">
        <ele>6.4</ele>
        <time>2021-05-18T12:59:00Z</time>
      </trkpt>
      <trkpt lat="41.8753200" lon="-8.8389310">
        <ele>6.4</ele>
        <time>2021-05-18T12:59:01Z</time>
      </trkpt>
      <trkpt lat="41.8753200" lon="-8.8389310">
        <ele>6.4</ele>
        <time>2021-05-18T12:59:02Z</time>
      </trkpt>
      <trkpt lat="41.8753200" lon="-8.8389310">
        <ele>6.4</ele>
        <time>2021-05-18T12:59:03Z</time>
      </trkpt>
      <trkpt lat="41.8753200" lon="-8.8389310">
        <ele>6.4</ele>
        <time>2021-05-18T12:59:04Z</time>
      </trkpt>
      <trkpt lat="41.8753200" lon="-8.8389310">
        <ele>6.4</ele>
        <time>2021-05-18T12:59:05Z</time>
      </trkpt>
      <trkpt lat="41.8753200" lon="-8.8389300">
        <ele>6.5</ele>
        <time>2021-05-18T12:59:06Z</time>
      </trkpt>
      <trkpt lat="41.8753210" lon="-8.8389300">
        <ele>6.5</ele>
        <time>2021-05-18T12:59:07Z</time>
      </trkpt>
      <trkpt lat="41.8753210" lon="-8.8389300">
        <ele>6.5</ele>
        <time>2021-05-18T12:59:08Z</time>
      </trkpt>
      <trkpt lat="41.8753210" lon="-8.8389300">
        <ele>6.5</ele>
        <time>2021-05-18T12:59:09Z</time>
      </trkpt>
      <trkpt lat="41.8753210" lon="-8.8389300">
        <ele>6.5</ele>
        <time>2021-05-18T12:59:10Z</time>
      </trkpt>
      <trkpt lat="41.8753210" lon="-8.8389300">
        <ele>6.5</ele>
        <time>2021-05-18T12:59:11Z</time>
      </trkpt>
      <trkpt lat="41.8753210" lon="-8.8389300">
        <ele>6.5</ele>
        <time>2021-05-18T12:59:12Z</time>
      </trkpt>
      <trkpt lat="41.8753210" lon="-8.8389300">
        <ele>6.5</ele>
        <time>2021-05-18T12:59:13Z</time>
      </trkpt>
      <trkpt lat="41.8753220" lon="-8.8389300">
        <ele>6.5</ele>
        <time>2021-05-18T12:59:14Z</time>
      </trkpt>
      <trkpt lat="41.8753220" lon="-8.8389300">
        <ele>6.5</ele>
        <time>2021-05-18T12:59:15Z</time>
      </trkpt>
      <trkpt lat="41.8753220" lon="-8.8389300">
        <ele>6.5</ele>
        <time>2021-05-18T12:59:16Z</time>
      </trkpt>
      <trkpt lat="41.8753220" lon="-8.8389300">
        <ele>6.5</ele>
        <time>2021-05-18T12:59:17Z</time>
      </trkpt>
      <trkpt lat="41.8753220" lon="-8.8389300">
        <ele>6.5</ele>
        <time>2021-05-18T12:59:18Z</time>
      </trkpt>
      <trkpt lat="41.8753220" lon="-8.8389300">
        <ele>6.5</ele>
        <time>2021-05-18T12:59:19Z</time>
      </trkpt>
      <trkpt lat="41.8753220" lon="-8.8389300">
        <ele>6.5</ele>
        <time>2021-05-18T12:59:20Z</time>
      </trkpt>
      <trkpt lat="41.8753230" lon="-8.8389300">
        <ele>6.5</ele>
        <time>2021-05-18T12:59:21Z</time>
      </trkpt>
      <trkpt lat="41.8753230" lon="-8.8389300">
        <ele>6.5</ele>
        <time>2021-05-18T12:59:22Z</time>
      </trkpt>
      <trkpt lat="41.8753230" lon="-8.8389300">
        <ele>6.5</ele>
        <time>2021-05-18T12:59:23Z</time>
      </trkpt>
      <trkpt lat="41.8753230" lon="-8.8389300">
        <ele>6.5</ele>
        <time>2021-05-18T12:59:24Z</time>
      </trkpt>
      <trkpt lat="41.8753230" lon="-8.8389300">
        <ele>6.5</ele>
        <time>2021-05-18T12:59:25Z</time>
      </trkpt>
      <trkpt lat="41.8753230" lon="-8.8389300">
        <ele>6.5</ele>
        <time>2021-05-18T12:59:26Z</time>
      </trkpt>
      <trkpt lat="41.8753230" lon="-8.8389300">
        <ele>6.5</ele>
        <time>2021-05-18T12:59:27Z</time>
      </trkpt>
      <trkpt lat="41.8753240" lon="-8.8389300">
        <ele>6.5</ele>
        <time>2021-05-18T12:59:28Z</time>
      </trkpt>
      <trkpt lat="41.8753240" lon="-8.8389300">
        <ele>6.5</ele>
        <time>2021-05-18T12:59:29Z</time>
      </trkpt>
      <trkpt lat="41.8753240" lon="-8.8389300">
        <ele>6.5</ele>
        <time>2021-05-18T12:59:30Z</time>
      </trkpt>
      <trkpt lat="41.8753240" lon="-8.8389300">
        <ele>6.5</ele>
        <time>2021-05-18T12:59:31Z</time>
      </trkpt>
      <trkpt lat="41.8753240" lon="-8.8389300">
        <ele>6.5</ele>
        <time>2021-05-18T12:59:32Z</time>
      </trkpt>
      <trkpt lat="41.8753240" lon="-8.8389300">
        <ele>6.5</ele>
        <time>2021-05-18T12:59:33Z</time>
      </trkpt>
      <trkpt lat="41.8753240" lon="-8.8389300">
        <ele>6.5</ele>
        <time>2021-05-18T12:59:34Z</time>
      </trkpt>
      <trkpt lat="41.8753250" lon="-8.8389300">
        <ele>6.5</ele>
        <time>2021-05-18T12:59:35Z</time>
      </trkpt>
      <trkpt lat="41.8753250" lon="-8.8389300">
        <ele>6.5</ele>
        <time>2021-05-18T12:59:36Z</time>
      </trkpt>
      <trkpt lat="41.8753250" lon="-8.8389300">
        <ele>6.5</ele>
        <time>2021-05-18T12:59:37Z</time>
      </trkpt>
      <trkpt lat="41.8753250" lon="-8.8389300">
        <ele>6.5</ele>
        <time>2021-05-18T12:59:38Z</time>
      </trkpt>
      <trkpt lat="41.8753250" lon="-8.8389300">
        <ele>6.5</ele>
        <time>2021-05-18T12:59:39Z</time>
      </trkpt>
      <trkpt lat="41.8753250" lon="-8.8389300">
        <ele>6.5</ele>
        <time>2021-05-18T12:59:40Z</time>
      </trkpt>
      <trkpt lat="41.8753250" lon="-8.8389300">
        <ele>6.5</ele>
        <time>2021-05-18T12:59:41Z</time>
      </trkpt>
      <trkpt lat="41.8753260" lon="-8.8389300">
        <ele>6.5</ele>
        <time>2021-05-18T12:59:42Z</time>
      </trkpt>
      <trkpt lat="41.8753260" lon="-8.8389300">
        <ele>6.5</ele>
        <time>2021-05-18T12:59:43Z</time>
      </trkpt>
      <trkpt lat="41.8753260" lon="-8.8389300">
        <ele>6.5</ele>
        <time>2021-05-18T12:59:44Z</time>
      </trkpt>
      <trkpt lat="41.8753260" lon="-8.8389300">
        <ele>6.5</ele>
        <time>2021-05-18T12:59:45Z</time>
      </trkpt>
      <trkpt lat="41.8753260" lon="-8.8389300">
        <ele>6.5</ele>
        <time>2021-05-18T12:59:46Z</time>
      </trkpt>
      <trkpt lat="41.8753260" lon="-8.8389300">
        <ele>6.5</ele>
        <time>2021-05-18T12:59:47Z</time>
      </trkpt>
      <trkpt lat="41.8753270" lon="-8.8389300">
        <ele>6.5</ele>
        <time>2021-05-18T12:59:48Z</time>
      </trkpt>
      <trkpt lat="41.8753270" lon="-8.8389300">
        <ele>6.5</ele>
        <time>2021-05-18T12:59:49Z</time>
      </trkpt>
      <trkpt lat="41.8753270" lon="-8.8389300">
        <ele>6.5</ele>
        <time>2021-05-18T12:59:50Z</time>
      </trkpt>
      <trkpt lat="41.8753270" lon="-8.8389300">
        <ele>6.5</ele>
        <time>2021-05-18T12:59:51Z</time>
      </trkpt>
      <trkpt lat="41.8753270" lon="-8.8389300">
        <ele>6.5</ele>
        <time>2021-05-18T12:59:52Z</time>
      </trkpt>
      <trkpt lat="41.8753270" lon="-8.8389300">
        <ele>6.5</ele>
        <time>2021-05-18T12:59:53Z</time>
      </trkpt>
      <trkpt lat="41.8753270" lon="-8.8389300">
        <ele>6.5</ele>
        <time>2021-05-18T12:59:54Z</time>
      </trkpt>
      <trkpt lat="41.8753280" lon="-8.8389300">
        <ele>6.5</ele>
        <time>2021-05-18T12:59:55Z</time>
      </trkpt>
      <trkpt lat="41.8753280" lon="-8.8389300">
        <ele>6.5</ele>
        <time>2021-05-18T12:59:56Z</time>
      </trkpt>
      <trkpt lat="41.8753280" lon="-8.8389300">
        <ele>6.5</ele>
        <time>2021-05-18T12:59:57Z</time>
      </trkpt>
      <trkpt lat="41.8753280" lon="-8.8389300">
        <ele>6.5</ele>
        <time>2021-05-18T12:59:58Z</time>
      </trkpt>
      <trkpt lat="41.8753280" lon="-8.8389300">
        <ele>6.5</ele>
        <time>2021-05-18T12:59:59Z</time>
      </trkpt>
      <trkpt lat="41.8753280" lon="-8.8389300">
        <ele>6.5</ele>
        <time>2021-05-18T13:00:00Z</time>
      </trkpt>
      <trkpt lat="41.8753280" lon="-8.8389300">
        <ele>6.5</ele>
        <time>2021-05-18T13:00:01Z</time>
      </trkpt>
      <trkpt lat="41.8753290" lon="-8.8389300">
        <ele>6.5</ele>
        <time>2021-05-18T13:00:02Z</time>
      </trkpt>
      <trkpt lat="41.8753290" lon="-8.8389300">
        <ele>6.5</ele>
        <time>2021-05-18T13:00:03Z</time>
      </trkpt>
      <trkpt lat="41.8753290" lon="-8.8389300">
        <ele>6.5</ele>
        <time>2021-05-18T13:00:04Z</time>
      </trkpt>
      <trkpt lat="41.8753290" lon="-8.8389300">
        <ele>6.5</ele>
        <time>2021-05-18T13:00:05Z</time>
      </trkpt>
      <trkpt lat="41.8753290" lon="-8.8389300">
        <ele>6.5</ele>
        <time>2021-05-18T13:00:06Z</time>
      </trkpt>
      <trkpt lat="41.8753290" lon="-8.8389300">
        <ele>6.5</ele>
        <time>2021-05-18T13:00:07Z</time>
      </trkpt>
      <trkpt lat="41.8753290" lon="-8.8389300">
        <ele>6.5</ele>
        <time>2021-05-18T13:00:08Z</time>
      </trkpt>
      <trkpt lat="41.8753300" lon="-8.8389300">
        <ele>6.5</ele>
        <time>2021-05-18T13:00:09Z</time>
      </trkpt>
      <trkpt lat="41.8753300" lon="-8.8389300">
        <ele>6.5</ele>
        <time>2021-05-18T13:00:10Z</time>
      </trkpt>
      <trkpt lat="41.8753300" lon="-8.8389300">
        <ele>6.5</ele>
        <time>2021-05-18T13:00:11Z</time>
      </trkpt>
      <trkpt lat="41.8753300" lon="-8.8389300">
        <ele>6.5</ele>
        <time>2021-05-18T13:00:12Z</time>
      </trkpt>
      <trkpt lat="41.8753300" lon="-8.8389300">
        <ele>6.5</ele>
        <time>2021-05-18T13:00:13Z</time>
      </trkpt>
      <trkpt lat="41.8753300" lon="-8.8389300">
        <ele>6.5</ele>
        <time>2021-05-18T13:00:14Z</time>
      </trkpt>
      <trkpt lat="41.8753300" lon="-8.8389300">
        <ele>6.5</ele>
        <time>2021-05-18T13:00:15Z</time>
      </trkpt>
      <trkpt lat="41.8753310" lon="-8.8389300">
        <ele>6.5</ele>
        <time>2021-05-18T13:00:16Z</time>
      </trkpt>
      <trkpt lat="41.8753310" lon="-8.8389300">
        <ele>6.5</ele>
        <time>2021-05-18T13:00:17Z</time>
      </trkpt>
      <trkpt lat="41.8753310" lon="-8.8389300">
        <ele>6.5</ele>
        <time>2021-05-18T13:00:18Z</time>
      </trkpt>
      <trkpt lat="41.8753310" lon="-8.8389300">
        <ele>6.5</ele>
        <time>2021-05-18T13:00:19Z</time>
      </trkpt>
      <trkpt lat="41.8753310" lon="-8.8389300">
        <ele>6.5</ele>
        <time>2021-05-18T13:00:20Z</time>
      </trkpt>
      <trkpt lat="41.8753310" lon="-8.8389300">
        <ele>6.5</ele>
        <time>2021-05-18T13:00:21Z</time>
      </trkpt>
      <trkpt lat="41.8753320" lon="-8.8389300">
        <ele>6.5</ele>
        <time>2021-05-18T13:00:22Z</time>
      </trkpt>
      <trkpt lat="41.8753320" lon="-8.8389300">
        <ele>6.5</ele>
        <time>2021-05-18T13:00:23Z</time>
      </trkpt>
      <trkpt lat="41.8753320" lon="-8.8389300">
        <ele>6.5</ele>
        <time>2021-05-18T13:00:24Z</time>
      </trkpt>
      <trkpt lat="41.8753320" lon="-8.8389300">
        <ele>6.5</ele>
        <time>2021-05-18T13:00:25Z</time>
      </trkpt>
      <trkpt lat="41.8753320" lon="-8.8389300">
        <ele>6.5</ele>
        <time>2021-05-18T13:00:26Z</time>
      </trkpt>
      <trkpt lat="41.8753320" lon="-8.8389300">
        <ele>6.5</ele>
        <time>2021-05-18T13:00:27Z</time>
      </trkpt>
      <trkpt lat="41.8753320" lon="-8.8389300">
        <ele>6.5</ele>
        <time>2021-05-18T13:00:28Z</time>
      </trkpt>
      <trkpt lat="41.8753330" lon="-8.8389300">
        <ele>6.5</ele>
        <time>2021-05-18T13:00:29Z</time>
      </trkpt>
      <trkpt lat="41.8753330" lon="-8.8389300">
        <ele>6.5</ele>
        <time>2021-05-18T13:00:30Z</time>
      </trkpt>
      <trkpt lat="41.8753330" lon="-8.8389300">
        <ele>6.5</ele>
        <time>2021-05-18T13:00:31Z</time>
      </trkpt>
      <trkpt lat="41.8753330" lon="-8.8389300">
        <ele>6.5</ele>
        <time>2021-05-18T13:00:32Z</time>
      </trkpt>
      <trkpt lat="41.8753330" lon="-8.8389300">
        <ele>6.5</ele>
        <time>2021-05-18T13:00:33Z</time>
      </trkpt>
      <trkpt lat="41.8753330" lon="-8.8389300">
        <ele>6.5</ele>
        <time>2021-05-18T13:00:34Z</time>
      </trkpt>
      <trkpt lat="41.8753330" lon="-8.8389300">
        <ele>6.5</ele>
        <time>2021-05-18T13:00:35Z</time>
      </trkpt>
      <trkpt lat="41.8753340" lon="-8.8389300">
        <ele>6.5</ele>
        <time>2021-05-18T13:00:36Z</time>
      </trkpt>
      <trkpt lat="41.8753340" lon="-8.8389300">
        <ele>6.5</ele>
        <time>2021-05-18T13:00:37Z</time>
      </trkpt>
      <trkpt lat="41.8753340" lon="-8.8389300">
        <ele>6.5</ele>
        <time>2021-05-18T13:00:38Z</time>
      </trkpt>
      <trkpt lat="41.8753340" lon="-8.8389300">
        <ele>6.5</ele>
        <time>2021-05-18T13:00:39Z</time>
      </trkpt>
      <trkpt lat="41.8753340" lon="-8.8389300">
        <ele>6.5</ele>
        <time>2021-05-18T13:00:40Z</time>
      </trkpt>
      <trkpt lat="41.8753340" lon="-8.8389300">
        <ele>6.5</ele>
        <time>2021-05-18T13:00:41Z</time>
      </trkpt>
      <trkpt lat="41.8753340" lon="-8.8389300">
        <ele>6.5</ele>
        <time>2021-05-18T13:00:42Z</time>
      </trkpt>
      <trkpt lat="41.8753350" lon="-8.8389300">
        <ele>6.5</ele>
        <time>2021-05-18T13:00:43Z</time>
      </trkpt>
      <trkpt lat="41.8753350" lon="-8.8389300">
        <ele>6.5</ele>
        <time>2021-05-18T13:00:44Z</time>
      </trkpt>
      <trkpt lat="41.8753350" lon="-8.8389300">
        <ele>6.5</ele>
        <time>2021-05-18T13:00:45Z</time>
      </trkpt>
      <trkpt lat="41.8753350" lon="-8.8389300">
        <ele>6.5</ele>
        <time>2021-05-18T13:00:46Z</time>
      </trkpt>
      <trkpt lat="41.8753350" lon="-8.8389300">
        <ele>6.5</ele>
        <time>2021-05-18T13:00:47Z</time>
      </trkpt>
      <trkpt lat="41.8753350" lon="-8.8389300">
        <ele>6.5</ele>
        <time>2021-05-18T13:00:48Z</time>
      </trkpt>
      <trkpt lat="41.8753350" lon="-8.8389300">
        <ele>6.5</ele>
        <time>2021-05-18T13:00:49Z</time>
      </trkpt>
      <trkpt lat="41.8753360" lon="-8.8389300">
        <ele>6.5</ele>
        <time>2021-05-18T13:00:50Z</time>
      </trkpt>
      <trkpt lat="41.8753360" lon="-8.8389300">
        <ele>6.5</ele>
        <time>2021-05-18T13:00:51Z</time>
      </trkpt>
      <trkpt lat="41.8753360" lon="-8.8389300">
        <ele>6.5</ele>
        <time>2021-05-18T13:00:52Z</time>
      </trkpt>
      <trkpt lat="41.8753360" lon="-8.8389300">
        <ele>6.5</ele>
        <time>2021-05-18T13:00:53Z</time>
      </trkpt>
      <trkpt lat="41.8753360" lon="-8.8389300">
        <ele>6.5</ele>
        <time>2021-05-18T13:00:54Z</time>
      </trkpt>
      <trkpt lat="41.8753360" lon="-8.8389300">
        <ele>6.5</ele>
        <time>2021-05-18T13:00:55Z</time>
      </trkpt>
      <trkpt lat="41.8753360" lon="-8.8389300">
        <ele>6.5</ele>
        <time>2021-05-18T13:00:56Z</time>
      </trkpt>
      <trkpt lat="41.8753370" lon="-8.8389300">
        <ele>6.5</ele>
        <time>2021-05-18T13:00:57Z</time>
      </trkpt>
      <trkpt lat="41.8753370" lon="-8.8389290">
        <ele>6.5</ele>
        <time>2021-05-18T13:00:58Z</time>
      </trkpt>
      <trkpt lat="41.8753370" lon="-8.8389290">
        <ele>6.5</ele>
        <time>2021-05-18T13:00:59Z</time>
      </trkpt>
      <trkpt lat="41.8753370" lon="-8.8389290">
        <ele>6.5</ele>
        <time>2021-05-18T13:01:00Z</time>
      </trkpt>
      <trkpt lat="41.8753370" lon="-8.8389290">
        <ele>6.5</ele>
        <time>2021-05-18T13:01:01Z</time>
      </trkpt>
      <trkpt lat="41.8753370" lon="-8.8389290">
        <ele>6.5</ele>
        <time>2021-05-18T13:01:02Z</time>
      </trkpt>
      <trkpt lat="41.8753380" lon="-8.8389290">
        <ele>6.5</ele>
        <time>2021-05-18T13:01:03Z</time>
      </trkpt>
      <trkpt lat="41.8753380" lon="-8.8389290">
        <ele>6.5</ele>
        <time>2021-05-18T13:01:04Z</time>
      </trkpt>
      <trkpt lat="41.8753380" lon="-8.8389290">
        <ele>6.5</ele>
        <time>2021-05-18T13:01:05Z</time>
      </trkpt>
      <trkpt lat="41.8753380" lon="-8.8389290">
        <ele>6.5</ele>
        <time>2021-05-18T13:01:06Z</time>
      </trkpt>
      <trkpt lat="41.8753380" lon="-8.8389290">
        <ele>6.5</ele>
        <time>2021-05-18T13:01:07Z</time>
      </trkpt>
      <trkpt lat="41.8753380" lon="-8.8389290">
        <ele>6.5</ele>
        <time>2021-05-18T13:01:08Z</time>
      </trkpt>
      <trkpt lat="41.8753380" lon="-8.8389290">
        <ele>6.5</ele>
        <time>2021-05-18T13:01:09Z</time>
      </trkpt>
      <trkpt lat="41.8753390" lon="-8.8389290">
        <ele>6.5</ele>
        <time>2021-05-18T13:01:10Z</time>
      </trkpt>
      <trkpt lat="41.8753390" lon="-8.8389290">
        <ele>6.5</ele>
        <time>2021-05-18T13:01:11Z</time>
      </trkpt>
      <trkpt lat="41.8753390" lon="-8.8389290">
        <ele>6.5</ele>
        <time>2021-05-18T13:01:12Z</time>
      </trkpt>
      <trkpt lat="41.8753390" lon="-8.8389290">
        <ele>6.5</ele>
        <time>2021-05-18T13:01:13Z</time>
      </trkpt>
      <trkpt lat="41.8753390" lon="-8.8389290">
        <ele>6.5</ele>
        <time>2021-05-18T13:01:14Z</time>
      </trkpt>
      <trkpt lat="41.8753390" lon="-8.8389290">
        <ele>6.5</ele>
        <time>2021-05-18T13:01:15Z</time>
      </trkpt>
      <trkpt lat="41.8753390" lon="-8.8389290">
        <ele>6.5</ele>
        <time>2021-05-18T13:01:16Z</time>
      </trkpt>
      <trkpt lat="41.8753400" lon="-8.8389290">
        <ele>6.5</ele>
        <time>2021-05-18T13:01:17Z</time>
      </trkpt>
      <trkpt lat="41.8753400" lon="-8.8389290">
        <ele>6.5</ele>
        <time>2021-05-18T13:01:18Z</time>
      </trkpt>
      <trkpt lat="41.8753400" lon="-8.8389290">
        <ele>6.5</ele>
        <time>2021-05-18T13:01:19Z</time>
      </trkpt>
      <trkpt lat="41.8753400" lon="-8.8389290">
        <ele>6.5</ele>
        <time>2021-05-18T13:01:20Z</time>
      </trkpt>
      <trkpt lat="41.8753400" lon="-8.8389290">
        <ele>6.5</ele>
        <time>2021-05-18T13:01:21Z</time>
      </trkpt>
      <trkpt lat="41.8753400" lon="-8.8389290">
        <ele>6.5</ele>
        <time>2021-05-18T13:01:22Z</time>
      </trkpt>
      <trkpt lat="41.8753400" lon="-8.8389290">
        <ele>6.5</ele>
        <time>2021-05-18T13:01:23Z</time>
      </trkpt>
      <trkpt lat="41.8753410" lon="-8.8389290">
        <ele>6.5</ele>
        <time>2021-05-18T13:01:24Z</time>
      </trkpt>
      <trkpt lat="41.8753410" lon="-8.8389290">
        <ele>6.5</ele>
        <time>2021-05-18T13:01:25Z</time>
      </trkpt>
      <trkpt lat="41.8753410" lon="-8.8389290">
        <ele>6.5</ele>
        <time>2021-05-18T13:01:26Z</time>
      </trkpt>
      <trkpt lat="41.8753410" lon="-8.8389290">
        <ele>6.5</ele>
        <time>2021-05-18T13:01:27Z</time>
      </trkpt>
      <trkpt lat="41.8753410" lon="-8.8389290">
        <ele>6.5</ele>
        <time>2021-05-18T13:01:28Z</time>
      </trkpt>
      <trkpt lat="41.8753410" lon="-8.8389290">
        <ele>6.5</ele>
        <time>2021-05-18T13:01:29Z</time>
      </trkpt>
      <trkpt lat="41.8753410" lon="-8.8389290">
        <ele>6.5</ele>
        <time>2021-05-18T13:01:30Z</time>
      </trkpt>
      <trkpt lat="41.8753420" lon="-8.8389290">
        <ele>6.5</ele>
        <time>2021-05-18T13:01:31Z</time>
      </trkpt>
      <trkpt lat="41.8753420" lon="-8.8389290">
        <ele>6.6</ele>
        <time>2021-05-18T13:01:32Z</time>
      </trkpt>
      <trkpt lat="41.8753420" lon="-8.8389290">
        <ele>6.6</ele>
        <time>2021-05-18T13:01:33Z</time>
      </trkpt>
      <trkpt lat="41.8753420" lon="-8.8389290">
        <ele>6.6</ele>
        <time>2021-05-18T13:01:34Z</time>
      </trkpt>
      <trkpt lat="41.8753420" lon="-8.8389290">
        <ele>6.6</ele>
        <time>2021-05-18T13:01:35Z</time>
      </trkpt>
      <trkpt lat="41.8753420" lon="-8.8389290">
        <ele>6.6</ele>
        <time>2021-05-18T13:01:36Z</time>
      </trkpt>
      <trkpt lat="41.8753430" lon="-8.8389290">
        <ele>6.6</ele>
        <time>2021-05-18T13:01:37Z</time>
      </trkpt>
      <trkpt lat="41.8753430" lon="-8.8389290">
        <ele>6.6</ele>
        <time>2021-05-18T13:01:38Z</time>
      </trkpt>
      <trkpt lat="41.8753430" lon="-8.8389290">
        <ele>6.7</ele>
        <time>2021-05-18T13:01:39Z</time>
      </trkpt>
      <trkpt lat="41.8753430" lon="-8.8389290">
        <ele>6.7</ele>
        <time>2021-05-18T13:01:40Z</time>
      </trkpt>
      <trkpt lat="41.8753430" lon="-8.8389290">
        <ele>6.7</ele>
        <time>2021-05-18T13:01:41Z</time>
      </trkpt>
      <trkpt lat="41.8753430" lon="-8.8389290">
        <ele>6.7</ele>
        <time>2021-05-18T13:01:42Z</time>
      </trkpt>
      <trkpt lat="41.8753430" lon="-8.8389290">
        <ele>6.7</ele>
        <time>2021-05-18T13:01:43Z</time>
      </trkpt>
      <trkpt lat="41.8753440" lon="-8.8389290">
        <ele>6.7</ele>
        <time>2021-05-18T13:01:44Z</time>
      </trkpt>
      <trkpt lat="41.8753440" lon="-8.8389290">
        <ele>6.7</ele>
        <time>2021-05-18T13:01:45Z</time>
      </trkpt>
      <trkpt lat="41.8753440" lon="-8.8389290">
        <ele>6.8</ele>
        <time>2021-05-18T13:01:46Z</time>
      </trkpt>
      <trkpt lat="41.8753440" lon="-8.8389290">
        <ele>6.8</ele>
        <time>2021-05-18T13:01:47Z</time>
      </trkpt>
      <trkpt lat="41.8753440" lon="-8.8389290">
        <ele>6.8</ele>
        <time>2021-05-18T13:01:48Z</time>
      </trkpt>
      <trkpt lat="41.8753440" lon="-8.8389290">
        <ele>6.8</ele>
        <time>2021-05-18T13:01:49Z</time>
      </trkpt>
      <trkpt lat="41.8753440" lon="-8.8389290">
        <ele>6.8</ele>
        <time>2021-05-18T13:01:50Z</time>
      </trkpt>
      <trkpt lat="41.8753450" lon="-8.8389290">
        <ele>6.7</ele>
        <time>2021-05-18T13:01:51Z</time>
      </trkpt>
      <trkpt lat="41.8753450" lon="-8.8389290">
        <ele>6.8</ele>
        <time>2021-05-18T13:01:52Z</time>
      </trkpt>
      <trkpt lat="41.8753450" lon="-8.8389290">
        <ele>6.8</ele>
        <time>2021-05-18T13:01:53Z</time>
      </trkpt>
      <trkpt lat="41.8753450" lon="-8.8389290">
        <ele>6.8</ele>
        <time>2021-05-18T13:01:54Z</time>
      </trkpt>
      <trkpt lat="41.8753450" lon="-8.8389290">
        <ele>6.8</ele>
        <time>2021-05-18T13:01:55Z</time>
      </trkpt>
      <trkpt lat="41.8753460" lon="-8.8389300">
        <ele>6.8</ele>
        <time>2021-05-18T13:01:56Z</time>
      </trkpt>
      <trkpt lat="41.8753470" lon="-8.8389290">
        <ele>6.8</ele>
        <time>2021-05-18T13:01:57Z</time>
      </trkpt>
      <trkpt lat="41.8753480" lon="-8.8389290">
        <ele>6.9</ele>
        <time>2021-05-18T13:01:58Z</time>
      </trkpt>
      <trkpt lat="41.8753480" lon="-8.8389290">
        <ele>6.9</ele>
        <time>2021-05-18T13:01:59Z</time>
      </trkpt>
      <trkpt lat="41.8753480" lon="-8.8389290">
        <ele>6.9</ele>
        <time>2021-05-18T13:02:00Z</time>
      </trkpt>
      <trkpt lat="41.8753480" lon="-8.8389290">
        <ele>6.9</ele>
        <time>2021-05-18T13:02:01Z</time>
      </trkpt>
      <trkpt lat="41.8753480" lon="-8.8389290">
        <ele>6.9</ele>
        <time>2021-05-18T13:02:02Z</time>
      </trkpt>
      <trkpt lat="41.8753480" lon="-8.8389290">
        <ele>6.9</ele>
        <time>2021-05-18T13:02:03Z</time>
      </trkpt>
      <trkpt lat="41.8753480" lon="-8.8389290">
        <ele>6.9</ele>
        <time>2021-05-18T13:02:04Z</time>
      </trkpt>
      <trkpt lat="41.8753480" lon="-8.8389290">
        <ele>7.0</ele>
        <time>2021-05-18T13:02:05Z</time>
      </trkpt>
      <trkpt lat="41.8753480" lon="-8.8389290">
        <ele>7.0</ele>
        <time>2021-05-18T13:02:06Z</time>
      </trkpt>
      <trkpt lat="41.8753480" lon="-8.8389290">
        <ele>7.0</ele>
        <time>2021-05-18T13:02:07Z</time>
      </trkpt>
      <trkpt lat="41.8753480" lon="-8.8389290">
        <ele>7.0</ele>
        <time>2021-05-18T13:02:08Z</time>
      </trkpt>
      <trkpt lat="41.8753480" lon="-8.8389290">
        <ele>7.0</ele>
        <time>2021-05-18T13:02:09Z</time>
      </trkpt>
      <trkpt lat="41.8753480" lon="-8.8389290">
        <ele>7.0</ele>
        <time>2021-05-18T13:02:10Z</time>
      </trkpt>
      <trkpt lat="41.8753620" lon="-8.8389230">
        <ele>7.0</ele>
        <time>2021-05-18T13:02:11Z</time>
      </trkpt>
      <trkpt lat="41.8753620" lon="-8.8389230">
        <ele>7.1</ele>
        <time>2021-05-18T13:02:12Z</time>
      </trkpt>
      <trkpt lat="41.8753620" lon="-8.8389230">
        <ele>7.1</ele>
        <time>2021-05-18T13:02:13Z</time>
      </trkpt>
      <trkpt lat="41.8753620" lon="-8.8389240">
        <ele>7.1</ele>
        <time>2021-05-18T13:02:14Z</time>
      </trkpt>
      <trkpt lat="41.8753620" lon="-8.8389240">
        <ele>7.1</ele>
        <time>2021-05-18T13:02:15Z</time>
      </trkpt>
      <trkpt lat="41.8753620" lon="-8.8389240">
        <ele>7.1</ele>
        <time>2021-05-18T13:02:16Z</time>
      </trkpt>
      <trkpt lat="41.8753620" lon="-8.8389240">
        <ele>7.1</ele>
        <time>2021-05-18T13:02:17Z</time>
      </trkpt>
      <trkpt lat="41.8753620" lon="-8.8389240">
        <ele>7.2</ele>
        <time>2021-05-18T13:02:18Z</time>
      </trkpt>
      <trkpt lat="41.8753620" lon="-8.8389240">
        <ele>7.2</ele>
        <time>2021-05-18T13:02:19Z</time>
      </trkpt>
      <trkpt lat="41.8753620" lon="-8.8389240">
        <ele>7.2</ele>
        <time>2021-05-18T13:02:20Z</time>
      </trkpt>
      <trkpt lat="41.8753620" lon="-8.8389240">
        <ele>7.2</ele>
        <time>2021-05-18T13:02:21Z</time>
      </trkpt>
      <trkpt lat="41.8753620" lon="-8.8389240">
        <ele>7.2</ele>
        <time>2021-05-18T13:02:22Z</time>
      </trkpt>
      <trkpt lat="41.8753620" lon="-8.8389240">
        <ele>7.2</ele>
        <time>2021-05-18T13:02:23Z</time>
      </trkpt>
      <trkpt lat="41.8753620" lon="-8.8389240">
        <ele>7.2</ele>
        <time>2021-05-18T13:02:24Z</time>
      </trkpt>
      <trkpt lat="41.8753620" lon="-8.8389240">
        <ele>7.3</ele>
        <time>2021-05-18T13:02:25Z</time>
      </trkpt>
      <trkpt lat="41.8753620" lon="-8.8389240">
        <ele>7.3</ele>
        <time>2021-05-18T13:02:26Z</time>
      </trkpt>
      <trkpt lat="41.8753620" lon="-8.8389240">
        <ele>7.3</ele>
        <time>2021-05-18T13:02:27Z</time>
      </trkpt>
      <trkpt lat="41.8753620" lon="-8.8389240">
        <ele>7.3</ele>
        <time>2021-05-18T13:02:28Z</time>
      </trkpt>
      <trkpt lat="41.8753620" lon="-8.8389240">
        <ele>7.3</ele>
        <time>2021-05-18T13:02:29Z</time>
      </trkpt>
      <trkpt lat="41.8753620" lon="-8.8389240">
        <ele>7.3</ele>
        <time>2021-05-18T13:02:30Z</time>
      </trkpt>
      <trkpt lat="41.8753620" lon="-8.8389240">
        <ele>7.3</ele>
        <time>2021-05-18T13:02:31Z</time>
      </trkpt>
      <trkpt lat="41.8753620" lon="-8.8389240">
        <ele>7.4</ele>
        <time>2021-05-18T13:02:32Z</time>
      </trkpt>
      <trkpt lat="41.8753620" lon="-8.8389240">
        <ele>7.4</ele>
        <time>2021-05-18T13:02:33Z</time>
      </trkpt>
      <trkpt lat="41.8753620" lon="-8.8389240">
        <ele>7.4</ele>
        <time>2021-05-18T13:02:34Z</time>
      </trkpt>
      <trkpt lat="41.8753620" lon="-8.8389240">
        <ele>7.4</ele>
        <time>2021-05-18T13:02:35Z</time>
      </trkpt>
      <trkpt lat="41.8753620" lon="-8.8389240">
        <ele>7.4</ele>
        <time>2021-05-18T13:02:36Z</time>
      </trkpt>
      <trkpt lat="41.8753620" lon="-8.8389240">
        <ele>7.4</ele>
        <time>2021-05-18T13:02:37Z</time>
      </trkpt>
      <trkpt lat="41.8753620" lon="-8.8389240">
        <ele>7.5</ele>
        <time>2021-05-18T13:02:38Z</time>
      </trkpt>
      <trkpt lat="41.8753620" lon="-8.8389240">
        <ele>7.5</ele>
        <time>2021-05-18T13:02:39Z</time>
      </trkpt>
      <trkpt lat="41.8753620" lon="-8.8389240">
        <ele>7.5</ele>
        <time>2021-05-18T13:02:40Z</time>
      </trkpt>
      <trkpt lat="41.8753620" lon="-8.8389240">
        <ele>7.5</ele>
        <time>2021-05-18T13:02:41Z</time>
      </trkpt>
      <trkpt lat="41.8753620" lon="-8.8389240">
        <ele>7.5</ele>
        <time>2021-05-18T13:02:42Z</time>
      </trkpt>
      <trkpt lat="41.8753620" lon="-8.8389240">
        <ele>7.5</ele>
        <time>2021-05-18T13:02:43Z</time>
      </trkpt>
      <trkpt lat="41.8753620" lon="-8.8389240">
        <ele>7.5</ele>
        <time>2021-05-18T13:02:44Z</time>
      </trkpt>
      <trkpt lat="41.8753620" lon="-8.8389240">
        <ele>7.6</ele>
        <time>2021-05-18T13:02:45Z</time>
      </trkpt>
      <trkpt lat="41.8753620" lon="-8.8389240">
        <ele>7.6</ele>
        <time>2021-05-18T13:02:46Z</time>
      </trkpt>
      <trkpt lat="41.8753620" lon="-8.8389240">
        <ele>7.6</ele>
        <time>2021-05-18T13:02:47Z</time>
      </trkpt>
      <trkpt lat="41.8753620" lon="-8.8389240">
        <ele>7.6</ele>
        <time>2021-05-18T13:02:48Z</time>
      </trkpt>
      <trkpt lat="41.8753620" lon="-8.8389240">
        <ele>7.6</ele>
        <time>2021-05-18T13:02:49Z</time>
      </trkpt>
      <trkpt lat="41.8753620" lon="-8.8389240">
        <ele>7.6</ele>
        <time>2021-05-18T13:02:50Z</time>
      </trkpt>
      <trkpt lat="41.8753620" lon="-8.8389240">
        <ele>7.6</ele>
        <time>2021-05-18T13:02:51Z</time>
      </trkpt>
      <trkpt lat="41.8753620" lon="-8.8389240">
        <ele>7.7</ele>
        <time>2021-05-18T13:02:52Z</time>
      </trkpt>
      <trkpt lat="41.8753620" lon="-8.8389240">
        <ele>7.7</ele>
        <time>2021-05-18T13:02:53Z</time>
      </trkpt>
      <trkpt lat="41.8753620" lon="-8.8389240">
        <ele>7.7</ele>
        <time>2021-05-18T13:02:54Z</time>
      </trkpt>
      <trkpt lat="41.8753620" lon="-8.8389240">
        <ele>7.7</ele>
        <time>2021-05-18T13:02:55Z</time>
      </trkpt>
      <trkpt lat="41.8753620" lon="-8.8389240">
        <ele>7.7</ele>
        <time>2021-05-18T13:02:56Z</time>
      </trkpt>
      <trkpt lat="41.8753620" lon="-8.8389240">
        <ele>7.7</ele>
        <time>2021-05-18T13:02:57Z</time>
      </trkpt>
      <trkpt lat="41.8753620" lon="-8.8389240">
        <ele>7.8</ele>
        <time>2021-05-18T13:02:58Z</time>
      </trkpt>
      <trkpt lat="41.8753620" lon="-8.8389240">
        <ele>7.8</ele>
        <time>2021-05-18T13:02:59Z</time>
      </trkpt>
      <trkpt lat="41.8753620" lon="-8.8389240">
        <ele>7.8</ele>
        <time>2021-05-18T13:03:00Z</time>
      </trkpt>
      <trkpt lat="41.8753620" lon="-8.8389240">
        <ele>7.8</ele>
        <time>2021-05-18T13:03:01Z</time>
      </trkpt>
      <trkpt lat="41.8753620" lon="-8.8389240">
        <ele>7.8</ele>
        <time>2021-05-18T13:03:02Z</time>
      </trkpt>
      <trkpt lat="41.8753620" lon="-8.8389240">
        <ele>7.8</ele>
        <time>2021-05-18T13:03:03Z</time>
      </trkpt>
      <trkpt lat="41.8753620" lon="-8.8389240">
        <ele>7.8</ele>
        <time>2021-05-18T13:03:04Z</time>
      </trkpt>
      <trkpt lat="41.8753620" lon="-8.8389240">
        <ele>7.9</ele>
        <time>2021-05-18T13:03:05Z</time>
      </trkpt>
      <trkpt lat="41.8753620" lon="-8.8389240">
        <ele>7.9</ele>
        <time>2021-05-18T13:03:06Z</time>
      </trkpt>
      <trkpt lat="41.8753620" lon="-8.8389240">
        <ele>7.9</ele>
        <time>2021-05-18T13:03:07Z</time>
      </trkpt>
      <trkpt lat="41.8753620" lon="-8.8389240">
        <ele>7.9</ele>
        <time>2021-05-18T13:03:08Z</time>
      </trkpt>
      <trkpt lat="41.8753620" lon="-8.8389240">
        <ele>7.9</ele>
        <time>2021-05-18T13:03:09Z</time>
      </trkpt>
      <trkpt lat="41.8753620" lon="-8.8389240">
        <ele>7.9</ele>
        <time>2021-05-18T13:03:10Z</time>
      </trkpt>
      <trkpt lat="41.8753620" lon="-8.8389240">
        <ele>7.9</ele>
        <time>2021-05-18T13:03:11Z</time>
      </trkpt>
      <trkpt lat="41.8753620" lon="-8.8389240">
        <ele>7.9</ele>
        <time>2021-05-18T13:03:12Z</time>
      </trkpt>
      <trkpt lat="41.8753620" lon="-8.8389240">
        <ele>7.9</ele>
        <time>2021-05-18T13:03:13Z</time>
      </trkpt>
      <trkpt lat="41.8753620" lon="-8.8389240">
        <ele>7.9</ele>
        <time>2021-05-18T13:03:14Z</time>
      </trkpt>
      <trkpt lat="41.8753620" lon="-8.8389240">
        <ele>7.9</ele>
        <time>2021-05-18T13:03:15Z</time>
      </trkpt>
      <trkpt lat="41.8753620" lon="-8.8389240">
        <ele>7.9</ele>
        <time>2021-05-18T13:03:16Z</time>
      </trkpt>
      <trkpt lat="41.8753620" lon="-8.8389240">
        <ele>7.9</ele>
        <time>2021-05-18T13:03:17Z</time>
      </trkpt>
      <trkpt lat="41.8753620" lon="-8.8389240">
        <ele>7.9</ele>
        <time>2021-05-18T13:03:18Z</time>
      </trkpt>
      <trkpt lat="41.8753620" lon="-8.8389240">
        <ele>7.9</ele>
        <time>2021-05-18T13:03:19Z</time>
      </trkpt>
      <trkpt lat="41.8753620" lon="-8.8389240">
        <ele>7.9</ele>
        <time>2021-05-18T13:03:20Z</time>
      </trkpt>
      <trkpt lat="41.8753620" lon="-8.8389240">
        <ele>7.9</ele>
        <time>2021-05-18T13:03:21Z</time>
      </trkpt>
      <trkpt lat="41.8753620" lon="-8.8389240">
        <ele>7.9</ele>
        <time>2021-05-18T13:03:22Z</time>
      </trkpt>
      <trkpt lat="41.8753620" lon="-8.8389240">
        <ele>7.9</ele>
        <time>2021-05-18T13:03:23Z</time>
      </trkpt>
      <trkpt lat="41.8753620" lon="-8.8389240">
        <ele>7.9</ele>
        <time>2021-05-18T13:03:24Z</time>
      </trkpt>
      <trkpt lat="41.8753620" lon="-8.8389240">
        <ele>7.9</ele>
        <time>2021-05-18T13:03:25Z</time>
      </trkpt>
      <trkpt lat="41.8753620" lon="-8.8389240">
        <ele>7.9</ele>
        <time>2021-05-18T13:03:26Z</time>
      </trkpt>
      <trkpt lat="41.8753620" lon="-8.8389240">
        <ele>7.9</ele>
        <time>2021-05-18T13:03:27Z</time>
      </trkpt>
      <trkpt lat="41.8753620" lon="-8.8389240">
        <ele>7.9</ele>
        <time>2021-05-18T13:03:28Z</time>
      </trkpt>
      <trkpt lat="41.8753620" lon="-8.8389240">
        <ele>7.9</ele>
        <time>2021-05-18T13:03:29Z</time>
      </trkpt>
      <trkpt lat="41.8753620" lon="-8.8389240">
        <ele>7.9</ele>
        <time>2021-05-18T13:03:30Z</time>
      </trkpt>
      <trkpt lat="41.8753620" lon="-8.8389240">
        <ele>7.9</ele>
        <time>2021-05-18T13:03:31Z</time>
      </trkpt>
      <trkpt lat="41.8753620" lon="-8.8389240">
        <ele>7.9</ele>
        <time>2021-05-18T13:03:32Z</time>
      </trkpt>
      <trkpt lat="41.8753620" lon="-8.8389240">
        <ele>7.9</ele>
        <time>2021-05-18T13:03:33Z</time>
      </trkpt>
      <trkpt lat="41.8753620" lon="-8.8389240">
        <ele>7.9</ele>
        <time>2021-05-18T13:03:34Z</time>
      </trkpt>
      <trkpt lat="41.8753620" lon="-8.8389240">
        <ele>7.9</ele>
        <time>2021-05-18T13:03:35Z</time>
      </trkpt>
      <trkpt lat="41.8753620" lon="-8.8389240">
        <ele>7.9</ele>
        <time>2021-05-18T13:03:36Z</time>
      </trkpt>
      <trkpt lat="41.8753620" lon="-8.8389240">
        <ele>7.9</ele>
        <time>2021-05-18T13:03:37Z</time>
      </trkpt>
      <trkpt lat="41.8753620" lon="-8.8389240">
        <ele>7.9</ele>
        <time>2021-05-18T13:03:38Z</time>
      </trkpt>
      <trkpt lat="41.8753620" lon="-8.8389240">
        <ele>7.9</ele>
        <time>2021-05-18T13:03:39Z</time>
      </trkpt>
      <trkpt lat="41.8753620" lon="-8.8389240">
        <ele>7.9</ele>
        <time>2021-05-18T13:03:40Z</time>
      </trkpt>
      <trkpt lat="41.8753620" lon="-8.8389240">
        <ele>7.9</ele>
        <time>2021-05-18T13:03:41Z</time>
      </trkpt>
      <trkpt lat="41.8753620" lon="-8.8389240">
        <ele>7.9</ele>
        <time>2021-05-18T13:03:42Z</time>
      </trkpt>
      <trkpt lat="41.8753620" lon="-8.8389240">
        <ele>7.9</ele>
        <time>2021-05-18T13:03:43Z</time>
      </trkpt>
      <trkpt lat="41.8753620" lon="-8.8389240">
        <ele>7.9</ele>
        <time>2021-05-18T13:03:44Z</time>
      </trkpt>
      <trkpt lat="41.8753620" lon="-8.8389240">
        <ele>7.9</ele>
        <time>2021-05-18T13:03:45Z</time>
      </trkpt>
      <trkpt lat="41.8753620" lon="-8.8389240">
        <ele>7.9</ele>
        <time>2021-05-18T13:03:46Z</time>
      </trkpt>
      <trkpt lat="41.8753620" lon="-8.8389240">
        <ele>7.9</ele>
        <time>2021-05-18T13:03:47Z</time>
      </trkpt>
      <trkpt lat="41.8753620" lon="-8.8389240">
        <ele>7.9</ele>
        <time>2021-05-18T13:03:48Z</time>
      </trkpt>
      <trkpt lat="41.8753620" lon="-8.8389240">
        <ele>7.9</ele>
        <time>2021-05-18T13:03:49Z</time>
      </trkpt>
      <trkpt lat="41.8753620" lon="-8.8389240">
        <ele>7.9</ele>
        <time>2021-05-18T13:03:50Z</time>
      </trkpt>
      <trkpt lat="41.8753620" lon="-8.8389240">
        <ele>7.9</ele>
        <time>2021-05-18T13:03:51Z</time>
      </trkpt>
      <trkpt lat="41.8753620" lon="-8.8389240">
        <ele>7.9</ele>
        <time>2021-05-18T13:03:52Z</time>
      </trkpt>
      <trkpt lat="41.8753620" lon="-8.8389240">
        <ele>7.9</ele>
        <time>2021-05-18T13:03:53Z</time>
      </trkpt>
      <trkpt lat="41.8753620" lon="-8.8389240">
        <ele>7.9</ele>
        <time>2021-05-18T13:03:54Z</time>
      </trkpt>
      <trkpt lat="41.8753620" lon="-8.8389240">
        <ele>7.9</ele>
        <time>2021-05-18T13:03:55Z</time>
      </trkpt>
      <trkpt lat="41.8753620" lon="-8.8389240">
        <ele>7.9</ele>
        <time>2021-05-18T13:03:56Z</time>
      </trkpt>
      <trkpt lat="41.8753620" lon="-8.8389240">
        <ele>7.9</ele>
        <time>2021-05-18T13:03:57Z</time>
      </trkpt>
      <trkpt lat="41.8753620" lon="-8.8389240">
        <ele>7.9</ele>
        <time>2021-05-18T13:03:58Z</time>
      </trkpt>
      <trkpt lat="41.8753570" lon="-8.8389190">
        <ele>7.9</ele>
        <time>2021-05-18T13:03:59Z</time>
      </trkpt>
      <trkpt lat="41.8753570" lon="-8.8389190">
        <ele>7.9</ele>
        <time>2021-05-18T13:04:00Z</time>
      </trkpt>
      <trkpt lat="41.8753570" lon="-8.8389190">
        <ele>7.9</ele>
        <time>2021-05-18T13:04:01Z</time>
      </trkpt>
      <trkpt lat="41.8753570" lon="-8.8389190">
        <ele>7.9</ele>
        <time>2021-05-18T13:04:02Z</time>
      </trkpt>
      <trkpt lat="41.8753570" lon="-8.8389190">
        <ele>7.9</ele>
        <time>2021-05-18T13:04:03Z</time>
      </trkpt>
      <trkpt lat="41.8753570" lon="-8.8389190">
        <ele>7.9</ele>
        <time>2021-05-18T13:04:04Z</time>
      </trkpt>
      <trkpt lat="41.8753570" lon="-8.8389190">
        <ele>7.9</ele>
        <time>2021-05-18T13:04:05Z</time>
      </trkpt>
      <trkpt lat="41.8753570" lon="-8.8389190">
        <ele>7.9</ele>
        <time>2021-05-18T13:04:06Z</time>
      </trkpt>
      <trkpt lat="41.8753570" lon="-8.8389190">
        <ele>7.9</ele>
        <time>2021-05-18T13:04:07Z</time>
      </trkpt>
      <trkpt lat="41.8753570" lon="-8.8389190">
        <ele>7.9</ele>
        <time>2021-05-18T13:04:08Z</time>
      </trkpt>
      <trkpt lat="41.8753570" lon="-8.8389190">
        <ele>7.9</ele>
        <time>2021-05-18T13:04:09Z</time>
      </trkpt>
      <trkpt lat="41.8753570" lon="-8.8389190">
        <ele>7.9</ele>
        <time>2021-05-18T13:04:10Z</time>
      </trkpt>
      <trkpt lat="41.8753570" lon="-8.8389190">
        <ele>7.9</ele>
        <time>2021-05-18T13:04:11Z</time>
      </trkpt>
      <trkpt lat="41.8753570" lon="-8.8389190">
        <ele>7.9</ele>
        <time>2021-05-18T13:04:12Z</time>
      </trkpt>
      <trkpt lat="41.8753570" lon="-8.8389190">
        <ele>7.9</ele>
        <time>2021-05-18T13:04:13Z</time>
      </trkpt>
      <trkpt lat="41.8753570" lon="-8.8389190">
        <ele>7.9</ele>
        <time>2021-05-18T13:04:14Z</time>
      </trkpt>
      <trkpt lat="41.8753570" lon="-8.8389190">
        <ele>7.9</ele>
        <time>2021-05-18T13:04:15Z</time>
      </trkpt>
      <trkpt lat="41.8753570" lon="-8.8389190">
        <ele>7.9</ele>
        <time>2021-05-18T13:04:16Z</time>
      </trkpt>
      <trkpt lat="41.8753570" lon="-8.8389190">
        <ele>7.9</ele>
        <time>2021-05-18T13:04:17Z</time>
      </trkpt>
      <trkpt lat="41.8753570" lon="-8.8389190">
        <ele>7.9</ele>
        <time>2021-05-18T13:04:18Z</time>
      </trkpt>
      <trkpt lat="41.8753570" lon="-8.8389190">
        <ele>7.9</ele>
        <time>2021-05-18T13:04:19Z</time>
      </trkpt>
      <trkpt lat="41.8753570" lon="-8.8389190">
        <ele>7.9</ele>
        <time>2021-05-18T13:04:20Z</time>
      </trkpt>
      <trkpt lat="41.8753570" lon="-8.8389190">
        <ele>7.9</ele>
        <time>2021-05-18T13:04:21Z</time>
      </trkpt>
      <trkpt lat="41.8753570" lon="-8.8389190">
        <ele>7.9</ele>
        <time>2021-05-18T13:04:22Z</time>
      </trkpt>
      <trkpt lat="41.8753570" lon="-8.8389190">
        <ele>7.9</ele>
        <time>2021-05-18T13:04:23Z</time>
      </trkpt>
      <trkpt lat="41.8753560" lon="-8.8389180">
        <ele>7.9</ele>
        <time>2021-05-18T13:04:24Z</time>
      </trkpt>
      <trkpt lat="41.8753550" lon="-8.8389170">
        <ele>7.9</ele>
        <time>2021-05-18T13:04:25Z</time>
      </trkpt>
      <trkpt lat="41.8753520" lon="-8.8389180">
        <ele>7.9</ele>
        <time>2021-05-18T13:04:26Z</time>
      </trkpt>
      <trkpt lat="41.8753500" lon="-8.8389230">
        <ele>7.9</ele>
        <time>2021-05-18T13:04:27Z</time>
      </trkpt>
      <trkpt lat="41.8753480" lon="-8.8389320">
        <ele>7.9</ele>
        <time>2021-05-18T13:04:28Z</time>
      </trkpt>
      <trkpt lat="41.8753480" lon="-8.8389320">
        <ele>7.9</ele>
        <time>2021-05-18T13:04:29Z</time>
      </trkpt>
      <trkpt lat="41.8753440" lon="-8.8389290">
        <ele>7.9</ele>
        <time>2021-05-18T13:04:30Z</time>
      </trkpt>
      <trkpt lat="41.8753430" lon="-8.8389270">
        <ele>7.9</ele>
        <time>2021-05-18T13:04:31Z</time>
      </trkpt>
      <trkpt lat="41.8753450" lon="-8.8389250">
        <ele>7.9</ele>
        <time>2021-05-18T13:04:32Z</time>
      </trkpt>
      <trkpt lat="41.8753470" lon="-8.8389240">
        <ele>7.9</ele>
        <time>2021-05-18T13:04:33Z</time>
      </trkpt>
      <trkpt lat="41.8753480" lon="-8.8389220">
        <ele>7.9</ele>
        <time>2021-05-18T13:04:34Z</time>
      </trkpt>
      <trkpt lat="41.8753480" lon="-8.8389220">
        <ele>7.9</ele>
        <time>2021-05-18T13:04:35Z</time>
      </trkpt>
      <trkpt lat="41.8753540" lon="-8.8389230">
        <ele>7.9</ele>
        <time>2021-05-18T13:04:36Z</time>
      </trkpt>
      <trkpt lat="41.8753540" lon="-8.8389230">
        <ele>7.9</ele>
        <time>2021-05-18T13:04:37Z</time>
      </trkpt>
      <trkpt lat="41.8753560" lon="-8.8389190">
        <ele>7.9</ele>
        <time>2021-05-18T13:04:38Z</time>
      </trkpt>
      <trkpt lat="41.8753560" lon="-8.8389210">
        <ele>7.9</ele>
        <time>2021-05-18T13:04:39Z</time>
      </trkpt>
      <trkpt lat="41.8753570" lon="-8.8389180">
        <ele>7.9</ele>
        <time>2021-05-18T13:04:40Z</time>
      </trkpt>
      <trkpt lat="41.8753570" lon="-8.8389180">
        <ele>7.9</ele>
        <time>2021-05-18T13:04:41Z</time>
      </trkpt>
      <trkpt lat="41.8753550" lon="-8.8389200">
        <ele>7.9</ele>
        <time>2021-05-18T13:04:42Z</time>
      </trkpt>
      <trkpt lat="41.8753550" lon="-8.8389200">
        <ele>7.9</ele>
        <time>2021-05-18T13:04:43Z</time>
      </trkpt>
      <trkpt lat="41.8753550" lon="-8.8389200">
        <ele>7.9</ele>
        <time>2021-05-18T13:04:44Z</time>
      </trkpt>
      <trkpt lat="41.8753550" lon="-8.8389200">
        <ele>7.9</ele>
        <time>2021-05-18T13:04:45Z</time>
      </trkpt>
      <trkpt lat="41.8753550" lon="-8.8389200">
        <ele>7.9</ele>
        <time>2021-05-18T13:04:46Z</time>
      </trkpt>
      <trkpt lat="41.8753550" lon="-8.8389200">
        <ele>7.9</ele>
        <time>2021-05-18T13:04:47Z</time>
      </trkpt>
      <trkpt lat="41.8753550" lon="-8.8389200">
        <ele>7.9</ele>
        <time>2021-05-18T13:04:48Z</time>
      </trkpt>
      <trkpt lat="41.8753550" lon="-8.8389200">
        <ele>7.9</ele>
        <time>2021-05-18T13:04:49Z</time>
      </trkpt>
      <trkpt lat="41.8753550" lon="-8.8389200">
        <ele>7.9</ele>
        <time>2021-05-18T13:04:50Z</time>
      </trkpt>
      <trkpt lat="41.8753550" lon="-8.8389200">
        <ele>7.9</ele>
        <time>2021-05-18T13:04:51Z</time>
      </trkpt>
      <trkpt lat="41.8753640" lon="-8.8389120">
        <ele>7.9</ele>
        <time>2021-05-18T13:04:52Z</time>
      </trkpt>
      <trkpt lat="41.8753630" lon="-8.8389130">
        <ele>7.9</ele>
        <time>2021-05-18T13:04:53Z</time>
      </trkpt>
      <trkpt lat="41.8753630" lon="-8.8389130">
        <ele>7.9</ele>
        <time>2021-05-18T13:04:54Z</time>
      </trkpt>
      <trkpt lat="41.8753630" lon="-8.8389130">
        <ele>7.9</ele>
        <time>2021-05-18T13:04:55Z</time>
      </trkpt>
      <trkpt lat="41.8753630" lon="-8.8389130">
        <ele>7.9</ele>
        <time>2021-05-18T13:04:56Z</time>
      </trkpt>
      <trkpt lat="41.8753560" lon="-8.8389200">
        <ele>7.9</ele>
        <time>2021-05-18T13:04:57Z</time>
      </trkpt>
      <trkpt lat="41.8753540" lon="-8.8389220">
        <ele>7.9</ele>
        <time>2021-05-18T13:04:58Z</time>
      </trkpt>
      <trkpt lat="41.8753550" lon="-8.8389210">
        <ele>7.9</ele>
        <time>2021-05-18T13:04:59Z</time>
      </trkpt>
      <trkpt lat="41.8753550" lon="-8.8389210">
        <ele>7.9</ele>
        <time>2021-05-18T13:05:00Z</time>
      </trkpt>
      <trkpt lat="41.8753550" lon="-8.8389210">
        <ele>7.9</ele>
        <time>2021-05-18T13:05:01Z</time>
      </trkpt>
      <trkpt lat="41.8753550" lon="-8.8389210">
        <ele>7.9</ele>
        <time>2021-05-18T13:05:02Z</time>
      </trkpt>
      <trkpt lat="41.8753550" lon="-8.8389210">
        <ele>7.9</ele>
        <time>2021-05-18T13:05:03Z</time>
      </trkpt>
      <trkpt lat="41.8753550" lon="-8.8389210">
        <ele>7.9</ele>
        <time>2021-05-18T13:05:04Z</time>
      </trkpt>
      <trkpt lat="41.8753550" lon="-8.8389210">
        <ele>7.9</ele>
        <time>2021-05-18T13:05:05Z</time>
      </trkpt>
      <trkpt lat="41.8753550" lon="-8.8389210">
        <ele>7.9</ele>
        <time>2021-05-18T13:05:06Z</time>
      </trkpt>
      <trkpt lat="41.8753550" lon="-8.8389210">
        <ele>7.9</ele>
        <time>2021-05-18T13:05:07Z</time>
      </trkpt>
      <trkpt lat="41.8753550" lon="-8.8389210">
        <ele>7.9</ele>
        <time>2021-05-18T13:05:08Z</time>
      </trkpt>
      <trkpt lat="41.8753550" lon="-8.8389210">
        <ele>7.9</ele>
        <time>2021-05-18T13:05:09Z</time>
      </trkpt>
      <trkpt lat="41.8753550" lon="-8.8389210">
        <ele>7.9</ele>
        <time>2021-05-18T13:05:10Z</time>
      </trkpt>
      <trkpt lat="41.8753540" lon="-8.8389130">
        <ele>7.9</ele>
        <time>2021-05-18T13:05:11Z</time>
      </trkpt>
      <trkpt lat="41.8753540" lon="-8.8389150">
        <ele>7.9</ele>
        <time>2021-05-18T13:05:12Z</time>
      </trkpt>
      <trkpt lat="41.8753540" lon="-8.8389140">
        <ele>7.9</ele>
        <time>2021-05-18T13:05:13Z</time>
      </trkpt>
      <trkpt lat="41.8753540" lon="-8.8389140">
        <ele>7.9</ele>
        <time>2021-05-18T13:05:14Z</time>
      </trkpt>
      <trkpt lat="41.8753540" lon="-8.8389140">
        <ele>7.9</ele>
        <time>2021-05-18T13:05:15Z</time>
      </trkpt>
      <trkpt lat="41.8753540" lon="-8.8389140">
        <ele>7.9</ele>
        <time>2021-05-18T13:05:16Z</time>
      </trkpt>
      <trkpt lat="41.8753540" lon="-8.8389140">
        <ele>7.9</ele>
        <time>2021-05-18T13:05:17Z</time>
      </trkpt>
      <trkpt lat="41.8753540" lon="-8.8389140">
        <ele>7.9</ele>
        <time>2021-05-18T13:05:18Z</time>
      </trkpt>
      <trkpt lat="41.8753540" lon="-8.8389140">
        <ele>7.9</ele>
        <time>2021-05-18T13:05:19Z</time>
      </trkpt>
      <trkpt lat="41.8753540" lon="-8.8389140">
        <ele>7.9</ele>
        <time>2021-05-18T13:05:20Z</time>
      </trkpt>
      <trkpt lat="41.8753540" lon="-8.8389140">
        <ele>7.9</ele>
        <time>2021-05-18T13:05:21Z</time>
      </trkpt>
      <trkpt lat="41.8753540" lon="-8.8389140">
        <ele>7.9</ele>
        <time>2021-05-18T13:05:22Z</time>
      </trkpt>
      <trkpt lat="41.8753540" lon="-8.8389140">
        <ele>7.9</ele>
        <time>2021-05-18T13:05:23Z</time>
      </trkpt>
      <trkpt lat="41.8753540" lon="-8.8389140">
        <ele>7.9</ele>
        <time>2021-05-18T13:05:24Z</time>
      </trkpt>
      <trkpt lat="41.8753540" lon="-8.8389140">
        <ele>7.9</ele>
        <time>2021-05-18T13:05:25Z</time>
      </trkpt>
      <trkpt lat="41.8753540" lon="-8.8389140">
        <ele>7.9</ele>
        <time>2021-05-18T13:05:26Z</time>
      </trkpt>
      <trkpt lat="41.8753540" lon="-8.8389140">
        <ele>7.9</ele>
        <time>2021-05-18T13:05:27Z</time>
      </trkpt>
      <trkpt lat="41.8753540" lon="-8.8389140">
        <ele>7.9</ele>
        <time>2021-05-18T13:05:28Z</time>
      </trkpt>
      <trkpt lat="41.8753540" lon="-8.8389140">
        <ele>7.9</ele>
        <time>2021-05-18T13:05:29Z</time>
      </trkpt>
      <trkpt lat="41.8753540" lon="-8.8389140">
        <ele>7.9</ele>
        <time>2021-05-18T13:05:30Z</time>
      </trkpt>
      <trkpt lat="41.8753540" lon="-8.8389140">
        <ele>7.9</ele>
        <time>2021-05-18T13:05:31Z</time>
      </trkpt>
      <trkpt lat="41.8753540" lon="-8.8389140">
        <ele>7.9</ele>
        <time>2021-05-18T13:05:32Z</time>
      </trkpt>
      <trkpt lat="41.8753540" lon="-8.8389140">
        <ele>7.9</ele>
        <time>2021-05-18T13:05:33Z</time>
      </trkpt>
      <trkpt lat="41.8753500" lon="-8.8389210">
        <ele>7.9</ele>
        <time>2021-05-18T13:05:34Z</time>
      </trkpt>
      <trkpt lat="41.8753490" lon="-8.8389210">
        <ele>7.9</ele>
        <time>2021-05-18T13:05:35Z</time>
      </trkpt>
      <trkpt lat="41.8753490" lon="-8.8389210">
        <ele>7.9</ele>
        <time>2021-05-18T13:05:36Z</time>
      </trkpt>
      <trkpt lat="41.8753490" lon="-8.8389210">
        <ele>7.9</ele>
        <time>2021-05-18T13:05:37Z</time>
      </trkpt>
      <trkpt lat="41.8753490" lon="-8.8389210">
        <ele>7.9</ele>
        <time>2021-05-18T13:05:38Z</time>
      </trkpt>
      <trkpt lat="41.8753490" lon="-8.8389210">
        <ele>7.9</ele>
        <time>2021-05-18T13:05:39Z</time>
      </trkpt>
      <trkpt lat="41.8753490" lon="-8.8389210">
        <ele>7.9</ele>
        <time>2021-05-18T13:05:40Z</time>
      </trkpt>
      <trkpt lat="41.8753490" lon="-8.8389210">
        <ele>7.9</ele>
        <time>2021-05-18T13:05:41Z</time>
      </trkpt>
      <trkpt lat="41.8753490" lon="-8.8389210">
        <ele>7.9</ele>
        <time>2021-05-18T13:05:42Z</time>
      </trkpt>
      <trkpt lat="41.8753490" lon="-8.8389210">
        <ele>7.9</ele>
        <time>2021-05-18T13:05:43Z</time>
      </trkpt>
      <trkpt lat="41.8753490" lon="-8.8389210">
        <ele>7.9</ele>
        <time>2021-05-18T13:05:44Z</time>
      </trkpt>
      <trkpt lat="41.8753490" lon="-8.8389210">
        <ele>7.9</ele>
        <time>2021-05-18T13:05:45Z</time>
      </trkpt>
      <trkpt lat="41.8753490" lon="-8.8389210">
        <ele>7.9</ele>
        <time>2021-05-18T13:05:46Z</time>
      </trkpt>
      <trkpt lat="41.8753510" lon="-8.8389190">
        <ele>7.9</ele>
        <time>2021-05-18T13:05:47Z</time>
      </trkpt>
      <trkpt lat="41.8753510" lon="-8.8389190">
        <ele>7.9</ele>
        <time>2021-05-18T13:05:48Z</time>
      </trkpt>
      <trkpt lat="41.8753510" lon="-8.8389190">
        <ele>7.9</ele>
        <time>2021-05-18T13:05:49Z</time>
      </trkpt>
      <trkpt lat="41.8753510" lon="-8.8389190">
        <ele>7.9</ele>
        <time>2021-05-18T13:05:50Z</time>
      </trkpt>
      <trkpt lat="41.8753510" lon="-8.8389190">
        <ele>7.9</ele>
        <time>2021-05-18T13:05:51Z</time>
      </trkpt>
      <trkpt lat="41.8753510" lon="-8.8389190">
        <ele>7.9</ele>
        <time>2021-05-18T13:05:52Z</time>
      </trkpt>
      <trkpt lat="41.8753510" lon="-8.8389190">
        <ele>7.9</ele>
        <time>2021-05-18T13:05:53Z</time>
      </trkpt>
      <trkpt lat="41.8753510" lon="-8.8389190">
        <ele>7.9</ele>
        <time>2021-05-18T13:05:54Z</time>
      </trkpt>
      <trkpt lat="41.8753510" lon="-8.8389190">
        <ele>7.9</ele>
        <time>2021-05-18T13:05:55Z</time>
      </trkpt>
      <trkpt lat="41.8753470" lon="-8.8389200">
        <ele>7.9</ele>
        <time>2021-05-18T13:05:56Z</time>
      </trkpt>
      <trkpt lat="41.8753450" lon="-8.8389220">
        <ele>7.9</ele>
        <time>2021-05-18T13:05:57Z</time>
      </trkpt>
      <trkpt lat="41.8753450" lon="-8.8389220">
        <ele>7.9</ele>
        <time>2021-05-18T13:05:58Z</time>
      </trkpt>
      <trkpt lat="41.8753450" lon="-8.8389220">
        <ele>7.9</ele>
        <time>2021-05-18T13:05:59Z</time>
      </trkpt>
      <trkpt lat="41.8753470" lon="-8.8389180">
        <ele>7.9</ele>
        <time>2021-05-18T13:06:00Z</time>
      </trkpt>
      <trkpt lat="41.8753470" lon="-8.8389200">
        <ele>7.9</ele>
        <time>2021-05-18T13:06:01Z</time>
      </trkpt>
      <trkpt lat="41.8753470" lon="-8.8389200">
        <ele>7.9</ele>
        <time>2021-05-18T13:06:02Z</time>
      </trkpt>
      <trkpt lat="41.8753470" lon="-8.8389200">
        <ele>7.9</ele>
        <time>2021-05-18T13:06:03Z</time>
      </trkpt>
      <trkpt lat="41.8753470" lon="-8.8389200">
        <ele>7.9</ele>
        <time>2021-05-18T13:06:04Z</time>
      </trkpt>
      <trkpt lat="41.8753470" lon="-8.8389200">
        <ele>7.9</ele>
        <time>2021-05-18T13:06:05Z</time>
      </trkpt>
      <trkpt lat="41.8753470" lon="-8.8389200">
        <ele>7.9</ele>
        <time>2021-05-18T13:06:06Z</time>
      </trkpt>
      <trkpt lat="41.8753470" lon="-8.8389200">
        <ele>7.9</ele>
        <time>2021-05-18T13:06:07Z</time>
      </trkpt>
      <trkpt lat="41.8753470" lon="-8.8389200">
        <ele>7.9</ele>
        <time>2021-05-18T13:06:08Z</time>
      </trkpt>
      <trkpt lat="41.8753470" lon="-8.8389200">
        <ele>7.9</ele>
        <time>2021-05-18T13:06:09Z</time>
      </trkpt>
      <trkpt lat="41.8753470" lon="-8.8389200">
        <ele>7.9</ele>
        <time>2021-05-18T13:06:10Z</time>
      </trkpt>
      <trkpt lat="41.8753480" lon="-8.8389220">
        <ele>7.9</ele>
        <time>2021-05-18T13:06:11Z</time>
      </trkpt>
      <trkpt lat="41.8753560" lon="-8.8389170">
        <ele>7.9</ele>
        <time>2021-05-18T13:06:12Z</time>
      </trkpt>
      <trkpt lat="41.8753690" lon="-8.8389070">
        <ele>7.9</ele>
        <time>2021-05-18T13:06:13Z</time>
      </trkpt>
      <trkpt lat="41.8753700" lon="-8.8389020">
        <ele>7.9</ele>
        <time>2021-05-18T13:06:14Z</time>
      </trkpt>
      <trkpt lat="41.8753730" lon="-8.8389000">
        <ele>7.9</ele>
        <time>2021-05-18T13:06:15Z</time>
      </trkpt>
      <trkpt lat="41.8753730" lon="-8.8389000">
        <ele>7.9</ele>
        <time>2021-05-18T13:06:16Z</time>
      </trkpt>
      <trkpt lat="41.8753730" lon="-8.8389000">
        <ele>7.9</ele>
        <time>2021-05-18T13:06:17Z</time>
      </trkpt>
      <trkpt lat="41.8753730" lon="-8.8389000">
        <ele>7.9</ele>
        <time>2021-05-18T13:06:18Z</time>
      </trkpt>
      <trkpt lat="41.8753730" lon="-8.8389000">
        <ele>7.9</ele>
        <time>2021-05-18T13:06:19Z</time>
      </trkpt>
      <trkpt lat="41.8753730" lon="-8.8389000">
        <ele>7.9</ele>
        <time>2021-05-18T13:06:20Z</time>
      </trkpt>
      <trkpt lat="41.8753730" lon="-8.8389000">
        <ele>7.9</ele>
        <time>2021-05-18T13:06:21Z</time>
      </trkpt>
      <trkpt lat="41.8753730" lon="-8.8389000">
        <ele>7.9</ele>
        <time>2021-05-18T13:06:22Z</time>
      </trkpt>
      <trkpt lat="41.8753730" lon="-8.8389000">
        <ele>7.9</ele>
        <time>2021-05-18T13:06:23Z</time>
      </trkpt>
      <trkpt lat="41.8753730" lon="-8.8389000">
        <ele>7.9</ele>
        <time>2021-05-18T13:06:24Z</time>
      </trkpt>
      <trkpt lat="41.8753610" lon="-8.8389190">
        <ele>7.9</ele>
        <time>2021-05-18T13:06:25Z</time>
      </trkpt>
      <trkpt lat="41.8753580" lon="-8.8389200">
        <ele>7.9</ele>
        <time>2021-05-18T13:06:26Z</time>
      </trkpt>
      <trkpt lat="41.8753570" lon="-8.8389230">
        <ele>7.9</ele>
        <time>2021-05-18T13:06:27Z</time>
      </trkpt>
      <trkpt lat="41.8753570" lon="-8.8389230">
        <ele>7.9</ele>
        <time>2021-05-18T13:06:28Z</time>
      </trkpt>
      <trkpt lat="41.8753570" lon="-8.8389230">
        <ele>7.9</ele>
        <time>2021-05-18T13:06:29Z</time>
      </trkpt>
      <trkpt lat="41.8753570" lon="-8.8389230">
        <ele>7.9</ele>
        <time>2021-05-18T13:06:30Z</time>
      </trkpt>
      <trkpt lat="41.8753570" lon="-8.8389230">
        <ele>7.9</ele>
        <time>2021-05-18T13:06:31Z</time>
      </trkpt>
      <trkpt lat="41.8753570" lon="-8.8389230">
        <ele>7.9</ele>
        <time>2021-05-18T13:06:32Z</time>
      </trkpt>
      <trkpt lat="41.8753570" lon="-8.8389230">
        <ele>7.9</ele>
        <time>2021-05-18T13:06:33Z</time>
      </trkpt>
      <trkpt lat="41.8753570" lon="-8.8389230">
        <ele>7.9</ele>
        <time>2021-05-18T13:06:34Z</time>
      </trkpt>
      <trkpt lat="41.8753570" lon="-8.8389230">
        <ele>7.9</ele>
        <time>2021-05-18T13:06:35Z</time>
      </trkpt>
      <trkpt lat="41.8753570" lon="-8.8389230">
        <ele>7.9</ele>
        <time>2021-05-18T13:06:36Z</time>
      </trkpt>
      <trkpt lat="41.8753530" lon="-8.8389270">
        <ele>7.9</ele>
        <time>2021-05-18T13:06:37Z</time>
      </trkpt>
      <trkpt lat="41.8753520" lon="-8.8389310">
        <ele>7.9</ele>
        <time>2021-05-18T13:06:38Z</time>
      </trkpt>
      <trkpt lat="41.8753520" lon="-8.8389320">
        <ele>7.9</ele>
        <time>2021-05-18T13:06:39Z</time>
      </trkpt>
      <trkpt lat="41.8753520" lon="-8.8389330">
        <ele>7.9</ele>
        <time>2021-05-18T13:06:40Z</time>
      </trkpt>
      <trkpt lat="41.8753520" lon="-8.8389330">
        <ele>7.9</ele>
        <time>2021-05-18T13:06:41Z</time>
      </trkpt>
      <trkpt lat="41.8753520" lon="-8.8389330">
        <ele>7.9</ele>
        <time>2021-05-18T13:06:42Z</time>
      </trkpt>
      <trkpt lat="41.8753520" lon="-8.8389330">
        <ele>7.9</ele>
        <time>2021-05-18T13:06:43Z</time>
      </trkpt>
      <trkpt lat="41.8753520" lon="-8.8389330">
        <ele>7.9</ele>
        <time>2021-05-18T13:06:44Z</time>
      </trkpt>
      <trkpt lat="41.8753520" lon="-8.8389330">
        <ele>7.9</ele>
        <time>2021-05-18T13:06:45Z</time>
      </trkpt>
      <trkpt lat="41.8753520" lon="-8.8389330">
        <ele>7.9</ele>
        <time>2021-05-18T13:06:46Z</time>
      </trkpt>
      <trkpt lat="41.8753560" lon="-8.8389300">
        <ele>7.9</ele>
        <time>2021-05-18T13:06:47Z</time>
      </trkpt>
      <trkpt lat="41.8753540" lon="-8.8389310">
        <ele>7.9</ele>
        <time>2021-05-18T13:06:48Z</time>
      </trkpt>
      <trkpt lat="41.8753540" lon="-8.8389320">
        <ele>7.9</ele>
        <time>2021-05-18T13:06:49Z</time>
      </trkpt>
      <trkpt lat="41.8753520" lon="-8.8389330">
        <ele>7.9</ele>
        <time>2021-05-18T13:06:50Z</time>
      </trkpt>
      <trkpt lat="41.8753510" lon="-8.8389330">
        <ele>7.9</ele>
        <time>2021-05-18T13:06:51Z</time>
      </trkpt>
      <trkpt lat="41.8753480" lon="-8.8389310">
        <ele>7.9</ele>
        <time>2021-05-18T13:06:52Z</time>
      </trkpt>
      <trkpt lat="41.8753460" lon="-8.8389330">
        <ele>7.9</ele>
        <time>2021-05-18T13:06:53Z</time>
      </trkpt>
      <trkpt lat="41.8753480" lon="-8.8389310">
        <ele>7.9</ele>
        <time>2021-05-18T13:06:54Z</time>
      </trkpt>
      <trkpt lat="41.8753480" lon="-8.8389310">
        <ele>7.9</ele>
        <time>2021-05-18T13:06:55Z</time>
      </trkpt>
      <trkpt lat="41.8753440" lon="-8.8389320">
        <ele>7.9</ele>
        <time>2021-05-18T13:06:56Z</time>
      </trkpt>
      <trkpt lat="41.8753460" lon="-8.8389290">
        <ele>7.9</ele>
        <time>2021-05-18T13:06:57Z</time>
      </trkpt>
      <trkpt lat="41.8753450" lon="-8.8389300">
        <ele>7.9</ele>
        <time>2021-05-18T13:06:58Z</time>
      </trkpt>
      <trkpt lat="41.8753430" lon="-8.8389300">
        <ele>7.9</ele>
        <time>2021-05-18T13:06:59Z</time>
      </trkpt>
      <trkpt lat="41.8753440" lon="-8.8389280">
        <ele>7.9</ele>
        <time>2021-05-18T13:07:00Z</time>
      </trkpt>
      <trkpt lat="41.8753430" lon="-8.8389290">
        <ele>7.9</ele>
        <time>2021-05-18T13:07:01Z</time>
      </trkpt>
      <trkpt lat="41.8753400" lon="-8.8389330">
        <ele>7.9</ele>
        <time>2021-05-18T13:07:02Z</time>
      </trkpt>
      <trkpt lat="41.8753390" lon="-8.8389350">
        <ele>7.9</ele>
        <time>2021-05-18T13:07:03Z</time>
      </trkpt>
      <trkpt lat="41.8753440" lon="-8.8389310">
        <ele>7.9</ele>
        <time>2021-05-18T13:07:04Z</time>
      </trkpt>
      <trkpt lat="41.8753400" lon="-8.8389340">
        <ele>7.9</ele>
        <time>2021-05-18T13:07:05Z</time>
      </trkpt>
      <trkpt lat="41.8753400" lon="-8.8389340">
        <ele>7.9</ele>
        <time>2021-05-18T13:07:06Z</time>
      </trkpt>
      <trkpt lat="41.8753400" lon="-8.8389340">
        <ele>7.9</ele>
        <time>2021-05-18T13:07:07Z</time>
      </trkpt>
      <trkpt lat="41.8753400" lon="-8.8389340">
        <ele>7.9</ele>
        <time>2021-05-18T13:07:08Z</time>
      </trkpt>
      <trkpt lat="41.8753320" lon="-8.8389410">
        <ele>7.9</ele>
        <time>2021-05-18T13:07:09Z</time>
      </trkpt>
      <trkpt lat="41.8753350" lon="-8.8389400">
        <ele>7.9</ele>
        <time>2021-05-18T13:07:10Z</time>
      </trkpt>
      <trkpt lat="41.8753350" lon="-8.8389400">
        <ele>7.9</ele>
        <time>2021-05-18T13:07:11Z</time>
      </trkpt>
      <trkpt lat="41.8753350" lon="-8.8389400">
        <ele>7.9</ele>
        <time>2021-05-18T13:07:12Z</time>
      </trkpt>
      <trkpt lat="41.8753350" lon="-8.8389400">
        <ele>7.9</ele>
        <time>2021-05-18T13:07:13Z</time>
      </trkpt>
      <trkpt lat="41.8753350" lon="-8.8389400">
        <ele>7.9</ele>
        <time>2021-05-18T13:07:14Z</time>
      </trkpt>
      <trkpt lat="41.8753350" lon="-8.8389400">
        <ele>7.9</ele>
        <time>2021-05-18T13:07:15Z</time>
      </trkpt>
      <trkpt lat="41.8753350" lon="-8.8389400">
        <ele>7.9</ele>
        <time>2021-05-18T13:07:16Z</time>
      </trkpt>
      <trkpt lat="41.8753350" lon="-8.8389400">
        <ele>7.9</ele>
        <time>2021-05-18T13:07:17Z</time>
      </trkpt>
      <trkpt lat="41.8753350" lon="-8.8389400">
        <ele>7.9</ele>
        <time>2021-05-18T13:07:18Z</time>
      </trkpt>
      <trkpt lat="41.8753350" lon="-8.8389400">
        <ele>7.9</ele>
        <time>2021-05-18T13:07:19Z</time>
      </trkpt>
      <trkpt lat="41.8753350" lon="-8.8389400">
        <ele>7.9</ele>
        <time>2021-05-18T13:07:20Z</time>
      </trkpt>
      <trkpt lat="41.8753350" lon="-8.8389400">
        <ele>7.9</ele>
        <time>2021-05-18T13:07:21Z</time>
      </trkpt>
      <trkpt lat="41.8753350" lon="-8.8389400">
        <ele>7.9</ele>
        <time>2021-05-18T13:07:22Z</time>
      </trkpt>
      <trkpt lat="41.8753350" lon="-8.8389400">
        <ele>7.9</ele>
        <time>2021-05-18T13:07:23Z</time>
      </trkpt>
      <trkpt lat="41.8753350" lon="-8.8389400">
        <ele>7.9</ele>
        <time>2021-05-18T13:07:24Z</time>
      </trkpt>
      <trkpt lat="41.8753350" lon="-8.8389400">
        <ele>7.9</ele>
        <time>2021-05-18T13:07:25Z</time>
      </trkpt>
      <trkpt lat="41.8753350" lon="-8.8389400">
        <ele>7.9</ele>
        <time>2021-05-18T13:07:26Z</time>
      </trkpt>
      <trkpt lat="41.8753440" lon="-8.8389280">
        <ele>7.9</ele>
        <time>2021-05-18T13:07:27Z</time>
      </trkpt>
      <trkpt lat="41.8753430" lon="-8.8389270">
        <ele>7.9</ele>
        <time>2021-05-18T13:07:28Z</time>
      </trkpt>
      <trkpt lat="41.8753430" lon="-8.8389270">
        <ele>7.9</ele>
        <time>2021-05-18T13:07:29Z</time>
      </trkpt>
      <trkpt lat="41.8753430" lon="-8.8389270">
        <ele>7.9</ele>
        <time>2021-05-18T13:07:30Z</time>
      </trkpt>
      <trkpt lat="41.8753430" lon="-8.8389270">
        <ele>7.9</ele>
        <time>2021-05-18T13:07:31Z</time>
      </trkpt>
      <trkpt lat="41.8753430" lon="-8.8389270">
        <ele>7.9</ele>
        <time>2021-05-18T13:07:32Z</time>
      </trkpt>
      <trkpt lat="41.8753430" lon="-8.8389300">
        <ele>7.9</ele>
        <time>2021-05-18T13:07:33Z</time>
      </trkpt>
      <trkpt lat="41.8753420" lon="-8.8389330">
        <ele>7.9</ele>
        <time>2021-05-18T13:07:34Z</time>
      </trkpt>
      <trkpt lat="41.8753350" lon="-8.8389400">
        <ele>7.9</ele>
        <time>2021-05-18T13:07:35Z</time>
      </trkpt>
      <trkpt lat="41.8753340" lon="-8.8389410">
        <ele>7.9</ele>
        <time>2021-05-18T13:07:36Z</time>
      </trkpt>
      <trkpt lat="41.8753370" lon="-8.8389400">
        <ele>7.9</ele>
        <time>2021-05-18T13:07:37Z</time>
      </trkpt>
      <trkpt lat="41.8753370" lon="-8.8389400">
        <ele>7.9</ele>
        <time>2021-05-18T13:07:38Z</time>
      </trkpt>
      <trkpt lat="41.8753370" lon="-8.8389400">
        <ele>7.9</ele>
        <time>2021-05-18T13:07:39Z</time>
      </trkpt>
      <trkpt lat="41.8753370" lon="-8.8389400">
        <ele>7.9</ele>
        <time>2021-05-18T13:07:40Z</time>
      </trkpt>
      <trkpt lat="41.8753370" lon="-8.8389400">
        <ele>7.9</ele>
        <time>2021-05-18T13:07:41Z</time>
      </trkpt>
      <trkpt lat="41.8753370" lon="-8.8389400">
        <ele>7.9</ele>
        <time>2021-05-18T13:07:42Z</time>
      </trkpt>
      <trkpt lat="41.8753370" lon="-8.8389400">
        <ele>7.9</ele>
        <time>2021-05-18T13:07:43Z</time>
      </trkpt>
      <trkpt lat="41.8753420" lon="-8.8389290">
        <ele>7.9</ele>
        <time>2021-05-18T13:07:44Z</time>
      </trkpt>
      <trkpt lat="41.8753460" lon="-8.8389260">
        <ele>7.9</ele>
        <time>2021-05-18T13:07:45Z</time>
      </trkpt>
      <trkpt lat="41.8753450" lon="-8.8389270">
        <ele>7.9</ele>
        <time>2021-05-18T13:07:46Z</time>
      </trkpt>
      <trkpt lat="41.8753450" lon="-8.8389270">
        <ele>7.9</ele>
        <time>2021-05-18T13:07:47Z</time>
      </trkpt>
      <trkpt lat="41.8753450" lon="-8.8389270">
        <ele>7.9</ele>
        <time>2021-05-18T13:07:48Z</time>
      </trkpt>
      <trkpt lat="41.8753450" lon="-8.8389270">
        <ele>7.9</ele>
        <time>2021-05-18T13:07:49Z</time>
      </trkpt>
      <trkpt lat="41.8753450" lon="-8.8389270">
        <ele>7.9</ele>
        <time>2021-05-18T13:07:50Z</time>
      </trkpt>
      <trkpt lat="41.8753450" lon="-8.8389270">
        <ele>7.9</ele>
        <time>2021-05-18T13:07:51Z</time>
      </trkpt>
      <trkpt lat="41.8753450" lon="-8.8389270">
        <ele>7.9</ele>
        <time>2021-05-18T13:07:52Z</time>
      </trkpt>
      <trkpt lat="41.8753450" lon="-8.8389270">
        <ele>7.9</ele>
        <time>2021-05-18T13:07:53Z</time>
      </trkpt>
      <trkpt lat="41.8753450" lon="-8.8389270">
        <ele>7.9</ele>
        <time>2021-05-18T13:07:54Z</time>
      </trkpt>
      <trkpt lat="41.8753450" lon="-8.8389270">
        <ele>7.9</ele>
        <time>2021-05-18T13:07:55Z</time>
      </trkpt>
      <trkpt lat="41.8753450" lon="-8.8389270">
        <ele>7.9</ele>
        <time>2021-05-18T13:07:56Z</time>
      </trkpt>
      <trkpt lat="41.8753450" lon="-8.8389270">
        <ele>7.9</ele>
        <time>2021-05-18T13:07:57Z</time>
      </trkpt>
      <trkpt lat="41.8753450" lon="-8.8389270">
        <ele>7.9</ele>
        <time>2021-05-18T13:07:58Z</time>
      </trkpt>
      <trkpt lat="41.8753450" lon="-8.8389270">
        <ele>7.9</ele>
        <time>2021-05-18T13:07:59Z</time>
      </trkpt>
      <trkpt lat="41.8753450" lon="-8.8389270">
        <ele>7.9</ele>
        <time>2021-05-18T13:08:00Z</time>
      </trkpt>
      <trkpt lat="41.8753450" lon="-8.8389270">
        <ele>7.9</ele>
        <time>2021-05-18T13:08:01Z</time>
      </trkpt>
      <trkpt lat="41.8753450" lon="-8.8389210">
        <ele>7.9</ele>
        <time>2021-05-18T13:08:02Z</time>
      </trkpt>
      <trkpt lat="41.8753450" lon="-8.8389210">
        <ele>7.9</ele>
        <time>2021-05-18T13:08:03Z</time>
      </trkpt>
      <trkpt lat="41.8753450" lon="-8.8389210">
        <ele>7.9</ele>
        <time>2021-05-18T13:08:04Z</time>
      </trkpt>
      <trkpt lat="41.8753450" lon="-8.8389210">
        <ele>7.9</ele>
        <time>2021-05-18T13:08:05Z</time>
      </trkpt>
      <trkpt lat="41.8753520" lon="-8.8389120">
        <ele>7.9</ele>
        <time>2021-05-18T13:08:06Z</time>
      </trkpt>
      <trkpt lat="41.8753520" lon="-8.8389120">
        <ele>7.9</ele>
        <time>2021-05-18T13:08:07Z</time>
      </trkpt>
      <trkpt lat="41.8753520" lon="-8.8389120">
        <ele>7.9</ele>
        <time>2021-05-18T13:08:08Z</time>
      </trkpt>
      <trkpt lat="41.8753520" lon="-8.8389120">
        <ele>7.9</ele>
        <time>2021-05-18T13:08:09Z</time>
      </trkpt>
      <trkpt lat="41.8753520" lon="-8.8389120">
        <ele>7.9</ele>
        <time>2021-05-18T13:08:10Z</time>
      </trkpt>
      <trkpt lat="41.8753520" lon="-8.8389120">
        <ele>7.9</ele>
        <time>2021-05-18T13:08:11Z</time>
      </trkpt>
      <trkpt lat="41.8753560" lon="-8.8389110">
        <ele>7.9</ele>
        <time>2021-05-18T13:08:12Z</time>
      </trkpt>
      <trkpt lat="41.8753590" lon="-8.8389090">
        <ele>7.9</ele>
        <time>2021-05-18T13:08:13Z</time>
      </trkpt>
      <trkpt lat="41.8753590" lon="-8.8389090">
        <ele>7.9</ele>
        <time>2021-05-18T13:08:14Z</time>
      </trkpt>
      <trkpt lat="41.8753590" lon="-8.8389090">
        <ele>7.9</ele>
        <time>2021-05-18T13:08:15Z</time>
      </trkpt>
      <trkpt lat="41.8753570" lon="-8.8389080">
        <ele>7.9</ele>
        <time>2021-05-18T13:08:16Z</time>
      </trkpt>
      <trkpt lat="41.8753570" lon="-8.8389040">
        <ele>7.9</ele>
        <time>2021-05-18T13:08:17Z</time>
      </trkpt>
      <trkpt lat="41.8753570" lon="-8.8389040">
        <ele>7.9</ele>
        <time>2021-05-18T13:08:18Z</time>
      </trkpt>
      <trkpt lat="41.8753570" lon="-8.8389040">
        <ele>7.9</ele>
        <time>2021-05-18T13:08:19Z</time>
      </trkpt>
      <trkpt lat="41.8753570" lon="-8.8389040">
        <ele>7.9</ele>
        <time>2021-05-18T13:08:20Z</time>
      </trkpt>
      <trkpt lat="41.8753580" lon="-8.8389030">
        <ele>7.9</ele>
        <time>2021-05-18T13:08:21Z</time>
      </trkpt>
      <trkpt lat="41.8753590" lon="-8.8389030">
        <ele>7.9</ele>
        <time>2021-05-18T13:08:22Z</time>
      </trkpt>
      <trkpt lat="41.8753590" lon="-8.8389030">
        <ele>7.9</ele>
        <time>2021-05-18T13:08:23Z</time>
      </trkpt>
      <trkpt lat="41.8753620" lon="-8.8389020">
        <ele>7.9</ele>
        <time>2021-05-18T13:08:24Z</time>
      </trkpt>
      <trkpt lat="41.8753660" lon="-8.8388980">
        <ele>7.9</ele>
        <time>2021-05-18T13:08:25Z</time>
      </trkpt>
      <trkpt lat="41.8753710" lon="-8.8388950">
        <ele>7.9</ele>
        <time>2021-05-18T13:08:26Z</time>
      </trkpt>
      <trkpt lat="41.8753710" lon="-8.8388950">
        <ele>7.9</ele>
        <time>2021-05-18T13:08:27Z</time>
      </trkpt>
      <trkpt lat="41.8753710" lon="-8.8388950">
        <ele>7.9</ele>
        <time>2021-05-18T13:08:28Z</time>
      </trkpt>
      <trkpt lat="41.8753710" lon="-8.8388950">
        <ele>7.9</ele>
        <time>2021-05-18T13:08:29Z</time>
      </trkpt>
      <trkpt lat="41.8753710" lon="-8.8388950">
        <ele>7.9</ele>
        <time>2021-05-18T13:08:30Z</time>
      </trkpt>
      <trkpt lat="41.8753710" lon="-8.8388950">
        <ele>7.9</ele>
        <time>2021-05-18T13:08:31Z</time>
      </trkpt>
      <trkpt lat="41.8753710" lon="-8.8388950">
        <ele>7.9</ele>
        <time>2021-05-18T13:08:32Z</time>
      </trkpt>
      <trkpt lat="41.8753710" lon="-8.8388950">
        <ele>7.9</ele>
        <time>2021-05-18T13:08:33Z</time>
      </trkpt>
      <trkpt lat="41.8753710" lon="-8.8388950">
        <ele>7.9</ele>
        <time>2021-05-18T13:08:34Z</time>
      </trkpt>
      <trkpt lat="41.8753710" lon="-8.8388950">
        <ele>7.9</ele>
        <time>2021-05-18T13:08:35Z</time>
      </trkpt>
      <trkpt lat="41.8753710" lon="-8.8388950">
        <ele>7.9</ele>
        <time>2021-05-18T13:08:36Z</time>
      </trkpt>
      <trkpt lat="41.8753710" lon="-8.8388950">
        <ele>7.9</ele>
        <time>2021-05-18T13:08:37Z</time>
      </trkpt>
      <trkpt lat="41.8753710" lon="-8.8388950">
        <ele>7.9</ele>
        <time>2021-05-18T13:08:38Z</time>
      </trkpt>
      <trkpt lat="41.8753710" lon="-8.8388950">
        <ele>7.9</ele>
        <time>2021-05-18T13:08:39Z</time>
      </trkpt>
      <trkpt lat="41.8753710" lon="-8.8388950">
        <ele>7.9</ele>
        <time>2021-05-18T13:08:40Z</time>
      </trkpt>
      <trkpt lat="41.8753710" lon="-8.8388950">
        <ele>7.9</ele>
        <time>2021-05-18T13:08:41Z</time>
      </trkpt>
      <trkpt lat="41.8753710" lon="-8.8388950">
        <ele>7.9</ele>
        <time>2021-05-18T13:08:42Z</time>
      </trkpt>
      <trkpt lat="41.8753710" lon="-8.8388950">
        <ele>7.9</ele>
        <time>2021-05-18T13:08:43Z</time>
      </trkpt>
      <trkpt lat="41.8753710" lon="-8.8388950">
        <ele>7.9</ele>
        <time>2021-05-18T13:08:44Z</time>
      </trkpt>
      <trkpt lat="41.8753710" lon="-8.8388950">
        <ele>7.9</ele>
        <time>2021-05-18T13:08:45Z</time>
      </trkpt>
      <trkpt lat="41.8753710" lon="-8.8388950">
        <ele>7.9</ele>
        <time>2021-05-18T13:08:46Z</time>
      </trkpt>
      <trkpt lat="41.8753620" lon="-8.8389010">
        <ele>7.9</ele>
        <time>2021-05-18T13:08:47Z</time>
      </trkpt>
      <trkpt lat="41.8753610" lon="-8.8389010">
        <ele>7.9</ele>
        <time>2021-05-18T13:08:48Z</time>
      </trkpt>
      <trkpt lat="41.8753610" lon="-8.8389010">
        <ele>7.9</ele>
        <time>2021-05-18T13:08:49Z</time>
      </trkpt>
      <trkpt lat="41.8753610" lon="-8.8389020">
        <ele>7.9</ele>
        <time>2021-05-18T13:08:50Z</time>
      </trkpt>
      <trkpt lat="41.8753610" lon="-8.8389020">
        <ele>7.9</ele>
        <time>2021-05-18T13:08:51Z</time>
      </trkpt>
      <trkpt lat="41.8753610" lon="-8.8389020">
        <ele>7.9</ele>
        <time>2021-05-18T13:08:52Z</time>
      </trkpt>
      <trkpt lat="41.8753610" lon="-8.8389020">
        <ele>7.9</ele>
        <time>2021-05-18T13:08:53Z</time>
      </trkpt>
      <trkpt lat="41.8753610" lon="-8.8389020">
        <ele>7.9</ele>
        <time>2021-05-18T13:08:54Z</time>
      </trkpt>
      <trkpt lat="41.8753610" lon="-8.8389020">
        <ele>7.9</ele>
        <time>2021-05-18T13:08:55Z</time>
      </trkpt>
      <trkpt lat="41.8753610" lon="-8.8389020">
        <ele>7.9</ele>
        <time>2021-05-18T13:08:56Z</time>
      </trkpt>
      <trkpt lat="41.8753610" lon="-8.8389020">
        <ele>7.9</ele>
        <time>2021-05-18T13:08:57Z</time>
      </trkpt>
      <trkpt lat="41.8753610" lon="-8.8389020">
        <ele>7.9</ele>
        <time>2021-05-18T13:08:58Z</time>
      </trkpt>
      <trkpt lat="41.8753610" lon="-8.8389020">
        <ele>7.9</ele>
        <time>2021-05-18T13:08:59Z</time>
      </trkpt>
      <trkpt lat="41.8753610" lon="-8.8389020">
        <ele>7.9</ele>
        <time>2021-05-18T13:09:00Z</time>
      </trkpt>
      <trkpt lat="41.8753610" lon="-8.8389020">
        <ele>7.9</ele>
        <time>2021-05-18T13:09:01Z</time>
      </trkpt>
      <trkpt lat="41.8753610" lon="-8.8389020">
        <ele>7.9</ele>
        <time>2021-05-18T13:09:02Z</time>
      </trkpt>
      <trkpt lat="41.8753610" lon="-8.8389020">
        <ele>7.9</ele>
        <time>2021-05-18T13:09:03Z</time>
      </trkpt>
      <trkpt lat="41.8753610" lon="-8.8389020">
        <ele>7.9</ele>
        <time>2021-05-18T13:09:04Z</time>
      </trkpt>
      <trkpt lat="41.8753610" lon="-8.8389020">
        <ele>7.9</ele>
        <time>2021-05-18T13:09:05Z</time>
      </trkpt>
      <trkpt lat="41.8753530" lon="-8.8389130">
        <ele>7.9</ele>
        <time>2021-05-18T13:09:06Z</time>
      </trkpt>
      <trkpt lat="41.8753520" lon="-8.8389140">
        <ele>7.9</ele>
        <time>2021-05-18T13:09:07Z</time>
      </trkpt>
      <trkpt lat="41.8753520" lon="-8.8389140">
        <ele>7.9</ele>
        <time>2021-05-18T13:09:08Z</time>
      </trkpt>
      <trkpt lat="41.8753510" lon="-8.8389130">
        <ele>7.9</ele>
        <time>2021-05-18T13:09:09Z</time>
      </trkpt>
      <trkpt lat="41.8753490" lon="-8.8389150">
        <ele>7.9</ele>
        <time>2021-05-18T13:09:10Z</time>
      </trkpt>
      <trkpt lat="41.8753460" lon="-8.8389190">
        <ele>7.9</ele>
        <time>2021-05-18T13:09:11Z</time>
      </trkpt>
      <trkpt lat="41.8753430" lon="-8.8389200">
        <ele>7.9</ele>
        <time>2021-05-18T13:09:12Z</time>
      </trkpt>
      <trkpt lat="41.8753430" lon="-8.8389200">
        <ele>7.9</ele>
        <time>2021-05-18T13:09:13Z</time>
      </trkpt>
      <trkpt lat="41.8753410" lon="-8.8389220">
        <ele>7.9</ele>
        <time>2021-05-18T13:09:14Z</time>
      </trkpt>
      <trkpt lat="41.8753420" lon="-8.8389190">
        <ele>7.9</ele>
        <time>2021-05-18T13:09:15Z</time>
      </trkpt>
      <trkpt lat="41.8753430" lon="-8.8389170">
        <ele>7.9</ele>
        <time>2021-05-18T13:09:16Z</time>
      </trkpt>
      <trkpt lat="41.8753370" lon="-8.8389220">
        <ele>7.9</ele>
        <time>2021-05-18T13:09:17Z</time>
      </trkpt>
      <trkpt lat="41.8753340" lon="-8.8389250">
        <ele>7.9</ele>
        <time>2021-05-18T13:09:18Z</time>
      </trkpt>
      <trkpt lat="41.8753340" lon="-8.8389270">
        <ele>7.9</ele>
        <time>2021-05-18T13:09:19Z</time>
      </trkpt>
      <trkpt lat="41.8753340" lon="-8.8389270">
        <ele>7.9</ele>
        <time>2021-05-18T13:09:20Z</time>
      </trkpt>
      <trkpt lat="41.8753340" lon="-8.8389270">
        <ele>7.9</ele>
        <time>2021-05-18T13:09:21Z</time>
      </trkpt>
      <trkpt lat="41.8753340" lon="-8.8389270">
        <ele>7.9</ele>
        <time>2021-05-18T13:09:22Z</time>
      </trkpt>
      <trkpt lat="41.8753340" lon="-8.8389270">
        <ele>7.9</ele>
        <time>2021-05-18T13:09:23Z</time>
      </trkpt>
      <trkpt lat="41.8753340" lon="-8.8389270">
        <ele>7.9</ele>
        <time>2021-05-18T13:09:24Z</time>
      </trkpt>
      <trkpt lat="41.8753340" lon="-8.8389270">
        <ele>7.9</ele>
        <time>2021-05-18T13:09:25Z</time>
      </trkpt>
      <trkpt lat="41.8753370" lon="-8.8389230">
        <ele>7.9</ele>
        <time>2021-05-18T13:09:26Z</time>
      </trkpt>
      <trkpt lat="41.8753350" lon="-8.8389240">
        <ele>7.9</ele>
        <time>2021-05-18T13:09:27Z</time>
      </trkpt>
      <trkpt lat="41.8753320" lon="-8.8389230">
        <ele>7.9</ele>
        <time>2021-05-18T13:09:28Z</time>
      </trkpt>
      <trkpt lat="41.8753310" lon="-8.8389230">
        <ele>7.9</ele>
        <time>2021-05-18T13:09:29Z</time>
      </trkpt>
      <trkpt lat="41.8753310" lon="-8.8389220">
        <ele>7.9</ele>
        <time>2021-05-18T13:09:30Z</time>
      </trkpt>
      <trkpt lat="41.8753400" lon="-8.8389170">
        <ele>7.9</ele>
        <time>2021-05-18T13:09:31Z</time>
      </trkpt>
      <trkpt lat="41.8753430" lon="-8.8389090">
        <ele>7.9</ele>
        <time>2021-05-18T13:09:32Z</time>
      </trkpt>
      <trkpt lat="41.8753470" lon="-8.8389040">
        <ele>7.9</ele>
        <time>2021-05-18T13:09:33Z</time>
      </trkpt>
      <trkpt lat="41.8753490" lon="-8.8389070">
        <ele>7.9</ele>
        <time>2021-05-18T13:09:34Z</time>
      </trkpt>
      <trkpt lat="41.8753610" lon="-8.8388970">
        <ele>7.9</ele>
        <time>2021-05-18T13:09:35Z</time>
      </trkpt>
      <trkpt lat="41.8753610" lon="-8.8388980">
        <ele>7.9</ele>
        <time>2021-05-18T13:09:36Z</time>
      </trkpt>
      <trkpt lat="41.8753490" lon="-8.8389070">
        <ele>7.9</ele>
        <time>2021-05-18T13:09:37Z</time>
      </trkpt>
      <trkpt lat="41.8753450" lon="-8.8389120">
        <ele>7.9</ele>
        <time>2021-05-18T13:09:38Z</time>
      </trkpt>
      <trkpt lat="41.8753450" lon="-8.8389120">
        <ele>7.9</ele>
        <time>2021-05-18T13:09:39Z</time>
      </trkpt>
      <trkpt lat="41.8753270" lon="-8.8389180">
        <ele>7.9</ele>
        <time>2021-05-18T13:09:40Z</time>
      </trkpt>
      <trkpt lat="41.8753270" lon="-8.8389180">
        <ele>7.9</ele>
        <time>2021-05-18T13:09:41Z</time>
      </trkpt>
      <trkpt lat="41.8753250" lon="-8.8389240">
        <ele>7.9</ele>
        <time>2021-05-18T13:09:42Z</time>
      </trkpt>
      <trkpt lat="41.8753220" lon="-8.8389220">
        <ele>7.9</ele>
        <time>2021-05-18T13:09:43Z</time>
      </trkpt>
      <trkpt lat="41.8753220" lon="-8.8389220">
        <ele>7.9</ele>
        <time>2021-05-18T13:09:44Z</time>
      </trkpt>
      <trkpt lat="41.8753280" lon="-8.8389270">
        <ele>7.9</ele>
        <time>2021-05-18T13:09:45Z</time>
      </trkpt>
      <trkpt lat="41.8753370" lon="-8.8389250">
        <ele>7.9</ele>
        <time>2021-05-18T13:09:46Z</time>
      </trkpt>
      <trkpt lat="41.8753580" lon="-8.8389070">
        <ele>7.9</ele>
        <time>2021-05-18T13:09:47Z</time>
      </trkpt>
      <trkpt lat="41.8753670" lon="-8.8389030">
        <ele>7.9</ele>
        <time>2021-05-18T13:09:48Z</time>
      </trkpt>
      <trkpt lat="41.8753600" lon="-8.8389200">
        <ele>7.9</ele>
        <time>2021-05-18T13:09:49Z</time>
      </trkpt>
      <trkpt lat="41.8753630" lon="-8.8389160">
        <ele>7.9</ele>
        <time>2021-05-18T13:09:50Z</time>
      </trkpt>
      <trkpt lat="41.8753630" lon="-8.8389160">
        <ele>7.9</ele>
        <time>2021-05-18T13:09:51Z</time>
      </trkpt>
      <trkpt lat="41.8753600" lon="-8.8389230">
        <ele>7.9</ele>
        <time>2021-05-18T13:09:52Z</time>
      </trkpt>
      <trkpt lat="41.8753560" lon="-8.8389300">
        <ele>7.9</ele>
        <time>2021-05-18T13:09:53Z</time>
      </trkpt>
      <trkpt lat="41.8753450" lon="-8.8389390">
        <ele>7.9</ele>
        <time>2021-05-18T13:09:54Z</time>
      </trkpt>
      <trkpt lat="41.8753440" lon="-8.8389400">
        <ele>7.9</ele>
        <time>2021-05-18T13:09:55Z</time>
      </trkpt>
      <trkpt lat="41.8753680" lon="-8.8389090">
        <ele>7.9</ele>
        <time>2021-05-18T13:09:56Z</time>
      </trkpt>
      <trkpt lat="41.8753670" lon="-8.8389060">
        <ele>7.9</ele>
        <time>2021-05-18T13:09:57Z</time>
      </trkpt>
      <trkpt lat="41.8753450" lon="-8.8389400">
        <ele>7.9</ele>
        <time>2021-05-18T13:09:58Z</time>
      </trkpt>
      <trkpt lat="41.8753320" lon="-8.8389500">
        <ele>7.9</ele>
        <time>2021-05-18T13:09:59Z</time>
      </trkpt>
      <trkpt lat="41.8753280" lon="-8.8389550">
        <ele>7.9</ele>
        <time>2021-05-18T13:10:00Z</time>
      </trkpt>
      <trkpt lat="41.8753270" lon="-8.8389570">
        <ele>7.9</ele>
        <time>2021-05-18T13:10:01Z</time>
      </trkpt>
      <trkpt lat="41.8753440" lon="-8.8389350">
        <ele>7.9</ele>
        <time>2021-05-18T13:10:02Z</time>
      </trkpt>
      <trkpt lat="41.8753510" lon="-8.8389180">
        <ele>7.9</ele>
        <time>2021-05-18T13:10:03Z</time>
      </trkpt>
      <trkpt lat="41.8753560" lon="-8.8389070">
        <ele>7.9</ele>
        <time>2021-05-18T13:10:04Z</time>
      </trkpt>
      <trkpt lat="41.8753580" lon="-8.8389030">
        <ele>7.9</ele>
        <time>2021-05-18T13:10:05Z</time>
      </trkpt>
      <trkpt lat="41.8753570" lon="-8.8389040">
        <ele>7.9</ele>
        <time>2021-05-18T13:10:06Z</time>
      </trkpt>
      <trkpt lat="41.8753570" lon="-8.8389040">
        <ele>7.9</ele>
        <time>2021-05-18T13:10:07Z</time>
      </trkpt>
      <trkpt lat="41.8753570" lon="-8.8389040">
        <ele>7.9</ele>
        <time>2021-05-18T13:10:08Z</time>
      </trkpt>
      <trkpt lat="41.8753570" lon="-8.8389040">
        <ele>7.9</ele>
        <time>2021-05-18T13:10:09Z</time>
      </trkpt>
      <trkpt lat="41.8753570" lon="-8.8389040">
        <ele>7.9</ele>
        <time>2021-05-18T13:10:10Z</time>
      </trkpt>
      <trkpt lat="41.8753570" lon="-8.8389040">
        <ele>7.9</ele>
        <time>2021-05-18T13:10:11Z</time>
      </trkpt>
      <trkpt lat="41.8753570" lon="-8.8389040">
        <ele>7.9</ele>
        <time>2021-05-18T13:10:12Z</time>
      </trkpt>
      <trkpt lat="41.8753570" lon="-8.8389040">
        <ele>7.9</ele>
        <time>2021-05-18T13:10:13Z</time>
      </trkpt>
      <trkpt lat="41.8753570" lon="-8.8389040">
        <ele>7.9</ele>
        <time>2021-05-18T13:10:14Z</time>
      </trkpt>
      <trkpt lat="41.8753570" lon="-8.8389040">
        <ele>7.9</ele>
        <time>2021-05-18T13:10:15Z</time>
      </trkpt>
      <trkpt lat="41.8753550" lon="-8.8388950">
        <ele>7.9</ele>
        <time>2021-05-18T13:10:16Z</time>
      </trkpt>
      <trkpt lat="41.8753560" lon="-8.8388960">
        <ele>7.9</ele>
        <time>2021-05-18T13:10:17Z</time>
      </trkpt>
      <trkpt lat="41.8753550" lon="-8.8388970">
        <ele>7.9</ele>
        <time>2021-05-18T13:10:18Z</time>
      </trkpt>
      <trkpt lat="41.8753550" lon="-8.8388970">
        <ele>7.9</ele>
        <time>2021-05-18T13:10:19Z</time>
      </trkpt>
      <trkpt lat="41.8753550" lon="-8.8388970">
        <ele>7.9</ele>
        <time>2021-05-18T13:10:20Z</time>
      </trkpt>
      <trkpt lat="41.8753610" lon="-8.8388960">
        <ele>7.9</ele>
        <time>2021-05-18T13:10:21Z</time>
      </trkpt>
      <trkpt lat="41.8753610" lon="-8.8388970">
        <ele>7.9</ele>
        <time>2021-05-18T13:10:22Z</time>
      </trkpt>
      <trkpt lat="41.8753630" lon="-8.8388940">
        <ele>7.9</ele>
        <time>2021-05-18T13:10:23Z</time>
      </trkpt>
      <trkpt lat="41.8753580" lon="-8.8388980">
        <ele>7.9</ele>
        <time>2021-05-18T13:10:24Z</time>
      </trkpt>
      <trkpt lat="41.8753570" lon="-8.8389010">
        <ele>7.9</ele>
        <time>2021-05-18T13:10:25Z</time>
      </trkpt>
      <trkpt lat="41.8753570" lon="-8.8389010">
        <ele>7.9</ele>
        <time>2021-05-18T13:10:26Z</time>
      </trkpt>
      <trkpt lat="41.8753600" lon="-8.8389010">
        <ele>7.9</ele>
        <time>2021-05-18T13:10:27Z</time>
      </trkpt>
      <trkpt lat="41.8753620" lon="-8.8389030">
        <ele>7.9</ele>
        <time>2021-05-18T13:10:28Z</time>
      </trkpt>
      <trkpt lat="41.8753620" lon="-8.8389020">
        <ele>7.9</ele>
        <time>2021-05-18T13:10:29Z</time>
      </trkpt>
      <trkpt lat="41.8753620" lon="-8.8389020">
        <ele>7.9</ele>
        <time>2021-05-18T13:10:30Z</time>
      </trkpt>
      <trkpt lat="41.8753620" lon="-8.8389020">
        <ele>7.9</ele>
        <time>2021-05-18T13:10:31Z</time>
      </trkpt>
      <trkpt lat="41.8753620" lon="-8.8389020">
        <ele>7.9</ele>
        <time>2021-05-18T13:10:32Z</time>
      </trkpt>
      <trkpt lat="41.8753620" lon="-8.8389020">
        <ele>7.9</ele>
        <time>2021-05-18T13:10:33Z</time>
      </trkpt>
      <trkpt lat="41.8753620" lon="-8.8389020">
        <ele>7.9</ele>
        <time>2021-05-18T13:10:34Z</time>
      </trkpt>
      <trkpt lat="41.8753620" lon="-8.8389020">
        <ele>7.9</ele>
        <time>2021-05-18T13:10:35Z</time>
      </trkpt>
      <trkpt lat="41.8753620" lon="-8.8389020">
        <ele>7.9</ele>
        <time>2021-05-18T13:10:36Z</time>
      </trkpt>
      <trkpt lat="41.8753620" lon="-8.8389020">
        <ele>7.9</ele>
        <time>2021-05-18T13:10:37Z</time>
      </trkpt>
      <trkpt lat="41.8753620" lon="-8.8389020">
        <ele>7.9</ele>
        <time>2021-05-18T13:10:38Z</time>
      </trkpt>
      <trkpt lat="41.8753620" lon="-8.8389020">
        <ele>7.9</ele>
        <time>2021-05-18T13:10:39Z</time>
      </trkpt>
      <trkpt lat="41.8753620" lon="-8.8389020">
        <ele>7.9</ele>
        <time>2021-05-18T13:10:40Z</time>
      </trkpt>
      <trkpt lat="41.8753550" lon="-8.8388980">
        <ele>7.9</ele>
        <time>2021-05-18T13:10:41Z</time>
      </trkpt>
      <trkpt lat="41.8753540" lon="-8.8388970">
        <ele>7.9</ele>
        <time>2021-05-18T13:10:42Z</time>
      </trkpt>
      <trkpt lat="41.8753540" lon="-8.8388970">
        <ele>7.9</ele>
        <time>2021-05-18T13:10:43Z</time>
      </trkpt>
      <trkpt lat="41.8753540" lon="-8.8388970">
        <ele>7.9</ele>
        <time>2021-05-18T13:10:44Z</time>
      </trkpt>
      <trkpt lat="41.8753540" lon="-8.8388970">
        <ele>7.9</ele>
        <time>2021-05-18T13:10:45Z</time>
      </trkpt>
      <trkpt lat="41.8753540" lon="-8.8388970">
        <ele>7.9</ele>
        <time>2021-05-18T13:10:46Z</time>
      </trkpt>
      <trkpt lat="41.8753540" lon="-8.8388970">
        <ele>7.9</ele>
        <time>2021-05-18T13:10:47Z</time>
      </trkpt>
      <trkpt lat="41.8753540" lon="-8.8388970">
        <ele>7.9</ele>
        <time>2021-05-18T13:10:48Z</time>
      </trkpt>
      <trkpt lat="41.8753540" lon="-8.8388970">
        <ele>7.9</ele>
        <time>2021-05-18T13:10:49Z</time>
      </trkpt>
      <trkpt lat="41.8753540" lon="-8.8388970">
        <ele>7.9</ele>
        <time>2021-05-18T13:10:50Z</time>
      </trkpt>
      <trkpt lat="41.8753540" lon="-8.8388970">
        <ele>7.9</ele>
        <time>2021-05-18T13:10:51Z</time>
      </trkpt>
      <trkpt lat="41.8753540" lon="-8.8388970">
        <ele>7.9</ele>
        <time>2021-05-18T13:10:52Z</time>
      </trkpt>
      <trkpt lat="41.8753540" lon="-8.8388970">
        <ele>7.9</ele>
        <time>2021-05-18T13:10:53Z</time>
      </trkpt>
      <trkpt lat="41.8753540" lon="-8.8388970">
        <ele>7.9</ele>
        <time>2021-05-18T13:10:54Z</time>
      </trkpt>
      <trkpt lat="41.8753540" lon="-8.8388970">
        <ele>7.9</ele>
        <time>2021-05-18T13:10:55Z</time>
      </trkpt>
      <trkpt lat="41.8753540" lon="-8.8388970">
        <ele>7.9</ele>
        <time>2021-05-18T13:10:56Z</time>
      </trkpt>
      <trkpt lat="41.8753540" lon="-8.8388970">
        <ele>7.9</ele>
        <time>2021-05-18T13:10:57Z</time>
      </trkpt>
      <trkpt lat="41.8753590" lon="-8.8388840">
        <ele>7.9</ele>
        <time>2021-05-18T13:10:58Z</time>
      </trkpt>
      <trkpt lat="41.8753600" lon="-8.8388860">
        <ele>7.9</ele>
        <time>2021-05-18T13:10:59Z</time>
      </trkpt>
      <trkpt lat="41.8753600" lon="-8.8388860">
        <ele>7.9</ele>
        <time>2021-05-18T13:11:00Z</time>
      </trkpt>
      <trkpt lat="41.8753600" lon="-8.8388860">
        <ele>7.9</ele>
        <time>2021-05-18T13:11:01Z</time>
      </trkpt>
      <trkpt lat="41.8753600" lon="-8.8388860">
        <ele>7.9</ele>
        <time>2021-05-18T13:11:02Z</time>
      </trkpt>
      <trkpt lat="41.8753600" lon="-8.8388860">
        <ele>7.9</ele>
        <time>2021-05-18T13:11:03Z</time>
      </trkpt>
      <trkpt lat="41.8753600" lon="-8.8388860">
        <ele>7.9</ele>
        <time>2021-05-18T13:11:04Z</time>
      </trkpt>
      <trkpt lat="41.8753600" lon="-8.8388860">
        <ele>7.9</ele>
        <time>2021-05-18T13:11:05Z</time>
      </trkpt>
      <trkpt lat="41.8753600" lon="-8.8388860">
        <ele>7.9</ele>
        <time>2021-05-18T13:11:06Z</time>
      </trkpt>
      <trkpt lat="41.8753600" lon="-8.8388860">
        <ele>7.9</ele>
        <time>2021-05-18T13:11:07Z</time>
      </trkpt>
      <trkpt lat="41.8753600" lon="-8.8388860">
        <ele>7.9</ele>
        <time>2021-05-18T13:11:08Z</time>
      </trkpt>
      <trkpt lat="41.8753460" lon="-8.8389020">
        <ele>7.9</ele>
        <time>2021-05-18T13:11:09Z</time>
      </trkpt>
      <trkpt lat="41.8753460" lon="-8.8389020">
        <ele>7.9</ele>
        <time>2021-05-18T13:11:10Z</time>
      </trkpt>
      <trkpt lat="41.8753460" lon="-8.8389020">
        <ele>7.9</ele>
        <time>2021-05-18T13:11:11Z</time>
      </trkpt>
      <trkpt lat="41.8753430" lon="-8.8389020">
        <ele>7.9</ele>
        <time>2021-05-18T13:11:12Z</time>
      </trkpt>
      <trkpt lat="41.8753420" lon="-8.8389050">
        <ele>7.9</ele>
        <time>2021-05-18T13:11:13Z</time>
      </trkpt>
      <trkpt lat="41.8753390" lon="-8.8389080">
        <ele>7.9</ele>
        <time>2021-05-18T13:11:14Z</time>
      </trkpt>
      <trkpt lat="41.8753400" lon="-8.8389070">
        <ele>7.9</ele>
        <time>2021-05-18T13:11:15Z</time>
      </trkpt>
      <trkpt lat="41.8753350" lon="-8.8389100">
        <ele>7.9</ele>
        <time>2021-05-18T13:11:16Z</time>
      </trkpt>
      <trkpt lat="41.8753380" lon="-8.8389090">
        <ele>7.9</ele>
        <time>2021-05-18T13:11:17Z</time>
      </trkpt>
      <trkpt lat="41.8753380" lon="-8.8389090">
        <ele>7.9</ele>
        <time>2021-05-18T13:11:18Z</time>
      </trkpt>
      <trkpt lat="41.8753380" lon="-8.8389090">
        <ele>7.9</ele>
        <time>2021-05-18T13:11:19Z</time>
      </trkpt>
      <trkpt lat="41.8753320" lon="-8.8389120">
        <ele>7.9</ele>
        <time>2021-05-18T13:11:20Z</time>
      </trkpt>
      <trkpt lat="41.8753310" lon="-8.8389140">
        <ele>7.9</ele>
        <time>2021-05-18T13:11:21Z</time>
      </trkpt>
      <trkpt lat="41.8753310" lon="-8.8389140">
        <ele>7.9</ele>
        <time>2021-05-18T13:11:22Z</time>
      </trkpt>
      <trkpt lat="41.8753310" lon="-8.8389140">
        <ele>7.9</ele>
        <time>2021-05-18T13:11:23Z</time>
      </trkpt>
      <trkpt lat="41.8753310" lon="-8.8389140">
        <ele>7.9</ele>
        <time>2021-05-18T13:11:24Z</time>
      </trkpt>
      <trkpt lat="41.8753310" lon="-8.8389140">
        <ele>7.9</ele>
        <time>2021-05-18T13:11:25Z</time>
      </trkpt>
      <trkpt lat="41.8753310" lon="-8.8389140">
        <ele>7.9</ele>
        <time>2021-05-18T13:11:26Z</time>
      </trkpt>
      <trkpt lat="41.8753310" lon="-8.8389140">
        <ele>7.9</ele>
        <time>2021-05-18T13:11:27Z</time>
      </trkpt>
      <trkpt lat="41.8753310" lon="-8.8389140">
        <ele>7.9</ele>
        <time>2021-05-18T13:11:28Z</time>
      </trkpt>
      <trkpt lat="41.8753310" lon="-8.8389140">
        <ele>7.9</ele>
        <time>2021-05-18T13:11:29Z</time>
      </trkpt>
      <trkpt lat="41.8753310" lon="-8.8389140">
        <ele>7.9</ele>
        <time>2021-05-18T13:11:30Z</time>
      </trkpt>
      <trkpt lat="41.8753310" lon="-8.8389140">
        <ele>7.9</ele>
        <time>2021-05-18T13:11:31Z</time>
      </trkpt>
      <trkpt lat="41.8753310" lon="-8.8389140">
        <ele>7.9</ele>
        <time>2021-05-18T13:11:32Z</time>
      </trkpt>
      <trkpt lat="41.8753310" lon="-8.8389140">
        <ele>7.9</ele>
        <time>2021-05-18T13:11:33Z</time>
      </trkpt>
      <trkpt lat="41.8753310" lon="-8.8389140">
        <ele>7.9</ele>
        <time>2021-05-18T13:11:34Z</time>
      </trkpt>
      <trkpt lat="41.8753310" lon="-8.8389140">
        <ele>7.9</ele>
        <time>2021-05-18T13:11:35Z</time>
      </trkpt>
      <trkpt lat="41.8753310" lon="-8.8389140">
        <ele>7.9</ele>
        <time>2021-05-18T13:11:36Z</time>
      </trkpt>
      <trkpt lat="41.8753310" lon="-8.8389140">
        <ele>7.9</ele>
        <time>2021-05-18T13:11:37Z</time>
      </trkpt>
      <trkpt lat="41.8753310" lon="-8.8389140">
        <ele>7.9</ele>
        <time>2021-05-18T13:11:38Z</time>
      </trkpt>
      <trkpt lat="41.8753310" lon="-8.8389140">
        <ele>7.9</ele>
        <time>2021-05-18T13:11:39Z</time>
      </trkpt>
      <trkpt lat="41.8753310" lon="-8.8389140">
        <ele>7.9</ele>
        <time>2021-05-18T13:11:40Z</time>
      </trkpt>
      <trkpt lat="41.8753310" lon="-8.8389140">
        <ele>7.9</ele>
        <time>2021-05-18T13:11:41Z</time>
      </trkpt>
      <trkpt lat="41.8753250" lon="-8.8389000">
        <ele>7.9</ele>
        <time>2021-05-18T13:11:42Z</time>
      </trkpt>
      <trkpt lat="41.8753250" lon="-8.8389000">
        <ele>7.9</ele>
        <time>2021-05-18T13:11:43Z</time>
      </trkpt>
      <trkpt lat="41.8753250" lon="-8.8389000">
        <ele>7.9</ele>
        <time>2021-05-18T13:11:44Z</time>
      </trkpt>
      <trkpt lat="41.8753250" lon="-8.8389000">
        <ele>7.9</ele>
        <time>2021-05-18T13:11:45Z</time>
      </trkpt>
      <trkpt lat="41.8753250" lon="-8.8389000">
        <ele>7.9</ele>
        <time>2021-05-18T13:11:46Z</time>
      </trkpt>
      <trkpt lat="41.8753250" lon="-8.8389000">
        <ele>7.9</ele>
        <time>2021-05-18T13:11:47Z</time>
      </trkpt>
      <trkpt lat="41.8753250" lon="-8.8389000">
        <ele>7.9</ele>
        <time>2021-05-18T13:11:48Z</time>
      </trkpt>
      <trkpt lat="41.8753250" lon="-8.8389000">
        <ele>7.9</ele>
        <time>2021-05-18T13:11:49Z</time>
      </trkpt>
      <trkpt lat="41.8753250" lon="-8.8389000">
        <ele>7.9</ele>
        <time>2021-05-18T13:11:50Z</time>
      </trkpt>
      <trkpt lat="41.8753250" lon="-8.8389000">
        <ele>7.9</ele>
        <time>2021-05-18T13:11:51Z</time>
      </trkpt>
      <trkpt lat="41.8753210" lon="-8.8389020">
        <ele>7.9</ele>
        <time>2021-05-18T13:11:52Z</time>
      </trkpt>
      <trkpt lat="41.8753190" lon="-8.8389030">
        <ele>7.9</ele>
        <time>2021-05-18T13:11:53Z</time>
      </trkpt>
      <trkpt lat="41.8753180" lon="-8.8389050">
        <ele>7.9</ele>
        <time>2021-05-18T13:11:54Z</time>
      </trkpt>
      <trkpt lat="41.8753180" lon="-8.8389050">
        <ele>7.9</ele>
        <time>2021-05-18T13:11:55Z</time>
      </trkpt>
      <trkpt lat="41.8753200" lon="-8.8389080">
        <ele>7.9</ele>
        <time>2021-05-18T13:11:56Z</time>
      </trkpt>
      <trkpt lat="41.8753180" lon="-8.8389100">
        <ele>7.9</ele>
        <time>2021-05-18T13:11:57Z</time>
      </trkpt>
      <trkpt lat="41.8753180" lon="-8.8389100">
        <ele>7.9</ele>
        <time>2021-05-18T13:11:58Z</time>
      </trkpt>
      <trkpt lat="41.8753180" lon="-8.8389100">
        <ele>7.9</ele>
        <time>2021-05-18T13:11:59Z</time>
      </trkpt>
      <trkpt lat="41.8753180" lon="-8.8389100">
        <ele>7.9</ele>
        <time>2021-05-18T13:12:00Z</time>
      </trkpt>
      <trkpt lat="41.8753180" lon="-8.8389100">
        <ele>7.9</ele>
        <time>2021-05-18T13:12:01Z</time>
      </trkpt>
      <trkpt lat="41.8753180" lon="-8.8389100">
        <ele>7.9</ele>
        <time>2021-05-18T13:12:02Z</time>
      </trkpt>
      <trkpt lat="41.8753180" lon="-8.8389100">
        <ele>7.9</ele>
        <time>2021-05-18T13:12:03Z</time>
      </trkpt>
      <trkpt lat="41.8753180" lon="-8.8389100">
        <ele>7.9</ele>
        <time>2021-05-18T13:12:04Z</time>
      </trkpt>
      <trkpt lat="41.8753180" lon="-8.8389100">
        <ele>7.9</ele>
        <time>2021-05-18T13:12:05Z</time>
      </trkpt>
      <trkpt lat="41.8753180" lon="-8.8389100">
        <ele>7.9</ele>
        <time>2021-05-18T13:12:06Z</time>
      </trkpt>
      <trkpt lat="41.8753120" lon="-8.8389210">
        <ele>7.9</ele>
        <time>2021-05-18T13:12:07Z</time>
      </trkpt>
      <trkpt lat="41.8753120" lon="-8.8389210">
        <ele>7.9</ele>
        <time>2021-05-18T13:12:08Z</time>
      </trkpt>
      <trkpt lat="41.8753110" lon="-8.8389210">
        <ele>7.9</ele>
        <time>2021-05-18T13:12:09Z</time>
      </trkpt>
      <trkpt lat="41.8753070" lon="-8.8389270">
        <ele>7.9</ele>
        <time>2021-05-18T13:12:10Z</time>
      </trkpt>
      <trkpt lat="41.8753060" lon="-8.8389270">
        <ele>7.9</ele>
        <time>2021-05-18T13:12:11Z</time>
      </trkpt>
      <trkpt lat="41.8753070" lon="-8.8389260">
        <ele>7.9</ele>
        <time>2021-05-18T13:12:12Z</time>
      </trkpt>
      <trkpt lat="41.8753070" lon="-8.8389260">
        <ele>7.9</ele>
        <time>2021-05-18T13:12:13Z</time>
      </trkpt>
      <trkpt lat="41.8753070" lon="-8.8389260">
        <ele>7.9</ele>
        <time>2021-05-18T13:12:14Z</time>
      </trkpt>
      <trkpt lat="41.8753070" lon="-8.8389260">
        <ele>7.9</ele>
        <time>2021-05-18T13:12:15Z</time>
      </trkpt>
      <trkpt lat="41.8753070" lon="-8.8389260">
        <ele>7.9</ele>
        <time>2021-05-18T13:12:16Z</time>
      </trkpt>
      <trkpt lat="41.8753070" lon="-8.8389260">
        <ele>7.9</ele>
        <time>2021-05-18T13:12:17Z</time>
      </trkpt>
      <trkpt lat="41.8753070" lon="-8.8389260">
        <ele>7.9</ele>
        <time>2021-05-18T13:12:18Z</time>
      </trkpt>
      <trkpt lat="41.8753070" lon="-8.8389260">
        <ele>7.9</ele>
        <time>2021-05-18T13:12:19Z</time>
      </trkpt>
      <trkpt lat="41.8753070" lon="-8.8389260">
        <ele>7.9</ele>
        <time>2021-05-18T13:12:20Z</time>
      </trkpt>
      <trkpt lat="41.8753070" lon="-8.8389260">
        <ele>7.9</ele>
        <time>2021-05-18T13:12:21Z</time>
      </trkpt>
      <trkpt lat="41.8753300" lon="-8.8389130">
        <ele>7.9</ele>
        <time>2021-05-18T13:12:22Z</time>
      </trkpt>
      <trkpt lat="41.8753300" lon="-8.8389100">
        <ele>7.9</ele>
        <time>2021-05-18T13:12:23Z</time>
      </trkpt>
      <trkpt lat="41.8753310" lon="-8.8389090">
        <ele>7.9</ele>
        <time>2021-05-18T13:12:24Z</time>
      </trkpt>
      <trkpt lat="41.8753330" lon="-8.8389080">
        <ele>7.9</ele>
        <time>2021-05-18T13:12:25Z</time>
      </trkpt>
      <trkpt lat="41.8753300" lon="-8.8389120">
        <ele>7.9</ele>
        <time>2021-05-18T13:12:26Z</time>
      </trkpt>
      <trkpt lat="41.8753320" lon="-8.8389100">
        <ele>7.9</ele>
        <time>2021-05-18T13:12:27Z</time>
      </trkpt>
      <trkpt lat="41.8753340" lon="-8.8389050">
        <ele>7.9</ele>
        <time>2021-05-18T13:12:28Z</time>
      </trkpt>
      <trkpt lat="41.8753350" lon="-8.8389050">
        <ele>7.9</ele>
        <time>2021-05-18T13:12:29Z</time>
      </trkpt>
      <trkpt lat="41.8753350" lon="-8.8389050">
        <ele>7.9</ele>
        <time>2021-05-18T13:12:30Z</time>
      </trkpt>
      <trkpt lat="41.8753350" lon="-8.8389050">
        <ele>7.9</ele>
        <time>2021-05-18T13:12:31Z</time>
      </trkpt>
      <trkpt lat="41.8753270" lon="-8.8389110">
        <ele>7.9</ele>
        <time>2021-05-18T13:12:32Z</time>
      </trkpt>
      <trkpt lat="41.8753300" lon="-8.8389070">
        <ele>7.9</ele>
        <time>2021-05-18T13:12:33Z</time>
      </trkpt>
      <trkpt lat="41.8753300" lon="-8.8389090">
        <ele>7.9</ele>
        <time>2021-05-18T13:12:34Z</time>
      </trkpt>
      <trkpt lat="41.8753300" lon="-8.8389090">
        <ele>7.9</ele>
        <time>2021-05-18T13:12:35Z</time>
      </trkpt>
      <trkpt lat="41.8753300" lon="-8.8389090">
        <ele>7.9</ele>
        <time>2021-05-18T13:12:36Z</time>
      </trkpt>
      <trkpt lat="41.8753300" lon="-8.8389090">
        <ele>7.9</ele>
        <time>2021-05-18T13:12:37Z</time>
      </trkpt>
      <trkpt lat="41.8753300" lon="-8.8389090">
        <ele>7.9</ele>
        <time>2021-05-18T13:12:38Z</time>
      </trkpt>
      <trkpt lat="41.8753300" lon="-8.8389090">
        <ele>7.9</ele>
        <time>2021-05-18T13:12:39Z</time>
      </trkpt>
      <trkpt lat="41.8753300" lon="-8.8389090">
        <ele>7.9</ele>
        <time>2021-05-18T13:12:40Z</time>
      </trkpt>
      <trkpt lat="41.8753300" lon="-8.8389090">
        <ele>7.9</ele>
        <time>2021-05-18T13:12:41Z</time>
      </trkpt>
      <trkpt lat="41.8753300" lon="-8.8389090">
        <ele>7.9</ele>
        <time>2021-05-18T13:12:42Z</time>
      </trkpt>
      <trkpt lat="41.8753300" lon="-8.8389090">
        <ele>7.9</ele>
        <time>2021-05-18T13:12:43Z</time>
      </trkpt>
      <trkpt lat="41.8753300" lon="-8.8389090">
        <ele>7.9</ele>
        <time>2021-05-18T13:12:44Z</time>
      </trkpt>
      <trkpt lat="41.8753300" lon="-8.8389090">
        <ele>7.9</ele>
        <time>2021-05-18T13:12:45Z</time>
      </trkpt>
      <trkpt lat="41.8753300" lon="-8.8389090">
        <ele>7.9</ele>
        <time>2021-05-18T13:12:46Z</time>
      </trkpt>
      <trkpt lat="41.8753300" lon="-8.8389090">
        <ele>7.9</ele>
        <time>2021-05-18T13:12:47Z</time>
      </trkpt>
      <trkpt lat="41.8753300" lon="-8.8389090">
        <ele>7.9</ele>
        <time>2021-05-18T13:12:48Z</time>
      </trkpt>
      <trkpt lat="41.8753300" lon="-8.8389090">
        <ele>7.9</ele>
        <time>2021-05-18T13:12:49Z</time>
      </trkpt>
      <trkpt lat="41.8753300" lon="-8.8389090">
        <ele>7.9</ele>
        <time>2021-05-18T13:12:50Z</time>
      </trkpt>
      <trkpt lat="41.8753300" lon="-8.8389090">
        <ele>7.9</ele>
        <time>2021-05-18T13:12:51Z</time>
      </trkpt>
      <trkpt lat="41.8753300" lon="-8.8389090">
        <ele>7.9</ele>
        <time>2021-05-18T13:12:52Z</time>
      </trkpt>
      <trkpt lat="41.8753300" lon="-8.8389090">
        <ele>7.9</ele>
        <time>2021-05-18T13:12:53Z</time>
      </trkpt>
      <trkpt lat="41.8753300" lon="-8.8389090">
        <ele>7.9</ele>
        <time>2021-05-18T13:12:54Z</time>
      </trkpt>
      <trkpt lat="41.8753300" lon="-8.8389090">
        <ele>7.9</ele>
        <time>2021-05-18T13:12:55Z</time>
      </trkpt>
      <trkpt lat="41.8753300" lon="-8.8389090">
        <ele>7.9</ele>
        <time>2021-05-18T13:12:56Z</time>
      </trkpt>
      <trkpt lat="41.8753300" lon="-8.8389090">
        <ele>7.9</ele>
        <time>2021-05-18T13:12:57Z</time>
      </trkpt>
      <trkpt lat="41.8753300" lon="-8.8389090">
        <ele>7.9</ele>
        <time>2021-05-18T13:12:58Z</time>
      </trkpt>
      <trkpt lat="41.8753300" lon="-8.8389090">
        <ele>7.9</ele>
        <time>2021-05-18T13:12:59Z</time>
      </trkpt>
      <trkpt lat="41.8753300" lon="-8.8389090">
        <ele>7.9</ele>
        <time>2021-05-18T13:13:00Z</time>
      </trkpt>
      <trkpt lat="41.8753300" lon="-8.8389090">
        <ele>7.9</ele>
        <time>2021-05-18T13:13:01Z</time>
      </trkpt>
      <trkpt lat="41.8753490" lon="-8.8388940">
        <ele>7.9</ele>
        <time>2021-05-18T13:13:02Z</time>
      </trkpt>
      <trkpt lat="41.8753490" lon="-8.8388930">
        <ele>7.9</ele>
        <time>2021-05-18T13:13:03Z</time>
      </trkpt>
      <trkpt lat="41.8753460" lon="-8.8388950">
        <ele>7.9</ele>
        <time>2021-05-18T13:13:04Z</time>
      </trkpt>
      <trkpt lat="41.8753430" lon="-8.8388950">
        <ele>7.9</ele>
        <time>2021-05-18T13:13:05Z</time>
      </trkpt>
      <trkpt lat="41.8753410" lon="-8.8388950">
        <ele>7.9</ele>
        <time>2021-05-18T13:13:06Z</time>
      </trkpt>
      <trkpt lat="41.8753400" lon="-8.8388940">
        <ele>7.9</ele>
        <time>2021-05-18T13:13:07Z</time>
      </trkpt>
      <trkpt lat="41.8753380" lon="-8.8389030">
        <ele>7.9</ele>
        <time>2021-05-18T13:13:08Z</time>
      </trkpt>
      <trkpt lat="41.8753440" lon="-8.8388990">
        <ele>7.9</ele>
        <time>2021-05-18T13:13:09Z</time>
      </trkpt>
      <trkpt lat="41.8753440" lon="-8.8388990">
        <ele>7.9</ele>
        <time>2021-05-18T13:13:10Z</time>
      </trkpt>
      <trkpt lat="41.8753440" lon="-8.8388990">
        <ele>7.9</ele>
        <time>2021-05-18T13:13:11Z</time>
      </trkpt>
      <trkpt lat="41.8753440" lon="-8.8388990">
        <ele>7.9</ele>
        <time>2021-05-18T13:13:12Z</time>
      </trkpt>
      <trkpt lat="41.8753440" lon="-8.8388990">
        <ele>7.9</ele>
        <time>2021-05-18T13:13:13Z</time>
      </trkpt>
      <trkpt lat="41.8753480" lon="-8.8388920">
        <ele>7.9</ele>
        <time>2021-05-18T13:13:14Z</time>
      </trkpt>
      <trkpt lat="41.8753470" lon="-8.8388900">
        <ele>7.9</ele>
        <time>2021-05-18T13:13:15Z</time>
      </trkpt>
      <trkpt lat="41.8753460" lon="-8.8388960">
        <ele>7.9</ele>
        <time>2021-05-18T13:13:16Z</time>
      </trkpt>
      <trkpt lat="41.8753510" lon="-8.8388970">
        <ele>7.9</ele>
        <time>2021-05-18T13:13:17Z</time>
      </trkpt>
      <trkpt lat="41.8753510" lon="-8.8389020">
        <ele>7.9</ele>
        <time>2021-05-18T13:13:18Z</time>
      </trkpt>
      <trkpt lat="41.8753510" lon="-8.8389020">
        <ele>7.9</ele>
        <time>2021-05-18T13:13:19Z</time>
      </trkpt>
      <trkpt lat="41.8753510" lon="-8.8389020">
        <ele>7.9</ele>
        <time>2021-05-18T13:13:20Z</time>
      </trkpt>
      <trkpt lat="41.8753510" lon="-8.8389020">
        <ele>7.9</ele>
        <time>2021-05-18T13:13:21Z</time>
      </trkpt>
      <trkpt lat="41.8753510" lon="-8.8389020">
        <ele>7.9</ele>
        <time>2021-05-18T13:13:22Z</time>
      </trkpt>
      <trkpt lat="41.8753510" lon="-8.8389020">
        <ele>7.9</ele>
        <time>2021-05-18T13:13:23Z</time>
      </trkpt>
      <trkpt lat="41.8753510" lon="-8.8389020">
        <ele>7.9</ele>
        <time>2021-05-18T13:13:24Z</time>
      </trkpt>
      <trkpt lat="41.8753510" lon="-8.8389020">
        <ele>7.9</ele>
        <time>2021-05-18T13:13:25Z</time>
      </trkpt>
      <trkpt lat="41.8753510" lon="-8.8389020">
        <ele>7.9</ele>
        <time>2021-05-18T13:13:26Z</time>
      </trkpt>
      <trkpt lat="41.8753510" lon="-8.8389020">
        <ele>7.9</ele>
        <time>2021-05-18T13:13:27Z</time>
      </trkpt>
      <trkpt lat="41.8753480" lon="-8.8389060">
        <ele>7.9</ele>
        <time>2021-05-18T13:13:28Z</time>
      </trkpt>
      <trkpt lat="41.8753480" lon="-8.8389060">
        <ele>7.9</ele>
        <time>2021-05-18T13:13:29Z</time>
      </trkpt>
      <trkpt lat="41.8753480" lon="-8.8389060">
        <ele>7.9</ele>
        <time>2021-05-18T13:13:30Z</time>
      </trkpt>
      <trkpt lat="41.8753480" lon="-8.8389060">
        <ele>7.9</ele>
        <time>2021-05-18T13:13:31Z</time>
      </trkpt>
      <trkpt lat="41.8753480" lon="-8.8389060">
        <ele>7.9</ele>
        <time>2021-05-18T13:13:32Z</time>
      </trkpt>
      <trkpt lat="41.8753480" lon="-8.8389060">
        <ele>7.9</ele>
        <time>2021-05-18T13:13:33Z</time>
      </trkpt>
      <trkpt lat="41.8753480" lon="-8.8389060">
        <ele>7.9</ele>
        <time>2021-05-18T13:13:34Z</time>
      </trkpt>
      <trkpt lat="41.8753480" lon="-8.8389060">
        <ele>7.9</ele>
        <time>2021-05-18T13:13:35Z</time>
      </trkpt>
      <trkpt lat="41.8753480" lon="-8.8389060">
        <ele>7.9</ele>
        <time>2021-05-18T13:13:36Z</time>
      </trkpt>
      <trkpt lat="41.8753480" lon="-8.8389060">
        <ele>7.9</ele>
        <time>2021-05-18T13:13:37Z</time>
      </trkpt>
      <trkpt lat="41.8753320" lon="-8.8389120">
        <ele>7.9</ele>
        <time>2021-05-18T13:13:38Z</time>
      </trkpt>
      <trkpt lat="41.8753330" lon="-8.8389100">
        <ele>7.9</ele>
        <time>2021-05-18T13:13:39Z</time>
      </trkpt>
      <trkpt lat="41.8753330" lon="-8.8389100">
        <ele>7.9</ele>
        <time>2021-05-18T13:13:40Z</time>
      </trkpt>
      <trkpt lat="41.8753270" lon="-8.8389080">
        <ele>7.9</ele>
        <time>2021-05-18T13:13:41Z</time>
      </trkpt>
      <trkpt lat="41.8753270" lon="-8.8389080">
        <ele>7.9</ele>
        <time>2021-05-18T13:13:42Z</time>
      </trkpt>
      <trkpt lat="41.8753270" lon="-8.8389080">
        <ele>7.9</ele>
        <time>2021-05-18T13:13:43Z</time>
      </trkpt>
      <trkpt lat="41.8753270" lon="-8.8389080">
        <ele>7.9</ele>
        <time>2021-05-18T13:13:44Z</time>
      </trkpt>
      <trkpt lat="41.8753270" lon="-8.8389080">
        <ele>7.9</ele>
        <time>2021-05-18T13:13:45Z</time>
      </trkpt>
      <trkpt lat="41.8753270" lon="-8.8389080">
        <ele>7.9</ele>
        <time>2021-05-18T13:13:46Z</time>
      </trkpt>
      <trkpt lat="41.8753270" lon="-8.8389080">
        <ele>7.9</ele>
        <time>2021-05-18T13:13:47Z</time>
      </trkpt>
      <trkpt lat="41.8753270" lon="-8.8389080">
        <ele>7.9</ele>
        <time>2021-05-18T13:13:48Z</time>
      </trkpt>
      <trkpt lat="41.8753270" lon="-8.8389080">
        <ele>7.9</ele>
        <time>2021-05-18T13:13:49Z</time>
      </trkpt>
      <trkpt lat="41.8753270" lon="-8.8389080">
        <ele>7.9</ele>
        <time>2021-05-18T13:13:50Z</time>
      </trkpt>
      <trkpt lat="41.8753270" lon="-8.8389080">
        <ele>7.9</ele>
        <time>2021-05-18T13:13:51Z</time>
      </trkpt>
      <trkpt lat="41.8753270" lon="-8.8389080">
        <ele>7.9</ele>
        <time>2021-05-18T13:13:52Z</time>
      </trkpt>
      <trkpt lat="41.8753270" lon="-8.8389080">
        <ele>7.9</ele>
        <time>2021-05-18T13:13:53Z</time>
      </trkpt>
      <trkpt lat="41.8753270" lon="-8.8389080">
        <ele>7.9</ele>
        <time>2021-05-18T13:13:54Z</time>
      </trkpt>
      <trkpt lat="41.8753270" lon="-8.8389080">
        <ele>7.9</ele>
        <time>2021-05-18T13:13:55Z</time>
      </trkpt>
      <trkpt lat="41.8753270" lon="-8.8389080">
        <ele>7.9</ele>
        <time>2021-05-18T13:13:56Z</time>
      </trkpt>
      <trkpt lat="41.8753270" lon="-8.8389080">
        <ele>7.9</ele>
        <time>2021-05-18T13:13:57Z</time>
      </trkpt>
      <trkpt lat="41.8753270" lon="-8.8389080">
        <ele>7.9</ele>
        <time>2021-05-18T13:13:58Z</time>
      </trkpt>
      <trkpt lat="41.8753270" lon="-8.8389080">
        <ele>7.9</ele>
        <time>2021-05-18T13:13:59Z</time>
      </trkpt>
      <trkpt lat="41.8753270" lon="-8.8389080">
        <ele>7.9</ele>
        <time>2021-05-18T13:14:00Z</time>
      </trkpt>
      <trkpt lat="41.8753270" lon="-8.8389080">
        <ele>7.9</ele>
        <time>2021-05-18T13:14:01Z</time>
      </trkpt>
      <trkpt lat="41.8753270" lon="-8.8389080">
        <ele>7.9</ele>
        <time>2021-05-18T13:14:02Z</time>
      </trkpt>
      <trkpt lat="41.8753270" lon="-8.8389080">
        <ele>7.9</ele>
        <time>2021-05-18T13:14:03Z</time>
      </trkpt>
      <trkpt lat="41.8753270" lon="-8.8389080">
        <ele>7.9</ele>
        <time>2021-05-18T13:14:04Z</time>
      </trkpt>
      <trkpt lat="41.8753270" lon="-8.8389080">
        <ele>7.9</ele>
        <time>2021-05-18T13:14:06Z</time>
      </trkpt>
      <trkpt lat="41.8753270" lon="-8.8389080">
        <ele>7.9</ele>
        <time>2021-05-18T13:14:07Z</time>
      </trkpt>
      <trkpt lat="41.8753270" lon="-8.8389080">
        <ele>7.9</ele>
        <time>2021-05-18T13:14:08Z</time>
      </trkpt>
      <trkpt lat="41.8753170" lon="-8.8389020">
        <ele>7.9</ele>
        <time>2021-05-18T13:14:09Z</time>
      </trkpt>
      <trkpt lat="41.8753170" lon="-8.8389020">
        <ele>7.9</ele>
        <time>2021-05-18T13:14:10Z</time>
      </trkpt>
      <trkpt lat="41.8753170" lon="-8.8389020">
        <ele>7.9</ele>
        <time>2021-05-18T13:14:11Z</time>
      </trkpt>
      <trkpt lat="41.8753170" lon="-8.8389020">
        <ele>7.9</ele>
        <time>2021-05-18T13:14:12Z</time>
      </trkpt>
      <trkpt lat="41.8753170" lon="-8.8389020">
        <ele>7.9</ele>
        <time>2021-05-18T13:14:13Z</time>
      </trkpt>
      <trkpt lat="41.8753170" lon="-8.8389020">
        <ele>7.9</ele>
        <time>2021-05-18T13:14:14Z</time>
      </trkpt>
      <trkpt lat="41.8753170" lon="-8.8389020">
        <ele>7.9</ele>
        <time>2021-05-18T13:14:15Z</time>
      </trkpt>
      <trkpt lat="41.8753170" lon="-8.8389020">
        <ele>7.9</ele>
        <time>2021-05-18T13:14:16Z</time>
      </trkpt>
      <trkpt lat="41.8753170" lon="-8.8389020">
        <ele>7.9</ele>
        <time>2021-05-18T13:14:17Z</time>
      </trkpt>
      <trkpt lat="41.8753170" lon="-8.8389020">
        <ele>7.9</ele>
        <time>2021-05-18T13:14:18Z</time>
      </trkpt>
      <trkpt lat="41.8753170" lon="-8.8389020">
        <ele>7.9</ele>
        <time>2021-05-18T13:14:19Z</time>
      </trkpt>
      <trkpt lat="41.8753170" lon="-8.8389020">
        <ele>7.9</ele>
        <time>2021-05-18T13:14:20Z</time>
      </trkpt>
      <trkpt lat="41.8753170" lon="-8.8389020">
        <ele>7.9</ele>
        <time>2021-05-18T13:14:21Z</time>
      </trkpt>
      <trkpt lat="41.8753170" lon="-8.8389020">
        <ele>7.9</ele>
        <time>2021-05-18T13:14:22Z</time>
      </trkpt>
      <trkpt lat="41.8753170" lon="-8.8389020">
        <ele>7.9</ele>
        <time>2021-05-18T13:14:23Z</time>
      </trkpt>
      <trkpt lat="41.8753170" lon="-8.8389020">
        <ele>7.9</ele>
        <time>2021-05-18T13:14:24Z</time>
      </trkpt>
      <trkpt lat="41.8753170" lon="-8.8389020">
        <ele>7.9</ele>
        <time>2021-05-18T13:14:25Z</time>
      </trkpt>
      <trkpt lat="41.8753170" lon="-8.8389020">
        <ele>7.9</ele>
        <time>2021-05-18T13:14:26Z</time>
      </trkpt>
      <trkpt lat="41.8753170" lon="-8.8389020">
        <ele>7.9</ele>
        <time>2021-05-18T13:14:27Z</time>
      </trkpt>
      <trkpt lat="41.8753170" lon="-8.8389020">
        <ele>7.9</ele>
        <time>2021-05-18T13:14:28Z</time>
      </trkpt>
      <trkpt lat="41.8753170" lon="-8.8389020">
        <ele>7.9</ele>
        <time>2021-05-18T13:14:29Z</time>
      </trkpt>
      <trkpt lat="41.8753170" lon="-8.8389020">
        <ele>7.9</ele>
        <time>2021-05-18T13:14:30Z</time>
      </trkpt>
      <trkpt lat="41.8753120" lon="-8.8389120">
        <ele>7.9</ele>
        <time>2021-05-18T13:14:31Z</time>
      </trkpt>
      <trkpt lat="41.8753120" lon="-8.8389130">
        <ele>7.9</ele>
        <time>2021-05-18T13:14:32Z</time>
      </trkpt>
      <trkpt lat="41.8753150" lon="-8.8389120">
        <ele>7.9</ele>
        <time>2021-05-18T13:14:33Z</time>
      </trkpt>
      <trkpt lat="41.8753130" lon="-8.8389160">
        <ele>7.9</ele>
        <time>2021-05-18T13:14:34Z</time>
      </trkpt>
      <trkpt lat="41.8753150" lon="-8.8389140">
        <ele>7.9</ele>
        <time>2021-05-18T13:14:35Z</time>
      </trkpt>
      <trkpt lat="41.8753170" lon="-8.8389120">
        <ele>7.9</ele>
        <time>2021-05-18T13:14:36Z</time>
      </trkpt>
      <trkpt lat="41.8753210" lon="-8.8389110">
        <ele>7.9</ele>
        <time>2021-05-18T13:14:37Z</time>
      </trkpt>
      <trkpt lat="41.8753210" lon="-8.8389110">
        <ele>7.9</ele>
        <time>2021-05-18T13:14:38Z</time>
      </trkpt>
      <trkpt lat="41.8753210" lon="-8.8389110">
        <ele>7.9</ele>
        <time>2021-05-18T13:14:39Z</time>
      </trkpt>
      <trkpt lat="41.8753210" lon="-8.8389110">
        <ele>7.9</ele>
        <time>2021-05-18T13:14:40Z</time>
      </trkpt>
      <trkpt lat="41.8753210" lon="-8.8389110">
        <ele>7.9</ele>
        <time>2021-05-18T13:14:41Z</time>
      </trkpt>
      <trkpt lat="41.8753210" lon="-8.8389110">
        <ele>7.9</ele>
        <time>2021-05-18T13:14:42Z</time>
      </trkpt>
      <trkpt lat="41.8753430" lon="-8.8389030">
        <ele>7.9</ele>
        <time>2021-05-18T13:14:43Z</time>
      </trkpt>
      <trkpt lat="41.8753460" lon="-8.8389020">
        <ele>7.9</ele>
        <time>2021-05-18T13:14:44Z</time>
      </trkpt>
      <trkpt lat="41.8753460" lon="-8.8389010">
        <ele>7.9</ele>
        <time>2021-05-18T13:14:45Z</time>
      </trkpt>
      <trkpt lat="41.8753510" lon="-8.8388990">
        <ele>7.9</ele>
        <time>2021-05-18T13:14:46Z</time>
      </trkpt>
      <trkpt lat="41.8753500" lon="-8.8389000">
        <ele>7.9</ele>
        <time>2021-05-18T13:14:47Z</time>
      </trkpt>
      <trkpt lat="41.8753500" lon="-8.8389000">
        <ele>7.9</ele>
        <time>2021-05-18T13:14:48Z</time>
      </trkpt>
      <trkpt lat="41.8753530" lon="-8.8388930">
        <ele>7.9</ele>
        <time>2021-05-18T13:14:49Z</time>
      </trkpt>
      <trkpt lat="41.8753530" lon="-8.8388900">
        <ele>7.9</ele>
        <time>2021-05-18T13:14:50Z</time>
      </trkpt>
      <trkpt lat="41.8753550" lon="-8.8388870">
        <ele>7.9</ele>
        <time>2021-05-18T13:14:51Z</time>
      </trkpt>
      <trkpt lat="41.8753550" lon="-8.8388870">
        <ele>7.9</ele>
        <time>2021-05-18T13:14:52Z</time>
      </trkpt>
      <trkpt lat="41.8753630" lon="-8.8388850">
        <ele>7.9</ele>
        <time>2021-05-18T13:14:53Z</time>
      </trkpt>
      <trkpt lat="41.8753620" lon="-8.8388860">
        <ele>7.9</ele>
        <time>2021-05-18T13:14:54Z</time>
      </trkpt>
      <trkpt lat="41.8753630" lon="-8.8388870">
        <ele>7.9</ele>
        <time>2021-05-18T13:14:55Z</time>
      </trkpt>
      <trkpt lat="41.8753630" lon="-8.8388870">
        <ele>7.9</ele>
        <time>2021-05-18T13:14:56Z</time>
      </trkpt>
      <trkpt lat="41.8753620" lon="-8.8388870">
        <ele>7.9</ele>
        <time>2021-05-18T13:14:57Z</time>
      </trkpt>
      <trkpt lat="41.8753650" lon="-8.8388860">
        <ele>7.9</ele>
        <time>2021-05-18T13:14:58Z</time>
      </trkpt>
      <trkpt lat="41.8753650" lon="-8.8388860">
        <ele>7.9</ele>
        <time>2021-05-18T13:14:59Z</time>
      </trkpt>
      <trkpt lat="41.8753660" lon="-8.8388850">
        <ele>7.9</ele>
        <time>2021-05-18T13:15:00Z</time>
      </trkpt>
      <trkpt lat="41.8753680" lon="-8.8388840">
        <ele>7.9</ele>
        <time>2021-05-18T13:15:01Z</time>
      </trkpt>
      <trkpt lat="41.8753690" lon="-8.8388840">
        <ele>7.9</ele>
        <time>2021-05-18T13:15:02Z</time>
      </trkpt>
      <trkpt lat="41.8753690" lon="-8.8388840">
        <ele>7.9</ele>
        <time>2021-05-18T13:15:03Z</time>
      </trkpt>
      <trkpt lat="41.8753690" lon="-8.8388840">
        <ele>7.9</ele>
        <time>2021-05-18T13:15:04Z</time>
      </trkpt>
      <trkpt lat="41.8753690" lon="-8.8388840">
        <ele>7.9</ele>
        <time>2021-05-18T13:15:05Z</time>
      </trkpt>
      <trkpt lat="41.8753690" lon="-8.8388840">
        <ele>7.9</ele>
        <time>2021-05-18T13:15:06Z</time>
      </trkpt>
      <trkpt lat="41.8753690" lon="-8.8388840">
        <ele>7.9</ele>
        <time>2021-05-18T13:15:07Z</time>
      </trkpt>
      <trkpt lat="41.8753690" lon="-8.8388840">
        <ele>7.9</ele>
        <time>2021-05-18T13:15:08Z</time>
      </trkpt>
      <trkpt lat="41.8753690" lon="-8.8388840">
        <ele>7.9</ele>
        <time>2021-05-18T13:15:09Z</time>
      </trkpt>
      <trkpt lat="41.8753690" lon="-8.8388840">
        <ele>7.9</ele>
        <time>2021-05-18T13:15:10Z</time>
      </trkpt>
      <trkpt lat="41.8753690" lon="-8.8388840">
        <ele>7.9</ele>
        <time>2021-05-18T13:15:11Z</time>
      </trkpt>
      <trkpt lat="41.8753690" lon="-8.8388840">
        <ele>7.9</ele>
        <time>2021-05-18T13:15:12Z</time>
      </trkpt>
      <trkpt lat="41.8753690" lon="-8.8388840">
        <ele>7.9</ele>
        <time>2021-05-18T13:15:13Z</time>
      </trkpt>
      <trkpt lat="41.8753690" lon="-8.8388840">
        <ele>7.9</ele>
        <time>2021-05-18T13:15:14Z</time>
      </trkpt>
      <trkpt lat="41.8753690" lon="-8.8388840">
        <ele>7.9</ele>
        <time>2021-05-18T13:15:15Z</time>
      </trkpt>
      <trkpt lat="41.8753690" lon="-8.8388840">
        <ele>7.9</ele>
        <time>2021-05-18T13:15:16Z</time>
      </trkpt>
      <trkpt lat="41.8753690" lon="-8.8388840">
        <ele>7.9</ele>
        <time>2021-05-18T13:15:17Z</time>
      </trkpt>
      <trkpt lat="41.8753690" lon="-8.8388840">
        <ele>7.9</ele>
        <time>2021-05-18T13:15:18Z</time>
      </trkpt>
      <trkpt lat="41.8753690" lon="-8.8388840">
        <ele>7.9</ele>
        <time>2021-05-18T13:15:19Z</time>
      </trkpt>
      <trkpt lat="41.8753690" lon="-8.8388840">
        <ele>7.9</ele>
        <time>2021-05-18T13:15:20Z</time>
      </trkpt>
      <trkpt lat="41.8753690" lon="-8.8388840">
        <ele>7.9</ele>
        <time>2021-05-18T13:15:21Z</time>
      </trkpt>
      <trkpt lat="41.8753690" lon="-8.8388840">
        <ele>7.9</ele>
        <time>2021-05-18T13:15:22Z</time>
      </trkpt>
      <trkpt lat="41.8753690" lon="-8.8388840">
        <ele>7.9</ele>
        <time>2021-05-18T13:15:23Z</time>
      </trkpt>
      <trkpt lat="41.8753690" lon="-8.8388840">
        <ele>7.9</ele>
        <time>2021-05-18T13:15:24Z</time>
      </trkpt>
      <trkpt lat="41.8753690" lon="-8.8388840">
        <ele>7.9</ele>
        <time>2021-05-18T13:15:25Z</time>
      </trkpt>
      <trkpt lat="41.8753690" lon="-8.8388840">
        <ele>7.9</ele>
        <time>2021-05-18T13:15:26Z</time>
      </trkpt>
      <trkpt lat="41.8753690" lon="-8.8388840">
        <ele>7.9</ele>
        <time>2021-05-18T13:15:27Z</time>
      </trkpt>
      <trkpt lat="41.8753690" lon="-8.8388840">
        <ele>7.9</ele>
        <time>2021-05-18T13:15:28Z</time>
      </trkpt>
      <trkpt lat="41.8753690" lon="-8.8388840">
        <ele>7.9</ele>
        <time>2021-05-18T13:15:29Z</time>
      </trkpt>
      <trkpt lat="41.8753690" lon="-8.8388840">
        <ele>7.9</ele>
        <time>2021-05-18T13:15:30Z</time>
      </trkpt>
      <trkpt lat="41.8753690" lon="-8.8388840">
        <ele>7.9</ele>
        <time>2021-05-18T13:15:31Z</time>
      </trkpt>
      <trkpt lat="41.8753690" lon="-8.8388840">
        <ele>7.9</ele>
        <time>2021-05-18T13:15:32Z</time>
      </trkpt>
      <trkpt lat="41.8753690" lon="-8.8388840">
        <ele>7.9</ele>
        <time>2021-05-18T13:15:33Z</time>
      </trkpt>
      <trkpt lat="41.8753690" lon="-8.8388840">
        <ele>7.9</ele>
        <time>2021-05-18T13:15:34Z</time>
      </trkpt>
      <trkpt lat="41.8753690" lon="-8.8388840">
        <ele>7.9</ele>
        <time>2021-05-18T13:15:35Z</time>
      </trkpt>
      <trkpt lat="41.8753690" lon="-8.8388840">
        <ele>7.9</ele>
        <time>2021-05-18T13:15:36Z</time>
      </trkpt>
      <trkpt lat="41.8753650" lon="-8.8388990">
        <ele>7.9</ele>
        <time>2021-05-18T13:15:37Z</time>
      </trkpt>
      <trkpt lat="41.8753640" lon="-8.8389000">
        <ele>7.9</ele>
        <time>2021-05-18T13:15:38Z</time>
      </trkpt>
      <trkpt lat="41.8753640" lon="-8.8389000">
        <ele>7.9</ele>
        <time>2021-05-18T13:15:39Z</time>
      </trkpt>
      <trkpt lat="41.8753640" lon="-8.8389010">
        <ele>7.9</ele>
        <time>2021-05-18T13:15:40Z</time>
      </trkpt>
      <trkpt lat="41.8753650" lon="-8.8389040">
        <ele>7.9</ele>
        <time>2021-05-18T13:15:41Z</time>
      </trkpt>
      <trkpt lat="41.8753650" lon="-8.8389040">
        <ele>7.9</ele>
        <time>2021-05-18T13:15:42Z</time>
      </trkpt>
      <trkpt lat="41.8753650" lon="-8.8389060">
        <ele>7.9</ele>
        <time>2021-05-18T13:15:43Z</time>
      </trkpt>
      <trkpt lat="41.8753630" lon="-8.8389070">
        <ele>7.9</ele>
        <time>2021-05-18T13:15:44Z</time>
      </trkpt>
      <trkpt lat="41.8753600" lon="-8.8389080">
        <ele>7.9</ele>
        <time>2021-05-18T13:15:45Z</time>
      </trkpt>
      <trkpt lat="41.8753600" lon="-8.8389080">
        <ele>7.9</ele>
        <time>2021-05-18T13:15:46Z</time>
      </trkpt>
      <trkpt lat="41.8753580" lon="-8.8389090">
        <ele>7.9</ele>
        <time>2021-05-18T13:15:47Z</time>
      </trkpt>
      <trkpt lat="41.8753580" lon="-8.8389090">
        <ele>7.9</ele>
        <time>2021-05-18T13:15:48Z</time>
      </trkpt>
      <trkpt lat="41.8753580" lon="-8.8389090">
        <ele>7.9</ele>
        <time>2021-05-18T13:15:49Z</time>
      </trkpt>
      <trkpt lat="41.8753580" lon="-8.8389090">
        <ele>7.9</ele>
        <time>2021-05-18T13:15:50Z</time>
      </trkpt>
      <trkpt lat="41.8753580" lon="-8.8389090">
        <ele>7.9</ele>
        <time>2021-05-18T13:15:51Z</time>
      </trkpt>
      <trkpt lat="41.8753580" lon="-8.8389090">
        <ele>7.9</ele>
        <time>2021-05-18T13:15:52Z</time>
      </trkpt>
      <trkpt lat="41.8753580" lon="-8.8389090">
        <ele>7.9</ele>
        <time>2021-05-18T13:15:53Z</time>
      </trkpt>
      <trkpt lat="41.8753580" lon="-8.8389090">
        <ele>7.9</ele>
        <time>2021-05-18T13:15:54Z</time>
      </trkpt>
      <trkpt lat="41.8753580" lon="-8.8389090">
        <ele>7.9</ele>
        <time>2021-05-18T13:15:55Z</time>
      </trkpt>
      <trkpt lat="41.8753580" lon="-8.8389090">
        <ele>7.9</ele>
        <time>2021-05-18T13:15:56Z</time>
      </trkpt>
      <trkpt lat="41.8753580" lon="-8.8389090">
        <ele>7.9</ele>
        <time>2021-05-18T13:15:57Z</time>
      </trkpt>
      <trkpt lat="41.8753580" lon="-8.8389090">
        <ele>7.9</ele>
        <time>2021-05-18T13:15:58Z</time>
      </trkpt>
      <trkpt lat="41.8753580" lon="-8.8389090">
        <ele>7.9</ele>
        <time>2021-05-18T13:15:59Z</time>
      </trkpt>
      <trkpt lat="41.8753580" lon="-8.8389090">
        <ele>7.9</ele>
        <time>2021-05-18T13:16:00Z</time>
      </trkpt>
      <trkpt lat="41.8753580" lon="-8.8389090">
        <ele>7.9</ele>
        <time>2021-05-18T13:16:01Z</time>
      </trkpt>
      <trkpt lat="41.8753580" lon="-8.8389090">
        <ele>7.9</ele>
        <time>2021-05-18T13:16:02Z</time>
      </trkpt>
      <trkpt lat="41.8753580" lon="-8.8389090">
        <ele>7.9</ele>
        <time>2021-05-18T13:16:03Z</time>
      </trkpt>
      <trkpt lat="41.8753580" lon="-8.8389090">
        <ele>7.9</ele>
        <time>2021-05-18T13:16:04Z</time>
      </trkpt>
      <trkpt lat="41.8753580" lon="-8.8389090">
        <ele>7.9</ele>
        <time>2021-05-18T13:16:05Z</time>
      </trkpt>
      <trkpt lat="41.8753580" lon="-8.8389090">
        <ele>7.9</ele>
        <time>2021-05-18T13:16:06Z</time>
      </trkpt>
      <trkpt lat="41.8753580" lon="-8.8389090">
        <ele>7.9</ele>
        <time>2021-05-18T13:16:07Z</time>
      </trkpt>
      <trkpt lat="41.8753580" lon="-8.8389090">
        <ele>7.9</ele>
        <time>2021-05-18T13:16:08Z</time>
      </trkpt>
      <trkpt lat="41.8753580" lon="-8.8389090">
        <ele>7.9</ele>
        <time>2021-05-18T13:16:09Z</time>
      </trkpt>
      <trkpt lat="41.8753580" lon="-8.8389090">
        <ele>7.9</ele>
        <time>2021-05-18T13:16:10Z</time>
      </trkpt>
      <trkpt lat="41.8753580" lon="-8.8389090">
        <ele>7.9</ele>
        <time>2021-05-18T13:16:11Z</time>
      </trkpt>
      <trkpt lat="41.8753580" lon="-8.8389090">
        <ele>7.9</ele>
        <time>2021-05-18T13:16:12Z</time>
      </trkpt>
      <trkpt lat="41.8753580" lon="-8.8389090">
        <ele>7.9</ele>
        <time>2021-05-18T13:16:13Z</time>
      </trkpt>
      <trkpt lat="41.8753580" lon="-8.8389090">
        <ele>7.9</ele>
        <time>2021-05-18T13:16:14Z</time>
      </trkpt>
      <trkpt lat="41.8753580" lon="-8.8389090">
        <ele>7.9</ele>
        <time>2021-05-18T13:16:15Z</time>
      </trkpt>
      <trkpt lat="41.8753580" lon="-8.8389090">
        <ele>7.9</ele>
        <time>2021-05-18T13:16:16Z</time>
      </trkpt>
      <trkpt lat="41.8753580" lon="-8.8389090">
        <ele>7.9</ele>
        <time>2021-05-18T13:16:17Z</time>
      </trkpt>
      <trkpt lat="41.8753580" lon="-8.8389090">
        <ele>7.9</ele>
        <time>2021-05-18T13:16:19Z</time>
      </trkpt>
      <trkpt lat="41.8753580" lon="-8.8389090">
        <ele>7.9</ele>
        <time>2021-05-18T13:16:20Z</time>
      </trkpt>
      <trkpt lat="41.8753580" lon="-8.8389090">
        <ele>7.9</ele>
        <time>2021-05-18T13:16:21Z</time>
      </trkpt>
      <trkpt lat="41.8753580" lon="-8.8389090">
        <ele>7.9</ele>
        <time>2021-05-18T13:16:22Z</time>
      </trkpt>
      <trkpt lat="41.8753580" lon="-8.8389090">
        <ele>7.9</ele>
        <time>2021-05-18T13:16:23Z</time>
      </trkpt>
      <trkpt lat="41.8753580" lon="-8.8389090">
        <ele>7.9</ele>
        <time>2021-05-18T13:16:24Z</time>
      </trkpt>
      <trkpt lat="41.8753580" lon="-8.8389090">
        <ele>7.9</ele>
        <time>2021-05-18T13:16:25Z</time>
      </trkpt>
      <trkpt lat="41.8753580" lon="-8.8389090">
        <ele>7.9</ele>
        <time>2021-05-18T13:16:26Z</time>
      </trkpt>
      <trkpt lat="41.8753580" lon="-8.8389090">
        <ele>7.9</ele>
        <time>2021-05-18T13:16:27Z</time>
      </trkpt>
      <trkpt lat="41.8753580" lon="-8.8389090">
        <ele>7.9</ele>
        <time>2021-05-18T13:16:28Z</time>
      </trkpt>
      <trkpt lat="41.8753580" lon="-8.8389090">
        <ele>7.9</ele>
        <time>2021-05-18T13:16:29Z</time>
      </trkpt>
      <trkpt lat="41.8753580" lon="-8.8389090">
        <ele>7.9</ele>
        <time>2021-05-18T13:16:30Z</time>
      </trkpt>
      <trkpt lat="41.8753580" lon="-8.8389090">
        <ele>7.9</ele>
        <time>2021-05-18T13:16:31Z</time>
      </trkpt>
      <trkpt lat="41.8753580" lon="-8.8389090">
        <ele>7.9</ele>
        <time>2021-05-18T13:16:32Z</time>
      </trkpt>
      <trkpt lat="41.8753580" lon="-8.8389090">
        <ele>7.9</ele>
        <time>2021-05-18T13:16:33Z</time>
      </trkpt>
      <trkpt lat="41.8753580" lon="-8.8389090">
        <ele>7.9</ele>
        <time>2021-05-18T13:16:34Z</time>
      </trkpt>
      <trkpt lat="41.8753580" lon="-8.8389090">
        <ele>7.9</ele>
        <time>2021-05-18T13:16:35Z</time>
      </trkpt>
      <trkpt lat="41.8753580" lon="-8.8389090">
        <ele>7.9</ele>
        <time>2021-05-18T13:16:36Z</time>
      </trkpt>
      <trkpt lat="41.8753580" lon="-8.8389090">
        <ele>7.9</ele>
        <time>2021-05-18T13:16:37Z</time>
      </trkpt>
      <trkpt lat="41.8753580" lon="-8.8389090">
        <ele>7.9</ele>
        <time>2021-05-18T13:16:38Z</time>
      </trkpt>
      <trkpt lat="41.8753580" lon="-8.8389090">
        <ele>7.9</ele>
        <time>2021-05-18T13:16:39Z</time>
      </trkpt>
      <trkpt lat="41.8753580" lon="-8.8389090">
        <ele>7.9</ele>
        <time>2021-05-18T13:16:40Z</time>
      </trkpt>
      <trkpt lat="41.8753580" lon="-8.8389090">
        <ele>7.9</ele>
        <time>2021-05-18T13:16:41Z</time>
      </trkpt>
      <trkpt lat="41.8753580" lon="-8.8389090">
        <ele>7.9</ele>
        <time>2021-05-18T13:16:42Z</time>
      </trkpt>
      <trkpt lat="41.8753580" lon="-8.8389090">
        <ele>7.9</ele>
        <time>2021-05-18T13:16:43Z</time>
      </trkpt>
      <trkpt lat="41.8753580" lon="-8.8389090">
        <ele>7.9</ele>
        <time>2021-05-18T13:16:44Z</time>
      </trkpt>
      <trkpt lat="41.8753580" lon="-8.8389090">
        <ele>7.9</ele>
        <time>2021-05-18T13:16:45Z</time>
      </trkpt>
      <trkpt lat="41.8753580" lon="-8.8389090">
        <ele>7.9</ele>
        <time>2021-05-18T13:16:46Z</time>
      </trkpt>
      <trkpt lat="41.8753580" lon="-8.8389090">
        <ele>7.9</ele>
        <time>2021-05-18T13:16:47Z</time>
      </trkpt>
      <trkpt lat="41.8753580" lon="-8.8389090">
        <ele>7.9</ele>
        <time>2021-05-18T13:16:48Z</time>
      </trkpt>
      <trkpt lat="41.8753580" lon="-8.8389090">
        <ele>7.9</ele>
        <time>2021-05-18T13:16:49Z</time>
      </trkpt>
      <trkpt lat="41.8753580" lon="-8.8389090">
        <ele>7.9</ele>
        <time>2021-05-18T13:16:50Z</time>
      </trkpt>
      <trkpt lat="41.8753580" lon="-8.8389090">
        <ele>7.9</ele>
        <time>2021-05-18T13:16:51Z</time>
      </trkpt>
      <trkpt lat="41.8753580" lon="-8.8389090">
        <ele>7.9</ele>
        <time>2021-05-18T13:16:52Z</time>
      </trkpt>
      <trkpt lat="41.8753580" lon="-8.8389090">
        <ele>7.9</ele>
        <time>2021-05-18T13:16:53Z</time>
      </trkpt>
      <trkpt lat="41.8753580" lon="-8.8389090">
        <ele>7.9</ele>
        <time>2021-05-18T13:16:54Z</time>
      </trkpt>
      <trkpt lat="41.8753580" lon="-8.8389090">
        <ele>7.9</ele>
        <time>2021-05-18T13:16:55Z</time>
      </trkpt>
      <trkpt lat="41.8753580" lon="-8.8389090">
        <ele>7.9</ele>
        <time>2021-05-18T13:16:56Z</time>
      </trkpt>
      <trkpt lat="41.8753580" lon="-8.8389090">
        <ele>7.9</ele>
        <time>2021-05-18T13:16:57Z</time>
      </trkpt>
      <trkpt lat="41.8753580" lon="-8.8389090">
        <ele>7.9</ele>
        <time>2021-05-18T13:16:58Z</time>
      </trkpt>
      <trkpt lat="41.8753580" lon="-8.8389090">
        <ele>7.9</ele>
        <time>2021-05-18T13:16:59Z</time>
      </trkpt>
      <trkpt lat="41.8753580" lon="-8.8389090">
        <ele>7.9</ele>
        <time>2021-05-18T13:17:00Z</time>
      </trkpt>
      <trkpt lat="41.8753580" lon="-8.8389090">
        <ele>7.9</ele>
        <time>2021-05-18T13:17:01Z</time>
      </trkpt>
      <trkpt lat="41.8753580" lon="-8.8389090">
        <ele>7.9</ele>
        <time>2021-05-18T13:17:02Z</time>
      </trkpt>
      <trkpt lat="41.8753580" lon="-8.8389090">
        <ele>7.9</ele>
        <time>2021-05-18T13:17:03Z</time>
      </trkpt>
      <trkpt lat="41.8753580" lon="-8.8389090">
        <ele>7.9</ele>
        <time>2021-05-18T13:17:04Z</time>
      </trkpt>
      <trkpt lat="41.8753580" lon="-8.8389090">
        <ele>7.9</ele>
        <time>2021-05-18T13:17:05Z</time>
      </trkpt>
      <trkpt lat="41.8753580" lon="-8.8389090">
        <ele>7.9</ele>
        <time>2021-05-18T13:17:06Z</time>
      </trkpt>
      <trkpt lat="41.8753580" lon="-8.8389090">
        <ele>7.9</ele>
        <time>2021-05-18T13:17:07Z</time>
      </trkpt>
      <trkpt lat="41.8753580" lon="-8.8389090">
        <ele>7.9</ele>
        <time>2021-05-18T13:17:08Z</time>
      </trkpt>
      <trkpt lat="41.8753580" lon="-8.8389090">
        <ele>7.9</ele>
        <time>2021-05-18T13:17:09Z</time>
      </trkpt>
      <trkpt lat="41.8753580" lon="-8.8389090">
        <ele>7.9</ele>
        <time>2021-05-18T13:17:10Z</time>
      </trkpt>
      <trkpt lat="41.8753580" lon="-8.8389090">
        <ele>7.9</ele>
        <time>2021-05-18T13:17:11Z</time>
      </trkpt>
      <trkpt lat="41.8753580" lon="-8.8389090">
        <ele>7.9</ele>
        <time>2021-05-18T13:17:12Z</time>
      </trkpt>
      <trkpt lat="41.8753580" lon="-8.8389090">
        <ele>7.9</ele>
        <time>2021-05-18T13:17:13Z</time>
      </trkpt>
      <trkpt lat="41.8753580" lon="-8.8389090">
        <ele>7.9</ele>
        <time>2021-05-18T13:17:14Z</time>
      </trkpt>
      <trkpt lat="41.8753580" lon="-8.8389090">
        <ele>7.9</ele>
        <time>2021-05-18T13:17:15Z</time>
      </trkpt>
      <trkpt lat="41.8753580" lon="-8.8389090">
        <ele>7.9</ele>
        <time>2021-05-18T13:17:16Z</time>
      </trkpt>
      <trkpt lat="41.8753580" lon="-8.8389090">
        <ele>7.9</ele>
        <time>2021-05-18T13:17:17Z</time>
      </trkpt>
      <trkpt lat="41.8753580" lon="-8.8389090">
        <ele>7.9</ele>
        <time>2021-05-18T13:17:18Z</time>
      </trkpt>
      <trkpt lat="41.8753580" lon="-8.8389090">
        <ele>7.9</ele>
        <time>2021-05-18T13:17:19Z</time>
      </trkpt>
      <trkpt lat="41.8753580" lon="-8.8389090">
        <ele>7.9</ele>
        <time>2021-05-18T13:17:20Z</time>
      </trkpt>
      <trkpt lat="41.8753580" lon="-8.8389090">
        <ele>7.9</ele>
        <time>2021-05-18T13:17:21Z</time>
      </trkpt>
      <trkpt lat="41.8753580" lon="-8.8389090">
        <ele>7.9</ele>
        <time>2021-05-18T13:17:22Z</time>
      </trkpt>
      <trkpt lat="41.8753580" lon="-8.8389090">
        <ele>7.9</ele>
        <time>2021-05-18T13:17:23Z</time>
      </trkpt>
      <trkpt lat="41.8753580" lon="-8.8389090">
        <ele>7.9</ele>
        <time>2021-05-18T13:17:24Z</time>
      </trkpt>
      <trkpt lat="41.8753580" lon="-8.8389090">
        <ele>7.9</ele>
        <time>2021-05-18T13:17:25Z</time>
      </trkpt>
      <trkpt lat="41.8753580" lon="-8.8389090">
        <ele>7.9</ele>
        <time>2021-05-18T13:17:26Z</time>
      </trkpt>
      <trkpt lat="41.8753320" lon="-8.8389170">
        <ele>7.9</ele>
        <time>2021-05-18T13:17:27Z</time>
      </trkpt>
      <trkpt lat="41.8753320" lon="-8.8389170">
        <ele>7.9</ele>
        <time>2021-05-18T13:17:28Z</time>
      </trkpt>
      <trkpt lat="41.8753320" lon="-8.8389170">
        <ele>7.9</ele>
        <time>2021-05-18T13:17:29Z</time>
      </trkpt>
      <trkpt lat="41.8753320" lon="-8.8389170">
        <ele>7.9</ele>
        <time>2021-05-18T13:17:30Z</time>
      </trkpt>
      <trkpt lat="41.8753320" lon="-8.8389170">
        <ele>7.9</ele>
        <time>2021-05-18T13:17:31Z</time>
      </trkpt>
      <trkpt lat="41.8753320" lon="-8.8389170">
        <ele>7.9</ele>
        <time>2021-05-18T13:17:32Z</time>
      </trkpt>
      <trkpt lat="41.8753320" lon="-8.8389170">
        <ele>7.9</ele>
        <time>2021-05-18T13:17:33Z</time>
      </trkpt>
      <trkpt lat="41.8753320" lon="-8.8389170">
        <ele>7.9</ele>
        <time>2021-05-18T13:17:34Z</time>
      </trkpt>
      <trkpt lat="41.8753320" lon="-8.8389170">
        <ele>7.9</ele>
        <time>2021-05-18T13:17:35Z</time>
      </trkpt>
      <trkpt lat="41.8753320" lon="-8.8389170">
        <ele>7.9</ele>
        <time>2021-05-18T13:17:36Z</time>
      </trkpt>
      <trkpt lat="41.8753320" lon="-8.8389170">
        <ele>7.9</ele>
        <time>2021-05-18T13:17:37Z</time>
      </trkpt>
      <trkpt lat="41.8753320" lon="-8.8389170">
        <ele>7.9</ele>
        <time>2021-05-18T13:17:38Z</time>
      </trkpt>
      <trkpt lat="41.8753320" lon="-8.8389170">
        <ele>7.9</ele>
        <time>2021-05-18T13:17:39Z</time>
      </trkpt>
      <trkpt lat="41.8753320" lon="-8.8389170">
        <ele>7.9</ele>
        <time>2021-05-18T13:17:40Z</time>
      </trkpt>
      <trkpt lat="41.8753320" lon="-8.8389170">
        <ele>7.9</ele>
        <time>2021-05-18T13:17:41Z</time>
      </trkpt>
      <trkpt lat="41.8753320" lon="-8.8389170">
        <ele>7.9</ele>
        <time>2021-05-18T13:17:42Z</time>
      </trkpt>
      <trkpt lat="41.8753320" lon="-8.8389170">
        <ele>7.9</ele>
        <time>2021-05-18T13:17:43Z</time>
      </trkpt>
      <trkpt lat="41.8753320" lon="-8.8389170">
        <ele>7.9</ele>
        <time>2021-05-18T13:17:44Z</time>
      </trkpt>
      <trkpt lat="41.8753320" lon="-8.8389170">
        <ele>7.9</ele>
        <time>2021-05-18T13:17:45Z</time>
      </trkpt>
      <trkpt lat="41.8753320" lon="-8.8389170">
        <ele>7.9</ele>
        <time>2021-05-18T13:17:46Z</time>
      </trkpt>
      <trkpt lat="41.8753320" lon="-8.8389170">
        <ele>7.9</ele>
        <time>2021-05-18T13:17:47Z</time>
      </trkpt>
      <trkpt lat="41.8753320" lon="-8.8389170">
        <ele>7.9</ele>
        <time>2021-05-18T13:17:48Z</time>
      </trkpt>
      <trkpt lat="41.8753320" lon="-8.8389170">
        <ele>7.9</ele>
        <time>2021-05-18T13:17:49Z</time>
      </trkpt>
      <trkpt lat="41.8753320" lon="-8.8389170">
        <ele>7.9</ele>
        <time>2021-05-18T13:17:50Z</time>
      </trkpt>
      <trkpt lat="41.8753320" lon="-8.8389170">
        <ele>7.9</ele>
        <time>2021-05-18T13:17:51Z</time>
      </trkpt>
      <trkpt lat="41.8753320" lon="-8.8389170">
        <ele>7.9</ele>
        <time>2021-05-18T13:17:52Z</time>
      </trkpt>
      <trkpt lat="41.8753320" lon="-8.8389170">
        <ele>7.9</ele>
        <time>2021-05-18T13:17:53Z</time>
      </trkpt>
      <trkpt lat="41.8753320" lon="-8.8389170">
        <ele>7.9</ele>
        <time>2021-05-18T13:17:54Z</time>
      </trkpt>
      <trkpt lat="41.8753320" lon="-8.8389170">
        <ele>7.9</ele>
        <time>2021-05-18T13:17:55Z</time>
      </trkpt>
      <trkpt lat="41.8753320" lon="-8.8389170">
        <ele>7.9</ele>
        <time>2021-05-18T13:17:56Z</time>
      </trkpt>
      <trkpt lat="41.8753320" lon="-8.8389170">
        <ele>7.9</ele>
        <time>2021-05-18T13:17:57Z</time>
      </trkpt>
      <trkpt lat="41.8753320" lon="-8.8389170">
        <ele>7.9</ele>
        <time>2021-05-18T13:17:58Z</time>
      </trkpt>
      <trkpt lat="41.8753320" lon="-8.8389170">
        <ele>7.9</ele>
        <time>2021-05-18T13:17:59Z</time>
      </trkpt>
      <trkpt lat="41.8753320" lon="-8.8389170">
        <ele>7.9</ele>
        <time>2021-05-18T13:18:00Z</time>
      </trkpt>
      <trkpt lat="41.8753320" lon="-8.8389170">
        <ele>7.9</ele>
        <time>2021-05-18T13:18:01Z</time>
      </trkpt>
      <trkpt lat="41.8753320" lon="-8.8389170">
        <ele>7.9</ele>
        <time>2021-05-18T13:18:02Z</time>
      </trkpt>
      <trkpt lat="41.8753320" lon="-8.8389170">
        <ele>7.9</ele>
        <time>2021-05-18T13:18:03Z</time>
      </trkpt>
      <trkpt lat="41.8753320" lon="-8.8389170">
        <ele>7.9</ele>
        <time>2021-05-18T13:18:04Z</time>
      </trkpt>
      <trkpt lat="41.8753320" lon="-8.8389170">
        <ele>7.9</ele>
        <time>2021-05-18T13:18:05Z</time>
      </trkpt>
      <trkpt lat="41.8753320" lon="-8.8389170">
        <ele>7.9</ele>
        <time>2021-05-18T13:18:06Z</time>
      </trkpt>
      <trkpt lat="41.8753320" lon="-8.8389170">
        <ele>7.9</ele>
        <time>2021-05-18T13:18:07Z</time>
      </trkpt>
      <trkpt lat="41.8753320" lon="-8.8389170">
        <ele>7.9</ele>
        <time>2021-05-18T13:18:08Z</time>
      </trkpt>
      <trkpt lat="41.8753320" lon="-8.8389170">
        <ele>7.9</ele>
        <time>2021-05-18T13:18:09Z</time>
      </trkpt>
      <trkpt lat="41.8753320" lon="-8.8389170">
        <ele>7.9</ele>
        <time>2021-05-18T13:18:10Z</time>
      </trkpt>
      <trkpt lat="41.8753320" lon="-8.8389170">
        <ele>7.9</ele>
        <time>2021-05-18T13:18:11Z</time>
      </trkpt>
      <trkpt lat="41.8753480" lon="-8.8389170">
        <ele>7.9</ele>
        <time>2021-05-18T13:18:12Z</time>
      </trkpt>
      <trkpt lat="41.8753460" lon="-8.8389170">
        <ele>7.9</ele>
        <time>2021-05-18T13:18:13Z</time>
      </trkpt>
      <trkpt lat="41.8753340" lon="-8.8389150">
        <ele>7.9</ele>
        <time>2021-05-18T13:18:14Z</time>
      </trkpt>
      <trkpt lat="41.8753140" lon="-8.8389170">
        <ele>7.9</ele>
        <time>2021-05-18T13:18:15Z</time>
      </trkpt>
      <trkpt lat="41.8753100" lon="-8.8389230">
        <ele>7.9</ele>
        <time>2021-05-18T13:18:16Z</time>
      </trkpt>
      <trkpt lat="41.8753200" lon="-8.8389520">
        <ele>7.9</ele>
        <time>2021-05-18T13:18:17Z</time>
      </trkpt>
      <trkpt lat="41.8753300" lon="-8.8389480">
        <ele>7.9</ele>
        <time>2021-05-18T13:18:18Z</time>
      </trkpt>
      <trkpt lat="41.8753420" lon="-8.8389240">
        <ele>7.9</ele>
        <time>2021-05-18T13:18:19Z</time>
      </trkpt>
      <trkpt lat="41.8753440" lon="-8.8389220">
        <ele>7.9</ele>
        <time>2021-05-18T13:18:20Z</time>
      </trkpt>
      <trkpt lat="41.8753410" lon="-8.8389230">
        <ele>7.9</ele>
        <time>2021-05-18T13:18:21Z</time>
      </trkpt>
      <trkpt lat="41.8753360" lon="-8.8389290">
        <ele>7.9</ele>
        <time>2021-05-18T13:18:22Z</time>
      </trkpt>
      <trkpt lat="41.8753360" lon="-8.8389280">
        <ele>7.9</ele>
        <time>2021-05-18T13:18:23Z</time>
      </trkpt>
      <trkpt lat="41.8753360" lon="-8.8389300">
        <ele>7.9</ele>
        <time>2021-05-18T13:18:24Z</time>
      </trkpt>
      <trkpt lat="41.8753360" lon="-8.8389290">
        <ele>7.9</ele>
        <time>2021-05-18T13:18:25Z</time>
      </trkpt>
      <trkpt lat="41.8753390" lon="-8.8389270">
        <ele>7.9</ele>
        <time>2021-05-18T13:18:26Z</time>
      </trkpt>
      <trkpt lat="41.8753450" lon="-8.8389280">
        <ele>7.9</ele>
        <time>2021-05-18T13:18:27Z</time>
      </trkpt>
      <trkpt lat="41.8753470" lon="-8.8389270">
        <ele>7.9</ele>
        <time>2021-05-18T13:18:28Z</time>
      </trkpt>
      <trkpt lat="41.8753480" lon="-8.8389270">
        <ele>7.9</ele>
        <time>2021-05-18T13:18:29Z</time>
      </trkpt>
      <trkpt lat="41.8753510" lon="-8.8389260">
        <ele>7.9</ele>
        <time>2021-05-18T13:18:31Z</time>
      </trkpt>
      <trkpt lat="41.8753520" lon="-8.8389270">
        <ele>7.9</ele>
        <time>2021-05-18T13:18:32Z</time>
      </trkpt>
      <trkpt lat="41.8753550" lon="-8.8389260">
        <ele>7.9</ele>
        <time>2021-05-18T13:18:33Z</time>
      </trkpt>
      <trkpt lat="41.8753570" lon="-8.8389280">
        <ele>7.9</ele>
        <time>2021-05-18T13:18:34Z</time>
      </trkpt>
      <trkpt lat="41.8753510" lon="-8.8389290">
        <ele>7.9</ele>
        <time>2021-05-18T13:18:35Z</time>
      </trkpt>
      <trkpt lat="41.8753480" lon="-8.8389320">
        <ele>7.9</ele>
        <time>2021-05-18T13:18:36Z</time>
      </trkpt>
      <trkpt lat="41.8753490" lon="-8.8389360">
        <ele>7.9</ele>
        <time>2021-05-18T13:18:37Z</time>
      </trkpt>
      <trkpt lat="41.8753470" lon="-8.8389390">
        <ele>7.9</ele>
        <time>2021-05-18T13:18:38Z</time>
      </trkpt>
      <trkpt lat="41.8753470" lon="-8.8389410">
        <ele>7.9</ele>
        <time>2021-05-18T13:18:39Z</time>
      </trkpt>
      <trkpt lat="41.8753480" lon="-8.8389430">
        <ele>7.9</ele>
        <time>2021-05-18T13:18:40Z</time>
      </trkpt>
      <trkpt lat="41.8753490" lon="-8.8389430">
        <ele>7.9</ele>
        <time>2021-05-18T13:18:41Z</time>
      </trkpt>
      <trkpt lat="41.8753520" lon="-8.8389430">
        <ele>7.9</ele>
        <time>2021-05-18T13:18:42Z</time>
      </trkpt>
      <trkpt lat="41.8753540" lon="-8.8389440">
        <ele>7.9</ele>
        <time>2021-05-18T13:18:43Z</time>
      </trkpt>
      <trkpt lat="41.8753530" lon="-8.8389430">
        <ele>7.9</ele>
        <time>2021-05-18T13:18:44Z</time>
      </trkpt>
      <trkpt lat="41.8753530" lon="-8.8389430">
        <ele>7.9</ele>
        <time>2021-05-18T13:18:45Z</time>
      </trkpt>
      <trkpt lat="41.8753520" lon="-8.8389420">
        <ele>7.9</ele>
        <time>2021-05-18T13:18:46Z</time>
      </trkpt>
      <trkpt lat="41.8753500" lon="-8.8389340">
        <ele>7.9</ele>
        <time>2021-05-18T13:18:47Z</time>
      </trkpt>
      <trkpt lat="41.8753460" lon="-8.8389400">
        <ele>7.9</ele>
        <time>2021-05-18T13:18:48Z</time>
      </trkpt>
      <trkpt lat="41.8753450" lon="-8.8389400">
        <ele>7.9</ele>
        <time>2021-05-18T13:18:49Z</time>
      </trkpt>
      <trkpt lat="41.8753420" lon="-8.8389420">
        <ele>7.9</ele>
        <time>2021-05-18T13:18:50Z</time>
      </trkpt>
      <trkpt lat="41.8753400" lon="-8.8389450">
        <ele>7.9</ele>
        <time>2021-05-18T13:18:51Z</time>
      </trkpt>
      <trkpt lat="41.8753380" lon="-8.8389440">
        <ele>7.9</ele>
        <time>2021-05-18T13:18:52Z</time>
      </trkpt>
      <trkpt lat="41.8753330" lon="-8.8389470">
        <ele>7.9</ele>
        <time>2021-05-18T13:18:53Z</time>
      </trkpt>
      <trkpt lat="41.8753280" lon="-8.8389480">
        <ele>7.9</ele>
        <time>2021-05-18T13:18:54Z</time>
      </trkpt>
      <trkpt lat="41.8753260" lon="-8.8389490">
        <ele>7.9</ele>
        <time>2021-05-18T13:18:55Z</time>
      </trkpt>
      <trkpt lat="41.8753230" lon="-8.8389530">
        <ele>7.9</ele>
        <time>2021-05-18T13:18:56Z</time>
      </trkpt>
      <trkpt lat="41.8753230" lon="-8.8389510">
        <ele>7.9</ele>
        <time>2021-05-18T13:18:57Z</time>
      </trkpt>
      <trkpt lat="41.8753240" lon="-8.8389500">
        <ele>7.9</ele>
        <time>2021-05-18T13:18:58Z</time>
      </trkpt>
      <trkpt lat="41.8753240" lon="-8.8389500">
        <ele>7.9</ele>
        <time>2021-05-18T13:18:59Z</time>
      </trkpt>
      <trkpt lat="41.8753240" lon="-8.8389500">
        <ele>7.9</ele>
        <time>2021-05-18T13:19:00Z</time>
      </trkpt>
      <trkpt lat="41.8752970" lon="-8.8389680">
        <ele>7.9</ele>
        <time>2021-05-18T13:19:01Z</time>
      </trkpt>
      <trkpt lat="41.8752960" lon="-8.8389690">
        <ele>7.9</ele>
        <time>2021-05-18T13:19:02Z</time>
      </trkpt>
      <trkpt lat="41.8752960" lon="-8.8389690">
        <ele>7.9</ele>
        <time>2021-05-18T13:19:03Z</time>
      </trkpt>
      <trkpt lat="41.8752950" lon="-8.8389630">
        <ele>7.9</ele>
        <time>2021-05-18T13:19:04Z</time>
      </trkpt>
      <trkpt lat="41.8752950" lon="-8.8389610">
        <ele>7.9</ele>
        <time>2021-05-18T13:19:05Z</time>
      </trkpt>
      <trkpt lat="41.8752920" lon="-8.8389600">
        <ele>7.9</ele>
        <time>2021-05-18T13:19:06Z</time>
      </trkpt>
      <trkpt lat="41.8752900" lon="-8.8389600">
        <ele>7.9</ele>
        <time>2021-05-18T13:19:07Z</time>
      </trkpt>
      <trkpt lat="41.8752850" lon="-8.8389630">
        <ele>7.9</ele>
        <time>2021-05-18T13:19:08Z</time>
      </trkpt>
      <trkpt lat="41.8752850" lon="-8.8389660">
        <ele>7.9</ele>
        <time>2021-05-18T13:19:09Z</time>
      </trkpt>
      <trkpt lat="41.8752890" lon="-8.8389650">
        <ele>7.9</ele>
        <time>2021-05-18T13:19:10Z</time>
      </trkpt>
      <trkpt lat="41.8752890" lon="-8.8389610">
        <ele>7.9</ele>
        <time>2021-05-18T13:19:11Z</time>
      </trkpt>
      <trkpt lat="41.8752890" lon="-8.8389610">
        <ele>7.9</ele>
        <time>2021-05-18T13:19:12Z</time>
      </trkpt>
      <trkpt lat="41.8752900" lon="-8.8389560">
        <ele>7.9</ele>
        <time>2021-05-18T13:19:13Z</time>
      </trkpt>
      <trkpt lat="41.8752860" lon="-8.8389620">
        <ele>7.9</ele>
        <time>2021-05-18T13:19:14Z</time>
      </trkpt>
      <trkpt lat="41.8752860" lon="-8.8389640">
        <ele>7.9</ele>
        <time>2021-05-18T13:19:15Z</time>
      </trkpt>
      <trkpt lat="41.8752850" lon="-8.8389660">
        <ele>7.9</ele>
        <time>2021-05-18T13:19:16Z</time>
      </trkpt>
      <trkpt lat="41.8752850" lon="-8.8389660">
        <ele>7.9</ele>
        <time>2021-05-18T13:19:17Z</time>
      </trkpt>
      <trkpt lat="41.8752860" lon="-8.8389680">
        <ele>7.9</ele>
        <time>2021-05-18T13:19:18Z</time>
      </trkpt>
      <trkpt lat="41.8752870" lon="-8.8389720">
        <ele>7.9</ele>
        <time>2021-05-18T13:19:19Z</time>
      </trkpt>
      <trkpt lat="41.8752870" lon="-8.8389730">
        <ele>7.9</ele>
        <time>2021-05-18T13:19:20Z</time>
      </trkpt>
      <trkpt lat="41.8752870" lon="-8.8389730">
        <ele>7.9</ele>
        <time>2021-05-18T13:19:21Z</time>
      </trkpt>
      <trkpt lat="41.8752850" lon="-8.8389700">
        <ele>7.9</ele>
        <time>2021-05-18T13:19:22Z</time>
      </trkpt>
      <trkpt lat="41.8752850" lon="-8.8389730">
        <ele>7.9</ele>
        <time>2021-05-18T13:19:23Z</time>
      </trkpt>
      <trkpt lat="41.8752850" lon="-8.8389750">
        <ele>7.9</ele>
        <time>2021-05-18T13:19:24Z</time>
      </trkpt>
      <trkpt lat="41.8752820" lon="-8.8389770">
        <ele>7.9</ele>
        <time>2021-05-18T13:19:25Z</time>
      </trkpt>
      <trkpt lat="41.8752800" lon="-8.8389820">
        <ele>7.9</ele>
        <time>2021-05-18T13:19:26Z</time>
      </trkpt>
      <trkpt lat="41.8752790" lon="-8.8389820">
        <ele>7.9</ele>
        <time>2021-05-18T13:19:27Z</time>
      </trkpt>
      <trkpt lat="41.8752790" lon="-8.8389820">
        <ele>7.9</ele>
        <time>2021-05-18T13:19:28Z</time>
      </trkpt>
      <trkpt lat="41.8752760" lon="-8.8389840">
        <ele>7.9</ele>
        <time>2021-05-18T13:19:29Z</time>
      </trkpt>
      <trkpt lat="41.8752770" lon="-8.8389850">
        <ele>7.9</ele>
        <time>2021-05-18T13:19:30Z</time>
      </trkpt>
      <trkpt lat="41.8752780" lon="-8.8389850">
        <ele>7.9</ele>
        <time>2021-05-18T13:19:31Z</time>
      </trkpt>
      <trkpt lat="41.8752760" lon="-8.8389890">
        <ele>7.9</ele>
        <time>2021-05-18T13:19:32Z</time>
      </trkpt>
      <trkpt lat="41.8752780" lon="-8.8389900">
        <ele>7.9</ele>
        <time>2021-05-18T13:19:33Z</time>
      </trkpt>
      <trkpt lat="41.8752800" lon="-8.8389900">
        <ele>7.9</ele>
        <time>2021-05-18T13:19:34Z</time>
      </trkpt>
      <trkpt lat="41.8752790" lon="-8.8389960">
        <ele>7.9</ele>
        <time>2021-05-18T13:19:35Z</time>
      </trkpt>
      <trkpt lat="41.8752800" lon="-8.8389960">
        <ele>7.9</ele>
        <time>2021-05-18T13:19:36Z</time>
      </trkpt>
      <trkpt lat="41.8752820" lon="-8.8389950">
        <ele>7.9</ele>
        <time>2021-05-18T13:19:37Z</time>
      </trkpt>
      <trkpt lat="41.8752820" lon="-8.8389950">
        <ele>7.9</ele>
        <time>2021-05-18T13:19:38Z</time>
      </trkpt>
      <trkpt lat="41.8752860" lon="-8.8389950">
        <ele>7.9</ele>
        <time>2021-05-18T13:19:39Z</time>
      </trkpt>
      <trkpt lat="41.8752880" lon="-8.8389930">
        <ele>7.9</ele>
        <time>2021-05-18T13:19:40Z</time>
      </trkpt>
      <trkpt lat="41.8752880" lon="-8.8389930">
        <ele>7.9</ele>
        <time>2021-05-18T13:19:41Z</time>
      </trkpt>
      <trkpt lat="41.8752880" lon="-8.8389920">
        <ele>7.9</ele>
        <time>2021-05-18T13:19:42Z</time>
      </trkpt>
      <trkpt lat="41.8752880" lon="-8.8389900">
        <ele>7.9</ele>
        <time>2021-05-18T13:19:43Z</time>
      </trkpt>
      <trkpt lat="41.8752870" lon="-8.8389900">
        <ele>7.9</ele>
        <time>2021-05-18T13:19:44Z</time>
      </trkpt>
      <trkpt lat="41.8752840" lon="-8.8389930">
        <ele>7.9</ele>
        <time>2021-05-18T13:19:45Z</time>
      </trkpt>
      <trkpt lat="41.8752820" lon="-8.8389940">
        <ele>7.9</ele>
        <time>2021-05-18T13:19:46Z</time>
      </trkpt>
      <trkpt lat="41.8752810" lon="-8.8389950">
        <ele>7.9</ele>
        <time>2021-05-18T13:19:47Z</time>
      </trkpt>
      <trkpt lat="41.8752820" lon="-8.8389950">
        <ele>7.9</ele>
        <time>2021-05-18T13:19:48Z</time>
      </trkpt>
      <trkpt lat="41.8752870" lon="-8.8389880">
        <ele>7.9</ele>
        <time>2021-05-18T13:19:49Z</time>
      </trkpt>
      <trkpt lat="41.8752860" lon="-8.8389890">
        <ele>7.9</ele>
        <time>2021-05-18T13:19:50Z</time>
      </trkpt>
      <trkpt lat="41.8752840" lon="-8.8389900">
        <ele>7.9</ele>
        <time>2021-05-18T13:19:51Z</time>
      </trkpt>
      <trkpt lat="41.8752880" lon="-8.8389830">
        <ele>7.9</ele>
        <time>2021-05-18T13:19:52Z</time>
      </trkpt>
      <trkpt lat="41.8752920" lon="-8.8389810">
        <ele>7.9</ele>
        <time>2021-05-18T13:19:53Z</time>
      </trkpt>
      <trkpt lat="41.8752910" lon="-8.8389830">
        <ele>7.9</ele>
        <time>2021-05-18T13:19:54Z</time>
      </trkpt>
      <trkpt lat="41.8752920" lon="-8.8389810">
        <ele>7.9</ele>
        <time>2021-05-18T13:19:55Z</time>
      </trkpt>
      <trkpt lat="41.8752920" lon="-8.8389810">
        <ele>7.9</ele>
        <time>2021-05-18T13:19:56Z</time>
      </trkpt>
      <trkpt lat="41.8752920" lon="-8.8389810">
        <ele>7.9</ele>
        <time>2021-05-18T13:19:57Z</time>
      </trkpt>
      <trkpt lat="41.8752920" lon="-8.8389810">
        <ele>7.9</ele>
        <time>2021-05-18T13:19:58Z</time>
      </trkpt>
      <trkpt lat="41.8752900" lon="-8.8389790">
        <ele>7.9</ele>
        <time>2021-05-18T13:19:59Z</time>
      </trkpt>
      <trkpt lat="41.8752900" lon="-8.8389790">
        <ele>7.9</ele>
        <time>2021-05-18T13:20:00Z</time>
      </trkpt>
      <trkpt lat="41.8752900" lon="-8.8389790">
        <ele>7.9</ele>
        <time>2021-05-18T13:20:01Z</time>
      </trkpt>
      <trkpt lat="41.8752950" lon="-8.8389740">
        <ele>7.9</ele>
        <time>2021-05-18T13:20:02Z</time>
      </trkpt>
      <trkpt lat="41.8752920" lon="-8.8389750">
        <ele>7.9</ele>
        <time>2021-05-18T13:20:03Z</time>
      </trkpt>
      <trkpt lat="41.8752900" lon="-8.8389770">
        <ele>7.9</ele>
        <time>2021-05-18T13:20:04Z</time>
      </trkpt>
      <trkpt lat="41.8752880" lon="-8.8389780">
        <ele>7.9</ele>
        <time>2021-05-18T13:20:05Z</time>
      </trkpt>
      <trkpt lat="41.8752910" lon="-8.8389780">
        <ele>7.9</ele>
        <time>2021-05-18T13:20:06Z</time>
      </trkpt>
      <trkpt lat="41.8752910" lon="-8.8389740">
        <ele>7.9</ele>
        <time>2021-05-18T13:20:07Z</time>
      </trkpt>
      <trkpt lat="41.8752940" lon="-8.8389710">
        <ele>7.9</ele>
        <time>2021-05-18T13:20:08Z</time>
      </trkpt>
      <trkpt lat="41.8752940" lon="-8.8389700">
        <ele>7.9</ele>
        <time>2021-05-18T13:20:09Z</time>
      </trkpt>
      <trkpt lat="41.8752980" lon="-8.8389670">
        <ele>7.9</ele>
        <time>2021-05-18T13:20:10Z</time>
      </trkpt>
      <trkpt lat="41.8753010" lon="-8.8389660">
        <ele>7.9</ele>
        <time>2021-05-18T13:20:11Z</time>
      </trkpt>
      <trkpt lat="41.8753020" lon="-8.8389630">
        <ele>7.9</ele>
        <time>2021-05-18T13:20:12Z</time>
      </trkpt>
      <trkpt lat="41.8753060" lon="-8.8389550">
        <ele>7.9</ele>
        <time>2021-05-18T13:20:13Z</time>
      </trkpt>
      <trkpt lat="41.8753080" lon="-8.8389530">
        <ele>7.9</ele>
        <time>2021-05-18T13:20:14Z</time>
      </trkpt>
      <trkpt lat="41.8753020" lon="-8.8389560">
        <ele>7.9</ele>
        <time>2021-05-18T13:20:15Z</time>
      </trkpt>
      <trkpt lat="41.8753030" lon="-8.8389530">
        <ele>7.9</ele>
        <time>2021-05-18T13:20:16Z</time>
      </trkpt>
      <trkpt lat="41.8753040" lon="-8.8389510">
        <ele>7.9</ele>
        <time>2021-05-18T13:20:17Z</time>
      </trkpt>
      <trkpt lat="41.8753040" lon="-8.8389510">
        <ele>7.9</ele>
        <time>2021-05-18T13:20:18Z</time>
      </trkpt>
      <trkpt lat="41.8753000" lon="-8.8389570">
        <ele>7.9</ele>
        <time>2021-05-18T13:20:19Z</time>
      </trkpt>
      <trkpt lat="41.8752970" lon="-8.8389600">
        <ele>7.9</ele>
        <time>2021-05-18T13:20:20Z</time>
      </trkpt>
      <trkpt lat="41.8752930" lon="-8.8389620">
        <ele>7.9</ele>
        <time>2021-05-18T13:20:21Z</time>
      </trkpt>
      <trkpt lat="41.8752870" lon="-8.8389670">
        <ele>7.9</ele>
        <time>2021-05-18T13:20:22Z</time>
      </trkpt>
      <trkpt lat="41.8752800" lon="-8.8389710">
        <ele>7.9</ele>
        <time>2021-05-18T13:20:23Z</time>
      </trkpt>
      <trkpt lat="41.8752790" lon="-8.8389720">
        <ele>7.9</ele>
        <time>2021-05-18T13:20:24Z</time>
      </trkpt>
      <trkpt lat="41.8752780" lon="-8.8389710">
        <ele>7.9</ele>
        <time>2021-05-18T13:20:25Z</time>
      </trkpt>
      <trkpt lat="41.8752770" lon="-8.8389730">
        <ele>7.9</ele>
        <time>2021-05-18T13:20:26Z</time>
      </trkpt>
      <trkpt lat="41.8752740" lon="-8.8389760">
        <ele>7.9</ele>
        <time>2021-05-18T13:20:27Z</time>
      </trkpt>
      <trkpt lat="41.8752710" lon="-8.8389810">
        <ele>7.9</ele>
        <time>2021-05-18T13:20:28Z</time>
      </trkpt>
      <trkpt lat="41.8752690" lon="-8.8389840">
        <ele>7.9</ele>
        <time>2021-05-18T13:20:29Z</time>
      </trkpt>
      <trkpt lat="41.8752660" lon="-8.8389890">
        <ele>7.9</ele>
        <time>2021-05-18T13:20:30Z</time>
      </trkpt>
      <trkpt lat="41.8752610" lon="-8.8389950">
        <ele>7.9</ele>
        <time>2021-05-18T13:20:31Z</time>
      </trkpt>
      <trkpt lat="41.8752600" lon="-8.8389960">
        <ele>7.9</ele>
        <time>2021-05-18T13:20:32Z</time>
      </trkpt>
      <trkpt lat="41.8752600" lon="-8.8389960">
        <ele>7.9</ele>
        <time>2021-05-18T13:20:33Z</time>
      </trkpt>
      <trkpt lat="41.8752550" lon="-8.8390020">
        <ele>7.9</ele>
        <time>2021-05-18T13:20:34Z</time>
      </trkpt>
      <trkpt lat="41.8752510" lon="-8.8390080">
        <ele>7.9</ele>
        <time>2021-05-18T13:20:35Z</time>
      </trkpt>
      <trkpt lat="41.8752500" lon="-8.8390100">
        <ele>7.9</ele>
        <time>2021-05-18T13:20:36Z</time>
      </trkpt>
      <trkpt lat="41.8752490" lon="-8.8390110">
        <ele>7.9</ele>
        <time>2021-05-18T13:20:37Z</time>
      </trkpt>
      <trkpt lat="41.8752460" lon="-8.8390140">
        <ele>7.9</ele>
        <time>2021-05-18T13:20:38Z</time>
      </trkpt>
      <trkpt lat="41.8752430" lon="-8.8390170">
        <ele>7.9</ele>
        <time>2021-05-18T13:20:39Z</time>
      </trkpt>
      <trkpt lat="41.8752440" lon="-8.8390170">
        <ele>7.9</ele>
        <time>2021-05-18T13:20:40Z</time>
      </trkpt>
      <trkpt lat="41.8752470" lon="-8.8390140">
        <ele>7.9</ele>
        <time>2021-05-18T13:20:41Z</time>
      </trkpt>
      <trkpt lat="41.8752490" lon="-8.8390190">
        <ele>7.9</ele>
        <time>2021-05-18T13:20:42Z</time>
      </trkpt>
      <trkpt lat="41.8752470" lon="-8.8390230">
        <ele>7.9</ele>
        <time>2021-05-18T13:20:43Z</time>
      </trkpt>
      <trkpt lat="41.8752410" lon="-8.8390280">
        <ele>7.9</ele>
        <time>2021-05-18T13:20:44Z</time>
      </trkpt>
      <trkpt lat="41.8752400" lon="-8.8390260">
        <ele>7.9</ele>
        <time>2021-05-18T13:20:45Z</time>
      </trkpt>
      <trkpt lat="41.8752460" lon="-8.8390180">
        <ele>7.9</ele>
        <time>2021-05-18T13:20:46Z</time>
      </trkpt>
      <trkpt lat="41.8752500" lon="-8.8390120">
        <ele>7.9</ele>
        <time>2021-05-18T13:20:47Z</time>
      </trkpt>
      <trkpt lat="41.8752500" lon="-8.8390120">
        <ele>7.9</ele>
        <time>2021-05-18T13:20:48Z</time>
      </trkpt>
      <trkpt lat="41.8752520" lon="-8.8390080">
        <ele>7.9</ele>
        <time>2021-05-18T13:20:49Z</time>
      </trkpt>
      <trkpt lat="41.8752480" lon="-8.8390090">
        <ele>7.9</ele>
        <time>2021-05-18T13:20:50Z</time>
      </trkpt>
      <trkpt lat="41.8752440" lon="-8.8390080">
        <ele>7.9</ele>
        <time>2021-05-18T13:20:51Z</time>
      </trkpt>
      <trkpt lat="41.8752410" lon="-8.8390090">
        <ele>7.9</ele>
        <time>2021-05-18T13:20:52Z</time>
      </trkpt>
      <trkpt lat="41.8752400" lon="-8.8390060">
        <ele>7.9</ele>
        <time>2021-05-18T13:20:53Z</time>
      </trkpt>
      <trkpt lat="41.8752350" lon="-8.8390070">
        <ele>7.9</ele>
        <time>2021-05-18T13:20:54Z</time>
      </trkpt>
      <trkpt lat="41.8752340" lon="-8.8390040">
        <ele>7.9</ele>
        <time>2021-05-18T13:20:55Z</time>
      </trkpt>
      <trkpt lat="41.8752310" lon="-8.8390030">
        <ele>7.9</ele>
        <time>2021-05-18T13:20:57Z</time>
      </trkpt>
      <trkpt lat="41.8752310" lon="-8.8390030">
        <ele>7.9</ele>
        <time>2021-05-18T13:20:58Z</time>
      </trkpt>
      <trkpt lat="41.8752350" lon="-8.8389960">
        <ele>7.9</ele>
        <time>2021-05-18T13:20:59Z</time>
      </trkpt>
      <trkpt lat="41.8752350" lon="-8.8389930">
        <ele>7.9</ele>
        <time>2021-05-18T13:21:00Z</time>
      </trkpt>
      <trkpt lat="41.8752330" lon="-8.8389920">
        <ele>7.9</ele>
        <time>2021-05-18T13:21:01Z</time>
      </trkpt>
      <trkpt lat="41.8752340" lon="-8.8389900">
        <ele>7.9</ele>
        <time>2021-05-18T13:21:02Z</time>
      </trkpt>
      <trkpt lat="41.8752330" lon="-8.8389940">
        <ele>7.9</ele>
        <time>2021-05-18T13:21:03Z</time>
      </trkpt>
      <trkpt lat="41.8752350" lon="-8.8389940">
        <ele>7.9</ele>
        <time>2021-05-18T13:21:04Z</time>
      </trkpt>
      <trkpt lat="41.8752300" lon="-8.8389940">
        <ele>7.9</ele>
        <time>2021-05-18T13:21:05Z</time>
      </trkpt>
      <trkpt lat="41.8752330" lon="-8.8389930">
        <ele>7.9</ele>
        <time>2021-05-18T13:21:06Z</time>
      </trkpt>
      <trkpt lat="41.8752380" lon="-8.8389900">
        <ele>7.9</ele>
        <time>2021-05-18T13:21:07Z</time>
      </trkpt>
      <trkpt lat="41.8752410" lon="-8.8389870">
        <ele>7.9</ele>
        <time>2021-05-18T13:21:08Z</time>
      </trkpt>
      <trkpt lat="41.8752400" lon="-8.8389860">
        <ele>7.9</ele>
        <time>2021-05-18T13:21:09Z</time>
      </trkpt>
      <trkpt lat="41.8752400" lon="-8.8389840">
        <ele>7.9</ele>
        <time>2021-05-18T13:21:10Z</time>
      </trkpt>
      <trkpt lat="41.8752390" lon="-8.8389850">
        <ele>7.9</ele>
        <time>2021-05-18T13:21:11Z</time>
      </trkpt>
      <trkpt lat="41.8752370" lon="-8.8389880">
        <ele>7.9</ele>
        <time>2021-05-18T13:21:12Z</time>
      </trkpt>
      <trkpt lat="41.8752400" lon="-8.8389890">
        <ele>7.9</ele>
        <time>2021-05-18T13:21:13Z</time>
      </trkpt>
      <trkpt lat="41.8752400" lon="-8.8389900">
        <ele>7.9</ele>
        <time>2021-05-18T13:21:14Z</time>
      </trkpt>
      <trkpt lat="41.8752450" lon="-8.8389800">
        <ele>7.9</ele>
        <time>2021-05-18T13:21:15Z</time>
      </trkpt>
      <trkpt lat="41.8752490" lon="-8.8389790">
        <ele>7.9</ele>
        <time>2021-05-18T13:21:16Z</time>
      </trkpt>
      <trkpt lat="41.8752540" lon="-8.8389810">
        <ele>7.9</ele>
        <time>2021-05-18T13:21:17Z</time>
      </trkpt>
      <trkpt lat="41.8752590" lon="-8.8389810">
        <ele>7.9</ele>
        <time>2021-05-18T13:21:18Z</time>
      </trkpt>
      <trkpt lat="41.8752630" lon="-8.8389810">
        <ele>7.9</ele>
        <time>2021-05-18T13:21:19Z</time>
      </trkpt>
      <trkpt lat="41.8752690" lon="-8.8389780">
        <ele>7.9</ele>
        <time>2021-05-18T13:21:20Z</time>
      </trkpt>
      <trkpt lat="41.8752730" lon="-8.8389750">
        <ele>7.9</ele>
        <time>2021-05-18T13:21:21Z</time>
      </trkpt>
      <trkpt lat="41.8752770" lon="-8.8389730">
        <ele>7.9</ele>
        <time>2021-05-18T13:21:22Z</time>
      </trkpt>
      <trkpt lat="41.8752790" lon="-8.8389720">
        <ele>7.9</ele>
        <time>2021-05-18T13:21:23Z</time>
      </trkpt>
      <trkpt lat="41.8752820" lon="-8.8389700">
        <ele>7.9</ele>
        <time>2021-05-18T13:21:24Z</time>
      </trkpt>
      <trkpt lat="41.8752820" lon="-8.8389700">
        <ele>7.9</ele>
        <time>2021-05-18T13:21:25Z</time>
      </trkpt>
      <trkpt lat="41.8752830" lon="-8.8389670">
        <ele>7.9</ele>
        <time>2021-05-18T13:21:26Z</time>
      </trkpt>
      <trkpt lat="41.8752830" lon="-8.8389670">
        <ele>7.9</ele>
        <time>2021-05-18T13:21:27Z</time>
      </trkpt>
      <trkpt lat="41.8752820" lon="-8.8389660">
        <ele>7.9</ele>
        <time>2021-05-18T13:21:28Z</time>
      </trkpt>
      <trkpt lat="41.8752820" lon="-8.8389660">
        <ele>7.9</ele>
        <time>2021-05-18T13:21:29Z</time>
      </trkpt>
      <trkpt lat="41.8752850" lon="-8.8389620">
        <ele>7.9</ele>
        <time>2021-05-18T13:21:30Z</time>
      </trkpt>
      <trkpt lat="41.8752850" lon="-8.8389590">
        <ele>7.9</ele>
        <time>2021-05-18T13:21:31Z</time>
      </trkpt>
      <trkpt lat="41.8752870" lon="-8.8389560">
        <ele>7.9</ele>
        <time>2021-05-18T13:21:32Z</time>
      </trkpt>
      <trkpt lat="41.8752870" lon="-8.8389570">
        <ele>7.9</ele>
        <time>2021-05-18T13:21:33Z</time>
      </trkpt>
      <trkpt lat="41.8752870" lon="-8.8389570">
        <ele>7.9</ele>
        <time>2021-05-18T13:21:34Z</time>
      </trkpt>
      <trkpt lat="41.8752910" lon="-8.8389570">
        <ele>7.9</ele>
        <time>2021-05-18T13:21:35Z</time>
      </trkpt>
      <trkpt lat="41.8752900" lon="-8.8389580">
        <ele>7.9</ele>
        <time>2021-05-18T13:21:36Z</time>
      </trkpt>
      <trkpt lat="41.8752900" lon="-8.8389580">
        <ele>7.9</ele>
        <time>2021-05-18T13:21:37Z</time>
      </trkpt>
      <trkpt lat="41.8753010" lon="-8.8389510">
        <ele>7.9</ele>
        <time>2021-05-18T13:21:38Z</time>
      </trkpt>
      <trkpt lat="41.8753040" lon="-8.8389500">
        <ele>7.9</ele>
        <time>2021-05-18T13:21:39Z</time>
      </trkpt>
      <trkpt lat="41.8753040" lon="-8.8389510">
        <ele>7.9</ele>
        <time>2021-05-18T13:21:40Z</time>
      </trkpt>
      <trkpt lat="41.8753110" lon="-8.8389450">
        <ele>7.9</ele>
        <time>2021-05-18T13:21:41Z</time>
      </trkpt>
      <trkpt lat="41.8753130" lon="-8.8389440">
        <ele>7.9</ele>
        <time>2021-05-18T13:21:42Z</time>
      </trkpt>
      <trkpt lat="41.8753150" lon="-8.8389450">
        <ele>7.9</ele>
        <time>2021-05-18T13:21:43Z</time>
      </trkpt>
      <trkpt lat="41.8753190" lon="-8.8389430">
        <ele>7.9</ele>
        <time>2021-05-18T13:21:44Z</time>
      </trkpt>
      <trkpt lat="41.8753220" lon="-8.8389440">
        <ele>7.9</ele>
        <time>2021-05-18T13:21:45Z</time>
      </trkpt>
      <trkpt lat="41.8753240" lon="-8.8389460">
        <ele>7.9</ele>
        <time>2021-05-18T13:21:46Z</time>
      </trkpt>
      <trkpt lat="41.8753270" lon="-8.8389470">
        <ele>7.9</ele>
        <time>2021-05-18T13:21:47Z</time>
      </trkpt>
      <trkpt lat="41.8753260" lon="-8.8389440">
        <ele>7.8</ele>
        <time>2021-05-18T13:21:48Z</time>
      </trkpt>
      <trkpt lat="41.8753260" lon="-8.8389440">
        <ele>7.8</ele>
        <time>2021-05-18T13:21:49Z</time>
      </trkpt>
      <trkpt lat="41.8753230" lon="-8.8389440">
        <ele>7.8</ele>
        <time>2021-05-18T13:21:50Z</time>
      </trkpt>
      <trkpt lat="41.8753210" lon="-8.8389430">
        <ele>7.8</ele>
        <time>2021-05-18T13:21:51Z</time>
      </trkpt>
      <trkpt lat="41.8753230" lon="-8.8389390">
        <ele>7.8</ele>
        <time>2021-05-18T13:21:52Z</time>
      </trkpt>
      <trkpt lat="41.8753240" lon="-8.8389360">
        <ele>7.8</ele>
        <time>2021-05-18T13:21:53Z</time>
      </trkpt>
      <trkpt lat="41.8753240" lon="-8.8389360">
        <ele>7.8</ele>
        <time>2021-05-18T13:21:54Z</time>
      </trkpt>
      <trkpt lat="41.8753170" lon="-8.8389430">
        <ele>7.7</ele>
        <time>2021-05-18T13:21:55Z</time>
      </trkpt>
      <trkpt lat="41.8753140" lon="-8.8389450">
        <ele>7.7</ele>
        <time>2021-05-18T13:21:56Z</time>
      </trkpt>
      <trkpt lat="41.8753110" lon="-8.8389480">
        <ele>7.7</ele>
        <time>2021-05-18T13:21:57Z</time>
      </trkpt>
      <trkpt lat="41.8753080" lon="-8.8389530">
        <ele>7.7</ele>
        <time>2021-05-18T13:21:58Z</time>
      </trkpt>
      <trkpt lat="41.8753100" lon="-8.8389520">
        <ele>7.7</ele>
        <time>2021-05-18T13:21:59Z</time>
      </trkpt>
      <trkpt lat="41.8753130" lon="-8.8389520">
        <ele>7.7</ele>
        <time>2021-05-18T13:22:00Z</time>
      </trkpt>
      <trkpt lat="41.8753150" lon="-8.8389520">
        <ele>7.7</ele>
        <time>2021-05-18T13:22:01Z</time>
      </trkpt>
      <trkpt lat="41.8753160" lon="-8.8389510">
        <ele>7.6</ele>
        <time>2021-05-18T13:22:02Z</time>
      </trkpt>
      <trkpt lat="41.8753160" lon="-8.8389460">
        <ele>7.6</ele>
        <time>2021-05-18T13:22:03Z</time>
      </trkpt>
      <trkpt lat="41.8753160" lon="-8.8389460">
        <ele>7.6</ele>
        <time>2021-05-18T13:22:04Z</time>
      </trkpt>
      <trkpt lat="41.8753160" lon="-8.8389460">
        <ele>7.6</ele>
        <time>2021-05-18T13:22:05Z</time>
      </trkpt>
      <trkpt lat="41.8753180" lon="-8.8389410">
        <ele>7.6</ele>
        <time>2021-05-18T13:22:06Z</time>
      </trkpt>
      <trkpt lat="41.8753170" lon="-8.8389390">
        <ele>7.6</ele>
        <time>2021-05-18T13:22:07Z</time>
      </trkpt>
      <trkpt lat="41.8753200" lon="-8.8389360">
        <ele>7.6</ele>
        <time>2021-05-18T13:22:08Z</time>
      </trkpt>
      <trkpt lat="41.8753220" lon="-8.8389330">
        <ele>7.6</ele>
        <time>2021-05-18T13:22:09Z</time>
      </trkpt>
      <trkpt lat="41.8753240" lon="-8.8389300">
        <ele>7.5</ele>
        <time>2021-05-18T13:22:10Z</time>
      </trkpt>
      <trkpt lat="41.8753270" lon="-8.8389300">
        <ele>7.5</ele>
        <time>2021-05-18T13:22:11Z</time>
      </trkpt>
      <trkpt lat="41.8753270" lon="-8.8389340">
        <ele>7.5</ele>
        <time>2021-05-18T13:22:12Z</time>
      </trkpt>
      <trkpt lat="41.8753280" lon="-8.8389320">
        <ele>7.5</ele>
        <time>2021-05-18T13:22:13Z</time>
      </trkpt>
      <trkpt lat="41.8753280" lon="-8.8389310">
        <ele>7.5</ele>
        <time>2021-05-18T13:22:14Z</time>
      </trkpt>
      <trkpt lat="41.8753280" lon="-8.8389290">
        <ele>7.5</ele>
        <time>2021-05-18T13:22:15Z</time>
      </trkpt>
      <trkpt lat="41.8753260" lon="-8.8389280">
        <ele>7.5</ele>
        <time>2021-05-18T13:22:16Z</time>
      </trkpt>
      <trkpt lat="41.8753290" lon="-8.8389240">
        <ele>7.4</ele>
        <time>2021-05-18T13:22:17Z</time>
      </trkpt>
      <trkpt lat="41.8753300" lon="-8.8389230">
        <ele>7.4</ele>
        <time>2021-05-18T13:22:18Z</time>
      </trkpt>
      <trkpt lat="41.8753280" lon="-8.8389280">
        <ele>7.4</ele>
        <time>2021-05-18T13:22:19Z</time>
      </trkpt>
      <trkpt lat="41.8753320" lon="-8.8389260">
        <ele>7.4</ele>
        <time>2021-05-18T13:22:20Z</time>
      </trkpt>
      <trkpt lat="41.8753320" lon="-8.8389260">
        <ele>7.4</ele>
        <time>2021-05-18T13:22:21Z</time>
      </trkpt>
      <trkpt lat="41.8753340" lon="-8.8389240">
        <ele>7.4</ele>
        <time>2021-05-18T13:22:22Z</time>
      </trkpt>
      <trkpt lat="41.8753290" lon="-8.8389290">
        <ele>7.4</ele>
        <time>2021-05-18T13:22:23Z</time>
      </trkpt>
      <trkpt lat="41.8753270" lon="-8.8389330">
        <ele>7.3</ele>
        <time>2021-05-18T13:22:24Z</time>
      </trkpt>
      <trkpt lat="41.8753260" lon="-8.8389370">
        <ele>7.3</ele>
        <time>2021-05-18T13:22:25Z</time>
      </trkpt>
      <trkpt lat="41.8753300" lon="-8.8389340">
        <ele>7.3</ele>
        <time>2021-05-18T13:22:26Z</time>
      </trkpt>
      <trkpt lat="41.8753320" lon="-8.8389310">
        <ele>7.3</ele>
        <time>2021-05-18T13:22:27Z</time>
      </trkpt>
      <trkpt lat="41.8753320" lon="-8.8389330">
        <ele>7.3</ele>
        <time>2021-05-18T13:22:28Z</time>
      </trkpt>
      <trkpt lat="41.8753340" lon="-8.8389290">
        <ele>7.3</ele>
        <time>2021-05-18T13:22:29Z</time>
      </trkpt>
      <trkpt lat="41.8753350" lon="-8.8389290">
        <ele>7.3</ele>
        <time>2021-05-18T13:22:30Z</time>
      </trkpt>
      <trkpt lat="41.8753340" lon="-8.8389340">
        <ele>7.2</ele>
        <time>2021-05-18T13:22:31Z</time>
      </trkpt>
      <trkpt lat="41.8753340" lon="-8.8389340">
        <ele>7.2</ele>
        <time>2021-05-18T13:22:32Z</time>
      </trkpt>
      <trkpt lat="41.8753310" lon="-8.8389370">
        <ele>7.2</ele>
        <time>2021-05-18T13:22:33Z</time>
      </trkpt>
      <trkpt lat="41.8753240" lon="-8.8389450">
        <ele>7.2</ele>
        <time>2021-05-18T13:22:34Z</time>
      </trkpt>
      <trkpt lat="41.8753210" lon="-8.8389480">
        <ele>7.2</ele>
        <time>2021-05-18T13:22:35Z</time>
      </trkpt>
      <trkpt lat="41.8753170" lon="-8.8389500">
        <ele>7.2</ele>
        <time>2021-05-18T13:22:36Z</time>
      </trkpt>
      <trkpt lat="41.8753160" lon="-8.8389500">
        <ele>7.2</ele>
        <time>2021-05-18T13:22:37Z</time>
      </trkpt>
      <trkpt lat="41.8753140" lon="-8.8389530">
        <ele>7.1</ele>
        <time>2021-05-18T13:22:38Z</time>
      </trkpt>
      <trkpt lat="41.8753130" lon="-8.8389510">
        <ele>7.1</ele>
        <time>2021-05-18T13:22:39Z</time>
      </trkpt>
      <trkpt lat="41.8753120" lon="-8.8389470">
        <ele>7.1</ele>
        <time>2021-05-18T13:22:40Z</time>
      </trkpt>
      <trkpt lat="41.8753140" lon="-8.8389450">
        <ele>7.1</ele>
        <time>2021-05-18T13:22:41Z</time>
      </trkpt>
      <trkpt lat="41.8753150" lon="-8.8389430">
        <ele>7.1</ele>
        <time>2021-05-18T13:22:42Z</time>
      </trkpt>
      <trkpt lat="41.8753110" lon="-8.8389470">
        <ele>7.1</ele>
        <time>2021-05-18T13:22:43Z</time>
      </trkpt>
      <trkpt lat="41.8753090" lon="-8.8389510">
        <ele>7.1</ele>
        <time>2021-05-18T13:22:44Z</time>
      </trkpt>
      <trkpt lat="41.8753130" lon="-8.8389460">
        <ele>7.0</ele>
        <time>2021-05-18T13:22:45Z</time>
      </trkpt>
      <trkpt lat="41.8753140" lon="-8.8389440">
        <ele>7.0</ele>
        <time>2021-05-18T13:22:46Z</time>
      </trkpt>
      <trkpt lat="41.8753180" lon="-8.8389390">
        <ele>7.0</ele>
        <time>2021-05-18T13:22:47Z</time>
      </trkpt>
      <trkpt lat="41.8753180" lon="-8.8389410">
        <ele>7.0</ele>
        <time>2021-05-18T13:22:48Z</time>
      </trkpt>
      <trkpt lat="41.8753120" lon="-8.8389450">
        <ele>7.0</ele>
        <time>2021-05-18T13:22:49Z</time>
      </trkpt>
      <trkpt lat="41.8753120" lon="-8.8389450">
        <ele>7.0</ele>
        <time>2021-05-18T13:22:50Z</time>
      </trkpt>
      <trkpt lat="41.8753120" lon="-8.8389450">
        <ele>7.0</ele>
        <time>2021-05-18T13:22:51Z</time>
      </trkpt>
      <trkpt lat="41.8753120" lon="-8.8389450">
        <ele>6.9</ele>
        <time>2021-05-18T13:22:52Z</time>
      </trkpt>
      <trkpt lat="41.8753120" lon="-8.8389450">
        <ele>6.9</ele>
        <time>2021-05-18T13:22:53Z</time>
      </trkpt>
      <trkpt lat="41.8753120" lon="-8.8389450">
        <ele>6.9</ele>
        <time>2021-05-18T13:22:54Z</time>
      </trkpt>
      <trkpt lat="41.8753120" lon="-8.8389450">
        <ele>6.9</ele>
        <time>2021-05-18T13:22:55Z</time>
      </trkpt>
      <trkpt lat="41.8753120" lon="-8.8389450">
        <ele>6.9</ele>
        <time>2021-05-18T13:22:56Z</time>
      </trkpt>
      <trkpt lat="41.8753120" lon="-8.8389450">
        <ele>6.9</ele>
        <time>2021-05-18T13:22:57Z</time>
      </trkpt>
      <trkpt lat="41.8753120" lon="-8.8389450">
        <ele>6.9</ele>
        <time>2021-05-18T13:22:58Z</time>
      </trkpt>
      <trkpt lat="41.8753120" lon="-8.8389450">
        <ele>6.9</ele>
        <time>2021-05-18T13:22:59Z</time>
      </trkpt>
      <trkpt lat="41.8753120" lon="-8.8389450">
        <ele>6.8</ele>
        <time>2021-05-18T13:23:00Z</time>
      </trkpt>
      <trkpt lat="41.8753120" lon="-8.8389450">
        <ele>6.8</ele>
        <time>2021-05-18T13:23:01Z</time>
      </trkpt>
      <trkpt lat="41.8753120" lon="-8.8389450">
        <ele>6.8</ele>
        <time>2021-05-18T13:23:02Z</time>
      </trkpt>
      <trkpt lat="41.8753120" lon="-8.8389450">
        <ele>6.8</ele>
        <time>2021-05-18T13:23:03Z</time>
      </trkpt>
      <trkpt lat="41.8753120" lon="-8.8389450">
        <ele>6.8</ele>
        <time>2021-05-18T13:23:05Z</time>
      </trkpt>
      <trkpt lat="41.8753120" lon="-8.8389450">
        <ele>6.8</ele>
        <time>2021-05-18T13:23:06Z</time>
      </trkpt>
      <trkpt lat="41.8753120" lon="-8.8389450">
        <ele>6.8</ele>
        <time>2021-05-18T13:23:07Z</time>
      </trkpt>
      <trkpt lat="41.8753120" lon="-8.8389450">
        <ele>6.7</ele>
        <time>2021-05-18T13:23:08Z</time>
      </trkpt>
      <trkpt lat="41.8753120" lon="-8.8389450">
        <ele>6.7</ele>
        <time>2021-05-18T13:23:09Z</time>
      </trkpt>
      <trkpt lat="41.8753120" lon="-8.8389450">
        <ele>6.7</ele>
        <time>2021-05-18T13:23:10Z</time>
      </trkpt>
      <trkpt lat="41.8753120" lon="-8.8389450">
        <ele>6.7</ele>
        <time>2021-05-18T13:23:11Z</time>
      </trkpt>
      <trkpt lat="41.8753120" lon="-8.8389450">
        <ele>6.7</ele>
        <time>2021-05-18T13:23:12Z</time>
      </trkpt>
      <trkpt lat="41.8753120" lon="-8.8389450">
        <ele>6.7</ele>
        <time>2021-05-18T13:23:13Z</time>
      </trkpt>
      <trkpt lat="41.8753120" lon="-8.8389450">
        <ele>6.7</ele>
        <time>2021-05-18T13:23:14Z</time>
      </trkpt>
      <trkpt lat="41.8753120" lon="-8.8389450">
        <ele>6.6</ele>
        <time>2021-05-18T13:23:15Z</time>
      </trkpt>
      <trkpt lat="41.8753120" lon="-8.8389450">
        <ele>6.6</ele>
        <time>2021-05-18T13:23:16Z</time>
      </trkpt>
      <trkpt lat="41.8753120" lon="-8.8389450">
        <ele>6.6</ele>
        <time>2021-05-18T13:23:17Z</time>
      </trkpt>
      <trkpt lat="41.8753120" lon="-8.8389450">
        <ele>6.6</ele>
        <time>2021-05-18T13:23:18Z</time>
      </trkpt>
      <trkpt lat="41.8753120" lon="-8.8389450">
        <ele>6.6</ele>
        <time>2021-05-18T13:23:19Z</time>
      </trkpt>
      <trkpt lat="41.8753120" lon="-8.8389450">
        <ele>6.6</ele>
        <time>2021-05-18T13:23:20Z</time>
      </trkpt>
      <trkpt lat="41.8753120" lon="-8.8389450">
        <ele>6.6</ele>
        <time>2021-05-18T13:23:21Z</time>
      </trkpt>
      <trkpt lat="41.8753120" lon="-8.8389450">
        <ele>6.5</ele>
        <time>2021-05-18T13:23:22Z</time>
      </trkpt>
      <trkpt lat="41.8753120" lon="-8.8389450">
        <ele>6.5</ele>
        <time>2021-05-18T13:23:23Z</time>
      </trkpt>
      <trkpt lat="41.8753120" lon="-8.8389450">
        <ele>6.5</ele>
        <time>2021-05-18T13:23:24Z</time>
      </trkpt>
      <trkpt lat="41.8753120" lon="-8.8389450">
        <ele>6.5</ele>
        <time>2021-05-18T13:23:25Z</time>
      </trkpt>
      <trkpt lat="41.8753120" lon="-8.8389450">
        <ele>6.5</ele>
        <time>2021-05-18T13:23:26Z</time>
      </trkpt>
      <trkpt lat="41.8753120" lon="-8.8389450">
        <ele>6.5</ele>
        <time>2021-05-18T13:23:27Z</time>
      </trkpt>
      <trkpt lat="41.8753120" lon="-8.8389450">
        <ele>6.5</ele>
        <time>2021-05-18T13:23:28Z</time>
      </trkpt>
      <trkpt lat="41.8753120" lon="-8.8389450">
        <ele>6.5</ele>
        <time>2021-05-18T13:23:29Z</time>
      </trkpt>
      <trkpt lat="41.8753120" lon="-8.8389450">
        <ele>6.5</ele>
        <time>2021-05-18T13:23:30Z</time>
      </trkpt>
      <trkpt lat="41.8753120" lon="-8.8389450">
        <ele>6.5</ele>
        <time>2021-05-18T13:23:31Z</time>
      </trkpt>
      <trkpt lat="41.8753120" lon="-8.8389450">
        <ele>6.5</ele>
        <time>2021-05-18T13:23:32Z</time>
      </trkpt>
      <trkpt lat="41.8753120" lon="-8.8389450">
        <ele>6.5</ele>
        <time>2021-05-18T13:23:33Z</time>
      </trkpt>
      <trkpt lat="41.8753120" lon="-8.8389450">
        <ele>6.5</ele>
        <time>2021-05-18T13:23:34Z</time>
      </trkpt>
      <trkpt lat="41.8753120" lon="-8.8389450">
        <ele>6.5</ele>
        <time>2021-05-18T13:23:35Z</time>
      </trkpt>
      <trkpt lat="41.8753120" lon="-8.8389450">
        <ele>6.5</ele>
        <time>2021-05-18T13:23:36Z</time>
      </trkpt>
      <trkpt lat="41.8753120" lon="-8.8389450">
        <ele>6.5</ele>
        <time>2021-05-18T13:23:37Z</time>
      </trkpt>
      <trkpt lat="41.8753120" lon="-8.8389450">
        <ele>6.5</ele>
        <time>2021-05-18T13:23:38Z</time>
      </trkpt>
      <trkpt lat="41.8753120" lon="-8.8389450">
        <ele>6.5</ele>
        <time>2021-05-18T13:23:39Z</time>
      </trkpt>
      <trkpt lat="41.8753120" lon="-8.8389450">
        <ele>6.5</ele>
        <time>2021-05-18T13:23:40Z</time>
      </trkpt>
      <trkpt lat="41.8753120" lon="-8.8389450">
        <ele>6.5</ele>
        <time>2021-05-18T13:23:41Z</time>
      </trkpt>
      <trkpt lat="41.8753120" lon="-8.8389450">
        <ele>6.5</ele>
        <time>2021-05-18T13:23:42Z</time>
      </trkpt>
      <trkpt lat="41.8753120" lon="-8.8389450">
        <ele>6.5</ele>
        <time>2021-05-18T13:23:43Z</time>
      </trkpt>
      <trkpt lat="41.8753120" lon="-8.8389450">
        <ele>6.5</ele>
        <time>2021-05-18T13:23:44Z</time>
      </trkpt>
      <trkpt lat="41.8753120" lon="-8.8389450">
        <ele>6.5</ele>
        <time>2021-05-18T13:23:45Z</time>
      </trkpt>
      <trkpt lat="41.8753120" lon="-8.8389450">
        <ele>6.5</ele>
        <time>2021-05-18T13:23:46Z</time>
      </trkpt>
      <trkpt lat="41.8753120" lon="-8.8389450">
        <ele>6.5</ele>
        <time>2021-05-18T13:23:47Z</time>
      </trkpt>
      <trkpt lat="41.8753120" lon="-8.8389450">
        <ele>6.5</ele>
        <time>2021-05-18T13:23:48Z</time>
      </trkpt>
      <trkpt lat="41.8753120" lon="-8.8389450">
        <ele>6.5</ele>
        <time>2021-05-18T13:23:49Z</time>
      </trkpt>
      <trkpt lat="41.8753120" lon="-8.8389450">
        <ele>6.5</ele>
        <time>2021-05-18T13:23:50Z</time>
      </trkpt>
      <trkpt lat="41.8753120" lon="-8.8389450">
        <ele>6.5</ele>
        <time>2021-05-18T13:23:51Z</time>
      </trkpt>
      <trkpt lat="41.8753120" lon="-8.8389450">
        <ele>6.5</ele>
        <time>2021-05-18T13:23:52Z</time>
      </trkpt>
      <trkpt lat="41.8753120" lon="-8.8389450">
        <ele>6.5</ele>
        <time>2021-05-18T13:23:53Z</time>
      </trkpt>
      <trkpt lat="41.8753120" lon="-8.8389450">
        <ele>6.5</ele>
        <time>2021-05-18T13:23:54Z</time>
      </trkpt>
      <trkpt lat="41.8753120" lon="-8.8389450">
        <ele>6.5</ele>
        <time>2021-05-18T13:23:55Z</time>
      </trkpt>
      <trkpt lat="41.8753120" lon="-8.8389450">
        <ele>6.5</ele>
        <time>2021-05-18T13:23:56Z</time>
      </trkpt>
      <trkpt lat="41.8753120" lon="-8.8389450">
        <ele>6.5</ele>
        <time>2021-05-18T13:23:57Z</time>
      </trkpt>
      <trkpt lat="41.8753120" lon="-8.8389450">
        <ele>6.5</ele>
        <time>2021-05-18T13:23:58Z</time>
      </trkpt>
      <trkpt lat="41.8753120" lon="-8.8389450">
        <ele>6.5</ele>
        <time>2021-05-18T13:23:59Z</time>
      </trkpt>
      <trkpt lat="41.8753120" lon="-8.8389450">
        <ele>6.5</ele>
        <time>2021-05-18T13:24:00Z</time>
      </trkpt>
      <trkpt lat="41.8753120" lon="-8.8389450">
        <ele>6.5</ele>
        <time>2021-05-18T13:24:01Z</time>
      </trkpt>
      <trkpt lat="41.8753120" lon="-8.8389450">
        <ele>6.5</ele>
        <time>2021-05-18T13:24:02Z</time>
      </trkpt>
      <trkpt lat="41.8753120" lon="-8.8389450">
        <ele>6.5</ele>
        <time>2021-05-18T13:24:03Z</time>
      </trkpt>
      <trkpt lat="41.8753120" lon="-8.8389450">
        <ele>6.5</ele>
        <time>2021-05-18T13:24:04Z</time>
      </trkpt>
      <trkpt lat="41.8753120" lon="-8.8389450">
        <ele>6.5</ele>
        <time>2021-05-18T13:24:05Z</time>
      </trkpt>
      <trkpt lat="41.8753120" lon="-8.8389450">
        <ele>6.5</ele>
        <time>2021-05-18T13:24:06Z</time>
      </trkpt>
      <trkpt lat="41.8753120" lon="-8.8389450">
        <ele>6.5</ele>
        <time>2021-05-18T13:24:07Z</time>
      </trkpt>
      <trkpt lat="41.8753120" lon="-8.8389450">
        <ele>6.5</ele>
        <time>2021-05-18T13:24:08Z</time>
      </trkpt>
      <trkpt lat="41.8753120" lon="-8.8389450">
        <ele>6.5</ele>
        <time>2021-05-18T13:24:09Z</time>
      </trkpt>
      <trkpt lat="41.8753120" lon="-8.8389450">
        <ele>6.5</ele>
        <time>2021-05-18T13:24:10Z</time>
      </trkpt>
      <trkpt lat="41.8753120" lon="-8.8389450">
        <ele>6.5</ele>
        <time>2021-05-18T13:24:11Z</time>
      </trkpt>
      <trkpt lat="41.8753120" lon="-8.8389450">
        <ele>6.5</ele>
        <time>2021-05-18T13:24:12Z</time>
      </trkpt>
      <trkpt lat="41.8753120" lon="-8.8389450">
        <ele>6.5</ele>
        <time>2021-05-18T13:24:13Z</time>
      </trkpt>
      <trkpt lat="41.8753120" lon="-8.8389450">
        <ele>6.5</ele>
        <time>2021-05-18T13:24:14Z</time>
      </trkpt>
      <trkpt lat="41.8753120" lon="-8.8389450">
        <ele>6.5</ele>
        <time>2021-05-18T13:24:15Z</time>
      </trkpt>
      <trkpt lat="41.8753120" lon="-8.8389450">
        <ele>6.5</ele>
        <time>2021-05-18T13:24:16Z</time>
      </trkpt>
      <trkpt lat="41.8753120" lon="-8.8389450">
        <ele>6.5</ele>
        <time>2021-05-18T13:24:17Z</time>
      </trkpt>
      <trkpt lat="41.8753120" lon="-8.8389450">
        <ele>6.5</ele>
        <time>2021-05-18T13:24:18Z</time>
      </trkpt>
      <trkpt lat="41.8753120" lon="-8.8389450">
        <ele>6.5</ele>
        <time>2021-05-18T13:24:19Z</time>
      </trkpt>
      <trkpt lat="41.8753120" lon="-8.8389450">
        <ele>6.5</ele>
        <time>2021-05-18T13:24:20Z</time>
      </trkpt>
      <trkpt lat="41.8753120" lon="-8.8389450">
        <ele>6.5</ele>
        <time>2021-05-18T13:24:21Z</time>
      </trkpt>
      <trkpt lat="41.8753120" lon="-8.8389450">
        <ele>6.5</ele>
        <time>2021-05-18T13:24:22Z</time>
      </trkpt>
      <trkpt lat="41.8753120" lon="-8.8389450">
        <ele>6.5</ele>
        <time>2021-05-18T13:24:23Z</time>
      </trkpt>
      <trkpt lat="41.8753120" lon="-8.8389450">
        <ele>6.5</ele>
        <time>2021-05-18T13:24:24Z</time>
      </trkpt>
      <trkpt lat="41.8753120" lon="-8.8389450">
        <ele>6.5</ele>
        <time>2021-05-18T13:24:25Z</time>
      </trkpt>
      <trkpt lat="41.8753120" lon="-8.8389450">
        <ele>6.5</ele>
        <time>2021-05-18T13:24:26Z</time>
      </trkpt>
      <trkpt lat="41.8753120" lon="-8.8389450">
        <ele>6.5</ele>
        <time>2021-05-18T13:24:27Z</time>
      </trkpt>
      <trkpt lat="41.8753120" lon="-8.8389450">
        <ele>6.5</ele>
        <time>2021-05-18T13:24:28Z</time>
      </trkpt>
      <trkpt lat="41.8753120" lon="-8.8389450">
        <ele>6.5</ele>
        <time>2021-05-18T13:24:29Z</time>
      </trkpt>
      <trkpt lat="41.8753120" lon="-8.8389450">
        <ele>6.5</ele>
        <time>2021-05-18T13:24:30Z</time>
      </trkpt>
      <trkpt lat="41.8753120" lon="-8.8389450">
        <ele>6.5</ele>
        <time>2021-05-18T13:24:31Z</time>
      </trkpt>
      <trkpt lat="41.8753120" lon="-8.8389450">
        <ele>6.5</ele>
        <time>2021-05-18T13:24:32Z</time>
      </trkpt>
      <trkpt lat="41.8753120" lon="-8.8389450">
        <ele>6.5</ele>
        <time>2021-05-18T13:24:33Z</time>
      </trkpt>
      <trkpt lat="41.8753120" lon="-8.8389450">
        <ele>6.5</ele>
        <time>2021-05-18T13:24:34Z</time>
      </trkpt>
      <trkpt lat="41.8753120" lon="-8.8389450">
        <ele>6.5</ele>
        <time>2021-05-18T13:24:35Z</time>
      </trkpt>
      <trkpt lat="41.8753120" lon="-8.8389450">
        <ele>6.5</ele>
        <time>2021-05-18T13:24:36Z</time>
      </trkpt>
      <trkpt lat="41.8753120" lon="-8.8389450">
        <ele>6.5</ele>
        <time>2021-05-18T13:24:37Z</time>
      </trkpt>
      <trkpt lat="41.8753120" lon="-8.8389450">
        <ele>6.5</ele>
        <time>2021-05-18T13:24:38Z</time>
      </trkpt>
      <trkpt lat="41.8753120" lon="-8.8389450">
        <ele>6.5</ele>
        <time>2021-05-18T13:24:39Z</time>
      </trkpt>
      <trkpt lat="41.8753120" lon="-8.8389450">
        <ele>6.5</ele>
        <time>2021-05-18T13:24:40Z</time>
      </trkpt>
      <trkpt lat="41.8753120" lon="-8.8389450">
        <ele>6.5</ele>
        <time>2021-05-18T13:24:41Z</time>
      </trkpt>
      <trkpt lat="41.8753120" lon="-8.8389450">
        <ele>6.5</ele>
        <time>2021-05-18T13:24:42Z</time>
      </trkpt>
      <trkpt lat="41.8753120" lon="-8.8389450">
        <ele>6.5</ele>
        <time>2021-05-18T13:24:43Z</time>
      </trkpt>
      <trkpt lat="41.8753120" lon="-8.8389450">
        <ele>6.5</ele>
        <time>2021-05-18T13:24:44Z</time>
      </trkpt>
      <trkpt lat="41.8753120" lon="-8.8389450">
        <ele>6.5</ele>
        <time>2021-05-18T13:24:45Z</time>
      </trkpt>
      <trkpt lat="41.8753120" lon="-8.8389450">
        <ele>6.5</ele>
        <time>2021-05-18T13:24:46Z</time>
      </trkpt>
      <trkpt lat="41.8753120" lon="-8.8389450">
        <ele>6.5</ele>
        <time>2021-05-18T13:24:47Z</time>
      </trkpt>
      <trkpt lat="41.8753120" lon="-8.8389450">
        <ele>6.5</ele>
        <time>2021-05-18T13:24:48Z</time>
      </trkpt>
      <trkpt lat="41.8753120" lon="-8.8389450">
        <ele>6.5</ele>
        <time>2021-05-18T13:24:50Z</time>
      </trkpt>
      <trkpt lat="41.8753120" lon="-8.8389450">
        <ele>6.5</ele>
        <time>2021-05-18T13:24:51Z</time>
      </trkpt>
      <trkpt lat="41.8753120" lon="-8.8389450">
        <ele>6.5</ele>
        <time>2021-05-18T13:24:52Z</time>
      </trkpt>
      <trkpt lat="41.8753120" lon="-8.8389450">
        <ele>6.5</ele>
        <time>2021-05-18T13:24:53Z</time>
      </trkpt>
      <trkpt lat="41.8753120" lon="-8.8389450">
        <ele>6.5</ele>
        <time>2021-05-18T13:24:54Z</time>
      </trkpt>
      <trkpt lat="41.8753120" lon="-8.8389450">
        <ele>6.5</ele>
        <time>2021-05-18T13:24:55Z</time>
      </trkpt>
      <trkpt lat="41.8753120" lon="-8.8389450">
        <ele>6.5</ele>
        <time>2021-05-18T13:24:56Z</time>
      </trkpt>
      <trkpt lat="41.8753120" lon="-8.8389450">
        <ele>6.5</ele>
        <time>2021-05-18T13:24:57Z</time>
      </trkpt>
      <trkpt lat="41.8753120" lon="-8.8389450">
        <ele>6.5</ele>
        <time>2021-05-18T13:24:58Z</time>
      </trkpt>
      <trkpt lat="41.8753120" lon="-8.8389450">
        <ele>6.5</ele>
        <time>2021-05-18T13:24:59Z</time>
      </trkpt>
      <trkpt lat="41.8753120" lon="-8.8389450">
        <ele>6.5</ele>
        <time>2021-05-18T13:25:00Z</time>
      </trkpt>
      <trkpt lat="41.8753120" lon="-8.8389450">
        <ele>6.5</ele>
        <time>2021-05-18T13:25:01Z</time>
      </trkpt>
      <trkpt lat="41.8753120" lon="-8.8389450">
        <ele>6.5</ele>
        <time>2021-05-18T13:25:02Z</time>
      </trkpt>
      <trkpt lat="41.8753120" lon="-8.8389450">
        <ele>6.5</ele>
        <time>2021-05-18T13:25:03Z</time>
      </trkpt>
      <trkpt lat="41.8753120" lon="-8.8389450">
        <ele>6.5</ele>
        <time>2021-05-18T13:25:04Z</time>
      </trkpt>
      <trkpt lat="41.8753120" lon="-8.8389450">
        <ele>6.5</ele>
        <time>2021-05-18T13:25:05Z</time>
      </trkpt>
      <trkpt lat="41.8753120" lon="-8.8389450">
        <ele>6.5</ele>
        <time>2021-05-18T13:25:06Z</time>
      </trkpt>
      <trkpt lat="41.8753120" lon="-8.8389450">
        <ele>6.5</ele>
        <time>2021-05-18T13:25:07Z</time>
      </trkpt>
      <trkpt lat="41.8753120" lon="-8.8389450">
        <ele>6.5</ele>
        <time>2021-05-18T13:25:08Z</time>
      </trkpt>
      <trkpt lat="41.8753120" lon="-8.8389450">
        <ele>6.5</ele>
        <time>2021-05-18T13:25:09Z</time>
      </trkpt>
      <trkpt lat="41.8753120" lon="-8.8389450">
        <ele>6.5</ele>
        <time>2021-05-18T13:25:10Z</time>
      </trkpt>
      <trkpt lat="41.8753120" lon="-8.8389450">
        <ele>6.5</ele>
        <time>2021-05-18T13:25:11Z</time>
      </trkpt>
      <trkpt lat="41.8753120" lon="-8.8389450">
        <ele>6.5</ele>
        <time>2021-05-18T13:25:12Z</time>
      </trkpt>
      <trkpt lat="41.8753120" lon="-8.8389450">
        <ele>6.5</ele>
        <time>2021-05-18T13:25:13Z</time>
      </trkpt>
      <trkpt lat="41.8753120" lon="-8.8389450">
        <ele>6.5</ele>
        <time>2021-05-18T13:25:14Z</time>
      </trkpt>
      <trkpt lat="41.8753120" lon="-8.8389450">
        <ele>6.5</ele>
        <time>2021-05-18T13:25:15Z</time>
      </trkpt>
      <trkpt lat="41.8753120" lon="-8.8389450">
        <ele>6.5</ele>
        <time>2021-05-18T13:25:16Z</time>
      </trkpt>
      <trkpt lat="41.8753120" lon="-8.8389450">
        <ele>6.5</ele>
        <time>2021-05-18T13:25:17Z</time>
      </trkpt>
      <trkpt lat="41.8753120" lon="-8.8389450">
        <ele>6.5</ele>
        <time>2021-05-18T13:25:18Z</time>
      </trkpt>
      <trkpt lat="41.8753120" lon="-8.8389450">
        <ele>6.5</ele>
        <time>2021-05-18T13:25:19Z</time>
      </trkpt>
      <trkpt lat="41.8753120" lon="-8.8389450">
        <ele>6.5</ele>
        <time>2021-05-18T13:25:20Z</time>
      </trkpt>
      <trkpt lat="41.8753120" lon="-8.8389450">
        <ele>6.5</ele>
        <time>2021-05-18T13:25:21Z</time>
      </trkpt>
      <trkpt lat="41.8753120" lon="-8.8389450">
        <ele>6.5</ele>
        <time>2021-05-18T13:25:22Z</time>
      </trkpt>
      <trkpt lat="41.8753120" lon="-8.8389450">
        <ele>6.5</ele>
        <time>2021-05-18T13:25:23Z</time>
      </trkpt>
      <trkpt lat="41.8753120" lon="-8.8389450">
        <ele>6.5</ele>
        <time>2021-05-18T13:25:24Z</time>
      </trkpt>
      <trkpt lat="41.8753120" lon="-8.8389450">
        <ele>6.5</ele>
        <time>2021-05-18T13:25:25Z</time>
      </trkpt>
      <trkpt lat="41.8753120" lon="-8.8389450">
        <ele>6.5</ele>
        <time>2021-05-18T13:25:26Z</time>
      </trkpt>
      <trkpt lat="41.8753120" lon="-8.8389450">
        <ele>6.5</ele>
        <time>2021-05-18T13:25:27Z</time>
      </trkpt>
      <trkpt lat="41.8753120" lon="-8.8389450">
        <ele>6.5</ele>
        <time>2021-05-18T13:25:28Z</time>
      </trkpt>
      <trkpt lat="41.8753120" lon="-8.8389450">
        <ele>6.5</ele>
        <time>2021-05-18T13:25:29Z</time>
      </trkpt>
      <trkpt lat="41.8753120" lon="-8.8389450">
        <ele>6.5</ele>
        <time>2021-05-18T13:25:30Z</time>
      </trkpt>
      <trkpt lat="41.8753120" lon="-8.8389450">
        <ele>6.5</ele>
        <time>2021-05-18T13:25:31Z</time>
      </trkpt>
      <trkpt lat="41.8753120" lon="-8.8389450">
        <ele>6.5</ele>
        <time>2021-05-18T13:25:32Z</time>
      </trkpt>
      <trkpt lat="41.8753120" lon="-8.8389450">
        <ele>6.5</ele>
        <time>2021-05-18T13:25:33Z</time>
      </trkpt>
      <trkpt lat="41.8753120" lon="-8.8389450">
        <ele>6.5</ele>
        <time>2021-05-18T13:25:34Z</time>
      </trkpt>
      <trkpt lat="41.8753120" lon="-8.8389450">
        <ele>6.5</ele>
        <time>2021-05-18T13:25:35Z</time>
      </trkpt>
      <trkpt lat="41.8753120" lon="-8.8389450">
        <ele>6.5</ele>
        <time>2021-05-18T13:25:36Z</time>
      </trkpt>
      <trkpt lat="41.8753120" lon="-8.8389450">
        <ele>6.5</ele>
        <time>2021-05-18T13:25:37Z</time>
      </trkpt>
      <trkpt lat="41.8753120" lon="-8.8389450">
        <ele>6.5</ele>
        <time>2021-05-18T13:25:38Z</time>
      </trkpt>
      <trkpt lat="41.8753120" lon="-8.8389450">
        <ele>6.5</ele>
        <time>2021-05-18T13:25:39Z</time>
      </trkpt>
      <trkpt lat="41.8753120" lon="-8.8389450">
        <ele>6.5</ele>
        <time>2021-05-18T13:25:40Z</time>
      </trkpt>
      <trkpt lat="41.8753120" lon="-8.8389450">
        <ele>6.5</ele>
        <time>2021-05-18T13:25:41Z</time>
      </trkpt>
      <trkpt lat="41.8753120" lon="-8.8389450">
        <ele>6.5</ele>
        <time>2021-05-18T13:25:42Z</time>
      </trkpt>
      <trkpt lat="41.8753120" lon="-8.8389450">
        <ele>6.5</ele>
        <time>2021-05-18T13:25:43Z</time>
      </trkpt>
      <trkpt lat="41.8753120" lon="-8.8389450">
        <ele>6.5</ele>
        <time>2021-05-18T13:25:44Z</time>
      </trkpt>
      <trkpt lat="41.8753120" lon="-8.8389450">
        <ele>6.5</ele>
        <time>2021-05-18T13:25:45Z</time>
      </trkpt>
      <trkpt lat="41.8753120" lon="-8.8389450">
        <ele>6.5</ele>
        <time>2021-05-18T13:25:46Z</time>
      </trkpt>
      <trkpt lat="41.8753120" lon="-8.8389450">
        <ele>6.5</ele>
        <time>2021-05-18T13:25:47Z</time>
      </trkpt>
      <trkpt lat="41.8753120" lon="-8.8389450">
        <ele>6.5</ele>
        <time>2021-05-18T13:25:48Z</time>
      </trkpt>
      <trkpt lat="41.8753120" lon="-8.8389450">
        <ele>6.5</ele>
        <time>2021-05-18T13:25:49Z</time>
      </trkpt>
      <trkpt lat="41.8753120" lon="-8.8389450">
        <ele>6.5</ele>
        <time>2021-05-18T13:25:50Z</time>
      </trkpt>
      <trkpt lat="41.8753120" lon="-8.8389450">
        <ele>6.5</ele>
        <time>2021-05-18T13:25:51Z</time>
      </trkpt>
      <trkpt lat="41.8753120" lon="-8.8389450">
        <ele>6.5</ele>
        <time>2021-05-18T13:25:52Z</time>
      </trkpt>
      <trkpt lat="41.8753120" lon="-8.8389450">
        <ele>6.5</ele>
        <time>2021-05-18T13:25:53Z</time>
      </trkpt>
      <trkpt lat="41.8753120" lon="-8.8389450">
        <ele>6.5</ele>
        <time>2021-05-18T13:25:54Z</time>
      </trkpt>
      <trkpt lat="41.8753120" lon="-8.8389450">
        <ele>6.5</ele>
        <time>2021-05-18T13:25:55Z</time>
      </trkpt>
      <trkpt lat="41.8753120" lon="-8.8389450">
        <ele>6.5</ele>
        <time>2021-05-18T13:25:56Z</time>
      </trkpt>
      <trkpt lat="41.8753120" lon="-8.8389450">
        <ele>6.5</ele>
        <time>2021-05-18T13:25:57Z</time>
      </trkpt>
      <trkpt lat="41.8753120" lon="-8.8389450">
        <ele>6.5</ele>
        <time>2021-05-18T13:25:58Z</time>
      </trkpt>
      <trkpt lat="41.8753120" lon="-8.8389450">
        <ele>6.5</ele>
        <time>2021-05-18T13:25:59Z</time>
      </trkpt>
      <trkpt lat="41.8753120" lon="-8.8389450">
        <ele>6.5</ele>
        <time>2021-05-18T13:26:00Z</time>
      </trkpt>
      <trkpt lat="41.8753120" lon="-8.8389450">
        <ele>6.5</ele>
        <time>2021-05-18T13:26:01Z</time>
      </trkpt>
      <trkpt lat="41.8753120" lon="-8.8389450">
        <ele>6.5</ele>
        <time>2021-05-18T13:26:02Z</time>
      </trkpt>
      <trkpt lat="41.8753120" lon="-8.8389450">
        <ele>6.5</ele>
        <time>2021-05-18T13:26:03Z</time>
      </trkpt>
      <trkpt lat="41.8753120" lon="-8.8389450">
        <ele>6.5</ele>
        <time>2021-05-18T13:26:04Z</time>
      </trkpt>
      <trkpt lat="41.8753120" lon="-8.8389450">
        <ele>6.5</ele>
        <time>2021-05-18T13:26:05Z</time>
      </trkpt>
      <trkpt lat="41.8753120" lon="-8.8389450">
        <ele>6.5</ele>
        <time>2021-05-18T13:26:06Z</time>
      </trkpt>
      <trkpt lat="41.8753120" lon="-8.8389450">
        <ele>6.5</ele>
        <time>2021-05-18T13:26:07Z</time>
      </trkpt>
      <trkpt lat="41.8753120" lon="-8.8389450">
        <ele>6.5</ele>
        <time>2021-05-18T13:26:08Z</time>
      </trkpt>
      <trkpt lat="41.8753120" lon="-8.8389450">
        <ele>6.5</ele>
        <time>2021-05-18T13:26:09Z</time>
      </trkpt>
      <trkpt lat="41.8753120" lon="-8.8389450">
        <ele>6.5</ele>
        <time>2021-05-18T13:26:10Z</time>
      </trkpt>
      <trkpt lat="41.8753120" lon="-8.8389450">
        <ele>6.5</ele>
        <time>2021-05-18T13:26:11Z</time>
      </trkpt>
      <trkpt lat="41.8753120" lon="-8.8389450">
        <ele>6.5</ele>
        <time>2021-05-18T13:26:12Z</time>
      </trkpt>
      <trkpt lat="41.8753120" lon="-8.8389450">
        <ele>6.5</ele>
        <time>2021-05-18T13:26:13Z</time>
      </trkpt>
      <trkpt lat="41.8753120" lon="-8.8389450">
        <ele>6.5</ele>
        <time>2021-05-18T13:26:14Z</time>
      </trkpt>
      <trkpt lat="41.8753490" lon="-8.8389190">
        <ele>6.5</ele>
        <time>2021-05-18T13:26:15Z</time>
      </trkpt>
      <trkpt lat="41.8753490" lon="-8.8389160">
        <ele>6.5</ele>
        <time>2021-05-18T13:26:16Z</time>
      </trkpt>
      <trkpt lat="41.8753470" lon="-8.8389170">
        <ele>6.5</ele>
        <time>2021-05-18T13:26:17Z</time>
      </trkpt>
      <trkpt lat="41.8753450" lon="-8.8389180">
        <ele>6.5</ele>
        <time>2021-05-18T13:26:18Z</time>
      </trkpt>
      <trkpt lat="41.8753470" lon="-8.8389180">
        <ele>6.5</ele>
        <time>2021-05-18T13:26:19Z</time>
      </trkpt>
      <trkpt lat="41.8753490" lon="-8.8389120">
        <ele>6.5</ele>
        <time>2021-05-18T13:26:20Z</time>
      </trkpt>
      <trkpt lat="41.8753470" lon="-8.8389130">
        <ele>6.5</ele>
        <time>2021-05-18T13:26:21Z</time>
      </trkpt>
      <trkpt lat="41.8753470" lon="-8.8389090">
        <ele>6.5</ele>
        <time>2021-05-18T13:26:22Z</time>
      </trkpt>
      <trkpt lat="41.8753440" lon="-8.8389110">
        <ele>6.5</ele>
        <time>2021-05-18T13:26:23Z</time>
      </trkpt>
      <trkpt lat="41.8753420" lon="-8.8389100">
        <ele>6.5</ele>
        <time>2021-05-18T13:26:24Z</time>
      </trkpt>
      <trkpt lat="41.8753390" lon="-8.8389110">
        <ele>6.5</ele>
        <time>2021-05-18T13:26:25Z</time>
      </trkpt>
      <trkpt lat="41.8753380" lon="-8.8389130">
        <ele>6.5</ele>
        <time>2021-05-18T13:26:26Z</time>
      </trkpt>
      <trkpt lat="41.8753290" lon="-8.8389100">
        <ele>6.5</ele>
        <time>2021-05-18T13:26:27Z</time>
      </trkpt>
      <trkpt lat="41.8753280" lon="-8.8389120">
        <ele>6.5</ele>
        <time>2021-05-18T13:26:28Z</time>
      </trkpt>
      <trkpt lat="41.8753250" lon="-8.8389140">
        <ele>6.5</ele>
        <time>2021-05-18T13:26:29Z</time>
      </trkpt>
      <trkpt lat="41.8753200" lon="-8.8389110">
        <ele>6.5</ele>
        <time>2021-05-18T13:26:30Z</time>
      </trkpt>
      <trkpt lat="41.8753190" lon="-8.8389060">
        <ele>6.5</ele>
        <time>2021-05-18T13:26:31Z</time>
      </trkpt>
      <trkpt lat="41.8753180" lon="-8.8388970">
        <ele>6.5</ele>
        <time>2021-05-18T13:26:32Z</time>
      </trkpt>
      <trkpt lat="41.8753210" lon="-8.8388960">
        <ele>6.5</ele>
        <time>2021-05-18T13:26:33Z</time>
      </trkpt>
      <trkpt lat="41.8753170" lon="-8.8388910">
        <ele>6.5</ele>
        <time>2021-05-18T13:26:34Z</time>
      </trkpt>
      <trkpt lat="41.8753150" lon="-8.8388870">
        <ele>6.6</ele>
        <time>2021-05-18T13:26:35Z</time>
      </trkpt>
      <trkpt lat="41.8753160" lon="-8.8388850">
        <ele>6.6</ele>
        <time>2021-05-18T13:26:36Z</time>
      </trkpt>
      <trkpt lat="41.8753110" lon="-8.8388830">
        <ele>6.6</ele>
        <time>2021-05-18T13:26:37Z</time>
      </trkpt>
      <trkpt lat="41.8753110" lon="-8.8388770">
        <ele>6.6</ele>
        <time>2021-05-18T13:26:38Z</time>
      </trkpt>
      <trkpt lat="41.8753140" lon="-8.8388770">
        <ele>6.6</ele>
        <time>2021-05-18T13:26:39Z</time>
      </trkpt>
      <trkpt lat="41.8753180" lon="-8.8388720">
        <ele>6.6</ele>
        <time>2021-05-18T13:26:40Z</time>
      </trkpt>
      <trkpt lat="41.8753270" lon="-8.8388800">
        <ele>6.6</ele>
        <time>2021-05-18T13:26:41Z</time>
      </trkpt>
      <trkpt lat="41.8753310" lon="-8.8388850">
        <ele>6.6</ele>
        <time>2021-05-18T13:26:42Z</time>
      </trkpt>
      <trkpt lat="41.8753340" lon="-8.8388900">
        <ele>6.5</ele>
        <time>2021-05-18T13:26:43Z</time>
      </trkpt>
      <trkpt lat="41.8753380" lon="-8.8388940">
        <ele>6.5</ele>
        <time>2021-05-18T13:26:44Z</time>
      </trkpt>
      <trkpt lat="41.8753410" lon="-8.8388990">
        <ele>6.5</ele>
        <time>2021-05-18T13:26:45Z</time>
      </trkpt>
      <trkpt lat="41.8753440" lon="-8.8389040">
        <ele>6.5</ele>
        <time>2021-05-18T13:26:46Z</time>
      </trkpt>
      <trkpt lat="41.8753480" lon="-8.8389090">
        <ele>6.5</ele>
        <time>2021-05-18T13:26:47Z</time>
      </trkpt>
      <trkpt lat="41.8753510" lon="-8.8389140">
        <ele>6.5</ele>
        <time>2021-05-18T13:26:48Z</time>
      </trkpt>
      <trkpt lat="41.8753400" lon="-8.8389130">
        <ele>6.5</ele>
        <time>2021-05-18T13:26:49Z</time>
      </trkpt>
      <trkpt lat="41.8753390" lon="-8.8389080">
        <ele>6.5</ele>
        <time>2021-05-18T13:26:50Z</time>
      </trkpt>
      <trkpt lat="41.8753400" lon="-8.8388960">
        <ele>6.5</ele>
        <time>2021-05-18T13:26:51Z</time>
      </trkpt>
      <trkpt lat="41.8753420" lon="-8.8388900">
        <ele>6.5</ele>
        <time>2021-05-18T13:26:52Z</time>
      </trkpt>
      <trkpt lat="41.8753400" lon="-8.8388880">
        <ele>6.5</ele>
        <time>2021-05-18T13:26:53Z</time>
      </trkpt>
      <trkpt lat="41.8753350" lon="-8.8388800">
        <ele>6.6</ele>
        <time>2021-05-18T13:26:54Z</time>
      </trkpt>
      <trkpt lat="41.8753260" lon="-8.8388640">
        <ele>6.6</ele>
        <time>2021-05-18T13:26:55Z</time>
      </trkpt>
      <trkpt lat="41.8753290" lon="-8.8388700">
        <ele>6.6</ele>
        <time>2021-05-18T13:26:56Z</time>
      </trkpt>
      <trkpt lat="41.8753380" lon="-8.8388700">
        <ele>6.6</ele>
        <time>2021-05-18T13:26:57Z</time>
      </trkpt>
      <trkpt lat="41.8753410" lon="-8.8388770">
        <ele>6.6</ele>
        <time>2021-05-18T13:26:58Z</time>
      </trkpt>
      <trkpt lat="41.8753440" lon="-8.8388920">
        <ele>6.5</ele>
        <time>2021-05-18T13:26:59Z</time>
      </trkpt>
      <trkpt lat="41.8753480" lon="-8.8388930">
        <ele>6.5</ele>
        <time>2021-05-18T13:27:00Z</time>
      </trkpt>
      <trkpt lat="41.8753470" lon="-8.8388900">
        <ele>6.5</ele>
        <time>2021-05-18T13:27:01Z</time>
      </trkpt>
      <trkpt lat="41.8753510" lon="-8.8389030">
        <ele>6.5</ele>
        <time>2021-05-18T13:27:02Z</time>
      </trkpt>
      <trkpt lat="41.8753480" lon="-8.8389210">
        <ele>6.5</ele>
        <time>2021-05-18T13:27:03Z</time>
      </trkpt>
      <trkpt lat="41.8753370" lon="-8.8389360">
        <ele>6.5</ele>
        <time>2021-05-18T13:27:04Z</time>
      </trkpt>
      <trkpt lat="41.8753300" lon="-8.8389230">
        <ele>6.5</ele>
        <time>2021-05-18T13:27:05Z</time>
      </trkpt>
      <trkpt lat="41.8753270" lon="-8.8389090">
        <ele>6.5</ele>
        <time>2021-05-18T13:27:06Z</time>
      </trkpt>
      <trkpt lat="41.8753230" lon="-8.8389050">
        <ele>6.5</ele>
        <time>2021-05-18T13:27:07Z</time>
      </trkpt>
      <trkpt lat="41.8753150" lon="-8.8389020">
        <ele>6.5</ele>
        <time>2021-05-18T13:27:08Z</time>
      </trkpt>
      <trkpt lat="41.8753240" lon="-8.8388880">
        <ele>6.5</ele>
        <time>2021-05-18T13:27:09Z</time>
      </trkpt>
      <trkpt lat="41.8753120" lon="-8.8388760">
        <ele>6.6</ele>
        <time>2021-05-18T13:27:10Z</time>
      </trkpt>
      <trkpt lat="41.8753120" lon="-8.8388690">
        <ele>6.6</ele>
        <time>2021-05-18T13:27:11Z</time>
      </trkpt>
      <trkpt lat="41.8753150" lon="-8.8388690">
        <ele>6.6</ele>
        <time>2021-05-18T13:27:12Z</time>
      </trkpt>
      <trkpt lat="41.8752980" lon="-8.8388790">
        <ele>6.6</ele>
        <time>2021-05-18T13:27:13Z</time>
      </trkpt>
      <trkpt lat="41.8753020" lon="-8.8388660">
        <ele>6.6</ele>
        <time>2021-05-18T13:27:14Z</time>
      </trkpt>
      <trkpt lat="41.8753250" lon="-8.8388560">
        <ele>6.6</ele>
        <time>2021-05-18T13:27:15Z</time>
      </trkpt>
      <trkpt lat="41.8753410" lon="-8.8388630">
        <ele>6.6</ele>
        <time>2021-05-18T13:27:16Z</time>
      </trkpt>
      <trkpt lat="41.8753740" lon="-8.8388690">
        <ele>6.5</ele>
        <time>2021-05-18T13:27:17Z</time>
      </trkpt>
      <trkpt lat="41.8753980" lon="-8.8388950">
        <ele>6.4</ele>
        <time>2021-05-18T13:27:18Z</time>
      </trkpt>
      <trkpt lat="41.8754100" lon="-8.8389060">
        <ele>6.4</ele>
        <time>2021-05-18T13:27:19Z</time>
      </trkpt>
      <trkpt lat="41.8754200" lon="-8.8389160">
        <ele>6.4</ele>
        <time>2021-05-18T13:27:20Z</time>
      </trkpt>
      <trkpt lat="41.8754250" lon="-8.8389180">
        <ele>6.4</ele>
        <time>2021-05-18T13:27:21Z</time>
      </trkpt>
      <trkpt lat="41.8754350" lon="-8.8389280">
        <ele>6.4</ele>
        <time>2021-05-18T13:27:22Z</time>
      </trkpt>
      <trkpt lat="41.8754450" lon="-8.8389340">
        <ele>6.3</ele>
        <time>2021-05-18T13:27:23Z</time>
      </trkpt>
      <trkpt lat="41.8754500" lon="-8.8389350">
        <ele>6.3</ele>
        <time>2021-05-18T13:27:24Z</time>
      </trkpt>
      <trkpt lat="41.8754470" lon="-8.8389260">
        <ele>6.3</ele>
        <time>2021-05-18T13:27:25Z</time>
      </trkpt>
      <trkpt lat="41.8754440" lon="-8.8389180">
        <ele>6.3</ele>
        <time>2021-05-18T13:27:26Z</time>
      </trkpt>
      <trkpt lat="41.8754420" lon="-8.8389100">
        <ele>6.3</ele>
        <time>2021-05-18T13:27:27Z</time>
      </trkpt>
      <trkpt lat="41.8754390" lon="-8.8389020">
        <ele>6.4</ele>
        <time>2021-05-18T13:27:28Z</time>
      </trkpt>
      <trkpt lat="41.8754360" lon="-8.8388930">
        <ele>6.4</ele>
        <time>2021-05-18T13:27:29Z</time>
      </trkpt>
      <trkpt lat="41.8754330" lon="-8.8388850">
        <ele>6.4</ele>
        <time>2021-05-18T13:27:30Z</time>
      </trkpt>
      <trkpt lat="41.8754800" lon="-8.8387680">
        <ele>6.5</ele>
        <time>2021-05-18T13:27:31Z</time>
      </trkpt>
      <trkpt lat="41.8754840" lon="-8.8387930">
        <ele>6.5</ele>
        <time>2021-05-18T13:27:32Z</time>
      </trkpt>
      <trkpt lat="41.8754870" lon="-8.8387920">
        <ele>6.5</ele>
        <time>2021-05-18T13:27:33Z</time>
      </trkpt>
      <trkpt lat="41.8754990" lon="-8.8387730">
        <ele>6.5</ele>
        <time>2021-05-18T13:27:34Z</time>
      </trkpt>
      <trkpt lat="41.8755070" lon="-8.8387520">
        <ele>6.5</ele>
        <time>2021-05-18T13:27:35Z</time>
      </trkpt>
      <trkpt lat="41.8755120" lon="-8.8387390">
        <ele>6.5</ele>
        <time>2021-05-18T13:27:36Z</time>
      </trkpt>
      <trkpt lat="41.8755160" lon="-8.8387250">
        <ele>6.5</ele>
        <time>2021-05-18T13:27:37Z</time>
      </trkpt>
      <trkpt lat="41.8755220" lon="-8.8387200">
        <ele>6.5</ele>
        <time>2021-05-18T13:27:38Z</time>
      </trkpt>
      <trkpt lat="41.8755210" lon="-8.8387130">
        <ele>6.5</ele>
        <time>2021-05-18T13:27:39Z</time>
      </trkpt>
      <trkpt lat="41.8755270" lon="-8.8387030">
        <ele>6.5</ele>
        <time>2021-05-18T13:27:40Z</time>
      </trkpt>
      <trkpt lat="41.8755310" lon="-8.8386950">
        <ele>6.5</ele>
        <time>2021-05-18T13:27:41Z</time>
      </trkpt>
      <trkpt lat="41.8755370" lon="-8.8386850">
        <ele>6.5</ele>
        <time>2021-05-18T13:27:42Z</time>
      </trkpt>
      <trkpt lat="41.8755430" lon="-8.8386770">
        <ele>6.5</ele>
        <time>2021-05-18T13:27:43Z</time>
      </trkpt>
      <trkpt lat="41.8755490" lon="-8.8386660">
        <ele>6.5</ele>
        <time>2021-05-18T13:27:44Z</time>
      </trkpt>
      <trkpt lat="41.8755540" lon="-8.8386530">
        <ele>6.5</ele>
        <time>2021-05-18T13:27:45Z</time>
      </trkpt>
      <trkpt lat="41.8755580" lon="-8.8386470">
        <ele>6.5</ele>
        <time>2021-05-18T13:27:46Z</time>
      </trkpt>
      <trkpt lat="41.8755600" lon="-8.8386500">
        <ele>6.5</ele>
        <time>2021-05-18T13:27:47Z</time>
      </trkpt>
      <trkpt lat="41.8755640" lon="-8.8386490">
        <ele>6.5</ele>
        <time>2021-05-18T13:27:48Z</time>
      </trkpt>
      <trkpt lat="41.8755700" lon="-8.8386470">
        <ele>6.5</ele>
        <time>2021-05-18T13:27:49Z</time>
      </trkpt>
      <trkpt lat="41.8755800" lon="-8.8386470">
        <ele>6.5</ele>
        <time>2021-05-18T13:27:50Z</time>
      </trkpt>
      <trkpt lat="41.8755840" lon="-8.8386480">
        <ele>6.5</ele>
        <time>2021-05-18T13:27:51Z</time>
      </trkpt>
      <trkpt lat="41.8755920" lon="-8.8386500">
        <ele>6.5</ele>
        <time>2021-05-18T13:27:52Z</time>
      </trkpt>
      <trkpt lat="41.8756000" lon="-8.8386520">
        <ele>6.5</ele>
        <time>2021-05-18T13:27:53Z</time>
      </trkpt>
      <trkpt lat="41.8756160" lon="-8.8386550">
        <ele>6.5</ele>
        <time>2021-05-18T13:27:54Z</time>
      </trkpt>
      <trkpt lat="41.8756370" lon="-8.8386500">
        <ele>6.4</ele>
        <time>2021-05-18T13:27:55Z</time>
      </trkpt>
      <trkpt lat="41.8756370" lon="-8.8386510">
        <ele>6.4</ele>
        <time>2021-05-18T13:27:56Z</time>
      </trkpt>
      <trkpt lat="41.8756480" lon="-8.8386430">
        <ele>6.4</ele>
        <time>2021-05-18T13:27:57Z</time>
      </trkpt>
      <trkpt lat="41.8756520" lon="-8.8386390">
        <ele>6.4</ele>
        <time>2021-05-18T13:27:58Z</time>
      </trkpt>
      <trkpt lat="41.8756630" lon="-8.8386370">
        <ele>6.4</ele>
        <time>2021-05-18T13:27:59Z</time>
      </trkpt>
      <trkpt lat="41.8756690" lon="-8.8386250">
        <ele>6.5</ele>
        <time>2021-05-18T13:28:00Z</time>
      </trkpt>
      <trkpt lat="41.8756770" lon="-8.8386170">
        <ele>6.5</ele>
        <time>2021-05-18T13:28:01Z</time>
      </trkpt>
      <trkpt lat="41.8756940" lon="-8.8386220">
        <ele>6.5</ele>
        <time>2021-05-18T13:28:02Z</time>
      </trkpt>
      <trkpt lat="41.8757030" lon="-8.8386270">
        <ele>6.4</ele>
        <time>2021-05-18T13:28:03Z</time>
      </trkpt>
      <trkpt lat="41.8757130" lon="-8.8386320">
        <ele>6.4</ele>
        <time>2021-05-18T13:28:04Z</time>
      </trkpt>
      <trkpt lat="41.8757280" lon="-8.8386360">
        <ele>6.4</ele>
        <time>2021-05-18T13:28:05Z</time>
      </trkpt>
      <trkpt lat="41.8757410" lon="-8.8386430">
        <ele>6.4</ele>
        <time>2021-05-18T13:28:06Z</time>
      </trkpt>
      <trkpt lat="41.8757600" lon="-8.8386440">
        <ele>6.4</ele>
        <time>2021-05-18T13:28:07Z</time>
      </trkpt>
      <trkpt lat="41.8757770" lon="-8.8386470">
        <ele>6.3</ele>
        <time>2021-05-18T13:28:08Z</time>
      </trkpt>
      <trkpt lat="41.8757850" lon="-8.8386490">
        <ele>6.3</ele>
        <time>2021-05-18T13:28:09Z</time>
      </trkpt>
      <trkpt lat="41.8757950" lon="-8.8386550">
        <ele>6.3</ele>
        <time>2021-05-18T13:28:10Z</time>
      </trkpt>
      <trkpt lat="41.8758070" lon="-8.8386550">
        <ele>6.3</ele>
        <time>2021-05-18T13:28:11Z</time>
      </trkpt>
      <trkpt lat="41.8758150" lon="-8.8386620">
        <ele>6.3</ele>
        <time>2021-05-18T13:28:12Z</time>
      </trkpt>
      <trkpt lat="41.8758250" lon="-8.8386610">
        <ele>6.3</ele>
        <time>2021-05-18T13:28:13Z</time>
      </trkpt>
      <trkpt lat="41.8758300" lon="-8.8386630">
        <ele>6.3</ele>
        <time>2021-05-18T13:28:14Z</time>
      </trkpt>
      <trkpt lat="41.8758380" lon="-8.8386620">
        <ele>6.3</ele>
        <time>2021-05-18T13:28:15Z</time>
      </trkpt>
      <trkpt lat="41.8758450" lon="-8.8386610">
        <ele>6.3</ele>
        <time>2021-05-18T13:28:16Z</time>
      </trkpt>
      <trkpt lat="41.8758490" lon="-8.8386670">
        <ele>6.3</ele>
        <time>2021-05-18T13:28:17Z</time>
      </trkpt>
      <trkpt lat="41.8758460" lon="-8.8386790">
        <ele>6.2</ele>
        <time>2021-05-18T13:28:18Z</time>
      </trkpt>
      <trkpt lat="41.8758450" lon="-8.8386800">
        <ele>6.2</ele>
        <time>2021-05-18T13:28:19Z</time>
      </trkpt>
      <trkpt lat="41.8758540" lon="-8.8386770">
        <ele>6.2</ele>
        <time>2021-05-18T13:28:20Z</time>
      </trkpt>
      <trkpt lat="41.8758640" lon="-8.8386730">
        <ele>6.2</ele>
        <time>2021-05-18T13:28:21Z</time>
      </trkpt>
      <trkpt lat="41.8758690" lon="-8.8386700">
        <ele>6.2</ele>
        <time>2021-05-18T13:28:22Z</time>
      </trkpt>
      <trkpt lat="41.8758770" lon="-8.8386640">
        <ele>6.2</ele>
        <time>2021-05-18T13:28:23Z</time>
      </trkpt>
      <trkpt lat="41.8758800" lon="-8.8386590">
        <ele>6.2</ele>
        <time>2021-05-18T13:28:24Z</time>
      </trkpt>
      <trkpt lat="41.8758850" lon="-8.8386530">
        <ele>6.2</ele>
        <time>2021-05-18T13:28:25Z</time>
      </trkpt>
      <trkpt lat="41.8758960" lon="-8.8386470">
        <ele>6.2</ele>
        <time>2021-05-18T13:28:26Z</time>
      </trkpt>
      <trkpt lat="41.8759080" lon="-8.8386410">
        <ele>6.2</ele>
        <time>2021-05-18T13:28:27Z</time>
      </trkpt>
      <trkpt lat="41.8759150" lon="-8.8386320">
        <ele>6.2</ele>
        <time>2021-05-18T13:28:28Z</time>
      </trkpt>
      <trkpt lat="41.8759170" lon="-8.8386220">
        <ele>6.3</ele>
        <time>2021-05-18T13:28:29Z</time>
      </trkpt>
      <trkpt lat="41.8759200" lon="-8.8386210">
        <ele>6.3</ele>
        <time>2021-05-18T13:28:30Z</time>
      </trkpt>
      <trkpt lat="41.8759200" lon="-8.8386260">
        <ele>6.3</ele>
        <time>2021-05-18T13:28:31Z</time>
      </trkpt>
      <trkpt lat="41.8759240" lon="-8.8386310">
        <ele>6.2</ele>
        <time>2021-05-18T13:28:32Z</time>
      </trkpt>
      <trkpt lat="41.8759300" lon="-8.8386280">
        <ele>6.3</ele>
        <time>2021-05-18T13:28:33Z</time>
      </trkpt>
      <trkpt lat="41.8759330" lon="-8.8386260">
        <ele>6.3</ele>
        <time>2021-05-18T13:28:34Z</time>
      </trkpt>
      <trkpt lat="41.8759420" lon="-8.8386150">
        <ele>6.3</ele>
        <time>2021-05-18T13:28:35Z</time>
      </trkpt>
      <trkpt lat="41.8759440" lon="-8.8386150">
        <ele>6.3</ele>
        <time>2021-05-18T13:28:36Z</time>
      </trkpt>
      <trkpt lat="41.8759500" lon="-8.8386060">
        <ele>6.3</ele>
        <time>2021-05-18T13:28:37Z</time>
      </trkpt>
      <trkpt lat="41.8759620" lon="-8.8386010">
        <ele>6.2</ele>
        <time>2021-05-18T13:28:38Z</time>
      </trkpt>
      <trkpt lat="41.8759660" lon="-8.8385910">
        <ele>6.2</ele>
        <time>2021-05-18T13:28:39Z</time>
      </trkpt>
      <trkpt lat="41.8759690" lon="-8.8385840">
        <ele>6.3</ele>
        <time>2021-05-18T13:28:40Z</time>
      </trkpt>
      <trkpt lat="41.8759680" lon="-8.8385800">
        <ele>6.3</ele>
        <time>2021-05-18T13:28:41Z</time>
      </trkpt>
      <trkpt lat="41.8759760" lon="-8.8385710">
        <ele>6.3</ele>
        <time>2021-05-18T13:28:42Z</time>
      </trkpt>
      <trkpt lat="41.8759820" lon="-8.8385660">
        <ele>6.3</ele>
        <time>2021-05-18T13:28:43Z</time>
      </trkpt>
      <trkpt lat="41.8759930" lon="-8.8385630">
        <ele>6.3</ele>
        <time>2021-05-18T13:28:44Z</time>
      </trkpt>
      <trkpt lat="41.8760100" lon="-8.8385570">
        <ele>6.3</ele>
        <time>2021-05-18T13:28:45Z</time>
      </trkpt>
      <trkpt lat="41.8760160" lon="-8.8385530">
        <ele>6.2</ele>
        <time>2021-05-18T13:28:46Z</time>
      </trkpt>
      <trkpt lat="41.8760220" lon="-8.8385480">
        <ele>6.2</ele>
        <time>2021-05-18T13:28:47Z</time>
      </trkpt>
      <trkpt lat="41.8760280" lon="-8.8385440">
        <ele>6.2</ele>
        <time>2021-05-18T13:28:48Z</time>
      </trkpt>
      <trkpt lat="41.8760340" lon="-8.8385420">
        <ele>6.3</ele>
        <time>2021-05-18T13:28:49Z</time>
      </trkpt>
      <trkpt lat="41.8760520" lon="-8.8385280">
        <ele>6.3</ele>
        <time>2021-05-18T13:28:50Z</time>
      </trkpt>
      <trkpt lat="41.8760560" lon="-8.8385260">
        <ele>6.3</ele>
        <time>2021-05-18T13:28:51Z</time>
      </trkpt>
      <trkpt lat="41.8760610" lon="-8.8385200">
        <ele>6.3</ele>
        <time>2021-05-18T13:28:52Z</time>
      </trkpt>
      <trkpt lat="41.8760620" lon="-8.8385170">
        <ele>6.3</ele>
        <time>2021-05-18T13:28:53Z</time>
      </trkpt>
      <trkpt lat="41.8760660" lon="-8.8385140">
        <ele>6.3</ele>
        <time>2021-05-18T13:28:54Z</time>
      </trkpt>
      <trkpt lat="41.8760690" lon="-8.8385070">
        <ele>6.3</ele>
        <time>2021-05-18T13:28:55Z</time>
      </trkpt>
      <trkpt lat="41.8760740" lon="-8.8385010">
        <ele>6.3</ele>
        <time>2021-05-18T13:28:56Z</time>
      </trkpt>
      <trkpt lat="41.8760740" lon="-8.8385040">
        <ele>6.3</ele>
        <time>2021-05-18T13:28:57Z</time>
      </trkpt>
      <trkpt lat="41.8760750" lon="-8.8384950">
        <ele>6.3</ele>
        <time>2021-05-18T13:28:58Z</time>
      </trkpt>
      <trkpt lat="41.8760770" lon="-8.8384900">
        <ele>6.3</ele>
        <time>2021-05-18T13:28:59Z</time>
      </trkpt>
      <trkpt lat="41.8760830" lon="-8.8384830">
        <ele>6.3</ele>
        <time>2021-05-18T13:29:00Z</time>
      </trkpt>
      <trkpt lat="41.8760820" lon="-8.8384800">
        <ele>6.3</ele>
        <time>2021-05-18T13:29:01Z</time>
      </trkpt>
      <trkpt lat="41.8760740" lon="-8.8384840">
        <ele>6.3</ele>
        <time>2021-05-18T13:29:02Z</time>
      </trkpt>
      <trkpt lat="41.8760770" lon="-8.8384840">
        <ele>6.3</ele>
        <time>2021-05-18T13:29:03Z</time>
      </trkpt>
      <trkpt lat="41.8760870" lon="-8.8384830">
        <ele>6.3</ele>
        <time>2021-05-18T13:29:04Z</time>
      </trkpt>
      <trkpt lat="41.8760880" lon="-8.8384800">
        <ele>6.3</ele>
        <time>2021-05-18T13:29:05Z</time>
      </trkpt>
      <trkpt lat="41.8761000" lon="-8.8384810">
        <ele>6.3</ele>
        <time>2021-05-18T13:29:06Z</time>
      </trkpt>
      <trkpt lat="41.8761040" lon="-8.8384840">
        <ele>6.3</ele>
        <time>2021-05-18T13:29:07Z</time>
      </trkpt>
      <trkpt lat="41.8761070" lon="-8.8384980">
        <ele>6.3</ele>
        <time>2021-05-18T13:29:08Z</time>
      </trkpt>
      <trkpt lat="41.8761080" lon="-8.8385120">
        <ele>6.2</ele>
        <time>2021-05-18T13:29:09Z</time>
      </trkpt>
      <trkpt lat="41.8761000" lon="-8.8385070">
        <ele>6.2</ele>
        <time>2021-05-18T13:29:10Z</time>
      </trkpt>
      <trkpt lat="41.8761040" lon="-8.8385040">
        <ele>6.2</ele>
        <time>2021-05-18T13:29:11Z</time>
      </trkpt>
      <trkpt lat="41.8761060" lon="-8.8385040">
        <ele>6.2</ele>
        <time>2021-05-18T13:29:12Z</time>
      </trkpt>
      <trkpt lat="41.8761040" lon="-8.8384750">
        <ele>6.3</ele>
        <time>2021-05-18T13:29:13Z</time>
      </trkpt>
      <trkpt lat="41.8761060" lon="-8.8384710">
        <ele>6.3</ele>
        <time>2021-05-18T13:29:14Z</time>
      </trkpt>
      <trkpt lat="41.8761110" lon="-8.8384750">
        <ele>6.3</ele>
        <time>2021-05-18T13:29:15Z</time>
      </trkpt>
      <trkpt lat="41.8761110" lon="-8.8384700">
        <ele>6.3</ele>
        <time>2021-05-18T13:29:16Z</time>
      </trkpt>
      <trkpt lat="41.8761080" lon="-8.8384550">
        <ele>6.3</ele>
        <time>2021-05-18T13:29:17Z</time>
      </trkpt>
      <trkpt lat="41.8761090" lon="-8.8384470">
        <ele>6.3</ele>
        <time>2021-05-18T13:29:18Z</time>
      </trkpt>
      <trkpt lat="41.8761090" lon="-8.8384440">
        <ele>6.3</ele>
        <time>2021-05-18T13:29:19Z</time>
      </trkpt>
      <trkpt lat="41.8761090" lon="-8.8384440">
        <ele>6.3</ele>
        <time>2021-05-18T13:29:34Z</time>
      </trkpt>
      <trkpt lat="41.8762790" lon="-8.8386710">
        <ele>5.9</ele>
        <time>2021-05-18T13:29:35Z</time>
      </trkpt>
      <trkpt lat="41.8762890" lon="-8.8386870">
        <ele>5.8</ele>
        <time>2021-05-18T13:29:49Z</time>
      </trkpt>
      <trkpt lat="41.8762270" lon="-8.8386990">
        <ele>5.9</ele>
        <time>2021-05-18T13:29:59Z</time>
      </trkpt>
      <trkpt lat="41.8762220" lon="-8.8387050">
        <ele>5.9</ele>
        <time>2021-05-18T13:30:04Z</time>
      </trkpt>
      <trkpt lat="41.8762250" lon="-8.8387050">
        <ele>5.9</ele>
        <time>2021-05-18T13:30:05Z</time>
      </trkpt>
      <trkpt lat="41.8762260" lon="-8.8387050">
        <ele>5.9</ele>
        <time>2021-05-18T13:30:06Z</time>
      </trkpt>
      <trkpt lat="41.8762280" lon="-8.8387040">
        <ele>5.9</ele>
        <time>2021-05-18T13:30:07Z</time>
      </trkpt>
      <trkpt lat="41.8762290" lon="-8.8387050">
        <ele>5.9</ele>
        <time>2021-05-18T13:30:08Z</time>
      </trkpt>
      <trkpt lat="41.8762330" lon="-8.8387020">
        <ele>5.9</ele>
        <time>2021-05-18T13:30:09Z</time>
      </trkpt>
      <trkpt lat="41.8762230" lon="-8.8387710">
        <ele>5.7</ele>
        <time>2021-05-18T13:30:10Z</time>
      </trkpt>
      <trkpt lat="41.8760410" lon="-8.8387080">
        <ele>6.1</ele>
        <time>2021-05-18T13:30:40Z</time>
      </trkpt>
      <trkpt lat="41.8759600" lon="-8.8387080">
        <ele>6.1</ele>
        <time>2021-05-18T13:30:41Z</time>
      </trkpt>
      <trkpt lat="41.8762380" lon="-8.8386920">
        <ele>5.9</ele>
        <time>2021-05-18T13:30:48Z</time>
      </trkpt>
      <trkpt lat="41.8762570" lon="-8.8387090">
        <ele>5.9</ele>
        <time>2021-05-18T13:30:54Z</time>
      </trkpt>
      <trkpt lat="41.8762470" lon="-8.8387130">
        <ele>5.9</ele>
        <time>2021-05-18T13:30:56Z</time>
      </trkpt>
      <trkpt lat="41.8762970" lon="-8.8387170">
        <ele>5.8</ele>
        <time>2021-05-18T13:31:02Z</time>
      </trkpt>
      <trkpt lat="41.8763000" lon="-8.8387180">
        <ele>5.8</ele>
        <time>2021-05-18T13:31:03Z</time>
      </trkpt>
      <trkpt lat="41.8760300" lon="-8.8385810">
        <ele>6.2</ele>
        <time>2021-05-18T13:31:10Z</time>
      </trkpt>
      <trkpt lat="41.8759890" lon="-8.8385630">
        <ele>6.3</ele>
        <time>2021-05-18T13:31:11Z</time>
      </trkpt>
      <trkpt lat="41.8761350" lon="-8.8382770">
        <ele>6.4</ele>
        <time>2021-05-18T13:31:19Z</time>
      </trkpt>
      <trkpt lat="41.8761340" lon="-8.8382810">
        <ele>6.4</ele>
        <time>2021-05-18T13:31:20Z</time>
      </trkpt>
      <trkpt lat="41.8761070" lon="-8.8382470">
        <ele>6.4</ele>
        <time>2021-05-18T13:31:21Z</time>
      </trkpt>
      <trkpt lat="41.8760690" lon="-8.8382660">
        <ele>6.5</ele>
        <time>2021-05-18T13:31:22Z</time>
      </trkpt>
      <trkpt lat="41.8760500" lon="-8.8383250">
        <ele>6.5</ele>
        <time>2021-05-18T13:31:23Z</time>
      </trkpt>
      <trkpt lat="41.8759990" lon="-8.8383770">
        <ele>6.4</ele>
        <time>2021-05-18T13:31:24Z</time>
      </trkpt>
      <trkpt lat="41.8759700" lon="-8.8383470">
        <ele>6.5</ele>
        <time>2021-05-18T13:31:25Z</time>
      </trkpt>
      <trkpt lat="41.8759330" lon="-8.8383370">
        <ele>6.5</ele>
        <time>2021-05-18T13:31:26Z</time>
      </trkpt>
      <trkpt lat="41.8759110" lon="-8.8383330">
        <ele>6.5</ele>
        <time>2021-05-18T13:31:27Z</time>
      </trkpt>
      <trkpt lat="41.8759080" lon="-8.8383340">
        <ele>6.5</ele>
        <time>2021-05-18T13:31:28Z</time>
      </trkpt>
      <trkpt lat="41.8759210" lon="-8.8383250">
        <ele>6.5</ele>
        <time>2021-05-18T13:31:29Z</time>
      </trkpt>
      <trkpt lat="41.8759310" lon="-8.8382940">
        <ele>6.5</ele>
        <time>2021-05-18T13:31:30Z</time>
      </trkpt>
      <trkpt lat="41.8759610" lon="-8.8382930">
        <ele>6.5</ele>
        <time>2021-05-18T13:31:31Z</time>
      </trkpt>
      <trkpt lat="41.8759800" lon="-8.8382950">
        <ele>6.5</ele>
        <time>2021-05-18T13:31:32Z</time>
      </trkpt>
      <trkpt lat="41.8760770" lon="-8.8383310">
        <ele>6.4</ele>
        <time>2021-05-18T13:31:33Z</time>
      </trkpt>
      <trkpt lat="41.8761210" lon="-8.8383240">
        <ele>6.4</ele>
        <time>2021-05-18T13:31:34Z</time>
      </trkpt>
      <trkpt lat="41.8761410" lon="-8.8383260">
        <ele>6.4</ele>
        <time>2021-05-18T13:31:35Z</time>
      </trkpt>
      <trkpt lat="41.8761510" lon="-8.8383280">
        <ele>6.3</ele>
        <time>2021-05-18T13:31:36Z</time>
      </trkpt>
      <trkpt lat="41.8761500" lon="-8.8383450">
        <ele>6.3</ele>
        <time>2021-05-18T13:31:37Z</time>
      </trkpt>
      <trkpt lat="41.8761560" lon="-8.8383480">
        <ele>6.3</ele>
        <time>2021-05-18T13:31:38Z</time>
      </trkpt>
      <trkpt lat="41.8761490" lon="-8.8383690">
        <ele>6.3</ele>
        <time>2021-05-18T13:31:39Z</time>
      </trkpt>
      <trkpt lat="41.8761610" lon="-8.8383600">
        <ele>6.3</ele>
        <time>2021-05-18T13:31:40Z</time>
      </trkpt>
      <trkpt lat="41.8761610" lon="-8.8383530">
        <ele>6.3</ele>
        <time>2021-05-18T13:31:41Z</time>
      </trkpt>
      <trkpt lat="41.8761490" lon="-8.8383450">
        <ele>6.3</ele>
        <time>2021-05-18T13:31:42Z</time>
      </trkpt>
      <trkpt lat="41.8761370" lon="-8.8383480">
        <ele>6.4</ele>
        <time>2021-05-18T13:31:43Z</time>
      </trkpt>
      <trkpt lat="41.8761270" lon="-8.8383310">
        <ele>6.4</ele>
        <time>2021-05-18T13:31:44Z</time>
      </trkpt>
      <trkpt lat="41.8761170" lon="-8.8383070">
        <ele>6.4</ele>
        <time>2021-05-18T13:31:45Z</time>
      </trkpt>
      <trkpt lat="41.8761110" lon="-8.8383000">
        <ele>6.4</ele>
        <time>2021-05-18T13:31:46Z</time>
      </trkpt>
      <trkpt lat="41.8761040" lon="-8.8382920">
        <ele>6.4</ele>
        <time>2021-05-18T13:31:47Z</time>
      </trkpt>
      <trkpt lat="41.8761020" lon="-8.8382730">
        <ele>6.4</ele>
        <time>2021-05-18T13:31:48Z</time>
      </trkpt>
      <trkpt lat="41.8761000" lon="-8.8382760">
        <ele>6.4</ele>
        <time>2021-05-18T13:31:49Z</time>
      </trkpt>
      <trkpt lat="41.8761080" lon="-8.8382760">
        <ele>6.4</ele>
        <time>2021-05-18T13:31:50Z</time>
      </trkpt>
      <trkpt lat="41.8761130" lon="-8.8382740">
        <ele>6.4</ele>
        <time>2021-05-18T13:31:51Z</time>
      </trkpt>
      <trkpt lat="41.8761200" lon="-8.8382780">
        <ele>6.4</ele>
        <time>2021-05-18T13:31:52Z</time>
      </trkpt>
      <trkpt lat="41.8761230" lon="-8.8382860">
        <ele>6.4</ele>
        <time>2021-05-18T13:31:53Z</time>
      </trkpt>
      <trkpt lat="41.8761310" lon="-8.8382980">
        <ele>6.4</ele>
        <time>2021-05-18T13:31:54Z</time>
      </trkpt>
      <trkpt lat="41.8761490" lon="-8.8383110">
        <ele>6.3</ele>
        <time>2021-05-18T13:31:55Z</time>
      </trkpt>
      <trkpt lat="41.8761520" lon="-8.8383180">
        <ele>6.3</ele>
        <time>2021-05-18T13:31:56Z</time>
      </trkpt>
      <trkpt lat="41.8761560" lon="-8.8383260">
        <ele>6.3</ele>
        <time>2021-05-18T13:31:57Z</time>
      </trkpt>
      <trkpt lat="41.8761590" lon="-8.8383340">
        <ele>6.3</ele>
        <time>2021-05-18T13:31:58Z</time>
      </trkpt>
      <trkpt lat="41.8761760" lon="-8.8383370">
        <ele>6.3</ele>
        <time>2021-05-18T13:31:59Z</time>
      </trkpt>
      <trkpt lat="41.8761940" lon="-8.8383250">
        <ele>6.3</ele>
        <time>2021-05-18T13:32:00Z</time>
      </trkpt>
      <trkpt lat="41.8762120" lon="-8.8383140">
        <ele>6.3</ele>
        <time>2021-05-18T13:32:01Z</time>
      </trkpt>
      <trkpt lat="41.8762290" lon="-8.8383030">
        <ele>6.3</ele>
        <time>2021-05-18T13:32:02Z</time>
      </trkpt>
      <trkpt lat="41.8762470" lon="-8.8382910">
        <ele>6.3</ele>
        <time>2021-05-18T13:32:03Z</time>
      </trkpt>
      <trkpt lat="41.8762650" lon="-8.8382800">
        <ele>6.3</ele>
        <time>2021-05-18T13:32:04Z</time>
      </trkpt>
      <trkpt lat="41.8762890" lon="-8.8382810">
        <ele>6.2</ele>
        <time>2021-05-18T13:32:05Z</time>
      </trkpt>
      <trkpt lat="41.8762980" lon="-8.8382620">
        <ele>6.2</ele>
        <time>2021-05-18T13:32:06Z</time>
      </trkpt>
      <trkpt lat="41.8762840" lon="-8.8383410">
        <ele>6.2</ele>
        <time>2021-05-18T13:32:07Z</time>
      </trkpt>
      <trkpt lat="41.8762370" lon="-8.8384230">
        <ele>6.2</ele>
        <time>2021-05-18T13:32:08Z</time>
      </trkpt>
      <trkpt lat="41.8762150" lon="-8.8384480">
        <ele>6.2</ele>
        <time>2021-05-18T13:32:09Z</time>
      </trkpt>
      <trkpt lat="41.8761060" lon="-8.8382920">
        <ele>6.4</ele>
        <time>2021-05-18T13:32:10Z</time>
      </trkpt>
      <trkpt lat="41.8760960" lon="-8.8383030">
        <ele>6.4</ele>
        <time>2021-05-18T13:32:11Z</time>
      </trkpt>
      <trkpt lat="41.8760810" lon="-8.8383010">
        <ele>6.4</ele>
        <time>2021-05-18T13:32:12Z</time>
      </trkpt>
      <trkpt lat="41.8760640" lon="-8.8382930">
        <ele>6.4</ele>
        <time>2021-05-18T13:32:13Z</time>
      </trkpt>
      <trkpt lat="41.8760660" lon="-8.8382710">
        <ele>6.3</ele>
        <time>2021-05-18T13:32:14Z</time>
      </trkpt>
      <trkpt lat="41.8760740" lon="-8.8382630">
        <ele>6.3</ele>
        <time>2021-05-18T13:32:15Z</time>
      </trkpt>
      <trkpt lat="41.8760810" lon="-8.8382540">
        <ele>6.3</ele>
        <time>2021-05-18T13:32:16Z</time>
      </trkpt>
      <trkpt lat="41.8760890" lon="-8.8382460">
        <ele>6.3</ele>
        <time>2021-05-18T13:32:17Z</time>
      </trkpt>
      <trkpt lat="41.8761000" lon="-8.8382380">
        <ele>6.3</ele>
        <time>2021-05-18T13:32:18Z</time>
      </trkpt>
      <trkpt lat="41.8761080" lon="-8.8382300">
        <ele>6.3</ele>
        <time>2021-05-18T13:32:19Z</time>
      </trkpt>
      <trkpt lat="41.8761160" lon="-8.8382190">
        <ele>6.3</ele>
        <time>2021-05-18T13:32:20Z</time>
      </trkpt>
      <trkpt lat="41.8761270" lon="-8.8381970">
        <ele>6.2</ele>
        <time>2021-05-18T13:32:21Z</time>
      </trkpt>
      <trkpt lat="41.8761330" lon="-8.8381840">
        <ele>6.2</ele>
        <time>2021-05-18T13:32:22Z</time>
      </trkpt>
      <trkpt lat="41.8761400" lon="-8.8381720">
        <ele>6.2</ele>
        <time>2021-05-18T13:32:23Z</time>
      </trkpt>
      <trkpt lat="41.8761440" lon="-8.8381610">
        <ele>6.2</ele>
        <time>2021-05-18T13:32:24Z</time>
      </trkpt>
      <trkpt lat="41.8761510" lon="-8.8381480">
        <ele>6.2</ele>
        <time>2021-05-18T13:32:25Z</time>
      </trkpt>
      <trkpt lat="41.8761630" lon="-8.8381400">
        <ele>6.2</ele>
        <time>2021-05-18T13:32:26Z</time>
      </trkpt>
      <trkpt lat="41.8761750" lon="-8.8381330">
        <ele>6.1</ele>
        <time>2021-05-18T13:32:27Z</time>
      </trkpt>
      <trkpt lat="41.8761840" lon="-8.8381260">
        <ele>6.1</ele>
        <time>2021-05-18T13:32:28Z</time>
      </trkpt>
      <trkpt lat="41.8761960" lon="-8.8381290">
        <ele>6.1</ele>
        <time>2021-05-18T13:32:29Z</time>
      </trkpt>
      <trkpt lat="41.8762100" lon="-8.8381190">
        <ele>6.1</ele>
        <time>2021-05-18T13:32:30Z</time>
      </trkpt>
      <trkpt lat="41.8762210" lon="-8.8381120">
        <ele>6.1</ele>
        <time>2021-05-18T13:32:31Z</time>
      </trkpt>
      <trkpt lat="41.8762400" lon="-8.8380970">
        <ele>6.0</ele>
        <time>2021-05-18T13:32:32Z</time>
      </trkpt>
      <trkpt lat="41.8762460" lon="-8.8380920">
        <ele>6.0</ele>
        <time>2021-05-18T13:32:33Z</time>
      </trkpt>
      <trkpt lat="41.8762530" lon="-8.8380860">
        <ele>6.0</ele>
        <time>2021-05-18T13:32:34Z</time>
      </trkpt>
      <trkpt lat="41.8762590" lon="-8.8380890">
        <ele>6.0</ele>
        <time>2021-05-18T13:32:35Z</time>
      </trkpt>
      <trkpt lat="41.8762720" lon="-8.8380870">
        <ele>6.0</ele>
        <time>2021-05-18T13:32:36Z</time>
      </trkpt>
      <trkpt lat="41.8762850" lon="-8.8380730">
        <ele>6.0</ele>
        <time>2021-05-18T13:32:37Z</time>
      </trkpt>
      <trkpt lat="41.8762930" lon="-8.8380620">
        <ele>6.0</ele>
        <time>2021-05-18T13:32:38Z</time>
      </trkpt>
      <trkpt lat="41.8763080" lon="-8.8380530">
        <ele>5.9</ele>
        <time>2021-05-18T13:32:39Z</time>
      </trkpt>
      <trkpt lat="41.8763190" lon="-8.8380330">
        <ele>5.9</ele>
        <time>2021-05-18T13:32:40Z</time>
      </trkpt>
      <trkpt lat="41.8763290" lon="-8.8380160">
        <ele>5.9</ele>
        <time>2021-05-18T13:32:41Z</time>
      </trkpt>
      <trkpt lat="41.8763420" lon="-8.8380010">
        <ele>5.9</ele>
        <time>2021-05-18T13:32:42Z</time>
      </trkpt>
      <trkpt lat="41.8763530" lon="-8.8379960">
        <ele>5.8</ele>
        <time>2021-05-18T13:32:43Z</time>
      </trkpt>
      <trkpt lat="41.8763610" lon="-8.8379880">
        <ele>5.8</ele>
        <time>2021-05-18T13:32:44Z</time>
      </trkpt>
      <trkpt lat="41.8763670" lon="-8.8379830">
        <ele>5.8</ele>
        <time>2021-05-18T13:32:45Z</time>
      </trkpt>
      <trkpt lat="41.8763680" lon="-8.8379770">
        <ele>5.8</ele>
        <time>2021-05-18T13:32:46Z</time>
      </trkpt>
      <trkpt lat="41.8763780" lon="-8.8379640">
        <ele>5.8</ele>
        <time>2021-05-18T13:32:47Z</time>
      </trkpt>
      <trkpt lat="41.8763930" lon="-8.8379490">
        <ele>5.8</ele>
        <time>2021-05-18T13:32:48Z</time>
      </trkpt>
      <trkpt lat="41.8763990" lon="-8.8379420">
        <ele>5.7</ele>
        <time>2021-05-18T13:32:49Z</time>
      </trkpt>
      <trkpt lat="41.8764040" lon="-8.8379340">
        <ele>5.7</ele>
        <time>2021-05-18T13:32:50Z</time>
      </trkpt>
      <trkpt lat="41.8764100" lon="-8.8379260">
        <ele>5.7</ele>
        <time>2021-05-18T13:32:51Z</time>
      </trkpt>
      <trkpt lat="41.8764150" lon="-8.8379290">
        <ele>5.7</ele>
        <time>2021-05-18T13:32:52Z</time>
      </trkpt>
      <trkpt lat="41.8764290" lon="-8.8379110">
        <ele>5.7</ele>
        <time>2021-05-18T13:32:53Z</time>
      </trkpt>
      <trkpt lat="41.8764390" lon="-8.8379010">
        <ele>5.7</ele>
        <time>2021-05-18T13:32:54Z</time>
      </trkpt>
      <trkpt lat="41.8764460" lon="-8.8378830">
        <ele>5.6</ele>
        <time>2021-05-18T13:32:55Z</time>
      </trkpt>
      <trkpt lat="41.8764570" lon="-8.8378630">
        <ele>5.6</ele>
        <time>2021-05-18T13:32:56Z</time>
      </trkpt>
      <trkpt lat="41.8764650" lon="-8.8378410">
        <ele>5.6</ele>
        <time>2021-05-18T13:32:57Z</time>
      </trkpt>
      <trkpt lat="41.8764750" lon="-8.8378330">
        <ele>5.6</ele>
        <time>2021-05-18T13:32:58Z</time>
      </trkpt>
      <trkpt lat="41.8764890" lon="-8.8378240">
        <ele>5.5</ele>
        <time>2021-05-18T13:32:59Z</time>
      </trkpt>
      <trkpt lat="41.8764950" lon="-8.8378120">
        <ele>5.5</ele>
        <time>2021-05-18T13:33:00Z</time>
      </trkpt>
      <trkpt lat="41.8765020" lon="-8.8378010">
        <ele>5.5</ele>
        <time>2021-05-18T13:33:01Z</time>
      </trkpt>
      <trkpt lat="41.8765190" lon="-8.8377900">
        <ele>5.5</ele>
        <time>2021-05-18T13:33:02Z</time>
      </trkpt>
      <trkpt lat="41.8765300" lon="-8.8377810">
        <ele>5.5</ele>
        <time>2021-05-18T13:33:03Z</time>
      </trkpt>
      <trkpt lat="41.8765380" lon="-8.8377730">
        <ele>5.4</ele>
        <time>2021-05-18T13:33:04Z</time>
      </trkpt>
      <trkpt lat="41.8765440" lon="-8.8377590">
        <ele>5.4</ele>
        <time>2021-05-18T13:33:05Z</time>
      </trkpt>
      <trkpt lat="41.8765500" lon="-8.8377560">
        <ele>5.4</ele>
        <time>2021-05-18T13:33:06Z</time>
      </trkpt>
      <trkpt lat="41.8765620" lon="-8.8377500">
        <ele>5.4</ele>
        <time>2021-05-18T13:33:07Z</time>
      </trkpt>
      <trkpt lat="41.8765780" lon="-8.8377380">
        <ele>5.4</ele>
        <time>2021-05-18T13:33:08Z</time>
      </trkpt>
      <trkpt lat="41.8765820" lon="-8.8377270">
        <ele>5.3</ele>
        <time>2021-05-18T13:33:09Z</time>
      </trkpt>
      <trkpt lat="41.8765900" lon="-8.8377270">
        <ele>5.3</ele>
        <time>2021-05-18T13:33:10Z</time>
      </trkpt>
      <trkpt lat="41.8765930" lon="-8.8377310">
        <ele>5.3</ele>
        <time>2021-05-18T13:33:11Z</time>
      </trkpt>
      <trkpt lat="41.8766100" lon="-8.8377300">
        <ele>5.3</ele>
        <time>2021-05-18T13:33:12Z</time>
      </trkpt>
      <trkpt lat="41.8766210" lon="-8.8377140">
        <ele>5.3</ele>
        <time>2021-05-18T13:33:13Z</time>
      </trkpt>
      <trkpt lat="41.8766330" lon="-8.8377050">
        <ele>5.2</ele>
        <time>2021-05-18T13:33:14Z</time>
      </trkpt>
      <trkpt lat="41.8766480" lon="-8.8376890">
        <ele>5.2</ele>
        <time>2021-05-18T13:33:15Z</time>
      </trkpt>
      <trkpt lat="41.8766570" lon="-8.8376770">
        <ele>5.2</ele>
        <time>2021-05-18T13:33:16Z</time>
      </trkpt>
      <trkpt lat="41.8766670" lon="-8.8376660">
        <ele>5.2</ele>
        <time>2021-05-18T13:33:17Z</time>
      </trkpt>
      <trkpt lat="41.8766750" lon="-8.8376690">
        <ele>5.2</ele>
        <time>2021-05-18T13:33:18Z</time>
      </trkpt>
      <trkpt lat="41.8766790" lon="-8.8376710">
        <ele>5.2</ele>
        <time>2021-05-18T13:33:19Z</time>
      </trkpt>
      <trkpt lat="41.8766840" lon="-8.8376730">
        <ele>5.1</ele>
        <time>2021-05-18T13:33:20Z</time>
      </trkpt>
      <trkpt lat="41.8766890" lon="-8.8376740">
        <ele>5.1</ele>
        <time>2021-05-18T13:33:21Z</time>
      </trkpt>
      <trkpt lat="41.8766930" lon="-8.8376760">
        <ele>5.1</ele>
        <time>2021-05-18T13:33:22Z</time>
      </trkpt>
      <trkpt lat="41.8766980" lon="-8.8376780">
        <ele>5.1</ele>
        <time>2021-05-18T13:33:23Z</time>
      </trkpt>
      <trkpt lat="41.8767020" lon="-8.8376800">
        <ele>5.1</ele>
        <time>2021-05-18T13:33:24Z</time>
      </trkpt>
      <trkpt lat="41.8767070" lon="-8.8376820">
        <ele>5.1</ele>
        <time>2021-05-18T13:33:25Z</time>
      </trkpt>
      <trkpt lat="41.8767110" lon="-8.8376860">
        <ele>5.1</ele>
        <time>2021-05-18T13:33:26Z</time>
      </trkpt>
      <trkpt lat="41.8767060" lon="-8.8376890">
        <ele>5.1</ele>
        <time>2021-05-18T13:33:27Z</time>
      </trkpt>
      <trkpt lat="41.8767170" lon="-8.8376860">
        <ele>5.1</ele>
        <time>2021-05-18T13:33:28Z</time>
      </trkpt>
      <trkpt lat="41.8767220" lon="-8.8376850">
        <ele>5.1</ele>
        <time>2021-05-18T13:33:29Z</time>
      </trkpt>
      <trkpt lat="41.8767280" lon="-8.8376910">
        <ele>5.1</ele>
        <time>2021-05-18T13:33:30Z</time>
      </trkpt>
      <trkpt lat="41.8767380" lon="-8.8376830">
        <ele>5.1</ele>
        <time>2021-05-18T13:33:31Z</time>
      </trkpt>
      <trkpt lat="41.8767440" lon="-8.8376720">
        <ele>5.0</ele>
        <time>2021-05-18T13:33:32Z</time>
      </trkpt>
      <trkpt lat="41.8767500" lon="-8.8376640">
        <ele>5.0</ele>
        <time>2021-05-18T13:33:33Z</time>
      </trkpt>
      <trkpt lat="41.8767570" lon="-8.8376560">
        <ele>5.0</ele>
        <time>2021-05-18T13:33:34Z</time>
      </trkpt>
      <trkpt lat="41.8767630" lon="-8.8376480">
        <ele>5.0</ele>
        <time>2021-05-18T13:33:35Z</time>
      </trkpt>
      <trkpt lat="41.8767680" lon="-8.8376430">
        <ele>5.0</ele>
        <time>2021-05-18T13:33:36Z</time>
      </trkpt>
      <trkpt lat="41.8767840" lon="-8.8376430">
        <ele>5.0</ele>
        <time>2021-05-18T13:33:37Z</time>
      </trkpt>
      <trkpt lat="41.8767890" lon="-8.8376360">
        <ele>5.0</ele>
        <time>2021-05-18T13:33:38Z</time>
      </trkpt>
      <trkpt lat="41.8767950" lon="-8.8376230">
        <ele>5.0</ele>
        <time>2021-05-18T13:33:39Z</time>
      </trkpt>
      <trkpt lat="41.8767980" lon="-8.8376300">
        <ele>5.0</ele>
        <time>2021-05-18T13:33:40Z</time>
      </trkpt>
      <trkpt lat="41.8768080" lon="-8.8376320">
        <ele>4.9</ele>
        <time>2021-05-18T13:33:41Z</time>
      </trkpt>
      <trkpt lat="41.8768130" lon="-8.8376290">
        <ele>4.9</ele>
        <time>2021-05-18T13:33:42Z</time>
      </trkpt>
      <trkpt lat="41.8768200" lon="-8.8376170">
        <ele>4.9</ele>
        <time>2021-05-18T13:33:43Z</time>
      </trkpt>
      <trkpt lat="41.8768340" lon="-8.8375800">
        <ele>4.9</ele>
        <time>2021-05-18T13:33:44Z</time>
      </trkpt>
      <trkpt lat="41.8768370" lon="-8.8375680">
        <ele>4.9</ele>
        <time>2021-05-18T13:33:45Z</time>
      </trkpt>
      <trkpt lat="41.8768580" lon="-8.8375430">
        <ele>4.9</ele>
        <time>2021-05-18T13:33:46Z</time>
      </trkpt>
      <trkpt lat="41.8768550" lon="-8.8375490">
        <ele>4.8</ele>
        <time>2021-05-18T13:33:47Z</time>
      </trkpt>
      <trkpt lat="41.8768600" lon="-8.8375490">
        <ele>4.8</ele>
        <time>2021-05-18T13:33:48Z</time>
      </trkpt>
      <trkpt lat="41.8768710" lon="-8.8375570">
        <ele>4.8</ele>
        <time>2021-05-18T13:33:49Z</time>
      </trkpt>
      <trkpt lat="41.8768740" lon="-8.8375580">
        <ele>4.8</ele>
        <time>2021-05-18T13:33:50Z</time>
      </trkpt>
      <trkpt lat="41.8768870" lon="-8.8375610">
        <ele>4.8</ele>
        <time>2021-05-18T13:33:51Z</time>
      </trkpt>
      <trkpt lat="41.8768910" lon="-8.8375600">
        <ele>4.8</ele>
        <time>2021-05-18T13:33:52Z</time>
      </trkpt>
      <trkpt lat="41.8768930" lon="-8.8375600">
        <ele>4.8</ele>
        <time>2021-05-18T13:33:53Z</time>
      </trkpt>
      <trkpt lat="41.8769040" lon="-8.8375550">
        <ele>4.8</ele>
        <time>2021-05-18T13:33:54Z</time>
      </trkpt>
      <trkpt lat="41.8769030" lon="-8.8375600">
        <ele>4.8</ele>
        <time>2021-05-18T13:33:55Z</time>
      </trkpt>
      <trkpt lat="41.8769130" lon="-8.8375720">
        <ele>4.8</ele>
        <time>2021-05-18T13:33:56Z</time>
      </trkpt>
      <trkpt lat="41.8769150" lon="-8.8375730">
        <ele>4.8</ele>
        <time>2021-05-18T13:33:57Z</time>
      </trkpt>
      <trkpt lat="41.8769270" lon="-8.8375770">
        <ele>4.8</ele>
        <time>2021-05-18T13:33:58Z</time>
      </trkpt>
      <trkpt lat="41.8769300" lon="-8.8375780">
        <ele>4.8</ele>
        <time>2021-05-18T13:33:59Z</time>
      </trkpt>
      <trkpt lat="41.8769300" lon="-8.8375840">
        <ele>4.8</ele>
        <time>2021-05-18T13:34:00Z</time>
      </trkpt>
      <trkpt lat="41.8769360" lon="-8.8375800">
        <ele>4.8</ele>
        <time>2021-05-18T13:34:01Z</time>
      </trkpt>
      <trkpt lat="41.8769380" lon="-8.8375830">
        <ele>4.8</ele>
        <time>2021-05-18T13:34:02Z</time>
      </trkpt>
      <trkpt lat="41.8769450" lon="-8.8375860">
        <ele>4.7</ele>
        <time>2021-05-18T13:34:03Z</time>
      </trkpt>
      <trkpt lat="41.8769550" lon="-8.8375900">
        <ele>4.7</ele>
        <time>2021-05-18T13:34:04Z</time>
      </trkpt>
      <trkpt lat="41.8769630" lon="-8.8375910">
        <ele>4.7</ele>
        <time>2021-05-18T13:34:05Z</time>
      </trkpt>
      <trkpt lat="41.8769670" lon="-8.8375990">
        <ele>4.7</ele>
        <time>2021-05-18T13:34:06Z</time>
      </trkpt>
      <trkpt lat="41.8769760" lon="-8.8375960">
        <ele>4.7</ele>
        <time>2021-05-18T13:34:07Z</time>
      </trkpt>
      <trkpt lat="41.8769820" lon="-8.8375930">
        <ele>4.7</ele>
        <time>2021-05-18T13:34:08Z</time>
      </trkpt>
      <trkpt lat="41.8769970" lon="-8.8375850">
        <ele>4.7</ele>
        <time>2021-05-18T13:34:09Z</time>
      </trkpt>
      <trkpt lat="41.8770060" lon="-8.8375770">
        <ele>4.7</ele>
        <time>2021-05-18T13:34:10Z</time>
      </trkpt>
      <trkpt lat="41.8770230" lon="-8.8375620">
        <ele>4.7</ele>
        <time>2021-05-18T13:34:11Z</time>
      </trkpt>
      <trkpt lat="41.8770310" lon="-8.8375520">
        <ele>4.7</ele>
        <time>2021-05-18T13:34:12Z</time>
      </trkpt>
      <trkpt lat="41.8770400" lon="-8.8375420">
        <ele>4.7</ele>
        <time>2021-05-18T13:34:13Z</time>
      </trkpt>
      <trkpt lat="41.8770460" lon="-8.8375330">
        <ele>4.6</ele>
        <time>2021-05-18T13:34:14Z</time>
      </trkpt>
      <trkpt lat="41.8770490" lon="-8.8375200">
        <ele>4.6</ele>
        <time>2021-05-18T13:34:15Z</time>
      </trkpt>
      <trkpt lat="41.8770590" lon="-8.8375020">
        <ele>4.6</ele>
        <time>2021-05-18T13:34:16Z</time>
      </trkpt>
      <trkpt lat="41.8770700" lon="-8.8374830">
        <ele>4.6</ele>
        <time>2021-05-18T13:34:17Z</time>
      </trkpt>
      <trkpt lat="41.8770810" lon="-8.8374820">
        <ele>4.6</ele>
        <time>2021-05-18T13:34:18Z</time>
      </trkpt>
      <trkpt lat="41.8770910" lon="-8.8374870">
        <ele>4.6</ele>
        <time>2021-05-18T13:34:19Z</time>
      </trkpt>
      <trkpt lat="41.8770950" lon="-8.8374900">
        <ele>4.6</ele>
        <time>2021-05-18T13:34:20Z</time>
      </trkpt>
      <trkpt lat="41.8770980" lon="-8.8374910">
        <ele>4.6</ele>
        <time>2021-05-18T13:34:21Z</time>
      </trkpt>
      <trkpt lat="41.8770980" lon="-8.8374930">
        <ele>4.6</ele>
        <time>2021-05-18T13:34:22Z</time>
      </trkpt>
      <trkpt lat="41.8771070" lon="-8.8374860">
        <ele>4.5</ele>
        <time>2021-05-18T13:34:23Z</time>
      </trkpt>
      <trkpt lat="41.8771100" lon="-8.8374820">
        <ele>4.5</ele>
        <time>2021-05-18T13:34:24Z</time>
      </trkpt>
      <trkpt lat="41.8771140" lon="-8.8374830">
        <ele>4.5</ele>
        <time>2021-05-18T13:34:25Z</time>
      </trkpt>
      <trkpt lat="41.8771210" lon="-8.8374760">
        <ele>4.5</ele>
        <time>2021-05-18T13:34:26Z</time>
      </trkpt>
      <trkpt lat="41.8771360" lon="-8.8374760">
        <ele>4.5</ele>
        <time>2021-05-18T13:34:27Z</time>
      </trkpt>
      <trkpt lat="41.8771390" lon="-8.8374760">
        <ele>4.5</ele>
        <time>2021-05-18T13:34:28Z</time>
      </trkpt>
      <trkpt lat="41.8771420" lon="-8.8374690">
        <ele>4.5</ele>
        <time>2021-05-18T13:34:29Z</time>
      </trkpt>
      <trkpt lat="41.8771520" lon="-8.8374630">
        <ele>4.5</ele>
        <time>2021-05-18T13:34:30Z</time>
      </trkpt>
      <trkpt lat="41.8771670" lon="-8.8374470">
        <ele>4.5</ele>
        <time>2021-05-18T13:34:31Z</time>
      </trkpt>
      <trkpt lat="41.8771750" lon="-8.8374360">
        <ele>4.5</ele>
        <time>2021-05-18T13:34:32Z</time>
      </trkpt>
      <trkpt lat="41.8771840" lon="-8.8374260">
        <ele>4.4</ele>
        <time>2021-05-18T13:34:33Z</time>
      </trkpt>
      <trkpt lat="41.8771860" lon="-8.8374270">
        <ele>4.4</ele>
        <time>2021-05-18T13:34:34Z</time>
      </trkpt>
      <trkpt lat="41.8771920" lon="-8.8374120">
        <ele>4.4</ele>
        <time>2021-05-18T13:34:35Z</time>
      </trkpt>
      <trkpt lat="41.8772060" lon="-8.8374010">
        <ele>4.4</ele>
        <time>2021-05-18T13:34:36Z</time>
      </trkpt>
      <trkpt lat="41.8772140" lon="-8.8373910">
        <ele>4.4</ele>
        <time>2021-05-18T13:34:37Z</time>
      </trkpt>
      <trkpt lat="41.8772310" lon="-8.8373870">
        <ele>4.4</ele>
        <time>2021-05-18T13:34:38Z</time>
      </trkpt>
      <trkpt lat="41.8772440" lon="-8.8373790">
        <ele>4.4</ele>
        <time>2021-05-18T13:34:39Z</time>
      </trkpt>
      <trkpt lat="41.8772490" lon="-8.8373690">
        <ele>4.4</ele>
        <time>2021-05-18T13:34:40Z</time>
      </trkpt>
      <trkpt lat="41.8772530" lon="-8.8373580">
        <ele>4.3</ele>
        <time>2021-05-18T13:34:41Z</time>
      </trkpt>
      <trkpt lat="41.8772580" lon="-8.8373480">
        <ele>4.3</ele>
        <time>2021-05-18T13:34:42Z</time>
      </trkpt>
      <trkpt lat="41.8772620" lon="-8.8373370">
        <ele>4.3</ele>
        <time>2021-05-18T13:34:43Z</time>
      </trkpt>
      <trkpt lat="41.8772660" lon="-8.8372970">
        <ele>4.3</ele>
        <time>2021-05-18T13:34:44Z</time>
      </trkpt>
      <trkpt lat="41.8772680" lon="-8.8372890">
        <ele>4.3</ele>
        <time>2021-05-18T13:34:45Z</time>
      </trkpt>
      <trkpt lat="41.8772680" lon="-8.8372810">
        <ele>4.3</ele>
        <time>2021-05-18T13:34:46Z</time>
      </trkpt>
      <trkpt lat="41.8772750" lon="-8.8372740">
        <ele>4.3</ele>
        <time>2021-05-18T13:34:47Z</time>
      </trkpt>
      <trkpt lat="41.8772910" lon="-8.8372640">
        <ele>4.3</ele>
        <time>2021-05-18T13:34:48Z</time>
      </trkpt>
      <trkpt lat="41.8772980" lon="-8.8372730">
        <ele>4.3</ele>
        <time>2021-05-18T13:34:49Z</time>
      </trkpt>
      <trkpt lat="41.8773070" lon="-8.8372650">
        <ele>4.2</ele>
        <time>2021-05-18T13:34:50Z</time>
      </trkpt>
      <trkpt lat="41.8773130" lon="-8.8372650">
        <ele>4.2</ele>
        <time>2021-05-18T13:34:51Z</time>
      </trkpt>
      <trkpt lat="41.8773150" lon="-8.8372620">
        <ele>4.2</ele>
        <time>2021-05-18T13:34:52Z</time>
      </trkpt>
      <trkpt lat="41.8773190" lon="-8.8372560">
        <ele>4.2</ele>
        <time>2021-05-18T13:34:53Z</time>
      </trkpt>
      <trkpt lat="41.8773250" lon="-8.8372540">
        <ele>4.2</ele>
        <time>2021-05-18T13:34:54Z</time>
      </trkpt>
      <trkpt lat="41.8773320" lon="-8.8372520">
        <ele>4.2</ele>
        <time>2021-05-18T13:34:55Z</time>
      </trkpt>
      <trkpt lat="41.8773360" lon="-8.8372530">
        <ele>4.2</ele>
        <time>2021-05-18T13:34:56Z</time>
      </trkpt>
      <trkpt lat="41.8773520" lon="-8.8372520">
        <ele>4.2</ele>
        <time>2021-05-18T13:34:57Z</time>
      </trkpt>
      <trkpt lat="41.8773560" lon="-8.8372530">
        <ele>4.2</ele>
        <time>2021-05-18T13:34:58Z</time>
      </trkpt>
      <trkpt lat="41.8773590" lon="-8.8372460">
        <ele>4.2</ele>
        <time>2021-05-18T13:34:59Z</time>
      </trkpt>
      <trkpt lat="41.8773650" lon="-8.8372340">
        <ele>4.2</ele>
        <time>2021-05-18T13:35:00Z</time>
      </trkpt>
      <trkpt lat="41.8773780" lon="-8.8372220">
        <ele>4.2</ele>
        <time>2021-05-18T13:35:01Z</time>
      </trkpt>
      <trkpt lat="41.8773780" lon="-8.8372150">
        <ele>4.2</ele>
        <time>2021-05-18T13:35:02Z</time>
      </trkpt>
      <trkpt lat="41.8773890" lon="-8.8372110">
        <ele>4.2</ele>
        <time>2021-05-18T13:35:03Z</time>
      </trkpt>
      <trkpt lat="41.8773990" lon="-8.8372020">
        <ele>4.2</ele>
        <time>2021-05-18T13:35:04Z</time>
      </trkpt>
      <trkpt lat="41.8774050" lon="-8.8371960">
        <ele>4.2</ele>
        <time>2021-05-18T13:35:05Z</time>
      </trkpt>
      <trkpt lat="41.8774110" lon="-8.8371830">
        <ele>4.2</ele>
        <time>2021-05-18T13:35:06Z</time>
      </trkpt>
      <trkpt lat="41.8774200" lon="-8.8371830">
        <ele>4.2</ele>
        <time>2021-05-18T13:35:07Z</time>
      </trkpt>
      <trkpt lat="41.8774270" lon="-8.8371730">
        <ele>4.2</ele>
        <time>2021-05-18T13:35:08Z</time>
      </trkpt>
      <trkpt lat="41.8774280" lon="-8.8371690">
        <ele>4.2</ele>
        <time>2021-05-18T13:35:09Z</time>
      </trkpt>
      <trkpt lat="41.8774280" lon="-8.8371740">
        <ele>4.2</ele>
        <time>2021-05-18T13:35:10Z</time>
      </trkpt>
      <trkpt lat="41.8774290" lon="-8.8371730">
        <ele>4.2</ele>
        <time>2021-05-18T13:35:11Z</time>
      </trkpt>
      <trkpt lat="41.8774270" lon="-8.8371790">
        <ele>4.2</ele>
        <time>2021-05-18T13:35:12Z</time>
      </trkpt>
      <trkpt lat="41.8774300" lon="-8.8371710">
        <ele>4.2</ele>
        <time>2021-05-18T13:35:13Z</time>
      </trkpt>
      <trkpt lat="41.8774340" lon="-8.8371720">
        <ele>4.2</ele>
        <time>2021-05-18T13:35:14Z</time>
      </trkpt>
      <trkpt lat="41.8774370" lon="-8.8371770">
        <ele>4.2</ele>
        <time>2021-05-18T13:35:15Z</time>
      </trkpt>
      <trkpt lat="41.8774420" lon="-8.8371780">
        <ele>4.2</ele>
        <time>2021-05-18T13:35:16Z</time>
      </trkpt>
      <trkpt lat="41.8774390" lon="-8.8371820">
        <ele>4.2</ele>
        <time>2021-05-18T13:35:17Z</time>
      </trkpt>
      <trkpt lat="41.8774400" lon="-8.8371920">
        <ele>4.2</ele>
        <time>2021-05-18T13:35:18Z</time>
      </trkpt>
      <trkpt lat="41.8774390" lon="-8.8371980">
        <ele>4.2</ele>
        <time>2021-05-18T13:35:19Z</time>
      </trkpt>
      <trkpt lat="41.8774390" lon="-8.8372010">
        <ele>4.2</ele>
        <time>2021-05-18T13:35:20Z</time>
      </trkpt>
      <trkpt lat="41.8774380" lon="-8.8371910">
        <ele>4.2</ele>
        <time>2021-05-18T13:35:21Z</time>
      </trkpt>
      <trkpt lat="41.8774380" lon="-8.8371820">
        <ele>4.2</ele>
        <time>2021-05-18T13:35:22Z</time>
      </trkpt>
      <trkpt lat="41.8774400" lon="-8.8371680">
        <ele>4.2</ele>
        <time>2021-05-18T13:35:23Z</time>
      </trkpt>
      <trkpt lat="41.8774490" lon="-8.8371570">
        <ele>4.1</ele>
        <time>2021-05-18T13:35:24Z</time>
      </trkpt>
      <trkpt lat="41.8774490" lon="-8.8371690">
        <ele>4.1</ele>
        <time>2021-05-18T13:35:25Z</time>
      </trkpt>
      <trkpt lat="41.8774540" lon="-8.8371690">
        <ele>4.1</ele>
        <time>2021-05-18T13:35:26Z</time>
      </trkpt>
      <trkpt lat="41.8774570" lon="-8.8371650">
        <ele>4.1</ele>
        <time>2021-05-18T13:35:27Z</time>
      </trkpt>
      <trkpt lat="41.8774680" lon="-8.8371600">
        <ele>4.1</ele>
        <time>2021-05-18T13:35:28Z</time>
      </trkpt>
      <trkpt lat="41.8774690" lon="-8.8371560">
        <ele>4.1</ele>
        <time>2021-05-18T13:35:29Z</time>
      </trkpt>
      <trkpt lat="41.8774740" lon="-8.8371470">
        <ele>4.1</ele>
        <time>2021-05-18T13:35:30Z</time>
      </trkpt>
      <trkpt lat="41.8774760" lon="-8.8371300">
        <ele>4.1</ele>
        <time>2021-05-18T13:35:31Z</time>
      </trkpt>
      <trkpt lat="41.8774700" lon="-8.8370800">
        <ele>4.1</ele>
        <time>2021-05-18T13:35:32Z</time>
      </trkpt>
      <trkpt lat="41.8774740" lon="-8.8370420">
        <ele>4.1</ele>
        <time>2021-05-18T13:35:33Z</time>
      </trkpt>
      <trkpt lat="41.8774760" lon="-8.8370200">
        <ele>4.1</ele>
        <time>2021-05-18T13:35:34Z</time>
      </trkpt>
      <trkpt lat="41.8774750" lon="-8.8370140">
        <ele>4.1</ele>
        <time>2021-05-18T13:35:35Z</time>
      </trkpt>
      <trkpt lat="41.8774750" lon="-8.8370140">
        <ele>4.1</ele>
        <time>2021-05-18T13:35:36Z</time>
      </trkpt>
      <trkpt lat="41.8774670" lon="-8.8369920">
        <ele>4.1</ele>
        <time>2021-05-18T13:35:37Z</time>
      </trkpt>
      <trkpt lat="41.8774670" lon="-8.8369920">
        <ele>4.1</ele>
        <time>2021-05-18T13:35:38Z</time>
      </trkpt>
      <trkpt lat="41.8774660" lon="-8.8369910">
        <ele>4.1</ele>
        <time>2021-05-18T13:35:39Z</time>
      </trkpt>
      <trkpt lat="41.8774720" lon="-8.8369800">
        <ele>4.1</ele>
        <time>2021-05-18T13:35:40Z</time>
      </trkpt>
      <trkpt lat="41.8774860" lon="-8.8369840">
        <ele>4.1</ele>
        <time>2021-05-18T13:35:41Z</time>
      </trkpt>
      <trkpt lat="41.8774940" lon="-8.8369820">
        <ele>4.1</ele>
        <time>2021-05-18T13:35:42Z</time>
      </trkpt>
      <trkpt lat="41.8775030" lon="-8.8369800">
        <ele>4.1</ele>
        <time>2021-05-18T13:35:43Z</time>
      </trkpt>
      <trkpt lat="41.8775100" lon="-8.8370020">
        <ele>4.1</ele>
        <time>2021-05-18T13:35:44Z</time>
      </trkpt>
      <trkpt lat="41.8775180" lon="-8.8370200">
        <ele>4.1</ele>
        <time>2021-05-18T13:35:45Z</time>
      </trkpt>
      <trkpt lat="41.8775280" lon="-8.8370170">
        <ele>4.1</ele>
        <time>2021-05-18T13:35:46Z</time>
      </trkpt>
      <trkpt lat="41.8775230" lon="-8.8370170">
        <ele>4.1</ele>
        <time>2021-05-18T13:35:47Z</time>
      </trkpt>
      <trkpt lat="41.8775300" lon="-8.8370220">
        <ele>4.1</ele>
        <time>2021-05-18T13:35:48Z</time>
      </trkpt>
      <trkpt lat="41.8775360" lon="-8.8370210">
        <ele>4.0</ele>
        <time>2021-05-18T13:35:49Z</time>
      </trkpt>
      <trkpt lat="41.8775450" lon="-8.8370220">
        <ele>4.0</ele>
        <time>2021-05-18T13:35:50Z</time>
      </trkpt>
      <trkpt lat="41.8775510" lon="-8.8370280">
        <ele>4.0</ele>
        <time>2021-05-18T13:35:51Z</time>
      </trkpt>
      <trkpt lat="41.8775490" lon="-8.8370300">
        <ele>4.0</ele>
        <time>2021-05-18T13:35:52Z</time>
      </trkpt>
      <trkpt lat="41.8775640" lon="-8.8370270">
        <ele>4.0</ele>
        <time>2021-05-18T13:35:53Z</time>
      </trkpt>
      <trkpt lat="41.8775710" lon="-8.8370240">
        <ele>4.0</ele>
        <time>2021-05-18T13:35:54Z</time>
      </trkpt>
      <trkpt lat="41.8775870" lon="-8.8370200">
        <ele>4.0</ele>
        <time>2021-05-18T13:35:55Z</time>
      </trkpt>
      <trkpt lat="41.8776100" lon="-8.8370210">
        <ele>4.0</ele>
        <time>2021-05-18T13:35:56Z</time>
      </trkpt>
      <trkpt lat="41.8776120" lon="-8.8370250">
        <ele>4.0</ele>
        <time>2021-05-18T13:35:57Z</time>
      </trkpt>
      <trkpt lat="41.8776190" lon="-8.8370200">
        <ele>4.0</ele>
        <time>2021-05-18T13:35:58Z</time>
      </trkpt>
      <trkpt lat="41.8776340" lon="-8.8370170">
        <ele>4.0</ele>
        <time>2021-05-18T13:35:59Z</time>
      </trkpt>
      <trkpt lat="41.8776420" lon="-8.8370170">
        <ele>4.0</ele>
        <time>2021-05-18T13:36:00Z</time>
      </trkpt>
      <trkpt lat="41.8776500" lon="-8.8370180">
        <ele>4.0</ele>
        <time>2021-05-18T13:36:01Z</time>
      </trkpt>
      <trkpt lat="41.8776580" lon="-8.8370180">
        <ele>4.0</ele>
        <time>2021-05-18T13:36:02Z</time>
      </trkpt>
      <trkpt lat="41.8776620" lon="-8.8370140">
        <ele>4.0</ele>
        <time>2021-05-18T13:36:03Z</time>
      </trkpt>
      <trkpt lat="41.8776670" lon="-8.8370120">
        <ele>4.0</ele>
        <time>2021-05-18T13:36:04Z</time>
      </trkpt>
      <trkpt lat="41.8776720" lon="-8.8370110">
        <ele>4.0</ele>
        <time>2021-05-18T13:36:05Z</time>
      </trkpt>
      <trkpt lat="41.8776850" lon="-8.8370000">
        <ele>4.0</ele>
        <time>2021-05-18T13:36:06Z</time>
      </trkpt>
      <trkpt lat="41.8776880" lon="-8.8369930">
        <ele>4.0</ele>
        <time>2021-05-18T13:36:07Z</time>
      </trkpt>
      <trkpt lat="41.8776920" lon="-8.8369810">
        <ele>4.0</ele>
        <time>2021-05-18T13:36:08Z</time>
      </trkpt>
      <trkpt lat="41.8777000" lon="-8.8369730">
        <ele>4.0</ele>
        <time>2021-05-18T13:36:09Z</time>
      </trkpt>
      <trkpt lat="41.8777090" lon="-8.8369660">
        <ele>4.0</ele>
        <time>2021-05-18T13:36:10Z</time>
      </trkpt>
      <trkpt lat="41.8777220" lon="-8.8369630">
        <ele>4.0</ele>
        <time>2021-05-18T13:36:11Z</time>
      </trkpt>
      <trkpt lat="41.8777180" lon="-8.8369690">
        <ele>4.0</ele>
        <time>2021-05-18T13:36:12Z</time>
      </trkpt>
      <trkpt lat="41.8777210" lon="-8.8369600">
        <ele>4.0</ele>
        <time>2021-05-18T13:36:13Z</time>
      </trkpt>
      <trkpt lat="41.8777260" lon="-8.8369490">
        <ele>4.0</ele>
        <time>2021-05-18T13:36:14Z</time>
      </trkpt>
      <trkpt lat="41.8777310" lon="-8.8369440">
        <ele>4.0</ele>
        <time>2021-05-18T13:36:15Z</time>
      </trkpt>
      <trkpt lat="41.8777350" lon="-8.8369380">
        <ele>4.0</ele>
        <time>2021-05-18T13:36:16Z</time>
      </trkpt>
      <trkpt lat="41.8777480" lon="-8.8369280">
        <ele>3.9</ele>
        <time>2021-05-18T13:36:17Z</time>
      </trkpt>
      <trkpt lat="41.8777570" lon="-8.8369210">
        <ele>3.9</ele>
        <time>2021-05-18T13:36:18Z</time>
      </trkpt>
      <trkpt lat="41.8777650" lon="-8.8369140">
        <ele>3.9</ele>
        <time>2021-05-18T13:36:19Z</time>
      </trkpt>
      <trkpt lat="41.8777820" lon="-8.8369060">
        <ele>3.9</ele>
        <time>2021-05-18T13:36:20Z</time>
      </trkpt>
      <trkpt lat="41.8777910" lon="-8.8369020">
        <ele>3.9</ele>
        <time>2021-05-18T13:36:21Z</time>
      </trkpt>
      <trkpt lat="41.8778000" lon="-8.8368980">
        <ele>3.9</ele>
        <time>2021-05-18T13:36:22Z</time>
      </trkpt>
      <trkpt lat="41.8778080" lon="-8.8368970">
        <ele>3.9</ele>
        <time>2021-05-18T13:36:23Z</time>
      </trkpt>
      <trkpt lat="41.8778180" lon="-8.8369000">
        <ele>3.9</ele>
        <time>2021-05-18T13:36:24Z</time>
      </trkpt>
      <trkpt lat="41.8778290" lon="-8.8368870">
        <ele>3.9</ele>
        <time>2021-05-18T13:36:25Z</time>
      </trkpt>
      <trkpt lat="41.8778410" lon="-8.8368800">
        <ele>3.9</ele>
        <time>2021-05-18T13:36:26Z</time>
      </trkpt>
      <trkpt lat="41.8778530" lon="-8.8368740">
        <ele>3.9</ele>
        <time>2021-05-18T13:36:27Z</time>
      </trkpt>
      <trkpt lat="41.8778630" lon="-8.8368680">
        <ele>3.9</ele>
        <time>2021-05-18T13:36:28Z</time>
      </trkpt>
      <trkpt lat="41.8778700" lon="-8.8368630">
        <ele>3.9</ele>
        <time>2021-05-18T13:36:29Z</time>
      </trkpt>
      <trkpt lat="41.8778740" lon="-8.8368550">
        <ele>3.8</ele>
        <time>2021-05-18T13:36:30Z</time>
      </trkpt>
      <trkpt lat="41.8778800" lon="-8.8368500">
        <ele>3.8</ele>
        <time>2021-05-18T13:36:31Z</time>
      </trkpt>
      <trkpt lat="41.8778920" lon="-8.8368460">
        <ele>3.8</ele>
        <time>2021-05-18T13:36:32Z</time>
      </trkpt>
      <trkpt lat="41.8778960" lon="-8.8368390">
        <ele>3.8</ele>
        <time>2021-05-18T13:36:33Z</time>
      </trkpt>
      <trkpt lat="41.8779000" lon="-8.8368400">
        <ele>3.8</ele>
        <time>2021-05-18T13:36:34Z</time>
      </trkpt>
      <trkpt lat="41.8779030" lon="-8.8368430">
        <ele>3.8</ele>
        <time>2021-05-18T13:36:35Z</time>
      </trkpt>
      <trkpt lat="41.8779130" lon="-8.8368420">
        <ele>3.8</ele>
        <time>2021-05-18T13:36:36Z</time>
      </trkpt>
      <trkpt lat="41.8779270" lon="-8.8368460">
        <ele>3.8</ele>
        <time>2021-05-18T13:36:37Z</time>
      </trkpt>
      <trkpt lat="41.8779320" lon="-8.8368440">
        <ele>3.8</ele>
        <time>2021-05-18T13:36:38Z</time>
      </trkpt>
      <trkpt lat="41.8779450" lon="-8.8368490">
        <ele>3.8</ele>
        <time>2021-05-18T13:36:39Z</time>
      </trkpt>
      <trkpt lat="41.8779560" lon="-8.8368490">
        <ele>3.8</ele>
        <time>2021-05-18T13:36:40Z</time>
      </trkpt>
      <trkpt lat="41.8779640" lon="-8.8368490">
        <ele>3.8</ele>
        <time>2021-05-18T13:36:41Z</time>
      </trkpt>
      <trkpt lat="41.8779770" lon="-8.8368530">
        <ele>3.7</ele>
        <time>2021-05-18T13:36:42Z</time>
      </trkpt>
      <trkpt lat="41.8779910" lon="-8.8368550">
        <ele>3.7</ele>
        <time>2021-05-18T13:36:43Z</time>
      </trkpt>
      <trkpt lat="41.8780000" lon="-8.8368670">
        <ele>3.6</ele>
        <time>2021-05-18T13:36:44Z</time>
      </trkpt>
      <trkpt lat="41.8780100" lon="-8.8368720">
        <ele>3.7</ele>
        <time>2021-05-18T13:36:45Z</time>
      </trkpt>
      <trkpt lat="41.8780190" lon="-8.8368740">
        <ele>3.7</ele>
        <time>2021-05-18T13:36:46Z</time>
      </trkpt>
      <trkpt lat="41.8780310" lon="-8.8368790">
        <ele>3.6</ele>
        <time>2021-05-18T13:36:47Z</time>
      </trkpt>
      <trkpt lat="41.8780380" lon="-8.8368850">
        <ele>3.6</ele>
        <time>2021-05-18T13:36:48Z</time>
      </trkpt>
      <trkpt lat="41.8780510" lon="-8.8368880">
        <ele>3.6</ele>
        <time>2021-05-18T13:36:49Z</time>
      </trkpt>
      <trkpt lat="41.8780700" lon="-8.8368910">
        <ele>3.6</ele>
        <time>2021-05-18T13:36:50Z</time>
      </trkpt>
      <trkpt lat="41.8780810" lon="-8.8368920">
        <ele>3.6</ele>
        <time>2021-05-18T13:36:51Z</time>
      </trkpt>
      <trkpt lat="41.8780910" lon="-8.8368970">
        <ele>3.6</ele>
        <time>2021-05-18T13:36:52Z</time>
      </trkpt>
      <trkpt lat="41.8780970" lon="-8.8369020">
        <ele>3.5</ele>
        <time>2021-05-18T13:36:53Z</time>
      </trkpt>
      <trkpt lat="41.8781030" lon="-8.8369070">
        <ele>3.5</ele>
        <time>2021-05-18T13:36:54Z</time>
      </trkpt>
      <trkpt lat="41.8781090" lon="-8.8369120">
        <ele>3.5</ele>
        <time>2021-05-18T13:36:55Z</time>
      </trkpt>
      <trkpt lat="41.8781150" lon="-8.8369170">
        <ele>3.5</ele>
        <time>2021-05-18T13:36:56Z</time>
      </trkpt>
      <trkpt lat="41.8781300" lon="-8.8369230">
        <ele>3.4</ele>
        <time>2021-05-18T13:36:57Z</time>
      </trkpt>
      <trkpt lat="41.8781370" lon="-8.8369310">
        <ele>3.4</ele>
        <time>2021-05-18T13:36:58Z</time>
      </trkpt>
      <trkpt lat="41.8781470" lon="-8.8369330">
        <ele>3.4</ele>
        <time>2021-05-18T13:36:59Z</time>
      </trkpt>
      <trkpt lat="41.8781580" lon="-8.8369350">
        <ele>3.3</ele>
        <time>2021-05-18T13:37:00Z</time>
      </trkpt>
      <trkpt lat="41.8781680" lon="-8.8369360">
        <ele>3.3</ele>
        <time>2021-05-18T13:37:01Z</time>
      </trkpt>
      <trkpt lat="41.8781760" lon="-8.8369430">
        <ele>3.3</ele>
        <time>2021-05-18T13:37:02Z</time>
      </trkpt>
      <trkpt lat="41.8781930" lon="-8.8369540">
        <ele>3.2</ele>
        <time>2021-05-18T13:37:03Z</time>
      </trkpt>
      <trkpt lat="41.8781990" lon="-8.8369570">
        <ele>3.3</ele>
        <time>2021-05-18T13:37:04Z</time>
      </trkpt>
      <trkpt lat="41.8782040" lon="-8.8369610">
        <ele>3.3</ele>
        <time>2021-05-18T13:37:05Z</time>
      </trkpt>
      <trkpt lat="41.8782090" lon="-8.8369650">
        <ele>3.3</ele>
        <time>2021-05-18T13:37:06Z</time>
      </trkpt>
      <trkpt lat="41.8782310" lon="-8.8369610">
        <ele>3.2</ele>
        <time>2021-05-18T13:37:07Z</time>
      </trkpt>
      <trkpt lat="41.8782410" lon="-8.8369560">
        <ele>3.2</ele>
        <time>2021-05-18T13:37:08Z</time>
      </trkpt>
      <trkpt lat="41.8782510" lon="-8.8369520">
        <ele>3.2</ele>
        <time>2021-05-18T13:37:09Z</time>
      </trkpt>
      <trkpt lat="41.8782540" lon="-8.8369490">
        <ele>3.1</ele>
        <time>2021-05-18T13:37:10Z</time>
      </trkpt>
      <trkpt lat="41.8782690" lon="-8.8369560">
        <ele>3.1</ele>
        <time>2021-05-18T13:37:11Z</time>
      </trkpt>
      <trkpt lat="41.8782770" lon="-8.8369550">
        <ele>3.1</ele>
        <time>2021-05-18T13:37:12Z</time>
      </trkpt>
      <trkpt lat="41.8782840" lon="-8.8369440">
        <ele>3.1</ele>
        <time>2021-05-18T13:37:13Z</time>
      </trkpt>
      <trkpt lat="41.8782950" lon="-8.8369390">
        <ele>3.0</ele>
        <time>2021-05-18T13:37:14Z</time>
      </trkpt>
      <trkpt lat="41.8783000" lon="-8.8369250">
        <ele>3.0</ele>
        <time>2021-05-18T13:37:15Z</time>
      </trkpt>
      <trkpt lat="41.8783070" lon="-8.8369200">
        <ele>3.0</ele>
        <time>2021-05-18T13:37:16Z</time>
      </trkpt>
      <trkpt lat="41.8783230" lon="-8.8369150">
        <ele>2.8</ele>
        <time>2021-05-18T13:37:17Z</time>
      </trkpt>
      <trkpt lat="41.8783350" lon="-8.8369030">
        <ele>2.8</ele>
        <time>2021-05-18T13:37:18Z</time>
      </trkpt>
      <trkpt lat="41.8783490" lon="-8.8368900">
        <ele>2.6</ele>
        <time>2021-05-18T13:37:19Z</time>
      </trkpt>
      <trkpt lat="41.8783550" lon="-8.8368840">
        <ele>2.6</ele>
        <time>2021-05-18T13:37:20Z</time>
      </trkpt>
      <trkpt lat="41.8783610" lon="-8.8368770">
        <ele>2.6</ele>
        <time>2021-05-18T13:37:21Z</time>
      </trkpt>
      <trkpt lat="41.8783670" lon="-8.8368710">
        <ele>2.6</ele>
        <time>2021-05-18T13:37:22Z</time>
      </trkpt>
      <trkpt lat="41.8783650" lon="-8.8368680">
        <ele>2.6</ele>
        <time>2021-05-18T13:37:23Z</time>
      </trkpt>
      <trkpt lat="41.8783710" lon="-8.8368590">
        <ele>2.6</ele>
        <time>2021-05-18T13:37:24Z</time>
      </trkpt>
      <trkpt lat="41.8783910" lon="-8.8368490">
        <ele>2.4</ele>
        <time>2021-05-18T13:37:25Z</time>
      </trkpt>
      <trkpt lat="41.8784000" lon="-8.8368350">
        <ele>2.4</ele>
        <time>2021-05-18T13:37:26Z</time>
      </trkpt>
      <trkpt lat="41.8784080" lon="-8.8368220">
        <ele>2.4</ele>
        <time>2021-05-18T13:37:27Z</time>
      </trkpt>
      <trkpt lat="41.8784150" lon="-8.8368100">
        <ele>2.2</ele>
        <time>2021-05-18T13:37:28Z</time>
      </trkpt>
      <trkpt lat="41.8784330" lon="-8.8368030">
        <ele>2.2</ele>
        <time>2021-05-18T13:37:29Z</time>
      </trkpt>
      <trkpt lat="41.8784440" lon="-8.8367940">
        <ele>2.2</ele>
        <time>2021-05-18T13:37:30Z</time>
      </trkpt>
      <trkpt lat="41.8784480" lon="-8.8367870">
        <ele>2.1</ele>
        <time>2021-05-18T13:37:31Z</time>
      </trkpt>
      <trkpt lat="41.8784590" lon="-8.8367820">
        <ele>2.1</ele>
        <time>2021-05-18T13:37:32Z</time>
      </trkpt>
      <trkpt lat="41.8784640" lon="-8.8367820">
        <ele>2.1</ele>
        <time>2021-05-18T13:37:33Z</time>
      </trkpt>
      <trkpt lat="41.8784640" lon="-8.8367790">
        <ele>2.1</ele>
        <time>2021-05-18T13:37:34Z</time>
      </trkpt>
      <trkpt lat="41.8784650" lon="-8.8367770">
        <ele>2.1</ele>
        <time>2021-05-18T13:37:35Z</time>
      </trkpt>
      <trkpt lat="41.8784760" lon="-8.8367720">
        <ele>2.1</ele>
        <time>2021-05-18T13:37:36Z</time>
      </trkpt>
      <trkpt lat="41.8784820" lon="-8.8367690">
        <ele>1.9</ele>
        <time>2021-05-18T13:37:37Z</time>
      </trkpt>
      <trkpt lat="41.8784870" lon="-8.8367650">
        <ele>1.9</ele>
        <time>2021-05-18T13:37:38Z</time>
      </trkpt>
      <trkpt lat="41.8784980" lon="-8.8367550">
        <ele>1.9</ele>
        <time>2021-05-18T13:37:39Z</time>
      </trkpt>
      <trkpt lat="41.8785030" lon="-8.8367530">
        <ele>1.9</ele>
        <time>2021-05-18T13:37:40Z</time>
      </trkpt>
      <trkpt lat="41.8785140" lon="-8.8367510">
        <ele>1.7</ele>
        <time>2021-05-18T13:37:41Z</time>
      </trkpt>
      <trkpt lat="41.8785310" lon="-8.8367460">
        <ele>1.7</ele>
        <time>2021-05-18T13:37:42Z</time>
      </trkpt>
      <trkpt lat="41.8785370" lon="-8.8367400">
        <ele>1.7</ele>
        <time>2021-05-18T13:37:43Z</time>
      </trkpt>
      <trkpt lat="41.8785430" lon="-8.8367310">
        <ele>1.5</ele>
        <time>2021-05-18T13:37:44Z</time>
      </trkpt>
      <trkpt lat="41.8785440" lon="-8.8367230">
        <ele>1.5</ele>
        <time>2021-05-18T13:37:45Z</time>
      </trkpt>
      <trkpt lat="41.8785510" lon="-8.8367110">
        <ele>1.5</ele>
        <time>2021-05-18T13:37:46Z</time>
      </trkpt>
      <trkpt lat="41.8785510" lon="-8.8367120">
        <ele>1.5</ele>
        <time>2021-05-18T13:37:47Z</time>
      </trkpt>
      <trkpt lat="41.8785510" lon="-8.8367070">
        <ele>1.5</ele>
        <time>2021-05-18T13:37:48Z</time>
      </trkpt>
      <trkpt lat="41.8785590" lon="-8.8366920">
        <ele>1.5</ele>
        <time>2021-05-18T13:37:49Z</time>
      </trkpt>
      <trkpt lat="41.8785670" lon="-8.8366890">
        <ele>1.5</ele>
        <time>2021-05-18T13:37:50Z</time>
      </trkpt>
      <trkpt lat="41.8785770" lon="-8.8366880">
        <ele>1.3</ele>
        <time>2021-05-18T13:37:51Z</time>
      </trkpt>
      <trkpt lat="41.8785830" lon="-8.8366860">
        <ele>1.3</ele>
        <time>2021-05-18T13:37:52Z</time>
      </trkpt>
      <trkpt lat="41.8785920" lon="-8.8366840">
        <ele>1.3</ele>
        <time>2021-05-18T13:37:53Z</time>
      </trkpt>
      <trkpt lat="41.8786000" lon="-8.8366840">
        <ele>1.3</ele>
        <time>2021-05-18T13:37:54Z</time>
      </trkpt>
      <trkpt lat="41.8786080" lon="-8.8366840">
        <ele>1.2</ele>
        <time>2021-05-18T13:37:55Z</time>
      </trkpt>
      <trkpt lat="41.8786120" lon="-8.8366870">
        <ele>1.2</ele>
        <time>2021-05-18T13:37:56Z</time>
      </trkpt>
      <trkpt lat="41.8786190" lon="-8.8366880">
        <ele>1.2</ele>
        <time>2021-05-18T13:37:57Z</time>
      </trkpt>
      <trkpt lat="41.8786290" lon="-8.8366890">
        <ele>1.2</ele>
        <time>2021-05-18T13:37:58Z</time>
      </trkpt>
      <trkpt lat="41.8786350" lon="-8.8366900">
        <ele>1.2</ele>
        <time>2021-05-18T13:37:59Z</time>
      </trkpt>
      <trkpt lat="41.8786480" lon="-8.8366920">
        <ele>1.0</ele>
        <time>2021-05-18T13:38:00Z</time>
      </trkpt>
      <trkpt lat="41.8786500" lon="-8.8366940">
        <ele>1.0</ele>
        <time>2021-05-18T13:38:01Z</time>
      </trkpt>
      <trkpt lat="41.8786670" lon="-8.8366960">
        <ele>1.0</ele>
        <time>2021-05-18T13:38:02Z</time>
      </trkpt>
      <trkpt lat="41.8786720" lon="-8.8366970">
        <ele>0.8</ele>
        <time>2021-05-18T13:38:03Z</time>
      </trkpt>
      <trkpt lat="41.8786840" lon="-8.8366930">
        <ele>0.8</ele>
        <time>2021-05-18T13:38:04Z</time>
      </trkpt>
      <trkpt lat="41.8786920" lon="-8.8366880">
        <ele>0.8</ele>
        <time>2021-05-18T13:38:05Z</time>
      </trkpt>
      <trkpt lat="41.8786990" lon="-8.8366870">
        <ele>0.8</ele>
        <time>2021-05-18T13:38:06Z</time>
      </trkpt>
      <trkpt lat="41.8787090" lon="-8.8366850">
        <ele>0.7</ele>
        <time>2021-05-18T13:38:07Z</time>
      </trkpt>
      <trkpt lat="41.8787130" lon="-8.8366820">
        <ele>0.7</ele>
        <time>2021-05-18T13:38:08Z</time>
      </trkpt>
      <trkpt lat="41.8787220" lon="-8.8366830">
        <ele>0.7</ele>
        <time>2021-05-18T13:38:09Z</time>
      </trkpt>
      <trkpt lat="41.8787290" lon="-8.8366840">
        <ele>0.7</ele>
        <time>2021-05-18T13:38:10Z</time>
      </trkpt>
      <trkpt lat="41.8787430" lon="-8.8366820">
        <ele>0.5</ele>
        <time>2021-05-18T13:38:11Z</time>
      </trkpt>
      <trkpt lat="41.8787500" lon="-8.8366810">
        <ele>0.5</ele>
        <time>2021-05-18T13:38:12Z</time>
      </trkpt>
      <trkpt lat="41.8787580" lon="-8.8366800">
        <ele>0.5</ele>
        <time>2021-05-18T13:38:13Z</time>
      </trkpt>
      <trkpt lat="41.8787730" lon="-8.8366790">
        <ele>0.4</ele>
        <time>2021-05-18T13:38:14Z</time>
      </trkpt>
      <trkpt lat="41.8787840" lon="-8.8366700">
        <ele>0.4</ele>
        <time>2021-05-18T13:38:15Z</time>
      </trkpt>
      <trkpt lat="41.8787830" lon="-8.8366620">
        <ele>0.4</ele>
        <time>2021-05-18T13:38:16Z</time>
      </trkpt>
      <trkpt lat="41.8787910" lon="-8.8366520">
        <ele>0.4</ele>
        <time>2021-05-18T13:38:17Z</time>
      </trkpt>
      <trkpt lat="41.8787960" lon="-8.8366370">
        <ele>0.2</ele>
        <time>2021-05-18T13:38:18Z</time>
      </trkpt>
      <trkpt lat="41.8788030" lon="-8.8366170">
        <ele>0.2</ele>
        <time>2021-05-18T13:38:19Z</time>
      </trkpt>
      <trkpt lat="41.8788040" lon="-8.8366040">
        <ele>0.2</ele>
        <time>2021-05-18T13:38:20Z</time>
      </trkpt>
      <trkpt lat="41.8788050" lon="-8.8365960">
        <ele>0.2</ele>
        <time>2021-05-18T13:38:21Z</time>
      </trkpt>
      <trkpt lat="41.8788100" lon="-8.8365830">
        <ele>0.2</ele>
        <time>2021-05-18T13:38:22Z</time>
      </trkpt>
      <trkpt lat="41.8788170" lon="-8.8365770">
        <ele>0.2</ele>
        <time>2021-05-18T13:38:23Z</time>
      </trkpt>
      <trkpt lat="41.8788190" lon="-8.8365800">
        <ele>0.2</ele>
        <time>2021-05-18T13:38:24Z</time>
      </trkpt>
      <trkpt lat="41.8788240" lon="-8.8365750">
        <ele>0.2</ele>
        <time>2021-05-18T13:38:25Z</time>
      </trkpt>
      <trkpt lat="41.8788350" lon="-8.8365690">
        <ele>0.1</ele>
        <time>2021-05-18T13:38:26Z</time>
      </trkpt>
      <trkpt lat="41.8788370" lon="-8.8365670">
        <ele>0.1</ele>
        <time>2021-05-18T13:38:27Z</time>
      </trkpt>
      <trkpt lat="41.8788530" lon="-8.8365620">
        <ele>0.1</ele>
        <time>2021-05-18T13:38:28Z</time>
      </trkpt>
      <trkpt lat="41.8788650" lon="-8.8365600">
        <ele>-0.1</ele>
        <time>2021-05-18T13:38:29Z</time>
      </trkpt>
      <trkpt lat="41.8788750" lon="-8.8365580">
        <ele>-0.1</ele>
        <time>2021-05-18T13:38:30Z</time>
      </trkpt>
      <trkpt lat="41.8788880" lon="-8.8365600">
        <ele>-0.1</ele>
        <time>2021-05-18T13:38:31Z</time>
      </trkpt>
      <trkpt lat="41.8788990" lon="-8.8365510">
        <ele>-0.2</ele>
        <time>2021-05-18T13:38:32Z</time>
      </trkpt>
      <trkpt lat="41.8789070" lon="-8.8365510">
        <ele>-0.2</ele>
        <time>2021-05-18T13:38:33Z</time>
      </trkpt>
      <trkpt lat="41.8789160" lon="-8.8365580">
        <ele>-0.2</ele>
        <time>2021-05-18T13:38:34Z</time>
      </trkpt>
      <trkpt lat="41.8789200" lon="-8.8365630">
        <ele>-0.2</ele>
        <time>2021-05-18T13:38:35Z</time>
      </trkpt>
      <trkpt lat="41.8789240" lon="-8.8365660">
        <ele>-0.3</ele>
        <time>2021-05-18T13:38:36Z</time>
      </trkpt>
      <trkpt lat="41.8789340" lon="-8.8365700">
        <ele>-0.3</ele>
        <time>2021-05-18T13:38:37Z</time>
      </trkpt>
      <trkpt lat="41.8789410" lon="-8.8365650">
        <ele>-0.3</ele>
        <time>2021-05-18T13:38:38Z</time>
      </trkpt>
      <trkpt lat="41.8789530" lon="-8.8365590">
        <ele>-0.3</ele>
        <time>2021-05-18T13:38:39Z</time>
      </trkpt>
      <trkpt lat="41.8789640" lon="-8.8365500">
        <ele>-0.3</ele>
        <time>2021-05-18T13:38:40Z</time>
      </trkpt>
      <trkpt lat="41.8789720" lon="-8.8365460">
        <ele>-0.3</ele>
        <time>2021-05-18T13:38:41Z</time>
      </trkpt>
      <trkpt lat="41.8789800" lon="-8.8365430">
        <ele>-0.3</ele>
        <time>2021-05-18T13:38:42Z</time>
      </trkpt>
      <trkpt lat="41.8789880" lon="-8.8365390">
        <ele>-0.4</ele>
        <time>2021-05-18T13:38:43Z</time>
      </trkpt>
      <trkpt lat="41.8789980" lon="-8.8365390">
        <ele>-0.4</ele>
        <time>2021-05-18T13:38:44Z</time>
      </trkpt>
      <trkpt lat="41.8790050" lon="-8.8365360">
        <ele>-0.4</ele>
        <time>2021-05-18T13:38:45Z</time>
      </trkpt>
      <trkpt lat="41.8790200" lon="-8.8365320">
        <ele>-0.4</ele>
        <time>2021-05-18T13:38:46Z</time>
      </trkpt>
      <trkpt lat="41.8790300" lon="-8.8365190">
        <ele>-0.4</ele>
        <time>2021-05-18T13:38:47Z</time>
      </trkpt>
      <trkpt lat="41.8790310" lon="-8.8365100">
        <ele>-0.4</ele>
        <time>2021-05-18T13:38:48Z</time>
      </trkpt>
      <trkpt lat="41.8790330" lon="-8.8365000">
        <ele>-0.4</ele>
        <time>2021-05-18T13:38:49Z</time>
      </trkpt>
      <trkpt lat="41.8790340" lon="-8.8364910">
        <ele>-0.4</ele>
        <time>2021-05-18T13:38:50Z</time>
      </trkpt>
      <trkpt lat="41.8790360" lon="-8.8364820">
        <ele>-0.3</ele>
        <time>2021-05-18T13:38:51Z</time>
      </trkpt>
      <trkpt lat="41.8790380" lon="-8.8364690">
        <ele>-0.3</ele>
        <time>2021-05-18T13:38:52Z</time>
      </trkpt>
      <trkpt lat="41.8790380" lon="-8.8364610">
        <ele>-0.3</ele>
        <time>2021-05-18T13:38:53Z</time>
      </trkpt>
      <trkpt lat="41.8790400" lon="-8.8364500">
        <ele>-0.3</ele>
        <time>2021-05-18T13:38:54Z</time>
      </trkpt>
      <trkpt lat="41.8790400" lon="-8.8364500">
        <ele>-0.3</ele>
        <time>2021-05-18T13:38:55Z</time>
      </trkpt>
      <trkpt lat="41.8790450" lon="-8.8364360">
        <ele>-0.2</ele>
        <time>2021-05-18T13:38:56Z</time>
      </trkpt>
      <trkpt lat="41.8790470" lon="-8.8364300">
        <ele>-0.2</ele>
        <time>2021-05-18T13:38:57Z</time>
      </trkpt>
      <trkpt lat="41.8790530" lon="-8.8364140">
        <ele>-0.3</ele>
        <time>2021-05-18T13:38:58Z</time>
      </trkpt>
      <trkpt lat="41.8790580" lon="-8.8364020">
        <ele>-0.3</ele>
        <time>2021-05-18T13:38:59Z</time>
      </trkpt>
      <trkpt lat="41.8790640" lon="-8.8363860">
        <ele>-0.2</ele>
        <time>2021-05-18T13:39:00Z</time>
      </trkpt>
      <trkpt lat="41.8790670" lon="-8.8363800">
        <ele>-0.2</ele>
        <time>2021-05-18T13:39:01Z</time>
      </trkpt>
      <trkpt lat="41.8790750" lon="-8.8363810">
        <ele>-0.2</ele>
        <time>2021-05-18T13:39:02Z</time>
      </trkpt>
      <trkpt lat="41.8790850" lon="-8.8363770">
        <ele>-0.3</ele>
        <time>2021-05-18T13:39:03Z</time>
      </trkpt>
      <trkpt lat="41.8790890" lon="-8.8363750">
        <ele>-0.3</ele>
        <time>2021-05-18T13:39:04Z</time>
      </trkpt>
      <trkpt lat="41.8790890" lon="-8.8363750">
        <ele>-0.3</ele>
        <time>2021-05-18T13:39:05Z</time>
      </trkpt>
      <trkpt lat="41.8790890" lon="-8.8363750">
        <ele>-0.3</ele>
        <time>2021-05-18T13:39:06Z</time>
      </trkpt>
      <trkpt lat="41.8790890" lon="-8.8363750">
        <ele>-0.3</ele>
        <time>2021-05-18T13:39:07Z</time>
      </trkpt>
      <trkpt lat="41.8790890" lon="-8.8363750">
        <ele>-0.3</ele>
        <time>2021-05-18T13:39:08Z</time>
      </trkpt>
      <trkpt lat="41.8790890" lon="-8.8363750">
        <ele>-0.3</ele>
        <time>2021-05-18T13:39:09Z</time>
      </trkpt>
      <trkpt lat="41.8790890" lon="-8.8363750">
        <ele>-0.3</ele>
        <time>2021-05-18T13:39:10Z</time>
      </trkpt>
      <trkpt lat="41.8790890" lon="-8.8363750">
        <ele>-0.3</ele>
        <time>2021-05-18T13:39:11Z</time>
      </trkpt>
      <trkpt lat="41.8790890" lon="-8.8363750">
        <ele>-0.3</ele>
        <time>2021-05-18T13:39:12Z</time>
      </trkpt>
      <trkpt lat="41.8790890" lon="-8.8363750">
        <ele>-0.3</ele>
        <time>2021-05-18T13:39:13Z</time>
      </trkpt>
      <trkpt lat="41.8790880" lon="-8.8363750">
        <ele>-0.3</ele>
        <time>2021-05-18T13:39:14Z</time>
      </trkpt>
      <trkpt lat="41.8790880" lon="-8.8363750">
        <ele>-0.3</ele>
        <time>2021-05-18T13:39:15Z</time>
      </trkpt>
      <trkpt lat="41.8790880" lon="-8.8363750">
        <ele>-0.3</ele>
        <time>2021-05-18T13:39:16Z</time>
      </trkpt>
      <trkpt lat="41.8790880" lon="-8.8363750">
        <ele>-0.3</ele>
        <time>2021-05-18T13:39:17Z</time>
      </trkpt>
      <trkpt lat="41.8790880" lon="-8.8363740">
        <ele>-0.3</ele>
        <time>2021-05-18T13:39:18Z</time>
      </trkpt>
      <trkpt lat="41.8790880" lon="-8.8363740">
        <ele>-0.3</ele>
        <time>2021-05-18T13:39:19Z</time>
      </trkpt>
      <trkpt lat="41.8790880" lon="-8.8363740">
        <ele>-0.3</ele>
        <time>2021-05-18T13:39:20Z</time>
      </trkpt>
      <trkpt lat="41.8790880" lon="-8.8363740">
        <ele>-0.3</ele>
        <time>2021-05-18T13:39:21Z</time>
      </trkpt>
      <trkpt lat="41.8790880" lon="-8.8363740">
        <ele>-0.3</ele>
        <time>2021-05-18T13:39:22Z</time>
      </trkpt>
      <trkpt lat="41.8790880" lon="-8.8363740">
        <ele>-0.3</ele>
        <time>2021-05-18T13:39:23Z</time>
      </trkpt>
      <trkpt lat="41.8790880" lon="-8.8363740">
        <ele>-0.3</ele>
        <time>2021-05-18T13:39:24Z</time>
      </trkpt>
      <trkpt lat="41.8790880" lon="-8.8363740">
        <ele>-0.3</ele>
        <time>2021-05-18T13:39:25Z</time>
      </trkpt>
      <trkpt lat="41.8790880" lon="-8.8363740">
        <ele>-0.3</ele>
        <time>2021-05-18T13:39:26Z</time>
      </trkpt>
      <trkpt lat="41.8790880" lon="-8.8363740">
        <ele>-0.3</ele>
        <time>2021-05-18T13:39:27Z</time>
      </trkpt>
      <trkpt lat="41.8790880" lon="-8.8363740">
        <ele>-0.3</ele>
        <time>2021-05-18T13:39:28Z</time>
      </trkpt>
      <trkpt lat="41.8790880" lon="-8.8363740">
        <ele>-0.3</ele>
        <time>2021-05-18T13:39:29Z</time>
      </trkpt>
      <trkpt lat="41.8790880" lon="-8.8363740">
        <ele>-0.3</ele>
        <time>2021-05-18T13:39:30Z</time>
      </trkpt>
      <trkpt lat="41.8790880" lon="-8.8363740">
        <ele>-0.3</ele>
        <time>2021-05-18T13:39:31Z</time>
      </trkpt>
      <trkpt lat="41.8790880" lon="-8.8363740">
        <ele>-0.3</ele>
        <time>2021-05-18T13:39:32Z</time>
      </trkpt>
      <trkpt lat="41.8790880" lon="-8.8363740">
        <ele>-0.3</ele>
        <time>2021-05-18T13:39:33Z</time>
      </trkpt>
      <trkpt lat="41.8790880" lon="-8.8363740">
        <ele>-0.3</ele>
        <time>2021-05-18T13:39:34Z</time>
      </trkpt>
      <trkpt lat="41.8790870" lon="-8.8363740">
        <ele>-0.3</ele>
        <time>2021-05-18T13:39:35Z</time>
      </trkpt>
      <trkpt lat="41.8790870" lon="-8.8363740">
        <ele>-0.3</ele>
        <time>2021-05-18T13:39:36Z</time>
      </trkpt>
      <trkpt lat="41.8790870" lon="-8.8363740">
        <ele>-0.3</ele>
        <time>2021-05-18T13:39:37Z</time>
      </trkpt>
      <trkpt lat="41.8790870" lon="-8.8363740">
        <ele>-0.3</ele>
        <time>2021-05-18T13:39:38Z</time>
      </trkpt>
      <trkpt lat="41.8790870" lon="-8.8363740">
        <ele>-0.3</ele>
        <time>2021-05-18T13:39:39Z</time>
      </trkpt>
      <trkpt lat="41.8790870" lon="-8.8363740">
        <ele>-0.3</ele>
        <time>2021-05-18T13:39:40Z</time>
      </trkpt>
      <trkpt lat="41.8790870" lon="-8.8363740">
        <ele>-0.3</ele>
        <time>2021-05-18T13:39:41Z</time>
      </trkpt>
      <trkpt lat="41.8790870" lon="-8.8363740">
        <ele>-0.3</ele>
        <time>2021-05-18T13:39:42Z</time>
      </trkpt>
      <trkpt lat="41.8790870" lon="-8.8363740">
        <ele>-0.3</ele>
        <time>2021-05-18T13:39:43Z</time>
      </trkpt>
      <trkpt lat="41.8790870" lon="-8.8363740">
        <ele>-0.3</ele>
        <time>2021-05-18T13:39:44Z</time>
      </trkpt>
      <trkpt lat="41.8790870" lon="-8.8363740">
        <ele>-0.3</ele>
        <time>2021-05-18T13:39:45Z</time>
      </trkpt>
      <trkpt lat="41.8790870" lon="-8.8363740">
        <ele>-0.3</ele>
        <time>2021-05-18T13:39:46Z</time>
      </trkpt>
      <trkpt lat="41.8790870" lon="-8.8363740">
        <ele>-0.3</ele>
        <time>2021-05-18T13:39:47Z</time>
      </trkpt>
      <trkpt lat="41.8790870" lon="-8.8363730">
        <ele>-0.3</ele>
        <time>2021-05-18T13:39:48Z</time>
      </trkpt>
      <trkpt lat="41.8790870" lon="-8.8363730">
        <ele>-0.3</ele>
        <time>2021-05-18T13:39:49Z</time>
      </trkpt>
      <trkpt lat="41.8790870" lon="-8.8363730">
        <ele>-0.3</ele>
        <time>2021-05-18T13:39:50Z</time>
      </trkpt>
      <trkpt lat="41.8790870" lon="-8.8363730">
        <ele>-0.3</ele>
        <time>2021-05-18T13:39:51Z</time>
      </trkpt>
      <trkpt lat="41.8790870" lon="-8.8363730">
        <ele>-0.3</ele>
        <time>2021-05-18T13:39:52Z</time>
      </trkpt>
      <trkpt lat="41.8790870" lon="-8.8363730">
        <ele>-0.3</ele>
        <time>2021-05-18T13:39:53Z</time>
      </trkpt>
      <trkpt lat="41.8790870" lon="-8.8363730">
        <ele>-0.3</ele>
        <time>2021-05-18T13:39:54Z</time>
      </trkpt>
      <trkpt lat="41.8790870" lon="-8.8363730">
        <ele>-0.3</ele>
        <time>2021-05-18T13:39:55Z</time>
      </trkpt>
      <trkpt lat="41.8790860" lon="-8.8363730">
        <ele>-0.3</ele>
        <time>2021-05-18T13:39:56Z</time>
      </trkpt>
      <trkpt lat="41.8790860" lon="-8.8363730">
        <ele>-0.3</ele>
        <time>2021-05-18T13:39:57Z</time>
      </trkpt>
      <trkpt lat="41.8790860" lon="-8.8363730">
        <ele>-0.3</ele>
        <time>2021-05-18T13:39:58Z</time>
      </trkpt>
      <trkpt lat="41.8790860" lon="-8.8363730">
        <ele>-0.3</ele>
        <time>2021-05-18T13:39:59Z</time>
      </trkpt>
      <trkpt lat="41.8790860" lon="-8.8363730">
        <ele>-0.3</ele>
        <time>2021-05-18T13:40:00Z</time>
      </trkpt>
      <trkpt lat="41.8790860" lon="-8.8363730">
        <ele>-0.3</ele>
        <time>2021-05-18T13:40:01Z</time>
      </trkpt>
      <trkpt lat="41.8790860" lon="-8.8363730">
        <ele>-0.3</ele>
        <time>2021-05-18T13:40:02Z</time>
      </trkpt>
      <trkpt lat="41.8790860" lon="-8.8363730">
        <ele>-0.3</ele>
        <time>2021-05-18T13:40:03Z</time>
      </trkpt>
      <trkpt lat="41.8790860" lon="-8.8363730">
        <ele>-0.3</ele>
        <time>2021-05-18T13:40:04Z</time>
      </trkpt>
      <trkpt lat="41.8790860" lon="-8.8363730">
        <ele>-0.3</ele>
        <time>2021-05-18T13:40:05Z</time>
      </trkpt>
      <trkpt lat="41.8790860" lon="-8.8363730">
        <ele>-0.3</ele>
        <time>2021-05-18T13:40:06Z</time>
      </trkpt>
      <trkpt lat="41.8790860" lon="-8.8363730">
        <ele>-0.3</ele>
        <time>2021-05-18T13:40:07Z</time>
      </trkpt>
      <trkpt lat="41.8790860" lon="-8.8363730">
        <ele>-0.3</ele>
        <time>2021-05-18T13:40:08Z</time>
      </trkpt>
      <trkpt lat="41.8790860" lon="-8.8363730">
        <ele>-0.3</ele>
        <time>2021-05-18T13:40:09Z</time>
      </trkpt>
      <trkpt lat="41.8790860" lon="-8.8363730">
        <ele>-0.3</ele>
        <time>2021-05-18T13:40:10Z</time>
      </trkpt>
      <trkpt lat="41.8790860" lon="-8.8363730">
        <ele>-0.3</ele>
        <time>2021-05-18T13:40:11Z</time>
      </trkpt>
      <trkpt lat="41.8790860" lon="-8.8363730">
        <ele>-0.3</ele>
        <time>2021-05-18T13:40:12Z</time>
      </trkpt>
      <trkpt lat="41.8790860" lon="-8.8363730">
        <ele>-0.3</ele>
        <time>2021-05-18T13:40:13Z</time>
      </trkpt>
      <trkpt lat="41.8790860" lon="-8.8363730">
        <ele>-0.3</ele>
        <time>2021-05-18T13:40:14Z</time>
      </trkpt>
      <trkpt lat="41.8790860" lon="-8.8363730">
        <ele>-0.3</ele>
        <time>2021-05-18T13:40:15Z</time>
      </trkpt>
      <trkpt lat="41.8790860" lon="-8.8363730">
        <ele>-0.3</ele>
        <time>2021-05-18T13:40:16Z</time>
      </trkpt>
      <trkpt lat="41.8790850" lon="-8.8363730">
        <ele>-0.3</ele>
        <time>2021-05-18T13:40:17Z</time>
      </trkpt>
      <trkpt lat="41.8790850" lon="-8.8363720">
        <ele>-0.3</ele>
        <time>2021-05-18T13:40:18Z</time>
      </trkpt>
      <trkpt lat="41.8790850" lon="-8.8363720">
        <ele>-0.3</ele>
        <time>2021-05-18T13:40:19Z</time>
      </trkpt>
      <trkpt lat="41.8790850" lon="-8.8363720">
        <ele>-0.3</ele>
        <time>2021-05-18T13:40:20Z</time>
      </trkpt>
      <trkpt lat="41.8790850" lon="-8.8363720">
        <ele>-0.3</ele>
        <time>2021-05-18T13:40:21Z</time>
      </trkpt>
      <trkpt lat="41.8790850" lon="-8.8363720">
        <ele>-0.3</ele>
        <time>2021-05-18T13:40:22Z</time>
      </trkpt>
      <trkpt lat="41.8790850" lon="-8.8363720">
        <ele>-0.3</ele>
        <time>2021-05-18T13:40:23Z</time>
      </trkpt>
      <trkpt lat="41.8790850" lon="-8.8363720">
        <ele>-0.3</ele>
        <time>2021-05-18T13:40:24Z</time>
      </trkpt>
      <trkpt lat="41.8790850" lon="-8.8363720">
        <ele>-0.3</ele>
        <time>2021-05-18T13:40:25Z</time>
      </trkpt>
      <trkpt lat="41.8790850" lon="-8.8363720">
        <ele>-0.3</ele>
        <time>2021-05-18T13:40:26Z</time>
      </trkpt>
      <trkpt lat="41.8790850" lon="-8.8363720">
        <ele>-0.3</ele>
        <time>2021-05-18T13:40:27Z</time>
      </trkpt>
      <trkpt lat="41.8790850" lon="-8.8363720">
        <ele>-0.3</ele>
        <time>2021-05-18T13:40:28Z</time>
      </trkpt>
      <trkpt lat="41.8790850" lon="-8.8363720">
        <ele>-0.3</ele>
        <time>2021-05-18T13:40:29Z</time>
      </trkpt>
      <trkpt lat="41.8790850" lon="-8.8363720">
        <ele>-0.3</ele>
        <time>2021-05-18T13:40:30Z</time>
      </trkpt>
      <trkpt lat="41.8790850" lon="-8.8363720">
        <ele>-0.3</ele>
        <time>2021-05-18T13:40:31Z</time>
      </trkpt>
      <trkpt lat="41.8790850" lon="-8.8363720">
        <ele>-0.3</ele>
        <time>2021-05-18T13:40:32Z</time>
      </trkpt>
      <trkpt lat="41.8790850" lon="-8.8363720">
        <ele>-0.3</ele>
        <time>2021-05-18T13:40:33Z</time>
      </trkpt>
      <trkpt lat="41.8790850" lon="-8.8363720">
        <ele>-0.3</ele>
        <time>2021-05-18T13:40:34Z</time>
      </trkpt>
      <trkpt lat="41.8790850" lon="-8.8363720">
        <ele>-0.3</ele>
        <time>2021-05-18T13:40:35Z</time>
      </trkpt>
      <trkpt lat="41.8790850" lon="-8.8363720">
        <ele>-0.3</ele>
        <time>2021-05-18T13:40:36Z</time>
      </trkpt>
      <trkpt lat="41.8790850" lon="-8.8363720">
        <ele>-0.3</ele>
        <time>2021-05-18T13:40:37Z</time>
      </trkpt>
      <trkpt lat="41.8790850" lon="-8.8363720">
        <ele>-0.3</ele>
        <time>2021-05-18T13:40:38Z</time>
      </trkpt>
      <trkpt lat="41.8790840" lon="-8.8363720">
        <ele>-0.3</ele>
        <time>2021-05-18T13:40:39Z</time>
      </trkpt>
      <trkpt lat="41.8790840" lon="-8.8363720">
        <ele>-0.3</ele>
        <time>2021-05-18T13:40:40Z</time>
      </trkpt>
      <trkpt lat="41.8790840" lon="-8.8363720">
        <ele>-0.3</ele>
        <time>2021-05-18T13:40:41Z</time>
      </trkpt>
      <trkpt lat="41.8790840" lon="-8.8363720">
        <ele>-0.3</ele>
        <time>2021-05-18T13:40:42Z</time>
      </trkpt>
      <trkpt lat="41.8790840" lon="-8.8363720">
        <ele>-0.3</ele>
        <time>2021-05-18T13:40:43Z</time>
      </trkpt>
      <trkpt lat="41.8790840" lon="-8.8363720">
        <ele>-0.3</ele>
        <time>2021-05-18T13:40:44Z</time>
      </trkpt>
      <trkpt lat="41.8790840" lon="-8.8363720">
        <ele>-0.3</ele>
        <time>2021-05-18T13:40:45Z</time>
      </trkpt>
      <trkpt lat="41.8790840" lon="-8.8363720">
        <ele>-0.3</ele>
        <time>2021-05-18T13:40:46Z</time>
      </trkpt>
      <trkpt lat="41.8790840" lon="-8.8363720">
        <ele>-0.3</ele>
        <time>2021-05-18T13:40:47Z</time>
      </trkpt>
      <trkpt lat="41.8790840" lon="-8.8363710">
        <ele>-0.3</ele>
        <time>2021-05-18T13:40:48Z</time>
      </trkpt>
      <trkpt lat="41.8790840" lon="-8.8363710">
        <ele>-0.3</ele>
        <time>2021-05-18T13:40:49Z</time>
      </trkpt>
      <trkpt lat="41.8790840" lon="-8.8363710">
        <ele>-0.3</ele>
        <time>2021-05-18T13:40:50Z</time>
      </trkpt>
      <trkpt lat="41.8790840" lon="-8.8363710">
        <ele>-0.3</ele>
        <time>2021-05-18T13:40:51Z</time>
      </trkpt>
      <trkpt lat="41.8790840" lon="-8.8363710">
        <ele>-0.3</ele>
        <time>2021-05-18T13:40:52Z</time>
      </trkpt>
      <trkpt lat="41.8790840" lon="-8.8363710">
        <ele>-0.3</ele>
        <time>2021-05-18T13:40:53Z</time>
      </trkpt>
      <trkpt lat="41.8790840" lon="-8.8363710">
        <ele>-0.3</ele>
        <time>2021-05-18T13:40:54Z</time>
      </trkpt>
      <trkpt lat="41.8790840" lon="-8.8363710">
        <ele>-0.3</ele>
        <time>2021-05-18T13:40:55Z</time>
      </trkpt>
      <trkpt lat="41.8790840" lon="-8.8363710">
        <ele>-0.3</ele>
        <time>2021-05-18T13:40:56Z</time>
      </trkpt>
      <trkpt lat="41.8790840" lon="-8.8363710">
        <ele>-0.3</ele>
        <time>2021-05-18T13:40:57Z</time>
      </trkpt>
      <trkpt lat="41.8790840" lon="-8.8363710">
        <ele>-0.3</ele>
        <time>2021-05-18T13:40:58Z</time>
      </trkpt>
      <trkpt lat="41.8790840" lon="-8.8363710">
        <ele>-0.3</ele>
        <time>2021-05-18T13:40:59Z</time>
      </trkpt>
      <trkpt lat="41.8790830" lon="-8.8363710">
        <ele>-0.2</ele>
        <time>2021-05-18T13:41:00Z</time>
      </trkpt>
      <trkpt lat="41.8790830" lon="-8.8363710">
        <ele>-0.2</ele>
        <time>2021-05-18T13:41:01Z</time>
      </trkpt>
      <trkpt lat="41.8790830" lon="-8.8363710">
        <ele>-0.2</ele>
        <time>2021-05-18T13:41:02Z</time>
      </trkpt>
      <trkpt lat="41.8790830" lon="-8.8363710">
        <ele>-0.2</ele>
        <time>2021-05-18T13:41:03Z</time>
      </trkpt>
      <trkpt lat="41.8790830" lon="-8.8363710">
        <ele>-0.2</ele>
        <time>2021-05-18T13:41:04Z</time>
      </trkpt>
      <trkpt lat="41.8790830" lon="-8.8363710">
        <ele>-0.2</ele>
        <time>2021-05-18T13:41:05Z</time>
      </trkpt>
      <trkpt lat="41.8790830" lon="-8.8363710">
        <ele>-0.2</ele>
        <time>2021-05-18T13:41:06Z</time>
      </trkpt>
      <trkpt lat="41.8790830" lon="-8.8363710">
        <ele>-0.2</ele>
        <time>2021-05-18T13:41:07Z</time>
      </trkpt>
      <trkpt lat="41.8790830" lon="-8.8363710">
        <ele>-0.2</ele>
        <time>2021-05-18T13:41:08Z</time>
      </trkpt>
      <trkpt lat="41.8790830" lon="-8.8363710">
        <ele>-0.2</ele>
        <time>2021-05-18T13:41:09Z</time>
      </trkpt>
      <trkpt lat="41.8790830" lon="-8.8363710">
        <ele>-0.2</ele>
        <time>2021-05-18T13:41:10Z</time>
      </trkpt>
      <trkpt lat="41.8790830" lon="-8.8363710">
        <ele>-0.2</ele>
        <time>2021-05-18T13:41:11Z</time>
      </trkpt>
      <trkpt lat="41.8790830" lon="-8.8363710">
        <ele>-0.2</ele>
        <time>2021-05-18T13:41:12Z</time>
      </trkpt>
      <trkpt lat="41.8790830" lon="-8.8363710">
        <ele>-0.2</ele>
        <time>2021-05-18T13:41:13Z</time>
      </trkpt>
      <trkpt lat="41.8790830" lon="-8.8363710">
        <ele>-0.2</ele>
        <time>2021-05-18T13:41:14Z</time>
      </trkpt>
      <trkpt lat="41.8790830" lon="-8.8363710">
        <ele>-0.2</ele>
        <time>2021-05-18T13:41:15Z</time>
      </trkpt>
      <trkpt lat="41.8790830" lon="-8.8363710">
        <ele>-0.2</ele>
        <time>2021-05-18T13:41:16Z</time>
      </trkpt>
      <trkpt lat="41.8790830" lon="-8.8363710">
        <ele>-0.2</ele>
        <time>2021-05-18T13:41:17Z</time>
      </trkpt>
      <trkpt lat="41.8790830" lon="-8.8363700">
        <ele>-0.2</ele>
        <time>2021-05-18T13:41:18Z</time>
      </trkpt>
      <trkpt lat="41.8790830" lon="-8.8363700">
        <ele>-0.2</ele>
        <time>2021-05-18T13:41:19Z</time>
      </trkpt>
      <trkpt lat="41.8790830" lon="-8.8363700">
        <ele>-0.2</ele>
        <time>2021-05-18T13:41:20Z</time>
      </trkpt>
      <trkpt lat="41.8790820" lon="-8.8363700">
        <ele>-0.2</ele>
        <time>2021-05-18T13:41:21Z</time>
      </trkpt>
      <trkpt lat="41.8790820" lon="-8.8363700">
        <ele>-0.2</ele>
        <time>2021-05-18T13:41:22Z</time>
      </trkpt>
      <trkpt lat="41.8790820" lon="-8.8363700">
        <ele>-0.2</ele>
        <time>2021-05-18T13:41:23Z</time>
      </trkpt>
      <trkpt lat="41.8790820" lon="-8.8363700">
        <ele>-0.2</ele>
        <time>2021-05-18T13:41:24Z</time>
      </trkpt>
      <trkpt lat="41.8790820" lon="-8.8363700">
        <ele>-0.2</ele>
        <time>2021-05-18T13:41:25Z</time>
      </trkpt>
      <trkpt lat="41.8790820" lon="-8.8363700">
        <ele>-0.2</ele>
        <time>2021-05-18T13:41:26Z</time>
      </trkpt>
      <trkpt lat="41.8790820" lon="-8.8363700">
        <ele>-0.2</ele>
        <time>2021-05-18T13:41:27Z</time>
      </trkpt>
      <trkpt lat="41.8790820" lon="-8.8363700">
        <ele>-0.2</ele>
        <time>2021-05-18T13:41:28Z</time>
      </trkpt>
      <trkpt lat="41.8790820" lon="-8.8363700">
        <ele>-0.2</ele>
        <time>2021-05-18T13:41:29Z</time>
      </trkpt>
      <trkpt lat="41.8790820" lon="-8.8363700">
        <ele>-0.2</ele>
        <time>2021-05-18T13:41:30Z</time>
      </trkpt>
      <trkpt lat="41.8790820" lon="-8.8363700">
        <ele>-0.2</ele>
        <time>2021-05-18T13:41:31Z</time>
      </trkpt>
      <trkpt lat="41.8790820" lon="-8.8363700">
        <ele>-0.2</ele>
        <time>2021-05-18T13:41:32Z</time>
      </trkpt>
      <trkpt lat="41.8790820" lon="-8.8363700">
        <ele>-0.2</ele>
        <time>2021-05-18T13:41:33Z</time>
      </trkpt>
      <trkpt lat="41.8790820" lon="-8.8363700">
        <ele>-0.2</ele>
        <time>2021-05-18T13:41:34Z</time>
      </trkpt>
      <trkpt lat="41.8790820" lon="-8.8363700">
        <ele>-0.2</ele>
        <time>2021-05-18T13:41:35Z</time>
      </trkpt>
      <trkpt lat="41.8790820" lon="-8.8363700">
        <ele>-0.2</ele>
        <time>2021-05-18T13:41:36Z</time>
      </trkpt>
      <trkpt lat="41.8790820" lon="-8.8363700">
        <ele>-0.2</ele>
        <time>2021-05-18T13:41:37Z</time>
      </trkpt>
      <trkpt lat="41.8790820" lon="-8.8363700">
        <ele>-0.2</ele>
        <time>2021-05-18T13:41:38Z</time>
      </trkpt>
      <trkpt lat="41.8790820" lon="-8.8363700">
        <ele>-0.2</ele>
        <time>2021-05-18T13:41:39Z</time>
      </trkpt>
      <trkpt lat="41.8790820" lon="-8.8363700">
        <ele>-0.2</ele>
        <time>2021-05-18T13:41:40Z</time>
      </trkpt>
      <trkpt lat="41.8790820" lon="-8.8363700">
        <ele>-0.2</ele>
        <time>2021-05-18T13:41:41Z</time>
      </trkpt>
      <trkpt lat="41.8790810" lon="-8.8363700">
        <ele>-0.2</ele>
        <time>2021-05-18T13:41:42Z</time>
      </trkpt>
      <trkpt lat="41.8790810" lon="-8.8363700">
        <ele>-0.2</ele>
        <time>2021-05-18T13:41:43Z</time>
      </trkpt>
      <trkpt lat="41.8790810" lon="-8.8363700">
        <ele>-0.2</ele>
        <time>2021-05-18T13:41:44Z</time>
      </trkpt>
      <trkpt lat="41.8790810" lon="-8.8363700">
        <ele>-0.2</ele>
        <time>2021-05-18T13:41:45Z</time>
      </trkpt>
      <trkpt lat="41.8790810" lon="-8.8363700">
        <ele>-0.2</ele>
        <time>2021-05-18T13:41:46Z</time>
      </trkpt>
      <trkpt lat="41.8790810" lon="-8.8363700">
        <ele>-0.2</ele>
        <time>2021-05-18T13:41:47Z</time>
      </trkpt>
      <trkpt lat="41.8790810" lon="-8.8363690">
        <ele>-0.2</ele>
        <time>2021-05-18T13:41:48Z</time>
      </trkpt>
      <trkpt lat="41.8790810" lon="-8.8363690">
        <ele>-0.2</ele>
        <time>2021-05-18T13:41:49Z</time>
      </trkpt>
      <trkpt lat="41.8790810" lon="-8.8363690">
        <ele>-0.2</ele>
        <time>2021-05-18T13:41:50Z</time>
      </trkpt>
      <trkpt lat="41.8790810" lon="-8.8363690">
        <ele>-0.2</ele>
        <time>2021-05-18T13:41:51Z</time>
      </trkpt>
      <trkpt lat="41.8790810" lon="-8.8363690">
        <ele>-0.2</ele>
        <time>2021-05-18T13:41:52Z</time>
      </trkpt>
      <trkpt lat="41.8790810" lon="-8.8363690">
        <ele>-0.2</ele>
        <time>2021-05-18T13:41:53Z</time>
      </trkpt>
      <trkpt lat="41.8790810" lon="-8.8363690">
        <ele>-0.2</ele>
        <time>2021-05-18T13:41:54Z</time>
      </trkpt>
      <trkpt lat="41.8790810" lon="-8.8363690">
        <ele>-0.2</ele>
        <time>2021-05-18T13:41:55Z</time>
      </trkpt>
      <trkpt lat="41.8790810" lon="-8.8363690">
        <ele>-0.2</ele>
        <time>2021-05-18T13:41:56Z</time>
      </trkpt>
      <trkpt lat="41.8790810" lon="-8.8363690">
        <ele>-0.2</ele>
        <time>2021-05-18T13:41:57Z</time>
      </trkpt>
      <trkpt lat="41.8790810" lon="-8.8363690">
        <ele>-0.2</ele>
        <time>2021-05-18T13:41:58Z</time>
      </trkpt>
      <trkpt lat="41.8790810" lon="-8.8363690">
        <ele>-0.2</ele>
        <time>2021-05-18T13:41:59Z</time>
      </trkpt>
      <trkpt lat="41.8790810" lon="-8.8363690">
        <ele>-0.2</ele>
        <time>2021-05-18T13:42:00Z</time>
      </trkpt>
      <trkpt lat="41.8790810" lon="-8.8363690">
        <ele>-0.2</ele>
        <time>2021-05-18T13:42:01Z</time>
      </trkpt>
      <trkpt lat="41.8790810" lon="-8.8363690">
        <ele>-0.2</ele>
        <time>2021-05-18T13:42:02Z</time>
      </trkpt>
      <trkpt lat="41.8790800" lon="-8.8363690">
        <ele>-0.2</ele>
        <time>2021-05-18T13:42:03Z</time>
      </trkpt>
      <trkpt lat="41.8790800" lon="-8.8363690">
        <ele>-0.2</ele>
        <time>2021-05-18T13:42:04Z</time>
      </trkpt>
      <trkpt lat="41.8790800" lon="-8.8363690">
        <ele>-0.2</ele>
        <time>2021-05-18T13:42:05Z</time>
      </trkpt>
      <trkpt lat="41.8790800" lon="-8.8363690">
        <ele>-0.2</ele>
        <time>2021-05-18T13:42:06Z</time>
      </trkpt>
      <trkpt lat="41.8790800" lon="-8.8363690">
        <ele>-0.2</ele>
        <time>2021-05-18T13:42:07Z</time>
      </trkpt>
      <trkpt lat="41.8790800" lon="-8.8363690">
        <ele>-0.2</ele>
        <time>2021-05-18T13:42:08Z</time>
      </trkpt>
      <trkpt lat="41.8790800" lon="-8.8363690">
        <ele>-0.2</ele>
        <time>2021-05-18T13:42:09Z</time>
      </trkpt>
      <trkpt lat="41.8790800" lon="-8.8363690">
        <ele>-0.2</ele>
        <time>2021-05-18T13:42:10Z</time>
      </trkpt>
      <trkpt lat="41.8790800" lon="-8.8363690">
        <ele>-0.2</ele>
        <time>2021-05-18T13:42:11Z</time>
      </trkpt>
      <trkpt lat="41.8790800" lon="-8.8363690">
        <ele>-0.2</ele>
        <time>2021-05-18T13:42:12Z</time>
      </trkpt>
      <trkpt lat="41.8790800" lon="-8.8363690">
        <ele>-0.2</ele>
        <time>2021-05-18T13:42:13Z</time>
      </trkpt>
      <trkpt lat="41.8790800" lon="-8.8363690">
        <ele>-0.2</ele>
        <time>2021-05-18T13:42:14Z</time>
      </trkpt>
      <trkpt lat="41.8790800" lon="-8.8363690">
        <ele>-0.2</ele>
        <time>2021-05-18T13:42:15Z</time>
      </trkpt>
      <trkpt lat="41.8790800" lon="-8.8363690">
        <ele>-0.2</ele>
        <time>2021-05-18T13:42:16Z</time>
      </trkpt>
      <trkpt lat="41.8790800" lon="-8.8363690">
        <ele>-0.2</ele>
        <time>2021-05-18T13:42:17Z</time>
      </trkpt>
      <trkpt lat="41.8790800" lon="-8.8363680">
        <ele>-0.2</ele>
        <time>2021-05-18T13:42:18Z</time>
      </trkpt>
      <trkpt lat="41.8790800" lon="-8.8363680">
        <ele>-0.2</ele>
        <time>2021-05-18T13:42:19Z</time>
      </trkpt>
      <trkpt lat="41.8790800" lon="-8.8363680">
        <ele>-0.2</ele>
        <time>2021-05-18T13:42:20Z</time>
      </trkpt>
      <trkpt lat="41.8790800" lon="-8.8363680">
        <ele>-0.2</ele>
        <time>2021-05-18T13:42:21Z</time>
      </trkpt>
      <trkpt lat="41.8790800" lon="-8.8363680">
        <ele>-0.2</ele>
        <time>2021-05-18T13:42:22Z</time>
      </trkpt>
      <trkpt lat="41.8790800" lon="-8.8363680">
        <ele>-0.2</ele>
        <time>2021-05-18T13:42:23Z</time>
      </trkpt>
      <trkpt lat="41.8790790" lon="-8.8363680">
        <ele>-0.2</ele>
        <time>2021-05-18T13:42:24Z</time>
      </trkpt>
      <trkpt lat="41.8790790" lon="-8.8363680">
        <ele>-0.2</ele>
        <time>2021-05-18T13:42:25Z</time>
      </trkpt>
      <trkpt lat="41.8790790" lon="-8.8363680">
        <ele>-0.2</ele>
        <time>2021-05-18T13:42:26Z</time>
      </trkpt>
      <trkpt lat="41.8790790" lon="-8.8363680">
        <ele>-0.2</ele>
        <time>2021-05-18T13:42:27Z</time>
      </trkpt>
      <trkpt lat="41.8790790" lon="-8.8363680">
        <ele>-0.2</ele>
        <time>2021-05-18T13:42:28Z</time>
      </trkpt>
      <trkpt lat="41.8790790" lon="-8.8363680">
        <ele>-0.2</ele>
        <time>2021-05-18T13:42:29Z</time>
      </trkpt>
      <trkpt lat="41.8790790" lon="-8.8363680">
        <ele>-0.2</ele>
        <time>2021-05-18T13:42:30Z</time>
      </trkpt>
      <trkpt lat="41.8790790" lon="-8.8363680">
        <ele>-0.2</ele>
        <time>2021-05-18T13:42:31Z</time>
      </trkpt>
      <trkpt lat="41.8790790" lon="-8.8363680">
        <ele>-0.2</ele>
        <time>2021-05-18T13:42:32Z</time>
      </trkpt>
      <trkpt lat="41.8790790" lon="-8.8363680">
        <ele>-0.2</ele>
        <time>2021-05-18T13:42:33Z</time>
      </trkpt>
      <trkpt lat="41.8790790" lon="-8.8363680">
        <ele>-0.2</ele>
        <time>2021-05-18T13:42:34Z</time>
      </trkpt>
      <trkpt lat="41.8790790" lon="-8.8363680">
        <ele>-0.2</ele>
        <time>2021-05-18T13:42:35Z</time>
      </trkpt>
      <trkpt lat="41.8790790" lon="-8.8363680">
        <ele>-0.2</ele>
        <time>2021-05-18T13:42:36Z</time>
      </trkpt>
      <trkpt lat="41.8790790" lon="-8.8363680">
        <ele>-0.2</ele>
        <time>2021-05-18T13:42:37Z</time>
      </trkpt>
      <trkpt lat="41.8790790" lon="-8.8363680">
        <ele>-0.2</ele>
        <time>2021-05-18T13:42:38Z</time>
      </trkpt>
      <trkpt lat="41.8790790" lon="-8.8363680">
        <ele>-0.2</ele>
        <time>2021-05-18T13:42:39Z</time>
      </trkpt>
      <trkpt lat="41.8790790" lon="-8.8363680">
        <ele>-0.2</ele>
        <time>2021-05-18T13:42:40Z</time>
      </trkpt>
      <trkpt lat="41.8790790" lon="-8.8363680">
        <ele>-0.2</ele>
        <time>2021-05-18T13:42:41Z</time>
      </trkpt>
      <trkpt lat="41.8790790" lon="-8.8363680">
        <ele>-0.2</ele>
        <time>2021-05-18T13:42:42Z</time>
      </trkpt>
      <trkpt lat="41.8790790" lon="-8.8363680">
        <ele>-0.2</ele>
        <time>2021-05-18T13:42:43Z</time>
      </trkpt>
      <trkpt lat="41.8790790" lon="-8.8363680">
        <ele>-0.2</ele>
        <time>2021-05-18T13:42:44Z</time>
      </trkpt>
      <trkpt lat="41.8790780" lon="-8.8363680">
        <ele>-0.2</ele>
        <time>2021-05-18T13:42:45Z</time>
      </trkpt>
      <trkpt lat="41.8790780" lon="-8.8363680">
        <ele>-0.2</ele>
        <time>2021-05-18T13:42:46Z</time>
      </trkpt>
      <trkpt lat="41.8790780" lon="-8.8363680">
        <ele>-0.2</ele>
        <time>2021-05-18T13:42:47Z</time>
      </trkpt>
      <trkpt lat="41.8790780" lon="-8.8363670">
        <ele>-0.2</ele>
        <time>2021-05-18T13:42:48Z</time>
      </trkpt>
      <trkpt lat="41.8790780" lon="-8.8363670">
        <ele>-0.2</ele>
        <time>2021-05-18T13:42:49Z</time>
      </trkpt>
      <trkpt lat="41.8790780" lon="-8.8363670">
        <ele>-0.2</ele>
        <time>2021-05-18T13:42:50Z</time>
      </trkpt>
      <trkpt lat="41.8790780" lon="-8.8363670">
        <ele>-0.2</ele>
        <time>2021-05-18T13:42:51Z</time>
      </trkpt>
      <trkpt lat="41.8790780" lon="-8.8363670">
        <ele>-0.2</ele>
        <time>2021-05-18T13:42:52Z</time>
      </trkpt>
      <trkpt lat="41.8790780" lon="-8.8363670">
        <ele>-0.2</ele>
        <time>2021-05-18T13:42:53Z</time>
      </trkpt>
      <trkpt lat="41.8790780" lon="-8.8363670">
        <ele>-0.2</ele>
        <time>2021-05-18T13:42:54Z</time>
      </trkpt>
      <trkpt lat="41.8790780" lon="-8.8363670">
        <ele>-0.2</ele>
        <time>2021-05-18T13:42:55Z</time>
      </trkpt>
      <trkpt lat="41.8790780" lon="-8.8363670">
        <ele>-0.2</ele>
        <time>2021-05-18T13:42:56Z</time>
      </trkpt>
      <trkpt lat="41.8790780" lon="-8.8363670">
        <ele>-0.2</ele>
        <time>2021-05-18T13:42:57Z</time>
      </trkpt>
      <trkpt lat="41.8790780" lon="-8.8363670">
        <ele>-0.2</ele>
        <time>2021-05-18T13:42:58Z</time>
      </trkpt>
      <trkpt lat="41.8790780" lon="-8.8363670">
        <ele>-0.2</ele>
        <time>2021-05-18T13:42:59Z</time>
      </trkpt>
      <trkpt lat="41.8790780" lon="-8.8363670">
        <ele>-0.2</ele>
        <time>2021-05-18T13:43:00Z</time>
      </trkpt>
      <trkpt lat="41.8790780" lon="-8.8363670">
        <ele>-0.2</ele>
        <time>2021-05-18T13:43:01Z</time>
      </trkpt>
      <trkpt lat="41.8790780" lon="-8.8363670">
        <ele>-0.2</ele>
        <time>2021-05-18T13:43:02Z</time>
      </trkpt>
      <trkpt lat="41.8790780" lon="-8.8363670">
        <ele>-0.2</ele>
        <time>2021-05-18T13:43:03Z</time>
      </trkpt>
      <trkpt lat="41.8790780" lon="-8.8363670">
        <ele>-0.2</ele>
        <time>2021-05-18T13:43:04Z</time>
      </trkpt>
      <trkpt lat="41.8790780" lon="-8.8363670">
        <ele>-0.2</ele>
        <time>2021-05-18T13:43:05Z</time>
      </trkpt>
      <trkpt lat="41.8790770" lon="-8.8363670">
        <ele>-0.2</ele>
        <time>2021-05-18T13:43:06Z</time>
      </trkpt>
      <trkpt lat="41.8790770" lon="-8.8363670">
        <ele>-0.2</ele>
        <time>2021-05-18T13:43:07Z</time>
      </trkpt>
      <trkpt lat="41.8790770" lon="-8.8363670">
        <ele>-0.2</ele>
        <time>2021-05-18T13:43:08Z</time>
      </trkpt>
      <trkpt lat="41.8790770" lon="-8.8363670">
        <ele>-0.2</ele>
        <time>2021-05-18T13:43:09Z</time>
      </trkpt>
      <trkpt lat="41.8790770" lon="-8.8363670">
        <ele>-0.2</ele>
        <time>2021-05-18T13:43:10Z</time>
      </trkpt>
      <trkpt lat="41.8790770" lon="-8.8363670">
        <ele>-0.2</ele>
        <time>2021-05-18T13:43:11Z</time>
      </trkpt>
      <trkpt lat="41.8790770" lon="-8.8363670">
        <ele>-0.2</ele>
        <time>2021-05-18T13:43:12Z</time>
      </trkpt>
      <trkpt lat="41.8790770" lon="-8.8363670">
        <ele>-0.2</ele>
        <time>2021-05-18T13:43:13Z</time>
      </trkpt>
      <trkpt lat="41.8790770" lon="-8.8363670">
        <ele>-0.2</ele>
        <time>2021-05-18T13:43:14Z</time>
      </trkpt>
      <trkpt lat="41.8790770" lon="-8.8363670">
        <ele>-0.2</ele>
        <time>2021-05-18T13:43:15Z</time>
      </trkpt>
      <trkpt lat="41.8790770" lon="-8.8363670">
        <ele>-0.2</ele>
        <time>2021-05-18T13:43:16Z</time>
      </trkpt>
      <trkpt lat="41.8790770" lon="-8.8363670">
        <ele>-0.2</ele>
        <time>2021-05-18T13:43:17Z</time>
      </trkpt>
      <trkpt lat="41.8790770" lon="-8.8363660">
        <ele>-0.2</ele>
        <time>2021-05-18T13:43:18Z</time>
      </trkpt>
      <trkpt lat="41.8790770" lon="-8.8363660">
        <ele>-0.2</ele>
        <time>2021-05-18T13:43:19Z</time>
      </trkpt>
      <trkpt lat="41.8790770" lon="-8.8363660">
        <ele>-0.2</ele>
        <time>2021-05-18T13:43:20Z</time>
      </trkpt>
      <trkpt lat="41.8790770" lon="-8.8363660">
        <ele>-0.2</ele>
        <time>2021-05-18T13:43:21Z</time>
      </trkpt>
      <trkpt lat="41.8790770" lon="-8.8363660">
        <ele>-0.2</ele>
        <time>2021-05-18T13:43:22Z</time>
      </trkpt>
      <trkpt lat="41.8790770" lon="-8.8363660">
        <ele>-0.2</ele>
        <time>2021-05-18T13:43:23Z</time>
      </trkpt>
      <trkpt lat="41.8790770" lon="-8.8363660">
        <ele>-0.2</ele>
        <time>2021-05-18T13:43:24Z</time>
      </trkpt>
      <trkpt lat="41.8790770" lon="-8.8363660">
        <ele>-0.2</ele>
        <time>2021-05-18T13:43:25Z</time>
      </trkpt>
      <trkpt lat="41.8790770" lon="-8.8363660">
        <ele>-0.2</ele>
        <time>2021-05-18T13:43:26Z</time>
      </trkpt>
      <trkpt lat="41.8790760" lon="-8.8363660">
        <ele>-0.2</ele>
        <time>2021-05-18T13:43:27Z</time>
      </trkpt>
      <trkpt lat="41.8790760" lon="-8.8363660">
        <ele>-0.2</ele>
        <time>2021-05-18T13:43:28Z</time>
      </trkpt>
      <trkpt lat="41.8790760" lon="-8.8363660">
        <ele>-0.2</ele>
        <time>2021-05-18T13:43:29Z</time>
      </trkpt>
      <trkpt lat="41.8790760" lon="-8.8363660">
        <ele>-0.2</ele>
        <time>2021-05-18T13:43:30Z</time>
      </trkpt>
      <trkpt lat="41.8790760" lon="-8.8363660">
        <ele>-0.2</ele>
        <time>2021-05-18T13:43:31Z</time>
      </trkpt>
      <trkpt lat="41.8790760" lon="-8.8363660">
        <ele>-0.2</ele>
        <time>2021-05-18T13:43:32Z</time>
      </trkpt>
      <trkpt lat="41.8790760" lon="-8.8363660">
        <ele>-0.2</ele>
        <time>2021-05-18T13:43:33Z</time>
      </trkpt>
      <trkpt lat="41.8790760" lon="-8.8363660">
        <ele>-0.2</ele>
        <time>2021-05-18T13:43:34Z</time>
      </trkpt>
      <trkpt lat="41.8790760" lon="-8.8363660">
        <ele>-0.2</ele>
        <time>2021-05-18T13:43:35Z</time>
      </trkpt>
      <trkpt lat="41.8790760" lon="-8.8363660">
        <ele>-0.2</ele>
        <time>2021-05-18T13:43:36Z</time>
      </trkpt>
      <trkpt lat="41.8790760" lon="-8.8363660">
        <ele>-0.2</ele>
        <time>2021-05-18T13:43:37Z</time>
      </trkpt>
      <trkpt lat="41.8790760" lon="-8.8363660">
        <ele>-0.2</ele>
        <time>2021-05-18T13:43:38Z</time>
      </trkpt>
      <trkpt lat="41.8790760" lon="-8.8363660">
        <ele>-0.1</ele>
        <time>2021-05-18T13:43:39Z</time>
      </trkpt>
      <trkpt lat="41.8790760" lon="-8.8363660">
        <ele>-0.1</ele>
        <time>2021-05-18T13:43:40Z</time>
      </trkpt>
      <trkpt lat="41.8790760" lon="-8.8363660">
        <ele>-0.1</ele>
        <time>2021-05-18T13:43:41Z</time>
      </trkpt>
      <trkpt lat="41.8790760" lon="-8.8363660">
        <ele>-0.1</ele>
        <time>2021-05-18T13:43:42Z</time>
      </trkpt>
      <trkpt lat="41.8790760" lon="-8.8363660">
        <ele>0.0</ele>
        <time>2021-05-18T13:43:43Z</time>
      </trkpt>
      <trkpt lat="41.8790760" lon="-8.8363660">
        <ele>0.0</ele>
        <time>2021-05-18T13:43:44Z</time>
      </trkpt>
      <trkpt lat="41.8790760" lon="-8.8363660">
        <ele>0.0</ele>
        <time>2021-05-18T13:43:45Z</time>
      </trkpt>
      <trkpt lat="41.8790760" lon="-8.8363660">
        <ele>0.1</ele>
        <time>2021-05-18T13:43:46Z</time>
      </trkpt>
      <trkpt lat="41.8790760" lon="-8.8363660">
        <ele>0.1</ele>
        <time>2021-05-18T13:43:47Z</time>
      </trkpt>
      <trkpt lat="41.8790760" lon="-8.8363650">
        <ele>0.1</ele>
        <time>2021-05-18T13:43:48Z</time>
      </trkpt>
      <trkpt lat="41.8790750" lon="-8.8363650">
        <ele>0.1</ele>
        <time>2021-05-18T13:43:49Z</time>
      </trkpt>
      <trkpt lat="41.8790750" lon="-8.8363650">
        <ele>0.2</ele>
        <time>2021-05-18T13:43:50Z</time>
      </trkpt>
      <trkpt lat="41.8790750" lon="-8.8363650">
        <ele>0.2</ele>
        <time>2021-05-18T13:43:51Z</time>
      </trkpt>
      <trkpt lat="41.8790750" lon="-8.8363650">
        <ele>0.2</ele>
        <time>2021-05-18T13:43:52Z</time>
      </trkpt>
      <trkpt lat="41.8790750" lon="-8.8363650">
        <ele>0.2</ele>
        <time>2021-05-18T13:43:53Z</time>
      </trkpt>
      <trkpt lat="41.8790750" lon="-8.8363650">
        <ele>0.3</ele>
        <time>2021-05-18T13:43:54Z</time>
      </trkpt>
      <trkpt lat="41.8790750" lon="-8.8363650">
        <ele>0.3</ele>
        <time>2021-05-18T13:43:55Z</time>
      </trkpt>
      <trkpt lat="41.8790750" lon="-8.8363650">
        <ele>0.3</ele>
        <time>2021-05-18T13:43:56Z</time>
      </trkpt>
      <trkpt lat="41.8790750" lon="-8.8363650">
        <ele>0.4</ele>
        <time>2021-05-18T13:43:57Z</time>
      </trkpt>
      <trkpt lat="41.8790750" lon="-8.8363650">
        <ele>0.4</ele>
        <time>2021-05-18T13:43:58Z</time>
      </trkpt>
      <trkpt lat="41.8790750" lon="-8.8363650">
        <ele>0.4</ele>
        <time>2021-05-18T13:43:59Z</time>
      </trkpt>
      <trkpt lat="41.8790750" lon="-8.8363650">
        <ele>0.4</ele>
        <time>2021-05-18T13:44:00Z</time>
      </trkpt>
      <trkpt lat="41.8790750" lon="-8.8363650">
        <ele>0.5</ele>
        <time>2021-05-18T13:44:01Z</time>
      </trkpt>
      <trkpt lat="41.8790750" lon="-8.8363650">
        <ele>0.5</ele>
        <time>2021-05-18T13:44:02Z</time>
      </trkpt>
      <trkpt lat="41.8790750" lon="-8.8363650">
        <ele>0.5</ele>
        <time>2021-05-18T13:44:03Z</time>
      </trkpt>
      <trkpt lat="41.8790750" lon="-8.8363650">
        <ele>0.6</ele>
        <time>2021-05-18T13:44:04Z</time>
      </trkpt>
      <trkpt lat="41.8790750" lon="-8.8363650">
        <ele>0.6</ele>
        <time>2021-05-18T13:44:05Z</time>
      </trkpt>
      <trkpt lat="41.8790750" lon="-8.8363650">
        <ele>0.6</ele>
        <time>2021-05-18T13:44:06Z</time>
      </trkpt>
      <trkpt lat="41.8790750" lon="-8.8363650">
        <ele>0.6</ele>
        <time>2021-05-18T13:44:07Z</time>
      </trkpt>
      <trkpt lat="41.8790750" lon="-8.8363650">
        <ele>0.7</ele>
        <time>2021-05-18T13:44:08Z</time>
      </trkpt>
      <trkpt lat="41.8790750" lon="-8.8363650">
        <ele>0.7</ele>
        <time>2021-05-18T13:44:09Z</time>
      </trkpt>
      <trkpt lat="41.8790740" lon="-8.8363650">
        <ele>0.7</ele>
        <time>2021-05-18T13:44:10Z</time>
      </trkpt>
      <trkpt lat="41.8790740" lon="-8.8363650">
        <ele>0.8</ele>
        <time>2021-05-18T13:44:11Z</time>
      </trkpt>
      <trkpt lat="41.8790740" lon="-8.8363650">
        <ele>0.8</ele>
        <time>2021-05-18T13:44:12Z</time>
      </trkpt>
      <trkpt lat="41.8790740" lon="-8.8363650">
        <ele>0.8</ele>
        <time>2021-05-18T13:44:13Z</time>
      </trkpt>
      <trkpt lat="41.8790740" lon="-8.8363650">
        <ele>0.8</ele>
        <time>2021-05-18T13:44:14Z</time>
      </trkpt>
      <trkpt lat="41.8790740" lon="-8.8363650">
        <ele>0.9</ele>
        <time>2021-05-18T13:44:15Z</time>
      </trkpt>
      <trkpt lat="41.8790740" lon="-8.8363650">
        <ele>0.9</ele>
        <time>2021-05-18T13:44:16Z</time>
      </trkpt>
      <trkpt lat="41.8790740" lon="-8.8363650">
        <ele>0.9</ele>
        <time>2021-05-18T13:44:17Z</time>
      </trkpt>
      <trkpt lat="41.8790740" lon="-8.8363640">
        <ele>0.9</ele>
        <time>2021-05-18T13:44:18Z</time>
      </trkpt>
      <trkpt lat="41.8790740" lon="-8.8363640">
        <ele>1.0</ele>
        <time>2021-05-18T13:44:19Z</time>
      </trkpt>
      <trkpt lat="41.8790740" lon="-8.8363640">
        <ele>1.0</ele>
        <time>2021-05-18T13:44:20Z</time>
      </trkpt>
      <trkpt lat="41.8790740" lon="-8.8363640">
        <ele>1.0</ele>
        <time>2021-05-18T13:44:21Z</time>
      </trkpt>
      <trkpt lat="41.8790740" lon="-8.8363640">
        <ele>1.1</ele>
        <time>2021-05-18T13:44:22Z</time>
      </trkpt>
      <trkpt lat="41.8790740" lon="-8.8363640">
        <ele>1.1</ele>
        <time>2021-05-18T13:44:23Z</time>
      </trkpt>
      <trkpt lat="41.8790740" lon="-8.8363640">
        <ele>1.1</ele>
        <time>2021-05-18T13:44:24Z</time>
      </trkpt>
      <trkpt lat="41.8790740" lon="-8.8363640">
        <ele>1.1</ele>
        <time>2021-05-18T13:44:25Z</time>
      </trkpt>
      <trkpt lat="41.8790740" lon="-8.8363640">
        <ele>1.2</ele>
        <time>2021-05-18T13:44:26Z</time>
      </trkpt>
      <trkpt lat="41.8790740" lon="-8.8363640">
        <ele>1.2</ele>
        <time>2021-05-18T13:44:27Z</time>
      </trkpt>
      <trkpt lat="41.8790740" lon="-8.8363640">
        <ele>1.2</ele>
        <time>2021-05-18T13:44:28Z</time>
      </trkpt>
      <trkpt lat="41.8790740" lon="-8.8363640">
        <ele>1.3</ele>
        <time>2021-05-18T13:44:29Z</time>
      </trkpt>
      <trkpt lat="41.8790740" lon="-8.8363640">
        <ele>1.3</ele>
        <time>2021-05-18T13:44:30Z</time>
      </trkpt>
      <trkpt lat="41.8790730" lon="-8.8363640">
        <ele>1.3</ele>
        <time>2021-05-18T13:44:31Z</time>
      </trkpt>
      <trkpt lat="41.8790730" lon="-8.8363640">
        <ele>1.3</ele>
        <time>2021-05-18T13:44:32Z</time>
      </trkpt>
      <trkpt lat="41.8790730" lon="-8.8363640">
        <ele>1.4</ele>
        <time>2021-05-18T13:44:33Z</time>
      </trkpt>
      <trkpt lat="41.8790730" lon="-8.8363640">
        <ele>1.4</ele>
        <time>2021-05-18T13:44:34Z</time>
      </trkpt>
      <trkpt lat="41.8790730" lon="-8.8363640">
        <ele>1.4</ele>
        <time>2021-05-18T13:44:35Z</time>
      </trkpt>
      <trkpt lat="41.8790730" lon="-8.8363640">
        <ele>1.5</ele>
        <time>2021-05-18T13:44:36Z</time>
      </trkpt>
      <trkpt lat="41.8790730" lon="-8.8363640">
        <ele>1.5</ele>
        <time>2021-05-18T13:44:37Z</time>
      </trkpt>
      <trkpt lat="41.8790730" lon="-8.8363640">
        <ele>1.5</ele>
        <time>2021-05-18T13:44:38Z</time>
      </trkpt>
      <trkpt lat="41.8790730" lon="-8.8363640">
        <ele>1.5</ele>
        <time>2021-05-18T13:44:39Z</time>
      </trkpt>
      <trkpt lat="41.8790730" lon="-8.8363640">
        <ele>1.6</ele>
        <time>2021-05-18T13:44:40Z</time>
      </trkpt>
      <trkpt lat="41.8790730" lon="-8.8363640">
        <ele>1.6</ele>
        <time>2021-05-18T13:44:41Z</time>
      </trkpt>
      <trkpt lat="41.8790730" lon="-8.8363640">
        <ele>1.6</ele>
        <time>2021-05-18T13:44:42Z</time>
      </trkpt>
      <trkpt lat="41.8790730" lon="-8.8363640">
        <ele>1.6</ele>
        <time>2021-05-18T13:44:43Z</time>
      </trkpt>
      <trkpt lat="41.8790730" lon="-8.8363640">
        <ele>1.7</ele>
        <time>2021-05-18T13:44:44Z</time>
      </trkpt>
      <trkpt lat="41.8790730" lon="-8.8363640">
        <ele>1.7</ele>
        <time>2021-05-18T13:44:45Z</time>
      </trkpt>
      <trkpt lat="41.8790730" lon="-8.8363640">
        <ele>1.7</ele>
        <time>2021-05-18T13:44:46Z</time>
      </trkpt>
      <trkpt lat="41.8790730" lon="-8.8363640">
        <ele>1.8</ele>
        <time>2021-05-18T13:44:47Z</time>
      </trkpt>
      <trkpt lat="41.8790730" lon="-8.8363630">
        <ele>1.8</ele>
        <time>2021-05-18T13:44:48Z</time>
      </trkpt>
      <trkpt lat="41.8790730" lon="-8.8363630">
        <ele>1.8</ele>
        <time>2021-05-18T13:44:49Z</time>
      </trkpt>
      <trkpt lat="41.8790730" lon="-8.8363630">
        <ele>1.8</ele>
        <time>2021-05-18T13:44:50Z</time>
      </trkpt>
      <trkpt lat="41.8790730" lon="-8.8363630">
        <ele>1.9</ele>
        <time>2021-05-18T13:44:51Z</time>
      </trkpt>
      <trkpt lat="41.8790720" lon="-8.8363630">
        <ele>1.9</ele>
        <time>2021-05-18T13:44:52Z</time>
      </trkpt>
      <trkpt lat="41.8790720" lon="-8.8363630">
        <ele>1.9</ele>
        <time>2021-05-18T13:44:53Z</time>
      </trkpt>
      <trkpt lat="41.8790720" lon="-8.8363630">
        <ele>2.0</ele>
        <time>2021-05-18T13:44:54Z</time>
      </trkpt>
      <trkpt lat="41.8790720" lon="-8.8363630">
        <ele>2.0</ele>
        <time>2021-05-18T13:44:55Z</time>
      </trkpt>
      <trkpt lat="41.8790720" lon="-8.8363630">
        <ele>2.0</ele>
        <time>2021-05-18T13:44:56Z</time>
      </trkpt>
      <trkpt lat="41.8790720" lon="-8.8363630">
        <ele>2.0</ele>
        <time>2021-05-18T13:44:57Z</time>
      </trkpt>
      <trkpt lat="41.8790720" lon="-8.8363630">
        <ele>2.1</ele>
        <time>2021-05-18T13:44:58Z</time>
      </trkpt>
      <trkpt lat="41.8790720" lon="-8.8363630">
        <ele>2.1</ele>
        <time>2021-05-18T13:44:59Z</time>
      </trkpt>
      <trkpt lat="41.8790720" lon="-8.8363630">
        <ele>2.1</ele>
        <time>2021-05-18T13:45:00Z</time>
      </trkpt>
      <trkpt lat="41.8790720" lon="-8.8363630">
        <ele>2.2</ele>
        <time>2021-05-18T13:45:01Z</time>
      </trkpt>
      <trkpt lat="41.8790720" lon="-8.8363630">
        <ele>2.2</ele>
        <time>2021-05-18T13:45:02Z</time>
      </trkpt>
      <trkpt lat="41.8790720" lon="-8.8363630">
        <ele>2.2</ele>
        <time>2021-05-18T13:45:03Z</time>
      </trkpt>
      <trkpt lat="41.8790720" lon="-8.8363630">
        <ele>2.2</ele>
        <time>2021-05-18T13:45:04Z</time>
      </trkpt>
      <trkpt lat="41.8790720" lon="-8.8363630">
        <ele>2.3</ele>
        <time>2021-05-18T13:45:05Z</time>
      </trkpt>
      <trkpt lat="41.8790720" lon="-8.8363630">
        <ele>2.3</ele>
        <time>2021-05-18T13:45:06Z</time>
      </trkpt>
      <trkpt lat="41.8790720" lon="-8.8363630">
        <ele>2.3</ele>
        <time>2021-05-18T13:45:07Z</time>
      </trkpt>
      <trkpt lat="41.8790720" lon="-8.8363630">
        <ele>2.3</ele>
        <time>2021-05-18T13:45:08Z</time>
      </trkpt>
      <trkpt lat="41.8790720" lon="-8.8363630">
        <ele>2.4</ele>
        <time>2021-05-18T13:45:09Z</time>
      </trkpt>
      <trkpt lat="41.8790720" lon="-8.8363630">
        <ele>2.4</ele>
        <time>2021-05-18T13:45:10Z</time>
      </trkpt>
      <trkpt lat="41.8790720" lon="-8.8363630">
        <ele>2.4</ele>
        <time>2021-05-18T13:45:11Z</time>
      </trkpt>
      <trkpt lat="41.8790720" lon="-8.8363630">
        <ele>2.5</ele>
        <time>2021-05-18T13:45:12Z</time>
      </trkpt>
      <trkpt lat="41.8790710" lon="-8.8363630">
        <ele>2.5</ele>
        <time>2021-05-18T13:45:13Z</time>
      </trkpt>
      <trkpt lat="41.8790710" lon="-8.8363630">
        <ele>2.5</ele>
        <time>2021-05-18T13:45:14Z</time>
      </trkpt>
      <trkpt lat="41.8790710" lon="-8.8363630">
        <ele>2.5</ele>
        <time>2021-05-18T13:45:15Z</time>
      </trkpt>
      <trkpt lat="41.8790710" lon="-8.8363630">
        <ele>2.6</ele>
        <time>2021-05-18T13:45:16Z</time>
      </trkpt>
      <trkpt lat="41.8790710" lon="-8.8363620">
        <ele>2.6</ele>
        <time>2021-05-18T13:45:17Z</time>
      </trkpt>
      <trkpt lat="41.8790710" lon="-8.8363620">
        <ele>2.6</ele>
        <time>2021-05-18T13:45:18Z</time>
      </trkpt>
      <trkpt lat="41.8790710" lon="-8.8363620">
        <ele>2.6</ele>
        <time>2021-05-18T13:45:19Z</time>
      </trkpt>
      <trkpt lat="41.8790710" lon="-8.8363620">
        <ele>2.6</ele>
        <time>2021-05-18T13:45:20Z</time>
      </trkpt>
      <trkpt lat="41.8790710" lon="-8.8363620">
        <ele>2.6</ele>
        <time>2021-05-18T13:45:21Z</time>
      </trkpt>
      <trkpt lat="41.8790710" lon="-8.8363620">
        <ele>2.6</ele>
        <time>2021-05-18T13:45:22Z</time>
      </trkpt>
      <trkpt lat="41.8790710" lon="-8.8363620">
        <ele>2.6</ele>
        <time>2021-05-18T13:45:23Z</time>
      </trkpt>
      <trkpt lat="41.8790710" lon="-8.8363620">
        <ele>2.6</ele>
        <time>2021-05-18T13:45:24Z</time>
      </trkpt>
      <trkpt lat="41.8790710" lon="-8.8363620">
        <ele>2.6</ele>
        <time>2021-05-18T13:45:25Z</time>
      </trkpt>
      <trkpt lat="41.8790710" lon="-8.8363620">
        <ele>2.6</ele>
        <time>2021-05-18T13:45:26Z</time>
      </trkpt>
      <trkpt lat="41.8790710" lon="-8.8363620">
        <ele>2.6</ele>
        <time>2021-05-18T13:45:27Z</time>
      </trkpt>
      <trkpt lat="41.8790710" lon="-8.8363620">
        <ele>2.6</ele>
        <time>2021-05-18T13:45:28Z</time>
      </trkpt>
      <trkpt lat="41.8790710" lon="-8.8363620">
        <ele>2.6</ele>
        <time>2021-05-18T13:45:29Z</time>
      </trkpt>
      <trkpt lat="41.8790710" lon="-8.8363620">
        <ele>2.6</ele>
        <time>2021-05-18T13:45:30Z</time>
      </trkpt>
      <trkpt lat="41.8790710" lon="-8.8363620">
        <ele>2.6</ele>
        <time>2021-05-18T13:45:31Z</time>
      </trkpt>
      <trkpt lat="41.8790710" lon="-8.8363620">
        <ele>2.6</ele>
        <time>2021-05-18T13:45:32Z</time>
      </trkpt>
      <trkpt lat="41.8790710" lon="-8.8363620">
        <ele>2.6</ele>
        <time>2021-05-18T13:45:33Z</time>
      </trkpt>
      <trkpt lat="41.8790700" lon="-8.8363620">
        <ele>2.6</ele>
        <time>2021-05-18T13:45:34Z</time>
      </trkpt>
      <trkpt lat="41.8790700" lon="-8.8363620">
        <ele>2.6</ele>
        <time>2021-05-18T13:45:35Z</time>
      </trkpt>
      <trkpt lat="41.8790700" lon="-8.8363620">
        <ele>2.6</ele>
        <time>2021-05-18T13:45:36Z</time>
      </trkpt>
      <trkpt lat="41.8790700" lon="-8.8363620">
        <ele>2.6</ele>
        <time>2021-05-18T13:45:37Z</time>
      </trkpt>
      <trkpt lat="41.8790700" lon="-8.8363620">
        <ele>2.6</ele>
        <time>2021-05-18T13:45:38Z</time>
      </trkpt>
      <trkpt lat="41.8790700" lon="-8.8363620">
        <ele>2.6</ele>
        <time>2021-05-18T13:45:39Z</time>
      </trkpt>
      <trkpt lat="41.8790700" lon="-8.8363620">
        <ele>2.6</ele>
        <time>2021-05-18T13:45:40Z</time>
      </trkpt>
      <trkpt lat="41.8790700" lon="-8.8363620">
        <ele>2.6</ele>
        <time>2021-05-18T13:45:41Z</time>
      </trkpt>
      <trkpt lat="41.8790700" lon="-8.8363620">
        <ele>2.6</ele>
        <time>2021-05-18T13:45:42Z</time>
      </trkpt>
      <trkpt lat="41.8790700" lon="-8.8363620">
        <ele>2.6</ele>
        <time>2021-05-18T13:45:43Z</time>
      </trkpt>
      <trkpt lat="41.8790700" lon="-8.8363620">
        <ele>2.6</ele>
        <time>2021-05-18T13:45:44Z</time>
      </trkpt>
      <trkpt lat="41.8790700" lon="-8.8363620">
        <ele>2.6</ele>
        <time>2021-05-18T13:45:45Z</time>
      </trkpt>
      <trkpt lat="41.8790700" lon="-8.8363620">
        <ele>2.6</ele>
        <time>2021-05-18T13:45:46Z</time>
      </trkpt>
      <trkpt lat="41.8790700" lon="-8.8363610">
        <ele>2.6</ele>
        <time>2021-05-18T13:45:47Z</time>
      </trkpt>
      <trkpt lat="41.8790700" lon="-8.8363610">
        <ele>2.6</ele>
        <time>2021-05-18T13:45:48Z</time>
      </trkpt>
      <trkpt lat="41.8790700" lon="-8.8363610">
        <ele>2.6</ele>
        <time>2021-05-18T13:45:49Z</time>
      </trkpt>
      <trkpt lat="41.8790700" lon="-8.8363610">
        <ele>2.6</ele>
        <time>2021-05-18T13:45:50Z</time>
      </trkpt>
      <trkpt lat="41.8790700" lon="-8.8363610">
        <ele>2.6</ele>
        <time>2021-05-18T13:45:51Z</time>
      </trkpt>
      <trkpt lat="41.8790700" lon="-8.8363610">
        <ele>2.6</ele>
        <time>2021-05-18T13:45:52Z</time>
      </trkpt>
      <trkpt lat="41.8790700" lon="-8.8363610">
        <ele>2.6</ele>
        <time>2021-05-18T13:45:53Z</time>
      </trkpt>
      <trkpt lat="41.8790700" lon="-8.8363610">
        <ele>2.6</ele>
        <time>2021-05-18T13:45:54Z</time>
      </trkpt>
      <trkpt lat="41.8790690" lon="-8.8363610">
        <ele>2.6</ele>
        <time>2021-05-18T13:45:55Z</time>
      </trkpt>
      <trkpt lat="41.8790690" lon="-8.8363610">
        <ele>2.6</ele>
        <time>2021-05-18T13:45:56Z</time>
      </trkpt>
      <trkpt lat="41.8790690" lon="-8.8363610">
        <ele>2.6</ele>
        <time>2021-05-18T13:45:57Z</time>
      </trkpt>
      <trkpt lat="41.8790690" lon="-8.8363610">
        <ele>2.6</ele>
        <time>2021-05-18T13:45:58Z</time>
      </trkpt>
      <trkpt lat="41.8790690" lon="-8.8363610">
        <ele>2.6</ele>
        <time>2021-05-18T13:45:59Z</time>
      </trkpt>
      <trkpt lat="41.8790690" lon="-8.8363610">
        <ele>2.6</ele>
        <time>2021-05-18T13:46:00Z</time>
      </trkpt>
      <trkpt lat="41.8790690" lon="-8.8363610">
        <ele>2.6</ele>
        <time>2021-05-18T13:46:01Z</time>
      </trkpt>
      <trkpt lat="41.8790690" lon="-8.8363610">
        <ele>2.6</ele>
        <time>2021-05-18T13:46:02Z</time>
      </trkpt>
      <trkpt lat="41.8790690" lon="-8.8363610">
        <ele>2.6</ele>
        <time>2021-05-18T13:46:03Z</time>
      </trkpt>
      <trkpt lat="41.8790690" lon="-8.8363610">
        <ele>2.6</ele>
        <time>2021-05-18T13:46:04Z</time>
      </trkpt>
      <trkpt lat="41.8790690" lon="-8.8363610">
        <ele>2.6</ele>
        <time>2021-05-18T13:46:05Z</time>
      </trkpt>
      <trkpt lat="41.8790690" lon="-8.8363610">
        <ele>2.6</ele>
        <time>2021-05-18T13:46:06Z</time>
      </trkpt>
      <trkpt lat="41.8790690" lon="-8.8363610">
        <ele>2.6</ele>
        <time>2021-05-18T13:46:07Z</time>
      </trkpt>
      <trkpt lat="41.8790690" lon="-8.8363610">
        <ele>2.6</ele>
        <time>2021-05-18T13:46:08Z</time>
      </trkpt>
      <trkpt lat="41.8790690" lon="-8.8363610">
        <ele>2.6</ele>
        <time>2021-05-18T13:46:09Z</time>
      </trkpt>
      <trkpt lat="41.8790690" lon="-8.8363610">
        <ele>2.6</ele>
        <time>2021-05-18T13:46:10Z</time>
      </trkpt>
      <trkpt lat="41.8790690" lon="-8.8363610">
        <ele>2.6</ele>
        <time>2021-05-18T13:46:11Z</time>
      </trkpt>
      <trkpt lat="41.8790690" lon="-8.8363610">
        <ele>2.6</ele>
        <time>2021-05-18T13:46:12Z</time>
      </trkpt>
      <trkpt lat="41.8790690" lon="-8.8363610">
        <ele>2.6</ele>
        <time>2021-05-18T13:46:13Z</time>
      </trkpt>
      <trkpt lat="41.8790690" lon="-8.8363610">
        <ele>2.6</ele>
        <time>2021-05-18T13:46:14Z</time>
      </trkpt>
      <trkpt lat="41.8790690" lon="-8.8363610">
        <ele>2.6</ele>
        <time>2021-05-18T13:46:15Z</time>
      </trkpt>
      <trkpt lat="41.8790680" lon="-8.8363610">
        <ele>2.6</ele>
        <time>2021-05-18T13:46:16Z</time>
      </trkpt>
      <trkpt lat="41.8790680" lon="-8.8363600">
        <ele>2.6</ele>
        <time>2021-05-18T13:46:17Z</time>
      </trkpt>
      <trkpt lat="41.8790680" lon="-8.8363600">
        <ele>2.6</ele>
        <time>2021-05-18T13:46:18Z</time>
      </trkpt>
      <trkpt lat="41.8790680" lon="-8.8363600">
        <ele>2.6</ele>
        <time>2021-05-18T13:46:19Z</time>
      </trkpt>
      <trkpt lat="41.8790680" lon="-8.8363600">
        <ele>2.6</ele>
        <time>2021-05-18T13:46:20Z</time>
      </trkpt>
      <trkpt lat="41.8790680" lon="-8.8363600">
        <ele>2.6</ele>
        <time>2021-05-18T13:46:21Z</time>
      </trkpt>
      <trkpt lat="41.8790680" lon="-8.8363600">
        <ele>2.6</ele>
        <time>2021-05-18T13:46:22Z</time>
      </trkpt>
      <trkpt lat="41.8790680" lon="-8.8363600">
        <ele>2.6</ele>
        <time>2021-05-18T13:46:23Z</time>
      </trkpt>
      <trkpt lat="41.8790680" lon="-8.8363600">
        <ele>2.6</ele>
        <time>2021-05-18T13:46:24Z</time>
      </trkpt>
      <trkpt lat="41.8790680" lon="-8.8363600">
        <ele>2.6</ele>
        <time>2021-05-18T13:46:25Z</time>
      </trkpt>
      <trkpt lat="41.8790680" lon="-8.8363600">
        <ele>2.6</ele>
        <time>2021-05-18T13:46:26Z</time>
      </trkpt>
      <trkpt lat="41.8790680" lon="-8.8363600">
        <ele>2.6</ele>
        <time>2021-05-18T13:46:27Z</time>
      </trkpt>
      <trkpt lat="41.8790680" lon="-8.8363600">
        <ele>2.6</ele>
        <time>2021-05-18T13:46:28Z</time>
      </trkpt>
      <trkpt lat="41.8790680" lon="-8.8363600">
        <ele>2.6</ele>
        <time>2021-05-18T13:46:29Z</time>
      </trkpt>
      <trkpt lat="41.8790680" lon="-8.8363600">
        <ele>2.6</ele>
        <time>2021-05-18T13:46:30Z</time>
      </trkpt>
      <trkpt lat="41.8790680" lon="-8.8363600">
        <ele>2.6</ele>
        <time>2021-05-18T13:46:31Z</time>
      </trkpt>
      <trkpt lat="41.8790680" lon="-8.8363600">
        <ele>2.6</ele>
        <time>2021-05-18T13:46:32Z</time>
      </trkpt>
      <trkpt lat="41.8790680" lon="-8.8363600">
        <ele>2.6</ele>
        <time>2021-05-18T13:46:33Z</time>
      </trkpt>
      <trkpt lat="41.8790680" lon="-8.8363600">
        <ele>2.6</ele>
        <time>2021-05-18T13:46:34Z</time>
      </trkpt>
      <trkpt lat="41.8790680" lon="-8.8363600">
        <ele>2.6</ele>
        <time>2021-05-18T13:46:35Z</time>
      </trkpt>
      <trkpt lat="41.8790680" lon="-8.8363600">
        <ele>2.6</ele>
        <time>2021-05-18T13:46:36Z</time>
      </trkpt>
      <trkpt lat="41.8790680" lon="-8.8363600">
        <ele>2.6</ele>
        <time>2021-05-18T13:46:37Z</time>
      </trkpt>
      <trkpt lat="41.8790670" lon="-8.8363600">
        <ele>2.6</ele>
        <time>2021-05-18T13:46:38Z</time>
      </trkpt>
      <trkpt lat="41.8790670" lon="-8.8363600">
        <ele>2.6</ele>
        <time>2021-05-18T13:46:39Z</time>
      </trkpt>
      <trkpt lat="41.8790670" lon="-8.8363600">
        <ele>2.6</ele>
        <time>2021-05-18T13:46:40Z</time>
      </trkpt>
      <trkpt lat="41.8790670" lon="-8.8363600">
        <ele>2.6</ele>
        <time>2021-05-18T13:46:41Z</time>
      </trkpt>
      <trkpt lat="41.8790670" lon="-8.8363600">
        <ele>2.6</ele>
        <time>2021-05-18T13:46:42Z</time>
      </trkpt>
      <trkpt lat="41.8790670" lon="-8.8363600">
        <ele>2.6</ele>
        <time>2021-05-18T13:46:43Z</time>
      </trkpt>
      <trkpt lat="41.8790670" lon="-8.8363600">
        <ele>2.6</ele>
        <time>2021-05-18T13:46:44Z</time>
      </trkpt>
      <trkpt lat="41.8790670" lon="-8.8363600">
        <ele>2.6</ele>
        <time>2021-05-18T13:46:45Z</time>
      </trkpt>
      <trkpt lat="41.8790670" lon="-8.8363600">
        <ele>2.6</ele>
        <time>2021-05-18T13:46:46Z</time>
      </trkpt>
      <trkpt lat="41.8790670" lon="-8.8363590">
        <ele>2.6</ele>
        <time>2021-05-18T13:46:47Z</time>
      </trkpt>
      <trkpt lat="41.8790670" lon="-8.8363590">
        <ele>2.6</ele>
        <time>2021-05-18T13:46:48Z</time>
      </trkpt>
      <trkpt lat="41.8790670" lon="-8.8363590">
        <ele>2.6</ele>
        <time>2021-05-18T13:46:49Z</time>
      </trkpt>
      <trkpt lat="41.8790670" lon="-8.8363590">
        <ele>2.6</ele>
        <time>2021-05-18T13:46:50Z</time>
      </trkpt>
      <trkpt lat="41.8790670" lon="-8.8363590">
        <ele>2.6</ele>
        <time>2021-05-18T13:46:51Z</time>
      </trkpt>
      <trkpt lat="41.8790670" lon="-8.8363590">
        <ele>2.6</ele>
        <time>2021-05-18T13:46:52Z</time>
      </trkpt>
      <trkpt lat="41.8790670" lon="-8.8363590">
        <ele>2.6</ele>
        <time>2021-05-18T13:46:53Z</time>
      </trkpt>
      <trkpt lat="41.8790670" lon="-8.8363590">
        <ele>2.6</ele>
        <time>2021-05-18T13:46:54Z</time>
      </trkpt>
      <trkpt lat="41.8790670" lon="-8.8363590">
        <ele>2.6</ele>
        <time>2021-05-18T13:46:55Z</time>
      </trkpt>
      <trkpt lat="41.8790670" lon="-8.8363590">
        <ele>2.6</ele>
        <time>2021-05-18T13:46:56Z</time>
      </trkpt>
      <trkpt lat="41.8790670" lon="-8.8363590">
        <ele>2.6</ele>
        <time>2021-05-18T13:46:57Z</time>
      </trkpt>
      <trkpt lat="41.8790670" lon="-8.8363590">
        <ele>2.6</ele>
        <time>2021-05-18T13:46:58Z</time>
      </trkpt>
      <trkpt lat="41.8790660" lon="-8.8363590">
        <ele>2.6</ele>
        <time>2021-05-18T13:46:59Z</time>
      </trkpt>
      <trkpt lat="41.8790660" lon="-8.8363590">
        <ele>2.6</ele>
        <time>2021-05-18T13:47:00Z</time>
      </trkpt>
      <trkpt lat="41.8790660" lon="-8.8363590">
        <ele>2.6</ele>
        <time>2021-05-18T13:47:01Z</time>
      </trkpt>
      <trkpt lat="41.8790660" lon="-8.8363590">
        <ele>2.6</ele>
        <time>2021-05-18T13:47:02Z</time>
      </trkpt>
      <trkpt lat="41.8790660" lon="-8.8363590">
        <ele>2.6</ele>
        <time>2021-05-18T13:47:03Z</time>
      </trkpt>
      <trkpt lat="41.8790660" lon="-8.8363590">
        <ele>2.6</ele>
        <time>2021-05-18T13:47:04Z</time>
      </trkpt>
      <trkpt lat="41.8790660" lon="-8.8363590">
        <ele>2.6</ele>
        <time>2021-05-18T13:47:05Z</time>
      </trkpt>
      <trkpt lat="41.8790660" lon="-8.8363590">
        <ele>2.6</ele>
        <time>2021-05-18T13:47:06Z</time>
      </trkpt>
      <trkpt lat="41.8790660" lon="-8.8363590">
        <ele>2.6</ele>
        <time>2021-05-18T13:47:07Z</time>
      </trkpt>
      <trkpt lat="41.8790660" lon="-8.8363590">
        <ele>2.6</ele>
        <time>2021-05-18T13:47:08Z</time>
      </trkpt>
      <trkpt lat="41.8790660" lon="-8.8363590">
        <ele>2.6</ele>
        <time>2021-05-18T13:47:09Z</time>
      </trkpt>
      <trkpt lat="41.8790660" lon="-8.8363590">
        <ele>2.6</ele>
        <time>2021-05-18T13:47:10Z</time>
      </trkpt>
      <trkpt lat="41.8790660" lon="-8.8363590">
        <ele>2.6</ele>
        <time>2021-05-18T13:47:11Z</time>
      </trkpt>
      <trkpt lat="41.8790660" lon="-8.8363590">
        <ele>2.6</ele>
        <time>2021-05-18T13:47:12Z</time>
      </trkpt>
      <trkpt lat="41.8790660" lon="-8.8363590">
        <ele>2.6</ele>
        <time>2021-05-18T13:47:13Z</time>
      </trkpt>
      <trkpt lat="41.8790660" lon="-8.8363590">
        <ele>2.6</ele>
        <time>2021-05-18T13:47:14Z</time>
      </trkpt>
      <trkpt lat="41.8790660" lon="-8.8363590">
        <ele>2.6</ele>
        <time>2021-05-18T13:47:15Z</time>
      </trkpt>
      <trkpt lat="41.8790660" lon="-8.8363590">
        <ele>2.6</ele>
        <time>2021-05-18T13:47:16Z</time>
      </trkpt>
      <trkpt lat="41.8790660" lon="-8.8363580">
        <ele>2.6</ele>
        <time>2021-05-18T13:47:17Z</time>
      </trkpt>
      <trkpt lat="41.8790660" lon="-8.8363580">
        <ele>2.6</ele>
        <time>2021-05-18T13:47:18Z</time>
      </trkpt>
      <trkpt lat="41.8790660" lon="-8.8363580">
        <ele>2.6</ele>
        <time>2021-05-18T13:47:19Z</time>
      </trkpt>
      <trkpt lat="41.8790650" lon="-8.8363580">
        <ele>2.6</ele>
        <time>2021-05-18T13:47:20Z</time>
      </trkpt>
      <trkpt lat="41.8790650" lon="-8.8363580">
        <ele>2.6</ele>
        <time>2021-05-18T13:47:21Z</time>
      </trkpt>
      <trkpt lat="41.8790650" lon="-8.8363580">
        <ele>2.6</ele>
        <time>2021-05-18T13:47:22Z</time>
      </trkpt>
      <trkpt lat="41.8790650" lon="-8.8363580">
        <ele>2.6</ele>
        <time>2021-05-18T13:47:23Z</time>
      </trkpt>
      <trkpt lat="41.8790650" lon="-8.8363580">
        <ele>2.6</ele>
        <time>2021-05-18T13:47:24Z</time>
      </trkpt>
      <trkpt lat="41.8790650" lon="-8.8363580">
        <ele>2.6</ele>
        <time>2021-05-18T13:47:25Z</time>
      </trkpt>
      <trkpt lat="41.8790650" lon="-8.8363580">
        <ele>2.6</ele>
        <time>2021-05-18T13:47:26Z</time>
      </trkpt>
      <trkpt lat="41.8790650" lon="-8.8363580">
        <ele>2.6</ele>
        <time>2021-05-18T13:47:27Z</time>
      </trkpt>
      <trkpt lat="41.8790650" lon="-8.8363580">
        <ele>2.6</ele>
        <time>2021-05-18T13:47:28Z</time>
      </trkpt>
      <trkpt lat="41.8790650" lon="-8.8363580">
        <ele>2.6</ele>
        <time>2021-05-18T13:47:29Z</time>
      </trkpt>
      <trkpt lat="41.8790650" lon="-8.8363580">
        <ele>2.6</ele>
        <time>2021-05-18T13:47:30Z</time>
      </trkpt>
      <trkpt lat="41.8790650" lon="-8.8363580">
        <ele>2.6</ele>
        <time>2021-05-18T13:47:31Z</time>
      </trkpt>
      <trkpt lat="41.8790650" lon="-8.8363580">
        <ele>2.6</ele>
        <time>2021-05-18T13:47:32Z</time>
      </trkpt>
      <trkpt lat="41.8790650" lon="-8.8363580">
        <ele>2.6</ele>
        <time>2021-05-18T13:47:33Z</time>
      </trkpt>
      <trkpt lat="41.8790650" lon="-8.8363580">
        <ele>2.6</ele>
        <time>2021-05-18T13:47:34Z</time>
      </trkpt>
      <trkpt lat="41.8790650" lon="-8.8363580">
        <ele>2.6</ele>
        <time>2021-05-18T13:47:35Z</time>
      </trkpt>
      <trkpt lat="41.8790650" lon="-8.8363580">
        <ele>2.6</ele>
        <time>2021-05-18T13:47:36Z</time>
      </trkpt>
      <trkpt lat="41.8790650" lon="-8.8363580">
        <ele>2.6</ele>
        <time>2021-05-18T13:47:37Z</time>
      </trkpt>
      <trkpt lat="41.8790650" lon="-8.8363580">
        <ele>2.6</ele>
        <time>2021-05-18T13:47:38Z</time>
      </trkpt>
      <trkpt lat="41.8790650" lon="-8.8363580">
        <ele>2.6</ele>
        <time>2021-05-18T13:47:39Z</time>
      </trkpt>
      <trkpt lat="41.8790650" lon="-8.8363580">
        <ele>2.6</ele>
        <time>2021-05-18T13:47:40Z</time>
      </trkpt>
      <trkpt lat="41.8790640" lon="-8.8363580">
        <ele>2.6</ele>
        <time>2021-05-18T13:47:41Z</time>
      </trkpt>
      <trkpt lat="41.8790640" lon="-8.8363580">
        <ele>2.6</ele>
        <time>2021-05-18T13:47:42Z</time>
      </trkpt>
      <trkpt lat="41.8790640" lon="-8.8363580">
        <ele>2.6</ele>
        <time>2021-05-18T13:47:43Z</time>
      </trkpt>
      <trkpt lat="41.8790640" lon="-8.8363580">
        <ele>2.6</ele>
        <time>2021-05-18T13:47:44Z</time>
      </trkpt>
      <trkpt lat="41.8790640" lon="-8.8363580">
        <ele>2.6</ele>
        <time>2021-05-18T13:47:45Z</time>
      </trkpt>
      <trkpt lat="41.8790640" lon="-8.8363580">
        <ele>2.6</ele>
        <time>2021-05-18T13:47:46Z</time>
      </trkpt>
      <trkpt lat="41.8790640" lon="-8.8363570">
        <ele>2.6</ele>
        <time>2021-05-18T13:47:47Z</time>
      </trkpt>
      <trkpt lat="41.8790640" lon="-8.8363570">
        <ele>2.6</ele>
        <time>2021-05-18T13:47:48Z</time>
      </trkpt>
      <trkpt lat="41.8790640" lon="-8.8363570">
        <ele>2.6</ele>
        <time>2021-05-18T13:47:49Z</time>
      </trkpt>
      <trkpt lat="41.8790640" lon="-8.8363570">
        <ele>2.6</ele>
        <time>2021-05-18T13:47:50Z</time>
      </trkpt>
      <trkpt lat="41.8790640" lon="-8.8363570">
        <ele>2.6</ele>
        <time>2021-05-18T13:47:51Z</time>
      </trkpt>
      <trkpt lat="41.8790640" lon="-8.8363570">
        <ele>2.6</ele>
        <time>2021-05-18T13:47:52Z</time>
      </trkpt>
      <trkpt lat="41.8790640" lon="-8.8363570">
        <ele>2.6</ele>
        <time>2021-05-18T13:47:53Z</time>
      </trkpt>
      <trkpt lat="41.8790640" lon="-8.8363570">
        <ele>2.6</ele>
        <time>2021-05-18T13:47:54Z</time>
      </trkpt>
      <trkpt lat="41.8790640" lon="-8.8363570">
        <ele>2.6</ele>
        <time>2021-05-18T13:47:55Z</time>
      </trkpt>
      <trkpt lat="41.8790640" lon="-8.8363570">
        <ele>2.6</ele>
        <time>2021-05-18T13:47:56Z</time>
      </trkpt>
      <trkpt lat="41.8790640" lon="-8.8363570">
        <ele>2.6</ele>
        <time>2021-05-18T13:47:57Z</time>
      </trkpt>
      <trkpt lat="41.8790640" lon="-8.8363570">
        <ele>2.6</ele>
        <time>2021-05-18T13:47:58Z</time>
      </trkpt>
      <trkpt lat="41.8790640" lon="-8.8363570">
        <ele>2.6</ele>
        <time>2021-05-18T13:47:59Z</time>
      </trkpt>
      <trkpt lat="41.8790640" lon="-8.8363570">
        <ele>2.6</ele>
        <time>2021-05-18T13:48:00Z</time>
      </trkpt>
      <trkpt lat="41.8790640" lon="-8.8363570">
        <ele>2.6</ele>
        <time>2021-05-18T13:48:01Z</time>
      </trkpt>
      <trkpt lat="41.8790630" lon="-8.8363570">
        <ele>2.6</ele>
        <time>2021-05-18T13:48:02Z</time>
      </trkpt>
      <trkpt lat="41.8790630" lon="-8.8363570">
        <ele>2.6</ele>
        <time>2021-05-18T13:48:03Z</time>
      </trkpt>
      <trkpt lat="41.8790630" lon="-8.8363570">
        <ele>2.6</ele>
        <time>2021-05-18T13:48:04Z</time>
      </trkpt>
      <trkpt lat="41.8790630" lon="-8.8363570">
        <ele>2.6</ele>
        <time>2021-05-18T13:48:05Z</time>
      </trkpt>
      <trkpt lat="41.8790630" lon="-8.8363570">
        <ele>2.6</ele>
        <time>2021-05-18T13:48:06Z</time>
      </trkpt>
      <trkpt lat="41.8790630" lon="-8.8363570">
        <ele>2.6</ele>
        <time>2021-05-18T13:48:07Z</time>
      </trkpt>
      <trkpt lat="41.8790630" lon="-8.8363570">
        <ele>2.6</ele>
        <time>2021-05-18T13:48:08Z</time>
      </trkpt>
      <trkpt lat="41.8790630" lon="-8.8363570">
        <ele>2.6</ele>
        <time>2021-05-18T13:48:09Z</time>
      </trkpt>
      <trkpt lat="41.8790630" lon="-8.8363570">
        <ele>2.6</ele>
        <time>2021-05-18T13:48:10Z</time>
      </trkpt>
      <trkpt lat="41.8790630" lon="-8.8363570">
        <ele>2.6</ele>
        <time>2021-05-18T13:48:11Z</time>
      </trkpt>
      <trkpt lat="41.8790630" lon="-8.8363570">
        <ele>2.6</ele>
        <time>2021-05-18T13:48:12Z</time>
      </trkpt>
      <trkpt lat="41.8790630" lon="-8.8363570">
        <ele>2.6</ele>
        <time>2021-05-18T13:48:13Z</time>
      </trkpt>
      <trkpt lat="41.8790630" lon="-8.8363570">
        <ele>2.6</ele>
        <time>2021-05-18T13:48:14Z</time>
      </trkpt>
      <trkpt lat="41.8790630" lon="-8.8363570">
        <ele>2.6</ele>
        <time>2021-05-18T13:48:15Z</time>
      </trkpt>
      <trkpt lat="41.8790630" lon="-8.8363570">
        <ele>2.6</ele>
        <time>2021-05-18T13:48:16Z</time>
      </trkpt>
      <trkpt lat="41.8790630" lon="-8.8363560">
        <ele>2.6</ele>
        <time>2021-05-18T13:48:17Z</time>
      </trkpt>
      <trkpt lat="41.8790630" lon="-8.8363560">
        <ele>2.6</ele>
        <time>2021-05-18T13:48:18Z</time>
      </trkpt>
      <trkpt lat="41.8790630" lon="-8.8363560">
        <ele>2.6</ele>
        <time>2021-05-18T13:48:19Z</time>
      </trkpt>
      <trkpt lat="41.8790630" lon="-8.8363560">
        <ele>2.6</ele>
        <time>2021-05-18T13:48:20Z</time>
      </trkpt>
      <trkpt lat="41.8790630" lon="-8.8363560">
        <ele>2.6</ele>
        <time>2021-05-18T13:48:21Z</time>
      </trkpt>
      <trkpt lat="41.8790630" lon="-8.8363560">
        <ele>2.6</ele>
        <time>2021-05-18T13:48:22Z</time>
      </trkpt>
      <trkpt lat="41.8790620" lon="-8.8363560">
        <ele>2.6</ele>
        <time>2021-05-18T13:48:23Z</time>
      </trkpt>
      <trkpt lat="41.8790620" lon="-8.8363560">
        <ele>2.6</ele>
        <time>2021-05-18T13:48:24Z</time>
      </trkpt>
      <trkpt lat="41.8790620" lon="-8.8363560">
        <ele>2.6</ele>
        <time>2021-05-18T13:48:25Z</time>
      </trkpt>
      <trkpt lat="41.8790620" lon="-8.8363560">
        <ele>2.6</ele>
        <time>2021-05-18T13:48:26Z</time>
      </trkpt>
      <trkpt lat="41.8790620" lon="-8.8363560">
        <ele>2.6</ele>
        <time>2021-05-18T13:48:27Z</time>
      </trkpt>
      <trkpt lat="41.8790620" lon="-8.8363560">
        <ele>2.6</ele>
        <time>2021-05-18T13:48:28Z</time>
      </trkpt>
      <trkpt lat="41.8790620" lon="-8.8363560">
        <ele>2.6</ele>
        <time>2021-05-18T13:48:29Z</time>
      </trkpt>
      <trkpt lat="41.8790620" lon="-8.8363560">
        <ele>2.6</ele>
        <time>2021-05-18T13:48:30Z</time>
      </trkpt>
      <trkpt lat="41.8790620" lon="-8.8363560">
        <ele>2.6</ele>
        <time>2021-05-18T13:48:31Z</time>
      </trkpt>
      <trkpt lat="41.8790620" lon="-8.8363560">
        <ele>2.6</ele>
        <time>2021-05-18T13:48:32Z</time>
      </trkpt>
      <trkpt lat="41.8790620" lon="-8.8363560">
        <ele>2.6</ele>
        <time>2021-05-18T13:48:33Z</time>
      </trkpt>
      <trkpt lat="41.8790620" lon="-8.8363560">
        <ele>2.6</ele>
        <time>2021-05-18T13:48:34Z</time>
      </trkpt>
      <trkpt lat="41.8790620" lon="-8.8363560">
        <ele>2.6</ele>
        <time>2021-05-18T13:48:35Z</time>
      </trkpt>
      <trkpt lat="41.8790620" lon="-8.8363560">
        <ele>2.6</ele>
        <time>2021-05-18T13:48:36Z</time>
      </trkpt>
      <trkpt lat="41.8790620" lon="-8.8363560">
        <ele>2.6</ele>
        <time>2021-05-18T13:48:37Z</time>
      </trkpt>
      <trkpt lat="41.8790620" lon="-8.8363560">
        <ele>2.6</ele>
        <time>2021-05-18T13:48:38Z</time>
      </trkpt>
      <trkpt lat="41.8790620" lon="-8.8363560">
        <ele>2.6</ele>
        <time>2021-05-18T13:48:39Z</time>
      </trkpt>
      <trkpt lat="41.8790620" lon="-8.8363560">
        <ele>2.6</ele>
        <time>2021-05-18T13:48:40Z</time>
      </trkpt>
      <trkpt lat="41.8790620" lon="-8.8363560">
        <ele>2.6</ele>
        <time>2021-05-18T13:48:41Z</time>
      </trkpt>
      <trkpt lat="41.8790620" lon="-8.8363560">
        <ele>2.6</ele>
        <time>2021-05-18T13:48:42Z</time>
      </trkpt>
      <trkpt lat="41.8790620" lon="-8.8363560">
        <ele>2.6</ele>
        <time>2021-05-18T13:48:43Z</time>
      </trkpt>
      <trkpt lat="41.8790610" lon="-8.8363560">
        <ele>2.6</ele>
        <time>2021-05-18T13:48:44Z</time>
      </trkpt>
      <trkpt lat="41.8790610" lon="-8.8363560">
        <ele>2.6</ele>
        <time>2021-05-18T13:48:45Z</time>
      </trkpt>
      <trkpt lat="41.8790610" lon="-8.8363560">
        <ele>2.6</ele>
        <time>2021-05-18T13:48:46Z</time>
      </trkpt>
      <trkpt lat="41.8790610" lon="-8.8363550">
        <ele>2.6</ele>
        <time>2021-05-18T13:48:47Z</time>
      </trkpt>
      <trkpt lat="41.8790610" lon="-8.8363550">
        <ele>2.6</ele>
        <time>2021-05-18T13:48:48Z</time>
      </trkpt>
      <trkpt lat="41.8790610" lon="-8.8363550">
        <ele>2.6</ele>
        <time>2021-05-18T13:48:49Z</time>
      </trkpt>
      <trkpt lat="41.8790610" lon="-8.8363550">
        <ele>2.6</ele>
        <time>2021-05-18T13:48:50Z</time>
      </trkpt>
      <trkpt lat="41.8790610" lon="-8.8363550">
        <ele>2.6</ele>
        <time>2021-05-18T13:48:51Z</time>
      </trkpt>
      <trkpt lat="41.8790610" lon="-8.8363550">
        <ele>2.6</ele>
        <time>2021-05-18T13:48:52Z</time>
      </trkpt>
      <trkpt lat="41.8790610" lon="-8.8363550">
        <ele>2.6</ele>
        <time>2021-05-18T13:48:53Z</time>
      </trkpt>
      <trkpt lat="41.8790610" lon="-8.8363550">
        <ele>2.6</ele>
        <time>2021-05-18T13:48:54Z</time>
      </trkpt>
      <trkpt lat="41.8790610" lon="-8.8363550">
        <ele>2.6</ele>
        <time>2021-05-18T13:48:55Z</time>
      </trkpt>
      <trkpt lat="41.8790610" lon="-8.8363550">
        <ele>2.6</ele>
        <time>2021-05-18T13:48:56Z</time>
      </trkpt>
      <trkpt lat="41.8790610" lon="-8.8363550">
        <ele>2.6</ele>
        <time>2021-05-18T13:48:57Z</time>
      </trkpt>
      <trkpt lat="41.8790610" lon="-8.8363550">
        <ele>2.6</ele>
        <time>2021-05-18T13:48:58Z</time>
      </trkpt>
      <trkpt lat="41.8790610" lon="-8.8363550">
        <ele>2.6</ele>
        <time>2021-05-18T13:48:59Z</time>
      </trkpt>
      <trkpt lat="41.8790610" lon="-8.8363550">
        <ele>2.6</ele>
        <time>2021-05-18T13:49:00Z</time>
      </trkpt>
      <trkpt lat="41.8790610" lon="-8.8363550">
        <ele>2.6</ele>
        <time>2021-05-18T13:49:01Z</time>
      </trkpt>
      <trkpt lat="41.8790610" lon="-8.8363550">
        <ele>2.6</ele>
        <time>2021-05-18T13:49:02Z</time>
      </trkpt>
      <trkpt lat="41.8790610" lon="-8.8363550">
        <ele>2.6</ele>
        <time>2021-05-18T13:49:03Z</time>
      </trkpt>
      <trkpt lat="41.8790610" lon="-8.8363550">
        <ele>2.6</ele>
        <time>2021-05-18T13:49:04Z</time>
      </trkpt>
      <trkpt lat="41.8790600" lon="-8.8363550">
        <ele>2.6</ele>
        <time>2021-05-18T13:49:05Z</time>
      </trkpt>
      <trkpt lat="41.8790600" lon="-8.8363550">
        <ele>2.6</ele>
        <time>2021-05-18T13:49:06Z</time>
      </trkpt>
      <trkpt lat="41.8790600" lon="-8.8363550">
        <ele>2.6</ele>
        <time>2021-05-18T13:49:07Z</time>
      </trkpt>
      <trkpt lat="41.8790600" lon="-8.8363550">
        <ele>2.6</ele>
        <time>2021-05-18T13:49:08Z</time>
      </trkpt>
      <trkpt lat="41.8790600" lon="-8.8363550">
        <ele>2.6</ele>
        <time>2021-05-18T13:49:09Z</time>
      </trkpt>
      <trkpt lat="41.8790600" lon="-8.8363550">
        <ele>2.6</ele>
        <time>2021-05-18T13:49:10Z</time>
      </trkpt>
      <trkpt lat="41.8790600" lon="-8.8363550">
        <ele>2.6</ele>
        <time>2021-05-18T13:49:11Z</time>
      </trkpt>
      <trkpt lat="41.8790600" lon="-8.8363550">
        <ele>2.6</ele>
        <time>2021-05-18T13:49:12Z</time>
      </trkpt>
      <trkpt lat="41.8790600" lon="-8.8363550">
        <ele>2.6</ele>
        <time>2021-05-18T13:49:13Z</time>
      </trkpt>
      <trkpt lat="41.8790600" lon="-8.8363550">
        <ele>2.6</ele>
        <time>2021-05-18T13:49:14Z</time>
      </trkpt>
      <trkpt lat="41.8790600" lon="-8.8363550">
        <ele>2.6</ele>
        <time>2021-05-18T13:49:15Z</time>
      </trkpt>
      <trkpt lat="41.8790600" lon="-8.8363550">
        <ele>2.6</ele>
        <time>2021-05-18T13:49:16Z</time>
      </trkpt>
      <trkpt lat="41.8790600" lon="-8.8363540">
        <ele>2.6</ele>
        <time>2021-05-18T13:49:17Z</time>
      </trkpt>
      <trkpt lat="41.8790600" lon="-8.8363540">
        <ele>2.6</ele>
        <time>2021-05-18T13:49:18Z</time>
      </trkpt>
      <trkpt lat="41.8790600" lon="-8.8363540">
        <ele>2.6</ele>
        <time>2021-05-18T13:49:19Z</time>
      </trkpt>
      <trkpt lat="41.8790600" lon="-8.8363540">
        <ele>2.6</ele>
        <time>2021-05-18T13:49:20Z</time>
      </trkpt>
      <trkpt lat="41.8790600" lon="-8.8363540">
        <ele>2.6</ele>
        <time>2021-05-18T13:49:21Z</time>
      </trkpt>
      <trkpt lat="41.8790600" lon="-8.8363540">
        <ele>2.6</ele>
        <time>2021-05-18T13:49:22Z</time>
      </trkpt>
      <trkpt lat="41.8790600" lon="-8.8363540">
        <ele>2.6</ele>
        <time>2021-05-18T13:49:23Z</time>
      </trkpt>
      <trkpt lat="41.8790600" lon="-8.8363540">
        <ele>2.6</ele>
        <time>2021-05-18T13:49:24Z</time>
      </trkpt>
      <trkpt lat="41.8790600" lon="-8.8363540">
        <ele>2.6</ele>
        <time>2021-05-18T13:49:25Z</time>
      </trkpt>
      <trkpt lat="41.8790590" lon="-8.8363540">
        <ele>2.6</ele>
        <time>2021-05-18T13:49:26Z</time>
      </trkpt>
      <trkpt lat="41.8790590" lon="-8.8363540">
        <ele>2.6</ele>
        <time>2021-05-18T13:49:27Z</time>
      </trkpt>
      <trkpt lat="41.8790590" lon="-8.8363540">
        <ele>2.6</ele>
        <time>2021-05-18T13:49:28Z</time>
      </trkpt>
      <trkpt lat="41.8790590" lon="-8.8363540">
        <ele>2.6</ele>
        <time>2021-05-18T13:49:29Z</time>
      </trkpt>
      <trkpt lat="41.8790590" lon="-8.8363540">
        <ele>2.6</ele>
        <time>2021-05-18T13:49:30Z</time>
      </trkpt>
      <trkpt lat="41.8790590" lon="-8.8363540">
        <ele>2.6</ele>
        <time>2021-05-18T13:49:31Z</time>
      </trkpt>
      <trkpt lat="41.8790590" lon="-8.8363540">
        <ele>2.6</ele>
        <time>2021-05-18T13:49:32Z</time>
      </trkpt>
      <trkpt lat="41.8790590" lon="-8.8363540">
        <ele>2.6</ele>
        <time>2021-05-18T13:49:33Z</time>
      </trkpt>
      <trkpt lat="41.8790590" lon="-8.8363540">
        <ele>2.6</ele>
        <time>2021-05-18T13:49:34Z</time>
      </trkpt>
      <trkpt lat="41.8790590" lon="-8.8363540">
        <ele>2.6</ele>
        <time>2021-05-18T13:49:35Z</time>
      </trkpt>
      <trkpt lat="41.8790590" lon="-8.8363540">
        <ele>2.6</ele>
        <time>2021-05-18T13:49:36Z</time>
      </trkpt>
      <trkpt lat="41.8790590" lon="-8.8363540">
        <ele>2.6</ele>
        <time>2021-05-18T13:49:37Z</time>
      </trkpt>
      <trkpt lat="41.8790590" lon="-8.8363540">
        <ele>2.6</ele>
        <time>2021-05-18T13:49:38Z</time>
      </trkpt>
      <trkpt lat="41.8790590" lon="-8.8363540">
        <ele>2.6</ele>
        <time>2021-05-18T13:49:39Z</time>
      </trkpt>
      <trkpt lat="41.8790590" lon="-8.8363540">
        <ele>2.6</ele>
        <time>2021-05-18T13:49:40Z</time>
      </trkpt>
      <trkpt lat="41.8790590" lon="-8.8363540">
        <ele>2.6</ele>
        <time>2021-05-18T13:49:41Z</time>
      </trkpt>
      <trkpt lat="41.8790590" lon="-8.8363540">
        <ele>2.6</ele>
        <time>2021-05-18T13:49:42Z</time>
      </trkpt>
      <trkpt lat="41.8790590" lon="-8.8363540">
        <ele>2.6</ele>
        <time>2021-05-18T13:49:43Z</time>
      </trkpt>
      <trkpt lat="41.8790590" lon="-8.8363540">
        <ele>2.6</ele>
        <time>2021-05-18T13:49:44Z</time>
      </trkpt>
      <trkpt lat="41.8790590" lon="-8.8363540">
        <ele>2.6</ele>
        <time>2021-05-18T13:49:45Z</time>
      </trkpt>
      <trkpt lat="41.8790590" lon="-8.8363540">
        <ele>2.6</ele>
        <time>2021-05-18T13:49:46Z</time>
      </trkpt>
      <trkpt lat="41.8790590" lon="-8.8363530">
        <ele>2.6</ele>
        <time>2021-05-18T13:49:47Z</time>
      </trkpt>
      <trkpt lat="41.8790580" lon="-8.8363530">
        <ele>2.6</ele>
        <time>2021-05-18T13:49:48Z</time>
      </trkpt>
      <trkpt lat="41.8790580" lon="-8.8363530">
        <ele>2.6</ele>
        <time>2021-05-18T13:49:49Z</time>
      </trkpt>
      <trkpt lat="41.8790580" lon="-8.8363530">
        <ele>2.6</ele>
        <time>2021-05-18T13:49:50Z</time>
      </trkpt>
      <trkpt lat="41.8790580" lon="-8.8363530">
        <ele>2.6</ele>
        <time>2021-05-18T13:49:51Z</time>
      </trkpt>
      <trkpt lat="41.8790580" lon="-8.8363530">
        <ele>2.6</ele>
        <time>2021-05-18T13:49:52Z</time>
      </trkpt>
      <trkpt lat="41.8790580" lon="-8.8363530">
        <ele>2.6</ele>
        <time>2021-05-18T13:49:53Z</time>
      </trkpt>
      <trkpt lat="41.8790580" lon="-8.8363530">
        <ele>2.6</ele>
        <time>2021-05-18T13:49:54Z</time>
      </trkpt>
      <trkpt lat="41.8790580" lon="-8.8363530">
        <ele>2.6</ele>
        <time>2021-05-18T13:49:55Z</time>
      </trkpt>
      <trkpt lat="41.8790580" lon="-8.8363530">
        <ele>2.6</ele>
        <time>2021-05-18T13:49:56Z</time>
      </trkpt>
      <trkpt lat="41.8790580" lon="-8.8363530">
        <ele>2.6</ele>
        <time>2021-05-18T13:49:57Z</time>
      </trkpt>
      <trkpt lat="41.8790580" lon="-8.8363530">
        <ele>2.6</ele>
        <time>2021-05-18T13:49:58Z</time>
      </trkpt>
      <trkpt lat="41.8790580" lon="-8.8363530">
        <ele>2.6</ele>
        <time>2021-05-18T13:49:59Z</time>
      </trkpt>
      <trkpt lat="41.8790580" lon="-8.8363530">
        <ele>2.6</ele>
        <time>2021-05-18T13:50:00Z</time>
      </trkpt>
      <trkpt lat="41.8790580" lon="-8.8363530">
        <ele>2.6</ele>
        <time>2021-05-18T13:50:01Z</time>
      </trkpt>
      <trkpt lat="41.8790580" lon="-8.8363530">
        <ele>2.6</ele>
        <time>2021-05-18T13:50:02Z</time>
      </trkpt>
      <trkpt lat="41.8790580" lon="-8.8363530">
        <ele>2.6</ele>
        <time>2021-05-18T13:50:03Z</time>
      </trkpt>
      <trkpt lat="41.8790580" lon="-8.8363530">
        <ele>2.6</ele>
        <time>2021-05-18T13:50:04Z</time>
      </trkpt>
      <trkpt lat="41.8790580" lon="-8.8363530">
        <ele>2.6</ele>
        <time>2021-05-18T13:50:05Z</time>
      </trkpt>
      <trkpt lat="41.8790580" lon="-8.8363530">
        <ele>2.6</ele>
        <time>2021-05-18T13:50:06Z</time>
      </trkpt>
      <trkpt lat="41.8790580" lon="-8.8363530">
        <ele>2.6</ele>
        <time>2021-05-18T13:50:07Z</time>
      </trkpt>
      <trkpt lat="41.8790580" lon="-8.8363530">
        <ele>2.6</ele>
        <time>2021-05-18T13:50:08Z</time>
      </trkpt>
      <trkpt lat="41.8790570" lon="-8.8363530">
        <ele>2.6</ele>
        <time>2021-05-18T13:50:09Z</time>
      </trkpt>
      <trkpt lat="41.8790570" lon="-8.8363530">
        <ele>2.6</ele>
        <time>2021-05-18T13:50:10Z</time>
      </trkpt>
      <trkpt lat="41.8790570" lon="-8.8363530">
        <ele>2.6</ele>
        <time>2021-05-18T13:50:11Z</time>
      </trkpt>
      <trkpt lat="41.8790570" lon="-8.8363530">
        <ele>2.6</ele>
        <time>2021-05-18T13:50:12Z</time>
      </trkpt>
      <trkpt lat="41.8790570" lon="-8.8363530">
        <ele>2.6</ele>
        <time>2021-05-18T13:50:13Z</time>
      </trkpt>
      <trkpt lat="41.8790570" lon="-8.8363530">
        <ele>2.6</ele>
        <time>2021-05-18T13:50:14Z</time>
      </trkpt>
      <trkpt lat="41.8790570" lon="-8.8363530">
        <ele>2.6</ele>
        <time>2021-05-18T13:50:15Z</time>
      </trkpt>
      <trkpt lat="41.8790570" lon="-8.8363530">
        <ele>2.6</ele>
        <time>2021-05-18T13:50:16Z</time>
      </trkpt>
      <trkpt lat="41.8790570" lon="-8.8363520">
        <ele>2.6</ele>
        <time>2021-05-18T13:50:17Z</time>
      </trkpt>
      <trkpt lat="41.8790570" lon="-8.8363520">
        <ele>2.6</ele>
        <time>2021-05-18T13:50:18Z</time>
      </trkpt>
      <trkpt lat="41.8790570" lon="-8.8363520">
        <ele>2.6</ele>
        <time>2021-05-18T13:50:19Z</time>
      </trkpt>
      <trkpt lat="41.8790570" lon="-8.8363520">
        <ele>2.6</ele>
        <time>2021-05-18T13:50:20Z</time>
      </trkpt>
      <trkpt lat="41.8790570" lon="-8.8363520">
        <ele>2.6</ele>
        <time>2021-05-18T13:50:21Z</time>
      </trkpt>
      <trkpt lat="41.8790570" lon="-8.8363520">
        <ele>2.6</ele>
        <time>2021-05-18T13:50:22Z</time>
      </trkpt>
      <trkpt lat="41.8790570" lon="-8.8363520">
        <ele>2.6</ele>
        <time>2021-05-18T13:50:23Z</time>
      </trkpt>
      <trkpt lat="41.8790570" lon="-8.8363520">
        <ele>2.6</ele>
        <time>2021-05-18T13:50:24Z</time>
      </trkpt>
      <trkpt lat="41.8790570" lon="-8.8363520">
        <ele>2.6</ele>
        <time>2021-05-18T13:50:25Z</time>
      </trkpt>
      <trkpt lat="41.8790570" lon="-8.8363520">
        <ele>2.6</ele>
        <time>2021-05-18T13:50:26Z</time>
      </trkpt>
      <trkpt lat="41.8790570" lon="-8.8363520">
        <ele>2.6</ele>
        <time>2021-05-18T13:50:27Z</time>
      </trkpt>
      <trkpt lat="41.8790570" lon="-8.8363520">
        <ele>2.6</ele>
        <time>2021-05-18T13:50:28Z</time>
      </trkpt>
      <trkpt lat="41.8790570" lon="-8.8363520">
        <ele>2.6</ele>
        <time>2021-05-18T13:50:29Z</time>
      </trkpt>
      <trkpt lat="41.8790560" lon="-8.8363520">
        <ele>2.6</ele>
        <time>2021-05-18T13:50:30Z</time>
      </trkpt>
      <trkpt lat="41.8790560" lon="-8.8363520">
        <ele>2.6</ele>
        <time>2021-05-18T13:50:31Z</time>
      </trkpt>
      <trkpt lat="41.8790560" lon="-8.8363520">
        <ele>2.6</ele>
        <time>2021-05-18T13:50:32Z</time>
      </trkpt>
      <trkpt lat="41.8790560" lon="-8.8363520">
        <ele>2.6</ele>
        <time>2021-05-18T13:50:33Z</time>
      </trkpt>
      <trkpt lat="41.8790560" lon="-8.8363520">
        <ele>2.6</ele>
        <time>2021-05-18T13:50:34Z</time>
      </trkpt>
      <trkpt lat="41.8790560" lon="-8.8363520">
        <ele>2.6</ele>
        <time>2021-05-18T13:50:35Z</time>
      </trkpt>
      <trkpt lat="41.8790560" lon="-8.8363520">
        <ele>2.6</ele>
        <time>2021-05-18T13:50:36Z</time>
      </trkpt>
      <trkpt lat="41.8790560" lon="-8.8363520">
        <ele>2.6</ele>
        <time>2021-05-18T13:50:37Z</time>
      </trkpt>
      <trkpt lat="41.8790560" lon="-8.8363520">
        <ele>2.6</ele>
        <time>2021-05-18T13:50:38Z</time>
      </trkpt>
      <trkpt lat="41.8790560" lon="-8.8363520">
        <ele>2.6</ele>
        <time>2021-05-18T13:50:39Z</time>
      </trkpt>
      <trkpt lat="41.8790560" lon="-8.8363520">
        <ele>2.6</ele>
        <time>2021-05-18T13:50:40Z</time>
      </trkpt>
      <trkpt lat="41.8790560" lon="-8.8363520">
        <ele>2.6</ele>
        <time>2021-05-18T13:50:41Z</time>
      </trkpt>
      <trkpt lat="41.8790560" lon="-8.8363520">
        <ele>2.6</ele>
        <time>2021-05-18T13:50:42Z</time>
      </trkpt>
      <trkpt lat="41.8790560" lon="-8.8363520">
        <ele>2.6</ele>
        <time>2021-05-18T13:50:43Z</time>
      </trkpt>
      <trkpt lat="41.8790560" lon="-8.8363520">
        <ele>2.6</ele>
        <time>2021-05-18T13:50:44Z</time>
      </trkpt>
      <trkpt lat="41.8790560" lon="-8.8363520">
        <ele>2.6</ele>
        <time>2021-05-18T13:50:45Z</time>
      </trkpt>
      <trkpt lat="41.8790560" lon="-8.8363520">
        <ele>2.6</ele>
        <time>2021-05-18T13:50:46Z</time>
      </trkpt>
      <trkpt lat="41.8790560" lon="-8.8363510">
        <ele>2.6</ele>
        <time>2021-05-18T13:50:47Z</time>
      </trkpt>
      <trkpt lat="41.8790560" lon="-8.8363510">
        <ele>2.6</ele>
        <time>2021-05-18T13:50:48Z</time>
      </trkpt>
      <trkpt lat="41.8790560" lon="-8.8363510">
        <ele>2.6</ele>
        <time>2021-05-18T13:50:49Z</time>
      </trkpt>
      <trkpt lat="41.8790560" lon="-8.8363510">
        <ele>2.6</ele>
        <time>2021-05-18T13:50:50Z</time>
      </trkpt>
      <trkpt lat="41.8790550" lon="-8.8363510">
        <ele>2.6</ele>
        <time>2021-05-18T13:50:51Z</time>
      </trkpt>
      <trkpt lat="41.8790550" lon="-8.8363510">
        <ele>2.6</ele>
        <time>2021-05-18T13:50:52Z</time>
      </trkpt>
      <trkpt lat="41.8790550" lon="-8.8363510">
        <ele>2.6</ele>
        <time>2021-05-18T13:50:53Z</time>
      </trkpt>
      <trkpt lat="41.8790550" lon="-8.8363510">
        <ele>2.6</ele>
        <time>2021-05-18T13:50:54Z</time>
      </trkpt>
      <trkpt lat="41.8790550" lon="-8.8363510">
        <ele>2.6</ele>
        <time>2021-05-18T13:50:55Z</time>
      </trkpt>
      <trkpt lat="41.8790550" lon="-8.8363510">
        <ele>2.6</ele>
        <time>2021-05-18T13:50:56Z</time>
      </trkpt>
      <trkpt lat="41.8790550" lon="-8.8363510">
        <ele>2.6</ele>
        <time>2021-05-18T13:50:57Z</time>
      </trkpt>
      <trkpt lat="41.8790550" lon="-8.8363510">
        <ele>2.6</ele>
        <time>2021-05-18T13:50:58Z</time>
      </trkpt>
      <trkpt lat="41.8790550" lon="-8.8363510">
        <ele>2.6</ele>
        <time>2021-05-18T13:50:59Z</time>
      </trkpt>
      <trkpt lat="41.8790550" lon="-8.8363510">
        <ele>2.6</ele>
        <time>2021-05-18T13:51:00Z</time>
      </trkpt>
      <trkpt lat="41.8790550" lon="-8.8363510">
        <ele>2.6</ele>
        <time>2021-05-18T13:51:01Z</time>
      </trkpt>
      <trkpt lat="41.8790550" lon="-8.8363510">
        <ele>2.6</ele>
        <time>2021-05-18T13:51:02Z</time>
      </trkpt>
      <trkpt lat="41.8790580" lon="-8.8363530">
        <ele>2.6</ele>
        <time>2021-05-18T13:51:03Z</time>
      </trkpt>
      <trkpt lat="41.8790640" lon="-8.8363580">
        <ele>2.6</ele>
        <time>2021-05-18T13:51:04Z</time>
      </trkpt>
      <trkpt lat="41.8790680" lon="-8.8363530">
        <ele>2.6</ele>
        <time>2021-05-18T13:51:05Z</time>
      </trkpt>
      <trkpt lat="41.8790700" lon="-8.8363570">
        <ele>2.6</ele>
        <time>2021-05-18T13:51:06Z</time>
      </trkpt>
      <trkpt lat="41.8790730" lon="-8.8363560">
        <ele>2.6</ele>
        <time>2021-05-18T13:51:07Z</time>
      </trkpt>
      <trkpt lat="41.8790730" lon="-8.8363540">
        <ele>2.6</ele>
        <time>2021-05-18T13:51:08Z</time>
      </trkpt>
      <trkpt lat="41.8790760" lon="-8.8363550">
        <ele>2.6</ele>
        <time>2021-05-18T13:51:09Z</time>
      </trkpt>
      <trkpt lat="41.8790810" lon="-8.8363570">
        <ele>2.6</ele>
        <time>2021-05-18T13:51:10Z</time>
      </trkpt>
      <trkpt lat="41.8790840" lon="-8.8363580">
        <ele>2.6</ele>
        <time>2021-05-18T13:51:11Z</time>
      </trkpt>
      <trkpt lat="41.8790830" lon="-8.8363580">
        <ele>2.6</ele>
        <time>2021-05-18T13:51:12Z</time>
      </trkpt>
      <trkpt lat="41.8790830" lon="-8.8363600">
        <ele>2.6</ele>
        <time>2021-05-18T13:51:13Z</time>
      </trkpt>
      <trkpt lat="41.8790800" lon="-8.8363590">
        <ele>2.6</ele>
        <time>2021-05-18T13:51:14Z</time>
      </trkpt>
      <trkpt lat="41.8790790" lon="-8.8363620">
        <ele>2.6</ele>
        <time>2021-05-18T13:51:15Z</time>
      </trkpt>
      <trkpt lat="41.8790790" lon="-8.8363640">
        <ele>2.6</ele>
        <time>2021-05-18T13:51:16Z</time>
      </trkpt>
      <trkpt lat="41.8790700" lon="-8.8363800">
        <ele>2.6</ele>
        <time>2021-05-18T13:51:17Z</time>
      </trkpt>
      <trkpt lat="41.8790660" lon="-8.8363900">
        <ele>2.7</ele>
        <time>2021-05-18T13:51:18Z</time>
      </trkpt>
      <trkpt lat="41.8790630" lon="-8.8364000">
        <ele>2.7</ele>
        <time>2021-05-18T13:51:19Z</time>
      </trkpt>
      <trkpt lat="41.8790650" lon="-8.8364100">
        <ele>2.7</ele>
        <time>2021-05-18T13:51:20Z</time>
      </trkpt>
      <trkpt lat="41.8790650" lon="-8.8364100">
        <ele>2.7</ele>
        <time>2021-05-18T13:51:21Z</time>
      </trkpt>
      <trkpt lat="41.8790690" lon="-8.8364260">
        <ele>2.7</ele>
        <time>2021-05-18T13:51:22Z</time>
      </trkpt>
      <trkpt lat="41.8790710" lon="-8.8364360">
        <ele>2.7</ele>
        <time>2021-05-18T13:51:23Z</time>
      </trkpt>
      <trkpt lat="41.8790760" lon="-8.8364500">
        <ele>2.7</ele>
        <time>2021-05-18T13:51:24Z</time>
      </trkpt>
      <trkpt lat="41.8790790" lon="-8.8364600">
        <ele>2.7</ele>
        <time>2021-05-18T13:51:25Z</time>
      </trkpt>
      <trkpt lat="41.8790790" lon="-8.8364700">
        <ele>2.7</ele>
        <time>2021-05-18T13:51:26Z</time>
      </trkpt>
      <trkpt lat="41.8790780" lon="-8.8364750">
        <ele>2.7</ele>
        <time>2021-05-18T13:51:27Z</time>
      </trkpt>
      <trkpt lat="41.8790780" lon="-8.8364820">
        <ele>2.7</ele>
        <time>2021-05-18T13:51:28Z</time>
      </trkpt>
      <trkpt lat="41.8790750" lon="-8.8364880">
        <ele>2.7</ele>
        <time>2021-05-18T13:51:29Z</time>
      </trkpt>
      <trkpt lat="41.8790700" lon="-8.8364980">
        <ele>2.7</ele>
        <time>2021-05-18T13:51:30Z</time>
      </trkpt>
      <trkpt lat="41.8790640" lon="-8.8365070">
        <ele>2.7</ele>
        <time>2021-05-18T13:51:31Z</time>
      </trkpt>
      <trkpt lat="41.8790560" lon="-8.8365170">
        <ele>2.7</ele>
        <time>2021-05-18T13:51:32Z</time>
      </trkpt>
      <trkpt lat="41.8790500" lon="-8.8365270">
        <ele>2.7</ele>
        <time>2021-05-18T13:51:33Z</time>
      </trkpt>
      <trkpt lat="41.8790480" lon="-8.8365340">
        <ele>2.7</ele>
        <time>2021-05-18T13:51:34Z</time>
      </trkpt>
      <trkpt lat="41.8790440" lon="-8.8365430">
        <ele>2.7</ele>
        <time>2021-05-18T13:51:35Z</time>
      </trkpt>
      <trkpt lat="41.8790400" lon="-8.8365530">
        <ele>2.7</ele>
        <time>2021-05-18T13:51:36Z</time>
      </trkpt>
      <trkpt lat="41.8790350" lon="-8.8365610">
        <ele>2.7</ele>
        <time>2021-05-18T13:51:37Z</time>
      </trkpt>
      <trkpt lat="41.8790340" lon="-8.8365700">
        <ele>2.7</ele>
        <time>2021-05-18T13:51:38Z</time>
      </trkpt>
      <trkpt lat="41.8790330" lon="-8.8365770">
        <ele>2.7</ele>
        <time>2021-05-18T13:51:39Z</time>
      </trkpt>
      <trkpt lat="41.8790330" lon="-8.8365830">
        <ele>2.7</ele>
        <time>2021-05-18T13:51:40Z</time>
      </trkpt>
      <trkpt lat="41.8790300" lon="-8.8365890">
        <ele>2.7</ele>
        <time>2021-05-18T13:51:41Z</time>
      </trkpt>
      <trkpt lat="41.8790280" lon="-8.8365970">
        <ele>2.7</ele>
        <time>2021-05-18T13:51:42Z</time>
      </trkpt>
      <trkpt lat="41.8790270" lon="-8.8366010">
        <ele>2.7</ele>
        <time>2021-05-18T13:51:43Z</time>
      </trkpt>
      <trkpt lat="41.8790260" lon="-8.8366000">
        <ele>2.7</ele>
        <time>2021-05-18T13:51:44Z</time>
      </trkpt>
      <trkpt lat="41.8790230" lon="-8.8366010">
        <ele>2.7</ele>
        <time>2021-05-18T13:51:45Z</time>
      </trkpt>
      <trkpt lat="41.8790220" lon="-8.8366010">
        <ele>2.7</ele>
        <time>2021-05-18T13:51:46Z</time>
      </trkpt>
      <trkpt lat="41.8790230" lon="-8.8366000">
        <ele>2.7</ele>
        <time>2021-05-18T13:51:47Z</time>
      </trkpt>
      <trkpt lat="41.8790210" lon="-8.8366090">
        <ele>2.7</ele>
        <time>2021-05-18T13:51:48Z</time>
      </trkpt>
      <trkpt lat="41.8790220" lon="-8.8366150">
        <ele>2.7</ele>
        <time>2021-05-18T13:51:49Z</time>
      </trkpt>
      <trkpt lat="41.8790220" lon="-8.8366190">
        <ele>2.7</ele>
        <time>2021-05-18T13:51:50Z</time>
      </trkpt>
      <trkpt lat="41.8790150" lon="-8.8366160">
        <ele>2.7</ele>
        <time>2021-05-18T13:51:51Z</time>
      </trkpt>
      <trkpt lat="41.8790160" lon="-8.8366170">
        <ele>2.7</ele>
        <time>2021-05-18T13:51:52Z</time>
      </trkpt>
      <trkpt lat="41.8790110" lon="-8.8366260">
        <ele>2.7</ele>
        <time>2021-05-18T13:51:53Z</time>
      </trkpt>
      <trkpt lat="41.8790080" lon="-8.8366210">
        <ele>2.7</ele>
        <time>2021-05-18T13:51:54Z</time>
      </trkpt>
      <trkpt lat="41.8790130" lon="-8.8366330">
        <ele>2.7</ele>
        <time>2021-05-18T13:51:55Z</time>
      </trkpt>
      <trkpt lat="41.8790130" lon="-8.8366380">
        <ele>2.7</ele>
        <time>2021-05-18T13:51:56Z</time>
      </trkpt>
      <trkpt lat="41.8790080" lon="-8.8366540">
        <ele>2.7</ele>
        <time>2021-05-18T13:51:57Z</time>
      </trkpt>
      <trkpt lat="41.8790110" lon="-8.8366470">
        <ele>2.7</ele>
        <time>2021-05-18T13:51:58Z</time>
      </trkpt>
      <trkpt lat="41.8790060" lon="-8.8366440">
        <ele>2.7</ele>
        <time>2021-05-18T13:51:59Z</time>
      </trkpt>
      <trkpt lat="41.8790030" lon="-8.8366400">
        <ele>2.7</ele>
        <time>2021-05-18T13:52:00Z</time>
      </trkpt>
      <trkpt lat="41.8789920" lon="-8.8366310">
        <ele>2.7</ele>
        <time>2021-05-18T13:52:01Z</time>
      </trkpt>
      <trkpt lat="41.8789920" lon="-8.8366290">
        <ele>2.7</ele>
        <time>2021-05-18T13:52:02Z</time>
      </trkpt>
      <trkpt lat="41.8789920" lon="-8.8366210">
        <ele>2.7</ele>
        <time>2021-05-18T13:52:03Z</time>
      </trkpt>
      <trkpt lat="41.8790020" lon="-8.8366270">
        <ele>2.7</ele>
        <time>2021-05-18T13:52:04Z</time>
      </trkpt>
      <trkpt lat="41.8790010" lon="-8.8366220">
        <ele>2.7</ele>
        <time>2021-05-18T13:52:05Z</time>
      </trkpt>
      <trkpt lat="41.8790030" lon="-8.8366310">
        <ele>2.7</ele>
        <time>2021-05-18T13:52:06Z</time>
      </trkpt>
      <trkpt lat="41.8790060" lon="-8.8366380">
        <ele>2.7</ele>
        <time>2021-05-18T13:52:07Z</time>
      </trkpt>
      <trkpt lat="41.8790060" lon="-8.8366380">
        <ele>2.7</ele>
        <time>2021-05-18T13:52:08Z</time>
      </trkpt>
      <trkpt lat="41.8790060" lon="-8.8366380">
        <ele>2.7</ele>
        <time>2021-05-18T13:52:09Z</time>
      </trkpt>
      <trkpt lat="41.8790060" lon="-8.8366380">
        <ele>2.7</ele>
        <time>2021-05-18T13:52:10Z</time>
      </trkpt>
      <trkpt lat="41.8790060" lon="-8.8366380">
        <ele>2.7</ele>
        <time>2021-05-18T13:52:11Z</time>
      </trkpt>
      <trkpt lat="41.8790060" lon="-8.8366380">
        <ele>2.7</ele>
        <time>2021-05-18T13:52:12Z</time>
      </trkpt>
      <trkpt lat="41.8790060" lon="-8.8366380">
        <ele>2.7</ele>
        <time>2021-05-18T13:52:13Z</time>
      </trkpt>
      <trkpt lat="41.8790060" lon="-8.8366380">
        <ele>2.7</ele>
        <time>2021-05-18T13:52:14Z</time>
      </trkpt>
      <trkpt lat="41.8790060" lon="-8.8366380">
        <ele>2.7</ele>
        <time>2021-05-18T13:52:15Z</time>
      </trkpt>
      <trkpt lat="41.8790060" lon="-8.8366380">
        <ele>2.7</ele>
        <time>2021-05-18T13:52:16Z</time>
      </trkpt>
      <trkpt lat="41.8790060" lon="-8.8366380">
        <ele>2.7</ele>
        <time>2021-05-18T13:52:17Z</time>
      </trkpt>
      <trkpt lat="41.8790060" lon="-8.8366380">
        <ele>2.7</ele>
        <time>2021-05-18T13:52:18Z</time>
      </trkpt>
      <trkpt lat="41.8790060" lon="-8.8366380">
        <ele>2.7</ele>
        <time>2021-05-18T13:52:19Z</time>
      </trkpt>
      <trkpt lat="41.8790060" lon="-8.8366380">
        <ele>2.7</ele>
        <time>2021-05-18T13:52:20Z</time>
      </trkpt>
      <trkpt lat="41.8790060" lon="-8.8366380">
        <ele>2.7</ele>
        <time>2021-05-18T13:52:21Z</time>
      </trkpt>
      <trkpt lat="41.8790060" lon="-8.8366380">
        <ele>2.7</ele>
        <time>2021-05-18T13:52:22Z</time>
      </trkpt>
      <trkpt lat="41.8790060" lon="-8.8366380">
        <ele>2.7</ele>
        <time>2021-05-18T13:52:23Z</time>
      </trkpt>
      <trkpt lat="41.8790060" lon="-8.8366380">
        <ele>2.7</ele>
        <time>2021-05-18T13:52:24Z</time>
      </trkpt>
      <trkpt lat="41.8790060" lon="-8.8366380">
        <ele>2.7</ele>
        <time>2021-05-18T13:52:25Z</time>
      </trkpt>
      <trkpt lat="41.8790060" lon="-8.8366380">
        <ele>2.7</ele>
        <time>2021-05-18T13:52:26Z</time>
      </trkpt>
      <trkpt lat="41.8790060" lon="-8.8366380">
        <ele>2.7</ele>
        <time>2021-05-18T13:52:27Z</time>
      </trkpt>
      <trkpt lat="41.8790060" lon="-8.8366380">
        <ele>2.7</ele>
        <time>2021-05-18T13:52:28Z</time>
      </trkpt>
      <trkpt lat="41.8790060" lon="-8.8366380">
        <ele>2.7</ele>
        <time>2021-05-18T13:52:29Z</time>
      </trkpt>
      <trkpt lat="41.8790060" lon="-8.8366380">
        <ele>2.7</ele>
        <time>2021-05-18T13:52:30Z</time>
      </trkpt>
      <trkpt lat="41.8790070" lon="-8.8366310">
        <ele>2.7</ele>
        <time>2021-05-18T13:52:31Z</time>
      </trkpt>
      <trkpt lat="41.8790060" lon="-8.8366320">
        <ele>2.7</ele>
        <time>2021-05-18T13:52:32Z</time>
      </trkpt>
      <trkpt lat="41.8790070" lon="-8.8366330">
        <ele>2.7</ele>
        <time>2021-05-18T13:52:33Z</time>
      </trkpt>
      <trkpt lat="41.8790070" lon="-8.8366300">
        <ele>2.7</ele>
        <time>2021-05-18T13:52:34Z</time>
      </trkpt>
      <trkpt lat="41.8790070" lon="-8.8366310">
        <ele>2.7</ele>
        <time>2021-05-18T13:52:35Z</time>
      </trkpt>
      <trkpt lat="41.8790070" lon="-8.8366310">
        <ele>2.7</ele>
        <time>2021-05-18T13:52:36Z</time>
      </trkpt>
      <trkpt lat="41.8790070" lon="-8.8366310">
        <ele>2.7</ele>
        <time>2021-05-18T13:52:37Z</time>
      </trkpt>
      <trkpt lat="41.8790070" lon="-8.8366310">
        <ele>2.7</ele>
        <time>2021-05-18T13:52:38Z</time>
      </trkpt>
      <trkpt lat="41.8790070" lon="-8.8366310">
        <ele>2.7</ele>
        <time>2021-05-18T13:52:39Z</time>
      </trkpt>
      <trkpt lat="41.8790070" lon="-8.8366310">
        <ele>2.7</ele>
        <time>2021-05-18T13:52:40Z</time>
      </trkpt>
      <trkpt lat="41.8790070" lon="-8.8366310">
        <ele>2.7</ele>
        <time>2021-05-18T13:52:41Z</time>
      </trkpt>
      <trkpt lat="41.8790070" lon="-8.8366310">
        <ele>2.7</ele>
        <time>2021-05-18T13:52:42Z</time>
      </trkpt>
      <trkpt lat="41.8790070" lon="-8.8366310">
        <ele>2.7</ele>
        <time>2021-05-18T13:52:43Z</time>
      </trkpt>
      <trkpt lat="41.8790070" lon="-8.8366310">
        <ele>2.7</ele>
        <time>2021-05-18T13:52:44Z</time>
      </trkpt>
      <trkpt lat="41.8790070" lon="-8.8366310">
        <ele>2.7</ele>
        <time>2021-05-18T13:52:45Z</time>
      </trkpt>
      <trkpt lat="41.8790070" lon="-8.8366310">
        <ele>2.7</ele>
        <time>2021-05-18T13:52:46Z</time>
      </trkpt>
      <trkpt lat="41.8790070" lon="-8.8366310">
        <ele>2.7</ele>
        <time>2021-05-18T13:52:47Z</time>
      </trkpt>
      <trkpt lat="41.8790070" lon="-8.8366310">
        <ele>2.7</ele>
        <time>2021-05-18T13:52:48Z</time>
      </trkpt>
      <trkpt lat="41.8790070" lon="-8.8366310">
        <ele>2.7</ele>
        <time>2021-05-18T13:52:49Z</time>
      </trkpt>
      <trkpt lat="41.8790070" lon="-8.8366310">
        <ele>2.7</ele>
        <time>2021-05-18T13:52:50Z</time>
      </trkpt>
      <trkpt lat="41.8790070" lon="-8.8366310">
        <ele>2.7</ele>
        <time>2021-05-18T13:52:51Z</time>
      </trkpt>
      <trkpt lat="41.8790070" lon="-8.8366310">
        <ele>2.7</ele>
        <time>2021-05-18T13:52:52Z</time>
      </trkpt>
      <trkpt lat="41.8790070" lon="-8.8366310">
        <ele>2.7</ele>
        <time>2021-05-18T13:52:53Z</time>
      </trkpt>
      <trkpt lat="41.8790070" lon="-8.8366310">
        <ele>2.7</ele>
        <time>2021-05-18T13:52:54Z</time>
      </trkpt>
      <trkpt lat="41.8790070" lon="-8.8366310">
        <ele>2.7</ele>
        <time>2021-05-18T13:52:55Z</time>
      </trkpt>
      <trkpt lat="41.8790070" lon="-8.8366310">
        <ele>2.7</ele>
        <time>2021-05-18T13:52:56Z</time>
      </trkpt>
      <trkpt lat="41.8790070" lon="-8.8366310">
        <ele>2.7</ele>
        <time>2021-05-18T13:52:57Z</time>
      </trkpt>
      <trkpt lat="41.8790070" lon="-8.8366310">
        <ele>2.7</ele>
        <time>2021-05-18T13:52:58Z</time>
      </trkpt>
      <trkpt lat="41.8790070" lon="-8.8366310">
        <ele>2.7</ele>
        <time>2021-05-18T13:52:59Z</time>
      </trkpt>
      <trkpt lat="41.8790070" lon="-8.8366310">
        <ele>2.7</ele>
        <time>2021-05-18T13:53:00Z</time>
      </trkpt>
      <trkpt lat="41.8790070" lon="-8.8366310">
        <ele>2.7</ele>
        <time>2021-05-18T13:53:01Z</time>
      </trkpt>
      <trkpt lat="41.8790070" lon="-8.8366310">
        <ele>2.7</ele>
        <time>2021-05-18T13:53:02Z</time>
      </trkpt>
      <trkpt lat="41.8790070" lon="-8.8366310">
        <ele>2.7</ele>
        <time>2021-05-18T13:53:03Z</time>
      </trkpt>
      <trkpt lat="41.8790070" lon="-8.8366310">
        <ele>2.7</ele>
        <time>2021-05-18T13:53:04Z</time>
      </trkpt>
      <trkpt lat="41.8790070" lon="-8.8366310">
        <ele>2.7</ele>
        <time>2021-05-18T13:53:05Z</time>
      </trkpt>
      <trkpt lat="41.8790070" lon="-8.8366310">
        <ele>2.7</ele>
        <time>2021-05-18T13:53:06Z</time>
      </trkpt>
      <trkpt lat="41.8790070" lon="-8.8366310">
        <ele>2.7</ele>
        <time>2021-05-18T13:53:07Z</time>
      </trkpt>
      <trkpt lat="41.8790070" lon="-8.8366310">
        <ele>2.7</ele>
        <time>2021-05-18T13:53:08Z</time>
      </trkpt>
      <trkpt lat="41.8790070" lon="-8.8366310">
        <ele>2.7</ele>
        <time>2021-05-18T13:53:09Z</time>
      </trkpt>
      <trkpt lat="41.8790070" lon="-8.8366310">
        <ele>2.7</ele>
        <time>2021-05-18T13:53:10Z</time>
      </trkpt>
      <trkpt lat="41.8790070" lon="-8.8366310">
        <ele>2.7</ele>
        <time>2021-05-18T13:53:11Z</time>
      </trkpt>
      <trkpt lat="41.8790070" lon="-8.8366310">
        <ele>2.7</ele>
        <time>2021-05-18T13:53:12Z</time>
      </trkpt>
      <trkpt lat="41.8790070" lon="-8.8366310">
        <ele>2.7</ele>
        <time>2021-05-18T13:53:13Z</time>
      </trkpt>
      <trkpt lat="41.8790070" lon="-8.8366310">
        <ele>2.7</ele>
        <time>2021-05-18T13:53:14Z</time>
      </trkpt>
      <trkpt lat="41.8790070" lon="-8.8366310">
        <ele>2.7</ele>
        <time>2021-05-18T13:53:15Z</time>
      </trkpt>
      <trkpt lat="41.8790070" lon="-8.8366310">
        <ele>2.7</ele>
        <time>2021-05-18T13:53:16Z</time>
      </trkpt>
      <trkpt lat="41.8790070" lon="-8.8366310">
        <ele>2.7</ele>
        <time>2021-05-18T13:53:17Z</time>
      </trkpt>
      <trkpt lat="41.8790070" lon="-8.8366310">
        <ele>2.7</ele>
        <time>2021-05-18T13:53:18Z</time>
      </trkpt>
      <trkpt lat="41.8790070" lon="-8.8366310">
        <ele>2.7</ele>
        <time>2021-05-18T13:53:19Z</time>
      </trkpt>
      <trkpt lat="41.8790070" lon="-8.8366310">
        <ele>2.7</ele>
        <time>2021-05-18T13:53:20Z</time>
      </trkpt>
      <trkpt lat="41.8790070" lon="-8.8366310">
        <ele>2.7</ele>
        <time>2021-05-18T13:53:21Z</time>
      </trkpt>
      <trkpt lat="41.8790070" lon="-8.8366310">
        <ele>2.7</ele>
        <time>2021-05-18T13:53:22Z</time>
      </trkpt>
      <trkpt lat="41.8790070" lon="-8.8366310">
        <ele>2.7</ele>
        <time>2021-05-18T13:53:23Z</time>
      </trkpt>
      <trkpt lat="41.8790070" lon="-8.8366310">
        <ele>2.7</ele>
        <time>2021-05-18T13:53:24Z</time>
      </trkpt>
      <trkpt lat="41.8790070" lon="-8.8366310">
        <ele>2.7</ele>
        <time>2021-05-18T13:53:25Z</time>
      </trkpt>
      <trkpt lat="41.8790070" lon="-8.8366310">
        <ele>2.7</ele>
        <time>2021-05-18T13:53:26Z</time>
      </trkpt>
      <trkpt lat="41.8790070" lon="-8.8366310">
        <ele>2.7</ele>
        <time>2021-05-18T13:53:27Z</time>
      </trkpt>
      <trkpt lat="41.8790070" lon="-8.8366310">
        <ele>2.7</ele>
        <time>2021-05-18T13:53:28Z</time>
      </trkpt>
      <trkpt lat="41.8790070" lon="-8.8366310">
        <ele>2.7</ele>
        <time>2021-05-18T13:53:29Z</time>
      </trkpt>
      <trkpt lat="41.8790070" lon="-8.8366310">
        <ele>2.7</ele>
        <time>2021-05-18T13:53:30Z</time>
      </trkpt>
      <trkpt lat="41.8790070" lon="-8.8366310">
        <ele>2.7</ele>
        <time>2021-05-18T13:53:31Z</time>
      </trkpt>
      <trkpt lat="41.8790070" lon="-8.8366310">
        <ele>2.7</ele>
        <time>2021-05-18T13:53:32Z</time>
      </trkpt>
      <trkpt lat="41.8790070" lon="-8.8366310">
        <ele>2.7</ele>
        <time>2021-05-18T13:53:33Z</time>
      </trkpt>
      <trkpt lat="41.8790070" lon="-8.8366310">
        <ele>2.7</ele>
        <time>2021-05-18T13:53:34Z</time>
      </trkpt>
      <trkpt lat="41.8790070" lon="-8.8366310">
        <ele>2.7</ele>
        <time>2021-05-18T13:53:35Z</time>
      </trkpt>
      <trkpt lat="41.8790070" lon="-8.8366310">
        <ele>2.7</ele>
        <time>2021-05-18T13:53:36Z</time>
      </trkpt>
      <trkpt lat="41.8790070" lon="-8.8366310">
        <ele>2.7</ele>
        <time>2021-05-18T13:53:37Z</time>
      </trkpt>
      <trkpt lat="41.8790070" lon="-8.8366310">
        <ele>2.7</ele>
        <time>2021-05-18T13:53:38Z</time>
      </trkpt>
      <trkpt lat="41.8790070" lon="-8.8366310">
        <ele>2.7</ele>
        <time>2021-05-18T13:53:39Z</time>
      </trkpt>
      <trkpt lat="41.8790070" lon="-8.8366310">
        <ele>2.7</ele>
        <time>2021-05-18T13:53:40Z</time>
      </trkpt>
      <trkpt lat="41.8790070" lon="-8.8366310">
        <ele>2.7</ele>
        <time>2021-05-18T13:53:41Z</time>
      </trkpt>
      <trkpt lat="41.8790070" lon="-8.8366310">
        <ele>2.7</ele>
        <time>2021-05-18T13:53:42Z</time>
      </trkpt>
      <trkpt lat="41.8790070" lon="-8.8366310">
        <ele>2.7</ele>
        <time>2021-05-18T13:53:43Z</time>
      </trkpt>
      <trkpt lat="41.8790070" lon="-8.8366310">
        <ele>2.7</ele>
        <time>2021-05-18T13:53:44Z</time>
      </trkpt>
      <trkpt lat="41.8790070" lon="-8.8366310">
        <ele>2.7</ele>
        <time>2021-05-18T13:53:45Z</time>
      </trkpt>
      <trkpt lat="41.8790070" lon="-8.8366310">
        <ele>2.7</ele>
        <time>2021-05-18T13:53:46Z</time>
      </trkpt>
      <trkpt lat="41.8790070" lon="-8.8366310">
        <ele>2.7</ele>
        <time>2021-05-18T13:53:47Z</time>
      </trkpt>
      <trkpt lat="41.8790070" lon="-8.8366310">
        <ele>2.7</ele>
        <time>2021-05-18T13:53:48Z</time>
      </trkpt>
      <trkpt lat="41.8790070" lon="-8.8366310">
        <ele>2.7</ele>
        <time>2021-05-18T13:53:49Z</time>
      </trkpt>
      <trkpt lat="41.8790070" lon="-8.8366310">
        <ele>2.7</ele>
        <time>2021-05-18T13:53:50Z</time>
      </trkpt>
      <trkpt lat="41.8790070" lon="-8.8366310">
        <ele>2.7</ele>
        <time>2021-05-18T13:53:51Z</time>
      </trkpt>
      <trkpt lat="41.8790070" lon="-8.8366310">
        <ele>2.7</ele>
        <time>2021-05-18T13:53:52Z</time>
      </trkpt>
      <trkpt lat="41.8790070" lon="-8.8366310">
        <ele>2.7</ele>
        <time>2021-05-18T13:53:53Z</time>
      </trkpt>
      <trkpt lat="41.8790070" lon="-8.8366310">
        <ele>2.7</ele>
        <time>2021-05-18T13:53:54Z</time>
      </trkpt>
      <trkpt lat="41.8790070" lon="-8.8366310">
        <ele>2.7</ele>
        <time>2021-05-18T13:53:55Z</time>
      </trkpt>
      <trkpt lat="41.8790070" lon="-8.8366310">
        <ele>2.7</ele>
        <time>2021-05-18T13:53:56Z</time>
      </trkpt>
      <trkpt lat="41.8790070" lon="-8.8366310">
        <ele>2.7</ele>
        <time>2021-05-18T13:53:57Z</time>
      </trkpt>
      <trkpt lat="41.8790070" lon="-8.8366310">
        <ele>2.7</ele>
        <time>2021-05-18T13:53:58Z</time>
      </trkpt>
      <trkpt lat="41.8790070" lon="-8.8366310">
        <ele>2.7</ele>
        <time>2021-05-18T13:53:59Z</time>
      </trkpt>
      <trkpt lat="41.8790070" lon="-8.8366310">
        <ele>2.7</ele>
        <time>2021-05-18T13:54:00Z</time>
      </trkpt>
      <trkpt lat="41.8790070" lon="-8.8366310">
        <ele>2.7</ele>
        <time>2021-05-18T13:54:01Z</time>
      </trkpt>
      <trkpt lat="41.8790070" lon="-8.8366310">
        <ele>2.7</ele>
        <time>2021-05-18T13:54:02Z</time>
      </trkpt>
      <trkpt lat="41.8790070" lon="-8.8366310">
        <ele>2.7</ele>
        <time>2021-05-18T13:54:03Z</time>
      </trkpt>
      <trkpt lat="41.8790070" lon="-8.8366310">
        <ele>2.7</ele>
        <time>2021-05-18T13:54:04Z</time>
      </trkpt>
      <trkpt lat="41.8790070" lon="-8.8366310">
        <ele>2.7</ele>
        <time>2021-05-18T13:54:05Z</time>
      </trkpt>
      <trkpt lat="41.8790070" lon="-8.8366310">
        <ele>2.7</ele>
        <time>2021-05-18T13:54:06Z</time>
      </trkpt>
      <trkpt lat="41.8790070" lon="-8.8366310">
        <ele>2.7</ele>
        <time>2021-05-18T13:54:07Z</time>
      </trkpt>
      <trkpt lat="41.8790070" lon="-8.8366310">
        <ele>2.7</ele>
        <time>2021-05-18T13:54:08Z</time>
      </trkpt>
      <trkpt lat="41.8790070" lon="-8.8366310">
        <ele>2.7</ele>
        <time>2021-05-18T13:54:09Z</time>
      </trkpt>
      <trkpt lat="41.8790070" lon="-8.8366310">
        <ele>2.7</ele>
        <time>2021-05-18T13:54:10Z</time>
      </trkpt>
      <trkpt lat="41.8790070" lon="-8.8366310">
        <ele>2.7</ele>
        <time>2021-05-18T13:54:11Z</time>
      </trkpt>
      <trkpt lat="41.8790070" lon="-8.8366310">
        <ele>2.7</ele>
        <time>2021-05-18T13:54:12Z</time>
      </trkpt>
      <trkpt lat="41.8790070" lon="-8.8366310">
        <ele>2.7</ele>
        <time>2021-05-18T13:54:13Z</time>
      </trkpt>
      <trkpt lat="41.8790070" lon="-8.8366310">
        <ele>2.7</ele>
        <time>2021-05-18T13:54:14Z</time>
      </trkpt>
      <trkpt lat="41.8790070" lon="-8.8366310">
        <ele>2.7</ele>
        <time>2021-05-18T13:54:15Z</time>
      </trkpt>
      <trkpt lat="41.8790070" lon="-8.8366310">
        <ele>2.7</ele>
        <time>2021-05-18T13:54:16Z</time>
      </trkpt>
      <trkpt lat="41.8790070" lon="-8.8366310">
        <ele>2.7</ele>
        <time>2021-05-18T13:54:17Z</time>
      </trkpt>
      <trkpt lat="41.8790070" lon="-8.8366310">
        <ele>2.7</ele>
        <time>2021-05-18T13:54:18Z</time>
      </trkpt>
      <trkpt lat="41.8790070" lon="-8.8366310">
        <ele>2.7</ele>
        <time>2021-05-18T13:54:19Z</time>
      </trkpt>
      <trkpt lat="41.8790070" lon="-8.8366310">
        <ele>2.7</ele>
        <time>2021-05-18T13:54:20Z</time>
      </trkpt>
      <trkpt lat="41.8790070" lon="-8.8366310">
        <ele>2.7</ele>
        <time>2021-05-18T13:54:21Z</time>
      </trkpt>
      <trkpt lat="41.8790070" lon="-8.8366310">
        <ele>2.7</ele>
        <time>2021-05-18T13:54:22Z</time>
      </trkpt>
      <trkpt lat="41.8790070" lon="-8.8366310">
        <ele>2.7</ele>
        <time>2021-05-18T13:54:23Z</time>
      </trkpt>
      <trkpt lat="41.8790070" lon="-8.8366310">
        <ele>2.7</ele>
        <time>2021-05-18T13:54:24Z</time>
      </trkpt>
      <trkpt lat="41.8790070" lon="-8.8366310">
        <ele>2.7</ele>
        <time>2021-05-18T13:54:25Z</time>
      </trkpt>
      <trkpt lat="41.8790070" lon="-8.8366310">
        <ele>2.7</ele>
        <time>2021-05-18T13:54:26Z</time>
      </trkpt>
      <trkpt lat="41.8790070" lon="-8.8366310">
        <ele>2.7</ele>
        <time>2021-05-18T13:54:27Z</time>
      </trkpt>
      <trkpt lat="41.8790070" lon="-8.8366310">
        <ele>2.7</ele>
        <time>2021-05-18T13:54:28Z</time>
      </trkpt>
      <trkpt lat="41.8790070" lon="-8.8366310">
        <ele>2.7</ele>
        <time>2021-05-18T13:54:29Z</time>
      </trkpt>
      <trkpt lat="41.8790070" lon="-8.8366310">
        <ele>2.7</ele>
        <time>2021-05-18T13:54:30Z</time>
      </trkpt>
      <trkpt lat="41.8790070" lon="-8.8366310">
        <ele>2.7</ele>
        <time>2021-05-18T13:54:31Z</time>
      </trkpt>
      <trkpt lat="41.8790070" lon="-8.8366310">
        <ele>2.7</ele>
        <time>2021-05-18T13:54:32Z</time>
      </trkpt>
      <trkpt lat="41.8790070" lon="-8.8366310">
        <ele>2.7</ele>
        <time>2021-05-18T13:54:33Z</time>
      </trkpt>
      <trkpt lat="41.8790070" lon="-8.8366310">
        <ele>2.7</ele>
        <time>2021-05-18T13:54:34Z</time>
      </trkpt>
      <trkpt lat="41.8790070" lon="-8.8366310">
        <ele>2.7</ele>
        <time>2021-05-18T13:54:35Z</time>
      </trkpt>
      <trkpt lat="41.8790070" lon="-8.8366310">
        <ele>2.7</ele>
        <time>2021-05-18T13:54:36Z</time>
      </trkpt>
      <trkpt lat="41.8790070" lon="-8.8366310">
        <ele>2.7</ele>
        <time>2021-05-18T13:54:37Z</time>
      </trkpt>
      <trkpt lat="41.8790070" lon="-8.8366310">
        <ele>2.7</ele>
        <time>2021-05-18T13:54:38Z</time>
      </trkpt>
      <trkpt lat="41.8790070" lon="-8.8366310">
        <ele>2.7</ele>
        <time>2021-05-18T13:54:39Z</time>
      </trkpt>
      <trkpt lat="41.8790070" lon="-8.8366310">
        <ele>2.7</ele>
        <time>2021-05-18T13:54:40Z</time>
      </trkpt>
      <trkpt lat="41.8790070" lon="-8.8366310">
        <ele>2.7</ele>
        <time>2021-05-18T13:54:41Z</time>
      </trkpt>
      <trkpt lat="41.8790070" lon="-8.8366310">
        <ele>2.7</ele>
        <time>2021-05-18T13:54:42Z</time>
      </trkpt>
      <trkpt lat="41.8790070" lon="-8.8366310">
        <ele>2.7</ele>
        <time>2021-05-18T13:54:43Z</time>
      </trkpt>
      <trkpt lat="41.8790070" lon="-8.8366310">
        <ele>2.7</ele>
        <time>2021-05-18T13:54:44Z</time>
      </trkpt>
      <trkpt lat="41.8790070" lon="-8.8366310">
        <ele>2.7</ele>
        <time>2021-05-18T13:54:45Z</time>
      </trkpt>
      <trkpt lat="41.8790070" lon="-8.8366310">
        <ele>2.7</ele>
        <time>2021-05-18T13:54:46Z</time>
      </trkpt>
      <trkpt lat="41.8790070" lon="-8.8366310">
        <ele>2.7</ele>
        <time>2021-05-18T13:54:47Z</time>
      </trkpt>
      <trkpt lat="41.8790070" lon="-8.8366310">
        <ele>2.7</ele>
        <time>2021-05-18T13:54:48Z</time>
      </trkpt>
      <trkpt lat="41.8790070" lon="-8.8366310">
        <ele>2.7</ele>
        <time>2021-05-18T13:54:49Z</time>
      </trkpt>
      <trkpt lat="41.8790070" lon="-8.8366310">
        <ele>2.7</ele>
        <time>2021-05-18T13:54:50Z</time>
      </trkpt>
      <trkpt lat="41.8790070" lon="-8.8366310">
        <ele>2.7</ele>
        <time>2021-05-18T13:54:51Z</time>
      </trkpt>
      <trkpt lat="41.8790070" lon="-8.8366310">
        <ele>2.7</ele>
        <time>2021-05-18T13:54:52Z</time>
      </trkpt>
      <trkpt lat="41.8790070" lon="-8.8366310">
        <ele>2.7</ele>
        <time>2021-05-18T13:54:53Z</time>
      </trkpt>
      <trkpt lat="41.8790070" lon="-8.8366310">
        <ele>2.7</ele>
        <time>2021-05-18T13:54:54Z</time>
      </trkpt>
      <trkpt lat="41.8790070" lon="-8.8366310">
        <ele>2.7</ele>
        <time>2021-05-18T13:54:55Z</time>
      </trkpt>
      <trkpt lat="41.8790070" lon="-8.8366310">
        <ele>2.7</ele>
        <time>2021-05-18T13:54:56Z</time>
      </trkpt>
      <trkpt lat="41.8790070" lon="-8.8366310">
        <ele>2.7</ele>
        <time>2021-05-18T13:54:57Z</time>
      </trkpt>
      <trkpt lat="41.8790070" lon="-8.8366310">
        <ele>2.7</ele>
        <time>2021-05-18T13:54:58Z</time>
      </trkpt>
      <trkpt lat="41.8790070" lon="-8.8366310">
        <ele>2.7</ele>
        <time>2021-05-18T13:54:59Z</time>
      </trkpt>
      <trkpt lat="41.8790070" lon="-8.8366310">
        <ele>2.7</ele>
        <time>2021-05-18T13:55:00Z</time>
      </trkpt>
      <trkpt lat="41.8790070" lon="-8.8366310">
        <ele>2.7</ele>
        <time>2021-05-18T13:55:01Z</time>
      </trkpt>
      <trkpt lat="41.8790070" lon="-8.8366310">
        <ele>2.7</ele>
        <time>2021-05-18T13:55:02Z</time>
      </trkpt>
      <trkpt lat="41.8790070" lon="-8.8366310">
        <ele>2.7</ele>
        <time>2021-05-18T13:55:03Z</time>
      </trkpt>
      <trkpt lat="41.8790070" lon="-8.8366310">
        <ele>2.7</ele>
        <time>2021-05-18T13:55:04Z</time>
      </trkpt>
      <trkpt lat="41.8790070" lon="-8.8366310">
        <ele>2.7</ele>
        <time>2021-05-18T13:55:05Z</time>
      </trkpt>
      <trkpt lat="41.8790070" lon="-8.8366310">
        <ele>2.7</ele>
        <time>2021-05-18T13:55:06Z</time>
      </trkpt>
      <trkpt lat="41.8790070" lon="-8.8366310">
        <ele>2.7</ele>
        <time>2021-05-18T13:55:07Z</time>
      </trkpt>
      <trkpt lat="41.8790070" lon="-8.8366310">
        <ele>2.7</ele>
        <time>2021-05-18T13:55:08Z</time>
      </trkpt>
      <trkpt lat="41.8790070" lon="-8.8366310">
        <ele>2.7</ele>
        <time>2021-05-18T13:55:09Z</time>
      </trkpt>
      <trkpt lat="41.8790070" lon="-8.8366310">
        <ele>2.7</ele>
        <time>2021-05-18T13:55:10Z</time>
      </trkpt>
      <trkpt lat="41.8790070" lon="-8.8366310">
        <ele>2.7</ele>
        <time>2021-05-18T13:55:11Z</time>
      </trkpt>
      <trkpt lat="41.8790070" lon="-8.8366310">
        <ele>2.7</ele>
        <time>2021-05-18T13:55:12Z</time>
      </trkpt>
      <trkpt lat="41.8790070" lon="-8.8366310">
        <ele>2.7</ele>
        <time>2021-05-18T13:55:13Z</time>
      </trkpt>
      <trkpt lat="41.8790070" lon="-8.8366310">
        <ele>2.7</ele>
        <time>2021-05-18T13:55:14Z</time>
      </trkpt>
      <trkpt lat="41.8790070" lon="-8.8366310">
        <ele>2.7</ele>
        <time>2021-05-18T13:55:15Z</time>
      </trkpt>
      <trkpt lat="41.8790070" lon="-8.8366310">
        <ele>2.7</ele>
        <time>2021-05-18T13:55:16Z</time>
      </trkpt>
      <trkpt lat="41.8790070" lon="-8.8366310">
        <ele>2.7</ele>
        <time>2021-05-18T13:55:17Z</time>
      </trkpt>
      <trkpt lat="41.8790070" lon="-8.8366310">
        <ele>2.7</ele>
        <time>2021-05-18T13:55:18Z</time>
      </trkpt>
      <trkpt lat="41.8790070" lon="-8.8366310">
        <ele>2.7</ele>
        <time>2021-05-18T13:55:19Z</time>
      </trkpt>
      <trkpt lat="41.8790070" lon="-8.8366310">
        <ele>2.7</ele>
        <time>2021-05-18T13:55:20Z</time>
      </trkpt>
      <trkpt lat="41.8790070" lon="-8.8366310">
        <ele>2.7</ele>
        <time>2021-05-18T13:55:21Z</time>
      </trkpt>
      <trkpt lat="41.8790070" lon="-8.8366310">
        <ele>2.7</ele>
        <time>2021-05-18T13:55:22Z</time>
      </trkpt>
      <trkpt lat="41.8790070" lon="-8.8366310">
        <ele>2.7</ele>
        <time>2021-05-18T13:55:23Z</time>
      </trkpt>
      <trkpt lat="41.8790070" lon="-8.8366310">
        <ele>2.7</ele>
        <time>2021-05-18T13:55:24Z</time>
      </trkpt>
      <trkpt lat="41.8790070" lon="-8.8366310">
        <ele>2.7</ele>
        <time>2021-05-18T13:55:25Z</time>
      </trkpt>
      <trkpt lat="41.8790070" lon="-8.8366310">
        <ele>2.7</ele>
        <time>2021-05-18T13:55:26Z</time>
      </trkpt>
      <trkpt lat="41.8790070" lon="-8.8366310">
        <ele>2.7</ele>
        <time>2021-05-18T13:55:27Z</time>
      </trkpt>
      <trkpt lat="41.8790070" lon="-8.8366310">
        <ele>2.7</ele>
        <time>2021-05-18T13:55:28Z</time>
      </trkpt>
      <trkpt lat="41.8790070" lon="-8.8366310">
        <ele>2.7</ele>
        <time>2021-05-18T13:55:29Z</time>
      </trkpt>
      <trkpt lat="41.8790070" lon="-8.8366310">
        <ele>2.7</ele>
        <time>2021-05-18T13:55:30Z</time>
      </trkpt>
      <trkpt lat="41.8790070" lon="-8.8366310">
        <ele>2.7</ele>
        <time>2021-05-18T13:55:31Z</time>
      </trkpt>
      <trkpt lat="41.8790070" lon="-8.8366310">
        <ele>2.7</ele>
        <time>2021-05-18T13:55:32Z</time>
      </trkpt>
      <trkpt lat="41.8790070" lon="-8.8366310">
        <ele>2.7</ele>
        <time>2021-05-18T13:55:33Z</time>
      </trkpt>
      <trkpt lat="41.8790070" lon="-8.8366310">
        <ele>2.7</ele>
        <time>2021-05-18T13:55:34Z</time>
      </trkpt>
      <trkpt lat="41.8790070" lon="-8.8366310">
        <ele>2.7</ele>
        <time>2021-05-18T13:55:35Z</time>
      </trkpt>
      <trkpt lat="41.8790070" lon="-8.8366310">
        <ele>2.7</ele>
        <time>2021-05-18T13:55:36Z</time>
      </trkpt>
      <trkpt lat="41.8790070" lon="-8.8366310">
        <ele>2.7</ele>
        <time>2021-05-18T13:55:37Z</time>
      </trkpt>
      <trkpt lat="41.8790070" lon="-8.8366310">
        <ele>2.7</ele>
        <time>2021-05-18T13:55:38Z</time>
      </trkpt>
      <trkpt lat="41.8790070" lon="-8.8366310">
        <ele>2.7</ele>
        <time>2021-05-18T13:55:39Z</time>
      </trkpt>
      <trkpt lat="41.8790070" lon="-8.8366310">
        <ele>2.7</ele>
        <time>2021-05-18T13:55:40Z</time>
      </trkpt>
      <trkpt lat="41.8790070" lon="-8.8366310">
        <ele>2.7</ele>
        <time>2021-05-18T13:55:41Z</time>
      </trkpt>
      <trkpt lat="41.8790070" lon="-8.8366310">
        <ele>2.7</ele>
        <time>2021-05-18T13:55:42Z</time>
      </trkpt>
      <trkpt lat="41.8790070" lon="-8.8366310">
        <ele>2.7</ele>
        <time>2021-05-18T13:55:43Z</time>
      </trkpt>
      <trkpt lat="41.8790070" lon="-8.8366310">
        <ele>2.7</ele>
        <time>2021-05-18T13:55:44Z</time>
      </trkpt>
      <trkpt lat="41.8790070" lon="-8.8366310">
        <ele>2.7</ele>
        <time>2021-05-18T13:55:45Z</time>
      </trkpt>
      <trkpt lat="41.8790070" lon="-8.8366310">
        <ele>2.7</ele>
        <time>2021-05-18T13:55:46Z</time>
      </trkpt>
      <trkpt lat="41.8790070" lon="-8.8366310">
        <ele>2.7</ele>
        <time>2021-05-18T13:55:47Z</time>
      </trkpt>
      <trkpt lat="41.8790070" lon="-8.8366310">
        <ele>2.7</ele>
        <time>2021-05-18T13:55:48Z</time>
      </trkpt>
      <trkpt lat="41.8790070" lon="-8.8366310">
        <ele>2.7</ele>
        <time>2021-05-18T13:55:49Z</time>
      </trkpt>
      <trkpt lat="41.8790070" lon="-8.8366310">
        <ele>2.7</ele>
        <time>2021-05-18T13:55:50Z</time>
      </trkpt>
      <trkpt lat="41.8790070" lon="-8.8366310">
        <ele>2.7</ele>
        <time>2021-05-18T13:55:51Z</time>
      </trkpt>
      <trkpt lat="41.8790070" lon="-8.8366310">
        <ele>2.7</ele>
        <time>2021-05-18T13:55:52Z</time>
      </trkpt>
      <trkpt lat="41.8790070" lon="-8.8366310">
        <ele>2.7</ele>
        <time>2021-05-18T13:55:53Z</time>
      </trkpt>
      <trkpt lat="41.8790070" lon="-8.8366310">
        <ele>2.7</ele>
        <time>2021-05-18T13:55:54Z</time>
      </trkpt>
      <trkpt lat="41.8790070" lon="-8.8366310">
        <ele>2.7</ele>
        <time>2021-05-18T13:55:55Z</time>
      </trkpt>
      <trkpt lat="41.8790070" lon="-8.8366310">
        <ele>2.7</ele>
        <time>2021-05-18T13:55:56Z</time>
      </trkpt>
      <trkpt lat="41.8790070" lon="-8.8366310">
        <ele>2.7</ele>
        <time>2021-05-18T13:55:57Z</time>
      </trkpt>
      <trkpt lat="41.8790070" lon="-8.8366310">
        <ele>2.7</ele>
        <time>2021-05-18T13:55:58Z</time>
      </trkpt>
      <trkpt lat="41.8790070" lon="-8.8366310">
        <ele>2.7</ele>
        <time>2021-05-18T13:55:59Z</time>
      </trkpt>
      <trkpt lat="41.8790070" lon="-8.8366310">
        <ele>2.7</ele>
        <time>2021-05-18T13:56:00Z</time>
      </trkpt>
      <trkpt lat="41.8790070" lon="-8.8366310">
        <ele>2.7</ele>
        <time>2021-05-18T13:56:01Z</time>
      </trkpt>
      <trkpt lat="41.8790070" lon="-8.8366310">
        <ele>2.7</ele>
        <time>2021-05-18T13:56:02Z</time>
      </trkpt>
      <trkpt lat="41.8790070" lon="-8.8366310">
        <ele>2.7</ele>
        <time>2021-05-18T13:56:03Z</time>
      </trkpt>
      <trkpt lat="41.8790070" lon="-8.8366310">
        <ele>2.7</ele>
        <time>2021-05-18T13:56:04Z</time>
      </trkpt>
      <trkpt lat="41.8790070" lon="-8.8366310">
        <ele>2.7</ele>
        <time>2021-05-18T13:56:05Z</time>
      </trkpt>
      <trkpt lat="41.8790070" lon="-8.8366310">
        <ele>2.7</ele>
        <time>2021-05-18T13:56:06Z</time>
      </trkpt>
      <trkpt lat="41.8790070" lon="-8.8366310">
        <ele>2.7</ele>
        <time>2021-05-18T13:56:07Z</time>
      </trkpt>
      <trkpt lat="41.8790070" lon="-8.8366310">
        <ele>2.7</ele>
        <time>2021-05-18T13:56:08Z</time>
      </trkpt>
      <trkpt lat="41.8790070" lon="-8.8366310">
        <ele>2.7</ele>
        <time>2021-05-18T13:56:09Z</time>
      </trkpt>
      <trkpt lat="41.8790070" lon="-8.8366310">
        <ele>2.7</ele>
        <time>2021-05-18T13:56:10Z</time>
      </trkpt>
      <trkpt lat="41.8790070" lon="-8.8366310">
        <ele>2.7</ele>
        <time>2021-05-18T13:56:11Z</time>
      </trkpt>
      <trkpt lat="41.8790070" lon="-8.8366310">
        <ele>2.7</ele>
        <time>2021-05-18T13:56:12Z</time>
      </trkpt>
      <trkpt lat="41.8790070" lon="-8.8366310">
        <ele>2.7</ele>
        <time>2021-05-18T13:56:13Z</time>
      </trkpt>
      <trkpt lat="41.8790070" lon="-8.8366310">
        <ele>2.7</ele>
        <time>2021-05-18T13:56:14Z</time>
      </trkpt>
      <trkpt lat="41.8790070" lon="-8.8366310">
        <ele>2.7</ele>
        <time>2021-05-18T13:56:15Z</time>
      </trkpt>
      <trkpt lat="41.8790070" lon="-8.8366310">
        <ele>2.7</ele>
        <time>2021-05-18T13:56:16Z</time>
      </trkpt>
      <trkpt lat="41.8790070" lon="-8.8366310">
        <ele>2.7</ele>
        <time>2021-05-18T13:56:17Z</time>
      </trkpt>
      <trkpt lat="41.8790070" lon="-8.8366310">
        <ele>2.7</ele>
        <time>2021-05-18T13:56:18Z</time>
      </trkpt>
      <trkpt lat="41.8790070" lon="-8.8366310">
        <ele>2.7</ele>
        <time>2021-05-18T13:56:19Z</time>
      </trkpt>
      <trkpt lat="41.8790070" lon="-8.8366310">
        <ele>2.7</ele>
        <time>2021-05-18T13:56:20Z</time>
      </trkpt>
      <trkpt lat="41.8790070" lon="-8.8366310">
        <ele>2.7</ele>
        <time>2021-05-18T13:56:21Z</time>
      </trkpt>
      <trkpt lat="41.8790070" lon="-8.8366310">
        <ele>2.7</ele>
        <time>2021-05-18T13:56:22Z</time>
      </trkpt>
      <trkpt lat="41.8790070" lon="-8.8366310">
        <ele>2.7</ele>
        <time>2021-05-18T13:56:23Z</time>
      </trkpt>
      <trkpt lat="41.8790070" lon="-8.8366310">
        <ele>2.7</ele>
        <time>2021-05-18T13:56:24Z</time>
      </trkpt>
      <trkpt lat="41.8790070" lon="-8.8366310">
        <ele>2.7</ele>
        <time>2021-05-18T13:56:25Z</time>
      </trkpt>
      <trkpt lat="41.8790070" lon="-8.8366310">
        <ele>2.7</ele>
        <time>2021-05-18T13:56:26Z</time>
      </trkpt>
      <trkpt lat="41.8790070" lon="-8.8366310">
        <ele>2.7</ele>
        <time>2021-05-18T13:56:27Z</time>
      </trkpt>
      <trkpt lat="41.8790070" lon="-8.8366310">
        <ele>2.7</ele>
        <time>2021-05-18T13:56:28Z</time>
      </trkpt>
      <trkpt lat="41.8790070" lon="-8.8366310">
        <ele>2.7</ele>
        <time>2021-05-18T13:56:29Z</time>
      </trkpt>
      <trkpt lat="41.8790070" lon="-8.8366310">
        <ele>2.7</ele>
        <time>2021-05-18T13:56:30Z</time>
      </trkpt>
      <trkpt lat="41.8790070" lon="-8.8366310">
        <ele>2.7</ele>
        <time>2021-05-18T13:56:31Z</time>
      </trkpt>
      <trkpt lat="41.8790070" lon="-8.8366310">
        <ele>2.7</ele>
        <time>2021-05-18T13:56:32Z</time>
      </trkpt>
      <trkpt lat="41.8790070" lon="-8.8366310">
        <ele>2.7</ele>
        <time>2021-05-18T13:56:33Z</time>
      </trkpt>
      <trkpt lat="41.8790070" lon="-8.8366310">
        <ele>2.7</ele>
        <time>2021-05-18T13:56:34Z</time>
      </trkpt>
      <trkpt lat="41.8790070" lon="-8.8366310">
        <ele>2.7</ele>
        <time>2021-05-18T13:56:35Z</time>
      </trkpt>
      <trkpt lat="41.8790070" lon="-8.8366310">
        <ele>2.7</ele>
        <time>2021-05-18T13:56:36Z</time>
      </trkpt>
      <trkpt lat="41.8790070" lon="-8.8366310">
        <ele>2.7</ele>
        <time>2021-05-18T13:56:37Z</time>
      </trkpt>
      <trkpt lat="41.8790070" lon="-8.8366310">
        <ele>2.7</ele>
        <time>2021-05-18T13:56:38Z</time>
      </trkpt>
      <trkpt lat="41.8790070" lon="-8.8366310">
        <ele>2.7</ele>
        <time>2021-05-18T13:56:39Z</time>
      </trkpt>
      <trkpt lat="41.8790070" lon="-8.8366310">
        <ele>2.7</ele>
        <time>2021-05-18T13:56:40Z</time>
      </trkpt>
      <trkpt lat="41.8790070" lon="-8.8366310">
        <ele>2.7</ele>
        <time>2021-05-18T13:56:41Z</time>
      </trkpt>
      <trkpt lat="41.8790070" lon="-8.8366310">
        <ele>2.7</ele>
        <time>2021-05-18T13:56:42Z</time>
      </trkpt>
      <trkpt lat="41.8790070" lon="-8.8366310">
        <ele>2.7</ele>
        <time>2021-05-18T13:56:43Z</time>
      </trkpt>
      <trkpt lat="41.8790070" lon="-8.8366310">
        <ele>2.7</ele>
        <time>2021-05-18T13:56:44Z</time>
      </trkpt>
      <trkpt lat="41.8790070" lon="-8.8366310">
        <ele>2.7</ele>
        <time>2021-05-18T13:56:45Z</time>
      </trkpt>
      <trkpt lat="41.8790070" lon="-8.8366310">
        <ele>2.7</ele>
        <time>2021-05-18T13:56:46Z</time>
      </trkpt>
      <trkpt lat="41.8790070" lon="-8.8366310">
        <ele>2.7</ele>
        <time>2021-05-18T13:56:47Z</time>
      </trkpt>
      <trkpt lat="41.8790070" lon="-8.8366310">
        <ele>2.7</ele>
        <time>2021-05-18T13:56:48Z</time>
      </trkpt>
      <trkpt lat="41.8790070" lon="-8.8366310">
        <ele>2.7</ele>
        <time>2021-05-18T13:56:49Z</time>
      </trkpt>
      <trkpt lat="41.8790070" lon="-8.8366310">
        <ele>2.7</ele>
        <time>2021-05-18T13:56:50Z</time>
      </trkpt>
      <trkpt lat="41.8790070" lon="-8.8366310">
        <ele>2.7</ele>
        <time>2021-05-18T13:56:51Z</time>
      </trkpt>
      <trkpt lat="41.8790070" lon="-8.8366310">
        <ele>2.7</ele>
        <time>2021-05-18T13:56:52Z</time>
      </trkpt>
      <trkpt lat="41.8790070" lon="-8.8366310">
        <ele>2.7</ele>
        <time>2021-05-18T13:56:53Z</time>
      </trkpt>
      <trkpt lat="41.8790070" lon="-8.8366310">
        <ele>2.7</ele>
        <time>2021-05-18T13:56:54Z</time>
      </trkpt>
      <trkpt lat="41.8790070" lon="-8.8366310">
        <ele>2.7</ele>
        <time>2021-05-18T13:56:55Z</time>
      </trkpt>
      <trkpt lat="41.8790070" lon="-8.8366310">
        <ele>2.7</ele>
        <time>2021-05-18T13:56:56Z</time>
      </trkpt>
      <trkpt lat="41.8790070" lon="-8.8366310">
        <ele>2.7</ele>
        <time>2021-05-18T13:56:57Z</time>
      </trkpt>
      <trkpt lat="41.8790070" lon="-8.8366310">
        <ele>2.7</ele>
        <time>2021-05-18T13:56:58Z</time>
      </trkpt>
      <trkpt lat="41.8790070" lon="-8.8366310">
        <ele>2.7</ele>
        <time>2021-05-18T13:56:59Z</time>
      </trkpt>
      <trkpt lat="41.8790070" lon="-8.8366310">
        <ele>2.7</ele>
        <time>2021-05-18T13:57:00Z</time>
      </trkpt>
      <trkpt lat="41.8790070" lon="-8.8366310">
        <ele>2.7</ele>
        <time>2021-05-18T13:57:01Z</time>
      </trkpt>
      <trkpt lat="41.8790070" lon="-8.8366310">
        <ele>2.7</ele>
        <time>2021-05-18T13:57:02Z</time>
      </trkpt>
      <trkpt lat="41.8790070" lon="-8.8366310">
        <ele>2.7</ele>
        <time>2021-05-18T13:57:03Z</time>
      </trkpt>
      <trkpt lat="41.8790070" lon="-8.8366310">
        <ele>2.7</ele>
        <time>2021-05-18T13:57:04Z</time>
      </trkpt>
      <trkpt lat="41.8790070" lon="-8.8366310">
        <ele>2.7</ele>
        <time>2021-05-18T13:57:05Z</time>
      </trkpt>
      <trkpt lat="41.8790070" lon="-8.8366310">
        <ele>2.7</ele>
        <time>2021-05-18T13:57:06Z</time>
      </trkpt>
      <trkpt lat="41.8790070" lon="-8.8366310">
        <ele>2.7</ele>
        <time>2021-05-18T13:57:07Z</time>
      </trkpt>
      <trkpt lat="41.8790070" lon="-8.8366310">
        <ele>2.7</ele>
        <time>2021-05-18T13:57:08Z</time>
      </trkpt>
      <trkpt lat="41.8790070" lon="-8.8366310">
        <ele>2.7</ele>
        <time>2021-05-18T13:57:09Z</time>
      </trkpt>
      <trkpt lat="41.8790070" lon="-8.8366310">
        <ele>2.7</ele>
        <time>2021-05-18T13:57:10Z</time>
      </trkpt>
      <trkpt lat="41.8790070" lon="-8.8366310">
        <ele>2.7</ele>
        <time>2021-05-18T13:57:11Z</time>
      </trkpt>
      <trkpt lat="41.8790070" lon="-8.8366310">
        <ele>2.7</ele>
        <time>2021-05-18T13:57:12Z</time>
      </trkpt>
      <trkpt lat="41.8790070" lon="-8.8366310">
        <ele>2.7</ele>
        <time>2021-05-18T13:57:13Z</time>
      </trkpt>
      <trkpt lat="41.8790070" lon="-8.8366310">
        <ele>2.7</ele>
        <time>2021-05-18T13:57:14Z</time>
      </trkpt>
      <trkpt lat="41.8790070" lon="-8.8366310">
        <ele>2.7</ele>
        <time>2021-05-18T13:57:15Z</time>
      </trkpt>
      <trkpt lat="41.8790070" lon="-8.8366310">
        <ele>2.7</ele>
        <time>2021-05-18T13:57:16Z</time>
      </trkpt>
      <trkpt lat="41.8790070" lon="-8.8366310">
        <ele>2.7</ele>
        <time>2021-05-18T13:57:17Z</time>
      </trkpt>
      <trkpt lat="41.8790070" lon="-8.8366310">
        <ele>2.7</ele>
        <time>2021-05-18T13:57:18Z</time>
      </trkpt>
      <trkpt lat="41.8790070" lon="-8.8366310">
        <ele>2.7</ele>
        <time>2021-05-18T13:57:19Z</time>
      </trkpt>
      <trkpt lat="41.8790070" lon="-8.8366310">
        <ele>2.7</ele>
        <time>2021-05-18T13:57:20Z</time>
      </trkpt>
      <trkpt lat="41.8790070" lon="-8.8366310">
        <ele>2.7</ele>
        <time>2021-05-18T13:57:21Z</time>
      </trkpt>
      <trkpt lat="41.8790070" lon="-8.8366310">
        <ele>2.7</ele>
        <time>2021-05-18T13:57:22Z</time>
      </trkpt>
      <trkpt lat="41.8790070" lon="-8.8366310">
        <ele>2.7</ele>
        <time>2021-05-18T13:57:23Z</time>
      </trkpt>
      <trkpt lat="41.8790070" lon="-8.8366310">
        <ele>2.7</ele>
        <time>2021-05-18T13:57:24Z</time>
      </trkpt>
      <trkpt lat="41.8790070" lon="-8.8366310">
        <ele>2.7</ele>
        <time>2021-05-18T13:57:25Z</time>
      </trkpt>
      <trkpt lat="41.8790070" lon="-8.8366310">
        <ele>2.7</ele>
        <time>2021-05-18T13:57:26Z</time>
      </trkpt>
      <trkpt lat="41.8790070" lon="-8.8366310">
        <ele>2.7</ele>
        <time>2021-05-18T13:57:27Z</time>
      </trkpt>
      <trkpt lat="41.8790070" lon="-8.8366310">
        <ele>2.7</ele>
        <time>2021-05-18T13:57:28Z</time>
      </trkpt>
      <trkpt lat="41.8790070" lon="-8.8366310">
        <ele>2.7</ele>
        <time>2021-05-18T13:57:29Z</time>
      </trkpt>
      <trkpt lat="41.8790070" lon="-8.8366310">
        <ele>2.7</ele>
        <time>2021-05-18T13:57:30Z</time>
      </trkpt>
      <trkpt lat="41.8790070" lon="-8.8366310">
        <ele>2.7</ele>
        <time>2021-05-18T13:57:31Z</time>
      </trkpt>
      <trkpt lat="41.8790070" lon="-8.8366310">
        <ele>2.7</ele>
        <time>2021-05-18T13:57:32Z</time>
      </trkpt>
      <trkpt lat="41.8790070" lon="-8.8366310">
        <ele>2.7</ele>
        <time>2021-05-18T13:57:33Z</time>
      </trkpt>
      <trkpt lat="41.8790070" lon="-8.8366310">
        <ele>2.7</ele>
        <time>2021-05-18T13:57:34Z</time>
      </trkpt>
      <trkpt lat="41.8790070" lon="-8.8366310">
        <ele>2.7</ele>
        <time>2021-05-18T13:57:35Z</time>
      </trkpt>
      <trkpt lat="41.8790070" lon="-8.8366310">
        <ele>2.7</ele>
        <time>2021-05-18T13:57:36Z</time>
      </trkpt>
      <trkpt lat="41.8790070" lon="-8.8366310">
        <ele>2.7</ele>
        <time>2021-05-18T13:57:37Z</time>
      </trkpt>
      <trkpt lat="41.8790070" lon="-8.8366310">
        <ele>2.7</ele>
        <time>2021-05-18T13:57:38Z</time>
      </trkpt>
      <trkpt lat="41.8790070" lon="-8.8366310">
        <ele>2.7</ele>
        <time>2021-05-18T13:57:39Z</time>
      </trkpt>
      <trkpt lat="41.8790070" lon="-8.8366310">
        <ele>2.7</ele>
        <time>2021-05-18T13:57:40Z</time>
      </trkpt>
      <trkpt lat="41.8790070" lon="-8.8366310">
        <ele>2.7</ele>
        <time>2021-05-18T13:57:41Z</time>
      </trkpt>
      <trkpt lat="41.8790070" lon="-8.8366310">
        <ele>2.7</ele>
        <time>2021-05-18T13:57:42Z</time>
      </trkpt>
      <trkpt lat="41.8790070" lon="-8.8366310">
        <ele>2.7</ele>
        <time>2021-05-18T13:57:43Z</time>
      </trkpt>
      <trkpt lat="41.8790070" lon="-8.8366310">
        <ele>2.7</ele>
        <time>2021-05-18T13:57:44Z</time>
      </trkpt>
      <trkpt lat="41.8790070" lon="-8.8366310">
        <ele>2.7</ele>
        <time>2021-05-18T13:57:45Z</time>
      </trkpt>
      <trkpt lat="41.8790070" lon="-8.8366310">
        <ele>2.7</ele>
        <time>2021-05-18T13:57:46Z</time>
      </trkpt>
      <trkpt lat="41.8790070" lon="-8.8366310">
        <ele>2.7</ele>
        <time>2021-05-18T13:57:47Z</time>
      </trkpt>
      <trkpt lat="41.8790070" lon="-8.8366310">
        <ele>2.7</ele>
        <time>2021-05-18T13:57:48Z</time>
      </trkpt>
      <trkpt lat="41.8790070" lon="-8.8366310">
        <ele>2.7</ele>
        <time>2021-05-18T13:57:49Z</time>
      </trkpt>
      <trkpt lat="41.8790070" lon="-8.8366310">
        <ele>2.7</ele>
        <time>2021-05-18T13:57:50Z</time>
      </trkpt>
      <trkpt lat="41.8790070" lon="-8.8366310">
        <ele>2.7</ele>
        <time>2021-05-18T13:57:51Z</time>
      </trkpt>
      <trkpt lat="41.8790070" lon="-8.8366310">
        <ele>2.7</ele>
        <time>2021-05-18T13:57:52Z</time>
      </trkpt>
      <trkpt lat="41.8790070" lon="-8.8366310">
        <ele>2.7</ele>
        <time>2021-05-18T13:57:53Z</time>
      </trkpt>
      <trkpt lat="41.8790070" lon="-8.8366310">
        <ele>2.7</ele>
        <time>2021-05-18T13:57:54Z</time>
      </trkpt>
      <trkpt lat="41.8790070" lon="-8.8366310">
        <ele>2.7</ele>
        <time>2021-05-18T13:57:55Z</time>
      </trkpt>
      <trkpt lat="41.8790070" lon="-8.8366310">
        <ele>2.7</ele>
        <time>2021-05-18T13:57:56Z</time>
      </trkpt>
      <trkpt lat="41.8790070" lon="-8.8366310">
        <ele>2.7</ele>
        <time>2021-05-18T13:57:57Z</time>
      </trkpt>
      <trkpt lat="41.8790070" lon="-8.8366310">
        <ele>2.7</ele>
        <time>2021-05-18T13:57:58Z</time>
      </trkpt>
      <trkpt lat="41.8790070" lon="-8.8366310">
        <ele>2.7</ele>
        <time>2021-05-18T13:57:59Z</time>
      </trkpt>
      <trkpt lat="41.8790070" lon="-8.8366310">
        <ele>2.7</ele>
        <time>2021-05-18T13:58:00Z</time>
      </trkpt>
      <trkpt lat="41.8790070" lon="-8.8366310">
        <ele>2.7</ele>
        <time>2021-05-18T13:58:01Z</time>
      </trkpt>
      <trkpt lat="41.8790070" lon="-8.8366310">
        <ele>2.7</ele>
        <time>2021-05-18T13:58:02Z</time>
      </trkpt>
      <trkpt lat="41.8790070" lon="-8.8366310">
        <ele>2.7</ele>
        <time>2021-05-18T13:58:03Z</time>
      </trkpt>
      <trkpt lat="41.8790070" lon="-8.8366310">
        <ele>2.7</ele>
        <time>2021-05-18T13:58:04Z</time>
      </trkpt>
      <trkpt lat="41.8790070" lon="-8.8366310">
        <ele>2.7</ele>
        <time>2021-05-18T13:58:05Z</time>
      </trkpt>
      <trkpt lat="41.8790070" lon="-8.8366310">
        <ele>2.7</ele>
        <time>2021-05-18T13:58:06Z</time>
      </trkpt>
      <trkpt lat="41.8790070" lon="-8.8366310">
        <ele>2.7</ele>
        <time>2021-05-18T13:58:07Z</time>
      </trkpt>
      <trkpt lat="41.8790070" lon="-8.8366310">
        <ele>2.7</ele>
        <time>2021-05-18T13:58:08Z</time>
      </trkpt>
      <trkpt lat="41.8790070" lon="-8.8366310">
        <ele>2.7</ele>
        <time>2021-05-18T13:58:09Z</time>
      </trkpt>
      <trkpt lat="41.8790070" lon="-8.8366310">
        <ele>2.7</ele>
        <time>2021-05-18T13:58:10Z</time>
      </trkpt>
      <trkpt lat="41.8790070" lon="-8.8366310">
        <ele>2.7</ele>
        <time>2021-05-18T13:58:11Z</time>
      </trkpt>
      <trkpt lat="41.8790070" lon="-8.8366310">
        <ele>2.7</ele>
        <time>2021-05-18T13:58:12Z</time>
      </trkpt>
      <trkpt lat="41.8790070" lon="-8.8366310">
        <ele>2.7</ele>
        <time>2021-05-18T13:58:13Z</time>
      </trkpt>
      <trkpt lat="41.8790070" lon="-8.8366310">
        <ele>2.7</ele>
        <time>2021-05-18T13:58:14Z</time>
      </trkpt>
      <trkpt lat="41.8790070" lon="-8.8366310">
        <ele>2.7</ele>
        <time>2021-05-18T13:58:15Z</time>
      </trkpt>
      <trkpt lat="41.8790070" lon="-8.8366310">
        <ele>2.7</ele>
        <time>2021-05-18T13:58:16Z</time>
      </trkpt>
      <trkpt lat="41.8790070" lon="-8.8366310">
        <ele>2.7</ele>
        <time>2021-05-18T13:58:17Z</time>
      </trkpt>
      <trkpt lat="41.8790070" lon="-8.8366310">
        <ele>2.7</ele>
        <time>2021-05-18T13:58:18Z</time>
      </trkpt>
      <trkpt lat="41.8790070" lon="-8.8366310">
        <ele>2.7</ele>
        <time>2021-05-18T13:58:19Z</time>
      </trkpt>
      <trkpt lat="41.8790070" lon="-8.8366310">
        <ele>2.7</ele>
        <time>2021-05-18T13:58:20Z</time>
      </trkpt>
      <trkpt lat="41.8790070" lon="-8.8366310">
        <ele>2.7</ele>
        <time>2021-05-18T13:58:21Z</time>
      </trkpt>
      <trkpt lat="41.8790070" lon="-8.8366310">
        <ele>2.7</ele>
        <time>2021-05-18T13:58:22Z</time>
      </trkpt>
      <trkpt lat="41.8790070" lon="-8.8366310">
        <ele>2.7</ele>
        <time>2021-05-18T13:58:23Z</time>
      </trkpt>
      <trkpt lat="41.8790070" lon="-8.8366310">
        <ele>2.7</ele>
        <time>2021-05-18T13:58:24Z</time>
      </trkpt>
      <trkpt lat="41.8790070" lon="-8.8366310">
        <ele>2.7</ele>
        <time>2021-05-18T13:58:25Z</time>
      </trkpt>
      <trkpt lat="41.8790070" lon="-8.8366310">
        <ele>2.7</ele>
        <time>2021-05-18T13:58:26Z</time>
      </trkpt>
      <trkpt lat="41.8790070" lon="-8.8366310">
        <ele>2.7</ele>
        <time>2021-05-18T13:58:27Z</time>
      </trkpt>
      <trkpt lat="41.8790070" lon="-8.8366310">
        <ele>2.7</ele>
        <time>2021-05-18T13:58:28Z</time>
      </trkpt>
      <trkpt lat="41.8790070" lon="-8.8366310">
        <ele>2.7</ele>
        <time>2021-05-18T13:58:29Z</time>
      </trkpt>
      <trkpt lat="41.8790070" lon="-8.8366310">
        <ele>2.7</ele>
        <time>2021-05-18T13:58:30Z</time>
      </trkpt>
      <trkpt lat="41.8790070" lon="-8.8366310">
        <ele>2.7</ele>
        <time>2021-05-18T13:58:31Z</time>
      </trkpt>
      <trkpt lat="41.8790070" lon="-8.8366310">
        <ele>2.7</ele>
        <time>2021-05-18T13:58:32Z</time>
      </trkpt>
      <trkpt lat="41.8790070" lon="-8.8366310">
        <ele>2.7</ele>
        <time>2021-05-18T13:58:33Z</time>
      </trkpt>
      <trkpt lat="41.8790070" lon="-8.8366310">
        <ele>2.7</ele>
        <time>2021-05-18T13:58:34Z</time>
      </trkpt>
      <trkpt lat="41.8790070" lon="-8.8366310">
        <ele>2.7</ele>
        <time>2021-05-18T13:58:35Z</time>
      </trkpt>
      <trkpt lat="41.8790070" lon="-8.8366310">
        <ele>2.7</ele>
        <time>2021-05-18T13:58:36Z</time>
      </trkpt>
      <trkpt lat="41.8790070" lon="-8.8366310">
        <ele>2.7</ele>
        <time>2021-05-18T13:58:37Z</time>
      </trkpt>
      <trkpt lat="41.8790070" lon="-8.8366310">
        <ele>2.7</ele>
        <time>2021-05-18T13:58:38Z</time>
      </trkpt>
      <trkpt lat="41.8790070" lon="-8.8366310">
        <ele>2.7</ele>
        <time>2021-05-18T13:58:39Z</time>
      </trkpt>
      <trkpt lat="41.8790070" lon="-8.8366310">
        <ele>2.7</ele>
        <time>2021-05-18T13:58:40Z</time>
      </trkpt>
      <trkpt lat="41.8790070" lon="-8.8366310">
        <ele>2.7</ele>
        <time>2021-05-18T13:58:41Z</time>
      </trkpt>
      <trkpt lat="41.8790070" lon="-8.8366310">
        <ele>2.7</ele>
        <time>2021-05-18T13:58:42Z</time>
      </trkpt>
      <trkpt lat="41.8790070" lon="-8.8366310">
        <ele>2.7</ele>
        <time>2021-05-18T13:58:43Z</time>
      </trkpt>
      <trkpt lat="41.8790070" lon="-8.8366310">
        <ele>2.7</ele>
        <time>2021-05-18T13:58:44Z</time>
      </trkpt>
      <trkpt lat="41.8790070" lon="-8.8366310">
        <ele>2.7</ele>
        <time>2021-05-18T13:58:45Z</time>
      </trkpt>
      <trkpt lat="41.8790070" lon="-8.8366310">
        <ele>2.7</ele>
        <time>2021-05-18T13:58:46Z</time>
      </trkpt>
      <trkpt lat="41.8790070" lon="-8.8366310">
        <ele>2.7</ele>
        <time>2021-05-18T13:58:47Z</time>
      </trkpt>
      <trkpt lat="41.8790070" lon="-8.8366310">
        <ele>2.7</ele>
        <time>2021-05-18T13:58:48Z</time>
      </trkpt>
      <trkpt lat="41.8790070" lon="-8.8366310">
        <ele>2.7</ele>
        <time>2021-05-18T13:58:49Z</time>
      </trkpt>
      <trkpt lat="41.8790070" lon="-8.8366310">
        <ele>2.7</ele>
        <time>2021-05-18T13:58:50Z</time>
      </trkpt>
      <trkpt lat="41.8790070" lon="-8.8366310">
        <ele>2.7</ele>
        <time>2021-05-18T13:58:51Z</time>
      </trkpt>
      <trkpt lat="41.8790070" lon="-8.8366310">
        <ele>2.7</ele>
        <time>2021-05-18T13:58:52Z</time>
      </trkpt>
      <trkpt lat="41.8790070" lon="-8.8366310">
        <ele>2.7</ele>
        <time>2021-05-18T13:58:53Z</time>
      </trkpt>
      <trkpt lat="41.8790070" lon="-8.8366310">
        <ele>2.7</ele>
        <time>2021-05-18T13:58:54Z</time>
      </trkpt>
      <trkpt lat="41.8790070" lon="-8.8366310">
        <ele>2.7</ele>
        <time>2021-05-18T13:58:55Z</time>
      </trkpt>
      <trkpt lat="41.8790070" lon="-8.8366310">
        <ele>2.7</ele>
        <time>2021-05-18T13:58:56Z</time>
      </trkpt>
      <trkpt lat="41.8790070" lon="-8.8366310">
        <ele>2.7</ele>
        <time>2021-05-18T13:58:57Z</time>
      </trkpt>
      <trkpt lat="41.8790070" lon="-8.8366310">
        <ele>2.7</ele>
        <time>2021-05-18T13:58:58Z</time>
      </trkpt>
      <trkpt lat="41.8790070" lon="-8.8366310">
        <ele>2.7</ele>
        <time>2021-05-18T13:58:59Z</time>
      </trkpt>
      <trkpt lat="41.8790070" lon="-8.8366310">
        <ele>2.7</ele>
        <time>2021-05-18T13:59:00Z</time>
      </trkpt>
      <trkpt lat="41.8790070" lon="-8.8366310">
        <ele>2.7</ele>
        <time>2021-05-18T13:59:01Z</time>
      </trkpt>
      <trkpt lat="41.8790070" lon="-8.8366310">
        <ele>2.7</ele>
        <time>2021-05-18T13:59:02Z</time>
      </trkpt>
      <trkpt lat="41.8790070" lon="-8.8366310">
        <ele>2.7</ele>
        <time>2021-05-18T13:59:03Z</time>
      </trkpt>
      <trkpt lat="41.8790070" lon="-8.8366310">
        <ele>2.7</ele>
        <time>2021-05-18T13:59:04Z</time>
      </trkpt>
      <trkpt lat="41.8790070" lon="-8.8366310">
        <ele>2.7</ele>
        <time>2021-05-18T13:59:05Z</time>
      </trkpt>
      <trkpt lat="41.8790060" lon="-8.8366310">
        <ele>2.7</ele>
        <time>2021-05-18T13:59:06Z</time>
      </trkpt>
      <trkpt lat="41.8790060" lon="-8.8366320">
        <ele>2.7</ele>
        <time>2021-05-18T13:59:07Z</time>
      </trkpt>
      <trkpt lat="41.8790060" lon="-8.8366320">
        <ele>2.7</ele>
        <time>2021-05-18T13:59:08Z</time>
      </trkpt>
      <trkpt lat="41.8790060" lon="-8.8366320">
        <ele>2.7</ele>
        <time>2021-05-18T13:59:09Z</time>
      </trkpt>
      <trkpt lat="41.8790060" lon="-8.8366320">
        <ele>2.7</ele>
        <time>2021-05-18T13:59:10Z</time>
      </trkpt>
      <trkpt lat="41.8790060" lon="-8.8366320">
        <ele>2.7</ele>
        <time>2021-05-18T13:59:11Z</time>
      </trkpt>
      <trkpt lat="41.8790060" lon="-8.8366320">
        <ele>2.7</ele>
        <time>2021-05-18T13:59:12Z</time>
      </trkpt>
      <trkpt lat="41.8790060" lon="-8.8366320">
        <ele>2.7</ele>
        <time>2021-05-18T13:59:13Z</time>
      </trkpt>
      <trkpt lat="41.8790060" lon="-8.8366320">
        <ele>2.7</ele>
        <time>2021-05-18T13:59:14Z</time>
      </trkpt>
      <trkpt lat="41.8790050" lon="-8.8366290">
        <ele>2.7</ele>
        <time>2021-05-18T13:59:15Z</time>
      </trkpt>
      <trkpt lat="41.8790050" lon="-8.8366290">
        <ele>2.7</ele>
        <time>2021-05-18T13:59:16Z</time>
      </trkpt>
      <trkpt lat="41.8790050" lon="-8.8366290">
        <ele>2.7</ele>
        <time>2021-05-18T13:59:17Z</time>
      </trkpt>
      <trkpt lat="41.8790050" lon="-8.8366290">
        <ele>2.7</ele>
        <time>2021-05-18T13:59:18Z</time>
      </trkpt>
      <trkpt lat="41.8790050" lon="-8.8366290">
        <ele>2.7</ele>
        <time>2021-05-18T13:59:19Z</time>
      </trkpt>
      <trkpt lat="41.8790050" lon="-8.8366290">
        <ele>2.7</ele>
        <time>2021-05-18T13:59:20Z</time>
      </trkpt>
      <trkpt lat="41.8790050" lon="-8.8366290">
        <ele>2.7</ele>
        <time>2021-05-18T13:59:21Z</time>
      </trkpt>
      <trkpt lat="41.8790050" lon="-8.8366290">
        <ele>2.7</ele>
        <time>2021-05-18T13:59:22Z</time>
      </trkpt>
      <trkpt lat="41.8790050" lon="-8.8366290">
        <ele>2.7</ele>
        <time>2021-05-18T13:59:23Z</time>
      </trkpt>
      <trkpt lat="41.8790050" lon="-8.8366290">
        <ele>2.7</ele>
        <time>2021-05-18T13:59:24Z</time>
      </trkpt>
      <trkpt lat="41.8790050" lon="-8.8366290">
        <ele>2.7</ele>
        <time>2021-05-18T13:59:25Z</time>
      </trkpt>
      <trkpt lat="41.8790050" lon="-8.8366290">
        <ele>2.7</ele>
        <time>2021-05-18T13:59:26Z</time>
      </trkpt>
      <trkpt lat="41.8790050" lon="-8.8366290">
        <ele>2.7</ele>
        <time>2021-05-18T13:59:27Z</time>
      </trkpt>
      <trkpt lat="41.8790050" lon="-8.8366290">
        <ele>2.7</ele>
        <time>2021-05-18T13:59:28Z</time>
      </trkpt>
      <trkpt lat="41.8790050" lon="-8.8366290">
        <ele>2.7</ele>
        <time>2021-05-18T13:59:29Z</time>
      </trkpt>
      <trkpt lat="41.8790050" lon="-8.8366290">
        <ele>2.7</ele>
        <time>2021-05-18T13:59:30Z</time>
      </trkpt>
      <trkpt lat="41.8790050" lon="-8.8366290">
        <ele>2.7</ele>
        <time>2021-05-18T13:59:31Z</time>
      </trkpt>
      <trkpt lat="41.8790050" lon="-8.8366290">
        <ele>2.7</ele>
        <time>2021-05-18T13:59:32Z</time>
      </trkpt>
      <trkpt lat="41.8790050" lon="-8.8366290">
        <ele>2.7</ele>
        <time>2021-05-18T13:59:33Z</time>
      </trkpt>
      <trkpt lat="41.8790050" lon="-8.8366290">
        <ele>2.7</ele>
        <time>2021-05-18T13:59:34Z</time>
      </trkpt>
      <trkpt lat="41.8790050" lon="-8.8366290">
        <ele>2.7</ele>
        <time>2021-05-18T13:59:35Z</time>
      </trkpt>
      <trkpt lat="41.8790050" lon="-8.8366290">
        <ele>2.7</ele>
        <time>2021-05-18T13:59:36Z</time>
      </trkpt>
      <trkpt lat="41.8790050" lon="-8.8366290">
        <ele>2.7</ele>
        <time>2021-05-18T13:59:37Z</time>
      </trkpt>
      <trkpt lat="41.8790050" lon="-8.8366290">
        <ele>2.7</ele>
        <time>2021-05-18T13:59:38Z</time>
      </trkpt>
      <trkpt lat="41.8790050" lon="-8.8366290">
        <ele>2.7</ele>
        <time>2021-05-18T13:59:39Z</time>
      </trkpt>
      <trkpt lat="41.8790050" lon="-8.8366290">
        <ele>2.7</ele>
        <time>2021-05-18T13:59:40Z</time>
      </trkpt>
      <trkpt lat="41.8790050" lon="-8.8366290">
        <ele>2.7</ele>
        <time>2021-05-18T13:59:41Z</time>
      </trkpt>
      <trkpt lat="41.8790050" lon="-8.8366290">
        <ele>2.7</ele>
        <time>2021-05-18T13:59:42Z</time>
      </trkpt>
      <trkpt lat="41.8790050" lon="-8.8366290">
        <ele>2.7</ele>
        <time>2021-05-18T13:59:43Z</time>
      </trkpt>
      <trkpt lat="41.8790050" lon="-8.8366290">
        <ele>2.7</ele>
        <time>2021-05-18T13:59:44Z</time>
      </trkpt>
      <trkpt lat="41.8790050" lon="-8.8366290">
        <ele>2.7</ele>
        <time>2021-05-18T13:59:45Z</time>
      </trkpt>
      <trkpt lat="41.8790050" lon="-8.8366290">
        <ele>2.7</ele>
        <time>2021-05-18T13:59:46Z</time>
      </trkpt>
      <trkpt lat="41.8790050" lon="-8.8366290">
        <ele>2.7</ele>
        <time>2021-05-18T13:59:47Z</time>
      </trkpt>
      <trkpt lat="41.8790050" lon="-8.8366290">
        <ele>2.7</ele>
        <time>2021-05-18T13:59:48Z</time>
      </trkpt>
      <trkpt lat="41.8790050" lon="-8.8366290">
        <ele>2.7</ele>
        <time>2021-05-18T13:59:49Z</time>
      </trkpt>
      <trkpt lat="41.8790050" lon="-8.8366290">
        <ele>2.7</ele>
        <time>2021-05-18T13:59:50Z</time>
      </trkpt>
      <trkpt lat="41.8790050" lon="-8.8366290">
        <ele>2.7</ele>
        <time>2021-05-18T13:59:51Z</time>
      </trkpt>
      <trkpt lat="41.8790050" lon="-8.8366290">
        <ele>2.7</ele>
        <time>2021-05-18T13:59:52Z</time>
      </trkpt>
      <trkpt lat="41.8790050" lon="-8.8366290">
        <ele>2.7</ele>
        <time>2021-05-18T13:59:53Z</time>
      </trkpt>
      <trkpt lat="41.8790050" lon="-8.8366290">
        <ele>2.7</ele>
        <time>2021-05-18T13:59:54Z</time>
      </trkpt>
      <trkpt lat="41.8790050" lon="-8.8366290">
        <ele>2.7</ele>
        <time>2021-05-18T13:59:55Z</time>
      </trkpt>
      <trkpt lat="41.8790050" lon="-8.8366290">
        <ele>2.7</ele>
        <time>2021-05-18T13:59:56Z</time>
      </trkpt>
      <trkpt lat="41.8790050" lon="-8.8366290">
        <ele>2.7</ele>
        <time>2021-05-18T13:59:57Z</time>
      </trkpt>
      <trkpt lat="41.8790050" lon="-8.8366290">
        <ele>2.7</ele>
        <time>2021-05-18T13:59:58Z</time>
      </trkpt>
      <trkpt lat="41.8790050" lon="-8.8366290">
        <ele>2.7</ele>
        <time>2021-05-18T13:59:59Z</time>
      </trkpt>
      <trkpt lat="41.8790050" lon="-8.8366290">
        <ele>2.7</ele>
        <time>2021-05-18T14:00:00Z</time>
      </trkpt>
      <trkpt lat="41.8790050" lon="-8.8366290">
        <ele>2.7</ele>
        <time>2021-05-18T14:00:01Z</time>
      </trkpt>
      <trkpt lat="41.8790050" lon="-8.8366290">
        <ele>2.7</ele>
        <time>2021-05-18T14:00:02Z</time>
      </trkpt>
      <trkpt lat="41.8790050" lon="-8.8366290">
        <ele>2.7</ele>
        <time>2021-05-18T14:00:03Z</time>
      </trkpt>
      <trkpt lat="41.8790050" lon="-8.8366290">
        <ele>2.7</ele>
        <time>2021-05-18T14:00:04Z</time>
      </trkpt>
      <trkpt lat="41.8790050" lon="-8.8366290">
        <ele>2.7</ele>
        <time>2021-05-18T14:00:05Z</time>
      </trkpt>
      <trkpt lat="41.8790050" lon="-8.8366290">
        <ele>2.7</ele>
        <time>2021-05-18T14:00:06Z</time>
      </trkpt>
      <trkpt lat="41.8790050" lon="-8.8366290">
        <ele>2.7</ele>
        <time>2021-05-18T14:00:07Z</time>
      </trkpt>
      <trkpt lat="41.8790050" lon="-8.8366290">
        <ele>2.7</ele>
        <time>2021-05-18T14:00:08Z</time>
      </trkpt>
      <trkpt lat="41.8790050" lon="-8.8366290">
        <ele>2.7</ele>
        <time>2021-05-18T14:00:09Z</time>
      </trkpt>
      <trkpt lat="41.8790050" lon="-8.8366290">
        <ele>2.7</ele>
        <time>2021-05-18T14:00:10Z</time>
      </trkpt>
      <trkpt lat="41.8790050" lon="-8.8366290">
        <ele>2.7</ele>
        <time>2021-05-18T14:00:11Z</time>
      </trkpt>
      <trkpt lat="41.8790050" lon="-8.8366290">
        <ele>2.7</ele>
        <time>2021-05-18T14:00:12Z</time>
      </trkpt>
      <trkpt lat="41.8790050" lon="-8.8366290">
        <ele>2.7</ele>
        <time>2021-05-18T14:00:13Z</time>
      </trkpt>
      <trkpt lat="41.8790050" lon="-8.8366290">
        <ele>2.7</ele>
        <time>2021-05-18T14:00:14Z</time>
      </trkpt>
      <trkpt lat="41.8790050" lon="-8.8366290">
        <ele>2.7</ele>
        <time>2021-05-18T14:00:15Z</time>
      </trkpt>
      <trkpt lat="41.8790050" lon="-8.8366290">
        <ele>2.7</ele>
        <time>2021-05-18T14:00:16Z</time>
      </trkpt>
      <trkpt lat="41.8790050" lon="-8.8366290">
        <ele>2.7</ele>
        <time>2021-05-18T14:00:17Z</time>
      </trkpt>
      <trkpt lat="41.8790050" lon="-8.8366290">
        <ele>2.7</ele>
        <time>2021-05-18T14:00:18Z</time>
      </trkpt>
      <trkpt lat="41.8790050" lon="-8.8366290">
        <ele>2.7</ele>
        <time>2021-05-18T14:00:19Z</time>
      </trkpt>
      <trkpt lat="41.8790050" lon="-8.8366290">
        <ele>2.7</ele>
        <time>2021-05-18T14:00:20Z</time>
      </trkpt>
      <trkpt lat="41.8790050" lon="-8.8366290">
        <ele>2.7</ele>
        <time>2021-05-18T14:00:21Z</time>
      </trkpt>
      <trkpt lat="41.8790050" lon="-8.8366290">
        <ele>2.7</ele>
        <time>2021-05-18T14:00:22Z</time>
      </trkpt>
      <trkpt lat="41.8790050" lon="-8.8366290">
        <ele>2.7</ele>
        <time>2021-05-18T14:00:23Z</time>
      </trkpt>
      <trkpt lat="41.8790050" lon="-8.8366290">
        <ele>2.7</ele>
        <time>2021-05-18T14:00:24Z</time>
      </trkpt>
      <trkpt lat="41.8790050" lon="-8.8366290">
        <ele>2.7</ele>
        <time>2021-05-18T14:00:25Z</time>
      </trkpt>
      <trkpt lat="41.8790050" lon="-8.8366290">
        <ele>2.7</ele>
        <time>2021-05-18T14:00:26Z</time>
      </trkpt>
      <trkpt lat="41.8790050" lon="-8.8366290">
        <ele>2.7</ele>
        <time>2021-05-18T14:00:27Z</time>
      </trkpt>
      <trkpt lat="41.8790050" lon="-8.8366290">
        <ele>2.7</ele>
        <time>2021-05-18T14:00:28Z</time>
      </trkpt>
      <trkpt lat="41.8790050" lon="-8.8366290">
        <ele>2.7</ele>
        <time>2021-05-18T14:00:29Z</time>
      </trkpt>
      <trkpt lat="41.8790050" lon="-8.8366290">
        <ele>2.7</ele>
        <time>2021-05-18T14:00:30Z</time>
      </trkpt>
      <trkpt lat="41.8790050" lon="-8.8366290">
        <ele>2.7</ele>
        <time>2021-05-18T14:00:31Z</time>
      </trkpt>
      <trkpt lat="41.8790050" lon="-8.8366290">
        <ele>2.7</ele>
        <time>2021-05-18T14:00:32Z</time>
      </trkpt>
      <trkpt lat="41.8790050" lon="-8.8366290">
        <ele>2.7</ele>
        <time>2021-05-18T14:00:33Z</time>
      </trkpt>
      <trkpt lat="41.8790050" lon="-8.8366290">
        <ele>2.7</ele>
        <time>2021-05-18T14:00:34Z</time>
      </trkpt>
      <trkpt lat="41.8790050" lon="-8.8366290">
        <ele>2.7</ele>
        <time>2021-05-18T14:00:35Z</time>
      </trkpt>
      <trkpt lat="41.8790050" lon="-8.8366290">
        <ele>2.7</ele>
        <time>2021-05-18T14:00:36Z</time>
      </trkpt>
      <trkpt lat="41.8790050" lon="-8.8366290">
        <ele>2.7</ele>
        <time>2021-05-18T14:00:37Z</time>
      </trkpt>
      <trkpt lat="41.8790050" lon="-8.8366290">
        <ele>2.7</ele>
        <time>2021-05-18T14:00:38Z</time>
      </trkpt>
      <trkpt lat="41.8790050" lon="-8.8366290">
        <ele>2.7</ele>
        <time>2021-05-18T14:00:39Z</time>
      </trkpt>
      <trkpt lat="41.8790050" lon="-8.8366290">
        <ele>2.7</ele>
        <time>2021-05-18T14:00:40Z</time>
      </trkpt>
      <trkpt lat="41.8790050" lon="-8.8366290">
        <ele>2.7</ele>
        <time>2021-05-18T14:00:41Z</time>
      </trkpt>
      <trkpt lat="41.8790050" lon="-8.8366290">
        <ele>2.7</ele>
        <time>2021-05-18T14:00:42Z</time>
      </trkpt>
      <trkpt lat="41.8790050" lon="-8.8366290">
        <ele>2.7</ele>
        <time>2021-05-18T14:00:43Z</time>
      </trkpt>
      <trkpt lat="41.8790050" lon="-8.8366290">
        <ele>2.7</ele>
        <time>2021-05-18T14:00:44Z</time>
      </trkpt>
      <trkpt lat="41.8790050" lon="-8.8366290">
        <ele>2.7</ele>
        <time>2021-05-18T14:00:45Z</time>
      </trkpt>
      <trkpt lat="41.8790050" lon="-8.8366290">
        <ele>2.7</ele>
        <time>2021-05-18T14:00:46Z</time>
      </trkpt>
      <trkpt lat="41.8790050" lon="-8.8366290">
        <ele>2.7</ele>
        <time>2021-05-18T14:00:47Z</time>
      </trkpt>
      <trkpt lat="41.8790050" lon="-8.8366290">
        <ele>2.7</ele>
        <time>2021-05-18T14:00:48Z</time>
      </trkpt>
      <trkpt lat="41.8790050" lon="-8.8366290">
        <ele>2.7</ele>
        <time>2021-05-18T14:00:49Z</time>
      </trkpt>
      <trkpt lat="41.8790050" lon="-8.8366290">
        <ele>2.7</ele>
        <time>2021-05-18T14:00:50Z</time>
      </trkpt>
      <trkpt lat="41.8790050" lon="-8.8366290">
        <ele>2.7</ele>
        <time>2021-05-18T14:00:51Z</time>
      </trkpt>
      <trkpt lat="41.8790050" lon="-8.8366290">
        <ele>2.7</ele>
        <time>2021-05-18T14:00:52Z</time>
      </trkpt>
      <trkpt lat="41.8790050" lon="-8.8366290">
        <ele>2.7</ele>
        <time>2021-05-18T14:00:53Z</time>
      </trkpt>
      <trkpt lat="41.8790050" lon="-8.8366290">
        <ele>2.7</ele>
        <time>2021-05-18T14:00:54Z</time>
      </trkpt>
      <trkpt lat="41.8790050" lon="-8.8366290">
        <ele>2.7</ele>
        <time>2021-05-18T14:00:55Z</time>
      </trkpt>
      <trkpt lat="41.8790050" lon="-8.8366290">
        <ele>2.7</ele>
        <time>2021-05-18T14:00:56Z</time>
      </trkpt>
      <trkpt lat="41.8790050" lon="-8.8366290">
        <ele>2.7</ele>
        <time>2021-05-18T14:00:57Z</time>
      </trkpt>
      <trkpt lat="41.8790050" lon="-8.8366290">
        <ele>2.7</ele>
        <time>2021-05-18T14:00:58Z</time>
      </trkpt>
      <trkpt lat="41.8790050" lon="-8.8366290">
        <ele>2.7</ele>
        <time>2021-05-18T14:00:59Z</time>
      </trkpt>
      <trkpt lat="41.8790050" lon="-8.8366290">
        <ele>2.7</ele>
        <time>2021-05-18T14:01:00Z</time>
      </trkpt>
      <trkpt lat="41.8790050" lon="-8.8366290">
        <ele>2.7</ele>
        <time>2021-05-18T14:01:01Z</time>
      </trkpt>
      <trkpt lat="41.8790050" lon="-8.8366290">
        <ele>2.7</ele>
        <time>2021-05-18T14:01:02Z</time>
      </trkpt>
      <trkpt lat="41.8790050" lon="-8.8366290">
        <ele>2.7</ele>
        <time>2021-05-18T14:01:03Z</time>
      </trkpt>
      <trkpt lat="41.8790050" lon="-8.8366290">
        <ele>2.7</ele>
        <time>2021-05-18T14:01:04Z</time>
      </trkpt>
      <trkpt lat="41.8790050" lon="-8.8366290">
        <ele>2.7</ele>
        <time>2021-05-18T14:01:05Z</time>
      </trkpt>
      <trkpt lat="41.8790050" lon="-8.8366290">
        <ele>2.7</ele>
        <time>2021-05-18T14:01:06Z</time>
      </trkpt>
      <trkpt lat="41.8790050" lon="-8.8366290">
        <ele>2.7</ele>
        <time>2021-05-18T14:01:07Z</time>
      </trkpt>
      <trkpt lat="41.8790050" lon="-8.8366290">
        <ele>2.7</ele>
        <time>2021-05-18T14:01:08Z</time>
      </trkpt>
      <trkpt lat="41.8790050" lon="-8.8366290">
        <ele>2.7</ele>
        <time>2021-05-18T14:01:09Z</time>
      </trkpt>
      <trkpt lat="41.8790050" lon="-8.8366290">
        <ele>2.7</ele>
        <time>2021-05-18T14:01:10Z</time>
      </trkpt>
      <trkpt lat="41.8790050" lon="-8.8366290">
        <ele>2.7</ele>
        <time>2021-05-18T14:01:11Z</time>
      </trkpt>
      <trkpt lat="41.8790050" lon="-8.8366290">
        <ele>2.7</ele>
        <time>2021-05-18T14:01:12Z</time>
      </trkpt>
      <trkpt lat="41.8790050" lon="-8.8366290">
        <ele>2.7</ele>
        <time>2021-05-18T14:01:13Z</time>
      </trkpt>
      <trkpt lat="41.8790050" lon="-8.8366290">
        <ele>2.7</ele>
        <time>2021-05-18T14:01:14Z</time>
      </trkpt>
      <trkpt lat="41.8790050" lon="-8.8366290">
        <ele>2.7</ele>
        <time>2021-05-18T14:01:15Z</time>
      </trkpt>
      <trkpt lat="41.8790050" lon="-8.8366290">
        <ele>2.7</ele>
        <time>2021-05-18T14:01:16Z</time>
      </trkpt>
      <trkpt lat="41.8790050" lon="-8.8366290">
        <ele>2.7</ele>
        <time>2021-05-18T14:01:17Z</time>
      </trkpt>
      <trkpt lat="41.8790050" lon="-8.8366290">
        <ele>2.7</ele>
        <time>2021-05-18T14:01:18Z</time>
      </trkpt>
      <trkpt lat="41.8790050" lon="-8.8366290">
        <ele>2.7</ele>
        <time>2021-05-18T14:01:19Z</time>
      </trkpt>
      <trkpt lat="41.8790050" lon="-8.8366290">
        <ele>2.7</ele>
        <time>2021-05-18T14:01:20Z</time>
      </trkpt>
      <trkpt lat="41.8790050" lon="-8.8366290">
        <ele>2.7</ele>
        <time>2021-05-18T14:01:21Z</time>
      </trkpt>
      <trkpt lat="41.8790050" lon="-8.8366290">
        <ele>2.7</ele>
        <time>2021-05-18T14:01:22Z</time>
      </trkpt>
      <trkpt lat="41.8790050" lon="-8.8366290">
        <ele>2.7</ele>
        <time>2021-05-18T14:01:23Z</time>
      </trkpt>
      <trkpt lat="41.8790050" lon="-8.8366290">
        <ele>2.7</ele>
        <time>2021-05-18T14:01:24Z</time>
      </trkpt>
      <trkpt lat="41.8790050" lon="-8.8366290">
        <ele>2.7</ele>
        <time>2021-05-18T14:01:25Z</time>
      </trkpt>
      <trkpt lat="41.8790050" lon="-8.8366290">
        <ele>2.7</ele>
        <time>2021-05-18T14:01:26Z</time>
      </trkpt>
      <trkpt lat="41.8790050" lon="-8.8366290">
        <ele>2.7</ele>
        <time>2021-05-18T14:01:27Z</time>
      </trkpt>
      <trkpt lat="41.8790050" lon="-8.8366290">
        <ele>2.7</ele>
        <time>2021-05-18T14:01:28Z</time>
      </trkpt>
      <trkpt lat="41.8790050" lon="-8.8366290">
        <ele>2.7</ele>
        <time>2021-05-18T14:01:29Z</time>
      </trkpt>
      <trkpt lat="41.8790050" lon="-8.8366290">
        <ele>2.7</ele>
        <time>2021-05-18T14:01:30Z</time>
      </trkpt>
      <trkpt lat="41.8790050" lon="-8.8366290">
        <ele>2.7</ele>
        <time>2021-05-18T14:01:31Z</time>
      </trkpt>
      <trkpt lat="41.8790050" lon="-8.8366290">
        <ele>2.7</ele>
        <time>2021-05-18T14:01:32Z</time>
      </trkpt>
      <trkpt lat="41.8790050" lon="-8.8366290">
        <ele>2.7</ele>
        <time>2021-05-18T14:01:33Z</time>
      </trkpt>
      <trkpt lat="41.8790050" lon="-8.8366290">
        <ele>2.7</ele>
        <time>2021-05-18T14:01:34Z</time>
      </trkpt>
      <trkpt lat="41.8790050" lon="-8.8366290">
        <ele>2.7</ele>
        <time>2021-05-18T14:01:35Z</time>
      </trkpt>
      <trkpt lat="41.8790050" lon="-8.8366290">
        <ele>2.7</ele>
        <time>2021-05-18T14:01:36Z</time>
      </trkpt>
      <trkpt lat="41.8790050" lon="-8.8366290">
        <ele>2.7</ele>
        <time>2021-05-18T14:01:37Z</time>
      </trkpt>
      <trkpt lat="41.8790050" lon="-8.8366290">
        <ele>2.7</ele>
        <time>2021-05-18T14:01:38Z</time>
      </trkpt>
      <trkpt lat="41.8790050" lon="-8.8366290">
        <ele>2.7</ele>
        <time>2021-05-18T14:01:39Z</time>
      </trkpt>
      <trkpt lat="41.8790050" lon="-8.8366290">
        <ele>2.7</ele>
        <time>2021-05-18T14:01:40Z</time>
      </trkpt>
      <trkpt lat="41.8790050" lon="-8.8366290">
        <ele>2.7</ele>
        <time>2021-05-18T14:01:41Z</time>
      </trkpt>
      <trkpt lat="41.8790050" lon="-8.8366290">
        <ele>2.7</ele>
        <time>2021-05-18T14:01:42Z</time>
      </trkpt>
      <trkpt lat="41.8790050" lon="-8.8366290">
        <ele>2.7</ele>
        <time>2021-05-18T14:01:43Z</time>
      </trkpt>
      <trkpt lat="41.8790050" lon="-8.8366290">
        <ele>2.7</ele>
        <time>2021-05-18T14:01:44Z</time>
      </trkpt>
      <trkpt lat="41.8790050" lon="-8.8366290">
        <ele>2.7</ele>
        <time>2021-05-18T14:01:45Z</time>
      </trkpt>
      <trkpt lat="41.8790050" lon="-8.8366290">
        <ele>2.7</ele>
        <time>2021-05-18T14:01:46Z</time>
      </trkpt>
      <trkpt lat="41.8790050" lon="-8.8366290">
        <ele>2.7</ele>
        <time>2021-05-18T14:01:47Z</time>
      </trkpt>
      <trkpt lat="41.8790050" lon="-8.8366290">
        <ele>2.7</ele>
        <time>2021-05-18T14:01:48Z</time>
      </trkpt>
      <trkpt lat="41.8790050" lon="-8.8366290">
        <ele>2.7</ele>
        <time>2021-05-18T14:01:49Z</time>
      </trkpt>
      <trkpt lat="41.8790050" lon="-8.8366290">
        <ele>2.7</ele>
        <time>2021-05-18T14:01:50Z</time>
      </trkpt>
      <trkpt lat="41.8790050" lon="-8.8366290">
        <ele>2.7</ele>
        <time>2021-05-18T14:01:51Z</time>
      </trkpt>
      <trkpt lat="41.8790050" lon="-8.8366290">
        <ele>2.7</ele>
        <time>2021-05-18T14:01:52Z</time>
      </trkpt>
      <trkpt lat="41.8790050" lon="-8.8366290">
        <ele>2.7</ele>
        <time>2021-05-18T14:01:53Z</time>
      </trkpt>
      <trkpt lat="41.8790050" lon="-8.8366290">
        <ele>2.7</ele>
        <time>2021-05-18T14:01:54Z</time>
      </trkpt>
      <trkpt lat="41.8790050" lon="-8.8366290">
        <ele>2.7</ele>
        <time>2021-05-18T14:01:55Z</time>
      </trkpt>
      <trkpt lat="41.8790050" lon="-8.8366290">
        <ele>2.7</ele>
        <time>2021-05-18T14:01:56Z</time>
      </trkpt>
      <trkpt lat="41.8790050" lon="-8.8366290">
        <ele>2.7</ele>
        <time>2021-05-18T14:01:57Z</time>
      </trkpt>
      <trkpt lat="41.8790050" lon="-8.8366290">
        <ele>2.7</ele>
        <time>2021-05-18T14:01:58Z</time>
      </trkpt>
      <trkpt lat="41.8790050" lon="-8.8366290">
        <ele>2.7</ele>
        <time>2021-05-18T14:01:59Z</time>
      </trkpt>
      <trkpt lat="41.8790050" lon="-8.8366290">
        <ele>2.7</ele>
        <time>2021-05-18T14:02:00Z</time>
      </trkpt>
      <trkpt lat="41.8790050" lon="-8.8366290">
        <ele>2.7</ele>
        <time>2021-05-18T14:02:01Z</time>
      </trkpt>
      <trkpt lat="41.8790050" lon="-8.8366290">
        <ele>2.7</ele>
        <time>2021-05-18T14:02:02Z</time>
      </trkpt>
      <trkpt lat="41.8790050" lon="-8.8366290">
        <ele>2.7</ele>
        <time>2021-05-18T14:02:03Z</time>
      </trkpt>
      <trkpt lat="41.8790050" lon="-8.8366290">
        <ele>2.7</ele>
        <time>2021-05-18T14:02:04Z</time>
      </trkpt>
      <trkpt lat="41.8790050" lon="-8.8366290">
        <ele>2.7</ele>
        <time>2021-05-18T14:02:05Z</time>
      </trkpt>
      <trkpt lat="41.8790050" lon="-8.8366290">
        <ele>2.7</ele>
        <time>2021-05-18T14:02:06Z</time>
      </trkpt>
      <trkpt lat="41.8790050" lon="-8.8366290">
        <ele>2.7</ele>
        <time>2021-05-18T14:02:07Z</time>
      </trkpt>
      <trkpt lat="41.8790050" lon="-8.8366290">
        <ele>2.7</ele>
        <time>2021-05-18T14:02:08Z</time>
      </trkpt>
      <trkpt lat="41.8790050" lon="-8.8366290">
        <ele>2.7</ele>
        <time>2021-05-18T14:02:09Z</time>
      </trkpt>
      <trkpt lat="41.8790050" lon="-8.8366290">
        <ele>2.7</ele>
        <time>2021-05-18T14:02:10Z</time>
      </trkpt>
      <trkpt lat="41.8790050" lon="-8.8366290">
        <ele>2.7</ele>
        <time>2021-05-18T14:02:11Z</time>
      </trkpt>
      <trkpt lat="41.8790050" lon="-8.8366290">
        <ele>2.7</ele>
        <time>2021-05-18T14:02:12Z</time>
      </trkpt>
      <trkpt lat="41.8790050" lon="-8.8366290">
        <ele>2.7</ele>
        <time>2021-05-18T14:02:13Z</time>
      </trkpt>
      <trkpt lat="41.8790050" lon="-8.8366290">
        <ele>2.7</ele>
        <time>2021-05-18T14:02:14Z</time>
      </trkpt>
      <trkpt lat="41.8790050" lon="-8.8366290">
        <ele>2.7</ele>
        <time>2021-05-18T14:02:15Z</time>
      </trkpt>
      <trkpt lat="41.8790050" lon="-8.8366290">
        <ele>2.7</ele>
        <time>2021-05-18T14:02:16Z</time>
      </trkpt>
      <trkpt lat="41.8790050" lon="-8.8366290">
        <ele>2.7</ele>
        <time>2021-05-18T14:02:17Z</time>
      </trkpt>
      <trkpt lat="41.8790050" lon="-8.8366290">
        <ele>2.7</ele>
        <time>2021-05-18T14:02:18Z</time>
      </trkpt>
      <trkpt lat="41.8790050" lon="-8.8366290">
        <ele>2.7</ele>
        <time>2021-05-18T14:02:19Z</time>
      </trkpt>
      <trkpt lat="41.8790050" lon="-8.8366290">
        <ele>2.7</ele>
        <time>2021-05-18T14:02:20Z</time>
      </trkpt>
      <trkpt lat="41.8790050" lon="-8.8366290">
        <ele>2.7</ele>
        <time>2021-05-18T14:02:21Z</time>
      </trkpt>
      <trkpt lat="41.8790050" lon="-8.8366290">
        <ele>2.7</ele>
        <time>2021-05-18T14:02:22Z</time>
      </trkpt>
      <trkpt lat="41.8790050" lon="-8.8366290">
        <ele>2.7</ele>
        <time>2021-05-18T14:02:23Z</time>
      </trkpt>
      <trkpt lat="41.8790050" lon="-8.8366290">
        <ele>2.7</ele>
        <time>2021-05-18T14:02:24Z</time>
      </trkpt>
      <trkpt lat="41.8790050" lon="-8.8366290">
        <ele>2.7</ele>
        <time>2021-05-18T14:02:25Z</time>
      </trkpt>
      <trkpt lat="41.8790050" lon="-8.8366290">
        <ele>2.7</ele>
        <time>2021-05-18T14:02:26Z</time>
      </trkpt>
      <trkpt lat="41.8790050" lon="-8.8366290">
        <ele>2.7</ele>
        <time>2021-05-18T14:02:27Z</time>
      </trkpt>
      <trkpt lat="41.8790050" lon="-8.8366290">
        <ele>2.7</ele>
        <time>2021-05-18T14:02:28Z</time>
      </trkpt>
      <trkpt lat="41.8790050" lon="-8.8366290">
        <ele>2.7</ele>
        <time>2021-05-18T14:02:29Z</time>
      </trkpt>
      <trkpt lat="41.8790050" lon="-8.8366290">
        <ele>2.7</ele>
        <time>2021-05-18T14:02:30Z</time>
      </trkpt>
      <trkpt lat="41.8790050" lon="-8.8366290">
        <ele>2.7</ele>
        <time>2021-05-18T14:02:31Z</time>
      </trkpt>
      <trkpt lat="41.8790050" lon="-8.8366290">
        <ele>2.7</ele>
        <time>2021-05-18T14:02:32Z</time>
      </trkpt>
      <trkpt lat="41.8790050" lon="-8.8366290">
        <ele>2.7</ele>
        <time>2021-05-18T14:02:33Z</time>
      </trkpt>
      <trkpt lat="41.8790050" lon="-8.8366290">
        <ele>2.7</ele>
        <time>2021-05-18T14:02:34Z</time>
      </trkpt>
      <trkpt lat="41.8790050" lon="-8.8366290">
        <ele>2.7</ele>
        <time>2021-05-18T14:02:35Z</time>
      </trkpt>
      <trkpt lat="41.8790050" lon="-8.8366290">
        <ele>2.7</ele>
        <time>2021-05-18T14:02:36Z</time>
      </trkpt>
      <trkpt lat="41.8790050" lon="-8.8366290">
        <ele>2.7</ele>
        <time>2021-05-18T14:02:37Z</time>
      </trkpt>
      <trkpt lat="41.8790050" lon="-8.8366290">
        <ele>2.7</ele>
        <time>2021-05-18T14:02:38Z</time>
      </trkpt>
      <trkpt lat="41.8790050" lon="-8.8366290">
        <ele>2.7</ele>
        <time>2021-05-18T14:02:39Z</time>
      </trkpt>
      <trkpt lat="41.8790050" lon="-8.8366290">
        <ele>2.7</ele>
        <time>2021-05-18T14:02:40Z</time>
      </trkpt>
      <trkpt lat="41.8790050" lon="-8.8366290">
        <ele>2.7</ele>
        <time>2021-05-18T14:02:41Z</time>
      </trkpt>
      <trkpt lat="41.8790050" lon="-8.8366290">
        <ele>2.7</ele>
        <time>2021-05-18T14:02:42Z</time>
      </trkpt>
      <trkpt lat="41.8790050" lon="-8.8366290">
        <ele>2.7</ele>
        <time>2021-05-18T14:02:43Z</time>
      </trkpt>
      <trkpt lat="41.8790050" lon="-8.8366290">
        <ele>2.7</ele>
        <time>2021-05-18T14:02:44Z</time>
      </trkpt>
      <trkpt lat="41.8790050" lon="-8.8366290">
        <ele>2.7</ele>
        <time>2021-05-18T14:02:45Z</time>
      </trkpt>
      <trkpt lat="41.8790050" lon="-8.8366290">
        <ele>2.7</ele>
        <time>2021-05-18T14:02:46Z</time>
      </trkpt>
      <trkpt lat="41.8790050" lon="-8.8366290">
        <ele>2.7</ele>
        <time>2021-05-18T14:02:47Z</time>
      </trkpt>
      <trkpt lat="41.8790050" lon="-8.8366290">
        <ele>2.7</ele>
        <time>2021-05-18T14:02:48Z</time>
      </trkpt>
      <trkpt lat="41.8790050" lon="-8.8366290">
        <ele>2.7</ele>
        <time>2021-05-18T14:02:49Z</time>
      </trkpt>
      <trkpt lat="41.8790050" lon="-8.8366290">
        <ele>2.7</ele>
        <time>2021-05-18T14:02:50Z</time>
      </trkpt>
      <trkpt lat="41.8790050" lon="-8.8366290">
        <ele>2.7</ele>
        <time>2021-05-18T14:02:51Z</time>
      </trkpt>
      <trkpt lat="41.8790050" lon="-8.8366290">
        <ele>2.7</ele>
        <time>2021-05-18T14:02:52Z</time>
      </trkpt>
      <trkpt lat="41.8790050" lon="-8.8366290">
        <ele>2.7</ele>
        <time>2021-05-18T14:02:53Z</time>
      </trkpt>
      <trkpt lat="41.8790050" lon="-8.8366290">
        <ele>2.7</ele>
        <time>2021-05-18T14:02:54Z</time>
      </trkpt>
      <trkpt lat="41.8790050" lon="-8.8366290">
        <ele>2.7</ele>
        <time>2021-05-18T14:02:55Z</time>
      </trkpt>
      <trkpt lat="41.8790050" lon="-8.8366290">
        <ele>2.7</ele>
        <time>2021-05-18T14:02:56Z</time>
      </trkpt>
      <trkpt lat="41.8790050" lon="-8.8366290">
        <ele>2.7</ele>
        <time>2021-05-18T14:02:57Z</time>
      </trkpt>
      <trkpt lat="41.8790050" lon="-8.8366290">
        <ele>2.7</ele>
        <time>2021-05-18T14:02:58Z</time>
      </trkpt>
      <trkpt lat="41.8790050" lon="-8.8366290">
        <ele>2.7</ele>
        <time>2021-05-18T14:02:59Z</time>
      </trkpt>
      <trkpt lat="41.8790050" lon="-8.8366290">
        <ele>2.7</ele>
        <time>2021-05-18T14:03:00Z</time>
      </trkpt>
      <trkpt lat="41.8790050" lon="-8.8366290">
        <ele>2.7</ele>
        <time>2021-05-18T14:03:01Z</time>
      </trkpt>
      <trkpt lat="41.8790050" lon="-8.8366290">
        <ele>2.7</ele>
        <time>2021-05-18T14:03:02Z</time>
      </trkpt>
      <trkpt lat="41.8790050" lon="-8.8366290">
        <ele>2.7</ele>
        <time>2021-05-18T14:03:03Z</time>
      </trkpt>
      <trkpt lat="41.8790050" lon="-8.8366290">
        <ele>2.7</ele>
        <time>2021-05-18T14:03:04Z</time>
      </trkpt>
      <trkpt lat="41.8790050" lon="-8.8366290">
        <ele>2.7</ele>
        <time>2021-05-18T14:03:05Z</time>
      </trkpt>
      <trkpt lat="41.8790050" lon="-8.8366290">
        <ele>2.7</ele>
        <time>2021-05-18T14:03:06Z</time>
      </trkpt>
      <trkpt lat="41.8790050" lon="-8.8366290">
        <ele>2.7</ele>
        <time>2021-05-18T14:03:07Z</time>
      </trkpt>
      <trkpt lat="41.8790050" lon="-8.8366290">
        <ele>2.7</ele>
        <time>2021-05-18T14:03:08Z</time>
      </trkpt>
      <trkpt lat="41.8790050" lon="-8.8366290">
        <ele>2.7</ele>
        <time>2021-05-18T14:03:09Z</time>
      </trkpt>
      <trkpt lat="41.8790050" lon="-8.8366290">
        <ele>2.7</ele>
        <time>2021-05-18T14:03:10Z</time>
      </trkpt>
      <trkpt lat="41.8790050" lon="-8.8366290">
        <ele>2.7</ele>
        <time>2021-05-18T14:03:11Z</time>
      </trkpt>
      <trkpt lat="41.8790050" lon="-8.8366290">
        <ele>2.7</ele>
        <time>2021-05-18T14:03:12Z</time>
      </trkpt>
      <trkpt lat="41.8790050" lon="-8.8366290">
        <ele>2.7</ele>
        <time>2021-05-18T14:03:13Z</time>
      </trkpt>
      <trkpt lat="41.8790050" lon="-8.8366290">
        <ele>2.7</ele>
        <time>2021-05-18T14:03:14Z</time>
      </trkpt>
      <trkpt lat="41.8790050" lon="-8.8366290">
        <ele>2.7</ele>
        <time>2021-05-18T14:03:15Z</time>
      </trkpt>
      <trkpt lat="41.8790050" lon="-8.8366290">
        <ele>2.7</ele>
        <time>2021-05-18T14:03:16Z</time>
      </trkpt>
      <trkpt lat="41.8790050" lon="-8.8366290">
        <ele>2.7</ele>
        <time>2021-05-18T14:03:17Z</time>
      </trkpt>
      <trkpt lat="41.8790050" lon="-8.8366290">
        <ele>2.7</ele>
        <time>2021-05-18T14:03:18Z</time>
      </trkpt>
      <trkpt lat="41.8790050" lon="-8.8366290">
        <ele>2.7</ele>
        <time>2021-05-18T14:03:19Z</time>
      </trkpt>
      <trkpt lat="41.8790050" lon="-8.8366290">
        <ele>2.7</ele>
        <time>2021-05-18T14:03:20Z</time>
      </trkpt>
      <trkpt lat="41.8790050" lon="-8.8366290">
        <ele>2.7</ele>
        <time>2021-05-18T14:03:21Z</time>
      </trkpt>
      <trkpt lat="41.8790050" lon="-8.8366290">
        <ele>2.7</ele>
        <time>2021-05-18T14:03:22Z</time>
      </trkpt>
      <trkpt lat="41.8790050" lon="-8.8366290">
        <ele>2.7</ele>
        <time>2021-05-18T14:03:23Z</time>
      </trkpt>
      <trkpt lat="41.8790050" lon="-8.8366290">
        <ele>2.7</ele>
        <time>2021-05-18T14:03:24Z</time>
      </trkpt>
      <trkpt lat="41.8790050" lon="-8.8366290">
        <ele>2.7</ele>
        <time>2021-05-18T14:03:25Z</time>
      </trkpt>
      <trkpt lat="41.8790050" lon="-8.8366290">
        <ele>2.7</ele>
        <time>2021-05-18T14:03:26Z</time>
      </trkpt>
      <trkpt lat="41.8790050" lon="-8.8366290">
        <ele>2.7</ele>
        <time>2021-05-18T14:03:27Z</time>
      </trkpt>
      <trkpt lat="41.8790050" lon="-8.8366290">
        <ele>2.7</ele>
        <time>2021-05-18T14:03:28Z</time>
      </trkpt>
      <trkpt lat="41.8790050" lon="-8.8366290">
        <ele>2.7</ele>
        <time>2021-05-18T14:03:29Z</time>
      </trkpt>
      <trkpt lat="41.8790050" lon="-8.8366290">
        <ele>2.7</ele>
        <time>2021-05-18T14:03:30Z</time>
      </trkpt>
      <trkpt lat="41.8790050" lon="-8.8366290">
        <ele>2.7</ele>
        <time>2021-05-18T14:03:31Z</time>
      </trkpt>
      <trkpt lat="41.8790050" lon="-8.8366290">
        <ele>2.7</ele>
        <time>2021-05-18T14:03:32Z</time>
      </trkpt>
      <trkpt lat="41.8790050" lon="-8.8366290">
        <ele>2.7</ele>
        <time>2021-05-18T14:03:33Z</time>
      </trkpt>
      <trkpt lat="41.8790050" lon="-8.8366290">
        <ele>2.7</ele>
        <time>2021-05-18T14:03:34Z</time>
      </trkpt>
      <trkpt lat="41.8790050" lon="-8.8366290">
        <ele>2.7</ele>
        <time>2021-05-18T14:03:35Z</time>
      </trkpt>
      <trkpt lat="41.8790050" lon="-8.8366290">
        <ele>2.7</ele>
        <time>2021-05-18T14:03:36Z</time>
      </trkpt>
      <trkpt lat="41.8790050" lon="-8.8366290">
        <ele>2.7</ele>
        <time>2021-05-18T14:03:37Z</time>
      </trkpt>
      <trkpt lat="41.8790050" lon="-8.8366290">
        <ele>2.7</ele>
        <time>2021-05-18T14:03:38Z</time>
      </trkpt>
      <trkpt lat="41.8790050" lon="-8.8366290">
        <ele>2.7</ele>
        <time>2021-05-18T14:03:39Z</time>
      </trkpt>
      <trkpt lat="41.8790050" lon="-8.8366290">
        <ele>2.7</ele>
        <time>2021-05-18T14:03:40Z</time>
      </trkpt>
      <trkpt lat="41.8790050" lon="-8.8366290">
        <ele>2.7</ele>
        <time>2021-05-18T14:03:41Z</time>
      </trkpt>
      <trkpt lat="41.8790050" lon="-8.8366290">
        <ele>2.7</ele>
        <time>2021-05-18T14:03:42Z</time>
      </trkpt>
      <trkpt lat="41.8790050" lon="-8.8366290">
        <ele>2.7</ele>
        <time>2021-05-18T14:03:43Z</time>
      </trkpt>
      <trkpt lat="41.8790050" lon="-8.8366290">
        <ele>2.7</ele>
        <time>2021-05-18T14:03:44Z</time>
      </trkpt>
      <trkpt lat="41.8790050" lon="-8.8366290">
        <ele>2.7</ele>
        <time>2021-05-18T14:03:45Z</time>
      </trkpt>
      <trkpt lat="41.8790050" lon="-8.8366290">
        <ele>2.7</ele>
        <time>2021-05-18T14:03:46Z</time>
      </trkpt>
      <trkpt lat="41.8790050" lon="-8.8366290">
        <ele>2.7</ele>
        <time>2021-05-18T14:03:47Z</time>
      </trkpt>
      <trkpt lat="41.8790050" lon="-8.8366290">
        <ele>2.7</ele>
        <time>2021-05-18T14:03:48Z</time>
      </trkpt>
      <trkpt lat="41.8790050" lon="-8.8366290">
        <ele>2.7</ele>
        <time>2021-05-18T14:03:49Z</time>
      </trkpt>
      <trkpt lat="41.8790050" lon="-8.8366290">
        <ele>2.7</ele>
        <time>2021-05-18T14:03:50Z</time>
      </trkpt>
      <trkpt lat="41.8790050" lon="-8.8366290">
        <ele>2.6</ele>
        <time>2021-05-18T14:03:51Z</time>
      </trkpt>
      <trkpt lat="41.8790050" lon="-8.8366290">
        <ele>2.6</ele>
        <time>2021-05-18T14:03:52Z</time>
      </trkpt>
      <trkpt lat="41.8790050" lon="-8.8366290">
        <ele>2.6</ele>
        <time>2021-05-18T14:03:53Z</time>
      </trkpt>
      <trkpt lat="41.8790050" lon="-8.8366290">
        <ele>2.5</ele>
        <time>2021-05-18T14:03:54Z</time>
      </trkpt>
      <trkpt lat="41.8790050" lon="-8.8366290">
        <ele>2.5</ele>
        <time>2021-05-18T14:03:55Z</time>
      </trkpt>
      <trkpt lat="41.8790050" lon="-8.8366290">
        <ele>2.5</ele>
        <time>2021-05-18T14:03:56Z</time>
      </trkpt>
      <trkpt lat="41.8790050" lon="-8.8366290">
        <ele>2.5</ele>
        <time>2021-05-18T14:03:57Z</time>
      </trkpt>
      <trkpt lat="41.8790050" lon="-8.8366290">
        <ele>2.4</ele>
        <time>2021-05-18T14:03:58Z</time>
      </trkpt>
      <trkpt lat="41.8790050" lon="-8.8366290">
        <ele>2.4</ele>
        <time>2021-05-18T14:03:59Z</time>
      </trkpt>
      <trkpt lat="41.8790050" lon="-8.8366290">
        <ele>2.4</ele>
        <time>2021-05-18T14:04:00Z</time>
      </trkpt>
      <trkpt lat="41.8790050" lon="-8.8366290">
        <ele>2.3</ele>
        <time>2021-05-18T14:04:01Z</time>
      </trkpt>
      <trkpt lat="41.8790050" lon="-8.8366290">
        <ele>2.3</ele>
        <time>2021-05-18T14:04:02Z</time>
      </trkpt>
      <trkpt lat="41.8790050" lon="-8.8366290">
        <ele>2.3</ele>
        <time>2021-05-18T14:04:03Z</time>
      </trkpt>
      <trkpt lat="41.8790050" lon="-8.8366290">
        <ele>2.2</ele>
        <time>2021-05-18T14:04:04Z</time>
      </trkpt>
      <trkpt lat="41.8790050" lon="-8.8366290">
        <ele>2.2</ele>
        <time>2021-05-18T14:04:05Z</time>
      </trkpt>
      <trkpt lat="41.8790050" lon="-8.8366290">
        <ele>2.2</ele>
        <time>2021-05-18T14:04:06Z</time>
      </trkpt>
      <trkpt lat="41.8790050" lon="-8.8366290">
        <ele>2.1</ele>
        <time>2021-05-18T14:04:07Z</time>
      </trkpt>
      <trkpt lat="41.8790050" lon="-8.8366290">
        <ele>2.1</ele>
        <time>2021-05-18T14:04:08Z</time>
      </trkpt>
      <trkpt lat="41.8790050" lon="-8.8366290">
        <ele>2.1</ele>
        <time>2021-05-18T14:04:09Z</time>
      </trkpt>
      <trkpt lat="41.8790050" lon="-8.8366290">
        <ele>2.0</ele>
        <time>2021-05-18T14:04:10Z</time>
      </trkpt>
      <trkpt lat="41.8790050" lon="-8.8366290">
        <ele>2.0</ele>
        <time>2021-05-18T14:04:11Z</time>
      </trkpt>
      <trkpt lat="41.8790050" lon="-8.8366290">
        <ele>2.0</ele>
        <time>2021-05-18T14:04:12Z</time>
      </trkpt>
      <trkpt lat="41.8790050" lon="-8.8366290">
        <ele>2.0</ele>
        <time>2021-05-18T14:04:13Z</time>
      </trkpt>
      <trkpt lat="41.8790050" lon="-8.8366290">
        <ele>1.9</ele>
        <time>2021-05-18T14:04:14Z</time>
      </trkpt>
      <trkpt lat="41.8790050" lon="-8.8366290">
        <ele>1.9</ele>
        <time>2021-05-18T14:04:15Z</time>
      </trkpt>
      <trkpt lat="41.8790050" lon="-8.8366290">
        <ele>1.9</ele>
        <time>2021-05-18T14:04:16Z</time>
      </trkpt>
      <trkpt lat="41.8790050" lon="-8.8366290">
        <ele>1.8</ele>
        <time>2021-05-18T14:04:17Z</time>
      </trkpt>
      <trkpt lat="41.8790050" lon="-8.8366290">
        <ele>1.8</ele>
        <time>2021-05-18T14:04:18Z</time>
      </trkpt>
      <trkpt lat="41.8790050" lon="-8.8366290">
        <ele>1.8</ele>
        <time>2021-05-18T14:04:19Z</time>
      </trkpt>
      <trkpt lat="41.8790050" lon="-8.8366290">
        <ele>1.7</ele>
        <time>2021-05-18T14:04:20Z</time>
      </trkpt>
      <trkpt lat="41.8790050" lon="-8.8366290">
        <ele>1.7</ele>
        <time>2021-05-18T14:04:21Z</time>
      </trkpt>
      <trkpt lat="41.8790050" lon="-8.8366290">
        <ele>1.7</ele>
        <time>2021-05-18T14:04:22Z</time>
      </trkpt>
      <trkpt lat="41.8790050" lon="-8.8366290">
        <ele>1.6</ele>
        <time>2021-05-18T14:04:23Z</time>
      </trkpt>
      <trkpt lat="41.8790050" lon="-8.8366290">
        <ele>1.6</ele>
        <time>2021-05-18T14:04:24Z</time>
      </trkpt>
      <trkpt lat="41.8790050" lon="-8.8366290">
        <ele>1.6</ele>
        <time>2021-05-18T14:04:25Z</time>
      </trkpt>
      <trkpt lat="41.8790050" lon="-8.8366290">
        <ele>1.6</ele>
        <time>2021-05-18T14:04:26Z</time>
      </trkpt>
      <trkpt lat="41.8790050" lon="-8.8366290">
        <ele>1.5</ele>
        <time>2021-05-18T14:04:27Z</time>
      </trkpt>
      <trkpt lat="41.8790050" lon="-8.8366290">
        <ele>1.5</ele>
        <time>2021-05-18T14:04:28Z</time>
      </trkpt>
      <trkpt lat="41.8790050" lon="-8.8366290">
        <ele>1.5</ele>
        <time>2021-05-18T14:04:29Z</time>
      </trkpt>
      <trkpt lat="41.8790050" lon="-8.8366290">
        <ele>1.4</ele>
        <time>2021-05-18T14:04:30Z</time>
      </trkpt>
      <trkpt lat="41.8790050" lon="-8.8366290">
        <ele>1.4</ele>
        <time>2021-05-18T14:04:31Z</time>
      </trkpt>
      <trkpt lat="41.8790050" lon="-8.8366290">
        <ele>1.4</ele>
        <time>2021-05-18T14:04:32Z</time>
      </trkpt>
      <trkpt lat="41.8790050" lon="-8.8366290">
        <ele>1.3</ele>
        <time>2021-05-18T14:04:33Z</time>
      </trkpt>
      <trkpt lat="41.8790050" lon="-8.8366290">
        <ele>1.3</ele>
        <time>2021-05-18T14:04:34Z</time>
      </trkpt>
      <trkpt lat="41.8790050" lon="-8.8366290">
        <ele>1.3</ele>
        <time>2021-05-18T14:04:35Z</time>
      </trkpt>
      <trkpt lat="41.8790050" lon="-8.8366290">
        <ele>1.2</ele>
        <time>2021-05-18T14:04:36Z</time>
      </trkpt>
      <trkpt lat="41.8790050" lon="-8.8366290">
        <ele>1.2</ele>
        <time>2021-05-18T14:04:37Z</time>
      </trkpt>
      <trkpt lat="41.8790050" lon="-8.8366290">
        <ele>1.2</ele>
        <time>2021-05-18T14:04:38Z</time>
      </trkpt>
      <trkpt lat="41.8790050" lon="-8.8366290">
        <ele>1.2</ele>
        <time>2021-05-18T14:04:39Z</time>
      </trkpt>
      <trkpt lat="41.8790050" lon="-8.8366290">
        <ele>1.1</ele>
        <time>2021-05-18T14:04:40Z</time>
      </trkpt>
      <trkpt lat="41.8790050" lon="-8.8366290">
        <ele>1.1</ele>
        <time>2021-05-18T14:04:41Z</time>
      </trkpt>
      <trkpt lat="41.8790050" lon="-8.8366290">
        <ele>1.1</ele>
        <time>2021-05-18T14:04:42Z</time>
      </trkpt>
      <trkpt lat="41.8790050" lon="-8.8366290">
        <ele>1.0</ele>
        <time>2021-05-18T14:04:43Z</time>
      </trkpt>
      <trkpt lat="41.8790050" lon="-8.8366290">
        <ele>1.0</ele>
        <time>2021-05-18T14:04:44Z</time>
      </trkpt>
      <trkpt lat="41.8790050" lon="-8.8366290">
        <ele>1.0</ele>
        <time>2021-05-18T14:04:45Z</time>
      </trkpt>
      <trkpt lat="41.8790050" lon="-8.8366290">
        <ele>0.9</ele>
        <time>2021-05-18T14:04:46Z</time>
      </trkpt>
      <trkpt lat="41.8790050" lon="-8.8366290">
        <ele>0.9</ele>
        <time>2021-05-18T14:04:47Z</time>
      </trkpt>
      <trkpt lat="41.8790050" lon="-8.8366290">
        <ele>0.9</ele>
        <time>2021-05-18T14:04:48Z</time>
      </trkpt>
      <trkpt lat="41.8790050" lon="-8.8366290">
        <ele>0.8</ele>
        <time>2021-05-18T14:04:49Z</time>
      </trkpt>
      <trkpt lat="41.8790050" lon="-8.8366290">
        <ele>0.8</ele>
        <time>2021-05-18T14:04:50Z</time>
      </trkpt>
      <trkpt lat="41.8790050" lon="-8.8366290">
        <ele>0.8</ele>
        <time>2021-05-18T14:04:51Z</time>
      </trkpt>
      <trkpt lat="41.8790050" lon="-8.8366290">
        <ele>0.7</ele>
        <time>2021-05-18T14:04:52Z</time>
      </trkpt>
      <trkpt lat="41.8790050" lon="-8.8366290">
        <ele>0.7</ele>
        <time>2021-05-18T14:04:53Z</time>
      </trkpt>
      <trkpt lat="41.8790050" lon="-8.8366290">
        <ele>0.7</ele>
        <time>2021-05-18T14:04:54Z</time>
      </trkpt>
      <trkpt lat="41.8790050" lon="-8.8366290">
        <ele>0.7</ele>
        <time>2021-05-18T14:04:55Z</time>
      </trkpt>
      <trkpt lat="41.8790050" lon="-8.8366290">
        <ele>0.6</ele>
        <time>2021-05-18T14:04:56Z</time>
      </trkpt>
      <trkpt lat="41.8790050" lon="-8.8366290">
        <ele>0.6</ele>
        <time>2021-05-18T14:04:57Z</time>
      </trkpt>
      <trkpt lat="41.8790050" lon="-8.8366290">
        <ele>0.6</ele>
        <time>2021-05-18T14:04:58Z</time>
      </trkpt>
      <trkpt lat="41.8790050" lon="-8.8366290">
        <ele>0.5</ele>
        <time>2021-05-18T14:04:59Z</time>
      </trkpt>
      <trkpt lat="41.8790050" lon="-8.8366290">
        <ele>0.5</ele>
        <time>2021-05-18T14:05:00Z</time>
      </trkpt>
      <trkpt lat="41.8790050" lon="-8.8366290">
        <ele>0.5</ele>
        <time>2021-05-18T14:05:01Z</time>
      </trkpt>
      <trkpt lat="41.8790050" lon="-8.8366290">
        <ele>0.4</ele>
        <time>2021-05-18T14:05:02Z</time>
      </trkpt>
      <trkpt lat="41.8790050" lon="-8.8366290">
        <ele>0.4</ele>
        <time>2021-05-18T14:05:03Z</time>
      </trkpt>
      <trkpt lat="41.8790050" lon="-8.8366290">
        <ele>0.4</ele>
        <time>2021-05-18T14:05:04Z</time>
      </trkpt>
      <trkpt lat="41.8790050" lon="-8.8366290">
        <ele>0.3</ele>
        <time>2021-05-18T14:05:05Z</time>
      </trkpt>
      <trkpt lat="41.8790050" lon="-8.8366290">
        <ele>0.3</ele>
        <time>2021-05-18T14:05:06Z</time>
      </trkpt>
      <trkpt lat="41.8790050" lon="-8.8366290">
        <ele>0.3</ele>
        <time>2021-05-18T14:05:07Z</time>
      </trkpt>
      <trkpt lat="41.8790050" lon="-8.8366290">
        <ele>0.3</ele>
        <time>2021-05-18T14:05:08Z</time>
      </trkpt>
      <trkpt lat="41.8790050" lon="-8.8366290">
        <ele>0.2</ele>
        <time>2021-05-18T14:05:09Z</time>
      </trkpt>
      <trkpt lat="41.8790050" lon="-8.8366290">
        <ele>0.2</ele>
        <time>2021-05-18T14:05:10Z</time>
      </trkpt>
      <trkpt lat="41.8790050" lon="-8.8366290">
        <ele>0.2</ele>
        <time>2021-05-18T14:05:11Z</time>
      </trkpt>
      <trkpt lat="41.8790050" lon="-8.8366290">
        <ele>0.1</ele>
        <time>2021-05-18T14:05:12Z</time>
      </trkpt>
      <trkpt lat="41.8790050" lon="-8.8366290">
        <ele>0.1</ele>
        <time>2021-05-18T14:05:13Z</time>
      </trkpt>
      <trkpt lat="41.8790050" lon="-8.8366290">
        <ele>0.1</ele>
        <time>2021-05-18T14:05:14Z</time>
      </trkpt>
      <trkpt lat="41.8789990" lon="-8.8366380">
        <ele>0.0</ele>
        <time>2021-05-18T14:05:15Z</time>
      </trkpt>
      <trkpt lat="41.8789990" lon="-8.8366380">
        <ele>0.0</ele>
        <time>2021-05-18T14:05:16Z</time>
      </trkpt>
      <trkpt lat="41.8790030" lon="-8.8366410">
        <ele>0.0</ele>
        <time>2021-05-18T14:05:17Z</time>
      </trkpt>
      <trkpt lat="41.8790060" lon="-8.8366450">
        <ele>-0.1</ele>
        <time>2021-05-18T14:05:18Z</time>
      </trkpt>
      <trkpt lat="41.8790070" lon="-8.8366460">
        <ele>-0.1</ele>
        <time>2021-05-18T14:05:19Z</time>
      </trkpt>
      <trkpt lat="41.8790070" lon="-8.8366460">
        <ele>-0.1</ele>
        <time>2021-05-18T14:05:20Z</time>
      </trkpt>
      <trkpt lat="41.8790070" lon="-8.8366460">
        <ele>-0.2</ele>
        <time>2021-05-18T14:05:21Z</time>
      </trkpt>
      <trkpt lat="41.8790070" lon="-8.8366460">
        <ele>-0.2</ele>
        <time>2021-05-18T14:05:22Z</time>
      </trkpt>
      <trkpt lat="41.8790020" lon="-8.8366390">
        <ele>-0.2</ele>
        <time>2021-05-18T14:05:23Z</time>
      </trkpt>
      <trkpt lat="41.8790030" lon="-8.8366390">
        <ele>-0.2</ele>
        <time>2021-05-18T14:05:24Z</time>
      </trkpt>
      <trkpt lat="41.8790050" lon="-8.8366390">
        <ele>-0.3</ele>
        <time>2021-05-18T14:05:25Z</time>
      </trkpt>
      <trkpt lat="41.8790060" lon="-8.8366390">
        <ele>-0.3</ele>
        <time>2021-05-18T14:05:26Z</time>
      </trkpt>
      <trkpt lat="41.8790060" lon="-8.8366390">
        <ele>-0.3</ele>
        <time>2021-05-18T14:05:27Z</time>
      </trkpt>
      <trkpt lat="41.8790060" lon="-8.8366390">
        <ele>-0.4</ele>
        <time>2021-05-18T14:05:28Z</time>
      </trkpt>
      <trkpt lat="41.8790030" lon="-8.8366350">
        <ele>-0.4</ele>
        <time>2021-05-18T14:05:29Z</time>
      </trkpt>
      <trkpt lat="41.8790020" lon="-8.8366330">
        <ele>-0.4</ele>
        <time>2021-05-18T14:05:30Z</time>
      </trkpt>
      <trkpt lat="41.8790010" lon="-8.8366350">
        <ele>-0.4</ele>
        <time>2021-05-18T14:05:31Z</time>
      </trkpt>
      <trkpt lat="41.8790010" lon="-8.8366330">
        <ele>-0.4</ele>
        <time>2021-05-18T14:05:32Z</time>
      </trkpt>
      <trkpt lat="41.8790010" lon="-8.8366330">
        <ele>-0.4</ele>
        <time>2021-05-18T14:05:33Z</time>
      </trkpt>
      <trkpt lat="41.8790010" lon="-8.8366330">
        <ele>-0.4</ele>
        <time>2021-05-18T14:05:34Z</time>
      </trkpt>
      <trkpt lat="41.8789960" lon="-8.8366310">
        <ele>-0.4</ele>
        <time>2021-05-18T14:05:35Z</time>
      </trkpt>
      <trkpt lat="41.8789960" lon="-8.8366280">
        <ele>-0.4</ele>
        <time>2021-05-18T14:05:36Z</time>
      </trkpt>
      <trkpt lat="41.8789960" lon="-8.8366280">
        <ele>-0.4</ele>
        <time>2021-05-18T14:05:37Z</time>
      </trkpt>
      <trkpt lat="41.8789960" lon="-8.8366280">
        <ele>-0.4</ele>
        <time>2021-05-18T14:05:38Z</time>
      </trkpt>
      <trkpt lat="41.8789960" lon="-8.8366280">
        <ele>-0.4</ele>
        <time>2021-05-18T14:05:39Z</time>
      </trkpt>
      <trkpt lat="41.8789950" lon="-8.8366250">
        <ele>-0.4</ele>
        <time>2021-05-18T14:05:40Z</time>
      </trkpt>
      <trkpt lat="41.8789950" lon="-8.8366250">
        <ele>-0.4</ele>
        <time>2021-05-18T14:05:41Z</time>
      </trkpt>
      <trkpt lat="41.8789950" lon="-8.8366250">
        <ele>-0.4</ele>
        <time>2021-05-18T14:05:42Z</time>
      </trkpt>
      <trkpt lat="41.8789950" lon="-8.8366250">
        <ele>-0.4</ele>
        <time>2021-05-18T14:05:43Z</time>
      </trkpt>
      <trkpt lat="41.8789980" lon="-8.8366230">
        <ele>-0.4</ele>
        <time>2021-05-18T14:05:44Z</time>
      </trkpt>
      <trkpt lat="41.8789990" lon="-8.8366230">
        <ele>-0.4</ele>
        <time>2021-05-18T14:05:45Z</time>
      </trkpt>
      <trkpt lat="41.8789990" lon="-8.8366230">
        <ele>-0.4</ele>
        <time>2021-05-18T14:05:46Z</time>
      </trkpt>
      <trkpt lat="41.8789990" lon="-8.8366230">
        <ele>-0.4</ele>
        <time>2021-05-18T14:05:47Z</time>
      </trkpt>
      <trkpt lat="41.8789990" lon="-8.8366230">
        <ele>-0.4</ele>
        <time>2021-05-18T14:05:48Z</time>
      </trkpt>
      <trkpt lat="41.8789990" lon="-8.8366230">
        <ele>-0.4</ele>
        <time>2021-05-18T14:05:49Z</time>
      </trkpt>
      <trkpt lat="41.8789990" lon="-8.8366230">
        <ele>-0.4</ele>
        <time>2021-05-18T14:05:50Z</time>
      </trkpt>
      <trkpt lat="41.8789990" lon="-8.8366230">
        <ele>-0.4</ele>
        <time>2021-05-18T14:05:51Z</time>
      </trkpt>
      <trkpt lat="41.8789990" lon="-8.8366230">
        <ele>-0.4</ele>
        <time>2021-05-18T14:05:52Z</time>
      </trkpt>
      <trkpt lat="41.8789990" lon="-8.8366230">
        <ele>-0.4</ele>
        <time>2021-05-18T14:05:53Z</time>
      </trkpt>
      <trkpt lat="41.8789990" lon="-8.8366230">
        <ele>-0.4</ele>
        <time>2021-05-18T14:05:54Z</time>
      </trkpt>
      <trkpt lat="41.8789990" lon="-8.8366230">
        <ele>-0.4</ele>
        <time>2021-05-18T14:05:55Z</time>
      </trkpt>
      <trkpt lat="41.8789990" lon="-8.8366230">
        <ele>-0.4</ele>
        <time>2021-05-18T14:05:56Z</time>
      </trkpt>
      <trkpt lat="41.8789990" lon="-8.8366230">
        <ele>-0.4</ele>
        <time>2021-05-18T14:05:57Z</time>
      </trkpt>
      <trkpt lat="41.8789990" lon="-8.8366230">
        <ele>-0.4</ele>
        <time>2021-05-18T14:05:58Z</time>
      </trkpt>
      <trkpt lat="41.8789990" lon="-8.8366230">
        <ele>-0.4</ele>
        <time>2021-05-18T14:05:59Z</time>
      </trkpt>
      <trkpt lat="41.8789990" lon="-8.8366230">
        <ele>-0.4</ele>
        <time>2021-05-18T14:06:00Z</time>
      </trkpt>
      <trkpt lat="41.8790070" lon="-8.8366220">
        <ele>-0.4</ele>
        <time>2021-05-18T14:06:01Z</time>
      </trkpt>
      <trkpt lat="41.8790040" lon="-8.8366220">
        <ele>-0.4</ele>
        <time>2021-05-18T14:06:02Z</time>
      </trkpt>
      <trkpt lat="41.8790010" lon="-8.8366210">
        <ele>-0.4</ele>
        <time>2021-05-18T14:06:03Z</time>
      </trkpt>
      <trkpt lat="41.8790010" lon="-8.8366210">
        <ele>-0.4</ele>
        <time>2021-05-18T14:06:04Z</time>
      </trkpt>
      <trkpt lat="41.8790010" lon="-8.8366210">
        <ele>-0.4</ele>
        <time>2021-05-18T14:06:05Z</time>
      </trkpt>
      <trkpt lat="41.8790010" lon="-8.8366210">
        <ele>-0.4</ele>
        <time>2021-05-18T14:06:06Z</time>
      </trkpt>
      <trkpt lat="41.8790010" lon="-8.8366210">
        <ele>-0.4</ele>
        <time>2021-05-18T14:06:07Z</time>
      </trkpt>
      <trkpt lat="41.8790010" lon="-8.8366210">
        <ele>-0.4</ele>
        <time>2021-05-18T14:06:08Z</time>
      </trkpt>
      <trkpt lat="41.8790010" lon="-8.8366210">
        <ele>-0.4</ele>
        <time>2021-05-18T14:06:09Z</time>
      </trkpt>
      <trkpt lat="41.8790010" lon="-8.8366210">
        <ele>-0.4</ele>
        <time>2021-05-18T14:06:10Z</time>
      </trkpt>
      <trkpt lat="41.8790010" lon="-8.8366210">
        <ele>-0.4</ele>
        <time>2021-05-18T14:06:11Z</time>
      </trkpt>
      <trkpt lat="41.8790010" lon="-8.8366210">
        <ele>-0.4</ele>
        <time>2021-05-18T14:06:12Z</time>
      </trkpt>
      <trkpt lat="41.8790010" lon="-8.8366210">
        <ele>-0.4</ele>
        <time>2021-05-18T14:06:13Z</time>
      </trkpt>
      <trkpt lat="41.8790010" lon="-8.8366210">
        <ele>-0.4</ele>
        <time>2021-05-18T14:06:14Z</time>
      </trkpt>
      <trkpt lat="41.8790010" lon="-8.8366210">
        <ele>-0.4</ele>
        <time>2021-05-18T14:06:15Z</time>
      </trkpt>
      <trkpt lat="41.8790010" lon="-8.8366210">
        <ele>-0.4</ele>
        <time>2021-05-18T14:06:16Z</time>
      </trkpt>
      <trkpt lat="41.8790010" lon="-8.8366210">
        <ele>-0.4</ele>
        <time>2021-05-18T14:06:17Z</time>
      </trkpt>
      <trkpt lat="41.8790010" lon="-8.8366210">
        <ele>-0.4</ele>
        <time>2021-05-18T14:06:18Z</time>
      </trkpt>
      <trkpt lat="41.8789870" lon="-8.8366240">
        <ele>-0.4</ele>
        <time>2021-05-18T14:06:19Z</time>
      </trkpt>
      <trkpt lat="41.8789870" lon="-8.8366240">
        <ele>-0.4</ele>
        <time>2021-05-18T14:06:20Z</time>
      </trkpt>
      <trkpt lat="41.8789870" lon="-8.8366240">
        <ele>-0.4</ele>
        <time>2021-05-18T14:06:21Z</time>
      </trkpt>
      <trkpt lat="41.8789840" lon="-8.8366220">
        <ele>-0.4</ele>
        <time>2021-05-18T14:06:22Z</time>
      </trkpt>
      <trkpt lat="41.8789840" lon="-8.8366220">
        <ele>-0.4</ele>
        <time>2021-05-18T14:06:23Z</time>
      </trkpt>
      <trkpt lat="41.8789840" lon="-8.8366220">
        <ele>-0.4</ele>
        <time>2021-05-18T14:06:24Z</time>
      </trkpt>
      <trkpt lat="41.8789840" lon="-8.8366220">
        <ele>-0.4</ele>
        <time>2021-05-18T14:06:25Z</time>
      </trkpt>
      <trkpt lat="41.8789840" lon="-8.8366220">
        <ele>-0.4</ele>
        <time>2021-05-18T14:06:26Z</time>
      </trkpt>
      <trkpt lat="41.8789840" lon="-8.8366220">
        <ele>-0.4</ele>
        <time>2021-05-18T14:06:27Z</time>
      </trkpt>
      <trkpt lat="41.8789770" lon="-8.8366190">
        <ele>-0.4</ele>
        <time>2021-05-18T14:06:28Z</time>
      </trkpt>
      <trkpt lat="41.8789800" lon="-8.8366230">
        <ele>-0.4</ele>
        <time>2021-05-18T14:06:29Z</time>
      </trkpt>
      <trkpt lat="41.8789810" lon="-8.8366240">
        <ele>-0.4</ele>
        <time>2021-05-18T14:06:30Z</time>
      </trkpt>
      <trkpt lat="41.8789810" lon="-8.8366240">
        <ele>-0.4</ele>
        <time>2021-05-18T14:06:31Z</time>
      </trkpt>
      <trkpt lat="41.8789810" lon="-8.8366240">
        <ele>-0.4</ele>
        <time>2021-05-18T14:06:32Z</time>
      </trkpt>
      <trkpt lat="41.8789810" lon="-8.8366240">
        <ele>-0.4</ele>
        <time>2021-05-18T14:06:33Z</time>
      </trkpt>
      <trkpt lat="41.8789810" lon="-8.8366240">
        <ele>-0.4</ele>
        <time>2021-05-18T14:06:34Z</time>
      </trkpt>
      <trkpt lat="41.8789810" lon="-8.8366240">
        <ele>-0.4</ele>
        <time>2021-05-18T14:06:35Z</time>
      </trkpt>
      <trkpt lat="41.8789810" lon="-8.8366240">
        <ele>-0.4</ele>
        <time>2021-05-18T14:06:36Z</time>
      </trkpt>
      <trkpt lat="41.8789810" lon="-8.8366240">
        <ele>-0.4</ele>
        <time>2021-05-18T14:06:37Z</time>
      </trkpt>
      <trkpt lat="41.8789810" lon="-8.8366240">
        <ele>-0.4</ele>
        <time>2021-05-18T14:06:38Z</time>
      </trkpt>
      <trkpt lat="41.8789810" lon="-8.8366240">
        <ele>-0.4</ele>
        <time>2021-05-18T14:06:39Z</time>
      </trkpt>
      <trkpt lat="41.8789810" lon="-8.8366240">
        <ele>-0.4</ele>
        <time>2021-05-18T14:06:40Z</time>
      </trkpt>
      <trkpt lat="41.8789810" lon="-8.8366240">
        <ele>-0.4</ele>
        <time>2021-05-18T14:06:41Z</time>
      </trkpt>
      <trkpt lat="41.8789810" lon="-8.8366240">
        <ele>-0.4</ele>
        <time>2021-05-18T14:06:42Z</time>
      </trkpt>
      <trkpt lat="41.8789810" lon="-8.8366240">
        <ele>-0.4</ele>
        <time>2021-05-18T14:06:43Z</time>
      </trkpt>
      <trkpt lat="41.8789810" lon="-8.8366240">
        <ele>-0.4</ele>
        <time>2021-05-18T14:06:44Z</time>
      </trkpt>
      <trkpt lat="41.8789810" lon="-8.8366240">
        <ele>-0.4</ele>
        <time>2021-05-18T14:06:45Z</time>
      </trkpt>
      <trkpt lat="41.8789810" lon="-8.8366240">
        <ele>-0.4</ele>
        <time>2021-05-18T14:06:46Z</time>
      </trkpt>
      <trkpt lat="41.8789810" lon="-8.8366240">
        <ele>-0.4</ele>
        <time>2021-05-18T14:06:47Z</time>
      </trkpt>
      <trkpt lat="41.8789810" lon="-8.8366240">
        <ele>-0.4</ele>
        <time>2021-05-18T14:06:48Z</time>
      </trkpt>
      <trkpt lat="41.8789810" lon="-8.8366240">
        <ele>-0.4</ele>
        <time>2021-05-18T14:06:49Z</time>
      </trkpt>
      <trkpt lat="41.8789810" lon="-8.8366240">
        <ele>-0.4</ele>
        <time>2021-05-18T14:06:50Z</time>
      </trkpt>
      <trkpt lat="41.8789810" lon="-8.8366240">
        <ele>-0.4</ele>
        <time>2021-05-18T14:06:51Z</time>
      </trkpt>
      <trkpt lat="41.8789810" lon="-8.8366240">
        <ele>-0.4</ele>
        <time>2021-05-18T14:06:52Z</time>
      </trkpt>
      <trkpt lat="41.8789810" lon="-8.8366240">
        <ele>-0.4</ele>
        <time>2021-05-18T14:06:53Z</time>
      </trkpt>
      <trkpt lat="41.8789810" lon="-8.8366240">
        <ele>-0.4</ele>
        <time>2021-05-18T14:06:54Z</time>
      </trkpt>
      <trkpt lat="41.8789810" lon="-8.8366240">
        <ele>-0.4</ele>
        <time>2021-05-18T14:06:55Z</time>
      </trkpt>
      <trkpt lat="41.8789810" lon="-8.8366240">
        <ele>-0.4</ele>
        <time>2021-05-18T14:06:56Z</time>
      </trkpt>
      <trkpt lat="41.8789810" lon="-8.8366240">
        <ele>-0.4</ele>
        <time>2021-05-18T14:06:57Z</time>
      </trkpt>
      <trkpt lat="41.8789810" lon="-8.8366240">
        <ele>-0.4</ele>
        <time>2021-05-18T14:06:58Z</time>
      </trkpt>
      <trkpt lat="41.8789810" lon="-8.8366240">
        <ele>-0.4</ele>
        <time>2021-05-18T14:06:59Z</time>
      </trkpt>
      <trkpt lat="41.8789810" lon="-8.8366240">
        <ele>-0.4</ele>
        <time>2021-05-18T14:07:00Z</time>
      </trkpt>
      <trkpt lat="41.8789810" lon="-8.8366240">
        <ele>-0.4</ele>
        <time>2021-05-18T14:07:01Z</time>
      </trkpt>
      <trkpt lat="41.8789810" lon="-8.8366240">
        <ele>-0.4</ele>
        <time>2021-05-18T14:07:02Z</time>
      </trkpt>
      <trkpt lat="41.8789810" lon="-8.8366240">
        <ele>-0.4</ele>
        <time>2021-05-18T14:07:03Z</time>
      </trkpt>
      <trkpt lat="41.8789810" lon="-8.8366240">
        <ele>-0.4</ele>
        <time>2021-05-18T14:07:04Z</time>
      </trkpt>
      <trkpt lat="41.8789810" lon="-8.8366240">
        <ele>-0.4</ele>
        <time>2021-05-18T14:07:05Z</time>
      </trkpt>
      <trkpt lat="41.8789810" lon="-8.8366240">
        <ele>-0.4</ele>
        <time>2021-05-18T14:07:06Z</time>
      </trkpt>
      <trkpt lat="41.8789810" lon="-8.8366240">
        <ele>-0.4</ele>
        <time>2021-05-18T14:07:07Z</time>
      </trkpt>
      <trkpt lat="41.8789810" lon="-8.8366240">
        <ele>-0.4</ele>
        <time>2021-05-18T14:07:08Z</time>
      </trkpt>
      <trkpt lat="41.8789810" lon="-8.8366240">
        <ele>-0.4</ele>
        <time>2021-05-18T14:07:09Z</time>
      </trkpt>
      <trkpt lat="41.8789810" lon="-8.8366240">
        <ele>-0.4</ele>
        <time>2021-05-18T14:07:10Z</time>
      </trkpt>
      <trkpt lat="41.8789810" lon="-8.8366240">
        <ele>-0.4</ele>
        <time>2021-05-18T14:07:11Z</time>
      </trkpt>
      <trkpt lat="41.8789810" lon="-8.8366240">
        <ele>-0.4</ele>
        <time>2021-05-18T14:07:12Z</time>
      </trkpt>
      <trkpt lat="41.8789810" lon="-8.8366240">
        <ele>-0.4</ele>
        <time>2021-05-18T14:07:13Z</time>
      </trkpt>
      <trkpt lat="41.8789810" lon="-8.8366240">
        <ele>-0.4</ele>
        <time>2021-05-18T14:07:14Z</time>
      </trkpt>
      <trkpt lat="41.8789810" lon="-8.8366240">
        <ele>-0.4</ele>
        <time>2021-05-18T14:07:15Z</time>
      </trkpt>
      <trkpt lat="41.8789810" lon="-8.8366240">
        <ele>-0.4</ele>
        <time>2021-05-18T14:07:16Z</time>
      </trkpt>
      <trkpt lat="41.8789810" lon="-8.8366240">
        <ele>-0.4</ele>
        <time>2021-05-18T14:07:17Z</time>
      </trkpt>
      <trkpt lat="41.8789810" lon="-8.8366240">
        <ele>-0.4</ele>
        <time>2021-05-18T14:07:18Z</time>
      </trkpt>
      <trkpt lat="41.8789810" lon="-8.8366240">
        <ele>-0.4</ele>
        <time>2021-05-18T14:07:19Z</time>
      </trkpt>
      <trkpt lat="41.8789810" lon="-8.8366240">
        <ele>-0.4</ele>
        <time>2021-05-18T14:07:20Z</time>
      </trkpt>
      <trkpt lat="41.8789810" lon="-8.8366240">
        <ele>-0.4</ele>
        <time>2021-05-18T14:07:21Z</time>
      </trkpt>
      <trkpt lat="41.8789810" lon="-8.8366240">
        <ele>-0.4</ele>
        <time>2021-05-18T14:07:22Z</time>
      </trkpt>
      <trkpt lat="41.8789810" lon="-8.8366240">
        <ele>-0.4</ele>
        <time>2021-05-18T14:07:23Z</time>
      </trkpt>
      <trkpt lat="41.8789810" lon="-8.8366240">
        <ele>-0.4</ele>
        <time>2021-05-18T14:07:24Z</time>
      </trkpt>
      <trkpt lat="41.8789810" lon="-8.8366240">
        <ele>-0.4</ele>
        <time>2021-05-18T14:07:25Z</time>
      </trkpt>
      <trkpt lat="41.8789810" lon="-8.8366240">
        <ele>-0.4</ele>
        <time>2021-05-18T14:07:26Z</time>
      </trkpt>
      <trkpt lat="41.8789810" lon="-8.8366240">
        <ele>-0.4</ele>
        <time>2021-05-18T14:07:27Z</time>
      </trkpt>
      <trkpt lat="41.8789810" lon="-8.8366240">
        <ele>-0.4</ele>
        <time>2021-05-18T14:07:28Z</time>
      </trkpt>
      <trkpt lat="41.8789810" lon="-8.8366240">
        <ele>-0.4</ele>
        <time>2021-05-18T14:07:29Z</time>
      </trkpt>
      <trkpt lat="41.8789810" lon="-8.8366240">
        <ele>-0.4</ele>
        <time>2021-05-18T14:07:30Z</time>
      </trkpt>
      <trkpt lat="41.8789810" lon="-8.8366240">
        <ele>-0.4</ele>
        <time>2021-05-18T14:07:31Z</time>
      </trkpt>
      <trkpt lat="41.8789810" lon="-8.8366240">
        <ele>-0.4</ele>
        <time>2021-05-18T14:07:32Z</time>
      </trkpt>
      <trkpt lat="41.8789810" lon="-8.8366240">
        <ele>-0.4</ele>
        <time>2021-05-18T14:07:33Z</time>
      </trkpt>
      <trkpt lat="41.8789810" lon="-8.8366240">
        <ele>-0.4</ele>
        <time>2021-05-18T14:07:34Z</time>
      </trkpt>
      <trkpt lat="41.8789810" lon="-8.8366240">
        <ele>-0.4</ele>
        <time>2021-05-18T14:07:35Z</time>
      </trkpt>
      <trkpt lat="41.8789810" lon="-8.8366240">
        <ele>-0.4</ele>
        <time>2021-05-18T14:07:36Z</time>
      </trkpt>
      <trkpt lat="41.8789810" lon="-8.8366240">
        <ele>-0.4</ele>
        <time>2021-05-18T14:07:37Z</time>
      </trkpt>
      <trkpt lat="41.8789810" lon="-8.8366240">
        <ele>-0.4</ele>
        <time>2021-05-18T14:07:38Z</time>
      </trkpt>
      <trkpt lat="41.8789810" lon="-8.8366240">
        <ele>-0.4</ele>
        <time>2021-05-18T14:07:39Z</time>
      </trkpt>
      <trkpt lat="41.8789810" lon="-8.8366240">
        <ele>-0.4</ele>
        <time>2021-05-18T14:07:40Z</time>
      </trkpt>
      <trkpt lat="41.8789810" lon="-8.8366240">
        <ele>-0.4</ele>
        <time>2021-05-18T14:07:41Z</time>
      </trkpt>
      <trkpt lat="41.8789810" lon="-8.8366240">
        <ele>-0.4</ele>
        <time>2021-05-18T14:07:42Z</time>
      </trkpt>
      <trkpt lat="41.8789810" lon="-8.8366240">
        <ele>-0.4</ele>
        <time>2021-05-18T14:07:43Z</time>
      </trkpt>
      <trkpt lat="41.8789810" lon="-8.8366240">
        <ele>-0.4</ele>
        <time>2021-05-18T14:07:44Z</time>
      </trkpt>
      <trkpt lat="41.8789810" lon="-8.8366240">
        <ele>-0.4</ele>
        <time>2021-05-18T14:07:45Z</time>
      </trkpt>
      <trkpt lat="41.8789810" lon="-8.8366240">
        <ele>-0.4</ele>
        <time>2021-05-18T14:07:46Z</time>
      </trkpt>
      <trkpt lat="41.8789810" lon="-8.8366240">
        <ele>-0.4</ele>
        <time>2021-05-18T14:07:47Z</time>
      </trkpt>
      <trkpt lat="41.8789810" lon="-8.8366240">
        <ele>-0.4</ele>
        <time>2021-05-18T14:07:48Z</time>
      </trkpt>
      <trkpt lat="41.8789810" lon="-8.8366240">
        <ele>-0.4</ele>
        <time>2021-05-18T14:07:49Z</time>
      </trkpt>
      <trkpt lat="41.8789810" lon="-8.8366240">
        <ele>-0.4</ele>
        <time>2021-05-18T14:07:50Z</time>
      </trkpt>
      <trkpt lat="41.8789810" lon="-8.8366240">
        <ele>-0.4</ele>
        <time>2021-05-18T14:07:51Z</time>
      </trkpt>
      <trkpt lat="41.8789810" lon="-8.8366240">
        <ele>-0.4</ele>
        <time>2021-05-18T14:07:52Z</time>
      </trkpt>
      <trkpt lat="41.8789810" lon="-8.8366240">
        <ele>-0.4</ele>
        <time>2021-05-18T14:07:53Z</time>
      </trkpt>
      <trkpt lat="41.8789810" lon="-8.8366240">
        <ele>-0.4</ele>
        <time>2021-05-18T14:07:54Z</time>
      </trkpt>
      <trkpt lat="41.8789810" lon="-8.8366240">
        <ele>-0.4</ele>
        <time>2021-05-18T14:07:55Z</time>
      </trkpt>
      <trkpt lat="41.8789810" lon="-8.8366240">
        <ele>-0.4</ele>
        <time>2021-05-18T14:07:56Z</time>
      </trkpt>
      <trkpt lat="41.8789810" lon="-8.8366240">
        <ele>-0.4</ele>
        <time>2021-05-18T14:07:57Z</time>
      </trkpt>
      <trkpt lat="41.8789810" lon="-8.8366240">
        <ele>-0.4</ele>
        <time>2021-05-18T14:07:58Z</time>
      </trkpt>
      <trkpt lat="41.8789810" lon="-8.8366240">
        <ele>-0.4</ele>
        <time>2021-05-18T14:07:59Z</time>
      </trkpt>
      <trkpt lat="41.8789810" lon="-8.8366240">
        <ele>-0.4</ele>
        <time>2021-05-18T14:08:00Z</time>
      </trkpt>
      <trkpt lat="41.8789810" lon="-8.8366240">
        <ele>-0.4</ele>
        <time>2021-05-18T14:08:01Z</time>
      </trkpt>
      <trkpt lat="41.8789810" lon="-8.8366240">
        <ele>-0.4</ele>
        <time>2021-05-18T14:08:02Z</time>
      </trkpt>
      <trkpt lat="41.8789810" lon="-8.8366240">
        <ele>-0.4</ele>
        <time>2021-05-18T14:08:03Z</time>
      </trkpt>
      <trkpt lat="41.8789810" lon="-8.8366240">
        <ele>-0.4</ele>
        <time>2021-05-18T14:08:04Z</time>
      </trkpt>
      <trkpt lat="41.8789810" lon="-8.8366240">
        <ele>-0.4</ele>
        <time>2021-05-18T14:08:05Z</time>
      </trkpt>
      <trkpt lat="41.8789810" lon="-8.8366240">
        <ele>-0.4</ele>
        <time>2021-05-18T14:08:06Z</time>
      </trkpt>
      <trkpt lat="41.8789810" lon="-8.8366240">
        <ele>-0.4</ele>
        <time>2021-05-18T14:08:07Z</time>
      </trkpt>
      <trkpt lat="41.8789810" lon="-8.8366240">
        <ele>-0.4</ele>
        <time>2021-05-18T14:08:08Z</time>
      </trkpt>
      <trkpt lat="41.8789810" lon="-8.8366240">
        <ele>-0.4</ele>
        <time>2021-05-18T14:08:09Z</time>
      </trkpt>
      <trkpt lat="41.8789810" lon="-8.8366240">
        <ele>-0.4</ele>
        <time>2021-05-18T14:08:10Z</time>
      </trkpt>
      <trkpt lat="41.8789810" lon="-8.8366240">
        <ele>-0.4</ele>
        <time>2021-05-18T14:08:11Z</time>
      </trkpt>
      <trkpt lat="41.8789810" lon="-8.8366240">
        <ele>-0.4</ele>
        <time>2021-05-18T14:08:12Z</time>
      </trkpt>
      <trkpt lat="41.8789810" lon="-8.8366240">
        <ele>-0.4</ele>
        <time>2021-05-18T14:08:13Z</time>
      </trkpt>
      <trkpt lat="41.8789810" lon="-8.8366240">
        <ele>-0.4</ele>
        <time>2021-05-18T14:08:14Z</time>
      </trkpt>
      <trkpt lat="41.8789810" lon="-8.8366240">
        <ele>-0.4</ele>
        <time>2021-05-18T14:08:15Z</time>
      </trkpt>
      <trkpt lat="41.8789810" lon="-8.8366240">
        <ele>-0.4</ele>
        <time>2021-05-18T14:08:16Z</time>
      </trkpt>
      <trkpt lat="41.8789810" lon="-8.8366240">
        <ele>-0.4</ele>
        <time>2021-05-18T14:08:17Z</time>
      </trkpt>
      <trkpt lat="41.8789810" lon="-8.8366240">
        <ele>-0.4</ele>
        <time>2021-05-18T14:08:18Z</time>
      </trkpt>
      <trkpt lat="41.8789810" lon="-8.8366240">
        <ele>-0.4</ele>
        <time>2021-05-18T14:08:19Z</time>
      </trkpt>
      <trkpt lat="41.8789810" lon="-8.8366240">
        <ele>-0.4</ele>
        <time>2021-05-18T14:08:20Z</time>
      </trkpt>
      <trkpt lat="41.8789810" lon="-8.8366240">
        <ele>-0.4</ele>
        <time>2021-05-18T14:08:21Z</time>
      </trkpt>
      <trkpt lat="41.8789810" lon="-8.8366240">
        <ele>-0.4</ele>
        <time>2021-05-18T14:08:22Z</time>
      </trkpt>
      <trkpt lat="41.8789810" lon="-8.8366240">
        <ele>-0.4</ele>
        <time>2021-05-18T14:08:23Z</time>
      </trkpt>
      <trkpt lat="41.8789810" lon="-8.8366240">
        <ele>-0.4</ele>
        <time>2021-05-18T14:08:24Z</time>
      </trkpt>
      <trkpt lat="41.8789810" lon="-8.8366240">
        <ele>-0.4</ele>
        <time>2021-05-18T14:08:25Z</time>
      </trkpt>
      <trkpt lat="41.8789810" lon="-8.8366240">
        <ele>-0.4</ele>
        <time>2021-05-18T14:08:26Z</time>
      </trkpt>
      <trkpt lat="41.8789810" lon="-8.8366240">
        <ele>-0.4</ele>
        <time>2021-05-18T14:08:27Z</time>
      </trkpt>
      <trkpt lat="41.8789810" lon="-8.8366240">
        <ele>-0.4</ele>
        <time>2021-05-18T14:08:28Z</time>
      </trkpt>
      <trkpt lat="41.8789810" lon="-8.8366240">
        <ele>-0.4</ele>
        <time>2021-05-18T14:08:29Z</time>
      </trkpt>
      <trkpt lat="41.8789810" lon="-8.8366240">
        <ele>-0.4</ele>
        <time>2021-05-18T14:08:30Z</time>
      </trkpt>
      <trkpt lat="41.8789810" lon="-8.8366240">
        <ele>-0.4</ele>
        <time>2021-05-18T14:08:31Z</time>
      </trkpt>
      <trkpt lat="41.8789810" lon="-8.8366240">
        <ele>-0.4</ele>
        <time>2021-05-18T14:08:32Z</time>
      </trkpt>
      <trkpt lat="41.8789810" lon="-8.8366240">
        <ele>-0.4</ele>
        <time>2021-05-18T14:08:33Z</time>
      </trkpt>
      <trkpt lat="41.8789810" lon="-8.8366240">
        <ele>-0.4</ele>
        <time>2021-05-18T14:08:34Z</time>
      </trkpt>
      <trkpt lat="41.8789810" lon="-8.8366240">
        <ele>-0.4</ele>
        <time>2021-05-18T14:08:35Z</time>
      </trkpt>
      <trkpt lat="41.8789810" lon="-8.8366240">
        <ele>-0.4</ele>
        <time>2021-05-18T14:08:36Z</time>
      </trkpt>
      <trkpt lat="41.8789810" lon="-8.8366240">
        <ele>-0.4</ele>
        <time>2021-05-18T14:08:37Z</time>
      </trkpt>
      <trkpt lat="41.8789810" lon="-8.8366240">
        <ele>-0.4</ele>
        <time>2021-05-18T14:08:38Z</time>
      </trkpt>
      <trkpt lat="41.8789810" lon="-8.8366240">
        <ele>-0.4</ele>
        <time>2021-05-18T14:08:39Z</time>
      </trkpt>
      <trkpt lat="41.8789810" lon="-8.8366240">
        <ele>-0.4</ele>
        <time>2021-05-18T14:08:40Z</time>
      </trkpt>
      <trkpt lat="41.8789810" lon="-8.8366240">
        <ele>-0.4</ele>
        <time>2021-05-18T14:08:41Z</time>
      </trkpt>
      <trkpt lat="41.8789810" lon="-8.8366240">
        <ele>-0.4</ele>
        <time>2021-05-18T14:08:42Z</time>
      </trkpt>
      <trkpt lat="41.8789810" lon="-8.8366240">
        <ele>-0.4</ele>
        <time>2021-05-18T14:08:43Z</time>
      </trkpt>
      <trkpt lat="41.8789810" lon="-8.8366240">
        <ele>-0.4</ele>
        <time>2021-05-18T14:08:44Z</time>
      </trkpt>
      <trkpt lat="41.8789810" lon="-8.8366240">
        <ele>-0.4</ele>
        <time>2021-05-18T14:08:45Z</time>
      </trkpt>
      <trkpt lat="41.8789810" lon="-8.8366240">
        <ele>-0.4</ele>
        <time>2021-05-18T14:08:46Z</time>
      </trkpt>
      <trkpt lat="41.8789810" lon="-8.8366240">
        <ele>-0.4</ele>
        <time>2021-05-18T14:08:47Z</time>
      </trkpt>
      <trkpt lat="41.8789810" lon="-8.8366240">
        <ele>-0.4</ele>
        <time>2021-05-18T14:08:48Z</time>
      </trkpt>
      <trkpt lat="41.8789810" lon="-8.8366240">
        <ele>-0.4</ele>
        <time>2021-05-18T14:08:49Z</time>
      </trkpt>
      <trkpt lat="41.8789810" lon="-8.8366240">
        <ele>-0.4</ele>
        <time>2021-05-18T14:08:50Z</time>
      </trkpt>
      <trkpt lat="41.8789810" lon="-8.8366240">
        <ele>-0.4</ele>
        <time>2021-05-18T14:08:51Z</time>
      </trkpt>
      <trkpt lat="41.8789810" lon="-8.8366240">
        <ele>-0.4</ele>
        <time>2021-05-18T14:08:52Z</time>
      </trkpt>
      <trkpt lat="41.8789810" lon="-8.8366240">
        <ele>-0.4</ele>
        <time>2021-05-18T14:08:53Z</time>
      </trkpt>
      <trkpt lat="41.8789810" lon="-8.8366240">
        <ele>-0.4</ele>
        <time>2021-05-18T14:08:54Z</time>
      </trkpt>
      <trkpt lat="41.8789810" lon="-8.8366240">
        <ele>-0.4</ele>
        <time>2021-05-18T14:08:55Z</time>
      </trkpt>
      <trkpt lat="41.8789810" lon="-8.8366240">
        <ele>-0.4</ele>
        <time>2021-05-18T14:08:56Z</time>
      </trkpt>
      <trkpt lat="41.8789810" lon="-8.8366240">
        <ele>-0.4</ele>
        <time>2021-05-18T14:08:57Z</time>
      </trkpt>
      <trkpt lat="41.8789810" lon="-8.8366240">
        <ele>-0.4</ele>
        <time>2021-05-18T14:08:58Z</time>
      </trkpt>
      <trkpt lat="41.8789810" lon="-8.8366240">
        <ele>-0.4</ele>
        <time>2021-05-18T14:08:59Z</time>
      </trkpt>
      <trkpt lat="41.8789810" lon="-8.8366240">
        <ele>-0.4</ele>
        <time>2021-05-18T14:09:00Z</time>
      </trkpt>
      <trkpt lat="41.8789810" lon="-8.8366240">
        <ele>-0.4</ele>
        <time>2021-05-18T14:09:01Z</time>
      </trkpt>
      <trkpt lat="41.8789810" lon="-8.8366240">
        <ele>-0.4</ele>
        <time>2021-05-18T14:09:02Z</time>
      </trkpt>
      <trkpt lat="41.8789810" lon="-8.8366240">
        <ele>-0.4</ele>
        <time>2021-05-18T14:09:03Z</time>
      </trkpt>
      <trkpt lat="41.8789810" lon="-8.8366240">
        <ele>-0.4</ele>
        <time>2021-05-18T14:09:04Z</time>
      </trkpt>
      <trkpt lat="41.8789810" lon="-8.8366240">
        <ele>-0.4</ele>
        <time>2021-05-18T14:09:05Z</time>
      </trkpt>
      <trkpt lat="41.8789810" lon="-8.8366240">
        <ele>-0.4</ele>
        <time>2021-05-18T14:09:06Z</time>
      </trkpt>
      <trkpt lat="41.8789810" lon="-8.8366240">
        <ele>-0.4</ele>
        <time>2021-05-18T14:09:07Z</time>
      </trkpt>
      <trkpt lat="41.8789810" lon="-8.8366240">
        <ele>-0.4</ele>
        <time>2021-05-18T14:09:08Z</time>
      </trkpt>
      <trkpt lat="41.8789810" lon="-8.8366240">
        <ele>-0.4</ele>
        <time>2021-05-18T14:09:09Z</time>
      </trkpt>
      <trkpt lat="41.8789810" lon="-8.8366240">
        <ele>-0.4</ele>
        <time>2021-05-18T14:09:10Z</time>
      </trkpt>
      <trkpt lat="41.8789810" lon="-8.8366240">
        <ele>-0.4</ele>
        <time>2021-05-18T14:09:11Z</time>
      </trkpt>
      <trkpt lat="41.8789810" lon="-8.8366240">
        <ele>-0.4</ele>
        <time>2021-05-18T14:09:12Z</time>
      </trkpt>
      <trkpt lat="41.8789810" lon="-8.8366240">
        <ele>-0.4</ele>
        <time>2021-05-18T14:09:13Z</time>
      </trkpt>
      <trkpt lat="41.8789810" lon="-8.8366240">
        <ele>-0.4</ele>
        <time>2021-05-18T14:09:14Z</time>
      </trkpt>
      <trkpt lat="41.8789810" lon="-8.8366240">
        <ele>-0.4</ele>
        <time>2021-05-18T14:09:15Z</time>
      </trkpt>
      <trkpt lat="41.8789810" lon="-8.8366240">
        <ele>-0.4</ele>
        <time>2021-05-18T14:09:16Z</time>
      </trkpt>
      <trkpt lat="41.8789810" lon="-8.8366240">
        <ele>-0.4</ele>
        <time>2021-05-18T14:09:17Z</time>
      </trkpt>
      <trkpt lat="41.8789810" lon="-8.8366240">
        <ele>-0.4</ele>
        <time>2021-05-18T14:09:18Z</time>
      </trkpt>
      <trkpt lat="41.8789810" lon="-8.8366240">
        <ele>-0.4</ele>
        <time>2021-05-18T14:09:19Z</time>
      </trkpt>
      <trkpt lat="41.8789810" lon="-8.8366240">
        <ele>-0.4</ele>
        <time>2021-05-18T14:09:20Z</time>
      </trkpt>
      <trkpt lat="41.8789810" lon="-8.8366240">
        <ele>-0.4</ele>
        <time>2021-05-18T14:09:21Z</time>
      </trkpt>
      <trkpt lat="41.8789810" lon="-8.8366240">
        <ele>-0.4</ele>
        <time>2021-05-18T14:09:22Z</time>
      </trkpt>
      <trkpt lat="41.8789810" lon="-8.8366240">
        <ele>-0.4</ele>
        <time>2021-05-18T14:09:23Z</time>
      </trkpt>
      <trkpt lat="41.8789810" lon="-8.8366240">
        <ele>-0.4</ele>
        <time>2021-05-18T14:09:24Z</time>
      </trkpt>
      <trkpt lat="41.8789810" lon="-8.8366240">
        <ele>-0.4</ele>
        <time>2021-05-18T14:09:25Z</time>
      </trkpt>
      <trkpt lat="41.8789810" lon="-8.8366240">
        <ele>-0.4</ele>
        <time>2021-05-18T14:09:26Z</time>
      </trkpt>
      <trkpt lat="41.8789810" lon="-8.8366240">
        <ele>-0.4</ele>
        <time>2021-05-18T14:09:27Z</time>
      </trkpt>
      <trkpt lat="41.8789810" lon="-8.8366240">
        <ele>-0.4</ele>
        <time>2021-05-18T14:09:28Z</time>
      </trkpt>
      <trkpt lat="41.8789810" lon="-8.8366240">
        <ele>-0.4</ele>
        <time>2021-05-18T14:09:29Z</time>
      </trkpt>
      <trkpt lat="41.8789810" lon="-8.8366240">
        <ele>-0.4</ele>
        <time>2021-05-18T14:09:30Z</time>
      </trkpt>
      <trkpt lat="41.8789810" lon="-8.8366240">
        <ele>-0.4</ele>
        <time>2021-05-18T14:09:31Z</time>
      </trkpt>
      <trkpt lat="41.8789810" lon="-8.8366240">
        <ele>-0.4</ele>
        <time>2021-05-18T14:09:32Z</time>
      </trkpt>
      <trkpt lat="41.8789810" lon="-8.8366240">
        <ele>-0.4</ele>
        <time>2021-05-18T14:09:33Z</time>
      </trkpt>
      <trkpt lat="41.8789810" lon="-8.8366240">
        <ele>-0.4</ele>
        <time>2021-05-18T14:09:34Z</time>
      </trkpt>
      <trkpt lat="41.8789810" lon="-8.8366240">
        <ele>-0.4</ele>
        <time>2021-05-18T14:09:35Z</time>
      </trkpt>
      <trkpt lat="41.8789810" lon="-8.8366240">
        <ele>-0.4</ele>
        <time>2021-05-18T14:09:36Z</time>
      </trkpt>
      <trkpt lat="41.8789810" lon="-8.8366240">
        <ele>-0.4</ele>
        <time>2021-05-18T14:09:37Z</time>
      </trkpt>
      <trkpt lat="41.8789810" lon="-8.8366240">
        <ele>-0.4</ele>
        <time>2021-05-18T14:09:38Z</time>
      </trkpt>
      <trkpt lat="41.8789810" lon="-8.8366240">
        <ele>-0.4</ele>
        <time>2021-05-18T14:09:39Z</time>
      </trkpt>
      <trkpt lat="41.8789810" lon="-8.8366240">
        <ele>-0.4</ele>
        <time>2021-05-18T14:09:40Z</time>
      </trkpt>
      <trkpt lat="41.8789810" lon="-8.8366240">
        <ele>-0.4</ele>
        <time>2021-05-18T14:09:41Z</time>
      </trkpt>
      <trkpt lat="41.8789810" lon="-8.8366240">
        <ele>-0.4</ele>
        <time>2021-05-18T14:09:42Z</time>
      </trkpt>
      <trkpt lat="41.8789810" lon="-8.8366240">
        <ele>-0.4</ele>
        <time>2021-05-18T14:09:43Z</time>
      </trkpt>
      <trkpt lat="41.8789810" lon="-8.8366240">
        <ele>-0.4</ele>
        <time>2021-05-18T14:09:44Z</time>
      </trkpt>
      <trkpt lat="41.8789810" lon="-8.8366240">
        <ele>-0.4</ele>
        <time>2021-05-18T14:09:45Z</time>
      </trkpt>
      <trkpt lat="41.8789810" lon="-8.8366240">
        <ele>-0.4</ele>
        <time>2021-05-18T14:09:46Z</time>
      </trkpt>
      <trkpt lat="41.8789810" lon="-8.8366240">
        <ele>-0.4</ele>
        <time>2021-05-18T14:09:47Z</time>
      </trkpt>
      <trkpt lat="41.8789810" lon="-8.8366240">
        <ele>-0.4</ele>
        <time>2021-05-18T14:09:48Z</time>
      </trkpt>
      <trkpt lat="41.8789810" lon="-8.8366240">
        <ele>-0.4</ele>
        <time>2021-05-18T14:09:49Z</time>
      </trkpt>
      <trkpt lat="41.8789810" lon="-8.8366240">
        <ele>-0.4</ele>
        <time>2021-05-18T14:09:50Z</time>
      </trkpt>
      <trkpt lat="41.8789810" lon="-8.8366240">
        <ele>-0.4</ele>
        <time>2021-05-18T14:09:51Z</time>
      </trkpt>
      <trkpt lat="41.8789810" lon="-8.8366240">
        <ele>-0.4</ele>
        <time>2021-05-18T14:09:52Z</time>
      </trkpt>
      <trkpt lat="41.8789810" lon="-8.8366240">
        <ele>-0.4</ele>
        <time>2021-05-18T14:09:53Z</time>
      </trkpt>
      <trkpt lat="41.8789810" lon="-8.8366240">
        <ele>-0.4</ele>
        <time>2021-05-18T14:09:54Z</time>
      </trkpt>
      <trkpt lat="41.8789810" lon="-8.8366240">
        <ele>-0.4</ele>
        <time>2021-05-18T14:09:55Z</time>
      </trkpt>
      <trkpt lat="41.8789810" lon="-8.8366240">
        <ele>-0.4</ele>
        <time>2021-05-18T14:09:56Z</time>
      </trkpt>
      <trkpt lat="41.8789810" lon="-8.8366240">
        <ele>-0.4</ele>
        <time>2021-05-18T14:09:57Z</time>
      </trkpt>
      <trkpt lat="41.8789810" lon="-8.8366240">
        <ele>-0.4</ele>
        <time>2021-05-18T14:09:58Z</time>
      </trkpt>
      <trkpt lat="41.8789810" lon="-8.8366240">
        <ele>-0.4</ele>
        <time>2021-05-18T14:09:59Z</time>
      </trkpt>
      <trkpt lat="41.8789810" lon="-8.8366240">
        <ele>-0.4</ele>
        <time>2021-05-18T14:10:00Z</time>
      </trkpt>
      <trkpt lat="41.8789810" lon="-8.8366240">
        <ele>-0.4</ele>
        <time>2021-05-18T14:10:01Z</time>
      </trkpt>
      <trkpt lat="41.8789810" lon="-8.8366240">
        <ele>-0.4</ele>
        <time>2021-05-18T14:10:02Z</time>
      </trkpt>
      <trkpt lat="41.8789810" lon="-8.8366240">
        <ele>-0.4</ele>
        <time>2021-05-18T14:10:03Z</time>
      </trkpt>
      <trkpt lat="41.8789810" lon="-8.8366240">
        <ele>-0.4</ele>
        <time>2021-05-18T14:10:04Z</time>
      </trkpt>
      <trkpt lat="41.8789810" lon="-8.8366240">
        <ele>-0.4</ele>
        <time>2021-05-18T14:10:05Z</time>
      </trkpt>
      <trkpt lat="41.8789810" lon="-8.8366240">
        <ele>-0.4</ele>
        <time>2021-05-18T14:10:06Z</time>
      </trkpt>
      <trkpt lat="41.8789810" lon="-8.8366240">
        <ele>-0.4</ele>
        <time>2021-05-18T14:10:07Z</time>
      </trkpt>
      <trkpt lat="41.8789810" lon="-8.8366240">
        <ele>-0.4</ele>
        <time>2021-05-18T14:10:08Z</time>
      </trkpt>
      <trkpt lat="41.8789810" lon="-8.8366240">
        <ele>-0.4</ele>
        <time>2021-05-18T14:10:09Z</time>
      </trkpt>
      <trkpt lat="41.8789810" lon="-8.8366240">
        <ele>-0.4</ele>
        <time>2021-05-18T14:10:10Z</time>
      </trkpt>
      <trkpt lat="41.8789810" lon="-8.8366240">
        <ele>-0.4</ele>
        <time>2021-05-18T14:10:11Z</time>
      </trkpt>
      <trkpt lat="41.8789810" lon="-8.8366240">
        <ele>-0.4</ele>
        <time>2021-05-18T14:10:12Z</time>
      </trkpt>
      <trkpt lat="41.8789810" lon="-8.8366240">
        <ele>-0.4</ele>
        <time>2021-05-18T14:10:13Z</time>
      </trkpt>
      <trkpt lat="41.8789810" lon="-8.8366240">
        <ele>-0.4</ele>
        <time>2021-05-18T14:10:14Z</time>
      </trkpt>
      <trkpt lat="41.8789810" lon="-8.8366240">
        <ele>-0.4</ele>
        <time>2021-05-18T14:10:15Z</time>
      </trkpt>
      <trkpt lat="41.8789810" lon="-8.8366240">
        <ele>-0.4</ele>
        <time>2021-05-18T14:10:16Z</time>
      </trkpt>
      <trkpt lat="41.8789810" lon="-8.8366240">
        <ele>-0.4</ele>
        <time>2021-05-18T14:10:17Z</time>
      </trkpt>
      <trkpt lat="41.8789810" lon="-8.8366240">
        <ele>-0.4</ele>
        <time>2021-05-18T14:10:18Z</time>
      </trkpt>
      <trkpt lat="41.8789810" lon="-8.8366240">
        <ele>-0.4</ele>
        <time>2021-05-18T14:10:19Z</time>
      </trkpt>
      <trkpt lat="41.8789810" lon="-8.8366240">
        <ele>-0.4</ele>
        <time>2021-05-18T14:10:20Z</time>
      </trkpt>
      <trkpt lat="41.8789810" lon="-8.8366240">
        <ele>-0.4</ele>
        <time>2021-05-18T14:10:21Z</time>
      </trkpt>
      <trkpt lat="41.8789810" lon="-8.8366240">
        <ele>-0.4</ele>
        <time>2021-05-18T14:10:22Z</time>
      </trkpt>
      <trkpt lat="41.8789810" lon="-8.8366240">
        <ele>-0.4</ele>
        <time>2021-05-18T14:10:23Z</time>
      </trkpt>
      <trkpt lat="41.8789810" lon="-8.8366240">
        <ele>-0.4</ele>
        <time>2021-05-18T14:10:24Z</time>
      </trkpt>
      <trkpt lat="41.8789810" lon="-8.8366240">
        <ele>-0.4</ele>
        <time>2021-05-18T14:10:25Z</time>
      </trkpt>
      <trkpt lat="41.8789810" lon="-8.8366240">
        <ele>-0.4</ele>
        <time>2021-05-18T14:10:26Z</time>
      </trkpt>
      <trkpt lat="41.8789810" lon="-8.8366240">
        <ele>-0.4</ele>
        <time>2021-05-18T14:10:27Z</time>
      </trkpt>
      <trkpt lat="41.8789810" lon="-8.8366240">
        <ele>-0.4</ele>
        <time>2021-05-18T14:10:28Z</time>
      </trkpt>
      <trkpt lat="41.8789810" lon="-8.8366240">
        <ele>-0.4</ele>
        <time>2021-05-18T14:10:29Z</time>
      </trkpt>
      <trkpt lat="41.8789810" lon="-8.8366240">
        <ele>-0.4</ele>
        <time>2021-05-18T14:10:30Z</time>
      </trkpt>
      <trkpt lat="41.8789810" lon="-8.8366240">
        <ele>-0.4</ele>
        <time>2021-05-18T14:10:31Z</time>
      </trkpt>
      <trkpt lat="41.8789810" lon="-8.8366240">
        <ele>-0.4</ele>
        <time>2021-05-18T14:10:32Z</time>
      </trkpt>
      <trkpt lat="41.8789810" lon="-8.8366240">
        <ele>-0.4</ele>
        <time>2021-05-18T14:10:33Z</time>
      </trkpt>
      <trkpt lat="41.8789810" lon="-8.8366240">
        <ele>-0.4</ele>
        <time>2021-05-18T14:10:34Z</time>
      </trkpt>
      <trkpt lat="41.8789810" lon="-8.8366240">
        <ele>-0.4</ele>
        <time>2021-05-18T14:10:35Z</time>
      </trkpt>
      <trkpt lat="41.8789810" lon="-8.8366240">
        <ele>-0.4</ele>
        <time>2021-05-18T14:10:36Z</time>
      </trkpt>
      <trkpt lat="41.8789810" lon="-8.8366240">
        <ele>-0.4</ele>
        <time>2021-05-18T14:10:37Z</time>
      </trkpt>
      <trkpt lat="41.8789810" lon="-8.8366240">
        <ele>-0.4</ele>
        <time>2021-05-18T14:10:38Z</time>
      </trkpt>
      <trkpt lat="41.8789810" lon="-8.8366240">
        <ele>-0.4</ele>
        <time>2021-05-18T14:10:39Z</time>
      </trkpt>
      <trkpt lat="41.8789810" lon="-8.8366240">
        <ele>-0.4</ele>
        <time>2021-05-18T14:10:40Z</time>
      </trkpt>
      <trkpt lat="41.8789810" lon="-8.8366240">
        <ele>-0.4</ele>
        <time>2021-05-18T14:10:41Z</time>
      </trkpt>
      <trkpt lat="41.8789810" lon="-8.8366240">
        <ele>-0.4</ele>
        <time>2021-05-18T14:10:42Z</time>
      </trkpt>
      <trkpt lat="41.8789810" lon="-8.8366240">
        <ele>-0.4</ele>
        <time>2021-05-18T14:10:43Z</time>
      </trkpt>
      <trkpt lat="41.8789810" lon="-8.8366240">
        <ele>-0.4</ele>
        <time>2021-05-18T14:10:44Z</time>
      </trkpt>
      <trkpt lat="41.8789810" lon="-8.8366240">
        <ele>-0.4</ele>
        <time>2021-05-18T14:10:45Z</time>
      </trkpt>
      <trkpt lat="41.8789810" lon="-8.8366240">
        <ele>-0.4</ele>
        <time>2021-05-18T14:10:46Z</time>
      </trkpt>
      <trkpt lat="41.8789810" lon="-8.8366240">
        <ele>-0.4</ele>
        <time>2021-05-18T14:10:47Z</time>
      </trkpt>
      <trkpt lat="41.8789810" lon="-8.8366240">
        <ele>-0.4</ele>
        <time>2021-05-18T14:10:48Z</time>
      </trkpt>
      <trkpt lat="41.8789810" lon="-8.8366240">
        <ele>-0.4</ele>
        <time>2021-05-18T14:10:49Z</time>
      </trkpt>
      <trkpt lat="41.8789810" lon="-8.8366240">
        <ele>-0.4</ele>
        <time>2021-05-18T14:10:50Z</time>
      </trkpt>
      <trkpt lat="41.8789810" lon="-8.8366240">
        <ele>-0.4</ele>
        <time>2021-05-18T14:10:51Z</time>
      </trkpt>
      <trkpt lat="41.8789810" lon="-8.8366240">
        <ele>-0.4</ele>
        <time>2021-05-18T14:10:52Z</time>
      </trkpt>
      <trkpt lat="41.8789810" lon="-8.8366240">
        <ele>-0.4</ele>
        <time>2021-05-18T14:10:53Z</time>
      </trkpt>
      <trkpt lat="41.8789810" lon="-8.8366240">
        <ele>-0.4</ele>
        <time>2021-05-18T14:10:54Z</time>
      </trkpt>
      <trkpt lat="41.8789810" lon="-8.8366240">
        <ele>-0.4</ele>
        <time>2021-05-18T14:10:55Z</time>
      </trkpt>
      <trkpt lat="41.8789810" lon="-8.8366240">
        <ele>-0.4</ele>
        <time>2021-05-18T14:10:56Z</time>
      </trkpt>
      <trkpt lat="41.8789810" lon="-8.8366240">
        <ele>-0.4</ele>
        <time>2021-05-18T14:10:57Z</time>
      </trkpt>
      <trkpt lat="41.8789810" lon="-8.8366240">
        <ele>-0.4</ele>
        <time>2021-05-18T14:10:58Z</time>
      </trkpt>
      <trkpt lat="41.8789810" lon="-8.8366240">
        <ele>-0.4</ele>
        <time>2021-05-18T14:10:59Z</time>
      </trkpt>
      <trkpt lat="41.8789810" lon="-8.8366240">
        <ele>-0.4</ele>
        <time>2021-05-18T14:11:00Z</time>
      </trkpt>
      <trkpt lat="41.8789810" lon="-8.8366240">
        <ele>-0.4</ele>
        <time>2021-05-18T14:11:01Z</time>
      </trkpt>
      <trkpt lat="41.8789810" lon="-8.8366240">
        <ele>-0.4</ele>
        <time>2021-05-18T14:11:02Z</time>
      </trkpt>
      <trkpt lat="41.8789810" lon="-8.8366240">
        <ele>-0.4</ele>
        <time>2021-05-18T14:11:03Z</time>
      </trkpt>
      <trkpt lat="41.8789810" lon="-8.8366240">
        <ele>-0.4</ele>
        <time>2021-05-18T14:11:04Z</time>
      </trkpt>
      <trkpt lat="41.8789810" lon="-8.8366240">
        <ele>-0.4</ele>
        <time>2021-05-18T14:11:05Z</time>
      </trkpt>
      <trkpt lat="41.8789810" lon="-8.8366240">
        <ele>-0.4</ele>
        <time>2021-05-18T14:11:06Z</time>
      </trkpt>
      <trkpt lat="41.8789810" lon="-8.8366240">
        <ele>-0.4</ele>
        <time>2021-05-18T14:11:07Z</time>
      </trkpt>
      <trkpt lat="41.8789810" lon="-8.8366240">
        <ele>-0.4</ele>
        <time>2021-05-18T14:11:08Z</time>
      </trkpt>
      <trkpt lat="41.8789810" lon="-8.8366240">
        <ele>-0.4</ele>
        <time>2021-05-18T14:11:09Z</time>
      </trkpt>
      <trkpt lat="41.8789810" lon="-8.8366240">
        <ele>-0.4</ele>
        <time>2021-05-18T14:11:10Z</time>
      </trkpt>
      <trkpt lat="41.8789810" lon="-8.8366240">
        <ele>-0.4</ele>
        <time>2021-05-18T14:11:11Z</time>
      </trkpt>
      <trkpt lat="41.8789810" lon="-8.8366240">
        <ele>-0.4</ele>
        <time>2021-05-18T14:11:12Z</time>
      </trkpt>
      <trkpt lat="41.8789810" lon="-8.8366240">
        <ele>-0.4</ele>
        <time>2021-05-18T14:11:13Z</time>
      </trkpt>
      <trkpt lat="41.8789810" lon="-8.8366240">
        <ele>-0.4</ele>
        <time>2021-05-18T14:11:14Z</time>
      </trkpt>
      <trkpt lat="41.8789810" lon="-8.8366240">
        <ele>-0.4</ele>
        <time>2021-05-18T14:11:15Z</time>
      </trkpt>
      <trkpt lat="41.8789810" lon="-8.8366240">
        <ele>-0.4</ele>
        <time>2021-05-18T14:11:16Z</time>
      </trkpt>
      <trkpt lat="41.8789810" lon="-8.8366240">
        <ele>-0.4</ele>
        <time>2021-05-18T14:11:17Z</time>
      </trkpt>
      <trkpt lat="41.8789810" lon="-8.8366240">
        <ele>-0.4</ele>
        <time>2021-05-18T14:11:18Z</time>
      </trkpt>
      <trkpt lat="41.8789810" lon="-8.8366240">
        <ele>-0.4</ele>
        <time>2021-05-18T14:11:19Z</time>
      </trkpt>
      <trkpt lat="41.8789810" lon="-8.8366240">
        <ele>-0.4</ele>
        <time>2021-05-18T14:11:20Z</time>
      </trkpt>
      <trkpt lat="41.8789810" lon="-8.8366240">
        <ele>-0.4</ele>
        <time>2021-05-18T14:11:21Z</time>
      </trkpt>
      <trkpt lat="41.8789810" lon="-8.8366240">
        <ele>-0.4</ele>
        <time>2021-05-18T14:11:22Z</time>
      </trkpt>
      <trkpt lat="41.8789810" lon="-8.8366240">
        <ele>-0.4</ele>
        <time>2021-05-18T14:11:23Z</time>
      </trkpt>
      <trkpt lat="41.8789810" lon="-8.8366240">
        <ele>-0.4</ele>
        <time>2021-05-18T14:11:24Z</time>
      </trkpt>
      <trkpt lat="41.8789810" lon="-8.8366240">
        <ele>-0.4</ele>
        <time>2021-05-18T14:11:25Z</time>
      </trkpt>
      <trkpt lat="41.8789810" lon="-8.8366240">
        <ele>-0.4</ele>
        <time>2021-05-18T14:11:26Z</time>
      </trkpt>
      <trkpt lat="41.8789810" lon="-8.8366240">
        <ele>-0.4</ele>
        <time>2021-05-18T14:11:27Z</time>
      </trkpt>
      <trkpt lat="41.8789810" lon="-8.8366240">
        <ele>-0.4</ele>
        <time>2021-05-18T14:11:28Z</time>
      </trkpt>
      <trkpt lat="41.8789810" lon="-8.8366240">
        <ele>-0.4</ele>
        <time>2021-05-18T14:11:29Z</time>
      </trkpt>
      <trkpt lat="41.8789810" lon="-8.8366240">
        <ele>-0.4</ele>
        <time>2021-05-18T14:11:30Z</time>
      </trkpt>
      <trkpt lat="41.8789810" lon="-8.8366240">
        <ele>-0.4</ele>
        <time>2021-05-18T14:11:31Z</time>
      </trkpt>
      <trkpt lat="41.8789810" lon="-8.8366240">
        <ele>-0.4</ele>
        <time>2021-05-18T14:11:32Z</time>
      </trkpt>
      <trkpt lat="41.8789810" lon="-8.8366240">
        <ele>-0.4</ele>
        <time>2021-05-18T14:11:33Z</time>
      </trkpt>
      <trkpt lat="41.8789810" lon="-8.8366240">
        <ele>-0.4</ele>
        <time>2021-05-18T14:11:34Z</time>
      </trkpt>
      <trkpt lat="41.8789810" lon="-8.8366240">
        <ele>-0.4</ele>
        <time>2021-05-18T14:11:35Z</time>
      </trkpt>
      <trkpt lat="41.8789810" lon="-8.8366240">
        <ele>-0.4</ele>
        <time>2021-05-18T14:11:36Z</time>
      </trkpt>
      <trkpt lat="41.8789810" lon="-8.8366240">
        <ele>-0.4</ele>
        <time>2021-05-18T14:11:37Z</time>
      </trkpt>
      <trkpt lat="41.8789810" lon="-8.8366240">
        <ele>-0.4</ele>
        <time>2021-05-18T14:11:38Z</time>
      </trkpt>
      <trkpt lat="41.8789810" lon="-8.8366240">
        <ele>-0.4</ele>
        <time>2021-05-18T14:11:39Z</time>
      </trkpt>
      <trkpt lat="41.8789810" lon="-8.8366240">
        <ele>-0.4</ele>
        <time>2021-05-18T14:11:40Z</time>
      </trkpt>
      <trkpt lat="41.8789810" lon="-8.8366240">
        <ele>-0.4</ele>
        <time>2021-05-18T14:11:41Z</time>
      </trkpt>
      <trkpt lat="41.8789810" lon="-8.8366240">
        <ele>-0.4</ele>
        <time>2021-05-18T14:11:42Z</time>
      </trkpt>
      <trkpt lat="41.8789810" lon="-8.8366240">
        <ele>-0.4</ele>
        <time>2021-05-18T14:11:43Z</time>
      </trkpt>
      <trkpt lat="41.8789810" lon="-8.8366240">
        <ele>-0.4</ele>
        <time>2021-05-18T14:11:44Z</time>
      </trkpt>
      <trkpt lat="41.8789810" lon="-8.8366240">
        <ele>-0.4</ele>
        <time>2021-05-18T14:11:45Z</time>
      </trkpt>
      <trkpt lat="41.8789810" lon="-8.8366240">
        <ele>-0.4</ele>
        <time>2021-05-18T14:11:46Z</time>
      </trkpt>
      <trkpt lat="41.8789810" lon="-8.8366240">
        <ele>-0.4</ele>
        <time>2021-05-18T14:11:47Z</time>
      </trkpt>
      <trkpt lat="41.8789810" lon="-8.8366240">
        <ele>-0.4</ele>
        <time>2021-05-18T14:11:48Z</time>
      </trkpt>
      <trkpt lat="41.8789810" lon="-8.8366240">
        <ele>-0.4</ele>
        <time>2021-05-18T14:11:49Z</time>
      </trkpt>
      <trkpt lat="41.8789810" lon="-8.8366240">
        <ele>-0.4</ele>
        <time>2021-05-18T14:11:50Z</time>
      </trkpt>
      <trkpt lat="41.8789810" lon="-8.8366240">
        <ele>-0.4</ele>
        <time>2021-05-18T14:11:51Z</time>
      </trkpt>
      <trkpt lat="41.8789810" lon="-8.8366240">
        <ele>-0.4</ele>
        <time>2021-05-18T14:11:52Z</time>
      </trkpt>
      <trkpt lat="41.8789810" lon="-8.8366240">
        <ele>-0.4</ele>
        <time>2021-05-18T14:11:53Z</time>
      </trkpt>
      <trkpt lat="41.8789810" lon="-8.8366240">
        <ele>-0.4</ele>
        <time>2021-05-18T14:11:54Z</time>
      </trkpt>
      <trkpt lat="41.8789810" lon="-8.8366240">
        <ele>-0.4</ele>
        <time>2021-05-18T14:11:55Z</time>
      </trkpt>
      <trkpt lat="41.8789810" lon="-8.8366240">
        <ele>-0.4</ele>
        <time>2021-05-18T14:11:56Z</time>
      </trkpt>
      <trkpt lat="41.8789810" lon="-8.8366240">
        <ele>-0.4</ele>
        <time>2021-05-18T14:11:57Z</time>
      </trkpt>
      <trkpt lat="41.8789810" lon="-8.8366240">
        <ele>-0.4</ele>
        <time>2021-05-18T14:11:58Z</time>
      </trkpt>
      <trkpt lat="41.8789810" lon="-8.8366240">
        <ele>-0.4</ele>
        <time>2021-05-18T14:11:59Z</time>
      </trkpt>
      <trkpt lat="41.8789810" lon="-8.8366240">
        <ele>-0.4</ele>
        <time>2021-05-18T14:12:00Z</time>
      </trkpt>
      <trkpt lat="41.8789810" lon="-8.8366240">
        <ele>-0.4</ele>
        <time>2021-05-18T14:12:01Z</time>
      </trkpt>
      <trkpt lat="41.8789810" lon="-8.8366240">
        <ele>-0.4</ele>
        <time>2021-05-18T14:12:02Z</time>
      </trkpt>
      <trkpt lat="41.8789810" lon="-8.8366240">
        <ele>-0.4</ele>
        <time>2021-05-18T14:12:03Z</time>
      </trkpt>
      <trkpt lat="41.8789810" lon="-8.8366240">
        <ele>-0.4</ele>
        <time>2021-05-18T14:12:04Z</time>
      </trkpt>
      <trkpt lat="41.8789810" lon="-8.8366240">
        <ele>-0.4</ele>
        <time>2021-05-18T14:12:05Z</time>
      </trkpt>
      <trkpt lat="41.8789810" lon="-8.8366240">
        <ele>-0.4</ele>
        <time>2021-05-18T14:12:06Z</time>
      </trkpt>
      <trkpt lat="41.8789810" lon="-8.8366240">
        <ele>-0.4</ele>
        <time>2021-05-18T14:12:07Z</time>
      </trkpt>
      <trkpt lat="41.8789810" lon="-8.8366240">
        <ele>-0.4</ele>
        <time>2021-05-18T14:12:08Z</time>
      </trkpt>
      <trkpt lat="41.8789810" lon="-8.8366240">
        <ele>-0.4</ele>
        <time>2021-05-18T14:12:09Z</time>
      </trkpt>
      <trkpt lat="41.8789810" lon="-8.8366240">
        <ele>-0.4</ele>
        <time>2021-05-18T14:12:10Z</time>
      </trkpt>
      <trkpt lat="41.8789810" lon="-8.8366240">
        <ele>-0.4</ele>
        <time>2021-05-18T14:12:11Z</time>
      </trkpt>
      <trkpt lat="41.8789810" lon="-8.8366240">
        <ele>-0.4</ele>
        <time>2021-05-18T14:12:12Z</time>
      </trkpt>
      <trkpt lat="41.8789810" lon="-8.8366240">
        <ele>-0.4</ele>
        <time>2021-05-18T14:12:13Z</time>
      </trkpt>
      <trkpt lat="41.8789810" lon="-8.8366240">
        <ele>-0.4</ele>
        <time>2021-05-18T14:12:14Z</time>
      </trkpt>
      <trkpt lat="41.8789810" lon="-8.8366240">
        <ele>-0.4</ele>
        <time>2021-05-18T14:12:15Z</time>
      </trkpt>
      <trkpt lat="41.8789810" lon="-8.8366240">
        <ele>-0.4</ele>
        <time>2021-05-18T14:12:16Z</time>
      </trkpt>
      <trkpt lat="41.8789810" lon="-8.8366240">
        <ele>-0.4</ele>
        <time>2021-05-18T14:12:17Z</time>
      </trkpt>
      <trkpt lat="41.8789810" lon="-8.8366240">
        <ele>-0.4</ele>
        <time>2021-05-18T14:12:18Z</time>
      </trkpt>
      <trkpt lat="41.8789810" lon="-8.8366240">
        <ele>-0.4</ele>
        <time>2021-05-18T14:12:19Z</time>
      </trkpt>
      <trkpt lat="41.8789810" lon="-8.8366240">
        <ele>-0.4</ele>
        <time>2021-05-18T14:12:20Z</time>
      </trkpt>
      <trkpt lat="41.8789890" lon="-8.8366230">
        <ele>-0.4</ele>
        <time>2021-05-18T14:12:21Z</time>
      </trkpt>
      <trkpt lat="41.8789890" lon="-8.8366230">
        <ele>-0.4</ele>
        <time>2021-05-18T14:12:22Z</time>
      </trkpt>
      <trkpt lat="41.8789910" lon="-8.8366240">
        <ele>-0.4</ele>
        <time>2021-05-18T14:12:23Z</time>
      </trkpt>
      <trkpt lat="41.8789910" lon="-8.8366240">
        <ele>-0.4</ele>
        <time>2021-05-18T14:12:24Z</time>
      </trkpt>
      <trkpt lat="41.8789930" lon="-8.8366260">
        <ele>-0.4</ele>
        <time>2021-05-18T14:12:25Z</time>
      </trkpt>
      <trkpt lat="41.8789910" lon="-8.8366170">
        <ele>-0.4</ele>
        <time>2021-05-18T14:12:26Z</time>
      </trkpt>
      <trkpt lat="41.8789910" lon="-8.8366260">
        <ele>-0.4</ele>
        <time>2021-05-18T14:12:27Z</time>
      </trkpt>
      <trkpt lat="41.8789910" lon="-8.8366240">
        <ele>-0.4</ele>
        <time>2021-05-18T14:12:28Z</time>
      </trkpt>
      <trkpt lat="41.8789850" lon="-8.8366220">
        <ele>-0.4</ele>
        <time>2021-05-18T14:12:29Z</time>
      </trkpt>
      <trkpt lat="41.8789860" lon="-8.8366280">
        <ele>-0.4</ele>
        <time>2021-05-18T14:12:30Z</time>
      </trkpt>
      <trkpt lat="41.8789870" lon="-8.8366270">
        <ele>-0.4</ele>
        <time>2021-05-18T14:12:31Z</time>
      </trkpt>
      <trkpt lat="41.8789880" lon="-8.8366290">
        <ele>-0.4</ele>
        <time>2021-05-18T14:12:32Z</time>
      </trkpt>
      <trkpt lat="41.8789860" lon="-8.8366290">
        <ele>-0.4</ele>
        <time>2021-05-18T14:12:33Z</time>
      </trkpt>
      <trkpt lat="41.8789870" lon="-8.8366310">
        <ele>-0.4</ele>
        <time>2021-05-18T14:12:34Z</time>
      </trkpt>
      <trkpt lat="41.8789870" lon="-8.8366330">
        <ele>-0.4</ele>
        <time>2021-05-18T14:12:35Z</time>
      </trkpt>
      <trkpt lat="41.8789850" lon="-8.8366330">
        <ele>-0.4</ele>
        <time>2021-05-18T14:12:36Z</time>
      </trkpt>
      <trkpt lat="41.8789850" lon="-8.8366320">
        <ele>-0.4</ele>
        <time>2021-05-18T14:12:37Z</time>
      </trkpt>
      <trkpt lat="41.8789890" lon="-8.8366310">
        <ele>-0.4</ele>
        <time>2021-05-18T14:12:38Z</time>
      </trkpt>
      <trkpt lat="41.8789870" lon="-8.8366310">
        <ele>-0.4</ele>
        <time>2021-05-18T14:12:39Z</time>
      </trkpt>
      <trkpt lat="41.8789890" lon="-8.8366380">
        <ele>-0.4</ele>
        <time>2021-05-18T14:12:40Z</time>
      </trkpt>
      <trkpt lat="41.8789890" lon="-8.8366420">
        <ele>-0.4</ele>
        <time>2021-05-18T14:12:41Z</time>
      </trkpt>
      <trkpt lat="41.8789890" lon="-8.8366420">
        <ele>-0.4</ele>
        <time>2021-05-18T14:12:42Z</time>
      </trkpt>
      <trkpt lat="41.8789890" lon="-8.8366420">
        <ele>-0.4</ele>
        <time>2021-05-18T14:12:43Z</time>
      </trkpt>
      <trkpt lat="41.8789890" lon="-8.8366420">
        <ele>-0.4</ele>
        <time>2021-05-18T14:12:44Z</time>
      </trkpt>
      <trkpt lat="41.8789890" lon="-8.8366420">
        <ele>-0.4</ele>
        <time>2021-05-18T14:12:45Z</time>
      </trkpt>
      <trkpt lat="41.8789890" lon="-8.8366420">
        <ele>-0.4</ele>
        <time>2021-05-18T14:12:46Z</time>
      </trkpt>
      <trkpt lat="41.8789890" lon="-8.8366420">
        <ele>-0.4</ele>
        <time>2021-05-18T14:12:47Z</time>
      </trkpt>
      <trkpt lat="41.8789890" lon="-8.8366420">
        <ele>-0.4</ele>
        <time>2021-05-18T14:12:48Z</time>
      </trkpt>
      <trkpt lat="41.8789890" lon="-8.8366420">
        <ele>-0.4</ele>
        <time>2021-05-18T14:12:49Z</time>
      </trkpt>
      <trkpt lat="41.8789890" lon="-8.8366420">
        <ele>-0.4</ele>
        <time>2021-05-18T14:12:50Z</time>
      </trkpt>
      <trkpt lat="41.8789890" lon="-8.8366420">
        <ele>-0.4</ele>
        <time>2021-05-18T14:12:51Z</time>
      </trkpt>
      <trkpt lat="41.8789890" lon="-8.8366420">
        <ele>-0.4</ele>
        <time>2021-05-18T14:12:52Z</time>
      </trkpt>
      <trkpt lat="41.8789890" lon="-8.8366420">
        <ele>-0.4</ele>
        <time>2021-05-18T14:12:53Z</time>
      </trkpt>
      <trkpt lat="41.8789890" lon="-8.8366420">
        <ele>-0.4</ele>
        <time>2021-05-18T14:12:54Z</time>
      </trkpt>
      <trkpt lat="41.8789890" lon="-8.8366420">
        <ele>-0.4</ele>
        <time>2021-05-18T14:12:55Z</time>
      </trkpt>
      <trkpt lat="41.8789890" lon="-8.8366420">
        <ele>-0.4</ele>
        <time>2021-05-18T14:12:56Z</time>
      </trkpt>
      <trkpt lat="41.8789890" lon="-8.8366420">
        <ele>-0.4</ele>
        <time>2021-05-18T14:12:57Z</time>
      </trkpt>
      <trkpt lat="41.8789890" lon="-8.8366420">
        <ele>-0.4</ele>
        <time>2021-05-18T14:12:58Z</time>
      </trkpt>
      <trkpt lat="41.8789890" lon="-8.8366420">
        <ele>-0.4</ele>
        <time>2021-05-18T14:12:59Z</time>
      </trkpt>
      <trkpt lat="41.8789890" lon="-8.8366420">
        <ele>-0.4</ele>
        <time>2021-05-18T14:13:00Z</time>
      </trkpt>
      <trkpt lat="41.8789890" lon="-8.8366420">
        <ele>-0.4</ele>
        <time>2021-05-18T14:13:01Z</time>
      </trkpt>
      <trkpt lat="41.8789890" lon="-8.8366420">
        <ele>-0.4</ele>
        <time>2021-05-18T14:13:02Z</time>
      </trkpt>
      <trkpt lat="41.8789890" lon="-8.8366420">
        <ele>-0.4</ele>
        <time>2021-05-18T14:13:03Z</time>
      </trkpt>
      <trkpt lat="41.8789890" lon="-8.8366420">
        <ele>-0.4</ele>
        <time>2021-05-18T14:13:04Z</time>
      </trkpt>
      <trkpt lat="41.8789890" lon="-8.8366420">
        <ele>-0.4</ele>
        <time>2021-05-18T14:13:05Z</time>
      </trkpt>
      <trkpt lat="41.8789890" lon="-8.8366420">
        <ele>-0.4</ele>
        <time>2021-05-18T14:13:06Z</time>
      </trkpt>
      <trkpt lat="41.8789890" lon="-8.8366420">
        <ele>-0.4</ele>
        <time>2021-05-18T14:13:07Z</time>
      </trkpt>
      <trkpt lat="41.8789890" lon="-8.8366420">
        <ele>-0.4</ele>
        <time>2021-05-18T14:13:08Z</time>
      </trkpt>
      <trkpt lat="41.8789890" lon="-8.8366420">
        <ele>-0.4</ele>
        <time>2021-05-18T14:13:09Z</time>
      </trkpt>
      <trkpt lat="41.8789890" lon="-8.8366420">
        <ele>-0.4</ele>
        <time>2021-05-18T14:13:10Z</time>
      </trkpt>
      <trkpt lat="41.8789890" lon="-8.8366420">
        <ele>-0.4</ele>
        <time>2021-05-18T14:13:11Z</time>
      </trkpt>
      <trkpt lat="41.8789890" lon="-8.8366420">
        <ele>-0.4</ele>
        <time>2021-05-18T14:13:12Z</time>
      </trkpt>
      <trkpt lat="41.8789890" lon="-8.8366420">
        <ele>-0.4</ele>
        <time>2021-05-18T14:13:13Z</time>
      </trkpt>
      <trkpt lat="41.8789890" lon="-8.8366420">
        <ele>-0.4</ele>
        <time>2021-05-18T14:13:14Z</time>
      </trkpt>
      <trkpt lat="41.8789890" lon="-8.8366420">
        <ele>-0.4</ele>
        <time>2021-05-18T14:13:15Z</time>
      </trkpt>
      <trkpt lat="41.8789890" lon="-8.8366420">
        <ele>-0.4</ele>
        <time>2021-05-18T14:13:16Z</time>
      </trkpt>
      <trkpt lat="41.8789890" lon="-8.8366420">
        <ele>-0.4</ele>
        <time>2021-05-18T14:13:17Z</time>
      </trkpt>
      <trkpt lat="41.8789890" lon="-8.8366420">
        <ele>-0.4</ele>
        <time>2021-05-18T14:13:18Z</time>
      </trkpt>
      <trkpt lat="41.8789890" lon="-8.8366420">
        <ele>-0.4</ele>
        <time>2021-05-18T14:13:19Z</time>
      </trkpt>
      <trkpt lat="41.8789940" lon="-8.8366450">
        <ele>-0.4</ele>
        <time>2021-05-18T14:13:20Z</time>
      </trkpt>
      <trkpt lat="41.8789960" lon="-8.8366440">
        <ele>-0.4</ele>
        <time>2021-05-18T14:13:21Z</time>
      </trkpt>
      <trkpt lat="41.8789940" lon="-8.8366430">
        <ele>-0.4</ele>
        <time>2021-05-18T14:13:22Z</time>
      </trkpt>
      <trkpt lat="41.8789980" lon="-8.8366420">
        <ele>-0.4</ele>
        <time>2021-05-18T14:13:23Z</time>
      </trkpt>
      <trkpt lat="41.8789980" lon="-8.8366420">
        <ele>-0.4</ele>
        <time>2021-05-18T14:13:24Z</time>
      </trkpt>
      <trkpt lat="41.8789990" lon="-8.8366420">
        <ele>-0.4</ele>
        <time>2021-05-18T14:13:25Z</time>
      </trkpt>
      <trkpt lat="41.8790000" lon="-8.8366460">
        <ele>-0.4</ele>
        <time>2021-05-18T14:13:26Z</time>
      </trkpt>
      <trkpt lat="41.8790000" lon="-8.8366370">
        <ele>-0.4</ele>
        <time>2021-05-18T14:13:27Z</time>
      </trkpt>
      <trkpt lat="41.8790000" lon="-8.8366330">
        <ele>-0.4</ele>
        <time>2021-05-18T14:13:28Z</time>
      </trkpt>
      <trkpt lat="41.8789990" lon="-8.8366300">
        <ele>-0.4</ele>
        <time>2021-05-18T14:13:29Z</time>
      </trkpt>
      <trkpt lat="41.8789990" lon="-8.8366290">
        <ele>-0.4</ele>
        <time>2021-05-18T14:13:30Z</time>
      </trkpt>
      <trkpt lat="41.8790010" lon="-8.8366280">
        <ele>-0.4</ele>
        <time>2021-05-18T14:13:31Z</time>
      </trkpt>
      <trkpt lat="41.8790030" lon="-8.8366280">
        <ele>-0.4</ele>
        <time>2021-05-18T14:13:32Z</time>
      </trkpt>
      <trkpt lat="41.8790040" lon="-8.8366290">
        <ele>-0.4</ele>
        <time>2021-05-18T14:13:33Z</time>
      </trkpt>
      <trkpt lat="41.8790000" lon="-8.8366160">
        <ele>-0.4</ele>
        <time>2021-05-18T14:13:34Z</time>
      </trkpt>
      <trkpt lat="41.8790010" lon="-8.8366150">
        <ele>-0.4</ele>
        <time>2021-05-18T14:13:35Z</time>
      </trkpt>
      <trkpt lat="41.8790010" lon="-8.8366130">
        <ele>-0.4</ele>
        <time>2021-05-18T14:13:36Z</time>
      </trkpt>
      <trkpt lat="41.8790010" lon="-8.8366130">
        <ele>-0.4</ele>
        <time>2021-05-18T14:13:37Z</time>
      </trkpt>
      <trkpt lat="41.8790100" lon="-8.8366320">
        <ele>-0.4</ele>
        <time>2021-05-18T14:13:38Z</time>
      </trkpt>
      <trkpt lat="41.8790090" lon="-8.8366360">
        <ele>-0.4</ele>
        <time>2021-05-18T14:13:39Z</time>
      </trkpt>
      <trkpt lat="41.8790110" lon="-8.8366380">
        <ele>-0.4</ele>
        <time>2021-05-18T14:13:40Z</time>
      </trkpt>
      <trkpt lat="41.8790110" lon="-8.8366380">
        <ele>-0.4</ele>
        <time>2021-05-18T14:13:41Z</time>
      </trkpt>
      <trkpt lat="41.8790110" lon="-8.8366380">
        <ele>-0.4</ele>
        <time>2021-05-18T14:13:42Z</time>
      </trkpt>
      <trkpt lat="41.8790110" lon="-8.8366380">
        <ele>-0.4</ele>
        <time>2021-05-18T14:13:43Z</time>
      </trkpt>
      <trkpt lat="41.8790110" lon="-8.8366380">
        <ele>-0.4</ele>
        <time>2021-05-18T14:13:44Z</time>
      </trkpt>
      <trkpt lat="41.8790110" lon="-8.8366380">
        <ele>-0.4</ele>
        <time>2021-05-18T14:13:45Z</time>
      </trkpt>
      <trkpt lat="41.8790080" lon="-8.8366320">
        <ele>-0.4</ele>
        <time>2021-05-18T14:13:46Z</time>
      </trkpt>
      <trkpt lat="41.8790080" lon="-8.8366320">
        <ele>-0.4</ele>
        <time>2021-05-18T14:13:47Z</time>
      </trkpt>
      <trkpt lat="41.8790090" lon="-8.8366300">
        <ele>-0.4</ele>
        <time>2021-05-18T14:13:48Z</time>
      </trkpt>
      <trkpt lat="41.8790090" lon="-8.8366310">
        <ele>-0.4</ele>
        <time>2021-05-18T14:13:49Z</time>
      </trkpt>
      <trkpt lat="41.8790070" lon="-8.8366270">
        <ele>-0.4</ele>
        <time>2021-05-18T14:13:50Z</time>
      </trkpt>
      <trkpt lat="41.8790070" lon="-8.8366230">
        <ele>-0.4</ele>
        <time>2021-05-18T14:13:51Z</time>
      </trkpt>
      <trkpt lat="41.8790070" lon="-8.8366230">
        <ele>-0.4</ele>
        <time>2021-05-18T14:13:52Z</time>
      </trkpt>
      <trkpt lat="41.8790060" lon="-8.8366180">
        <ele>-0.4</ele>
        <time>2021-05-18T14:13:53Z</time>
      </trkpt>
      <trkpt lat="41.8790050" lon="-8.8366170">
        <ele>-0.4</ele>
        <time>2021-05-18T14:13:54Z</time>
      </trkpt>
      <trkpt lat="41.8790060" lon="-8.8366190">
        <ele>-0.4</ele>
        <time>2021-05-18T14:13:55Z</time>
      </trkpt>
      <trkpt lat="41.8790060" lon="-8.8366190">
        <ele>-0.4</ele>
        <time>2021-05-18T14:13:56Z</time>
      </trkpt>
      <trkpt lat="41.8790060" lon="-8.8366160">
        <ele>-0.4</ele>
        <time>2021-05-18T14:13:57Z</time>
      </trkpt>
      <trkpt lat="41.8790070" lon="-8.8366220">
        <ele>-0.4</ele>
        <time>2021-05-18T14:13:58Z</time>
      </trkpt>
      <trkpt lat="41.8790070" lon="-8.8366220">
        <ele>-0.4</ele>
        <time>2021-05-18T14:13:59Z</time>
      </trkpt>
      <trkpt lat="41.8790070" lon="-8.8366220">
        <ele>-0.4</ele>
        <time>2021-05-18T14:14:00Z</time>
      </trkpt>
      <trkpt lat="41.8790070" lon="-8.8366220">
        <ele>-0.4</ele>
        <time>2021-05-18T14:14:01Z</time>
      </trkpt>
      <trkpt lat="41.8790070" lon="-8.8366220">
        <ele>-0.4</ele>
        <time>2021-05-18T14:14:02Z</time>
      </trkpt>
      <trkpt lat="41.8790070" lon="-8.8366220">
        <ele>-0.4</ele>
        <time>2021-05-18T14:14:03Z</time>
      </trkpt>
      <trkpt lat="41.8790070" lon="-8.8366220">
        <ele>-0.4</ele>
        <time>2021-05-18T14:14:04Z</time>
      </trkpt>
      <trkpt lat="41.8790070" lon="-8.8366220">
        <ele>-0.4</ele>
        <time>2021-05-18T14:14:05Z</time>
      </trkpt>
      <trkpt lat="41.8790070" lon="-8.8366220">
        <ele>-0.4</ele>
        <time>2021-05-18T14:14:06Z</time>
      </trkpt>
      <trkpt lat="41.8790070" lon="-8.8366220">
        <ele>-0.4</ele>
        <time>2021-05-18T14:14:07Z</time>
      </trkpt>
      <trkpt lat="41.8790070" lon="-8.8366220">
        <ele>-0.4</ele>
        <time>2021-05-18T14:14:08Z</time>
      </trkpt>
      <trkpt lat="41.8790070" lon="-8.8366220">
        <ele>-0.4</ele>
        <time>2021-05-18T14:14:09Z</time>
      </trkpt>
      <trkpt lat="41.8790070" lon="-8.8366220">
        <ele>-0.4</ele>
        <time>2021-05-18T14:14:10Z</time>
      </trkpt>
      <trkpt lat="41.8790070" lon="-8.8366220">
        <ele>-0.4</ele>
        <time>2021-05-18T14:14:11Z</time>
      </trkpt>
      <trkpt lat="41.8790070" lon="-8.8366220">
        <ele>-0.4</ele>
        <time>2021-05-18T14:14:12Z</time>
      </trkpt>
      <trkpt lat="41.8790070" lon="-8.8366220">
        <ele>-0.4</ele>
        <time>2021-05-18T14:14:13Z</time>
      </trkpt>
      <trkpt lat="41.8790070" lon="-8.8366220">
        <ele>-0.4</ele>
        <time>2021-05-18T14:14:14Z</time>
      </trkpt>
      <trkpt lat="41.8790070" lon="-8.8366220">
        <ele>-0.4</ele>
        <time>2021-05-18T14:14:15Z</time>
      </trkpt>
      <trkpt lat="41.8790070" lon="-8.8366220">
        <ele>-0.4</ele>
        <time>2021-05-18T14:14:16Z</time>
      </trkpt>
      <trkpt lat="41.8790070" lon="-8.8366220">
        <ele>-0.4</ele>
        <time>2021-05-18T14:14:17Z</time>
      </trkpt>
      <trkpt lat="41.8790070" lon="-8.8366220">
        <ele>-0.4</ele>
        <time>2021-05-18T14:14:18Z</time>
      </trkpt>
      <trkpt lat="41.8790070" lon="-8.8366220">
        <ele>-0.4</ele>
        <time>2021-05-18T14:14:19Z</time>
      </trkpt>
      <trkpt lat="41.8790070" lon="-8.8366220">
        <ele>-0.4</ele>
        <time>2021-05-18T14:14:20Z</time>
      </trkpt>
      <trkpt lat="41.8790070" lon="-8.8366220">
        <ele>-0.4</ele>
        <time>2021-05-18T14:14:21Z</time>
      </trkpt>
      <trkpt lat="41.8790070" lon="-8.8366220">
        <ele>-0.4</ele>
        <time>2021-05-18T14:14:22Z</time>
      </trkpt>
      <trkpt lat="41.8790070" lon="-8.8366220">
        <ele>-0.4</ele>
        <time>2021-05-18T14:14:23Z</time>
      </trkpt>
      <trkpt lat="41.8790070" lon="-8.8366220">
        <ele>-0.4</ele>
        <time>2021-05-18T14:14:24Z</time>
      </trkpt>
      <trkpt lat="41.8790070" lon="-8.8366220">
        <ele>-0.4</ele>
        <time>2021-05-18T14:14:25Z</time>
      </trkpt>
      <trkpt lat="41.8790070" lon="-8.8366220">
        <ele>-0.4</ele>
        <time>2021-05-18T14:14:26Z</time>
      </trkpt>
      <trkpt lat="41.8790070" lon="-8.8366220">
        <ele>-0.4</ele>
        <time>2021-05-18T14:14:27Z</time>
      </trkpt>
      <trkpt lat="41.8790070" lon="-8.8366220">
        <ele>-0.4</ele>
        <time>2021-05-18T14:14:28Z</time>
      </trkpt>
      <trkpt lat="41.8790070" lon="-8.8366220">
        <ele>-0.4</ele>
        <time>2021-05-18T14:14:29Z</time>
      </trkpt>
      <trkpt lat="41.8790070" lon="-8.8366220">
        <ele>-0.4</ele>
        <time>2021-05-18T14:14:30Z</time>
      </trkpt>
      <trkpt lat="41.8790070" lon="-8.8366220">
        <ele>-0.4</ele>
        <time>2021-05-18T14:14:31Z</time>
      </trkpt>
      <trkpt lat="41.8790070" lon="-8.8366220">
        <ele>-0.4</ele>
        <time>2021-05-18T14:14:32Z</time>
      </trkpt>
      <trkpt lat="41.8790070" lon="-8.8366220">
        <ele>-0.4</ele>
        <time>2021-05-18T14:14:33Z</time>
      </trkpt>
      <trkpt lat="41.8790070" lon="-8.8366220">
        <ele>-0.4</ele>
        <time>2021-05-18T14:14:34Z</time>
      </trkpt>
      <trkpt lat="41.8790070" lon="-8.8366220">
        <ele>-0.4</ele>
        <time>2021-05-18T14:14:35Z</time>
      </trkpt>
      <trkpt lat="41.8790070" lon="-8.8366220">
        <ele>-0.4</ele>
        <time>2021-05-18T14:14:36Z</time>
      </trkpt>
      <trkpt lat="41.8790070" lon="-8.8366220">
        <ele>-0.4</ele>
        <time>2021-05-18T14:14:37Z</time>
      </trkpt>
      <trkpt lat="41.8790070" lon="-8.8366220">
        <ele>-0.4</ele>
        <time>2021-05-18T14:14:38Z</time>
      </trkpt>
      <trkpt lat="41.8790070" lon="-8.8366220">
        <ele>-0.4</ele>
        <time>2021-05-18T14:14:39Z</time>
      </trkpt>
      <trkpt lat="41.8790070" lon="-8.8366220">
        <ele>-0.4</ele>
        <time>2021-05-18T14:14:40Z</time>
      </trkpt>
      <trkpt lat="41.8790070" lon="-8.8366220">
        <ele>-0.4</ele>
        <time>2021-05-18T14:14:41Z</time>
      </trkpt>
      <trkpt lat="41.8790070" lon="-8.8366220">
        <ele>-0.4</ele>
        <time>2021-05-18T14:14:42Z</time>
      </trkpt>
      <trkpt lat="41.8790070" lon="-8.8366220">
        <ele>-0.4</ele>
        <time>2021-05-18T14:14:43Z</time>
      </trkpt>
      <trkpt lat="41.8790070" lon="-8.8366220">
        <ele>-0.4</ele>
        <time>2021-05-18T14:14:44Z</time>
      </trkpt>
      <trkpt lat="41.8790070" lon="-8.8366220">
        <ele>-0.4</ele>
        <time>2021-05-18T14:14:45Z</time>
      </trkpt>
      <trkpt lat="41.8790070" lon="-8.8366220">
        <ele>-0.4</ele>
        <time>2021-05-18T14:14:46Z</time>
      </trkpt>
      <trkpt lat="41.8790070" lon="-8.8366220">
        <ele>-0.4</ele>
        <time>2021-05-18T14:14:47Z</time>
      </trkpt>
      <trkpt lat="41.8790070" lon="-8.8366220">
        <ele>-0.4</ele>
        <time>2021-05-18T14:14:48Z</time>
      </trkpt>
      <trkpt lat="41.8790070" lon="-8.8366070">
        <ele>-0.4</ele>
        <time>2021-05-18T14:14:49Z</time>
      </trkpt>
      <trkpt lat="41.8790070" lon="-8.8366060">
        <ele>-0.4</ele>
        <time>2021-05-18T14:14:50Z</time>
      </trkpt>
      <trkpt lat="41.8790070" lon="-8.8366070">
        <ele>-0.4</ele>
        <time>2021-05-18T14:14:51Z</time>
      </trkpt>
      <trkpt lat="41.8790070" lon="-8.8366080">
        <ele>-0.4</ele>
        <time>2021-05-18T14:14:52Z</time>
      </trkpt>
      <trkpt lat="41.8790060" lon="-8.8366080">
        <ele>-0.4</ele>
        <time>2021-05-18T14:14:53Z</time>
      </trkpt>
      <trkpt lat="41.8790060" lon="-8.8366050">
        <ele>-0.4</ele>
        <time>2021-05-18T14:14:54Z</time>
      </trkpt>
      <trkpt lat="41.8790060" lon="-8.8366050">
        <ele>-0.4</ele>
        <time>2021-05-18T14:14:55Z</time>
      </trkpt>
      <trkpt lat="41.8790050" lon="-8.8366030">
        <ele>-0.4</ele>
        <time>2021-05-18T14:14:56Z</time>
      </trkpt>
      <trkpt lat="41.8790050" lon="-8.8366030">
        <ele>-0.4</ele>
        <time>2021-05-18T14:14:57Z</time>
      </trkpt>
      <trkpt lat="41.8790040" lon="-8.8366070">
        <ele>-0.4</ele>
        <time>2021-05-18T14:14:58Z</time>
      </trkpt>
      <trkpt lat="41.8790050" lon="-8.8366090">
        <ele>-0.4</ele>
        <time>2021-05-18T14:14:59Z</time>
      </trkpt>
      <trkpt lat="41.8790040" lon="-8.8366060">
        <ele>-0.4</ele>
        <time>2021-05-18T14:15:00Z</time>
      </trkpt>
      <trkpt lat="41.8790030" lon="-8.8366000">
        <ele>-0.4</ele>
        <time>2021-05-18T14:15:01Z</time>
      </trkpt>
      <trkpt lat="41.8790030" lon="-8.8366000">
        <ele>-0.4</ele>
        <time>2021-05-18T14:15:02Z</time>
      </trkpt>
      <trkpt lat="41.8790030" lon="-8.8366000">
        <ele>-0.4</ele>
        <time>2021-05-18T14:15:03Z</time>
      </trkpt>
      <trkpt lat="41.8790030" lon="-8.8366010">
        <ele>-0.4</ele>
        <time>2021-05-18T14:15:04Z</time>
      </trkpt>
      <trkpt lat="41.8790020" lon="-8.8366010">
        <ele>-0.4</ele>
        <time>2021-05-18T14:15:05Z</time>
      </trkpt>
      <trkpt lat="41.8790020" lon="-8.8366010">
        <ele>-0.4</ele>
        <time>2021-05-18T14:15:06Z</time>
      </trkpt>
      <trkpt lat="41.8790020" lon="-8.8366010">
        <ele>-0.4</ele>
        <time>2021-05-18T14:15:07Z</time>
      </trkpt>
      <trkpt lat="41.8790020" lon="-8.8366020">
        <ele>-0.4</ele>
        <time>2021-05-18T14:15:08Z</time>
      </trkpt>
      <trkpt lat="41.8790020" lon="-8.8366020">
        <ele>-0.4</ele>
        <time>2021-05-18T14:15:09Z</time>
      </trkpt>
      <trkpt lat="41.8790020" lon="-8.8366020">
        <ele>-0.4</ele>
        <time>2021-05-18T14:15:10Z</time>
      </trkpt>
      <trkpt lat="41.8790020" lon="-8.8366020">
        <ele>-0.4</ele>
        <time>2021-05-18T14:15:11Z</time>
      </trkpt>
      <trkpt lat="41.8790020" lon="-8.8366030">
        <ele>-0.4</ele>
        <time>2021-05-18T14:15:12Z</time>
      </trkpt>
      <trkpt lat="41.8790010" lon="-8.8366030">
        <ele>-0.4</ele>
        <time>2021-05-18T14:15:13Z</time>
      </trkpt>
      <trkpt lat="41.8790010" lon="-8.8366030">
        <ele>-0.4</ele>
        <time>2021-05-18T14:15:14Z</time>
      </trkpt>
      <trkpt lat="41.8790010" lon="-8.8366030">
        <ele>-0.4</ele>
        <time>2021-05-18T14:15:15Z</time>
      </trkpt>
      <trkpt lat="41.8790010" lon="-8.8366030">
        <ele>-0.4</ele>
        <time>2021-05-18T14:15:16Z</time>
      </trkpt>
      <trkpt lat="41.8790010" lon="-8.8366040">
        <ele>-0.4</ele>
        <time>2021-05-18T14:15:17Z</time>
      </trkpt>
      <trkpt lat="41.8790010" lon="-8.8366040">
        <ele>-0.4</ele>
        <time>2021-05-18T14:15:18Z</time>
      </trkpt>
      <trkpt lat="41.8790010" lon="-8.8366040">
        <ele>-0.4</ele>
        <time>2021-05-18T14:15:19Z</time>
      </trkpt>
      <trkpt lat="41.8790010" lon="-8.8366040">
        <ele>-0.4</ele>
        <time>2021-05-18T14:15:20Z</time>
      </trkpt>
      <trkpt lat="41.8790000" lon="-8.8366050">
        <ele>-0.4</ele>
        <time>2021-05-18T14:15:21Z</time>
      </trkpt>
      <trkpt lat="41.8790000" lon="-8.8366050">
        <ele>-0.4</ele>
        <time>2021-05-18T14:15:22Z</time>
      </trkpt>
      <trkpt lat="41.8790000" lon="-8.8366050">
        <ele>-0.4</ele>
        <time>2021-05-18T14:15:23Z</time>
      </trkpt>
      <trkpt lat="41.8790000" lon="-8.8366050">
        <ele>-0.4</ele>
        <time>2021-05-18T14:15:24Z</time>
      </trkpt>
      <trkpt lat="41.8790000" lon="-8.8366050">
        <ele>-0.4</ele>
        <time>2021-05-18T14:15:25Z</time>
      </trkpt>
      <trkpt lat="41.8790000" lon="-8.8366060">
        <ele>-0.4</ele>
        <time>2021-05-18T14:15:26Z</time>
      </trkpt>
      <trkpt lat="41.8790000" lon="-8.8366060">
        <ele>-0.4</ele>
        <time>2021-05-18T14:15:27Z</time>
      </trkpt>
      <trkpt lat="41.8789990" lon="-8.8366060">
        <ele>-0.4</ele>
        <time>2021-05-18T14:15:28Z</time>
      </trkpt>
      <trkpt lat="41.8789990" lon="-8.8366060">
        <ele>-0.4</ele>
        <time>2021-05-18T14:15:29Z</time>
      </trkpt>
      <trkpt lat="41.8789990" lon="-8.8366070">
        <ele>-0.4</ele>
        <time>2021-05-18T14:15:30Z</time>
      </trkpt>
      <trkpt lat="41.8789990" lon="-8.8366070">
        <ele>-0.4</ele>
        <time>2021-05-18T14:15:31Z</time>
      </trkpt>
      <trkpt lat="41.8789990" lon="-8.8366070">
        <ele>-0.4</ele>
        <time>2021-05-18T14:15:32Z</time>
      </trkpt>
      <trkpt lat="41.8789990" lon="-8.8366070">
        <ele>-0.4</ele>
        <time>2021-05-18T14:15:33Z</time>
      </trkpt>
      <trkpt lat="41.8789990" lon="-8.8366080">
        <ele>-0.4</ele>
        <time>2021-05-18T14:15:34Z</time>
      </trkpt>
      <trkpt lat="41.8789990" lon="-8.8366080">
        <ele>-0.4</ele>
        <time>2021-05-18T14:15:35Z</time>
      </trkpt>
      <trkpt lat="41.8789980" lon="-8.8366080">
        <ele>-0.4</ele>
        <time>2021-05-18T14:15:36Z</time>
      </trkpt>
      <trkpt lat="41.8789980" lon="-8.8366080">
        <ele>-0.4</ele>
        <time>2021-05-18T14:15:37Z</time>
      </trkpt>
      <trkpt lat="41.8789980" lon="-8.8366080">
        <ele>-0.4</ele>
        <time>2021-05-18T14:15:38Z</time>
      </trkpt>
      <trkpt lat="41.8789980" lon="-8.8366090">
        <ele>-0.4</ele>
        <time>2021-05-18T14:15:39Z</time>
      </trkpt>
      <trkpt lat="41.8789980" lon="-8.8366090">
        <ele>-0.4</ele>
        <time>2021-05-18T14:15:40Z</time>
      </trkpt>
      <trkpt lat="41.8789980" lon="-8.8366090">
        <ele>-0.4</ele>
        <time>2021-05-18T14:15:41Z</time>
      </trkpt>
      <trkpt lat="41.8789980" lon="-8.8366090">
        <ele>-0.4</ele>
        <time>2021-05-18T14:15:42Z</time>
      </trkpt>
      <trkpt lat="41.8789970" lon="-8.8366100">
        <ele>-0.4</ele>
        <time>2021-05-18T14:15:43Z</time>
      </trkpt>
      <trkpt lat="41.8789970" lon="-8.8366100">
        <ele>-0.4</ele>
        <time>2021-05-18T14:15:44Z</time>
      </trkpt>
      <trkpt lat="41.8789970" lon="-8.8366100">
        <ele>-0.4</ele>
        <time>2021-05-18T14:15:45Z</time>
      </trkpt>
      <trkpt lat="41.8789970" lon="-8.8366100">
        <ele>-0.4</ele>
        <time>2021-05-18T14:15:46Z</time>
      </trkpt>
      <trkpt lat="41.8789970" lon="-8.8366100">
        <ele>-0.4</ele>
        <time>2021-05-18T14:15:47Z</time>
      </trkpt>
      <trkpt lat="41.8789970" lon="-8.8366110">
        <ele>-0.4</ele>
        <time>2021-05-18T14:15:48Z</time>
      </trkpt>
      <trkpt lat="41.8789970" lon="-8.8366110">
        <ele>-0.4</ele>
        <time>2021-05-18T14:15:49Z</time>
      </trkpt>
      <trkpt lat="41.8789970" lon="-8.8366110">
        <ele>-0.4</ele>
        <time>2021-05-18T14:15:50Z</time>
      </trkpt>
      <trkpt lat="41.8789960" lon="-8.8366110">
        <ele>-0.4</ele>
        <time>2021-05-18T14:15:51Z</time>
      </trkpt>
      <trkpt lat="41.8789960" lon="-8.8366120">
        <ele>-0.4</ele>
        <time>2021-05-18T14:15:52Z</time>
      </trkpt>
      <trkpt lat="41.8789960" lon="-8.8366120">
        <ele>-0.4</ele>
        <time>2021-05-18T14:15:53Z</time>
      </trkpt>
      <trkpt lat="41.8789960" lon="-8.8366120">
        <ele>-0.4</ele>
        <time>2021-05-18T14:15:54Z</time>
      </trkpt>
      <trkpt lat="41.8789960" lon="-8.8366120">
        <ele>-0.4</ele>
        <time>2021-05-18T14:15:55Z</time>
      </trkpt>
      <trkpt lat="41.8789960" lon="-8.8366130">
        <ele>-0.4</ele>
        <time>2021-05-18T14:15:56Z</time>
      </trkpt>
      <trkpt lat="41.8789960" lon="-8.8366130">
        <ele>-0.4</ele>
        <time>2021-05-18T14:15:57Z</time>
      </trkpt>
      <trkpt lat="41.8789960" lon="-8.8366130">
        <ele>-0.4</ele>
        <time>2021-05-18T14:15:58Z</time>
      </trkpt>
      <trkpt lat="41.8789950" lon="-8.8366130">
        <ele>-0.4</ele>
        <time>2021-05-18T14:15:59Z</time>
      </trkpt>
      <trkpt lat="41.8789950" lon="-8.8366130">
        <ele>-0.4</ele>
        <time>2021-05-18T14:16:00Z</time>
      </trkpt>
      <trkpt lat="41.8789950" lon="-8.8366140">
        <ele>-0.4</ele>
        <time>2021-05-18T14:16:01Z</time>
      </trkpt>
      <trkpt lat="41.8789950" lon="-8.8366140">
        <ele>-0.4</ele>
        <time>2021-05-18T14:16:02Z</time>
      </trkpt>
      <trkpt lat="41.8789950" lon="-8.8366140">
        <ele>-0.4</ele>
        <time>2021-05-18T14:16:03Z</time>
      </trkpt>
      <trkpt lat="41.8789950" lon="-8.8366140">
        <ele>-0.4</ele>
        <time>2021-05-18T14:16:04Z</time>
      </trkpt>
      <trkpt lat="41.8789950" lon="-8.8366150">
        <ele>-0.4</ele>
        <time>2021-05-18T14:16:05Z</time>
      </trkpt>
      <trkpt lat="41.8789940" lon="-8.8366150">
        <ele>-0.4</ele>
        <time>2021-05-18T14:16:06Z</time>
      </trkpt>
      <trkpt lat="41.8789940" lon="-8.8366150">
        <ele>-0.4</ele>
        <time>2021-05-18T14:16:07Z</time>
      </trkpt>
      <trkpt lat="41.8789940" lon="-8.8366150">
        <ele>-0.4</ele>
        <time>2021-05-18T14:16:08Z</time>
      </trkpt>
      <trkpt lat="41.8789940" lon="-8.8366160">
        <ele>-0.4</ele>
        <time>2021-05-18T14:16:09Z</time>
      </trkpt>
      <trkpt lat="41.8789940" lon="-8.8366160">
        <ele>-0.4</ele>
        <time>2021-05-18T14:16:10Z</time>
      </trkpt>
      <trkpt lat="41.8789940" lon="-8.8366160">
        <ele>-0.4</ele>
        <time>2021-05-18T14:16:11Z</time>
      </trkpt>
      <trkpt lat="41.8789940" lon="-8.8366160">
        <ele>-0.4</ele>
        <time>2021-05-18T14:16:12Z</time>
      </trkpt>
      <trkpt lat="41.8789940" lon="-8.8366160">
        <ele>-0.4</ele>
        <time>2021-05-18T14:16:14Z</time>
      </trkpt>
      <trkpt lat="41.8789930" lon="-8.8366170">
        <ele>-0.4</ele>
        <time>2021-05-18T14:16:15Z</time>
      </trkpt>
      <trkpt lat="41.8789930" lon="-8.8366170">
        <ele>-0.4</ele>
        <time>2021-05-18T14:16:16Z</time>
      </trkpt>
      <trkpt lat="41.8789930" lon="-8.8366170">
        <ele>-0.4</ele>
        <time>2021-05-18T14:16:17Z</time>
      </trkpt>
      <trkpt lat="41.8789930" lon="-8.8366170">
        <ele>-0.4</ele>
        <time>2021-05-18T14:16:18Z</time>
      </trkpt>
      <trkpt lat="41.8789930" lon="-8.8366180">
        <ele>-0.4</ele>
        <time>2021-05-18T14:16:19Z</time>
      </trkpt>
      <trkpt lat="41.8789930" lon="-8.8366180">
        <ele>-0.4</ele>
        <time>2021-05-18T14:16:20Z</time>
      </trkpt>
      <trkpt lat="41.8789930" lon="-8.8366180">
        <ele>-0.4</ele>
        <time>2021-05-18T14:16:21Z</time>
      </trkpt>
      <trkpt lat="41.8789920" lon="-8.8366180">
        <ele>-0.4</ele>
        <time>2021-05-18T14:16:22Z</time>
      </trkpt>
      <trkpt lat="41.8789920" lon="-8.8366180">
        <ele>-0.4</ele>
        <time>2021-05-18T14:16:23Z</time>
      </trkpt>
      <trkpt lat="41.8789920" lon="-8.8366190">
        <ele>-0.4</ele>
        <time>2021-05-18T14:16:24Z</time>
      </trkpt>
      <trkpt lat="41.8789920" lon="-8.8366190">
        <ele>-0.4</ele>
        <time>2021-05-18T14:16:25Z</time>
      </trkpt>
      <trkpt lat="41.8789920" lon="-8.8366190">
        <ele>-0.4</ele>
        <time>2021-05-18T14:16:26Z</time>
      </trkpt>
      <trkpt lat="41.8789920" lon="-8.8366190">
        <ele>-0.4</ele>
        <time>2021-05-18T14:16:27Z</time>
      </trkpt>
      <trkpt lat="41.8789920" lon="-8.8366200">
        <ele>-0.4</ele>
        <time>2021-05-18T14:16:28Z</time>
      </trkpt>
      <trkpt lat="41.8789920" lon="-8.8366200">
        <ele>-0.4</ele>
        <time>2021-05-18T14:16:29Z</time>
      </trkpt>
      <trkpt lat="41.8789910" lon="-8.8366200">
        <ele>-0.4</ele>
        <time>2021-05-18T14:16:30Z</time>
      </trkpt>
      <trkpt lat="41.8789910" lon="-8.8366200">
        <ele>-0.4</ele>
        <time>2021-05-18T14:16:31Z</time>
      </trkpt>
      <trkpt lat="41.8789910" lon="-8.8366210">
        <ele>-0.4</ele>
        <time>2021-05-18T14:16:32Z</time>
      </trkpt>
      <trkpt lat="41.8789910" lon="-8.8366210">
        <ele>-0.4</ele>
        <time>2021-05-18T14:16:33Z</time>
      </trkpt>
      <trkpt lat="41.8789910" lon="-8.8366210">
        <ele>-0.4</ele>
        <time>2021-05-18T14:16:34Z</time>
      </trkpt>
      <trkpt lat="41.8789910" lon="-8.8366210">
        <ele>-0.4</ele>
        <time>2021-05-18T14:16:35Z</time>
      </trkpt>
      <trkpt lat="41.8789910" lon="-8.8366210">
        <ele>-0.4</ele>
        <time>2021-05-18T14:16:36Z</time>
      </trkpt>
      <trkpt lat="41.8789910" lon="-8.8366220">
        <ele>-0.4</ele>
        <time>2021-05-18T14:16:37Z</time>
      </trkpt>
      <trkpt lat="41.8789900" lon="-8.8366220">
        <ele>-0.4</ele>
        <time>2021-05-18T14:16:38Z</time>
      </trkpt>
      <trkpt lat="41.8789900" lon="-8.8366220">
        <ele>-0.4</ele>
        <time>2021-05-18T14:16:39Z</time>
      </trkpt>
      <trkpt lat="41.8789900" lon="-8.8366220">
        <ele>-0.4</ele>
        <time>2021-05-18T14:16:40Z</time>
      </trkpt>
      <trkpt lat="41.8789900" lon="-8.8366230">
        <ele>-0.4</ele>
        <time>2021-05-18T14:16:41Z</time>
      </trkpt>
      <trkpt lat="41.8789900" lon="-8.8366230">
        <ele>-0.4</ele>
        <time>2021-05-18T14:16:42Z</time>
      </trkpt>
      <trkpt lat="41.8789900" lon="-8.8366230">
        <ele>-0.4</ele>
        <time>2021-05-18T14:16:43Z</time>
      </trkpt>
      <trkpt lat="41.8789900" lon="-8.8366230">
        <ele>-0.4</ele>
        <time>2021-05-18T14:16:44Z</time>
      </trkpt>
      <trkpt lat="41.8789890" lon="-8.8366230">
        <ele>-0.4</ele>
        <time>2021-05-18T14:16:45Z</time>
      </trkpt>
      <trkpt lat="41.8789890" lon="-8.8366240">
        <ele>-0.4</ele>
        <time>2021-05-18T14:16:46Z</time>
      </trkpt>
      <trkpt lat="41.8789890" lon="-8.8366240">
        <ele>-0.4</ele>
        <time>2021-05-18T14:16:47Z</time>
      </trkpt>
      <trkpt lat="41.8789890" lon="-8.8366240">
        <ele>-0.4</ele>
        <time>2021-05-18T14:16:48Z</time>
      </trkpt>
      <trkpt lat="41.8789890" lon="-8.8366240">
        <ele>-0.4</ele>
        <time>2021-05-18T14:16:49Z</time>
      </trkpt>
      <trkpt lat="41.8789890" lon="-8.8366250">
        <ele>-0.4</ele>
        <time>2021-05-18T14:16:50Z</time>
      </trkpt>
      <trkpt lat="41.8789890" lon="-8.8366250">
        <ele>-0.4</ele>
        <time>2021-05-18T14:16:51Z</time>
      </trkpt>
      <trkpt lat="41.8789890" lon="-8.8366250">
        <ele>-0.4</ele>
        <time>2021-05-18T14:16:52Z</time>
      </trkpt>
      <trkpt lat="41.8789880" lon="-8.8366250">
        <ele>-0.4</ele>
        <time>2021-05-18T14:16:53Z</time>
      </trkpt>
      <trkpt lat="41.8789880" lon="-8.8366260">
        <ele>-0.4</ele>
        <time>2021-05-18T14:16:54Z</time>
      </trkpt>
      <trkpt lat="41.8789880" lon="-8.8366260">
        <ele>-0.4</ele>
        <time>2021-05-18T14:16:55Z</time>
      </trkpt>
      <trkpt lat="41.8789880" lon="-8.8366260">
        <ele>-0.4</ele>
        <time>2021-05-18T14:16:56Z</time>
      </trkpt>
      <trkpt lat="41.8789880" lon="-8.8366260">
        <ele>-0.4</ele>
        <time>2021-05-18T14:16:57Z</time>
      </trkpt>
      <trkpt lat="41.8789880" lon="-8.8366260">
        <ele>-0.4</ele>
        <time>2021-05-18T14:16:58Z</time>
      </trkpt>
      <trkpt lat="41.8789880" lon="-8.8366270">
        <ele>-0.4</ele>
        <time>2021-05-18T14:16:59Z</time>
      </trkpt>
      <trkpt lat="41.8789870" lon="-8.8366270">
        <ele>-0.4</ele>
        <time>2021-05-18T14:17:00Z</time>
      </trkpt>
      <trkpt lat="41.8789870" lon="-8.8366270">
        <ele>-0.4</ele>
        <time>2021-05-18T14:17:01Z</time>
      </trkpt>
      <trkpt lat="41.8789870" lon="-8.8366270">
        <ele>-0.4</ele>
        <time>2021-05-18T14:17:02Z</time>
      </trkpt>
      <trkpt lat="41.8789870" lon="-8.8366280">
        <ele>-0.4</ele>
        <time>2021-05-18T14:17:03Z</time>
      </trkpt>
      <trkpt lat="41.8789870" lon="-8.8366280">
        <ele>-0.4</ele>
        <time>2021-05-18T14:17:04Z</time>
      </trkpt>
      <trkpt lat="41.8789870" lon="-8.8366280">
        <ele>-0.4</ele>
        <time>2021-05-18T14:17:05Z</time>
      </trkpt>
      <trkpt lat="41.8789870" lon="-8.8366280">
        <ele>-0.4</ele>
        <time>2021-05-18T14:17:06Z</time>
      </trkpt>
      <trkpt lat="41.8789870" lon="-8.8366290">
        <ele>-0.4</ele>
        <time>2021-05-18T14:17:07Z</time>
      </trkpt>
      <trkpt lat="41.8789860" lon="-8.8366290">
        <ele>-0.4</ele>
        <time>2021-05-18T14:17:08Z</time>
      </trkpt>
      <trkpt lat="41.8789860" lon="-8.8366290">
        <ele>-0.4</ele>
        <time>2021-05-18T14:17:09Z</time>
      </trkpt>
      <trkpt lat="41.8789860" lon="-8.8366290">
        <ele>-0.4</ele>
        <time>2021-05-18T14:17:10Z</time>
      </trkpt>
      <trkpt lat="41.8789860" lon="-8.8366290">
        <ele>-0.4</ele>
        <time>2021-05-18T14:17:11Z</time>
      </trkpt>
      <trkpt lat="41.8789860" lon="-8.8366300">
        <ele>-0.4</ele>
        <time>2021-05-18T14:17:12Z</time>
      </trkpt>
      <trkpt lat="41.8789860" lon="-8.8366300">
        <ele>-0.4</ele>
        <time>2021-05-18T14:17:13Z</time>
      </trkpt>
      <trkpt lat="41.8789860" lon="-8.8366300">
        <ele>-0.4</ele>
        <time>2021-05-18T14:17:14Z</time>
      </trkpt>
      <trkpt lat="41.8789860" lon="-8.8366300">
        <ele>-0.4</ele>
        <time>2021-05-18T14:17:15Z</time>
      </trkpt>
      <trkpt lat="41.8789850" lon="-8.8366310">
        <ele>-0.4</ele>
        <time>2021-05-18T14:17:16Z</time>
      </trkpt>
      <trkpt lat="41.8789850" lon="-8.8366310">
        <ele>-0.4</ele>
        <time>2021-05-18T14:17:17Z</time>
      </trkpt>
      <trkpt lat="41.8789850" lon="-8.8366310">
        <ele>-0.4</ele>
        <time>2021-05-18T14:17:18Z</time>
      </trkpt>
      <trkpt lat="41.8789850" lon="-8.8366310">
        <ele>-0.4</ele>
        <time>2021-05-18T14:17:19Z</time>
      </trkpt>
      <trkpt lat="41.8789850" lon="-8.8366310">
        <ele>-0.4</ele>
        <time>2021-05-18T14:17:20Z</time>
      </trkpt>
      <trkpt lat="41.8789850" lon="-8.8366320">
        <ele>-0.4</ele>
        <time>2021-05-18T14:17:21Z</time>
      </trkpt>
      <trkpt lat="41.8789850" lon="-8.8366320">
        <ele>-0.4</ele>
        <time>2021-05-18T14:17:22Z</time>
      </trkpt>
      <trkpt lat="41.8789840" lon="-8.8366320">
        <ele>-0.4</ele>
        <time>2021-05-18T14:17:23Z</time>
      </trkpt>
      <trkpt lat="41.8789840" lon="-8.8366320">
        <ele>-0.4</ele>
        <time>2021-05-18T14:17:24Z</time>
      </trkpt>
      <trkpt lat="41.8789840" lon="-8.8366330">
        <ele>-0.4</ele>
        <time>2021-05-18T14:17:25Z</time>
      </trkpt>
      <trkpt lat="41.8789840" lon="-8.8366330">
        <ele>-0.4</ele>
        <time>2021-05-18T14:17:26Z</time>
      </trkpt>
      <trkpt lat="41.8789840" lon="-8.8366330">
        <ele>-0.4</ele>
        <time>2021-05-18T14:17:27Z</time>
      </trkpt>
      <trkpt lat="41.8789840" lon="-8.8366330">
        <ele>-0.4</ele>
        <time>2021-05-18T14:17:28Z</time>
      </trkpt>
      <trkpt lat="41.8789840" lon="-8.8366340">
        <ele>-0.4</ele>
        <time>2021-05-18T14:17:29Z</time>
      </trkpt>
      <trkpt lat="41.8789840" lon="-8.8366340">
        <ele>-0.4</ele>
        <time>2021-05-18T14:17:30Z</time>
      </trkpt>
      <trkpt lat="41.8789830" lon="-8.8366340">
        <ele>-0.4</ele>
        <time>2021-05-18T14:17:31Z</time>
      </trkpt>
      <trkpt lat="41.8789830" lon="-8.8366340">
        <ele>-0.4</ele>
        <time>2021-05-18T14:17:32Z</time>
      </trkpt>
      <trkpt lat="41.8789830" lon="-8.8366340">
        <ele>-0.4</ele>
        <time>2021-05-18T14:17:33Z</time>
      </trkpt>
      <trkpt lat="41.8789830" lon="-8.8366350">
        <ele>-0.4</ele>
        <time>2021-05-18T14:17:34Z</time>
      </trkpt>
      <trkpt lat="41.8789830" lon="-8.8366350">
        <ele>-0.4</ele>
        <time>2021-05-18T14:17:35Z</time>
      </trkpt>
      <trkpt lat="41.8789830" lon="-8.8366350">
        <ele>-0.4</ele>
        <time>2021-05-18T14:17:36Z</time>
      </trkpt>
      <trkpt lat="41.8789830" lon="-8.8366350">
        <ele>-0.4</ele>
        <time>2021-05-18T14:17:37Z</time>
      </trkpt>
      <trkpt lat="41.8789820" lon="-8.8366360">
        <ele>-0.4</ele>
        <time>2021-05-18T14:17:38Z</time>
      </trkpt>
      <trkpt lat="41.8789820" lon="-8.8366360">
        <ele>-0.4</ele>
        <time>2021-05-18T14:17:39Z</time>
      </trkpt>
      <trkpt lat="41.8789820" lon="-8.8366360">
        <ele>-0.4</ele>
        <time>2021-05-18T14:17:40Z</time>
      </trkpt>
      <trkpt lat="41.8789820" lon="-8.8366360">
        <ele>-0.4</ele>
        <time>2021-05-18T14:17:41Z</time>
      </trkpt>
      <trkpt lat="41.8789820" lon="-8.8366360">
        <ele>-0.4</ele>
        <time>2021-05-18T14:17:42Z</time>
      </trkpt>
      <trkpt lat="41.8789820" lon="-8.8366370">
        <ele>-0.4</ele>
        <time>2021-05-18T14:17:43Z</time>
      </trkpt>
      <trkpt lat="41.8789820" lon="-8.8366370">
        <ele>-0.4</ele>
        <time>2021-05-18T14:17:44Z</time>
      </trkpt>
      <trkpt lat="41.8789820" lon="-8.8366370">
        <ele>-0.4</ele>
        <time>2021-05-18T14:17:45Z</time>
      </trkpt>
      <trkpt lat="41.8789810" lon="-8.8366370">
        <ele>-0.4</ele>
        <time>2021-05-18T14:17:46Z</time>
      </trkpt>
      <trkpt lat="41.8789810" lon="-8.8366380">
        <ele>-0.4</ele>
        <time>2021-05-18T14:17:47Z</time>
      </trkpt>
      <trkpt lat="41.8789810" lon="-8.8366380">
        <ele>-0.4</ele>
        <time>2021-05-18T14:17:48Z</time>
      </trkpt>
      <trkpt lat="41.8789810" lon="-8.8366380">
        <ele>-0.4</ele>
        <time>2021-05-18T14:17:49Z</time>
      </trkpt>
      <trkpt lat="41.8789810" lon="-8.8366380">
        <ele>-0.4</ele>
        <time>2021-05-18T14:17:50Z</time>
      </trkpt>
      <trkpt lat="41.8789810" lon="-8.8366390">
        <ele>-0.4</ele>
        <time>2021-05-18T14:17:51Z</time>
      </trkpt>
      <trkpt lat="41.8789810" lon="-8.8366390">
        <ele>-0.4</ele>
        <time>2021-05-18T14:17:52Z</time>
      </trkpt>
      <trkpt lat="41.8789810" lon="-8.8366390">
        <ele>-0.4</ele>
        <time>2021-05-18T14:17:53Z</time>
      </trkpt>
      <trkpt lat="41.8789800" lon="-8.8366390">
        <ele>-0.4</ele>
        <time>2021-05-18T14:17:54Z</time>
      </trkpt>
      <trkpt lat="41.8789800" lon="-8.8366390">
        <ele>-0.4</ele>
        <time>2021-05-18T14:17:55Z</time>
      </trkpt>
      <trkpt lat="41.8789800" lon="-8.8366400">
        <ele>-0.4</ele>
        <time>2021-05-18T14:17:56Z</time>
      </trkpt>
      <trkpt lat="41.8789800" lon="-8.8366400">
        <ele>-0.4</ele>
        <time>2021-05-18T14:17:57Z</time>
      </trkpt>
      <trkpt lat="41.8789800" lon="-8.8366400">
        <ele>-0.4</ele>
        <time>2021-05-18T14:17:58Z</time>
      </trkpt>
      <trkpt lat="41.8789800" lon="-8.8366400">
        <ele>-0.4</ele>
        <time>2021-05-18T14:17:59Z</time>
      </trkpt>
      <trkpt lat="41.8789800" lon="-8.8366410">
        <ele>-0.4</ele>
        <time>2021-05-18T14:18:00Z</time>
      </trkpt>
      <trkpt lat="41.8789790" lon="-8.8366410">
        <ele>-0.4</ele>
        <time>2021-05-18T14:18:01Z</time>
      </trkpt>
      <trkpt lat="41.8789790" lon="-8.8366410">
        <ele>-0.4</ele>
        <time>2021-05-18T14:18:02Z</time>
      </trkpt>
      <trkpt lat="41.8789790" lon="-8.8366410">
        <ele>-0.4</ele>
        <time>2021-05-18T14:18:03Z</time>
      </trkpt>
      <trkpt lat="41.8789790" lon="-8.8366420">
        <ele>-0.4</ele>
        <time>2021-05-18T14:18:04Z</time>
      </trkpt>
      <trkpt lat="41.8789790" lon="-8.8366420">
        <ele>-0.4</ele>
        <time>2021-05-18T14:18:05Z</time>
      </trkpt>
      <trkpt lat="41.8789790" lon="-8.8366420">
        <ele>-0.4</ele>
        <time>2021-05-18T14:18:06Z</time>
      </trkpt>
      <trkpt lat="41.8789790" lon="-8.8366420">
        <ele>-0.4</ele>
        <time>2021-05-18T14:18:07Z</time>
      </trkpt>
      <trkpt lat="41.8789790" lon="-8.8366420">
        <ele>-0.4</ele>
        <time>2021-05-18T14:18:08Z</time>
      </trkpt>
      <trkpt lat="41.8789780" lon="-8.8366430">
        <ele>-0.4</ele>
        <time>2021-05-18T14:18:09Z</time>
      </trkpt>
      <trkpt lat="41.8789780" lon="-8.8366430">
        <ele>-0.4</ele>
        <time>2021-05-18T14:18:10Z</time>
      </trkpt>
      <trkpt lat="41.8789780" lon="-8.8366430">
        <ele>-0.4</ele>
        <time>2021-05-18T14:18:11Z</time>
      </trkpt>
      <trkpt lat="41.8789780" lon="-8.8366430">
        <ele>-0.4</ele>
        <time>2021-05-18T14:18:13Z</time>
      </trkpt>
      <trkpt lat="41.8789780" lon="-8.8366440">
        <ele>-0.4</ele>
        <time>2021-05-18T14:18:14Z</time>
      </trkpt>
      <trkpt lat="41.8789780" lon="-8.8366440">
        <ele>-0.4</ele>
        <time>2021-05-18T14:18:15Z</time>
      </trkpt>
      <trkpt lat="41.8789780" lon="-8.8366440">
        <ele>-0.4</ele>
        <time>2021-05-18T14:18:16Z</time>
      </trkpt>
      <trkpt lat="41.8789770" lon="-8.8366440">
        <ele>-0.4</ele>
        <time>2021-05-18T14:18:17Z</time>
      </trkpt>
      <trkpt lat="41.8789770" lon="-8.8366440">
        <ele>-0.4</ele>
        <time>2021-05-18T14:18:18Z</time>
      </trkpt>
      <trkpt lat="41.8789770" lon="-8.8366450">
        <ele>-0.4</ele>
        <time>2021-05-18T14:18:19Z</time>
      </trkpt>
      <trkpt lat="41.8789770" lon="-8.8366450">
        <ele>-0.4</ele>
        <time>2021-05-18T14:18:20Z</time>
      </trkpt>
      <trkpt lat="41.8789770" lon="-8.8366450">
        <ele>-0.4</ele>
        <time>2021-05-18T14:18:21Z</time>
      </trkpt>
      <trkpt lat="41.8789770" lon="-8.8366450">
        <ele>-0.4</ele>
        <time>2021-05-18T14:18:22Z</time>
      </trkpt>
      <trkpt lat="41.8789770" lon="-8.8366460">
        <ele>-0.4</ele>
        <time>2021-05-18T14:18:23Z</time>
      </trkpt>
      <trkpt lat="41.8789770" lon="-8.8366460">
        <ele>-0.4</ele>
        <time>2021-05-18T14:18:24Z</time>
      </trkpt>
      <trkpt lat="41.8789760" lon="-8.8366460">
        <ele>-0.4</ele>
        <time>2021-05-18T14:18:25Z</time>
      </trkpt>
      <trkpt lat="41.8789760" lon="-8.8366460">
        <ele>-0.4</ele>
        <time>2021-05-18T14:18:26Z</time>
      </trkpt>
      <trkpt lat="41.8789760" lon="-8.8366470">
        <ele>-0.4</ele>
        <time>2021-05-18T14:18:27Z</time>
      </trkpt>
      <trkpt lat="41.8789760" lon="-8.8366470">
        <ele>-0.4</ele>
        <time>2021-05-18T14:18:28Z</time>
      </trkpt>
      <trkpt lat="41.8789760" lon="-8.8366470">
        <ele>-0.4</ele>
        <time>2021-05-18T14:18:29Z</time>
      </trkpt>
      <trkpt lat="41.8789760" lon="-8.8366470">
        <ele>-0.4</ele>
        <time>2021-05-18T14:18:30Z</time>
      </trkpt>
      <trkpt lat="41.8789760" lon="-8.8366470">
        <ele>-0.4</ele>
        <time>2021-05-18T14:18:31Z</time>
      </trkpt>
      <trkpt lat="41.8789760" lon="-8.8366480">
        <ele>-0.4</ele>
        <time>2021-05-18T14:18:32Z</time>
      </trkpt>
      <trkpt lat="41.8789750" lon="-8.8366480">
        <ele>-0.4</ele>
        <time>2021-05-18T14:18:33Z</time>
      </trkpt>
      <trkpt lat="41.8789750" lon="-8.8366480">
        <ele>-0.4</ele>
        <time>2021-05-18T14:18:34Z</time>
      </trkpt>
      <trkpt lat="41.8789750" lon="-8.8366480">
        <ele>-0.4</ele>
        <time>2021-05-18T14:18:35Z</time>
      </trkpt>
      <trkpt lat="41.8789750" lon="-8.8366490">
        <ele>-0.4</ele>
        <time>2021-05-18T14:18:36Z</time>
      </trkpt>
      <trkpt lat="41.8789750" lon="-8.8366490">
        <ele>-0.4</ele>
        <time>2021-05-18T14:18:37Z</time>
      </trkpt>
      <trkpt lat="41.8789750" lon="-8.8366490">
        <ele>-0.4</ele>
        <time>2021-05-18T14:18:38Z</time>
      </trkpt>
      <trkpt lat="41.8789750" lon="-8.8366490">
        <ele>-0.4</ele>
        <time>2021-05-18T14:18:39Z</time>
      </trkpt>
      <trkpt lat="41.8789740" lon="-8.8366490">
        <ele>-0.4</ele>
        <time>2021-05-18T14:18:40Z</time>
      </trkpt>
      <trkpt lat="41.8789740" lon="-8.8366500">
        <ele>-0.4</ele>
        <time>2021-05-18T14:18:41Z</time>
      </trkpt>
      <trkpt lat="41.8789740" lon="-8.8366500">
        <ele>-0.4</ele>
        <time>2021-05-18T14:18:42Z</time>
      </trkpt>
      <trkpt lat="41.8789740" lon="-8.8366500">
        <ele>-0.4</ele>
        <time>2021-05-18T14:18:43Z</time>
      </trkpt>
      <trkpt lat="41.8789740" lon="-8.8366500">
        <ele>-0.4</ele>
        <time>2021-05-18T14:18:44Z</time>
      </trkpt>
      <trkpt lat="41.8789740" lon="-8.8366510">
        <ele>-0.4</ele>
        <time>2021-05-18T14:18:45Z</time>
      </trkpt>
      <trkpt lat="41.8789740" lon="-8.8366510">
        <ele>-0.4</ele>
        <time>2021-05-18T14:18:46Z</time>
      </trkpt>
      <trkpt lat="41.8789740" lon="-8.8366510">
        <ele>-0.4</ele>
        <time>2021-05-18T14:18:47Z</time>
      </trkpt>
      <trkpt lat="41.8789730" lon="-8.8366510">
        <ele>-0.4</ele>
        <time>2021-05-18T14:18:48Z</time>
      </trkpt>
      <trkpt lat="41.8789730" lon="-8.8366520">
        <ele>-0.4</ele>
        <time>2021-05-18T14:18:49Z</time>
      </trkpt>
      <trkpt lat="41.8789730" lon="-8.8366520">
        <ele>-0.4</ele>
        <time>2021-05-18T14:18:50Z</time>
      </trkpt>
      <trkpt lat="41.8789730" lon="-8.8366520">
        <ele>-0.4</ele>
        <time>2021-05-18T14:18:51Z</time>
      </trkpt>
      <trkpt lat="41.8789710" lon="-8.8366500">
        <ele>-0.4</ele>
        <time>2021-05-18T14:18:52Z</time>
      </trkpt>
      <trkpt lat="41.8789670" lon="-8.8366490">
        <ele>-0.4</ele>
        <time>2021-05-18T14:18:53Z</time>
      </trkpt>
      <trkpt lat="41.8789640" lon="-8.8366480">
        <ele>-0.4</ele>
        <time>2021-05-18T14:18:54Z</time>
      </trkpt>
      <trkpt lat="41.8789610" lon="-8.8366470">
        <ele>-0.4</ele>
        <time>2021-05-18T14:18:55Z</time>
      </trkpt>
      <trkpt lat="41.8789570" lon="-8.8366460">
        <ele>-0.4</ele>
        <time>2021-05-18T14:18:56Z</time>
      </trkpt>
      <trkpt lat="41.8789540" lon="-8.8366450">
        <ele>-0.3</ele>
        <time>2021-05-18T14:18:57Z</time>
      </trkpt>
      <trkpt lat="41.8789510" lon="-8.8366440">
        <ele>-0.3</ele>
        <time>2021-05-18T14:18:58Z</time>
      </trkpt>
      <trkpt lat="41.8789470" lon="-8.8366430">
        <ele>-0.3</ele>
        <time>2021-05-18T14:18:59Z</time>
      </trkpt>
      <trkpt lat="41.8789440" lon="-8.8366420">
        <ele>-0.3</ele>
        <time>2021-05-18T14:19:00Z</time>
      </trkpt>
      <trkpt lat="41.8789400" lon="-8.8366410">
        <ele>-0.3</ele>
        <time>2021-05-18T14:19:01Z</time>
      </trkpt>
      <trkpt lat="41.8789370" lon="-8.8366400">
        <ele>-0.3</ele>
        <time>2021-05-18T14:19:02Z</time>
      </trkpt>
      <trkpt lat="41.8789340" lon="-8.8366390">
        <ele>-0.3</ele>
        <time>2021-05-18T14:19:03Z</time>
      </trkpt>
      <trkpt lat="41.8789300" lon="-8.8366380">
        <ele>-0.3</ele>
        <time>2021-05-18T14:19:04Z</time>
      </trkpt>
      <trkpt lat="41.8789270" lon="-8.8366370">
        <ele>-0.3</ele>
        <time>2021-05-18T14:19:05Z</time>
      </trkpt>
      <trkpt lat="41.8789240" lon="-8.8366360">
        <ele>-0.3</ele>
        <time>2021-05-18T14:19:06Z</time>
      </trkpt>
      <trkpt lat="41.8789200" lon="-8.8366350">
        <ele>-0.2</ele>
        <time>2021-05-18T14:19:07Z</time>
      </trkpt>
      <trkpt lat="41.8789170" lon="-8.8366340">
        <ele>-0.2</ele>
        <time>2021-05-18T14:19:08Z</time>
      </trkpt>
      <trkpt lat="41.8789140" lon="-8.8366330">
        <ele>-0.2</ele>
        <time>2021-05-18T14:19:09Z</time>
      </trkpt>
      <trkpt lat="41.8789100" lon="-8.8366320">
        <ele>-0.2</ele>
        <time>2021-05-18T14:19:10Z</time>
      </trkpt>
      <trkpt lat="41.8789070" lon="-8.8366310">
        <ele>-0.2</ele>
        <time>2021-05-18T14:19:11Z</time>
      </trkpt>
      <trkpt lat="41.8789040" lon="-8.8366300">
        <ele>-0.2</ele>
        <time>2021-05-18T14:19:12Z</time>
      </trkpt>
      <trkpt lat="41.8789000" lon="-8.8366290">
        <ele>-0.2</ele>
        <time>2021-05-18T14:19:13Z</time>
      </trkpt>
      <trkpt lat="41.8788970" lon="-8.8366280">
        <ele>-0.2</ele>
        <time>2021-05-18T14:19:14Z</time>
      </trkpt>
      <trkpt lat="41.8788930" lon="-8.8366270">
        <ele>-0.2</ele>
        <time>2021-05-18T14:19:15Z</time>
      </trkpt>
      <trkpt lat="41.8788900" lon="-8.8366260">
        <ele>-0.1</ele>
        <time>2021-05-18T14:19:16Z</time>
      </trkpt>
      <trkpt lat="41.8788870" lon="-8.8366250">
        <ele>-0.1</ele>
        <time>2021-05-18T14:19:17Z</time>
      </trkpt>
      <trkpt lat="41.8788830" lon="-8.8366240">
        <ele>-0.1</ele>
        <time>2021-05-18T14:19:18Z</time>
      </trkpt>
      <trkpt lat="41.8788800" lon="-8.8366220">
        <ele>-0.1</ele>
        <time>2021-05-18T14:19:19Z</time>
      </trkpt>
      <trkpt lat="41.8788770" lon="-8.8366210">
        <ele>-0.1</ele>
        <time>2021-05-18T14:19:20Z</time>
      </trkpt>
      <trkpt lat="41.8788730" lon="-8.8366200">
        <ele>-0.1</ele>
        <time>2021-05-18T14:19:21Z</time>
      </trkpt>
      <trkpt lat="41.8788700" lon="-8.8366190">
        <ele>-0.1</ele>
        <time>2021-05-18T14:19:22Z</time>
      </trkpt>
      <trkpt lat="41.8788670" lon="-8.8366180">
        <ele>-0.1</ele>
        <time>2021-05-18T14:19:23Z</time>
      </trkpt>
      <trkpt lat="41.8788630" lon="-8.8366170">
        <ele>-0.1</ele>
        <time>2021-05-18T14:19:24Z</time>
      </trkpt>
      <trkpt lat="41.8788600" lon="-8.8366160">
        <ele>-0.1</ele>
        <time>2021-05-18T14:19:25Z</time>
      </trkpt>
      <trkpt lat="41.8788570" lon="-8.8366150">
        <ele>0.1</ele>
        <time>2021-05-18T14:19:26Z</time>
      </trkpt>
      <trkpt lat="41.8788530" lon="-8.8366140">
        <ele>0.1</ele>
        <time>2021-05-18T14:19:27Z</time>
      </trkpt>
      <trkpt lat="41.8788500" lon="-8.8366130">
        <ele>0.1</ele>
        <time>2021-05-18T14:19:28Z</time>
      </trkpt>
      <trkpt lat="41.8788460" lon="-8.8366120">
        <ele>0.1</ele>
        <time>2021-05-18T14:19:29Z</time>
      </trkpt>
      <trkpt lat="41.8788430" lon="-8.8366110">
        <ele>0.1</ele>
        <time>2021-05-18T14:19:30Z</time>
      </trkpt>
      <trkpt lat="41.8788400" lon="-8.8366100">
        <ele>0.1</ele>
        <time>2021-05-18T14:19:31Z</time>
      </trkpt>
      <trkpt lat="41.8788360" lon="-8.8366090">
        <ele>0.1</ele>
        <time>2021-05-18T14:19:32Z</time>
      </trkpt>
      <trkpt lat="41.8788330" lon="-8.8366080">
        <ele>0.1</ele>
        <time>2021-05-18T14:19:33Z</time>
      </trkpt>
      <trkpt lat="41.8788300" lon="-8.8366070">
        <ele>0.1</ele>
        <time>2021-05-18T14:19:34Z</time>
      </trkpt>
      <trkpt lat="41.8788260" lon="-8.8366060">
        <ele>0.2</ele>
        <time>2021-05-18T14:19:35Z</time>
      </trkpt>
      <trkpt lat="41.8788230" lon="-8.8366050">
        <ele>0.2</ele>
        <time>2021-05-18T14:19:36Z</time>
      </trkpt>
      <trkpt lat="41.8788200" lon="-8.8366040">
        <ele>0.2</ele>
        <time>2021-05-18T14:19:37Z</time>
      </trkpt>
      <trkpt lat="41.8788160" lon="-8.8366030">
        <ele>0.2</ele>
        <time>2021-05-18T14:19:38Z</time>
      </trkpt>
      <trkpt lat="41.8788130" lon="-8.8366020">
        <ele>0.2</ele>
        <time>2021-05-18T14:19:39Z</time>
      </trkpt>
      <trkpt lat="41.8788100" lon="-8.8366010">
        <ele>0.2</ele>
        <time>2021-05-18T14:19:40Z</time>
      </trkpt>
      <trkpt lat="41.8788060" lon="-8.8366000">
        <ele>0.2</ele>
        <time>2021-05-18T14:19:41Z</time>
      </trkpt>
      <trkpt lat="41.8788030" lon="-8.8365990">
        <ele>0.2</ele>
        <time>2021-05-18T14:19:42Z</time>
      </trkpt>
      <trkpt lat="41.8787990" lon="-8.8365980">
        <ele>0.2</ele>
        <time>2021-05-18T14:19:43Z</time>
      </trkpt>
      <trkpt lat="41.8787960" lon="-8.8365970">
        <ele>0.2</ele>
        <time>2021-05-18T14:19:44Z</time>
      </trkpt>
      <trkpt lat="41.8787930" lon="-8.8365960">
        <ele>0.4</ele>
        <time>2021-05-18T14:19:45Z</time>
      </trkpt>
      <trkpt lat="41.8787890" lon="-8.8365950">
        <ele>0.4</ele>
        <time>2021-05-18T14:19:46Z</time>
      </trkpt>
      <trkpt lat="41.8787860" lon="-8.8365940">
        <ele>0.4</ele>
        <time>2021-05-18T14:19:47Z</time>
      </trkpt>
      <trkpt lat="41.8787830" lon="-8.8365980">
        <ele>0.4</ele>
        <time>2021-05-18T14:19:48Z</time>
      </trkpt>
      <trkpt lat="41.8787740" lon="-8.8365970">
        <ele>0.4</ele>
        <time>2021-05-18T14:19:49Z</time>
      </trkpt>
      <trkpt lat="41.8787640" lon="-8.8365930">
        <ele>0.4</ele>
        <time>2021-05-18T14:19:50Z</time>
      </trkpt>
      <trkpt lat="41.8787550" lon="-8.8365930">
        <ele>0.5</ele>
        <time>2021-05-18T14:19:51Z</time>
      </trkpt>
      <trkpt lat="41.8787530" lon="-8.8365910">
        <ele>0.5</ele>
        <time>2021-05-18T14:19:52Z</time>
      </trkpt>
      <trkpt lat="41.8787470" lon="-8.8365880">
        <ele>0.5</ele>
        <time>2021-05-18T14:19:53Z</time>
      </trkpt>
      <trkpt lat="41.8787360" lon="-8.8365850">
        <ele>0.5</ele>
        <time>2021-05-18T14:19:54Z</time>
      </trkpt>
      <trkpt lat="41.8787250" lon="-8.8365850">
        <ele>0.6</ele>
        <time>2021-05-18T14:19:55Z</time>
      </trkpt>
      <trkpt lat="41.8787200" lon="-8.8365870">
        <ele>0.6</ele>
        <time>2021-05-18T14:19:56Z</time>
      </trkpt>
      <trkpt lat="41.8787160" lon="-8.8365850">
        <ele>0.6</ele>
        <time>2021-05-18T14:19:57Z</time>
      </trkpt>
      <trkpt lat="41.8787130" lon="-8.8365890">
        <ele>0.6</ele>
        <time>2021-05-18T14:19:58Z</time>
      </trkpt>
      <trkpt lat="41.8787020" lon="-8.8365950">
        <ele>0.6</ele>
        <time>2021-05-18T14:19:59Z</time>
      </trkpt>
      <trkpt lat="41.8787020" lon="-8.8366070">
        <ele>0.6</ele>
        <time>2021-05-18T14:20:00Z</time>
      </trkpt>
      <trkpt lat="41.8787030" lon="-8.8366180">
        <ele>0.7</ele>
        <time>2021-05-18T14:20:01Z</time>
      </trkpt>
      <trkpt lat="41.8787020" lon="-8.8366280">
        <ele>0.7</ele>
        <time>2021-05-18T14:20:02Z</time>
      </trkpt>
      <trkpt lat="41.8787010" lon="-8.8366340">
        <ele>0.7</ele>
        <time>2021-05-18T14:20:03Z</time>
      </trkpt>
      <trkpt lat="41.8786970" lon="-8.8366390">
        <ele>0.8</ele>
        <time>2021-05-18T14:20:04Z</time>
      </trkpt>
      <trkpt lat="41.8786910" lon="-8.8366450">
        <ele>0.8</ele>
        <time>2021-05-18T14:20:05Z</time>
      </trkpt>
      <trkpt lat="41.8786850" lon="-8.8366590">
        <ele>0.8</ele>
        <time>2021-05-18T14:20:06Z</time>
      </trkpt>
      <trkpt lat="41.8786840" lon="-8.8366640">
        <ele>0.8</ele>
        <time>2021-05-18T14:20:07Z</time>
      </trkpt>
      <trkpt lat="41.8786780" lon="-8.8366730">
        <ele>0.8</ele>
        <time>2021-05-18T14:20:08Z</time>
      </trkpt>
      <trkpt lat="41.8786760" lon="-8.8366780">
        <ele>0.8</ele>
        <time>2021-05-18T14:20:09Z</time>
      </trkpt>
      <trkpt lat="41.8786680" lon="-8.8366810">
        <ele>1.0</ele>
        <time>2021-05-18T14:20:10Z</time>
      </trkpt>
      <trkpt lat="41.8786540" lon="-8.8366930">
        <ele>1.0</ele>
        <time>2021-05-18T14:20:11Z</time>
      </trkpt>
      <trkpt lat="41.8786430" lon="-8.8366940">
        <ele>1.0</ele>
        <time>2021-05-18T14:20:12Z</time>
      </trkpt>
      <trkpt lat="41.8786300" lon="-8.8366890">
        <ele>1.2</ele>
        <time>2021-05-18T14:20:13Z</time>
      </trkpt>
      <trkpt lat="41.8786240" lon="-8.8366840">
        <ele>1.2</ele>
        <time>2021-05-18T14:20:14Z</time>
      </trkpt>
      <trkpt lat="41.8786140" lon="-8.8366820">
        <ele>1.2</ele>
        <time>2021-05-18T14:20:15Z</time>
      </trkpt>
      <trkpt lat="41.8786080" lon="-8.8366850">
        <ele>1.2</ele>
        <time>2021-05-18T14:20:16Z</time>
      </trkpt>
      <trkpt lat="41.8785970" lon="-8.8366880">
        <ele>1.3</ele>
        <time>2021-05-18T14:20:17Z</time>
      </trkpt>
      <trkpt lat="41.8785890" lon="-8.8366860">
        <ele>1.3</ele>
        <time>2021-05-18T14:20:18Z</time>
      </trkpt>
      <trkpt lat="41.8785810" lon="-8.8366860">
        <ele>1.3</ele>
        <time>2021-05-18T14:20:19Z</time>
      </trkpt>
      <trkpt lat="41.8785750" lon="-8.8366880">
        <ele>1.3</ele>
        <time>2021-05-18T14:20:20Z</time>
      </trkpt>
      <trkpt lat="41.8785660" lon="-8.8366950">
        <ele>1.5</ele>
        <time>2021-05-18T14:20:21Z</time>
      </trkpt>
      <trkpt lat="41.8785600" lon="-8.8366990">
        <ele>1.5</ele>
        <time>2021-05-18T14:20:22Z</time>
      </trkpt>
      <trkpt lat="41.8785490" lon="-8.8367020">
        <ele>1.5</ele>
        <time>2021-05-18T14:20:23Z</time>
      </trkpt>
      <trkpt lat="41.8785410" lon="-8.8367030">
        <ele>1.5</ele>
        <time>2021-05-18T14:20:24Z</time>
      </trkpt>
      <trkpt lat="41.8785330" lon="-8.8367080">
        <ele>1.7</ele>
        <time>2021-05-18T14:20:25Z</time>
      </trkpt>
      <trkpt lat="41.8785260" lon="-8.8367150">
        <ele>1.7</ele>
        <time>2021-05-18T14:20:26Z</time>
      </trkpt>
      <trkpt lat="41.8785210" lon="-8.8367210">
        <ele>1.7</ele>
        <time>2021-05-18T14:20:27Z</time>
      </trkpt>
      <trkpt lat="41.8785150" lon="-8.8367300">
        <ele>1.7</ele>
        <time>2021-05-18T14:20:28Z</time>
      </trkpt>
      <trkpt lat="41.8785120" lon="-8.8367280">
        <ele>1.7</ele>
        <time>2021-05-18T14:20:29Z</time>
      </trkpt>
      <trkpt lat="41.8785200" lon="-8.8367320">
        <ele>1.7</ele>
        <time>2021-05-18T14:20:30Z</time>
      </trkpt>
      <trkpt lat="41.8785150" lon="-8.8367370">
        <ele>1.7</ele>
        <time>2021-05-18T14:20:31Z</time>
      </trkpt>
      <trkpt lat="41.8785130" lon="-8.8367400">
        <ele>1.7</ele>
        <time>2021-05-18T14:20:32Z</time>
      </trkpt>
      <trkpt lat="41.8785060" lon="-8.8367450">
        <ele>1.9</ele>
        <time>2021-05-18T14:20:33Z</time>
      </trkpt>
      <trkpt lat="41.8784950" lon="-8.8367500">
        <ele>1.9</ele>
        <time>2021-05-18T14:20:34Z</time>
      </trkpt>
      <trkpt lat="41.8784850" lon="-8.8367610">
        <ele>1.9</ele>
        <time>2021-05-18T14:20:35Z</time>
      </trkpt>
      <trkpt lat="41.8784800" lon="-8.8367700">
        <ele>1.9</ele>
        <time>2021-05-18T14:20:36Z</time>
      </trkpt>
      <trkpt lat="41.8784750" lon="-8.8367790">
        <ele>2.0</ele>
        <time>2021-05-18T14:20:37Z</time>
      </trkpt>
      <trkpt lat="41.8784700" lon="-8.8367880">
        <ele>2.1</ele>
        <time>2021-05-18T14:20:38Z</time>
      </trkpt>
      <trkpt lat="41.8784680" lon="-8.8368030">
        <ele>2.1</ele>
        <time>2021-05-18T14:20:39Z</time>
      </trkpt>
      <trkpt lat="41.8784590" lon="-8.8368160">
        <ele>2.1</ele>
        <time>2021-05-18T14:20:40Z</time>
      </trkpt>
      <trkpt lat="41.8784630" lon="-8.8368280">
        <ele>2.1</ele>
        <time>2021-05-18T14:20:41Z</time>
      </trkpt>
      <trkpt lat="41.8784660" lon="-8.8368350">
        <ele>2.1</ele>
        <time>2021-05-18T14:20:42Z</time>
      </trkpt>
      <trkpt lat="41.8784610" lon="-8.8368420">
        <ele>2.1</ele>
        <time>2021-05-18T14:20:43Z</time>
      </trkpt>
      <trkpt lat="41.8784580" lon="-8.8368440">
        <ele>2.1</ele>
        <time>2021-05-18T14:20:44Z</time>
      </trkpt>
      <trkpt lat="41.8784610" lon="-8.8368370">
        <ele>2.1</ele>
        <time>2021-05-18T14:20:45Z</time>
      </trkpt>
      <trkpt lat="41.8784650" lon="-8.8368370">
        <ele>2.1</ele>
        <time>2021-05-18T14:20:46Z</time>
      </trkpt>
      <trkpt lat="41.8784650" lon="-8.8368400">
        <ele>2.1</ele>
        <time>2021-05-18T14:20:47Z</time>
      </trkpt>
      <trkpt lat="41.8784660" lon="-8.8368450">
        <ele>2.1</ele>
        <time>2021-05-18T14:20:48Z</time>
      </trkpt>
      <trkpt lat="41.8784420" lon="-8.8368560">
        <ele>2.3</ele>
        <time>2021-05-18T14:20:49Z</time>
      </trkpt>
      <trkpt lat="41.8784470" lon="-8.8368620">
        <ele>2.1</ele>
        <time>2021-05-18T14:20:50Z</time>
      </trkpt>
      <trkpt lat="41.8784310" lon="-8.8368720">
        <ele>2.4</ele>
        <time>2021-05-18T14:20:51Z</time>
      </trkpt>
      <trkpt lat="41.8784130" lon="-8.8368840">
        <ele>2.4</ele>
        <time>2021-05-18T14:20:52Z</time>
      </trkpt>
      <trkpt lat="41.8784000" lon="-8.8368850">
        <ele>2.5</ele>
        <time>2021-05-18T14:20:53Z</time>
      </trkpt>
      <trkpt lat="41.8783900" lon="-8.8368890">
        <ele>2.5</ele>
        <time>2021-05-18T14:20:54Z</time>
      </trkpt>
      <trkpt lat="41.8783810" lon="-8.8368900">
        <ele>2.5</ele>
        <time>2021-05-18T14:20:55Z</time>
      </trkpt>
      <trkpt lat="41.8783750" lon="-8.8368890">
        <ele>2.6</ele>
        <time>2021-05-18T14:20:56Z</time>
      </trkpt>
      <trkpt lat="41.8783690" lon="-8.8368930">
        <ele>2.6</ele>
        <time>2021-05-18T14:20:57Z</time>
      </trkpt>
      <trkpt lat="41.8783560" lon="-8.8368950">
        <ele>2.6</ele>
        <time>2021-05-18T14:20:58Z</time>
      </trkpt>
      <trkpt lat="41.8783500" lon="-8.8368930">
        <ele>2.6</ele>
        <time>2021-05-18T14:20:59Z</time>
      </trkpt>
      <trkpt lat="41.8783300" lon="-8.8368910">
        <ele>2.8</ele>
        <time>2021-05-18T14:21:00Z</time>
      </trkpt>
      <trkpt lat="41.8783220" lon="-8.8368880">
        <ele>2.8</ele>
        <time>2021-05-18T14:21:01Z</time>
      </trkpt>
      <trkpt lat="41.8783130" lon="-8.8368860">
        <ele>2.9</ele>
        <time>2021-05-18T14:21:02Z</time>
      </trkpt>
      <trkpt lat="41.8783010" lon="-8.8368800">
        <ele>2.9</ele>
        <time>2021-05-18T14:21:03Z</time>
      </trkpt>
      <trkpt lat="41.8782850" lon="-8.8368760">
        <ele>2.9</ele>
        <time>2021-05-18T14:21:04Z</time>
      </trkpt>
      <trkpt lat="41.8782730" lon="-8.8368790">
        <ele>3.0</ele>
        <time>2021-05-18T14:21:05Z</time>
      </trkpt>
      <trkpt lat="41.8782620" lon="-8.8368850">
        <ele>3.0</ele>
        <time>2021-05-18T14:21:06Z</time>
      </trkpt>
      <trkpt lat="41.8782520" lon="-8.8368900">
        <ele>3.1</ele>
        <time>2021-05-18T14:21:07Z</time>
      </trkpt>
      <trkpt lat="41.8782410" lon="-8.8368960">
        <ele>3.1</ele>
        <time>2021-05-18T14:21:08Z</time>
      </trkpt>
      <trkpt lat="41.8782300" lon="-8.8369050">
        <ele>3.1</ele>
        <time>2021-05-18T14:21:09Z</time>
      </trkpt>
      <trkpt lat="41.8782220" lon="-8.8369010">
        <ele>3.1</ele>
        <time>2021-05-18T14:21:10Z</time>
      </trkpt>
      <trkpt lat="41.8782120" lon="-8.8369080">
        <ele>3.2</ele>
        <time>2021-05-18T14:21:11Z</time>
      </trkpt>
      <trkpt lat="41.8782000" lon="-8.8369120">
        <ele>3.2</ele>
        <time>2021-05-18T14:21:12Z</time>
      </trkpt>
      <trkpt lat="41.8781900" lon="-8.8369200">
        <ele>3.2</ele>
        <time>2021-05-18T14:21:13Z</time>
      </trkpt>
      <trkpt lat="41.8781720" lon="-8.8369270">
        <ele>3.3</ele>
        <time>2021-05-18T14:21:14Z</time>
      </trkpt>
      <trkpt lat="41.8781620" lon="-8.8369290">
        <ele>3.3</ele>
        <time>2021-05-18T14:21:15Z</time>
      </trkpt>
      <trkpt lat="41.8781530" lon="-8.8369310">
        <ele>3.4</ele>
        <time>2021-05-18T14:21:16Z</time>
      </trkpt>
      <trkpt lat="41.8781470" lon="-8.8369290">
        <ele>3.4</ele>
        <time>2021-05-18T14:21:17Z</time>
      </trkpt>
      <trkpt lat="41.8781400" lon="-8.8369280">
        <ele>3.4</ele>
        <time>2021-05-18T14:21:18Z</time>
      </trkpt>
      <trkpt lat="41.8781340" lon="-8.8369260">
        <ele>3.4</ele>
        <time>2021-05-18T14:21:19Z</time>
      </trkpt>
      <trkpt lat="41.8781240" lon="-8.8369260">
        <ele>3.5</ele>
        <time>2021-05-18T14:21:20Z</time>
      </trkpt>
      <trkpt lat="41.8781200" lon="-8.8369240">
        <ele>3.5</ele>
        <time>2021-05-18T14:21:21Z</time>
      </trkpt>
      <trkpt lat="41.8781120" lon="-8.8369270">
        <ele>3.5</ele>
        <time>2021-05-18T14:21:22Z</time>
      </trkpt>
      <trkpt lat="41.8781060" lon="-8.8369280">
        <ele>3.5</ele>
        <time>2021-05-18T14:21:23Z</time>
      </trkpt>
      <trkpt lat="41.8780950" lon="-8.8369290">
        <ele>3.5</ele>
        <time>2021-05-18T14:21:24Z</time>
      </trkpt>
      <trkpt lat="41.8780750" lon="-8.8369240">
        <ele>3.6</ele>
        <time>2021-05-18T14:21:25Z</time>
      </trkpt>
      <trkpt lat="41.8780680" lon="-8.8369190">
        <ele>3.6</ele>
        <time>2021-05-18T14:21:26Z</time>
      </trkpt>
      <trkpt lat="41.8780600" lon="-8.8369140">
        <ele>3.7</ele>
        <time>2021-05-18T14:21:27Z</time>
      </trkpt>
      <trkpt lat="41.8780530" lon="-8.8369090">
        <ele>3.6</ele>
        <time>2021-05-18T14:21:28Z</time>
      </trkpt>
      <trkpt lat="41.8780400" lon="-8.8369020">
        <ele>3.6</ele>
        <time>2021-05-18T14:21:29Z</time>
      </trkpt>
      <trkpt lat="41.8780320" lon="-8.8368980">
        <ele>3.6</ele>
        <time>2021-05-18T14:21:30Z</time>
      </trkpt>
      <trkpt lat="41.8780220" lon="-8.8368960">
        <ele>3.7</ele>
        <time>2021-05-18T14:21:31Z</time>
      </trkpt>
      <trkpt lat="41.8780010" lon="-8.8368870">
        <ele>3.7</ele>
        <time>2021-05-18T14:21:32Z</time>
      </trkpt>
      <trkpt lat="41.8779920" lon="-8.8368840">
        <ele>3.8</ele>
        <time>2021-05-18T14:21:33Z</time>
      </trkpt>
      <trkpt lat="41.8779840" lon="-8.8368810">
        <ele>3.8</ele>
        <time>2021-05-18T14:21:34Z</time>
      </trkpt>
      <trkpt lat="41.8779710" lon="-8.8368770">
        <ele>3.8</ele>
        <time>2021-05-18T14:21:35Z</time>
      </trkpt>
      <trkpt lat="41.8779600" lon="-8.8368700">
        <ele>3.8</ele>
        <time>2021-05-18T14:21:36Z</time>
      </trkpt>
      <trkpt lat="41.8779530" lon="-8.8368640">
        <ele>3.8</ele>
        <time>2021-05-18T14:21:37Z</time>
      </trkpt>
      <trkpt lat="41.8779460" lon="-8.8368680">
        <ele>3.8</ele>
        <time>2021-05-18T14:21:38Z</time>
      </trkpt>
      <trkpt lat="41.8779380" lon="-8.8368700">
        <ele>3.8</ele>
        <time>2021-05-18T14:21:39Z</time>
      </trkpt>
      <trkpt lat="41.8779250" lon="-8.8368540">
        <ele>3.8</ele>
        <time>2021-05-18T14:21:40Z</time>
      </trkpt>
      <trkpt lat="41.8779110" lon="-8.8368470">
        <ele>3.8</ele>
        <time>2021-05-18T14:21:41Z</time>
      </trkpt>
      <trkpt lat="41.8778980" lon="-8.8368480">
        <ele>3.8</ele>
        <time>2021-05-18T14:21:42Z</time>
      </trkpt>
      <trkpt lat="41.8778960" lon="-8.8368490">
        <ele>3.8</ele>
        <time>2021-05-18T14:21:43Z</time>
      </trkpt>
      <trkpt lat="41.8778920" lon="-8.8368420">
        <ele>3.8</ele>
        <time>2021-05-18T14:21:44Z</time>
      </trkpt>
      <trkpt lat="41.8778820" lon="-8.8368460">
        <ele>3.8</ele>
        <time>2021-05-18T14:21:45Z</time>
      </trkpt>
      <trkpt lat="41.8778680" lon="-8.8368440">
        <ele>3.8</ele>
        <time>2021-05-18T14:21:46Z</time>
      </trkpt>
      <trkpt lat="41.8778520" lon="-8.8368420">
        <ele>3.8</ele>
        <time>2021-05-18T14:21:47Z</time>
      </trkpt>
      <trkpt lat="41.8778470" lon="-8.8368430">
        <ele>3.8</ele>
        <time>2021-05-18T14:21:48Z</time>
      </trkpt>
      <trkpt lat="41.8778410" lon="-8.8368450">
        <ele>3.8</ele>
        <time>2021-05-18T14:21:49Z</time>
      </trkpt>
      <trkpt lat="41.8778360" lon="-8.8368460">
        <ele>3.9</ele>
        <time>2021-05-18T14:21:50Z</time>
      </trkpt>
      <trkpt lat="41.8778310" lon="-8.8368480">
        <ele>3.9</ele>
        <time>2021-05-18T14:21:51Z</time>
      </trkpt>
      <trkpt lat="41.8778290" lon="-8.8368610">
        <ele>3.9</ele>
        <time>2021-05-18T14:21:52Z</time>
      </trkpt>
      <trkpt lat="41.8778270" lon="-8.8368690">
        <ele>3.9</ele>
        <time>2021-05-18T14:21:53Z</time>
      </trkpt>
      <trkpt lat="41.8778210" lon="-8.8368750">
        <ele>3.9</ele>
        <time>2021-05-18T14:21:54Z</time>
      </trkpt>
      <trkpt lat="41.8778130" lon="-8.8368810">
        <ele>3.9</ele>
        <time>2021-05-18T14:21:55Z</time>
      </trkpt>
      <trkpt lat="41.8778080" lon="-8.8368910">
        <ele>3.9</ele>
        <time>2021-05-18T14:21:56Z</time>
      </trkpt>
      <trkpt lat="41.8777970" lon="-8.8369050">
        <ele>3.9</ele>
        <time>2021-05-18T14:21:57Z</time>
      </trkpt>
      <trkpt lat="41.8777880" lon="-8.8369130">
        <ele>3.9</ele>
        <time>2021-05-18T14:21:58Z</time>
      </trkpt>
      <trkpt lat="41.8777810" lon="-8.8369120">
        <ele>3.9</ele>
        <time>2021-05-18T14:21:59Z</time>
      </trkpt>
      <trkpt lat="41.8777760" lon="-8.8369170">
        <ele>4.0</ele>
        <time>2021-05-18T14:22:00Z</time>
      </trkpt>
      <trkpt lat="41.8777710" lon="-8.8369280">
        <ele>4.0</ele>
        <time>2021-05-18T14:22:01Z</time>
      </trkpt>
      <trkpt lat="41.8777650" lon="-8.8369310">
        <ele>4.0</ele>
        <time>2021-05-18T14:22:02Z</time>
      </trkpt>
      <trkpt lat="41.8777590" lon="-8.8369370">
        <ele>4.0</ele>
        <time>2021-05-18T14:22:03Z</time>
      </trkpt>
      <trkpt lat="41.8777590" lon="-8.8369460">
        <ele>4.0</ele>
        <time>2021-05-18T14:22:04Z</time>
      </trkpt>
      <trkpt lat="41.8777590" lon="-8.8369500">
        <ele>4.0</ele>
        <time>2021-05-18T14:22:05Z</time>
      </trkpt>
      <trkpt lat="41.8777590" lon="-8.8369550">
        <ele>4.0</ele>
        <time>2021-05-18T14:22:06Z</time>
      </trkpt>
      <trkpt lat="41.8777590" lon="-8.8369590">
        <ele>4.1</ele>
        <time>2021-05-18T14:22:07Z</time>
      </trkpt>
      <trkpt lat="41.8777600" lon="-8.8369640">
        <ele>4.1</ele>
        <time>2021-05-18T14:22:08Z</time>
      </trkpt>
      <trkpt lat="41.8777600" lon="-8.8369690">
        <ele>4.1</ele>
        <time>2021-05-18T14:22:09Z</time>
      </trkpt>
      <trkpt lat="41.8777600" lon="-8.8369730">
        <ele>4.1</ele>
        <time>2021-05-18T14:22:10Z</time>
      </trkpt>
      <trkpt lat="41.8777600" lon="-8.8369780">
        <ele>4.1</ele>
        <time>2021-05-18T14:22:11Z</time>
      </trkpt>
      <trkpt lat="41.8777600" lon="-8.8369820">
        <ele>4.1</ele>
        <time>2021-05-18T14:22:12Z</time>
      </trkpt>
      <trkpt lat="41.8777600" lon="-8.8369870">
        <ele>4.1</ele>
        <time>2021-05-18T14:22:13Z</time>
      </trkpt>
      <trkpt lat="41.8777570" lon="-8.8369900">
        <ele>4.1</ele>
        <time>2021-05-18T14:22:14Z</time>
      </trkpt>
      <trkpt lat="41.8777570" lon="-8.8370000">
        <ele>4.2</ele>
        <time>2021-05-18T14:22:15Z</time>
      </trkpt>
      <trkpt lat="41.8777560" lon="-8.8370130">
        <ele>4.2</ele>
        <time>2021-05-18T14:22:16Z</time>
      </trkpt>
      <trkpt lat="41.8777490" lon="-8.8370290">
        <ele>4.2</ele>
        <time>2021-05-18T14:22:17Z</time>
      </trkpt>
      <trkpt lat="41.8777460" lon="-8.8370370">
        <ele>4.2</ele>
        <time>2021-05-18T14:22:18Z</time>
      </trkpt>
      <trkpt lat="41.8777410" lon="-8.8370450">
        <ele>4.3</ele>
        <time>2021-05-18T14:22:19Z</time>
      </trkpt>
      <trkpt lat="41.8777360" lon="-8.8370510">
        <ele>4.3</ele>
        <time>2021-05-18T14:22:20Z</time>
      </trkpt>
      <trkpt lat="41.8777320" lon="-8.8370600">
        <ele>4.3</ele>
        <time>2021-05-18T14:22:21Z</time>
      </trkpt>
      <trkpt lat="41.8777160" lon="-8.8370800">
        <ele>4.3</ele>
        <time>2021-05-18T14:22:22Z</time>
      </trkpt>
      <trkpt lat="41.8777110" lon="-8.8370880">
        <ele>4.4</ele>
        <time>2021-05-18T14:22:23Z</time>
      </trkpt>
      <trkpt lat="41.8777060" lon="-8.8370960">
        <ele>4.4</ele>
        <time>2021-05-18T14:22:24Z</time>
      </trkpt>
      <trkpt lat="41.8776970" lon="-8.8371080">
        <ele>4.4</ele>
        <time>2021-05-18T14:22:25Z</time>
      </trkpt>
      <trkpt lat="41.8776930" lon="-8.8371130">
        <ele>4.4</ele>
        <time>2021-05-18T14:22:26Z</time>
      </trkpt>
      <trkpt lat="41.8776870" lon="-8.8371220">
        <ele>4.4</ele>
        <time>2021-05-18T14:22:27Z</time>
      </trkpt>
      <trkpt lat="41.8776780" lon="-8.8371240">
        <ele>4.4</ele>
        <time>2021-05-18T14:22:28Z</time>
      </trkpt>
      <trkpt lat="41.8776740" lon="-8.8371380">
        <ele>4.5</ele>
        <time>2021-05-18T14:22:29Z</time>
      </trkpt>
      <trkpt lat="41.8776660" lon="-8.8371400">
        <ele>4.5</ele>
        <time>2021-05-18T14:22:30Z</time>
      </trkpt>
      <trkpt lat="41.8776600" lon="-8.8371390">
        <ele>4.5</ele>
        <time>2021-05-18T14:22:31Z</time>
      </trkpt>
      <trkpt lat="41.8776540" lon="-8.8371420">
        <ele>4.5</ele>
        <time>2021-05-18T14:22:32Z</time>
      </trkpt>
      <trkpt lat="41.8776450" lon="-8.8371440">
        <ele>4.5</ele>
        <time>2021-05-18T14:22:33Z</time>
      </trkpt>
      <trkpt lat="41.8776330" lon="-8.8371440">
        <ele>4.5</ele>
        <time>2021-05-18T14:22:34Z</time>
      </trkpt>
      <trkpt lat="41.8776250" lon="-8.8371380">
        <ele>4.5</ele>
        <time>2021-05-18T14:22:35Z</time>
      </trkpt>
      <trkpt lat="41.8776220" lon="-8.8371380">
        <ele>4.5</ele>
        <time>2021-05-18T14:22:36Z</time>
      </trkpt>
      <trkpt lat="41.8776090" lon="-8.8371430">
        <ele>4.5</ele>
        <time>2021-05-18T14:22:37Z</time>
      </trkpt>
      <trkpt lat="41.8775990" lon="-8.8371520">
        <ele>4.5</ele>
        <time>2021-05-18T14:22:38Z</time>
      </trkpt>
      <trkpt lat="41.8775950" lon="-8.8371520">
        <ele>4.5</ele>
        <time>2021-05-18T14:22:39Z</time>
      </trkpt>
      <trkpt lat="41.8775850" lon="-8.8371520">
        <ele>4.5</ele>
        <time>2021-05-18T14:22:40Z</time>
      </trkpt>
      <trkpt lat="41.8775770" lon="-8.8371520">
        <ele>4.5</ele>
        <time>2021-05-18T14:22:41Z</time>
      </trkpt>
      <trkpt lat="41.8775720" lon="-8.8371600">
        <ele>4.5</ele>
        <time>2021-05-18T14:22:42Z</time>
      </trkpt>
      <trkpt lat="41.8775620" lon="-8.8371610">
        <ele>4.5</ele>
        <time>2021-05-18T14:22:43Z</time>
      </trkpt>
      <trkpt lat="41.8775560" lon="-8.8371680">
        <ele>4.5</ele>
        <time>2021-05-18T14:22:44Z</time>
      </trkpt>
      <trkpt lat="41.8775510" lon="-8.8371740">
        <ele>4.6</ele>
        <time>2021-05-18T14:22:45Z</time>
      </trkpt>
      <trkpt lat="41.8775420" lon="-8.8371780">
        <ele>4.6</ele>
        <time>2021-05-18T14:22:46Z</time>
      </trkpt>
      <trkpt lat="41.8775310" lon="-8.8371830">
        <ele>4.6</ele>
        <time>2021-05-18T14:22:47Z</time>
      </trkpt>
      <trkpt lat="41.8775220" lon="-8.8371870">
        <ele>4.6</ele>
        <time>2021-05-18T14:22:48Z</time>
      </trkpt>
      <trkpt lat="41.8775150" lon="-8.8371920">
        <ele>4.6</ele>
        <time>2021-05-18T14:22:49Z</time>
      </trkpt>
      <trkpt lat="41.8775100" lon="-8.8371920">
        <ele>4.6</ele>
        <time>2021-05-18T14:22:50Z</time>
      </trkpt>
      <trkpt lat="41.8775050" lon="-8.8372000">
        <ele>4.6</ele>
        <time>2021-05-18T14:22:51Z</time>
      </trkpt>
      <trkpt lat="41.8774960" lon="-8.8371980">
        <ele>4.6</ele>
        <time>2021-05-18T14:22:52Z</time>
      </trkpt>
      <trkpt lat="41.8774950" lon="-8.8372010">
        <ele>4.6</ele>
        <time>2021-05-18T14:22:53Z</time>
      </trkpt>
      <trkpt lat="41.8774900" lon="-8.8372060">
        <ele>4.6</ele>
        <time>2021-05-18T14:22:54Z</time>
      </trkpt>
      <trkpt lat="41.8774870" lon="-8.8372020">
        <ele>4.6</ele>
        <time>2021-05-18T14:22:55Z</time>
      </trkpt>
      <trkpt lat="41.8774850" lon="-8.8372000">
        <ele>4.6</ele>
        <time>2021-05-18T14:22:56Z</time>
      </trkpt>
      <trkpt lat="41.8774790" lon="-8.8371920">
        <ele>4.6</ele>
        <time>2021-05-18T14:22:57Z</time>
      </trkpt>
      <trkpt lat="41.8774660" lon="-8.8371840">
        <ele>4.6</ele>
        <time>2021-05-18T14:22:58Z</time>
      </trkpt>
      <trkpt lat="41.8774600" lon="-8.8371790">
        <ele>4.6</ele>
        <time>2021-05-18T14:22:59Z</time>
      </trkpt>
      <trkpt lat="41.8774550" lon="-8.8371770">
        <ele>4.6</ele>
        <time>2021-05-18T14:23:00Z</time>
      </trkpt>
      <trkpt lat="41.8774550" lon="-8.8371790">
        <ele>4.6</ele>
        <time>2021-05-18T14:23:01Z</time>
      </trkpt>
      <trkpt lat="41.8774590" lon="-8.8371900">
        <ele>4.6</ele>
        <time>2021-05-18T14:23:02Z</time>
      </trkpt>
      <trkpt lat="41.8774590" lon="-8.8371820">
        <ele>4.6</ele>
        <time>2021-05-18T14:23:03Z</time>
      </trkpt>
      <trkpt lat="41.8774570" lon="-8.8371860">
        <ele>4.6</ele>
        <time>2021-05-18T14:23:04Z</time>
      </trkpt>
      <trkpt lat="41.8774520" lon="-8.8371830">
        <ele>4.6</ele>
        <time>2021-05-18T14:23:05Z</time>
      </trkpt>
      <trkpt lat="41.8774460" lon="-8.8371780">
        <ele>4.6</ele>
        <time>2021-05-18T14:23:06Z</time>
      </trkpt>
      <trkpt lat="41.8774450" lon="-8.8371610">
        <ele>4.5</ele>
        <time>2021-05-18T14:23:07Z</time>
      </trkpt>
      <trkpt lat="41.8774430" lon="-8.8371640">
        <ele>4.5</ele>
        <time>2021-05-18T14:23:08Z</time>
      </trkpt>
      <trkpt lat="41.8774390" lon="-8.8371550">
        <ele>4.5</ele>
        <time>2021-05-18T14:23:09Z</time>
      </trkpt>
      <trkpt lat="41.8774340" lon="-8.8371430">
        <ele>4.5</ele>
        <time>2021-05-18T14:23:10Z</time>
      </trkpt>
      <trkpt lat="41.8774350" lon="-8.8371320">
        <ele>4.5</ele>
        <time>2021-05-18T14:23:11Z</time>
      </trkpt>
      <trkpt lat="41.8774340" lon="-8.8371370">
        <ele>4.5</ele>
        <time>2021-05-18T14:23:12Z</time>
      </trkpt>
      <trkpt lat="41.8774290" lon="-8.8371370">
        <ele>4.5</ele>
        <time>2021-05-18T14:23:13Z</time>
      </trkpt>
      <trkpt lat="41.8774270" lon="-8.8371340">
        <ele>4.5</ele>
        <time>2021-05-18T14:23:14Z</time>
      </trkpt>
      <trkpt lat="41.8774270" lon="-8.8371270">
        <ele>4.4</ele>
        <time>2021-05-18T14:23:15Z</time>
      </trkpt>
      <trkpt lat="41.8774240" lon="-8.8371250">
        <ele>4.4</ele>
        <time>2021-05-18T14:23:16Z</time>
      </trkpt>
      <trkpt lat="41.8774250" lon="-8.8371140">
        <ele>4.4</ele>
        <time>2021-05-18T14:23:17Z</time>
      </trkpt>
      <trkpt lat="41.8774250" lon="-8.8371070">
        <ele>4.4</ele>
        <time>2021-05-18T14:23:18Z</time>
      </trkpt>
      <trkpt lat="41.8774250" lon="-8.8371070">
        <ele>4.4</ele>
        <time>2021-05-18T14:23:19Z</time>
      </trkpt>
      <trkpt lat="41.8774250" lon="-8.8371070">
        <ele>4.4</ele>
        <time>2021-05-18T14:23:20Z</time>
      </trkpt>
      <trkpt lat="41.8774190" lon="-8.8370880">
        <ele>4.4</ele>
        <time>2021-05-18T14:23:21Z</time>
      </trkpt>
      <trkpt lat="41.8774200" lon="-8.8370840">
        <ele>4.4</ele>
        <time>2021-05-18T14:23:22Z</time>
      </trkpt>
      <trkpt lat="41.8774200" lon="-8.8370840">
        <ele>4.4</ele>
        <time>2021-05-18T14:23:23Z</time>
      </trkpt>
      <trkpt lat="41.8774190" lon="-8.8370680">
        <ele>4.4</ele>
        <time>2021-05-18T14:23:24Z</time>
      </trkpt>
      <trkpt lat="41.8774190" lon="-8.8370680">
        <ele>4.4</ele>
        <time>2021-05-18T14:23:25Z</time>
      </trkpt>
      <trkpt lat="41.8774190" lon="-8.8370680">
        <ele>4.4</ele>
        <time>2021-05-18T14:23:26Z</time>
      </trkpt>
      <trkpt lat="41.8774190" lon="-8.8370680">
        <ele>4.4</ele>
        <time>2021-05-18T14:23:27Z</time>
      </trkpt>
      <trkpt lat="41.8774190" lon="-8.8370680">
        <ele>4.4</ele>
        <time>2021-05-18T14:23:28Z</time>
      </trkpt>
      <trkpt lat="41.8774190" lon="-8.8370680">
        <ele>4.4</ele>
        <time>2021-05-18T14:23:29Z</time>
      </trkpt>
      <trkpt lat="41.8774190" lon="-8.8370680">
        <ele>4.4</ele>
        <time>2021-05-18T14:23:30Z</time>
      </trkpt>
      <trkpt lat="41.8774190" lon="-8.8370680">
        <ele>4.4</ele>
        <time>2021-05-18T14:23:31Z</time>
      </trkpt>
      <trkpt lat="41.8774190" lon="-8.8370680">
        <ele>4.4</ele>
        <time>2021-05-18T14:23:32Z</time>
      </trkpt>
      <trkpt lat="41.8774190" lon="-8.8370680">
        <ele>4.4</ele>
        <time>2021-05-18T14:23:33Z</time>
      </trkpt>
      <trkpt lat="41.8774130" lon="-8.8370740">
        <ele>4.4</ele>
        <time>2021-05-18T14:23:34Z</time>
      </trkpt>
      <trkpt lat="41.8774160" lon="-8.8370710">
        <ele>4.4</ele>
        <time>2021-05-18T14:23:35Z</time>
      </trkpt>
      <trkpt lat="41.8774160" lon="-8.8370710">
        <ele>4.4</ele>
        <time>2021-05-18T14:23:36Z</time>
      </trkpt>
      <trkpt lat="41.8774160" lon="-8.8370710">
        <ele>4.4</ele>
        <time>2021-05-18T14:23:37Z</time>
      </trkpt>
      <trkpt lat="41.8774160" lon="-8.8370710">
        <ele>4.4</ele>
        <time>2021-05-18T14:23:38Z</time>
      </trkpt>
      <trkpt lat="41.8774160" lon="-8.8370710">
        <ele>4.4</ele>
        <time>2021-05-18T14:23:39Z</time>
      </trkpt>
      <trkpt lat="41.8774160" lon="-8.8370710">
        <ele>4.4</ele>
        <time>2021-05-18T14:23:40Z</time>
      </trkpt>
      <trkpt lat="41.8774160" lon="-8.8370710">
        <ele>4.4</ele>
        <time>2021-05-18T14:23:41Z</time>
      </trkpt>
      <trkpt lat="41.8774160" lon="-8.8370710">
        <ele>4.4</ele>
        <time>2021-05-18T14:23:42Z</time>
      </trkpt>
      <trkpt lat="41.8774160" lon="-8.8370710">
        <ele>4.4</ele>
        <time>2021-05-18T14:23:43Z</time>
      </trkpt>
      <trkpt lat="41.8774160" lon="-8.8370710">
        <ele>4.4</ele>
        <time>2021-05-18T14:23:44Z</time>
      </trkpt>
      <trkpt lat="41.8774160" lon="-8.8370710">
        <ele>4.4</ele>
        <time>2021-05-18T14:23:45Z</time>
      </trkpt>
      <trkpt lat="41.8774160" lon="-8.8370710">
        <ele>4.4</ele>
        <time>2021-05-18T14:23:46Z</time>
      </trkpt>
      <trkpt lat="41.8774160" lon="-8.8370710">
        <ele>4.4</ele>
        <time>2021-05-18T14:23:47Z</time>
      </trkpt>
      <trkpt lat="41.8774160" lon="-8.8370710">
        <ele>4.4</ele>
        <time>2021-05-18T14:23:48Z</time>
      </trkpt>
      <trkpt lat="41.8774160" lon="-8.8370710">
        <ele>4.4</ele>
        <time>2021-05-18T14:23:49Z</time>
      </trkpt>
      <trkpt lat="41.8774160" lon="-8.8370710">
        <ele>4.4</ele>
        <time>2021-05-18T14:23:50Z</time>
      </trkpt>
      <trkpt lat="41.8774160" lon="-8.8370710">
        <ele>4.4</ele>
        <time>2021-05-18T14:23:51Z</time>
      </trkpt>
      <trkpt lat="41.8774160" lon="-8.8370710">
        <ele>4.4</ele>
        <time>2021-05-18T14:23:52Z</time>
      </trkpt>
      <trkpt lat="41.8774160" lon="-8.8370710">
        <ele>4.4</ele>
        <time>2021-05-18T14:23:53Z</time>
      </trkpt>
      <trkpt lat="41.8774160" lon="-8.8370710">
        <ele>4.4</ele>
        <time>2021-05-18T14:23:54Z</time>
      </trkpt>
      <trkpt lat="41.8774160" lon="-8.8370710">
        <ele>4.4</ele>
        <time>2021-05-18T14:23:55Z</time>
      </trkpt>
      <trkpt lat="41.8774160" lon="-8.8370710">
        <ele>4.4</ele>
        <time>2021-05-18T14:23:56Z</time>
      </trkpt>
      <trkpt lat="41.8774160" lon="-8.8370710">
        <ele>4.4</ele>
        <time>2021-05-18T14:23:57Z</time>
      </trkpt>
      <trkpt lat="41.8774160" lon="-8.8370710">
        <ele>4.4</ele>
        <time>2021-05-18T14:23:58Z</time>
      </trkpt>
      <trkpt lat="41.8774160" lon="-8.8370710">
        <ele>4.4</ele>
        <time>2021-05-18T14:23:59Z</time>
      </trkpt>
      <trkpt lat="41.8774160" lon="-8.8370710">
        <ele>4.4</ele>
        <time>2021-05-18T14:24:00Z</time>
      </trkpt>
      <trkpt lat="41.8774160" lon="-8.8370710">
        <ele>4.4</ele>
        <time>2021-05-18T14:24:01Z</time>
      </trkpt>
      <trkpt lat="41.8774160" lon="-8.8370710">
        <ele>4.4</ele>
        <time>2021-05-18T14:24:02Z</time>
      </trkpt>
      <trkpt lat="41.8774160" lon="-8.8370710">
        <ele>4.4</ele>
        <time>2021-05-18T14:24:03Z</time>
      </trkpt>
      <trkpt lat="41.8774160" lon="-8.8370710">
        <ele>4.4</ele>
        <time>2021-05-18T14:24:04Z</time>
      </trkpt>
      <trkpt lat="41.8774160" lon="-8.8370710">
        <ele>4.4</ele>
        <time>2021-05-18T14:24:05Z</time>
      </trkpt>
      <trkpt lat="41.8774160" lon="-8.8370710">
        <ele>4.4</ele>
        <time>2021-05-18T14:24:06Z</time>
      </trkpt>
      <trkpt lat="41.8774160" lon="-8.8370710">
        <ele>4.4</ele>
        <time>2021-05-18T14:24:07Z</time>
      </trkpt>
      <trkpt lat="41.8774160" lon="-8.8370710">
        <ele>4.4</ele>
        <time>2021-05-18T14:24:08Z</time>
      </trkpt>
      <trkpt lat="41.8774160" lon="-8.8370710">
        <ele>4.4</ele>
        <time>2021-05-18T14:24:09Z</time>
      </trkpt>
      <trkpt lat="41.8774160" lon="-8.8370710">
        <ele>4.4</ele>
        <time>2021-05-18T14:24:10Z</time>
      </trkpt>
      <trkpt lat="41.8774160" lon="-8.8370710">
        <ele>4.4</ele>
        <time>2021-05-18T14:24:11Z</time>
      </trkpt>
      <trkpt lat="41.8774160" lon="-8.8370710">
        <ele>4.4</ele>
        <time>2021-05-18T14:24:12Z</time>
      </trkpt>
      <trkpt lat="41.8774160" lon="-8.8370710">
        <ele>4.4</ele>
        <time>2021-05-18T14:24:13Z</time>
      </trkpt>
      <trkpt lat="41.8774150" lon="-8.8371180">
        <ele>4.4</ele>
        <time>2021-05-18T14:24:14Z</time>
      </trkpt>
      <trkpt lat="41.8774160" lon="-8.8371170">
        <ele>4.4</ele>
        <time>2021-05-18T14:24:15Z</time>
      </trkpt>
      <trkpt lat="41.8774160" lon="-8.8371160">
        <ele>4.4</ele>
        <time>2021-05-18T14:24:16Z</time>
      </trkpt>
      <trkpt lat="41.8774180" lon="-8.8371180">
        <ele>4.4</ele>
        <time>2021-05-18T14:24:17Z</time>
      </trkpt>
      <trkpt lat="41.8774180" lon="-8.8371160">
        <ele>4.4</ele>
        <time>2021-05-18T14:24:18Z</time>
      </trkpt>
      <trkpt lat="41.8774180" lon="-8.8371160">
        <ele>4.4</ele>
        <time>2021-05-18T14:24:19Z</time>
      </trkpt>
      <trkpt lat="41.8774190" lon="-8.8371180">
        <ele>4.3</ele>
        <time>2021-05-18T14:24:20Z</time>
      </trkpt>
      <trkpt lat="41.8774190" lon="-8.8371180">
        <ele>4.3</ele>
        <time>2021-05-18T14:24:21Z</time>
      </trkpt>
      <trkpt lat="41.8774190" lon="-8.8371180">
        <ele>4.3</ele>
        <time>2021-05-18T14:24:22Z</time>
      </trkpt>
      <trkpt lat="41.8774190" lon="-8.8371180">
        <ele>4.3</ele>
        <time>2021-05-18T14:24:23Z</time>
      </trkpt>
      <trkpt lat="41.8774190" lon="-8.8371180">
        <ele>4.3</ele>
        <time>2021-05-18T14:24:24Z</time>
      </trkpt>
      <trkpt lat="41.8774190" lon="-8.8371180">
        <ele>4.3</ele>
        <time>2021-05-18T14:24:25Z</time>
      </trkpt>
      <trkpt lat="41.8774190" lon="-8.8371180">
        <ele>4.3</ele>
        <time>2021-05-18T14:24:26Z</time>
      </trkpt>
      <trkpt lat="41.8774190" lon="-8.8371180">
        <ele>4.3</ele>
        <time>2021-05-18T14:24:27Z</time>
      </trkpt>
      <trkpt lat="41.8774190" lon="-8.8371180">
        <ele>4.3</ele>
        <time>2021-05-18T14:24:28Z</time>
      </trkpt>
      <trkpt lat="41.8774190" lon="-8.8371180">
        <ele>4.3</ele>
        <time>2021-05-18T14:24:29Z</time>
      </trkpt>
      <trkpt lat="41.8774190" lon="-8.8371180">
        <ele>4.3</ele>
        <time>2021-05-18T14:24:30Z</time>
      </trkpt>
      <trkpt lat="41.8774190" lon="-8.8371180">
        <ele>4.3</ele>
        <time>2021-05-18T14:24:31Z</time>
      </trkpt>
      <trkpt lat="41.8774190" lon="-8.8371180">
        <ele>4.3</ele>
        <time>2021-05-18T14:24:32Z</time>
      </trkpt>
      <trkpt lat="41.8774190" lon="-8.8371180">
        <ele>4.3</ele>
        <time>2021-05-18T14:24:33Z</time>
      </trkpt>
      <trkpt lat="41.8774190" lon="-8.8371180">
        <ele>4.3</ele>
        <time>2021-05-18T14:24:34Z</time>
      </trkpt>
      <trkpt lat="41.8774190" lon="-8.8371180">
        <ele>4.3</ele>
        <time>2021-05-18T14:24:35Z</time>
      </trkpt>
      <trkpt lat="41.8774190" lon="-8.8371180">
        <ele>4.3</ele>
        <time>2021-05-18T14:24:36Z</time>
      </trkpt>
      <trkpt lat="41.8774190" lon="-8.8371180">
        <ele>4.3</ele>
        <time>2021-05-18T14:24:37Z</time>
      </trkpt>
      <trkpt lat="41.8774190" lon="-8.8371180">
        <ele>4.3</ele>
        <time>2021-05-18T14:24:38Z</time>
      </trkpt>
      <trkpt lat="41.8774190" lon="-8.8371180">
        <ele>4.3</ele>
        <time>2021-05-18T14:24:39Z</time>
      </trkpt>
      <trkpt lat="41.8774160" lon="-8.8371010">
        <ele>4.3</ele>
        <time>2021-05-18T14:24:40Z</time>
      </trkpt>
      <trkpt lat="41.8774170" lon="-8.8371030">
        <ele>4.3</ele>
        <time>2021-05-18T14:24:41Z</time>
      </trkpt>
      <trkpt lat="41.8774160" lon="-8.8371030">
        <ele>4.3</ele>
        <time>2021-05-18T14:24:42Z</time>
      </trkpt>
      <trkpt lat="41.8774140" lon="-8.8371000">
        <ele>4.3</ele>
        <time>2021-05-18T14:24:43Z</time>
      </trkpt>
      <trkpt lat="41.8774120" lon="-8.8371040">
        <ele>4.3</ele>
        <time>2021-05-18T14:24:44Z</time>
      </trkpt>
      <trkpt lat="41.8774140" lon="-8.8371030">
        <ele>4.3</ele>
        <time>2021-05-18T14:24:45Z</time>
      </trkpt>
      <trkpt lat="41.8774120" lon="-8.8371070">
        <ele>4.3</ele>
        <time>2021-05-18T14:24:46Z</time>
      </trkpt>
      <trkpt lat="41.8774250" lon="-8.8371280">
        <ele>4.3</ele>
        <time>2021-05-18T14:24:47Z</time>
      </trkpt>
      <trkpt lat="41.8774260" lon="-8.8371280">
        <ele>4.3</ele>
        <time>2021-05-18T14:24:48Z</time>
      </trkpt>
      <trkpt lat="41.8774350" lon="-8.8371270">
        <ele>4.3</ele>
        <time>2021-05-18T14:24:49Z</time>
      </trkpt>
      <trkpt lat="41.8774420" lon="-8.8371260">
        <ele>4.3</ele>
        <time>2021-05-18T14:24:50Z</time>
      </trkpt>
      <trkpt lat="41.8774450" lon="-8.8371240">
        <ele>4.3</ele>
        <time>2021-05-18T14:24:51Z</time>
      </trkpt>
      <trkpt lat="41.8774510" lon="-8.8371200">
        <ele>4.3</ele>
        <time>2021-05-18T14:24:52Z</time>
      </trkpt>
      <trkpt lat="41.8774560" lon="-8.8371160">
        <ele>4.3</ele>
        <time>2021-05-18T14:24:53Z</time>
      </trkpt>
      <trkpt lat="41.8774590" lon="-8.8371190">
        <ele>4.2</ele>
        <time>2021-05-18T14:24:54Z</time>
      </trkpt>
      <trkpt lat="41.8774600" lon="-8.8371220">
        <ele>4.2</ele>
        <time>2021-05-18T14:24:55Z</time>
      </trkpt>
      <trkpt lat="41.8774630" lon="-8.8371230">
        <ele>4.2</ele>
        <time>2021-05-18T14:24:56Z</time>
      </trkpt>
      <trkpt lat="41.8774640" lon="-8.8371200">
        <ele>4.2</ele>
        <time>2021-05-18T14:24:57Z</time>
      </trkpt>
      <trkpt lat="41.8774650" lon="-8.8371130">
        <ele>4.2</ele>
        <time>2021-05-18T14:24:58Z</time>
      </trkpt>
      <trkpt lat="41.8774650" lon="-8.8371130">
        <ele>4.2</ele>
        <time>2021-05-18T14:24:59Z</time>
      </trkpt>
      <trkpt lat="41.8774650" lon="-8.8371130">
        <ele>4.2</ele>
        <time>2021-05-18T14:25:00Z</time>
      </trkpt>
      <trkpt lat="41.8774650" lon="-8.8371130">
        <ele>4.2</ele>
        <time>2021-05-18T14:25:01Z</time>
      </trkpt>
      <trkpt lat="41.8774650" lon="-8.8371130">
        <ele>4.2</ele>
        <time>2021-05-18T14:25:02Z</time>
      </trkpt>
      <trkpt lat="41.8774620" lon="-8.8370790">
        <ele>4.2</ele>
        <time>2021-05-18T14:25:03Z</time>
      </trkpt>
      <trkpt lat="41.8774620" lon="-8.8370800">
        <ele>4.2</ele>
        <time>2021-05-18T14:25:04Z</time>
      </trkpt>
      <trkpt lat="41.8774620" lon="-8.8370650">
        <ele>4.2</ele>
        <time>2021-05-18T14:25:05Z</time>
      </trkpt>
      <trkpt lat="41.8774600" lon="-8.8370560">
        <ele>4.2</ele>
        <time>2021-05-18T14:25:06Z</time>
      </trkpt>
      <trkpt lat="41.8774600" lon="-8.8370500">
        <ele>4.2</ele>
        <time>2021-05-18T14:25:07Z</time>
      </trkpt>
      <trkpt lat="41.8774620" lon="-8.8370520">
        <ele>4.2</ele>
        <time>2021-05-18T14:25:08Z</time>
      </trkpt>
      <trkpt lat="41.8774620" lon="-8.8370490">
        <ele>4.2</ele>
        <time>2021-05-18T14:25:09Z</time>
      </trkpt>
      <trkpt lat="41.8774630" lon="-8.8370480">
        <ele>4.2</ele>
        <time>2021-05-18T14:25:10Z</time>
      </trkpt>
      <trkpt lat="41.8774640" lon="-8.8370430">
        <ele>4.2</ele>
        <time>2021-05-18T14:25:11Z</time>
      </trkpt>
      <trkpt lat="41.8774640" lon="-8.8370430">
        <ele>4.2</ele>
        <time>2021-05-18T14:25:12Z</time>
      </trkpt>
      <trkpt lat="41.8774640" lon="-8.8370460">
        <ele>4.2</ele>
        <time>2021-05-18T14:25:13Z</time>
      </trkpt>
      <trkpt lat="41.8774640" lon="-8.8370470">
        <ele>4.2</ele>
        <time>2021-05-18T14:25:14Z</time>
      </trkpt>
      <trkpt lat="41.8774650" lon="-8.8370460">
        <ele>4.2</ele>
        <time>2021-05-18T14:25:15Z</time>
      </trkpt>
      <trkpt lat="41.8774670" lon="-8.8370500">
        <ele>4.2</ele>
        <time>2021-05-18T14:25:16Z</time>
      </trkpt>
      <trkpt lat="41.8774670" lon="-8.8370550">
        <ele>4.2</ele>
        <time>2021-05-18T14:25:17Z</time>
      </trkpt>
      <trkpt lat="41.8774670" lon="-8.8370530">
        <ele>4.2</ele>
        <time>2021-05-18T14:25:18Z</time>
      </trkpt>
      <trkpt lat="41.8774670" lon="-8.8370530">
        <ele>4.2</ele>
        <time>2021-05-18T14:25:19Z</time>
      </trkpt>
      <trkpt lat="41.8774690" lon="-8.8370550">
        <ele>4.2</ele>
        <time>2021-05-18T14:25:20Z</time>
      </trkpt>
      <trkpt lat="41.8774710" lon="-8.8370610">
        <ele>4.2</ele>
        <time>2021-05-18T14:25:21Z</time>
      </trkpt>
      <trkpt lat="41.8774710" lon="-8.8370660">
        <ele>4.2</ele>
        <time>2021-05-18T14:25:22Z</time>
      </trkpt>
      <trkpt lat="41.8774700" lon="-8.8370670">
        <ele>4.2</ele>
        <time>2021-05-18T14:25:23Z</time>
      </trkpt>
      <trkpt lat="41.8774720" lon="-8.8370700">
        <ele>4.2</ele>
        <time>2021-05-18T14:25:24Z</time>
      </trkpt>
      <trkpt lat="41.8774700" lon="-8.8370720">
        <ele>4.2</ele>
        <time>2021-05-18T14:25:25Z</time>
      </trkpt>
      <trkpt lat="41.8774700" lon="-8.8370720">
        <ele>4.2</ele>
        <time>2021-05-18T14:25:26Z</time>
      </trkpt>
      <trkpt lat="41.8774700" lon="-8.8370720">
        <ele>4.1</ele>
        <time>2021-05-18T14:25:27Z</time>
      </trkpt>
      <trkpt lat="41.8774680" lon="-8.8370770">
        <ele>4.1</ele>
        <time>2021-05-18T14:25:28Z</time>
      </trkpt>
      <trkpt lat="41.8774680" lon="-8.8370770">
        <ele>4.1</ele>
        <time>2021-05-18T14:25:29Z</time>
      </trkpt>
      <trkpt lat="41.8774690" lon="-8.8370840">
        <ele>4.1</ele>
        <time>2021-05-18T14:25:30Z</time>
      </trkpt>
      <trkpt lat="41.8774700" lon="-8.8370880">
        <ele>4.1</ele>
        <time>2021-05-18T14:25:31Z</time>
      </trkpt>
      <trkpt lat="41.8774690" lon="-8.8370880">
        <ele>4.1</ele>
        <time>2021-05-18T14:25:32Z</time>
      </trkpt>
      <trkpt lat="41.8774690" lon="-8.8370910">
        <ele>4.1</ele>
        <time>2021-05-18T14:25:33Z</time>
      </trkpt>
      <trkpt lat="41.8774680" lon="-8.8370910">
        <ele>4.1</ele>
        <time>2021-05-18T14:25:34Z</time>
      </trkpt>
      <trkpt lat="41.8774680" lon="-8.8370910">
        <ele>4.1</ele>
        <time>2021-05-18T14:25:35Z</time>
      </trkpt>
      <trkpt lat="41.8774680" lon="-8.8370910">
        <ele>4.1</ele>
        <time>2021-05-18T14:25:36Z</time>
      </trkpt>
      <trkpt lat="41.8774620" lon="-8.8370840">
        <ele>4.1</ele>
        <time>2021-05-18T14:25:37Z</time>
      </trkpt>
      <trkpt lat="41.8774600" lon="-8.8370830">
        <ele>4.1</ele>
        <time>2021-05-18T14:25:38Z</time>
      </trkpt>
      <trkpt lat="41.8774580" lon="-8.8370780">
        <ele>4.1</ele>
        <time>2021-05-18T14:25:39Z</time>
      </trkpt>
      <trkpt lat="41.8774570" lon="-8.8370780">
        <ele>4.1</ele>
        <time>2021-05-18T14:25:40Z</time>
      </trkpt>
      <trkpt lat="41.8774570" lon="-8.8370800">
        <ele>4.1</ele>
        <time>2021-05-18T14:25:41Z</time>
      </trkpt>
      <trkpt lat="41.8774570" lon="-8.8370800">
        <ele>4.1</ele>
        <time>2021-05-18T14:25:42Z</time>
      </trkpt>
      <trkpt lat="41.8774550" lon="-8.8370740">
        <ele>4.1</ele>
        <time>2021-05-18T14:25:43Z</time>
      </trkpt>
      <trkpt lat="41.8774550" lon="-8.8370740">
        <ele>4.1</ele>
        <time>2021-05-18T14:25:44Z</time>
      </trkpt>
      <trkpt lat="41.8774550" lon="-8.8370740">
        <ele>4.1</ele>
        <time>2021-05-18T14:25:45Z</time>
      </trkpt>
      <trkpt lat="41.8774550" lon="-8.8370740">
        <ele>4.1</ele>
        <time>2021-05-18T14:25:46Z</time>
      </trkpt>
      <trkpt lat="41.8774510" lon="-8.8370650">
        <ele>4.1</ele>
        <time>2021-05-18T14:25:47Z</time>
      </trkpt>
      <trkpt lat="41.8774510" lon="-8.8370620">
        <ele>4.1</ele>
        <time>2021-05-18T14:25:48Z</time>
      </trkpt>
      <trkpt lat="41.8774500" lon="-8.8370600">
        <ele>4.1</ele>
        <time>2021-05-18T14:25:49Z</time>
      </trkpt>
      <trkpt lat="41.8774510" lon="-8.8370590">
        <ele>4.1</ele>
        <time>2021-05-18T14:25:50Z</time>
      </trkpt>
      <trkpt lat="41.8774510" lon="-8.8370590">
        <ele>4.1</ele>
        <time>2021-05-18T14:25:51Z</time>
      </trkpt>
      <trkpt lat="41.8774490" lon="-8.8370550">
        <ele>4.1</ele>
        <time>2021-05-18T14:25:52Z</time>
      </trkpt>
      <trkpt lat="41.8774500" lon="-8.8370550">
        <ele>4.1</ele>
        <time>2021-05-18T14:25:53Z</time>
      </trkpt>
      <trkpt lat="41.8774470" lon="-8.8370470">
        <ele>4.1</ele>
        <time>2021-05-18T14:25:54Z</time>
      </trkpt>
      <trkpt lat="41.8774480" lon="-8.8370470">
        <ele>4.1</ele>
        <time>2021-05-18T14:25:55Z</time>
      </trkpt>
      <trkpt lat="41.8774490" lon="-8.8370490">
        <ele>4.1</ele>
        <time>2021-05-18T14:25:56Z</time>
      </trkpt>
      <trkpt lat="41.8774470" lon="-8.8370470">
        <ele>4.1</ele>
        <time>2021-05-18T14:25:57Z</time>
      </trkpt>
      <trkpt lat="41.8774470" lon="-8.8370470">
        <ele>4.1</ele>
        <time>2021-05-18T14:25:58Z</time>
      </trkpt>
      <trkpt lat="41.8774470" lon="-8.8370470">
        <ele>4.1</ele>
        <time>2021-05-18T14:25:59Z</time>
      </trkpt>
      <trkpt lat="41.8774450" lon="-8.8370410">
        <ele>4.1</ele>
        <time>2021-05-18T14:26:00Z</time>
      </trkpt>
      <trkpt lat="41.8774450" lon="-8.8370450">
        <ele>4.1</ele>
        <time>2021-05-18T14:26:01Z</time>
      </trkpt>
      <trkpt lat="41.8774450" lon="-8.8370450">
        <ele>4.1</ele>
        <time>2021-05-18T14:26:02Z</time>
      </trkpt>
      <trkpt lat="41.8774450" lon="-8.8370450">
        <ele>4.1</ele>
        <time>2021-05-18T14:26:03Z</time>
      </trkpt>
      <trkpt lat="41.8774450" lon="-8.8370450">
        <ele>4.1</ele>
        <time>2021-05-18T14:26:04Z</time>
      </trkpt>
      <trkpt lat="41.8774450" lon="-8.8370450">
        <ele>4.1</ele>
        <time>2021-05-18T14:26:05Z</time>
      </trkpt>
      <trkpt lat="41.8774450" lon="-8.8370450">
        <ele>4.1</ele>
        <time>2021-05-18T14:26:06Z</time>
      </trkpt>
      <trkpt lat="41.8774480" lon="-8.8370540">
        <ele>4.1</ele>
        <time>2021-05-18T14:26:07Z</time>
      </trkpt>
      <trkpt lat="41.8774490" lon="-8.8370570">
        <ele>4.1</ele>
        <time>2021-05-18T14:26:08Z</time>
      </trkpt>
      <trkpt lat="41.8774430" lon="-8.8370480">
        <ele>4.1</ele>
        <time>2021-05-18T14:26:09Z</time>
      </trkpt>
      <trkpt lat="41.8774490" lon="-8.8370560">
        <ele>4.1</ele>
        <time>2021-05-18T14:26:10Z</time>
      </trkpt>
      <trkpt lat="41.8774480" lon="-8.8370570">
        <ele>4.1</ele>
        <time>2021-05-18T14:26:11Z</time>
      </trkpt>
      <trkpt lat="41.8774490" lon="-8.8370590">
        <ele>4.1</ele>
        <time>2021-05-18T14:26:12Z</time>
      </trkpt>
      <trkpt lat="41.8774490" lon="-8.8370570">
        <ele>4.1</ele>
        <time>2021-05-18T14:26:13Z</time>
      </trkpt>
      <trkpt lat="41.8774520" lon="-8.8370600">
        <ele>4.1</ele>
        <time>2021-05-18T14:26:14Z</time>
      </trkpt>
      <trkpt lat="41.8774540" lon="-8.8370660">
        <ele>4.1</ele>
        <time>2021-05-18T14:26:15Z</time>
      </trkpt>
      <trkpt lat="41.8774570" lon="-8.8370720">
        <ele>4.1</ele>
        <time>2021-05-18T14:26:16Z</time>
      </trkpt>
      <trkpt lat="41.8774570" lon="-8.8370710">
        <ele>4.1</ele>
        <time>2021-05-18T14:26:17Z</time>
      </trkpt>
      <trkpt lat="41.8774600" lon="-8.8370830">
        <ele>4.1</ele>
        <time>2021-05-18T14:26:18Z</time>
      </trkpt>
      <trkpt lat="41.8774610" lon="-8.8370900">
        <ele>4.1</ele>
        <time>2021-05-18T14:26:19Z</time>
      </trkpt>
      <trkpt lat="41.8774620" lon="-8.8370920">
        <ele>4.1</ele>
        <time>2021-05-18T14:26:20Z</time>
      </trkpt>
      <trkpt lat="41.8774640" lon="-8.8370870">
        <ele>4.1</ele>
        <time>2021-05-18T14:26:21Z</time>
      </trkpt>
      <trkpt lat="41.8774630" lon="-8.8370780">
        <ele>4.1</ele>
        <time>2021-05-18T14:26:22Z</time>
      </trkpt>
      <trkpt lat="41.8774620" lon="-8.8370750">
        <ele>4.1</ele>
        <time>2021-05-18T14:26:23Z</time>
      </trkpt>
      <trkpt lat="41.8774620" lon="-8.8370830">
        <ele>4.1</ele>
        <time>2021-05-18T14:26:24Z</time>
      </trkpt>
      <trkpt lat="41.8774620" lon="-8.8370820">
        <ele>4.1</ele>
        <time>2021-05-18T14:26:25Z</time>
      </trkpt>
      <trkpt lat="41.8774580" lon="-8.8370750">
        <ele>4.1</ele>
        <time>2021-05-18T14:26:26Z</time>
      </trkpt>
      <trkpt lat="41.8774580" lon="-8.8370700">
        <ele>4.1</ele>
        <time>2021-05-18T14:26:27Z</time>
      </trkpt>
      <trkpt lat="41.8774570" lon="-8.8370710">
        <ele>4.1</ele>
        <time>2021-05-18T14:26:28Z</time>
      </trkpt>
      <trkpt lat="41.8774590" lon="-8.8370700">
        <ele>4.1</ele>
        <time>2021-05-18T14:26:29Z</time>
      </trkpt>
      <trkpt lat="41.8774600" lon="-8.8370720">
        <ele>4.1</ele>
        <time>2021-05-18T14:26:30Z</time>
      </trkpt>
      <trkpt lat="41.8774600" lon="-8.8370720">
        <ele>4.1</ele>
        <time>2021-05-18T14:26:31Z</time>
      </trkpt>
      <trkpt lat="41.8774610" lon="-8.8370850">
        <ele>4.1</ele>
        <time>2021-05-18T14:26:32Z</time>
      </trkpt>
      <trkpt lat="41.8774600" lon="-8.8370810">
        <ele>4.1</ele>
        <time>2021-05-18T14:26:33Z</time>
      </trkpt>
      <trkpt lat="41.8774600" lon="-8.8370870">
        <ele>4.1</ele>
        <time>2021-05-18T14:26:34Z</time>
      </trkpt>
      <trkpt lat="41.8774600" lon="-8.8370850">
        <ele>4.1</ele>
        <time>2021-05-18T14:26:35Z</time>
      </trkpt>
      <trkpt lat="41.8774580" lon="-8.8370800">
        <ele>4.1</ele>
        <time>2021-05-18T14:26:36Z</time>
      </trkpt>
      <trkpt lat="41.8774560" lon="-8.8370760">
        <ele>4.1</ele>
        <time>2021-05-18T14:26:37Z</time>
      </trkpt>
      <trkpt lat="41.8774520" lon="-8.8370680">
        <ele>4.1</ele>
        <time>2021-05-18T14:26:38Z</time>
      </trkpt>
      <trkpt lat="41.8774520" lon="-8.8370680">
        <ele>4.1</ele>
        <time>2021-05-18T14:26:39Z</time>
      </trkpt>
      <trkpt lat="41.8774470" lon="-8.8370560">
        <ele>4.1</ele>
        <time>2021-05-18T14:26:40Z</time>
      </trkpt>
      <trkpt lat="41.8774450" lon="-8.8370510">
        <ele>4.1</ele>
        <time>2021-05-18T14:26:41Z</time>
      </trkpt>
      <trkpt lat="41.8774450" lon="-8.8370480">
        <ele>4.1</ele>
        <time>2021-05-18T14:26:42Z</time>
      </trkpt>
      <trkpt lat="41.8774450" lon="-8.8370450">
        <ele>4.1</ele>
        <time>2021-05-18T14:26:43Z</time>
      </trkpt>
      <trkpt lat="41.8774450" lon="-8.8370410">
        <ele>4.1</ele>
        <time>2021-05-18T14:26:44Z</time>
      </trkpt>
      <trkpt lat="41.8774440" lon="-8.8370380">
        <ele>4.1</ele>
        <time>2021-05-18T14:26:45Z</time>
      </trkpt>
      <trkpt lat="41.8774440" lon="-8.8370350">
        <ele>4.1</ele>
        <time>2021-05-18T14:26:46Z</time>
      </trkpt>
      <trkpt lat="41.8774440" lon="-8.8370320">
        <ele>4.1</ele>
        <time>2021-05-18T14:26:47Z</time>
      </trkpt>
      <trkpt lat="41.8774440" lon="-8.8370290">
        <ele>4.1</ele>
        <time>2021-05-18T14:26:48Z</time>
      </trkpt>
      <trkpt lat="41.8774440" lon="-8.8370260">
        <ele>4.1</ele>
        <time>2021-05-18T14:26:49Z</time>
      </trkpt>
      <trkpt lat="41.8774440" lon="-8.8370220">
        <ele>4.1</ele>
        <time>2021-05-18T14:26:50Z</time>
      </trkpt>
      <trkpt lat="41.8774440" lon="-8.8370190">
        <ele>4.1</ele>
        <time>2021-05-18T14:26:51Z</time>
      </trkpt>
      <trkpt lat="41.8774440" lon="-8.8370160">
        <ele>4.1</ele>
        <time>2021-05-18T14:26:52Z</time>
      </trkpt>
      <trkpt lat="41.8774440" lon="-8.8370130">
        <ele>4.1</ele>
        <time>2021-05-18T14:26:53Z</time>
      </trkpt>
      <trkpt lat="41.8774440" lon="-8.8370100">
        <ele>4.1</ele>
        <time>2021-05-18T14:26:54Z</time>
      </trkpt>
      <trkpt lat="41.8774430" lon="-8.8370070">
        <ele>4.1</ele>
        <time>2021-05-18T14:26:55Z</time>
      </trkpt>
      <trkpt lat="41.8774430" lon="-8.8370030">
        <ele>4.2</ele>
        <time>2021-05-18T14:26:56Z</time>
      </trkpt>
      <trkpt lat="41.8774430" lon="-8.8370000">
        <ele>4.2</ele>
        <time>2021-05-18T14:26:57Z</time>
      </trkpt>
      <trkpt lat="41.8774430" lon="-8.8369970">
        <ele>4.2</ele>
        <time>2021-05-18T14:26:58Z</time>
      </trkpt>
      <trkpt lat="41.8774430" lon="-8.8369940">
        <ele>4.2</ele>
        <time>2021-05-18T14:26:59Z</time>
      </trkpt>
      <trkpt lat="41.8774430" lon="-8.8369940">
        <ele>4.2</ele>
        <time>2021-05-18T14:27:00Z</time>
      </trkpt>
      <trkpt lat="41.8774450" lon="-8.8369920">
        <ele>4.2</ele>
        <time>2021-05-18T14:27:01Z</time>
      </trkpt>
      <trkpt lat="41.8774450" lon="-8.8369920">
        <ele>4.2</ele>
        <time>2021-05-18T14:27:02Z</time>
      </trkpt>
      <trkpt lat="41.8774450" lon="-8.8369920">
        <ele>4.2</ele>
        <time>2021-05-18T14:27:03Z</time>
      </trkpt>
      <trkpt lat="41.8774450" lon="-8.8369920">
        <ele>4.2</ele>
        <time>2021-05-18T14:27:04Z</time>
      </trkpt>
      <trkpt lat="41.8774450" lon="-8.8369920">
        <ele>4.2</ele>
        <time>2021-05-18T14:27:05Z</time>
      </trkpt>
      <trkpt lat="41.8774450" lon="-8.8369920">
        <ele>4.2</ele>
        <time>2021-05-18T14:27:06Z</time>
      </trkpt>
      <trkpt lat="41.8774450" lon="-8.8369920">
        <ele>4.2</ele>
        <time>2021-05-18T14:27:07Z</time>
      </trkpt>
      <trkpt lat="41.8774450" lon="-8.8369920">
        <ele>4.2</ele>
        <time>2021-05-18T14:27:08Z</time>
      </trkpt>
      <trkpt lat="41.8774450" lon="-8.8369920">
        <ele>4.2</ele>
        <time>2021-05-18T14:27:09Z</time>
      </trkpt>
      <trkpt lat="41.8774450" lon="-8.8369920">
        <ele>4.2</ele>
        <time>2021-05-18T14:27:10Z</time>
      </trkpt>
      <trkpt lat="41.8774450" lon="-8.8369920">
        <ele>4.2</ele>
        <time>2021-05-18T14:27:11Z</time>
      </trkpt>
      <trkpt lat="41.8774450" lon="-8.8369920">
        <ele>4.2</ele>
        <time>2021-05-18T14:27:12Z</time>
      </trkpt>
      <trkpt lat="41.8774450" lon="-8.8369920">
        <ele>4.2</ele>
        <time>2021-05-18T14:27:13Z</time>
      </trkpt>
      <trkpt lat="41.8774600" lon="-8.8370100">
        <ele>4.2</ele>
        <time>2021-05-18T14:27:14Z</time>
      </trkpt>
      <trkpt lat="41.8774590" lon="-8.8370120">
        <ele>4.2</ele>
        <time>2021-05-18T14:27:15Z</time>
      </trkpt>
      <trkpt lat="41.8774600" lon="-8.8370140">
        <ele>4.2</ele>
        <time>2021-05-18T14:27:16Z</time>
      </trkpt>
      <trkpt lat="41.8774630" lon="-8.8370210">
        <ele>4.2</ele>
        <time>2021-05-18T14:27:17Z</time>
      </trkpt>
      <trkpt lat="41.8774660" lon="-8.8370290">
        <ele>4.2</ele>
        <time>2021-05-18T14:27:18Z</time>
      </trkpt>
      <trkpt lat="41.8774670" lon="-8.8370290">
        <ele>4.2</ele>
        <time>2021-05-18T14:27:19Z</time>
      </trkpt>
      <trkpt lat="41.8774670" lon="-8.8370300">
        <ele>4.2</ele>
        <time>2021-05-18T14:27:20Z</time>
      </trkpt>
      <trkpt lat="41.8774670" lon="-8.8370310">
        <ele>4.2</ele>
        <time>2021-05-18T14:27:21Z</time>
      </trkpt>
      <trkpt lat="41.8774680" lon="-8.8370310">
        <ele>4.2</ele>
        <time>2021-05-18T14:27:22Z</time>
      </trkpt>
      <trkpt lat="41.8774680" lon="-8.8370320">
        <ele>4.2</ele>
        <time>2021-05-18T14:27:23Z</time>
      </trkpt>
      <trkpt lat="41.8774680" lon="-8.8370330">
        <ele>4.2</ele>
        <time>2021-05-18T14:27:24Z</time>
      </trkpt>
      <trkpt lat="41.8774690" lon="-8.8370330">
        <ele>4.2</ele>
        <time>2021-05-18T14:27:25Z</time>
      </trkpt>
      <trkpt lat="41.8774690" lon="-8.8370340">
        <ele>4.2</ele>
        <time>2021-05-18T14:27:26Z</time>
      </trkpt>
      <trkpt lat="41.8774700" lon="-8.8370350">
        <ele>4.2</ele>
        <time>2021-05-18T14:27:27Z</time>
      </trkpt>
      <trkpt lat="41.8774700" lon="-8.8370350">
        <ele>4.2</ele>
        <time>2021-05-18T14:27:28Z</time>
      </trkpt>
      <trkpt lat="41.8774700" lon="-8.8370360">
        <ele>4.2</ele>
        <time>2021-05-18T14:27:29Z</time>
      </trkpt>
      <trkpt lat="41.8774710" lon="-8.8370370">
        <ele>4.2</ele>
        <time>2021-05-18T14:27:30Z</time>
      </trkpt>
      <trkpt lat="41.8774710" lon="-8.8370370">
        <ele>4.2</ele>
        <time>2021-05-18T14:27:31Z</time>
      </trkpt>
      <trkpt lat="41.8774710" lon="-8.8370380">
        <ele>4.2</ele>
        <time>2021-05-18T14:27:32Z</time>
      </trkpt>
      <trkpt lat="41.8774720" lon="-8.8370390">
        <ele>4.2</ele>
        <time>2021-05-18T14:27:33Z</time>
      </trkpt>
      <trkpt lat="41.8774720" lon="-8.8370390">
        <ele>4.2</ele>
        <time>2021-05-18T14:27:34Z</time>
      </trkpt>
      <trkpt lat="41.8774720" lon="-8.8370400">
        <ele>4.2</ele>
        <time>2021-05-18T14:27:35Z</time>
      </trkpt>
      <trkpt lat="41.8774730" lon="-8.8370410">
        <ele>4.2</ele>
        <time>2021-05-18T14:27:36Z</time>
      </trkpt>
      <trkpt lat="41.8774730" lon="-8.8370410">
        <ele>4.2</ele>
        <time>2021-05-18T14:27:37Z</time>
      </trkpt>
      <trkpt lat="41.8774730" lon="-8.8370420">
        <ele>4.2</ele>
        <time>2021-05-18T14:27:38Z</time>
      </trkpt>
      <trkpt lat="41.8774740" lon="-8.8370430">
        <ele>4.2</ele>
        <time>2021-05-18T14:27:39Z</time>
      </trkpt>
      <trkpt lat="41.8774740" lon="-8.8370430">
        <ele>4.2</ele>
        <time>2021-05-18T14:27:40Z</time>
      </trkpt>
      <trkpt lat="41.8774740" lon="-8.8370440">
        <ele>4.2</ele>
        <time>2021-05-18T14:27:41Z</time>
      </trkpt>
      <trkpt lat="41.8774750" lon="-8.8370450">
        <ele>4.2</ele>
        <time>2021-05-18T14:27:42Z</time>
      </trkpt>
      <trkpt lat="41.8774750" lon="-8.8370450">
        <ele>4.2</ele>
        <time>2021-05-18T14:27:43Z</time>
      </trkpt>
      <trkpt lat="41.8774760" lon="-8.8370460">
        <ele>4.2</ele>
        <time>2021-05-18T14:27:44Z</time>
      </trkpt>
      <trkpt lat="41.8774760" lon="-8.8370470">
        <ele>4.2</ele>
        <time>2021-05-18T14:27:45Z</time>
      </trkpt>
      <trkpt lat="41.8774760" lon="-8.8370470">
        <ele>4.2</ele>
        <time>2021-05-18T14:27:46Z</time>
      </trkpt>
      <trkpt lat="41.8774770" lon="-8.8370480">
        <ele>4.2</ele>
        <time>2021-05-18T14:27:47Z</time>
      </trkpt>
      <trkpt lat="41.8774770" lon="-8.8370490">
        <ele>4.2</ele>
        <time>2021-05-18T14:27:48Z</time>
      </trkpt>
      <trkpt lat="41.8774770" lon="-8.8370490">
        <ele>4.2</ele>
        <time>2021-05-18T14:27:49Z</time>
      </trkpt>
      <trkpt lat="41.8774780" lon="-8.8370500">
        <ele>4.2</ele>
        <time>2021-05-18T14:27:50Z</time>
      </trkpt>
      <trkpt lat="41.8774780" lon="-8.8370500">
        <ele>4.2</ele>
        <time>2021-05-18T14:27:51Z</time>
      </trkpt>
      <trkpt lat="41.8774780" lon="-8.8370510">
        <ele>4.2</ele>
        <time>2021-05-18T14:27:52Z</time>
      </trkpt>
      <trkpt lat="41.8774790" lon="-8.8370520">
        <ele>4.2</ele>
        <time>2021-05-18T14:27:53Z</time>
      </trkpt>
      <trkpt lat="41.8774790" lon="-8.8370520">
        <ele>4.2</ele>
        <time>2021-05-18T14:27:54Z</time>
      </trkpt>
      <trkpt lat="41.8774790" lon="-8.8370530">
        <ele>4.2</ele>
        <time>2021-05-18T14:27:55Z</time>
      </trkpt>
      <trkpt lat="41.8774800" lon="-8.8370540">
        <ele>4.2</ele>
        <time>2021-05-18T14:27:56Z</time>
      </trkpt>
      <trkpt lat="41.8774800" lon="-8.8370540">
        <ele>4.2</ele>
        <time>2021-05-18T14:27:57Z</time>
      </trkpt>
      <trkpt lat="41.8774800" lon="-8.8370550">
        <ele>4.2</ele>
        <time>2021-05-18T14:27:58Z</time>
      </trkpt>
      <trkpt lat="41.8774810" lon="-8.8370560">
        <ele>4.2</ele>
        <time>2021-05-18T14:27:59Z</time>
      </trkpt>
      <trkpt lat="41.8774810" lon="-8.8370560">
        <ele>4.2</ele>
        <time>2021-05-18T14:28:00Z</time>
      </trkpt>
      <trkpt lat="41.8774820" lon="-8.8370570">
        <ele>4.2</ele>
        <time>2021-05-18T14:28:01Z</time>
      </trkpt>
      <trkpt lat="41.8774820" lon="-8.8370580">
        <ele>4.2</ele>
        <time>2021-05-18T14:28:02Z</time>
      </trkpt>
      <trkpt lat="41.8774820" lon="-8.8370580">
        <ele>4.2</ele>
        <time>2021-05-18T14:28:03Z</time>
      </trkpt>
      <trkpt lat="41.8774830" lon="-8.8370590">
        <ele>4.2</ele>
        <time>2021-05-18T14:28:04Z</time>
      </trkpt>
      <trkpt lat="41.8774830" lon="-8.8370600">
        <ele>4.2</ele>
        <time>2021-05-18T14:28:05Z</time>
      </trkpt>
      <trkpt lat="41.8774830" lon="-8.8370600">
        <ele>4.2</ele>
        <time>2021-05-18T14:28:06Z</time>
      </trkpt>
      <trkpt lat="41.8774840" lon="-8.8370610">
        <ele>4.2</ele>
        <time>2021-05-18T14:28:07Z</time>
      </trkpt>
      <trkpt lat="41.8774840" lon="-8.8370620">
        <ele>4.2</ele>
        <time>2021-05-18T14:28:08Z</time>
      </trkpt>
      <trkpt lat="41.8774840" lon="-8.8370620">
        <ele>4.2</ele>
        <time>2021-05-18T14:28:09Z</time>
      </trkpt>
      <trkpt lat="41.8774850" lon="-8.8370630">
        <ele>4.2</ele>
        <time>2021-05-18T14:28:10Z</time>
      </trkpt>
      <trkpt lat="41.8774850" lon="-8.8370640">
        <ele>4.2</ele>
        <time>2021-05-18T14:28:11Z</time>
      </trkpt>
      <trkpt lat="41.8774850" lon="-8.8370640">
        <ele>4.2</ele>
        <time>2021-05-18T14:28:12Z</time>
      </trkpt>
      <trkpt lat="41.8774860" lon="-8.8370650">
        <ele>4.2</ele>
        <time>2021-05-18T14:28:13Z</time>
      </trkpt>
      <trkpt lat="41.8774860" lon="-8.8370660">
        <ele>4.2</ele>
        <time>2021-05-18T14:28:14Z</time>
      </trkpt>
      <trkpt lat="41.8774860" lon="-8.8370660">
        <ele>4.2</ele>
        <time>2021-05-18T14:28:15Z</time>
      </trkpt>
      <trkpt lat="41.8774870" lon="-8.8370670">
        <ele>4.2</ele>
        <time>2021-05-18T14:28:16Z</time>
      </trkpt>
      <trkpt lat="41.8774870" lon="-8.8370680">
        <ele>4.2</ele>
        <time>2021-05-18T14:28:17Z</time>
      </trkpt>
      <trkpt lat="41.8774880" lon="-8.8370680">
        <ele>4.2</ele>
        <time>2021-05-18T14:28:18Z</time>
      </trkpt>
      <trkpt lat="41.8774880" lon="-8.8370690">
        <ele>4.2</ele>
        <time>2021-05-18T14:28:19Z</time>
      </trkpt>
      <trkpt lat="41.8774880" lon="-8.8370700">
        <ele>4.2</ele>
        <time>2021-05-18T14:28:20Z</time>
      </trkpt>
      <trkpt lat="41.8774890" lon="-8.8370700">
        <ele>4.2</ele>
        <time>2021-05-18T14:28:21Z</time>
      </trkpt>
      <trkpt lat="41.8774890" lon="-8.8370710">
        <ele>4.2</ele>
        <time>2021-05-18T14:28:22Z</time>
      </trkpt>
      <trkpt lat="41.8774890" lon="-8.8370720">
        <ele>4.2</ele>
        <time>2021-05-18T14:28:23Z</time>
      </trkpt>
      <trkpt lat="41.8774900" lon="-8.8370720">
        <ele>4.2</ele>
        <time>2021-05-18T14:28:24Z</time>
      </trkpt>
      <trkpt lat="41.8774900" lon="-8.8370730">
        <ele>4.2</ele>
        <time>2021-05-18T14:28:25Z</time>
      </trkpt>
      <trkpt lat="41.8774920" lon="-8.8370780">
        <ele>4.2</ele>
        <time>2021-05-18T14:28:26Z</time>
      </trkpt>
      <trkpt lat="41.8774920" lon="-8.8370780">
        <ele>4.2</ele>
        <time>2021-05-18T14:28:27Z</time>
      </trkpt>
      <trkpt lat="41.8774920" lon="-8.8370780">
        <ele>4.2</ele>
        <time>2021-05-18T14:28:28Z</time>
      </trkpt>
      <trkpt lat="41.8774950" lon="-8.8370960">
        <ele>4.2</ele>
        <time>2021-05-18T14:28:29Z</time>
      </trkpt>
      <trkpt lat="41.8774960" lon="-8.8370950">
        <ele>4.2</ele>
        <time>2021-05-18T14:28:30Z</time>
      </trkpt>
      <trkpt lat="41.8774930" lon="-8.8370920">
        <ele>4.2</ele>
        <time>2021-05-18T14:28:31Z</time>
      </trkpt>
      <trkpt lat="41.8774920" lon="-8.8370940">
        <ele>4.2</ele>
        <time>2021-05-18T14:28:32Z</time>
      </trkpt>
      <trkpt lat="41.8774920" lon="-8.8370940">
        <ele>4.2</ele>
        <time>2021-05-18T14:28:33Z</time>
      </trkpt>
      <trkpt lat="41.8774920" lon="-8.8370990">
        <ele>4.2</ele>
        <time>2021-05-18T14:28:34Z</time>
      </trkpt>
      <trkpt lat="41.8774920" lon="-8.8370990">
        <ele>4.2</ele>
        <time>2021-05-18T14:28:35Z</time>
      </trkpt>
      <trkpt lat="41.8774940" lon="-8.8371010">
        <ele>4.2</ele>
        <time>2021-05-18T14:28:36Z</time>
      </trkpt>
      <trkpt lat="41.8774930" lon="-8.8371020">
        <ele>4.2</ele>
        <time>2021-05-18T14:28:37Z</time>
      </trkpt>
      <trkpt lat="41.8774960" lon="-8.8371060">
        <ele>4.2</ele>
        <time>2021-05-18T14:28:38Z</time>
      </trkpt>
      <trkpt lat="41.8774940" lon="-8.8371060">
        <ele>4.2</ele>
        <time>2021-05-18T14:28:39Z</time>
      </trkpt>
      <trkpt lat="41.8774920" lon="-8.8371040">
        <ele>4.2</ele>
        <time>2021-05-18T14:28:40Z</time>
      </trkpt>
      <trkpt lat="41.8774910" lon="-8.8371020">
        <ele>4.2</ele>
        <time>2021-05-18T14:28:41Z</time>
      </trkpt>
      <trkpt lat="41.8774900" lon="-8.8371020">
        <ele>4.2</ele>
        <time>2021-05-18T14:28:42Z</time>
      </trkpt>
      <trkpt lat="41.8774850" lon="-8.8370990">
        <ele>4.2</ele>
        <time>2021-05-18T14:28:43Z</time>
      </trkpt>
      <trkpt lat="41.8774850" lon="-8.8370990">
        <ele>4.2</ele>
        <time>2021-05-18T14:28:44Z</time>
      </trkpt>
      <trkpt lat="41.8774850" lon="-8.8370990">
        <ele>4.2</ele>
        <time>2021-05-18T14:28:45Z</time>
      </trkpt>
      <trkpt lat="41.8774750" lon="-8.8371030">
        <ele>4.2</ele>
        <time>2021-05-18T14:28:46Z</time>
      </trkpt>
      <trkpt lat="41.8774750" lon="-8.8371020">
        <ele>4.2</ele>
        <time>2021-05-18T14:28:47Z</time>
      </trkpt>
      <trkpt lat="41.8774720" lon="-8.8371040">
        <ele>4.2</ele>
        <time>2021-05-18T14:28:48Z</time>
      </trkpt>
      <trkpt lat="41.8774720" lon="-8.8371040">
        <ele>4.2</ele>
        <time>2021-05-18T14:28:49Z</time>
      </trkpt>
      <trkpt lat="41.8774720" lon="-8.8371040">
        <ele>4.2</ele>
        <time>2021-05-18T14:28:50Z</time>
      </trkpt>
      <trkpt lat="41.8774720" lon="-8.8371040">
        <ele>4.2</ele>
        <time>2021-05-18T14:28:51Z</time>
      </trkpt>
      <trkpt lat="41.8774720" lon="-8.8371040">
        <ele>4.2</ele>
        <time>2021-05-18T14:28:52Z</time>
      </trkpt>
      <trkpt lat="41.8774720" lon="-8.8371040">
        <ele>4.2</ele>
        <time>2021-05-18T14:28:53Z</time>
      </trkpt>
      <trkpt lat="41.8774720" lon="-8.8371040">
        <ele>4.2</ele>
        <time>2021-05-18T14:28:54Z</time>
      </trkpt>
      <trkpt lat="41.8774720" lon="-8.8371040">
        <ele>4.2</ele>
        <time>2021-05-18T14:28:55Z</time>
      </trkpt>
      <trkpt lat="41.8774720" lon="-8.8371040">
        <ele>4.2</ele>
        <time>2021-05-18T14:28:56Z</time>
      </trkpt>
      <trkpt lat="41.8774720" lon="-8.8371040">
        <ele>4.2</ele>
        <time>2021-05-18T14:28:57Z</time>
      </trkpt>
      <trkpt lat="41.8774640" lon="-8.8371170">
        <ele>4.2</ele>
        <time>2021-05-18T14:28:58Z</time>
      </trkpt>
      <trkpt lat="41.8774640" lon="-8.8371170">
        <ele>4.2</ele>
        <time>2021-05-18T14:28:59Z</time>
      </trkpt>
      <trkpt lat="41.8774640" lon="-8.8371140">
        <ele>4.2</ele>
        <time>2021-05-18T14:29:00Z</time>
      </trkpt>
      <trkpt lat="41.8774610" lon="-8.8371090">
        <ele>4.2</ele>
        <time>2021-05-18T14:29:01Z</time>
      </trkpt>
      <trkpt lat="41.8774610" lon="-8.8371090">
        <ele>4.2</ele>
        <time>2021-05-18T14:29:02Z</time>
      </trkpt>
      <trkpt lat="41.8774610" lon="-8.8371090">
        <ele>4.2</ele>
        <time>2021-05-18T14:29:03Z</time>
      </trkpt>
      <trkpt lat="41.8774580" lon="-8.8371020">
        <ele>4.2</ele>
        <time>2021-05-18T14:29:04Z</time>
      </trkpt>
      <trkpt lat="41.8774580" lon="-8.8371020">
        <ele>4.2</ele>
        <time>2021-05-18T14:29:05Z</time>
      </trkpt>
      <trkpt lat="41.8774570" lon="-8.8371020">
        <ele>4.2</ele>
        <time>2021-05-18T14:29:06Z</time>
      </trkpt>
      <trkpt lat="41.8774540" lon="-8.8370910">
        <ele>4.2</ele>
        <time>2021-05-18T14:29:07Z</time>
      </trkpt>
      <trkpt lat="41.8774540" lon="-8.8370910">
        <ele>4.2</ele>
        <time>2021-05-18T14:29:08Z</time>
      </trkpt>
      <trkpt lat="41.8774500" lon="-8.8370810">
        <ele>4.2</ele>
        <time>2021-05-18T14:29:09Z</time>
      </trkpt>
      <trkpt lat="41.8774450" lon="-8.8370700">
        <ele>4.2</ele>
        <time>2021-05-18T14:29:10Z</time>
      </trkpt>
      <trkpt lat="41.8774450" lon="-8.8370700">
        <ele>4.2</ele>
        <time>2021-05-18T14:29:11Z</time>
      </trkpt>
      <trkpt lat="41.8774420" lon="-8.8370530">
        <ele>4.2</ele>
        <time>2021-05-18T14:29:12Z</time>
      </trkpt>
      <trkpt lat="41.8774410" lon="-8.8370440">
        <ele>4.2</ele>
        <time>2021-05-18T14:29:13Z</time>
      </trkpt>
      <trkpt lat="41.8774400" lon="-8.8370370">
        <ele>4.2</ele>
        <time>2021-05-18T14:29:14Z</time>
      </trkpt>
      <trkpt lat="41.8774390" lon="-8.8370300">
        <ele>4.2</ele>
        <time>2021-05-18T14:29:15Z</time>
      </trkpt>
      <trkpt lat="41.8774380" lon="-8.8370270">
        <ele>4.2</ele>
        <time>2021-05-18T14:29:16Z</time>
      </trkpt>
      <trkpt lat="41.8774390" lon="-8.8370270">
        <ele>4.2</ele>
        <time>2021-05-18T14:29:17Z</time>
      </trkpt>
      <trkpt lat="41.8774390" lon="-8.8370270">
        <ele>4.2</ele>
        <time>2021-05-18T14:29:18Z</time>
      </trkpt>
      <trkpt lat="41.8774390" lon="-8.8370210">
        <ele>4.2</ele>
        <time>2021-05-18T14:29:19Z</time>
      </trkpt>
      <trkpt lat="41.8774390" lon="-8.8370210">
        <ele>4.2</ele>
        <time>2021-05-18T14:29:20Z</time>
      </trkpt>
      <trkpt lat="41.8774450" lon="-8.8370170">
        <ele>4.2</ele>
        <time>2021-05-18T14:29:21Z</time>
      </trkpt>
      <trkpt lat="41.8774450" lon="-8.8370170">
        <ele>4.2</ele>
        <time>2021-05-18T14:29:22Z</time>
      </trkpt>
      <trkpt lat="41.8774450" lon="-8.8370170">
        <ele>4.2</ele>
        <time>2021-05-18T14:29:23Z</time>
      </trkpt>
      <trkpt lat="41.8774460" lon="-8.8370150">
        <ele>4.2</ele>
        <time>2021-05-18T14:29:24Z</time>
      </trkpt>
      <trkpt lat="41.8774460" lon="-8.8370150">
        <ele>4.2</ele>
        <time>2021-05-18T14:29:25Z</time>
      </trkpt>
      <trkpt lat="41.8774430" lon="-8.8370040">
        <ele>4.2</ele>
        <time>2021-05-18T14:29:26Z</time>
      </trkpt>
      <trkpt lat="41.8774410" lon="-8.8370070">
        <ele>4.2</ele>
        <time>2021-05-18T14:29:27Z</time>
      </trkpt>
      <trkpt lat="41.8774400" lon="-8.8370080">
        <ele>4.2</ele>
        <time>2021-05-18T14:29:28Z</time>
      </trkpt>
      <trkpt lat="41.8774400" lon="-8.8370080">
        <ele>4.2</ele>
        <time>2021-05-18T14:29:29Z</time>
      </trkpt>
      <trkpt lat="41.8774400" lon="-8.8370080">
        <ele>4.2</ele>
        <time>2021-05-18T14:29:30Z</time>
      </trkpt>
      <trkpt lat="41.8774420" lon="-8.8370140">
        <ele>4.2</ele>
        <time>2021-05-18T14:29:31Z</time>
      </trkpt>
      <trkpt lat="41.8774430" lon="-8.8370170">
        <ele>4.2</ele>
        <time>2021-05-18T14:29:32Z</time>
      </trkpt>
      <trkpt lat="41.8774460" lon="-8.8370190">
        <ele>4.2</ele>
        <time>2021-05-18T14:29:33Z</time>
      </trkpt>
      <trkpt lat="41.8774460" lon="-8.8370190">
        <ele>4.2</ele>
        <time>2021-05-18T14:29:34Z</time>
      </trkpt>
      <trkpt lat="41.8774440" lon="-8.8370180">
        <ele>4.2</ele>
        <time>2021-05-18T14:29:35Z</time>
      </trkpt>
      <trkpt lat="41.8774470" lon="-8.8370180">
        <ele>4.2</ele>
        <time>2021-05-18T14:29:36Z</time>
      </trkpt>
      <trkpt lat="41.8774500" lon="-8.8370190">
        <ele>4.2</ele>
        <time>2021-05-18T14:29:37Z</time>
      </trkpt>
      <trkpt lat="41.8774520" lon="-8.8370190">
        <ele>4.2</ele>
        <time>2021-05-18T14:29:38Z</time>
      </trkpt>
      <trkpt lat="41.8774520" lon="-8.8370190">
        <ele>4.2</ele>
        <time>2021-05-18T14:29:39Z</time>
      </trkpt>
      <trkpt lat="41.8774530" lon="-8.8370200">
        <ele>4.2</ele>
        <time>2021-05-18T14:29:40Z</time>
      </trkpt>
      <trkpt lat="41.8774530" lon="-8.8370200">
        <ele>4.2</ele>
        <time>2021-05-18T14:29:41Z</time>
      </trkpt>
      <trkpt lat="41.8774530" lon="-8.8370200">
        <ele>4.2</ele>
        <time>2021-05-18T14:29:42Z</time>
      </trkpt>
      <trkpt lat="41.8774550" lon="-8.8370210">
        <ele>4.2</ele>
        <time>2021-05-18T14:29:43Z</time>
      </trkpt>
      <trkpt lat="41.8774550" lon="-8.8370210">
        <ele>4.2</ele>
        <time>2021-05-18T14:29:44Z</time>
      </trkpt>
      <trkpt lat="41.8774550" lon="-8.8370210">
        <ele>4.2</ele>
        <time>2021-05-18T14:29:45Z</time>
      </trkpt>
      <trkpt lat="41.8774550" lon="-8.8370190">
        <ele>4.2</ele>
        <time>2021-05-18T14:29:46Z</time>
      </trkpt>
      <trkpt lat="41.8774540" lon="-8.8370170">
        <ele>4.2</ele>
        <time>2021-05-18T14:29:47Z</time>
      </trkpt>
      <trkpt lat="41.8774540" lon="-8.8370170">
        <ele>4.2</ele>
        <time>2021-05-18T14:29:48Z</time>
      </trkpt>
      <trkpt lat="41.8774500" lon="-8.8370120">
        <ele>4.2</ele>
        <time>2021-05-18T14:29:49Z</time>
      </trkpt>
      <trkpt lat="41.8774500" lon="-8.8370120">
        <ele>4.2</ele>
        <time>2021-05-18T14:29:50Z</time>
      </trkpt>
      <trkpt lat="41.8774500" lon="-8.8370120">
        <ele>4.2</ele>
        <time>2021-05-18T14:29:51Z</time>
      </trkpt>
      <trkpt lat="41.8774500" lon="-8.8370120">
        <ele>4.2</ele>
        <time>2021-05-18T14:29:52Z</time>
      </trkpt>
      <trkpt lat="41.8774500" lon="-8.8370120">
        <ele>4.2</ele>
        <time>2021-05-18T14:29:53Z</time>
      </trkpt>
      <trkpt lat="41.8774500" lon="-8.8370120">
        <ele>4.2</ele>
        <time>2021-05-18T14:29:54Z</time>
      </trkpt>
      <trkpt lat="41.8774500" lon="-8.8370120">
        <ele>4.2</ele>
        <time>2021-05-18T14:29:55Z</time>
      </trkpt>
      <trkpt lat="41.8774500" lon="-8.8370120">
        <ele>4.2</ele>
        <time>2021-05-18T14:29:56Z</time>
      </trkpt>
      <trkpt lat="41.8774510" lon="-8.8370030">
        <ele>4.2</ele>
        <time>2021-05-18T14:29:57Z</time>
      </trkpt>
      <trkpt lat="41.8774510" lon="-8.8370030">
        <ele>4.2</ele>
        <time>2021-05-18T14:29:58Z</time>
      </trkpt>
      <trkpt lat="41.8774510" lon="-8.8370030">
        <ele>4.2</ele>
        <time>2021-05-18T14:29:59Z</time>
      </trkpt>
      <trkpt lat="41.8774510" lon="-8.8370030">
        <ele>4.2</ele>
        <time>2021-05-18T14:30:00Z</time>
      </trkpt>
      <trkpt lat="41.8774570" lon="-8.8370050">
        <ele>4.2</ele>
        <time>2021-05-18T14:30:01Z</time>
      </trkpt>
      <trkpt lat="41.8774570" lon="-8.8370070">
        <ele>4.2</ele>
        <time>2021-05-18T14:30:02Z</time>
      </trkpt>
      <trkpt lat="41.8774600" lon="-8.8370120">
        <ele>4.2</ele>
        <time>2021-05-18T14:30:03Z</time>
      </trkpt>
      <trkpt lat="41.8774610" lon="-8.8370110">
        <ele>4.2</ele>
        <time>2021-05-18T14:30:04Z</time>
      </trkpt>
      <trkpt lat="41.8774630" lon="-8.8370140">
        <ele>4.2</ele>
        <time>2021-05-18T14:30:05Z</time>
      </trkpt>
      <trkpt lat="41.8774630" lon="-8.8370140">
        <ele>4.2</ele>
        <time>2021-05-18T14:30:06Z</time>
      </trkpt>
      <trkpt lat="41.8774670" lon="-8.8370110">
        <ele>4.2</ele>
        <time>2021-05-18T14:30:07Z</time>
      </trkpt>
      <trkpt lat="41.8774690" lon="-8.8370090">
        <ele>4.2</ele>
        <time>2021-05-18T14:30:08Z</time>
      </trkpt>
      <trkpt lat="41.8774690" lon="-8.8370090">
        <ele>4.2</ele>
        <time>2021-05-18T14:30:09Z</time>
      </trkpt>
      <trkpt lat="41.8774680" lon="-8.8370070">
        <ele>4.2</ele>
        <time>2021-05-18T14:30:10Z</time>
      </trkpt>
      <trkpt lat="41.8774670" lon="-8.8370110">
        <ele>4.2</ele>
        <time>2021-05-18T14:30:11Z</time>
      </trkpt>
      <trkpt lat="41.8774670" lon="-8.8370110">
        <ele>4.2</ele>
        <time>2021-05-18T14:30:12Z</time>
      </trkpt>
      <trkpt lat="41.8774670" lon="-8.8370110">
        <ele>4.2</ele>
        <time>2021-05-18T14:30:13Z</time>
      </trkpt>
      <trkpt lat="41.8774650" lon="-8.8370100">
        <ele>4.2</ele>
        <time>2021-05-18T14:30:14Z</time>
      </trkpt>
      <trkpt lat="41.8774650" lon="-8.8370100">
        <ele>4.2</ele>
        <time>2021-05-18T14:30:15Z</time>
      </trkpt>
      <trkpt lat="41.8774650" lon="-8.8370100">
        <ele>4.2</ele>
        <time>2021-05-18T14:30:16Z</time>
      </trkpt>
      <trkpt lat="41.8774610" lon="-8.8370130">
        <ele>4.2</ele>
        <time>2021-05-18T14:30:17Z</time>
      </trkpt>
      <trkpt lat="41.8774610" lon="-8.8370130">
        <ele>4.2</ele>
        <time>2021-05-18T14:30:18Z</time>
      </trkpt>
      <trkpt lat="41.8774610" lon="-8.8370130">
        <ele>4.2</ele>
        <time>2021-05-18T14:30:19Z</time>
      </trkpt>
      <trkpt lat="41.8774610" lon="-8.8370130">
        <ele>4.2</ele>
        <time>2021-05-18T14:30:20Z</time>
      </trkpt>
      <trkpt lat="41.8774610" lon="-8.8370130">
        <ele>4.2</ele>
        <time>2021-05-18T14:30:21Z</time>
      </trkpt>
      <trkpt lat="41.8774610" lon="-8.8370130">
        <ele>4.2</ele>
        <time>2021-05-18T14:30:22Z</time>
      </trkpt>
      <trkpt lat="41.8774610" lon="-8.8370130">
        <ele>4.2</ele>
        <time>2021-05-18T14:30:23Z</time>
      </trkpt>
      <trkpt lat="41.8774620" lon="-8.8370190">
        <ele>4.2</ele>
        <time>2021-05-18T14:30:24Z</time>
      </trkpt>
      <trkpt lat="41.8774620" lon="-8.8370170">
        <ele>4.2</ele>
        <time>2021-05-18T14:30:25Z</time>
      </trkpt>
      <trkpt lat="41.8774610" lon="-8.8370160">
        <ele>4.2</ele>
        <time>2021-05-18T14:30:26Z</time>
      </trkpt>
      <trkpt lat="41.8774580" lon="-8.8370150">
        <ele>4.2</ele>
        <time>2021-05-18T14:30:27Z</time>
      </trkpt>
      <trkpt lat="41.8774570" lon="-8.8370140">
        <ele>4.2</ele>
        <time>2021-05-18T14:30:28Z</time>
      </trkpt>
      <trkpt lat="41.8774570" lon="-8.8370140">
        <ele>4.2</ele>
        <time>2021-05-18T14:30:29Z</time>
      </trkpt>
      <trkpt lat="41.8774570" lon="-8.8370140">
        <ele>4.2</ele>
        <time>2021-05-18T14:30:31Z</time>
      </trkpt>
      <trkpt lat="41.8774570" lon="-8.8370170">
        <ele>4.2</ele>
        <time>2021-05-18T14:30:32Z</time>
      </trkpt>
      <trkpt lat="41.8774570" lon="-8.8370170">
        <ele>4.2</ele>
        <time>2021-05-18T14:30:33Z</time>
      </trkpt>
      <trkpt lat="41.8774560" lon="-8.8370190">
        <ele>4.2</ele>
        <time>2021-05-18T14:30:34Z</time>
      </trkpt>
      <trkpt lat="41.8774560" lon="-8.8370190">
        <ele>4.2</ele>
        <time>2021-05-18T14:30:35Z</time>
      </trkpt>
      <trkpt lat="41.8774560" lon="-8.8370190">
        <ele>4.2</ele>
        <time>2021-05-18T14:30:36Z</time>
      </trkpt>
      <trkpt lat="41.8774560" lon="-8.8370190">
        <ele>4.2</ele>
        <time>2021-05-18T14:30:37Z</time>
      </trkpt>
      <trkpt lat="41.8774530" lon="-8.8370120">
        <ele>4.2</ele>
        <time>2021-05-18T14:30:38Z</time>
      </trkpt>
      <trkpt lat="41.8774530" lon="-8.8370120">
        <ele>4.2</ele>
        <time>2021-05-18T14:30:39Z</time>
      </trkpt>
      <trkpt lat="41.8774550" lon="-8.8370100">
        <ele>4.2</ele>
        <time>2021-05-18T14:30:40Z</time>
      </trkpt>
      <trkpt lat="41.8774550" lon="-8.8370070">
        <ele>4.2</ele>
        <time>2021-05-18T14:30:41Z</time>
      </trkpt>
      <trkpt lat="41.8774540" lon="-8.8370060">
        <ele>4.2</ele>
        <time>2021-05-18T14:30:42Z</time>
      </trkpt>
      <trkpt lat="41.8774540" lon="-8.8370090">
        <ele>4.2</ele>
        <time>2021-05-18T14:30:43Z</time>
      </trkpt>
      <trkpt lat="41.8774570" lon="-8.8370110">
        <ele>4.2</ele>
        <time>2021-05-18T14:30:44Z</time>
      </trkpt>
      <trkpt lat="41.8774610" lon="-8.8370270">
        <ele>4.2</ele>
        <time>2021-05-18T14:30:45Z</time>
      </trkpt>
      <trkpt lat="41.8774600" lon="-8.8370270">
        <ele>4.2</ele>
        <time>2021-05-18T14:30:46Z</time>
      </trkpt>
      <trkpt lat="41.8774590" lon="-8.8370280">
        <ele>4.2</ele>
        <time>2021-05-18T14:30:47Z</time>
      </trkpt>
      <trkpt lat="41.8774600" lon="-8.8370260">
        <ele>4.2</ele>
        <time>2021-05-18T14:30:48Z</time>
      </trkpt>
      <trkpt lat="41.8774600" lon="-8.8370280">
        <ele>4.2</ele>
        <time>2021-05-18T14:30:49Z</time>
      </trkpt>
      <trkpt lat="41.8774620" lon="-8.8370310">
        <ele>4.2</ele>
        <time>2021-05-18T14:30:50Z</time>
      </trkpt>
      <trkpt lat="41.8774640" lon="-8.8370390">
        <ele>4.2</ele>
        <time>2021-05-18T14:30:51Z</time>
      </trkpt>
      <trkpt lat="41.8774650" lon="-8.8370450">
        <ele>4.2</ele>
        <time>2021-05-18T14:30:52Z</time>
      </trkpt>
      <trkpt lat="41.8774670" lon="-8.8370510">
        <ele>4.2</ele>
        <time>2021-05-18T14:30:53Z</time>
      </trkpt>
      <trkpt lat="41.8774690" lon="-8.8370570">
        <ele>4.2</ele>
        <time>2021-05-18T14:30:54Z</time>
      </trkpt>
      <trkpt lat="41.8774700" lon="-8.8370630">
        <ele>4.2</ele>
        <time>2021-05-18T14:30:55Z</time>
      </trkpt>
      <trkpt lat="41.8774720" lon="-8.8370690">
        <ele>4.2</ele>
        <time>2021-05-18T14:30:56Z</time>
      </trkpt>
      <trkpt lat="41.8774740" lon="-8.8370750">
        <ele>4.2</ele>
        <time>2021-05-18T14:30:57Z</time>
      </trkpt>
      <trkpt lat="41.8774750" lon="-8.8370810">
        <ele>4.2</ele>
        <time>2021-05-18T14:30:58Z</time>
      </trkpt>
      <trkpt lat="41.8774770" lon="-8.8370870">
        <ele>4.2</ele>
        <time>2021-05-18T14:30:59Z</time>
      </trkpt>
      <trkpt lat="41.8774790" lon="-8.8370900">
        <ele>4.2</ele>
        <time>2021-05-18T14:31:00Z</time>
      </trkpt>
      <trkpt lat="41.8774780" lon="-8.8370830">
        <ele>4.2</ele>
        <time>2021-05-18T14:31:01Z</time>
      </trkpt>
      <trkpt lat="41.8774800" lon="-8.8370860">
        <ele>4.2</ele>
        <time>2021-05-18T14:31:02Z</time>
      </trkpt>
      <trkpt lat="41.8774810" lon="-8.8370880">
        <ele>4.2</ele>
        <time>2021-05-18T14:31:03Z</time>
      </trkpt>
      <trkpt lat="41.8774810" lon="-8.8370910">
        <ele>4.2</ele>
        <time>2021-05-18T14:31:04Z</time>
      </trkpt>
      <trkpt lat="41.8774770" lon="-8.8370780">
        <ele>4.2</ele>
        <time>2021-05-18T14:31:05Z</time>
      </trkpt>
      <trkpt lat="41.8774690" lon="-8.8370780">
        <ele>4.2</ele>
        <time>2021-05-18T14:31:06Z</time>
      </trkpt>
      <trkpt lat="41.8774690" lon="-8.8370780">
        <ele>4.2</ele>
        <time>2021-05-18T14:31:07Z</time>
      </trkpt>
      <trkpt lat="41.8774660" lon="-8.8370690">
        <ele>4.2</ele>
        <time>2021-05-18T14:31:08Z</time>
      </trkpt>
      <trkpt lat="41.8774620" lon="-8.8370730">
        <ele>4.2</ele>
        <time>2021-05-18T14:31:09Z</time>
      </trkpt>
      <trkpt lat="41.8774580" lon="-8.8370690">
        <ele>4.2</ele>
        <time>2021-05-18T14:31:10Z</time>
      </trkpt>
      <trkpt lat="41.8774600" lon="-8.8370680">
        <ele>4.2</ele>
        <time>2021-05-18T14:31:11Z</time>
      </trkpt>
      <trkpt lat="41.8774520" lon="-8.8370950">
        <ele>4.2</ele>
        <time>2021-05-18T14:31:12Z</time>
      </trkpt>
      <trkpt lat="41.8774520" lon="-8.8370910">
        <ele>4.2</ele>
        <time>2021-05-18T14:31:13Z</time>
      </trkpt>
      <trkpt lat="41.8774500" lon="-8.8370940">
        <ele>4.2</ele>
        <time>2021-05-18T14:31:14Z</time>
      </trkpt>
      <trkpt lat="41.8774470" lon="-8.8370990">
        <ele>4.2</ele>
        <time>2021-05-18T14:31:15Z</time>
      </trkpt>
      <trkpt lat="41.8774450" lon="-8.8371050">
        <ele>4.2</ele>
        <time>2021-05-18T14:31:16Z</time>
      </trkpt>
      <trkpt lat="41.8774390" lon="-8.8371160">
        <ele>4.2</ele>
        <time>2021-05-18T14:31:17Z</time>
      </trkpt>
      <trkpt lat="41.8774360" lon="-8.8371160">
        <ele>4.2</ele>
        <time>2021-05-18T14:31:18Z</time>
      </trkpt>
      <trkpt lat="41.8774290" lon="-8.8371230">
        <ele>4.2</ele>
        <time>2021-05-18T14:31:19Z</time>
      </trkpt>
      <trkpt lat="41.8774210" lon="-8.8371250">
        <ele>4.2</ele>
        <time>2021-05-18T14:31:20Z</time>
      </trkpt>
      <trkpt lat="41.8774170" lon="-8.8371340">
        <ele>4.2</ele>
        <time>2021-05-18T14:31:21Z</time>
      </trkpt>
      <trkpt lat="41.8774110" lon="-8.8371380">
        <ele>4.2</ele>
        <time>2021-05-18T14:31:22Z</time>
      </trkpt>
      <trkpt lat="41.8774060" lon="-8.8371420">
        <ele>4.2</ele>
        <time>2021-05-18T14:31:23Z</time>
      </trkpt>
      <trkpt lat="41.8774080" lon="-8.8371490">
        <ele>4.2</ele>
        <time>2021-05-18T14:31:24Z</time>
      </trkpt>
      <trkpt lat="41.8774080" lon="-8.8371640">
        <ele>4.2</ele>
        <time>2021-05-18T14:31:25Z</time>
      </trkpt>
      <trkpt lat="41.8774080" lon="-8.8371690">
        <ele>4.2</ele>
        <time>2021-05-18T14:31:26Z</time>
      </trkpt>
      <trkpt lat="41.8774070" lon="-8.8371820">
        <ele>4.2</ele>
        <time>2021-05-18T14:31:27Z</time>
      </trkpt>
      <trkpt lat="41.8774100" lon="-8.8371950">
        <ele>4.2</ele>
        <time>2021-05-18T14:31:28Z</time>
      </trkpt>
      <trkpt lat="41.8774150" lon="-8.8372120">
        <ele>4.2</ele>
        <time>2021-05-18T14:31:29Z</time>
      </trkpt>
      <trkpt lat="41.8774140" lon="-8.8372130">
        <ele>4.2</ele>
        <time>2021-05-18T14:31:30Z</time>
      </trkpt>
      <trkpt lat="41.8774100" lon="-8.8372130">
        <ele>4.2</ele>
        <time>2021-05-18T14:31:31Z</time>
      </trkpt>
      <trkpt lat="41.8774060" lon="-8.8372060">
        <ele>4.2</ele>
        <time>2021-05-18T14:31:32Z</time>
      </trkpt>
      <trkpt lat="41.8773970" lon="-8.8371990">
        <ele>4.2</ele>
        <time>2021-05-18T14:31:33Z</time>
      </trkpt>
      <trkpt lat="41.8773930" lon="-8.8371960">
        <ele>4.2</ele>
        <time>2021-05-18T14:31:34Z</time>
      </trkpt>
      <trkpt lat="41.8773870" lon="-8.8371940">
        <ele>4.2</ele>
        <time>2021-05-18T14:31:35Z</time>
      </trkpt>
      <trkpt lat="41.8773820" lon="-8.8371870">
        <ele>4.2</ele>
        <time>2021-05-18T14:31:36Z</time>
      </trkpt>
      <trkpt lat="41.8773810" lon="-8.8371880">
        <ele>4.2</ele>
        <time>2021-05-18T14:31:37Z</time>
      </trkpt>
      <trkpt lat="41.8773780" lon="-8.8371840">
        <ele>4.2</ele>
        <time>2021-05-18T14:31:38Z</time>
      </trkpt>
      <trkpt lat="41.8773780" lon="-8.8371870">
        <ele>4.2</ele>
        <time>2021-05-18T14:31:39Z</time>
      </trkpt>
      <trkpt lat="41.8773740" lon="-8.8371900">
        <ele>4.2</ele>
        <time>2021-05-18T14:31:40Z</time>
      </trkpt>
      <trkpt lat="41.8773760" lon="-8.8371990">
        <ele>4.2</ele>
        <time>2021-05-18T14:31:41Z</time>
      </trkpt>
      <trkpt lat="41.8773800" lon="-8.8371990">
        <ele>4.2</ele>
        <time>2021-05-18T14:31:42Z</time>
      </trkpt>
      <trkpt lat="41.8773800" lon="-8.8372030">
        <ele>4.2</ele>
        <time>2021-05-18T14:31:43Z</time>
      </trkpt>
      <trkpt lat="41.8773780" lon="-8.8372040">
        <ele>4.2</ele>
        <time>2021-05-18T14:31:44Z</time>
      </trkpt>
      <trkpt lat="41.8773760" lon="-8.8372020">
        <ele>4.2</ele>
        <time>2021-05-18T14:31:45Z</time>
      </trkpt>
      <trkpt lat="41.8773790" lon="-8.8372070">
        <ele>4.2</ele>
        <time>2021-05-18T14:31:46Z</time>
      </trkpt>
      <trkpt lat="41.8773770" lon="-8.8371960">
        <ele>4.2</ele>
        <time>2021-05-18T14:31:47Z</time>
      </trkpt>
      <trkpt lat="41.8773720" lon="-8.8371830">
        <ele>4.2</ele>
        <time>2021-05-18T14:31:48Z</time>
      </trkpt>
      <trkpt lat="41.8773690" lon="-8.8371770">
        <ele>4.2</ele>
        <time>2021-05-18T14:31:49Z</time>
      </trkpt>
      <trkpt lat="41.8773660" lon="-8.8371670">
        <ele>4.2</ele>
        <time>2021-05-18T14:31:50Z</time>
      </trkpt>
      <trkpt lat="41.8773630" lon="-8.8371600">
        <ele>4.2</ele>
        <time>2021-05-18T14:31:51Z</time>
      </trkpt>
      <trkpt lat="41.8773590" lon="-8.8371580">
        <ele>4.2</ele>
        <time>2021-05-18T14:31:52Z</time>
      </trkpt>
      <trkpt lat="41.8773520" lon="-8.8371420">
        <ele>4.2</ele>
        <time>2021-05-18T14:31:53Z</time>
      </trkpt>
      <trkpt lat="41.8773520" lon="-8.8371340">
        <ele>4.2</ele>
        <time>2021-05-18T14:31:54Z</time>
      </trkpt>
      <trkpt lat="41.8773530" lon="-8.8371420">
        <ele>4.2</ele>
        <time>2021-05-18T14:31:55Z</time>
      </trkpt>
      <trkpt lat="41.8773550" lon="-8.8371420">
        <ele>4.2</ele>
        <time>2021-05-18T14:31:56Z</time>
      </trkpt>
      <trkpt lat="41.8773570" lon="-8.8371450">
        <ele>4.2</ele>
        <time>2021-05-18T14:31:57Z</time>
      </trkpt>
      <trkpt lat="41.8773590" lon="-8.8371420">
        <ele>4.2</ele>
        <time>2021-05-18T14:31:58Z</time>
      </trkpt>
      <trkpt lat="41.8773590" lon="-8.8371410">
        <ele>4.2</ele>
        <time>2021-05-18T14:31:59Z</time>
      </trkpt>
      <trkpt lat="41.8773590" lon="-8.8371460">
        <ele>4.2</ele>
        <time>2021-05-18T14:32:00Z</time>
      </trkpt>
      <trkpt lat="41.8773600" lon="-8.8371540">
        <ele>4.2</ele>
        <time>2021-05-18T14:32:01Z</time>
      </trkpt>
      <trkpt lat="41.8773570" lon="-8.8371510">
        <ele>4.1</ele>
        <time>2021-05-18T14:32:02Z</time>
      </trkpt>
      <trkpt lat="41.8773590" lon="-8.8371500">
        <ele>4.1</ele>
        <time>2021-05-18T14:32:03Z</time>
      </trkpt>
      <trkpt lat="41.8773580" lon="-8.8371510">
        <ele>4.1</ele>
        <time>2021-05-18T14:32:04Z</time>
      </trkpt>
      <trkpt lat="41.8773560" lon="-8.8371470">
        <ele>4.1</ele>
        <time>2021-05-18T14:32:05Z</time>
      </trkpt>
      <trkpt lat="41.8773560" lon="-8.8371470">
        <ele>4.1</ele>
        <time>2021-05-18T14:32:06Z</time>
      </trkpt>
      <trkpt lat="41.8773600" lon="-8.8371520">
        <ele>4.1</ele>
        <time>2021-05-18T14:32:07Z</time>
      </trkpt>
      <trkpt lat="41.8773610" lon="-8.8371520">
        <ele>4.1</ele>
        <time>2021-05-18T14:32:08Z</time>
      </trkpt>
      <trkpt lat="41.8773620" lon="-8.8371480">
        <ele>4.1</ele>
        <time>2021-05-18T14:32:09Z</time>
      </trkpt>
      <trkpt lat="41.8773630" lon="-8.8371510">
        <ele>4.1</ele>
        <time>2021-05-18T14:32:10Z</time>
      </trkpt>
      <trkpt lat="41.8773710" lon="-8.8371580">
        <ele>4.1</ele>
        <time>2021-05-18T14:32:11Z</time>
      </trkpt>
      <trkpt lat="41.8773710" lon="-8.8371680">
        <ele>4.1</ele>
        <time>2021-05-18T14:32:12Z</time>
      </trkpt>
      <trkpt lat="41.8773710" lon="-8.8371720">
        <ele>4.1</ele>
        <time>2021-05-18T14:32:13Z</time>
      </trkpt>
      <trkpt lat="41.8773690" lon="-8.8371710">
        <ele>4.1</ele>
        <time>2021-05-18T14:32:14Z</time>
      </trkpt>
      <trkpt lat="41.8773690" lon="-8.8371680">
        <ele>4.1</ele>
        <time>2021-05-18T14:32:15Z</time>
      </trkpt>
      <trkpt lat="41.8773690" lon="-8.8371650">
        <ele>4.1</ele>
        <time>2021-05-18T14:32:16Z</time>
      </trkpt>
      <trkpt lat="41.8773700" lon="-8.8371640">
        <ele>4.1</ele>
        <time>2021-05-18T14:32:17Z</time>
      </trkpt>
      <trkpt lat="41.8773720" lon="-8.8371680">
        <ele>4.1</ele>
        <time>2021-05-18T14:32:18Z</time>
      </trkpt>
      <trkpt lat="41.8773720" lon="-8.8371740">
        <ele>4.1</ele>
        <time>2021-05-18T14:32:19Z</time>
      </trkpt>
      <trkpt lat="41.8773710" lon="-8.8371740">
        <ele>4.1</ele>
        <time>2021-05-18T14:32:20Z</time>
      </trkpt>
      <trkpt lat="41.8773680" lon="-8.8371630">
        <ele>4.1</ele>
        <time>2021-05-18T14:32:21Z</time>
      </trkpt>
      <trkpt lat="41.8773690" lon="-8.8371620">
        <ele>4.1</ele>
        <time>2021-05-18T14:32:22Z</time>
      </trkpt>
      <trkpt lat="41.8773710" lon="-8.8371650">
        <ele>4.1</ele>
        <time>2021-05-18T14:32:23Z</time>
      </trkpt>
      <trkpt lat="41.8773740" lon="-8.8371720">
        <ele>4.1</ele>
        <time>2021-05-18T14:32:24Z</time>
      </trkpt>
      <trkpt lat="41.8773740" lon="-8.8371730">
        <ele>4.1</ele>
        <time>2021-05-18T14:32:25Z</time>
      </trkpt>
      <trkpt lat="41.8773750" lon="-8.8371740">
        <ele>4.1</ele>
        <time>2021-05-18T14:32:26Z</time>
      </trkpt>
      <trkpt lat="41.8773770" lon="-8.8371810">
        <ele>4.1</ele>
        <time>2021-05-18T14:32:27Z</time>
      </trkpt>
      <trkpt lat="41.8773770" lon="-8.8371800">
        <ele>4.1</ele>
        <time>2021-05-18T14:32:28Z</time>
      </trkpt>
      <trkpt lat="41.8773790" lon="-8.8371850">
        <ele>4.1</ele>
        <time>2021-05-18T14:32:29Z</time>
      </trkpt>
      <trkpt lat="41.8773830" lon="-8.8371980">
        <ele>4.1</ele>
        <time>2021-05-18T14:32:30Z</time>
      </trkpt>
      <trkpt lat="41.8773860" lon="-8.8372050">
        <ele>4.1</ele>
        <time>2021-05-18T14:32:31Z</time>
      </trkpt>
      <trkpt lat="41.8773870" lon="-8.8372080">
        <ele>4.1</ele>
        <time>2021-05-18T14:32:32Z</time>
      </trkpt>
      <trkpt lat="41.8773850" lon="-8.8372090">
        <ele>4.1</ele>
        <time>2021-05-18T14:32:34Z</time>
      </trkpt>
      <trkpt lat="41.8773840" lon="-8.8372070">
        <ele>4.1</ele>
        <time>2021-05-18T14:32:35Z</time>
      </trkpt>
      <trkpt lat="41.8773830" lon="-8.8372070">
        <ele>4.1</ele>
        <time>2021-05-18T14:32:36Z</time>
      </trkpt>
      <trkpt lat="41.8773790" lon="-8.8372090">
        <ele>4.1</ele>
        <time>2021-05-18T14:32:37Z</time>
      </trkpt>
      <trkpt lat="41.8773770" lon="-8.8372100">
        <ele>4.1</ele>
        <time>2021-05-18T14:32:38Z</time>
      </trkpt>
      <trkpt lat="41.8773760" lon="-8.8372070">
        <ele>4.1</ele>
        <time>2021-05-18T14:32:39Z</time>
      </trkpt>
      <trkpt lat="41.8773750" lon="-8.8372050">
        <ele>4.1</ele>
        <time>2021-05-18T14:32:40Z</time>
      </trkpt>
      <trkpt lat="41.8773770" lon="-8.8372120">
        <ele>4.1</ele>
        <time>2021-05-18T14:32:41Z</time>
      </trkpt>
      <trkpt lat="41.8773800" lon="-8.8372110">
        <ele>4.1</ele>
        <time>2021-05-18T14:32:42Z</time>
      </trkpt>
      <trkpt lat="41.8773850" lon="-8.8372090">
        <ele>4.1</ele>
        <time>2021-05-18T14:32:43Z</time>
      </trkpt>
      <trkpt lat="41.8773930" lon="-8.8372080">
        <ele>4.1</ele>
        <time>2021-05-18T14:32:44Z</time>
      </trkpt>
      <trkpt lat="41.8774000" lon="-8.8372080">
        <ele>4.1</ele>
        <time>2021-05-18T14:32:45Z</time>
      </trkpt>
      <trkpt lat="41.8774030" lon="-8.8372070">
        <ele>4.1</ele>
        <time>2021-05-18T14:32:46Z</time>
      </trkpt>
      <trkpt lat="41.8774060" lon="-8.8372080">
        <ele>4.1</ele>
        <time>2021-05-18T14:32:47Z</time>
      </trkpt>
      <trkpt lat="41.8774080" lon="-8.8372080">
        <ele>4.1</ele>
        <time>2021-05-18T14:32:48Z</time>
      </trkpt>
      <trkpt lat="41.8774080" lon="-8.8372100">
        <ele>4.1</ele>
        <time>2021-05-18T14:32:49Z</time>
      </trkpt>
      <trkpt lat="41.8774060" lon="-8.8372080">
        <ele>4.1</ele>
        <time>2021-05-18T14:32:50Z</time>
      </trkpt>
      <trkpt lat="41.8774040" lon="-8.8372070">
        <ele>4.1</ele>
        <time>2021-05-18T14:32:51Z</time>
      </trkpt>
      <trkpt lat="41.8774030" lon="-8.8372080">
        <ele>4.1</ele>
        <time>2021-05-18T14:32:52Z</time>
      </trkpt>
      <trkpt lat="41.8774020" lon="-8.8372100">
        <ele>4.1</ele>
        <time>2021-05-18T14:32:53Z</time>
      </trkpt>
      <trkpt lat="41.8774040" lon="-8.8372130">
        <ele>4.1</ele>
        <time>2021-05-18T14:32:54Z</time>
      </trkpt>
      <trkpt lat="41.8774070" lon="-8.8372210">
        <ele>4.1</ele>
        <time>2021-05-18T14:32:55Z</time>
      </trkpt>
      <trkpt lat="41.8774020" lon="-8.8372170">
        <ele>4.1</ele>
        <time>2021-05-18T14:32:56Z</time>
      </trkpt>
      <trkpt lat="41.8774000" lon="-8.8372040">
        <ele>4.1</ele>
        <time>2021-05-18T14:32:57Z</time>
      </trkpt>
      <trkpt lat="41.8774030" lon="-8.8372020">
        <ele>4.1</ele>
        <time>2021-05-18T14:32:58Z</time>
      </trkpt>
      <trkpt lat="41.8774090" lon="-8.8372060">
        <ele>4.1</ele>
        <time>2021-05-18T14:32:59Z</time>
      </trkpt>
      <trkpt lat="41.8774150" lon="-8.8371990">
        <ele>4.1</ele>
        <time>2021-05-18T14:33:00Z</time>
      </trkpt>
      <trkpt lat="41.8774170" lon="-8.8371960">
        <ele>4.1</ele>
        <time>2021-05-18T14:33:01Z</time>
      </trkpt>
      <trkpt lat="41.8774180" lon="-8.8371900">
        <ele>4.1</ele>
        <time>2021-05-18T14:33:02Z</time>
      </trkpt>
      <trkpt lat="41.8774220" lon="-8.8371880">
        <ele>4.1</ele>
        <time>2021-05-18T14:33:03Z</time>
      </trkpt>
      <trkpt lat="41.8774240" lon="-8.8371830">
        <ele>4.1</ele>
        <time>2021-05-18T14:33:04Z</time>
      </trkpt>
      <trkpt lat="41.8774280" lon="-8.8371820">
        <ele>4.1</ele>
        <time>2021-05-18T14:33:05Z</time>
      </trkpt>
      <trkpt lat="41.8774290" lon="-8.8371830">
        <ele>4.1</ele>
        <time>2021-05-18T14:33:06Z</time>
      </trkpt>
      <trkpt lat="41.8774280" lon="-8.8371860">
        <ele>4.1</ele>
        <time>2021-05-18T14:33:07Z</time>
      </trkpt>
      <trkpt lat="41.8774260" lon="-8.8371870">
        <ele>4.1</ele>
        <time>2021-05-18T14:33:08Z</time>
      </trkpt>
      <trkpt lat="41.8774280" lon="-8.8371890">
        <ele>4.1</ele>
        <time>2021-05-18T14:33:09Z</time>
      </trkpt>
      <trkpt lat="41.8774250" lon="-8.8371800">
        <ele>4.1</ele>
        <time>2021-05-18T14:33:10Z</time>
      </trkpt>
      <trkpt lat="41.8774220" lon="-8.8371790">
        <ele>4.1</ele>
        <time>2021-05-18T14:33:11Z</time>
      </trkpt>
      <trkpt lat="41.8774230" lon="-8.8371830">
        <ele>4.1</ele>
        <time>2021-05-18T14:33:12Z</time>
      </trkpt>
      <trkpt lat="41.8774240" lon="-8.8371830">
        <ele>4.1</ele>
        <time>2021-05-18T14:33:13Z</time>
      </trkpt>
      <trkpt lat="41.8774240" lon="-8.8371860">
        <ele>4.1</ele>
        <time>2021-05-18T14:33:14Z</time>
      </trkpt>
      <trkpt lat="41.8774240" lon="-8.8371820">
        <ele>4.1</ele>
        <time>2021-05-18T14:33:15Z</time>
      </trkpt>
      <trkpt lat="41.8774220" lon="-8.8371750">
        <ele>4.1</ele>
        <time>2021-05-18T14:33:16Z</time>
      </trkpt>
      <trkpt lat="41.8774210" lon="-8.8371720">
        <ele>4.1</ele>
        <time>2021-05-18T14:33:17Z</time>
      </trkpt>
      <trkpt lat="41.8774280" lon="-8.8371890">
        <ele>4.1</ele>
        <time>2021-05-18T14:33:18Z</time>
      </trkpt>
      <trkpt lat="41.8774230" lon="-8.8371820">
        <ele>4.1</ele>
        <time>2021-05-18T14:33:19Z</time>
      </trkpt>
      <trkpt lat="41.8774250" lon="-8.8371870">
        <ele>4.1</ele>
        <time>2021-05-18T14:33:20Z</time>
      </trkpt>
      <trkpt lat="41.8774200" lon="-8.8371770">
        <ele>4.1</ele>
        <time>2021-05-18T14:33:21Z</time>
      </trkpt>
      <trkpt lat="41.8774190" lon="-8.8371760">
        <ele>4.1</ele>
        <time>2021-05-18T14:33:22Z</time>
      </trkpt>
      <trkpt lat="41.8774170" lon="-8.8371800">
        <ele>4.1</ele>
        <time>2021-05-18T14:33:23Z</time>
      </trkpt>
      <trkpt lat="41.8774060" lon="-8.8371700">
        <ele>4.1</ele>
        <time>2021-05-18T14:33:24Z</time>
      </trkpt>
      <trkpt lat="41.8774070" lon="-8.8371750">
        <ele>4.1</ele>
        <time>2021-05-18T14:33:25Z</time>
      </trkpt>
      <trkpt lat="41.8774070" lon="-8.8371720">
        <ele>4.1</ele>
        <time>2021-05-18T14:33:26Z</time>
      </trkpt>
      <trkpt lat="41.8774050" lon="-8.8371720">
        <ele>4.1</ele>
        <time>2021-05-18T14:33:27Z</time>
      </trkpt>
      <trkpt lat="41.8774070" lon="-8.8371770">
        <ele>4.1</ele>
        <time>2021-05-18T14:33:28Z</time>
      </trkpt>
      <trkpt lat="41.8774100" lon="-8.8371830">
        <ele>4.1</ele>
        <time>2021-05-18T14:33:29Z</time>
      </trkpt>
      <trkpt lat="41.8774100" lon="-8.8371850">
        <ele>4.1</ele>
        <time>2021-05-18T14:33:30Z</time>
      </trkpt>
      <trkpt lat="41.8774110" lon="-8.8371850">
        <ele>4.1</ele>
        <time>2021-05-18T14:33:31Z</time>
      </trkpt>
      <trkpt lat="41.8774100" lon="-8.8371840">
        <ele>4.1</ele>
        <time>2021-05-18T14:33:32Z</time>
      </trkpt>
      <trkpt lat="41.8774100" lon="-8.8371870">
        <ele>4.1</ele>
        <time>2021-05-18T14:33:33Z</time>
      </trkpt>
      <trkpt lat="41.8774120" lon="-8.8371980">
        <ele>4.1</ele>
        <time>2021-05-18T14:33:34Z</time>
      </trkpt>
      <trkpt lat="41.8774150" lon="-8.8372010">
        <ele>4.1</ele>
        <time>2021-05-18T14:33:35Z</time>
      </trkpt>
      <trkpt lat="41.8774150" lon="-8.8372040">
        <ele>4.1</ele>
        <time>2021-05-18T14:33:36Z</time>
      </trkpt>
      <trkpt lat="41.8774150" lon="-8.8372030">
        <ele>4.1</ele>
        <time>2021-05-18T14:33:37Z</time>
      </trkpt>
      <trkpt lat="41.8774160" lon="-8.8372080">
        <ele>4.1</ele>
        <time>2021-05-18T14:33:38Z</time>
      </trkpt>
      <trkpt lat="41.8774160" lon="-8.8372150">
        <ele>4.1</ele>
        <time>2021-05-18T14:33:39Z</time>
      </trkpt>
      <trkpt lat="41.8774170" lon="-8.8372180">
        <ele>4.1</ele>
        <time>2021-05-18T14:33:40Z</time>
      </trkpt>
      <trkpt lat="41.8774220" lon="-8.8372180">
        <ele>4.1</ele>
        <time>2021-05-18T14:33:41Z</time>
      </trkpt>
      <trkpt lat="41.8774250" lon="-8.8372170">
        <ele>4.1</ele>
        <time>2021-05-18T14:33:42Z</time>
      </trkpt>
      <trkpt lat="41.8774270" lon="-8.8372170">
        <ele>4.1</ele>
        <time>2021-05-18T14:33:43Z</time>
      </trkpt>
      <trkpt lat="41.8774300" lon="-8.8372160">
        <ele>4.1</ele>
        <time>2021-05-18T14:33:44Z</time>
      </trkpt>
      <trkpt lat="41.8774330" lon="-8.8372160">
        <ele>4.1</ele>
        <time>2021-05-18T14:33:45Z</time>
      </trkpt>
      <trkpt lat="41.8774360" lon="-8.8372150">
        <ele>4.1</ele>
        <time>2021-05-18T14:33:46Z</time>
      </trkpt>
      <trkpt lat="41.8774390" lon="-8.8372150">
        <ele>4.1</ele>
        <time>2021-05-18T14:33:47Z</time>
      </trkpt>
      <trkpt lat="41.8774420" lon="-8.8372140">
        <ele>4.1</ele>
        <time>2021-05-18T14:33:48Z</time>
      </trkpt>
      <trkpt lat="41.8774440" lon="-8.8372140">
        <ele>4.1</ele>
        <time>2021-05-18T14:33:49Z</time>
      </trkpt>
      <trkpt lat="41.8774470" lon="-8.8372130">
        <ele>4.1</ele>
        <time>2021-05-18T14:33:50Z</time>
      </trkpt>
      <trkpt lat="41.8774500" lon="-8.8372130">
        <ele>4.1</ele>
        <time>2021-05-18T14:33:51Z</time>
      </trkpt>
      <trkpt lat="41.8774530" lon="-8.8372120">
        <ele>4.1</ele>
        <time>2021-05-18T14:33:52Z</time>
      </trkpt>
      <trkpt lat="41.8774560" lon="-8.8372120">
        <ele>4.1</ele>
        <time>2021-05-18T14:33:53Z</time>
      </trkpt>
      <trkpt lat="41.8774580" lon="-8.8372110">
        <ele>4.1</ele>
        <time>2021-05-18T14:33:54Z</time>
      </trkpt>
      <trkpt lat="41.8774610" lon="-8.8372110">
        <ele>4.1</ele>
        <time>2021-05-18T14:33:55Z</time>
      </trkpt>
      <trkpt lat="41.8774640" lon="-8.8372100">
        <ele>4.1</ele>
        <time>2021-05-18T14:33:56Z</time>
      </trkpt>
      <trkpt lat="41.8774690" lon="-8.8372010">
        <ele>4.1</ele>
        <time>2021-05-18T14:33:57Z</time>
      </trkpt>
      <trkpt lat="41.8774750" lon="-8.8371880">
        <ele>4.1</ele>
        <time>2021-05-18T14:33:58Z</time>
      </trkpt>
      <trkpt lat="41.8774810" lon="-8.8371800">
        <ele>4.1</ele>
        <time>2021-05-18T14:33:59Z</time>
      </trkpt>
      <trkpt lat="41.8774830" lon="-8.8371640">
        <ele>4.1</ele>
        <time>2021-05-18T14:34:00Z</time>
      </trkpt>
      <trkpt lat="41.8774820" lon="-8.8371470">
        <ele>4.1</ele>
        <time>2021-05-18T14:34:01Z</time>
      </trkpt>
      <trkpt lat="41.8774820" lon="-8.8371390">
        <ele>4.1</ele>
        <time>2021-05-18T14:34:02Z</time>
      </trkpt>
      <trkpt lat="41.8774880" lon="-8.8371390">
        <ele>4.1</ele>
        <time>2021-05-18T14:34:03Z</time>
      </trkpt>
      <trkpt lat="41.8774910" lon="-8.8371380">
        <ele>4.1</ele>
        <time>2021-05-18T14:34:04Z</time>
      </trkpt>
      <trkpt lat="41.8774960" lon="-8.8371460">
        <ele>4.1</ele>
        <time>2021-05-18T14:34:05Z</time>
      </trkpt>
      <trkpt lat="41.8774980" lon="-8.8371480">
        <ele>4.1</ele>
        <time>2021-05-18T14:34:06Z</time>
      </trkpt>
      <trkpt lat="41.8775030" lon="-8.8371490">
        <ele>4.1</ele>
        <time>2021-05-18T14:34:07Z</time>
      </trkpt>
      <trkpt lat="41.8775080" lon="-8.8371430">
        <ele>4.1</ele>
        <time>2021-05-18T14:34:08Z</time>
      </trkpt>
      <trkpt lat="41.8775100" lon="-8.8371420">
        <ele>4.1</ele>
        <time>2021-05-18T14:34:09Z</time>
      </trkpt>
      <trkpt lat="41.8775100" lon="-8.8371450">
        <ele>4.1</ele>
        <time>2021-05-18T14:34:10Z</time>
      </trkpt>
      <trkpt lat="41.8775130" lon="-8.8371460">
        <ele>4.1</ele>
        <time>2021-05-18T14:34:11Z</time>
      </trkpt>
      <trkpt lat="41.8775160" lon="-8.8371530">
        <ele>4.1</ele>
        <time>2021-05-18T14:34:12Z</time>
      </trkpt>
      <trkpt lat="41.8775190" lon="-8.8371560">
        <ele>4.1</ele>
        <time>2021-05-18T14:34:13Z</time>
      </trkpt>
      <trkpt lat="41.8775200" lon="-8.8371500">
        <ele>4.1</ele>
        <time>2021-05-18T14:34:14Z</time>
      </trkpt>
      <trkpt lat="41.8775210" lon="-8.8371520">
        <ele>4.1</ele>
        <time>2021-05-18T14:34:15Z</time>
      </trkpt>
      <trkpt lat="41.8775210" lon="-8.8371540">
        <ele>4.1</ele>
        <time>2021-05-18T14:34:16Z</time>
      </trkpt>
      <trkpt lat="41.8775290" lon="-8.8371580">
        <ele>4.1</ele>
        <time>2021-05-18T14:34:17Z</time>
      </trkpt>
      <trkpt lat="41.8775290" lon="-8.8371590">
        <ele>4.1</ele>
        <time>2021-05-18T14:34:18Z</time>
      </trkpt>
      <trkpt lat="41.8775290" lon="-8.8371590">
        <ele>4.1</ele>
        <time>2021-05-18T14:34:19Z</time>
      </trkpt>
      <trkpt lat="41.8775180" lon="-8.8371560">
        <ele>4.1</ele>
        <time>2021-05-18T14:34:20Z</time>
      </trkpt>
      <trkpt lat="41.8775190" lon="-8.8371560">
        <ele>4.1</ele>
        <time>2021-05-18T14:34:21Z</time>
      </trkpt>
      <trkpt lat="41.8775240" lon="-8.8371580">
        <ele>4.1</ele>
        <time>2021-05-18T14:34:22Z</time>
      </trkpt>
      <trkpt lat="41.8775300" lon="-8.8371550">
        <ele>4.1</ele>
        <time>2021-05-18T14:34:23Z</time>
      </trkpt>
      <trkpt lat="41.8775340" lon="-8.8371590">
        <ele>4.1</ele>
        <time>2021-05-18T14:34:24Z</time>
      </trkpt>
      <trkpt lat="41.8775340" lon="-8.8371630">
        <ele>4.1</ele>
        <time>2021-05-18T14:34:25Z</time>
      </trkpt>
      <trkpt lat="41.8775320" lon="-8.8371600">
        <ele>4.1</ele>
        <time>2021-05-18T14:34:26Z</time>
      </trkpt>
      <trkpt lat="41.8775350" lon="-8.8371590">
        <ele>4.1</ele>
        <time>2021-05-18T14:34:27Z</time>
      </trkpt>
      <trkpt lat="41.8775390" lon="-8.8371570">
        <ele>4.1</ele>
        <time>2021-05-18T14:34:28Z</time>
      </trkpt>
      <trkpt lat="41.8775410" lon="-8.8371640">
        <ele>4.1</ele>
        <time>2021-05-18T14:34:29Z</time>
      </trkpt>
      <trkpt lat="41.8775410" lon="-8.8371680">
        <ele>4.1</ele>
        <time>2021-05-18T14:34:30Z</time>
      </trkpt>
      <trkpt lat="41.8775390" lon="-8.8371720">
        <ele>4.1</ele>
        <time>2021-05-18T14:34:31Z</time>
      </trkpt>
      <trkpt lat="41.8775430" lon="-8.8371720">
        <ele>4.1</ele>
        <time>2021-05-18T14:34:33Z</time>
      </trkpt>
      <trkpt lat="41.8775420" lon="-8.8371690">
        <ele>4.1</ele>
        <time>2021-05-18T14:34:34Z</time>
      </trkpt>
      <trkpt lat="41.8775410" lon="-8.8371660">
        <ele>4.1</ele>
        <time>2021-05-18T14:34:35Z</time>
      </trkpt>
      <trkpt lat="41.8775400" lon="-8.8371550">
        <ele>4.1</ele>
        <time>2021-05-18T14:34:37Z</time>
      </trkpt>
      <trkpt lat="41.8775400" lon="-8.8371570">
        <ele>4.1</ele>
        <time>2021-05-18T14:34:38Z</time>
      </trkpt>
      <trkpt lat="41.8775420" lon="-8.8371580">
        <ele>4.1</ele>
        <time>2021-05-18T14:34:39Z</time>
      </trkpt>
      <trkpt lat="41.8775480" lon="-8.8371660">
        <ele>4.1</ele>
        <time>2021-05-18T14:34:40Z</time>
      </trkpt>
      <trkpt lat="41.8775470" lon="-8.8371640">
        <ele>4.1</ele>
        <time>2021-05-18T14:34:41Z</time>
      </trkpt>
      <trkpt lat="41.8775470" lon="-8.8371630">
        <ele>4.1</ele>
        <time>2021-05-18T14:34:42Z</time>
      </trkpt>
      <trkpt lat="41.8775520" lon="-8.8371700">
        <ele>4.1</ele>
        <time>2021-05-18T14:34:43Z</time>
      </trkpt>
      <trkpt lat="41.8775590" lon="-8.8371760">
        <ele>4.1</ele>
        <time>2021-05-18T14:34:44Z</time>
      </trkpt>
      <trkpt lat="41.8775630" lon="-8.8371800">
        <ele>4.1</ele>
        <time>2021-05-18T14:34:45Z</time>
      </trkpt>
      <trkpt lat="41.8775650" lon="-8.8371840">
        <ele>4.1</ele>
        <time>2021-05-18T14:34:46Z</time>
      </trkpt>
      <trkpt lat="41.8775680" lon="-8.8371840">
        <ele>4.1</ele>
        <time>2021-05-18T14:34:47Z</time>
      </trkpt>
      <trkpt lat="41.8775710" lon="-8.8371870">
        <ele>4.1</ele>
        <time>2021-05-18T14:34:48Z</time>
      </trkpt>
      <trkpt lat="41.8775790" lon="-8.8371860">
        <ele>4.1</ele>
        <time>2021-05-18T14:34:49Z</time>
      </trkpt>
      <trkpt lat="41.8775830" lon="-8.8371870">
        <ele>4.1</ele>
        <time>2021-05-18T14:34:50Z</time>
      </trkpt>
      <trkpt lat="41.8775820" lon="-8.8371840">
        <ele>4.1</ele>
        <time>2021-05-18T14:34:51Z</time>
      </trkpt>
      <trkpt lat="41.8775830" lon="-8.8371880">
        <ele>4.1</ele>
        <time>2021-05-18T14:34:52Z</time>
      </trkpt>
      <trkpt lat="41.8775870" lon="-8.8371920">
        <ele>4.1</ele>
        <time>2021-05-18T14:34:53Z</time>
      </trkpt>
      <trkpt lat="41.8775890" lon="-8.8371940">
        <ele>4.1</ele>
        <time>2021-05-18T14:34:54Z</time>
      </trkpt>
      <trkpt lat="41.8775890" lon="-8.8371950">
        <ele>4.1</ele>
        <time>2021-05-18T14:34:55Z</time>
      </trkpt>
      <trkpt lat="41.8775860" lon="-8.8371900">
        <ele>4.1</ele>
        <time>2021-05-18T14:34:56Z</time>
      </trkpt>
      <trkpt lat="41.8775820" lon="-8.8371870">
        <ele>4.1</ele>
        <time>2021-05-18T14:34:57Z</time>
      </trkpt>
      <trkpt lat="41.8775830" lon="-8.8371880">
        <ele>4.1</ele>
        <time>2021-05-18T14:34:58Z</time>
      </trkpt>
      <trkpt lat="41.8775850" lon="-8.8371910">
        <ele>4.1</ele>
        <time>2021-05-18T14:34:59Z</time>
      </trkpt>
      <trkpt lat="41.8775860" lon="-8.8371910">
        <ele>4.1</ele>
        <time>2021-05-18T14:35:00Z</time>
      </trkpt>
      <trkpt lat="41.8775860" lon="-8.8372030">
        <ele>4.1</ele>
        <time>2021-05-18T14:35:01Z</time>
      </trkpt>
      <trkpt lat="41.8775850" lon="-8.8372020">
        <ele>4.1</ele>
        <time>2021-05-18T14:35:02Z</time>
      </trkpt>
      <trkpt lat="41.8775820" lon="-8.8372040">
        <ele>4.1</ele>
        <time>2021-05-18T14:35:03Z</time>
      </trkpt>
      <trkpt lat="41.8775820" lon="-8.8372040">
        <ele>4.1</ele>
        <time>2021-05-18T14:35:04Z</time>
      </trkpt>
      <trkpt lat="41.8775820" lon="-8.8372040">
        <ele>4.1</ele>
        <time>2021-05-18T14:35:05Z</time>
      </trkpt>
      <trkpt lat="41.8775800" lon="-8.8371980">
        <ele>4.1</ele>
        <time>2021-05-18T14:35:06Z</time>
      </trkpt>
      <trkpt lat="41.8775800" lon="-8.8371950">
        <ele>4.1</ele>
        <time>2021-05-18T14:35:07Z</time>
      </trkpt>
      <trkpt lat="41.8775770" lon="-8.8371930">
        <ele>4.1</ele>
        <time>2021-05-18T14:35:08Z</time>
      </trkpt>
      <trkpt lat="41.8775770" lon="-8.8371930">
        <ele>4.1</ele>
        <time>2021-05-18T14:35:09Z</time>
      </trkpt>
      <trkpt lat="41.8775750" lon="-8.8371850">
        <ele>4.1</ele>
        <time>2021-05-18T14:35:10Z</time>
      </trkpt>
      <trkpt lat="41.8775700" lon="-8.8371800">
        <ele>4.1</ele>
        <time>2021-05-18T14:35:11Z</time>
      </trkpt>
      <trkpt lat="41.8775670" lon="-8.8371750">
        <ele>4.1</ele>
        <time>2021-05-18T14:35:12Z</time>
      </trkpt>
      <trkpt lat="41.8775670" lon="-8.8371690">
        <ele>4.1</ele>
        <time>2021-05-18T14:35:13Z</time>
      </trkpt>
      <trkpt lat="41.8775690" lon="-8.8371710">
        <ele>4.1</ele>
        <time>2021-05-18T14:35:14Z</time>
      </trkpt>
      <trkpt lat="41.8775700" lon="-8.8371750">
        <ele>4.1</ele>
        <time>2021-05-18T14:35:15Z</time>
      </trkpt>
      <trkpt lat="41.8775700" lon="-8.8371790">
        <ele>4.1</ele>
        <time>2021-05-18T14:35:16Z</time>
      </trkpt>
      <trkpt lat="41.8775710" lon="-8.8371790">
        <ele>4.1</ele>
        <time>2021-05-18T14:35:17Z</time>
      </trkpt>
      <trkpt lat="41.8775720" lon="-8.8371760">
        <ele>4.1</ele>
        <time>2021-05-18T14:35:18Z</time>
      </trkpt>
      <trkpt lat="41.8775710" lon="-8.8371800">
        <ele>4.1</ele>
        <time>2021-05-18T14:35:19Z</time>
      </trkpt>
      <trkpt lat="41.8775720" lon="-8.8371800">
        <ele>4.1</ele>
        <time>2021-05-18T14:35:20Z</time>
      </trkpt>
      <trkpt lat="41.8775740" lon="-8.8371800">
        <ele>4.1</ele>
        <time>2021-05-18T14:35:21Z</time>
      </trkpt>
      <trkpt lat="41.8775760" lon="-8.8371790">
        <ele>4.1</ele>
        <time>2021-05-18T14:35:22Z</time>
      </trkpt>
      <trkpt lat="41.8775760" lon="-8.8371760">
        <ele>4.1</ele>
        <time>2021-05-18T14:35:23Z</time>
      </trkpt>
      <trkpt lat="41.8775760" lon="-8.8371760">
        <ele>4.1</ele>
        <time>2021-05-18T14:35:24Z</time>
      </trkpt>
      <trkpt lat="41.8775760" lon="-8.8371760">
        <ele>4.1</ele>
        <time>2021-05-18T14:35:25Z</time>
      </trkpt>
      <trkpt lat="41.8775760" lon="-8.8371760">
        <ele>4.1</ele>
        <time>2021-05-18T14:35:26Z</time>
      </trkpt>
      <trkpt lat="41.8775730" lon="-8.8371700">
        <ele>4.1</ele>
        <time>2021-05-18T14:35:27Z</time>
      </trkpt>
      <trkpt lat="41.8775720" lon="-8.8371690">
        <ele>4.1</ele>
        <time>2021-05-18T14:35:28Z</time>
      </trkpt>
      <trkpt lat="41.8775730" lon="-8.8371700">
        <ele>4.1</ele>
        <time>2021-05-18T14:35:29Z</time>
      </trkpt>
      <trkpt lat="41.8775750" lon="-8.8371720">
        <ele>4.1</ele>
        <time>2021-05-18T14:35:30Z</time>
      </trkpt>
      <trkpt lat="41.8775750" lon="-8.8371730">
        <ele>4.1</ele>
        <time>2021-05-18T14:35:31Z</time>
      </trkpt>
      <trkpt lat="41.8775740" lon="-8.8371750">
        <ele>4.1</ele>
        <time>2021-05-18T14:35:32Z</time>
      </trkpt>
      <trkpt lat="41.8775770" lon="-8.8371760">
        <ele>4.1</ele>
        <time>2021-05-18T14:35:33Z</time>
      </trkpt>
      <trkpt lat="41.8775780" lon="-8.8371770">
        <ele>4.1</ele>
        <time>2021-05-18T14:35:34Z</time>
      </trkpt>
      <trkpt lat="41.8775790" lon="-8.8371770">
        <ele>4.1</ele>
        <time>2021-05-18T14:35:35Z</time>
      </trkpt>
      <trkpt lat="41.8775800" lon="-8.8371770">
        <ele>4.1</ele>
        <time>2021-05-18T14:35:36Z</time>
      </trkpt>
      <trkpt lat="41.8775800" lon="-8.8371770">
        <ele>4.1</ele>
        <time>2021-05-18T14:35:37Z</time>
      </trkpt>
      <trkpt lat="41.8775790" lon="-8.8371760">
        <ele>4.1</ele>
        <time>2021-05-18T14:35:38Z</time>
      </trkpt>
      <trkpt lat="41.8775800" lon="-8.8371780">
        <ele>4.1</ele>
        <time>2021-05-18T14:35:39Z</time>
      </trkpt>
      <trkpt lat="41.8775910" lon="-8.8371700">
        <ele>4.1</ele>
        <time>2021-05-18T14:35:40Z</time>
      </trkpt>
      <trkpt lat="41.8775860" lon="-8.8371760">
        <ele>4.1</ele>
        <time>2021-05-18T14:35:41Z</time>
      </trkpt>
      <trkpt lat="41.8775830" lon="-8.8371790">
        <ele>4.1</ele>
        <time>2021-05-18T14:35:42Z</time>
      </trkpt>
      <trkpt lat="41.8775820" lon="-8.8371780">
        <ele>4.1</ele>
        <time>2021-05-18T14:35:43Z</time>
      </trkpt>
      <trkpt lat="41.8775790" lon="-8.8371790">
        <ele>4.1</ele>
        <time>2021-05-18T14:35:44Z</time>
      </trkpt>
      <trkpt lat="41.8775750" lon="-8.8371800">
        <ele>4.1</ele>
        <time>2021-05-18T14:35:45Z</time>
      </trkpt>
      <trkpt lat="41.8775720" lon="-8.8371790">
        <ele>4.1</ele>
        <time>2021-05-18T14:35:46Z</time>
      </trkpt>
      <trkpt lat="41.8775690" lon="-8.8371800">
        <ele>4.1</ele>
        <time>2021-05-18T14:35:47Z</time>
      </trkpt>
      <trkpt lat="41.8775680" lon="-8.8371800">
        <ele>4.1</ele>
        <time>2021-05-18T14:35:48Z</time>
      </trkpt>
      <trkpt lat="41.8775700" lon="-8.8371760">
        <ele>4.1</ele>
        <time>2021-05-18T14:35:49Z</time>
      </trkpt>
      <trkpt lat="41.8775690" lon="-8.8371750">
        <ele>4.1</ele>
        <time>2021-05-18T14:35:50Z</time>
      </trkpt>
      <trkpt lat="41.8775720" lon="-8.8371750">
        <ele>4.1</ele>
        <time>2021-05-18T14:35:51Z</time>
      </trkpt>
      <trkpt lat="41.8775750" lon="-8.8371730">
        <ele>4.1</ele>
        <time>2021-05-18T14:35:52Z</time>
      </trkpt>
      <trkpt lat="41.8775840" lon="-8.8371700">
        <ele>4.1</ele>
        <time>2021-05-18T14:35:53Z</time>
      </trkpt>
      <trkpt lat="41.8775900" lon="-8.8371720">
        <ele>4.1</ele>
        <time>2021-05-18T14:35:54Z</time>
      </trkpt>
      <trkpt lat="41.8776000" lon="-8.8371670">
        <ele>4.0</ele>
        <time>2021-05-18T14:35:55Z</time>
      </trkpt>
      <trkpt lat="41.8775940" lon="-8.8371460">
        <ele>4.0</ele>
        <time>2021-05-18T14:35:56Z</time>
      </trkpt>
      <trkpt lat="41.8775930" lon="-8.8371330">
        <ele>4.0</ele>
        <time>2021-05-18T14:35:57Z</time>
      </trkpt>
      <trkpt lat="41.8775950" lon="-8.8371050">
        <ele>4.0</ele>
        <time>2021-05-18T14:35:58Z</time>
      </trkpt>
      <trkpt lat="41.8776050" lon="-8.8370870">
        <ele>4.0</ele>
        <time>2021-05-18T14:35:59Z</time>
      </trkpt>
      <trkpt lat="41.8776070" lon="-8.8370680">
        <ele>4.0</ele>
        <time>2021-05-18T14:36:00Z</time>
      </trkpt>
      <trkpt lat="41.8776100" lon="-8.8370510">
        <ele>4.0</ele>
        <time>2021-05-18T14:36:01Z</time>
      </trkpt>
      <trkpt lat="41.8776160" lon="-8.8370450">
        <ele>4.0</ele>
        <time>2021-05-18T14:36:02Z</time>
      </trkpt>
      <trkpt lat="41.8776240" lon="-8.8370370">
        <ele>4.0</ele>
        <time>2021-05-18T14:36:03Z</time>
      </trkpt>
      <trkpt lat="41.8776310" lon="-8.8370260">
        <ele>4.0</ele>
        <time>2021-05-18T14:36:04Z</time>
      </trkpt>
      <trkpt lat="41.8776390" lon="-8.8370140">
        <ele>4.0</ele>
        <time>2021-05-18T14:36:05Z</time>
      </trkpt>
      <trkpt lat="41.8776400" lon="-8.8370040">
        <ele>4.0</ele>
        <time>2021-05-18T14:36:06Z</time>
      </trkpt>
      <trkpt lat="41.8776540" lon="-8.8369780">
        <ele>4.0</ele>
        <time>2021-05-18T14:36:07Z</time>
      </trkpt>
      <trkpt lat="41.8776570" lon="-8.8369680">
        <ele>4.0</ele>
        <time>2021-05-18T14:36:08Z</time>
      </trkpt>
      <trkpt lat="41.8776610" lon="-8.8369580">
        <ele>4.0</ele>
        <time>2021-05-18T14:36:09Z</time>
      </trkpt>
      <trkpt lat="41.8776630" lon="-8.8369490">
        <ele>4.0</ele>
        <time>2021-05-18T14:36:10Z</time>
      </trkpt>
      <trkpt lat="41.8776710" lon="-8.8369340">
        <ele>4.0</ele>
        <time>2021-05-18T14:36:11Z</time>
      </trkpt>
      <trkpt lat="41.8776770" lon="-8.8369310">
        <ele>4.0</ele>
        <time>2021-05-18T14:36:12Z</time>
      </trkpt>
      <trkpt lat="41.8776860" lon="-8.8369310">
        <ele>4.0</ele>
        <time>2021-05-18T14:36:13Z</time>
      </trkpt>
      <trkpt lat="41.8776970" lon="-8.8369260">
        <ele>4.0</ele>
        <time>2021-05-18T14:36:14Z</time>
      </trkpt>
      <trkpt lat="41.8777050" lon="-8.8369050">
        <ele>4.0</ele>
        <time>2021-05-18T14:36:15Z</time>
      </trkpt>
      <trkpt lat="41.8777150" lon="-8.8369020">
        <ele>4.0</ele>
        <time>2021-05-18T14:36:16Z</time>
      </trkpt>
      <trkpt lat="41.8777320" lon="-8.8368870">
        <ele>3.9</ele>
        <time>2021-05-18T14:36:17Z</time>
      </trkpt>
      <trkpt lat="41.8777390" lon="-8.8368800">
        <ele>3.9</ele>
        <time>2021-05-18T14:36:18Z</time>
      </trkpt>
      <trkpt lat="41.8777450" lon="-8.8368720">
        <ele>3.9</ele>
        <time>2021-05-18T14:36:19Z</time>
      </trkpt>
      <trkpt lat="41.8777570" lon="-8.8368540">
        <ele>3.9</ele>
        <time>2021-05-18T14:36:20Z</time>
      </trkpt>
      <trkpt lat="41.8777710" lon="-8.8368410">
        <ele>3.9</ele>
        <time>2021-05-18T14:36:21Z</time>
      </trkpt>
      <trkpt lat="41.8777770" lon="-8.8368270">
        <ele>3.9</ele>
        <time>2021-05-18T14:36:22Z</time>
      </trkpt>
      <trkpt lat="41.8777860" lon="-8.8368180">
        <ele>3.9</ele>
        <time>2021-05-18T14:36:23Z</time>
      </trkpt>
      <trkpt lat="41.8778030" lon="-8.8368170">
        <ele>3.9</ele>
        <time>2021-05-18T14:36:24Z</time>
      </trkpt>
      <trkpt lat="41.8778200" lon="-8.8368020">
        <ele>3.9</ele>
        <time>2021-05-18T14:36:25Z</time>
      </trkpt>
      <trkpt lat="41.8778280" lon="-8.8367950">
        <ele>3.9</ele>
        <time>2021-05-18T14:36:26Z</time>
      </trkpt>
      <trkpt lat="41.8778370" lon="-8.8367880">
        <ele>3.9</ele>
        <time>2021-05-18T14:36:27Z</time>
      </trkpt>
      <trkpt lat="41.8778510" lon="-8.8367690">
        <ele>3.8</ele>
        <time>2021-05-18T14:36:28Z</time>
      </trkpt>
      <trkpt lat="41.8778590" lon="-8.8367630">
        <ele>3.8</ele>
        <time>2021-05-18T14:36:29Z</time>
      </trkpt>
      <trkpt lat="41.8778660" lon="-8.8367570">
        <ele>3.8</ele>
        <time>2021-05-18T14:36:30Z</time>
      </trkpt>
      <trkpt lat="41.8778770" lon="-8.8367440">
        <ele>3.8</ele>
        <time>2021-05-18T14:36:31Z</time>
      </trkpt>
      <trkpt lat="41.8778850" lon="-8.8367300">
        <ele>3.8</ele>
        <time>2021-05-18T14:36:32Z</time>
      </trkpt>
      <trkpt lat="41.8778940" lon="-8.8367330">
        <ele>3.8</ele>
        <time>2021-05-18T14:36:33Z</time>
      </trkpt>
      <trkpt lat="41.8779040" lon="-8.8367280">
        <ele>3.8</ele>
        <time>2021-05-18T14:36:34Z</time>
      </trkpt>
      <trkpt lat="41.8779130" lon="-8.8367200">
        <ele>3.8</ele>
        <time>2021-05-18T14:36:35Z</time>
      </trkpt>
      <trkpt lat="41.8779310" lon="-8.8367150">
        <ele>3.8</ele>
        <time>2021-05-18T14:36:36Z</time>
      </trkpt>
      <trkpt lat="41.8779380" lon="-8.8367050">
        <ele>3.8</ele>
        <time>2021-05-18T14:36:37Z</time>
      </trkpt>
      <trkpt lat="41.8779450" lon="-8.8367010">
        <ele>3.8</ele>
        <time>2021-05-18T14:36:38Z</time>
      </trkpt>
      <trkpt lat="41.8779630" lon="-8.8367030">
        <ele>3.8</ele>
        <time>2021-05-18T14:36:39Z</time>
      </trkpt>
      <trkpt lat="41.8779760" lon="-8.8366960">
        <ele>3.8</ele>
        <time>2021-05-18T14:36:40Z</time>
      </trkpt>
      <trkpt lat="41.8779980" lon="-8.8366980">
        <ele>3.7</ele>
        <time>2021-05-18T14:36:41Z</time>
      </trkpt>
      <trkpt lat="41.8780070" lon="-8.8366950">
        <ele>3.7</ele>
        <time>2021-05-18T14:36:42Z</time>
      </trkpt>
      <trkpt lat="41.8780150" lon="-8.8366930">
        <ele>3.7</ele>
        <time>2021-05-18T14:36:43Z</time>
      </trkpt>
      <trkpt lat="41.8780350" lon="-8.8366850">
        <ele>3.7</ele>
        <time>2021-05-18T14:36:44Z</time>
      </trkpt>
      <trkpt lat="41.8780440" lon="-8.8366810">
        <ele>3.7</ele>
        <time>2021-05-18T14:36:45Z</time>
      </trkpt>
      <trkpt lat="41.8780540" lon="-8.8366760">
        <ele>3.7</ele>
        <time>2021-05-18T14:36:46Z</time>
      </trkpt>
      <trkpt lat="41.8780650" lon="-8.8366710">
        <ele>3.7</ele>
        <time>2021-05-18T14:36:47Z</time>
      </trkpt>
      <trkpt lat="41.8780820" lon="-8.8366750">
        <ele>3.7</ele>
        <time>2021-05-18T14:36:48Z</time>
      </trkpt>
      <trkpt lat="41.8780970" lon="-8.8366770">
        <ele>3.7</ele>
        <time>2021-05-18T14:36:49Z</time>
      </trkpt>
      <trkpt lat="41.8781110" lon="-8.8366810">
        <ele>3.7</ele>
        <time>2021-05-18T14:36:50Z</time>
      </trkpt>
      <trkpt lat="41.8781150" lon="-8.8366800">
        <ele>3.7</ele>
        <time>2021-05-18T14:36:51Z</time>
      </trkpt>
      <trkpt lat="41.8781300" lon="-8.8366820">
        <ele>3.7</ele>
        <time>2021-05-18T14:36:52Z</time>
      </trkpt>
      <trkpt lat="41.8781440" lon="-8.8366820">
        <ele>3.6</ele>
        <time>2021-05-18T14:36:53Z</time>
      </trkpt>
      <trkpt lat="41.8781590" lon="-8.8366980">
        <ele>3.6</ele>
        <time>2021-05-18T14:36:54Z</time>
      </trkpt>
      <trkpt lat="41.8781640" lon="-8.8367080">
        <ele>3.6</ele>
        <time>2021-05-18T14:36:55Z</time>
      </trkpt>
      <trkpt lat="41.8781700" lon="-8.8367170">
        <ele>3.6</ele>
        <time>2021-05-18T14:36:56Z</time>
      </trkpt>
      <trkpt lat="41.8781810" lon="-8.8367280">
        <ele>3.6</ele>
        <time>2021-05-18T14:36:57Z</time>
      </trkpt>
      <trkpt lat="41.8781910" lon="-8.8367360">
        <ele>3.6</ele>
        <time>2021-05-18T14:36:58Z</time>
      </trkpt>
      <trkpt lat="41.8782020" lon="-8.8367330">
        <ele>3.6</ele>
        <time>2021-05-18T14:36:59Z</time>
      </trkpt>
      <trkpt lat="41.8782160" lon="-8.8367390">
        <ele>3.6</ele>
        <time>2021-05-18T14:37:00Z</time>
      </trkpt>
      <trkpt lat="41.8782240" lon="-8.8367490">
        <ele>3.6</ele>
        <time>2021-05-18T14:37:01Z</time>
      </trkpt>
      <trkpt lat="41.8782330" lon="-8.8367540">
        <ele>3.6</ele>
        <time>2021-05-18T14:37:02Z</time>
      </trkpt>
      <trkpt lat="41.8782450" lon="-8.8367670">
        <ele>3.6</ele>
        <time>2021-05-18T14:37:03Z</time>
      </trkpt>
      <trkpt lat="41.8782580" lon="-8.8367800">
        <ele>3.6</ele>
        <time>2021-05-18T14:37:04Z</time>
      </trkpt>
      <trkpt lat="41.8782690" lon="-8.8367900">
        <ele>3.6</ele>
        <time>2021-05-18T14:37:05Z</time>
      </trkpt>
      <trkpt lat="41.8782820" lon="-8.8367840">
        <ele>3.6</ele>
        <time>2021-05-18T14:37:06Z</time>
      </trkpt>
      <trkpt lat="41.8782940" lon="-8.8367760">
        <ele>3.6</ele>
        <time>2021-05-18T14:37:07Z</time>
      </trkpt>
      <trkpt lat="41.8783040" lon="-8.8367660">
        <ele>3.6</ele>
        <time>2021-05-18T14:37:08Z</time>
      </trkpt>
      <trkpt lat="41.8783160" lon="-8.8367480">
        <ele>3.6</ele>
        <time>2021-05-18T14:37:09Z</time>
      </trkpt>
      <trkpt lat="41.8783300" lon="-8.8367390">
        <ele>3.6</ele>
        <time>2021-05-18T14:37:10Z</time>
      </trkpt>
      <trkpt lat="41.8783360" lon="-8.8367330">
        <ele>3.6</ele>
        <time>2021-05-18T14:37:11Z</time>
      </trkpt>
      <trkpt lat="41.8783470" lon="-8.8367290">
        <ele>3.6</ele>
        <time>2021-05-18T14:37:12Z</time>
      </trkpt>
      <trkpt lat="41.8783560" lon="-8.8367230">
        <ele>3.6</ele>
        <time>2021-05-18T14:37:13Z</time>
      </trkpt>
      <trkpt lat="41.8783670" lon="-8.8367150">
        <ele>3.6</ele>
        <time>2021-05-18T14:37:14Z</time>
      </trkpt>
      <trkpt lat="41.8783720" lon="-8.8367040">
        <ele>3.6</ele>
        <time>2021-05-18T14:37:15Z</time>
      </trkpt>
      <trkpt lat="41.8783830" lon="-8.8366940">
        <ele>3.6</ele>
        <time>2021-05-18T14:37:16Z</time>
      </trkpt>
      <trkpt lat="41.8783910" lon="-8.8366860">
        <ele>3.6</ele>
        <time>2021-05-18T14:37:17Z</time>
      </trkpt>
      <trkpt lat="41.8783970" lon="-8.8366840">
        <ele>3.6</ele>
        <time>2021-05-18T14:37:18Z</time>
      </trkpt>
      <trkpt lat="41.8783920" lon="-8.8366790">
        <ele>3.6</ele>
        <time>2021-05-18T14:37:19Z</time>
      </trkpt>
      <trkpt lat="41.8783890" lon="-8.8366750">
        <ele>3.6</ele>
        <time>2021-05-18T14:37:20Z</time>
      </trkpt>
      <trkpt lat="41.8783900" lon="-8.8366680">
        <ele>3.6</ele>
        <time>2021-05-18T14:37:21Z</time>
      </trkpt>
      <trkpt lat="41.8783880" lon="-8.8366610">
        <ele>3.6</ele>
        <time>2021-05-18T14:37:22Z</time>
      </trkpt>
      <trkpt lat="41.8783850" lon="-8.8366620">
        <ele>3.6</ele>
        <time>2021-05-18T14:37:23Z</time>
      </trkpt>
      <trkpt lat="41.8783830" lon="-8.8366580">
        <ele>3.6</ele>
        <time>2021-05-18T14:37:24Z</time>
      </trkpt>
      <trkpt lat="41.8783770" lon="-8.8366490">
        <ele>3.6</ele>
        <time>2021-05-18T14:37:25Z</time>
      </trkpt>
      <trkpt lat="41.8783780" lon="-8.8366480">
        <ele>3.6</ele>
        <time>2021-05-18T14:37:26Z</time>
      </trkpt>
      <trkpt lat="41.8783820" lon="-8.8366450">
        <ele>3.6</ele>
        <time>2021-05-18T14:37:27Z</time>
      </trkpt>
      <trkpt lat="41.8783910" lon="-8.8366260">
        <ele>3.6</ele>
        <time>2021-05-18T14:37:28Z</time>
      </trkpt>
      <trkpt lat="41.8783980" lon="-8.8366210">
        <ele>3.6</ele>
        <time>2021-05-18T14:37:29Z</time>
      </trkpt>
      <trkpt lat="41.8784160" lon="-8.8366110">
        <ele>3.6</ele>
        <time>2021-05-18T14:37:30Z</time>
      </trkpt>
      <trkpt lat="41.8784240" lon="-8.8366030">
        <ele>3.6</ele>
        <time>2021-05-18T14:37:31Z</time>
      </trkpt>
      <trkpt lat="41.8784310" lon="-8.8365960">
        <ele>3.6</ele>
        <time>2021-05-18T14:37:32Z</time>
      </trkpt>
      <trkpt lat="41.8784390" lon="-8.8365920">
        <ele>3.6</ele>
        <time>2021-05-18T14:37:33Z</time>
      </trkpt>
      <trkpt lat="41.8784480" lon="-8.8365860">
        <ele>3.6</ele>
        <time>2021-05-18T14:37:34Z</time>
      </trkpt>
      <trkpt lat="41.8784630" lon="-8.8365950">
        <ele>3.6</ele>
        <time>2021-05-18T14:37:35Z</time>
      </trkpt>
      <trkpt lat="41.8784730" lon="-8.8365910">
        <ele>3.6</ele>
        <time>2021-05-18T14:37:36Z</time>
      </trkpt>
      <trkpt lat="41.8784790" lon="-8.8365900">
        <ele>3.6</ele>
        <time>2021-05-18T14:37:37Z</time>
      </trkpt>
      <trkpt lat="41.8784950" lon="-8.8365890">
        <ele>3.6</ele>
        <time>2021-05-18T14:37:38Z</time>
      </trkpt>
      <trkpt lat="41.8784980" lon="-8.8365930">
        <ele>3.6</ele>
        <time>2021-05-18T14:37:39Z</time>
      </trkpt>
      <trkpt lat="41.8785030" lon="-8.8365970">
        <ele>3.6</ele>
        <time>2021-05-18T14:37:40Z</time>
      </trkpt>
      <trkpt lat="41.8785190" lon="-8.8366080">
        <ele>3.6</ele>
        <time>2021-05-18T14:37:41Z</time>
      </trkpt>
      <trkpt lat="41.8785260" lon="-8.8366140">
        <ele>3.6</ele>
        <time>2021-05-18T14:37:42Z</time>
      </trkpt>
      <trkpt lat="41.8785380" lon="-8.8366160">
        <ele>3.6</ele>
        <time>2021-05-18T14:37:43Z</time>
      </trkpt>
      <trkpt lat="41.8785520" lon="-8.8366280">
        <ele>3.6</ele>
        <time>2021-05-18T14:37:44Z</time>
      </trkpt>
      <trkpt lat="41.8785660" lon="-8.8366330">
        <ele>3.6</ele>
        <time>2021-05-18T14:37:45Z</time>
      </trkpt>
      <trkpt lat="41.8785760" lon="-8.8366480">
        <ele>3.6</ele>
        <time>2021-05-18T14:37:46Z</time>
      </trkpt>
      <trkpt lat="41.8785870" lon="-8.8366550">
        <ele>3.6</ele>
        <time>2021-05-18T14:37:47Z</time>
      </trkpt>
      <trkpt lat="41.8785970" lon="-8.8366540">
        <ele>3.6</ele>
        <time>2021-05-18T14:37:48Z</time>
      </trkpt>
      <trkpt lat="41.8786090" lon="-8.8366620">
        <ele>3.6</ele>
        <time>2021-05-18T14:37:49Z</time>
      </trkpt>
      <trkpt lat="41.8786260" lon="-8.8366760">
        <ele>3.6</ele>
        <time>2021-05-18T14:37:50Z</time>
      </trkpt>
      <trkpt lat="41.8786340" lon="-8.8366840">
        <ele>3.6</ele>
        <time>2021-05-18T14:37:51Z</time>
      </trkpt>
      <trkpt lat="41.8786410" lon="-8.8366910">
        <ele>3.6</ele>
        <time>2021-05-18T14:37:52Z</time>
      </trkpt>
      <trkpt lat="41.8786490" lon="-8.8366960">
        <ele>3.6</ele>
        <time>2021-05-18T14:37:53Z</time>
      </trkpt>
      <trkpt lat="41.8786590" lon="-8.8367050">
        <ele>3.6</ele>
        <time>2021-05-18T14:37:54Z</time>
      </trkpt>
      <trkpt lat="41.8786680" lon="-8.8367160">
        <ele>3.6</ele>
        <time>2021-05-18T14:37:55Z</time>
      </trkpt>
      <trkpt lat="41.8786790" lon="-8.8367210">
        <ele>3.6</ele>
        <time>2021-05-18T14:37:56Z</time>
      </trkpt>
      <trkpt lat="41.8786870" lon="-8.8367260">
        <ele>3.6</ele>
        <time>2021-05-18T14:37:57Z</time>
      </trkpt>
      <trkpt lat="41.8786960" lon="-8.8367370">
        <ele>3.6</ele>
        <time>2021-05-18T14:37:58Z</time>
      </trkpt>
      <trkpt lat="41.8787100" lon="-8.8367510">
        <ele>3.6</ele>
        <time>2021-05-18T14:37:59Z</time>
      </trkpt>
      <trkpt lat="41.8787170" lon="-8.8367590">
        <ele>3.6</ele>
        <time>2021-05-18T14:38:00Z</time>
      </trkpt>
      <trkpt lat="41.8787250" lon="-8.8367700">
        <ele>3.6</ele>
        <time>2021-05-18T14:38:01Z</time>
      </trkpt>
      <trkpt lat="41.8787260" lon="-8.8367740">
        <ele>3.6</ele>
        <time>2021-05-18T14:38:02Z</time>
      </trkpt>
      <trkpt lat="41.8787280" lon="-8.8367740">
        <ele>3.6</ele>
        <time>2021-05-18T14:38:03Z</time>
      </trkpt>
      <trkpt lat="41.8787280" lon="-8.8367720">
        <ele>3.6</ele>
        <time>2021-05-18T14:38:04Z</time>
      </trkpt>
      <trkpt lat="41.8787340" lon="-8.8367760">
        <ele>3.6</ele>
        <time>2021-05-18T14:38:05Z</time>
      </trkpt>
      <trkpt lat="41.8787390" lon="-8.8367750">
        <ele>3.6</ele>
        <time>2021-05-18T14:38:06Z</time>
      </trkpt>
      <trkpt lat="41.8787420" lon="-8.8367800">
        <ele>3.6</ele>
        <time>2021-05-18T14:38:07Z</time>
      </trkpt>
      <trkpt lat="41.8787420" lon="-8.8367820">
        <ele>3.6</ele>
        <time>2021-05-18T14:38:08Z</time>
      </trkpt>
      <trkpt lat="41.8787410" lon="-8.8367820">
        <ele>3.6</ele>
        <time>2021-05-18T14:38:09Z</time>
      </trkpt>
      <trkpt lat="41.8787410" lon="-8.8367820">
        <ele>3.6</ele>
        <time>2021-05-18T14:38:10Z</time>
      </trkpt>
      <trkpt lat="41.8787410" lon="-8.8367830">
        <ele>3.6</ele>
        <time>2021-05-18T14:38:11Z</time>
      </trkpt>
      <trkpt lat="41.8787410" lon="-8.8367830">
        <ele>3.6</ele>
        <time>2021-05-18T14:38:12Z</time>
      </trkpt>
      <trkpt lat="41.8787400" lon="-8.8367830">
        <ele>3.6</ele>
        <time>2021-05-18T14:38:13Z</time>
      </trkpt>
      <trkpt lat="41.8787400" lon="-8.8367830">
        <ele>3.6</ele>
        <time>2021-05-18T14:38:14Z</time>
      </trkpt>
      <trkpt lat="41.8787400" lon="-8.8367830">
        <ele>3.6</ele>
        <time>2021-05-18T14:38:15Z</time>
      </trkpt>
      <trkpt lat="41.8787400" lon="-8.8367830">
        <ele>3.6</ele>
        <time>2021-05-18T14:38:16Z</time>
      </trkpt>
      <trkpt lat="41.8787390" lon="-8.8367830">
        <ele>3.6</ele>
        <time>2021-05-18T14:38:17Z</time>
      </trkpt>
      <trkpt lat="41.8787390" lon="-8.8367840">
        <ele>3.6</ele>
        <time>2021-05-18T14:38:18Z</time>
      </trkpt>
      <trkpt lat="41.8787390" lon="-8.8367840">
        <ele>3.6</ele>
        <time>2021-05-18T14:38:19Z</time>
      </trkpt>
      <trkpt lat="41.8787390" lon="-8.8367840">
        <ele>3.6</ele>
        <time>2021-05-18T14:38:20Z</time>
      </trkpt>
      <trkpt lat="41.8787380" lon="-8.8367840">
        <ele>3.6</ele>
        <time>2021-05-18T14:38:21Z</time>
      </trkpt>
      <trkpt lat="41.8787380" lon="-8.8367840">
        <ele>3.6</ele>
        <time>2021-05-18T14:38:22Z</time>
      </trkpt>
      <trkpt lat="41.8787380" lon="-8.8367840">
        <ele>3.6</ele>
        <time>2021-05-18T14:38:23Z</time>
      </trkpt>
      <trkpt lat="41.8787380" lon="-8.8367840">
        <ele>3.6</ele>
        <time>2021-05-18T14:38:24Z</time>
      </trkpt>
      <trkpt lat="41.8787370" lon="-8.8367840">
        <ele>3.6</ele>
        <time>2021-05-18T14:38:25Z</time>
      </trkpt>
      <trkpt lat="41.8787370" lon="-8.8367850">
        <ele>3.6</ele>
        <time>2021-05-18T14:38:26Z</time>
      </trkpt>
      <trkpt lat="41.8787370" lon="-8.8367850">
        <ele>3.6</ele>
        <time>2021-05-18T14:38:27Z</time>
      </trkpt>
      <trkpt lat="41.8787360" lon="-8.8367850">
        <ele>3.6</ele>
        <time>2021-05-18T14:38:28Z</time>
      </trkpt>
      <trkpt lat="41.8787360" lon="-8.8367850">
        <ele>3.6</ele>
        <time>2021-05-18T14:38:29Z</time>
      </trkpt>
      <trkpt lat="41.8787360" lon="-8.8367850">
        <ele>3.6</ele>
        <time>2021-05-18T14:38:30Z</time>
      </trkpt>
      <trkpt lat="41.8787360" lon="-8.8367850">
        <ele>3.6</ele>
        <time>2021-05-18T14:38:31Z</time>
      </trkpt>
      <trkpt lat="41.8787350" lon="-8.8367850">
        <ele>3.6</ele>
        <time>2021-05-18T14:38:32Z</time>
      </trkpt>
      <trkpt lat="41.8787350" lon="-8.8367860">
        <ele>3.6</ele>
        <time>2021-05-18T14:38:33Z</time>
      </trkpt>
      <trkpt lat="41.8787350" lon="-8.8367860">
        <ele>3.6</ele>
        <time>2021-05-18T14:38:34Z</time>
      </trkpt>
      <trkpt lat="41.8787350" lon="-8.8367860">
        <ele>3.6</ele>
        <time>2021-05-18T14:38:35Z</time>
      </trkpt>
      <trkpt lat="41.8787340" lon="-8.8367860">
        <ele>3.6</ele>
        <time>2021-05-18T14:38:36Z</time>
      </trkpt>
      <trkpt lat="41.8787340" lon="-8.8367860">
        <ele>3.6</ele>
        <time>2021-05-18T14:38:37Z</time>
      </trkpt>
      <trkpt lat="41.8787340" lon="-8.8367860">
        <ele>3.6</ele>
        <time>2021-05-18T14:38:38Z</time>
      </trkpt>
      <trkpt lat="41.8787340" lon="-8.8367860">
        <ele>3.6</ele>
        <time>2021-05-18T14:38:39Z</time>
      </trkpt>
      <trkpt lat="41.8787330" lon="-8.8367870">
        <ele>3.6</ele>
        <time>2021-05-18T14:38:40Z</time>
      </trkpt>
      <trkpt lat="41.8787330" lon="-8.8367870">
        <ele>3.6</ele>
        <time>2021-05-18T14:38:41Z</time>
      </trkpt>
      <trkpt lat="41.8787330" lon="-8.8367870">
        <ele>3.6</ele>
        <time>2021-05-18T14:38:42Z</time>
      </trkpt>
      <trkpt lat="41.8787330" lon="-8.8367870">
        <ele>3.6</ele>
        <time>2021-05-18T14:38:43Z</time>
      </trkpt>
      <trkpt lat="41.8787320" lon="-8.8367870">
        <ele>3.6</ele>
        <time>2021-05-18T14:38:44Z</time>
      </trkpt>
      <trkpt lat="41.8787320" lon="-8.8367870">
        <ele>3.6</ele>
        <time>2021-05-18T14:38:45Z</time>
      </trkpt>
      <trkpt lat="41.8787320" lon="-8.8367870">
        <ele>3.6</ele>
        <time>2021-05-18T14:38:46Z</time>
      </trkpt>
      <trkpt lat="41.8787310" lon="-8.8367880">
        <ele>3.5</ele>
        <time>2021-05-18T14:38:47Z</time>
      </trkpt>
      <trkpt lat="41.8787310" lon="-8.8367880">
        <ele>3.5</ele>
        <time>2021-05-18T14:38:48Z</time>
      </trkpt>
      <trkpt lat="41.8787310" lon="-8.8367880">
        <ele>3.5</ele>
        <time>2021-05-18T14:38:49Z</time>
      </trkpt>
      <trkpt lat="41.8787310" lon="-8.8367880">
        <ele>3.5</ele>
        <time>2021-05-18T14:38:50Z</time>
      </trkpt>
      <trkpt lat="41.8787300" lon="-8.8367880">
        <ele>3.5</ele>
        <time>2021-05-18T14:38:51Z</time>
      </trkpt>
      <trkpt lat="41.8787300" lon="-8.8367880">
        <ele>3.5</ele>
        <time>2021-05-18T14:38:52Z</time>
      </trkpt>
      <trkpt lat="41.8787300" lon="-8.8367880">
        <ele>3.5</ele>
        <time>2021-05-18T14:38:53Z</time>
      </trkpt>
      <trkpt lat="41.8787300" lon="-8.8367890">
        <ele>3.5</ele>
        <time>2021-05-18T14:38:54Z</time>
      </trkpt>
      <trkpt lat="41.8787290" lon="-8.8367890">
        <ele>3.5</ele>
        <time>2021-05-18T14:38:55Z</time>
      </trkpt>
      <trkpt lat="41.8787290" lon="-8.8367890">
        <ele>3.5</ele>
        <time>2021-05-18T14:38:56Z</time>
      </trkpt>
      <trkpt lat="41.8787290" lon="-8.8367890">
        <ele>3.5</ele>
        <time>2021-05-18T14:38:57Z</time>
      </trkpt>
      <trkpt lat="41.8787290" lon="-8.8367890">
        <ele>3.5</ele>
        <time>2021-05-18T14:38:58Z</time>
      </trkpt>
      <trkpt lat="41.8787280" lon="-8.8367890">
        <ele>3.5</ele>
        <time>2021-05-18T14:38:59Z</time>
      </trkpt>
      <trkpt lat="41.8787280" lon="-8.8367890">
        <ele>3.5</ele>
        <time>2021-05-18T14:39:00Z</time>
      </trkpt>
      <trkpt lat="41.8787280" lon="-8.8367890">
        <ele>3.5</ele>
        <time>2021-05-18T14:39:01Z</time>
      </trkpt>
      <trkpt lat="41.8787280" lon="-8.8367900">
        <ele>3.5</ele>
        <time>2021-05-18T14:39:02Z</time>
      </trkpt>
      <trkpt lat="41.8787270" lon="-8.8367900">
        <ele>3.5</ele>
        <time>2021-05-18T14:39:03Z</time>
      </trkpt>
      <trkpt lat="41.8787270" lon="-8.8367900">
        <ele>3.5</ele>
        <time>2021-05-18T14:39:04Z</time>
      </trkpt>
      <trkpt lat="41.8787270" lon="-8.8367900">
        <ele>3.5</ele>
        <time>2021-05-18T14:39:05Z</time>
      </trkpt>
      <trkpt lat="41.8787260" lon="-8.8367900">
        <ele>3.5</ele>
        <time>2021-05-18T14:39:06Z</time>
      </trkpt>
      <trkpt lat="41.8787260" lon="-8.8367900">
        <ele>3.5</ele>
        <time>2021-05-18T14:39:07Z</time>
      </trkpt>
      <trkpt lat="41.8787260" lon="-8.8367900">
        <ele>3.5</ele>
        <time>2021-05-18T14:39:08Z</time>
      </trkpt>
      <trkpt lat="41.8787260" lon="-8.8367910">
        <ele>3.5</ele>
        <time>2021-05-18T14:39:09Z</time>
      </trkpt>
      <trkpt lat="41.8787250" lon="-8.8367910">
        <ele>3.5</ele>
        <time>2021-05-18T14:39:10Z</time>
      </trkpt>
      <trkpt lat="41.8787250" lon="-8.8367910">
        <ele>3.5</ele>
        <time>2021-05-18T14:39:11Z</time>
      </trkpt>
      <trkpt lat="41.8787250" lon="-8.8367910">
        <ele>3.5</ele>
        <time>2021-05-18T14:39:12Z</time>
      </trkpt>
      <trkpt lat="41.8787250" lon="-8.8367910">
        <ele>3.5</ele>
        <time>2021-05-18T14:39:13Z</time>
      </trkpt>
      <trkpt lat="41.8787240" lon="-8.8367910">
        <ele>3.5</ele>
        <time>2021-05-18T14:39:14Z</time>
      </trkpt>
      <trkpt lat="41.8787240" lon="-8.8367910">
        <ele>3.5</ele>
        <time>2021-05-18T14:39:15Z</time>
      </trkpt>
      <trkpt lat="41.8787240" lon="-8.8367920">
        <ele>3.5</ele>
        <time>2021-05-18T14:39:16Z</time>
      </trkpt>
      <trkpt lat="41.8787240" lon="-8.8367920">
        <ele>3.5</ele>
        <time>2021-05-18T14:39:17Z</time>
      </trkpt>
      <trkpt lat="41.8787230" lon="-8.8367920">
        <ele>3.5</ele>
        <time>2021-05-18T14:39:18Z</time>
      </trkpt>
      <trkpt lat="41.8787230" lon="-8.8367920">
        <ele>3.5</ele>
        <time>2021-05-18T14:39:19Z</time>
      </trkpt>
      <trkpt lat="41.8787230" lon="-8.8367920">
        <ele>3.5</ele>
        <time>2021-05-18T14:39:20Z</time>
      </trkpt>
      <trkpt lat="41.8787230" lon="-8.8367920">
        <ele>3.5</ele>
        <time>2021-05-18T14:39:21Z</time>
      </trkpt>
      <trkpt lat="41.8787220" lon="-8.8367920">
        <ele>3.5</ele>
        <time>2021-05-18T14:39:22Z</time>
      </trkpt>
      <trkpt lat="41.8787220" lon="-8.8367930">
        <ele>3.5</ele>
        <time>2021-05-18T14:39:23Z</time>
      </trkpt>
      <trkpt lat="41.8787220" lon="-8.8367930">
        <ele>3.5</ele>
        <time>2021-05-18T14:39:24Z</time>
      </trkpt>
      <trkpt lat="41.8787210" lon="-8.8367930">
        <ele>3.5</ele>
        <time>2021-05-18T14:39:25Z</time>
      </trkpt>
      <trkpt lat="41.8787210" lon="-8.8367930">
        <ele>3.5</ele>
        <time>2021-05-18T14:39:26Z</time>
      </trkpt>
      <trkpt lat="41.8787210" lon="-8.8367930">
        <ele>3.5</ele>
        <time>2021-05-18T14:39:27Z</time>
      </trkpt>
      <trkpt lat="41.8787210" lon="-8.8367930">
        <ele>3.5</ele>
        <time>2021-05-18T14:39:28Z</time>
      </trkpt>
      <trkpt lat="41.8787200" lon="-8.8367930">
        <ele>3.5</ele>
        <time>2021-05-18T14:39:29Z</time>
      </trkpt>
      <trkpt lat="41.8787200" lon="-8.8367940">
        <ele>3.5</ele>
        <time>2021-05-18T14:39:30Z</time>
      </trkpt>
      <trkpt lat="41.8787200" lon="-8.8367940">
        <ele>3.5</ele>
        <time>2021-05-18T14:39:31Z</time>
      </trkpt>
      <trkpt lat="41.8787200" lon="-8.8367940">
        <ele>3.5</ele>
        <time>2021-05-18T14:39:32Z</time>
      </trkpt>
      <trkpt lat="41.8787190" lon="-8.8367940">
        <ele>3.5</ele>
        <time>2021-05-18T14:39:33Z</time>
      </trkpt>
      <trkpt lat="41.8787190" lon="-8.8367940">
        <ele>3.5</ele>
        <time>2021-05-18T14:39:34Z</time>
      </trkpt>
      <trkpt lat="41.8787190" lon="-8.8367940">
        <ele>3.5</ele>
        <time>2021-05-18T14:39:35Z</time>
      </trkpt>
      <trkpt lat="41.8787190" lon="-8.8367940">
        <ele>3.5</ele>
        <time>2021-05-18T14:39:36Z</time>
      </trkpt>
      <trkpt lat="41.8787180" lon="-8.8367940">
        <ele>3.5</ele>
        <time>2021-05-18T14:39:37Z</time>
      </trkpt>
      <trkpt lat="41.8787180" lon="-8.8367950">
        <ele>3.5</ele>
        <time>2021-05-18T14:39:38Z</time>
      </trkpt>
      <trkpt lat="41.8787180" lon="-8.8367950">
        <ele>3.5</ele>
        <time>2021-05-18T14:39:39Z</time>
      </trkpt>
      <trkpt lat="41.8787180" lon="-8.8367950">
        <ele>3.5</ele>
        <time>2021-05-18T14:39:40Z</time>
      </trkpt>
      <trkpt lat="41.8787170" lon="-8.8367950">
        <ele>3.5</ele>
        <time>2021-05-18T14:39:41Z</time>
      </trkpt>
      <trkpt lat="41.8787170" lon="-8.8367950">
        <ele>3.5</ele>
        <time>2021-05-18T14:39:42Z</time>
      </trkpt>
      <trkpt lat="41.8787170" lon="-8.8367950">
        <ele>3.5</ele>
        <time>2021-05-18T14:39:43Z</time>
      </trkpt>
      <trkpt lat="41.8787160" lon="-8.8367950">
        <ele>3.5</ele>
        <time>2021-05-18T14:39:44Z</time>
      </trkpt>
      <trkpt lat="41.8787160" lon="-8.8367960">
        <ele>3.5</ele>
        <time>2021-05-18T14:39:45Z</time>
      </trkpt>
      <trkpt lat="41.8787160" lon="-8.8367960">
        <ele>3.5</ele>
        <time>2021-05-18T14:39:46Z</time>
      </trkpt>
      <trkpt lat="41.8787160" lon="-8.8367960">
        <ele>3.5</ele>
        <time>2021-05-18T14:39:47Z</time>
      </trkpt>
      <trkpt lat="41.8787150" lon="-8.8367960">
        <ele>3.5</ele>
        <time>2021-05-18T14:39:48Z</time>
      </trkpt>
      <trkpt lat="41.8787150" lon="-8.8367960">
        <ele>3.5</ele>
        <time>2021-05-18T14:39:49Z</time>
      </trkpt>
      <trkpt lat="41.8787150" lon="-8.8367960">
        <ele>3.5</ele>
        <time>2021-05-18T14:39:50Z</time>
      </trkpt>
      <trkpt lat="41.8787150" lon="-8.8367960">
        <ele>3.5</ele>
        <time>2021-05-18T14:39:51Z</time>
      </trkpt>
      <trkpt lat="41.8787140" lon="-8.8367970">
        <ele>3.5</ele>
        <time>2021-05-18T14:39:52Z</time>
      </trkpt>
      <trkpt lat="41.8787140" lon="-8.8367970">
        <ele>3.5</ele>
        <time>2021-05-18T14:39:53Z</time>
      </trkpt>
      <trkpt lat="41.8787140" lon="-8.8367970">
        <ele>3.5</ele>
        <time>2021-05-18T14:39:54Z</time>
      </trkpt>
      <trkpt lat="41.8787140" lon="-8.8367970">
        <ele>3.5</ele>
        <time>2021-05-18T14:39:55Z</time>
      </trkpt>
      <trkpt lat="41.8787130" lon="-8.8367970">
        <ele>3.5</ele>
        <time>2021-05-18T14:39:56Z</time>
      </trkpt>
      <trkpt lat="41.8787130" lon="-8.8367970">
        <ele>3.5</ele>
        <time>2021-05-18T14:39:57Z</time>
      </trkpt>
      <trkpt lat="41.8787130" lon="-8.8367970">
        <ele>3.5</ele>
        <time>2021-05-18T14:39:58Z</time>
      </trkpt>
      <trkpt lat="41.8787130" lon="-8.8367980">
        <ele>3.5</ele>
        <time>2021-05-18T14:39:59Z</time>
      </trkpt>
      <trkpt lat="41.8787120" lon="-8.8367980">
        <ele>3.5</ele>
        <time>2021-05-18T14:40:00Z</time>
      </trkpt>
      <trkpt lat="41.8787120" lon="-8.8367980">
        <ele>3.5</ele>
        <time>2021-05-18T14:40:01Z</time>
      </trkpt>
      <trkpt lat="41.8787120" lon="-8.8367980">
        <ele>3.5</ele>
        <time>2021-05-18T14:40:02Z</time>
      </trkpt>
      <trkpt lat="41.8787110" lon="-8.8367980">
        <ele>3.5</ele>
        <time>2021-05-18T14:40:03Z</time>
      </trkpt>
      <trkpt lat="41.8787110" lon="-8.8367980">
        <ele>3.5</ele>
        <time>2021-05-18T14:40:04Z</time>
      </trkpt>
      <trkpt lat="41.8787110" lon="-8.8367980">
        <ele>3.5</ele>
        <time>2021-05-18T14:40:05Z</time>
      </trkpt>
      <trkpt lat="41.8787110" lon="-8.8367990">
        <ele>3.5</ele>
        <time>2021-05-18T14:40:06Z</time>
      </trkpt>
      <trkpt lat="41.8787100" lon="-8.8367990">
        <ele>3.5</ele>
        <time>2021-05-18T14:40:07Z</time>
      </trkpt>
      <trkpt lat="41.8787100" lon="-8.8367990">
        <ele>3.5</ele>
        <time>2021-05-18T14:40:08Z</time>
      </trkpt>
      <trkpt lat="41.8787100" lon="-8.8367990">
        <ele>3.5</ele>
        <time>2021-05-18T14:40:09Z</time>
      </trkpt>
      <trkpt lat="41.8787100" lon="-8.8367990">
        <ele>3.5</ele>
        <time>2021-05-18T14:40:10Z</time>
      </trkpt>
      <trkpt lat="41.8787090" lon="-8.8367990">
        <ele>3.5</ele>
        <time>2021-05-18T14:40:11Z</time>
      </trkpt>
      <trkpt lat="41.8787090" lon="-8.8367990">
        <ele>3.5</ele>
        <time>2021-05-18T14:40:12Z</time>
      </trkpt>
      <trkpt lat="41.8787090" lon="-8.8367990">
        <ele>3.5</ele>
        <time>2021-05-18T14:40:13Z</time>
      </trkpt>
      <trkpt lat="41.8787090" lon="-8.8368000">
        <ele>3.5</ele>
        <time>2021-05-18T14:40:14Z</time>
      </trkpt>
      <trkpt lat="41.8787080" lon="-8.8368000">
        <ele>3.5</ele>
        <time>2021-05-18T14:40:15Z</time>
      </trkpt>
      <trkpt lat="41.8787080" lon="-8.8368000">
        <ele>3.5</ele>
        <time>2021-05-18T14:40:16Z</time>
      </trkpt>
      <trkpt lat="41.8787080" lon="-8.8368000">
        <ele>3.5</ele>
        <time>2021-05-18T14:40:17Z</time>
      </trkpt>
      <trkpt lat="41.8787080" lon="-8.8368000">
        <ele>3.5</ele>
        <time>2021-05-18T14:40:18Z</time>
      </trkpt>
      <trkpt lat="41.8787070" lon="-8.8368000">
        <ele>3.5</ele>
        <time>2021-05-18T14:40:19Z</time>
      </trkpt>
      <trkpt lat="41.8787070" lon="-8.8368000">
        <ele>3.5</ele>
        <time>2021-05-18T14:40:20Z</time>
      </trkpt>
      <trkpt lat="41.8787070" lon="-8.8368010">
        <ele>3.5</ele>
        <time>2021-05-18T14:40:21Z</time>
      </trkpt>
      <trkpt lat="41.8787060" lon="-8.8368010">
        <ele>3.5</ele>
        <time>2021-05-18T14:40:22Z</time>
      </trkpt>
      <trkpt lat="41.8787060" lon="-8.8368010">
        <ele>3.5</ele>
        <time>2021-05-18T14:40:23Z</time>
      </trkpt>
      <trkpt lat="41.8787060" lon="-8.8368010">
        <ele>3.5</ele>
        <time>2021-05-18T14:40:24Z</time>
      </trkpt>
      <trkpt lat="41.8787060" lon="-8.8368010">
        <ele>3.5</ele>
        <time>2021-05-18T14:40:25Z</time>
      </trkpt>
      <trkpt lat="41.8787050" lon="-8.8368010">
        <ele>3.5</ele>
        <time>2021-05-18T14:40:26Z</time>
      </trkpt>
      <trkpt lat="41.8787050" lon="-8.8368010">
        <ele>3.5</ele>
        <time>2021-05-18T14:40:27Z</time>
      </trkpt>
      <trkpt lat="41.8787050" lon="-8.8368020">
        <ele>3.5</ele>
        <time>2021-05-18T14:40:28Z</time>
      </trkpt>
      <trkpt lat="41.8787050" lon="-8.8368020">
        <ele>3.5</ele>
        <time>2021-05-18T14:40:29Z</time>
      </trkpt>
      <trkpt lat="41.8787040" lon="-8.8368020">
        <ele>3.5</ele>
        <time>2021-05-18T14:40:30Z</time>
      </trkpt>
      <trkpt lat="41.8787040" lon="-8.8368020">
        <ele>3.5</ele>
        <time>2021-05-18T14:40:31Z</time>
      </trkpt>
      <trkpt lat="41.8787040" lon="-8.8368020">
        <ele>3.5</ele>
        <time>2021-05-18T14:40:32Z</time>
      </trkpt>
      <trkpt lat="41.8787040" lon="-8.8368020">
        <ele>3.5</ele>
        <time>2021-05-18T14:40:33Z</time>
      </trkpt>
      <trkpt lat="41.8787030" lon="-8.8368020">
        <ele>3.5</ele>
        <time>2021-05-18T14:40:34Z</time>
      </trkpt>
      <trkpt lat="41.8787030" lon="-8.8368030">
        <ele>3.5</ele>
        <time>2021-05-18T14:40:35Z</time>
      </trkpt>
      <trkpt lat="41.8787030" lon="-8.8368030">
        <ele>3.5</ele>
        <time>2021-05-18T14:40:36Z</time>
      </trkpt>
      <trkpt lat="41.8787030" lon="-8.8368030">
        <ele>3.5</ele>
        <time>2021-05-18T14:40:37Z</time>
      </trkpt>
      <trkpt lat="41.8787020" lon="-8.8368030">
        <ele>3.5</ele>
        <time>2021-05-18T14:40:38Z</time>
      </trkpt>
      <trkpt lat="41.8787020" lon="-8.8368030">
        <ele>3.5</ele>
        <time>2021-05-18T14:40:39Z</time>
      </trkpt>
      <trkpt lat="41.8787020" lon="-8.8368030">
        <ele>3.5</ele>
        <time>2021-05-18T14:40:40Z</time>
      </trkpt>
      <trkpt lat="41.8787010" lon="-8.8368030">
        <ele>3.5</ele>
        <time>2021-05-18T14:40:41Z</time>
      </trkpt>
      <trkpt lat="41.8787010" lon="-8.8368040">
        <ele>3.5</ele>
        <time>2021-05-18T14:40:42Z</time>
      </trkpt>
      <trkpt lat="41.8787010" lon="-8.8368040">
        <ele>3.5</ele>
        <time>2021-05-18T14:40:43Z</time>
      </trkpt>
      <trkpt lat="41.8787010" lon="-8.8368040">
        <ele>3.5</ele>
        <time>2021-05-18T14:40:44Z</time>
      </trkpt>
      <trkpt lat="41.8787000" lon="-8.8368040">
        <ele>3.5</ele>
        <time>2021-05-18T14:40:45Z</time>
      </trkpt>
      <trkpt lat="41.8787000" lon="-8.8368040">
        <ele>3.5</ele>
        <time>2021-05-18T14:40:46Z</time>
      </trkpt>
      <trkpt lat="41.8787000" lon="-8.8368040">
        <ele>3.5</ele>
        <time>2021-05-18T14:40:47Z</time>
      </trkpt>
      <trkpt lat="41.8787000" lon="-8.8368040">
        <ele>3.5</ele>
        <time>2021-05-18T14:40:48Z</time>
      </trkpt>
      <trkpt lat="41.8786990" lon="-8.8368040">
        <ele>3.5</ele>
        <time>2021-05-18T14:40:49Z</time>
      </trkpt>
      <trkpt lat="41.8786990" lon="-8.8368050">
        <ele>3.5</ele>
        <time>2021-05-18T14:40:50Z</time>
      </trkpt>
      <trkpt lat="41.8786990" lon="-8.8368050">
        <ele>3.5</ele>
        <time>2021-05-18T14:40:51Z</time>
      </trkpt>
      <trkpt lat="41.8786990" lon="-8.8368050">
        <ele>3.5</ele>
        <time>2021-05-18T14:40:52Z</time>
      </trkpt>
      <trkpt lat="41.8786980" lon="-8.8368050">
        <ele>3.5</ele>
        <time>2021-05-18T14:40:53Z</time>
      </trkpt>
      <trkpt lat="41.8786980" lon="-8.8368050">
        <ele>3.5</ele>
        <time>2021-05-18T14:40:54Z</time>
      </trkpt>
      <trkpt lat="41.8786980" lon="-8.8368050">
        <ele>3.5</ele>
        <time>2021-05-18T14:40:55Z</time>
      </trkpt>
      <trkpt lat="41.8786980" lon="-8.8368050">
        <ele>3.5</ele>
        <time>2021-05-18T14:40:56Z</time>
      </trkpt>
      <trkpt lat="41.8786970" lon="-8.8368060">
        <ele>3.5</ele>
        <time>2021-05-18T14:40:57Z</time>
      </trkpt>
      <trkpt lat="41.8786970" lon="-8.8368060">
        <ele>3.5</ele>
        <time>2021-05-18T14:40:58Z</time>
      </trkpt>
      <trkpt lat="41.8786970" lon="-8.8368060">
        <ele>3.5</ele>
        <time>2021-05-18T14:40:59Z</time>
      </trkpt>
      <trkpt lat="41.8786960" lon="-8.8368060">
        <ele>3.5</ele>
        <time>2021-05-18T14:41:00Z</time>
      </trkpt>
      <trkpt lat="41.8786960" lon="-8.8368060">
        <ele>3.5</ele>
        <time>2021-05-18T14:41:01Z</time>
      </trkpt>
      <trkpt lat="41.8786960" lon="-8.8368060">
        <ele>3.5</ele>
        <time>2021-05-18T14:41:02Z</time>
      </trkpt>
      <trkpt lat="41.8786960" lon="-8.8368060">
        <ele>3.5</ele>
        <time>2021-05-18T14:41:03Z</time>
      </trkpt>
      <trkpt lat="41.8786950" lon="-8.8368070">
        <ele>3.5</ele>
        <time>2021-05-18T14:41:04Z</time>
      </trkpt>
      <trkpt lat="41.8786950" lon="-8.8368070">
        <ele>3.5</ele>
        <time>2021-05-18T14:41:05Z</time>
      </trkpt>
      <trkpt lat="41.8786950" lon="-8.8368070">
        <ele>3.5</ele>
        <time>2021-05-18T14:41:06Z</time>
      </trkpt>
      <trkpt lat="41.8786950" lon="-8.8368070">
        <ele>3.5</ele>
        <time>2021-05-18T14:41:07Z</time>
      </trkpt>
      <trkpt lat="41.8786940" lon="-8.8368070">
        <ele>3.5</ele>
        <time>2021-05-18T14:41:08Z</time>
      </trkpt>
      <trkpt lat="41.8786940" lon="-8.8368070">
        <ele>3.5</ele>
        <time>2021-05-18T14:41:09Z</time>
      </trkpt>
      <trkpt lat="41.8786940" lon="-8.8368070">
        <ele>3.5</ele>
        <time>2021-05-18T14:41:10Z</time>
      </trkpt>
      <trkpt lat="41.8786940" lon="-8.8368080">
        <ele>3.5</ele>
        <time>2021-05-18T14:41:11Z</time>
      </trkpt>
      <trkpt lat="41.8786930" lon="-8.8368080">
        <ele>3.5</ele>
        <time>2021-05-18T14:41:12Z</time>
      </trkpt>
      <trkpt lat="41.8786930" lon="-8.8368080">
        <ele>3.5</ele>
        <time>2021-05-18T14:41:13Z</time>
      </trkpt>
      <trkpt lat="41.8786930" lon="-8.8368080">
        <ele>3.5</ele>
        <time>2021-05-18T14:41:14Z</time>
      </trkpt>
      <trkpt lat="41.8786930" lon="-8.8368080">
        <ele>3.5</ele>
        <time>2021-05-18T14:41:15Z</time>
      </trkpt>
      <trkpt lat="41.8786920" lon="-8.8368080">
        <ele>3.5</ele>
        <time>2021-05-18T14:41:16Z</time>
      </trkpt>
      <trkpt lat="41.8786920" lon="-8.8368080">
        <ele>3.5</ele>
        <time>2021-05-18T14:41:17Z</time>
      </trkpt>
      <trkpt lat="41.8786920" lon="-8.8368090">
        <ele>3.5</ele>
        <time>2021-05-18T14:41:18Z</time>
      </trkpt>
      <trkpt lat="41.8786910" lon="-8.8368090">
        <ele>3.5</ele>
        <time>2021-05-18T14:41:19Z</time>
      </trkpt>
      <trkpt lat="41.8786910" lon="-8.8368090">
        <ele>3.5</ele>
        <time>2021-05-18T14:41:20Z</time>
      </trkpt>
      <trkpt lat="41.8786910" lon="-8.8368090">
        <ele>3.5</ele>
        <time>2021-05-18T14:41:21Z</time>
      </trkpt>
      <trkpt lat="41.8786910" lon="-8.8368090">
        <ele>3.5</ele>
        <time>2021-05-18T14:41:22Z</time>
      </trkpt>
      <trkpt lat="41.8786900" lon="-8.8368090">
        <ele>3.5</ele>
        <time>2021-05-18T14:41:23Z</time>
      </trkpt>
      <trkpt lat="41.8786900" lon="-8.8368090">
        <ele>3.5</ele>
        <time>2021-05-18T14:41:24Z</time>
      </trkpt>
      <trkpt lat="41.8786900" lon="-8.8368090">
        <ele>3.5</ele>
        <time>2021-05-18T14:41:25Z</time>
      </trkpt>
      <trkpt lat="41.8786900" lon="-8.8368100">
        <ele>3.5</ele>
        <time>2021-05-18T14:41:26Z</time>
      </trkpt>
      <trkpt lat="41.8786890" lon="-8.8368100">
        <ele>3.5</ele>
        <time>2021-05-18T14:41:27Z</time>
      </trkpt>
      <trkpt lat="41.8786890" lon="-8.8368100">
        <ele>3.5</ele>
        <time>2021-05-18T14:41:28Z</time>
      </trkpt>
      <trkpt lat="41.8786890" lon="-8.8368100">
        <ele>3.5</ele>
        <time>2021-05-18T14:41:29Z</time>
      </trkpt>
      <trkpt lat="41.8786890" lon="-8.8368100">
        <ele>3.5</ele>
        <time>2021-05-18T14:41:30Z</time>
      </trkpt>
      <trkpt lat="41.8786880" lon="-8.8368100">
        <ele>3.5</ele>
        <time>2021-05-18T14:41:31Z</time>
      </trkpt>
      <trkpt lat="41.8786880" lon="-8.8368100">
        <ele>3.5</ele>
        <time>2021-05-18T14:41:32Z</time>
      </trkpt>
      <trkpt lat="41.8786880" lon="-8.8368110">
        <ele>3.5</ele>
        <time>2021-05-18T14:41:33Z</time>
      </trkpt>
      <trkpt lat="41.8786880" lon="-8.8368110">
        <ele>3.5</ele>
        <time>2021-05-18T14:41:34Z</time>
      </trkpt>
      <trkpt lat="41.8786870" lon="-8.8368110">
        <ele>3.5</ele>
        <time>2021-05-18T14:41:35Z</time>
      </trkpt>
      <trkpt lat="41.8786870" lon="-8.8368110">
        <ele>3.5</ele>
        <time>2021-05-18T14:41:36Z</time>
      </trkpt>
      <trkpt lat="41.8786900" lon="-8.8368110">
        <ele>3.5</ele>
        <time>2021-05-18T14:41:37Z</time>
      </trkpt>
      <trkpt lat="41.8786890" lon="-8.8368090">
        <ele>3.5</ele>
        <time>2021-05-18T14:41:38Z</time>
      </trkpt>
      <trkpt lat="41.8786860" lon="-8.8368070">
        <ele>3.5</ele>
        <time>2021-05-18T14:41:39Z</time>
      </trkpt>
      <trkpt lat="41.8786880" lon="-8.8368080">
        <ele>3.5</ele>
        <time>2021-05-18T14:41:40Z</time>
      </trkpt>
      <trkpt lat="41.8786900" lon="-8.8368110">
        <ele>3.5</ele>
        <time>2021-05-18T14:41:41Z</time>
      </trkpt>
      <trkpt lat="41.8786920" lon="-8.8368130">
        <ele>3.5</ele>
        <time>2021-05-18T14:41:42Z</time>
      </trkpt>
      <trkpt lat="41.8786950" lon="-8.8368130">
        <ele>3.5</ele>
        <time>2021-05-18T14:41:43Z</time>
      </trkpt>
      <trkpt lat="41.8786920" lon="-8.8368140">
        <ele>3.5</ele>
        <time>2021-05-18T14:41:44Z</time>
      </trkpt>
      <trkpt lat="41.8786920" lon="-8.8368160">
        <ele>3.5</ele>
        <time>2021-05-18T14:41:45Z</time>
      </trkpt>
      <trkpt lat="41.8786940" lon="-8.8368160">
        <ele>3.5</ele>
        <time>2021-05-18T14:41:46Z</time>
      </trkpt>
      <trkpt lat="41.8786950" lon="-8.8368190">
        <ele>3.5</ele>
        <time>2021-05-18T14:41:47Z</time>
      </trkpt>
      <trkpt lat="41.8786960" lon="-8.8368190">
        <ele>3.5</ele>
        <time>2021-05-18T14:41:48Z</time>
      </trkpt>
      <trkpt lat="41.8786980" lon="-8.8368200">
        <ele>3.5</ele>
        <time>2021-05-18T14:41:49Z</time>
      </trkpt>
      <trkpt lat="41.8786980" lon="-8.8368200">
        <ele>3.5</ele>
        <time>2021-05-18T14:41:50Z</time>
      </trkpt>
      <trkpt lat="41.8786980" lon="-8.8368240">
        <ele>3.5</ele>
        <time>2021-05-18T14:41:51Z</time>
      </trkpt>
      <trkpt lat="41.8786950" lon="-8.8368240">
        <ele>3.5</ele>
        <time>2021-05-18T14:41:52Z</time>
      </trkpt>
      <trkpt lat="41.8786940" lon="-8.8368220">
        <ele>3.5</ele>
        <time>2021-05-18T14:41:53Z</time>
      </trkpt>
      <trkpt lat="41.8786950" lon="-8.8368230">
        <ele>3.5</ele>
        <time>2021-05-18T14:41:54Z</time>
      </trkpt>
      <trkpt lat="41.8786940" lon="-8.8368270">
        <ele>3.5</ele>
        <time>2021-05-18T14:41:55Z</time>
      </trkpt>
      <trkpt lat="41.8786980" lon="-8.8368270">
        <ele>3.5</ele>
        <time>2021-05-18T14:41:56Z</time>
      </trkpt>
      <trkpt lat="41.8786970" lon="-8.8368310">
        <ele>3.5</ele>
        <time>2021-05-18T14:41:57Z</time>
      </trkpt>
      <trkpt lat="41.8786960" lon="-8.8368340">
        <ele>3.5</ele>
        <time>2021-05-18T14:41:58Z</time>
      </trkpt>
      <trkpt lat="41.8786970" lon="-8.8368370">
        <ele>3.5</ele>
        <time>2021-05-18T14:41:59Z</time>
      </trkpt>
      <trkpt lat="41.8786990" lon="-8.8368380">
        <ele>3.5</ele>
        <time>2021-05-18T14:42:00Z</time>
      </trkpt>
      <trkpt lat="41.8786990" lon="-8.8368380">
        <ele>3.5</ele>
        <time>2021-05-18T14:42:01Z</time>
      </trkpt>
      <trkpt lat="41.8786980" lon="-8.8368380">
        <ele>3.5</ele>
        <time>2021-05-18T14:42:02Z</time>
      </trkpt>
      <trkpt lat="41.8786990" lon="-8.8368350">
        <ele>3.5</ele>
        <time>2021-05-18T14:42:03Z</time>
      </trkpt>
      <trkpt lat="41.8787000" lon="-8.8368300">
        <ele>3.5</ele>
        <time>2021-05-18T14:42:04Z</time>
      </trkpt>
      <trkpt lat="41.8786990" lon="-8.8368290">
        <ele>3.5</ele>
        <time>2021-05-18T14:42:05Z</time>
      </trkpt>
      <trkpt lat="41.8787000" lon="-8.8368260">
        <ele>3.5</ele>
        <time>2021-05-18T14:42:06Z</time>
      </trkpt>
      <trkpt lat="41.8786980" lon="-8.8368240">
        <ele>3.5</ele>
        <time>2021-05-18T14:42:07Z</time>
      </trkpt>
      <trkpt lat="41.8786960" lon="-8.8368300">
        <ele>3.5</ele>
        <time>2021-05-18T14:42:08Z</time>
      </trkpt>
      <trkpt lat="41.8786950" lon="-8.8368340">
        <ele>3.5</ele>
        <time>2021-05-18T14:42:09Z</time>
      </trkpt>
      <trkpt lat="41.8786980" lon="-8.8368360">
        <ele>3.5</ele>
        <time>2021-05-18T14:42:10Z</time>
      </trkpt>
      <trkpt lat="41.8787020" lon="-8.8368330">
        <ele>3.5</ele>
        <time>2021-05-18T14:42:11Z</time>
      </trkpt>
      <trkpt lat="41.8787010" lon="-8.8368410">
        <ele>3.5</ele>
        <time>2021-05-18T14:42:12Z</time>
      </trkpt>
      <trkpt lat="41.8787000" lon="-8.8368520">
        <ele>3.5</ele>
        <time>2021-05-18T14:42:13Z</time>
      </trkpt>
      <trkpt lat="41.8786970" lon="-8.8368560">
        <ele>3.5</ele>
        <time>2021-05-18T14:42:14Z</time>
      </trkpt>
      <trkpt lat="41.8786980" lon="-8.8368570">
        <ele>3.5</ele>
        <time>2021-05-18T14:42:15Z</time>
      </trkpt>
      <trkpt lat="41.8786970" lon="-8.8368580">
        <ele>3.5</ele>
        <time>2021-05-18T14:42:16Z</time>
      </trkpt>
      <trkpt lat="41.8786980" lon="-8.8368540">
        <ele>3.5</ele>
        <time>2021-05-18T14:42:17Z</time>
      </trkpt>
      <trkpt lat="41.8786980" lon="-8.8368580">
        <ele>3.5</ele>
        <time>2021-05-18T14:42:18Z</time>
      </trkpt>
      <trkpt lat="41.8786980" lon="-8.8368550">
        <ele>3.5</ele>
        <time>2021-05-18T14:42:19Z</time>
      </trkpt>
      <trkpt lat="41.8787010" lon="-8.8368540">
        <ele>3.5</ele>
        <time>2021-05-18T14:42:20Z</time>
      </trkpt>
      <trkpt lat="41.8787030" lon="-8.8368550">
        <ele>3.5</ele>
        <time>2021-05-18T14:42:21Z</time>
      </trkpt>
      <trkpt lat="41.8787030" lon="-8.8368590">
        <ele>3.5</ele>
        <time>2021-05-18T14:42:22Z</time>
      </trkpt>
      <trkpt lat="41.8787010" lon="-8.8368600">
        <ele>3.5</ele>
        <time>2021-05-18T14:42:23Z</time>
      </trkpt>
      <trkpt lat="41.8787000" lon="-8.8368630">
        <ele>3.5</ele>
        <time>2021-05-18T14:42:24Z</time>
      </trkpt>
      <trkpt lat="41.8787020" lon="-8.8368690">
        <ele>3.5</ele>
        <time>2021-05-18T14:42:25Z</time>
      </trkpt>
      <trkpt lat="41.8787000" lon="-8.8368700">
        <ele>3.5</ele>
        <time>2021-05-18T14:42:26Z</time>
      </trkpt>
      <trkpt lat="41.8786980" lon="-8.8368710">
        <ele>3.5</ele>
        <time>2021-05-18T14:42:27Z</time>
      </trkpt>
      <trkpt lat="41.8787000" lon="-8.8368660">
        <ele>3.5</ele>
        <time>2021-05-18T14:42:28Z</time>
      </trkpt>
      <trkpt lat="41.8787000" lon="-8.8368620">
        <ele>3.5</ele>
        <time>2021-05-18T14:42:29Z</time>
      </trkpt>
      <trkpt lat="41.8787010" lon="-8.8368570">
        <ele>3.5</ele>
        <time>2021-05-18T14:42:30Z</time>
      </trkpt>
      <trkpt lat="41.8787020" lon="-8.8368530">
        <ele>3.5</ele>
        <time>2021-05-18T14:42:31Z</time>
      </trkpt>
      <trkpt lat="41.8787030" lon="-8.8368480">
        <ele>3.5</ele>
        <time>2021-05-18T14:42:32Z</time>
      </trkpt>
      <trkpt lat="41.8787040" lon="-8.8368440">
        <ele>3.5</ele>
        <time>2021-05-18T14:42:33Z</time>
      </trkpt>
      <trkpt lat="41.8787040" lon="-8.8368390">
        <ele>3.5</ele>
        <time>2021-05-18T14:42:34Z</time>
      </trkpt>
      <trkpt lat="41.8787050" lon="-8.8368370">
        <ele>3.5</ele>
        <time>2021-05-18T14:42:35Z</time>
      </trkpt>
      <trkpt lat="41.8787060" lon="-8.8368350">
        <ele>3.5</ele>
        <time>2021-05-18T14:42:36Z</time>
      </trkpt>
      <trkpt lat="41.8787060" lon="-8.8368350">
        <ele>3.5</ele>
        <time>2021-05-18T14:42:37Z</time>
      </trkpt>
      <trkpt lat="41.8787010" lon="-8.8368320">
        <ele>3.5</ele>
        <time>2021-05-18T14:42:38Z</time>
      </trkpt>
      <trkpt lat="41.8787030" lon="-8.8368280">
        <ele>3.5</ele>
        <time>2021-05-18T14:42:39Z</time>
      </trkpt>
      <trkpt lat="41.8787050" lon="-8.8368280">
        <ele>3.5</ele>
        <time>2021-05-18T14:42:40Z</time>
      </trkpt>
      <trkpt lat="41.8787050" lon="-8.8368250">
        <ele>3.5</ele>
        <time>2021-05-18T14:42:41Z</time>
      </trkpt>
      <trkpt lat="41.8787000" lon="-8.8368210">
        <ele>3.5</ele>
        <time>2021-05-18T14:42:42Z</time>
      </trkpt>
      <trkpt lat="41.8787010" lon="-8.8368210">
        <ele>3.5</ele>
        <time>2021-05-18T14:42:43Z</time>
      </trkpt>
      <trkpt lat="41.8787030" lon="-8.8368200">
        <ele>3.5</ele>
        <time>2021-05-18T14:42:44Z</time>
      </trkpt>
      <trkpt lat="41.8787030" lon="-8.8368170">
        <ele>3.5</ele>
        <time>2021-05-18T14:42:45Z</time>
      </trkpt>
      <trkpt lat="41.8787050" lon="-8.8368160">
        <ele>3.5</ele>
        <time>2021-05-18T14:42:46Z</time>
      </trkpt>
      <trkpt lat="41.8787060" lon="-8.8368140">
        <ele>3.5</ele>
        <time>2021-05-18T14:42:47Z</time>
      </trkpt>
      <trkpt lat="41.8787040" lon="-8.8368160">
        <ele>3.5</ele>
        <time>2021-05-18T14:42:48Z</time>
      </trkpt>
      <trkpt lat="41.8787040" lon="-8.8368180">
        <ele>3.5</ele>
        <time>2021-05-18T14:42:49Z</time>
      </trkpt>
      <trkpt lat="41.8787020" lon="-8.8368230">
        <ele>3.5</ele>
        <time>2021-05-18T14:42:50Z</time>
      </trkpt>
      <trkpt lat="41.8787000" lon="-8.8368200">
        <ele>3.5</ele>
        <time>2021-05-18T14:42:51Z</time>
      </trkpt>
      <trkpt lat="41.8787020" lon="-8.8368240">
        <ele>3.5</ele>
        <time>2021-05-18T14:42:52Z</time>
      </trkpt>
      <trkpt lat="41.8787000" lon="-8.8368290">
        <ele>3.5</ele>
        <time>2021-05-18T14:42:53Z</time>
      </trkpt>
      <trkpt lat="41.8786990" lon="-8.8368300">
        <ele>3.5</ele>
        <time>2021-05-18T14:42:54Z</time>
      </trkpt>
      <trkpt lat="41.8786990" lon="-8.8368340">
        <ele>3.5</ele>
        <time>2021-05-18T14:42:55Z</time>
      </trkpt>
      <trkpt lat="41.8786970" lon="-8.8368360">
        <ele>3.5</ele>
        <time>2021-05-18T14:42:56Z</time>
      </trkpt>
      <trkpt lat="41.8786990" lon="-8.8368340">
        <ele>3.5</ele>
        <time>2021-05-18T14:42:57Z</time>
      </trkpt>
      <trkpt lat="41.8786980" lon="-8.8368330">
        <ele>3.5</ele>
        <time>2021-05-18T14:42:58Z</time>
      </trkpt>
      <trkpt lat="41.8787000" lon="-8.8368360">
        <ele>3.5</ele>
        <time>2021-05-18T14:42:59Z</time>
      </trkpt>
      <trkpt lat="41.8786960" lon="-8.8368300">
        <ele>3.5</ele>
        <time>2021-05-18T14:43:00Z</time>
      </trkpt>
      <trkpt lat="41.8786980" lon="-8.8368270">
        <ele>3.5</ele>
        <time>2021-05-18T14:43:01Z</time>
      </trkpt>
      <trkpt lat="41.8787000" lon="-8.8368250">
        <ele>3.5</ele>
        <time>2021-05-18T14:43:02Z</time>
      </trkpt>
      <trkpt lat="41.8787020" lon="-8.8368210">
        <ele>3.5</ele>
        <time>2021-05-18T14:43:03Z</time>
      </trkpt>
      <trkpt lat="41.8787040" lon="-8.8368190">
        <ele>3.5</ele>
        <time>2021-05-18T14:43:04Z</time>
      </trkpt>
      <trkpt lat="41.8787060" lon="-8.8368200">
        <ele>3.5</ele>
        <time>2021-05-18T14:43:05Z</time>
      </trkpt>
      <trkpt lat="41.8787050" lon="-8.8368190">
        <ele>3.5</ele>
        <time>2021-05-18T14:43:06Z</time>
      </trkpt>
      <trkpt lat="41.8787060" lon="-8.8368190">
        <ele>3.5</ele>
        <time>2021-05-18T14:43:07Z</time>
      </trkpt>
      <trkpt lat="41.8787070" lon="-8.8368200">
        <ele>3.5</ele>
        <time>2021-05-18T14:43:08Z</time>
      </trkpt>
      <trkpt lat="41.8787100" lon="-8.8368200">
        <ele>3.5</ele>
        <time>2021-05-18T14:43:09Z</time>
      </trkpt>
      <trkpt lat="41.8787130" lon="-8.8368230">
        <ele>3.5</ele>
        <time>2021-05-18T14:43:10Z</time>
      </trkpt>
      <trkpt lat="41.8787130" lon="-8.8368240">
        <ele>3.5</ele>
        <time>2021-05-18T14:43:11Z</time>
      </trkpt>
      <trkpt lat="41.8787140" lon="-8.8368260">
        <ele>3.5</ele>
        <time>2021-05-18T14:43:12Z</time>
      </trkpt>
      <trkpt lat="41.8787120" lon="-8.8368230">
        <ele>3.5</ele>
        <time>2021-05-18T14:43:13Z</time>
      </trkpt>
      <trkpt lat="41.8787120" lon="-8.8368200">
        <ele>3.5</ele>
        <time>2021-05-18T14:43:14Z</time>
      </trkpt>
      <trkpt lat="41.8787120" lon="-8.8368180">
        <ele>3.5</ele>
        <time>2021-05-18T14:43:15Z</time>
      </trkpt>
      <trkpt lat="41.8787120" lon="-8.8368180">
        <ele>3.5</ele>
        <time>2021-05-18T14:43:16Z</time>
      </trkpt>
      <trkpt lat="41.8787130" lon="-8.8368160">
        <ele>3.5</ele>
        <time>2021-05-18T14:43:17Z</time>
      </trkpt>
      <trkpt lat="41.8787130" lon="-8.8368140">
        <ele>3.5</ele>
        <time>2021-05-18T14:43:18Z</time>
      </trkpt>
      <trkpt lat="41.8787130" lon="-8.8368130">
        <ele>3.5</ele>
        <time>2021-05-18T14:43:19Z</time>
      </trkpt>
      <trkpt lat="41.8787110" lon="-8.8368140">
        <ele>3.5</ele>
        <time>2021-05-18T14:43:20Z</time>
      </trkpt>
      <trkpt lat="41.8787110" lon="-8.8368150">
        <ele>3.5</ele>
        <time>2021-05-18T14:43:21Z</time>
      </trkpt>
      <trkpt lat="41.8787090" lon="-8.8368130">
        <ele>3.5</ele>
        <time>2021-05-18T14:43:22Z</time>
      </trkpt>
      <trkpt lat="41.8787090" lon="-8.8368140">
        <ele>3.5</ele>
        <time>2021-05-18T14:43:23Z</time>
      </trkpt>
      <trkpt lat="41.8787090" lon="-8.8368120">
        <ele>3.5</ele>
        <time>2021-05-18T14:43:24Z</time>
      </trkpt>
      <trkpt lat="41.8787060" lon="-8.8368120">
        <ele>3.5</ele>
        <time>2021-05-18T14:43:25Z</time>
      </trkpt>
      <trkpt lat="41.8787050" lon="-8.8368150">
        <ele>3.5</ele>
        <time>2021-05-18T14:43:26Z</time>
      </trkpt>
      <trkpt lat="41.8787050" lon="-8.8368170">
        <ele>3.5</ele>
        <time>2021-05-18T14:43:27Z</time>
      </trkpt>
      <trkpt lat="41.8787070" lon="-8.8368170">
        <ele>3.5</ele>
        <time>2021-05-18T14:43:28Z</time>
      </trkpt>
      <trkpt lat="41.8787090" lon="-8.8368160">
        <ele>3.5</ele>
        <time>2021-05-18T14:43:29Z</time>
      </trkpt>
      <trkpt lat="41.8787050" lon="-8.8368200">
        <ele>3.5</ele>
        <time>2021-05-18T14:43:30Z</time>
      </trkpt>
      <trkpt lat="41.8787020" lon="-8.8368160">
        <ele>3.5</ele>
        <time>2021-05-18T14:43:31Z</time>
      </trkpt>
      <trkpt lat="41.8787030" lon="-8.8368180">
        <ele>3.5</ele>
        <time>2021-05-18T14:43:32Z</time>
      </trkpt>
      <trkpt lat="41.8787030" lon="-8.8368200">
        <ele>3.5</ele>
        <time>2021-05-18T14:43:33Z</time>
      </trkpt>
      <trkpt lat="41.8787010" lon="-8.8368210">
        <ele>3.5</ele>
        <time>2021-05-18T14:43:34Z</time>
      </trkpt>
      <trkpt lat="41.8787010" lon="-8.8368230">
        <ele>3.5</ele>
        <time>2021-05-18T14:43:35Z</time>
      </trkpt>
      <trkpt lat="41.8787010" lon="-8.8368210">
        <ele>3.5</ele>
        <time>2021-05-18T14:43:36Z</time>
      </trkpt>
      <trkpt lat="41.8787010" lon="-8.8368240">
        <ele>3.5</ele>
        <time>2021-05-18T14:43:37Z</time>
      </trkpt>
      <trkpt lat="41.8787010" lon="-8.8368230">
        <ele>3.5</ele>
        <time>2021-05-18T14:43:38Z</time>
      </trkpt>
      <trkpt lat="41.8787000" lon="-8.8368240">
        <ele>3.5</ele>
        <time>2021-05-18T14:43:39Z</time>
      </trkpt>
      <trkpt lat="41.8787020" lon="-8.8368240">
        <ele>3.5</ele>
        <time>2021-05-18T14:43:40Z</time>
      </trkpt>
      <trkpt lat="41.8786980" lon="-8.8368210">
        <ele>3.5</ele>
        <time>2021-05-18T14:43:41Z</time>
      </trkpt>
      <trkpt lat="41.8786940" lon="-8.8368200">
        <ele>3.5</ele>
        <time>2021-05-18T14:43:42Z</time>
      </trkpt>
      <trkpt lat="41.8786950" lon="-8.8368200">
        <ele>3.5</ele>
        <time>2021-05-18T14:43:43Z</time>
      </trkpt>
      <trkpt lat="41.8786950" lon="-8.8368200">
        <ele>3.5</ele>
        <time>2021-05-18T14:43:44Z</time>
      </trkpt>
      <trkpt lat="41.8786960" lon="-8.8368210">
        <ele>3.5</ele>
        <time>2021-05-18T14:43:45Z</time>
      </trkpt>
      <trkpt lat="41.8786950" lon="-8.8368240">
        <ele>3.5</ele>
        <time>2021-05-18T14:43:46Z</time>
      </trkpt>
      <trkpt lat="41.8786970" lon="-8.8368220">
        <ele>3.5</ele>
        <time>2021-05-18T14:43:47Z</time>
      </trkpt>
      <trkpt lat="41.8786990" lon="-8.8368200">
        <ele>3.5</ele>
        <time>2021-05-18T14:43:48Z</time>
      </trkpt>
      <trkpt lat="41.8786990" lon="-8.8368110">
        <ele>3.5</ele>
        <time>2021-05-18T14:43:49Z</time>
      </trkpt>
      <trkpt lat="41.8787030" lon="-8.8368130">
        <ele>3.5</ele>
        <time>2021-05-18T14:43:50Z</time>
      </trkpt>
      <trkpt lat="41.8787000" lon="-8.8368110">
        <ele>3.5</ele>
        <time>2021-05-18T14:43:51Z</time>
      </trkpt>
      <trkpt lat="41.8787000" lon="-8.8368100">
        <ele>3.5</ele>
        <time>2021-05-18T14:43:52Z</time>
      </trkpt>
      <trkpt lat="41.8786990" lon="-8.8368090">
        <ele>3.5</ele>
        <time>2021-05-18T14:43:53Z</time>
      </trkpt>
      <trkpt lat="41.8787000" lon="-8.8368100">
        <ele>3.5</ele>
        <time>2021-05-18T14:43:54Z</time>
      </trkpt>
      <trkpt lat="41.8787010" lon="-8.8368120">
        <ele>3.5</ele>
        <time>2021-05-18T14:43:55Z</time>
      </trkpt>
      <trkpt lat="41.8787040" lon="-8.8368110">
        <ele>3.5</ele>
        <time>2021-05-18T14:43:56Z</time>
      </trkpt>
      <trkpt lat="41.8787110" lon="-8.8368060">
        <ele>3.5</ele>
        <time>2021-05-18T14:43:57Z</time>
      </trkpt>
      <trkpt lat="41.8787120" lon="-8.8368070">
        <ele>3.5</ele>
        <time>2021-05-18T14:43:58Z</time>
      </trkpt>
      <trkpt lat="41.8787090" lon="-8.8368080">
        <ele>3.5</ele>
        <time>2021-05-18T14:43:59Z</time>
      </trkpt>
      <trkpt lat="41.8787100" lon="-8.8368100">
        <ele>3.5</ele>
        <time>2021-05-18T14:44:00Z</time>
      </trkpt>
      <trkpt lat="41.8787080" lon="-8.8368090">
        <ele>3.5</ele>
        <time>2021-05-18T14:44:01Z</time>
      </trkpt>
      <trkpt lat="41.8787050" lon="-8.8368060">
        <ele>3.5</ele>
        <time>2021-05-18T14:44:02Z</time>
      </trkpt>
      <trkpt lat="41.8787040" lon="-8.8368070">
        <ele>3.5</ele>
        <time>2021-05-18T14:44:03Z</time>
      </trkpt>
      <trkpt lat="41.8787070" lon="-8.8368100">
        <ele>3.5</ele>
        <time>2021-05-18T14:44:04Z</time>
      </trkpt>
      <trkpt lat="41.8787060" lon="-8.8368080">
        <ele>3.5</ele>
        <time>2021-05-18T14:44:05Z</time>
      </trkpt>
      <trkpt lat="41.8787080" lon="-8.8368110">
        <ele>3.5</ele>
        <time>2021-05-18T14:44:06Z</time>
      </trkpt>
      <trkpt lat="41.8787060" lon="-8.8368080">
        <ele>3.5</ele>
        <time>2021-05-18T14:44:07Z</time>
      </trkpt>
      <trkpt lat="41.8787060" lon="-8.8368110">
        <ele>3.5</ele>
        <time>2021-05-18T14:44:08Z</time>
      </trkpt>
      <trkpt lat="41.8787010" lon="-8.8368130">
        <ele>3.5</ele>
        <time>2021-05-18T14:44:09Z</time>
      </trkpt>
      <trkpt lat="41.8786980" lon="-8.8368150">
        <ele>3.5</ele>
        <time>2021-05-18T14:44:10Z</time>
      </trkpt>
      <trkpt lat="41.8787000" lon="-8.8368160">
        <ele>3.5</ele>
        <time>2021-05-18T14:44:11Z</time>
      </trkpt>
      <trkpt lat="41.8786980" lon="-8.8368190">
        <ele>3.5</ele>
        <time>2021-05-18T14:44:12Z</time>
      </trkpt>
      <trkpt lat="41.8787010" lon="-8.8368200">
        <ele>3.5</ele>
        <time>2021-05-18T14:44:13Z</time>
      </trkpt>
      <trkpt lat="41.8786990" lon="-8.8368210">
        <ele>3.5</ele>
        <time>2021-05-18T14:44:14Z</time>
      </trkpt>
      <trkpt lat="41.8787010" lon="-8.8368230">
        <ele>3.5</ele>
        <time>2021-05-18T14:44:15Z</time>
      </trkpt>
      <trkpt lat="41.8787010" lon="-8.8368190">
        <ele>3.5</ele>
        <time>2021-05-18T14:44:16Z</time>
      </trkpt>
      <trkpt lat="41.8787010" lon="-8.8368160">
        <ele>3.5</ele>
        <time>2021-05-18T14:44:17Z</time>
      </trkpt>
      <trkpt lat="41.8786990" lon="-8.8368160">
        <ele>3.5</ele>
        <time>2021-05-18T14:44:18Z</time>
      </trkpt>
      <trkpt lat="41.8786940" lon="-8.8368200">
        <ele>3.5</ele>
        <time>2021-05-18T14:44:19Z</time>
      </trkpt>
      <trkpt lat="41.8786930" lon="-8.8368190">
        <ele>3.4</ele>
        <time>2021-05-18T14:44:20Z</time>
      </trkpt>
      <trkpt lat="41.8786890" lon="-8.8368220">
        <ele>3.4</ele>
        <time>2021-05-18T14:44:21Z</time>
      </trkpt>
      <trkpt lat="41.8786870" lon="-8.8368220">
        <ele>3.4</ele>
        <time>2021-05-18T14:44:22Z</time>
      </trkpt>
      <trkpt lat="41.8786870" lon="-8.8368230">
        <ele>3.4</ele>
        <time>2021-05-18T14:44:23Z</time>
      </trkpt>
      <trkpt lat="41.8786850" lon="-8.8368240">
        <ele>3.4</ele>
        <time>2021-05-18T14:44:24Z</time>
      </trkpt>
      <trkpt lat="41.8786860" lon="-8.8368270">
        <ele>3.4</ele>
        <time>2021-05-18T14:44:25Z</time>
      </trkpt>
      <trkpt lat="41.8786850" lon="-8.8368320">
        <ele>3.3</ele>
        <time>2021-05-18T14:44:26Z</time>
      </trkpt>
      <trkpt lat="41.8786820" lon="-8.8368380">
        <ele>3.3</ele>
        <time>2021-05-18T14:44:27Z</time>
      </trkpt>
      <trkpt lat="41.8786870" lon="-8.8368270">
        <ele>3.3</ele>
        <time>2021-05-18T14:44:28Z</time>
      </trkpt>
      <trkpt lat="41.8786900" lon="-8.8368230">
        <ele>3.3</ele>
        <time>2021-05-18T14:44:29Z</time>
      </trkpt>
      <trkpt lat="41.8786930" lon="-8.8368160">
        <ele>3.3</ele>
        <time>2021-05-18T14:44:30Z</time>
      </trkpt>
      <trkpt lat="41.8786950" lon="-8.8368110">
        <ele>3.3</ele>
        <time>2021-05-18T14:44:31Z</time>
      </trkpt>
      <trkpt lat="41.8786970" lon="-8.8368090">
        <ele>3.3</ele>
        <time>2021-05-18T14:44:32Z</time>
      </trkpt>
      <trkpt lat="41.8786930" lon="-8.8368090">
        <ele>3.3</ele>
        <time>2021-05-18T14:44:33Z</time>
      </trkpt>
      <trkpt lat="41.8786900" lon="-8.8368080">
        <ele>3.3</ele>
        <time>2021-05-18T14:44:34Z</time>
      </trkpt>
      <trkpt lat="41.8786900" lon="-8.8368080">
        <ele>3.3</ele>
        <time>2021-05-18T14:44:35Z</time>
      </trkpt>
      <trkpt lat="41.8786920" lon="-8.8368110">
        <ele>3.3</ele>
        <time>2021-05-18T14:44:36Z</time>
      </trkpt>
      <trkpt lat="41.8786920" lon="-8.8368120">
        <ele>3.3</ele>
        <time>2021-05-18T14:44:37Z</time>
      </trkpt>
      <trkpt lat="41.8786930" lon="-8.8368130">
        <ele>3.2</ele>
        <time>2021-05-18T14:44:38Z</time>
      </trkpt>
      <trkpt lat="41.8786920" lon="-8.8368140">
        <ele>3.2</ele>
        <time>2021-05-18T14:44:39Z</time>
      </trkpt>
      <trkpt lat="41.8786920" lon="-8.8368140">
        <ele>3.2</ele>
        <time>2021-05-18T14:44:40Z</time>
      </trkpt>
      <trkpt lat="41.8786870" lon="-8.8368050">
        <ele>3.2</ele>
        <time>2021-05-18T14:44:41Z</time>
      </trkpt>
      <trkpt lat="41.8786860" lon="-8.8368010">
        <ele>3.2</ele>
        <time>2021-05-18T14:44:42Z</time>
      </trkpt>
      <trkpt lat="41.8786840" lon="-8.8368020">
        <ele>3.2</ele>
        <time>2021-05-18T14:44:43Z</time>
      </trkpt>
      <trkpt lat="41.8786770" lon="-8.8367920">
        <ele>3.2</ele>
        <time>2021-05-18T14:44:44Z</time>
      </trkpt>
      <trkpt lat="41.8786630" lon="-8.8367910">
        <ele>3.2</ele>
        <time>2021-05-18T14:44:45Z</time>
      </trkpt>
      <trkpt lat="41.8786610" lon="-8.8367780">
        <ele>3.2</ele>
        <time>2021-05-18T14:44:46Z</time>
      </trkpt>
      <trkpt lat="41.8786660" lon="-8.8367710">
        <ele>3.2</ele>
        <time>2021-05-18T14:44:47Z</time>
      </trkpt>
      <trkpt lat="41.8786690" lon="-8.8367710">
        <ele>3.2</ele>
        <time>2021-05-18T14:44:48Z</time>
      </trkpt>
      <trkpt lat="41.8786680" lon="-8.8367680">
        <ele>3.2</ele>
        <time>2021-05-18T14:44:49Z</time>
      </trkpt>
      <trkpt lat="41.8786690" lon="-8.8367630">
        <ele>3.2</ele>
        <time>2021-05-18T14:44:50Z</time>
      </trkpt>
      <trkpt lat="41.8786700" lon="-8.8367590">
        <ele>3.1</ele>
        <time>2021-05-18T14:44:51Z</time>
      </trkpt>
      <trkpt lat="41.8786680" lon="-8.8367560">
        <ele>3.1</ele>
        <time>2021-05-18T14:44:52Z</time>
      </trkpt>
      <trkpt lat="41.8786660" lon="-8.8367480">
        <ele>3.1</ele>
        <time>2021-05-18T14:44:53Z</time>
      </trkpt>
      <trkpt lat="41.8786680" lon="-8.8367490">
        <ele>3.1</ele>
        <time>2021-05-18T14:44:54Z</time>
      </trkpt>
      <trkpt lat="41.8786650" lon="-8.8367500">
        <ele>3.1</ele>
        <time>2021-05-18T14:44:55Z</time>
      </trkpt>
      <trkpt lat="41.8786660" lon="-8.8367480">
        <ele>3.1</ele>
        <time>2021-05-18T14:44:56Z</time>
      </trkpt>
      <trkpt lat="41.8786700" lon="-8.8367410">
        <ele>3.1</ele>
        <time>2021-05-18T14:44:57Z</time>
      </trkpt>
      <trkpt lat="41.8786760" lon="-8.8367380">
        <ele>3.1</ele>
        <time>2021-05-18T14:44:58Z</time>
      </trkpt>
      <trkpt lat="41.8786820" lon="-8.8367380">
        <ele>3.1</ele>
        <time>2021-05-18T14:44:59Z</time>
      </trkpt>
      <trkpt lat="41.8786850" lon="-8.8367420">
        <ele>3.1</ele>
        <time>2021-05-18T14:45:00Z</time>
      </trkpt>
      <trkpt lat="41.8786880" lon="-8.8367470">
        <ele>3.1</ele>
        <time>2021-05-18T14:45:01Z</time>
      </trkpt>
      <trkpt lat="41.8786910" lon="-8.8367470">
        <ele>3.1</ele>
        <time>2021-05-18T14:45:02Z</time>
      </trkpt>
      <trkpt lat="41.8786960" lon="-8.8367480">
        <ele>3.0</ele>
        <time>2021-05-18T14:45:03Z</time>
      </trkpt>
      <trkpt lat="41.8786970" lon="-8.8367480">
        <ele>3.0</ele>
        <time>2021-05-18T14:45:04Z</time>
      </trkpt>
      <trkpt lat="41.8786990" lon="-8.8367480">
        <ele>3.0</ele>
        <time>2021-05-18T14:45:05Z</time>
      </trkpt>
      <trkpt lat="41.8787000" lon="-8.8367500">
        <ele>3.0</ele>
        <time>2021-05-18T14:45:06Z</time>
      </trkpt>
      <trkpt lat="41.8787010" lon="-8.8367510">
        <ele>3.0</ele>
        <time>2021-05-18T14:45:07Z</time>
      </trkpt>
      <trkpt lat="41.8787020" lon="-8.8367520">
        <ele>3.0</ele>
        <time>2021-05-18T14:45:08Z</time>
      </trkpt>
      <trkpt lat="41.8787030" lon="-8.8367510">
        <ele>3.0</ele>
        <time>2021-05-18T14:45:09Z</time>
      </trkpt>
      <trkpt lat="41.8787070" lon="-8.8367530">
        <ele>3.0</ele>
        <time>2021-05-18T14:45:10Z</time>
      </trkpt>
      <trkpt lat="41.8787090" lon="-8.8367520">
        <ele>3.0</ele>
        <time>2021-05-18T14:45:11Z</time>
      </trkpt>
      <trkpt lat="41.8787110" lon="-8.8367520">
        <ele>3.0</ele>
        <time>2021-05-18T14:45:12Z</time>
      </trkpt>
      <trkpt lat="41.8787130" lon="-8.8367530">
        <ele>3.0</ele>
        <time>2021-05-18T14:45:13Z</time>
      </trkpt>
      <trkpt lat="41.8787140" lon="-8.8367520">
        <ele>3.0</ele>
        <time>2021-05-18T14:45:14Z</time>
      </trkpt>
      <trkpt lat="41.8787150" lon="-8.8367500">
        <ele>3.0</ele>
        <time>2021-05-18T14:45:15Z</time>
      </trkpt>
      <trkpt lat="41.8787150" lon="-8.8367510">
        <ele>2.9</ele>
        <time>2021-05-18T14:45:16Z</time>
      </trkpt>
      <trkpt lat="41.8787140" lon="-8.8367510">
        <ele>2.9</ele>
        <time>2021-05-18T14:45:17Z</time>
      </trkpt>
      <trkpt lat="41.8787120" lon="-8.8367490">
        <ele>2.9</ele>
        <time>2021-05-18T14:45:18Z</time>
      </trkpt>
      <trkpt lat="41.8787120" lon="-8.8367470">
        <ele>2.9</ele>
        <time>2021-05-18T14:45:19Z</time>
      </trkpt>
      <trkpt lat="41.8787120" lon="-8.8367470">
        <ele>2.9</ele>
        <time>2021-05-18T14:45:20Z</time>
      </trkpt>
      <trkpt lat="41.8787120" lon="-8.8367450">
        <ele>2.9</ele>
        <time>2021-05-18T14:45:21Z</time>
      </trkpt>
      <trkpt lat="41.8787140" lon="-8.8367400">
        <ele>2.9</ele>
        <time>2021-05-18T14:45:22Z</time>
      </trkpt>
      <trkpt lat="41.8787140" lon="-8.8367390">
        <ele>2.9</ele>
        <time>2021-05-18T14:45:23Z</time>
      </trkpt>
      <trkpt lat="41.8787130" lon="-8.8367380">
        <ele>2.9</ele>
        <time>2021-05-18T14:45:24Z</time>
      </trkpt>
      <trkpt lat="41.8787140" lon="-8.8367360">
        <ele>2.9</ele>
        <time>2021-05-18T14:45:25Z</time>
      </trkpt>
      <trkpt lat="41.8787140" lon="-8.8367360">
        <ele>2.9</ele>
        <time>2021-05-18T14:45:26Z</time>
      </trkpt>
      <trkpt lat="41.8787140" lon="-8.8367340">
        <ele>2.9</ele>
        <time>2021-05-18T14:45:27Z</time>
      </trkpt>
      <trkpt lat="41.8787150" lon="-8.8367350">
        <ele>2.8</ele>
        <time>2021-05-18T14:45:28Z</time>
      </trkpt>
      <trkpt lat="41.8787190" lon="-8.8367350">
        <ele>2.8</ele>
        <time>2021-05-18T14:45:29Z</time>
      </trkpt>
      <trkpt lat="41.8787200" lon="-8.8367340">
        <ele>2.8</ele>
        <time>2021-05-18T14:45:30Z</time>
      </trkpt>
      <trkpt lat="41.8787200" lon="-8.8367330">
        <ele>2.8</ele>
        <time>2021-05-18T14:45:31Z</time>
      </trkpt>
      <trkpt lat="41.8787200" lon="-8.8367320">
        <ele>2.8</ele>
        <time>2021-05-18T14:45:32Z</time>
      </trkpt>
      <trkpt lat="41.8787200" lon="-8.8367320">
        <ele>2.8</ele>
        <time>2021-05-18T14:45:33Z</time>
      </trkpt>
      <trkpt lat="41.8787150" lon="-8.8367260">
        <ele>2.8</ele>
        <time>2021-05-18T14:45:34Z</time>
      </trkpt>
      <trkpt lat="41.8787140" lon="-8.8367270">
        <ele>2.8</ele>
        <time>2021-05-18T14:45:35Z</time>
      </trkpt>
      <trkpt lat="41.8787130" lon="-8.8367260">
        <ele>2.8</ele>
        <time>2021-05-18T14:45:36Z</time>
      </trkpt>
      <trkpt lat="41.8787100" lon="-8.8367290">
        <ele>2.8</ele>
        <time>2021-05-18T14:45:37Z</time>
      </trkpt>
      <trkpt lat="41.8787130" lon="-8.8367310">
        <ele>2.8</ele>
        <time>2021-05-18T14:45:38Z</time>
      </trkpt>
      <trkpt lat="41.8787130" lon="-8.8367350">
        <ele>2.8</ele>
        <time>2021-05-18T14:45:39Z</time>
      </trkpt>
      <trkpt lat="41.8787140" lon="-8.8367410">
        <ele>2.8</ele>
        <time>2021-05-18T14:45:40Z</time>
      </trkpt>
      <trkpt lat="41.8787130" lon="-8.8367540">
        <ele>2.7</ele>
        <time>2021-05-18T14:45:41Z</time>
      </trkpt>
      <trkpt lat="41.8787190" lon="-8.8367590">
        <ele>2.7</ele>
        <time>2021-05-18T14:45:42Z</time>
      </trkpt>
      <trkpt lat="41.8787230" lon="-8.8367660">
        <ele>2.7</ele>
        <time>2021-05-18T14:45:43Z</time>
      </trkpt>
      <trkpt lat="41.8787240" lon="-8.8367660">
        <ele>2.7</ele>
        <time>2021-05-18T14:45:44Z</time>
      </trkpt>
      <trkpt lat="41.8787240" lon="-8.8367630">
        <ele>2.7</ele>
        <time>2021-05-18T14:45:45Z</time>
      </trkpt>
      <trkpt lat="41.8787240" lon="-8.8367620">
        <ele>2.7</ele>
        <time>2021-05-18T14:45:46Z</time>
      </trkpt>
      <trkpt lat="41.8787230" lon="-8.8367620">
        <ele>2.7</ele>
        <time>2021-05-18T14:45:47Z</time>
      </trkpt>
      <trkpt lat="41.8787220" lon="-8.8367640">
        <ele>2.7</ele>
        <time>2021-05-18T14:45:48Z</time>
      </trkpt>
      <trkpt lat="41.8787210" lon="-8.8367640">
        <ele>2.7</ele>
        <time>2021-05-18T14:45:49Z</time>
      </trkpt>
      <trkpt lat="41.8787170" lon="-8.8367630">
        <ele>2.7</ele>
        <time>2021-05-18T14:45:50Z</time>
      </trkpt>
      <trkpt lat="41.8787170" lon="-8.8367640">
        <ele>2.7</ele>
        <time>2021-05-18T14:45:51Z</time>
      </trkpt>
      <trkpt lat="41.8787140" lon="-8.8367670">
        <ele>2.7</ele>
        <time>2021-05-18T14:45:52Z</time>
      </trkpt>
      <trkpt lat="41.8787130" lon="-8.8367670">
        <ele>2.6</ele>
        <time>2021-05-18T14:45:53Z</time>
      </trkpt>
      <trkpt lat="41.8787120" lon="-8.8367680">
        <ele>2.6</ele>
        <time>2021-05-18T14:45:54Z</time>
      </trkpt>
      <trkpt lat="41.8787100" lon="-8.8367690">
        <ele>2.6</ele>
        <time>2021-05-18T14:45:55Z</time>
      </trkpt>
      <trkpt lat="41.8787070" lon="-8.8367760">
        <ele>2.6</ele>
        <time>2021-05-18T14:45:56Z</time>
      </trkpt>
      <trkpt lat="41.8787060" lon="-8.8367790">
        <ele>2.6</ele>
        <time>2021-05-18T14:45:57Z</time>
      </trkpt>
      <trkpt lat="41.8787050" lon="-8.8367780">
        <ele>2.6</ele>
        <time>2021-05-18T14:45:58Z</time>
      </trkpt>
      <trkpt lat="41.8787040" lon="-8.8367780">
        <ele>2.6</ele>
        <time>2021-05-18T14:45:59Z</time>
      </trkpt>
      <trkpt lat="41.8787020" lon="-8.8367780">
        <ele>2.6</ele>
        <time>2021-05-18T14:46:00Z</time>
      </trkpt>
      <trkpt lat="41.8787020" lon="-8.8367760">
        <ele>2.7</ele>
        <time>2021-05-18T14:46:01Z</time>
      </trkpt>
      <trkpt lat="41.8787000" lon="-8.8367800">
        <ele>2.7</ele>
        <time>2021-05-18T14:46:02Z</time>
      </trkpt>
      <trkpt lat="41.8786990" lon="-8.8367790">
        <ele>2.7</ele>
        <time>2021-05-18T14:46:03Z</time>
      </trkpt>
      <trkpt lat="41.8786990" lon="-8.8367790">
        <ele>2.7</ele>
        <time>2021-05-18T14:46:04Z</time>
      </trkpt>
      <trkpt lat="41.8786990" lon="-8.8367830">
        <ele>2.7</ele>
        <time>2021-05-18T14:46:05Z</time>
      </trkpt>
      <trkpt lat="41.8787000" lon="-8.8367860">
        <ele>2.7</ele>
        <time>2021-05-18T14:46:06Z</time>
      </trkpt>
      <trkpt lat="41.8787020" lon="-8.8367860">
        <ele>2.7</ele>
        <time>2021-05-18T14:46:07Z</time>
      </trkpt>
      <trkpt lat="41.8787040" lon="-8.8367860">
        <ele>2.7</ele>
        <time>2021-05-18T14:46:08Z</time>
      </trkpt>
      <trkpt lat="41.8787060" lon="-8.8367850">
        <ele>2.7</ele>
        <time>2021-05-18T14:46:09Z</time>
      </trkpt>
      <trkpt lat="41.8787080" lon="-8.8367850">
        <ele>2.7</ele>
        <time>2021-05-18T14:46:10Z</time>
      </trkpt>
      <trkpt lat="41.8787100" lon="-8.8367850">
        <ele>2.7</ele>
        <time>2021-05-18T14:46:11Z</time>
      </trkpt>
      <trkpt lat="41.8787120" lon="-8.8367850">
        <ele>2.7</ele>
        <time>2021-05-18T14:46:12Z</time>
      </trkpt>
      <trkpt lat="41.8787140" lon="-8.8367850">
        <ele>2.7</ele>
        <time>2021-05-18T14:46:13Z</time>
      </trkpt>
      <trkpt lat="41.8787160" lon="-8.8367850">
        <ele>2.7</ele>
        <time>2021-05-18T14:46:14Z</time>
      </trkpt>
      <trkpt lat="41.8787170" lon="-8.8367840">
        <ele>2.7</ele>
        <time>2021-05-18T14:46:15Z</time>
      </trkpt>
      <trkpt lat="41.8787190" lon="-8.8367840">
        <ele>2.7</ele>
        <time>2021-05-18T14:46:16Z</time>
      </trkpt>
      <trkpt lat="41.8787210" lon="-8.8367840">
        <ele>2.7</ele>
        <time>2021-05-18T14:46:17Z</time>
      </trkpt>
      <trkpt lat="41.8787230" lon="-8.8367840">
        <ele>2.7</ele>
        <time>2021-05-18T14:46:18Z</time>
      </trkpt>
      <trkpt lat="41.8787250" lon="-8.8367840">
        <ele>2.7</ele>
        <time>2021-05-18T14:46:19Z</time>
      </trkpt>
      <trkpt lat="41.8787270" lon="-8.8367840">
        <ele>2.7</ele>
        <time>2021-05-18T14:46:20Z</time>
      </trkpt>
      <trkpt lat="41.8787290" lon="-8.8367830">
        <ele>2.7</ele>
        <time>2021-05-18T14:46:21Z</time>
      </trkpt>
      <trkpt lat="41.8787310" lon="-8.8367830">
        <ele>2.7</ele>
        <time>2021-05-18T14:46:22Z</time>
      </trkpt>
      <trkpt lat="41.8787330" lon="-8.8367830">
        <ele>2.7</ele>
        <time>2021-05-18T14:46:23Z</time>
      </trkpt>
      <trkpt lat="41.8787350" lon="-8.8367830">
        <ele>2.7</ele>
        <time>2021-05-18T14:46:24Z</time>
      </trkpt>
      <trkpt lat="41.8787370" lon="-8.8367830">
        <ele>2.7</ele>
        <time>2021-05-18T14:46:25Z</time>
      </trkpt>
      <trkpt lat="41.8787390" lon="-8.8367830">
        <ele>2.7</ele>
        <time>2021-05-18T14:46:26Z</time>
      </trkpt>
      <trkpt lat="41.8787410" lon="-8.8367830">
        <ele>2.7</ele>
        <time>2021-05-18T14:46:27Z</time>
      </trkpt>
      <trkpt lat="41.8787430" lon="-8.8367820">
        <ele>2.7</ele>
        <time>2021-05-18T14:46:28Z</time>
      </trkpt>
      <trkpt lat="41.8787450" lon="-8.8367820">
        <ele>2.7</ele>
        <time>2021-05-18T14:46:29Z</time>
      </trkpt>
      <trkpt lat="41.8787470" lon="-8.8367820">
        <ele>2.7</ele>
        <time>2021-05-18T14:46:30Z</time>
      </trkpt>
      <trkpt lat="41.8787490" lon="-8.8367820">
        <ele>2.7</ele>
        <time>2021-05-18T14:46:31Z</time>
      </trkpt>
      <trkpt lat="41.8787510" lon="-8.8367820">
        <ele>2.7</ele>
        <time>2021-05-18T14:46:32Z</time>
      </trkpt>
      <trkpt lat="41.8787530" lon="-8.8367820">
        <ele>2.7</ele>
        <time>2021-05-18T14:46:33Z</time>
      </trkpt>
      <trkpt lat="41.8787540" lon="-8.8367810">
        <ele>2.7</ele>
        <time>2021-05-18T14:46:34Z</time>
      </trkpt>
      <trkpt lat="41.8787560" lon="-8.8367810">
        <ele>2.7</ele>
        <time>2021-05-18T14:46:35Z</time>
      </trkpt>
      <trkpt lat="41.8787580" lon="-8.8367810">
        <ele>2.7</ele>
        <time>2021-05-18T14:46:36Z</time>
      </trkpt>
      <trkpt lat="41.8787600" lon="-8.8367810">
        <ele>2.7</ele>
        <time>2021-05-18T14:46:37Z</time>
      </trkpt>
      <trkpt lat="41.8787620" lon="-8.8367810">
        <ele>2.7</ele>
        <time>2021-05-18T14:46:38Z</time>
      </trkpt>
      <trkpt lat="41.8787640" lon="-8.8367810">
        <ele>2.7</ele>
        <time>2021-05-18T14:46:39Z</time>
      </trkpt>
      <trkpt lat="41.8787660" lon="-8.8367800">
        <ele>2.7</ele>
        <time>2021-05-18T14:46:40Z</time>
      </trkpt>
      <trkpt lat="41.8787680" lon="-8.8367800">
        <ele>2.7</ele>
        <time>2021-05-18T14:46:41Z</time>
      </trkpt>
      <trkpt lat="41.8787700" lon="-8.8367800">
        <ele>2.7</ele>
        <time>2021-05-18T14:46:42Z</time>
      </trkpt>
      <trkpt lat="41.8787720" lon="-8.8367800">
        <ele>2.7</ele>
        <time>2021-05-18T14:46:43Z</time>
      </trkpt>
      <trkpt lat="41.8787740" lon="-8.8367800">
        <ele>2.7</ele>
        <time>2021-05-18T14:46:44Z</time>
      </trkpt>
      <trkpt lat="41.8787760" lon="-8.8367800">
        <ele>2.7</ele>
        <time>2021-05-18T14:46:45Z</time>
      </trkpt>
      <trkpt lat="41.8787780" lon="-8.8367800">
        <ele>2.7</ele>
        <time>2021-05-18T14:46:46Z</time>
      </trkpt>
      <trkpt lat="41.8787800" lon="-8.8367790">
        <ele>2.7</ele>
        <time>2021-05-18T14:46:47Z</time>
      </trkpt>
      <trkpt lat="41.8787820" lon="-8.8367790">
        <ele>2.7</ele>
        <time>2021-05-18T14:46:48Z</time>
      </trkpt>
      <trkpt lat="41.8787840" lon="-8.8367790">
        <ele>2.7</ele>
        <time>2021-05-18T14:46:49Z</time>
      </trkpt>
      <trkpt lat="41.8787860" lon="-8.8367790">
        <ele>2.7</ele>
        <time>2021-05-18T14:46:50Z</time>
      </trkpt>
      <trkpt lat="41.8787880" lon="-8.8367790">
        <ele>2.7</ele>
        <time>2021-05-18T14:46:51Z</time>
      </trkpt>
      <trkpt lat="41.8787900" lon="-8.8367790">
        <ele>2.7</ele>
        <time>2021-05-18T14:46:52Z</time>
      </trkpt>
      <trkpt lat="41.8787910" lon="-8.8367780">
        <ele>2.7</ele>
        <time>2021-05-18T14:46:53Z</time>
      </trkpt>
      <trkpt lat="41.8787930" lon="-8.8367780">
        <ele>2.7</ele>
        <time>2021-05-18T14:46:54Z</time>
      </trkpt>
      <trkpt lat="41.8787950" lon="-8.8367780">
        <ele>2.7</ele>
        <time>2021-05-18T14:46:55Z</time>
      </trkpt>
      <trkpt lat="41.8787970" lon="-8.8367780">
        <ele>2.7</ele>
        <time>2021-05-18T14:46:56Z</time>
      </trkpt>
      <trkpt lat="41.8787990" lon="-8.8367780">
        <ele>2.7</ele>
        <time>2021-05-18T14:46:57Z</time>
      </trkpt>
      <trkpt lat="41.8788010" lon="-8.8367780">
        <ele>2.7</ele>
        <time>2021-05-18T14:46:58Z</time>
      </trkpt>
      <trkpt lat="41.8788030" lon="-8.8367770">
        <ele>2.7</ele>
        <time>2021-05-18T14:46:59Z</time>
      </trkpt>
      <trkpt lat="41.8788050" lon="-8.8367770">
        <ele>2.7</ele>
        <time>2021-05-18T14:47:00Z</time>
      </trkpt>
      <trkpt lat="41.8788070" lon="-8.8367770">
        <ele>2.7</ele>
        <time>2021-05-18T14:47:01Z</time>
      </trkpt>
      <trkpt lat="41.8788090" lon="-8.8367770">
        <ele>2.7</ele>
        <time>2021-05-18T14:47:02Z</time>
      </trkpt>
      <trkpt lat="41.8788150" lon="-8.8368030">
        <ele>2.7</ele>
        <time>2021-05-18T14:47:03Z</time>
      </trkpt>
      <trkpt lat="41.8788190" lon="-8.8368130">
        <ele>2.7</ele>
        <time>2021-05-18T14:47:04Z</time>
      </trkpt>
      <trkpt lat="41.8788240" lon="-8.8368220">
        <ele>2.7</ele>
        <time>2021-05-18T14:47:05Z</time>
      </trkpt>
      <trkpt lat="41.8788310" lon="-8.8368470">
        <ele>2.7</ele>
        <time>2021-05-18T14:47:06Z</time>
      </trkpt>
      <trkpt lat="41.8788380" lon="-8.8368570">
        <ele>2.7</ele>
        <time>2021-05-18T14:47:07Z</time>
      </trkpt>
      <trkpt lat="41.8788450" lon="-8.8368660">
        <ele>2.7</ele>
        <time>2021-05-18T14:47:08Z</time>
      </trkpt>
      <trkpt lat="41.8788520" lon="-8.8368860">
        <ele>2.7</ele>
        <time>2021-05-18T14:47:09Z</time>
      </trkpt>
      <trkpt lat="41.8788580" lon="-8.8368990">
        <ele>2.7</ele>
        <time>2021-05-18T14:47:10Z</time>
      </trkpt>
      <trkpt lat="41.8788730" lon="-8.8369150">
        <ele>2.7</ele>
        <time>2021-05-18T14:47:11Z</time>
      </trkpt>
      <trkpt lat="41.8788790" lon="-8.8369160">
        <ele>2.7</ele>
        <time>2021-05-18T14:47:12Z</time>
      </trkpt>
      <trkpt lat="41.8788860" lon="-8.8369170">
        <ele>2.7</ele>
        <time>2021-05-18T14:47:13Z</time>
      </trkpt>
      <trkpt lat="41.8788920" lon="-8.8369180">
        <ele>2.7</ele>
        <time>2021-05-18T14:47:14Z</time>
      </trkpt>
      <trkpt lat="41.8789020" lon="-8.8369270">
        <ele>2.7</ele>
        <time>2021-05-18T14:47:15Z</time>
      </trkpt>
      <trkpt lat="41.8789130" lon="-8.8369390">
        <ele>2.7</ele>
        <time>2021-05-18T14:47:16Z</time>
      </trkpt>
      <trkpt lat="41.8789220" lon="-8.8369450">
        <ele>2.7</ele>
        <time>2021-05-18T14:47:17Z</time>
      </trkpt>
      <trkpt lat="41.8789300" lon="-8.8369530">
        <ele>2.7</ele>
        <time>2021-05-18T14:47:18Z</time>
      </trkpt>
      <trkpt lat="41.8789400" lon="-8.8369520">
        <ele>2.8</ele>
        <time>2021-05-18T14:47:19Z</time>
      </trkpt>
      <trkpt lat="41.8789510" lon="-8.8369520">
        <ele>2.8</ele>
        <time>2021-05-18T14:47:20Z</time>
      </trkpt>
      <trkpt lat="41.8789610" lon="-8.8369520">
        <ele>2.8</ele>
        <time>2021-05-18T14:47:21Z</time>
      </trkpt>
      <trkpt lat="41.8789720" lon="-8.8369480">
        <ele>2.8</ele>
        <time>2021-05-18T14:47:22Z</time>
      </trkpt>
      <trkpt lat="41.8789800" lon="-8.8369430">
        <ele>2.8</ele>
        <time>2021-05-18T14:47:23Z</time>
      </trkpt>
      <trkpt lat="41.8789880" lon="-8.8369340">
        <ele>2.8</ele>
        <time>2021-05-18T14:47:24Z</time>
      </trkpt>
      <trkpt lat="41.8789940" lon="-8.8369270">
        <ele>2.8</ele>
        <time>2021-05-18T14:47:25Z</time>
      </trkpt>
      <trkpt lat="41.8790040" lon="-8.8369190">
        <ele>2.8</ele>
        <time>2021-05-18T14:47:26Z</time>
      </trkpt>
      <trkpt lat="41.8790050" lon="-8.8369050">
        <ele>2.8</ele>
        <time>2021-05-18T14:47:27Z</time>
      </trkpt>
      <trkpt lat="41.8790120" lon="-8.8368980">
        <ele>2.8</ele>
        <time>2021-05-18T14:47:28Z</time>
      </trkpt>
      <trkpt lat="41.8790240" lon="-8.8368880">
        <ele>2.8</ele>
        <time>2021-05-18T14:47:29Z</time>
      </trkpt>
      <trkpt lat="41.8790290" lon="-8.8368760">
        <ele>2.8</ele>
        <time>2021-05-18T14:47:30Z</time>
      </trkpt>
      <trkpt lat="41.8790310" lon="-8.8368730">
        <ele>2.8</ele>
        <time>2021-05-18T14:47:31Z</time>
      </trkpt>
      <trkpt lat="41.8790280" lon="-8.8368770">
        <ele>2.8</ele>
        <time>2021-05-18T14:47:32Z</time>
      </trkpt>
      <trkpt lat="41.8790260" lon="-8.8368830">
        <ele>2.8</ele>
        <time>2021-05-18T14:47:33Z</time>
      </trkpt>
      <trkpt lat="41.8790210" lon="-8.8368850">
        <ele>2.8</ele>
        <time>2021-05-18T14:47:34Z</time>
      </trkpt>
      <trkpt lat="41.8790220" lon="-8.8368870">
        <ele>2.8</ele>
        <time>2021-05-18T14:47:35Z</time>
      </trkpt>
      <trkpt lat="41.8790220" lon="-8.8368910">
        <ele>2.8</ele>
        <time>2021-05-18T14:47:36Z</time>
      </trkpt>
      <trkpt lat="41.8790230" lon="-8.8368920">
        <ele>2.8</ele>
        <time>2021-05-18T14:47:37Z</time>
      </trkpt>
      <trkpt lat="41.8790210" lon="-8.8369000">
        <ele>2.8</ele>
        <time>2021-05-18T14:47:38Z</time>
      </trkpt>
      <trkpt lat="41.8790190" lon="-8.8369060">
        <ele>2.8</ele>
        <time>2021-05-18T14:47:39Z</time>
      </trkpt>
      <trkpt lat="41.8790140" lon="-8.8369140">
        <ele>2.8</ele>
        <time>2021-05-18T14:47:40Z</time>
      </trkpt>
      <trkpt lat="41.8790160" lon="-8.8369270">
        <ele>2.8</ele>
        <time>2021-05-18T14:47:41Z</time>
      </trkpt>
      <trkpt lat="41.8790160" lon="-8.8369290">
        <ele>2.8</ele>
        <time>2021-05-18T14:47:42Z</time>
      </trkpt>
      <trkpt lat="41.8790180" lon="-8.8369280">
        <ele>2.8</ele>
        <time>2021-05-18T14:47:43Z</time>
      </trkpt>
      <trkpt lat="41.8790180" lon="-8.8369270">
        <ele>2.8</ele>
        <time>2021-05-18T14:47:44Z</time>
      </trkpt>
      <trkpt lat="41.8790140" lon="-8.8369330">
        <ele>2.8</ele>
        <time>2021-05-18T14:47:45Z</time>
      </trkpt>
      <trkpt lat="41.8790130" lon="-8.8369400">
        <ele>2.8</ele>
        <time>2021-05-18T14:47:46Z</time>
      </trkpt>
      <trkpt lat="41.8790100" lon="-8.8369480">
        <ele>2.8</ele>
        <time>2021-05-18T14:47:47Z</time>
      </trkpt>
      <trkpt lat="41.8790110" lon="-8.8369530">
        <ele>2.8</ele>
        <time>2021-05-18T14:47:48Z</time>
      </trkpt>
      <trkpt lat="41.8790100" lon="-8.8369600">
        <ele>2.8</ele>
        <time>2021-05-18T14:47:49Z</time>
      </trkpt>
      <trkpt lat="41.8790090" lon="-8.8369710">
        <ele>2.8</ele>
        <time>2021-05-18T14:47:50Z</time>
      </trkpt>
      <trkpt lat="41.8790200" lon="-8.8369860">
        <ele>2.8</ele>
        <time>2021-05-18T14:47:51Z</time>
      </trkpt>
      <trkpt lat="41.8790180" lon="-8.8369900">
        <ele>2.8</ele>
        <time>2021-05-18T14:47:52Z</time>
      </trkpt>
      <trkpt lat="41.8790170" lon="-8.8369850">
        <ele>2.8</ele>
        <time>2021-05-18T14:47:53Z</time>
      </trkpt>
      <trkpt lat="41.8790200" lon="-8.8369830">
        <ele>2.8</ele>
        <time>2021-05-18T14:47:54Z</time>
      </trkpt>
      <trkpt lat="41.8790240" lon="-8.8369790">
        <ele>2.8</ele>
        <time>2021-05-18T14:47:55Z</time>
      </trkpt>
      <trkpt lat="41.8790220" lon="-8.8369730">
        <ele>2.8</ele>
        <time>2021-05-18T14:47:56Z</time>
      </trkpt>
      <trkpt lat="41.8790200" lon="-8.8369650">
        <ele>2.8</ele>
        <time>2021-05-18T14:47:57Z</time>
      </trkpt>
      <trkpt lat="41.8790190" lon="-8.8369610">
        <ele>2.8</ele>
        <time>2021-05-18T14:47:58Z</time>
      </trkpt>
      <trkpt lat="41.8790190" lon="-8.8369580">
        <ele>2.8</ele>
        <time>2021-05-18T14:47:59Z</time>
      </trkpt>
      <trkpt lat="41.8790190" lon="-8.8369570">
        <ele>2.8</ele>
        <time>2021-05-18T14:48:00Z</time>
      </trkpt>
      <trkpt lat="41.8790150" lon="-8.8369560">
        <ele>2.8</ele>
        <time>2021-05-18T14:48:01Z</time>
      </trkpt>
      <trkpt lat="41.8790160" lon="-8.8369540">
        <ele>2.8</ele>
        <time>2021-05-18T14:48:02Z</time>
      </trkpt>
      <trkpt lat="41.8790160" lon="-8.8369500">
        <ele>2.8</ele>
        <time>2021-05-18T14:48:03Z</time>
      </trkpt>
      <trkpt lat="41.8790160" lon="-8.8369440">
        <ele>2.8</ele>
        <time>2021-05-18T14:48:04Z</time>
      </trkpt>
      <trkpt lat="41.8790200" lon="-8.8369410">
        <ele>2.8</ele>
        <time>2021-05-18T14:48:05Z</time>
      </trkpt>
      <trkpt lat="41.8790140" lon="-8.8369430">
        <ele>2.8</ele>
        <time>2021-05-18T14:48:06Z</time>
      </trkpt>
      <trkpt lat="41.8790130" lon="-8.8369430">
        <ele>2.8</ele>
        <time>2021-05-18T14:48:07Z</time>
      </trkpt>
      <trkpt lat="41.8790150" lon="-8.8369480">
        <ele>2.8</ele>
        <time>2021-05-18T14:48:08Z</time>
      </trkpt>
      <trkpt lat="41.8790170" lon="-8.8369390">
        <ele>2.8</ele>
        <time>2021-05-18T14:48:09Z</time>
      </trkpt>
      <trkpt lat="41.8790130" lon="-8.8369300">
        <ele>2.8</ele>
        <time>2021-05-18T14:48:10Z</time>
      </trkpt>
      <trkpt lat="41.8790170" lon="-8.8369230">
        <ele>2.8</ele>
        <time>2021-05-18T14:48:11Z</time>
      </trkpt>
      <trkpt lat="41.8790270" lon="-8.8369130">
        <ele>2.8</ele>
        <time>2021-05-18T14:48:12Z</time>
      </trkpt>
      <trkpt lat="41.8790300" lon="-8.8368990">
        <ele>2.8</ele>
        <time>2021-05-18T14:48:13Z</time>
      </trkpt>
      <trkpt lat="41.8790240" lon="-8.8368760">
        <ele>2.8</ele>
        <time>2021-05-18T14:48:14Z</time>
      </trkpt>
      <trkpt lat="41.8790390" lon="-8.8368650">
        <ele>2.8</ele>
        <time>2021-05-18T14:48:15Z</time>
      </trkpt>
      <trkpt lat="41.8790470" lon="-8.8368450">
        <ele>2.8</ele>
        <time>2021-05-18T14:48:16Z</time>
      </trkpt>
      <trkpt lat="41.8790490" lon="-8.8368200">
        <ele>2.8</ele>
        <time>2021-05-18T14:48:17Z</time>
      </trkpt>
      <trkpt lat="41.8790610" lon="-8.8368060">
        <ele>2.8</ele>
        <time>2021-05-18T14:48:18Z</time>
      </trkpt>
      <trkpt lat="41.8790670" lon="-8.8367880">
        <ele>2.8</ele>
        <time>2021-05-18T14:48:19Z</time>
      </trkpt>
      <trkpt lat="41.8790710" lon="-8.8367770">
        <ele>2.8</ele>
        <time>2021-05-18T14:48:20Z</time>
      </trkpt>
      <trkpt lat="41.8790700" lon="-8.8367710">
        <ele>2.8</ele>
        <time>2021-05-18T14:48:21Z</time>
      </trkpt>
      <trkpt lat="41.8790680" lon="-8.8367670">
        <ele>2.8</ele>
        <time>2021-05-18T14:48:22Z</time>
      </trkpt>
      <trkpt lat="41.8790670" lon="-8.8367510">
        <ele>2.8</ele>
        <time>2021-05-18T14:48:23Z</time>
      </trkpt>
      <trkpt lat="41.8790650" lon="-8.8367580">
        <ele>2.8</ele>
        <time>2021-05-18T14:48:24Z</time>
      </trkpt>
      <trkpt lat="41.8790650" lon="-8.8367730">
        <ele>2.8</ele>
        <time>2021-05-18T14:48:25Z</time>
      </trkpt>
      <trkpt lat="41.8790640" lon="-8.8367870">
        <ele>2.8</ele>
        <time>2021-05-18T14:48:26Z</time>
      </trkpt>
      <trkpt lat="41.8790640" lon="-8.8368010">
        <ele>2.8</ele>
        <time>2021-05-18T14:48:27Z</time>
      </trkpt>
      <trkpt lat="41.8790610" lon="-8.8368120">
        <ele>2.8</ele>
        <time>2021-05-18T14:48:28Z</time>
      </trkpt>
      <trkpt lat="41.8790540" lon="-8.8368250">
        <ele>2.8</ele>
        <time>2021-05-18T14:48:29Z</time>
      </trkpt>
      <trkpt lat="41.8790490" lon="-8.8368350">
        <ele>2.8</ele>
        <time>2021-05-18T14:48:30Z</time>
      </trkpt>
      <trkpt lat="41.8790350" lon="-8.8368490">
        <ele>2.8</ele>
        <time>2021-05-18T14:48:31Z</time>
      </trkpt>
      <trkpt lat="41.8790370" lon="-8.8368590">
        <ele>2.8</ele>
        <time>2021-05-18T14:48:32Z</time>
      </trkpt>
      <trkpt lat="41.8790320" lon="-8.8368710">
        <ele>2.8</ele>
        <time>2021-05-18T14:48:33Z</time>
      </trkpt>
      <trkpt lat="41.8790300" lon="-8.8368790">
        <ele>2.8</ele>
        <time>2021-05-18T14:48:34Z</time>
      </trkpt>
      <trkpt lat="41.8790340" lon="-8.8368840">
        <ele>2.8</ele>
        <time>2021-05-18T14:48:35Z</time>
      </trkpt>
      <trkpt lat="41.8790310" lon="-8.8368850">
        <ele>2.8</ele>
        <time>2021-05-18T14:48:36Z</time>
      </trkpt>
      <trkpt lat="41.8790290" lon="-8.8368840">
        <ele>2.8</ele>
        <time>2021-05-18T14:48:37Z</time>
      </trkpt>
      <trkpt lat="41.8790340" lon="-8.8368840">
        <ele>2.8</ele>
        <time>2021-05-18T14:48:38Z</time>
      </trkpt>
      <trkpt lat="41.8790360" lon="-8.8368830">
        <ele>2.8</ele>
        <time>2021-05-18T14:48:39Z</time>
      </trkpt>
      <trkpt lat="41.8790390" lon="-8.8368830">
        <ele>2.8</ele>
        <time>2021-05-18T14:48:40Z</time>
      </trkpt>
      <trkpt lat="41.8790390" lon="-8.8368790">
        <ele>2.8</ele>
        <time>2021-05-18T14:48:41Z</time>
      </trkpt>
      <trkpt lat="41.8790410" lon="-8.8368750">
        <ele>2.8</ele>
        <time>2021-05-18T14:48:42Z</time>
      </trkpt>
      <trkpt lat="41.8790410" lon="-8.8368740">
        <ele>2.8</ele>
        <time>2021-05-18T14:48:43Z</time>
      </trkpt>
      <trkpt lat="41.8790400" lon="-8.8368740">
        <ele>2.8</ele>
        <time>2021-05-18T14:48:44Z</time>
      </trkpt>
      <trkpt lat="41.8790420" lon="-8.8368720">
        <ele>2.8</ele>
        <time>2021-05-18T14:48:45Z</time>
      </trkpt>
      <trkpt lat="41.8790450" lon="-8.8368720">
        <ele>2.8</ele>
        <time>2021-05-18T14:48:46Z</time>
      </trkpt>
      <trkpt lat="41.8790470" lon="-8.8368730">
        <ele>2.8</ele>
        <time>2021-05-18T14:48:47Z</time>
      </trkpt>
      <trkpt lat="41.8790500" lon="-8.8368720">
        <ele>2.8</ele>
        <time>2021-05-18T14:48:48Z</time>
      </trkpt>
      <trkpt lat="41.8790510" lon="-8.8368700">
        <ele>2.8</ele>
        <time>2021-05-18T14:48:49Z</time>
      </trkpt>
      <trkpt lat="41.8790530" lon="-8.8368640">
        <ele>2.8</ele>
        <time>2021-05-18T14:48:50Z</time>
      </trkpt>
      <trkpt lat="41.8790470" lon="-8.8368640">
        <ele>2.8</ele>
        <time>2021-05-18T14:48:51Z</time>
      </trkpt>
      <trkpt lat="41.8790480" lon="-8.8368630">
        <ele>2.8</ele>
        <time>2021-05-18T14:48:52Z</time>
      </trkpt>
      <trkpt lat="41.8790510" lon="-8.8368640">
        <ele>2.8</ele>
        <time>2021-05-18T14:48:53Z</time>
      </trkpt>
      <trkpt lat="41.8790500" lon="-8.8368630">
        <ele>2.8</ele>
        <time>2021-05-18T14:48:54Z</time>
      </trkpt>
      <trkpt lat="41.8790510" lon="-8.8368620">
        <ele>2.8</ele>
        <time>2021-05-18T14:48:55Z</time>
      </trkpt>
      <trkpt lat="41.8790510" lon="-8.8368590">
        <ele>2.8</ele>
        <time>2021-05-18T14:48:56Z</time>
      </trkpt>
      <trkpt lat="41.8790500" lon="-8.8368570">
        <ele>2.8</ele>
        <time>2021-05-18T14:48:57Z</time>
      </trkpt>
      <trkpt lat="41.8790510" lon="-8.8368570">
        <ele>2.8</ele>
        <time>2021-05-18T14:48:58Z</time>
      </trkpt>
      <trkpt lat="41.8790500" lon="-8.8368580">
        <ele>2.8</ele>
        <time>2021-05-18T14:48:59Z</time>
      </trkpt>
      <trkpt lat="41.8790490" lon="-8.8368600">
        <ele>2.8</ele>
        <time>2021-05-18T14:49:00Z</time>
      </trkpt>
      <trkpt lat="41.8790480" lon="-8.8368610">
        <ele>2.8</ele>
        <time>2021-05-18T14:49:01Z</time>
      </trkpt>
      <trkpt lat="41.8790470" lon="-8.8368610">
        <ele>2.8</ele>
        <time>2021-05-18T14:49:02Z</time>
      </trkpt>
      <trkpt lat="41.8790480" lon="-8.8368600">
        <ele>2.8</ele>
        <time>2021-05-18T14:49:03Z</time>
      </trkpt>
      <trkpt lat="41.8790450" lon="-8.8368610">
        <ele>2.8</ele>
        <time>2021-05-18T14:49:04Z</time>
      </trkpt>
      <trkpt lat="41.8790430" lon="-8.8368600">
        <ele>2.8</ele>
        <time>2021-05-18T14:49:05Z</time>
      </trkpt>
      <trkpt lat="41.8790450" lon="-8.8368590">
        <ele>2.8</ele>
        <time>2021-05-18T14:49:06Z</time>
      </trkpt>
      <trkpt lat="41.8790510" lon="-8.8368610">
        <ele>2.8</ele>
        <time>2021-05-18T14:49:07Z</time>
      </trkpt>
      <trkpt lat="41.8790510" lon="-8.8368620">
        <ele>2.8</ele>
        <time>2021-05-18T14:49:08Z</time>
      </trkpt>
      <trkpt lat="41.8790470" lon="-8.8368600">
        <ele>2.8</ele>
        <time>2021-05-18T14:49:09Z</time>
      </trkpt>
      <trkpt lat="41.8790470" lon="-8.8368610">
        <ele>2.8</ele>
        <time>2021-05-18T14:49:10Z</time>
      </trkpt>
      <trkpt lat="41.8790470" lon="-8.8368610">
        <ele>2.8</ele>
        <time>2021-05-18T14:49:11Z</time>
      </trkpt>
      <trkpt lat="41.8790470" lon="-8.8368680">
        <ele>2.8</ele>
        <time>2021-05-18T14:49:12Z</time>
      </trkpt>
      <trkpt lat="41.8790470" lon="-8.8368680">
        <ele>2.8</ele>
        <time>2021-05-18T14:49:13Z</time>
      </trkpt>
      <trkpt lat="41.8790500" lon="-8.8368650">
        <ele>2.8</ele>
        <time>2021-05-18T14:49:14Z</time>
      </trkpt>
      <trkpt lat="41.8790490" lon="-8.8368640">
        <ele>2.8</ele>
        <time>2021-05-18T14:49:15Z</time>
      </trkpt>
      <trkpt lat="41.8790470" lon="-8.8368640">
        <ele>2.8</ele>
        <time>2021-05-18T14:49:16Z</time>
      </trkpt>
      <trkpt lat="41.8790500" lon="-8.8368660">
        <ele>2.8</ele>
        <time>2021-05-18T14:49:17Z</time>
      </trkpt>
      <trkpt lat="41.8790520" lon="-8.8368660">
        <ele>2.8</ele>
        <time>2021-05-18T14:49:18Z</time>
      </trkpt>
      <trkpt lat="41.8790510" lon="-8.8368640">
        <ele>2.8</ele>
        <time>2021-05-18T14:49:19Z</time>
      </trkpt>
      <trkpt lat="41.8790530" lon="-8.8368630">
        <ele>2.8</ele>
        <time>2021-05-18T14:49:20Z</time>
      </trkpt>
      <trkpt lat="41.8790470" lon="-8.8368620">
        <ele>2.8</ele>
        <time>2021-05-18T14:49:21Z</time>
      </trkpt>
      <trkpt lat="41.8790470" lon="-8.8368610">
        <ele>2.8</ele>
        <time>2021-05-18T14:49:22Z</time>
      </trkpt>
      <trkpt lat="41.8790410" lon="-8.8368560">
        <ele>2.8</ele>
        <time>2021-05-18T14:49:23Z</time>
      </trkpt>
      <trkpt lat="41.8790410" lon="-8.8368560">
        <ele>2.8</ele>
        <time>2021-05-18T14:49:24Z</time>
      </trkpt>
      <trkpt lat="41.8790470" lon="-8.8368540">
        <ele>2.8</ele>
        <time>2021-05-18T14:49:25Z</time>
      </trkpt>
      <trkpt lat="41.8790470" lon="-8.8368540">
        <ele>2.8</ele>
        <time>2021-05-18T14:49:26Z</time>
      </trkpt>
      <trkpt lat="41.8790480" lon="-8.8368540">
        <ele>2.8</ele>
        <time>2021-05-18T14:49:27Z</time>
      </trkpt>
      <trkpt lat="41.8790540" lon="-8.8368560">
        <ele>2.8</ele>
        <time>2021-05-18T14:49:28Z</time>
      </trkpt>
      <trkpt lat="41.8790610" lon="-8.8368590">
        <ele>2.8</ele>
        <time>2021-05-18T14:49:29Z</time>
      </trkpt>
      <trkpt lat="41.8790650" lon="-8.8368610">
        <ele>2.8</ele>
        <time>2021-05-18T14:49:30Z</time>
      </trkpt>
      <trkpt lat="41.8790640" lon="-8.8368600">
        <ele>2.8</ele>
        <time>2021-05-18T14:49:31Z</time>
      </trkpt>
      <trkpt lat="41.8790620" lon="-8.8368590">
        <ele>2.8</ele>
        <time>2021-05-18T14:49:32Z</time>
      </trkpt>
      <trkpt lat="41.8790610" lon="-8.8368580">
        <ele>2.8</ele>
        <time>2021-05-18T14:49:33Z</time>
      </trkpt>
      <trkpt lat="41.8790590" lon="-8.8368570">
        <ele>2.8</ele>
        <time>2021-05-18T14:49:34Z</time>
      </trkpt>
      <trkpt lat="41.8790570" lon="-8.8368560">
        <ele>2.8</ele>
        <time>2021-05-18T14:49:35Z</time>
      </trkpt>
      <trkpt lat="41.8790560" lon="-8.8368550">
        <ele>2.8</ele>
        <time>2021-05-18T14:49:36Z</time>
      </trkpt>
      <trkpt lat="41.8790540" lon="-8.8368540">
        <ele>2.8</ele>
        <time>2021-05-18T14:49:37Z</time>
      </trkpt>
      <trkpt lat="41.8790530" lon="-8.8368530">
        <ele>2.8</ele>
        <time>2021-05-18T14:49:38Z</time>
      </trkpt>
      <trkpt lat="41.8790510" lon="-8.8368520">
        <ele>2.8</ele>
        <time>2021-05-18T14:49:39Z</time>
      </trkpt>
      <trkpt lat="41.8790490" lon="-8.8368510">
        <ele>2.8</ele>
        <time>2021-05-18T14:49:40Z</time>
      </trkpt>
      <trkpt lat="41.8790480" lon="-8.8368500">
        <ele>2.8</ele>
        <time>2021-05-18T14:49:41Z</time>
      </trkpt>
      <trkpt lat="41.8790460" lon="-8.8368490">
        <ele>2.8</ele>
        <time>2021-05-18T14:49:42Z</time>
      </trkpt>
      <trkpt lat="41.8790450" lon="-8.8368480">
        <ele>2.8</ele>
        <time>2021-05-18T14:49:43Z</time>
      </trkpt>
      <trkpt lat="41.8790430" lon="-8.8368470">
        <ele>2.8</ele>
        <time>2021-05-18T14:49:44Z</time>
      </trkpt>
      <trkpt lat="41.8790410" lon="-8.8368460">
        <ele>2.8</ele>
        <time>2021-05-18T14:49:45Z</time>
      </trkpt>
      <trkpt lat="41.8790400" lon="-8.8368450">
        <ele>2.8</ele>
        <time>2021-05-18T14:49:46Z</time>
      </trkpt>
      <trkpt lat="41.8790380" lon="-8.8368440">
        <ele>2.8</ele>
        <time>2021-05-18T14:49:47Z</time>
      </trkpt>
      <trkpt lat="41.8790370" lon="-8.8368430">
        <ele>2.8</ele>
        <time>2021-05-18T14:49:48Z</time>
      </trkpt>
      <trkpt lat="41.8790350" lon="-8.8368420">
        <ele>2.8</ele>
        <time>2021-05-18T14:49:49Z</time>
      </trkpt>
      <trkpt lat="41.8790330" lon="-8.8368410">
        <ele>2.8</ele>
        <time>2021-05-18T14:49:50Z</time>
      </trkpt>
      <trkpt lat="41.8790320" lon="-8.8368400">
        <ele>2.8</ele>
        <time>2021-05-18T14:49:51Z</time>
      </trkpt>
      <trkpt lat="41.8790300" lon="-8.8368390">
        <ele>2.8</ele>
        <time>2021-05-18T14:49:52Z</time>
      </trkpt>
      <trkpt lat="41.8790290" lon="-8.8368380">
        <ele>2.8</ele>
        <time>2021-05-18T14:49:53Z</time>
      </trkpt>
      <trkpt lat="41.8790270" lon="-8.8368370">
        <ele>2.8</ele>
        <time>2021-05-18T14:49:54Z</time>
      </trkpt>
      <trkpt lat="41.8790340" lon="-8.8368540">
        <ele>2.8</ele>
        <time>2021-05-18T14:49:55Z</time>
      </trkpt>
      <trkpt lat="41.8790360" lon="-8.8368510">
        <ele>2.8</ele>
        <time>2021-05-18T14:49:56Z</time>
      </trkpt>
      <trkpt lat="41.8790350" lon="-8.8368450">
        <ele>2.8</ele>
        <time>2021-05-18T14:49:57Z</time>
      </trkpt>
      <trkpt lat="41.8790350" lon="-8.8368450">
        <ele>2.8</ele>
        <time>2021-05-18T14:49:58Z</time>
      </trkpt>
      <trkpt lat="41.8790380" lon="-8.8368440">
        <ele>2.8</ele>
        <time>2021-05-18T14:49:59Z</time>
      </trkpt>
      <trkpt lat="41.8790430" lon="-8.8368420">
        <ele>2.8</ele>
        <time>2021-05-18T14:50:00Z</time>
      </trkpt>
      <trkpt lat="41.8790460" lon="-8.8368420">
        <ele>2.8</ele>
        <time>2021-05-18T14:50:01Z</time>
      </trkpt>
      <trkpt lat="41.8790430" lon="-8.8368450">
        <ele>2.8</ele>
        <time>2021-05-18T14:50:02Z</time>
      </trkpt>
      <trkpt lat="41.8790400" lon="-8.8368450">
        <ele>2.8</ele>
        <time>2021-05-18T14:50:03Z</time>
      </trkpt>
      <trkpt lat="41.8790340" lon="-8.8368470">
        <ele>2.8</ele>
        <time>2021-05-18T14:50:04Z</time>
      </trkpt>
      <trkpt lat="41.8790340" lon="-8.8368520">
        <ele>2.8</ele>
        <time>2021-05-18T14:50:05Z</time>
      </trkpt>
      <trkpt lat="41.8790290" lon="-8.8368500">
        <ele>2.8</ele>
        <time>2021-05-18T14:50:06Z</time>
      </trkpt>
      <trkpt lat="41.8790270" lon="-8.8368520">
        <ele>2.8</ele>
        <time>2021-05-18T14:50:07Z</time>
      </trkpt>
      <trkpt lat="41.8790250" lon="-8.8368540">
        <ele>2.8</ele>
        <time>2021-05-18T14:50:08Z</time>
      </trkpt>
      <trkpt lat="41.8790210" lon="-8.8368530">
        <ele>2.8</ele>
        <time>2021-05-18T14:50:09Z</time>
      </trkpt>
      <trkpt lat="41.8790200" lon="-8.8368540">
        <ele>2.8</ele>
        <time>2021-05-18T14:50:10Z</time>
      </trkpt>
      <trkpt lat="41.8790240" lon="-8.8368640">
        <ele>2.8</ele>
        <time>2021-05-18T14:50:11Z</time>
      </trkpt>
      <trkpt lat="41.8790280" lon="-8.8368610">
        <ele>2.8</ele>
        <time>2021-05-18T14:50:12Z</time>
      </trkpt>
      <trkpt lat="41.8790230" lon="-8.8368470">
        <ele>2.8</ele>
        <time>2021-05-18T14:50:13Z</time>
      </trkpt>
      <trkpt lat="41.8790280" lon="-8.8368380">
        <ele>2.8</ele>
        <time>2021-05-18T14:50:14Z</time>
      </trkpt>
      <trkpt lat="41.8790370" lon="-8.8368320">
        <ele>2.8</ele>
        <time>2021-05-18T14:50:15Z</time>
      </trkpt>
      <trkpt lat="41.8790430" lon="-8.8368210">
        <ele>2.8</ele>
        <time>2021-05-18T14:50:16Z</time>
      </trkpt>
      <trkpt lat="41.8790550" lon="-8.8368130">
        <ele>2.8</ele>
        <time>2021-05-18T14:50:17Z</time>
      </trkpt>
      <trkpt lat="41.8790590" lon="-8.8368040">
        <ele>2.8</ele>
        <time>2021-05-18T14:50:18Z</time>
      </trkpt>
      <trkpt lat="41.8790610" lon="-8.8367890">
        <ele>2.8</ele>
        <time>2021-05-18T14:50:19Z</time>
      </trkpt>
      <trkpt lat="41.8790540" lon="-8.8367880">
        <ele>2.8</ele>
        <time>2021-05-18T14:50:20Z</time>
      </trkpt>
      <trkpt lat="41.8790640" lon="-8.8367770">
        <ele>2.8</ele>
        <time>2021-05-18T14:50:21Z</time>
      </trkpt>
      <trkpt lat="41.8790620" lon="-8.8367620">
        <ele>2.8</ele>
        <time>2021-05-18T14:50:22Z</time>
      </trkpt>
      <trkpt lat="41.8790610" lon="-8.8367530">
        <ele>2.8</ele>
        <time>2021-05-18T14:50:23Z</time>
      </trkpt>
      <trkpt lat="41.8790460" lon="-8.8367450">
        <ele>2.8</ele>
        <time>2021-05-18T14:50:24Z</time>
      </trkpt>
      <trkpt lat="41.8790360" lon="-8.8367310">
        <ele>2.8</ele>
        <time>2021-05-18T14:50:25Z</time>
      </trkpt>
      <trkpt lat="41.8790220" lon="-8.8367260">
        <ele>2.8</ele>
        <time>2021-05-18T14:50:26Z</time>
      </trkpt>
      <trkpt lat="41.8790140" lon="-8.8367190">
        <ele>2.8</ele>
        <time>2021-05-18T14:50:27Z</time>
      </trkpt>
      <trkpt lat="41.8790020" lon="-8.8367090">
        <ele>2.8</ele>
        <time>2021-05-18T14:50:28Z</time>
      </trkpt>
      <trkpt lat="41.8789910" lon="-8.8367010">
        <ele>2.8</ele>
        <time>2021-05-18T14:50:29Z</time>
      </trkpt>
      <trkpt lat="41.8789840" lon="-8.8367010">
        <ele>2.8</ele>
        <time>2021-05-18T14:50:30Z</time>
      </trkpt>
      <trkpt lat="41.8789710" lon="-8.8367030">
        <ele>2.8</ele>
        <time>2021-05-18T14:50:31Z</time>
      </trkpt>
      <trkpt lat="41.8789590" lon="-8.8367150">
        <ele>2.8</ele>
        <time>2021-05-18T14:50:32Z</time>
      </trkpt>
      <trkpt lat="41.8789570" lon="-8.8367180">
        <ele>2.8</ele>
        <time>2021-05-18T14:50:33Z</time>
      </trkpt>
      <trkpt lat="41.8789530" lon="-8.8367170">
        <ele>2.8</ele>
        <time>2021-05-18T14:50:34Z</time>
      </trkpt>
      <trkpt lat="41.8789460" lon="-8.8367160">
        <ele>2.8</ele>
        <time>2021-05-18T14:50:35Z</time>
      </trkpt>
      <trkpt lat="41.8789470" lon="-8.8367130">
        <ele>2.8</ele>
        <time>2021-05-18T14:50:36Z</time>
      </trkpt>
      <trkpt lat="41.8789490" lon="-8.8367110">
        <ele>2.8</ele>
        <time>2021-05-18T14:50:37Z</time>
      </trkpt>
      <trkpt lat="41.8789470" lon="-8.8367080">
        <ele>2.8</ele>
        <time>2021-05-18T14:50:38Z</time>
      </trkpt>
      <trkpt lat="41.8789360" lon="-8.8367090">
        <ele>2.8</ele>
        <time>2021-05-18T14:50:39Z</time>
      </trkpt>
      <trkpt lat="41.8789430" lon="-8.8367180">
        <ele>2.8</ele>
        <time>2021-05-18T14:50:40Z</time>
      </trkpt>
      <trkpt lat="41.8789460" lon="-8.8367260">
        <ele>2.8</ele>
        <time>2021-05-18T14:50:41Z</time>
      </trkpt>
      <trkpt lat="41.8789460" lon="-8.8367280">
        <ele>2.8</ele>
        <time>2021-05-18T14:50:42Z</time>
      </trkpt>
      <trkpt lat="41.8789460" lon="-8.8367280">
        <ele>2.8</ele>
        <time>2021-05-18T14:50:43Z</time>
      </trkpt>
      <trkpt lat="41.8789430" lon="-8.8367030">
        <ele>2.8</ele>
        <time>2021-05-18T14:50:44Z</time>
      </trkpt>
      <trkpt lat="41.8789440" lon="-8.8367060">
        <ele>2.8</ele>
        <time>2021-05-18T14:50:45Z</time>
      </trkpt>
      <trkpt lat="41.8789430" lon="-8.8367050">
        <ele>2.8</ele>
        <time>2021-05-18T14:50:46Z</time>
      </trkpt>
      <trkpt lat="41.8789430" lon="-8.8367050">
        <ele>2.8</ele>
        <time>2021-05-18T14:50:47Z</time>
      </trkpt>
      <trkpt lat="41.8789430" lon="-8.8367050">
        <ele>2.8</ele>
        <time>2021-05-18T14:50:48Z</time>
      </trkpt>
      <trkpt lat="41.8789430" lon="-8.8367050">
        <ele>2.8</ele>
        <time>2021-05-18T14:50:49Z</time>
      </trkpt>
      <trkpt lat="41.8789430" lon="-8.8367050">
        <ele>2.8</ele>
        <time>2021-05-18T14:50:50Z</time>
      </trkpt>
      <trkpt lat="41.8789430" lon="-8.8367050">
        <ele>2.8</ele>
        <time>2021-05-18T14:50:51Z</time>
      </trkpt>
      <trkpt lat="41.8789430" lon="-8.8367050">
        <ele>2.8</ele>
        <time>2021-05-18T14:50:52Z</time>
      </trkpt>
      <trkpt lat="41.8789430" lon="-8.8367050">
        <ele>2.8</ele>
        <time>2021-05-18T14:50:53Z</time>
      </trkpt>
      <trkpt lat="41.8789430" lon="-8.8367050">
        <ele>2.8</ele>
        <time>2021-05-18T14:50:54Z</time>
      </trkpt>
      <trkpt lat="41.8789430" lon="-8.8367050">
        <ele>2.8</ele>
        <time>2021-05-18T14:50:55Z</time>
      </trkpt>
      <trkpt lat="41.8789430" lon="-8.8367050">
        <ele>2.8</ele>
        <time>2021-05-18T14:50:56Z</time>
      </trkpt>
      <trkpt lat="41.8789430" lon="-8.8367050">
        <ele>2.8</ele>
        <time>2021-05-18T14:50:57Z</time>
      </trkpt>
      <trkpt lat="41.8789430" lon="-8.8367050">
        <ele>2.8</ele>
        <time>2021-05-18T14:50:58Z</time>
      </trkpt>
      <trkpt lat="41.8789430" lon="-8.8367050">
        <ele>2.8</ele>
        <time>2021-05-18T14:50:59Z</time>
      </trkpt>
      <trkpt lat="41.8789430" lon="-8.8367050">
        <ele>2.8</ele>
        <time>2021-05-18T14:51:00Z</time>
      </trkpt>
      <trkpt lat="41.8789430" lon="-8.8367050">
        <ele>2.8</ele>
        <time>2021-05-18T14:51:01Z</time>
      </trkpt>
      <trkpt lat="41.8789430" lon="-8.8367050">
        <ele>2.8</ele>
        <time>2021-05-18T14:51:02Z</time>
      </trkpt>
      <trkpt lat="41.8789430" lon="-8.8367050">
        <ele>2.8</ele>
        <time>2021-05-18T14:51:03Z</time>
      </trkpt>
      <trkpt lat="41.8789430" lon="-8.8367050">
        <ele>2.8</ele>
        <time>2021-05-18T14:51:04Z</time>
      </trkpt>
      <trkpt lat="41.8789430" lon="-8.8367050">
        <ele>2.8</ele>
        <time>2021-05-18T14:51:05Z</time>
      </trkpt>
      <trkpt lat="41.8789830" lon="-8.8366910">
        <ele>2.8</ele>
        <time>2021-05-18T14:51:06Z</time>
      </trkpt>
      <trkpt lat="41.8789860" lon="-8.8366910">
        <ele>2.8</ele>
        <time>2021-05-18T14:51:07Z</time>
      </trkpt>
      <trkpt lat="41.8789890" lon="-8.8366920">
        <ele>2.8</ele>
        <time>2021-05-18T14:51:08Z</time>
      </trkpt>
      <trkpt lat="41.8789920" lon="-8.8366920">
        <ele>2.8</ele>
        <time>2021-05-18T14:51:09Z</time>
      </trkpt>
      <trkpt lat="41.8789940" lon="-8.8366930">
        <ele>2.8</ele>
        <time>2021-05-18T14:51:10Z</time>
      </trkpt>
      <trkpt lat="41.8789970" lon="-8.8366930">
        <ele>2.8</ele>
        <time>2021-05-18T14:51:11Z</time>
      </trkpt>
      <trkpt lat="41.8790000" lon="-8.8366940">
        <ele>2.8</ele>
        <time>2021-05-18T14:51:12Z</time>
      </trkpt>
      <trkpt lat="41.8790030" lon="-8.8366940">
        <ele>2.8</ele>
        <time>2021-05-18T14:51:13Z</time>
      </trkpt>
      <trkpt lat="41.8790060" lon="-8.8366940">
        <ele>2.8</ele>
        <time>2021-05-18T14:51:14Z</time>
      </trkpt>
      <trkpt lat="41.8790090" lon="-8.8366950">
        <ele>2.8</ele>
        <time>2021-05-18T14:51:15Z</time>
      </trkpt>
      <trkpt lat="41.8790120" lon="-8.8366950">
        <ele>2.8</ele>
        <time>2021-05-18T14:51:16Z</time>
      </trkpt>
      <trkpt lat="41.8790140" lon="-8.8366960">
        <ele>2.8</ele>
        <time>2021-05-18T14:51:17Z</time>
      </trkpt>
      <trkpt lat="41.8790170" lon="-8.8366960">
        <ele>2.8</ele>
        <time>2021-05-18T14:51:18Z</time>
      </trkpt>
      <trkpt lat="41.8790200" lon="-8.8366970">
        <ele>2.8</ele>
        <time>2021-05-18T14:51:19Z</time>
      </trkpt>
      <trkpt lat="41.8790230" lon="-8.8366970">
        <ele>2.8</ele>
        <time>2021-05-18T14:51:20Z</time>
      </trkpt>
      <trkpt lat="41.8790290" lon="-8.8366640">
        <ele>2.8</ele>
        <time>2021-05-18T14:51:21Z</time>
      </trkpt>
      <trkpt lat="41.8790330" lon="-8.8366550">
        <ele>2.8</ele>
        <time>2021-05-18T14:51:22Z</time>
      </trkpt>
      <trkpt lat="41.8790450" lon="-8.8366960">
        <ele>2.8</ele>
        <time>2021-05-18T14:51:23Z</time>
      </trkpt>
      <trkpt lat="41.8790490" lon="-8.8367060">
        <ele>2.8</ele>
        <time>2021-05-18T14:51:24Z</time>
      </trkpt>
      <trkpt lat="41.8790570" lon="-8.8367220">
        <ele>2.8</ele>
        <time>2021-05-18T14:51:25Z</time>
      </trkpt>
      <trkpt lat="41.8790640" lon="-8.8367270">
        <ele>2.8</ele>
        <time>2021-05-18T14:51:26Z</time>
      </trkpt>
      <trkpt lat="41.8790690" lon="-8.8367340">
        <ele>2.8</ele>
        <time>2021-05-18T14:51:27Z</time>
      </trkpt>
      <trkpt lat="41.8790830" lon="-8.8367550">
        <ele>2.8</ele>
        <time>2021-05-18T14:51:28Z</time>
      </trkpt>
      <trkpt lat="41.8790830" lon="-8.8367670">
        <ele>2.8</ele>
        <time>2021-05-18T14:51:29Z</time>
      </trkpt>
      <trkpt lat="41.8790840" lon="-8.8367790">
        <ele>2.8</ele>
        <time>2021-05-18T14:51:30Z</time>
      </trkpt>
      <trkpt lat="41.8790730" lon="-8.8367920">
        <ele>2.8</ele>
        <time>2021-05-18T14:51:31Z</time>
      </trkpt>
      <trkpt lat="41.8790720" lon="-8.8368030">
        <ele>2.8</ele>
        <time>2021-05-18T14:51:32Z</time>
      </trkpt>
      <trkpt lat="41.8790660" lon="-8.8368180">
        <ele>2.8</ele>
        <time>2021-05-18T14:51:33Z</time>
      </trkpt>
      <trkpt lat="41.8790570" lon="-8.8368310">
        <ele>2.8</ele>
        <time>2021-05-18T14:51:34Z</time>
      </trkpt>
      <trkpt lat="41.8790460" lon="-8.8368510">
        <ele>2.8</ele>
        <time>2021-05-18T14:51:35Z</time>
      </trkpt>
      <trkpt lat="41.8790370" lon="-8.8368730">
        <ele>2.8</ele>
        <time>2021-05-18T14:51:36Z</time>
      </trkpt>
      <trkpt lat="41.8790320" lon="-8.8368850">
        <ele>2.8</ele>
        <time>2021-05-18T14:51:37Z</time>
      </trkpt>
      <trkpt lat="41.8790290" lon="-8.8368950">
        <ele>2.8</ele>
        <time>2021-05-18T14:51:38Z</time>
      </trkpt>
      <trkpt lat="41.8790280" lon="-8.8368950">
        <ele>2.8</ele>
        <time>2021-05-18T14:51:39Z</time>
      </trkpt>
      <trkpt lat="41.8790280" lon="-8.8368960">
        <ele>2.8</ele>
        <time>2021-05-18T14:51:40Z</time>
      </trkpt>
      <trkpt lat="41.8790280" lon="-8.8368970">
        <ele>2.8</ele>
        <time>2021-05-18T14:51:41Z</time>
      </trkpt>
      <trkpt lat="41.8790280" lon="-8.8368970">
        <ele>2.8</ele>
        <time>2021-05-18T14:51:42Z</time>
      </trkpt>
      <trkpt lat="41.8790270" lon="-8.8368980">
        <ele>2.8</ele>
        <time>2021-05-18T14:51:43Z</time>
      </trkpt>
      <trkpt lat="41.8790270" lon="-8.8368990">
        <ele>2.8</ele>
        <time>2021-05-18T14:51:44Z</time>
      </trkpt>
      <trkpt lat="41.8790270" lon="-8.8368990">
        <ele>2.8</ele>
        <time>2021-05-18T14:51:45Z</time>
      </trkpt>
      <trkpt lat="41.8790260" lon="-8.8369000">
        <ele>2.8</ele>
        <time>2021-05-18T14:51:46Z</time>
      </trkpt>
      <trkpt lat="41.8790260" lon="-8.8369010">
        <ele>2.8</ele>
        <time>2021-05-18T14:51:47Z</time>
      </trkpt>
      <trkpt lat="41.8790260" lon="-8.8369010">
        <ele>2.8</ele>
        <time>2021-05-18T14:51:48Z</time>
      </trkpt>
      <trkpt lat="41.8790260" lon="-8.8369020">
        <ele>2.8</ele>
        <time>2021-05-18T14:51:49Z</time>
      </trkpt>
      <trkpt lat="41.8790250" lon="-8.8369030">
        <ele>2.8</ele>
        <time>2021-05-18T14:51:50Z</time>
      </trkpt>
      <trkpt lat="41.8790250" lon="-8.8369030">
        <ele>2.8</ele>
        <time>2021-05-18T14:51:51Z</time>
      </trkpt>
      <trkpt lat="41.8790250" lon="-8.8369040">
        <ele>2.8</ele>
        <time>2021-05-18T14:51:52Z</time>
      </trkpt>
      <trkpt lat="41.8790240" lon="-8.8369050">
        <ele>2.8</ele>
        <time>2021-05-18T14:51:53Z</time>
      </trkpt>
      <trkpt lat="41.8790240" lon="-8.8369050">
        <ele>2.8</ele>
        <time>2021-05-18T14:51:54Z</time>
      </trkpt>
      <trkpt lat="41.8790240" lon="-8.8369060">
        <ele>2.8</ele>
        <time>2021-05-18T14:51:55Z</time>
      </trkpt>
      <trkpt lat="41.8790240" lon="-8.8369070">
        <ele>2.8</ele>
        <time>2021-05-18T14:51:56Z</time>
      </trkpt>
      <trkpt lat="41.8790230" lon="-8.8369070">
        <ele>2.8</ele>
        <time>2021-05-18T14:51:57Z</time>
      </trkpt>
      <trkpt lat="41.8790230" lon="-8.8369080">
        <ele>2.8</ele>
        <time>2021-05-18T14:51:58Z</time>
      </trkpt>
      <trkpt lat="41.8790230" lon="-8.8369090">
        <ele>2.8</ele>
        <time>2021-05-18T14:51:59Z</time>
      </trkpt>
      <trkpt lat="41.8790220" lon="-8.8369090">
        <ele>2.8</ele>
        <time>2021-05-18T14:52:00Z</time>
      </trkpt>
      <trkpt lat="41.8790220" lon="-8.8369100">
        <ele>2.8</ele>
        <time>2021-05-18T14:52:01Z</time>
      </trkpt>
      <trkpt lat="41.8790220" lon="-8.8369110">
        <ele>2.8</ele>
        <time>2021-05-18T14:52:02Z</time>
      </trkpt>
      <trkpt lat="41.8790220" lon="-8.8369110">
        <ele>2.8</ele>
        <time>2021-05-18T14:52:03Z</time>
      </trkpt>
      <trkpt lat="41.8790210" lon="-8.8369120">
        <ele>2.8</ele>
        <time>2021-05-18T14:52:04Z</time>
      </trkpt>
      <trkpt lat="41.8790210" lon="-8.8369130">
        <ele>2.8</ele>
        <time>2021-05-18T14:52:05Z</time>
      </trkpt>
      <trkpt lat="41.8790210" lon="-8.8369130">
        <ele>2.8</ele>
        <time>2021-05-18T14:52:06Z</time>
      </trkpt>
      <trkpt lat="41.8790210" lon="-8.8369140">
        <ele>2.8</ele>
        <time>2021-05-18T14:52:07Z</time>
      </trkpt>
      <trkpt lat="41.8790200" lon="-8.8369150">
        <ele>2.8</ele>
        <time>2021-05-18T14:52:08Z</time>
      </trkpt>
      <trkpt lat="41.8790200" lon="-8.8369150">
        <ele>2.8</ele>
        <time>2021-05-18T14:52:09Z</time>
      </trkpt>
      <trkpt lat="41.8790200" lon="-8.8369160">
        <ele>2.8</ele>
        <time>2021-05-18T14:52:10Z</time>
      </trkpt>
      <trkpt lat="41.8790190" lon="-8.8369170">
        <ele>2.8</ele>
        <time>2021-05-18T14:52:11Z</time>
      </trkpt>
      <trkpt lat="41.8790190" lon="-8.8369170">
        <ele>2.8</ele>
        <time>2021-05-18T14:52:12Z</time>
      </trkpt>
      <trkpt lat="41.8790190" lon="-8.8369180">
        <ele>2.8</ele>
        <time>2021-05-18T14:52:13Z</time>
      </trkpt>
      <trkpt lat="41.8790190" lon="-8.8369190">
        <ele>2.8</ele>
        <time>2021-05-18T14:52:14Z</time>
      </trkpt>
      <trkpt lat="41.8790180" lon="-8.8369190">
        <ele>2.8</ele>
        <time>2021-05-18T14:52:15Z</time>
      </trkpt>
      <trkpt lat="41.8790180" lon="-8.8369200">
        <ele>2.8</ele>
        <time>2021-05-18T14:52:16Z</time>
      </trkpt>
      <trkpt lat="41.8790180" lon="-8.8369210">
        <ele>2.8</ele>
        <time>2021-05-18T14:52:17Z</time>
      </trkpt>
      <trkpt lat="41.8790170" lon="-8.8369210">
        <ele>2.8</ele>
        <time>2021-05-18T14:52:18Z</time>
      </trkpt>
      <trkpt lat="41.8790170" lon="-8.8369220">
        <ele>2.8</ele>
        <time>2021-05-18T14:52:19Z</time>
      </trkpt>
      <trkpt lat="41.8790170" lon="-8.8369230">
        <ele>2.8</ele>
        <time>2021-05-18T14:52:20Z</time>
      </trkpt>
      <trkpt lat="41.8790170" lon="-8.8369230">
        <ele>2.8</ele>
        <time>2021-05-18T14:52:21Z</time>
      </trkpt>
      <trkpt lat="41.8790160" lon="-8.8369240">
        <ele>2.8</ele>
        <time>2021-05-18T14:52:22Z</time>
      </trkpt>
      <trkpt lat="41.8790160" lon="-8.8369250">
        <ele>2.8</ele>
        <time>2021-05-18T14:52:23Z</time>
      </trkpt>
      <trkpt lat="41.8790160" lon="-8.8369250">
        <ele>2.8</ele>
        <time>2021-05-18T14:52:24Z</time>
      </trkpt>
      <trkpt lat="41.8790150" lon="-8.8369260">
        <ele>2.8</ele>
        <time>2021-05-18T14:52:25Z</time>
      </trkpt>
      <trkpt lat="41.8790150" lon="-8.8369270">
        <ele>2.8</ele>
        <time>2021-05-18T14:52:26Z</time>
      </trkpt>
      <trkpt lat="41.8790150" lon="-8.8369270">
        <ele>2.8</ele>
        <time>2021-05-18T14:52:27Z</time>
      </trkpt>
      <trkpt lat="41.8790150" lon="-8.8369280">
        <ele>2.8</ele>
        <time>2021-05-18T14:52:28Z</time>
      </trkpt>
      <trkpt lat="41.8790140" lon="-8.8369290">
        <ele>2.8</ele>
        <time>2021-05-18T14:52:29Z</time>
      </trkpt>
      <trkpt lat="41.8790140" lon="-8.8369290">
        <ele>2.8</ele>
        <time>2021-05-18T14:52:30Z</time>
      </trkpt>
      <trkpt lat="41.8790140" lon="-8.8369300">
        <ele>2.8</ele>
        <time>2021-05-18T14:52:31Z</time>
      </trkpt>
      <trkpt lat="41.8790130" lon="-8.8369310">
        <ele>2.8</ele>
        <time>2021-05-18T14:52:32Z</time>
      </trkpt>
      <trkpt lat="41.8790130" lon="-8.8369310">
        <ele>2.8</ele>
        <time>2021-05-18T14:52:33Z</time>
      </trkpt>
      <trkpt lat="41.8790130" lon="-8.8369320">
        <ele>2.8</ele>
        <time>2021-05-18T14:52:34Z</time>
      </trkpt>
      <trkpt lat="41.8790130" lon="-8.8369330">
        <ele>2.8</ele>
        <time>2021-05-18T14:52:35Z</time>
      </trkpt>
      <trkpt lat="41.8790120" lon="-8.8369330">
        <ele>2.8</ele>
        <time>2021-05-18T14:52:36Z</time>
      </trkpt>
      <trkpt lat="41.8790120" lon="-8.8369340">
        <ele>2.8</ele>
        <time>2021-05-18T14:52:37Z</time>
      </trkpt>
      <trkpt lat="41.8790060" lon="-8.8369310">
        <ele>2.8</ele>
        <time>2021-05-18T14:52:38Z</time>
      </trkpt>
      <trkpt lat="41.8790070" lon="-8.8369320">
        <ele>2.8</ele>
        <time>2021-05-18T14:52:39Z</time>
      </trkpt>
      <trkpt lat="41.8790030" lon="-8.8369340">
        <ele>2.8</ele>
        <time>2021-05-18T14:52:40Z</time>
      </trkpt>
      <trkpt lat="41.8790050" lon="-8.8369330">
        <ele>2.8</ele>
        <time>2021-05-18T14:52:41Z</time>
      </trkpt>
      <trkpt lat="41.8790050" lon="-8.8369340">
        <ele>2.8</ele>
        <time>2021-05-18T14:52:42Z</time>
      </trkpt>
      <trkpt lat="41.8790020" lon="-8.8369350">
        <ele>2.8</ele>
        <time>2021-05-18T14:52:43Z</time>
      </trkpt>
      <trkpt lat="41.8790050" lon="-8.8369380">
        <ele>2.8</ele>
        <time>2021-05-18T14:52:44Z</time>
      </trkpt>
      <trkpt lat="41.8790090" lon="-8.8369460">
        <ele>2.8</ele>
        <time>2021-05-18T14:52:45Z</time>
      </trkpt>
      <trkpt lat="41.8790030" lon="-8.8369550">
        <ele>2.8</ele>
        <time>2021-05-18T14:52:46Z</time>
      </trkpt>
      <trkpt lat="41.8790130" lon="-8.8369580">
        <ele>2.8</ele>
        <time>2021-05-18T14:52:47Z</time>
      </trkpt>
      <trkpt lat="41.8790110" lon="-8.8369570">
        <ele>2.8</ele>
        <time>2021-05-18T14:52:48Z</time>
      </trkpt>
      <trkpt lat="41.8790080" lon="-8.8369520">
        <ele>2.8</ele>
        <time>2021-05-18T14:52:49Z</time>
      </trkpt>
      <trkpt lat="41.8790060" lon="-8.8369540">
        <ele>2.8</ele>
        <time>2021-05-18T14:52:50Z</time>
      </trkpt>
      <trkpt lat="41.8790120" lon="-8.8369570">
        <ele>2.8</ele>
        <time>2021-05-18T14:52:51Z</time>
      </trkpt>
      <trkpt lat="41.8790120" lon="-8.8369590">
        <ele>2.8</ele>
        <time>2021-05-18T14:52:52Z</time>
      </trkpt>
      <trkpt lat="41.8790100" lon="-8.8369590">
        <ele>2.8</ele>
        <time>2021-05-18T14:52:53Z</time>
      </trkpt>
      <trkpt lat="41.8790070" lon="-8.8369600">
        <ele>2.8</ele>
        <time>2021-05-18T14:52:54Z</time>
      </trkpt>
      <trkpt lat="41.8790060" lon="-8.8369590">
        <ele>2.8</ele>
        <time>2021-05-18T14:52:55Z</time>
      </trkpt>
      <trkpt lat="41.8790050" lon="-8.8369550">
        <ele>2.8</ele>
        <time>2021-05-18T14:52:56Z</time>
      </trkpt>
      <trkpt lat="41.8790060" lon="-8.8369500">
        <ele>2.8</ele>
        <time>2021-05-18T14:52:57Z</time>
      </trkpt>
      <trkpt lat="41.8790060" lon="-8.8369460">
        <ele>2.8</ele>
        <time>2021-05-18T14:52:58Z</time>
      </trkpt>
      <trkpt lat="41.8790080" lon="-8.8369530">
        <ele>2.8</ele>
        <time>2021-05-18T14:52:59Z</time>
      </trkpt>
      <trkpt lat="41.8790080" lon="-8.8369580">
        <ele>2.8</ele>
        <time>2021-05-18T14:53:00Z</time>
      </trkpt>
      <trkpt lat="41.8790070" lon="-8.8369690">
        <ele>2.8</ele>
        <time>2021-05-18T14:53:01Z</time>
      </trkpt>
      <trkpt lat="41.8790080" lon="-8.8369770">
        <ele>2.8</ele>
        <time>2021-05-18T14:53:02Z</time>
      </trkpt>
      <trkpt lat="41.8790090" lon="-8.8369780">
        <ele>2.8</ele>
        <time>2021-05-18T14:53:03Z</time>
      </trkpt>
      <trkpt lat="41.8790090" lon="-8.8369780">
        <ele>2.8</ele>
        <time>2021-05-18T14:53:04Z</time>
      </trkpt>
      <trkpt lat="41.8790090" lon="-8.8369780">
        <ele>2.8</ele>
        <time>2021-05-18T14:53:05Z</time>
      </trkpt>
      <trkpt lat="41.8790040" lon="-8.8369920">
        <ele>2.8</ele>
        <time>2021-05-18T14:53:06Z</time>
      </trkpt>
      <trkpt lat="41.8790050" lon="-8.8369850">
        <ele>2.8</ele>
        <time>2021-05-18T14:53:07Z</time>
      </trkpt>
      <trkpt lat="41.8790060" lon="-8.8369840">
        <ele>2.8</ele>
        <time>2021-05-18T14:53:08Z</time>
      </trkpt>
      <trkpt lat="41.8790080" lon="-8.8369810">
        <ele>2.8</ele>
        <time>2021-05-18T14:53:09Z</time>
      </trkpt>
      <trkpt lat="41.8790110" lon="-8.8369770">
        <ele>2.8</ele>
        <time>2021-05-18T14:53:10Z</time>
      </trkpt>
      <trkpt lat="41.8790060" lon="-8.8369680">
        <ele>2.8</ele>
        <time>2021-05-18T14:53:11Z</time>
      </trkpt>
      <trkpt lat="41.8790110" lon="-8.8369750">
        <ele>2.8</ele>
        <time>2021-05-18T14:53:12Z</time>
      </trkpt>
      <trkpt lat="41.8790110" lon="-8.8369750">
        <ele>2.8</ele>
        <time>2021-05-18T14:53:13Z</time>
      </trkpt>
      <trkpt lat="41.8790110" lon="-8.8369750">
        <ele>2.8</ele>
        <time>2021-05-18T14:53:14Z</time>
      </trkpt>
      <trkpt lat="41.8790110" lon="-8.8369750">
        <ele>2.8</ele>
        <time>2021-05-18T14:53:15Z</time>
      </trkpt>
      <trkpt lat="41.8790130" lon="-8.8369300">
        <ele>2.8</ele>
        <time>2021-05-18T14:53:16Z</time>
      </trkpt>
      <trkpt lat="41.8790130" lon="-8.8369350">
        <ele>2.8</ele>
        <time>2021-05-18T14:53:17Z</time>
      </trkpt>
      <trkpt lat="41.8790130" lon="-8.8369330">
        <ele>2.8</ele>
        <time>2021-05-18T14:53:18Z</time>
      </trkpt>
      <trkpt lat="41.8790160" lon="-8.8369350">
        <ele>2.8</ele>
        <time>2021-05-18T14:53:19Z</time>
      </trkpt>
      <trkpt lat="41.8790200" lon="-8.8369430">
        <ele>2.8</ele>
        <time>2021-05-18T14:53:20Z</time>
      </trkpt>
      <trkpt lat="41.8790190" lon="-8.8369430">
        <ele>2.8</ele>
        <time>2021-05-18T14:53:21Z</time>
      </trkpt>
      <trkpt lat="41.8790160" lon="-8.8369420">
        <ele>2.8</ele>
        <time>2021-05-18T14:53:22Z</time>
      </trkpt>
      <trkpt lat="41.8790160" lon="-8.8369350">
        <ele>2.8</ele>
        <time>2021-05-18T14:53:23Z</time>
      </trkpt>
      <trkpt lat="41.8790150" lon="-8.8369300">
        <ele>2.8</ele>
        <time>2021-05-18T14:53:24Z</time>
      </trkpt>
      <trkpt lat="41.8790170" lon="-8.8369330">
        <ele>2.8</ele>
        <time>2021-05-18T14:53:25Z</time>
      </trkpt>
      <trkpt lat="41.8790210" lon="-8.8369380">
        <ele>2.8</ele>
        <time>2021-05-18T14:53:26Z</time>
      </trkpt>
      <trkpt lat="41.8790230" lon="-8.8369360">
        <ele>2.8</ele>
        <time>2021-05-18T14:53:27Z</time>
      </trkpt>
      <trkpt lat="41.8790250" lon="-8.8369390">
        <ele>2.8</ele>
        <time>2021-05-18T14:53:28Z</time>
      </trkpt>
      <trkpt lat="41.8790260" lon="-8.8369400">
        <ele>2.8</ele>
        <time>2021-05-18T14:53:29Z</time>
      </trkpt>
      <trkpt lat="41.8790240" lon="-8.8369370">
        <ele>2.8</ele>
        <time>2021-05-18T14:53:30Z</time>
      </trkpt>
      <trkpt lat="41.8790250" lon="-8.8369390">
        <ele>2.8</ele>
        <time>2021-05-18T14:53:31Z</time>
      </trkpt>
      <trkpt lat="41.8790280" lon="-8.8369450">
        <ele>2.8</ele>
        <time>2021-05-18T14:53:32Z</time>
      </trkpt>
      <trkpt lat="41.8790290" lon="-8.8369460">
        <ele>2.8</ele>
        <time>2021-05-18T14:53:33Z</time>
      </trkpt>
      <trkpt lat="41.8790290" lon="-8.8369450">
        <ele>2.8</ele>
        <time>2021-05-18T14:53:34Z</time>
      </trkpt>
      <trkpt lat="41.8790280" lon="-8.8369470">
        <ele>2.8</ele>
        <time>2021-05-18T14:53:35Z</time>
      </trkpt>
      <trkpt lat="41.8790280" lon="-8.8369450">
        <ele>2.8</ele>
        <time>2021-05-18T14:53:36Z</time>
      </trkpt>
      <trkpt lat="41.8790220" lon="-8.8369380">
        <ele>2.8</ele>
        <time>2021-05-18T14:53:37Z</time>
      </trkpt>
      <trkpt lat="41.8790210" lon="-8.8369410">
        <ele>2.8</ele>
        <time>2021-05-18T14:53:38Z</time>
      </trkpt>
      <trkpt lat="41.8790210" lon="-8.8369410">
        <ele>2.8</ele>
        <time>2021-05-18T14:53:39Z</time>
      </trkpt>
      <trkpt lat="41.8790200" lon="-8.8369410">
        <ele>2.8</ele>
        <time>2021-05-18T14:53:40Z</time>
      </trkpt>
      <trkpt lat="41.8790200" lon="-8.8369410">
        <ele>2.8</ele>
        <time>2021-05-18T14:53:41Z</time>
      </trkpt>
      <trkpt lat="41.8790170" lon="-8.8369510">
        <ele>2.8</ele>
        <time>2021-05-18T14:53:42Z</time>
      </trkpt>
      <trkpt lat="41.8790160" lon="-8.8369510">
        <ele>2.8</ele>
        <time>2021-05-18T14:53:43Z</time>
      </trkpt>
      <trkpt lat="41.8790150" lon="-8.8369510">
        <ele>2.8</ele>
        <time>2021-05-18T14:53:44Z</time>
      </trkpt>
      <trkpt lat="41.8790160" lon="-8.8369460">
        <ele>2.8</ele>
        <time>2021-05-18T14:53:45Z</time>
      </trkpt>
      <trkpt lat="41.8790160" lon="-8.8369450">
        <ele>2.8</ele>
        <time>2021-05-18T14:53:46Z</time>
      </trkpt>
      <trkpt lat="41.8790180" lon="-8.8369480">
        <ele>2.8</ele>
        <time>2021-05-18T14:53:47Z</time>
      </trkpt>
      <trkpt lat="41.8790200" lon="-8.8369480">
        <ele>2.8</ele>
        <time>2021-05-18T14:53:48Z</time>
      </trkpt>
      <trkpt lat="41.8790230" lon="-8.8369430">
        <ele>2.8</ele>
        <time>2021-05-18T14:53:49Z</time>
      </trkpt>
      <trkpt lat="41.8790260" lon="-8.8369290">
        <ele>2.8</ele>
        <time>2021-05-18T14:53:50Z</time>
      </trkpt>
      <trkpt lat="41.8790230" lon="-8.8369290">
        <ele>2.8</ele>
        <time>2021-05-18T14:53:51Z</time>
      </trkpt>
      <trkpt lat="41.8790170" lon="-8.8369230">
        <ele>2.8</ele>
        <time>2021-05-18T14:53:52Z</time>
      </trkpt>
      <trkpt lat="41.8790090" lon="-8.8369340">
        <ele>2.8</ele>
        <time>2021-05-18T14:53:53Z</time>
      </trkpt>
      <trkpt lat="41.8790160" lon="-8.8369350">
        <ele>2.8</ele>
        <time>2021-05-18T14:53:54Z</time>
      </trkpt>
      <trkpt lat="41.8790190" lon="-8.8369330">
        <ele>2.8</ele>
        <time>2021-05-18T14:53:55Z</time>
      </trkpt>
      <trkpt lat="41.8790070" lon="-8.8369270">
        <ele>2.8</ele>
        <time>2021-05-18T14:53:56Z</time>
      </trkpt>
      <trkpt lat="41.8790060" lon="-8.8369310">
        <ele>2.8</ele>
        <time>2021-05-18T14:53:57Z</time>
      </trkpt>
      <trkpt lat="41.8790060" lon="-8.8369370">
        <ele>2.8</ele>
        <time>2021-05-18T14:53:58Z</time>
      </trkpt>
      <trkpt lat="41.8790020" lon="-8.8369330">
        <ele>2.8</ele>
        <time>2021-05-18T14:53:59Z</time>
      </trkpt>
      <trkpt lat="41.8789970" lon="-8.8369310">
        <ele>2.8</ele>
        <time>2021-05-18T14:54:00Z</time>
      </trkpt>
      <trkpt lat="41.8789990" lon="-8.8369290">
        <ele>2.8</ele>
        <time>2021-05-18T14:54:01Z</time>
      </trkpt>
      <trkpt lat="41.8789970" lon="-8.8369320">
        <ele>2.8</ele>
        <time>2021-05-18T14:54:02Z</time>
      </trkpt>
      <trkpt lat="41.8789930" lon="-8.8369310">
        <ele>2.8</ele>
        <time>2021-05-18T14:54:03Z</time>
      </trkpt>
      <trkpt lat="41.8789960" lon="-8.8369310">
        <ele>2.8</ele>
        <time>2021-05-18T14:54:04Z</time>
      </trkpt>
      <trkpt lat="41.8789990" lon="-8.8369300">
        <ele>2.8</ele>
        <time>2021-05-18T14:54:05Z</time>
      </trkpt>
      <trkpt lat="41.8790010" lon="-8.8369270">
        <ele>2.8</ele>
        <time>2021-05-18T14:54:06Z</time>
      </trkpt>
      <trkpt lat="41.8790080" lon="-8.8369190">
        <ele>2.8</ele>
        <time>2021-05-18T14:54:07Z</time>
      </trkpt>
      <trkpt lat="41.8790060" lon="-8.8369260">
        <ele>2.8</ele>
        <time>2021-05-18T14:54:08Z</time>
      </trkpt>
      <trkpt lat="41.8790050" lon="-8.8369330">
        <ele>2.8</ele>
        <time>2021-05-18T14:54:09Z</time>
      </trkpt>
      <trkpt lat="41.8790050" lon="-8.8369370">
        <ele>2.8</ele>
        <time>2021-05-18T14:54:10Z</time>
      </trkpt>
      <trkpt lat="41.8790000" lon="-8.8369370">
        <ele>2.8</ele>
        <time>2021-05-18T14:54:11Z</time>
      </trkpt>
      <trkpt lat="41.8789990" lon="-8.8369280">
        <ele>2.8</ele>
        <time>2021-05-18T14:54:12Z</time>
      </trkpt>
      <trkpt lat="41.8789980" lon="-8.8369330">
        <ele>2.8</ele>
        <time>2021-05-18T14:54:13Z</time>
      </trkpt>
      <trkpt lat="41.8789970" lon="-8.8369370">
        <ele>2.8</ele>
        <time>2021-05-18T14:54:14Z</time>
      </trkpt>
      <trkpt lat="41.8789950" lon="-8.8369380">
        <ele>2.8</ele>
        <time>2021-05-18T14:54:15Z</time>
      </trkpt>
      <trkpt lat="41.8789960" lon="-8.8369430">
        <ele>2.8</ele>
        <time>2021-05-18T14:54:16Z</time>
      </trkpt>
      <trkpt lat="41.8789950" lon="-8.8369510">
        <ele>2.8</ele>
        <time>2021-05-18T14:54:17Z</time>
      </trkpt>
      <trkpt lat="41.8789930" lon="-8.8369560">
        <ele>2.8</ele>
        <time>2021-05-18T14:54:18Z</time>
      </trkpt>
      <trkpt lat="41.8789930" lon="-8.8369560">
        <ele>2.8</ele>
        <time>2021-05-18T14:54:19Z</time>
      </trkpt>
      <trkpt lat="41.8789930" lon="-8.8369550">
        <ele>2.8</ele>
        <time>2021-05-18T14:54:20Z</time>
      </trkpt>
      <trkpt lat="41.8789930" lon="-8.8369540">
        <ele>2.8</ele>
        <time>2021-05-18T14:54:21Z</time>
      </trkpt>
      <trkpt lat="41.8789980" lon="-8.8369540">
        <ele>2.8</ele>
        <time>2021-05-18T14:54:22Z</time>
      </trkpt>
      <trkpt lat="41.8789940" lon="-8.8369630">
        <ele>2.8</ele>
        <time>2021-05-18T14:54:23Z</time>
      </trkpt>
      <trkpt lat="41.8789950" lon="-8.8369600">
        <ele>2.8</ele>
        <time>2021-05-18T14:54:24Z</time>
      </trkpt>
      <trkpt lat="41.8789950" lon="-8.8369600">
        <ele>2.8</ele>
        <time>2021-05-18T14:54:25Z</time>
      </trkpt>
      <trkpt lat="41.8789950" lon="-8.8369600">
        <ele>2.8</ele>
        <time>2021-05-18T14:54:26Z</time>
      </trkpt>
      <trkpt lat="41.8789950" lon="-8.8369600">
        <ele>2.8</ele>
        <time>2021-05-18T14:54:27Z</time>
      </trkpt>
      <trkpt lat="41.8789950" lon="-8.8369600">
        <ele>2.8</ele>
        <time>2021-05-18T14:54:28Z</time>
      </trkpt>
      <trkpt lat="41.8789950" lon="-8.8369590">
        <ele>2.8</ele>
        <time>2021-05-18T14:54:29Z</time>
      </trkpt>
      <trkpt lat="41.8789950" lon="-8.8369590">
        <ele>2.8</ele>
        <time>2021-05-18T14:54:30Z</time>
      </trkpt>
      <trkpt lat="41.8789950" lon="-8.8369590">
        <ele>2.8</ele>
        <time>2021-05-18T14:54:31Z</time>
      </trkpt>
      <trkpt lat="41.8789950" lon="-8.8369590">
        <ele>2.8</ele>
        <time>2021-05-18T14:54:32Z</time>
      </trkpt>
      <trkpt lat="41.8789950" lon="-8.8369590">
        <ele>2.8</ele>
        <time>2021-05-18T14:54:33Z</time>
      </trkpt>
      <trkpt lat="41.8789950" lon="-8.8369590">
        <ele>2.8</ele>
        <time>2021-05-18T14:54:34Z</time>
      </trkpt>
      <trkpt lat="41.8789940" lon="-8.8369590">
        <ele>2.8</ele>
        <time>2021-05-18T14:54:35Z</time>
      </trkpt>
      <trkpt lat="41.8789940" lon="-8.8369590">
        <ele>2.8</ele>
        <time>2021-05-18T14:54:36Z</time>
      </trkpt>
      <trkpt lat="41.8789940" lon="-8.8369590">
        <ele>2.8</ele>
        <time>2021-05-18T14:54:37Z</time>
      </trkpt>
      <trkpt lat="41.8789940" lon="-8.8369590">
        <ele>2.8</ele>
        <time>2021-05-18T14:54:38Z</time>
      </trkpt>
      <trkpt lat="41.8789940" lon="-8.8369590">
        <ele>2.8</ele>
        <time>2021-05-18T14:54:39Z</time>
      </trkpt>
      <trkpt lat="41.8789940" lon="-8.8369580">
        <ele>2.8</ele>
        <time>2021-05-18T14:54:40Z</time>
      </trkpt>
      <trkpt lat="41.8789940" lon="-8.8369580">
        <ele>2.8</ele>
        <time>2021-05-18T14:54:41Z</time>
      </trkpt>
      <trkpt lat="41.8789940" lon="-8.8369580">
        <ele>2.8</ele>
        <time>2021-05-18T14:54:42Z</time>
      </trkpt>
      <trkpt lat="41.8789940" lon="-8.8369580">
        <ele>2.8</ele>
        <time>2021-05-18T14:54:43Z</time>
      </trkpt>
      <trkpt lat="41.8789940" lon="-8.8369580">
        <ele>2.8</ele>
        <time>2021-05-18T14:54:44Z</time>
      </trkpt>
      <trkpt lat="41.8789940" lon="-8.8369580">
        <ele>2.8</ele>
        <time>2021-05-18T14:54:45Z</time>
      </trkpt>
      <trkpt lat="41.8789940" lon="-8.8369580">
        <ele>2.8</ele>
        <time>2021-05-18T14:54:46Z</time>
      </trkpt>
      <trkpt lat="41.8789940" lon="-8.8369580">
        <ele>2.8</ele>
        <time>2021-05-18T14:54:47Z</time>
      </trkpt>
      <trkpt lat="41.8789940" lon="-8.8369580">
        <ele>2.8</ele>
        <time>2021-05-18T14:54:48Z</time>
      </trkpt>
      <trkpt lat="41.8789940" lon="-8.8369580">
        <ele>2.8</ele>
        <time>2021-05-18T14:54:49Z</time>
      </trkpt>
      <trkpt lat="41.8789940" lon="-8.8369580">
        <ele>2.8</ele>
        <time>2021-05-18T14:54:50Z</time>
      </trkpt>
      <trkpt lat="41.8789940" lon="-8.8369580">
        <ele>2.8</ele>
        <time>2021-05-18T14:54:51Z</time>
      </trkpt>
      <trkpt lat="41.8789940" lon="-8.8369570">
        <ele>2.8</ele>
        <time>2021-05-18T14:54:52Z</time>
      </trkpt>
      <trkpt lat="41.8789940" lon="-8.8369570">
        <ele>2.8</ele>
        <time>2021-05-18T14:54:53Z</time>
      </trkpt>
      <trkpt lat="41.8789940" lon="-8.8369570">
        <ele>2.8</ele>
        <time>2021-05-18T14:54:54Z</time>
      </trkpt>
      <trkpt lat="41.8789940" lon="-8.8369570">
        <ele>2.8</ele>
        <time>2021-05-18T14:54:55Z</time>
      </trkpt>
      <trkpt lat="41.8789940" lon="-8.8369570">
        <ele>2.8</ele>
        <time>2021-05-18T14:54:56Z</time>
      </trkpt>
      <trkpt lat="41.8789930" lon="-8.8369570">
        <ele>2.8</ele>
        <time>2021-05-18T14:54:57Z</time>
      </trkpt>
      <trkpt lat="41.8789930" lon="-8.8369570">
        <ele>2.8</ele>
        <time>2021-05-18T14:54:58Z</time>
      </trkpt>
      <trkpt lat="41.8789930" lon="-8.8369570">
        <ele>2.8</ele>
        <time>2021-05-18T14:54:59Z</time>
      </trkpt>
      <trkpt lat="41.8789930" lon="-8.8369570">
        <ele>2.8</ele>
        <time>2021-05-18T14:55:00Z</time>
      </trkpt>
      <trkpt lat="41.8789930" lon="-8.8369570">
        <ele>2.8</ele>
        <time>2021-05-18T14:55:01Z</time>
      </trkpt>
      <trkpt lat="41.8789930" lon="-8.8369570">
        <ele>2.8</ele>
        <time>2021-05-18T14:55:02Z</time>
      </trkpt>
      <trkpt lat="41.8789930" lon="-8.8369560">
        <ele>2.8</ele>
        <time>2021-05-18T14:55:03Z</time>
      </trkpt>
      <trkpt lat="41.8789930" lon="-8.8369560">
        <ele>2.8</ele>
        <time>2021-05-18T14:55:04Z</time>
      </trkpt>
      <trkpt lat="41.8789930" lon="-8.8369560">
        <ele>2.8</ele>
        <time>2021-05-18T14:55:05Z</time>
      </trkpt>
      <trkpt lat="41.8789930" lon="-8.8369560">
        <ele>2.8</ele>
        <time>2021-05-18T14:55:06Z</time>
      </trkpt>
      <trkpt lat="41.8789930" lon="-8.8369560">
        <ele>2.8</ele>
        <time>2021-05-18T14:55:07Z</time>
      </trkpt>
      <trkpt lat="41.8789930" lon="-8.8369560">
        <ele>2.8</ele>
        <time>2021-05-18T14:55:08Z</time>
      </trkpt>
      <trkpt lat="41.8789930" lon="-8.8369560">
        <ele>2.8</ele>
        <time>2021-05-18T14:55:09Z</time>
      </trkpt>
      <trkpt lat="41.8789930" lon="-8.8369560">
        <ele>2.8</ele>
        <time>2021-05-18T14:55:10Z</time>
      </trkpt>
      <trkpt lat="41.8789930" lon="-8.8369560">
        <ele>2.8</ele>
        <time>2021-05-18T14:55:11Z</time>
      </trkpt>
      <trkpt lat="41.8789930" lon="-8.8369560">
        <ele>2.8</ele>
        <time>2021-05-18T14:55:12Z</time>
      </trkpt>
      <trkpt lat="41.8789930" lon="-8.8369560">
        <ele>2.8</ele>
        <time>2021-05-18T14:55:13Z</time>
      </trkpt>
      <trkpt lat="41.8789930" lon="-8.8369550">
        <ele>2.8</ele>
        <time>2021-05-18T14:55:14Z</time>
      </trkpt>
      <trkpt lat="41.8789930" lon="-8.8369550">
        <ele>2.8</ele>
        <time>2021-05-18T14:55:15Z</time>
      </trkpt>
      <trkpt lat="41.8789930" lon="-8.8369550">
        <ele>2.8</ele>
        <time>2021-05-18T14:55:16Z</time>
      </trkpt>
      <trkpt lat="41.8789930" lon="-8.8369550">
        <ele>2.8</ele>
        <time>2021-05-18T14:55:17Z</time>
      </trkpt>
      <trkpt lat="41.8789930" lon="-8.8369550">
        <ele>2.8</ele>
        <time>2021-05-18T14:55:18Z</time>
      </trkpt>
      <trkpt lat="41.8789930" lon="-8.8369550">
        <ele>2.8</ele>
        <time>2021-05-18T14:55:19Z</time>
      </trkpt>
      <trkpt lat="41.8789920" lon="-8.8369550">
        <ele>2.8</ele>
        <time>2021-05-18T14:55:20Z</time>
      </trkpt>
      <trkpt lat="41.8789920" lon="-8.8369550">
        <ele>2.8</ele>
        <time>2021-05-18T14:55:21Z</time>
      </trkpt>
      <trkpt lat="41.8789920" lon="-8.8369550">
        <ele>2.8</ele>
        <time>2021-05-18T14:55:22Z</time>
      </trkpt>
      <trkpt lat="41.8789920" lon="-8.8369550">
        <ele>2.8</ele>
        <time>2021-05-18T14:55:23Z</time>
      </trkpt>
      <trkpt lat="41.8789920" lon="-8.8369550">
        <ele>2.8</ele>
        <time>2021-05-18T14:55:24Z</time>
      </trkpt>
      <trkpt lat="41.8789920" lon="-8.8369540">
        <ele>2.8</ele>
        <time>2021-05-18T14:55:25Z</time>
      </trkpt>
      <trkpt lat="41.8789920" lon="-8.8369540">
        <ele>2.8</ele>
        <time>2021-05-18T14:55:26Z</time>
      </trkpt>
      <trkpt lat="41.8789920" lon="-8.8369540">
        <ele>2.8</ele>
        <time>2021-05-18T14:55:27Z</time>
      </trkpt>
      <trkpt lat="41.8789920" lon="-8.8369540">
        <ele>2.8</ele>
        <time>2021-05-18T14:55:28Z</time>
      </trkpt>
      <trkpt lat="41.8789920" lon="-8.8369540">
        <ele>2.8</ele>
        <time>2021-05-18T14:55:29Z</time>
      </trkpt>
      <trkpt lat="41.8789920" lon="-8.8369540">
        <ele>2.8</ele>
        <time>2021-05-18T14:55:30Z</time>
      </trkpt>
      <trkpt lat="41.8789920" lon="-8.8369540">
        <ele>2.8</ele>
        <time>2021-05-18T14:55:31Z</time>
      </trkpt>
      <trkpt lat="41.8789920" lon="-8.8369540">
        <ele>2.8</ele>
        <time>2021-05-18T14:55:32Z</time>
      </trkpt>
      <trkpt lat="41.8789920" lon="-8.8369540">
        <ele>2.8</ele>
        <time>2021-05-18T14:55:33Z</time>
      </trkpt>
      <trkpt lat="41.8789920" lon="-8.8369540">
        <ele>2.8</ele>
        <time>2021-05-18T14:55:34Z</time>
      </trkpt>
      <trkpt lat="41.8789920" lon="-8.8369540">
        <ele>2.8</ele>
        <time>2021-05-18T14:55:35Z</time>
      </trkpt>
      <trkpt lat="41.8789920" lon="-8.8369530">
        <ele>2.8</ele>
        <time>2021-05-18T14:55:36Z</time>
      </trkpt>
      <trkpt lat="41.8789920" lon="-8.8369530">
        <ele>2.8</ele>
        <time>2021-05-18T14:55:37Z</time>
      </trkpt>
      <trkpt lat="41.8789920" lon="-8.8369530">
        <ele>2.8</ele>
        <time>2021-05-18T14:55:38Z</time>
      </trkpt>
      <trkpt lat="41.8789920" lon="-8.8369530">
        <ele>2.8</ele>
        <time>2021-05-18T14:55:39Z</time>
      </trkpt>
      <trkpt lat="41.8789920" lon="-8.8369530">
        <ele>2.8</ele>
        <time>2021-05-18T14:55:40Z</time>
      </trkpt>
      <trkpt lat="41.8789920" lon="-8.8369530">
        <ele>2.8</ele>
        <time>2021-05-18T14:55:41Z</time>
      </trkpt>
      <trkpt lat="41.8789910" lon="-8.8369530">
        <ele>2.8</ele>
        <time>2021-05-18T14:55:42Z</time>
      </trkpt>
      <trkpt lat="41.8789910" lon="-8.8369530">
        <ele>2.8</ele>
        <time>2021-05-18T14:55:43Z</time>
      </trkpt>
      <trkpt lat="41.8789910" lon="-8.8369530">
        <ele>2.8</ele>
        <time>2021-05-18T14:55:44Z</time>
      </trkpt>
      <trkpt lat="41.8789910" lon="-8.8369530">
        <ele>2.8</ele>
        <time>2021-05-18T14:55:45Z</time>
      </trkpt>
      <trkpt lat="41.8789910" lon="-8.8369530">
        <ele>2.8</ele>
        <time>2021-05-18T14:55:46Z</time>
      </trkpt>
      <trkpt lat="41.8789910" lon="-8.8369530">
        <ele>2.8</ele>
        <time>2021-05-18T14:55:47Z</time>
      </trkpt>
      <trkpt lat="41.8789910" lon="-8.8369520">
        <ele>2.8</ele>
        <time>2021-05-18T14:55:48Z</time>
      </trkpt>
      <trkpt lat="41.8789910" lon="-8.8369520">
        <ele>2.8</ele>
        <time>2021-05-18T14:55:49Z</time>
      </trkpt>
      <trkpt lat="41.8789910" lon="-8.8369520">
        <ele>2.8</ele>
        <time>2021-05-18T14:55:50Z</time>
      </trkpt>
      <trkpt lat="41.8789910" lon="-8.8369520">
        <ele>2.8</ele>
        <time>2021-05-18T14:55:51Z</time>
      </trkpt>
      <trkpt lat="41.8789910" lon="-8.8369520">
        <ele>2.8</ele>
        <time>2021-05-18T14:55:52Z</time>
      </trkpt>
      <trkpt lat="41.8789910" lon="-8.8369520">
        <ele>2.8</ele>
        <time>2021-05-18T14:55:53Z</time>
      </trkpt>
      <trkpt lat="41.8789910" lon="-8.8369520">
        <ele>2.8</ele>
        <time>2021-05-18T14:55:54Z</time>
      </trkpt>
      <trkpt lat="41.8789910" lon="-8.8369520">
        <ele>2.8</ele>
        <time>2021-05-18T14:55:55Z</time>
      </trkpt>
      <trkpt lat="41.8789910" lon="-8.8369520">
        <ele>2.8</ele>
        <time>2021-05-18T14:55:56Z</time>
      </trkpt>
      <trkpt lat="41.8789910" lon="-8.8369520">
        <ele>2.8</ele>
        <time>2021-05-18T14:55:57Z</time>
      </trkpt>
      <trkpt lat="41.8789910" lon="-8.8369520">
        <ele>2.8</ele>
        <time>2021-05-18T14:55:58Z</time>
      </trkpt>
      <trkpt lat="41.8789910" lon="-8.8369510">
        <ele>2.8</ele>
        <time>2021-05-18T14:55:59Z</time>
      </trkpt>
      <trkpt lat="41.8789910" lon="-8.8369510">
        <ele>2.8</ele>
        <time>2021-05-18T14:56:00Z</time>
      </trkpt>
      <trkpt lat="41.8789910" lon="-8.8369510">
        <ele>2.8</ele>
        <time>2021-05-18T14:56:01Z</time>
      </trkpt>
      <trkpt lat="41.8789910" lon="-8.8369510">
        <ele>2.8</ele>
        <time>2021-05-18T14:56:02Z</time>
      </trkpt>
      <trkpt lat="41.8789910" lon="-8.8369510">
        <ele>2.8</ele>
        <time>2021-05-18T14:56:04Z</time>
      </trkpt>
      <trkpt lat="41.8789900" lon="-8.8369510">
        <ele>2.8</ele>
        <time>2021-05-18T14:56:05Z</time>
      </trkpt>
      <trkpt lat="41.8789900" lon="-8.8369510">
        <ele>2.8</ele>
        <time>2021-05-18T14:56:06Z</time>
      </trkpt>
      <trkpt lat="41.8789900" lon="-8.8369510">
        <ele>2.8</ele>
        <time>2021-05-18T14:56:07Z</time>
      </trkpt>
      <trkpt lat="41.8789900" lon="-8.8369510">
        <ele>2.8</ele>
        <time>2021-05-18T14:56:08Z</time>
      </trkpt>
      <trkpt lat="41.8789900" lon="-8.8369510">
        <ele>2.8</ele>
        <time>2021-05-18T14:56:09Z</time>
      </trkpt>
      <trkpt lat="41.8789900" lon="-8.8369510">
        <ele>2.8</ele>
        <time>2021-05-18T14:56:10Z</time>
      </trkpt>
      <trkpt lat="41.8789900" lon="-8.8369500">
        <ele>2.8</ele>
        <time>2021-05-18T14:56:11Z</time>
      </trkpt>
      <trkpt lat="41.8789900" lon="-8.8369500">
        <ele>2.8</ele>
        <time>2021-05-18T14:56:12Z</time>
      </trkpt>
      <trkpt lat="41.8789900" lon="-8.8369500">
        <ele>2.8</ele>
        <time>2021-05-18T14:56:13Z</time>
      </trkpt>
      <trkpt lat="41.8789900" lon="-8.8369500">
        <ele>2.8</ele>
        <time>2021-05-18T14:56:14Z</time>
      </trkpt>
      <trkpt lat="41.8789900" lon="-8.8369500">
        <ele>2.8</ele>
        <time>2021-05-18T14:56:15Z</time>
      </trkpt>
      <trkpt lat="41.8789900" lon="-8.8369500">
        <ele>2.8</ele>
        <time>2021-05-18T14:56:16Z</time>
      </trkpt>
      <trkpt lat="41.8789900" lon="-8.8369500">
        <ele>2.8</ele>
        <time>2021-05-18T14:56:17Z</time>
      </trkpt>
      <trkpt lat="41.8789900" lon="-8.8369500">
        <ele>2.8</ele>
        <time>2021-05-18T14:56:18Z</time>
      </trkpt>
      <trkpt lat="41.8789900" lon="-8.8369500">
        <ele>2.8</ele>
        <time>2021-05-18T14:56:19Z</time>
      </trkpt>
      <trkpt lat="41.8789900" lon="-8.8369500">
        <ele>2.8</ele>
        <time>2021-05-18T14:56:20Z</time>
      </trkpt>
      <trkpt lat="41.8789900" lon="-8.8369500">
        <ele>2.8</ele>
        <time>2021-05-18T14:56:21Z</time>
      </trkpt>
      <trkpt lat="41.8789900" lon="-8.8369490">
        <ele>2.8</ele>
        <time>2021-05-18T14:56:22Z</time>
      </trkpt>
      <trkpt lat="41.8789900" lon="-8.8369490">
        <ele>2.8</ele>
        <time>2021-05-18T14:56:23Z</time>
      </trkpt>
      <trkpt lat="41.8789900" lon="-8.8369490">
        <ele>2.8</ele>
        <time>2021-05-18T14:56:24Z</time>
      </trkpt>
      <trkpt lat="41.8789900" lon="-8.8369490">
        <ele>2.8</ele>
        <time>2021-05-18T14:56:25Z</time>
      </trkpt>
      <trkpt lat="41.8789900" lon="-8.8369490">
        <ele>2.8</ele>
        <time>2021-05-18T14:56:26Z</time>
      </trkpt>
      <trkpt lat="41.8789900" lon="-8.8369490">
        <ele>2.8</ele>
        <time>2021-05-18T14:56:27Z</time>
      </trkpt>
      <trkpt lat="41.8789890" lon="-8.8369490">
        <ele>2.8</ele>
        <time>2021-05-18T14:56:28Z</time>
      </trkpt>
      <trkpt lat="41.8789890" lon="-8.8369490">
        <ele>2.8</ele>
        <time>2021-05-18T14:56:29Z</time>
      </trkpt>
      <trkpt lat="41.8789890" lon="-8.8369490">
        <ele>2.8</ele>
        <time>2021-05-18T14:56:30Z</time>
      </trkpt>
      <trkpt lat="41.8789890" lon="-8.8369490">
        <ele>2.8</ele>
        <time>2021-05-18T14:56:31Z</time>
      </trkpt>
      <trkpt lat="41.8789890" lon="-8.8369490">
        <ele>2.8</ele>
        <time>2021-05-18T14:56:32Z</time>
      </trkpt>
      <trkpt lat="41.8789890" lon="-8.8369480">
        <ele>2.8</ele>
        <time>2021-05-18T14:56:33Z</time>
      </trkpt>
      <trkpt lat="41.8789890" lon="-8.8369480">
        <ele>2.8</ele>
        <time>2021-05-18T14:56:34Z</time>
      </trkpt>
      <trkpt lat="41.8789890" lon="-8.8369480">
        <ele>2.8</ele>
        <time>2021-05-18T14:56:35Z</time>
      </trkpt>
      <trkpt lat="41.8789890" lon="-8.8369480">
        <ele>2.8</ele>
        <time>2021-05-18T14:56:36Z</time>
      </trkpt>
      <trkpt lat="41.8789890" lon="-8.8369480">
        <ele>2.8</ele>
        <time>2021-05-18T14:56:37Z</time>
      </trkpt>
      <trkpt lat="41.8789890" lon="-8.8369480">
        <ele>2.8</ele>
        <time>2021-05-18T14:56:38Z</time>
      </trkpt>
      <trkpt lat="41.8789890" lon="-8.8369480">
        <ele>2.8</ele>
        <time>2021-05-18T14:56:39Z</time>
      </trkpt>
      <trkpt lat="41.8789890" lon="-8.8369480">
        <ele>2.8</ele>
        <time>2021-05-18T14:56:40Z</time>
      </trkpt>
      <trkpt lat="41.8789890" lon="-8.8369480">
        <ele>2.8</ele>
        <time>2021-05-18T14:56:41Z</time>
      </trkpt>
      <trkpt lat="41.8789890" lon="-8.8369480">
        <ele>2.8</ele>
        <time>2021-05-18T14:56:42Z</time>
      </trkpt>
      <trkpt lat="41.8789890" lon="-8.8369480">
        <ele>2.8</ele>
        <time>2021-05-18T14:56:43Z</time>
      </trkpt>
      <trkpt lat="41.8789890" lon="-8.8369480">
        <ele>2.8</ele>
        <time>2021-05-18T14:56:44Z</time>
      </trkpt>
      <trkpt lat="41.8789890" lon="-8.8369470">
        <ele>2.8</ele>
        <time>2021-05-18T14:56:45Z</time>
      </trkpt>
      <trkpt lat="41.8789890" lon="-8.8369470">
        <ele>2.8</ele>
        <time>2021-05-18T14:56:46Z</time>
      </trkpt>
      <trkpt lat="41.8789890" lon="-8.8369470">
        <ele>2.8</ele>
        <time>2021-05-18T14:56:47Z</time>
      </trkpt>
      <trkpt lat="41.8789890" lon="-8.8369470">
        <ele>2.8</ele>
        <time>2021-05-18T14:56:48Z</time>
      </trkpt>
      <trkpt lat="41.8789890" lon="-8.8369470">
        <ele>2.8</ele>
        <time>2021-05-18T14:56:49Z</time>
      </trkpt>
      <trkpt lat="41.8789880" lon="-8.8369470">
        <ele>2.8</ele>
        <time>2021-05-18T14:56:50Z</time>
      </trkpt>
      <trkpt lat="41.8789880" lon="-8.8369470">
        <ele>2.8</ele>
        <time>2021-05-18T14:56:51Z</time>
      </trkpt>
      <trkpt lat="41.8789880" lon="-8.8369470">
        <ele>2.8</ele>
        <time>2021-05-18T14:56:52Z</time>
      </trkpt>
      <trkpt lat="41.8789880" lon="-8.8369470">
        <ele>2.8</ele>
        <time>2021-05-18T14:56:53Z</time>
      </trkpt>
      <trkpt lat="41.8789880" lon="-8.8369470">
        <ele>2.8</ele>
        <time>2021-05-18T14:56:54Z</time>
      </trkpt>
      <trkpt lat="41.8789880" lon="-8.8369470">
        <ele>2.8</ele>
        <time>2021-05-18T14:56:55Z</time>
      </trkpt>
      <trkpt lat="41.8789880" lon="-8.8369460">
        <ele>2.8</ele>
        <time>2021-05-18T14:56:56Z</time>
      </trkpt>
      <trkpt lat="41.8789880" lon="-8.8369460">
        <ele>2.8</ele>
        <time>2021-05-18T14:56:57Z</time>
      </trkpt>
      <trkpt lat="41.8789880" lon="-8.8369460">
        <ele>2.8</ele>
        <time>2021-05-18T14:56:58Z</time>
      </trkpt>
      <trkpt lat="41.8789880" lon="-8.8369460">
        <ele>2.8</ele>
        <time>2021-05-18T14:56:59Z</time>
      </trkpt>
      <trkpt lat="41.8789880" lon="-8.8369460">
        <ele>2.8</ele>
        <time>2021-05-18T14:57:00Z</time>
      </trkpt>
      <trkpt lat="41.8789880" lon="-8.8369460">
        <ele>2.8</ele>
        <time>2021-05-18T14:57:01Z</time>
      </trkpt>
      <trkpt lat="41.8789880" lon="-8.8369460">
        <ele>2.8</ele>
        <time>2021-05-18T14:57:02Z</time>
      </trkpt>
      <trkpt lat="41.8789880" lon="-8.8369460">
        <ele>2.8</ele>
        <time>2021-05-18T14:57:03Z</time>
      </trkpt>
      <trkpt lat="41.8789880" lon="-8.8369460">
        <ele>2.8</ele>
        <time>2021-05-18T14:57:04Z</time>
      </trkpt>
      <trkpt lat="41.8789880" lon="-8.8369460">
        <ele>2.8</ele>
        <time>2021-05-18T14:57:05Z</time>
      </trkpt>
      <trkpt lat="41.8789880" lon="-8.8369460">
        <ele>2.8</ele>
        <time>2021-05-18T14:57:06Z</time>
      </trkpt>
      <trkpt lat="41.8789880" lon="-8.8369450">
        <ele>2.8</ele>
        <time>2021-05-18T14:57:07Z</time>
      </trkpt>
      <trkpt lat="41.8789880" lon="-8.8369450">
        <ele>2.8</ele>
        <time>2021-05-18T14:57:08Z</time>
      </trkpt>
      <trkpt lat="41.8789880" lon="-8.8369450">
        <ele>2.8</ele>
        <time>2021-05-18T14:57:09Z</time>
      </trkpt>
      <trkpt lat="41.8789880" lon="-8.8369450">
        <ele>2.8</ele>
        <time>2021-05-18T14:57:10Z</time>
      </trkpt>
      <trkpt lat="41.8789880" lon="-8.8369450">
        <ele>2.8</ele>
        <time>2021-05-18T14:57:11Z</time>
      </trkpt>
      <trkpt lat="41.8789880" lon="-8.8369450">
        <ele>2.8</ele>
        <time>2021-05-18T14:57:12Z</time>
      </trkpt>
      <trkpt lat="41.8789870" lon="-8.8369450">
        <ele>2.8</ele>
        <time>2021-05-18T14:57:13Z</time>
      </trkpt>
      <trkpt lat="41.8789870" lon="-8.8369450">
        <ele>2.8</ele>
        <time>2021-05-18T14:57:14Z</time>
      </trkpt>
      <trkpt lat="41.8789870" lon="-8.8369450">
        <ele>2.8</ele>
        <time>2021-05-18T14:57:15Z</time>
      </trkpt>
      <trkpt lat="41.8789870" lon="-8.8369450">
        <ele>2.8</ele>
        <time>2021-05-18T14:57:16Z</time>
      </trkpt>
      <trkpt lat="41.8789870" lon="-8.8369450">
        <ele>2.8</ele>
        <time>2021-05-18T14:57:17Z</time>
      </trkpt>
      <trkpt lat="41.8789870" lon="-8.8369440">
        <ele>2.8</ele>
        <time>2021-05-18T14:57:18Z</time>
      </trkpt>
      <trkpt lat="41.8789870" lon="-8.8369440">
        <ele>2.8</ele>
        <time>2021-05-18T14:57:19Z</time>
      </trkpt>
      <trkpt lat="41.8789870" lon="-8.8369440">
        <ele>2.8</ele>
        <time>2021-05-18T14:57:20Z</time>
      </trkpt>
      <trkpt lat="41.8789870" lon="-8.8369440">
        <ele>2.8</ele>
        <time>2021-05-18T14:57:21Z</time>
      </trkpt>
      <trkpt lat="41.8789870" lon="-8.8369440">
        <ele>2.8</ele>
        <time>2021-05-18T14:57:22Z</time>
      </trkpt>
      <trkpt lat="41.8789870" lon="-8.8369440">
        <ele>2.8</ele>
        <time>2021-05-18T14:57:23Z</time>
      </trkpt>
      <trkpt lat="41.8789870" lon="-8.8369440">
        <ele>2.8</ele>
        <time>2021-05-18T14:57:24Z</time>
      </trkpt>
      <trkpt lat="41.8789870" lon="-8.8369440">
        <ele>2.8</ele>
        <time>2021-05-18T14:57:25Z</time>
      </trkpt>
      <trkpt lat="41.8789870" lon="-8.8369440">
        <ele>2.8</ele>
        <time>2021-05-18T14:57:26Z</time>
      </trkpt>
      <trkpt lat="41.8789870" lon="-8.8369440">
        <ele>2.8</ele>
        <time>2021-05-18T14:57:27Z</time>
      </trkpt>
      <trkpt lat="41.8789870" lon="-8.8369440">
        <ele>2.8</ele>
        <time>2021-05-18T14:57:28Z</time>
      </trkpt>
      <trkpt lat="41.8789870" lon="-8.8369430">
        <ele>2.8</ele>
        <time>2021-05-18T14:57:29Z</time>
      </trkpt>
      <trkpt lat="41.8789870" lon="-8.8369430">
        <ele>2.8</ele>
        <time>2021-05-18T14:57:30Z</time>
      </trkpt>
      <trkpt lat="41.8789870" lon="-8.8369430">
        <ele>2.8</ele>
        <time>2021-05-18T14:57:31Z</time>
      </trkpt>
      <trkpt lat="41.8789870" lon="-8.8369430">
        <ele>2.8</ele>
        <time>2021-05-18T14:57:32Z</time>
      </trkpt>
      <trkpt lat="41.8789870" lon="-8.8369430">
        <ele>2.8</ele>
        <time>2021-05-18T14:57:33Z</time>
      </trkpt>
      <trkpt lat="41.8789870" lon="-8.8369430">
        <ele>2.8</ele>
        <time>2021-05-18T14:57:34Z</time>
      </trkpt>
      <trkpt lat="41.8789860" lon="-8.8369430">
        <ele>2.8</ele>
        <time>2021-05-18T14:57:35Z</time>
      </trkpt>
      <trkpt lat="41.8789860" lon="-8.8369430">
        <ele>2.8</ele>
        <time>2021-05-18T14:57:36Z</time>
      </trkpt>
      <trkpt lat="41.8789860" lon="-8.8369430">
        <ele>2.8</ele>
        <time>2021-05-18T14:57:37Z</time>
      </trkpt>
      <trkpt lat="41.8789860" lon="-8.8369430">
        <ele>2.8</ele>
        <time>2021-05-18T14:57:38Z</time>
      </trkpt>
      <trkpt lat="41.8789860" lon="-8.8369430">
        <ele>2.8</ele>
        <time>2021-05-18T14:57:39Z</time>
      </trkpt>
      <trkpt lat="41.8789860" lon="-8.8369430">
        <ele>2.8</ele>
        <time>2021-05-18T14:57:40Z</time>
      </trkpt>
      <trkpt lat="41.8789860" lon="-8.8369420">
        <ele>2.8</ele>
        <time>2021-05-18T14:57:41Z</time>
      </trkpt>
      <trkpt lat="41.8789860" lon="-8.8369420">
        <ele>2.8</ele>
        <time>2021-05-18T14:57:42Z</time>
      </trkpt>
      <trkpt lat="41.8789860" lon="-8.8369420">
        <ele>2.8</ele>
        <time>2021-05-18T14:57:43Z</time>
      </trkpt>
      <trkpt lat="41.8789860" lon="-8.8369420">
        <ele>2.8</ele>
        <time>2021-05-18T14:57:44Z</time>
      </trkpt>
      <trkpt lat="41.8789860" lon="-8.8369420">
        <ele>2.8</ele>
        <time>2021-05-18T14:57:45Z</time>
      </trkpt>
      <trkpt lat="41.8789860" lon="-8.8369420">
        <ele>2.8</ele>
        <time>2021-05-18T14:57:46Z</time>
      </trkpt>
      <trkpt lat="41.8789860" lon="-8.8369420">
        <ele>2.8</ele>
        <time>2021-05-18T14:57:47Z</time>
      </trkpt>
      <trkpt lat="41.8789860" lon="-8.8369420">
        <ele>2.8</ele>
        <time>2021-05-18T14:57:48Z</time>
      </trkpt>
      <trkpt lat="41.8789860" lon="-8.8369420">
        <ele>2.8</ele>
        <time>2021-05-18T14:57:49Z</time>
      </trkpt>
      <trkpt lat="41.8789860" lon="-8.8369420">
        <ele>2.8</ele>
        <time>2021-05-18T14:57:50Z</time>
      </trkpt>
      <trkpt lat="41.8789860" lon="-8.8369420">
        <ele>2.8</ele>
        <time>2021-05-18T14:57:51Z</time>
      </trkpt>
      <trkpt lat="41.8789860" lon="-8.8369410">
        <ele>2.8</ele>
        <time>2021-05-18T14:57:52Z</time>
      </trkpt>
      <trkpt lat="41.8789860" lon="-8.8369410">
        <ele>2.8</ele>
        <time>2021-05-18T14:57:53Z</time>
      </trkpt>
      <trkpt lat="41.8789860" lon="-8.8369410">
        <ele>2.8</ele>
        <time>2021-05-18T14:57:54Z</time>
      </trkpt>
      <trkpt lat="41.8789860" lon="-8.8369410">
        <ele>2.8</ele>
        <time>2021-05-18T14:57:55Z</time>
      </trkpt>
      <trkpt lat="41.8789860" lon="-8.8369410">
        <ele>2.8</ele>
        <time>2021-05-18T14:57:56Z</time>
      </trkpt>
      <trkpt lat="41.8789850" lon="-8.8369410">
        <ele>2.8</ele>
        <time>2021-05-18T14:57:57Z</time>
      </trkpt>
      <trkpt lat="41.8789850" lon="-8.8369410">
        <ele>2.8</ele>
        <time>2021-05-18T14:57:58Z</time>
      </trkpt>
      <trkpt lat="41.8789850" lon="-8.8369410">
        <ele>2.8</ele>
        <time>2021-05-18T14:57:59Z</time>
      </trkpt>
      <trkpt lat="41.8789850" lon="-8.8369410">
        <ele>2.8</ele>
        <time>2021-05-18T14:58:00Z</time>
      </trkpt>
      <trkpt lat="41.8789850" lon="-8.8369410">
        <ele>2.8</ele>
        <time>2021-05-18T14:58:01Z</time>
      </trkpt>
      <trkpt lat="41.8789850" lon="-8.8369410">
        <ele>2.8</ele>
        <time>2021-05-18T14:58:02Z</time>
      </trkpt>
      <trkpt lat="41.8789850" lon="-8.8369400">
        <ele>2.8</ele>
        <time>2021-05-18T14:58:03Z</time>
      </trkpt>
      <trkpt lat="41.8789850" lon="-8.8369400">
        <ele>2.8</ele>
        <time>2021-05-18T14:58:04Z</time>
      </trkpt>
      <trkpt lat="41.8789850" lon="-8.8369400">
        <ele>2.8</ele>
        <time>2021-05-18T14:58:05Z</time>
      </trkpt>
      <trkpt lat="41.8789850" lon="-8.8369400">
        <ele>2.8</ele>
        <time>2021-05-18T14:58:06Z</time>
      </trkpt>
      <trkpt lat="41.8789850" lon="-8.8369400">
        <ele>2.8</ele>
        <time>2021-05-18T14:58:07Z</time>
      </trkpt>
      <trkpt lat="41.8789850" lon="-8.8369400">
        <ele>2.8</ele>
        <time>2021-05-18T14:58:08Z</time>
      </trkpt>
      <trkpt lat="41.8789850" lon="-8.8369400">
        <ele>2.8</ele>
        <time>2021-05-18T14:58:09Z</time>
      </trkpt>
      <trkpt lat="41.8789850" lon="-8.8369400">
        <ele>2.8</ele>
        <time>2021-05-18T14:58:10Z</time>
      </trkpt>
      <trkpt lat="41.8789850" lon="-8.8369400">
        <ele>2.8</ele>
        <time>2021-05-18T14:58:11Z</time>
      </trkpt>
      <trkpt lat="41.8789850" lon="-8.8369400">
        <ele>2.8</ele>
        <time>2021-05-18T14:58:12Z</time>
      </trkpt>
      <trkpt lat="41.8789850" lon="-8.8369400">
        <ele>2.8</ele>
        <time>2021-05-18T14:58:13Z</time>
      </trkpt>
      <trkpt lat="41.8789850" lon="-8.8369390">
        <ele>2.8</ele>
        <time>2021-05-18T14:58:14Z</time>
      </trkpt>
      <trkpt lat="41.8789850" lon="-8.8369390">
        <ele>2.8</ele>
        <time>2021-05-18T14:58:15Z</time>
      </trkpt>
      <trkpt lat="41.8789850" lon="-8.8369390">
        <ele>2.8</ele>
        <time>2021-05-18T14:58:16Z</time>
      </trkpt>
      <trkpt lat="41.8789850" lon="-8.8369390">
        <ele>2.8</ele>
        <time>2021-05-18T14:58:17Z</time>
      </trkpt>
      <trkpt lat="41.8789850" lon="-8.8369390">
        <ele>2.8</ele>
        <time>2021-05-18T14:58:18Z</time>
      </trkpt>
      <trkpt lat="41.8789850" lon="-8.8369390">
        <ele>2.8</ele>
        <time>2021-05-18T14:58:19Z</time>
      </trkpt>
      <trkpt lat="41.8789840" lon="-8.8369390">
        <ele>2.8</ele>
        <time>2021-05-18T14:58:20Z</time>
      </trkpt>
      <trkpt lat="41.8789840" lon="-8.8369390">
        <ele>2.8</ele>
        <time>2021-05-18T14:58:21Z</time>
      </trkpt>
      <trkpt lat="41.8789840" lon="-8.8369390">
        <ele>2.8</ele>
        <time>2021-05-18T14:58:22Z</time>
      </trkpt>
      <trkpt lat="41.8789840" lon="-8.8369390">
        <ele>2.8</ele>
        <time>2021-05-18T14:58:23Z</time>
      </trkpt>
      <trkpt lat="41.8789840" lon="-8.8369390">
        <ele>2.8</ele>
        <time>2021-05-18T14:58:24Z</time>
      </trkpt>
      <trkpt lat="41.8789840" lon="-8.8369390">
        <ele>2.8</ele>
        <time>2021-05-18T14:58:25Z</time>
      </trkpt>
      <trkpt lat="41.8789840" lon="-8.8369380">
        <ele>2.8</ele>
        <time>2021-05-18T14:58:26Z</time>
      </trkpt>
      <trkpt lat="41.8789840" lon="-8.8369380">
        <ele>2.8</ele>
        <time>2021-05-18T14:58:27Z</time>
      </trkpt>
      <trkpt lat="41.8789840" lon="-8.8369380">
        <ele>2.8</ele>
        <time>2021-05-18T14:58:28Z</time>
      </trkpt>
      <trkpt lat="41.8789840" lon="-8.8369380">
        <ele>2.8</ele>
        <time>2021-05-18T14:58:29Z</time>
      </trkpt>
      <trkpt lat="41.8789840" lon="-8.8369380">
        <ele>2.8</ele>
        <time>2021-05-18T14:58:30Z</time>
      </trkpt>
      <trkpt lat="41.8789840" lon="-8.8369380">
        <ele>2.8</ele>
        <time>2021-05-18T14:58:31Z</time>
      </trkpt>
      <trkpt lat="41.8789840" lon="-8.8369380">
        <ele>2.8</ele>
        <time>2021-05-18T14:58:33Z</time>
      </trkpt>
      <trkpt lat="41.8789840" lon="-8.8369380">
        <ele>2.8</ele>
        <time>2021-05-18T14:58:34Z</time>
      </trkpt>
      <trkpt lat="41.8789840" lon="-8.8369380">
        <ele>2.8</ele>
        <time>2021-05-18T14:58:35Z</time>
      </trkpt>
      <trkpt lat="41.8789840" lon="-8.8369380">
        <ele>2.8</ele>
        <time>2021-05-18T14:58:36Z</time>
      </trkpt>
      <trkpt lat="41.8789840" lon="-8.8369380">
        <ele>2.8</ele>
        <time>2021-05-18T14:58:37Z</time>
      </trkpt>
      <trkpt lat="41.8789840" lon="-8.8369370">
        <ele>2.8</ele>
        <time>2021-05-18T14:58:38Z</time>
      </trkpt>
      <trkpt lat="41.8789840" lon="-8.8369370">
        <ele>2.8</ele>
        <time>2021-05-18T14:58:39Z</time>
      </trkpt>
      <trkpt lat="41.8789840" lon="-8.8369370">
        <ele>2.8</ele>
        <time>2021-05-18T14:58:40Z</time>
      </trkpt>
      <trkpt lat="41.8789840" lon="-8.8369370">
        <ele>2.8</ele>
        <time>2021-05-18T14:58:41Z</time>
      </trkpt>
      <trkpt lat="41.8789840" lon="-8.8369370">
        <ele>2.8</ele>
        <time>2021-05-18T14:58:42Z</time>
      </trkpt>
      <trkpt lat="41.8789830" lon="-8.8369370">
        <ele>2.8</ele>
        <time>2021-05-18T14:58:43Z</time>
      </trkpt>
      <trkpt lat="41.8789830" lon="-8.8369370">
        <ele>2.8</ele>
        <time>2021-05-18T14:58:44Z</time>
      </trkpt>
      <trkpt lat="41.8789830" lon="-8.8369370">
        <ele>2.8</ele>
        <time>2021-05-18T14:58:45Z</time>
      </trkpt>
      <trkpt lat="41.8789830" lon="-8.8369370">
        <ele>2.8</ele>
        <time>2021-05-18T14:58:46Z</time>
      </trkpt>
      <trkpt lat="41.8789830" lon="-8.8369370">
        <ele>2.8</ele>
        <time>2021-05-18T14:58:47Z</time>
      </trkpt>
      <trkpt lat="41.8789830" lon="-8.8369370">
        <ele>2.8</ele>
        <time>2021-05-18T14:58:48Z</time>
      </trkpt>
      <trkpt lat="41.8789830" lon="-8.8369360">
        <ele>2.8</ele>
        <time>2021-05-18T14:58:49Z</time>
      </trkpt>
      <trkpt lat="41.8789830" lon="-8.8369360">
        <ele>2.8</ele>
        <time>2021-05-18T14:58:50Z</time>
      </trkpt>
      <trkpt lat="41.8789830" lon="-8.8369360">
        <ele>2.8</ele>
        <time>2021-05-18T14:58:51Z</time>
      </trkpt>
      <trkpt lat="41.8789830" lon="-8.8369360">
        <ele>2.8</ele>
        <time>2021-05-18T14:58:52Z</time>
      </trkpt>
      <trkpt lat="41.8789830" lon="-8.8369360">
        <ele>2.8</ele>
        <time>2021-05-18T14:58:53Z</time>
      </trkpt>
      <trkpt lat="41.8789830" lon="-8.8369360">
        <ele>2.8</ele>
        <time>2021-05-18T14:58:54Z</time>
      </trkpt>
      <trkpt lat="41.8789830" lon="-8.8369360">
        <ele>2.8</ele>
        <time>2021-05-18T14:58:55Z</time>
      </trkpt>
      <trkpt lat="41.8789830" lon="-8.8369360">
        <ele>2.8</ele>
        <time>2021-05-18T14:58:56Z</time>
      </trkpt>
      <trkpt lat="41.8789830" lon="-8.8369360">
        <ele>2.8</ele>
        <time>2021-05-18T14:58:57Z</time>
      </trkpt>
      <trkpt lat="41.8789830" lon="-8.8369360">
        <ele>2.8</ele>
        <time>2021-05-18T14:58:58Z</time>
      </trkpt>
      <trkpt lat="41.8789830" lon="-8.8369360">
        <ele>2.8</ele>
        <time>2021-05-18T14:58:59Z</time>
      </trkpt>
      <trkpt lat="41.8789830" lon="-8.8369350">
        <ele>2.8</ele>
        <time>2021-05-18T14:59:00Z</time>
      </trkpt>
      <trkpt lat="41.8789830" lon="-8.8369350">
        <ele>2.8</ele>
        <time>2021-05-18T14:59:01Z</time>
      </trkpt>
      <trkpt lat="41.8789830" lon="-8.8369350">
        <ele>2.8</ele>
        <time>2021-05-18T14:59:02Z</time>
      </trkpt>
      <trkpt lat="41.8789830" lon="-8.8369350">
        <ele>2.8</ele>
        <time>2021-05-18T14:59:03Z</time>
      </trkpt>
      <trkpt lat="41.8789830" lon="-8.8369350">
        <ele>2.8</ele>
        <time>2021-05-18T14:59:04Z</time>
      </trkpt>
      <trkpt lat="41.8789830" lon="-8.8369350">
        <ele>2.8</ele>
        <time>2021-05-18T14:59:05Z</time>
      </trkpt>
      <trkpt lat="41.8789820" lon="-8.8369350">
        <ele>2.8</ele>
        <time>2021-05-18T14:59:06Z</time>
      </trkpt>
      <trkpt lat="41.8789820" lon="-8.8369350">
        <ele>2.8</ele>
        <time>2021-05-18T14:59:07Z</time>
      </trkpt>
      <trkpt lat="41.8789820" lon="-8.8369350">
        <ele>2.8</ele>
        <time>2021-05-18T14:59:08Z</time>
      </trkpt>
      <trkpt lat="41.8789820" lon="-8.8369350">
        <ele>2.8</ele>
        <time>2021-05-18T14:59:09Z</time>
      </trkpt>
      <trkpt lat="41.8789820" lon="-8.8369350">
        <ele>2.8</ele>
        <time>2021-05-18T14:59:10Z</time>
      </trkpt>
      <trkpt lat="41.8789820" lon="-8.8369340">
        <ele>2.8</ele>
        <time>2021-05-18T14:59:11Z</time>
      </trkpt>
      <trkpt lat="41.8789820" lon="-8.8369340">
        <ele>2.8</ele>
        <time>2021-05-18T14:59:12Z</time>
      </trkpt>
      <trkpt lat="41.8789820" lon="-8.8369340">
        <ele>2.8</ele>
        <time>2021-05-18T14:59:13Z</time>
      </trkpt>
      <trkpt lat="41.8789820" lon="-8.8369340">
        <ele>2.8</ele>
        <time>2021-05-18T14:59:14Z</time>
      </trkpt>
      <trkpt lat="41.8789820" lon="-8.8369340">
        <ele>2.8</ele>
        <time>2021-05-18T14:59:15Z</time>
      </trkpt>
      <trkpt lat="41.8789820" lon="-8.8369340">
        <ele>2.8</ele>
        <time>2021-05-18T14:59:16Z</time>
      </trkpt>
      <trkpt lat="41.8789820" lon="-8.8369340">
        <ele>2.8</ele>
        <time>2021-05-18T14:59:17Z</time>
      </trkpt>
      <trkpt lat="41.8789820" lon="-8.8369340">
        <ele>2.8</ele>
        <time>2021-05-18T14:59:18Z</time>
      </trkpt>
      <trkpt lat="41.8789820" lon="-8.8369340">
        <ele>2.8</ele>
        <time>2021-05-18T14:59:19Z</time>
      </trkpt>
      <trkpt lat="41.8789820" lon="-8.8369340">
        <ele>2.8</ele>
        <time>2021-05-18T14:59:20Z</time>
      </trkpt>
      <trkpt lat="41.8789820" lon="-8.8369340">
        <ele>2.8</ele>
        <time>2021-05-18T14:59:21Z</time>
      </trkpt>
      <trkpt lat="41.8789820" lon="-8.8369340">
        <ele>2.8</ele>
        <time>2021-05-18T14:59:22Z</time>
      </trkpt>
      <trkpt lat="41.8789820" lon="-8.8369330">
        <ele>2.8</ele>
        <time>2021-05-18T14:59:23Z</time>
      </trkpt>
      <trkpt lat="41.8789820" lon="-8.8369330">
        <ele>2.8</ele>
        <time>2021-05-18T14:59:24Z</time>
      </trkpt>
      <trkpt lat="41.8789820" lon="-8.8369330">
        <ele>2.8</ele>
        <time>2021-05-18T14:59:25Z</time>
      </trkpt>
      <trkpt lat="41.8789820" lon="-8.8369330">
        <ele>2.8</ele>
        <time>2021-05-18T14:59:26Z</time>
      </trkpt>
      <trkpt lat="41.8789820" lon="-8.8369330">
        <ele>2.8</ele>
        <time>2021-05-18T14:59:27Z</time>
      </trkpt>
      <trkpt lat="41.8789810" lon="-8.8369330">
        <ele>2.8</ele>
        <time>2021-05-18T14:59:28Z</time>
      </trkpt>
      <trkpt lat="41.8789810" lon="-8.8369330">
        <ele>2.8</ele>
        <time>2021-05-18T14:59:29Z</time>
      </trkpt>
      <trkpt lat="41.8789810" lon="-8.8369330">
        <ele>2.8</ele>
        <time>2021-05-18T14:59:30Z</time>
      </trkpt>
      <trkpt lat="41.8789810" lon="-8.8369330">
        <ele>2.8</ele>
        <time>2021-05-18T14:59:31Z</time>
      </trkpt>
      <trkpt lat="41.8789810" lon="-8.8369330">
        <ele>2.8</ele>
        <time>2021-05-18T14:59:32Z</time>
      </trkpt>
      <trkpt lat="41.8789810" lon="-8.8369330">
        <ele>2.8</ele>
        <time>2021-05-18T14:59:33Z</time>
      </trkpt>
      <trkpt lat="41.8789810" lon="-8.8369320">
        <ele>2.8</ele>
        <time>2021-05-18T14:59:34Z</time>
      </trkpt>
      <trkpt lat="41.8789810" lon="-8.8369320">
        <ele>2.8</ele>
        <time>2021-05-18T14:59:35Z</time>
      </trkpt>
      <trkpt lat="41.8789810" lon="-8.8369320">
        <ele>2.8</ele>
        <time>2021-05-18T14:59:36Z</time>
      </trkpt>
      <trkpt lat="41.8789810" lon="-8.8369320">
        <ele>2.8</ele>
        <time>2021-05-18T14:59:37Z</time>
      </trkpt>
      <trkpt lat="41.8789810" lon="-8.8369320">
        <ele>2.8</ele>
        <time>2021-05-18T14:59:38Z</time>
      </trkpt>
      <trkpt lat="41.8789810" lon="-8.8369320">
        <ele>2.8</ele>
        <time>2021-05-18T14:59:39Z</time>
      </trkpt>
      <trkpt lat="41.8789810" lon="-8.8369320">
        <ele>2.8</ele>
        <time>2021-05-18T14:59:40Z</time>
      </trkpt>
      <trkpt lat="41.8789810" lon="-8.8369320">
        <ele>2.8</ele>
        <time>2021-05-18T14:59:41Z</time>
      </trkpt>
      <trkpt lat="41.8789810" lon="-8.8369320">
        <ele>2.8</ele>
        <time>2021-05-18T14:59:42Z</time>
      </trkpt>
      <trkpt lat="41.8789810" lon="-8.8369320">
        <ele>2.8</ele>
        <time>2021-05-18T14:59:43Z</time>
      </trkpt>
      <trkpt lat="41.8789810" lon="-8.8369320">
        <ele>2.8</ele>
        <time>2021-05-18T14:59:44Z</time>
      </trkpt>
      <trkpt lat="41.8789810" lon="-8.8369310">
        <ele>2.8</ele>
        <time>2021-05-18T14:59:45Z</time>
      </trkpt>
      <trkpt lat="41.8789810" lon="-8.8369310">
        <ele>2.8</ele>
        <time>2021-05-18T14:59:46Z</time>
      </trkpt>
      <trkpt lat="41.8789810" lon="-8.8369310">
        <ele>2.8</ele>
        <time>2021-05-18T14:59:47Z</time>
      </trkpt>
      <trkpt lat="41.8789810" lon="-8.8369310">
        <ele>2.8</ele>
        <time>2021-05-18T14:59:48Z</time>
      </trkpt>
      <trkpt lat="41.8789810" lon="-8.8369310">
        <ele>2.8</ele>
        <time>2021-05-18T14:59:49Z</time>
      </trkpt>
      <trkpt lat="41.8789810" lon="-8.8369310">
        <ele>2.8</ele>
        <time>2021-05-18T14:59:50Z</time>
      </trkpt>
      <trkpt lat="41.8789800" lon="-8.8369310">
        <ele>2.8</ele>
        <time>2021-05-18T14:59:51Z</time>
      </trkpt>
      <trkpt lat="41.8789800" lon="-8.8369310">
        <ele>2.8</ele>
        <time>2021-05-18T14:59:52Z</time>
      </trkpt>
      <trkpt lat="41.8789800" lon="-8.8369310">
        <ele>2.8</ele>
        <time>2021-05-18T14:59:53Z</time>
      </trkpt>
      <trkpt lat="41.8789800" lon="-8.8369310">
        <ele>2.8</ele>
        <time>2021-05-18T14:59:54Z</time>
      </trkpt>
      <trkpt lat="41.8789800" lon="-8.8369310">
        <ele>2.8</ele>
        <time>2021-05-18T14:59:55Z</time>
      </trkpt>
      <trkpt lat="41.8789800" lon="-8.8369300">
        <ele>2.8</ele>
        <time>2021-05-18T14:59:56Z</time>
      </trkpt>
      <trkpt lat="41.8789800" lon="-8.8369300">
        <ele>2.8</ele>
        <time>2021-05-18T14:59:57Z</time>
      </trkpt>
      <trkpt lat="41.8789800" lon="-8.8369300">
        <ele>2.8</ele>
        <time>2021-05-18T14:59:58Z</time>
      </trkpt>
      <trkpt lat="41.8789800" lon="-8.8369300">
        <ele>2.8</ele>
        <time>2021-05-18T14:59:59Z</time>
      </trkpt>
      <trkpt lat="41.8789800" lon="-8.8369300">
        <ele>2.8</ele>
        <time>2021-05-18T15:00:00Z</time>
      </trkpt>
      <trkpt lat="41.8789800" lon="-8.8369300">
        <ele>2.8</ele>
        <time>2021-05-18T15:00:01Z</time>
      </trkpt>
      <trkpt lat="41.8789800" lon="-8.8369300">
        <ele>2.8</ele>
        <time>2021-05-18T15:00:02Z</time>
      </trkpt>
      <trkpt lat="41.8789800" lon="-8.8369300">
        <ele>2.8</ele>
        <time>2021-05-18T15:00:03Z</time>
      </trkpt>
      <trkpt lat="41.8789800" lon="-8.8369300">
        <ele>2.8</ele>
        <time>2021-05-18T15:00:04Z</time>
      </trkpt>
      <trkpt lat="41.8789800" lon="-8.8369300">
        <ele>2.8</ele>
        <time>2021-05-18T15:00:05Z</time>
      </trkpt>
      <trkpt lat="41.8789800" lon="-8.8369300">
        <ele>2.8</ele>
        <time>2021-05-18T15:00:06Z</time>
      </trkpt>
      <trkpt lat="41.8789800" lon="-8.8369290">
        <ele>2.8</ele>
        <time>2021-05-18T15:00:07Z</time>
      </trkpt>
      <trkpt lat="41.8789800" lon="-8.8369290">
        <ele>2.8</ele>
        <time>2021-05-18T15:00:08Z</time>
      </trkpt>
      <trkpt lat="41.8789800" lon="-8.8369290">
        <ele>2.8</ele>
        <time>2021-05-18T15:00:09Z</time>
      </trkpt>
      <trkpt lat="41.8789800" lon="-8.8369290">
        <ele>2.8</ele>
        <time>2021-05-18T15:00:10Z</time>
      </trkpt>
      <trkpt lat="41.8789800" lon="-8.8369290">
        <ele>2.8</ele>
        <time>2021-05-18T15:00:11Z</time>
      </trkpt>
      <trkpt lat="41.8789800" lon="-8.8369290">
        <ele>2.8</ele>
        <time>2021-05-18T15:00:12Z</time>
      </trkpt>
      <trkpt lat="41.8789790" lon="-8.8369290">
        <ele>2.8</ele>
        <time>2021-05-18T15:00:13Z</time>
      </trkpt>
      <trkpt lat="41.8789790" lon="-8.8369290">
        <ele>2.8</ele>
        <time>2021-05-18T15:00:14Z</time>
      </trkpt>
      <trkpt lat="41.8789790" lon="-8.8369290">
        <ele>2.8</ele>
        <time>2021-05-18T15:00:15Z</time>
      </trkpt>
      <trkpt lat="41.8789790" lon="-8.8369290">
        <ele>2.8</ele>
        <time>2021-05-18T15:00:16Z</time>
      </trkpt>
      <trkpt lat="41.8789790" lon="-8.8369290">
        <ele>2.8</ele>
        <time>2021-05-18T15:00:17Z</time>
      </trkpt>
      <trkpt lat="41.8789790" lon="-8.8369290">
        <ele>2.8</ele>
        <time>2021-05-18T15:00:18Z</time>
      </trkpt>
      <trkpt lat="41.8789790" lon="-8.8369280">
        <ele>2.8</ele>
        <time>2021-05-18T15:00:19Z</time>
      </trkpt>
      <trkpt lat="41.8789790" lon="-8.8369280">
        <ele>2.8</ele>
        <time>2021-05-18T15:00:20Z</time>
      </trkpt>
      <trkpt lat="41.8789790" lon="-8.8369280">
        <ele>2.8</ele>
        <time>2021-05-18T15:00:21Z</time>
      </trkpt>
      <trkpt lat="41.8789790" lon="-8.8369280">
        <ele>2.8</ele>
        <time>2021-05-18T15:00:22Z</time>
      </trkpt>
      <trkpt lat="41.8789790" lon="-8.8369280">
        <ele>2.8</ele>
        <time>2021-05-18T15:00:23Z</time>
      </trkpt>
      <trkpt lat="41.8789790" lon="-8.8369280">
        <ele>2.8</ele>
        <time>2021-05-18T15:00:24Z</time>
      </trkpt>
      <trkpt lat="41.8789790" lon="-8.8369280">
        <ele>2.8</ele>
        <time>2021-05-18T15:00:25Z</time>
      </trkpt>
      <trkpt lat="41.8789790" lon="-8.8369280">
        <ele>2.8</ele>
        <time>2021-05-18T15:00:26Z</time>
      </trkpt>
      <trkpt lat="41.8789790" lon="-8.8369280">
        <ele>2.8</ele>
        <time>2021-05-18T15:00:27Z</time>
      </trkpt>
      <trkpt lat="41.8789790" lon="-8.8369280">
        <ele>2.8</ele>
        <time>2021-05-18T15:00:28Z</time>
      </trkpt>
      <trkpt lat="41.8789790" lon="-8.8369280">
        <ele>2.8</ele>
        <time>2021-05-18T15:00:29Z</time>
      </trkpt>
      <trkpt lat="41.8789790" lon="-8.8369270">
        <ele>2.8</ele>
        <time>2021-05-18T15:00:30Z</time>
      </trkpt>
      <trkpt lat="41.8789790" lon="-8.8369270">
        <ele>2.8</ele>
        <time>2021-05-18T15:00:31Z</time>
      </trkpt>
      <trkpt lat="41.8789790" lon="-8.8369270">
        <ele>2.8</ele>
        <time>2021-05-18T15:00:32Z</time>
      </trkpt>
      <trkpt lat="41.8789790" lon="-8.8369270">
        <ele>2.8</ele>
        <time>2021-05-18T15:00:33Z</time>
      </trkpt>
      <trkpt lat="41.8789790" lon="-8.8369270">
        <ele>2.8</ele>
        <time>2021-05-18T15:00:34Z</time>
      </trkpt>
      <trkpt lat="41.8789780" lon="-8.8369270">
        <ele>2.8</ele>
        <time>2021-05-18T15:00:35Z</time>
      </trkpt>
      <trkpt lat="41.8789780" lon="-8.8369270">
        <ele>2.8</ele>
        <time>2021-05-18T15:00:36Z</time>
      </trkpt>
      <trkpt lat="41.8789780" lon="-8.8369270">
        <ele>2.8</ele>
        <time>2021-05-18T15:00:37Z</time>
      </trkpt>
      <trkpt lat="41.8789780" lon="-8.8369270">
        <ele>2.8</ele>
        <time>2021-05-18T15:00:38Z</time>
      </trkpt>
      <trkpt lat="41.8789780" lon="-8.8369270">
        <ele>2.8</ele>
        <time>2021-05-18T15:00:39Z</time>
      </trkpt>
      <trkpt lat="41.8789780" lon="-8.8369270">
        <ele>2.8</ele>
        <time>2021-05-18T15:00:40Z</time>
      </trkpt>
      <trkpt lat="41.8789780" lon="-8.8369260">
        <ele>2.8</ele>
        <time>2021-05-18T15:00:41Z</time>
      </trkpt>
      <trkpt lat="41.8789780" lon="-8.8369260">
        <ele>2.8</ele>
        <time>2021-05-18T15:00:42Z</time>
      </trkpt>
      <trkpt lat="41.8789780" lon="-8.8369260">
        <ele>2.8</ele>
        <time>2021-05-18T15:00:43Z</time>
      </trkpt>
      <trkpt lat="41.8789780" lon="-8.8369260">
        <ele>2.8</ele>
        <time>2021-05-18T15:00:45Z</time>
      </trkpt>
      <trkpt lat="41.8789780" lon="-8.8369260">
        <ele>2.8</ele>
        <time>2021-05-18T15:00:46Z</time>
      </trkpt>
      <trkpt lat="41.8789780" lon="-8.8369260">
        <ele>2.8</ele>
        <time>2021-05-18T15:00:47Z</time>
      </trkpt>
      <trkpt lat="41.8789780" lon="-8.8369260">
        <ele>2.8</ele>
        <time>2021-05-18T15:00:48Z</time>
      </trkpt>
      <trkpt lat="41.8789780" lon="-8.8369260">
        <ele>2.8</ele>
        <time>2021-05-18T15:00:49Z</time>
      </trkpt>
      <trkpt lat="41.8789780" lon="-8.8369260">
        <ele>2.8</ele>
        <time>2021-05-18T15:00:50Z</time>
      </trkpt>
      <trkpt lat="41.8789780" lon="-8.8369260">
        <ele>2.8</ele>
        <time>2021-05-18T15:00:51Z</time>
      </trkpt>
      <trkpt lat="41.8789780" lon="-8.8369260">
        <ele>2.8</ele>
        <time>2021-05-18T15:00:52Z</time>
      </trkpt>
      <trkpt lat="41.8789780" lon="-8.8369250">
        <ele>2.8</ele>
        <time>2021-05-18T15:00:53Z</time>
      </trkpt>
      <trkpt lat="41.8789780" lon="-8.8369250">
        <ele>2.8</ele>
        <time>2021-05-18T15:00:54Z</time>
      </trkpt>
      <trkpt lat="41.8789780" lon="-8.8369250">
        <ele>2.8</ele>
        <time>2021-05-18T15:00:55Z</time>
      </trkpt>
      <trkpt lat="41.8789780" lon="-8.8369250">
        <ele>2.8</ele>
        <time>2021-05-18T15:00:56Z</time>
      </trkpt>
      <trkpt lat="41.8789780" lon="-8.8369250">
        <ele>2.8</ele>
        <time>2021-05-18T15:00:57Z</time>
      </trkpt>
      <trkpt lat="41.8789780" lon="-8.8369250">
        <ele>2.8</ele>
        <time>2021-05-18T15:00:58Z</time>
      </trkpt>
      <trkpt lat="41.8789770" lon="-8.8369250">
        <ele>2.8</ele>
        <time>2021-05-18T15:00:59Z</time>
      </trkpt>
      <trkpt lat="41.8789770" lon="-8.8369250">
        <ele>2.8</ele>
        <time>2021-05-18T15:01:00Z</time>
      </trkpt>
      <trkpt lat="41.8789770" lon="-8.8369250">
        <ele>2.8</ele>
        <time>2021-05-18T15:01:01Z</time>
      </trkpt>
      <trkpt lat="41.8789770" lon="-8.8369250">
        <ele>2.8</ele>
        <time>2021-05-18T15:01:02Z</time>
      </trkpt>
      <trkpt lat="41.8789770" lon="-8.8369250">
        <ele>2.8</ele>
        <time>2021-05-18T15:01:03Z</time>
      </trkpt>
      <trkpt lat="41.8789770" lon="-8.8369240">
        <ele>2.8</ele>
        <time>2021-05-18T15:01:04Z</time>
      </trkpt>
      <trkpt lat="41.8789770" lon="-8.8369240">
        <ele>2.8</ele>
        <time>2021-05-18T15:01:05Z</time>
      </trkpt>
      <trkpt lat="41.8789770" lon="-8.8369240">
        <ele>2.8</ele>
        <time>2021-05-18T15:01:06Z</time>
      </trkpt>
      <trkpt lat="41.8789770" lon="-8.8369240">
        <ele>2.8</ele>
        <time>2021-05-18T15:01:07Z</time>
      </trkpt>
      <trkpt lat="41.8789770" lon="-8.8369240">
        <ele>2.8</ele>
        <time>2021-05-18T15:01:08Z</time>
      </trkpt>
      <trkpt lat="41.8789770" lon="-8.8369240">
        <ele>2.8</ele>
        <time>2021-05-18T15:01:09Z</time>
      </trkpt>
      <trkpt lat="41.8789770" lon="-8.8369240">
        <ele>2.8</ele>
        <time>2021-05-18T15:01:10Z</time>
      </trkpt>
      <trkpt lat="41.8789770" lon="-8.8369240">
        <ele>2.8</ele>
        <time>2021-05-18T15:01:11Z</time>
      </trkpt>
      <trkpt lat="41.8789770" lon="-8.8369240">
        <ele>2.8</ele>
        <time>2021-05-18T15:01:12Z</time>
      </trkpt>
      <trkpt lat="41.8789770" lon="-8.8369240">
        <ele>2.8</ele>
        <time>2021-05-18T15:01:13Z</time>
      </trkpt>
      <trkpt lat="41.8789770" lon="-8.8369240">
        <ele>2.8</ele>
        <time>2021-05-18T15:01:14Z</time>
      </trkpt>
      <trkpt lat="41.8789770" lon="-8.8369240">
        <ele>2.8</ele>
        <time>2021-05-18T15:01:15Z</time>
      </trkpt>
      <trkpt lat="41.8789770" lon="-8.8369230">
        <ele>2.8</ele>
        <time>2021-05-18T15:01:16Z</time>
      </trkpt>
      <trkpt lat="41.8789770" lon="-8.8369230">
        <ele>2.8</ele>
        <time>2021-05-18T15:01:17Z</time>
      </trkpt>
      <trkpt lat="41.8789770" lon="-8.8369230">
        <ele>2.8</ele>
        <time>2021-05-18T15:01:18Z</time>
      </trkpt>
      <trkpt lat="41.8789770" lon="-8.8369230">
        <ele>2.8</ele>
        <time>2021-05-18T15:01:19Z</time>
      </trkpt>
      <trkpt lat="41.8789770" lon="-8.8369230">
        <ele>2.8</ele>
        <time>2021-05-18T15:01:20Z</time>
      </trkpt>
      <trkpt lat="41.8789760" lon="-8.8369230">
        <ele>2.8</ele>
        <time>2021-05-18T15:01:21Z</time>
      </trkpt>
      <trkpt lat="41.8789760" lon="-8.8369230">
        <ele>2.8</ele>
        <time>2021-05-18T15:01:22Z</time>
      </trkpt>
      <trkpt lat="41.8789760" lon="-8.8369230">
        <ele>2.8</ele>
        <time>2021-05-18T15:01:23Z</time>
      </trkpt>
      <trkpt lat="41.8789760" lon="-8.8369230">
        <ele>2.8</ele>
        <time>2021-05-18T15:01:24Z</time>
      </trkpt>
      <trkpt lat="41.8789760" lon="-8.8369230">
        <ele>2.8</ele>
        <time>2021-05-18T15:01:25Z</time>
      </trkpt>
      <trkpt lat="41.8789760" lon="-8.8369230">
        <ele>2.8</ele>
        <time>2021-05-18T15:01:26Z</time>
      </trkpt>
      <trkpt lat="41.8789760" lon="-8.8369220">
        <ele>2.8</ele>
        <time>2021-05-18T15:01:27Z</time>
      </trkpt>
      <trkpt lat="41.8789760" lon="-8.8369220">
        <ele>2.8</ele>
        <time>2021-05-18T15:01:28Z</time>
      </trkpt>
      <trkpt lat="41.8789760" lon="-8.8369220">
        <ele>2.8</ele>
        <time>2021-05-18T15:01:29Z</time>
      </trkpt>
      <trkpt lat="41.8789760" lon="-8.8369220">
        <ele>2.8</ele>
        <time>2021-05-18T15:01:30Z</time>
      </trkpt>
      <trkpt lat="41.8789760" lon="-8.8369220">
        <ele>2.8</ele>
        <time>2021-05-18T15:01:31Z</time>
      </trkpt>
      <trkpt lat="41.8789760" lon="-8.8369220">
        <ele>2.8</ele>
        <time>2021-05-18T15:01:32Z</time>
      </trkpt>
      <trkpt lat="41.8789760" lon="-8.8369220">
        <ele>2.8</ele>
        <time>2021-05-18T15:01:33Z</time>
      </trkpt>
      <trkpt lat="41.8789760" lon="-8.8369220">
        <ele>2.8</ele>
        <time>2021-05-18T15:01:34Z</time>
      </trkpt>
      <trkpt lat="41.8789760" lon="-8.8369220">
        <ele>2.8</ele>
        <time>2021-05-18T15:01:35Z</time>
      </trkpt>
      <trkpt lat="41.8789760" lon="-8.8369220">
        <ele>2.8</ele>
        <time>2021-05-18T15:01:36Z</time>
      </trkpt>
      <trkpt lat="41.8789760" lon="-8.8369220">
        <ele>2.8</ele>
        <time>2021-05-18T15:01:37Z</time>
      </trkpt>
      <trkpt lat="41.8789760" lon="-8.8369210">
        <ele>2.8</ele>
        <time>2021-05-18T15:01:38Z</time>
      </trkpt>
      <trkpt lat="41.8789760" lon="-8.8369210">
        <ele>2.8</ele>
        <time>2021-05-18T15:01:39Z</time>
      </trkpt>
      <trkpt lat="41.8789760" lon="-8.8369210">
        <ele>2.8</ele>
        <time>2021-05-18T15:01:40Z</time>
      </trkpt>
      <trkpt lat="41.8789760" lon="-8.8369210">
        <ele>2.8</ele>
        <time>2021-05-18T15:01:41Z</time>
      </trkpt>
      <trkpt lat="41.8789760" lon="-8.8369210">
        <ele>2.8</ele>
        <time>2021-05-18T15:01:42Z</time>
      </trkpt>
      <trkpt lat="41.8789760" lon="-8.8369210">
        <ele>2.8</ele>
        <time>2021-05-18T15:01:43Z</time>
      </trkpt>
      <trkpt lat="41.8789750" lon="-8.8369210">
        <ele>2.8</ele>
        <time>2021-05-18T15:01:44Z</time>
      </trkpt>
      <trkpt lat="41.8789750" lon="-8.8369210">
        <ele>2.8</ele>
        <time>2021-05-18T15:01:45Z</time>
      </trkpt>
      <trkpt lat="41.8789750" lon="-8.8369210">
        <ele>2.8</ele>
        <time>2021-05-18T15:01:46Z</time>
      </trkpt>
      <trkpt lat="41.8789750" lon="-8.8369210">
        <ele>2.8</ele>
        <time>2021-05-18T15:01:47Z</time>
      </trkpt>
      <trkpt lat="41.8789750" lon="-8.8369210">
        <ele>2.8</ele>
        <time>2021-05-18T15:01:48Z</time>
      </trkpt>
      <trkpt lat="41.8789750" lon="-8.8369200">
        <ele>2.8</ele>
        <time>2021-05-18T15:01:49Z</time>
      </trkpt>
      <trkpt lat="41.8789750" lon="-8.8369200">
        <ele>2.8</ele>
        <time>2021-05-18T15:01:50Z</time>
      </trkpt>
      <trkpt lat="41.8789750" lon="-8.8369200">
        <ele>2.8</ele>
        <time>2021-05-18T15:01:51Z</time>
      </trkpt>
      <trkpt lat="41.8789750" lon="-8.8369200">
        <ele>2.8</ele>
        <time>2021-05-18T15:01:52Z</time>
      </trkpt>
      <trkpt lat="41.8789750" lon="-8.8369200">
        <ele>2.8</ele>
        <time>2021-05-18T15:01:53Z</time>
      </trkpt>
      <trkpt lat="41.8789750" lon="-8.8369200">
        <ele>2.8</ele>
        <time>2021-05-18T15:01:54Z</time>
      </trkpt>
      <trkpt lat="41.8789750" lon="-8.8369200">
        <ele>2.8</ele>
        <time>2021-05-18T15:01:55Z</time>
      </trkpt>
      <trkpt lat="41.8789750" lon="-8.8369200">
        <ele>2.8</ele>
        <time>2021-05-18T15:01:56Z</time>
      </trkpt>
      <trkpt lat="41.8789750" lon="-8.8369200">
        <ele>2.8</ele>
        <time>2021-05-18T15:01:57Z</time>
      </trkpt>
      <trkpt lat="41.8789750" lon="-8.8369200">
        <ele>2.8</ele>
        <time>2021-05-18T15:01:58Z</time>
      </trkpt>
      <trkpt lat="41.8789750" lon="-8.8369200">
        <ele>2.8</ele>
        <time>2021-05-18T15:01:59Z</time>
      </trkpt>
      <trkpt lat="41.8789750" lon="-8.8369190">
        <ele>2.8</ele>
        <time>2021-05-18T15:02:00Z</time>
      </trkpt>
      <trkpt lat="41.8789750" lon="-8.8369190">
        <ele>2.8</ele>
        <time>2021-05-18T15:02:01Z</time>
      </trkpt>
      <trkpt lat="41.8789750" lon="-8.8369190">
        <ele>2.8</ele>
        <time>2021-05-18T15:02:02Z</time>
      </trkpt>
      <trkpt lat="41.8789750" lon="-8.8369190">
        <ele>2.8</ele>
        <time>2021-05-18T15:02:03Z</time>
      </trkpt>
      <trkpt lat="41.8789750" lon="-8.8369190">
        <ele>2.8</ele>
        <time>2021-05-18T15:02:04Z</time>
      </trkpt>
      <trkpt lat="41.8789750" lon="-8.8369190">
        <ele>2.8</ele>
        <time>2021-05-18T15:02:05Z</time>
      </trkpt>
      <trkpt lat="41.8789740" lon="-8.8369190">
        <ele>2.8</ele>
        <time>2021-05-18T15:02:06Z</time>
      </trkpt>
      <trkpt lat="41.8789740" lon="-8.8369190">
        <ele>2.8</ele>
        <time>2021-05-18T15:02:07Z</time>
      </trkpt>
      <trkpt lat="41.8789740" lon="-8.8369190">
        <ele>2.8</ele>
        <time>2021-05-18T15:02:08Z</time>
      </trkpt>
      <trkpt lat="41.8789740" lon="-8.8369190">
        <ele>2.8</ele>
        <time>2021-05-18T15:02:09Z</time>
      </trkpt>
      <trkpt lat="41.8789740" lon="-8.8369190">
        <ele>2.8</ele>
        <time>2021-05-18T15:02:10Z</time>
      </trkpt>
      <trkpt lat="41.8789740" lon="-8.8369190">
        <ele>2.8</ele>
        <time>2021-05-18T15:02:11Z</time>
      </trkpt>
      <trkpt lat="41.8789740" lon="-8.8369180">
        <ele>2.8</ele>
        <time>2021-05-18T15:02:12Z</time>
      </trkpt>
      <trkpt lat="41.8789740" lon="-8.8369180">
        <ele>2.8</ele>
        <time>2021-05-18T15:02:13Z</time>
      </trkpt>
      <trkpt lat="41.8789740" lon="-8.8369180">
        <ele>2.8</ele>
        <time>2021-05-18T15:02:14Z</time>
      </trkpt>
      <trkpt lat="41.8789740" lon="-8.8369180">
        <ele>2.8</ele>
        <time>2021-05-18T15:02:15Z</time>
      </trkpt>
      <trkpt lat="41.8789740" lon="-8.8369180">
        <ele>2.8</ele>
        <time>2021-05-18T15:02:16Z</time>
      </trkpt>
      <trkpt lat="41.8789740" lon="-8.8369180">
        <ele>2.8</ele>
        <time>2021-05-18T15:02:17Z</time>
      </trkpt>
      <trkpt lat="41.8789740" lon="-8.8369180">
        <ele>2.8</ele>
        <time>2021-05-18T15:02:18Z</time>
      </trkpt>
      <trkpt lat="41.8789740" lon="-8.8369180">
        <ele>2.8</ele>
        <time>2021-05-18T15:02:19Z</time>
      </trkpt>
      <trkpt lat="41.8789740" lon="-8.8369180">
        <ele>2.8</ele>
        <time>2021-05-18T15:02:20Z</time>
      </trkpt>
      <trkpt lat="41.8789740" lon="-8.8369180">
        <ele>2.8</ele>
        <time>2021-05-18T15:02:21Z</time>
      </trkpt>
      <trkpt lat="41.8789740" lon="-8.8369180">
        <ele>2.8</ele>
        <time>2021-05-18T15:02:22Z</time>
      </trkpt>
      <trkpt lat="41.8789740" lon="-8.8369170">
        <ele>2.8</ele>
        <time>2021-05-18T15:02:23Z</time>
      </trkpt>
      <trkpt lat="41.8789740" lon="-8.8369170">
        <ele>2.8</ele>
        <time>2021-05-18T15:02:24Z</time>
      </trkpt>
      <trkpt lat="41.8789740" lon="-8.8369170">
        <ele>2.8</ele>
        <time>2021-05-18T15:02:25Z</time>
      </trkpt>
      <trkpt lat="41.8789740" lon="-8.8369170">
        <ele>2.8</ele>
        <time>2021-05-18T15:02:26Z</time>
      </trkpt>
      <trkpt lat="41.8789740" lon="-8.8369170">
        <ele>2.8</ele>
        <time>2021-05-18T15:02:27Z</time>
      </trkpt>
      <trkpt lat="41.8789740" lon="-8.8369170">
        <ele>2.8</ele>
        <time>2021-05-18T15:02:28Z</time>
      </trkpt>
      <trkpt lat="41.8789730" lon="-8.8369170">
        <ele>2.8</ele>
        <time>2021-05-18T15:02:29Z</time>
      </trkpt>
      <trkpt lat="41.8789730" lon="-8.8369170">
        <ele>2.8</ele>
        <time>2021-05-18T15:02:30Z</time>
      </trkpt>
      <trkpt lat="41.8789730" lon="-8.8369170">
        <ele>2.8</ele>
        <time>2021-05-18T15:02:31Z</time>
      </trkpt>
      <trkpt lat="41.8789730" lon="-8.8369170">
        <ele>2.8</ele>
        <time>2021-05-18T15:02:32Z</time>
      </trkpt>
      <trkpt lat="41.8789730" lon="-8.8369170">
        <ele>2.8</ele>
        <time>2021-05-18T15:02:33Z</time>
      </trkpt>
      <trkpt lat="41.8789730" lon="-8.8369160">
        <ele>2.8</ele>
        <time>2021-05-18T15:02:34Z</time>
      </trkpt>
      <trkpt lat="41.8789730" lon="-8.8369160">
        <ele>2.8</ele>
        <time>2021-05-18T15:02:36Z</time>
      </trkpt>
      <trkpt lat="41.8789730" lon="-8.8369160">
        <ele>2.8</ele>
        <time>2021-05-18T15:02:37Z</time>
      </trkpt>
      <trkpt lat="41.8789730" lon="-8.8369160">
        <ele>2.8</ele>
        <time>2021-05-18T15:02:38Z</time>
      </trkpt>
      <trkpt lat="41.8789730" lon="-8.8369160">
        <ele>2.8</ele>
        <time>2021-05-18T15:02:39Z</time>
      </trkpt>
      <trkpt lat="41.8789730" lon="-8.8369160">
        <ele>2.8</ele>
        <time>2021-05-18T15:02:40Z</time>
      </trkpt>
      <trkpt lat="41.8789730" lon="-8.8369160">
        <ele>2.8</ele>
        <time>2021-05-18T15:02:41Z</time>
      </trkpt>
      <trkpt lat="41.8789730" lon="-8.8369160">
        <ele>2.8</ele>
        <time>2021-05-18T15:02:42Z</time>
      </trkpt>
      <trkpt lat="41.8789730" lon="-8.8369160">
        <ele>2.8</ele>
        <time>2021-05-18T15:02:43Z</time>
      </trkpt>
      <trkpt lat="41.8789730" lon="-8.8369160">
        <ele>2.8</ele>
        <time>2021-05-18T15:02:44Z</time>
      </trkpt>
      <trkpt lat="41.8789730" lon="-8.8369160">
        <ele>2.8</ele>
        <time>2021-05-18T15:02:45Z</time>
      </trkpt>
      <trkpt lat="41.8789730" lon="-8.8369150">
        <ele>2.8</ele>
        <time>2021-05-18T15:02:46Z</time>
      </trkpt>
      <trkpt lat="41.8789730" lon="-8.8369150">
        <ele>2.8</ele>
        <time>2021-05-18T15:02:47Z</time>
      </trkpt>
      <trkpt lat="41.8789730" lon="-8.8369150">
        <ele>2.8</ele>
        <time>2021-05-18T15:02:48Z</time>
      </trkpt>
      <trkpt lat="41.8789730" lon="-8.8369150">
        <ele>2.8</ele>
        <time>2021-05-18T15:02:49Z</time>
      </trkpt>
      <trkpt lat="41.8789730" lon="-8.8369150">
        <ele>2.8</ele>
        <time>2021-05-18T15:02:50Z</time>
      </trkpt>
      <trkpt lat="41.8789730" lon="-8.8369150">
        <ele>2.8</ele>
        <time>2021-05-18T15:02:51Z</time>
      </trkpt>
      <trkpt lat="41.8789720" lon="-8.8369150">
        <ele>2.8</ele>
        <time>2021-05-18T15:02:52Z</time>
      </trkpt>
      <trkpt lat="41.8789720" lon="-8.8369150">
        <ele>2.8</ele>
        <time>2021-05-18T15:02:53Z</time>
      </trkpt>
      <trkpt lat="41.8789720" lon="-8.8369150">
        <ele>2.8</ele>
        <time>2021-05-18T15:02:54Z</time>
      </trkpt>
      <trkpt lat="41.8789720" lon="-8.8369150">
        <ele>2.8</ele>
        <time>2021-05-18T15:02:55Z</time>
      </trkpt>
      <trkpt lat="41.8789720" lon="-8.8369150">
        <ele>2.8</ele>
        <time>2021-05-18T15:02:56Z</time>
      </trkpt>
      <trkpt lat="41.8789720" lon="-8.8369150">
        <ele>2.8</ele>
        <time>2021-05-18T15:02:57Z</time>
      </trkpt>
      <trkpt lat="41.8789720" lon="-8.8369140">
        <ele>2.8</ele>
        <time>2021-05-18T15:02:58Z</time>
      </trkpt>
      <trkpt lat="41.8789720" lon="-8.8369140">
        <ele>2.8</ele>
        <time>2021-05-18T15:02:59Z</time>
      </trkpt>
      <trkpt lat="41.8789720" lon="-8.8369140">
        <ele>2.8</ele>
        <time>2021-05-18T15:03:00Z</time>
      </trkpt>
      <trkpt lat="41.8789720" lon="-8.8369140">
        <ele>2.8</ele>
        <time>2021-05-18T15:03:01Z</time>
      </trkpt>
      <trkpt lat="41.8789720" lon="-8.8369140">
        <ele>2.8</ele>
        <time>2021-05-18T15:03:02Z</time>
      </trkpt>
      <trkpt lat="41.8789720" lon="-8.8369140">
        <ele>2.8</ele>
        <time>2021-05-18T15:03:03Z</time>
      </trkpt>
      <trkpt lat="41.8789720" lon="-8.8369140">
        <ele>2.8</ele>
        <time>2021-05-18T15:03:04Z</time>
      </trkpt>
      <trkpt lat="41.8789720" lon="-8.8369140">
        <ele>2.8</ele>
        <time>2021-05-18T15:03:05Z</time>
      </trkpt>
      <trkpt lat="41.8789720" lon="-8.8369140">
        <ele>2.8</ele>
        <time>2021-05-18T15:03:06Z</time>
      </trkpt>
      <trkpt lat="41.8789720" lon="-8.8369140">
        <ele>2.8</ele>
        <time>2021-05-18T15:03:07Z</time>
      </trkpt>
      <trkpt lat="41.8789720" lon="-8.8369140">
        <ele>2.8</ele>
        <time>2021-05-18T15:03:08Z</time>
      </trkpt>
      <trkpt lat="41.8789720" lon="-8.8369130">
        <ele>2.8</ele>
        <time>2021-05-18T15:03:09Z</time>
      </trkpt>
      <trkpt lat="41.8789720" lon="-8.8369130">
        <ele>2.8</ele>
        <time>2021-05-18T15:03:10Z</time>
      </trkpt>
      <trkpt lat="41.8789720" lon="-8.8369130">
        <ele>2.8</ele>
        <time>2021-05-18T15:03:11Z</time>
      </trkpt>
      <trkpt lat="41.8789720" lon="-8.8369130">
        <ele>2.8</ele>
        <time>2021-05-18T15:03:12Z</time>
      </trkpt>
      <trkpt lat="41.8789720" lon="-8.8369130">
        <ele>2.8</ele>
        <time>2021-05-18T15:03:13Z</time>
      </trkpt>
      <trkpt lat="41.8789710" lon="-8.8369130">
        <ele>2.8</ele>
        <time>2021-05-18T15:03:14Z</time>
      </trkpt>
      <trkpt lat="41.8789710" lon="-8.8369130">
        <ele>2.8</ele>
        <time>2021-05-18T15:03:15Z</time>
      </trkpt>
      <trkpt lat="41.8789710" lon="-8.8369130">
        <ele>2.8</ele>
        <time>2021-05-18T15:03:16Z</time>
      </trkpt>
      <trkpt lat="41.8789710" lon="-8.8369130">
        <ele>2.8</ele>
        <time>2021-05-18T15:03:17Z</time>
      </trkpt>
      <trkpt lat="41.8789710" lon="-8.8369130">
        <ele>2.8</ele>
        <time>2021-05-18T15:03:18Z</time>
      </trkpt>
      <trkpt lat="41.8789710" lon="-8.8369130">
        <ele>2.8</ele>
        <time>2021-05-18T15:03:19Z</time>
      </trkpt>
      <trkpt lat="41.8789710" lon="-8.8369120">
        <ele>2.8</ele>
        <time>2021-05-18T15:03:20Z</time>
      </trkpt>
      <trkpt lat="41.8789710" lon="-8.8369120">
        <ele>2.8</ele>
        <time>2021-05-18T15:03:21Z</time>
      </trkpt>
      <trkpt lat="41.8789710" lon="-8.8369120">
        <ele>2.8</ele>
        <time>2021-05-18T15:03:22Z</time>
      </trkpt>
      <trkpt lat="41.8789710" lon="-8.8369120">
        <ele>2.8</ele>
        <time>2021-05-18T15:03:23Z</time>
      </trkpt>
      <trkpt lat="41.8789710" lon="-8.8369120">
        <ele>2.8</ele>
        <time>2021-05-18T15:03:24Z</time>
      </trkpt>
      <trkpt lat="41.8789710" lon="-8.8369120">
        <ele>2.8</ele>
        <time>2021-05-18T15:03:25Z</time>
      </trkpt>
      <trkpt lat="41.8789710" lon="-8.8369120">
        <ele>2.8</ele>
        <time>2021-05-18T15:03:26Z</time>
      </trkpt>
      <trkpt lat="41.8789710" lon="-8.8369120">
        <ele>2.8</ele>
        <time>2021-05-18T15:03:27Z</time>
      </trkpt>
      <trkpt lat="41.8789710" lon="-8.8369120">
        <ele>2.8</ele>
        <time>2021-05-18T15:03:28Z</time>
      </trkpt>
      <trkpt lat="41.8789710" lon="-8.8369120">
        <ele>2.8</ele>
        <time>2021-05-18T15:03:29Z</time>
      </trkpt>
      <trkpt lat="41.8789710" lon="-8.8369120">
        <ele>2.8</ele>
        <time>2021-05-18T15:03:30Z</time>
      </trkpt>
      <trkpt lat="41.8789710" lon="-8.8369110">
        <ele>2.8</ele>
        <time>2021-05-18T15:03:31Z</time>
      </trkpt>
      <trkpt lat="41.8789710" lon="-8.8369110">
        <ele>2.8</ele>
        <time>2021-05-18T15:03:32Z</time>
      </trkpt>
      <trkpt lat="41.8789710" lon="-8.8369110">
        <ele>2.8</ele>
        <time>2021-05-18T15:03:33Z</time>
      </trkpt>
      <trkpt lat="41.8789710" lon="-8.8369110">
        <ele>2.8</ele>
        <time>2021-05-18T15:03:34Z</time>
      </trkpt>
      <trkpt lat="41.8789710" lon="-8.8369110">
        <ele>2.8</ele>
        <time>2021-05-18T15:03:35Z</time>
      </trkpt>
      <trkpt lat="41.8789710" lon="-8.8369110">
        <ele>2.8</ele>
        <time>2021-05-18T15:03:36Z</time>
      </trkpt>
      <trkpt lat="41.8789700" lon="-8.8369110">
        <ele>2.8</ele>
        <time>2021-05-18T15:03:37Z</time>
      </trkpt>
      <trkpt lat="41.8789700" lon="-8.8369110">
        <ele>2.8</ele>
        <time>2021-05-18T15:03:38Z</time>
      </trkpt>
      <trkpt lat="41.8789700" lon="-8.8369110">
        <ele>2.8</ele>
        <time>2021-05-18T15:03:39Z</time>
      </trkpt>
      <trkpt lat="41.8789700" lon="-8.8369110">
        <ele>2.8</ele>
        <time>2021-05-18T15:03:40Z</time>
      </trkpt>
      <trkpt lat="41.8789700" lon="-8.8369110">
        <ele>2.8</ele>
        <time>2021-05-18T15:03:41Z</time>
      </trkpt>
      <trkpt lat="41.8789700" lon="-8.8369100">
        <ele>2.8</ele>
        <time>2021-05-18T15:03:42Z</time>
      </trkpt>
      <trkpt lat="41.8789700" lon="-8.8369100">
        <ele>2.8</ele>
        <time>2021-05-18T15:03:43Z</time>
      </trkpt>
      <trkpt lat="41.8789700" lon="-8.8369100">
        <ele>2.8</ele>
        <time>2021-05-18T15:03:44Z</time>
      </trkpt>
      <trkpt lat="41.8789700" lon="-8.8369100">
        <ele>2.8</ele>
        <time>2021-05-18T15:03:45Z</time>
      </trkpt>
      <trkpt lat="41.8789700" lon="-8.8369100">
        <ele>2.8</ele>
        <time>2021-05-18T15:03:46Z</time>
      </trkpt>
      <trkpt lat="41.8789700" lon="-8.8369100">
        <ele>2.8</ele>
        <time>2021-05-18T15:03:47Z</time>
      </trkpt>
      <trkpt lat="41.8789700" lon="-8.8369100">
        <ele>2.8</ele>
        <time>2021-05-18T15:03:48Z</time>
      </trkpt>
      <trkpt lat="41.8789700" lon="-8.8369100">
        <ele>2.8</ele>
        <time>2021-05-18T15:03:49Z</time>
      </trkpt>
      <trkpt lat="41.8789700" lon="-8.8369100">
        <ele>2.8</ele>
        <time>2021-05-18T15:03:50Z</time>
      </trkpt>
      <trkpt lat="41.8789700" lon="-8.8369100">
        <ele>2.8</ele>
        <time>2021-05-18T15:03:51Z</time>
      </trkpt>
      <trkpt lat="41.8789700" lon="-8.8369100">
        <ele>2.8</ele>
        <time>2021-05-18T15:03:52Z</time>
      </trkpt>
      <trkpt lat="41.8789700" lon="-8.8369100">
        <ele>2.8</ele>
        <time>2021-05-18T15:03:53Z</time>
      </trkpt>
      <trkpt lat="41.8789700" lon="-8.8369090">
        <ele>2.8</ele>
        <time>2021-05-18T15:03:54Z</time>
      </trkpt>
      <trkpt lat="41.8789700" lon="-8.8369090">
        <ele>2.8</ele>
        <time>2021-05-18T15:03:55Z</time>
      </trkpt>
      <trkpt lat="41.8789700" lon="-8.8369090">
        <ele>2.8</ele>
        <time>2021-05-18T15:03:56Z</time>
      </trkpt>
      <trkpt lat="41.8789700" lon="-8.8369090">
        <ele>2.8</ele>
        <time>2021-05-18T15:03:57Z</time>
      </trkpt>
      <trkpt lat="41.8789700" lon="-8.8369090">
        <ele>2.8</ele>
        <time>2021-05-18T15:03:58Z</time>
      </trkpt>
      <trkpt lat="41.8789690" lon="-8.8369090">
        <ele>2.8</ele>
        <time>2021-05-18T15:03:59Z</time>
      </trkpt>
      <trkpt lat="41.8789690" lon="-8.8369090">
        <ele>2.8</ele>
        <time>2021-05-18T15:04:00Z</time>
      </trkpt>
      <trkpt lat="41.8789690" lon="-8.8369090">
        <ele>2.8</ele>
        <time>2021-05-18T15:04:01Z</time>
      </trkpt>
      <trkpt lat="41.8789690" lon="-8.8369090">
        <ele>2.8</ele>
        <time>2021-05-18T15:04:02Z</time>
      </trkpt>
      <trkpt lat="41.8789690" lon="-8.8369090">
        <ele>2.8</ele>
        <time>2021-05-18T15:04:03Z</time>
      </trkpt>
      <trkpt lat="41.8789690" lon="-8.8369090">
        <ele>2.8</ele>
        <time>2021-05-18T15:04:04Z</time>
      </trkpt>
      <trkpt lat="41.8789690" lon="-8.8369080">
        <ele>2.8</ele>
        <time>2021-05-18T15:04:05Z</time>
      </trkpt>
      <trkpt lat="41.8789690" lon="-8.8369080">
        <ele>2.8</ele>
        <time>2021-05-18T15:04:07Z</time>
      </trkpt>
      <trkpt lat="41.8789690" lon="-8.8369080">
        <ele>2.8</ele>
        <time>2021-05-18T15:04:08Z</time>
      </trkpt>
      <trkpt lat="41.8789690" lon="-8.8369080">
        <ele>2.8</ele>
        <time>2021-05-18T15:04:09Z</time>
      </trkpt>
      <trkpt lat="41.8789690" lon="-8.8369080">
        <ele>2.8</ele>
        <time>2021-05-18T15:04:10Z</time>
      </trkpt>
      <trkpt lat="41.8789690" lon="-8.8369080">
        <ele>2.8</ele>
        <time>2021-05-18T15:04:11Z</time>
      </trkpt>
      <trkpt lat="41.8789690" lon="-8.8369080">
        <ele>2.8</ele>
        <time>2021-05-18T15:04:12Z</time>
      </trkpt>
      <trkpt lat="41.8789690" lon="-8.8369080">
        <ele>2.8</ele>
        <time>2021-05-18T15:04:13Z</time>
      </trkpt>
      <trkpt lat="41.8789690" lon="-8.8369080">
        <ele>2.8</ele>
        <time>2021-05-18T15:04:14Z</time>
      </trkpt>
      <trkpt lat="41.8789690" lon="-8.8369080">
        <ele>2.8</ele>
        <time>2021-05-18T15:04:15Z</time>
      </trkpt>
      <trkpt lat="41.8789690" lon="-8.8369080">
        <ele>2.8</ele>
        <time>2021-05-18T15:04:16Z</time>
      </trkpt>
      <trkpt lat="41.8789690" lon="-8.8369070">
        <ele>2.8</ele>
        <time>2021-05-18T15:04:17Z</time>
      </trkpt>
      <trkpt lat="41.8789690" lon="-8.8369070">
        <ele>2.8</ele>
        <time>2021-05-18T15:04:18Z</time>
      </trkpt>
      <trkpt lat="41.8789690" lon="-8.8369070">
        <ele>2.8</ele>
        <time>2021-05-18T15:04:19Z</time>
      </trkpt>
      <trkpt lat="41.8789690" lon="-8.8369070">
        <ele>2.8</ele>
        <time>2021-05-18T15:04:20Z</time>
      </trkpt>
      <trkpt lat="41.8789690" lon="-8.8369070">
        <ele>2.8</ele>
        <time>2021-05-18T15:04:21Z</time>
      </trkpt>
      <trkpt lat="41.8789690" lon="-8.8369070">
        <ele>2.8</ele>
        <time>2021-05-18T15:04:22Z</time>
      </trkpt>
      <trkpt lat="41.8789680" lon="-8.8369070">
        <ele>2.8</ele>
        <time>2021-05-18T15:04:23Z</time>
      </trkpt>
      <trkpt lat="41.8789680" lon="-8.8369070">
        <ele>2.8</ele>
        <time>2021-05-18T15:04:24Z</time>
      </trkpt>
      <trkpt lat="41.8789680" lon="-8.8369070">
        <ele>2.8</ele>
        <time>2021-05-18T15:04:25Z</time>
      </trkpt>
      <trkpt lat="41.8789680" lon="-8.8369070">
        <ele>2.8</ele>
        <time>2021-05-18T15:04:26Z</time>
      </trkpt>
      <trkpt lat="41.8789680" lon="-8.8369070">
        <ele>2.8</ele>
        <time>2021-05-18T15:04:27Z</time>
      </trkpt>
      <trkpt lat="41.8789680" lon="-8.8369060">
        <ele>2.8</ele>
        <time>2021-05-18T15:04:28Z</time>
      </trkpt>
      <trkpt lat="41.8789680" lon="-8.8369060">
        <ele>2.8</ele>
        <time>2021-05-18T15:04:29Z</time>
      </trkpt>
      <trkpt lat="41.8789680" lon="-8.8369060">
        <ele>2.8</ele>
        <time>2021-05-18T15:04:30Z</time>
      </trkpt>
      <trkpt lat="41.8789680" lon="-8.8369060">
        <ele>2.8</ele>
        <time>2021-05-18T15:04:31Z</time>
      </trkpt>
      <trkpt lat="41.8789680" lon="-8.8369060">
        <ele>2.8</ele>
        <time>2021-05-18T15:04:32Z</time>
      </trkpt>
      <trkpt lat="41.8789680" lon="-8.8369060">
        <ele>2.8</ele>
        <time>2021-05-18T15:04:33Z</time>
      </trkpt>
      <trkpt lat="41.8789680" lon="-8.8369060">
        <ele>2.8</ele>
        <time>2021-05-18T15:04:34Z</time>
      </trkpt>
      <trkpt lat="41.8789680" lon="-8.8369060">
        <ele>2.8</ele>
        <time>2021-05-18T15:04:35Z</time>
      </trkpt>
      <trkpt lat="41.8789680" lon="-8.8369060">
        <ele>2.8</ele>
        <time>2021-05-18T15:04:36Z</time>
      </trkpt>
      <trkpt lat="41.8789680" lon="-8.8369060">
        <ele>2.8</ele>
        <time>2021-05-18T15:04:37Z</time>
      </trkpt>
      <trkpt lat="41.8789680" lon="-8.8369060">
        <ele>2.8</ele>
        <time>2021-05-18T15:04:38Z</time>
      </trkpt>
      <trkpt lat="41.8789680" lon="-8.8369050">
        <ele>2.8</ele>
        <time>2021-05-18T15:04:39Z</time>
      </trkpt>
      <trkpt lat="41.8789680" lon="-8.8369050">
        <ele>2.8</ele>
        <time>2021-05-18T15:04:40Z</time>
      </trkpt>
      <trkpt lat="41.8789680" lon="-8.8369050">
        <ele>2.8</ele>
        <time>2021-05-18T15:04:41Z</time>
      </trkpt>
      <trkpt lat="41.8789680" lon="-8.8369050">
        <ele>2.8</ele>
        <time>2021-05-18T15:04:42Z</time>
      </trkpt>
      <trkpt lat="41.8789680" lon="-8.8369050">
        <ele>2.8</ele>
        <time>2021-05-18T15:04:43Z</time>
      </trkpt>
      <trkpt lat="41.8789680" lon="-8.8369050">
        <ele>2.8</ele>
        <time>2021-05-18T15:04:44Z</time>
      </trkpt>
      <trkpt lat="41.8789670" lon="-8.8369050">
        <ele>2.8</ele>
        <time>2021-05-18T15:04:45Z</time>
      </trkpt>
      <trkpt lat="41.8789670" lon="-8.8369050">
        <ele>2.8</ele>
        <time>2021-05-18T15:04:46Z</time>
      </trkpt>
      <trkpt lat="41.8789670" lon="-8.8369050">
        <ele>2.8</ele>
        <time>2021-05-18T15:04:47Z</time>
      </trkpt>
      <trkpt lat="41.8789670" lon="-8.8369050">
        <ele>2.8</ele>
        <time>2021-05-18T15:04:48Z</time>
      </trkpt>
      <trkpt lat="41.8789670" lon="-8.8369050">
        <ele>2.8</ele>
        <time>2021-05-18T15:04:49Z</time>
      </trkpt>
      <trkpt lat="41.8789670" lon="-8.8369050">
        <ele>2.8</ele>
        <time>2021-05-18T15:04:50Z</time>
      </trkpt>
      <trkpt lat="41.8789670" lon="-8.8369040">
        <ele>2.8</ele>
        <time>2021-05-18T15:04:51Z</time>
      </trkpt>
      <trkpt lat="41.8789670" lon="-8.8369040">
        <ele>2.8</ele>
        <time>2021-05-18T15:04:52Z</time>
      </trkpt>
      <trkpt lat="41.8789670" lon="-8.8369040">
        <ele>2.8</ele>
        <time>2021-05-18T15:04:53Z</time>
      </trkpt>
      <trkpt lat="41.8789670" lon="-8.8369040">
        <ele>2.8</ele>
        <time>2021-05-18T15:04:54Z</time>
      </trkpt>
      <trkpt lat="41.8789670" lon="-8.8369040">
        <ele>2.8</ele>
        <time>2021-05-18T15:04:55Z</time>
      </trkpt>
      <trkpt lat="41.8789670" lon="-8.8369040">
        <ele>2.8</ele>
        <time>2021-05-18T15:04:56Z</time>
      </trkpt>
      <trkpt lat="41.8789670" lon="-8.8369040">
        <ele>2.8</ele>
        <time>2021-05-18T15:04:57Z</time>
      </trkpt>
      <trkpt lat="41.8789670" lon="-8.8369040">
        <ele>2.8</ele>
        <time>2021-05-18T15:04:58Z</time>
      </trkpt>
      <trkpt lat="41.8789670" lon="-8.8369040">
        <ele>2.8</ele>
        <time>2021-05-18T15:04:59Z</time>
      </trkpt>
      <trkpt lat="41.8789670" lon="-8.8369040">
        <ele>2.8</ele>
        <time>2021-05-18T15:05:00Z</time>
      </trkpt>
      <trkpt lat="41.8789670" lon="-8.8369040">
        <ele>2.8</ele>
        <time>2021-05-18T15:05:01Z</time>
      </trkpt>
      <trkpt lat="41.8789670" lon="-8.8369030">
        <ele>2.8</ele>
        <time>2021-05-18T15:05:02Z</time>
      </trkpt>
      <trkpt lat="41.8789670" lon="-8.8369030">
        <ele>2.8</ele>
        <time>2021-05-18T15:05:03Z</time>
      </trkpt>
      <trkpt lat="41.8789670" lon="-8.8369030">
        <ele>2.8</ele>
        <time>2021-05-18T15:05:04Z</time>
      </trkpt>
      <trkpt lat="41.8789670" lon="-8.8369030">
        <ele>2.8</ele>
        <time>2021-05-18T15:05:05Z</time>
      </trkpt>
      <trkpt lat="41.8789670" lon="-8.8369030">
        <ele>2.8</ele>
        <time>2021-05-18T15:05:06Z</time>
      </trkpt>
      <trkpt lat="41.8789660" lon="-8.8369030">
        <ele>2.8</ele>
        <time>2021-05-18T15:05:07Z</time>
      </trkpt>
      <trkpt lat="41.8789660" lon="-8.8369030">
        <ele>2.8</ele>
        <time>2021-05-18T15:05:08Z</time>
      </trkpt>
      <trkpt lat="41.8789660" lon="-8.8369030">
        <ele>2.8</ele>
        <time>2021-05-18T15:05:09Z</time>
      </trkpt>
      <trkpt lat="41.8789660" lon="-8.8369030">
        <ele>2.8</ele>
        <time>2021-05-18T15:05:10Z</time>
      </trkpt>
      <trkpt lat="41.8789660" lon="-8.8369030">
        <ele>2.8</ele>
        <time>2021-05-18T15:05:11Z</time>
      </trkpt>
      <trkpt lat="41.8789660" lon="-8.8369030">
        <ele>2.8</ele>
        <time>2021-05-18T15:05:12Z</time>
      </trkpt>
      <trkpt lat="41.8789660" lon="-8.8369020">
        <ele>2.8</ele>
        <time>2021-05-18T15:05:13Z</time>
      </trkpt>
      <trkpt lat="41.8789660" lon="-8.8369020">
        <ele>2.8</ele>
        <time>2021-05-18T15:05:14Z</time>
      </trkpt>
      <trkpt lat="41.8789660" lon="-8.8369020">
        <ele>2.8</ele>
        <time>2021-05-18T15:05:15Z</time>
      </trkpt>
      <trkpt lat="41.8789660" lon="-8.8369020">
        <ele>2.8</ele>
        <time>2021-05-18T15:05:16Z</time>
      </trkpt>
      <trkpt lat="41.8789660" lon="-8.8369020">
        <ele>2.8</ele>
        <time>2021-05-18T15:05:17Z</time>
      </trkpt>
      <trkpt lat="41.8789660" lon="-8.8369020">
        <ele>2.8</ele>
        <time>2021-05-18T15:05:18Z</time>
      </trkpt>
      <trkpt lat="41.8789660" lon="-8.8369020">
        <ele>2.8</ele>
        <time>2021-05-18T15:05:19Z</time>
      </trkpt>
      <trkpt lat="41.8789660" lon="-8.8369020">
        <ele>2.8</ele>
        <time>2021-05-18T15:05:20Z</time>
      </trkpt>
      <trkpt lat="41.8789660" lon="-8.8369020">
        <ele>2.8</ele>
        <time>2021-05-18T15:05:21Z</time>
      </trkpt>
      <trkpt lat="41.8789660" lon="-8.8369020">
        <ele>2.8</ele>
        <time>2021-05-18T15:05:22Z</time>
      </trkpt>
      <trkpt lat="41.8789660" lon="-8.8369020">
        <ele>2.8</ele>
        <time>2021-05-18T15:05:23Z</time>
      </trkpt>
      <trkpt lat="41.8789660" lon="-8.8369010">
        <ele>2.8</ele>
        <time>2021-05-18T15:05:24Z</time>
      </trkpt>
      <trkpt lat="41.8789660" lon="-8.8369010">
        <ele>2.8</ele>
        <time>2021-05-18T15:05:25Z</time>
      </trkpt>
      <trkpt lat="41.8789660" lon="-8.8369010">
        <ele>2.8</ele>
        <time>2021-05-18T15:05:26Z</time>
      </trkpt>
      <trkpt lat="41.8789660" lon="-8.8369010">
        <ele>2.8</ele>
        <time>2021-05-18T15:05:27Z</time>
      </trkpt>
      <trkpt lat="41.8789660" lon="-8.8369010">
        <ele>2.8</ele>
        <time>2021-05-18T15:05:28Z</time>
      </trkpt>
      <trkpt lat="41.8789660" lon="-8.8369010">
        <ele>2.8</ele>
        <time>2021-05-18T15:05:29Z</time>
      </trkpt>
      <trkpt lat="41.8789650" lon="-8.8369010">
        <ele>2.8</ele>
        <time>2021-05-18T15:05:30Z</time>
      </trkpt>
      <trkpt lat="41.8789650" lon="-8.8369010">
        <ele>2.8</ele>
        <time>2021-05-18T15:05:31Z</time>
      </trkpt>
      <trkpt lat="41.8789650" lon="-8.8369010">
        <ele>2.8</ele>
        <time>2021-05-18T15:05:32Z</time>
      </trkpt>
      <trkpt lat="41.8789650" lon="-8.8369010">
        <ele>2.8</ele>
        <time>2021-05-18T15:05:33Z</time>
      </trkpt>
      <trkpt lat="41.8789650" lon="-8.8369010">
        <ele>2.8</ele>
        <time>2021-05-18T15:05:34Z</time>
      </trkpt>
      <trkpt lat="41.8789650" lon="-8.8369000">
        <ele>2.8</ele>
        <time>2021-05-18T15:05:35Z</time>
      </trkpt>
      <trkpt lat="41.8789650" lon="-8.8369000">
        <ele>2.8</ele>
        <time>2021-05-18T15:05:36Z</time>
      </trkpt>
      <trkpt lat="41.8789650" lon="-8.8369000">
        <ele>2.8</ele>
        <time>2021-05-18T15:05:37Z</time>
      </trkpt>
      <trkpt lat="41.8789650" lon="-8.8369000">
        <ele>2.8</ele>
        <time>2021-05-18T15:05:38Z</time>
      </trkpt>
      <trkpt lat="41.8789650" lon="-8.8369000">
        <ele>2.8</ele>
        <time>2021-05-18T15:05:39Z</time>
      </trkpt>
      <trkpt lat="41.8789650" lon="-8.8369000">
        <ele>2.8</ele>
        <time>2021-05-18T15:05:40Z</time>
      </trkpt>
      <trkpt lat="41.8789650" lon="-8.8369000">
        <ele>2.8</ele>
        <time>2021-05-18T15:05:41Z</time>
      </trkpt>
      <trkpt lat="41.8789650" lon="-8.8369000">
        <ele>2.8</ele>
        <time>2021-05-18T15:05:42Z</time>
      </trkpt>
      <trkpt lat="41.8789650" lon="-8.8369000">
        <ele>2.8</ele>
        <time>2021-05-18T15:05:43Z</time>
      </trkpt>
      <trkpt lat="41.8789650" lon="-8.8369000">
        <ele>2.8</ele>
        <time>2021-05-18T15:05:44Z</time>
      </trkpt>
      <trkpt lat="41.8789650" lon="-8.8369000">
        <ele>2.8</ele>
        <time>2021-05-18T15:05:45Z</time>
      </trkpt>
      <trkpt lat="41.8789650" lon="-8.8369000">
        <ele>2.8</ele>
        <time>2021-05-18T15:05:46Z</time>
      </trkpt>
      <trkpt lat="41.8789650" lon="-8.8368990">
        <ele>2.8</ele>
        <time>2021-05-18T15:05:47Z</time>
      </trkpt>
      <trkpt lat="41.8789650" lon="-8.8368990">
        <ele>2.8</ele>
        <time>2021-05-18T15:05:48Z</time>
      </trkpt>
      <trkpt lat="41.8789650" lon="-8.8368990">
        <ele>2.8</ele>
        <time>2021-05-18T15:05:49Z</time>
      </trkpt>
      <trkpt lat="41.8789650" lon="-8.8368990">
        <ele>2.8</ele>
        <time>2021-05-18T15:05:50Z</time>
      </trkpt>
      <trkpt lat="41.8789650" lon="-8.8368990">
        <ele>2.8</ele>
        <time>2021-05-18T15:05:51Z</time>
      </trkpt>
      <trkpt lat="41.8789640" lon="-8.8368990">
        <ele>2.8</ele>
        <time>2021-05-18T15:05:52Z</time>
      </trkpt>
      <trkpt lat="41.8789640" lon="-8.8368990">
        <ele>2.8</ele>
        <time>2021-05-18T15:05:53Z</time>
      </trkpt>
      <trkpt lat="41.8789640" lon="-8.8368990">
        <ele>2.8</ele>
        <time>2021-05-18T15:05:54Z</time>
      </trkpt>
      <trkpt lat="41.8789640" lon="-8.8368990">
        <ele>2.8</ele>
        <time>2021-05-18T15:05:55Z</time>
      </trkpt>
      <trkpt lat="41.8789640" lon="-8.8368990">
        <ele>2.8</ele>
        <time>2021-05-18T15:05:56Z</time>
      </trkpt>
      <trkpt lat="41.8789640" lon="-8.8368990">
        <ele>2.8</ele>
        <time>2021-05-18T15:05:57Z</time>
      </trkpt>
      <trkpt lat="41.8789640" lon="-8.8368980">
        <ele>2.8</ele>
        <time>2021-05-18T15:05:58Z</time>
      </trkpt>
      <trkpt lat="41.8789640" lon="-8.8368980">
        <ele>2.8</ele>
        <time>2021-05-18T15:05:59Z</time>
      </trkpt>
      <trkpt lat="41.8789640" lon="-8.8368980">
        <ele>2.8</ele>
        <time>2021-05-18T15:06:00Z</time>
      </trkpt>
      <trkpt lat="41.8789640" lon="-8.8368980">
        <ele>2.8</ele>
        <time>2021-05-18T15:06:01Z</time>
      </trkpt>
      <trkpt lat="41.8789640" lon="-8.8368980">
        <ele>2.8</ele>
        <time>2021-05-18T15:06:02Z</time>
      </trkpt>
      <trkpt lat="41.8789640" lon="-8.8368980">
        <ele>2.8</ele>
        <time>2021-05-18T15:06:03Z</time>
      </trkpt>
      <trkpt lat="41.8789670" lon="-8.8368920">
        <ele>2.8</ele>
        <time>2021-05-18T15:06:04Z</time>
      </trkpt>
      <trkpt lat="41.8789710" lon="-8.8368880">
        <ele>2.8</ele>
        <time>2021-05-18T15:06:05Z</time>
      </trkpt>
      <trkpt lat="41.8789750" lon="-8.8368830">
        <ele>2.8</ele>
        <time>2021-05-18T15:06:06Z</time>
      </trkpt>
      <trkpt lat="41.8789800" lon="-8.8368780">
        <ele>2.8</ele>
        <time>2021-05-18T15:06:07Z</time>
      </trkpt>
      <trkpt lat="41.8789840" lon="-8.8368730">
        <ele>2.8</ele>
        <time>2021-05-18T15:06:08Z</time>
      </trkpt>
      <trkpt lat="41.8789880" lon="-8.8368690">
        <ele>2.8</ele>
        <time>2021-05-18T15:06:09Z</time>
      </trkpt>
      <trkpt lat="41.8789920" lon="-8.8368640">
        <ele>2.8</ele>
        <time>2021-05-18T15:06:10Z</time>
      </trkpt>
      <trkpt lat="41.8789850" lon="-8.8368890">
        <ele>2.8</ele>
        <time>2021-05-18T15:06:11Z</time>
      </trkpt>
      <trkpt lat="41.8789830" lon="-8.8369030">
        <ele>2.8</ele>
        <time>2021-05-18T15:06:12Z</time>
      </trkpt>
      <trkpt lat="41.8789800" lon="-8.8369160">
        <ele>2.8</ele>
        <time>2021-05-18T15:06:13Z</time>
      </trkpt>
      <trkpt lat="41.8789780" lon="-8.8369300">
        <ele>2.8</ele>
        <time>2021-05-18T15:06:14Z</time>
      </trkpt>
      <trkpt lat="41.8789850" lon="-8.8369140">
        <ele>2.8</ele>
        <time>2021-05-18T15:06:15Z</time>
      </trkpt>
      <trkpt lat="41.8789910" lon="-8.8369150">
        <ele>2.8</ele>
        <time>2021-05-18T15:06:16Z</time>
      </trkpt>
      <trkpt lat="41.8789960" lon="-8.8369150">
        <ele>2.8</ele>
        <time>2021-05-18T15:06:17Z</time>
      </trkpt>
      <trkpt lat="41.8790010" lon="-8.8369160">
        <ele>2.8</ele>
        <time>2021-05-18T15:06:18Z</time>
      </trkpt>
      <trkpt lat="41.8790060" lon="-8.8369160">
        <ele>2.8</ele>
        <time>2021-05-18T15:06:19Z</time>
      </trkpt>
      <trkpt lat="41.8790120" lon="-8.8369170">
        <ele>2.8</ele>
        <time>2021-05-18T15:06:20Z</time>
      </trkpt>
      <trkpt lat="41.8790170" lon="-8.8369170">
        <ele>2.8</ele>
        <time>2021-05-18T15:06:21Z</time>
      </trkpt>
      <trkpt lat="41.8790220" lon="-8.8369180">
        <ele>2.8</ele>
        <time>2021-05-18T15:06:22Z</time>
      </trkpt>
      <trkpt lat="41.8790180" lon="-8.8369160">
        <ele>2.8</ele>
        <time>2021-05-18T15:06:23Z</time>
      </trkpt>
      <trkpt lat="41.8790180" lon="-8.8369160">
        <ele>2.8</ele>
        <time>2021-05-18T15:06:24Z</time>
      </trkpt>
      <trkpt lat="41.8790180" lon="-8.8369160">
        <ele>2.8</ele>
        <time>2021-05-18T15:06:25Z</time>
      </trkpt>
      <trkpt lat="41.8790180" lon="-8.8369160">
        <ele>2.8</ele>
        <time>2021-05-18T15:06:26Z</time>
      </trkpt>
      <trkpt lat="41.8790180" lon="-8.8369160">
        <ele>2.8</ele>
        <time>2021-05-18T15:06:27Z</time>
      </trkpt>
      <trkpt lat="41.8790180" lon="-8.8369160">
        <ele>2.8</ele>
        <time>2021-05-18T15:06:28Z</time>
      </trkpt>
      <trkpt lat="41.8790180" lon="-8.8369160">
        <ele>2.8</ele>
        <time>2021-05-18T15:06:29Z</time>
      </trkpt>
      <trkpt lat="41.8790180" lon="-8.8369160">
        <ele>2.8</ele>
        <time>2021-05-18T15:06:30Z</time>
      </trkpt>
      <trkpt lat="41.8790180" lon="-8.8369160">
        <ele>2.8</ele>
        <time>2021-05-18T15:06:31Z</time>
      </trkpt>
      <trkpt lat="41.8790180" lon="-8.8369160">
        <ele>2.8</ele>
        <time>2021-05-18T15:06:32Z</time>
      </trkpt>
      <trkpt lat="41.8790180" lon="-8.8369160">
        <ele>2.8</ele>
        <time>2021-05-18T15:06:33Z</time>
      </trkpt>
      <trkpt lat="41.8790040" lon="-8.8369540">
        <ele>2.8</ele>
        <time>2021-05-18T15:06:34Z</time>
      </trkpt>
      <trkpt lat="41.8790040" lon="-8.8369540">
        <ele>2.8</ele>
        <time>2021-05-18T15:06:35Z</time>
      </trkpt>
      <trkpt lat="41.8790020" lon="-8.8369550">
        <ele>2.8</ele>
        <time>2021-05-18T15:06:36Z</time>
      </trkpt>
      <trkpt lat="41.8790020" lon="-8.8369550">
        <ele>2.8</ele>
        <time>2021-05-18T15:06:37Z</time>
      </trkpt>
      <trkpt lat="41.8790020" lon="-8.8369550">
        <ele>2.8</ele>
        <time>2021-05-18T15:06:38Z</time>
      </trkpt>
      <trkpt lat="41.8790020" lon="-8.8369550">
        <ele>2.8</ele>
        <time>2021-05-18T15:06:39Z</time>
      </trkpt>
      <trkpt lat="41.8790020" lon="-8.8369600">
        <ele>2.8</ele>
        <time>2021-05-18T15:06:40Z</time>
      </trkpt>
      <trkpt lat="41.8790000" lon="-8.8369610">
        <ele>2.8</ele>
        <time>2021-05-18T15:06:41Z</time>
      </trkpt>
      <trkpt lat="41.8789990" lon="-8.8369590">
        <ele>2.8</ele>
        <time>2021-05-18T15:06:42Z</time>
      </trkpt>
      <trkpt lat="41.8789990" lon="-8.8369610">
        <ele>2.8</ele>
        <time>2021-05-18T15:06:43Z</time>
      </trkpt>
      <trkpt lat="41.8790010" lon="-8.8369550">
        <ele>2.8</ele>
        <time>2021-05-18T15:06:44Z</time>
      </trkpt>
      <trkpt lat="41.8790020" lon="-8.8369500">
        <ele>2.8</ele>
        <time>2021-05-18T15:06:45Z</time>
      </trkpt>
      <trkpt lat="41.8790000" lon="-8.8369470">
        <ele>2.8</ele>
        <time>2021-05-18T15:06:46Z</time>
      </trkpt>
      <trkpt lat="41.8790000" lon="-8.8369470">
        <ele>2.8</ele>
        <time>2021-05-18T15:06:47Z</time>
      </trkpt>
      <trkpt lat="41.8789940" lon="-8.8369560">
        <ele>2.8</ele>
        <time>2021-05-18T15:06:48Z</time>
      </trkpt>
      <trkpt lat="41.8789920" lon="-8.8369490">
        <ele>2.8</ele>
        <time>2021-05-18T15:06:49Z</time>
      </trkpt>
      <trkpt lat="41.8789970" lon="-8.8369430">
        <ele>2.8</ele>
        <time>2021-05-18T15:06:50Z</time>
      </trkpt>
      <trkpt lat="41.8789960" lon="-8.8369380">
        <ele>2.8</ele>
        <time>2021-05-18T15:06:51Z</time>
      </trkpt>
      <trkpt lat="41.8789960" lon="-8.8369340">
        <ele>2.8</ele>
        <time>2021-05-18T15:06:52Z</time>
      </trkpt>
      <trkpt lat="41.8789920" lon="-8.8369360">
        <ele>2.8</ele>
        <time>2021-05-18T15:06:53Z</time>
      </trkpt>
      <trkpt lat="41.8789950" lon="-8.8369340">
        <ele>2.8</ele>
        <time>2021-05-18T15:06:54Z</time>
      </trkpt>
      <trkpt lat="41.8789950" lon="-8.8369340">
        <ele>2.8</ele>
        <time>2021-05-18T15:06:55Z</time>
      </trkpt>
      <trkpt lat="41.8789900" lon="-8.8369410">
        <ele>2.8</ele>
        <time>2021-05-18T15:06:56Z</time>
      </trkpt>
      <trkpt lat="41.8789870" lon="-8.8369380">
        <ele>2.8</ele>
        <time>2021-05-18T15:06:57Z</time>
      </trkpt>
      <trkpt lat="41.8789910" lon="-8.8369390">
        <ele>2.8</ele>
        <time>2021-05-18T15:06:58Z</time>
      </trkpt>
      <trkpt lat="41.8789910" lon="-8.8369390">
        <ele>2.8</ele>
        <time>2021-05-18T15:06:59Z</time>
      </trkpt>
      <trkpt lat="41.8789910" lon="-8.8369390">
        <ele>2.8</ele>
        <time>2021-05-18T15:07:00Z</time>
      </trkpt>
      <trkpt lat="41.8789970" lon="-8.8369360">
        <ele>2.8</ele>
        <time>2021-05-18T15:07:01Z</time>
      </trkpt>
      <trkpt lat="41.8789950" lon="-8.8369310">
        <ele>2.8</ele>
        <time>2021-05-18T15:07:02Z</time>
      </trkpt>
      <trkpt lat="41.8789930" lon="-8.8369310">
        <ele>2.8</ele>
        <time>2021-05-18T15:07:03Z</time>
      </trkpt>
      <trkpt lat="41.8790040" lon="-8.8369230">
        <ele>2.8</ele>
        <time>2021-05-18T15:07:04Z</time>
      </trkpt>
      <trkpt lat="41.8790050" lon="-8.8369250">
        <ele>2.8</ele>
        <time>2021-05-18T15:07:05Z</time>
      </trkpt>
      <trkpt lat="41.8790070" lon="-8.8369280">
        <ele>2.8</ele>
        <time>2021-05-18T15:07:06Z</time>
      </trkpt>
      <trkpt lat="41.8790060" lon="-8.8369290">
        <ele>2.8</ele>
        <time>2021-05-18T15:07:07Z</time>
      </trkpt>
      <trkpt lat="41.8790060" lon="-8.8369290">
        <ele>2.8</ele>
        <time>2021-05-18T15:07:08Z</time>
      </trkpt>
      <trkpt lat="41.8790120" lon="-8.8369300">
        <ele>2.8</ele>
        <time>2021-05-18T15:07:09Z</time>
      </trkpt>
      <trkpt lat="41.8790110" lon="-8.8369290">
        <ele>2.8</ele>
        <time>2021-05-18T15:07:10Z</time>
      </trkpt>
      <trkpt lat="41.8790120" lon="-8.8369290">
        <ele>2.8</ele>
        <time>2021-05-18T15:07:11Z</time>
      </trkpt>
      <trkpt lat="41.8790170" lon="-8.8369240">
        <ele>2.8</ele>
        <time>2021-05-18T15:07:12Z</time>
      </trkpt>
      <trkpt lat="41.8790210" lon="-8.8369170">
        <ele>2.8</ele>
        <time>2021-05-18T15:07:13Z</time>
      </trkpt>
      <trkpt lat="41.8790240" lon="-8.8369220">
        <ele>2.8</ele>
        <time>2021-05-18T15:07:14Z</time>
      </trkpt>
      <trkpt lat="41.8790200" lon="-8.8369240">
        <ele>2.8</ele>
        <time>2021-05-18T15:07:15Z</time>
      </trkpt>
      <trkpt lat="41.8790220" lon="-8.8369200">
        <ele>2.8</ele>
        <time>2021-05-18T15:07:16Z</time>
      </trkpt>
      <trkpt lat="41.8790200" lon="-8.8369190">
        <ele>2.8</ele>
        <time>2021-05-18T15:07:17Z</time>
      </trkpt>
      <trkpt lat="41.8790190" lon="-8.8369150">
        <ele>2.8</ele>
        <time>2021-05-18T15:07:18Z</time>
      </trkpt>
      <trkpt lat="41.8790160" lon="-8.8369210">
        <ele>2.8</ele>
        <time>2021-05-18T15:07:19Z</time>
      </trkpt>
      <trkpt lat="41.8790140" lon="-8.8369230">
        <ele>2.8</ele>
        <time>2021-05-18T15:07:20Z</time>
      </trkpt>
      <trkpt lat="41.8790070" lon="-8.8369320">
        <ele>2.8</ele>
        <time>2021-05-18T15:07:21Z</time>
      </trkpt>
      <trkpt lat="41.8790090" lon="-8.8369340">
        <ele>2.8</ele>
        <time>2021-05-18T15:07:22Z</time>
      </trkpt>
      <trkpt lat="41.8790100" lon="-8.8369320">
        <ele>2.8</ele>
        <time>2021-05-18T15:07:23Z</time>
      </trkpt>
      <trkpt lat="41.8790140" lon="-8.8369360">
        <ele>2.8</ele>
        <time>2021-05-18T15:07:24Z</time>
      </trkpt>
      <trkpt lat="41.8790220" lon="-8.8369260">
        <ele>2.8</ele>
        <time>2021-05-18T15:07:25Z</time>
      </trkpt>
      <trkpt lat="41.8790210" lon="-8.8369180">
        <ele>2.8</ele>
        <time>2021-05-18T15:07:26Z</time>
      </trkpt>
      <trkpt lat="41.8790220" lon="-8.8369130">
        <ele>2.8</ele>
        <time>2021-05-18T15:07:27Z</time>
      </trkpt>
      <trkpt lat="41.8790210" lon="-8.8369040">
        <ele>2.8</ele>
        <time>2021-05-18T15:07:28Z</time>
      </trkpt>
      <trkpt lat="41.8790220" lon="-8.8369020">
        <ele>2.8</ele>
        <time>2021-05-18T15:07:29Z</time>
      </trkpt>
      <trkpt lat="41.8790210" lon="-8.8369050">
        <ele>2.8</ele>
        <time>2021-05-18T15:07:30Z</time>
      </trkpt>
      <trkpt lat="41.8790150" lon="-8.8369070">
        <ele>2.8</ele>
        <time>2021-05-18T15:07:31Z</time>
      </trkpt>
      <trkpt lat="41.8790180" lon="-8.8369050">
        <ele>2.8</ele>
        <time>2021-05-18T15:07:32Z</time>
      </trkpt>
      <trkpt lat="41.8790230" lon="-8.8368990">
        <ele>2.8</ele>
        <time>2021-05-18T15:07:33Z</time>
      </trkpt>
      <trkpt lat="41.8790240" lon="-8.8368870">
        <ele>2.8</ele>
        <time>2021-05-18T15:07:34Z</time>
      </trkpt>
      <trkpt lat="41.8790260" lon="-8.8368770">
        <ele>2.8</ele>
        <time>2021-05-18T15:07:35Z</time>
      </trkpt>
      <trkpt lat="41.8790300" lon="-8.8368690">
        <ele>2.8</ele>
        <time>2021-05-18T15:07:36Z</time>
      </trkpt>
      <trkpt lat="41.8790330" lon="-8.8368720">
        <ele>2.8</ele>
        <time>2021-05-18T15:07:37Z</time>
      </trkpt>
      <trkpt lat="41.8790350" lon="-8.8368670">
        <ele>2.8</ele>
        <time>2021-05-18T15:07:38Z</time>
      </trkpt>
      <trkpt lat="41.8790400" lon="-8.8368680">
        <ele>2.8</ele>
        <time>2021-05-18T15:07:39Z</time>
      </trkpt>
      <trkpt lat="41.8790410" lon="-8.8368570">
        <ele>2.8</ele>
        <time>2021-05-18T15:07:40Z</time>
      </trkpt>
      <trkpt lat="41.8790390" lon="-8.8368480">
        <ele>2.8</ele>
        <time>2021-05-18T15:07:41Z</time>
      </trkpt>
      <trkpt lat="41.8790400" lon="-8.8368450">
        <ele>2.8</ele>
        <time>2021-05-18T15:07:42Z</time>
      </trkpt>
      <trkpt lat="41.8790380" lon="-8.8368390">
        <ele>2.8</ele>
        <time>2021-05-18T15:07:43Z</time>
      </trkpt>
      <trkpt lat="41.8790340" lon="-8.8368290">
        <ele>2.8</ele>
        <time>2021-05-18T15:07:44Z</time>
      </trkpt>
      <trkpt lat="41.8790340" lon="-8.8368230">
        <ele>2.8</ele>
        <time>2021-05-18T15:07:45Z</time>
      </trkpt>
      <trkpt lat="41.8790250" lon="-8.8368220">
        <ele>2.8</ele>
        <time>2021-05-18T15:07:46Z</time>
      </trkpt>
      <trkpt lat="41.8790220" lon="-8.8368180">
        <ele>2.8</ele>
        <time>2021-05-18T15:07:47Z</time>
      </trkpt>
      <trkpt lat="41.8790130" lon="-8.8368130">
        <ele>2.8</ele>
        <time>2021-05-18T15:07:48Z</time>
      </trkpt>
      <trkpt lat="41.8790020" lon="-8.8368030">
        <ele>2.8</ele>
        <time>2021-05-18T15:07:49Z</time>
      </trkpt>
      <trkpt lat="41.8790010" lon="-8.8368030">
        <ele>2.8</ele>
        <time>2021-05-18T15:07:50Z</time>
      </trkpt>
      <trkpt lat="41.8790070" lon="-8.8368050">
        <ele>2.8</ele>
        <time>2021-05-18T15:07:51Z</time>
      </trkpt>
      <trkpt lat="41.8790120" lon="-8.8368140">
        <ele>2.8</ele>
        <time>2021-05-18T15:07:52Z</time>
      </trkpt>
      <trkpt lat="41.8790100" lon="-8.8368180">
        <ele>2.8</ele>
        <time>2021-05-18T15:07:53Z</time>
      </trkpt>
      <trkpt lat="41.8790110" lon="-8.8368190">
        <ele>2.8</ele>
        <time>2021-05-18T15:07:54Z</time>
      </trkpt>
      <trkpt lat="41.8790050" lon="-8.8368210">
        <ele>2.8</ele>
        <time>2021-05-18T15:07:55Z</time>
      </trkpt>
      <trkpt lat="41.8790070" lon="-8.8368240">
        <ele>2.8</ele>
        <time>2021-05-18T15:07:56Z</time>
      </trkpt>
      <trkpt lat="41.8789990" lon="-8.8368290">
        <ele>2.8</ele>
        <time>2021-05-18T15:07:57Z</time>
      </trkpt>
      <trkpt lat="41.8789950" lon="-8.8368280">
        <ele>2.8</ele>
        <time>2021-05-18T15:07:58Z</time>
      </trkpt>
      <trkpt lat="41.8789900" lon="-8.8368300">
        <ele>2.8</ele>
        <time>2021-05-18T15:07:59Z</time>
      </trkpt>
      <trkpt lat="41.8789910" lon="-8.8368220">
        <ele>2.8</ele>
        <time>2021-05-18T15:08:00Z</time>
      </trkpt>
      <trkpt lat="41.8789890" lon="-8.8368170">
        <ele>2.8</ele>
        <time>2021-05-18T15:08:01Z</time>
      </trkpt>
      <trkpt lat="41.8789880" lon="-8.8368100">
        <ele>2.8</ele>
        <time>2021-05-18T15:08:02Z</time>
      </trkpt>
      <trkpt lat="41.8789830" lon="-8.8367990">
        <ele>2.8</ele>
        <time>2021-05-18T15:08:03Z</time>
      </trkpt>
      <trkpt lat="41.8789810" lon="-8.8367890">
        <ele>2.8</ele>
        <time>2021-05-18T15:08:04Z</time>
      </trkpt>
      <trkpt lat="41.8789730" lon="-8.8367780">
        <ele>2.8</ele>
        <time>2021-05-18T15:08:05Z</time>
      </trkpt>
      <trkpt lat="41.8789750" lon="-8.8367770">
        <ele>2.8</ele>
        <time>2021-05-18T15:08:06Z</time>
      </trkpt>
      <trkpt lat="41.8789770" lon="-8.8367830">
        <ele>2.8</ele>
        <time>2021-05-18T15:08:07Z</time>
      </trkpt>
      <trkpt lat="41.8789710" lon="-8.8367880">
        <ele>2.8</ele>
        <time>2021-05-18T15:08:08Z</time>
      </trkpt>
      <trkpt lat="41.8789670" lon="-8.8367740">
        <ele>2.8</ele>
        <time>2021-05-18T15:08:09Z</time>
      </trkpt>
      <trkpt lat="41.8789640" lon="-8.8367800">
        <ele>2.8</ele>
        <time>2021-05-18T15:08:10Z</time>
      </trkpt>
      <trkpt lat="41.8789960" lon="-8.8368110">
        <ele>2.8</ele>
        <time>2021-05-18T15:08:11Z</time>
      </trkpt>
      <trkpt lat="41.8790100" lon="-8.8368230">
        <ele>2.8</ele>
        <time>2021-05-18T15:08:12Z</time>
      </trkpt>
      <trkpt lat="41.8790170" lon="-8.8368340">
        <ele>2.8</ele>
        <time>2021-05-18T15:08:13Z</time>
      </trkpt>
      <trkpt lat="41.8790170" lon="-8.8368360">
        <ele>2.8</ele>
        <time>2021-05-18T15:08:14Z</time>
      </trkpt>
      <trkpt lat="41.8790150" lon="-8.8368620">
        <ele>2.8</ele>
        <time>2021-05-18T15:08:15Z</time>
      </trkpt>
      <trkpt lat="41.8790140" lon="-8.8368810">
        <ele>2.8</ele>
        <time>2021-05-18T15:08:16Z</time>
      </trkpt>
      <trkpt lat="41.8790220" lon="-8.8368840">
        <ele>2.8</ele>
        <time>2021-05-18T15:08:17Z</time>
      </trkpt>
      <trkpt lat="41.8790270" lon="-8.8368970">
        <ele>2.8</ele>
        <time>2021-05-18T15:08:18Z</time>
      </trkpt>
      <trkpt lat="41.8790210" lon="-8.8369080">
        <ele>2.8</ele>
        <time>2021-05-18T15:08:19Z</time>
      </trkpt>
      <trkpt lat="41.8790230" lon="-8.8369150">
        <ele>2.8</ele>
        <time>2021-05-18T15:08:20Z</time>
      </trkpt>
      <trkpt lat="41.8790260" lon="-8.8369220">
        <ele>2.8</ele>
        <time>2021-05-18T15:08:21Z</time>
      </trkpt>
      <trkpt lat="41.8790280" lon="-8.8369300">
        <ele>2.8</ele>
        <time>2021-05-18T15:08:22Z</time>
      </trkpt>
      <trkpt lat="41.8790310" lon="-8.8369370">
        <ele>2.8</ele>
        <time>2021-05-18T15:08:23Z</time>
      </trkpt>
      <trkpt lat="41.8790340" lon="-8.8369440">
        <ele>2.8</ele>
        <time>2021-05-18T15:08:24Z</time>
      </trkpt>
      <trkpt lat="41.8790360" lon="-8.8369510">
        <ele>2.8</ele>
        <time>2021-05-18T15:08:25Z</time>
      </trkpt>
      <trkpt lat="41.8790390" lon="-8.8369580">
        <ele>2.8</ele>
        <time>2021-05-18T15:08:26Z</time>
      </trkpt>
      <trkpt lat="41.8790420" lon="-8.8369650">
        <ele>2.8</ele>
        <time>2021-05-18T15:08:27Z</time>
      </trkpt>
      <trkpt lat="41.8790440" lon="-8.8369730">
        <ele>2.8</ele>
        <time>2021-05-18T15:08:28Z</time>
      </trkpt>
      <trkpt lat="41.8790470" lon="-8.8369800">
        <ele>2.8</ele>
        <time>2021-05-18T15:08:29Z</time>
      </trkpt>
      <trkpt lat="41.8790490" lon="-8.8369870">
        <ele>2.8</ele>
        <time>2021-05-18T15:08:30Z</time>
      </trkpt>
      <trkpt lat="41.8790520" lon="-8.8369940">
        <ele>2.8</ele>
        <time>2021-05-18T15:08:31Z</time>
      </trkpt>
      <trkpt lat="41.8790550" lon="-8.8369880">
        <ele>2.8</ele>
        <time>2021-05-18T15:08:32Z</time>
      </trkpt>
      <trkpt lat="41.8790620" lon="-8.8369890">
        <ele>2.8</ele>
        <time>2021-05-18T15:08:33Z</time>
      </trkpt>
      <trkpt lat="41.8790650" lon="-8.8369840">
        <ele>2.8</ele>
        <time>2021-05-18T15:08:34Z</time>
      </trkpt>
      <trkpt lat="41.8790720" lon="-8.8369770">
        <ele>2.8</ele>
        <time>2021-05-18T15:08:35Z</time>
      </trkpt>
      <trkpt lat="41.8790750" lon="-8.8369760">
        <ele>2.8</ele>
        <time>2021-05-18T15:08:36Z</time>
      </trkpt>
      <trkpt lat="41.8790760" lon="-8.8369750">
        <ele>2.8</ele>
        <time>2021-05-18T15:08:37Z</time>
      </trkpt>
      <trkpt lat="41.8790780" lon="-8.8369740">
        <ele>2.8</ele>
        <time>2021-05-18T15:08:38Z</time>
      </trkpt>
      <trkpt lat="41.8790800" lon="-8.8369750">
        <ele>2.8</ele>
        <time>2021-05-18T15:08:39Z</time>
      </trkpt>
      <trkpt lat="41.8669310" lon="-8.8577270">
        <ele>5.5</ele>
        <time>2021-05-18T15:19:19Z</time>
      </trkpt>
      <trkpt lat="41.8670110" lon="-8.8577710">
        <ele>2.5</ele>
        <time>2021-05-18T15:19:20Z</time>
      </trkpt>
      <trkpt lat="41.8670180" lon="-8.8577640">
        <ele>2.5</ele>
        <time>2021-05-18T15:19:21Z</time>
      </trkpt>
      <trkpt lat="41.8670310" lon="-8.8577630">
        <ele>2.5</ele>
        <time>2021-05-18T15:19:22Z</time>
      </trkpt>
      <trkpt lat="41.8670200" lon="-8.8577590">
        <ele>2.5</ele>
        <time>2021-05-18T15:19:23Z</time>
      </trkpt>
      <trkpt lat="41.8670200" lon="-8.8577670">
        <ele>2.4</ele>
        <time>2021-05-18T15:19:24Z</time>
      </trkpt>
      <trkpt lat="41.8670340" lon="-8.8577710">
        <ele>2.5</ele>
        <time>2021-05-18T15:19:25Z</time>
      </trkpt>
      <trkpt lat="41.8670360" lon="-8.8577770">
        <ele>2.5</ele>
        <time>2021-05-18T15:19:26Z</time>
      </trkpt>
      <trkpt lat="41.8670340" lon="-8.8577700">
        <ele>2.5</ele>
        <time>2021-05-18T15:19:27Z</time>
      </trkpt>
      <trkpt lat="41.8670270" lon="-8.8577680">
        <ele>2.4</ele>
        <time>2021-05-18T15:19:28Z</time>
      </trkpt>
      <trkpt lat="41.8670180" lon="-8.8577620">
        <ele>2.4</ele>
        <time>2021-05-18T15:19:29Z</time>
      </trkpt>
      <trkpt lat="41.8670170" lon="-8.8577640">
        <ele>2.4</ele>
        <time>2021-05-18T15:19:30Z</time>
      </trkpt>
      <trkpt lat="41.8670170" lon="-8.8577640">
        <ele>2.4</ele>
        <time>2021-05-18T15:19:31Z</time>
      </trkpt>
      <trkpt lat="41.8670050" lon="-8.8577690">
        <ele>2.4</ele>
        <time>2021-05-18T15:19:32Z</time>
      </trkpt>
      <trkpt lat="41.8670030" lon="-8.8577660">
        <ele>3.4</ele>
        <time>2021-05-18T15:19:33Z</time>
      </trkpt>
      <trkpt lat="41.8670010" lon="-8.8577590">
        <ele>3.4</ele>
        <time>2021-05-18T15:19:34Z</time>
      </trkpt>
      <trkpt lat="41.8670050" lon="-8.8577580">
        <ele>2.4</ele>
        <time>2021-05-18T15:19:35Z</time>
      </trkpt>
      <trkpt lat="41.8669990" lon="-8.8577460">
        <ele>3.4</ele>
        <time>2021-05-18T15:19:36Z</time>
      </trkpt>
      <trkpt lat="41.8669930" lon="-8.8577470">
        <ele>3.4</ele>
        <time>2021-05-18T15:19:37Z</time>
      </trkpt>
      <trkpt lat="41.8669890" lon="-8.8577520">
        <ele>3.4</ele>
        <time>2021-05-18T15:19:38Z</time>
      </trkpt>
      <trkpt lat="41.8669890" lon="-8.8577520">
        <ele>3.4</ele>
        <time>2021-05-18T15:19:39Z</time>
      </trkpt>
      <trkpt lat="41.8669890" lon="-8.8577520">
        <ele>3.4</ele>
        <time>2021-05-18T15:19:40Z</time>
      </trkpt>
      <trkpt lat="41.8669860" lon="-8.8577520">
        <ele>3.4</ele>
        <time>2021-05-18T15:19:41Z</time>
      </trkpt>
      <trkpt lat="41.8669920" lon="-8.8577540">
        <ele>3.4</ele>
        <time>2021-05-18T15:19:42Z</time>
      </trkpt>
      <trkpt lat="41.8669950" lon="-8.8577520">
        <ele>3.4</ele>
        <time>2021-05-18T15:19:43Z</time>
      </trkpt>
      <trkpt lat="41.8669970" lon="-8.8577500">
        <ele>3.4</ele>
        <time>2021-05-18T15:19:44Z</time>
      </trkpt>
      <trkpt lat="41.8670030" lon="-8.8577500">
        <ele>3.4</ele>
        <time>2021-05-18T15:19:45Z</time>
      </trkpt>
      <trkpt lat="41.8670080" lon="-8.8577470">
        <ele>2.4</ele>
        <time>2021-05-18T15:19:46Z</time>
      </trkpt>
      <trkpt lat="41.8670070" lon="-8.8577460">
        <ele>2.4</ele>
        <time>2021-05-18T15:19:47Z</time>
      </trkpt>
      <trkpt lat="41.8669980" lon="-8.8577520">
        <ele>3.3</ele>
        <time>2021-05-18T15:19:48Z</time>
      </trkpt>
      <trkpt lat="41.8670030" lon="-8.8577630">
        <ele>3.3</ele>
        <time>2021-05-18T15:19:49Z</time>
      </trkpt>
      <trkpt lat="41.8670080" lon="-8.8577870">
        <ele>2.4</ele>
        <time>2021-05-18T15:19:50Z</time>
      </trkpt>
      <trkpt lat="41.8670120" lon="-8.8577980">
        <ele>2.4</ele>
        <time>2021-05-18T15:19:51Z</time>
      </trkpt>
      <trkpt lat="41.8670240" lon="-8.8577900">
        <ele>2.4</ele>
        <time>2021-05-18T15:19:52Z</time>
      </trkpt>
      <trkpt lat="41.8670200" lon="-8.8577890">
        <ele>2.4</ele>
        <time>2021-05-18T15:19:53Z</time>
      </trkpt>
      <trkpt lat="41.8670230" lon="-8.8577890">
        <ele>2.4</ele>
        <time>2021-05-18T15:19:54Z</time>
      </trkpt>
      <trkpt lat="41.8670240" lon="-8.8577960">
        <ele>2.4</ele>
        <time>2021-05-18T15:19:55Z</time>
      </trkpt>
      <trkpt lat="41.8670230" lon="-8.8577970">
        <ele>2.4</ele>
        <time>2021-05-18T15:19:56Z</time>
      </trkpt>
      <trkpt lat="41.8670150" lon="-8.8577950">
        <ele>2.4</ele>
        <time>2021-05-18T15:19:57Z</time>
      </trkpt>
      <trkpt lat="41.8670170" lon="-8.8577900">
        <ele>2.3</ele>
        <time>2021-05-18T15:19:58Z</time>
      </trkpt>
      <trkpt lat="41.8670170" lon="-8.8577830">
        <ele>2.3</ele>
        <time>2021-05-18T15:19:59Z</time>
      </trkpt>
      <trkpt lat="41.8670130" lon="-8.8577830">
        <ele>2.3</ele>
        <time>2021-05-18T15:20:00Z</time>
      </trkpt>
      <trkpt lat="41.8670080" lon="-8.8577800">
        <ele>2.3</ele>
        <time>2021-05-18T15:20:01Z</time>
      </trkpt>
      <trkpt lat="41.8670040" lon="-8.8577740">
        <ele>3.3</ele>
        <time>2021-05-18T15:20:02Z</time>
      </trkpt>
      <trkpt lat="41.8670010" lon="-8.8577770">
        <ele>3.3</ele>
        <time>2021-05-18T15:20:03Z</time>
      </trkpt>
      <trkpt lat="41.8669950" lon="-8.8577840">
        <ele>3.3</ele>
        <time>2021-05-18T15:20:04Z</time>
      </trkpt>
      <trkpt lat="41.8669890" lon="-8.8577850">
        <ele>3.3</ele>
        <time>2021-05-18T15:20:05Z</time>
      </trkpt>
      <trkpt lat="41.8669850" lon="-8.8577770">
        <ele>3.3</ele>
        <time>2021-05-18T15:20:06Z</time>
      </trkpt>
      <trkpt lat="41.8669810" lon="-8.8577770">
        <ele>3.3</ele>
        <time>2021-05-18T15:20:07Z</time>
      </trkpt>
      <trkpt lat="41.8669800" lon="-8.8577840">
        <ele>3.3</ele>
        <time>2021-05-18T15:20:08Z</time>
      </trkpt>
      <trkpt lat="41.8669830" lon="-8.8577820">
        <ele>3.3</ele>
        <time>2021-05-18T15:20:09Z</time>
      </trkpt>
      <trkpt lat="41.8669800" lon="-8.8577810">
        <ele>3.3</ele>
        <time>2021-05-18T15:20:10Z</time>
      </trkpt>
      <trkpt lat="41.8669760" lon="-8.8577820">
        <ele>3.3</ele>
        <time>2021-05-18T15:20:11Z</time>
      </trkpt>
      <trkpt lat="41.8669710" lon="-8.8577850">
        <ele>4.4</ele>
        <time>2021-05-18T15:20:12Z</time>
      </trkpt>
      <trkpt lat="41.8669710" lon="-8.8577800">
        <ele>4.4</ele>
        <time>2021-05-18T15:20:13Z</time>
      </trkpt>
      <trkpt lat="41.8669730" lon="-8.8577810">
        <ele>3.3</ele>
        <time>2021-05-18T15:20:14Z</time>
      </trkpt>
      <trkpt lat="41.8669750" lon="-8.8577840">
        <ele>3.3</ele>
        <time>2021-05-18T15:20:15Z</time>
      </trkpt>
      <trkpt lat="41.8669820" lon="-8.8577860">
        <ele>3.3</ele>
        <time>2021-05-18T15:20:16Z</time>
      </trkpt>
      <trkpt lat="41.8669840" lon="-8.8577810">
        <ele>3.3</ele>
        <time>2021-05-18T15:20:17Z</time>
      </trkpt>
      <trkpt lat="41.8669880" lon="-8.8577740">
        <ele>3.3</ele>
        <time>2021-05-18T15:20:18Z</time>
      </trkpt>
      <trkpt lat="41.8669890" lon="-8.8577720">
        <ele>3.3</ele>
        <time>2021-05-18T15:20:19Z</time>
      </trkpt>
      <trkpt lat="41.8669910" lon="-8.8577770">
        <ele>3.3</ele>
        <time>2021-05-18T15:20:20Z</time>
      </trkpt>
      <trkpt lat="41.8669930" lon="-8.8577740">
        <ele>3.3</ele>
        <time>2021-05-18T15:20:21Z</time>
      </trkpt>
      <trkpt lat="41.8669920" lon="-8.8577810">
        <ele>3.3</ele>
        <time>2021-05-18T15:20:22Z</time>
      </trkpt>
      <trkpt lat="41.8669900" lon="-8.8577820">
        <ele>3.3</ele>
        <time>2021-05-18T15:20:23Z</time>
      </trkpt>
      <trkpt lat="41.8669950" lon="-8.8577870">
        <ele>3.3</ele>
        <time>2021-05-18T15:20:24Z</time>
      </trkpt>
      <trkpt lat="41.8670030" lon="-8.8577850">
        <ele>3.3</ele>
        <time>2021-05-18T15:20:25Z</time>
      </trkpt>
      <trkpt lat="41.8670010" lon="-8.8577850">
        <ele>3.3</ele>
        <time>2021-05-18T15:20:26Z</time>
      </trkpt>
      <trkpt lat="41.8669990" lon="-8.8577890">
        <ele>3.2</ele>
        <time>2021-05-18T15:20:27Z</time>
      </trkpt>
      <trkpt lat="41.8669980" lon="-8.8577950">
        <ele>3.2</ele>
        <time>2021-05-18T15:20:28Z</time>
      </trkpt>
      <trkpt lat="41.8670020" lon="-8.8577940">
        <ele>3.2</ele>
        <time>2021-05-18T15:20:29Z</time>
      </trkpt>
      <trkpt lat="41.8670030" lon="-8.8577910">
        <ele>3.2</ele>
        <time>2021-05-18T15:20:30Z</time>
      </trkpt>
      <trkpt lat="41.8670040" lon="-8.8577920">
        <ele>3.2</ele>
        <time>2021-05-18T15:20:31Z</time>
      </trkpt>
      <trkpt lat="41.8670050" lon="-8.8577970">
        <ele>2.2</ele>
        <time>2021-05-18T15:20:32Z</time>
      </trkpt>
      <trkpt lat="41.8670030" lon="-8.8578020">
        <ele>3.2</ele>
        <time>2021-05-18T15:20:33Z</time>
      </trkpt>
      <trkpt lat="41.8670000" lon="-8.8577980">
        <ele>3.2</ele>
        <time>2021-05-18T15:20:34Z</time>
      </trkpt>
      <trkpt lat="41.8670010" lon="-8.8578000">
        <ele>3.2</ele>
        <time>2021-05-18T15:20:35Z</time>
      </trkpt>
      <trkpt lat="41.8669990" lon="-8.8578000">
        <ele>3.2</ele>
        <time>2021-05-18T15:20:36Z</time>
      </trkpt>
      <trkpt lat="41.8669950" lon="-8.8577960">
        <ele>3.2</ele>
        <time>2021-05-18T15:20:37Z</time>
      </trkpt>
      <trkpt lat="41.8669930" lon="-8.8577900">
        <ele>3.2</ele>
        <time>2021-05-18T15:20:38Z</time>
      </trkpt>
      <trkpt lat="41.8669960" lon="-8.8577850">
        <ele>3.2</ele>
        <time>2021-05-18T15:20:39Z</time>
      </trkpt>
      <trkpt lat="41.8670110" lon="-8.8577840">
        <ele>2.2</ele>
        <time>2021-05-18T15:20:40Z</time>
      </trkpt>
      <trkpt lat="41.8670270" lon="-8.8577990">
        <ele>2.2</ele>
        <time>2021-05-18T15:20:41Z</time>
      </trkpt>
      <trkpt lat="41.8670310" lon="-8.8578070">
        <ele>2.2</ele>
        <time>2021-05-18T15:20:42Z</time>
      </trkpt>
      <trkpt lat="41.8670310" lon="-8.8578180">
        <ele>2.2</ele>
        <time>2021-05-18T15:20:43Z</time>
      </trkpt>
      <trkpt lat="41.8670440" lon="-8.8578230">
        <ele>1.3</ele>
        <time>2021-05-18T15:20:44Z</time>
      </trkpt>
      <trkpt lat="41.8670500" lon="-8.8578300">
        <ele>1.3</ele>
        <time>2021-05-18T15:20:45Z</time>
      </trkpt>
      <trkpt lat="41.8670550" lon="-8.8578320">
        <ele>1.3</ele>
        <time>2021-05-18T15:20:46Z</time>
      </trkpt>
      <trkpt lat="41.8670660" lon="-8.8578350">
        <ele>1.3</ele>
        <time>2021-05-18T15:20:47Z</time>
      </trkpt>
      <trkpt lat="41.8670710" lon="-8.8578400">
        <ele>0.6</ele>
        <time>2021-05-18T15:20:48Z</time>
      </trkpt>
      <trkpt lat="41.8670770" lon="-8.8578380">
        <ele>0.6</ele>
        <time>2021-05-18T15:20:49Z</time>
      </trkpt>
      <trkpt lat="41.8670760" lon="-8.8578360">
        <ele>0.6</ele>
        <time>2021-05-18T15:20:50Z</time>
      </trkpt>
      <trkpt lat="41.8670770" lon="-8.8578380">
        <ele>0.6</ele>
        <time>2021-05-18T15:20:51Z</time>
      </trkpt>
      <trkpt lat="41.8670780" lon="-8.8578400">
        <ele>0.6</ele>
        <time>2021-05-18T15:20:52Z</time>
      </trkpt>
      <trkpt lat="41.8670810" lon="-8.8578410">
        <ele>0.6</ele>
        <time>2021-05-18T15:20:53Z</time>
      </trkpt>
      <trkpt lat="41.8670820" lon="-8.8578430">
        <ele>0.6</ele>
        <time>2021-05-18T15:20:54Z</time>
      </trkpt>
      <trkpt lat="41.8670840" lon="-8.8578400">
        <ele>0.6</ele>
        <time>2021-05-18T15:20:55Z</time>
      </trkpt>
      <trkpt lat="41.8670840" lon="-8.8578410">
        <ele>0.6</ele>
        <time>2021-05-18T15:20:56Z</time>
      </trkpt>
      <trkpt lat="41.8670860" lon="-8.8578390">
        <ele>0.6</ele>
        <time>2021-05-18T15:20:57Z</time>
      </trkpt>
      <trkpt lat="41.8670950" lon="-8.8578390">
        <ele>0.6</ele>
        <time>2021-05-18T15:20:58Z</time>
      </trkpt>
      <trkpt lat="41.8671070" lon="-8.8578340">
        <ele>0.0</ele>
        <time>2021-05-18T15:20:59Z</time>
      </trkpt>
      <trkpt lat="41.8671100" lon="-8.8578360">
        <ele>0.0</ele>
        <time>2021-05-18T15:21:00Z</time>
      </trkpt>
      <trkpt lat="41.8671130" lon="-8.8578400">
        <ele>0.0</ele>
        <time>2021-05-18T15:21:01Z</time>
      </trkpt>
      <trkpt lat="41.8671160" lon="-8.8578460">
        <ele>0.0</ele>
        <time>2021-05-18T15:21:02Z</time>
      </trkpt>
      <trkpt lat="41.8671150" lon="-8.8578500">
        <ele>0.0</ele>
        <time>2021-05-18T15:21:03Z</time>
      </trkpt>
      <trkpt lat="41.8671160" lon="-8.8578480">
        <ele>0.0</ele>
        <time>2021-05-18T15:21:04Z</time>
      </trkpt>
      <trkpt lat="41.8671260" lon="-8.8578510">
        <ele>0.0</ele>
        <time>2021-05-18T15:21:05Z</time>
      </trkpt>
      <trkpt lat="41.8671270" lon="-8.8578610">
        <ele>0.0</ele>
        <time>2021-05-18T15:21:06Z</time>
      </trkpt>
      <trkpt lat="41.8671220" lon="-8.8578570">
        <ele>0.0</ele>
        <time>2021-05-18T15:21:07Z</time>
      </trkpt>
      <trkpt lat="41.8671190" lon="-8.8578530">
        <ele>0.0</ele>
        <time>2021-05-18T15:21:08Z</time>
      </trkpt>
      <trkpt lat="41.8671210" lon="-8.8578510">
        <ele>0.0</ele>
        <time>2021-05-18T15:21:09Z</time>
      </trkpt>
      <trkpt lat="41.8671210" lon="-8.8578510">
        <ele>0.0</ele>
        <time>2021-05-18T15:21:10Z</time>
      </trkpt>
      <trkpt lat="41.8671190" lon="-8.8578550">
        <ele>0.0</ele>
        <time>2021-05-18T15:21:11Z</time>
      </trkpt>
      <trkpt lat="41.8671150" lon="-8.8578580">
        <ele>0.0</ele>
        <time>2021-05-18T15:21:12Z</time>
      </trkpt>
      <trkpt lat="41.8671120" lon="-8.8578610">
        <ele>0.0</ele>
        <time>2021-05-18T15:21:13Z</time>
      </trkpt>
      <trkpt lat="41.8671110" lon="-8.8578630">
        <ele>0.0</ele>
        <time>2021-05-18T15:21:14Z</time>
      </trkpt>
      <trkpt lat="41.8671110" lon="-8.8578650">
        <ele>0.0</ele>
        <time>2021-05-18T15:21:15Z</time>
      </trkpt>
      <trkpt lat="41.8671080" lon="-8.8578650">
        <ele>0.0</ele>
        <time>2021-05-18T15:21:16Z</time>
      </trkpt>
      <trkpt lat="41.8671040" lon="-8.8578640">
        <ele>0.0</ele>
        <time>2021-05-18T15:21:17Z</time>
      </trkpt>
      <trkpt lat="41.8671000" lon="-8.8578640">
        <ele>0.5</ele>
        <time>2021-05-18T15:21:18Z</time>
      </trkpt>
      <trkpt lat="41.8670900" lon="-8.8578610">
        <ele>0.5</ele>
        <time>2021-05-18T15:21:19Z</time>
      </trkpt>
      <trkpt lat="41.8670890" lon="-8.8578600">
        <ele>0.5</ele>
        <time>2021-05-18T15:21:20Z</time>
      </trkpt>
      <trkpt lat="41.8670900" lon="-8.8578600">
        <ele>0.5</ele>
        <time>2021-05-18T15:21:21Z</time>
      </trkpt>
      <trkpt lat="41.8670910" lon="-8.8578600">
        <ele>0.5</ele>
        <time>2021-05-18T15:21:22Z</time>
      </trkpt>
      <trkpt lat="41.8670920" lon="-8.8578620">
        <ele>0.5</ele>
        <time>2021-05-18T15:21:23Z</time>
      </trkpt>
      <trkpt lat="41.8670930" lon="-8.8578650">
        <ele>0.5</ele>
        <time>2021-05-18T15:21:24Z</time>
      </trkpt>
      <trkpt lat="41.8670940" lon="-8.8578650">
        <ele>0.4</ele>
        <time>2021-05-18T15:21:25Z</time>
      </trkpt>
      <trkpt lat="41.8670940" lon="-8.8578640">
        <ele>0.4</ele>
        <time>2021-05-18T15:21:26Z</time>
      </trkpt>
      <trkpt lat="41.8670930" lon="-8.8578640">
        <ele>0.4</ele>
        <time>2021-05-18T15:21:27Z</time>
      </trkpt>
      <trkpt lat="41.8670940" lon="-8.8578630">
        <ele>0.4</ele>
        <time>2021-05-18T15:21:28Z</time>
      </trkpt>
      <trkpt lat="41.8670940" lon="-8.8578630">
        <ele>0.4</ele>
        <time>2021-05-18T15:21:29Z</time>
      </trkpt>
      <trkpt lat="41.8671000" lon="-8.8578660">
        <ele>0.4</ele>
        <time>2021-05-18T15:21:30Z</time>
      </trkpt>
      <trkpt lat="41.8670970" lon="-8.8578680">
        <ele>0.4</ele>
        <time>2021-05-18T15:21:31Z</time>
      </trkpt>
      <trkpt lat="41.8671000" lon="-8.8578680">
        <ele>0.4</ele>
        <time>2021-05-18T15:21:32Z</time>
      </trkpt>
      <trkpt lat="41.8671000" lon="-8.8578680">
        <ele>0.4</ele>
        <time>2021-05-18T15:21:33Z</time>
      </trkpt>
      <trkpt lat="41.8671010" lon="-8.8578610">
        <ele>-0.1</ele>
        <time>2021-05-18T15:21:34Z</time>
      </trkpt>
      <trkpt lat="41.8671060" lon="-8.8578590">
        <ele>-0.1</ele>
        <time>2021-05-18T15:21:35Z</time>
      </trkpt>
      <trkpt lat="41.8671060" lon="-8.8578570">
        <ele>-0.1</ele>
        <time>2021-05-18T15:21:36Z</time>
      </trkpt>
      <trkpt lat="41.8671070" lon="-8.8578540">
        <ele>-0.1</ele>
        <time>2021-05-18T15:21:37Z</time>
      </trkpt>
      <trkpt lat="41.8671100" lon="-8.8578530">
        <ele>-0.1</ele>
        <time>2021-05-18T15:21:38Z</time>
      </trkpt>
      <trkpt lat="41.8671080" lon="-8.8578570">
        <ele>-0.1</ele>
        <time>2021-05-18T15:21:39Z</time>
      </trkpt>
      <trkpt lat="41.8671090" lon="-8.8578610">
        <ele>-0.1</ele>
        <time>2021-05-18T15:21:40Z</time>
      </trkpt>
      <trkpt lat="41.8671110" lon="-8.8578600">
        <ele>-0.1</ele>
        <time>2021-05-18T15:21:41Z</time>
      </trkpt>
      <trkpt lat="41.8671180" lon="-8.8578630">
        <ele>-0.1</ele>
        <time>2021-05-18T15:21:42Z</time>
      </trkpt>
      <trkpt lat="41.8671200" lon="-8.8578640">
        <ele>-0.1</ele>
        <time>2021-05-18T15:21:43Z</time>
      </trkpt>
      <trkpt lat="41.8671270" lon="-8.8578660">
        <ele>-0.1</ele>
        <time>2021-05-18T15:21:44Z</time>
      </trkpt>
      <trkpt lat="41.8671210" lon="-8.8578640">
        <ele>-0.1</ele>
        <time>2021-05-18T15:21:45Z</time>
      </trkpt>
      <trkpt lat="41.8671210" lon="-8.8578660">
        <ele>-0.1</ele>
        <time>2021-05-18T15:21:46Z</time>
      </trkpt>
      <trkpt lat="41.8671160" lon="-8.8578680">
        <ele>-0.1</ele>
        <time>2021-05-18T15:21:47Z</time>
      </trkpt>
      <trkpt lat="41.8671210" lon="-8.8578870">
        <ele>-0.1</ele>
        <time>2021-05-18T15:21:48Z</time>
      </trkpt>
      <trkpt lat="41.8671200" lon="-8.8578990">
        <ele>-0.1</ele>
        <time>2021-05-18T15:21:49Z</time>
      </trkpt>
      <trkpt lat="41.8671210" lon="-8.8579050">
        <ele>-0.1</ele>
        <time>2021-05-18T15:21:50Z</time>
      </trkpt>
      <trkpt lat="41.8671220" lon="-8.8579080">
        <ele>-0.2</ele>
        <time>2021-05-18T15:21:51Z</time>
      </trkpt>
      <trkpt lat="41.8671210" lon="-8.8579170">
        <ele>-0.2</ele>
        <time>2021-05-18T15:21:52Z</time>
      </trkpt>
      <trkpt lat="41.8671220" lon="-8.8579130">
        <ele>-0.2</ele>
        <time>2021-05-18T15:21:53Z</time>
      </trkpt>
      <trkpt lat="41.8671060" lon="-8.8579110">
        <ele>-0.2</ele>
        <time>2021-05-18T15:21:54Z</time>
      </trkpt>
      <trkpt lat="41.8670960" lon="-8.8579170">
        <ele>0.3</ele>
        <time>2021-05-18T15:21:55Z</time>
      </trkpt>
      <trkpt lat="41.8671080" lon="-8.8579120">
        <ele>-0.2</ele>
        <time>2021-05-18T15:21:56Z</time>
      </trkpt>
      <trkpt lat="41.8671130" lon="-8.8579070">
        <ele>-0.2</ele>
        <time>2021-05-18T15:21:57Z</time>
      </trkpt>
      <trkpt lat="41.8671120" lon="-8.8579060">
        <ele>-0.2</ele>
        <time>2021-05-18T15:21:58Z</time>
      </trkpt>
      <trkpt lat="41.8671090" lon="-8.8579070">
        <ele>-0.2</ele>
        <time>2021-05-18T15:21:59Z</time>
      </trkpt>
      <trkpt lat="41.8671090" lon="-8.8579010">
        <ele>-0.2</ele>
        <time>2021-05-18T15:22:00Z</time>
      </trkpt>
      <trkpt lat="41.8671120" lon="-8.8579020">
        <ele>-0.2</ele>
        <time>2021-05-18T15:22:01Z</time>
      </trkpt>
      <trkpt lat="41.8671100" lon="-8.8579000">
        <ele>-0.2</ele>
        <time>2021-05-18T15:22:02Z</time>
      </trkpt>
      <trkpt lat="41.8671100" lon="-8.8579020">
        <ele>-0.2</ele>
        <time>2021-05-18T15:22:03Z</time>
      </trkpt>
      <trkpt lat="41.8671100" lon="-8.8579040">
        <ele>-0.2</ele>
        <time>2021-05-18T15:22:04Z</time>
      </trkpt>
      <trkpt lat="41.8671060" lon="-8.8579050">
        <ele>-0.2</ele>
        <time>2021-05-18T15:22:05Z</time>
      </trkpt>
      <trkpt lat="41.8671080" lon="-8.8579020">
        <ele>-0.2</ele>
        <time>2021-05-18T15:22:06Z</time>
      </trkpt>
      <trkpt lat="41.8671080" lon="-8.8579050">
        <ele>-0.2</ele>
        <time>2021-05-18T15:22:07Z</time>
      </trkpt>
      <trkpt lat="41.8671090" lon="-8.8579030">
        <ele>-0.2</ele>
        <time>2021-05-18T15:22:08Z</time>
      </trkpt>
      <trkpt lat="41.8671100" lon="-8.8579040">
        <ele>-0.2</ele>
        <time>2021-05-18T15:22:09Z</time>
      </trkpt>
      <trkpt lat="41.8671110" lon="-8.8579030">
        <ele>-0.2</ele>
        <time>2021-05-18T15:22:10Z</time>
      </trkpt>
      <trkpt lat="41.8671120" lon="-8.8579040">
        <ele>-0.2</ele>
        <time>2021-05-18T15:22:11Z</time>
      </trkpt>
      <trkpt lat="41.8671120" lon="-8.8579020">
        <ele>-0.2</ele>
        <time>2021-05-18T15:22:12Z</time>
      </trkpt>
      <trkpt lat="41.8671140" lon="-8.8579000">
        <ele>-0.2</ele>
        <time>2021-05-18T15:22:13Z</time>
      </trkpt>
      <trkpt lat="41.8671170" lon="-8.8579020">
        <ele>-0.2</ele>
        <time>2021-05-18T15:22:14Z</time>
      </trkpt>
      <trkpt lat="41.8671210" lon="-8.8579000">
        <ele>-0.2</ele>
        <time>2021-05-18T15:22:15Z</time>
      </trkpt>
      <trkpt lat="41.8671230" lon="-8.8579030">
        <ele>-0.2</ele>
        <time>2021-05-18T15:22:16Z</time>
      </trkpt>
      <trkpt lat="41.8671330" lon="-8.8579050">
        <ele>-0.6</ele>
        <time>2021-05-18T15:22:17Z</time>
      </trkpt>
      <trkpt lat="41.8671370" lon="-8.8579030">
        <ele>-0.6</ele>
        <time>2021-05-18T15:22:18Z</time>
      </trkpt>
      <trkpt lat="41.8671360" lon="-8.8579050">
        <ele>-0.6</ele>
        <time>2021-05-18T15:22:19Z</time>
      </trkpt>
      <trkpt lat="41.8671500" lon="-8.8579020">
        <ele>-0.6</ele>
        <time>2021-05-18T15:22:20Z</time>
      </trkpt>
      <trkpt lat="41.8671550" lon="-8.8579060">
        <ele>-0.6</ele>
        <time>2021-05-18T15:22:21Z</time>
      </trkpt>
      <trkpt lat="41.8671600" lon="-8.8579050">
        <ele>-0.6</ele>
        <time>2021-05-18T15:22:22Z</time>
      </trkpt>
      <trkpt lat="41.8671650" lon="-8.8579070">
        <ele>-0.7</ele>
        <time>2021-05-18T15:22:23Z</time>
      </trkpt>
      <trkpt lat="41.8671630" lon="-8.8579090">
        <ele>-0.6</ele>
        <time>2021-05-18T15:22:24Z</time>
      </trkpt>
      <trkpt lat="41.8671680" lon="-8.8579130">
        <ele>-0.8</ele>
        <time>2021-05-18T15:22:25Z</time>
      </trkpt>
      <trkpt lat="41.8671650" lon="-8.8579160">
        <ele>-0.8</ele>
        <time>2021-05-18T15:22:26Z</time>
      </trkpt>
      <trkpt lat="41.8671680" lon="-8.8579140">
        <ele>-0.8</ele>
        <time>2021-05-18T15:22:27Z</time>
      </trkpt>
      <trkpt lat="41.8671660" lon="-8.8579180">
        <ele>-0.8</ele>
        <time>2021-05-18T15:22:28Z</time>
      </trkpt>
      <trkpt lat="41.8671690" lon="-8.8579190">
        <ele>-0.8</ele>
        <time>2021-05-18T15:22:29Z</time>
      </trkpt>
      <trkpt lat="41.8671700" lon="-8.8579210">
        <ele>-0.8</ele>
        <time>2021-05-18T15:22:30Z</time>
      </trkpt>
      <trkpt lat="41.8671740" lon="-8.8579190">
        <ele>-0.8</ele>
        <time>2021-05-18T15:22:31Z</time>
      </trkpt>
      <trkpt lat="41.8671730" lon="-8.8579200">
        <ele>-0.8</ele>
        <time>2021-05-18T15:22:32Z</time>
      </trkpt>
      <trkpt lat="41.8671740" lon="-8.8579190">
        <ele>-0.8</ele>
        <time>2021-05-18T15:22:33Z</time>
      </trkpt>
      <trkpt lat="41.8671730" lon="-8.8579180">
        <ele>-0.8</ele>
        <time>2021-05-18T15:22:34Z</time>
      </trkpt>
      <trkpt lat="41.8671740" lon="-8.8579180">
        <ele>-0.8</ele>
        <time>2021-05-18T15:22:35Z</time>
      </trkpt>
      <trkpt lat="41.8671740" lon="-8.8579180">
        <ele>-0.8</ele>
        <time>2021-05-18T15:22:36Z</time>
      </trkpt>
      <trkpt lat="41.8671790" lon="-8.8579120">
        <ele>-0.8</ele>
        <time>2021-05-18T15:22:37Z</time>
      </trkpt>
      <trkpt lat="41.8671790" lon="-8.8579110">
        <ele>-0.8</ele>
        <time>2021-05-18T15:22:38Z</time>
      </trkpt>
      <trkpt lat="41.8671810" lon="-8.8579120">
        <ele>-0.8</ele>
        <time>2021-05-18T15:22:39Z</time>
      </trkpt>
      <trkpt lat="41.8671810" lon="-8.8579140">
        <ele>-0.8</ele>
        <time>2021-05-18T15:22:40Z</time>
      </trkpt>
      <trkpt lat="41.8671810" lon="-8.8579140">
        <ele>-0.8</ele>
        <time>2021-05-18T15:22:41Z</time>
      </trkpt>
      <trkpt lat="41.8671820" lon="-8.8579140">
        <ele>-0.8</ele>
        <time>2021-05-18T15:22:42Z</time>
      </trkpt>
      <trkpt lat="41.8671830" lon="-8.8579150">
        <ele>-0.8</ele>
        <time>2021-05-18T15:22:43Z</time>
      </trkpt>
      <trkpt lat="41.8671850" lon="-8.8579140">
        <ele>-0.8</ele>
        <time>2021-05-18T15:22:44Z</time>
      </trkpt>
      <trkpt lat="41.8671840" lon="-8.8579150">
        <ele>-0.8</ele>
        <time>2021-05-18T15:22:45Z</time>
      </trkpt>
      <trkpt lat="41.8671840" lon="-8.8579150">
        <ele>-0.8</ele>
        <time>2021-05-18T15:22:46Z</time>
      </trkpt>
      <trkpt lat="41.8671840" lon="-8.8579140">
        <ele>-0.8</ele>
        <time>2021-05-18T15:22:47Z</time>
      </trkpt>
      <trkpt lat="41.8671850" lon="-8.8579110">
        <ele>-0.8</ele>
        <time>2021-05-18T15:22:48Z</time>
      </trkpt>
      <trkpt lat="41.8671860" lon="-8.8579130">
        <ele>-0.8</ele>
        <time>2021-05-18T15:22:49Z</time>
      </trkpt>
      <trkpt lat="41.8671830" lon="-8.8579130">
        <ele>-0.8</ele>
        <time>2021-05-18T15:22:50Z</time>
      </trkpt>
      <trkpt lat="41.8671820" lon="-8.8579140">
        <ele>-0.8</ele>
        <time>2021-05-18T15:22:51Z</time>
      </trkpt>
      <trkpt lat="41.8671780" lon="-8.8579150">
        <ele>-0.9</ele>
        <time>2021-05-18T15:22:52Z</time>
      </trkpt>
      <trkpt lat="41.8671760" lon="-8.8579150">
        <ele>-0.9</ele>
        <time>2021-05-18T15:22:53Z</time>
      </trkpt>
      <trkpt lat="41.8671770" lon="-8.8579120">
        <ele>-0.9</ele>
        <time>2021-05-18T15:22:54Z</time>
      </trkpt>
      <trkpt lat="41.8671760" lon="-8.8579130">
        <ele>-0.9</ele>
        <time>2021-05-18T15:22:55Z</time>
      </trkpt>
      <trkpt lat="41.8671770" lon="-8.8579120">
        <ele>-0.9</ele>
        <time>2021-05-18T15:22:56Z</time>
      </trkpt>
      <trkpt lat="41.8671780" lon="-8.8579150">
        <ele>-0.9</ele>
        <time>2021-05-18T15:22:57Z</time>
      </trkpt>
      <trkpt lat="41.8671780" lon="-8.8579150">
        <ele>-0.9</ele>
        <time>2021-05-18T15:22:58Z</time>
      </trkpt>
      <trkpt lat="41.8671770" lon="-8.8579160">
        <ele>-0.9</ele>
        <time>2021-05-18T15:22:59Z</time>
      </trkpt>
      <trkpt lat="41.8671790" lon="-8.8579190">
        <ele>-0.9</ele>
        <time>2021-05-18T15:23:00Z</time>
      </trkpt>
      <trkpt lat="41.8671790" lon="-8.8579200">
        <ele>-0.9</ele>
        <time>2021-05-18T15:23:01Z</time>
      </trkpt>
      <trkpt lat="41.8671790" lon="-8.8579220">
        <ele>-0.9</ele>
        <time>2021-05-18T15:23:02Z</time>
      </trkpt>
      <trkpt lat="41.8671790" lon="-8.8579210">
        <ele>-0.9</ele>
        <time>2021-05-18T15:23:03Z</time>
      </trkpt>
      <trkpt lat="41.8671790" lon="-8.8579230">
        <ele>-0.9</ele>
        <time>2021-05-18T15:23:04Z</time>
      </trkpt>
      <trkpt lat="41.8671800" lon="-8.8579240">
        <ele>-0.9</ele>
        <time>2021-05-18T15:23:05Z</time>
      </trkpt>
      <trkpt lat="41.8671810" lon="-8.8579230">
        <ele>-0.9</ele>
        <time>2021-05-18T15:23:06Z</time>
      </trkpt>
      <trkpt lat="41.8671800" lon="-8.8579260">
        <ele>-0.9</ele>
        <time>2021-05-18T15:23:07Z</time>
      </trkpt>
      <trkpt lat="41.8671830" lon="-8.8579300">
        <ele>-0.9</ele>
        <time>2021-05-18T15:23:08Z</time>
      </trkpt>
      <trkpt lat="41.8671830" lon="-8.8579310">
        <ele>-0.9</ele>
        <time>2021-05-18T15:23:09Z</time>
      </trkpt>
      <trkpt lat="41.8671820" lon="-8.8579310">
        <ele>-0.9</ele>
        <time>2021-05-18T15:23:10Z</time>
      </trkpt>
      <trkpt lat="41.8671870" lon="-8.8579200">
        <ele>-0.9</ele>
        <time>2021-05-18T15:23:11Z</time>
      </trkpt>
      <trkpt lat="41.8671880" lon="-8.8579190">
        <ele>-0.9</ele>
        <time>2021-05-18T15:23:12Z</time>
      </trkpt>
      <trkpt lat="41.8671890" lon="-8.8579170">
        <ele>-0.9</ele>
        <time>2021-05-18T15:23:13Z</time>
      </trkpt>
      <trkpt lat="41.8671890" lon="-8.8579150">
        <ele>-0.9</ele>
        <time>2021-05-18T15:23:14Z</time>
      </trkpt>
      <trkpt lat="41.8671890" lon="-8.8579140">
        <ele>-0.9</ele>
        <time>2021-05-18T15:23:15Z</time>
      </trkpt>
      <trkpt lat="41.8671900" lon="-8.8579150">
        <ele>-0.9</ele>
        <time>2021-05-18T15:23:16Z</time>
      </trkpt>
      <trkpt lat="41.8671930" lon="-8.8579130">
        <ele>-0.9</ele>
        <time>2021-05-18T15:23:17Z</time>
      </trkpt>
      <trkpt lat="41.8671920" lon="-8.8579120">
        <ele>-0.9</ele>
        <time>2021-05-18T15:23:18Z</time>
      </trkpt>
      <trkpt lat="41.8671940" lon="-8.8579130">
        <ele>-1.0</ele>
        <time>2021-05-18T15:23:19Z</time>
      </trkpt>
      <trkpt lat="41.8671940" lon="-8.8579130">
        <ele>-1.0</ele>
        <time>2021-05-18T15:23:20Z</time>
      </trkpt>
      <trkpt lat="41.8671950" lon="-8.8579170">
        <ele>-1.0</ele>
        <time>2021-05-18T15:23:21Z</time>
      </trkpt>
      <trkpt lat="41.8671950" lon="-8.8579170">
        <ele>-1.0</ele>
        <time>2021-05-18T15:23:22Z</time>
      </trkpt>
      <trkpt lat="41.8671970" lon="-8.8579160">
        <ele>-1.0</ele>
        <time>2021-05-18T15:23:23Z</time>
      </trkpt>
      <trkpt lat="41.8671980" lon="-8.8579140">
        <ele>-1.0</ele>
        <time>2021-05-18T15:23:24Z</time>
      </trkpt>
      <trkpt lat="41.8671990" lon="-8.8579120">
        <ele>-1.0</ele>
        <time>2021-05-18T15:23:25Z</time>
      </trkpt>
      <trkpt lat="41.8671970" lon="-8.8579120">
        <ele>-1.0</ele>
        <time>2021-05-18T15:23:26Z</time>
      </trkpt>
      <trkpt lat="41.8671970" lon="-8.8579110">
        <ele>-1.0</ele>
        <time>2021-05-18T15:23:27Z</time>
      </trkpt>
      <trkpt lat="41.8671970" lon="-8.8579110">
        <ele>-1.0</ele>
        <time>2021-05-18T15:23:28Z</time>
      </trkpt>
      <trkpt lat="41.8671980" lon="-8.8579130">
        <ele>-1.0</ele>
        <time>2021-05-18T15:23:29Z</time>
      </trkpt>
      <trkpt lat="41.8671960" lon="-8.8579140">
        <ele>-1.0</ele>
        <time>2021-05-18T15:23:30Z</time>
      </trkpt>
      <trkpt lat="41.8671960" lon="-8.8579140">
        <ele>-1.0</ele>
        <time>2021-05-18T15:23:31Z</time>
      </trkpt>
      <trkpt lat="41.8671940" lon="-8.8579180">
        <ele>-1.0</ele>
        <time>2021-05-18T15:23:32Z</time>
      </trkpt>
      <trkpt lat="41.8671950" lon="-8.8579170">
        <ele>-1.0</ele>
        <time>2021-05-18T15:23:33Z</time>
      </trkpt>
      <trkpt lat="41.8671940" lon="-8.8579160">
        <ele>-1.0</ele>
        <time>2021-05-18T15:23:34Z</time>
      </trkpt>
      <trkpt lat="41.8671940" lon="-8.8579140">
        <ele>-1.0</ele>
        <time>2021-05-18T15:23:35Z</time>
      </trkpt>
      <trkpt lat="41.8671950" lon="-8.8579150">
        <ele>-1.0</ele>
        <time>2021-05-18T15:23:36Z</time>
      </trkpt>
      <trkpt lat="41.8671930" lon="-8.8579150">
        <ele>-1.0</ele>
        <time>2021-05-18T15:23:37Z</time>
      </trkpt>
      <trkpt lat="41.8671930" lon="-8.8579140">
        <ele>-1.0</ele>
        <time>2021-05-18T15:23:38Z</time>
      </trkpt>
      <trkpt lat="41.8671940" lon="-8.8579150">
        <ele>-1.0</ele>
        <time>2021-05-18T15:23:39Z</time>
      </trkpt>
      <trkpt lat="41.8671940" lon="-8.8579150">
        <ele>-1.0</ele>
        <time>2021-05-18T15:23:40Z</time>
      </trkpt>
      <trkpt lat="41.8671920" lon="-8.8579150">
        <ele>-1.0</ele>
        <time>2021-05-18T15:23:41Z</time>
      </trkpt>
      <trkpt lat="41.8671940" lon="-8.8579150">
        <ele>-1.0</ele>
        <time>2021-05-18T15:23:42Z</time>
      </trkpt>
      <trkpt lat="41.8671940" lon="-8.8579150">
        <ele>-1.0</ele>
        <time>2021-05-18T15:23:43Z</time>
      </trkpt>
      <trkpt lat="41.8671930" lon="-8.8579130">
        <ele>-1.0</ele>
        <time>2021-05-18T15:23:44Z</time>
      </trkpt>
      <trkpt lat="41.8671910" lon="-8.8579130">
        <ele>-1.0</ele>
        <time>2021-05-18T15:23:45Z</time>
      </trkpt>
      <trkpt lat="41.8671910" lon="-8.8579130">
        <ele>-1.0</ele>
        <time>2021-05-18T15:23:46Z</time>
      </trkpt>
      <trkpt lat="41.8671900" lon="-8.8579150">
        <ele>-1.1</ele>
        <time>2021-05-18T15:23:47Z</time>
      </trkpt>
      <trkpt lat="41.8671900" lon="-8.8579150">
        <ele>-1.1</ele>
        <time>2021-05-18T15:23:48Z</time>
      </trkpt>
      <trkpt lat="41.8671890" lon="-8.8579140">
        <ele>-1.1</ele>
        <time>2021-05-18T15:23:49Z</time>
      </trkpt>
      <trkpt lat="41.8671890" lon="-8.8579140">
        <ele>-1.1</ele>
        <time>2021-05-18T15:23:50Z</time>
      </trkpt>
      <trkpt lat="41.8671900" lon="-8.8579140">
        <ele>-1.1</ele>
        <time>2021-05-18T15:23:51Z</time>
      </trkpt>
      <trkpt lat="41.8671900" lon="-8.8579130">
        <ele>-1.1</ele>
        <time>2021-05-18T15:23:52Z</time>
      </trkpt>
      <trkpt lat="41.8671910" lon="-8.8579120">
        <ele>-1.1</ele>
        <time>2021-05-18T15:23:53Z</time>
      </trkpt>
      <trkpt lat="41.8671920" lon="-8.8579130">
        <ele>-1.1</ele>
        <time>2021-05-18T15:23:54Z</time>
      </trkpt>
      <trkpt lat="41.8671930" lon="-8.8579120">
        <ele>-1.1</ele>
        <time>2021-05-18T15:23:55Z</time>
      </trkpt>
      <trkpt lat="41.8671930" lon="-8.8579140">
        <ele>-1.1</ele>
        <time>2021-05-18T15:23:56Z</time>
      </trkpt>
      <trkpt lat="41.8671910" lon="-8.8579150">
        <ele>-1.1</ele>
        <time>2021-05-18T15:23:57Z</time>
      </trkpt>
      <trkpt lat="41.8671910" lon="-8.8579150">
        <ele>-1.1</ele>
        <time>2021-05-18T15:23:58Z</time>
      </trkpt>
      <trkpt lat="41.8671920" lon="-8.8579180">
        <ele>-1.1</ele>
        <time>2021-05-18T15:23:59Z</time>
      </trkpt>
      <trkpt lat="41.8671910" lon="-8.8579160">
        <ele>-1.1</ele>
        <time>2021-05-18T15:24:00Z</time>
      </trkpt>
      <trkpt lat="41.8671910" lon="-8.8579150">
        <ele>-1.1</ele>
        <time>2021-05-18T15:24:01Z</time>
      </trkpt>
      <trkpt lat="41.8671910" lon="-8.8579140">
        <ele>-1.1</ele>
        <time>2021-05-18T15:24:02Z</time>
      </trkpt>
      <trkpt lat="41.8671900" lon="-8.8579140">
        <ele>-1.1</ele>
        <time>2021-05-18T15:24:03Z</time>
      </trkpt>
      <trkpt lat="41.8671910" lon="-8.8579140">
        <ele>-1.1</ele>
        <time>2021-05-18T15:24:04Z</time>
      </trkpt>
      <trkpt lat="41.8671890" lon="-8.8579170">
        <ele>-1.1</ele>
        <time>2021-05-18T15:24:05Z</time>
      </trkpt>
      <trkpt lat="41.8671900" lon="-8.8579170">
        <ele>-1.1</ele>
        <time>2021-05-18T15:24:06Z</time>
      </trkpt>
      <trkpt lat="41.8671900" lon="-8.8579170">
        <ele>-1.1</ele>
        <time>2021-05-18T15:24:07Z</time>
      </trkpt>
      <trkpt lat="41.8671900" lon="-8.8579170">
        <ele>-1.1</ele>
        <time>2021-05-18T15:24:08Z</time>
      </trkpt>
      <trkpt lat="41.8671900" lon="-8.8579170">
        <ele>-1.1</ele>
        <time>2021-05-18T15:24:09Z</time>
      </trkpt>
      <trkpt lat="41.8671900" lon="-8.8579160">
        <ele>-1.1</ele>
        <time>2021-05-18T15:24:10Z</time>
      </trkpt>
      <trkpt lat="41.8671890" lon="-8.8579190">
        <ele>-1.1</ele>
        <time>2021-05-18T15:24:11Z</time>
      </trkpt>
      <trkpt lat="41.8671890" lon="-8.8579190">
        <ele>-1.1</ele>
        <time>2021-05-18T15:24:12Z</time>
      </trkpt>
      <trkpt lat="41.8671900" lon="-8.8579200">
        <ele>-1.1</ele>
        <time>2021-05-18T15:24:13Z</time>
      </trkpt>
      <trkpt lat="41.8671910" lon="-8.8579210">
        <ele>-1.2</ele>
        <time>2021-05-18T15:24:14Z</time>
      </trkpt>
      <trkpt lat="41.8671910" lon="-8.8579220">
        <ele>-1.2</ele>
        <time>2021-05-18T15:24:15Z</time>
      </trkpt>
      <trkpt lat="41.8671900" lon="-8.8579220">
        <ele>-1.2</ele>
        <time>2021-05-18T15:24:16Z</time>
      </trkpt>
      <trkpt lat="41.8671900" lon="-8.8579190">
        <ele>-1.2</ele>
        <time>2021-05-18T15:24:17Z</time>
      </trkpt>
      <trkpt lat="41.8671900" lon="-8.8579190">
        <ele>-1.2</ele>
        <time>2021-05-18T15:24:18Z</time>
      </trkpt>
      <trkpt lat="41.8671890" lon="-8.8579170">
        <ele>-1.2</ele>
        <time>2021-05-18T15:24:19Z</time>
      </trkpt>
      <trkpt lat="41.8671880" lon="-8.8579180">
        <ele>-1.2</ele>
        <time>2021-05-18T15:24:20Z</time>
      </trkpt>
      <trkpt lat="41.8671890" lon="-8.8579180">
        <ele>-1.2</ele>
        <time>2021-05-18T15:24:21Z</time>
      </trkpt>
      <trkpt lat="41.8671890" lon="-8.8579180">
        <ele>-1.2</ele>
        <time>2021-05-18T15:24:22Z</time>
      </trkpt>
      <trkpt lat="41.8671890" lon="-8.8579180">
        <ele>-1.2</ele>
        <time>2021-05-18T15:24:23Z</time>
      </trkpt>
      <trkpt lat="41.8671890" lon="-8.8579180">
        <ele>-1.2</ele>
        <time>2021-05-18T15:24:24Z</time>
      </trkpt>
      <trkpt lat="41.8671890" lon="-8.8579180">
        <ele>-1.2</ele>
        <time>2021-05-18T15:24:25Z</time>
      </trkpt>
      <trkpt lat="41.8671880" lon="-8.8579210">
        <ele>-1.2</ele>
        <time>2021-05-18T15:24:26Z</time>
      </trkpt>
      <trkpt lat="41.8671880" lon="-8.8579210">
        <ele>-1.2</ele>
        <time>2021-05-18T15:24:27Z</time>
      </trkpt>
      <trkpt lat="41.8671880" lon="-8.8579210">
        <ele>-1.2</ele>
        <time>2021-05-18T15:24:28Z</time>
      </trkpt>
      <trkpt lat="41.8671880" lon="-8.8579210">
        <ele>-1.2</ele>
        <time>2021-05-18T15:24:29Z</time>
      </trkpt>
      <trkpt lat="41.8671880" lon="-8.8579210">
        <ele>-1.2</ele>
        <time>2021-05-18T15:24:30Z</time>
      </trkpt>
      <trkpt lat="41.8671880" lon="-8.8579210">
        <ele>-1.2</ele>
        <time>2021-05-18T15:24:31Z</time>
      </trkpt>
      <trkpt lat="41.8671890" lon="-8.8579230">
        <ele>-1.2</ele>
        <time>2021-05-18T15:24:32Z</time>
      </trkpt>
      <trkpt lat="41.8671880" lon="-8.8579240">
        <ele>-1.2</ele>
        <time>2021-05-18T15:24:33Z</time>
      </trkpt>
      <trkpt lat="41.8671900" lon="-8.8579230">
        <ele>-1.2</ele>
        <time>2021-05-18T15:24:34Z</time>
      </trkpt>
      <trkpt lat="41.8671890" lon="-8.8579240">
        <ele>-1.2</ele>
        <time>2021-05-18T15:24:35Z</time>
      </trkpt>
      <trkpt lat="41.8671880" lon="-8.8579270">
        <ele>-1.2</ele>
        <time>2021-05-18T15:24:36Z</time>
      </trkpt>
      <trkpt lat="41.8671870" lon="-8.8579250">
        <ele>-1.2</ele>
        <time>2021-05-18T15:24:37Z</time>
      </trkpt>
      <trkpt lat="41.8671880" lon="-8.8579250">
        <ele>-1.2</ele>
        <time>2021-05-18T15:24:38Z</time>
      </trkpt>
      <trkpt lat="41.8671880" lon="-8.8579250">
        <ele>-1.2</ele>
        <time>2021-05-18T15:24:39Z</time>
      </trkpt>
      <trkpt lat="41.8671880" lon="-8.8579240">
        <ele>-1.2</ele>
        <time>2021-05-18T15:24:40Z</time>
      </trkpt>
      <trkpt lat="41.8671880" lon="-8.8579220">
        <ele>-1.2</ele>
        <time>2021-05-18T15:24:41Z</time>
      </trkpt>
      <trkpt lat="41.8671900" lon="-8.8579160">
        <ele>-1.3</ele>
        <time>2021-05-18T15:24:42Z</time>
      </trkpt>
      <trkpt lat="41.8671900" lon="-8.8579180">
        <ele>-1.3</ele>
        <time>2021-05-18T15:24:43Z</time>
      </trkpt>
      <trkpt lat="41.8671910" lon="-8.8579180">
        <ele>-1.3</ele>
        <time>2021-05-18T15:24:44Z</time>
      </trkpt>
      <trkpt lat="41.8671890" lon="-8.8579150">
        <ele>-1.3</ele>
        <time>2021-05-18T15:24:45Z</time>
      </trkpt>
      <trkpt lat="41.8671900" lon="-8.8579160">
        <ele>-1.3</ele>
        <time>2021-05-18T15:24:46Z</time>
      </trkpt>
      <trkpt lat="41.8671910" lon="-8.8579120">
        <ele>-1.3</ele>
        <time>2021-05-18T15:24:47Z</time>
      </trkpt>
      <trkpt lat="41.8671910" lon="-8.8579110">
        <ele>-1.3</ele>
        <time>2021-05-18T15:24:48Z</time>
      </trkpt>
      <trkpt lat="41.8671900" lon="-8.8579110">
        <ele>-1.3</ele>
        <time>2021-05-18T15:24:49Z</time>
      </trkpt>
      <trkpt lat="41.8671880" lon="-8.8579130">
        <ele>-1.3</ele>
        <time>2021-05-18T15:24:50Z</time>
      </trkpt>
      <trkpt lat="41.8671880" lon="-8.8579140">
        <ele>-1.3</ele>
        <time>2021-05-18T15:24:51Z</time>
      </trkpt>
      <trkpt lat="41.8671870" lon="-8.8579150">
        <ele>-1.3</ele>
        <time>2021-05-18T15:24:52Z</time>
      </trkpt>
      <trkpt lat="41.8671880" lon="-8.8579130">
        <ele>-1.3</ele>
        <time>2021-05-18T15:24:53Z</time>
      </trkpt>
      <trkpt lat="41.8671880" lon="-8.8579130">
        <ele>-1.3</ele>
        <time>2021-05-18T15:24:54Z</time>
      </trkpt>
      <trkpt lat="41.8671850" lon="-8.8579160">
        <ele>-1.3</ele>
        <time>2021-05-18T15:24:55Z</time>
      </trkpt>
      <trkpt lat="41.8671870" lon="-8.8579160">
        <ele>-1.3</ele>
        <time>2021-05-18T15:24:56Z</time>
      </trkpt>
      <trkpt lat="41.8671840" lon="-8.8579170">
        <ele>-1.3</ele>
        <time>2021-05-18T15:24:57Z</time>
      </trkpt>
      <trkpt lat="41.8671840" lon="-8.8579200">
        <ele>-1.3</ele>
        <time>2021-05-18T15:24:58Z</time>
      </trkpt>
      <trkpt lat="41.8671850" lon="-8.8579200">
        <ele>-1.3</ele>
        <time>2021-05-18T15:24:59Z</time>
      </trkpt>
      <trkpt lat="41.8671850" lon="-8.8579200">
        <ele>-1.3</ele>
        <time>2021-05-18T15:25:00Z</time>
      </trkpt>
      <trkpt lat="41.8671830" lon="-8.8579220">
        <ele>-1.3</ele>
        <time>2021-05-18T15:25:01Z</time>
      </trkpt>
      <trkpt lat="41.8671800" lon="-8.8579200">
        <ele>-1.3</ele>
        <time>2021-05-18T15:25:02Z</time>
      </trkpt>
      <trkpt lat="41.8671800" lon="-8.8579210">
        <ele>-1.3</ele>
        <time>2021-05-18T15:25:03Z</time>
      </trkpt>
      <trkpt lat="41.8671800" lon="-8.8579190">
        <ele>-1.3</ele>
        <time>2021-05-18T15:25:04Z</time>
      </trkpt>
      <trkpt lat="41.8671800" lon="-8.8579200">
        <ele>-1.3</ele>
        <time>2021-05-18T15:25:05Z</time>
      </trkpt>
      <trkpt lat="41.8671790" lon="-8.8579180">
        <ele>-1.3</ele>
        <time>2021-05-18T15:25:06Z</time>
      </trkpt>
      <trkpt lat="41.8671780" lon="-8.8579150">
        <ele>-1.3</ele>
        <time>2021-05-18T15:25:07Z</time>
      </trkpt>
      <trkpt lat="41.8671790" lon="-8.8579120">
        <ele>-1.3</ele>
        <time>2021-05-18T15:25:08Z</time>
      </trkpt>
      <trkpt lat="41.8671800" lon="-8.8579140">
        <ele>-1.4</ele>
        <time>2021-05-18T15:25:09Z</time>
      </trkpt>
      <trkpt lat="41.8671790" lon="-8.8579160">
        <ele>-1.4</ele>
        <time>2021-05-18T15:25:10Z</time>
      </trkpt>
      <trkpt lat="41.8671790" lon="-8.8579160">
        <ele>-1.4</ele>
        <time>2021-05-18T15:25:11Z</time>
      </trkpt>
      <trkpt lat="41.8671800" lon="-8.8579130">
        <ele>-1.4</ele>
        <time>2021-05-18T15:25:12Z</time>
      </trkpt>
      <trkpt lat="41.8671840" lon="-8.8579140">
        <ele>-1.4</ele>
        <time>2021-05-18T15:25:13Z</time>
      </trkpt>
      <trkpt lat="41.8671860" lon="-8.8579130">
        <ele>-1.4</ele>
        <time>2021-05-18T15:25:14Z</time>
      </trkpt>
      <trkpt lat="41.8671890" lon="-8.8579150">
        <ele>-1.4</ele>
        <time>2021-05-18T15:25:15Z</time>
      </trkpt>
      <trkpt lat="41.8671850" lon="-8.8579160">
        <ele>-1.4</ele>
        <time>2021-05-18T15:25:16Z</time>
      </trkpt>
      <trkpt lat="41.8671830" lon="-8.8579150">
        <ele>-1.4</ele>
        <time>2021-05-18T15:25:17Z</time>
      </trkpt>
      <trkpt lat="41.8671850" lon="-8.8579150">
        <ele>-1.4</ele>
        <time>2021-05-18T15:25:18Z</time>
      </trkpt>
      <trkpt lat="41.8671910" lon="-8.8579090">
        <ele>-1.4</ele>
        <time>2021-05-18T15:25:19Z</time>
      </trkpt>
      <trkpt lat="41.8671940" lon="-8.8579050">
        <ele>-1.4</ele>
        <time>2021-05-18T15:25:20Z</time>
      </trkpt>
      <trkpt lat="41.8671970" lon="-8.8579070">
        <ele>-1.4</ele>
        <time>2021-05-18T15:25:21Z</time>
      </trkpt>
      <trkpt lat="41.8672030" lon="-8.8579110">
        <ele>-1.4</ele>
        <time>2021-05-18T15:25:22Z</time>
      </trkpt>
      <trkpt lat="41.8672020" lon="-8.8579060">
        <ele>-1.4</ele>
        <time>2021-05-18T15:25:23Z</time>
      </trkpt>
      <trkpt lat="41.8672030" lon="-8.8579060">
        <ele>-1.4</ele>
        <time>2021-05-18T15:25:24Z</time>
      </trkpt>
      <trkpt lat="41.8672090" lon="-8.8579120">
        <ele>-1.4</ele>
        <time>2021-05-18T15:25:25Z</time>
      </trkpt>
      <trkpt lat="41.8672160" lon="-8.8579110">
        <ele>-1.4</ele>
        <time>2021-05-18T15:25:26Z</time>
      </trkpt>
      <trkpt lat="41.8672190" lon="-8.8579130">
        <ele>-1.4</ele>
        <time>2021-05-18T15:25:27Z</time>
      </trkpt>
      <trkpt lat="41.8672210" lon="-8.8579150">
        <ele>-1.4</ele>
        <time>2021-05-18T15:25:28Z</time>
      </trkpt>
      <trkpt lat="41.8672150" lon="-8.8579070">
        <ele>-1.4</ele>
        <time>2021-05-18T15:25:29Z</time>
      </trkpt>
      <trkpt lat="41.8672120" lon="-8.8579060">
        <ele>-1.4</ele>
        <time>2021-05-18T15:25:30Z</time>
      </trkpt>
      <trkpt lat="41.8672180" lon="-8.8578990">
        <ele>-1.4</ele>
        <time>2021-05-18T15:25:31Z</time>
      </trkpt>
      <trkpt lat="41.8672100" lon="-8.8578940">
        <ele>-1.4</ele>
        <time>2021-05-18T15:25:32Z</time>
      </trkpt>
      <trkpt lat="41.8672110" lon="-8.8578930">
        <ele>-1.4</ele>
        <time>2021-05-18T15:25:33Z</time>
      </trkpt>
      <trkpt lat="41.8672140" lon="-8.8578970">
        <ele>-1.4</ele>
        <time>2021-05-18T15:25:34Z</time>
      </trkpt>
      <trkpt lat="41.8672180" lon="-8.8578960">
        <ele>-1.4</ele>
        <time>2021-05-18T15:25:35Z</time>
      </trkpt>
      <trkpt lat="41.8672180" lon="-8.8578940">
        <ele>-1.4</ele>
        <time>2021-05-18T15:25:36Z</time>
      </trkpt>
      <trkpt lat="41.8672160" lon="-8.8578920">
        <ele>-1.5</ele>
        <time>2021-05-18T15:25:37Z</time>
      </trkpt>
      <trkpt lat="41.8672160" lon="-8.8578870">
        <ele>-1.5</ele>
        <time>2021-05-18T15:25:38Z</time>
      </trkpt>
      <trkpt lat="41.8672170" lon="-8.8578830">
        <ele>-1.5</ele>
        <time>2021-05-18T15:25:39Z</time>
      </trkpt>
      <trkpt lat="41.8672170" lon="-8.8578840">
        <ele>-1.5</ele>
        <time>2021-05-18T15:25:40Z</time>
      </trkpt>
      <trkpt lat="41.8672180" lon="-8.8578890">
        <ele>-1.5</ele>
        <time>2021-05-18T15:25:41Z</time>
      </trkpt>
      <trkpt lat="41.8672190" lon="-8.8578890">
        <ele>-1.5</ele>
        <time>2021-05-18T15:25:42Z</time>
      </trkpt>
      <trkpt lat="41.8672210" lon="-8.8578860">
        <ele>-1.5</ele>
        <time>2021-05-18T15:25:43Z</time>
      </trkpt>
      <trkpt lat="41.8672210" lon="-8.8578850">
        <ele>-1.5</ele>
        <time>2021-05-18T15:25:44Z</time>
      </trkpt>
      <trkpt lat="41.8672220" lon="-8.8578880">
        <ele>-1.5</ele>
        <time>2021-05-18T15:25:45Z</time>
      </trkpt>
      <trkpt lat="41.8672220" lon="-8.8578880">
        <ele>-1.5</ele>
        <time>2021-05-18T15:25:46Z</time>
      </trkpt>
      <trkpt lat="41.8672230" lon="-8.8578820">
        <ele>-1.5</ele>
        <time>2021-05-18T15:25:47Z</time>
      </trkpt>
      <trkpt lat="41.8672130" lon="-8.8578830">
        <ele>-1.5</ele>
        <time>2021-05-18T15:25:48Z</time>
      </trkpt>
      <trkpt lat="41.8672140" lon="-8.8578810">
        <ele>-1.5</ele>
        <time>2021-05-18T15:25:49Z</time>
      </trkpt>
      <trkpt lat="41.8672140" lon="-8.8578800">
        <ele>-1.5</ele>
        <time>2021-05-18T15:25:50Z</time>
      </trkpt>
      <trkpt lat="41.8672140" lon="-8.8578790">
        <ele>-1.5</ele>
        <time>2021-05-18T15:25:51Z</time>
      </trkpt>
      <trkpt lat="41.8672150" lon="-8.8578770">
        <ele>-1.5</ele>
        <time>2021-05-18T15:25:52Z</time>
      </trkpt>
      <trkpt lat="41.8672150" lon="-8.8578760">
        <ele>-1.5</ele>
        <time>2021-05-18T15:25:53Z</time>
      </trkpt>
      <trkpt lat="41.8672160" lon="-8.8578740">
        <ele>-1.5</ele>
        <time>2021-05-18T15:25:54Z</time>
      </trkpt>
      <trkpt lat="41.8672160" lon="-8.8578730">
        <ele>-1.5</ele>
        <time>2021-05-18T15:25:55Z</time>
      </trkpt>
      <trkpt lat="41.8672160" lon="-8.8578720">
        <ele>-1.5</ele>
        <time>2021-05-18T15:25:56Z</time>
      </trkpt>
      <trkpt lat="41.8672170" lon="-8.8578700">
        <ele>-1.5</ele>
        <time>2021-05-18T15:25:57Z</time>
      </trkpt>
      <trkpt lat="41.8672170" lon="-8.8578690">
        <ele>-1.5</ele>
        <time>2021-05-18T15:25:58Z</time>
      </trkpt>
      <trkpt lat="41.8672170" lon="-8.8578680">
        <ele>-1.5</ele>
        <time>2021-05-18T15:25:59Z</time>
      </trkpt>
      <trkpt lat="41.8672180" lon="-8.8578660">
        <ele>-1.5</ele>
        <time>2021-05-18T15:26:00Z</time>
      </trkpt>
      <trkpt lat="41.8672180" lon="-8.8578650">
        <ele>-1.5</ele>
        <time>2021-05-18T15:26:01Z</time>
      </trkpt>
      <trkpt lat="41.8672180" lon="-8.8578640">
        <ele>-1.5</ele>
        <time>2021-05-18T15:26:02Z</time>
      </trkpt>
      <trkpt lat="41.8672190" lon="-8.8578620">
        <ele>-1.5</ele>
        <time>2021-05-18T15:26:03Z</time>
      </trkpt>
      <trkpt lat="41.8672190" lon="-8.8578610">
        <ele>-1.5</ele>
        <time>2021-05-18T15:26:04Z</time>
      </trkpt>
      <trkpt lat="41.8672190" lon="-8.8578600">
        <ele>-1.6</ele>
        <time>2021-05-18T15:26:05Z</time>
      </trkpt>
      <trkpt lat="41.8672200" lon="-8.8578580">
        <ele>-1.6</ele>
        <time>2021-05-18T15:26:06Z</time>
      </trkpt>
      <trkpt lat="41.8672200" lon="-8.8578570">
        <ele>-1.6</ele>
        <time>2021-05-18T15:26:07Z</time>
      </trkpt>
      <trkpt lat="41.8672210" lon="-8.8578550">
        <ele>-1.5</ele>
        <time>2021-05-18T15:26:08Z</time>
      </trkpt>
      <trkpt lat="41.8672210" lon="-8.8578540">
        <ele>-1.5</ele>
        <time>2021-05-18T15:26:09Z</time>
      </trkpt>
      <trkpt lat="41.8672210" lon="-8.8578530">
        <ele>-1.6</ele>
        <time>2021-05-18T15:26:10Z</time>
      </trkpt>
      <trkpt lat="41.8672220" lon="-8.8578510">
        <ele>-1.6</ele>
        <time>2021-05-18T15:26:11Z</time>
      </trkpt>
      <trkpt lat="41.8672220" lon="-8.8578500">
        <ele>-1.6</ele>
        <time>2021-05-18T15:26:12Z</time>
      </trkpt>
      <trkpt lat="41.8672220" lon="-8.8578490">
        <ele>-1.6</ele>
        <time>2021-05-18T15:26:13Z</time>
      </trkpt>
      <trkpt lat="41.8672230" lon="-8.8578470">
        <ele>-1.6</ele>
        <time>2021-05-18T15:26:14Z</time>
      </trkpt>
      <trkpt lat="41.8672230" lon="-8.8578460">
        <ele>-1.6</ele>
        <time>2021-05-18T15:26:15Z</time>
      </trkpt>
      <trkpt lat="41.8672230" lon="-8.8578450">
        <ele>-1.6</ele>
        <time>2021-05-18T15:26:16Z</time>
      </trkpt>
      <trkpt lat="41.8672240" lon="-8.8578430">
        <ele>-1.6</ele>
        <time>2021-05-18T15:26:17Z</time>
      </trkpt>
      <trkpt lat="41.8672240" lon="-8.8578420">
        <ele>-1.6</ele>
        <time>2021-05-18T15:26:18Z</time>
      </trkpt>
      <trkpt lat="41.8672240" lon="-8.8578410">
        <ele>-1.6</ele>
        <time>2021-05-18T15:26:19Z</time>
      </trkpt>
      <trkpt lat="41.8672250" lon="-8.8578390">
        <ele>-1.6</ele>
        <time>2021-05-18T15:26:20Z</time>
      </trkpt>
      <trkpt lat="41.8672250" lon="-8.8578380">
        <ele>-1.6</ele>
        <time>2021-05-18T15:26:21Z</time>
      </trkpt>
      <trkpt lat="41.8672260" lon="-8.8578360">
        <ele>-1.6</ele>
        <time>2021-05-18T15:26:22Z</time>
      </trkpt>
      <trkpt lat="41.8672260" lon="-8.8578350">
        <ele>-1.6</ele>
        <time>2021-05-18T15:26:23Z</time>
      </trkpt>
      <trkpt lat="41.8672260" lon="-8.8578340">
        <ele>-1.6</ele>
        <time>2021-05-18T15:26:24Z</time>
      </trkpt>
      <trkpt lat="41.8672270" lon="-8.8578320">
        <ele>-1.6</ele>
        <time>2021-05-18T15:26:25Z</time>
      </trkpt>
      <trkpt lat="41.8672270" lon="-8.8578310">
        <ele>-1.6</ele>
        <time>2021-05-18T15:26:26Z</time>
      </trkpt>
      <trkpt lat="41.8672240" lon="-8.8578230">
        <ele>-1.6</ele>
        <time>2021-05-18T15:26:27Z</time>
      </trkpt>
      <trkpt lat="41.8672180" lon="-8.8578210">
        <ele>-1.6</ele>
        <time>2021-05-18T15:26:28Z</time>
      </trkpt>
      <trkpt lat="41.8672200" lon="-8.8578200">
        <ele>-1.6</ele>
        <time>2021-05-18T15:26:29Z</time>
      </trkpt>
      <trkpt lat="41.8672180" lon="-8.8578200">
        <ele>-1.6</ele>
        <time>2021-05-18T15:26:30Z</time>
      </trkpt>
      <trkpt lat="41.8672190" lon="-8.8578200">
        <ele>-1.6</ele>
        <time>2021-05-18T15:26:31Z</time>
      </trkpt>
      <trkpt lat="41.8672220" lon="-8.8578300">
        <ele>-1.6</ele>
        <time>2021-05-18T15:26:32Z</time>
      </trkpt>
      <trkpt lat="41.8672250" lon="-8.8578370">
        <ele>-1.6</ele>
        <time>2021-05-18T15:26:33Z</time>
      </trkpt>
      <trkpt lat="41.8672260" lon="-8.8578380">
        <ele>-1.6</ele>
        <time>2021-05-18T15:26:34Z</time>
      </trkpt>
      <trkpt lat="41.8672260" lon="-8.8578410">
        <ele>-1.6</ele>
        <time>2021-05-18T15:26:35Z</time>
      </trkpt>
      <trkpt lat="41.8672240" lon="-8.8578470">
        <ele>-1.6</ele>
        <time>2021-05-18T15:26:36Z</time>
      </trkpt>
      <trkpt lat="41.8672180" lon="-8.8578480">
        <ele>-1.6</ele>
        <time>2021-05-18T15:26:37Z</time>
      </trkpt>
      <trkpt lat="41.8672200" lon="-8.8578530">
        <ele>-1.7</ele>
        <time>2021-05-18T15:26:38Z</time>
      </trkpt>
      <trkpt lat="41.8672190" lon="-8.8578530">
        <ele>-1.7</ele>
        <time>2021-05-18T15:26:39Z</time>
      </trkpt>
      <trkpt lat="41.8672200" lon="-8.8578500">
        <ele>-1.7</ele>
        <time>2021-05-18T15:26:40Z</time>
      </trkpt>
      <trkpt lat="41.8672190" lon="-8.8578490">
        <ele>-1.7</ele>
        <time>2021-05-18T15:26:41Z</time>
      </trkpt>
      <trkpt lat="41.8672140" lon="-8.8578500">
        <ele>-1.7</ele>
        <time>2021-05-18T15:26:42Z</time>
      </trkpt>
      <trkpt lat="41.8672120" lon="-8.8578510">
        <ele>-1.7</ele>
        <time>2021-05-18T15:26:43Z</time>
      </trkpt>
      <trkpt lat="41.8672100" lon="-8.8578530">
        <ele>-1.7</ele>
        <time>2021-05-18T15:26:44Z</time>
      </trkpt>
      <trkpt lat="41.8672110" lon="-8.8578530">
        <ele>-1.7</ele>
        <time>2021-05-18T15:26:45Z</time>
      </trkpt>
      <trkpt lat="41.8672120" lon="-8.8578550">
        <ele>-1.7</ele>
        <time>2021-05-18T15:26:46Z</time>
      </trkpt>
      <trkpt lat="41.8672080" lon="-8.8578530">
        <ele>-1.7</ele>
        <time>2021-05-18T15:26:47Z</time>
      </trkpt>
      <trkpt lat="41.8672080" lon="-8.8578530">
        <ele>-1.7</ele>
        <time>2021-05-18T15:26:48Z</time>
      </trkpt>
      <trkpt lat="41.8672050" lon="-8.8578550">
        <ele>-1.7</ele>
        <time>2021-05-18T15:26:49Z</time>
      </trkpt>
      <trkpt lat="41.8672020" lon="-8.8578550">
        <ele>-1.7</ele>
        <time>2021-05-18T15:26:50Z</time>
      </trkpt>
      <trkpt lat="41.8672050" lon="-8.8578550">
        <ele>-1.7</ele>
        <time>2021-05-18T15:26:51Z</time>
      </trkpt>
      <trkpt lat="41.8672050" lon="-8.8578530">
        <ele>-1.7</ele>
        <time>2021-05-18T15:26:52Z</time>
      </trkpt>
      <trkpt lat="41.8672070" lon="-8.8578510">
        <ele>-1.7</ele>
        <time>2021-05-18T15:26:53Z</time>
      </trkpt>
      <trkpt lat="41.8672070" lon="-8.8578490">
        <ele>-1.7</ele>
        <time>2021-05-18T15:26:54Z</time>
      </trkpt>
      <trkpt lat="41.8672060" lon="-8.8578500">
        <ele>-1.7</ele>
        <time>2021-05-18T15:26:55Z</time>
      </trkpt>
      <trkpt lat="41.8672070" lon="-8.8578510">
        <ele>-1.7</ele>
        <time>2021-05-18T15:26:56Z</time>
      </trkpt>
      <trkpt lat="41.8672120" lon="-8.8578520">
        <ele>-1.7</ele>
        <time>2021-05-18T15:26:57Z</time>
      </trkpt>
      <trkpt lat="41.8672130" lon="-8.8578510">
        <ele>-1.7</ele>
        <time>2021-05-18T15:26:58Z</time>
      </trkpt>
      <trkpt lat="41.8672170" lon="-8.8578530">
        <ele>-1.7</ele>
        <time>2021-05-18T15:26:59Z</time>
      </trkpt>
      <trkpt lat="41.8672210" lon="-8.8578550">
        <ele>-1.7</ele>
        <time>2021-05-18T15:27:00Z</time>
      </trkpt>
      <trkpt lat="41.8672250" lon="-8.8578580">
        <ele>-1.8</ele>
        <time>2021-05-18T15:27:01Z</time>
      </trkpt>
      <trkpt lat="41.8672310" lon="-8.8578580">
        <ele>-1.6</ele>
        <time>2021-05-18T15:27:02Z</time>
      </trkpt>
      <trkpt lat="41.8672370" lon="-8.8578580">
        <ele>-1.6</ele>
        <time>2021-05-18T15:27:03Z</time>
      </trkpt>
      <trkpt lat="41.8672410" lon="-8.8578590">
        <ele>-1.7</ele>
        <time>2021-05-18T15:27:04Z</time>
      </trkpt>
      <trkpt lat="41.8672460" lon="-8.8578600">
        <ele>-1.7</ele>
        <time>2021-05-18T15:27:05Z</time>
      </trkpt>
      <trkpt lat="41.8672480" lon="-8.8578590">
        <ele>-1.7</ele>
        <time>2021-05-18T15:27:06Z</time>
      </trkpt>
      <trkpt lat="41.8672540" lon="-8.8578560">
        <ele>-1.7</ele>
        <time>2021-05-18T15:27:07Z</time>
      </trkpt>
      <trkpt lat="41.8672570" lon="-8.8578560">
        <ele>-1.7</ele>
        <time>2021-05-18T15:27:08Z</time>
      </trkpt>
      <trkpt lat="41.8672590" lon="-8.8578550">
        <ele>-1.7</ele>
        <time>2021-05-18T15:27:09Z</time>
      </trkpt>
      <trkpt lat="41.8672640" lon="-8.8578560">
        <ele>-1.5</ele>
        <time>2021-05-18T15:27:10Z</time>
      </trkpt>
      <trkpt lat="41.8672690" lon="-8.8578560">
        <ele>-1.5</ele>
        <time>2021-05-18T15:27:11Z</time>
      </trkpt>
      <trkpt lat="41.8672690" lon="-8.8578580">
        <ele>-1.5</ele>
        <time>2021-05-18T15:27:12Z</time>
      </trkpt>
      <trkpt lat="41.8672760" lon="-8.8578590">
        <ele>-1.5</ele>
        <time>2021-05-18T15:27:13Z</time>
      </trkpt>
      <trkpt lat="41.8672790" lon="-8.8578590">
        <ele>-1.5</ele>
        <time>2021-05-18T15:27:14Z</time>
      </trkpt>
      <trkpt lat="41.8672810" lon="-8.8578580">
        <ele>-1.5</ele>
        <time>2021-05-18T15:27:15Z</time>
      </trkpt>
      <trkpt lat="41.8672830" lon="-8.8578550">
        <ele>-1.5</ele>
        <time>2021-05-18T15:27:16Z</time>
      </trkpt>
      <trkpt lat="41.8672860" lon="-8.8578540">
        <ele>-1.5</ele>
        <time>2021-05-18T15:27:17Z</time>
      </trkpt>
      <trkpt lat="41.8672870" lon="-8.8578530">
        <ele>-1.5</ele>
        <time>2021-05-18T15:27:18Z</time>
      </trkpt>
      <trkpt lat="41.8672870" lon="-8.8578520">
        <ele>-1.5</ele>
        <time>2021-05-18T15:27:19Z</time>
      </trkpt>
      <trkpt lat="41.8672880" lon="-8.8578510">
        <ele>-1.5</ele>
        <time>2021-05-18T15:27:20Z</time>
      </trkpt>
      <trkpt lat="41.8672880" lon="-8.8578500">
        <ele>-1.5</ele>
        <time>2021-05-18T15:27:21Z</time>
      </trkpt>
      <trkpt lat="41.8672880" lon="-8.8578490">
        <ele>-1.5</ele>
        <time>2021-05-18T15:27:22Z</time>
      </trkpt>
      <trkpt lat="41.8672890" lon="-8.8578480">
        <ele>-1.5</ele>
        <time>2021-05-18T15:27:23Z</time>
      </trkpt>
      <trkpt lat="41.8672890" lon="-8.8578470">
        <ele>-1.5</ele>
        <time>2021-05-18T15:27:24Z</time>
      </trkpt>
      <trkpt lat="41.8672900" lon="-8.8578460">
        <ele>-1.5</ele>
        <time>2021-05-18T15:27:25Z</time>
      </trkpt>
      <trkpt lat="41.8672900" lon="-8.8578450">
        <ele>-1.5</ele>
        <time>2021-05-18T15:27:26Z</time>
      </trkpt>
      <trkpt lat="41.8672900" lon="-8.8578440">
        <ele>-1.5</ele>
        <time>2021-05-18T15:27:27Z</time>
      </trkpt>
      <trkpt lat="41.8672910" lon="-8.8578430">
        <ele>-1.5</ele>
        <time>2021-05-18T15:27:28Z</time>
      </trkpt>
      <trkpt lat="41.8672910" lon="-8.8578420">
        <ele>-1.5</ele>
        <time>2021-05-18T15:27:29Z</time>
      </trkpt>
      <trkpt lat="41.8672920" lon="-8.8578410">
        <ele>-1.3</ele>
        <time>2021-05-18T15:27:30Z</time>
      </trkpt>
      <trkpt lat="41.8672920" lon="-8.8578400">
        <ele>-1.3</ele>
        <time>2021-05-18T15:27:31Z</time>
      </trkpt>
      <trkpt lat="41.8672920" lon="-8.8578390">
        <ele>-1.3</ele>
        <time>2021-05-18T15:27:32Z</time>
      </trkpt>
      <trkpt lat="41.8672930" lon="-8.8578380">
        <ele>-1.3</ele>
        <time>2021-05-18T15:27:33Z</time>
      </trkpt>
      <trkpt lat="41.8672930" lon="-8.8578370">
        <ele>-1.3</ele>
        <time>2021-05-18T15:27:34Z</time>
      </trkpt>
      <trkpt lat="41.8672940" lon="-8.8578360">
        <ele>-1.3</ele>
        <time>2021-05-18T15:27:35Z</time>
      </trkpt>
      <trkpt lat="41.8672940" lon="-8.8578350">
        <ele>-1.3</ele>
        <time>2021-05-18T15:27:36Z</time>
      </trkpt>
      <trkpt lat="41.8672940" lon="-8.8578340">
        <ele>-1.3</ele>
        <time>2021-05-18T15:27:37Z</time>
      </trkpt>
      <trkpt lat="41.8672950" lon="-8.8578320">
        <ele>-1.3</ele>
        <time>2021-05-18T15:27:38Z</time>
      </trkpt>
      <trkpt lat="41.8672950" lon="-8.8578310">
        <ele>-1.3</ele>
        <time>2021-05-18T15:27:39Z</time>
      </trkpt>
      <trkpt lat="41.8672960" lon="-8.8578300">
        <ele>-1.4</ele>
        <time>2021-05-18T15:27:40Z</time>
      </trkpt>
      <trkpt lat="41.8672960" lon="-8.8578290">
        <ele>-1.4</ele>
        <time>2021-05-18T15:27:41Z</time>
      </trkpt>
      <trkpt lat="41.8672960" lon="-8.8578280">
        <ele>-1.4</ele>
        <time>2021-05-18T15:27:42Z</time>
      </trkpt>
      <trkpt lat="41.8672970" lon="-8.8578270">
        <ele>-1.4</ele>
        <time>2021-05-18T15:27:43Z</time>
      </trkpt>
      <trkpt lat="41.8672970" lon="-8.8578260">
        <ele>-1.4</ele>
        <time>2021-05-18T15:27:44Z</time>
      </trkpt>
      <trkpt lat="41.8672980" lon="-8.8578250">
        <ele>-1.4</ele>
        <time>2021-05-18T15:27:45Z</time>
      </trkpt>
      <trkpt lat="41.8672980" lon="-8.8578240">
        <ele>-1.4</ele>
        <time>2021-05-18T15:27:46Z</time>
      </trkpt>
      <trkpt lat="41.8672980" lon="-8.8578230">
        <ele>-1.4</ele>
        <time>2021-05-18T15:27:47Z</time>
      </trkpt>
      <trkpt lat="41.8672990" lon="-8.8578220">
        <ele>-1.4</ele>
        <time>2021-05-18T15:27:48Z</time>
      </trkpt>
      <trkpt lat="41.8672990" lon="-8.8578210">
        <ele>-1.4</ele>
        <time>2021-05-18T15:27:49Z</time>
      </trkpt>
      <trkpt lat="41.8673000" lon="-8.8578200">
        <ele>-1.4</ele>
        <time>2021-05-18T15:27:50Z</time>
      </trkpt>
      <trkpt lat="41.8673000" lon="-8.8578190">
        <ele>-1.4</ele>
        <time>2021-05-18T15:27:51Z</time>
      </trkpt>
      <trkpt lat="41.8673000" lon="-8.8578180">
        <ele>-1.4</ele>
        <time>2021-05-18T15:27:52Z</time>
      </trkpt>
      <trkpt lat="41.8673010" lon="-8.8578170">
        <ele>-1.4</ele>
        <time>2021-05-18T15:27:53Z</time>
      </trkpt>
      <trkpt lat="41.8673010" lon="-8.8578160">
        <ele>-1.4</ele>
        <time>2021-05-18T15:27:54Z</time>
      </trkpt>
      <trkpt lat="41.8673020" lon="-8.8578150">
        <ele>-1.4</ele>
        <time>2021-05-18T15:27:55Z</time>
      </trkpt>
      <trkpt lat="41.8673020" lon="-8.8578140">
        <ele>-1.4</ele>
        <time>2021-05-18T15:27:56Z</time>
      </trkpt>
      <trkpt lat="41.8673020" lon="-8.8578130">
        <ele>-1.4</ele>
        <time>2021-05-18T15:27:57Z</time>
      </trkpt>
      <trkpt lat="41.8673030" lon="-8.8578120">
        <ele>-1.4</ele>
        <time>2021-05-18T15:27:58Z</time>
      </trkpt>
      <trkpt lat="41.8673030" lon="-8.8578110">
        <ele>-1.4</ele>
        <time>2021-05-18T15:27:59Z</time>
      </trkpt>
      <trkpt lat="41.8673040" lon="-8.8578100">
        <ele>-1.4</ele>
        <time>2021-05-18T15:28:00Z</time>
      </trkpt>
      <trkpt lat="41.8673040" lon="-8.8578090">
        <ele>-1.4</ele>
        <time>2021-05-18T15:28:01Z</time>
      </trkpt>
      <trkpt lat="41.8673040" lon="-8.8578080">
        <ele>-1.4</ele>
        <time>2021-05-18T15:28:02Z</time>
      </trkpt>
      <trkpt lat="41.8673050" lon="-8.8578070">
        <ele>-1.4</ele>
        <time>2021-05-18T15:28:03Z</time>
      </trkpt>
      <trkpt lat="41.8673050" lon="-8.8578060">
        <ele>-1.4</ele>
        <time>2021-05-18T15:28:04Z</time>
      </trkpt>
      <trkpt lat="41.8673060" lon="-8.8578050">
        <ele>-1.4</ele>
        <time>2021-05-18T15:28:05Z</time>
      </trkpt>
      <trkpt lat="41.8673060" lon="-8.8578040">
        <ele>-1.4</ele>
        <time>2021-05-18T15:28:06Z</time>
      </trkpt>
      <trkpt lat="41.8673060" lon="-8.8578030">
        <ele>-1.4</ele>
        <time>2021-05-18T15:28:07Z</time>
      </trkpt>
      <trkpt lat="41.8673070" lon="-8.8578020">
        <ele>-1.4</ele>
        <time>2021-05-18T15:28:08Z</time>
      </trkpt>
      <trkpt lat="41.8673070" lon="-8.8578010">
        <ele>-1.4</ele>
        <time>2021-05-18T15:28:09Z</time>
      </trkpt>
      <trkpt lat="41.8673080" lon="-8.8578000">
        <ele>-1.5</ele>
        <time>2021-05-18T15:28:10Z</time>
      </trkpt>
      <trkpt lat="41.8673080" lon="-8.8577990">
        <ele>-1.5</ele>
        <time>2021-05-18T15:28:11Z</time>
      </trkpt>
      <trkpt lat="41.8673080" lon="-8.8577980">
        <ele>-1.5</ele>
        <time>2021-05-18T15:28:12Z</time>
      </trkpt>
      <trkpt lat="41.8673090" lon="-8.8577970">
        <ele>-1.5</ele>
        <time>2021-05-18T15:28:13Z</time>
      </trkpt>
      <trkpt lat="41.8673090" lon="-8.8577960">
        <ele>-1.5</ele>
        <time>2021-05-18T15:28:14Z</time>
      </trkpt>
      <trkpt lat="41.8673100" lon="-8.8577950">
        <ele>-1.5</ele>
        <time>2021-05-18T15:28:15Z</time>
      </trkpt>
      <trkpt lat="41.8673100" lon="-8.8577940">
        <ele>-1.5</ele>
        <time>2021-05-18T15:28:16Z</time>
      </trkpt>
      <trkpt lat="41.8673100" lon="-8.8577930">
        <ele>-1.5</ele>
        <time>2021-05-18T15:28:17Z</time>
      </trkpt>
      <trkpt lat="41.8673110" lon="-8.8577920">
        <ele>-1.5</ele>
        <time>2021-05-18T15:28:18Z</time>
      </trkpt>
      <trkpt lat="41.8673110" lon="-8.8577910">
        <ele>-1.5</ele>
        <time>2021-05-18T15:28:19Z</time>
      </trkpt>
      <trkpt lat="41.8673120" lon="-8.8577890">
        <ele>-1.5</ele>
        <time>2021-05-18T15:28:20Z</time>
      </trkpt>
      <trkpt lat="41.8673120" lon="-8.8577880">
        <ele>-1.5</ele>
        <time>2021-05-18T15:28:21Z</time>
      </trkpt>
      <trkpt lat="41.8673120" lon="-8.8577870">
        <ele>-1.5</ele>
        <time>2021-05-18T15:28:22Z</time>
      </trkpt>
      <trkpt lat="41.8673130" lon="-8.8577860">
        <ele>-1.5</ele>
        <time>2021-05-18T15:28:23Z</time>
      </trkpt>
      <trkpt lat="41.8673130" lon="-8.8577850">
        <ele>-1.5</ele>
        <time>2021-05-18T15:28:24Z</time>
      </trkpt>
      <trkpt lat="41.8673140" lon="-8.8577840">
        <ele>-1.5</ele>
        <time>2021-05-18T15:28:25Z</time>
      </trkpt>
      <trkpt lat="41.8673140" lon="-8.8577830">
        <ele>-1.5</ele>
        <time>2021-05-18T15:28:26Z</time>
      </trkpt>
      <trkpt lat="41.8673140" lon="-8.8577820">
        <ele>-1.5</ele>
        <time>2021-05-18T15:28:27Z</time>
      </trkpt>
      <trkpt lat="41.8673150" lon="-8.8577810">
        <ele>-1.5</ele>
        <time>2021-05-18T15:28:28Z</time>
      </trkpt>
      <trkpt lat="41.8673150" lon="-8.8577800">
        <ele>-1.5</ele>
        <time>2021-05-18T15:28:29Z</time>
      </trkpt>
      <trkpt lat="41.8673160" lon="-8.8577790">
        <ele>-1.5</ele>
        <time>2021-05-18T15:28:30Z</time>
      </trkpt>
      <trkpt lat="41.8673160" lon="-8.8577780">
        <ele>-1.5</ele>
        <time>2021-05-18T15:28:31Z</time>
      </trkpt>
      <trkpt lat="41.8673160" lon="-8.8577770">
        <ele>-1.5</ele>
        <time>2021-05-18T15:28:32Z</time>
      </trkpt>
      <trkpt lat="41.8673170" lon="-8.8577760">
        <ele>-1.5</ele>
        <time>2021-05-18T15:28:33Z</time>
      </trkpt>
      <trkpt lat="41.8673170" lon="-8.8577750">
        <ele>-1.5</ele>
        <time>2021-05-18T15:28:34Z</time>
      </trkpt>
      <trkpt lat="41.8673180" lon="-8.8577740">
        <ele>-1.5</ele>
        <time>2021-05-18T15:28:35Z</time>
      </trkpt>
      <trkpt lat="41.8673180" lon="-8.8577730">
        <ele>-1.5</ele>
        <time>2021-05-18T15:28:36Z</time>
      </trkpt>
      <trkpt lat="41.8673180" lon="-8.8577720">
        <ele>-1.6</ele>
        <time>2021-05-18T15:28:37Z</time>
      </trkpt>
      <trkpt lat="41.8673190" lon="-8.8577710">
        <ele>-1.6</ele>
        <time>2021-05-18T15:28:38Z</time>
      </trkpt>
      <trkpt lat="41.8673190" lon="-8.8577700">
        <ele>-1.6</ele>
        <time>2021-05-18T15:28:39Z</time>
      </trkpt>
      <trkpt lat="41.8673200" lon="-8.8577690">
        <ele>-1.6</ele>
        <time>2021-05-18T15:28:40Z</time>
      </trkpt>
      <trkpt lat="41.8673200" lon="-8.8577680">
        <ele>-1.6</ele>
        <time>2021-05-18T15:28:41Z</time>
      </trkpt>
      <trkpt lat="41.8673330" lon="-8.8577560">
        <ele>-1.4</ele>
        <time>2021-05-18T15:28:42Z</time>
      </trkpt>
      <trkpt lat="41.8673540" lon="-8.8577540">
        <ele>-1.4</ele>
        <time>2021-05-18T15:28:43Z</time>
      </trkpt>
      <trkpt lat="41.8673930" lon="-8.8577650">
        <ele>-1.0</ele>
        <time>2021-05-18T15:28:44Z</time>
      </trkpt>
      <trkpt lat="41.8674070" lon="-8.8577710">
        <ele>-1.0</ele>
        <time>2021-05-18T15:28:45Z</time>
      </trkpt>
      <trkpt lat="41.8674410" lon="-8.8577980">
        <ele>-1.0</ele>
        <time>2021-05-18T15:28:46Z</time>
      </trkpt>
      <trkpt lat="41.8674520" lon="-8.8578080">
        <ele>-0.9</ele>
        <time>2021-05-18T15:28:47Z</time>
      </trkpt>
      <trkpt lat="41.8674870" lon="-8.8578270">
        <ele>-1.0</ele>
        <time>2021-05-18T15:28:48Z</time>
      </trkpt>
      <trkpt lat="41.8675000" lon="-8.8578350">
        <ele>-1.0</ele>
        <time>2021-05-18T15:28:49Z</time>
      </trkpt>
      <trkpt lat="41.8675350" lon="-8.8578530">
        <ele>-1.0</ele>
        <time>2021-05-18T15:28:50Z</time>
      </trkpt>
      <trkpt lat="41.8675460" lon="-8.8578600">
        <ele>-1.0</ele>
        <time>2021-05-18T15:28:51Z</time>
      </trkpt>
      <trkpt lat="41.8675800" lon="-8.8578780">
        <ele>-1.2</ele>
        <time>2021-05-18T15:28:52Z</time>
      </trkpt>
      <trkpt lat="41.8675910" lon="-8.8578850">
        <ele>-1.2</ele>
        <time>2021-05-18T15:28:53Z</time>
      </trkpt>
      <trkpt lat="41.8676290" lon="-8.8579060">
        <ele>-1.2</ele>
        <time>2021-05-18T15:28:54Z</time>
      </trkpt>
      <trkpt lat="41.8676410" lon="-8.8579130">
        <ele>-1.2</ele>
        <time>2021-05-18T15:28:55Z</time>
      </trkpt>
      <trkpt lat="41.8676700" lon="-8.8579380">
        <ele>-1.2</ele>
        <time>2021-05-18T15:28:56Z</time>
      </trkpt>
      <trkpt lat="41.8676810" lon="-8.8579450">
        <ele>-1.2</ele>
        <time>2021-05-18T15:28:57Z</time>
      </trkpt>
      <trkpt lat="41.8677110" lon="-8.8579700">
        <ele>-1.2</ele>
        <time>2021-05-18T15:28:58Z</time>
      </trkpt>
      <trkpt lat="41.8677230" lon="-8.8579790">
        <ele>-1.2</ele>
        <time>2021-05-18T15:28:59Z</time>
      </trkpt>
      <trkpt lat="41.8677570" lon="-8.8580040">
        <ele>-1.2</ele>
        <time>2021-05-18T15:29:00Z</time>
      </trkpt>
      <trkpt lat="41.8677690" lon="-8.8580110">
        <ele>-1.2</ele>
        <time>2021-05-18T15:29:01Z</time>
      </trkpt>
      <trkpt lat="41.8677930" lon="-8.8580290">
        <ele>-1.2</ele>
        <time>2021-05-18T15:29:02Z</time>
      </trkpt>
      <trkpt lat="41.8678220" lon="-8.8580530">
        <ele>-1.2</ele>
        <time>2021-05-18T15:29:03Z</time>
      </trkpt>
      <trkpt lat="41.8678310" lon="-8.8580610">
        <ele>-1.3</ele>
        <time>2021-05-18T15:29:04Z</time>
      </trkpt>
      <trkpt lat="41.8678640" lon="-8.8580880">
        <ele>-1.3</ele>
        <time>2021-05-18T15:29:05Z</time>
      </trkpt>
      <trkpt lat="41.8678740" lon="-8.8580970">
        <ele>-1.3</ele>
        <time>2021-05-18T15:29:06Z</time>
      </trkpt>
      <trkpt lat="41.8679070" lon="-8.8581260">
        <ele>-1.3</ele>
        <time>2021-05-18T15:29:07Z</time>
      </trkpt>
      <trkpt lat="41.8679170" lon="-8.8581360">
        <ele>-1.3</ele>
        <time>2021-05-18T15:29:08Z</time>
      </trkpt>
      <trkpt lat="41.8679460" lon="-8.8581730">
        <ele>-1.3</ele>
        <time>2021-05-18T15:29:09Z</time>
      </trkpt>
      <trkpt lat="41.8679560" lon="-8.8581860">
        <ele>-1.3</ele>
        <time>2021-05-18T15:29:10Z</time>
      </trkpt>
      <trkpt lat="41.8679840" lon="-8.8582220">
        <ele>-1.3</ele>
        <time>2021-05-18T15:29:11Z</time>
      </trkpt>
      <trkpt lat="41.8679930" lon="-8.8582350">
        <ele>-1.3</ele>
        <time>2021-05-18T15:29:12Z</time>
      </trkpt>
      <trkpt lat="41.8680120" lon="-8.8582610">
        <ele>-1.3</ele>
        <time>2021-05-18T15:29:13Z</time>
      </trkpt>
      <trkpt lat="41.8680310" lon="-8.8582880">
        <ele>-1.3</ele>
        <time>2021-05-18T15:29:14Z</time>
      </trkpt>
      <trkpt lat="41.8680580" lon="-8.8583210">
        <ele>-1.3</ele>
        <time>2021-05-18T15:29:15Z</time>
      </trkpt>
      <trkpt lat="41.8680690" lon="-8.8583340">
        <ele>-1.3</ele>
        <time>2021-05-18T15:29:16Z</time>
      </trkpt>
      <trkpt lat="41.8680930" lon="-8.8583570">
        <ele>-1.3</ele>
        <time>2021-05-18T15:29:17Z</time>
      </trkpt>
      <trkpt lat="41.8681220" lon="-8.8583860">
        <ele>-1.3</ele>
        <time>2021-05-18T15:29:18Z</time>
      </trkpt>
      <trkpt lat="41.8681540" lon="-8.8584150">
        <ele>-1.3</ele>
        <time>2021-05-18T15:29:19Z</time>
      </trkpt>
      <trkpt lat="41.8681810" lon="-8.8584480">
        <ele>-1.3</ele>
        <time>2021-05-18T15:29:20Z</time>
      </trkpt>
      <trkpt lat="41.8682200" lon="-8.8584840">
        <ele>-1.3</ele>
        <time>2021-05-18T15:29:21Z</time>
      </trkpt>
      <trkpt lat="41.8682540" lon="-8.8585160">
        <ele>-1.3</ele>
        <time>2021-05-18T15:29:22Z</time>
      </trkpt>
      <trkpt lat="41.8682900" lon="-8.8585500">
        <ele>-1.3</ele>
        <time>2021-05-18T15:29:23Z</time>
      </trkpt>
      <trkpt lat="41.8683260" lon="-8.8585840">
        <ele>-1.3</ele>
        <time>2021-05-18T15:29:24Z</time>
      </trkpt>
      <trkpt lat="41.8683620" lon="-8.8586210">
        <ele>-1.3</ele>
        <time>2021-05-18T15:29:25Z</time>
      </trkpt>
      <trkpt lat="41.8683990" lon="-8.8586590">
        <ele>-1.3</ele>
        <time>2021-05-18T15:29:26Z</time>
      </trkpt>
      <trkpt lat="41.8684350" lon="-8.8586970">
        <ele>-1.3</ele>
        <time>2021-05-18T15:29:27Z</time>
      </trkpt>
      <trkpt lat="41.8684730" lon="-8.8587370">
        <ele>-1.3</ele>
        <time>2021-05-18T15:29:28Z</time>
      </trkpt>
      <trkpt lat="41.8685080" lon="-8.8587760">
        <ele>-1.3</ele>
        <time>2021-05-18T15:29:29Z</time>
      </trkpt>
      <trkpt lat="41.8685450" lon="-8.8588180">
        <ele>-1.4</ele>
        <time>2021-05-18T15:29:30Z</time>
      </trkpt>
      <trkpt lat="41.8685820" lon="-8.8588600">
        <ele>-1.4</ele>
        <time>2021-05-18T15:29:31Z</time>
      </trkpt>
      <trkpt lat="41.8686220" lon="-8.8589030">
        <ele>-1.4</ele>
        <time>2021-05-18T15:29:32Z</time>
      </trkpt>
      <trkpt lat="41.8686620" lon="-8.8589440">
        <ele>-1.4</ele>
        <time>2021-05-18T15:29:33Z</time>
      </trkpt>
      <trkpt lat="41.8687020" lon="-8.8589860">
        <ele>-1.4</ele>
        <time>2021-05-18T15:29:34Z</time>
      </trkpt>
      <trkpt lat="41.8687460" lon="-8.8590300">
        <ele>-1.4</ele>
        <time>2021-05-18T15:29:35Z</time>
      </trkpt>
      <trkpt lat="41.8687890" lon="-8.8590750">
        <ele>-1.4</ele>
        <time>2021-05-18T15:29:36Z</time>
      </trkpt>
      <trkpt lat="41.8688290" lon="-8.8591180">
        <ele>-1.4</ele>
        <time>2021-05-18T15:29:37Z</time>
      </trkpt>
      <trkpt lat="41.8688750" lon="-8.8591600">
        <ele>-1.4</ele>
        <time>2021-05-18T15:29:38Z</time>
      </trkpt>
      <trkpt lat="41.8689220" lon="-8.8592030">
        <ele>-1.4</ele>
        <time>2021-05-18T15:29:39Z</time>
      </trkpt>
      <trkpt lat="41.8689630" lon="-8.8592460">
        <ele>-1.4</ele>
        <time>2021-05-18T15:29:40Z</time>
      </trkpt>
      <trkpt lat="41.8690020" lon="-8.8592850">
        <ele>-1.4</ele>
        <time>2021-05-18T15:29:41Z</time>
      </trkpt>
      <trkpt lat="41.8690430" lon="-8.8593250">
        <ele>-1.4</ele>
        <time>2021-05-18T15:29:42Z</time>
      </trkpt>
      <trkpt lat="41.8690860" lon="-8.8593680">
        <ele>-1.4</ele>
        <time>2021-05-18T15:29:43Z</time>
      </trkpt>
      <trkpt lat="41.8691260" lon="-8.8594110">
        <ele>-1.4</ele>
        <time>2021-05-18T15:29:44Z</time>
      </trkpt>
      <trkpt lat="41.8691650" lon="-8.8594550">
        <ele>-1.4</ele>
        <time>2021-05-18T15:29:45Z</time>
      </trkpt>
      <trkpt lat="41.8692090" lon="-8.8594970">
        <ele>-1.4</ele>
        <time>2021-05-18T15:29:46Z</time>
      </trkpt>
      <trkpt lat="41.8692550" lon="-8.8595400">
        <ele>-1.4</ele>
        <time>2021-05-18T15:29:47Z</time>
      </trkpt>
      <trkpt lat="41.8692990" lon="-8.8595790">
        <ele>-1.4</ele>
        <time>2021-05-18T15:29:48Z</time>
      </trkpt>
      <trkpt lat="41.8693460" lon="-8.8596190">
        <ele>-1.4</ele>
        <time>2021-05-18T15:29:49Z</time>
      </trkpt>
      <trkpt lat="41.8693930" lon="-8.8596600">
        <ele>-1.4</ele>
        <time>2021-05-18T15:29:50Z</time>
      </trkpt>
      <trkpt lat="41.8694430" lon="-8.8597030">
        <ele>-1.4</ele>
        <time>2021-05-18T15:29:51Z</time>
      </trkpt>
      <trkpt lat="41.8694900" lon="-8.8597460">
        <ele>-1.4</ele>
        <time>2021-05-18T15:29:52Z</time>
      </trkpt>
      <trkpt lat="41.8695380" lon="-8.8597900">
        <ele>-1.4</ele>
        <time>2021-05-18T15:29:53Z</time>
      </trkpt>
      <trkpt lat="41.8695850" lon="-8.8598380">
        <ele>-1.4</ele>
        <time>2021-05-18T15:29:54Z</time>
      </trkpt>
      <trkpt lat="41.8696270" lon="-8.8598880">
        <ele>-1.4</ele>
        <time>2021-05-18T15:29:55Z</time>
      </trkpt>
      <trkpt lat="41.8696730" lon="-8.8599370">
        <ele>-1.4</ele>
        <time>2021-05-18T15:29:56Z</time>
      </trkpt>
      <trkpt lat="41.8697230" lon="-8.8599920">
        <ele>-1.4</ele>
        <time>2021-05-18T15:29:57Z</time>
      </trkpt>
      <trkpt lat="41.8697740" lon="-8.8600450">
        <ele>-1.5</ele>
        <time>2021-05-18T15:29:58Z</time>
      </trkpt>
      <trkpt lat="41.8698250" lon="-8.8601010">
        <ele>-1.5</ele>
        <time>2021-05-18T15:29:59Z</time>
      </trkpt>
      <trkpt lat="41.8698750" lon="-8.8601620">
        <ele>-1.5</ele>
        <time>2021-05-18T15:30:00Z</time>
      </trkpt>
      <trkpt lat="41.8699240" lon="-8.8602160">
        <ele>-1.5</ele>
        <time>2021-05-18T15:30:01Z</time>
      </trkpt>
      <trkpt lat="41.8699730" lon="-8.8602760">
        <ele>-1.5</ele>
        <time>2021-05-18T15:30:02Z</time>
      </trkpt>
      <trkpt lat="41.8700240" lon="-8.8603440">
        <ele>-1.5</ele>
        <time>2021-05-18T15:30:03Z</time>
      </trkpt>
      <trkpt lat="41.8700770" lon="-8.8604070">
        <ele>-1.5</ele>
        <time>2021-05-18T15:30:04Z</time>
      </trkpt>
      <trkpt lat="41.8701280" lon="-8.8604730">
        <ele>-1.5</ele>
        <time>2021-05-18T15:30:05Z</time>
      </trkpt>
      <trkpt lat="41.8701820" lon="-8.8605430">
        <ele>-1.5</ele>
        <time>2021-05-18T15:30:06Z</time>
      </trkpt>
      <trkpt lat="41.8702340" lon="-8.8606110">
        <ele>-1.5</ele>
        <time>2021-05-18T15:30:07Z</time>
      </trkpt>
      <trkpt lat="41.8702870" lon="-8.8606800">
        <ele>-1.5</ele>
        <time>2021-05-18T15:30:08Z</time>
      </trkpt>
      <trkpt lat="41.8703420" lon="-8.8607490">
        <ele>-1.5</ele>
        <time>2021-05-18T15:30:09Z</time>
      </trkpt>
      <trkpt lat="41.8704000" lon="-8.8608190">
        <ele>-1.5</ele>
        <time>2021-05-18T15:30:10Z</time>
      </trkpt>
      <trkpt lat="41.8704550" lon="-8.8608920">
        <ele>-1.5</ele>
        <time>2021-05-18T15:30:11Z</time>
      </trkpt>
      <trkpt lat="41.8705080" lon="-8.8609650">
        <ele>-1.5</ele>
        <time>2021-05-18T15:30:12Z</time>
      </trkpt>
      <trkpt lat="41.8705660" lon="-8.8610430">
        <ele>-1.5</ele>
        <time>2021-05-18T15:30:13Z</time>
      </trkpt>
      <trkpt lat="41.8706230" lon="-8.8611220">
        <ele>-1.5</ele>
        <time>2021-05-18T15:30:14Z</time>
      </trkpt>
      <trkpt lat="41.8706780" lon="-8.8612020">
        <ele>-1.5</ele>
        <time>2021-05-18T15:30:15Z</time>
      </trkpt>
      <trkpt lat="41.8707320" lon="-8.8612840">
        <ele>-1.5</ele>
        <time>2021-05-18T15:30:16Z</time>
      </trkpt>
      <trkpt lat="41.8707870" lon="-8.8613680">
        <ele>-1.5</ele>
        <time>2021-05-18T15:30:17Z</time>
      </trkpt>
      <trkpt lat="41.8708400" lon="-8.8614510">
        <ele>-1.5</ele>
        <time>2021-05-18T15:30:18Z</time>
      </trkpt>
      <trkpt lat="41.8708930" lon="-8.8615370">
        <ele>-1.5</ele>
        <time>2021-05-18T15:30:19Z</time>
      </trkpt>
      <trkpt lat="41.8709450" lon="-8.8616240">
        <ele>-1.5</ele>
        <time>2021-05-18T15:30:20Z</time>
      </trkpt>
      <trkpt lat="41.8710030" lon="-8.8617110">
        <ele>-1.5</ele>
        <time>2021-05-18T15:30:21Z</time>
      </trkpt>
      <trkpt lat="41.8710570" lon="-8.8617990">
        <ele>-1.5</ele>
        <time>2021-05-18T15:30:22Z</time>
      </trkpt>
      <trkpt lat="41.8711120" lon="-8.8618870">
        <ele>-1.5</ele>
        <time>2021-05-18T15:30:23Z</time>
      </trkpt>
      <trkpt lat="41.8711680" lon="-8.8619770">
        <ele>-1.5</ele>
        <time>2021-05-18T15:30:24Z</time>
      </trkpt>
      <trkpt lat="41.8712240" lon="-8.8620700">
        <ele>-1.6</ele>
        <time>2021-05-18T15:30:25Z</time>
      </trkpt>
      <trkpt lat="41.8712820" lon="-8.8621620">
        <ele>-1.6</ele>
        <time>2021-05-18T15:30:26Z</time>
      </trkpt>
      <trkpt lat="41.8713390" lon="-8.8622520">
        <ele>-1.6</ele>
        <time>2021-05-18T15:30:27Z</time>
      </trkpt>
      <trkpt lat="41.8713980" lon="-8.8623410">
        <ele>-1.6</ele>
        <time>2021-05-18T15:30:28Z</time>
      </trkpt>
      <trkpt lat="41.8714570" lon="-8.8624300">
        <ele>-1.6</ele>
        <time>2021-05-18T15:30:29Z</time>
      </trkpt>
      <trkpt lat="41.8715160" lon="-8.8625220">
        <ele>-1.6</ele>
        <time>2021-05-18T15:30:30Z</time>
      </trkpt>
      <trkpt lat="41.8715730" lon="-8.8626160">
        <ele>-1.6</ele>
        <time>2021-05-18T15:30:31Z</time>
      </trkpt>
      <trkpt lat="41.8716310" lon="-8.8627090">
        <ele>-1.6</ele>
        <time>2021-05-18T15:30:32Z</time>
      </trkpt>
      <trkpt lat="41.8716890" lon="-8.8628050">
        <ele>-1.6</ele>
        <time>2021-05-18T15:30:33Z</time>
      </trkpt>
      <trkpt lat="41.8717500" lon="-8.8628990">
        <ele>-1.6</ele>
        <time>2021-05-18T15:30:34Z</time>
      </trkpt>
      <trkpt lat="41.8718090" lon="-8.8629910">
        <ele>-1.6</ele>
        <time>2021-05-18T15:30:35Z</time>
      </trkpt>
      <trkpt lat="41.8718700" lon="-8.8630770">
        <ele>-1.6</ele>
        <time>2021-05-18T15:30:36Z</time>
      </trkpt>
      <trkpt lat="41.8719310" lon="-8.8631630">
        <ele>-1.6</ele>
        <time>2021-05-18T15:30:37Z</time>
      </trkpt>
      <trkpt lat="41.8719970" lon="-8.8632480">
        <ele>-1.6</ele>
        <time>2021-05-18T15:30:38Z</time>
      </trkpt>
      <trkpt lat="41.8720640" lon="-8.8633380">
        <ele>-1.6</ele>
        <time>2021-05-18T15:30:39Z</time>
      </trkpt>
      <trkpt lat="41.8721280" lon="-8.8634240">
        <ele>-1.6</ele>
        <time>2021-05-18T15:30:40Z</time>
      </trkpt>
      <trkpt lat="41.8721880" lon="-8.8635130">
        <ele>-1.6</ele>
        <time>2021-05-18T15:30:41Z</time>
      </trkpt>
      <trkpt lat="41.8722520" lon="-8.8636030">
        <ele>-1.6</ele>
        <time>2021-05-18T15:30:42Z</time>
      </trkpt>
      <trkpt lat="41.8723140" lon="-8.8636900">
        <ele>-1.6</ele>
        <time>2021-05-18T15:30:43Z</time>
      </trkpt>
      <trkpt lat="41.8723770" lon="-8.8637800">
        <ele>-1.6</ele>
        <time>2021-05-18T15:30:44Z</time>
      </trkpt>
      <trkpt lat="41.8724410" lon="-8.8638710">
        <ele>-1.6</ele>
        <time>2021-05-18T15:30:45Z</time>
      </trkpt>
      <trkpt lat="41.8725030" lon="-8.8639590">
        <ele>-1.6</ele>
        <time>2021-05-18T15:30:46Z</time>
      </trkpt>
      <trkpt lat="41.8725650" lon="-8.8640530">
        <ele>-1.6</ele>
        <time>2021-05-18T15:30:47Z</time>
      </trkpt>
      <trkpt lat="41.8726250" lon="-8.8641410">
        <ele>-1.6</ele>
        <time>2021-05-18T15:30:48Z</time>
      </trkpt>
      <trkpt lat="41.8726930" lon="-8.8642300">
        <ele>-1.6</ele>
        <time>2021-05-18T15:30:49Z</time>
      </trkpt>
      <trkpt lat="41.8727570" lon="-8.8643180">
        <ele>-1.6</ele>
        <time>2021-05-18T15:30:50Z</time>
      </trkpt>
      <trkpt lat="41.8728250" lon="-8.8644080">
        <ele>-1.6</ele>
        <time>2021-05-18T15:30:51Z</time>
      </trkpt>
      <trkpt lat="41.8728900" lon="-8.8644920">
        <ele>-1.6</ele>
        <time>2021-05-18T15:30:52Z</time>
      </trkpt>
      <trkpt lat="41.8729490" lon="-8.8645720">
        <ele>-1.7</ele>
        <time>2021-05-18T15:30:53Z</time>
      </trkpt>
      <trkpt lat="41.8730060" lon="-8.8646470">
        <ele>-1.7</ele>
        <time>2021-05-18T15:30:54Z</time>
      </trkpt>
      <trkpt lat="41.8730570" lon="-8.8647090">
        <ele>-1.6</ele>
        <time>2021-05-18T15:30:55Z</time>
      </trkpt>
      <trkpt lat="41.8731060" lon="-8.8647600">
        <ele>-1.7</ele>
        <time>2021-05-18T15:30:56Z</time>
      </trkpt>
      <trkpt lat="41.8731510" lon="-8.8647970">
        <ele>-1.7</ele>
        <time>2021-05-18T15:30:57Z</time>
      </trkpt>
      <trkpt lat="41.8731910" lon="-8.8648220">
        <ele>-1.7</ele>
        <time>2021-05-18T15:30:58Z</time>
      </trkpt>
      <trkpt lat="41.8732280" lon="-8.8648450">
        <ele>-1.7</ele>
        <time>2021-05-18T15:30:59Z</time>
      </trkpt>
      <trkpt lat="41.8732560" lon="-8.8648610">
        <ele>-1.8</ele>
        <time>2021-05-18T15:31:00Z</time>
      </trkpt>
      <trkpt lat="41.8732840" lon="-8.8648750">
        <ele>-1.9</ele>
        <time>2021-05-18T15:31:01Z</time>
      </trkpt>
      <trkpt lat="41.8732920" lon="-8.8648790">
        <ele>-1.9</ele>
        <time>2021-05-18T15:31:02Z</time>
      </trkpt>
      <trkpt lat="41.8733080" lon="-8.8648870">
        <ele>-2.0</ele>
        <time>2021-05-18T15:31:03Z</time>
      </trkpt>
      <trkpt lat="41.8733220" lon="-8.8648990">
        <ele>-2.1</ele>
        <time>2021-05-18T15:31:04Z</time>
      </trkpt>
      <trkpt lat="41.8733540" lon="-8.8649190">
        <ele>-2.2</ele>
        <time>2021-05-18T15:31:05Z</time>
      </trkpt>
      <trkpt lat="41.8733640" lon="-8.8649250">
        <ele>-2.2</ele>
        <time>2021-05-18T15:31:06Z</time>
      </trkpt>
      <trkpt lat="41.8733900" lon="-8.8649350">
        <ele>-2.2</ele>
        <time>2021-05-18T15:31:07Z</time>
      </trkpt>
      <trkpt lat="41.8734160" lon="-8.8649510">
        <ele>-2.4</ele>
        <time>2021-05-18T15:31:08Z</time>
      </trkpt>
      <trkpt lat="41.8734250" lon="-8.8649570">
        <ele>-2.4</ele>
        <time>2021-05-18T15:31:09Z</time>
      </trkpt>
      <trkpt lat="41.8734540" lon="-8.8649680">
        <ele>-2.3</ele>
        <time>2021-05-18T15:31:10Z</time>
      </trkpt>
      <trkpt lat="41.8734650" lon="-8.8649700">
        <ele>-2.1</ele>
        <time>2021-05-18T15:31:11Z</time>
      </trkpt>
      <trkpt lat="41.8734920" lon="-8.8649700">
        <ele>-1.8</ele>
        <time>2021-05-18T15:31:12Z</time>
      </trkpt>
      <trkpt lat="41.8735030" lon="-8.8649690">
        <ele>-1.8</ele>
        <time>2021-05-18T15:31:13Z</time>
      </trkpt>
      <trkpt lat="41.8735340" lon="-8.8649580">
        <ele>-1.3</ele>
        <time>2021-05-18T15:31:14Z</time>
      </trkpt>
      <trkpt lat="41.8735440" lon="-8.8649530">
        <ele>-1.4</ele>
        <time>2021-05-18T15:31:15Z</time>
      </trkpt>
      <trkpt lat="41.8735720" lon="-8.8649390">
        <ele>-0.9</ele>
        <time>2021-05-18T15:31:16Z</time>
      </trkpt>
      <trkpt lat="41.8735810" lon="-8.8649340">
        <ele>-0.8</ele>
        <time>2021-05-18T15:31:17Z</time>
      </trkpt>
      <trkpt lat="41.8736150" lon="-8.8649220">
        <ele>-0.3</ele>
        <time>2021-05-18T15:31:18Z</time>
      </trkpt>
      <trkpt lat="41.8736270" lon="-8.8649170">
        <ele>0.2</ele>
        <time>2021-05-18T15:31:19Z</time>
      </trkpt>
      <trkpt lat="41.8736480" lon="-8.8649120">
        <ele>0.2</ele>
        <time>2021-05-18T15:31:20Z</time>
      </trkpt>
      <trkpt lat="41.8736610" lon="-8.8649070">
        <ele>0.7</ele>
        <time>2021-05-18T15:31:21Z</time>
      </trkpt>
      <trkpt lat="41.8736890" lon="-8.8649030">
        <ele>1.1</ele>
        <time>2021-05-18T15:31:22Z</time>
      </trkpt>
      <trkpt lat="41.8736990" lon="-8.8649010">
        <ele>1.1</ele>
        <time>2021-05-18T15:31:23Z</time>
      </trkpt>
      <trkpt lat="41.8737130" lon="-8.8649020">
        <ele>1.1</ele>
        <time>2021-05-18T15:31:24Z</time>
      </trkpt>
      <trkpt lat="41.8737300" lon="-8.8649010">
        <ele>1.5</ele>
        <time>2021-05-18T15:31:25Z</time>
      </trkpt>
      <trkpt lat="41.8737420" lon="-8.8649040">
        <ele>1.5</ele>
        <time>2021-05-18T15:31:26Z</time>
      </trkpt>
      <trkpt lat="41.8737590" lon="-8.8649060">
        <ele>1.8</ele>
        <time>2021-05-18T15:31:27Z</time>
      </trkpt>
      <trkpt lat="41.8737770" lon="-8.8649130">
        <ele>1.8</ele>
        <time>2021-05-18T15:31:28Z</time>
      </trkpt>
      <trkpt lat="41.8737900" lon="-8.8649190">
        <ele>2.0</ele>
        <time>2021-05-18T15:31:29Z</time>
      </trkpt>
      <trkpt lat="41.8738010" lon="-8.8649280">
        <ele>2.0</ele>
        <time>2021-05-18T15:31:30Z</time>
      </trkpt>
      <trkpt lat="41.8738110" lon="-8.8649400">
        <ele>2.3</ele>
        <time>2021-05-18T15:31:31Z</time>
      </trkpt>
      <trkpt lat="41.8738150" lon="-8.8649510">
        <ele>2.5</ele>
        <time>2021-05-18T15:31:32Z</time>
      </trkpt>
      <trkpt lat="41.8738210" lon="-8.8649750">
        <ele>2.5</ele>
        <time>2021-05-18T15:31:33Z</time>
      </trkpt>
      <trkpt lat="41.8738240" lon="-8.8649860">
        <ele>2.8</ele>
        <time>2021-05-18T15:31:34Z</time>
      </trkpt>
      <trkpt lat="41.8738280" lon="-8.8649970">
        <ele>2.8</ele>
        <time>2021-05-18T15:31:35Z</time>
      </trkpt>
      <trkpt lat="41.8738330" lon="-8.8650150">
        <ele>2.8</ele>
        <time>2021-05-18T15:31:36Z</time>
      </trkpt>
      <trkpt lat="41.8738370" lon="-8.8650340">
        <ele>3.0</ele>
        <time>2021-05-18T15:31:37Z</time>
      </trkpt>
      <trkpt lat="41.8738380" lon="-8.8650450">
        <ele>3.0</ele>
        <time>2021-05-18T15:31:38Z</time>
      </trkpt>
      <trkpt lat="41.8738380" lon="-8.8650460">
        <ele>3.0</ele>
        <time>2021-05-18T15:31:39Z</time>
      </trkpt>
      <trkpt lat="41.8738380" lon="-8.8650470">
        <ele>3.0</ele>
        <time>2021-05-18T15:31:40Z</time>
      </trkpt>
      <trkpt lat="41.8738380" lon="-8.8650480">
        <ele>3.0</ele>
        <time>2021-05-18T15:31:41Z</time>
      </trkpt>
      <trkpt lat="41.8738380" lon="-8.8650490">
        <ele>3.0</ele>
        <time>2021-05-18T15:31:42Z</time>
      </trkpt>
      <trkpt lat="41.8738380" lon="-8.8650500">
        <ele>3.0</ele>
        <time>2021-05-18T15:31:43Z</time>
      </trkpt>
      <trkpt lat="41.8738380" lon="-8.8650520">
        <ele>3.0</ele>
        <time>2021-05-18T15:31:44Z</time>
      </trkpt>
      <trkpt lat="41.8738380" lon="-8.8650530">
        <ele>3.0</ele>
        <time>2021-05-18T15:31:45Z</time>
      </trkpt>
      <trkpt lat="41.8738380" lon="-8.8650540">
        <ele>3.0</ele>
        <time>2021-05-18T15:31:46Z</time>
      </trkpt>
      <trkpt lat="41.8738380" lon="-8.8650550">
        <ele>3.0</ele>
        <time>2021-05-18T15:31:47Z</time>
      </trkpt>
      <trkpt lat="41.8738380" lon="-8.8650560">
        <ele>3.0</ele>
        <time>2021-05-18T15:31:48Z</time>
      </trkpt>
      <trkpt lat="41.8738380" lon="-8.8650570">
        <ele>3.0</ele>
        <time>2021-05-18T15:31:49Z</time>
      </trkpt>
      <trkpt lat="41.8738380" lon="-8.8650580">
        <ele>3.0</ele>
        <time>2021-05-18T15:31:50Z</time>
      </trkpt>
      <trkpt lat="41.8738380" lon="-8.8650590">
        <ele>3.0</ele>
        <time>2021-05-18T15:31:51Z</time>
      </trkpt>
      <trkpt lat="41.8738380" lon="-8.8650600">
        <ele>3.0</ele>
        <time>2021-05-18T15:31:52Z</time>
      </trkpt>
      <trkpt lat="41.8738380" lon="-8.8650610">
        <ele>3.0</ele>
        <time>2021-05-18T15:31:53Z</time>
      </trkpt>
      <trkpt lat="41.8738380" lon="-8.8650620">
        <ele>3.0</ele>
        <time>2021-05-18T15:31:54Z</time>
      </trkpt>
      <trkpt lat="41.8738380" lon="-8.8650630">
        <ele>3.0</ele>
        <time>2021-05-18T15:31:55Z</time>
      </trkpt>
      <trkpt lat="41.8738380" lon="-8.8650640">
        <ele>3.0</ele>
        <time>2021-05-18T15:31:56Z</time>
      </trkpt>
      <trkpt lat="41.8738380" lon="-8.8650660">
        <ele>3.1</ele>
        <time>2021-05-18T15:31:57Z</time>
      </trkpt>
      <trkpt lat="41.8738380" lon="-8.8650670">
        <ele>3.1</ele>
        <time>2021-05-18T15:31:58Z</time>
      </trkpt>
      <trkpt lat="41.8738380" lon="-8.8650680">
        <ele>3.1</ele>
        <time>2021-05-18T15:31:59Z</time>
      </trkpt>
      <trkpt lat="41.8738380" lon="-8.8650690">
        <ele>3.1</ele>
        <time>2021-05-18T15:32:00Z</time>
      </trkpt>
      <trkpt lat="41.8738380" lon="-8.8650700">
        <ele>3.1</ele>
        <time>2021-05-18T15:32:01Z</time>
      </trkpt>
      <trkpt lat="41.8738380" lon="-8.8650710">
        <ele>3.1</ele>
        <time>2021-05-18T15:32:02Z</time>
      </trkpt>
      <trkpt lat="41.8738380" lon="-8.8650720">
        <ele>3.1</ele>
        <time>2021-05-18T15:32:03Z</time>
      </trkpt>
      <trkpt lat="41.8738380" lon="-8.8650730">
        <ele>3.1</ele>
        <time>2021-05-18T15:32:04Z</time>
      </trkpt>
      <trkpt lat="41.8738380" lon="-8.8650740">
        <ele>3.1</ele>
        <time>2021-05-18T15:32:05Z</time>
      </trkpt>
      <trkpt lat="41.8738380" lon="-8.8650750">
        <ele>3.1</ele>
        <time>2021-05-18T15:32:06Z</time>
      </trkpt>
      <trkpt lat="41.8738380" lon="-8.8650760">
        <ele>3.1</ele>
        <time>2021-05-18T15:32:07Z</time>
      </trkpt>
      <trkpt lat="41.8738380" lon="-8.8650770">
        <ele>3.1</ele>
        <time>2021-05-18T15:32:08Z</time>
      </trkpt>
      <trkpt lat="41.8738380" lon="-8.8650790">
        <ele>3.1</ele>
        <time>2021-05-18T15:32:09Z</time>
      </trkpt>
      <trkpt lat="41.8738380" lon="-8.8650800">
        <ele>3.1</ele>
        <time>2021-05-18T15:32:10Z</time>
      </trkpt>
      <trkpt lat="41.8738380" lon="-8.8650810">
        <ele>3.1</ele>
        <time>2021-05-18T15:32:11Z</time>
      </trkpt>
      <trkpt lat="41.8738380" lon="-8.8650820">
        <ele>3.1</ele>
        <time>2021-05-18T15:32:12Z</time>
      </trkpt>
      <trkpt lat="41.8738380" lon="-8.8650830">
        <ele>3.1</ele>
        <time>2021-05-18T15:32:13Z</time>
      </trkpt>
      <trkpt lat="41.8738380" lon="-8.8650840">
        <ele>3.1</ele>
        <time>2021-05-18T15:32:14Z</time>
      </trkpt>
      <trkpt lat="41.8738380" lon="-8.8650850">
        <ele>3.1</ele>
        <time>2021-05-18T15:32:15Z</time>
      </trkpt>
      <trkpt lat="41.8738280" lon="-8.8650880">
        <ele>3.1</ele>
        <time>2021-05-18T15:32:16Z</time>
      </trkpt>
      <trkpt lat="41.8738310" lon="-8.8650860">
        <ele>3.1</ele>
        <time>2021-05-18T15:32:17Z</time>
      </trkpt>
      <trkpt lat="41.8738310" lon="-8.8650860">
        <ele>3.1</ele>
        <time>2021-05-18T15:32:18Z</time>
      </trkpt>
      <trkpt lat="41.8738300" lon="-8.8650880">
        <ele>3.1</ele>
        <time>2021-05-18T15:32:19Z</time>
      </trkpt>
      <trkpt lat="41.8738290" lon="-8.8650910">
        <ele>3.1</ele>
        <time>2021-05-18T15:32:20Z</time>
      </trkpt>
      <trkpt lat="41.8738300" lon="-8.8650930">
        <ele>3.1</ele>
        <time>2021-05-18T15:32:21Z</time>
      </trkpt>
      <trkpt lat="41.8738300" lon="-8.8650900">
        <ele>3.1</ele>
        <time>2021-05-18T15:32:22Z</time>
      </trkpt>
      <trkpt lat="41.8738300" lon="-8.8651020">
        <ele>3.1</ele>
        <time>2021-05-18T15:32:23Z</time>
      </trkpt>
      <trkpt lat="41.8738290" lon="-8.8651020">
        <ele>3.1</ele>
        <time>2021-05-18T15:32:24Z</time>
      </trkpt>
      <trkpt lat="41.8738280" lon="-8.8651040">
        <ele>3.0</ele>
        <time>2021-05-18T15:32:25Z</time>
      </trkpt>
      <trkpt lat="41.8738240" lon="-8.8651100">
        <ele>3.2</ele>
        <time>2021-05-18T15:32:26Z</time>
      </trkpt>
      <trkpt lat="41.8738180" lon="-8.8651160">
        <ele>3.2</ele>
        <time>2021-05-18T15:32:27Z</time>
      </trkpt>
      <trkpt lat="41.8738130" lon="-8.8651250">
        <ele>3.2</ele>
        <time>2021-05-18T15:32:28Z</time>
      </trkpt>
      <trkpt lat="41.8738080" lon="-8.8651290">
        <ele>3.0</ele>
        <time>2021-05-18T15:32:29Z</time>
      </trkpt>
      <trkpt lat="41.8738020" lon="-8.8651330">
        <ele>3.0</ele>
        <time>2021-05-18T15:32:30Z</time>
      </trkpt>
      <trkpt lat="41.8737940" lon="-8.8651330">
        <ele>3.0</ele>
        <time>2021-05-18T15:32:31Z</time>
      </trkpt>
      <trkpt lat="41.8737940" lon="-8.8651340">
        <ele>3.0</ele>
        <time>2021-05-18T15:32:32Z</time>
      </trkpt>
      <trkpt lat="41.8737960" lon="-8.8651360">
        <ele>3.0</ele>
        <time>2021-05-18T15:32:33Z</time>
      </trkpt>
      <trkpt lat="41.8738020" lon="-8.8651340">
        <ele>3.0</ele>
        <time>2021-05-18T15:32:34Z</time>
      </trkpt>
      <trkpt lat="41.8738080" lon="-8.8651290">
        <ele>3.0</ele>
        <time>2021-05-18T15:32:35Z</time>
      </trkpt>
      <trkpt lat="41.8738140" lon="-8.8651240">
        <ele>3.1</ele>
        <time>2021-05-18T15:32:36Z</time>
      </trkpt>
      <trkpt lat="41.8738150" lon="-8.8651220">
        <ele>3.1</ele>
        <time>2021-05-18T15:32:37Z</time>
      </trkpt>
      <trkpt lat="41.8738160" lon="-8.8651230">
        <ele>3.1</ele>
        <time>2021-05-18T15:32:38Z</time>
      </trkpt>
      <trkpt lat="41.8738190" lon="-8.8651230">
        <ele>3.1</ele>
        <time>2021-05-18T15:32:39Z</time>
      </trkpt>
      <trkpt lat="41.8738200" lon="-8.8651240">
        <ele>3.1</ele>
        <time>2021-05-18T15:32:40Z</time>
      </trkpt>
      <trkpt lat="41.8738200" lon="-8.8651190">
        <ele>3.1</ele>
        <time>2021-05-18T15:32:41Z</time>
      </trkpt>
      <trkpt lat="41.8738260" lon="-8.8651220">
        <ele>3.1</ele>
        <time>2021-05-18T15:32:42Z</time>
      </trkpt>
      <trkpt lat="41.8738310" lon="-8.8651200">
        <ele>3.1</ele>
        <time>2021-05-18T15:32:43Z</time>
      </trkpt>
      <trkpt lat="41.8738350" lon="-8.8651150">
        <ele>3.1</ele>
        <time>2021-05-18T15:32:44Z</time>
      </trkpt>
      <trkpt lat="41.8738400" lon="-8.8651040">
        <ele>3.0</ele>
        <time>2021-05-18T15:32:45Z</time>
      </trkpt>
      <trkpt lat="41.8738450" lon="-8.8650990">
        <ele>3.1</ele>
        <time>2021-05-18T15:32:46Z</time>
      </trkpt>
      <trkpt lat="41.8738480" lon="-8.8650970">
        <ele>3.1</ele>
        <time>2021-05-18T15:32:47Z</time>
      </trkpt>
      <trkpt lat="41.8738490" lon="-8.8650970">
        <ele>3.1</ele>
        <time>2021-05-18T15:32:48Z</time>
      </trkpt>
      <trkpt lat="41.8738490" lon="-8.8650950">
        <ele>3.1</ele>
        <time>2021-05-18T15:32:49Z</time>
      </trkpt>
      <trkpt lat="41.8738460" lon="-8.8650990">
        <ele>3.0</ele>
        <time>2021-05-18T15:32:50Z</time>
      </trkpt>
      <trkpt lat="41.8738490" lon="-8.8651010">
        <ele>3.0</ele>
        <time>2021-05-18T15:32:51Z</time>
      </trkpt>
      <trkpt lat="41.8738490" lon="-8.8651030">
        <ele>3.0</ele>
        <time>2021-05-18T15:32:52Z</time>
      </trkpt>
      <trkpt lat="41.8738510" lon="-8.8651060">
        <ele>3.0</ele>
        <time>2021-05-18T15:32:53Z</time>
      </trkpt>
      <trkpt lat="41.8738510" lon="-8.8651060">
        <ele>3.0</ele>
        <time>2021-05-18T15:32:54Z</time>
      </trkpt>
      <trkpt lat="41.8738510" lon="-8.8651040">
        <ele>3.0</ele>
        <time>2021-05-18T15:32:55Z</time>
      </trkpt>
      <trkpt lat="41.8738500" lon="-8.8651040">
        <ele>3.0</ele>
        <time>2021-05-18T15:32:56Z</time>
      </trkpt>
      <trkpt lat="41.8738460" lon="-8.8651010">
        <ele>3.0</ele>
        <time>2021-05-18T15:32:57Z</time>
      </trkpt>
      <trkpt lat="41.8738460" lon="-8.8651030">
        <ele>3.0</ele>
        <time>2021-05-18T15:32:58Z</time>
      </trkpt>
      <trkpt lat="41.8738470" lon="-8.8651050">
        <ele>3.0</ele>
        <time>2021-05-18T15:32:59Z</time>
      </trkpt>
      <trkpt lat="41.8738480" lon="-8.8651070">
        <ele>3.0</ele>
        <time>2021-05-18T15:33:00Z</time>
      </trkpt>
      <trkpt lat="41.8738500" lon="-8.8651120">
        <ele>3.1</ele>
        <time>2021-05-18T15:33:01Z</time>
      </trkpt>
      <trkpt lat="41.8738490" lon="-8.8651160">
        <ele>3.1</ele>
        <time>2021-05-18T15:33:02Z</time>
      </trkpt>
      <trkpt lat="41.8738480" lon="-8.8651130">
        <ele>3.1</ele>
        <time>2021-05-18T15:33:03Z</time>
      </trkpt>
      <trkpt lat="41.8738470" lon="-8.8651130">
        <ele>3.1</ele>
        <time>2021-05-18T15:33:04Z</time>
      </trkpt>
      <trkpt lat="41.8738470" lon="-8.8651150">
        <ele>3.1</ele>
        <time>2021-05-18T15:33:05Z</time>
      </trkpt>
      <trkpt lat="41.8738480" lon="-8.8651180">
        <ele>3.1</ele>
        <time>2021-05-18T15:33:06Z</time>
      </trkpt>
      <trkpt lat="41.8738380" lon="-8.8651210">
        <ele>3.0</ele>
        <time>2021-05-18T15:33:07Z</time>
      </trkpt>
      <trkpt lat="41.8738460" lon="-8.8651250">
        <ele>3.1</ele>
        <time>2021-05-18T15:33:08Z</time>
      </trkpt>
      <trkpt lat="41.8738410" lon="-8.8651240">
        <ele>3.0</ele>
        <time>2021-05-18T15:33:09Z</time>
      </trkpt>
      <trkpt lat="41.8738350" lon="-8.8651240">
        <ele>3.0</ele>
        <time>2021-05-18T15:33:10Z</time>
      </trkpt>
      <trkpt lat="41.8738340" lon="-8.8651250">
        <ele>3.0</ele>
        <time>2021-05-18T15:33:11Z</time>
      </trkpt>
      <trkpt lat="41.8738380" lon="-8.8651290">
        <ele>3.0</ele>
        <time>2021-05-18T15:33:12Z</time>
      </trkpt>
      <trkpt lat="41.8738380" lon="-8.8651340">
        <ele>3.0</ele>
        <time>2021-05-18T15:33:13Z</time>
      </trkpt>
      <trkpt lat="41.8738480" lon="-8.8651340">
        <ele>3.1</ele>
        <time>2021-05-18T15:33:14Z</time>
      </trkpt>
      <trkpt lat="41.8738520" lon="-8.8651460">
        <ele>3.1</ele>
        <time>2021-05-18T15:33:15Z</time>
      </trkpt>
      <trkpt lat="41.8738550" lon="-8.8651540">
        <ele>3.2</ele>
        <time>2021-05-18T15:33:16Z</time>
      </trkpt>
      <trkpt lat="41.8738580" lon="-8.8651600">
        <ele>3.2</ele>
        <time>2021-05-18T15:33:17Z</time>
      </trkpt>
      <trkpt lat="41.8738600" lon="-8.8651670">
        <ele>3.2</ele>
        <time>2021-05-18T15:33:18Z</time>
      </trkpt>
      <trkpt lat="41.8738620" lon="-8.8651690">
        <ele>3.2</ele>
        <time>2021-05-18T15:33:19Z</time>
      </trkpt>
      <trkpt lat="41.8738680" lon="-8.8651700">
        <ele>3.2</ele>
        <time>2021-05-18T15:33:20Z</time>
      </trkpt>
      <trkpt lat="41.8738720" lon="-8.8651700">
        <ele>3.2</ele>
        <time>2021-05-18T15:33:21Z</time>
      </trkpt>
      <trkpt lat="41.8738740" lon="-8.8651690">
        <ele>3.2</ele>
        <time>2021-05-18T15:33:22Z</time>
      </trkpt>
      <trkpt lat="41.8738740" lon="-8.8651670">
        <ele>3.2</ele>
        <time>2021-05-18T15:33:23Z</time>
      </trkpt>
      <trkpt lat="41.8738750" lon="-8.8651590">
        <ele>3.2</ele>
        <time>2021-05-18T15:33:24Z</time>
      </trkpt>
      <trkpt lat="41.8738760" lon="-8.8651560">
        <ele>3.2</ele>
        <time>2021-05-18T15:33:25Z</time>
      </trkpt>
      <trkpt lat="41.8738760" lon="-8.8651570">
        <ele>3.2</ele>
        <time>2021-05-18T15:33:26Z</time>
      </trkpt>
      <trkpt lat="41.8738790" lon="-8.8651540">
        <ele>3.2</ele>
        <time>2021-05-18T15:33:27Z</time>
      </trkpt>
      <trkpt lat="41.8738830" lon="-8.8651540">
        <ele>3.2</ele>
        <time>2021-05-18T15:33:28Z</time>
      </trkpt>
      <trkpt lat="41.8738830" lon="-8.8651550">
        <ele>3.2</ele>
        <time>2021-05-18T15:33:29Z</time>
      </trkpt>
      <trkpt lat="41.8738760" lon="-8.8651560">
        <ele>3.2</ele>
        <time>2021-05-18T15:33:30Z</time>
      </trkpt>
      <trkpt lat="41.8738770" lon="-8.8651540">
        <ele>3.2</ele>
        <time>2021-05-18T15:33:31Z</time>
      </trkpt>
      <trkpt lat="41.8738780" lon="-8.8651560">
        <ele>3.2</ele>
        <time>2021-05-18T15:33:32Z</time>
      </trkpt>
      <trkpt lat="41.8738800" lon="-8.8651570">
        <ele>3.2</ele>
        <time>2021-05-18T15:33:33Z</time>
      </trkpt>
      <trkpt lat="41.8738780" lon="-8.8651570">
        <ele>3.2</ele>
        <time>2021-05-18T15:33:34Z</time>
      </trkpt>
      <trkpt lat="41.8738780" lon="-8.8651520">
        <ele>3.2</ele>
        <time>2021-05-18T15:33:35Z</time>
      </trkpt>
      <trkpt lat="41.8738840" lon="-8.8651530">
        <ele>3.2</ele>
        <time>2021-05-18T15:33:36Z</time>
      </trkpt>
      <trkpt lat="41.8738840" lon="-8.8651530">
        <ele>3.2</ele>
        <time>2021-05-18T15:33:37Z</time>
      </trkpt>
      <trkpt lat="41.8738840" lon="-8.8651530">
        <ele>3.2</ele>
        <time>2021-05-18T15:33:38Z</time>
      </trkpt>
      <trkpt lat="41.8738830" lon="-8.8651520">
        <ele>3.1</ele>
        <time>2021-05-18T15:33:39Z</time>
      </trkpt>
      <trkpt lat="41.8738820" lon="-8.8651510">
        <ele>3.0</ele>
        <time>2021-05-18T15:33:40Z</time>
      </trkpt>
      <trkpt lat="41.8738810" lon="-8.8651490">
        <ele>3.0</ele>
        <time>2021-05-18T15:33:41Z</time>
      </trkpt>
      <trkpt lat="41.8738800" lon="-8.8651480">
        <ele>3.0</ele>
        <time>2021-05-18T15:33:42Z</time>
      </trkpt>
      <trkpt lat="41.8738800" lon="-8.8651480">
        <ele>3.0</ele>
        <time>2021-05-18T15:33:43Z</time>
      </trkpt>
      <trkpt lat="41.8738770" lon="-8.8651480">
        <ele>3.0</ele>
        <time>2021-05-18T15:33:44Z</time>
      </trkpt>
      <trkpt lat="41.8738770" lon="-8.8651510">
        <ele>3.0</ele>
        <time>2021-05-18T15:33:45Z</time>
      </trkpt>
      <trkpt lat="41.8738770" lon="-8.8651510">
        <ele>3.0</ele>
        <time>2021-05-18T15:33:46Z</time>
      </trkpt>
      <trkpt lat="41.8738790" lon="-8.8651530">
        <ele>3.1</ele>
        <time>2021-05-18T15:33:47Z</time>
      </trkpt>
      <trkpt lat="41.8738830" lon="-8.8651540">
        <ele>3.1</ele>
        <time>2021-05-18T15:33:48Z</time>
      </trkpt>
      <trkpt lat="41.8738820" lon="-8.8651550">
        <ele>3.1</ele>
        <time>2021-05-18T15:33:49Z</time>
      </trkpt>
      <trkpt lat="41.8738830" lon="-8.8651560">
        <ele>3.1</ele>
        <time>2021-05-18T15:33:50Z</time>
      </trkpt>
      <trkpt lat="41.8738850" lon="-8.8651580">
        <ele>3.1</ele>
        <time>2021-05-18T15:33:51Z</time>
      </trkpt>
      <trkpt lat="41.8738840" lon="-8.8651540">
        <ele>3.1</ele>
        <time>2021-05-18T15:33:52Z</time>
      </trkpt>
      <trkpt lat="41.8738840" lon="-8.8651540">
        <ele>3.1</ele>
        <time>2021-05-18T15:33:53Z</time>
      </trkpt>
      <trkpt lat="41.8738820" lon="-8.8651360">
        <ele>3.0</ele>
        <time>2021-05-18T15:33:54Z</time>
      </trkpt>
      <trkpt lat="41.8738830" lon="-8.8651330">
        <ele>3.0</ele>
        <time>2021-05-18T15:33:55Z</time>
      </trkpt>
      <trkpt lat="41.8738820" lon="-8.8651320">
        <ele>3.0</ele>
        <time>2021-05-18T15:33:56Z</time>
      </trkpt>
      <trkpt lat="41.8738840" lon="-8.8651340">
        <ele>3.0</ele>
        <time>2021-05-18T15:33:57Z</time>
      </trkpt>
      <trkpt lat="41.8738840" lon="-8.8651380">
        <ele>3.0</ele>
        <time>2021-05-18T15:33:58Z</time>
      </trkpt>
      <trkpt lat="41.8738850" lon="-8.8651360">
        <ele>3.0</ele>
        <time>2021-05-18T15:33:59Z</time>
      </trkpt>
      <trkpt lat="41.8738830" lon="-8.8651350">
        <ele>3.0</ele>
        <time>2021-05-18T15:34:00Z</time>
      </trkpt>
      <trkpt lat="41.8738830" lon="-8.8651360">
        <ele>3.0</ele>
        <time>2021-05-18T15:34:01Z</time>
      </trkpt>
      <trkpt lat="41.8738820" lon="-8.8651390">
        <ele>3.0</ele>
        <time>2021-05-18T15:34:02Z</time>
      </trkpt>
      <trkpt lat="41.8738830" lon="-8.8651390">
        <ele>3.0</ele>
        <time>2021-05-18T15:34:03Z</time>
      </trkpt>
      <trkpt lat="41.8738840" lon="-8.8651390">
        <ele>2.9</ele>
        <time>2021-05-18T15:34:04Z</time>
      </trkpt>
      <trkpt lat="41.8738820" lon="-8.8651400">
        <ele>2.9</ele>
        <time>2021-05-18T15:34:05Z</time>
      </trkpt>
      <trkpt lat="41.8738830" lon="-8.8651430">
        <ele>2.9</ele>
        <time>2021-05-18T15:34:06Z</time>
      </trkpt>
      <trkpt lat="41.8738830" lon="-8.8651420">
        <ele>2.9</ele>
        <time>2021-05-18T15:34:07Z</time>
      </trkpt>
      <trkpt lat="41.8738810" lon="-8.8651390">
        <ele>2.9</ele>
        <time>2021-05-18T15:34:08Z</time>
      </trkpt>
      <trkpt lat="41.8738810" lon="-8.8651410">
        <ele>2.9</ele>
        <time>2021-05-18T15:34:09Z</time>
      </trkpt>
      <trkpt lat="41.8738790" lon="-8.8651380">
        <ele>2.9</ele>
        <time>2021-05-18T15:34:10Z</time>
      </trkpt>
      <trkpt lat="41.8738770" lon="-8.8651400">
        <ele>2.9</ele>
        <time>2021-05-18T15:34:11Z</time>
      </trkpt>
      <trkpt lat="41.8738780" lon="-8.8651400">
        <ele>2.9</ele>
        <time>2021-05-18T15:34:12Z</time>
      </trkpt>
      <trkpt lat="41.8738760" lon="-8.8651370">
        <ele>2.9</ele>
        <time>2021-05-18T15:34:13Z</time>
      </trkpt>
      <trkpt lat="41.8738750" lon="-8.8651330">
        <ele>2.9</ele>
        <time>2021-05-18T15:34:14Z</time>
      </trkpt>
      <trkpt lat="41.8738810" lon="-8.8651350">
        <ele>2.9</ele>
        <time>2021-05-18T15:34:15Z</time>
      </trkpt>
      <trkpt lat="41.8738820" lon="-8.8651420">
        <ele>2.9</ele>
        <time>2021-05-18T15:34:16Z</time>
      </trkpt>
      <trkpt lat="41.8738860" lon="-8.8651400">
        <ele>2.9</ele>
        <time>2021-05-18T15:34:17Z</time>
      </trkpt>
      <trkpt lat="41.8738860" lon="-8.8651420">
        <ele>2.9</ele>
        <time>2021-05-18T15:34:18Z</time>
      </trkpt>
      <trkpt lat="41.8738870" lon="-8.8651410">
        <ele>2.9</ele>
        <time>2021-05-18T15:34:19Z</time>
      </trkpt>
      <trkpt lat="41.8738830" lon="-8.8651270">
        <ele>2.9</ele>
        <time>2021-05-18T15:34:20Z</time>
      </trkpt>
      <trkpt lat="41.8738790" lon="-8.8651230">
        <ele>2.9</ele>
        <time>2021-05-18T15:34:21Z</time>
      </trkpt>
      <trkpt lat="41.8738810" lon="-8.8651300">
        <ele>2.9</ele>
        <time>2021-05-18T15:34:22Z</time>
      </trkpt>
      <trkpt lat="41.8738810" lon="-8.8651330">
        <ele>2.9</ele>
        <time>2021-05-18T15:34:23Z</time>
      </trkpt>
      <trkpt lat="41.8738800" lon="-8.8651280">
        <ele>2.9</ele>
        <time>2021-05-18T15:34:24Z</time>
      </trkpt>
      <trkpt lat="41.8738750" lon="-8.8651270">
        <ele>2.9</ele>
        <time>2021-05-18T15:34:25Z</time>
      </trkpt>
      <trkpt lat="41.8738740" lon="-8.8651330">
        <ele>2.8</ele>
        <time>2021-05-18T15:34:26Z</time>
      </trkpt>
      <trkpt lat="41.8738740" lon="-8.8651310">
        <ele>2.8</ele>
        <time>2021-05-18T15:34:27Z</time>
      </trkpt>
      <trkpt lat="41.8738710" lon="-8.8651280">
        <ele>2.8</ele>
        <time>2021-05-18T15:34:28Z</time>
      </trkpt>
      <trkpt lat="41.8738640" lon="-8.8651310">
        <ele>2.8</ele>
        <time>2021-05-18T15:34:29Z</time>
      </trkpt>
      <trkpt lat="41.8738620" lon="-8.8651380">
        <ele>2.8</ele>
        <time>2021-05-18T15:34:30Z</time>
      </trkpt>
      <trkpt lat="41.8738630" lon="-8.8651380">
        <ele>2.8</ele>
        <time>2021-05-18T15:34:31Z</time>
      </trkpt>
      <trkpt lat="41.8738630" lon="-8.8651350">
        <ele>2.8</ele>
        <time>2021-05-18T15:34:32Z</time>
      </trkpt>
      <trkpt lat="41.8738620" lon="-8.8651350">
        <ele>2.8</ele>
        <time>2021-05-18T15:34:33Z</time>
      </trkpt>
      <trkpt lat="41.8738630" lon="-8.8651350">
        <ele>2.8</ele>
        <time>2021-05-18T15:34:34Z</time>
      </trkpt>
      <trkpt lat="41.8738620" lon="-8.8651360">
        <ele>2.8</ele>
        <time>2021-05-18T15:34:35Z</time>
      </trkpt>
      <trkpt lat="41.8738620" lon="-8.8651350">
        <ele>2.8</ele>
        <time>2021-05-18T15:34:36Z</time>
      </trkpt>
      <trkpt lat="41.8738630" lon="-8.8651340">
        <ele>2.8</ele>
        <time>2021-05-18T15:34:37Z</time>
      </trkpt>
      <trkpt lat="41.8738640" lon="-8.8651330">
        <ele>2.8</ele>
        <time>2021-05-18T15:34:38Z</time>
      </trkpt>
      <trkpt lat="41.8738650" lon="-8.8651340">
        <ele>2.8</ele>
        <time>2021-05-18T15:34:39Z</time>
      </trkpt>
      <trkpt lat="41.8738660" lon="-8.8651340">
        <ele>2.8</ele>
        <time>2021-05-18T15:34:40Z</time>
      </trkpt>
      <trkpt lat="41.8738660" lon="-8.8651330">
        <ele>2.8</ele>
        <time>2021-05-18T15:34:41Z</time>
      </trkpt>
      <trkpt lat="41.8738670" lon="-8.8651330">
        <ele>2.8</ele>
        <time>2021-05-18T15:34:42Z</time>
      </trkpt>
      <trkpt lat="41.8738670" lon="-8.8651340">
        <ele>2.8</ele>
        <time>2021-05-18T15:34:43Z</time>
      </trkpt>
      <trkpt lat="41.8738680" lon="-8.8651320">
        <ele>2.8</ele>
        <time>2021-05-18T15:34:44Z</time>
      </trkpt>
      <trkpt lat="41.8738680" lon="-8.8651330">
        <ele>2.8</ele>
        <time>2021-05-18T15:34:45Z</time>
      </trkpt>
      <trkpt lat="41.8738680" lon="-8.8651360">
        <ele>2.8</ele>
        <time>2021-05-18T15:34:46Z</time>
      </trkpt>
      <trkpt lat="41.8738690" lon="-8.8651390">
        <ele>2.8</ele>
        <time>2021-05-18T15:34:47Z</time>
      </trkpt>
      <trkpt lat="41.8738700" lon="-8.8651370">
        <ele>2.8</ele>
        <time>2021-05-18T15:34:48Z</time>
      </trkpt>
      <trkpt lat="41.8738720" lon="-8.8651280">
        <ele>2.8</ele>
        <time>2021-05-18T15:34:49Z</time>
      </trkpt>
      <trkpt lat="41.8738700" lon="-8.8651290">
        <ele>2.7</ele>
        <time>2021-05-18T15:34:50Z</time>
      </trkpt>
      <trkpt lat="41.8738700" lon="-8.8651360">
        <ele>2.7</ele>
        <time>2021-05-18T15:34:51Z</time>
      </trkpt>
      <trkpt lat="41.8738680" lon="-8.8651390">
        <ele>2.7</ele>
        <time>2021-05-18T15:34:52Z</time>
      </trkpt>
      <trkpt lat="41.8738660" lon="-8.8651400">
        <ele>2.7</ele>
        <time>2021-05-18T15:34:53Z</time>
      </trkpt>
      <trkpt lat="41.8738640" lon="-8.8651400">
        <ele>2.7</ele>
        <time>2021-05-18T15:34:54Z</time>
      </trkpt>
      <trkpt lat="41.8738640" lon="-8.8651380">
        <ele>2.7</ele>
        <time>2021-05-18T15:34:55Z</time>
      </trkpt>
      <trkpt lat="41.8738580" lon="-8.8651410">
        <ele>2.7</ele>
        <time>2021-05-18T15:34:56Z</time>
      </trkpt>
      <trkpt lat="41.8738560" lon="-8.8651380">
        <ele>2.7</ele>
        <time>2021-05-18T15:34:57Z</time>
      </trkpt>
      <trkpt lat="41.8738530" lon="-8.8651330">
        <ele>2.7</ele>
        <time>2021-05-18T15:34:58Z</time>
      </trkpt>
      <trkpt lat="41.8738550" lon="-8.8651320">
        <ele>2.7</ele>
        <time>2021-05-18T15:34:59Z</time>
      </trkpt>
      <trkpt lat="41.8738550" lon="-8.8651310">
        <ele>2.7</ele>
        <time>2021-05-18T15:35:00Z</time>
      </trkpt>
      <trkpt lat="41.8738540" lon="-8.8651330">
        <ele>2.7</ele>
        <time>2021-05-18T15:35:01Z</time>
      </trkpt>
      <trkpt lat="41.8738550" lon="-8.8651330">
        <ele>2.7</ele>
        <time>2021-05-18T15:35:02Z</time>
      </trkpt>
      <trkpt lat="41.8738500" lon="-8.8651140">
        <ele>2.7</ele>
        <time>2021-05-18T15:35:03Z</time>
      </trkpt>
      <trkpt lat="41.8738440" lon="-8.8650910">
        <ele>2.6</ele>
        <time>2021-05-18T15:35:04Z</time>
      </trkpt>
      <trkpt lat="41.8738440" lon="-8.8650840">
        <ele>2.6</ele>
        <time>2021-05-18T15:35:05Z</time>
      </trkpt>
      <trkpt lat="41.8738490" lon="-8.8651080">
        <ele>2.6</ele>
        <time>2021-05-18T15:35:06Z</time>
      </trkpt>
      <trkpt lat="41.8738500" lon="-8.8651270">
        <ele>2.7</ele>
        <time>2021-05-18T15:35:07Z</time>
      </trkpt>
      <trkpt lat="41.8738520" lon="-8.8651290">
        <ele>2.7</ele>
        <time>2021-05-18T15:35:08Z</time>
      </trkpt>
      <trkpt lat="41.8738520" lon="-8.8651300">
        <ele>2.7</ele>
        <time>2021-05-18T15:35:09Z</time>
      </trkpt>
      <trkpt lat="41.8738520" lon="-8.8651320">
        <ele>2.7</ele>
        <time>2021-05-18T15:35:10Z</time>
      </trkpt>
      <trkpt lat="41.8738520" lon="-8.8651340">
        <ele>2.7</ele>
        <time>2021-05-18T15:35:11Z</time>
      </trkpt>
      <trkpt lat="41.8738520" lon="-8.8651350">
        <ele>2.7</ele>
        <time>2021-05-18T15:35:12Z</time>
      </trkpt>
      <trkpt lat="41.8738520" lon="-8.8651370">
        <ele>2.7</ele>
        <time>2021-05-18T15:35:13Z</time>
      </trkpt>
      <trkpt lat="41.8738520" lon="-8.8651380">
        <ele>2.7</ele>
        <time>2021-05-18T15:35:14Z</time>
      </trkpt>
      <trkpt lat="41.8738520" lon="-8.8651400">
        <ele>2.7</ele>
        <time>2021-05-18T15:35:15Z</time>
      </trkpt>
      <trkpt lat="41.8738520" lon="-8.8651420">
        <ele>2.7</ele>
        <time>2021-05-18T15:35:16Z</time>
      </trkpt>
      <trkpt lat="41.8738520" lon="-8.8651430">
        <ele>2.7</ele>
        <time>2021-05-18T15:35:17Z</time>
      </trkpt>
      <trkpt lat="41.8738520" lon="-8.8651450">
        <ele>2.6</ele>
        <time>2021-05-18T15:35:18Z</time>
      </trkpt>
      <trkpt lat="41.8738520" lon="-8.8651470">
        <ele>2.6</ele>
        <time>2021-05-18T15:35:19Z</time>
      </trkpt>
      <trkpt lat="41.8738520" lon="-8.8651480">
        <ele>2.6</ele>
        <time>2021-05-18T15:35:20Z</time>
      </trkpt>
      <trkpt lat="41.8738520" lon="-8.8651500">
        <ele>2.6</ele>
        <time>2021-05-18T15:35:21Z</time>
      </trkpt>
      <trkpt lat="41.8738520" lon="-8.8651520">
        <ele>2.7</ele>
        <time>2021-05-18T15:35:22Z</time>
      </trkpt>
      <trkpt lat="41.8738520" lon="-8.8651530">
        <ele>2.7</ele>
        <time>2021-05-18T15:35:23Z</time>
      </trkpt>
      <trkpt lat="41.8738520" lon="-8.8651550">
        <ele>2.7</ele>
        <time>2021-05-18T15:35:24Z</time>
      </trkpt>
      <trkpt lat="41.8738520" lon="-8.8651560">
        <ele>2.7</ele>
        <time>2021-05-18T15:35:25Z</time>
      </trkpt>
      <trkpt lat="41.8738520" lon="-8.8651580">
        <ele>2.7</ele>
        <time>2021-05-18T15:35:26Z</time>
      </trkpt>
      <trkpt lat="41.8738520" lon="-8.8651600">
        <ele>2.7</ele>
        <time>2021-05-18T15:35:27Z</time>
      </trkpt>
      <trkpt lat="41.8738520" lon="-8.8651610">
        <ele>2.7</ele>
        <time>2021-05-18T15:35:28Z</time>
      </trkpt>
      <trkpt lat="41.8738520" lon="-8.8651630">
        <ele>2.7</ele>
        <time>2021-05-18T15:35:29Z</time>
      </trkpt>
      <trkpt lat="41.8738520" lon="-8.8651650">
        <ele>2.8</ele>
        <time>2021-05-18T15:35:30Z</time>
      </trkpt>
      <trkpt lat="41.8738520" lon="-8.8651660">
        <ele>2.8</ele>
        <time>2021-05-18T15:35:31Z</time>
      </trkpt>
      <trkpt lat="41.8738520" lon="-8.8651680">
        <ele>2.8</ele>
        <time>2021-05-18T15:35:32Z</time>
      </trkpt>
      <trkpt lat="41.8738520" lon="-8.8651690">
        <ele>2.8</ele>
        <time>2021-05-18T15:35:33Z</time>
      </trkpt>
      <trkpt lat="41.8738520" lon="-8.8651710">
        <ele>2.9</ele>
        <time>2021-05-18T15:35:34Z</time>
      </trkpt>
      <trkpt lat="41.8738520" lon="-8.8651730">
        <ele>2.9</ele>
        <time>2021-05-18T15:35:35Z</time>
      </trkpt>
      <trkpt lat="41.8738520" lon="-8.8651740">
        <ele>2.9</ele>
        <time>2021-05-18T15:35:36Z</time>
      </trkpt>
      <trkpt lat="41.8738520" lon="-8.8651760">
        <ele>2.9</ele>
        <time>2021-05-18T15:35:37Z</time>
      </trkpt>
      <trkpt lat="41.8738470" lon="-8.8651900">
        <ele>3.0</ele>
        <time>2021-05-18T15:35:38Z</time>
      </trkpt>
      <trkpt lat="41.8738420" lon="-8.8651930">
        <ele>2.9</ele>
        <time>2021-05-18T15:35:39Z</time>
      </trkpt>
      <trkpt lat="41.8738420" lon="-8.8651930">
        <ele>2.9</ele>
        <time>2021-05-18T15:35:40Z</time>
      </trkpt>
      <trkpt lat="41.8738410" lon="-8.8651890">
        <ele>2.9</ele>
        <time>2021-05-18T15:35:41Z</time>
      </trkpt>
      <trkpt lat="41.8738410" lon="-8.8652110">
        <ele>3.0</ele>
        <time>2021-05-18T15:35:42Z</time>
      </trkpt>
      <trkpt lat="41.8738420" lon="-8.8652080">
        <ele>3.0</ele>
        <time>2021-05-18T15:35:43Z</time>
      </trkpt>
      <trkpt lat="41.8738410" lon="-8.8652150">
        <ele>3.0</ele>
        <time>2021-05-18T15:35:44Z</time>
      </trkpt>
      <trkpt lat="41.8738440" lon="-8.8652330">
        <ele>3.1</ele>
        <time>2021-05-18T15:35:45Z</time>
      </trkpt>
      <trkpt lat="41.8738480" lon="-8.8652450">
        <ele>3.2</ele>
        <time>2021-05-18T15:35:46Z</time>
      </trkpt>
      <trkpt lat="41.8738490" lon="-8.8652500">
        <ele>3.2</ele>
        <time>2021-05-18T15:35:47Z</time>
      </trkpt>
      <trkpt lat="41.8738470" lon="-8.8652600">
        <ele>3.3</ele>
        <time>2021-05-18T15:35:48Z</time>
      </trkpt>
      <trkpt lat="41.8738470" lon="-8.8652680">
        <ele>3.3</ele>
        <time>2021-05-18T15:35:49Z</time>
      </trkpt>
      <trkpt lat="41.8738450" lon="-8.8652770">
        <ele>3.3</ele>
        <time>2021-05-18T15:35:50Z</time>
      </trkpt>
      <trkpt lat="41.8738460" lon="-8.8652910">
        <ele>3.3</ele>
        <time>2021-05-18T15:35:51Z</time>
      </trkpt>
      <trkpt lat="41.8738540" lon="-8.8653110">
        <ele>3.4</ele>
        <time>2021-05-18T15:35:52Z</time>
      </trkpt>
      <trkpt lat="41.8738590" lon="-8.8653180">
        <ele>3.4</ele>
        <time>2021-05-18T15:35:53Z</time>
      </trkpt>
      <trkpt lat="41.8738630" lon="-8.8653260">
        <ele>3.5</ele>
        <time>2021-05-18T15:35:54Z</time>
      </trkpt>
      <trkpt lat="41.8738680" lon="-8.8653340">
        <ele>3.5</ele>
        <time>2021-05-18T15:35:55Z</time>
      </trkpt>
      <trkpt lat="41.8738770" lon="-8.8653480">
        <ele>3.5</ele>
        <time>2021-05-18T15:35:56Z</time>
      </trkpt>
      <trkpt lat="41.8738820" lon="-8.8653560">
        <ele>3.5</ele>
        <time>2021-05-18T15:35:57Z</time>
      </trkpt>
      <trkpt lat="41.8738870" lon="-8.8653640">
        <ele>3.6</ele>
        <time>2021-05-18T15:35:58Z</time>
      </trkpt>
      <trkpt lat="41.8738920" lon="-8.8653720">
        <ele>3.6</ele>
        <time>2021-05-18T15:35:59Z</time>
      </trkpt>
      <trkpt lat="41.8738950" lon="-8.8653780">
        <ele>3.7</ele>
        <time>2021-05-18T15:36:00Z</time>
      </trkpt>
      <trkpt lat="41.8739040" lon="-8.8653850">
        <ele>3.7</ele>
        <time>2021-05-18T15:36:01Z</time>
      </trkpt>
      <trkpt lat="41.8739100" lon="-8.8653880">
        <ele>3.8</ele>
        <time>2021-05-18T15:36:02Z</time>
      </trkpt>
      <trkpt lat="41.8739180" lon="-8.8653870">
        <ele>3.8</ele>
        <time>2021-05-18T15:36:03Z</time>
      </trkpt>
      <trkpt lat="41.8739260" lon="-8.8653880">
        <ele>3.8</ele>
        <time>2021-05-18T15:36:04Z</time>
      </trkpt>
      <trkpt lat="41.8739320" lon="-8.8653940">
        <ele>3.8</ele>
        <time>2021-05-18T15:36:05Z</time>
      </trkpt>
      <trkpt lat="41.8739400" lon="-8.8654000">
        <ele>4.0</ele>
        <time>2021-05-18T15:36:06Z</time>
      </trkpt>
      <trkpt lat="41.8739470" lon="-8.8654030">
        <ele>4.0</ele>
        <time>2021-05-18T15:36:07Z</time>
      </trkpt>
      <trkpt lat="41.8739490" lon="-8.8654010">
        <ele>4.0</ele>
        <time>2021-05-18T15:36:08Z</time>
      </trkpt>
      <trkpt lat="41.8739630" lon="-8.8654180">
        <ele>4.1</ele>
        <time>2021-05-18T15:36:09Z</time>
      </trkpt>
      <trkpt lat="41.8739690" lon="-8.8654260">
        <ele>4.1</ele>
        <time>2021-05-18T15:36:10Z</time>
      </trkpt>
      <trkpt lat="41.8739810" lon="-8.8654400">
        <ele>4.2</ele>
        <time>2021-05-18T15:36:11Z</time>
      </trkpt>
      <trkpt lat="41.8739890" lon="-8.8654640">
        <ele>4.3</ele>
        <time>2021-05-18T15:36:12Z</time>
      </trkpt>
      <trkpt lat="41.8739980" lon="-8.8654720">
        <ele>4.4</ele>
        <time>2021-05-18T15:36:13Z</time>
      </trkpt>
      <trkpt lat="41.8740050" lon="-8.8654830">
        <ele>4.4</ele>
        <time>2021-05-18T15:36:14Z</time>
      </trkpt>
      <trkpt lat="41.8740120" lon="-8.8654870">
        <ele>4.4</ele>
        <time>2021-05-18T15:36:15Z</time>
      </trkpt>
      <trkpt lat="41.8740150" lon="-8.8654930">
        <ele>4.4</ele>
        <time>2021-05-18T15:36:16Z</time>
      </trkpt>
      <trkpt lat="41.8740160" lon="-8.8654980">
        <ele>4.5</ele>
        <time>2021-05-18T15:36:17Z</time>
      </trkpt>
      <trkpt lat="41.8740180" lon="-8.8655010">
        <ele>4.5</ele>
        <time>2021-05-18T15:36:18Z</time>
      </trkpt>
      <trkpt lat="41.8740210" lon="-8.8655090">
        <ele>4.5</ele>
        <time>2021-05-18T15:36:19Z</time>
      </trkpt>
      <trkpt lat="41.8740240" lon="-8.8655180">
        <ele>4.5</ele>
        <time>2021-05-18T15:36:20Z</time>
      </trkpt>
      <trkpt lat="41.8740280" lon="-8.8655280">
        <ele>4.5</ele>
        <time>2021-05-18T15:36:21Z</time>
      </trkpt>
      <trkpt lat="41.8740290" lon="-8.8655320">
        <ele>4.5</ele>
        <time>2021-05-18T15:36:22Z</time>
      </trkpt>
      <trkpt lat="41.8740280" lon="-8.8655400">
        <ele>4.6</ele>
        <time>2021-05-18T15:36:23Z</time>
      </trkpt>
      <trkpt lat="41.8740290" lon="-8.8655640">
        <ele>4.6</ele>
        <time>2021-05-18T15:36:24Z</time>
      </trkpt>
      <trkpt lat="41.8740240" lon="-8.8655830">
        <ele>4.7</ele>
        <time>2021-05-18T15:36:25Z</time>
      </trkpt>
      <trkpt lat="41.8740150" lon="-8.8655920">
        <ele>4.7</ele>
        <time>2021-05-18T15:36:26Z</time>
      </trkpt>
      <trkpt lat="41.8740050" lon="-8.8655940">
        <ele>4.7</ele>
        <time>2021-05-18T15:36:27Z</time>
      </trkpt>
      <trkpt lat="41.8740150" lon="-8.8656050">
        <ele>4.7</ele>
        <time>2021-05-18T15:36:28Z</time>
      </trkpt>
      <trkpt lat="41.8740180" lon="-8.8656050">
        <ele>4.7</ele>
        <time>2021-05-18T15:36:29Z</time>
      </trkpt>
      <trkpt lat="41.8740200" lon="-8.8656040">
        <ele>4.7</ele>
        <time>2021-05-18T15:36:30Z</time>
      </trkpt>
      <trkpt lat="41.8740220" lon="-8.8656040">
        <ele>4.8</ele>
        <time>2021-05-18T15:36:31Z</time>
      </trkpt>
      <trkpt lat="41.8740250" lon="-8.8656040">
        <ele>4.8</ele>
        <time>2021-05-18T15:36:32Z</time>
      </trkpt>
      <trkpt lat="41.8740270" lon="-8.8656040">
        <ele>4.8</ele>
        <time>2021-05-18T15:36:33Z</time>
      </trkpt>
      <trkpt lat="41.8740290" lon="-8.8656030">
        <ele>4.8</ele>
        <time>2021-05-18T15:36:34Z</time>
      </trkpt>
      <trkpt lat="41.8740310" lon="-8.8656030">
        <ele>4.8</ele>
        <time>2021-05-18T15:36:35Z</time>
      </trkpt>
      <trkpt lat="41.8740340" lon="-8.8656030">
        <ele>4.8</ele>
        <time>2021-05-18T15:36:36Z</time>
      </trkpt>
      <trkpt lat="41.8740360" lon="-8.8656030">
        <ele>4.9</ele>
        <time>2021-05-18T15:36:37Z</time>
      </trkpt>
      <trkpt lat="41.8740380" lon="-8.8656020">
        <ele>4.9</ele>
        <time>2021-05-18T15:36:38Z</time>
      </trkpt>
      <trkpt lat="41.8740410" lon="-8.8656020">
        <ele>4.9</ele>
        <time>2021-05-18T15:36:39Z</time>
      </trkpt>
      <trkpt lat="41.8740430" lon="-8.8656020">
        <ele>4.9</ele>
        <time>2021-05-18T15:36:40Z</time>
      </trkpt>
      <trkpt lat="41.8740450" lon="-8.8656020">
        <ele>4.9</ele>
        <time>2021-05-18T15:36:41Z</time>
      </trkpt>
      <trkpt lat="41.8740480" lon="-8.8656010">
        <ele>4.9</ele>
        <time>2021-05-18T15:36:42Z</time>
      </trkpt>
      <trkpt lat="41.8740500" lon="-8.8656010">
        <ele>4.9</ele>
        <time>2021-05-18T15:36:43Z</time>
      </trkpt>
      <trkpt lat="41.8740520" lon="-8.8656010">
        <ele>4.9</ele>
        <time>2021-05-18T15:36:44Z</time>
      </trkpt>
      <trkpt lat="41.8740540" lon="-8.8656010">
        <ele>4.9</ele>
        <time>2021-05-18T15:36:45Z</time>
      </trkpt>
      <trkpt lat="41.8740570" lon="-8.8656000">
        <ele>4.9</ele>
        <time>2021-05-18T15:36:46Z</time>
      </trkpt>
      <trkpt lat="41.8740590" lon="-8.8656000">
        <ele>4.9</ele>
        <time>2021-05-18T15:36:47Z</time>
      </trkpt>
      <trkpt lat="41.8740600" lon="-8.8656010">
        <ele>4.9</ele>
        <time>2021-05-18T15:36:48Z</time>
      </trkpt>
      <trkpt lat="41.8740600" lon="-8.8656020">
        <ele>4.9</ele>
        <time>2021-05-18T15:36:49Z</time>
      </trkpt>
      <trkpt lat="41.8740600" lon="-8.8656000">
        <ele>4.9</ele>
        <time>2021-05-18T15:36:50Z</time>
      </trkpt>
      <trkpt lat="41.8740600" lon="-8.8656010">
        <ele>4.9</ele>
        <time>2021-05-18T15:36:51Z</time>
      </trkpt>
      <trkpt lat="41.8740590" lon="-8.8656000">
        <ele>4.9</ele>
        <time>2021-05-18T15:36:52Z</time>
      </trkpt>
      <trkpt lat="41.8740580" lon="-8.8656000">
        <ele>4.9</ele>
        <time>2021-05-18T15:36:53Z</time>
      </trkpt>
      <trkpt lat="41.8740590" lon="-8.8656030">
        <ele>4.9</ele>
        <time>2021-05-18T15:36:54Z</time>
      </trkpt>
      <trkpt lat="41.8740580" lon="-8.8656180">
        <ele>4.9</ele>
        <time>2021-05-18T15:36:55Z</time>
      </trkpt>
      <trkpt lat="41.8740450" lon="-8.8656250">
        <ele>5.0</ele>
        <time>2021-05-18T15:36:56Z</time>
      </trkpt>
      <trkpt lat="41.8740360" lon="-8.8656310">
        <ele>5.0</ele>
        <time>2021-05-18T15:36:57Z</time>
      </trkpt>
      <trkpt lat="41.8740240" lon="-8.8656520">
        <ele>5.0</ele>
        <time>2021-05-18T15:36:58Z</time>
      </trkpt>
      <trkpt lat="41.8740190" lon="-8.8656620">
        <ele>5.0</ele>
        <time>2021-05-18T15:37:00Z</time>
      </trkpt>
      <trkpt lat="41.8740150" lon="-8.8656710">
        <ele>5.0</ele>
        <time>2021-05-18T15:37:01Z</time>
      </trkpt>
      <trkpt lat="41.8740060" lon="-8.8656850">
        <ele>5.0</ele>
        <time>2021-05-18T15:37:02Z</time>
      </trkpt>
      <trkpt lat="41.8739960" lon="-8.8656980">
        <ele>5.0</ele>
        <time>2021-05-18T15:37:03Z</time>
      </trkpt>
      <trkpt lat="41.8739920" lon="-8.8657090">
        <ele>5.0</ele>
        <time>2021-05-18T15:37:04Z</time>
      </trkpt>
      <trkpt lat="41.8739890" lon="-8.8657180">
        <ele>5.0</ele>
        <time>2021-05-18T15:37:05Z</time>
      </trkpt>
      <trkpt lat="41.8739800" lon="-8.8657400">
        <ele>5.0</ele>
        <time>2021-05-18T15:37:06Z</time>
      </trkpt>
      <trkpt lat="41.8739740" lon="-8.8657500">
        <ele>5.0</ele>
        <time>2021-05-18T15:37:07Z</time>
      </trkpt>
      <trkpt lat="41.8739730" lon="-8.8657630">
        <ele>5.0</ele>
        <time>2021-05-18T15:37:08Z</time>
      </trkpt>
      <trkpt lat="41.8739730" lon="-8.8657790">
        <ele>5.0</ele>
        <time>2021-05-18T15:37:09Z</time>
      </trkpt>
      <trkpt lat="41.8739690" lon="-8.8657970">
        <ele>5.0</ele>
        <time>2021-05-18T15:37:10Z</time>
      </trkpt>
      <trkpt lat="41.8739660" lon="-8.8658100">
        <ele>5.0</ele>
        <time>2021-05-18T15:37:11Z</time>
      </trkpt>
      <trkpt lat="41.8739650" lon="-8.8658230">
        <ele>5.0</ele>
        <time>2021-05-18T15:37:12Z</time>
      </trkpt>
      <trkpt lat="41.8739560" lon="-8.8658510">
        <ele>5.0</ele>
        <time>2021-05-18T15:37:13Z</time>
      </trkpt>
      <trkpt lat="41.8739510" lon="-8.8658620">
        <ele>5.0</ele>
        <time>2021-05-18T15:37:14Z</time>
      </trkpt>
      <trkpt lat="41.8739470" lon="-8.8658730">
        <ele>5.0</ele>
        <time>2021-05-18T15:37:15Z</time>
      </trkpt>
      <trkpt lat="41.8739510" lon="-8.8658920">
        <ele>5.0</ele>
        <time>2021-05-18T15:37:16Z</time>
      </trkpt>
      <trkpt lat="41.8739570" lon="-8.8659040">
        <ele>5.0</ele>
        <time>2021-05-18T15:37:17Z</time>
      </trkpt>
      <trkpt lat="41.8739560" lon="-8.8659120">
        <ele>5.0</ele>
        <time>2021-05-18T15:37:18Z</time>
      </trkpt>
      <trkpt lat="41.8739400" lon="-8.8659180">
        <ele>5.0</ele>
        <time>2021-05-18T15:37:19Z</time>
      </trkpt>
      <trkpt lat="41.8739330" lon="-8.8659210">
        <ele>5.0</ele>
        <time>2021-05-18T15:37:20Z</time>
      </trkpt>
      <trkpt lat="41.8739270" lon="-8.8659250">
        <ele>5.0</ele>
        <time>2021-05-18T15:37:21Z</time>
      </trkpt>
      <trkpt lat="41.8739200" lon="-8.8659280">
        <ele>5.0</ele>
        <time>2021-05-18T15:37:22Z</time>
      </trkpt>
      <trkpt lat="41.8739130" lon="-8.8659310">
        <ele>5.0</ele>
        <time>2021-05-18T15:37:23Z</time>
      </trkpt>
      <trkpt lat="41.8738970" lon="-8.8659300">
        <ele>5.0</ele>
        <time>2021-05-18T15:37:24Z</time>
      </trkpt>
      <trkpt lat="41.8738840" lon="-8.8659390">
        <ele>5.0</ele>
        <time>2021-05-18T15:37:25Z</time>
      </trkpt>
      <trkpt lat="41.8738730" lon="-8.8659340">
        <ele>5.2</ele>
        <time>2021-05-18T15:37:26Z</time>
      </trkpt>
      <trkpt lat="41.8738690" lon="-8.8659210">
        <ele>5.3</ele>
        <time>2021-05-18T15:37:27Z</time>
      </trkpt>
      <trkpt lat="41.8738670" lon="-8.8659060">
        <ele>5.3</ele>
        <time>2021-05-18T15:37:28Z</time>
      </trkpt>
      <trkpt lat="41.8738650" lon="-8.8658970">
        <ele>5.3</ele>
        <time>2021-05-18T15:37:29Z</time>
      </trkpt>
      <trkpt lat="41.8738530" lon="-8.8658820">
        <ele>5.3</ele>
        <time>2021-05-18T15:37:30Z</time>
      </trkpt>
      <trkpt lat="41.8738480" lon="-8.8658660">
        <ele>5.3</ele>
        <time>2021-05-18T15:37:31Z</time>
      </trkpt>
      <trkpt lat="41.8738390" lon="-8.8658620">
        <ele>5.3</ele>
        <time>2021-05-18T15:37:32Z</time>
      </trkpt>
      <trkpt lat="41.8738300" lon="-8.8658520">
        <ele>5.3</ele>
        <time>2021-05-18T15:37:33Z</time>
      </trkpt>
      <trkpt lat="41.8738230" lon="-8.8658430">
        <ele>5.3</ele>
        <time>2021-05-18T15:37:34Z</time>
      </trkpt>
      <trkpt lat="41.8738030" lon="-8.8658400">
        <ele>5.4</ele>
        <time>2021-05-18T15:37:35Z</time>
      </trkpt>
      <trkpt lat="41.8737940" lon="-8.8658460">
        <ele>5.4</ele>
        <time>2021-05-18T15:37:36Z</time>
      </trkpt>
      <trkpt lat="41.8737850" lon="-8.8658510">
        <ele>5.4</ele>
        <time>2021-05-18T15:37:37Z</time>
      </trkpt>
      <trkpt lat="41.8737790" lon="-8.8658640">
        <ele>5.4</ele>
        <time>2021-05-18T15:37:38Z</time>
      </trkpt>
      <trkpt lat="41.8737710" lon="-8.8658720">
        <ele>5.4</ele>
        <time>2021-05-18T15:37:39Z</time>
      </trkpt>
      <trkpt lat="41.8737630" lon="-8.8658780">
        <ele>5.4</ele>
        <time>2021-05-18T15:37:40Z</time>
      </trkpt>
      <trkpt lat="41.8737480" lon="-8.8658860">
        <ele>5.4</ele>
        <time>2021-05-18T15:37:41Z</time>
      </trkpt>
      <trkpt lat="41.8737380" lon="-8.8658910">
        <ele>5.4</ele>
        <time>2021-05-18T15:37:42Z</time>
      </trkpt>
      <trkpt lat="41.8737320" lon="-8.8659000">
        <ele>5.4</ele>
        <time>2021-05-18T15:37:43Z</time>
      </trkpt>
      <trkpt lat="41.8737240" lon="-8.8659050">
        <ele>5.4</ele>
        <time>2021-05-18T15:37:44Z</time>
      </trkpt>
      <trkpt lat="41.8737140" lon="-8.8659140">
        <ele>5.4</ele>
        <time>2021-05-18T15:37:45Z</time>
      </trkpt>
      <trkpt lat="41.8737020" lon="-8.8659170">
        <ele>5.4</ele>
        <time>2021-05-18T15:37:46Z</time>
      </trkpt>
      <trkpt lat="41.8736870" lon="-8.8659300">
        <ele>5.4</ele>
        <time>2021-05-18T15:37:47Z</time>
      </trkpt>
      <trkpt lat="41.8736790" lon="-8.8659370">
        <ele>5.4</ele>
        <time>2021-05-18T15:37:48Z</time>
      </trkpt>
      <trkpt lat="41.8736710" lon="-8.8659440">
        <ele>5.4</ele>
        <time>2021-05-18T15:37:49Z</time>
      </trkpt>
      <trkpt lat="41.8736630" lon="-8.8659520">
        <ele>5.4</ele>
        <time>2021-05-18T15:37:50Z</time>
      </trkpt>
      <trkpt lat="41.8736570" lon="-8.8659590">
        <ele>5.4</ele>
        <time>2021-05-18T15:37:51Z</time>
      </trkpt>
      <trkpt lat="41.8736440" lon="-8.8659680">
        <ele>5.3</ele>
        <time>2021-05-18T15:37:52Z</time>
      </trkpt>
      <trkpt lat="41.8736360" lon="-8.8659710">
        <ele>5.3</ele>
        <time>2021-05-18T15:37:53Z</time>
      </trkpt>
      <trkpt lat="41.8736240" lon="-8.8659810">
        <ele>5.3</ele>
        <time>2021-05-18T15:37:54Z</time>
      </trkpt>
      <trkpt lat="41.8736130" lon="-8.8659880">
        <ele>5.3</ele>
        <time>2021-05-18T15:37:55Z</time>
      </trkpt>
      <trkpt lat="41.8735960" lon="-8.8660050">
        <ele>5.3</ele>
        <time>2021-05-18T15:37:56Z</time>
      </trkpt>
      <trkpt lat="41.8735880" lon="-8.8660110">
        <ele>5.3</ele>
        <time>2021-05-18T15:37:57Z</time>
      </trkpt>
      <trkpt lat="41.8735810" lon="-8.8660160">
        <ele>5.3</ele>
        <time>2021-05-18T15:37:58Z</time>
      </trkpt>
      <trkpt lat="41.8735720" lon="-8.8660280">
        <ele>5.3</ele>
        <time>2021-05-18T15:37:59Z</time>
      </trkpt>
      <trkpt lat="41.8735670" lon="-8.8660320">
        <ele>5.3</ele>
        <time>2021-05-18T15:38:00Z</time>
      </trkpt>
      <trkpt lat="41.8735590" lon="-8.8660450">
        <ele>5.3</ele>
        <time>2021-05-18T15:38:01Z</time>
      </trkpt>
      <trkpt lat="41.8735450" lon="-8.8660540">
        <ele>5.3</ele>
        <time>2021-05-18T15:38:02Z</time>
      </trkpt>
      <trkpt lat="41.8735380" lon="-8.8660710">
        <ele>5.3</ele>
        <time>2021-05-18T15:38:03Z</time>
      </trkpt>
      <trkpt lat="41.8735290" lon="-8.8660760">
        <ele>5.3</ele>
        <time>2021-05-18T15:38:04Z</time>
      </trkpt>
      <trkpt lat="41.8735180" lon="-8.8660890">
        <ele>5.3</ele>
        <time>2021-05-18T15:38:05Z</time>
      </trkpt>
      <trkpt lat="41.8735100" lon="-8.8661010">
        <ele>5.3</ele>
        <time>2021-05-18T15:38:06Z</time>
      </trkpt>
      <trkpt lat="41.8735040" lon="-8.8661000">
        <ele>5.3</ele>
        <time>2021-05-18T15:38:07Z</time>
      </trkpt>
      <trkpt lat="41.8734970" lon="-8.8661090">
        <ele>5.3</ele>
        <time>2021-05-18T15:38:08Z</time>
      </trkpt>
      <trkpt lat="41.8734880" lon="-8.8661220">
        <ele>5.3</ele>
        <time>2021-05-18T15:38:09Z</time>
      </trkpt>
      <trkpt lat="41.8734740" lon="-8.8661300">
        <ele>5.3</ele>
        <time>2021-05-18T15:38:10Z</time>
      </trkpt>
      <trkpt lat="41.8734600" lon="-8.8661420">
        <ele>5.3</ele>
        <time>2021-05-18T15:38:11Z</time>
      </trkpt>
      <trkpt lat="41.8734410" lon="-8.8661520">
        <ele>5.3</ele>
        <time>2021-05-18T15:38:12Z</time>
      </trkpt>
      <trkpt lat="41.8734330" lon="-8.8661590">
        <ele>5.3</ele>
        <time>2021-05-18T15:38:13Z</time>
      </trkpt>
      <trkpt lat="41.8734240" lon="-8.8661670">
        <ele>5.3</ele>
        <time>2021-05-18T15:38:14Z</time>
      </trkpt>
      <trkpt lat="41.8734170" lon="-8.8661680">
        <ele>5.3</ele>
        <time>2021-05-18T15:38:15Z</time>
      </trkpt>
      <trkpt lat="41.8734030" lon="-8.8661810">
        <ele>5.4</ele>
        <time>2021-05-18T15:38:16Z</time>
      </trkpt>
      <trkpt lat="41.8733980" lon="-8.8661850">
        <ele>5.4</ele>
        <time>2021-05-18T15:38:17Z</time>
      </trkpt>
      <trkpt lat="41.8733760" lon="-8.8662090">
        <ele>5.4</ele>
        <time>2021-05-18T15:38:18Z</time>
      </trkpt>
      <trkpt lat="41.8733690" lon="-8.8662130">
        <ele>5.4</ele>
        <time>2021-05-18T15:38:19Z</time>
      </trkpt>
      <trkpt lat="41.8733600" lon="-8.8662200">
        <ele>5.4</ele>
        <time>2021-05-18T15:38:20Z</time>
      </trkpt>
      <trkpt lat="41.8733500" lon="-8.8662290">
        <ele>5.5</ele>
        <time>2021-05-18T15:38:21Z</time>
      </trkpt>
      <trkpt lat="41.8733420" lon="-8.8662470">
        <ele>5.5</ele>
        <time>2021-05-18T15:38:22Z</time>
      </trkpt>
      <trkpt lat="41.8733360" lon="-8.8662650">
        <ele>5.5</ele>
        <time>2021-05-18T15:38:23Z</time>
      </trkpt>
      <trkpt lat="41.8733290" lon="-8.8662790">
        <ele>5.6</ele>
        <time>2021-05-18T15:38:24Z</time>
      </trkpt>
      <trkpt lat="41.8733260" lon="-8.8662940">
        <ele>5.6</ele>
        <time>2021-05-18T15:38:25Z</time>
      </trkpt>
      <trkpt lat="41.8733250" lon="-8.8663060">
        <ele>5.6</ele>
        <time>2021-05-18T15:38:26Z</time>
      </trkpt>
      <trkpt lat="41.8733190" lon="-8.8663220">
        <ele>5.6</ele>
        <time>2021-05-18T15:38:27Z</time>
      </trkpt>
      <trkpt lat="41.8733120" lon="-8.8663350">
        <ele>5.7</ele>
        <time>2021-05-18T15:38:28Z</time>
      </trkpt>
      <trkpt lat="41.8733060" lon="-8.8663420">
        <ele>5.7</ele>
        <time>2021-05-18T15:38:29Z</time>
      </trkpt>
      <trkpt lat="41.8733030" lon="-8.8663590">
        <ele>5.8</ele>
        <time>2021-05-18T15:38:30Z</time>
      </trkpt>
      <trkpt lat="41.8732970" lon="-8.8663740">
        <ele>5.8</ele>
        <time>2021-05-18T15:38:31Z</time>
      </trkpt>
      <trkpt lat="41.8732890" lon="-8.8663850">
        <ele>5.8</ele>
        <time>2021-05-18T15:38:32Z</time>
      </trkpt>
      <trkpt lat="41.8732810" lon="-8.8663970">
        <ele>5.9</ele>
        <time>2021-05-18T15:38:33Z</time>
      </trkpt>
      <trkpt lat="41.8732790" lon="-8.8664100">
        <ele>5.9</ele>
        <time>2021-05-18T15:38:34Z</time>
      </trkpt>
      <trkpt lat="41.8732750" lon="-8.8664240">
        <ele>5.9</ele>
        <time>2021-05-18T15:38:35Z</time>
      </trkpt>
      <trkpt lat="41.8732690" lon="-8.8664420">
        <ele>6.0</ele>
        <time>2021-05-18T15:38:36Z</time>
      </trkpt>
      <trkpt lat="41.8732620" lon="-8.8664590">
        <ele>6.1</ele>
        <time>2021-05-18T15:38:37Z</time>
      </trkpt>
      <trkpt lat="41.8732590" lon="-8.8664710">
        <ele>6.1</ele>
        <time>2021-05-18T15:38:38Z</time>
      </trkpt>
      <trkpt lat="41.8732510" lon="-8.8664950">
        <ele>6.2</ele>
        <time>2021-05-18T15:38:39Z</time>
      </trkpt>
      <trkpt lat="41.8732460" lon="-8.8665020">
        <ele>6.2</ele>
        <time>2021-05-18T15:38:40Z</time>
      </trkpt>
      <trkpt lat="41.8732430" lon="-8.8665140">
        <ele>6.2</ele>
        <time>2021-05-18T15:38:41Z</time>
      </trkpt>
      <trkpt lat="41.8732380" lon="-8.8665370">
        <ele>6.3</ele>
        <time>2021-05-18T15:38:42Z</time>
      </trkpt>
      <trkpt lat="41.8732300" lon="-8.8665490">
        <ele>6.3</ele>
        <time>2021-05-18T15:38:43Z</time>
      </trkpt>
      <trkpt lat="41.8732290" lon="-8.8665590">
        <ele>6.4</ele>
        <time>2021-05-18T15:38:44Z</time>
      </trkpt>
      <trkpt lat="41.8732240" lon="-8.8665800">
        <ele>6.4</ele>
        <time>2021-05-18T15:38:45Z</time>
      </trkpt>
      <trkpt lat="41.8732190" lon="-8.8666090">
        <ele>6.5</ele>
        <time>2021-05-18T15:38:46Z</time>
      </trkpt>
      <trkpt lat="41.8732170" lon="-8.8666190">
        <ele>6.5</ele>
        <time>2021-05-18T15:38:47Z</time>
      </trkpt>
      <trkpt lat="41.8732140" lon="-8.8666290">
        <ele>6.5</ele>
        <time>2021-05-18T15:38:48Z</time>
      </trkpt>
      <trkpt lat="41.8732050" lon="-8.8666570">
        <ele>6.6</ele>
        <time>2021-05-18T15:38:49Z</time>
      </trkpt>
      <trkpt lat="41.8732020" lon="-8.8666680">
        <ele>6.6</ele>
        <time>2021-05-18T15:38:50Z</time>
      </trkpt>
      <trkpt lat="41.8731990" lon="-8.8666800">
        <ele>6.6</ele>
        <time>2021-05-18T15:38:51Z</time>
      </trkpt>
      <trkpt lat="41.8731980" lon="-8.8666860">
        <ele>6.7</ele>
        <time>2021-05-18T15:38:52Z</time>
      </trkpt>
      <trkpt lat="41.8731930" lon="-8.8666980">
        <ele>6.7</ele>
        <time>2021-05-18T15:38:53Z</time>
      </trkpt>
      <trkpt lat="41.8731820" lon="-8.8667050">
        <ele>6.7</ele>
        <time>2021-05-18T15:38:54Z</time>
      </trkpt>
      <trkpt lat="41.8731830" lon="-8.8667220">
        <ele>6.7</ele>
        <time>2021-05-18T15:38:55Z</time>
      </trkpt>
      <trkpt lat="41.8731760" lon="-8.8667270">
        <ele>6.7</ele>
        <time>2021-05-18T15:38:56Z</time>
      </trkpt>
      <trkpt lat="41.8731700" lon="-8.8667390">
        <ele>6.8</ele>
        <time>2021-05-18T15:38:58Z</time>
      </trkpt>
      <trkpt lat="41.8731640" lon="-8.8667530">
        <ele>6.8</ele>
        <time>2021-05-18T15:38:59Z</time>
      </trkpt>
      <trkpt lat="41.8731530" lon="-8.8667870">
        <ele>6.8</ele>
        <time>2021-05-18T15:39:00Z</time>
      </trkpt>
      <trkpt lat="41.8731480" lon="-8.8668010">
        <ele>6.8</ele>
        <time>2021-05-18T15:39:01Z</time>
      </trkpt>
      <trkpt lat="41.8731510" lon="-8.8668050">
        <ele>6.8</ele>
        <time>2021-05-18T15:39:02Z</time>
      </trkpt>
      <trkpt lat="41.8731480" lon="-8.8668210">
        <ele>6.8</ele>
        <time>2021-05-18T15:39:03Z</time>
      </trkpt>
      <trkpt lat="41.8731410" lon="-8.8668300">
        <ele>6.8</ele>
        <time>2021-05-18T15:39:04Z</time>
      </trkpt>
      <trkpt lat="41.8731390" lon="-8.8668440">
        <ele>6.8</ele>
        <time>2021-05-18T15:39:05Z</time>
      </trkpt>
      <trkpt lat="41.8731260" lon="-8.8668690">
        <ele>6.8</ele>
        <time>2021-05-18T15:39:06Z</time>
      </trkpt>
      <trkpt lat="41.8731230" lon="-8.8668760">
        <ele>6.8</ele>
        <time>2021-05-18T15:39:07Z</time>
      </trkpt>
      <trkpt lat="41.8731200" lon="-8.8668870">
        <ele>6.8</ele>
        <time>2021-05-18T15:39:08Z</time>
      </trkpt>
      <trkpt lat="41.8731230" lon="-8.8668970">
        <ele>6.8</ele>
        <time>2021-05-18T15:39:09Z</time>
      </trkpt>
      <trkpt lat="41.8731230" lon="-8.8669200">
        <ele>6.8</ele>
        <time>2021-05-18T15:39:10Z</time>
      </trkpt>
      <trkpt lat="41.8731190" lon="-8.8669350">
        <ele>6.8</ele>
        <time>2021-05-18T15:39:11Z</time>
      </trkpt>
      <trkpt lat="41.8731190" lon="-8.8669610">
        <ele>6.9</ele>
        <time>2021-05-18T15:39:12Z</time>
      </trkpt>
      <trkpt lat="41.8731150" lon="-8.8669870">
        <ele>6.9</ele>
        <time>2021-05-18T15:39:13Z</time>
      </trkpt>
      <trkpt lat="41.8731130" lon="-8.8670000">
        <ele>6.9</ele>
        <time>2021-05-18T15:39:14Z</time>
      </trkpt>
      <trkpt lat="41.8731120" lon="-8.8670140">
        <ele>6.9</ele>
        <time>2021-05-18T15:39:15Z</time>
      </trkpt>
      <trkpt lat="41.8731060" lon="-8.8670400">
        <ele>6.9</ele>
        <time>2021-05-18T15:39:16Z</time>
      </trkpt>
      <trkpt lat="41.8731030" lon="-8.8670500">
        <ele>6.9</ele>
        <time>2021-05-18T15:39:17Z</time>
      </trkpt>
      <trkpt lat="41.8730990" lon="-8.8670610">
        <ele>6.9</ele>
        <time>2021-05-18T15:39:18Z</time>
      </trkpt>
      <trkpt lat="41.8730930" lon="-8.8670720">
        <ele>6.9</ele>
        <time>2021-05-18T15:39:19Z</time>
      </trkpt>
      <trkpt lat="41.8730880" lon="-8.8670840">
        <ele>6.9</ele>
        <time>2021-05-18T15:39:20Z</time>
      </trkpt>
      <trkpt lat="41.8730850" lon="-8.8670990">
        <ele>6.9</ele>
        <time>2021-05-18T15:39:21Z</time>
      </trkpt>
      <trkpt lat="41.8730800" lon="-8.8671130">
        <ele>6.9</ele>
        <time>2021-05-18T15:39:22Z</time>
      </trkpt>
      <trkpt lat="41.8730760" lon="-8.8671350">
        <ele>6.8</ele>
        <time>2021-05-18T15:39:23Z</time>
      </trkpt>
      <trkpt lat="41.8730740" lon="-8.8671470">
        <ele>6.8</ele>
        <time>2021-05-18T15:39:24Z</time>
      </trkpt>
      <trkpt lat="41.8730690" lon="-8.8671730">
        <ele>6.8</ele>
        <time>2021-05-18T15:39:25Z</time>
      </trkpt>
      <trkpt lat="41.8730610" lon="-8.8671850">
        <ele>6.8</ele>
        <time>2021-05-18T15:39:26Z</time>
      </trkpt>
      <trkpt lat="41.8730590" lon="-8.8671920">
        <ele>6.8</ele>
        <time>2021-05-18T15:39:27Z</time>
      </trkpt>
      <trkpt lat="41.8730560" lon="-8.8672000">
        <ele>6.8</ele>
        <time>2021-05-18T15:39:28Z</time>
      </trkpt>
      <trkpt lat="41.8730540" lon="-8.8672070">
        <ele>6.8</ele>
        <time>2021-05-18T15:39:29Z</time>
      </trkpt>
      <trkpt lat="41.8730520" lon="-8.8672150">
        <ele>6.8</ele>
        <time>2021-05-18T15:39:30Z</time>
      </trkpt>
      <trkpt lat="41.8730510" lon="-8.8672380">
        <ele>6.8</ele>
        <time>2021-05-18T15:39:31Z</time>
      </trkpt>
      <trkpt lat="41.8730460" lon="-8.8672540">
        <ele>6.8</ele>
        <time>2021-05-18T15:39:32Z</time>
      </trkpt>
      <trkpt lat="41.8730460" lon="-8.8672710">
        <ele>6.8</ele>
        <time>2021-05-18T15:39:33Z</time>
      </trkpt>
      <trkpt lat="41.8730450" lon="-8.8672820">
        <ele>6.8</ele>
        <time>2021-05-18T15:39:34Z</time>
      </trkpt>
      <trkpt lat="41.8730410" lon="-8.8672980">
        <ele>6.8</ele>
        <time>2021-05-18T15:39:35Z</time>
      </trkpt>
      <trkpt lat="41.8730410" lon="-8.8673140">
        <ele>6.8</ele>
        <time>2021-05-18T15:39:36Z</time>
      </trkpt>
      <trkpt lat="41.8730420" lon="-8.8673220">
        <ele>6.9</ele>
        <time>2021-05-18T15:39:37Z</time>
      </trkpt>
      <trkpt lat="41.8730370" lon="-8.8673430">
        <ele>6.9</ele>
        <time>2021-05-18T15:39:38Z</time>
      </trkpt>
      <trkpt lat="41.8730390" lon="-8.8673530">
        <ele>6.9</ele>
        <time>2021-05-18T15:39:39Z</time>
      </trkpt>
      <trkpt lat="41.8730390" lon="-8.8673660">
        <ele>6.9</ele>
        <time>2021-05-18T15:39:40Z</time>
      </trkpt>
      <trkpt lat="41.8730380" lon="-8.8673860">
        <ele>6.9</ele>
        <time>2021-05-18T15:39:41Z</time>
      </trkpt>
      <trkpt lat="41.8730390" lon="-8.8674100">
        <ele>6.9</ele>
        <time>2021-05-18T15:39:42Z</time>
      </trkpt>
      <trkpt lat="41.8730260" lon="-8.8674270">
        <ele>6.9</ele>
        <time>2021-05-18T15:39:43Z</time>
      </trkpt>
      <trkpt lat="41.8730220" lon="-8.8674540">
        <ele>6.9</ele>
        <time>2021-05-18T15:39:44Z</time>
      </trkpt>
      <trkpt lat="41.8730180" lon="-8.8674670">
        <ele>6.9</ele>
        <time>2021-05-18T15:39:45Z</time>
      </trkpt>
      <trkpt lat="41.8730140" lon="-8.8674810">
        <ele>6.9</ele>
        <time>2021-05-18T15:39:46Z</time>
      </trkpt>
      <trkpt lat="41.8730170" lon="-8.8674890">
        <ele>6.9</ele>
        <time>2021-05-18T15:39:47Z</time>
      </trkpt>
      <trkpt lat="41.8730120" lon="-8.8675100">
        <ele>7.0</ele>
        <time>2021-05-18T15:39:48Z</time>
      </trkpt>
      <trkpt lat="41.8730080" lon="-8.8675260">
        <ele>7.0</ele>
        <time>2021-05-18T15:39:49Z</time>
      </trkpt>
      <trkpt lat="41.8730100" lon="-8.8675450">
        <ele>7.0</ele>
        <time>2021-05-18T15:39:50Z</time>
      </trkpt>
      <trkpt lat="41.8730040" lon="-8.8675630">
        <ele>7.0</ele>
        <time>2021-05-18T15:39:51Z</time>
      </trkpt>
      <trkpt lat="41.8730150" lon="-8.8675900">
        <ele>7.0</ele>
        <time>2021-05-18T15:39:52Z</time>
      </trkpt>
      <trkpt lat="41.8730160" lon="-8.8676010">
        <ele>7.0</ele>
        <time>2021-05-18T15:39:53Z</time>
      </trkpt>
      <trkpt lat="41.8730170" lon="-8.8676130">
        <ele>7.0</ele>
        <time>2021-05-18T15:39:54Z</time>
      </trkpt>
      <trkpt lat="41.8730230" lon="-8.8676290">
        <ele>7.1</ele>
        <time>2021-05-18T15:39:55Z</time>
      </trkpt>
      <trkpt lat="41.8730200" lon="-8.8676420">
        <ele>7.1</ele>
        <time>2021-05-18T15:39:56Z</time>
      </trkpt>
      <trkpt lat="41.8730190" lon="-8.8676590">
        <ele>7.1</ele>
        <time>2021-05-18T15:39:57Z</time>
      </trkpt>
      <trkpt lat="41.8730190" lon="-8.8676750">
        <ele>7.1</ele>
        <time>2021-05-18T15:39:58Z</time>
      </trkpt>
      <trkpt lat="41.8730240" lon="-8.8676970">
        <ele>7.1</ele>
        <time>2021-05-18T15:39:59Z</time>
      </trkpt>
      <trkpt lat="41.8730270" lon="-8.8677240">
        <ele>7.1</ele>
        <time>2021-05-18T15:40:00Z</time>
      </trkpt>
      <trkpt lat="41.8730250" lon="-8.8677370">
        <ele>7.1</ele>
        <time>2021-05-18T15:40:01Z</time>
      </trkpt>
      <trkpt lat="41.8730240" lon="-8.8677490">
        <ele>7.1</ele>
        <time>2021-05-18T15:40:02Z</time>
      </trkpt>
      <trkpt lat="41.8730230" lon="-8.8677720">
        <ele>7.2</ele>
        <time>2021-05-18T15:40:03Z</time>
      </trkpt>
      <trkpt lat="41.8730230" lon="-8.8677860">
        <ele>7.2</ele>
        <time>2021-05-18T15:40:04Z</time>
      </trkpt>
      <trkpt lat="41.8730220" lon="-8.8678020">
        <ele>7.2</ele>
        <time>2021-05-18T15:40:05Z</time>
      </trkpt>
      <trkpt lat="41.8730140" lon="-8.8678210">
        <ele>7.2</ele>
        <time>2021-05-18T15:40:06Z</time>
      </trkpt>
      <trkpt lat="41.8730110" lon="-8.8678420">
        <ele>7.2</ele>
        <time>2021-05-18T15:40:07Z</time>
      </trkpt>
      <trkpt lat="41.8730100" lon="-8.8678620">
        <ele>7.2</ele>
        <time>2021-05-18T15:40:08Z</time>
      </trkpt>
      <trkpt lat="41.8730050" lon="-8.8678800">
        <ele>7.2</ele>
        <time>2021-05-18T15:40:09Z</time>
      </trkpt>
      <trkpt lat="41.8730060" lon="-8.8679020">
        <ele>7.2</ele>
        <time>2021-05-18T15:40:10Z</time>
      </trkpt>
      <trkpt lat="41.8730030" lon="-8.8679230">
        <ele>7.3</ele>
        <time>2021-05-18T15:40:11Z</time>
      </trkpt>
      <trkpt lat="41.8729970" lon="-8.8679440">
        <ele>7.3</ele>
        <time>2021-05-18T15:40:12Z</time>
      </trkpt>
      <trkpt lat="41.8729970" lon="-8.8679650">
        <ele>7.3</ele>
        <time>2021-05-18T15:40:13Z</time>
      </trkpt>
      <trkpt lat="41.8729950" lon="-8.8679840">
        <ele>7.3</ele>
        <time>2021-05-18T15:40:14Z</time>
      </trkpt>
      <trkpt lat="41.8729890" lon="-8.8680000">
        <ele>7.3</ele>
        <time>2021-05-18T15:40:15Z</time>
      </trkpt>
      <trkpt lat="41.8729860" lon="-8.8680210">
        <ele>7.3</ele>
        <time>2021-05-18T15:40:16Z</time>
      </trkpt>
      <trkpt lat="41.8729830" lon="-8.8680410">
        <ele>7.3</ele>
        <time>2021-05-18T15:40:17Z</time>
      </trkpt>
      <trkpt lat="41.8729820" lon="-8.8680630">
        <ele>7.3</ele>
        <time>2021-05-18T15:40:18Z</time>
      </trkpt>
      <trkpt lat="41.8729780" lon="-8.8680800">
        <ele>7.3</ele>
        <time>2021-05-18T15:40:19Z</time>
      </trkpt>
      <trkpt lat="41.8729750" lon="-8.8680980">
        <ele>7.3</ele>
        <time>2021-05-18T15:40:20Z</time>
      </trkpt>
      <trkpt lat="41.8729710" lon="-8.8681260">
        <ele>7.3</ele>
        <time>2021-05-18T15:40:21Z</time>
      </trkpt>
      <trkpt lat="41.8729670" lon="-8.8681390">
        <ele>7.3</ele>
        <time>2021-05-18T15:40:22Z</time>
      </trkpt>
      <trkpt lat="41.8729630" lon="-8.8681510">
        <ele>7.3</ele>
        <time>2021-05-18T15:40:23Z</time>
      </trkpt>
      <trkpt lat="41.8729600" lon="-8.8681930">
        <ele>7.3</ele>
        <time>2021-05-18T15:40:24Z</time>
      </trkpt>
      <trkpt lat="41.8729570" lon="-8.8682130">
        <ele>7.3</ele>
        <time>2021-05-18T15:40:25Z</time>
      </trkpt>
      <trkpt lat="41.8729530" lon="-8.8682290">
        <ele>7.3</ele>
        <time>2021-05-18T15:40:26Z</time>
      </trkpt>
      <trkpt lat="41.8729540" lon="-8.8682480">
        <ele>7.3</ele>
        <time>2021-05-18T15:40:27Z</time>
      </trkpt>
      <trkpt lat="41.8729520" lon="-8.8682670">
        <ele>7.3</ele>
        <time>2021-05-18T15:40:28Z</time>
      </trkpt>
      <trkpt lat="41.8729550" lon="-8.8682880">
        <ele>7.3</ele>
        <time>2021-05-18T15:40:29Z</time>
      </trkpt>
      <trkpt lat="41.8729570" lon="-8.8683070">
        <ele>7.3</ele>
        <time>2021-05-18T15:40:30Z</time>
      </trkpt>
      <trkpt lat="41.8729620" lon="-8.8683240">
        <ele>7.3</ele>
        <time>2021-05-18T15:40:31Z</time>
      </trkpt>
      <trkpt lat="41.8729700" lon="-8.8683360">
        <ele>7.3</ele>
        <time>2021-05-18T15:40:32Z</time>
      </trkpt>
      <trkpt lat="41.8729770" lon="-8.8683420">
        <ele>7.3</ele>
        <time>2021-05-18T15:40:33Z</time>
      </trkpt>
      <trkpt lat="41.8729880" lon="-8.8683500">
        <ele>7.3</ele>
        <time>2021-05-18T15:40:34Z</time>
      </trkpt>
      <trkpt lat="41.8729920" lon="-8.8683610">
        <ele>7.3</ele>
        <time>2021-05-18T15:40:35Z</time>
      </trkpt>
      <trkpt lat="41.8729910" lon="-8.8683750">
        <ele>7.3</ele>
        <time>2021-05-18T15:40:36Z</time>
      </trkpt>
      <trkpt lat="41.8729950" lon="-8.8683900">
        <ele>7.3</ele>
        <time>2021-05-18T15:40:37Z</time>
      </trkpt>
      <trkpt lat="41.8730020" lon="-8.8684080">
        <ele>7.3</ele>
        <time>2021-05-18T15:40:38Z</time>
      </trkpt>
      <trkpt lat="41.8730070" lon="-8.8684220">
        <ele>7.3</ele>
        <time>2021-05-18T15:40:39Z</time>
      </trkpt>
      <trkpt lat="41.8730090" lon="-8.8684470">
        <ele>7.3</ele>
        <time>2021-05-18T15:40:40Z</time>
      </trkpt>
      <trkpt lat="41.8730120" lon="-8.8684750">
        <ele>7.3</ele>
        <time>2021-05-18T15:40:41Z</time>
      </trkpt>
      <trkpt lat="41.8730160" lon="-8.8684870">
        <ele>7.3</ele>
        <time>2021-05-18T15:40:42Z</time>
      </trkpt>
      <trkpt lat="41.8730190" lon="-8.8684990">
        <ele>7.3</ele>
        <time>2021-05-18T15:40:43Z</time>
      </trkpt>
      <trkpt lat="41.8730240" lon="-8.8685110">
        <ele>7.3</ele>
        <time>2021-05-18T15:40:44Z</time>
      </trkpt>
      <trkpt lat="41.8730350" lon="-8.8685160">
        <ele>7.3</ele>
        <time>2021-05-18T15:40:45Z</time>
      </trkpt>
      <trkpt lat="41.8730430" lon="-8.8685330">
        <ele>7.3</ele>
        <time>2021-05-18T15:40:46Z</time>
      </trkpt>
      <trkpt lat="41.8730550" lon="-8.8685400">
        <ele>7.3</ele>
        <time>2021-05-18T15:40:47Z</time>
      </trkpt>
      <trkpt lat="41.8730630" lon="-8.8685600">
        <ele>7.3</ele>
        <time>2021-05-18T15:40:48Z</time>
      </trkpt>
      <trkpt lat="41.8730710" lon="-8.8685770">
        <ele>7.3</ele>
        <time>2021-05-18T15:40:49Z</time>
      </trkpt>
      <trkpt lat="41.8730680" lon="-8.8685860">
        <ele>7.3</ele>
        <time>2021-05-18T15:40:50Z</time>
      </trkpt>
      <trkpt lat="41.8730750" lon="-8.8686010">
        <ele>7.3</ele>
        <time>2021-05-18T15:40:51Z</time>
      </trkpt>
      <trkpt lat="41.8730790" lon="-8.8686110">
        <ele>7.3</ele>
        <time>2021-05-18T15:40:52Z</time>
      </trkpt>
      <trkpt lat="41.8730900" lon="-8.8686200">
        <ele>7.3</ele>
        <time>2021-05-18T15:40:53Z</time>
      </trkpt>
      <trkpt lat="41.8731030" lon="-8.8686280">
        <ele>7.3</ele>
        <time>2021-05-18T15:40:54Z</time>
      </trkpt>
      <trkpt lat="41.8731110" lon="-8.8686380">
        <ele>7.2</ele>
        <time>2021-05-18T15:40:55Z</time>
      </trkpt>
      <trkpt lat="41.8731210" lon="-8.8686400">
        <ele>7.2</ele>
        <time>2021-05-18T15:40:56Z</time>
      </trkpt>
      <trkpt lat="41.8731320" lon="-8.8686460">
        <ele>7.2</ele>
        <time>2021-05-18T15:40:57Z</time>
      </trkpt>
      <trkpt lat="41.8731440" lon="-8.8686480">
        <ele>7.2</ele>
        <time>2021-05-18T15:40:58Z</time>
      </trkpt>
      <trkpt lat="41.8731600" lon="-8.8686530">
        <ele>7.2</ele>
        <time>2021-05-18T15:40:59Z</time>
      </trkpt>
      <trkpt lat="41.8731690" lon="-8.8686550">
        <ele>7.2</ele>
        <time>2021-05-18T15:41:00Z</time>
      </trkpt>
      <trkpt lat="41.8731800" lon="-8.8686620">
        <ele>7.2</ele>
        <time>2021-05-18T15:41:01Z</time>
      </trkpt>
      <trkpt lat="41.8731870" lon="-8.8686620">
        <ele>7.2</ele>
        <time>2021-05-18T15:41:02Z</time>
      </trkpt>
      <trkpt lat="41.8732110" lon="-8.8686740">
        <ele>7.2</ele>
        <time>2021-05-18T15:41:03Z</time>
      </trkpt>
      <trkpt lat="41.8732160" lon="-8.8686770">
        <ele>7.2</ele>
        <time>2021-05-18T15:41:05Z</time>
      </trkpt>
      <trkpt lat="41.8732220" lon="-8.8686810">
        <ele>7.2</ele>
        <time>2021-05-18T15:41:06Z</time>
      </trkpt>
      <trkpt lat="41.8732360" lon="-8.8686810">
        <ele>7.2</ele>
        <time>2021-05-18T15:41:07Z</time>
      </trkpt>
      <trkpt lat="41.8732530" lon="-8.8686830">
        <ele>7.2</ele>
        <time>2021-05-18T15:41:08Z</time>
      </trkpt>
      <trkpt lat="41.8732730" lon="-8.8686880">
        <ele>7.2</ele>
        <time>2021-05-18T15:41:09Z</time>
      </trkpt>
      <trkpt lat="41.8732810" lon="-8.8686880">
        <ele>7.2</ele>
        <time>2021-05-18T15:41:10Z</time>
      </trkpt>
      <trkpt lat="41.8732900" lon="-8.8686870">
        <ele>7.2</ele>
        <time>2021-05-18T15:41:11Z</time>
      </trkpt>
      <trkpt lat="41.8733040" lon="-8.8686890">
        <ele>7.2</ele>
        <time>2021-05-18T15:41:12Z</time>
      </trkpt>
      <trkpt lat="41.8733170" lon="-8.8686900">
        <ele>7.2</ele>
        <time>2021-05-18T15:41:13Z</time>
      </trkpt>
      <trkpt lat="41.8733220" lon="-8.8686930">
        <ele>7.2</ele>
        <time>2021-05-18T15:41:14Z</time>
      </trkpt>
      <trkpt lat="41.8733390" lon="-8.8686950">
        <ele>7.2</ele>
        <time>2021-05-18T15:41:15Z</time>
      </trkpt>
      <trkpt lat="41.8733500" lon="-8.8687000">
        <ele>7.2</ele>
        <time>2021-05-18T15:41:16Z</time>
      </trkpt>
      <trkpt lat="41.8733710" lon="-8.8687060">
        <ele>7.2</ele>
        <time>2021-05-18T15:41:17Z</time>
      </trkpt>
      <trkpt lat="41.8733790" lon="-8.8687080">
        <ele>7.2</ele>
        <time>2021-05-18T15:41:18Z</time>
      </trkpt>
      <trkpt lat="41.8733880" lon="-8.8687110">
        <ele>7.2</ele>
        <time>2021-05-18T15:41:19Z</time>
      </trkpt>
      <trkpt lat="41.8734090" lon="-8.8687190">
        <ele>7.2</ele>
        <time>2021-05-18T15:41:20Z</time>
      </trkpt>
      <trkpt lat="41.8734160" lon="-8.8687210">
        <ele>7.2</ele>
        <time>2021-05-18T15:41:21Z</time>
      </trkpt>
      <trkpt lat="41.8734240" lon="-8.8687220">
        <ele>7.2</ele>
        <time>2021-05-18T15:41:22Z</time>
      </trkpt>
      <trkpt lat="41.8734370" lon="-8.8687240">
        <ele>7.2</ele>
        <time>2021-05-18T15:41:23Z</time>
      </trkpt>
      <trkpt lat="41.8734470" lon="-8.8687280">
        <ele>7.2</ele>
        <time>2021-05-18T15:41:24Z</time>
      </trkpt>
      <trkpt lat="41.8734600" lon="-8.8687320">
        <ele>7.2</ele>
        <time>2021-05-18T15:41:25Z</time>
      </trkpt>
      <trkpt lat="41.8734810" lon="-8.8687390">
        <ele>7.2</ele>
        <time>2021-05-18T15:41:26Z</time>
      </trkpt>
      <trkpt lat="41.8734880" lon="-8.8687410">
        <ele>7.2</ele>
        <time>2021-05-18T15:41:27Z</time>
      </trkpt>
      <trkpt lat="41.8734960" lon="-8.8687430">
        <ele>7.2</ele>
        <time>2021-05-18T15:41:28Z</time>
      </trkpt>
      <trkpt lat="41.8735090" lon="-8.8687500">
        <ele>7.2</ele>
        <time>2021-05-18T15:41:29Z</time>
      </trkpt>
      <trkpt lat="41.8735220" lon="-8.8687550">
        <ele>7.2</ele>
        <time>2021-05-18T15:41:30Z</time>
      </trkpt>
      <trkpt lat="41.8735460" lon="-8.8687570">
        <ele>7.2</ele>
        <time>2021-05-18T15:41:31Z</time>
      </trkpt>
      <trkpt lat="41.8735540" lon="-8.8687580">
        <ele>7.2</ele>
        <time>2021-05-18T15:41:32Z</time>
      </trkpt>
      <trkpt lat="41.8735620" lon="-8.8687600">
        <ele>7.2</ele>
        <time>2021-05-18T15:41:33Z</time>
      </trkpt>
      <trkpt lat="41.8735800" lon="-8.8687640">
        <ele>7.2</ele>
        <time>2021-05-18T15:41:34Z</time>
      </trkpt>
      <trkpt lat="41.8735960" lon="-8.8687710">
        <ele>7.2</ele>
        <time>2021-05-18T15:41:35Z</time>
      </trkpt>
      <trkpt lat="41.8736110" lon="-8.8687740">
        <ele>7.2</ele>
        <time>2021-05-18T15:41:36Z</time>
      </trkpt>
      <trkpt lat="41.8736280" lon="-8.8687730">
        <ele>7.2</ele>
        <time>2021-05-18T15:41:37Z</time>
      </trkpt>
      <trkpt lat="41.8736370" lon="-8.8687760">
        <ele>7.2</ele>
        <time>2021-05-18T15:41:38Z</time>
      </trkpt>
      <trkpt lat="41.8736480" lon="-8.8687780">
        <ele>7.2</ele>
        <time>2021-05-18T15:41:39Z</time>
      </trkpt>
      <trkpt lat="41.8736630" lon="-8.8687800">
        <ele>7.3</ele>
        <time>2021-05-18T15:41:40Z</time>
      </trkpt>
      <trkpt lat="41.8736740" lon="-8.8687860">
        <ele>7.3</ele>
        <time>2021-05-18T15:41:41Z</time>
      </trkpt>
      <trkpt lat="41.8736820" lon="-8.8687880">
        <ele>7.3</ele>
        <time>2021-05-18T15:41:42Z</time>
      </trkpt>
      <trkpt lat="41.8736900" lon="-8.8687870">
        <ele>7.3</ele>
        <time>2021-05-18T15:41:43Z</time>
      </trkpt>
      <trkpt lat="41.8737010" lon="-8.8687900">
        <ele>7.3</ele>
        <time>2021-05-18T15:41:44Z</time>
      </trkpt>
      <trkpt lat="41.8737080" lon="-8.8688030">
        <ele>7.3</ele>
        <time>2021-05-18T15:41:45Z</time>
      </trkpt>
      <trkpt lat="41.8737090" lon="-8.8688070">
        <ele>7.3</ele>
        <time>2021-05-18T15:41:46Z</time>
      </trkpt>
      <trkpt lat="41.8737220" lon="-8.8688110">
        <ele>7.3</ele>
        <time>2021-05-18T15:41:47Z</time>
      </trkpt>
      <trkpt lat="41.8737270" lon="-8.8688150">
        <ele>7.3</ele>
        <time>2021-05-18T15:41:48Z</time>
      </trkpt>
      <trkpt lat="41.8737310" lon="-8.8688180">
        <ele>7.3</ele>
        <time>2021-05-18T15:41:49Z</time>
      </trkpt>
      <trkpt lat="41.8737270" lon="-8.8688180">
        <ele>7.3</ele>
        <time>2021-05-18T15:41:50Z</time>
      </trkpt>
      <trkpt lat="41.8737260" lon="-8.8688180">
        <ele>7.3</ele>
        <time>2021-05-18T15:41:51Z</time>
      </trkpt>
      <trkpt lat="41.8737280" lon="-8.8688190">
        <ele>7.3</ele>
        <time>2021-05-18T15:41:52Z</time>
      </trkpt>
      <trkpt lat="41.8737280" lon="-8.8688180">
        <ele>7.3</ele>
        <time>2021-05-18T15:41:53Z</time>
      </trkpt>
      <trkpt lat="41.8737290" lon="-8.8688170">
        <ele>7.3</ele>
        <time>2021-05-18T15:41:54Z</time>
      </trkpt>
      <trkpt lat="41.8737320" lon="-8.8688180">
        <ele>7.3</ele>
        <time>2021-05-18T15:41:55Z</time>
      </trkpt>
      <trkpt lat="41.8737320" lon="-8.8688200">
        <ele>7.3</ele>
        <time>2021-05-18T15:41:56Z</time>
      </trkpt>
      <trkpt lat="41.8737330" lon="-8.8688210">
        <ele>7.3</ele>
        <time>2021-05-18T15:41:57Z</time>
      </trkpt>
      <trkpt lat="41.8737320" lon="-8.8688220">
        <ele>7.3</ele>
        <time>2021-05-18T15:41:58Z</time>
      </trkpt>
      <trkpt lat="41.8737310" lon="-8.8688230">
        <ele>7.3</ele>
        <time>2021-05-18T15:41:59Z</time>
      </trkpt>
      <trkpt lat="41.8737230" lon="-8.8688220">
        <ele>7.3</ele>
        <time>2021-05-18T15:42:00Z</time>
      </trkpt>
      <trkpt lat="41.8737100" lon="-8.8688240">
        <ele>7.3</ele>
        <time>2021-05-18T15:42:01Z</time>
      </trkpt>
      <trkpt lat="41.8736990" lon="-8.8688270">
        <ele>7.3</ele>
        <time>2021-05-18T15:42:02Z</time>
      </trkpt>
      <trkpt lat="41.8736950" lon="-8.8688350">
        <ele>7.3</ele>
        <time>2021-05-18T15:42:03Z</time>
      </trkpt>
      <trkpt lat="41.8736850" lon="-8.8688400">
        <ele>7.3</ele>
        <time>2021-05-18T15:42:04Z</time>
      </trkpt>
      <trkpt lat="41.8736770" lon="-8.8688520">
        <ele>7.3</ele>
        <time>2021-05-18T15:42:05Z</time>
      </trkpt>
      <trkpt lat="41.8736750" lon="-8.8688610">
        <ele>7.3</ele>
        <time>2021-05-18T15:42:06Z</time>
      </trkpt>
      <trkpt lat="41.8736590" lon="-8.8688990">
        <ele>7.2</ele>
        <time>2021-05-18T15:42:07Z</time>
      </trkpt>
      <trkpt lat="41.8736560" lon="-8.8689070">
        <ele>7.2</ele>
        <time>2021-05-18T15:42:08Z</time>
      </trkpt>
      <trkpt lat="41.8736520" lon="-8.8689270">
        <ele>7.2</ele>
        <time>2021-05-18T15:42:09Z</time>
      </trkpt>
      <trkpt lat="41.8736460" lon="-8.8689410">
        <ele>7.2</ele>
        <time>2021-05-18T15:42:10Z</time>
      </trkpt>
      <trkpt lat="41.8736390" lon="-8.8689690">
        <ele>7.2</ele>
        <time>2021-05-18T15:42:11Z</time>
      </trkpt>
      <trkpt lat="41.8736350" lon="-8.8689770">
        <ele>7.2</ele>
        <time>2021-05-18T15:42:12Z</time>
      </trkpt>
      <trkpt lat="41.8736310" lon="-8.8689860">
        <ele>7.1</ele>
        <time>2021-05-18T15:42:13Z</time>
      </trkpt>
      <trkpt lat="41.8736290" lon="-8.8690010">
        <ele>7.1</ele>
        <time>2021-05-18T15:42:14Z</time>
      </trkpt>
      <trkpt lat="41.8736240" lon="-8.8690150">
        <ele>7.1</ele>
        <time>2021-05-18T15:42:15Z</time>
      </trkpt>
      <trkpt lat="41.8736190" lon="-8.8690300">
        <ele>7.1</ele>
        <time>2021-05-18T15:42:16Z</time>
      </trkpt>
      <trkpt lat="41.8736100" lon="-8.8690450">
        <ele>7.1</ele>
        <time>2021-05-18T15:42:17Z</time>
      </trkpt>
      <trkpt lat="41.8736020" lon="-8.8690600">
        <ele>7.1</ele>
        <time>2021-05-18T15:42:18Z</time>
      </trkpt>
      <trkpt lat="41.8735960" lon="-8.8690710">
        <ele>7.0</ele>
        <time>2021-05-18T15:42:19Z</time>
      </trkpt>
      <trkpt lat="41.8735910" lon="-8.8690950">
        <ele>7.0</ele>
        <time>2021-05-18T15:42:20Z</time>
      </trkpt>
      <trkpt lat="41.8735890" lon="-8.8691250">
        <ele>7.0</ele>
        <time>2021-05-18T15:42:21Z</time>
      </trkpt>
      <trkpt lat="41.8735880" lon="-8.8691360">
        <ele>7.0</ele>
        <time>2021-05-18T15:42:22Z</time>
      </trkpt>
      <trkpt lat="41.8735870" lon="-8.8691480">
        <ele>7.0</ele>
        <time>2021-05-18T15:42:23Z</time>
      </trkpt>
      <trkpt lat="41.8735820" lon="-8.8691670">
        <ele>6.9</ele>
        <time>2021-05-18T15:42:24Z</time>
      </trkpt>
      <trkpt lat="41.8735760" lon="-8.8691870">
        <ele>6.9</ele>
        <time>2021-05-18T15:42:25Z</time>
      </trkpt>
      <trkpt lat="41.8735680" lon="-8.8692170">
        <ele>6.9</ele>
        <time>2021-05-18T15:42:26Z</time>
      </trkpt>
      <trkpt lat="41.8735630" lon="-8.8692280">
        <ele>6.9</ele>
        <time>2021-05-18T15:42:27Z</time>
      </trkpt>
      <trkpt lat="41.8735590" lon="-8.8692400">
        <ele>6.9</ele>
        <time>2021-05-18T15:42:28Z</time>
      </trkpt>
      <trkpt lat="41.8735490" lon="-8.8692670">
        <ele>6.9</ele>
        <time>2021-05-18T15:42:29Z</time>
      </trkpt>
      <trkpt lat="41.8735420" lon="-8.8692850">
        <ele>6.9</ele>
        <time>2021-05-18T15:42:30Z</time>
      </trkpt>
      <trkpt lat="41.8735330" lon="-8.8693100">
        <ele>6.8</ele>
        <time>2021-05-18T15:42:31Z</time>
      </trkpt>
      <trkpt lat="41.8735300" lon="-8.8693220">
        <ele>6.8</ele>
        <time>2021-05-18T15:42:32Z</time>
      </trkpt>
      <trkpt lat="41.8735260" lon="-8.8693340">
        <ele>6.8</ele>
        <time>2021-05-18T15:42:33Z</time>
      </trkpt>
      <trkpt lat="41.8735230" lon="-8.8693460">
        <ele>6.8</ele>
        <time>2021-05-18T15:42:34Z</time>
      </trkpt>
      <trkpt lat="41.8735210" lon="-8.8693610">
        <ele>6.8</ele>
        <time>2021-05-18T15:42:35Z</time>
      </trkpt>
      <trkpt lat="41.8735150" lon="-8.8693730">
        <ele>6.8</ele>
        <time>2021-05-18T15:42:36Z</time>
      </trkpt>
      <trkpt lat="41.8735110" lon="-8.8693850">
        <ele>6.8</ele>
        <time>2021-05-18T15:42:37Z</time>
      </trkpt>
      <trkpt lat="41.8735020" lon="-8.8694100">
        <ele>6.8</ele>
        <time>2021-05-18T15:42:38Z</time>
      </trkpt>
      <trkpt lat="41.8734980" lon="-8.8694390">
        <ele>6.8</ele>
        <time>2021-05-18T15:42:39Z</time>
      </trkpt>
      <trkpt lat="41.8734970" lon="-8.8694490">
        <ele>6.8</ele>
        <time>2021-05-18T15:42:40Z</time>
      </trkpt>
      <trkpt lat="41.8734950" lon="-8.8694600">
        <ele>6.8</ele>
        <time>2021-05-18T15:42:41Z</time>
      </trkpt>
      <trkpt lat="41.8734910" lon="-8.8694900">
        <ele>6.8</ele>
        <time>2021-05-18T15:42:42Z</time>
      </trkpt>
      <trkpt lat="41.8734900" lon="-8.8695010">
        <ele>6.8</ele>
        <time>2021-05-18T15:42:43Z</time>
      </trkpt>
      <trkpt lat="41.8734880" lon="-8.8695130">
        <ele>6.8</ele>
        <time>2021-05-18T15:42:44Z</time>
      </trkpt>
      <trkpt lat="41.8734930" lon="-8.8695440">
        <ele>6.8</ele>
        <time>2021-05-18T15:42:45Z</time>
      </trkpt>
      <trkpt lat="41.8734950" lon="-8.8695560">
        <ele>6.8</ele>
        <time>2021-05-18T15:42:46Z</time>
      </trkpt>
      <trkpt lat="41.8734960" lon="-8.8695680">
        <ele>6.7</ele>
        <time>2021-05-18T15:42:47Z</time>
      </trkpt>
      <trkpt lat="41.8734930" lon="-8.8695830">
        <ele>6.7</ele>
        <time>2021-05-18T15:42:48Z</time>
      </trkpt>
      <trkpt lat="41.8734930" lon="-8.8696060">
        <ele>6.7</ele>
        <time>2021-05-18T15:42:49Z</time>
      </trkpt>
      <trkpt lat="41.8734930" lon="-8.8696150">
        <ele>6.7</ele>
        <time>2021-05-18T15:42:50Z</time>
      </trkpt>
      <trkpt lat="41.8734880" lon="-8.8696250">
        <ele>6.7</ele>
        <time>2021-05-18T15:42:51Z</time>
      </trkpt>
      <trkpt lat="41.8734850" lon="-8.8696430">
        <ele>6.7</ele>
        <time>2021-05-18T15:42:52Z</time>
      </trkpt>
      <trkpt lat="41.8734770" lon="-8.8696680">
        <ele>6.6</ele>
        <time>2021-05-18T15:42:53Z</time>
      </trkpt>
      <trkpt lat="41.8734740" lon="-8.8696800">
        <ele>6.6</ele>
        <time>2021-05-18T15:42:54Z</time>
      </trkpt>
      <trkpt lat="41.8734700" lon="-8.8696920">
        <ele>6.6</ele>
        <time>2021-05-18T15:42:55Z</time>
      </trkpt>
      <trkpt lat="41.8734530" lon="-8.8697150">
        <ele>6.5</ele>
        <time>2021-05-18T15:42:56Z</time>
      </trkpt>
      <trkpt lat="41.8734430" lon="-8.8697240">
        <ele>6.5</ele>
        <time>2021-05-18T15:42:57Z</time>
      </trkpt>
      <trkpt lat="41.8734330" lon="-8.8697320">
        <ele>6.5</ele>
        <time>2021-05-18T15:42:58Z</time>
      </trkpt>
      <trkpt lat="41.8734190" lon="-8.8697380">
        <ele>6.4</ele>
        <time>2021-05-18T15:42:59Z</time>
      </trkpt>
      <trkpt lat="41.8734020" lon="-8.8697470">
        <ele>6.4</ele>
        <time>2021-05-18T15:43:00Z</time>
      </trkpt>
      <trkpt lat="41.8733760" lon="-8.8697640">
        <ele>6.3</ele>
        <time>2021-05-18T15:43:01Z</time>
      </trkpt>
      <trkpt lat="41.8733650" lon="-8.8697700">
        <ele>6.2</ele>
        <time>2021-05-18T15:43:02Z</time>
      </trkpt>
      <trkpt lat="41.8733550" lon="-8.8697710">
        <ele>6.2</ele>
        <time>2021-05-18T15:43:03Z</time>
      </trkpt>
      <trkpt lat="41.8733460" lon="-8.8697700">
        <ele>6.1</ele>
        <time>2021-05-18T15:43:04Z</time>
      </trkpt>
      <trkpt lat="41.8733310" lon="-8.8697770">
        <ele>6.1</ele>
        <time>2021-05-18T15:43:05Z</time>
      </trkpt>
      <trkpt lat="41.8733160" lon="-8.8697870">
        <ele>6.0</ele>
        <time>2021-05-18T15:43:06Z</time>
      </trkpt>
      <trkpt lat="41.8733040" lon="-8.8697960">
        <ele>6.0</ele>
        <time>2021-05-18T15:43:07Z</time>
      </trkpt>
      <trkpt lat="41.8732980" lon="-8.8698030">
        <ele>6.0</ele>
        <time>2021-05-18T15:43:08Z</time>
      </trkpt>
      <trkpt lat="41.8732830" lon="-8.8698100">
        <ele>5.9</ele>
        <time>2021-05-18T15:43:10Z</time>
      </trkpt>
      <trkpt lat="41.8732720" lon="-8.8698100">
        <ele>5.9</ele>
        <time>2021-05-18T15:43:11Z</time>
      </trkpt>
      <trkpt lat="41.8732490" lon="-8.8698230">
        <ele>5.8</ele>
        <time>2021-05-18T15:43:12Z</time>
      </trkpt>
      <trkpt lat="41.8732370" lon="-8.8698310">
        <ele>5.7</ele>
        <time>2021-05-18T15:43:13Z</time>
      </trkpt>
      <trkpt lat="41.8732340" lon="-8.8698310">
        <ele>5.7</ele>
        <time>2021-05-18T15:43:14Z</time>
      </trkpt>
      <trkpt lat="41.8732190" lon="-8.8698460">
        <ele>5.7</ele>
        <time>2021-05-18T15:43:15Z</time>
      </trkpt>
      <trkpt lat="41.8732090" lon="-8.8698510">
        <ele>5.7</ele>
        <time>2021-05-18T15:43:16Z</time>
      </trkpt>
      <trkpt lat="41.8731980" lon="-8.8698560">
        <ele>5.6</ele>
        <time>2021-05-18T15:43:17Z</time>
      </trkpt>
      <trkpt lat="41.8732000" lon="-8.8698710">
        <ele>5.6</ele>
        <time>2021-05-18T15:43:18Z</time>
      </trkpt>
      <trkpt lat="41.8731950" lon="-8.8698840">
        <ele>5.6</ele>
        <time>2021-05-18T15:43:19Z</time>
      </trkpt>
      <trkpt lat="41.8731920" lon="-8.8698970">
        <ele>5.5</ele>
        <time>2021-05-18T15:43:20Z</time>
      </trkpt>
      <trkpt lat="41.8731920" lon="-8.8699060">
        <ele>5.5</ele>
        <time>2021-05-18T15:43:21Z</time>
      </trkpt>
      <trkpt lat="41.8731850" lon="-8.8699130">
        <ele>5.5</ele>
        <time>2021-05-18T15:43:22Z</time>
      </trkpt>
      <trkpt lat="41.8731820" lon="-8.8699270">
        <ele>5.5</ele>
        <time>2021-05-18T15:43:23Z</time>
      </trkpt>
      <trkpt lat="41.8731710" lon="-8.8699560">
        <ele>5.4</ele>
        <time>2021-05-18T15:43:24Z</time>
      </trkpt>
      <trkpt lat="41.8731690" lon="-8.8699670">
        <ele>5.4</ele>
        <time>2021-05-18T15:43:25Z</time>
      </trkpt>
      <trkpt lat="41.8731670" lon="-8.8699770">
        <ele>5.4</ele>
        <time>2021-05-18T15:43:26Z</time>
      </trkpt>
      <trkpt lat="41.8731510" lon="-8.8700140">
        <ele>5.3</ele>
        <time>2021-05-18T15:43:27Z</time>
      </trkpt>
      <trkpt lat="41.8731470" lon="-8.8700200">
        <ele>5.3</ele>
        <time>2021-05-18T15:43:28Z</time>
      </trkpt>
      <trkpt lat="41.8731430" lon="-8.8700520">
        <ele>5.3</ele>
        <time>2021-05-18T15:43:29Z</time>
      </trkpt>
      <trkpt lat="41.8731390" lon="-8.8700640">
        <ele>5.3</ele>
        <time>2021-05-18T15:43:30Z</time>
      </trkpt>
      <trkpt lat="41.8731340" lon="-8.8700750">
        <ele>5.3</ele>
        <time>2021-05-18T15:43:31Z</time>
      </trkpt>
      <trkpt lat="41.8731210" lon="-8.8701060">
        <ele>5.2</ele>
        <time>2021-05-18T15:43:32Z</time>
      </trkpt>
      <trkpt lat="41.8731150" lon="-8.8701180">
        <ele>5.2</ele>
        <time>2021-05-18T15:43:33Z</time>
      </trkpt>
      <trkpt lat="41.8731060" lon="-8.8701380">
        <ele>5.2</ele>
        <time>2021-05-18T15:43:34Z</time>
      </trkpt>
      <trkpt lat="41.8730940" lon="-8.8701570">
        <ele>5.2</ele>
        <time>2021-05-18T15:43:35Z</time>
      </trkpt>
      <trkpt lat="41.8730880" lon="-8.8701780">
        <ele>5.2</ele>
        <time>2021-05-18T15:43:36Z</time>
      </trkpt>
      <trkpt lat="41.8730810" lon="-8.8702000">
        <ele>5.2</ele>
        <time>2021-05-18T15:43:37Z</time>
      </trkpt>
      <trkpt lat="41.8730750" lon="-8.8702210">
        <ele>5.2</ele>
        <time>2021-05-18T15:43:38Z</time>
      </trkpt>
      <trkpt lat="41.8730650" lon="-8.8702410">
        <ele>5.2</ele>
        <time>2021-05-18T15:43:39Z</time>
      </trkpt>
      <trkpt lat="41.8730580" lon="-8.8702590">
        <ele>5.2</ele>
        <time>2021-05-18T15:43:40Z</time>
      </trkpt>
      <trkpt lat="41.8730530" lon="-8.8702750">
        <ele>5.2</ele>
        <time>2021-05-18T15:43:41Z</time>
      </trkpt>
      <trkpt lat="41.8730530" lon="-8.8702960">
        <ele>5.2</ele>
        <time>2021-05-18T15:43:42Z</time>
      </trkpt>
      <trkpt lat="41.8730450" lon="-8.8703140">
        <ele>5.2</ele>
        <time>2021-05-18T15:43:43Z</time>
      </trkpt>
      <trkpt lat="41.8730480" lon="-8.8703380">
        <ele>5.2</ele>
        <time>2021-05-18T15:43:44Z</time>
      </trkpt>
      <trkpt lat="41.8730380" lon="-8.8703540">
        <ele>5.2</ele>
        <time>2021-05-18T15:43:45Z</time>
      </trkpt>
      <trkpt lat="41.8730350" lon="-8.8703740">
        <ele>5.2</ele>
        <time>2021-05-18T15:43:46Z</time>
      </trkpt>
      <trkpt lat="41.8730300" lon="-8.8703930">
        <ele>5.2</ele>
        <time>2021-05-18T15:43:47Z</time>
      </trkpt>
      <trkpt lat="41.8730240" lon="-8.8704120">
        <ele>5.2</ele>
        <time>2021-05-18T15:43:48Z</time>
      </trkpt>
      <trkpt lat="41.8730210" lon="-8.8704240">
        <ele>5.2</ele>
        <time>2021-05-18T15:43:49Z</time>
      </trkpt>
      <trkpt lat="41.8730150" lon="-8.8704310">
        <ele>5.2</ele>
        <time>2021-05-18T15:43:50Z</time>
      </trkpt>
      <trkpt lat="41.8730100" lon="-8.8704440">
        <ele>5.2</ele>
        <time>2021-05-18T15:43:51Z</time>
      </trkpt>
      <trkpt lat="41.8730060" lon="-8.8704520">
        <ele>5.2</ele>
        <time>2021-05-18T15:43:52Z</time>
      </trkpt>
      <trkpt lat="41.8730030" lon="-8.8704590">
        <ele>5.2</ele>
        <time>2021-05-18T15:43:53Z</time>
      </trkpt>
      <trkpt lat="41.8729990" lon="-8.8704670">
        <ele>5.2</ele>
        <time>2021-05-18T15:43:54Z</time>
      </trkpt>
      <trkpt lat="41.8729960" lon="-8.8704740">
        <ele>5.2</ele>
        <time>2021-05-18T15:43:55Z</time>
      </trkpt>
      <trkpt lat="41.8729960" lon="-8.8704870">
        <ele>5.2</ele>
        <time>2021-05-18T15:43:56Z</time>
      </trkpt>
      <trkpt lat="41.8729940" lon="-8.8705010">
        <ele>5.2</ele>
        <time>2021-05-18T15:43:57Z</time>
      </trkpt>
      <trkpt lat="41.8729900" lon="-8.8705130">
        <ele>5.2</ele>
        <time>2021-05-18T15:43:58Z</time>
      </trkpt>
      <trkpt lat="41.8729860" lon="-8.8705230">
        <ele>5.2</ele>
        <time>2021-05-18T15:43:59Z</time>
      </trkpt>
      <trkpt lat="41.8729820" lon="-8.8705370">
        <ele>5.2</ele>
        <time>2021-05-18T15:44:00Z</time>
      </trkpt>
      <trkpt lat="41.8729810" lon="-8.8705520">
        <ele>5.2</ele>
        <time>2021-05-18T15:44:01Z</time>
      </trkpt>
      <trkpt lat="41.8729730" lon="-8.8705700">
        <ele>5.2</ele>
        <time>2021-05-18T15:44:02Z</time>
      </trkpt>
      <trkpt lat="41.8729700" lon="-8.8705960">
        <ele>5.3</ele>
        <time>2021-05-18T15:44:03Z</time>
      </trkpt>
      <trkpt lat="41.8729650" lon="-8.8706120">
        <ele>5.3</ele>
        <time>2021-05-18T15:44:04Z</time>
      </trkpt>
      <trkpt lat="41.8729620" lon="-8.8706290">
        <ele>5.3</ele>
        <time>2021-05-18T15:44:05Z</time>
      </trkpt>
      <trkpt lat="41.8729590" lon="-8.8706380">
        <ele>5.3</ele>
        <time>2021-05-18T15:44:06Z</time>
      </trkpt>
      <trkpt lat="41.8729550" lon="-8.8706680">
        <ele>5.3</ele>
        <time>2021-05-18T15:44:07Z</time>
      </trkpt>
      <trkpt lat="41.8729500" lon="-8.8706790">
        <ele>5.3</ele>
        <time>2021-05-18T15:44:08Z</time>
      </trkpt>
      <trkpt lat="41.8729460" lon="-8.8706910">
        <ele>5.3</ele>
        <time>2021-05-18T15:44:09Z</time>
      </trkpt>
      <trkpt lat="41.8729340" lon="-8.8707170">
        <ele>5.3</ele>
        <time>2021-05-18T15:44:10Z</time>
      </trkpt>
      <trkpt lat="41.8729300" lon="-8.8707280">
        <ele>5.3</ele>
        <time>2021-05-18T15:44:11Z</time>
      </trkpt>
      <trkpt lat="41.8729270" lon="-8.8707380">
        <ele>5.3</ele>
        <time>2021-05-18T15:44:12Z</time>
      </trkpt>
      <trkpt lat="41.8729170" lon="-8.8707630">
        <ele>5.3</ele>
        <time>2021-05-18T15:44:13Z</time>
      </trkpt>
      <trkpt lat="41.8729130" lon="-8.8707730">
        <ele>5.3</ele>
        <time>2021-05-18T15:44:14Z</time>
      </trkpt>
      <trkpt lat="41.8729080" lon="-8.8707830">
        <ele>5.3</ele>
        <time>2021-05-18T15:44:15Z</time>
      </trkpt>
      <trkpt lat="41.8729040" lon="-8.8707940">
        <ele>5.3</ele>
        <time>2021-05-18T15:44:16Z</time>
      </trkpt>
      <trkpt lat="41.8728960" lon="-8.8708060">
        <ele>5.3</ele>
        <time>2021-05-18T15:44:17Z</time>
      </trkpt>
      <trkpt lat="41.8728910" lon="-8.8708260">
        <ele>5.2</ele>
        <time>2021-05-18T15:44:18Z</time>
      </trkpt>
      <trkpt lat="41.8728820" lon="-8.8708520">
        <ele>5.2</ele>
        <time>2021-05-18T15:44:19Z</time>
      </trkpt>
      <trkpt lat="41.8728770" lon="-8.8708590">
        <ele>5.2</ele>
        <time>2021-05-18T15:44:20Z</time>
      </trkpt>
      <trkpt lat="41.8728750" lon="-8.8708760">
        <ele>5.2</ele>
        <time>2021-05-18T15:44:21Z</time>
      </trkpt>
      <trkpt lat="41.8728680" lon="-8.8708890">
        <ele>5.2</ele>
        <time>2021-05-18T15:44:22Z</time>
      </trkpt>
      <trkpt lat="41.8728650" lon="-8.8709040">
        <ele>5.2</ele>
        <time>2021-05-18T15:44:23Z</time>
      </trkpt>
      <trkpt lat="41.8728520" lon="-8.8709170">
        <ele>5.1</ele>
        <time>2021-05-18T15:44:24Z</time>
      </trkpt>
      <trkpt lat="41.8728420" lon="-8.8709330">
        <ele>5.1</ele>
        <time>2021-05-18T15:44:25Z</time>
      </trkpt>
      <trkpt lat="41.8728260" lon="-8.8709620">
        <ele>5.1</ele>
        <time>2021-05-18T15:44:26Z</time>
      </trkpt>
      <trkpt lat="41.8728190" lon="-8.8709720">
        <ele>5.1</ele>
        <time>2021-05-18T15:44:27Z</time>
      </trkpt>
      <trkpt lat="41.8728040" lon="-8.8710050">
        <ele>5.0</ele>
        <time>2021-05-18T15:44:28Z</time>
      </trkpt>
      <trkpt lat="41.8727980" lon="-8.8710150">
        <ele>5.0</ele>
        <time>2021-05-18T15:44:29Z</time>
      </trkpt>
      <trkpt lat="41.8727860" lon="-8.8710380">
        <ele>5.0</ele>
        <time>2021-05-18T15:44:30Z</time>
      </trkpt>
      <trkpt lat="41.8727810" lon="-8.8710490">
        <ele>5.0</ele>
        <time>2021-05-18T15:44:31Z</time>
      </trkpt>
      <trkpt lat="41.8727770" lon="-8.8710590">
        <ele>4.9</ele>
        <time>2021-05-18T15:44:32Z</time>
      </trkpt>
      <trkpt lat="41.8727670" lon="-8.8710760">
        <ele>4.9</ele>
        <time>2021-05-18T15:44:33Z</time>
      </trkpt>
      <trkpt lat="41.8727550" lon="-8.8710960">
        <ele>4.9</ele>
        <time>2021-05-18T15:44:34Z</time>
      </trkpt>
      <trkpt lat="41.8727330" lon="-8.8711220">
        <ele>4.9</ele>
        <time>2021-05-18T15:44:35Z</time>
      </trkpt>
      <trkpt lat="41.8727250" lon="-8.8711300">
        <ele>4.9</ele>
        <time>2021-05-18T15:44:36Z</time>
      </trkpt>
      <trkpt lat="41.8727140" lon="-8.8711420">
        <ele>4.9</ele>
        <time>2021-05-18T15:44:37Z</time>
      </trkpt>
      <trkpt lat="41.8727040" lon="-8.8711580">
        <ele>4.8</ele>
        <time>2021-05-18T15:44:38Z</time>
      </trkpt>
      <trkpt lat="41.8726890" lon="-8.8711720">
        <ele>4.8</ele>
        <time>2021-05-18T15:44:39Z</time>
      </trkpt>
      <trkpt lat="41.8726820" lon="-8.8711920">
        <ele>4.8</ele>
        <time>2021-05-18T15:44:40Z</time>
      </trkpt>
      <trkpt lat="41.8726720" lon="-8.8712070">
        <ele>4.8</ele>
        <time>2021-05-18T15:44:41Z</time>
      </trkpt>
      <trkpt lat="41.8726650" lon="-8.8712130">
        <ele>4.8</ele>
        <time>2021-05-18T15:44:42Z</time>
      </trkpt>
      <trkpt lat="41.8726560" lon="-8.8712230">
        <ele>4.8</ele>
        <time>2021-05-18T15:44:43Z</time>
      </trkpt>
      <trkpt lat="41.8726400" lon="-8.8712330">
        <ele>4.8</ele>
        <time>2021-05-18T15:44:44Z</time>
      </trkpt>
      <trkpt lat="41.8726240" lon="-8.8712450">
        <ele>4.8</ele>
        <time>2021-05-18T15:44:45Z</time>
      </trkpt>
      <trkpt lat="41.8726050" lon="-8.8712630">
        <ele>4.8</ele>
        <time>2021-05-18T15:44:46Z</time>
      </trkpt>
      <trkpt lat="41.8725950" lon="-8.8712690">
        <ele>4.8</ele>
        <time>2021-05-18T15:44:47Z</time>
      </trkpt>
      <trkpt lat="41.8725860" lon="-8.8712750">
        <ele>4.8</ele>
        <time>2021-05-18T15:44:48Z</time>
      </trkpt>
      <trkpt lat="41.8725770" lon="-8.8712900">
        <ele>4.8</ele>
        <time>2021-05-18T15:44:49Z</time>
      </trkpt>
      <trkpt lat="41.8725690" lon="-8.8712970">
        <ele>4.8</ele>
        <time>2021-05-18T15:44:50Z</time>
      </trkpt>
      <trkpt lat="41.8725630" lon="-8.8713100">
        <ele>4.8</ele>
        <time>2021-05-18T15:44:51Z</time>
      </trkpt>
      <trkpt lat="41.8725520" lon="-8.8713270">
        <ele>4.8</ele>
        <time>2021-05-18T15:44:52Z</time>
      </trkpt>
      <trkpt lat="41.8725480" lon="-8.8713450">
        <ele>4.8</ele>
        <time>2021-05-18T15:44:53Z</time>
      </trkpt>
      <trkpt lat="41.8725350" lon="-8.8713550">
        <ele>4.8</ele>
        <time>2021-05-18T15:44:54Z</time>
      </trkpt>
      <trkpt lat="41.8725350" lon="-8.8713720">
        <ele>4.8</ele>
        <time>2021-05-18T15:44:55Z</time>
      </trkpt>
      <trkpt lat="41.8725280" lon="-8.8713850">
        <ele>4.8</ele>
        <time>2021-05-18T15:44:56Z</time>
      </trkpt>
      <trkpt lat="41.8725200" lon="-8.8713980">
        <ele>4.8</ele>
        <time>2021-05-18T15:44:57Z</time>
      </trkpt>
      <trkpt lat="41.8725170" lon="-8.8714170">
        <ele>4.8</ele>
        <time>2021-05-18T15:44:58Z</time>
      </trkpt>
      <trkpt lat="41.8725040" lon="-8.8714330">
        <ele>4.8</ele>
        <time>2021-05-18T15:44:59Z</time>
      </trkpt>
      <trkpt lat="41.8724990" lon="-8.8714490">
        <ele>4.8</ele>
        <time>2021-05-18T15:45:00Z</time>
      </trkpt>
      <trkpt lat="41.8724920" lon="-8.8714710">
        <ele>4.8</ele>
        <time>2021-05-18T15:45:01Z</time>
      </trkpt>
      <trkpt lat="41.8724890" lon="-8.8714800">
        <ele>4.8</ele>
        <time>2021-05-18T15:45:02Z</time>
      </trkpt>
      <trkpt lat="41.8724870" lon="-8.8714900">
        <ele>4.8</ele>
        <time>2021-05-18T15:45:03Z</time>
      </trkpt>
      <trkpt lat="41.8724840" lon="-8.8714990">
        <ele>4.8</ele>
        <time>2021-05-18T15:45:04Z</time>
      </trkpt>
      <trkpt lat="41.8724800" lon="-8.8715260">
        <ele>4.9</ele>
        <time>2021-05-18T15:45:05Z</time>
      </trkpt>
      <trkpt lat="41.8724760" lon="-8.8715370">
        <ele>4.9</ele>
        <time>2021-05-18T15:45:06Z</time>
      </trkpt>
      <trkpt lat="41.8724730" lon="-8.8715490">
        <ele>4.9</ele>
        <time>2021-05-18T15:45:07Z</time>
      </trkpt>
      <trkpt lat="41.8724670" lon="-8.8715660">
        <ele>4.9</ele>
        <time>2021-05-18T15:45:08Z</time>
      </trkpt>
      <trkpt lat="41.8724590" lon="-8.8715900">
        <ele>4.9</ele>
        <time>2021-05-18T15:45:09Z</time>
      </trkpt>
      <trkpt lat="41.8724550" lon="-8.8716060">
        <ele>4.9</ele>
        <time>2021-05-18T15:45:11Z</time>
      </trkpt>
      <trkpt lat="41.8724490" lon="-8.8716240">
        <ele>5.0</ele>
        <time>2021-05-18T15:45:12Z</time>
      </trkpt>
      <trkpt lat="41.8724350" lon="-8.8716400">
        <ele>5.0</ele>
        <time>2021-05-18T15:45:13Z</time>
      </trkpt>
      <trkpt lat="41.8724270" lon="-8.8716450">
        <ele>5.0</ele>
        <time>2021-05-18T15:45:14Z</time>
      </trkpt>
      <trkpt lat="41.8724180" lon="-8.8716510">
        <ele>5.0</ele>
        <time>2021-05-18T15:45:15Z</time>
      </trkpt>
      <trkpt lat="41.8724110" lon="-8.8716650">
        <ele>5.0</ele>
        <time>2021-05-18T15:45:16Z</time>
      </trkpt>
      <trkpt lat="41.8723970" lon="-8.8716840">
        <ele>5.1</ele>
        <time>2021-05-18T15:45:17Z</time>
      </trkpt>
      <trkpt lat="41.8723830" lon="-8.8716900">
        <ele>5.1</ele>
        <time>2021-05-18T15:45:18Z</time>
      </trkpt>
      <trkpt lat="41.8723680" lon="-8.8716950">
        <ele>5.1</ele>
        <time>2021-05-18T15:45:19Z</time>
      </trkpt>
      <trkpt lat="41.8723470" lon="-8.8717170">
        <ele>5.1</ele>
        <time>2021-05-18T15:45:20Z</time>
      </trkpt>
      <trkpt lat="41.8723370" lon="-8.8717290">
        <ele>5.1</ele>
        <time>2021-05-18T15:45:21Z</time>
      </trkpt>
      <trkpt lat="41.8723150" lon="-8.8717390">
        <ele>5.1</ele>
        <time>2021-05-18T15:45:22Z</time>
      </trkpt>
      <trkpt lat="41.8723060" lon="-8.8717450">
        <ele>5.1</ele>
        <time>2021-05-18T15:45:23Z</time>
      </trkpt>
      <trkpt lat="41.8722950" lon="-8.8717560">
        <ele>5.1</ele>
        <time>2021-05-18T15:45:24Z</time>
      </trkpt>
      <trkpt lat="41.8722770" lon="-8.8717640">
        <ele>5.1</ele>
        <time>2021-05-18T15:45:25Z</time>
      </trkpt>
      <trkpt lat="41.8722610" lon="-8.8717810">
        <ele>5.1</ele>
        <time>2021-05-18T15:45:26Z</time>
      </trkpt>
      <trkpt lat="41.8722520" lon="-8.8717890">
        <ele>5.1</ele>
        <time>2021-05-18T15:45:27Z</time>
      </trkpt>
      <trkpt lat="41.8722370" lon="-8.8718000">
        <ele>5.2</ele>
        <time>2021-05-18T15:45:28Z</time>
      </trkpt>
      <trkpt lat="41.8722250" lon="-8.8718130">
        <ele>5.2</ele>
        <time>2021-05-18T15:45:29Z</time>
      </trkpt>
      <trkpt lat="41.8722120" lon="-8.8718260">
        <ele>5.2</ele>
        <time>2021-05-18T15:45:30Z</time>
      </trkpt>
      <trkpt lat="41.8721970" lon="-8.8718380">
        <ele>5.2</ele>
        <time>2021-05-18T15:45:31Z</time>
      </trkpt>
      <trkpt lat="41.8721850" lon="-8.8718460">
        <ele>5.2</ele>
        <time>2021-05-18T15:45:32Z</time>
      </trkpt>
      <trkpt lat="41.8721720" lon="-8.8718550">
        <ele>5.2</ele>
        <time>2021-05-18T15:45:33Z</time>
      </trkpt>
      <trkpt lat="41.8721540" lon="-8.8718670">
        <ele>5.2</ele>
        <time>2021-05-18T15:45:34Z</time>
      </trkpt>
      <trkpt lat="41.8721420" lon="-8.8718770">
        <ele>5.2</ele>
        <time>2021-05-18T15:45:35Z</time>
      </trkpt>
      <trkpt lat="41.8721390" lon="-8.8718920">
        <ele>5.2</ele>
        <time>2021-05-18T15:45:36Z</time>
      </trkpt>
      <trkpt lat="41.8721310" lon="-8.8718940">
        <ele>5.2</ele>
        <time>2021-05-18T15:45:37Z</time>
      </trkpt>
      <trkpt lat="41.8721190" lon="-8.8719050">
        <ele>5.2</ele>
        <time>2021-05-18T15:45:38Z</time>
      </trkpt>
      <trkpt lat="41.8721050" lon="-8.8719270">
        <ele>5.2</ele>
        <time>2021-05-18T15:45:39Z</time>
      </trkpt>
      <trkpt lat="41.8720970" lon="-8.8719350">
        <ele>5.3</ele>
        <time>2021-05-18T15:45:40Z</time>
      </trkpt>
      <trkpt lat="41.8720900" lon="-8.8719440">
        <ele>5.3</ele>
        <time>2021-05-18T15:45:41Z</time>
      </trkpt>
      <trkpt lat="41.8720840" lon="-8.8719460">
        <ele>5.3</ele>
        <time>2021-05-18T15:45:42Z</time>
      </trkpt>
      <trkpt lat="41.8720750" lon="-8.8719650">
        <ele>5.3</ele>
        <time>2021-05-18T15:45:43Z</time>
      </trkpt>
      <trkpt lat="41.8720660" lon="-8.8719730">
        <ele>5.3</ele>
        <time>2021-05-18T15:45:44Z</time>
      </trkpt>
      <trkpt lat="41.8720530" lon="-8.8719910">
        <ele>5.3</ele>
        <time>2021-05-18T15:45:45Z</time>
      </trkpt>
      <trkpt lat="41.8720460" lon="-8.8720010">
        <ele>5.4</ele>
        <time>2021-05-18T15:45:46Z</time>
      </trkpt>
      <trkpt lat="41.8720400" lon="-8.8720120">
        <ele>5.4</ele>
        <time>2021-05-18T15:45:47Z</time>
      </trkpt>
      <trkpt lat="41.8720300" lon="-8.8720170">
        <ele>5.4</ele>
        <time>2021-05-18T15:45:48Z</time>
      </trkpt>
      <trkpt lat="41.8720240" lon="-8.8720260">
        <ele>5.4</ele>
        <time>2021-05-18T15:45:49Z</time>
      </trkpt>
      <trkpt lat="41.8720170" lon="-8.8720380">
        <ele>5.4</ele>
        <time>2021-05-18T15:45:50Z</time>
      </trkpt>
      <trkpt lat="41.8720000" lon="-8.8720590">
        <ele>5.4</ele>
        <time>2021-05-18T15:45:51Z</time>
      </trkpt>
      <trkpt lat="41.8719950" lon="-8.8720670">
        <ele>5.4</ele>
        <time>2021-05-18T15:45:52Z</time>
      </trkpt>
      <trkpt lat="41.8719900" lon="-8.8720740">
        <ele>5.5</ele>
        <time>2021-05-18T15:45:53Z</time>
      </trkpt>
      <trkpt lat="41.8719780" lon="-8.8720850">
        <ele>5.5</ele>
        <time>2021-05-18T15:45:54Z</time>
      </trkpt>
      <trkpt lat="41.8719680" lon="-8.8720930">
        <ele>5.5</ele>
        <time>2021-05-18T15:45:55Z</time>
      </trkpt>
      <trkpt lat="41.8719620" lon="-8.8720990">
        <ele>5.5</ele>
        <time>2021-05-18T15:45:56Z</time>
      </trkpt>
      <trkpt lat="41.8719520" lon="-8.8721110">
        <ele>5.5</ele>
        <time>2021-05-18T15:45:57Z</time>
      </trkpt>
      <trkpt lat="41.8719400" lon="-8.8721250">
        <ele>5.5</ele>
        <time>2021-05-18T15:45:58Z</time>
      </trkpt>
      <trkpt lat="41.8719290" lon="-8.8721390">
        <ele>5.6</ele>
        <time>2021-05-18T15:45:59Z</time>
      </trkpt>
      <trkpt lat="41.8719270" lon="-8.8721470">
        <ele>5.6</ele>
        <time>2021-05-18T15:46:00Z</time>
      </trkpt>
      <trkpt lat="41.8719200" lon="-8.8721610">
        <ele>5.6</ele>
        <time>2021-05-18T15:46:01Z</time>
      </trkpt>
      <trkpt lat="41.8719070" lon="-8.8721760">
        <ele>5.6</ele>
        <time>2021-05-18T15:46:02Z</time>
      </trkpt>
      <trkpt lat="41.8718890" lon="-8.8721850">
        <ele>5.6</ele>
        <time>2021-05-18T15:46:03Z</time>
      </trkpt>
      <trkpt lat="41.8718780" lon="-8.8721970">
        <ele>5.7</ele>
        <time>2021-05-18T15:46:04Z</time>
      </trkpt>
      <trkpt lat="41.8718630" lon="-8.8722050">
        <ele>5.7</ele>
        <time>2021-05-18T15:46:05Z</time>
      </trkpt>
      <trkpt lat="41.8718520" lon="-8.8722140">
        <ele>5.7</ele>
        <time>2021-05-18T15:46:06Z</time>
      </trkpt>
      <trkpt lat="41.8718380" lon="-8.8722270">
        <ele>5.7</ele>
        <time>2021-05-18T15:46:07Z</time>
      </trkpt>
      <trkpt lat="41.8718200" lon="-8.8722380">
        <ele>5.7</ele>
        <time>2021-05-18T15:46:08Z</time>
      </trkpt>
      <trkpt lat="41.8718120" lon="-8.8722430">
        <ele>5.8</ele>
        <time>2021-05-18T15:46:09Z</time>
      </trkpt>
      <trkpt lat="41.8718040" lon="-8.8722480">
        <ele>5.8</ele>
        <time>2021-05-18T15:46:10Z</time>
      </trkpt>
      <trkpt lat="41.8717940" lon="-8.8722600">
        <ele>5.8</ele>
        <time>2021-05-18T15:46:11Z</time>
      </trkpt>
      <trkpt lat="41.8717840" lon="-8.8722650">
        <ele>5.8</ele>
        <time>2021-05-18T15:46:12Z</time>
      </trkpt>
      <trkpt lat="41.8717780" lon="-8.8722770">
        <ele>5.8</ele>
        <time>2021-05-18T15:46:13Z</time>
      </trkpt>
      <trkpt lat="41.8717780" lon="-8.8722910">
        <ele>5.9</ele>
        <time>2021-05-18T15:46:14Z</time>
      </trkpt>
      <trkpt lat="41.8717720" lon="-8.8723010">
        <ele>5.9</ele>
        <time>2021-05-18T15:46:15Z</time>
      </trkpt>
      <trkpt lat="41.8717630" lon="-8.8723140">
        <ele>5.9</ele>
        <time>2021-05-18T15:46:16Z</time>
      </trkpt>
      <trkpt lat="41.8717490" lon="-8.8723290">
        <ele>5.9</ele>
        <time>2021-05-18T15:46:17Z</time>
      </trkpt>
      <trkpt lat="41.8717400" lon="-8.8723380">
        <ele>6.0</ele>
        <time>2021-05-18T15:46:18Z</time>
      </trkpt>
      <trkpt lat="41.8717320" lon="-8.8723460">
        <ele>6.0</ele>
        <time>2021-05-18T15:46:19Z</time>
      </trkpt>
      <trkpt lat="41.8717270" lon="-8.8723560">
        <ele>6.0</ele>
        <time>2021-05-18T15:46:20Z</time>
      </trkpt>
      <trkpt lat="41.8717210" lon="-8.8723680">
        <ele>6.0</ele>
        <time>2021-05-18T15:46:21Z</time>
      </trkpt>
      <trkpt lat="41.8717130" lon="-8.8723820">
        <ele>6.0</ele>
        <time>2021-05-18T15:46:22Z</time>
      </trkpt>
      <trkpt lat="41.8717210" lon="-8.8724080">
        <ele>6.1</ele>
        <time>2021-05-18T15:46:23Z</time>
      </trkpt>
      <trkpt lat="41.8717290" lon="-8.8724260">
        <ele>6.1</ele>
        <time>2021-05-18T15:46:24Z</time>
      </trkpt>
      <trkpt lat="41.8717260" lon="-8.8724410">
        <ele>6.1</ele>
        <time>2021-05-18T15:46:25Z</time>
      </trkpt>
      <trkpt lat="41.8717270" lon="-8.8724620">
        <ele>6.2</ele>
        <time>2021-05-18T15:46:26Z</time>
      </trkpt>
      <trkpt lat="41.8717230" lon="-8.8724700">
        <ele>6.2</ele>
        <time>2021-05-18T15:46:27Z</time>
      </trkpt>
      <trkpt lat="41.8717190" lon="-8.8725010">
        <ele>6.2</ele>
        <time>2021-05-18T15:46:28Z</time>
      </trkpt>
      <trkpt lat="41.8717200" lon="-8.8725170">
        <ele>6.2</ele>
        <time>2021-05-18T15:46:29Z</time>
      </trkpt>
      <trkpt lat="41.8717170" lon="-8.8725430">
        <ele>6.3</ele>
        <time>2021-05-18T15:46:30Z</time>
      </trkpt>
      <trkpt lat="41.8717180" lon="-8.8725670">
        <ele>6.3</ele>
        <time>2021-05-18T15:46:31Z</time>
      </trkpt>
      <trkpt lat="41.8717230" lon="-8.8725860">
        <ele>6.3</ele>
        <time>2021-05-18T15:46:32Z</time>
      </trkpt>
      <trkpt lat="41.8717260" lon="-8.8725990">
        <ele>6.4</ele>
        <time>2021-05-18T15:46:33Z</time>
      </trkpt>
      <trkpt lat="41.8717300" lon="-8.8726180">
        <ele>6.4</ele>
        <time>2021-05-18T15:46:34Z</time>
      </trkpt>
      <trkpt lat="41.8717360" lon="-8.8726280">
        <ele>6.4</ele>
        <time>2021-05-18T15:46:35Z</time>
      </trkpt>
      <trkpt lat="41.8717440" lon="-8.8726410">
        <ele>6.4</ele>
        <time>2021-05-18T15:46:36Z</time>
      </trkpt>
      <trkpt lat="41.8717610" lon="-8.8726510">
        <ele>6.5</ele>
        <time>2021-05-18T15:46:37Z</time>
      </trkpt>
      <trkpt lat="41.8717660" lon="-8.8726640">
        <ele>6.5</ele>
        <time>2021-05-18T15:46:38Z</time>
      </trkpt>
      <trkpt lat="41.8717800" lon="-8.8726840">
        <ele>6.5</ele>
        <time>2021-05-18T15:46:39Z</time>
      </trkpt>
      <trkpt lat="41.8717920" lon="-8.8726920">
        <ele>6.5</ele>
        <time>2021-05-18T15:46:40Z</time>
      </trkpt>
      <trkpt lat="41.8718040" lon="-8.8727100">
        <ele>6.5</ele>
        <time>2021-05-18T15:46:41Z</time>
      </trkpt>
      <trkpt lat="41.8718210" lon="-8.8727370">
        <ele>6.6</ele>
        <time>2021-05-18T15:46:42Z</time>
      </trkpt>
      <trkpt lat="41.8718250" lon="-8.8727460">
        <ele>6.6</ele>
        <time>2021-05-18T15:46:43Z</time>
      </trkpt>
      <trkpt lat="41.8718280" lon="-8.8727520">
        <ele>6.6</ele>
        <time>2021-05-18T15:46:44Z</time>
      </trkpt>
      <trkpt lat="41.8718380" lon="-8.8727790">
        <ele>6.6</ele>
        <time>2021-05-18T15:46:45Z</time>
      </trkpt>
      <trkpt lat="41.8718470" lon="-8.8727830">
        <ele>6.6</ele>
        <time>2021-05-18T15:46:46Z</time>
      </trkpt>
      <trkpt lat="41.8718530" lon="-8.8727960">
        <ele>6.6</ele>
        <time>2021-05-18T15:46:47Z</time>
      </trkpt>
      <trkpt lat="41.8718610" lon="-8.8728080">
        <ele>6.7</ele>
        <time>2021-05-18T15:46:48Z</time>
      </trkpt>
      <trkpt lat="41.8718710" lon="-8.8728370">
        <ele>6.7</ele>
        <time>2021-05-18T15:46:49Z</time>
      </trkpt>
      <trkpt lat="41.8718750" lon="-8.8728460">
        <ele>6.7</ele>
        <time>2021-05-18T15:46:50Z</time>
      </trkpt>
      <trkpt lat="41.8718790" lon="-8.8728560">
        <ele>6.7</ele>
        <time>2021-05-18T15:46:51Z</time>
      </trkpt>
      <trkpt lat="41.8718870" lon="-8.8728690">
        <ele>6.7</ele>
        <time>2021-05-18T15:46:52Z</time>
      </trkpt>
      <trkpt lat="41.8718930" lon="-8.8728770">
        <ele>6.7</ele>
        <time>2021-05-18T15:46:53Z</time>
      </trkpt>
      <trkpt lat="41.8718980" lon="-8.8728910">
        <ele>6.7</ele>
        <time>2021-05-18T15:46:54Z</time>
      </trkpt>
      <trkpt lat="41.8719000" lon="-8.8729090">
        <ele>6.8</ele>
        <time>2021-05-18T15:46:55Z</time>
      </trkpt>
      <trkpt lat="41.8719070" lon="-8.8729250">
        <ele>6.8</ele>
        <time>2021-05-18T15:46:56Z</time>
      </trkpt>
      <trkpt lat="41.8719190" lon="-8.8729420">
        <ele>6.8</ele>
        <time>2021-05-18T15:46:57Z</time>
      </trkpt>
      <trkpt lat="41.8719270" lon="-8.8729480">
        <ele>6.8</ele>
        <time>2021-05-18T15:46:58Z</time>
      </trkpt>
      <trkpt lat="41.8719340" lon="-8.8729550">
        <ele>6.8</ele>
        <time>2021-05-18T15:46:59Z</time>
      </trkpt>
      <trkpt lat="41.8719410" lon="-8.8729610">
        <ele>6.8</ele>
        <time>2021-05-18T15:47:00Z</time>
      </trkpt>
      <trkpt lat="41.8719530" lon="-8.8729680">
        <ele>6.8</ele>
        <time>2021-05-18T15:47:01Z</time>
      </trkpt>
      <trkpt lat="41.8719680" lon="-8.8729730">
        <ele>6.9</ele>
        <time>2021-05-18T15:47:02Z</time>
      </trkpt>
      <trkpt lat="41.8719770" lon="-8.8729730">
        <ele>6.9</ele>
        <time>2021-05-18T15:47:03Z</time>
      </trkpt>
      <trkpt lat="41.8719840" lon="-8.8729820">
        <ele>6.9</ele>
        <time>2021-05-18T15:47:04Z</time>
      </trkpt>
      <trkpt lat="41.8719820" lon="-8.8729810">
        <ele>6.9</ele>
        <time>2021-05-18T15:47:05Z</time>
      </trkpt>
      <trkpt lat="41.8719950" lon="-8.8729850">
        <ele>6.9</ele>
        <time>2021-05-18T15:47:06Z</time>
      </trkpt>
      <trkpt lat="41.8720130" lon="-8.8729860">
        <ele>6.9</ele>
        <time>2021-05-18T15:47:07Z</time>
      </trkpt>
      <trkpt lat="41.8720280" lon="-8.8729860">
        <ele>6.9</ele>
        <time>2021-05-18T15:47:08Z</time>
      </trkpt>
      <trkpt lat="41.8720390" lon="-8.8729940">
        <ele>6.9</ele>
        <time>2021-05-18T15:47:10Z</time>
      </trkpt>
      <trkpt lat="41.8720480" lon="-8.8729960">
        <ele>6.9</ele>
        <time>2021-05-18T15:47:11Z</time>
      </trkpt>
      <trkpt lat="41.8720530" lon="-8.8730020">
        <ele>6.9</ele>
        <time>2021-05-18T15:47:12Z</time>
      </trkpt>
      <trkpt lat="41.8720840" lon="-8.8730120">
        <ele>7.0</ele>
        <time>2021-05-18T15:47:13Z</time>
      </trkpt>
      <trkpt lat="41.8720950" lon="-8.8730170">
        <ele>7.0</ele>
        <time>2021-05-18T15:47:14Z</time>
      </trkpt>
      <trkpt lat="41.8721280" lon="-8.8730260">
        <ele>7.0</ele>
        <time>2021-05-18T15:47:15Z</time>
      </trkpt>
      <trkpt lat="41.8721390" lon="-8.8730310">
        <ele>7.0</ele>
        <time>2021-05-18T15:47:16Z</time>
      </trkpt>
      <trkpt lat="41.8721690" lon="-8.8730470">
        <ele>7.0</ele>
        <time>2021-05-18T15:47:17Z</time>
      </trkpt>
      <trkpt lat="41.8721750" lon="-8.8730520">
        <ele>7.0</ele>
        <time>2021-05-18T15:47:18Z</time>
      </trkpt>
      <trkpt lat="41.8721870" lon="-8.8730700">
        <ele>6.9</ele>
        <time>2021-05-18T15:47:19Z</time>
      </trkpt>
      <trkpt lat="41.8721990" lon="-8.8730880">
        <ele>6.9</ele>
        <time>2021-05-18T15:47:20Z</time>
      </trkpt>
      <trkpt lat="41.8722210" lon="-8.8731140">
        <ele>6.9</ele>
        <time>2021-05-18T15:47:21Z</time>
      </trkpt>
      <trkpt lat="41.8722270" lon="-8.8731210">
        <ele>6.9</ele>
        <time>2021-05-18T15:47:22Z</time>
      </trkpt>
      <trkpt lat="41.8722380" lon="-8.8731420">
        <ele>6.9</ele>
        <time>2021-05-18T15:47:23Z</time>
      </trkpt>
      <trkpt lat="41.8722490" lon="-8.8731580">
        <ele>6.9</ele>
        <time>2021-05-18T15:47:24Z</time>
      </trkpt>
      <trkpt lat="41.8722680" lon="-8.8731870">
        <ele>6.9</ele>
        <time>2021-05-18T15:47:25Z</time>
      </trkpt>
      <trkpt lat="41.8722710" lon="-8.8731980">
        <ele>6.9</ele>
        <time>2021-05-18T15:47:26Z</time>
      </trkpt>
      <trkpt lat="41.8722820" lon="-8.8732120">
        <ele>6.9</ele>
        <time>2021-05-18T15:47:27Z</time>
      </trkpt>
      <trkpt lat="41.8722940" lon="-8.8732270">
        <ele>6.9</ele>
        <time>2021-05-18T15:47:28Z</time>
      </trkpt>
      <trkpt lat="41.8723030" lon="-8.8732500">
        <ele>6.9</ele>
        <time>2021-05-18T15:47:29Z</time>
      </trkpt>
      <trkpt lat="41.8723130" lon="-8.8732650">
        <ele>6.9</ele>
        <time>2021-05-18T15:47:30Z</time>
      </trkpt>
      <trkpt lat="41.8723240" lon="-8.8732820">
        <ele>6.9</ele>
        <time>2021-05-18T15:47:31Z</time>
      </trkpt>
      <trkpt lat="41.8723370" lon="-8.8732940">
        <ele>6.9</ele>
        <time>2021-05-18T15:47:32Z</time>
      </trkpt>
      <trkpt lat="41.8723500" lon="-8.8733080">
        <ele>6.9</ele>
        <time>2021-05-18T15:47:33Z</time>
      </trkpt>
      <trkpt lat="41.8723580" lon="-8.8733220">
        <ele>6.9</ele>
        <time>2021-05-18T15:47:34Z</time>
      </trkpt>
      <trkpt lat="41.8723670" lon="-8.8733350">
        <ele>7.0</ele>
        <time>2021-05-18T15:47:35Z</time>
      </trkpt>
      <trkpt lat="41.8723770" lon="-8.8733510">
        <ele>7.0</ele>
        <time>2021-05-18T15:47:36Z</time>
      </trkpt>
      <trkpt lat="41.8723850" lon="-8.8733640">
        <ele>7.0</ele>
        <time>2021-05-18T15:47:37Z</time>
      </trkpt>
      <trkpt lat="41.8723970" lon="-8.8733770">
        <ele>7.0</ele>
        <time>2021-05-18T15:47:38Z</time>
      </trkpt>
      <trkpt lat="41.8724060" lon="-8.8733910">
        <ele>7.0</ele>
        <time>2021-05-18T15:47:39Z</time>
      </trkpt>
      <trkpt lat="41.8724190" lon="-8.8734030">
        <ele>7.1</ele>
        <time>2021-05-18T15:47:40Z</time>
      </trkpt>
      <trkpt lat="41.8724310" lon="-8.8734150">
        <ele>7.1</ele>
        <time>2021-05-18T15:47:41Z</time>
      </trkpt>
      <trkpt lat="41.8724420" lon="-8.8734270">
        <ele>7.1</ele>
        <time>2021-05-18T15:47:42Z</time>
      </trkpt>
      <trkpt lat="41.8724510" lon="-8.8734470">
        <ele>7.2</ele>
        <time>2021-05-18T15:47:43Z</time>
      </trkpt>
      <trkpt lat="41.8724610" lon="-8.8734590">
        <ele>7.2</ele>
        <time>2021-05-18T15:47:44Z</time>
      </trkpt>
      <trkpt lat="41.8724730" lon="-8.8734750">
        <ele>7.2</ele>
        <time>2021-05-18T15:47:45Z</time>
      </trkpt>
      <trkpt lat="41.8724830" lon="-8.8734860">
        <ele>7.2</ele>
        <time>2021-05-18T15:47:46Z</time>
      </trkpt>
      <trkpt lat="41.8724960" lon="-8.8734970">
        <ele>7.3</ele>
        <time>2021-05-18T15:47:47Z</time>
      </trkpt>
      <trkpt lat="41.8725030" lon="-8.8735130">
        <ele>7.3</ele>
        <time>2021-05-18T15:47:48Z</time>
      </trkpt>
      <trkpt lat="41.8725100" lon="-8.8735340">
        <ele>7.3</ele>
        <time>2021-05-18T15:47:49Z</time>
      </trkpt>
      <trkpt lat="41.8725180" lon="-8.8735510">
        <ele>7.3</ele>
        <time>2021-05-18T15:47:50Z</time>
      </trkpt>
      <trkpt lat="41.8725270" lon="-8.8735620">
        <ele>7.4</ele>
        <time>2021-05-18T15:47:51Z</time>
      </trkpt>
      <trkpt lat="41.8725380" lon="-8.8735760">
        <ele>7.4</ele>
        <time>2021-05-18T15:47:52Z</time>
      </trkpt>
      <trkpt lat="41.8725440" lon="-8.8735960">
        <ele>7.4</ele>
        <time>2021-05-18T15:47:53Z</time>
      </trkpt>
      <trkpt lat="41.8725540" lon="-8.8736140">
        <ele>7.4</ele>
        <time>2021-05-18T15:47:54Z</time>
      </trkpt>
      <trkpt lat="41.8725600" lon="-8.8736330">
        <ele>7.4</ele>
        <time>2021-05-18T15:47:55Z</time>
      </trkpt>
      <trkpt lat="41.8725650" lon="-8.8736510">
        <ele>7.5</ele>
        <time>2021-05-18T15:47:56Z</time>
      </trkpt>
      <trkpt lat="41.8725720" lon="-8.8736680">
        <ele>7.5</ele>
        <time>2021-05-18T15:47:57Z</time>
      </trkpt>
      <trkpt lat="41.8725790" lon="-8.8736830">
        <ele>7.5</ele>
        <time>2021-05-18T15:47:58Z</time>
      </trkpt>
      <trkpt lat="41.8725890" lon="-8.8737090">
        <ele>7.5</ele>
        <time>2021-05-18T15:47:59Z</time>
      </trkpt>
      <trkpt lat="41.8725940" lon="-8.8737190">
        <ele>7.5</ele>
        <time>2021-05-18T15:48:00Z</time>
      </trkpt>
      <trkpt lat="41.8725990" lon="-8.8737290">
        <ele>7.5</ele>
        <time>2021-05-18T15:48:01Z</time>
      </trkpt>
      <trkpt lat="41.8726040" lon="-8.8737500">
        <ele>7.6</ele>
        <time>2021-05-18T15:48:02Z</time>
      </trkpt>
      <trkpt lat="41.8726120" lon="-8.8737630">
        <ele>7.6</ele>
        <time>2021-05-18T15:48:03Z</time>
      </trkpt>
      <trkpt lat="41.8726140" lon="-8.8737850">
        <ele>7.6</ele>
        <time>2021-05-18T15:48:04Z</time>
      </trkpt>
      <trkpt lat="41.8726180" lon="-8.8738020">
        <ele>7.6</ele>
        <time>2021-05-18T15:48:05Z</time>
      </trkpt>
      <trkpt lat="41.8726260" lon="-8.8738200">
        <ele>7.6</ele>
        <time>2021-05-18T15:48:06Z</time>
      </trkpt>
      <trkpt lat="41.8726300" lon="-8.8738370">
        <ele>7.6</ele>
        <time>2021-05-18T15:48:07Z</time>
      </trkpt>
      <trkpt lat="41.8726340" lon="-8.8738550">
        <ele>7.6</ele>
        <time>2021-05-18T15:48:08Z</time>
      </trkpt>
      <trkpt lat="41.8726370" lon="-8.8738750">
        <ele>7.6</ele>
        <time>2021-05-18T15:48:09Z</time>
      </trkpt>
      <trkpt lat="41.8726410" lon="-8.8738930">
        <ele>7.6</ele>
        <time>2021-05-18T15:48:10Z</time>
      </trkpt>
      <trkpt lat="41.8726420" lon="-8.8739130">
        <ele>7.6</ele>
        <time>2021-05-18T15:48:11Z</time>
      </trkpt>
      <trkpt lat="41.8726430" lon="-8.8739330">
        <ele>7.6</ele>
        <time>2021-05-18T15:48:12Z</time>
      </trkpt>
      <trkpt lat="41.8726440" lon="-8.8739510">
        <ele>7.6</ele>
        <time>2021-05-18T15:48:13Z</time>
      </trkpt>
      <trkpt lat="41.8726480" lon="-8.8739720">
        <ele>7.7</ele>
        <time>2021-05-18T15:48:14Z</time>
      </trkpt>
      <trkpt lat="41.8726450" lon="-8.8739940">
        <ele>7.7</ele>
        <time>2021-05-18T15:48:15Z</time>
      </trkpt>
      <trkpt lat="41.8726480" lon="-8.8740130">
        <ele>7.7</ele>
        <time>2021-05-18T15:48:16Z</time>
      </trkpt>
      <trkpt lat="41.8726540" lon="-8.8740320">
        <ele>7.7</ele>
        <time>2021-05-18T15:48:17Z</time>
      </trkpt>
      <trkpt lat="41.8726610" lon="-8.8740500">
        <ele>7.7</ele>
        <time>2021-05-18T15:48:18Z</time>
      </trkpt>
      <trkpt lat="41.8726640" lon="-8.8740670">
        <ele>7.7</ele>
        <time>2021-05-18T15:48:19Z</time>
      </trkpt>
      <trkpt lat="41.8726700" lon="-8.8740840">
        <ele>7.7</ele>
        <time>2021-05-18T15:48:20Z</time>
      </trkpt>
      <trkpt lat="41.8726740" lon="-8.8741020">
        <ele>7.7</ele>
        <time>2021-05-18T15:48:21Z</time>
      </trkpt>
      <trkpt lat="41.8726850" lon="-8.8741270">
        <ele>7.7</ele>
        <time>2021-05-18T15:48:22Z</time>
      </trkpt>
      <trkpt lat="41.8726910" lon="-8.8741360">
        <ele>7.7</ele>
        <time>2021-05-18T15:48:23Z</time>
      </trkpt>
      <trkpt lat="41.8726960" lon="-8.8741450">
        <ele>7.7</ele>
        <time>2021-05-18T15:48:24Z</time>
      </trkpt>
      <trkpt lat="41.8727100" lon="-8.8741700">
        <ele>7.7</ele>
        <time>2021-05-18T15:48:25Z</time>
      </trkpt>
      <trkpt lat="41.8727160" lon="-8.8741780">
        <ele>7.7</ele>
        <time>2021-05-18T15:48:26Z</time>
      </trkpt>
      <trkpt lat="41.8727230" lon="-8.8741870">
        <ele>7.7</ele>
        <time>2021-05-18T15:48:27Z</time>
      </trkpt>
      <trkpt lat="41.8727320" lon="-8.8742120">
        <ele>7.7</ele>
        <time>2021-05-18T15:48:28Z</time>
      </trkpt>
      <trkpt lat="41.8727330" lon="-8.8742230">
        <ele>7.7</ele>
        <time>2021-05-18T15:48:29Z</time>
      </trkpt>
      <trkpt lat="41.8727350" lon="-8.8742330">
        <ele>7.7</ele>
        <time>2021-05-18T15:48:30Z</time>
      </trkpt>
      <trkpt lat="41.8727520" lon="-8.8742420">
        <ele>7.7</ele>
        <time>2021-05-18T15:48:31Z</time>
      </trkpt>
      <trkpt lat="41.8727560" lon="-8.8742580">
        <ele>7.7</ele>
        <time>2021-05-18T15:48:32Z</time>
      </trkpt>
      <trkpt lat="41.8727730" lon="-8.8742640">
        <ele>7.7</ele>
        <time>2021-05-18T15:48:33Z</time>
      </trkpt>
      <trkpt lat="41.8727880" lon="-8.8742680">
        <ele>7.7</ele>
        <time>2021-05-18T15:48:34Z</time>
      </trkpt>
      <trkpt lat="41.8728040" lon="-8.8742700">
        <ele>7.7</ele>
        <time>2021-05-18T15:48:35Z</time>
      </trkpt>
      <trkpt lat="41.8728210" lon="-8.8742670">
        <ele>7.7</ele>
        <time>2021-05-18T15:48:36Z</time>
      </trkpt>
      <trkpt lat="41.8728370" lon="-8.8742640">
        <ele>7.7</ele>
        <time>2021-05-18T15:48:37Z</time>
      </trkpt>
      <trkpt lat="41.8728470" lon="-8.8742730">
        <ele>7.7</ele>
        <time>2021-05-18T15:48:38Z</time>
      </trkpt>
      <trkpt lat="41.8728680" lon="-8.8742840">
        <ele>7.7</ele>
        <time>2021-05-18T15:48:39Z</time>
      </trkpt>
      <trkpt lat="41.8728770" lon="-8.8742900">
        <ele>7.7</ele>
        <time>2021-05-18T15:48:40Z</time>
      </trkpt>
      <trkpt lat="41.8728850" lon="-8.8742970">
        <ele>7.7</ele>
        <time>2021-05-18T15:48:41Z</time>
      </trkpt>
      <trkpt lat="41.8728950" lon="-8.8743110">
        <ele>7.7</ele>
        <time>2021-05-18T15:48:42Z</time>
      </trkpt>
      <trkpt lat="41.8729020" lon="-8.8743250">
        <ele>7.7</ele>
        <time>2021-05-18T15:48:43Z</time>
      </trkpt>
      <trkpt lat="41.8729110" lon="-8.8743390">
        <ele>7.7</ele>
        <time>2021-05-18T15:48:44Z</time>
      </trkpt>
      <trkpt lat="41.8729210" lon="-8.8743520">
        <ele>7.7</ele>
        <time>2021-05-18T15:48:45Z</time>
      </trkpt>
      <trkpt lat="41.8729280" lon="-8.8743710">
        <ele>7.7</ele>
        <time>2021-05-18T15:48:46Z</time>
      </trkpt>
      <trkpt lat="41.8729370" lon="-8.8743850">
        <ele>7.7</ele>
        <time>2021-05-18T15:48:47Z</time>
      </trkpt>
      <trkpt lat="41.8729480" lon="-8.8744200">
        <ele>7.7</ele>
        <time>2021-05-18T15:48:48Z</time>
      </trkpt>
      <trkpt lat="41.8729550" lon="-8.8744450">
        <ele>7.7</ele>
        <time>2021-05-18T15:48:49Z</time>
      </trkpt>
      <trkpt lat="41.8729570" lon="-8.8744560">
        <ele>7.7</ele>
        <time>2021-05-18T15:48:50Z</time>
      </trkpt>
      <trkpt lat="41.8729580" lon="-8.8744680">
        <ele>7.6</ele>
        <time>2021-05-18T15:48:51Z</time>
      </trkpt>
      <trkpt lat="41.8729610" lon="-8.8744830">
        <ele>7.6</ele>
        <time>2021-05-18T15:48:52Z</time>
      </trkpt>
      <trkpt lat="41.8729700" lon="-8.8744930">
        <ele>7.6</ele>
        <time>2021-05-18T15:48:53Z</time>
      </trkpt>
      <trkpt lat="41.8729820" lon="-8.8745010">
        <ele>7.6</ele>
        <time>2021-05-18T15:48:54Z</time>
      </trkpt>
      <trkpt lat="41.8729950" lon="-8.8745080">
        <ele>7.6</ele>
        <time>2021-05-18T15:48:55Z</time>
      </trkpt>
      <trkpt lat="41.8730070" lon="-8.8745180">
        <ele>7.6</ele>
        <time>2021-05-18T15:48:56Z</time>
      </trkpt>
      <trkpt lat="41.8730250" lon="-8.8745320">
        <ele>7.6</ele>
        <time>2021-05-18T15:48:57Z</time>
      </trkpt>
      <trkpt lat="41.8730320" lon="-8.8745380">
        <ele>7.6</ele>
        <time>2021-05-18T15:48:58Z</time>
      </trkpt>
      <trkpt lat="41.8730400" lon="-8.8745430">
        <ele>7.6</ele>
        <time>2021-05-18T15:48:59Z</time>
      </trkpt>
      <trkpt lat="41.8730560" lon="-8.8745630">
        <ele>7.6</ele>
        <time>2021-05-18T15:49:00Z</time>
      </trkpt>
      <trkpt lat="41.8730630" lon="-8.8745680">
        <ele>7.6</ele>
        <time>2021-05-18T15:49:01Z</time>
      </trkpt>
      <trkpt lat="41.8730710" lon="-8.8745730">
        <ele>7.6</ele>
        <time>2021-05-18T15:49:02Z</time>
      </trkpt>
      <trkpt lat="41.8730850" lon="-8.8745820">
        <ele>7.6</ele>
        <time>2021-05-18T15:49:03Z</time>
      </trkpt>
      <trkpt lat="41.8730960" lon="-8.8745910">
        <ele>7.6</ele>
        <time>2021-05-18T15:49:04Z</time>
      </trkpt>
      <trkpt lat="41.8731070" lon="-8.8746000">
        <ele>7.6</ele>
        <time>2021-05-18T15:49:06Z</time>
      </trkpt>
      <trkpt lat="41.8731170" lon="-8.8746160">
        <ele>7.6</ele>
        <time>2021-05-18T15:49:07Z</time>
      </trkpt>
      <trkpt lat="41.8731240" lon="-8.8746310">
        <ele>7.6</ele>
        <time>2021-05-18T15:49:08Z</time>
      </trkpt>
      <trkpt lat="41.8731350" lon="-8.8746420">
        <ele>7.6</ele>
        <time>2021-05-18T15:49:09Z</time>
      </trkpt>
      <trkpt lat="41.8731490" lon="-8.8746410">
        <ele>7.6</ele>
        <time>2021-05-18T15:49:10Z</time>
      </trkpt>
      <trkpt lat="41.8731520" lon="-8.8746420">
        <ele>7.6</ele>
        <time>2021-05-18T15:49:11Z</time>
      </trkpt>
      <trkpt lat="41.8731560" lon="-8.8746450">
        <ele>7.6</ele>
        <time>2021-05-18T15:49:12Z</time>
      </trkpt>
      <trkpt lat="41.8731490" lon="-8.8746400">
        <ele>7.6</ele>
        <time>2021-05-18T15:49:13Z</time>
      </trkpt>
      <trkpt lat="41.8731420" lon="-8.8746410">
        <ele>7.6</ele>
        <time>2021-05-18T15:49:14Z</time>
      </trkpt>
      <trkpt lat="41.8731380" lon="-8.8746370">
        <ele>7.6</ele>
        <time>2021-05-18T15:49:15Z</time>
      </trkpt>
      <trkpt lat="41.8731360" lon="-8.8746360">
        <ele>7.6</ele>
        <time>2021-05-18T15:49:16Z</time>
      </trkpt>
      <trkpt lat="41.8731410" lon="-8.8746480">
        <ele>7.6</ele>
        <time>2021-05-18T15:49:17Z</time>
      </trkpt>
      <trkpt lat="41.8731420" lon="-8.8746580">
        <ele>7.6</ele>
        <time>2021-05-18T15:49:18Z</time>
      </trkpt>
      <trkpt lat="41.8731480" lon="-8.8746730">
        <ele>7.6</ele>
        <time>2021-05-18T15:49:19Z</time>
      </trkpt>
      <trkpt lat="41.8731540" lon="-8.8746800">
        <ele>7.6</ele>
        <time>2021-05-18T15:49:20Z</time>
      </trkpt>
      <trkpt lat="41.8731620" lon="-8.8746910">
        <ele>7.6</ele>
        <time>2021-05-18T15:49:21Z</time>
      </trkpt>
      <trkpt lat="41.8731730" lon="-8.8746970">
        <ele>7.6</ele>
        <time>2021-05-18T15:49:22Z</time>
      </trkpt>
      <trkpt lat="41.8731800" lon="-8.8747040">
        <ele>7.6</ele>
        <time>2021-05-18T15:49:23Z</time>
      </trkpt>
      <trkpt lat="41.8731990" lon="-8.8747230">
        <ele>7.6</ele>
        <time>2021-05-18T15:49:24Z</time>
      </trkpt>
      <trkpt lat="41.8732050" lon="-8.8747270">
        <ele>7.6</ele>
        <time>2021-05-18T15:49:25Z</time>
      </trkpt>
      <trkpt lat="41.8732100" lon="-8.8747320">
        <ele>7.6</ele>
        <time>2021-05-18T15:49:26Z</time>
      </trkpt>
      <trkpt lat="41.8732240" lon="-8.8747490">
        <ele>7.6</ele>
        <time>2021-05-18T15:49:27Z</time>
      </trkpt>
      <trkpt lat="41.8732310" lon="-8.8747580">
        <ele>7.6</ele>
        <time>2021-05-18T15:49:28Z</time>
      </trkpt>
      <trkpt lat="41.8732380" lon="-8.8747660">
        <ele>7.7</ele>
        <time>2021-05-18T15:49:29Z</time>
      </trkpt>
      <trkpt lat="41.8732490" lon="-8.8747790">
        <ele>7.7</ele>
        <time>2021-05-18T15:49:30Z</time>
      </trkpt>
      <trkpt lat="41.8732610" lon="-8.8747920">
        <ele>7.7</ele>
        <time>2021-05-18T15:49:31Z</time>
      </trkpt>
      <trkpt lat="41.8732760" lon="-8.8747980">
        <ele>7.7</ele>
        <time>2021-05-18T15:49:32Z</time>
      </trkpt>
      <trkpt lat="41.8732890" lon="-8.8748100">
        <ele>7.7</ele>
        <time>2021-05-18T15:49:33Z</time>
      </trkpt>
      <trkpt lat="41.8733020" lon="-8.8748220">
        <ele>7.7</ele>
        <time>2021-05-18T15:49:34Z</time>
      </trkpt>
      <trkpt lat="41.8733160" lon="-8.8748280">
        <ele>7.7</ele>
        <time>2021-05-18T15:49:35Z</time>
      </trkpt>
      <trkpt lat="41.8733320" lon="-8.8748370">
        <ele>7.7</ele>
        <time>2021-05-18T15:49:36Z</time>
      </trkpt>
      <trkpt lat="41.8733450" lon="-8.8748470">
        <ele>7.7</ele>
        <time>2021-05-18T15:49:37Z</time>
      </trkpt>
      <trkpt lat="41.8733580" lon="-8.8748540">
        <ele>7.7</ele>
        <time>2021-05-18T15:49:38Z</time>
      </trkpt>
      <trkpt lat="41.8733710" lon="-8.8748620">
        <ele>7.7</ele>
        <time>2021-05-18T15:49:39Z</time>
      </trkpt>
      <trkpt lat="41.8733830" lon="-8.8748700">
        <ele>7.7</ele>
        <time>2021-05-18T15:49:40Z</time>
      </trkpt>
      <trkpt lat="41.8733960" lon="-8.8748750">
        <ele>7.7</ele>
        <time>2021-05-18T15:49:41Z</time>
      </trkpt>
      <trkpt lat="41.8734080" lon="-8.8748830">
        <ele>7.7</ele>
        <time>2021-05-18T15:49:42Z</time>
      </trkpt>
      <trkpt lat="41.8734200" lon="-8.8748980">
        <ele>7.8</ele>
        <time>2021-05-18T15:49:43Z</time>
      </trkpt>
      <trkpt lat="41.8734320" lon="-8.8749060">
        <ele>7.8</ele>
        <time>2021-05-18T15:49:44Z</time>
      </trkpt>
      <trkpt lat="41.8734460" lon="-8.8749140">
        <ele>7.8</ele>
        <time>2021-05-18T15:49:45Z</time>
      </trkpt>
      <trkpt lat="41.8734580" lon="-8.8749210">
        <ele>7.8</ele>
        <time>2021-05-18T15:49:46Z</time>
      </trkpt>
      <trkpt lat="41.8734700" lon="-8.8749340">
        <ele>7.8</ele>
        <time>2021-05-18T15:49:47Z</time>
      </trkpt>
      <trkpt lat="41.8734820" lon="-8.8749490">
        <ele>7.8</ele>
        <time>2021-05-18T15:49:48Z</time>
      </trkpt>
      <trkpt lat="41.8734970" lon="-8.8749530">
        <ele>7.8</ele>
        <time>2021-05-18T15:49:49Z</time>
      </trkpt>
      <trkpt lat="41.8735090" lon="-8.8749710">
        <ele>7.9</ele>
        <time>2021-05-18T15:49:50Z</time>
      </trkpt>
      <trkpt lat="41.8735230" lon="-8.8749770">
        <ele>7.9</ele>
        <time>2021-05-18T15:49:51Z</time>
      </trkpt>
      <trkpt lat="41.8735350" lon="-8.8749860">
        <ele>7.9</ele>
        <time>2021-05-18T15:49:52Z</time>
      </trkpt>
      <trkpt lat="41.8735510" lon="-8.8749870">
        <ele>7.9</ele>
        <time>2021-05-18T15:49:53Z</time>
      </trkpt>
      <trkpt lat="41.8735650" lon="-8.8749950">
        <ele>7.9</ele>
        <time>2021-05-18T15:49:54Z</time>
      </trkpt>
      <trkpt lat="41.8735780" lon="-8.8750080">
        <ele>8.0</ele>
        <time>2021-05-18T15:49:55Z</time>
      </trkpt>
      <trkpt lat="41.8735900" lon="-8.8750140">
        <ele>8.0</ele>
        <time>2021-05-18T15:49:56Z</time>
      </trkpt>
      <trkpt lat="41.8736040" lon="-8.8750190">
        <ele>8.0</ele>
        <time>2021-05-18T15:49:57Z</time>
      </trkpt>
      <trkpt lat="41.8736180" lon="-8.8750250">
        <ele>8.0</ele>
        <time>2021-05-18T15:49:58Z</time>
      </trkpt>
      <trkpt lat="41.8736320" lon="-8.8750300">
        <ele>8.0</ele>
        <time>2021-05-18T15:49:59Z</time>
      </trkpt>
      <trkpt lat="41.8736450" lon="-8.8750390">
        <ele>8.0</ele>
        <time>2021-05-18T15:50:00Z</time>
      </trkpt>
      <trkpt lat="41.8736580" lon="-8.8750440">
        <ele>8.0</ele>
        <time>2021-05-18T15:50:01Z</time>
      </trkpt>
      <trkpt lat="41.8736600" lon="-8.8750440">
        <ele>8.0</ele>
        <time>2021-05-18T15:50:02Z</time>
      </trkpt>
      <trkpt lat="41.8736720" lon="-8.8750550">
        <ele>8.0</ele>
        <time>2021-05-18T15:50:03Z</time>
      </trkpt>
      <trkpt lat="41.8736770" lon="-8.8750620">
        <ele>8.0</ele>
        <time>2021-05-18T15:50:04Z</time>
      </trkpt>
      <trkpt lat="41.8736850" lon="-8.8750690">
        <ele>8.0</ele>
        <time>2021-05-18T15:50:05Z</time>
      </trkpt>
      <trkpt lat="41.8736960" lon="-8.8750810">
        <ele>8.0</ele>
        <time>2021-05-18T15:50:06Z</time>
      </trkpt>
      <trkpt lat="41.8737060" lon="-8.8750840">
        <ele>8.0</ele>
        <time>2021-05-18T15:50:07Z</time>
      </trkpt>
      <trkpt lat="41.8737120" lon="-8.8750850">
        <ele>8.0</ele>
        <time>2021-05-18T15:50:08Z</time>
      </trkpt>
      <trkpt lat="41.8737270" lon="-8.8750930">
        <ele>8.0</ele>
        <time>2021-05-18T15:50:09Z</time>
      </trkpt>
      <trkpt lat="41.8737370" lon="-8.8751010">
        <ele>8.0</ele>
        <time>2021-05-18T15:50:10Z</time>
      </trkpt>
      <trkpt lat="41.8737480" lon="-8.8751040">
        <ele>8.0</ele>
        <time>2021-05-18T15:50:11Z</time>
      </trkpt>
      <trkpt lat="41.8737570" lon="-8.8751110">
        <ele>8.0</ele>
        <time>2021-05-18T15:50:12Z</time>
      </trkpt>
      <trkpt lat="41.8737710" lon="-8.8751100">
        <ele>8.0</ele>
        <time>2021-05-18T15:50:13Z</time>
      </trkpt>
      <trkpt lat="41.8737760" lon="-8.8751190">
        <ele>8.0</ele>
        <time>2021-05-18T15:50:14Z</time>
      </trkpt>
      <trkpt lat="41.8737900" lon="-8.8751270">
        <ele>8.0</ele>
        <time>2021-05-18T15:50:15Z</time>
      </trkpt>
      <trkpt lat="41.8738010" lon="-8.8751270">
        <ele>8.0</ele>
        <time>2021-05-18T15:50:16Z</time>
      </trkpt>
      <trkpt lat="41.8738230" lon="-8.8751400">
        <ele>8.0</ele>
        <time>2021-05-18T15:50:17Z</time>
      </trkpt>
      <trkpt lat="41.8738300" lon="-8.8751410">
        <ele>8.0</ele>
        <time>2021-05-18T15:50:18Z</time>
      </trkpt>
      <trkpt lat="41.8738380" lon="-8.8751430">
        <ele>8.0</ele>
        <time>2021-05-18T15:50:19Z</time>
      </trkpt>
      <trkpt lat="41.8738500" lon="-8.8751460">
        <ele>8.0</ele>
        <time>2021-05-18T15:50:20Z</time>
      </trkpt>
      <trkpt lat="41.8738630" lon="-8.8751510">
        <ele>8.0</ele>
        <time>2021-05-18T15:50:21Z</time>
      </trkpt>
      <trkpt lat="41.8738690" lon="-8.8751540">
        <ele>7.9</ele>
        <time>2021-05-18T15:50:22Z</time>
      </trkpt>
      <trkpt lat="41.8738950" lon="-8.8751630">
        <ele>7.9</ele>
        <time>2021-05-18T15:50:23Z</time>
      </trkpt>
      <trkpt lat="41.8739060" lon="-8.8751680">
        <ele>7.9</ele>
        <time>2021-05-18T15:50:24Z</time>
      </trkpt>
      <trkpt lat="41.8739050" lon="-8.8751730">
        <ele>7.9</ele>
        <time>2021-05-18T15:50:25Z</time>
      </trkpt>
      <trkpt lat="41.8739170" lon="-8.8751820">
        <ele>7.8</ele>
        <time>2021-05-18T15:50:26Z</time>
      </trkpt>
      <trkpt lat="41.8739280" lon="-8.8751900">
        <ele>7.8</ele>
        <time>2021-05-18T15:50:27Z</time>
      </trkpt>
      <trkpt lat="41.8739490" lon="-8.8751950">
        <ele>7.8</ele>
        <time>2021-05-18T15:50:28Z</time>
      </trkpt>
      <trkpt lat="41.8739580" lon="-8.8751990">
        <ele>7.8</ele>
        <time>2021-05-18T15:50:29Z</time>
      </trkpt>
      <trkpt lat="41.8739660" lon="-8.8752020">
        <ele>7.7</ele>
        <time>2021-05-18T15:50:30Z</time>
      </trkpt>
      <trkpt lat="41.8739800" lon="-8.8752060">
        <ele>7.7</ele>
        <time>2021-05-18T15:50:31Z</time>
      </trkpt>
      <trkpt lat="41.8739920" lon="-8.8752050">
        <ele>7.7</ele>
        <time>2021-05-18T15:50:32Z</time>
      </trkpt>
      <trkpt lat="41.8740000" lon="-8.8752110">
        <ele>7.6</ele>
        <time>2021-05-18T15:50:33Z</time>
      </trkpt>
      <trkpt lat="41.8740160" lon="-8.8752200">
        <ele>7.6</ele>
        <time>2021-05-18T15:50:34Z</time>
      </trkpt>
      <trkpt lat="41.8740270" lon="-8.8752340">
        <ele>7.6</ele>
        <time>2021-05-18T15:50:35Z</time>
      </trkpt>
      <trkpt lat="41.8740490" lon="-8.8752420">
        <ele>7.5</ele>
        <time>2021-05-18T15:50:36Z</time>
      </trkpt>
      <trkpt lat="41.8740590" lon="-8.8752470">
        <ele>7.5</ele>
        <time>2021-05-18T15:50:37Z</time>
      </trkpt>
      <trkpt lat="41.8740680" lon="-8.8752510">
        <ele>7.4</ele>
        <time>2021-05-18T15:50:38Z</time>
      </trkpt>
      <trkpt lat="41.8740890" lon="-8.8752630">
        <ele>7.4</ele>
        <time>2021-05-18T15:50:39Z</time>
      </trkpt>
      <trkpt lat="41.8741020" lon="-8.8752660">
        <ele>7.3</ele>
        <time>2021-05-18T15:50:40Z</time>
      </trkpt>
      <trkpt lat="41.8741140" lon="-8.8752690">
        <ele>7.3</ele>
        <time>2021-05-18T15:50:41Z</time>
      </trkpt>
      <trkpt lat="41.8741170" lon="-8.8752710">
        <ele>7.3</ele>
        <time>2021-05-18T15:50:42Z</time>
      </trkpt>
      <trkpt lat="41.8741280" lon="-8.8752790">
        <ele>7.3</ele>
        <time>2021-05-18T15:50:43Z</time>
      </trkpt>
      <trkpt lat="41.8741420" lon="-8.8752860">
        <ele>7.2</ele>
        <time>2021-05-18T15:50:44Z</time>
      </trkpt>
      <trkpt lat="41.8741560" lon="-8.8752910">
        <ele>7.2</ele>
        <time>2021-05-18T15:50:45Z</time>
      </trkpt>
      <trkpt lat="41.8741740" lon="-8.8752980">
        <ele>7.2</ele>
        <time>2021-05-18T15:50:46Z</time>
      </trkpt>
      <trkpt lat="41.8741900" lon="-8.8753030">
        <ele>7.1</ele>
        <time>2021-05-18T15:50:47Z</time>
      </trkpt>
      <trkpt lat="41.8742050" lon="-8.8753130">
        <ele>7.1</ele>
        <time>2021-05-18T15:50:48Z</time>
      </trkpt>
      <trkpt lat="41.8742220" lon="-8.8753210">
        <ele>7.1</ele>
        <time>2021-05-18T15:50:49Z</time>
      </trkpt>
      <trkpt lat="41.8742360" lon="-8.8753340">
        <ele>7.0</ele>
        <time>2021-05-18T15:50:50Z</time>
      </trkpt>
      <trkpt lat="41.8742510" lon="-8.8753430">
        <ele>7.0</ele>
        <time>2021-05-18T15:50:51Z</time>
      </trkpt>
      <trkpt lat="41.8742670" lon="-8.8753500">
        <ele>7.0</ele>
        <time>2021-05-18T15:50:52Z</time>
      </trkpt>
      <trkpt lat="41.8742790" lon="-8.8753630">
        <ele>7.0</ele>
        <time>2021-05-18T15:50:53Z</time>
      </trkpt>
      <trkpt lat="41.8742920" lon="-8.8753720">
        <ele>7.0</ele>
        <time>2021-05-18T15:50:54Z</time>
      </trkpt>
      <trkpt lat="41.8743040" lon="-8.8753840">
        <ele>7.0</ele>
        <time>2021-05-18T15:50:55Z</time>
      </trkpt>
      <trkpt lat="41.8743150" lon="-8.8753920">
        <ele>7.0</ele>
        <time>2021-05-18T15:50:56Z</time>
      </trkpt>
      <trkpt lat="41.8743300" lon="-8.8753990">
        <ele>7.0</ele>
        <time>2021-05-18T15:50:57Z</time>
      </trkpt>
      <trkpt lat="41.8743430" lon="-8.8754050">
        <ele>7.0</ele>
        <time>2021-05-18T15:50:58Z</time>
      </trkpt>
      <trkpt lat="41.8743550" lon="-8.8754170">
        <ele>7.0</ele>
        <time>2021-05-18T15:50:59Z</time>
      </trkpt>
      <trkpt lat="41.8743690" lon="-8.8754260">
        <ele>7.0</ele>
        <time>2021-05-18T15:51:00Z</time>
      </trkpt>
      <trkpt lat="41.8743800" lon="-8.8754380">
        <ele>7.0</ele>
        <time>2021-05-18T15:51:01Z</time>
      </trkpt>
      <trkpt lat="41.8743940" lon="-8.8754470">
        <ele>7.0</ele>
        <time>2021-05-18T15:51:02Z</time>
      </trkpt>
      <trkpt lat="41.8744060" lon="-8.8754560">
        <ele>7.0</ele>
        <time>2021-05-18T15:51:03Z</time>
      </trkpt>
      <trkpt lat="41.8744170" lon="-8.8754670">
        <ele>7.0</ele>
        <time>2021-05-18T15:51:04Z</time>
      </trkpt>
      <trkpt lat="41.8744290" lon="-8.8754800">
        <ele>7.0</ele>
        <time>2021-05-18T15:51:05Z</time>
      </trkpt>
      <trkpt lat="41.8744420" lon="-8.8754890">
        <ele>7.0</ele>
        <time>2021-05-18T15:51:06Z</time>
      </trkpt>
      <trkpt lat="41.8744540" lon="-8.8755020">
        <ele>7.0</ele>
        <time>2021-05-18T15:51:07Z</time>
      </trkpt>
      <trkpt lat="41.8744630" lon="-8.8755140">
        <ele>7.0</ele>
        <time>2021-05-18T15:51:08Z</time>
      </trkpt>
      <trkpt lat="41.8744730" lon="-8.8755280">
        <ele>7.0</ele>
        <time>2021-05-18T15:51:09Z</time>
      </trkpt>
      <trkpt lat="41.8744850" lon="-8.8755430">
        <ele>7.0</ele>
        <time>2021-05-18T15:51:10Z</time>
      </trkpt>
      <trkpt lat="41.8744970" lon="-8.8755530">
        <ele>7.0</ele>
        <time>2021-05-18T15:51:11Z</time>
      </trkpt>
      <trkpt lat="41.8745070" lon="-8.8755660">
        <ele>7.0</ele>
        <time>2021-05-18T15:51:12Z</time>
      </trkpt>
      <trkpt lat="41.8745170" lon="-8.8755800">
        <ele>7.0</ele>
        <time>2021-05-18T15:51:13Z</time>
      </trkpt>
      <trkpt lat="41.8745290" lon="-8.8755910">
        <ele>7.0</ele>
        <time>2021-05-18T15:51:14Z</time>
      </trkpt>
      <trkpt lat="41.8745430" lon="-8.8756000">
        <ele>7.1</ele>
        <time>2021-05-18T15:51:15Z</time>
      </trkpt>
      <trkpt lat="41.8745560" lon="-8.8756080">
        <ele>7.1</ele>
        <time>2021-05-18T15:51:16Z</time>
      </trkpt>
      <trkpt lat="41.8745630" lon="-8.8756230">
        <ele>7.1</ele>
        <time>2021-05-18T15:51:17Z</time>
      </trkpt>
      <trkpt lat="41.8745750" lon="-8.8756350">
        <ele>7.1</ele>
        <time>2021-05-18T15:51:18Z</time>
      </trkpt>
      <trkpt lat="41.8745910" lon="-8.8756650">
        <ele>7.1</ele>
        <time>2021-05-18T15:51:19Z</time>
      </trkpt>
      <trkpt lat="41.8745950" lon="-8.8756750">
        <ele>7.1</ele>
        <time>2021-05-18T15:51:20Z</time>
      </trkpt>
      <trkpt lat="41.8746080" lon="-8.8756850">
        <ele>7.1</ele>
        <time>2021-05-18T15:51:21Z</time>
      </trkpt>
      <trkpt lat="41.8746150" lon="-8.8757020">
        <ele>7.1</ele>
        <time>2021-05-18T15:51:22Z</time>
      </trkpt>
      <trkpt lat="41.8746250" lon="-8.8757180">
        <ele>7.1</ele>
        <time>2021-05-18T15:51:23Z</time>
      </trkpt>
      <trkpt lat="41.8746330" lon="-8.8757330">
        <ele>7.1</ele>
        <time>2021-05-18T15:51:24Z</time>
      </trkpt>
      <trkpt lat="41.8746400" lon="-8.8757470">
        <ele>7.1</ele>
        <time>2021-05-18T15:51:25Z</time>
      </trkpt>
      <trkpt lat="41.8746490" lon="-8.8757620">
        <ele>7.1</ele>
        <time>2021-05-18T15:51:26Z</time>
      </trkpt>
      <trkpt lat="41.8746570" lon="-8.8757780">
        <ele>7.1</ele>
        <time>2021-05-18T15:51:27Z</time>
      </trkpt>
      <trkpt lat="41.8746640" lon="-8.8757980">
        <ele>7.2</ele>
        <time>2021-05-18T15:51:28Z</time>
      </trkpt>
      <trkpt lat="41.8746820" lon="-8.8758050">
        <ele>7.2</ele>
        <time>2021-05-18T15:51:29Z</time>
      </trkpt>
      <trkpt lat="41.8746910" lon="-8.8758180">
        <ele>7.2</ele>
        <time>2021-05-18T15:51:30Z</time>
      </trkpt>
      <trkpt lat="41.8746970" lon="-8.8758240">
        <ele>7.2</ele>
        <time>2021-05-18T15:51:31Z</time>
      </trkpt>
      <trkpt lat="41.8747050" lon="-8.8758300">
        <ele>7.2</ele>
        <time>2021-05-18T15:51:32Z</time>
      </trkpt>
      <trkpt lat="41.8747140" lon="-8.8758470">
        <ele>7.2</ele>
        <time>2021-05-18T15:51:33Z</time>
      </trkpt>
      <trkpt lat="41.8747250" lon="-8.8758590">
        <ele>7.2</ele>
        <time>2021-05-18T15:51:34Z</time>
      </trkpt>
      <trkpt lat="41.8747340" lon="-8.8758720">
        <ele>7.2</ele>
        <time>2021-05-18T15:51:35Z</time>
      </trkpt>
      <trkpt lat="41.8747410" lon="-8.8758840">
        <ele>7.2</ele>
        <time>2021-05-18T15:51:36Z</time>
      </trkpt>
      <trkpt lat="41.8747490" lon="-8.8758960">
        <ele>7.2</ele>
        <time>2021-05-18T15:51:37Z</time>
      </trkpt>
      <trkpt lat="41.8747530" lon="-8.8759070">
        <ele>7.2</ele>
        <time>2021-05-18T15:51:38Z</time>
      </trkpt>
      <trkpt lat="41.8747690" lon="-8.8759320">
        <ele>7.2</ele>
        <time>2021-05-18T15:51:39Z</time>
      </trkpt>
      <trkpt lat="41.8747770" lon="-8.8759390">
        <ele>7.2</ele>
        <time>2021-05-18T15:51:40Z</time>
      </trkpt>
      <trkpt lat="41.8747840" lon="-8.8759460">
        <ele>7.2</ele>
        <time>2021-05-18T15:51:41Z</time>
      </trkpt>
      <trkpt lat="41.8747970" lon="-8.8759690">
        <ele>7.2</ele>
        <time>2021-05-18T15:51:42Z</time>
      </trkpt>
      <trkpt lat="41.8748030" lon="-8.8759770">
        <ele>7.2</ele>
        <time>2021-05-18T15:51:43Z</time>
      </trkpt>
      <trkpt lat="41.8748080" lon="-8.8759860">
        <ele>7.2</ele>
        <time>2021-05-18T15:51:44Z</time>
      </trkpt>
      <trkpt lat="41.8748150" lon="-8.8759910">
        <ele>7.2</ele>
        <time>2021-05-18T15:51:45Z</time>
      </trkpt>
      <trkpt lat="41.8748230" lon="-8.8760140">
        <ele>7.2</ele>
        <time>2021-05-18T15:51:46Z</time>
      </trkpt>
      <trkpt lat="41.8748270" lon="-8.8760200">
        <ele>7.2</ele>
        <time>2021-05-18T15:51:47Z</time>
      </trkpt>
      <trkpt lat="41.8748370" lon="-8.8760360">
        <ele>7.2</ele>
        <time>2021-05-18T15:51:48Z</time>
      </trkpt>
      <trkpt lat="41.8748480" lon="-8.8760460">
        <ele>7.2</ele>
        <time>2021-05-18T15:51:49Z</time>
      </trkpt>
      <trkpt lat="41.8748640" lon="-8.8760680">
        <ele>7.2</ele>
        <time>2021-05-18T15:51:50Z</time>
      </trkpt>
      <trkpt lat="41.8748700" lon="-8.8760750">
        <ele>7.2</ele>
        <time>2021-05-18T15:51:51Z</time>
      </trkpt>
      <trkpt lat="41.8748750" lon="-8.8760820">
        <ele>7.2</ele>
        <time>2021-05-18T15:51:52Z</time>
      </trkpt>
      <trkpt lat="41.8748930" lon="-8.8761050">
        <ele>7.2</ele>
        <time>2021-05-18T15:51:53Z</time>
      </trkpt>
      <trkpt lat="41.8748990" lon="-8.8761140">
        <ele>7.2</ele>
        <time>2021-05-18T15:51:54Z</time>
      </trkpt>
      <trkpt lat="41.8749040" lon="-8.8761220">
        <ele>7.2</ele>
        <time>2021-05-18T15:51:55Z</time>
      </trkpt>
      <trkpt lat="41.8749210" lon="-8.8761430">
        <ele>7.2</ele>
        <time>2021-05-18T15:51:56Z</time>
      </trkpt>
      <trkpt lat="41.8749270" lon="-8.8761500">
        <ele>7.2</ele>
        <time>2021-05-18T15:51:57Z</time>
      </trkpt>
      <trkpt lat="41.8749330" lon="-8.8761580">
        <ele>7.2</ele>
        <time>2021-05-18T15:51:58Z</time>
      </trkpt>
      <trkpt lat="41.8749410" lon="-8.8761690">
        <ele>7.2</ele>
        <time>2021-05-18T15:51:59Z</time>
      </trkpt>
      <trkpt lat="41.8749550" lon="-8.8761830">
        <ele>7.2</ele>
        <time>2021-05-18T15:52:00Z</time>
      </trkpt>
      <trkpt lat="41.8749670" lon="-8.8762000">
        <ele>7.1</ele>
        <time>2021-05-18T15:52:01Z</time>
      </trkpt>
      <trkpt lat="41.8749760" lon="-8.8762080">
        <ele>7.1</ele>
        <time>2021-05-18T15:52:02Z</time>
      </trkpt>
      <trkpt lat="41.8749840" lon="-8.8762150">
        <ele>7.1</ele>
        <time>2021-05-18T15:52:03Z</time>
      </trkpt>
      <trkpt lat="41.8749940" lon="-8.8762280">
        <ele>7.1</ele>
        <time>2021-05-18T15:52:04Z</time>
      </trkpt>
      <trkpt lat="41.8750060" lon="-8.8762390">
        <ele>7.1</ele>
        <time>2021-05-18T15:52:05Z</time>
      </trkpt>
      <trkpt lat="41.8750120" lon="-8.8762510">
        <ele>7.1</ele>
        <time>2021-05-18T15:52:06Z</time>
      </trkpt>
      <trkpt lat="41.8750240" lon="-8.8762680">
        <ele>7.0</ele>
        <time>2021-05-18T15:52:07Z</time>
      </trkpt>
      <trkpt lat="41.8750460" lon="-8.8762790">
        <ele>7.0</ele>
        <time>2021-05-18T15:52:08Z</time>
      </trkpt>
      <trkpt lat="41.8750530" lon="-8.8762840">
        <ele>7.0</ele>
        <time>2021-05-18T15:52:09Z</time>
      </trkpt>
      <trkpt lat="41.8750600" lon="-8.8762900">
        <ele>7.0</ele>
        <time>2021-05-18T15:52:10Z</time>
      </trkpt>
      <trkpt lat="41.8750720" lon="-8.8762950">
        <ele>7.0</ele>
        <time>2021-05-18T15:52:11Z</time>
      </trkpt>
      <trkpt lat="41.8750910" lon="-8.8762990">
        <ele>7.0</ele>
        <time>2021-05-18T15:52:12Z</time>
      </trkpt>
      <trkpt lat="41.8751010" lon="-8.8763080">
        <ele>7.0</ele>
        <time>2021-05-18T15:52:13Z</time>
      </trkpt>
      <trkpt lat="41.8751160" lon="-8.8763180">
        <ele>6.9</ele>
        <time>2021-05-18T15:52:14Z</time>
      </trkpt>
      <trkpt lat="41.8751270" lon="-8.8763250">
        <ele>6.9</ele>
        <time>2021-05-18T15:52:15Z</time>
      </trkpt>
      <trkpt lat="41.8751450" lon="-8.8763300">
        <ele>6.9</ele>
        <time>2021-05-18T15:52:16Z</time>
      </trkpt>
      <trkpt lat="41.8751600" lon="-8.8763440">
        <ele>6.9</ele>
        <time>2021-05-18T15:52:17Z</time>
      </trkpt>
      <trkpt lat="41.8751710" lon="-8.8763510">
        <ele>6.9</ele>
        <time>2021-05-18T15:52:18Z</time>
      </trkpt>
      <trkpt lat="41.8751810" lon="-8.8763570">
        <ele>6.9</ele>
        <time>2021-05-18T15:52:19Z</time>
      </trkpt>
      <trkpt lat="41.8752030" lon="-8.8763680">
        <ele>6.9</ele>
        <time>2021-05-18T15:52:20Z</time>
      </trkpt>
      <trkpt lat="41.8752100" lon="-8.8763720">
        <ele>6.9</ele>
        <time>2021-05-18T15:52:21Z</time>
      </trkpt>
      <trkpt lat="41.8752180" lon="-8.8763770">
        <ele>6.9</ele>
        <time>2021-05-18T15:52:22Z</time>
      </trkpt>
      <trkpt lat="41.8752320" lon="-8.8763810">
        <ele>6.9</ele>
        <time>2021-05-18T15:52:23Z</time>
      </trkpt>
      <trkpt lat="41.8752450" lon="-8.8763890">
        <ele>6.9</ele>
        <time>2021-05-18T15:52:24Z</time>
      </trkpt>
      <trkpt lat="41.8752560" lon="-8.8763960">
        <ele>6.9</ele>
        <time>2021-05-18T15:52:25Z</time>
      </trkpt>
      <trkpt lat="41.8752730" lon="-8.8764040">
        <ele>6.9</ele>
        <time>2021-05-18T15:52:26Z</time>
      </trkpt>
      <trkpt lat="41.8752900" lon="-8.8764110">
        <ele>6.9</ele>
        <time>2021-05-18T15:52:27Z</time>
      </trkpt>
      <trkpt lat="41.8752990" lon="-8.8764180">
        <ele>6.9</ele>
        <time>2021-05-18T15:52:28Z</time>
      </trkpt>
      <trkpt lat="41.8753080" lon="-8.8764240">
        <ele>6.9</ele>
        <time>2021-05-18T15:52:29Z</time>
      </trkpt>
      <trkpt lat="41.8753320" lon="-8.8764350">
        <ele>6.9</ele>
        <time>2021-05-18T15:52:30Z</time>
      </trkpt>
      <trkpt lat="41.8753400" lon="-8.8764420">
        <ele>6.9</ele>
        <time>2021-05-18T15:52:31Z</time>
      </trkpt>
      <trkpt lat="41.8753480" lon="-8.8764490">
        <ele>6.9</ele>
        <time>2021-05-18T15:52:32Z</time>
      </trkpt>
      <trkpt lat="41.8753600" lon="-8.8764540">
        <ele>6.9</ele>
        <time>2021-05-18T15:52:33Z</time>
      </trkpt>
      <trkpt lat="41.8753800" lon="-8.8764630">
        <ele>6.9</ele>
        <time>2021-05-18T15:52:34Z</time>
      </trkpt>
      <trkpt lat="41.8753790" lon="-8.8764660">
        <ele>6.9</ele>
        <time>2021-05-18T15:52:35Z</time>
      </trkpt>
      <trkpt lat="41.8753930" lon="-8.8764770">
        <ele>6.9</ele>
        <time>2021-05-18T15:52:36Z</time>
      </trkpt>
      <trkpt lat="41.8754080" lon="-8.8764800">
        <ele>6.9</ele>
        <time>2021-05-18T15:52:37Z</time>
      </trkpt>
      <trkpt lat="41.8754280" lon="-8.8764880">
        <ele>6.9</ele>
        <time>2021-05-18T15:52:38Z</time>
      </trkpt>
      <trkpt lat="41.8754370" lon="-8.8764940">
        <ele>6.9</ele>
        <time>2021-05-18T15:52:39Z</time>
      </trkpt>
      <trkpt lat="41.8754470" lon="-8.8764990">
        <ele>6.9</ele>
        <time>2021-05-18T15:52:40Z</time>
      </trkpt>
      <trkpt lat="41.8754630" lon="-8.8765030">
        <ele>6.9</ele>
        <time>2021-05-18T15:52:41Z</time>
      </trkpt>
      <trkpt lat="41.8754670" lon="-8.8765080">
        <ele>6.9</ele>
        <time>2021-05-18T15:52:42Z</time>
      </trkpt>
      <trkpt lat="41.8754800" lon="-8.8765100">
        <ele>6.9</ele>
        <time>2021-05-18T15:52:43Z</time>
      </trkpt>
      <trkpt lat="41.8754910" lon="-8.8765180">
        <ele>6.9</ele>
        <time>2021-05-18T15:52:44Z</time>
      </trkpt>
      <trkpt lat="41.8755080" lon="-8.8765230">
        <ele>6.9</ele>
        <time>2021-05-18T15:52:45Z</time>
      </trkpt>
      <trkpt lat="41.8755210" lon="-8.8765300">
        <ele>6.9</ele>
        <time>2021-05-18T15:52:46Z</time>
      </trkpt>
      <trkpt lat="41.8755380" lon="-8.8765330">
        <ele>6.9</ele>
        <time>2021-05-18T15:52:47Z</time>
      </trkpt>
      <trkpt lat="41.8755520" lon="-8.8765410">
        <ele>6.9</ele>
        <time>2021-05-18T15:52:48Z</time>
      </trkpt>
      <trkpt lat="41.8755690" lon="-8.8765390">
        <ele>6.8</ele>
        <time>2021-05-18T15:52:49Z</time>
      </trkpt>
      <trkpt lat="41.8755860" lon="-8.8765430">
        <ele>6.8</ele>
        <time>2021-05-18T15:52:50Z</time>
      </trkpt>
      <trkpt lat="41.8756000" lon="-8.8765460">
        <ele>6.8</ele>
        <time>2021-05-18T15:52:51Z</time>
      </trkpt>
      <trkpt lat="41.8756180" lon="-8.8765480">
        <ele>6.8</ele>
        <time>2021-05-18T15:52:52Z</time>
      </trkpt>
      <trkpt lat="41.8756350" lon="-8.8765410">
        <ele>6.8</ele>
        <time>2021-05-18T15:52:53Z</time>
      </trkpt>
      <trkpt lat="41.8756490" lon="-8.8765460">
        <ele>6.8</ele>
        <time>2021-05-18T15:52:54Z</time>
      </trkpt>
      <trkpt lat="41.8756640" lon="-8.8765460">
        <ele>6.8</ele>
        <time>2021-05-18T15:52:55Z</time>
      </trkpt>
      <trkpt lat="41.8756660" lon="-8.8765440">
        <ele>6.8</ele>
        <time>2021-05-18T15:52:56Z</time>
      </trkpt>
      <trkpt lat="41.8756810" lon="-8.8765480">
        <ele>6.8</ele>
        <time>2021-05-18T15:52:57Z</time>
      </trkpt>
      <trkpt lat="41.8756920" lon="-8.8765530">
        <ele>6.8</ele>
        <time>2021-05-18T15:52:58Z</time>
      </trkpt>
      <trkpt lat="41.8757110" lon="-8.8765520">
        <ele>6.8</ele>
        <time>2021-05-18T15:52:59Z</time>
      </trkpt>
      <trkpt lat="41.8757230" lon="-8.8765570">
        <ele>6.8</ele>
        <time>2021-05-18T15:53:00Z</time>
      </trkpt>
      <trkpt lat="41.8757440" lon="-8.8765560">
        <ele>6.7</ele>
        <time>2021-05-18T15:53:01Z</time>
      </trkpt>
      <trkpt lat="41.8757530" lon="-8.8765580">
        <ele>6.7</ele>
        <time>2021-05-18T15:53:02Z</time>
      </trkpt>
      <trkpt lat="41.8757620" lon="-8.8765590">
        <ele>6.7</ele>
        <time>2021-05-18T15:53:03Z</time>
      </trkpt>
      <trkpt lat="41.8757840" lon="-8.8765590">
        <ele>6.7</ele>
        <time>2021-05-18T15:53:04Z</time>
      </trkpt>
      <trkpt lat="41.8757920" lon="-8.8765620">
        <ele>6.7</ele>
        <time>2021-05-18T15:53:05Z</time>
      </trkpt>
      <trkpt lat="41.8757990" lon="-8.8765650">
        <ele>6.7</ele>
        <time>2021-05-18T15:53:06Z</time>
      </trkpt>
      <trkpt lat="41.8758270" lon="-8.8765680">
        <ele>6.7</ele>
        <time>2021-05-18T15:53:07Z</time>
      </trkpt>
      <trkpt lat="41.8758350" lon="-8.8765720">
        <ele>6.7</ele>
        <time>2021-05-18T15:53:08Z</time>
      </trkpt>
      <trkpt lat="41.8758530" lon="-8.8765700">
        <ele>6.7</ele>
        <time>2021-05-18T15:53:09Z</time>
      </trkpt>
      <trkpt lat="41.8758680" lon="-8.8765760">
        <ele>6.7</ele>
        <time>2021-05-18T15:53:10Z</time>
      </trkpt>
      <trkpt lat="41.8758840" lon="-8.8765830">
        <ele>6.7</ele>
        <time>2021-05-18T15:53:11Z</time>
      </trkpt>
      <trkpt lat="41.8759010" lon="-8.8765830">
        <ele>6.7</ele>
        <time>2021-05-18T15:53:12Z</time>
      </trkpt>
      <trkpt lat="41.8759160" lon="-8.8765860">
        <ele>6.7</ele>
        <time>2021-05-18T15:53:13Z</time>
      </trkpt>
      <trkpt lat="41.8759310" lon="-8.8765920">
        <ele>6.7</ele>
        <time>2021-05-18T15:53:14Z</time>
      </trkpt>
      <trkpt lat="41.8759460" lon="-8.8766040">
        <ele>6.7</ele>
        <time>2021-05-18T15:53:15Z</time>
      </trkpt>
      <trkpt lat="41.8759600" lon="-8.8766140">
        <ele>6.7</ele>
        <time>2021-05-18T15:53:16Z</time>
      </trkpt>
      <trkpt lat="41.8759750" lon="-8.8766230">
        <ele>6.7</ele>
        <time>2021-05-18T15:53:17Z</time>
      </trkpt>
      <trkpt lat="41.8759900" lon="-8.8766300">
        <ele>6.7</ele>
        <time>2021-05-18T15:53:18Z</time>
      </trkpt>
      <trkpt lat="41.8760040" lon="-8.8766410">
        <ele>6.7</ele>
        <time>2021-05-18T15:53:19Z</time>
      </trkpt>
      <trkpt lat="41.8760160" lon="-8.8766510">
        <ele>6.7</ele>
        <time>2021-05-18T15:53:20Z</time>
      </trkpt>
      <trkpt lat="41.8760290" lon="-8.8766610">
        <ele>6.6</ele>
        <time>2021-05-18T15:53:21Z</time>
      </trkpt>
      <trkpt lat="41.8760440" lon="-8.8766730">
        <ele>6.6</ele>
        <time>2021-05-18T15:53:22Z</time>
      </trkpt>
      <trkpt lat="41.8760590" lon="-8.8766820">
        <ele>6.6</ele>
        <time>2021-05-18T15:53:23Z</time>
      </trkpt>
      <trkpt lat="41.8760740" lon="-8.8766870">
        <ele>6.6</ele>
        <time>2021-05-18T15:53:24Z</time>
      </trkpt>
      <trkpt lat="41.8760870" lon="-8.8766960">
        <ele>6.6</ele>
        <time>2021-05-18T15:53:25Z</time>
      </trkpt>
      <trkpt lat="41.8761000" lon="-8.8767090">
        <ele>6.6</ele>
        <time>2021-05-18T15:53:26Z</time>
      </trkpt>
      <trkpt lat="41.8761140" lon="-8.8767140">
        <ele>6.6</ele>
        <time>2021-05-18T15:53:27Z</time>
      </trkpt>
      <trkpt lat="41.8761250" lon="-8.8767280">
        <ele>6.6</ele>
        <time>2021-05-18T15:53:28Z</time>
      </trkpt>
      <trkpt lat="41.8761420" lon="-8.8767470">
        <ele>6.6</ele>
        <time>2021-05-18T15:53:29Z</time>
      </trkpt>
      <trkpt lat="41.8761490" lon="-8.8767570">
        <ele>6.6</ele>
        <time>2021-05-18T15:53:30Z</time>
      </trkpt>
      <trkpt lat="41.8761550" lon="-8.8767670">
        <ele>6.6</ele>
        <time>2021-05-18T15:53:31Z</time>
      </trkpt>
      <trkpt lat="41.8761720" lon="-8.8767890">
        <ele>6.6</ele>
        <time>2021-05-18T15:53:32Z</time>
      </trkpt>
      <trkpt lat="41.8761810" lon="-8.8767960">
        <ele>6.6</ele>
        <time>2021-05-18T15:53:33Z</time>
      </trkpt>
      <trkpt lat="41.8761890" lon="-8.8768040">
        <ele>6.6</ele>
        <time>2021-05-18T15:53:34Z</time>
      </trkpt>
      <trkpt lat="41.8762030" lon="-8.8768120">
        <ele>6.6</ele>
        <time>2021-05-18T15:53:35Z</time>
      </trkpt>
      <trkpt lat="41.8762140" lon="-8.8768240">
        <ele>6.6</ele>
        <time>2021-05-18T15:53:36Z</time>
      </trkpt>
      <trkpt lat="41.8762270" lon="-8.8768350">
        <ele>6.6</ele>
        <time>2021-05-18T15:53:37Z</time>
      </trkpt>
      <trkpt lat="41.8762370" lon="-8.8768500">
        <ele>6.6</ele>
        <time>2021-05-18T15:53:38Z</time>
      </trkpt>
      <trkpt lat="41.8762560" lon="-8.8768700">
        <ele>6.6</ele>
        <time>2021-05-18T15:53:39Z</time>
      </trkpt>
      <trkpt lat="41.8762620" lon="-8.8768790">
        <ele>6.6</ele>
        <time>2021-05-18T15:53:40Z</time>
      </trkpt>
      <trkpt lat="41.8762680" lon="-8.8768890">
        <ele>6.6</ele>
        <time>2021-05-18T15:53:41Z</time>
      </trkpt>
      <trkpt lat="41.8762810" lon="-8.8769010">
        <ele>6.6</ele>
        <time>2021-05-18T15:53:42Z</time>
      </trkpt>
      <trkpt lat="41.8762890" lon="-8.8769170">
        <ele>6.6</ele>
        <time>2021-05-18T15:53:43Z</time>
      </trkpt>
      <trkpt lat="41.8762980" lon="-8.8769310">
        <ele>6.6</ele>
        <time>2021-05-18T15:53:44Z</time>
      </trkpt>
      <trkpt lat="41.8763070" lon="-8.8769450">
        <ele>6.6</ele>
        <time>2021-05-18T15:53:45Z</time>
      </trkpt>
      <trkpt lat="41.8763120" lon="-8.8769620">
        <ele>6.6</ele>
        <time>2021-05-18T15:53:46Z</time>
      </trkpt>
      <trkpt lat="41.8763200" lon="-8.8769800">
        <ele>6.6</ele>
        <time>2021-05-18T15:53:47Z</time>
      </trkpt>
      <trkpt lat="41.8763280" lon="-8.8769970">
        <ele>6.6</ele>
        <time>2021-05-18T15:53:48Z</time>
      </trkpt>
      <trkpt lat="41.8763320" lon="-8.8770170">
        <ele>6.6</ele>
        <time>2021-05-18T15:53:49Z</time>
      </trkpt>
      <trkpt lat="41.8763380" lon="-8.8770360">
        <ele>6.6</ele>
        <time>2021-05-18T15:53:50Z</time>
      </trkpt>
      <trkpt lat="41.8763430" lon="-8.8770540">
        <ele>6.6</ele>
        <time>2021-05-18T15:53:51Z</time>
      </trkpt>
      <trkpt lat="41.8763530" lon="-8.8770710">
        <ele>6.6</ele>
        <time>2021-05-18T15:53:52Z</time>
      </trkpt>
      <trkpt lat="41.8763610" lon="-8.8770840">
        <ele>6.6</ele>
        <time>2021-05-18T15:53:53Z</time>
      </trkpt>
      <trkpt lat="41.8763720" lon="-8.8771000">
        <ele>6.6</ele>
        <time>2021-05-18T15:53:54Z</time>
      </trkpt>
      <trkpt lat="41.8763750" lon="-8.8771160">
        <ele>6.6</ele>
        <time>2021-05-18T15:53:55Z</time>
      </trkpt>
      <trkpt lat="41.8763810" lon="-8.8771350">
        <ele>6.6</ele>
        <time>2021-05-18T15:53:56Z</time>
      </trkpt>
      <trkpt lat="41.8763850" lon="-8.8771530">
        <ele>6.6</ele>
        <time>2021-05-18T15:53:57Z</time>
      </trkpt>
      <trkpt lat="41.8763930" lon="-8.8771690">
        <ele>6.6</ele>
        <time>2021-05-18T15:53:58Z</time>
      </trkpt>
      <trkpt lat="41.8763990" lon="-8.8771880">
        <ele>6.6</ele>
        <time>2021-05-18T15:53:59Z</time>
      </trkpt>
      <trkpt lat="41.8764170" lon="-8.8772070">
        <ele>6.6</ele>
        <time>2021-05-18T15:54:00Z</time>
      </trkpt>
      <trkpt lat="41.8764240" lon="-8.8772160">
        <ele>6.6</ele>
        <time>2021-05-18T15:54:01Z</time>
      </trkpt>
      <trkpt lat="41.8764310" lon="-8.8772250">
        <ele>6.6</ele>
        <time>2021-05-18T15:54:02Z</time>
      </trkpt>
      <trkpt lat="41.8764350" lon="-8.8772430">
        <ele>6.6</ele>
        <time>2021-05-18T15:54:03Z</time>
      </trkpt>
      <trkpt lat="41.8764390" lon="-8.8772630">
        <ele>6.6</ele>
        <time>2021-05-18T15:54:04Z</time>
      </trkpt>
      <trkpt lat="41.8764430" lon="-8.8772900">
        <ele>6.6</ele>
        <time>2021-05-18T15:54:05Z</time>
      </trkpt>
      <trkpt lat="41.8764420" lon="-8.8773020">
        <ele>6.6</ele>
        <time>2021-05-18T15:54:06Z</time>
      </trkpt>
      <trkpt lat="41.8764410" lon="-8.8773150">
        <ele>6.6</ele>
        <time>2021-05-18T15:54:07Z</time>
      </trkpt>
      <trkpt lat="41.8764320" lon="-8.8773440">
        <ele>6.6</ele>
        <time>2021-05-18T15:54:08Z</time>
      </trkpt>
      <trkpt lat="41.8764300" lon="-8.8773550">
        <ele>6.6</ele>
        <time>2021-05-18T15:54:09Z</time>
      </trkpt>
      <trkpt lat="41.8764280" lon="-8.8773660">
        <ele>6.6</ele>
        <time>2021-05-18T15:54:10Z</time>
      </trkpt>
      <trkpt lat="41.8764300" lon="-8.8773840">
        <ele>6.6</ele>
        <time>2021-05-18T15:54:11Z</time>
      </trkpt>
      <trkpt lat="41.8764310" lon="-8.8773980">
        <ele>6.6</ele>
        <time>2021-05-18T15:54:12Z</time>
      </trkpt>
      <trkpt lat="41.8764340" lon="-8.8774140">
        <ele>6.6</ele>
        <time>2021-05-18T15:54:13Z</time>
      </trkpt>
      <trkpt lat="41.8764380" lon="-8.8774350">
        <ele>6.6</ele>
        <time>2021-05-18T15:54:14Z</time>
      </trkpt>
      <trkpt lat="41.8764390" lon="-8.8774450">
        <ele>6.7</ele>
        <time>2021-05-18T15:54:15Z</time>
      </trkpt>
      <trkpt lat="41.8764400" lon="-8.8774560">
        <ele>6.7</ele>
        <time>2021-05-18T15:54:16Z</time>
      </trkpt>
      <trkpt lat="41.8764410" lon="-8.8774660">
        <ele>6.7</ele>
        <time>2021-05-18T15:54:17Z</time>
      </trkpt>
      <trkpt lat="41.8764490" lon="-8.8774910">
        <ele>6.7</ele>
        <time>2021-05-18T15:54:18Z</time>
      </trkpt>
      <trkpt lat="41.8764530" lon="-8.8775000">
        <ele>6.7</ele>
        <time>2021-05-18T15:54:19Z</time>
      </trkpt>
      <trkpt lat="41.8764580" lon="-8.8775100">
        <ele>6.7</ele>
        <time>2021-05-18T15:54:20Z</time>
      </trkpt>
      <trkpt lat="41.8764650" lon="-8.8775350">
        <ele>6.7</ele>
        <time>2021-05-18T15:54:21Z</time>
      </trkpt>
      <trkpt lat="41.8764670" lon="-8.8775460">
        <ele>6.7</ele>
        <time>2021-05-18T15:54:22Z</time>
      </trkpt>
      <trkpt lat="41.8764700" lon="-8.8775580">
        <ele>6.7</ele>
        <time>2021-05-18T15:54:23Z</time>
      </trkpt>
      <trkpt lat="41.8764780" lon="-8.8775830">
        <ele>6.7</ele>
        <time>2021-05-18T15:54:24Z</time>
      </trkpt>
      <trkpt lat="41.8764840" lon="-8.8775910">
        <ele>6.7</ele>
        <time>2021-05-18T15:54:25Z</time>
      </trkpt>
      <trkpt lat="41.8764900" lon="-8.8776000">
        <ele>6.7</ele>
        <time>2021-05-18T15:54:26Z</time>
      </trkpt>
      <trkpt lat="41.8765000" lon="-8.8776100">
        <ele>6.7</ele>
        <time>2021-05-18T15:54:27Z</time>
      </trkpt>
      <trkpt lat="41.8765140" lon="-8.8776170">
        <ele>6.7</ele>
        <time>2021-05-18T15:54:28Z</time>
      </trkpt>
      <trkpt lat="41.8765300" lon="-8.8776270">
        <ele>6.8</ele>
        <time>2021-05-18T15:54:29Z</time>
      </trkpt>
      <trkpt lat="41.8765460" lon="-8.8776340">
        <ele>6.8</ele>
        <time>2021-05-18T15:54:30Z</time>
      </trkpt>
      <trkpt lat="41.8765590" lon="-8.8776430">
        <ele>6.8</ele>
        <time>2021-05-18T15:54:31Z</time>
      </trkpt>
      <trkpt lat="41.8765700" lon="-8.8776570">
        <ele>6.8</ele>
        <time>2021-05-18T15:54:32Z</time>
      </trkpt>
      <trkpt lat="41.8765850" lon="-8.8776620">
        <ele>6.8</ele>
        <time>2021-05-18T15:54:33Z</time>
      </trkpt>
      <trkpt lat="41.8766010" lon="-8.8776650">
        <ele>6.8</ele>
        <time>2021-05-18T15:54:34Z</time>
      </trkpt>
      <trkpt lat="41.8766170" lon="-8.8776720">
        <ele>6.8</ele>
        <time>2021-05-18T15:54:35Z</time>
      </trkpt>
      <trkpt lat="41.8766320" lon="-8.8776780">
        <ele>6.8</ele>
        <time>2021-05-18T15:54:36Z</time>
      </trkpt>
      <trkpt lat="41.8766460" lon="-8.8776870">
        <ele>6.8</ele>
        <time>2021-05-18T15:54:37Z</time>
      </trkpt>
      <trkpt lat="41.8766610" lon="-8.8776940">
        <ele>6.8</ele>
        <time>2021-05-18T15:54:38Z</time>
      </trkpt>
      <trkpt lat="41.8766760" lon="-8.8777020">
        <ele>6.8</ele>
        <time>2021-05-18T15:54:39Z</time>
      </trkpt>
      <trkpt lat="41.8766920" lon="-8.8777050">
        <ele>6.8</ele>
        <time>2021-05-18T15:54:40Z</time>
      </trkpt>
      <trkpt lat="41.8767060" lon="-8.8777130">
        <ele>6.8</ele>
        <time>2021-05-18T15:54:41Z</time>
      </trkpt>
      <trkpt lat="41.8767220" lon="-8.8777190">
        <ele>6.8</ele>
        <time>2021-05-18T15:54:42Z</time>
      </trkpt>
      <trkpt lat="41.8767370" lon="-8.8777190">
        <ele>6.8</ele>
        <time>2021-05-18T15:54:43Z</time>
      </trkpt>
      <trkpt lat="41.8767520" lon="-8.8777230">
        <ele>6.8</ele>
        <time>2021-05-18T15:54:44Z</time>
      </trkpt>
      <trkpt lat="41.8767670" lon="-8.8777230">
        <ele>6.8</ele>
        <time>2021-05-18T15:54:45Z</time>
      </trkpt>
      <trkpt lat="41.8767810" lon="-8.8777290">
        <ele>6.8</ele>
        <time>2021-05-18T15:54:46Z</time>
      </trkpt>
      <trkpt lat="41.8767960" lon="-8.8777320">
        <ele>6.8</ele>
        <time>2021-05-18T15:54:47Z</time>
      </trkpt>
      <trkpt lat="41.8768090" lon="-8.8777390">
        <ele>6.8</ele>
        <time>2021-05-18T15:54:48Z</time>
      </trkpt>
      <trkpt lat="41.8768240" lon="-8.8777370">
        <ele>6.9</ele>
        <time>2021-05-18T15:54:49Z</time>
      </trkpt>
      <trkpt lat="41.8768370" lon="-8.8777370">
        <ele>6.9</ele>
        <time>2021-05-18T15:54:50Z</time>
      </trkpt>
      <trkpt lat="41.8768530" lon="-8.8777300">
        <ele>6.9</ele>
        <time>2021-05-18T15:54:51Z</time>
      </trkpt>
      <trkpt lat="41.8768650" lon="-8.8777290">
        <ele>6.9</ele>
        <time>2021-05-18T15:54:52Z</time>
      </trkpt>
      <trkpt lat="41.8768790" lon="-8.8777220">
        <ele>6.9</ele>
        <time>2021-05-18T15:54:53Z</time>
      </trkpt>
      <trkpt lat="41.8768910" lon="-8.8777100">
        <ele>6.9</ele>
        <time>2021-05-18T15:54:54Z</time>
      </trkpt>
      <trkpt lat="41.8769030" lon="-8.8777010">
        <ele>6.9</ele>
        <time>2021-05-18T15:54:55Z</time>
      </trkpt>
      <trkpt lat="41.8769140" lon="-8.8776880">
        <ele>6.9</ele>
        <time>2021-05-18T15:54:56Z</time>
      </trkpt>
      <trkpt lat="41.8769330" lon="-8.8776750">
        <ele>6.9</ele>
        <time>2021-05-18T15:54:57Z</time>
      </trkpt>
      <trkpt lat="41.8769410" lon="-8.8776690">
        <ele>6.9</ele>
        <time>2021-05-18T15:54:58Z</time>
      </trkpt>
      <trkpt lat="41.8769490" lon="-8.8776620">
        <ele>6.9</ele>
        <time>2021-05-18T15:54:59Z</time>
      </trkpt>
      <trkpt lat="41.8769660" lon="-8.8776460">
        <ele>6.9</ele>
        <time>2021-05-18T15:55:00Z</time>
      </trkpt>
      <trkpt lat="41.8769740" lon="-8.8776410">
        <ele>7.0</ele>
        <time>2021-05-18T15:55:01Z</time>
      </trkpt>
      <trkpt lat="41.8769810" lon="-8.8776350">
        <ele>7.0</ele>
        <time>2021-05-18T15:55:02Z</time>
      </trkpt>
      <trkpt lat="41.8770000" lon="-8.8776270">
        <ele>7.0</ele>
        <time>2021-05-18T15:55:03Z</time>
      </trkpt>
      <trkpt lat="41.8770090" lon="-8.8776250">
        <ele>7.0</ele>
        <time>2021-05-18T15:55:04Z</time>
      </trkpt>
      <trkpt lat="41.8770170" lon="-8.8776230">
        <ele>7.0</ele>
        <time>2021-05-18T15:55:05Z</time>
      </trkpt>
      <trkpt lat="41.8770290" lon="-8.8776160">
        <ele>7.0</ele>
        <time>2021-05-18T15:55:06Z</time>
      </trkpt>
      <trkpt lat="41.8770420" lon="-8.8776170">
        <ele>7.0</ele>
        <time>2021-05-18T15:55:07Z</time>
      </trkpt>
      <trkpt lat="41.8770500" lon="-8.8776130">
        <ele>7.0</ele>
        <time>2021-05-18T15:55:08Z</time>
      </trkpt>
      <trkpt lat="41.8770590" lon="-8.8776150">
        <ele>7.0</ele>
        <time>2021-05-18T15:55:09Z</time>
      </trkpt>
      <trkpt lat="41.8770700" lon="-8.8776200">
        <ele>7.0</ele>
        <time>2021-05-18T15:55:10Z</time>
      </trkpt>
      <trkpt lat="41.8770840" lon="-8.8776180">
        <ele>7.0</ele>
        <time>2021-05-18T15:55:11Z</time>
      </trkpt>
      <trkpt lat="41.8770910" lon="-8.8776250">
        <ele>7.0</ele>
        <time>2021-05-18T15:55:12Z</time>
      </trkpt>
      <trkpt lat="41.8771090" lon="-8.8776180">
        <ele>7.0</ele>
        <time>2021-05-18T15:55:13Z</time>
      </trkpt>
      <trkpt lat="41.8771150" lon="-8.8776240">
        <ele>7.0</ele>
        <time>2021-05-18T15:55:14Z</time>
      </trkpt>
      <trkpt lat="41.8771290" lon="-8.8776230">
        <ele>7.0</ele>
        <time>2021-05-18T15:55:15Z</time>
      </trkpt>
      <trkpt lat="41.8771370" lon="-8.8776270">
        <ele>7.0</ele>
        <time>2021-05-18T15:55:16Z</time>
      </trkpt>
      <trkpt lat="41.8771500" lon="-8.8776270">
        <ele>7.0</ele>
        <time>2021-05-18T15:55:17Z</time>
      </trkpt>
      <trkpt lat="41.8771650" lon="-8.8776330">
        <ele>7.0</ele>
        <time>2021-05-18T15:55:18Z</time>
      </trkpt>
      <trkpt lat="41.8771810" lon="-8.8776390">
        <ele>7.0</ele>
        <time>2021-05-18T15:55:19Z</time>
      </trkpt>
      <trkpt lat="41.8771830" lon="-8.8776440">
        <ele>7.0</ele>
        <time>2021-05-18T15:55:20Z</time>
      </trkpt>
      <trkpt lat="41.8771940" lon="-8.8776510">
        <ele>7.0</ele>
        <time>2021-05-18T15:55:21Z</time>
      </trkpt>
      <trkpt lat="41.8772070" lon="-8.8776530">
        <ele>6.9</ele>
        <time>2021-05-18T15:55:22Z</time>
      </trkpt>
      <trkpt lat="41.8772210" lon="-8.8776640">
        <ele>6.9</ele>
        <time>2021-05-18T15:55:23Z</time>
      </trkpt>
      <trkpt lat="41.8772370" lon="-8.8776670">
        <ele>6.9</ele>
        <time>2021-05-18T15:55:24Z</time>
      </trkpt>
      <trkpt lat="41.8772540" lon="-8.8776820">
        <ele>6.9</ele>
        <time>2021-05-18T15:55:25Z</time>
      </trkpt>
      <trkpt lat="41.8772640" lon="-8.8776880">
        <ele>6.9</ele>
        <time>2021-05-18T15:55:26Z</time>
      </trkpt>
      <trkpt lat="41.8772730" lon="-8.8776940">
        <ele>6.9</ele>
        <time>2021-05-18T15:55:27Z</time>
      </trkpt>
      <trkpt lat="41.8772920" lon="-8.8776990">
        <ele>6.8</ele>
        <time>2021-05-18T15:55:28Z</time>
      </trkpt>
      <trkpt lat="41.8772990" lon="-8.8777050">
        <ele>6.8</ele>
        <time>2021-05-18T15:55:29Z</time>
      </trkpt>
      <trkpt lat="41.8773070" lon="-8.8777100">
        <ele>6.8</ele>
        <time>2021-05-18T15:55:30Z</time>
      </trkpt>
      <trkpt lat="41.8773320" lon="-8.8777290">
        <ele>6.8</ele>
        <time>2021-05-18T15:55:31Z</time>
      </trkpt>
      <trkpt lat="41.8773390" lon="-8.8777350">
        <ele>6.8</ele>
        <time>2021-05-18T15:55:32Z</time>
      </trkpt>
      <trkpt lat="41.8773510" lon="-8.8777470">
        <ele>6.8</ele>
        <time>2021-05-18T15:55:33Z</time>
      </trkpt>
      <trkpt lat="41.8773650" lon="-8.8777570">
        <ele>6.7</ele>
        <time>2021-05-18T15:55:34Z</time>
      </trkpt>
      <trkpt lat="41.8773770" lon="-8.8777720">
        <ele>6.7</ele>
        <time>2021-05-18T15:55:35Z</time>
      </trkpt>
      <trkpt lat="41.8773890" lon="-8.8777870">
        <ele>6.7</ele>
        <time>2021-05-18T15:55:36Z</time>
      </trkpt>
      <trkpt lat="41.8773980" lon="-8.8778060">
        <ele>6.7</ele>
        <time>2021-05-18T15:55:37Z</time>
      </trkpt>
      <trkpt lat="41.8774090" lon="-8.8778210">
        <ele>6.6</ele>
        <time>2021-05-18T15:55:38Z</time>
      </trkpt>
      <trkpt lat="41.8774270" lon="-8.8778390">
        <ele>6.6</ele>
        <time>2021-05-18T15:55:39Z</time>
      </trkpt>
      <trkpt lat="41.8774340" lon="-8.8778440">
        <ele>6.6</ele>
        <time>2021-05-18T15:55:40Z</time>
      </trkpt>
      <trkpt lat="41.8774410" lon="-8.8778490">
        <ele>6.6</ele>
        <time>2021-05-18T15:55:41Z</time>
      </trkpt>
      <trkpt lat="41.8774500" lon="-8.8778680">
        <ele>6.6</ele>
        <time>2021-05-18T15:55:42Z</time>
      </trkpt>
      <trkpt lat="41.8774580" lon="-8.8778840">
        <ele>6.6</ele>
        <time>2021-05-18T15:55:43Z</time>
      </trkpt>
      <trkpt lat="41.8774660" lon="-8.8779010">
        <ele>6.6</ele>
        <time>2021-05-18T15:55:44Z</time>
      </trkpt>
      <trkpt lat="41.8774710" lon="-8.8779210">
        <ele>6.6</ele>
        <time>2021-05-18T15:55:45Z</time>
      </trkpt>
      <trkpt lat="41.8774770" lon="-8.8779390">
        <ele>6.6</ele>
        <time>2021-05-18T15:55:46Z</time>
      </trkpt>
      <trkpt lat="41.8774860" lon="-8.8779520">
        <ele>6.6</ele>
        <time>2021-05-18T15:55:47Z</time>
      </trkpt>
      <trkpt lat="41.8774970" lon="-8.8779620">
        <ele>6.6</ele>
        <time>2021-05-18T15:55:48Z</time>
      </trkpt>
      <trkpt lat="41.8775070" lon="-8.8779760">
        <ele>6.6</ele>
        <time>2021-05-18T15:55:49Z</time>
      </trkpt>
      <trkpt lat="41.8775160" lon="-8.8779890">
        <ele>6.6</ele>
        <time>2021-05-18T15:55:50Z</time>
      </trkpt>
      <trkpt lat="41.8775260" lon="-8.8780020">
        <ele>6.6</ele>
        <time>2021-05-18T15:55:51Z</time>
      </trkpt>
      <trkpt lat="41.8775360" lon="-8.8780160">
        <ele>6.6</ele>
        <time>2021-05-18T15:55:52Z</time>
      </trkpt>
      <trkpt lat="41.8775430" lon="-8.8780320">
        <ele>6.6</ele>
        <time>2021-05-18T15:55:53Z</time>
      </trkpt>
      <trkpt lat="41.8775550" lon="-8.8780560">
        <ele>6.6</ele>
        <time>2021-05-18T15:55:54Z</time>
      </trkpt>
      <trkpt lat="41.8775610" lon="-8.8780650">
        <ele>6.6</ele>
        <time>2021-05-18T15:55:55Z</time>
      </trkpt>
      <trkpt lat="41.8775660" lon="-8.8780750">
        <ele>6.6</ele>
        <time>2021-05-18T15:55:56Z</time>
      </trkpt>
      <trkpt lat="41.8775770" lon="-8.8780860">
        <ele>6.6</ele>
        <time>2021-05-18T15:55:57Z</time>
      </trkpt>
      <trkpt lat="41.8775870" lon="-8.8780980">
        <ele>6.6</ele>
        <time>2021-05-18T15:55:58Z</time>
      </trkpt>
      <trkpt lat="41.8775970" lon="-8.8781110">
        <ele>6.6</ele>
        <time>2021-05-18T15:55:59Z</time>
      </trkpt>
      <trkpt lat="41.8776070" lon="-8.8781240">
        <ele>6.6</ele>
        <time>2021-05-18T15:56:00Z</time>
      </trkpt>
      <trkpt lat="41.8776160" lon="-8.8781370">
        <ele>6.6</ele>
        <time>2021-05-18T15:56:01Z</time>
      </trkpt>
      <trkpt lat="41.8776300" lon="-8.8781480">
        <ele>6.6</ele>
        <time>2021-05-18T15:56:02Z</time>
      </trkpt>
      <trkpt lat="41.8776400" lon="-8.8781620">
        <ele>6.6</ele>
        <time>2021-05-18T15:56:03Z</time>
      </trkpt>
      <trkpt lat="41.8776480" lon="-8.8781770">
        <ele>6.6</ele>
        <time>2021-05-18T15:56:04Z</time>
      </trkpt>
      <trkpt lat="41.8776580" lon="-8.8781900">
        <ele>6.6</ele>
        <time>2021-05-18T15:56:05Z</time>
      </trkpt>
      <trkpt lat="41.8776640" lon="-8.8782070">
        <ele>6.6</ele>
        <time>2021-05-18T15:56:06Z</time>
      </trkpt>
      <trkpt lat="41.8776800" lon="-8.8782280">
        <ele>6.6</ele>
        <time>2021-05-18T15:56:07Z</time>
      </trkpt>
      <trkpt lat="41.8776860" lon="-8.8782360">
        <ele>6.6</ele>
        <time>2021-05-18T15:56:08Z</time>
      </trkpt>
      <trkpt lat="41.8776920" lon="-8.8782450">
        <ele>6.6</ele>
        <time>2021-05-18T15:56:09Z</time>
      </trkpt>
      <trkpt lat="41.8777040" lon="-8.8782680">
        <ele>6.6</ele>
        <time>2021-05-18T15:56:10Z</time>
      </trkpt>
      <trkpt lat="41.8777080" lon="-8.8782780">
        <ele>6.6</ele>
        <time>2021-05-18T15:56:11Z</time>
      </trkpt>
      <trkpt lat="41.8777130" lon="-8.8782870">
        <ele>6.6</ele>
        <time>2021-05-18T15:56:12Z</time>
      </trkpt>
      <trkpt lat="41.8777250" lon="-8.8782990">
        <ele>6.7</ele>
        <time>2021-05-18T15:56:13Z</time>
      </trkpt>
      <trkpt lat="41.8777330" lon="-8.8783130">
        <ele>6.7</ele>
        <time>2021-05-18T15:56:14Z</time>
      </trkpt>
      <trkpt lat="41.8777430" lon="-8.8783270">
        <ele>6.7</ele>
        <time>2021-05-18T15:56:15Z</time>
      </trkpt>
      <trkpt lat="41.8777510" lon="-8.8783420">
        <ele>6.7</ele>
        <time>2021-05-18T15:56:16Z</time>
      </trkpt>
      <trkpt lat="41.8777560" lon="-8.8783590">
        <ele>6.7</ele>
        <time>2021-05-18T15:56:17Z</time>
      </trkpt>
      <trkpt lat="41.8777600" lon="-8.8783770">
        <ele>6.7</ele>
        <time>2021-05-18T15:56:18Z</time>
      </trkpt>
      <trkpt lat="41.8777670" lon="-8.8783910">
        <ele>6.7</ele>
        <time>2021-05-18T15:56:19Z</time>
      </trkpt>
      <trkpt lat="41.8777810" lon="-8.8784020">
        <ele>6.7</ele>
        <time>2021-05-18T15:56:20Z</time>
      </trkpt>
      <trkpt lat="41.8777860" lon="-8.8784200">
        <ele>6.7</ele>
        <time>2021-05-18T15:56:21Z</time>
      </trkpt>
      <trkpt lat="41.8777940" lon="-8.8784340">
        <ele>6.7</ele>
        <time>2021-05-18T15:56:22Z</time>
      </trkpt>
      <trkpt lat="41.8777960" lon="-8.8784570">
        <ele>6.7</ele>
        <time>2021-05-18T15:56:23Z</time>
      </trkpt>
      <trkpt lat="41.8778030" lon="-8.8784710">
        <ele>6.7</ele>
        <time>2021-05-18T15:56:24Z</time>
      </trkpt>
      <trkpt lat="41.8778020" lon="-8.8784780">
        <ele>6.7</ele>
        <time>2021-05-18T15:56:25Z</time>
      </trkpt>
      <trkpt lat="41.8778080" lon="-8.8784890">
        <ele>6.7</ele>
        <time>2021-05-18T15:56:26Z</time>
      </trkpt>
      <trkpt lat="41.8778140" lon="-8.8785060">
        <ele>6.7</ele>
        <time>2021-05-18T15:56:27Z</time>
      </trkpt>
      <trkpt lat="41.8778160" lon="-8.8785130">
        <ele>6.7</ele>
        <time>2021-05-18T15:56:28Z</time>
      </trkpt>
      <trkpt lat="41.8778300" lon="-8.8785330">
        <ele>6.7</ele>
        <time>2021-05-18T15:56:29Z</time>
      </trkpt>
      <trkpt lat="41.8778260" lon="-8.8785410">
        <ele>6.7</ele>
        <time>2021-05-18T15:56:30Z</time>
      </trkpt>
      <trkpt lat="41.8778290" lon="-8.8785590">
        <ele>6.7</ele>
        <time>2021-05-18T15:56:31Z</time>
      </trkpt>
      <trkpt lat="41.8778340" lon="-8.8785760">
        <ele>6.6</ele>
        <time>2021-05-18T15:56:32Z</time>
      </trkpt>
      <trkpt lat="41.8778380" lon="-8.8785880">
        <ele>6.6</ele>
        <time>2021-05-18T15:56:33Z</time>
      </trkpt>
      <trkpt lat="41.8778440" lon="-8.8786010">
        <ele>6.6</ele>
        <time>2021-05-18T15:56:34Z</time>
      </trkpt>
      <trkpt lat="41.8778510" lon="-8.8786160">
        <ele>6.6</ele>
        <time>2021-05-18T15:56:35Z</time>
      </trkpt>
      <trkpt lat="41.8778570" lon="-8.8786330">
        <ele>6.6</ele>
        <time>2021-05-18T15:56:36Z</time>
      </trkpt>
      <trkpt lat="41.8778680" lon="-8.8786480">
        <ele>6.6</ele>
        <time>2021-05-18T15:56:37Z</time>
      </trkpt>
      <trkpt lat="41.8778810" lon="-8.8786630">
        <ele>6.6</ele>
        <time>2021-05-18T15:56:38Z</time>
      </trkpt>
      <trkpt lat="41.8778890" lon="-8.8786780">
        <ele>6.6</ele>
        <time>2021-05-18T15:56:39Z</time>
      </trkpt>
      <trkpt lat="41.8778990" lon="-8.8786900">
        <ele>6.6</ele>
        <time>2021-05-18T15:56:40Z</time>
      </trkpt>
      <trkpt lat="41.8779100" lon="-8.8787040">
        <ele>6.6</ele>
        <time>2021-05-18T15:56:41Z</time>
      </trkpt>
      <trkpt lat="41.8779240" lon="-8.8787260">
        <ele>6.6</ele>
        <time>2021-05-18T15:56:42Z</time>
      </trkpt>
      <trkpt lat="41.8779310" lon="-8.8787340">
        <ele>6.6</ele>
        <time>2021-05-18T15:56:43Z</time>
      </trkpt>
      <trkpt lat="41.8779370" lon="-8.8787430">
        <ele>6.6</ele>
        <time>2021-05-18T15:56:44Z</time>
      </trkpt>
      <trkpt lat="41.8779480" lon="-8.8787560">
        <ele>6.6</ele>
        <time>2021-05-18T15:56:45Z</time>
      </trkpt>
      <trkpt lat="41.8779590" lon="-8.8787690">
        <ele>6.6</ele>
        <time>2021-05-18T15:56:46Z</time>
      </trkpt>
      <trkpt lat="41.8779690" lon="-8.8787850">
        <ele>6.6</ele>
        <time>2021-05-18T15:56:47Z</time>
      </trkpt>
      <trkpt lat="41.8779730" lon="-8.8788040">
        <ele>6.6</ele>
        <time>2021-05-18T15:56:48Z</time>
      </trkpt>
      <trkpt lat="41.8779910" lon="-8.8788230">
        <ele>6.6</ele>
        <time>2021-05-18T15:56:49Z</time>
      </trkpt>
      <trkpt lat="41.8779980" lon="-8.8788330">
        <ele>6.6</ele>
        <time>2021-05-18T15:56:50Z</time>
      </trkpt>
      <trkpt lat="41.8780040" lon="-8.8788420">
        <ele>6.6</ele>
        <time>2021-05-18T15:56:51Z</time>
      </trkpt>
      <trkpt lat="41.8780120" lon="-8.8788580">
        <ele>6.6</ele>
        <time>2021-05-18T15:56:52Z</time>
      </trkpt>
      <trkpt lat="41.8780230" lon="-8.8788710">
        <ele>6.6</ele>
        <time>2021-05-18T15:56:53Z</time>
      </trkpt>
      <trkpt lat="41.8780320" lon="-8.8788870">
        <ele>6.6</ele>
        <time>2021-05-18T15:56:54Z</time>
      </trkpt>
      <trkpt lat="41.8780390" lon="-8.8788970">
        <ele>6.5</ele>
        <time>2021-05-18T15:56:55Z</time>
      </trkpt>
      <trkpt lat="41.8780450" lon="-8.8789050">
        <ele>6.5</ele>
        <time>2021-05-18T15:56:56Z</time>
      </trkpt>
      <trkpt lat="41.8780510" lon="-8.8789150">
        <ele>6.5</ele>
        <time>2021-05-18T15:56:57Z</time>
      </trkpt>
      <trkpt lat="41.8780590" lon="-8.8789320">
        <ele>6.5</ele>
        <time>2021-05-18T15:56:58Z</time>
      </trkpt>
      <trkpt lat="41.8780640" lon="-8.8789430">
        <ele>6.5</ele>
        <time>2021-05-18T15:56:59Z</time>
      </trkpt>
      <trkpt lat="41.8780750" lon="-8.8789660">
        <ele>6.5</ele>
        <time>2021-05-18T15:57:00Z</time>
      </trkpt>
      <trkpt lat="41.8780800" lon="-8.8789760">
        <ele>6.5</ele>
        <time>2021-05-18T15:57:01Z</time>
      </trkpt>
      <trkpt lat="41.8780850" lon="-8.8789870">
        <ele>6.5</ele>
        <time>2021-05-18T15:57:02Z</time>
      </trkpt>
      <trkpt lat="41.8780930" lon="-8.8789970">
        <ele>6.5</ele>
        <time>2021-05-18T15:57:03Z</time>
      </trkpt>
      <trkpt lat="41.8781000" lon="-8.8790090">
        <ele>6.5</ele>
        <time>2021-05-18T15:57:04Z</time>
      </trkpt>
      <trkpt lat="41.8781060" lon="-8.8790240">
        <ele>6.5</ele>
        <time>2021-05-18T15:57:05Z</time>
      </trkpt>
      <trkpt lat="41.8781220" lon="-8.8790430">
        <ele>6.5</ele>
        <time>2021-05-18T15:57:06Z</time>
      </trkpt>
      <trkpt lat="41.8781290" lon="-8.8790520">
        <ele>6.5</ele>
        <time>2021-05-18T15:57:07Z</time>
      </trkpt>
      <trkpt lat="41.8781360" lon="-8.8790600">
        <ele>6.5</ele>
        <time>2021-05-18T15:57:08Z</time>
      </trkpt>
      <trkpt lat="41.8781460" lon="-8.8790750">
        <ele>6.5</ele>
        <time>2021-05-18T15:57:09Z</time>
      </trkpt>
      <trkpt lat="41.8781560" lon="-8.8790850">
        <ele>6.5</ele>
        <time>2021-05-18T15:57:10Z</time>
      </trkpt>
      <trkpt lat="41.8781610" lon="-8.8790980">
        <ele>6.5</ele>
        <time>2021-05-18T15:57:11Z</time>
      </trkpt>
      <trkpt lat="41.8781690" lon="-8.8791110">
        <ele>6.5</ele>
        <time>2021-05-18T15:57:12Z</time>
      </trkpt>
      <trkpt lat="41.8781760" lon="-8.8791210">
        <ele>6.5</ele>
        <time>2021-05-18T15:57:13Z</time>
      </trkpt>
      <trkpt lat="41.8781920" lon="-8.8791400">
        <ele>6.5</ele>
        <time>2021-05-18T15:57:14Z</time>
      </trkpt>
      <trkpt lat="41.8781990" lon="-8.8791500">
        <ele>6.5</ele>
        <time>2021-05-18T15:57:15Z</time>
      </trkpt>
      <trkpt lat="41.8782050" lon="-8.8791590">
        <ele>6.5</ele>
        <time>2021-05-18T15:57:16Z</time>
      </trkpt>
      <trkpt lat="41.8782220" lon="-8.8791780">
        <ele>6.5</ele>
        <time>2021-05-18T15:57:17Z</time>
      </trkpt>
      <trkpt lat="41.8782300" lon="-8.8791830">
        <ele>6.5</ele>
        <time>2021-05-18T15:57:18Z</time>
      </trkpt>
      <trkpt lat="41.8782370" lon="-8.8791890">
        <ele>6.5</ele>
        <time>2021-05-18T15:57:19Z</time>
      </trkpt>
      <trkpt lat="41.8782480" lon="-8.8791980">
        <ele>6.5</ele>
        <time>2021-05-18T15:57:20Z</time>
      </trkpt>
      <trkpt lat="41.8782560" lon="-8.8792100">
        <ele>6.6</ele>
        <time>2021-05-18T15:57:21Z</time>
      </trkpt>
      <trkpt lat="41.8782650" lon="-8.8792200">
        <ele>6.6</ele>
        <time>2021-05-18T15:57:22Z</time>
      </trkpt>
      <trkpt lat="41.8782800" lon="-8.8792270">
        <ele>6.6</ele>
        <time>2021-05-18T15:57:23Z</time>
      </trkpt>
      <trkpt lat="41.8782950" lon="-8.8792380">
        <ele>6.6</ele>
        <time>2021-05-18T15:57:24Z</time>
      </trkpt>
      <trkpt lat="41.8783010" lon="-8.8792380">
        <ele>6.6</ele>
        <time>2021-05-18T15:57:25Z</time>
      </trkpt>
      <trkpt lat="41.8783140" lon="-8.8792480">
        <ele>6.6</ele>
        <time>2021-05-18T15:57:26Z</time>
      </trkpt>
      <trkpt lat="41.8783260" lon="-8.8792560">
        <ele>6.6</ele>
        <time>2021-05-18T15:57:27Z</time>
      </trkpt>
      <trkpt lat="41.8783360" lon="-8.8792630">
        <ele>6.6</ele>
        <time>2021-05-18T15:57:28Z</time>
      </trkpt>
      <trkpt lat="41.8783470" lon="-8.8792730">
        <ele>6.6</ele>
        <time>2021-05-18T15:57:29Z</time>
      </trkpt>
      <trkpt lat="41.8783550" lon="-8.8792810">
        <ele>6.6</ele>
        <time>2021-05-18T15:57:30Z</time>
      </trkpt>
      <trkpt lat="41.8783810" lon="-8.8792890">
        <ele>6.6</ele>
        <time>2021-05-18T15:57:31Z</time>
      </trkpt>
      <trkpt lat="41.8783880" lon="-8.8792940">
        <ele>6.6</ele>
        <time>2021-05-18T15:57:32Z</time>
      </trkpt>
      <trkpt lat="41.8783950" lon="-8.8792980">
        <ele>6.6</ele>
        <time>2021-05-18T15:57:33Z</time>
      </trkpt>
      <trkpt lat="41.8784120" lon="-8.8793140">
        <ele>6.6</ele>
        <time>2021-05-18T15:57:34Z</time>
      </trkpt>
      <trkpt lat="41.8784200" lon="-8.8793200">
        <ele>6.6</ele>
        <time>2021-05-18T15:57:35Z</time>
      </trkpt>
      <trkpt lat="41.8784290" lon="-8.8793260">
        <ele>6.6</ele>
        <time>2021-05-18T15:57:36Z</time>
      </trkpt>
      <trkpt lat="41.8784490" lon="-8.8793380">
        <ele>6.6</ele>
        <time>2021-05-18T15:57:37Z</time>
      </trkpt>
      <trkpt lat="41.8784560" lon="-8.8793410">
        <ele>6.6</ele>
        <time>2021-05-18T15:57:38Z</time>
      </trkpt>
      <trkpt lat="41.8784620" lon="-8.8793450">
        <ele>6.6</ele>
        <time>2021-05-18T15:57:39Z</time>
      </trkpt>
      <trkpt lat="41.8784750" lon="-8.8793540">
        <ele>6.6</ele>
        <time>2021-05-18T15:57:40Z</time>
      </trkpt>
      <trkpt lat="41.8784860" lon="-8.8793670">
        <ele>6.6</ele>
        <time>2021-05-18T15:57:41Z</time>
      </trkpt>
      <trkpt lat="41.8784980" lon="-8.8793790">
        <ele>6.6</ele>
        <time>2021-05-18T15:57:42Z</time>
      </trkpt>
      <trkpt lat="41.8785000" lon="-8.8793870">
        <ele>6.6</ele>
        <time>2021-05-18T15:57:43Z</time>
      </trkpt>
      <trkpt lat="41.8785130" lon="-8.8793960">
        <ele>6.6</ele>
        <time>2021-05-18T15:57:44Z</time>
      </trkpt>
      <trkpt lat="41.8785200" lon="-8.8794060">
        <ele>6.6</ele>
        <time>2021-05-18T15:57:45Z</time>
      </trkpt>
      <trkpt lat="41.8785340" lon="-8.8794120">
        <ele>6.6</ele>
        <time>2021-05-18T15:57:46Z</time>
      </trkpt>
      <trkpt lat="41.8785440" lon="-8.8794210">
        <ele>6.6</ele>
        <time>2021-05-18T15:57:47Z</time>
      </trkpt>
      <trkpt lat="41.8785660" lon="-8.8794360">
        <ele>6.6</ele>
        <time>2021-05-18T15:57:48Z</time>
      </trkpt>
      <trkpt lat="41.8785720" lon="-8.8794440">
        <ele>6.6</ele>
        <time>2021-05-18T15:57:49Z</time>
      </trkpt>
      <trkpt lat="41.8785790" lon="-8.8794520">
        <ele>6.6</ele>
        <time>2021-05-18T15:57:50Z</time>
      </trkpt>
      <trkpt lat="41.8785820" lon="-8.8794600">
        <ele>6.6</ele>
        <time>2021-05-18T15:57:51Z</time>
      </trkpt>
      <trkpt lat="41.8785960" lon="-8.8794680">
        <ele>6.6</ele>
        <time>2021-05-18T15:57:52Z</time>
      </trkpt>
      <trkpt lat="41.8786090" lon="-8.8794750">
        <ele>6.6</ele>
        <time>2021-05-18T15:57:53Z</time>
      </trkpt>
      <trkpt lat="41.8786320" lon="-8.8794880">
        <ele>6.6</ele>
        <time>2021-05-18T15:57:54Z</time>
      </trkpt>
      <trkpt lat="41.8786400" lon="-8.8794940">
        <ele>6.6</ele>
        <time>2021-05-18T15:57:55Z</time>
      </trkpt>
      <trkpt lat="41.8786490" lon="-8.8794990">
        <ele>6.6</ele>
        <time>2021-05-18T15:57:56Z</time>
      </trkpt>
      <trkpt lat="41.8786580" lon="-8.8795070">
        <ele>6.6</ele>
        <time>2021-05-18T15:57:57Z</time>
      </trkpt>
      <trkpt lat="41.8786730" lon="-8.8795160">
        <ele>6.6</ele>
        <time>2021-05-18T15:57:58Z</time>
      </trkpt>
      <trkpt lat="41.8786880" lon="-8.8795370">
        <ele>6.6</ele>
        <time>2021-05-18T15:57:59Z</time>
      </trkpt>
      <trkpt lat="41.8786950" lon="-8.8795440">
        <ele>6.6</ele>
        <time>2021-05-18T15:58:00Z</time>
      </trkpt>
      <trkpt lat="41.8787010" lon="-8.8795520">
        <ele>6.6</ele>
        <time>2021-05-18T15:58:01Z</time>
      </trkpt>
      <trkpt lat="41.8787220" lon="-8.8795690">
        <ele>6.6</ele>
        <time>2021-05-18T15:58:02Z</time>
      </trkpt>
      <trkpt lat="41.8787280" lon="-8.8795730">
        <ele>6.6</ele>
        <time>2021-05-18T15:58:03Z</time>
      </trkpt>
      <trkpt lat="41.8787350" lon="-8.8795780">
        <ele>6.6</ele>
        <time>2021-05-18T15:58:04Z</time>
      </trkpt>
      <trkpt lat="41.8787390" lon="-8.8795820">
        <ele>6.6</ele>
        <time>2021-05-18T15:58:05Z</time>
      </trkpt>
      <trkpt lat="41.8787510" lon="-8.8795920">
        <ele>6.6</ele>
        <time>2021-05-18T15:58:06Z</time>
      </trkpt>
      <trkpt lat="41.8787640" lon="-8.8795960">
        <ele>6.6</ele>
        <time>2021-05-18T15:58:07Z</time>
      </trkpt>
      <trkpt lat="41.8787770" lon="-8.8795980">
        <ele>6.6</ele>
        <time>2021-05-18T15:58:08Z</time>
      </trkpt>
      <trkpt lat="41.8787950" lon="-8.8796000">
        <ele>6.6</ele>
        <time>2021-05-18T15:58:09Z</time>
      </trkpt>
      <trkpt lat="41.8787980" lon="-8.8796030">
        <ele>6.6</ele>
        <time>2021-05-18T15:58:10Z</time>
      </trkpt>
      <trkpt lat="41.8788120" lon="-8.8796090">
        <ele>6.6</ele>
        <time>2021-05-18T15:58:11Z</time>
      </trkpt>
      <trkpt lat="41.8788260" lon="-8.8796130">
        <ele>6.6</ele>
        <time>2021-05-18T15:58:12Z</time>
      </trkpt>
      <trkpt lat="41.8788360" lon="-8.8796200">
        <ele>6.6</ele>
        <time>2021-05-18T15:58:13Z</time>
      </trkpt>
      <trkpt lat="41.8788530" lon="-8.8796260">
        <ele>6.6</ele>
        <time>2021-05-18T15:58:14Z</time>
      </trkpt>
      <trkpt lat="41.8788740" lon="-8.8796350">
        <ele>6.6</ele>
        <time>2021-05-18T15:58:15Z</time>
      </trkpt>
      <trkpt lat="41.8788820" lon="-8.8796380">
        <ele>6.6</ele>
        <time>2021-05-18T15:58:16Z</time>
      </trkpt>
      <trkpt lat="41.8788910" lon="-8.8796400">
        <ele>6.6</ele>
        <time>2021-05-18T15:58:17Z</time>
      </trkpt>
      <trkpt lat="41.8789050" lon="-8.8796410">
        <ele>6.6</ele>
        <time>2021-05-18T15:58:18Z</time>
      </trkpt>
      <trkpt lat="41.8789210" lon="-8.8796430">
        <ele>6.6</ele>
        <time>2021-05-18T15:58:19Z</time>
      </trkpt>
      <trkpt lat="41.8789420" lon="-8.8796470">
        <ele>6.6</ele>
        <time>2021-05-18T15:58:20Z</time>
      </trkpt>
      <trkpt lat="41.8789520" lon="-8.8796490">
        <ele>6.6</ele>
        <time>2021-05-18T15:58:21Z</time>
      </trkpt>
      <trkpt lat="41.8789620" lon="-8.8796510">
        <ele>6.6</ele>
        <time>2021-05-18T15:58:22Z</time>
      </trkpt>
      <trkpt lat="41.8789760" lon="-8.8796580">
        <ele>6.5</ele>
        <time>2021-05-18T15:58:23Z</time>
      </trkpt>
      <trkpt lat="41.8789910" lon="-8.8796630">
        <ele>6.5</ele>
        <time>2021-05-18T15:58:24Z</time>
      </trkpt>
      <trkpt lat="41.8790050" lon="-8.8796660">
        <ele>6.5</ele>
        <time>2021-05-18T15:58:25Z</time>
      </trkpt>
      <trkpt lat="41.8790220" lon="-8.8796630">
        <ele>6.5</ele>
        <time>2021-05-18T15:58:26Z</time>
      </trkpt>
      <trkpt lat="41.8790370" lon="-8.8796680">
        <ele>6.5</ele>
        <time>2021-05-18T15:58:27Z</time>
      </trkpt>
      <trkpt lat="41.8790520" lon="-8.8796700">
        <ele>6.5</ele>
        <time>2021-05-18T15:58:28Z</time>
      </trkpt>
      <trkpt lat="41.8790660" lon="-8.8796810">
        <ele>6.5</ele>
        <time>2021-05-18T15:58:29Z</time>
      </trkpt>
      <trkpt lat="41.8790800" lon="-8.8796830">
        <ele>6.5</ele>
        <time>2021-05-18T15:58:30Z</time>
      </trkpt>
      <trkpt lat="41.8790950" lon="-8.8796820">
        <ele>6.5</ele>
        <time>2021-05-18T15:58:31Z</time>
      </trkpt>
      <trkpt lat="41.8791090" lon="-8.8796870">
        <ele>6.5</ele>
        <time>2021-05-18T15:58:32Z</time>
      </trkpt>
      <trkpt lat="41.8791230" lon="-8.8796960">
        <ele>6.5</ele>
        <time>2021-05-18T15:58:33Z</time>
      </trkpt>
      <trkpt lat="41.8791370" lon="-8.8796990">
        <ele>6.5</ele>
        <time>2021-05-18T15:58:34Z</time>
      </trkpt>
      <trkpt lat="41.8791520" lon="-8.8797050">
        <ele>6.5</ele>
        <time>2021-05-18T15:58:35Z</time>
      </trkpt>
      <trkpt lat="41.8791660" lon="-8.8797140">
        <ele>6.5</ele>
        <time>2021-05-18T15:58:36Z</time>
      </trkpt>
      <trkpt lat="41.8791810" lon="-8.8797230">
        <ele>6.5</ele>
        <time>2021-05-18T15:58:37Z</time>
      </trkpt>
      <trkpt lat="41.8791940" lon="-8.8797290">
        <ele>6.5</ele>
        <time>2021-05-18T15:58:38Z</time>
      </trkpt>
      <trkpt lat="41.8792120" lon="-8.8797250">
        <ele>6.5</ele>
        <time>2021-05-18T15:58:39Z</time>
      </trkpt>
      <trkpt lat="41.8792250" lon="-8.8797310">
        <ele>6.5</ele>
        <time>2021-05-18T15:58:40Z</time>
      </trkpt>
      <trkpt lat="41.8792390" lon="-8.8797340">
        <ele>6.5</ele>
        <time>2021-05-18T15:58:41Z</time>
      </trkpt>
      <trkpt lat="41.8792520" lon="-8.8797410">
        <ele>6.5</ele>
        <time>2021-05-18T15:58:42Z</time>
      </trkpt>
      <trkpt lat="41.8792660" lon="-8.8797420">
        <ele>6.5</ele>
        <time>2021-05-18T15:58:43Z</time>
      </trkpt>
      <trkpt lat="41.8792800" lon="-8.8797410">
        <ele>6.5</ele>
        <time>2021-05-18T15:58:44Z</time>
      </trkpt>
      <trkpt lat="41.8792920" lon="-8.8797480">
        <ele>6.5</ele>
        <time>2021-05-18T15:58:45Z</time>
      </trkpt>
      <trkpt lat="41.8793080" lon="-8.8797490">
        <ele>6.5</ele>
        <time>2021-05-18T15:58:46Z</time>
      </trkpt>
      <trkpt lat="41.8793220" lon="-8.8797530">
        <ele>6.6</ele>
        <time>2021-05-18T15:58:47Z</time>
      </trkpt>
      <trkpt lat="41.8793260" lon="-8.8797600">
        <ele>6.6</ele>
        <time>2021-05-18T15:58:48Z</time>
      </trkpt>
      <trkpt lat="41.8793360" lon="-8.8797640">
        <ele>6.6</ele>
        <time>2021-05-18T15:58:49Z</time>
      </trkpt>
      <trkpt lat="41.8793490" lon="-8.8797700">
        <ele>6.6</ele>
        <time>2021-05-18T15:58:50Z</time>
      </trkpt>
      <trkpt lat="41.8793600" lon="-8.8797800">
        <ele>6.6</ele>
        <time>2021-05-18T15:58:51Z</time>
      </trkpt>
      <trkpt lat="41.8793660" lon="-8.8797800">
        <ele>6.6</ele>
        <time>2021-05-18T15:58:52Z</time>
      </trkpt>
      <trkpt lat="41.8793880" lon="-8.8797830">
        <ele>6.6</ele>
        <time>2021-05-18T15:58:53Z</time>
      </trkpt>
      <trkpt lat="41.8793970" lon="-8.8797880">
        <ele>6.7</ele>
        <time>2021-05-18T15:58:54Z</time>
      </trkpt>
      <trkpt lat="41.8794050" lon="-8.8797920">
        <ele>6.7</ele>
        <time>2021-05-18T15:58:55Z</time>
      </trkpt>
      <trkpt lat="41.8794110" lon="-8.8797980">
        <ele>6.7</ele>
        <time>2021-05-18T15:58:56Z</time>
      </trkpt>
      <trkpt lat="41.8794250" lon="-8.8798030">
        <ele>6.7</ele>
        <time>2021-05-18T15:58:57Z</time>
      </trkpt>
      <trkpt lat="41.8794370" lon="-8.8798060">
        <ele>6.7</ele>
        <time>2021-05-18T15:58:58Z</time>
      </trkpt>
      <trkpt lat="41.8794590" lon="-8.8798060">
        <ele>6.7</ele>
        <time>2021-05-18T15:58:59Z</time>
      </trkpt>
      <trkpt lat="41.8794670" lon="-8.8798060">
        <ele>6.7</ele>
        <time>2021-05-18T15:59:00Z</time>
      </trkpt>
      <trkpt lat="41.8794740" lon="-8.8798070">
        <ele>6.7</ele>
        <time>2021-05-18T15:59:01Z</time>
      </trkpt>
      <trkpt lat="41.8794840" lon="-8.8798180">
        <ele>6.8</ele>
        <time>2021-05-18T15:59:02Z</time>
      </trkpt>
      <trkpt lat="41.8795000" lon="-8.8798150">
        <ele>6.8</ele>
        <time>2021-05-18T15:59:03Z</time>
      </trkpt>
      <trkpt lat="41.8795080" lon="-8.8798210">
        <ele>6.8</ele>
        <time>2021-05-18T15:59:04Z</time>
      </trkpt>
      <trkpt lat="41.8795280" lon="-8.8798230">
        <ele>6.8</ele>
        <time>2021-05-18T15:59:05Z</time>
      </trkpt>
      <trkpt lat="41.8795370" lon="-8.8798240">
        <ele>6.8</ele>
        <time>2021-05-18T15:59:06Z</time>
      </trkpt>
      <trkpt lat="41.8795450" lon="-8.8798250">
        <ele>6.8</ele>
        <time>2021-05-18T15:59:07Z</time>
      </trkpt>
      <trkpt lat="41.8795590" lon="-8.8798280">
        <ele>6.8</ele>
        <time>2021-05-18T15:59:08Z</time>
      </trkpt>
      <trkpt lat="41.8795770" lon="-8.8798280">
        <ele>6.8</ele>
        <time>2021-05-18T15:59:09Z</time>
      </trkpt>
      <trkpt lat="41.8795810" lon="-8.8798300">
        <ele>6.8</ele>
        <time>2021-05-18T15:59:10Z</time>
      </trkpt>
      <trkpt lat="41.8795940" lon="-8.8798360">
        <ele>6.8</ele>
        <time>2021-05-18T15:59:11Z</time>
      </trkpt>
      <trkpt lat="41.8796070" lon="-8.8798450">
        <ele>6.8</ele>
        <time>2021-05-18T15:59:12Z</time>
      </trkpt>
      <trkpt lat="41.8796190" lon="-8.8798480">
        <ele>6.8</ele>
        <time>2021-05-18T15:59:13Z</time>
      </trkpt>
      <trkpt lat="41.8796310" lon="-8.8798500">
        <ele>6.8</ele>
        <time>2021-05-18T15:59:14Z</time>
      </trkpt>
      <trkpt lat="41.8796420" lon="-8.8798490">
        <ele>6.8</ele>
        <time>2021-05-18T15:59:15Z</time>
      </trkpt>
      <trkpt lat="41.8796580" lon="-8.8798530">
        <ele>6.8</ele>
        <time>2021-05-18T15:59:16Z</time>
      </trkpt>
      <trkpt lat="41.8796750" lon="-8.8798550">
        <ele>6.8</ele>
        <time>2021-05-18T15:59:17Z</time>
      </trkpt>
      <trkpt lat="41.8796790" lon="-8.8798570">
        <ele>6.8</ele>
        <time>2021-05-18T15:59:18Z</time>
      </trkpt>
      <trkpt lat="41.8796920" lon="-8.8798600">
        <ele>6.8</ele>
        <time>2021-05-18T15:59:19Z</time>
      </trkpt>
      <trkpt lat="41.8797080" lon="-8.8798630">
        <ele>6.8</ele>
        <time>2021-05-18T15:59:20Z</time>
      </trkpt>
      <trkpt lat="41.8797250" lon="-8.8798690">
        <ele>6.8</ele>
        <time>2021-05-18T15:59:21Z</time>
      </trkpt>
      <trkpt lat="41.8797350" lon="-8.8798720">
        <ele>6.8</ele>
        <time>2021-05-18T15:59:22Z</time>
      </trkpt>
      <trkpt lat="41.8797460" lon="-8.8798750">
        <ele>6.8</ele>
        <time>2021-05-18T15:59:23Z</time>
      </trkpt>
      <trkpt lat="41.8797610" lon="-8.8798890">
        <ele>6.8</ele>
        <time>2021-05-18T15:59:24Z</time>
      </trkpt>
      <trkpt lat="41.8797720" lon="-8.8798940">
        <ele>6.8</ele>
        <time>2021-05-18T15:59:25Z</time>
      </trkpt>
      <trkpt lat="41.8797820" lon="-8.8798980">
        <ele>6.8</ele>
        <time>2021-05-18T15:59:26Z</time>
      </trkpt>
      <trkpt lat="41.8797970" lon="-8.8798970">
        <ele>6.8</ele>
        <time>2021-05-18T15:59:27Z</time>
      </trkpt>
      <trkpt lat="41.8798170" lon="-8.8799000">
        <ele>6.8</ele>
        <time>2021-05-18T15:59:28Z</time>
      </trkpt>
      <trkpt lat="41.8798350" lon="-8.8799010">
        <ele>6.8</ele>
        <time>2021-05-18T15:59:29Z</time>
      </trkpt>
      <trkpt lat="41.8798480" lon="-8.8799020">
        <ele>6.8</ele>
        <time>2021-05-18T15:59:30Z</time>
      </trkpt>
      <trkpt lat="41.8798600" lon="-8.8799030">
        <ele>6.8</ele>
        <time>2021-05-18T15:59:31Z</time>
      </trkpt>
      <trkpt lat="41.8798880" lon="-8.8799060">
        <ele>6.8</ele>
        <time>2021-05-18T15:59:32Z</time>
      </trkpt>
      <trkpt lat="41.8798970" lon="-8.8799050">
        <ele>6.8</ele>
        <time>2021-05-18T15:59:33Z</time>
      </trkpt>
      <trkpt lat="41.8799110" lon="-8.8799100">
        <ele>6.8</ele>
        <time>2021-05-18T15:59:34Z</time>
      </trkpt>
      <trkpt lat="41.8799260" lon="-8.8799130">
        <ele>6.8</ele>
        <time>2021-05-18T15:59:35Z</time>
      </trkpt>
      <trkpt lat="41.8799390" lon="-8.8799200">
        <ele>6.8</ele>
        <time>2021-05-18T15:59:36Z</time>
      </trkpt>
      <trkpt lat="41.8799530" lon="-8.8799220">
        <ele>6.8</ele>
        <time>2021-05-18T15:59:37Z</time>
      </trkpt>
      <trkpt lat="41.8799690" lon="-8.8799250">
        <ele>6.8</ele>
        <time>2021-05-18T15:59:38Z</time>
      </trkpt>
      <trkpt lat="41.8799840" lon="-8.8799250">
        <ele>6.8</ele>
        <time>2021-05-18T15:59:39Z</time>
      </trkpt>
      <trkpt lat="41.8800020" lon="-8.8799300">
        <ele>6.8</ele>
        <time>2021-05-18T15:59:40Z</time>
      </trkpt>
      <trkpt lat="41.8800170" lon="-8.8799350">
        <ele>6.8</ele>
        <time>2021-05-18T15:59:41Z</time>
      </trkpt>
      <trkpt lat="41.8800320" lon="-8.8799400">
        <ele>6.8</ele>
        <time>2021-05-18T15:59:42Z</time>
      </trkpt>
      <trkpt lat="41.8800450" lon="-8.8799430">
        <ele>6.8</ele>
        <time>2021-05-18T15:59:43Z</time>
      </trkpt>
      <trkpt lat="41.8800630" lon="-8.8799370">
        <ele>6.8</ele>
        <time>2021-05-18T15:59:44Z</time>
      </trkpt>
      <trkpt lat="41.8800780" lon="-8.8799420">
        <ele>6.8</ele>
        <time>2021-05-18T15:59:45Z</time>
      </trkpt>
      <trkpt lat="41.8800930" lon="-8.8799490">
        <ele>6.8</ele>
        <time>2021-05-18T15:59:46Z</time>
      </trkpt>
      <trkpt lat="41.8801080" lon="-8.8799560">
        <ele>6.9</ele>
        <time>2021-05-18T15:59:47Z</time>
      </trkpt>
      <trkpt lat="41.8801230" lon="-8.8799560">
        <ele>6.9</ele>
        <time>2021-05-18T15:59:48Z</time>
      </trkpt>
      <trkpt lat="41.8801350" lon="-8.8799670">
        <ele>6.9</ele>
        <time>2021-05-18T15:59:49Z</time>
      </trkpt>
      <trkpt lat="41.8801500" lon="-8.8799710">
        <ele>6.9</ele>
        <time>2021-05-18T15:59:50Z</time>
      </trkpt>
      <trkpt lat="41.8801620" lon="-8.8799800">
        <ele>6.9</ele>
        <time>2021-05-18T15:59:51Z</time>
      </trkpt>
      <trkpt lat="41.8801830" lon="-8.8799940">
        <ele>6.9</ele>
        <time>2021-05-18T15:59:52Z</time>
      </trkpt>
      <trkpt lat="41.8801910" lon="-8.8800000">
        <ele>6.9</ele>
        <time>2021-05-18T15:59:53Z</time>
      </trkpt>
      <trkpt lat="41.8802000" lon="-8.8800070">
        <ele>6.9</ele>
        <time>2021-05-18T15:59:54Z</time>
      </trkpt>
      <trkpt lat="41.8802120" lon="-8.8800140">
        <ele>6.9</ele>
        <time>2021-05-18T15:59:55Z</time>
      </trkpt>
      <trkpt lat="41.8802250" lon="-8.8800250">
        <ele>6.9</ele>
        <time>2021-05-18T15:59:56Z</time>
      </trkpt>
      <trkpt lat="41.8802370" lon="-8.8800370">
        <ele>6.9</ele>
        <time>2021-05-18T15:59:57Z</time>
      </trkpt>
      <trkpt lat="41.8802490" lon="-8.8800520">
        <ele>6.9</ele>
        <time>2021-05-18T15:59:58Z</time>
      </trkpt>
      <trkpt lat="41.8802640" lon="-8.8800550">
        <ele>6.9</ele>
        <time>2021-05-18T15:59:59Z</time>
      </trkpt>
      <trkpt lat="41.8802780" lon="-8.8800630">
        <ele>6.9</ele>
        <time>2021-05-18T16:00:00Z</time>
      </trkpt>
      <trkpt lat="41.8802910" lon="-8.8800710">
        <ele>6.9</ele>
        <time>2021-05-18T16:00:01Z</time>
      </trkpt>
      <trkpt lat="41.8803040" lon="-8.8800760">
        <ele>6.9</ele>
        <time>2021-05-18T16:00:02Z</time>
      </trkpt>
      <trkpt lat="41.8803170" lon="-8.8800790">
        <ele>6.9</ele>
        <time>2021-05-18T16:00:03Z</time>
      </trkpt>
      <trkpt lat="41.8803230" lon="-8.8800920">
        <ele>6.9</ele>
        <time>2021-05-18T16:00:04Z</time>
      </trkpt>
      <trkpt lat="41.8803290" lon="-8.8801060">
        <ele>6.9</ele>
        <time>2021-05-18T16:00:05Z</time>
      </trkpt>
      <trkpt lat="41.8803370" lon="-8.8801200">
        <ele>6.9</ele>
        <time>2021-05-18T16:00:06Z</time>
      </trkpt>
      <trkpt lat="41.8803460" lon="-8.8801340">
        <ele>6.9</ele>
        <time>2021-05-18T16:00:07Z</time>
      </trkpt>
      <trkpt lat="41.8803560" lon="-8.8801440">
        <ele>6.9</ele>
        <time>2021-05-18T16:00:08Z</time>
      </trkpt>
      <trkpt lat="41.8803650" lon="-8.8801510">
        <ele>6.9</ele>
        <time>2021-05-18T16:00:09Z</time>
      </trkpt>
      <trkpt lat="41.8803710" lon="-8.8801650">
        <ele>6.9</ele>
        <time>2021-05-18T16:00:10Z</time>
      </trkpt>
      <trkpt lat="41.8803860" lon="-8.8801820">
        <ele>6.8</ele>
        <time>2021-05-18T16:00:11Z</time>
      </trkpt>
      <trkpt lat="41.8803940" lon="-8.8801910">
        <ele>6.8</ele>
        <time>2021-05-18T16:00:12Z</time>
      </trkpt>
      <trkpt lat="41.8804050" lon="-8.8802020">
        <ele>6.8</ele>
        <time>2021-05-18T16:00:13Z</time>
      </trkpt>
      <trkpt lat="41.8804150" lon="-8.8802130">
        <ele>6.8</ele>
        <time>2021-05-18T16:00:14Z</time>
      </trkpt>
      <trkpt lat="41.8804210" lon="-8.8802310">
        <ele>6.8</ele>
        <time>2021-05-18T16:00:15Z</time>
      </trkpt>
      <trkpt lat="41.8804310" lon="-8.8802440">
        <ele>6.8</ele>
        <time>2021-05-18T16:00:16Z</time>
      </trkpt>
      <trkpt lat="41.8804410" lon="-8.8802570">
        <ele>6.8</ele>
        <time>2021-05-18T16:00:17Z</time>
      </trkpt>
      <trkpt lat="41.8804500" lon="-8.8802710">
        <ele>6.8</ele>
        <time>2021-05-18T16:00:18Z</time>
      </trkpt>
      <trkpt lat="41.8804610" lon="-8.8802850">
        <ele>6.8</ele>
        <time>2021-05-18T16:00:19Z</time>
      </trkpt>
      <trkpt lat="41.8804730" lon="-8.8802970">
        <ele>6.8</ele>
        <time>2021-05-18T16:00:20Z</time>
      </trkpt>
      <trkpt lat="41.8804830" lon="-8.8803130">
        <ele>6.8</ele>
        <time>2021-05-18T16:00:21Z</time>
      </trkpt>
      <trkpt lat="41.8804930" lon="-8.8803260">
        <ele>6.8</ele>
        <time>2021-05-18T16:00:22Z</time>
      </trkpt>
      <trkpt lat="41.8805050" lon="-8.8803380">
        <ele>6.8</ele>
        <time>2021-05-18T16:00:23Z</time>
      </trkpt>
      <trkpt lat="41.8805170" lon="-8.8803500">
        <ele>6.8</ele>
        <time>2021-05-18T16:00:24Z</time>
      </trkpt>
      <trkpt lat="41.8805270" lon="-8.8803640">
        <ele>6.8</ele>
        <time>2021-05-18T16:00:25Z</time>
      </trkpt>
      <trkpt lat="41.8805360" lon="-8.8803780">
        <ele>6.8</ele>
        <time>2021-05-18T16:00:26Z</time>
      </trkpt>
      <trkpt lat="41.8805460" lon="-8.8803930">
        <ele>6.8</ele>
        <time>2021-05-18T16:00:27Z</time>
      </trkpt>
      <trkpt lat="41.8805560" lon="-8.8804070">
        <ele>6.8</ele>
        <time>2021-05-18T16:00:28Z</time>
      </trkpt>
      <trkpt lat="41.8805670" lon="-8.8804210">
        <ele>6.8</ele>
        <time>2021-05-18T16:00:29Z</time>
      </trkpt>
      <trkpt lat="41.8805780" lon="-8.8804340">
        <ele>6.8</ele>
        <time>2021-05-18T16:00:30Z</time>
      </trkpt>
      <trkpt lat="41.8805880" lon="-8.8804490">
        <ele>6.8</ele>
        <time>2021-05-18T16:00:31Z</time>
      </trkpt>
      <trkpt lat="41.8805980" lon="-8.8804620">
        <ele>6.8</ele>
        <time>2021-05-18T16:00:32Z</time>
      </trkpt>
      <trkpt lat="41.8806080" lon="-8.8804750">
        <ele>6.8</ele>
        <time>2021-05-18T16:00:33Z</time>
      </trkpt>
      <trkpt lat="41.8806190" lon="-8.8804890">
        <ele>6.8</ele>
        <time>2021-05-18T16:00:34Z</time>
      </trkpt>
      <trkpt lat="41.8806300" lon="-8.8805040">
        <ele>6.8</ele>
        <time>2021-05-18T16:00:35Z</time>
      </trkpt>
      <trkpt lat="41.8806420" lon="-8.8805130">
        <ele>6.8</ele>
        <time>2021-05-18T16:00:36Z</time>
      </trkpt>
      <trkpt lat="41.8806520" lon="-8.8805270">
        <ele>6.8</ele>
        <time>2021-05-18T16:00:37Z</time>
      </trkpt>
      <trkpt lat="41.8806650" lon="-8.8805340">
        <ele>6.8</ele>
        <time>2021-05-18T16:00:38Z</time>
      </trkpt>
      <trkpt lat="41.8806790" lon="-8.8805460">
        <ele>6.8</ele>
        <time>2021-05-18T16:00:39Z</time>
      </trkpt>
      <trkpt lat="41.8806880" lon="-8.8805580">
        <ele>6.8</ele>
        <time>2021-05-18T16:00:40Z</time>
      </trkpt>
      <trkpt lat="41.8807000" lon="-8.8805590">
        <ele>6.8</ele>
        <time>2021-05-18T16:00:41Z</time>
      </trkpt>
      <trkpt lat="41.8807040" lon="-8.8805600">
        <ele>6.8</ele>
        <time>2021-05-18T16:00:42Z</time>
      </trkpt>
      <trkpt lat="41.8806780" lon="-8.8805520">
        <ele>6.8</ele>
        <time>2021-05-18T16:00:43Z</time>
      </trkpt>
      <trkpt lat="41.8806710" lon="-8.8805470">
        <ele>6.8</ele>
        <time>2021-05-18T16:00:44Z</time>
      </trkpt>
      <trkpt lat="41.8806680" lon="-8.8805480">
        <ele>6.8</ele>
        <time>2021-05-18T16:00:45Z</time>
      </trkpt>
      <trkpt lat="41.8806620" lon="-8.8805450">
        <ele>6.8</ele>
        <time>2021-05-18T16:00:46Z</time>
      </trkpt>
      <trkpt lat="41.8806600" lon="-8.8805440">
        <ele>6.8</ele>
        <time>2021-05-18T16:00:47Z</time>
      </trkpt>
      <trkpt lat="41.8806620" lon="-8.8805650">
        <ele>6.8</ele>
        <time>2021-05-18T16:00:48Z</time>
      </trkpt>
      <trkpt lat="41.8806650" lon="-8.8805680">
        <ele>6.8</ele>
        <time>2021-05-18T16:00:49Z</time>
      </trkpt>
      <trkpt lat="41.8806800" lon="-8.8805770">
        <ele>6.8</ele>
        <time>2021-05-18T16:00:50Z</time>
      </trkpt>
      <trkpt lat="41.8806870" lon="-8.8805900">
        <ele>6.8</ele>
        <time>2021-05-18T16:00:51Z</time>
      </trkpt>
      <trkpt lat="41.8806990" lon="-8.8806020">
        <ele>6.8</ele>
        <time>2021-05-18T16:00:52Z</time>
      </trkpt>
      <trkpt lat="41.8807070" lon="-8.8806070">
        <ele>6.8</ele>
        <time>2021-05-18T16:00:53Z</time>
      </trkpt>
      <trkpt lat="41.8807190" lon="-8.8806190">
        <ele>6.8</ele>
        <time>2021-05-18T16:00:54Z</time>
      </trkpt>
      <trkpt lat="41.8807300" lon="-8.8806220">
        <ele>6.8</ele>
        <time>2021-05-18T16:00:55Z</time>
      </trkpt>
      <trkpt lat="41.8807450" lon="-8.8806370">
        <ele>6.8</ele>
        <time>2021-05-18T16:00:56Z</time>
      </trkpt>
      <trkpt lat="41.8807500" lon="-8.8806420">
        <ele>6.8</ele>
        <time>2021-05-18T16:00:57Z</time>
      </trkpt>
      <trkpt lat="41.8807540" lon="-8.8806470">
        <ele>6.8</ele>
        <time>2021-05-18T16:00:58Z</time>
      </trkpt>
      <trkpt lat="41.8807580" lon="-8.8806520">
        <ele>6.7</ele>
        <time>2021-05-18T16:00:59Z</time>
      </trkpt>
      <trkpt lat="41.8807700" lon="-8.8806670">
        <ele>6.7</ele>
        <time>2021-05-18T16:01:00Z</time>
      </trkpt>
      <trkpt lat="41.8807760" lon="-8.8806820">
        <ele>6.7</ele>
        <time>2021-05-18T16:01:01Z</time>
      </trkpt>
      <trkpt lat="41.8807860" lon="-8.8806990">
        <ele>6.7</ele>
        <time>2021-05-18T16:01:02Z</time>
      </trkpt>
      <trkpt lat="41.8807970" lon="-8.8807090">
        <ele>6.7</ele>
        <time>2021-05-18T16:01:03Z</time>
      </trkpt>
      <trkpt lat="41.8808130" lon="-8.8807150">
        <ele>6.7</ele>
        <time>2021-05-18T16:01:04Z</time>
      </trkpt>
      <trkpt lat="41.8808240" lon="-8.8807240">
        <ele>6.7</ele>
        <time>2021-05-18T16:01:05Z</time>
      </trkpt>
      <trkpt lat="41.8808360" lon="-8.8807350">
        <ele>6.6</ele>
        <time>2021-05-18T16:01:06Z</time>
      </trkpt>
      <trkpt lat="41.8808490" lon="-8.8807430">
        <ele>6.6</ele>
        <time>2021-05-18T16:01:07Z</time>
      </trkpt>
      <trkpt lat="41.8808520" lon="-8.8807580">
        <ele>6.6</ele>
        <time>2021-05-18T16:01:08Z</time>
      </trkpt>
      <trkpt lat="41.8808600" lon="-8.8807660">
        <ele>6.6</ele>
        <time>2021-05-18T16:01:09Z</time>
      </trkpt>
      <trkpt lat="41.8808670" lon="-8.8807820">
        <ele>6.6</ele>
        <time>2021-05-18T16:01:10Z</time>
      </trkpt>
      <trkpt lat="41.8808780" lon="-8.8807940">
        <ele>6.6</ele>
        <time>2021-05-18T16:01:11Z</time>
      </trkpt>
      <trkpt lat="41.8808890" lon="-8.8808040">
        <ele>6.6</ele>
        <time>2021-05-18T16:01:12Z</time>
      </trkpt>
      <trkpt lat="41.8809010" lon="-8.8808150">
        <ele>6.6</ele>
        <time>2021-05-18T16:01:13Z</time>
      </trkpt>
      <trkpt lat="41.8809090" lon="-8.8808300">
        <ele>6.5</ele>
        <time>2021-05-18T16:01:14Z</time>
      </trkpt>
      <trkpt lat="41.8809220" lon="-8.8808390">
        <ele>6.5</ele>
        <time>2021-05-18T16:01:15Z</time>
      </trkpt>
      <trkpt lat="41.8809340" lon="-8.8808520">
        <ele>6.5</ele>
        <time>2021-05-18T16:01:16Z</time>
      </trkpt>
      <trkpt lat="41.8809480" lon="-8.8808710">
        <ele>6.5</ele>
        <time>2021-05-18T16:01:17Z</time>
      </trkpt>
      <trkpt lat="41.8809550" lon="-8.8808800">
        <ele>6.5</ele>
        <time>2021-05-18T16:01:18Z</time>
      </trkpt>
      <trkpt lat="41.8809620" lon="-8.8808880">
        <ele>6.5</ele>
        <time>2021-05-18T16:01:19Z</time>
      </trkpt>
      <trkpt lat="41.8809770" lon="-8.8808980">
        <ele>6.5</ele>
        <time>2021-05-18T16:01:20Z</time>
      </trkpt>
      <trkpt lat="41.8809840" lon="-8.8809110">
        <ele>6.5</ele>
        <time>2021-05-18T16:01:21Z</time>
      </trkpt>
      <trkpt lat="41.8809910" lon="-8.8809280">
        <ele>6.5</ele>
        <time>2021-05-18T16:01:22Z</time>
      </trkpt>
      <trkpt lat="41.8810000" lon="-8.8809410">
        <ele>6.5</ele>
        <time>2021-05-18T16:01:23Z</time>
      </trkpt>
      <trkpt lat="41.8810090" lon="-8.8809520">
        <ele>6.5</ele>
        <time>2021-05-18T16:01:24Z</time>
      </trkpt>
      <trkpt lat="41.8810160" lon="-8.8809560">
        <ele>6.5</ele>
        <time>2021-05-18T16:01:25Z</time>
      </trkpt>
      <trkpt lat="41.8810260" lon="-8.8809670">
        <ele>6.5</ele>
        <time>2021-05-18T16:01:26Z</time>
      </trkpt>
      <trkpt lat="41.8810400" lon="-8.8809760">
        <ele>6.5</ele>
        <time>2021-05-18T16:01:27Z</time>
      </trkpt>
      <trkpt lat="41.8810550" lon="-8.8809830">
        <ele>6.6</ele>
        <time>2021-05-18T16:01:28Z</time>
      </trkpt>
      <trkpt lat="41.8810650" lon="-8.8809930">
        <ele>6.6</ele>
        <time>2021-05-18T16:01:29Z</time>
      </trkpt>
      <trkpt lat="41.8810800" lon="-8.8809960">
        <ele>6.6</ele>
        <time>2021-05-18T16:01:30Z</time>
      </trkpt>
      <trkpt lat="41.8810870" lon="-8.8810060">
        <ele>6.6</ele>
        <time>2021-05-18T16:01:31Z</time>
      </trkpt>
      <trkpt lat="41.8811010" lon="-8.8810190">
        <ele>6.6</ele>
        <time>2021-05-18T16:01:32Z</time>
      </trkpt>
      <trkpt lat="41.8811130" lon="-8.8810290">
        <ele>6.6</ele>
        <time>2021-05-18T16:01:33Z</time>
      </trkpt>
      <trkpt lat="41.8811310" lon="-8.8810270">
        <ele>6.6</ele>
        <time>2021-05-18T16:01:34Z</time>
      </trkpt>
      <trkpt lat="41.8811430" lon="-8.8810320">
        <ele>6.6</ele>
        <time>2021-05-18T16:01:35Z</time>
      </trkpt>
      <trkpt lat="41.8811580" lon="-8.8810420">
        <ele>6.6</ele>
        <time>2021-05-18T16:01:36Z</time>
      </trkpt>
      <trkpt lat="41.8811680" lon="-8.8810490">
        <ele>6.6</ele>
        <time>2021-05-18T16:01:37Z</time>
      </trkpt>
      <trkpt lat="41.8811770" lon="-8.8810560">
        <ele>6.6</ele>
        <time>2021-05-18T16:01:38Z</time>
      </trkpt>
      <trkpt lat="41.8811960" lon="-8.8810690">
        <ele>6.6</ele>
        <time>2021-05-18T16:01:39Z</time>
      </trkpt>
      <trkpt lat="41.8812040" lon="-8.8810720">
        <ele>6.6</ele>
        <time>2021-05-18T16:01:40Z</time>
      </trkpt>
      <trkpt lat="41.8812120" lon="-8.8810740">
        <ele>6.6</ele>
        <time>2021-05-18T16:01:41Z</time>
      </trkpt>
      <trkpt lat="41.8812240" lon="-8.8810750">
        <ele>6.6</ele>
        <time>2021-05-18T16:01:42Z</time>
      </trkpt>
      <trkpt lat="41.8812390" lon="-8.8810800">
        <ele>6.6</ele>
        <time>2021-05-18T16:01:43Z</time>
      </trkpt>
      <trkpt lat="41.8812550" lon="-8.8810840">
        <ele>6.6</ele>
        <time>2021-05-18T16:01:44Z</time>
      </trkpt>
      <trkpt lat="41.8812560" lon="-8.8810910">
        <ele>6.6</ele>
        <time>2021-05-18T16:01:45Z</time>
      </trkpt>
      <trkpt lat="41.8812700" lon="-8.8810970">
        <ele>6.6</ele>
        <time>2021-05-18T16:01:46Z</time>
      </trkpt>
      <trkpt lat="41.8812810" lon="-8.8811020">
        <ele>6.6</ele>
        <time>2021-05-18T16:01:47Z</time>
      </trkpt>
      <trkpt lat="41.8812920" lon="-8.8811010">
        <ele>6.6</ele>
        <time>2021-05-18T16:01:48Z</time>
      </trkpt>
      <trkpt lat="41.8813040" lon="-8.8811060">
        <ele>6.6</ele>
        <time>2021-05-18T16:01:49Z</time>
      </trkpt>
      <trkpt lat="41.8813250" lon="-8.8811100">
        <ele>6.6</ele>
        <time>2021-05-18T16:01:50Z</time>
      </trkpt>
      <trkpt lat="41.8813340" lon="-8.8811110">
        <ele>6.6</ele>
        <time>2021-05-18T16:01:51Z</time>
      </trkpt>
      <trkpt lat="41.8813420" lon="-8.8811130">
        <ele>6.6</ele>
        <time>2021-05-18T16:01:52Z</time>
      </trkpt>
      <trkpt lat="41.8813580" lon="-8.8811150">
        <ele>6.6</ele>
        <time>2021-05-18T16:01:53Z</time>
      </trkpt>
      <trkpt lat="41.8813670" lon="-8.8811280">
        <ele>6.6</ele>
        <time>2021-05-18T16:01:54Z</time>
      </trkpt>
      <trkpt lat="41.8813810" lon="-8.8811330">
        <ele>6.6</ele>
        <time>2021-05-18T16:01:55Z</time>
      </trkpt>
      <trkpt lat="41.8813940" lon="-8.8811360">
        <ele>6.6</ele>
        <time>2021-05-18T16:01:56Z</time>
      </trkpt>
      <trkpt lat="41.8814170" lon="-8.8811390">
        <ele>6.6</ele>
        <time>2021-05-18T16:01:57Z</time>
      </trkpt>
      <trkpt lat="41.8814240" lon="-8.8811430">
        <ele>6.6</ele>
        <time>2021-05-18T16:01:58Z</time>
      </trkpt>
      <trkpt lat="41.8814310" lon="-8.8811470">
        <ele>6.6</ele>
        <time>2021-05-18T16:01:59Z</time>
      </trkpt>
      <trkpt lat="41.8814500" lon="-8.8811550">
        <ele>6.6</ele>
        <time>2021-05-18T16:02:00Z</time>
      </trkpt>
      <trkpt lat="41.8814590" lon="-8.8811590">
        <ele>6.5</ele>
        <time>2021-05-18T16:02:01Z</time>
      </trkpt>
      <trkpt lat="41.8814670" lon="-8.8811640">
        <ele>6.5</ele>
        <time>2021-05-18T16:02:02Z</time>
      </trkpt>
      <trkpt lat="41.8814810" lon="-8.8811680">
        <ele>6.5</ele>
        <time>2021-05-18T16:02:03Z</time>
      </trkpt>
      <trkpt lat="41.8814990" lon="-8.8811740">
        <ele>6.5</ele>
        <time>2021-05-18T16:02:04Z</time>
      </trkpt>
      <trkpt lat="41.8815040" lon="-8.8811790">
        <ele>6.5</ele>
        <time>2021-05-18T16:02:05Z</time>
      </trkpt>
      <trkpt lat="41.8815180" lon="-8.8811840">
        <ele>6.5</ele>
        <time>2021-05-18T16:02:06Z</time>
      </trkpt>
      <trkpt lat="41.8815330" lon="-8.8811890">
        <ele>6.5</ele>
        <time>2021-05-18T16:02:07Z</time>
      </trkpt>
      <trkpt lat="41.8815470" lon="-8.8811950">
        <ele>6.5</ele>
        <time>2021-05-18T16:02:08Z</time>
      </trkpt>
      <trkpt lat="41.8815610" lon="-8.8811990">
        <ele>6.5</ele>
        <time>2021-05-18T16:02:09Z</time>
      </trkpt>
      <trkpt lat="41.8815920" lon="-8.8812010">
        <ele>6.4</ele>
        <time>2021-05-18T16:02:10Z</time>
      </trkpt>
      <trkpt lat="41.8815980" lon="-8.8812020">
        <ele>6.4</ele>
        <time>2021-05-18T16:02:11Z</time>
      </trkpt>
      <trkpt lat="41.8816120" lon="-8.8812070">
        <ele>6.4</ele>
        <time>2021-05-18T16:02:12Z</time>
      </trkpt>
      <trkpt lat="41.8816260" lon="-8.8812090">
        <ele>6.4</ele>
        <time>2021-05-18T16:02:13Z</time>
      </trkpt>
      <trkpt lat="41.8816410" lon="-8.8812110">
        <ele>6.4</ele>
        <time>2021-05-18T16:02:14Z</time>
      </trkpt>
      <trkpt lat="41.8816510" lon="-8.8812190">
        <ele>6.4</ele>
        <time>2021-05-18T16:02:15Z</time>
      </trkpt>
      <trkpt lat="41.8816610" lon="-8.8812180">
        <ele>6.4</ele>
        <time>2021-05-18T16:02:16Z</time>
      </trkpt>
      <trkpt lat="41.8816740" lon="-8.8812320">
        <ele>6.4</ele>
        <time>2021-05-18T16:02:17Z</time>
      </trkpt>
      <trkpt lat="41.8816860" lon="-8.8812400">
        <ele>6.4</ele>
        <time>2021-05-18T16:02:18Z</time>
      </trkpt>
      <trkpt lat="41.8817010" lon="-8.8812400">
        <ele>6.4</ele>
        <time>2021-05-18T16:02:19Z</time>
      </trkpt>
      <trkpt lat="41.8817190" lon="-8.8812320">
        <ele>6.4</ele>
        <time>2021-05-18T16:02:20Z</time>
      </trkpt>
      <trkpt lat="41.8817290" lon="-8.8812490">
        <ele>6.4</ele>
        <time>2021-05-18T16:02:21Z</time>
      </trkpt>
      <trkpt lat="41.8817410" lon="-8.8812520">
        <ele>6.4</ele>
        <time>2021-05-18T16:02:22Z</time>
      </trkpt>
      <trkpt lat="41.8817550" lon="-8.8812650">
        <ele>6.4</ele>
        <time>2021-05-18T16:02:23Z</time>
      </trkpt>
      <trkpt lat="41.8817660" lon="-8.8812700">
        <ele>6.4</ele>
        <time>2021-05-18T16:02:24Z</time>
      </trkpt>
      <trkpt lat="41.8817850" lon="-8.8812890">
        <ele>6.5</ele>
        <time>2021-05-18T16:02:25Z</time>
      </trkpt>
      <trkpt lat="41.8817940" lon="-8.8812950">
        <ele>6.5</ele>
        <time>2021-05-18T16:02:26Z</time>
      </trkpt>
      <trkpt lat="41.8818020" lon="-8.8813020">
        <ele>6.5</ele>
        <time>2021-05-18T16:02:27Z</time>
      </trkpt>
      <trkpt lat="41.8818180" lon="-8.8813070">
        <ele>6.5</ele>
        <time>2021-05-18T16:02:28Z</time>
      </trkpt>
      <trkpt lat="41.8818290" lon="-8.8813120">
        <ele>6.5</ele>
        <time>2021-05-18T16:02:29Z</time>
      </trkpt>
      <trkpt lat="41.8818520" lon="-8.8813220">
        <ele>6.5</ele>
        <time>2021-05-18T16:02:30Z</time>
      </trkpt>
      <trkpt lat="41.8818600" lon="-8.8813270">
        <ele>6.5</ele>
        <time>2021-05-18T16:02:31Z</time>
      </trkpt>
      <trkpt lat="41.8818680" lon="-8.8813330">
        <ele>6.5</ele>
        <time>2021-05-18T16:02:32Z</time>
      </trkpt>
      <trkpt lat="41.8818810" lon="-8.8813310">
        <ele>6.6</ele>
        <time>2021-05-18T16:02:33Z</time>
      </trkpt>
      <trkpt lat="41.8818990" lon="-8.8813320">
        <ele>6.6</ele>
        <time>2021-05-18T16:02:34Z</time>
      </trkpt>
      <trkpt lat="41.8819200" lon="-8.8813370">
        <ele>6.6</ele>
        <time>2021-05-18T16:02:35Z</time>
      </trkpt>
      <trkpt lat="41.8819280" lon="-8.8813420">
        <ele>6.6</ele>
        <time>2021-05-18T16:02:36Z</time>
      </trkpt>
      <trkpt lat="41.8819370" lon="-8.8813460">
        <ele>6.6</ele>
        <time>2021-05-18T16:02:37Z</time>
      </trkpt>
      <trkpt lat="41.8819570" lon="-8.8813460">
        <ele>6.6</ele>
        <time>2021-05-18T16:02:38Z</time>
      </trkpt>
      <trkpt lat="41.8819650" lon="-8.8813450">
        <ele>6.6</ele>
        <time>2021-05-18T16:02:39Z</time>
      </trkpt>
      <trkpt lat="41.8819740" lon="-8.8813430">
        <ele>6.6</ele>
        <time>2021-05-18T16:02:40Z</time>
      </trkpt>
      <trkpt lat="41.8819980" lon="-8.8813390">
        <ele>6.6</ele>
        <time>2021-05-18T16:02:41Z</time>
      </trkpt>
      <trkpt lat="41.8820050" lon="-8.8813380">
        <ele>6.7</ele>
        <time>2021-05-18T16:02:42Z</time>
      </trkpt>
      <trkpt lat="41.8820120" lon="-8.8813380">
        <ele>6.7</ele>
        <time>2021-05-18T16:02:43Z</time>
      </trkpt>
      <trkpt lat="41.8820330" lon="-8.8813330">
        <ele>6.7</ele>
        <time>2021-05-18T16:02:44Z</time>
      </trkpt>
      <trkpt lat="41.8820400" lon="-8.8813310">
        <ele>6.7</ele>
        <time>2021-05-18T16:02:45Z</time>
      </trkpt>
      <trkpt lat="41.8820480" lon="-8.8813280">
        <ele>6.7</ele>
        <time>2021-05-18T16:02:46Z</time>
      </trkpt>
      <trkpt lat="41.8820680" lon="-8.8813230">
        <ele>6.7</ele>
        <time>2021-05-18T16:02:47Z</time>
      </trkpt>
      <trkpt lat="41.8820710" lon="-8.8813210">
        <ele>6.7</ele>
        <time>2021-05-18T16:02:48Z</time>
      </trkpt>
      <trkpt lat="41.8820840" lon="-8.8813170">
        <ele>6.7</ele>
        <time>2021-05-18T16:02:49Z</time>
      </trkpt>
      <trkpt lat="41.8821030" lon="-8.8813160">
        <ele>6.7</ele>
        <time>2021-05-18T16:02:50Z</time>
      </trkpt>
      <trkpt lat="41.8821120" lon="-8.8813130">
        <ele>6.7</ele>
        <time>2021-05-18T16:02:51Z</time>
      </trkpt>
      <trkpt lat="41.8821200" lon="-8.8813090">
        <ele>6.7</ele>
        <time>2021-05-18T16:02:52Z</time>
      </trkpt>
      <trkpt lat="41.8821440" lon="-8.8813020">
        <ele>6.7</ele>
        <time>2021-05-18T16:02:53Z</time>
      </trkpt>
      <trkpt lat="41.8821500" lon="-8.8813020">
        <ele>6.7</ele>
        <time>2021-05-18T16:02:54Z</time>
      </trkpt>
      <trkpt lat="41.8821570" lon="-8.8813030">
        <ele>6.7</ele>
        <time>2021-05-18T16:02:55Z</time>
      </trkpt>
      <trkpt lat="41.8821780" lon="-8.8813020">
        <ele>6.7</ele>
        <time>2021-05-18T16:02:56Z</time>
      </trkpt>
      <trkpt lat="41.8821860" lon="-8.8813000">
        <ele>6.7</ele>
        <time>2021-05-18T16:02:57Z</time>
      </trkpt>
      <trkpt lat="41.8821950" lon="-8.8812980">
        <ele>6.7</ele>
        <time>2021-05-18T16:02:58Z</time>
      </trkpt>
      <trkpt lat="41.8822120" lon="-8.8812920">
        <ele>6.7</ele>
        <time>2021-05-18T16:02:59Z</time>
      </trkpt>
      <trkpt lat="41.8822290" lon="-8.8812870">
        <ele>6.8</ele>
        <time>2021-05-18T16:03:00Z</time>
      </trkpt>
      <trkpt lat="41.8822440" lon="-8.8812860">
        <ele>6.8</ele>
        <time>2021-05-18T16:03:01Z</time>
      </trkpt>
      <trkpt lat="41.8822610" lon="-8.8812830">
        <ele>6.8</ele>
        <time>2021-05-18T16:03:02Z</time>
      </trkpt>
      <trkpt lat="41.8822770" lon="-8.8812810">
        <ele>6.8</ele>
        <time>2021-05-18T16:03:03Z</time>
      </trkpt>
      <trkpt lat="41.8822910" lon="-8.8812810">
        <ele>6.8</ele>
        <time>2021-05-18T16:03:04Z</time>
      </trkpt>
      <trkpt lat="41.8823070" lon="-8.8812760">
        <ele>6.8</ele>
        <time>2021-05-18T16:03:05Z</time>
      </trkpt>
      <trkpt lat="41.8823220" lon="-8.8812750">
        <ele>6.8</ele>
        <time>2021-05-18T16:03:06Z</time>
      </trkpt>
      <trkpt lat="41.8823380" lon="-8.8812790">
        <ele>6.8</ele>
        <time>2021-05-18T16:03:07Z</time>
      </trkpt>
      <trkpt lat="41.8823540" lon="-8.8812840">
        <ele>6.8</ele>
        <time>2021-05-18T16:03:08Z</time>
      </trkpt>
      <trkpt lat="41.8823690" lon="-8.8812840">
        <ele>6.8</ele>
        <time>2021-05-18T16:03:09Z</time>
      </trkpt>
      <trkpt lat="41.8823860" lon="-8.8812900">
        <ele>6.8</ele>
        <time>2021-05-18T16:03:10Z</time>
      </trkpt>
      <trkpt lat="41.8824020" lon="-8.8812910">
        <ele>6.8</ele>
        <time>2021-05-18T16:03:11Z</time>
      </trkpt>
      <trkpt lat="41.8824180" lon="-8.8812940">
        <ele>6.8</ele>
        <time>2021-05-18T16:03:12Z</time>
      </trkpt>
      <trkpt lat="41.8824350" lon="-8.8812940">
        <ele>6.8</ele>
        <time>2021-05-18T16:03:13Z</time>
      </trkpt>
      <trkpt lat="41.8824510" lon="-8.8812950">
        <ele>6.8</ele>
        <time>2021-05-18T16:03:14Z</time>
      </trkpt>
      <trkpt lat="41.8824660" lon="-8.8813060">
        <ele>6.8</ele>
        <time>2021-05-18T16:03:15Z</time>
      </trkpt>
      <trkpt lat="41.8824810" lon="-8.8813050">
        <ele>6.8</ele>
        <time>2021-05-18T16:03:16Z</time>
      </trkpt>
      <trkpt lat="41.8824950" lon="-8.8813100">
        <ele>6.8</ele>
        <time>2021-05-18T16:03:17Z</time>
      </trkpt>
      <trkpt lat="41.8825090" lon="-8.8813140">
        <ele>6.8</ele>
        <time>2021-05-18T16:03:18Z</time>
      </trkpt>
      <trkpt lat="41.8825230" lon="-8.8813220">
        <ele>6.8</ele>
        <time>2021-05-18T16:03:19Z</time>
      </trkpt>
      <trkpt lat="41.8825390" lon="-8.8813230">
        <ele>6.8</ele>
        <time>2021-05-18T16:03:20Z</time>
      </trkpt>
      <trkpt lat="41.8825520" lon="-8.8813280">
        <ele>6.8</ele>
        <time>2021-05-18T16:03:21Z</time>
      </trkpt>
      <trkpt lat="41.8825690" lon="-8.8813220">
        <ele>6.8</ele>
        <time>2021-05-18T16:03:22Z</time>
      </trkpt>
      <trkpt lat="41.8825820" lon="-8.8813210">
        <ele>6.8</ele>
        <time>2021-05-18T16:03:23Z</time>
      </trkpt>
      <trkpt lat="41.8825980" lon="-8.8813270">
        <ele>6.8</ele>
        <time>2021-05-18T16:03:24Z</time>
      </trkpt>
      <trkpt lat="41.8826120" lon="-8.8813310">
        <ele>6.8</ele>
        <time>2021-05-18T16:03:25Z</time>
      </trkpt>
      <trkpt lat="41.8826260" lon="-8.8813400">
        <ele>6.8</ele>
        <time>2021-05-18T16:03:26Z</time>
      </trkpt>
      <trkpt lat="41.8826420" lon="-8.8813410">
        <ele>6.8</ele>
        <time>2021-05-18T16:03:27Z</time>
      </trkpt>
      <trkpt lat="41.8826550" lon="-8.8813460">
        <ele>6.8</ele>
        <time>2021-05-18T16:03:28Z</time>
      </trkpt>
      <trkpt lat="41.8826680" lon="-8.8813490">
        <ele>6.8</ele>
        <time>2021-05-18T16:03:29Z</time>
      </trkpt>
      <trkpt lat="41.8826840" lon="-8.8813490">
        <ele>6.8</ele>
        <time>2021-05-18T16:03:30Z</time>
      </trkpt>
      <trkpt lat="41.8826890" lon="-8.8813530">
        <ele>6.8</ele>
        <time>2021-05-18T16:03:31Z</time>
      </trkpt>
      <trkpt lat="41.8826990" lon="-8.8813550">
        <ele>6.8</ele>
        <time>2021-05-18T16:03:32Z</time>
      </trkpt>
      <trkpt lat="41.8827140" lon="-8.8813600">
        <ele>6.8</ele>
        <time>2021-05-18T16:03:33Z</time>
      </trkpt>
      <trkpt lat="41.8827180" lon="-8.8813650">
        <ele>6.8</ele>
        <time>2021-05-18T16:03:34Z</time>
      </trkpt>
      <trkpt lat="41.8827290" lon="-8.8813690">
        <ele>6.8</ele>
        <time>2021-05-18T16:03:35Z</time>
      </trkpt>
      <trkpt lat="41.8827440" lon="-8.8813650">
        <ele>6.8</ele>
        <time>2021-05-18T16:03:36Z</time>
      </trkpt>
      <trkpt lat="41.8827570" lon="-8.8813670">
        <ele>6.8</ele>
        <time>2021-05-18T16:03:37Z</time>
      </trkpt>
      <trkpt lat="41.8827660" lon="-8.8813720">
        <ele>6.8</ele>
        <time>2021-05-18T16:03:38Z</time>
      </trkpt>
      <trkpt lat="41.8827770" lon="-8.8813660">
        <ele>6.8</ele>
        <time>2021-05-18T16:03:39Z</time>
      </trkpt>
      <trkpt lat="41.8827850" lon="-8.8813670">
        <ele>6.8</ele>
        <time>2021-05-18T16:03:40Z</time>
      </trkpt>
      <trkpt lat="41.8828010" lon="-8.8813630">
        <ele>6.8</ele>
        <time>2021-05-18T16:03:41Z</time>
      </trkpt>
      <trkpt lat="41.8828110" lon="-8.8813650">
        <ele>6.8</ele>
        <time>2021-05-18T16:03:42Z</time>
      </trkpt>
      <trkpt lat="41.8828280" lon="-8.8813630">
        <ele>6.8</ele>
        <time>2021-05-18T16:03:43Z</time>
      </trkpt>
      <trkpt lat="41.8828330" lon="-8.8813680">
        <ele>6.8</ele>
        <time>2021-05-18T16:03:44Z</time>
      </trkpt>
      <trkpt lat="41.8828470" lon="-8.8813680">
        <ele>6.8</ele>
        <time>2021-05-18T16:03:45Z</time>
      </trkpt>
      <trkpt lat="41.8828670" lon="-8.8813730">
        <ele>6.8</ele>
        <time>2021-05-18T16:03:46Z</time>
      </trkpt>
      <trkpt lat="41.8828760" lon="-8.8813750">
        <ele>6.8</ele>
        <time>2021-05-18T16:03:47Z</time>
      </trkpt>
      <trkpt lat="41.8828840" lon="-8.8813770">
        <ele>6.8</ele>
        <time>2021-05-18T16:03:48Z</time>
      </trkpt>
      <trkpt lat="41.8829040" lon="-8.8813770">
        <ele>6.8</ele>
        <time>2021-05-18T16:03:49Z</time>
      </trkpt>
      <trkpt lat="41.8829130" lon="-8.8813780">
        <ele>6.7</ele>
        <time>2021-05-18T16:03:50Z</time>
      </trkpt>
      <trkpt lat="41.8829220" lon="-8.8813780">
        <ele>6.7</ele>
        <time>2021-05-18T16:03:51Z</time>
      </trkpt>
      <trkpt lat="41.8829350" lon="-8.8813810">
        <ele>6.7</ele>
        <time>2021-05-18T16:03:52Z</time>
      </trkpt>
      <trkpt lat="41.8829470" lon="-8.8813850">
        <ele>6.7</ele>
        <time>2021-05-18T16:03:53Z</time>
      </trkpt>
      <trkpt lat="41.8829570" lon="-8.8813900">
        <ele>6.7</ele>
        <time>2021-05-18T16:03:54Z</time>
      </trkpt>
      <trkpt lat="41.8829780" lon="-8.8813950">
        <ele>6.7</ele>
        <time>2021-05-18T16:03:55Z</time>
      </trkpt>
      <trkpt lat="41.8829880" lon="-8.8813940">
        <ele>6.7</ele>
        <time>2021-05-18T16:03:56Z</time>
      </trkpt>
      <trkpt lat="41.8829980" lon="-8.8813930">
        <ele>6.7</ele>
        <time>2021-05-18T16:03:57Z</time>
      </trkpt>
      <trkpt lat="41.8830100" lon="-8.8813930">
        <ele>6.7</ele>
        <time>2021-05-18T16:03:58Z</time>
      </trkpt>
      <trkpt lat="41.8830260" lon="-8.8813940">
        <ele>6.7</ele>
        <time>2021-05-18T16:03:59Z</time>
      </trkpt>
      <trkpt lat="41.8830330" lon="-8.8813960">
        <ele>6.7</ele>
        <time>2021-05-18T16:04:00Z</time>
      </trkpt>
      <trkpt lat="41.8830450" lon="-8.8813960">
        <ele>6.7</ele>
        <time>2021-05-18T16:04:01Z</time>
      </trkpt>
      <trkpt lat="41.8830560" lon="-8.8814030">
        <ele>6.7</ele>
        <time>2021-05-18T16:04:02Z</time>
      </trkpt>
      <trkpt lat="41.8830710" lon="-8.8813990">
        <ele>6.7</ele>
        <time>2021-05-18T16:04:03Z</time>
      </trkpt>
      <trkpt lat="41.8830870" lon="-8.8813940">
        <ele>6.7</ele>
        <time>2021-05-18T16:04:04Z</time>
      </trkpt>
      <trkpt lat="41.8831000" lon="-8.8813920">
        <ele>6.7</ele>
        <time>2021-05-18T16:04:05Z</time>
      </trkpt>
      <trkpt lat="41.8831070" lon="-8.8814000">
        <ele>6.7</ele>
        <time>2021-05-18T16:04:06Z</time>
      </trkpt>
      <trkpt lat="41.8831220" lon="-8.8814030">
        <ele>6.7</ele>
        <time>2021-05-18T16:04:07Z</time>
      </trkpt>
      <trkpt lat="41.8831380" lon="-8.8814090">
        <ele>6.7</ele>
        <time>2021-05-18T16:04:08Z</time>
      </trkpt>
      <trkpt lat="41.8831450" lon="-8.8814050">
        <ele>6.7</ele>
        <time>2021-05-18T16:04:09Z</time>
      </trkpt>
      <trkpt lat="41.8831580" lon="-8.8814040">
        <ele>6.7</ele>
        <time>2021-05-18T16:04:10Z</time>
      </trkpt>
      <trkpt lat="41.8831830" lon="-8.8814030">
        <ele>6.7</ele>
        <time>2021-05-18T16:04:11Z</time>
      </trkpt>
      <trkpt lat="41.8831910" lon="-8.8814030">
        <ele>6.7</ele>
        <time>2021-05-18T16:04:12Z</time>
      </trkpt>
      <trkpt lat="41.8832000" lon="-8.8814040">
        <ele>6.7</ele>
        <time>2021-05-18T16:04:13Z</time>
      </trkpt>
      <trkpt lat="41.8832240" lon="-8.8814020">
        <ele>6.7</ele>
        <time>2021-05-18T16:04:14Z</time>
      </trkpt>
      <trkpt lat="41.8832300" lon="-8.8814020">
        <ele>6.7</ele>
        <time>2021-05-18T16:04:15Z</time>
      </trkpt>
      <trkpt lat="41.8832360" lon="-8.8814020">
        <ele>6.7</ele>
        <time>2021-05-18T16:04:16Z</time>
      </trkpt>
      <trkpt lat="41.8832480" lon="-8.8814050">
        <ele>6.7</ele>
        <time>2021-05-18T16:04:17Z</time>
      </trkpt>
      <trkpt lat="41.8832680" lon="-8.8813930">
        <ele>6.8</ele>
        <time>2021-05-18T16:04:18Z</time>
      </trkpt>
      <trkpt lat="41.8832860" lon="-8.8813920">
        <ele>6.8</ele>
        <time>2021-05-18T16:04:19Z</time>
      </trkpt>
      <trkpt lat="41.8832960" lon="-8.8813920">
        <ele>6.8</ele>
        <time>2021-05-18T16:04:20Z</time>
      </trkpt>
      <trkpt lat="41.8833050" lon="-8.8813930">
        <ele>6.8</ele>
        <time>2021-05-18T16:04:21Z</time>
      </trkpt>
      <trkpt lat="41.8833200" lon="-8.8813870">
        <ele>6.8</ele>
        <time>2021-05-18T16:04:22Z</time>
      </trkpt>
      <trkpt lat="41.8833340" lon="-8.8813870">
        <ele>6.8</ele>
        <time>2021-05-18T16:04:23Z</time>
      </trkpt>
      <trkpt lat="41.8833560" lon="-8.8813810">
        <ele>6.8</ele>
        <time>2021-05-18T16:04:24Z</time>
      </trkpt>
      <trkpt lat="41.8833640" lon="-8.8813810">
        <ele>6.8</ele>
        <time>2021-05-18T16:04:25Z</time>
      </trkpt>
      <trkpt lat="41.8833730" lon="-8.8813800">
        <ele>6.8</ele>
        <time>2021-05-18T16:04:26Z</time>
      </trkpt>
      <trkpt lat="41.8833820" lon="-8.8813790">
        <ele>6.8</ele>
        <time>2021-05-18T16:04:27Z</time>
      </trkpt>
      <trkpt lat="41.8833980" lon="-8.8813780">
        <ele>6.8</ele>
        <time>2021-05-18T16:04:28Z</time>
      </trkpt>
      <trkpt lat="41.8834050" lon="-8.8813760">
        <ele>6.8</ele>
        <time>2021-05-18T16:04:29Z</time>
      </trkpt>
      <trkpt lat="41.8834280" lon="-8.8813710">
        <ele>6.8</ele>
        <time>2021-05-18T16:04:30Z</time>
      </trkpt>
      <trkpt lat="41.8834350" lon="-8.8813700">
        <ele>6.9</ele>
        <time>2021-05-18T16:04:31Z</time>
      </trkpt>
      <trkpt lat="41.8834430" lon="-8.8813690">
        <ele>6.9</ele>
        <time>2021-05-18T16:04:32Z</time>
      </trkpt>
      <trkpt lat="41.8834660" lon="-8.8813660">
        <ele>6.9</ele>
        <time>2021-05-18T16:04:33Z</time>
      </trkpt>
      <trkpt lat="41.8834730" lon="-8.8813660">
        <ele>6.9</ele>
        <time>2021-05-18T16:04:34Z</time>
      </trkpt>
      <trkpt lat="41.8834800" lon="-8.8813660">
        <ele>6.9</ele>
        <time>2021-05-18T16:04:35Z</time>
      </trkpt>
      <trkpt lat="41.8834930" lon="-8.8813630">
        <ele>6.9</ele>
        <time>2021-05-18T16:04:36Z</time>
      </trkpt>
      <trkpt lat="41.8835080" lon="-8.8813600">
        <ele>6.9</ele>
        <time>2021-05-18T16:04:37Z</time>
      </trkpt>
      <trkpt lat="41.8835260" lon="-8.8813520">
        <ele>6.9</ele>
        <time>2021-05-18T16:04:38Z</time>
      </trkpt>
      <trkpt lat="41.8835360" lon="-8.8813500">
        <ele>6.9</ele>
        <time>2021-05-18T16:04:39Z</time>
      </trkpt>
      <trkpt lat="41.8835450" lon="-8.8813470">
        <ele>6.9</ele>
        <time>2021-05-18T16:04:40Z</time>
      </trkpt>
      <trkpt lat="41.8835640" lon="-8.8813410">
        <ele>7.0</ele>
        <time>2021-05-18T16:04:41Z</time>
      </trkpt>
      <trkpt lat="41.8835730" lon="-8.8813390">
        <ele>7.0</ele>
        <time>2021-05-18T16:04:42Z</time>
      </trkpt>
      <trkpt lat="41.8835820" lon="-8.8813360">
        <ele>7.0</ele>
        <time>2021-05-18T16:04:43Z</time>
      </trkpt>
      <trkpt lat="41.8836030" lon="-8.8813320">
        <ele>7.0</ele>
        <time>2021-05-18T16:04:44Z</time>
      </trkpt>
      <trkpt lat="41.8836120" lon="-8.8813300">
        <ele>7.0</ele>
        <time>2021-05-18T16:04:45Z</time>
      </trkpt>
      <trkpt lat="41.8836200" lon="-8.8813290">
        <ele>7.0</ele>
        <time>2021-05-18T16:04:46Z</time>
      </trkpt>
      <trkpt lat="41.8836450" lon="-8.8813250">
        <ele>7.0</ele>
        <time>2021-05-18T16:04:47Z</time>
      </trkpt>
      <trkpt lat="41.8836520" lon="-8.8813250">
        <ele>7.1</ele>
        <time>2021-05-18T16:04:48Z</time>
      </trkpt>
      <trkpt lat="41.8836600" lon="-8.8813250">
        <ele>7.1</ele>
        <time>2021-05-18T16:04:49Z</time>
      </trkpt>
      <trkpt lat="41.8836720" lon="-8.8813190">
        <ele>7.1</ele>
        <time>2021-05-18T16:04:50Z</time>
      </trkpt>
      <trkpt lat="41.8836890" lon="-8.8813130">
        <ele>7.1</ele>
        <time>2021-05-18T16:04:51Z</time>
      </trkpt>
      <trkpt lat="41.8836960" lon="-8.8813130">
        <ele>7.1</ele>
        <time>2021-05-18T16:04:52Z</time>
      </trkpt>
      <trkpt lat="41.8837120" lon="-8.8813070">
        <ele>7.1</ele>
        <time>2021-05-18T16:04:53Z</time>
      </trkpt>
      <trkpt lat="41.8837240" lon="-8.8813110">
        <ele>7.2</ele>
        <time>2021-05-18T16:04:54Z</time>
      </trkpt>
      <trkpt lat="41.8837410" lon="-8.8813110">
        <ele>7.2</ele>
        <time>2021-05-18T16:04:55Z</time>
      </trkpt>
      <trkpt lat="41.8837550" lon="-8.8813080">
        <ele>7.2</ele>
        <time>2021-05-18T16:04:56Z</time>
      </trkpt>
      <trkpt lat="41.8837750" lon="-8.8812970">
        <ele>7.2</ele>
        <time>2021-05-18T16:04:57Z</time>
      </trkpt>
      <trkpt lat="41.8837840" lon="-8.8812950">
        <ele>7.2</ele>
        <time>2021-05-18T16:04:58Z</time>
      </trkpt>
      <trkpt lat="41.8837920" lon="-8.8812920">
        <ele>7.3</ele>
        <time>2021-05-18T16:04:59Z</time>
      </trkpt>
      <trkpt lat="41.8838130" lon="-8.8812900">
        <ele>7.3</ele>
        <time>2021-05-18T16:05:00Z</time>
      </trkpt>
      <trkpt lat="41.8838220" lon="-8.8812880">
        <ele>7.3</ele>
        <time>2021-05-18T16:05:01Z</time>
      </trkpt>
      <trkpt lat="41.8838300" lon="-8.8812870">
        <ele>7.3</ele>
        <time>2021-05-18T16:05:02Z</time>
      </trkpt>
      <trkpt lat="41.8838480" lon="-8.8812880">
        <ele>7.3</ele>
        <time>2021-05-18T16:05:03Z</time>
      </trkpt>
      <trkpt lat="41.8838580" lon="-8.8812870">
        <ele>7.3</ele>
        <time>2021-05-18T16:05:04Z</time>
      </trkpt>
      <trkpt lat="41.8838670" lon="-8.8812860">
        <ele>7.3</ele>
        <time>2021-05-18T16:05:05Z</time>
      </trkpt>
      <trkpt lat="41.8838800" lon="-8.8812830">
        <ele>7.4</ele>
        <time>2021-05-18T16:05:06Z</time>
      </trkpt>
      <trkpt lat="41.8838970" lon="-8.8812770">
        <ele>7.4</ele>
        <time>2021-05-18T16:05:07Z</time>
      </trkpt>
      <trkpt lat="41.8839100" lon="-8.8812780">
        <ele>7.4</ele>
        <time>2021-05-18T16:05:08Z</time>
      </trkpt>
      <trkpt lat="41.8839190" lon="-8.8812750">
        <ele>7.4</ele>
        <time>2021-05-18T16:05:09Z</time>
      </trkpt>
      <trkpt lat="41.8839270" lon="-8.8812730">
        <ele>7.4</ele>
        <time>2021-05-18T16:05:10Z</time>
      </trkpt>
      <trkpt lat="41.8839360" lon="-8.8812700">
        <ele>7.4</ele>
        <time>2021-05-18T16:05:11Z</time>
      </trkpt>
      <trkpt lat="41.8839560" lon="-8.8812660">
        <ele>7.4</ele>
        <time>2021-05-18T16:05:12Z</time>
      </trkpt>
      <trkpt lat="41.8839650" lon="-8.8812640">
        <ele>7.4</ele>
        <time>2021-05-18T16:05:13Z</time>
      </trkpt>
      <trkpt lat="41.8839730" lon="-8.8812630">
        <ele>7.4</ele>
        <time>2021-05-18T16:05:14Z</time>
      </trkpt>
      <trkpt lat="41.8839870" lon="-8.8812640">
        <ele>7.4</ele>
        <time>2021-05-18T16:05:15Z</time>
      </trkpt>
      <trkpt lat="41.8840030" lon="-8.8812670">
        <ele>7.4</ele>
        <time>2021-05-18T16:05:16Z</time>
      </trkpt>
      <trkpt lat="41.8840230" lon="-8.8812590">
        <ele>7.5</ele>
        <time>2021-05-18T16:05:17Z</time>
      </trkpt>
      <trkpt lat="41.8840320" lon="-8.8812550">
        <ele>7.5</ele>
        <time>2021-05-18T16:05:18Z</time>
      </trkpt>
      <trkpt lat="41.8840410" lon="-8.8812520">
        <ele>7.5</ele>
        <time>2021-05-18T16:05:19Z</time>
      </trkpt>
      <trkpt lat="41.8840590" lon="-8.8812430">
        <ele>7.5</ele>
        <time>2021-05-18T16:05:20Z</time>
      </trkpt>
      <trkpt lat="41.8840690" lon="-8.8812480">
        <ele>7.5</ele>
        <time>2021-05-18T16:05:21Z</time>
      </trkpt>
      <trkpt lat="41.8840890" lon="-8.8812450">
        <ele>7.5</ele>
        <time>2021-05-18T16:05:22Z</time>
      </trkpt>
      <trkpt lat="41.8840970" lon="-8.8812410">
        <ele>7.5</ele>
        <time>2021-05-18T16:05:23Z</time>
      </trkpt>
      <trkpt lat="41.8841060" lon="-8.8812380">
        <ele>7.5</ele>
        <time>2021-05-18T16:05:24Z</time>
      </trkpt>
      <trkpt lat="41.8841210" lon="-8.8812400">
        <ele>7.5</ele>
        <time>2021-05-18T16:05:25Z</time>
      </trkpt>
      <trkpt lat="41.8841390" lon="-8.8812380">
        <ele>7.5</ele>
        <time>2021-05-18T16:05:26Z</time>
      </trkpt>
      <trkpt lat="41.8841450" lon="-8.8812340">
        <ele>7.5</ele>
        <time>2021-05-18T16:05:27Z</time>
      </trkpt>
      <trkpt lat="41.8841560" lon="-8.8812270">
        <ele>7.5</ele>
        <time>2021-05-18T16:05:28Z</time>
      </trkpt>
      <trkpt lat="41.8841680" lon="-8.8812290">
        <ele>7.5</ele>
        <time>2021-05-18T16:05:29Z</time>
      </trkpt>
      <trkpt lat="41.8841890" lon="-8.8812170">
        <ele>7.6</ele>
        <time>2021-05-18T16:05:30Z</time>
      </trkpt>
      <trkpt lat="41.8842010" lon="-8.8812230">
        <ele>7.6</ele>
        <time>2021-05-18T16:05:31Z</time>
      </trkpt>
      <trkpt lat="41.8842180" lon="-8.8812210">
        <ele>7.6</ele>
        <time>2021-05-18T16:05:32Z</time>
      </trkpt>
      <trkpt lat="41.8842230" lon="-8.8812170">
        <ele>7.6</ele>
        <time>2021-05-18T16:05:33Z</time>
      </trkpt>
      <trkpt lat="41.8842330" lon="-8.8812200">
        <ele>7.6</ele>
        <time>2021-05-18T16:05:34Z</time>
      </trkpt>
      <trkpt lat="41.8842500" lon="-8.8812180">
        <ele>7.6</ele>
        <time>2021-05-18T16:05:35Z</time>
      </trkpt>
      <trkpt lat="41.8842600" lon="-8.8812160">
        <ele>7.6</ele>
        <time>2021-05-18T16:05:36Z</time>
      </trkpt>
      <trkpt lat="41.8842740" lon="-8.8812150">
        <ele>7.6</ele>
        <time>2021-05-18T16:05:37Z</time>
      </trkpt>
      <trkpt lat="41.8842870" lon="-8.8812180">
        <ele>7.6</ele>
        <time>2021-05-18T16:05:38Z</time>
      </trkpt>
      <trkpt lat="41.8843130" lon="-8.8812080">
        <ele>7.6</ele>
        <time>2021-05-18T16:05:39Z</time>
      </trkpt>
      <trkpt lat="41.8843220" lon="-8.8812060">
        <ele>7.6</ele>
        <time>2021-05-18T16:05:40Z</time>
      </trkpt>
      <trkpt lat="41.8843310" lon="-8.8812040">
        <ele>7.6</ele>
        <time>2021-05-18T16:05:41Z</time>
      </trkpt>
      <trkpt lat="41.8843480" lon="-8.8812030">
        <ele>7.6</ele>
        <time>2021-05-18T16:05:42Z</time>
      </trkpt>
      <trkpt lat="41.8843580" lon="-8.8812020">
        <ele>7.6</ele>
        <time>2021-05-18T16:05:43Z</time>
      </trkpt>
      <trkpt lat="41.8843670" lon="-8.8812020">
        <ele>7.6</ele>
        <time>2021-05-18T16:05:44Z</time>
      </trkpt>
      <trkpt lat="41.8843780" lon="-8.8811980">
        <ele>7.6</ele>
        <time>2021-05-18T16:05:45Z</time>
      </trkpt>
      <trkpt lat="41.8843880" lon="-8.8811960">
        <ele>7.6</ele>
        <time>2021-05-18T16:05:46Z</time>
      </trkpt>
      <trkpt lat="41.8844040" lon="-8.8811970">
        <ele>7.6</ele>
        <time>2021-05-18T16:05:47Z</time>
      </trkpt>
      <trkpt lat="41.8844130" lon="-8.8812060">
        <ele>7.6</ele>
        <time>2021-05-18T16:05:48Z</time>
      </trkpt>
      <trkpt lat="41.8844250" lon="-8.8811990">
        <ele>7.6</ele>
        <time>2021-05-18T16:05:49Z</time>
      </trkpt>
      <trkpt lat="41.8844380" lon="-8.8811960">
        <ele>7.6</ele>
        <time>2021-05-18T16:05:50Z</time>
      </trkpt>
      <trkpt lat="41.8844520" lon="-8.8811970">
        <ele>7.6</ele>
        <time>2021-05-18T16:05:51Z</time>
      </trkpt>
      <trkpt lat="41.8844690" lon="-8.8811910">
        <ele>7.5</ele>
        <time>2021-05-18T16:05:52Z</time>
      </trkpt>
      <trkpt lat="41.8844770" lon="-8.8811890">
        <ele>7.5</ele>
        <time>2021-05-18T16:05:53Z</time>
      </trkpt>
      <trkpt lat="41.8844920" lon="-8.8811820">
        <ele>7.5</ele>
        <time>2021-05-18T16:05:54Z</time>
      </trkpt>
      <trkpt lat="41.8845030" lon="-8.8811820">
        <ele>7.5</ele>
        <time>2021-05-18T16:05:55Z</time>
      </trkpt>
      <trkpt lat="41.8845270" lon="-8.8811730">
        <ele>7.5</ele>
        <time>2021-05-18T16:05:56Z</time>
      </trkpt>
      <trkpt lat="41.8845370" lon="-8.8811720">
        <ele>7.5</ele>
        <time>2021-05-18T16:05:57Z</time>
      </trkpt>
      <trkpt lat="41.8845460" lon="-8.8811710">
        <ele>7.5</ele>
        <time>2021-05-18T16:05:58Z</time>
      </trkpt>
      <trkpt lat="41.8845610" lon="-8.8811750">
        <ele>7.5</ele>
        <time>2021-05-18T16:05:59Z</time>
      </trkpt>
      <trkpt lat="41.8845760" lon="-8.8811680">
        <ele>7.4</ele>
        <time>2021-05-18T16:06:00Z</time>
      </trkpt>
      <trkpt lat="41.8845910" lon="-8.8811620">
        <ele>7.4</ele>
        <time>2021-05-18T16:06:01Z</time>
      </trkpt>
      <trkpt lat="41.8845970" lon="-8.8811610">
        <ele>7.4</ele>
        <time>2021-05-18T16:06:02Z</time>
      </trkpt>
      <trkpt lat="41.8846100" lon="-8.8811590">
        <ele>7.4</ele>
        <time>2021-05-18T16:06:03Z</time>
      </trkpt>
      <trkpt lat="41.8846250" lon="-8.8811540">
        <ele>7.4</ele>
        <time>2021-05-18T16:06:04Z</time>
      </trkpt>
      <trkpt lat="41.8846390" lon="-8.8811580">
        <ele>7.4</ele>
        <time>2021-05-18T16:06:05Z</time>
      </trkpt>
      <trkpt lat="41.8846530" lon="-8.8811510">
        <ele>7.4</ele>
        <time>2021-05-18T16:06:06Z</time>
      </trkpt>
      <trkpt lat="41.8846670" lon="-8.8811500">
        <ele>7.4</ele>
        <time>2021-05-18T16:06:07Z</time>
      </trkpt>
      <trkpt lat="41.8846780" lon="-8.8811460">
        <ele>7.3</ele>
        <time>2021-05-18T16:06:08Z</time>
      </trkpt>
      <trkpt lat="41.8846910" lon="-8.8811470">
        <ele>7.3</ele>
        <time>2021-05-18T16:06:09Z</time>
      </trkpt>
      <trkpt lat="41.8847020" lon="-8.8811450">
        <ele>7.3</ele>
        <time>2021-05-18T16:06:10Z</time>
      </trkpt>
      <trkpt lat="41.8847160" lon="-8.8811430">
        <ele>7.3</ele>
        <time>2021-05-18T16:06:11Z</time>
      </trkpt>
      <trkpt lat="41.8847310" lon="-8.8811410">
        <ele>7.3</ele>
        <time>2021-05-18T16:06:12Z</time>
      </trkpt>
      <trkpt lat="41.8847450" lon="-8.8811390">
        <ele>7.3</ele>
        <time>2021-05-18T16:06:13Z</time>
      </trkpt>
      <trkpt lat="41.8847570" lon="-8.8811380">
        <ele>7.3</ele>
        <time>2021-05-18T16:06:14Z</time>
      </trkpt>
      <trkpt lat="41.8847670" lon="-8.8811400">
        <ele>7.3</ele>
        <time>2021-05-18T16:06:15Z</time>
      </trkpt>
      <trkpt lat="41.8847800" lon="-8.8811360">
        <ele>7.3</ele>
        <time>2021-05-18T16:06:16Z</time>
      </trkpt>
      <trkpt lat="41.8847990" lon="-8.8811310">
        <ele>7.3</ele>
        <time>2021-05-18T16:06:17Z</time>
      </trkpt>
      <trkpt lat="41.8848070" lon="-8.8811320">
        <ele>7.3</ele>
        <time>2021-05-18T16:06:18Z</time>
      </trkpt>
      <trkpt lat="41.8848200" lon="-8.8811330">
        <ele>7.3</ele>
        <time>2021-05-18T16:06:19Z</time>
      </trkpt>
      <trkpt lat="41.8848360" lon="-8.8811320">
        <ele>7.2</ele>
        <time>2021-05-18T16:06:20Z</time>
      </trkpt>
      <trkpt lat="41.8848520" lon="-8.8811300">
        <ele>7.2</ele>
        <time>2021-05-18T16:06:21Z</time>
      </trkpt>
      <trkpt lat="41.8848630" lon="-8.8811310">
        <ele>7.2</ele>
        <time>2021-05-18T16:06:22Z</time>
      </trkpt>
      <trkpt lat="41.8848840" lon="-8.8811310">
        <ele>7.2</ele>
        <time>2021-05-18T16:06:23Z</time>
      </trkpt>
      <trkpt lat="41.8848940" lon="-8.8811320">
        <ele>7.2</ele>
        <time>2021-05-18T16:06:24Z</time>
      </trkpt>
      <trkpt lat="41.8849050" lon="-8.8811330">
        <ele>7.2</ele>
        <time>2021-05-18T16:06:25Z</time>
      </trkpt>
      <trkpt lat="41.8849160" lon="-8.8811300">
        <ele>7.2</ele>
        <time>2021-05-18T16:06:26Z</time>
      </trkpt>
      <trkpt lat="41.8849340" lon="-8.8811290">
        <ele>7.2</ele>
        <time>2021-05-18T16:06:27Z</time>
      </trkpt>
      <trkpt lat="41.8849540" lon="-8.8811310">
        <ele>7.2</ele>
        <time>2021-05-18T16:06:28Z</time>
      </trkpt>
      <trkpt lat="41.8849640" lon="-8.8811310">
        <ele>7.2</ele>
        <time>2021-05-18T16:06:29Z</time>
      </trkpt>
      <trkpt lat="41.8849750" lon="-8.8811310">
        <ele>7.2</ele>
        <time>2021-05-18T16:06:30Z</time>
      </trkpt>
      <trkpt lat="41.8849870" lon="-8.8811290">
        <ele>7.2</ele>
        <time>2021-05-18T16:06:31Z</time>
      </trkpt>
      <trkpt lat="41.8850030" lon="-8.8811320">
        <ele>7.2</ele>
        <time>2021-05-18T16:06:32Z</time>
      </trkpt>
      <trkpt lat="41.8850180" lon="-8.8811280">
        <ele>7.2</ele>
        <time>2021-05-18T16:06:33Z</time>
      </trkpt>
      <trkpt lat="41.8850340" lon="-8.8811310">
        <ele>7.2</ele>
        <time>2021-05-18T16:06:34Z</time>
      </trkpt>
      <trkpt lat="41.8850550" lon="-8.8811330">
        <ele>7.2</ele>
        <time>2021-05-18T16:06:35Z</time>
      </trkpt>
      <trkpt lat="41.8850650" lon="-8.8811360">
        <ele>7.1</ele>
        <time>2021-05-18T16:06:36Z</time>
      </trkpt>
      <trkpt lat="41.8850750" lon="-8.8811390">
        <ele>7.1</ele>
        <time>2021-05-18T16:06:37Z</time>
      </trkpt>
      <trkpt lat="41.8850800" lon="-8.8811330">
        <ele>7.1</ele>
        <time>2021-05-18T16:06:38Z</time>
      </trkpt>
      <trkpt lat="41.8850890" lon="-8.8811330">
        <ele>7.1</ele>
        <time>2021-05-18T16:06:39Z</time>
      </trkpt>
      <trkpt lat="41.8851050" lon="-8.8811350">
        <ele>7.1</ele>
        <time>2021-05-18T16:06:40Z</time>
      </trkpt>
      <trkpt lat="41.8851300" lon="-8.8811420">
        <ele>7.1</ele>
        <time>2021-05-18T16:06:41Z</time>
      </trkpt>
      <trkpt lat="41.8851380" lon="-8.8811460">
        <ele>7.1</ele>
        <time>2021-05-18T16:06:42Z</time>
      </trkpt>
      <trkpt lat="41.8851470" lon="-8.8811490">
        <ele>7.1</ele>
        <time>2021-05-18T16:06:43Z</time>
      </trkpt>
      <trkpt lat="41.8851570" lon="-8.8811540">
        <ele>7.1</ele>
        <time>2021-05-18T16:06:44Z</time>
      </trkpt>
      <trkpt lat="41.8851720" lon="-8.8811490">
        <ele>7.1</ele>
        <time>2021-05-18T16:06:45Z</time>
      </trkpt>
      <trkpt lat="41.8851810" lon="-8.8811550">
        <ele>7.1</ele>
        <time>2021-05-18T16:06:46Z</time>
      </trkpt>
      <trkpt lat="41.8852000" lon="-8.8811530">
        <ele>7.1</ele>
        <time>2021-05-18T16:06:47Z</time>
      </trkpt>
      <trkpt lat="41.8852130" lon="-8.8811550">
        <ele>7.1</ele>
        <time>2021-05-18T16:06:48Z</time>
      </trkpt>
      <trkpt lat="41.8852230" lon="-8.8811580">
        <ele>7.1</ele>
        <time>2021-05-18T16:06:49Z</time>
      </trkpt>
      <trkpt lat="41.8852400" lon="-8.8811660">
        <ele>7.1</ele>
        <time>2021-05-18T16:06:50Z</time>
      </trkpt>
      <trkpt lat="41.8852550" lon="-8.8811680">
        <ele>7.1</ele>
        <time>2021-05-18T16:06:51Z</time>
      </trkpt>
      <trkpt lat="41.8852630" lon="-8.8811730">
        <ele>7.1</ele>
        <time>2021-05-18T16:06:52Z</time>
      </trkpt>
      <trkpt lat="41.8852740" lon="-8.8811760">
        <ele>7.1</ele>
        <time>2021-05-18T16:06:53Z</time>
      </trkpt>
      <trkpt lat="41.8852900" lon="-8.8811820">
        <ele>7.1</ele>
        <time>2021-05-18T16:06:54Z</time>
      </trkpt>
      <trkpt lat="41.8853040" lon="-8.8811870">
        <ele>7.1</ele>
        <time>2021-05-18T16:06:55Z</time>
      </trkpt>
      <trkpt lat="41.8853230" lon="-8.8811870">
        <ele>7.1</ele>
        <time>2021-05-18T16:06:56Z</time>
      </trkpt>
      <trkpt lat="41.8853340" lon="-8.8811890">
        <ele>7.1</ele>
        <time>2021-05-18T16:06:57Z</time>
      </trkpt>
      <trkpt lat="41.8853450" lon="-8.8811900">
        <ele>7.1</ele>
        <time>2021-05-18T16:06:58Z</time>
      </trkpt>
      <trkpt lat="41.8853630" lon="-8.8811960">
        <ele>7.1</ele>
        <time>2021-05-18T16:06:59Z</time>
      </trkpt>
      <trkpt lat="41.8853740" lon="-8.8811990">
        <ele>7.1</ele>
        <time>2021-05-18T16:07:00Z</time>
      </trkpt>
      <trkpt lat="41.8853840" lon="-8.8812010">
        <ele>7.1</ele>
        <time>2021-05-18T16:07:01Z</time>
      </trkpt>
      <trkpt lat="41.8853910" lon="-8.8812080">
        <ele>7.1</ele>
        <time>2021-05-18T16:07:02Z</time>
      </trkpt>
      <trkpt lat="41.8854000" lon="-8.8812070">
        <ele>7.1</ele>
        <time>2021-05-18T16:07:03Z</time>
      </trkpt>
      <trkpt lat="41.8854140" lon="-8.8812120">
        <ele>7.1</ele>
        <time>2021-05-18T16:07:04Z</time>
      </trkpt>
      <trkpt lat="41.8854400" lon="-8.8812170">
        <ele>7.1</ele>
        <time>2021-05-18T16:07:05Z</time>
      </trkpt>
      <trkpt lat="41.8854460" lon="-8.8812200">
        <ele>7.1</ele>
        <time>2021-05-18T16:07:06Z</time>
      </trkpt>
      <trkpt lat="41.8854530" lon="-8.8812220">
        <ele>7.1</ele>
        <time>2021-05-18T16:07:07Z</time>
      </trkpt>
      <trkpt lat="41.8854630" lon="-8.8812230">
        <ele>7.1</ele>
        <time>2021-05-18T16:07:08Z</time>
      </trkpt>
      <trkpt lat="41.8854740" lon="-8.8812260">
        <ele>7.1</ele>
        <time>2021-05-18T16:07:09Z</time>
      </trkpt>
      <trkpt lat="41.8854840" lon="-8.8812300">
        <ele>7.1</ele>
        <time>2021-05-18T16:07:10Z</time>
      </trkpt>
      <trkpt lat="41.8854960" lon="-8.8812360">
        <ele>7.1</ele>
        <time>2021-05-18T16:07:11Z</time>
      </trkpt>
      <trkpt lat="41.8855130" lon="-8.8812360">
        <ele>7.1</ele>
        <time>2021-05-18T16:07:12Z</time>
      </trkpt>
      <trkpt lat="41.8855350" lon="-8.8812380">
        <ele>7.1</ele>
        <time>2021-05-18T16:07:13Z</time>
      </trkpt>
      <trkpt lat="41.8855440" lon="-8.8812380">
        <ele>7.1</ele>
        <time>2021-05-18T16:07:14Z</time>
      </trkpt>
      <trkpt lat="41.8855520" lon="-8.8812380">
        <ele>7.1</ele>
        <time>2021-05-18T16:07:15Z</time>
      </trkpt>
      <trkpt lat="41.8855620" lon="-8.8812340">
        <ele>7.1</ele>
        <time>2021-05-18T16:07:16Z</time>
      </trkpt>
      <trkpt lat="41.8855780" lon="-8.8812340">
        <ele>7.1</ele>
        <time>2021-05-18T16:07:17Z</time>
      </trkpt>
      <trkpt lat="41.8855880" lon="-8.8812380">
        <ele>7.1</ele>
        <time>2021-05-18T16:07:18Z</time>
      </trkpt>
      <trkpt lat="41.8856070" lon="-8.8812290">
        <ele>7.1</ele>
        <time>2021-05-18T16:07:19Z</time>
      </trkpt>
      <trkpt lat="41.8856180" lon="-8.8812250">
        <ele>7.1</ele>
        <time>2021-05-18T16:07:20Z</time>
      </trkpt>
      <trkpt lat="41.8856310" lon="-8.8812210">
        <ele>7.1</ele>
        <time>2021-05-18T16:07:21Z</time>
      </trkpt>
      <trkpt lat="41.8856460" lon="-8.8812170">
        <ele>7.1</ele>
        <time>2021-05-18T16:07:22Z</time>
      </trkpt>
      <trkpt lat="41.8856670" lon="-8.8812150">
        <ele>7.1</ele>
        <time>2021-05-18T16:07:23Z</time>
      </trkpt>
      <trkpt lat="41.8856750" lon="-8.8812140">
        <ele>7.1</ele>
        <time>2021-05-18T16:07:24Z</time>
      </trkpt>
      <trkpt lat="41.8856840" lon="-8.8812120">
        <ele>7.1</ele>
        <time>2021-05-18T16:07:25Z</time>
      </trkpt>
      <trkpt lat="41.8857050" lon="-8.8812030">
        <ele>7.2</ele>
        <time>2021-05-18T16:07:26Z</time>
      </trkpt>
      <trkpt lat="41.8857120" lon="-8.8812010">
        <ele>7.2</ele>
        <time>2021-05-18T16:07:27Z</time>
      </trkpt>
      <trkpt lat="41.8857190" lon="-8.8811980">
        <ele>7.2</ele>
        <time>2021-05-18T16:07:28Z</time>
      </trkpt>
      <trkpt lat="41.8857330" lon="-8.8811980">
        <ele>7.2</ele>
        <time>2021-05-18T16:07:29Z</time>
      </trkpt>
      <trkpt lat="41.8857460" lon="-8.8811960">
        <ele>7.2</ele>
        <time>2021-05-18T16:07:30Z</time>
      </trkpt>
      <trkpt lat="41.8857600" lon="-8.8811940">
        <ele>7.2</ele>
        <time>2021-05-18T16:07:31Z</time>
      </trkpt>
      <trkpt lat="41.8857740" lon="-8.8811930">
        <ele>7.2</ele>
        <time>2021-05-18T16:07:32Z</time>
      </trkpt>
      <trkpt lat="41.8857910" lon="-8.8811820">
        <ele>7.2</ele>
        <time>2021-05-18T16:07:33Z</time>
      </trkpt>
      <trkpt lat="41.8858000" lon="-8.8811780">
        <ele>7.2</ele>
        <time>2021-05-18T16:07:34Z</time>
      </trkpt>
      <trkpt lat="41.8858170" lon="-8.8811740">
        <ele>7.2</ele>
        <time>2021-05-18T16:07:35Z</time>
      </trkpt>
      <trkpt lat="41.8858330" lon="-8.8811720">
        <ele>7.2</ele>
        <time>2021-05-18T16:07:36Z</time>
      </trkpt>
      <trkpt lat="41.8858460" lon="-8.8811650">
        <ele>7.2</ele>
        <time>2021-05-18T16:07:37Z</time>
      </trkpt>
      <trkpt lat="41.8858580" lon="-8.8811630">
        <ele>7.2</ele>
        <time>2021-05-18T16:07:38Z</time>
      </trkpt>
      <trkpt lat="41.8858680" lon="-8.8811640">
        <ele>7.2</ele>
        <time>2021-05-18T16:07:39Z</time>
      </trkpt>
      <trkpt lat="41.8858840" lon="-8.8811650">
        <ele>7.2</ele>
        <time>2021-05-18T16:07:40Z</time>
      </trkpt>
      <trkpt lat="41.8859000" lon="-8.8811520">
        <ele>7.2</ele>
        <time>2021-05-18T16:07:41Z</time>
      </trkpt>
      <trkpt lat="41.8859090" lon="-8.8811560">
        <ele>7.2</ele>
        <time>2021-05-18T16:07:42Z</time>
      </trkpt>
      <trkpt lat="41.8859230" lon="-8.8811530">
        <ele>7.2</ele>
        <time>2021-05-18T16:07:43Z</time>
      </trkpt>
      <trkpt lat="41.8859320" lon="-8.8811440">
        <ele>7.2</ele>
        <time>2021-05-18T16:07:44Z</time>
      </trkpt>
      <trkpt lat="41.8859490" lon="-8.8811370">
        <ele>7.2</ele>
        <time>2021-05-18T16:07:45Z</time>
      </trkpt>
      <trkpt lat="41.8859620" lon="-8.8811370">
        <ele>7.2</ele>
        <time>2021-05-18T16:07:46Z</time>
      </trkpt>
      <trkpt lat="41.8859860" lon="-8.8811360">
        <ele>7.1</ele>
        <time>2021-05-18T16:07:47Z</time>
      </trkpt>
      <trkpt lat="41.8859970" lon="-8.8811340">
        <ele>7.1</ele>
        <time>2021-05-18T16:07:48Z</time>
      </trkpt>
      <trkpt lat="41.8860070" lon="-8.8811310">
        <ele>7.1</ele>
        <time>2021-05-18T16:07:49Z</time>
      </trkpt>
      <trkpt lat="41.8860240" lon="-8.8811210">
        <ele>7.1</ele>
        <time>2021-05-18T16:07:50Z</time>
      </trkpt>
      <trkpt lat="41.8860380" lon="-8.8811190">
        <ele>7.1</ele>
        <time>2021-05-18T16:07:51Z</time>
      </trkpt>
      <trkpt lat="41.8860550" lon="-8.8811220">
        <ele>7.1</ele>
        <time>2021-05-18T16:07:52Z</time>
      </trkpt>
      <trkpt lat="41.8860700" lon="-8.8811150">
        <ele>7.1</ele>
        <time>2021-05-18T16:07:53Z</time>
      </trkpt>
      <trkpt lat="41.8860870" lon="-8.8811150">
        <ele>7.1</ele>
        <time>2021-05-18T16:07:54Z</time>
      </trkpt>
      <trkpt lat="41.8861010" lon="-8.8811110">
        <ele>7.1</ele>
        <time>2021-05-18T16:07:55Z</time>
      </trkpt>
      <trkpt lat="41.8861170" lon="-8.8811070">
        <ele>7.1</ele>
        <time>2021-05-18T16:07:56Z</time>
      </trkpt>
      <trkpt lat="41.8861300" lon="-8.8810990">
        <ele>7.1</ele>
        <time>2021-05-18T16:07:57Z</time>
      </trkpt>
      <trkpt lat="41.8861450" lon="-8.8810990">
        <ele>7.1</ele>
        <time>2021-05-18T16:07:58Z</time>
      </trkpt>
      <trkpt lat="41.8861600" lon="-8.8810880">
        <ele>7.1</ele>
        <time>2021-05-18T16:07:59Z</time>
      </trkpt>
      <trkpt lat="41.8861730" lon="-8.8810810">
        <ele>7.1</ele>
        <time>2021-05-18T16:08:00Z</time>
      </trkpt>
      <trkpt lat="41.8861900" lon="-8.8810840">
        <ele>7.1</ele>
        <time>2021-05-18T16:08:01Z</time>
      </trkpt>
      <trkpt lat="41.8862070" lon="-8.8810880">
        <ele>7.1</ele>
        <time>2021-05-18T16:08:02Z</time>
      </trkpt>
      <trkpt lat="41.8862210" lon="-8.8810820">
        <ele>7.1</ele>
        <time>2021-05-18T16:08:03Z</time>
      </trkpt>
      <trkpt lat="41.8862370" lon="-8.8810770">
        <ele>7.1</ele>
        <time>2021-05-18T16:08:04Z</time>
      </trkpt>
      <trkpt lat="41.8862490" lon="-8.8810710">
        <ele>7.1</ele>
        <time>2021-05-18T16:08:05Z</time>
      </trkpt>
      <trkpt lat="41.8862650" lon="-8.8810690">
        <ele>7.1</ele>
        <time>2021-05-18T16:08:06Z</time>
      </trkpt>
      <trkpt lat="41.8862790" lon="-8.8810620">
        <ele>7.1</ele>
        <time>2021-05-18T16:08:07Z</time>
      </trkpt>
      <trkpt lat="41.8862940" lon="-8.8810630">
        <ele>7.1</ele>
        <time>2021-05-18T16:08:08Z</time>
      </trkpt>
      <trkpt lat="41.8863050" lon="-8.8810530">
        <ele>7.1</ele>
        <time>2021-05-18T16:08:09Z</time>
      </trkpt>
      <trkpt lat="41.8863270" lon="-8.8810410">
        <ele>7.1</ele>
        <time>2021-05-18T16:08:10Z</time>
      </trkpt>
      <trkpt lat="41.8863350" lon="-8.8810370">
        <ele>7.1</ele>
        <time>2021-05-18T16:08:11Z</time>
      </trkpt>
      <trkpt lat="41.8863430" lon="-8.8810320">
        <ele>7.1</ele>
        <time>2021-05-18T16:08:12Z</time>
      </trkpt>
      <trkpt lat="41.8863590" lon="-8.8810310">
        <ele>7.1</ele>
        <time>2021-05-18T16:08:13Z</time>
      </trkpt>
      <trkpt lat="41.8863720" lon="-8.8810200">
        <ele>7.1</ele>
        <time>2021-05-18T16:08:14Z</time>
      </trkpt>
      <trkpt lat="41.8863880" lon="-8.8810200">
        <ele>7.1</ele>
        <time>2021-05-18T16:08:15Z</time>
      </trkpt>
      <trkpt lat="41.8864040" lon="-8.8810270">
        <ele>7.1</ele>
        <time>2021-05-18T16:08:16Z</time>
      </trkpt>
      <trkpt lat="41.8864200" lon="-8.8810180">
        <ele>7.1</ele>
        <time>2021-05-18T16:08:17Z</time>
      </trkpt>
      <trkpt lat="41.8864350" lon="-8.8810160">
        <ele>7.1</ele>
        <time>2021-05-18T16:08:18Z</time>
      </trkpt>
      <trkpt lat="41.8864490" lon="-8.8810100">
        <ele>7.1</ele>
        <time>2021-05-18T16:08:19Z</time>
      </trkpt>
      <trkpt lat="41.8864510" lon="-8.8810080">
        <ele>7.1</ele>
        <time>2021-05-18T16:08:20Z</time>
      </trkpt>
      <trkpt lat="41.8864650" lon="-8.8810110">
        <ele>7.1</ele>
        <time>2021-05-18T16:08:21Z</time>
      </trkpt>
      <trkpt lat="41.8864890" lon="-8.8810070">
        <ele>7.1</ele>
        <time>2021-05-18T16:08:22Z</time>
      </trkpt>
      <trkpt lat="41.8864980" lon="-8.8810060">
        <ele>7.1</ele>
        <time>2021-05-18T16:08:23Z</time>
      </trkpt>
      <trkpt lat="41.8865070" lon="-8.8810040">
        <ele>7.1</ele>
        <time>2021-05-18T16:08:24Z</time>
      </trkpt>
      <trkpt lat="41.8865160" lon="-8.8810000">
        <ele>7.1</ele>
        <time>2021-05-18T16:08:25Z</time>
      </trkpt>
      <trkpt lat="41.8865310" lon="-8.8810000">
        <ele>7.1</ele>
        <time>2021-05-18T16:08:26Z</time>
      </trkpt>
      <trkpt lat="41.8865400" lon="-8.8810020">
        <ele>7.1</ele>
        <time>2021-05-18T16:08:27Z</time>
      </trkpt>
      <trkpt lat="41.8865540" lon="-8.8809930">
        <ele>7.1</ele>
        <time>2021-05-18T16:08:28Z</time>
      </trkpt>
      <trkpt lat="41.8865620" lon="-8.8809910">
        <ele>7.2</ele>
        <time>2021-05-18T16:08:29Z</time>
      </trkpt>
      <trkpt lat="41.8865740" lon="-8.8809920">
        <ele>7.2</ele>
        <time>2021-05-18T16:08:30Z</time>
      </trkpt>
      <trkpt lat="41.8865940" lon="-8.8809920">
        <ele>7.2</ele>
        <time>2021-05-18T16:08:31Z</time>
      </trkpt>
      <trkpt lat="41.8866030" lon="-8.8809910">
        <ele>7.2</ele>
        <time>2021-05-18T16:08:32Z</time>
      </trkpt>
      <trkpt lat="41.8866110" lon="-8.8809890">
        <ele>7.2</ele>
        <time>2021-05-18T16:08:33Z</time>
      </trkpt>
      <trkpt lat="41.8866300" lon="-8.8809860">
        <ele>7.2</ele>
        <time>2021-05-18T16:08:34Z</time>
      </trkpt>
      <trkpt lat="41.8866390" lon="-8.8809850">
        <ele>7.2</ele>
        <time>2021-05-18T16:08:35Z</time>
      </trkpt>
      <trkpt lat="41.8866490" lon="-8.8809830">
        <ele>7.2</ele>
        <time>2021-05-18T16:08:36Z</time>
      </trkpt>
      <trkpt lat="41.8866590" lon="-8.8809760">
        <ele>7.2</ele>
        <time>2021-05-18T16:08:37Z</time>
      </trkpt>
      <trkpt lat="41.8866690" lon="-8.8809700">
        <ele>7.2</ele>
        <time>2021-05-18T16:08:38Z</time>
      </trkpt>
      <trkpt lat="41.8866830" lon="-8.8809700">
        <ele>7.2</ele>
        <time>2021-05-18T16:08:39Z</time>
      </trkpt>
      <trkpt lat="41.8866940" lon="-8.8809730">
        <ele>7.2</ele>
        <time>2021-05-18T16:08:40Z</time>
      </trkpt>
      <trkpt lat="41.8867090" lon="-8.8809700">
        <ele>7.2</ele>
        <time>2021-05-18T16:08:41Z</time>
      </trkpt>
      <trkpt lat="41.8867180" lon="-8.8809670">
        <ele>7.2</ele>
        <time>2021-05-18T16:08:42Z</time>
      </trkpt>
      <trkpt lat="41.8867440" lon="-8.8809620">
        <ele>7.3</ele>
        <time>2021-05-18T16:08:43Z</time>
      </trkpt>
      <trkpt lat="41.8867510" lon="-8.8809610">
        <ele>7.3</ele>
        <time>2021-05-18T16:08:44Z</time>
      </trkpt>
      <trkpt lat="41.8867590" lon="-8.8809590">
        <ele>7.3</ele>
        <time>2021-05-18T16:08:45Z</time>
      </trkpt>
      <trkpt lat="41.8867690" lon="-8.8809600">
        <ele>7.3</ele>
        <time>2021-05-18T16:08:46Z</time>
      </trkpt>
      <trkpt lat="41.8867800" lon="-8.8809510">
        <ele>7.3</ele>
        <time>2021-05-18T16:08:47Z</time>
      </trkpt>
      <trkpt lat="41.8867940" lon="-8.8809480">
        <ele>7.3</ele>
        <time>2021-05-18T16:08:48Z</time>
      </trkpt>
      <trkpt lat="41.8868140" lon="-8.8809400">
        <ele>7.3</ele>
        <time>2021-05-18T16:08:49Z</time>
      </trkpt>
      <trkpt lat="41.8868240" lon="-8.8809380">
        <ele>7.3</ele>
        <time>2021-05-18T16:08:50Z</time>
      </trkpt>
      <trkpt lat="41.8868350" lon="-8.8809360">
        <ele>7.3</ele>
        <time>2021-05-18T16:08:51Z</time>
      </trkpt>
      <trkpt lat="41.8868550" lon="-8.8809330">
        <ele>7.3</ele>
        <time>2021-05-18T16:08:52Z</time>
      </trkpt>
      <trkpt lat="41.8868640" lon="-8.8809290">
        <ele>7.3</ele>
        <time>2021-05-18T16:08:53Z</time>
      </trkpt>
      <trkpt lat="41.8868740" lon="-8.8809240">
        <ele>7.3</ele>
        <time>2021-05-18T16:08:54Z</time>
      </trkpt>
      <trkpt lat="41.8868820" lon="-8.8809230">
        <ele>7.4</ele>
        <time>2021-05-18T16:08:55Z</time>
      </trkpt>
      <trkpt lat="41.8868940" lon="-8.8809230">
        <ele>7.4</ele>
        <time>2021-05-18T16:08:56Z</time>
      </trkpt>
      <trkpt lat="41.8869070" lon="-8.8809200">
        <ele>7.4</ele>
        <time>2021-05-18T16:08:57Z</time>
      </trkpt>
      <trkpt lat="41.8869280" lon="-8.8809130">
        <ele>7.4</ele>
        <time>2021-05-18T16:08:58Z</time>
      </trkpt>
      <trkpt lat="41.8869360" lon="-8.8809100">
        <ele>7.4</ele>
        <time>2021-05-18T16:08:59Z</time>
      </trkpt>
      <trkpt lat="41.8869430" lon="-8.8809070">
        <ele>7.4</ele>
        <time>2021-05-18T16:09:00Z</time>
      </trkpt>
      <trkpt lat="41.8869610" lon="-8.8808990">
        <ele>7.5</ele>
        <time>2021-05-18T16:09:01Z</time>
      </trkpt>
      <trkpt lat="41.8869720" lon="-8.8809030">
        <ele>7.5</ele>
        <time>2021-05-18T16:09:02Z</time>
      </trkpt>
      <trkpt lat="41.8869860" lon="-8.8808980">
        <ele>7.5</ele>
        <time>2021-05-18T16:09:03Z</time>
      </trkpt>
      <trkpt lat="41.8870020" lon="-8.8808950">
        <ele>7.5</ele>
        <time>2021-05-18T16:09:04Z</time>
      </trkpt>
      <trkpt lat="41.8870270" lon="-8.8808870">
        <ele>7.6</ele>
        <time>2021-05-18T16:09:05Z</time>
      </trkpt>
      <trkpt lat="41.8870340" lon="-8.8808870">
        <ele>7.6</ele>
        <time>2021-05-18T16:09:06Z</time>
      </trkpt>
      <trkpt lat="41.8870410" lon="-8.8808860">
        <ele>7.6</ele>
        <time>2021-05-18T16:09:07Z</time>
      </trkpt>
      <trkpt lat="41.8870520" lon="-8.8808900">
        <ele>7.6</ele>
        <time>2021-05-18T16:09:08Z</time>
      </trkpt>
      <trkpt lat="41.8870650" lon="-8.8808860">
        <ele>7.7</ele>
        <time>2021-05-18T16:09:09Z</time>
      </trkpt>
      <trkpt lat="41.8870750" lon="-8.8808820">
        <ele>7.7</ele>
        <time>2021-05-18T16:09:10Z</time>
      </trkpt>
      <trkpt lat="41.8870970" lon="-8.8808810">
        <ele>7.8</ele>
        <time>2021-05-18T16:09:11Z</time>
      </trkpt>
      <trkpt lat="41.8871050" lon="-8.8808810">
        <ele>7.8</ele>
        <time>2021-05-18T16:09:12Z</time>
      </trkpt>
      <trkpt lat="41.8871130" lon="-8.8808810">
        <ele>7.8</ele>
        <time>2021-05-18T16:09:13Z</time>
      </trkpt>
      <trkpt lat="41.8871280" lon="-8.8808780">
        <ele>7.9</ele>
        <time>2021-05-18T16:09:14Z</time>
      </trkpt>
      <trkpt lat="41.8871450" lon="-8.8808730">
        <ele>7.9</ele>
        <time>2021-05-18T16:09:15Z</time>
      </trkpt>
      <trkpt lat="41.8871570" lon="-8.8808710">
        <ele>8.0</ele>
        <time>2021-05-18T16:09:16Z</time>
      </trkpt>
      <trkpt lat="41.8871730" lon="-8.8808690">
        <ele>8.0</ele>
        <time>2021-05-18T16:09:17Z</time>
      </trkpt>
      <trkpt lat="41.8871930" lon="-8.8808640">
        <ele>8.1</ele>
        <time>2021-05-18T16:09:18Z</time>
      </trkpt>
      <trkpt lat="41.8872020" lon="-8.8808640">
        <ele>8.1</ele>
        <time>2021-05-18T16:09:19Z</time>
      </trkpt>
      <trkpt lat="41.8872110" lon="-8.8808650">
        <ele>8.2</ele>
        <time>2021-05-18T16:09:20Z</time>
      </trkpt>
      <trkpt lat="41.8872260" lon="-8.8808630">
        <ele>8.2</ele>
        <time>2021-05-18T16:09:21Z</time>
      </trkpt>
      <trkpt lat="41.8872400" lon="-8.8808560">
        <ele>8.3</ele>
        <time>2021-05-18T16:09:22Z</time>
      </trkpt>
      <trkpt lat="41.8872540" lon="-8.8808480">
        <ele>8.3</ele>
        <time>2021-05-18T16:09:23Z</time>
      </trkpt>
      <trkpt lat="41.8872630" lon="-8.8808490">
        <ele>8.4</ele>
        <time>2021-05-18T16:09:24Z</time>
      </trkpt>
      <trkpt lat="41.8872750" lon="-8.8808460">
        <ele>8.4</ele>
        <time>2021-05-18T16:09:25Z</time>
      </trkpt>
      <trkpt lat="41.8872880" lon="-8.8808450">
        <ele>8.5</ele>
        <time>2021-05-18T16:09:26Z</time>
      </trkpt>
      <trkpt lat="41.8873020" lon="-8.8808390">
        <ele>8.5</ele>
        <time>2021-05-18T16:09:27Z</time>
      </trkpt>
      <trkpt lat="41.8873100" lon="-8.8808330">
        <ele>8.6</ele>
        <time>2021-05-18T16:09:28Z</time>
      </trkpt>
      <trkpt lat="41.8873180" lon="-8.8808250">
        <ele>8.6</ele>
        <time>2021-05-18T16:09:29Z</time>
      </trkpt>
      <trkpt lat="41.8873330" lon="-8.8808160">
        <ele>8.7</ele>
        <time>2021-05-18T16:09:30Z</time>
      </trkpt>
      <trkpt lat="41.8873480" lon="-8.8808120">
        <ele>8.7</ele>
        <time>2021-05-18T16:09:31Z</time>
      </trkpt>
      <trkpt lat="41.8873610" lon="-8.8808050">
        <ele>8.8</ele>
        <time>2021-05-18T16:09:32Z</time>
      </trkpt>
      <trkpt lat="41.8873670" lon="-8.8808000">
        <ele>8.8</ele>
        <time>2021-05-18T16:09:33Z</time>
      </trkpt>
      <trkpt lat="41.8873760" lon="-8.8807950">
        <ele>8.9</ele>
        <time>2021-05-18T16:09:34Z</time>
      </trkpt>
      <trkpt lat="41.8873870" lon="-8.8807890">
        <ele>8.9</ele>
        <time>2021-05-18T16:09:35Z</time>
      </trkpt>
      <trkpt lat="41.8874050" lon="-8.8807780">
        <ele>9.0</ele>
        <time>2021-05-18T16:09:36Z</time>
      </trkpt>
      <trkpt lat="41.8874120" lon="-8.8807720">
        <ele>9.0</ele>
        <time>2021-05-18T16:09:37Z</time>
      </trkpt>
      <trkpt lat="41.8874200" lon="-8.8807670">
        <ele>9.1</ele>
        <time>2021-05-18T16:09:38Z</time>
      </trkpt>
      <trkpt lat="41.8874300" lon="-8.8807600">
        <ele>9.1</ele>
        <time>2021-05-18T16:09:39Z</time>
      </trkpt>
      <trkpt lat="41.8874410" lon="-8.8807530">
        <ele>9.2</ele>
        <time>2021-05-18T16:09:40Z</time>
      </trkpt>
      <trkpt lat="41.8874500" lon="-8.8807520">
        <ele>9.2</ele>
        <time>2021-05-18T16:09:41Z</time>
      </trkpt>
      <trkpt lat="41.8874700" lon="-8.8807340">
        <ele>9.3</ele>
        <time>2021-05-18T16:09:42Z</time>
      </trkpt>
      <trkpt lat="41.8874780" lon="-8.8807300">
        <ele>9.4</ele>
        <time>2021-05-18T16:09:43Z</time>
      </trkpt>
      <trkpt lat="41.8874850" lon="-8.8807270">
        <ele>9.4</ele>
        <time>2021-05-18T16:09:44Z</time>
      </trkpt>
      <trkpt lat="41.8874950" lon="-8.8807230">
        <ele>9.5</ele>
        <time>2021-05-18T16:09:45Z</time>
      </trkpt>
      <trkpt lat="41.8875080" lon="-8.8807190">
        <ele>9.5</ele>
        <time>2021-05-18T16:09:46Z</time>
      </trkpt>
      <trkpt lat="41.8875180" lon="-8.8807120">
        <ele>9.6</ele>
        <time>2021-05-18T16:09:47Z</time>
      </trkpt>
      <trkpt lat="41.8875420" lon="-8.8807020">
        <ele>9.7</ele>
        <time>2021-05-18T16:09:48Z</time>
      </trkpt>
      <trkpt lat="41.8875490" lon="-8.8806990">
        <ele>9.7</ele>
        <time>2021-05-18T16:09:49Z</time>
      </trkpt>
      <trkpt lat="41.8875570" lon="-8.8806960">
        <ele>9.7</ele>
        <time>2021-05-18T16:09:50Z</time>
      </trkpt>
      <trkpt lat="41.8875700" lon="-8.8806940">
        <ele>9.8</ele>
        <time>2021-05-18T16:09:51Z</time>
      </trkpt>
      <trkpt lat="41.8875840" lon="-8.8806860">
        <ele>9.8</ele>
        <time>2021-05-18T16:09:52Z</time>
      </trkpt>
      <trkpt lat="41.8876010" lon="-8.8806720">
        <ele>9.9</ele>
        <time>2021-05-18T16:09:53Z</time>
      </trkpt>
      <trkpt lat="41.8876100" lon="-8.8806670">
        <ele>9.9</ele>
        <time>2021-05-18T16:09:54Z</time>
      </trkpt>
      <trkpt lat="41.8876180" lon="-8.8806610">
        <ele>9.9</ele>
        <time>2021-05-18T16:09:55Z</time>
      </trkpt>
      <trkpt lat="41.8876350" lon="-8.8806500">
        <ele>10.0</ele>
        <time>2021-05-18T16:09:56Z</time>
      </trkpt>
      <trkpt lat="41.8876430" lon="-8.8806460">
        <ele>10.0</ele>
        <time>2021-05-18T16:09:57Z</time>
      </trkpt>
      <trkpt lat="41.8876520" lon="-8.8806410">
        <ele>10.0</ele>
        <time>2021-05-18T16:09:58Z</time>
      </trkpt>
      <trkpt lat="41.8876700" lon="-8.8806350">
        <ele>10.1</ele>
        <time>2021-05-18T16:09:59Z</time>
      </trkpt>
      <trkpt lat="41.8876800" lon="-8.8806300">
        <ele>10.1</ele>
        <time>2021-05-18T16:10:00Z</time>
      </trkpt>
      <trkpt lat="41.8876890" lon="-8.8806260">
        <ele>10.1</ele>
        <time>2021-05-18T16:10:01Z</time>
      </trkpt>
      <trkpt lat="41.8877070" lon="-8.8806140">
        <ele>10.1</ele>
        <time>2021-05-18T16:10:02Z</time>
      </trkpt>
      <trkpt lat="41.8877160" lon="-8.8806110">
        <ele>10.2</ele>
        <time>2021-05-18T16:10:03Z</time>
      </trkpt>
      <trkpt lat="41.8877250" lon="-8.8806090">
        <ele>10.2</ele>
        <time>2021-05-18T16:10:04Z</time>
      </trkpt>
      <trkpt lat="41.8877380" lon="-8.8806020">
        <ele>10.2</ele>
        <time>2021-05-18T16:10:05Z</time>
      </trkpt>
      <trkpt lat="41.8877490" lon="-8.8805950">
        <ele>10.2</ele>
        <time>2021-05-18T16:10:06Z</time>
      </trkpt>
      <trkpt lat="41.8877550" lon="-8.8805900">
        <ele>10.2</ele>
        <time>2021-05-18T16:10:07Z</time>
      </trkpt>
      <trkpt lat="41.8877660" lon="-8.8805860">
        <ele>10.2</ele>
        <time>2021-05-18T16:10:08Z</time>
      </trkpt>
      <trkpt lat="41.8877790" lon="-8.8805740">
        <ele>10.3</ele>
        <time>2021-05-18T16:10:09Z</time>
      </trkpt>
      <trkpt lat="41.8878020" lon="-8.8805650">
        <ele>10.3</ele>
        <time>2021-05-18T16:10:10Z</time>
      </trkpt>
      <trkpt lat="41.8878090" lon="-8.8805640">
        <ele>10.3</ele>
        <time>2021-05-18T16:10:11Z</time>
      </trkpt>
      <trkpt lat="41.8878160" lon="-8.8805640">
        <ele>10.3</ele>
        <time>2021-05-18T16:10:12Z</time>
      </trkpt>
      <trkpt lat="41.8878410" lon="-8.8805560">
        <ele>10.3</ele>
        <time>2021-05-18T16:10:13Z</time>
      </trkpt>
      <trkpt lat="41.8878470" lon="-8.8805540">
        <ele>10.3</ele>
        <time>2021-05-18T16:10:14Z</time>
      </trkpt>
      <trkpt lat="41.8878520" lon="-8.8805510">
        <ele>10.3</ele>
        <time>2021-05-18T16:10:15Z</time>
      </trkpt>
      <trkpt lat="41.8878630" lon="-8.8805470">
        <ele>10.3</ele>
        <time>2021-05-18T16:10:16Z</time>
      </trkpt>
      <trkpt lat="41.8878780" lon="-8.8805450">
        <ele>10.3</ele>
        <time>2021-05-18T16:10:17Z</time>
      </trkpt>
      <trkpt lat="41.8878870" lon="-8.8805390">
        <ele>10.3</ele>
        <time>2021-05-18T16:10:18Z</time>
      </trkpt>
      <trkpt lat="41.8879020" lon="-8.8805290">
        <ele>10.3</ele>
        <time>2021-05-18T16:10:19Z</time>
      </trkpt>
      <trkpt lat="41.8879140" lon="-8.8805310">
        <ele>10.3</ele>
        <time>2021-05-18T16:10:20Z</time>
      </trkpt>
      <trkpt lat="41.8879300" lon="-8.8805260">
        <ele>10.2</ele>
        <time>2021-05-18T16:10:21Z</time>
      </trkpt>
      <trkpt lat="41.8879450" lon="-8.8805240">
        <ele>10.2</ele>
        <time>2021-05-18T16:10:22Z</time>
      </trkpt>
      <trkpt lat="41.8879660" lon="-8.8805200">
        <ele>10.2</ele>
        <time>2021-05-18T16:10:23Z</time>
      </trkpt>
      <trkpt lat="41.8879750" lon="-8.8805180">
        <ele>10.2</ele>
        <time>2021-05-18T16:10:24Z</time>
      </trkpt>
      <trkpt lat="41.8879840" lon="-8.8805150">
        <ele>10.2</ele>
        <time>2021-05-18T16:10:25Z</time>
      </trkpt>
      <trkpt lat="41.8879940" lon="-8.8805130">
        <ele>10.2</ele>
        <time>2021-05-18T16:10:26Z</time>
      </trkpt>
      <trkpt lat="41.8880040" lon="-8.8805080">
        <ele>10.2</ele>
        <time>2021-05-18T16:10:27Z</time>
      </trkpt>
      <trkpt lat="41.8880170" lon="-8.8805070">
        <ele>10.2</ele>
        <time>2021-05-18T16:10:28Z</time>
      </trkpt>
      <trkpt lat="41.8880340" lon="-8.8805010">
        <ele>10.2</ele>
        <time>2021-05-18T16:10:29Z</time>
      </trkpt>
      <trkpt lat="41.8880470" lon="-8.8805000">
        <ele>10.1</ele>
        <time>2021-05-18T16:10:30Z</time>
      </trkpt>
      <trkpt lat="41.8880710" lon="-8.8804940">
        <ele>10.1</ele>
        <time>2021-05-18T16:10:31Z</time>
      </trkpt>
      <trkpt lat="41.8880820" lon="-8.8804930">
        <ele>10.1</ele>
        <time>2021-05-18T16:10:32Z</time>
      </trkpt>
      <trkpt lat="41.8880930" lon="-8.8804930">
        <ele>10.1</ele>
        <time>2021-05-18T16:10:33Z</time>
      </trkpt>
      <trkpt lat="41.8880990" lon="-8.8804920">
        <ele>10.1</ele>
        <time>2021-05-18T16:10:34Z</time>
      </trkpt>
      <trkpt lat="41.8881100" lon="-8.8804900">
        <ele>10.1</ele>
        <time>2021-05-18T16:10:35Z</time>
      </trkpt>
      <trkpt lat="41.8881210" lon="-8.8804920">
        <ele>10.1</ele>
        <time>2021-05-18T16:10:36Z</time>
      </trkpt>
      <trkpt lat="41.8881350" lon="-8.8804810">
        <ele>10.1</ele>
        <time>2021-05-18T16:10:37Z</time>
      </trkpt>
      <trkpt lat="41.8881550" lon="-8.8804750">
        <ele>10.1</ele>
        <time>2021-05-18T16:10:38Z</time>
      </trkpt>
      <trkpt lat="41.8881700" lon="-8.8804710">
        <ele>10.0</ele>
        <time>2021-05-18T16:10:39Z</time>
      </trkpt>
      <trkpt lat="41.8881860" lon="-8.8804650">
        <ele>10.0</ele>
        <time>2021-05-18T16:10:40Z</time>
      </trkpt>
      <trkpt lat="41.8882000" lon="-8.8804610">
        <ele>10.0</ele>
        <time>2021-05-18T16:10:41Z</time>
      </trkpt>
      <trkpt lat="41.8882160" lon="-8.8804600">
        <ele>10.0</ele>
        <time>2021-05-18T16:10:42Z</time>
      </trkpt>
      <trkpt lat="41.8882300" lon="-8.8804600">
        <ele>10.0</ele>
        <time>2021-05-18T16:10:43Z</time>
      </trkpt>
      <trkpt lat="41.8882450" lon="-8.8804590">
        <ele>10.0</ele>
        <time>2021-05-18T16:10:44Z</time>
      </trkpt>
      <trkpt lat="41.8882610" lon="-8.8804540">
        <ele>9.9</ele>
        <time>2021-05-18T16:10:45Z</time>
      </trkpt>
      <trkpt lat="41.8882740" lon="-8.8804490">
        <ele>9.9</ele>
        <time>2021-05-18T16:10:46Z</time>
      </trkpt>
      <trkpt lat="41.8882870" lon="-8.8804500">
        <ele>9.9</ele>
        <time>2021-05-18T16:10:47Z</time>
      </trkpt>
      <trkpt lat="41.8883020" lon="-8.8804440">
        <ele>9.9</ele>
        <time>2021-05-18T16:10:48Z</time>
      </trkpt>
      <trkpt lat="41.8883160" lon="-8.8804370">
        <ele>9.9</ele>
        <time>2021-05-18T16:10:49Z</time>
      </trkpt>
      <trkpt lat="41.8883290" lon="-8.8804300">
        <ele>9.9</ele>
        <time>2021-05-18T16:10:50Z</time>
      </trkpt>
      <trkpt lat="41.8883440" lon="-8.8804270">
        <ele>9.9</ele>
        <time>2021-05-18T16:10:51Z</time>
      </trkpt>
      <trkpt lat="41.8883570" lon="-8.8804220">
        <ele>9.9</ele>
        <time>2021-05-18T16:10:52Z</time>
      </trkpt>
      <trkpt lat="41.8883720" lon="-8.8804240">
        <ele>9.8</ele>
        <time>2021-05-18T16:10:53Z</time>
      </trkpt>
      <trkpt lat="41.8883850" lon="-8.8804160">
        <ele>9.8</ele>
        <time>2021-05-18T16:10:54Z</time>
      </trkpt>
      <trkpt lat="41.8883990" lon="-8.8804150">
        <ele>9.8</ele>
        <time>2021-05-18T16:10:55Z</time>
      </trkpt>
      <trkpt lat="41.8884130" lon="-8.8804140">
        <ele>9.8</ele>
        <time>2021-05-18T16:10:56Z</time>
      </trkpt>
      <trkpt lat="41.8884280" lon="-8.8804200">
        <ele>9.8</ele>
        <time>2021-05-18T16:10:57Z</time>
      </trkpt>
      <trkpt lat="41.8884410" lon="-8.8804190">
        <ele>9.8</ele>
        <time>2021-05-18T16:10:58Z</time>
      </trkpt>
      <trkpt lat="41.8884550" lon="-8.8804250">
        <ele>9.8</ele>
        <time>2021-05-18T16:10:59Z</time>
      </trkpt>
      <trkpt lat="41.8884690" lon="-8.8804200">
        <ele>9.8</ele>
        <time>2021-05-18T16:11:00Z</time>
      </trkpt>
      <trkpt lat="41.8884810" lon="-8.8804130">
        <ele>9.8</ele>
        <time>2021-05-18T16:11:01Z</time>
      </trkpt>
      <trkpt lat="41.8884950" lon="-8.8804070">
        <ele>9.8</ele>
        <time>2021-05-18T16:11:02Z</time>
      </trkpt>
      <trkpt lat="41.8885080" lon="-8.8804030">
        <ele>9.8</ele>
        <time>2021-05-18T16:11:03Z</time>
      </trkpt>
      <trkpt lat="41.8885220" lon="-8.8803980">
        <ele>9.8</ele>
        <time>2021-05-18T16:11:04Z</time>
      </trkpt>
      <trkpt lat="41.8885380" lon="-8.8804060">
        <ele>9.8</ele>
        <time>2021-05-18T16:11:05Z</time>
      </trkpt>
      <trkpt lat="41.8885520" lon="-8.8803980">
        <ele>9.8</ele>
        <time>2021-05-18T16:11:06Z</time>
      </trkpt>
      <trkpt lat="41.8885660" lon="-8.8804010">
        <ele>9.8</ele>
        <time>2021-05-18T16:11:07Z</time>
      </trkpt>
      <trkpt lat="41.8885730" lon="-8.8804050">
        <ele>9.8</ele>
        <time>2021-05-18T16:11:08Z</time>
      </trkpt>
      <trkpt lat="41.8885810" lon="-8.8804050">
        <ele>9.8</ele>
        <time>2021-05-18T16:11:09Z</time>
      </trkpt>
      <trkpt lat="41.8885900" lon="-8.8803980">
        <ele>9.8</ele>
        <time>2021-05-18T16:11:10Z</time>
      </trkpt>
      <trkpt lat="41.8886020" lon="-8.8803980">
        <ele>9.8</ele>
        <time>2021-05-18T16:11:11Z</time>
      </trkpt>
      <trkpt lat="41.8886100" lon="-8.8803980">
        <ele>9.8</ele>
        <time>2021-05-18T16:11:12Z</time>
      </trkpt>
      <trkpt lat="41.8886250" lon="-8.8803940">
        <ele>9.8</ele>
        <time>2021-05-18T16:11:13Z</time>
      </trkpt>
      <trkpt lat="41.8886370" lon="-8.8803960">
        <ele>9.8</ele>
        <time>2021-05-18T16:11:14Z</time>
      </trkpt>
      <trkpt lat="41.8886460" lon="-8.8803900">
        <ele>9.8</ele>
        <time>2021-05-18T16:11:15Z</time>
      </trkpt>
      <trkpt lat="41.8886640" lon="-8.8803930">
        <ele>9.8</ele>
        <time>2021-05-18T16:11:16Z</time>
      </trkpt>
      <trkpt lat="41.8886740" lon="-8.8803930">
        <ele>9.8</ele>
        <time>2021-05-18T16:11:17Z</time>
      </trkpt>
      <trkpt lat="41.8886840" lon="-8.8803920">
        <ele>9.8</ele>
        <time>2021-05-18T16:11:18Z</time>
      </trkpt>
      <trkpt lat="41.8886870" lon="-8.8803960">
        <ele>9.8</ele>
        <time>2021-05-18T16:11:19Z</time>
      </trkpt>
      <trkpt lat="41.8886980" lon="-8.8803890">
        <ele>9.8</ele>
        <time>2021-05-18T16:11:20Z</time>
      </trkpt>
      <trkpt lat="41.8887060" lon="-8.8803850">
        <ele>9.8</ele>
        <time>2021-05-18T16:11:21Z</time>
      </trkpt>
      <trkpt lat="41.8887180" lon="-8.8803780">
        <ele>9.8</ele>
        <time>2021-05-18T16:11:22Z</time>
      </trkpt>
      <trkpt lat="41.8887250" lon="-8.8803780">
        <ele>9.8</ele>
        <time>2021-05-18T16:11:23Z</time>
      </trkpt>
      <trkpt lat="41.8887420" lon="-8.8803780">
        <ele>9.8</ele>
        <time>2021-05-18T16:11:24Z</time>
      </trkpt>
      <trkpt lat="41.8887500" lon="-8.8803680">
        <ele>9.8</ele>
        <time>2021-05-18T16:11:25Z</time>
      </trkpt>
      <trkpt lat="41.8887590" lon="-8.8803720">
        <ele>9.8</ele>
        <time>2021-05-18T16:11:26Z</time>
      </trkpt>
      <trkpt lat="41.8887660" lon="-8.8803670">
        <ele>9.8</ele>
        <time>2021-05-18T16:11:27Z</time>
      </trkpt>
      <trkpt lat="41.8887770" lon="-8.8803720">
        <ele>9.8</ele>
        <time>2021-05-18T16:11:28Z</time>
      </trkpt>
      <trkpt lat="41.8887900" lon="-8.8803680">
        <ele>9.9</ele>
        <time>2021-05-18T16:11:29Z</time>
      </trkpt>
      <trkpt lat="41.8888070" lon="-8.8803670">
        <ele>9.9</ele>
        <time>2021-05-18T16:11:30Z</time>
      </trkpt>
      <trkpt lat="41.8888110" lon="-8.8803650">
        <ele>9.9</ele>
        <time>2021-05-18T16:11:31Z</time>
      </trkpt>
      <trkpt lat="41.8888250" lon="-8.8803590">
        <ele>9.9</ele>
        <time>2021-05-18T16:11:32Z</time>
      </trkpt>
      <trkpt lat="41.8888370" lon="-8.8803550">
        <ele>9.9</ele>
        <time>2021-05-18T16:11:33Z</time>
      </trkpt>
      <trkpt lat="41.8888550" lon="-8.8803560">
        <ele>9.9</ele>
        <time>2021-05-18T16:11:34Z</time>
      </trkpt>
      <trkpt lat="41.8888650" lon="-8.8803520">
        <ele>9.9</ele>
        <time>2021-05-18T16:11:35Z</time>
      </trkpt>
      <trkpt lat="41.8888780" lon="-8.8803480">
        <ele>9.9</ele>
        <time>2021-05-18T16:11:36Z</time>
      </trkpt>
      <trkpt lat="41.8888930" lon="-8.8803460">
        <ele>10.0</ele>
        <time>2021-05-18T16:11:37Z</time>
      </trkpt>
      <trkpt lat="41.8888990" lon="-8.8803470">
        <ele>10.0</ele>
        <time>2021-05-18T16:11:38Z</time>
      </trkpt>
      <trkpt lat="41.8889160" lon="-8.8803430">
        <ele>10.0</ele>
        <time>2021-05-18T16:11:39Z</time>
      </trkpt>
      <trkpt lat="41.8889270" lon="-8.8803420">
        <ele>10.0</ele>
        <time>2021-05-18T16:11:40Z</time>
      </trkpt>
      <trkpt lat="41.8889420" lon="-8.8803380">
        <ele>10.0</ele>
        <time>2021-05-18T16:11:41Z</time>
      </trkpt>
      <trkpt lat="41.8889540" lon="-8.8803390">
        <ele>10.0</ele>
        <time>2021-05-18T16:11:42Z</time>
      </trkpt>
      <trkpt lat="41.8889770" lon="-8.8803310">
        <ele>10.0</ele>
        <time>2021-05-18T16:11:43Z</time>
      </trkpt>
      <trkpt lat="41.8889840" lon="-8.8803280">
        <ele>10.0</ele>
        <time>2021-05-18T16:11:44Z</time>
      </trkpt>
      <trkpt lat="41.8889910" lon="-8.8803260">
        <ele>10.0</ele>
        <time>2021-05-18T16:11:45Z</time>
      </trkpt>
      <trkpt lat="41.8890040" lon="-8.8803200">
        <ele>10.0</ele>
        <time>2021-05-18T16:11:46Z</time>
      </trkpt>
      <trkpt lat="41.8890190" lon="-8.8803090">
        <ele>10.1</ele>
        <time>2021-05-18T16:11:47Z</time>
      </trkpt>
      <trkpt lat="41.8890360" lon="-8.8803110">
        <ele>10.1</ele>
        <time>2021-05-18T16:11:48Z</time>
      </trkpt>
      <trkpt lat="41.8890460" lon="-8.8803130">
        <ele>10.1</ele>
        <time>2021-05-18T16:11:49Z</time>
      </trkpt>
      <trkpt lat="41.8890560" lon="-8.8803140">
        <ele>10.1</ele>
        <time>2021-05-18T16:11:50Z</time>
      </trkpt>
      <trkpt lat="41.8890780" lon="-8.8803060">
        <ele>10.1</ele>
        <time>2021-05-18T16:11:51Z</time>
      </trkpt>
      <trkpt lat="41.8890860" lon="-8.8803050">
        <ele>10.1</ele>
        <time>2021-05-18T16:11:52Z</time>
      </trkpt>
      <trkpt lat="41.8890950" lon="-8.8803030">
        <ele>10.1</ele>
        <time>2021-05-18T16:11:53Z</time>
      </trkpt>
      <trkpt lat="41.8891160" lon="-8.8802950">
        <ele>10.1</ele>
        <time>2021-05-18T16:11:54Z</time>
      </trkpt>
      <trkpt lat="41.8891240" lon="-8.8802920">
        <ele>10.1</ele>
        <time>2021-05-18T16:11:55Z</time>
      </trkpt>
      <trkpt lat="41.8891330" lon="-8.8802880">
        <ele>10.1</ele>
        <time>2021-05-18T16:11:56Z</time>
      </trkpt>
      <trkpt lat="41.8891430" lon="-8.8802890">
        <ele>10.1</ele>
        <time>2021-05-18T16:11:57Z</time>
      </trkpt>
      <trkpt lat="41.8891570" lon="-8.8802890">
        <ele>10.1</ele>
        <time>2021-05-18T16:11:58Z</time>
      </trkpt>
      <trkpt lat="41.8891660" lon="-8.8802900">
        <ele>10.1</ele>
        <time>2021-05-18T16:11:59Z</time>
      </trkpt>
      <trkpt lat="41.8891850" lon="-8.8802800">
        <ele>10.1</ele>
        <time>2021-05-18T16:12:00Z</time>
      </trkpt>
      <trkpt lat="41.8891950" lon="-8.8802800">
        <ele>10.1</ele>
        <time>2021-05-18T16:12:01Z</time>
      </trkpt>
      <trkpt lat="41.8892040" lon="-8.8802790">
        <ele>10.1</ele>
        <time>2021-05-18T16:12:02Z</time>
      </trkpt>
      <trkpt lat="41.8892150" lon="-8.8802800">
        <ele>10.1</ele>
        <time>2021-05-18T16:12:03Z</time>
      </trkpt>
      <trkpt lat="41.8892330" lon="-8.8802770">
        <ele>10.1</ele>
        <time>2021-05-18T16:12:04Z</time>
      </trkpt>
      <trkpt lat="41.8892370" lon="-8.8802780">
        <ele>10.1</ele>
        <time>2021-05-18T16:12:05Z</time>
      </trkpt>
      <trkpt lat="41.8892510" lon="-8.8802700">
        <ele>10.1</ele>
        <time>2021-05-18T16:12:06Z</time>
      </trkpt>
      <trkpt lat="41.8892630" lon="-8.8802700">
        <ele>10.1</ele>
        <time>2021-05-18T16:12:07Z</time>
      </trkpt>
      <trkpt lat="41.8892810" lon="-8.8802600">
        <ele>10.2</ele>
        <time>2021-05-18T16:12:08Z</time>
      </trkpt>
      <trkpt lat="41.8892900" lon="-8.8802570">
        <ele>10.2</ele>
        <time>2021-05-18T16:12:09Z</time>
      </trkpt>
      <trkpt lat="41.8892990" lon="-8.8802540">
        <ele>10.2</ele>
        <time>2021-05-18T16:12:10Z</time>
      </trkpt>
      <trkpt lat="41.8893130" lon="-8.8802490">
        <ele>10.2</ele>
        <time>2021-05-18T16:12:11Z</time>
      </trkpt>
      <trkpt lat="41.8893190" lon="-8.8802470">
        <ele>10.2</ele>
        <time>2021-05-18T16:12:12Z</time>
      </trkpt>
      <trkpt lat="41.8893310" lon="-8.8802430">
        <ele>10.2</ele>
        <time>2021-05-18T16:12:13Z</time>
      </trkpt>
      <trkpt lat="41.8893510" lon="-8.8802380">
        <ele>10.2</ele>
        <time>2021-05-18T16:12:14Z</time>
      </trkpt>
      <trkpt lat="41.8893590" lon="-8.8802350">
        <ele>10.2</ele>
        <time>2021-05-18T16:12:15Z</time>
      </trkpt>
      <trkpt lat="41.8893680" lon="-8.8802310">
        <ele>10.2</ele>
        <time>2021-05-18T16:12:16Z</time>
      </trkpt>
      <trkpt lat="41.8893910" lon="-8.8802240">
        <ele>10.2</ele>
        <time>2021-05-18T16:12:17Z</time>
      </trkpt>
      <trkpt lat="41.8893980" lon="-8.8802230">
        <ele>10.2</ele>
        <time>2021-05-18T16:12:18Z</time>
      </trkpt>
      <trkpt lat="41.8894040" lon="-8.8802210">
        <ele>10.2</ele>
        <time>2021-05-18T16:12:19Z</time>
      </trkpt>
      <trkpt lat="41.8894230" lon="-8.8802190">
        <ele>10.2</ele>
        <time>2021-05-18T16:12:20Z</time>
      </trkpt>
      <trkpt lat="41.8894320" lon="-8.8802190">
        <ele>10.2</ele>
        <time>2021-05-18T16:12:21Z</time>
      </trkpt>
      <trkpt lat="41.8894400" lon="-8.8802180">
        <ele>10.2</ele>
        <time>2021-05-18T16:12:22Z</time>
      </trkpt>
      <trkpt lat="41.8894660" lon="-8.8802150">
        <ele>10.2</ele>
        <time>2021-05-18T16:12:23Z</time>
      </trkpt>
      <trkpt lat="41.8894740" lon="-8.8802150">
        <ele>10.2</ele>
        <time>2021-05-18T16:12:24Z</time>
      </trkpt>
      <trkpt lat="41.8894810" lon="-8.8802160">
        <ele>10.2</ele>
        <time>2021-05-18T16:12:25Z</time>
      </trkpt>
      <trkpt lat="41.8895080" lon="-8.8802170">
        <ele>10.2</ele>
        <time>2021-05-18T16:12:26Z</time>
      </trkpt>
      <trkpt lat="41.8895160" lon="-8.8802160">
        <ele>10.2</ele>
        <time>2021-05-18T16:12:27Z</time>
      </trkpt>
      <trkpt lat="41.8895250" lon="-8.8802160">
        <ele>10.3</ele>
        <time>2021-05-18T16:12:28Z</time>
      </trkpt>
      <trkpt lat="41.8895460" lon="-8.8802140">
        <ele>10.3</ele>
        <time>2021-05-18T16:12:29Z</time>
      </trkpt>
      <trkpt lat="41.8895560" lon="-8.8802130">
        <ele>10.3</ele>
        <time>2021-05-18T16:12:30Z</time>
      </trkpt>
      <trkpt lat="41.8895660" lon="-8.8802110">
        <ele>10.3</ele>
        <time>2021-05-18T16:12:31Z</time>
      </trkpt>
      <trkpt lat="41.8895780" lon="-8.8802100">
        <ele>10.3</ele>
        <time>2021-05-18T16:12:32Z</time>
      </trkpt>
      <trkpt lat="41.8895920" lon="-8.8802090">
        <ele>10.3</ele>
        <time>2021-05-18T16:12:33Z</time>
      </trkpt>
      <trkpt lat="41.8896020" lon="-8.8802070">
        <ele>10.3</ele>
        <time>2021-05-18T16:12:34Z</time>
      </trkpt>
      <trkpt lat="41.8896170" lon="-8.8802040">
        <ele>10.3</ele>
        <time>2021-05-18T16:12:35Z</time>
      </trkpt>
      <trkpt lat="41.8896340" lon="-8.8802010">
        <ele>10.3</ele>
        <time>2021-05-18T16:12:36Z</time>
      </trkpt>
      <trkpt lat="41.8896590" lon="-8.8801980">
        <ele>10.3</ele>
        <time>2021-05-18T16:12:37Z</time>
      </trkpt>
      <trkpt lat="41.8896650" lon="-8.8801970">
        <ele>10.3</ele>
        <time>2021-05-18T16:12:38Z</time>
      </trkpt>
      <trkpt lat="41.8896710" lon="-8.8801950">
        <ele>10.3</ele>
        <time>2021-05-18T16:12:39Z</time>
      </trkpt>
      <trkpt lat="41.8896950" lon="-8.8801940">
        <ele>10.3</ele>
        <time>2021-05-18T16:12:40Z</time>
      </trkpt>
      <trkpt lat="41.8897040" lon="-8.8801930">
        <ele>10.3</ele>
        <time>2021-05-18T16:12:41Z</time>
      </trkpt>
      <trkpt lat="41.8897120" lon="-8.8801910">
        <ele>10.3</ele>
        <time>2021-05-18T16:12:42Z</time>
      </trkpt>
      <trkpt lat="41.8897250" lon="-8.8801890">
        <ele>10.3</ele>
        <time>2021-05-18T16:12:43Z</time>
      </trkpt>
      <trkpt lat="41.8897360" lon="-8.8801840">
        <ele>10.3</ele>
        <time>2021-05-18T16:12:44Z</time>
      </trkpt>
      <trkpt lat="41.8897460" lon="-8.8801870">
        <ele>10.3</ele>
        <time>2021-05-18T16:12:45Z</time>
      </trkpt>
      <trkpt lat="41.8897640" lon="-8.8801900">
        <ele>10.3</ele>
        <time>2021-05-18T16:12:46Z</time>
      </trkpt>
      <trkpt lat="41.8897760" lon="-8.8801900">
        <ele>10.3</ele>
        <time>2021-05-18T16:12:47Z</time>
      </trkpt>
      <trkpt lat="41.8898010" lon="-8.8801880">
        <ele>10.3</ele>
        <time>2021-05-18T16:12:48Z</time>
      </trkpt>
      <trkpt lat="41.8898070" lon="-8.8801900">
        <ele>10.3</ele>
        <time>2021-05-18T16:12:49Z</time>
      </trkpt>
      <trkpt lat="41.8898130" lon="-8.8801910">
        <ele>10.3</ele>
        <time>2021-05-18T16:12:50Z</time>
      </trkpt>
      <trkpt lat="41.8898240" lon="-8.8801900">
        <ele>10.3</ele>
        <time>2021-05-18T16:12:51Z</time>
      </trkpt>
      <trkpt lat="41.8898410" lon="-8.8801930">
        <ele>10.3</ele>
        <time>2021-05-18T16:12:52Z</time>
      </trkpt>
      <trkpt lat="41.8898510" lon="-8.8801920">
        <ele>10.3</ele>
        <time>2021-05-18T16:12:53Z</time>
      </trkpt>
      <trkpt lat="41.8898650" lon="-8.8801930">
        <ele>10.3</ele>
        <time>2021-05-18T16:12:54Z</time>
      </trkpt>
      <trkpt lat="41.8898750" lon="-8.8801980">
        <ele>10.3</ele>
        <time>2021-05-18T16:12:55Z</time>
      </trkpt>
      <trkpt lat="41.8898950" lon="-8.8801940">
        <ele>10.3</ele>
        <time>2021-05-18T16:12:56Z</time>
      </trkpt>
      <trkpt lat="41.8899030" lon="-8.8801890">
        <ele>10.3</ele>
        <time>2021-05-18T16:12:57Z</time>
      </trkpt>
      <trkpt lat="41.8899180" lon="-8.8801920">
        <ele>10.3</ele>
        <time>2021-05-18T16:12:58Z</time>
      </trkpt>
      <trkpt lat="41.8899340" lon="-8.8801960">
        <ele>10.3</ele>
        <time>2021-05-18T16:12:59Z</time>
      </trkpt>
      <trkpt lat="41.8899510" lon="-8.8801940">
        <ele>10.3</ele>
        <time>2021-05-18T16:13:00Z</time>
      </trkpt>
      <trkpt lat="41.8899610" lon="-8.8801940">
        <ele>10.3</ele>
        <time>2021-05-18T16:13:01Z</time>
      </trkpt>
      <trkpt lat="41.8899760" lon="-8.8801950">
        <ele>10.3</ele>
        <time>2021-05-18T16:13:02Z</time>
      </trkpt>
      <trkpt lat="41.8899910" lon="-8.8801960">
        <ele>10.3</ele>
        <time>2021-05-18T16:13:03Z</time>
      </trkpt>
      <trkpt lat="41.8900060" lon="-8.8801970">
        <ele>10.3</ele>
        <time>2021-05-18T16:13:04Z</time>
      </trkpt>
      <trkpt lat="41.8900180" lon="-8.8801930">
        <ele>10.3</ele>
        <time>2021-05-18T16:13:05Z</time>
      </trkpt>
      <trkpt lat="41.8900420" lon="-8.8801950">
        <ele>10.3</ele>
        <time>2021-05-18T16:13:06Z</time>
      </trkpt>
      <trkpt lat="41.8900490" lon="-8.8801980">
        <ele>10.3</ele>
        <time>2021-05-18T16:13:07Z</time>
      </trkpt>
      <trkpt lat="41.8900570" lon="-8.8802010">
        <ele>10.3</ele>
        <time>2021-05-18T16:13:08Z</time>
      </trkpt>
      <trkpt lat="41.8900760" lon="-8.8801950">
        <ele>10.3</ele>
        <time>2021-05-18T16:13:09Z</time>
      </trkpt>
      <trkpt lat="41.8900850" lon="-8.8802000">
        <ele>10.3</ele>
        <time>2021-05-18T16:13:10Z</time>
      </trkpt>
      <trkpt lat="41.8901130" lon="-8.8801990">
        <ele>10.3</ele>
        <time>2021-05-18T16:13:11Z</time>
      </trkpt>
      <trkpt lat="41.8901200" lon="-8.8801990">
        <ele>10.3</ele>
        <time>2021-05-18T16:13:12Z</time>
      </trkpt>
      <trkpt lat="41.8901280" lon="-8.8801980">
        <ele>10.3</ele>
        <time>2021-05-18T16:13:13Z</time>
      </trkpt>
      <trkpt lat="41.8901360" lon="-8.8802050">
        <ele>10.3</ele>
        <time>2021-05-18T16:13:14Z</time>
      </trkpt>
      <trkpt lat="41.8901510" lon="-8.8802120">
        <ele>10.3</ele>
        <time>2021-05-18T16:13:15Z</time>
      </trkpt>
      <trkpt lat="41.8901630" lon="-8.8802060">
        <ele>10.3</ele>
        <time>2021-05-18T16:13:16Z</time>
      </trkpt>
      <trkpt lat="41.8901800" lon="-8.8802050">
        <ele>10.3</ele>
        <time>2021-05-18T16:13:17Z</time>
      </trkpt>
      <trkpt lat="41.8901960" lon="-8.8802080">
        <ele>10.3</ele>
        <time>2021-05-18T16:13:18Z</time>
      </trkpt>
      <trkpt lat="41.8902040" lon="-8.8802150">
        <ele>10.3</ele>
        <time>2021-05-18T16:13:19Z</time>
      </trkpt>
      <trkpt lat="41.8902160" lon="-8.8802080">
        <ele>10.3</ele>
        <time>2021-05-18T16:13:20Z</time>
      </trkpt>
      <trkpt lat="41.8902300" lon="-8.8802130">
        <ele>10.4</ele>
        <time>2021-05-18T16:13:21Z</time>
      </trkpt>
      <trkpt lat="41.8902460" lon="-8.8802120">
        <ele>10.4</ele>
        <time>2021-05-18T16:13:22Z</time>
      </trkpt>
      <trkpt lat="41.8902600" lon="-8.8802200">
        <ele>10.4</ele>
        <time>2021-05-18T16:13:23Z</time>
      </trkpt>
      <trkpt lat="41.8902760" lon="-8.8802190">
        <ele>10.4</ele>
        <time>2021-05-18T16:13:24Z</time>
      </trkpt>
      <trkpt lat="41.8902930" lon="-8.8802200">
        <ele>10.4</ele>
        <time>2021-05-18T16:13:25Z</time>
      </trkpt>
      <trkpt lat="41.8903090" lon="-8.8802190">
        <ele>10.4</ele>
        <time>2021-05-18T16:13:26Z</time>
      </trkpt>
      <trkpt lat="41.8903240" lon="-8.8802220">
        <ele>10.5</ele>
        <time>2021-05-18T16:13:27Z</time>
      </trkpt>
      <trkpt lat="41.8903380" lon="-8.8802210">
        <ele>10.5</ele>
        <time>2021-05-18T16:13:28Z</time>
      </trkpt>
      <trkpt lat="41.8903530" lon="-8.8802270">
        <ele>10.5</ele>
        <time>2021-05-18T16:13:29Z</time>
      </trkpt>
      <trkpt lat="41.8903690" lon="-8.8802240">
        <ele>10.5</ele>
        <time>2021-05-18T16:13:30Z</time>
      </trkpt>
      <trkpt lat="41.8903830" lon="-8.8802210">
        <ele>10.5</ele>
        <time>2021-05-18T16:13:31Z</time>
      </trkpt>
      <trkpt lat="41.8903990" lon="-8.8802220">
        <ele>10.6</ele>
        <time>2021-05-18T16:13:32Z</time>
      </trkpt>
      <trkpt lat="41.8904140" lon="-8.8802220">
        <ele>10.6</ele>
        <time>2021-05-18T16:13:33Z</time>
      </trkpt>
      <trkpt lat="41.8904300" lon="-8.8802190">
        <ele>10.6</ele>
        <time>2021-05-18T16:13:34Z</time>
      </trkpt>
      <trkpt lat="41.8904440" lon="-8.8802140">
        <ele>10.7</ele>
        <time>2021-05-18T16:13:35Z</time>
      </trkpt>
      <trkpt lat="41.8904590" lon="-8.8802190">
        <ele>10.7</ele>
        <time>2021-05-18T16:13:36Z</time>
      </trkpt>
      <trkpt lat="41.8904740" lon="-8.8802110">
        <ele>10.7</ele>
        <time>2021-05-18T16:13:37Z</time>
      </trkpt>
      <trkpt lat="41.8904870" lon="-8.8802140">
        <ele>10.7</ele>
        <time>2021-05-18T16:13:38Z</time>
      </trkpt>
      <trkpt lat="41.8905010" lon="-8.8802160">
        <ele>10.8</ele>
        <time>2021-05-18T16:13:39Z</time>
      </trkpt>
      <trkpt lat="41.8905140" lon="-8.8802200">
        <ele>10.8</ele>
        <time>2021-05-18T16:13:40Z</time>
      </trkpt>
      <trkpt lat="41.8905220" lon="-8.8802220">
        <ele>10.8</ele>
        <time>2021-05-18T16:13:41Z</time>
      </trkpt>
      <trkpt lat="41.8905320" lon="-8.8802220">
        <ele>10.8</ele>
        <time>2021-05-18T16:13:42Z</time>
      </trkpt>
      <trkpt lat="41.8905420" lon="-8.8802220">
        <ele>10.8</ele>
        <time>2021-05-18T16:13:43Z</time>
      </trkpt>
      <trkpt lat="41.8905590" lon="-8.8802150">
        <ele>10.9</ele>
        <time>2021-05-18T16:13:44Z</time>
      </trkpt>
      <trkpt lat="41.8905690" lon="-8.8802160">
        <ele>10.9</ele>
        <time>2021-05-18T16:13:45Z</time>
      </trkpt>
      <trkpt lat="41.8905810" lon="-8.8802200">
        <ele>10.9</ele>
        <time>2021-05-18T16:13:46Z</time>
      </trkpt>
      <trkpt lat="41.8905920" lon="-8.8802250">
        <ele>10.9</ele>
        <time>2021-05-18T16:13:47Z</time>
      </trkpt>
      <trkpt lat="41.8906040" lon="-8.8802210">
        <ele>11.0</ele>
        <time>2021-05-18T16:13:48Z</time>
      </trkpt>
      <trkpt lat="41.8906120" lon="-8.8802260">
        <ele>11.0</ele>
        <time>2021-05-18T16:13:49Z</time>
      </trkpt>
      <trkpt lat="41.8906260" lon="-8.8802190">
        <ele>11.0</ele>
        <time>2021-05-18T16:13:50Z</time>
      </trkpt>
      <trkpt lat="41.8906360" lon="-8.8802220">
        <ele>11.0</ele>
        <time>2021-05-18T16:13:51Z</time>
      </trkpt>
      <trkpt lat="41.8906490" lon="-8.8802210">
        <ele>11.0</ele>
        <time>2021-05-18T16:13:52Z</time>
      </trkpt>
      <trkpt lat="41.8906590" lon="-8.8802240">
        <ele>11.0</ele>
        <time>2021-05-18T16:13:53Z</time>
      </trkpt>
      <trkpt lat="41.8906780" lon="-8.8802180">
        <ele>11.1</ele>
        <time>2021-05-18T16:13:54Z</time>
      </trkpt>
      <trkpt lat="41.8906870" lon="-8.8802170">
        <ele>11.1</ele>
        <time>2021-05-18T16:13:55Z</time>
      </trkpt>
      <trkpt lat="41.8906960" lon="-8.8802150">
        <ele>11.1</ele>
        <time>2021-05-18T16:13:56Z</time>
      </trkpt>
      <trkpt lat="41.8907090" lon="-8.8802080">
        <ele>11.1</ele>
        <time>2021-05-18T16:13:57Z</time>
      </trkpt>
      <trkpt lat="41.8907170" lon="-8.8802100">
        <ele>11.1</ele>
        <time>2021-05-18T16:13:58Z</time>
      </trkpt>
      <trkpt lat="41.8907300" lon="-8.8802090">
        <ele>11.1</ele>
        <time>2021-05-18T16:13:59Z</time>
      </trkpt>
      <trkpt lat="41.8907520" lon="-8.8802100">
        <ele>11.1</ele>
        <time>2021-05-18T16:14:00Z</time>
      </trkpt>
      <trkpt lat="41.8907620" lon="-8.8802090">
        <ele>11.1</ele>
        <time>2021-05-18T16:14:01Z</time>
      </trkpt>
      <trkpt lat="41.8907710" lon="-8.8802090">
        <ele>11.2</ele>
        <time>2021-05-18T16:14:02Z</time>
      </trkpt>
      <trkpt lat="41.8907780" lon="-8.8802160">
        <ele>11.2</ele>
        <time>2021-05-18T16:14:03Z</time>
      </trkpt>
      <trkpt lat="41.8907940" lon="-8.8802090">
        <ele>11.2</ele>
        <time>2021-05-18T16:14:04Z</time>
      </trkpt>
      <trkpt lat="41.8908000" lon="-8.8802100">
        <ele>11.2</ele>
        <time>2021-05-18T16:14:05Z</time>
      </trkpt>
      <trkpt lat="41.8908230" lon="-8.8802100">
        <ele>11.2</ele>
        <time>2021-05-18T16:14:06Z</time>
      </trkpt>
      <trkpt lat="41.8908310" lon="-8.8802110">
        <ele>11.2</ele>
        <time>2021-05-18T16:14:07Z</time>
      </trkpt>
      <trkpt lat="41.8908400" lon="-8.8802110">
        <ele>11.2</ele>
        <time>2021-05-18T16:14:08Z</time>
      </trkpt>
      <trkpt lat="41.8908580" lon="-8.8802100">
        <ele>11.2</ele>
        <time>2021-05-18T16:14:09Z</time>
      </trkpt>
      <trkpt lat="41.8908610" lon="-8.8802100">
        <ele>11.2</ele>
        <time>2021-05-18T16:14:10Z</time>
      </trkpt>
      <trkpt lat="41.8908770" lon="-8.8802090">
        <ele>11.2</ele>
        <time>2021-05-18T16:14:11Z</time>
      </trkpt>
      <trkpt lat="41.8908910" lon="-8.8802010">
        <ele>11.1</ele>
        <time>2021-05-18T16:14:12Z</time>
      </trkpt>
      <trkpt lat="41.8909110" lon="-8.8801990">
        <ele>11.1</ele>
        <time>2021-05-18T16:14:13Z</time>
      </trkpt>
      <trkpt lat="41.8909110" lon="-8.8801940">
        <ele>11.1</ele>
        <time>2021-05-18T16:14:14Z</time>
      </trkpt>
      <trkpt lat="41.8909260" lon="-8.8801940">
        <ele>11.1</ele>
        <time>2021-05-18T16:14:15Z</time>
      </trkpt>
      <trkpt lat="41.8909400" lon="-8.8801920">
        <ele>11.1</ele>
        <time>2021-05-18T16:14:16Z</time>
      </trkpt>
      <trkpt lat="41.8909550" lon="-8.8801930">
        <ele>11.1</ele>
        <time>2021-05-18T16:14:17Z</time>
      </trkpt>
      <trkpt lat="41.8909680" lon="-8.8801860">
        <ele>11.1</ele>
        <time>2021-05-18T16:14:18Z</time>
      </trkpt>
      <trkpt lat="41.8909760" lon="-8.8801880">
        <ele>11.1</ele>
        <time>2021-05-18T16:14:19Z</time>
      </trkpt>
      <trkpt lat="41.8909870" lon="-8.8801920">
        <ele>11.1</ele>
        <time>2021-05-18T16:14:20Z</time>
      </trkpt>
      <trkpt lat="41.8910030" lon="-8.8801840">
        <ele>11.0</ele>
        <time>2021-05-18T16:14:21Z</time>
      </trkpt>
      <trkpt lat="41.8910170" lon="-8.8801870">
        <ele>11.0</ele>
        <time>2021-05-18T16:14:22Z</time>
      </trkpt>
      <trkpt lat="41.8910370" lon="-8.8801900">
        <ele>11.0</ele>
        <time>2021-05-18T16:14:23Z</time>
      </trkpt>
      <trkpt lat="41.8910400" lon="-8.8801860">
        <ele>11.0</ele>
        <time>2021-05-18T16:14:24Z</time>
      </trkpt>
      <trkpt lat="41.8910580" lon="-8.8801850">
        <ele>11.0</ele>
        <time>2021-05-18T16:14:25Z</time>
      </trkpt>
      <trkpt lat="41.8910660" lon="-8.8801830">
        <ele>10.9</ele>
        <time>2021-05-18T16:14:26Z</time>
      </trkpt>
      <trkpt lat="41.8910800" lon="-8.8801830">
        <ele>10.9</ele>
        <time>2021-05-18T16:14:27Z</time>
      </trkpt>
      <trkpt lat="41.8910960" lon="-8.8801870">
        <ele>10.9</ele>
        <time>2021-05-18T16:14:28Z</time>
      </trkpt>
      <trkpt lat="41.8911140" lon="-8.8801900">
        <ele>10.8</ele>
        <time>2021-05-18T16:14:29Z</time>
      </trkpt>
      <trkpt lat="41.8911270" lon="-8.8801880">
        <ele>10.8</ele>
        <time>2021-05-18T16:14:30Z</time>
      </trkpt>
      <trkpt lat="41.8911430" lon="-8.8801930">
        <ele>10.8</ele>
        <time>2021-05-18T16:14:31Z</time>
      </trkpt>
      <trkpt lat="41.8911580" lon="-8.8801880">
        <ele>10.7</ele>
        <time>2021-05-18T16:14:32Z</time>
      </trkpt>
      <trkpt lat="41.8911740" lon="-8.8801830">
        <ele>10.7</ele>
        <time>2021-05-18T16:14:33Z</time>
      </trkpt>
      <trkpt lat="41.8911900" lon="-8.8801870">
        <ele>10.7</ele>
        <time>2021-05-18T16:14:34Z</time>
      </trkpt>
      <trkpt lat="41.8912050" lon="-8.8801910">
        <ele>10.6</ele>
        <time>2021-05-18T16:14:35Z</time>
      </trkpt>
      <trkpt lat="41.8912200" lon="-8.8801900">
        <ele>10.6</ele>
        <time>2021-05-18T16:14:36Z</time>
      </trkpt>
      <trkpt lat="41.8912350" lon="-8.8801940">
        <ele>10.5</ele>
        <time>2021-05-18T16:14:37Z</time>
      </trkpt>
      <trkpt lat="41.8912510" lon="-8.8801890">
        <ele>10.5</ele>
        <time>2021-05-18T16:14:38Z</time>
      </trkpt>
      <trkpt lat="41.8912660" lon="-8.8801920">
        <ele>10.5</ele>
        <time>2021-05-18T16:14:39Z</time>
      </trkpt>
      <trkpt lat="41.8912810" lon="-8.8801860">
        <ele>10.4</ele>
        <time>2021-05-18T16:14:40Z</time>
      </trkpt>
      <trkpt lat="41.8912950" lon="-8.8801890">
        <ele>10.4</ele>
        <time>2021-05-18T16:14:41Z</time>
      </trkpt>
      <trkpt lat="41.8913080" lon="-8.8801800">
        <ele>10.3</ele>
        <time>2021-05-18T16:14:42Z</time>
      </trkpt>
      <trkpt lat="41.8913230" lon="-8.8801760">
        <ele>10.3</ele>
        <time>2021-05-18T16:14:43Z</time>
      </trkpt>
      <trkpt lat="41.8913370" lon="-8.8801730">
        <ele>10.3</ele>
        <time>2021-05-18T16:14:44Z</time>
      </trkpt>
      <trkpt lat="41.8913520" lon="-8.8801750">
        <ele>10.2</ele>
        <time>2021-05-18T16:14:45Z</time>
      </trkpt>
      <trkpt lat="41.8913670" lon="-8.8801770">
        <ele>10.2</ele>
        <time>2021-05-18T16:14:46Z</time>
      </trkpt>
      <trkpt lat="41.8913810" lon="-8.8801720">
        <ele>10.1</ele>
        <time>2021-05-18T16:14:47Z</time>
      </trkpt>
      <trkpt lat="41.8913950" lon="-8.8801710">
        <ele>10.1</ele>
        <time>2021-05-18T16:14:48Z</time>
      </trkpt>
      <trkpt lat="41.8914100" lon="-8.8801710">
        <ele>10.1</ele>
        <time>2021-05-18T16:14:49Z</time>
      </trkpt>
      <trkpt lat="41.8914230" lon="-8.8801660">
        <ele>10.0</ele>
        <time>2021-05-18T16:14:50Z</time>
      </trkpt>
      <trkpt lat="41.8914370" lon="-8.8801600">
        <ele>10.0</ele>
        <time>2021-05-18T16:14:51Z</time>
      </trkpt>
      <trkpt lat="41.8914500" lon="-8.8801530">
        <ele>9.9</ele>
        <time>2021-05-18T16:14:52Z</time>
      </trkpt>
      <trkpt lat="41.8914640" lon="-8.8801490">
        <ele>9.9</ele>
        <time>2021-05-18T16:14:53Z</time>
      </trkpt>
      <trkpt lat="41.8914790" lon="-8.8801470">
        <ele>9.9</ele>
        <time>2021-05-18T16:14:54Z</time>
      </trkpt>
      <trkpt lat="41.8914940" lon="-8.8801490">
        <ele>9.8</ele>
        <time>2021-05-18T16:14:55Z</time>
      </trkpt>
      <trkpt lat="41.8915080" lon="-8.8801480">
        <ele>9.8</ele>
        <time>2021-05-18T16:14:56Z</time>
      </trkpt>
      <trkpt lat="41.8915300" lon="-8.8801390">
        <ele>9.8</ele>
        <time>2021-05-18T16:14:57Z</time>
      </trkpt>
      <trkpt lat="41.8915390" lon="-8.8801370">
        <ele>9.8</ele>
        <time>2021-05-18T16:14:58Z</time>
      </trkpt>
      <trkpt lat="41.8915480" lon="-8.8801350">
        <ele>9.7</ele>
        <time>2021-05-18T16:14:59Z</time>
      </trkpt>
      <trkpt lat="41.8915610" lon="-8.8801320">
        <ele>9.7</ele>
        <time>2021-05-18T16:15:00Z</time>
      </trkpt>
      <trkpt lat="41.8915760" lon="-8.8801300">
        <ele>9.7</ele>
        <time>2021-05-18T16:15:01Z</time>
      </trkpt>
      <trkpt lat="41.8915900" lon="-8.8801320">
        <ele>9.7</ele>
        <time>2021-05-18T16:15:02Z</time>
      </trkpt>
      <trkpt lat="41.8916050" lon="-8.8801320">
        <ele>9.7</ele>
        <time>2021-05-18T16:15:03Z</time>
      </trkpt>
      <trkpt lat="41.8916270" lon="-8.8801280">
        <ele>9.6</ele>
        <time>2021-05-18T16:15:04Z</time>
      </trkpt>
      <trkpt lat="41.8916360" lon="-8.8801260">
        <ele>9.6</ele>
        <time>2021-05-18T16:15:05Z</time>
      </trkpt>
      <trkpt lat="41.8916460" lon="-8.8801240">
        <ele>9.6</ele>
        <time>2021-05-18T16:15:06Z</time>
      </trkpt>
      <trkpt lat="41.8916670" lon="-8.8801130">
        <ele>9.6</ele>
        <time>2021-05-18T16:15:07Z</time>
      </trkpt>
      <trkpt lat="41.8916760" lon="-8.8801090">
        <ele>9.6</ele>
        <time>2021-05-18T16:15:08Z</time>
      </trkpt>
      <trkpt lat="41.8916840" lon="-8.8801040">
        <ele>9.5</ele>
        <time>2021-05-18T16:15:09Z</time>
      </trkpt>
      <trkpt lat="41.8917050" lon="-8.8800990">
        <ele>9.5</ele>
        <time>2021-05-18T16:15:10Z</time>
      </trkpt>
      <trkpt lat="41.8917130" lon="-8.8800930">
        <ele>9.5</ele>
        <time>2021-05-18T16:15:11Z</time>
      </trkpt>
      <trkpt lat="41.8917210" lon="-8.8800880">
        <ele>9.5</ele>
        <time>2021-05-18T16:15:12Z</time>
      </trkpt>
      <trkpt lat="41.8917360" lon="-8.8800830">
        <ele>9.5</ele>
        <time>2021-05-18T16:15:13Z</time>
      </trkpt>
      <trkpt lat="41.8917500" lon="-8.8800820">
        <ele>9.5</ele>
        <time>2021-05-18T16:15:14Z</time>
      </trkpt>
      <trkpt lat="41.8917640" lon="-8.8800800">
        <ele>9.5</ele>
        <time>2021-05-18T16:15:15Z</time>
      </trkpt>
      <trkpt lat="41.8917770" lon="-8.8800750">
        <ele>9.5</ele>
        <time>2021-05-18T16:15:16Z</time>
      </trkpt>
      <trkpt lat="41.8917970" lon="-8.8800700">
        <ele>9.5</ele>
        <time>2021-05-18T16:15:17Z</time>
      </trkpt>
      <trkpt lat="41.8918060" lon="-8.8800680">
        <ele>9.4</ele>
        <time>2021-05-18T16:15:18Z</time>
      </trkpt>
      <trkpt lat="41.8918140" lon="-8.8800660">
        <ele>9.4</ele>
        <time>2021-05-18T16:15:19Z</time>
      </trkpt>
      <trkpt lat="41.8918320" lon="-8.8800530">
        <ele>9.4</ele>
        <time>2021-05-18T16:15:20Z</time>
      </trkpt>
      <trkpt lat="41.8918410" lon="-8.8800490">
        <ele>9.4</ele>
        <time>2021-05-18T16:15:21Z</time>
      </trkpt>
      <trkpt lat="41.8918490" lon="-8.8800460">
        <ele>9.4</ele>
        <time>2021-05-18T16:15:22Z</time>
      </trkpt>
      <trkpt lat="41.8918620" lon="-8.8800460">
        <ele>9.4</ele>
        <time>2021-05-18T16:15:23Z</time>
      </trkpt>
      <trkpt lat="41.8918780" lon="-8.8800410">
        <ele>9.4</ele>
        <time>2021-05-18T16:15:24Z</time>
      </trkpt>
      <trkpt lat="41.8918890" lon="-8.8800350">
        <ele>9.4</ele>
        <time>2021-05-18T16:15:25Z</time>
      </trkpt>
      <trkpt lat="41.8918940" lon="-8.8800370">
        <ele>9.4</ele>
        <time>2021-05-18T16:15:26Z</time>
      </trkpt>
      <trkpt lat="41.8919020" lon="-8.8800360">
        <ele>9.4</ele>
        <time>2021-05-18T16:15:27Z</time>
      </trkpt>
      <trkpt lat="41.8919130" lon="-8.8800380">
        <ele>9.4</ele>
        <time>2021-05-18T16:15:28Z</time>
      </trkpt>
      <trkpt lat="41.8919240" lon="-8.8800310">
        <ele>9.4</ele>
        <time>2021-05-18T16:15:29Z</time>
      </trkpt>
      <trkpt lat="41.8919310" lon="-8.8800300">
        <ele>9.4</ele>
        <time>2021-05-18T16:15:30Z</time>
      </trkpt>
      <trkpt lat="41.8919420" lon="-8.8800210">
        <ele>9.4</ele>
        <time>2021-05-18T16:15:31Z</time>
      </trkpt>
      <trkpt lat="41.8919490" lon="-8.8800240">
        <ele>9.3</ele>
        <time>2021-05-18T16:15:32Z</time>
      </trkpt>
      <trkpt lat="41.8919610" lon="-8.8800190">
        <ele>9.3</ele>
        <time>2021-05-18T16:15:33Z</time>
      </trkpt>
      <trkpt lat="41.8919690" lon="-8.8800170">
        <ele>9.3</ele>
        <time>2021-05-18T16:15:34Z</time>
      </trkpt>
      <trkpt lat="41.8919810" lon="-8.8800130">
        <ele>9.3</ele>
        <time>2021-05-18T16:15:35Z</time>
      </trkpt>
      <trkpt lat="41.8919880" lon="-8.8800120">
        <ele>9.3</ele>
        <time>2021-05-18T16:15:36Z</time>
      </trkpt>
      <trkpt lat="41.8920000" lon="-8.8800070">
        <ele>9.3</ele>
        <time>2021-05-18T16:15:37Z</time>
      </trkpt>
      <trkpt lat="41.8920060" lon="-8.8800030">
        <ele>9.3</ele>
        <time>2021-05-18T16:15:38Z</time>
      </trkpt>
      <trkpt lat="41.8920150" lon="-8.8799960">
        <ele>9.3</ele>
        <time>2021-05-18T16:15:39Z</time>
      </trkpt>
      <trkpt lat="41.8920250" lon="-8.8799910">
        <ele>9.3</ele>
        <time>2021-05-18T16:15:40Z</time>
      </trkpt>
      <trkpt lat="41.8920400" lon="-8.8799890">
        <ele>9.3</ele>
        <time>2021-05-18T16:15:41Z</time>
      </trkpt>
      <trkpt lat="41.8920520" lon="-8.8799820">
        <ele>9.3</ele>
        <time>2021-05-18T16:15:42Z</time>
      </trkpt>
      <trkpt lat="41.8920580" lon="-8.8799810">
        <ele>9.3</ele>
        <time>2021-05-18T16:15:43Z</time>
      </trkpt>
      <trkpt lat="41.8920710" lon="-8.8799750">
        <ele>9.3</ele>
        <time>2021-05-18T16:15:44Z</time>
      </trkpt>
      <trkpt lat="41.8920850" lon="-8.8799680">
        <ele>9.3</ele>
        <time>2021-05-18T16:15:45Z</time>
      </trkpt>
      <trkpt lat="41.8920900" lon="-8.8799630">
        <ele>9.3</ele>
        <time>2021-05-18T16:15:46Z</time>
      </trkpt>
      <trkpt lat="41.8921000" lon="-8.8799550">
        <ele>9.3</ele>
        <time>2021-05-18T16:15:47Z</time>
      </trkpt>
      <trkpt lat="41.8921110" lon="-8.8799540">
        <ele>9.3</ele>
        <time>2021-05-18T16:15:48Z</time>
      </trkpt>
      <trkpt lat="41.8921220" lon="-8.8799450">
        <ele>9.3</ele>
        <time>2021-05-18T16:15:49Z</time>
      </trkpt>
      <trkpt lat="41.8921300" lon="-8.8799390">
        <ele>9.3</ele>
        <time>2021-05-18T16:15:50Z</time>
      </trkpt>
      <trkpt lat="41.8921430" lon="-8.8799340">
        <ele>9.3</ele>
        <time>2021-05-18T16:15:51Z</time>
      </trkpt>
      <trkpt lat="41.8921650" lon="-8.8799270">
        <ele>9.2</ele>
        <time>2021-05-18T16:15:52Z</time>
      </trkpt>
      <trkpt lat="41.8921720" lon="-8.8799230">
        <ele>9.2</ele>
        <time>2021-05-18T16:15:53Z</time>
      </trkpt>
      <trkpt lat="41.8921800" lon="-8.8799200">
        <ele>9.2</ele>
        <time>2021-05-18T16:15:54Z</time>
      </trkpt>
      <trkpt lat="41.8921930" lon="-8.8799130">
        <ele>9.2</ele>
        <time>2021-05-18T16:15:55Z</time>
      </trkpt>
      <trkpt lat="41.8922030" lon="-8.8799140">
        <ele>9.2</ele>
        <time>2021-05-18T16:15:56Z</time>
      </trkpt>
      <trkpt lat="41.8922130" lon="-8.8799060">
        <ele>9.2</ele>
        <time>2021-05-18T16:15:57Z</time>
      </trkpt>
      <trkpt lat="41.8922290" lon="-8.8799000">
        <ele>9.2</ele>
        <time>2021-05-18T16:15:58Z</time>
      </trkpt>
      <trkpt lat="41.8922430" lon="-8.8798960">
        <ele>9.2</ele>
        <time>2021-05-18T16:15:59Z</time>
      </trkpt>
      <trkpt lat="41.8922510" lon="-8.8799000">
        <ele>9.2</ele>
        <time>2021-05-18T16:16:00Z</time>
      </trkpt>
      <trkpt lat="41.8922630" lon="-8.8798970">
        <ele>9.2</ele>
        <time>2021-05-18T16:16:01Z</time>
      </trkpt>
      <trkpt lat="41.8922740" lon="-8.8798940">
        <ele>9.2</ele>
        <time>2021-05-18T16:16:02Z</time>
      </trkpt>
      <trkpt lat="41.8922840" lon="-8.8798860">
        <ele>9.1</ele>
        <time>2021-05-18T16:16:03Z</time>
      </trkpt>
      <trkpt lat="41.8923000" lon="-8.8798790">
        <ele>9.1</ele>
        <time>2021-05-18T16:16:04Z</time>
      </trkpt>
      <trkpt lat="41.8923090" lon="-8.8798750">
        <ele>9.1</ele>
        <time>2021-05-18T16:16:05Z</time>
      </trkpt>
      <trkpt lat="41.8923250" lon="-8.8798670">
        <ele>9.1</ele>
        <time>2021-05-18T16:16:06Z</time>
      </trkpt>
      <trkpt lat="41.8923320" lon="-8.8798640">
        <ele>9.1</ele>
        <time>2021-05-18T16:16:07Z</time>
      </trkpt>
      <trkpt lat="41.8923460" lon="-8.8798560">
        <ele>9.1</ele>
        <time>2021-05-18T16:16:08Z</time>
      </trkpt>
      <trkpt lat="41.8923580" lon="-8.8798490">
        <ele>9.1</ele>
        <time>2021-05-18T16:16:09Z</time>
      </trkpt>
      <trkpt lat="41.8923700" lon="-8.8798440">
        <ele>9.0</ele>
        <time>2021-05-18T16:16:10Z</time>
      </trkpt>
      <trkpt lat="41.8923870" lon="-8.8798360">
        <ele>9.0</ele>
        <time>2021-05-18T16:16:11Z</time>
      </trkpt>
      <trkpt lat="41.8923940" lon="-8.8798300">
        <ele>9.0</ele>
        <time>2021-05-18T16:16:12Z</time>
      </trkpt>
      <trkpt lat="41.8924090" lon="-8.8798240">
        <ele>9.0</ele>
        <time>2021-05-18T16:16:13Z</time>
      </trkpt>
      <trkpt lat="41.8924170" lon="-8.8798190">
        <ele>9.0</ele>
        <time>2021-05-18T16:16:14Z</time>
      </trkpt>
      <trkpt lat="41.8924300" lon="-8.8798120">
        <ele>9.0</ele>
        <time>2021-05-18T16:16:15Z</time>
      </trkpt>
      <trkpt lat="41.8924440" lon="-8.8798050">
        <ele>9.0</ele>
        <time>2021-05-18T16:16:16Z</time>
      </trkpt>
      <trkpt lat="41.8924660" lon="-8.8797990">
        <ele>8.9</ele>
        <time>2021-05-18T16:16:17Z</time>
      </trkpt>
      <trkpt lat="41.8924730" lon="-8.8797980">
        <ele>8.9</ele>
        <time>2021-05-18T16:16:18Z</time>
      </trkpt>
      <trkpt lat="41.8924800" lon="-8.8797960">
        <ele>8.9</ele>
        <time>2021-05-18T16:16:19Z</time>
      </trkpt>
      <trkpt lat="41.8924900" lon="-8.8797950">
        <ele>8.9</ele>
        <time>2021-05-18T16:16:20Z</time>
      </trkpt>
      <trkpt lat="41.8925070" lon="-8.8797890">
        <ele>8.9</ele>
        <time>2021-05-18T16:16:21Z</time>
      </trkpt>
      <trkpt lat="41.8925260" lon="-8.8797810">
        <ele>8.9</ele>
        <time>2021-05-18T16:16:22Z</time>
      </trkpt>
      <trkpt lat="41.8925350" lon="-8.8797760">
        <ele>8.9</ele>
        <time>2021-05-18T16:16:23Z</time>
      </trkpt>
      <trkpt lat="41.8925450" lon="-8.8797710">
        <ele>8.9</ele>
        <time>2021-05-18T16:16:24Z</time>
      </trkpt>
      <trkpt lat="41.8925500" lon="-8.8797680">
        <ele>8.9</ele>
        <time>2021-05-18T16:16:25Z</time>
      </trkpt>
      <trkpt lat="41.8925630" lon="-8.8797640">
        <ele>8.9</ele>
        <time>2021-05-18T16:16:26Z</time>
      </trkpt>
      <trkpt lat="41.8925750" lon="-8.8797570">
        <ele>8.9</ele>
        <time>2021-05-18T16:16:27Z</time>
      </trkpt>
      <trkpt lat="41.8925900" lon="-8.8797560">
        <ele>8.8</ele>
        <time>2021-05-18T16:16:28Z</time>
      </trkpt>
      <trkpt lat="41.8926030" lon="-8.8797550">
        <ele>8.8</ele>
        <time>2021-05-18T16:16:29Z</time>
      </trkpt>
      <trkpt lat="41.8926190" lon="-8.8797440">
        <ele>8.8</ele>
        <time>2021-05-18T16:16:30Z</time>
      </trkpt>
      <trkpt lat="41.8926280" lon="-8.8797390">
        <ele>8.8</ele>
        <time>2021-05-18T16:16:31Z</time>
      </trkpt>
      <trkpt lat="41.8926360" lon="-8.8797330">
        <ele>8.8</ele>
        <time>2021-05-18T16:16:32Z</time>
      </trkpt>
      <trkpt lat="41.8926500" lon="-8.8797280">
        <ele>8.8</ele>
        <time>2021-05-18T16:16:33Z</time>
      </trkpt>
      <trkpt lat="41.8926640" lon="-8.8797270">
        <ele>8.8</ele>
        <time>2021-05-18T16:16:34Z</time>
      </trkpt>
      <trkpt lat="41.8926820" lon="-8.8797160">
        <ele>8.8</ele>
        <time>2021-05-18T16:16:35Z</time>
      </trkpt>
      <trkpt lat="41.8926900" lon="-8.8797110">
        <ele>8.8</ele>
        <time>2021-05-18T16:16:36Z</time>
      </trkpt>
      <trkpt lat="41.8926990" lon="-8.8797060">
        <ele>8.8</ele>
        <time>2021-05-18T16:16:37Z</time>
      </trkpt>
      <trkpt lat="41.8927180" lon="-8.8796990">
        <ele>8.8</ele>
        <time>2021-05-18T16:16:38Z</time>
      </trkpt>
      <trkpt lat="41.8927260" lon="-8.8796960">
        <ele>8.8</ele>
        <time>2021-05-18T16:16:39Z</time>
      </trkpt>
      <trkpt lat="41.8927350" lon="-8.8796920">
        <ele>8.8</ele>
        <time>2021-05-18T16:16:40Z</time>
      </trkpt>
      <trkpt lat="41.8927560" lon="-8.8796830">
        <ele>8.8</ele>
        <time>2021-05-18T16:16:41Z</time>
      </trkpt>
      <trkpt lat="41.8927650" lon="-8.8796800">
        <ele>8.8</ele>
        <time>2021-05-18T16:16:42Z</time>
      </trkpt>
      <trkpt lat="41.8927740" lon="-8.8796760">
        <ele>8.8</ele>
        <time>2021-05-18T16:16:43Z</time>
      </trkpt>
      <trkpt lat="41.8927900" lon="-8.8796730">
        <ele>8.8</ele>
        <time>2021-05-18T16:16:44Z</time>
      </trkpt>
      <trkpt lat="41.8928040" lon="-8.8796670">
        <ele>8.8</ele>
        <time>2021-05-18T16:16:45Z</time>
      </trkpt>
      <trkpt lat="41.8928180" lon="-8.8796590">
        <ele>8.8</ele>
        <time>2021-05-18T16:16:46Z</time>
      </trkpt>
      <trkpt lat="41.8928340" lon="-8.8796510">
        <ele>8.8</ele>
        <time>2021-05-18T16:16:47Z</time>
      </trkpt>
      <trkpt lat="41.8928500" lon="-8.8796450">
        <ele>8.8</ele>
        <time>2021-05-18T16:16:48Z</time>
      </trkpt>
      <trkpt lat="41.8928660" lon="-8.8796450">
        <ele>8.8</ele>
        <time>2021-05-18T16:16:49Z</time>
      </trkpt>
      <trkpt lat="41.8928790" lon="-8.8796350">
        <ele>8.8</ele>
        <time>2021-05-18T16:16:50Z</time>
      </trkpt>
      <trkpt lat="41.8928930" lon="-8.8796270">
        <ele>8.8</ele>
        <time>2021-05-18T16:16:51Z</time>
      </trkpt>
      <trkpt lat="41.8929080" lon="-8.8796240">
        <ele>8.8</ele>
        <time>2021-05-18T16:16:52Z</time>
      </trkpt>
      <trkpt lat="41.8929220" lon="-8.8796160">
        <ele>8.8</ele>
        <time>2021-05-18T16:16:53Z</time>
      </trkpt>
      <trkpt lat="41.8929360" lon="-8.8796140">
        <ele>8.8</ele>
        <time>2021-05-18T16:16:54Z</time>
      </trkpt>
      <trkpt lat="41.8929500" lon="-8.8796090">
        <ele>8.8</ele>
        <time>2021-05-18T16:16:55Z</time>
      </trkpt>
      <trkpt lat="41.8929630" lon="-8.8796020">
        <ele>8.8</ele>
        <time>2021-05-18T16:16:56Z</time>
      </trkpt>
      <trkpt lat="41.8929770" lon="-8.8796000">
        <ele>8.8</ele>
        <time>2021-05-18T16:16:57Z</time>
      </trkpt>
      <trkpt lat="41.8929910" lon="-8.8795950">
        <ele>8.8</ele>
        <time>2021-05-18T16:16:58Z</time>
      </trkpt>
      <trkpt lat="41.8930050" lon="-8.8795910">
        <ele>8.8</ele>
        <time>2021-05-18T16:16:59Z</time>
      </trkpt>
      <trkpt lat="41.8930180" lon="-8.8795810">
        <ele>8.8</ele>
        <time>2021-05-18T16:17:00Z</time>
      </trkpt>
      <trkpt lat="41.8930240" lon="-8.8795860">
        <ele>8.8</ele>
        <time>2021-05-18T16:17:01Z</time>
      </trkpt>
      <trkpt lat="41.8930330" lon="-8.8795800">
        <ele>8.8</ele>
        <time>2021-05-18T16:17:02Z</time>
      </trkpt>
      <trkpt lat="41.8930460" lon="-8.8795790">
        <ele>8.8</ele>
        <time>2021-05-18T16:17:03Z</time>
      </trkpt>
      <trkpt lat="41.8930590" lon="-8.8795800">
        <ele>8.9</ele>
        <time>2021-05-18T16:17:04Z</time>
      </trkpt>
      <trkpt lat="41.8930690" lon="-8.8795780">
        <ele>8.9</ele>
        <time>2021-05-18T16:17:05Z</time>
      </trkpt>
      <trkpt lat="41.8930840" lon="-8.8795700">
        <ele>8.9</ele>
        <time>2021-05-18T16:17:06Z</time>
      </trkpt>
      <trkpt lat="41.8930990" lon="-8.8795630">
        <ele>8.9</ele>
        <time>2021-05-18T16:17:07Z</time>
      </trkpt>
      <trkpt lat="41.8931110" lon="-8.8795620">
        <ele>8.9</ele>
        <time>2021-05-18T16:17:08Z</time>
      </trkpt>
      <trkpt lat="41.8931190" lon="-8.8795590">
        <ele>8.9</ele>
        <time>2021-05-18T16:17:09Z</time>
      </trkpt>
      <trkpt lat="41.8931280" lon="-8.8795560">
        <ele>8.9</ele>
        <time>2021-05-18T16:17:10Z</time>
      </trkpt>
      <trkpt lat="41.8931360" lon="-8.8795530">
        <ele>8.9</ele>
        <time>2021-05-18T16:17:11Z</time>
      </trkpt>
      <trkpt lat="41.8931520" lon="-8.8795480">
        <ele>8.9</ele>
        <time>2021-05-18T16:17:12Z</time>
      </trkpt>
      <trkpt lat="41.8931590" lon="-8.8795460">
        <ele>9.0</ele>
        <time>2021-05-18T16:17:13Z</time>
      </trkpt>
      <trkpt lat="41.8931700" lon="-8.8795430">
        <ele>9.0</ele>
        <time>2021-05-18T16:17:14Z</time>
      </trkpt>
      <trkpt lat="41.8931920" lon="-8.8795370">
        <ele>9.0</ele>
        <time>2021-05-18T16:17:15Z</time>
      </trkpt>
      <trkpt lat="41.8932020" lon="-8.8795340">
        <ele>9.0</ele>
        <time>2021-05-18T16:17:16Z</time>
      </trkpt>
      <trkpt lat="41.8932110" lon="-8.8795310">
        <ele>9.0</ele>
        <time>2021-05-18T16:17:17Z</time>
      </trkpt>
      <trkpt lat="41.8932170" lon="-8.8795260">
        <ele>9.0</ele>
        <time>2021-05-18T16:17:18Z</time>
      </trkpt>
      <trkpt lat="41.8932260" lon="-8.8795210">
        <ele>9.0</ele>
        <time>2021-05-18T16:17:19Z</time>
      </trkpt>
      <trkpt lat="41.8932430" lon="-8.8795110">
        <ele>9.0</ele>
        <time>2021-05-18T16:17:20Z</time>
      </trkpt>
      <trkpt lat="41.8932620" lon="-8.8795000">
        <ele>9.1</ele>
        <time>2021-05-18T16:17:21Z</time>
      </trkpt>
      <trkpt lat="41.8932730" lon="-8.8794960">
        <ele>9.1</ele>
        <time>2021-05-18T16:17:22Z</time>
      </trkpt>
      <trkpt lat="41.8932830" lon="-8.8794920">
        <ele>9.1</ele>
        <time>2021-05-18T16:17:23Z</time>
      </trkpt>
      <trkpt lat="41.8932990" lon="-8.8794900">
        <ele>9.1</ele>
        <time>2021-05-18T16:17:24Z</time>
      </trkpt>
      <trkpt lat="41.8933140" lon="-8.8794800">
        <ele>9.1</ele>
        <time>2021-05-18T16:17:25Z</time>
      </trkpt>
      <trkpt lat="41.8933270" lon="-8.8794820">
        <ele>9.1</ele>
        <time>2021-05-18T16:17:26Z</time>
      </trkpt>
      <trkpt lat="41.8933380" lon="-8.8794770">
        <ele>9.1</ele>
        <time>2021-05-18T16:17:27Z</time>
      </trkpt>
      <trkpt lat="41.8933440" lon="-8.8794720">
        <ele>9.1</ele>
        <time>2021-05-18T16:17:28Z</time>
      </trkpt>
      <trkpt lat="41.8933640" lon="-8.8794650">
        <ele>9.1</ele>
        <time>2021-05-18T16:17:29Z</time>
      </trkpt>
      <trkpt lat="41.8933720" lon="-8.8794630">
        <ele>9.1</ele>
        <time>2021-05-18T16:17:30Z</time>
      </trkpt>
      <trkpt lat="41.8933840" lon="-8.8794600">
        <ele>9.1</ele>
        <time>2021-05-18T16:17:31Z</time>
      </trkpt>
      <trkpt lat="41.8933950" lon="-8.8794640">
        <ele>9.1</ele>
        <time>2021-05-18T16:17:32Z</time>
      </trkpt>
      <trkpt lat="41.8934080" lon="-8.8794560">
        <ele>9.1</ele>
        <time>2021-05-18T16:17:33Z</time>
      </trkpt>
      <trkpt lat="41.8934160" lon="-8.8794570">
        <ele>9.1</ele>
        <time>2021-05-18T16:17:34Z</time>
      </trkpt>
      <trkpt lat="41.8934310" lon="-8.8794520">
        <ele>9.1</ele>
        <time>2021-05-18T16:17:35Z</time>
      </trkpt>
      <trkpt lat="41.8934410" lon="-8.8794490">
        <ele>9.1</ele>
        <time>2021-05-18T16:17:36Z</time>
      </trkpt>
      <trkpt lat="41.8934570" lon="-8.8794410">
        <ele>9.1</ele>
        <time>2021-05-18T16:17:37Z</time>
      </trkpt>
      <trkpt lat="41.8934660" lon="-8.8794330">
        <ele>9.1</ele>
        <time>2021-05-18T16:17:38Z</time>
      </trkpt>
      <trkpt lat="41.8934870" lon="-8.8794250">
        <ele>9.1</ele>
        <time>2021-05-18T16:17:39Z</time>
      </trkpt>
      <trkpt lat="41.8934930" lon="-8.8794290">
        <ele>9.1</ele>
        <time>2021-05-18T16:17:40Z</time>
      </trkpt>
      <trkpt lat="41.8935180" lon="-8.8794190">
        <ele>9.0</ele>
        <time>2021-05-18T16:17:41Z</time>
      </trkpt>
      <trkpt lat="41.8935270" lon="-8.8794160">
        <ele>9.0</ele>
        <time>2021-05-18T16:17:42Z</time>
      </trkpt>
      <trkpt lat="41.8935370" lon="-8.8794120">
        <ele>9.0</ele>
        <time>2021-05-18T16:17:43Z</time>
      </trkpt>
      <trkpt lat="41.8935470" lon="-8.8794170">
        <ele>9.0</ele>
        <time>2021-05-18T16:17:44Z</time>
      </trkpt>
      <trkpt lat="41.8935660" lon="-8.8794090">
        <ele>9.0</ele>
        <time>2021-05-18T16:17:45Z</time>
      </trkpt>
      <trkpt lat="41.8935800" lon="-8.8794030">
        <ele>9.0</ele>
        <time>2021-05-18T16:17:46Z</time>
      </trkpt>
      <trkpt lat="41.8935960" lon="-8.8793950">
        <ele>9.0</ele>
        <time>2021-05-18T16:17:47Z</time>
      </trkpt>
      <trkpt lat="41.8936110" lon="-8.8793950">
        <ele>9.0</ele>
        <time>2021-05-18T16:17:48Z</time>
      </trkpt>
      <trkpt lat="41.8936260" lon="-8.8793870">
        <ele>9.0</ele>
        <time>2021-05-18T16:17:49Z</time>
      </trkpt>
      <trkpt lat="41.8936420" lon="-8.8793820">
        <ele>9.0</ele>
        <time>2021-05-18T16:17:50Z</time>
      </trkpt>
      <trkpt lat="41.8936570" lon="-8.8793780">
        <ele>9.0</ele>
        <time>2021-05-18T16:17:51Z</time>
      </trkpt>
      <trkpt lat="41.8936720" lon="-8.8793700">
        <ele>9.0</ele>
        <time>2021-05-18T16:17:52Z</time>
      </trkpt>
      <trkpt lat="41.8936860" lon="-8.8793640">
        <ele>9.0</ele>
        <time>2021-05-18T16:17:53Z</time>
      </trkpt>
      <trkpt lat="41.8937010" lon="-8.8793600">
        <ele>9.0</ele>
        <time>2021-05-18T16:17:54Z</time>
      </trkpt>
      <trkpt lat="41.8937160" lon="-8.8793540">
        <ele>8.9</ele>
        <time>2021-05-18T16:17:55Z</time>
      </trkpt>
      <trkpt lat="41.8937300" lon="-8.8793510">
        <ele>8.9</ele>
        <time>2021-05-18T16:17:56Z</time>
      </trkpt>
      <trkpt lat="41.8937430" lon="-8.8793480">
        <ele>8.9</ele>
        <time>2021-05-18T16:17:57Z</time>
      </trkpt>
      <trkpt lat="41.8937580" lon="-8.8793450">
        <ele>8.9</ele>
        <time>2021-05-18T16:17:58Z</time>
      </trkpt>
      <trkpt lat="41.8937700" lon="-8.8793330">
        <ele>8.9</ele>
        <time>2021-05-18T16:17:59Z</time>
      </trkpt>
      <trkpt lat="41.8937830" lon="-8.8793270">
        <ele>8.9</ele>
        <time>2021-05-18T16:18:00Z</time>
      </trkpt>
      <trkpt lat="41.8937970" lon="-8.8793260">
        <ele>8.9</ele>
        <time>2021-05-18T16:18:01Z</time>
      </trkpt>
      <trkpt lat="41.8938130" lon="-8.8793240">
        <ele>8.9</ele>
        <time>2021-05-18T16:18:02Z</time>
      </trkpt>
      <trkpt lat="41.8938290" lon="-8.8793170">
        <ele>8.9</ele>
        <time>2021-05-18T16:18:03Z</time>
      </trkpt>
      <trkpt lat="41.8938430" lon="-8.8793130">
        <ele>8.9</ele>
        <time>2021-05-18T16:18:04Z</time>
      </trkpt>
      <trkpt lat="41.8938560" lon="-8.8793080">
        <ele>8.8</ele>
        <time>2021-05-18T16:18:05Z</time>
      </trkpt>
      <trkpt lat="41.8938700" lon="-8.8793030">
        <ele>8.8</ele>
        <time>2021-05-18T16:18:06Z</time>
      </trkpt>
      <trkpt lat="41.8938830" lon="-8.8792940">
        <ele>8.8</ele>
        <time>2021-05-18T16:18:07Z</time>
      </trkpt>
      <trkpt lat="41.8938970" lon="-8.8792870">
        <ele>8.8</ele>
        <time>2021-05-18T16:18:08Z</time>
      </trkpt>
      <trkpt lat="41.8939120" lon="-8.8792880">
        <ele>8.8</ele>
        <time>2021-05-18T16:18:09Z</time>
      </trkpt>
      <trkpt lat="41.8939250" lon="-8.8792830">
        <ele>8.8</ele>
        <time>2021-05-18T16:18:10Z</time>
      </trkpt>
      <trkpt lat="41.8939390" lon="-8.8792750">
        <ele>8.8</ele>
        <time>2021-05-18T16:18:11Z</time>
      </trkpt>
      <trkpt lat="41.8939610" lon="-8.8792620">
        <ele>8.8</ele>
        <time>2021-05-18T16:18:12Z</time>
      </trkpt>
      <trkpt lat="41.8939700" lon="-8.8792590">
        <ele>8.8</ele>
        <time>2021-05-18T16:18:13Z</time>
      </trkpt>
      <trkpt lat="41.8939790" lon="-8.8792550">
        <ele>8.8</ele>
        <time>2021-05-18T16:18:14Z</time>
      </trkpt>
      <trkpt lat="41.8940000" lon="-8.8792490">
        <ele>8.8</ele>
        <time>2021-05-18T16:18:15Z</time>
      </trkpt>
      <trkpt lat="41.8940090" lon="-8.8792480">
        <ele>8.8</ele>
        <time>2021-05-18T16:18:16Z</time>
      </trkpt>
      <trkpt lat="41.8940170" lon="-8.8792460">
        <ele>8.8</ele>
        <time>2021-05-18T16:18:17Z</time>
      </trkpt>
      <trkpt lat="41.8940270" lon="-8.8792390">
        <ele>8.8</ele>
        <time>2021-05-18T16:18:18Z</time>
      </trkpt>
      <trkpt lat="41.8940360" lon="-8.8792270">
        <ele>8.8</ele>
        <time>2021-05-18T16:18:19Z</time>
      </trkpt>
      <trkpt lat="41.8940470" lon="-8.8792220">
        <ele>8.8</ele>
        <time>2021-05-18T16:18:20Z</time>
      </trkpt>
      <trkpt lat="41.8940580" lon="-8.8792140">
        <ele>8.8</ele>
        <time>2021-05-18T16:18:21Z</time>
      </trkpt>
      <trkpt lat="41.8940720" lon="-8.8792060">
        <ele>8.8</ele>
        <time>2021-05-18T16:18:22Z</time>
      </trkpt>
      <trkpt lat="41.8940900" lon="-8.8791970">
        <ele>8.8</ele>
        <time>2021-05-18T16:18:23Z</time>
      </trkpt>
      <trkpt lat="41.8940980" lon="-8.8791920">
        <ele>8.8</ele>
        <time>2021-05-18T16:18:24Z</time>
      </trkpt>
      <trkpt lat="41.8941070" lon="-8.8791870">
        <ele>8.8</ele>
        <time>2021-05-18T16:18:25Z</time>
      </trkpt>
      <trkpt lat="41.8941200" lon="-8.8791800">
        <ele>8.8</ele>
        <time>2021-05-18T16:18:26Z</time>
      </trkpt>
      <trkpt lat="41.8941320" lon="-8.8791730">
        <ele>8.8</ele>
        <time>2021-05-18T16:18:27Z</time>
      </trkpt>
      <trkpt lat="41.8941520" lon="-8.8791620">
        <ele>8.9</ele>
        <time>2021-05-18T16:18:28Z</time>
      </trkpt>
      <trkpt lat="41.8941610" lon="-8.8791590">
        <ele>8.9</ele>
        <time>2021-05-18T16:18:29Z</time>
      </trkpt>
      <trkpt lat="41.8941690" lon="-8.8791550">
        <ele>8.9</ele>
        <time>2021-05-18T16:18:30Z</time>
      </trkpt>
      <trkpt lat="41.8941870" lon="-8.8791390">
        <ele>8.9</ele>
        <time>2021-05-18T16:18:31Z</time>
      </trkpt>
      <trkpt lat="41.8941940" lon="-8.8791350">
        <ele>8.9</ele>
        <time>2021-05-18T16:18:32Z</time>
      </trkpt>
      <trkpt lat="41.8942020" lon="-8.8791320">
        <ele>8.9</ele>
        <time>2021-05-18T16:18:33Z</time>
      </trkpt>
      <trkpt lat="41.8942230" lon="-8.8791190">
        <ele>8.9</ele>
        <time>2021-05-18T16:18:34Z</time>
      </trkpt>
      <trkpt lat="41.8942320" lon="-8.8791140">
        <ele>8.9</ele>
        <time>2021-05-18T16:18:35Z</time>
      </trkpt>
      <trkpt lat="41.8942400" lon="-8.8791090">
        <ele>8.9</ele>
        <time>2021-05-18T16:18:36Z</time>
      </trkpt>
      <trkpt lat="41.8942510" lon="-8.8790990">
        <ele>8.9</ele>
        <time>2021-05-18T16:18:37Z</time>
      </trkpt>
      <trkpt lat="41.8942640" lon="-8.8790910">
        <ele>8.9</ele>
        <time>2021-05-18T16:18:38Z</time>
      </trkpt>
      <trkpt lat="41.8942750" lon="-8.8790790">
        <ele>8.9</ele>
        <time>2021-05-18T16:18:39Z</time>
      </trkpt>
      <trkpt lat="41.8942850" lon="-8.8790640">
        <ele>8.9</ele>
        <time>2021-05-18T16:18:40Z</time>
      </trkpt>
      <trkpt lat="41.8942960" lon="-8.8790520">
        <ele>8.9</ele>
        <time>2021-05-18T16:18:41Z</time>
      </trkpt>
      <trkpt lat="41.8943100" lon="-8.8790440">
        <ele>8.9</ele>
        <time>2021-05-18T16:18:42Z</time>
      </trkpt>
      <trkpt lat="41.8943230" lon="-8.8790370">
        <ele>8.9</ele>
        <time>2021-05-18T16:18:43Z</time>
      </trkpt>
      <trkpt lat="41.8943330" lon="-8.8790240">
        <ele>8.9</ele>
        <time>2021-05-18T16:18:44Z</time>
      </trkpt>
      <trkpt lat="41.8943460" lon="-8.8790140">
        <ele>8.9</ele>
        <time>2021-05-18T16:18:45Z</time>
      </trkpt>
      <trkpt lat="41.8943580" lon="-8.8790050">
        <ele>8.9</ele>
        <time>2021-05-18T16:18:46Z</time>
      </trkpt>
      <trkpt lat="41.8943760" lon="-8.8789900">
        <ele>8.9</ele>
        <time>2021-05-18T16:18:47Z</time>
      </trkpt>
      <trkpt lat="41.8943850" lon="-8.8789860">
        <ele>8.9</ele>
        <time>2021-05-18T16:18:48Z</time>
      </trkpt>
      <trkpt lat="41.8943930" lon="-8.8789810">
        <ele>8.9</ele>
        <time>2021-05-18T16:18:49Z</time>
      </trkpt>
      <trkpt lat="41.8944110" lon="-8.8789680">
        <ele>8.8</ele>
        <time>2021-05-18T16:18:50Z</time>
      </trkpt>
      <trkpt lat="41.8944190" lon="-8.8789640">
        <ele>8.8</ele>
        <time>2021-05-18T16:18:51Z</time>
      </trkpt>
      <trkpt lat="41.8944260" lon="-8.8789590">
        <ele>8.8</ele>
        <time>2021-05-18T16:18:52Z</time>
      </trkpt>
      <trkpt lat="41.8944300" lon="-8.8789560">
        <ele>8.8</ele>
        <time>2021-05-18T16:18:53Z</time>
      </trkpt>
      <trkpt lat="41.8944350" lon="-8.8789470">
        <ele>8.8</ele>
        <time>2021-05-18T16:18:54Z</time>
      </trkpt>
      <trkpt lat="41.8944450" lon="-8.8789380">
        <ele>8.8</ele>
        <time>2021-05-18T16:18:55Z</time>
      </trkpt>
      <trkpt lat="41.8944510" lon="-8.8789300">
        <ele>8.8</ele>
        <time>2021-05-18T16:18:56Z</time>
      </trkpt>
      <trkpt lat="41.8944550" lon="-8.8789270">
        <ele>8.8</ele>
        <time>2021-05-18T16:18:57Z</time>
      </trkpt>
      <trkpt lat="41.8944650" lon="-8.8789120">
        <ele>8.8</ele>
        <time>2021-05-18T16:18:58Z</time>
      </trkpt>
      <trkpt lat="41.8944720" lon="-8.8788970">
        <ele>8.8</ele>
        <time>2021-05-18T16:18:59Z</time>
      </trkpt>
      <trkpt lat="41.8944900" lon="-8.8788800">
        <ele>8.8</ele>
        <time>2021-05-18T16:19:00Z</time>
      </trkpt>
      <trkpt lat="41.8944960" lon="-8.8788730">
        <ele>8.8</ele>
        <time>2021-05-18T16:19:01Z</time>
      </trkpt>
      <trkpt lat="41.8945030" lon="-8.8788670">
        <ele>8.8</ele>
        <time>2021-05-18T16:19:02Z</time>
      </trkpt>
      <trkpt lat="41.8945080" lon="-8.8788690">
        <ele>8.8</ele>
        <time>2021-05-18T16:19:03Z</time>
      </trkpt>
      <trkpt lat="41.8945220" lon="-8.8788500">
        <ele>8.7</ele>
        <time>2021-05-18T16:19:04Z</time>
      </trkpt>
      <trkpt lat="41.8945330" lon="-8.8788460">
        <ele>8.7</ele>
        <time>2021-05-18T16:19:05Z</time>
      </trkpt>
      <trkpt lat="41.8945450" lon="-8.8788280">
        <ele>8.7</ele>
        <time>2021-05-18T16:19:06Z</time>
      </trkpt>
      <trkpt lat="41.8945560" lon="-8.8788170">
        <ele>8.7</ele>
        <time>2021-05-18T16:19:07Z</time>
      </trkpt>
      <trkpt lat="41.8945690" lon="-8.8788020">
        <ele>8.7</ele>
        <time>2021-05-18T16:19:08Z</time>
      </trkpt>
      <trkpt lat="41.8945800" lon="-8.8787890">
        <ele>8.6</ele>
        <time>2021-05-18T16:19:09Z</time>
      </trkpt>
      <trkpt lat="41.8945910" lon="-8.8787730">
        <ele>8.6</ele>
        <time>2021-05-18T16:19:10Z</time>
      </trkpt>
      <trkpt lat="41.8946030" lon="-8.8787620">
        <ele>8.6</ele>
        <time>2021-05-18T16:19:11Z</time>
      </trkpt>
      <trkpt lat="41.8946130" lon="-8.8787480">
        <ele>8.6</ele>
        <time>2021-05-18T16:19:12Z</time>
      </trkpt>
      <trkpt lat="41.8946270" lon="-8.8787390">
        <ele>8.6</ele>
        <time>2021-05-18T16:19:13Z</time>
      </trkpt>
      <trkpt lat="41.8946370" lon="-8.8787240">
        <ele>8.6</ele>
        <time>2021-05-18T16:19:14Z</time>
      </trkpt>
      <trkpt lat="41.8946490" lon="-8.8787170">
        <ele>8.6</ele>
        <time>2021-05-18T16:19:15Z</time>
      </trkpt>
      <trkpt lat="41.8946600" lon="-8.8787050">
        <ele>8.5</ele>
        <time>2021-05-18T16:19:16Z</time>
      </trkpt>
      <trkpt lat="41.8946710" lon="-8.8786940">
        <ele>8.5</ele>
        <time>2021-05-18T16:19:17Z</time>
      </trkpt>
      <trkpt lat="41.8946890" lon="-8.8786770">
        <ele>8.5</ele>
        <time>2021-05-18T16:19:18Z</time>
      </trkpt>
      <trkpt lat="41.8946970" lon="-8.8786710">
        <ele>8.5</ele>
        <time>2021-05-18T16:19:19Z</time>
      </trkpt>
      <trkpt lat="41.8947040" lon="-8.8786640">
        <ele>8.5</ele>
        <time>2021-05-18T16:19:20Z</time>
      </trkpt>
      <trkpt lat="41.8947180" lon="-8.8786590">
        <ele>8.5</ele>
        <time>2021-05-18T16:19:21Z</time>
      </trkpt>
      <trkpt lat="41.8947280" lon="-8.8786460">
        <ele>8.5</ele>
        <time>2021-05-18T16:19:22Z</time>
      </trkpt>
      <trkpt lat="41.8947410" lon="-8.8786370">
        <ele>8.5</ele>
        <time>2021-05-18T16:19:23Z</time>
      </trkpt>
      <trkpt lat="41.8947530" lon="-8.8786260">
        <ele>8.5</ele>
        <time>2021-05-18T16:19:24Z</time>
      </trkpt>
      <trkpt lat="41.8947650" lon="-8.8786170">
        <ele>8.5</ele>
        <time>2021-05-18T16:19:25Z</time>
      </trkpt>
      <trkpt lat="41.8947780" lon="-8.8786090">
        <ele>8.5</ele>
        <time>2021-05-18T16:19:26Z</time>
      </trkpt>
      <trkpt lat="41.8947910" lon="-8.8786020">
        <ele>8.5</ele>
        <time>2021-05-18T16:19:27Z</time>
      </trkpt>
      <trkpt lat="41.8948030" lon="-8.8785940">
        <ele>8.5</ele>
        <time>2021-05-18T16:19:28Z</time>
      </trkpt>
      <trkpt lat="41.8948230" lon="-8.8785810">
        <ele>8.5</ele>
        <time>2021-05-18T16:19:29Z</time>
      </trkpt>
      <trkpt lat="41.8948310" lon="-8.8785770">
        <ele>8.5</ele>
        <time>2021-05-18T16:19:30Z</time>
      </trkpt>
      <trkpt lat="41.8948380" lon="-8.8785720">
        <ele>8.5</ele>
        <time>2021-05-18T16:19:31Z</time>
      </trkpt>
      <trkpt lat="41.8948490" lon="-8.8785620">
        <ele>8.5</ele>
        <time>2021-05-18T16:19:32Z</time>
      </trkpt>
      <trkpt lat="41.8948580" lon="-8.8785470">
        <ele>8.5</ele>
        <time>2021-05-18T16:19:33Z</time>
      </trkpt>
      <trkpt lat="41.8948700" lon="-8.8785390">
        <ele>8.5</ele>
        <time>2021-05-18T16:19:34Z</time>
      </trkpt>
      <trkpt lat="41.8948850" lon="-8.8785360">
        <ele>8.5</ele>
        <time>2021-05-18T16:19:35Z</time>
      </trkpt>
      <trkpt lat="41.8948970" lon="-8.8785280">
        <ele>8.5</ele>
        <time>2021-05-18T16:19:36Z</time>
      </trkpt>
      <trkpt lat="41.8949100" lon="-8.8785210">
        <ele>8.5</ele>
        <time>2021-05-18T16:19:37Z</time>
      </trkpt>
      <trkpt lat="41.8949300" lon="-8.8785110">
        <ele>8.5</ele>
        <time>2021-05-18T16:19:38Z</time>
      </trkpt>
      <trkpt lat="41.8949380" lon="-8.8785060">
        <ele>8.5</ele>
        <time>2021-05-18T16:19:39Z</time>
      </trkpt>
      <trkpt lat="41.8949450" lon="-8.8785000">
        <ele>8.5</ele>
        <time>2021-05-18T16:19:40Z</time>
      </trkpt>
      <trkpt lat="41.8949600" lon="-8.8784820">
        <ele>8.5</ele>
        <time>2021-05-18T16:19:41Z</time>
      </trkpt>
      <trkpt lat="41.8949680" lon="-8.8784750">
        <ele>8.5</ele>
        <time>2021-05-18T16:19:42Z</time>
      </trkpt>
      <trkpt lat="41.8949750" lon="-8.8784690">
        <ele>8.5</ele>
        <time>2021-05-18T16:19:43Z</time>
      </trkpt>
      <trkpt lat="41.8949920" lon="-8.8784490">
        <ele>8.5</ele>
        <time>2021-05-18T16:19:44Z</time>
      </trkpt>
      <trkpt lat="41.8949990" lon="-8.8784440">
        <ele>8.5</ele>
        <time>2021-05-18T16:19:45Z</time>
      </trkpt>
      <trkpt lat="41.8950060" lon="-8.8784380">
        <ele>8.5</ele>
        <time>2021-05-18T16:19:46Z</time>
      </trkpt>
      <trkpt lat="41.8950240" lon="-8.8784260">
        <ele>8.5</ele>
        <time>2021-05-18T16:19:47Z</time>
      </trkpt>
      <trkpt lat="41.8950330" lon="-8.8784240">
        <ele>8.5</ele>
        <time>2021-05-18T16:19:48Z</time>
      </trkpt>
      <trkpt lat="41.8950420" lon="-8.8784230">
        <ele>8.5</ele>
        <time>2021-05-18T16:19:49Z</time>
      </trkpt>
      <trkpt lat="41.8950640" lon="-8.8784150">
        <ele>8.5</ele>
        <time>2021-05-18T16:19:50Z</time>
      </trkpt>
      <trkpt lat="41.8950720" lon="-8.8784110">
        <ele>8.5</ele>
        <time>2021-05-18T16:19:51Z</time>
      </trkpt>
      <trkpt lat="41.8950810" lon="-8.8784080">
        <ele>8.5</ele>
        <time>2021-05-18T16:19:52Z</time>
      </trkpt>
      <trkpt lat="41.8950980" lon="-8.8784100">
        <ele>8.5</ele>
        <time>2021-05-18T16:19:53Z</time>
      </trkpt>
      <trkpt lat="41.8951130" lon="-8.8784100">
        <ele>8.5</ele>
        <time>2021-05-18T16:19:54Z</time>
      </trkpt>
      <trkpt lat="41.8951300" lon="-8.8784190">
        <ele>8.5</ele>
        <time>2021-05-18T16:19:55Z</time>
      </trkpt>
      <trkpt lat="41.8951440" lon="-8.8784150">
        <ele>8.5</ele>
        <time>2021-05-18T16:19:56Z</time>
      </trkpt>
      <trkpt lat="41.8951590" lon="-8.8784150">
        <ele>8.5</ele>
        <time>2021-05-18T16:19:57Z</time>
      </trkpt>
      <trkpt lat="41.8951740" lon="-8.8784120">
        <ele>8.5</ele>
        <time>2021-05-18T16:19:58Z</time>
      </trkpt>
      <trkpt lat="41.8951830" lon="-8.8784000">
        <ele>8.5</ele>
        <time>2021-05-18T16:19:59Z</time>
      </trkpt>
      <trkpt lat="41.8951880" lon="-8.8783870">
        <ele>8.5</ele>
        <time>2021-05-18T16:20:00Z</time>
      </trkpt>
      <trkpt lat="41.8951950" lon="-8.8783800">
        <ele>8.5</ele>
        <time>2021-05-18T16:20:01Z</time>
      </trkpt>
      <trkpt lat="41.8951950" lon="-8.8783660">
        <ele>8.5</ele>
        <time>2021-05-18T16:20:02Z</time>
      </trkpt>
      <trkpt lat="41.8951970" lon="-8.8783520">
        <ele>8.5</ele>
        <time>2021-05-18T16:20:03Z</time>
      </trkpt>
      <trkpt lat="41.8952040" lon="-8.8783480">
        <ele>8.5</ele>
        <time>2021-05-18T16:20:04Z</time>
      </trkpt>
      <trkpt lat="41.8952110" lon="-8.8783450">
        <ele>8.5</ele>
        <time>2021-05-18T16:20:05Z</time>
      </trkpt>
      <trkpt lat="41.8952200" lon="-8.8783390">
        <ele>8.5</ele>
        <time>2021-05-18T16:20:06Z</time>
      </trkpt>
      <trkpt lat="41.8952200" lon="-8.8783390">
        <ele>8.5</ele>
        <time>2021-05-18T16:20:07Z</time>
      </trkpt>
      <trkpt lat="41.8952200" lon="-8.8783400">
        <ele>8.5</ele>
        <time>2021-05-18T16:20:08Z</time>
      </trkpt>
      <trkpt lat="41.8952190" lon="-8.8783400">
        <ele>8.5</ele>
        <time>2021-05-18T16:20:09Z</time>
      </trkpt>
      <trkpt lat="41.8952190" lon="-8.8783400">
        <ele>8.5</ele>
        <time>2021-05-18T16:20:10Z</time>
      </trkpt>
      <trkpt lat="41.8952190" lon="-8.8783400">
        <ele>8.5</ele>
        <time>2021-05-18T16:20:11Z</time>
      </trkpt>
      <trkpt lat="41.8952190" lon="-8.8783400">
        <ele>8.5</ele>
        <time>2021-05-18T16:20:12Z</time>
      </trkpt>
      <trkpt lat="41.8952190" lon="-8.8783400">
        <ele>8.5</ele>
        <time>2021-05-18T16:20:13Z</time>
      </trkpt>
      <trkpt lat="41.8952190" lon="-8.8783410">
        <ele>8.5</ele>
        <time>2021-05-18T16:20:14Z</time>
      </trkpt>
      <trkpt lat="41.8952190" lon="-8.8783410">
        <ele>8.5</ele>
        <time>2021-05-18T16:20:15Z</time>
      </trkpt>
      <trkpt lat="41.8952180" lon="-8.8783410">
        <ele>8.5</ele>
        <time>2021-05-18T16:20:16Z</time>
      </trkpt>
      <trkpt lat="41.8952180" lon="-8.8783410">
        <ele>8.5</ele>
        <time>2021-05-18T16:20:17Z</time>
      </trkpt>
      <trkpt lat="41.8952180" lon="-8.8783410">
        <ele>8.5</ele>
        <time>2021-05-18T16:20:18Z</time>
      </trkpt>
      <trkpt lat="41.8952180" lon="-8.8783410">
        <ele>8.5</ele>
        <time>2021-05-18T16:20:19Z</time>
      </trkpt>
      <trkpt lat="41.8952180" lon="-8.8783420">
        <ele>8.5</ele>
        <time>2021-05-18T16:20:20Z</time>
      </trkpt>
      <trkpt lat="41.8952180" lon="-8.8783420">
        <ele>8.5</ele>
        <time>2021-05-18T16:20:21Z</time>
      </trkpt>
      <trkpt lat="41.8952180" lon="-8.8783420">
        <ele>8.5</ele>
        <time>2021-05-18T16:20:22Z</time>
      </trkpt>
      <trkpt lat="41.8952170" lon="-8.8783420">
        <ele>8.5</ele>
        <time>2021-05-18T16:20:23Z</time>
      </trkpt>
      <trkpt lat="41.8952170" lon="-8.8783420">
        <ele>8.5</ele>
        <time>2021-05-18T16:20:24Z</time>
      </trkpt>
      <trkpt lat="41.8952170" lon="-8.8783420">
        <ele>8.5</ele>
        <time>2021-05-18T16:20:25Z</time>
      </trkpt>
      <trkpt lat="41.8952170" lon="-8.8783430">
        <ele>8.5</ele>
        <time>2021-05-18T16:20:26Z</time>
      </trkpt>
      <trkpt lat="41.8952170" lon="-8.8783430">
        <ele>8.5</ele>
        <time>2021-05-18T16:20:27Z</time>
      </trkpt>
      <trkpt lat="41.8952170" lon="-8.8783430">
        <ele>8.5</ele>
        <time>2021-05-18T16:20:28Z</time>
      </trkpt>
      <trkpt lat="41.8952160" lon="-8.8783430">
        <ele>8.5</ele>
        <time>2021-05-18T16:20:29Z</time>
      </trkpt>
      <trkpt lat="41.8952160" lon="-8.8783430">
        <ele>8.5</ele>
        <time>2021-05-18T16:20:30Z</time>
      </trkpt>
      <trkpt lat="41.8952160" lon="-8.8783430">
        <ele>8.5</ele>
        <time>2021-05-18T16:20:31Z</time>
      </trkpt>
      <trkpt lat="41.8952160" lon="-8.8783440">
        <ele>8.5</ele>
        <time>2021-05-18T16:20:32Z</time>
      </trkpt>
      <trkpt lat="41.8952160" lon="-8.8783440">
        <ele>8.5</ele>
        <time>2021-05-18T16:20:33Z</time>
      </trkpt>
      <trkpt lat="41.8952160" lon="-8.8783440">
        <ele>8.5</ele>
        <time>2021-05-18T16:20:34Z</time>
      </trkpt>
      <trkpt lat="41.8952160" lon="-8.8783440">
        <ele>8.5</ele>
        <time>2021-05-18T16:20:35Z</time>
      </trkpt>
      <trkpt lat="41.8952150" lon="-8.8783440">
        <ele>8.5</ele>
        <time>2021-05-18T16:20:36Z</time>
      </trkpt>
      <trkpt lat="41.8952150" lon="-8.8783450">
        <ele>8.5</ele>
        <time>2021-05-18T16:20:37Z</time>
      </trkpt>
      <trkpt lat="41.8952150" lon="-8.8783450">
        <ele>8.5</ele>
        <time>2021-05-18T16:20:38Z</time>
      </trkpt>
      <trkpt lat="41.8952150" lon="-8.8783450">
        <ele>8.5</ele>
        <time>2021-05-18T16:20:39Z</time>
      </trkpt>
      <trkpt lat="41.8952150" lon="-8.8783450">
        <ele>8.5</ele>
        <time>2021-05-18T16:20:40Z</time>
      </trkpt>
      <trkpt lat="41.8952150" lon="-8.8783450">
        <ele>8.5</ele>
        <time>2021-05-18T16:20:41Z</time>
      </trkpt>
      <trkpt lat="41.8952150" lon="-8.8783450">
        <ele>8.5</ele>
        <time>2021-05-18T16:20:42Z</time>
      </trkpt>
      <trkpt lat="41.8952140" lon="-8.8783460">
        <ele>8.5</ele>
        <time>2021-05-18T16:20:43Z</time>
      </trkpt>
      <trkpt lat="41.8952140" lon="-8.8783460">
        <ele>8.5</ele>
        <time>2021-05-18T16:20:44Z</time>
      </trkpt>
      <trkpt lat="41.8952140" lon="-8.8783460">
        <ele>8.5</ele>
        <time>2021-05-18T16:20:45Z</time>
      </trkpt>
      <trkpt lat="41.8952140" lon="-8.8783460">
        <ele>8.5</ele>
        <time>2021-05-18T16:20:46Z</time>
      </trkpt>
      <trkpt lat="41.8952140" lon="-8.8783460">
        <ele>8.5</ele>
        <time>2021-05-18T16:20:47Z</time>
      </trkpt>
      <trkpt lat="41.8952140" lon="-8.8783460">
        <ele>8.5</ele>
        <time>2021-05-18T16:20:48Z</time>
      </trkpt>
      <trkpt lat="41.8952140" lon="-8.8783470">
        <ele>8.5</ele>
        <time>2021-05-18T16:20:49Z</time>
      </trkpt>
      <trkpt lat="41.8952130" lon="-8.8783470">
        <ele>8.5</ele>
        <time>2021-05-18T16:20:50Z</time>
      </trkpt>
      <trkpt lat="41.8952130" lon="-8.8783470">
        <ele>8.5</ele>
        <time>2021-05-18T16:20:51Z</time>
      </trkpt>
      <trkpt lat="41.8952130" lon="-8.8783470">
        <ele>8.5</ele>
        <time>2021-05-18T16:20:52Z</time>
      </trkpt>
      <trkpt lat="41.8952130" lon="-8.8783470">
        <ele>8.5</ele>
        <time>2021-05-18T16:20:53Z</time>
      </trkpt>
      <trkpt lat="41.8952130" lon="-8.8783470">
        <ele>8.5</ele>
        <time>2021-05-18T16:20:54Z</time>
      </trkpt>
      <trkpt lat="41.8952130" lon="-8.8783480">
        <ele>8.5</ele>
        <time>2021-05-18T16:20:55Z</time>
      </trkpt>
      <trkpt lat="41.8952130" lon="-8.8783480">
        <ele>8.5</ele>
        <time>2021-05-18T16:20:56Z</time>
      </trkpt>
      <trkpt lat="41.8952120" lon="-8.8783480">
        <ele>8.5</ele>
        <time>2021-05-18T16:20:57Z</time>
      </trkpt>
      <trkpt lat="41.8952120" lon="-8.8783480">
        <ele>8.5</ele>
        <time>2021-05-18T16:20:58Z</time>
      </trkpt>
      <trkpt lat="41.8952120" lon="-8.8783480">
        <ele>8.5</ele>
        <time>2021-05-18T16:20:59Z</time>
      </trkpt>
      <trkpt lat="41.8952120" lon="-8.8783480">
        <ele>8.5</ele>
        <time>2021-05-18T16:21:00Z</time>
      </trkpt>
      <trkpt lat="41.8952120" lon="-8.8783490">
        <ele>8.5</ele>
        <time>2021-05-18T16:21:01Z</time>
      </trkpt>
      <trkpt lat="41.8952120" lon="-8.8783490">
        <ele>8.5</ele>
        <time>2021-05-18T16:21:02Z</time>
      </trkpt>
      <trkpt lat="41.8952110" lon="-8.8783490">
        <ele>8.5</ele>
        <time>2021-05-18T16:21:03Z</time>
      </trkpt>
      <trkpt lat="41.8952110" lon="-8.8783490">
        <ele>8.5</ele>
        <time>2021-05-18T16:21:04Z</time>
      </trkpt>
      <trkpt lat="41.8952110" lon="-8.8783490">
        <ele>8.5</ele>
        <time>2021-05-18T16:21:05Z</time>
      </trkpt>
      <trkpt lat="41.8952110" lon="-8.8783500">
        <ele>8.5</ele>
        <time>2021-05-18T16:21:06Z</time>
      </trkpt>
      <trkpt lat="41.8952110" lon="-8.8783500">
        <ele>8.5</ele>
        <time>2021-05-18T16:21:07Z</time>
      </trkpt>
      <trkpt lat="41.8952110" lon="-8.8783500">
        <ele>8.5</ele>
        <time>2021-05-18T16:21:08Z</time>
      </trkpt>
      <trkpt lat="41.8952110" lon="-8.8783500">
        <ele>8.5</ele>
        <time>2021-05-18T16:21:09Z</time>
      </trkpt>
      <trkpt lat="41.8952100" lon="-8.8783500">
        <ele>8.5</ele>
        <time>2021-05-18T16:21:10Z</time>
      </trkpt>
      <trkpt lat="41.8952100" lon="-8.8783500">
        <ele>8.5</ele>
        <time>2021-05-18T16:21:11Z</time>
      </trkpt>
      <trkpt lat="41.8952100" lon="-8.8783510">
        <ele>8.5</ele>
        <time>2021-05-18T16:21:12Z</time>
      </trkpt>
      <trkpt lat="41.8952100" lon="-8.8783510">
        <ele>8.5</ele>
        <time>2021-05-18T16:21:13Z</time>
      </trkpt>
      <trkpt lat="41.8952100" lon="-8.8783510">
        <ele>8.5</ele>
        <time>2021-05-18T16:21:14Z</time>
      </trkpt>
      <trkpt lat="41.8952100" lon="-8.8783510">
        <ele>8.5</ele>
        <time>2021-05-18T16:21:15Z</time>
      </trkpt>
      <trkpt lat="41.8952100" lon="-8.8783510">
        <ele>8.5</ele>
        <time>2021-05-18T16:21:16Z</time>
      </trkpt>
      <trkpt lat="41.8952090" lon="-8.8783510">
        <ele>8.5</ele>
        <time>2021-05-18T16:21:17Z</time>
      </trkpt>
      <trkpt lat="41.8952090" lon="-8.8783520">
        <ele>8.5</ele>
        <time>2021-05-18T16:21:18Z</time>
      </trkpt>
      <trkpt lat="41.8952090" lon="-8.8783520">
        <ele>8.5</ele>
        <time>2021-05-18T16:21:19Z</time>
      </trkpt>
      <trkpt lat="41.8952090" lon="-8.8783520">
        <ele>8.5</ele>
        <time>2021-05-18T16:21:20Z</time>
      </trkpt>
      <trkpt lat="41.8952090" lon="-8.8783520">
        <ele>8.5</ele>
        <time>2021-05-18T16:21:21Z</time>
      </trkpt>
      <trkpt lat="41.8952090" lon="-8.8783520">
        <ele>8.5</ele>
        <time>2021-05-18T16:21:22Z</time>
      </trkpt>
      <trkpt lat="41.8952090" lon="-8.8783520">
        <ele>8.5</ele>
        <time>2021-05-18T16:21:23Z</time>
      </trkpt>
      <trkpt lat="41.8952080" lon="-8.8783530">
        <ele>8.5</ele>
        <time>2021-05-18T16:21:24Z</time>
      </trkpt>
      <trkpt lat="41.8952080" lon="-8.8783530">
        <ele>8.5</ele>
        <time>2021-05-18T16:21:25Z</time>
      </trkpt>
      <trkpt lat="41.8952080" lon="-8.8783530">
        <ele>8.5</ele>
        <time>2021-05-18T16:21:26Z</time>
      </trkpt>
      <trkpt lat="41.8952080" lon="-8.8783530">
        <ele>8.5</ele>
        <time>2021-05-18T16:21:27Z</time>
      </trkpt>
      <trkpt lat="41.8952080" lon="-8.8783530">
        <ele>8.5</ele>
        <time>2021-05-18T16:21:28Z</time>
      </trkpt>
      <trkpt lat="41.8952080" lon="-8.8783530">
        <ele>8.5</ele>
        <time>2021-05-18T16:21:29Z</time>
      </trkpt>
      <trkpt lat="41.8952080" lon="-8.8783540">
        <ele>8.5</ele>
        <time>2021-05-18T16:21:30Z</time>
      </trkpt>
      <trkpt lat="41.8952070" lon="-8.8783540">
        <ele>8.5</ele>
        <time>2021-05-18T16:21:31Z</time>
      </trkpt>
      <trkpt lat="41.8952070" lon="-8.8783540">
        <ele>8.5</ele>
        <time>2021-05-18T16:21:32Z</time>
      </trkpt>
      <trkpt lat="41.8952070" lon="-8.8783540">
        <ele>8.5</ele>
        <time>2021-05-18T16:21:33Z</time>
      </trkpt>
      <trkpt lat="41.8952070" lon="-8.8783540">
        <ele>8.5</ele>
        <time>2021-05-18T16:21:34Z</time>
      </trkpt>
      <trkpt lat="41.8952070" lon="-8.8783550">
        <ele>8.5</ele>
        <time>2021-05-18T16:21:35Z</time>
      </trkpt>
      <trkpt lat="41.8952070" lon="-8.8783550">
        <ele>8.5</ele>
        <time>2021-05-18T16:21:36Z</time>
      </trkpt>
      <trkpt lat="41.8952060" lon="-8.8783550">
        <ele>8.5</ele>
        <time>2021-05-18T16:21:37Z</time>
      </trkpt>
      <trkpt lat="41.8952060" lon="-8.8783550">
        <ele>8.5</ele>
        <time>2021-05-18T16:21:38Z</time>
      </trkpt>
      <trkpt lat="41.8952060" lon="-8.8783550">
        <ele>8.5</ele>
        <time>2021-05-18T16:21:39Z</time>
      </trkpt>
      <trkpt lat="41.8952060" lon="-8.8783550">
        <ele>8.5</ele>
        <time>2021-05-18T16:21:40Z</time>
      </trkpt>
      <trkpt lat="41.8952060" lon="-8.8783560">
        <ele>8.5</ele>
        <time>2021-05-18T16:21:41Z</time>
      </trkpt>
      <trkpt lat="41.8952060" lon="-8.8783560">
        <ele>8.5</ele>
        <time>2021-05-18T16:21:42Z</time>
      </trkpt>
      <trkpt lat="41.8952060" lon="-8.8783560">
        <ele>8.5</ele>
        <time>2021-05-18T16:21:43Z</time>
      </trkpt>
      <trkpt lat="41.8952050" lon="-8.8783560">
        <ele>8.5</ele>
        <time>2021-05-18T16:21:44Z</time>
      </trkpt>
      <trkpt lat="41.8952050" lon="-8.8783560">
        <ele>8.5</ele>
        <time>2021-05-18T16:21:45Z</time>
      </trkpt>
      <trkpt lat="41.8952050" lon="-8.8783560">
        <ele>8.5</ele>
        <time>2021-05-18T16:21:46Z</time>
      </trkpt>
      <trkpt lat="41.8952050" lon="-8.8783570">
        <ele>8.5</ele>
        <time>2021-05-18T16:21:47Z</time>
      </trkpt>
      <trkpt lat="41.8952050" lon="-8.8783570">
        <ele>8.5</ele>
        <time>2021-05-18T16:21:48Z</time>
      </trkpt>
      <trkpt lat="41.8952050" lon="-8.8783570">
        <ele>8.5</ele>
        <time>2021-05-18T16:21:49Z</time>
      </trkpt>
      <trkpt lat="41.8952050" lon="-8.8783570">
        <ele>8.5</ele>
        <time>2021-05-18T16:21:50Z</time>
      </trkpt>
      <trkpt lat="41.8952040" lon="-8.8783570">
        <ele>8.5</ele>
        <time>2021-05-18T16:21:51Z</time>
      </trkpt>
      <trkpt lat="41.8952040" lon="-8.8783570">
        <ele>8.5</ele>
        <time>2021-05-18T16:21:52Z</time>
      </trkpt>
      <trkpt lat="41.8952040" lon="-8.8783580">
        <ele>8.5</ele>
        <time>2021-05-18T16:21:53Z</time>
      </trkpt>
      <trkpt lat="41.8952040" lon="-8.8783580">
        <ele>8.5</ele>
        <time>2021-05-18T16:21:54Z</time>
      </trkpt>
      <trkpt lat="41.8952040" lon="-8.8783580">
        <ele>8.5</ele>
        <time>2021-05-18T16:21:55Z</time>
      </trkpt>
      <trkpt lat="41.8952040" lon="-8.8783580">
        <ele>8.5</ele>
        <time>2021-05-18T16:21:56Z</time>
      </trkpt>
      <trkpt lat="41.8952040" lon="-8.8783580">
        <ele>8.5</ele>
        <time>2021-05-18T16:21:57Z</time>
      </trkpt>
      <trkpt lat="41.8952030" lon="-8.8783590">
        <ele>8.5</ele>
        <time>2021-05-18T16:21:58Z</time>
      </trkpt>
      <trkpt lat="41.8952030" lon="-8.8783590">
        <ele>8.5</ele>
        <time>2021-05-18T16:21:59Z</time>
      </trkpt>
      <trkpt lat="41.8952030" lon="-8.8783590">
        <ele>8.5</ele>
        <time>2021-05-18T16:22:00Z</time>
      </trkpt>
      <trkpt lat="41.8952030" lon="-8.8783590">
        <ele>8.5</ele>
        <time>2021-05-18T16:22:01Z</time>
      </trkpt>
      <trkpt lat="41.8952030" lon="-8.8783590">
        <ele>8.5</ele>
        <time>2021-05-18T16:22:02Z</time>
      </trkpt>
      <trkpt lat="41.8952030" lon="-8.8783590">
        <ele>8.5</ele>
        <time>2021-05-18T16:22:03Z</time>
      </trkpt>
      <trkpt lat="41.8952030" lon="-8.8783600">
        <ele>8.5</ele>
        <time>2021-05-18T16:22:04Z</time>
      </trkpt>
      <trkpt lat="41.8952020" lon="-8.8783600">
        <ele>8.5</ele>
        <time>2021-05-18T16:22:05Z</time>
      </trkpt>
      <trkpt lat="41.8952020" lon="-8.8783600">
        <ele>8.5</ele>
        <time>2021-05-18T16:22:06Z</time>
      </trkpt>
      <trkpt lat="41.8952020" lon="-8.8783600">
        <ele>8.5</ele>
        <time>2021-05-18T16:22:07Z</time>
      </trkpt>
      <trkpt lat="41.8952020" lon="-8.8783600">
        <ele>8.5</ele>
        <time>2021-05-18T16:22:08Z</time>
      </trkpt>
      <trkpt lat="41.8952020" lon="-8.8783600">
        <ele>8.5</ele>
        <time>2021-05-18T16:22:09Z</time>
      </trkpt>
      <trkpt lat="41.8952020" lon="-8.8783610">
        <ele>8.5</ele>
        <time>2021-05-18T16:22:10Z</time>
      </trkpt>
      <trkpt lat="41.8952020" lon="-8.8783610">
        <ele>8.5</ele>
        <time>2021-05-18T16:22:11Z</time>
      </trkpt>
      <trkpt lat="41.8952010" lon="-8.8783610">
        <ele>8.5</ele>
        <time>2021-05-18T16:22:12Z</time>
      </trkpt>
      <trkpt lat="41.8952010" lon="-8.8783610">
        <ele>8.5</ele>
        <time>2021-05-18T16:22:13Z</time>
      </trkpt>
      <trkpt lat="41.8952010" lon="-8.8783610">
        <ele>8.5</ele>
        <time>2021-05-18T16:22:14Z</time>
      </trkpt>
      <trkpt lat="41.8952010" lon="-8.8783610">
        <ele>8.5</ele>
        <time>2021-05-18T16:22:15Z</time>
      </trkpt>
      <trkpt lat="41.8952010" lon="-8.8783620">
        <ele>8.5</ele>
        <time>2021-05-18T16:22:16Z</time>
      </trkpt>
      <trkpt lat="41.8952010" lon="-8.8783620">
        <ele>8.5</ele>
        <time>2021-05-18T16:22:17Z</time>
      </trkpt>
      <trkpt lat="41.8952000" lon="-8.8783620">
        <ele>8.5</ele>
        <time>2021-05-18T16:22:18Z</time>
      </trkpt>
      <trkpt lat="41.8952000" lon="-8.8783620">
        <ele>8.5</ele>
        <time>2021-05-18T16:22:19Z</time>
      </trkpt>
      <trkpt lat="41.8952000" lon="-8.8783620">
        <ele>8.5</ele>
        <time>2021-05-18T16:22:20Z</time>
      </trkpt>
      <trkpt lat="41.8952000" lon="-8.8783620">
        <ele>8.5</ele>
        <time>2021-05-18T16:22:21Z</time>
      </trkpt>
      <trkpt lat="41.8952000" lon="-8.8783630">
        <ele>8.5</ele>
        <time>2021-05-18T16:22:22Z</time>
      </trkpt>
      <trkpt lat="41.8952000" lon="-8.8783630">
        <ele>8.5</ele>
        <time>2021-05-18T16:22:23Z</time>
      </trkpt>
      <trkpt lat="41.8952000" lon="-8.8783630">
        <ele>8.5</ele>
        <time>2021-05-18T16:22:24Z</time>
      </trkpt>
      <trkpt lat="41.8951990" lon="-8.8783630">
        <ele>8.5</ele>
        <time>2021-05-18T16:22:25Z</time>
      </trkpt>
      <trkpt lat="41.8951990" lon="-8.8783630">
        <ele>8.5</ele>
        <time>2021-05-18T16:22:26Z</time>
      </trkpt>
      <trkpt lat="41.8951990" lon="-8.8783640">
        <ele>8.5</ele>
        <time>2021-05-18T16:22:27Z</time>
      </trkpt>
      <trkpt lat="41.8951990" lon="-8.8783640">
        <ele>8.5</ele>
        <time>2021-05-18T16:22:28Z</time>
      </trkpt>
      <trkpt lat="41.8951990" lon="-8.8783640">
        <ele>8.5</ele>
        <time>2021-05-18T16:22:29Z</time>
      </trkpt>
      <trkpt lat="41.8951990" lon="-8.8783640">
        <ele>8.5</ele>
        <time>2021-05-18T16:22:30Z</time>
      </trkpt>
      <trkpt lat="41.8951990" lon="-8.8783640">
        <ele>8.5</ele>
        <time>2021-05-18T16:22:31Z</time>
      </trkpt>
      <trkpt lat="41.8951980" lon="-8.8783640">
        <ele>8.5</ele>
        <time>2021-05-18T16:22:32Z</time>
      </trkpt>
      <trkpt lat="41.8951980" lon="-8.8783650">
        <ele>8.5</ele>
        <time>2021-05-18T16:22:33Z</time>
      </trkpt>
      <trkpt lat="41.8951980" lon="-8.8783650">
        <ele>8.5</ele>
        <time>2021-05-18T16:22:34Z</time>
      </trkpt>
      <trkpt lat="41.8951980" lon="-8.8783650">
        <ele>8.5</ele>
        <time>2021-05-18T16:22:35Z</time>
      </trkpt>
      <trkpt lat="41.8951980" lon="-8.8783650">
        <ele>8.5</ele>
        <time>2021-05-18T16:22:36Z</time>
      </trkpt>
      <trkpt lat="41.8951980" lon="-8.8783650">
        <ele>8.5</ele>
        <time>2021-05-18T16:22:37Z</time>
      </trkpt>
      <trkpt lat="41.8951980" lon="-8.8783650">
        <ele>8.5</ele>
        <time>2021-05-18T16:22:38Z</time>
      </trkpt>
      <trkpt lat="41.8951970" lon="-8.8783660">
        <ele>8.5</ele>
        <time>2021-05-18T16:22:39Z</time>
      </trkpt>
      <trkpt lat="41.8951970" lon="-8.8783660">
        <ele>8.5</ele>
        <time>2021-05-18T16:22:40Z</time>
      </trkpt>
      <trkpt lat="41.8951970" lon="-8.8783660">
        <ele>8.5</ele>
        <time>2021-05-18T16:22:41Z</time>
      </trkpt>
      <trkpt lat="41.8951970" lon="-8.8783660">
        <ele>8.5</ele>
        <time>2021-05-18T16:22:42Z</time>
      </trkpt>
      <trkpt lat="41.8951970" lon="-8.8783660">
        <ele>8.5</ele>
        <time>2021-05-18T16:22:43Z</time>
      </trkpt>
      <trkpt lat="41.8951970" lon="-8.8783660">
        <ele>8.5</ele>
        <time>2021-05-18T16:22:44Z</time>
      </trkpt>
      <trkpt lat="41.8951970" lon="-8.8783670">
        <ele>8.5</ele>
        <time>2021-05-18T16:22:45Z</time>
      </trkpt>
      <trkpt lat="41.8951960" lon="-8.8783670">
        <ele>8.5</ele>
        <time>2021-05-18T16:22:46Z</time>
      </trkpt>
      <trkpt lat="41.8951960" lon="-8.8783670">
        <ele>8.5</ele>
        <time>2021-05-18T16:22:47Z</time>
      </trkpt>
      <trkpt lat="41.8951960" lon="-8.8783670">
        <ele>8.5</ele>
        <time>2021-05-18T16:22:48Z</time>
      </trkpt>
      <trkpt lat="41.8951960" lon="-8.8783670">
        <ele>8.5</ele>
        <time>2021-05-18T16:22:49Z</time>
      </trkpt>
      <trkpt lat="41.8951960" lon="-8.8783670">
        <ele>8.5</ele>
        <time>2021-05-18T16:22:50Z</time>
      </trkpt>
      <trkpt lat="41.8951960" lon="-8.8783680">
        <ele>8.5</ele>
        <time>2021-05-18T16:22:51Z</time>
      </trkpt>
      <trkpt lat="41.8951950" lon="-8.8783680">
        <ele>8.5</ele>
        <time>2021-05-18T16:22:52Z</time>
      </trkpt>
      <trkpt lat="41.8951950" lon="-8.8783680">
        <ele>8.5</ele>
        <time>2021-05-18T16:22:53Z</time>
      </trkpt>
      <trkpt lat="41.8951950" lon="-8.8783680">
        <ele>8.5</ele>
        <time>2021-05-18T16:22:54Z</time>
      </trkpt>
      <trkpt lat="41.8951950" lon="-8.8783680">
        <ele>8.5</ele>
        <time>2021-05-18T16:22:55Z</time>
      </trkpt>
      <trkpt lat="41.8951950" lon="-8.8783690">
        <ele>8.5</ele>
        <time>2021-05-18T16:22:56Z</time>
      </trkpt>
      <trkpt lat="41.8951950" lon="-8.8783690">
        <ele>8.5</ele>
        <time>2021-05-18T16:22:57Z</time>
      </trkpt>
      <trkpt lat="41.8951950" lon="-8.8783690">
        <ele>8.5</ele>
        <time>2021-05-18T16:22:58Z</time>
      </trkpt>
      <trkpt lat="41.8951940" lon="-8.8783690">
        <ele>8.5</ele>
        <time>2021-05-18T16:22:59Z</time>
      </trkpt>
      <trkpt lat="41.8951940" lon="-8.8783690">
        <ele>8.5</ele>
        <time>2021-05-18T16:23:00Z</time>
      </trkpt>
      <trkpt lat="41.8951940" lon="-8.8783690">
        <ele>8.5</ele>
        <time>2021-05-18T16:23:01Z</time>
      </trkpt>
      <trkpt lat="41.8951940" lon="-8.8783700">
        <ele>8.5</ele>
        <time>2021-05-18T16:23:02Z</time>
      </trkpt>
      <trkpt lat="41.8951940" lon="-8.8783700">
        <ele>8.5</ele>
        <time>2021-05-18T16:23:03Z</time>
      </trkpt>
      <trkpt lat="41.8951940" lon="-8.8783700">
        <ele>8.5</ele>
        <time>2021-05-18T16:23:04Z</time>
      </trkpt>
      <trkpt lat="41.8951940" lon="-8.8783700">
        <ele>8.5</ele>
        <time>2021-05-18T16:23:05Z</time>
      </trkpt>
      <trkpt lat="41.8951930" lon="-8.8783700">
        <ele>8.5</ele>
        <time>2021-05-18T16:23:06Z</time>
      </trkpt>
      <trkpt lat="41.8951930" lon="-8.8783700">
        <ele>8.5</ele>
        <time>2021-05-18T16:23:07Z</time>
      </trkpt>
      <trkpt lat="41.8951930" lon="-8.8783710">
        <ele>8.5</ele>
        <time>2021-05-18T16:23:08Z</time>
      </trkpt>
      <trkpt lat="41.8951930" lon="-8.8783710">
        <ele>8.5</ele>
        <time>2021-05-18T16:23:09Z</time>
      </trkpt>
      <trkpt lat="41.8951930" lon="-8.8783710">
        <ele>8.5</ele>
        <time>2021-05-18T16:23:10Z</time>
      </trkpt>
      <trkpt lat="41.8951930" lon="-8.8783710">
        <ele>8.5</ele>
        <time>2021-05-18T16:23:11Z</time>
      </trkpt>
      <trkpt lat="41.8951930" lon="-8.8783710">
        <ele>8.5</ele>
        <time>2021-05-18T16:23:12Z</time>
      </trkpt>
      <trkpt lat="41.8951920" lon="-8.8783710">
        <ele>8.5</ele>
        <time>2021-05-18T16:23:13Z</time>
      </trkpt>
      <trkpt lat="41.8951920" lon="-8.8783720">
        <ele>8.5</ele>
        <time>2021-05-18T16:23:14Z</time>
      </trkpt>
      <trkpt lat="41.8951920" lon="-8.8783720">
        <ele>8.5</ele>
        <time>2021-05-18T16:23:15Z</time>
      </trkpt>
      <trkpt lat="41.8951920" lon="-8.8783720">
        <ele>8.5</ele>
        <time>2021-05-18T16:23:16Z</time>
      </trkpt>
      <trkpt lat="41.8951920" lon="-8.8783720">
        <ele>8.5</ele>
        <time>2021-05-18T16:23:17Z</time>
      </trkpt>
      <trkpt lat="41.8951920" lon="-8.8783720">
        <ele>8.5</ele>
        <time>2021-05-18T16:23:18Z</time>
      </trkpt>
      <trkpt lat="41.8951920" lon="-8.8783720">
        <ele>8.5</ele>
        <time>2021-05-18T16:23:19Z</time>
      </trkpt>
      <trkpt lat="41.8951910" lon="-8.8783730">
        <ele>8.5</ele>
        <time>2021-05-18T16:23:20Z</time>
      </trkpt>
      <trkpt lat="41.8951910" lon="-8.8783730">
        <ele>8.5</ele>
        <time>2021-05-18T16:23:21Z</time>
      </trkpt>
      <trkpt lat="41.8951910" lon="-8.8783730">
        <ele>8.5</ele>
        <time>2021-05-18T16:23:22Z</time>
      </trkpt>
      <trkpt lat="41.8951910" lon="-8.8783730">
        <ele>8.5</ele>
        <time>2021-05-18T16:23:23Z</time>
      </trkpt>
      <trkpt lat="41.8951910" lon="-8.8783730">
        <ele>8.5</ele>
        <time>2021-05-18T16:23:24Z</time>
      </trkpt>
      <trkpt lat="41.8951910" lon="-8.8783740">
        <ele>8.5</ele>
        <time>2021-05-18T16:23:25Z</time>
      </trkpt>
      <trkpt lat="41.8951900" lon="-8.8783740">
        <ele>8.5</ele>
        <time>2021-05-18T16:23:26Z</time>
      </trkpt>
      <trkpt lat="41.8951900" lon="-8.8783740">
        <ele>8.5</ele>
        <time>2021-05-18T16:23:27Z</time>
      </trkpt>
      <trkpt lat="41.8951900" lon="-8.8783740">
        <ele>8.5</ele>
        <time>2021-05-18T16:23:28Z</time>
      </trkpt>
      <trkpt lat="41.8951900" lon="-8.8783740">
        <ele>8.5</ele>
        <time>2021-05-18T16:23:29Z</time>
      </trkpt>
      <trkpt lat="41.8951900" lon="-8.8783740">
        <ele>8.5</ele>
        <time>2021-05-18T16:23:30Z</time>
      </trkpt>
      <trkpt lat="41.8951900" lon="-8.8783750">
        <ele>8.5</ele>
        <time>2021-05-18T16:23:31Z</time>
      </trkpt>
      <trkpt lat="41.8951900" lon="-8.8783750">
        <ele>8.5</ele>
        <time>2021-05-18T16:23:32Z</time>
      </trkpt>
      <trkpt lat="41.8951890" lon="-8.8783750">
        <ele>8.5</ele>
        <time>2021-05-18T16:23:33Z</time>
      </trkpt>
      <trkpt lat="41.8951890" lon="-8.8783750">
        <ele>8.5</ele>
        <time>2021-05-18T16:23:34Z</time>
      </trkpt>
      <trkpt lat="41.8951890" lon="-8.8783750">
        <ele>8.5</ele>
        <time>2021-05-18T16:23:35Z</time>
      </trkpt>
      <trkpt lat="41.8951890" lon="-8.8783750">
        <ele>8.5</ele>
        <time>2021-05-18T16:23:36Z</time>
      </trkpt>
      <trkpt lat="41.8951890" lon="-8.8783760">
        <ele>8.5</ele>
        <time>2021-05-18T16:23:37Z</time>
      </trkpt>
      <trkpt lat="41.8951890" lon="-8.8783760">
        <ele>8.5</ele>
        <time>2021-05-18T16:23:38Z</time>
      </trkpt>
      <trkpt lat="41.8951890" lon="-8.8783760">
        <ele>8.5</ele>
        <time>2021-05-18T16:23:39Z</time>
      </trkpt>
      <trkpt lat="41.8951880" lon="-8.8783760">
        <ele>8.5</ele>
        <time>2021-05-18T16:23:40Z</time>
      </trkpt>
      <trkpt lat="41.8951880" lon="-8.8783760">
        <ele>8.5</ele>
        <time>2021-05-18T16:23:41Z</time>
      </trkpt>
      <trkpt lat="41.8951880" lon="-8.8783760">
        <ele>8.5</ele>
        <time>2021-05-18T16:23:42Z</time>
      </trkpt>
      <trkpt lat="41.8951880" lon="-8.8783770">
        <ele>8.5</ele>
        <time>2021-05-18T16:23:43Z</time>
      </trkpt>
      <trkpt lat="41.8951880" lon="-8.8783770">
        <ele>8.5</ele>
        <time>2021-05-18T16:23:44Z</time>
      </trkpt>
      <trkpt lat="41.8951880" lon="-8.8783770">
        <ele>8.5</ele>
        <time>2021-05-18T16:23:45Z</time>
      </trkpt>
      <trkpt lat="41.8951880" lon="-8.8783770">
        <ele>8.5</ele>
        <time>2021-05-18T16:23:46Z</time>
      </trkpt>
      <trkpt lat="41.8951870" lon="-8.8783770">
        <ele>8.5</ele>
        <time>2021-05-18T16:23:47Z</time>
      </trkpt>
      <trkpt lat="41.8951870" lon="-8.8783770">
        <ele>8.5</ele>
        <time>2021-05-18T16:23:48Z</time>
      </trkpt>
      <trkpt lat="41.8951870" lon="-8.8783780">
        <ele>8.5</ele>
        <time>2021-05-18T16:23:49Z</time>
      </trkpt>
      <trkpt lat="41.8951870" lon="-8.8783780">
        <ele>8.5</ele>
        <time>2021-05-18T16:23:50Z</time>
      </trkpt>
      <trkpt lat="41.8951870" lon="-8.8783780">
        <ele>8.5</ele>
        <time>2021-05-18T16:23:51Z</time>
      </trkpt>
      <trkpt lat="41.8951870" lon="-8.8783780">
        <ele>8.5</ele>
        <time>2021-05-18T16:23:52Z</time>
      </trkpt>
      <trkpt lat="41.8951870" lon="-8.8783780">
        <ele>8.5</ele>
        <time>2021-05-18T16:23:53Z</time>
      </trkpt>
      <trkpt lat="41.8951860" lon="-8.8783790">
        <ele>8.5</ele>
        <time>2021-05-18T16:23:54Z</time>
      </trkpt>
      <trkpt lat="41.8951860" lon="-8.8783790">
        <ele>8.5</ele>
        <time>2021-05-18T16:23:55Z</time>
      </trkpt>
      <trkpt lat="41.8951860" lon="-8.8783790">
        <ele>8.5</ele>
        <time>2021-05-18T16:23:56Z</time>
      </trkpt>
      <trkpt lat="41.8951860" lon="-8.8783790">
        <ele>8.5</ele>
        <time>2021-05-18T16:23:57Z</time>
      </trkpt>
      <trkpt lat="41.8951860" lon="-8.8783790">
        <ele>8.5</ele>
        <time>2021-05-18T16:23:58Z</time>
      </trkpt>
      <trkpt lat="41.8951860" lon="-8.8783790">
        <ele>8.5</ele>
        <time>2021-05-18T16:23:59Z</time>
      </trkpt>
      <trkpt lat="41.8951860" lon="-8.8783800">
        <ele>8.5</ele>
        <time>2021-05-18T16:24:00Z</time>
      </trkpt>
      <trkpt lat="41.8951850" lon="-8.8783800">
        <ele>8.5</ele>
        <time>2021-05-18T16:24:01Z</time>
      </trkpt>
      <trkpt lat="41.8951850" lon="-8.8783800">
        <ele>8.5</ele>
        <time>2021-05-18T16:24:02Z</time>
      </trkpt>
      <trkpt lat="41.8951850" lon="-8.8783800">
        <ele>8.5</ele>
        <time>2021-05-18T16:24:03Z</time>
      </trkpt>
      <trkpt lat="41.8951850" lon="-8.8783800">
        <ele>8.5</ele>
        <time>2021-05-18T16:24:04Z</time>
      </trkpt>
      <trkpt lat="41.8951850" lon="-8.8783800">
        <ele>8.5</ele>
        <time>2021-05-18T16:24:05Z</time>
      </trkpt>
      <trkpt lat="41.8951850" lon="-8.8783810">
        <ele>8.5</ele>
        <time>2021-05-18T16:24:06Z</time>
      </trkpt>
      <trkpt lat="41.8951840" lon="-8.8783810">
        <ele>8.5</ele>
        <time>2021-05-18T16:24:07Z</time>
      </trkpt>
      <trkpt lat="41.8951840" lon="-8.8783810">
        <ele>8.5</ele>
        <time>2021-05-18T16:24:08Z</time>
      </trkpt>
      <trkpt lat="41.8951840" lon="-8.8783810">
        <ele>8.5</ele>
        <time>2021-05-18T16:24:09Z</time>
      </trkpt>
      <trkpt lat="41.8951840" lon="-8.8783810">
        <ele>8.5</ele>
        <time>2021-05-18T16:24:10Z</time>
      </trkpt>
      <trkpt lat="41.8951840" lon="-8.8783810">
        <ele>8.5</ele>
        <time>2021-05-18T16:24:11Z</time>
      </trkpt>
      <trkpt lat="41.8951840" lon="-8.8783820">
        <ele>8.5</ele>
        <time>2021-05-18T16:24:12Z</time>
      </trkpt>
      <trkpt lat="41.8951840" lon="-8.8783820">
        <ele>8.5</ele>
        <time>2021-05-18T16:24:13Z</time>
      </trkpt>
      <trkpt lat="41.8951830" lon="-8.8783820">
        <ele>8.5</ele>
        <time>2021-05-18T16:24:14Z</time>
      </trkpt>
      <trkpt lat="41.8951830" lon="-8.8783820">
        <ele>8.5</ele>
        <time>2021-05-18T16:24:15Z</time>
      </trkpt>
      <trkpt lat="41.8951830" lon="-8.8783820">
        <ele>8.5</ele>
        <time>2021-05-18T16:24:16Z</time>
      </trkpt>
      <trkpt lat="41.8951830" lon="-8.8783820">
        <ele>8.5</ele>
        <time>2021-05-18T16:24:17Z</time>
      </trkpt>
      <trkpt lat="41.8951830" lon="-8.8783830">
        <ele>8.4</ele>
        <time>2021-05-18T16:24:18Z</time>
      </trkpt>
      <trkpt lat="41.8951830" lon="-8.8783830">
        <ele>8.4</ele>
        <time>2021-05-18T16:24:19Z</time>
      </trkpt>
      <trkpt lat="41.8951830" lon="-8.8783830">
        <ele>8.4</ele>
        <time>2021-05-18T16:24:20Z</time>
      </trkpt>
      <trkpt lat="41.8951820" lon="-8.8783830">
        <ele>8.4</ele>
        <time>2021-05-18T16:24:21Z</time>
      </trkpt>
      <trkpt lat="41.8951820" lon="-8.8783830">
        <ele>8.4</ele>
        <time>2021-05-18T16:24:22Z</time>
      </trkpt>
      <trkpt lat="41.8951820" lon="-8.8783840">
        <ele>8.4</ele>
        <time>2021-05-18T16:24:23Z</time>
      </trkpt>
      <trkpt lat="41.8951820" lon="-8.8783840">
        <ele>8.4</ele>
        <time>2021-05-18T16:24:24Z</time>
      </trkpt>
      <trkpt lat="41.8951820" lon="-8.8783840">
        <ele>8.4</ele>
        <time>2021-05-18T16:24:25Z</time>
      </trkpt>
      <trkpt lat="41.8951820" lon="-8.8783840">
        <ele>8.4</ele>
        <time>2021-05-18T16:24:26Z</time>
      </trkpt>
      <trkpt lat="41.8951820" lon="-8.8783840">
        <ele>8.4</ele>
        <time>2021-05-18T16:24:27Z</time>
      </trkpt>
      <trkpt lat="41.8951810" lon="-8.8783840">
        <ele>8.4</ele>
        <time>2021-05-18T16:24:28Z</time>
      </trkpt>
      <trkpt lat="41.8951810" lon="-8.8783850">
        <ele>8.4</ele>
        <time>2021-05-18T16:24:29Z</time>
      </trkpt>
      <trkpt lat="41.8951810" lon="-8.8783850">
        <ele>8.4</ele>
        <time>2021-05-18T16:24:30Z</time>
      </trkpt>
      <trkpt lat="41.8951810" lon="-8.8783850">
        <ele>8.4</ele>
        <time>2021-05-18T16:24:31Z</time>
      </trkpt>
      <trkpt lat="41.8951810" lon="-8.8783850">
        <ele>8.4</ele>
        <time>2021-05-18T16:24:32Z</time>
      </trkpt>
      <trkpt lat="41.8951810" lon="-8.8783850">
        <ele>8.4</ele>
        <time>2021-05-18T16:24:33Z</time>
      </trkpt>
      <trkpt lat="41.8951810" lon="-8.8783850">
        <ele>8.4</ele>
        <time>2021-05-18T16:24:34Z</time>
      </trkpt>
      <trkpt lat="41.8951800" lon="-8.8783860">
        <ele>8.4</ele>
        <time>2021-05-18T16:24:35Z</time>
      </trkpt>
      <trkpt lat="41.8951800" lon="-8.8783860">
        <ele>8.4</ele>
        <time>2021-05-18T16:24:36Z</time>
      </trkpt>
      <trkpt lat="41.8951800" lon="-8.8783860">
        <ele>8.4</ele>
        <time>2021-05-18T16:24:37Z</time>
      </trkpt>
      <trkpt lat="41.8951800" lon="-8.8783860">
        <ele>8.4</ele>
        <time>2021-05-18T16:24:38Z</time>
      </trkpt>
      <trkpt lat="41.8951800" lon="-8.8783860">
        <ele>8.4</ele>
        <time>2021-05-18T16:24:39Z</time>
      </trkpt>
      <trkpt lat="41.8951800" lon="-8.8783860">
        <ele>8.4</ele>
        <time>2021-05-18T16:24:40Z</time>
      </trkpt>
      <trkpt lat="41.8951790" lon="-8.8783870">
        <ele>8.4</ele>
        <time>2021-05-18T16:24:41Z</time>
      </trkpt>
      <trkpt lat="41.8951790" lon="-8.8783870">
        <ele>8.4</ele>
        <time>2021-05-18T16:24:42Z</time>
      </trkpt>
      <trkpt lat="41.8951790" lon="-8.8783870">
        <ele>8.4</ele>
        <time>2021-05-18T16:24:43Z</time>
      </trkpt>
      <trkpt lat="41.8951790" lon="-8.8783870">
        <ele>8.4</ele>
        <time>2021-05-18T16:24:44Z</time>
      </trkpt>
      <trkpt lat="41.8951790" lon="-8.8783870">
        <ele>8.4</ele>
        <time>2021-05-18T16:24:45Z</time>
      </trkpt>
      <trkpt lat="41.8951790" lon="-8.8783870">
        <ele>8.4</ele>
        <time>2021-05-18T16:24:46Z</time>
      </trkpt>
      <trkpt lat="41.8951790" lon="-8.8783880">
        <ele>8.4</ele>
        <time>2021-05-18T16:24:47Z</time>
      </trkpt>
      <trkpt lat="41.8951780" lon="-8.8783880">
        <ele>8.4</ele>
        <time>2021-05-18T16:24:48Z</time>
      </trkpt>
      <trkpt lat="41.8951780" lon="-8.8783880">
        <ele>8.4</ele>
        <time>2021-05-18T16:24:49Z</time>
      </trkpt>
      <trkpt lat="41.8951780" lon="-8.8783880">
        <ele>8.4</ele>
        <time>2021-05-18T16:24:50Z</time>
      </trkpt>
      <trkpt lat="41.8951780" lon="-8.8783880">
        <ele>8.4</ele>
        <time>2021-05-18T16:24:51Z</time>
      </trkpt>
      <trkpt lat="41.8951780" lon="-8.8783890">
        <ele>8.4</ele>
        <time>2021-05-18T16:24:52Z</time>
      </trkpt>
      <trkpt lat="41.8951780" lon="-8.8783890">
        <ele>8.4</ele>
        <time>2021-05-18T16:24:53Z</time>
      </trkpt>
      <trkpt lat="41.8951780" lon="-8.8783890">
        <ele>8.4</ele>
        <time>2021-05-18T16:24:54Z</time>
      </trkpt>
      <trkpt lat="41.8951770" lon="-8.8783890">
        <ele>8.4</ele>
        <time>2021-05-18T16:24:55Z</time>
      </trkpt>
      <trkpt lat="41.8951770" lon="-8.8783890">
        <ele>8.4</ele>
        <time>2021-05-18T16:24:56Z</time>
      </trkpt>
      <trkpt lat="41.8951770" lon="-8.8783890">
        <ele>8.4</ele>
        <time>2021-05-18T16:24:57Z</time>
      </trkpt>
      <trkpt lat="41.8951770" lon="-8.8783900">
        <ele>8.4</ele>
        <time>2021-05-18T16:24:58Z</time>
      </trkpt>
      <trkpt lat="41.8951770" lon="-8.8783900">
        <ele>8.4</ele>
        <time>2021-05-18T16:24:59Z</time>
      </trkpt>
      <trkpt lat="41.8951770" lon="-8.8783900">
        <ele>8.4</ele>
        <time>2021-05-18T16:25:00Z</time>
      </trkpt>
      <trkpt lat="41.8951770" lon="-8.8783900">
        <ele>8.4</ele>
        <time>2021-05-18T16:25:01Z</time>
      </trkpt>
      <trkpt lat="41.8951760" lon="-8.8783900">
        <ele>8.4</ele>
        <time>2021-05-18T16:25:02Z</time>
      </trkpt>
      <trkpt lat="41.8951760" lon="-8.8783900">
        <ele>8.4</ele>
        <time>2021-05-18T16:25:03Z</time>
      </trkpt>
      <trkpt lat="41.8951760" lon="-8.8783910">
        <ele>8.4</ele>
        <time>2021-05-18T16:25:04Z</time>
      </trkpt>
      <trkpt lat="41.8951760" lon="-8.8783910">
        <ele>8.4</ele>
        <time>2021-05-18T16:25:05Z</time>
      </trkpt>
      <trkpt lat="41.8951760" lon="-8.8783910">
        <ele>8.4</ele>
        <time>2021-05-18T16:25:06Z</time>
      </trkpt>
      <trkpt lat="41.8951760" lon="-8.8783910">
        <ele>8.4</ele>
        <time>2021-05-18T16:25:07Z</time>
      </trkpt>
      <trkpt lat="41.8951760" lon="-8.8783910">
        <ele>8.4</ele>
        <time>2021-05-18T16:25:08Z</time>
      </trkpt>
      <trkpt lat="41.8951750" lon="-8.8783910">
        <ele>8.4</ele>
        <time>2021-05-18T16:25:09Z</time>
      </trkpt>
      <trkpt lat="41.8951750" lon="-8.8783920">
        <ele>8.4</ele>
        <time>2021-05-18T16:25:10Z</time>
      </trkpt>
      <trkpt lat="41.8951750" lon="-8.8783920">
        <ele>8.4</ele>
        <time>2021-05-18T16:25:11Z</time>
      </trkpt>
      <trkpt lat="41.8951750" lon="-8.8783920">
        <ele>8.4</ele>
        <time>2021-05-18T16:25:12Z</time>
      </trkpt>
      <trkpt lat="41.8951750" lon="-8.8783920">
        <ele>8.4</ele>
        <time>2021-05-18T16:25:13Z</time>
      </trkpt>
      <trkpt lat="41.8951750" lon="-8.8783920">
        <ele>8.4</ele>
        <time>2021-05-18T16:25:14Z</time>
      </trkpt>
      <trkpt lat="41.8951750" lon="-8.8783930">
        <ele>8.4</ele>
        <time>2021-05-18T16:25:15Z</time>
      </trkpt>
      <trkpt lat="41.8951740" lon="-8.8783930">
        <ele>8.4</ele>
        <time>2021-05-18T16:25:16Z</time>
      </trkpt>
      <trkpt lat="41.8951740" lon="-8.8783930">
        <ele>8.4</ele>
        <time>2021-05-18T16:25:17Z</time>
      </trkpt>
      <trkpt lat="41.8951740" lon="-8.8783930">
        <ele>8.4</ele>
        <time>2021-05-18T16:25:18Z</time>
      </trkpt>
      <trkpt lat="41.8951740" lon="-8.8783930">
        <ele>8.4</ele>
        <time>2021-05-18T16:25:19Z</time>
      </trkpt>
      <trkpt lat="41.8951740" lon="-8.8783930">
        <ele>8.4</ele>
        <time>2021-05-18T16:25:20Z</time>
      </trkpt>
      <trkpt lat="41.8951740" lon="-8.8783940">
        <ele>8.4</ele>
        <time>2021-05-18T16:25:21Z</time>
      </trkpt>
      <trkpt lat="41.8951730" lon="-8.8783940">
        <ele>8.4</ele>
        <time>2021-05-18T16:25:22Z</time>
      </trkpt>
      <trkpt lat="41.8951730" lon="-8.8783940">
        <ele>8.4</ele>
        <time>2021-05-18T16:25:23Z</time>
      </trkpt>
      <trkpt lat="41.8951730" lon="-8.8783940">
        <ele>8.4</ele>
        <time>2021-05-18T16:25:24Z</time>
      </trkpt>
      <trkpt lat="41.8951730" lon="-8.8783940">
        <ele>8.4</ele>
        <time>2021-05-18T16:25:25Z</time>
      </trkpt>
      <trkpt lat="41.8951730" lon="-8.8783940">
        <ele>8.4</ele>
        <time>2021-05-18T16:25:26Z</time>
      </trkpt>
      <trkpt lat="41.8951730" lon="-8.8783950">
        <ele>8.4</ele>
        <time>2021-05-18T16:25:27Z</time>
      </trkpt>
      <trkpt lat="41.8951730" lon="-8.8783950">
        <ele>8.4</ele>
        <time>2021-05-18T16:25:28Z</time>
      </trkpt>
      <trkpt lat="41.8951720" lon="-8.8783950">
        <ele>8.4</ele>
        <time>2021-05-18T16:25:29Z</time>
      </trkpt>
      <trkpt lat="41.8951720" lon="-8.8783950">
        <ele>8.4</ele>
        <time>2021-05-18T16:25:30Z</time>
      </trkpt>
      <trkpt lat="41.8951720" lon="-8.8783950">
        <ele>8.4</ele>
        <time>2021-05-18T16:25:31Z</time>
      </trkpt>
      <trkpt lat="41.8951720" lon="-8.8783950">
        <ele>8.4</ele>
        <time>2021-05-18T16:25:32Z</time>
      </trkpt>
      <trkpt lat="41.8951720" lon="-8.8783960">
        <ele>8.4</ele>
        <time>2021-05-18T16:25:33Z</time>
      </trkpt>
      <trkpt lat="41.8951720" lon="-8.8783960">
        <ele>8.4</ele>
        <time>2021-05-18T16:25:34Z</time>
      </trkpt>
      <trkpt lat="41.8951720" lon="-8.8783960">
        <ele>8.4</ele>
        <time>2021-05-18T16:25:35Z</time>
      </trkpt>
      <trkpt lat="41.8951710" lon="-8.8783960">
        <ele>8.4</ele>
        <time>2021-05-18T16:25:36Z</time>
      </trkpt>
      <trkpt lat="41.8951710" lon="-8.8783960">
        <ele>8.4</ele>
        <time>2021-05-18T16:25:37Z</time>
      </trkpt>
      <trkpt lat="41.8951710" lon="-8.8783960">
        <ele>8.4</ele>
        <time>2021-05-18T16:25:38Z</time>
      </trkpt>
      <trkpt lat="41.8951710" lon="-8.8783970">
        <ele>8.4</ele>
        <time>2021-05-18T16:25:39Z</time>
      </trkpt>
      <trkpt lat="41.8951710" lon="-8.8783970">
        <ele>8.4</ele>
        <time>2021-05-18T16:25:40Z</time>
      </trkpt>
      <trkpt lat="41.8951710" lon="-8.8783970">
        <ele>8.4</ele>
        <time>2021-05-18T16:25:41Z</time>
      </trkpt>
      <trkpt lat="41.8951710" lon="-8.8783970">
        <ele>8.4</ele>
        <time>2021-05-18T16:25:42Z</time>
      </trkpt>
      <trkpt lat="41.8951700" lon="-8.8783970">
        <ele>8.4</ele>
        <time>2021-05-18T16:25:43Z</time>
      </trkpt>
      <trkpt lat="41.8951700" lon="-8.8783980">
        <ele>8.4</ele>
        <time>2021-05-18T16:25:44Z</time>
      </trkpt>
      <trkpt lat="41.8951700" lon="-8.8783980">
        <ele>8.4</ele>
        <time>2021-05-18T16:25:45Z</time>
      </trkpt>
      <trkpt lat="41.8951700" lon="-8.8783980">
        <ele>8.4</ele>
        <time>2021-05-18T16:25:46Z</time>
      </trkpt>
      <trkpt lat="41.8951700" lon="-8.8783980">
        <ele>8.4</ele>
        <time>2021-05-18T16:25:47Z</time>
      </trkpt>
      <trkpt lat="41.8951700" lon="-8.8783980">
        <ele>8.4</ele>
        <time>2021-05-18T16:25:48Z</time>
      </trkpt>
      <trkpt lat="41.8951700" lon="-8.8783980">
        <ele>8.4</ele>
        <time>2021-05-18T16:25:49Z</time>
      </trkpt>
      <trkpt lat="41.8951690" lon="-8.8783990">
        <ele>8.4</ele>
        <time>2021-05-18T16:25:50Z</time>
      </trkpt>
      <trkpt lat="41.8951690" lon="-8.8783990">
        <ele>8.4</ele>
        <time>2021-05-18T16:25:51Z</time>
      </trkpt>
      <trkpt lat="41.8951690" lon="-8.8783990">
        <ele>8.4</ele>
        <time>2021-05-18T16:25:52Z</time>
      </trkpt>
      <trkpt lat="41.8951690" lon="-8.8783990">
        <ele>8.4</ele>
        <time>2021-05-18T16:25:53Z</time>
      </trkpt>
      <trkpt lat="41.8951690" lon="-8.8783990">
        <ele>8.4</ele>
        <time>2021-05-18T16:25:54Z</time>
      </trkpt>
      <trkpt lat="41.8951690" lon="-8.8783990">
        <ele>8.4</ele>
        <time>2021-05-18T16:25:55Z</time>
      </trkpt>
      <trkpt lat="41.8951680" lon="-8.8784000">
        <ele>8.4</ele>
        <time>2021-05-18T16:25:56Z</time>
      </trkpt>
      <trkpt lat="41.8951680" lon="-8.8784000">
        <ele>8.4</ele>
        <time>2021-05-18T16:25:57Z</time>
      </trkpt>
      <trkpt lat="41.8951680" lon="-8.8784000">
        <ele>8.4</ele>
        <time>2021-05-18T16:25:58Z</time>
      </trkpt>
      <trkpt lat="41.8951680" lon="-8.8784000">
        <ele>8.4</ele>
        <time>2021-05-18T16:25:59Z</time>
      </trkpt>
      <trkpt lat="41.8951680" lon="-8.8784000">
        <ele>8.4</ele>
        <time>2021-05-18T16:26:00Z</time>
      </trkpt>
      <trkpt lat="41.8951680" lon="-8.8784000">
        <ele>8.4</ele>
        <time>2021-05-18T16:26:01Z</time>
      </trkpt>
      <trkpt lat="41.8951680" lon="-8.8784010">
        <ele>8.4</ele>
        <time>2021-05-18T16:26:02Z</time>
      </trkpt>
      <trkpt lat="41.8951670" lon="-8.8784010">
        <ele>8.4</ele>
        <time>2021-05-18T16:26:03Z</time>
      </trkpt>
      <trkpt lat="41.8951670" lon="-8.8784010">
        <ele>8.4</ele>
        <time>2021-05-18T16:26:04Z</time>
      </trkpt>
      <trkpt lat="41.8951670" lon="-8.8784010">
        <ele>8.4</ele>
        <time>2021-05-18T16:26:05Z</time>
      </trkpt>
      <trkpt lat="41.8951670" lon="-8.8784010">
        <ele>8.4</ele>
        <time>2021-05-18T16:26:06Z</time>
      </trkpt>
      <trkpt lat="41.8951670" lon="-8.8784010">
        <ele>8.4</ele>
        <time>2021-05-18T16:26:07Z</time>
      </trkpt>
      <trkpt lat="41.8951670" lon="-8.8784020">
        <ele>8.4</ele>
        <time>2021-05-18T16:26:08Z</time>
      </trkpt>
      <trkpt lat="41.8951670" lon="-8.8784020">
        <ele>8.4</ele>
        <time>2021-05-18T16:26:09Z</time>
      </trkpt>
      <trkpt lat="41.8951660" lon="-8.8784020">
        <ele>8.4</ele>
        <time>2021-05-18T16:26:10Z</time>
      </trkpt>
      <trkpt lat="41.8951660" lon="-8.8784020">
        <ele>8.4</ele>
        <time>2021-05-18T16:26:11Z</time>
      </trkpt>
      <trkpt lat="41.8951660" lon="-8.8784020">
        <ele>8.4</ele>
        <time>2021-05-18T16:26:12Z</time>
      </trkpt>
      <trkpt lat="41.8951660" lon="-8.8784030">
        <ele>8.4</ele>
        <time>2021-05-18T16:26:13Z</time>
      </trkpt>
      <trkpt lat="41.8951660" lon="-8.8784030">
        <ele>8.4</ele>
        <time>2021-05-18T16:26:14Z</time>
      </trkpt>
      <trkpt lat="41.8951660" lon="-8.8784030">
        <ele>8.4</ele>
        <time>2021-05-18T16:26:15Z</time>
      </trkpt>
      <trkpt lat="41.8951660" lon="-8.8784030">
        <ele>8.4</ele>
        <time>2021-05-18T16:26:16Z</time>
      </trkpt>
      <trkpt lat="41.8951650" lon="-8.8784030">
        <ele>8.4</ele>
        <time>2021-05-18T16:26:17Z</time>
      </trkpt>
      <trkpt lat="41.8951650" lon="-8.8784030">
        <ele>8.4</ele>
        <time>2021-05-18T16:26:18Z</time>
      </trkpt>
      <trkpt lat="41.8951650" lon="-8.8784040">
        <ele>8.4</ele>
        <time>2021-05-18T16:26:19Z</time>
      </trkpt>
      <trkpt lat="41.8951650" lon="-8.8784040">
        <ele>8.4</ele>
        <time>2021-05-18T16:26:20Z</time>
      </trkpt>
      <trkpt lat="41.8951650" lon="-8.8784040">
        <ele>8.4</ele>
        <time>2021-05-18T16:26:21Z</time>
      </trkpt>
      <trkpt lat="41.8951650" lon="-8.8784040">
        <ele>8.4</ele>
        <time>2021-05-18T16:26:22Z</time>
      </trkpt>
      <trkpt lat="41.8951650" lon="-8.8784040">
        <ele>8.4</ele>
        <time>2021-05-18T16:26:23Z</time>
      </trkpt>
      <trkpt lat="41.8951640" lon="-8.8784040">
        <ele>8.4</ele>
        <time>2021-05-18T16:26:24Z</time>
      </trkpt>
      <trkpt lat="41.8951640" lon="-8.8784050">
        <ele>8.4</ele>
        <time>2021-05-18T16:26:25Z</time>
      </trkpt>
      <trkpt lat="41.8951640" lon="-8.8784050">
        <ele>8.4</ele>
        <time>2021-05-18T16:26:26Z</time>
      </trkpt>
      <trkpt lat="41.8951640" lon="-8.8784050">
        <ele>8.4</ele>
        <time>2021-05-18T16:26:27Z</time>
      </trkpt>
      <trkpt lat="41.8951640" lon="-8.8784050">
        <ele>8.4</ele>
        <time>2021-05-18T16:26:28Z</time>
      </trkpt>
      <trkpt lat="41.8951640" lon="-8.8784050">
        <ele>8.4</ele>
        <time>2021-05-18T16:26:29Z</time>
      </trkpt>
      <trkpt lat="41.8951630" lon="-8.8784050">
        <ele>8.4</ele>
        <time>2021-05-18T16:26:30Z</time>
      </trkpt>
      <trkpt lat="41.8951630" lon="-8.8784060">
        <ele>8.4</ele>
        <time>2021-05-18T16:26:31Z</time>
      </trkpt>
      <trkpt lat="41.8951630" lon="-8.8784060">
        <ele>8.4</ele>
        <time>2021-05-18T16:26:32Z</time>
      </trkpt>
      <trkpt lat="41.8951630" lon="-8.8784060">
        <ele>8.4</ele>
        <time>2021-05-18T16:26:33Z</time>
      </trkpt>
      <trkpt lat="41.8951630" lon="-8.8784060">
        <ele>8.4</ele>
        <time>2021-05-18T16:26:34Z</time>
      </trkpt>
      <trkpt lat="41.8951630" lon="-8.8784060">
        <ele>8.4</ele>
        <time>2021-05-18T16:26:35Z</time>
      </trkpt>
      <trkpt lat="41.8951630" lon="-8.8784060">
        <ele>8.4</ele>
        <time>2021-05-18T16:26:36Z</time>
      </trkpt>
      <trkpt lat="41.8951620" lon="-8.8784070">
        <ele>8.4</ele>
        <time>2021-05-18T16:26:37Z</time>
      </trkpt>
      <trkpt lat="41.8951620" lon="-8.8784070">
        <ele>8.4</ele>
        <time>2021-05-18T16:26:38Z</time>
      </trkpt>
      <trkpt lat="41.8951620" lon="-8.8784070">
        <ele>8.4</ele>
        <time>2021-05-18T16:26:39Z</time>
      </trkpt>
      <trkpt lat="41.8951620" lon="-8.8784070">
        <ele>8.4</ele>
        <time>2021-05-18T16:26:40Z</time>
      </trkpt>
      <trkpt lat="41.8951620" lon="-8.8784070">
        <ele>8.4</ele>
        <time>2021-05-18T16:26:41Z</time>
      </trkpt>
      <trkpt lat="41.8951620" lon="-8.8784080">
        <ele>8.4</ele>
        <time>2021-05-18T16:26:42Z</time>
      </trkpt>
      <trkpt lat="41.8951620" lon="-8.8784080">
        <ele>8.4</ele>
        <time>2021-05-18T16:26:43Z</time>
      </trkpt>
      <trkpt lat="41.8951610" lon="-8.8784080">
        <ele>8.4</ele>
        <time>2021-05-18T16:26:44Z</time>
      </trkpt>
      <trkpt lat="41.8951610" lon="-8.8784080">
        <ele>8.4</ele>
        <time>2021-05-18T16:26:45Z</time>
      </trkpt>
      <trkpt lat="41.8951610" lon="-8.8784080">
        <ele>8.4</ele>
        <time>2021-05-18T16:26:46Z</time>
      </trkpt>
      <trkpt lat="41.8951610" lon="-8.8784080">
        <ele>8.4</ele>
        <time>2021-05-18T16:26:47Z</time>
      </trkpt>
      <trkpt lat="41.8951610" lon="-8.8784090">
        <ele>8.4</ele>
        <time>2021-05-18T16:26:48Z</time>
      </trkpt>
      <trkpt lat="41.8951610" lon="-8.8784090">
        <ele>8.4</ele>
        <time>2021-05-18T16:26:49Z</time>
      </trkpt>
      <trkpt lat="41.8951610" lon="-8.8784090">
        <ele>8.4</ele>
        <time>2021-05-18T16:26:50Z</time>
      </trkpt>
      <trkpt lat="41.8951600" lon="-8.8784090">
        <ele>8.4</ele>
        <time>2021-05-18T16:26:51Z</time>
      </trkpt>
      <trkpt lat="41.8951600" lon="-8.8784090">
        <ele>8.4</ele>
        <time>2021-05-18T16:26:52Z</time>
      </trkpt>
      <trkpt lat="41.8951600" lon="-8.8784090">
        <ele>8.4</ele>
        <time>2021-05-18T16:26:53Z</time>
      </trkpt>
      <trkpt lat="41.8951600" lon="-8.8784100">
        <ele>8.4</ele>
        <time>2021-05-18T16:26:54Z</time>
      </trkpt>
      <trkpt lat="41.8951600" lon="-8.8784100">
        <ele>8.4</ele>
        <time>2021-05-18T16:26:55Z</time>
      </trkpt>
      <trkpt lat="41.8951600" lon="-8.8784100">
        <ele>8.4</ele>
        <time>2021-05-18T16:26:56Z</time>
      </trkpt>
      <trkpt lat="41.8951600" lon="-8.8784100">
        <ele>8.4</ele>
        <time>2021-05-18T16:26:57Z</time>
      </trkpt>
      <trkpt lat="41.8951590" lon="-8.8784100">
        <ele>8.4</ele>
        <time>2021-05-18T16:26:58Z</time>
      </trkpt>
      <trkpt lat="41.8951590" lon="-8.8784100">
        <ele>8.4</ele>
        <time>2021-05-18T16:26:59Z</time>
      </trkpt>
      <trkpt lat="41.8951590" lon="-8.8784110">
        <ele>8.4</ele>
        <time>2021-05-18T16:27:00Z</time>
      </trkpt>
      <trkpt lat="41.8951590" lon="-8.8784110">
        <ele>8.4</ele>
        <time>2021-05-18T16:27:01Z</time>
      </trkpt>
      <trkpt lat="41.8951590" lon="-8.8784110">
        <ele>8.4</ele>
        <time>2021-05-18T16:27:02Z</time>
      </trkpt>
      <trkpt lat="41.8951590" lon="-8.8784110">
        <ele>8.4</ele>
        <time>2021-05-18T16:27:03Z</time>
      </trkpt>
      <trkpt lat="41.8951590" lon="-8.8784110">
        <ele>8.4</ele>
        <time>2021-05-18T16:27:04Z</time>
      </trkpt>
      <trkpt lat="41.8951580" lon="-8.8784110">
        <ele>8.4</ele>
        <time>2021-05-18T16:27:05Z</time>
      </trkpt>
      <trkpt lat="41.8951580" lon="-8.8784120">
        <ele>8.4</ele>
        <time>2021-05-18T16:27:06Z</time>
      </trkpt>
      <trkpt lat="41.8951580" lon="-8.8784120">
        <ele>8.4</ele>
        <time>2021-05-18T16:27:07Z</time>
      </trkpt>
      <trkpt lat="41.8951580" lon="-8.8784120">
        <ele>8.4</ele>
        <time>2021-05-18T16:27:08Z</time>
      </trkpt>
      <trkpt lat="41.8951580" lon="-8.8784120">
        <ele>8.4</ele>
        <time>2021-05-18T16:27:09Z</time>
      </trkpt>
      <trkpt lat="41.8951580" lon="-8.8784120">
        <ele>8.4</ele>
        <time>2021-05-18T16:27:10Z</time>
      </trkpt>
      <trkpt lat="41.8951570" lon="-8.8784130">
        <ele>8.4</ele>
        <time>2021-05-18T16:27:11Z</time>
      </trkpt>
      <trkpt lat="41.8951570" lon="-8.8784130">
        <ele>8.4</ele>
        <time>2021-05-18T16:27:12Z</time>
      </trkpt>
      <trkpt lat="41.8951570" lon="-8.8784130">
        <ele>8.4</ele>
        <time>2021-05-18T16:27:13Z</time>
      </trkpt>
      <trkpt lat="41.8951570" lon="-8.8784130">
        <ele>8.4</ele>
        <time>2021-05-18T16:27:14Z</time>
      </trkpt>
      <trkpt lat="41.8951570" lon="-8.8784130">
        <ele>8.4</ele>
        <time>2021-05-18T16:27:15Z</time>
      </trkpt>
      <trkpt lat="41.8951570" lon="-8.8784130">
        <ele>8.4</ele>
        <time>2021-05-18T16:27:16Z</time>
      </trkpt>
      <trkpt lat="41.8951570" lon="-8.8784140">
        <ele>8.4</ele>
        <time>2021-05-18T16:27:17Z</time>
      </trkpt>
      <trkpt lat="41.8951560" lon="-8.8784140">
        <ele>8.4</ele>
        <time>2021-05-18T16:27:18Z</time>
      </trkpt>
      <trkpt lat="41.8951560" lon="-8.8784140">
        <ele>8.4</ele>
        <time>2021-05-18T16:27:19Z</time>
      </trkpt>
      <trkpt lat="41.8951560" lon="-8.8784140">
        <ele>8.4</ele>
        <time>2021-05-18T16:27:20Z</time>
      </trkpt>
      <trkpt lat="41.8951560" lon="-8.8784140">
        <ele>8.4</ele>
        <time>2021-05-18T16:27:21Z</time>
      </trkpt>
      <trkpt lat="41.8951560" lon="-8.8784140">
        <ele>8.4</ele>
        <time>2021-05-18T16:27:22Z</time>
      </trkpt>
      <trkpt lat="41.8951560" lon="-8.8784150">
        <ele>8.4</ele>
        <time>2021-05-18T16:27:23Z</time>
      </trkpt>
      <trkpt lat="41.8951560" lon="-8.8784150">
        <ele>8.4</ele>
        <time>2021-05-18T16:27:24Z</time>
      </trkpt>
      <trkpt lat="41.8951550" lon="-8.8784150">
        <ele>8.4</ele>
        <time>2021-05-18T16:27:25Z</time>
      </trkpt>
      <trkpt lat="41.8951550" lon="-8.8784150">
        <ele>8.4</ele>
        <time>2021-05-18T16:27:26Z</time>
      </trkpt>
      <trkpt lat="41.8951550" lon="-8.8784150">
        <ele>8.4</ele>
        <time>2021-05-18T16:27:27Z</time>
      </trkpt>
      <trkpt lat="41.8951550" lon="-8.8784150">
        <ele>8.4</ele>
        <time>2021-05-18T16:27:28Z</time>
      </trkpt>
      <trkpt lat="41.8951550" lon="-8.8784160">
        <ele>8.4</ele>
        <time>2021-05-18T16:27:29Z</time>
      </trkpt>
      <trkpt lat="41.8951550" lon="-8.8784160">
        <ele>8.4</ele>
        <time>2021-05-18T16:27:30Z</time>
      </trkpt>
      <trkpt lat="41.8951550" lon="-8.8784160">
        <ele>8.4</ele>
        <time>2021-05-18T16:27:31Z</time>
      </trkpt>
      <trkpt lat="41.8951540" lon="-8.8784160">
        <ele>8.4</ele>
        <time>2021-05-18T16:27:32Z</time>
      </trkpt>
      <trkpt lat="41.8951540" lon="-8.8784160">
        <ele>8.4</ele>
        <time>2021-05-18T16:27:33Z</time>
      </trkpt>
      <trkpt lat="41.8951540" lon="-8.8784160">
        <ele>8.4</ele>
        <time>2021-05-18T16:27:34Z</time>
      </trkpt>
      <trkpt lat="41.8951540" lon="-8.8784170">
        <ele>8.4</ele>
        <time>2021-05-18T16:27:35Z</time>
      </trkpt>
      <trkpt lat="41.8951540" lon="-8.8784170">
        <ele>8.4</ele>
        <time>2021-05-18T16:27:36Z</time>
      </trkpt>
      <trkpt lat="41.8951540" lon="-8.8784170">
        <ele>8.4</ele>
        <time>2021-05-18T16:27:37Z</time>
      </trkpt>
      <trkpt lat="41.8951540" lon="-8.8784170">
        <ele>8.4</ele>
        <time>2021-05-18T16:27:38Z</time>
      </trkpt>
      <trkpt lat="41.8951530" lon="-8.8784170">
        <ele>8.4</ele>
        <time>2021-05-18T16:27:39Z</time>
      </trkpt>
      <trkpt lat="41.8951530" lon="-8.8784180">
        <ele>8.4</ele>
        <time>2021-05-18T16:27:40Z</time>
      </trkpt>
      <trkpt lat="41.8951530" lon="-8.8784180">
        <ele>8.4</ele>
        <time>2021-05-18T16:27:41Z</time>
      </trkpt>
      <trkpt lat="41.8951530" lon="-8.8784180">
        <ele>8.4</ele>
        <time>2021-05-18T16:27:42Z</time>
      </trkpt>
      <trkpt lat="41.8951530" lon="-8.8784180">
        <ele>8.4</ele>
        <time>2021-05-18T16:27:43Z</time>
      </trkpt>
      <trkpt lat="41.8951530" lon="-8.8784180">
        <ele>8.4</ele>
        <time>2021-05-18T16:27:44Z</time>
      </trkpt>
      <trkpt lat="41.8951520" lon="-8.8784180">
        <ele>8.4</ele>
        <time>2021-05-18T16:27:45Z</time>
      </trkpt>
      <trkpt lat="41.8951520" lon="-8.8784190">
        <ele>8.4</ele>
        <time>2021-05-18T16:27:46Z</time>
      </trkpt>
      <trkpt lat="41.8951520" lon="-8.8784190">
        <ele>8.4</ele>
        <time>2021-05-18T16:27:47Z</time>
      </trkpt>
      <trkpt lat="41.8951520" lon="-8.8784190">
        <ele>8.4</ele>
        <time>2021-05-18T16:27:48Z</time>
      </trkpt>
      <trkpt lat="41.8951520" lon="-8.8784190">
        <ele>8.4</ele>
        <time>2021-05-18T16:27:49Z</time>
      </trkpt>
      <trkpt lat="41.8951520" lon="-8.8784190">
        <ele>8.4</ele>
        <time>2021-05-18T16:27:50Z</time>
      </trkpt>
      <trkpt lat="41.8951520" lon="-8.8784190">
        <ele>8.4</ele>
        <time>2021-05-18T16:27:51Z</time>
      </trkpt>
      <trkpt lat="41.8951510" lon="-8.8784200">
        <ele>8.4</ele>
        <time>2021-05-18T16:27:52Z</time>
      </trkpt>
      <trkpt lat="41.8951510" lon="-8.8784200">
        <ele>8.4</ele>
        <time>2021-05-18T16:27:53Z</time>
      </trkpt>
      <trkpt lat="41.8951510" lon="-8.8784200">
        <ele>8.4</ele>
        <time>2021-05-18T16:27:54Z</time>
      </trkpt>
      <trkpt lat="41.8951510" lon="-8.8784200">
        <ele>8.4</ele>
        <time>2021-05-18T16:27:55Z</time>
      </trkpt>
      <trkpt lat="41.8951510" lon="-8.8784200">
        <ele>8.4</ele>
        <time>2021-05-18T16:27:56Z</time>
      </trkpt>
      <trkpt lat="41.8951510" lon="-8.8784200">
        <ele>8.4</ele>
        <time>2021-05-18T16:27:57Z</time>
      </trkpt>
      <trkpt lat="41.8951510" lon="-8.8784210">
        <ele>8.4</ele>
        <time>2021-05-18T16:27:58Z</time>
      </trkpt>
      <trkpt lat="41.8951500" lon="-8.8784210">
        <ele>8.4</ele>
        <time>2021-05-18T16:27:59Z</time>
      </trkpt>
      <trkpt lat="41.8951500" lon="-8.8784210">
        <ele>8.4</ele>
        <time>2021-05-18T16:28:00Z</time>
      </trkpt>
      <trkpt lat="41.8951500" lon="-8.8784210">
        <ele>8.4</ele>
        <time>2021-05-18T16:28:01Z</time>
      </trkpt>
      <trkpt lat="41.8951500" lon="-8.8784210">
        <ele>8.4</ele>
        <time>2021-05-18T16:28:02Z</time>
      </trkpt>
      <trkpt lat="41.8951500" lon="-8.8784210">
        <ele>8.4</ele>
        <time>2021-05-18T16:28:03Z</time>
      </trkpt>
      <trkpt lat="41.8951500" lon="-8.8784220">
        <ele>8.4</ele>
        <time>2021-05-18T16:28:04Z</time>
      </trkpt>
      <trkpt lat="41.8951500" lon="-8.8784220">
        <ele>8.4</ele>
        <time>2021-05-18T16:28:05Z</time>
      </trkpt>
      <trkpt lat="41.8951490" lon="-8.8784220">
        <ele>8.4</ele>
        <time>2021-05-18T16:28:06Z</time>
      </trkpt>
      <trkpt lat="41.8951490" lon="-8.8784220">
        <ele>8.4</ele>
        <time>2021-05-18T16:28:07Z</time>
      </trkpt>
      <trkpt lat="41.8951490" lon="-8.8784220">
        <ele>8.4</ele>
        <time>2021-05-18T16:28:08Z</time>
      </trkpt>
      <trkpt lat="41.8951490" lon="-8.8784230">
        <ele>8.4</ele>
        <time>2021-05-18T16:28:09Z</time>
      </trkpt>
      <trkpt lat="41.8951490" lon="-8.8784230">
        <ele>8.4</ele>
        <time>2021-05-18T16:28:10Z</time>
      </trkpt>
      <trkpt lat="41.8951490" lon="-8.8784230">
        <ele>8.4</ele>
        <time>2021-05-18T16:28:11Z</time>
      </trkpt>
      <trkpt lat="41.8951490" lon="-8.8784230">
        <ele>8.4</ele>
        <time>2021-05-18T16:28:12Z</time>
      </trkpt>
      <trkpt lat="41.8951480" lon="-8.8784230">
        <ele>8.4</ele>
        <time>2021-05-18T16:28:13Z</time>
      </trkpt>
      <trkpt lat="41.8951480" lon="-8.8784230">
        <ele>8.4</ele>
        <time>2021-05-18T16:28:14Z</time>
      </trkpt>
      <trkpt lat="41.8951480" lon="-8.8784240">
        <ele>8.4</ele>
        <time>2021-05-18T16:28:15Z</time>
      </trkpt>
      <trkpt lat="41.8951480" lon="-8.8784240">
        <ele>8.4</ele>
        <time>2021-05-18T16:28:16Z</time>
      </trkpt>
      <trkpt lat="41.8951480" lon="-8.8784240">
        <ele>8.4</ele>
        <time>2021-05-18T16:28:17Z</time>
      </trkpt>
      <trkpt lat="41.8951480" lon="-8.8784240">
        <ele>8.4</ele>
        <time>2021-05-18T16:28:18Z</time>
      </trkpt>
      <trkpt lat="41.8951470" lon="-8.8784240">
        <ele>8.4</ele>
        <time>2021-05-18T16:28:19Z</time>
      </trkpt>
      <trkpt lat="41.8951470" lon="-8.8784240">
        <ele>8.4</ele>
        <time>2021-05-18T16:28:20Z</time>
      </trkpt>
      <trkpt lat="41.8951470" lon="-8.8784250">
        <ele>8.4</ele>
        <time>2021-05-18T16:28:21Z</time>
      </trkpt>
      <trkpt lat="41.8951470" lon="-8.8784250">
        <ele>8.4</ele>
        <time>2021-05-18T16:28:22Z</time>
      </trkpt>
      <trkpt lat="41.8951470" lon="-8.8784250">
        <ele>8.4</ele>
        <time>2021-05-18T16:28:23Z</time>
      </trkpt>
      <trkpt lat="41.8951470" lon="-8.8784250">
        <ele>8.4</ele>
        <time>2021-05-18T16:28:24Z</time>
      </trkpt>
      <trkpt lat="41.8951470" lon="-8.8784250">
        <ele>8.4</ele>
        <time>2021-05-18T16:28:25Z</time>
      </trkpt>
      <trkpt lat="41.8951460" lon="-8.8784250">
        <ele>8.4</ele>
        <time>2021-05-18T16:28:26Z</time>
      </trkpt>
      <trkpt lat="41.8951460" lon="-8.8784260">
        <ele>8.4</ele>
        <time>2021-05-18T16:28:27Z</time>
      </trkpt>
      <trkpt lat="41.8951460" lon="-8.8784260">
        <ele>8.4</ele>
        <time>2021-05-18T16:28:28Z</time>
      </trkpt>
      <trkpt lat="41.8951460" lon="-8.8784260">
        <ele>8.4</ele>
        <time>2021-05-18T16:28:29Z</time>
      </trkpt>
      <trkpt lat="41.8951460" lon="-8.8784260">
        <ele>8.4</ele>
        <time>2021-05-18T16:28:30Z</time>
      </trkpt>
      <trkpt lat="41.8951460" lon="-8.8784260">
        <ele>8.4</ele>
        <time>2021-05-18T16:28:31Z</time>
      </trkpt>
      <trkpt lat="41.8951460" lon="-8.8784260">
        <ele>8.4</ele>
        <time>2021-05-18T16:28:32Z</time>
      </trkpt>
      <trkpt lat="41.8951450" lon="-8.8784270">
        <ele>8.4</ele>
        <time>2021-05-18T16:28:33Z</time>
      </trkpt>
      <trkpt lat="41.8951450" lon="-8.8784270">
        <ele>8.4</ele>
        <time>2021-05-18T16:28:34Z</time>
      </trkpt>
      <trkpt lat="41.8951450" lon="-8.8784270">
        <ele>8.4</ele>
        <time>2021-05-18T16:28:35Z</time>
      </trkpt>
      <trkpt lat="41.8951450" lon="-8.8784270">
        <ele>8.4</ele>
        <time>2021-05-18T16:28:36Z</time>
      </trkpt>
      <trkpt lat="41.8951450" lon="-8.8784270">
        <ele>8.4</ele>
        <time>2021-05-18T16:28:37Z</time>
      </trkpt>
      <trkpt lat="41.8951450" lon="-8.8784280">
        <ele>8.4</ele>
        <time>2021-05-18T16:28:38Z</time>
      </trkpt>
      <trkpt lat="41.8951450" lon="-8.8784280">
        <ele>8.4</ele>
        <time>2021-05-18T16:28:39Z</time>
      </trkpt>
      <trkpt lat="41.8951440" lon="-8.8784280">
        <ele>8.4</ele>
        <time>2021-05-18T16:28:40Z</time>
      </trkpt>
      <trkpt lat="41.8951440" lon="-8.8784280">
        <ele>8.4</ele>
        <time>2021-05-18T16:28:41Z</time>
      </trkpt>
      <trkpt lat="41.8951440" lon="-8.8784280">
        <ele>8.4</ele>
        <time>2021-05-18T16:28:42Z</time>
      </trkpt>
      <trkpt lat="41.8951440" lon="-8.8784280">
        <ele>8.4</ele>
        <time>2021-05-18T16:28:43Z</time>
      </trkpt>
      <trkpt lat="41.8951440" lon="-8.8784290">
        <ele>8.4</ele>
        <time>2021-05-18T16:28:44Z</time>
      </trkpt>
      <trkpt lat="41.8951440" lon="-8.8784290">
        <ele>8.4</ele>
        <time>2021-05-18T16:28:45Z</time>
      </trkpt>
      <trkpt lat="41.8951440" lon="-8.8784290">
        <ele>8.4</ele>
        <time>2021-05-18T16:28:46Z</time>
      </trkpt>
      <trkpt lat="41.8951430" lon="-8.8784290">
        <ele>8.4</ele>
        <time>2021-05-18T16:28:47Z</time>
      </trkpt>
      <trkpt lat="41.8951430" lon="-8.8784290">
        <ele>8.4</ele>
        <time>2021-05-18T16:28:48Z</time>
      </trkpt>
      <trkpt lat="41.8951430" lon="-8.8784290">
        <ele>8.4</ele>
        <time>2021-05-18T16:28:49Z</time>
      </trkpt>
      <trkpt lat="41.8951430" lon="-8.8784300">
        <ele>8.4</ele>
        <time>2021-05-18T16:28:50Z</time>
      </trkpt>
      <trkpt lat="41.8951430" lon="-8.8784300">
        <ele>8.4</ele>
        <time>2021-05-18T16:28:51Z</time>
      </trkpt>
      <trkpt lat="41.8951430" lon="-8.8784300">
        <ele>8.4</ele>
        <time>2021-05-18T16:28:52Z</time>
      </trkpt>
      <trkpt lat="41.8951430" lon="-8.8784300">
        <ele>8.4</ele>
        <time>2021-05-18T16:28:53Z</time>
      </trkpt>
      <trkpt lat="41.8951420" lon="-8.8784300">
        <ele>8.4</ele>
        <time>2021-05-18T16:28:54Z</time>
      </trkpt>
      <trkpt lat="41.8951420" lon="-8.8784300">
        <ele>8.4</ele>
        <time>2021-05-18T16:28:55Z</time>
      </trkpt>
      <trkpt lat="41.8951420" lon="-8.8784310">
        <ele>8.4</ele>
        <time>2021-05-18T16:28:56Z</time>
      </trkpt>
      <trkpt lat="41.8951420" lon="-8.8784310">
        <ele>8.4</ele>
        <time>2021-05-18T16:28:57Z</time>
      </trkpt>
      <trkpt lat="41.8951420" lon="-8.8784310">
        <ele>8.4</ele>
        <time>2021-05-18T16:28:58Z</time>
      </trkpt>
      <trkpt lat="41.8951420" lon="-8.8784310">
        <ele>8.4</ele>
        <time>2021-05-18T16:28:59Z</time>
      </trkpt>
      <trkpt lat="41.8951410" lon="-8.8784310">
        <ele>8.4</ele>
        <time>2021-05-18T16:29:00Z</time>
      </trkpt>
      <trkpt lat="41.8951410" lon="-8.8784320">
        <ele>8.4</ele>
        <time>2021-05-18T16:29:01Z</time>
      </trkpt>
      <trkpt lat="41.8951410" lon="-8.8784320">
        <ele>8.4</ele>
        <time>2021-05-18T16:29:02Z</time>
      </trkpt>
      <trkpt lat="41.8951410" lon="-8.8784320">
        <ele>8.4</ele>
        <time>2021-05-18T16:29:03Z</time>
      </trkpt>
      <trkpt lat="41.8951410" lon="-8.8784320">
        <ele>8.4</ele>
        <time>2021-05-18T16:29:04Z</time>
      </trkpt>
      <trkpt lat="41.8951410" lon="-8.8784320">
        <ele>8.4</ele>
        <time>2021-05-18T16:29:05Z</time>
      </trkpt>
      <trkpt lat="41.8951410" lon="-8.8784320">
        <ele>8.4</ele>
        <time>2021-05-18T16:29:06Z</time>
      </trkpt>
      <trkpt lat="41.8951400" lon="-8.8784330">
        <ele>8.4</ele>
        <time>2021-05-18T16:29:07Z</time>
      </trkpt>
      <trkpt lat="41.8951400" lon="-8.8784330">
        <ele>8.4</ele>
        <time>2021-05-18T16:29:08Z</time>
      </trkpt>
      <trkpt lat="41.8951400" lon="-8.8784330">
        <ele>8.4</ele>
        <time>2021-05-18T16:29:09Z</time>
      </trkpt>
      <trkpt lat="41.8951400" lon="-8.8784330">
        <ele>8.4</ele>
        <time>2021-05-18T16:29:10Z</time>
      </trkpt>
      <trkpt lat="41.8951400" lon="-8.8784330">
        <ele>8.4</ele>
        <time>2021-05-18T16:29:11Z</time>
      </trkpt>
      <trkpt lat="41.8951400" lon="-8.8784330">
        <ele>8.4</ele>
        <time>2021-05-18T16:29:12Z</time>
      </trkpt>
      <trkpt lat="41.8951400" lon="-8.8784340">
        <ele>8.4</ele>
        <time>2021-05-18T16:29:13Z</time>
      </trkpt>
      <trkpt lat="41.8951390" lon="-8.8784340">
        <ele>8.4</ele>
        <time>2021-05-18T16:29:14Z</time>
      </trkpt>
      <trkpt lat="41.8951390" lon="-8.8784340">
        <ele>8.4</ele>
        <time>2021-05-18T16:29:15Z</time>
      </trkpt>
      <trkpt lat="41.8951390" lon="-8.8784340">
        <ele>8.4</ele>
        <time>2021-05-18T16:29:16Z</time>
      </trkpt>
      <trkpt lat="41.8951390" lon="-8.8784340">
        <ele>8.4</ele>
        <time>2021-05-18T16:29:17Z</time>
      </trkpt>
      <trkpt lat="41.8951390" lon="-8.8784340">
        <ele>8.4</ele>
        <time>2021-05-18T16:29:18Z</time>
      </trkpt>
      <trkpt lat="41.8951390" lon="-8.8784350">
        <ele>8.4</ele>
        <time>2021-05-18T16:29:19Z</time>
      </trkpt>
      <trkpt lat="41.8951390" lon="-8.8784350">
        <ele>8.4</ele>
        <time>2021-05-18T16:29:20Z</time>
      </trkpt>
      <trkpt lat="41.8951380" lon="-8.8784350">
        <ele>8.4</ele>
        <time>2021-05-18T16:29:21Z</time>
      </trkpt>
      <trkpt lat="41.8951380" lon="-8.8784350">
        <ele>8.4</ele>
        <time>2021-05-18T16:29:22Z</time>
      </trkpt>
      <trkpt lat="41.8951380" lon="-8.8784350">
        <ele>8.4</ele>
        <time>2021-05-18T16:29:23Z</time>
      </trkpt>
      <trkpt lat="41.8951380" lon="-8.8784350">
        <ele>8.4</ele>
        <time>2021-05-18T16:29:24Z</time>
      </trkpt>
      <trkpt lat="41.8951380" lon="-8.8784360">
        <ele>8.4</ele>
        <time>2021-05-18T16:29:25Z</time>
      </trkpt>
      <trkpt lat="41.8951380" lon="-8.8784360">
        <ele>8.4</ele>
        <time>2021-05-18T16:29:26Z</time>
      </trkpt>
      <trkpt lat="41.8951380" lon="-8.8784360">
        <ele>8.4</ele>
        <time>2021-05-18T16:29:27Z</time>
      </trkpt>
      <trkpt lat="41.8951370" lon="-8.8784360">
        <ele>8.4</ele>
        <time>2021-05-18T16:29:28Z</time>
      </trkpt>
      <trkpt lat="41.8951370" lon="-8.8784360">
        <ele>8.4</ele>
        <time>2021-05-18T16:29:29Z</time>
      </trkpt>
      <trkpt lat="41.8951370" lon="-8.8784370">
        <ele>8.4</ele>
        <time>2021-05-18T16:29:30Z</time>
      </trkpt>
      <trkpt lat="41.8951370" lon="-8.8784370">
        <ele>8.4</ele>
        <time>2021-05-18T16:29:31Z</time>
      </trkpt>
      <trkpt lat="41.8951370" lon="-8.8784370">
        <ele>8.4</ele>
        <time>2021-05-18T16:29:32Z</time>
      </trkpt>
      <trkpt lat="41.8951370" lon="-8.8784370">
        <ele>8.4</ele>
        <time>2021-05-18T16:29:33Z</time>
      </trkpt>
      <trkpt lat="41.8951360" lon="-8.8784370">
        <ele>8.4</ele>
        <time>2021-05-18T16:29:34Z</time>
      </trkpt>
      <trkpt lat="41.8951360" lon="-8.8784370">
        <ele>8.4</ele>
        <time>2021-05-18T16:29:35Z</time>
      </trkpt>
      <trkpt lat="41.8951360" lon="-8.8784380">
        <ele>8.4</ele>
        <time>2021-05-18T16:29:36Z</time>
      </trkpt>
      <trkpt lat="41.8951360" lon="-8.8784380">
        <ele>8.4</ele>
        <time>2021-05-18T16:29:37Z</time>
      </trkpt>
      <trkpt lat="41.8951360" lon="-8.8784380">
        <ele>8.4</ele>
        <time>2021-05-18T16:29:38Z</time>
      </trkpt>
      <trkpt lat="41.8951360" lon="-8.8784380">
        <ele>8.4</ele>
        <time>2021-05-18T16:29:39Z</time>
      </trkpt>
      <trkpt lat="41.8951360" lon="-8.8784380">
        <ele>8.4</ele>
        <time>2021-05-18T16:29:40Z</time>
      </trkpt>
      <trkpt lat="41.8951350" lon="-8.8784380">
        <ele>8.4</ele>
        <time>2021-05-18T16:29:41Z</time>
      </trkpt>
      <trkpt lat="41.8951350" lon="-8.8784390">
        <ele>8.4</ele>
        <time>2021-05-18T16:29:42Z</time>
      </trkpt>
      <trkpt lat="41.8951350" lon="-8.8784390">
        <ele>8.4</ele>
        <time>2021-05-18T16:29:43Z</time>
      </trkpt>
      <trkpt lat="41.8951350" lon="-8.8784390">
        <ele>8.4</ele>
        <time>2021-05-18T16:29:44Z</time>
      </trkpt>
      <trkpt lat="41.8951350" lon="-8.8784390">
        <ele>8.4</ele>
        <time>2021-05-18T16:29:45Z</time>
      </trkpt>
      <trkpt lat="41.8951350" lon="-8.8784390">
        <ele>8.4</ele>
        <time>2021-05-18T16:29:46Z</time>
      </trkpt>
      <trkpt lat="41.8951350" lon="-8.8784390">
        <ele>8.4</ele>
        <time>2021-05-18T16:29:47Z</time>
      </trkpt>
      <trkpt lat="41.8951340" lon="-8.8784400">
        <ele>8.4</ele>
        <time>2021-05-18T16:29:48Z</time>
      </trkpt>
      <trkpt lat="41.8951340" lon="-8.8784400">
        <ele>8.4</ele>
        <time>2021-05-18T16:29:49Z</time>
      </trkpt>
      <trkpt lat="41.8951340" lon="-8.8784400">
        <ele>8.4</ele>
        <time>2021-05-18T16:29:50Z</time>
      </trkpt>
      <trkpt lat="41.8951340" lon="-8.8784400">
        <ele>8.4</ele>
        <time>2021-05-18T16:29:51Z</time>
      </trkpt>
      <trkpt lat="41.8951340" lon="-8.8784400">
        <ele>8.4</ele>
        <time>2021-05-18T16:29:52Z</time>
      </trkpt>
      <trkpt lat="41.8951340" lon="-8.8784400">
        <ele>8.4</ele>
        <time>2021-05-18T16:29:53Z</time>
      </trkpt>
      <trkpt lat="41.8951340" lon="-8.8784410">
        <ele>8.4</ele>
        <time>2021-05-18T16:29:54Z</time>
      </trkpt>
      <trkpt lat="41.8951330" lon="-8.8784410">
        <ele>8.4</ele>
        <time>2021-05-18T16:29:55Z</time>
      </trkpt>
      <trkpt lat="41.8951330" lon="-8.8784410">
        <ele>8.4</ele>
        <time>2021-05-18T16:29:56Z</time>
      </trkpt>
      <trkpt lat="41.8951330" lon="-8.8784410">
        <ele>8.4</ele>
        <time>2021-05-18T16:29:57Z</time>
      </trkpt>
      <trkpt lat="41.8951330" lon="-8.8784410">
        <ele>8.4</ele>
        <time>2021-05-18T16:29:58Z</time>
      </trkpt>
      <trkpt lat="41.8951330" lon="-8.8784420">
        <ele>8.4</ele>
        <time>2021-05-18T16:29:59Z</time>
      </trkpt>
      <trkpt lat="41.8951330" lon="-8.8784420">
        <ele>8.4</ele>
        <time>2021-05-18T16:30:00Z</time>
      </trkpt>
      <trkpt lat="41.8951330" lon="-8.8784420">
        <ele>8.4</ele>
        <time>2021-05-18T16:30:01Z</time>
      </trkpt>
      <trkpt lat="41.8951320" lon="-8.8784420">
        <ele>8.4</ele>
        <time>2021-05-18T16:30:02Z</time>
      </trkpt>
      <trkpt lat="41.8951320" lon="-8.8784420">
        <ele>8.4</ele>
        <time>2021-05-18T16:30:03Z</time>
      </trkpt>
      <trkpt lat="41.8951320" lon="-8.8784420">
        <ele>8.4</ele>
        <time>2021-05-18T16:30:04Z</time>
      </trkpt>
      <trkpt lat="41.8951320" lon="-8.8784430">
        <ele>8.4</ele>
        <time>2021-05-18T16:30:05Z</time>
      </trkpt>
      <trkpt lat="41.8951320" lon="-8.8784430">
        <ele>8.4</ele>
        <time>2021-05-18T16:30:06Z</time>
      </trkpt>
      <trkpt lat="41.8951320" lon="-8.8784430">
        <ele>8.4</ele>
        <time>2021-05-18T16:30:07Z</time>
      </trkpt>
      <trkpt lat="41.8951310" lon="-8.8784430">
        <ele>8.4</ele>
        <time>2021-05-18T16:30:08Z</time>
      </trkpt>
      <trkpt lat="41.8951310" lon="-8.8784430">
        <ele>8.4</ele>
        <time>2021-05-18T16:30:09Z</time>
      </trkpt>
      <trkpt lat="41.8951310" lon="-8.8784430">
        <ele>8.4</ele>
        <time>2021-05-18T16:30:10Z</time>
      </trkpt>
      <trkpt lat="41.8951310" lon="-8.8784440">
        <ele>8.4</ele>
        <time>2021-05-18T16:30:11Z</time>
      </trkpt>
      <trkpt lat="41.8951310" lon="-8.8784440">
        <ele>8.4</ele>
        <time>2021-05-18T16:30:12Z</time>
      </trkpt>
      <trkpt lat="41.8951310" lon="-8.8784440">
        <ele>8.4</ele>
        <time>2021-05-18T16:30:13Z</time>
      </trkpt>
      <trkpt lat="41.8951310" lon="-8.8784440">
        <ele>8.4</ele>
        <time>2021-05-18T16:30:14Z</time>
      </trkpt>
      <trkpt lat="41.8951300" lon="-8.8784440">
        <ele>8.4</ele>
        <time>2021-05-18T16:30:15Z</time>
      </trkpt>
      <trkpt lat="41.8951300" lon="-8.8784440">
        <ele>8.4</ele>
        <time>2021-05-18T16:30:16Z</time>
      </trkpt>
      <trkpt lat="41.8951300" lon="-8.8784450">
        <ele>8.4</ele>
        <time>2021-05-18T16:30:17Z</time>
      </trkpt>
      <trkpt lat="41.8951300" lon="-8.8784450">
        <ele>8.4</ele>
        <time>2021-05-18T16:30:18Z</time>
      </trkpt>
      <trkpt lat="41.8951300" lon="-8.8784450">
        <ele>8.4</ele>
        <time>2021-05-18T16:30:19Z</time>
      </trkpt>
      <trkpt lat="41.8951300" lon="-8.8784450">
        <ele>8.4</ele>
        <time>2021-05-18T16:30:20Z</time>
      </trkpt>
      <trkpt lat="41.8951300" lon="-8.8784450">
        <ele>8.4</ele>
        <time>2021-05-18T16:30:21Z</time>
      </trkpt>
      <trkpt lat="41.8951290" lon="-8.8784450">
        <ele>8.4</ele>
        <time>2021-05-18T16:30:22Z</time>
      </trkpt>
      <trkpt lat="41.8951290" lon="-8.8784460">
        <ele>8.4</ele>
        <time>2021-05-18T16:30:23Z</time>
      </trkpt>
      <trkpt lat="41.8951290" lon="-8.8784460">
        <ele>8.4</ele>
        <time>2021-05-18T16:30:24Z</time>
      </trkpt>
      <trkpt lat="41.8951290" lon="-8.8784460">
        <ele>8.4</ele>
        <time>2021-05-18T16:30:25Z</time>
      </trkpt>
      <trkpt lat="41.8951290" lon="-8.8784470">
        <ele>8.4</ele>
        <time>2021-05-18T16:30:26Z</time>
      </trkpt>
      <trkpt lat="41.8951320" lon="-8.8784490">
        <ele>8.4</ele>
        <time>2021-05-18T16:30:27Z</time>
      </trkpt>
      <trkpt lat="41.8951280" lon="-8.8784470">
        <ele>8.4</ele>
        <time>2021-05-18T16:30:28Z</time>
      </trkpt>
      <trkpt lat="41.8951260" lon="-8.8784320">
        <ele>8.4</ele>
        <time>2021-05-18T16:30:29Z</time>
      </trkpt>
      <trkpt lat="41.8951270" lon="-8.8784250">
        <ele>8.4</ele>
        <time>2021-05-18T16:30:30Z</time>
      </trkpt>
      <trkpt lat="41.8951240" lon="-8.8784210">
        <ele>8.4</ele>
        <time>2021-05-18T16:30:31Z</time>
      </trkpt>
      <trkpt lat="41.8951240" lon="-8.8784200">
        <ele>8.4</ele>
        <time>2021-05-18T16:30:32Z</time>
      </trkpt>
      <trkpt lat="41.8951200" lon="-8.8784160">
        <ele>8.4</ele>
        <time>2021-05-18T16:30:33Z</time>
      </trkpt>
      <trkpt lat="41.8951200" lon="-8.8784180">
        <ele>8.4</ele>
        <time>2021-05-18T16:30:34Z</time>
      </trkpt>
      <trkpt lat="41.8951220" lon="-8.8784160">
        <ele>8.4</ele>
        <time>2021-05-18T16:30:35Z</time>
      </trkpt>
      <trkpt lat="41.8951240" lon="-8.8784150">
        <ele>8.4</ele>
        <time>2021-05-18T16:30:36Z</time>
      </trkpt>
      <trkpt lat="41.8951250" lon="-8.8784120">
        <ele>8.4</ele>
        <time>2021-05-18T16:30:37Z</time>
      </trkpt>
      <trkpt lat="41.8951270" lon="-8.8784120">
        <ele>8.4</ele>
        <time>2021-05-18T16:30:38Z</time>
      </trkpt>
      <trkpt lat="41.8951260" lon="-8.8784110">
        <ele>8.4</ele>
        <time>2021-05-18T16:30:39Z</time>
      </trkpt>
      <trkpt lat="41.8951270" lon="-8.8784110">
        <ele>8.4</ele>
        <time>2021-05-18T16:30:40Z</time>
      </trkpt>
      <trkpt lat="41.8951300" lon="-8.8784100">
        <ele>8.4</ele>
        <time>2021-05-18T16:30:41Z</time>
      </trkpt>
      <trkpt lat="41.8951270" lon="-8.8784140">
        <ele>8.4</ele>
        <time>2021-05-18T16:30:42Z</time>
      </trkpt>
      <trkpt lat="41.8951280" lon="-8.8784170">
        <ele>8.4</ele>
        <time>2021-05-18T16:30:43Z</time>
      </trkpt>
      <trkpt lat="41.8951310" lon="-8.8784150">
        <ele>8.4</ele>
        <time>2021-05-18T16:30:44Z</time>
      </trkpt>
      <trkpt lat="41.8951320" lon="-8.8784100">
        <ele>8.4</ele>
        <time>2021-05-18T16:30:45Z</time>
      </trkpt>
      <trkpt lat="41.8951350" lon="-8.8784060">
        <ele>8.4</ele>
        <time>2021-05-18T16:30:46Z</time>
      </trkpt>
      <trkpt lat="41.8951340" lon="-8.8784040">
        <ele>8.4</ele>
        <time>2021-05-18T16:30:47Z</time>
      </trkpt>
      <trkpt lat="41.8951360" lon="-8.8784010">
        <ele>8.4</ele>
        <time>2021-05-18T16:30:48Z</time>
      </trkpt>
      <trkpt lat="41.8951360" lon="-8.8784000">
        <ele>8.4</ele>
        <time>2021-05-18T16:30:49Z</time>
      </trkpt>
      <trkpt lat="41.8951360" lon="-8.8783980">
        <ele>8.4</ele>
        <time>2021-05-18T16:30:50Z</time>
      </trkpt>
      <trkpt lat="41.8951340" lon="-8.8783980">
        <ele>8.4</ele>
        <time>2021-05-18T16:30:51Z</time>
      </trkpt>
      <trkpt lat="41.8951350" lon="-8.8783990">
        <ele>8.4</ele>
        <time>2021-05-18T16:30:52Z</time>
      </trkpt>
      <trkpt lat="41.8951360" lon="-8.8783960">
        <ele>8.4</ele>
        <time>2021-05-18T16:30:53Z</time>
      </trkpt>
      <trkpt lat="41.8951320" lon="-8.8783970">
        <ele>8.4</ele>
        <time>2021-05-18T16:30:54Z</time>
      </trkpt>
      <trkpt lat="41.8951290" lon="-8.8783970">
        <ele>8.4</ele>
        <time>2021-05-18T16:30:55Z</time>
      </trkpt>
      <trkpt lat="41.8951250" lon="-8.8783950">
        <ele>8.4</ele>
        <time>2021-05-18T16:30:56Z</time>
      </trkpt>
      <trkpt lat="41.8951230" lon="-8.8783940">
        <ele>8.4</ele>
        <time>2021-05-18T16:30:57Z</time>
      </trkpt>
      <trkpt lat="41.8951190" lon="-8.8783890">
        <ele>8.4</ele>
        <time>2021-05-18T16:30:58Z</time>
      </trkpt>
      <trkpt lat="41.8951160" lon="-8.8783870">
        <ele>8.4</ele>
        <time>2021-05-18T16:30:59Z</time>
      </trkpt>
      <trkpt lat="41.8951130" lon="-8.8783860">
        <ele>8.4</ele>
        <time>2021-05-18T16:31:00Z</time>
      </trkpt>
      <trkpt lat="41.8951130" lon="-8.8783880">
        <ele>8.4</ele>
        <time>2021-05-18T16:31:01Z</time>
      </trkpt>
      <trkpt lat="41.8951130" lon="-8.8783870">
        <ele>8.4</ele>
        <time>2021-05-18T16:31:02Z</time>
      </trkpt>
      <trkpt lat="41.8951140" lon="-8.8783860">
        <ele>8.4</ele>
        <time>2021-05-18T16:31:03Z</time>
      </trkpt>
      <trkpt lat="41.8951130" lon="-8.8783870">
        <ele>8.4</ele>
        <time>2021-05-18T16:31:04Z</time>
      </trkpt>
      <trkpt lat="41.8951130" lon="-8.8783870">
        <ele>8.4</ele>
        <time>2021-05-18T16:31:05Z</time>
      </trkpt>
      <trkpt lat="41.8951120" lon="-8.8783870">
        <ele>8.4</ele>
        <time>2021-05-18T16:31:06Z</time>
      </trkpt>
      <trkpt lat="41.8951110" lon="-8.8783860">
        <ele>8.4</ele>
        <time>2021-05-18T16:31:07Z</time>
      </trkpt>
      <trkpt lat="41.8951110" lon="-8.8783860">
        <ele>8.4</ele>
        <time>2021-05-18T16:31:08Z</time>
      </trkpt>
      <trkpt lat="41.8951100" lon="-8.8783850">
        <ele>8.4</ele>
        <time>2021-05-18T16:31:09Z</time>
      </trkpt>
      <trkpt lat="41.8951100" lon="-8.8783850">
        <ele>8.4</ele>
        <time>2021-05-18T16:31:10Z</time>
      </trkpt>
      <trkpt lat="41.8951080" lon="-8.8783760">
        <ele>8.4</ele>
        <time>2021-05-18T16:31:11Z</time>
      </trkpt>
      <trkpt lat="41.8951080" lon="-8.8783760">
        <ele>8.4</ele>
        <time>2021-05-18T16:31:12Z</time>
      </trkpt>
      <trkpt lat="41.8951080" lon="-8.8783740">
        <ele>8.4</ele>
        <time>2021-05-18T16:31:13Z</time>
      </trkpt>
      <trkpt lat="41.8951070" lon="-8.8783730">
        <ele>8.4</ele>
        <time>2021-05-18T16:31:14Z</time>
      </trkpt>
      <trkpt lat="41.8951080" lon="-8.8783720">
        <ele>8.4</ele>
        <time>2021-05-18T16:31:15Z</time>
      </trkpt>
      <trkpt lat="41.8951070" lon="-8.8783720">
        <ele>8.4</ele>
        <time>2021-05-18T16:31:16Z</time>
      </trkpt>
      <trkpt lat="41.8951080" lon="-8.8783710">
        <ele>8.4</ele>
        <time>2021-05-18T16:31:17Z</time>
      </trkpt>
      <trkpt lat="41.8951080" lon="-8.8783710">
        <ele>8.4</ele>
        <time>2021-05-18T16:31:18Z</time>
      </trkpt>
      <trkpt lat="41.8951090" lon="-8.8783740">
        <ele>8.4</ele>
        <time>2021-05-18T16:31:19Z</time>
      </trkpt>
      <trkpt lat="41.8951090" lon="-8.8783730">
        <ele>8.4</ele>
        <time>2021-05-18T16:31:20Z</time>
      </trkpt>
      <trkpt lat="41.8951080" lon="-8.8783730">
        <ele>8.4</ele>
        <time>2021-05-18T16:31:21Z</time>
      </trkpt>
      <trkpt lat="41.8951100" lon="-8.8783730">
        <ele>8.4</ele>
        <time>2021-05-18T16:31:22Z</time>
      </trkpt>
      <trkpt lat="41.8951100" lon="-8.8783720">
        <ele>8.4</ele>
        <time>2021-05-18T16:31:23Z</time>
      </trkpt>
      <trkpt lat="41.8951090" lon="-8.8783710">
        <ele>8.4</ele>
        <time>2021-05-18T16:31:24Z</time>
      </trkpt>
      <trkpt lat="41.8951080" lon="-8.8783700">
        <ele>8.4</ele>
        <time>2021-05-18T16:31:25Z</time>
      </trkpt>
      <trkpt lat="41.8951060" lon="-8.8783690">
        <ele>8.4</ele>
        <time>2021-05-18T16:31:26Z</time>
      </trkpt>
      <trkpt lat="41.8951030" lon="-8.8783690">
        <ele>8.4</ele>
        <time>2021-05-18T16:31:27Z</time>
      </trkpt>
      <trkpt lat="41.8951010" lon="-8.8783700">
        <ele>8.4</ele>
        <time>2021-05-18T16:31:28Z</time>
      </trkpt>
      <trkpt lat="41.8950990" lon="-8.8783700">
        <ele>8.4</ele>
        <time>2021-05-18T16:31:29Z</time>
      </trkpt>
      <trkpt lat="41.8950970" lon="-8.8783730">
        <ele>8.4</ele>
        <time>2021-05-18T16:31:30Z</time>
      </trkpt>
      <trkpt lat="41.8951010" lon="-8.8783760">
        <ele>8.4</ele>
        <time>2021-05-18T16:31:31Z</time>
      </trkpt>
      <trkpt lat="41.8951050" lon="-8.8783790">
        <ele>8.4</ele>
        <time>2021-05-18T16:31:32Z</time>
      </trkpt>
      <trkpt lat="41.8951070" lon="-8.8783770">
        <ele>8.4</ele>
        <time>2021-05-18T16:31:33Z</time>
      </trkpt>
      <trkpt lat="41.8951060" lon="-8.8783770">
        <ele>8.4</ele>
        <time>2021-05-18T16:31:34Z</time>
      </trkpt>
      <trkpt lat="41.8951020" lon="-8.8783780">
        <ele>8.4</ele>
        <time>2021-05-18T16:31:35Z</time>
      </trkpt>
      <trkpt lat="41.8951010" lon="-8.8783740">
        <ele>8.4</ele>
        <time>2021-05-18T16:31:36Z</time>
      </trkpt>
      <trkpt lat="41.8951030" lon="-8.8783780">
        <ele>8.4</ele>
        <time>2021-05-18T16:31:37Z</time>
      </trkpt>
      <trkpt lat="41.8951030" lon="-8.8783770">
        <ele>8.4</ele>
        <time>2021-05-18T16:31:38Z</time>
      </trkpt>
      <trkpt lat="41.8951040" lon="-8.8783780">
        <ele>8.4</ele>
        <time>2021-05-18T16:31:39Z</time>
      </trkpt>
      <trkpt lat="41.8951090" lon="-8.8783740">
        <ele>8.4</ele>
        <time>2021-05-18T16:31:40Z</time>
      </trkpt>
      <trkpt lat="41.8951100" lon="-8.8783740">
        <ele>8.4</ele>
        <time>2021-05-18T16:31:41Z</time>
      </trkpt>
      <trkpt lat="41.8951110" lon="-8.8783750">
        <ele>8.4</ele>
        <time>2021-05-18T16:31:42Z</time>
      </trkpt>
      <trkpt lat="41.8951130" lon="-8.8783750">
        <ele>8.4</ele>
        <time>2021-05-18T16:31:43Z</time>
      </trkpt>
      <trkpt lat="41.8951160" lon="-8.8783860">
        <ele>8.4</ele>
        <time>2021-05-18T16:31:44Z</time>
      </trkpt>
      <trkpt lat="41.8951170" lon="-8.8783890">
        <ele>8.4</ele>
        <time>2021-05-18T16:31:45Z</time>
      </trkpt>
      <trkpt lat="41.8951140" lon="-8.8783900">
        <ele>8.4</ele>
        <time>2021-05-18T16:31:46Z</time>
      </trkpt>
      <trkpt lat="41.8951130" lon="-8.8783920">
        <ele>8.4</ele>
        <time>2021-05-18T16:31:47Z</time>
      </trkpt>
      <trkpt lat="41.8951150" lon="-8.8783910">
        <ele>8.4</ele>
        <time>2021-05-18T16:31:48Z</time>
      </trkpt>
      <trkpt lat="41.8951150" lon="-8.8783900">
        <ele>8.4</ele>
        <time>2021-05-18T16:31:49Z</time>
      </trkpt>
      <trkpt lat="41.8951150" lon="-8.8783990">
        <ele>8.4</ele>
        <time>2021-05-18T16:31:50Z</time>
      </trkpt>
      <trkpt lat="41.8951160" lon="-8.8783980">
        <ele>8.4</ele>
        <time>2021-05-18T16:31:51Z</time>
      </trkpt>
      <trkpt lat="41.8951130" lon="-8.8783990">
        <ele>8.4</ele>
        <time>2021-05-18T16:31:52Z</time>
      </trkpt>
      <trkpt lat="41.8951090" lon="-8.8783980">
        <ele>8.4</ele>
        <time>2021-05-18T16:31:53Z</time>
      </trkpt>
      <trkpt lat="41.8951050" lon="-8.8784070">
        <ele>8.4</ele>
        <time>2021-05-18T16:31:54Z</time>
      </trkpt>
      <trkpt lat="41.8951080" lon="-8.8784050">
        <ele>8.4</ele>
        <time>2021-05-18T16:31:55Z</time>
      </trkpt>
      <trkpt lat="41.8951070" lon="-8.8784050">
        <ele>8.4</ele>
        <time>2021-05-18T16:31:56Z</time>
      </trkpt>
      <trkpt lat="41.8951070" lon="-8.8784050">
        <ele>8.4</ele>
        <time>2021-05-18T16:31:57Z</time>
      </trkpt>
      <trkpt lat="41.8951130" lon="-8.8784140">
        <ele>8.4</ele>
        <time>2021-05-18T16:31:58Z</time>
      </trkpt>
      <trkpt lat="41.8951130" lon="-8.8784130">
        <ele>8.4</ele>
        <time>2021-05-18T16:31:59Z</time>
      </trkpt>
      <trkpt lat="41.8951140" lon="-8.8784140">
        <ele>8.4</ele>
        <time>2021-05-18T16:32:00Z</time>
      </trkpt>
      <trkpt lat="41.8951160" lon="-8.8784170">
        <ele>8.4</ele>
        <time>2021-05-18T16:32:01Z</time>
      </trkpt>
      <trkpt lat="41.8951170" lon="-8.8784180">
        <ele>8.4</ele>
        <time>2021-05-18T16:32:02Z</time>
      </trkpt>
      <trkpt lat="41.8951170" lon="-8.8784180">
        <ele>8.4</ele>
        <time>2021-05-18T16:32:03Z</time>
      </trkpt>
      <trkpt lat="41.8951170" lon="-8.8784180">
        <ele>8.4</ele>
        <time>2021-05-18T16:32:04Z</time>
      </trkpt>
      <trkpt lat="41.8951190" lon="-8.8784230">
        <ele>8.4</ele>
        <time>2021-05-18T16:32:05Z</time>
      </trkpt>
      <trkpt lat="41.8951190" lon="-8.8784240">
        <ele>8.4</ele>
        <time>2021-05-18T16:32:06Z</time>
      </trkpt>
      <trkpt lat="41.8951190" lon="-8.8784240">
        <ele>8.4</ele>
        <time>2021-05-18T16:32:07Z</time>
      </trkpt>
      <trkpt lat="41.8951200" lon="-8.8784270">
        <ele>8.4</ele>
        <time>2021-05-18T16:32:08Z</time>
      </trkpt>
      <trkpt lat="41.8951220" lon="-8.8784280">
        <ele>8.4</ele>
        <time>2021-05-18T16:32:09Z</time>
      </trkpt>
      <trkpt lat="41.8951220" lon="-8.8784280">
        <ele>8.4</ele>
        <time>2021-05-18T16:32:10Z</time>
      </trkpt>
      <trkpt lat="41.8951240" lon="-8.8784330">
        <ele>8.4</ele>
        <time>2021-05-18T16:32:11Z</time>
      </trkpt>
      <trkpt lat="41.8951220" lon="-8.8784310">
        <ele>8.4</ele>
        <time>2021-05-18T16:32:12Z</time>
      </trkpt>
      <trkpt lat="41.8951220" lon="-8.8784310">
        <ele>8.4</ele>
        <time>2021-05-18T16:32:13Z</time>
      </trkpt>
      <trkpt lat="41.8951190" lon="-8.8784270">
        <ele>8.4</ele>
        <time>2021-05-18T16:32:14Z</time>
      </trkpt>
      <trkpt lat="41.8951170" lon="-8.8784260">
        <ele>8.4</ele>
        <time>2021-05-18T16:32:15Z</time>
      </trkpt>
      <trkpt lat="41.8951170" lon="-8.8784270">
        <ele>8.4</ele>
        <time>2021-05-18T16:32:16Z</time>
      </trkpt>
      <trkpt lat="41.8951180" lon="-8.8784270">
        <ele>8.4</ele>
        <time>2021-05-18T16:32:17Z</time>
      </trkpt>
      <trkpt lat="41.8951150" lon="-8.8784230">
        <ele>8.4</ele>
        <time>2021-05-18T16:32:18Z</time>
      </trkpt>
      <trkpt lat="41.8951150" lon="-8.8784230">
        <ele>8.4</ele>
        <time>2021-05-18T16:32:19Z</time>
      </trkpt>
      <trkpt lat="41.8951040" lon="-8.8784100">
        <ele>8.4</ele>
        <time>2021-05-18T16:32:20Z</time>
      </trkpt>
      <trkpt lat="41.8951070" lon="-8.8784110">
        <ele>8.4</ele>
        <time>2021-05-18T16:32:21Z</time>
      </trkpt>
      <trkpt lat="41.8951060" lon="-8.8784130">
        <ele>8.4</ele>
        <time>2021-05-18T16:32:22Z</time>
      </trkpt>
      <trkpt lat="41.8951040" lon="-8.8784140">
        <ele>8.4</ele>
        <time>2021-05-18T16:32:23Z</time>
      </trkpt>
      <trkpt lat="41.8951020" lon="-8.8784140">
        <ele>8.4</ele>
        <time>2021-05-18T16:32:24Z</time>
      </trkpt>
      <trkpt lat="41.8951020" lon="-8.8784140">
        <ele>8.4</ele>
        <time>2021-05-18T16:32:25Z</time>
      </trkpt>
      <trkpt lat="41.8951020" lon="-8.8784140">
        <ele>8.4</ele>
        <time>2021-05-18T16:32:26Z</time>
      </trkpt>
      <trkpt lat="41.8950960" lon="-8.8784100">
        <ele>8.4</ele>
        <time>2021-05-18T16:32:27Z</time>
      </trkpt>
      <trkpt lat="41.8950980" lon="-8.8784120">
        <ele>8.4</ele>
        <time>2021-05-18T16:32:28Z</time>
      </trkpt>
      <trkpt lat="41.8950980" lon="-8.8784070">
        <ele>8.4</ele>
        <time>2021-05-18T16:32:29Z</time>
      </trkpt>
      <trkpt lat="41.8950990" lon="-8.8784050">
        <ele>8.4</ele>
        <time>2021-05-18T16:32:30Z</time>
      </trkpt>
      <trkpt lat="41.8950960" lon="-8.8784010">
        <ele>8.4</ele>
        <time>2021-05-18T16:32:31Z</time>
      </trkpt>
      <trkpt lat="41.8950920" lon="-8.8783980">
        <ele>8.4</ele>
        <time>2021-05-18T16:32:32Z</time>
      </trkpt>
      <trkpt lat="41.8950920" lon="-8.8783950">
        <ele>8.4</ele>
        <time>2021-05-18T16:32:33Z</time>
      </trkpt>
      <trkpt lat="41.8950920" lon="-8.8783950">
        <ele>8.4</ele>
        <time>2021-05-18T16:32:34Z</time>
      </trkpt>
      <trkpt lat="41.8950920" lon="-8.8783950">
        <ele>8.4</ele>
        <time>2021-05-18T16:32:35Z</time>
      </trkpt>
      <trkpt lat="41.8950920" lon="-8.8783950">
        <ele>8.4</ele>
        <time>2021-05-18T16:32:36Z</time>
      </trkpt>
      <trkpt lat="41.8950920" lon="-8.8783950">
        <ele>8.4</ele>
        <time>2021-05-18T16:32:37Z</time>
      </trkpt>
      <trkpt lat="41.8950930" lon="-8.8783890">
        <ele>8.4</ele>
        <time>2021-05-18T16:32:38Z</time>
      </trkpt>
      <trkpt lat="41.8950950" lon="-8.8783910">
        <ele>8.4</ele>
        <time>2021-05-18T16:32:39Z</time>
      </trkpt>
      <trkpt lat="41.8950960" lon="-8.8783920">
        <ele>8.4</ele>
        <time>2021-05-18T16:32:40Z</time>
      </trkpt>
      <trkpt lat="41.8950980" lon="-8.8783930">
        <ele>8.4</ele>
        <time>2021-05-18T16:32:41Z</time>
      </trkpt>
      <trkpt lat="41.8950990" lon="-8.8783920">
        <ele>8.4</ele>
        <time>2021-05-18T16:32:42Z</time>
      </trkpt>
      <trkpt lat="41.8950970" lon="-8.8783900">
        <ele>8.4</ele>
        <time>2021-05-18T16:32:43Z</time>
      </trkpt>
      <trkpt lat="41.8950960" lon="-8.8783880">
        <ele>8.4</ele>
        <time>2021-05-18T16:32:44Z</time>
      </trkpt>
      <trkpt lat="41.8950960" lon="-8.8783880">
        <ele>8.4</ele>
        <time>2021-05-18T16:32:45Z</time>
      </trkpt>
      <trkpt lat="41.8950960" lon="-8.8783850">
        <ele>8.4</ele>
        <time>2021-05-18T16:32:46Z</time>
      </trkpt>
      <trkpt lat="41.8950960" lon="-8.8783850">
        <ele>8.4</ele>
        <time>2021-05-18T16:32:47Z</time>
      </trkpt>
      <trkpt lat="41.8950960" lon="-8.8783830">
        <ele>8.4</ele>
        <time>2021-05-18T16:32:48Z</time>
      </trkpt>
      <trkpt lat="41.8950970" lon="-8.8783830">
        <ele>8.4</ele>
        <time>2021-05-18T16:32:49Z</time>
      </trkpt>
      <trkpt lat="41.8950960" lon="-8.8783800">
        <ele>8.4</ele>
        <time>2021-05-18T16:32:50Z</time>
      </trkpt>
      <trkpt lat="41.8950960" lon="-8.8783800">
        <ele>8.4</ele>
        <time>2021-05-18T16:32:51Z</time>
      </trkpt>
      <trkpt lat="41.8950960" lon="-8.8783800">
        <ele>8.4</ele>
        <time>2021-05-18T16:32:52Z</time>
      </trkpt>
      <trkpt lat="41.8950960" lon="-8.8783800">
        <ele>8.4</ele>
        <time>2021-05-18T16:32:53Z</time>
      </trkpt>
      <trkpt lat="41.8950960" lon="-8.8783800">
        <ele>8.4</ele>
        <time>2021-05-18T16:32:54Z</time>
      </trkpt>
      <trkpt lat="41.8950890" lon="-8.8783810">
        <ele>8.4</ele>
        <time>2021-05-18T16:32:55Z</time>
      </trkpt>
      <trkpt lat="41.8950880" lon="-8.8783800">
        <ele>8.4</ele>
        <time>2021-05-18T16:32:56Z</time>
      </trkpt>
      <trkpt lat="41.8950880" lon="-8.8783800">
        <ele>8.4</ele>
        <time>2021-05-18T16:32:57Z</time>
      </trkpt>
      <trkpt lat="41.8950840" lon="-8.8783790">
        <ele>8.4</ele>
        <time>2021-05-18T16:32:58Z</time>
      </trkpt>
      <trkpt lat="41.8950860" lon="-8.8783790">
        <ele>8.4</ele>
        <time>2021-05-18T16:32:59Z</time>
      </trkpt>
      <trkpt lat="41.8950880" lon="-8.8783760">
        <ele>8.4</ele>
        <time>2021-05-18T16:33:00Z</time>
      </trkpt>
      <trkpt lat="41.8950900" lon="-8.8783730">
        <ele>8.4</ele>
        <time>2021-05-18T16:33:01Z</time>
      </trkpt>
      <trkpt lat="41.8950890" lon="-8.8783730">
        <ele>8.4</ele>
        <time>2021-05-18T16:33:02Z</time>
      </trkpt>
      <trkpt lat="41.8950890" lon="-8.8783690">
        <ele>8.4</ele>
        <time>2021-05-18T16:33:03Z</time>
      </trkpt>
      <trkpt lat="41.8950900" lon="-8.8783690">
        <ele>8.4</ele>
        <time>2021-05-18T16:33:04Z</time>
      </trkpt>
      <trkpt lat="41.8950900" lon="-8.8783690">
        <ele>8.4</ele>
        <time>2021-05-18T16:33:05Z</time>
      </trkpt>
      <trkpt lat="41.8950900" lon="-8.8783690">
        <ele>8.4</ele>
        <time>2021-05-18T16:33:06Z</time>
      </trkpt>
      <trkpt lat="41.8950870" lon="-8.8783680">
        <ele>8.4</ele>
        <time>2021-05-18T16:33:07Z</time>
      </trkpt>
      <trkpt lat="41.8950850" lon="-8.8783650">
        <ele>8.4</ele>
        <time>2021-05-18T16:33:08Z</time>
      </trkpt>
      <trkpt lat="41.8950860" lon="-8.8783640">
        <ele>8.4</ele>
        <time>2021-05-18T16:33:09Z</time>
      </trkpt>
      <trkpt lat="41.8950860" lon="-8.8783670">
        <ele>8.4</ele>
        <time>2021-05-18T16:33:10Z</time>
      </trkpt>
      <trkpt lat="41.8950860" lon="-8.8783660">
        <ele>8.4</ele>
        <time>2021-05-18T16:33:11Z</time>
      </trkpt>
      <trkpt lat="41.8950860" lon="-8.8783660">
        <ele>8.4</ele>
        <time>2021-05-18T16:33:12Z</time>
      </trkpt>
      <trkpt lat="41.8950850" lon="-8.8783630">
        <ele>8.4</ele>
        <time>2021-05-18T16:33:13Z</time>
      </trkpt>
      <trkpt lat="41.8950870" lon="-8.8783630">
        <ele>8.4</ele>
        <time>2021-05-18T16:33:14Z</time>
      </trkpt>
      <trkpt lat="41.8950870" lon="-8.8783630">
        <ele>8.4</ele>
        <time>2021-05-18T16:33:15Z</time>
      </trkpt>
      <trkpt lat="41.8950880" lon="-8.8783600">
        <ele>8.4</ele>
        <time>2021-05-18T16:33:16Z</time>
      </trkpt>
      <trkpt lat="41.8950880" lon="-8.8783580">
        <ele>8.4</ele>
        <time>2021-05-18T16:33:17Z</time>
      </trkpt>
      <trkpt lat="41.8950910" lon="-8.8783630">
        <ele>8.4</ele>
        <time>2021-05-18T16:33:18Z</time>
      </trkpt>
      <trkpt lat="41.8950920" lon="-8.8783650">
        <ele>8.4</ele>
        <time>2021-05-18T16:33:19Z</time>
      </trkpt>
      <trkpt lat="41.8950950" lon="-8.8783650">
        <ele>8.4</ele>
        <time>2021-05-18T16:33:20Z</time>
      </trkpt>
      <trkpt lat="41.8950950" lon="-8.8783650">
        <ele>8.4</ele>
        <time>2021-05-18T16:33:21Z</time>
      </trkpt>
      <trkpt lat="41.8950950" lon="-8.8783650">
        <ele>8.4</ele>
        <time>2021-05-18T16:33:22Z</time>
      </trkpt>
      <trkpt lat="41.8950940" lon="-8.8783650">
        <ele>8.4</ele>
        <time>2021-05-18T16:33:23Z</time>
      </trkpt>
      <trkpt lat="41.8950940" lon="-8.8783650">
        <ele>8.4</ele>
        <time>2021-05-18T16:33:24Z</time>
      </trkpt>
      <trkpt lat="41.8950930" lon="-8.8783660">
        <ele>8.4</ele>
        <time>2021-05-18T16:33:25Z</time>
      </trkpt>
      <trkpt lat="41.8950930" lon="-8.8783660">
        <ele>8.4</ele>
        <time>2021-05-18T16:33:26Z</time>
      </trkpt>
      <trkpt lat="41.8950930" lon="-8.8783650">
        <ele>8.4</ele>
        <time>2021-05-18T16:33:27Z</time>
      </trkpt>
      <trkpt lat="41.8950930" lon="-8.8783650">
        <ele>8.4</ele>
        <time>2021-05-18T16:33:28Z</time>
      </trkpt>
      <trkpt lat="41.8950930" lon="-8.8783650">
        <ele>8.4</ele>
        <time>2021-05-18T16:33:29Z</time>
      </trkpt>
      <trkpt lat="41.8950930" lon="-8.8783650">
        <ele>8.4</ele>
        <time>2021-05-18T16:33:30Z</time>
      </trkpt>
      <trkpt lat="41.8950930" lon="-8.8783650">
        <ele>8.4</ele>
        <time>2021-05-18T16:33:31Z</time>
      </trkpt>
      <trkpt lat="41.8950910" lon="-8.8783760">
        <ele>8.4</ele>
        <time>2021-05-18T16:33:32Z</time>
      </trkpt>
      <trkpt lat="41.8950900" lon="-8.8783760">
        <ele>8.4</ele>
        <time>2021-05-18T16:33:33Z</time>
      </trkpt>
      <trkpt lat="41.8950900" lon="-8.8783770">
        <ele>8.4</ele>
        <time>2021-05-18T16:33:34Z</time>
      </trkpt>
      <trkpt lat="41.8950890" lon="-8.8783770">
        <ele>8.4</ele>
        <time>2021-05-18T16:33:35Z</time>
      </trkpt>
      <trkpt lat="41.8950910" lon="-8.8783810">
        <ele>8.4</ele>
        <time>2021-05-18T16:33:36Z</time>
      </trkpt>
      <trkpt lat="41.8950900" lon="-8.8783780">
        <ele>8.4</ele>
        <time>2021-05-18T16:33:37Z</time>
      </trkpt>
      <trkpt lat="41.8950870" lon="-8.8783680">
        <ele>8.4</ele>
        <time>2021-05-18T16:33:38Z</time>
      </trkpt>
      <trkpt lat="41.8950910" lon="-8.8783750">
        <ele>8.4</ele>
        <time>2021-05-18T16:33:39Z</time>
      </trkpt>
      <trkpt lat="41.8950880" lon="-8.8783790">
        <ele>8.4</ele>
        <time>2021-05-18T16:33:40Z</time>
      </trkpt>
      <trkpt lat="41.8950940" lon="-8.8783850">
        <ele>8.4</ele>
        <time>2021-05-18T16:33:41Z</time>
      </trkpt>
      <trkpt lat="41.8950930" lon="-8.8783860">
        <ele>8.4</ele>
        <time>2021-05-18T16:33:42Z</time>
      </trkpt>
      <trkpt lat="41.8950900" lon="-8.8783870">
        <ele>8.4</ele>
        <time>2021-05-18T16:33:43Z</time>
      </trkpt>
      <trkpt lat="41.8950890" lon="-8.8783880">
        <ele>8.4</ele>
        <time>2021-05-18T16:33:44Z</time>
      </trkpt>
      <trkpt lat="41.8950880" lon="-8.8783880">
        <ele>8.4</ele>
        <time>2021-05-18T16:33:45Z</time>
      </trkpt>
      <trkpt lat="41.8950890" lon="-8.8783890">
        <ele>8.4</ele>
        <time>2021-05-18T16:33:46Z</time>
      </trkpt>
      <trkpt lat="41.8950900" lon="-8.8783900">
        <ele>8.4</ele>
        <time>2021-05-18T16:33:47Z</time>
      </trkpt>
      <trkpt lat="41.8950920" lon="-8.8783880">
        <ele>8.4</ele>
        <time>2021-05-18T16:33:48Z</time>
      </trkpt>
      <trkpt lat="41.8950970" lon="-8.8783900">
        <ele>8.4</ele>
        <time>2021-05-18T16:33:49Z</time>
      </trkpt>
      <trkpt lat="41.8951010" lon="-8.8783930">
        <ele>8.4</ele>
        <time>2021-05-18T16:33:50Z</time>
      </trkpt>
      <trkpt lat="41.8951060" lon="-8.8783980">
        <ele>8.4</ele>
        <time>2021-05-18T16:33:51Z</time>
      </trkpt>
      <trkpt lat="41.8951090" lon="-8.8784010">
        <ele>8.4</ele>
        <time>2021-05-18T16:33:52Z</time>
      </trkpt>
      <trkpt lat="41.8951110" lon="-8.8784040">
        <ele>8.4</ele>
        <time>2021-05-18T16:33:53Z</time>
      </trkpt>
      <trkpt lat="41.8951120" lon="-8.8784060">
        <ele>8.4</ele>
        <time>2021-05-18T16:33:54Z</time>
      </trkpt>
      <trkpt lat="41.8951140" lon="-8.8784060">
        <ele>8.4</ele>
        <time>2021-05-18T16:33:55Z</time>
      </trkpt>
      <trkpt lat="41.8951150" lon="-8.8784080">
        <ele>8.4</ele>
        <time>2021-05-18T16:33:56Z</time>
      </trkpt>
      <trkpt lat="41.8951170" lon="-8.8784100">
        <ele>8.4</ele>
        <time>2021-05-18T16:33:57Z</time>
      </trkpt>
      <trkpt lat="41.8951190" lon="-8.8784130">
        <ele>8.4</ele>
        <time>2021-05-18T16:33:58Z</time>
      </trkpt>
      <trkpt lat="41.8951220" lon="-8.8784160">
        <ele>8.4</ele>
        <time>2021-05-18T16:33:59Z</time>
      </trkpt>
      <trkpt lat="41.8951230" lon="-8.8784160">
        <ele>8.4</ele>
        <time>2021-05-18T16:34:00Z</time>
      </trkpt>
      <trkpt lat="41.8951250" lon="-8.8784140">
        <ele>8.4</ele>
        <time>2021-05-18T16:34:01Z</time>
      </trkpt>
      <trkpt lat="41.8951260" lon="-8.8784170">
        <ele>8.4</ele>
        <time>2021-05-18T16:34:02Z</time>
      </trkpt>
      <trkpt lat="41.8951260" lon="-8.8784180">
        <ele>8.4</ele>
        <time>2021-05-18T16:34:03Z</time>
      </trkpt>
      <trkpt lat="41.8951270" lon="-8.8784200">
        <ele>8.4</ele>
        <time>2021-05-18T16:34:04Z</time>
      </trkpt>
      <trkpt lat="41.8951280" lon="-8.8784220">
        <ele>8.4</ele>
        <time>2021-05-18T16:34:05Z</time>
      </trkpt>
      <trkpt lat="41.8951280" lon="-8.8784250">
        <ele>8.4</ele>
        <time>2021-05-18T16:34:06Z</time>
      </trkpt>
      <trkpt lat="41.8951280" lon="-8.8784250">
        <ele>8.4</ele>
        <time>2021-05-18T16:34:07Z</time>
      </trkpt>
      <trkpt lat="41.8951280" lon="-8.8784250">
        <ele>8.4</ele>
        <time>2021-05-18T16:34:08Z</time>
      </trkpt>
      <trkpt lat="41.8951280" lon="-8.8784250">
        <ele>8.4</ele>
        <time>2021-05-18T16:34:09Z</time>
      </trkpt>
      <trkpt lat="41.8951280" lon="-8.8784250">
        <ele>8.4</ele>
        <time>2021-05-18T16:34:10Z</time>
      </trkpt>
      <trkpt lat="41.8951280" lon="-8.8784240">
        <ele>8.4</ele>
        <time>2021-05-18T16:34:11Z</time>
      </trkpt>
      <trkpt lat="41.8951280" lon="-8.8784240">
        <ele>8.4</ele>
        <time>2021-05-18T16:34:12Z</time>
      </trkpt>
      <trkpt lat="41.8951280" lon="-8.8784240">
        <ele>8.4</ele>
        <time>2021-05-18T16:34:13Z</time>
      </trkpt>
      <trkpt lat="41.8951280" lon="-8.8784240">
        <ele>8.4</ele>
        <time>2021-05-18T16:34:14Z</time>
      </trkpt>
      <trkpt lat="41.8951290" lon="-8.8784240">
        <ele>8.4</ele>
        <time>2021-05-18T16:34:15Z</time>
      </trkpt>
      <trkpt lat="41.8951290" lon="-8.8784240">
        <ele>8.4</ele>
        <time>2021-05-18T16:34:16Z</time>
      </trkpt>
      <trkpt lat="41.8951290" lon="-8.8784240">
        <ele>8.4</ele>
        <time>2021-05-18T16:34:17Z</time>
      </trkpt>
      <trkpt lat="41.8951290" lon="-8.8784240">
        <ele>8.4</ele>
        <time>2021-05-18T16:34:18Z</time>
      </trkpt>
      <trkpt lat="41.8951290" lon="-8.8784240">
        <ele>8.4</ele>
        <time>2021-05-18T16:34:19Z</time>
      </trkpt>
      <trkpt lat="41.8951290" lon="-8.8784240">
        <ele>8.4</ele>
        <time>2021-05-18T16:34:20Z</time>
      </trkpt>
      <trkpt lat="41.8951290" lon="-8.8784230">
        <ele>8.4</ele>
        <time>2021-05-18T16:34:21Z</time>
      </trkpt>
      <trkpt lat="41.8951290" lon="-8.8784230">
        <ele>8.4</ele>
        <time>2021-05-18T16:34:22Z</time>
      </trkpt>
      <trkpt lat="41.8951290" lon="-8.8784230">
        <ele>8.4</ele>
        <time>2021-05-18T16:34:23Z</time>
      </trkpt>
      <trkpt lat="41.8951290" lon="-8.8784230">
        <ele>8.4</ele>
        <time>2021-05-18T16:34:24Z</time>
      </trkpt>
      <trkpt lat="41.8951290" lon="-8.8784230">
        <ele>8.4</ele>
        <time>2021-05-18T16:34:25Z</time>
      </trkpt>
      <trkpt lat="41.8951290" lon="-8.8784230">
        <ele>8.4</ele>
        <time>2021-05-18T16:34:26Z</time>
      </trkpt>
      <trkpt lat="41.8951290" lon="-8.8784230">
        <ele>8.4</ele>
        <time>2021-05-18T16:34:27Z</time>
      </trkpt>
      <trkpt lat="41.8951290" lon="-8.8784230">
        <ele>8.4</ele>
        <time>2021-05-18T16:34:28Z</time>
      </trkpt>
      <trkpt lat="41.8951290" lon="-8.8784230">
        <ele>8.4</ele>
        <time>2021-05-18T16:34:29Z</time>
      </trkpt>
      <trkpt lat="41.8951290" lon="-8.8784230">
        <ele>8.4</ele>
        <time>2021-05-18T16:34:30Z</time>
      </trkpt>
      <trkpt lat="41.8951290" lon="-8.8784220">
        <ele>8.4</ele>
        <time>2021-05-18T16:34:31Z</time>
      </trkpt>
      <trkpt lat="41.8951290" lon="-8.8784220">
        <ele>8.4</ele>
        <time>2021-05-18T16:34:32Z</time>
      </trkpt>
      <trkpt lat="41.8951300" lon="-8.8784220">
        <ele>8.4</ele>
        <time>2021-05-18T16:34:33Z</time>
      </trkpt>
      <trkpt lat="41.8951300" lon="-8.8784220">
        <ele>8.4</ele>
        <time>2021-05-18T16:34:34Z</time>
      </trkpt>
      <trkpt lat="41.8951300" lon="-8.8784220">
        <ele>8.4</ele>
        <time>2021-05-18T16:34:35Z</time>
      </trkpt>
      <trkpt lat="41.8951300" lon="-8.8784220">
        <ele>8.4</ele>
        <time>2021-05-18T16:34:36Z</time>
      </trkpt>
      <trkpt lat="41.8951300" lon="-8.8784220">
        <ele>8.4</ele>
        <time>2021-05-18T16:34:37Z</time>
      </trkpt>
      <trkpt lat="41.8951300" lon="-8.8784220">
        <ele>8.4</ele>
        <time>2021-05-18T16:34:38Z</time>
      </trkpt>
      <trkpt lat="41.8951300" lon="-8.8784220">
        <ele>8.4</ele>
        <time>2021-05-18T16:34:39Z</time>
      </trkpt>
      <trkpt lat="41.8951300" lon="-8.8784220">
        <ele>8.4</ele>
        <time>2021-05-18T16:34:40Z</time>
      </trkpt>
      <trkpt lat="41.8951300" lon="-8.8784220">
        <ele>8.4</ele>
        <time>2021-05-18T16:34:41Z</time>
      </trkpt>
      <trkpt lat="41.8951300" lon="-8.8784210">
        <ele>8.4</ele>
        <time>2021-05-18T16:34:42Z</time>
      </trkpt>
      <trkpt lat="41.8951300" lon="-8.8784210">
        <ele>8.4</ele>
        <time>2021-05-18T16:34:43Z</time>
      </trkpt>
      <trkpt lat="41.8951300" lon="-8.8784210">
        <ele>8.4</ele>
        <time>2021-05-18T16:34:44Z</time>
      </trkpt>
      <trkpt lat="41.8951300" lon="-8.8784210">
        <ele>8.4</ele>
        <time>2021-05-18T16:34:45Z</time>
      </trkpt>
      <trkpt lat="41.8951300" lon="-8.8784210">
        <ele>8.4</ele>
        <time>2021-05-18T16:34:46Z</time>
      </trkpt>
      <trkpt lat="41.8951300" lon="-8.8784210">
        <ele>8.4</ele>
        <time>2021-05-18T16:34:47Z</time>
      </trkpt>
      <trkpt lat="41.8951300" lon="-8.8784210">
        <ele>8.4</ele>
        <time>2021-05-18T16:34:48Z</time>
      </trkpt>
      <trkpt lat="41.8951300" lon="-8.8784210">
        <ele>8.4</ele>
        <time>2021-05-18T16:34:49Z</time>
      </trkpt>
      <trkpt lat="41.8951300" lon="-8.8784210">
        <ele>8.4</ele>
        <time>2021-05-18T16:34:50Z</time>
      </trkpt>
      <trkpt lat="41.8951310" lon="-8.8784210">
        <ele>8.4</ele>
        <time>2021-05-18T16:34:51Z</time>
      </trkpt>
      <trkpt lat="41.8951310" lon="-8.8784200">
        <ele>8.4</ele>
        <time>2021-05-18T16:34:52Z</time>
      </trkpt>
      <trkpt lat="41.8951310" lon="-8.8784200">
        <ele>8.4</ele>
        <time>2021-05-18T16:34:53Z</time>
      </trkpt>
      <trkpt lat="41.8951310" lon="-8.8784200">
        <ele>8.4</ele>
        <time>2021-05-18T16:34:54Z</time>
      </trkpt>
      <trkpt lat="41.8951310" lon="-8.8784200">
        <ele>8.4</ele>
        <time>2021-05-18T16:34:55Z</time>
      </trkpt>
      <trkpt lat="41.8951310" lon="-8.8784200">
        <ele>8.4</ele>
        <time>2021-05-18T16:34:56Z</time>
      </trkpt>
      <trkpt lat="41.8951310" lon="-8.8784200">
        <ele>8.4</ele>
        <time>2021-05-18T16:34:57Z</time>
      </trkpt>
      <trkpt lat="41.8951310" lon="-8.8784200">
        <ele>8.4</ele>
        <time>2021-05-18T16:34:58Z</time>
      </trkpt>
      <trkpt lat="41.8951310" lon="-8.8784200">
        <ele>8.4</ele>
        <time>2021-05-18T16:34:59Z</time>
      </trkpt>
      <trkpt lat="41.8951310" lon="-8.8784200">
        <ele>8.4</ele>
        <time>2021-05-18T16:35:00Z</time>
      </trkpt>
      <trkpt lat="41.8951310" lon="-8.8784200">
        <ele>8.4</ele>
        <time>2021-05-18T16:35:01Z</time>
      </trkpt>
      <trkpt lat="41.8951310" lon="-8.8784190">
        <ele>8.4</ele>
        <time>2021-05-18T16:35:02Z</time>
      </trkpt>
      <trkpt lat="41.8951310" lon="-8.8784190">
        <ele>8.4</ele>
        <time>2021-05-18T16:35:03Z</time>
      </trkpt>
      <trkpt lat="41.8951310" lon="-8.8784190">
        <ele>8.4</ele>
        <time>2021-05-18T16:35:04Z</time>
      </trkpt>
      <trkpt lat="41.8951310" lon="-8.8784190">
        <ele>8.4</ele>
        <time>2021-05-18T16:35:05Z</time>
      </trkpt>
      <trkpt lat="41.8951310" lon="-8.8784190">
        <ele>8.4</ele>
        <time>2021-05-18T16:35:06Z</time>
      </trkpt>
      <trkpt lat="41.8951310" lon="-8.8784190">
        <ele>8.4</ele>
        <time>2021-05-18T16:35:07Z</time>
      </trkpt>
      <trkpt lat="41.8951310" lon="-8.8784190">
        <ele>8.4</ele>
        <time>2021-05-18T16:35:08Z</time>
      </trkpt>
      <trkpt lat="41.8951310" lon="-8.8784190">
        <ele>8.4</ele>
        <time>2021-05-18T16:35:09Z</time>
      </trkpt>
      <trkpt lat="41.8951320" lon="-8.8784190">
        <ele>8.4</ele>
        <time>2021-05-18T16:35:10Z</time>
      </trkpt>
      <trkpt lat="41.8951320" lon="-8.8784190">
        <ele>8.4</ele>
        <time>2021-05-18T16:35:11Z</time>
      </trkpt>
      <trkpt lat="41.8951320" lon="-8.8784180">
        <ele>8.4</ele>
        <time>2021-05-18T16:35:12Z</time>
      </trkpt>
      <trkpt lat="41.8951320" lon="-8.8784180">
        <ele>8.4</ele>
        <time>2021-05-18T16:35:13Z</time>
      </trkpt>
      <trkpt lat="41.8951320" lon="-8.8784180">
        <ele>8.4</ele>
        <time>2021-05-18T16:35:14Z</time>
      </trkpt>
      <trkpt lat="41.8951320" lon="-8.8784180">
        <ele>8.4</ele>
        <time>2021-05-18T16:35:15Z</time>
      </trkpt>
      <trkpt lat="41.8951320" lon="-8.8784180">
        <ele>8.4</ele>
        <time>2021-05-18T16:35:16Z</time>
      </trkpt>
      <trkpt lat="41.8951320" lon="-8.8784180">
        <ele>8.4</ele>
        <time>2021-05-18T16:35:17Z</time>
      </trkpt>
      <trkpt lat="41.8951320" lon="-8.8784180">
        <ele>8.4</ele>
        <time>2021-05-18T16:35:18Z</time>
      </trkpt>
      <trkpt lat="41.8951320" lon="-8.8784180">
        <ele>8.4</ele>
        <time>2021-05-18T16:35:19Z</time>
      </trkpt>
      <trkpt lat="41.8951320" lon="-8.8784180">
        <ele>8.4</ele>
        <time>2021-05-18T16:35:20Z</time>
      </trkpt>
      <trkpt lat="41.8951320" lon="-8.8784180">
        <ele>8.4</ele>
        <time>2021-05-18T16:35:21Z</time>
      </trkpt>
      <trkpt lat="41.8951320" lon="-8.8784180">
        <ele>8.4</ele>
        <time>2021-05-18T16:35:22Z</time>
      </trkpt>
      <trkpt lat="41.8951320" lon="-8.8784170">
        <ele>8.4</ele>
        <time>2021-05-18T16:35:23Z</time>
      </trkpt>
      <trkpt lat="41.8951320" lon="-8.8784170">
        <ele>8.4</ele>
        <time>2021-05-18T16:35:24Z</time>
      </trkpt>
      <trkpt lat="41.8951320" lon="-8.8784170">
        <ele>8.4</ele>
        <time>2021-05-18T16:35:25Z</time>
      </trkpt>
      <trkpt lat="41.8951320" lon="-8.8784170">
        <ele>8.4</ele>
        <time>2021-05-18T16:35:26Z</time>
      </trkpt>
      <trkpt lat="41.8951320" lon="-8.8784170">
        <ele>8.4</ele>
        <time>2021-05-18T16:35:27Z</time>
      </trkpt>
      <trkpt lat="41.8951330" lon="-8.8784170">
        <ele>8.4</ele>
        <time>2021-05-18T16:35:28Z</time>
      </trkpt>
      <trkpt lat="41.8951330" lon="-8.8784170">
        <ele>8.4</ele>
        <time>2021-05-18T16:35:29Z</time>
      </trkpt>
      <trkpt lat="41.8951330" lon="-8.8784170">
        <ele>8.4</ele>
        <time>2021-05-18T16:35:30Z</time>
      </trkpt>
      <trkpt lat="41.8951330" lon="-8.8784170">
        <ele>8.4</ele>
        <time>2021-05-18T16:35:31Z</time>
      </trkpt>
      <trkpt lat="41.8951330" lon="-8.8784170">
        <ele>8.4</ele>
        <time>2021-05-18T16:35:32Z</time>
      </trkpt>
      <trkpt lat="41.8951330" lon="-8.8784160">
        <ele>8.4</ele>
        <time>2021-05-18T16:35:33Z</time>
      </trkpt>
      <trkpt lat="41.8951330" lon="-8.8784160">
        <ele>8.4</ele>
        <time>2021-05-18T16:35:34Z</time>
      </trkpt>
      <trkpt lat="41.8951330" lon="-8.8784160">
        <ele>8.4</ele>
        <time>2021-05-18T16:35:35Z</time>
      </trkpt>
      <trkpt lat="41.8951330" lon="-8.8784160">
        <ele>8.4</ele>
        <time>2021-05-18T16:35:36Z</time>
      </trkpt>
      <trkpt lat="41.8951330" lon="-8.8784160">
        <ele>8.4</ele>
        <time>2021-05-18T16:35:37Z</time>
      </trkpt>
      <trkpt lat="41.8951330" lon="-8.8784160">
        <ele>8.4</ele>
        <time>2021-05-18T16:35:38Z</time>
      </trkpt>
      <trkpt lat="41.8951330" lon="-8.8784160">
        <ele>8.4</ele>
        <time>2021-05-18T16:35:39Z</time>
      </trkpt>
      <trkpt lat="41.8951330" lon="-8.8784160">
        <ele>8.4</ele>
        <time>2021-05-18T16:35:40Z</time>
      </trkpt>
      <trkpt lat="41.8951330" lon="-8.8784160">
        <ele>8.4</ele>
        <time>2021-05-18T16:35:41Z</time>
      </trkpt>
      <trkpt lat="41.8951330" lon="-8.8784160">
        <ele>8.4</ele>
        <time>2021-05-18T16:35:42Z</time>
      </trkpt>
      <trkpt lat="41.8951330" lon="-8.8784150">
        <ele>8.4</ele>
        <time>2021-05-18T16:35:43Z</time>
      </trkpt>
      <trkpt lat="41.8951330" lon="-8.8784150">
        <ele>8.4</ele>
        <time>2021-05-18T16:35:44Z</time>
      </trkpt>
      <trkpt lat="41.8951330" lon="-8.8784150">
        <ele>8.4</ele>
        <time>2021-05-18T16:35:45Z</time>
      </trkpt>
      <trkpt lat="41.8951340" lon="-8.8784150">
        <ele>8.4</ele>
        <time>2021-05-18T16:35:46Z</time>
      </trkpt>
      <trkpt lat="41.8951340" lon="-8.8784150">
        <ele>8.4</ele>
        <time>2021-05-18T16:35:47Z</time>
      </trkpt>
      <trkpt lat="41.8951340" lon="-8.8784150">
        <ele>8.4</ele>
        <time>2021-05-18T16:35:48Z</time>
      </trkpt>
      <trkpt lat="41.8951340" lon="-8.8784150">
        <ele>8.4</ele>
        <time>2021-05-18T16:35:49Z</time>
      </trkpt>
      <trkpt lat="41.8951340" lon="-8.8784150">
        <ele>8.4</ele>
        <time>2021-05-18T16:35:50Z</time>
      </trkpt>
      <trkpt lat="41.8951340" lon="-8.8784150">
        <ele>8.4</ele>
        <time>2021-05-18T16:35:51Z</time>
      </trkpt>
      <trkpt lat="41.8951340" lon="-8.8784150">
        <ele>8.4</ele>
        <time>2021-05-18T16:35:52Z</time>
      </trkpt>
      <trkpt lat="41.8951340" lon="-8.8784150">
        <ele>8.4</ele>
        <time>2021-05-18T16:35:53Z</time>
      </trkpt>
      <trkpt lat="41.8951340" lon="-8.8784140">
        <ele>8.4</ele>
        <time>2021-05-18T16:35:54Z</time>
      </trkpt>
      <trkpt lat="41.8951340" lon="-8.8784140">
        <ele>8.4</ele>
        <time>2021-05-18T16:35:55Z</time>
      </trkpt>
      <trkpt lat="41.8951340" lon="-8.8784140">
        <ele>8.4</ele>
        <time>2021-05-18T16:35:56Z</time>
      </trkpt>
      <trkpt lat="41.8951340" lon="-8.8784140">
        <ele>8.4</ele>
        <time>2021-05-18T16:35:57Z</time>
      </trkpt>
      <trkpt lat="41.8951340" lon="-8.8784140">
        <ele>8.4</ele>
        <time>2021-05-18T16:35:58Z</time>
      </trkpt>
      <trkpt lat="41.8951340" lon="-8.8784140">
        <ele>8.4</ele>
        <time>2021-05-18T16:35:59Z</time>
      </trkpt>
      <trkpt lat="41.8951340" lon="-8.8784140">
        <ele>8.4</ele>
        <time>2021-05-18T16:36:00Z</time>
      </trkpt>
      <trkpt lat="41.8951340" lon="-8.8784140">
        <ele>8.4</ele>
        <time>2021-05-18T16:36:01Z</time>
      </trkpt>
      <trkpt lat="41.8951340" lon="-8.8784140">
        <ele>8.4</ele>
        <time>2021-05-18T16:36:02Z</time>
      </trkpt>
      <trkpt lat="41.8951340" lon="-8.8784140">
        <ele>8.4</ele>
        <time>2021-05-18T16:36:03Z</time>
      </trkpt>
      <trkpt lat="41.8951340" lon="-8.8784130">
        <ele>8.4</ele>
        <time>2021-05-18T16:36:04Z</time>
      </trkpt>
      <trkpt lat="41.8951350" lon="-8.8784130">
        <ele>8.4</ele>
        <time>2021-05-18T16:36:05Z</time>
      </trkpt>
      <trkpt lat="41.8951350" lon="-8.8784130">
        <ele>8.4</ele>
        <time>2021-05-18T16:36:06Z</time>
      </trkpt>
      <trkpt lat="41.8951350" lon="-8.8784130">
        <ele>8.4</ele>
        <time>2021-05-18T16:36:07Z</time>
      </trkpt>
      <trkpt lat="41.8951350" lon="-8.8784130">
        <ele>8.4</ele>
        <time>2021-05-18T16:36:08Z</time>
      </trkpt>
      <trkpt lat="41.8951350" lon="-8.8784130">
        <ele>8.4</ele>
        <time>2021-05-18T16:36:09Z</time>
      </trkpt>
      <trkpt lat="41.8951350" lon="-8.8784130">
        <ele>8.4</ele>
        <time>2021-05-18T16:36:10Z</time>
      </trkpt>
      <trkpt lat="41.8951350" lon="-8.8784130">
        <ele>8.4</ele>
        <time>2021-05-18T16:36:11Z</time>
      </trkpt>
      <trkpt lat="41.8951350" lon="-8.8784130">
        <ele>8.4</ele>
        <time>2021-05-18T16:36:12Z</time>
      </trkpt>
      <trkpt lat="41.8951350" lon="-8.8784130">
        <ele>8.4</ele>
        <time>2021-05-18T16:36:13Z</time>
      </trkpt>
      <trkpt lat="41.8951350" lon="-8.8784120">
        <ele>8.4</ele>
        <time>2021-05-18T16:36:14Z</time>
      </trkpt>
      <trkpt lat="41.8951350" lon="-8.8784120">
        <ele>8.4</ele>
        <time>2021-05-18T16:36:15Z</time>
      </trkpt>
      <trkpt lat="41.8951350" lon="-8.8784120">
        <ele>8.4</ele>
        <time>2021-05-18T16:36:16Z</time>
      </trkpt>
      <trkpt lat="41.8951350" lon="-8.8784120">
        <ele>8.4</ele>
        <time>2021-05-18T16:36:17Z</time>
      </trkpt>
      <trkpt lat="41.8951350" lon="-8.8784120">
        <ele>8.4</ele>
        <time>2021-05-18T16:36:18Z</time>
      </trkpt>
      <trkpt lat="41.8951350" lon="-8.8784120">
        <ele>8.4</ele>
        <time>2021-05-18T16:36:19Z</time>
      </trkpt>
      <trkpt lat="41.8951350" lon="-8.8784120">
        <ele>8.4</ele>
        <time>2021-05-18T16:36:20Z</time>
      </trkpt>
      <trkpt lat="41.8951350" lon="-8.8784120">
        <ele>8.4</ele>
        <time>2021-05-18T16:36:21Z</time>
      </trkpt>
      <trkpt lat="41.8951350" lon="-8.8784120">
        <ele>8.4</ele>
        <time>2021-05-18T16:36:22Z</time>
      </trkpt>
      <trkpt lat="41.8951360" lon="-8.8784120">
        <ele>8.4</ele>
        <time>2021-05-18T16:36:23Z</time>
      </trkpt>
      <trkpt lat="41.8951360" lon="-8.8784110">
        <ele>8.4</ele>
        <time>2021-05-18T16:36:24Z</time>
      </trkpt>
      <trkpt lat="41.8951360" lon="-8.8784110">
        <ele>8.4</ele>
        <time>2021-05-18T16:36:25Z</time>
      </trkpt>
      <trkpt lat="41.8951360" lon="-8.8784110">
        <ele>8.4</ele>
        <time>2021-05-18T16:36:26Z</time>
      </trkpt>
      <trkpt lat="41.8951360" lon="-8.8784110">
        <ele>8.4</ele>
        <time>2021-05-18T16:36:27Z</time>
      </trkpt>
      <trkpt lat="41.8951360" lon="-8.8784110">
        <ele>8.4</ele>
        <time>2021-05-18T16:36:28Z</time>
      </trkpt>
      <trkpt lat="41.8951360" lon="-8.8784110">
        <ele>8.4</ele>
        <time>2021-05-18T16:36:29Z</time>
      </trkpt>
      <trkpt lat="41.8951360" lon="-8.8784110">
        <ele>8.4</ele>
        <time>2021-05-18T16:36:30Z</time>
      </trkpt>
      <trkpt lat="41.8951360" lon="-8.8784110">
        <ele>8.4</ele>
        <time>2021-05-18T16:36:31Z</time>
      </trkpt>
      <trkpt lat="41.8951360" lon="-8.8784110">
        <ele>8.4</ele>
        <time>2021-05-18T16:36:32Z</time>
      </trkpt>
      <trkpt lat="41.8951360" lon="-8.8784110">
        <ele>8.4</ele>
        <time>2021-05-18T16:36:33Z</time>
      </trkpt>
      <trkpt lat="41.8951360" lon="-8.8784110">
        <ele>8.4</ele>
        <time>2021-05-18T16:36:34Z</time>
      </trkpt>
      <trkpt lat="41.8951360" lon="-8.8784100">
        <ele>8.4</ele>
        <time>2021-05-18T16:36:35Z</time>
      </trkpt>
      <trkpt lat="41.8951360" lon="-8.8784100">
        <ele>8.4</ele>
        <time>2021-05-18T16:36:36Z</time>
      </trkpt>
      <trkpt lat="41.8951360" lon="-8.8784100">
        <ele>8.4</ele>
        <time>2021-05-18T16:36:37Z</time>
      </trkpt>
      <trkpt lat="41.8951360" lon="-8.8784100">
        <ele>8.4</ele>
        <time>2021-05-18T16:36:38Z</time>
      </trkpt>
      <trkpt lat="41.8951360" lon="-8.8784100">
        <ele>8.4</ele>
        <time>2021-05-18T16:36:39Z</time>
      </trkpt>
      <trkpt lat="41.8951360" lon="-8.8784100">
        <ele>8.4</ele>
        <time>2021-05-18T16:36:40Z</time>
      </trkpt>
      <trkpt lat="41.8951370" lon="-8.8784100">
        <ele>8.4</ele>
        <time>2021-05-18T16:36:41Z</time>
      </trkpt>
      <trkpt lat="41.8951370" lon="-8.8784100">
        <ele>8.4</ele>
        <time>2021-05-18T16:36:42Z</time>
      </trkpt>
      <trkpt lat="41.8951370" lon="-8.8784100">
        <ele>8.4</ele>
        <time>2021-05-18T16:36:43Z</time>
      </trkpt>
      <trkpt lat="41.8951370" lon="-8.8784100">
        <ele>8.4</ele>
        <time>2021-05-18T16:36:44Z</time>
      </trkpt>
      <trkpt lat="41.8951370" lon="-8.8784090">
        <ele>8.4</ele>
        <time>2021-05-18T16:36:45Z</time>
      </trkpt>
      <trkpt lat="41.8951370" lon="-8.8784090">
        <ele>8.4</ele>
        <time>2021-05-18T16:36:46Z</time>
      </trkpt>
      <trkpt lat="41.8951370" lon="-8.8784090">
        <ele>8.4</ele>
        <time>2021-05-18T16:36:47Z</time>
      </trkpt>
      <trkpt lat="41.8951370" lon="-8.8784090">
        <ele>8.4</ele>
        <time>2021-05-18T16:36:48Z</time>
      </trkpt>
      <trkpt lat="41.8951370" lon="-8.8784090">
        <ele>8.4</ele>
        <time>2021-05-18T16:36:49Z</time>
      </trkpt>
      <trkpt lat="41.8951370" lon="-8.8784090">
        <ele>8.4</ele>
        <time>2021-05-18T16:36:50Z</time>
      </trkpt>
      <trkpt lat="41.8951370" lon="-8.8784090">
        <ele>8.4</ele>
        <time>2021-05-18T16:36:51Z</time>
      </trkpt>
      <trkpt lat="41.8951370" lon="-8.8784090">
        <ele>8.4</ele>
        <time>2021-05-18T16:36:52Z</time>
      </trkpt>
      <trkpt lat="41.8951370" lon="-8.8784090">
        <ele>8.4</ele>
        <time>2021-05-18T16:36:53Z</time>
      </trkpt>
      <trkpt lat="41.8951370" lon="-8.8784090">
        <ele>8.4</ele>
        <time>2021-05-18T16:36:54Z</time>
      </trkpt>
      <trkpt lat="41.8951370" lon="-8.8784080">
        <ele>8.4</ele>
        <time>2021-05-18T16:36:55Z</time>
      </trkpt>
      <trkpt lat="41.8951370" lon="-8.8784080">
        <ele>8.4</ele>
        <time>2021-05-18T16:36:56Z</time>
      </trkpt>
      <trkpt lat="41.8951370" lon="-8.8784080">
        <ele>8.4</ele>
        <time>2021-05-18T16:36:57Z</time>
      </trkpt>
      <trkpt lat="41.8951370" lon="-8.8784080">
        <ele>8.4</ele>
        <time>2021-05-18T16:36:58Z</time>
      </trkpt>
      <trkpt lat="41.8951370" lon="-8.8784080">
        <ele>8.4</ele>
        <time>2021-05-18T16:36:59Z</time>
      </trkpt>
      <trkpt lat="41.8951380" lon="-8.8784080">
        <ele>8.4</ele>
        <time>2021-05-18T16:37:00Z</time>
      </trkpt>
      <trkpt lat="41.8951380" lon="-8.8784080">
        <ele>8.4</ele>
        <time>2021-05-18T16:37:01Z</time>
      </trkpt>
      <trkpt lat="41.8951380" lon="-8.8784080">
        <ele>8.4</ele>
        <time>2021-05-18T16:37:02Z</time>
      </trkpt>
      <trkpt lat="41.8951380" lon="-8.8784080">
        <ele>8.4</ele>
        <time>2021-05-18T16:37:03Z</time>
      </trkpt>
      <trkpt lat="41.8951380" lon="-8.8784080">
        <ele>8.4</ele>
        <time>2021-05-18T16:37:04Z</time>
      </trkpt>
      <trkpt lat="41.8951380" lon="-8.8784080">
        <ele>8.4</ele>
        <time>2021-05-18T16:37:05Z</time>
      </trkpt>
      <trkpt lat="41.8951380" lon="-8.8784070">
        <ele>8.4</ele>
        <time>2021-05-18T16:37:06Z</time>
      </trkpt>
      <trkpt lat="41.8951380" lon="-8.8784070">
        <ele>8.4</ele>
        <time>2021-05-18T16:37:07Z</time>
      </trkpt>
      <trkpt lat="41.8951380" lon="-8.8784070">
        <ele>8.4</ele>
        <time>2021-05-18T16:37:08Z</time>
      </trkpt>
      <trkpt lat="41.8951380" lon="-8.8784070">
        <ele>8.4</ele>
        <time>2021-05-18T16:37:09Z</time>
      </trkpt>
      <trkpt lat="41.8951380" lon="-8.8784070">
        <ele>8.4</ele>
        <time>2021-05-18T16:37:10Z</time>
      </trkpt>
      <trkpt lat="41.8951380" lon="-8.8784070">
        <ele>8.4</ele>
        <time>2021-05-18T16:37:11Z</time>
      </trkpt>
      <trkpt lat="41.8951380" lon="-8.8784070">
        <ele>8.4</ele>
        <time>2021-05-18T16:37:12Z</time>
      </trkpt>
      <trkpt lat="41.8951380" lon="-8.8784070">
        <ele>8.4</ele>
        <time>2021-05-18T16:37:13Z</time>
      </trkpt>
      <trkpt lat="41.8951380" lon="-8.8784070">
        <ele>8.4</ele>
        <time>2021-05-18T16:37:14Z</time>
      </trkpt>
      <trkpt lat="41.8951380" lon="-8.8784070">
        <ele>8.4</ele>
        <time>2021-05-18T16:37:15Z</time>
      </trkpt>
      <trkpt lat="41.8951380" lon="-8.8784060">
        <ele>8.4</ele>
        <time>2021-05-18T16:37:16Z</time>
      </trkpt>
      <trkpt lat="41.8951380" lon="-8.8784060">
        <ele>8.4</ele>
        <time>2021-05-18T16:37:17Z</time>
      </trkpt>
      <trkpt lat="41.8951390" lon="-8.8784060">
        <ele>8.4</ele>
        <time>2021-05-18T16:37:18Z</time>
      </trkpt>
      <trkpt lat="41.8951390" lon="-8.8784060">
        <ele>8.4</ele>
        <time>2021-05-18T16:37:19Z</time>
      </trkpt>
      <trkpt lat="41.8951390" lon="-8.8784060">
        <ele>8.4</ele>
        <time>2021-05-18T16:37:20Z</time>
      </trkpt>
      <trkpt lat="41.8951390" lon="-8.8784060">
        <ele>8.4</ele>
        <time>2021-05-18T16:37:21Z</time>
      </trkpt>
      <trkpt lat="41.8951390" lon="-8.8784060">
        <ele>8.4</ele>
        <time>2021-05-18T16:37:22Z</time>
      </trkpt>
      <trkpt lat="41.8951390" lon="-8.8784060">
        <ele>8.4</ele>
        <time>2021-05-18T16:37:23Z</time>
      </trkpt>
      <trkpt lat="41.8951390" lon="-8.8784060">
        <ele>8.4</ele>
        <time>2021-05-18T16:37:24Z</time>
      </trkpt>
      <trkpt lat="41.8951390" lon="-8.8784060">
        <ele>8.4</ele>
        <time>2021-05-18T16:37:25Z</time>
      </trkpt>
      <trkpt lat="41.8951390" lon="-8.8784050">
        <ele>8.4</ele>
        <time>2021-05-18T16:37:26Z</time>
      </trkpt>
      <trkpt lat="41.8951390" lon="-8.8784050">
        <ele>8.4</ele>
        <time>2021-05-18T16:37:27Z</time>
      </trkpt>
      <trkpt lat="41.8951390" lon="-8.8784050">
        <ele>8.4</ele>
        <time>2021-05-18T16:37:28Z</time>
      </trkpt>
      <trkpt lat="41.8951390" lon="-8.8784050">
        <ele>8.4</ele>
        <time>2021-05-18T16:37:29Z</time>
      </trkpt>
      <trkpt lat="41.8951390" lon="-8.8784050">
        <ele>8.4</ele>
        <time>2021-05-18T16:37:30Z</time>
      </trkpt>
      <trkpt lat="41.8951390" lon="-8.8784050">
        <ele>8.4</ele>
        <time>2021-05-18T16:37:31Z</time>
      </trkpt>
      <trkpt lat="41.8951390" lon="-8.8784050">
        <ele>8.4</ele>
        <time>2021-05-18T16:37:32Z</time>
      </trkpt>
      <trkpt lat="41.8951390" lon="-8.8784050">
        <ele>8.4</ele>
        <time>2021-05-18T16:37:33Z</time>
      </trkpt>
      <trkpt lat="41.8951390" lon="-8.8784050">
        <ele>8.4</ele>
        <time>2021-05-18T16:37:34Z</time>
      </trkpt>
      <trkpt lat="41.8951390" lon="-8.8784050">
        <ele>8.4</ele>
        <time>2021-05-18T16:37:35Z</time>
      </trkpt>
      <trkpt lat="41.8951400" lon="-8.8784050">
        <ele>8.4</ele>
        <time>2021-05-18T16:37:36Z</time>
      </trkpt>
      <trkpt lat="41.8951400" lon="-8.8784040">
        <ele>8.4</ele>
        <time>2021-05-18T16:37:37Z</time>
      </trkpt>
      <trkpt lat="41.8951400" lon="-8.8784040">
        <ele>8.4</ele>
        <time>2021-05-18T16:37:38Z</time>
      </trkpt>
      <trkpt lat="41.8951400" lon="-8.8784040">
        <ele>8.4</ele>
        <time>2021-05-18T16:37:39Z</time>
      </trkpt>
      <trkpt lat="41.8951400" lon="-8.8784040">
        <ele>8.4</ele>
        <time>2021-05-18T16:37:40Z</time>
      </trkpt>
      <trkpt lat="41.8951400" lon="-8.8784040">
        <ele>8.4</ele>
        <time>2021-05-18T16:37:41Z</time>
      </trkpt>
      <trkpt lat="41.8951400" lon="-8.8784040">
        <ele>8.4</ele>
        <time>2021-05-18T16:37:42Z</time>
      </trkpt>
      <trkpt lat="41.8951400" lon="-8.8784040">
        <ele>8.4</ele>
        <time>2021-05-18T16:37:43Z</time>
      </trkpt>
      <trkpt lat="41.8951400" lon="-8.8784040">
        <ele>8.4</ele>
        <time>2021-05-18T16:37:44Z</time>
      </trkpt>
      <trkpt lat="41.8951400" lon="-8.8784040">
        <ele>8.4</ele>
        <time>2021-05-18T16:37:45Z</time>
      </trkpt>
      <trkpt lat="41.8951400" lon="-8.8784040">
        <ele>8.4</ele>
        <time>2021-05-18T16:37:46Z</time>
      </trkpt>
      <trkpt lat="41.8951400" lon="-8.8784030">
        <ele>8.4</ele>
        <time>2021-05-18T16:37:47Z</time>
      </trkpt>
      <trkpt lat="41.8951400" lon="-8.8784030">
        <ele>8.4</ele>
        <time>2021-05-18T16:37:48Z</time>
      </trkpt>
      <trkpt lat="41.8951400" lon="-8.8784030">
        <ele>8.4</ele>
        <time>2021-05-18T16:37:49Z</time>
      </trkpt>
      <trkpt lat="41.8951400" lon="-8.8784030">
        <ele>8.4</ele>
        <time>2021-05-18T16:37:50Z</time>
      </trkpt>
      <trkpt lat="41.8951400" lon="-8.8784030">
        <ele>8.4</ele>
        <time>2021-05-18T16:37:51Z</time>
      </trkpt>
      <trkpt lat="41.8951400" lon="-8.8784030">
        <ele>8.4</ele>
        <time>2021-05-18T16:37:52Z</time>
      </trkpt>
      <trkpt lat="41.8951400" lon="-8.8784030">
        <ele>8.4</ele>
        <time>2021-05-18T16:37:53Z</time>
      </trkpt>
      <trkpt lat="41.8951400" lon="-8.8784030">
        <ele>8.4</ele>
        <time>2021-05-18T16:37:54Z</time>
      </trkpt>
      <trkpt lat="41.8951410" lon="-8.8784030">
        <ele>8.4</ele>
        <time>2021-05-18T16:37:55Z</time>
      </trkpt>
      <trkpt lat="41.8951410" lon="-8.8784030">
        <ele>8.4</ele>
        <time>2021-05-18T16:37:56Z</time>
      </trkpt>
      <trkpt lat="41.8951410" lon="-8.8784020">
        <ele>8.4</ele>
        <time>2021-05-18T16:37:57Z</time>
      </trkpt>
      <trkpt lat="41.8951410" lon="-8.8784020">
        <ele>8.4</ele>
        <time>2021-05-18T16:37:58Z</time>
      </trkpt>
      <trkpt lat="41.8951410" lon="-8.8784020">
        <ele>8.4</ele>
        <time>2021-05-18T16:37:59Z</time>
      </trkpt>
      <trkpt lat="41.8951410" lon="-8.8784020">
        <ele>8.4</ele>
        <time>2021-05-18T16:38:00Z</time>
      </trkpt>
      <trkpt lat="41.8951410" lon="-8.8784020">
        <ele>8.4</ele>
        <time>2021-05-18T16:38:01Z</time>
      </trkpt>
      <trkpt lat="41.8951410" lon="-8.8784020">
        <ele>8.4</ele>
        <time>2021-05-18T16:38:02Z</time>
      </trkpt>
      <trkpt lat="41.8951410" lon="-8.8784020">
        <ele>8.4</ele>
        <time>2021-05-18T16:38:03Z</time>
      </trkpt>
      <trkpt lat="41.8951410" lon="-8.8784020">
        <ele>8.4</ele>
        <time>2021-05-18T16:38:04Z</time>
      </trkpt>
      <trkpt lat="41.8951410" lon="-8.8784020">
        <ele>8.4</ele>
        <time>2021-05-18T16:38:05Z</time>
      </trkpt>
      <trkpt lat="41.8951410" lon="-8.8784020">
        <ele>8.4</ele>
        <time>2021-05-18T16:38:06Z</time>
      </trkpt>
      <trkpt lat="41.8951410" lon="-8.8784010">
        <ele>8.4</ele>
        <time>2021-05-18T16:38:07Z</time>
      </trkpt>
      <trkpt lat="41.8951410" lon="-8.8784010">
        <ele>8.4</ele>
        <time>2021-05-18T16:38:08Z</time>
      </trkpt>
      <trkpt lat="41.8951410" lon="-8.8784010">
        <ele>8.4</ele>
        <time>2021-05-18T16:38:09Z</time>
      </trkpt>
      <trkpt lat="41.8951410" lon="-8.8784010">
        <ele>8.4</ele>
        <time>2021-05-18T16:38:10Z</time>
      </trkpt>
      <trkpt lat="41.8951410" lon="-8.8784010">
        <ele>8.4</ele>
        <time>2021-05-18T16:38:11Z</time>
      </trkpt>
      <trkpt lat="41.8951410" lon="-8.8784010">
        <ele>8.4</ele>
        <time>2021-05-18T16:38:12Z</time>
      </trkpt>
      <trkpt lat="41.8951420" lon="-8.8784010">
        <ele>8.4</ele>
        <time>2021-05-18T16:38:13Z</time>
      </trkpt>
      <trkpt lat="41.8951420" lon="-8.8784010">
        <ele>8.4</ele>
        <time>2021-05-18T16:38:14Z</time>
      </trkpt>
      <trkpt lat="41.8951420" lon="-8.8784010">
        <ele>8.4</ele>
        <time>2021-05-18T16:38:15Z</time>
      </trkpt>
      <trkpt lat="41.8951420" lon="-8.8784010">
        <ele>8.4</ele>
        <time>2021-05-18T16:38:16Z</time>
      </trkpt>
      <trkpt lat="41.8951420" lon="-8.8784010">
        <ele>8.4</ele>
        <time>2021-05-18T16:38:17Z</time>
      </trkpt>
      <trkpt lat="41.8951420" lon="-8.8784000">
        <ele>8.4</ele>
        <time>2021-05-18T16:38:18Z</time>
      </trkpt>
      <trkpt lat="41.8951420" lon="-8.8784000">
        <ele>8.4</ele>
        <time>2021-05-18T16:38:19Z</time>
      </trkpt>
      <trkpt lat="41.8951420" lon="-8.8784000">
        <ele>8.4</ele>
        <time>2021-05-18T16:38:20Z</time>
      </trkpt>
      <trkpt lat="41.8951420" lon="-8.8784000">
        <ele>8.4</ele>
        <time>2021-05-18T16:38:21Z</time>
      </trkpt>
      <trkpt lat="41.8951420" lon="-8.8784000">
        <ele>8.4</ele>
        <time>2021-05-18T16:38:22Z</time>
      </trkpt>
      <trkpt lat="41.8951420" lon="-8.8784000">
        <ele>8.4</ele>
        <time>2021-05-18T16:38:23Z</time>
      </trkpt>
      <trkpt lat="41.8951420" lon="-8.8784000">
        <ele>8.4</ele>
        <time>2021-05-18T16:38:24Z</time>
      </trkpt>
      <trkpt lat="41.8951420" lon="-8.8784000">
        <ele>8.4</ele>
        <time>2021-05-18T16:38:25Z</time>
      </trkpt>
      <trkpt lat="41.8951420" lon="-8.8784000">
        <ele>8.4</ele>
        <time>2021-05-18T16:38:26Z</time>
      </trkpt>
      <trkpt lat="41.8951420" lon="-8.8784000">
        <ele>8.4</ele>
        <time>2021-05-18T16:38:27Z</time>
      </trkpt>
      <trkpt lat="41.8951420" lon="-8.8783990">
        <ele>8.4</ele>
        <time>2021-05-18T16:38:28Z</time>
      </trkpt>
      <trkpt lat="41.8951420" lon="-8.8783990">
        <ele>8.4</ele>
        <time>2021-05-18T16:38:29Z</time>
      </trkpt>
      <trkpt lat="41.8951420" lon="-8.8783990">
        <ele>8.4</ele>
        <time>2021-05-18T16:38:30Z</time>
      </trkpt>
      <trkpt lat="41.8951420" lon="-8.8783990">
        <ele>8.4</ele>
        <time>2021-05-18T16:38:31Z</time>
      </trkpt>
      <trkpt lat="41.8951430" lon="-8.8783990">
        <ele>8.4</ele>
        <time>2021-05-18T16:38:32Z</time>
      </trkpt>
      <trkpt lat="41.8951430" lon="-8.8783990">
        <ele>8.4</ele>
        <time>2021-05-18T16:38:33Z</time>
      </trkpt>
      <trkpt lat="41.8951430" lon="-8.8783990">
        <ele>8.4</ele>
        <time>2021-05-18T16:38:34Z</time>
      </trkpt>
      <trkpt lat="41.8951430" lon="-8.8783990">
        <ele>8.4</ele>
        <time>2021-05-18T16:38:35Z</time>
      </trkpt>
      <trkpt lat="41.8951430" lon="-8.8783990">
        <ele>8.4</ele>
        <time>2021-05-18T16:38:36Z</time>
      </trkpt>
      <trkpt lat="41.8951430" lon="-8.8783990">
        <ele>8.4</ele>
        <time>2021-05-18T16:38:37Z</time>
      </trkpt>
      <trkpt lat="41.8951430" lon="-8.8783980">
        <ele>8.4</ele>
        <time>2021-05-18T16:38:38Z</time>
      </trkpt>
      <trkpt lat="41.8951430" lon="-8.8783980">
        <ele>8.4</ele>
        <time>2021-05-18T16:38:39Z</time>
      </trkpt>
      <trkpt lat="41.8951430" lon="-8.8783980">
        <ele>8.4</ele>
        <time>2021-05-18T16:38:40Z</time>
      </trkpt>
      <trkpt lat="41.8951430" lon="-8.8783980">
        <ele>8.4</ele>
        <time>2021-05-18T16:38:41Z</time>
      </trkpt>
      <trkpt lat="41.8951430" lon="-8.8783980">
        <ele>8.4</ele>
        <time>2021-05-18T16:38:42Z</time>
      </trkpt>
      <trkpt lat="41.8951430" lon="-8.8783980">
        <ele>8.4</ele>
        <time>2021-05-18T16:38:43Z</time>
      </trkpt>
      <trkpt lat="41.8951430" lon="-8.8783980">
        <ele>8.4</ele>
        <time>2021-05-18T16:38:44Z</time>
      </trkpt>
      <trkpt lat="41.8951430" lon="-8.8783980">
        <ele>8.4</ele>
        <time>2021-05-18T16:38:45Z</time>
      </trkpt>
      <trkpt lat="41.8951430" lon="-8.8783980">
        <ele>8.4</ele>
        <time>2021-05-18T16:38:46Z</time>
      </trkpt>
      <trkpt lat="41.8951430" lon="-8.8783980">
        <ele>8.4</ele>
        <time>2021-05-18T16:38:47Z</time>
      </trkpt>
      <trkpt lat="41.8951430" lon="-8.8783980">
        <ele>8.4</ele>
        <time>2021-05-18T16:38:48Z</time>
      </trkpt>
      <trkpt lat="41.8951430" lon="-8.8783970">
        <ele>8.4</ele>
        <time>2021-05-18T16:38:49Z</time>
      </trkpt>
      <trkpt lat="41.8951440" lon="-8.8783970">
        <ele>8.4</ele>
        <time>2021-05-18T16:38:50Z</time>
      </trkpt>
      <trkpt lat="41.8951440" lon="-8.8783970">
        <ele>8.4</ele>
        <time>2021-05-18T16:38:51Z</time>
      </trkpt>
      <trkpt lat="41.8951440" lon="-8.8783970">
        <ele>8.4</ele>
        <time>2021-05-18T16:38:52Z</time>
      </trkpt>
      <trkpt lat="41.8951440" lon="-8.8783970">
        <ele>8.4</ele>
        <time>2021-05-18T16:38:53Z</time>
      </trkpt>
      <trkpt lat="41.8951440" lon="-8.8783970">
        <ele>8.4</ele>
        <time>2021-05-18T16:38:54Z</time>
      </trkpt>
      <trkpt lat="41.8951440" lon="-8.8783970">
        <ele>8.4</ele>
        <time>2021-05-18T16:38:55Z</time>
      </trkpt>
      <trkpt lat="41.8951440" lon="-8.8783970">
        <ele>8.4</ele>
        <time>2021-05-18T16:38:56Z</time>
      </trkpt>
      <trkpt lat="41.8951440" lon="-8.8783970">
        <ele>8.4</ele>
        <time>2021-05-18T16:38:57Z</time>
      </trkpt>
      <trkpt lat="41.8951440" lon="-8.8783970">
        <ele>8.4</ele>
        <time>2021-05-18T16:38:58Z</time>
      </trkpt>
      <trkpt lat="41.8951440" lon="-8.8783960">
        <ele>8.4</ele>
        <time>2021-05-18T16:38:59Z</time>
      </trkpt>
      <trkpt lat="41.8951440" lon="-8.8783960">
        <ele>8.4</ele>
        <time>2021-05-18T16:39:00Z</time>
      </trkpt>
      <trkpt lat="41.8951440" lon="-8.8783960">
        <ele>8.4</ele>
        <time>2021-05-18T16:39:01Z</time>
      </trkpt>
      <trkpt lat="41.8951440" lon="-8.8783960">
        <ele>8.4</ele>
        <time>2021-05-18T16:39:02Z</time>
      </trkpt>
      <trkpt lat="41.8951440" lon="-8.8783960">
        <ele>8.4</ele>
        <time>2021-05-18T16:39:03Z</time>
      </trkpt>
      <trkpt lat="41.8951440" lon="-8.8783960">
        <ele>8.4</ele>
        <time>2021-05-18T16:39:04Z</time>
      </trkpt>
      <trkpt lat="41.8951440" lon="-8.8783960">
        <ele>8.4</ele>
        <time>2021-05-18T16:39:05Z</time>
      </trkpt>
      <trkpt lat="41.8951440" lon="-8.8783960">
        <ele>8.4</ele>
        <time>2021-05-18T16:39:06Z</time>
      </trkpt>
      <trkpt lat="41.8951440" lon="-8.8783960">
        <ele>8.4</ele>
        <time>2021-05-18T16:39:07Z</time>
      </trkpt>
      <trkpt lat="41.8951450" lon="-8.8783960">
        <ele>8.4</ele>
        <time>2021-05-18T16:39:08Z</time>
      </trkpt>
      <trkpt lat="41.8951450" lon="-8.8783950">
        <ele>8.4</ele>
        <time>2021-05-18T16:39:09Z</time>
      </trkpt>
      <trkpt lat="41.8951450" lon="-8.8783950">
        <ele>8.4</ele>
        <time>2021-05-18T16:39:10Z</time>
      </trkpt>
      <trkpt lat="41.8951450" lon="-8.8783950">
        <ele>8.4</ele>
        <time>2021-05-18T16:39:11Z</time>
      </trkpt>
      <trkpt lat="41.8951450" lon="-8.8783950">
        <ele>8.4</ele>
        <time>2021-05-18T16:39:12Z</time>
      </trkpt>
      <trkpt lat="41.8951450" lon="-8.8783950">
        <ele>8.4</ele>
        <time>2021-05-18T16:39:13Z</time>
      </trkpt>
      <trkpt lat="41.8951450" lon="-8.8783950">
        <ele>8.4</ele>
        <time>2021-05-18T16:39:14Z</time>
      </trkpt>
      <trkpt lat="41.8951450" lon="-8.8783950">
        <ele>8.4</ele>
        <time>2021-05-18T16:39:15Z</time>
      </trkpt>
      <trkpt lat="41.8951450" lon="-8.8783950">
        <ele>8.4</ele>
        <time>2021-05-18T16:39:16Z</time>
      </trkpt>
      <trkpt lat="41.8951450" lon="-8.8783950">
        <ele>8.4</ele>
        <time>2021-05-18T16:39:17Z</time>
      </trkpt>
      <trkpt lat="41.8951450" lon="-8.8783950">
        <ele>8.4</ele>
        <time>2021-05-18T16:39:18Z</time>
      </trkpt>
      <trkpt lat="41.8951450" lon="-8.8783940">
        <ele>8.4</ele>
        <time>2021-05-18T16:39:19Z</time>
      </trkpt>
      <trkpt lat="41.8951450" lon="-8.8783940">
        <ele>8.4</ele>
        <time>2021-05-18T16:39:20Z</time>
      </trkpt>
      <trkpt lat="41.8951450" lon="-8.8783940">
        <ele>8.4</ele>
        <time>2021-05-18T16:39:21Z</time>
      </trkpt>
      <trkpt lat="41.8951450" lon="-8.8783940">
        <ele>8.4</ele>
        <time>2021-05-18T16:39:22Z</time>
      </trkpt>
      <trkpt lat="41.8951450" lon="-8.8783940">
        <ele>8.4</ele>
        <time>2021-05-18T16:39:23Z</time>
      </trkpt>
      <trkpt lat="41.8951450" lon="-8.8783940">
        <ele>8.4</ele>
        <time>2021-05-18T16:39:24Z</time>
      </trkpt>
      <trkpt lat="41.8951450" lon="-8.8783940">
        <ele>8.4</ele>
        <time>2021-05-18T16:39:25Z</time>
      </trkpt>
      <trkpt lat="41.8951450" lon="-8.8783940">
        <ele>8.4</ele>
        <time>2021-05-18T16:39:26Z</time>
      </trkpt>
      <trkpt lat="41.8951460" lon="-8.8783940">
        <ele>8.4</ele>
        <time>2021-05-18T16:39:27Z</time>
      </trkpt>
      <trkpt lat="41.8951460" lon="-8.8783940">
        <ele>8.4</ele>
        <time>2021-05-18T16:39:28Z</time>
      </trkpt>
      <trkpt lat="41.8951460" lon="-8.8783940">
        <ele>8.4</ele>
        <time>2021-05-18T16:39:29Z</time>
      </trkpt>
      <trkpt lat="41.8951460" lon="-8.8783930">
        <ele>8.4</ele>
        <time>2021-05-18T16:39:30Z</time>
      </trkpt>
      <trkpt lat="41.8951460" lon="-8.8783930">
        <ele>8.4</ele>
        <time>2021-05-18T16:39:31Z</time>
      </trkpt>
      <trkpt lat="41.8951460" lon="-8.8783930">
        <ele>8.4</ele>
        <time>2021-05-18T16:39:32Z</time>
      </trkpt>
      <trkpt lat="41.8951460" lon="-8.8783930">
        <ele>8.4</ele>
        <time>2021-05-18T16:39:33Z</time>
      </trkpt>
      <trkpt lat="41.8951460" lon="-8.8783930">
        <ele>8.4</ele>
        <time>2021-05-18T16:39:34Z</time>
      </trkpt>
      <trkpt lat="41.8951460" lon="-8.8783930">
        <ele>8.4</ele>
        <time>2021-05-18T16:39:35Z</time>
      </trkpt>
      <trkpt lat="41.8951460" lon="-8.8783930">
        <ele>8.4</ele>
        <time>2021-05-18T16:39:36Z</time>
      </trkpt>
      <trkpt lat="41.8951460" lon="-8.8783930">
        <ele>8.4</ele>
        <time>2021-05-18T16:39:37Z</time>
      </trkpt>
      <trkpt lat="41.8951460" lon="-8.8783930">
        <ele>8.4</ele>
        <time>2021-05-18T16:39:38Z</time>
      </trkpt>
      <trkpt lat="41.8951460" lon="-8.8783930">
        <ele>8.4</ele>
        <time>2021-05-18T16:39:39Z</time>
      </trkpt>
      <trkpt lat="41.8951460" lon="-8.8783920">
        <ele>8.4</ele>
        <time>2021-05-18T16:39:40Z</time>
      </trkpt>
      <trkpt lat="41.8951460" lon="-8.8783920">
        <ele>8.4</ele>
        <time>2021-05-18T16:39:41Z</time>
      </trkpt>
      <trkpt lat="41.8951460" lon="-8.8783920">
        <ele>8.4</ele>
        <time>2021-05-18T16:39:42Z</time>
      </trkpt>
      <trkpt lat="41.8951460" lon="-8.8783920">
        <ele>8.4</ele>
        <time>2021-05-18T16:39:43Z</time>
      </trkpt>
      <trkpt lat="41.8951460" lon="-8.8783920">
        <ele>8.4</ele>
        <time>2021-05-18T16:39:44Z</time>
      </trkpt>
      <trkpt lat="41.8951470" lon="-8.8783920">
        <ele>8.4</ele>
        <time>2021-05-18T16:39:45Z</time>
      </trkpt>
      <trkpt lat="41.8951470" lon="-8.8783920">
        <ele>8.4</ele>
        <time>2021-05-18T16:39:46Z</time>
      </trkpt>
      <trkpt lat="41.8951470" lon="-8.8783920">
        <ele>8.4</ele>
        <time>2021-05-18T16:39:47Z</time>
      </trkpt>
      <trkpt lat="41.8951470" lon="-8.8783920">
        <ele>8.4</ele>
        <time>2021-05-18T16:39:48Z</time>
      </trkpt>
      <trkpt lat="41.8951470" lon="-8.8783920">
        <ele>8.4</ele>
        <time>2021-05-18T16:39:49Z</time>
      </trkpt>
      <trkpt lat="41.8951470" lon="-8.8783910">
        <ele>8.4</ele>
        <time>2021-05-18T16:39:50Z</time>
      </trkpt>
      <trkpt lat="41.8951470" lon="-8.8783910">
        <ele>8.4</ele>
        <time>2021-05-18T16:39:51Z</time>
      </trkpt>
      <trkpt lat="41.8951470" lon="-8.8783910">
        <ele>8.4</ele>
        <time>2021-05-18T16:39:52Z</time>
      </trkpt>
      <trkpt lat="41.8951470" lon="-8.8783910">
        <ele>8.4</ele>
        <time>2021-05-18T16:39:53Z</time>
      </trkpt>
      <trkpt lat="41.8951470" lon="-8.8783910">
        <ele>8.4</ele>
        <time>2021-05-18T16:39:54Z</time>
      </trkpt>
      <trkpt lat="41.8951470" lon="-8.8783910">
        <ele>8.4</ele>
        <time>2021-05-18T16:39:55Z</time>
      </trkpt>
      <trkpt lat="41.8951470" lon="-8.8783910">
        <ele>8.4</ele>
        <time>2021-05-18T16:39:56Z</time>
      </trkpt>
      <trkpt lat="41.8951470" lon="-8.8783910">
        <ele>8.4</ele>
        <time>2021-05-18T16:39:57Z</time>
      </trkpt>
      <trkpt lat="41.8951470" lon="-8.8783910">
        <ele>8.4</ele>
        <time>2021-05-18T16:39:58Z</time>
      </trkpt>
      <trkpt lat="41.8951470" lon="-8.8783910">
        <ele>8.4</ele>
        <time>2021-05-18T16:39:59Z</time>
      </trkpt>
      <trkpt lat="41.8951470" lon="-8.8783910">
        <ele>8.4</ele>
        <time>2021-05-18T16:40:00Z</time>
      </trkpt>
      <trkpt lat="41.8951470" lon="-8.8783900">
        <ele>8.4</ele>
        <time>2021-05-18T16:40:01Z</time>
      </trkpt>
      <trkpt lat="41.8951470" lon="-8.8783900">
        <ele>8.4</ele>
        <time>2021-05-18T16:40:02Z</time>
      </trkpt>
      <trkpt lat="41.8951480" lon="-8.8783900">
        <ele>8.4</ele>
        <time>2021-05-18T16:40:03Z</time>
      </trkpt>
      <trkpt lat="41.8951480" lon="-8.8783900">
        <ele>8.4</ele>
        <time>2021-05-18T16:40:04Z</time>
      </trkpt>
      <trkpt lat="41.8951480" lon="-8.8783900">
        <ele>8.4</ele>
        <time>2021-05-18T16:40:05Z</time>
      </trkpt>
      <trkpt lat="41.8951480" lon="-8.8783900">
        <ele>8.4</ele>
        <time>2021-05-18T16:40:06Z</time>
      </trkpt>
      <trkpt lat="41.8951480" lon="-8.8783900">
        <ele>8.4</ele>
        <time>2021-05-18T16:40:07Z</time>
      </trkpt>
      <trkpt lat="41.8951480" lon="-8.8783900">
        <ele>8.4</ele>
        <time>2021-05-18T16:40:08Z</time>
      </trkpt>
      <trkpt lat="41.8951480" lon="-8.8783900">
        <ele>8.4</ele>
        <time>2021-05-18T16:40:09Z</time>
      </trkpt>
      <trkpt lat="41.8951480" lon="-8.8783900">
        <ele>8.4</ele>
        <time>2021-05-18T16:40:10Z</time>
      </trkpt>
      <trkpt lat="41.8951480" lon="-8.8783890">
        <ele>8.4</ele>
        <time>2021-05-18T16:40:11Z</time>
      </trkpt>
      <trkpt lat="41.8951480" lon="-8.8783890">
        <ele>8.4</ele>
        <time>2021-05-18T16:40:12Z</time>
      </trkpt>
      <trkpt lat="41.8951480" lon="-8.8783890">
        <ele>8.4</ele>
        <time>2021-05-18T16:40:13Z</time>
      </trkpt>
      <trkpt lat="41.8951480" lon="-8.8783890">
        <ele>8.4</ele>
        <time>2021-05-18T16:40:14Z</time>
      </trkpt>
      <trkpt lat="41.8951480" lon="-8.8783890">
        <ele>8.4</ele>
        <time>2021-05-18T16:40:15Z</time>
      </trkpt>
      <trkpt lat="41.8951480" lon="-8.8783890">
        <ele>8.4</ele>
        <time>2021-05-18T16:40:16Z</time>
      </trkpt>
      <trkpt lat="41.8951480" lon="-8.8783890">
        <ele>8.4</ele>
        <time>2021-05-18T16:40:17Z</time>
      </trkpt>
      <trkpt lat="41.8951480" lon="-8.8783890">
        <ele>8.4</ele>
        <time>2021-05-18T16:40:18Z</time>
      </trkpt>
      <trkpt lat="41.8951480" lon="-8.8783890">
        <ele>8.4</ele>
        <time>2021-05-18T16:40:19Z</time>
      </trkpt>
      <trkpt lat="41.8951480" lon="-8.8783890">
        <ele>8.4</ele>
        <time>2021-05-18T16:40:20Z</time>
      </trkpt>
      <trkpt lat="41.8951480" lon="-8.8783880">
        <ele>8.4</ele>
        <time>2021-05-18T16:40:21Z</time>
      </trkpt>
      <trkpt lat="41.8951490" lon="-8.8783880">
        <ele>8.4</ele>
        <time>2021-05-18T16:40:22Z</time>
      </trkpt>
      <trkpt lat="41.8951490" lon="-8.8783880">
        <ele>8.4</ele>
        <time>2021-05-18T16:40:23Z</time>
      </trkpt>
      <trkpt lat="41.8951490" lon="-8.8783880">
        <ele>8.4</ele>
        <time>2021-05-18T16:40:24Z</time>
      </trkpt>
      <trkpt lat="41.8951490" lon="-8.8783880">
        <ele>8.4</ele>
        <time>2021-05-18T16:40:25Z</time>
      </trkpt>
      <trkpt lat="41.8951490" lon="-8.8783880">
        <ele>8.4</ele>
        <time>2021-05-18T16:40:26Z</time>
      </trkpt>
      <trkpt lat="41.8951490" lon="-8.8783880">
        <ele>8.4</ele>
        <time>2021-05-18T16:40:27Z</time>
      </trkpt>
      <trkpt lat="41.8951490" lon="-8.8783880">
        <ele>8.4</ele>
        <time>2021-05-18T16:40:28Z</time>
      </trkpt>
      <trkpt lat="41.8951490" lon="-8.8783880">
        <ele>8.4</ele>
        <time>2021-05-18T16:40:29Z</time>
      </trkpt>
      <trkpt lat="41.8951490" lon="-8.8783880">
        <ele>8.4</ele>
        <time>2021-05-18T16:40:30Z</time>
      </trkpt>
      <trkpt lat="41.8951490" lon="-8.8783870">
        <ele>8.4</ele>
        <time>2021-05-18T16:40:31Z</time>
      </trkpt>
      <trkpt lat="41.8951490" lon="-8.8783870">
        <ele>8.4</ele>
        <time>2021-05-18T16:40:32Z</time>
      </trkpt>
      <trkpt lat="41.8951490" lon="-8.8783870">
        <ele>8.4</ele>
        <time>2021-05-18T16:40:33Z</time>
      </trkpt>
      <trkpt lat="41.8951490" lon="-8.8783870">
        <ele>8.4</ele>
        <time>2021-05-18T16:40:34Z</time>
      </trkpt>
      <trkpt lat="41.8951490" lon="-8.8783870">
        <ele>8.4</ele>
        <time>2021-05-18T16:40:35Z</time>
      </trkpt>
      <trkpt lat="41.8951490" lon="-8.8783870">
        <ele>8.4</ele>
        <time>2021-05-18T16:40:36Z</time>
      </trkpt>
      <trkpt lat="41.8951490" lon="-8.8783870">
        <ele>8.4</ele>
        <time>2021-05-18T16:40:37Z</time>
      </trkpt>
      <trkpt lat="41.8951490" lon="-8.8783870">
        <ele>8.4</ele>
        <time>2021-05-18T16:40:38Z</time>
      </trkpt>
      <trkpt lat="41.8951490" lon="-8.8783870">
        <ele>8.4</ele>
        <time>2021-05-18T16:40:39Z</time>
      </trkpt>
      <trkpt lat="41.8951500" lon="-8.8783870">
        <ele>8.4</ele>
        <time>2021-05-18T16:40:40Z</time>
      </trkpt>
      <trkpt lat="41.8951500" lon="-8.8783870">
        <ele>8.4</ele>
        <time>2021-05-18T16:40:41Z</time>
      </trkpt>
      <trkpt lat="41.8951500" lon="-8.8783860">
        <ele>8.4</ele>
        <time>2021-05-18T16:40:42Z</time>
      </trkpt>
      <trkpt lat="41.8951500" lon="-8.8783860">
        <ele>8.4</ele>
        <time>2021-05-18T16:40:43Z</time>
      </trkpt>
      <trkpt lat="41.8951500" lon="-8.8783860">
        <ele>8.4</ele>
        <time>2021-05-18T16:40:44Z</time>
      </trkpt>
      <trkpt lat="41.8951500" lon="-8.8783860">
        <ele>8.4</ele>
        <time>2021-05-18T16:40:45Z</time>
      </trkpt>
      <trkpt lat="41.8951500" lon="-8.8783860">
        <ele>8.4</ele>
        <time>2021-05-18T16:40:46Z</time>
      </trkpt>
      <trkpt lat="41.8951500" lon="-8.8783860">
        <ele>8.4</ele>
        <time>2021-05-18T16:40:47Z</time>
      </trkpt>
      <trkpt lat="41.8951500" lon="-8.8783860">
        <ele>8.4</ele>
        <time>2021-05-18T16:40:48Z</time>
      </trkpt>
      <trkpt lat="41.8951500" lon="-8.8783860">
        <ele>8.4</ele>
        <time>2021-05-18T16:40:49Z</time>
      </trkpt>
      <trkpt lat="41.8951500" lon="-8.8783860">
        <ele>8.4</ele>
        <time>2021-05-18T16:40:50Z</time>
      </trkpt>
      <trkpt lat="41.8951500" lon="-8.8783860">
        <ele>8.4</ele>
        <time>2021-05-18T16:40:51Z</time>
      </trkpt>
      <trkpt lat="41.8951500" lon="-8.8783850">
        <ele>8.4</ele>
        <time>2021-05-18T16:40:52Z</time>
      </trkpt>
      <trkpt lat="41.8951500" lon="-8.8783850">
        <ele>8.4</ele>
        <time>2021-05-18T16:40:53Z</time>
      </trkpt>
      <trkpt lat="41.8951500" lon="-8.8783850">
        <ele>8.4</ele>
        <time>2021-05-18T16:40:54Z</time>
      </trkpt>
      <trkpt lat="41.8951500" lon="-8.8783850">
        <ele>8.4</ele>
        <time>2021-05-18T16:40:55Z</time>
      </trkpt>
      <trkpt lat="41.8951500" lon="-8.8783850">
        <ele>8.4</ele>
        <time>2021-05-18T16:40:56Z</time>
      </trkpt>
      <trkpt lat="41.8951500" lon="-8.8783850">
        <ele>8.4</ele>
        <time>2021-05-18T16:40:57Z</time>
      </trkpt>
      <trkpt lat="41.8951510" lon="-8.8783850">
        <ele>8.4</ele>
        <time>2021-05-18T16:40:58Z</time>
      </trkpt>
      <trkpt lat="41.8951510" lon="-8.8783850">
        <ele>8.4</ele>
        <time>2021-05-18T16:40:59Z</time>
      </trkpt>
      <trkpt lat="41.8951510" lon="-8.8783850">
        <ele>8.4</ele>
        <time>2021-05-18T16:41:00Z</time>
      </trkpt>
      <trkpt lat="41.8951510" lon="-8.8783850">
        <ele>8.4</ele>
        <time>2021-05-18T16:41:01Z</time>
      </trkpt>
      <trkpt lat="41.8951510" lon="-8.8783840">
        <ele>8.4</ele>
        <time>2021-05-18T16:41:02Z</time>
      </trkpt>
      <trkpt lat="41.8951510" lon="-8.8783840">
        <ele>8.4</ele>
        <time>2021-05-18T16:41:03Z</time>
      </trkpt>
      <trkpt lat="41.8951510" lon="-8.8783840">
        <ele>8.4</ele>
        <time>2021-05-18T16:41:04Z</time>
      </trkpt>
      <trkpt lat="41.8951510" lon="-8.8783840">
        <ele>8.4</ele>
        <time>2021-05-18T16:41:05Z</time>
      </trkpt>
      <trkpt lat="41.8951510" lon="-8.8783840">
        <ele>8.4</ele>
        <time>2021-05-18T16:41:06Z</time>
      </trkpt>
      <trkpt lat="41.8951510" lon="-8.8783840">
        <ele>8.4</ele>
        <time>2021-05-18T16:41:07Z</time>
      </trkpt>
      <trkpt lat="41.8951540" lon="-8.8783760">
        <ele>8.4</ele>
        <time>2021-05-18T16:41:08Z</time>
      </trkpt>
      <trkpt lat="41.8951540" lon="-8.8783760">
        <ele>8.4</ele>
        <time>2021-05-18T16:41:09Z</time>
      </trkpt>
      <trkpt lat="41.8951550" lon="-8.8783750">
        <ele>8.4</ele>
        <time>2021-05-18T16:41:10Z</time>
      </trkpt>
      <trkpt lat="41.8951550" lon="-8.8783750">
        <ele>8.4</ele>
        <time>2021-05-18T16:41:11Z</time>
      </trkpt>
      <trkpt lat="41.8951560" lon="-8.8783750">
        <ele>8.4</ele>
        <time>2021-05-18T16:41:12Z</time>
      </trkpt>
      <trkpt lat="41.8951570" lon="-8.8783750">
        <ele>8.4</ele>
        <time>2021-05-18T16:41:13Z</time>
      </trkpt>
      <trkpt lat="41.8951570" lon="-8.8783740">
        <ele>8.4</ele>
        <time>2021-05-18T16:41:14Z</time>
      </trkpt>
      <trkpt lat="41.8951580" lon="-8.8783740">
        <ele>8.4</ele>
        <time>2021-05-18T16:41:15Z</time>
      </trkpt>
      <trkpt lat="41.8951580" lon="-8.8783740">
        <ele>8.4</ele>
        <time>2021-05-18T16:41:16Z</time>
      </trkpt>
      <trkpt lat="41.8951590" lon="-8.8783740">
        <ele>8.4</ele>
        <time>2021-05-18T16:41:17Z</time>
      </trkpt>
      <trkpt lat="41.8951600" lon="-8.8783730">
        <ele>8.4</ele>
        <time>2021-05-18T16:41:18Z</time>
      </trkpt>
      <trkpt lat="41.8951600" lon="-8.8783730">
        <ele>8.4</ele>
        <time>2021-05-18T16:41:19Z</time>
      </trkpt>
      <trkpt lat="41.8951610" lon="-8.8783730">
        <ele>8.4</ele>
        <time>2021-05-18T16:41:20Z</time>
      </trkpt>
      <trkpt lat="41.8951610" lon="-8.8783730">
        <ele>8.4</ele>
        <time>2021-05-18T16:41:21Z</time>
      </trkpt>
      <trkpt lat="41.8951620" lon="-8.8783730">
        <ele>8.4</ele>
        <time>2021-05-18T16:41:22Z</time>
      </trkpt>
      <trkpt lat="41.8951630" lon="-8.8783720">
        <ele>8.4</ele>
        <time>2021-05-18T16:41:23Z</time>
      </trkpt>
      <trkpt lat="41.8951630" lon="-8.8783720">
        <ele>8.4</ele>
        <time>2021-05-18T16:41:24Z</time>
      </trkpt>
      <trkpt lat="41.8951640" lon="-8.8783720">
        <ele>8.4</ele>
        <time>2021-05-18T16:41:25Z</time>
      </trkpt>
      <trkpt lat="41.8951640" lon="-8.8783720">
        <ele>8.4</ele>
        <time>2021-05-18T16:41:26Z</time>
      </trkpt>
      <trkpt lat="41.8951650" lon="-8.8783710">
        <ele>8.4</ele>
        <time>2021-05-18T16:41:27Z</time>
      </trkpt>
      <trkpt lat="41.8951660" lon="-8.8783710">
        <ele>8.4</ele>
        <time>2021-05-18T16:41:28Z</time>
      </trkpt>
      <trkpt lat="41.8951660" lon="-8.8783710">
        <ele>8.4</ele>
        <time>2021-05-18T16:41:29Z</time>
      </trkpt>
      <trkpt lat="41.8951670" lon="-8.8783710">
        <ele>8.4</ele>
        <time>2021-05-18T16:41:30Z</time>
      </trkpt>
      <trkpt lat="41.8951670" lon="-8.8783710">
        <ele>8.4</ele>
        <time>2021-05-18T16:41:31Z</time>
      </trkpt>
      <trkpt lat="41.8951680" lon="-8.8783700">
        <ele>8.4</ele>
        <time>2021-05-18T16:41:32Z</time>
      </trkpt>
      <trkpt lat="41.8951690" lon="-8.8783700">
        <ele>8.4</ele>
        <time>2021-05-18T16:41:33Z</time>
      </trkpt>
      <trkpt lat="41.8951690" lon="-8.8783700">
        <ele>8.4</ele>
        <time>2021-05-18T16:41:34Z</time>
      </trkpt>
      <trkpt lat="41.8951700" lon="-8.8783700">
        <ele>8.4</ele>
        <time>2021-05-18T16:41:35Z</time>
      </trkpt>
      <trkpt lat="41.8951700" lon="-8.8783690">
        <ele>8.4</ele>
        <time>2021-05-18T16:41:36Z</time>
      </trkpt>
      <trkpt lat="41.8951710" lon="-8.8783690">
        <ele>8.4</ele>
        <time>2021-05-18T16:41:37Z</time>
      </trkpt>
      <trkpt lat="41.8951710" lon="-8.8783690">
        <ele>8.4</ele>
        <time>2021-05-18T16:41:38Z</time>
      </trkpt>
      <trkpt lat="41.8951720" lon="-8.8783690">
        <ele>8.4</ele>
        <time>2021-05-18T16:41:39Z</time>
      </trkpt>
      <trkpt lat="41.8951730" lon="-8.8783680">
        <ele>8.4</ele>
        <time>2021-05-18T16:41:40Z</time>
      </trkpt>
      <trkpt lat="41.8951730" lon="-8.8783680">
        <ele>8.4</ele>
        <time>2021-05-18T16:41:41Z</time>
      </trkpt>
      <trkpt lat="41.8951740" lon="-8.8783680">
        <ele>8.4</ele>
        <time>2021-05-18T16:41:42Z</time>
      </trkpt>
      <trkpt lat="41.8951740" lon="-8.8783680">
        <ele>8.4</ele>
        <time>2021-05-18T16:41:43Z</time>
      </trkpt>
      <trkpt lat="41.8951750" lon="-8.8783680">
        <ele>8.4</ele>
        <time>2021-05-18T16:41:44Z</time>
      </trkpt>
      <trkpt lat="41.8951760" lon="-8.8783670">
        <ele>8.4</ele>
        <time>2021-05-18T16:41:45Z</time>
      </trkpt>
      <trkpt lat="41.8951760" lon="-8.8783670">
        <ele>8.4</ele>
        <time>2021-05-18T16:41:46Z</time>
      </trkpt>
      <trkpt lat="41.8951770" lon="-8.8783670">
        <ele>8.4</ele>
        <time>2021-05-18T16:41:47Z</time>
      </trkpt>
      <trkpt lat="41.8951770" lon="-8.8783670">
        <ele>8.4</ele>
        <time>2021-05-18T16:41:48Z</time>
      </trkpt>
      <trkpt lat="41.8951780" lon="-8.8783660">
        <ele>8.4</ele>
        <time>2021-05-18T16:41:49Z</time>
      </trkpt>
      <trkpt lat="41.8951790" lon="-8.8783660">
        <ele>8.4</ele>
        <time>2021-05-18T16:41:50Z</time>
      </trkpt>
      <trkpt lat="41.8951790" lon="-8.8783660">
        <ele>8.4</ele>
        <time>2021-05-18T16:41:51Z</time>
      </trkpt>
      <trkpt lat="41.8951800" lon="-8.8783660">
        <ele>8.4</ele>
        <time>2021-05-18T16:41:52Z</time>
      </trkpt>
      <trkpt lat="41.8951800" lon="-8.8783660">
        <ele>8.4</ele>
        <time>2021-05-18T16:41:53Z</time>
      </trkpt>
      <trkpt lat="41.8951810" lon="-8.8783650">
        <ele>8.4</ele>
        <time>2021-05-18T16:41:54Z</time>
      </trkpt>
      <trkpt lat="41.8951820" lon="-8.8783650">
        <ele>8.4</ele>
        <time>2021-05-18T16:41:55Z</time>
      </trkpt>
      <trkpt lat="41.8951820" lon="-8.8783650">
        <ele>8.4</ele>
        <time>2021-05-18T16:41:56Z</time>
      </trkpt>
      <trkpt lat="41.8951830" lon="-8.8783650">
        <ele>8.4</ele>
        <time>2021-05-18T16:41:57Z</time>
      </trkpt>
      <trkpt lat="41.8951830" lon="-8.8783640">
        <ele>8.4</ele>
        <time>2021-05-18T16:41:58Z</time>
      </trkpt>
      <trkpt lat="41.8951840" lon="-8.8783640">
        <ele>8.4</ele>
        <time>2021-05-18T16:41:59Z</time>
      </trkpt>
      <trkpt lat="41.8951850" lon="-8.8783640">
        <ele>8.4</ele>
        <time>2021-05-18T16:42:00Z</time>
      </trkpt>
      <trkpt lat="41.8951850" lon="-8.8783640">
        <ele>8.4</ele>
        <time>2021-05-18T16:42:01Z</time>
      </trkpt>
      <trkpt lat="41.8951860" lon="-8.8783630">
        <ele>8.4</ele>
        <time>2021-05-18T16:42:02Z</time>
      </trkpt>
      <trkpt lat="41.8951860" lon="-8.8783630">
        <ele>8.4</ele>
        <time>2021-05-18T16:42:03Z</time>
      </trkpt>
      <trkpt lat="41.8951870" lon="-8.8783630">
        <ele>8.4</ele>
        <time>2021-05-18T16:42:04Z</time>
      </trkpt>
      <trkpt lat="41.8951970" lon="-8.8783540">
        <ele>8.4</ele>
        <time>2021-05-18T16:42:05Z</time>
      </trkpt>
      <trkpt lat="41.8952090" lon="-8.8783450">
        <ele>8.4</ele>
        <time>2021-05-18T16:42:06Z</time>
      </trkpt>
      <trkpt lat="41.8952150" lon="-8.8783390">
        <ele>8.4</ele>
        <time>2021-05-18T16:42:07Z</time>
      </trkpt>
      <trkpt lat="41.8952290" lon="-8.8783220">
        <ele>8.4</ele>
        <time>2021-05-18T16:42:08Z</time>
      </trkpt>
      <trkpt lat="41.8952380" lon="-8.8783110">
        <ele>8.4</ele>
        <time>2021-05-18T16:42:09Z</time>
      </trkpt>
      <trkpt lat="41.8952480" lon="-8.8783000">
        <ele>8.4</ele>
        <time>2021-05-18T16:42:10Z</time>
      </trkpt>
      <trkpt lat="41.8952580" lon="-8.8782990">
        <ele>8.4</ele>
        <time>2021-05-18T16:42:11Z</time>
      </trkpt>
      <trkpt lat="41.8952710" lon="-8.8782880">
        <ele>8.5</ele>
        <time>2021-05-18T16:42:12Z</time>
      </trkpt>
      <trkpt lat="41.8952730" lon="-8.8782770">
        <ele>8.5</ele>
        <time>2021-05-18T16:42:13Z</time>
      </trkpt>
      <trkpt lat="41.8952770" lon="-8.8782700">
        <ele>8.5</ele>
        <time>2021-05-18T16:42:14Z</time>
      </trkpt>
      <trkpt lat="41.8952820" lon="-8.8782620">
        <ele>8.5</ele>
        <time>2021-05-18T16:42:15Z</time>
      </trkpt>
      <trkpt lat="41.8952970" lon="-8.8782480">
        <ele>8.5</ele>
        <time>2021-05-18T16:42:16Z</time>
      </trkpt>
      <trkpt lat="41.8953040" lon="-8.8782420">
        <ele>8.5</ele>
        <time>2021-05-18T16:42:17Z</time>
      </trkpt>
      <trkpt lat="41.8953120" lon="-8.8782330">
        <ele>8.5</ele>
        <time>2021-05-18T16:42:18Z</time>
      </trkpt>
      <trkpt lat="41.8953210" lon="-8.8782220">
        <ele>8.5</ele>
        <time>2021-05-18T16:42:19Z</time>
      </trkpt>
      <trkpt lat="41.8953370" lon="-8.8782110">
        <ele>8.5</ele>
        <time>2021-05-18T16:42:20Z</time>
      </trkpt>
      <trkpt lat="41.8953420" lon="-8.8782070">
        <ele>8.5</ele>
        <time>2021-05-18T16:42:21Z</time>
      </trkpt>
      <trkpt lat="41.8953480" lon="-8.8782020">
        <ele>8.5</ele>
        <time>2021-05-18T16:42:22Z</time>
      </trkpt>
      <trkpt lat="41.8953530" lon="-8.8781980">
        <ele>8.6</ele>
        <time>2021-05-18T16:42:23Z</time>
      </trkpt>
      <trkpt lat="41.8953640" lon="-8.8781880">
        <ele>8.6</ele>
        <time>2021-05-18T16:42:24Z</time>
      </trkpt>
      <trkpt lat="41.8953700" lon="-8.8781800">
        <ele>8.6</ele>
        <time>2021-05-18T16:42:25Z</time>
      </trkpt>
      <trkpt lat="41.8953720" lon="-8.8781690">
        <ele>8.6</ele>
        <time>2021-05-18T16:42:26Z</time>
      </trkpt>
      <trkpt lat="41.8953900" lon="-8.8781560">
        <ele>8.6</ele>
        <time>2021-05-18T16:42:27Z</time>
      </trkpt>
      <trkpt lat="41.8954030" lon="-8.8781490">
        <ele>8.6</ele>
        <time>2021-05-18T16:42:28Z</time>
      </trkpt>
      <trkpt lat="41.8954130" lon="-8.8781430">
        <ele>8.6</ele>
        <time>2021-05-18T16:42:29Z</time>
      </trkpt>
      <trkpt lat="41.8954300" lon="-8.8781330">
        <ele>8.6</ele>
        <time>2021-05-18T16:42:30Z</time>
      </trkpt>
      <trkpt lat="41.8954340" lon="-8.8781260">
        <ele>8.7</ele>
        <time>2021-05-18T16:42:31Z</time>
      </trkpt>
      <trkpt lat="41.8954440" lon="-8.8781200">
        <ele>8.7</ele>
        <time>2021-05-18T16:42:32Z</time>
      </trkpt>
      <trkpt lat="41.8954500" lon="-8.8781120">
        <ele>8.7</ele>
        <time>2021-05-18T16:42:33Z</time>
      </trkpt>
      <trkpt lat="41.8954570" lon="-8.8781060">
        <ele>8.7</ele>
        <time>2021-05-18T16:42:34Z</time>
      </trkpt>
      <trkpt lat="41.8954790" lon="-8.8780920">
        <ele>8.7</ele>
        <time>2021-05-18T16:42:35Z</time>
      </trkpt>
      <trkpt lat="41.8954830" lon="-8.8780830">
        <ele>8.7</ele>
        <time>2021-05-18T16:42:36Z</time>
      </trkpt>
      <trkpt lat="41.8954970" lon="-8.8780730">
        <ele>8.7</ele>
        <time>2021-05-18T16:42:37Z</time>
      </trkpt>
      <trkpt lat="41.8955140" lon="-8.8780660">
        <ele>8.8</ele>
        <time>2021-05-18T16:42:38Z</time>
      </trkpt>
      <trkpt lat="41.8955210" lon="-8.8780540">
        <ele>8.8</ele>
        <time>2021-05-18T16:42:39Z</time>
      </trkpt>
      <trkpt lat="41.8955280" lon="-8.8780480">
        <ele>8.8</ele>
        <time>2021-05-18T16:42:40Z</time>
      </trkpt>
      <trkpt lat="41.8955400" lon="-8.8780380">
        <ele>8.8</ele>
        <time>2021-05-18T16:42:41Z</time>
      </trkpt>
      <trkpt lat="41.8955530" lon="-8.8780300">
        <ele>8.8</ele>
        <time>2021-05-18T16:42:42Z</time>
      </trkpt>
      <trkpt lat="41.8955620" lon="-8.8780230">
        <ele>8.8</ele>
        <time>2021-05-18T16:42:43Z</time>
      </trkpt>
      <trkpt lat="41.8955710" lon="-8.8780150">
        <ele>8.8</ele>
        <time>2021-05-18T16:42:44Z</time>
      </trkpt>
      <trkpt lat="41.8955860" lon="-8.8780100">
        <ele>8.9</ele>
        <time>2021-05-18T16:42:45Z</time>
      </trkpt>
      <trkpt lat="41.8955960" lon="-8.8780020">
        <ele>8.9</ele>
        <time>2021-05-18T16:42:46Z</time>
      </trkpt>
      <trkpt lat="41.8956040" lon="-8.8779950">
        <ele>8.9</ele>
        <time>2021-05-18T16:42:47Z</time>
      </trkpt>
      <trkpt lat="41.8956270" lon="-8.8779750">
        <ele>8.9</ele>
        <time>2021-05-18T16:42:48Z</time>
      </trkpt>
      <trkpt lat="41.8956380" lon="-8.8779690">
        <ele>8.9</ele>
        <time>2021-05-18T16:42:49Z</time>
      </trkpt>
      <trkpt lat="41.8956450" lon="-8.8779610">
        <ele>8.9</ele>
        <time>2021-05-18T16:42:50Z</time>
      </trkpt>
      <trkpt lat="41.8956540" lon="-8.8779560">
        <ele>9.0</ele>
        <time>2021-05-18T16:42:51Z</time>
      </trkpt>
      <trkpt lat="41.8956620" lon="-8.8779500">
        <ele>9.0</ele>
        <time>2021-05-18T16:42:52Z</time>
      </trkpt>
      <trkpt lat="41.8956710" lon="-8.8779440">
        <ele>9.0</ele>
        <time>2021-05-18T16:42:53Z</time>
      </trkpt>
      <trkpt lat="41.8956930" lon="-8.8779290">
        <ele>9.0</ele>
        <time>2021-05-18T16:42:54Z</time>
      </trkpt>
      <trkpt lat="41.8957000" lon="-8.8779210">
        <ele>9.0</ele>
        <time>2021-05-18T16:42:55Z</time>
      </trkpt>
      <trkpt lat="41.8957080" lon="-8.8779140">
        <ele>9.0</ele>
        <time>2021-05-18T16:42:56Z</time>
      </trkpt>
      <trkpt lat="41.8957220" lon="-8.8778990">
        <ele>9.1</ele>
        <time>2021-05-18T16:42:57Z</time>
      </trkpt>
      <trkpt lat="41.8957310" lon="-8.8778910">
        <ele>9.1</ele>
        <time>2021-05-18T16:42:58Z</time>
      </trkpt>
      <trkpt lat="41.8957390" lon="-8.8778830">
        <ele>9.1</ele>
        <time>2021-05-18T16:42:59Z</time>
      </trkpt>
      <trkpt lat="41.8957610" lon="-8.8778680">
        <ele>9.1</ele>
        <time>2021-05-18T16:43:00Z</time>
      </trkpt>
      <trkpt lat="41.8957690" lon="-8.8778630">
        <ele>9.1</ele>
        <time>2021-05-18T16:43:01Z</time>
      </trkpt>
      <trkpt lat="41.8957780" lon="-8.8778590">
        <ele>9.1</ele>
        <time>2021-05-18T16:43:02Z</time>
      </trkpt>
      <trkpt lat="41.8957940" lon="-8.8778490">
        <ele>9.2</ele>
        <time>2021-05-18T16:43:03Z</time>
      </trkpt>
      <trkpt lat="41.8958030" lon="-8.8778360">
        <ele>9.2</ele>
        <time>2021-05-18T16:43:04Z</time>
      </trkpt>
      <trkpt lat="41.8958230" lon="-8.8778190">
        <ele>9.2</ele>
        <time>2021-05-18T16:43:05Z</time>
      </trkpt>
      <trkpt lat="41.8958310" lon="-8.8778120">
        <ele>9.2</ele>
        <time>2021-05-18T16:43:06Z</time>
      </trkpt>
      <trkpt lat="41.8958380" lon="-8.8778050">
        <ele>9.2</ele>
        <time>2021-05-18T16:43:07Z</time>
      </trkpt>
      <trkpt lat="41.8958540" lon="-8.8777880">
        <ele>9.2</ele>
        <time>2021-05-18T16:43:08Z</time>
      </trkpt>
      <trkpt lat="41.8958610" lon="-8.8777800">
        <ele>9.2</ele>
        <time>2021-05-18T16:43:09Z</time>
      </trkpt>
      <trkpt lat="41.8958690" lon="-8.8777710">
        <ele>9.2</ele>
        <time>2021-05-18T16:43:10Z</time>
      </trkpt>
      <trkpt lat="41.8958890" lon="-8.8777520">
        <ele>9.3</ele>
        <time>2021-05-18T16:43:11Z</time>
      </trkpt>
      <trkpt lat="41.8958970" lon="-8.8777470">
        <ele>9.3</ele>
        <time>2021-05-18T16:43:12Z</time>
      </trkpt>
      <trkpt lat="41.8959050" lon="-8.8777420">
        <ele>9.3</ele>
        <time>2021-05-18T16:43:13Z</time>
      </trkpt>
      <trkpt lat="41.8959150" lon="-8.8777350">
        <ele>9.3</ele>
        <time>2021-05-18T16:43:14Z</time>
      </trkpt>
      <trkpt lat="41.8959330" lon="-8.8777160">
        <ele>9.3</ele>
        <time>2021-05-18T16:43:15Z</time>
      </trkpt>
      <trkpt lat="41.8959390" lon="-8.8777070">
        <ele>9.3</ele>
        <time>2021-05-18T16:43:16Z</time>
      </trkpt>
      <trkpt lat="41.8959460" lon="-8.8776990">
        <ele>9.3</ele>
        <time>2021-05-18T16:43:17Z</time>
      </trkpt>
      <trkpt lat="41.8959540" lon="-8.8776900">
        <ele>9.3</ele>
        <time>2021-05-18T16:43:18Z</time>
      </trkpt>
      <trkpt lat="41.8959610" lon="-8.8776820">
        <ele>9.3</ele>
        <time>2021-05-18T16:43:19Z</time>
      </trkpt>
      <trkpt lat="41.8959700" lon="-8.8776710">
        <ele>9.3</ele>
        <time>2021-05-18T16:43:20Z</time>
      </trkpt>
      <trkpt lat="41.8959790" lon="-8.8776550">
        <ele>9.3</ele>
        <time>2021-05-18T16:43:21Z</time>
      </trkpt>
      <trkpt lat="41.8959820" lon="-8.8776430">
        <ele>9.3</ele>
        <time>2021-05-18T16:43:22Z</time>
      </trkpt>
      <trkpt lat="41.8959920" lon="-8.8776300">
        <ele>9.3</ele>
        <time>2021-05-18T16:43:23Z</time>
      </trkpt>
      <trkpt lat="41.8960010" lon="-8.8776240">
        <ele>9.3</ele>
        <time>2021-05-18T16:43:24Z</time>
      </trkpt>
      <trkpt lat="41.8960130" lon="-8.8776060">
        <ele>9.4</ele>
        <time>2021-05-18T16:43:25Z</time>
      </trkpt>
      <trkpt lat="41.8960220" lon="-8.8775970">
        <ele>9.4</ele>
        <time>2021-05-18T16:43:26Z</time>
      </trkpt>
      <trkpt lat="41.8960300" lon="-8.8775890">
        <ele>9.4</ele>
        <time>2021-05-18T16:43:27Z</time>
      </trkpt>
      <trkpt lat="41.8960440" lon="-8.8775740">
        <ele>9.4</ele>
        <time>2021-05-18T16:43:28Z</time>
      </trkpt>
      <trkpt lat="41.8960520" lon="-8.8775650">
        <ele>9.4</ele>
        <time>2021-05-18T16:43:29Z</time>
      </trkpt>
      <trkpt lat="41.8960650" lon="-8.8775490">
        <ele>9.4</ele>
        <time>2021-05-18T16:43:30Z</time>
      </trkpt>
      <trkpt lat="41.8960740" lon="-8.8775360">
        <ele>9.4</ele>
        <time>2021-05-18T16:43:31Z</time>
      </trkpt>
      <trkpt lat="41.8960870" lon="-8.8775230">
        <ele>9.4</ele>
        <time>2021-05-18T16:43:32Z</time>
      </trkpt>
      <trkpt lat="41.8960940" lon="-8.8775180">
        <ele>9.4</ele>
        <time>2021-05-18T16:43:33Z</time>
      </trkpt>
      <trkpt lat="41.8961000" lon="-8.8775120">
        <ele>9.5</ele>
        <time>2021-05-18T16:43:34Z</time>
      </trkpt>
      <trkpt lat="41.8961070" lon="-8.8775060">
        <ele>9.5</ele>
        <time>2021-05-18T16:43:35Z</time>
      </trkpt>
      <trkpt lat="41.8961130" lon="-8.8774940">
        <ele>9.5</ele>
        <time>2021-05-18T16:43:36Z</time>
      </trkpt>
      <trkpt lat="41.8961160" lon="-8.8774890">
        <ele>9.5</ele>
        <time>2021-05-18T16:43:37Z</time>
      </trkpt>
      <trkpt lat="41.8961300" lon="-8.8774710">
        <ele>9.5</ele>
        <time>2021-05-18T16:43:38Z</time>
      </trkpt>
      <trkpt lat="41.8961330" lon="-8.8774600">
        <ele>9.5</ele>
        <time>2021-05-18T16:43:39Z</time>
      </trkpt>
      <trkpt lat="41.8961390" lon="-8.8774470">
        <ele>9.5</ele>
        <time>2021-05-18T16:43:40Z</time>
      </trkpt>
      <trkpt lat="41.8961430" lon="-8.8774450">
        <ele>9.5</ele>
        <time>2021-05-18T16:43:41Z</time>
      </trkpt>
      <trkpt lat="41.8961540" lon="-8.8774410">
        <ele>9.5</ele>
        <time>2021-05-18T16:43:42Z</time>
      </trkpt>
      <trkpt lat="41.8961650" lon="-8.8774350">
        <ele>9.5</ele>
        <time>2021-05-18T16:43:43Z</time>
      </trkpt>
      <trkpt lat="41.8961740" lon="-8.8774260">
        <ele>9.5</ele>
        <time>2021-05-18T16:43:44Z</time>
      </trkpt>
      <trkpt lat="41.8961840" lon="-8.8774160">
        <ele>9.6</ele>
        <time>2021-05-18T16:43:45Z</time>
      </trkpt>
      <trkpt lat="41.8961980" lon="-8.8774020">
        <ele>9.6</ele>
        <time>2021-05-18T16:43:46Z</time>
      </trkpt>
      <trkpt lat="41.8962060" lon="-8.8773930">
        <ele>9.6</ele>
        <time>2021-05-18T16:43:47Z</time>
      </trkpt>
      <trkpt lat="41.8962260" lon="-8.8773740">
        <ele>9.6</ele>
        <time>2021-05-18T16:43:48Z</time>
      </trkpt>
      <trkpt lat="41.8962360" lon="-8.8773680">
        <ele>9.6</ele>
        <time>2021-05-18T16:43:49Z</time>
      </trkpt>
      <trkpt lat="41.8962450" lon="-8.8773610">
        <ele>9.6</ele>
        <time>2021-05-18T16:43:50Z</time>
      </trkpt>
      <trkpt lat="41.8962470" lon="-8.8773500">
        <ele>9.6</ele>
        <time>2021-05-18T16:43:51Z</time>
      </trkpt>
      <trkpt lat="41.8962560" lon="-8.8773360">
        <ele>9.6</ele>
        <time>2021-05-18T16:43:52Z</time>
      </trkpt>
      <trkpt lat="41.8962700" lon="-8.8773260">
        <ele>9.6</ele>
        <time>2021-05-18T16:43:53Z</time>
      </trkpt>
      <trkpt lat="41.8962750" lon="-8.8773170">
        <ele>9.6</ele>
        <time>2021-05-18T16:43:54Z</time>
      </trkpt>
      <trkpt lat="41.8962780" lon="-8.8773050">
        <ele>9.6</ele>
        <time>2021-05-18T16:43:55Z</time>
      </trkpt>
      <trkpt lat="41.8962870" lon="-8.8773000">
        <ele>9.6</ele>
        <time>2021-05-18T16:43:56Z</time>
      </trkpt>
      <trkpt lat="41.8962870" lon="-8.8772950">
        <ele>9.6</ele>
        <time>2021-05-18T16:43:57Z</time>
      </trkpt>
      <trkpt lat="41.8962980" lon="-8.8772890">
        <ele>9.6</ele>
        <time>2021-05-18T16:43:58Z</time>
      </trkpt>
      <trkpt lat="41.8963060" lon="-8.8772760">
        <ele>9.7</ele>
        <time>2021-05-18T16:43:59Z</time>
      </trkpt>
      <trkpt lat="41.8963110" lon="-8.8772690">
        <ele>9.7</ele>
        <time>2021-05-18T16:44:00Z</time>
      </trkpt>
      <trkpt lat="41.8963170" lon="-8.8772610">
        <ele>9.7</ele>
        <time>2021-05-18T16:44:01Z</time>
      </trkpt>
      <trkpt lat="41.8963220" lon="-8.8772490">
        <ele>9.7</ele>
        <time>2021-05-18T16:44:02Z</time>
      </trkpt>
      <trkpt lat="41.8963260" lon="-8.8772450">
        <ele>9.7</ele>
        <time>2021-05-18T16:44:03Z</time>
      </trkpt>
      <trkpt lat="41.8963340" lon="-8.8772320">
        <ele>9.7</ele>
        <time>2021-05-18T16:44:04Z</time>
      </trkpt>
      <trkpt lat="41.8963510" lon="-8.8772270">
        <ele>9.7</ele>
        <time>2021-05-18T16:44:05Z</time>
      </trkpt>
      <trkpt lat="41.8963640" lon="-8.8772120">
        <ele>9.7</ele>
        <time>2021-05-18T16:44:06Z</time>
      </trkpt>
      <trkpt lat="41.8963790" lon="-8.8772000">
        <ele>9.7</ele>
        <time>2021-05-18T16:44:07Z</time>
      </trkpt>
      <trkpt lat="41.8963870" lon="-8.8771860">
        <ele>9.7</ele>
        <time>2021-05-18T16:44:08Z</time>
      </trkpt>
      <trkpt lat="41.8964020" lon="-8.8771850">
        <ele>9.7</ele>
        <time>2021-05-18T16:44:09Z</time>
      </trkpt>
      <trkpt lat="41.8964140" lon="-8.8771740">
        <ele>9.7</ele>
        <time>2021-05-18T16:44:10Z</time>
      </trkpt>
      <trkpt lat="41.8964300" lon="-8.8771650">
        <ele>9.7</ele>
        <time>2021-05-18T16:44:11Z</time>
      </trkpt>
      <trkpt lat="41.8964420" lon="-8.8771510">
        <ele>9.7</ele>
        <time>2021-05-18T16:44:12Z</time>
      </trkpt>
      <trkpt lat="41.8964530" lon="-8.8771400">
        <ele>9.7</ele>
        <time>2021-05-18T16:44:13Z</time>
      </trkpt>
      <trkpt lat="41.8964700" lon="-8.8771240">
        <ele>9.7</ele>
        <time>2021-05-18T16:44:14Z</time>
      </trkpt>
      <trkpt lat="41.8964780" lon="-8.8771160">
        <ele>9.7</ele>
        <time>2021-05-18T16:44:15Z</time>
      </trkpt>
      <trkpt lat="41.8964840" lon="-8.8771040">
        <ele>9.7</ele>
        <time>2021-05-18T16:44:16Z</time>
      </trkpt>
      <trkpt lat="41.8964930" lon="-8.8770900">
        <ele>9.7</ele>
        <time>2021-05-18T16:44:17Z</time>
      </trkpt>
      <trkpt lat="41.8965070" lon="-8.8770700">
        <ele>9.7</ele>
        <time>2021-05-18T16:44:18Z</time>
      </trkpt>
      <trkpt lat="41.8965170" lon="-8.8770640">
        <ele>9.7</ele>
        <time>2021-05-18T16:44:19Z</time>
      </trkpt>
      <trkpt lat="41.8965360" lon="-8.8770550">
        <ele>9.7</ele>
        <time>2021-05-18T16:44:20Z</time>
      </trkpt>
      <trkpt lat="41.8965440" lon="-8.8770500">
        <ele>9.7</ele>
        <time>2021-05-18T16:44:21Z</time>
      </trkpt>
      <trkpt lat="41.8965530" lon="-8.8770450">
        <ele>9.7</ele>
        <time>2021-05-18T16:44:22Z</time>
      </trkpt>
      <trkpt lat="41.8965740" lon="-8.8770320">
        <ele>9.7</ele>
        <time>2021-05-18T16:44:23Z</time>
      </trkpt>
      <trkpt lat="41.8965760" lon="-8.8770230">
        <ele>9.7</ele>
        <time>2021-05-18T16:44:24Z</time>
      </trkpt>
      <trkpt lat="41.8965930" lon="-8.8770090">
        <ele>9.7</ele>
        <time>2021-05-18T16:44:25Z</time>
      </trkpt>
      <trkpt lat="41.8966000" lon="-8.8770000">
        <ele>9.7</ele>
        <time>2021-05-18T16:44:26Z</time>
      </trkpt>
      <trkpt lat="41.8966160" lon="-8.8769940">
        <ele>9.7</ele>
        <time>2021-05-18T16:44:27Z</time>
      </trkpt>
      <trkpt lat="41.8966260" lon="-8.8769850">
        <ele>9.7</ele>
        <time>2021-05-18T16:44:28Z</time>
      </trkpt>
      <trkpt lat="41.8966380" lon="-8.8769750">
        <ele>9.7</ele>
        <time>2021-05-18T16:44:29Z</time>
      </trkpt>
      <trkpt lat="41.8966470" lon="-8.8769660">
        <ele>9.7</ele>
        <time>2021-05-18T16:44:30Z</time>
      </trkpt>
      <trkpt lat="41.8966550" lon="-8.8769570">
        <ele>9.7</ele>
        <time>2021-05-18T16:44:31Z</time>
      </trkpt>
      <trkpt lat="41.8966700" lon="-8.8769440">
        <ele>9.7</ele>
        <time>2021-05-18T16:44:32Z</time>
      </trkpt>
      <trkpt lat="41.8966780" lon="-8.8769340">
        <ele>9.7</ele>
        <time>2021-05-18T16:44:33Z</time>
      </trkpt>
      <trkpt lat="41.8966920" lon="-8.8769220">
        <ele>9.7</ele>
        <time>2021-05-18T16:44:34Z</time>
      </trkpt>
      <trkpt lat="41.8967060" lon="-8.8769080">
        <ele>9.7</ele>
        <time>2021-05-18T16:44:35Z</time>
      </trkpt>
      <trkpt lat="41.8967120" lon="-8.8768990">
        <ele>9.7</ele>
        <time>2021-05-18T16:44:36Z</time>
      </trkpt>
      <trkpt lat="41.8967230" lon="-8.8768870">
        <ele>9.7</ele>
        <time>2021-05-18T16:44:37Z</time>
      </trkpt>
      <trkpt lat="41.8967340" lon="-8.8768790">
        <ele>9.7</ele>
        <time>2021-05-18T16:44:38Z</time>
      </trkpt>
      <trkpt lat="41.8967430" lon="-8.8768640">
        <ele>9.7</ele>
        <time>2021-05-18T16:44:39Z</time>
      </trkpt>
      <trkpt lat="41.8967570" lon="-8.8768550">
        <ele>9.7</ele>
        <time>2021-05-18T16:44:40Z</time>
      </trkpt>
      <trkpt lat="41.8967700" lon="-8.8768470">
        <ele>9.7</ele>
        <time>2021-05-18T16:44:41Z</time>
      </trkpt>
      <trkpt lat="41.8967880" lon="-8.8768370">
        <ele>9.7</ele>
        <time>2021-05-18T16:44:42Z</time>
      </trkpt>
      <trkpt lat="41.8967960" lon="-8.8768280">
        <ele>9.7</ele>
        <time>2021-05-18T16:44:43Z</time>
      </trkpt>
      <trkpt lat="41.8968100" lon="-8.8768140">
        <ele>9.7</ele>
        <time>2021-05-18T16:44:44Z</time>
      </trkpt>
      <trkpt lat="41.8968280" lon="-8.8768040">
        <ele>9.7</ele>
        <time>2021-05-18T16:44:45Z</time>
      </trkpt>
      <trkpt lat="41.8968350" lon="-8.8768030">
        <ele>9.7</ele>
        <time>2021-05-18T16:44:46Z</time>
      </trkpt>
      <trkpt lat="41.8968420" lon="-8.8768010">
        <ele>9.7</ele>
        <time>2021-05-18T16:44:47Z</time>
      </trkpt>
      <trkpt lat="41.8968490" lon="-8.8768000">
        <ele>9.7</ele>
        <time>2021-05-18T16:44:48Z</time>
      </trkpt>
      <trkpt lat="41.8968570" lon="-8.8767840">
        <ele>9.6</ele>
        <time>2021-05-18T16:44:49Z</time>
      </trkpt>
      <trkpt lat="41.8968650" lon="-8.8767730">
        <ele>9.6</ele>
        <time>2021-05-18T16:44:50Z</time>
      </trkpt>
      <trkpt lat="41.8968720" lon="-8.8767630">
        <ele>9.6</ele>
        <time>2021-05-18T16:44:51Z</time>
      </trkpt>
      <trkpt lat="41.8968800" lon="-8.8767520">
        <ele>9.6</ele>
        <time>2021-05-18T16:44:52Z</time>
      </trkpt>
      <trkpt lat="41.8968890" lon="-8.8767200">
        <ele>9.5</ele>
        <time>2021-05-18T16:44:53Z</time>
      </trkpt>
      <trkpt lat="41.8968920" lon="-8.8767120">
        <ele>9.5</ele>
        <time>2021-05-18T16:44:54Z</time>
      </trkpt>
      <trkpt lat="41.8969030" lon="-8.8766950">
        <ele>9.5</ele>
        <time>2021-05-18T16:44:55Z</time>
      </trkpt>
      <trkpt lat="41.8969160" lon="-8.8766840">
        <ele>9.5</ele>
        <time>2021-05-18T16:44:56Z</time>
      </trkpt>
      <trkpt lat="41.8969210" lon="-8.8766790">
        <ele>9.5</ele>
        <time>2021-05-18T16:44:57Z</time>
      </trkpt>
      <trkpt lat="41.8969290" lon="-8.8766730">
        <ele>9.4</ele>
        <time>2021-05-18T16:44:58Z</time>
      </trkpt>
      <trkpt lat="41.8969430" lon="-8.8766660">
        <ele>9.4</ele>
        <time>2021-05-18T16:44:59Z</time>
      </trkpt>
      <trkpt lat="41.8969710" lon="-8.8766680">
        <ele>9.3</ele>
        <time>2021-05-18T16:45:00Z</time>
      </trkpt>
      <trkpt lat="41.8969830" lon="-8.8766720">
        <ele>9.3</ele>
        <time>2021-05-18T16:45:01Z</time>
      </trkpt>
      <trkpt lat="41.8969980" lon="-8.8766740">
        <ele>9.3</ele>
        <time>2021-05-18T16:45:02Z</time>
      </trkpt>
      <trkpt lat="41.8970060" lon="-8.8766720">
        <ele>9.3</ele>
        <time>2021-05-18T16:45:03Z</time>
      </trkpt>
      <trkpt lat="41.8970150" lon="-8.8766690">
        <ele>9.2</ele>
        <time>2021-05-18T16:45:04Z</time>
      </trkpt>
      <trkpt lat="41.8970230" lon="-8.8766670">
        <ele>9.2</ele>
        <time>2021-05-18T16:45:05Z</time>
      </trkpt>
      <trkpt lat="41.8970460" lon="-8.8766590">
        <ele>9.2</ele>
        <time>2021-05-18T16:45:06Z</time>
      </trkpt>
      <trkpt lat="41.8970520" lon="-8.8766560">
        <ele>9.1</ele>
        <time>2021-05-18T16:45:07Z</time>
      </trkpt>
      <trkpt lat="41.8970590" lon="-8.8766530">
        <ele>9.1</ele>
        <time>2021-05-18T16:45:08Z</time>
      </trkpt>
      <trkpt lat="41.8970680" lon="-8.8766440">
        <ele>9.1</ele>
        <time>2021-05-18T16:45:09Z</time>
      </trkpt>
      <trkpt lat="41.8970780" lon="-8.8766360">
        <ele>9.1</ele>
        <time>2021-05-18T16:45:10Z</time>
      </trkpt>
      <trkpt lat="41.8970840" lon="-8.8766300">
        <ele>9.0</ele>
        <time>2021-05-18T16:45:11Z</time>
      </trkpt>
      <trkpt lat="41.8971020" lon="-8.8766100">
        <ele>9.0</ele>
        <time>2021-05-18T16:45:12Z</time>
      </trkpt>
      <trkpt lat="41.8971070" lon="-8.8766020">
        <ele>9.0</ele>
        <time>2021-05-18T16:45:13Z</time>
      </trkpt>
      <trkpt lat="41.8971130" lon="-8.8765950">
        <ele>8.9</ele>
        <time>2021-05-18T16:45:14Z</time>
      </trkpt>
      <trkpt lat="41.8971320" lon="-8.8765840">
        <ele>8.9</ele>
        <time>2021-05-18T16:45:15Z</time>
      </trkpt>
      <trkpt lat="41.8971400" lon="-8.8765790">
        <ele>8.9</ele>
        <time>2021-05-18T16:45:16Z</time>
      </trkpt>
      <trkpt lat="41.8971490" lon="-8.8765730">
        <ele>8.8</ele>
        <time>2021-05-18T16:45:17Z</time>
      </trkpt>
      <trkpt lat="41.8971570" lon="-8.8765620">
        <ele>8.8</ele>
        <time>2021-05-18T16:45:18Z</time>
      </trkpt>
      <trkpt lat="41.8971670" lon="-8.8765560">
        <ele>8.8</ele>
        <time>2021-05-18T16:45:19Z</time>
      </trkpt>
      <trkpt lat="41.8971800" lon="-8.8765510">
        <ele>8.8</ele>
        <time>2021-05-18T16:45:20Z</time>
      </trkpt>
      <trkpt lat="41.8971990" lon="-8.8765360">
        <ele>8.7</ele>
        <time>2021-05-18T16:45:21Z</time>
      </trkpt>
      <trkpt lat="41.8972060" lon="-8.8765320">
        <ele>8.7</ele>
        <time>2021-05-18T16:45:22Z</time>
      </trkpt>
      <trkpt lat="41.8972140" lon="-8.8765270">
        <ele>8.7</ele>
        <time>2021-05-18T16:45:23Z</time>
      </trkpt>
      <trkpt lat="41.8972220" lon="-8.8765200">
        <ele>8.6</ele>
        <time>2021-05-18T16:45:24Z</time>
      </trkpt>
      <trkpt lat="41.8972300" lon="-8.8765130">
        <ele>8.6</ele>
        <time>2021-05-18T16:45:25Z</time>
      </trkpt>
      <trkpt lat="41.8972410" lon="-8.8765040">
        <ele>8.6</ele>
        <time>2021-05-18T16:45:26Z</time>
      </trkpt>
      <trkpt lat="41.8972640" lon="-8.8764930">
        <ele>8.5</ele>
        <time>2021-05-18T16:45:27Z</time>
      </trkpt>
      <trkpt lat="41.8972720" lon="-8.8764900">
        <ele>8.5</ele>
        <time>2021-05-18T16:45:28Z</time>
      </trkpt>
      <trkpt lat="41.8972810" lon="-8.8764860">
        <ele>8.5</ele>
        <time>2021-05-18T16:45:29Z</time>
      </trkpt>
      <trkpt lat="41.8972890" lon="-8.8764800">
        <ele>8.5</ele>
        <time>2021-05-18T16:45:30Z</time>
      </trkpt>
      <trkpt lat="41.8973010" lon="-8.8764700">
        <ele>8.4</ele>
        <time>2021-05-18T16:45:31Z</time>
      </trkpt>
      <trkpt lat="41.8973070" lon="-8.8764630">
        <ele>8.4</ele>
        <time>2021-05-18T16:45:32Z</time>
      </trkpt>
      <trkpt lat="41.8973190" lon="-8.8764580">
        <ele>8.4</ele>
        <time>2021-05-18T16:45:33Z</time>
      </trkpt>
      <trkpt lat="41.8973270" lon="-8.8764500">
        <ele>8.3</ele>
        <time>2021-05-18T16:45:34Z</time>
      </trkpt>
      <trkpt lat="41.8973370" lon="-8.8764460">
        <ele>8.3</ele>
        <time>2021-05-18T16:45:35Z</time>
      </trkpt>
      <trkpt lat="41.8973490" lon="-8.8764340">
        <ele>8.3</ele>
        <time>2021-05-18T16:45:36Z</time>
      </trkpt>
      <trkpt lat="41.8973590" lon="-8.8764280">
        <ele>8.3</ele>
        <time>2021-05-18T16:45:37Z</time>
      </trkpt>
      <trkpt lat="41.8973680" lon="-8.8764210">
        <ele>8.2</ele>
        <time>2021-05-18T16:45:38Z</time>
      </trkpt>
      <trkpt lat="41.8973780" lon="-8.8764110">
        <ele>8.2</ele>
        <time>2021-05-18T16:45:39Z</time>
      </trkpt>
      <trkpt lat="41.8973930" lon="-8.8764050">
        <ele>8.2</ele>
        <time>2021-05-18T16:45:40Z</time>
      </trkpt>
      <trkpt lat="41.8974040" lon="-8.8764000">
        <ele>8.1</ele>
        <time>2021-05-18T16:45:41Z</time>
      </trkpt>
      <trkpt lat="41.8974120" lon="-8.8763900">
        <ele>8.1</ele>
        <time>2021-05-18T16:45:42Z</time>
      </trkpt>
      <trkpt lat="41.8974230" lon="-8.8763830">
        <ele>8.1</ele>
        <time>2021-05-18T16:45:43Z</time>
      </trkpt>
      <trkpt lat="41.8974420" lon="-8.8763670">
        <ele>8.0</ele>
        <time>2021-05-18T16:45:44Z</time>
      </trkpt>
      <trkpt lat="41.8974510" lon="-8.8763610">
        <ele>8.0</ele>
        <time>2021-05-18T16:45:45Z</time>
      </trkpt>
      <trkpt lat="41.8974610" lon="-8.8763540">
        <ele>8.0</ele>
        <time>2021-05-18T16:45:46Z</time>
      </trkpt>
      <trkpt lat="41.8974790" lon="-8.8763440">
        <ele>7.9</ele>
        <time>2021-05-18T16:45:47Z</time>
      </trkpt>
      <trkpt lat="41.8974870" lon="-8.8763350">
        <ele>7.9</ele>
        <time>2021-05-18T16:45:48Z</time>
      </trkpt>
      <trkpt lat="41.8974960" lon="-8.8763240">
        <ele>7.9</ele>
        <time>2021-05-18T16:45:49Z</time>
      </trkpt>
      <trkpt lat="41.8975010" lon="-8.8763190">
        <ele>7.9</ele>
        <time>2021-05-18T16:45:50Z</time>
      </trkpt>
      <trkpt lat="41.8975110" lon="-8.8763090">
        <ele>7.8</ele>
        <time>2021-05-18T16:45:51Z</time>
      </trkpt>
      <trkpt lat="41.8975230" lon="-8.8763020">
        <ele>7.8</ele>
        <time>2021-05-18T16:45:52Z</time>
      </trkpt>
      <trkpt lat="41.8975330" lon="-8.8762930">
        <ele>7.8</ele>
        <time>2021-05-18T16:45:53Z</time>
      </trkpt>
      <trkpt lat="41.8975410" lon="-8.8762820">
        <ele>7.8</ele>
        <time>2021-05-18T16:45:54Z</time>
      </trkpt>
      <trkpt lat="41.8975540" lon="-8.8762710">
        <ele>7.7</ele>
        <time>2021-05-18T16:45:55Z</time>
      </trkpt>
      <trkpt lat="41.8975660" lon="-8.8762620">
        <ele>7.7</ele>
        <time>2021-05-18T16:45:56Z</time>
      </trkpt>
      <trkpt lat="41.8975820" lon="-8.8762540">
        <ele>7.7</ele>
        <time>2021-05-18T16:45:57Z</time>
      </trkpt>
      <trkpt lat="41.8975860" lon="-8.8762510">
        <ele>7.6</ele>
        <time>2021-05-18T16:45:58Z</time>
      </trkpt>
      <trkpt lat="41.8975980" lon="-8.8762420">
        <ele>7.6</ele>
        <time>2021-05-18T16:45:59Z</time>
      </trkpt>
      <trkpt lat="41.8976110" lon="-8.8762330">
        <ele>7.6</ele>
        <time>2021-05-18T16:46:00Z</time>
      </trkpt>
      <trkpt lat="41.8976170" lon="-8.8762250">
        <ele>7.6</ele>
        <time>2021-05-18T16:46:01Z</time>
      </trkpt>
      <trkpt lat="41.8976250" lon="-8.8762170">
        <ele>7.5</ele>
        <time>2021-05-18T16:46:02Z</time>
      </trkpt>
      <trkpt lat="41.8976550" lon="-8.8762070">
        <ele>7.5</ele>
        <time>2021-05-18T16:46:03Z</time>
      </trkpt>
      <trkpt lat="41.8976650" lon="-8.8762030">
        <ele>7.4</ele>
        <time>2021-05-18T16:46:04Z</time>
      </trkpt>
      <trkpt lat="41.8976670" lon="-8.8761950">
        <ele>7.4</ele>
        <time>2021-05-18T16:46:05Z</time>
      </trkpt>
      <trkpt lat="41.8976820" lon="-8.8761890">
        <ele>7.4</ele>
        <time>2021-05-18T16:46:06Z</time>
      </trkpt>
      <trkpt lat="41.8976940" lon="-8.8761840">
        <ele>7.3</ele>
        <time>2021-05-18T16:46:07Z</time>
      </trkpt>
      <trkpt lat="41.8976980" lon="-8.8761760">
        <ele>7.3</ele>
        <time>2021-05-18T16:46:08Z</time>
      </trkpt>
      <trkpt lat="41.8977030" lon="-8.8761730">
        <ele>7.3</ele>
        <time>2021-05-18T16:46:09Z</time>
      </trkpt>
      <trkpt lat="41.8977130" lon="-8.8761690">
        <ele>7.3</ele>
        <time>2021-05-18T16:46:10Z</time>
      </trkpt>
      <trkpt lat="41.8977240" lon="-8.8761630">
        <ele>7.2</ele>
        <time>2021-05-18T16:46:11Z</time>
      </trkpt>
      <trkpt lat="41.8977370" lon="-8.8761580">
        <ele>7.2</ele>
        <time>2021-05-18T16:46:12Z</time>
      </trkpt>
      <trkpt lat="41.8977500" lon="-8.8761530">
        <ele>7.1</ele>
        <time>2021-05-18T16:46:13Z</time>
      </trkpt>
      <trkpt lat="41.8977580" lon="-8.8761470">
        <ele>7.1</ele>
        <time>2021-05-18T16:46:14Z</time>
      </trkpt>
      <trkpt lat="41.8977700" lon="-8.8761390">
        <ele>7.0</ele>
        <time>2021-05-18T16:46:15Z</time>
      </trkpt>
      <trkpt lat="41.8977830" lon="-8.8761250">
        <ele>6.9</ele>
        <time>2021-05-18T16:46:16Z</time>
      </trkpt>
      <trkpt lat="41.8977960" lon="-8.8761200">
        <ele>6.9</ele>
        <time>2021-05-18T16:46:17Z</time>
      </trkpt>
      <trkpt lat="41.8978130" lon="-8.8761070">
        <ele>6.8</ele>
        <time>2021-05-18T16:46:18Z</time>
      </trkpt>
      <trkpt lat="41.8978210" lon="-8.8760920">
        <ele>6.8</ele>
        <time>2021-05-18T16:46:19Z</time>
      </trkpt>
      <trkpt lat="41.8978280" lon="-8.8760760">
        <ele>6.7</ele>
        <time>2021-05-18T16:46:20Z</time>
      </trkpt>
      <trkpt lat="41.8978370" lon="-8.8760640">
        <ele>6.6</ele>
        <time>2021-05-18T16:46:21Z</time>
      </trkpt>
      <trkpt lat="41.8978490" lon="-8.8760550">
        <ele>6.6</ele>
        <time>2021-05-18T16:46:22Z</time>
      </trkpt>
      <trkpt lat="41.8978560" lon="-8.8760480">
        <ele>6.6</ele>
        <time>2021-05-18T16:46:23Z</time>
      </trkpt>
      <trkpt lat="41.8978660" lon="-8.8760480">
        <ele>6.5</ele>
        <time>2021-05-18T16:46:24Z</time>
      </trkpt>
      <trkpt lat="41.8978810" lon="-8.8760380">
        <ele>6.4</ele>
        <time>2021-05-18T16:46:25Z</time>
      </trkpt>
      <trkpt lat="41.8978850" lon="-8.8760320">
        <ele>6.4</ele>
        <time>2021-05-18T16:46:26Z</time>
      </trkpt>
      <trkpt lat="41.8978930" lon="-8.8760250">
        <ele>6.4</ele>
        <time>2021-05-18T16:46:27Z</time>
      </trkpt>
      <trkpt lat="41.8978970" lon="-8.8760180">
        <ele>6.4</ele>
        <time>2021-05-18T16:46:28Z</time>
      </trkpt>
      <trkpt lat="41.8979070" lon="-8.8760110">
        <ele>6.3</ele>
        <time>2021-05-18T16:46:29Z</time>
      </trkpt>
      <trkpt lat="41.8979160" lon="-8.8759980">
        <ele>6.3</ele>
        <time>2021-05-18T16:46:30Z</time>
      </trkpt>
      <trkpt lat="41.8979270" lon="-8.8759890">
        <ele>6.2</ele>
        <time>2021-05-18T16:46:31Z</time>
      </trkpt>
      <trkpt lat="41.8979320" lon="-8.8759800">
        <ele>6.2</ele>
        <time>2021-05-18T16:46:32Z</time>
      </trkpt>
      <trkpt lat="41.8979390" lon="-8.8759710">
        <ele>6.1</ele>
        <time>2021-05-18T16:46:33Z</time>
      </trkpt>
      <trkpt lat="41.8979530" lon="-8.8759640">
        <ele>6.1</ele>
        <time>2021-05-18T16:46:34Z</time>
      </trkpt>
      <trkpt lat="41.8979580" lon="-8.8759540">
        <ele>6.1</ele>
        <time>2021-05-18T16:46:35Z</time>
      </trkpt>
      <trkpt lat="41.8979670" lon="-8.8759420">
        <ele>6.1</ele>
        <time>2021-05-18T16:46:36Z</time>
      </trkpt>
      <trkpt lat="41.8979800" lon="-8.8759320">
        <ele>6.1</ele>
        <time>2021-05-18T16:46:37Z</time>
      </trkpt>
      <trkpt lat="41.8979900" lon="-8.8759210">
        <ele>6.1</ele>
        <time>2021-05-18T16:46:38Z</time>
      </trkpt>
      <trkpt lat="41.8980000" lon="-8.8759150">
        <ele>6.1</ele>
        <time>2021-05-18T16:46:39Z</time>
      </trkpt>
      <trkpt lat="41.8980060" lon="-8.8759080">
        <ele>6.2</ele>
        <time>2021-05-18T16:46:40Z</time>
      </trkpt>
      <trkpt lat="41.8980130" lon="-8.8758830">
        <ele>6.2</ele>
        <time>2021-05-18T16:46:41Z</time>
      </trkpt>
      <trkpt lat="41.8980190" lon="-8.8758720">
        <ele>6.2</ele>
        <time>2021-05-18T16:46:42Z</time>
      </trkpt>
      <trkpt lat="41.8980250" lon="-8.8758620">
        <ele>6.2</ele>
        <time>2021-05-18T16:46:43Z</time>
      </trkpt>
      <trkpt lat="41.8980310" lon="-8.8758440">
        <ele>6.3</ele>
        <time>2021-05-18T16:46:44Z</time>
      </trkpt>
      <trkpt lat="41.8980470" lon="-8.8758300">
        <ele>6.4</ele>
        <time>2021-05-18T16:46:45Z</time>
      </trkpt>
      <trkpt lat="41.8980580" lon="-8.8758130">
        <ele>6.4</ele>
        <time>2021-05-18T16:46:46Z</time>
      </trkpt>
      <trkpt lat="41.8980620" lon="-8.8757960">
        <ele>6.5</ele>
        <time>2021-05-18T16:46:47Z</time>
      </trkpt>
      <trkpt lat="41.8980750" lon="-8.8757800">
        <ele>6.5</ele>
        <time>2021-05-18T16:46:48Z</time>
      </trkpt>
      <trkpt lat="41.8980850" lon="-8.8757590">
        <ele>6.6</ele>
        <time>2021-05-18T16:46:49Z</time>
      </trkpt>
      <trkpt lat="41.8980970" lon="-8.8757480">
        <ele>6.6</ele>
        <time>2021-05-18T16:46:50Z</time>
      </trkpt>
      <trkpt lat="41.8981110" lon="-8.8757370">
        <ele>6.7</ele>
        <time>2021-05-18T16:46:51Z</time>
      </trkpt>
      <trkpt lat="41.8981210" lon="-8.8757270">
        <ele>6.7</ele>
        <time>2021-05-18T16:46:52Z</time>
      </trkpt>
      <trkpt lat="41.8981270" lon="-8.8757170">
        <ele>6.8</ele>
        <time>2021-05-18T16:46:53Z</time>
      </trkpt>
      <trkpt lat="41.8981360" lon="-8.8757080">
        <ele>6.8</ele>
        <time>2021-05-18T16:46:54Z</time>
      </trkpt>
      <trkpt lat="41.8981470" lon="-8.8756930">
        <ele>6.8</ele>
        <time>2021-05-18T16:46:55Z</time>
      </trkpt>
      <trkpt lat="41.8981550" lon="-8.8756810">
        <ele>6.9</ele>
        <time>2021-05-18T16:46:56Z</time>
      </trkpt>
      <trkpt lat="41.8981640" lon="-8.8756690">
        <ele>6.9</ele>
        <time>2021-05-18T16:46:57Z</time>
      </trkpt>
      <trkpt lat="41.8981810" lon="-8.8756550">
        <ele>7.0</ele>
        <time>2021-05-18T16:46:58Z</time>
      </trkpt>
      <trkpt lat="41.8981930" lon="-8.8756470">
        <ele>7.0</ele>
        <time>2021-05-18T16:46:59Z</time>
      </trkpt>
      <trkpt lat="41.8981990" lon="-8.8756420">
        <ele>7.0</ele>
        <time>2021-05-18T16:47:00Z</time>
      </trkpt>
      <trkpt lat="41.8982090" lon="-8.8756290">
        <ele>7.1</ele>
        <time>2021-05-18T16:47:01Z</time>
      </trkpt>
      <trkpt lat="41.8982150" lon="-8.8756130">
        <ele>7.1</ele>
        <time>2021-05-18T16:47:02Z</time>
      </trkpt>
      <trkpt lat="41.8982180" lon="-8.8755930">
        <ele>7.1</ele>
        <time>2021-05-18T16:47:03Z</time>
      </trkpt>
      <trkpt lat="41.8982350" lon="-8.8755680">
        <ele>7.2</ele>
        <time>2021-05-18T16:47:04Z</time>
      </trkpt>
      <trkpt lat="41.8982460" lon="-8.8755600">
        <ele>7.2</ele>
        <time>2021-05-18T16:47:05Z</time>
      </trkpt>
      <trkpt lat="41.8982520" lon="-8.8755430">
        <ele>7.2</ele>
        <time>2021-05-18T16:47:06Z</time>
      </trkpt>
      <trkpt lat="41.8982520" lon="-8.8755320">
        <ele>7.2</ele>
        <time>2021-05-18T16:47:07Z</time>
      </trkpt>
      <trkpt lat="41.8982590" lon="-8.8755200">
        <ele>7.2</ele>
        <time>2021-05-18T16:47:08Z</time>
      </trkpt>
      <trkpt lat="41.8982670" lon="-8.8754950">
        <ele>7.3</ele>
        <time>2021-05-18T16:47:09Z</time>
      </trkpt>
      <trkpt lat="41.8982720" lon="-8.8754840">
        <ele>7.3</ele>
        <time>2021-05-18T16:47:10Z</time>
      </trkpt>
      <trkpt lat="41.8982770" lon="-8.8754740">
        <ele>7.3</ele>
        <time>2021-05-18T16:47:11Z</time>
      </trkpt>
      <trkpt lat="41.8982760" lon="-8.8754590">
        <ele>7.3</ele>
        <time>2021-05-18T16:47:12Z</time>
      </trkpt>
      <trkpt lat="41.8982820" lon="-8.8754450">
        <ele>7.4</ele>
        <time>2021-05-18T16:47:13Z</time>
      </trkpt>
      <trkpt lat="41.8982810" lon="-8.8754300">
        <ele>7.4</ele>
        <time>2021-05-18T16:47:14Z</time>
      </trkpt>
      <trkpt lat="41.8982870" lon="-8.8754120">
        <ele>7.4</ele>
        <time>2021-05-18T16:47:15Z</time>
      </trkpt>
      <trkpt lat="41.8982910" lon="-8.8753950">
        <ele>7.5</ele>
        <time>2021-05-18T16:47:16Z</time>
      </trkpt>
      <trkpt lat="41.8982970" lon="-8.8753790">
        <ele>7.5</ele>
        <time>2021-05-18T16:47:17Z</time>
      </trkpt>
      <trkpt lat="41.8983020" lon="-8.8753600">
        <ele>7.5</ele>
        <time>2021-05-18T16:47:18Z</time>
      </trkpt>
      <trkpt lat="41.8983210" lon="-8.8753310">
        <ele>7.6</ele>
        <time>2021-05-18T16:47:19Z</time>
      </trkpt>
      <trkpt lat="41.8983260" lon="-8.8753200">
        <ele>7.6</ele>
        <time>2021-05-18T16:47:20Z</time>
      </trkpt>
      <trkpt lat="41.8983320" lon="-8.8753100">
        <ele>7.6</ele>
        <time>2021-05-18T16:47:21Z</time>
      </trkpt>
      <trkpt lat="41.8983330" lon="-8.8752950">
        <ele>7.6</ele>
        <time>2021-05-18T16:47:22Z</time>
      </trkpt>
      <trkpt lat="41.8983400" lon="-8.8752860">
        <ele>7.7</ele>
        <time>2021-05-18T16:47:23Z</time>
      </trkpt>
      <trkpt lat="41.8983510" lon="-8.8752700">
        <ele>7.7</ele>
        <time>2021-05-18T16:47:24Z</time>
      </trkpt>
      <trkpt lat="41.8983600" lon="-8.8752420">
        <ele>7.8</ele>
        <time>2021-05-18T16:47:25Z</time>
      </trkpt>
      <trkpt lat="41.8983640" lon="-8.8752310">
        <ele>7.8</ele>
        <time>2021-05-18T16:47:26Z</time>
      </trkpt>
      <trkpt lat="41.8983690" lon="-8.8752210">
        <ele>7.8</ele>
        <time>2021-05-18T16:47:27Z</time>
      </trkpt>
      <trkpt lat="41.8983770" lon="-8.8751970">
        <ele>7.8</ele>
        <time>2021-05-18T16:47:28Z</time>
      </trkpt>
      <trkpt lat="41.8983820" lon="-8.8751860">
        <ele>7.9</ele>
        <time>2021-05-18T16:47:29Z</time>
      </trkpt>
      <trkpt lat="41.8983870" lon="-8.8751750">
        <ele>7.9</ele>
        <time>2021-05-18T16:47:30Z</time>
      </trkpt>
      <trkpt lat="41.8983960" lon="-8.8751610">
        <ele>7.9</ele>
        <time>2021-05-18T16:47:31Z</time>
      </trkpt>
      <trkpt lat="41.8984030" lon="-8.8751430">
        <ele>8.0</ele>
        <time>2021-05-18T16:47:32Z</time>
      </trkpt>
      <trkpt lat="41.8984190" lon="-8.8751140">
        <ele>8.0</ele>
        <time>2021-05-18T16:47:33Z</time>
      </trkpt>
      <trkpt lat="41.8984230" lon="-8.8751000">
        <ele>8.1</ele>
        <time>2021-05-18T16:47:34Z</time>
      </trkpt>
      <trkpt lat="41.8984280" lon="-8.8750860">
        <ele>8.1</ele>
        <time>2021-05-18T16:47:35Z</time>
      </trkpt>
      <trkpt lat="41.8984470" lon="-8.8750520">
        <ele>8.2</ele>
        <time>2021-05-18T16:47:36Z</time>
      </trkpt>
      <trkpt lat="41.8984530" lon="-8.8750350">
        <ele>8.2</ele>
        <time>2021-05-18T16:47:37Z</time>
      </trkpt>
      <trkpt lat="41.8984590" lon="-8.8750190">
        <ele>8.3</ele>
        <time>2021-05-18T16:47:38Z</time>
      </trkpt>
      <trkpt lat="41.8984620" lon="-8.8750010">
        <ele>8.3</ele>
        <time>2021-05-18T16:47:39Z</time>
      </trkpt>
      <trkpt lat="41.8984610" lon="-8.8749920">
        <ele>8.3</ele>
        <time>2021-05-18T16:47:40Z</time>
      </trkpt>
      <trkpt lat="41.8984700" lon="-8.8749770">
        <ele>8.3</ele>
        <time>2021-05-18T16:47:41Z</time>
      </trkpt>
      <trkpt lat="41.8984740" lon="-8.8749690">
        <ele>8.4</ele>
        <time>2021-05-18T16:47:42Z</time>
      </trkpt>
      <trkpt lat="41.8984720" lon="-8.8749560">
        <ele>8.4</ele>
        <time>2021-05-18T16:47:43Z</time>
      </trkpt>
      <trkpt lat="41.8984860" lon="-8.8749420">
        <ele>8.4</ele>
        <time>2021-05-18T16:47:44Z</time>
      </trkpt>
      <trkpt lat="41.8984970" lon="-8.8749290">
        <ele>8.5</ele>
        <time>2021-05-18T16:47:45Z</time>
      </trkpt>
      <trkpt lat="41.8985050" lon="-8.8749200">
        <ele>8.5</ele>
        <time>2021-05-18T16:47:46Z</time>
      </trkpt>
      <trkpt lat="41.8985070" lon="-8.8749090">
        <ele>8.5</ele>
        <time>2021-05-18T16:47:47Z</time>
      </trkpt>
      <trkpt lat="41.8985230" lon="-8.8748830">
        <ele>8.6</ele>
        <time>2021-05-18T16:47:48Z</time>
      </trkpt>
      <trkpt lat="41.8985300" lon="-8.8748730">
        <ele>8.6</ele>
        <time>2021-05-18T16:47:49Z</time>
      </trkpt>
      <trkpt lat="41.8985370" lon="-8.8748620">
        <ele>8.7</ele>
        <time>2021-05-18T16:47:50Z</time>
      </trkpt>
      <trkpt lat="41.8985500" lon="-8.8748510">
        <ele>8.7</ele>
        <time>2021-05-18T16:47:51Z</time>
      </trkpt>
      <trkpt lat="41.8985550" lon="-8.8748350">
        <ele>8.7</ele>
        <time>2021-05-18T16:47:52Z</time>
      </trkpt>
      <trkpt lat="41.8985780" lon="-8.8748100">
        <ele>8.8</ele>
        <time>2021-05-18T16:47:53Z</time>
      </trkpt>
      <trkpt lat="41.8985870" lon="-8.8748010">
        <ele>8.8</ele>
        <time>2021-05-18T16:47:54Z</time>
      </trkpt>
      <trkpt lat="41.8985970" lon="-8.8747850">
        <ele>8.9</ele>
        <time>2021-05-18T16:47:55Z</time>
      </trkpt>
      <trkpt lat="41.8986050" lon="-8.8747780">
        <ele>8.9</ele>
        <time>2021-05-18T16:47:56Z</time>
      </trkpt>
      <trkpt lat="41.8986080" lon="-8.8747690">
        <ele>8.9</ele>
        <time>2021-05-18T16:47:57Z</time>
      </trkpt>
      <trkpt lat="41.8986290" lon="-8.8747400">
        <ele>9.0</ele>
        <time>2021-05-18T16:47:58Z</time>
      </trkpt>
      <trkpt lat="41.8986320" lon="-8.8747430">
        <ele>9.0</ele>
        <time>2021-05-18T16:47:59Z</time>
      </trkpt>
      <trkpt lat="41.8986400" lon="-8.8747350">
        <ele>9.0</ele>
        <time>2021-05-18T16:48:00Z</time>
      </trkpt>
      <trkpt lat="41.8986420" lon="-8.8747210">
        <ele>9.0</ele>
        <time>2021-05-18T16:48:01Z</time>
      </trkpt>
      <trkpt lat="41.8986520" lon="-8.8747140">
        <ele>9.0</ele>
        <time>2021-05-18T16:48:02Z</time>
      </trkpt>
      <trkpt lat="41.8986610" lon="-8.8747010">
        <ele>9.1</ele>
        <time>2021-05-18T16:48:03Z</time>
      </trkpt>
      <trkpt lat="41.8986650" lon="-8.8746950">
        <ele>9.1</ele>
        <time>2021-05-18T16:48:04Z</time>
      </trkpt>
      <trkpt lat="41.8986720" lon="-8.8746830">
        <ele>9.1</ele>
        <time>2021-05-18T16:48:05Z</time>
      </trkpt>
      <trkpt lat="41.8986800" lon="-8.8746660">
        <ele>9.1</ele>
        <time>2021-05-18T16:48:06Z</time>
      </trkpt>
      <trkpt lat="41.8986860" lon="-8.8746590">
        <ele>9.1</ele>
        <time>2021-05-18T16:48:07Z</time>
      </trkpt>
      <trkpt lat="41.8986950" lon="-8.8746520">
        <ele>9.2</ele>
        <time>2021-05-18T16:48:08Z</time>
      </trkpt>
      <trkpt lat="41.8986980" lon="-8.8746410">
        <ele>9.2</ele>
        <time>2021-05-18T16:48:09Z</time>
      </trkpt>
      <trkpt lat="41.8987060" lon="-8.8746370">
        <ele>9.2</ele>
        <time>2021-05-18T16:48:10Z</time>
      </trkpt>
      <trkpt lat="41.8987180" lon="-8.8746250">
        <ele>9.2</ele>
        <time>2021-05-18T16:48:11Z</time>
      </trkpt>
      <trkpt lat="41.8987250" lon="-8.8746090">
        <ele>9.3</ele>
        <time>2021-05-18T16:48:12Z</time>
      </trkpt>
      <trkpt lat="41.8987350" lon="-8.8745950">
        <ele>9.3</ele>
        <time>2021-05-18T16:48:13Z</time>
      </trkpt>
      <trkpt lat="41.8987390" lon="-8.8745850">
        <ele>9.3</ele>
        <time>2021-05-18T16:48:14Z</time>
      </trkpt>
      <trkpt lat="41.8987500" lon="-8.8745760">
        <ele>9.3</ele>
        <time>2021-05-18T16:48:15Z</time>
      </trkpt>
      <trkpt lat="41.8987620" lon="-8.8745650">
        <ele>9.4</ele>
        <time>2021-05-18T16:48:16Z</time>
      </trkpt>
      <trkpt lat="41.8987720" lon="-8.8745570">
        <ele>9.4</ele>
        <time>2021-05-18T16:48:17Z</time>
      </trkpt>
      <trkpt lat="41.8987780" lon="-8.8745450">
        <ele>9.4</ele>
        <time>2021-05-18T16:48:18Z</time>
      </trkpt>
      <trkpt lat="41.8987820" lon="-8.8745360">
        <ele>9.4</ele>
        <time>2021-05-18T16:48:19Z</time>
      </trkpt>
      <trkpt lat="41.8987930" lon="-8.8745270">
        <ele>9.4</ele>
        <time>2021-05-18T16:48:20Z</time>
      </trkpt>
      <trkpt lat="41.8988000" lon="-8.8745130">
        <ele>9.5</ele>
        <time>2021-05-18T16:48:21Z</time>
      </trkpt>
      <trkpt lat="41.8988060" lon="-8.8745020">
        <ele>9.5</ele>
        <time>2021-05-18T16:48:22Z</time>
      </trkpt>
      <trkpt lat="41.8988150" lon="-8.8744900">
        <ele>9.5</ele>
        <time>2021-05-18T16:48:24Z</time>
      </trkpt>
      <trkpt lat="41.8988260" lon="-8.8744820">
        <ele>9.5</ele>
        <time>2021-05-18T16:48:25Z</time>
      </trkpt>
      <trkpt lat="41.8988350" lon="-8.8744740">
        <ele>9.5</ele>
        <time>2021-05-18T16:48:26Z</time>
      </trkpt>
      <trkpt lat="41.8988480" lon="-8.8744630">
        <ele>9.5</ele>
        <time>2021-05-18T16:48:27Z</time>
      </trkpt>
      <trkpt lat="41.8988610" lon="-8.8744510">
        <ele>9.5</ele>
        <time>2021-05-18T16:48:28Z</time>
      </trkpt>
      <trkpt lat="41.8988710" lon="-8.8744360">
        <ele>9.5</ele>
        <time>2021-05-18T16:48:29Z</time>
      </trkpt>
      <trkpt lat="41.8988800" lon="-8.8744210">
        <ele>9.5</ele>
        <time>2021-05-18T16:48:30Z</time>
      </trkpt>
      <trkpt lat="41.8988950" lon="-8.8744110">
        <ele>9.5</ele>
        <time>2021-05-18T16:48:31Z</time>
      </trkpt>
      <trkpt lat="41.8989080" lon="-8.8744000">
        <ele>9.5</ele>
        <time>2021-05-18T16:48:32Z</time>
      </trkpt>
      <trkpt lat="41.8989220" lon="-8.8743850">
        <ele>9.5</ele>
        <time>2021-05-18T16:48:33Z</time>
      </trkpt>
      <trkpt lat="41.8989350" lon="-8.8743800">
        <ele>9.5</ele>
        <time>2021-05-18T16:48:34Z</time>
      </trkpt>
      <trkpt lat="41.8989590" lon="-8.8743590">
        <ele>9.6</ele>
        <time>2021-05-18T16:48:35Z</time>
      </trkpt>
      <trkpt lat="41.8989630" lon="-8.8743450">
        <ele>9.6</ele>
        <time>2021-05-18T16:48:36Z</time>
      </trkpt>
      <trkpt lat="41.8989700" lon="-8.8743300">
        <ele>9.6</ele>
        <time>2021-05-18T16:48:37Z</time>
      </trkpt>
      <trkpt lat="41.8989750" lon="-8.8743300">
        <ele>9.6</ele>
        <time>2021-05-18T16:48:38Z</time>
      </trkpt>
      <trkpt lat="41.8989780" lon="-8.8743110">
        <ele>9.6</ele>
        <time>2021-05-18T16:48:39Z</time>
      </trkpt>
      <trkpt lat="41.8989760" lon="-8.8743020">
        <ele>9.6</ele>
        <time>2021-05-18T16:48:40Z</time>
      </trkpt>
      <trkpt lat="41.8989810" lon="-8.8742870">
        <ele>9.6</ele>
        <time>2021-05-18T16:48:41Z</time>
      </trkpt>
      <trkpt lat="41.8989910" lon="-8.8742660">
        <ele>9.6</ele>
        <time>2021-05-18T16:48:42Z</time>
      </trkpt>
      <trkpt lat="41.8990000" lon="-8.8742530">
        <ele>9.6</ele>
        <time>2021-05-18T16:48:43Z</time>
      </trkpt>
      <trkpt lat="41.8990110" lon="-8.8742370">
        <ele>9.6</ele>
        <time>2021-05-18T16:48:44Z</time>
      </trkpt>
      <trkpt lat="41.8990190" lon="-8.8742230">
        <ele>9.6</ele>
        <time>2021-05-18T16:48:45Z</time>
      </trkpt>
      <trkpt lat="41.8990380" lon="-8.8742050">
        <ele>9.6</ele>
        <time>2021-05-18T16:48:46Z</time>
      </trkpt>
      <trkpt lat="41.8990450" lon="-8.8741960">
        <ele>9.6</ele>
        <time>2021-05-18T16:48:47Z</time>
      </trkpt>
      <trkpt lat="41.8990530" lon="-8.8741880">
        <ele>9.6</ele>
        <time>2021-05-18T16:48:48Z</time>
      </trkpt>
      <trkpt lat="41.8990590" lon="-8.8741900">
        <ele>9.6</ele>
        <time>2021-05-18T16:48:49Z</time>
      </trkpt>
      <trkpt lat="41.8990720" lon="-8.8741810">
        <ele>9.6</ele>
        <time>2021-05-18T16:48:50Z</time>
      </trkpt>
      <trkpt lat="41.8990820" lon="-8.8741730">
        <ele>9.6</ele>
        <time>2021-05-18T16:48:51Z</time>
      </trkpt>
      <trkpt lat="41.8990920" lon="-8.8741640">
        <ele>9.6</ele>
        <time>2021-05-18T16:48:52Z</time>
      </trkpt>
      <trkpt lat="41.8991060" lon="-8.8741420">
        <ele>9.6</ele>
        <time>2021-05-18T16:48:53Z</time>
      </trkpt>
      <trkpt lat="41.8991110" lon="-8.8741300">
        <ele>9.6</ele>
        <time>2021-05-18T16:48:54Z</time>
      </trkpt>
      <trkpt lat="41.8991210" lon="-8.8741290">
        <ele>9.6</ele>
        <time>2021-05-18T16:48:55Z</time>
      </trkpt>
      <trkpt lat="41.8991330" lon="-8.8741150">
        <ele>9.7</ele>
        <time>2021-05-18T16:48:56Z</time>
      </trkpt>
      <trkpt lat="41.8991490" lon="-8.8740990">
        <ele>9.7</ele>
        <time>2021-05-18T16:48:57Z</time>
      </trkpt>
      <trkpt lat="41.8991520" lon="-8.8740820">
        <ele>9.7</ele>
        <time>2021-05-18T16:48:58Z</time>
      </trkpt>
      <trkpt lat="41.8991690" lon="-8.8740680">
        <ele>9.7</ele>
        <time>2021-05-18T16:48:59Z</time>
      </trkpt>
      <trkpt lat="41.8991790" lon="-8.8740560">
        <ele>9.7</ele>
        <time>2021-05-18T16:49:00Z</time>
      </trkpt>
      <trkpt lat="41.8991920" lon="-8.8740430">
        <ele>9.7</ele>
        <time>2021-05-18T16:49:01Z</time>
      </trkpt>
      <trkpt lat="41.8991990" lon="-8.8740380">
        <ele>9.8</ele>
        <time>2021-05-18T16:49:02Z</time>
      </trkpt>
      <trkpt lat="41.8992050" lon="-8.8740320">
        <ele>9.8</ele>
        <time>2021-05-18T16:49:03Z</time>
      </trkpt>
      <trkpt lat="41.8992110" lon="-8.8740270">
        <ele>9.8</ele>
        <time>2021-05-18T16:49:04Z</time>
      </trkpt>
      <trkpt lat="41.8992260" lon="-8.8740090">
        <ele>9.8</ele>
        <time>2021-05-18T16:49:05Z</time>
      </trkpt>
      <trkpt lat="41.8992330" lon="-8.8740010">
        <ele>9.8</ele>
        <time>2021-05-18T16:49:06Z</time>
      </trkpt>
      <trkpt lat="41.8992390" lon="-8.8739940">
        <ele>9.8</ele>
        <time>2021-05-18T16:49:07Z</time>
      </trkpt>
      <trkpt lat="41.8992570" lon="-8.8739850">
        <ele>9.8</ele>
        <time>2021-05-18T16:49:08Z</time>
      </trkpt>
      <trkpt lat="41.8992650" lon="-8.8739750">
        <ele>9.9</ele>
        <time>2021-05-18T16:49:09Z</time>
      </trkpt>
      <trkpt lat="41.8992840" lon="-8.8739550">
        <ele>9.9</ele>
        <time>2021-05-18T16:49:10Z</time>
      </trkpt>
      <trkpt lat="41.8992880" lon="-8.8739550">
        <ele>9.9</ele>
        <time>2021-05-18T16:49:11Z</time>
      </trkpt>
      <trkpt lat="41.8993070" lon="-8.8739290">
        <ele>9.9</ele>
        <time>2021-05-18T16:49:12Z</time>
      </trkpt>
      <trkpt lat="41.8993130" lon="-8.8739340">
        <ele>9.9</ele>
        <time>2021-05-18T16:49:13Z</time>
      </trkpt>
      <trkpt lat="41.8993320" lon="-8.8739060">
        <ele>10.0</ele>
        <time>2021-05-18T16:49:14Z</time>
      </trkpt>
      <trkpt lat="41.8993370" lon="-8.8739100">
        <ele>10.0</ele>
        <time>2021-05-18T16:49:15Z</time>
      </trkpt>
      <trkpt lat="41.8993630" lon="-8.8738880">
        <ele>10.0</ele>
        <time>2021-05-18T16:49:16Z</time>
      </trkpt>
      <trkpt lat="41.8993720" lon="-8.8738760">
        <ele>10.0</ele>
        <time>2021-05-18T16:49:17Z</time>
      </trkpt>
      <trkpt lat="41.8993840" lon="-8.8738660">
        <ele>10.0</ele>
        <time>2021-05-18T16:49:18Z</time>
      </trkpt>
      <trkpt lat="41.8993950" lon="-8.8738660">
        <ele>10.0</ele>
        <time>2021-05-18T16:49:19Z</time>
      </trkpt>
      <trkpt lat="41.8994080" lon="-8.8738410">
        <ele>10.0</ele>
        <time>2021-05-18T16:49:20Z</time>
      </trkpt>
      <trkpt lat="41.8994170" lon="-8.8738300">
        <ele>10.0</ele>
        <time>2021-05-18T16:49:21Z</time>
      </trkpt>
      <trkpt lat="41.8994250" lon="-8.8738190">
        <ele>10.0</ele>
        <time>2021-05-18T16:49:22Z</time>
      </trkpt>
      <trkpt lat="41.8994360" lon="-8.8738060">
        <ele>10.0</ele>
        <time>2021-05-18T16:49:23Z</time>
      </trkpt>
      <trkpt lat="41.8994500" lon="-8.8737980">
        <ele>10.0</ele>
        <time>2021-05-18T16:49:24Z</time>
      </trkpt>
      <trkpt lat="41.8994570" lon="-8.8737880">
        <ele>10.0</ele>
        <time>2021-05-18T16:49:25Z</time>
      </trkpt>
      <trkpt lat="41.8994660" lon="-8.8737740">
        <ele>10.0</ele>
        <time>2021-05-18T16:49:26Z</time>
      </trkpt>
      <trkpt lat="41.8994730" lon="-8.8737700">
        <ele>10.1</ele>
        <time>2021-05-18T16:49:27Z</time>
      </trkpt>
      <trkpt lat="41.8994870" lon="-8.8737630">
        <ele>10.1</ele>
        <time>2021-05-18T16:49:28Z</time>
      </trkpt>
      <trkpt lat="41.8995020" lon="-8.8737580">
        <ele>10.1</ele>
        <time>2021-05-18T16:49:29Z</time>
      </trkpt>
      <trkpt lat="41.8995090" lon="-8.8737490">
        <ele>10.1</ele>
        <time>2021-05-18T16:49:30Z</time>
      </trkpt>
      <trkpt lat="41.8995240" lon="-8.8737450">
        <ele>10.1</ele>
        <time>2021-05-18T16:49:31Z</time>
      </trkpt>
      <trkpt lat="41.8995320" lon="-8.8737380">
        <ele>10.1</ele>
        <time>2021-05-18T16:49:32Z</time>
      </trkpt>
      <trkpt lat="41.8995400" lon="-8.8737290">
        <ele>10.1</ele>
        <time>2021-05-18T16:49:33Z</time>
      </trkpt>
      <trkpt lat="41.8995580" lon="-8.8737240">
        <ele>10.2</ele>
        <time>2021-05-18T16:49:34Z</time>
      </trkpt>
      <trkpt lat="41.8995690" lon="-8.8737150">
        <ele>10.2</ele>
        <time>2021-05-18T16:49:35Z</time>
      </trkpt>
      <trkpt lat="41.8995790" lon="-8.8737040">
        <ele>10.2</ele>
        <time>2021-05-18T16:49:36Z</time>
      </trkpt>
      <trkpt lat="41.8995790" lon="-8.8736930">
        <ele>10.2</ele>
        <time>2021-05-18T16:49:37Z</time>
      </trkpt>
      <trkpt lat="41.8995870" lon="-8.8736860">
        <ele>10.2</ele>
        <time>2021-05-18T16:49:38Z</time>
      </trkpt>
      <trkpt lat="41.8996010" lon="-8.8736830">
        <ele>10.2</ele>
        <time>2021-05-18T16:49:39Z</time>
      </trkpt>
      <trkpt lat="41.8996080" lon="-8.8736780">
        <ele>10.1</ele>
        <time>2021-05-18T16:49:40Z</time>
      </trkpt>
      <trkpt lat="41.8996300" lon="-8.8736670">
        <ele>10.0</ele>
        <time>2021-05-18T16:49:41Z</time>
      </trkpt>
      <trkpt lat="41.8996470" lon="-8.8736620">
        <ele>10.0</ele>
        <time>2021-05-18T16:49:42Z</time>
      </trkpt>
      <trkpt lat="41.8996550" lon="-8.8736550">
        <ele>9.9</ele>
        <time>2021-05-18T16:49:43Z</time>
      </trkpt>
      <trkpt lat="41.8996620" lon="-8.8736550">
        <ele>9.9</ele>
        <time>2021-05-18T16:49:44Z</time>
      </trkpt>
      <trkpt lat="41.8996690" lon="-8.8736540">
        <ele>9.9</ele>
        <time>2021-05-18T16:49:45Z</time>
      </trkpt>
      <trkpt lat="41.8996760" lon="-8.8736540">
        <ele>9.9</ele>
        <time>2021-05-18T16:49:46Z</time>
      </trkpt>
      <trkpt lat="41.8996830" lon="-8.8736530">
        <ele>9.8</ele>
        <time>2021-05-18T16:49:47Z</time>
      </trkpt>
      <trkpt lat="41.8997030" lon="-8.8736670">
        <ele>9.7</ele>
        <time>2021-05-18T16:49:48Z</time>
      </trkpt>
      <trkpt lat="41.8997090" lon="-8.8736730">
        <ele>9.7</ele>
        <time>2021-05-18T16:49:49Z</time>
      </trkpt>
      <trkpt lat="41.8997150" lon="-8.8736780">
        <ele>9.6</ele>
        <time>2021-05-18T16:49:50Z</time>
      </trkpt>
      <trkpt lat="41.8997250" lon="-8.8736830">
        <ele>9.6</ele>
        <time>2021-05-18T16:49:51Z</time>
      </trkpt>
      <trkpt lat="41.8997380" lon="-8.8736930">
        <ele>9.7</ele>
        <time>2021-05-18T16:49:52Z</time>
      </trkpt>
      <trkpt lat="41.8997420" lon="-8.8737040">
        <ele>9.7</ele>
        <time>2021-05-18T16:49:53Z</time>
      </trkpt>
      <trkpt lat="41.8997570" lon="-8.8737130">
        <ele>9.7</ele>
        <time>2021-05-18T16:49:54Z</time>
      </trkpt>
      <trkpt lat="41.8997640" lon="-8.8737160">
        <ele>9.7</ele>
        <time>2021-05-18T16:49:55Z</time>
      </trkpt>
      <trkpt lat="41.8997700" lon="-8.8737180">
        <ele>9.7</ele>
        <time>2021-05-18T16:49:56Z</time>
      </trkpt>
      <trkpt lat="41.8997770" lon="-8.8737210">
        <ele>9.7</ele>
        <time>2021-05-18T16:49:57Z</time>
      </trkpt>
      <trkpt lat="41.8997900" lon="-8.8737210">
        <ele>9.8</ele>
        <time>2021-05-18T16:49:58Z</time>
      </trkpt>
      <trkpt lat="41.8998020" lon="-8.8737260">
        <ele>9.8</ele>
        <time>2021-05-18T16:49:59Z</time>
      </trkpt>
      <trkpt lat="41.8998100" lon="-8.8737320">
        <ele>9.8</ele>
        <time>2021-05-18T16:50:00Z</time>
      </trkpt>
      <trkpt lat="41.8998180" lon="-8.8737400">
        <ele>9.9</ele>
        <time>2021-05-18T16:50:01Z</time>
      </trkpt>
      <trkpt lat="41.8998260" lon="-8.8737500">
        <ele>9.9</ele>
        <time>2021-05-18T16:50:02Z</time>
      </trkpt>
      <trkpt lat="41.8998320" lon="-8.8737560">
        <ele>9.9</ele>
        <time>2021-05-18T16:50:03Z</time>
      </trkpt>
      <trkpt lat="41.8998380" lon="-8.8737650">
        <ele>9.9</ele>
        <time>2021-05-18T16:50:04Z</time>
      </trkpt>
      <trkpt lat="41.8998430" lon="-8.8737710">
        <ele>10.0</ele>
        <time>2021-05-18T16:50:05Z</time>
      </trkpt>
      <trkpt lat="41.8998480" lon="-8.8737720">
        <ele>10.0</ele>
        <time>2021-05-18T16:50:06Z</time>
      </trkpt>
      <trkpt lat="41.8998560" lon="-8.8737790">
        <ele>10.0</ele>
        <time>2021-05-18T16:50:07Z</time>
      </trkpt>
      <trkpt lat="41.8998650" lon="-8.8737820">
        <ele>10.0</ele>
        <time>2021-05-18T16:50:08Z</time>
      </trkpt>
      <trkpt lat="41.8998730" lon="-8.8737780">
        <ele>10.2</ele>
        <time>2021-05-18T16:50:09Z</time>
      </trkpt>
      <trkpt lat="41.8998910" lon="-8.8737750">
        <ele>10.4</ele>
        <time>2021-05-18T16:50:10Z</time>
      </trkpt>
      <trkpt lat="41.8999100" lon="-8.8737840">
        <ele>10.6</ele>
        <time>2021-05-18T16:50:11Z</time>
      </trkpt>
      <trkpt lat="41.8999210" lon="-8.8737870">
        <ele>10.7</ele>
        <time>2021-05-18T16:50:12Z</time>
      </trkpt>
      <trkpt lat="41.8999310" lon="-8.8737890">
        <ele>10.8</ele>
        <time>2021-05-18T16:50:13Z</time>
      </trkpt>
      <trkpt lat="41.8999480" lon="-8.8737990">
        <ele>11.0</ele>
        <time>2021-05-18T16:50:14Z</time>
      </trkpt>
      <trkpt lat="41.8999540" lon="-8.8738120">
        <ele>11.1</ele>
        <time>2021-05-18T16:50:15Z</time>
      </trkpt>
      <trkpt lat="41.8999600" lon="-8.8738250">
        <ele>11.2</ele>
        <time>2021-05-18T16:50:16Z</time>
      </trkpt>
      <trkpt lat="41.8999750" lon="-8.8738600">
        <ele>11.5</ele>
        <time>2021-05-18T16:50:18Z</time>
      </trkpt>
      <trkpt lat="41.8999780" lon="-8.8738780">
        <ele>11.6</ele>
        <time>2021-05-18T16:50:19Z</time>
      </trkpt>
      <trkpt lat="41.8999900" lon="-8.8739140">
        <ele>11.9</ele>
        <time>2021-05-18T16:50:20Z</time>
      </trkpt>
      <trkpt lat="41.8999960" lon="-8.8739230">
        <ele>12.0</ele>
        <time>2021-05-18T16:50:21Z</time>
      </trkpt>
      <trkpt lat="41.9000020" lon="-8.8739390">
        <ele>12.1</ele>
        <time>2021-05-18T16:50:22Z</time>
      </trkpt>
      <trkpt lat="41.9000110" lon="-8.8739530">
        <ele>12.2</ele>
        <time>2021-05-18T16:50:23Z</time>
      </trkpt>
      <trkpt lat="41.9000170" lon="-8.8739540">
        <ele>12.3</ele>
        <time>2021-05-18T16:50:24Z</time>
      </trkpt>
      <trkpt lat="41.9000300" lon="-8.8739670">
        <ele>12.5</ele>
        <time>2021-05-18T16:50:25Z</time>
      </trkpt>
      <trkpt lat="41.9000390" lon="-8.8739780">
        <ele>12.5</ele>
        <time>2021-05-18T16:50:26Z</time>
      </trkpt>
      <trkpt lat="41.9000450" lon="-8.8739780">
        <ele>12.6</ele>
        <time>2021-05-18T16:50:27Z</time>
      </trkpt>
      <trkpt lat="41.9000480" lon="-8.8739810">
        <ele>12.6</ele>
        <time>2021-05-18T16:50:28Z</time>
      </trkpt>
      <trkpt lat="41.9000610" lon="-8.8739820">
        <ele>12.8</ele>
        <time>2021-05-18T16:50:29Z</time>
      </trkpt>
      <trkpt lat="41.9000680" lon="-8.8739900">
        <ele>12.9</ele>
        <time>2021-05-18T16:50:30Z</time>
      </trkpt>
      <trkpt lat="41.9000790" lon="-8.8739950">
        <ele>13.0</ele>
        <time>2021-05-18T16:50:31Z</time>
      </trkpt>
      <trkpt lat="41.9000890" lon="-8.8740030">
        <ele>13.1</ele>
        <time>2021-05-18T16:50:32Z</time>
      </trkpt>
      <trkpt lat="41.9000970" lon="-8.8740090">
        <ele>13.2</ele>
        <time>2021-05-18T16:50:33Z</time>
      </trkpt>
      <trkpt lat="41.9001060" lon="-8.8740120">
        <ele>13.3</ele>
        <time>2021-05-18T16:50:34Z</time>
      </trkpt>
      <trkpt lat="41.9001190" lon="-8.8740080">
        <ele>13.5</ele>
        <time>2021-05-18T16:50:35Z</time>
      </trkpt>
      <trkpt lat="41.9001330" lon="-8.8740120">
        <ele>13.6</ele>
        <time>2021-05-18T16:50:36Z</time>
      </trkpt>
      <trkpt lat="41.9001430" lon="-8.8740080">
        <ele>13.7</ele>
        <time>2021-05-18T16:50:37Z</time>
      </trkpt>
      <trkpt lat="41.9001560" lon="-8.8740040">
        <ele>13.9</ele>
        <time>2021-05-18T16:50:38Z</time>
      </trkpt>
      <trkpt lat="41.9001680" lon="-8.8740000">
        <ele>14.0</ele>
        <time>2021-05-18T16:50:39Z</time>
      </trkpt>
      <trkpt lat="41.9001810" lon="-8.8739970">
        <ele>14.2</ele>
        <time>2021-05-18T16:50:40Z</time>
      </trkpt>
      <trkpt lat="41.9001920" lon="-8.8739880">
        <ele>14.3</ele>
        <time>2021-05-18T16:50:41Z</time>
      </trkpt>
      <trkpt lat="41.9001990" lon="-8.8739860">
        <ele>14.4</ele>
        <time>2021-05-18T16:50:42Z</time>
      </trkpt>
      <trkpt lat="41.9002140" lon="-8.8739720">
        <ele>14.6</ele>
        <time>2021-05-18T16:50:43Z</time>
      </trkpt>
      <trkpt lat="41.9002220" lon="-8.8739650">
        <ele>14.7</ele>
        <time>2021-05-18T16:50:44Z</time>
      </trkpt>
      <trkpt lat="41.9002290" lon="-8.8739570">
        <ele>14.8</ele>
        <time>2021-05-18T16:50:45Z</time>
      </trkpt>
      <trkpt lat="41.9002410" lon="-8.8739460">
        <ele>15.0</ele>
        <time>2021-05-18T16:50:46Z</time>
      </trkpt>
      <trkpt lat="41.9002500" lon="-8.8739320">
        <ele>15.5</ele>
        <time>2021-05-18T16:50:47Z</time>
      </trkpt>
      <trkpt lat="41.9002740" lon="-8.8738800">
        <ele>15.6</ele>
        <time>2021-05-18T16:50:48Z</time>
      </trkpt>
      <trkpt lat="41.9002850" lon="-8.8738550">
        <ele>15.6</ele>
        <time>2021-05-18T16:50:49Z</time>
      </trkpt>
      <trkpt lat="41.9002890" lon="-8.8738080">
        <ele>15.6</ele>
        <time>2021-05-18T16:50:50Z</time>
      </trkpt>
      <trkpt lat="41.9002980" lon="-8.8737690">
        <ele>15.8</ele>
        <time>2021-05-18T16:50:51Z</time>
      </trkpt>
      <trkpt lat="41.9003020" lon="-8.8737530">
        <ele>15.8</ele>
        <time>2021-05-18T16:50:52Z</time>
      </trkpt>
      <trkpt lat="41.9003220" lon="-8.8737110">
        <ele>16.0</ele>
        <time>2021-05-18T16:50:53Z</time>
      </trkpt>
      <trkpt lat="41.9003370" lon="-8.8736720">
        <ele>16.2</ele>
        <time>2021-05-18T16:50:54Z</time>
      </trkpt>
      <trkpt lat="41.9003470" lon="-8.8736500">
        <ele>16.3</ele>
        <time>2021-05-18T16:50:55Z</time>
      </trkpt>
      <trkpt lat="41.9003630" lon="-8.8736230">
        <ele>16.4</ele>
        <time>2021-05-18T16:50:56Z</time>
      </trkpt>
      <trkpt lat="41.9003660" lon="-8.8736090">
        <ele>16.5</ele>
        <time>2021-05-18T16:50:57Z</time>
      </trkpt>
      <trkpt lat="41.9003730" lon="-8.8735880">
        <ele>16.6</ele>
        <time>2021-05-18T16:50:58Z</time>
      </trkpt>
      <trkpt lat="41.9003810" lon="-8.8735690">
        <ele>16.6</ele>
        <time>2021-05-18T16:50:59Z</time>
      </trkpt>
      <trkpt lat="41.9003810" lon="-8.8735490">
        <ele>16.7</ele>
        <time>2021-05-18T16:51:00Z</time>
      </trkpt>
      <trkpt lat="41.9003780" lon="-8.8735300">
        <ele>16.8</ele>
        <time>2021-05-18T16:51:01Z</time>
      </trkpt>
      <trkpt lat="41.9003700" lon="-8.8735100">
        <ele>16.9</ele>
        <time>2021-05-18T16:51:02Z</time>
      </trkpt>
      <trkpt lat="41.9003680" lon="-8.8734980">
        <ele>16.9</ele>
        <time>2021-05-18T16:51:03Z</time>
      </trkpt>
      <trkpt lat="41.9003660" lon="-8.8734850">
        <ele>17.0</ele>
        <time>2021-05-18T16:51:04Z</time>
      </trkpt>
      <trkpt lat="41.9003590" lon="-8.8734570">
        <ele>17.1</ele>
        <time>2021-05-18T16:51:05Z</time>
      </trkpt>
      <trkpt lat="41.9003570" lon="-8.8734480">
        <ele>17.1</ele>
        <time>2021-05-18T16:51:06Z</time>
      </trkpt>
      <trkpt lat="41.9003540" lon="-8.8734380">
        <ele>17.1</ele>
        <time>2021-05-18T16:51:07Z</time>
      </trkpt>
      <trkpt lat="41.9003580" lon="-8.8734100">
        <ele>17.2</ele>
        <time>2021-05-18T16:51:08Z</time>
      </trkpt>
      <trkpt lat="41.9003610" lon="-8.8734000">
        <ele>17.3</ele>
        <time>2021-05-18T16:51:09Z</time>
      </trkpt>
      <trkpt lat="41.9003640" lon="-8.8733890">
        <ele>17.3</ele>
        <time>2021-05-18T16:51:10Z</time>
      </trkpt>
      <trkpt lat="41.9003680" lon="-8.8733800">
        <ele>17.3</ele>
        <time>2021-05-18T16:51:11Z</time>
      </trkpt>
      <trkpt lat="41.9003710" lon="-8.8733600">
        <ele>17.4</ele>
        <time>2021-05-18T16:51:12Z</time>
      </trkpt>
      <trkpt lat="41.9003710" lon="-8.8733440">
        <ele>17.4</ele>
        <time>2021-05-18T16:51:13Z</time>
      </trkpt>
      <trkpt lat="41.9003640" lon="-8.8733170">
        <ele>17.5</ele>
        <time>2021-05-18T16:51:14Z</time>
      </trkpt>
      <trkpt lat="41.9003640" lon="-8.8733060">
        <ele>17.6</ele>
        <time>2021-05-18T16:51:15Z</time>
      </trkpt>
      <trkpt lat="41.9003640" lon="-8.8732940">
        <ele>17.6</ele>
        <time>2021-05-18T16:51:16Z</time>
      </trkpt>
      <trkpt lat="41.9003600" lon="-8.8732770">
        <ele>17.7</ele>
        <time>2021-05-18T16:51:17Z</time>
      </trkpt>
      <trkpt lat="41.9003530" lon="-8.8732610">
        <ele>17.7</ele>
        <time>2021-05-18T16:51:18Z</time>
      </trkpt>
      <trkpt lat="41.9003560" lon="-8.8732460">
        <ele>17.8</ele>
        <time>2021-05-18T16:51:19Z</time>
      </trkpt>
      <trkpt lat="41.9003580" lon="-8.8732370">
        <ele>17.8</ele>
        <time>2021-05-18T16:51:20Z</time>
      </trkpt>
      <trkpt lat="41.9003600" lon="-8.8732210">
        <ele>17.9</ele>
        <time>2021-05-18T16:51:21Z</time>
      </trkpt>
      <trkpt lat="41.9003600" lon="-8.8732090">
        <ele>17.9</ele>
        <time>2021-05-18T16:51:22Z</time>
      </trkpt>
      <trkpt lat="41.9003590" lon="-8.8731970">
        <ele>18.0</ele>
        <time>2021-05-18T16:51:23Z</time>
      </trkpt>
      <trkpt lat="41.9003600" lon="-8.8731830">
        <ele>18.0</ele>
        <time>2021-05-18T16:51:24Z</time>
      </trkpt>
      <trkpt lat="41.9003580" lon="-8.8731640">
        <ele>18.1</ele>
        <time>2021-05-18T16:51:25Z</time>
      </trkpt>
      <trkpt lat="41.9003570" lon="-8.8731400">
        <ele>18.2</ele>
        <time>2021-05-18T16:51:26Z</time>
      </trkpt>
      <trkpt lat="41.9003560" lon="-8.8731220">
        <ele>18.2</ele>
        <time>2021-05-18T16:51:27Z</time>
      </trkpt>
      <trkpt lat="41.9003580" lon="-8.8731050">
        <ele>18.3</ele>
        <time>2021-05-18T16:51:28Z</time>
      </trkpt>
      <trkpt lat="41.9003600" lon="-8.8730940">
        <ele>18.3</ele>
        <time>2021-05-18T16:51:29Z</time>
      </trkpt>
      <trkpt lat="41.9003620" lon="-8.8730950">
        <ele>18.3</ele>
        <time>2021-05-18T16:51:30Z</time>
      </trkpt>
      <trkpt lat="41.9003640" lon="-8.8730820">
        <ele>18.4</ele>
        <time>2021-05-18T16:51:31Z</time>
      </trkpt>
      <trkpt lat="41.9003590" lon="-8.8730660">
        <ele>18.4</ele>
        <time>2021-05-18T16:51:32Z</time>
      </trkpt>
      <trkpt lat="41.9003630" lon="-8.8730570">
        <ele>18.4</ele>
        <time>2021-05-18T16:51:33Z</time>
      </trkpt>
      <trkpt lat="41.9003670" lon="-8.8730280">
        <ele>18.5</ele>
        <time>2021-05-18T16:51:34Z</time>
      </trkpt>
      <trkpt lat="41.9003700" lon="-8.8730150">
        <ele>18.6</ele>
        <time>2021-05-18T16:51:35Z</time>
      </trkpt>
      <trkpt lat="41.9003720" lon="-8.8730020">
        <ele>18.6</ele>
        <time>2021-05-18T16:51:36Z</time>
      </trkpt>
      <trkpt lat="41.9003800" lon="-8.8729800">
        <ele>18.7</ele>
        <time>2021-05-18T16:51:37Z</time>
      </trkpt>
      <trkpt lat="41.9003820" lon="-8.8729670">
        <ele>18.8</ele>
        <time>2021-05-18T16:51:38Z</time>
      </trkpt>
      <trkpt lat="41.9003830" lon="-8.8729550">
        <ele>18.8</ele>
        <time>2021-05-18T16:51:39Z</time>
      </trkpt>
      <trkpt lat="41.9003860" lon="-8.8729400">
        <ele>18.8</ele>
        <time>2021-05-18T16:51:40Z</time>
      </trkpt>
      <trkpt lat="41.9003900" lon="-8.8729230">
        <ele>18.9</ele>
        <time>2021-05-18T16:51:41Z</time>
      </trkpt>
      <trkpt lat="41.9003910" lon="-8.8729070">
        <ele>18.9</ele>
        <time>2021-05-18T16:51:42Z</time>
      </trkpt>
      <trkpt lat="41.9003950" lon="-8.8728940">
        <ele>19.0</ele>
        <time>2021-05-18T16:51:43Z</time>
      </trkpt>
      <trkpt lat="41.9004000" lon="-8.8728800">
        <ele>19.0</ele>
        <time>2021-05-18T16:51:44Z</time>
      </trkpt>
      <trkpt lat="41.9004030" lon="-8.8728640">
        <ele>19.1</ele>
        <time>2021-05-18T16:51:45Z</time>
      </trkpt>
      <trkpt lat="41.9004070" lon="-8.8728450">
        <ele>19.2</ele>
        <time>2021-05-18T16:51:46Z</time>
      </trkpt>
      <trkpt lat="41.9004030" lon="-8.8728270">
        <ele>19.2</ele>
        <time>2021-05-18T16:51:47Z</time>
      </trkpt>
      <trkpt lat="41.9004100" lon="-8.8727990">
        <ele>19.3</ele>
        <time>2021-05-18T16:51:48Z</time>
      </trkpt>
      <trkpt lat="41.9004130" lon="-8.8727900">
        <ele>19.3</ele>
        <time>2021-05-18T16:51:49Z</time>
      </trkpt>
      <trkpt lat="41.9004190" lon="-8.8727790">
        <ele>19.4</ele>
        <time>2021-05-18T16:51:50Z</time>
      </trkpt>
      <trkpt lat="41.9004240" lon="-8.8727650">
        <ele>19.4</ele>
        <time>2021-05-18T16:51:51Z</time>
      </trkpt>
      <trkpt lat="41.9004270" lon="-8.8727530">
        <ele>19.5</ele>
        <time>2021-05-18T16:51:52Z</time>
      </trkpt>
      <trkpt lat="41.9004310" lon="-8.8727420">
        <ele>19.5</ele>
        <time>2021-05-18T16:51:53Z</time>
      </trkpt>
      <trkpt lat="41.9004400" lon="-8.8727300">
        <ele>19.6</ele>
        <time>2021-05-18T16:51:54Z</time>
      </trkpt>
      <trkpt lat="41.9004430" lon="-8.8727210">
        <ele>19.6</ele>
        <time>2021-05-18T16:51:55Z</time>
      </trkpt>
      <trkpt lat="41.9004500" lon="-8.8727090">
        <ele>19.7</ele>
        <time>2021-05-18T16:51:56Z</time>
      </trkpt>
      <trkpt lat="41.9004530" lon="-8.8727010">
        <ele>19.7</ele>
        <time>2021-05-18T16:51:57Z</time>
      </trkpt>
      <trkpt lat="41.9004570" lon="-8.8726850">
        <ele>19.7</ele>
        <time>2021-05-18T16:51:58Z</time>
      </trkpt>
      <trkpt lat="41.9004580" lon="-8.8726730">
        <ele>19.8</ele>
        <time>2021-05-18T16:51:59Z</time>
      </trkpt>
      <trkpt lat="41.9004540" lon="-8.8726500">
        <ele>19.9</ele>
        <time>2021-05-18T16:52:00Z</time>
      </trkpt>
      <trkpt lat="41.9004580" lon="-8.8726400">
        <ele>19.9</ele>
        <time>2021-05-18T16:52:01Z</time>
      </trkpt>
      <trkpt lat="41.9004670" lon="-8.8726140">
        <ele>20.0</ele>
        <time>2021-05-18T16:52:02Z</time>
      </trkpt>
      <trkpt lat="41.9004710" lon="-8.8726040">
        <ele>20.0</ele>
        <time>2021-05-18T16:52:03Z</time>
      </trkpt>
      <trkpt lat="41.9004750" lon="-8.8725950">
        <ele>20.1</ele>
        <time>2021-05-18T16:52:04Z</time>
      </trkpt>
      <trkpt lat="41.9004820" lon="-8.8725860">
        <ele>20.1</ele>
        <time>2021-05-18T16:52:05Z</time>
      </trkpt>
      <trkpt lat="41.9004890" lon="-8.8725720">
        <ele>20.2</ele>
        <time>2021-05-18T16:52:06Z</time>
      </trkpt>
      <trkpt lat="41.9004930" lon="-8.8725560">
        <ele>20.2</ele>
        <time>2021-05-18T16:52:08Z</time>
      </trkpt>
      <trkpt lat="41.9005010" lon="-8.8725440">
        <ele>20.3</ele>
        <time>2021-05-18T16:52:09Z</time>
      </trkpt>
      <trkpt lat="41.9005050" lon="-8.8725220">
        <ele>20.4</ele>
        <time>2021-05-18T16:52:10Z</time>
      </trkpt>
      <trkpt lat="41.9005150" lon="-8.8724970">
        <ele>20.5</ele>
        <time>2021-05-18T16:52:11Z</time>
      </trkpt>
      <trkpt lat="41.9005170" lon="-8.8724830">
        <ele>20.5</ele>
        <time>2021-05-18T16:52:12Z</time>
      </trkpt>
      <trkpt lat="41.9005190" lon="-8.8724700">
        <ele>20.6</ele>
        <time>2021-05-18T16:52:13Z</time>
      </trkpt>
      <trkpt lat="41.9005290" lon="-8.8724430">
        <ele>20.7</ele>
        <time>2021-05-18T16:52:14Z</time>
      </trkpt>
      <trkpt lat="41.9005350" lon="-8.8724310">
        <ele>20.7</ele>
        <time>2021-05-18T16:52:15Z</time>
      </trkpt>
      <trkpt lat="41.9005400" lon="-8.8724200">
        <ele>20.8</ele>
        <time>2021-05-18T16:52:16Z</time>
      </trkpt>
      <trkpt lat="41.9005440" lon="-8.8723950">
        <ele>20.9</ele>
        <time>2021-05-18T16:52:17Z</time>
      </trkpt>
      <trkpt lat="41.9005430" lon="-8.8723750">
        <ele>21.0</ele>
        <time>2021-05-18T16:52:18Z</time>
      </trkpt>
      <trkpt lat="41.9005390" lon="-8.8723520">
        <ele>21.1</ele>
        <time>2021-05-18T16:52:19Z</time>
      </trkpt>
      <trkpt lat="41.9005440" lon="-8.8723320">
        <ele>21.1</ele>
        <time>2021-05-18T16:52:20Z</time>
      </trkpt>
      <trkpt lat="41.9005500" lon="-8.8723130">
        <ele>21.2</ele>
        <time>2021-05-18T16:52:21Z</time>
      </trkpt>
      <trkpt lat="41.9005560" lon="-8.8722930">
        <ele>21.3</ele>
        <time>2021-05-18T16:52:22Z</time>
      </trkpt>
      <trkpt lat="41.9005600" lon="-8.8722660">
        <ele>21.4</ele>
        <time>2021-05-18T16:52:23Z</time>
      </trkpt>
      <trkpt lat="41.9005640" lon="-8.8722550">
        <ele>21.5</ele>
        <time>2021-05-18T16:52:24Z</time>
      </trkpt>
      <trkpt lat="41.9005680" lon="-8.8722430">
        <ele>21.6</ele>
        <time>2021-05-18T16:52:25Z</time>
      </trkpt>
      <trkpt lat="41.9005860" lon="-8.8722260">
        <ele>21.7</ele>
        <time>2021-05-18T16:52:26Z</time>
      </trkpt>
      <trkpt lat="41.9005880" lon="-8.8722160">
        <ele>21.8</ele>
        <time>2021-05-18T16:52:27Z</time>
      </trkpt>
      <trkpt lat="41.9005910" lon="-8.8722020">
        <ele>21.8</ele>
        <time>2021-05-18T16:52:28Z</time>
      </trkpt>
      <trkpt lat="41.9005940" lon="-8.8721900">
        <ele>21.9</ele>
        <time>2021-05-18T16:52:29Z</time>
      </trkpt>
      <trkpt lat="41.9005990" lon="-8.8721720">
        <ele>22.0</ele>
        <time>2021-05-18T16:52:30Z</time>
      </trkpt>
      <trkpt lat="41.9006010" lon="-8.8721460">
        <ele>22.1</ele>
        <time>2021-05-18T16:52:31Z</time>
      </trkpt>
      <trkpt lat="41.9006020" lon="-8.8721340">
        <ele>22.2</ele>
        <time>2021-05-18T16:52:32Z</time>
      </trkpt>
      <trkpt lat="41.9006040" lon="-8.8721220">
        <ele>22.2</ele>
        <time>2021-05-18T16:52:33Z</time>
      </trkpt>
      <trkpt lat="41.9006060" lon="-8.8721050">
        <ele>22.3</ele>
        <time>2021-05-18T16:52:34Z</time>
      </trkpt>
      <trkpt lat="41.9006120" lon="-8.8720980">
        <ele>22.4</ele>
        <time>2021-05-18T16:52:35Z</time>
      </trkpt>
      <trkpt lat="41.9006200" lon="-8.8720850">
        <ele>22.5</ele>
        <time>2021-05-18T16:52:36Z</time>
      </trkpt>
      <trkpt lat="41.9006290" lon="-8.8720780">
        <ele>22.5</ele>
        <time>2021-05-18T16:52:37Z</time>
      </trkpt>
      <trkpt lat="41.9006400" lon="-8.8720730">
        <ele>22.6</ele>
        <time>2021-05-18T16:52:38Z</time>
      </trkpt>
      <trkpt lat="41.9006490" lon="-8.8720710">
        <ele>22.7</ele>
        <time>2021-05-18T16:52:39Z</time>
      </trkpt>
      <trkpt lat="41.9006550" lon="-8.8720600">
        <ele>22.8</ele>
        <time>2021-05-18T16:52:40Z</time>
      </trkpt>
      <trkpt lat="41.9006610" lon="-8.8720480">
        <ele>22.8</ele>
        <time>2021-05-18T16:52:41Z</time>
      </trkpt>
      <trkpt lat="41.9006660" lon="-8.8720340">
        <ele>22.9</ele>
        <time>2021-05-18T16:52:42Z</time>
      </trkpt>
      <trkpt lat="41.9006760" lon="-8.8720190">
        <ele>23.0</ele>
        <time>2021-05-18T16:52:43Z</time>
      </trkpt>
      <trkpt lat="41.9006850" lon="-8.8720070">
        <ele>23.1</ele>
        <time>2021-05-18T16:52:44Z</time>
      </trkpt>
      <trkpt lat="41.9006950" lon="-8.8719950">
        <ele>23.2</ele>
        <time>2021-05-18T16:52:45Z</time>
      </trkpt>
      <trkpt lat="41.9007100" lon="-8.8719820">
        <ele>23.3</ele>
        <time>2021-05-18T16:52:46Z</time>
      </trkpt>
      <trkpt lat="41.9007190" lon="-8.8719700">
        <ele>23.4</ele>
        <time>2021-05-18T16:52:47Z</time>
      </trkpt>
      <trkpt lat="41.9007240" lon="-8.8719580">
        <ele>23.5</ele>
        <time>2021-05-18T16:52:48Z</time>
      </trkpt>
      <trkpt lat="41.9007280" lon="-8.8719410">
        <ele>23.6</ele>
        <time>2021-05-18T16:52:49Z</time>
      </trkpt>
      <trkpt lat="41.9007250" lon="-8.8719290">
        <ele>23.7</ele>
        <time>2021-05-18T16:52:50Z</time>
      </trkpt>
      <trkpt lat="41.9007310" lon="-8.8719140">
        <ele>23.8</ele>
        <time>2021-05-18T16:52:51Z</time>
      </trkpt>
      <trkpt lat="41.9007400" lon="-8.8719070">
        <ele>23.9</ele>
        <time>2021-05-18T16:52:52Z</time>
      </trkpt>
      <trkpt lat="41.9007470" lon="-8.8719000">
        <ele>23.9</ele>
        <time>2021-05-18T16:52:53Z</time>
      </trkpt>
      <trkpt lat="41.9007610" lon="-8.8718930">
        <ele>24.0</ele>
        <time>2021-05-18T16:52:54Z</time>
      </trkpt>
      <trkpt lat="41.9007730" lon="-8.8718900">
        <ele>24.1</ele>
        <time>2021-05-18T16:52:55Z</time>
      </trkpt>
      <trkpt lat="41.9007730" lon="-8.8718890">
        <ele>24.1</ele>
        <time>2021-05-18T16:52:56Z</time>
      </trkpt>
      <trkpt lat="41.9007830" lon="-8.8718830">
        <ele>24.2</ele>
        <time>2021-05-18T16:52:57Z</time>
      </trkpt>
      <trkpt lat="41.9007930" lon="-8.8718670">
        <ele>24.3</ele>
        <time>2021-05-18T16:52:58Z</time>
      </trkpt>
      <trkpt lat="41.9008020" lon="-8.8718630">
        <ele>24.4</ele>
        <time>2021-05-18T16:52:59Z</time>
      </trkpt>
      <trkpt lat="41.9008120" lon="-8.8718540">
        <ele>24.5</ele>
        <time>2021-05-18T16:53:00Z</time>
      </trkpt>
      <trkpt lat="41.9008240" lon="-8.8718460">
        <ele>24.6</ele>
        <time>2021-05-18T16:53:01Z</time>
      </trkpt>
      <trkpt lat="41.9008290" lon="-8.8718430">
        <ele>24.6</ele>
        <time>2021-05-18T16:53:02Z</time>
      </trkpt>
      <trkpt lat="41.9008340" lon="-8.8718300">
        <ele>24.7</ele>
        <time>2021-05-18T16:53:03Z</time>
      </trkpt>
      <trkpt lat="41.9008420" lon="-8.8718210">
        <ele>24.7</ele>
        <time>2021-05-18T16:53:04Z</time>
      </trkpt>
      <trkpt lat="41.9008550" lon="-8.8718090">
        <ele>24.9</ele>
        <time>2021-05-18T16:53:05Z</time>
      </trkpt>
      <trkpt lat="41.9008610" lon="-8.8717960">
        <ele>24.9</ele>
        <time>2021-05-18T16:53:06Z</time>
      </trkpt>
      <trkpt lat="41.9008670" lon="-8.8717880">
        <ele>25.0</ele>
        <time>2021-05-18T16:53:07Z</time>
      </trkpt>
      <trkpt lat="41.9008730" lon="-8.8717820">
        <ele>25.0</ele>
        <time>2021-05-18T16:53:08Z</time>
      </trkpt>
      <trkpt lat="41.9008820" lon="-8.8717670">
        <ele>25.1</ele>
        <time>2021-05-18T16:53:09Z</time>
      </trkpt>
      <trkpt lat="41.9008890" lon="-8.8717590">
        <ele>25.2</ele>
        <time>2021-05-18T16:53:10Z</time>
      </trkpt>
      <trkpt lat="41.9008990" lon="-8.8717490">
        <ele>25.3</ele>
        <time>2021-05-18T16:53:11Z</time>
      </trkpt>
      <trkpt lat="41.9009060" lon="-8.8717390">
        <ele>25.4</ele>
        <time>2021-05-18T16:53:12Z</time>
      </trkpt>
      <trkpt lat="41.9009130" lon="-8.8717290">
        <ele>25.4</ele>
        <time>2021-05-18T16:53:13Z</time>
      </trkpt>
      <trkpt lat="41.9009190" lon="-8.8717200">
        <ele>25.5</ele>
        <time>2021-05-18T16:53:14Z</time>
      </trkpt>
      <trkpt lat="41.9009220" lon="-8.8717070">
        <ele>25.6</ele>
        <time>2021-05-18T16:53:15Z</time>
      </trkpt>
      <trkpt lat="41.9009260" lon="-8.8716950">
        <ele>25.6</ele>
        <time>2021-05-18T16:53:16Z</time>
      </trkpt>
      <trkpt lat="41.9009320" lon="-8.8716870">
        <ele>25.7</ele>
        <time>2021-05-18T16:53:17Z</time>
      </trkpt>
      <trkpt lat="41.9009490" lon="-8.8716720">
        <ele>25.8</ele>
        <time>2021-05-18T16:53:18Z</time>
      </trkpt>
      <trkpt lat="41.9009570" lon="-8.8716660">
        <ele>25.9</ele>
        <time>2021-05-18T16:53:19Z</time>
      </trkpt>
      <trkpt lat="41.9009650" lon="-8.8716590">
        <ele>25.9</ele>
        <time>2021-05-18T16:53:20Z</time>
      </trkpt>
      <trkpt lat="41.9009740" lon="-8.8716440">
        <ele>26.0</ele>
        <time>2021-05-18T16:53:21Z</time>
      </trkpt>
      <trkpt lat="41.9009820" lon="-8.8716270">
        <ele>26.1</ele>
        <time>2021-05-18T16:53:22Z</time>
      </trkpt>
      <trkpt lat="41.9009930" lon="-8.8716140">
        <ele>26.2</ele>
        <time>2021-05-18T16:53:23Z</time>
      </trkpt>
      <trkpt lat="41.9010000" lon="-8.8715990">
        <ele>26.3</ele>
        <time>2021-05-18T16:53:24Z</time>
      </trkpt>
      <trkpt lat="41.9010090" lon="-8.8715870">
        <ele>26.4</ele>
        <time>2021-05-18T16:53:25Z</time>
      </trkpt>
      <trkpt lat="41.9010220" lon="-8.8715700">
        <ele>26.5</ele>
        <time>2021-05-18T16:53:26Z</time>
      </trkpt>
      <trkpt lat="41.9010290" lon="-8.8715550">
        <ele>26.6</ele>
        <time>2021-05-18T16:53:27Z</time>
      </trkpt>
      <trkpt lat="41.9010360" lon="-8.8715460">
        <ele>26.7</ele>
        <time>2021-05-18T16:53:28Z</time>
      </trkpt>
      <trkpt lat="41.9010490" lon="-8.8715440">
        <ele>26.7</ele>
        <time>2021-05-18T16:53:29Z</time>
      </trkpt>
      <trkpt lat="41.9010580" lon="-8.8715320">
        <ele>26.8</ele>
        <time>2021-05-18T16:53:30Z</time>
      </trkpt>
      <trkpt lat="41.9010670" lon="-8.8715190">
        <ele>26.9</ele>
        <time>2021-05-18T16:53:31Z</time>
      </trkpt>
      <trkpt lat="41.9010720" lon="-8.8715180">
        <ele>26.9</ele>
        <time>2021-05-18T16:53:32Z</time>
      </trkpt>
      <trkpt lat="41.9010760" lon="-8.8715050">
        <ele>27.0</ele>
        <time>2021-05-18T16:53:33Z</time>
      </trkpt>
      <trkpt lat="41.9010810" lon="-8.8714880">
        <ele>27.1</ele>
        <time>2021-05-18T16:53:34Z</time>
      </trkpt>
      <trkpt lat="41.9010870" lon="-8.8714800">
        <ele>27.2</ele>
        <time>2021-05-18T16:53:35Z</time>
      </trkpt>
      <trkpt lat="41.9010960" lon="-8.8714720">
        <ele>27.2</ele>
        <time>2021-05-18T16:53:36Z</time>
      </trkpt>
      <trkpt lat="41.9010960" lon="-8.8714590">
        <ele>27.3</ele>
        <time>2021-05-18T16:53:37Z</time>
      </trkpt>
      <trkpt lat="41.9011000" lon="-8.8714440">
        <ele>27.4</ele>
        <time>2021-05-18T16:53:38Z</time>
      </trkpt>
      <trkpt lat="41.9011120" lon="-8.8714190">
        <ele>27.5</ele>
        <time>2021-05-18T16:53:39Z</time>
      </trkpt>
      <trkpt lat="41.9011180" lon="-8.8714110">
        <ele>27.6</ele>
        <time>2021-05-18T16:53:40Z</time>
      </trkpt>
      <trkpt lat="41.9011240" lon="-8.8714020">
        <ele>27.6</ele>
        <time>2021-05-18T16:53:41Z</time>
      </trkpt>
      <trkpt lat="41.9011350" lon="-8.8713910">
        <ele>27.7</ele>
        <time>2021-05-18T16:53:42Z</time>
      </trkpt>
      <trkpt lat="41.9011470" lon="-8.8713810">
        <ele>27.8</ele>
        <time>2021-05-18T16:53:43Z</time>
      </trkpt>
      <trkpt lat="41.9011530" lon="-8.8713730">
        <ele>27.8</ele>
        <time>2021-05-18T16:53:44Z</time>
      </trkpt>
      <trkpt lat="41.9011610" lon="-8.8713650">
        <ele>27.9</ele>
        <time>2021-05-18T16:53:45Z</time>
      </trkpt>
      <trkpt lat="41.9011730" lon="-8.8713640">
        <ele>28.0</ele>
        <time>2021-05-18T16:53:46Z</time>
      </trkpt>
      <trkpt lat="41.9012020" lon="-8.8713580">
        <ele>28.2</ele>
        <time>2021-05-18T16:53:47Z</time>
      </trkpt>
      <trkpt lat="41.9012210" lon="-8.8713580">
        <ele>28.3</ele>
        <time>2021-05-18T16:53:48Z</time>
      </trkpt>
      <trkpt lat="41.9012320" lon="-8.8713500">
        <ele>28.4</ele>
        <time>2021-05-18T16:53:49Z</time>
      </trkpt>
      <trkpt lat="41.9012330" lon="-8.8713300">
        <ele>28.5</ele>
        <time>2021-05-18T16:53:50Z</time>
      </trkpt>
      <trkpt lat="41.9012330" lon="-8.8713140">
        <ele>28.6</ele>
        <time>2021-05-18T16:53:51Z</time>
      </trkpt>
      <trkpt lat="41.9012390" lon="-8.8713090">
        <ele>28.6</ele>
        <time>2021-05-18T16:53:52Z</time>
      </trkpt>
      <trkpt lat="41.9012480" lon="-8.8712930">
        <ele>28.7</ele>
        <time>2021-05-18T16:53:53Z</time>
      </trkpt>
      <trkpt lat="41.9012550" lon="-8.8712860">
        <ele>28.8</ele>
        <time>2021-05-18T16:53:54Z</time>
      </trkpt>
      <trkpt lat="41.9012680" lon="-8.8712620">
        <ele>28.9</ele>
        <time>2021-05-18T16:53:55Z</time>
      </trkpt>
      <trkpt lat="41.9012730" lon="-8.8712530">
        <ele>29.0</ele>
        <time>2021-05-18T16:53:56Z</time>
      </trkpt>
      <trkpt lat="41.9012770" lon="-8.8712440">
        <ele>29.0</ele>
        <time>2021-05-18T16:53:57Z</time>
      </trkpt>
      <trkpt lat="41.9012850" lon="-8.8712270">
        <ele>29.1</ele>
        <time>2021-05-18T16:53:58Z</time>
      </trkpt>
      <trkpt lat="41.9012910" lon="-8.8712200">
        <ele>29.2</ele>
        <time>2021-05-18T16:53:59Z</time>
      </trkpt>
      <trkpt lat="41.9012960" lon="-8.8712130">
        <ele>29.2</ele>
        <time>2021-05-18T16:54:00Z</time>
      </trkpt>
      <trkpt lat="41.9013020" lon="-8.8712060">
        <ele>29.3</ele>
        <time>2021-05-18T16:54:01Z</time>
      </trkpt>
      <trkpt lat="41.9013060" lon="-8.8712000">
        <ele>29.3</ele>
        <time>2021-05-18T16:54:02Z</time>
      </trkpt>
      <trkpt lat="41.9013190" lon="-8.8711880">
        <ele>29.4</ele>
        <time>2021-05-18T16:54:03Z</time>
      </trkpt>
      <trkpt lat="41.9013310" lon="-8.8711810">
        <ele>29.5</ele>
        <time>2021-05-18T16:54:04Z</time>
      </trkpt>
      <trkpt lat="41.9013400" lon="-8.8711750">
        <ele>29.5</ele>
        <time>2021-05-18T16:54:05Z</time>
      </trkpt>
      <trkpt lat="41.9013570" lon="-8.8711720">
        <ele>29.6</ele>
        <time>2021-05-18T16:54:06Z</time>
      </trkpt>
      <trkpt lat="41.9013720" lon="-8.8711670">
        <ele>29.7</ele>
        <time>2021-05-18T16:54:07Z</time>
      </trkpt>
      <trkpt lat="41.9013830" lon="-8.8711560">
        <ele>29.8</ele>
        <time>2021-05-18T16:54:08Z</time>
      </trkpt>
      <trkpt lat="41.9013980" lon="-8.8711380">
        <ele>29.9</ele>
        <time>2021-05-18T16:54:09Z</time>
      </trkpt>
      <trkpt lat="41.9014060" lon="-8.8711330">
        <ele>29.9</ele>
        <time>2021-05-18T16:54:10Z</time>
      </trkpt>
      <trkpt lat="41.9014130" lon="-8.8711270">
        <ele>29.9</ele>
        <time>2021-05-18T16:54:11Z</time>
      </trkpt>
      <trkpt lat="41.9014200" lon="-8.8711210">
        <ele>30.0</ele>
        <time>2021-05-18T16:54:12Z</time>
      </trkpt>
      <trkpt lat="41.9014310" lon="-8.8711130">
        <ele>30.1</ele>
        <time>2021-05-18T16:54:13Z</time>
      </trkpt>
      <trkpt lat="41.9014470" lon="-8.8711030">
        <ele>30.1</ele>
        <time>2021-05-18T16:54:14Z</time>
      </trkpt>
      <trkpt lat="41.9014620" lon="-8.8710960">
        <ele>30.2</ele>
        <time>2021-05-18T16:54:15Z</time>
      </trkpt>
      <trkpt lat="41.9014770" lon="-8.8710970">
        <ele>30.3</ele>
        <time>2021-05-18T16:54:16Z</time>
      </trkpt>
      <trkpt lat="41.9015050" lon="-8.8711030">
        <ele>30.4</ele>
        <time>2021-05-18T16:54:17Z</time>
      </trkpt>
      <trkpt lat="41.9015150" lon="-8.8711060">
        <ele>30.5</ele>
        <time>2021-05-18T16:54:18Z</time>
      </trkpt>
      <trkpt lat="41.9015440" lon="-8.8711180">
        <ele>30.6</ele>
        <time>2021-05-18T16:54:19Z</time>
      </trkpt>
      <trkpt lat="41.9015620" lon="-8.8711250">
        <ele>30.7</ele>
        <time>2021-05-18T16:54:20Z</time>
      </trkpt>
      <trkpt lat="41.9015790" lon="-8.8711270">
        <ele>30.8</ele>
        <time>2021-05-18T16:54:21Z</time>
      </trkpt>
      <trkpt lat="41.9015910" lon="-8.8711160">
        <ele>30.9</ele>
        <time>2021-05-18T16:54:22Z</time>
      </trkpt>
      <trkpt lat="41.9015930" lon="-8.8711070">
        <ele>30.9</ele>
        <time>2021-05-18T16:54:23Z</time>
      </trkpt>
      <trkpt lat="41.9015940" lon="-8.8710990">
        <ele>30.9</ele>
        <time>2021-05-18T16:54:24Z</time>
      </trkpt>
      <trkpt lat="41.9015960" lon="-8.8710900">
        <ele>30.9</ele>
        <time>2021-05-18T16:54:25Z</time>
      </trkpt>
      <trkpt lat="41.9015970" lon="-8.8710820">
        <ele>31.0</ele>
        <time>2021-05-18T16:54:26Z</time>
      </trkpt>
      <trkpt lat="41.9016030" lon="-8.8710670">
        <ele>31.0</ele>
        <time>2021-05-18T16:54:27Z</time>
      </trkpt>
      <trkpt lat="41.9016070" lon="-8.8710600">
        <ele>31.1</ele>
        <time>2021-05-18T16:54:28Z</time>
      </trkpt>
      <trkpt lat="41.9016080" lon="-8.8710550">
        <ele>31.1</ele>
        <time>2021-05-18T16:54:29Z</time>
      </trkpt>
      <trkpt lat="41.9016150" lon="-8.8710450">
        <ele>31.1</ele>
        <time>2021-05-18T16:54:30Z</time>
      </trkpt>
      <trkpt lat="41.9016190" lon="-8.8710320">
        <ele>31.2</ele>
        <time>2021-05-18T16:54:31Z</time>
      </trkpt>
      <trkpt lat="41.9016240" lon="-8.8710200">
        <ele>31.2</ele>
        <time>2021-05-18T16:54:32Z</time>
      </trkpt>
      <trkpt lat="41.9016320" lon="-8.8710020">
        <ele>31.3</ele>
        <time>2021-05-18T16:54:33Z</time>
      </trkpt>
      <trkpt lat="41.9016250" lon="-8.8709560">
        <ele>31.5</ele>
        <time>2021-05-18T16:54:34Z</time>
      </trkpt>
      <trkpt lat="41.9016060" lon="-8.8709220">
        <ele>31.6</ele>
        <time>2021-05-18T16:54:35Z</time>
      </trkpt>
      <trkpt lat="41.9016040" lon="-8.8708840">
        <ele>31.7</ele>
        <time>2021-05-18T16:54:36Z</time>
      </trkpt>
      <trkpt lat="41.9015950" lon="-8.8708630">
        <ele>31.8</ele>
        <time>2021-05-18T16:54:37Z</time>
      </trkpt>
      <trkpt lat="41.9015960" lon="-8.8708450">
        <ele>31.9</ele>
        <time>2021-05-18T16:54:38Z</time>
      </trkpt>
      <trkpt lat="41.9015940" lon="-8.8708270">
        <ele>31.9</ele>
        <time>2021-05-18T16:54:39Z</time>
      </trkpt>
      <trkpt lat="41.9016040" lon="-8.8708140">
        <ele>32.0</ele>
        <time>2021-05-18T16:54:40Z</time>
      </trkpt>
      <trkpt lat="41.9016200" lon="-8.8708070">
        <ele>32.1</ele>
        <time>2021-05-18T16:54:41Z</time>
      </trkpt>
      <trkpt lat="41.9016320" lon="-8.8707980">
        <ele>32.2</ele>
        <time>2021-05-18T16:54:42Z</time>
      </trkpt>
      <trkpt lat="41.9016450" lon="-8.8707820">
        <ele>32.2</ele>
        <time>2021-05-18T16:54:43Z</time>
      </trkpt>
      <trkpt lat="41.9016540" lon="-8.8707700">
        <ele>32.3</ele>
        <time>2021-05-18T16:54:44Z</time>
      </trkpt>
      <trkpt lat="41.9016640" lon="-8.8707540">
        <ele>32.4</ele>
        <time>2021-05-18T16:54:45Z</time>
      </trkpt>
      <trkpt lat="41.9016800" lon="-8.8707310">
        <ele>32.5</ele>
        <time>2021-05-18T16:54:46Z</time>
      </trkpt>
      <trkpt lat="41.9016850" lon="-8.8707220">
        <ele>32.5</ele>
        <time>2021-05-18T16:54:47Z</time>
      </trkpt>
      <trkpt lat="41.9016910" lon="-8.8707120">
        <ele>32.6</ele>
        <time>2021-05-18T16:54:48Z</time>
      </trkpt>
      <trkpt lat="41.9016950" lon="-8.8706950">
        <ele>32.6</ele>
        <time>2021-05-18T16:54:49Z</time>
      </trkpt>
      <trkpt lat="41.9016970" lon="-8.8706750">
        <ele>32.7</ele>
        <time>2021-05-18T16:54:50Z</time>
      </trkpt>
      <trkpt lat="41.9016990" lon="-8.8706570">
        <ele>32.8</ele>
        <time>2021-05-18T16:54:51Z</time>
      </trkpt>
      <trkpt lat="41.9017060" lon="-8.8706440">
        <ele>32.8</ele>
        <time>2021-05-18T16:54:52Z</time>
      </trkpt>
      <trkpt lat="41.9017190" lon="-8.8706390">
        <ele>32.9</ele>
        <time>2021-05-18T16:54:53Z</time>
      </trkpt>
      <trkpt lat="41.9017330" lon="-8.8706320">
        <ele>33.0</ele>
        <time>2021-05-18T16:54:54Z</time>
      </trkpt>
      <trkpt lat="41.9017400" lon="-8.8706230">
        <ele>33.0</ele>
        <time>2021-05-18T16:54:55Z</time>
      </trkpt>
      <trkpt lat="41.9017430" lon="-8.8706070">
        <ele>33.1</ele>
        <time>2021-05-18T16:54:56Z</time>
      </trkpt>
      <trkpt lat="41.9017450" lon="-8.8705760">
        <ele>33.2</ele>
        <time>2021-05-18T16:54:57Z</time>
      </trkpt>
      <trkpt lat="41.9017380" lon="-8.8705520">
        <ele>33.3</ele>
        <time>2021-05-18T16:54:58Z</time>
      </trkpt>
      <trkpt lat="41.9017380" lon="-8.8705280">
        <ele>33.4</ele>
        <time>2021-05-18T16:54:59Z</time>
      </trkpt>
      <trkpt lat="41.9017450" lon="-8.8705050">
        <ele>33.5</ele>
        <time>2021-05-18T16:55:00Z</time>
      </trkpt>
      <trkpt lat="41.9017580" lon="-8.8704880">
        <ele>33.5</ele>
        <time>2021-05-18T16:55:01Z</time>
      </trkpt>
      <trkpt lat="41.9017700" lon="-8.8704730">
        <ele>33.6</ele>
        <time>2021-05-18T16:55:02Z</time>
      </trkpt>
      <trkpt lat="41.9017860" lon="-8.8704500">
        <ele>33.7</ele>
        <time>2021-05-18T16:55:03Z</time>
      </trkpt>
      <trkpt lat="41.9017900" lon="-8.8704400">
        <ele>33.8</ele>
        <time>2021-05-18T16:55:04Z</time>
      </trkpt>
      <trkpt lat="41.9017950" lon="-8.8704310">
        <ele>33.8</ele>
        <time>2021-05-18T16:55:05Z</time>
      </trkpt>
      <trkpt lat="41.9018040" lon="-8.8704210">
        <ele>33.9</ele>
        <time>2021-05-18T16:55:06Z</time>
      </trkpt>
      <trkpt lat="41.9018140" lon="-8.8704130">
        <ele>33.9</ele>
        <time>2021-05-18T16:55:07Z</time>
      </trkpt>
      <trkpt lat="41.9018200" lon="-8.8704090">
        <ele>33.9</ele>
        <time>2021-05-18T16:55:08Z</time>
      </trkpt>
      <trkpt lat="41.9018410" lon="-8.8704050">
        <ele>34.0</ele>
        <time>2021-05-18T16:55:09Z</time>
      </trkpt>
      <trkpt lat="41.9018550" lon="-8.8704080">
        <ele>34.1</ele>
        <time>2021-05-18T16:55:10Z</time>
      </trkpt>
      <trkpt lat="41.9018690" lon="-8.8704100">
        <ele>34.2</ele>
        <time>2021-05-18T16:55:11Z</time>
      </trkpt>
      <trkpt lat="41.9018860" lon="-8.8704080">
        <ele>34.2</ele>
        <time>2021-05-18T16:55:12Z</time>
      </trkpt>
      <trkpt lat="41.9018990" lon="-8.8704040">
        <ele>34.3</ele>
        <time>2021-05-18T16:55:13Z</time>
      </trkpt>
      <trkpt lat="41.9019030" lon="-8.8703930">
        <ele>34.3</ele>
        <time>2021-05-18T16:55:14Z</time>
      </trkpt>
      <trkpt lat="41.9019120" lon="-8.8703840">
        <ele>34.4</ele>
        <time>2021-05-18T16:55:15Z</time>
      </trkpt>
      <trkpt lat="41.9019210" lon="-8.8703730">
        <ele>34.4</ele>
        <time>2021-05-18T16:55:16Z</time>
      </trkpt>
      <trkpt lat="41.9019280" lon="-8.8703630">
        <ele>34.5</ele>
        <time>2021-05-18T16:55:17Z</time>
      </trkpt>
      <trkpt lat="41.9019430" lon="-8.8703540">
        <ele>34.5</ele>
        <time>2021-05-18T16:55:18Z</time>
      </trkpt>
      <trkpt lat="41.9019440" lon="-8.8703490">
        <ele>34.6</ele>
        <time>2021-05-18T16:55:19Z</time>
      </trkpt>
      <trkpt lat="41.9019550" lon="-8.8703450">
        <ele>34.6</ele>
        <time>2021-05-18T16:55:20Z</time>
      </trkpt>
      <trkpt lat="41.9019660" lon="-8.8703390">
        <ele>34.7</ele>
        <time>2021-05-18T16:55:21Z</time>
      </trkpt>
      <trkpt lat="41.9019750" lon="-8.8703280">
        <ele>34.7</ele>
        <time>2021-05-18T16:55:22Z</time>
      </trkpt>
      <trkpt lat="41.9019840" lon="-8.8703210">
        <ele>34.8</ele>
        <time>2021-05-18T16:55:23Z</time>
      </trkpt>
      <trkpt lat="41.9019930" lon="-8.8703070">
        <ele>34.8</ele>
        <time>2021-05-18T16:55:24Z</time>
      </trkpt>
      <trkpt lat="41.9019970" lon="-8.8702950">
        <ele>34.9</ele>
        <time>2021-05-18T16:55:25Z</time>
      </trkpt>
      <trkpt lat="41.9019730" lon="-8.8702650">
        <ele>35.0</ele>
        <time>2021-05-18T16:55:26Z</time>
      </trkpt>
      <trkpt lat="41.9019570" lon="-8.8702550">
        <ele>35.1</ele>
        <time>2021-05-18T16:55:27Z</time>
      </trkpt>
      <trkpt lat="41.9019410" lon="-8.8702170">
        <ele>35.2</ele>
        <time>2021-05-18T16:55:28Z</time>
      </trkpt>
      <trkpt lat="41.9019340" lon="-8.8702030">
        <ele>35.2</ele>
        <time>2021-05-18T16:55:29Z</time>
      </trkpt>
      <trkpt lat="41.9019270" lon="-8.8701850">
        <ele>35.2</ele>
        <time>2021-05-18T16:55:30Z</time>
      </trkpt>
      <trkpt lat="41.9019140" lon="-8.8701680">
        <ele>35.2</ele>
        <time>2021-05-18T16:55:31Z</time>
      </trkpt>
      <trkpt lat="41.9019060" lon="-8.8701520">
        <ele>35.2</ele>
        <time>2021-05-18T16:55:32Z</time>
      </trkpt>
      <trkpt lat="41.9019020" lon="-8.8701460">
        <ele>35.2</ele>
        <time>2021-05-18T16:55:33Z</time>
      </trkpt>
      <trkpt lat="41.9018940" lon="-8.8701350">
        <ele>35.2</ele>
        <time>2021-05-18T16:55:34Z</time>
      </trkpt>
      <trkpt lat="41.9018840" lon="-8.8701010">
        <ele>35.2</ele>
        <time>2021-05-18T16:55:35Z</time>
      </trkpt>
      <trkpt lat="41.9018800" lon="-8.8700870">
        <ele>35.2</ele>
        <time>2021-05-18T16:55:36Z</time>
      </trkpt>
      <trkpt lat="41.9018780" lon="-8.8700710">
        <ele>35.2</ele>
        <time>2021-05-18T16:55:37Z</time>
      </trkpt>
      <trkpt lat="41.9018780" lon="-8.8700710">
        <ele>35.2</ele>
        <time>2021-05-18T16:55:38Z</time>
      </trkpt>
      <trkpt lat="41.9018760" lon="-8.8700580">
        <ele>35.2</ele>
        <time>2021-05-18T16:55:39Z</time>
      </trkpt>
      <trkpt lat="41.9018660" lon="-8.8700530">
        <ele>35.2</ele>
        <time>2021-05-18T16:55:40Z</time>
      </trkpt>
      <trkpt lat="41.9018570" lon="-8.8700420">
        <ele>35.2</ele>
        <time>2021-05-18T16:55:41Z</time>
      </trkpt>
      <trkpt lat="41.9018530" lon="-8.8700350">
        <ele>35.2</ele>
        <time>2021-05-18T16:55:42Z</time>
      </trkpt>
      <trkpt lat="41.9018390" lon="-8.8700210">
        <ele>35.2</ele>
        <time>2021-05-18T16:55:43Z</time>
      </trkpt>
      <trkpt lat="41.9018300" lon="-8.8700120">
        <ele>35.2</ele>
        <time>2021-05-18T16:55:44Z</time>
      </trkpt>
      <trkpt lat="41.9018220" lon="-8.8700050">
        <ele>35.1</ele>
        <time>2021-05-18T16:55:45Z</time>
      </trkpt>
      <trkpt lat="41.9018120" lon="-8.8699970">
        <ele>35.1</ele>
        <time>2021-05-18T16:55:46Z</time>
      </trkpt>
      <trkpt lat="41.9018090" lon="-8.8699890">
        <ele>35.1</ele>
        <time>2021-05-18T16:55:47Z</time>
      </trkpt>
      <trkpt lat="41.9018060" lon="-8.8699830">
        <ele>35.1</ele>
        <time>2021-05-18T16:55:48Z</time>
      </trkpt>
      <trkpt lat="41.9018000" lon="-8.8699740">
        <ele>35.1</ele>
        <time>2021-05-18T16:55:49Z</time>
      </trkpt>
      <trkpt lat="41.9017940" lon="-8.8699630">
        <ele>35.1</ele>
        <time>2021-05-18T16:55:50Z</time>
      </trkpt>
      <trkpt lat="41.9017880" lon="-8.8699510">
        <ele>35.2</ele>
        <time>2021-05-18T16:55:51Z</time>
      </trkpt>
      <trkpt lat="41.9017800" lon="-8.8699410">
        <ele>35.2</ele>
        <time>2021-05-18T16:55:52Z</time>
      </trkpt>
      <trkpt lat="41.9017740" lon="-8.8699300">
        <ele>35.3</ele>
        <time>2021-05-18T16:55:53Z</time>
      </trkpt>
      <trkpt lat="41.9017690" lon="-8.8699200">
        <ele>35.4</ele>
        <time>2021-05-18T16:55:54Z</time>
      </trkpt>
      <trkpt lat="41.9017600" lon="-8.8699120">
        <ele>35.5</ele>
        <time>2021-05-18T16:55:55Z</time>
      </trkpt>
      <trkpt lat="41.9017570" lon="-8.8698880">
        <ele>35.6</ele>
        <time>2021-05-18T16:55:56Z</time>
      </trkpt>
      <trkpt lat="41.9017490" lon="-8.8698590">
        <ele>35.8</ele>
        <time>2021-05-18T16:55:57Z</time>
      </trkpt>
      <trkpt lat="41.9017460" lon="-8.8698490">
        <ele>35.9</ele>
        <time>2021-05-18T16:55:58Z</time>
      </trkpt>
      <trkpt lat="41.9017440" lon="-8.8698400">
        <ele>35.9</ele>
        <time>2021-05-18T16:55:59Z</time>
      </trkpt>
      <trkpt lat="41.9017480" lon="-8.8698360">
        <ele>35.9</ele>
        <time>2021-05-18T16:56:00Z</time>
      </trkpt>
      <trkpt lat="41.9017460" lon="-8.8698260">
        <ele>36.0</ele>
        <time>2021-05-18T16:56:01Z</time>
      </trkpt>
      <trkpt lat="41.9017410" lon="-8.8698180">
        <ele>36.1</ele>
        <time>2021-05-18T16:56:02Z</time>
      </trkpt>
      <trkpt lat="41.9017400" lon="-8.8698000">
        <ele>36.2</ele>
        <time>2021-05-18T16:56:03Z</time>
      </trkpt>
      <trkpt lat="41.9017350" lon="-8.8697900">
        <ele>36.2</ele>
        <time>2021-05-18T16:56:04Z</time>
      </trkpt>
      <trkpt lat="41.9017320" lon="-8.8697780">
        <ele>36.3</ele>
        <time>2021-05-18T16:56:05Z</time>
      </trkpt>
      <trkpt lat="41.9017300" lon="-8.8697730">
        <ele>36.3</ele>
        <time>2021-05-18T16:56:06Z</time>
      </trkpt>
      <trkpt lat="41.9017250" lon="-8.8697730">
        <ele>36.4</ele>
        <time>2021-05-18T16:56:07Z</time>
      </trkpt>
      <trkpt lat="41.9017210" lon="-8.8697680">
        <ele>36.4</ele>
        <time>2021-05-18T16:56:08Z</time>
      </trkpt>
      <trkpt lat="41.9017160" lon="-8.8697750">
        <ele>36.4</ele>
        <time>2021-05-18T16:56:09Z</time>
      </trkpt>
      <trkpt lat="41.9017120" lon="-8.8697820">
        <ele>36.5</ele>
        <time>2021-05-18T16:56:10Z</time>
      </trkpt>
      <trkpt lat="41.9017060" lon="-8.8697920">
        <ele>36.5</ele>
        <time>2021-05-18T16:56:11Z</time>
      </trkpt>
      <trkpt lat="41.9017010" lon="-8.8698000">
        <ele>36.6</ele>
        <time>2021-05-18T16:56:12Z</time>
      </trkpt>
      <trkpt lat="41.9016940" lon="-8.8698100">
        <ele>36.7</ele>
        <time>2021-05-18T16:56:13Z</time>
      </trkpt>
      <trkpt lat="41.9016830" lon="-8.8698190">
        <ele>36.7</ele>
        <time>2021-05-18T16:56:14Z</time>
      </trkpt>
      <trkpt lat="41.9016750" lon="-8.8698210">
        <ele>36.8</ele>
        <time>2021-05-18T16:56:15Z</time>
      </trkpt>
      <trkpt lat="41.9016630" lon="-8.8698290">
        <ele>36.9</ele>
        <time>2021-05-18T16:56:16Z</time>
      </trkpt>
      <trkpt lat="41.9016530" lon="-8.8698190">
        <ele>36.9</ele>
        <time>2021-05-18T16:56:17Z</time>
      </trkpt>
      <trkpt lat="41.9016510" lon="-8.8697840">
        <ele>37.1</ele>
        <time>2021-05-18T16:56:18Z</time>
      </trkpt>
      <trkpt lat="41.9016470" lon="-8.8697440">
        <ele>37.3</ele>
        <time>2021-05-18T16:56:19Z</time>
      </trkpt>
      <trkpt lat="41.9016350" lon="-8.8697340">
        <ele>37.4</ele>
        <time>2021-05-18T16:56:20Z</time>
      </trkpt>
      <trkpt lat="41.9016230" lon="-8.8697270">
        <ele>37.4</ele>
        <time>2021-05-18T16:56:21Z</time>
      </trkpt>
      <trkpt lat="41.9016090" lon="-8.8697190">
        <ele>37.5</ele>
        <time>2021-05-18T16:56:22Z</time>
      </trkpt>
      <trkpt lat="41.9015940" lon="-8.8697110">
        <ele>37.6</ele>
        <time>2021-05-18T16:56:23Z</time>
      </trkpt>
      <trkpt lat="41.9015800" lon="-8.8696930">
        <ele>37.7</ele>
        <time>2021-05-18T16:56:24Z</time>
      </trkpt>
      <trkpt lat="41.9015760" lon="-8.8696820">
        <ele>37.8</ele>
        <time>2021-05-18T16:56:25Z</time>
      </trkpt>
      <trkpt lat="41.9015710" lon="-8.8696710">
        <ele>37.8</ele>
        <time>2021-05-18T16:56:26Z</time>
      </trkpt>
      <trkpt lat="41.9015640" lon="-8.8696550">
        <ele>37.9</ele>
        <time>2021-05-18T16:56:27Z</time>
      </trkpt>
      <trkpt lat="41.9015670" lon="-8.8696230">
        <ele>38.0</ele>
        <time>2021-05-18T16:56:28Z</time>
      </trkpt>
      <trkpt lat="41.9015620" lon="-8.8696010">
        <ele>38.1</ele>
        <time>2021-05-18T16:56:29Z</time>
      </trkpt>
      <trkpt lat="41.9015550" lon="-8.8695850">
        <ele>38.2</ele>
        <time>2021-05-18T16:56:30Z</time>
      </trkpt>
      <trkpt lat="41.9015610" lon="-8.8695520">
        <ele>38.4</ele>
        <time>2021-05-18T16:56:31Z</time>
      </trkpt>
      <trkpt lat="41.9015640" lon="-8.8695370">
        <ele>39.0</ele>
        <time>2021-05-18T16:56:32Z</time>
      </trkpt>
      <trkpt lat="41.9015730" lon="-8.8695260">
        <ele>39.1</ele>
        <time>2021-05-18T16:56:33Z</time>
      </trkpt>
      <trkpt lat="41.9015770" lon="-8.8695130">
        <ele>39.2</ele>
        <time>2021-05-18T16:56:34Z</time>
      </trkpt>
      <trkpt lat="41.9015820" lon="-8.8694950">
        <ele>39.4</ele>
        <time>2021-05-18T16:56:35Z</time>
      </trkpt>
      <trkpt lat="41.9016000" lon="-8.8694610">
        <ele>39.7</ele>
        <time>2021-05-18T16:56:36Z</time>
      </trkpt>
      <trkpt lat="41.9016050" lon="-8.8694520">
        <ele>39.8</ele>
        <time>2021-05-18T16:56:37Z</time>
      </trkpt>
      <trkpt lat="41.9016110" lon="-8.8694430">
        <ele>39.9</ele>
        <time>2021-05-18T16:56:38Z</time>
      </trkpt>
      <trkpt lat="41.9016110" lon="-8.8694930">
        <ele>38.4</ele>
        <time>2021-05-19T04:53:28Z</time>
      </trkpt>
      <trkpt lat="41.9016020" lon="-8.8694700">
        <ele>38.3</ele>
        <time>2021-05-19T04:53:29Z</time>
      </trkpt>
      <trkpt lat="41.9015990" lon="-8.8694540">
        <ele>38.2</ele>
        <time>2021-05-19T04:53:30Z</time>
      </trkpt>
      <trkpt lat="41.9015920" lon="-8.8694420">
        <ele>38.2</ele>
        <time>2021-05-19T04:53:31Z</time>
      </trkpt>
      <trkpt lat="41.9015840" lon="-8.8694370">
        <ele>38.2</ele>
        <time>2021-05-19T04:53:32Z</time>
      </trkpt>
      <trkpt lat="41.9015820" lon="-8.8694360">
        <ele>38.2</ele>
        <time>2021-05-19T04:53:33Z</time>
      </trkpt>
      <trkpt lat="41.9015910" lon="-8.8694340">
        <ele>38.1</ele>
        <time>2021-05-19T04:53:34Z</time>
      </trkpt>
      <trkpt lat="41.9016060" lon="-8.8694280">
        <ele>38.1</ele>
        <time>2021-05-19T04:53:35Z</time>
      </trkpt>
      <trkpt lat="41.9016110" lon="-8.8694190">
        <ele>38.0</ele>
        <time>2021-05-19T04:53:36Z</time>
      </trkpt>
      <trkpt lat="41.9016200" lon="-8.8694330">
        <ele>38.0</ele>
        <time>2021-05-19T04:53:37Z</time>
      </trkpt>
      <trkpt lat="41.9016310" lon="-8.8694310">
        <ele>37.9</ele>
        <time>2021-05-19T04:53:38Z</time>
      </trkpt>
      <trkpt lat="41.9016310" lon="-8.8694310">
        <ele>37.9</ele>
        <time>2021-05-19T04:53:39Z</time>
      </trkpt>
      <trkpt lat="41.9016310" lon="-8.8694280">
        <ele>37.9</ele>
        <time>2021-05-19T04:53:40Z</time>
      </trkpt>
      <trkpt lat="41.9016380" lon="-8.8694370">
        <ele>37.9</ele>
        <time>2021-05-19T04:53:41Z</time>
      </trkpt>
      <trkpt lat="41.9016460" lon="-8.8694380">
        <ele>37.9</ele>
        <time>2021-05-19T04:53:42Z</time>
      </trkpt>
      <trkpt lat="41.9016440" lon="-8.8694470">
        <ele>37.8</ele>
        <time>2021-05-19T04:53:43Z</time>
      </trkpt>
      <trkpt lat="41.9016460" lon="-8.8694540">
        <ele>37.8</ele>
        <time>2021-05-19T04:53:44Z</time>
      </trkpt>
      <trkpt lat="41.9016290" lon="-8.8694710">
        <ele>37.7</ele>
        <time>2021-05-19T04:53:45Z</time>
      </trkpt>
      <trkpt lat="41.9016210" lon="-8.8694760">
        <ele>37.7</ele>
        <time>2021-05-19T04:53:46Z</time>
      </trkpt>
      <trkpt lat="41.9016140" lon="-8.8694800">
        <ele>37.7</ele>
        <time>2021-05-19T04:53:47Z</time>
      </trkpt>
      <trkpt lat="41.9016110" lon="-8.8694930">
        <ele>37.6</ele>
        <time>2021-05-19T04:53:48Z</time>
      </trkpt>
      <trkpt lat="41.9016060" lon="-8.8695060">
        <ele>37.6</ele>
        <time>2021-05-19T04:53:49Z</time>
      </trkpt>
      <trkpt lat="41.9016040" lon="-8.8695260">
        <ele>37.5</ele>
        <time>2021-05-19T04:53:50Z</time>
      </trkpt>
      <trkpt lat="41.9015960" lon="-8.8695320">
        <ele>37.5</ele>
        <time>2021-05-19T04:53:51Z</time>
      </trkpt>
      <trkpt lat="41.9015690" lon="-8.8695280">
        <ele>37.4</ele>
        <time>2021-05-19T04:53:52Z</time>
      </trkpt>
      <trkpt lat="41.9015540" lon="-8.8695260">
        <ele>37.3</ele>
        <time>2021-05-19T04:53:53Z</time>
      </trkpt>
      <trkpt lat="41.9015400" lon="-8.8695290">
        <ele>37.3</ele>
        <time>2021-05-19T04:53:54Z</time>
      </trkpt>
      <trkpt lat="41.9015420" lon="-8.8695340">
        <ele>37.3</ele>
        <time>2021-05-19T04:53:55Z</time>
      </trkpt>
      <trkpt lat="41.9015450" lon="-8.8695420">
        <ele>37.2</ele>
        <time>2021-05-19T04:53:56Z</time>
      </trkpt>
      <trkpt lat="41.9015500" lon="-8.8695540">
        <ele>37.2</ele>
        <time>2021-05-19T04:53:57Z</time>
      </trkpt>
      <trkpt lat="41.9015610" lon="-8.8695670">
        <ele>37.2</ele>
        <time>2021-05-19T04:53:58Z</time>
      </trkpt>
      <trkpt lat="41.9015730" lon="-8.8696040">
        <ele>37.0</ele>
        <time>2021-05-19T04:53:59Z</time>
      </trkpt>
      <trkpt lat="41.9015750" lon="-8.8696360">
        <ele>36.9</ele>
        <time>2021-05-19T04:54:00Z</time>
      </trkpt>
      <trkpt lat="41.9015820" lon="-8.8696360">
        <ele>36.9</ele>
        <time>2021-05-19T04:54:01Z</time>
      </trkpt>
      <trkpt lat="41.9015790" lon="-8.8696340">
        <ele>36.9</ele>
        <time>2021-05-19T04:54:02Z</time>
      </trkpt>
      <trkpt lat="41.9015950" lon="-8.8696460">
        <ele>36.8</ele>
        <time>2021-05-19T04:54:03Z</time>
      </trkpt>
      <trkpt lat="41.9016030" lon="-8.8696470">
        <ele>36.8</ele>
        <time>2021-05-19T04:54:04Z</time>
      </trkpt>
      <trkpt lat="41.9016190" lon="-8.8696610">
        <ele>36.7</ele>
        <time>2021-05-19T04:54:05Z</time>
      </trkpt>
      <trkpt lat="41.9016270" lon="-8.8696650">
        <ele>36.7</ele>
        <time>2021-05-19T04:54:06Z</time>
      </trkpt>
      <trkpt lat="41.9016360" lon="-8.8696700">
        <ele>36.6</ele>
        <time>2021-05-19T04:54:07Z</time>
      </trkpt>
      <trkpt lat="41.9016440" lon="-8.8696750">
        <ele>36.6</ele>
        <time>2021-05-19T04:54:08Z</time>
      </trkpt>
      <trkpt lat="41.9016580" lon="-8.8696810">
        <ele>36.5</ele>
        <time>2021-05-19T04:54:09Z</time>
      </trkpt>
      <trkpt lat="41.9016720" lon="-8.8696920">
        <ele>36.5</ele>
        <time>2021-05-19T04:54:10Z</time>
      </trkpt>
      <trkpt lat="41.9016820" lon="-8.8696910">
        <ele>36.4</ele>
        <time>2021-05-19T04:54:11Z</time>
      </trkpt>
      <trkpt lat="41.9016830" lon="-8.8697050">
        <ele>36.4</ele>
        <time>2021-05-19T04:54:12Z</time>
      </trkpt>
      <trkpt lat="41.9016900" lon="-8.8697120">
        <ele>36.3</ele>
        <time>2021-05-19T04:54:13Z</time>
      </trkpt>
      <trkpt lat="41.9017020" lon="-8.8697070">
        <ele>36.3</ele>
        <time>2021-05-19T04:54:14Z</time>
      </trkpt>
      <trkpt lat="41.9017220" lon="-8.8697150">
        <ele>36.2</ele>
        <time>2021-05-19T04:54:15Z</time>
      </trkpt>
      <trkpt lat="41.9017290" lon="-8.8697230">
        <ele>36.1</ele>
        <time>2021-05-19T04:54:16Z</time>
      </trkpt>
      <trkpt lat="41.9017370" lon="-8.8697300">
        <ele>36.1</ele>
        <time>2021-05-19T04:54:17Z</time>
      </trkpt>
      <trkpt lat="41.9017430" lon="-8.8697280">
        <ele>36.1</ele>
        <time>2021-05-19T04:54:18Z</time>
      </trkpt>
      <trkpt lat="41.9017490" lon="-8.8697360">
        <ele>36.0</ele>
        <time>2021-05-19T04:54:19Z</time>
      </trkpt>
      <trkpt lat="41.9017640" lon="-8.8697450">
        <ele>35.9</ele>
        <time>2021-05-19T04:54:20Z</time>
      </trkpt>
      <trkpt lat="41.9017640" lon="-8.8697710">
        <ele>35.9</ele>
        <time>2021-05-19T04:54:21Z</time>
      </trkpt>
      <trkpt lat="41.9017690" lon="-8.8697820">
        <ele>35.8</ele>
        <time>2021-05-19T04:54:22Z</time>
      </trkpt>
      <trkpt lat="41.9017780" lon="-8.8698050">
        <ele>35.7</ele>
        <time>2021-05-19T04:54:23Z</time>
      </trkpt>
      <trkpt lat="41.9017830" lon="-8.8698060">
        <ele>35.7</ele>
        <time>2021-05-19T04:54:24Z</time>
      </trkpt>
      <trkpt lat="41.9017910" lon="-8.8698200">
        <ele>35.6</ele>
        <time>2021-05-19T04:54:25Z</time>
      </trkpt>
      <trkpt lat="41.9017940" lon="-8.8698570">
        <ele>35.5</ele>
        <time>2021-05-19T04:54:26Z</time>
      </trkpt>
      <trkpt lat="41.9017970" lon="-8.8698640">
        <ele>35.4</ele>
        <time>2021-05-19T04:54:27Z</time>
      </trkpt>
      <trkpt lat="41.9017990" lon="-8.8698710">
        <ele>35.4</ele>
        <time>2021-05-19T04:54:28Z</time>
      </trkpt>
      <trkpt lat="41.9018020" lon="-8.8698780">
        <ele>35.4</ele>
        <time>2021-05-19T04:54:29Z</time>
      </trkpt>
      <trkpt lat="41.9018130" lon="-8.8699110">
        <ele>35.2</ele>
        <time>2021-05-19T04:54:30Z</time>
      </trkpt>
      <trkpt lat="41.9018140" lon="-8.8699280">
        <ele>35.2</ele>
        <time>2021-05-19T04:54:31Z</time>
      </trkpt>
      <trkpt lat="41.9018160" lon="-8.8699460">
        <ele>35.1</ele>
        <time>2021-05-19T04:54:32Z</time>
      </trkpt>
      <trkpt lat="41.9018090" lon="-8.8699940">
        <ele>35.1</ele>
        <time>2021-05-19T04:54:33Z</time>
      </trkpt>
      <trkpt lat="41.9018090" lon="-8.8700320">
        <ele>35.2</ele>
        <time>2021-05-19T04:54:34Z</time>
      </trkpt>
      <trkpt lat="41.9018140" lon="-8.8700670">
        <ele>35.2</ele>
        <time>2021-05-19T04:54:35Z</time>
      </trkpt>
      <trkpt lat="41.9018170" lon="-8.8700710">
        <ele>35.2</ele>
        <time>2021-05-19T04:54:36Z</time>
      </trkpt>
      <trkpt lat="41.9018200" lon="-8.8700880">
        <ele>35.2</ele>
        <time>2021-05-19T04:54:37Z</time>
      </trkpt>
      <trkpt lat="41.9018220" lon="-8.8701120">
        <ele>35.2</ele>
        <time>2021-05-19T04:54:38Z</time>
      </trkpt>
      <trkpt lat="41.9018180" lon="-8.8701580">
        <ele>35.2</ele>
        <time>2021-05-19T04:54:39Z</time>
      </trkpt>
      <trkpt lat="41.9018160" lon="-8.8701750">
        <ele>35.2</ele>
        <time>2021-05-19T04:54:40Z</time>
      </trkpt>
      <trkpt lat="41.9018160" lon="-8.8702000">
        <ele>35.2</ele>
        <time>2021-05-19T04:54:41Z</time>
      </trkpt>
      <trkpt lat="41.9018230" lon="-8.8702190">
        <ele>35.2</ele>
        <time>2021-05-19T04:54:42Z</time>
      </trkpt>
      <trkpt lat="41.9018320" lon="-8.8702450">
        <ele>35.2</ele>
        <time>2021-05-19T04:54:43Z</time>
      </trkpt>
      <trkpt lat="41.9018360" lon="-8.8702540">
        <ele>35.2</ele>
        <time>2021-05-19T04:54:44Z</time>
      </trkpt>
      <trkpt lat="41.9018400" lon="-8.8702630">
        <ele>35.3</ele>
        <time>2021-05-19T04:54:45Z</time>
      </trkpt>
      <trkpt lat="41.9018510" lon="-8.8702840">
        <ele>35.3</ele>
        <time>2021-05-19T04:54:46Z</time>
      </trkpt>
      <trkpt lat="41.9018500" lon="-8.8702880">
        <ele>35.3</ele>
        <time>2021-05-19T04:54:47Z</time>
      </trkpt>
      <trkpt lat="41.9018540" lon="-8.8702970">
        <ele>35.3</ele>
        <time>2021-05-19T04:54:48Z</time>
      </trkpt>
      <trkpt lat="41.9018590" lon="-8.8702940">
        <ele>35.3</ele>
        <time>2021-05-19T04:54:49Z</time>
      </trkpt>
      <trkpt lat="41.9018690" lon="-8.8703100">
        <ele>35.3</ele>
        <time>2021-05-19T04:54:50Z</time>
      </trkpt>
      <trkpt lat="41.9018740" lon="-8.8703120">
        <ele>35.3</ele>
        <time>2021-05-19T04:54:51Z</time>
      </trkpt>
      <trkpt lat="41.9018820" lon="-8.8703170">
        <ele>35.3</ele>
        <time>2021-05-19T04:54:52Z</time>
      </trkpt>
      <trkpt lat="41.9018900" lon="-8.8703230">
        <ele>35.3</ele>
        <time>2021-05-19T04:54:53Z</time>
      </trkpt>
      <trkpt lat="41.9018950" lon="-8.8703350">
        <ele>35.3</ele>
        <time>2021-05-19T04:54:54Z</time>
      </trkpt>
      <trkpt lat="41.9019020" lon="-8.8703450">
        <ele>35.3</ele>
        <time>2021-05-19T04:54:55Z</time>
      </trkpt>
      <trkpt lat="41.9019150" lon="-8.8703530">
        <ele>35.3</ele>
        <time>2021-05-19T04:54:56Z</time>
      </trkpt>
      <trkpt lat="41.9019240" lon="-8.8703560">
        <ele>35.3</ele>
        <time>2021-05-19T04:54:57Z</time>
      </trkpt>
      <trkpt lat="41.9019340" lon="-8.8703600">
        <ele>35.3</ele>
        <time>2021-05-19T04:54:58Z</time>
      </trkpt>
      <trkpt lat="41.9019470" lon="-8.8703530">
        <ele>35.3</ele>
        <time>2021-05-19T04:54:59Z</time>
      </trkpt>
      <trkpt lat="41.9019560" lon="-8.8703510">
        <ele>35.3</ele>
        <time>2021-05-19T04:55:00Z</time>
      </trkpt>
      <trkpt lat="41.9019650" lon="-8.8703580">
        <ele>35.3</ele>
        <time>2021-05-19T04:55:01Z</time>
      </trkpt>
      <trkpt lat="41.9019750" lon="-8.8703540">
        <ele>35.4</ele>
        <time>2021-05-19T04:55:02Z</time>
      </trkpt>
      <trkpt lat="41.9019810" lon="-8.8703540">
        <ele>35.4</ele>
        <time>2021-05-19T04:55:03Z</time>
      </trkpt>
      <trkpt lat="41.9019860" lon="-8.8703600">
        <ele>35.4</ele>
        <time>2021-05-19T04:55:04Z</time>
      </trkpt>
      <trkpt lat="41.9019920" lon="-8.8703580">
        <ele>35.4</ele>
        <time>2021-05-19T04:55:05Z</time>
      </trkpt>
      <trkpt lat="41.9019970" lon="-8.8703610">
        <ele>35.4</ele>
        <time>2021-05-19T04:55:06Z</time>
      </trkpt>
      <trkpt lat="41.9020070" lon="-8.8703730">
        <ele>35.4</ele>
        <time>2021-05-19T04:55:07Z</time>
      </trkpt>
      <trkpt lat="41.9020150" lon="-8.8703820">
        <ele>35.4</ele>
        <time>2021-05-19T04:55:08Z</time>
      </trkpt>
      <trkpt lat="41.9020240" lon="-8.8703860">
        <ele>35.4</ele>
        <time>2021-05-19T04:55:09Z</time>
      </trkpt>
      <trkpt lat="41.9020360" lon="-8.8703900">
        <ele>35.4</ele>
        <time>2021-05-19T04:55:10Z</time>
      </trkpt>
      <trkpt lat="41.9020470" lon="-8.8703950">
        <ele>35.4</ele>
        <time>2021-05-19T04:55:11Z</time>
      </trkpt>
      <trkpt lat="41.9020660" lon="-8.8704080">
        <ele>35.5</ele>
        <time>2021-05-19T04:55:12Z</time>
      </trkpt>
      <trkpt lat="41.9020750" lon="-8.8704140">
        <ele>35.5</ele>
        <time>2021-05-19T04:55:13Z</time>
      </trkpt>
      <trkpt lat="41.9020850" lon="-8.8704210">
        <ele>35.5</ele>
        <time>2021-05-19T04:55:14Z</time>
      </trkpt>
      <trkpt lat="41.9020910" lon="-8.8704220">
        <ele>35.5</ele>
        <time>2021-05-19T04:55:15Z</time>
      </trkpt>
      <trkpt lat="41.9021010" lon="-8.8704200">
        <ele>35.5</ele>
        <time>2021-05-19T04:55:16Z</time>
      </trkpt>
      <trkpt lat="41.9021140" lon="-8.8704300">
        <ele>35.5</ele>
        <time>2021-05-19T04:55:17Z</time>
      </trkpt>
      <trkpt lat="41.9021320" lon="-8.8704480">
        <ele>35.6</ele>
        <time>2021-05-19T04:55:18Z</time>
      </trkpt>
      <trkpt lat="41.9021420" lon="-8.8704530">
        <ele>35.6</ele>
        <time>2021-05-19T04:55:19Z</time>
      </trkpt>
      <trkpt lat="41.9021530" lon="-8.8704580">
        <ele>35.6</ele>
        <time>2021-05-19T04:55:20Z</time>
      </trkpt>
      <trkpt lat="41.9021660" lon="-8.8704630">
        <ele>35.6</ele>
        <time>2021-05-19T04:55:21Z</time>
      </trkpt>
      <trkpt lat="41.9021740" lon="-8.8704660">
        <ele>35.6</ele>
        <time>2021-05-19T04:55:22Z</time>
      </trkpt>
      <trkpt lat="41.9021810" lon="-8.8704700">
        <ele>35.7</ele>
        <time>2021-05-19T04:55:23Z</time>
      </trkpt>
      <trkpt lat="41.9021880" lon="-8.8704740">
        <ele>35.7</ele>
        <time>2021-05-19T04:55:24Z</time>
      </trkpt>
      <trkpt lat="41.9022180" lon="-8.8704900">
        <ele>35.7</ele>
        <time>2021-05-19T04:55:25Z</time>
      </trkpt>
      <trkpt lat="41.9022270" lon="-8.8704950">
        <ele>35.8</ele>
        <time>2021-05-19T04:55:26Z</time>
      </trkpt>
      <trkpt lat="41.9022370" lon="-8.8705050">
        <ele>35.8</ele>
        <time>2021-05-19T04:55:27Z</time>
      </trkpt>
      <trkpt lat="41.9022580" lon="-8.8705140">
        <ele>35.8</ele>
        <time>2021-05-19T04:55:28Z</time>
      </trkpt>
      <trkpt lat="41.9022730" lon="-8.8705250">
        <ele>35.9</ele>
        <time>2021-05-19T04:55:29Z</time>
      </trkpt>
      <trkpt lat="41.9022830" lon="-8.8705370">
        <ele>35.9</ele>
        <time>2021-05-19T04:55:30Z</time>
      </trkpt>
      <trkpt lat="41.9022960" lon="-8.8705470">
        <ele>36.0</ele>
        <time>2021-05-19T04:55:31Z</time>
      </trkpt>
      <trkpt lat="41.9023100" lon="-8.8705520">
        <ele>36.0</ele>
        <time>2021-05-19T04:55:32Z</time>
      </trkpt>
      <trkpt lat="41.9023230" lon="-8.8705580">
        <ele>36.0</ele>
        <time>2021-05-19T04:55:33Z</time>
      </trkpt>
      <trkpt lat="41.9023390" lon="-8.8705540">
        <ele>36.1</ele>
        <time>2021-05-19T04:55:34Z</time>
      </trkpt>
      <trkpt lat="41.9023490" lon="-8.8705470">
        <ele>36.1</ele>
        <time>2021-05-19T04:55:35Z</time>
      </trkpt>
      <trkpt lat="41.9023680" lon="-8.8705550">
        <ele>36.2</ele>
        <time>2021-05-19T04:55:36Z</time>
      </trkpt>
      <trkpt lat="41.9023790" lon="-8.8705610">
        <ele>36.2</ele>
        <time>2021-05-19T04:55:37Z</time>
      </trkpt>
      <trkpt lat="41.9023830" lon="-8.8705630">
        <ele>36.2</ele>
        <time>2021-05-19T04:55:38Z</time>
      </trkpt>
      <trkpt lat="41.9023980" lon="-8.8705640">
        <ele>36.3</ele>
        <time>2021-05-19T04:55:39Z</time>
      </trkpt>
      <trkpt lat="41.9024090" lon="-8.8705710">
        <ele>36.3</ele>
        <time>2021-05-19T04:55:40Z</time>
      </trkpt>
      <trkpt lat="41.9024370" lon="-8.8705740">
        <ele>36.4</ele>
        <time>2021-05-19T04:55:41Z</time>
      </trkpt>
      <trkpt lat="41.9024610" lon="-8.8705910">
        <ele>36.5</ele>
        <time>2021-05-19T04:55:42Z</time>
      </trkpt>
      <trkpt lat="41.9024660" lon="-8.8705850">
        <ele>36.5</ele>
        <time>2021-05-19T04:55:43Z</time>
      </trkpt>
      <trkpt lat="41.9024730" lon="-8.8705930">
        <ele>36.5</ele>
        <time>2021-05-19T04:55:44Z</time>
      </trkpt>
      <trkpt lat="41.9024880" lon="-8.8706010">
        <ele>36.6</ele>
        <time>2021-05-19T04:55:45Z</time>
      </trkpt>
      <trkpt lat="41.9024980" lon="-8.8706080">
        <ele>36.6</ele>
        <time>2021-05-19T04:55:46Z</time>
      </trkpt>
      <trkpt lat="41.9025080" lon="-8.8706240">
        <ele>36.7</ele>
        <time>2021-05-19T04:55:47Z</time>
      </trkpt>
      <trkpt lat="41.9025130" lon="-8.8706390">
        <ele>36.7</ele>
        <time>2021-05-19T04:55:48Z</time>
      </trkpt>
      <trkpt lat="41.9025180" lon="-8.8706530">
        <ele>36.7</ele>
        <time>2021-05-19T04:55:49Z</time>
      </trkpt>
      <trkpt lat="41.9025250" lon="-8.8707000">
        <ele>36.8</ele>
        <time>2021-05-19T04:55:50Z</time>
      </trkpt>
      <trkpt lat="41.9025270" lon="-8.8707160">
        <ele>36.8</ele>
        <time>2021-05-19T04:55:51Z</time>
      </trkpt>
      <trkpt lat="41.9025310" lon="-8.8707450">
        <ele>36.8</ele>
        <time>2021-05-19T04:55:52Z</time>
      </trkpt>
      <trkpt lat="41.9025330" lon="-8.8707550">
        <ele>36.8</ele>
        <time>2021-05-19T04:55:53Z</time>
      </trkpt>
      <trkpt lat="41.9025400" lon="-8.8707700">
        <ele>36.8</ele>
        <time>2021-05-19T04:55:54Z</time>
      </trkpt>
      <trkpt lat="41.9025550" lon="-8.8707910">
        <ele>36.8</ele>
        <time>2021-05-19T04:55:55Z</time>
      </trkpt>
      <trkpt lat="41.9025640" lon="-8.8708290">
        <ele>36.8</ele>
        <time>2021-05-19T04:55:56Z</time>
      </trkpt>
      <trkpt lat="41.9025700" lon="-8.8708400">
        <ele>36.8</ele>
        <time>2021-05-19T04:55:57Z</time>
      </trkpt>
      <trkpt lat="41.9025750" lon="-8.8708580">
        <ele>36.8</ele>
        <time>2021-05-19T04:55:58Z</time>
      </trkpt>
      <trkpt lat="41.9025720" lon="-8.8708760">
        <ele>36.8</ele>
        <time>2021-05-19T04:55:59Z</time>
      </trkpt>
      <trkpt lat="41.9025800" lon="-8.8709050">
        <ele>36.9</ele>
        <time>2021-05-19T04:56:00Z</time>
      </trkpt>
      <trkpt lat="41.9025830" lon="-8.8709170">
        <ele>36.9</ele>
        <time>2021-05-19T04:56:01Z</time>
      </trkpt>
      <trkpt lat="41.9025860" lon="-8.8709300">
        <ele>36.9</ele>
        <time>2021-05-19T04:56:02Z</time>
      </trkpt>
      <trkpt lat="41.9025910" lon="-8.8709680">
        <ele>36.9</ele>
        <time>2021-05-19T04:56:03Z</time>
      </trkpt>
      <trkpt lat="41.9025880" lon="-8.8710040">
        <ele>36.9</ele>
        <time>2021-05-19T04:56:04Z</time>
      </trkpt>
      <trkpt lat="41.9025820" lon="-8.8710150">
        <ele>36.9</ele>
        <time>2021-05-19T04:56:05Z</time>
      </trkpt>
      <trkpt lat="41.9025670" lon="-8.8710330">
        <ele>36.9</ele>
        <time>2021-05-19T04:56:06Z</time>
      </trkpt>
      <trkpt lat="41.9025570" lon="-8.8710440">
        <ele>36.8</ele>
        <time>2021-05-19T04:56:07Z</time>
      </trkpt>
      <trkpt lat="41.9025540" lon="-8.8710480">
        <ele>36.8</ele>
        <time>2021-05-19T04:56:08Z</time>
      </trkpt>
      <trkpt lat="41.9025480" lon="-8.8710580">
        <ele>36.8</ele>
        <time>2021-05-19T04:56:09Z</time>
      </trkpt>
      <trkpt lat="41.9025440" lon="-8.8710690">
        <ele>36.8</ele>
        <time>2021-05-19T04:56:10Z</time>
      </trkpt>
      <trkpt lat="41.9025380" lon="-8.8710980">
        <ele>36.7</ele>
        <time>2021-05-19T04:56:11Z</time>
      </trkpt>
      <trkpt lat="41.9025290" lon="-8.8711140">
        <ele>36.7</ele>
        <time>2021-05-19T04:56:12Z</time>
      </trkpt>
      <trkpt lat="41.9025150" lon="-8.8711250">
        <ele>36.6</ele>
        <time>2021-05-19T04:56:13Z</time>
      </trkpt>
      <trkpt lat="41.9025120" lon="-8.8711320">
        <ele>36.6</ele>
        <time>2021-05-19T04:56:14Z</time>
      </trkpt>
      <trkpt lat="41.9025090" lon="-8.8711390">
        <ele>36.6</ele>
        <time>2021-05-19T04:56:15Z</time>
      </trkpt>
      <trkpt lat="41.9025090" lon="-8.8711530">
        <ele>36.6</ele>
        <time>2021-05-19T04:56:16Z</time>
      </trkpt>
      <trkpt lat="41.9025010" lon="-8.8711700">
        <ele>36.5</ele>
        <time>2021-05-19T04:56:17Z</time>
      </trkpt>
      <trkpt lat="41.9025030" lon="-8.8711850">
        <ele>36.5</ele>
        <time>2021-05-19T04:56:18Z</time>
      </trkpt>
      <trkpt lat="41.9024950" lon="-8.8712060">
        <ele>36.5</ele>
        <time>2021-05-19T04:56:19Z</time>
      </trkpt>
      <trkpt lat="41.9025010" lon="-8.8712170">
        <ele>36.4</ele>
        <time>2021-05-19T04:56:20Z</time>
      </trkpt>
      <trkpt lat="41.9025030" lon="-8.8712280">
        <ele>36.4</ele>
        <time>2021-05-19T04:56:21Z</time>
      </trkpt>
      <trkpt lat="41.9025070" lon="-8.8712340">
        <ele>36.4</ele>
        <time>2021-05-19T04:56:22Z</time>
      </trkpt>
      <trkpt lat="41.9025050" lon="-8.8712430">
        <ele>36.4</ele>
        <time>2021-05-19T04:56:23Z</time>
      </trkpt>
      <trkpt lat="41.9024940" lon="-8.8712570">
        <ele>36.3</ele>
        <time>2021-05-19T04:56:24Z</time>
      </trkpt>
      <trkpt lat="41.9024770" lon="-8.8712580">
        <ele>36.3</ele>
        <time>2021-05-19T04:56:25Z</time>
      </trkpt>
      <trkpt lat="41.9024520" lon="-8.8712750">
        <ele>36.2</ele>
        <time>2021-05-19T04:56:26Z</time>
      </trkpt>
      <trkpt lat="41.9024210" lon="-8.8712900">
        <ele>36.1</ele>
        <time>2021-05-19T04:56:27Z</time>
      </trkpt>
      <trkpt lat="41.9024130" lon="-8.8712930">
        <ele>36.1</ele>
        <time>2021-05-19T04:56:28Z</time>
      </trkpt>
      <trkpt lat="41.9023940" lon="-8.8713220">
        <ele>36.0</ele>
        <time>2021-05-19T04:56:29Z</time>
      </trkpt>
      <trkpt lat="41.9023880" lon="-8.8713370">
        <ele>36.0</ele>
        <time>2021-05-19T04:56:30Z</time>
      </trkpt>
      <trkpt lat="41.9023930" lon="-8.8713420">
        <ele>35.9</ele>
        <time>2021-05-19T04:56:31Z</time>
      </trkpt>
      <trkpt lat="41.9023780" lon="-8.8713460">
        <ele>35.9</ele>
        <time>2021-05-19T04:56:32Z</time>
      </trkpt>
      <trkpt lat="41.9023740" lon="-8.8713610">
        <ele>35.9</ele>
        <time>2021-05-19T04:56:33Z</time>
      </trkpt>
      <trkpt lat="41.9023650" lon="-8.8713610">
        <ele>35.9</ele>
        <time>2021-05-19T04:56:34Z</time>
      </trkpt>
      <trkpt lat="41.9023430" lon="-8.8713660">
        <ele>35.8</ele>
        <time>2021-05-19T04:56:35Z</time>
      </trkpt>
      <trkpt lat="41.9023340" lon="-8.8713670">
        <ele>35.8</ele>
        <time>2021-05-19T04:56:36Z</time>
      </trkpt>
      <trkpt lat="41.9023250" lon="-8.8713690">
        <ele>35.8</ele>
        <time>2021-05-19T04:56:37Z</time>
      </trkpt>
      <trkpt lat="41.9023130" lon="-8.8713720">
        <ele>35.7</ele>
        <time>2021-05-19T04:56:38Z</time>
      </trkpt>
      <trkpt lat="41.9023030" lon="-8.8713780">
        <ele>35.7</ele>
        <time>2021-05-19T04:56:39Z</time>
      </trkpt>
      <trkpt lat="41.9022920" lon="-8.8713760">
        <ele>35.7</ele>
        <time>2021-05-19T04:56:40Z</time>
      </trkpt>
      <trkpt lat="41.9022880" lon="-8.8714010">
        <ele>35.6</ele>
        <time>2021-05-19T04:56:41Z</time>
      </trkpt>
      <trkpt lat="41.9022870" lon="-8.8714160">
        <ele>35.6</ele>
        <time>2021-05-19T04:56:42Z</time>
      </trkpt>
      <trkpt lat="41.9022860" lon="-8.8714300">
        <ele>35.6</ele>
        <time>2021-05-19T04:56:43Z</time>
      </trkpt>
      <trkpt lat="41.9022840" lon="-8.8714520">
        <ele>35.5</ele>
        <time>2021-05-19T04:56:44Z</time>
      </trkpt>
      <trkpt lat="41.9022830" lon="-8.8714630">
        <ele>35.5</ele>
        <time>2021-05-19T04:56:45Z</time>
      </trkpt>
      <trkpt lat="41.9022810" lon="-8.8714740">
        <ele>35.5</ele>
        <time>2021-05-19T04:56:46Z</time>
      </trkpt>
      <trkpt lat="41.9022790" lon="-8.8714850">
        <ele>35.5</ele>
        <time>2021-05-19T04:56:47Z</time>
      </trkpt>
      <trkpt lat="41.9022770" lon="-8.8715170">
        <ele>35.4</ele>
        <time>2021-05-19T04:56:48Z</time>
      </trkpt>
      <trkpt lat="41.9022790" lon="-8.8715350">
        <ele>35.4</ele>
        <time>2021-05-19T04:56:49Z</time>
      </trkpt>
      <trkpt lat="41.9022820" lon="-8.8715520">
        <ele>35.4</ele>
        <time>2021-05-19T04:56:50Z</time>
      </trkpt>
      <trkpt lat="41.9022850" lon="-8.8715680">
        <ele>35.3</ele>
        <time>2021-05-19T04:56:51Z</time>
      </trkpt>
      <trkpt lat="41.9022820" lon="-8.8715920">
        <ele>35.3</ele>
        <time>2021-05-19T04:56:52Z</time>
      </trkpt>
      <trkpt lat="41.9022520" lon="-8.8716100">
        <ele>35.2</ele>
        <time>2021-05-19T04:56:53Z</time>
      </trkpt>
      <trkpt lat="41.9022350" lon="-8.8716170">
        <ele>35.2</ele>
        <time>2021-05-19T04:56:54Z</time>
      </trkpt>
      <trkpt lat="41.9022170" lon="-8.8716240">
        <ele>35.2</ele>
        <time>2021-05-19T04:56:55Z</time>
      </trkpt>
      <trkpt lat="41.9021560" lon="-8.8716130">
        <ele>35.0</ele>
        <time>2021-05-19T04:56:56Z</time>
      </trkpt>
      <trkpt lat="41.9021500" lon="-8.8715990">
        <ele>35.0</ele>
        <time>2021-05-19T04:56:57Z</time>
      </trkpt>
      <trkpt lat="41.9021420" lon="-8.8716260">
        <ele>35.0</ele>
        <time>2021-05-19T04:56:58Z</time>
      </trkpt>
      <trkpt lat="41.9021580" lon="-8.8716090">
        <ele>34.9</ele>
        <time>2021-05-19T04:56:59Z</time>
      </trkpt>
      <trkpt lat="41.9021530" lon="-8.8716140">
        <ele>34.9</ele>
        <time>2021-05-19T04:57:00Z</time>
      </trkpt>
      <trkpt lat="41.9021440" lon="-8.8716240">
        <ele>34.8</ele>
        <time>2021-05-19T04:57:01Z</time>
      </trkpt>
      <trkpt lat="41.9021460" lon="-8.8716410">
        <ele>34.8</ele>
        <time>2021-05-19T04:57:02Z</time>
      </trkpt>
      <trkpt lat="41.9021460" lon="-8.8716570">
        <ele>34.7</ele>
        <time>2021-05-19T04:57:03Z</time>
      </trkpt>
      <trkpt lat="41.9021430" lon="-8.8716880">
        <ele>34.6</ele>
        <time>2021-05-19T04:57:04Z</time>
      </trkpt>
      <trkpt lat="41.9021430" lon="-8.8717020">
        <ele>34.6</ele>
        <time>2021-05-19T04:57:05Z</time>
      </trkpt>
      <trkpt lat="41.9021420" lon="-8.8717150">
        <ele>34.5</ele>
        <time>2021-05-19T04:57:06Z</time>
      </trkpt>
      <trkpt lat="41.9021400" lon="-8.8717250">
        <ele>34.5</ele>
        <time>2021-05-19T04:57:07Z</time>
      </trkpt>
      <trkpt lat="41.9021360" lon="-8.8717590">
        <ele>34.4</ele>
        <time>2021-05-19T04:57:08Z</time>
      </trkpt>
      <trkpt lat="41.9021330" lon="-8.8717900">
        <ele>34.3</ele>
        <time>2021-05-19T04:57:09Z</time>
      </trkpt>
      <trkpt lat="41.9021360" lon="-8.8717990">
        <ele>34.3</ele>
        <time>2021-05-19T04:57:10Z</time>
      </trkpt>
      <trkpt lat="41.9021370" lon="-8.8718170">
        <ele>34.2</ele>
        <time>2021-05-19T04:57:11Z</time>
      </trkpt>
      <trkpt lat="41.9021350" lon="-8.8718280">
        <ele>34.2</ele>
        <time>2021-05-19T04:57:12Z</time>
      </trkpt>
      <trkpt lat="41.9021340" lon="-8.8718400">
        <ele>34.1</ele>
        <time>2021-05-19T04:57:13Z</time>
      </trkpt>
      <trkpt lat="41.9021320" lon="-8.8718510">
        <ele>34.1</ele>
        <time>2021-05-19T04:57:14Z</time>
      </trkpt>
      <trkpt lat="41.9021310" lon="-8.8718490">
        <ele>34.1</ele>
        <time>2021-05-19T04:57:15Z</time>
      </trkpt>
      <trkpt lat="41.9021280" lon="-8.8718760">
        <ele>34.0</ele>
        <time>2021-05-19T04:57:16Z</time>
      </trkpt>
      <trkpt lat="41.9021270" lon="-8.8718890">
        <ele>34.0</ele>
        <time>2021-05-19T04:57:17Z</time>
      </trkpt>
      <trkpt lat="41.9021320" lon="-8.8719060">
        <ele>33.9</ele>
        <time>2021-05-19T04:57:18Z</time>
      </trkpt>
      <trkpt lat="41.9021350" lon="-8.8719120">
        <ele>33.9</ele>
        <time>2021-05-19T04:57:19Z</time>
      </trkpt>
      <trkpt lat="41.9021300" lon="-8.8719280">
        <ele>33.9</ele>
        <time>2021-05-19T04:57:20Z</time>
      </trkpt>
      <trkpt lat="41.9021230" lon="-8.8719460">
        <ele>33.8</ele>
        <time>2021-05-19T04:57:21Z</time>
      </trkpt>
      <trkpt lat="41.9021170" lon="-8.8719580">
        <ele>33.7</ele>
        <time>2021-05-19T04:57:22Z</time>
      </trkpt>
      <trkpt lat="41.9021120" lon="-8.8719650">
        <ele>33.7</ele>
        <time>2021-05-19T04:57:23Z</time>
      </trkpt>
      <trkpt lat="41.9021050" lon="-8.8719900">
        <ele>33.6</ele>
        <time>2021-05-19T04:57:24Z</time>
      </trkpt>
      <trkpt lat="41.9021000" lon="-8.8719940">
        <ele>33.6</ele>
        <time>2021-05-19T04:57:25Z</time>
      </trkpt>
      <trkpt lat="41.9021030" lon="-8.8720050">
        <ele>33.6</ele>
        <time>2021-05-19T04:57:26Z</time>
      </trkpt>
      <trkpt lat="41.9021020" lon="-8.8720310">
        <ele>33.5</ele>
        <time>2021-05-19T04:57:27Z</time>
      </trkpt>
      <trkpt lat="41.9021020" lon="-8.8720450">
        <ele>33.5</ele>
        <time>2021-05-19T04:57:28Z</time>
      </trkpt>
      <trkpt lat="41.9021020" lon="-8.8720580">
        <ele>33.4</ele>
        <time>2021-05-19T04:57:29Z</time>
      </trkpt>
      <trkpt lat="41.9020960" lon="-8.8720710">
        <ele>33.4</ele>
        <time>2021-05-19T04:57:30Z</time>
      </trkpt>
      <trkpt lat="41.9020910" lon="-8.8721000">
        <ele>33.3</ele>
        <time>2021-05-19T04:57:31Z</time>
      </trkpt>
      <trkpt lat="41.9020760" lon="-8.8721370">
        <ele>33.2</ele>
        <time>2021-05-19T04:57:32Z</time>
      </trkpt>
      <trkpt lat="41.9020720" lon="-8.8721480">
        <ele>33.1</ele>
        <time>2021-05-19T04:57:33Z</time>
      </trkpt>
      <trkpt lat="41.9020710" lon="-8.8721670">
        <ele>33.1</ele>
        <time>2021-05-19T04:57:34Z</time>
      </trkpt>
      <trkpt lat="41.9020570" lon="-8.8721830">
        <ele>33.0</ele>
        <time>2021-05-19T04:57:35Z</time>
      </trkpt>
      <trkpt lat="41.9020420" lon="-8.8722110">
        <ele>32.9</ele>
        <time>2021-05-19T04:57:36Z</time>
      </trkpt>
      <trkpt lat="41.9020350" lon="-8.8722180">
        <ele>32.8</ele>
        <time>2021-05-19T04:57:37Z</time>
      </trkpt>
      <trkpt lat="41.9020320" lon="-8.8722380">
        <ele>32.8</ele>
        <time>2021-05-19T04:57:38Z</time>
      </trkpt>
      <trkpt lat="41.9020290" lon="-8.8722540">
        <ele>32.7</ele>
        <time>2021-05-19T04:57:39Z</time>
      </trkpt>
      <trkpt lat="41.9020300" lon="-8.8722720">
        <ele>32.7</ele>
        <time>2021-05-19T04:57:40Z</time>
      </trkpt>
      <trkpt lat="41.9020260" lon="-8.8722830">
        <ele>32.6</ele>
        <time>2021-05-19T04:57:41Z</time>
      </trkpt>
      <trkpt lat="41.9020140" lon="-8.8722990">
        <ele>32.5</ele>
        <time>2021-05-19T04:57:42Z</time>
      </trkpt>
      <trkpt lat="41.9020040" lon="-8.8723210">
        <ele>32.5</ele>
        <time>2021-05-19T04:57:43Z</time>
      </trkpt>
      <trkpt lat="41.9019960" lon="-8.8723370">
        <ele>32.4</ele>
        <time>2021-05-19T04:57:44Z</time>
      </trkpt>
      <trkpt lat="41.9019880" lon="-8.8723490">
        <ele>32.3</ele>
        <time>2021-05-19T04:57:45Z</time>
      </trkpt>
      <trkpt lat="41.9019770" lon="-8.8723570">
        <ele>32.3</ele>
        <time>2021-05-19T04:57:46Z</time>
      </trkpt>
      <trkpt lat="41.9019760" lon="-8.8723730">
        <ele>32.2</ele>
        <time>2021-05-19T04:57:47Z</time>
      </trkpt>
      <trkpt lat="41.9019620" lon="-8.8723870">
        <ele>32.2</ele>
        <time>2021-05-19T04:57:48Z</time>
      </trkpt>
      <trkpt lat="41.9019560" lon="-8.8723980">
        <ele>32.1</ele>
        <time>2021-05-19T04:57:49Z</time>
      </trkpt>
      <trkpt lat="41.9019500" lon="-8.8724080">
        <ele>32.1</ele>
        <time>2021-05-19T04:57:50Z</time>
      </trkpt>
      <trkpt lat="41.9019420" lon="-8.8724190">
        <ele>32.0</ele>
        <time>2021-05-19T04:57:51Z</time>
      </trkpt>
      <trkpt lat="41.9019340" lon="-8.8724260">
        <ele>32.0</ele>
        <time>2021-05-19T04:57:52Z</time>
      </trkpt>
      <trkpt lat="41.9019260" lon="-8.8724340">
        <ele>32.0</ele>
        <time>2021-05-19T04:57:53Z</time>
      </trkpt>
      <trkpt lat="41.9019220" lon="-8.8724510">
        <ele>31.9</ele>
        <time>2021-05-19T04:57:54Z</time>
      </trkpt>
      <trkpt lat="41.9019090" lon="-8.8724670">
        <ele>31.8</ele>
        <time>2021-05-19T04:57:55Z</time>
      </trkpt>
      <trkpt lat="41.9018930" lon="-8.8724840">
        <ele>31.8</ele>
        <time>2021-05-19T04:57:56Z</time>
      </trkpt>
      <trkpt lat="41.9018830" lon="-8.8724990">
        <ele>31.7</ele>
        <time>2021-05-19T04:57:57Z</time>
      </trkpt>
      <trkpt lat="41.9018620" lon="-8.8725290">
        <ele>31.6</ele>
        <time>2021-05-19T04:57:58Z</time>
      </trkpt>
      <trkpt lat="41.9018540" lon="-8.8725360">
        <ele>31.6</ele>
        <time>2021-05-19T04:57:59Z</time>
      </trkpt>
      <trkpt lat="41.9018550" lon="-8.8725640">
        <ele>31.5</ele>
        <time>2021-05-19T04:58:00Z</time>
      </trkpt>
      <trkpt lat="41.9018580" lon="-8.8725840">
        <ele>31.4</ele>
        <time>2021-05-19T04:58:01Z</time>
      </trkpt>
      <trkpt lat="41.9018550" lon="-8.8726090">
        <ele>31.4</ele>
        <time>2021-05-19T04:58:02Z</time>
      </trkpt>
      <trkpt lat="41.9018580" lon="-8.8726300">
        <ele>31.3</ele>
        <time>2021-05-19T04:58:03Z</time>
      </trkpt>
      <trkpt lat="41.9018540" lon="-8.8726490">
        <ele>31.3</ele>
        <time>2021-05-19T04:58:04Z</time>
      </trkpt>
      <trkpt lat="41.9018360" lon="-8.8726600">
        <ele>31.2</ele>
        <time>2021-05-19T04:58:05Z</time>
      </trkpt>
      <trkpt lat="41.9018080" lon="-8.8726650">
        <ele>31.1</ele>
        <time>2021-05-19T04:58:06Z</time>
      </trkpt>
      <trkpt lat="41.9017990" lon="-8.8726820">
        <ele>31.1</ele>
        <time>2021-05-19T04:58:07Z</time>
      </trkpt>
      <trkpt lat="41.9017880" lon="-8.8726960">
        <ele>31.0</ele>
        <time>2021-05-19T04:58:08Z</time>
      </trkpt>
      <trkpt lat="41.9017820" lon="-8.8727020">
        <ele>31.0</ele>
        <time>2021-05-19T04:58:09Z</time>
      </trkpt>
      <trkpt lat="41.9017780" lon="-8.8727080">
        <ele>31.0</ele>
        <time>2021-05-19T04:58:10Z</time>
      </trkpt>
      <trkpt lat="41.9017730" lon="-8.8727120">
        <ele>31.0</ele>
        <time>2021-05-19T04:58:11Z</time>
      </trkpt>
      <trkpt lat="41.9017710" lon="-8.8727120">
        <ele>31.0</ele>
        <time>2021-05-19T04:58:12Z</time>
      </trkpt>
      <trkpt lat="41.9017730" lon="-8.8727160">
        <ele>31.0</ele>
        <time>2021-05-19T04:58:13Z</time>
      </trkpt>
      <trkpt lat="41.9017690" lon="-8.8727240">
        <ele>31.0</ele>
        <time>2021-05-19T04:58:14Z</time>
      </trkpt>
      <trkpt lat="41.9017630" lon="-8.8727360">
        <ele>31.0</ele>
        <time>2021-05-19T04:58:15Z</time>
      </trkpt>
      <trkpt lat="41.9017610" lon="-8.8727410">
        <ele>31.0</ele>
        <time>2021-05-19T04:58:16Z</time>
      </trkpt>
      <trkpt lat="41.9017540" lon="-8.8727490">
        <ele>31.0</ele>
        <time>2021-05-19T04:58:17Z</time>
      </trkpt>
      <trkpt lat="41.9017410" lon="-8.8727550">
        <ele>31.0</ele>
        <time>2021-05-19T04:58:18Z</time>
      </trkpt>
      <trkpt lat="41.9017380" lon="-8.8727620">
        <ele>30.9</ele>
        <time>2021-05-19T04:58:19Z</time>
      </trkpt>
      <trkpt lat="41.9017290" lon="-8.8727760">
        <ele>30.9</ele>
        <time>2021-05-19T04:58:20Z</time>
      </trkpt>
      <trkpt lat="41.9017210" lon="-8.8727950">
        <ele>30.9</ele>
        <time>2021-05-19T04:58:21Z</time>
      </trkpt>
      <trkpt lat="41.9017120" lon="-8.8728110">
        <ele>30.9</ele>
        <time>2021-05-19T04:58:22Z</time>
      </trkpt>
      <trkpt lat="41.9017020" lon="-8.8728140">
        <ele>30.9</ele>
        <time>2021-05-19T04:58:23Z</time>
      </trkpt>
      <trkpt lat="41.9016950" lon="-8.8728260">
        <ele>30.9</ele>
        <time>2021-05-19T04:58:24Z</time>
      </trkpt>
      <trkpt lat="41.9016790" lon="-8.8728400">
        <ele>30.8</ele>
        <time>2021-05-19T04:58:25Z</time>
      </trkpt>
      <trkpt lat="41.9016700" lon="-8.8728450">
        <ele>30.8</ele>
        <time>2021-05-19T04:58:26Z</time>
      </trkpt>
      <trkpt lat="41.9016620" lon="-8.8728510">
        <ele>30.8</ele>
        <time>2021-05-19T04:58:27Z</time>
      </trkpt>
      <trkpt lat="41.9016540" lon="-8.8728620">
        <ele>30.8</ele>
        <time>2021-05-19T04:58:28Z</time>
      </trkpt>
      <trkpt lat="41.9016450" lon="-8.8728730">
        <ele>30.8</ele>
        <time>2021-05-19T04:58:29Z</time>
      </trkpt>
      <trkpt lat="41.9016360" lon="-8.8728830">
        <ele>30.7</ele>
        <time>2021-05-19T04:58:30Z</time>
      </trkpt>
      <trkpt lat="41.9016290" lon="-8.8728990">
        <ele>30.7</ele>
        <time>2021-05-19T04:58:31Z</time>
      </trkpt>
      <trkpt lat="41.9016210" lon="-8.8729170">
        <ele>30.7</ele>
        <time>2021-05-19T04:58:32Z</time>
      </trkpt>
      <trkpt lat="41.9016080" lon="-8.8729340">
        <ele>30.7</ele>
        <time>2021-05-19T04:58:33Z</time>
      </trkpt>
      <trkpt lat="41.9016000" lon="-8.8729420">
        <ele>30.7</ele>
        <time>2021-05-19T04:58:34Z</time>
      </trkpt>
      <trkpt lat="41.9015920" lon="-8.8729510">
        <ele>30.7</ele>
        <time>2021-05-19T04:58:35Z</time>
      </trkpt>
      <trkpt lat="41.9015790" lon="-8.8729630">
        <ele>30.6</ele>
        <time>2021-05-19T04:58:36Z</time>
      </trkpt>
      <trkpt lat="41.9015700" lon="-8.8729770">
        <ele>30.6</ele>
        <time>2021-05-19T04:58:37Z</time>
      </trkpt>
      <trkpt lat="41.9015650" lon="-8.8729940">
        <ele>30.6</ele>
        <time>2021-05-19T04:58:38Z</time>
      </trkpt>
      <trkpt lat="41.9015640" lon="-8.8730140">
        <ele>30.6</ele>
        <time>2021-05-19T04:58:39Z</time>
      </trkpt>
      <trkpt lat="41.9015550" lon="-8.8730300">
        <ele>30.6</ele>
        <time>2021-05-19T04:58:40Z</time>
      </trkpt>
      <trkpt lat="41.9015440" lon="-8.8730400">
        <ele>30.6</ele>
        <time>2021-05-19T04:58:41Z</time>
      </trkpt>
      <trkpt lat="41.9015320" lon="-8.8730560">
        <ele>30.6</ele>
        <time>2021-05-19T04:58:42Z</time>
      </trkpt>
      <trkpt lat="41.9015250" lon="-8.8730750">
        <ele>30.6</ele>
        <time>2021-05-19T04:58:43Z</time>
      </trkpt>
      <trkpt lat="41.9015220" lon="-8.8731150">
        <ele>30.5</ele>
        <time>2021-05-19T04:58:44Z</time>
      </trkpt>
      <trkpt lat="41.9015210" lon="-8.8731230">
        <ele>30.5</ele>
        <time>2021-05-19T04:58:45Z</time>
      </trkpt>
      <trkpt lat="41.9015100" lon="-8.8731340">
        <ele>30.5</ele>
        <time>2021-05-19T04:58:46Z</time>
      </trkpt>
      <trkpt lat="41.9014990" lon="-8.8731440">
        <ele>30.5</ele>
        <time>2021-05-19T04:58:47Z</time>
      </trkpt>
      <trkpt lat="41.9014930" lon="-8.8731680">
        <ele>30.5</ele>
        <time>2021-05-19T04:58:48Z</time>
      </trkpt>
      <trkpt lat="41.9014810" lon="-8.8731760">
        <ele>30.5</ele>
        <time>2021-05-19T04:58:49Z</time>
      </trkpt>
      <trkpt lat="41.9014690" lon="-8.8731910">
        <ele>30.5</ele>
        <time>2021-05-19T04:58:50Z</time>
      </trkpt>
      <trkpt lat="41.9014600" lon="-8.8731990">
        <ele>30.5</ele>
        <time>2021-05-19T04:58:51Z</time>
      </trkpt>
      <trkpt lat="41.9014520" lon="-8.8732070">
        <ele>30.5</ele>
        <time>2021-05-19T04:58:52Z</time>
      </trkpt>
      <trkpt lat="41.9014260" lon="-8.8732210">
        <ele>30.5</ele>
        <time>2021-05-19T04:58:53Z</time>
      </trkpt>
      <trkpt lat="41.9014180" lon="-8.8732250">
        <ele>30.5</ele>
        <time>2021-05-19T04:58:54Z</time>
      </trkpt>
      <trkpt lat="41.9014080" lon="-8.8732310">
        <ele>30.5</ele>
        <time>2021-05-19T04:58:55Z</time>
      </trkpt>
      <trkpt lat="41.9013990" lon="-8.8732370">
        <ele>30.5</ele>
        <time>2021-05-19T04:58:56Z</time>
      </trkpt>
      <trkpt lat="41.9013850" lon="-8.8732300">
        <ele>30.5</ele>
        <time>2021-05-19T04:58:57Z</time>
      </trkpt>
      <trkpt lat="41.9013590" lon="-8.8732250">
        <ele>30.5</ele>
        <time>2021-05-19T04:58:58Z</time>
      </trkpt>
      <trkpt lat="41.9013450" lon="-8.8732220">
        <ele>30.5</ele>
        <time>2021-05-19T04:58:59Z</time>
      </trkpt>
      <trkpt lat="41.9013280" lon="-8.8732270">
        <ele>30.5</ele>
        <time>2021-05-19T04:59:00Z</time>
      </trkpt>
      <trkpt lat="41.9013250" lon="-8.8732140">
        <ele>30.5</ele>
        <time>2021-05-19T04:59:01Z</time>
      </trkpt>
      <trkpt lat="41.9013160" lon="-8.8732000">
        <ele>30.5</ele>
        <time>2021-05-19T04:59:02Z</time>
      </trkpt>
      <trkpt lat="41.9012930" lon="-8.8731920">
        <ele>30.2</ele>
        <time>2021-05-19T04:59:03Z</time>
      </trkpt>
      <trkpt lat="41.9012810" lon="-8.8731930">
        <ele>30.2</ele>
        <time>2021-05-19T04:59:04Z</time>
      </trkpt>
      <trkpt lat="41.9012610" lon="-8.8731860">
        <ele>30.2</ele>
        <time>2021-05-19T04:59:05Z</time>
      </trkpt>
      <trkpt lat="41.9012480" lon="-8.8732010">
        <ele>30.1</ele>
        <time>2021-05-19T04:59:06Z</time>
      </trkpt>
      <trkpt lat="41.9012330" lon="-8.8732000">
        <ele>30.1</ele>
        <time>2021-05-19T04:59:07Z</time>
      </trkpt>
      <trkpt lat="41.9012200" lon="-8.8732020">
        <ele>30.0</ele>
        <time>2021-05-19T04:59:08Z</time>
      </trkpt>
      <trkpt lat="41.9011910" lon="-8.8731920">
        <ele>29.8</ele>
        <time>2021-05-19T04:59:09Z</time>
      </trkpt>
      <trkpt lat="41.9011820" lon="-8.8731920">
        <ele>29.8</ele>
        <time>2021-05-19T04:59:10Z</time>
      </trkpt>
      <trkpt lat="41.9011540" lon="-8.8731860">
        <ele>29.9</ele>
        <time>2021-05-19T04:59:11Z</time>
      </trkpt>
      <trkpt lat="41.9011450" lon="-8.8731820">
        <ele>29.9</ele>
        <time>2021-05-19T04:59:12Z</time>
      </trkpt>
      <trkpt lat="41.9011350" lon="-8.8731790">
        <ele>29.9</ele>
        <time>2021-05-19T04:59:13Z</time>
      </trkpt>
      <trkpt lat="41.9011160" lon="-8.8731740">
        <ele>30.0</ele>
        <time>2021-05-19T04:59:14Z</time>
      </trkpt>
      <trkpt lat="41.9011070" lon="-8.8731750">
        <ele>30.0</ele>
        <time>2021-05-19T04:59:15Z</time>
      </trkpt>
      <trkpt lat="41.9010980" lon="-8.8731770">
        <ele>30.0</ele>
        <time>2021-05-19T04:59:16Z</time>
      </trkpt>
      <trkpt lat="41.9010820" lon="-8.8731970">
        <ele>30.1</ele>
        <time>2021-05-19T04:59:17Z</time>
      </trkpt>
      <trkpt lat="41.9010760" lon="-8.8732110">
        <ele>30.1</ele>
        <time>2021-05-19T04:59:18Z</time>
      </trkpt>
      <trkpt lat="41.9010690" lon="-8.8732260">
        <ele>30.1</ele>
        <time>2021-05-19T04:59:19Z</time>
      </trkpt>
      <trkpt lat="41.9010640" lon="-8.8732700">
        <ele>30.2</ele>
        <time>2021-05-19T04:59:20Z</time>
      </trkpt>
      <trkpt lat="41.9010590" lon="-8.8732830">
        <ele>30.3</ele>
        <time>2021-05-19T04:59:21Z</time>
      </trkpt>
      <trkpt lat="41.9010530" lon="-8.8732980">
        <ele>30.3</ele>
        <time>2021-05-19T04:59:22Z</time>
      </trkpt>
      <trkpt lat="41.9010430" lon="-8.8733230">
        <ele>30.3</ele>
        <time>2021-05-19T04:59:23Z</time>
      </trkpt>
      <trkpt lat="41.9010390" lon="-8.8733440">
        <ele>30.4</ele>
        <time>2021-05-19T04:59:24Z</time>
      </trkpt>
      <trkpt lat="41.9010370" lon="-8.8733640">
        <ele>30.4</ele>
        <time>2021-05-19T04:59:25Z</time>
      </trkpt>
      <trkpt lat="41.9010360" lon="-8.8733880">
        <ele>30.5</ele>
        <time>2021-05-19T04:59:26Z</time>
      </trkpt>
      <trkpt lat="41.9010370" lon="-8.8734090">
        <ele>30.9</ele>
        <time>2021-05-19T04:59:27Z</time>
      </trkpt>
      <trkpt lat="41.9010380" lon="-8.8734270">
        <ele>30.9</ele>
        <time>2021-05-19T04:59:28Z</time>
      </trkpt>
      <trkpt lat="41.9010350" lon="-8.8734490">
        <ele>31.0</ele>
        <time>2021-05-19T04:59:29Z</time>
      </trkpt>
      <trkpt lat="41.9010340" lon="-8.8734710">
        <ele>31.0</ele>
        <time>2021-05-19T04:59:30Z</time>
      </trkpt>
      <trkpt lat="41.9010370" lon="-8.8734920">
        <ele>31.0</ele>
        <time>2021-05-19T04:59:31Z</time>
      </trkpt>
      <trkpt lat="41.9010400" lon="-8.8735060">
        <ele>31.1</ele>
        <time>2021-05-19T04:59:32Z</time>
      </trkpt>
      <trkpt lat="41.9010430" lon="-8.8735200">
        <ele>31.1</ele>
        <time>2021-05-19T04:59:33Z</time>
      </trkpt>
      <trkpt lat="41.9010450" lon="-8.8735320">
        <ele>31.3</ele>
        <time>2021-05-19T04:59:34Z</time>
      </trkpt>
      <trkpt lat="41.9010550" lon="-8.8735570">
        <ele>31.3</ele>
        <time>2021-05-19T04:59:35Z</time>
      </trkpt>
      <trkpt lat="41.9010580" lon="-8.8735660">
        <ele>31.3</ele>
        <time>2021-05-19T04:59:36Z</time>
      </trkpt>
      <trkpt lat="41.9010620" lon="-8.8735760">
        <ele>31.3</ele>
        <time>2021-05-19T04:59:37Z</time>
      </trkpt>
      <trkpt lat="41.9010610" lon="-8.8735990">
        <ele>31.3</ele>
        <time>2021-05-19T04:59:38Z</time>
      </trkpt>
      <trkpt lat="41.9010580" lon="-8.8736150">
        <ele>31.3</ele>
        <time>2021-05-19T04:59:39Z</time>
      </trkpt>
      <trkpt lat="41.9010510" lon="-8.8736270">
        <ele>31.3</ele>
        <time>2021-05-19T04:59:40Z</time>
      </trkpt>
      <trkpt lat="41.9010520" lon="-8.8736350">
        <ele>31.3</ele>
        <time>2021-05-19T04:59:41Z</time>
      </trkpt>
      <trkpt lat="41.9010560" lon="-8.8736560">
        <ele>31.3</ele>
        <time>2021-05-19T04:59:42Z</time>
      </trkpt>
      <trkpt lat="41.9010630" lon="-8.8736690">
        <ele>31.3</ele>
        <time>2021-05-19T04:59:43Z</time>
      </trkpt>
      <trkpt lat="41.9010630" lon="-8.8736800">
        <ele>31.4</ele>
        <time>2021-05-19T04:59:44Z</time>
      </trkpt>
      <trkpt lat="41.9010620" lon="-8.8736920">
        <ele>31.4</ele>
        <time>2021-05-19T04:59:45Z</time>
      </trkpt>
      <trkpt lat="41.9010570" lon="-8.8737300">
        <ele>31.4</ele>
        <time>2021-05-19T04:59:46Z</time>
      </trkpt>
      <trkpt lat="41.9010550" lon="-8.8737450">
        <ele>31.4</ele>
        <time>2021-05-19T04:59:47Z</time>
      </trkpt>
      <trkpt lat="41.9010550" lon="-8.8737590">
        <ele>31.4</ele>
        <time>2021-05-19T04:59:48Z</time>
      </trkpt>
      <trkpt lat="41.9010500" lon="-8.8737710">
        <ele>31.4</ele>
        <time>2021-05-19T04:59:49Z</time>
      </trkpt>
      <trkpt lat="41.9010520" lon="-8.8737900">
        <ele>31.4</ele>
        <time>2021-05-19T04:59:50Z</time>
      </trkpt>
      <trkpt lat="41.9010430" lon="-8.8738280">
        <ele>31.4</ele>
        <time>2021-05-19T04:59:51Z</time>
      </trkpt>
      <trkpt lat="41.9010360" lon="-8.8738380">
        <ele>31.4</ele>
        <time>2021-05-19T04:59:52Z</time>
      </trkpt>
      <trkpt lat="41.9010360" lon="-8.8738620">
        <ele>31.4</ele>
        <time>2021-05-19T04:59:53Z</time>
      </trkpt>
      <trkpt lat="41.9010530" lon="-8.8738750">
        <ele>31.4</ele>
        <time>2021-05-19T04:59:54Z</time>
      </trkpt>
      <trkpt lat="41.9010750" lon="-8.8738920">
        <ele>31.5</ele>
        <time>2021-05-19T04:59:55Z</time>
      </trkpt>
      <trkpt lat="41.9010880" lon="-8.8738920">
        <ele>31.5</ele>
        <time>2021-05-19T04:59:56Z</time>
      </trkpt>
      <trkpt lat="41.9010990" lon="-8.8739060">
        <ele>31.5</ele>
        <time>2021-05-19T04:59:57Z</time>
      </trkpt>
      <trkpt lat="41.9011120" lon="-8.8739100">
        <ele>31.2</ele>
        <time>2021-05-19T04:59:58Z</time>
      </trkpt>
      <trkpt lat="41.9011350" lon="-8.8739280">
        <ele>31.1</ele>
        <time>2021-05-19T04:59:59Z</time>
      </trkpt>
      <trkpt lat="41.9011440" lon="-8.8739350">
        <ele>31.0</ele>
        <time>2021-05-19T05:00:00Z</time>
      </trkpt>
      <trkpt lat="41.9011690" lon="-8.8739700">
        <ele>30.9</ele>
        <time>2021-05-19T05:00:01Z</time>
      </trkpt>
      <trkpt lat="41.9011780" lon="-8.8739830">
        <ele>30.8</ele>
        <time>2021-05-19T05:00:02Z</time>
      </trkpt>
      <trkpt lat="41.9012020" lon="-8.8740200">
        <ele>30.8</ele>
        <time>2021-05-19T05:00:03Z</time>
      </trkpt>
      <trkpt lat="41.9012130" lon="-8.8740300">
        <ele>30.8</ele>
        <time>2021-05-19T05:00:04Z</time>
      </trkpt>
      <trkpt lat="41.9012240" lon="-8.8740460">
        <ele>31.5</ele>
        <time>2021-05-19T05:00:05Z</time>
      </trkpt>
      <trkpt lat="41.9012330" lon="-8.8740680">
        <ele>32.2</ele>
        <time>2021-05-19T05:00:06Z</time>
      </trkpt>
      <trkpt lat="41.9012520" lon="-8.8740990">
        <ele>33.3</ele>
        <time>2021-05-19T05:00:07Z</time>
      </trkpt>
      <trkpt lat="41.9012620" lon="-8.8741050">
        <ele>33.4</ele>
        <time>2021-05-19T05:00:08Z</time>
      </trkpt>
      <trkpt lat="41.9012820" lon="-8.8741040">
        <ele>33.5</ele>
        <time>2021-05-19T05:00:09Z</time>
      </trkpt>
      <trkpt lat="41.9013000" lon="-8.8741070">
        <ele>33.6</ele>
        <time>2021-05-19T05:00:10Z</time>
      </trkpt>
      <trkpt lat="41.9013140" lon="-8.8741040">
        <ele>33.7</ele>
        <time>2021-05-19T05:00:11Z</time>
      </trkpt>
      <trkpt lat="41.9013220" lon="-8.8741120">
        <ele>33.7</ele>
        <time>2021-05-19T05:00:12Z</time>
      </trkpt>
      <trkpt lat="41.9013360" lon="-8.8741090">
        <ele>33.7</ele>
        <time>2021-05-19T05:00:13Z</time>
      </trkpt>
      <trkpt lat="41.9013430" lon="-8.8741220">
        <ele>33.7</ele>
        <time>2021-05-19T05:00:14Z</time>
      </trkpt>
      <trkpt lat="41.9013390" lon="-8.8741080">
        <ele>33.8</ele>
        <time>2021-05-19T05:00:15Z</time>
      </trkpt>
      <trkpt lat="41.9013410" lon="-8.8741040">
        <ele>33.8</ele>
        <time>2021-05-19T05:00:16Z</time>
      </trkpt>
      <trkpt lat="41.9013390" lon="-8.8741100">
        <ele>33.8</ele>
        <time>2021-05-19T05:00:17Z</time>
      </trkpt>
      <trkpt lat="41.9013440" lon="-8.8741170">
        <ele>33.8</ele>
        <time>2021-05-19T05:00:18Z</time>
      </trkpt>
      <trkpt lat="41.9013310" lon="-8.8740860">
        <ele>33.8</ele>
        <time>2021-05-19T05:00:19Z</time>
      </trkpt>
      <trkpt lat="41.9013300" lon="-8.8740710">
        <ele>33.8</ele>
        <time>2021-05-19T05:00:20Z</time>
      </trkpt>
      <trkpt lat="41.9013240" lon="-8.8740610">
        <ele>33.8</ele>
        <time>2021-05-19T05:00:21Z</time>
      </trkpt>
      <trkpt lat="41.9013250" lon="-8.8740640">
        <ele>33.8</ele>
        <time>2021-05-19T05:00:22Z</time>
      </trkpt>
      <trkpt lat="41.9013180" lon="-8.8740650">
        <ele>33.8</ele>
        <time>2021-05-19T05:00:23Z</time>
      </trkpt>
      <trkpt lat="41.9013190" lon="-8.8740660">
        <ele>33.8</ele>
        <time>2021-05-19T05:00:24Z</time>
      </trkpt>
      <trkpt lat="41.9013180" lon="-8.8740710">
        <ele>33.8</ele>
        <time>2021-05-19T05:00:25Z</time>
      </trkpt>
      <trkpt lat="41.9013320" lon="-8.8740780">
        <ele>33.9</ele>
        <time>2021-05-19T05:00:26Z</time>
      </trkpt>
      <trkpt lat="41.9013280" lon="-8.8740800">
        <ele>33.9</ele>
        <time>2021-05-19T05:00:27Z</time>
      </trkpt>
      <trkpt lat="41.9013220" lon="-8.8740880">
        <ele>33.9</ele>
        <time>2021-05-19T05:00:28Z</time>
      </trkpt>
      <trkpt lat="41.9013180" lon="-8.8740860">
        <ele>33.9</ele>
        <time>2021-05-19T05:00:29Z</time>
      </trkpt>
      <trkpt lat="41.9013130" lon="-8.8740890">
        <ele>33.9</ele>
        <time>2021-05-19T05:00:30Z</time>
      </trkpt>
      <trkpt lat="41.9013050" lon="-8.8740990">
        <ele>33.9</ele>
        <time>2021-05-19T05:00:31Z</time>
      </trkpt>
      <trkpt lat="41.9013080" lon="-8.8741010">
        <ele>33.9</ele>
        <time>2021-05-19T05:00:32Z</time>
      </trkpt>
      <trkpt lat="41.9013050" lon="-8.8741020">
        <ele>33.9</ele>
        <time>2021-05-19T05:00:33Z</time>
      </trkpt>
      <trkpt lat="41.9013020" lon="-8.8741060">
        <ele>33.9</ele>
        <time>2021-05-19T05:00:34Z</time>
      </trkpt>
      <trkpt lat="41.9013000" lon="-8.8741020">
        <ele>33.9</ele>
        <time>2021-05-19T05:00:35Z</time>
      </trkpt>
      <trkpt lat="41.9013020" lon="-8.8740920">
        <ele>33.9</ele>
        <time>2021-05-19T05:00:36Z</time>
      </trkpt>
      <trkpt lat="41.9013050" lon="-8.8740850">
        <ele>33.9</ele>
        <time>2021-05-19T05:00:37Z</time>
      </trkpt>
      <trkpt lat="41.9013100" lon="-8.8740670">
        <ele>33.9</ele>
        <time>2021-05-19T05:00:38Z</time>
      </trkpt>
      <trkpt lat="41.9013110" lon="-8.8740670">
        <ele>33.9</ele>
        <time>2021-05-19T05:00:39Z</time>
      </trkpt>
      <trkpt lat="41.9013120" lon="-8.8740690">
        <ele>33.9</ele>
        <time>2021-05-19T05:00:40Z</time>
      </trkpt>
      <trkpt lat="41.9013080" lon="-8.8740660">
        <ele>33.9</ele>
        <time>2021-05-19T05:00:41Z</time>
      </trkpt>
      <trkpt lat="41.9013060" lon="-8.8740630">
        <ele>33.9</ele>
        <time>2021-05-19T05:00:42Z</time>
      </trkpt>
      <trkpt lat="41.9013050" lon="-8.8740670">
        <ele>33.9</ele>
        <time>2021-05-19T05:00:43Z</time>
      </trkpt>
      <trkpt lat="41.9012990" lon="-8.8740650">
        <ele>34.0</ele>
        <time>2021-05-19T05:00:44Z</time>
      </trkpt>
      <trkpt lat="41.9013040" lon="-8.8740720">
        <ele>34.0</ele>
        <time>2021-05-19T05:00:45Z</time>
      </trkpt>
      <trkpt lat="41.9013010" lon="-8.8740790">
        <ele>34.0</ele>
        <time>2021-05-19T05:00:46Z</time>
      </trkpt>
      <trkpt lat="41.9013060" lon="-8.8741000">
        <ele>34.0</ele>
        <time>2021-05-19T05:00:47Z</time>
      </trkpt>
      <trkpt lat="41.9013130" lon="-8.8741030">
        <ele>34.0</ele>
        <time>2021-05-19T05:00:48Z</time>
      </trkpt>
      <trkpt lat="41.9013250" lon="-8.8740700">
        <ele>34.0</ele>
        <time>2021-05-19T05:00:49Z</time>
      </trkpt>
      <trkpt lat="41.9013280" lon="-8.8740600">
        <ele>34.0</ele>
        <time>2021-05-19T05:00:50Z</time>
      </trkpt>
      <trkpt lat="41.9013250" lon="-8.8740560">
        <ele>34.0</ele>
        <time>2021-05-19T05:00:51Z</time>
      </trkpt>
      <trkpt lat="41.9013370" lon="-8.8740500">
        <ele>34.0</ele>
        <time>2021-05-19T05:00:52Z</time>
      </trkpt>
      <trkpt lat="41.9013330" lon="-8.8740500">
        <ele>34.1</ele>
        <time>2021-05-19T05:00:53Z</time>
      </trkpt>
      <trkpt lat="41.9013370" lon="-8.8740470">
        <ele>34.1</ele>
        <time>2021-05-19T05:00:54Z</time>
      </trkpt>
      <trkpt lat="41.9013400" lon="-8.8740480">
        <ele>34.1</ele>
        <time>2021-05-19T05:00:55Z</time>
      </trkpt>
      <trkpt lat="41.9013480" lon="-8.8740430">
        <ele>34.1</ele>
        <time>2021-05-19T05:00:56Z</time>
      </trkpt>
      <trkpt lat="41.9013440" lon="-8.8740400">
        <ele>34.1</ele>
        <time>2021-05-19T05:00:57Z</time>
      </trkpt>
      <trkpt lat="41.9013460" lon="-8.8740360">
        <ele>34.1</ele>
        <time>2021-05-19T05:00:58Z</time>
      </trkpt>
      <trkpt lat="41.9013390" lon="-8.8740400">
        <ele>34.1</ele>
        <time>2021-05-19T05:00:59Z</time>
      </trkpt>
      <trkpt lat="41.9013410" lon="-8.8740320">
        <ele>34.1</ele>
        <time>2021-05-19T05:01:00Z</time>
      </trkpt>
      <trkpt lat="41.9013390" lon="-8.8740340">
        <ele>34.1</ele>
        <time>2021-05-19T05:01:01Z</time>
      </trkpt>
      <trkpt lat="41.9013430" lon="-8.8740340">
        <ele>34.1</ele>
        <time>2021-05-19T05:01:02Z</time>
      </trkpt>
      <trkpt lat="41.9013430" lon="-8.8740290">
        <ele>34.1</ele>
        <time>2021-05-19T05:01:03Z</time>
      </trkpt>
      <trkpt lat="41.9013420" lon="-8.8740290">
        <ele>34.1</ele>
        <time>2021-05-19T05:01:04Z</time>
      </trkpt>
      <trkpt lat="41.9013390" lon="-8.8740270">
        <ele>34.1</ele>
        <time>2021-05-19T05:01:05Z</time>
      </trkpt>
      <trkpt lat="41.9013350" lon="-8.8740340">
        <ele>34.1</ele>
        <time>2021-05-19T05:01:06Z</time>
      </trkpt>
      <trkpt lat="41.9013360" lon="-8.8740470">
        <ele>34.1</ele>
        <time>2021-05-19T05:01:07Z</time>
      </trkpt>
      <trkpt lat="41.9013330" lon="-8.8740570">
        <ele>34.1</ele>
        <time>2021-05-19T05:01:08Z</time>
      </trkpt>
      <trkpt lat="41.9013290" lon="-8.8740650">
        <ele>34.1</ele>
        <time>2021-05-19T05:01:09Z</time>
      </trkpt>
      <trkpt lat="41.9013210" lon="-8.8740730">
        <ele>34.2</ele>
        <time>2021-05-19T05:01:10Z</time>
      </trkpt>
      <trkpt lat="41.9013300" lon="-8.8740760">
        <ele>34.2</ele>
        <time>2021-05-19T05:01:11Z</time>
      </trkpt>
      <trkpt lat="41.9013380" lon="-8.8740740">
        <ele>34.2</ele>
        <time>2021-05-19T05:01:12Z</time>
      </trkpt>
      <trkpt lat="41.9013470" lon="-8.8740710">
        <ele>34.2</ele>
        <time>2021-05-19T05:01:13Z</time>
      </trkpt>
      <trkpt lat="41.9013560" lon="-8.8740690">
        <ele>34.2</ele>
        <time>2021-05-19T05:01:14Z</time>
      </trkpt>
      <trkpt lat="41.9013640" lon="-8.8740670">
        <ele>34.2</ele>
        <time>2021-05-19T05:01:15Z</time>
      </trkpt>
      <trkpt lat="41.9013730" lon="-8.8740650">
        <ele>34.2</ele>
        <time>2021-05-19T05:01:16Z</time>
      </trkpt>
      <trkpt lat="41.9013820" lon="-8.8740630">
        <ele>34.3</ele>
        <time>2021-05-19T05:01:17Z</time>
      </trkpt>
      <trkpt lat="41.9013910" lon="-8.8740600">
        <ele>34.3</ele>
        <time>2021-05-19T05:01:18Z</time>
      </trkpt>
      <trkpt lat="41.9013990" lon="-8.8740580">
        <ele>34.3</ele>
        <time>2021-05-19T05:01:19Z</time>
      </trkpt>
      <trkpt lat="41.9014080" lon="-8.8740560">
        <ele>34.4</ele>
        <time>2021-05-19T05:01:20Z</time>
      </trkpt>
      <trkpt lat="41.9014170" lon="-8.8740540">
        <ele>34.4</ele>
        <time>2021-05-19T05:01:21Z</time>
      </trkpt>
      <trkpt lat="41.9014250" lon="-8.8740520">
        <ele>34.4</ele>
        <time>2021-05-19T05:01:22Z</time>
      </trkpt>
      <trkpt lat="41.9014340" lon="-8.8740490">
        <ele>34.5</ele>
        <time>2021-05-19T05:01:23Z</time>
      </trkpt>
      <trkpt lat="41.9014430" lon="-8.8740470">
        <ele>34.5</ele>
        <time>2021-05-19T05:01:24Z</time>
      </trkpt>
      <trkpt lat="41.9014510" lon="-8.8740450">
        <ele>34.5</ele>
        <time>2021-05-19T05:01:25Z</time>
      </trkpt>
      <trkpt lat="41.9014600" lon="-8.8740430">
        <ele>34.5</ele>
        <time>2021-05-19T05:01:26Z</time>
      </trkpt>
      <trkpt lat="41.9014690" lon="-8.8740400">
        <ele>34.6</ele>
        <time>2021-05-19T05:01:27Z</time>
      </trkpt>
      <trkpt lat="41.9014770" lon="-8.8740380">
        <ele>34.6</ele>
        <time>2021-05-19T05:01:28Z</time>
      </trkpt>
      <trkpt lat="41.9014860" lon="-8.8740360">
        <ele>34.6</ele>
        <time>2021-05-19T05:01:29Z</time>
      </trkpt>
      <trkpt lat="41.9014950" lon="-8.8740340">
        <ele>34.7</ele>
        <time>2021-05-19T05:01:30Z</time>
      </trkpt>
      <trkpt lat="41.9015030" lon="-8.8740320">
        <ele>34.7</ele>
        <time>2021-05-19T05:01:31Z</time>
      </trkpt>
      <trkpt lat="41.9015120" lon="-8.8740290">
        <ele>34.8</ele>
        <time>2021-05-19T05:01:32Z</time>
      </trkpt>
      <trkpt lat="41.9015210" lon="-8.8740270">
        <ele>34.9</ele>
        <time>2021-05-19T05:01:33Z</time>
      </trkpt>
      <trkpt lat="41.9015300" lon="-8.8740250">
        <ele>35.0</ele>
        <time>2021-05-19T05:01:34Z</time>
      </trkpt>
      <trkpt lat="41.9015380" lon="-8.8740230">
        <ele>35.0</ele>
        <time>2021-05-19T05:01:35Z</time>
      </trkpt>
      <trkpt lat="41.9015470" lon="-8.8740210">
        <ele>35.1</ele>
        <time>2021-05-19T05:01:36Z</time>
      </trkpt>
      <trkpt lat="41.9015560" lon="-8.8740180">
        <ele>35.2</ele>
        <time>2021-05-19T05:01:37Z</time>
      </trkpt>
      <trkpt lat="41.9015640" lon="-8.8740160">
        <ele>35.2</ele>
        <time>2021-05-19T05:01:38Z</time>
      </trkpt>
      <trkpt lat="41.9015730" lon="-8.8740140">
        <ele>35.3</ele>
        <time>2021-05-19T05:01:39Z</time>
      </trkpt>
      <trkpt lat="41.9015820" lon="-8.8740120">
        <ele>35.4</ele>
        <time>2021-05-19T05:01:40Z</time>
      </trkpt>
      <trkpt lat="41.9015900" lon="-8.8740100">
        <ele>35.4</ele>
        <time>2021-05-19T05:01:41Z</time>
      </trkpt>
      <trkpt lat="41.9015990" lon="-8.8740070">
        <ele>35.5</ele>
        <time>2021-05-19T05:01:42Z</time>
      </trkpt>
      <trkpt lat="41.9016080" lon="-8.8740050">
        <ele>35.6</ele>
        <time>2021-05-19T05:01:43Z</time>
      </trkpt>
      <trkpt lat="41.9016160" lon="-8.8740030">
        <ele>35.6</ele>
        <time>2021-05-19T05:01:44Z</time>
      </trkpt>
      <trkpt lat="41.9016250" lon="-8.8740010">
        <ele>35.7</ele>
        <time>2021-05-19T05:01:45Z</time>
      </trkpt>
      <trkpt lat="41.9016340" lon="-8.8739990">
        <ele>35.8</ele>
        <time>2021-05-19T05:01:46Z</time>
      </trkpt>
      <trkpt lat="41.9016420" lon="-8.8739960">
        <ele>35.9</ele>
        <time>2021-05-19T05:01:47Z</time>
      </trkpt>
      <trkpt lat="41.9016510" lon="-8.8739940">
        <ele>35.9</ele>
        <time>2021-05-19T05:01:48Z</time>
      </trkpt>
      <trkpt lat="41.9016600" lon="-8.8739920">
        <ele>36.0</ele>
        <time>2021-05-19T05:01:49Z</time>
      </trkpt>
      <trkpt lat="41.9016690" lon="-8.8739900">
        <ele>36.1</ele>
        <time>2021-05-19T05:01:50Z</time>
      </trkpt>
      <trkpt lat="41.9016770" lon="-8.8739870">
        <ele>36.2</ele>
        <time>2021-05-19T05:01:51Z</time>
      </trkpt>
      <trkpt lat="41.9016860" lon="-8.8739850">
        <ele>36.3</ele>
        <time>2021-05-19T05:01:52Z</time>
      </trkpt>
      <trkpt lat="41.9016950" lon="-8.8739830">
        <ele>36.3</ele>
        <time>2021-05-19T05:01:53Z</time>
      </trkpt>
      <trkpt lat="41.9017030" lon="-8.8739810">
        <ele>36.4</ele>
        <time>2021-05-19T05:01:54Z</time>
      </trkpt>
      <trkpt lat="41.9017120" lon="-8.8739790">
        <ele>36.5</ele>
        <time>2021-05-19T05:01:55Z</time>
      </trkpt>
      <trkpt lat="41.9017210" lon="-8.8739760">
        <ele>36.6</ele>
        <time>2021-05-19T05:01:56Z</time>
      </trkpt>
      <trkpt lat="41.9017290" lon="-8.8739740">
        <ele>36.7</ele>
        <time>2021-05-19T05:01:57Z</time>
      </trkpt>
      <trkpt lat="41.9017380" lon="-8.8739720">
        <ele>36.8</ele>
        <time>2021-05-19T05:01:58Z</time>
      </trkpt>
      <trkpt lat="41.9017770" lon="-8.8739440">
        <ele>37.2</ele>
        <time>2021-05-19T05:01:59Z</time>
      </trkpt>
      <trkpt lat="41.9018080" lon="-8.8739370">
        <ele>37.5</ele>
        <time>2021-05-19T05:02:00Z</time>
      </trkpt>
      <trkpt lat="41.9018420" lon="-8.8739270">
        <ele>38.3</ele>
        <time>2021-05-19T05:02:01Z</time>
      </trkpt>
      <trkpt lat="41.9018530" lon="-8.8739270">
        <ele>38.3</ele>
        <time>2021-05-19T05:02:02Z</time>
      </trkpt>
      <trkpt lat="41.9018970" lon="-8.8739250">
        <ele>38.5</ele>
        <time>2021-05-19T05:02:03Z</time>
      </trkpt>
      <trkpt lat="41.9019180" lon="-8.8739330">
        <ele>38.6</ele>
        <time>2021-05-19T05:02:04Z</time>
      </trkpt>
      <trkpt lat="41.9019370" lon="-8.8739420">
        <ele>38.6</ele>
        <time>2021-05-19T05:02:05Z</time>
      </trkpt>
      <trkpt lat="41.9019530" lon="-8.8739420">
        <ele>38.7</ele>
        <time>2021-05-19T05:02:06Z</time>
      </trkpt>
      <trkpt lat="41.9019680" lon="-8.8739490">
        <ele>38.7</ele>
        <time>2021-05-19T05:02:07Z</time>
      </trkpt>
      <trkpt lat="41.9019740" lon="-8.8739510">
        <ele>38.8</ele>
        <time>2021-05-19T05:02:08Z</time>
      </trkpt>
      <trkpt lat="41.9019790" lon="-8.8739530">
        <ele>38.8</ele>
        <time>2021-05-19T05:02:09Z</time>
      </trkpt>
      <trkpt lat="41.9019840" lon="-8.8739550">
        <ele>38.8</ele>
        <time>2021-05-19T05:02:10Z</time>
      </trkpt>
      <trkpt lat="41.9019900" lon="-8.8739570">
        <ele>38.8</ele>
        <time>2021-05-19T05:02:11Z</time>
      </trkpt>
      <trkpt lat="41.9019950" lon="-8.8739590">
        <ele>38.8</ele>
        <time>2021-05-19T05:02:12Z</time>
      </trkpt>
      <trkpt lat="41.9020020" lon="-8.8739860">
        <ele>38.9</ele>
        <time>2021-05-19T05:02:13Z</time>
      </trkpt>
      <trkpt lat="41.9020140" lon="-8.8739950">
        <ele>38.9</ele>
        <time>2021-05-19T05:02:14Z</time>
      </trkpt>
      <trkpt lat="41.9020310" lon="-8.8740030">
        <ele>38.9</ele>
        <time>2021-05-19T05:02:15Z</time>
      </trkpt>
      <trkpt lat="41.9020430" lon="-8.8740140">
        <ele>38.9</ele>
        <time>2021-05-19T05:02:16Z</time>
      </trkpt>
      <trkpt lat="41.9020560" lon="-8.8740270">
        <ele>38.9</ele>
        <time>2021-05-19T05:02:17Z</time>
      </trkpt>
      <trkpt lat="41.9020630" lon="-8.8740400">
        <ele>38.9</ele>
        <time>2021-05-19T05:02:18Z</time>
      </trkpt>
      <trkpt lat="41.9020690" lon="-8.8740520">
        <ele>39.0</ele>
        <time>2021-05-19T05:02:19Z</time>
      </trkpt>
      <trkpt lat="41.9020750" lon="-8.8740650">
        <ele>39.0</ele>
        <time>2021-05-19T05:02:20Z</time>
      </trkpt>
      <trkpt lat="41.9020910" lon="-8.8740630">
        <ele>39.0</ele>
        <time>2021-05-19T05:02:21Z</time>
      </trkpt>
      <trkpt lat="41.9020960" lon="-8.8740590">
        <ele>39.0</ele>
        <time>2021-05-19T05:02:22Z</time>
      </trkpt>
      <trkpt lat="41.9021000" lon="-8.8740540">
        <ele>39.0</ele>
        <time>2021-05-19T05:02:23Z</time>
      </trkpt>
      <trkpt lat="41.9021050" lon="-8.8740500">
        <ele>39.0</ele>
        <time>2021-05-19T05:02:24Z</time>
      </trkpt>
      <trkpt lat="41.9021100" lon="-8.8740460">
        <ele>39.0</ele>
        <time>2021-05-19T05:02:25Z</time>
      </trkpt>
      <trkpt lat="41.9021030" lon="-8.8740450">
        <ele>39.0</ele>
        <time>2021-05-19T05:02:26Z</time>
      </trkpt>
      <trkpt lat="41.9020970" lon="-8.8740480">
        <ele>39.0</ele>
        <time>2021-05-19T05:02:27Z</time>
      </trkpt>
      <trkpt lat="41.9020920" lon="-8.8740510">
        <ele>39.0</ele>
        <time>2021-05-19T05:02:28Z</time>
      </trkpt>
      <trkpt lat="41.9020890" lon="-8.8740490">
        <ele>39.0</ele>
        <time>2021-05-19T05:02:29Z</time>
      </trkpt>
      <trkpt lat="41.9020840" lon="-8.8740480">
        <ele>39.0</ele>
        <time>2021-05-19T05:02:30Z</time>
      </trkpt>
      <trkpt lat="41.9020750" lon="-8.8740470">
        <ele>39.0</ele>
        <time>2021-05-19T05:02:31Z</time>
      </trkpt>
      <trkpt lat="41.9020780" lon="-8.8740470">
        <ele>39.0</ele>
        <time>2021-05-19T05:02:32Z</time>
      </trkpt>
      <trkpt lat="41.9020830" lon="-8.8740580">
        <ele>39.0</ele>
        <time>2021-05-19T05:02:33Z</time>
      </trkpt>
      <trkpt lat="41.9020940" lon="-8.8740610">
        <ele>39.0</ele>
        <time>2021-05-19T05:02:34Z</time>
      </trkpt>
      <trkpt lat="41.9020990" lon="-8.8740580">
        <ele>39.0</ele>
        <time>2021-05-19T05:02:35Z</time>
      </trkpt>
      <trkpt lat="41.9021040" lon="-8.8740580">
        <ele>39.0</ele>
        <time>2021-05-19T05:02:36Z</time>
      </trkpt>
      <trkpt lat="41.9021250" lon="-8.8740410">
        <ele>39.1</ele>
        <time>2021-05-19T05:02:37Z</time>
      </trkpt>
      <trkpt lat="41.9021290" lon="-8.8740410">
        <ele>39.1</ele>
        <time>2021-05-19T05:02:38Z</time>
      </trkpt>
      <trkpt lat="41.9021380" lon="-8.8740300">
        <ele>39.1</ele>
        <time>2021-05-19T05:02:39Z</time>
      </trkpt>
      <trkpt lat="41.9021410" lon="-8.8740230">
        <ele>39.1</ele>
        <time>2021-05-19T05:02:40Z</time>
      </trkpt>
      <trkpt lat="41.9021450" lon="-8.8740170">
        <ele>39.1</ele>
        <time>2021-05-19T05:02:41Z</time>
      </trkpt>
      <trkpt lat="41.9021480" lon="-8.8740100">
        <ele>39.1</ele>
        <time>2021-05-19T05:02:42Z</time>
      </trkpt>
      <trkpt lat="41.9021510" lon="-8.8740030">
        <ele>39.1</ele>
        <time>2021-05-19T05:02:43Z</time>
      </trkpt>
      <trkpt lat="41.9021540" lon="-8.8739960">
        <ele>39.1</ele>
        <time>2021-05-19T05:02:44Z</time>
      </trkpt>
      <trkpt lat="41.9021570" lon="-8.8739780">
        <ele>39.1</ele>
        <time>2021-05-19T05:02:45Z</time>
      </trkpt>
      <trkpt lat="41.9021640" lon="-8.8739700">
        <ele>39.1</ele>
        <time>2021-05-19T05:02:46Z</time>
      </trkpt>
      <trkpt lat="41.9021700" lon="-8.8739630">
        <ele>39.1</ele>
        <time>2021-05-19T05:02:47Z</time>
      </trkpt>
      <trkpt lat="41.9021760" lon="-8.8739550">
        <ele>39.1</ele>
        <time>2021-05-19T05:02:48Z</time>
      </trkpt>
      <trkpt lat="41.9021840" lon="-8.8739480">
        <ele>39.1</ele>
        <time>2021-05-19T05:02:49Z</time>
      </trkpt>
      <trkpt lat="41.9021870" lon="-8.8739440">
        <ele>39.1</ele>
        <time>2021-05-19T05:02:50Z</time>
      </trkpt>
      <trkpt lat="41.9021890" lon="-8.8739540">
        <ele>39.1</ele>
        <time>2021-05-19T05:02:51Z</time>
      </trkpt>
      <trkpt lat="41.9022040" lon="-8.8739600">
        <ele>39.1</ele>
        <time>2021-05-19T05:02:52Z</time>
      </trkpt>
      <trkpt lat="41.9022300" lon="-8.8739640">
        <ele>39.2</ele>
        <time>2021-05-19T05:02:53Z</time>
      </trkpt>
      <trkpt lat="41.9022390" lon="-8.8739670">
        <ele>39.2</ele>
        <time>2021-05-19T05:02:54Z</time>
      </trkpt>
      <trkpt lat="41.9022600" lon="-8.8739750">
        <ele>39.3</ele>
        <time>2021-05-19T05:02:55Z</time>
      </trkpt>
      <trkpt lat="41.9022700" lon="-8.8739770">
        <ele>39.3</ele>
        <time>2021-05-19T05:02:56Z</time>
      </trkpt>
      <trkpt lat="41.9022790" lon="-8.8739800">
        <ele>39.3</ele>
        <time>2021-05-19T05:02:57Z</time>
      </trkpt>
      <trkpt lat="41.9023080" lon="-8.8739890">
        <ele>39.3</ele>
        <time>2021-05-19T05:02:58Z</time>
      </trkpt>
      <trkpt lat="41.9023420" lon="-8.8739970">
        <ele>39.3</ele>
        <time>2021-05-19T05:02:59Z</time>
      </trkpt>
      <trkpt lat="41.9023500" lon="-8.8740020">
        <ele>39.3</ele>
        <time>2021-05-19T05:03:00Z</time>
      </trkpt>
      <trkpt lat="41.9023680" lon="-8.8740130">
        <ele>39.3</ele>
        <time>2021-05-19T05:03:01Z</time>
      </trkpt>
      <trkpt lat="41.9023770" lon="-8.8740270">
        <ele>39.3</ele>
        <time>2021-05-19T05:03:02Z</time>
      </trkpt>
      <trkpt lat="41.9023780" lon="-8.8740500">
        <ele>39.3</ele>
        <time>2021-05-19T05:03:03Z</time>
      </trkpt>
      <trkpt lat="41.9023870" lon="-8.8740700">
        <ele>39.3</ele>
        <time>2021-05-19T05:03:04Z</time>
      </trkpt>
      <trkpt lat="41.9023900" lon="-8.8740740">
        <ele>39.3</ele>
        <time>2021-05-19T05:03:05Z</time>
      </trkpt>
      <trkpt lat="41.9023950" lon="-8.8740880">
        <ele>39.3</ele>
        <time>2021-05-19T05:03:06Z</time>
      </trkpt>
      <trkpt lat="41.9024060" lon="-8.8741060">
        <ele>39.3</ele>
        <time>2021-05-19T05:03:07Z</time>
      </trkpt>
      <trkpt lat="41.9024140" lon="-8.8741290">
        <ele>39.3</ele>
        <time>2021-05-19T05:03:08Z</time>
      </trkpt>
      <trkpt lat="41.9024250" lon="-8.8741420">
        <ele>39.3</ele>
        <time>2021-05-19T05:03:09Z</time>
      </trkpt>
      <trkpt lat="41.9024390" lon="-8.8741680">
        <ele>39.3</ele>
        <time>2021-05-19T05:03:10Z</time>
      </trkpt>
      <trkpt lat="41.9024510" lon="-8.8741720">
        <ele>39.3</ele>
        <time>2021-05-19T05:03:11Z</time>
      </trkpt>
      <trkpt lat="41.9024620" lon="-8.8741760">
        <ele>39.3</ele>
        <time>2021-05-19T05:03:12Z</time>
      </trkpt>
      <trkpt lat="41.9024730" lon="-8.8741880">
        <ele>39.3</ele>
        <time>2021-05-19T05:03:13Z</time>
      </trkpt>
      <trkpt lat="41.9024920" lon="-8.8741880">
        <ele>39.3</ele>
        <time>2021-05-19T05:03:14Z</time>
      </trkpt>
      <trkpt lat="41.9025060" lon="-8.8741930">
        <ele>39.3</ele>
        <time>2021-05-19T05:03:15Z</time>
      </trkpt>
      <trkpt lat="41.9025160" lon="-8.8742070">
        <ele>39.3</ele>
        <time>2021-05-19T05:03:16Z</time>
      </trkpt>
      <trkpt lat="41.9025220" lon="-8.8742130">
        <ele>39.3</ele>
        <time>2021-05-19T05:03:17Z</time>
      </trkpt>
      <trkpt lat="41.9025290" lon="-8.8742330">
        <ele>39.3</ele>
        <time>2021-05-19T05:03:18Z</time>
      </trkpt>
      <trkpt lat="41.9025320" lon="-8.8742420">
        <ele>39.3</ele>
        <time>2021-05-19T05:03:19Z</time>
      </trkpt>
      <trkpt lat="41.9025480" lon="-8.8742600">
        <ele>39.4</ele>
        <time>2021-05-19T05:03:20Z</time>
      </trkpt>
      <trkpt lat="41.9025530" lon="-8.8742630">
        <ele>39.4</ele>
        <time>2021-05-19T05:03:21Z</time>
      </trkpt>
      <trkpt lat="41.9025580" lon="-8.8742670">
        <ele>39.4</ele>
        <time>2021-05-19T05:03:22Z</time>
      </trkpt>
      <trkpt lat="41.9025630" lon="-8.8742710">
        <ele>39.4</ele>
        <time>2021-05-19T05:03:23Z</time>
      </trkpt>
      <trkpt lat="41.9025700" lon="-8.8742790">
        <ele>39.4</ele>
        <time>2021-05-19T05:03:24Z</time>
      </trkpt>
      <trkpt lat="41.9025830" lon="-8.8742950">
        <ele>39.4</ele>
        <time>2021-05-19T05:03:25Z</time>
      </trkpt>
      <trkpt lat="41.9025910" lon="-8.8743010">
        <ele>39.4</ele>
        <time>2021-05-19T05:03:26Z</time>
      </trkpt>
      <trkpt lat="41.9025980" lon="-8.8743110">
        <ele>39.4</ele>
        <time>2021-05-19T05:03:27Z</time>
      </trkpt>
      <trkpt lat="41.9026060" lon="-8.8743200">
        <ele>39.4</ele>
        <time>2021-05-19T05:03:28Z</time>
      </trkpt>
      <trkpt lat="41.9026120" lon="-8.8743310">
        <ele>39.4</ele>
        <time>2021-05-19T05:03:29Z</time>
      </trkpt>
      <trkpt lat="41.9026130" lon="-8.8743400">
        <ele>39.4</ele>
        <time>2021-05-19T05:03:30Z</time>
      </trkpt>
      <trkpt lat="41.9026170" lon="-8.8743560">
        <ele>39.4</ele>
        <time>2021-05-19T05:03:31Z</time>
      </trkpt>
      <trkpt lat="41.9026250" lon="-8.8743720">
        <ele>39.4</ele>
        <time>2021-05-19T05:03:32Z</time>
      </trkpt>
      <trkpt lat="41.9026320" lon="-8.8743910">
        <ele>39.4</ele>
        <time>2021-05-19T05:03:33Z</time>
      </trkpt>
      <trkpt lat="41.9026390" lon="-8.8744100">
        <ele>39.5</ele>
        <time>2021-05-19T05:03:34Z</time>
      </trkpt>
      <trkpt lat="41.9026460" lon="-8.8744340">
        <ele>39.5</ele>
        <time>2021-05-19T05:03:35Z</time>
      </trkpt>
      <trkpt lat="41.9026520" lon="-8.8744480">
        <ele>39.5</ele>
        <time>2021-05-19T05:03:36Z</time>
      </trkpt>
      <trkpt lat="41.9026590" lon="-8.8744670">
        <ele>39.5</ele>
        <time>2021-05-19T05:03:37Z</time>
      </trkpt>
      <trkpt lat="41.9026700" lon="-8.8744850">
        <ele>39.6</ele>
        <time>2021-05-19T05:03:38Z</time>
      </trkpt>
      <trkpt lat="41.9026760" lon="-8.8745020">
        <ele>39.6</ele>
        <time>2021-05-19T05:03:39Z</time>
      </trkpt>
      <trkpt lat="41.9026790" lon="-8.8745200">
        <ele>39.6</ele>
        <time>2021-05-19T05:03:40Z</time>
      </trkpt>
      <trkpt lat="41.9026880" lon="-8.8745330">
        <ele>39.6</ele>
        <time>2021-05-19T05:03:41Z</time>
      </trkpt>
      <trkpt lat="41.9027070" lon="-8.8745370">
        <ele>39.6</ele>
        <time>2021-05-19T05:03:42Z</time>
      </trkpt>
      <trkpt lat="41.9027120" lon="-8.8745550">
        <ele>39.7</ele>
        <time>2021-05-19T05:03:43Z</time>
      </trkpt>
      <trkpt lat="41.9027240" lon="-8.8745690">
        <ele>39.7</ele>
        <time>2021-05-19T05:03:44Z</time>
      </trkpt>
      <trkpt lat="41.9027350" lon="-8.8745830">
        <ele>39.7</ele>
        <time>2021-05-19T05:03:45Z</time>
      </trkpt>
      <trkpt lat="41.9027480" lon="-8.8745930">
        <ele>39.7</ele>
        <time>2021-05-19T05:03:46Z</time>
      </trkpt>
      <trkpt lat="41.9027580" lon="-8.8746040">
        <ele>39.8</ele>
        <time>2021-05-19T05:03:47Z</time>
      </trkpt>
      <trkpt lat="41.9027670" lon="-8.8746100">
        <ele>39.8</ele>
        <time>2021-05-19T05:03:48Z</time>
      </trkpt>
      <trkpt lat="41.9027780" lon="-8.8746170">
        <ele>39.8</ele>
        <time>2021-05-19T05:03:49Z</time>
      </trkpt>
      <trkpt lat="41.9027890" lon="-8.8746310">
        <ele>39.8</ele>
        <time>2021-05-19T05:03:50Z</time>
      </trkpt>
      <trkpt lat="41.9028000" lon="-8.8746420">
        <ele>39.8</ele>
        <time>2021-05-19T05:03:51Z</time>
      </trkpt>
      <trkpt lat="41.9028180" lon="-8.8746610">
        <ele>39.9</ele>
        <time>2021-05-19T05:03:52Z</time>
      </trkpt>
      <trkpt lat="41.9028230" lon="-8.8746780">
        <ele>39.9</ele>
        <time>2021-05-19T05:03:53Z</time>
      </trkpt>
      <trkpt lat="41.9028330" lon="-8.8746910">
        <ele>39.9</ele>
        <time>2021-05-19T05:03:54Z</time>
      </trkpt>
      <trkpt lat="41.9028420" lon="-8.8746990">
        <ele>39.9</ele>
        <time>2021-05-19T05:03:55Z</time>
      </trkpt>
      <trkpt lat="41.9028430" lon="-8.8747110">
        <ele>39.9</ele>
        <time>2021-05-19T05:03:56Z</time>
      </trkpt>
      <trkpt lat="41.9028610" lon="-8.8747330">
        <ele>39.9</ele>
        <time>2021-05-19T05:03:57Z</time>
      </trkpt>
      <trkpt lat="41.9028690" lon="-8.8747460">
        <ele>39.9</ele>
        <time>2021-05-19T05:03:58Z</time>
      </trkpt>
      <trkpt lat="41.9028710" lon="-8.8747520">
        <ele>39.9</ele>
        <time>2021-05-19T05:03:59Z</time>
      </trkpt>
      <trkpt lat="41.9028840" lon="-8.8747710">
        <ele>39.9</ele>
        <time>2021-05-19T05:04:00Z</time>
      </trkpt>
      <trkpt lat="41.9028950" lon="-8.8747760">
        <ele>39.9</ele>
        <time>2021-05-19T05:04:01Z</time>
      </trkpt>
      <trkpt lat="41.9029100" lon="-8.8747960">
        <ele>39.9</ele>
        <time>2021-05-19T05:04:02Z</time>
      </trkpt>
      <trkpt lat="41.9029120" lon="-8.8748070">
        <ele>39.9</ele>
        <time>2021-05-19T05:04:03Z</time>
      </trkpt>
      <trkpt lat="41.9029110" lon="-8.8748050">
        <ele>39.9</ele>
        <time>2021-05-19T05:04:04Z</time>
      </trkpt>
      <trkpt lat="41.9029160" lon="-8.8748070">
        <ele>39.9</ele>
        <time>2021-05-19T05:04:05Z</time>
      </trkpt>
      <trkpt lat="41.9029250" lon="-8.8748180">
        <ele>39.9</ele>
        <time>2021-05-19T05:04:06Z</time>
      </trkpt>
      <trkpt lat="41.9029360" lon="-8.8748350">
        <ele>39.9</ele>
        <time>2021-05-19T05:04:07Z</time>
      </trkpt>
      <trkpt lat="41.9029480" lon="-8.8748350">
        <ele>39.9</ele>
        <time>2021-05-19T05:04:08Z</time>
      </trkpt>
      <trkpt lat="41.9029580" lon="-8.8748440">
        <ele>39.9</ele>
        <time>2021-05-19T05:04:09Z</time>
      </trkpt>
      <trkpt lat="41.9029700" lon="-8.8748510">
        <ele>39.9</ele>
        <time>2021-05-19T05:04:10Z</time>
      </trkpt>
      <trkpt lat="41.9029850" lon="-8.8748650">
        <ele>39.9</ele>
        <time>2021-05-19T05:04:11Z</time>
      </trkpt>
      <trkpt lat="41.9030000" lon="-8.8748700">
        <ele>39.9</ele>
        <time>2021-05-19T05:04:12Z</time>
      </trkpt>
      <trkpt lat="41.9030180" lon="-8.8748820">
        <ele>39.9</ele>
        <time>2021-05-19T05:04:13Z</time>
      </trkpt>
      <trkpt lat="41.9030290" lon="-8.8748800">
        <ele>39.9</ele>
        <time>2021-05-19T05:04:14Z</time>
      </trkpt>
      <trkpt lat="41.9030350" lon="-8.8748990">
        <ele>39.9</ele>
        <time>2021-05-19T05:04:15Z</time>
      </trkpt>
      <trkpt lat="41.9030430" lon="-8.8749150">
        <ele>39.9</ele>
        <time>2021-05-19T05:04:16Z</time>
      </trkpt>
      <trkpt lat="41.9030580" lon="-8.8749050">
        <ele>39.9</ele>
        <time>2021-05-19T05:04:17Z</time>
      </trkpt>
      <trkpt lat="41.9030680" lon="-8.8749120">
        <ele>39.9</ele>
        <time>2021-05-19T05:04:18Z</time>
      </trkpt>
      <trkpt lat="41.9030780" lon="-8.8749240">
        <ele>39.9</ele>
        <time>2021-05-19T05:04:19Z</time>
      </trkpt>
      <trkpt lat="41.9030850" lon="-8.8749210">
        <ele>39.9</ele>
        <time>2021-05-19T05:04:20Z</time>
      </trkpt>
      <trkpt lat="41.9030910" lon="-8.8749340">
        <ele>39.9</ele>
        <time>2021-05-19T05:04:21Z</time>
      </trkpt>
      <trkpt lat="41.9031030" lon="-8.8749420">
        <ele>39.9</ele>
        <time>2021-05-19T05:04:22Z</time>
      </trkpt>
      <trkpt lat="41.9031090" lon="-8.8749420">
        <ele>39.9</ele>
        <time>2021-05-19T05:04:23Z</time>
      </trkpt>
      <trkpt lat="41.9031110" lon="-8.8749350">
        <ele>39.9</ele>
        <time>2021-05-19T05:04:24Z</time>
      </trkpt>
      <trkpt lat="41.9031230" lon="-8.8749310">
        <ele>39.9</ele>
        <time>2021-05-19T05:04:25Z</time>
      </trkpt>
      <trkpt lat="41.9031270" lon="-8.8749290">
        <ele>39.9</ele>
        <time>2021-05-19T05:04:26Z</time>
      </trkpt>
      <trkpt lat="41.9031340" lon="-8.8749250">
        <ele>40.0</ele>
        <time>2021-05-19T05:04:27Z</time>
      </trkpt>
      <trkpt lat="41.9031350" lon="-8.8749210">
        <ele>40.0</ele>
        <time>2021-05-19T05:04:28Z</time>
      </trkpt>
      <trkpt lat="41.9031370" lon="-8.8749160">
        <ele>40.0</ele>
        <time>2021-05-19T05:04:29Z</time>
      </trkpt>
      <trkpt lat="41.9031380" lon="-8.8749110">
        <ele>40.0</ele>
        <time>2021-05-19T05:04:30Z</time>
      </trkpt>
      <trkpt lat="41.9031420" lon="-8.8749060">
        <ele>40.0</ele>
        <time>2021-05-19T05:04:31Z</time>
      </trkpt>
      <trkpt lat="41.9031430" lon="-8.8749030">
        <ele>40.0</ele>
        <time>2021-05-19T05:04:32Z</time>
      </trkpt>
      <trkpt lat="41.9031440" lon="-8.8748990">
        <ele>40.0</ele>
        <time>2021-05-19T05:04:33Z</time>
      </trkpt>
      <trkpt lat="41.9031450" lon="-8.8749050">
        <ele>40.0</ele>
        <time>2021-05-19T05:04:34Z</time>
      </trkpt>
      <trkpt lat="41.9031460" lon="-8.8749080">
        <ele>40.0</ele>
        <time>2021-05-19T05:04:35Z</time>
      </trkpt>
      <trkpt lat="41.9031450" lon="-8.8749030">
        <ele>40.0</ele>
        <time>2021-05-19T05:04:36Z</time>
      </trkpt>
      <trkpt lat="41.9031430" lon="-8.8749050">
        <ele>40.0</ele>
        <time>2021-05-19T05:04:37Z</time>
      </trkpt>
      <trkpt lat="41.9031440" lon="-8.8749050">
        <ele>40.0</ele>
        <time>2021-05-19T05:04:38Z</time>
      </trkpt>
      <trkpt lat="41.9031510" lon="-8.8749090">
        <ele>40.0</ele>
        <time>2021-05-19T05:04:39Z</time>
      </trkpt>
      <trkpt lat="41.9031520" lon="-8.8749090">
        <ele>40.0</ele>
        <time>2021-05-19T05:04:40Z</time>
      </trkpt>
      <trkpt lat="41.9031520" lon="-8.8749090">
        <ele>40.0</ele>
        <time>2021-05-19T05:04:41Z</time>
      </trkpt>
      <trkpt lat="41.9031520" lon="-8.8749090">
        <ele>40.0</ele>
        <time>2021-05-19T05:04:42Z</time>
      </trkpt>
      <trkpt lat="41.9031430" lon="-8.8749010">
        <ele>40.0</ele>
        <time>2021-05-19T05:04:43Z</time>
      </trkpt>
      <trkpt lat="41.9031440" lon="-8.8749020">
        <ele>40.0</ele>
        <time>2021-05-19T05:04:44Z</time>
      </trkpt>
      <trkpt lat="41.9031440" lon="-8.8749040">
        <ele>40.0</ele>
        <time>2021-05-19T05:04:45Z</time>
      </trkpt>
      <trkpt lat="41.9031460" lon="-8.8749070">
        <ele>40.0</ele>
        <time>2021-05-19T05:04:46Z</time>
      </trkpt>
      <trkpt lat="41.9031480" lon="-8.8749120">
        <ele>40.0</ele>
        <time>2021-05-19T05:04:47Z</time>
      </trkpt>
      <trkpt lat="41.9031560" lon="-8.8749380">
        <ele>40.0</ele>
        <time>2021-05-19T05:04:48Z</time>
      </trkpt>
      <trkpt lat="41.9031600" lon="-8.8749570">
        <ele>40.0</ele>
        <time>2021-05-19T05:04:49Z</time>
      </trkpt>
      <trkpt lat="41.9031690" lon="-8.8749630">
        <ele>40.1</ele>
        <time>2021-05-19T05:04:50Z</time>
      </trkpt>
      <trkpt lat="41.9031770" lon="-8.8749770">
        <ele>40.1</ele>
        <time>2021-05-19T05:04:51Z</time>
      </trkpt>
      <trkpt lat="41.9031850" lon="-8.8749860">
        <ele>40.1</ele>
        <time>2021-05-19T05:04:52Z</time>
      </trkpt>
      <trkpt lat="41.9031950" lon="-8.8749980">
        <ele>40.1</ele>
        <time>2021-05-19T05:04:53Z</time>
      </trkpt>
      <trkpt lat="41.9032020" lon="-8.8750030">
        <ele>40.1</ele>
        <time>2021-05-19T05:04:54Z</time>
      </trkpt>
      <trkpt lat="41.9032090" lon="-8.8750090">
        <ele>40.1</ele>
        <time>2021-05-19T05:04:55Z</time>
      </trkpt>
      <trkpt lat="41.9032160" lon="-8.8750140">
        <ele>40.1</ele>
        <time>2021-05-19T05:04:56Z</time>
      </trkpt>
      <trkpt lat="41.9032280" lon="-8.8750260">
        <ele>40.2</ele>
        <time>2021-05-19T05:04:57Z</time>
      </trkpt>
      <trkpt lat="41.9032440" lon="-8.8750270">
        <ele>40.2</ele>
        <time>2021-05-19T05:04:58Z</time>
      </trkpt>
      <trkpt lat="41.9032510" lon="-8.8750430">
        <ele>40.2</ele>
        <time>2021-05-19T05:04:59Z</time>
      </trkpt>
      <trkpt lat="41.9032600" lon="-8.8750570">
        <ele>40.2</ele>
        <time>2021-05-19T05:05:00Z</time>
      </trkpt>
      <trkpt lat="41.9032740" lon="-8.8750840">
        <ele>40.2</ele>
        <time>2021-05-19T05:05:01Z</time>
      </trkpt>
      <trkpt lat="41.9032810" lon="-8.8750950">
        <ele>40.3</ele>
        <time>2021-05-19T05:05:02Z</time>
      </trkpt>
      <trkpt lat="41.9032880" lon="-8.8751060">
        <ele>40.3</ele>
        <time>2021-05-19T05:05:03Z</time>
      </trkpt>
      <trkpt lat="41.9033070" lon="-8.8751400">
        <ele>40.3</ele>
        <time>2021-05-19T05:05:04Z</time>
      </trkpt>
      <trkpt lat="41.9033120" lon="-8.8751530">
        <ele>40.3</ele>
        <time>2021-05-19T05:05:05Z</time>
      </trkpt>
      <trkpt lat="41.9033220" lon="-8.8751800">
        <ele>40.3</ele>
        <time>2021-05-19T05:05:06Z</time>
      </trkpt>
      <trkpt lat="41.9033340" lon="-8.8751850">
        <ele>40.3</ele>
        <time>2021-05-19T05:05:07Z</time>
      </trkpt>
      <trkpt lat="41.9033410" lon="-8.8751900">
        <ele>40.3</ele>
        <time>2021-05-19T05:05:08Z</time>
      </trkpt>
      <trkpt lat="41.9033530" lon="-8.8751970">
        <ele>40.4</ele>
        <time>2021-05-19T05:05:09Z</time>
      </trkpt>
      <trkpt lat="41.9033580" lon="-8.8752090">
        <ele>40.4</ele>
        <time>2021-05-19T05:05:10Z</time>
      </trkpt>
      <trkpt lat="41.9033620" lon="-8.8752190">
        <ele>40.4</ele>
        <time>2021-05-19T05:05:11Z</time>
      </trkpt>
      <trkpt lat="41.9033680" lon="-8.8752310">
        <ele>40.4</ele>
        <time>2021-05-19T05:05:12Z</time>
      </trkpt>
      <trkpt lat="41.9033740" lon="-8.8752360">
        <ele>40.4</ele>
        <time>2021-05-19T05:05:13Z</time>
      </trkpt>
      <trkpt lat="41.9033800" lon="-8.8752410">
        <ele>40.4</ele>
        <time>2021-05-19T05:05:14Z</time>
      </trkpt>
      <trkpt lat="41.9033830" lon="-8.8752510">
        <ele>40.4</ele>
        <time>2021-05-19T05:05:15Z</time>
      </trkpt>
      <trkpt lat="41.9033870" lon="-8.8752530">
        <ele>40.4</ele>
        <time>2021-05-19T05:05:16Z</time>
      </trkpt>
      <trkpt lat="41.9033900" lon="-8.8752560">
        <ele>40.4</ele>
        <time>2021-05-19T05:05:17Z</time>
      </trkpt>
      <trkpt lat="41.9033940" lon="-8.8752590">
        <ele>40.4</ele>
        <time>2021-05-19T05:05:18Z</time>
      </trkpt>
      <trkpt lat="41.9033980" lon="-8.8752620">
        <ele>40.4</ele>
        <time>2021-05-19T05:05:19Z</time>
      </trkpt>
      <trkpt lat="41.9034020" lon="-8.8752640">
        <ele>40.4</ele>
        <time>2021-05-19T05:05:20Z</time>
      </trkpt>
      <trkpt lat="41.9034050" lon="-8.8752670">
        <ele>40.4</ele>
        <time>2021-05-19T05:05:21Z</time>
      </trkpt>
      <trkpt lat="41.9034090" lon="-8.8752700">
        <ele>40.4</ele>
        <time>2021-05-19T05:05:22Z</time>
      </trkpt>
      <trkpt lat="41.9034260" lon="-8.8752990">
        <ele>40.5</ele>
        <time>2021-05-19T05:05:23Z</time>
      </trkpt>
      <trkpt lat="41.9034310" lon="-8.8753100">
        <ele>40.5</ele>
        <time>2021-05-19T05:05:24Z</time>
      </trkpt>
      <trkpt lat="41.9034380" lon="-8.8753250">
        <ele>40.5</ele>
        <time>2021-05-19T05:05:25Z</time>
      </trkpt>
      <trkpt lat="41.9034470" lon="-8.8753400">
        <ele>40.5</ele>
        <time>2021-05-19T05:05:26Z</time>
      </trkpt>
      <trkpt lat="41.9034550" lon="-8.8753410">
        <ele>40.5</ele>
        <time>2021-05-19T05:05:27Z</time>
      </trkpt>
      <trkpt lat="41.9034760" lon="-8.8753520">
        <ele>40.6</ele>
        <time>2021-05-19T05:05:28Z</time>
      </trkpt>
      <trkpt lat="41.9034920" lon="-8.8753570">
        <ele>40.6</ele>
        <time>2021-05-19T05:05:29Z</time>
      </trkpt>
      <trkpt lat="41.9035060" lon="-8.8753570">
        <ele>40.6</ele>
        <time>2021-05-19T05:05:30Z</time>
      </trkpt>
      <trkpt lat="41.9035340" lon="-8.8753470">
        <ele>40.7</ele>
        <time>2021-05-19T05:05:31Z</time>
      </trkpt>
      <trkpt lat="41.9035450" lon="-8.8753440">
        <ele>40.7</ele>
        <time>2021-05-19T05:05:32Z</time>
      </trkpt>
      <trkpt lat="41.9035620" lon="-8.8753490">
        <ele>40.7</ele>
        <time>2021-05-19T05:05:33Z</time>
      </trkpt>
      <trkpt lat="41.9035690" lon="-8.8753550">
        <ele>40.7</ele>
        <time>2021-05-19T05:05:34Z</time>
      </trkpt>
      <trkpt lat="41.9035730" lon="-8.8753560">
        <ele>40.8</ele>
        <time>2021-05-19T05:05:35Z</time>
      </trkpt>
      <trkpt lat="41.9035900" lon="-8.8753400">
        <ele>40.8</ele>
        <time>2021-05-19T05:05:36Z</time>
      </trkpt>
      <trkpt lat="41.9036010" lon="-8.8753330">
        <ele>40.8</ele>
        <time>2021-05-19T05:05:37Z</time>
      </trkpt>
      <trkpt lat="41.9036230" lon="-8.8753310">
        <ele>40.9</ele>
        <time>2021-05-19T05:05:38Z</time>
      </trkpt>
      <trkpt lat="41.9036320" lon="-8.8753290">
        <ele>40.9</ele>
        <time>2021-05-19T05:05:39Z</time>
      </trkpt>
      <trkpt lat="41.9036420" lon="-8.8753270">
        <ele>40.9</ele>
        <time>2021-05-19T05:05:40Z</time>
      </trkpt>
      <trkpt lat="41.9036660" lon="-8.8753090">
        <ele>41.0</ele>
        <time>2021-05-19T05:05:41Z</time>
      </trkpt>
      <trkpt lat="41.9036770" lon="-8.8753020">
        <ele>41.0</ele>
        <time>2021-05-19T05:05:42Z</time>
      </trkpt>
      <trkpt lat="41.9036950" lon="-8.8752930">
        <ele>41.0</ele>
        <time>2021-05-19T05:05:43Z</time>
      </trkpt>
      <trkpt lat="41.9037130" lon="-8.8753000">
        <ele>41.1</ele>
        <time>2021-05-19T05:05:44Z</time>
      </trkpt>
      <trkpt lat="41.9037290" lon="-8.8753010">
        <ele>41.1</ele>
        <time>2021-05-19T05:05:45Z</time>
      </trkpt>
      <trkpt lat="41.9037380" lon="-8.8752960">
        <ele>41.1</ele>
        <time>2021-05-19T05:05:46Z</time>
      </trkpt>
      <trkpt lat="41.9037410" lon="-8.8753070">
        <ele>41.1</ele>
        <time>2021-05-19T05:05:47Z</time>
      </trkpt>
      <trkpt lat="41.9037500" lon="-8.8753150">
        <ele>41.1</ele>
        <time>2021-05-19T05:05:48Z</time>
      </trkpt>
      <trkpt lat="41.9037580" lon="-8.8753170">
        <ele>41.2</ele>
        <time>2021-05-19T05:05:49Z</time>
      </trkpt>
      <trkpt lat="41.9037600" lon="-8.8753050">
        <ele>41.2</ele>
        <time>2021-05-19T05:05:50Z</time>
      </trkpt>
      <trkpt lat="41.9037720" lon="-8.8753030">
        <ele>41.2</ele>
        <time>2021-05-19T05:05:51Z</time>
      </trkpt>
      <trkpt lat="41.9037910" lon="-8.8753040">
        <ele>41.1</ele>
        <time>2021-05-19T05:05:52Z</time>
      </trkpt>
      <trkpt lat="41.9038030" lon="-8.8753030">
        <ele>41.1</ele>
        <time>2021-05-19T05:05:53Z</time>
      </trkpt>
      <trkpt lat="41.9038340" lon="-8.8753080">
        <ele>41.1</ele>
        <time>2021-05-19T05:05:54Z</time>
      </trkpt>
      <trkpt lat="41.9038420" lon="-8.8753140">
        <ele>41.1</ele>
        <time>2021-05-19T05:05:55Z</time>
      </trkpt>
      <trkpt lat="41.9038730" lon="-8.8753110">
        <ele>41.1</ele>
        <time>2021-05-19T05:05:56Z</time>
      </trkpt>
      <trkpt lat="41.9038840" lon="-8.8753120">
        <ele>41.1</ele>
        <time>2021-05-19T05:05:57Z</time>
      </trkpt>
      <trkpt lat="41.9039070" lon="-8.8753200">
        <ele>41.1</ele>
        <time>2021-05-19T05:05:58Z</time>
      </trkpt>
      <trkpt lat="41.9039140" lon="-8.8753260">
        <ele>41.1</ele>
        <time>2021-05-19T05:05:59Z</time>
      </trkpt>
      <trkpt lat="41.9039210" lon="-8.8753310">
        <ele>41.1</ele>
        <time>2021-05-19T05:06:00Z</time>
      </trkpt>
      <trkpt lat="41.9039400" lon="-8.8753440">
        <ele>41.0</ele>
        <time>2021-05-19T05:06:01Z</time>
      </trkpt>
      <trkpt lat="41.9039450" lon="-8.8753530">
        <ele>41.0</ele>
        <time>2021-05-19T05:06:02Z</time>
      </trkpt>
      <trkpt lat="41.9039510" lon="-8.8753570">
        <ele>41.0</ele>
        <time>2021-05-19T05:06:03Z</time>
      </trkpt>
      <trkpt lat="41.9039520" lon="-8.8753660">
        <ele>41.0</ele>
        <time>2021-05-19T05:06:04Z</time>
      </trkpt>
      <trkpt lat="41.9039600" lon="-8.8753690">
        <ele>41.0</ele>
        <time>2021-05-19T05:06:05Z</time>
      </trkpt>
      <trkpt lat="41.9039720" lon="-8.8753670">
        <ele>40.9</ele>
        <time>2021-05-19T05:06:06Z</time>
      </trkpt>
      <trkpt lat="41.9039960" lon="-8.8753760">
        <ele>40.9</ele>
        <time>2021-05-19T05:06:07Z</time>
      </trkpt>
      <trkpt lat="41.9040070" lon="-8.8753850">
        <ele>40.8</ele>
        <time>2021-05-19T05:06:08Z</time>
      </trkpt>
      <trkpt lat="41.9040310" lon="-8.8754070">
        <ele>40.8</ele>
        <time>2021-05-19T05:06:09Z</time>
      </trkpt>
      <trkpt lat="41.9040400" lon="-8.8754160">
        <ele>40.7</ele>
        <time>2021-05-19T05:06:10Z</time>
      </trkpt>
      <trkpt lat="41.9040660" lon="-8.8754440">
        <ele>40.7</ele>
        <time>2021-05-19T05:06:11Z</time>
      </trkpt>
      <trkpt lat="41.9040720" lon="-8.8754510">
        <ele>40.6</ele>
        <time>2021-05-19T05:06:12Z</time>
      </trkpt>
      <trkpt lat="41.9040840" lon="-8.8754690">
        <ele>40.6</ele>
        <time>2021-05-19T05:06:13Z</time>
      </trkpt>
      <trkpt lat="41.9040950" lon="-8.8754860">
        <ele>40.6</ele>
        <time>2021-05-19T05:06:14Z</time>
      </trkpt>
      <trkpt lat="41.9041220" lon="-8.8755060">
        <ele>40.4</ele>
        <time>2021-05-19T05:06:15Z</time>
      </trkpt>
      <trkpt lat="41.9041310" lon="-8.8755120">
        <ele>40.4</ele>
        <time>2021-05-19T05:06:16Z</time>
      </trkpt>
      <trkpt lat="41.9041470" lon="-8.8755200">
        <ele>40.3</ele>
        <time>2021-05-19T05:06:17Z</time>
      </trkpt>
      <trkpt lat="41.9041600" lon="-8.8755300">
        <ele>40.2</ele>
        <time>2021-05-19T05:06:18Z</time>
      </trkpt>
      <trkpt lat="41.9041520" lon="-8.8755400">
        <ele>40.2</ele>
        <time>2021-05-19T05:06:19Z</time>
      </trkpt>
      <trkpt lat="41.9041600" lon="-8.8755540">
        <ele>40.1</ele>
        <time>2021-05-19T05:06:20Z</time>
      </trkpt>
      <trkpt lat="41.9041720" lon="-8.8755670">
        <ele>40.0</ele>
        <time>2021-05-19T05:06:21Z</time>
      </trkpt>
      <trkpt lat="41.9041820" lon="-8.8755780">
        <ele>40.0</ele>
        <time>2021-05-19T05:06:22Z</time>
      </trkpt>
      <trkpt lat="41.9041910" lon="-8.8756020">
        <ele>39.9</ele>
        <time>2021-05-19T05:06:23Z</time>
      </trkpt>
      <trkpt lat="41.9042110" lon="-8.8756320">
        <ele>39.7</ele>
        <time>2021-05-19T05:06:24Z</time>
      </trkpt>
      <trkpt lat="41.9042190" lon="-8.8756400">
        <ele>39.7</ele>
        <time>2021-05-19T05:06:25Z</time>
      </trkpt>
      <trkpt lat="41.9042520" lon="-8.8756560">
        <ele>39.5</ele>
        <time>2021-05-19T05:06:26Z</time>
      </trkpt>
      <trkpt lat="41.9042610" lon="-8.8756660">
        <ele>39.4</ele>
        <time>2021-05-19T05:06:27Z</time>
      </trkpt>
      <trkpt lat="41.9042880" lon="-8.8756860">
        <ele>39.2</ele>
        <time>2021-05-19T05:06:28Z</time>
      </trkpt>
      <trkpt lat="41.9043000" lon="-8.8756940">
        <ele>39.2</ele>
        <time>2021-05-19T05:06:29Z</time>
      </trkpt>
      <trkpt lat="41.9042910" lon="-8.8757020">
        <ele>39.1</ele>
        <time>2021-05-19T05:06:30Z</time>
      </trkpt>
      <trkpt lat="41.9042970" lon="-8.8757130">
        <ele>39.1</ele>
        <time>2021-05-19T05:06:31Z</time>
      </trkpt>
      <trkpt lat="41.9043030" lon="-8.8757310">
        <ele>39.0</ele>
        <time>2021-05-19T05:06:32Z</time>
      </trkpt>
      <trkpt lat="41.9043150" lon="-8.8757480">
        <ele>38.9</ele>
        <time>2021-05-19T05:06:33Z</time>
      </trkpt>
      <trkpt lat="41.9043210" lon="-8.8757590">
        <ele>38.8</ele>
        <time>2021-05-19T05:06:34Z</time>
      </trkpt>
      <trkpt lat="41.9043260" lon="-8.8757700">
        <ele>38.8</ele>
        <time>2021-05-19T05:06:35Z</time>
      </trkpt>
      <trkpt lat="41.9043330" lon="-8.8757820">
        <ele>38.7</ele>
        <time>2021-05-19T05:06:36Z</time>
      </trkpt>
      <trkpt lat="41.9043390" lon="-8.8757930">
        <ele>38.6</ele>
        <time>2021-05-19T05:06:37Z</time>
      </trkpt>
      <trkpt lat="41.9043480" lon="-8.8757960">
        <ele>38.6</ele>
        <time>2021-05-19T05:06:38Z</time>
      </trkpt>
      <trkpt lat="41.9043650" lon="-8.8758130">
        <ele>38.5</ele>
        <time>2021-05-19T05:06:39Z</time>
      </trkpt>
      <trkpt lat="41.9043740" lon="-8.8758230">
        <ele>38.4</ele>
        <time>2021-05-19T05:06:40Z</time>
      </trkpt>
      <trkpt lat="41.9043820" lon="-8.8758320">
        <ele>38.3</ele>
        <time>2021-05-19T05:06:41Z</time>
      </trkpt>
      <trkpt lat="41.9043900" lon="-8.8758490">
        <ele>38.3</ele>
        <time>2021-05-19T05:06:42Z</time>
      </trkpt>
      <trkpt lat="41.9043930" lon="-8.8758630">
        <ele>38.2</ele>
        <time>2021-05-19T05:06:43Z</time>
      </trkpt>
      <trkpt lat="41.9044030" lon="-8.8758710">
        <ele>38.2</ele>
        <time>2021-05-19T05:06:44Z</time>
      </trkpt>
      <trkpt lat="41.9044280" lon="-8.8758910">
        <ele>38.0</ele>
        <time>2021-05-19T05:06:45Z</time>
      </trkpt>
      <trkpt lat="41.9044350" lon="-8.8758950">
        <ele>38.0</ele>
        <time>2021-05-19T05:06:46Z</time>
      </trkpt>
      <trkpt lat="41.9044420" lon="-8.8759000">
        <ele>37.9</ele>
        <time>2021-05-19T05:06:47Z</time>
      </trkpt>
      <trkpt lat="41.9044480" lon="-8.8758990">
        <ele>37.9</ele>
        <time>2021-05-19T05:06:48Z</time>
      </trkpt>
      <trkpt lat="41.9044490" lon="-8.8758980">
        <ele>37.9</ele>
        <time>2021-05-19T05:06:49Z</time>
      </trkpt>
      <trkpt lat="41.9044520" lon="-8.8759010">
        <ele>37.9</ele>
        <time>2021-05-19T05:06:50Z</time>
      </trkpt>
      <trkpt lat="41.9044550" lon="-8.8759130">
        <ele>37.9</ele>
        <time>2021-05-19T05:06:51Z</time>
      </trkpt>
      <trkpt lat="41.9044640" lon="-8.8759310">
        <ele>37.9</ele>
        <time>2021-05-19T05:06:52Z</time>
      </trkpt>
      <trkpt lat="41.9044720" lon="-8.8759650">
        <ele>37.8</ele>
        <time>2021-05-19T05:06:53Z</time>
      </trkpt>
      <trkpt lat="41.9044720" lon="-8.8759750">
        <ele>37.8</ele>
        <time>2021-05-19T05:06:54Z</time>
      </trkpt>
      <trkpt lat="41.9044890" lon="-8.8759920">
        <ele>37.8</ele>
        <time>2021-05-19T05:06:55Z</time>
      </trkpt>
      <trkpt lat="41.9044970" lon="-8.8759970">
        <ele>37.7</ele>
        <time>2021-05-19T05:06:56Z</time>
      </trkpt>
      <trkpt lat="41.9045080" lon="-8.8760110">
        <ele>37.7</ele>
        <time>2021-05-19T05:06:57Z</time>
      </trkpt>
      <trkpt lat="41.9045250" lon="-8.8760270">
        <ele>37.6</ele>
        <time>2021-05-19T05:06:58Z</time>
      </trkpt>
      <trkpt lat="41.9045430" lon="-8.8760350">
        <ele>37.6</ele>
        <time>2021-05-19T05:06:59Z</time>
      </trkpt>
      <trkpt lat="41.9045540" lon="-8.8760420">
        <ele>37.5</ele>
        <time>2021-05-19T05:07:00Z</time>
      </trkpt>
      <trkpt lat="41.9045640" lon="-8.8760490">
        <ele>37.5</ele>
        <time>2021-05-19T05:07:01Z</time>
      </trkpt>
      <trkpt lat="41.9045890" lon="-8.8760680">
        <ele>37.4</ele>
        <time>2021-05-19T05:07:02Z</time>
      </trkpt>
      <trkpt lat="41.9045960" lon="-8.8760730">
        <ele>37.4</ele>
        <time>2021-05-19T05:07:03Z</time>
      </trkpt>
      <trkpt lat="41.9046040" lon="-8.8760750">
        <ele>37.3</ele>
        <time>2021-05-19T05:07:04Z</time>
      </trkpt>
      <trkpt lat="41.9046110" lon="-8.8760740">
        <ele>37.3</ele>
        <time>2021-05-19T05:07:05Z</time>
      </trkpt>
      <trkpt lat="41.9046260" lon="-8.8760790">
        <ele>37.3</ele>
        <time>2021-05-19T05:07:06Z</time>
      </trkpt>
      <trkpt lat="41.9046320" lon="-8.8760850">
        <ele>37.3</ele>
        <time>2021-05-19T05:07:07Z</time>
      </trkpt>
      <trkpt lat="41.9046410" lon="-8.8760880">
        <ele>37.2</ele>
        <time>2021-05-19T05:07:08Z</time>
      </trkpt>
      <trkpt lat="41.9046520" lon="-8.8760940">
        <ele>37.2</ele>
        <time>2021-05-19T05:07:09Z</time>
      </trkpt>
      <trkpt lat="41.9046490" lon="-8.8761120">
        <ele>37.2</ele>
        <time>2021-05-19T05:07:10Z</time>
      </trkpt>
      <trkpt lat="41.9046550" lon="-8.8761220">
        <ele>37.1</ele>
        <time>2021-05-19T05:07:11Z</time>
      </trkpt>
      <trkpt lat="41.9046670" lon="-8.8761290">
        <ele>37.1</ele>
        <time>2021-05-19T05:07:12Z</time>
      </trkpt>
      <trkpt lat="41.9046850" lon="-8.8761330">
        <ele>37.1</ele>
        <time>2021-05-19T05:07:13Z</time>
      </trkpt>
      <trkpt lat="41.9046960" lon="-8.8761410">
        <ele>37.0</ele>
        <time>2021-05-19T05:07:14Z</time>
      </trkpt>
      <trkpt lat="41.9047050" lon="-8.8761490">
        <ele>37.0</ele>
        <time>2021-05-19T05:07:15Z</time>
      </trkpt>
      <trkpt lat="41.9047250" lon="-8.8761600">
        <ele>36.9</ele>
        <time>2021-05-19T05:07:16Z</time>
      </trkpt>
      <trkpt lat="41.9047510" lon="-8.8761800">
        <ele>36.9</ele>
        <time>2021-05-19T05:07:17Z</time>
      </trkpt>
      <trkpt lat="41.9047600" lon="-8.8761860">
        <ele>36.9</ele>
        <time>2021-05-19T05:07:18Z</time>
      </trkpt>
      <trkpt lat="41.9047660" lon="-8.8761920">
        <ele>36.8</ele>
        <time>2021-05-19T05:07:19Z</time>
      </trkpt>
      <trkpt lat="41.9047870" lon="-8.8762040">
        <ele>36.8</ele>
        <time>2021-05-19T05:07:20Z</time>
      </trkpt>
      <trkpt lat="41.9047930" lon="-8.8762050">
        <ele>36.8</ele>
        <time>2021-05-19T05:07:21Z</time>
      </trkpt>
      <trkpt lat="41.9048130" lon="-8.8762230">
        <ele>36.8</ele>
        <time>2021-05-19T05:07:22Z</time>
      </trkpt>
      <trkpt lat="41.9048450" lon="-8.8762530">
        <ele>36.7</ele>
        <time>2021-05-19T05:07:23Z</time>
      </trkpt>
      <trkpt lat="41.9048530" lon="-8.8762670">
        <ele>36.7</ele>
        <time>2021-05-19T05:07:24Z</time>
      </trkpt>
      <trkpt lat="41.9048620" lon="-8.8762650">
        <ele>36.7</ele>
        <time>2021-05-19T05:07:25Z</time>
      </trkpt>
      <trkpt lat="41.9048820" lon="-8.8762660">
        <ele>36.7</ele>
        <time>2021-05-19T05:07:26Z</time>
      </trkpt>
      <trkpt lat="41.9048990" lon="-8.8762710">
        <ele>36.7</ele>
        <time>2021-05-19T05:07:27Z</time>
      </trkpt>
      <trkpt lat="41.9049120" lon="-8.8762880">
        <ele>36.7</ele>
        <time>2021-05-19T05:07:28Z</time>
      </trkpt>
      <trkpt lat="41.9049310" lon="-8.8762860">
        <ele>36.6</ele>
        <time>2021-05-19T05:07:29Z</time>
      </trkpt>
      <trkpt lat="41.9049410" lon="-8.8762970">
        <ele>36.6</ele>
        <time>2021-05-19T05:07:30Z</time>
      </trkpt>
      <trkpt lat="41.9049740" lon="-8.8762930">
        <ele>36.6</ele>
        <time>2021-05-19T05:07:31Z</time>
      </trkpt>
      <trkpt lat="41.9049820" lon="-8.8762940">
        <ele>36.6</ele>
        <time>2021-05-19T05:07:32Z</time>
      </trkpt>
      <trkpt lat="41.9050140" lon="-8.8762910">
        <ele>36.6</ele>
        <time>2021-05-19T05:07:33Z</time>
      </trkpt>
      <trkpt lat="41.9050410" lon="-8.8763040">
        <ele>36.6</ele>
        <time>2021-05-19T05:07:34Z</time>
      </trkpt>
      <trkpt lat="41.9050560" lon="-8.8763030">
        <ele>36.6</ele>
        <time>2021-05-19T05:07:35Z</time>
      </trkpt>
      <trkpt lat="41.9050860" lon="-8.8763050">
        <ele>36.5</ele>
        <time>2021-05-19T05:07:36Z</time>
      </trkpt>
      <trkpt lat="41.9051170" lon="-8.8763030">
        <ele>36.5</ele>
        <time>2021-05-19T05:07:37Z</time>
      </trkpt>
      <trkpt lat="41.9051300" lon="-8.8763070">
        <ele>36.5</ele>
        <time>2021-05-19T05:07:38Z</time>
      </trkpt>
      <trkpt lat="41.9051530" lon="-8.8763040">
        <ele>36.5</ele>
        <time>2021-05-19T05:07:39Z</time>
      </trkpt>
      <trkpt lat="41.9051620" lon="-8.8763200">
        <ele>36.5</ele>
        <time>2021-05-19T05:07:40Z</time>
      </trkpt>
      <trkpt lat="41.9051790" lon="-8.8763220">
        <ele>36.5</ele>
        <time>2021-05-19T05:07:41Z</time>
      </trkpt>
      <trkpt lat="41.9051930" lon="-8.8763180">
        <ele>36.4</ele>
        <time>2021-05-19T05:07:42Z</time>
      </trkpt>
      <trkpt lat="41.9052090" lon="-8.8763290">
        <ele>36.4</ele>
        <time>2021-05-19T05:07:43Z</time>
      </trkpt>
      <trkpt lat="41.9052160" lon="-8.8763340">
        <ele>36.4</ele>
        <time>2021-05-19T05:07:44Z</time>
      </trkpt>
      <trkpt lat="41.9052240" lon="-8.8763380">
        <ele>36.4</ele>
        <time>2021-05-19T05:07:45Z</time>
      </trkpt>
      <trkpt lat="41.9052310" lon="-8.8763430">
        <ele>36.4</ele>
        <time>2021-05-19T05:07:46Z</time>
      </trkpt>
      <trkpt lat="41.9052410" lon="-8.8763450">
        <ele>36.4</ele>
        <time>2021-05-19T05:07:47Z</time>
      </trkpt>
      <trkpt lat="41.9052510" lon="-8.8763530">
        <ele>36.4</ele>
        <time>2021-05-19T05:07:48Z</time>
      </trkpt>
      <trkpt lat="41.9052610" lon="-8.8763610">
        <ele>36.4</ele>
        <time>2021-05-19T05:07:49Z</time>
      </trkpt>
      <trkpt lat="41.9052730" lon="-8.8763480">
        <ele>36.4</ele>
        <time>2021-05-19T05:07:50Z</time>
      </trkpt>
      <trkpt lat="41.9052880" lon="-8.8763690">
        <ele>36.3</ele>
        <time>2021-05-19T05:07:51Z</time>
      </trkpt>
      <trkpt lat="41.9052980" lon="-8.8763730">
        <ele>36.3</ele>
        <time>2021-05-19T05:07:52Z</time>
      </trkpt>
      <trkpt lat="41.9053080" lon="-8.8763720">
        <ele>36.3</ele>
        <time>2021-05-19T05:07:53Z</time>
      </trkpt>
      <trkpt lat="41.9053160" lon="-8.8763820">
        <ele>36.3</ele>
        <time>2021-05-19T05:07:54Z</time>
      </trkpt>
      <trkpt lat="41.9053250" lon="-8.8763920">
        <ele>36.3</ele>
        <time>2021-05-19T05:07:55Z</time>
      </trkpt>
      <trkpt lat="41.9053310" lon="-8.8763930">
        <ele>36.3</ele>
        <time>2021-05-19T05:07:56Z</time>
      </trkpt>
      <trkpt lat="41.9053430" lon="-8.8764100">
        <ele>36.3</ele>
        <time>2021-05-19T05:07:57Z</time>
      </trkpt>
      <trkpt lat="41.9053490" lon="-8.8764130">
        <ele>36.3</ele>
        <time>2021-05-19T05:07:58Z</time>
      </trkpt>
      <trkpt lat="41.9053550" lon="-8.8764090">
        <ele>36.3</ele>
        <time>2021-05-19T05:07:59Z</time>
      </trkpt>
      <trkpt lat="41.9053590" lon="-8.8764120">
        <ele>36.3</ele>
        <time>2021-05-19T05:08:00Z</time>
      </trkpt>
      <trkpt lat="41.9053710" lon="-8.8764120">
        <ele>36.3</ele>
        <time>2021-05-19T05:08:01Z</time>
      </trkpt>
      <trkpt lat="41.9053770" lon="-8.8764220">
        <ele>36.2</ele>
        <time>2021-05-19T05:08:02Z</time>
      </trkpt>
      <trkpt lat="41.9053830" lon="-8.8764230">
        <ele>36.2</ele>
        <time>2021-05-19T05:08:03Z</time>
      </trkpt>
      <trkpt lat="41.9053880" lon="-8.8764250">
        <ele>36.2</ele>
        <time>2021-05-19T05:08:04Z</time>
      </trkpt>
      <trkpt lat="41.9053940" lon="-8.8764270">
        <ele>36.2</ele>
        <time>2021-05-19T05:08:05Z</time>
      </trkpt>
      <trkpt lat="41.9053990" lon="-8.8764290">
        <ele>36.2</ele>
        <time>2021-05-19T05:08:06Z</time>
      </trkpt>
      <trkpt lat="41.9054050" lon="-8.8764300">
        <ele>36.2</ele>
        <time>2021-05-19T05:08:07Z</time>
      </trkpt>
      <trkpt lat="41.9054100" lon="-8.8764320">
        <ele>36.2</ele>
        <time>2021-05-19T05:08:08Z</time>
      </trkpt>
      <trkpt lat="41.9054220" lon="-8.8764440">
        <ele>36.2</ele>
        <time>2021-05-19T05:08:09Z</time>
      </trkpt>
      <trkpt lat="41.9054350" lon="-8.8764550">
        <ele>36.2</ele>
        <time>2021-05-19T05:08:10Z</time>
      </trkpt>
      <trkpt lat="41.9054430" lon="-8.8764620">
        <ele>36.2</ele>
        <time>2021-05-19T05:08:11Z</time>
      </trkpt>
      <trkpt lat="41.9054530" lon="-8.8764710">
        <ele>36.2</ele>
        <time>2021-05-19T05:08:12Z</time>
      </trkpt>
      <trkpt lat="41.9054570" lon="-8.8764630">
        <ele>36.2</ele>
        <time>2021-05-19T05:08:13Z</time>
      </trkpt>
      <trkpt lat="41.9054660" lon="-8.8764610">
        <ele>36.2</ele>
        <time>2021-05-19T05:08:14Z</time>
      </trkpt>
      <trkpt lat="41.9054740" lon="-8.8764580">
        <ele>36.1</ele>
        <time>2021-05-19T05:08:15Z</time>
      </trkpt>
      <trkpt lat="41.9054790" lon="-8.8764650">
        <ele>36.1</ele>
        <time>2021-05-19T05:08:16Z</time>
      </trkpt>
      <trkpt lat="41.9054850" lon="-8.8764630">
        <ele>36.1</ele>
        <time>2021-05-19T05:08:17Z</time>
      </trkpt>
      <trkpt lat="41.9054940" lon="-8.8764670">
        <ele>36.1</ele>
        <time>2021-05-19T05:08:18Z</time>
      </trkpt>
      <trkpt lat="41.9055130" lon="-8.8764660">
        <ele>36.1</ele>
        <time>2021-05-19T05:08:19Z</time>
      </trkpt>
      <trkpt lat="41.9055230" lon="-8.8764570">
        <ele>36.1</ele>
        <time>2021-05-19T05:08:20Z</time>
      </trkpt>
      <trkpt lat="41.9055340" lon="-8.8764480">
        <ele>36.1</ele>
        <time>2021-05-19T05:08:21Z</time>
      </trkpt>
      <trkpt lat="41.9055670" lon="-8.8764360">
        <ele>36.0</ele>
        <time>2021-05-19T05:08:22Z</time>
      </trkpt>
      <trkpt lat="41.9055780" lon="-8.8764280">
        <ele>36.0</ele>
        <time>2021-05-19T05:08:23Z</time>
      </trkpt>
      <trkpt lat="41.9055910" lon="-8.8764150">
        <ele>36.0</ele>
        <time>2021-05-19T05:08:24Z</time>
      </trkpt>
      <trkpt lat="41.9056030" lon="-8.8763970">
        <ele>36.0</ele>
        <time>2021-05-19T05:08:25Z</time>
      </trkpt>
      <trkpt lat="41.9056120" lon="-8.8763830">
        <ele>36.0</ele>
        <time>2021-05-19T05:08:26Z</time>
      </trkpt>
      <trkpt lat="41.9056250" lon="-8.8763690">
        <ele>36.3</ele>
        <time>2021-05-19T05:08:27Z</time>
      </trkpt>
      <trkpt lat="41.9056400" lon="-8.8763580">
        <ele>36.3</ele>
        <time>2021-05-19T05:08:28Z</time>
      </trkpt>
      <trkpt lat="41.9056470" lon="-8.8763400">
        <ele>36.4</ele>
        <time>2021-05-19T05:08:29Z</time>
      </trkpt>
      <trkpt lat="41.9056460" lon="-8.8763280">
        <ele>36.4</ele>
        <time>2021-05-19T05:08:30Z</time>
      </trkpt>
      <trkpt lat="41.9056370" lon="-8.8763170">
        <ele>36.4</ele>
        <time>2021-05-19T05:08:31Z</time>
      </trkpt>
      <trkpt lat="41.9056270" lon="-8.8763060">
        <ele>36.5</ele>
        <time>2021-05-19T05:08:32Z</time>
      </trkpt>
      <trkpt lat="41.9056180" lon="-8.8762800">
        <ele>36.5</ele>
        <time>2021-05-19T05:08:33Z</time>
      </trkpt>
      <trkpt lat="41.9056110" lon="-8.8762690">
        <ele>36.6</ele>
        <time>2021-05-19T05:08:34Z</time>
      </trkpt>
      <trkpt lat="41.9056050" lon="-8.8762570">
        <ele>36.6</ele>
        <time>2021-05-19T05:08:35Z</time>
      </trkpt>
      <trkpt lat="41.9056000" lon="-8.8762520">
        <ele>36.6</ele>
        <time>2021-05-19T05:08:36Z</time>
      </trkpt>
      <trkpt lat="41.9055940" lon="-8.8762460">
        <ele>36.7</ele>
        <time>2021-05-19T05:08:37Z</time>
      </trkpt>
      <trkpt lat="41.9055910" lon="-8.8762340">
        <ele>36.7</ele>
        <time>2021-05-19T05:08:38Z</time>
      </trkpt>
      <trkpt lat="41.9055850" lon="-8.8762360">
        <ele>36.7</ele>
        <time>2021-05-19T05:08:39Z</time>
      </trkpt>
      <trkpt lat="41.9055800" lon="-8.8762270">
        <ele>36.7</ele>
        <time>2021-05-19T05:08:40Z</time>
      </trkpt>
      <trkpt lat="41.9055670" lon="-8.8762060">
        <ele>36.8</ele>
        <time>2021-05-19T05:08:41Z</time>
      </trkpt>
      <trkpt lat="41.9055700" lon="-8.8762230">
        <ele>36.8</ele>
        <time>2021-05-19T05:08:42Z</time>
      </trkpt>
      <trkpt lat="41.9055610" lon="-8.8762230">
        <ele>36.9</ele>
        <time>2021-05-19T05:08:43Z</time>
      </trkpt>
      <trkpt lat="41.9055540" lon="-8.8762180">
        <ele>36.9</ele>
        <time>2021-05-19T05:08:44Z</time>
      </trkpt>
      <trkpt lat="41.9055470" lon="-8.8762080">
        <ele>36.9</ele>
        <time>2021-05-19T05:08:45Z</time>
      </trkpt>
      <trkpt lat="41.9055510" lon="-8.8761940">
        <ele>37.0</ele>
        <time>2021-05-19T05:08:46Z</time>
      </trkpt>
      <trkpt lat="41.9055530" lon="-8.8761780">
        <ele>37.0</ele>
        <time>2021-05-19T05:08:47Z</time>
      </trkpt>
      <trkpt lat="41.9055590" lon="-8.8761650">
        <ele>37.0</ele>
        <time>2021-05-19T05:08:48Z</time>
      </trkpt>
      <trkpt lat="41.9055630" lon="-8.8761380">
        <ele>37.5</ele>
        <time>2021-05-19T05:08:49Z</time>
      </trkpt>
      <trkpt lat="41.9055770" lon="-8.8761240">
        <ele>37.5</ele>
        <time>2021-05-19T05:08:50Z</time>
      </trkpt>
      <trkpt lat="41.9055840" lon="-8.8761060">
        <ele>37.6</ele>
        <time>2021-05-19T05:08:51Z</time>
      </trkpt>
      <trkpt lat="41.9055910" lon="-8.8760900">
        <ele>37.6</ele>
        <time>2021-05-19T05:08:52Z</time>
      </trkpt>
      <trkpt lat="41.9055950" lon="-8.8760760">
        <ele>37.7</ele>
        <time>2021-05-19T05:08:53Z</time>
      </trkpt>
      <trkpt lat="41.9056030" lon="-8.8760660">
        <ele>37.7</ele>
        <time>2021-05-19T05:08:54Z</time>
      </trkpt>
      <trkpt lat="41.9056050" lon="-8.8760480">
        <ele>37.8</ele>
        <time>2021-05-19T05:08:55Z</time>
      </trkpt>
      <trkpt lat="41.9056150" lon="-8.8760220">
        <ele>37.8</ele>
        <time>2021-05-19T05:08:56Z</time>
      </trkpt>
      <trkpt lat="41.9056170" lon="-8.8760140">
        <ele>37.8</ele>
        <time>2021-05-19T05:08:57Z</time>
      </trkpt>
      <trkpt lat="41.9056200" lon="-8.8760050">
        <ele>37.8</ele>
        <time>2021-05-19T05:08:58Z</time>
      </trkpt>
      <trkpt lat="41.9056220" lon="-8.8759960">
        <ele>37.9</ele>
        <time>2021-05-19T05:08:59Z</time>
      </trkpt>
      <trkpt lat="41.9056260" lon="-8.8759870">
        <ele>37.9</ele>
        <time>2021-05-19T05:09:00Z</time>
      </trkpt>
      <trkpt lat="41.9056270" lon="-8.8759770">
        <ele>37.9</ele>
        <time>2021-05-19T05:09:01Z</time>
      </trkpt>
      <trkpt lat="41.9056240" lon="-8.8759730">
        <ele>37.9</ele>
        <time>2021-05-19T05:09:02Z</time>
      </trkpt>
      <trkpt lat="41.9056310" lon="-8.8759630">
        <ele>37.9</ele>
        <time>2021-05-19T05:09:03Z</time>
      </trkpt>
      <trkpt lat="41.9056400" lon="-8.8759550">
        <ele>37.9</ele>
        <time>2021-05-19T05:09:04Z</time>
      </trkpt>
      <trkpt lat="41.9056450" lon="-8.8759520">
        <ele>37.9</ele>
        <time>2021-05-19T05:09:05Z</time>
      </trkpt>
      <trkpt lat="41.9056580" lon="-8.8759410">
        <ele>37.9</ele>
        <time>2021-05-19T05:09:06Z</time>
      </trkpt>
      <trkpt lat="41.9056690" lon="-8.8759340">
        <ele>37.9</ele>
        <time>2021-05-19T05:09:07Z</time>
      </trkpt>
      <trkpt lat="41.9056860" lon="-8.8759210">
        <ele>37.9</ele>
        <time>2021-05-19T05:09:08Z</time>
      </trkpt>
      <trkpt lat="41.9056960" lon="-8.8759150">
        <ele>37.9</ele>
        <time>2021-05-19T05:09:09Z</time>
      </trkpt>
      <trkpt lat="41.9057060" lon="-8.8759100">
        <ele>37.9</ele>
        <time>2021-05-19T05:09:10Z</time>
      </trkpt>
      <trkpt lat="41.9057170" lon="-8.8759140">
        <ele>37.9</ele>
        <time>2021-05-19T05:09:11Z</time>
      </trkpt>
      <trkpt lat="41.9057280" lon="-8.8759090">
        <ele>37.9</ele>
        <time>2021-05-19T05:09:12Z</time>
      </trkpt>
      <trkpt lat="41.9057370" lon="-8.8759020">
        <ele>37.9</ele>
        <time>2021-05-19T05:09:13Z</time>
      </trkpt>
      <trkpt lat="41.9057490" lon="-8.8758890">
        <ele>37.8</ele>
        <time>2021-05-19T05:09:14Z</time>
      </trkpt>
      <trkpt lat="41.9057630" lon="-8.8758780">
        <ele>37.8</ele>
        <time>2021-05-19T05:09:15Z</time>
      </trkpt>
      <trkpt lat="41.9057770" lon="-8.8758610">
        <ele>37.7</ele>
        <time>2021-05-19T05:09:16Z</time>
      </trkpt>
      <trkpt lat="41.9057840" lon="-8.8758530">
        <ele>37.7</ele>
        <time>2021-05-19T05:09:17Z</time>
      </trkpt>
      <trkpt lat="41.9057910" lon="-8.8758460">
        <ele>37.7</ele>
        <time>2021-05-19T05:09:18Z</time>
      </trkpt>
      <trkpt lat="41.9058060" lon="-8.8758340">
        <ele>37.7</ele>
        <time>2021-05-19T05:09:19Z</time>
      </trkpt>
      <trkpt lat="41.9058200" lon="-8.8758260">
        <ele>37.6</ele>
        <time>2021-05-19T05:09:20Z</time>
      </trkpt>
      <trkpt lat="41.9058400" lon="-8.8758120">
        <ele>37.5</ele>
        <time>2021-05-19T05:09:21Z</time>
      </trkpt>
      <trkpt lat="41.9058470" lon="-8.8758020">
        <ele>37.5</ele>
        <time>2021-05-19T05:09:22Z</time>
      </trkpt>
      <trkpt lat="41.9058550" lon="-8.8757930">
        <ele>37.5</ele>
        <time>2021-05-19T05:09:23Z</time>
      </trkpt>
      <trkpt lat="41.9058610" lon="-8.8757800">
        <ele>37.5</ele>
        <time>2021-05-19T05:09:24Z</time>
      </trkpt>
      <trkpt lat="41.9058800" lon="-8.8757620">
        <ele>37.4</ele>
        <time>2021-05-19T05:09:25Z</time>
      </trkpt>
      <trkpt lat="41.9058940" lon="-8.8757560">
        <ele>37.3</ele>
        <time>2021-05-19T05:09:26Z</time>
      </trkpt>
      <trkpt lat="41.9059060" lon="-8.8757440">
        <ele>37.3</ele>
        <time>2021-05-19T05:09:27Z</time>
      </trkpt>
      <trkpt lat="41.9059350" lon="-8.8757440">
        <ele>37.2</ele>
        <time>2021-05-19T05:09:28Z</time>
      </trkpt>
      <trkpt lat="41.9059460" lon="-8.8757410">
        <ele>37.2</ele>
        <time>2021-05-19T05:09:29Z</time>
      </trkpt>
      <trkpt lat="41.9059640" lon="-8.8757390">
        <ele>37.1</ele>
        <time>2021-05-19T05:09:30Z</time>
      </trkpt>
      <trkpt lat="41.9059810" lon="-8.8757390">
        <ele>37.1</ele>
        <time>2021-05-19T05:09:31Z</time>
      </trkpt>
      <trkpt lat="41.9060010" lon="-8.8757400">
        <ele>37.0</ele>
        <time>2021-05-19T05:09:32Z</time>
      </trkpt>
      <trkpt lat="41.9060140" lon="-8.8757380">
        <ele>37.0</ele>
        <time>2021-05-19T05:09:33Z</time>
      </trkpt>
      <trkpt lat="41.9060340" lon="-8.8757340">
        <ele>36.9</ele>
        <time>2021-05-19T05:09:34Z</time>
      </trkpt>
      <trkpt lat="41.9060500" lon="-8.8757280">
        <ele>36.9</ele>
        <time>2021-05-19T05:09:35Z</time>
      </trkpt>
      <trkpt lat="41.9060670" lon="-8.8757300">
        <ele>36.9</ele>
        <time>2021-05-19T05:09:36Z</time>
      </trkpt>
      <trkpt lat="41.9060830" lon="-8.8757270">
        <ele>36.8</ele>
        <time>2021-05-19T05:09:37Z</time>
      </trkpt>
      <trkpt lat="41.9061020" lon="-8.8757240">
        <ele>36.7</ele>
        <time>2021-05-19T05:09:38Z</time>
      </trkpt>
      <trkpt lat="41.9061180" lon="-8.8757250">
        <ele>36.7</ele>
        <time>2021-05-19T05:09:39Z</time>
      </trkpt>
      <trkpt lat="41.9061330" lon="-8.8757190">
        <ele>36.6</ele>
        <time>2021-05-19T05:09:40Z</time>
      </trkpt>
      <trkpt lat="41.9061510" lon="-8.8757180">
        <ele>36.6</ele>
        <time>2021-05-19T05:09:41Z</time>
      </trkpt>
      <trkpt lat="41.9061670" lon="-8.8757110">
        <ele>36.5</ele>
        <time>2021-05-19T05:09:42Z</time>
      </trkpt>
      <trkpt lat="41.9061850" lon="-8.8757070">
        <ele>36.5</ele>
        <time>2021-05-19T05:09:43Z</time>
      </trkpt>
      <trkpt lat="41.9062010" lon="-8.8757040">
        <ele>36.4</ele>
        <time>2021-05-19T05:09:44Z</time>
      </trkpt>
      <trkpt lat="41.9062170" lon="-8.8757040">
        <ele>36.3</ele>
        <time>2021-05-19T05:09:45Z</time>
      </trkpt>
      <trkpt lat="41.9062330" lon="-8.8757030">
        <ele>36.3</ele>
        <time>2021-05-19T05:09:46Z</time>
      </trkpt>
      <trkpt lat="41.9062480" lon="-8.8756970">
        <ele>36.2</ele>
        <time>2021-05-19T05:09:47Z</time>
      </trkpt>
      <trkpt lat="41.9062620" lon="-8.8756940">
        <ele>36.1</ele>
        <time>2021-05-19T05:09:48Z</time>
      </trkpt>
      <trkpt lat="41.9062760" lon="-8.8756900">
        <ele>36.1</ele>
        <time>2021-05-19T05:09:49Z</time>
      </trkpt>
      <trkpt lat="41.9062910" lon="-8.8756910">
        <ele>36.0</ele>
        <time>2021-05-19T05:09:50Z</time>
      </trkpt>
      <trkpt lat="41.9063070" lon="-8.8756880">
        <ele>35.9</ele>
        <time>2021-05-19T05:09:51Z</time>
      </trkpt>
      <trkpt lat="41.9063220" lon="-8.8756870">
        <ele>35.9</ele>
        <time>2021-05-19T05:09:52Z</time>
      </trkpt>
      <trkpt lat="41.9063380" lon="-8.8756880">
        <ele>35.8</ele>
        <time>2021-05-19T05:09:53Z</time>
      </trkpt>
      <trkpt lat="41.9063530" lon="-8.8756900">
        <ele>35.7</ele>
        <time>2021-05-19T05:09:54Z</time>
      </trkpt>
      <trkpt lat="41.9063670" lon="-8.8756900">
        <ele>35.7</ele>
        <time>2021-05-19T05:09:55Z</time>
      </trkpt>
      <trkpt lat="41.9063830" lon="-8.8756900">
        <ele>35.6</ele>
        <time>2021-05-19T05:09:56Z</time>
      </trkpt>
      <trkpt lat="41.9063970" lon="-8.8756900">
        <ele>35.5</ele>
        <time>2021-05-19T05:09:57Z</time>
      </trkpt>
      <trkpt lat="41.9064110" lon="-8.8756930">
        <ele>35.5</ele>
        <time>2021-05-19T05:09:58Z</time>
      </trkpt>
      <trkpt lat="41.9064250" lon="-8.8756940">
        <ele>35.4</ele>
        <time>2021-05-19T05:09:59Z</time>
      </trkpt>
      <trkpt lat="41.9064470" lon="-8.8756990">
        <ele>35.3</ele>
        <time>2021-05-19T05:10:00Z</time>
      </trkpt>
      <trkpt lat="41.9064560" lon="-8.8757010">
        <ele>35.2</ele>
        <time>2021-05-19T05:10:01Z</time>
      </trkpt>
      <trkpt lat="41.9064640" lon="-8.8757020">
        <ele>35.2</ele>
        <time>2021-05-19T05:10:02Z</time>
      </trkpt>
      <trkpt lat="41.9064870" lon="-8.8757070">
        <ele>35.1</ele>
        <time>2021-05-19T05:10:03Z</time>
      </trkpt>
      <trkpt lat="41.9064950" lon="-8.8757120">
        <ele>35.1</ele>
        <time>2021-05-19T05:10:04Z</time>
      </trkpt>
      <trkpt lat="41.9065030" lon="-8.8757160">
        <ele>35.0</ele>
        <time>2021-05-19T05:10:05Z</time>
      </trkpt>
      <trkpt lat="41.9065170" lon="-8.8757130">
        <ele>34.9</ele>
        <time>2021-05-19T05:10:06Z</time>
      </trkpt>
      <trkpt lat="41.9065280" lon="-8.8757110">
        <ele>34.9</ele>
        <time>2021-05-19T05:10:07Z</time>
      </trkpt>
      <trkpt lat="41.9065380" lon="-8.8757140">
        <ele>34.8</ele>
        <time>2021-05-19T05:10:08Z</time>
      </trkpt>
      <trkpt lat="41.9065540" lon="-8.8757250">
        <ele>34.8</ele>
        <time>2021-05-19T05:10:09Z</time>
      </trkpt>
      <trkpt lat="41.9065630" lon="-8.8757280">
        <ele>34.7</ele>
        <time>2021-05-19T05:10:10Z</time>
      </trkpt>
      <trkpt lat="41.9065710" lon="-8.8757320">
        <ele>34.7</ele>
        <time>2021-05-19T05:10:11Z</time>
      </trkpt>
      <trkpt lat="41.9065790" lon="-8.8757350">
        <ele>34.7</ele>
        <time>2021-05-19T05:10:12Z</time>
      </trkpt>
      <trkpt lat="41.9065970" lon="-8.8757370">
        <ele>34.6</ele>
        <time>2021-05-19T05:10:13Z</time>
      </trkpt>
      <trkpt lat="41.9066050" lon="-8.8757390">
        <ele>34.5</ele>
        <time>2021-05-19T05:10:14Z</time>
      </trkpt>
      <trkpt lat="41.9066120" lon="-8.8757400">
        <ele>34.5</ele>
        <time>2021-05-19T05:10:15Z</time>
      </trkpt>
      <trkpt lat="41.9066200" lon="-8.8757420">
        <ele>34.5</ele>
        <time>2021-05-19T05:10:16Z</time>
      </trkpt>
      <trkpt lat="41.9066360" lon="-8.8757460">
        <ele>34.4</ele>
        <time>2021-05-19T05:10:17Z</time>
      </trkpt>
      <trkpt lat="41.9066450" lon="-8.8757480">
        <ele>34.4</ele>
        <time>2021-05-19T05:10:18Z</time>
      </trkpt>
      <trkpt lat="41.9066460" lon="-8.8757430">
        <ele>34.3</ele>
        <time>2021-05-19T05:10:19Z</time>
      </trkpt>
      <trkpt lat="41.9066530" lon="-8.8757470">
        <ele>34.3</ele>
        <time>2021-05-19T05:10:20Z</time>
      </trkpt>
      <trkpt lat="41.9066780" lon="-8.8757460">
        <ele>34.2</ele>
        <time>2021-05-19T05:10:21Z</time>
      </trkpt>
      <trkpt lat="41.9066850" lon="-8.8757480">
        <ele>34.2</ele>
        <time>2021-05-19T05:10:22Z</time>
      </trkpt>
      <trkpt lat="41.9066930" lon="-8.8757490">
        <ele>34.2</ele>
        <time>2021-05-19T05:10:23Z</time>
      </trkpt>
      <trkpt lat="41.9067020" lon="-8.8757520">
        <ele>34.1</ele>
        <time>2021-05-19T05:10:24Z</time>
      </trkpt>
      <trkpt lat="41.9067110" lon="-8.8757520">
        <ele>34.1</ele>
        <time>2021-05-19T05:10:25Z</time>
      </trkpt>
      <trkpt lat="41.9067240" lon="-8.8757530">
        <ele>34.0</ele>
        <time>2021-05-19T05:10:26Z</time>
      </trkpt>
      <trkpt lat="41.9067410" lon="-8.8757600">
        <ele>34.0</ele>
        <time>2021-05-19T05:10:27Z</time>
      </trkpt>
      <trkpt lat="41.9067530" lon="-8.8757670">
        <ele>33.9</ele>
        <time>2021-05-19T05:10:28Z</time>
      </trkpt>
      <trkpt lat="41.9067760" lon="-8.8757750">
        <ele>33.8</ele>
        <time>2021-05-19T05:10:29Z</time>
      </trkpt>
      <trkpt lat="41.9067880" lon="-8.8757780">
        <ele>33.8</ele>
        <time>2021-05-19T05:10:30Z</time>
      </trkpt>
      <trkpt lat="41.9067990" lon="-8.8757820">
        <ele>33.7</ele>
        <time>2021-05-19T05:10:31Z</time>
      </trkpt>
      <trkpt lat="41.9068170" lon="-8.8757920">
        <ele>33.7</ele>
        <time>2021-05-19T05:10:32Z</time>
      </trkpt>
      <trkpt lat="41.9068290" lon="-8.8758000">
        <ele>33.6</ele>
        <time>2021-05-19T05:10:33Z</time>
      </trkpt>
      <trkpt lat="41.9068460" lon="-8.8758040">
        <ele>33.6</ele>
        <time>2021-05-19T05:10:34Z</time>
      </trkpt>
      <trkpt lat="41.9068630" lon="-8.8758030">
        <ele>33.5</ele>
        <time>2021-05-19T05:10:35Z</time>
      </trkpt>
      <trkpt lat="41.9068790" lon="-8.8758010">
        <ele>33.4</ele>
        <time>2021-05-19T05:10:36Z</time>
      </trkpt>
      <trkpt lat="41.9068960" lon="-8.8758070">
        <ele>33.4</ele>
        <time>2021-05-19T05:10:37Z</time>
      </trkpt>
      <trkpt lat="41.9069050" lon="-8.8758010">
        <ele>33.3</ele>
        <time>2021-05-19T05:10:38Z</time>
      </trkpt>
      <trkpt lat="41.9068970" lon="-8.8757960">
        <ele>33.3</ele>
        <time>2021-05-19T05:10:39Z</time>
      </trkpt>
      <trkpt lat="41.9068930" lon="-8.8757940">
        <ele>33.3</ele>
        <time>2021-05-19T05:10:40Z</time>
      </trkpt>
      <trkpt lat="41.9069000" lon="-8.8758050">
        <ele>33.2</ele>
        <time>2021-05-19T05:10:41Z</time>
      </trkpt>
      <trkpt lat="41.9069170" lon="-8.8758170">
        <ele>33.1</ele>
        <time>2021-05-19T05:10:42Z</time>
      </trkpt>
      <trkpt lat="41.9069320" lon="-8.8758130">
        <ele>33.1</ele>
        <time>2021-05-19T05:10:43Z</time>
      </trkpt>
      <trkpt lat="41.9069460" lon="-8.8758200">
        <ele>33.0</ele>
        <time>2021-05-19T05:10:44Z</time>
      </trkpt>
      <trkpt lat="41.9069480" lon="-8.8758180">
        <ele>33.0</ele>
        <time>2021-05-19T05:10:45Z</time>
      </trkpt>
      <trkpt lat="41.9069630" lon="-8.8758140">
        <ele>32.9</ele>
        <time>2021-05-19T05:10:46Z</time>
      </trkpt>
      <trkpt lat="41.9069770" lon="-8.8758200">
        <ele>32.8</ele>
        <time>2021-05-19T05:10:47Z</time>
      </trkpt>
      <trkpt lat="41.9069840" lon="-8.8758220">
        <ele>32.8</ele>
        <time>2021-05-19T05:10:48Z</time>
      </trkpt>
      <trkpt lat="41.9069900" lon="-8.8758260">
        <ele>32.7</ele>
        <time>2021-05-19T05:10:49Z</time>
      </trkpt>
      <trkpt lat="41.9070000" lon="-8.8758320">
        <ele>32.6</ele>
        <time>2021-05-19T05:10:50Z</time>
      </trkpt>
      <trkpt lat="41.9070220" lon="-8.8758460">
        <ele>32.4</ele>
        <time>2021-05-19T05:10:51Z</time>
      </trkpt>
      <trkpt lat="41.9070360" lon="-8.8758540">
        <ele>32.2</ele>
        <time>2021-05-19T05:10:52Z</time>
      </trkpt>
      <trkpt lat="41.9070420" lon="-8.8758540">
        <ele>32.2</ele>
        <time>2021-05-19T05:10:53Z</time>
      </trkpt>
      <trkpt lat="41.9070540" lon="-8.8758620">
        <ele>32.0</ele>
        <time>2021-05-19T05:10:54Z</time>
      </trkpt>
      <trkpt lat="41.9070680" lon="-8.8758730">
        <ele>31.8</ele>
        <time>2021-05-19T05:10:55Z</time>
      </trkpt>
      <trkpt lat="41.9070750" lon="-8.8758760">
        <ele>31.7</ele>
        <time>2021-05-19T05:10:56Z</time>
      </trkpt>
      <trkpt lat="41.9070880" lon="-8.8758790">
        <ele>31.6</ele>
        <time>2021-05-19T05:10:57Z</time>
      </trkpt>
      <trkpt lat="41.9071010" lon="-8.8758840">
        <ele>31.4</ele>
        <time>2021-05-19T05:10:58Z</time>
      </trkpt>
      <trkpt lat="41.9071090" lon="-8.8758860">
        <ele>31.3</ele>
        <time>2021-05-19T05:10:59Z</time>
      </trkpt>
      <trkpt lat="41.9071160" lon="-8.8758870">
        <ele>31.2</ele>
        <time>2021-05-19T05:11:00Z</time>
      </trkpt>
      <trkpt lat="41.9071240" lon="-8.8758890">
        <ele>31.0</ele>
        <time>2021-05-19T05:11:01Z</time>
      </trkpt>
      <trkpt lat="41.9071310" lon="-8.8758900">
        <ele>30.9</ele>
        <time>2021-05-19T05:11:02Z</time>
      </trkpt>
      <trkpt lat="41.9071370" lon="-8.8758940">
        <ele>30.8</ele>
        <time>2021-05-19T05:11:03Z</time>
      </trkpt>
      <trkpt lat="41.9071450" lon="-8.8759000">
        <ele>30.6</ele>
        <time>2021-05-19T05:11:04Z</time>
      </trkpt>
      <trkpt lat="41.9071480" lon="-8.8758950">
        <ele>30.6</ele>
        <time>2021-05-19T05:11:05Z</time>
      </trkpt>
      <trkpt lat="41.9071600" lon="-8.8758990">
        <ele>30.3</ele>
        <time>2021-05-19T05:11:06Z</time>
      </trkpt>
      <trkpt lat="41.9071760" lon="-8.8759120">
        <ele>29.9</ele>
        <time>2021-05-19T05:11:07Z</time>
      </trkpt>
      <trkpt lat="41.9071810" lon="-8.8759160">
        <ele>29.8</ele>
        <time>2021-05-19T05:11:08Z</time>
      </trkpt>
      <trkpt lat="41.9071860" lon="-8.8759210">
        <ele>29.6</ele>
        <time>2021-05-19T05:11:09Z</time>
      </trkpt>
      <trkpt lat="41.9071910" lon="-8.8759260">
        <ele>29.5</ele>
        <time>2021-05-19T05:11:10Z</time>
      </trkpt>
      <trkpt lat="41.9071980" lon="-8.8759370">
        <ele>29.2</ele>
        <time>2021-05-19T05:11:11Z</time>
      </trkpt>
      <trkpt lat="41.9072050" lon="-8.8759430">
        <ele>29.0</ele>
        <time>2021-05-19T05:11:12Z</time>
      </trkpt>
      <trkpt lat="41.9072090" lon="-8.8759500">
        <ele>28.9</ele>
        <time>2021-05-19T05:11:13Z</time>
      </trkpt>
      <trkpt lat="41.9072200" lon="-8.8759530">
        <ele>28.6</ele>
        <time>2021-05-19T05:11:14Z</time>
      </trkpt>
      <trkpt lat="41.9072310" lon="-8.8759580">
        <ele>28.2</ele>
        <time>2021-05-19T05:11:15Z</time>
      </trkpt>
      <trkpt lat="41.9072370" lon="-8.8759600">
        <ele>28.1</ele>
        <time>2021-05-19T05:11:16Z</time>
      </trkpt>
      <trkpt lat="41.9072430" lon="-8.8759640">
        <ele>27.9</ele>
        <time>2021-05-19T05:11:17Z</time>
      </trkpt>
      <trkpt lat="41.9072530" lon="-8.8759690">
        <ele>27.6</ele>
        <time>2021-05-19T05:11:18Z</time>
      </trkpt>
      <trkpt lat="41.9072580" lon="-8.8759680">
        <ele>27.5</ele>
        <time>2021-05-19T05:11:19Z</time>
      </trkpt>
      <trkpt lat="41.9072670" lon="-8.8759710">
        <ele>27.2</ele>
        <time>2021-05-19T05:11:20Z</time>
      </trkpt>
      <trkpt lat="41.9072790" lon="-8.8759760">
        <ele>26.9</ele>
        <time>2021-05-19T05:11:21Z</time>
      </trkpt>
      <trkpt lat="41.9072880" lon="-8.8759790">
        <ele>26.6</ele>
        <time>2021-05-19T05:11:22Z</time>
      </trkpt>
      <trkpt lat="41.9072960" lon="-8.8759820">
        <ele>26.4</ele>
        <time>2021-05-19T05:11:23Z</time>
      </trkpt>
      <trkpt lat="41.9073020" lon="-8.8759840">
        <ele>26.2</ele>
        <time>2021-05-19T05:11:24Z</time>
      </trkpt>
      <trkpt lat="41.9073120" lon="-8.8759870">
        <ele>25.9</ele>
        <time>2021-05-19T05:11:25Z</time>
      </trkpt>
      <trkpt lat="41.9073180" lon="-8.8759920">
        <ele>25.7</ele>
        <time>2021-05-19T05:11:26Z</time>
      </trkpt>
      <trkpt lat="41.9073250" lon="-8.8759920">
        <ele>25.5</ele>
        <time>2021-05-19T05:11:27Z</time>
      </trkpt>
      <trkpt lat="41.9073250" lon="-8.8759900">
        <ele>25.5</ele>
        <time>2021-05-19T05:11:28Z</time>
      </trkpt>
      <trkpt lat="41.9073280" lon="-8.8759990">
        <ele>25.3</ele>
        <time>2021-05-19T05:11:29Z</time>
      </trkpt>
      <trkpt lat="41.9073430" lon="-8.8760140">
        <ele>24.8</ele>
        <time>2021-05-19T05:11:30Z</time>
      </trkpt>
      <trkpt lat="41.9073580" lon="-8.8760240">
        <ele>24.4</ele>
        <time>2021-05-19T05:11:31Z</time>
      </trkpt>
      <trkpt lat="41.9073690" lon="-8.8760230">
        <ele>24.1</ele>
        <time>2021-05-19T05:11:32Z</time>
      </trkpt>
      <trkpt lat="41.9073760" lon="-8.8760280">
        <ele>23.1</ele>
        <time>2021-05-19T05:11:33Z</time>
      </trkpt>
      <trkpt lat="41.9073800" lon="-8.8760370">
        <ele>23.0</ele>
        <time>2021-05-19T05:11:34Z</time>
      </trkpt>
      <trkpt lat="41.9073870" lon="-8.8760420">
        <ele>22.9</ele>
        <time>2021-05-19T05:11:35Z</time>
      </trkpt>
      <trkpt lat="41.9073920" lon="-8.8760570">
        <ele>22.8</ele>
        <time>2021-05-19T05:11:36Z</time>
      </trkpt>
      <trkpt lat="41.9073860" lon="-8.8760780">
        <ele>22.6</ele>
        <time>2021-05-19T05:11:37Z</time>
      </trkpt>
      <trkpt lat="41.9073830" lon="-8.8760870">
        <ele>22.5</ele>
        <time>2021-05-19T05:11:38Z</time>
      </trkpt>
      <trkpt lat="41.9073800" lon="-8.8760950">
        <ele>22.5</ele>
        <time>2021-05-19T05:11:39Z</time>
      </trkpt>
      <trkpt lat="41.9073770" lon="-8.8761030">
        <ele>22.4</ele>
        <time>2021-05-19T05:11:40Z</time>
      </trkpt>
      <trkpt lat="41.9073680" lon="-8.8761130">
        <ele>22.3</ele>
        <time>2021-05-19T05:11:41Z</time>
      </trkpt>
      <trkpt lat="41.9073660" lon="-8.8761180">
        <ele>22.3</ele>
        <time>2021-05-19T05:11:42Z</time>
      </trkpt>
      <trkpt lat="41.9073630" lon="-8.8761230">
        <ele>22.2</ele>
        <time>2021-05-19T05:11:43Z</time>
      </trkpt>
      <trkpt lat="41.9073600" lon="-8.8761280">
        <ele>22.2</ele>
        <time>2021-05-19T05:11:44Z</time>
      </trkpt>
      <trkpt lat="41.9073570" lon="-8.8761330">
        <ele>22.2</ele>
        <time>2021-05-19T05:11:45Z</time>
      </trkpt>
      <trkpt lat="41.9073550" lon="-8.8761380">
        <ele>22.1</ele>
        <time>2021-05-19T05:11:46Z</time>
      </trkpt>
      <trkpt lat="41.9073520" lon="-8.8761430">
        <ele>22.1</ele>
        <time>2021-05-19T05:11:47Z</time>
      </trkpt>
      <trkpt lat="41.9073490" lon="-8.8761480">
        <ele>22.1</ele>
        <time>2021-05-19T05:11:48Z</time>
      </trkpt>
      <trkpt lat="41.9073360" lon="-8.8761660">
        <ele>21.9</ele>
        <time>2021-05-19T05:11:49Z</time>
      </trkpt>
      <trkpt lat="41.9073350" lon="-8.8761730">
        <ele>21.9</ele>
        <time>2021-05-19T05:11:50Z</time>
      </trkpt>
      <trkpt lat="41.9073280" lon="-8.8761830">
        <ele>21.8</ele>
        <time>2021-05-19T05:11:51Z</time>
      </trkpt>
      <trkpt lat="41.9073160" lon="-8.8762090">
        <ele>21.7</ele>
        <time>2021-05-19T05:11:52Z</time>
      </trkpt>
      <trkpt lat="41.9073080" lon="-8.8762210">
        <ele>21.7</ele>
        <time>2021-05-19T05:11:53Z</time>
      </trkpt>
      <trkpt lat="41.9073010" lon="-8.8762320">
        <ele>21.6</ele>
        <time>2021-05-19T05:11:54Z</time>
      </trkpt>
      <trkpt lat="41.9072990" lon="-8.8762360">
        <ele>21.6</ele>
        <time>2021-05-19T05:11:55Z</time>
      </trkpt>
      <trkpt lat="41.9072880" lon="-8.8762480">
        <ele>21.6</ele>
        <time>2021-05-19T05:11:56Z</time>
      </trkpt>
      <trkpt lat="41.9072800" lon="-8.8762600">
        <ele>21.5</ele>
        <time>2021-05-19T05:11:57Z</time>
      </trkpt>
      <trkpt lat="41.9072680" lon="-8.8762730">
        <ele>21.5</ele>
        <time>2021-05-19T05:11:58Z</time>
      </trkpt>
      <trkpt lat="41.9072580" lon="-8.8762910">
        <ele>21.4</ele>
        <time>2021-05-19T05:11:59Z</time>
      </trkpt>
      <trkpt lat="41.9072490" lon="-8.8763140">
        <ele>21.4</ele>
        <time>2021-05-19T05:12:00Z</time>
      </trkpt>
      <trkpt lat="41.9072430" lon="-8.8763240">
        <ele>21.4</ele>
        <time>2021-05-19T05:12:01Z</time>
      </trkpt>
      <trkpt lat="41.9072380" lon="-8.8763330">
        <ele>21.3</ele>
        <time>2021-05-19T05:12:02Z</time>
      </trkpt>
      <trkpt lat="41.9072260" lon="-8.8763490">
        <ele>21.3</ele>
        <time>2021-05-19T05:12:03Z</time>
      </trkpt>
      <trkpt lat="41.9072130" lon="-8.8763570">
        <ele>21.3</ele>
        <time>2021-05-19T05:12:04Z</time>
      </trkpt>
      <trkpt lat="41.9071980" lon="-8.8763760">
        <ele>21.2</ele>
        <time>2021-05-19T05:12:05Z</time>
      </trkpt>
      <trkpt lat="41.9071920" lon="-8.8763820">
        <ele>21.2</ele>
        <time>2021-05-19T05:12:06Z</time>
      </trkpt>
      <trkpt lat="41.9071790" lon="-8.8763980">
        <ele>21.2</ele>
        <time>2021-05-19T05:12:07Z</time>
      </trkpt>
      <trkpt lat="41.9071710" lon="-8.8764210">
        <ele>21.1</ele>
        <time>2021-05-19T05:12:08Z</time>
      </trkpt>
      <trkpt lat="41.9071550" lon="-8.8764310">
        <ele>21.1</ele>
        <time>2021-05-19T05:12:09Z</time>
      </trkpt>
      <trkpt lat="41.9071470" lon="-8.8764470">
        <ele>21.1</ele>
        <time>2021-05-19T05:12:10Z</time>
      </trkpt>
      <trkpt lat="41.9071370" lon="-8.8764610">
        <ele>21.0</ele>
        <time>2021-05-19T05:12:11Z</time>
      </trkpt>
      <trkpt lat="41.9071230" lon="-8.8764720">
        <ele>21.0</ele>
        <time>2021-05-19T05:12:12Z</time>
      </trkpt>
      <trkpt lat="41.9071130" lon="-8.8764860">
        <ele>21.0</ele>
        <time>2021-05-19T05:12:13Z</time>
      </trkpt>
      <trkpt lat="41.9071020" lon="-8.8764970">
        <ele>20.9</ele>
        <time>2021-05-19T05:12:14Z</time>
      </trkpt>
      <trkpt lat="41.9070910" lon="-8.8765080">
        <ele>20.9</ele>
        <time>2021-05-19T05:12:15Z</time>
      </trkpt>
      <trkpt lat="41.9070790" lon="-8.8765190">
        <ele>20.8</ele>
        <time>2021-05-19T05:12:16Z</time>
      </trkpt>
      <trkpt lat="41.9070690" lon="-8.8765330">
        <ele>20.8</ele>
        <time>2021-05-19T05:12:17Z</time>
      </trkpt>
      <trkpt lat="41.9070560" lon="-8.8765440">
        <ele>20.8</ele>
        <time>2021-05-19T05:12:18Z</time>
      </trkpt>
      <trkpt lat="41.9070520" lon="-8.8765640">
        <ele>20.7</ele>
        <time>2021-05-19T05:12:19Z</time>
      </trkpt>
      <trkpt lat="41.9070540" lon="-8.8765880">
        <ele>20.7</ele>
        <time>2021-05-19T05:12:20Z</time>
      </trkpt>
      <trkpt lat="41.9070570" lon="-8.8766080">
        <ele>20.6</ele>
        <time>2021-05-19T05:12:21Z</time>
      </trkpt>
      <trkpt lat="41.9070600" lon="-8.8766280">
        <ele>20.6</ele>
        <time>2021-05-19T05:12:22Z</time>
      </trkpt>
      <trkpt lat="41.9070630" lon="-8.8766490">
        <ele>20.6</ele>
        <time>2021-05-19T05:12:23Z</time>
      </trkpt>
      <trkpt lat="41.9070760" lon="-8.8766640">
        <ele>20.4</ele>
        <time>2021-05-19T05:12:24Z</time>
      </trkpt>
      <trkpt lat="41.9070790" lon="-8.8766780">
        <ele>20.3</ele>
        <time>2021-05-19T05:12:25Z</time>
      </trkpt>
      <trkpt lat="41.9070800" lon="-8.8766890">
        <ele>20.3</ele>
        <time>2021-05-19T05:12:26Z</time>
      </trkpt>
      <trkpt lat="41.9070870" lon="-8.8766870">
        <ele>20.2</ele>
        <time>2021-05-19T05:12:27Z</time>
      </trkpt>
      <trkpt lat="41.9070860" lon="-8.8766690">
        <ele>20.1</ele>
        <time>2021-05-19T05:12:28Z</time>
      </trkpt>
      <trkpt lat="41.9070860" lon="-8.8766570">
        <ele>20.0</ele>
        <time>2021-05-19T05:12:29Z</time>
      </trkpt>
      <trkpt lat="41.9070850" lon="-8.8766540">
        <ele>20.0</ele>
        <time>2021-05-19T05:12:30Z</time>
      </trkpt>
      <trkpt lat="41.9070850" lon="-8.8766500">
        <ele>19.9</ele>
        <time>2021-05-19T05:12:31Z</time>
      </trkpt>
      <trkpt lat="41.9070880" lon="-8.8766480">
        <ele>19.9</ele>
        <time>2021-05-19T05:12:32Z</time>
      </trkpt>
      <trkpt lat="41.9070930" lon="-8.8766450">
        <ele>19.9</ele>
        <time>2021-05-19T05:12:33Z</time>
      </trkpt>
      <trkpt lat="41.9070950" lon="-8.8766440">
        <ele>19.8</ele>
        <time>2021-05-19T05:12:34Z</time>
      </trkpt>
      <trkpt lat="41.9071020" lon="-8.8766460">
        <ele>19.8</ele>
        <time>2021-05-19T05:12:35Z</time>
      </trkpt>
      <trkpt lat="41.9071180" lon="-8.8766390">
        <ele>19.6</ele>
        <time>2021-05-19T05:12:36Z</time>
      </trkpt>
      <trkpt lat="41.9071250" lon="-8.8766290">
        <ele>19.5</ele>
        <time>2021-05-19T05:12:37Z</time>
      </trkpt>
      <trkpt lat="41.9071330" lon="-8.8766210">
        <ele>19.4</ele>
        <time>2021-05-19T05:12:38Z</time>
      </trkpt>
      <trkpt lat="41.9071450" lon="-8.8766200">
        <ele>19.3</ele>
        <time>2021-05-19T05:12:39Z</time>
      </trkpt>
      <trkpt lat="41.9071560" lon="-8.8766090">
        <ele>19.2</ele>
        <time>2021-05-19T05:12:40Z</time>
      </trkpt>
      <trkpt lat="41.9071610" lon="-8.8765990">
        <ele>19.1</ele>
        <time>2021-05-19T05:12:41Z</time>
      </trkpt>
      <trkpt lat="41.9071810" lon="-8.8765890">
        <ele>18.9</ele>
        <time>2021-05-19T05:12:42Z</time>
      </trkpt>
      <trkpt lat="41.9071890" lon="-8.8765830">
        <ele>18.8</ele>
        <time>2021-05-19T05:12:43Z</time>
      </trkpt>
      <trkpt lat="41.9072100" lon="-8.8765700">
        <ele>18.6</ele>
        <time>2021-05-19T05:12:44Z</time>
      </trkpt>
      <trkpt lat="41.9072180" lon="-8.8765670">
        <ele>18.5</ele>
        <time>2021-05-19T05:12:45Z</time>
      </trkpt>
      <trkpt lat="41.9072250" lon="-8.8765630">
        <ele>18.4</ele>
        <time>2021-05-19T05:12:46Z</time>
      </trkpt>
      <trkpt lat="41.9072340" lon="-8.8765470">
        <ele>18.3</ele>
        <time>2021-05-19T05:12:47Z</time>
      </trkpt>
      <trkpt lat="41.9072480" lon="-8.8765370">
        <ele>18.1</ele>
        <time>2021-05-19T05:12:48Z</time>
      </trkpt>
      <trkpt lat="41.9072580" lon="-8.8765290">
        <ele>18.0</ele>
        <time>2021-05-19T05:12:49Z</time>
      </trkpt>
      <trkpt lat="41.9072730" lon="-8.8765230">
        <ele>17.8</ele>
        <time>2021-05-19T05:12:50Z</time>
      </trkpt>
      <trkpt lat="41.9072740" lon="-8.8765170">
        <ele>17.8</ele>
        <time>2021-05-19T05:12:51Z</time>
      </trkpt>
      <trkpt lat="41.9072870" lon="-8.8765100">
        <ele>17.6</ele>
        <time>2021-05-19T05:12:52Z</time>
      </trkpt>
      <trkpt lat="41.9073050" lon="-8.8765030">
        <ele>17.4</ele>
        <time>2021-05-19T05:12:53Z</time>
      </trkpt>
      <trkpt lat="41.9073140" lon="-8.8764970">
        <ele>17.3</ele>
        <time>2021-05-19T05:12:54Z</time>
      </trkpt>
      <trkpt lat="41.9073350" lon="-8.8764930">
        <ele>17.0</ele>
        <time>2021-05-19T05:12:55Z</time>
      </trkpt>
      <trkpt lat="41.9073440" lon="-8.8764730">
        <ele>16.8</ele>
        <time>2021-05-19T05:12:56Z</time>
      </trkpt>
      <trkpt lat="41.9073540" lon="-8.8764670">
        <ele>16.6</ele>
        <time>2021-05-19T05:12:57Z</time>
      </trkpt>
      <trkpt lat="41.9073630" lon="-8.8764610">
        <ele>16.5</ele>
        <time>2021-05-19T05:12:58Z</time>
      </trkpt>
      <trkpt lat="41.9073720" lon="-8.8764550">
        <ele>16.3</ele>
        <time>2021-05-19T05:12:59Z</time>
      </trkpt>
      <trkpt lat="41.9073790" lon="-8.8764530">
        <ele>16.2</ele>
        <time>2021-05-19T05:13:00Z</time>
      </trkpt>
      <trkpt lat="41.9073910" lon="-8.8764420">
        <ele>16.0</ele>
        <time>2021-05-19T05:13:01Z</time>
      </trkpt>
      <trkpt lat="41.9073990" lon="-8.8764380">
        <ele>15.9</ele>
        <time>2021-05-19T05:13:02Z</time>
      </trkpt>
      <trkpt lat="41.9074160" lon="-8.8764220">
        <ele>15.6</ele>
        <time>2021-05-19T05:13:03Z</time>
      </trkpt>
      <trkpt lat="41.9074230" lon="-8.8764120">
        <ele>15.4</ele>
        <time>2021-05-19T05:13:04Z</time>
      </trkpt>
      <trkpt lat="41.9074330" lon="-8.8764010">
        <ele>15.2</ele>
        <time>2021-05-19T05:13:05Z</time>
      </trkpt>
      <trkpt lat="41.9074380" lon="-8.8763980">
        <ele>15.1</ele>
        <time>2021-05-19T05:13:06Z</time>
      </trkpt>
      <trkpt lat="41.9074430" lon="-8.8763810">
        <ele>14.9</ele>
        <time>2021-05-19T05:13:07Z</time>
      </trkpt>
      <trkpt lat="41.9074570" lon="-8.8763730">
        <ele>14.6</ele>
        <time>2021-05-19T05:13:08Z</time>
      </trkpt>
      <trkpt lat="41.9074620" lon="-8.8763650">
        <ele>14.5</ele>
        <time>2021-05-19T05:13:09Z</time>
      </trkpt>
      <trkpt lat="41.9074600" lon="-8.8763650">
        <ele>14.4</ele>
        <time>2021-05-19T05:13:10Z</time>
      </trkpt>
      <trkpt lat="41.9074660" lon="-8.8763640">
        <ele>14.3</ele>
        <time>2021-05-19T05:13:11Z</time>
      </trkpt>
      <trkpt lat="41.9074670" lon="-8.8763660">
        <ele>14.3</ele>
        <time>2021-05-19T05:13:12Z</time>
      </trkpt>
      <trkpt lat="41.9074730" lon="-8.8763600">
        <ele>14.2</ele>
        <time>2021-05-19T05:13:13Z</time>
      </trkpt>
      <trkpt lat="41.9074850" lon="-8.8763530">
        <ele>14.0</ele>
        <time>2021-05-19T05:13:14Z</time>
      </trkpt>
      <trkpt lat="41.9074930" lon="-8.8763490">
        <ele>13.8</ele>
        <time>2021-05-19T05:13:15Z</time>
      </trkpt>
      <trkpt lat="41.9075020" lon="-8.8763460">
        <ele>13.7</ele>
        <time>2021-05-19T05:13:16Z</time>
      </trkpt>
      <trkpt lat="41.9075100" lon="-8.8763420">
        <ele>13.6</ele>
        <time>2021-05-19T05:13:17Z</time>
      </trkpt>
      <trkpt lat="41.9075130" lon="-8.8763410">
        <ele>13.5</ele>
        <time>2021-05-19T05:13:18Z</time>
      </trkpt>
      <trkpt lat="41.9075160" lon="-8.8763300">
        <ele>13.4</ele>
        <time>2021-05-19T05:13:19Z</time>
      </trkpt>
      <trkpt lat="41.9075300" lon="-8.8763260">
        <ele>13.2</ele>
        <time>2021-05-19T05:13:20Z</time>
      </trkpt>
      <trkpt lat="41.9075400" lon="-8.8763180">
        <ele>13.0</ele>
        <time>2021-05-19T05:13:21Z</time>
      </trkpt>
      <trkpt lat="41.9075540" lon="-8.8763110">
        <ele>12.8</ele>
        <time>2021-05-19T05:13:22Z</time>
      </trkpt>
      <trkpt lat="41.9075640" lon="-8.8763000">
        <ele>12.6</ele>
        <time>2021-05-19T05:13:23Z</time>
      </trkpt>
      <trkpt lat="41.9075720" lon="-8.8762940">
        <ele>12.5</ele>
        <time>2021-05-19T05:13:24Z</time>
      </trkpt>
      <trkpt lat="41.9075810" lon="-8.8762860">
        <ele>12.4</ele>
        <time>2021-05-19T05:13:25Z</time>
      </trkpt>
      <trkpt lat="41.9075820" lon="-8.8762780">
        <ele>12.3</ele>
        <time>2021-05-19T05:13:26Z</time>
      </trkpt>
      <trkpt lat="41.9075880" lon="-8.8762660">
        <ele>12.2</ele>
        <time>2021-05-19T05:13:27Z</time>
      </trkpt>
      <trkpt lat="41.9075960" lon="-8.8762580">
        <ele>12.1</ele>
        <time>2021-05-19T05:13:28Z</time>
      </trkpt>
      <trkpt lat="41.9076150" lon="-8.8762500">
        <ele>11.9</ele>
        <time>2021-05-19T05:13:29Z</time>
      </trkpt>
      <trkpt lat="41.9076390" lon="-8.8762200">
        <ele>11.5</ele>
        <time>2021-05-19T05:13:30Z</time>
      </trkpt>
      <trkpt lat="41.9076440" lon="-8.8762070">
        <ele>11.4</ele>
        <time>2021-05-19T05:13:31Z</time>
      </trkpt>
      <trkpt lat="41.9076570" lon="-8.8761760">
        <ele>11.1</ele>
        <time>2021-05-19T05:13:32Z</time>
      </trkpt>
      <trkpt lat="41.9076620" lon="-8.8761640">
        <ele>11.0</ele>
        <time>2021-05-19T05:13:33Z</time>
      </trkpt>
      <trkpt lat="41.9076660" lon="-8.8761520">
        <ele>10.9</ele>
        <time>2021-05-19T05:13:34Z</time>
      </trkpt>
      <trkpt lat="41.9076770" lon="-8.8761310">
        <ele>10.7</ele>
        <time>2021-05-19T05:13:35Z</time>
      </trkpt>
      <trkpt lat="41.9076790" lon="-8.8761240">
        <ele>10.7</ele>
        <time>2021-05-19T05:13:36Z</time>
      </trkpt>
      <trkpt lat="41.9076820" lon="-8.8761160">
        <ele>10.6</ele>
        <time>2021-05-19T05:13:37Z</time>
      </trkpt>
      <trkpt lat="41.9076840" lon="-8.8761090">
        <ele>10.5</ele>
        <time>2021-05-19T05:13:38Z</time>
      </trkpt>
      <trkpt lat="41.9076860" lon="-8.8760970">
        <ele>10.4</ele>
        <time>2021-05-19T05:13:39Z</time>
      </trkpt>
      <trkpt lat="41.9076990" lon="-8.8760780">
        <ele>10.2</ele>
        <time>2021-05-19T05:13:40Z</time>
      </trkpt>
      <trkpt lat="41.9076970" lon="-8.8760690">
        <ele>10.1</ele>
        <time>2021-05-19T05:13:41Z</time>
      </trkpt>
      <trkpt lat="41.9076990" lon="-8.8760630">
        <ele>10.1</ele>
        <time>2021-05-19T05:13:42Z</time>
      </trkpt>
      <trkpt lat="41.9076990" lon="-8.8760660">
        <ele>10.0</ele>
        <time>2021-05-19T05:13:43Z</time>
      </trkpt>
      <trkpt lat="41.9077040" lon="-8.8760610">
        <ele>9.9</ele>
        <time>2021-05-19T05:13:44Z</time>
      </trkpt>
      <trkpt lat="41.9077130" lon="-8.8760580">
        <ele>9.8</ele>
        <time>2021-05-19T05:13:45Z</time>
      </trkpt>
      <trkpt lat="41.9077220" lon="-8.8760570">
        <ele>9.7</ele>
        <time>2021-05-19T05:13:46Z</time>
      </trkpt>
      <trkpt lat="41.9077310" lon="-8.8760600">
        <ele>9.6</ele>
        <time>2021-05-19T05:13:47Z</time>
      </trkpt>
      <trkpt lat="41.9077350" lon="-8.8760660">
        <ele>9.5</ele>
        <time>2021-05-19T05:13:48Z</time>
      </trkpt>
      <trkpt lat="41.9077450" lon="-8.8760830">
        <ele>9.2</ele>
        <time>2021-05-19T05:13:49Z</time>
      </trkpt>
      <trkpt lat="41.9077740" lon="-8.8760970">
        <ele>8.8</ele>
        <time>2021-05-19T05:13:50Z</time>
      </trkpt>
      <trkpt lat="41.9077880" lon="-8.8761070">
        <ele>7.6</ele>
        <time>2021-05-19T05:13:51Z</time>
      </trkpt>
      <trkpt lat="41.9077980" lon="-8.8761110">
        <ele>7.5</ele>
        <time>2021-05-19T05:13:52Z</time>
      </trkpt>
      <trkpt lat="41.9078090" lon="-8.8761160">
        <ele>7.5</ele>
        <time>2021-05-19T05:13:53Z</time>
      </trkpt>
      <trkpt lat="41.9078190" lon="-8.8761210">
        <ele>7.4</ele>
        <time>2021-05-19T05:13:54Z</time>
      </trkpt>
      <trkpt lat="41.9078300" lon="-8.8761020">
        <ele>7.4</ele>
        <time>2021-05-19T05:13:55Z</time>
      </trkpt>
      <trkpt lat="41.9078340" lon="-8.8760920">
        <ele>7.4</ele>
        <time>2021-05-19T05:13:56Z</time>
      </trkpt>
      <trkpt lat="41.9078370" lon="-8.8760820">
        <ele>7.3</ele>
        <time>2021-05-19T05:13:57Z</time>
      </trkpt>
      <trkpt lat="41.9078400" lon="-8.8760720">
        <ele>7.3</ele>
        <time>2021-05-19T05:13:58Z</time>
      </trkpt>
      <trkpt lat="41.9078480" lon="-8.8760340">
        <ele>7.2</ele>
        <time>2021-05-19T05:13:59Z</time>
      </trkpt>
      <trkpt lat="41.9078500" lon="-8.8760240">
        <ele>7.2</ele>
        <time>2021-05-19T05:14:00Z</time>
      </trkpt>
      <trkpt lat="41.9078590" lon="-8.8760170">
        <ele>7.2</ele>
        <time>2021-05-19T05:14:01Z</time>
      </trkpt>
      <trkpt lat="41.9078700" lon="-8.8760130">
        <ele>7.1</ele>
        <time>2021-05-19T05:14:02Z</time>
      </trkpt>
      <trkpt lat="41.9078800" lon="-8.8760000">
        <ele>7.1</ele>
        <time>2021-05-19T05:14:03Z</time>
      </trkpt>
      <trkpt lat="41.9078900" lon="-8.8759890">
        <ele>7.1</ele>
        <time>2021-05-19T05:14:04Z</time>
      </trkpt>
      <trkpt lat="41.9079060" lon="-8.8759880">
        <ele>7.1</ele>
        <time>2021-05-19T05:14:05Z</time>
      </trkpt>
      <trkpt lat="41.9079290" lon="-8.8759840">
        <ele>7.0</ele>
        <time>2021-05-19T05:14:06Z</time>
      </trkpt>
      <trkpt lat="41.9079380" lon="-8.8759840">
        <ele>7.0</ele>
        <time>2021-05-19T05:14:07Z</time>
      </trkpt>
      <trkpt lat="41.9079470" lon="-8.8759830">
        <ele>7.0</ele>
        <time>2021-05-19T05:14:08Z</time>
      </trkpt>
      <trkpt lat="41.9079570" lon="-8.8759820">
        <ele>7.0</ele>
        <time>2021-05-19T05:14:09Z</time>
      </trkpt>
      <trkpt lat="41.9079700" lon="-8.8759800">
        <ele>6.9</ele>
        <time>2021-05-19T05:14:10Z</time>
      </trkpt>
      <trkpt lat="41.9079820" lon="-8.8759800">
        <ele>6.9</ele>
        <time>2021-05-19T05:14:11Z</time>
      </trkpt>
      <trkpt lat="41.9080010" lon="-8.8759810">
        <ele>6.9</ele>
        <time>2021-05-19T05:14:12Z</time>
      </trkpt>
      <trkpt lat="41.9080100" lon="-8.8759830">
        <ele>6.9</ele>
        <time>2021-05-19T05:14:13Z</time>
      </trkpt>
      <trkpt lat="41.9080200" lon="-8.8759840">
        <ele>6.9</ele>
        <time>2021-05-19T05:14:14Z</time>
      </trkpt>
      <trkpt lat="41.9080310" lon="-8.8759860">
        <ele>6.8</ele>
        <time>2021-05-19T05:14:15Z</time>
      </trkpt>
      <trkpt lat="41.9080410" lon="-8.8759840">
        <ele>6.8</ele>
        <time>2021-05-19T05:14:16Z</time>
      </trkpt>
      <trkpt lat="41.9080510" lon="-8.8759870">
        <ele>6.8</ele>
        <time>2021-05-19T05:14:17Z</time>
      </trkpt>
      <trkpt lat="41.9080610" lon="-8.8759990">
        <ele>6.8</ele>
        <time>2021-05-19T05:14:18Z</time>
      </trkpt>
      <trkpt lat="41.9080660" lon="-8.8760110">
        <ele>6.8</ele>
        <time>2021-05-19T05:14:19Z</time>
      </trkpt>
      <trkpt lat="41.9080730" lon="-8.8760160">
        <ele>6.8</ele>
        <time>2021-05-19T05:14:20Z</time>
      </trkpt>
      <trkpt lat="41.9080810" lon="-8.8760170">
        <ele>6.8</ele>
        <time>2021-05-19T05:14:21Z</time>
      </trkpt>
      <trkpt lat="41.9080930" lon="-8.8760250">
        <ele>6.8</ele>
        <time>2021-05-19T05:14:22Z</time>
      </trkpt>
      <trkpt lat="41.9081010" lon="-8.8760230">
        <ele>6.7</ele>
        <time>2021-05-19T05:14:23Z</time>
      </trkpt>
      <trkpt lat="41.9081130" lon="-8.8760160">
        <ele>6.7</ele>
        <time>2021-05-19T05:14:24Z</time>
      </trkpt>
      <trkpt lat="41.9081280" lon="-8.8760090">
        <ele>6.7</ele>
        <time>2021-05-19T05:14:25Z</time>
      </trkpt>
      <trkpt lat="41.9081410" lon="-8.8760080">
        <ele>6.7</ele>
        <time>2021-05-19T05:14:26Z</time>
      </trkpt>
      <trkpt lat="41.9081550" lon="-8.8760020">
        <ele>6.7</ele>
        <time>2021-05-19T05:14:27Z</time>
      </trkpt>
      <trkpt lat="41.9081760" lon="-8.8759990">
        <ele>6.7</ele>
        <time>2021-05-19T05:14:28Z</time>
      </trkpt>
      <trkpt lat="41.9081870" lon="-8.8760000">
        <ele>6.6</ele>
        <time>2021-05-19T05:14:29Z</time>
      </trkpt>
      <trkpt lat="41.9081980" lon="-8.8759950">
        <ele>6.6</ele>
        <time>2021-05-19T05:14:30Z</time>
      </trkpt>
      <trkpt lat="41.9082080" lon="-8.8759870">
        <ele>6.6</ele>
        <time>2021-05-19T05:14:31Z</time>
      </trkpt>
      <trkpt lat="41.9082190" lon="-8.8759850">
        <ele>6.6</ele>
        <time>2021-05-19T05:14:32Z</time>
      </trkpt>
      <trkpt lat="41.9082320" lon="-8.8759940">
        <ele>6.6</ele>
        <time>2021-05-19T05:14:33Z</time>
      </trkpt>
      <trkpt lat="41.9082390" lon="-8.8760010">
        <ele>6.6</ele>
        <time>2021-05-19T05:14:34Z</time>
      </trkpt>
      <trkpt lat="41.9082470" lon="-8.8760070">
        <ele>6.6</ele>
        <time>2021-05-19T05:14:35Z</time>
      </trkpt>
      <trkpt lat="41.9082540" lon="-8.8760140">
        <ele>6.6</ele>
        <time>2021-05-19T05:14:36Z</time>
      </trkpt>
      <trkpt lat="41.9082650" lon="-8.8760250">
        <ele>6.6</ele>
        <time>2021-05-19T05:14:37Z</time>
      </trkpt>
      <trkpt lat="41.9082670" lon="-8.8760350">
        <ele>6.6</ele>
        <time>2021-05-19T05:14:38Z</time>
      </trkpt>
      <trkpt lat="41.9082730" lon="-8.8760410">
        <ele>6.6</ele>
        <time>2021-05-19T05:14:39Z</time>
      </trkpt>
      <trkpt lat="41.9082770" lon="-8.8760350">
        <ele>6.5</ele>
        <time>2021-05-19T05:14:40Z</time>
      </trkpt>
      <trkpt lat="41.9082740" lon="-8.8760310">
        <ele>6.5</ele>
        <time>2021-05-19T05:14:41Z</time>
      </trkpt>
      <trkpt lat="41.9082740" lon="-8.8760280">
        <ele>6.5</ele>
        <time>2021-05-19T05:14:42Z</time>
      </trkpt>
      <trkpt lat="41.9082760" lon="-8.8760280">
        <ele>6.5</ele>
        <time>2021-05-19T05:14:43Z</time>
      </trkpt>
      <trkpt lat="41.9082770" lon="-8.8760290">
        <ele>6.5</ele>
        <time>2021-05-19T05:14:44Z</time>
      </trkpt>
      <trkpt lat="41.9082870" lon="-8.8760380">
        <ele>6.5</ele>
        <time>2021-05-19T05:14:45Z</time>
      </trkpt>
      <trkpt lat="41.9082940" lon="-8.8760490">
        <ele>6.5</ele>
        <time>2021-05-19T05:14:46Z</time>
      </trkpt>
      <trkpt lat="41.9083040" lon="-8.8760590">
        <ele>6.5</ele>
        <time>2021-05-19T05:14:47Z</time>
      </trkpt>
      <trkpt lat="41.9083080" lon="-8.8760710">
        <ele>6.5</ele>
        <time>2021-05-19T05:14:48Z</time>
      </trkpt>
      <trkpt lat="41.9083230" lon="-8.8760820">
        <ele>6.5</ele>
        <time>2021-05-19T05:14:49Z</time>
      </trkpt>
      <trkpt lat="41.9083230" lon="-8.8760690">
        <ele>6.5</ele>
        <time>2021-05-19T05:14:50Z</time>
      </trkpt>
      <trkpt lat="41.9083250" lon="-8.8760680">
        <ele>6.5</ele>
        <time>2021-05-19T05:14:51Z</time>
      </trkpt>
      <trkpt lat="41.9083300" lon="-8.8760680">
        <ele>6.4</ele>
        <time>2021-05-19T05:14:52Z</time>
      </trkpt>
      <trkpt lat="41.9083450" lon="-8.8760720">
        <ele>6.4</ele>
        <time>2021-05-19T05:14:53Z</time>
      </trkpt>
      <trkpt lat="41.9083570" lon="-8.8760760">
        <ele>6.4</ele>
        <time>2021-05-19T05:14:54Z</time>
      </trkpt>
      <trkpt lat="41.9083670" lon="-8.8760830">
        <ele>6.4</ele>
        <time>2021-05-19T05:14:55Z</time>
      </trkpt>
      <trkpt lat="41.9083690" lon="-8.8760790">
        <ele>6.4</ele>
        <time>2021-05-19T05:14:56Z</time>
      </trkpt>
      <trkpt lat="41.9083760" lon="-8.8760750">
        <ele>6.4</ele>
        <time>2021-05-19T05:14:57Z</time>
      </trkpt>
      <trkpt lat="41.9083880" lon="-8.8760830">
        <ele>6.4</ele>
        <time>2021-05-19T05:14:58Z</time>
      </trkpt>
      <trkpt lat="41.9083870" lon="-8.8760960">
        <ele>6.4</ele>
        <time>2021-05-19T05:14:59Z</time>
      </trkpt>
      <trkpt lat="41.9083960" lon="-8.8761160">
        <ele>6.4</ele>
        <time>2021-05-19T05:15:00Z</time>
      </trkpt>
      <trkpt lat="41.9084000" lon="-8.8761230">
        <ele>6.4</ele>
        <time>2021-05-19T05:15:01Z</time>
      </trkpt>
      <trkpt lat="41.9084130" lon="-8.8761380">
        <ele>6.4</ele>
        <time>2021-05-19T05:15:02Z</time>
      </trkpt>
      <trkpt lat="41.9084200" lon="-8.8761480">
        <ele>6.4</ele>
        <time>2021-05-19T05:15:03Z</time>
      </trkpt>
      <trkpt lat="41.9084270" lon="-8.8761570">
        <ele>6.4</ele>
        <time>2021-05-19T05:15:04Z</time>
      </trkpt>
      <trkpt lat="41.9084320" lon="-8.8761640">
        <ele>6.4</ele>
        <time>2021-05-19T05:15:05Z</time>
      </trkpt>
      <trkpt lat="41.9084430" lon="-8.8761810">
        <ele>6.3</ele>
        <time>2021-05-19T05:15:06Z</time>
      </trkpt>
      <trkpt lat="41.9084470" lon="-8.8761930">
        <ele>6.3</ele>
        <time>2021-05-19T05:15:07Z</time>
      </trkpt>
      <trkpt lat="41.9084510" lon="-8.8762060">
        <ele>6.3</ele>
        <time>2021-05-19T05:15:08Z</time>
      </trkpt>
      <trkpt lat="41.9084610" lon="-8.8762190">
        <ele>6.3</ele>
        <time>2021-05-19T05:15:09Z</time>
      </trkpt>
      <trkpt lat="41.9084680" lon="-8.8762330">
        <ele>6.3</ele>
        <time>2021-05-19T05:15:10Z</time>
      </trkpt>
      <trkpt lat="41.9084860" lon="-8.8762500">
        <ele>6.3</ele>
        <time>2021-05-19T05:15:11Z</time>
      </trkpt>
      <trkpt lat="41.9084930" lon="-8.8762570">
        <ele>6.3</ele>
        <time>2021-05-19T05:15:12Z</time>
      </trkpt>
      <trkpt lat="41.9085000" lon="-8.8762640">
        <ele>6.3</ele>
        <time>2021-05-19T05:15:13Z</time>
      </trkpt>
      <trkpt lat="41.9085120" lon="-8.8762830">
        <ele>6.3</ele>
        <time>2021-05-19T05:15:14Z</time>
      </trkpt>
      <trkpt lat="41.9085180" lon="-8.8762920">
        <ele>6.3</ele>
        <time>2021-05-19T05:15:15Z</time>
      </trkpt>
      <trkpt lat="41.9085250" lon="-8.8763000">
        <ele>6.3</ele>
        <time>2021-05-19T05:15:16Z</time>
      </trkpt>
      <trkpt lat="41.9085320" lon="-8.8763080">
        <ele>6.2</ele>
        <time>2021-05-19T05:15:17Z</time>
      </trkpt>
      <trkpt lat="41.9085450" lon="-8.8763210">
        <ele>6.2</ele>
        <time>2021-05-19T05:15:18Z</time>
      </trkpt>
      <trkpt lat="41.9085470" lon="-8.8763260">
        <ele>6.2</ele>
        <time>2021-05-19T05:15:19Z</time>
      </trkpt>
      <trkpt lat="41.9085600" lon="-8.8763420">
        <ele>6.2</ele>
        <time>2021-05-19T05:15:20Z</time>
      </trkpt>
      <trkpt lat="41.9085690" lon="-8.8763500">
        <ele>6.2</ele>
        <time>2021-05-19T05:15:21Z</time>
      </trkpt>
      <trkpt lat="41.9085790" lon="-8.8763600">
        <ele>6.2</ele>
        <time>2021-05-19T05:15:22Z</time>
      </trkpt>
      <trkpt lat="41.9085820" lon="-8.8763760">
        <ele>6.2</ele>
        <time>2021-05-19T05:15:23Z</time>
      </trkpt>
      <trkpt lat="41.9085940" lon="-8.8763850">
        <ele>6.2</ele>
        <time>2021-05-19T05:15:24Z</time>
      </trkpt>
      <trkpt lat="41.9085970" lon="-8.8763960">
        <ele>6.2</ele>
        <time>2021-05-19T05:15:25Z</time>
      </trkpt>
      <trkpt lat="41.9086000" lon="-8.8764030">
        <ele>6.2</ele>
        <time>2021-05-19T05:15:26Z</time>
      </trkpt>
      <trkpt lat="41.9086030" lon="-8.8764090">
        <ele>6.2</ele>
        <time>2021-05-19T05:15:27Z</time>
      </trkpt>
      <trkpt lat="41.9086060" lon="-8.8764150">
        <ele>6.2</ele>
        <time>2021-05-19T05:15:28Z</time>
      </trkpt>
      <trkpt lat="41.9086090" lon="-8.8764220">
        <ele>6.2</ele>
        <time>2021-05-19T05:15:29Z</time>
      </trkpt>
      <trkpt lat="41.9086120" lon="-8.8764280">
        <ele>6.1</ele>
        <time>2021-05-19T05:15:30Z</time>
      </trkpt>
      <trkpt lat="41.9086280" lon="-8.8764430">
        <ele>6.1</ele>
        <time>2021-05-19T05:15:31Z</time>
      </trkpt>
      <trkpt lat="41.9086350" lon="-8.8764530">
        <ele>6.1</ele>
        <time>2021-05-19T05:15:32Z</time>
      </trkpt>
      <trkpt lat="41.9086420" lon="-8.8764630">
        <ele>6.0</ele>
        <time>2021-05-19T05:15:33Z</time>
      </trkpt>
      <trkpt lat="41.9086570" lon="-8.8764860">
        <ele>6.0</ele>
        <time>2021-05-19T05:15:34Z</time>
      </trkpt>
      <trkpt lat="41.9086620" lon="-8.8764940">
        <ele>6.0</ele>
        <time>2021-05-19T05:15:35Z</time>
      </trkpt>
      <trkpt lat="41.9086670" lon="-8.8765020">
        <ele>6.0</ele>
        <time>2021-05-19T05:15:36Z</time>
      </trkpt>
      <trkpt lat="41.9086760" lon="-8.8765260">
        <ele>5.9</ele>
        <time>2021-05-19T05:15:37Z</time>
      </trkpt>
      <trkpt lat="41.9086800" lon="-8.8765370">
        <ele>5.9</ele>
        <time>2021-05-19T05:15:38Z</time>
      </trkpt>
      <trkpt lat="41.9086850" lon="-8.8765490">
        <ele>5.9</ele>
        <time>2021-05-19T05:15:39Z</time>
      </trkpt>
      <trkpt lat="41.9086990" lon="-8.8765680">
        <ele>5.8</ele>
        <time>2021-05-19T05:15:40Z</time>
      </trkpt>
      <trkpt lat="41.9087110" lon="-8.8765800">
        <ele>5.8</ele>
        <time>2021-05-19T05:15:41Z</time>
      </trkpt>
      <trkpt lat="41.9087200" lon="-8.8765930">
        <ele>5.8</ele>
        <time>2021-05-19T05:15:42Z</time>
      </trkpt>
      <trkpt lat="41.9087300" lon="-8.8766090">
        <ele>5.8</ele>
        <time>2021-05-19T05:15:43Z</time>
      </trkpt>
      <trkpt lat="41.9087420" lon="-8.8766210">
        <ele>5.7</ele>
        <time>2021-05-19T05:15:44Z</time>
      </trkpt>
      <trkpt lat="41.9087550" lon="-8.8766350">
        <ele>5.7</ele>
        <time>2021-05-19T05:15:45Z</time>
      </trkpt>
      <trkpt lat="41.9087660" lon="-8.8766450">
        <ele>5.7</ele>
        <time>2021-05-19T05:15:46Z</time>
      </trkpt>
      <trkpt lat="41.9087790" lon="-8.8766560">
        <ele>5.6</ele>
        <time>2021-05-19T05:15:47Z</time>
      </trkpt>
      <trkpt lat="41.9087920" lon="-8.8766630">
        <ele>5.6</ele>
        <time>2021-05-19T05:15:48Z</time>
      </trkpt>
      <trkpt lat="41.9088020" lon="-8.8766780">
        <ele>5.6</ele>
        <time>2021-05-19T05:15:49Z</time>
      </trkpt>
      <trkpt lat="41.9088100" lon="-8.8766900">
        <ele>5.6</ele>
        <time>2021-05-19T05:15:50Z</time>
      </trkpt>
      <trkpt lat="41.9088180" lon="-8.8767010">
        <ele>5.5</ele>
        <time>2021-05-19T05:15:51Z</time>
      </trkpt>
      <trkpt lat="41.9088230" lon="-8.8767070">
        <ele>5.5</ele>
        <time>2021-05-19T05:15:52Z</time>
      </trkpt>
      <trkpt lat="41.9088370" lon="-8.8767240">
        <ele>5.5</ele>
        <time>2021-05-19T05:15:53Z</time>
      </trkpt>
      <trkpt lat="41.9088440" lon="-8.8767320">
        <ele>5.5</ele>
        <time>2021-05-19T05:15:54Z</time>
      </trkpt>
      <trkpt lat="41.9088500" lon="-8.8767400">
        <ele>5.5</ele>
        <time>2021-05-19T05:15:55Z</time>
      </trkpt>
      <trkpt lat="41.9088600" lon="-8.8767540">
        <ele>5.4</ele>
        <time>2021-05-19T05:15:56Z</time>
      </trkpt>
      <trkpt lat="41.9088720" lon="-8.8767680">
        <ele>5.4</ele>
        <time>2021-05-19T05:15:57Z</time>
      </trkpt>
      <trkpt lat="41.9088860" lon="-8.8767760">
        <ele>5.4</ele>
        <time>2021-05-19T05:15:58Z</time>
      </trkpt>
      <trkpt lat="41.9088960" lon="-8.8767940">
        <ele>5.3</ele>
        <time>2021-05-19T05:15:59Z</time>
      </trkpt>
      <trkpt lat="41.9089010" lon="-8.8768030">
        <ele>5.3</ele>
        <time>2021-05-19T05:16:00Z</time>
      </trkpt>
      <trkpt lat="41.9089080" lon="-8.8768110">
        <ele>5.3</ele>
        <time>2021-05-19T05:16:01Z</time>
      </trkpt>
      <trkpt lat="41.9089110" lon="-8.8768320">
        <ele>5.3</ele>
        <time>2021-05-19T05:16:02Z</time>
      </trkpt>
      <trkpt lat="41.9089270" lon="-8.8768480">
        <ele>5.3</ele>
        <time>2021-05-19T05:16:03Z</time>
      </trkpt>
      <trkpt lat="41.9089330" lon="-8.8768570">
        <ele>5.2</ele>
        <time>2021-05-19T05:16:04Z</time>
      </trkpt>
      <trkpt lat="41.9089520" lon="-8.8768810">
        <ele>5.2</ele>
        <time>2021-05-19T05:16:05Z</time>
      </trkpt>
      <trkpt lat="41.9089580" lon="-8.8768890">
        <ele>5.2</ele>
        <time>2021-05-19T05:16:06Z</time>
      </trkpt>
      <trkpt lat="41.9089640" lon="-8.8768980">
        <ele>5.2</ele>
        <time>2021-05-19T05:16:07Z</time>
      </trkpt>
      <trkpt lat="41.9089680" lon="-8.8769090">
        <ele>5.2</ele>
        <time>2021-05-19T05:16:08Z</time>
      </trkpt>
      <trkpt lat="41.9089860" lon="-8.8769330">
        <ele>5.1</ele>
        <time>2021-05-19T05:16:09Z</time>
      </trkpt>
      <trkpt lat="41.9089910" lon="-8.8769500">
        <ele>5.1</ele>
        <time>2021-05-19T05:16:10Z</time>
      </trkpt>
      <trkpt lat="41.9089990" lon="-8.8769670">
        <ele>5.1</ele>
        <time>2021-05-19T05:16:11Z</time>
      </trkpt>
      <trkpt lat="41.9090020" lon="-8.8769870">
        <ele>5.1</ele>
        <time>2021-05-19T05:16:12Z</time>
      </trkpt>
      <trkpt lat="41.9090110" lon="-8.8770030">
        <ele>5.1</ele>
        <time>2021-05-19T05:16:13Z</time>
      </trkpt>
      <trkpt lat="41.9090190" lon="-8.8770130">
        <ele>5.1</ele>
        <time>2021-05-19T05:16:14Z</time>
      </trkpt>
      <trkpt lat="41.9090300" lon="-8.8770200">
        <ele>5.1</ele>
        <time>2021-05-19T05:16:15Z</time>
      </trkpt>
      <trkpt lat="41.9090360" lon="-8.8770240">
        <ele>5.1</ele>
        <time>2021-05-19T05:16:16Z</time>
      </trkpt>
      <trkpt lat="41.9090460" lon="-8.8770270">
        <ele>5.0</ele>
        <time>2021-05-19T05:16:17Z</time>
      </trkpt>
      <trkpt lat="41.9090530" lon="-8.8770360">
        <ele>5.0</ele>
        <time>2021-05-19T05:16:18Z</time>
      </trkpt>
      <trkpt lat="41.9090690" lon="-8.8770400">
        <ele>5.0</ele>
        <time>2021-05-19T05:16:19Z</time>
      </trkpt>
      <trkpt lat="41.9090900" lon="-8.8770440">
        <ele>5.0</ele>
        <time>2021-05-19T05:16:20Z</time>
      </trkpt>
      <trkpt lat="41.9091000" lon="-8.8770450">
        <ele>5.0</ele>
        <time>2021-05-19T05:16:21Z</time>
      </trkpt>
      <trkpt lat="41.9091100" lon="-8.8770450">
        <ele>5.0</ele>
        <time>2021-05-19T05:16:22Z</time>
      </trkpt>
      <trkpt lat="41.9091230" lon="-8.8770360">
        <ele>5.0</ele>
        <time>2021-05-19T05:16:23Z</time>
      </trkpt>
      <trkpt lat="41.9091390" lon="-8.8770340">
        <ele>4.9</ele>
        <time>2021-05-19T05:16:24Z</time>
      </trkpt>
      <trkpt lat="41.9091580" lon="-8.8770350">
        <ele>4.9</ele>
        <time>2021-05-19T05:16:25Z</time>
      </trkpt>
      <trkpt lat="41.9091740" lon="-8.8770270">
        <ele>4.9</ele>
        <time>2021-05-19T05:16:26Z</time>
      </trkpt>
      <trkpt lat="41.9091890" lon="-8.8770200">
        <ele>4.9</ele>
        <time>2021-05-19T05:16:27Z</time>
      </trkpt>
      <trkpt lat="41.9092040" lon="-8.8770190">
        <ele>4.8</ele>
        <time>2021-05-19T05:16:28Z</time>
      </trkpt>
      <trkpt lat="41.9092170" lon="-8.8770030">
        <ele>4.8</ele>
        <time>2021-05-19T05:16:29Z</time>
      </trkpt>
      <trkpt lat="41.9092300" lon="-8.8769960">
        <ele>4.8</ele>
        <time>2021-05-19T05:16:30Z</time>
      </trkpt>
      <trkpt lat="41.9092510" lon="-8.8769840">
        <ele>4.8</ele>
        <time>2021-05-19T05:16:31Z</time>
      </trkpt>
      <trkpt lat="41.9092600" lon="-8.8769810">
        <ele>4.8</ele>
        <time>2021-05-19T05:16:32Z</time>
      </trkpt>
      <trkpt lat="41.9092690" lon="-8.8769770">
        <ele>4.8</ele>
        <time>2021-05-19T05:16:33Z</time>
      </trkpt>
      <trkpt lat="41.9092730" lon="-8.8769670">
        <ele>4.8</ele>
        <time>2021-05-19T05:16:34Z</time>
      </trkpt>
      <trkpt lat="41.9092850" lon="-8.8769580">
        <ele>4.8</ele>
        <time>2021-05-19T05:16:35Z</time>
      </trkpt>
      <trkpt lat="41.9092850" lon="-8.8769440">
        <ele>4.7</ele>
        <time>2021-05-19T05:16:36Z</time>
      </trkpt>
      <trkpt lat="41.9093010" lon="-8.8769380">
        <ele>4.7</ele>
        <time>2021-05-19T05:16:37Z</time>
      </trkpt>
      <trkpt lat="41.9093120" lon="-8.8769240">
        <ele>4.7</ele>
        <time>2021-05-19T05:16:38Z</time>
      </trkpt>
      <trkpt lat="41.9093250" lon="-8.8769150">
        <ele>4.7</ele>
        <time>2021-05-19T05:16:39Z</time>
      </trkpt>
      <trkpt lat="41.9093380" lon="-8.8769060">
        <ele>4.7</ele>
        <time>2021-05-19T05:16:40Z</time>
      </trkpt>
      <trkpt lat="41.9093520" lon="-8.8768950">
        <ele>4.7</ele>
        <time>2021-05-19T05:16:41Z</time>
      </trkpt>
      <trkpt lat="41.9093660" lon="-8.8768890">
        <ele>4.7</ele>
        <time>2021-05-19T05:16:42Z</time>
      </trkpt>
      <trkpt lat="41.9093800" lon="-8.8768790">
        <ele>4.7</ele>
        <time>2021-05-19T05:16:43Z</time>
      </trkpt>
      <trkpt lat="41.9093920" lon="-8.8768730">
        <ele>4.7</ele>
        <time>2021-05-19T05:16:44Z</time>
      </trkpt>
      <trkpt lat="41.9094150" lon="-8.8768600">
        <ele>4.7</ele>
        <time>2021-05-19T05:16:45Z</time>
      </trkpt>
      <trkpt lat="41.9094220" lon="-8.8768550">
        <ele>4.7</ele>
        <time>2021-05-19T05:16:46Z</time>
      </trkpt>
      <trkpt lat="41.9094280" lon="-8.8768490">
        <ele>4.7</ele>
        <time>2021-05-19T05:16:47Z</time>
      </trkpt>
      <trkpt lat="41.9094480" lon="-8.8768370">
        <ele>4.7</ele>
        <time>2021-05-19T05:16:48Z</time>
      </trkpt>
      <trkpt lat="41.9094580" lon="-8.8768290">
        <ele>4.7</ele>
        <time>2021-05-19T05:16:49Z</time>
      </trkpt>
      <trkpt lat="41.9094670" lon="-8.8768200">
        <ele>4.7</ele>
        <time>2021-05-19T05:16:50Z</time>
      </trkpt>
      <trkpt lat="41.9094750" lon="-8.8768080">
        <ele>4.7</ele>
        <time>2021-05-19T05:16:51Z</time>
      </trkpt>
      <trkpt lat="41.9094840" lon="-8.8768000">
        <ele>4.7</ele>
        <time>2021-05-19T05:16:52Z</time>
      </trkpt>
      <trkpt lat="41.9094930" lon="-8.8767900">
        <ele>4.7</ele>
        <time>2021-05-19T05:16:53Z</time>
      </trkpt>
      <trkpt lat="41.9095120" lon="-8.8767790">
        <ele>4.7</ele>
        <time>2021-05-19T05:16:54Z</time>
      </trkpt>
      <trkpt lat="41.9095190" lon="-8.8767750">
        <ele>4.7</ele>
        <time>2021-05-19T05:16:55Z</time>
      </trkpt>
      <trkpt lat="41.9095270" lon="-8.8767710">
        <ele>4.7</ele>
        <time>2021-05-19T05:16:56Z</time>
      </trkpt>
      <trkpt lat="41.9095510" lon="-8.8767610">
        <ele>4.7</ele>
        <time>2021-05-19T05:16:57Z</time>
      </trkpt>
      <trkpt lat="41.9095580" lon="-8.8767580">
        <ele>4.7</ele>
        <time>2021-05-19T05:16:58Z</time>
      </trkpt>
      <trkpt lat="41.9095660" lon="-8.8767550">
        <ele>4.7</ele>
        <time>2021-05-19T05:16:59Z</time>
      </trkpt>
      <trkpt lat="41.9095910" lon="-8.8767310">
        <ele>4.7</ele>
        <time>2021-05-19T05:17:00Z</time>
      </trkpt>
      <trkpt lat="41.9095980" lon="-8.8767240">
        <ele>4.7</ele>
        <time>2021-05-19T05:17:01Z</time>
      </trkpt>
      <trkpt lat="41.9096110" lon="-8.8767140">
        <ele>4.7</ele>
        <time>2021-05-19T05:17:02Z</time>
      </trkpt>
      <trkpt lat="41.9096230" lon="-8.8767000">
        <ele>4.8</ele>
        <time>2021-05-19T05:17:03Z</time>
      </trkpt>
      <trkpt lat="41.9096330" lon="-8.8766850">
        <ele>4.8</ele>
        <time>2021-05-19T05:17:04Z</time>
      </trkpt>
      <trkpt lat="41.9096440" lon="-8.8766730">
        <ele>4.8</ele>
        <time>2021-05-19T05:17:05Z</time>
      </trkpt>
      <trkpt lat="41.9096520" lon="-8.8766550">
        <ele>4.8</ele>
        <time>2021-05-19T05:17:06Z</time>
      </trkpt>
      <trkpt lat="41.9096630" lon="-8.8766420">
        <ele>4.8</ele>
        <time>2021-05-19T05:17:07Z</time>
      </trkpt>
      <trkpt lat="41.9096740" lon="-8.8766270">
        <ele>4.8</ele>
        <time>2021-05-19T05:17:08Z</time>
      </trkpt>
      <trkpt lat="41.9096800" lon="-8.8766090">
        <ele>4.8</ele>
        <time>2021-05-19T05:17:09Z</time>
      </trkpt>
      <trkpt lat="41.9096910" lon="-8.8765930">
        <ele>4.8</ele>
        <time>2021-05-19T05:17:10Z</time>
      </trkpt>
      <trkpt lat="41.9096920" lon="-8.8765720">
        <ele>4.8</ele>
        <time>2021-05-19T05:17:11Z</time>
      </trkpt>
      <trkpt lat="41.9096940" lon="-8.8765580">
        <ele>4.8</ele>
        <time>2021-05-19T05:17:12Z</time>
      </trkpt>
      <trkpt lat="41.9097000" lon="-8.8765300">
        <ele>4.8</ele>
        <time>2021-05-19T05:17:13Z</time>
      </trkpt>
      <trkpt lat="41.9097020" lon="-8.8765130">
        <ele>4.8</ele>
        <time>2021-05-19T05:17:14Z</time>
      </trkpt>
      <trkpt lat="41.9097070" lon="-8.8764930">
        <ele>4.9</ele>
        <time>2021-05-19T05:17:15Z</time>
      </trkpt>
      <trkpt lat="41.9097040" lon="-8.8764690">
        <ele>4.9</ele>
        <time>2021-05-19T05:17:16Z</time>
      </trkpt>
      <trkpt lat="41.9097060" lon="-8.8764500">
        <ele>4.9</ele>
        <time>2021-05-19T05:17:17Z</time>
      </trkpt>
      <trkpt lat="41.9097110" lon="-8.8764220">
        <ele>4.9</ele>
        <time>2021-05-19T05:17:18Z</time>
      </trkpt>
      <trkpt lat="41.9097130" lon="-8.8764120">
        <ele>4.9</ele>
        <time>2021-05-19T05:17:19Z</time>
      </trkpt>
      <trkpt lat="41.9097150" lon="-8.8764010">
        <ele>4.9</ele>
        <time>2021-05-19T05:17:20Z</time>
      </trkpt>
      <trkpt lat="41.9097140" lon="-8.8763730">
        <ele>5.0</ele>
        <time>2021-05-19T05:17:21Z</time>
      </trkpt>
      <trkpt lat="41.9097150" lon="-8.8763600">
        <ele>5.0</ele>
        <time>2021-05-19T05:17:22Z</time>
      </trkpt>
      <trkpt lat="41.9097170" lon="-8.8763470">
        <ele>5.0</ele>
        <time>2021-05-19T05:17:23Z</time>
      </trkpt>
      <trkpt lat="41.9097240" lon="-8.8763360">
        <ele>5.0</ele>
        <time>2021-05-19T05:17:24Z</time>
      </trkpt>
      <trkpt lat="41.9097290" lon="-8.8763140">
        <ele>5.0</ele>
        <time>2021-05-19T05:17:25Z</time>
      </trkpt>
      <trkpt lat="41.9097300" lon="-8.8763010">
        <ele>5.0</ele>
        <time>2021-05-19T05:17:26Z</time>
      </trkpt>
      <trkpt lat="41.9097320" lon="-8.8762840">
        <ele>5.0</ele>
        <time>2021-05-19T05:17:27Z</time>
      </trkpt>
      <trkpt lat="41.9097320" lon="-8.8762700">
        <ele>5.0</ele>
        <time>2021-05-19T05:17:28Z</time>
      </trkpt>
      <trkpt lat="41.9097330" lon="-8.8762490">
        <ele>5.1</ele>
        <time>2021-05-19T05:17:29Z</time>
      </trkpt>
      <trkpt lat="41.9097420" lon="-8.8762300">
        <ele>5.1</ele>
        <time>2021-05-19T05:17:30Z</time>
      </trkpt>
      <trkpt lat="41.9097460" lon="-8.8761960">
        <ele>5.1</ele>
        <time>2021-05-19T05:17:31Z</time>
      </trkpt>
      <trkpt lat="41.9097490" lon="-8.8761840">
        <ele>5.1</ele>
        <time>2021-05-19T05:17:32Z</time>
      </trkpt>
      <trkpt lat="41.9097530" lon="-8.8761720">
        <ele>5.1</ele>
        <time>2021-05-19T05:17:33Z</time>
      </trkpt>
      <trkpt lat="41.9097570" lon="-8.8761640">
        <ele>5.1</ele>
        <time>2021-05-19T05:17:34Z</time>
      </trkpt>
      <trkpt lat="41.9097590" lon="-8.8761470">
        <ele>5.1</ele>
        <time>2021-05-19T05:17:35Z</time>
      </trkpt>
      <trkpt lat="41.9097680" lon="-8.8761340">
        <ele>5.2</ele>
        <time>2021-05-19T05:17:36Z</time>
      </trkpt>
      <trkpt lat="41.9097850" lon="-8.8761180">
        <ele>5.2</ele>
        <time>2021-05-19T05:17:37Z</time>
      </trkpt>
      <trkpt lat="41.9097920" lon="-8.8761130">
        <ele>5.2</ele>
        <time>2021-05-19T05:17:38Z</time>
      </trkpt>
      <trkpt lat="41.9098000" lon="-8.8761080">
        <ele>5.2</ele>
        <time>2021-05-19T05:17:39Z</time>
      </trkpt>
      <trkpt lat="41.9098080" lon="-8.8761000">
        <ele>5.2</ele>
        <time>2021-05-19T05:17:40Z</time>
      </trkpt>
      <trkpt lat="41.9098150" lon="-8.8760930">
        <ele>5.2</ele>
        <time>2021-05-19T05:17:41Z</time>
      </trkpt>
      <trkpt lat="41.9098270" lon="-8.8760810">
        <ele>5.2</ele>
        <time>2021-05-19T05:17:42Z</time>
      </trkpt>
      <trkpt lat="41.9098450" lon="-8.8760680">
        <ele>5.2</ele>
        <time>2021-05-19T05:17:43Z</time>
      </trkpt>
      <trkpt lat="41.9098550" lon="-8.8760630">
        <ele>5.2</ele>
        <time>2021-05-19T05:17:44Z</time>
      </trkpt>
      <trkpt lat="41.9098640" lon="-8.8760570">
        <ele>5.2</ele>
        <time>2021-05-19T05:17:45Z</time>
      </trkpt>
      <trkpt lat="41.9098880" lon="-8.8760530">
        <ele>5.2</ele>
        <time>2021-05-19T05:17:46Z</time>
      </trkpt>
      <trkpt lat="41.9098950" lon="-8.8760530">
        <ele>5.2</ele>
        <time>2021-05-19T05:17:47Z</time>
      </trkpt>
      <trkpt lat="41.9099030" lon="-8.8760540">
        <ele>5.2</ele>
        <time>2021-05-19T05:17:48Z</time>
      </trkpt>
      <trkpt lat="41.9099060" lon="-8.8760450">
        <ele>5.2</ele>
        <time>2021-05-19T05:17:49Z</time>
      </trkpt>
      <trkpt lat="41.9099230" lon="-8.8760460">
        <ele>5.2</ele>
        <time>2021-05-19T05:17:50Z</time>
      </trkpt>
      <trkpt lat="41.9099280" lon="-8.8760480">
        <ele>5.2</ele>
        <time>2021-05-19T05:17:51Z</time>
      </trkpt>
      <trkpt lat="41.9099390" lon="-8.8760470">
        <ele>5.2</ele>
        <time>2021-05-19T05:17:52Z</time>
      </trkpt>
      <trkpt lat="41.9099560" lon="-8.8760440">
        <ele>5.2</ele>
        <time>2021-05-19T05:17:53Z</time>
      </trkpt>
      <trkpt lat="41.9099690" lon="-8.8760410">
        <ele>5.2</ele>
        <time>2021-05-19T05:17:54Z</time>
      </trkpt>
      <trkpt lat="41.9099810" lon="-8.8760420">
        <ele>5.2</ele>
        <time>2021-05-19T05:17:55Z</time>
      </trkpt>
      <trkpt lat="41.9099960" lon="-8.8760380">
        <ele>5.2</ele>
        <time>2021-05-19T05:17:56Z</time>
      </trkpt>
      <trkpt lat="41.9100110" lon="-8.8760400">
        <ele>5.2</ele>
        <time>2021-05-19T05:17:57Z</time>
      </trkpt>
      <trkpt lat="41.9100290" lon="-8.8760500">
        <ele>5.2</ele>
        <time>2021-05-19T05:17:58Z</time>
      </trkpt>
      <trkpt lat="41.9100510" lon="-8.8760510">
        <ele>5.2</ele>
        <time>2021-05-19T05:17:59Z</time>
      </trkpt>
      <trkpt lat="41.9100610" lon="-8.8760530">
        <ele>5.2</ele>
        <time>2021-05-19T05:18:00Z</time>
      </trkpt>
      <trkpt lat="41.9100710" lon="-8.8760560">
        <ele>5.2</ele>
        <time>2021-05-19T05:18:01Z</time>
      </trkpt>
      <trkpt lat="41.9100890" lon="-8.8760640">
        <ele>5.2</ele>
        <time>2021-05-19T05:18:02Z</time>
      </trkpt>
      <trkpt lat="41.9100980" lon="-8.8760680">
        <ele>5.2</ele>
        <time>2021-05-19T05:18:03Z</time>
      </trkpt>
      <trkpt lat="41.9101070" lon="-8.8760720">
        <ele>5.2</ele>
        <time>2021-05-19T05:18:04Z</time>
      </trkpt>
      <trkpt lat="41.9101240" lon="-8.8760820">
        <ele>5.2</ele>
        <time>2021-05-19T05:18:05Z</time>
      </trkpt>
      <trkpt lat="41.9101350" lon="-8.8760830">
        <ele>5.2</ele>
        <time>2021-05-19T05:18:06Z</time>
      </trkpt>
      <trkpt lat="41.9101470" lon="-8.8760900">
        <ele>5.2</ele>
        <time>2021-05-19T05:18:07Z</time>
      </trkpt>
      <trkpt lat="41.9101610" lon="-8.8760970">
        <ele>5.2</ele>
        <time>2021-05-19T05:18:08Z</time>
      </trkpt>
      <trkpt lat="41.9101780" lon="-8.8761060">
        <ele>5.2</ele>
        <time>2021-05-19T05:18:09Z</time>
      </trkpt>
      <trkpt lat="41.9101860" lon="-8.8761110">
        <ele>5.2</ele>
        <time>2021-05-19T05:18:10Z</time>
      </trkpt>
      <trkpt lat="41.9101950" lon="-8.8761170">
        <ele>5.2</ele>
        <time>2021-05-19T05:18:11Z</time>
      </trkpt>
      <trkpt lat="41.9102090" lon="-8.8761280">
        <ele>5.2</ele>
        <time>2021-05-19T05:18:12Z</time>
      </trkpt>
      <trkpt lat="41.9102190" lon="-8.8761340">
        <ele>5.2</ele>
        <time>2021-05-19T05:18:13Z</time>
      </trkpt>
      <trkpt lat="41.9102300" lon="-8.8761410">
        <ele>5.2</ele>
        <time>2021-05-19T05:18:14Z</time>
      </trkpt>
      <trkpt lat="41.9102490" lon="-8.8761490">
        <ele>5.2</ele>
        <time>2021-05-19T05:18:15Z</time>
      </trkpt>
      <trkpt lat="41.9102690" lon="-8.8761560">
        <ele>5.2</ele>
        <time>2021-05-19T05:18:16Z</time>
      </trkpt>
      <trkpt lat="41.9102780" lon="-8.8761600">
        <ele>5.2</ele>
        <time>2021-05-19T05:18:17Z</time>
      </trkpt>
      <trkpt lat="41.9102880" lon="-8.8761630">
        <ele>5.2</ele>
        <time>2021-05-19T05:18:18Z</time>
      </trkpt>
      <trkpt lat="41.9103060" lon="-8.8761790">
        <ele>5.2</ele>
        <time>2021-05-19T05:18:19Z</time>
      </trkpt>
      <trkpt lat="41.9103150" lon="-8.8761860">
        <ele>5.2</ele>
        <time>2021-05-19T05:18:20Z</time>
      </trkpt>
      <trkpt lat="41.9103250" lon="-8.8761940">
        <ele>5.2</ele>
        <time>2021-05-19T05:18:21Z</time>
      </trkpt>
      <trkpt lat="41.9103310" lon="-8.8762060">
        <ele>5.2</ele>
        <time>2021-05-19T05:18:22Z</time>
      </trkpt>
      <trkpt lat="41.9103400" lon="-8.8762140">
        <ele>5.2</ele>
        <time>2021-05-19T05:18:23Z</time>
      </trkpt>
      <trkpt lat="41.9103500" lon="-8.8762270">
        <ele>5.2</ele>
        <time>2021-05-19T05:18:24Z</time>
      </trkpt>
      <trkpt lat="41.9103630" lon="-8.8762380">
        <ele>5.2</ele>
        <time>2021-05-19T05:18:25Z</time>
      </trkpt>
      <trkpt lat="41.9103720" lon="-8.8762520">
        <ele>5.2</ele>
        <time>2021-05-19T05:18:26Z</time>
      </trkpt>
      <trkpt lat="41.9103930" lon="-8.8762680">
        <ele>5.2</ele>
        <time>2021-05-19T05:18:27Z</time>
      </trkpt>
      <trkpt lat="41.9103990" lon="-8.8762760">
        <ele>5.2</ele>
        <time>2021-05-19T05:18:28Z</time>
      </trkpt>
      <trkpt lat="41.9104050" lon="-8.8762840">
        <ele>5.2</ele>
        <time>2021-05-19T05:18:29Z</time>
      </trkpt>
      <trkpt lat="41.9104190" lon="-8.8762980">
        <ele>5.2</ele>
        <time>2021-05-19T05:18:30Z</time>
      </trkpt>
      <trkpt lat="41.9104240" lon="-8.8763220">
        <ele>5.2</ele>
        <time>2021-05-19T05:18:31Z</time>
      </trkpt>
      <trkpt lat="41.9104310" lon="-8.8763380">
        <ele>5.1</ele>
        <time>2021-05-19T05:18:32Z</time>
      </trkpt>
      <trkpt lat="41.9104400" lon="-8.8763530">
        <ele>5.1</ele>
        <time>2021-05-19T05:18:33Z</time>
      </trkpt>
      <trkpt lat="41.9104420" lon="-8.8763800">
        <ele>5.1</ele>
        <time>2021-05-19T05:18:34Z</time>
      </trkpt>
      <trkpt lat="41.9104430" lon="-8.8763930">
        <ele>5.1</ele>
        <time>2021-05-19T05:18:35Z</time>
      </trkpt>
      <trkpt lat="41.9104430" lon="-8.8764070">
        <ele>5.1</ele>
        <time>2021-05-19T05:18:36Z</time>
      </trkpt>
      <trkpt lat="41.9104410" lon="-8.8764370">
        <ele>5.1</ele>
        <time>2021-05-19T05:18:37Z</time>
      </trkpt>
      <trkpt lat="41.9104400" lon="-8.8764510">
        <ele>5.1</ele>
        <time>2021-05-19T05:18:38Z</time>
      </trkpt>
      <trkpt lat="41.9104400" lon="-8.8764660">
        <ele>5.1</ele>
        <time>2021-05-19T05:18:39Z</time>
      </trkpt>
      <trkpt lat="41.9104380" lon="-8.8764840">
        <ele>5.0</ele>
        <time>2021-05-19T05:18:40Z</time>
      </trkpt>
      <trkpt lat="41.9104300" lon="-8.8765020">
        <ele>5.0</ele>
        <time>2021-05-19T05:18:41Z</time>
      </trkpt>
      <trkpt lat="41.9104250" lon="-8.8765210">
        <ele>5.0</ele>
        <time>2021-05-19T05:18:42Z</time>
      </trkpt>
      <trkpt lat="41.9104240" lon="-8.8765400">
        <ele>5.0</ele>
        <time>2021-05-19T05:18:43Z</time>
      </trkpt>
      <trkpt lat="41.9104260" lon="-8.8765630">
        <ele>5.0</ele>
        <time>2021-05-19T05:18:44Z</time>
      </trkpt>
      <trkpt lat="41.9104290" lon="-8.8765840">
        <ele>5.0</ele>
        <time>2021-05-19T05:18:45Z</time>
      </trkpt>
      <trkpt lat="41.9104420" lon="-8.8766070">
        <ele>5.0</ele>
        <time>2021-05-19T05:18:46Z</time>
      </trkpt>
      <trkpt lat="41.9104440" lon="-8.8766270">
        <ele>5.0</ele>
        <time>2021-05-19T05:18:47Z</time>
      </trkpt>
      <trkpt lat="41.9104430" lon="-8.8766470">
        <ele>4.9</ele>
        <time>2021-05-19T05:18:48Z</time>
      </trkpt>
      <trkpt lat="41.9104370" lon="-8.8766650">
        <ele>4.9</ele>
        <time>2021-05-19T05:18:49Z</time>
      </trkpt>
      <trkpt lat="41.9104330" lon="-8.8766810">
        <ele>4.9</ele>
        <time>2021-05-19T05:18:50Z</time>
      </trkpt>
      <trkpt lat="41.9104260" lon="-8.8766860">
        <ele>4.9</ele>
        <time>2021-05-19T05:18:51Z</time>
      </trkpt>
      <trkpt lat="41.9104240" lon="-8.8767090">
        <ele>4.9</ele>
        <time>2021-05-19T05:18:52Z</time>
      </trkpt>
      <trkpt lat="41.9104160" lon="-8.8767350">
        <ele>4.9</ele>
        <time>2021-05-19T05:18:53Z</time>
      </trkpt>
      <trkpt lat="41.9104110" lon="-8.8767500">
        <ele>4.9</ele>
        <time>2021-05-19T05:18:54Z</time>
      </trkpt>
      <trkpt lat="41.9104080" lon="-8.8767710">
        <ele>4.9</ele>
        <time>2021-05-19T05:18:55Z</time>
      </trkpt>
      <trkpt lat="41.9104000" lon="-8.8767890">
        <ele>4.9</ele>
        <time>2021-05-19T05:18:56Z</time>
      </trkpt>
      <trkpt lat="41.9103950" lon="-8.8768090">
        <ele>4.9</ele>
        <time>2021-05-19T05:18:57Z</time>
      </trkpt>
      <trkpt lat="41.9103930" lon="-8.8768290">
        <ele>4.9</ele>
        <time>2021-05-19T05:18:58Z</time>
      </trkpt>
      <trkpt lat="41.9103890" lon="-8.8768440">
        <ele>4.9</ele>
        <time>2021-05-19T05:18:59Z</time>
      </trkpt>
      <trkpt lat="41.9103840" lon="-8.8768640">
        <ele>4.9</ele>
        <time>2021-05-19T05:19:00Z</time>
      </trkpt>
      <trkpt lat="41.9103850" lon="-8.8768850">
        <ele>4.9</ele>
        <time>2021-05-19T05:19:01Z</time>
      </trkpt>
      <trkpt lat="41.9103860" lon="-8.8769070">
        <ele>4.9</ele>
        <time>2021-05-19T05:19:02Z</time>
      </trkpt>
      <trkpt lat="41.9103830" lon="-8.8769240">
        <ele>4.9</ele>
        <time>2021-05-19T05:19:03Z</time>
      </trkpt>
      <trkpt lat="41.9103760" lon="-8.8769420">
        <ele>4.9</ele>
        <time>2021-05-19T05:19:04Z</time>
      </trkpt>
      <trkpt lat="41.9103760" lon="-8.8769620">
        <ele>4.9</ele>
        <time>2021-05-19T05:19:05Z</time>
      </trkpt>
      <trkpt lat="41.9103730" lon="-8.8769800">
        <ele>4.9</ele>
        <time>2021-05-19T05:19:06Z</time>
      </trkpt>
      <trkpt lat="41.9103700" lon="-8.8770000">
        <ele>4.9</ele>
        <time>2021-05-19T05:19:07Z</time>
      </trkpt>
      <trkpt lat="41.9103660" lon="-8.8770190">
        <ele>4.9</ele>
        <time>2021-05-19T05:19:08Z</time>
      </trkpt>
      <trkpt lat="41.9103650" lon="-8.8770370">
        <ele>5.0</ele>
        <time>2021-05-19T05:19:09Z</time>
      </trkpt>
      <trkpt lat="41.9103650" lon="-8.8770460">
        <ele>5.0</ele>
        <time>2021-05-19T05:19:10Z</time>
      </trkpt>
      <trkpt lat="41.9103600" lon="-8.8770590">
        <ele>5.0</ele>
        <time>2021-05-19T05:19:11Z</time>
      </trkpt>
      <trkpt lat="41.9103630" lon="-8.8770850">
        <ele>5.0</ele>
        <time>2021-05-19T05:19:12Z</time>
      </trkpt>
      <trkpt lat="41.9103620" lon="-8.8770990">
        <ele>5.0</ele>
        <time>2021-05-19T05:19:13Z</time>
      </trkpt>
      <trkpt lat="41.9103620" lon="-8.8771120">
        <ele>5.0</ele>
        <time>2021-05-19T05:19:14Z</time>
      </trkpt>
      <trkpt lat="41.9103680" lon="-8.8771310">
        <ele>5.0</ele>
        <time>2021-05-19T05:19:15Z</time>
      </trkpt>
      <trkpt lat="41.9103670" lon="-8.8771510">
        <ele>5.1</ele>
        <time>2021-05-19T05:19:16Z</time>
      </trkpt>
      <trkpt lat="41.9103750" lon="-8.8771810">
        <ele>5.1</ele>
        <time>2021-05-19T05:19:17Z</time>
      </trkpt>
      <trkpt lat="41.9103770" lon="-8.8771780">
        <ele>5.1</ele>
        <time>2021-05-19T05:19:18Z</time>
      </trkpt>
      <trkpt lat="41.9103840" lon="-8.8771920">
        <ele>5.1</ele>
        <time>2021-05-19T05:19:19Z</time>
      </trkpt>
      <trkpt lat="41.9103880" lon="-8.8772080">
        <ele>5.1</ele>
        <time>2021-05-19T05:19:20Z</time>
      </trkpt>
      <trkpt lat="41.9103910" lon="-8.8772320">
        <ele>5.1</ele>
        <time>2021-05-19T05:19:21Z</time>
      </trkpt>
      <trkpt lat="41.9103970" lon="-8.8772480">
        <ele>5.2</ele>
        <time>2021-05-19T05:19:22Z</time>
      </trkpt>
      <trkpt lat="41.9104010" lon="-8.8772710">
        <ele>5.2</ele>
        <time>2021-05-19T05:19:23Z</time>
      </trkpt>
      <trkpt lat="41.9104030" lon="-8.8772920">
        <ele>5.2</ele>
        <time>2021-05-19T05:19:24Z</time>
      </trkpt>
      <trkpt lat="41.9104010" lon="-8.8773090">
        <ele>5.2</ele>
        <time>2021-05-19T05:19:25Z</time>
      </trkpt>
      <trkpt lat="41.9104030" lon="-8.8773230">
        <ele>5.2</ele>
        <time>2021-05-19T05:19:26Z</time>
      </trkpt>
      <trkpt lat="41.9104150" lon="-8.8773420">
        <ele>5.3</ele>
        <time>2021-05-19T05:19:27Z</time>
      </trkpt>
      <trkpt lat="41.9104250" lon="-8.8773530">
        <ele>5.3</ele>
        <time>2021-05-19T05:19:28Z</time>
      </trkpt>
      <trkpt lat="41.9104340" lon="-8.8773770">
        <ele>5.3</ele>
        <time>2021-05-19T05:19:29Z</time>
      </trkpt>
      <trkpt lat="41.9104370" lon="-8.8773800">
        <ele>5.3</ele>
        <time>2021-05-19T05:19:30Z</time>
      </trkpt>
      <trkpt lat="41.9104510" lon="-8.8773910">
        <ele>5.3</ele>
        <time>2021-05-19T05:19:31Z</time>
      </trkpt>
      <trkpt lat="41.9104550" lon="-8.8774020">
        <ele>5.4</ele>
        <time>2021-05-19T05:19:32Z</time>
      </trkpt>
      <trkpt lat="41.9104620" lon="-8.8774150">
        <ele>5.4</ele>
        <time>2021-05-19T05:19:33Z</time>
      </trkpt>
      <trkpt lat="41.9104730" lon="-8.8774310">
        <ele>5.4</ele>
        <time>2021-05-19T05:19:34Z</time>
      </trkpt>
      <trkpt lat="41.9104830" lon="-8.8774440">
        <ele>5.4</ele>
        <time>2021-05-19T05:19:35Z</time>
      </trkpt>
      <trkpt lat="41.9105030" lon="-8.8774560">
        <ele>5.5</ele>
        <time>2021-05-19T05:19:36Z</time>
      </trkpt>
      <trkpt lat="41.9105080" lon="-8.8774550">
        <ele>5.5</ele>
        <time>2021-05-19T05:19:37Z</time>
      </trkpt>
      <trkpt lat="41.9105200" lon="-8.8774630">
        <ele>5.5</ele>
        <time>2021-05-19T05:19:38Z</time>
      </trkpt>
      <trkpt lat="41.9105300" lon="-8.8774740">
        <ele>5.5</ele>
        <time>2021-05-19T05:19:39Z</time>
      </trkpt>
      <trkpt lat="41.9105420" lon="-8.8774830">
        <ele>5.5</ele>
        <time>2021-05-19T05:19:40Z</time>
      </trkpt>
      <trkpt lat="41.9105560" lon="-8.8774890">
        <ele>5.6</ele>
        <time>2021-05-19T05:19:41Z</time>
      </trkpt>
      <trkpt lat="41.9105700" lon="-8.8775110">
        <ele>5.6</ele>
        <time>2021-05-19T05:19:42Z</time>
      </trkpt>
      <trkpt lat="41.9105780" lon="-8.8775180">
        <ele>5.6</ele>
        <time>2021-05-19T05:19:43Z</time>
      </trkpt>
      <trkpt lat="41.9105870" lon="-8.8775240">
        <ele>5.6</ele>
        <time>2021-05-19T05:19:44Z</time>
      </trkpt>
      <trkpt lat="41.9105930" lon="-8.8775560">
        <ele>5.7</ele>
        <time>2021-05-19T05:19:45Z</time>
      </trkpt>
      <trkpt lat="41.9105930" lon="-8.8775690">
        <ele>5.7</ele>
        <time>2021-05-19T05:19:46Z</time>
      </trkpt>
      <trkpt lat="41.9105940" lon="-8.8775830">
        <ele>5.7</ele>
        <time>2021-05-19T05:19:47Z</time>
      </trkpt>
      <trkpt lat="41.9106030" lon="-8.8776150">
        <ele>5.8</ele>
        <time>2021-05-19T05:19:48Z</time>
      </trkpt>
      <trkpt lat="41.9106080" lon="-8.8776300">
        <ele>5.8</ele>
        <time>2021-05-19T05:19:49Z</time>
      </trkpt>
      <trkpt lat="41.9106150" lon="-8.8776270">
        <ele>5.8</ele>
        <time>2021-05-19T05:19:50Z</time>
      </trkpt>
      <trkpt lat="41.9106240" lon="-8.8776400">
        <ele>5.9</ele>
        <time>2021-05-19T05:19:51Z</time>
      </trkpt>
      <trkpt lat="41.9106320" lon="-8.8776480">
        <ele>5.9</ele>
        <time>2021-05-19T05:19:52Z</time>
      </trkpt>
      <trkpt lat="41.9106430" lon="-8.8776620">
        <ele>5.9</ele>
        <time>2021-05-19T05:19:53Z</time>
      </trkpt>
      <trkpt lat="41.9106540" lon="-8.8776710">
        <ele>6.0</ele>
        <time>2021-05-19T05:19:54Z</time>
      </trkpt>
      <trkpt lat="41.9106700" lon="-8.8776870">
        <ele>6.0</ele>
        <time>2021-05-19T05:19:55Z</time>
      </trkpt>
      <trkpt lat="41.9106740" lon="-8.8776870">
        <ele>6.0</ele>
        <time>2021-05-19T05:19:56Z</time>
      </trkpt>
      <trkpt lat="41.9106830" lon="-8.8776970">
        <ele>6.0</ele>
        <time>2021-05-19T05:19:57Z</time>
      </trkpt>
      <trkpt lat="41.9106930" lon="-8.8777120">
        <ele>6.1</ele>
        <time>2021-05-19T05:19:58Z</time>
      </trkpt>
      <trkpt lat="41.9107040" lon="-8.8777290">
        <ele>6.1</ele>
        <time>2021-05-19T05:19:59Z</time>
      </trkpt>
      <trkpt lat="41.9107090" lon="-8.8777450">
        <ele>6.2</ele>
        <time>2021-05-19T05:20:00Z</time>
      </trkpt>
      <trkpt lat="41.9107180" lon="-8.8777620">
        <ele>6.2</ele>
        <time>2021-05-19T05:20:01Z</time>
      </trkpt>
      <trkpt lat="41.9107290" lon="-8.8777720">
        <ele>6.2</ele>
        <time>2021-05-19T05:20:02Z</time>
      </trkpt>
      <trkpt lat="41.9107330" lon="-8.8777870">
        <ele>6.3</ele>
        <time>2021-05-19T05:20:03Z</time>
      </trkpt>
      <trkpt lat="41.9107390" lon="-8.8778010">
        <ele>6.3</ele>
        <time>2021-05-19T05:20:04Z</time>
      </trkpt>
      <trkpt lat="41.9107390" lon="-8.8778180">
        <ele>6.4</ele>
        <time>2021-05-19T05:20:05Z</time>
      </trkpt>
      <trkpt lat="41.9107440" lon="-8.8778300">
        <ele>6.4</ele>
        <time>2021-05-19T05:20:06Z</time>
      </trkpt>
      <trkpt lat="41.9107490" lon="-8.8778420">
        <ele>6.4</ele>
        <time>2021-05-19T05:20:07Z</time>
      </trkpt>
      <trkpt lat="41.9107540" lon="-8.8778540">
        <ele>6.4</ele>
        <time>2021-05-19T05:20:08Z</time>
      </trkpt>
      <trkpt lat="41.9107640" lon="-8.8778830">
        <ele>6.5</ele>
        <time>2021-05-19T05:20:09Z</time>
      </trkpt>
      <trkpt lat="41.9107680" lon="-8.8778930">
        <ele>6.5</ele>
        <time>2021-05-19T05:20:10Z</time>
      </trkpt>
      <trkpt lat="41.9107730" lon="-8.8779040">
        <ele>6.6</ele>
        <time>2021-05-19T05:20:11Z</time>
      </trkpt>
      <trkpt lat="41.9107760" lon="-8.8779220">
        <ele>6.6</ele>
        <time>2021-05-19T05:20:12Z</time>
      </trkpt>
      <trkpt lat="41.9107770" lon="-8.8779290">
        <ele>6.6</ele>
        <time>2021-05-19T05:20:13Z</time>
      </trkpt>
      <trkpt lat="41.9107900" lon="-8.8779460">
        <ele>6.7</ele>
        <time>2021-05-19T05:20:14Z</time>
      </trkpt>
      <trkpt lat="41.9107940" lon="-8.8779630">
        <ele>6.7</ele>
        <time>2021-05-19T05:20:15Z</time>
      </trkpt>
      <trkpt lat="41.9108110" lon="-8.8779840">
        <ele>6.8</ele>
        <time>2021-05-19T05:20:16Z</time>
      </trkpt>
      <trkpt lat="41.9108080" lon="-8.8779890">
        <ele>6.8</ele>
        <time>2021-05-19T05:20:17Z</time>
      </trkpt>
      <trkpt lat="41.9108140" lon="-8.8780030">
        <ele>6.8</ele>
        <time>2021-05-19T05:20:18Z</time>
      </trkpt>
      <trkpt lat="41.9108230" lon="-8.8780260">
        <ele>6.9</ele>
        <time>2021-05-19T05:20:19Z</time>
      </trkpt>
      <trkpt lat="41.9108260" lon="-8.8780460">
        <ele>6.9</ele>
        <time>2021-05-19T05:20:20Z</time>
      </trkpt>
      <trkpt lat="41.9108370" lon="-8.8780610">
        <ele>7.0</ele>
        <time>2021-05-19T05:20:21Z</time>
      </trkpt>
      <trkpt lat="41.9108500" lon="-8.8780890">
        <ele>7.0</ele>
        <time>2021-05-19T05:20:22Z</time>
      </trkpt>
      <trkpt lat="41.9108560" lon="-8.8780980">
        <ele>7.0</ele>
        <time>2021-05-19T05:20:23Z</time>
      </trkpt>
      <trkpt lat="41.9108610" lon="-8.8781070">
        <ele>7.1</ele>
        <time>2021-05-19T05:20:24Z</time>
      </trkpt>
      <trkpt lat="41.9108610" lon="-8.8781200">
        <ele>7.1</ele>
        <time>2021-05-19T05:20:25Z</time>
      </trkpt>
      <trkpt lat="41.9108720" lon="-8.8781300">
        <ele>7.1</ele>
        <time>2021-05-19T05:20:26Z</time>
      </trkpt>
      <trkpt lat="41.9108850" lon="-8.8781430">
        <ele>7.1</ele>
        <time>2021-05-19T05:20:27Z</time>
      </trkpt>
      <trkpt lat="41.9108950" lon="-8.8781600">
        <ele>7.2</ele>
        <time>2021-05-19T05:20:28Z</time>
      </trkpt>
      <trkpt lat="41.9108960" lon="-8.8781720">
        <ele>7.2</ele>
        <time>2021-05-19T05:20:29Z</time>
      </trkpt>
      <trkpt lat="41.9109030" lon="-8.8781840">
        <ele>7.2</ele>
        <time>2021-05-19T05:20:30Z</time>
      </trkpt>
      <trkpt lat="41.9109150" lon="-8.8781970">
        <ele>7.2</ele>
        <time>2021-05-19T05:20:31Z</time>
      </trkpt>
      <trkpt lat="41.9109260" lon="-8.8782210">
        <ele>7.3</ele>
        <time>2021-05-19T05:20:32Z</time>
      </trkpt>
      <trkpt lat="41.9109370" lon="-8.8782360">
        <ele>7.3</ele>
        <time>2021-05-19T05:20:33Z</time>
      </trkpt>
      <trkpt lat="41.9109450" lon="-8.8782470">
        <ele>7.3</ele>
        <time>2021-05-19T05:20:34Z</time>
      </trkpt>
      <trkpt lat="41.9109520" lon="-8.8782580">
        <ele>7.3</ele>
        <time>2021-05-19T05:20:35Z</time>
      </trkpt>
      <trkpt lat="41.9109670" lon="-8.8782710">
        <ele>7.3</ele>
        <time>2021-05-19T05:20:36Z</time>
      </trkpt>
      <trkpt lat="41.9109760" lon="-8.8782800">
        <ele>7.3</ele>
        <time>2021-05-19T05:20:37Z</time>
      </trkpt>
      <trkpt lat="41.9109840" lon="-8.8782880">
        <ele>7.3</ele>
        <time>2021-05-19T05:20:38Z</time>
      </trkpt>
      <trkpt lat="41.9109990" lon="-8.8783010">
        <ele>7.3</ele>
        <time>2021-05-19T05:20:39Z</time>
      </trkpt>
      <trkpt lat="41.9110070" lon="-8.8783130">
        <ele>7.4</ele>
        <time>2021-05-19T05:20:40Z</time>
      </trkpt>
      <trkpt lat="41.9110320" lon="-8.8783300">
        <ele>7.4</ele>
        <time>2021-05-19T05:20:41Z</time>
      </trkpt>
      <trkpt lat="41.9110390" lon="-8.8783360">
        <ele>7.4</ele>
        <time>2021-05-19T05:20:42Z</time>
      </trkpt>
      <trkpt lat="41.9110450" lon="-8.8783410">
        <ele>7.4</ele>
        <time>2021-05-19T05:20:43Z</time>
      </trkpt>
      <trkpt lat="41.9110530" lon="-8.8783530">
        <ele>7.4</ele>
        <time>2021-05-19T05:20:44Z</time>
      </trkpt>
      <trkpt lat="41.9110730" lon="-8.8783640">
        <ele>7.4</ele>
        <time>2021-05-19T05:20:45Z</time>
      </trkpt>
      <trkpt lat="41.9110850" lon="-8.8783800">
        <ele>7.4</ele>
        <time>2021-05-19T05:20:46Z</time>
      </trkpt>
      <trkpt lat="41.9110940" lon="-8.8783860">
        <ele>7.4</ele>
        <time>2021-05-19T05:20:47Z</time>
      </trkpt>
      <trkpt lat="41.9111040" lon="-8.8783920">
        <ele>7.4</ele>
        <time>2021-05-19T05:20:48Z</time>
      </trkpt>
      <trkpt lat="41.9111090" lon="-8.8783900">
        <ele>7.4</ele>
        <time>2021-05-19T05:20:49Z</time>
      </trkpt>
      <trkpt lat="41.9111230" lon="-8.8784010">
        <ele>7.4</ele>
        <time>2021-05-19T05:20:50Z</time>
      </trkpt>
      <trkpt lat="41.9111340" lon="-8.8784060">
        <ele>7.4</ele>
        <time>2021-05-19T05:20:51Z</time>
      </trkpt>
      <trkpt lat="41.9111450" lon="-8.8784110">
        <ele>7.4</ele>
        <time>2021-05-19T05:20:52Z</time>
      </trkpt>
      <trkpt lat="41.9111580" lon="-8.8784150">
        <ele>7.4</ele>
        <time>2021-05-19T05:20:53Z</time>
      </trkpt>
      <trkpt lat="41.9111660" lon="-8.8784190">
        <ele>7.4</ele>
        <time>2021-05-19T05:20:54Z</time>
      </trkpt>
      <trkpt lat="41.9111800" lon="-8.8784290">
        <ele>7.4</ele>
        <time>2021-05-19T05:20:55Z</time>
      </trkpt>
      <trkpt lat="41.9111930" lon="-8.8784320">
        <ele>7.4</ele>
        <time>2021-05-19T05:20:56Z</time>
      </trkpt>
      <trkpt lat="41.9112160" lon="-8.8784360">
        <ele>7.4</ele>
        <time>2021-05-19T05:20:57Z</time>
      </trkpt>
      <trkpt lat="41.9112260" lon="-8.8784360">
        <ele>7.4</ele>
        <time>2021-05-19T05:20:58Z</time>
      </trkpt>
      <trkpt lat="41.9112350" lon="-8.8784360">
        <ele>7.5</ele>
        <time>2021-05-19T05:20:59Z</time>
      </trkpt>
      <trkpt lat="41.9112460" lon="-8.8784430">
        <ele>7.5</ele>
        <time>2021-05-19T05:21:00Z</time>
      </trkpt>
      <trkpt lat="41.9112580" lon="-8.8784430">
        <ele>7.5</ele>
        <time>2021-05-19T05:21:01Z</time>
      </trkpt>
      <trkpt lat="41.9112700" lon="-8.8784470">
        <ele>7.5</ele>
        <time>2021-05-19T05:21:02Z</time>
      </trkpt>
      <trkpt lat="41.9112930" lon="-8.8784460">
        <ele>7.5</ele>
        <time>2021-05-19T05:21:03Z</time>
      </trkpt>
      <trkpt lat="41.9113040" lon="-8.8784490">
        <ele>7.5</ele>
        <time>2021-05-19T05:21:04Z</time>
      </trkpt>
      <trkpt lat="41.9113160" lon="-8.8784520">
        <ele>7.5</ele>
        <time>2021-05-19T05:21:05Z</time>
      </trkpt>
      <trkpt lat="41.9113300" lon="-8.8784510">
        <ele>7.5</ele>
        <time>2021-05-19T05:21:06Z</time>
      </trkpt>
      <trkpt lat="41.9113430" lon="-8.8784460">
        <ele>7.5</ele>
        <time>2021-05-19T05:21:07Z</time>
      </trkpt>
      <trkpt lat="41.9113600" lon="-8.8784480">
        <ele>7.5</ele>
        <time>2021-05-19T05:21:08Z</time>
      </trkpt>
      <trkpt lat="41.9113710" lon="-8.8784510">
        <ele>7.5</ele>
        <time>2021-05-19T05:21:09Z</time>
      </trkpt>
      <trkpt lat="41.9113970" lon="-8.8784520">
        <ele>7.6</ele>
        <time>2021-05-19T05:21:10Z</time>
      </trkpt>
      <trkpt lat="41.9114060" lon="-8.8784520">
        <ele>7.6</ele>
        <time>2021-05-19T05:21:11Z</time>
      </trkpt>
      <trkpt lat="41.9114160" lon="-8.8784520">
        <ele>7.6</ele>
        <time>2021-05-19T05:21:12Z</time>
      </trkpt>
      <trkpt lat="41.9114380" lon="-8.8784540">
        <ele>7.6</ele>
        <time>2021-05-19T05:21:13Z</time>
      </trkpt>
      <trkpt lat="41.9114430" lon="-8.8784580">
        <ele>7.6</ele>
        <time>2021-05-19T05:21:14Z</time>
      </trkpt>
      <trkpt lat="41.9114630" lon="-8.8784580">
        <ele>7.7</ele>
        <time>2021-05-19T05:21:15Z</time>
      </trkpt>
      <trkpt lat="41.9114710" lon="-8.8784580">
        <ele>7.7</ele>
        <time>2021-05-19T05:21:16Z</time>
      </trkpt>
      <trkpt lat="41.9114800" lon="-8.8784570">
        <ele>7.7</ele>
        <time>2021-05-19T05:21:17Z</time>
      </trkpt>
      <trkpt lat="41.9115010" lon="-8.8784570">
        <ele>7.7</ele>
        <time>2021-05-19T05:21:18Z</time>
      </trkpt>
      <trkpt lat="41.9115110" lon="-8.8784580">
        <ele>7.8</ele>
        <time>2021-05-19T05:21:19Z</time>
      </trkpt>
      <trkpt lat="41.9115210" lon="-8.8784600">
        <ele>7.8</ele>
        <time>2021-05-19T05:21:20Z</time>
      </trkpt>
      <trkpt lat="41.9115290" lon="-8.8784600">
        <ele>7.9</ele>
        <time>2021-05-19T05:21:21Z</time>
      </trkpt>
      <trkpt lat="41.9115410" lon="-8.8784610">
        <ele>7.9</ele>
        <time>2021-05-19T05:21:22Z</time>
      </trkpt>
      <trkpt lat="41.9115440" lon="-8.8784670">
        <ele>7.9</ele>
        <time>2021-05-19T05:21:23Z</time>
      </trkpt>
      <trkpt lat="41.9115560" lon="-8.8784710">
        <ele>7.9</ele>
        <time>2021-05-19T05:21:24Z</time>
      </trkpt>
      <trkpt lat="41.9115820" lon="-8.8784880">
        <ele>7.9</ele>
        <time>2021-05-19T05:21:25Z</time>
      </trkpt>
      <trkpt lat="41.9115880" lon="-8.8784930">
        <ele>7.9</ele>
        <time>2021-05-19T05:21:26Z</time>
      </trkpt>
      <trkpt lat="41.9115950" lon="-8.8784980">
        <ele>7.9</ele>
        <time>2021-05-19T05:21:27Z</time>
      </trkpt>
      <trkpt lat="41.9115960" lon="-8.8785070">
        <ele>7.9</ele>
        <time>2021-05-19T05:21:28Z</time>
      </trkpt>
      <trkpt lat="41.9116130" lon="-8.8785190">
        <ele>7.9</ele>
        <time>2021-05-19T05:21:29Z</time>
      </trkpt>
      <trkpt lat="41.9116170" lon="-8.8785270">
        <ele>7.9</ele>
        <time>2021-05-19T05:21:30Z</time>
      </trkpt>
      <trkpt lat="41.9116300" lon="-8.8785400">
        <ele>7.9</ele>
        <time>2021-05-19T05:21:31Z</time>
      </trkpt>
      <trkpt lat="41.9116380" lon="-8.8785520">
        <ele>7.9</ele>
        <time>2021-05-19T05:21:32Z</time>
      </trkpt>
      <trkpt lat="41.9116440" lon="-8.8785630">
        <ele>7.9</ele>
        <time>2021-05-19T05:21:33Z</time>
      </trkpt>
      <trkpt lat="41.9116450" lon="-8.8785710">
        <ele>7.9</ele>
        <time>2021-05-19T05:21:34Z</time>
      </trkpt>
      <trkpt lat="41.9116470" lon="-8.8785920">
        <ele>7.9</ele>
        <time>2021-05-19T05:21:35Z</time>
      </trkpt>
      <trkpt lat="41.9116600" lon="-8.8786130">
        <ele>7.9</ele>
        <time>2021-05-19T05:21:36Z</time>
      </trkpt>
      <trkpt lat="41.9116650" lon="-8.8786320">
        <ele>7.9</ele>
        <time>2021-05-19T05:21:37Z</time>
      </trkpt>
      <trkpt lat="41.9116700" lon="-8.8786530">
        <ele>7.9</ele>
        <time>2021-05-19T05:21:38Z</time>
      </trkpt>
      <trkpt lat="41.9116820" lon="-8.8786680">
        <ele>7.9</ele>
        <time>2021-05-19T05:21:39Z</time>
      </trkpt>
      <trkpt lat="41.9116840" lon="-8.8786890">
        <ele>7.8</ele>
        <time>2021-05-19T05:21:40Z</time>
      </trkpt>
      <trkpt lat="41.9116880" lon="-8.8787070">
        <ele>7.8</ele>
        <time>2021-05-19T05:21:41Z</time>
      </trkpt>
      <trkpt lat="41.9116890" lon="-8.8787200">
        <ele>7.8</ele>
        <time>2021-05-19T05:21:42Z</time>
      </trkpt>
      <trkpt lat="41.9116990" lon="-8.8787410">
        <ele>7.8</ele>
        <time>2021-05-19T05:21:43Z</time>
      </trkpt>
      <trkpt lat="41.9116970" lon="-8.8787530">
        <ele>7.8</ele>
        <time>2021-05-19T05:21:44Z</time>
      </trkpt>
      <trkpt lat="41.9116980" lon="-8.8787750">
        <ele>7.7</ele>
        <time>2021-05-19T05:21:45Z</time>
      </trkpt>
      <trkpt lat="41.9116960" lon="-8.8787790">
        <ele>7.7</ele>
        <time>2021-05-19T05:21:46Z</time>
      </trkpt>
      <trkpt lat="41.9116980" lon="-8.8788180">
        <ele>7.7</ele>
        <time>2021-05-19T05:21:47Z</time>
      </trkpt>
      <trkpt lat="41.9116970" lon="-8.8788290">
        <ele>7.7</ele>
        <time>2021-05-19T05:21:48Z</time>
      </trkpt>
      <trkpt lat="41.9116970" lon="-8.8788400">
        <ele>7.7</ele>
        <time>2021-05-19T05:21:49Z</time>
      </trkpt>
      <trkpt lat="41.9117010" lon="-8.8788620">
        <ele>7.6</ele>
        <time>2021-05-19T05:21:50Z</time>
      </trkpt>
      <trkpt lat="41.9117030" lon="-8.8788840">
        <ele>7.6</ele>
        <time>2021-05-19T05:21:51Z</time>
      </trkpt>
      <trkpt lat="41.9117160" lon="-8.8789030">
        <ele>7.6</ele>
        <time>2021-05-19T05:21:52Z</time>
      </trkpt>
      <trkpt lat="41.9117240" lon="-8.8789170">
        <ele>7.6</ele>
        <time>2021-05-19T05:21:53Z</time>
      </trkpt>
      <trkpt lat="41.9117340" lon="-8.8789370">
        <ele>7.6</ele>
        <time>2021-05-19T05:21:54Z</time>
      </trkpt>
      <trkpt lat="41.9117380" lon="-8.8789500">
        <ele>7.5</ele>
        <time>2021-05-19T05:21:55Z</time>
      </trkpt>
      <trkpt lat="41.9117420" lon="-8.8789620">
        <ele>7.5</ele>
        <time>2021-05-19T05:21:56Z</time>
      </trkpt>
      <trkpt lat="41.9117500" lon="-8.8789800">
        <ele>7.5</ele>
        <time>2021-05-19T05:21:57Z</time>
      </trkpt>
      <trkpt lat="41.9117660" lon="-8.8789900">
        <ele>7.5</ele>
        <time>2021-05-19T05:21:58Z</time>
      </trkpt>
      <trkpt lat="41.9117870" lon="-8.8790080">
        <ele>7.4</ele>
        <time>2021-05-19T05:21:59Z</time>
      </trkpt>
      <trkpt lat="41.9117940" lon="-8.8790150">
        <ele>7.4</ele>
        <time>2021-05-19T05:22:00Z</time>
      </trkpt>
      <trkpt lat="41.9118020" lon="-8.8790210">
        <ele>7.4</ele>
        <time>2021-05-19T05:22:01Z</time>
      </trkpt>
      <trkpt lat="41.9118150" lon="-8.8790400">
        <ele>7.3</ele>
        <time>2021-05-19T05:22:02Z</time>
      </trkpt>
      <trkpt lat="41.9118190" lon="-8.8790470">
        <ele>7.3</ele>
        <time>2021-05-19T05:22:03Z</time>
      </trkpt>
      <trkpt lat="41.9118220" lon="-8.8790540">
        <ele>7.3</ele>
        <time>2021-05-19T05:22:04Z</time>
      </trkpt>
      <trkpt lat="41.9118250" lon="-8.8790610">
        <ele>7.3</ele>
        <time>2021-05-19T05:22:05Z</time>
      </trkpt>
      <trkpt lat="41.9118360" lon="-8.8790770">
        <ele>7.3</ele>
        <time>2021-05-19T05:22:06Z</time>
      </trkpt>
      <trkpt lat="41.9118470" lon="-8.8790930">
        <ele>7.3</ele>
        <time>2021-05-19T05:22:07Z</time>
      </trkpt>
      <trkpt lat="41.9118540" lon="-8.8790970">
        <ele>7.2</ele>
        <time>2021-05-19T05:22:08Z</time>
      </trkpt>
      <trkpt lat="41.9118620" lon="-8.8791100">
        <ele>7.2</ele>
        <time>2021-05-19T05:22:09Z</time>
      </trkpt>
      <trkpt lat="41.9118700" lon="-8.8791230">
        <ele>7.2</ele>
        <time>2021-05-19T05:22:10Z</time>
      </trkpt>
      <trkpt lat="41.9118780" lon="-8.8791360">
        <ele>7.2</ele>
        <time>2021-05-19T05:22:11Z</time>
      </trkpt>
      <trkpt lat="41.9118820" lon="-8.8791550">
        <ele>7.2</ele>
        <time>2021-05-19T05:22:12Z</time>
      </trkpt>
      <trkpt lat="41.9118880" lon="-8.8791770">
        <ele>7.2</ele>
        <time>2021-05-19T05:22:13Z</time>
      </trkpt>
      <trkpt lat="41.9118870" lon="-8.8792000">
        <ele>7.1</ele>
        <time>2021-05-19T05:22:14Z</time>
      </trkpt>
      <trkpt lat="41.9118880" lon="-8.8792190">
        <ele>7.1</ele>
        <time>2021-05-19T05:22:15Z</time>
      </trkpt>
      <trkpt lat="41.9118910" lon="-8.8792390">
        <ele>7.2</ele>
        <time>2021-05-19T05:22:16Z</time>
      </trkpt>
      <trkpt lat="41.9118930" lon="-8.8792590">
        <ele>7.2</ele>
        <time>2021-05-19T05:22:17Z</time>
      </trkpt>
      <trkpt lat="41.9119070" lon="-8.8792700">
        <ele>7.2</ele>
        <time>2021-05-19T05:22:18Z</time>
      </trkpt>
      <trkpt lat="41.9119150" lon="-8.8792870">
        <ele>7.2</ele>
        <time>2021-05-19T05:22:19Z</time>
      </trkpt>
      <trkpt lat="41.9119220" lon="-8.8793060">
        <ele>7.2</ele>
        <time>2021-05-19T05:22:20Z</time>
      </trkpt>
      <trkpt lat="41.9119290" lon="-8.8793200">
        <ele>7.3</ele>
        <time>2021-05-19T05:22:21Z</time>
      </trkpt>
      <trkpt lat="41.9119340" lon="-8.8793470">
        <ele>7.3</ele>
        <time>2021-05-19T05:22:22Z</time>
      </trkpt>
      <trkpt lat="41.9119340" lon="-8.8793580">
        <ele>7.4</ele>
        <time>2021-05-19T05:22:23Z</time>
      </trkpt>
      <trkpt lat="41.9119330" lon="-8.8793690">
        <ele>7.4</ele>
        <time>2021-05-19T05:22:24Z</time>
      </trkpt>
      <trkpt lat="41.9119330" lon="-8.8793790">
        <ele>7.4</ele>
        <time>2021-05-19T05:22:25Z</time>
      </trkpt>
      <trkpt lat="41.9119370" lon="-8.8793810">
        <ele>7.4</ele>
        <time>2021-05-19T05:22:26Z</time>
      </trkpt>
      <trkpt lat="41.9119330" lon="-8.8794050">
        <ele>7.5</ele>
        <time>2021-05-19T05:22:27Z</time>
      </trkpt>
      <trkpt lat="41.9119360" lon="-8.8794140">
        <ele>7.5</ele>
        <time>2021-05-19T05:22:28Z</time>
      </trkpt>
      <trkpt lat="41.9119420" lon="-8.8794220">
        <ele>7.6</ele>
        <time>2021-05-19T05:22:29Z</time>
      </trkpt>
      <trkpt lat="41.9119440" lon="-8.8794330">
        <ele>7.6</ele>
        <time>2021-05-19T05:22:30Z</time>
      </trkpt>
      <trkpt lat="41.9119450" lon="-8.8794450">
        <ele>7.6</ele>
        <time>2021-05-19T05:22:31Z</time>
      </trkpt>
      <trkpt lat="41.9119430" lon="-8.8794550">
        <ele>7.7</ele>
        <time>2021-05-19T05:22:32Z</time>
      </trkpt>
      <trkpt lat="41.9119450" lon="-8.8794650">
        <ele>7.7</ele>
        <time>2021-05-19T05:22:33Z</time>
      </trkpt>
      <trkpt lat="41.9119480" lon="-8.8794740">
        <ele>7.7</ele>
        <time>2021-05-19T05:22:34Z</time>
      </trkpt>
      <trkpt lat="41.9119500" lon="-8.8794840">
        <ele>7.8</ele>
        <time>2021-05-19T05:22:35Z</time>
      </trkpt>
      <trkpt lat="41.9119520" lon="-8.8794940">
        <ele>7.8</ele>
        <time>2021-05-19T05:22:36Z</time>
      </trkpt>
      <trkpt lat="41.9119620" lon="-8.8795120">
        <ele>7.8</ele>
        <time>2021-05-19T05:22:37Z</time>
      </trkpt>
      <trkpt lat="41.9119680" lon="-8.8795220">
        <ele>7.9</ele>
        <time>2021-05-19T05:22:38Z</time>
      </trkpt>
      <trkpt lat="41.9119730" lon="-8.8795330">
        <ele>7.9</ele>
        <time>2021-05-19T05:22:39Z</time>
      </trkpt>
      <trkpt lat="41.9119720" lon="-8.8795570">
        <ele>7.9</ele>
        <time>2021-05-19T05:22:40Z</time>
      </trkpt>
      <trkpt lat="41.9119790" lon="-8.8795650">
        <ele>7.9</ele>
        <time>2021-05-19T05:22:41Z</time>
      </trkpt>
      <trkpt lat="41.9119790" lon="-8.8795820">
        <ele>8.0</ele>
        <time>2021-05-19T05:22:42Z</time>
      </trkpt>
      <trkpt lat="41.9119730" lon="-8.8795930">
        <ele>8.0</ele>
        <time>2021-05-19T05:22:43Z</time>
      </trkpt>
      <trkpt lat="41.9119760" lon="-8.8796010">
        <ele>8.0</ele>
        <time>2021-05-19T05:22:44Z</time>
      </trkpt>
      <trkpt lat="41.9119830" lon="-8.8796000">
        <ele>8.0</ele>
        <time>2021-05-19T05:22:45Z</time>
      </trkpt>
      <trkpt lat="41.9119920" lon="-8.8796180">
        <ele>8.0</ele>
        <time>2021-05-19T05:22:46Z</time>
      </trkpt>
      <trkpt lat="41.9119960" lon="-8.8796180">
        <ele>8.0</ele>
        <time>2021-05-19T05:22:47Z</time>
      </trkpt>
      <trkpt lat="41.9120050" lon="-8.8796210">
        <ele>8.0</ele>
        <time>2021-05-19T05:22:48Z</time>
      </trkpt>
      <trkpt lat="41.9120220" lon="-8.8796330">
        <ele>8.0</ele>
        <time>2021-05-19T05:22:49Z</time>
      </trkpt>
      <trkpt lat="41.9120190" lon="-8.8796350">
        <ele>8.0</ele>
        <time>2021-05-19T05:22:50Z</time>
      </trkpt>
      <trkpt lat="41.9120320" lon="-8.8796470">
        <ele>8.0</ele>
        <time>2021-05-19T05:22:51Z</time>
      </trkpt>
      <trkpt lat="41.9120450" lon="-8.8796580">
        <ele>8.0</ele>
        <time>2021-05-19T05:22:52Z</time>
      </trkpt>
      <trkpt lat="41.9120550" lon="-8.8796700">
        <ele>8.0</ele>
        <time>2021-05-19T05:22:53Z</time>
      </trkpt>
      <trkpt lat="41.9120710" lon="-8.8796810">
        <ele>8.0</ele>
        <time>2021-05-19T05:22:54Z</time>
      </trkpt>
      <trkpt lat="41.9120760" lon="-8.8796870">
        <ele>8.0</ele>
        <time>2021-05-19T05:22:55Z</time>
      </trkpt>
      <trkpt lat="41.9120940" lon="-8.8797030">
        <ele>7.9</ele>
        <time>2021-05-19T05:22:56Z</time>
      </trkpt>
      <trkpt lat="41.9121010" lon="-8.8797210">
        <ele>7.9</ele>
        <time>2021-05-19T05:22:57Z</time>
      </trkpt>
      <trkpt lat="41.9121160" lon="-8.8797320">
        <ele>7.9</ele>
        <time>2021-05-19T05:22:58Z</time>
      </trkpt>
      <trkpt lat="41.9121300" lon="-8.8797530">
        <ele>7.9</ele>
        <time>2021-05-19T05:22:59Z</time>
      </trkpt>
      <trkpt lat="41.9121360" lon="-8.8797610">
        <ele>7.9</ele>
        <time>2021-05-19T05:23:00Z</time>
      </trkpt>
      <trkpt lat="41.9121420" lon="-8.8797680">
        <ele>7.9</ele>
        <time>2021-05-19T05:23:01Z</time>
      </trkpt>
      <trkpt lat="41.9121520" lon="-8.8797890">
        <ele>7.9</ele>
        <time>2021-05-19T05:23:02Z</time>
      </trkpt>
      <trkpt lat="41.9121550" lon="-8.8798000">
        <ele>7.9</ele>
        <time>2021-05-19T05:23:03Z</time>
      </trkpt>
      <trkpt lat="41.9121580" lon="-8.8798120">
        <ele>7.9</ele>
        <time>2021-05-19T05:23:04Z</time>
      </trkpt>
      <trkpt lat="41.9121610" lon="-8.8798240">
        <ele>8.0</ele>
        <time>2021-05-19T05:23:05Z</time>
      </trkpt>
      <trkpt lat="41.9121590" lon="-8.8798520">
        <ele>8.0</ele>
        <time>2021-05-19T05:23:06Z</time>
      </trkpt>
      <trkpt lat="41.9121620" lon="-8.8798630">
        <ele>8.0</ele>
        <time>2021-05-19T05:23:07Z</time>
      </trkpt>
      <trkpt lat="41.9121650" lon="-8.8798750">
        <ele>8.1</ele>
        <time>2021-05-19T05:23:08Z</time>
      </trkpt>
      <trkpt lat="41.9121690" lon="-8.8798870">
        <ele>8.1</ele>
        <time>2021-05-19T05:23:09Z</time>
      </trkpt>
      <trkpt lat="41.9121720" lon="-8.8798910">
        <ele>8.1</ele>
        <time>2021-05-19T05:23:10Z</time>
      </trkpt>
      <trkpt lat="41.9121680" lon="-8.8798980">
        <ele>8.1</ele>
        <time>2021-05-19T05:23:11Z</time>
      </trkpt>
      <trkpt lat="41.9121710" lon="-8.8799110">
        <ele>8.2</ele>
        <time>2021-05-19T05:23:12Z</time>
      </trkpt>
      <trkpt lat="41.9121750" lon="-8.8799230">
        <ele>8.2</ele>
        <time>2021-05-19T05:23:13Z</time>
      </trkpt>
      <trkpt lat="41.9121750" lon="-8.8799290">
        <ele>8.2</ele>
        <time>2021-05-19T05:23:14Z</time>
      </trkpt>
      <trkpt lat="41.9121790" lon="-8.8799350">
        <ele>8.2</ele>
        <time>2021-05-19T05:23:15Z</time>
      </trkpt>
      <trkpt lat="41.9121810" lon="-8.8799520">
        <ele>8.3</ele>
        <time>2021-05-19T05:23:16Z</time>
      </trkpt>
      <trkpt lat="41.9121940" lon="-8.8799760">
        <ele>8.4</ele>
        <time>2021-05-19T05:23:17Z</time>
      </trkpt>
      <trkpt lat="41.9121970" lon="-8.8799880">
        <ele>8.5</ele>
        <time>2021-05-19T05:23:18Z</time>
      </trkpt>
      <trkpt lat="41.9122010" lon="-8.8800010">
        <ele>8.5</ele>
        <time>2021-05-19T05:23:19Z</time>
      </trkpt>
      <trkpt lat="41.9122040" lon="-8.8800090">
        <ele>8.6</ele>
        <time>2021-05-19T05:23:20Z</time>
      </trkpt>
      <trkpt lat="41.9122030" lon="-8.8800220">
        <ele>8.6</ele>
        <time>2021-05-19T05:23:21Z</time>
      </trkpt>
      <trkpt lat="41.9122090" lon="-8.8800420">
        <ele>8.7</ele>
        <time>2021-05-19T05:23:22Z</time>
      </trkpt>
      <trkpt lat="41.9122080" lon="-8.8800540">
        <ele>8.8</ele>
        <time>2021-05-19T05:23:23Z</time>
      </trkpt>
      <trkpt lat="41.9122070" lon="-8.8800510">
        <ele>8.8</ele>
        <time>2021-05-19T05:23:24Z</time>
      </trkpt>
      <trkpt lat="41.9122040" lon="-8.8800370">
        <ele>8.8</ele>
        <time>2021-05-19T05:23:25Z</time>
      </trkpt>
      <trkpt lat="41.9121970" lon="-8.8800340">
        <ele>8.9</ele>
        <time>2021-05-19T05:23:26Z</time>
      </trkpt>
      <trkpt lat="41.9122030" lon="-8.8800290">
        <ele>8.9</ele>
        <time>2021-05-19T05:23:27Z</time>
      </trkpt>
      <trkpt lat="41.9122000" lon="-8.8800300">
        <ele>8.9</ele>
        <time>2021-05-19T05:23:28Z</time>
      </trkpt>
      <trkpt lat="41.9121990" lon="-8.8800300">
        <ele>8.9</ele>
        <time>2021-05-19T05:23:29Z</time>
      </trkpt>
      <trkpt lat="41.9121970" lon="-8.8800340">
        <ele>8.9</ele>
        <time>2021-05-19T05:23:30Z</time>
      </trkpt>
      <trkpt lat="41.9121980" lon="-8.8800350">
        <ele>9.0</ele>
        <time>2021-05-19T05:23:31Z</time>
      </trkpt>
      <trkpt lat="41.9121990" lon="-8.8800360">
        <ele>9.0</ele>
        <time>2021-05-19T05:23:32Z</time>
      </trkpt>
      <trkpt lat="41.9122010" lon="-8.8800380">
        <ele>9.0</ele>
        <time>2021-05-19T05:23:33Z</time>
      </trkpt>
      <trkpt lat="41.9122010" lon="-8.8800400">
        <ele>9.0</ele>
        <time>2021-05-19T05:23:34Z</time>
      </trkpt>
      <trkpt lat="41.9122000" lon="-8.8800430">
        <ele>9.0</ele>
        <time>2021-05-19T05:23:35Z</time>
      </trkpt>
      <trkpt lat="41.9121990" lon="-8.8800460">
        <ele>9.0</ele>
        <time>2021-05-19T05:23:36Z</time>
      </trkpt>
      <trkpt lat="41.9122050" lon="-8.8800480">
        <ele>9.0</ele>
        <time>2021-05-19T05:23:37Z</time>
      </trkpt>
      <trkpt lat="41.9122110" lon="-8.8800550">
        <ele>9.1</ele>
        <time>2021-05-19T05:23:38Z</time>
      </trkpt>
      <trkpt lat="41.9122170" lon="-8.8800830">
        <ele>9.1</ele>
        <time>2021-05-19T05:23:39Z</time>
      </trkpt>
      <trkpt lat="41.9122210" lon="-8.8800840">
        <ele>9.1</ele>
        <time>2021-05-19T05:23:40Z</time>
      </trkpt>
      <trkpt lat="41.9122280" lon="-8.8800970">
        <ele>9.2</ele>
        <time>2021-05-19T05:23:41Z</time>
      </trkpt>
      <trkpt lat="41.9122300" lon="-8.8801010">
        <ele>9.2</ele>
        <time>2021-05-19T05:23:42Z</time>
      </trkpt>
      <trkpt lat="41.9122370" lon="-8.8801230">
        <ele>9.2</ele>
        <time>2021-05-19T05:23:43Z</time>
      </trkpt>
      <trkpt lat="41.9122420" lon="-8.8801320">
        <ele>9.2</ele>
        <time>2021-05-19T05:23:44Z</time>
      </trkpt>
      <trkpt lat="41.9122480" lon="-8.8801440">
        <ele>9.3</ele>
        <time>2021-05-19T05:23:45Z</time>
      </trkpt>
      <trkpt lat="41.9122550" lon="-8.8801560">
        <ele>9.3</ele>
        <time>2021-05-19T05:23:46Z</time>
      </trkpt>
      <trkpt lat="41.9122610" lon="-8.8801680">
        <ele>9.3</ele>
        <time>2021-05-19T05:23:47Z</time>
      </trkpt>
      <trkpt lat="41.9122660" lon="-8.8801800">
        <ele>9.3</ele>
        <time>2021-05-19T05:23:48Z</time>
      </trkpt>
      <trkpt lat="41.9122690" lon="-8.8802070">
        <ele>9.3</ele>
        <time>2021-05-19T05:23:49Z</time>
      </trkpt>
      <trkpt lat="41.9122770" lon="-8.8802150">
        <ele>9.3</ele>
        <time>2021-05-19T05:23:50Z</time>
      </trkpt>
      <trkpt lat="41.9122930" lon="-8.8802290">
        <ele>9.3</ele>
        <time>2021-05-19T05:23:51Z</time>
      </trkpt>
      <trkpt lat="41.9122960" lon="-8.8802470">
        <ele>9.2</ele>
        <time>2021-05-19T05:23:52Z</time>
      </trkpt>
      <trkpt lat="41.9122990" lon="-8.8802520">
        <ele>9.2</ele>
        <time>2021-05-19T05:23:53Z</time>
      </trkpt>
      <trkpt lat="41.9123040" lon="-8.8802660">
        <ele>9.2</ele>
        <time>2021-05-19T05:23:54Z</time>
      </trkpt>
      <trkpt lat="41.9122940" lon="-8.8802790">
        <ele>9.2</ele>
        <time>2021-05-19T05:23:55Z</time>
      </trkpt>
      <trkpt lat="41.9122960" lon="-8.8802970">
        <ele>9.2</ele>
        <time>2021-05-19T05:23:56Z</time>
      </trkpt>
      <trkpt lat="41.9123050" lon="-8.8803130">
        <ele>9.2</ele>
        <time>2021-05-19T05:23:57Z</time>
      </trkpt>
      <trkpt lat="41.9123140" lon="-8.8803280">
        <ele>9.1</ele>
        <time>2021-05-19T05:23:58Z</time>
      </trkpt>
      <trkpt lat="41.9123250" lon="-8.8803390">
        <ele>9.1</ele>
        <time>2021-05-19T05:23:59Z</time>
      </trkpt>
      <trkpt lat="41.9123310" lon="-8.8803590">
        <ele>9.0</ele>
        <time>2021-05-19T05:24:00Z</time>
      </trkpt>
      <trkpt lat="41.9123410" lon="-8.8803640">
        <ele>8.9</ele>
        <time>2021-05-19T05:24:01Z</time>
      </trkpt>
      <trkpt lat="41.9123450" lon="-8.8803740">
        <ele>8.9</ele>
        <time>2021-05-19T05:24:02Z</time>
      </trkpt>
      <trkpt lat="41.9123330" lon="-8.8803960">
        <ele>8.7</ele>
        <time>2021-05-19T05:24:03Z</time>
      </trkpt>
      <trkpt lat="41.9123280" lon="-8.8804090">
        <ele>8.6</ele>
        <time>2021-05-19T05:24:04Z</time>
      </trkpt>
      <trkpt lat="41.9123230" lon="-8.8804220">
        <ele>8.5</ele>
        <time>2021-05-19T05:24:05Z</time>
      </trkpt>
      <trkpt lat="41.9123170" lon="-8.8804500">
        <ele>8.3</ele>
        <time>2021-05-19T05:24:06Z</time>
      </trkpt>
      <trkpt lat="41.9123160" lon="-8.8804630">
        <ele>8.2</ele>
        <time>2021-05-19T05:24:07Z</time>
      </trkpt>
      <trkpt lat="41.9123150" lon="-8.8804770">
        <ele>8.1</ele>
        <time>2021-05-19T05:24:08Z</time>
      </trkpt>
      <trkpt lat="41.9123070" lon="-8.8804930">
        <ele>8.0</ele>
        <time>2021-05-19T05:24:09Z</time>
      </trkpt>
      <trkpt lat="41.9122920" lon="-8.8805030">
        <ele>7.8</ele>
        <time>2021-05-19T05:24:10Z</time>
      </trkpt>
      <trkpt lat="41.9122830" lon="-8.8805170">
        <ele>7.7</ele>
        <time>2021-05-19T05:24:11Z</time>
      </trkpt>
      <trkpt lat="41.9122640" lon="-8.8805280">
        <ele>7.5</ele>
        <time>2021-05-19T05:24:12Z</time>
      </trkpt>
      <trkpt lat="41.9122520" lon="-8.8805370">
        <ele>7.4</ele>
        <time>2021-05-19T05:24:13Z</time>
      </trkpt>
      <trkpt lat="41.9122370" lon="-8.8805450">
        <ele>7.3</ele>
        <time>2021-05-19T05:24:14Z</time>
      </trkpt>
      <trkpt lat="41.9122270" lon="-8.8805600">
        <ele>7.1</ele>
        <time>2021-05-19T05:24:15Z</time>
      </trkpt>
      <trkpt lat="41.9122150" lon="-8.8805680">
        <ele>7.0</ele>
        <time>2021-05-19T05:24:16Z</time>
      </trkpt>
      <trkpt lat="41.9122080" lon="-8.8805790">
        <ele>7.0</ele>
        <time>2021-05-19T05:24:17Z</time>
      </trkpt>
      <trkpt lat="41.9121980" lon="-8.8805890">
        <ele>6.9</ele>
        <time>2021-05-19T05:24:18Z</time>
      </trkpt>
      <trkpt lat="41.9122050" lon="-8.8805990">
        <ele>6.8</ele>
        <time>2021-05-19T05:24:19Z</time>
      </trkpt>
      <trkpt lat="41.9122050" lon="-8.8806070">
        <ele>6.8</ele>
        <time>2021-05-19T05:24:20Z</time>
      </trkpt>
      <trkpt lat="41.9122110" lon="-8.8806350">
        <ele>6.6</ele>
        <time>2021-05-19T05:24:21Z</time>
      </trkpt>
      <trkpt lat="41.9122130" lon="-8.8806480">
        <ele>6.6</ele>
        <time>2021-05-19T05:24:22Z</time>
      </trkpt>
      <trkpt lat="41.9122150" lon="-8.8806610">
        <ele>6.5</ele>
        <time>2021-05-19T05:24:23Z</time>
      </trkpt>
      <trkpt lat="41.9122170" lon="-8.8806750">
        <ele>6.5</ele>
        <time>2021-05-19T05:24:24Z</time>
      </trkpt>
      <trkpt lat="41.9122150" lon="-8.8806900">
        <ele>6.4</ele>
        <time>2021-05-19T05:24:25Z</time>
      </trkpt>
      <trkpt lat="41.9122090" lon="-8.8807090">
        <ele>6.3</ele>
        <time>2021-05-19T05:24:26Z</time>
      </trkpt>
      <trkpt lat="41.9122130" lon="-8.8807310">
        <ele>6.3</ele>
        <time>2021-05-19T05:24:27Z</time>
      </trkpt>
      <trkpt lat="41.9122220" lon="-8.8807480">
        <ele>6.2</ele>
        <time>2021-05-19T05:24:28Z</time>
      </trkpt>
      <trkpt lat="41.9122250" lon="-8.8807590">
        <ele>6.2</ele>
        <time>2021-05-19T05:24:29Z</time>
      </trkpt>
      <trkpt lat="41.9122280" lon="-8.8807760">
        <ele>6.1</ele>
        <time>2021-05-19T05:24:30Z</time>
      </trkpt>
      <trkpt lat="41.9122290" lon="-8.8807930">
        <ele>6.1</ele>
        <time>2021-05-19T05:24:31Z</time>
      </trkpt>
      <trkpt lat="41.9122300" lon="-8.8808200">
        <ele>6.0</ele>
        <time>2021-05-19T05:24:32Z</time>
      </trkpt>
      <trkpt lat="41.9122290" lon="-8.8808360">
        <ele>6.0</ele>
        <time>2021-05-19T05:24:33Z</time>
      </trkpt>
      <trkpt lat="41.9122290" lon="-8.8808520">
        <ele>5.9</ele>
        <time>2021-05-19T05:24:34Z</time>
      </trkpt>
      <trkpt lat="41.9122290" lon="-8.8808740">
        <ele>5.9</ele>
        <time>2021-05-19T05:24:35Z</time>
      </trkpt>
      <trkpt lat="41.9122390" lon="-8.8808940">
        <ele>5.9</ele>
        <time>2021-05-19T05:24:36Z</time>
      </trkpt>
      <trkpt lat="41.9122390" lon="-8.8809150">
        <ele>5.8</ele>
        <time>2021-05-19T05:24:37Z</time>
      </trkpt>
      <trkpt lat="41.9122410" lon="-8.8809340">
        <ele>5.8</ele>
        <time>2021-05-19T05:24:38Z</time>
      </trkpt>
      <trkpt lat="41.9122430" lon="-8.8809530">
        <ele>5.8</ele>
        <time>2021-05-19T05:24:39Z</time>
      </trkpt>
      <trkpt lat="41.9122480" lon="-8.8809700">
        <ele>5.8</ele>
        <time>2021-05-19T05:24:40Z</time>
      </trkpt>
      <trkpt lat="41.9122520" lon="-8.8809910">
        <ele>5.8</ele>
        <time>2021-05-19T05:24:41Z</time>
      </trkpt>
      <trkpt lat="41.9122520" lon="-8.8810110">
        <ele>5.7</ele>
        <time>2021-05-19T05:24:42Z</time>
      </trkpt>
      <trkpt lat="41.9122620" lon="-8.8810300">
        <ele>5.7</ele>
        <time>2021-05-19T05:24:43Z</time>
      </trkpt>
      <trkpt lat="41.9122670" lon="-8.8810480">
        <ele>5.7</ele>
        <time>2021-05-19T05:24:44Z</time>
      </trkpt>
      <trkpt lat="41.9122720" lon="-8.8810680">
        <ele>5.7</ele>
        <time>2021-05-19T05:24:45Z</time>
      </trkpt>
      <trkpt lat="41.9122770" lon="-8.8810840">
        <ele>5.7</ele>
        <time>2021-05-19T05:24:46Z</time>
      </trkpt>
      <trkpt lat="41.9122820" lon="-8.8811040">
        <ele>5.7</ele>
        <time>2021-05-19T05:24:47Z</time>
      </trkpt>
      <trkpt lat="41.9122880" lon="-8.8811240">
        <ele>5.7</ele>
        <time>2021-05-19T05:24:48Z</time>
      </trkpt>
      <trkpt lat="41.9122970" lon="-8.8811410">
        <ele>5.7</ele>
        <time>2021-05-19T05:24:49Z</time>
      </trkpt>
      <trkpt lat="41.9123090" lon="-8.8811550">
        <ele>5.7</ele>
        <time>2021-05-19T05:24:50Z</time>
      </trkpt>
      <trkpt lat="41.9123220" lon="-8.8811700">
        <ele>5.7</ele>
        <time>2021-05-19T05:24:51Z</time>
      </trkpt>
      <trkpt lat="41.9123330" lon="-8.8811840">
        <ele>5.7</ele>
        <time>2021-05-19T05:24:52Z</time>
      </trkpt>
      <trkpt lat="41.9123450" lon="-8.8811960">
        <ele>5.7</ele>
        <time>2021-05-19T05:24:53Z</time>
      </trkpt>
      <trkpt lat="41.9123610" lon="-8.8812050">
        <ele>5.7</ele>
        <time>2021-05-19T05:24:54Z</time>
      </trkpt>
      <trkpt lat="41.9123740" lon="-8.8812150">
        <ele>5.7</ele>
        <time>2021-05-19T05:24:55Z</time>
      </trkpt>
      <trkpt lat="41.9123910" lon="-8.8812180">
        <ele>5.7</ele>
        <time>2021-05-19T05:24:56Z</time>
      </trkpt>
      <trkpt lat="41.9124050" lon="-8.8812250">
        <ele>5.7</ele>
        <time>2021-05-19T05:24:57Z</time>
      </trkpt>
      <trkpt lat="41.9124180" lon="-8.8812320">
        <ele>5.7</ele>
        <time>2021-05-19T05:24:58Z</time>
      </trkpt>
      <trkpt lat="41.9124300" lon="-8.8812440">
        <ele>5.7</ele>
        <time>2021-05-19T05:24:59Z</time>
      </trkpt>
      <trkpt lat="41.9124450" lon="-8.8812510">
        <ele>5.7</ele>
        <time>2021-05-19T05:25:00Z</time>
      </trkpt>
      <trkpt lat="41.9124540" lon="-8.8812600">
        <ele>5.7</ele>
        <time>2021-05-19T05:25:01Z</time>
      </trkpt>
      <trkpt lat="41.9124670" lon="-8.8812710">
        <ele>5.7</ele>
        <time>2021-05-19T05:25:02Z</time>
      </trkpt>
      <trkpt lat="41.9124770" lon="-8.8812870">
        <ele>5.7</ele>
        <time>2021-05-19T05:25:03Z</time>
      </trkpt>
      <trkpt lat="41.9124890" lon="-8.8812990">
        <ele>5.7</ele>
        <time>2021-05-19T05:25:04Z</time>
      </trkpt>
      <trkpt lat="41.9124970" lon="-8.8813160">
        <ele>5.7</ele>
        <time>2021-05-19T05:25:05Z</time>
      </trkpt>
      <trkpt lat="41.9125100" lon="-8.8813290">
        <ele>5.7</ele>
        <time>2021-05-19T05:25:06Z</time>
      </trkpt>
      <trkpt lat="41.9125230" lon="-8.8813360">
        <ele>5.7</ele>
        <time>2021-05-19T05:25:07Z</time>
      </trkpt>
      <trkpt lat="41.9125390" lon="-8.8813350">
        <ele>5.8</ele>
        <time>2021-05-19T05:25:08Z</time>
      </trkpt>
      <trkpt lat="41.9125590" lon="-8.8813470">
        <ele>5.8</ele>
        <time>2021-05-19T05:25:09Z</time>
      </trkpt>
      <trkpt lat="41.9125680" lon="-8.8813520">
        <ele>5.8</ele>
        <time>2021-05-19T05:25:10Z</time>
      </trkpt>
      <trkpt lat="41.9125760" lon="-8.8813580">
        <ele>5.8</ele>
        <time>2021-05-19T05:25:11Z</time>
      </trkpt>
      <trkpt lat="41.9125890" lon="-8.8813660">
        <ele>5.8</ele>
        <time>2021-05-19T05:25:12Z</time>
      </trkpt>
      <trkpt lat="41.9125990" lon="-8.8813800">
        <ele>5.9</ele>
        <time>2021-05-19T05:25:13Z</time>
      </trkpt>
      <trkpt lat="41.9126140" lon="-8.8813820">
        <ele>5.9</ele>
        <time>2021-05-19T05:25:14Z</time>
      </trkpt>
      <trkpt lat="41.9126240" lon="-8.8813950">
        <ele>5.9</ele>
        <time>2021-05-19T05:25:15Z</time>
      </trkpt>
      <trkpt lat="41.9126410" lon="-8.8813930">
        <ele>5.9</ele>
        <time>2021-05-19T05:25:16Z</time>
      </trkpt>
      <trkpt lat="41.9126580" lon="-8.8813950">
        <ele>6.0</ele>
        <time>2021-05-19T05:25:17Z</time>
      </trkpt>
      <trkpt lat="41.9126730" lon="-8.8813910">
        <ele>6.0</ele>
        <time>2021-05-19T05:25:18Z</time>
      </trkpt>
      <trkpt lat="41.9126890" lon="-8.8813930">
        <ele>6.0</ele>
        <time>2021-05-19T05:25:19Z</time>
      </trkpt>
      <trkpt lat="41.9127020" lon="-8.8814050">
        <ele>6.0</ele>
        <time>2021-05-19T05:25:20Z</time>
      </trkpt>
      <trkpt lat="41.9127150" lon="-8.8814110">
        <ele>6.1</ele>
        <time>2021-05-19T05:25:21Z</time>
      </trkpt>
      <trkpt lat="41.9127300" lon="-8.8814170">
        <ele>6.1</ele>
        <time>2021-05-19T05:25:22Z</time>
      </trkpt>
      <trkpt lat="41.9127400" lon="-8.8814290">
        <ele>6.1</ele>
        <time>2021-05-19T05:25:23Z</time>
      </trkpt>
      <trkpt lat="41.9127560" lon="-8.8814260">
        <ele>6.2</ele>
        <time>2021-05-19T05:25:24Z</time>
      </trkpt>
      <trkpt lat="41.9127690" lon="-8.8814280">
        <ele>6.2</ele>
        <time>2021-05-19T05:25:25Z</time>
      </trkpt>
      <trkpt lat="41.9127820" lon="-8.8814300">
        <ele>6.2</ele>
        <time>2021-05-19T05:25:26Z</time>
      </trkpt>
      <trkpt lat="41.9127970" lon="-8.8814330">
        <ele>6.2</ele>
        <time>2021-05-19T05:25:27Z</time>
      </trkpt>
      <trkpt lat="41.9128100" lon="-8.8814370">
        <ele>6.2</ele>
        <time>2021-05-19T05:25:28Z</time>
      </trkpt>
      <trkpt lat="41.9128240" lon="-8.8814440">
        <ele>6.3</ele>
        <time>2021-05-19T05:25:29Z</time>
      </trkpt>
      <trkpt lat="41.9128330" lon="-8.8814500">
        <ele>6.3</ele>
        <time>2021-05-19T05:25:30Z</time>
      </trkpt>
      <trkpt lat="41.9128450" lon="-8.8814520">
        <ele>6.3</ele>
        <time>2021-05-19T05:25:31Z</time>
      </trkpt>
      <trkpt lat="41.9128580" lon="-8.8814560">
        <ele>6.3</ele>
        <time>2021-05-19T05:25:32Z</time>
      </trkpt>
      <trkpt lat="41.9128780" lon="-8.8814600">
        <ele>6.4</ele>
        <time>2021-05-19T05:25:33Z</time>
      </trkpt>
      <trkpt lat="41.9128870" lon="-8.8814640">
        <ele>6.4</ele>
        <time>2021-05-19T05:25:34Z</time>
      </trkpt>
      <trkpt lat="41.9128950" lon="-8.8814670">
        <ele>6.4</ele>
        <time>2021-05-19T05:25:35Z</time>
      </trkpt>
      <trkpt lat="41.9129160" lon="-8.8814720">
        <ele>6.4</ele>
        <time>2021-05-19T05:25:36Z</time>
      </trkpt>
      <trkpt lat="41.9129250" lon="-8.8814770">
        <ele>6.4</ele>
        <time>2021-05-19T05:25:37Z</time>
      </trkpt>
      <trkpt lat="41.9129330" lon="-8.8814810">
        <ele>6.4</ele>
        <time>2021-05-19T05:25:38Z</time>
      </trkpt>
      <trkpt lat="41.9129540" lon="-8.8814840">
        <ele>6.4</ele>
        <time>2021-05-19T05:25:39Z</time>
      </trkpt>
      <trkpt lat="41.9129620" lon="-8.8814860">
        <ele>6.5</ele>
        <time>2021-05-19T05:25:40Z</time>
      </trkpt>
      <trkpt lat="41.9129700" lon="-8.8814890">
        <ele>6.5</ele>
        <time>2021-05-19T05:25:41Z</time>
      </trkpt>
      <trkpt lat="41.9129800" lon="-8.8814890">
        <ele>6.5</ele>
        <time>2021-05-19T05:25:42Z</time>
      </trkpt>
      <trkpt lat="41.9129920" lon="-8.8814940">
        <ele>6.5</ele>
        <time>2021-05-19T05:25:43Z</time>
      </trkpt>
      <trkpt lat="41.9130030" lon="-8.8814970">
        <ele>6.5</ele>
        <time>2021-05-19T05:25:44Z</time>
      </trkpt>
      <trkpt lat="41.9130230" lon="-8.8814980">
        <ele>6.5</ele>
        <time>2021-05-19T05:25:45Z</time>
      </trkpt>
      <trkpt lat="41.9130310" lon="-8.8815010">
        <ele>6.5</ele>
        <time>2021-05-19T05:25:46Z</time>
      </trkpt>
      <trkpt lat="41.9130400" lon="-8.8815030">
        <ele>6.5</ele>
        <time>2021-05-19T05:25:47Z</time>
      </trkpt>
      <trkpt lat="41.9130530" lon="-8.8815080">
        <ele>6.6</ele>
        <time>2021-05-19T05:25:48Z</time>
      </trkpt>
      <trkpt lat="41.9130670" lon="-8.8815050">
        <ele>6.6</ele>
        <time>2021-05-19T05:25:49Z</time>
      </trkpt>
      <trkpt lat="41.9130880" lon="-8.8815100">
        <ele>6.6</ele>
        <time>2021-05-19T05:25:50Z</time>
      </trkpt>
      <trkpt lat="41.9130970" lon="-8.8815130">
        <ele>6.6</ele>
        <time>2021-05-19T05:25:51Z</time>
      </trkpt>
      <trkpt lat="41.9131050" lon="-8.8815150">
        <ele>6.6</ele>
        <time>2021-05-19T05:25:52Z</time>
      </trkpt>
      <trkpt lat="41.9131260" lon="-8.8815150">
        <ele>6.7</ele>
        <time>2021-05-19T05:25:53Z</time>
      </trkpt>
      <trkpt lat="41.9131350" lon="-8.8815180">
        <ele>6.7</ele>
        <time>2021-05-19T05:25:54Z</time>
      </trkpt>
      <trkpt lat="41.9131440" lon="-8.8815200">
        <ele>6.7</ele>
        <time>2021-05-19T05:25:55Z</time>
      </trkpt>
      <trkpt lat="41.9131540" lon="-8.8815210">
        <ele>6.7</ele>
        <time>2021-05-19T05:25:56Z</time>
      </trkpt>
      <trkpt lat="41.9131660" lon="-8.8815220">
        <ele>6.7</ele>
        <time>2021-05-19T05:25:57Z</time>
      </trkpt>
      <trkpt lat="41.9131770" lon="-8.8815220">
        <ele>6.7</ele>
        <time>2021-05-19T05:25:58Z</time>
      </trkpt>
      <trkpt lat="41.9131910" lon="-8.8815270">
        <ele>6.7</ele>
        <time>2021-05-19T05:25:59Z</time>
      </trkpt>
      <trkpt lat="41.9132040" lon="-8.8815330">
        <ele>6.7</ele>
        <time>2021-05-19T05:26:00Z</time>
      </trkpt>
      <trkpt lat="41.9132260" lon="-8.8815370">
        <ele>6.8</ele>
        <time>2021-05-19T05:26:01Z</time>
      </trkpt>
      <trkpt lat="41.9132340" lon="-8.8815390">
        <ele>6.8</ele>
        <time>2021-05-19T05:26:02Z</time>
      </trkpt>
      <trkpt lat="41.9132430" lon="-8.8815420">
        <ele>6.8</ele>
        <time>2021-05-19T05:26:03Z</time>
      </trkpt>
      <trkpt lat="41.9132560" lon="-8.8815430">
        <ele>6.8</ele>
        <time>2021-05-19T05:26:04Z</time>
      </trkpt>
      <trkpt lat="41.9132660" lon="-8.8815470">
        <ele>6.8</ele>
        <time>2021-05-19T05:26:05Z</time>
      </trkpt>
      <trkpt lat="41.9132790" lon="-8.8815410">
        <ele>6.8</ele>
        <time>2021-05-19T05:26:06Z</time>
      </trkpt>
      <trkpt lat="41.9133000" lon="-8.8815420">
        <ele>6.8</ele>
        <time>2021-05-19T05:26:07Z</time>
      </trkpt>
      <trkpt lat="41.9133080" lon="-8.8815440">
        <ele>6.8</ele>
        <time>2021-05-19T05:26:08Z</time>
      </trkpt>
      <trkpt lat="41.9133170" lon="-8.8815450">
        <ele>6.8</ele>
        <time>2021-05-19T05:26:09Z</time>
      </trkpt>
      <trkpt lat="41.9133380" lon="-8.8815530">
        <ele>6.8</ele>
        <time>2021-05-19T05:26:10Z</time>
      </trkpt>
      <trkpt lat="41.9133460" lon="-8.8815580">
        <ele>6.8</ele>
        <time>2021-05-19T05:26:11Z</time>
      </trkpt>
      <trkpt lat="41.9133540" lon="-8.8815630">
        <ele>6.8</ele>
        <time>2021-05-19T05:26:12Z</time>
      </trkpt>
      <trkpt lat="41.9133700" lon="-8.8815810">
        <ele>6.8</ele>
        <time>2021-05-19T05:26:13Z</time>
      </trkpt>
      <trkpt lat="41.9133750" lon="-8.8815920">
        <ele>6.8</ele>
        <time>2021-05-19T05:26:14Z</time>
      </trkpt>
      <trkpt lat="41.9133800" lon="-8.8816030">
        <ele>6.8</ele>
        <time>2021-05-19T05:26:15Z</time>
      </trkpt>
      <trkpt lat="41.9133890" lon="-8.8816310">
        <ele>6.8</ele>
        <time>2021-05-19T05:26:16Z</time>
      </trkpt>
      <trkpt lat="41.9133950" lon="-8.8816390">
        <ele>6.8</ele>
        <time>2021-05-19T05:26:17Z</time>
      </trkpt>
      <trkpt lat="41.9134000" lon="-8.8816480">
        <ele>6.8</ele>
        <time>2021-05-19T05:26:18Z</time>
      </trkpt>
      <trkpt lat="41.9134110" lon="-8.8816560">
        <ele>6.8</ele>
        <time>2021-05-19T05:26:19Z</time>
      </trkpt>
      <trkpt lat="41.9134260" lon="-8.8816610">
        <ele>6.8</ele>
        <time>2021-05-19T05:26:20Z</time>
      </trkpt>
      <trkpt lat="41.9134310" lon="-8.8816750">
        <ele>6.8</ele>
        <time>2021-05-19T05:26:21Z</time>
      </trkpt>
      <trkpt lat="41.9134380" lon="-8.8816870">
        <ele>6.8</ele>
        <time>2021-05-19T05:26:22Z</time>
      </trkpt>
      <trkpt lat="41.9134410" lon="-8.8816980">
        <ele>6.8</ele>
        <time>2021-05-19T05:26:23Z</time>
      </trkpt>
      <trkpt lat="41.9134580" lon="-8.8817140">
        <ele>6.8</ele>
        <time>2021-05-19T05:26:24Z</time>
      </trkpt>
      <trkpt lat="41.9134650" lon="-8.8817210">
        <ele>6.8</ele>
        <time>2021-05-19T05:26:25Z</time>
      </trkpt>
      <trkpt lat="41.9134720" lon="-8.8817270">
        <ele>6.8</ele>
        <time>2021-05-19T05:26:26Z</time>
      </trkpt>
      <trkpt lat="41.9134740" lon="-8.8817420">
        <ele>6.8</ele>
        <time>2021-05-19T05:26:27Z</time>
      </trkpt>
      <trkpt lat="41.9134730" lon="-8.8817480">
        <ele>6.8</ele>
        <time>2021-05-19T05:26:28Z</time>
      </trkpt>
      <trkpt lat="41.9134840" lon="-8.8817630">
        <ele>6.8</ele>
        <time>2021-05-19T05:26:29Z</time>
      </trkpt>
      <trkpt lat="41.9134920" lon="-8.8817720">
        <ele>6.8</ele>
        <time>2021-05-19T05:26:30Z</time>
      </trkpt>
      <trkpt lat="41.9135050" lon="-8.8817790">
        <ele>6.8</ele>
        <time>2021-05-19T05:26:31Z</time>
      </trkpt>
      <trkpt lat="41.9135130" lon="-8.8817700">
        <ele>6.8</ele>
        <time>2021-05-19T05:26:32Z</time>
      </trkpt>
      <trkpt lat="41.9135210" lon="-8.8817600">
        <ele>6.8</ele>
        <time>2021-05-19T05:26:33Z</time>
      </trkpt>
      <trkpt lat="41.9135330" lon="-8.8817550">
        <ele>6.8</ele>
        <time>2021-05-19T05:26:34Z</time>
      </trkpt>
      <trkpt lat="41.9135430" lon="-8.8817510">
        <ele>6.8</ele>
        <time>2021-05-19T05:26:35Z</time>
      </trkpt>
      <trkpt lat="41.9135530" lon="-8.8817520">
        <ele>6.8</ele>
        <time>2021-05-19T05:26:36Z</time>
      </trkpt>
      <trkpt lat="41.9135630" lon="-8.8817550">
        <ele>6.8</ele>
        <time>2021-05-19T05:26:37Z</time>
      </trkpt>
      <trkpt lat="41.9135740" lon="-8.8817580">
        <ele>6.8</ele>
        <time>2021-05-19T05:26:38Z</time>
      </trkpt>
      <trkpt lat="41.9135810" lon="-8.8817630">
        <ele>6.8</ele>
        <time>2021-05-19T05:26:39Z</time>
      </trkpt>
      <trkpt lat="41.9135940" lon="-8.8817720">
        <ele>6.8</ele>
        <time>2021-05-19T05:26:40Z</time>
      </trkpt>
      <trkpt lat="41.9136010" lon="-8.8817700">
        <ele>6.8</ele>
        <time>2021-05-19T05:26:41Z</time>
      </trkpt>
      <trkpt lat="41.9136090" lon="-8.8817810">
        <ele>6.8</ele>
        <time>2021-05-19T05:26:42Z</time>
      </trkpt>
      <trkpt lat="41.9136180" lon="-8.8817850">
        <ele>6.8</ele>
        <time>2021-05-19T05:26:43Z</time>
      </trkpt>
      <trkpt lat="41.9136260" lon="-8.8817860">
        <ele>6.8</ele>
        <time>2021-05-19T05:26:44Z</time>
      </trkpt>
      <trkpt lat="41.9136400" lon="-8.8817930">
        <ele>6.8</ele>
        <time>2021-05-19T05:26:45Z</time>
      </trkpt>
      <trkpt lat="41.9136410" lon="-8.8817980">
        <ele>6.8</ele>
        <time>2021-05-19T05:26:46Z</time>
      </trkpt>
      <trkpt lat="41.9136580" lon="-8.8818010">
        <ele>6.8</ele>
        <time>2021-05-19T05:26:47Z</time>
      </trkpt>
      <trkpt lat="41.9136770" lon="-8.8818140">
        <ele>6.8</ele>
        <time>2021-05-19T05:26:48Z</time>
      </trkpt>
      <trkpt lat="41.9136890" lon="-8.8818230">
        <ele>6.8</ele>
        <time>2021-05-19T05:26:49Z</time>
      </trkpt>
      <trkpt lat="41.9136980" lon="-8.8818300">
        <ele>6.8</ele>
        <time>2021-05-19T05:26:50Z</time>
      </trkpt>
      <trkpt lat="41.9137090" lon="-8.8818410">
        <ele>6.8</ele>
        <time>2021-05-19T05:26:51Z</time>
      </trkpt>
      <trkpt lat="41.9137170" lon="-8.8818420">
        <ele>6.8</ele>
        <time>2021-05-19T05:26:52Z</time>
      </trkpt>
      <trkpt lat="41.9137190" lon="-8.8818540">
        <ele>6.8</ele>
        <time>2021-05-19T05:26:53Z</time>
      </trkpt>
      <trkpt lat="41.9137330" lon="-8.8818700">
        <ele>6.8</ele>
        <time>2021-05-19T05:26:54Z</time>
      </trkpt>
      <trkpt lat="41.9137360" lon="-8.8818740">
        <ele>6.8</ele>
        <time>2021-05-19T05:26:55Z</time>
      </trkpt>
      <trkpt lat="41.9137480" lon="-8.8818870">
        <ele>6.8</ele>
        <time>2021-05-19T05:26:56Z</time>
      </trkpt>
      <trkpt lat="41.9137570" lon="-8.8818970">
        <ele>6.8</ele>
        <time>2021-05-19T05:26:57Z</time>
      </trkpt>
      <trkpt lat="41.9137690" lon="-8.8819080">
        <ele>6.8</ele>
        <time>2021-05-19T05:26:58Z</time>
      </trkpt>
      <trkpt lat="41.9137820" lon="-8.8819220">
        <ele>6.8</ele>
        <time>2021-05-19T05:26:59Z</time>
      </trkpt>
      <trkpt lat="41.9137950" lon="-8.8819300">
        <ele>6.8</ele>
        <time>2021-05-19T05:27:00Z</time>
      </trkpt>
      <trkpt lat="41.9138070" lon="-8.8819360">
        <ele>6.8</ele>
        <time>2021-05-19T05:27:01Z</time>
      </trkpt>
      <trkpt lat="41.9138260" lon="-8.8819410">
        <ele>6.8</ele>
        <time>2021-05-19T05:27:02Z</time>
      </trkpt>
      <trkpt lat="41.9138380" lon="-8.8819360">
        <ele>6.9</ele>
        <time>2021-05-19T05:27:03Z</time>
      </trkpt>
      <trkpt lat="41.9138470" lon="-8.8819420">
        <ele>6.9</ele>
        <time>2021-05-19T05:27:04Z</time>
      </trkpt>
      <trkpt lat="41.9138550" lon="-8.8819540">
        <ele>6.9</ele>
        <time>2021-05-19T05:27:05Z</time>
      </trkpt>
      <trkpt lat="41.9138680" lon="-8.8819630">
        <ele>6.9</ele>
        <time>2021-05-19T05:27:06Z</time>
      </trkpt>
      <trkpt lat="41.9138720" lon="-8.8819690">
        <ele>6.9</ele>
        <time>2021-05-19T05:27:07Z</time>
      </trkpt>
      <trkpt lat="41.9138850" lon="-8.8819800">
        <ele>6.9</ele>
        <time>2021-05-19T05:27:08Z</time>
      </trkpt>
      <trkpt lat="41.9138960" lon="-8.8819950">
        <ele>7.0</ele>
        <time>2021-05-19T05:27:09Z</time>
      </trkpt>
      <trkpt lat="41.9139050" lon="-8.8819990">
        <ele>7.0</ele>
        <time>2021-05-19T05:27:10Z</time>
      </trkpt>
      <trkpt lat="41.9139140" lon="-8.8820080">
        <ele>7.0</ele>
        <time>2021-05-19T05:27:11Z</time>
      </trkpt>
      <trkpt lat="41.9139210" lon="-8.8820170">
        <ele>7.1</ele>
        <time>2021-05-19T05:27:12Z</time>
      </trkpt>
      <trkpt lat="41.9139360" lon="-8.8820230">
        <ele>7.1</ele>
        <time>2021-05-19T05:27:13Z</time>
      </trkpt>
      <trkpt lat="41.9139440" lon="-8.8820280">
        <ele>7.1</ele>
        <time>2021-05-19T05:27:14Z</time>
      </trkpt>
      <trkpt lat="41.9139530" lon="-8.8820340">
        <ele>7.2</ele>
        <time>2021-05-19T05:27:15Z</time>
      </trkpt>
      <trkpt lat="41.9139700" lon="-8.8820440">
        <ele>7.2</ele>
        <time>2021-05-19T05:27:16Z</time>
      </trkpt>
      <trkpt lat="41.9139840" lon="-8.8820390">
        <ele>7.3</ele>
        <time>2021-05-19T05:27:17Z</time>
      </trkpt>
      <trkpt lat="41.9139970" lon="-8.8820280">
        <ele>7.3</ele>
        <time>2021-05-19T05:27:18Z</time>
      </trkpt>
      <trkpt lat="41.9139940" lon="-8.8820050">
        <ele>7.4</ele>
        <time>2021-05-19T05:27:19Z</time>
      </trkpt>
      <trkpt lat="41.9140030" lon="-8.8819790">
        <ele>7.5</ele>
        <time>2021-05-19T05:27:20Z</time>
      </trkpt>
      <trkpt lat="41.9140070" lon="-8.8819700">
        <ele>7.5</ele>
        <time>2021-05-19T05:27:21Z</time>
      </trkpt>
      <trkpt lat="41.9140120" lon="-8.8819610">
        <ele>7.5</ele>
        <time>2021-05-19T05:27:22Z</time>
      </trkpt>
      <trkpt lat="41.9140250" lon="-8.8819330">
        <ele>7.6</ele>
        <time>2021-05-19T05:27:23Z</time>
      </trkpt>
      <trkpt lat="41.9140310" lon="-8.8819240">
        <ele>7.7</ele>
        <time>2021-05-19T05:27:24Z</time>
      </trkpt>
      <trkpt lat="41.9140410" lon="-8.8819080">
        <ele>7.7</ele>
        <time>2021-05-19T05:27:25Z</time>
      </trkpt>
      <trkpt lat="41.9140420" lon="-8.8818890">
        <ele>7.8</ele>
        <time>2021-05-19T05:27:26Z</time>
      </trkpt>
      <trkpt lat="41.9140460" lon="-8.8818780">
        <ele>7.8</ele>
        <time>2021-05-19T05:27:27Z</time>
      </trkpt>
      <trkpt lat="41.9140500" lon="-8.8818720">
        <ele>7.8</ele>
        <time>2021-05-19T05:27:28Z</time>
      </trkpt>
      <trkpt lat="41.9140560" lon="-8.8818560">
        <ele>7.9</ele>
        <time>2021-05-19T05:27:29Z</time>
      </trkpt>
      <trkpt lat="41.9140610" lon="-8.8818430">
        <ele>7.9</ele>
        <time>2021-05-19T05:27:30Z</time>
      </trkpt>
      <trkpt lat="41.9140680" lon="-8.8818300">
        <ele>8.0</ele>
        <time>2021-05-19T05:27:31Z</time>
      </trkpt>
      <trkpt lat="41.9140750" lon="-8.8818170">
        <ele>8.0</ele>
        <time>2021-05-19T05:27:32Z</time>
      </trkpt>
      <trkpt lat="41.9140880" lon="-8.8818160">
        <ele>8.0</ele>
        <time>2021-05-19T05:27:33Z</time>
      </trkpt>
      <trkpt lat="41.9140980" lon="-8.8818250">
        <ele>8.1</ele>
        <time>2021-05-19T05:27:34Z</time>
      </trkpt>
      <trkpt lat="41.9141070" lon="-8.8818360">
        <ele>8.1</ele>
        <time>2021-05-19T05:27:35Z</time>
      </trkpt>
      <trkpt lat="41.9141280" lon="-8.8818520">
        <ele>8.1</ele>
        <time>2021-05-19T05:27:36Z</time>
      </trkpt>
      <trkpt lat="41.9141350" lon="-8.8818580">
        <ele>8.1</ele>
        <time>2021-05-19T05:27:37Z</time>
      </trkpt>
      <trkpt lat="41.9141410" lon="-8.8818640">
        <ele>8.2</ele>
        <time>2021-05-19T05:27:38Z</time>
      </trkpt>
      <trkpt lat="41.9141460" lon="-8.8818740">
        <ele>8.2</ele>
        <time>2021-05-19T05:27:39Z</time>
      </trkpt>
      <trkpt lat="41.9141580" lon="-8.8818940">
        <ele>8.2</ele>
        <time>2021-05-19T05:27:40Z</time>
      </trkpt>
      <trkpt lat="41.9141740" lon="-8.8818990">
        <ele>8.2</ele>
        <time>2021-05-19T05:27:41Z</time>
      </trkpt>
      <trkpt lat="41.9141860" lon="-8.8819080">
        <ele>8.2</ele>
        <time>2021-05-19T05:27:42Z</time>
      </trkpt>
      <trkpt lat="41.9141960" lon="-8.8819160">
        <ele>8.2</ele>
        <time>2021-05-19T05:27:43Z</time>
      </trkpt>
      <trkpt lat="41.9142110" lon="-8.8819220">
        <ele>8.2</ele>
        <time>2021-05-19T05:27:44Z</time>
      </trkpt>
      <trkpt lat="41.9142290" lon="-8.8819370">
        <ele>8.2</ele>
        <time>2021-05-19T05:27:45Z</time>
      </trkpt>
      <trkpt lat="41.9142390" lon="-8.8819450">
        <ele>8.2</ele>
        <time>2021-05-19T05:27:46Z</time>
      </trkpt>
      <trkpt lat="41.9142480" lon="-8.8819540">
        <ele>8.2</ele>
        <time>2021-05-19T05:27:47Z</time>
      </trkpt>
      <trkpt lat="41.9142540" lon="-8.8819660">
        <ele>8.2</ele>
        <time>2021-05-19T05:27:48Z</time>
      </trkpt>
      <trkpt lat="41.9142570" lon="-8.8819890">
        <ele>8.2</ele>
        <time>2021-05-19T05:27:49Z</time>
      </trkpt>
      <trkpt lat="41.9142620" lon="-8.8820070">
        <ele>8.1</ele>
        <time>2021-05-19T05:27:50Z</time>
      </trkpt>
      <trkpt lat="41.9142640" lon="-8.8820140">
        <ele>8.1</ele>
        <time>2021-05-19T05:27:51Z</time>
      </trkpt>
      <trkpt lat="41.9142620" lon="-8.8820360">
        <ele>8.1</ele>
        <time>2021-05-19T05:27:52Z</time>
      </trkpt>
      <trkpt lat="41.9142640" lon="-8.8820490">
        <ele>8.1</ele>
        <time>2021-05-19T05:27:53Z</time>
      </trkpt>
      <trkpt lat="41.9142640" lon="-8.8820700">
        <ele>8.0</ele>
        <time>2021-05-19T05:27:54Z</time>
      </trkpt>
      <trkpt lat="41.9142670" lon="-8.8820780">
        <ele>8.0</ele>
        <time>2021-05-19T05:27:55Z</time>
      </trkpt>
      <trkpt lat="41.9142690" lon="-8.8821040">
        <ele>7.9</ele>
        <time>2021-05-19T05:27:56Z</time>
      </trkpt>
      <trkpt lat="41.9142730" lon="-8.8821250">
        <ele>7.9</ele>
        <time>2021-05-19T05:27:57Z</time>
      </trkpt>
      <trkpt lat="41.9142790" lon="-8.8821550">
        <ele>7.8</ele>
        <time>2021-05-19T05:27:58Z</time>
      </trkpt>
      <trkpt lat="41.9142790" lon="-8.8821640">
        <ele>7.8</ele>
        <time>2021-05-19T05:27:59Z</time>
      </trkpt>
      <trkpt lat="41.9142800" lon="-8.8821740">
        <ele>7.7</ele>
        <time>2021-05-19T05:28:00Z</time>
      </trkpt>
      <trkpt lat="41.9142990" lon="-8.8821900">
        <ele>7.7</ele>
        <time>2021-05-19T05:28:01Z</time>
      </trkpt>
      <trkpt lat="41.9143070" lon="-8.8821920">
        <ele>7.6</ele>
        <time>2021-05-19T05:28:02Z</time>
      </trkpt>
      <trkpt lat="41.9143150" lon="-8.8821930">
        <ele>7.6</ele>
        <time>2021-05-19T05:28:03Z</time>
      </trkpt>
      <trkpt lat="41.9143380" lon="-8.8821990">
        <ele>7.5</ele>
        <time>2021-05-19T05:28:04Z</time>
      </trkpt>
      <trkpt lat="41.9143470" lon="-8.8822040">
        <ele>7.5</ele>
        <time>2021-05-19T05:28:05Z</time>
      </trkpt>
      <trkpt lat="41.9143550" lon="-8.8822090">
        <ele>7.5</ele>
        <time>2021-05-19T05:28:06Z</time>
      </trkpt>
      <trkpt lat="41.9143780" lon="-8.8822140">
        <ele>7.4</ele>
        <time>2021-05-19T05:28:07Z</time>
      </trkpt>
      <trkpt lat="41.9143850" lon="-8.8822170">
        <ele>7.4</ele>
        <time>2021-05-19T05:28:08Z</time>
      </trkpt>
      <trkpt lat="41.9143930" lon="-8.8822200">
        <ele>7.3</ele>
        <time>2021-05-19T05:28:09Z</time>
      </trkpt>
      <trkpt lat="41.9144160" lon="-8.8822250">
        <ele>7.3</ele>
        <time>2021-05-19T05:28:10Z</time>
      </trkpt>
      <trkpt lat="41.9144270" lon="-8.8822300">
        <ele>7.2</ele>
        <time>2021-05-19T05:28:11Z</time>
      </trkpt>
      <trkpt lat="41.9144370" lon="-8.8822350">
        <ele>7.2</ele>
        <time>2021-05-19T05:28:12Z</time>
      </trkpt>
      <trkpt lat="41.9144540" lon="-8.8822370">
        <ele>7.2</ele>
        <time>2021-05-19T05:28:13Z</time>
      </trkpt>
      <trkpt lat="41.9144630" lon="-8.8822400">
        <ele>7.1</ele>
        <time>2021-05-19T05:28:14Z</time>
      </trkpt>
      <trkpt lat="41.9144730" lon="-8.8822440">
        <ele>7.1</ele>
        <time>2021-05-19T05:28:15Z</time>
      </trkpt>
      <trkpt lat="41.9144820" lon="-8.8822470">
        <ele>7.1</ele>
        <time>2021-05-19T05:28:16Z</time>
      </trkpt>
      <trkpt lat="41.9144930" lon="-8.8822490">
        <ele>7.1</ele>
        <time>2021-05-19T05:28:17Z</time>
      </trkpt>
      <trkpt lat="41.9145090" lon="-8.8822560">
        <ele>7.0</ele>
        <time>2021-05-19T05:28:18Z</time>
      </trkpt>
      <trkpt lat="41.9145240" lon="-8.8822630">
        <ele>7.0</ele>
        <time>2021-05-19T05:28:19Z</time>
      </trkpt>
      <trkpt lat="41.9145350" lon="-8.8822670">
        <ele>7.0</ele>
        <time>2021-05-19T05:28:20Z</time>
      </trkpt>
      <trkpt lat="41.9145460" lon="-8.8822700">
        <ele>7.0</ele>
        <time>2021-05-19T05:28:21Z</time>
      </trkpt>
      <trkpt lat="41.9145590" lon="-8.8822820">
        <ele>7.0</ele>
        <time>2021-05-19T05:28:22Z</time>
      </trkpt>
      <trkpt lat="41.9145750" lon="-8.8822950">
        <ele>7.0</ele>
        <time>2021-05-19T05:28:23Z</time>
      </trkpt>
      <trkpt lat="41.9145920" lon="-8.8822940">
        <ele>6.9</ele>
        <time>2021-05-19T05:28:24Z</time>
      </trkpt>
      <trkpt lat="41.9146060" lon="-8.8822930">
        <ele>6.9</ele>
        <time>2021-05-19T05:28:25Z</time>
      </trkpt>
      <trkpt lat="41.9146200" lon="-8.8822940">
        <ele>6.9</ele>
        <time>2021-05-19T05:28:26Z</time>
      </trkpt>
      <trkpt lat="41.9146350" lon="-8.8822970">
        <ele>6.9</ele>
        <time>2021-05-19T05:28:27Z</time>
      </trkpt>
      <trkpt lat="41.9146500" lon="-8.8823030">
        <ele>6.9</ele>
        <time>2021-05-19T05:28:28Z</time>
      </trkpt>
      <trkpt lat="41.9146660" lon="-8.8823070">
        <ele>6.9</ele>
        <time>2021-05-19T05:28:29Z</time>
      </trkpt>
      <trkpt lat="41.9146810" lon="-8.8823130">
        <ele>6.9</ele>
        <time>2021-05-19T05:28:30Z</time>
      </trkpt>
      <trkpt lat="41.9146950" lon="-8.8823150">
        <ele>6.9</ele>
        <time>2021-05-19T05:28:31Z</time>
      </trkpt>
      <trkpt lat="41.9147090" lon="-8.8823150">
        <ele>6.9</ele>
        <time>2021-05-19T05:28:32Z</time>
      </trkpt>
      <trkpt lat="41.9147250" lon="-8.8823180">
        <ele>6.9</ele>
        <time>2021-05-19T05:28:33Z</time>
      </trkpt>
      <trkpt lat="41.9147400" lon="-8.8823180">
        <ele>6.9</ele>
        <time>2021-05-19T05:28:34Z</time>
      </trkpt>
      <trkpt lat="41.9147530" lon="-8.8823220">
        <ele>6.9</ele>
        <time>2021-05-19T05:28:35Z</time>
      </trkpt>
      <trkpt lat="41.9147680" lon="-8.8823310">
        <ele>6.9</ele>
        <time>2021-05-19T05:28:36Z</time>
      </trkpt>
      <trkpt lat="41.9147810" lon="-8.8823380">
        <ele>6.9</ele>
        <time>2021-05-19T05:28:37Z</time>
      </trkpt>
      <trkpt lat="41.9147950" lon="-8.8823420">
        <ele>6.9</ele>
        <time>2021-05-19T05:28:38Z</time>
      </trkpt>
      <trkpt lat="41.9148110" lon="-8.8823440">
        <ele>7.0</ele>
        <time>2021-05-19T05:28:39Z</time>
      </trkpt>
      <trkpt lat="41.9148180" lon="-8.8823450">
        <ele>7.0</ele>
        <time>2021-05-19T05:28:40Z</time>
      </trkpt>
      <trkpt lat="41.9148250" lon="-8.8823550">
        <ele>7.0</ele>
        <time>2021-05-19T05:28:41Z</time>
      </trkpt>
      <trkpt lat="41.9148270" lon="-8.8823580">
        <ele>7.0</ele>
        <time>2021-05-19T05:28:42Z</time>
      </trkpt>
      <trkpt lat="41.9148330" lon="-8.8823630">
        <ele>7.0</ele>
        <time>2021-05-19T05:28:43Z</time>
      </trkpt>
      <trkpt lat="41.9148380" lon="-8.8823660">
        <ele>7.0</ele>
        <time>2021-05-19T05:28:44Z</time>
      </trkpt>
      <trkpt lat="41.9148460" lon="-8.8823630">
        <ele>7.0</ele>
        <time>2021-05-19T05:28:45Z</time>
      </trkpt>
      <trkpt lat="41.9148580" lon="-8.8823610">
        <ele>7.0</ele>
        <time>2021-05-19T05:28:46Z</time>
      </trkpt>
      <trkpt lat="41.9148680" lon="-8.8823610">
        <ele>7.0</ele>
        <time>2021-05-19T05:28:47Z</time>
      </trkpt>
      <trkpt lat="41.9148770" lon="-8.8823650">
        <ele>7.0</ele>
        <time>2021-05-19T05:28:48Z</time>
      </trkpt>
      <trkpt lat="41.9148830" lon="-8.8823670">
        <ele>7.0</ele>
        <time>2021-05-19T05:28:49Z</time>
      </trkpt>
      <trkpt lat="41.9148910" lon="-8.8823740">
        <ele>7.0</ele>
        <time>2021-05-19T05:28:50Z</time>
      </trkpt>
      <trkpt lat="41.9148980" lon="-8.8823840">
        <ele>7.0</ele>
        <time>2021-05-19T05:28:51Z</time>
      </trkpt>
      <trkpt lat="41.9149030" lon="-8.8823910">
        <ele>7.0</ele>
        <time>2021-05-19T05:28:52Z</time>
      </trkpt>
      <trkpt lat="41.9149060" lon="-8.8823970">
        <ele>7.0</ele>
        <time>2021-05-19T05:28:53Z</time>
      </trkpt>
      <trkpt lat="41.9149120" lon="-8.8824000">
        <ele>7.0</ele>
        <time>2021-05-19T05:28:54Z</time>
      </trkpt>
      <trkpt lat="41.9149150" lon="-8.8824000">
        <ele>7.0</ele>
        <time>2021-05-19T05:28:55Z</time>
      </trkpt>
      <trkpt lat="41.9149120" lon="-8.8823970">
        <ele>7.0</ele>
        <time>2021-05-19T05:28:56Z</time>
      </trkpt>
      <trkpt lat="41.9149120" lon="-8.8823970">
        <ele>7.0</ele>
        <time>2021-05-19T05:28:57Z</time>
      </trkpt>
      <trkpt lat="41.9149140" lon="-8.8823960">
        <ele>7.0</ele>
        <time>2021-05-19T05:28:58Z</time>
      </trkpt>
      <trkpt lat="41.9149140" lon="-8.8823950">
        <ele>7.0</ele>
        <time>2021-05-19T05:28:59Z</time>
      </trkpt>
      <trkpt lat="41.9149140" lon="-8.8824030">
        <ele>7.0</ele>
        <time>2021-05-19T05:29:00Z</time>
      </trkpt>
      <trkpt lat="41.9149240" lon="-8.8824130">
        <ele>7.0</ele>
        <time>2021-05-19T05:29:01Z</time>
      </trkpt>
      <trkpt lat="41.9149400" lon="-8.8824250">
        <ele>7.0</ele>
        <time>2021-05-19T05:29:02Z</time>
      </trkpt>
      <trkpt lat="41.9149490" lon="-8.8824330">
        <ele>7.0</ele>
        <time>2021-05-19T05:29:03Z</time>
      </trkpt>
      <trkpt lat="41.9149570" lon="-8.8824410">
        <ele>7.0</ele>
        <time>2021-05-19T05:29:04Z</time>
      </trkpt>
      <trkpt lat="41.9149630" lon="-8.8824520">
        <ele>7.0</ele>
        <time>2021-05-19T05:29:05Z</time>
      </trkpt>
      <trkpt lat="41.9149670" lon="-8.8824620">
        <ele>7.0</ele>
        <time>2021-05-19T05:29:06Z</time>
      </trkpt>
      <trkpt lat="41.9149770" lon="-8.8824730">
        <ele>7.0</ele>
        <time>2021-05-19T05:29:07Z</time>
      </trkpt>
      <trkpt lat="41.9149890" lon="-8.8824810">
        <ele>7.0</ele>
        <time>2021-05-19T05:29:08Z</time>
      </trkpt>
      <trkpt lat="41.9150040" lon="-8.8824980">
        <ele>7.0</ele>
        <time>2021-05-19T05:29:09Z</time>
      </trkpt>
      <trkpt lat="41.9150190" lon="-8.8825120">
        <ele>7.0</ele>
        <time>2021-05-19T05:29:10Z</time>
      </trkpt>
      <trkpt lat="41.9150250" lon="-8.8825260">
        <ele>6.9</ele>
        <time>2021-05-19T05:29:11Z</time>
      </trkpt>
      <trkpt lat="41.9150310" lon="-8.8825400">
        <ele>6.9</ele>
        <time>2021-05-19T05:29:12Z</time>
      </trkpt>
      <trkpt lat="41.9150400" lon="-8.8825510">
        <ele>6.9</ele>
        <time>2021-05-19T05:29:13Z</time>
      </trkpt>
      <trkpt lat="41.9150560" lon="-8.8825630">
        <ele>6.9</ele>
        <time>2021-05-19T05:29:14Z</time>
      </trkpt>
      <trkpt lat="41.9150640" lon="-8.8825640">
        <ele>6.9</ele>
        <time>2021-05-19T05:29:15Z</time>
      </trkpt>
      <trkpt lat="41.9150750" lon="-8.8825820">
        <ele>6.9</ele>
        <time>2021-05-19T05:29:16Z</time>
      </trkpt>
      <trkpt lat="41.9150840" lon="-8.8825910">
        <ele>6.9</ele>
        <time>2021-05-19T05:29:17Z</time>
      </trkpt>
      <trkpt lat="41.9150980" lon="-8.8826260">
        <ele>6.8</ele>
        <time>2021-05-19T05:29:18Z</time>
      </trkpt>
      <trkpt lat="41.9151020" lon="-8.8826370">
        <ele>6.8</ele>
        <time>2021-05-19T05:29:19Z</time>
      </trkpt>
      <trkpt lat="41.9151150" lon="-8.8826480">
        <ele>6.8</ele>
        <time>2021-05-19T05:29:20Z</time>
      </trkpt>
      <trkpt lat="41.9151190" lon="-8.8826490">
        <ele>6.8</ele>
        <time>2021-05-19T05:29:21Z</time>
      </trkpt>
      <trkpt lat="41.9151330" lon="-8.8826560">
        <ele>6.8</ele>
        <time>2021-05-19T05:29:22Z</time>
      </trkpt>
      <trkpt lat="41.9151480" lon="-8.8826670">
        <ele>6.8</ele>
        <time>2021-05-19T05:29:23Z</time>
      </trkpt>
      <trkpt lat="41.9151600" lon="-8.8826720">
        <ele>6.7</ele>
        <time>2021-05-19T05:29:24Z</time>
      </trkpt>
      <trkpt lat="41.9151750" lon="-8.8826820">
        <ele>6.7</ele>
        <time>2021-05-19T05:29:25Z</time>
      </trkpt>
      <trkpt lat="41.9151880" lon="-8.8826890">
        <ele>6.7</ele>
        <time>2021-05-19T05:29:26Z</time>
      </trkpt>
      <trkpt lat="41.9152060" lon="-8.8826930">
        <ele>6.7</ele>
        <time>2021-05-19T05:29:27Z</time>
      </trkpt>
      <trkpt lat="41.9152230" lon="-8.8826980">
        <ele>6.7</ele>
        <time>2021-05-19T05:29:28Z</time>
      </trkpt>
      <trkpt lat="41.9152400" lon="-8.8826990">
        <ele>6.6</ele>
        <time>2021-05-19T05:29:29Z</time>
      </trkpt>
      <trkpt lat="41.9152560" lon="-8.8826950">
        <ele>6.6</ele>
        <time>2021-05-19T05:29:30Z</time>
      </trkpt>
      <trkpt lat="41.9152720" lon="-8.8826950">
        <ele>6.6</ele>
        <time>2021-05-19T05:29:31Z</time>
      </trkpt>
      <trkpt lat="41.9152890" lon="-8.8826930">
        <ele>6.6</ele>
        <time>2021-05-19T05:29:32Z</time>
      </trkpt>
      <trkpt lat="41.9153060" lon="-8.8826940">
        <ele>6.6</ele>
        <time>2021-05-19T05:29:33Z</time>
      </trkpt>
      <trkpt lat="41.9153210" lon="-8.8826920">
        <ele>6.5</ele>
        <time>2021-05-19T05:29:34Z</time>
      </trkpt>
      <trkpt lat="41.9153370" lon="-8.8827000">
        <ele>6.5</ele>
        <time>2021-05-19T05:29:35Z</time>
      </trkpt>
      <trkpt lat="41.9153520" lon="-8.8827040">
        <ele>6.5</ele>
        <time>2021-05-19T05:29:36Z</time>
      </trkpt>
      <trkpt lat="41.9153670" lon="-8.8827080">
        <ele>6.5</ele>
        <time>2021-05-19T05:29:37Z</time>
      </trkpt>
      <trkpt lat="41.9153820" lon="-8.8827170">
        <ele>6.5</ele>
        <time>2021-05-19T05:29:38Z</time>
      </trkpt>
      <trkpt lat="41.9153970" lon="-8.8827190">
        <ele>6.5</ele>
        <time>2021-05-19T05:29:39Z</time>
      </trkpt>
      <trkpt lat="41.9154110" lon="-8.8827220">
        <ele>6.4</ele>
        <time>2021-05-19T05:29:40Z</time>
      </trkpt>
      <trkpt lat="41.9154270" lon="-8.8827240">
        <ele>6.4</ele>
        <time>2021-05-19T05:29:41Z</time>
      </trkpt>
      <trkpt lat="41.9154420" lon="-8.8827290">
        <ele>6.4</ele>
        <time>2021-05-19T05:29:42Z</time>
      </trkpt>
      <trkpt lat="41.9154560" lon="-8.8827350">
        <ele>6.4</ele>
        <time>2021-05-19T05:29:43Z</time>
      </trkpt>
      <trkpt lat="41.9154690" lon="-8.8827480">
        <ele>6.4</ele>
        <time>2021-05-19T05:29:44Z</time>
      </trkpt>
      <trkpt lat="41.9154830" lon="-8.8827550">
        <ele>6.4</ele>
        <time>2021-05-19T05:29:45Z</time>
      </trkpt>
      <trkpt lat="41.9154960" lon="-8.8827600">
        <ele>6.4</ele>
        <time>2021-05-19T05:29:46Z</time>
      </trkpt>
      <trkpt lat="41.9155100" lon="-8.8827660">
        <ele>6.4</ele>
        <time>2021-05-19T05:29:47Z</time>
      </trkpt>
      <trkpt lat="41.9155240" lon="-8.8827640">
        <ele>6.4</ele>
        <time>2021-05-19T05:29:48Z</time>
      </trkpt>
      <trkpt lat="41.9155450" lon="-8.8827700">
        <ele>6.4</ele>
        <time>2021-05-19T05:29:49Z</time>
      </trkpt>
      <trkpt lat="41.9155540" lon="-8.8827740">
        <ele>6.3</ele>
        <time>2021-05-19T05:29:50Z</time>
      </trkpt>
      <trkpt lat="41.9155620" lon="-8.8827790">
        <ele>6.3</ele>
        <time>2021-05-19T05:29:51Z</time>
      </trkpt>
      <trkpt lat="41.9155770" lon="-8.8827820">
        <ele>6.3</ele>
        <time>2021-05-19T05:29:52Z</time>
      </trkpt>
      <trkpt lat="41.9155930" lon="-8.8827750">
        <ele>6.3</ele>
        <time>2021-05-19T05:29:53Z</time>
      </trkpt>
      <trkpt lat="41.9156080" lon="-8.8827690">
        <ele>6.3</ele>
        <time>2021-05-19T05:29:54Z</time>
      </trkpt>
      <trkpt lat="41.9156200" lon="-8.8827670">
        <ele>6.3</ele>
        <time>2021-05-19T05:29:55Z</time>
      </trkpt>
      <trkpt lat="41.9156390" lon="-8.8827550">
        <ele>6.4</ele>
        <time>2021-05-19T05:29:56Z</time>
      </trkpt>
      <trkpt lat="41.9156490" lon="-8.8827490">
        <ele>6.4</ele>
        <time>2021-05-19T05:29:57Z</time>
      </trkpt>
      <trkpt lat="41.9156580" lon="-8.8827420">
        <ele>6.4</ele>
        <time>2021-05-19T05:29:58Z</time>
      </trkpt>
      <trkpt lat="41.9156720" lon="-8.8827370">
        <ele>6.4</ele>
        <time>2021-05-19T05:29:59Z</time>
      </trkpt>
      <trkpt lat="41.9156850" lon="-8.8827340">
        <ele>6.4</ele>
        <time>2021-05-19T05:30:00Z</time>
      </trkpt>
      <trkpt lat="41.9156990" lon="-8.8827340">
        <ele>6.4</ele>
        <time>2021-05-19T05:30:01Z</time>
      </trkpt>
      <trkpt lat="41.9157130" lon="-8.8827320">
        <ele>6.4</ele>
        <time>2021-05-19T05:30:02Z</time>
      </trkpt>
      <trkpt lat="41.9157270" lon="-8.8827330">
        <ele>6.4</ele>
        <time>2021-05-19T05:30:03Z</time>
      </trkpt>
      <trkpt lat="41.9157400" lon="-8.8827240">
        <ele>6.4</ele>
        <time>2021-05-19T05:30:04Z</time>
      </trkpt>
      <trkpt lat="41.9157550" lon="-8.8827200">
        <ele>6.5</ele>
        <time>2021-05-19T05:30:05Z</time>
      </trkpt>
      <trkpt lat="41.9157670" lon="-8.8827140">
        <ele>6.4</ele>
        <time>2021-05-19T05:30:06Z</time>
      </trkpt>
      <trkpt lat="41.9157900" lon="-8.8827120">
        <ele>6.4</ele>
        <time>2021-05-19T05:30:07Z</time>
      </trkpt>
      <trkpt lat="41.9157990" lon="-8.8827120">
        <ele>6.4</ele>
        <time>2021-05-19T05:30:08Z</time>
      </trkpt>
      <trkpt lat="41.9158080" lon="-8.8827130">
        <ele>6.4</ele>
        <time>2021-05-19T05:30:09Z</time>
      </trkpt>
      <trkpt lat="41.9158220" lon="-8.8827110">
        <ele>6.4</ele>
        <time>2021-05-19T05:30:10Z</time>
      </trkpt>
      <trkpt lat="41.9158350" lon="-8.8827240">
        <ele>6.4</ele>
        <time>2021-05-19T05:30:11Z</time>
      </trkpt>
      <trkpt lat="41.9158460" lon="-8.8827300">
        <ele>6.4</ele>
        <time>2021-05-19T05:30:12Z</time>
      </trkpt>
      <trkpt lat="41.9158540" lon="-8.8827390">
        <ele>6.4</ele>
        <time>2021-05-19T05:30:13Z</time>
      </trkpt>
      <trkpt lat="41.9158650" lon="-8.8827450">
        <ele>6.4</ele>
        <time>2021-05-19T05:30:14Z</time>
      </trkpt>
      <trkpt lat="41.9158830" lon="-8.8827610">
        <ele>6.4</ele>
        <time>2021-05-19T05:30:15Z</time>
      </trkpt>
      <trkpt lat="41.9158900" lon="-8.8827670">
        <ele>6.4</ele>
        <time>2021-05-19T05:30:16Z</time>
      </trkpt>
      <trkpt lat="41.9158970" lon="-8.8827730">
        <ele>6.4</ele>
        <time>2021-05-19T05:30:17Z</time>
      </trkpt>
      <trkpt lat="41.9159130" lon="-8.8827840">
        <ele>6.4</ele>
        <time>2021-05-19T05:30:18Z</time>
      </trkpt>
      <trkpt lat="41.9159250" lon="-8.8827850">
        <ele>6.4</ele>
        <time>2021-05-19T05:30:19Z</time>
      </trkpt>
      <trkpt lat="41.9159390" lon="-8.8827870">
        <ele>6.4</ele>
        <time>2021-05-19T05:30:20Z</time>
      </trkpt>
      <trkpt lat="41.9159530" lon="-8.8827900">
        <ele>6.4</ele>
        <time>2021-05-19T05:30:21Z</time>
      </trkpt>
      <trkpt lat="41.9159670" lon="-8.8827940">
        <ele>6.4</ele>
        <time>2021-05-19T05:30:22Z</time>
      </trkpt>
      <trkpt lat="41.9159790" lon="-8.8827960">
        <ele>6.4</ele>
        <time>2021-05-19T05:30:23Z</time>
      </trkpt>
      <trkpt lat="41.9159920" lon="-8.8827990">
        <ele>6.4</ele>
        <time>2021-05-19T05:30:24Z</time>
      </trkpt>
      <trkpt lat="41.9160050" lon="-8.8828060">
        <ele>6.4</ele>
        <time>2021-05-19T05:30:25Z</time>
      </trkpt>
      <trkpt lat="41.9160120" lon="-8.8828110">
        <ele>6.4</ele>
        <time>2021-05-19T05:30:26Z</time>
      </trkpt>
      <trkpt lat="41.9160190" lon="-8.8828120">
        <ele>6.4</ele>
        <time>2021-05-19T05:30:27Z</time>
      </trkpt>
      <trkpt lat="41.9160270" lon="-8.8828250">
        <ele>6.4</ele>
        <time>2021-05-19T05:30:28Z</time>
      </trkpt>
      <trkpt lat="41.9160330" lon="-8.8828340">
        <ele>6.4</ele>
        <time>2021-05-19T05:30:29Z</time>
      </trkpt>
      <trkpt lat="41.9160400" lon="-8.8828410">
        <ele>6.4</ele>
        <time>2021-05-19T05:30:30Z</time>
      </trkpt>
      <trkpt lat="41.9160480" lon="-8.8828490">
        <ele>6.4</ele>
        <time>2021-05-19T05:30:31Z</time>
      </trkpt>
      <trkpt lat="41.9160540" lon="-8.8828580">
        <ele>6.4</ele>
        <time>2021-05-19T05:30:32Z</time>
      </trkpt>
      <trkpt lat="41.9160630" lon="-8.8828690">
        <ele>6.4</ele>
        <time>2021-05-19T05:30:33Z</time>
      </trkpt>
      <trkpt lat="41.9160700" lon="-8.8828760">
        <ele>6.4</ele>
        <time>2021-05-19T05:30:34Z</time>
      </trkpt>
      <trkpt lat="41.9160780" lon="-8.8828880">
        <ele>6.4</ele>
        <time>2021-05-19T05:30:35Z</time>
      </trkpt>
      <trkpt lat="41.9160870" lon="-8.8829010">
        <ele>6.4</ele>
        <time>2021-05-19T05:30:36Z</time>
      </trkpt>
      <trkpt lat="41.9160940" lon="-8.8829110">
        <ele>6.4</ele>
        <time>2021-05-19T05:30:37Z</time>
      </trkpt>
      <trkpt lat="41.9161010" lon="-8.8829170">
        <ele>6.4</ele>
        <time>2021-05-19T05:30:38Z</time>
      </trkpt>
      <trkpt lat="41.9161100" lon="-8.8829200">
        <ele>6.4</ele>
        <time>2021-05-19T05:30:39Z</time>
      </trkpt>
      <trkpt lat="41.9161140" lon="-8.8829290">
        <ele>6.4</ele>
        <time>2021-05-19T05:30:40Z</time>
      </trkpt>
      <trkpt lat="41.9161170" lon="-8.8829450">
        <ele>6.4</ele>
        <time>2021-05-19T05:30:41Z</time>
      </trkpt>
      <trkpt lat="41.9161190" lon="-8.8829700">
        <ele>6.4</ele>
        <time>2021-05-19T05:30:42Z</time>
      </trkpt>
      <trkpt lat="41.9161200" lon="-8.8829810">
        <ele>6.4</ele>
        <time>2021-05-19T05:30:43Z</time>
      </trkpt>
      <trkpt lat="41.9161200" lon="-8.8829920">
        <ele>6.4</ele>
        <time>2021-05-19T05:30:44Z</time>
      </trkpt>
      <trkpt lat="41.9161210" lon="-8.8830030">
        <ele>6.4</ele>
        <time>2021-05-19T05:30:45Z</time>
      </trkpt>
      <trkpt lat="41.9161350" lon="-8.8830240">
        <ele>6.4</ele>
        <time>2021-05-19T05:30:46Z</time>
      </trkpt>
      <trkpt lat="41.9161380" lon="-8.8830370">
        <ele>6.3</ele>
        <time>2021-05-19T05:30:47Z</time>
      </trkpt>
      <trkpt lat="41.9161390" lon="-8.8830510">
        <ele>6.3</ele>
        <time>2021-05-19T05:30:48Z</time>
      </trkpt>
      <trkpt lat="41.9161470" lon="-8.8830690">
        <ele>6.3</ele>
        <time>2021-05-19T05:30:49Z</time>
      </trkpt>
      <trkpt lat="41.9161430" lon="-8.8830810">
        <ele>6.3</ele>
        <time>2021-05-19T05:30:50Z</time>
      </trkpt>
      <trkpt lat="41.9161520" lon="-8.8831060">
        <ele>6.3</ele>
        <time>2021-05-19T05:30:51Z</time>
      </trkpt>
      <trkpt lat="41.9161560" lon="-8.8831210">
        <ele>6.3</ele>
        <time>2021-05-19T05:30:52Z</time>
      </trkpt>
      <trkpt lat="41.9161630" lon="-8.8831340">
        <ele>6.3</ele>
        <time>2021-05-19T05:30:53Z</time>
      </trkpt>
      <trkpt lat="41.9161680" lon="-8.8831460">
        <ele>6.3</ele>
        <time>2021-05-19T05:30:54Z</time>
      </trkpt>
      <trkpt lat="41.9161740" lon="-8.8831590">
        <ele>6.3</ele>
        <time>2021-05-19T05:30:55Z</time>
      </trkpt>
      <trkpt lat="41.9161800" lon="-8.8831680">
        <ele>6.3</ele>
        <time>2021-05-19T05:30:56Z</time>
      </trkpt>
      <trkpt lat="41.9161820" lon="-8.8831950">
        <ele>6.3</ele>
        <time>2021-05-19T05:30:57Z</time>
      </trkpt>
      <trkpt lat="41.9161880" lon="-8.8832020">
        <ele>6.3</ele>
        <time>2021-05-19T05:30:58Z</time>
      </trkpt>
      <trkpt lat="41.9161930" lon="-8.8832150">
        <ele>6.3</ele>
        <time>2021-05-19T05:30:59Z</time>
      </trkpt>
      <trkpt lat="41.9162020" lon="-8.8832310">
        <ele>6.3</ele>
        <time>2021-05-19T05:31:00Z</time>
      </trkpt>
      <trkpt lat="41.9162110" lon="-8.8832600">
        <ele>6.3</ele>
        <time>2021-05-19T05:31:01Z</time>
      </trkpt>
      <trkpt lat="41.9162130" lon="-8.8832690">
        <ele>6.3</ele>
        <time>2021-05-19T05:31:02Z</time>
      </trkpt>
      <trkpt lat="41.9162160" lon="-8.8832780">
        <ele>6.3</ele>
        <time>2021-05-19T05:31:03Z</time>
      </trkpt>
      <trkpt lat="41.9162180" lon="-8.8832920">
        <ele>6.2</ele>
        <time>2021-05-19T05:31:04Z</time>
      </trkpt>
      <trkpt lat="41.9162280" lon="-8.8833070">
        <ele>6.2</ele>
        <time>2021-05-19T05:31:05Z</time>
      </trkpt>
      <trkpt lat="41.9162270" lon="-8.8833180">
        <ele>6.2</ele>
        <time>2021-05-19T05:31:06Z</time>
      </trkpt>
      <trkpt lat="41.9162320" lon="-8.8833270">
        <ele>6.2</ele>
        <time>2021-05-19T05:31:07Z</time>
      </trkpt>
      <trkpt lat="41.9162380" lon="-8.8833360">
        <ele>6.2</ele>
        <time>2021-05-19T05:31:08Z</time>
      </trkpt>
      <trkpt lat="41.9162390" lon="-8.8833600">
        <ele>6.2</ele>
        <time>2021-05-19T05:31:09Z</time>
      </trkpt>
      <trkpt lat="41.9162450" lon="-8.8833760">
        <ele>6.2</ele>
        <time>2021-05-19T05:31:10Z</time>
      </trkpt>
      <trkpt lat="41.9162490" lon="-8.8833890">
        <ele>6.2</ele>
        <time>2021-05-19T05:31:11Z</time>
      </trkpt>
      <trkpt lat="41.9162590" lon="-8.8833990">
        <ele>6.2</ele>
        <time>2021-05-19T05:31:12Z</time>
      </trkpt>
      <trkpt lat="41.9162750" lon="-8.8834200">
        <ele>6.2</ele>
        <time>2021-05-19T05:31:13Z</time>
      </trkpt>
      <trkpt lat="41.9162810" lon="-8.8834330">
        <ele>6.2</ele>
        <time>2021-05-19T05:31:14Z</time>
      </trkpt>
      <trkpt lat="41.9162860" lon="-8.8834450">
        <ele>6.2</ele>
        <time>2021-05-19T05:31:15Z</time>
      </trkpt>
      <trkpt lat="41.9162970" lon="-8.8834600">
        <ele>6.2</ele>
        <time>2021-05-19T05:31:16Z</time>
      </trkpt>
      <trkpt lat="41.9163060" lon="-8.8834740">
        <ele>6.2</ele>
        <time>2021-05-19T05:31:17Z</time>
      </trkpt>
      <trkpt lat="41.9163170" lon="-8.8834890">
        <ele>6.2</ele>
        <time>2021-05-19T05:31:18Z</time>
      </trkpt>
      <trkpt lat="41.9163260" lon="-8.8835060">
        <ele>6.2</ele>
        <time>2021-05-19T05:31:19Z</time>
      </trkpt>
      <trkpt lat="41.9163350" lon="-8.8835210">
        <ele>6.3</ele>
        <time>2021-05-19T05:31:20Z</time>
      </trkpt>
      <trkpt lat="41.9163470" lon="-8.8835350">
        <ele>6.3</ele>
        <time>2021-05-19T05:31:21Z</time>
      </trkpt>
      <trkpt lat="41.9163610" lon="-8.8835430">
        <ele>6.3</ele>
        <time>2021-05-19T05:31:22Z</time>
      </trkpt>
      <trkpt lat="41.9163700" lon="-8.8835590">
        <ele>6.3</ele>
        <time>2021-05-19T05:31:23Z</time>
      </trkpt>
      <trkpt lat="41.9163830" lon="-8.8835690">
        <ele>6.3</ele>
        <time>2021-05-19T05:31:24Z</time>
      </trkpt>
      <trkpt lat="41.9163930" lon="-8.8835860">
        <ele>6.3</ele>
        <time>2021-05-19T05:31:25Z</time>
      </trkpt>
      <trkpt lat="41.9164050" lon="-8.8835980">
        <ele>6.3</ele>
        <time>2021-05-19T05:31:26Z</time>
      </trkpt>
      <trkpt lat="41.9164190" lon="-8.8836070">
        <ele>6.3</ele>
        <time>2021-05-19T05:31:27Z</time>
      </trkpt>
      <trkpt lat="41.9164280" lon="-8.8836200">
        <ele>6.3</ele>
        <time>2021-05-19T05:31:28Z</time>
      </trkpt>
      <trkpt lat="41.9164410" lon="-8.8836290">
        <ele>6.4</ele>
        <time>2021-05-19T05:31:29Z</time>
      </trkpt>
      <trkpt lat="41.9164530" lon="-8.8836390">
        <ele>6.4</ele>
        <time>2021-05-19T05:31:30Z</time>
      </trkpt>
      <trkpt lat="41.9164690" lon="-8.8836450">
        <ele>6.4</ele>
        <time>2021-05-19T05:31:31Z</time>
      </trkpt>
      <trkpt lat="41.9164810" lon="-8.8836530">
        <ele>6.4</ele>
        <time>2021-05-19T05:31:32Z</time>
      </trkpt>
      <trkpt lat="41.9164880" lon="-8.8836610">
        <ele>6.4</ele>
        <time>2021-05-19T05:31:33Z</time>
      </trkpt>
      <trkpt lat="41.9164940" lon="-8.8836650">
        <ele>6.4</ele>
        <time>2021-05-19T05:31:34Z</time>
      </trkpt>
      <trkpt lat="41.9164980" lon="-8.8836600">
        <ele>6.4</ele>
        <time>2021-05-19T05:31:35Z</time>
      </trkpt>
      <trkpt lat="41.9165150" lon="-8.8836730">
        <ele>6.4</ele>
        <time>2021-05-19T05:31:36Z</time>
      </trkpt>
      <trkpt lat="41.9165270" lon="-8.8836740">
        <ele>6.4</ele>
        <time>2021-05-19T05:31:37Z</time>
      </trkpt>
      <trkpt lat="41.9165370" lon="-8.8836700">
        <ele>6.4</ele>
        <time>2021-05-19T05:31:38Z</time>
      </trkpt>
      <trkpt lat="41.9165480" lon="-8.8836690">
        <ele>6.4</ele>
        <time>2021-05-19T05:31:39Z</time>
      </trkpt>
      <trkpt lat="41.9165550" lon="-8.8836670">
        <ele>6.4</ele>
        <time>2021-05-19T05:31:40Z</time>
      </trkpt>
      <trkpt lat="41.9165690" lon="-8.8836610">
        <ele>6.5</ele>
        <time>2021-05-19T05:31:41Z</time>
      </trkpt>
      <trkpt lat="41.9165790" lon="-8.8836600">
        <ele>6.5</ele>
        <time>2021-05-19T05:31:42Z</time>
      </trkpt>
      <trkpt lat="41.9165890" lon="-8.8836600">
        <ele>6.5</ele>
        <time>2021-05-19T05:31:43Z</time>
      </trkpt>
      <trkpt lat="41.9165990" lon="-8.8836590">
        <ele>6.5</ele>
        <time>2021-05-19T05:31:44Z</time>
      </trkpt>
      <trkpt lat="41.9166070" lon="-8.8836530">
        <ele>6.5</ele>
        <time>2021-05-19T05:31:45Z</time>
      </trkpt>
      <trkpt lat="41.9166180" lon="-8.8836450">
        <ele>6.5</ele>
        <time>2021-05-19T05:31:46Z</time>
      </trkpt>
      <trkpt lat="41.9166330" lon="-8.8836430">
        <ele>6.5</ele>
        <time>2021-05-19T05:31:47Z</time>
      </trkpt>
      <trkpt lat="41.9166420" lon="-8.8836410">
        <ele>6.5</ele>
        <time>2021-05-19T05:31:48Z</time>
      </trkpt>
      <trkpt lat="41.9166610" lon="-8.8836360">
        <ele>6.5</ele>
        <time>2021-05-19T05:31:49Z</time>
      </trkpt>
      <trkpt lat="41.9166650" lon="-8.8836340">
        <ele>6.5</ele>
        <time>2021-05-19T05:31:50Z</time>
      </trkpt>
      <trkpt lat="41.9166750" lon="-8.8836290">
        <ele>6.5</ele>
        <time>2021-05-19T05:31:51Z</time>
      </trkpt>
      <trkpt lat="41.9166890" lon="-8.8836260">
        <ele>6.5</ele>
        <time>2021-05-19T05:31:52Z</time>
      </trkpt>
      <trkpt lat="41.9167000" lon="-8.8836220">
        <ele>6.6</ele>
        <time>2021-05-19T05:31:53Z</time>
      </trkpt>
      <trkpt lat="41.9167140" lon="-8.8836200">
        <ele>6.6</ele>
        <time>2021-05-19T05:31:54Z</time>
      </trkpt>
      <trkpt lat="41.9167190" lon="-8.8836130">
        <ele>6.6</ele>
        <time>2021-05-19T05:31:55Z</time>
      </trkpt>
      <trkpt lat="41.9167300" lon="-8.8836070">
        <ele>6.6</ele>
        <time>2021-05-19T05:31:56Z</time>
      </trkpt>
      <trkpt lat="41.9167400" lon="-8.8836050">
        <ele>6.6</ele>
        <time>2021-05-19T05:31:57Z</time>
      </trkpt>
      <trkpt lat="41.9167550" lon="-8.8836040">
        <ele>6.6</ele>
        <time>2021-05-19T05:31:58Z</time>
      </trkpt>
      <trkpt lat="41.9167740" lon="-8.8835960">
        <ele>6.6</ele>
        <time>2021-05-19T05:31:59Z</time>
      </trkpt>
      <trkpt lat="41.9167810" lon="-8.8835930">
        <ele>6.6</ele>
        <time>2021-05-19T05:32:00Z</time>
      </trkpt>
      <trkpt lat="41.9167890" lon="-8.8835890">
        <ele>6.6</ele>
        <time>2021-05-19T05:32:01Z</time>
      </trkpt>
      <trkpt lat="41.9167980" lon="-8.8835900">
        <ele>6.6</ele>
        <time>2021-05-19T05:32:02Z</time>
      </trkpt>
      <trkpt lat="41.9168150" lon="-8.8835890">
        <ele>6.6</ele>
        <time>2021-05-19T05:32:03Z</time>
      </trkpt>
      <trkpt lat="41.9168220" lon="-8.8835860">
        <ele>6.6</ele>
        <time>2021-05-19T05:32:04Z</time>
      </trkpt>
      <trkpt lat="41.9168400" lon="-8.8835740">
        <ele>6.7</ele>
        <time>2021-05-19T05:32:05Z</time>
      </trkpt>
      <trkpt lat="41.9168480" lon="-8.8835750">
        <ele>6.7</ele>
        <time>2021-05-19T05:32:06Z</time>
      </trkpt>
      <trkpt lat="41.9168610" lon="-8.8835700">
        <ele>6.7</ele>
        <time>2021-05-19T05:32:07Z</time>
      </trkpt>
      <trkpt lat="41.9168770" lon="-8.8835660">
        <ele>6.7</ele>
        <time>2021-05-19T05:32:08Z</time>
      </trkpt>
      <trkpt lat="41.9168890" lon="-8.8835640">
        <ele>6.7</ele>
        <time>2021-05-19T05:32:09Z</time>
      </trkpt>
      <trkpt lat="41.9169020" lon="-8.8835600">
        <ele>6.7</ele>
        <time>2021-05-19T05:32:10Z</time>
      </trkpt>
      <trkpt lat="41.9169100" lon="-8.8835530">
        <ele>6.7</ele>
        <time>2021-05-19T05:32:11Z</time>
      </trkpt>
      <trkpt lat="41.9169210" lon="-8.8835500">
        <ele>6.7</ele>
        <time>2021-05-19T05:32:12Z</time>
      </trkpt>
      <trkpt lat="41.9169300" lon="-8.8835460">
        <ele>6.7</ele>
        <time>2021-05-19T05:32:13Z</time>
      </trkpt>
      <trkpt lat="41.9169440" lon="-8.8835420">
        <ele>6.7</ele>
        <time>2021-05-19T05:32:14Z</time>
      </trkpt>
      <trkpt lat="41.9169530" lon="-8.8835340">
        <ele>6.8</ele>
        <time>2021-05-19T05:32:15Z</time>
      </trkpt>
      <trkpt lat="41.9169640" lon="-8.8835320">
        <ele>6.8</ele>
        <time>2021-05-19T05:32:16Z</time>
      </trkpt>
      <trkpt lat="41.9169750" lon="-8.8835260">
        <ele>6.8</ele>
        <time>2021-05-19T05:32:17Z</time>
      </trkpt>
      <trkpt lat="41.9169960" lon="-8.8835190">
        <ele>6.8</ele>
        <time>2021-05-19T05:32:18Z</time>
      </trkpt>
      <trkpt lat="41.9170040" lon="-8.8835180">
        <ele>6.8</ele>
        <time>2021-05-19T05:32:19Z</time>
      </trkpt>
      <trkpt lat="41.9170110" lon="-8.8835160">
        <ele>6.8</ele>
        <time>2021-05-19T05:32:20Z</time>
      </trkpt>
      <trkpt lat="41.9170350" lon="-8.8835090">
        <ele>6.8</ele>
        <time>2021-05-19T05:32:21Z</time>
      </trkpt>
      <trkpt lat="41.9170450" lon="-8.8835060">
        <ele>6.8</ele>
        <time>2021-05-19T05:32:22Z</time>
      </trkpt>
      <trkpt lat="41.9170550" lon="-8.8835030">
        <ele>6.8</ele>
        <time>2021-05-19T05:32:23Z</time>
      </trkpt>
      <trkpt lat="41.9170670" lon="-8.8835050">
        <ele>6.8</ele>
        <time>2021-05-19T05:32:24Z</time>
      </trkpt>
      <trkpt lat="41.9170820" lon="-8.8835080">
        <ele>6.8</ele>
        <time>2021-05-19T05:32:25Z</time>
      </trkpt>
      <trkpt lat="41.9170980" lon="-8.8835100">
        <ele>6.9</ele>
        <time>2021-05-19T05:32:26Z</time>
      </trkpt>
      <trkpt lat="41.9171090" lon="-8.8835140">
        <ele>6.9</ele>
        <time>2021-05-19T05:32:27Z</time>
      </trkpt>
      <trkpt lat="41.9171230" lon="-8.8835220">
        <ele>6.9</ele>
        <time>2021-05-19T05:32:28Z</time>
      </trkpt>
      <trkpt lat="41.9171330" lon="-8.8835200">
        <ele>6.9</ele>
        <time>2021-05-19T05:32:29Z</time>
      </trkpt>
      <trkpt lat="41.9171450" lon="-8.8835200">
        <ele>6.9</ele>
        <time>2021-05-19T05:32:30Z</time>
      </trkpt>
      <trkpt lat="41.9171600" lon="-8.8835270">
        <ele>6.9</ele>
        <time>2021-05-19T05:32:31Z</time>
      </trkpt>
      <trkpt lat="41.9171730" lon="-8.8835280">
        <ele>6.9</ele>
        <time>2021-05-19T05:32:32Z</time>
      </trkpt>
      <trkpt lat="41.9171840" lon="-8.8835250">
        <ele>6.9</ele>
        <time>2021-05-19T05:32:33Z</time>
      </trkpt>
      <trkpt lat="41.9171990" lon="-8.8835200">
        <ele>6.9</ele>
        <time>2021-05-19T05:32:34Z</time>
      </trkpt>
      <trkpt lat="41.9172070" lon="-8.8835190">
        <ele>6.9</ele>
        <time>2021-05-19T05:32:35Z</time>
      </trkpt>
      <trkpt lat="41.9172300" lon="-8.8835110">
        <ele>6.9</ele>
        <time>2021-05-19T05:32:36Z</time>
      </trkpt>
      <trkpt lat="41.9172390" lon="-8.8835070">
        <ele>6.9</ele>
        <time>2021-05-19T05:32:37Z</time>
      </trkpt>
      <trkpt lat="41.9172480" lon="-8.8835030">
        <ele>6.8</ele>
        <time>2021-05-19T05:32:38Z</time>
      </trkpt>
      <trkpt lat="41.9172620" lon="-8.8834930">
        <ele>6.8</ele>
        <time>2021-05-19T05:32:39Z</time>
      </trkpt>
      <trkpt lat="41.9172730" lon="-8.8834900">
        <ele>6.8</ele>
        <time>2021-05-19T05:32:40Z</time>
      </trkpt>
      <trkpt lat="41.9172890" lon="-8.8834830">
        <ele>6.8</ele>
        <time>2021-05-19T05:32:41Z</time>
      </trkpt>
      <trkpt lat="41.9172970" lon="-8.8834720">
        <ele>6.8</ele>
        <time>2021-05-19T05:32:42Z</time>
      </trkpt>
      <trkpt lat="41.9173110" lon="-8.8834590">
        <ele>6.8</ele>
        <time>2021-05-19T05:32:43Z</time>
      </trkpt>
      <trkpt lat="41.9173190" lon="-8.8834540">
        <ele>6.8</ele>
        <time>2021-05-19T05:32:44Z</time>
      </trkpt>
      <trkpt lat="41.9173260" lon="-8.8834480">
        <ele>6.8</ele>
        <time>2021-05-19T05:32:45Z</time>
      </trkpt>
      <trkpt lat="41.9173340" lon="-8.8834420">
        <ele>6.8</ele>
        <time>2021-05-19T05:32:46Z</time>
      </trkpt>
      <trkpt lat="41.9173450" lon="-8.8834310">
        <ele>6.8</ele>
        <time>2021-05-19T05:32:47Z</time>
      </trkpt>
      <trkpt lat="41.9173560" lon="-8.8834170">
        <ele>6.8</ele>
        <time>2021-05-19T05:32:48Z</time>
      </trkpt>
      <trkpt lat="41.9173660" lon="-8.8834120">
        <ele>6.8</ele>
        <time>2021-05-19T05:32:49Z</time>
      </trkpt>
      <trkpt lat="41.9173760" lon="-8.8834040">
        <ele>6.8</ele>
        <time>2021-05-19T05:32:50Z</time>
      </trkpt>
      <trkpt lat="41.9173890" lon="-8.8833980">
        <ele>6.8</ele>
        <time>2021-05-19T05:32:51Z</time>
      </trkpt>
      <trkpt lat="41.9174010" lon="-8.8833900">
        <ele>6.8</ele>
        <time>2021-05-19T05:32:52Z</time>
      </trkpt>
      <trkpt lat="41.9174130" lon="-8.8833820">
        <ele>6.8</ele>
        <time>2021-05-19T05:32:53Z</time>
      </trkpt>
      <trkpt lat="41.9174190" lon="-8.8833750">
        <ele>6.8</ele>
        <time>2021-05-19T05:32:54Z</time>
      </trkpt>
      <trkpt lat="41.9174340" lon="-8.8833690">
        <ele>6.8</ele>
        <time>2021-05-19T05:32:55Z</time>
      </trkpt>
      <trkpt lat="41.9174430" lon="-8.8833700">
        <ele>6.8</ele>
        <time>2021-05-19T05:32:56Z</time>
      </trkpt>
      <trkpt lat="41.9174520" lon="-8.8833660">
        <ele>6.8</ele>
        <time>2021-05-19T05:32:57Z</time>
      </trkpt>
      <trkpt lat="41.9174660" lon="-8.8833660">
        <ele>6.8</ele>
        <time>2021-05-19T05:32:58Z</time>
      </trkpt>
      <trkpt lat="41.9174800" lon="-8.8833730">
        <ele>6.8</ele>
        <time>2021-05-19T05:32:59Z</time>
      </trkpt>
      <trkpt lat="41.9174940" lon="-8.8833760">
        <ele>6.8</ele>
        <time>2021-05-19T05:33:00Z</time>
      </trkpt>
      <trkpt lat="41.9175040" lon="-8.8833740">
        <ele>6.8</ele>
        <time>2021-05-19T05:33:01Z</time>
      </trkpt>
      <trkpt lat="41.9175130" lon="-8.8833670">
        <ele>6.8</ele>
        <time>2021-05-19T05:33:02Z</time>
      </trkpt>
      <trkpt lat="41.9175260" lon="-8.8833700">
        <ele>6.8</ele>
        <time>2021-05-19T05:33:03Z</time>
      </trkpt>
      <trkpt lat="41.9175410" lon="-8.8833690">
        <ele>6.8</ele>
        <time>2021-05-19T05:33:04Z</time>
      </trkpt>
      <trkpt lat="41.9175580" lon="-8.8833710">
        <ele>6.8</ele>
        <time>2021-05-19T05:33:05Z</time>
      </trkpt>
      <trkpt lat="41.9175700" lon="-8.8833740">
        <ele>6.8</ele>
        <time>2021-05-19T05:33:06Z</time>
      </trkpt>
      <trkpt lat="41.9175860" lon="-8.8833650">
        <ele>6.8</ele>
        <time>2021-05-19T05:33:07Z</time>
      </trkpt>
      <trkpt lat="41.9175980" lon="-8.8833660">
        <ele>6.8</ele>
        <time>2021-05-19T05:33:08Z</time>
      </trkpt>
      <trkpt lat="41.9176160" lon="-8.8833640">
        <ele>6.8</ele>
        <time>2021-05-19T05:33:09Z</time>
      </trkpt>
      <trkpt lat="41.9176260" lon="-8.8833630">
        <ele>6.8</ele>
        <time>2021-05-19T05:33:10Z</time>
      </trkpt>
      <trkpt lat="41.9176360" lon="-8.8833610">
        <ele>6.8</ele>
        <time>2021-05-19T05:33:11Z</time>
      </trkpt>
      <trkpt lat="41.9176460" lon="-8.8833650">
        <ele>6.8</ele>
        <time>2021-05-19T05:33:12Z</time>
      </trkpt>
      <trkpt lat="41.9176500" lon="-8.8833590">
        <ele>6.8</ele>
        <time>2021-05-19T05:33:13Z</time>
      </trkpt>
      <trkpt lat="41.9176690" lon="-8.8833580">
        <ele>6.8</ele>
        <time>2021-05-19T05:33:14Z</time>
      </trkpt>
      <trkpt lat="41.9176750" lon="-8.8833570">
        <ele>6.8</ele>
        <time>2021-05-19T05:33:15Z</time>
      </trkpt>
      <trkpt lat="41.9176880" lon="-8.8833510">
        <ele>6.8</ele>
        <time>2021-05-19T05:33:16Z</time>
      </trkpt>
      <trkpt lat="41.9177000" lon="-8.8833470">
        <ele>6.8</ele>
        <time>2021-05-19T05:33:17Z</time>
      </trkpt>
      <trkpt lat="41.9177120" lon="-8.8833390">
        <ele>6.8</ele>
        <time>2021-05-19T05:33:18Z</time>
      </trkpt>
      <trkpt lat="41.9177240" lon="-8.8833290">
        <ele>6.8</ele>
        <time>2021-05-19T05:33:19Z</time>
      </trkpt>
      <trkpt lat="41.9177330" lon="-8.8833250">
        <ele>6.8</ele>
        <time>2021-05-19T05:33:20Z</time>
      </trkpt>
      <trkpt lat="41.9177400" lon="-8.8833190">
        <ele>6.8</ele>
        <time>2021-05-19T05:33:21Z</time>
      </trkpt>
      <trkpt lat="41.9177530" lon="-8.8833200">
        <ele>6.8</ele>
        <time>2021-05-19T05:33:22Z</time>
      </trkpt>
      <trkpt lat="41.9177640" lon="-8.8833180">
        <ele>6.8</ele>
        <time>2021-05-19T05:33:23Z</time>
      </trkpt>
      <trkpt lat="41.9177800" lon="-8.8833170">
        <ele>6.8</ele>
        <time>2021-05-19T05:33:24Z</time>
      </trkpt>
      <trkpt lat="41.9177960" lon="-8.8833190">
        <ele>6.8</ele>
        <time>2021-05-19T05:33:25Z</time>
      </trkpt>
      <trkpt lat="41.9178070" lon="-8.8833170">
        <ele>6.8</ele>
        <time>2021-05-19T05:33:26Z</time>
      </trkpt>
      <trkpt lat="41.9178190" lon="-8.8833090">
        <ele>6.8</ele>
        <time>2021-05-19T05:33:27Z</time>
      </trkpt>
      <trkpt lat="41.9178260" lon="-8.8833080">
        <ele>6.8</ele>
        <time>2021-05-19T05:33:28Z</time>
      </trkpt>
      <trkpt lat="41.9178410" lon="-8.8833010">
        <ele>6.9</ele>
        <time>2021-05-19T05:33:29Z</time>
      </trkpt>
      <trkpt lat="41.9178520" lon="-8.8833000">
        <ele>6.9</ele>
        <time>2021-05-19T05:33:30Z</time>
      </trkpt>
      <trkpt lat="41.9178610" lon="-8.8832950">
        <ele>6.9</ele>
        <time>2021-05-19T05:33:31Z</time>
      </trkpt>
      <trkpt lat="41.9178710" lon="-8.8832980">
        <ele>6.9</ele>
        <time>2021-05-19T05:33:32Z</time>
      </trkpt>
      <trkpt lat="41.9178830" lon="-8.8832950">
        <ele>6.9</ele>
        <time>2021-05-19T05:33:33Z</time>
      </trkpt>
      <trkpt lat="41.9178910" lon="-8.8832940">
        <ele>6.9</ele>
        <time>2021-05-19T05:33:34Z</time>
      </trkpt>
      <trkpt lat="41.9179050" lon="-8.8832910">
        <ele>6.9</ele>
        <time>2021-05-19T05:33:35Z</time>
      </trkpt>
      <trkpt lat="41.9179230" lon="-8.8832940">
        <ele>6.9</ele>
        <time>2021-05-19T05:33:36Z</time>
      </trkpt>
      <trkpt lat="41.9179320" lon="-8.8832940">
        <ele>6.9</ele>
        <time>2021-05-19T05:33:37Z</time>
      </trkpt>
      <trkpt lat="41.9179520" lon="-8.8832990">
        <ele>6.9</ele>
        <time>2021-05-19T05:33:38Z</time>
      </trkpt>
      <trkpt lat="41.9179600" lon="-8.8833000">
        <ele>6.9</ele>
        <time>2021-05-19T05:33:39Z</time>
      </trkpt>
      <trkpt lat="41.9179690" lon="-8.8833000">
        <ele>6.9</ele>
        <time>2021-05-19T05:33:40Z</time>
      </trkpt>
      <trkpt lat="41.9179850" lon="-8.8833030">
        <ele>6.9</ele>
        <time>2021-05-19T05:33:41Z</time>
      </trkpt>
      <trkpt lat="41.9179990" lon="-8.8833070">
        <ele>6.9</ele>
        <time>2021-05-19T05:33:42Z</time>
      </trkpt>
      <trkpt lat="41.9180200" lon="-8.8833130">
        <ele>6.9</ele>
        <time>2021-05-19T05:33:43Z</time>
      </trkpt>
      <trkpt lat="41.9180280" lon="-8.8833160">
        <ele>6.9</ele>
        <time>2021-05-19T05:33:44Z</time>
      </trkpt>
      <trkpt lat="41.9180360" lon="-8.8833180">
        <ele>6.9</ele>
        <time>2021-05-19T05:33:45Z</time>
      </trkpt>
      <trkpt lat="41.9180430" lon="-8.8833220">
        <ele>6.9</ele>
        <time>2021-05-19T05:33:46Z</time>
      </trkpt>
      <trkpt lat="41.9180560" lon="-8.8833300">
        <ele>7.0</ele>
        <time>2021-05-19T05:33:47Z</time>
      </trkpt>
      <trkpt lat="41.9180690" lon="-8.8833330">
        <ele>7.0</ele>
        <time>2021-05-19T05:33:48Z</time>
      </trkpt>
      <trkpt lat="41.9180820" lon="-8.8833310">
        <ele>7.0</ele>
        <time>2021-05-19T05:33:49Z</time>
      </trkpt>
      <trkpt lat="41.9180870" lon="-8.8833360">
        <ele>7.0</ele>
        <time>2021-05-19T05:33:50Z</time>
      </trkpt>
      <trkpt lat="41.9181020" lon="-8.8833350">
        <ele>7.0</ele>
        <time>2021-05-19T05:33:51Z</time>
      </trkpt>
      <trkpt lat="41.9181180" lon="-8.8833470">
        <ele>7.0</ele>
        <time>2021-05-19T05:33:52Z</time>
      </trkpt>
      <trkpt lat="41.9181270" lon="-8.8833510">
        <ele>7.0</ele>
        <time>2021-05-19T05:33:53Z</time>
      </trkpt>
      <trkpt lat="41.9181360" lon="-8.8833550">
        <ele>7.0</ele>
        <time>2021-05-19T05:33:54Z</time>
      </trkpt>
      <trkpt lat="41.9181390" lon="-8.8833560">
        <ele>7.0</ele>
        <time>2021-05-19T05:33:55Z</time>
      </trkpt>
      <trkpt lat="41.9181490" lon="-8.8833610">
        <ele>7.0</ele>
        <time>2021-05-19T05:33:56Z</time>
      </trkpt>
      <trkpt lat="41.9181650" lon="-8.8833750">
        <ele>7.0</ele>
        <time>2021-05-19T05:33:57Z</time>
      </trkpt>
      <trkpt lat="41.9181720" lon="-8.8833740">
        <ele>7.0</ele>
        <time>2021-05-19T05:33:58Z</time>
      </trkpt>
      <trkpt lat="41.9181870" lon="-8.8833770">
        <ele>7.0</ele>
        <time>2021-05-19T05:33:59Z</time>
      </trkpt>
      <trkpt lat="41.9181970" lon="-8.8833740">
        <ele>7.0</ele>
        <time>2021-05-19T05:34:00Z</time>
      </trkpt>
      <trkpt lat="41.9182100" lon="-8.8833820">
        <ele>7.0</ele>
        <time>2021-05-19T05:34:01Z</time>
      </trkpt>
      <trkpt lat="41.9182220" lon="-8.8833870">
        <ele>7.0</ele>
        <time>2021-05-19T05:34:02Z</time>
      </trkpt>
      <trkpt lat="41.9182330" lon="-8.8833930">
        <ele>7.0</ele>
        <time>2021-05-19T05:34:03Z</time>
      </trkpt>
      <trkpt lat="41.9182510" lon="-8.8834070">
        <ele>7.0</ele>
        <time>2021-05-19T05:34:04Z</time>
      </trkpt>
      <trkpt lat="41.9182610" lon="-8.8834120">
        <ele>7.1</ele>
        <time>2021-05-19T05:34:05Z</time>
      </trkpt>
      <trkpt lat="41.9182720" lon="-8.8834170">
        <ele>7.1</ele>
        <time>2021-05-19T05:34:06Z</time>
      </trkpt>
      <trkpt lat="41.9182880" lon="-8.8834280">
        <ele>7.1</ele>
        <time>2021-05-19T05:34:07Z</time>
      </trkpt>
      <trkpt lat="41.9182900" lon="-8.8834290">
        <ele>7.1</ele>
        <time>2021-05-19T05:34:08Z</time>
      </trkpt>
      <trkpt lat="41.9183010" lon="-8.8834340">
        <ele>7.1</ele>
        <time>2021-05-19T05:34:09Z</time>
      </trkpt>
      <trkpt lat="41.9183210" lon="-8.8834490">
        <ele>7.1</ele>
        <time>2021-05-19T05:34:10Z</time>
      </trkpt>
      <trkpt lat="41.9183290" lon="-8.8834500">
        <ele>7.1</ele>
        <time>2021-05-19T05:34:11Z</time>
      </trkpt>
      <trkpt lat="41.9183380" lon="-8.8834520">
        <ele>7.1</ele>
        <time>2021-05-19T05:34:12Z</time>
      </trkpt>
      <trkpt lat="41.9183500" lon="-8.8834570">
        <ele>7.1</ele>
        <time>2021-05-19T05:34:13Z</time>
      </trkpt>
      <trkpt lat="41.9183680" lon="-8.8834700">
        <ele>7.1</ele>
        <time>2021-05-19T05:34:14Z</time>
      </trkpt>
      <trkpt lat="41.9183780" lon="-8.8834750">
        <ele>7.1</ele>
        <time>2021-05-19T05:34:15Z</time>
      </trkpt>
      <trkpt lat="41.9183880" lon="-8.8834790">
        <ele>7.2</ele>
        <time>2021-05-19T05:34:16Z</time>
      </trkpt>
      <trkpt lat="41.9183970" lon="-8.8834820">
        <ele>7.2</ele>
        <time>2021-05-19T05:34:17Z</time>
      </trkpt>
      <trkpt lat="41.9184070" lon="-8.8834860">
        <ele>7.2</ele>
        <time>2021-05-19T05:34:18Z</time>
      </trkpt>
      <trkpt lat="41.9184150" lon="-8.8834820">
        <ele>7.2</ele>
        <time>2021-05-19T05:34:19Z</time>
      </trkpt>
      <trkpt lat="41.9184300" lon="-8.8834860">
        <ele>7.2</ele>
        <time>2021-05-19T05:34:20Z</time>
      </trkpt>
      <trkpt lat="41.9184390" lon="-8.8834900">
        <ele>7.2</ele>
        <time>2021-05-19T05:34:21Z</time>
      </trkpt>
      <trkpt lat="41.9184610" lon="-8.8834930">
        <ele>7.2</ele>
        <time>2021-05-19T05:34:22Z</time>
      </trkpt>
      <trkpt lat="41.9184690" lon="-8.8834930">
        <ele>7.2</ele>
        <time>2021-05-19T05:34:23Z</time>
      </trkpt>
      <trkpt lat="41.9184770" lon="-8.8834940">
        <ele>7.2</ele>
        <time>2021-05-19T05:34:24Z</time>
      </trkpt>
      <trkpt lat="41.9184870" lon="-8.8834950">
        <ele>7.2</ele>
        <time>2021-05-19T05:34:25Z</time>
      </trkpt>
      <trkpt lat="41.9184940" lon="-8.8834950">
        <ele>7.2</ele>
        <time>2021-05-19T05:34:26Z</time>
      </trkpt>
      <trkpt lat="41.9185050" lon="-8.8834930">
        <ele>7.2</ele>
        <time>2021-05-19T05:34:27Z</time>
      </trkpt>
      <trkpt lat="41.9185270" lon="-8.8834960">
        <ele>7.2</ele>
        <time>2021-05-19T05:34:28Z</time>
      </trkpt>
      <trkpt lat="41.9185350" lon="-8.8834970">
        <ele>7.2</ele>
        <time>2021-05-19T05:34:29Z</time>
      </trkpt>
      <trkpt lat="41.9185440" lon="-8.8834980">
        <ele>7.2</ele>
        <time>2021-05-19T05:34:30Z</time>
      </trkpt>
      <trkpt lat="41.9185530" lon="-8.8835030">
        <ele>7.2</ele>
        <time>2021-05-19T05:34:31Z</time>
      </trkpt>
      <trkpt lat="41.9185710" lon="-8.8835050">
        <ele>7.2</ele>
        <time>2021-05-19T05:34:32Z</time>
      </trkpt>
      <trkpt lat="41.9185940" lon="-8.8835060">
        <ele>7.2</ele>
        <time>2021-05-19T05:34:33Z</time>
      </trkpt>
      <trkpt lat="41.9186040" lon="-8.8835080">
        <ele>7.2</ele>
        <time>2021-05-19T05:34:34Z</time>
      </trkpt>
      <trkpt lat="41.9186130" lon="-8.8835100">
        <ele>7.1</ele>
        <time>2021-05-19T05:34:35Z</time>
      </trkpt>
      <trkpt lat="41.9186330" lon="-8.8835140">
        <ele>7.1</ele>
        <time>2021-05-19T05:34:36Z</time>
      </trkpt>
      <trkpt lat="41.9186420" lon="-8.8835150">
        <ele>7.1</ele>
        <time>2021-05-19T05:34:37Z</time>
      </trkpt>
      <trkpt lat="41.9186520" lon="-8.8835170">
        <ele>7.1</ele>
        <time>2021-05-19T05:34:38Z</time>
      </trkpt>
      <trkpt lat="41.9186620" lon="-8.8835180">
        <ele>7.1</ele>
        <time>2021-05-19T05:34:39Z</time>
      </trkpt>
      <trkpt lat="41.9186710" lon="-8.8835200">
        <ele>7.1</ele>
        <time>2021-05-19T05:34:40Z</time>
      </trkpt>
      <trkpt lat="41.9186820" lon="-8.8835200">
        <ele>7.1</ele>
        <time>2021-05-19T05:34:41Z</time>
      </trkpt>
      <trkpt lat="41.9186920" lon="-8.8835230">
        <ele>7.1</ele>
        <time>2021-05-19T05:34:42Z</time>
      </trkpt>
      <trkpt lat="41.9187040" lon="-8.8835270">
        <ele>7.1</ele>
        <time>2021-05-19T05:34:43Z</time>
      </trkpt>
      <trkpt lat="41.9187170" lon="-8.8835300">
        <ele>7.1</ele>
        <time>2021-05-19T05:34:44Z</time>
      </trkpt>
      <trkpt lat="41.9187240" lon="-8.8835360">
        <ele>7.1</ele>
        <time>2021-05-19T05:34:45Z</time>
      </trkpt>
      <trkpt lat="41.9187400" lon="-8.8835370">
        <ele>7.1</ele>
        <time>2021-05-19T05:34:46Z</time>
      </trkpt>
      <trkpt lat="41.9187510" lon="-8.8835400">
        <ele>7.1</ele>
        <time>2021-05-19T05:34:47Z</time>
      </trkpt>
      <trkpt lat="41.9187620" lon="-8.8835500">
        <ele>7.1</ele>
        <time>2021-05-19T05:34:48Z</time>
      </trkpt>
      <trkpt lat="41.9187680" lon="-8.8835590">
        <ele>7.1</ele>
        <time>2021-05-19T05:34:49Z</time>
      </trkpt>
      <trkpt lat="41.9187730" lon="-8.8835680">
        <ele>7.1</ele>
        <time>2021-05-19T05:34:50Z</time>
      </trkpt>
      <trkpt lat="41.9187800" lon="-8.8835750">
        <ele>7.1</ele>
        <time>2021-05-19T05:34:51Z</time>
      </trkpt>
      <trkpt lat="41.9187830" lon="-8.8835820">
        <ele>7.1</ele>
        <time>2021-05-19T05:34:52Z</time>
      </trkpt>
      <trkpt lat="41.9187840" lon="-8.8835810">
        <ele>7.1</ele>
        <time>2021-05-19T05:34:53Z</time>
      </trkpt>
      <trkpt lat="41.9187840" lon="-8.8835790">
        <ele>7.1</ele>
        <time>2021-05-19T05:34:54Z</time>
      </trkpt>
      <trkpt lat="41.9187850" lon="-8.8835780">
        <ele>7.1</ele>
        <time>2021-05-19T05:34:55Z</time>
      </trkpt>
      <trkpt lat="41.9187860" lon="-8.8835790">
        <ele>7.1</ele>
        <time>2021-05-19T05:34:56Z</time>
      </trkpt>
      <trkpt lat="41.9187880" lon="-8.8835800">
        <ele>7.1</ele>
        <time>2021-05-19T05:34:57Z</time>
      </trkpt>
      <trkpt lat="41.9187900" lon="-8.8835800">
        <ele>7.1</ele>
        <time>2021-05-19T05:34:58Z</time>
      </trkpt>
      <trkpt lat="41.9187910" lon="-8.8835800">
        <ele>7.1</ele>
        <time>2021-05-19T05:34:59Z</time>
      </trkpt>
      <trkpt lat="41.9187890" lon="-8.8835820">
        <ele>7.1</ele>
        <time>2021-05-19T05:35:00Z</time>
      </trkpt>
      <trkpt lat="41.9187890" lon="-8.8835830">
        <ele>7.1</ele>
        <time>2021-05-19T05:35:01Z</time>
      </trkpt>
      <trkpt lat="41.9187900" lon="-8.8835870">
        <ele>7.1</ele>
        <time>2021-05-19T05:35:02Z</time>
      </trkpt>
      <trkpt lat="41.9187900" lon="-8.8835860">
        <ele>7.1</ele>
        <time>2021-05-19T05:35:03Z</time>
      </trkpt>
      <trkpt lat="41.9187910" lon="-8.8835850">
        <ele>7.1</ele>
        <time>2021-05-19T05:35:04Z</time>
      </trkpt>
      <trkpt lat="41.9187910" lon="-8.8835880">
        <ele>7.1</ele>
        <time>2021-05-19T05:35:05Z</time>
      </trkpt>
      <trkpt lat="41.9187900" lon="-8.8835860">
        <ele>7.1</ele>
        <time>2021-05-19T05:35:06Z</time>
      </trkpt>
      <trkpt lat="41.9187900" lon="-8.8835900">
        <ele>7.1</ele>
        <time>2021-05-19T05:35:07Z</time>
      </trkpt>
      <trkpt lat="41.9187920" lon="-8.8835760">
        <ele>7.1</ele>
        <time>2021-05-19T05:35:08Z</time>
      </trkpt>
      <trkpt lat="41.9187910" lon="-8.8835730">
        <ele>7.1</ele>
        <time>2021-05-19T05:35:09Z</time>
      </trkpt>
      <trkpt lat="41.9187910" lon="-8.8835730">
        <ele>7.1</ele>
        <time>2021-05-19T05:35:10Z</time>
      </trkpt>
      <trkpt lat="41.9187910" lon="-8.8835730">
        <ele>7.1</ele>
        <time>2021-05-19T05:35:11Z</time>
      </trkpt>
      <trkpt lat="41.9187910" lon="-8.8835870">
        <ele>7.1</ele>
        <time>2021-05-19T05:35:12Z</time>
      </trkpt>
      <trkpt lat="41.9187920" lon="-8.8835870">
        <ele>7.1</ele>
        <time>2021-05-19T05:35:13Z</time>
      </trkpt>
      <trkpt lat="41.9187910" lon="-8.8835870">
        <ele>7.1</ele>
        <time>2021-05-19T05:35:14Z</time>
      </trkpt>
      <trkpt lat="41.9187910" lon="-8.8835870">
        <ele>7.1</ele>
        <time>2021-05-19T05:35:15Z</time>
      </trkpt>
      <trkpt lat="41.9187920" lon="-8.8835860">
        <ele>7.1</ele>
        <time>2021-05-19T05:35:16Z</time>
      </trkpt>
      <trkpt lat="41.9187930" lon="-8.8835880">
        <ele>7.1</ele>
        <time>2021-05-19T05:35:17Z</time>
      </trkpt>
      <trkpt lat="41.9187940" lon="-8.8835870">
        <ele>7.1</ele>
        <time>2021-05-19T05:35:18Z</time>
      </trkpt>
      <trkpt lat="41.9187940" lon="-8.8835880">
        <ele>7.1</ele>
        <time>2021-05-19T05:35:19Z</time>
      </trkpt>
      <trkpt lat="41.9187900" lon="-8.8835890">
        <ele>7.1</ele>
        <time>2021-05-19T05:35:20Z</time>
      </trkpt>
      <trkpt lat="41.9187900" lon="-8.8835890">
        <ele>7.1</ele>
        <time>2021-05-19T05:35:21Z</time>
      </trkpt>
      <trkpt lat="41.9187900" lon="-8.8835870">
        <ele>7.1</ele>
        <time>2021-05-19T05:35:22Z</time>
      </trkpt>
      <trkpt lat="41.9187900" lon="-8.8835880">
        <ele>7.1</ele>
        <time>2021-05-19T05:35:23Z</time>
      </trkpt>
      <trkpt lat="41.9187890" lon="-8.8835870">
        <ele>7.1</ele>
        <time>2021-05-19T05:35:24Z</time>
      </trkpt>
      <trkpt lat="41.9187880" lon="-8.8835880">
        <ele>7.1</ele>
        <time>2021-05-19T05:35:25Z</time>
      </trkpt>
      <trkpt lat="41.9187880" lon="-8.8835880">
        <ele>7.1</ele>
        <time>2021-05-19T05:35:26Z</time>
      </trkpt>
      <trkpt lat="41.9187870" lon="-8.8835860">
        <ele>7.1</ele>
        <time>2021-05-19T05:35:27Z</time>
      </trkpt>
      <trkpt lat="41.9187860" lon="-8.8835850">
        <ele>7.1</ele>
        <time>2021-05-19T05:35:28Z</time>
      </trkpt>
      <trkpt lat="41.9187870" lon="-8.8835850">
        <ele>7.1</ele>
        <time>2021-05-19T05:35:29Z</time>
      </trkpt>
      <trkpt lat="41.9187870" lon="-8.8835850">
        <ele>7.1</ele>
        <time>2021-05-19T05:35:30Z</time>
      </trkpt>
      <trkpt lat="41.9187880" lon="-8.8835870">
        <ele>7.1</ele>
        <time>2021-05-19T05:35:31Z</time>
      </trkpt>
      <trkpt lat="41.9187880" lon="-8.8835860">
        <ele>7.1</ele>
        <time>2021-05-19T05:35:32Z</time>
      </trkpt>
      <trkpt lat="41.9187880" lon="-8.8835870">
        <ele>7.1</ele>
        <time>2021-05-19T05:35:33Z</time>
      </trkpt>
      <trkpt lat="41.9187890" lon="-8.8835870">
        <ele>7.1</ele>
        <time>2021-05-19T05:35:34Z</time>
      </trkpt>
      <trkpt lat="41.9187920" lon="-8.8835810">
        <ele>7.1</ele>
        <time>2021-05-19T05:35:35Z</time>
      </trkpt>
      <trkpt lat="41.9187950" lon="-8.8835800">
        <ele>7.1</ele>
        <time>2021-05-19T05:35:36Z</time>
      </trkpt>
      <trkpt lat="41.9187970" lon="-8.8835780">
        <ele>7.1</ele>
        <time>2021-05-19T05:35:37Z</time>
      </trkpt>
      <trkpt lat="41.9187970" lon="-8.8835770">
        <ele>7.1</ele>
        <time>2021-05-19T05:35:38Z</time>
      </trkpt>
      <trkpt lat="41.9187960" lon="-8.8835740">
        <ele>7.1</ele>
        <time>2021-05-19T05:35:39Z</time>
      </trkpt>
      <trkpt lat="41.9187970" lon="-8.8835760">
        <ele>7.1</ele>
        <time>2021-05-19T05:35:40Z</time>
      </trkpt>
      <trkpt lat="41.9187970" lon="-8.8835790">
        <ele>7.1</ele>
        <time>2021-05-19T05:35:41Z</time>
      </trkpt>
      <trkpt lat="41.9187980" lon="-8.8835790">
        <ele>7.1</ele>
        <time>2021-05-19T05:35:42Z</time>
      </trkpt>
      <trkpt lat="41.9187980" lon="-8.8835790">
        <ele>7.1</ele>
        <time>2021-05-19T05:35:43Z</time>
      </trkpt>
      <trkpt lat="41.9187990" lon="-8.8835790">
        <ele>7.1</ele>
        <time>2021-05-19T05:35:44Z</time>
      </trkpt>
      <trkpt lat="41.9188000" lon="-8.8835780">
        <ele>7.1</ele>
        <time>2021-05-19T05:35:45Z</time>
      </trkpt>
      <trkpt lat="41.9188010" lon="-8.8835770">
        <ele>7.1</ele>
        <time>2021-05-19T05:35:46Z</time>
      </trkpt>
      <trkpt lat="41.9188020" lon="-8.8835770">
        <ele>7.1</ele>
        <time>2021-05-19T05:35:47Z</time>
      </trkpt>
      <trkpt lat="41.9188040" lon="-8.8835760">
        <ele>7.1</ele>
        <time>2021-05-19T05:35:48Z</time>
      </trkpt>
      <trkpt lat="41.9188050" lon="-8.8835750">
        <ele>7.1</ele>
        <time>2021-05-19T05:35:49Z</time>
      </trkpt>
      <trkpt lat="41.9188060" lon="-8.8835740">
        <ele>7.1</ele>
        <time>2021-05-19T05:35:50Z</time>
      </trkpt>
      <trkpt lat="41.9188070" lon="-8.8835730">
        <ele>7.1</ele>
        <time>2021-05-19T05:35:51Z</time>
      </trkpt>
      <trkpt lat="41.9188080" lon="-8.8835720">
        <ele>7.1</ele>
        <time>2021-05-19T05:35:52Z</time>
      </trkpt>
      <trkpt lat="41.9188090" lon="-8.8835720">
        <ele>7.1</ele>
        <time>2021-05-19T05:35:53Z</time>
      </trkpt>
      <trkpt lat="41.9188100" lon="-8.8835710">
        <ele>7.1</ele>
        <time>2021-05-19T05:35:54Z</time>
      </trkpt>
      <trkpt lat="41.9188110" lon="-8.8835700">
        <ele>7.1</ele>
        <time>2021-05-19T05:35:55Z</time>
      </trkpt>
      <trkpt lat="41.9188130" lon="-8.8835690">
        <ele>7.1</ele>
        <time>2021-05-19T05:35:56Z</time>
      </trkpt>
      <trkpt lat="41.9188140" lon="-8.8835680">
        <ele>7.1</ele>
        <time>2021-05-19T05:35:57Z</time>
      </trkpt>
      <trkpt lat="41.9188150" lon="-8.8835680">
        <ele>7.1</ele>
        <time>2021-05-19T05:35:58Z</time>
      </trkpt>
      <trkpt lat="41.9188160" lon="-8.8835670">
        <ele>7.1</ele>
        <time>2021-05-19T05:35:59Z</time>
      </trkpt>
      <trkpt lat="41.9188170" lon="-8.8835660">
        <ele>7.1</ele>
        <time>2021-05-19T05:36:00Z</time>
      </trkpt>
      <trkpt lat="41.9188180" lon="-8.8835650">
        <ele>7.1</ele>
        <time>2021-05-19T05:36:01Z</time>
      </trkpt>
      <trkpt lat="41.9188190" lon="-8.8835640">
        <ele>7.1</ele>
        <time>2021-05-19T05:36:02Z</time>
      </trkpt>
      <trkpt lat="41.9188210" lon="-8.8835640">
        <ele>7.1</ele>
        <time>2021-05-19T05:36:03Z</time>
      </trkpt>
      <trkpt lat="41.9188220" lon="-8.8835630">
        <ele>7.1</ele>
        <time>2021-05-19T05:36:04Z</time>
      </trkpt>
      <trkpt lat="41.9188230" lon="-8.8835620">
        <ele>7.1</ele>
        <time>2021-05-19T05:36:05Z</time>
      </trkpt>
      <trkpt lat="41.9188240" lon="-8.8835610">
        <ele>7.1</ele>
        <time>2021-05-19T05:36:06Z</time>
      </trkpt>
      <trkpt lat="41.9188250" lon="-8.8835600">
        <ele>7.1</ele>
        <time>2021-05-19T05:36:07Z</time>
      </trkpt>
      <trkpt lat="41.9188260" lon="-8.8835590">
        <ele>7.1</ele>
        <time>2021-05-19T05:36:08Z</time>
      </trkpt>
      <trkpt lat="41.9188270" lon="-8.8835590">
        <ele>7.1</ele>
        <time>2021-05-19T05:36:09Z</time>
      </trkpt>
      <trkpt lat="41.9188280" lon="-8.8835580">
        <ele>7.1</ele>
        <time>2021-05-19T05:36:10Z</time>
      </trkpt>
      <trkpt lat="41.9188300" lon="-8.8835570">
        <ele>7.1</ele>
        <time>2021-05-19T05:36:11Z</time>
      </trkpt>
      <trkpt lat="41.9188310" lon="-8.8835560">
        <ele>7.1</ele>
        <time>2021-05-19T05:36:12Z</time>
      </trkpt>
      <trkpt lat="41.9188320" lon="-8.8835550">
        <ele>7.1</ele>
        <time>2021-05-19T05:36:13Z</time>
      </trkpt>
      <trkpt lat="41.9188330" lon="-8.8835550">
        <ele>7.1</ele>
        <time>2021-05-19T05:36:14Z</time>
      </trkpt>
      <trkpt lat="41.9188340" lon="-8.8835540">
        <ele>7.1</ele>
        <time>2021-05-19T05:36:15Z</time>
      </trkpt>
      <trkpt lat="41.9188350" lon="-8.8835530">
        <ele>7.1</ele>
        <time>2021-05-19T05:36:16Z</time>
      </trkpt>
      <trkpt lat="41.9188360" lon="-8.8835520">
        <ele>7.1</ele>
        <time>2021-05-19T05:36:17Z</time>
      </trkpt>
      <trkpt lat="41.9188370" lon="-8.8835510">
        <ele>7.1</ele>
        <time>2021-05-19T05:36:18Z</time>
      </trkpt>
      <trkpt lat="41.9188390" lon="-8.8835500">
        <ele>7.1</ele>
        <time>2021-05-19T05:36:19Z</time>
      </trkpt>
      <trkpt lat="41.9188400" lon="-8.8835500">
        <ele>7.1</ele>
        <time>2021-05-19T05:36:20Z</time>
      </trkpt>
      <trkpt lat="41.9188410" lon="-8.8835490">
        <ele>7.1</ele>
        <time>2021-05-19T05:36:21Z</time>
      </trkpt>
      <trkpt lat="41.9188420" lon="-8.8835480">
        <ele>7.1</ele>
        <time>2021-05-19T05:36:22Z</time>
      </trkpt>
      <trkpt lat="41.9188530" lon="-8.8835490">
        <ele>7.1</ele>
        <time>2021-05-19T05:36:23Z</time>
      </trkpt>
      <trkpt lat="41.9188630" lon="-8.8835470">
        <ele>7.1</ele>
        <time>2021-05-19T05:36:24Z</time>
      </trkpt>
      <trkpt lat="41.9188740" lon="-8.8835430">
        <ele>7.1</ele>
        <time>2021-05-19T05:36:25Z</time>
      </trkpt>
      <trkpt lat="41.9188830" lon="-8.8835460">
        <ele>7.1</ele>
        <time>2021-05-19T05:36:26Z</time>
      </trkpt>
      <trkpt lat="41.9188920" lon="-8.8835460">
        <ele>7.1</ele>
        <time>2021-05-19T05:36:27Z</time>
      </trkpt>
      <trkpt lat="41.9189020" lon="-8.8835480">
        <ele>7.1</ele>
        <time>2021-05-19T05:36:28Z</time>
      </trkpt>
      <trkpt lat="41.9189180" lon="-8.8835480">
        <ele>7.1</ele>
        <time>2021-05-19T05:36:29Z</time>
      </trkpt>
      <trkpt lat="41.9189300" lon="-8.8835470">
        <ele>7.1</ele>
        <time>2021-05-19T05:36:30Z</time>
      </trkpt>
      <trkpt lat="41.9189390" lon="-8.8835390">
        <ele>7.1</ele>
        <time>2021-05-19T05:36:31Z</time>
      </trkpt>
      <trkpt lat="41.9189440" lon="-8.8835360">
        <ele>7.1</ele>
        <time>2021-05-19T05:36:32Z</time>
      </trkpt>
      <trkpt lat="41.9189550" lon="-8.8835270">
        <ele>7.1</ele>
        <time>2021-05-19T05:36:33Z</time>
      </trkpt>
      <trkpt lat="41.9189680" lon="-8.8835220">
        <ele>7.1</ele>
        <time>2021-05-19T05:36:34Z</time>
      </trkpt>
      <trkpt lat="41.9189800" lon="-8.8835210">
        <ele>7.1</ele>
        <time>2021-05-19T05:36:35Z</time>
      </trkpt>
      <trkpt lat="41.9189880" lon="-8.8835240">
        <ele>7.1</ele>
        <time>2021-05-19T05:36:36Z</time>
      </trkpt>
      <trkpt lat="41.9189990" lon="-8.8835260">
        <ele>7.1</ele>
        <time>2021-05-19T05:36:37Z</time>
      </trkpt>
      <trkpt lat="41.9190070" lon="-8.8835300">
        <ele>7.1</ele>
        <time>2021-05-19T05:36:38Z</time>
      </trkpt>
      <trkpt lat="41.9190190" lon="-8.8835320">
        <ele>7.1</ele>
        <time>2021-05-19T05:36:39Z</time>
      </trkpt>
      <trkpt lat="41.9190370" lon="-8.8835260">
        <ele>7.1</ele>
        <time>2021-05-19T05:36:40Z</time>
      </trkpt>
      <trkpt lat="41.9190470" lon="-8.8835250">
        <ele>7.1</ele>
        <time>2021-05-19T05:36:41Z</time>
      </trkpt>
      <trkpt lat="41.9190560" lon="-8.8835250">
        <ele>7.1</ele>
        <time>2021-05-19T05:36:42Z</time>
      </trkpt>
      <trkpt lat="41.9190580" lon="-8.8835130">
        <ele>7.1</ele>
        <time>2021-05-19T05:36:43Z</time>
      </trkpt>
      <trkpt lat="41.9190660" lon="-8.8835080">
        <ele>7.1</ele>
        <time>2021-05-19T05:36:44Z</time>
      </trkpt>
      <trkpt lat="41.9190760" lon="-8.8834980">
        <ele>7.1</ele>
        <time>2021-05-19T05:36:45Z</time>
      </trkpt>
      <trkpt lat="41.9190840" lon="-8.8834890">
        <ele>7.1</ele>
        <time>2021-05-19T05:36:46Z</time>
      </trkpt>
      <trkpt lat="41.9190930" lon="-8.8834830">
        <ele>7.1</ele>
        <time>2021-05-19T05:36:47Z</time>
      </trkpt>
      <trkpt lat="41.9191030" lon="-8.8834860">
        <ele>7.1</ele>
        <time>2021-05-19T05:36:48Z</time>
      </trkpt>
      <trkpt lat="41.9191060" lon="-8.8834830">
        <ele>7.1</ele>
        <time>2021-05-19T05:36:49Z</time>
      </trkpt>
      <trkpt lat="41.9191230" lon="-8.8834760">
        <ele>7.1</ele>
        <time>2021-05-19T05:36:50Z</time>
      </trkpt>
      <trkpt lat="41.9191320" lon="-8.8834680">
        <ele>7.1</ele>
        <time>2021-05-19T05:36:51Z</time>
      </trkpt>
      <trkpt lat="41.9191520" lon="-8.8834520">
        <ele>7.1</ele>
        <time>2021-05-19T05:36:52Z</time>
      </trkpt>
      <trkpt lat="41.9191570" lon="-8.8834450">
        <ele>7.1</ele>
        <time>2021-05-19T05:36:53Z</time>
      </trkpt>
      <trkpt lat="41.9191630" lon="-8.8834370">
        <ele>7.1</ele>
        <time>2021-05-19T05:36:54Z</time>
      </trkpt>
      <trkpt lat="41.9191780" lon="-8.8834160">
        <ele>7.1</ele>
        <time>2021-05-19T05:36:55Z</time>
      </trkpt>
      <trkpt lat="41.9191810" lon="-8.8834050">
        <ele>7.4</ele>
        <time>2021-05-19T05:36:56Z</time>
      </trkpt>
      <trkpt lat="41.9191840" lon="-8.8833950">
        <ele>7.4</ele>
        <time>2021-05-19T05:36:57Z</time>
      </trkpt>
      <trkpt lat="41.9191990" lon="-8.8833770">
        <ele>7.5</ele>
        <time>2021-05-19T05:36:58Z</time>
      </trkpt>
      <trkpt lat="41.9192050" lon="-8.8833680">
        <ele>7.5</ele>
        <time>2021-05-19T05:36:59Z</time>
      </trkpt>
      <trkpt lat="41.9192110" lon="-8.8833600">
        <ele>7.6</ele>
        <time>2021-05-19T05:37:00Z</time>
      </trkpt>
      <trkpt lat="41.9192240" lon="-8.8833380">
        <ele>7.7</ele>
        <time>2021-05-19T05:37:01Z</time>
      </trkpt>
      <trkpt lat="41.9192310" lon="-8.8833320">
        <ele>7.7</ele>
        <time>2021-05-19T05:37:02Z</time>
      </trkpt>
      <trkpt lat="41.9192380" lon="-8.8833250">
        <ele>7.8</ele>
        <time>2021-05-19T05:37:03Z</time>
      </trkpt>
      <trkpt lat="41.9192450" lon="-8.8833050">
        <ele>7.9</ele>
        <time>2021-05-19T05:37:04Z</time>
      </trkpt>
      <trkpt lat="41.9192480" lon="-8.8832960">
        <ele>8.0</ele>
        <time>2021-05-19T05:37:05Z</time>
      </trkpt>
      <trkpt lat="41.9192510" lon="-8.8832880">
        <ele>8.0</ele>
        <time>2021-05-19T05:37:06Z</time>
      </trkpt>
      <trkpt lat="41.9192540" lon="-8.8832790">
        <ele>8.1</ele>
        <time>2021-05-19T05:37:07Z</time>
      </trkpt>
      <trkpt lat="41.9192590" lon="-8.8832620">
        <ele>8.2</ele>
        <time>2021-05-19T05:37:08Z</time>
      </trkpt>
      <trkpt lat="41.9192640" lon="-8.8832410">
        <ele>8.3</ele>
        <time>2021-05-19T05:37:09Z</time>
      </trkpt>
      <trkpt lat="41.9192680" lon="-8.8832260">
        <ele>8.5</ele>
        <time>2021-05-19T05:37:10Z</time>
      </trkpt>
      <trkpt lat="41.9192710" lon="-8.8832120">
        <ele>8.6</ele>
        <time>2021-05-19T05:37:11Z</time>
      </trkpt>
      <trkpt lat="41.9192760" lon="-8.8832030">
        <ele>8.6</ele>
        <time>2021-05-19T05:37:12Z</time>
      </trkpt>
      <trkpt lat="41.9192790" lon="-8.8831860">
        <ele>8.8</ele>
        <time>2021-05-19T05:37:13Z</time>
      </trkpt>
      <trkpt lat="41.9192830" lon="-8.8831740">
        <ele>8.9</ele>
        <time>2021-05-19T05:37:14Z</time>
      </trkpt>
      <trkpt lat="41.9192880" lon="-8.8831640">
        <ele>9.0</ele>
        <time>2021-05-19T05:37:15Z</time>
      </trkpt>
      <trkpt lat="41.9192910" lon="-8.8831540">
        <ele>9.1</ele>
        <time>2021-05-19T05:37:16Z</time>
      </trkpt>
      <trkpt lat="41.9192960" lon="-8.8831360">
        <ele>9.2</ele>
        <time>2021-05-19T05:37:17Z</time>
      </trkpt>
      <trkpt lat="41.9192980" lon="-8.8831290">
        <ele>9.3</ele>
        <time>2021-05-19T05:37:18Z</time>
      </trkpt>
      <trkpt lat="41.9193050" lon="-8.8830980">
        <ele>9.6</ele>
        <time>2021-05-19T05:37:19Z</time>
      </trkpt>
      <trkpt lat="41.9193070" lon="-8.8830890">
        <ele>9.6</ele>
        <time>2021-05-19T05:37:20Z</time>
      </trkpt>
      <trkpt lat="41.9193100" lon="-8.8830790">
        <ele>9.7</ele>
        <time>2021-05-19T05:37:21Z</time>
      </trkpt>
      <trkpt lat="41.9193110" lon="-8.8830650">
        <ele>9.9</ele>
        <time>2021-05-19T05:37:22Z</time>
      </trkpt>
      <trkpt lat="41.9193180" lon="-8.8830500">
        <ele>10.0</ele>
        <time>2021-05-19T05:37:23Z</time>
      </trkpt>
      <trkpt lat="41.9193250" lon="-8.8830370">
        <ele>10.2</ele>
        <time>2021-05-19T05:37:24Z</time>
      </trkpt>
      <trkpt lat="41.9193300" lon="-8.8830300">
        <ele>10.3</ele>
        <time>2021-05-19T05:37:25Z</time>
      </trkpt>
      <trkpt lat="41.9193350" lon="-8.8830220">
        <ele>10.4</ele>
        <time>2021-05-19T05:37:26Z</time>
      </trkpt>
      <trkpt lat="41.9193390" lon="-8.8830060">
        <ele>10.5</ele>
        <time>2021-05-19T05:37:27Z</time>
      </trkpt>
      <trkpt lat="41.9193400" lon="-8.8829890">
        <ele>10.7</ele>
        <time>2021-05-19T05:37:28Z</time>
      </trkpt>
      <trkpt lat="41.9193450" lon="-8.8829750">
        <ele>10.8</ele>
        <time>2021-05-19T05:37:29Z</time>
      </trkpt>
      <trkpt lat="41.9193460" lon="-8.8829600">
        <ele>11.0</ele>
        <time>2021-05-19T05:37:30Z</time>
      </trkpt>
      <trkpt lat="41.9193520" lon="-8.8829500">
        <ele>11.1</ele>
        <time>2021-05-19T05:37:31Z</time>
      </trkpt>
      <trkpt lat="41.9193560" lon="-8.8829380">
        <ele>11.3</ele>
        <time>2021-05-19T05:37:32Z</time>
      </trkpt>
      <trkpt lat="41.9193590" lon="-8.8829250">
        <ele>11.4</ele>
        <time>2021-05-19T05:37:33Z</time>
      </trkpt>
      <trkpt lat="41.9193630" lon="-8.8829060">
        <ele>11.6</ele>
        <time>2021-05-19T05:37:34Z</time>
      </trkpt>
      <trkpt lat="41.9193700" lon="-8.8828970">
        <ele>11.7</ele>
        <time>2021-05-19T05:37:35Z</time>
      </trkpt>
      <trkpt lat="41.9193730" lon="-8.8828900">
        <ele>11.8</ele>
        <time>2021-05-19T05:37:36Z</time>
      </trkpt>
      <trkpt lat="41.9193790" lon="-8.8828770">
        <ele>12.0</ele>
        <time>2021-05-19T05:37:37Z</time>
      </trkpt>
      <trkpt lat="41.9193840" lon="-8.8828630">
        <ele>12.1</ele>
        <time>2021-05-19T05:37:38Z</time>
      </trkpt>
      <trkpt lat="41.9193830" lon="-8.8828490">
        <ele>12.3</ele>
        <time>2021-05-19T05:37:39Z</time>
      </trkpt>
      <trkpt lat="41.9193880" lon="-8.8828300">
        <ele>12.5</ele>
        <time>2021-05-19T05:37:40Z</time>
      </trkpt>
      <trkpt lat="41.9193920" lon="-8.8828210">
        <ele>12.6</ele>
        <time>2021-05-19T05:37:41Z</time>
      </trkpt>
      <trkpt lat="41.9193930" lon="-8.8828030">
        <ele>12.8</ele>
        <time>2021-05-19T05:37:42Z</time>
      </trkpt>
      <trkpt lat="41.9193940" lon="-8.8828040">
        <ele>12.8</ele>
        <time>2021-05-19T05:37:43Z</time>
      </trkpt>
      <trkpt lat="41.9193870" lon="-8.8828080">
        <ele>12.9</ele>
        <time>2021-05-19T05:37:44Z</time>
      </trkpt>
      <trkpt lat="41.9193880" lon="-8.8828040">
        <ele>13.0</ele>
        <time>2021-05-19T05:37:45Z</time>
      </trkpt>
      <trkpt lat="41.9193890" lon="-8.8827900">
        <ele>13.1</ele>
        <time>2021-05-19T05:37:46Z</time>
      </trkpt>
      <trkpt lat="41.9193960" lon="-8.8827780">
        <ele>13.3</ele>
        <time>2021-05-19T05:37:47Z</time>
      </trkpt>
      <trkpt lat="41.9194010" lon="-8.8827590">
        <ele>13.5</ele>
        <time>2021-05-19T05:37:48Z</time>
      </trkpt>
      <trkpt lat="41.9194030" lon="-8.8827470">
        <ele>13.6</ele>
        <time>2021-05-19T05:37:49Z</time>
      </trkpt>
      <trkpt lat="41.9194090" lon="-8.8827380">
        <ele>13.8</ele>
        <time>2021-05-19T05:37:50Z</time>
      </trkpt>
      <trkpt lat="41.9194110" lon="-8.8827280">
        <ele>13.9</ele>
        <time>2021-05-19T05:37:51Z</time>
      </trkpt>
      <trkpt lat="41.9194120" lon="-8.8827190">
        <ele>14.0</ele>
        <time>2021-05-19T05:37:52Z</time>
      </trkpt>
      <trkpt lat="41.9194140" lon="-8.8827080">
        <ele>14.1</ele>
        <time>2021-05-19T05:37:53Z</time>
      </trkpt>
      <trkpt lat="41.9194220" lon="-8.8826890">
        <ele>14.3</ele>
        <time>2021-05-19T05:37:54Z</time>
      </trkpt>
      <trkpt lat="41.9194280" lon="-8.8826790">
        <ele>14.5</ele>
        <time>2021-05-19T05:37:55Z</time>
      </trkpt>
      <trkpt lat="41.9194300" lon="-8.8826690">
        <ele>14.6</ele>
        <time>2021-05-19T05:37:56Z</time>
      </trkpt>
      <trkpt lat="41.9194300" lon="-8.8826540">
        <ele>14.7</ele>
        <time>2021-05-19T05:37:57Z</time>
      </trkpt>
      <trkpt lat="41.9194350" lon="-8.8826520">
        <ele>14.8</ele>
        <time>2021-05-19T05:37:58Z</time>
      </trkpt>
      <trkpt lat="41.9194400" lon="-8.8826330">
        <ele>15.0</ele>
        <time>2021-05-19T05:37:59Z</time>
      </trkpt>
      <trkpt lat="41.9194420" lon="-8.8826240">
        <ele>15.1</ele>
        <time>2021-05-19T05:38:00Z</time>
      </trkpt>
      <trkpt lat="41.9194450" lon="-8.8826090">
        <ele>15.3</ele>
        <time>2021-05-19T05:38:01Z</time>
      </trkpt>
      <trkpt lat="41.9194480" lon="-8.8825940">
        <ele>15.4</ele>
        <time>2021-05-19T05:38:02Z</time>
      </trkpt>
      <trkpt lat="41.9194500" lon="-8.8825770">
        <ele>15.6</ele>
        <time>2021-05-19T05:38:03Z</time>
      </trkpt>
      <trkpt lat="41.9194460" lon="-8.8825660">
        <ele>15.7</ele>
        <time>2021-05-19T05:38:04Z</time>
      </trkpt>
      <trkpt lat="41.9194500" lon="-8.8825500">
        <ele>15.9</ele>
        <time>2021-05-19T05:38:05Z</time>
      </trkpt>
      <trkpt lat="41.9194530" lon="-8.8825290">
        <ele>16.1</ele>
        <time>2021-05-19T05:38:06Z</time>
      </trkpt>
      <trkpt lat="41.9194510" lon="-8.8825200">
        <ele>16.2</ele>
        <time>2021-05-19T05:38:07Z</time>
      </trkpt>
      <trkpt lat="41.9194490" lon="-8.8825060">
        <ele>16.4</ele>
        <time>2021-05-19T05:38:08Z</time>
      </trkpt>
      <trkpt lat="41.9194470" lon="-8.8824910">
        <ele>16.5</ele>
        <time>2021-05-19T05:38:09Z</time>
      </trkpt>
      <trkpt lat="41.9194470" lon="-8.8824800">
        <ele>16.6</ele>
        <time>2021-05-19T05:38:10Z</time>
      </trkpt>
      <trkpt lat="41.9194460" lon="-8.8824660">
        <ele>16.8</ele>
        <time>2021-05-19T05:38:11Z</time>
      </trkpt>
      <trkpt lat="41.9194450" lon="-8.8824520">
        <ele>16.9</ele>
        <time>2021-05-19T05:38:12Z</time>
      </trkpt>
      <trkpt lat="41.9194420" lon="-8.8824370">
        <ele>17.0</ele>
        <time>2021-05-19T05:38:13Z</time>
      </trkpt>
      <trkpt lat="41.9194350" lon="-8.8824210">
        <ele>17.2</ele>
        <time>2021-05-19T05:38:14Z</time>
      </trkpt>
      <trkpt lat="41.9194300" lon="-8.8823990">
        <ele>17.4</ele>
        <time>2021-05-19T05:38:15Z</time>
      </trkpt>
      <trkpt lat="41.9194270" lon="-8.8823910">
        <ele>17.5</ele>
        <time>2021-05-19T05:38:16Z</time>
      </trkpt>
      <trkpt lat="41.9194230" lon="-8.8823830">
        <ele>17.6</ele>
        <time>2021-05-19T05:38:17Z</time>
      </trkpt>
      <trkpt lat="41.9194190" lon="-8.8823750">
        <ele>17.7</ele>
        <time>2021-05-19T05:38:18Z</time>
      </trkpt>
      <trkpt lat="41.9194130" lon="-8.8823520">
        <ele>17.9</ele>
        <time>2021-05-19T05:38:19Z</time>
      </trkpt>
      <trkpt lat="41.9194050" lon="-8.8823370">
        <ele>18.1</ele>
        <time>2021-05-19T05:38:20Z</time>
      </trkpt>
      <trkpt lat="41.9193970" lon="-8.8823320">
        <ele>18.2</ele>
        <time>2021-05-19T05:38:21Z</time>
      </trkpt>
      <trkpt lat="41.9193880" lon="-8.8823200">
        <ele>18.3</ele>
        <time>2021-05-19T05:38:22Z</time>
      </trkpt>
      <trkpt lat="41.9193800" lon="-8.8823050">
        <ele>18.5</ele>
        <time>2021-05-19T05:38:23Z</time>
      </trkpt>
      <trkpt lat="41.9193770" lon="-8.8823060">
        <ele>18.5</ele>
        <time>2021-05-19T05:38:24Z</time>
      </trkpt>
      <trkpt lat="41.9193630" lon="-8.8822830">
        <ele>18.7</ele>
        <time>2021-05-19T05:38:25Z</time>
      </trkpt>
      <trkpt lat="41.9193560" lon="-8.8822720">
        <ele>18.8</ele>
        <time>2021-05-19T05:38:26Z</time>
      </trkpt>
      <trkpt lat="41.9193460" lon="-8.8822550">
        <ele>19.0</ele>
        <time>2021-05-19T05:38:27Z</time>
      </trkpt>
      <trkpt lat="41.9193390" lon="-8.8822550">
        <ele>19.1</ele>
        <time>2021-05-19T05:38:28Z</time>
      </trkpt>
      <trkpt lat="41.9193290" lon="-8.8822500">
        <ele>19.2</ele>
        <time>2021-05-19T05:38:29Z</time>
      </trkpt>
      <trkpt lat="41.9193220" lon="-8.8822390">
        <ele>19.3</ele>
        <time>2021-05-19T05:38:30Z</time>
      </trkpt>
      <trkpt lat="41.9193120" lon="-8.8822200">
        <ele>19.5</ele>
        <time>2021-05-19T05:38:31Z</time>
      </trkpt>
      <trkpt lat="41.9192980" lon="-8.8822090">
        <ele>19.6</ele>
        <time>2021-05-19T05:38:32Z</time>
      </trkpt>
      <trkpt lat="41.9192910" lon="-8.8821970">
        <ele>19.8</ele>
        <time>2021-05-19T05:38:33Z</time>
      </trkpt>
      <trkpt lat="41.9192830" lon="-8.8821940">
        <ele>19.8</ele>
        <time>2021-05-19T05:38:34Z</time>
      </trkpt>
      <trkpt lat="41.9192720" lon="-8.8821830">
        <ele>20.0</ele>
        <time>2021-05-19T05:38:35Z</time>
      </trkpt>
      <trkpt lat="41.9192640" lon="-8.8821740">
        <ele>20.1</ele>
        <time>2021-05-19T05:38:36Z</time>
      </trkpt>
      <trkpt lat="41.9192500" lon="-8.8821520">
        <ele>20.3</ele>
        <time>2021-05-19T05:38:37Z</time>
      </trkpt>
      <trkpt lat="41.9192450" lon="-8.8821430">
        <ele>20.4</ele>
        <time>2021-05-19T05:38:38Z</time>
      </trkpt>
      <trkpt lat="41.9192370" lon="-8.8821310">
        <ele>20.5</ele>
        <time>2021-05-19T05:38:39Z</time>
      </trkpt>
      <trkpt lat="41.9192270" lon="-8.8821250">
        <ele>20.6</ele>
        <time>2021-05-19T05:38:40Z</time>
      </trkpt>
      <trkpt lat="41.9192190" lon="-8.8821140">
        <ele>20.7</ele>
        <time>2021-05-19T05:38:41Z</time>
      </trkpt>
      <trkpt lat="41.9192080" lon="-8.8821030">
        <ele>20.8</ele>
        <time>2021-05-19T05:38:42Z</time>
      </trkpt>
      <trkpt lat="41.9192020" lon="-8.8820980">
        <ele>20.9</ele>
        <time>2021-05-19T05:38:43Z</time>
      </trkpt>
      <trkpt lat="41.9191940" lon="-8.8820860">
        <ele>21.0</ele>
        <time>2021-05-19T05:38:44Z</time>
      </trkpt>
      <trkpt lat="41.9191890" lon="-8.8820780">
        <ele>21.1</ele>
        <time>2021-05-19T05:38:45Z</time>
      </trkpt>
      <trkpt lat="41.9191780" lon="-8.8820730">
        <ele>21.2</ele>
        <time>2021-05-19T05:38:46Z</time>
      </trkpt>
      <trkpt lat="41.9191680" lon="-8.8820630">
        <ele>21.3</ele>
        <time>2021-05-19T05:38:47Z</time>
      </trkpt>
      <trkpt lat="41.9191570" lon="-8.8820510">
        <ele>21.4</ele>
        <time>2021-05-19T05:38:48Z</time>
      </trkpt>
      <trkpt lat="41.9191540" lon="-8.8820430">
        <ele>21.5</ele>
        <time>2021-05-19T05:38:49Z</time>
      </trkpt>
      <trkpt lat="41.9191480" lon="-8.8820380">
        <ele>21.6</ele>
        <time>2021-05-19T05:38:50Z</time>
      </trkpt>
      <trkpt lat="41.9191280" lon="-8.8820190">
        <ele>21.8</ele>
        <time>2021-05-19T05:38:51Z</time>
      </trkpt>
      <trkpt lat="41.9191230" lon="-8.8820130">
        <ele>21.9</ele>
        <time>2021-05-19T05:38:52Z</time>
      </trkpt>
      <trkpt lat="41.9191180" lon="-8.8820080">
        <ele>21.9</ele>
        <time>2021-05-19T05:38:53Z</time>
      </trkpt>
      <trkpt lat="41.9191110" lon="-8.8820000">
        <ele>22.0</ele>
        <time>2021-05-19T05:38:54Z</time>
      </trkpt>
      <trkpt lat="41.9191030" lon="-8.8819880">
        <ele>22.1</ele>
        <time>2021-05-19T05:38:55Z</time>
      </trkpt>
      <trkpt lat="41.9190890" lon="-8.8819820">
        <ele>22.3</ele>
        <time>2021-05-19T05:38:56Z</time>
      </trkpt>
      <trkpt lat="41.9190810" lon="-8.8819660">
        <ele>22.4</ele>
        <time>2021-05-19T05:38:57Z</time>
      </trkpt>
      <trkpt lat="41.9190730" lon="-8.8819570">
        <ele>22.5</ele>
        <time>2021-05-19T05:38:58Z</time>
      </trkpt>
      <trkpt lat="41.9190680" lon="-8.8819460">
        <ele>22.6</ele>
        <time>2021-05-19T05:38:59Z</time>
      </trkpt>
      <trkpt lat="41.9190500" lon="-8.8819270">
        <ele>22.8</ele>
        <time>2021-05-19T05:39:00Z</time>
      </trkpt>
      <trkpt lat="41.9190430" lon="-8.8819190">
        <ele>22.9</ele>
        <time>2021-05-19T05:39:01Z</time>
      </trkpt>
      <trkpt lat="41.9190350" lon="-8.8819120">
        <ele>23.0</ele>
        <time>2021-05-19T05:39:02Z</time>
      </trkpt>
      <trkpt lat="41.9190250" lon="-8.8819030">
        <ele>23.2</ele>
        <time>2021-05-19T05:39:03Z</time>
      </trkpt>
      <trkpt lat="41.9190190" lon="-8.8818940">
        <ele>23.3</ele>
        <time>2021-05-19T05:39:04Z</time>
      </trkpt>
      <trkpt lat="41.9190130" lon="-8.8818910">
        <ele>23.3</ele>
        <time>2021-05-19T05:39:05Z</time>
      </trkpt>
      <trkpt lat="41.9190050" lon="-8.8818850">
        <ele>23.4</ele>
        <time>2021-05-19T05:39:06Z</time>
      </trkpt>
      <trkpt lat="41.9189970" lon="-8.8818730">
        <ele>23.6</ele>
        <time>2021-05-19T05:39:07Z</time>
      </trkpt>
      <trkpt lat="41.9189840" lon="-8.8818640">
        <ele>23.7</ele>
        <time>2021-05-19T05:39:08Z</time>
      </trkpt>
      <trkpt lat="41.9189760" lon="-8.8818550">
        <ele>23.8</ele>
        <time>2021-05-19T05:39:09Z</time>
      </trkpt>
      <trkpt lat="41.9189640" lon="-8.8818520">
        <ele>24.0</ele>
        <time>2021-05-19T05:39:10Z</time>
      </trkpt>
      <trkpt lat="41.9189610" lon="-8.8818370">
        <ele>24.1</ele>
        <time>2021-05-19T05:39:11Z</time>
      </trkpt>
      <trkpt lat="41.9189550" lon="-8.8818320">
        <ele>24.2</ele>
        <time>2021-05-19T05:39:12Z</time>
      </trkpt>
      <trkpt lat="41.9189440" lon="-8.8818190">
        <ele>24.4</ele>
        <time>2021-05-19T05:39:13Z</time>
      </trkpt>
      <trkpt lat="41.9189360" lon="-8.8818060">
        <ele>24.5</ele>
        <time>2021-05-19T05:39:14Z</time>
      </trkpt>
      <trkpt lat="41.9189200" lon="-8.8817860">
        <ele>24.8</ele>
        <time>2021-05-19T05:39:15Z</time>
      </trkpt>
      <trkpt lat="41.9189160" lon="-8.8817750">
        <ele>24.9</ele>
        <time>2021-05-19T05:39:16Z</time>
      </trkpt>
      <trkpt lat="41.9189110" lon="-8.8817640">
        <ele>25.0</ele>
        <time>2021-05-19T05:39:17Z</time>
      </trkpt>
      <trkpt lat="41.9189080" lon="-8.8817530">
        <ele>25.1</ele>
        <time>2021-05-19T05:39:18Z</time>
      </trkpt>
      <trkpt lat="41.9189030" lon="-8.8817390">
        <ele>25.2</ele>
        <time>2021-05-19T05:39:19Z</time>
      </trkpt>
      <trkpt lat="41.9189060" lon="-8.8817250">
        <ele>25.3</ele>
        <time>2021-05-19T05:39:20Z</time>
      </trkpt>
      <trkpt lat="41.9188980" lon="-8.8817160">
        <ele>25.5</ele>
        <time>2021-05-19T05:39:21Z</time>
      </trkpt>
      <trkpt lat="41.9188980" lon="-8.8817000">
        <ele>25.6</ele>
        <time>2021-05-19T05:39:22Z</time>
      </trkpt>
      <trkpt lat="41.9189040" lon="-8.8816820">
        <ele>25.8</ele>
        <time>2021-05-19T05:39:23Z</time>
      </trkpt>
      <trkpt lat="41.9189050" lon="-8.8816730">
        <ele>25.9</ele>
        <time>2021-05-19T05:39:24Z</time>
      </trkpt>
      <trkpt lat="41.9189080" lon="-8.8816560">
        <ele>26.0</ele>
        <time>2021-05-19T05:39:25Z</time>
      </trkpt>
      <trkpt lat="41.9189140" lon="-8.8816470">
        <ele>26.1</ele>
        <time>2021-05-19T05:39:26Z</time>
      </trkpt>
      <trkpt lat="41.9189140" lon="-8.8816250">
        <ele>26.3</ele>
        <time>2021-05-19T05:39:27Z</time>
      </trkpt>
      <trkpt lat="41.9189160" lon="-8.8816100">
        <ele>26.5</ele>
        <time>2021-05-19T05:39:28Z</time>
      </trkpt>
      <trkpt lat="41.9189200" lon="-8.8815950">
        <ele>26.6</ele>
        <time>2021-05-19T05:39:29Z</time>
      </trkpt>
      <trkpt lat="41.9189230" lon="-8.8815850">
        <ele>26.7</ele>
        <time>2021-05-19T05:39:30Z</time>
      </trkpt>
      <trkpt lat="41.9189210" lon="-8.8815730">
        <ele>26.8</ele>
        <time>2021-05-19T05:39:31Z</time>
      </trkpt>
      <trkpt lat="41.9189270" lon="-8.8815570">
        <ele>27.0</ele>
        <time>2021-05-19T05:39:32Z</time>
      </trkpt>
      <trkpt lat="41.9189310" lon="-8.8815390">
        <ele>27.2</ele>
        <time>2021-05-19T05:39:33Z</time>
      </trkpt>
      <trkpt lat="41.9189370" lon="-8.8815260">
        <ele>27.3</ele>
        <time>2021-05-19T05:39:34Z</time>
      </trkpt>
      <trkpt lat="41.9189440" lon="-8.8815140">
        <ele>27.5</ele>
        <time>2021-05-19T05:39:35Z</time>
      </trkpt>
      <trkpt lat="41.9189480" lon="-8.8815080">
        <ele>27.5</ele>
        <time>2021-05-19T05:39:36Z</time>
      </trkpt>
      <trkpt lat="41.9189480" lon="-8.8814990">
        <ele>27.6</ele>
        <time>2021-05-19T05:39:37Z</time>
      </trkpt>
      <trkpt lat="41.9189510" lon="-8.8814860">
        <ele>27.8</ele>
        <time>2021-05-19T05:39:38Z</time>
      </trkpt>
      <trkpt lat="41.9189540" lon="-8.8814740">
        <ele>27.9</ele>
        <time>2021-05-19T05:39:39Z</time>
      </trkpt>
      <trkpt lat="41.9189590" lon="-8.8814680">
        <ele>28.0</ele>
        <time>2021-05-19T05:39:40Z</time>
      </trkpt>
      <trkpt lat="41.9189660" lon="-8.8814550">
        <ele>28.1</ele>
        <time>2021-05-19T05:39:41Z</time>
      </trkpt>
      <trkpt lat="41.9189720" lon="-8.8814430">
        <ele>28.2</ele>
        <time>2021-05-19T05:39:42Z</time>
      </trkpt>
      <trkpt lat="41.9189760" lon="-8.8814350">
        <ele>28.3</ele>
        <time>2021-05-19T05:39:43Z</time>
      </trkpt>
      <trkpt lat="41.9189830" lon="-8.8814260">
        <ele>28.4</ele>
        <time>2021-05-19T05:39:44Z</time>
      </trkpt>
      <trkpt lat="41.9189880" lon="-8.8814170">
        <ele>28.5</ele>
        <time>2021-05-19T05:39:45Z</time>
      </trkpt>
      <trkpt lat="41.9189990" lon="-8.8814050">
        <ele>28.7</ele>
        <time>2021-05-19T05:39:46Z</time>
      </trkpt>
      <trkpt lat="41.9190040" lon="-8.8813900">
        <ele>28.9</ele>
        <time>2021-05-19T05:39:47Z</time>
      </trkpt>
      <trkpt lat="41.9190090" lon="-8.8813780">
        <ele>29.0</ele>
        <time>2021-05-19T05:39:48Z</time>
      </trkpt>
      <trkpt lat="41.9190120" lon="-8.8813700">
        <ele>29.1</ele>
        <time>2021-05-19T05:39:49Z</time>
      </trkpt>
      <trkpt lat="41.9190220" lon="-8.8813600">
        <ele>29.2</ele>
        <time>2021-05-19T05:39:50Z</time>
      </trkpt>
      <trkpt lat="41.9190310" lon="-8.8813480">
        <ele>29.4</ele>
        <time>2021-05-19T05:39:51Z</time>
      </trkpt>
      <trkpt lat="41.9190360" lon="-8.8813370">
        <ele>29.5</ele>
        <time>2021-05-19T05:39:52Z</time>
      </trkpt>
      <trkpt lat="41.9190450" lon="-8.8813260">
        <ele>29.6</ele>
        <time>2021-05-19T05:39:53Z</time>
      </trkpt>
      <trkpt lat="41.9190540" lon="-8.8813180">
        <ele>29.8</ele>
        <time>2021-05-19T05:39:54Z</time>
      </trkpt>
      <trkpt lat="41.9190630" lon="-8.8813070">
        <ele>29.9</ele>
        <time>2021-05-19T05:39:55Z</time>
      </trkpt>
      <trkpt lat="41.9190720" lon="-8.8813030">
        <ele>30.0</ele>
        <time>2021-05-19T05:39:56Z</time>
      </trkpt>
      <trkpt lat="41.9190780" lon="-8.8812980">
        <ele>30.1</ele>
        <time>2021-05-19T05:39:57Z</time>
      </trkpt>
      <trkpt lat="41.9190870" lon="-8.8812850">
        <ele>30.3</ele>
        <time>2021-05-19T05:39:58Z</time>
      </trkpt>
      <trkpt lat="41.9191080" lon="-8.8812740">
        <ele>30.5</ele>
        <time>2021-05-19T05:39:59Z</time>
      </trkpt>
      <trkpt lat="41.9191170" lon="-8.8812700">
        <ele>30.6</ele>
        <time>2021-05-19T05:40:00Z</time>
      </trkpt>
      <trkpt lat="41.9191250" lon="-8.8812660">
        <ele>30.7</ele>
        <time>2021-05-19T05:40:01Z</time>
      </trkpt>
      <trkpt lat="41.9191340" lon="-8.8812660">
        <ele>30.9</ele>
        <time>2021-05-19T05:40:02Z</time>
      </trkpt>
      <trkpt lat="41.9191420" lon="-8.8812630">
        <ele>31.0</ele>
        <time>2021-05-19T05:40:03Z</time>
      </trkpt>
      <trkpt lat="41.9191510" lon="-8.8812560">
        <ele>31.1</ele>
        <time>2021-05-19T05:40:04Z</time>
      </trkpt>
      <trkpt lat="41.9191610" lon="-8.8812460">
        <ele>31.2</ele>
        <time>2021-05-19T05:40:05Z</time>
      </trkpt>
      <trkpt lat="41.9191730" lon="-8.8812420">
        <ele>31.4</ele>
        <time>2021-05-19T05:40:06Z</time>
      </trkpt>
      <trkpt lat="41.9191830" lon="-8.8812370">
        <ele>31.5</ele>
        <time>2021-05-19T05:40:07Z</time>
      </trkpt>
      <trkpt lat="41.9191970" lon="-8.8812280">
        <ele>31.7</ele>
        <time>2021-05-19T05:40:08Z</time>
      </trkpt>
      <trkpt lat="41.9192070" lon="-8.8812270">
        <ele>31.8</ele>
        <time>2021-05-19T05:40:09Z</time>
      </trkpt>
      <trkpt lat="41.9192180" lon="-8.8812250">
        <ele>31.9</ele>
        <time>2021-05-19T05:40:10Z</time>
      </trkpt>
      <trkpt lat="41.9192390" lon="-8.8812190">
        <ele>32.1</ele>
        <time>2021-05-19T05:40:11Z</time>
      </trkpt>
      <trkpt lat="41.9192480" lon="-8.8812180">
        <ele>32.2</ele>
        <time>2021-05-19T05:40:12Z</time>
      </trkpt>
      <trkpt lat="41.9192580" lon="-8.8812160">
        <ele>32.3</ele>
        <time>2021-05-19T05:40:13Z</time>
      </trkpt>
      <trkpt lat="41.9192690" lon="-8.8812180">
        <ele>32.5</ele>
        <time>2021-05-19T05:40:14Z</time>
      </trkpt>
      <trkpt lat="41.9192770" lon="-8.8812170">
        <ele>32.5</ele>
        <time>2021-05-19T05:40:15Z</time>
      </trkpt>
      <trkpt lat="41.9192870" lon="-8.8812120">
        <ele>32.6</ele>
        <time>2021-05-19T05:40:16Z</time>
      </trkpt>
      <trkpt lat="41.9193050" lon="-8.8812040">
        <ele>32.8</ele>
        <time>2021-05-19T05:40:17Z</time>
      </trkpt>
      <trkpt lat="41.9193160" lon="-8.8811990">
        <ele>33.0</ele>
        <time>2021-05-19T05:40:18Z</time>
      </trkpt>
      <trkpt lat="41.9193270" lon="-8.8811930">
        <ele>33.1</ele>
        <time>2021-05-19T05:40:19Z</time>
      </trkpt>
      <trkpt lat="41.9193420" lon="-8.8811870">
        <ele>33.2</ele>
        <time>2021-05-19T05:40:20Z</time>
      </trkpt>
      <trkpt lat="41.9193530" lon="-8.8811750">
        <ele>33.3</ele>
        <time>2021-05-19T05:40:21Z</time>
      </trkpt>
      <trkpt lat="41.9193690" lon="-8.8811740">
        <ele>33.5</ele>
        <time>2021-05-19T05:40:22Z</time>
      </trkpt>
      <trkpt lat="41.9193740" lon="-8.8811720">
        <ele>33.5</ele>
        <time>2021-05-19T05:40:23Z</time>
      </trkpt>
      <trkpt lat="41.9193910" lon="-8.8811700">
        <ele>33.7</ele>
        <time>2021-05-19T05:40:24Z</time>
      </trkpt>
      <trkpt lat="41.9194010" lon="-8.8811670">
        <ele>33.8</ele>
        <time>2021-05-19T05:40:25Z</time>
      </trkpt>
      <trkpt lat="41.9194190" lon="-8.8811640">
        <ele>33.9</ele>
        <time>2021-05-19T05:40:26Z</time>
      </trkpt>
      <trkpt lat="41.9194260" lon="-8.8811570">
        <ele>34.0</ele>
        <time>2021-05-19T05:40:27Z</time>
      </trkpt>
      <trkpt lat="41.9194320" lon="-8.8811550">
        <ele>34.1</ele>
        <time>2021-05-19T05:40:28Z</time>
      </trkpt>
      <trkpt lat="41.9194460" lon="-8.8811510">
        <ele>34.2</ele>
        <time>2021-05-19T05:40:29Z</time>
      </trkpt>
      <trkpt lat="41.9194530" lon="-8.8811520">
        <ele>34.2</ele>
        <time>2021-05-19T05:40:30Z</time>
      </trkpt>
      <trkpt lat="41.9194680" lon="-8.8811510">
        <ele>34.4</ele>
        <time>2021-05-19T05:40:31Z</time>
      </trkpt>
      <trkpt lat="41.9194780" lon="-8.8811440">
        <ele>34.5</ele>
        <time>2021-05-19T05:40:32Z</time>
      </trkpt>
      <trkpt lat="41.9194880" lon="-8.8811400">
        <ele>34.6</ele>
        <time>2021-05-19T05:40:33Z</time>
      </trkpt>
      <trkpt lat="41.9194960" lon="-8.8811310">
        <ele>34.6</ele>
        <time>2021-05-19T05:40:34Z</time>
      </trkpt>
      <trkpt lat="41.9195050" lon="-8.8811240">
        <ele>34.7</ele>
        <time>2021-05-19T05:40:35Z</time>
      </trkpt>
      <trkpt lat="41.9195240" lon="-8.8811180">
        <ele>34.9</ele>
        <time>2021-05-19T05:40:36Z</time>
      </trkpt>
      <trkpt lat="41.9195320" lon="-8.8811130">
        <ele>35.0</ele>
        <time>2021-05-19T05:40:37Z</time>
      </trkpt>
      <trkpt lat="41.9195430" lon="-8.8811040">
        <ele>35.1</ele>
        <time>2021-05-19T05:40:38Z</time>
      </trkpt>
      <trkpt lat="41.9195520" lon="-8.8810950">
        <ele>35.2</ele>
        <time>2021-05-19T05:40:39Z</time>
      </trkpt>
      <trkpt lat="41.9195580" lon="-8.8810880">
        <ele>35.2</ele>
        <time>2021-05-19T05:40:40Z</time>
      </trkpt>
      <trkpt lat="41.9195750" lon="-8.8810790">
        <ele>35.4</ele>
        <time>2021-05-19T05:40:41Z</time>
      </trkpt>
      <trkpt lat="41.9195770" lon="-8.8810710">
        <ele>35.4</ele>
        <time>2021-05-19T05:40:42Z</time>
      </trkpt>
      <trkpt lat="41.9195870" lon="-8.8810620">
        <ele>35.5</ele>
        <time>2021-05-19T05:40:43Z</time>
      </trkpt>
      <trkpt lat="41.9196010" lon="-8.8810570">
        <ele>35.6</ele>
        <time>2021-05-19T05:40:44Z</time>
      </trkpt>
      <trkpt lat="41.9196050" lon="-8.8810520">
        <ele>35.7</ele>
        <time>2021-05-19T05:40:45Z</time>
      </trkpt>
      <trkpt lat="41.9196200" lon="-8.8810420">
        <ele>35.8</ele>
        <time>2021-05-19T05:40:46Z</time>
      </trkpt>
      <trkpt lat="41.9196340" lon="-8.8810310">
        <ele>36.0</ele>
        <time>2021-05-19T05:40:47Z</time>
      </trkpt>
      <trkpt lat="41.9196440" lon="-8.8810230">
        <ele>36.1</ele>
        <time>2021-05-19T05:40:48Z</time>
      </trkpt>
      <trkpt lat="41.9196600" lon="-8.8810150">
        <ele>36.2</ele>
        <time>2021-05-19T05:40:49Z</time>
      </trkpt>
      <trkpt lat="41.9196660" lon="-8.8810030">
        <ele>36.3</ele>
        <time>2021-05-19T05:40:50Z</time>
      </trkpt>
      <trkpt lat="41.9196750" lon="-8.8809920">
        <ele>36.4</ele>
        <time>2021-05-19T05:40:51Z</time>
      </trkpt>
      <trkpt lat="41.9196850" lon="-8.8809810">
        <ele>36.5</ele>
        <time>2021-05-19T05:40:52Z</time>
      </trkpt>
      <trkpt lat="41.9196930" lon="-8.8809650">
        <ele>36.6</ele>
        <time>2021-05-19T05:40:53Z</time>
      </trkpt>
      <trkpt lat="41.9197060" lon="-8.8809500">
        <ele>36.8</ele>
        <time>2021-05-19T05:40:54Z</time>
      </trkpt>
      <trkpt lat="41.9197070" lon="-8.8809370">
        <ele>36.8</ele>
        <time>2021-05-19T05:40:55Z</time>
      </trkpt>
      <trkpt lat="41.9197150" lon="-8.8809260">
        <ele>36.9</ele>
        <time>2021-05-19T05:40:56Z</time>
      </trkpt>
      <trkpt lat="41.9197170" lon="-8.8809090">
        <ele>37.1</ele>
        <time>2021-05-19T05:40:57Z</time>
      </trkpt>
      <trkpt lat="41.9197280" lon="-8.8808960">
        <ele>37.2</ele>
        <time>2021-05-19T05:40:58Z</time>
      </trkpt>
      <trkpt lat="41.9197270" lon="-8.8808820">
        <ele>37.3</ele>
        <time>2021-05-19T05:40:59Z</time>
      </trkpt>
      <trkpt lat="41.9197360" lon="-8.8808720">
        <ele>37.4</ele>
        <time>2021-05-19T05:41:00Z</time>
      </trkpt>
      <trkpt lat="41.9197380" lon="-8.8808620">
        <ele>37.5</ele>
        <time>2021-05-19T05:41:01Z</time>
      </trkpt>
      <trkpt lat="41.9197480" lon="-8.8808470">
        <ele>37.6</ele>
        <time>2021-05-19T05:41:02Z</time>
      </trkpt>
      <trkpt lat="41.9197500" lon="-8.8808340">
        <ele>37.7</ele>
        <time>2021-05-19T05:41:03Z</time>
      </trkpt>
      <trkpt lat="41.9197540" lon="-8.8808220">
        <ele>37.8</ele>
        <time>2021-05-19T05:41:04Z</time>
      </trkpt>
      <trkpt lat="41.9197600" lon="-8.8808030">
        <ele>37.9</ele>
        <time>2021-05-19T05:41:05Z</time>
      </trkpt>
      <trkpt lat="41.9197610" lon="-8.8807900">
        <ele>38.0</ele>
        <time>2021-05-19T05:41:06Z</time>
      </trkpt>
      <trkpt lat="41.9197610" lon="-8.8807800">
        <ele>38.1</ele>
        <time>2021-05-19T05:41:07Z</time>
      </trkpt>
      <trkpt lat="41.9197670" lon="-8.8807600">
        <ele>38.2</ele>
        <time>2021-05-19T05:41:08Z</time>
      </trkpt>
      <trkpt lat="41.9197710" lon="-8.8807510">
        <ele>38.3</ele>
        <time>2021-05-19T05:41:09Z</time>
      </trkpt>
      <trkpt lat="41.9197760" lon="-8.8807370">
        <ele>38.4</ele>
        <time>2021-05-19T05:41:10Z</time>
      </trkpt>
      <trkpt lat="41.9197810" lon="-8.8807240">
        <ele>38.5</ele>
        <time>2021-05-19T05:41:11Z</time>
      </trkpt>
      <trkpt lat="41.9197830" lon="-8.8807150">
        <ele>38.5</ele>
        <time>2021-05-19T05:41:12Z</time>
      </trkpt>
      <trkpt lat="41.9197870" lon="-8.8807010">
        <ele>38.6</ele>
        <time>2021-05-19T05:41:13Z</time>
      </trkpt>
      <trkpt lat="41.9197840" lon="-8.8806820">
        <ele>38.8</ele>
        <time>2021-05-19T05:41:14Z</time>
      </trkpt>
      <trkpt lat="41.9197840" lon="-8.8806700">
        <ele>38.8</ele>
        <time>2021-05-19T05:41:15Z</time>
      </trkpt>
      <trkpt lat="41.9197850" lon="-8.8806390">
        <ele>39.1</ele>
        <time>2021-05-19T05:41:16Z</time>
      </trkpt>
      <trkpt lat="41.9197860" lon="-8.8806290">
        <ele>39.1</ele>
        <time>2021-05-19T05:41:17Z</time>
      </trkpt>
      <trkpt lat="41.9197870" lon="-8.8806190">
        <ele>39.2</ele>
        <time>2021-05-19T05:41:18Z</time>
      </trkpt>
      <trkpt lat="41.9197810" lon="-8.8806070">
        <ele>39.3</ele>
        <time>2021-05-19T05:41:19Z</time>
      </trkpt>
      <trkpt lat="41.9197820" lon="-8.8805850">
        <ele>39.5</ele>
        <time>2021-05-19T05:41:20Z</time>
      </trkpt>
      <trkpt lat="41.9197780" lon="-8.8805760">
        <ele>39.5</ele>
        <time>2021-05-19T05:41:21Z</time>
      </trkpt>
      <trkpt lat="41.9197810" lon="-8.8805570">
        <ele>39.7</ele>
        <time>2021-05-19T05:41:22Z</time>
      </trkpt>
      <trkpt lat="41.9197790" lon="-8.8805360">
        <ele>39.8</ele>
        <time>2021-05-19T05:41:23Z</time>
      </trkpt>
      <trkpt lat="41.9197790" lon="-8.8805240">
        <ele>39.9</ele>
        <time>2021-05-19T05:41:24Z</time>
      </trkpt>
      <trkpt lat="41.9197760" lon="-8.8805080">
        <ele>40.0</ele>
        <time>2021-05-19T05:41:25Z</time>
      </trkpt>
      <trkpt lat="41.9197750" lon="-8.8804940">
        <ele>40.2</ele>
        <time>2021-05-19T05:41:26Z</time>
      </trkpt>
      <trkpt lat="41.9197820" lon="-8.8804690">
        <ele>40.4</ele>
        <time>2021-05-19T05:41:27Z</time>
      </trkpt>
      <trkpt lat="41.9197830" lon="-8.8804570">
        <ele>40.5</ele>
        <time>2021-05-19T05:41:28Z</time>
      </trkpt>
      <trkpt lat="41.9197840" lon="-8.8804310">
        <ele>40.7</ele>
        <time>2021-05-19T05:41:29Z</time>
      </trkpt>
      <trkpt lat="41.9197860" lon="-8.8804190">
        <ele>40.8</ele>
        <time>2021-05-19T05:41:30Z</time>
      </trkpt>
      <trkpt lat="41.9197810" lon="-8.8804110">
        <ele>40.9</ele>
        <time>2021-05-19T05:41:31Z</time>
      </trkpt>
      <trkpt lat="41.9197850" lon="-8.8803930">
        <ele>41.0</ele>
        <time>2021-05-19T05:41:32Z</time>
      </trkpt>
      <trkpt lat="41.9197820" lon="-8.8803790">
        <ele>41.2</ele>
        <time>2021-05-19T05:41:33Z</time>
      </trkpt>
      <trkpt lat="41.9197840" lon="-8.8803640">
        <ele>41.3</ele>
        <time>2021-05-19T05:41:34Z</time>
      </trkpt>
      <trkpt lat="41.9197850" lon="-8.8803440">
        <ele>41.5</ele>
        <time>2021-05-19T05:41:35Z</time>
      </trkpt>
      <trkpt lat="41.9197870" lon="-8.8803340">
        <ele>41.5</ele>
        <time>2021-05-19T05:41:36Z</time>
      </trkpt>
      <trkpt lat="41.9197910" lon="-8.8803160">
        <ele>41.7</ele>
        <time>2021-05-19T05:41:37Z</time>
      </trkpt>
      <trkpt lat="41.9198000" lon="-8.8803070">
        <ele>42.0</ele>
        <time>2021-05-19T05:41:38Z</time>
      </trkpt>
      <trkpt lat="41.9198080" lon="-8.8803090">
        <ele>42.1</ele>
        <time>2021-05-19T05:41:39Z</time>
      </trkpt>
      <trkpt lat="41.9198280" lon="-8.8803130">
        <ele>42.1</ele>
        <time>2021-05-19T05:41:40Z</time>
      </trkpt>
      <trkpt lat="41.9198360" lon="-8.8803150">
        <ele>42.2</ele>
        <time>2021-05-19T05:41:41Z</time>
      </trkpt>
      <trkpt lat="41.9198430" lon="-8.8803170">
        <ele>42.2</ele>
        <time>2021-05-19T05:41:42Z</time>
      </trkpt>
      <trkpt lat="41.9198500" lon="-8.8803190">
        <ele>42.2</ele>
        <time>2021-05-19T05:41:43Z</time>
      </trkpt>
      <trkpt lat="41.9198630" lon="-8.8803210">
        <ele>42.2</ele>
        <time>2021-05-19T05:41:44Z</time>
      </trkpt>
      <trkpt lat="41.9198660" lon="-8.8803310">
        <ele>42.3</ele>
        <time>2021-05-19T05:41:45Z</time>
      </trkpt>
      <trkpt lat="41.9198790" lon="-8.8803320">
        <ele>42.3</ele>
        <time>2021-05-19T05:41:46Z</time>
      </trkpt>
      <trkpt lat="41.9198860" lon="-8.8803370">
        <ele>42.3</ele>
        <time>2021-05-19T05:41:47Z</time>
      </trkpt>
      <trkpt lat="41.9199000" lon="-8.8803410">
        <ele>42.3</ele>
        <time>2021-05-19T05:41:48Z</time>
      </trkpt>
      <trkpt lat="41.9199120" lon="-8.8803490">
        <ele>42.3</ele>
        <time>2021-05-19T05:41:49Z</time>
      </trkpt>
      <trkpt lat="41.9199250" lon="-8.8803520">
        <ele>42.4</ele>
        <time>2021-05-19T05:41:50Z</time>
      </trkpt>
      <trkpt lat="41.9199350" lon="-8.8803560">
        <ele>42.4</ele>
        <time>2021-05-19T05:41:51Z</time>
      </trkpt>
      <trkpt lat="41.9199420" lon="-8.8803620">
        <ele>42.4</ele>
        <time>2021-05-19T05:41:52Z</time>
      </trkpt>
      <trkpt lat="41.9199510" lon="-8.8803640">
        <ele>42.4</ele>
        <time>2021-05-19T05:41:53Z</time>
      </trkpt>
      <trkpt lat="41.9199550" lon="-8.8803640">
        <ele>42.4</ele>
        <time>2021-05-19T05:41:54Z</time>
      </trkpt>
      <trkpt lat="41.9199690" lon="-8.8803680">
        <ele>42.4</ele>
        <time>2021-05-19T05:41:55Z</time>
      </trkpt>
      <trkpt lat="41.9199800" lon="-8.8803710">
        <ele>42.4</ele>
        <time>2021-05-19T05:41:56Z</time>
      </trkpt>
      <trkpt lat="41.9199960" lon="-8.8803750">
        <ele>42.4</ele>
        <time>2021-05-19T05:41:57Z</time>
      </trkpt>
      <trkpt lat="41.9199990" lon="-8.8803730">
        <ele>42.4</ele>
        <time>2021-05-19T05:41:58Z</time>
      </trkpt>
      <trkpt lat="41.9200150" lon="-8.8803790">
        <ele>42.4</ele>
        <time>2021-05-19T05:41:59Z</time>
      </trkpt>
      <trkpt lat="41.9200270" lon="-8.8803840">
        <ele>42.4</ele>
        <time>2021-05-19T05:42:00Z</time>
      </trkpt>
      <trkpt lat="41.9200350" lon="-8.8803870">
        <ele>42.4</ele>
        <time>2021-05-19T05:42:01Z</time>
      </trkpt>
      <trkpt lat="41.9200430" lon="-8.8803950">
        <ele>42.4</ele>
        <time>2021-05-19T05:42:02Z</time>
      </trkpt>
      <trkpt lat="41.9200530" lon="-8.8804070">
        <ele>42.4</ele>
        <time>2021-05-19T05:42:03Z</time>
      </trkpt>
      <trkpt lat="41.9200570" lon="-8.8804050">
        <ele>42.4</ele>
        <time>2021-05-19T05:42:04Z</time>
      </trkpt>
      <trkpt lat="41.9200660" lon="-8.8803990">
        <ele>42.4</ele>
        <time>2021-05-19T05:42:05Z</time>
      </trkpt>
      <trkpt lat="41.9200830" lon="-8.8804070">
        <ele>42.4</ele>
        <time>2021-05-19T05:42:06Z</time>
      </trkpt>
      <trkpt lat="41.9200940" lon="-8.8804080">
        <ele>42.4</ele>
        <time>2021-05-19T05:42:07Z</time>
      </trkpt>
      <trkpt lat="41.9201050" lon="-8.8804140">
        <ele>42.4</ele>
        <time>2021-05-19T05:42:08Z</time>
      </trkpt>
      <trkpt lat="41.9201180" lon="-8.8804110">
        <ele>42.4</ele>
        <time>2021-05-19T05:42:09Z</time>
      </trkpt>
      <trkpt lat="41.9201300" lon="-8.8804120">
        <ele>42.3</ele>
        <time>2021-05-19T05:42:10Z</time>
      </trkpt>
      <trkpt lat="41.9201380" lon="-8.8804110">
        <ele>42.3</ele>
        <time>2021-05-19T05:42:11Z</time>
      </trkpt>
      <trkpt lat="41.9201540" lon="-8.8804150">
        <ele>42.3</ele>
        <time>2021-05-19T05:42:12Z</time>
      </trkpt>
      <trkpt lat="41.9201650" lon="-8.8804180">
        <ele>42.3</ele>
        <time>2021-05-19T05:42:13Z</time>
      </trkpt>
      <trkpt lat="41.9201820" lon="-8.8804240">
        <ele>42.3</ele>
        <time>2021-05-19T05:42:14Z</time>
      </trkpt>
      <trkpt lat="41.9202070" lon="-8.8804250">
        <ele>42.3</ele>
        <time>2021-05-19T05:42:15Z</time>
      </trkpt>
      <trkpt lat="41.9202160" lon="-8.8804280">
        <ele>42.3</ele>
        <time>2021-05-19T05:42:16Z</time>
      </trkpt>
      <trkpt lat="41.9202260" lon="-8.8804320">
        <ele>42.3</ele>
        <time>2021-05-19T05:42:17Z</time>
      </trkpt>
      <trkpt lat="41.9202340" lon="-8.8804360">
        <ele>42.3</ele>
        <time>2021-05-19T05:42:18Z</time>
      </trkpt>
      <trkpt lat="41.9202430" lon="-8.8804380">
        <ele>42.3</ele>
        <time>2021-05-19T05:42:19Z</time>
      </trkpt>
      <trkpt lat="41.9202530" lon="-8.8804370">
        <ele>42.3</ele>
        <time>2021-05-19T05:42:20Z</time>
      </trkpt>
      <trkpt lat="41.9202660" lon="-8.8804420">
        <ele>42.3</ele>
        <time>2021-05-19T05:42:21Z</time>
      </trkpt>
      <trkpt lat="41.9202820" lon="-8.8804390">
        <ele>42.3</ele>
        <time>2021-05-19T05:42:22Z</time>
      </trkpt>
      <trkpt lat="41.9202920" lon="-8.8804410">
        <ele>42.2</ele>
        <time>2021-05-19T05:42:23Z</time>
      </trkpt>
      <trkpt lat="41.9203040" lon="-8.8804400">
        <ele>42.2</ele>
        <time>2021-05-19T05:42:24Z</time>
      </trkpt>
      <trkpt lat="41.9203190" lon="-8.8804370">
        <ele>42.2</ele>
        <time>2021-05-19T05:42:25Z</time>
      </trkpt>
      <trkpt lat="41.9203320" lon="-8.8804470">
        <ele>42.2</ele>
        <time>2021-05-19T05:42:26Z</time>
      </trkpt>
      <trkpt lat="41.9203510" lon="-8.8804410">
        <ele>42.2</ele>
        <time>2021-05-19T05:42:27Z</time>
      </trkpt>
      <trkpt lat="41.9203620" lon="-8.8804430">
        <ele>42.2</ele>
        <time>2021-05-19T05:42:28Z</time>
      </trkpt>
      <trkpt lat="41.9203790" lon="-8.8804490">
        <ele>42.2</ele>
        <time>2021-05-19T05:42:29Z</time>
      </trkpt>
      <trkpt lat="41.9203930" lon="-8.8804510">
        <ele>42.2</ele>
        <time>2021-05-19T05:42:30Z</time>
      </trkpt>
      <trkpt lat="41.9204120" lon="-8.8804630">
        <ele>42.2</ele>
        <time>2021-05-19T05:42:31Z</time>
      </trkpt>
      <trkpt lat="41.9204200" lon="-8.8804620">
        <ele>42.2</ele>
        <time>2021-05-19T05:42:32Z</time>
      </trkpt>
      <trkpt lat="41.9204370" lon="-8.8804660">
        <ele>42.2</ele>
        <time>2021-05-19T05:42:33Z</time>
      </trkpt>
      <trkpt lat="41.9204460" lon="-8.8804740">
        <ele>42.2</ele>
        <time>2021-05-19T05:42:34Z</time>
      </trkpt>
      <trkpt lat="41.9204670" lon="-8.8804770">
        <ele>42.2</ele>
        <time>2021-05-19T05:42:35Z</time>
      </trkpt>
      <trkpt lat="41.9204760" lon="-8.8804790">
        <ele>42.2</ele>
        <time>2021-05-19T05:42:36Z</time>
      </trkpt>
      <trkpt lat="41.9204840" lon="-8.8804820">
        <ele>42.2</ele>
        <time>2021-05-19T05:42:37Z</time>
      </trkpt>
      <trkpt lat="41.9205030" lon="-8.8804880">
        <ele>42.2</ele>
        <time>2021-05-19T05:42:38Z</time>
      </trkpt>
      <trkpt lat="41.9205100" lon="-8.8804850">
        <ele>42.2</ele>
        <time>2021-05-19T05:42:39Z</time>
      </trkpt>
      <trkpt lat="41.9205140" lon="-8.8804850">
        <ele>42.2</ele>
        <time>2021-05-19T05:42:40Z</time>
      </trkpt>
      <trkpt lat="41.9205200" lon="-8.8804880">
        <ele>42.2</ele>
        <time>2021-05-19T05:42:41Z</time>
      </trkpt>
      <trkpt lat="41.9205340" lon="-8.8804890">
        <ele>42.3</ele>
        <time>2021-05-19T05:42:42Z</time>
      </trkpt>
      <trkpt lat="41.9205440" lon="-8.8804840">
        <ele>42.3</ele>
        <time>2021-05-19T05:42:43Z</time>
      </trkpt>
      <trkpt lat="41.9205710" lon="-8.8804930">
        <ele>42.3</ele>
        <time>2021-05-19T05:42:44Z</time>
      </trkpt>
      <trkpt lat="41.9205860" lon="-8.8804960">
        <ele>42.3</ele>
        <time>2021-05-19T05:42:45Z</time>
      </trkpt>
      <trkpt lat="41.9205980" lon="-8.8805020">
        <ele>42.3</ele>
        <time>2021-05-19T05:42:46Z</time>
      </trkpt>
      <trkpt lat="41.9206100" lon="-8.8804970">
        <ele>42.3</ele>
        <time>2021-05-19T05:42:47Z</time>
      </trkpt>
      <trkpt lat="41.9206140" lon="-8.8805050">
        <ele>42.3</ele>
        <time>2021-05-19T05:42:48Z</time>
      </trkpt>
      <trkpt lat="41.9206170" lon="-8.8805150">
        <ele>42.3</ele>
        <time>2021-05-19T05:42:49Z</time>
      </trkpt>
      <trkpt lat="41.9206230" lon="-8.8805180">
        <ele>42.3</ele>
        <time>2021-05-19T05:42:50Z</time>
      </trkpt>
      <trkpt lat="41.9206320" lon="-8.8805200">
        <ele>42.3</ele>
        <time>2021-05-19T05:42:51Z</time>
      </trkpt>
      <trkpt lat="41.9206430" lon="-8.8805260">
        <ele>42.3</ele>
        <time>2021-05-19T05:42:52Z</time>
      </trkpt>
      <trkpt lat="41.9206570" lon="-8.8805300">
        <ele>42.4</ele>
        <time>2021-05-19T05:42:53Z</time>
      </trkpt>
      <trkpt lat="41.9206790" lon="-8.8805250">
        <ele>42.4</ele>
        <time>2021-05-19T05:42:54Z</time>
      </trkpt>
      <trkpt lat="41.9206910" lon="-8.8805220">
        <ele>42.4</ele>
        <time>2021-05-19T05:42:55Z</time>
      </trkpt>
      <trkpt lat="41.9207020" lon="-8.8805190">
        <ele>42.4</ele>
        <time>2021-05-19T05:42:56Z</time>
      </trkpt>
      <trkpt lat="41.9207100" lon="-8.8805220">
        <ele>42.4</ele>
        <time>2021-05-19T05:42:57Z</time>
      </trkpt>
      <trkpt lat="41.9207230" lon="-8.8805210">
        <ele>42.4</ele>
        <time>2021-05-19T05:42:58Z</time>
      </trkpt>
      <trkpt lat="41.9207390" lon="-8.8805220">
        <ele>42.5</ele>
        <time>2021-05-19T05:42:59Z</time>
      </trkpt>
      <trkpt lat="41.9207630" lon="-8.8805270">
        <ele>42.5</ele>
        <time>2021-05-19T05:43:00Z</time>
      </trkpt>
      <trkpt lat="41.9207730" lon="-8.8805300">
        <ele>42.5</ele>
        <time>2021-05-19T05:43:01Z</time>
      </trkpt>
      <trkpt lat="41.9207830" lon="-8.8805320">
        <ele>42.5</ele>
        <time>2021-05-19T05:43:02Z</time>
      </trkpt>
      <trkpt lat="41.9207970" lon="-8.8805350">
        <ele>42.6</ele>
        <time>2021-05-19T05:43:03Z</time>
      </trkpt>
      <trkpt lat="41.9208000" lon="-8.8805310">
        <ele>42.6</ele>
        <time>2021-05-19T05:43:04Z</time>
      </trkpt>
      <trkpt lat="41.9208030" lon="-8.8805320">
        <ele>42.6</ele>
        <time>2021-05-19T05:43:05Z</time>
      </trkpt>
      <trkpt lat="41.9208160" lon="-8.8805310">
        <ele>42.6</ele>
        <time>2021-05-19T05:43:06Z</time>
      </trkpt>
      <trkpt lat="41.9208330" lon="-8.8805380">
        <ele>42.6</ele>
        <time>2021-05-19T05:43:07Z</time>
      </trkpt>
      <trkpt lat="41.9208520" lon="-8.8805320">
        <ele>42.7</ele>
        <time>2021-05-19T05:43:08Z</time>
      </trkpt>
      <trkpt lat="41.9208710" lon="-8.8805380">
        <ele>42.7</ele>
        <time>2021-05-19T05:43:09Z</time>
      </trkpt>
      <trkpt lat="41.9208800" lon="-8.8805400">
        <ele>42.7</ele>
        <time>2021-05-19T05:43:10Z</time>
      </trkpt>
      <trkpt lat="41.9208890" lon="-8.8805410">
        <ele>42.7</ele>
        <time>2021-05-19T05:43:11Z</time>
      </trkpt>
      <trkpt lat="41.9208980" lon="-8.8805400">
        <ele>42.8</ele>
        <time>2021-05-19T05:43:12Z</time>
      </trkpt>
      <trkpt lat="41.9209160" lon="-8.8805410">
        <ele>42.8</ele>
        <time>2021-05-19T05:43:13Z</time>
      </trkpt>
      <trkpt lat="41.9209350" lon="-8.8805400">
        <ele>42.8</ele>
        <time>2021-05-19T05:43:14Z</time>
      </trkpt>
      <trkpt lat="41.9209450" lon="-8.8805420">
        <ele>42.8</ele>
        <time>2021-05-19T05:43:15Z</time>
      </trkpt>
      <trkpt lat="41.9209540" lon="-8.8805440">
        <ele>42.9</ele>
        <time>2021-05-19T05:43:16Z</time>
      </trkpt>
      <trkpt lat="41.9209640" lon="-8.8805390">
        <ele>42.9</ele>
        <time>2021-05-19T05:43:17Z</time>
      </trkpt>
      <trkpt lat="41.9209720" lon="-8.8805350">
        <ele>42.9</ele>
        <time>2021-05-19T05:43:18Z</time>
      </trkpt>
      <trkpt lat="41.9209790" lon="-8.8805360">
        <ele>42.9</ele>
        <time>2021-05-19T05:43:19Z</time>
      </trkpt>
      <trkpt lat="41.9209880" lon="-8.8805350">
        <ele>42.9</ele>
        <time>2021-05-19T05:43:20Z</time>
      </trkpt>
      <trkpt lat="41.9210070" lon="-8.8805330">
        <ele>43.0</ele>
        <time>2021-05-19T05:43:21Z</time>
      </trkpt>
      <trkpt lat="41.9210180" lon="-8.8805330">
        <ele>43.0</ele>
        <time>2021-05-19T05:43:22Z</time>
      </trkpt>
      <trkpt lat="41.9210300" lon="-8.8805330">
        <ele>43.0</ele>
        <time>2021-05-19T05:43:23Z</time>
      </trkpt>
      <trkpt lat="41.9210480" lon="-8.8805330">
        <ele>43.0</ele>
        <time>2021-05-19T05:43:24Z</time>
      </trkpt>
      <trkpt lat="41.9210560" lon="-8.8805350">
        <ele>43.0</ele>
        <time>2021-05-19T05:43:25Z</time>
      </trkpt>
      <trkpt lat="41.9210640" lon="-8.8805370">
        <ele>43.0</ele>
        <time>2021-05-19T05:43:26Z</time>
      </trkpt>
      <trkpt lat="41.9210720" lon="-8.8805390">
        <ele>43.1</ele>
        <time>2021-05-19T05:43:27Z</time>
      </trkpt>
      <trkpt lat="41.9210860" lon="-8.8805350">
        <ele>43.1</ele>
        <time>2021-05-19T05:43:28Z</time>
      </trkpt>
      <trkpt lat="41.9210990" lon="-8.8805310">
        <ele>43.1</ele>
        <time>2021-05-19T05:43:29Z</time>
      </trkpt>
      <trkpt lat="41.9211130" lon="-8.8805360">
        <ele>43.1</ele>
        <time>2021-05-19T05:43:30Z</time>
      </trkpt>
      <trkpt lat="41.9211200" lon="-8.8805410">
        <ele>43.1</ele>
        <time>2021-05-19T05:43:31Z</time>
      </trkpt>
      <trkpt lat="41.9211310" lon="-8.8805350">
        <ele>43.1</ele>
        <time>2021-05-19T05:43:32Z</time>
      </trkpt>
      <trkpt lat="41.9211400" lon="-8.8805310">
        <ele>43.1</ele>
        <time>2021-05-19T05:43:33Z</time>
      </trkpt>
      <trkpt lat="41.9211340" lon="-8.8805300">
        <ele>43.1</ele>
        <time>2021-05-19T05:43:34Z</time>
      </trkpt>
      <trkpt lat="41.9211370" lon="-8.8805330">
        <ele>43.1</ele>
        <time>2021-05-19T05:43:35Z</time>
      </trkpt>
      <trkpt lat="41.9211510" lon="-8.8805310">
        <ele>43.1</ele>
        <time>2021-05-19T05:43:36Z</time>
      </trkpt>
      <trkpt lat="41.9211590" lon="-8.8805400">
        <ele>43.1</ele>
        <time>2021-05-19T05:43:37Z</time>
      </trkpt>
      <trkpt lat="41.9211760" lon="-8.8805560">
        <ele>43.0</ele>
        <time>2021-05-19T05:43:38Z</time>
      </trkpt>
      <trkpt lat="41.9211890" lon="-8.8805540">
        <ele>43.0</ele>
        <time>2021-05-19T05:43:39Z</time>
      </trkpt>
      <trkpt lat="41.9212050" lon="-8.8805720">
        <ele>43.0</ele>
        <time>2021-05-19T05:43:40Z</time>
      </trkpt>
      <trkpt lat="41.9212120" lon="-8.8805800">
        <ele>42.9</ele>
        <time>2021-05-19T05:43:41Z</time>
      </trkpt>
      <trkpt lat="41.9212180" lon="-8.8805890">
        <ele>42.9</ele>
        <time>2021-05-19T05:43:42Z</time>
      </trkpt>
      <trkpt lat="41.9212290" lon="-8.8806040">
        <ele>42.8</ele>
        <time>2021-05-19T05:43:43Z</time>
      </trkpt>
      <trkpt lat="41.9212340" lon="-8.8806200">
        <ele>42.8</ele>
        <time>2021-05-19T05:43:44Z</time>
      </trkpt>
      <trkpt lat="41.9212420" lon="-8.8806480">
        <ele>42.7</ele>
        <time>2021-05-19T05:43:45Z</time>
      </trkpt>
      <trkpt lat="41.9212430" lon="-8.8806600">
        <ele>42.6</ele>
        <time>2021-05-19T05:43:46Z</time>
      </trkpt>
      <trkpt lat="41.9212440" lon="-8.8806730">
        <ele>42.5</ele>
        <time>2021-05-19T05:43:47Z</time>
      </trkpt>
      <trkpt lat="41.9212490" lon="-8.8806960">
        <ele>42.4</ele>
        <time>2021-05-19T05:43:48Z</time>
      </trkpt>
      <trkpt lat="41.9212510" lon="-8.8807050">
        <ele>42.3</ele>
        <time>2021-05-19T05:43:49Z</time>
      </trkpt>
      <trkpt lat="41.9212520" lon="-8.8807130">
        <ele>42.3</ele>
        <time>2021-05-19T05:43:50Z</time>
      </trkpt>
      <trkpt lat="41.9212540" lon="-8.8807220">
        <ele>42.2</ele>
        <time>2021-05-19T05:43:51Z</time>
      </trkpt>
      <trkpt lat="41.9212540" lon="-8.8807350">
        <ele>42.2</ele>
        <time>2021-05-19T05:43:52Z</time>
      </trkpt>
      <trkpt lat="41.9212560" lon="-8.8807470">
        <ele>42.1</ele>
        <time>2021-05-19T05:43:53Z</time>
      </trkpt>
      <trkpt lat="41.9212570" lon="-8.8807590">
        <ele>42.0</ele>
        <time>2021-05-19T05:43:54Z</time>
      </trkpt>
      <trkpt lat="41.9212590" lon="-8.8807710">
        <ele>41.9</ele>
        <time>2021-05-19T05:43:55Z</time>
      </trkpt>
      <trkpt lat="41.9212600" lon="-8.8807830">
        <ele>41.8</ele>
        <time>2021-05-19T05:43:56Z</time>
      </trkpt>
      <trkpt lat="41.9212570" lon="-8.8808090">
        <ele>41.6</ele>
        <time>2021-05-19T05:43:57Z</time>
      </trkpt>
      <trkpt lat="41.9212510" lon="-8.8808240">
        <ele>41.5</ele>
        <time>2021-05-19T05:43:58Z</time>
      </trkpt>
      <trkpt lat="41.9212450" lon="-8.8808380">
        <ele>41.3</ele>
        <time>2021-05-19T05:43:59Z</time>
      </trkpt>
      <trkpt lat="41.9212460" lon="-8.8808390">
        <ele>41.3</ele>
        <time>2021-05-19T05:44:00Z</time>
      </trkpt>
      <trkpt lat="41.9212440" lon="-8.8808610">
        <ele>41.1</ele>
        <time>2021-05-19T05:44:01Z</time>
      </trkpt>
      <trkpt lat="41.9212430" lon="-8.8808780">
        <ele>41.0</ele>
        <time>2021-05-19T05:44:02Z</time>
      </trkpt>
      <trkpt lat="41.9212440" lon="-8.8808890">
        <ele>40.9</ele>
        <time>2021-05-19T05:44:03Z</time>
      </trkpt>
      <trkpt lat="41.9212490" lon="-8.8808980">
        <ele>40.8</ele>
        <time>2021-05-19T05:44:04Z</time>
      </trkpt>
      <trkpt lat="41.9212450" lon="-8.8809200">
        <ele>40.5</ele>
        <time>2021-05-19T05:44:05Z</time>
      </trkpt>
      <trkpt lat="41.9212440" lon="-8.8809460">
        <ele>40.3</ele>
        <time>2021-05-19T05:44:06Z</time>
      </trkpt>
      <trkpt lat="41.9212470" lon="-8.8809660">
        <ele>40.1</ele>
        <time>2021-05-19T05:44:07Z</time>
      </trkpt>
      <trkpt lat="41.9212420" lon="-8.8809820">
        <ele>39.9</ele>
        <time>2021-05-19T05:44:08Z</time>
      </trkpt>
      <trkpt lat="41.9212410" lon="-8.8810020">
        <ele>39.7</ele>
        <time>2021-05-19T05:44:09Z</time>
      </trkpt>
      <trkpt lat="41.9212410" lon="-8.8810100">
        <ele>39.6</ele>
        <time>2021-05-19T05:44:10Z</time>
      </trkpt>
      <trkpt lat="41.9212440" lon="-8.8810160">
        <ele>39.5</ele>
        <time>2021-05-19T05:44:11Z</time>
      </trkpt>
      <trkpt lat="41.9212420" lon="-8.8810370">
        <ele>39.3</ele>
        <time>2021-05-19T05:44:12Z</time>
      </trkpt>
      <trkpt lat="41.9212470" lon="-8.8810480">
        <ele>39.2</ele>
        <time>2021-05-19T05:44:13Z</time>
      </trkpt>
      <trkpt lat="41.9212460" lon="-8.8810710">
        <ele>39.0</ele>
        <time>2021-05-19T05:44:14Z</time>
      </trkpt>
      <trkpt lat="41.9212490" lon="-8.8810910">
        <ele>38.8</ele>
        <time>2021-05-19T05:44:15Z</time>
      </trkpt>
      <trkpt lat="41.9212570" lon="-8.8811000">
        <ele>38.6</ele>
        <time>2021-05-19T05:44:16Z</time>
      </trkpt>
      <trkpt lat="41.9212550" lon="-8.8811200">
        <ele>38.4</ele>
        <time>2021-05-19T05:44:17Z</time>
      </trkpt>
      <trkpt lat="41.9212600" lon="-8.8811360">
        <ele>38.3</ele>
        <time>2021-05-19T05:44:18Z</time>
      </trkpt>
      <trkpt lat="41.9212620" lon="-8.8811440">
        <ele>38.2</ele>
        <time>2021-05-19T05:44:19Z</time>
      </trkpt>
      <trkpt lat="41.9212660" lon="-8.8811620">
        <ele>38.0</ele>
        <time>2021-05-19T05:44:20Z</time>
      </trkpt>
      <trkpt lat="41.9212770" lon="-8.8811550">
        <ele>37.9</ele>
        <time>2021-05-19T05:44:21Z</time>
      </trkpt>
      <trkpt lat="41.9212830" lon="-8.8811680">
        <ele>37.7</ele>
        <time>2021-05-19T05:44:22Z</time>
      </trkpt>
      <trkpt lat="41.9212910" lon="-8.8811970">
        <ele>37.4</ele>
        <time>2021-05-19T05:44:23Z</time>
      </trkpt>
      <trkpt lat="41.9212950" lon="-8.8812040">
        <ele>37.3</ele>
        <time>2021-05-19T05:44:24Z</time>
      </trkpt>
      <trkpt lat="41.9213000" lon="-8.8812120">
        <ele>37.2</ele>
        <time>2021-05-19T05:44:25Z</time>
      </trkpt>
      <trkpt lat="41.9212980" lon="-8.8812360">
        <ele>37.0</ele>
        <time>2021-05-19T05:44:26Z</time>
      </trkpt>
      <trkpt lat="41.9213050" lon="-8.8812490">
        <ele>36.9</ele>
        <time>2021-05-19T05:44:27Z</time>
      </trkpt>
      <trkpt lat="41.9213070" lon="-8.8812590">
        <ele>36.8</ele>
        <time>2021-05-19T05:44:28Z</time>
      </trkpt>
      <trkpt lat="41.9213200" lon="-8.8812680">
        <ele>36.6</ele>
        <time>2021-05-19T05:44:29Z</time>
      </trkpt>
      <trkpt lat="41.9213290" lon="-8.8812770">
        <ele>36.5</ele>
        <time>2021-05-19T05:44:30Z</time>
      </trkpt>
      <trkpt lat="41.9213400" lon="-8.8813000">
        <ele>36.3</ele>
        <time>2021-05-19T05:44:31Z</time>
      </trkpt>
      <trkpt lat="41.9213450" lon="-8.8813090">
        <ele>36.2</ele>
        <time>2021-05-19T05:44:32Z</time>
      </trkpt>
      <trkpt lat="41.9213500" lon="-8.8813170">
        <ele>36.1</ele>
        <time>2021-05-19T05:44:33Z</time>
      </trkpt>
      <trkpt lat="41.9213590" lon="-8.8813350">
        <ele>35.9</ele>
        <time>2021-05-19T05:44:34Z</time>
      </trkpt>
      <trkpt lat="41.9213640" lon="-8.8813430">
        <ele>35.8</ele>
        <time>2021-05-19T05:44:35Z</time>
      </trkpt>
      <trkpt lat="41.9213710" lon="-8.8813510">
        <ele>35.7</ele>
        <time>2021-05-19T05:44:36Z</time>
      </trkpt>
      <trkpt lat="41.9213820" lon="-8.8813550">
        <ele>35.6</ele>
        <time>2021-05-19T05:44:37Z</time>
      </trkpt>
      <trkpt lat="41.9213980" lon="-8.8813700">
        <ele>35.4</ele>
        <time>2021-05-19T05:44:38Z</time>
      </trkpt>
      <trkpt lat="41.9214180" lon="-8.8813840">
        <ele>35.0</ele>
        <time>2021-05-19T05:44:39Z</time>
      </trkpt>
      <trkpt lat="41.9214290" lon="-8.8813960">
        <ele>34.9</ele>
        <time>2021-05-19T05:44:40Z</time>
      </trkpt>
      <trkpt lat="41.9214390" lon="-8.8814040">
        <ele>34.9</ele>
        <time>2021-05-19T05:44:41Z</time>
      </trkpt>
      <trkpt lat="41.9214490" lon="-8.8814160">
        <ele>34.8</ele>
        <time>2021-05-19T05:44:42Z</time>
      </trkpt>
      <trkpt lat="41.9214560" lon="-8.8814210">
        <ele>34.7</ele>
        <time>2021-05-19T05:44:43Z</time>
      </trkpt>
      <trkpt lat="41.9214690" lon="-8.8814250">
        <ele>34.7</ele>
        <time>2021-05-19T05:44:44Z</time>
      </trkpt>
      <trkpt lat="41.9214760" lon="-8.8814330">
        <ele>34.6</ele>
        <time>2021-05-19T05:44:45Z</time>
      </trkpt>
      <trkpt lat="41.9214860" lon="-8.8814310">
        <ele>34.6</ele>
        <time>2021-05-19T05:44:46Z</time>
      </trkpt>
      <trkpt lat="41.9214980" lon="-8.8814290">
        <ele>34.5</ele>
        <time>2021-05-19T05:44:47Z</time>
      </trkpt>
      <trkpt lat="41.9215040" lon="-8.8814290">
        <ele>34.5</ele>
        <time>2021-05-19T05:44:48Z</time>
      </trkpt>
      <trkpt lat="41.9215150" lon="-8.8814280">
        <ele>34.4</ele>
        <time>2021-05-19T05:44:49Z</time>
      </trkpt>
      <trkpt lat="41.9215310" lon="-8.8814290">
        <ele>34.4</ele>
        <time>2021-05-19T05:44:50Z</time>
      </trkpt>
      <trkpt lat="41.9215390" lon="-8.8814280">
        <ele>34.3</ele>
        <time>2021-05-19T05:44:51Z</time>
      </trkpt>
      <trkpt lat="41.9215480" lon="-8.8814270">
        <ele>34.3</ele>
        <time>2021-05-19T05:44:52Z</time>
      </trkpt>
      <trkpt lat="41.9215710" lon="-8.8814290">
        <ele>34.2</ele>
        <time>2021-05-19T05:44:53Z</time>
      </trkpt>
      <trkpt lat="41.9215800" lon="-8.8814300">
        <ele>34.2</ele>
        <time>2021-05-19T05:44:54Z</time>
      </trkpt>
      <trkpt lat="41.9215890" lon="-8.8814300">
        <ele>34.1</ele>
        <time>2021-05-19T05:44:55Z</time>
      </trkpt>
      <trkpt lat="41.9215950" lon="-8.8814310">
        <ele>34.1</ele>
        <time>2021-05-19T05:44:56Z</time>
      </trkpt>
      <trkpt lat="41.9216120" lon="-8.8814310">
        <ele>34.1</ele>
        <time>2021-05-19T05:44:57Z</time>
      </trkpt>
      <trkpt lat="41.9216220" lon="-8.8814360">
        <ele>34.0</ele>
        <time>2021-05-19T05:44:58Z</time>
      </trkpt>
      <trkpt lat="41.9216360" lon="-8.8814280">
        <ele>34.0</ele>
        <time>2021-05-19T05:44:59Z</time>
      </trkpt>
      <trkpt lat="41.9216350" lon="-8.8814180">
        <ele>34.0</ele>
        <time>2021-05-19T05:45:00Z</time>
      </trkpt>
      <trkpt lat="41.9216310" lon="-8.8814160">
        <ele>34.0</ele>
        <time>2021-05-19T05:45:01Z</time>
      </trkpt>
      <trkpt lat="41.9216410" lon="-8.8814230">
        <ele>33.9</ele>
        <time>2021-05-19T05:45:02Z</time>
      </trkpt>
      <trkpt lat="41.9216460" lon="-8.8814260">
        <ele>33.9</ele>
        <time>2021-05-19T05:45:03Z</time>
      </trkpt>
      <trkpt lat="41.9216560" lon="-8.8814330">
        <ele>33.9</ele>
        <time>2021-05-19T05:45:04Z</time>
      </trkpt>
      <trkpt lat="41.9216670" lon="-8.8814330">
        <ele>33.9</ele>
        <time>2021-05-19T05:45:05Z</time>
      </trkpt>
      <trkpt lat="41.9216860" lon="-8.8814330">
        <ele>33.8</ele>
        <time>2021-05-19T05:45:06Z</time>
      </trkpt>
      <trkpt lat="41.9217000" lon="-8.8814370">
        <ele>33.8</ele>
        <time>2021-05-19T05:45:07Z</time>
      </trkpt>
      <trkpt lat="41.9217050" lon="-8.8814390">
        <ele>33.8</ele>
        <time>2021-05-19T05:45:08Z</time>
      </trkpt>
      <trkpt lat="41.9217140" lon="-8.8814400">
        <ele>33.8</ele>
        <time>2021-05-19T05:45:09Z</time>
      </trkpt>
      <trkpt lat="41.9217270" lon="-8.8814420">
        <ele>33.7</ele>
        <time>2021-05-19T05:45:10Z</time>
      </trkpt>
      <trkpt lat="41.9217390" lon="-8.8814430">
        <ele>33.7</ele>
        <time>2021-05-19T05:45:11Z</time>
      </trkpt>
      <trkpt lat="41.9217480" lon="-8.8814430">
        <ele>33.7</ele>
        <time>2021-05-19T05:45:12Z</time>
      </trkpt>
      <trkpt lat="41.9217600" lon="-8.8814480">
        <ele>33.7</ele>
        <time>2021-05-19T05:45:13Z</time>
      </trkpt>
      <trkpt lat="41.9217720" lon="-8.8814540">
        <ele>33.6</ele>
        <time>2021-05-19T05:45:14Z</time>
      </trkpt>
      <trkpt lat="41.9217790" lon="-8.8814590">
        <ele>33.6</ele>
        <time>2021-05-19T05:45:15Z</time>
      </trkpt>
      <trkpt lat="41.9217860" lon="-8.8814590">
        <ele>33.6</ele>
        <time>2021-05-19T05:45:16Z</time>
      </trkpt>
      <trkpt lat="41.9217970" lon="-8.8814640">
        <ele>33.6</ele>
        <time>2021-05-19T05:45:17Z</time>
      </trkpt>
      <trkpt lat="41.9218060" lon="-8.8814660">
        <ele>33.6</ele>
        <time>2021-05-19T05:45:18Z</time>
      </trkpt>
      <trkpt lat="41.9218150" lon="-8.8814640">
        <ele>33.5</ele>
        <time>2021-05-19T05:45:19Z</time>
      </trkpt>
      <trkpt lat="41.9218270" lon="-8.8814690">
        <ele>33.5</ele>
        <time>2021-05-19T05:45:20Z</time>
      </trkpt>
      <trkpt lat="41.9218340" lon="-8.8814690">
        <ele>33.5</ele>
        <time>2021-05-19T05:45:21Z</time>
      </trkpt>
      <trkpt lat="41.9218510" lon="-8.8814770">
        <ele>33.5</ele>
        <time>2021-05-19T05:45:22Z</time>
      </trkpt>
      <trkpt lat="41.9218640" lon="-8.8814750">
        <ele>33.4</ele>
        <time>2021-05-19T05:45:23Z</time>
      </trkpt>
      <trkpt lat="41.9218820" lon="-8.8814750">
        <ele>33.4</ele>
        <time>2021-05-19T05:45:24Z</time>
      </trkpt>
      <trkpt lat="41.9218910" lon="-8.8814770">
        <ele>33.4</ele>
        <time>2021-05-19T05:45:25Z</time>
      </trkpt>
      <trkpt lat="41.9219010" lon="-8.8814780">
        <ele>33.3</ele>
        <time>2021-05-19T05:45:26Z</time>
      </trkpt>
      <trkpt lat="41.9219190" lon="-8.8814820">
        <ele>33.3</ele>
        <time>2021-05-19T05:45:27Z</time>
      </trkpt>
      <trkpt lat="41.9219290" lon="-8.8814820">
        <ele>33.3</ele>
        <time>2021-05-19T05:45:28Z</time>
      </trkpt>
      <trkpt lat="41.9219400" lon="-8.8814830">
        <ele>33.2</ele>
        <time>2021-05-19T05:45:29Z</time>
      </trkpt>
      <trkpt lat="41.9219570" lon="-8.8814830">
        <ele>33.2</ele>
        <time>2021-05-19T05:45:30Z</time>
      </trkpt>
      <trkpt lat="41.9219690" lon="-8.8814810">
        <ele>33.2</ele>
        <time>2021-05-19T05:45:31Z</time>
      </trkpt>
      <trkpt lat="41.9219880" lon="-8.8814860">
        <ele>33.1</ele>
        <time>2021-05-19T05:45:32Z</time>
      </trkpt>
      <trkpt lat="41.9219990" lon="-8.8814910">
        <ele>33.1</ele>
        <time>2021-05-19T05:45:33Z</time>
      </trkpt>
      <trkpt lat="41.9220100" lon="-8.8814950">
        <ele>33.0</ele>
        <time>2021-05-19T05:45:34Z</time>
      </trkpt>
      <trkpt lat="41.9220230" lon="-8.8814980">
        <ele>33.0</ele>
        <time>2021-05-19T05:45:35Z</time>
      </trkpt>
      <trkpt lat="41.9220360" lon="-8.8815030">
        <ele>33.0</ele>
        <time>2021-05-19T05:45:36Z</time>
      </trkpt>
      <trkpt lat="41.9220510" lon="-8.8815150">
        <ele>32.9</ele>
        <time>2021-05-19T05:45:37Z</time>
      </trkpt>
      <trkpt lat="41.9220620" lon="-8.8815220">
        <ele>32.9</ele>
        <time>2021-05-19T05:45:38Z</time>
      </trkpt>
      <trkpt lat="41.9220660" lon="-8.8815290">
        <ele>32.9</ele>
        <time>2021-05-19T05:45:39Z</time>
      </trkpt>
      <trkpt lat="41.9220860" lon="-8.8815440">
        <ele>32.8</ele>
        <time>2021-05-19T05:45:40Z</time>
      </trkpt>
      <trkpt lat="41.9220940" lon="-8.8815530">
        <ele>32.7</ele>
        <time>2021-05-19T05:45:41Z</time>
      </trkpt>
      <trkpt lat="41.9221050" lon="-8.8815690">
        <ele>32.7</ele>
        <time>2021-05-19T05:45:42Z</time>
      </trkpt>
      <trkpt lat="41.9221060" lon="-8.8815740">
        <ele>32.6</ele>
        <time>2021-05-19T05:45:43Z</time>
      </trkpt>
      <trkpt lat="41.9221090" lon="-8.8815760">
        <ele>32.6</ele>
        <time>2021-05-19T05:45:44Z</time>
      </trkpt>
      <trkpt lat="41.9221270" lon="-8.8815860">
        <ele>32.6</ele>
        <time>2021-05-19T05:45:45Z</time>
      </trkpt>
      <trkpt lat="41.9221310" lon="-8.8815910">
        <ele>32.5</ele>
        <time>2021-05-19T05:45:46Z</time>
      </trkpt>
      <trkpt lat="41.9221400" lon="-8.8816000">
        <ele>32.5</ele>
        <time>2021-05-19T05:45:47Z</time>
      </trkpt>
      <trkpt lat="41.9221570" lon="-8.8816110">
        <ele>32.4</ele>
        <time>2021-05-19T05:45:48Z</time>
      </trkpt>
      <trkpt lat="41.9221660" lon="-8.8816180">
        <ele>32.4</ele>
        <time>2021-05-19T05:45:49Z</time>
      </trkpt>
      <trkpt lat="41.9221850" lon="-8.8816300">
        <ele>32.3</ele>
        <time>2021-05-19T05:45:50Z</time>
      </trkpt>
      <trkpt lat="41.9221930" lon="-8.8816430">
        <ele>32.3</ele>
        <time>2021-05-19T05:45:51Z</time>
      </trkpt>
      <trkpt lat="41.9222030" lon="-8.8816480">
        <ele>32.2</ele>
        <time>2021-05-19T05:45:52Z</time>
      </trkpt>
      <trkpt lat="41.9222110" lon="-8.8816510">
        <ele>32.2</ele>
        <time>2021-05-19T05:45:53Z</time>
      </trkpt>
      <trkpt lat="41.9222240" lon="-8.8816580">
        <ele>32.2</ele>
        <time>2021-05-19T05:45:54Z</time>
      </trkpt>
      <trkpt lat="41.9222360" lon="-8.8816670">
        <ele>32.1</ele>
        <time>2021-05-19T05:45:55Z</time>
      </trkpt>
      <trkpt lat="41.9222500" lon="-8.8816790">
        <ele>32.1</ele>
        <time>2021-05-19T05:45:56Z</time>
      </trkpt>
      <trkpt lat="41.9222590" lon="-8.8816770">
        <ele>32.1</ele>
        <time>2021-05-19T05:45:57Z</time>
      </trkpt>
      <trkpt lat="41.9222640" lon="-8.8816770">
        <ele>32.0</ele>
        <time>2021-05-19T05:45:58Z</time>
      </trkpt>
      <trkpt lat="41.9222820" lon="-8.8816830">
        <ele>32.0</ele>
        <time>2021-05-19T05:45:59Z</time>
      </trkpt>
      <trkpt lat="41.9222930" lon="-8.8816780">
        <ele>32.0</ele>
        <time>2021-05-19T05:46:00Z</time>
      </trkpt>
      <trkpt lat="41.9223010" lon="-8.8816770">
        <ele>32.0</ele>
        <time>2021-05-19T05:46:01Z</time>
      </trkpt>
      <trkpt lat="41.9223140" lon="-8.8816820">
        <ele>32.0</ele>
        <time>2021-05-19T05:46:02Z</time>
      </trkpt>
      <trkpt lat="41.9223280" lon="-8.8816850">
        <ele>31.9</ele>
        <time>2021-05-19T05:46:03Z</time>
      </trkpt>
      <trkpt lat="41.9223470" lon="-8.8816820">
        <ele>31.9</ele>
        <time>2021-05-19T05:46:04Z</time>
      </trkpt>
      <trkpt lat="41.9223620" lon="-8.8816870">
        <ele>31.9</ele>
        <time>2021-05-19T05:46:05Z</time>
      </trkpt>
      <trkpt lat="41.9223690" lon="-8.8816830">
        <ele>31.9</ele>
        <time>2021-05-19T05:46:06Z</time>
      </trkpt>
      <trkpt lat="41.9223770" lon="-8.8816910">
        <ele>31.9</ele>
        <time>2021-05-19T05:46:07Z</time>
      </trkpt>
      <trkpt lat="41.9223770" lon="-8.8817010">
        <ele>31.9</ele>
        <time>2021-05-19T05:46:08Z</time>
      </trkpt>
      <trkpt lat="41.9223790" lon="-8.8816790">
        <ele>31.9</ele>
        <time>2021-05-19T05:46:09Z</time>
      </trkpt>
      <trkpt lat="41.9223900" lon="-8.8816830">
        <ele>31.9</ele>
        <time>2021-05-19T05:46:10Z</time>
      </trkpt>
      <trkpt lat="41.9224020" lon="-8.8816880">
        <ele>31.9</ele>
        <time>2021-05-19T05:46:11Z</time>
      </trkpt>
      <trkpt lat="41.9224120" lon="-8.8816910">
        <ele>31.9</ele>
        <time>2021-05-19T05:46:12Z</time>
      </trkpt>
      <trkpt lat="41.9224200" lon="-8.8816950">
        <ele>31.9</ele>
        <time>2021-05-19T05:46:13Z</time>
      </trkpt>
      <trkpt lat="41.9224450" lon="-8.8816960">
        <ele>31.9</ele>
        <time>2021-05-19T05:46:14Z</time>
      </trkpt>
      <trkpt lat="41.9224510" lon="-8.8817000">
        <ele>31.9</ele>
        <time>2021-05-19T05:46:15Z</time>
      </trkpt>
      <trkpt lat="41.9224580" lon="-8.8817030">
        <ele>31.9</ele>
        <time>2021-05-19T05:46:16Z</time>
      </trkpt>
      <trkpt lat="41.9224800" lon="-8.8817090">
        <ele>31.9</ele>
        <time>2021-05-19T05:46:17Z</time>
      </trkpt>
      <trkpt lat="41.9224880" lon="-8.8817120">
        <ele>31.9</ele>
        <time>2021-05-19T05:46:18Z</time>
      </trkpt>
      <trkpt lat="41.9224970" lon="-8.8817160">
        <ele>31.9</ele>
        <time>2021-05-19T05:46:19Z</time>
      </trkpt>
      <trkpt lat="41.9225230" lon="-8.8817200">
        <ele>31.9</ele>
        <time>2021-05-19T05:46:20Z</time>
      </trkpt>
      <trkpt lat="41.9225320" lon="-8.8817220">
        <ele>31.9</ele>
        <time>2021-05-19T05:46:21Z</time>
      </trkpt>
      <trkpt lat="41.9225420" lon="-8.8817230">
        <ele>31.9</ele>
        <time>2021-05-19T05:46:22Z</time>
      </trkpt>
      <trkpt lat="41.9225480" lon="-8.8817330">
        <ele>31.9</ele>
        <time>2021-05-19T05:46:23Z</time>
      </trkpt>
      <trkpt lat="41.9225570" lon="-8.8817390">
        <ele>31.9</ele>
        <time>2021-05-19T05:46:24Z</time>
      </trkpt>
      <trkpt lat="41.9225650" lon="-8.8817450">
        <ele>31.9</ele>
        <time>2021-05-19T05:46:25Z</time>
      </trkpt>
      <trkpt lat="41.9225740" lon="-8.8817510">
        <ele>31.9</ele>
        <time>2021-05-19T05:46:26Z</time>
      </trkpt>
      <trkpt lat="41.9225940" lon="-8.8817560">
        <ele>31.8</ele>
        <time>2021-05-19T05:46:27Z</time>
      </trkpt>
      <trkpt lat="41.9226040" lon="-8.8817620">
        <ele>31.8</ele>
        <time>2021-05-19T05:46:28Z</time>
      </trkpt>
      <trkpt lat="41.9226150" lon="-8.8817670">
        <ele>31.8</ele>
        <time>2021-05-19T05:46:29Z</time>
      </trkpt>
      <trkpt lat="41.9226310" lon="-8.8817680">
        <ele>31.8</ele>
        <time>2021-05-19T05:46:30Z</time>
      </trkpt>
      <trkpt lat="41.9226490" lon="-8.8817640">
        <ele>31.8</ele>
        <time>2021-05-19T05:46:31Z</time>
      </trkpt>
      <trkpt lat="41.9226640" lon="-8.8817680">
        <ele>31.8</ele>
        <time>2021-05-19T05:46:32Z</time>
      </trkpt>
      <trkpt lat="41.9226790" lon="-8.8817690">
        <ele>31.8</ele>
        <time>2021-05-19T05:46:33Z</time>
      </trkpt>
      <trkpt lat="41.9226960" lon="-8.8817650">
        <ele>31.7</ele>
        <time>2021-05-19T05:46:34Z</time>
      </trkpt>
      <trkpt lat="41.9227130" lon="-8.8817710">
        <ele>31.7</ele>
        <time>2021-05-19T05:46:35Z</time>
      </trkpt>
      <trkpt lat="41.9227290" lon="-8.8817700">
        <ele>31.7</ele>
        <time>2021-05-19T05:46:36Z</time>
      </trkpt>
      <trkpt lat="41.9227440" lon="-8.8817750">
        <ele>31.6</ele>
        <time>2021-05-19T05:46:37Z</time>
      </trkpt>
      <trkpt lat="41.9227590" lon="-8.8817810">
        <ele>31.6</ele>
        <time>2021-05-19T05:46:38Z</time>
      </trkpt>
      <trkpt lat="41.9227680" lon="-8.8817910">
        <ele>31.5</ele>
        <time>2021-05-19T05:46:39Z</time>
      </trkpt>
      <trkpt lat="41.9227740" lon="-8.8817960">
        <ele>31.5</ele>
        <time>2021-05-19T05:46:40Z</time>
      </trkpt>
      <trkpt lat="41.9227850" lon="-8.8818010">
        <ele>31.4</ele>
        <time>2021-05-19T05:46:41Z</time>
      </trkpt>
      <trkpt lat="41.9227890" lon="-8.8818050">
        <ele>31.4</ele>
        <time>2021-05-19T05:46:42Z</time>
      </trkpt>
      <trkpt lat="41.9227980" lon="-8.8818150">
        <ele>31.4</ele>
        <time>2021-05-19T05:46:43Z</time>
      </trkpt>
      <trkpt lat="41.9228000" lon="-8.8818240">
        <ele>31.3</ele>
        <time>2021-05-19T05:46:44Z</time>
      </trkpt>
      <trkpt lat="41.9228040" lon="-8.8818350">
        <ele>31.3</ele>
        <time>2021-05-19T05:46:45Z</time>
      </trkpt>
      <trkpt lat="41.9228140" lon="-8.8818530">
        <ele>31.2</ele>
        <time>2021-05-19T05:46:46Z</time>
      </trkpt>
      <trkpt lat="41.9228140" lon="-8.8818630">
        <ele>31.1</ele>
        <time>2021-05-19T05:46:47Z</time>
      </trkpt>
      <trkpt lat="41.9228120" lon="-8.8818750">
        <ele>31.1</ele>
        <time>2021-05-19T05:46:48Z</time>
      </trkpt>
      <trkpt lat="41.9228170" lon="-8.8818850">
        <ele>31.0</ele>
        <time>2021-05-19T05:46:49Z</time>
      </trkpt>
      <trkpt lat="41.9228260" lon="-8.8818960">
        <ele>30.9</ele>
        <time>2021-05-19T05:46:50Z</time>
      </trkpt>
      <trkpt lat="41.9228250" lon="-8.8819080">
        <ele>30.9</ele>
        <time>2021-05-19T05:46:51Z</time>
      </trkpt>
      <trkpt lat="41.9228330" lon="-8.8819140">
        <ele>30.8</ele>
        <time>2021-05-19T05:46:52Z</time>
      </trkpt>
      <trkpt lat="41.9228380" lon="-8.8819280">
        <ele>30.8</ele>
        <time>2021-05-19T05:46:53Z</time>
      </trkpt>
      <trkpt lat="41.9228480" lon="-8.8819550">
        <ele>30.6</ele>
        <time>2021-05-19T05:46:54Z</time>
      </trkpt>
      <trkpt lat="41.9228560" lon="-8.8819630">
        <ele>30.6</ele>
        <time>2021-05-19T05:46:55Z</time>
      </trkpt>
      <trkpt lat="41.9228630" lon="-8.8819710">
        <ele>30.5</ele>
        <time>2021-05-19T05:46:56Z</time>
      </trkpt>
      <trkpt lat="41.9228750" lon="-8.8819830">
        <ele>30.4</ele>
        <time>2021-05-19T05:46:57Z</time>
      </trkpt>
      <trkpt lat="41.9228890" lon="-8.8819870">
        <ele>30.3</ele>
        <time>2021-05-19T05:46:58Z</time>
      </trkpt>
      <trkpt lat="41.9228970" lon="-8.8819880">
        <ele>30.3</ele>
        <time>2021-05-19T05:46:59Z</time>
      </trkpt>
      <trkpt lat="41.9229120" lon="-8.8819950">
        <ele>30.2</ele>
        <time>2021-05-19T05:47:00Z</time>
      </trkpt>
      <trkpt lat="41.9229210" lon="-8.8819990">
        <ele>30.1</ele>
        <time>2021-05-19T05:47:01Z</time>
      </trkpt>
      <trkpt lat="41.9229360" lon="-8.8820010">
        <ele>30.0</ele>
        <time>2021-05-19T05:47:02Z</time>
      </trkpt>
      <trkpt lat="41.9229500" lon="-8.8820070">
        <ele>30.0</ele>
        <time>2021-05-19T05:47:03Z</time>
      </trkpt>
      <trkpt lat="41.9229650" lon="-8.8820170">
        <ele>29.9</ele>
        <time>2021-05-19T05:47:04Z</time>
      </trkpt>
      <trkpt lat="41.9229750" lon="-8.8820210">
        <ele>29.8</ele>
        <time>2021-05-19T05:47:05Z</time>
      </trkpt>
      <trkpt lat="41.9229900" lon="-8.8820340">
        <ele>29.7</ele>
        <time>2021-05-19T05:47:06Z</time>
      </trkpt>
      <trkpt lat="41.9229990" lon="-8.8820370">
        <ele>29.7</ele>
        <time>2021-05-19T05:47:07Z</time>
      </trkpt>
      <trkpt lat="41.9230090" lon="-8.8820400">
        <ele>29.7</ele>
        <time>2021-05-19T05:47:08Z</time>
      </trkpt>
      <trkpt lat="41.9230290" lon="-8.8820460">
        <ele>29.6</ele>
        <time>2021-05-19T05:47:09Z</time>
      </trkpt>
      <trkpt lat="41.9230370" lon="-8.8820510">
        <ele>29.5</ele>
        <time>2021-05-19T05:47:10Z</time>
      </trkpt>
      <trkpt lat="41.9230440" lon="-8.8820550">
        <ele>29.5</ele>
        <time>2021-05-19T05:47:11Z</time>
      </trkpt>
      <trkpt lat="41.9230560" lon="-8.8820610">
        <ele>29.4</ele>
        <time>2021-05-19T05:47:12Z</time>
      </trkpt>
      <trkpt lat="41.9230700" lon="-8.8820720">
        <ele>29.4</ele>
        <time>2021-05-19T05:47:13Z</time>
      </trkpt>
      <trkpt lat="41.9230860" lon="-8.8820780">
        <ele>29.3</ele>
        <time>2021-05-19T05:47:14Z</time>
      </trkpt>
      <trkpt lat="41.9230970" lon="-8.8820820">
        <ele>29.2</ele>
        <time>2021-05-19T05:47:15Z</time>
      </trkpt>
      <trkpt lat="41.9231070" lon="-8.8820950">
        <ele>29.2</ele>
        <time>2021-05-19T05:47:16Z</time>
      </trkpt>
      <trkpt lat="41.9231220" lon="-8.8821100">
        <ele>29.1</ele>
        <time>2021-05-19T05:47:17Z</time>
      </trkpt>
      <trkpt lat="41.9231320" lon="-8.8821190">
        <ele>29.1</ele>
        <time>2021-05-19T05:47:18Z</time>
      </trkpt>
      <trkpt lat="41.9231350" lon="-8.8821230">
        <ele>29.0</ele>
        <time>2021-05-19T05:47:19Z</time>
      </trkpt>
      <trkpt lat="41.9231460" lon="-8.8821410">
        <ele>29.0</ele>
        <time>2021-05-19T05:47:20Z</time>
      </trkpt>
      <trkpt lat="41.9231630" lon="-8.8821480">
        <ele>28.9</ele>
        <time>2021-05-19T05:47:21Z</time>
      </trkpt>
      <trkpt lat="41.9231660" lon="-8.8821490">
        <ele>28.9</ele>
        <time>2021-05-19T05:47:22Z</time>
      </trkpt>
      <trkpt lat="41.9231720" lon="-8.8821660">
        <ele>28.8</ele>
        <time>2021-05-19T05:47:23Z</time>
      </trkpt>
      <trkpt lat="41.9231860" lon="-8.8821750">
        <ele>28.7</ele>
        <time>2021-05-19T05:47:24Z</time>
      </trkpt>
      <trkpt lat="41.9231950" lon="-8.8821870">
        <ele>28.6</ele>
        <time>2021-05-19T05:47:25Z</time>
      </trkpt>
      <trkpt lat="41.9232040" lon="-8.8821980">
        <ele>28.6</ele>
        <time>2021-05-19T05:47:26Z</time>
      </trkpt>
      <trkpt lat="41.9232200" lon="-8.8822140">
        <ele>28.4</ele>
        <time>2021-05-19T05:47:27Z</time>
      </trkpt>
      <trkpt lat="41.9232260" lon="-8.8822180">
        <ele>28.4</ele>
        <time>2021-05-19T05:47:28Z</time>
      </trkpt>
      <trkpt lat="41.9232320" lon="-8.8822220">
        <ele>28.3</ele>
        <time>2021-05-19T05:47:29Z</time>
      </trkpt>
      <trkpt lat="41.9232380" lon="-8.8822260">
        <ele>28.3</ele>
        <time>2021-05-19T05:47:30Z</time>
      </trkpt>
      <trkpt lat="41.9232590" lon="-8.8822410">
        <ele>28.1</ele>
        <time>2021-05-19T05:47:31Z</time>
      </trkpt>
      <trkpt lat="41.9232670" lon="-8.8822480">
        <ele>28.1</ele>
        <time>2021-05-19T05:47:32Z</time>
      </trkpt>
      <trkpt lat="41.9232760" lon="-8.8822550">
        <ele>28.0</ele>
        <time>2021-05-19T05:47:33Z</time>
      </trkpt>
      <trkpt lat="41.9232880" lon="-8.8822680">
        <ele>27.9</ele>
        <time>2021-05-19T05:47:34Z</time>
      </trkpt>
      <trkpt lat="41.9232950" lon="-8.8822730">
        <ele>27.8</ele>
        <time>2021-05-19T05:47:35Z</time>
      </trkpt>
      <trkpt lat="41.9233010" lon="-8.8822770">
        <ele>27.7</ele>
        <time>2021-05-19T05:47:36Z</time>
      </trkpt>
      <trkpt lat="41.9233080" lon="-8.8822820">
        <ele>27.6</ele>
        <time>2021-05-19T05:47:37Z</time>
      </trkpt>
      <trkpt lat="41.9233180" lon="-8.8822890">
        <ele>27.5</ele>
        <time>2021-05-19T05:47:38Z</time>
      </trkpt>
      <trkpt lat="41.9233290" lon="-8.8822870">
        <ele>27.4</ele>
        <time>2021-05-19T05:47:39Z</time>
      </trkpt>
      <trkpt lat="41.9233370" lon="-8.8822990">
        <ele>27.3</ele>
        <time>2021-05-19T05:47:40Z</time>
      </trkpt>
      <trkpt lat="41.9233540" lon="-8.8823040">
        <ele>27.1</ele>
        <time>2021-05-19T05:47:41Z</time>
      </trkpt>
      <trkpt lat="41.9233640" lon="-8.8823080">
        <ele>27.0</ele>
        <time>2021-05-19T05:47:42Z</time>
      </trkpt>
      <trkpt lat="41.9233750" lon="-8.8823130">
        <ele>26.9</ele>
        <time>2021-05-19T05:47:43Z</time>
      </trkpt>
      <trkpt lat="41.9233920" lon="-8.8823330">
        <ele>26.7</ele>
        <time>2021-05-19T05:47:44Z</time>
      </trkpt>
      <trkpt lat="41.9234000" lon="-8.8823400">
        <ele>26.6</ele>
        <time>2021-05-19T05:47:45Z</time>
      </trkpt>
      <trkpt lat="41.9234070" lon="-8.8823470">
        <ele>26.5</ele>
        <time>2021-05-19T05:47:46Z</time>
      </trkpt>
      <trkpt lat="41.9234280" lon="-8.8823570">
        <ele>26.2</ele>
        <time>2021-05-19T05:47:47Z</time>
      </trkpt>
      <trkpt lat="41.9234330" lon="-8.8823650">
        <ele>26.1</ele>
        <time>2021-05-19T05:47:48Z</time>
      </trkpt>
      <trkpt lat="41.9234390" lon="-8.8823720">
        <ele>26.0</ele>
        <time>2021-05-19T05:47:49Z</time>
      </trkpt>
      <trkpt lat="41.9234520" lon="-8.8823880">
        <ele>25.8</ele>
        <time>2021-05-19T05:47:50Z</time>
      </trkpt>
      <trkpt lat="41.9234600" lon="-8.8823970">
        <ele>25.7</ele>
        <time>2021-05-19T05:47:51Z</time>
      </trkpt>
      <trkpt lat="41.9234670" lon="-8.8824070">
        <ele>25.5</ele>
        <time>2021-05-19T05:47:52Z</time>
      </trkpt>
      <trkpt lat="41.9234870" lon="-8.8824210">
        <ele>25.3</ele>
        <time>2021-05-19T05:47:53Z</time>
      </trkpt>
      <trkpt lat="41.9234940" lon="-8.8824270">
        <ele>25.3</ele>
        <time>2021-05-19T05:47:54Z</time>
      </trkpt>
      <trkpt lat="41.9235020" lon="-8.8824320">
        <ele>25.3</ele>
        <time>2021-05-19T05:47:55Z</time>
      </trkpt>
      <trkpt lat="41.9235190" lon="-8.8824540">
        <ele>25.1</ele>
        <time>2021-05-19T05:47:56Z</time>
      </trkpt>
      <trkpt lat="41.9235260" lon="-8.8824600">
        <ele>25.1</ele>
        <time>2021-05-19T05:47:57Z</time>
      </trkpt>
      <trkpt lat="41.9235340" lon="-8.8824660">
        <ele>25.0</ele>
        <time>2021-05-19T05:47:58Z</time>
      </trkpt>
      <trkpt lat="41.9235540" lon="-8.8824820">
        <ele>24.9</ele>
        <time>2021-05-19T05:47:59Z</time>
      </trkpt>
      <trkpt lat="41.9235630" lon="-8.8824860">
        <ele>24.9</ele>
        <time>2021-05-19T05:48:00Z</time>
      </trkpt>
      <trkpt lat="41.9235710" lon="-8.8824910">
        <ele>24.8</ele>
        <time>2021-05-19T05:48:01Z</time>
      </trkpt>
      <trkpt lat="41.9235870" lon="-8.8824980">
        <ele>24.7</ele>
        <time>2021-05-19T05:48:02Z</time>
      </trkpt>
      <trkpt lat="41.9235940" lon="-8.8824930">
        <ele>24.7</ele>
        <time>2021-05-19T05:48:03Z</time>
      </trkpt>
      <trkpt lat="41.9236070" lon="-8.8824960">
        <ele>24.6</ele>
        <time>2021-05-19T05:48:04Z</time>
      </trkpt>
      <trkpt lat="41.9236160" lon="-8.8825010">
        <ele>24.6</ele>
        <time>2021-05-19T05:48:05Z</time>
      </trkpt>
      <trkpt lat="41.9236320" lon="-8.8825110">
        <ele>24.5</ele>
        <time>2021-05-19T05:48:06Z</time>
      </trkpt>
      <trkpt lat="41.9236470" lon="-8.8825170">
        <ele>24.4</ele>
        <time>2021-05-19T05:48:07Z</time>
      </trkpt>
      <trkpt lat="41.9236590" lon="-8.8825250">
        <ele>24.4</ele>
        <time>2021-05-19T05:48:08Z</time>
      </trkpt>
      <trkpt lat="41.9236740" lon="-8.8825280">
        <ele>24.3</ele>
        <time>2021-05-19T05:48:09Z</time>
      </trkpt>
      <trkpt lat="41.9236890" lon="-8.8825280">
        <ele>24.3</ele>
        <time>2021-05-19T05:48:10Z</time>
      </trkpt>
      <trkpt lat="41.9237060" lon="-8.8825270">
        <ele>24.2</ele>
        <time>2021-05-19T05:48:11Z</time>
      </trkpt>
      <trkpt lat="41.9237120" lon="-8.8825220">
        <ele>24.2</ele>
        <time>2021-05-19T05:48:12Z</time>
      </trkpt>
      <trkpt lat="41.9237250" lon="-8.8825250">
        <ele>24.2</ele>
        <time>2021-05-19T05:48:13Z</time>
      </trkpt>
      <trkpt lat="41.9237420" lon="-8.8825290">
        <ele>24.1</ele>
        <time>2021-05-19T05:48:14Z</time>
      </trkpt>
      <trkpt lat="41.9237580" lon="-8.8825350">
        <ele>24.1</ele>
        <time>2021-05-19T05:48:15Z</time>
      </trkpt>
      <trkpt lat="41.9237760" lon="-8.8825360">
        <ele>24.1</ele>
        <time>2021-05-19T05:48:16Z</time>
      </trkpt>
      <trkpt lat="41.9237890" lon="-8.8825420">
        <ele>24.0</ele>
        <time>2021-05-19T05:48:17Z</time>
      </trkpt>
      <trkpt lat="41.9238020" lon="-8.8825520">
        <ele>24.0</ele>
        <time>2021-05-19T05:48:18Z</time>
      </trkpt>
      <trkpt lat="41.9238160" lon="-8.8825520">
        <ele>24.0</ele>
        <time>2021-05-19T05:48:19Z</time>
      </trkpt>
      <trkpt lat="41.9238320" lon="-8.8825550">
        <ele>24.0</ele>
        <time>2021-05-19T05:48:20Z</time>
      </trkpt>
      <trkpt lat="41.9238480" lon="-8.8825510">
        <ele>24.0</ele>
        <time>2021-05-19T05:48:21Z</time>
      </trkpt>
      <trkpt lat="41.9238630" lon="-8.8825520">
        <ele>24.0</ele>
        <time>2021-05-19T05:48:22Z</time>
      </trkpt>
      <trkpt lat="41.9238770" lon="-8.8825580">
        <ele>24.0</ele>
        <time>2021-05-19T05:48:23Z</time>
      </trkpt>
      <trkpt lat="41.9238910" lon="-8.8825520">
        <ele>23.9</ele>
        <time>2021-05-19T05:48:24Z</time>
      </trkpt>
      <trkpt lat="41.9239070" lon="-8.8825520">
        <ele>23.9</ele>
        <time>2021-05-19T05:48:25Z</time>
      </trkpt>
      <trkpt lat="41.9239230" lon="-8.8825470">
        <ele>23.9</ele>
        <time>2021-05-19T05:48:26Z</time>
      </trkpt>
      <trkpt lat="41.9239380" lon="-8.8825450">
        <ele>23.9</ele>
        <time>2021-05-19T05:48:27Z</time>
      </trkpt>
      <trkpt lat="41.9239540" lon="-8.8825430">
        <ele>23.9</ele>
        <time>2021-05-19T05:48:28Z</time>
      </trkpt>
      <trkpt lat="41.9239690" lon="-8.8825480">
        <ele>23.9</ele>
        <time>2021-05-19T05:48:29Z</time>
      </trkpt>
      <trkpt lat="41.9239830" lon="-8.8825450">
        <ele>23.9</ele>
        <time>2021-05-19T05:48:30Z</time>
      </trkpt>
      <trkpt lat="41.9239970" lon="-8.8825520">
        <ele>24.0</ele>
        <time>2021-05-19T05:48:31Z</time>
      </trkpt>
      <trkpt lat="41.9240180" lon="-8.8825410">
        <ele>24.0</ele>
        <time>2021-05-19T05:48:32Z</time>
      </trkpt>
      <trkpt lat="41.9240260" lon="-8.8825390">
        <ele>24.0</ele>
        <time>2021-05-19T05:48:33Z</time>
      </trkpt>
      <trkpt lat="41.9240350" lon="-8.8825370">
        <ele>24.0</ele>
        <time>2021-05-19T05:48:34Z</time>
      </trkpt>
      <trkpt lat="41.9240460" lon="-8.8825340">
        <ele>24.0</ele>
        <time>2021-05-19T05:48:35Z</time>
      </trkpt>
      <trkpt lat="41.9240510" lon="-8.8825310">
        <ele>24.0</ele>
        <time>2021-05-19T05:48:36Z</time>
      </trkpt>
      <trkpt lat="41.9240670" lon="-8.8825370">
        <ele>24.0</ele>
        <time>2021-05-19T05:48:37Z</time>
      </trkpt>
      <trkpt lat="41.9240760" lon="-8.8825340">
        <ele>24.1</ele>
        <time>2021-05-19T05:48:38Z</time>
      </trkpt>
      <trkpt lat="41.9240870" lon="-8.8825330">
        <ele>24.1</ele>
        <time>2021-05-19T05:48:39Z</time>
      </trkpt>
      <trkpt lat="41.9240930" lon="-8.8825260">
        <ele>24.1</ele>
        <time>2021-05-19T05:48:40Z</time>
      </trkpt>
      <trkpt lat="41.9240930" lon="-8.8825210">
        <ele>24.1</ele>
        <time>2021-05-19T05:48:41Z</time>
      </trkpt>
      <trkpt lat="41.9240850" lon="-8.8825230">
        <ele>24.1</ele>
        <time>2021-05-19T05:48:42Z</time>
      </trkpt>
      <trkpt lat="41.9240780" lon="-8.8825230">
        <ele>24.2</ele>
        <time>2021-05-19T05:48:43Z</time>
      </trkpt>
      <trkpt lat="41.9240770" lon="-8.8825210">
        <ele>24.2</ele>
        <time>2021-05-19T05:48:44Z</time>
      </trkpt>
      <trkpt lat="41.9240740" lon="-8.8825200">
        <ele>24.2</ele>
        <time>2021-05-19T05:48:45Z</time>
      </trkpt>
      <trkpt lat="41.9240700" lon="-8.8825130">
        <ele>24.2</ele>
        <time>2021-05-19T05:48:46Z</time>
      </trkpt>
      <trkpt lat="41.9240700" lon="-8.8825110">
        <ele>24.2</ele>
        <time>2021-05-19T05:48:47Z</time>
      </trkpt>
      <trkpt lat="41.9240950" lon="-8.8825070">
        <ele>24.2</ele>
        <time>2021-05-19T05:48:48Z</time>
      </trkpt>
      <trkpt lat="41.9241040" lon="-8.8825010">
        <ele>24.3</ele>
        <time>2021-05-19T05:48:49Z</time>
      </trkpt>
      <trkpt lat="41.9241070" lon="-8.8825010">
        <ele>24.3</ele>
        <time>2021-05-19T05:48:50Z</time>
      </trkpt>
      <trkpt lat="41.9241020" lon="-8.8824960">
        <ele>24.3</ele>
        <time>2021-05-19T05:48:51Z</time>
      </trkpt>
      <trkpt lat="41.9241010" lon="-8.8824900">
        <ele>24.3</ele>
        <time>2021-05-19T05:48:52Z</time>
      </trkpt>
      <trkpt lat="41.9241050" lon="-8.8824850">
        <ele>24.3</ele>
        <time>2021-05-19T05:48:53Z</time>
      </trkpt>
      <trkpt lat="41.9241140" lon="-8.8824770">
        <ele>24.4</ele>
        <time>2021-05-19T05:48:54Z</time>
      </trkpt>
      <trkpt lat="41.9241280" lon="-8.8824780">
        <ele>24.4</ele>
        <time>2021-05-19T05:48:55Z</time>
      </trkpt>
      <trkpt lat="41.9241420" lon="-8.8824720">
        <ele>24.4</ele>
        <time>2021-05-19T05:48:56Z</time>
      </trkpt>
      <trkpt lat="41.9241500" lon="-8.8824690">
        <ele>24.5</ele>
        <time>2021-05-19T05:48:57Z</time>
      </trkpt>
      <trkpt lat="41.9241580" lon="-8.8824650">
        <ele>24.5</ele>
        <time>2021-05-19T05:48:58Z</time>
      </trkpt>
      <trkpt lat="41.9241660" lon="-8.8824610">
        <ele>24.5</ele>
        <time>2021-05-19T05:48:59Z</time>
      </trkpt>
      <trkpt lat="41.9241830" lon="-8.8824600">
        <ele>24.5</ele>
        <time>2021-05-19T05:49:00Z</time>
      </trkpt>
      <trkpt lat="41.9241950" lon="-8.8824600">
        <ele>24.6</ele>
        <time>2021-05-19T05:49:01Z</time>
      </trkpt>
      <trkpt lat="41.9242040" lon="-8.8824560">
        <ele>24.6</ele>
        <time>2021-05-19T05:49:02Z</time>
      </trkpt>
      <trkpt lat="41.9242160" lon="-8.8824530">
        <ele>24.6</ele>
        <time>2021-05-19T05:49:03Z</time>
      </trkpt>
      <trkpt lat="41.9242250" lon="-8.8824470">
        <ele>24.7</ele>
        <time>2021-05-19T05:49:04Z</time>
      </trkpt>
      <trkpt lat="41.9242360" lon="-8.8824440">
        <ele>24.7</ele>
        <time>2021-05-19T05:49:05Z</time>
      </trkpt>
      <trkpt lat="41.9242490" lon="-8.8824420">
        <ele>24.7</ele>
        <time>2021-05-19T05:49:06Z</time>
      </trkpt>
      <trkpt lat="41.9242590" lon="-8.8824390">
        <ele>24.7</ele>
        <time>2021-05-19T05:49:07Z</time>
      </trkpt>
      <trkpt lat="41.9242710" lon="-8.8824330">
        <ele>24.8</ele>
        <time>2021-05-19T05:49:08Z</time>
      </trkpt>
      <trkpt lat="41.9242820" lon="-8.8824350">
        <ele>24.8</ele>
        <time>2021-05-19T05:49:09Z</time>
      </trkpt>
      <trkpt lat="41.9242920" lon="-8.8824320">
        <ele>24.8</ele>
        <time>2021-05-19T05:49:10Z</time>
      </trkpt>
      <trkpt lat="41.9243050" lon="-8.8824250">
        <ele>24.9</ele>
        <time>2021-05-19T05:49:11Z</time>
      </trkpt>
      <trkpt lat="41.9243220" lon="-8.8824290">
        <ele>24.9</ele>
        <time>2021-05-19T05:49:12Z</time>
      </trkpt>
      <trkpt lat="41.9243400" lon="-8.8824250">
        <ele>25.0</ele>
        <time>2021-05-19T05:49:13Z</time>
      </trkpt>
      <trkpt lat="41.9243490" lon="-8.8824260">
        <ele>25.0</ele>
        <time>2021-05-19T05:49:14Z</time>
      </trkpt>
      <trkpt lat="41.9243590" lon="-8.8824260">
        <ele>25.0</ele>
        <time>2021-05-19T05:49:15Z</time>
      </trkpt>
      <trkpt lat="41.9243690" lon="-8.8824230">
        <ele>25.0</ele>
        <time>2021-05-19T05:49:16Z</time>
      </trkpt>
      <trkpt lat="41.9243850" lon="-8.8824310">
        <ele>25.1</ele>
        <time>2021-05-19T05:49:17Z</time>
      </trkpt>
      <trkpt lat="41.9243950" lon="-8.8824270">
        <ele>25.1</ele>
        <time>2021-05-19T05:49:18Z</time>
      </trkpt>
      <trkpt lat="41.9244180" lon="-8.8824260">
        <ele>25.2</ele>
        <time>2021-05-19T05:49:19Z</time>
      </trkpt>
      <trkpt lat="41.9244260" lon="-8.8824270">
        <ele>25.2</ele>
        <time>2021-05-19T05:49:20Z</time>
      </trkpt>
      <trkpt lat="41.9244350" lon="-8.8824290">
        <ele>25.2</ele>
        <time>2021-05-19T05:49:21Z</time>
      </trkpt>
      <trkpt lat="41.9244450" lon="-8.8824220">
        <ele>25.3</ele>
        <time>2021-05-19T05:49:22Z</time>
      </trkpt>
      <trkpt lat="41.9244620" lon="-8.8824240">
        <ele>25.3</ele>
        <time>2021-05-19T05:49:23Z</time>
      </trkpt>
      <trkpt lat="41.9244670" lon="-8.8824250">
        <ele>25.3</ele>
        <time>2021-05-19T05:49:24Z</time>
      </trkpt>
      <trkpt lat="41.9244760" lon="-8.8824180">
        <ele>25.3</ele>
        <time>2021-05-19T05:49:25Z</time>
      </trkpt>
      <trkpt lat="41.9244870" lon="-8.8824160">
        <ele>25.4</ele>
        <time>2021-05-19T05:49:26Z</time>
      </trkpt>
      <trkpt lat="41.9244980" lon="-8.8824140">
        <ele>25.4</ele>
        <time>2021-05-19T05:49:27Z</time>
      </trkpt>
      <trkpt lat="41.9245140" lon="-8.8824160">
        <ele>25.5</ele>
        <time>2021-05-19T05:49:28Z</time>
      </trkpt>
      <trkpt lat="41.9245310" lon="-8.8824150">
        <ele>25.5</ele>
        <time>2021-05-19T05:49:29Z</time>
      </trkpt>
      <trkpt lat="41.9245500" lon="-8.8824120">
        <ele>25.6</ele>
        <time>2021-05-19T05:49:30Z</time>
      </trkpt>
      <trkpt lat="41.9245580" lon="-8.8824090">
        <ele>25.6</ele>
        <time>2021-05-19T05:49:31Z</time>
      </trkpt>
      <trkpt lat="41.9245670" lon="-8.8824060">
        <ele>25.6</ele>
        <time>2021-05-19T05:49:32Z</time>
      </trkpt>
      <trkpt lat="41.9245800" lon="-8.8824080">
        <ele>25.6</ele>
        <time>2021-05-19T05:49:33Z</time>
      </trkpt>
      <trkpt lat="41.9245890" lon="-8.8824040">
        <ele>25.7</ele>
        <time>2021-05-19T05:49:34Z</time>
      </trkpt>
      <trkpt lat="41.9246020" lon="-8.8823990">
        <ele>25.7</ele>
        <time>2021-05-19T05:49:35Z</time>
      </trkpt>
      <trkpt lat="41.9246130" lon="-8.8823950">
        <ele>25.8</ele>
        <time>2021-05-19T05:49:36Z</time>
      </trkpt>
      <trkpt lat="41.9246310" lon="-8.8823970">
        <ele>25.8</ele>
        <time>2021-05-19T05:49:37Z</time>
      </trkpt>
      <trkpt lat="41.9246440" lon="-8.8823950">
        <ele>25.8</ele>
        <time>2021-05-19T05:49:38Z</time>
      </trkpt>
      <trkpt lat="41.9246500" lon="-8.8823940">
        <ele>25.9</ele>
        <time>2021-05-19T05:49:39Z</time>
      </trkpt>
      <trkpt lat="41.9246610" lon="-8.8823910">
        <ele>25.9</ele>
        <time>2021-05-19T05:49:40Z</time>
      </trkpt>
      <trkpt lat="41.9246780" lon="-8.8823920">
        <ele>26.0</ele>
        <time>2021-05-19T05:49:41Z</time>
      </trkpt>
      <trkpt lat="41.9246900" lon="-8.8823850">
        <ele>26.0</ele>
        <time>2021-05-19T05:49:42Z</time>
      </trkpt>
      <trkpt lat="41.9247050" lon="-8.8823880">
        <ele>26.1</ele>
        <time>2021-05-19T05:49:43Z</time>
      </trkpt>
      <trkpt lat="41.9247180" lon="-8.8823900">
        <ele>26.1</ele>
        <time>2021-05-19T05:49:44Z</time>
      </trkpt>
      <trkpt lat="41.9247300" lon="-8.8823920">
        <ele>26.1</ele>
        <time>2021-05-19T05:49:45Z</time>
      </trkpt>
      <trkpt lat="41.9247410" lon="-8.8823900">
        <ele>26.2</ele>
        <time>2021-05-19T05:49:46Z</time>
      </trkpt>
      <trkpt lat="41.9247540" lon="-8.8823880">
        <ele>26.2</ele>
        <time>2021-05-19T05:49:47Z</time>
      </trkpt>
      <trkpt lat="41.9247780" lon="-8.8823850">
        <ele>26.3</ele>
        <time>2021-05-19T05:49:48Z</time>
      </trkpt>
      <trkpt lat="41.9247850" lon="-8.8823820">
        <ele>26.3</ele>
        <time>2021-05-19T05:49:49Z</time>
      </trkpt>
      <trkpt lat="41.9247920" lon="-8.8823800">
        <ele>26.4</ele>
        <time>2021-05-19T05:49:50Z</time>
      </trkpt>
      <trkpt lat="41.9248050" lon="-8.8823830">
        <ele>26.4</ele>
        <time>2021-05-19T05:49:51Z</time>
      </trkpt>
      <trkpt lat="41.9248170" lon="-8.8823850">
        <ele>26.5</ele>
        <time>2021-05-19T05:49:52Z</time>
      </trkpt>
      <trkpt lat="41.9248260" lon="-8.8823830">
        <ele>26.5</ele>
        <time>2021-05-19T05:49:53Z</time>
      </trkpt>
      <trkpt lat="41.9248420" lon="-8.8823820">
        <ele>26.6</ele>
        <time>2021-05-19T05:49:54Z</time>
      </trkpt>
      <trkpt lat="41.9248560" lon="-8.8823790">
        <ele>26.7</ele>
        <time>2021-05-19T05:49:55Z</time>
      </trkpt>
      <trkpt lat="41.9248690" lon="-8.8823780">
        <ele>26.7</ele>
        <time>2021-05-19T05:49:56Z</time>
      </trkpt>
      <trkpt lat="41.9248780" lon="-8.8823690">
        <ele>26.8</ele>
        <time>2021-05-19T05:49:57Z</time>
      </trkpt>
      <trkpt lat="41.9248870" lon="-8.8823640">
        <ele>26.9</ele>
        <time>2021-05-19T05:49:58Z</time>
      </trkpt>
      <trkpt lat="41.9248990" lon="-8.8823570">
        <ele>26.9</ele>
        <time>2021-05-19T05:49:59Z</time>
      </trkpt>
      <trkpt lat="41.9249060" lon="-8.8823500">
        <ele>27.0</ele>
        <time>2021-05-19T05:50:00Z</time>
      </trkpt>
      <trkpt lat="41.9249170" lon="-8.8823380">
        <ele>27.1</ele>
        <time>2021-05-19T05:50:01Z</time>
      </trkpt>
      <trkpt lat="41.9249230" lon="-8.8823250">
        <ele>27.1</ele>
        <time>2021-05-19T05:50:02Z</time>
      </trkpt>
      <trkpt lat="41.9249230" lon="-8.8823100">
        <ele>27.2</ele>
        <time>2021-05-19T05:50:03Z</time>
      </trkpt>
      <trkpt lat="41.9249260" lon="-8.8822990">
        <ele>27.3</ele>
        <time>2021-05-19T05:50:04Z</time>
      </trkpt>
      <trkpt lat="41.9249340" lon="-8.8822720">
        <ele>27.4</ele>
        <time>2021-05-19T05:50:05Z</time>
      </trkpt>
      <trkpt lat="41.9249360" lon="-8.8822600">
        <ele>27.5</ele>
        <time>2021-05-19T05:50:06Z</time>
      </trkpt>
      <trkpt lat="41.9249380" lon="-8.8822480">
        <ele>27.6</ele>
        <time>2021-05-19T05:50:07Z</time>
      </trkpt>
      <trkpt lat="41.9249390" lon="-8.8822300">
        <ele>27.7</ele>
        <time>2021-05-19T05:50:08Z</time>
      </trkpt>
      <trkpt lat="41.9249370" lon="-8.8822170">
        <ele>27.8</ele>
        <time>2021-05-19T05:50:09Z</time>
      </trkpt>
      <trkpt lat="41.9249370" lon="-8.8822030">
        <ele>27.9</ele>
        <time>2021-05-19T05:50:10Z</time>
      </trkpt>
      <trkpt lat="41.9249340" lon="-8.8821790">
        <ele>28.0</ele>
        <time>2021-05-19T05:50:11Z</time>
      </trkpt>
      <trkpt lat="41.9249320" lon="-8.8821680">
        <ele>28.1</ele>
        <time>2021-05-19T05:50:12Z</time>
      </trkpt>
      <trkpt lat="41.9249290" lon="-8.8821560">
        <ele>28.2</ele>
        <time>2021-05-19T05:50:13Z</time>
      </trkpt>
      <trkpt lat="41.9249240" lon="-8.8821460">
        <ele>28.3</ele>
        <time>2021-05-19T05:50:14Z</time>
      </trkpt>
      <trkpt lat="41.9249230" lon="-8.8821220">
        <ele>28.4</ele>
        <time>2021-05-19T05:50:15Z</time>
      </trkpt>
      <trkpt lat="41.9249180" lon="-8.8821120">
        <ele>28.5</ele>
        <time>2021-05-19T05:50:16Z</time>
      </trkpt>
      <trkpt lat="41.9249140" lon="-8.8821000">
        <ele>28.6</ele>
        <time>2021-05-19T05:50:17Z</time>
      </trkpt>
      <trkpt lat="41.9249060" lon="-8.8820810">
        <ele>28.8</ele>
        <time>2021-05-19T05:50:18Z</time>
      </trkpt>
      <trkpt lat="41.9249040" lon="-8.8820680">
        <ele>28.9</ele>
        <time>2021-05-19T05:50:19Z</time>
      </trkpt>
      <trkpt lat="41.9249030" lon="-8.8820550">
        <ele>28.9</ele>
        <time>2021-05-19T05:50:20Z</time>
      </trkpt>
      <trkpt lat="41.9249020" lon="-8.8820380">
        <ele>29.1</ele>
        <time>2021-05-19T05:50:21Z</time>
      </trkpt>
      <trkpt lat="41.9248960" lon="-8.8820210">
        <ele>29.2</ele>
        <time>2021-05-19T05:50:22Z</time>
      </trkpt>
      <trkpt lat="41.9248930" lon="-8.8820020">
        <ele>29.3</ele>
        <time>2021-05-19T05:50:23Z</time>
      </trkpt>
      <trkpt lat="41.9248890" lon="-8.8819820">
        <ele>29.5</ele>
        <time>2021-05-19T05:50:24Z</time>
      </trkpt>
      <trkpt lat="41.9248900" lon="-8.8819600">
        <ele>29.6</ele>
        <time>2021-05-19T05:50:25Z</time>
      </trkpt>
      <trkpt lat="41.9248910" lon="-8.8819500">
        <ele>29.7</ele>
        <time>2021-05-19T05:50:26Z</time>
      </trkpt>
      <trkpt lat="41.9248910" lon="-8.8819390">
        <ele>29.8</ele>
        <time>2021-05-19T05:50:27Z</time>
      </trkpt>
      <trkpt lat="41.9248920" lon="-8.8819280">
        <ele>29.8</ele>
        <time>2021-05-19T05:50:28Z</time>
      </trkpt>
      <trkpt lat="41.9248910" lon="-8.8819150">
        <ele>29.9</ele>
        <time>2021-05-19T05:50:29Z</time>
      </trkpt>
      <trkpt lat="41.9248860" lon="-8.8818990">
        <ele>30.1</ele>
        <time>2021-05-19T05:50:30Z</time>
      </trkpt>
      <trkpt lat="41.9248840" lon="-8.8818850">
        <ele>30.1</ele>
        <time>2021-05-19T05:50:31Z</time>
      </trkpt>
      <trkpt lat="41.9248800" lon="-8.8818580">
        <ele>30.3</ele>
        <time>2021-05-19T05:50:32Z</time>
      </trkpt>
      <trkpt lat="41.9248790" lon="-8.8818470">
        <ele>30.4</ele>
        <time>2021-05-19T05:50:33Z</time>
      </trkpt>
      <trkpt lat="41.9248790" lon="-8.8818360">
        <ele>30.5</ele>
        <time>2021-05-19T05:50:34Z</time>
      </trkpt>
      <trkpt lat="41.9248760" lon="-8.8818080">
        <ele>30.8</ele>
        <time>2021-05-19T05:50:35Z</time>
      </trkpt>
      <trkpt lat="41.9248750" lon="-8.8817960">
        <ele>30.9</ele>
        <time>2021-05-19T05:50:36Z</time>
      </trkpt>
      <trkpt lat="41.9248750" lon="-8.8817850">
        <ele>31.1</ele>
        <time>2021-05-19T05:50:37Z</time>
      </trkpt>
      <trkpt lat="41.9248720" lon="-8.8817660">
        <ele>31.3</ele>
        <time>2021-05-19T05:50:38Z</time>
      </trkpt>
      <trkpt lat="41.9248720" lon="-8.8817480">
        <ele>31.4</ele>
        <time>2021-05-19T05:50:39Z</time>
      </trkpt>
      <trkpt lat="41.9248760" lon="-8.8817280">
        <ele>31.7</ele>
        <time>2021-05-19T05:50:40Z</time>
      </trkpt>
      <trkpt lat="41.9248760" lon="-8.8817180">
        <ele>31.8</ele>
        <time>2021-05-19T05:50:41Z</time>
      </trkpt>
      <trkpt lat="41.9248770" lon="-8.8817090">
        <ele>31.9</ele>
        <time>2021-05-19T05:50:42Z</time>
      </trkpt>
      <trkpt lat="41.9248770" lon="-8.8816990">
        <ele>32.0</ele>
        <time>2021-05-19T05:50:43Z</time>
      </trkpt>
      <trkpt lat="41.9248790" lon="-8.8816850">
        <ele>32.2</ele>
        <time>2021-05-19T05:50:44Z</time>
      </trkpt>
      <trkpt lat="41.9248800" lon="-8.8816600">
        <ele>32.4</ele>
        <time>2021-05-19T05:50:45Z</time>
      </trkpt>
      <trkpt lat="41.9248820" lon="-8.8816300">
        <ele>32.8</ele>
        <time>2021-05-19T05:50:46Z</time>
      </trkpt>
      <trkpt lat="41.9248830" lon="-8.8816180">
        <ele>32.9</ele>
        <time>2021-05-19T05:50:47Z</time>
      </trkpt>
      <trkpt lat="41.9248840" lon="-8.8816070">
        <ele>33.0</ele>
        <time>2021-05-19T05:50:48Z</time>
      </trkpt>
      <trkpt lat="41.9248880" lon="-8.8815960">
        <ele>33.2</ele>
        <time>2021-05-19T05:50:49Z</time>
      </trkpt>
      <trkpt lat="41.9248920" lon="-8.8815730">
        <ele>33.5</ele>
        <time>2021-05-19T05:50:50Z</time>
      </trkpt>
      <trkpt lat="41.9248920" lon="-8.8815650">
        <ele>33.6</ele>
        <time>2021-05-19T05:50:51Z</time>
      </trkpt>
      <trkpt lat="41.9248970" lon="-8.8815340">
        <ele>34.0</ele>
        <time>2021-05-19T05:50:52Z</time>
      </trkpt>
      <trkpt lat="41.9248970" lon="-8.8815250">
        <ele>34.1</ele>
        <time>2021-05-19T05:50:53Z</time>
      </trkpt>
      <trkpt lat="41.9248950" lon="-8.8815170">
        <ele>34.2</ele>
        <time>2021-05-19T05:50:54Z</time>
      </trkpt>
      <trkpt lat="41.9248990" lon="-8.8815010">
        <ele>34.4</ele>
        <time>2021-05-19T05:50:55Z</time>
      </trkpt>
      <trkpt lat="41.9249040" lon="-8.8814890">
        <ele>34.6</ele>
        <time>2021-05-19T05:50:56Z</time>
      </trkpt>
      <trkpt lat="41.9249070" lon="-8.8814750">
        <ele>34.8</ele>
        <time>2021-05-19T05:50:57Z</time>
      </trkpt>
      <trkpt lat="41.9249130" lon="-8.8814660">
        <ele>34.9</ele>
        <time>2021-05-19T05:50:58Z</time>
      </trkpt>
      <trkpt lat="41.9249150" lon="-8.8814530">
        <ele>35.1</ele>
        <time>2021-05-19T05:50:59Z</time>
      </trkpt>
      <trkpt lat="41.9249220" lon="-8.8814440">
        <ele>35.2</ele>
        <time>2021-05-19T05:51:00Z</time>
      </trkpt>
      <trkpt lat="41.9249270" lon="-8.8814320">
        <ele>35.4</ele>
        <time>2021-05-19T05:51:01Z</time>
      </trkpt>
      <trkpt lat="41.9249300" lon="-8.8814150">
        <ele>35.6</ele>
        <time>2021-05-19T05:51:02Z</time>
      </trkpt>
      <trkpt lat="41.9249300" lon="-8.8813980">
        <ele>35.8</ele>
        <time>2021-05-19T05:51:03Z</time>
      </trkpt>
      <trkpt lat="41.9249310" lon="-8.8813880">
        <ele>35.9</ele>
        <time>2021-05-19T05:51:04Z</time>
      </trkpt>
      <trkpt lat="41.9249360" lon="-8.8813750">
        <ele>36.1</ele>
        <time>2021-05-19T05:51:05Z</time>
      </trkpt>
      <trkpt lat="41.9249420" lon="-8.8813620">
        <ele>36.3</ele>
        <time>2021-05-19T05:51:06Z</time>
      </trkpt>
      <trkpt lat="41.9249450" lon="-8.8813460">
        <ele>36.5</ele>
        <time>2021-05-19T05:51:07Z</time>
      </trkpt>
      <trkpt lat="41.9249500" lon="-8.8813370">
        <ele>36.6</ele>
        <time>2021-05-19T05:51:08Z</time>
      </trkpt>
      <trkpt lat="41.9249530" lon="-8.8813220">
        <ele>36.8</ele>
        <time>2021-05-19T05:51:09Z</time>
      </trkpt>
      <trkpt lat="41.9249580" lon="-8.8813040">
        <ele>37.0</ele>
        <time>2021-05-19T05:51:10Z</time>
      </trkpt>
      <trkpt lat="41.9249650" lon="-8.8812960">
        <ele>37.2</ele>
        <time>2021-05-19T05:51:11Z</time>
      </trkpt>
      <trkpt lat="41.9249690" lon="-8.8812710">
        <ele>37.5</ele>
        <time>2021-05-19T05:51:12Z</time>
      </trkpt>
      <trkpt lat="41.9249690" lon="-8.8812580">
        <ele>37.7</ele>
        <time>2021-05-19T05:51:13Z</time>
      </trkpt>
      <trkpt lat="41.9249700" lon="-8.8812460">
        <ele>37.8</ele>
        <time>2021-05-19T05:51:14Z</time>
      </trkpt>
      <trkpt lat="41.9249680" lon="-8.8812140">
        <ele>38.2</ele>
        <time>2021-05-19T05:51:15Z</time>
      </trkpt>
      <trkpt lat="41.9249670" lon="-8.8812030">
        <ele>38.3</ele>
        <time>2021-05-19T05:51:16Z</time>
      </trkpt>
      <trkpt lat="41.9249670" lon="-8.8811930">
        <ele>38.5</ele>
        <time>2021-05-19T05:51:17Z</time>
      </trkpt>
      <trkpt lat="41.9249720" lon="-8.8811810">
        <ele>38.7</ele>
        <time>2021-05-19T05:51:18Z</time>
      </trkpt>
      <trkpt lat="41.9249670" lon="-8.8811570">
        <ele>39.0</ele>
        <time>2021-05-19T05:51:19Z</time>
      </trkpt>
      <trkpt lat="41.9249690" lon="-8.8811450">
        <ele>39.2</ele>
        <time>2021-05-19T05:51:20Z</time>
      </trkpt>
      <trkpt lat="41.9249630" lon="-8.8811320">
        <ele>39.4</ele>
        <time>2021-05-19T05:51:21Z</time>
      </trkpt>
      <trkpt lat="41.9249620" lon="-8.8811220">
        <ele>39.6</ele>
        <time>2021-05-19T05:51:22Z</time>
      </trkpt>
      <trkpt lat="41.9249610" lon="-8.8811150">
        <ele>39.7</ele>
        <time>2021-05-19T05:51:23Z</time>
      </trkpt>
      <trkpt lat="41.9249570" lon="-8.8811100">
        <ele>39.8</ele>
        <time>2021-05-19T05:51:24Z</time>
      </trkpt>
      <trkpt lat="41.9249430" lon="-8.8811040">
        <ele>40.1</ele>
        <time>2021-05-19T05:51:25Z</time>
      </trkpt>
      <trkpt lat="41.9249390" lon="-8.8810980">
        <ele>40.2</ele>
        <time>2021-05-19T05:51:26Z</time>
      </trkpt>
      <trkpt lat="41.9249310" lon="-8.8810840">
        <ele>40.5</ele>
        <time>2021-05-19T05:51:27Z</time>
      </trkpt>
      <trkpt lat="41.9249270" lon="-8.8810760">
        <ele>40.7</ele>
        <time>2021-05-19T05:51:28Z</time>
      </trkpt>
      <trkpt lat="41.9249280" lon="-8.8810690">
        <ele>40.8</ele>
        <time>2021-05-19T05:51:29Z</time>
      </trkpt>
      <trkpt lat="41.9249280" lon="-8.8810620">
        <ele>40.9</ele>
        <time>2021-05-19T05:51:30Z</time>
      </trkpt>
      <trkpt lat="41.9249340" lon="-8.8810430">
        <ele>41.3</ele>
        <time>2021-05-19T05:51:31Z</time>
      </trkpt>
      <trkpt lat="41.9249380" lon="-8.8810400">
        <ele>41.4</ele>
        <time>2021-05-19T05:51:32Z</time>
      </trkpt>
      <trkpt lat="41.9249520" lon="-8.8810350">
        <ele>41.7</ele>
        <time>2021-05-19T05:51:33Z</time>
      </trkpt>
      <trkpt lat="41.9249490" lon="-8.8810200">
        <ele>42.2</ele>
        <time>2021-05-19T05:51:34Z</time>
      </trkpt>
      <trkpt lat="41.9249500" lon="-8.8810100">
        <ele>42.2</ele>
        <time>2021-05-19T05:51:35Z</time>
      </trkpt>
      <trkpt lat="41.9249510" lon="-8.8810070">
        <ele>42.2</ele>
        <time>2021-05-19T05:51:36Z</time>
      </trkpt>
      <trkpt lat="41.9249560" lon="-8.8810150">
        <ele>42.2</ele>
        <time>2021-05-19T05:51:37Z</time>
      </trkpt>
      <trkpt lat="41.9249610" lon="-8.8810150">
        <ele>42.1</ele>
        <time>2021-05-19T05:51:38Z</time>
      </trkpt>
      <trkpt lat="41.9249630" lon="-8.8810170">
        <ele>42.1</ele>
        <time>2021-05-19T05:51:39Z</time>
      </trkpt>
      <trkpt lat="41.9249610" lon="-8.8810210">
        <ele>42.1</ele>
        <time>2021-05-19T05:51:40Z</time>
      </trkpt>
      <trkpt lat="41.9249630" lon="-8.8810230">
        <ele>42.1</ele>
        <time>2021-05-19T05:51:41Z</time>
      </trkpt>
      <trkpt lat="41.9249650" lon="-8.8810240">
        <ele>42.1</ele>
        <time>2021-05-19T05:51:42Z</time>
      </trkpt>
      <trkpt lat="41.9249710" lon="-8.8810270">
        <ele>42.1</ele>
        <time>2021-05-19T05:51:43Z</time>
      </trkpt>
      <trkpt lat="41.9249750" lon="-8.8810280">
        <ele>42.1</ele>
        <time>2021-05-19T05:51:44Z</time>
      </trkpt>
      <trkpt lat="41.9249780" lon="-8.8810280">
        <ele>42.1</ele>
        <time>2021-05-19T05:51:45Z</time>
      </trkpt>
      <trkpt lat="41.9249800" lon="-8.8810260">
        <ele>42.1</ele>
        <time>2021-05-19T05:51:46Z</time>
      </trkpt>
      <trkpt lat="41.9249760" lon="-8.8810330">
        <ele>42.1</ele>
        <time>2021-05-19T05:51:47Z</time>
      </trkpt>
      <trkpt lat="41.9249690" lon="-8.8810260">
        <ele>42.1</ele>
        <time>2021-05-19T05:51:48Z</time>
      </trkpt>
      <trkpt lat="41.9249640" lon="-8.8810200">
        <ele>42.1</ele>
        <time>2021-05-19T05:51:49Z</time>
      </trkpt>
      <trkpt lat="41.9249610" lon="-8.8810140">
        <ele>42.1</ele>
        <time>2021-05-19T05:51:50Z</time>
      </trkpt>
      <trkpt lat="41.9249690" lon="-8.8810140">
        <ele>42.0</ele>
        <time>2021-05-19T05:51:51Z</time>
      </trkpt>
      <trkpt lat="41.9249830" lon="-8.8810200">
        <ele>42.0</ele>
        <time>2021-05-19T05:51:52Z</time>
      </trkpt>
      <trkpt lat="41.9249940" lon="-8.8810250">
        <ele>42.0</ele>
        <time>2021-05-19T05:51:53Z</time>
      </trkpt>
      <trkpt lat="41.9250080" lon="-8.8810320">
        <ele>42.0</ele>
        <time>2021-05-19T05:51:54Z</time>
      </trkpt>
      <trkpt lat="41.9250190" lon="-8.8810350">
        <ele>41.9</ele>
        <time>2021-05-19T05:51:55Z</time>
      </trkpt>
      <trkpt lat="41.9250370" lon="-8.8810400">
        <ele>41.9</ele>
        <time>2021-05-19T05:51:56Z</time>
      </trkpt>
      <trkpt lat="41.9250550" lon="-8.8810420">
        <ele>41.9</ele>
        <time>2021-05-19T05:51:57Z</time>
      </trkpt>
      <trkpt lat="41.9250710" lon="-8.8810550">
        <ele>41.9</ele>
        <time>2021-05-19T05:51:58Z</time>
      </trkpt>
      <trkpt lat="41.9250840" lon="-8.8810530">
        <ele>41.8</ele>
        <time>2021-05-19T05:51:59Z</time>
      </trkpt>
      <trkpt lat="41.9251010" lon="-8.8810640">
        <ele>41.8</ele>
        <time>2021-05-19T05:52:00Z</time>
      </trkpt>
      <trkpt lat="41.9251140" lon="-8.8810630">
        <ele>41.8</ele>
        <time>2021-05-19T05:52:01Z</time>
      </trkpt>
      <trkpt lat="41.9251200" lon="-8.8810640">
        <ele>41.8</ele>
        <time>2021-05-19T05:52:02Z</time>
      </trkpt>
      <trkpt lat="41.9251330" lon="-8.8810670">
        <ele>41.7</ele>
        <time>2021-05-19T05:52:03Z</time>
      </trkpt>
      <trkpt lat="41.9251400" lon="-8.8810690">
        <ele>41.7</ele>
        <time>2021-05-19T05:52:04Z</time>
      </trkpt>
      <trkpt lat="41.9251600" lon="-8.8810660">
        <ele>41.7</ele>
        <time>2021-05-19T05:52:05Z</time>
      </trkpt>
      <trkpt lat="41.9251700" lon="-8.8810800">
        <ele>41.7</ele>
        <time>2021-05-19T05:52:06Z</time>
      </trkpt>
      <trkpt lat="41.9251870" lon="-8.8810640">
        <ele>41.6</ele>
        <time>2021-05-19T05:52:07Z</time>
      </trkpt>
      <trkpt lat="41.9252010" lon="-8.8810650">
        <ele>41.6</ele>
        <time>2021-05-19T05:52:08Z</time>
      </trkpt>
      <trkpt lat="41.9252150" lon="-8.8810730">
        <ele>41.6</ele>
        <time>2021-05-19T05:52:09Z</time>
      </trkpt>
      <trkpt lat="41.9252260" lon="-8.8810730">
        <ele>41.6</ele>
        <time>2021-05-19T05:52:10Z</time>
      </trkpt>
      <trkpt lat="41.9252410" lon="-8.8810750">
        <ele>41.6</ele>
        <time>2021-05-19T05:52:11Z</time>
      </trkpt>
      <trkpt lat="41.9252450" lon="-8.8810730">
        <ele>41.6</ele>
        <time>2021-05-19T05:52:12Z</time>
      </trkpt>
      <trkpt lat="41.9252680" lon="-8.8810770">
        <ele>41.5</ele>
        <time>2021-05-19T05:52:13Z</time>
      </trkpt>
      <trkpt lat="41.9252750" lon="-8.8810770">
        <ele>41.5</ele>
        <time>2021-05-19T05:52:14Z</time>
      </trkpt>
      <trkpt lat="41.9252830" lon="-8.8810760">
        <ele>41.5</ele>
        <time>2021-05-19T05:52:15Z</time>
      </trkpt>
      <trkpt lat="41.9252930" lon="-8.8810740">
        <ele>41.5</ele>
        <time>2021-05-19T05:52:16Z</time>
      </trkpt>
      <trkpt lat="41.9253100" lon="-8.8810830">
        <ele>41.5</ele>
        <time>2021-05-19T05:52:17Z</time>
      </trkpt>
      <trkpt lat="41.9253190" lon="-8.8810900">
        <ele>41.4</ele>
        <time>2021-05-19T05:52:18Z</time>
      </trkpt>
      <trkpt lat="41.9253290" lon="-8.8810900">
        <ele>41.4</ele>
        <time>2021-05-19T05:52:19Z</time>
      </trkpt>
      <trkpt lat="41.9253370" lon="-8.8810980">
        <ele>41.4</ele>
        <time>2021-05-19T05:52:20Z</time>
      </trkpt>
      <trkpt lat="41.9253620" lon="-8.8811010">
        <ele>41.4</ele>
        <time>2021-05-19T05:52:21Z</time>
      </trkpt>
      <trkpt lat="41.9253690" lon="-8.8811020">
        <ele>41.4</ele>
        <time>2021-05-19T05:52:22Z</time>
      </trkpt>
      <trkpt lat="41.9253930" lon="-8.8811040">
        <ele>41.3</ele>
        <time>2021-05-19T05:52:23Z</time>
      </trkpt>
      <trkpt lat="41.9254000" lon="-8.8811060">
        <ele>41.3</ele>
        <time>2021-05-19T05:52:24Z</time>
      </trkpt>
      <trkpt lat="41.9254070" lon="-8.8811080">
        <ele>41.3</ele>
        <time>2021-05-19T05:52:25Z</time>
      </trkpt>
      <trkpt lat="41.9254290" lon="-8.8811110">
        <ele>41.3</ele>
        <time>2021-05-19T05:52:26Z</time>
      </trkpt>
      <trkpt lat="41.9254370" lon="-8.8811090">
        <ele>41.3</ele>
        <time>2021-05-19T05:52:27Z</time>
      </trkpt>
      <trkpt lat="41.9254440" lon="-8.8811080">
        <ele>41.3</ele>
        <time>2021-05-19T05:52:28Z</time>
      </trkpt>
      <trkpt lat="41.9254610" lon="-8.8811150">
        <ele>41.2</ele>
        <time>2021-05-19T05:52:29Z</time>
      </trkpt>
      <trkpt lat="41.9254730" lon="-8.8811170">
        <ele>41.2</ele>
        <time>2021-05-19T05:52:30Z</time>
      </trkpt>
      <trkpt lat="41.9254800" lon="-8.8811180">
        <ele>41.2</ele>
        <time>2021-05-19T05:52:31Z</time>
      </trkpt>
      <trkpt lat="41.9254960" lon="-8.8811180">
        <ele>41.2</ele>
        <time>2021-05-19T05:52:32Z</time>
      </trkpt>
      <trkpt lat="41.9255070" lon="-8.8811230">
        <ele>41.2</ele>
        <time>2021-05-19T05:52:33Z</time>
      </trkpt>
      <trkpt lat="41.9255290" lon="-8.8811290">
        <ele>41.2</ele>
        <time>2021-05-19T05:52:34Z</time>
      </trkpt>
      <trkpt lat="41.9255370" lon="-8.8811310">
        <ele>41.1</ele>
        <time>2021-05-19T05:52:35Z</time>
      </trkpt>
      <trkpt lat="41.9255450" lon="-8.8811340">
        <ele>41.1</ele>
        <time>2021-05-19T05:52:36Z</time>
      </trkpt>
      <trkpt lat="41.9255580" lon="-8.8811430">
        <ele>41.1</ele>
        <time>2021-05-19T05:52:37Z</time>
      </trkpt>
      <trkpt lat="41.9255740" lon="-8.8811340">
        <ele>41.1</ele>
        <time>2021-05-19T05:52:38Z</time>
      </trkpt>
      <trkpt lat="41.9255840" lon="-8.8811370">
        <ele>41.1</ele>
        <time>2021-05-19T05:52:39Z</time>
      </trkpt>
      <trkpt lat="41.9255940" lon="-8.8811400">
        <ele>41.1</ele>
        <time>2021-05-19T05:52:40Z</time>
      </trkpt>
      <trkpt lat="41.9256040" lon="-8.8811520">
        <ele>41.1</ele>
        <time>2021-05-19T05:52:41Z</time>
      </trkpt>
      <trkpt lat="41.9256190" lon="-8.8811540">
        <ele>41.1</ele>
        <time>2021-05-19T05:52:42Z</time>
      </trkpt>
      <trkpt lat="41.9256310" lon="-8.8811510">
        <ele>41.1</ele>
        <time>2021-05-19T05:52:43Z</time>
      </trkpt>
      <trkpt lat="41.9256580" lon="-8.8811570">
        <ele>41.0</ele>
        <time>2021-05-19T05:52:44Z</time>
      </trkpt>
      <trkpt lat="41.9256650" lon="-8.8811580">
        <ele>41.0</ele>
        <time>2021-05-19T05:52:45Z</time>
      </trkpt>
      <trkpt lat="41.9256720" lon="-8.8811590">
        <ele>41.0</ele>
        <time>2021-05-19T05:52:46Z</time>
      </trkpt>
      <trkpt lat="41.9256930" lon="-8.8811580">
        <ele>41.0</ele>
        <time>2021-05-19T05:52:47Z</time>
      </trkpt>
      <trkpt lat="41.9257050" lon="-8.8811550">
        <ele>41.0</ele>
        <time>2021-05-19T05:52:48Z</time>
      </trkpt>
      <trkpt lat="41.9257250" lon="-8.8811600">
        <ele>41.0</ele>
        <time>2021-05-19T05:52:49Z</time>
      </trkpt>
      <trkpt lat="41.9257340" lon="-8.8811620">
        <ele>41.0</ele>
        <time>2021-05-19T05:52:50Z</time>
      </trkpt>
      <trkpt lat="41.9257430" lon="-8.8811640">
        <ele>41.0</ele>
        <time>2021-05-19T05:52:51Z</time>
      </trkpt>
      <trkpt lat="41.9257650" lon="-8.8811630">
        <ele>41.0</ele>
        <time>2021-05-19T05:52:52Z</time>
      </trkpt>
      <trkpt lat="41.9257760" lon="-8.8811640">
        <ele>41.0</ele>
        <time>2021-05-19T05:52:53Z</time>
      </trkpt>
      <trkpt lat="41.9257860" lon="-8.8811650">
        <ele>41.0</ele>
        <time>2021-05-19T05:52:54Z</time>
      </trkpt>
      <trkpt lat="41.9257890" lon="-8.8811660">
        <ele>41.0</ele>
        <time>2021-05-19T05:52:55Z</time>
      </trkpt>
      <trkpt lat="41.9258050" lon="-8.8811670">
        <ele>41.0</ele>
        <time>2021-05-19T05:52:56Z</time>
      </trkpt>
      <trkpt lat="41.9258170" lon="-8.8811700">
        <ele>41.0</ele>
        <time>2021-05-19T05:52:57Z</time>
      </trkpt>
      <trkpt lat="41.9258330" lon="-8.8811740">
        <ele>41.0</ele>
        <time>2021-05-19T05:52:58Z</time>
      </trkpt>
      <trkpt lat="41.9258470" lon="-8.8811750">
        <ele>41.0</ele>
        <time>2021-05-19T05:52:59Z</time>
      </trkpt>
      <trkpt lat="41.9258640" lon="-8.8811830">
        <ele>41.0</ele>
        <time>2021-05-19T05:53:00Z</time>
      </trkpt>
      <trkpt lat="41.9258710" lon="-8.8811850">
        <ele>41.0</ele>
        <time>2021-05-19T05:53:01Z</time>
      </trkpt>
      <trkpt lat="41.9258770" lon="-8.8811880">
        <ele>41.0</ele>
        <time>2021-05-19T05:53:02Z</time>
      </trkpt>
      <trkpt lat="41.9258840" lon="-8.8811900">
        <ele>41.0</ele>
        <time>2021-05-19T05:53:03Z</time>
      </trkpt>
      <trkpt lat="41.9258990" lon="-8.8811990">
        <ele>41.0</ele>
        <time>2021-05-19T05:53:04Z</time>
      </trkpt>
      <trkpt lat="41.9259070" lon="-8.8812010">
        <ele>41.0</ele>
        <time>2021-05-19T05:53:05Z</time>
      </trkpt>
      <trkpt lat="41.9259170" lon="-8.8812010">
        <ele>41.0</ele>
        <time>2021-05-19T05:53:06Z</time>
      </trkpt>
      <trkpt lat="41.9259290" lon="-8.8811950">
        <ele>41.0</ele>
        <time>2021-05-19T05:53:07Z</time>
      </trkpt>
      <trkpt lat="41.9259350" lon="-8.8811980">
        <ele>41.0</ele>
        <time>2021-05-19T05:53:08Z</time>
      </trkpt>
      <trkpt lat="41.9259470" lon="-8.8812030">
        <ele>41.0</ele>
        <time>2021-05-19T05:53:09Z</time>
      </trkpt>
      <trkpt lat="41.9259570" lon="-8.8812010">
        <ele>41.0</ele>
        <time>2021-05-19T05:53:10Z</time>
      </trkpt>
      <trkpt lat="41.9259700" lon="-8.8811990">
        <ele>41.0</ele>
        <time>2021-05-19T05:53:11Z</time>
      </trkpt>
      <trkpt lat="41.9259830" lon="-8.8812000">
        <ele>41.0</ele>
        <time>2021-05-19T05:53:12Z</time>
      </trkpt>
      <trkpt lat="41.9260010" lon="-8.8812050">
        <ele>41.0</ele>
        <time>2021-05-19T05:53:13Z</time>
      </trkpt>
      <trkpt lat="41.9260100" lon="-8.8812070">
        <ele>41.0</ele>
        <time>2021-05-19T05:53:14Z</time>
      </trkpt>
      <trkpt lat="41.9260270" lon="-8.8812090">
        <ele>41.0</ele>
        <time>2021-05-19T05:53:15Z</time>
      </trkpt>
      <trkpt lat="41.9260390" lon="-8.8812080">
        <ele>41.0</ele>
        <time>2021-05-19T05:53:16Z</time>
      </trkpt>
      <trkpt lat="41.9260520" lon="-8.8812150">
        <ele>41.0</ele>
        <time>2021-05-19T05:53:17Z</time>
      </trkpt>
      <trkpt lat="41.9260600" lon="-8.8812190">
        <ele>41.0</ele>
        <time>2021-05-19T05:53:18Z</time>
      </trkpt>
      <trkpt lat="41.9260690" lon="-8.8812220">
        <ele>41.0</ele>
        <time>2021-05-19T05:53:19Z</time>
      </trkpt>
      <trkpt lat="41.9260770" lon="-8.8812260">
        <ele>41.0</ele>
        <time>2021-05-19T05:53:20Z</time>
      </trkpt>
      <trkpt lat="41.9260930" lon="-8.8812280">
        <ele>41.0</ele>
        <time>2021-05-19T05:53:21Z</time>
      </trkpt>
      <trkpt lat="41.9261090" lon="-8.8812410">
        <ele>41.0</ele>
        <time>2021-05-19T05:53:22Z</time>
      </trkpt>
      <trkpt lat="41.9261270" lon="-8.8812430">
        <ele>41.0</ele>
        <time>2021-05-19T05:53:23Z</time>
      </trkpt>
      <trkpt lat="41.9261420" lon="-8.8812410">
        <ele>41.0</ele>
        <time>2021-05-19T05:53:24Z</time>
      </trkpt>
      <trkpt lat="41.9261470" lon="-8.8812430">
        <ele>41.0</ele>
        <time>2021-05-19T05:53:25Z</time>
      </trkpt>
      <trkpt lat="41.9261640" lon="-8.8812420">
        <ele>41.0</ele>
        <time>2021-05-19T05:53:26Z</time>
      </trkpt>
      <trkpt lat="41.9261700" lon="-8.8812400">
        <ele>41.0</ele>
        <time>2021-05-19T05:53:27Z</time>
      </trkpt>
      <trkpt lat="41.9261870" lon="-8.8812460">
        <ele>41.0</ele>
        <time>2021-05-19T05:53:28Z</time>
      </trkpt>
      <trkpt lat="41.9261970" lon="-8.8812480">
        <ele>41.1</ele>
        <time>2021-05-19T05:53:29Z</time>
      </trkpt>
      <trkpt lat="41.9262070" lon="-8.8812500">
        <ele>41.1</ele>
        <time>2021-05-19T05:53:30Z</time>
      </trkpt>
      <trkpt lat="41.9262200" lon="-8.8812440">
        <ele>41.1</ele>
        <time>2021-05-19T05:53:31Z</time>
      </trkpt>
      <trkpt lat="41.9262370" lon="-8.8812450">
        <ele>41.1</ele>
        <time>2021-05-19T05:53:32Z</time>
      </trkpt>
      <trkpt lat="41.9262490" lon="-8.8812500">
        <ele>41.1</ele>
        <time>2021-05-19T05:53:33Z</time>
      </trkpt>
      <trkpt lat="41.9262600" lon="-8.8812470">
        <ele>41.1</ele>
        <time>2021-05-19T05:53:34Z</time>
      </trkpt>
      <trkpt lat="41.9262690" lon="-8.8812520">
        <ele>41.1</ele>
        <time>2021-05-19T05:53:35Z</time>
      </trkpt>
      <trkpt lat="41.9262820" lon="-8.8812500">
        <ele>41.2</ele>
        <time>2021-05-19T05:53:36Z</time>
      </trkpt>
      <trkpt lat="41.9262990" lon="-8.8812560">
        <ele>41.2</ele>
        <time>2021-05-19T05:53:37Z</time>
      </trkpt>
      <trkpt lat="41.9263100" lon="-8.8812620">
        <ele>41.2</ele>
        <time>2021-05-19T05:53:38Z</time>
      </trkpt>
      <trkpt lat="41.9263230" lon="-8.8812610">
        <ele>41.2</ele>
        <time>2021-05-19T05:53:39Z</time>
      </trkpt>
      <trkpt lat="41.9263350" lon="-8.8812620">
        <ele>41.2</ele>
        <time>2021-05-19T05:53:40Z</time>
      </trkpt>
      <trkpt lat="41.9263480" lon="-8.8812600">
        <ele>41.3</ele>
        <time>2021-05-19T05:53:41Z</time>
      </trkpt>
      <trkpt lat="41.9263640" lon="-8.8812720">
        <ele>41.3</ele>
        <time>2021-05-19T05:53:42Z</time>
      </trkpt>
      <trkpt lat="41.9263760" lon="-8.8812710">
        <ele>41.3</ele>
        <time>2021-05-19T05:53:43Z</time>
      </trkpt>
      <trkpt lat="41.9263930" lon="-8.8812820">
        <ele>41.3</ele>
        <time>2021-05-19T05:53:44Z</time>
      </trkpt>
      <trkpt lat="41.9263990" lon="-8.8812740">
        <ele>41.3</ele>
        <time>2021-05-19T05:53:45Z</time>
      </trkpt>
      <trkpt lat="41.9264150" lon="-8.8812830">
        <ele>41.3</ele>
        <time>2021-05-19T05:53:46Z</time>
      </trkpt>
      <trkpt lat="41.9264280" lon="-8.8812850">
        <ele>41.4</ele>
        <time>2021-05-19T05:53:47Z</time>
      </trkpt>
      <trkpt lat="41.9264370" lon="-8.8812860">
        <ele>41.4</ele>
        <time>2021-05-19T05:53:48Z</time>
      </trkpt>
      <trkpt lat="41.9264490" lon="-8.8812840">
        <ele>41.4</ele>
        <time>2021-05-19T05:53:49Z</time>
      </trkpt>
      <trkpt lat="41.9264620" lon="-8.8812800">
        <ele>41.4</ele>
        <time>2021-05-19T05:53:50Z</time>
      </trkpt>
      <trkpt lat="41.9264750" lon="-8.8812820">
        <ele>41.4</ele>
        <time>2021-05-19T05:53:51Z</time>
      </trkpt>
      <trkpt lat="41.9264920" lon="-8.8812850">
        <ele>41.5</ele>
        <time>2021-05-19T05:53:52Z</time>
      </trkpt>
      <trkpt lat="41.9265040" lon="-8.8812860">
        <ele>41.5</ele>
        <time>2021-05-19T05:53:53Z</time>
      </trkpt>
      <trkpt lat="41.9265120" lon="-8.8812900">
        <ele>41.5</ele>
        <time>2021-05-19T05:53:54Z</time>
      </trkpt>
      <trkpt lat="41.9265280" lon="-8.8812960">
        <ele>41.5</ele>
        <time>2021-05-19T05:53:55Z</time>
      </trkpt>
      <trkpt lat="41.9265420" lon="-8.8812970">
        <ele>41.5</ele>
        <time>2021-05-19T05:53:56Z</time>
      </trkpt>
      <trkpt lat="41.9265500" lon="-8.8812960">
        <ele>41.5</ele>
        <time>2021-05-19T05:53:57Z</time>
      </trkpt>
      <trkpt lat="41.9265550" lon="-8.8813040">
        <ele>41.5</ele>
        <time>2021-05-19T05:53:58Z</time>
      </trkpt>
      <trkpt lat="41.9265660" lon="-8.8813050">
        <ele>41.6</ele>
        <time>2021-05-19T05:53:59Z</time>
      </trkpt>
      <trkpt lat="41.9265720" lon="-8.8813040">
        <ele>41.6</ele>
        <time>2021-05-19T05:54:00Z</time>
      </trkpt>
      <trkpt lat="41.9265810" lon="-8.8813030">
        <ele>41.6</ele>
        <time>2021-05-19T05:54:01Z</time>
      </trkpt>
      <trkpt lat="41.9265860" lon="-8.8813020">
        <ele>41.6</ele>
        <time>2021-05-19T05:54:02Z</time>
      </trkpt>
      <trkpt lat="41.9265990" lon="-8.8813040">
        <ele>41.6</ele>
        <time>2021-05-19T05:54:03Z</time>
      </trkpt>
      <trkpt lat="41.9266080" lon="-8.8813030">
        <ele>41.6</ele>
        <time>2021-05-19T05:54:04Z</time>
      </trkpt>
      <trkpt lat="41.9266120" lon="-8.8813010">
        <ele>41.6</ele>
        <time>2021-05-19T05:54:05Z</time>
      </trkpt>
      <trkpt lat="41.9266090" lon="-8.8813010">
        <ele>41.6</ele>
        <time>2021-05-19T05:54:06Z</time>
      </trkpt>
      <trkpt lat="41.9266140" lon="-8.8813020">
        <ele>41.6</ele>
        <time>2021-05-19T05:54:07Z</time>
      </trkpt>
      <trkpt lat="41.9266180" lon="-8.8813020">
        <ele>41.6</ele>
        <time>2021-05-19T05:54:08Z</time>
      </trkpt>
      <trkpt lat="41.9266310" lon="-8.8813000">
        <ele>41.6</ele>
        <time>2021-05-19T05:54:09Z</time>
      </trkpt>
      <trkpt lat="41.9266440" lon="-8.8812910">
        <ele>41.7</ele>
        <time>2021-05-19T05:54:10Z</time>
      </trkpt>
      <trkpt lat="41.9266530" lon="-8.8813120">
        <ele>41.7</ele>
        <time>2021-05-19T05:54:11Z</time>
      </trkpt>
      <trkpt lat="41.9266600" lon="-8.8813180">
        <ele>41.7</ele>
        <time>2021-05-19T05:54:12Z</time>
      </trkpt>
      <trkpt lat="41.9266710" lon="-8.8813160">
        <ele>41.7</ele>
        <time>2021-05-19T05:54:13Z</time>
      </trkpt>
      <trkpt lat="41.9266870" lon="-8.8813050">
        <ele>41.7</ele>
        <time>2021-05-19T05:54:14Z</time>
      </trkpt>
      <trkpt lat="41.9266990" lon="-8.8813100">
        <ele>41.7</ele>
        <time>2021-05-19T05:54:15Z</time>
      </trkpt>
      <trkpt lat="41.9267260" lon="-8.8813170">
        <ele>41.8</ele>
        <time>2021-05-19T05:54:16Z</time>
      </trkpt>
      <trkpt lat="41.9267350" lon="-8.8813200">
        <ele>41.8</ele>
        <time>2021-05-19T05:54:17Z</time>
      </trkpt>
      <trkpt lat="41.9267450" lon="-8.8813240">
        <ele>41.8</ele>
        <time>2021-05-19T05:54:18Z</time>
      </trkpt>
      <trkpt lat="41.9267560" lon="-8.8813270">
        <ele>41.8</ele>
        <time>2021-05-19T05:54:19Z</time>
      </trkpt>
      <trkpt lat="41.9267630" lon="-8.8813150">
        <ele>41.8</ele>
        <time>2021-05-19T05:54:20Z</time>
      </trkpt>
      <trkpt lat="41.9267680" lon="-8.8813200">
        <ele>41.8</ele>
        <time>2021-05-19T05:54:21Z</time>
      </trkpt>
      <trkpt lat="41.9267810" lon="-8.8813290">
        <ele>41.8</ele>
        <time>2021-05-19T05:54:22Z</time>
      </trkpt>
      <trkpt lat="41.9267940" lon="-8.8813290">
        <ele>41.8</ele>
        <time>2021-05-19T05:54:23Z</time>
      </trkpt>
      <trkpt lat="41.9268090" lon="-8.8813290">
        <ele>41.9</ele>
        <time>2021-05-19T05:54:24Z</time>
      </trkpt>
      <trkpt lat="41.9268230" lon="-8.8813270">
        <ele>41.9</ele>
        <time>2021-05-19T05:54:25Z</time>
      </trkpt>
      <trkpt lat="41.9268410" lon="-8.8813290">
        <ele>41.9</ele>
        <time>2021-05-19T05:54:26Z</time>
      </trkpt>
      <trkpt lat="41.9268500" lon="-8.8813350">
        <ele>41.9</ele>
        <time>2021-05-19T05:54:27Z</time>
      </trkpt>
      <trkpt lat="41.9268630" lon="-8.8813330">
        <ele>41.9</ele>
        <time>2021-05-19T05:54:28Z</time>
      </trkpt>
      <trkpt lat="41.9268760" lon="-8.8813410">
        <ele>41.9</ele>
        <time>2021-05-19T05:54:29Z</time>
      </trkpt>
      <trkpt lat="41.9268870" lon="-8.8813450">
        <ele>41.9</ele>
        <time>2021-05-19T05:54:30Z</time>
      </trkpt>
      <trkpt lat="41.9268980" lon="-8.8813450">
        <ele>42.0</ele>
        <time>2021-05-19T05:54:31Z</time>
      </trkpt>
      <trkpt lat="41.9269100" lon="-8.8813420">
        <ele>42.0</ele>
        <time>2021-05-19T05:54:32Z</time>
      </trkpt>
      <trkpt lat="41.9269200" lon="-8.8813480">
        <ele>42.0</ele>
        <time>2021-05-19T05:54:33Z</time>
      </trkpt>
      <trkpt lat="41.9269300" lon="-8.8813420">
        <ele>42.0</ele>
        <time>2021-05-19T05:54:34Z</time>
      </trkpt>
      <trkpt lat="41.9269450" lon="-8.8813420">
        <ele>42.0</ele>
        <time>2021-05-19T05:54:35Z</time>
      </trkpt>
      <trkpt lat="41.9269610" lon="-8.8813480">
        <ele>42.0</ele>
        <time>2021-05-19T05:54:36Z</time>
      </trkpt>
      <trkpt lat="41.9269770" lon="-8.8813440">
        <ele>42.0</ele>
        <time>2021-05-19T05:54:37Z</time>
      </trkpt>
      <trkpt lat="41.9269880" lon="-8.8813450">
        <ele>42.1</ele>
        <time>2021-05-19T05:54:38Z</time>
      </trkpt>
      <trkpt lat="41.9270040" lon="-8.8813500">
        <ele>42.1</ele>
        <time>2021-05-19T05:54:39Z</time>
      </trkpt>
      <trkpt lat="41.9270110" lon="-8.8813550">
        <ele>42.1</ele>
        <time>2021-05-19T05:54:40Z</time>
      </trkpt>
      <trkpt lat="41.9270230" lon="-8.8813570">
        <ele>42.1</ele>
        <time>2021-05-19T05:54:41Z</time>
      </trkpt>
      <trkpt lat="41.9270310" lon="-8.8813550">
        <ele>42.1</ele>
        <time>2021-05-19T05:54:42Z</time>
      </trkpt>
      <trkpt lat="41.9270510" lon="-8.8813600">
        <ele>42.1</ele>
        <time>2021-05-19T05:54:43Z</time>
      </trkpt>
      <trkpt lat="41.9270590" lon="-8.8813640">
        <ele>42.1</ele>
        <time>2021-05-19T05:54:44Z</time>
      </trkpt>
      <trkpt lat="41.9270820" lon="-8.8813780">
        <ele>42.2</ele>
        <time>2021-05-19T05:54:45Z</time>
      </trkpt>
      <trkpt lat="41.9270920" lon="-8.8813720">
        <ele>42.2</ele>
        <time>2021-05-19T05:54:46Z</time>
      </trkpt>
      <trkpt lat="41.9271030" lon="-8.8813720">
        <ele>42.2</ele>
        <time>2021-05-19T05:54:47Z</time>
      </trkpt>
      <trkpt lat="41.9271200" lon="-8.8813750">
        <ele>42.2</ele>
        <time>2021-05-19T05:54:48Z</time>
      </trkpt>
      <trkpt lat="41.9271270" lon="-8.8813800">
        <ele>42.2</ele>
        <time>2021-05-19T05:54:49Z</time>
      </trkpt>
      <trkpt lat="41.9271390" lon="-8.8813830">
        <ele>42.2</ele>
        <time>2021-05-19T05:54:50Z</time>
      </trkpt>
      <trkpt lat="41.9271510" lon="-8.8813890">
        <ele>42.3</ele>
        <time>2021-05-19T05:54:51Z</time>
      </trkpt>
      <trkpt lat="41.9271580" lon="-8.8813860">
        <ele>42.3</ele>
        <time>2021-05-19T05:54:52Z</time>
      </trkpt>
      <trkpt lat="41.9271720" lon="-8.8813860">
        <ele>42.3</ele>
        <time>2021-05-19T05:54:53Z</time>
      </trkpt>
      <trkpt lat="41.9271840" lon="-8.8813840">
        <ele>42.3</ele>
        <time>2021-05-19T05:54:54Z</time>
      </trkpt>
      <trkpt lat="41.9271920" lon="-8.8813810">
        <ele>42.3</ele>
        <time>2021-05-19T05:54:55Z</time>
      </trkpt>
      <trkpt lat="41.9271970" lon="-8.8813820">
        <ele>42.3</ele>
        <time>2021-05-19T05:54:56Z</time>
      </trkpt>
      <trkpt lat="41.9272010" lon="-8.8813850">
        <ele>42.3</ele>
        <time>2021-05-19T05:54:57Z</time>
      </trkpt>
      <trkpt lat="41.9272160" lon="-8.8813880">
        <ele>42.3</ele>
        <time>2021-05-19T05:54:58Z</time>
      </trkpt>
      <trkpt lat="41.9272250" lon="-8.8813890">
        <ele>42.3</ele>
        <time>2021-05-19T05:54:59Z</time>
      </trkpt>
      <trkpt lat="41.9272340" lon="-8.8813970">
        <ele>42.4</ele>
        <time>2021-05-19T05:55:00Z</time>
      </trkpt>
      <trkpt lat="41.9272420" lon="-8.8813980">
        <ele>42.4</ele>
        <time>2021-05-19T05:55:01Z</time>
      </trkpt>
      <trkpt lat="41.9272740" lon="-8.8814050">
        <ele>42.4</ele>
        <time>2021-05-19T05:55:02Z</time>
      </trkpt>
      <trkpt lat="41.9272790" lon="-8.8814080">
        <ele>42.4</ele>
        <time>2021-05-19T05:55:03Z</time>
      </trkpt>
      <trkpt lat="41.9273000" lon="-8.8814150">
        <ele>42.4</ele>
        <time>2021-05-19T05:55:04Z</time>
      </trkpt>
      <trkpt lat="41.9273080" lon="-8.8814160">
        <ele>42.4</ele>
        <time>2021-05-19T05:55:05Z</time>
      </trkpt>
      <trkpt lat="41.9273170" lon="-8.8814180">
        <ele>42.4</ele>
        <time>2021-05-19T05:55:06Z</time>
      </trkpt>
      <trkpt lat="41.9273260" lon="-8.8814240">
        <ele>42.4</ele>
        <time>2021-05-19T05:55:07Z</time>
      </trkpt>
      <trkpt lat="41.9273420" lon="-8.8814310">
        <ele>42.4</ele>
        <time>2021-05-19T05:55:08Z</time>
      </trkpt>
      <trkpt lat="41.9273480" lon="-8.8814250">
        <ele>42.4</ele>
        <time>2021-05-19T05:55:09Z</time>
      </trkpt>
      <trkpt lat="41.9273560" lon="-8.8814300">
        <ele>42.4</ele>
        <time>2021-05-19T05:55:10Z</time>
      </trkpt>
      <trkpt lat="41.9273610" lon="-8.8814260">
        <ele>42.5</ele>
        <time>2021-05-19T05:55:11Z</time>
      </trkpt>
      <trkpt lat="41.9273790" lon="-8.8814280">
        <ele>42.5</ele>
        <time>2021-05-19T05:55:12Z</time>
      </trkpt>
      <trkpt lat="41.9273900" lon="-8.8814260">
        <ele>42.5</ele>
        <time>2021-05-19T05:55:13Z</time>
      </trkpt>
      <trkpt lat="41.9274100" lon="-8.8814280">
        <ele>42.5</ele>
        <time>2021-05-19T05:55:14Z</time>
      </trkpt>
      <trkpt lat="41.9274250" lon="-8.8814330">
        <ele>42.5</ele>
        <time>2021-05-19T05:55:15Z</time>
      </trkpt>
      <trkpt lat="41.9274440" lon="-8.8814300">
        <ele>42.5</ele>
        <time>2021-05-19T05:55:16Z</time>
      </trkpt>
      <trkpt lat="41.9274550" lon="-8.8814360">
        <ele>42.5</ele>
        <time>2021-05-19T05:55:17Z</time>
      </trkpt>
      <trkpt lat="41.9274710" lon="-8.8814420">
        <ele>42.5</ele>
        <time>2021-05-19T05:55:18Z</time>
      </trkpt>
      <trkpt lat="41.9274860" lon="-8.8814430">
        <ele>42.5</ele>
        <time>2021-05-19T05:55:19Z</time>
      </trkpt>
      <trkpt lat="41.9274940" lon="-8.8814470">
        <ele>42.6</ele>
        <time>2021-05-19T05:55:20Z</time>
      </trkpt>
      <trkpt lat="41.9275050" lon="-8.8814500">
        <ele>42.6</ele>
        <time>2021-05-19T05:55:21Z</time>
      </trkpt>
      <trkpt lat="41.9275270" lon="-8.8814510">
        <ele>42.6</ele>
        <time>2021-05-19T05:55:22Z</time>
      </trkpt>
      <trkpt lat="41.9275390" lon="-8.8814520">
        <ele>42.6</ele>
        <time>2021-05-19T05:55:23Z</time>
      </trkpt>
      <trkpt lat="41.9275500" lon="-8.8814540">
        <ele>42.6</ele>
        <time>2021-05-19T05:55:24Z</time>
      </trkpt>
      <trkpt lat="41.9275780" lon="-8.8814490">
        <ele>42.6</ele>
        <time>2021-05-19T05:55:25Z</time>
      </trkpt>
      <trkpt lat="41.9275870" lon="-8.8814440">
        <ele>42.6</ele>
        <time>2021-05-19T05:55:26Z</time>
      </trkpt>
      <trkpt lat="41.9276040" lon="-8.8814420">
        <ele>42.6</ele>
        <time>2021-05-19T05:55:27Z</time>
      </trkpt>
      <trkpt lat="41.9276190" lon="-8.8814460">
        <ele>42.6</ele>
        <time>2021-05-19T05:55:28Z</time>
      </trkpt>
      <trkpt lat="41.9276360" lon="-8.8814510">
        <ele>42.7</ele>
        <time>2021-05-19T05:55:29Z</time>
      </trkpt>
      <trkpt lat="41.9276490" lon="-8.8814560">
        <ele>42.7</ele>
        <time>2021-05-19T05:55:30Z</time>
      </trkpt>
      <trkpt lat="41.9276680" lon="-8.8814620">
        <ele>42.7</ele>
        <time>2021-05-19T05:55:31Z</time>
      </trkpt>
      <trkpt lat="41.9276780" lon="-8.8814640">
        <ele>42.7</ele>
        <time>2021-05-19T05:55:32Z</time>
      </trkpt>
      <trkpt lat="41.9276870" lon="-8.8814660">
        <ele>42.7</ele>
        <time>2021-05-19T05:55:33Z</time>
      </trkpt>
      <trkpt lat="41.9276980" lon="-8.8814640">
        <ele>42.7</ele>
        <time>2021-05-19T05:55:34Z</time>
      </trkpt>
      <trkpt lat="41.9277080" lon="-8.8814730">
        <ele>42.7</ele>
        <time>2021-05-19T05:55:35Z</time>
      </trkpt>
      <trkpt lat="41.9277170" lon="-8.8814740">
        <ele>42.7</ele>
        <time>2021-05-19T05:55:36Z</time>
      </trkpt>
      <trkpt lat="41.9277400" lon="-8.8814710">
        <ele>42.7</ele>
        <time>2021-05-19T05:55:37Z</time>
      </trkpt>
      <trkpt lat="41.9277470" lon="-8.8814670">
        <ele>42.7</ele>
        <time>2021-05-19T05:55:38Z</time>
      </trkpt>
      <trkpt lat="41.9277550" lon="-8.8814630">
        <ele>42.8</ele>
        <time>2021-05-19T05:55:39Z</time>
      </trkpt>
      <trkpt lat="41.9277740" lon="-8.8814580">
        <ele>42.8</ele>
        <time>2021-05-19T05:55:40Z</time>
      </trkpt>
      <trkpt lat="41.9277840" lon="-8.8814600">
        <ele>42.8</ele>
        <time>2021-05-19T05:55:41Z</time>
      </trkpt>
      <trkpt lat="41.9277930" lon="-8.8814610">
        <ele>42.8</ele>
        <time>2021-05-19T05:55:42Z</time>
      </trkpt>
      <trkpt lat="41.9278160" lon="-8.8814650">
        <ele>42.8</ele>
        <time>2021-05-19T05:55:43Z</time>
      </trkpt>
      <trkpt lat="41.9278240" lon="-8.8814680">
        <ele>42.8</ele>
        <time>2021-05-19T05:55:44Z</time>
      </trkpt>
      <trkpt lat="41.9278310" lon="-8.8814710">
        <ele>42.8</ele>
        <time>2021-05-19T05:55:45Z</time>
      </trkpt>
      <trkpt lat="41.9278440" lon="-8.8814790">
        <ele>42.8</ele>
        <time>2021-05-19T05:55:46Z</time>
      </trkpt>
      <trkpt lat="41.9278550" lon="-8.8814880">
        <ele>42.8</ele>
        <time>2021-05-19T05:55:47Z</time>
      </trkpt>
      <trkpt lat="41.9278650" lon="-8.8814920">
        <ele>42.8</ele>
        <time>2021-05-19T05:55:48Z</time>
      </trkpt>
      <trkpt lat="41.9278770" lon="-8.8814940">
        <ele>42.8</ele>
        <time>2021-05-19T05:55:49Z</time>
      </trkpt>
      <trkpt lat="41.9278900" lon="-8.8815000">
        <ele>42.9</ele>
        <time>2021-05-19T05:55:50Z</time>
      </trkpt>
      <trkpt lat="41.9279020" lon="-8.8815060">
        <ele>42.9</ele>
        <time>2021-05-19T05:55:51Z</time>
      </trkpt>
      <trkpt lat="41.9279140" lon="-8.8815100">
        <ele>42.9</ele>
        <time>2021-05-19T05:55:52Z</time>
      </trkpt>
      <trkpt lat="41.9279220" lon="-8.8815150">
        <ele>42.9</ele>
        <time>2021-05-19T05:55:53Z</time>
      </trkpt>
      <trkpt lat="41.9279270" lon="-8.8815120">
        <ele>42.9</ele>
        <time>2021-05-19T05:55:54Z</time>
      </trkpt>
      <trkpt lat="41.9279420" lon="-8.8815110">
        <ele>42.9</ele>
        <time>2021-05-19T05:55:55Z</time>
      </trkpt>
      <trkpt lat="41.9279520" lon="-8.8815130">
        <ele>42.9</ele>
        <time>2021-05-19T05:55:56Z</time>
      </trkpt>
      <trkpt lat="41.9279700" lon="-8.8815150">
        <ele>43.0</ele>
        <time>2021-05-19T05:55:57Z</time>
      </trkpt>
      <trkpt lat="41.9279800" lon="-8.8815170">
        <ele>43.0</ele>
        <time>2021-05-19T05:55:58Z</time>
      </trkpt>
      <trkpt lat="41.9279920" lon="-8.8815170">
        <ele>43.0</ele>
        <time>2021-05-19T05:55:59Z</time>
      </trkpt>
      <trkpt lat="41.9280100" lon="-8.8815130">
        <ele>43.0</ele>
        <time>2021-05-19T05:56:00Z</time>
      </trkpt>
      <trkpt lat="41.9280390" lon="-8.8815260">
        <ele>43.0</ele>
        <time>2021-05-19T05:56:01Z</time>
      </trkpt>
      <trkpt lat="41.9280500" lon="-8.8815250">
        <ele>43.1</ele>
        <time>2021-05-19T05:56:02Z</time>
      </trkpt>
      <trkpt lat="41.9280670" lon="-8.8815270">
        <ele>43.1</ele>
        <time>2021-05-19T05:56:03Z</time>
      </trkpt>
      <trkpt lat="41.9280790" lon="-8.8815210">
        <ele>43.1</ele>
        <time>2021-05-19T05:56:04Z</time>
      </trkpt>
      <trkpt lat="41.9280860" lon="-8.8815240">
        <ele>43.1</ele>
        <time>2021-05-19T05:56:05Z</time>
      </trkpt>
      <trkpt lat="41.9281070" lon="-8.8815300">
        <ele>43.1</ele>
        <time>2021-05-19T05:56:06Z</time>
      </trkpt>
      <trkpt lat="41.9281340" lon="-8.8815260">
        <ele>43.2</ele>
        <time>2021-05-19T05:56:07Z</time>
      </trkpt>
      <trkpt lat="41.9281460" lon="-8.8815290">
        <ele>43.2</ele>
        <time>2021-05-19T05:56:08Z</time>
      </trkpt>
      <trkpt lat="41.9281570" lon="-8.8815320">
        <ele>43.2</ele>
        <time>2021-05-19T05:56:09Z</time>
      </trkpt>
      <trkpt lat="41.9281610" lon="-8.8815300">
        <ele>43.2</ele>
        <time>2021-05-19T05:56:10Z</time>
      </trkpt>
      <trkpt lat="41.9281680" lon="-8.8815290">
        <ele>43.2</ele>
        <time>2021-05-19T05:56:11Z</time>
      </trkpt>
      <trkpt lat="41.9281810" lon="-8.8815250">
        <ele>43.2</ele>
        <time>2021-05-19T05:56:12Z</time>
      </trkpt>
      <trkpt lat="41.9281930" lon="-8.8815360">
        <ele>43.2</ele>
        <time>2021-05-19T05:56:13Z</time>
      </trkpt>
      <trkpt lat="41.9282080" lon="-8.8815360">
        <ele>43.2</ele>
        <time>2021-05-19T05:56:14Z</time>
      </trkpt>
      <trkpt lat="41.9282290" lon="-8.8815450">
        <ele>43.2</ele>
        <time>2021-05-19T05:56:15Z</time>
      </trkpt>
      <trkpt lat="41.9282440" lon="-8.8815390">
        <ele>43.2</ele>
        <time>2021-05-19T05:56:16Z</time>
      </trkpt>
      <trkpt lat="41.9282740" lon="-8.8815410">
        <ele>43.3</ele>
        <time>2021-05-19T05:56:17Z</time>
      </trkpt>
      <trkpt lat="41.9282840" lon="-8.8815440">
        <ele>43.3</ele>
        <time>2021-05-19T05:56:18Z</time>
      </trkpt>
      <trkpt lat="41.9283030" lon="-8.8815470">
        <ele>43.3</ele>
        <time>2021-05-19T05:56:19Z</time>
      </trkpt>
      <trkpt lat="41.9283130" lon="-8.8815480">
        <ele>43.3</ele>
        <time>2021-05-19T05:56:20Z</time>
      </trkpt>
      <trkpt lat="41.9283230" lon="-8.8815480">
        <ele>43.3</ele>
        <time>2021-05-19T05:56:21Z</time>
      </trkpt>
      <trkpt lat="41.9283270" lon="-8.8815490">
        <ele>43.3</ele>
        <time>2021-05-19T05:56:22Z</time>
      </trkpt>
      <trkpt lat="41.9283390" lon="-8.8815600">
        <ele>43.3</ele>
        <time>2021-05-19T05:56:23Z</time>
      </trkpt>
      <trkpt lat="41.9283540" lon="-8.8815590">
        <ele>43.3</ele>
        <time>2021-05-19T05:56:24Z</time>
      </trkpt>
      <trkpt lat="41.9283800" lon="-8.8815690">
        <ele>43.3</ele>
        <time>2021-05-19T05:56:25Z</time>
      </trkpt>
      <trkpt lat="41.9283910" lon="-8.8815730">
        <ele>43.4</ele>
        <time>2021-05-19T05:56:26Z</time>
      </trkpt>
      <trkpt lat="41.9284010" lon="-8.8815760">
        <ele>43.4</ele>
        <time>2021-05-19T05:56:27Z</time>
      </trkpt>
      <trkpt lat="41.9284170" lon="-8.8815760">
        <ele>43.4</ele>
        <time>2021-05-19T05:56:28Z</time>
      </trkpt>
      <trkpt lat="41.9284250" lon="-8.8815780">
        <ele>43.4</ele>
        <time>2021-05-19T05:56:29Z</time>
      </trkpt>
      <trkpt lat="41.9284320" lon="-8.8815810">
        <ele>43.4</ele>
        <time>2021-05-19T05:56:30Z</time>
      </trkpt>
      <trkpt lat="41.9284400" lon="-8.8815830">
        <ele>43.4</ele>
        <time>2021-05-19T05:56:31Z</time>
      </trkpt>
      <trkpt lat="41.9284610" lon="-8.8815780">
        <ele>43.4</ele>
        <time>2021-05-19T05:56:32Z</time>
      </trkpt>
      <trkpt lat="41.9284700" lon="-8.8815760">
        <ele>43.4</ele>
        <time>2021-05-19T05:56:33Z</time>
      </trkpt>
      <trkpt lat="41.9284780" lon="-8.8815750">
        <ele>43.4</ele>
        <time>2021-05-19T05:56:34Z</time>
      </trkpt>
      <trkpt lat="41.9285010" lon="-8.8815800">
        <ele>43.5</ele>
        <time>2021-05-19T05:56:35Z</time>
      </trkpt>
      <trkpt lat="41.9285070" lon="-8.8815790">
        <ele>43.5</ele>
        <time>2021-05-19T05:56:36Z</time>
      </trkpt>
      <trkpt lat="41.9285200" lon="-8.8815940">
        <ele>43.5</ele>
        <time>2021-05-19T05:56:37Z</time>
      </trkpt>
      <trkpt lat="41.9285280" lon="-8.8815960">
        <ele>43.5</ele>
        <time>2021-05-19T05:56:38Z</time>
      </trkpt>
      <trkpt lat="41.9285370" lon="-8.8815990">
        <ele>43.5</ele>
        <time>2021-05-19T05:56:39Z</time>
      </trkpt>
      <trkpt lat="41.9285450" lon="-8.8816010">
        <ele>43.5</ele>
        <time>2021-05-19T05:56:40Z</time>
      </trkpt>
      <trkpt lat="41.9285680" lon="-8.8816120">
        <ele>43.5</ele>
        <time>2021-05-19T05:56:41Z</time>
      </trkpt>
      <trkpt lat="41.9285750" lon="-8.8816120">
        <ele>43.5</ele>
        <time>2021-05-19T05:56:42Z</time>
      </trkpt>
      <trkpt lat="41.9285820" lon="-8.8816110">
        <ele>43.5</ele>
        <time>2021-05-19T05:56:43Z</time>
      </trkpt>
      <trkpt lat="41.9286030" lon="-8.8816110">
        <ele>43.6</ele>
        <time>2021-05-19T05:56:44Z</time>
      </trkpt>
      <trkpt lat="41.9286120" lon="-8.8816140">
        <ele>43.6</ele>
        <time>2021-05-19T05:56:45Z</time>
      </trkpt>
      <trkpt lat="41.9286200" lon="-8.8816160">
        <ele>43.6</ele>
        <time>2021-05-19T05:56:46Z</time>
      </trkpt>
      <trkpt lat="41.9286480" lon="-8.8816250">
        <ele>43.6</ele>
        <time>2021-05-19T05:56:47Z</time>
      </trkpt>
      <trkpt lat="41.9286570" lon="-8.8816290">
        <ele>43.6</ele>
        <time>2021-05-19T05:56:48Z</time>
      </trkpt>
      <trkpt lat="41.9286770" lon="-8.8816340">
        <ele>43.6</ele>
        <time>2021-05-19T05:56:49Z</time>
      </trkpt>
      <trkpt lat="41.9286870" lon="-8.8816360">
        <ele>43.7</ele>
        <time>2021-05-19T05:56:50Z</time>
      </trkpt>
      <trkpt lat="41.9286980" lon="-8.8816380">
        <ele>43.7</ele>
        <time>2021-05-19T05:56:51Z</time>
      </trkpt>
      <trkpt lat="41.9287040" lon="-8.8816390">
        <ele>43.7</ele>
        <time>2021-05-19T05:56:52Z</time>
      </trkpt>
      <trkpt lat="41.9287090" lon="-8.8816310">
        <ele>43.7</ele>
        <time>2021-05-19T05:56:53Z</time>
      </trkpt>
      <trkpt lat="41.9287320" lon="-8.8816390">
        <ele>43.7</ele>
        <time>2021-05-19T05:56:54Z</time>
      </trkpt>
      <trkpt lat="41.9287460" lon="-8.8816400">
        <ele>43.7</ele>
        <time>2021-05-19T05:56:55Z</time>
      </trkpt>
      <trkpt lat="41.9287630" lon="-8.8816510">
        <ele>43.7</ele>
        <time>2021-05-19T05:56:56Z</time>
      </trkpt>
      <trkpt lat="41.9287730" lon="-8.8816440">
        <ele>43.8</ele>
        <time>2021-05-19T05:56:57Z</time>
      </trkpt>
      <trkpt lat="41.9287900" lon="-8.8816410">
        <ele>43.8</ele>
        <time>2021-05-19T05:56:58Z</time>
      </trkpt>
      <trkpt lat="41.9287940" lon="-8.8816420">
        <ele>43.8</ele>
        <time>2021-05-19T05:56:59Z</time>
      </trkpt>
      <trkpt lat="41.9288110" lon="-8.8816420">
        <ele>43.8</ele>
        <time>2021-05-19T05:57:00Z</time>
      </trkpt>
      <trkpt lat="41.9288240" lon="-8.8816430">
        <ele>43.8</ele>
        <time>2021-05-19T05:57:01Z</time>
      </trkpt>
      <trkpt lat="41.9288320" lon="-8.8816460">
        <ele>43.8</ele>
        <time>2021-05-19T05:57:02Z</time>
      </trkpt>
      <trkpt lat="41.9288600" lon="-8.8816480">
        <ele>43.9</ele>
        <time>2021-05-19T05:57:03Z</time>
      </trkpt>
      <trkpt lat="41.9288730" lon="-8.8816520">
        <ele>43.9</ele>
        <time>2021-05-19T05:57:04Z</time>
      </trkpt>
      <trkpt lat="41.9288900" lon="-8.8816570">
        <ele>43.9</ele>
        <time>2021-05-19T05:57:05Z</time>
      </trkpt>
      <trkpt lat="41.9289040" lon="-8.8816570">
        <ele>43.9</ele>
        <time>2021-05-19T05:57:06Z</time>
      </trkpt>
      <trkpt lat="41.9289150" lon="-8.8816660">
        <ele>44.0</ele>
        <time>2021-05-19T05:57:07Z</time>
      </trkpt>
      <trkpt lat="41.9289210" lon="-8.8816690">
        <ele>44.0</ele>
        <time>2021-05-19T05:57:08Z</time>
      </trkpt>
      <trkpt lat="41.9289410" lon="-8.8816790">
        <ele>44.0</ele>
        <time>2021-05-19T05:57:09Z</time>
      </trkpt>
      <trkpt lat="41.9289520" lon="-8.8816810">
        <ele>44.0</ele>
        <time>2021-05-19T05:57:10Z</time>
      </trkpt>
      <trkpt lat="41.9289620" lon="-8.8816830">
        <ele>44.0</ele>
        <time>2021-05-19T05:57:11Z</time>
      </trkpt>
      <trkpt lat="41.9289810" lon="-8.8816810">
        <ele>44.0</ele>
        <time>2021-05-19T05:57:12Z</time>
      </trkpt>
      <trkpt lat="41.9289880" lon="-8.8816830">
        <ele>44.0</ele>
        <time>2021-05-19T05:57:13Z</time>
      </trkpt>
      <trkpt lat="41.9289960" lon="-8.8816860">
        <ele>44.0</ele>
        <time>2021-05-19T05:57:14Z</time>
      </trkpt>
      <trkpt lat="41.9290030" lon="-8.8816880">
        <ele>44.0</ele>
        <time>2021-05-19T05:57:15Z</time>
      </trkpt>
      <trkpt lat="41.9290230" lon="-8.8816910">
        <ele>44.0</ele>
        <time>2021-05-19T05:57:16Z</time>
      </trkpt>
      <trkpt lat="41.9290320" lon="-8.8816910">
        <ele>44.1</ele>
        <time>2021-05-19T05:57:17Z</time>
      </trkpt>
      <trkpt lat="41.9290420" lon="-8.8816910">
        <ele>44.1</ele>
        <time>2021-05-19T05:57:18Z</time>
      </trkpt>
      <trkpt lat="41.9290490" lon="-8.8816900">
        <ele>44.1</ele>
        <time>2021-05-19T05:57:19Z</time>
      </trkpt>
      <trkpt lat="41.9290640" lon="-8.8816930">
        <ele>44.1</ele>
        <time>2021-05-19T05:57:20Z</time>
      </trkpt>
      <trkpt lat="41.9290760" lon="-8.8816970">
        <ele>44.1</ele>
        <time>2021-05-19T05:57:21Z</time>
      </trkpt>
      <trkpt lat="41.9290870" lon="-8.8817020">
        <ele>44.1</ele>
        <time>2021-05-19T05:57:22Z</time>
      </trkpt>
      <trkpt lat="41.9291030" lon="-8.8817040">
        <ele>44.1</ele>
        <time>2021-05-19T05:57:23Z</time>
      </trkpt>
      <trkpt lat="41.9291260" lon="-8.8817080">
        <ele>44.1</ele>
        <time>2021-05-19T05:57:24Z</time>
      </trkpt>
      <trkpt lat="41.9291340" lon="-8.8817110">
        <ele>44.1</ele>
        <time>2021-05-19T05:57:25Z</time>
      </trkpt>
      <trkpt lat="41.9291430" lon="-8.8817150">
        <ele>44.2</ele>
        <time>2021-05-19T05:57:26Z</time>
      </trkpt>
      <trkpt lat="41.9291690" lon="-8.8817170">
        <ele>44.2</ele>
        <time>2021-05-19T05:57:27Z</time>
      </trkpt>
      <trkpt lat="41.9291830" lon="-8.8817180">
        <ele>44.2</ele>
        <time>2021-05-19T05:57:28Z</time>
      </trkpt>
      <trkpt lat="41.9291970" lon="-8.8817190">
        <ele>44.2</ele>
        <time>2021-05-19T05:57:29Z</time>
      </trkpt>
      <trkpt lat="41.9292110" lon="-8.8817200">
        <ele>44.2</ele>
        <time>2021-05-19T05:57:30Z</time>
      </trkpt>
      <trkpt lat="41.9292250" lon="-8.8817260">
        <ele>44.3</ele>
        <time>2021-05-19T05:57:31Z</time>
      </trkpt>
      <trkpt lat="41.9292480" lon="-8.8817260">
        <ele>44.3</ele>
        <time>2021-05-19T05:57:32Z</time>
      </trkpt>
      <trkpt lat="41.9292560" lon="-8.8817290">
        <ele>44.3</ele>
        <time>2021-05-19T05:57:33Z</time>
      </trkpt>
      <trkpt lat="41.9292650" lon="-8.8817320">
        <ele>44.3</ele>
        <time>2021-05-19T05:57:34Z</time>
      </trkpt>
      <trkpt lat="41.9292820" lon="-8.8817320">
        <ele>44.3</ele>
        <time>2021-05-19T05:57:35Z</time>
      </trkpt>
      <trkpt lat="41.9292980" lon="-8.8817340">
        <ele>44.4</ele>
        <time>2021-05-19T05:57:36Z</time>
      </trkpt>
      <trkpt lat="41.9293060" lon="-8.8817400">
        <ele>44.4</ele>
        <time>2021-05-19T05:57:37Z</time>
      </trkpt>
      <trkpt lat="41.9293140" lon="-8.8817470">
        <ele>44.4</ele>
        <time>2021-05-19T05:57:38Z</time>
      </trkpt>
      <trkpt lat="41.9293310" lon="-8.8817520">
        <ele>44.4</ele>
        <time>2021-05-19T05:57:39Z</time>
      </trkpt>
      <trkpt lat="41.9293400" lon="-8.8817480">
        <ele>44.4</ele>
        <time>2021-05-19T05:57:40Z</time>
      </trkpt>
      <trkpt lat="41.9293540" lon="-8.8817480">
        <ele>44.4</ele>
        <time>2021-05-19T05:57:41Z</time>
      </trkpt>
      <trkpt lat="41.9293620" lon="-8.8817510">
        <ele>44.5</ele>
        <time>2021-05-19T05:57:42Z</time>
      </trkpt>
      <trkpt lat="41.9293830" lon="-8.8817540">
        <ele>44.5</ele>
        <time>2021-05-19T05:57:43Z</time>
      </trkpt>
      <trkpt lat="41.9293960" lon="-8.8817570">
        <ele>44.5</ele>
        <time>2021-05-19T05:57:44Z</time>
      </trkpt>
      <trkpt lat="41.9294080" lon="-8.8817610">
        <ele>44.5</ele>
        <time>2021-05-19T05:57:45Z</time>
      </trkpt>
      <trkpt lat="41.9294190" lon="-8.8817670">
        <ele>44.5</ele>
        <time>2021-05-19T05:57:46Z</time>
      </trkpt>
      <trkpt lat="41.9294290" lon="-8.8817660">
        <ele>44.6</ele>
        <time>2021-05-19T05:57:47Z</time>
      </trkpt>
      <trkpt lat="41.9294370" lon="-8.8817620">
        <ele>44.6</ele>
        <time>2021-05-19T05:57:48Z</time>
      </trkpt>
      <trkpt lat="41.9294510" lon="-8.8817640">
        <ele>44.6</ele>
        <time>2021-05-19T05:57:49Z</time>
      </trkpt>
      <trkpt lat="41.9294650" lon="-8.8817630">
        <ele>44.6</ele>
        <time>2021-05-19T05:57:50Z</time>
      </trkpt>
      <trkpt lat="41.9294830" lon="-8.8817680">
        <ele>44.6</ele>
        <time>2021-05-19T05:57:51Z</time>
      </trkpt>
      <trkpt lat="41.9294950" lon="-8.8817720">
        <ele>44.6</ele>
        <time>2021-05-19T05:57:52Z</time>
      </trkpt>
      <trkpt lat="41.9295100" lon="-8.8817720">
        <ele>44.7</ele>
        <time>2021-05-19T05:57:53Z</time>
      </trkpt>
      <trkpt lat="41.9295240" lon="-8.8817700">
        <ele>44.7</ele>
        <time>2021-05-19T05:57:54Z</time>
      </trkpt>
      <trkpt lat="41.9295390" lon="-8.8817730">
        <ele>44.7</ele>
        <time>2021-05-19T05:57:55Z</time>
      </trkpt>
      <trkpt lat="41.9295500" lon="-8.8817740">
        <ele>44.7</ele>
        <time>2021-05-19T05:57:56Z</time>
      </trkpt>
      <trkpt lat="41.9295540" lon="-8.8817760">
        <ele>44.7</ele>
        <time>2021-05-19T05:57:57Z</time>
      </trkpt>
      <trkpt lat="41.9295750" lon="-8.8817760">
        <ele>44.7</ele>
        <time>2021-05-19T05:57:58Z</time>
      </trkpt>
      <trkpt lat="41.9295830" lon="-8.8817750">
        <ele>44.8</ele>
        <time>2021-05-19T05:57:59Z</time>
      </trkpt>
      <trkpt lat="41.9295910" lon="-8.8817750">
        <ele>44.8</ele>
        <time>2021-05-19T05:58:00Z</time>
      </trkpt>
      <trkpt lat="41.9296040" lon="-8.8817860">
        <ele>44.8</ele>
        <time>2021-05-19T05:58:01Z</time>
      </trkpt>
      <trkpt lat="41.9296190" lon="-8.8817810">
        <ele>44.8</ele>
        <time>2021-05-19T05:58:02Z</time>
      </trkpt>
      <trkpt lat="41.9296360" lon="-8.8817800">
        <ele>44.8</ele>
        <time>2021-05-19T05:58:03Z</time>
      </trkpt>
      <trkpt lat="41.9296510" lon="-8.8817770">
        <ele>44.8</ele>
        <time>2021-05-19T05:58:04Z</time>
      </trkpt>
      <trkpt lat="41.9296710" lon="-8.8817810">
        <ele>44.9</ele>
        <time>2021-05-19T05:58:05Z</time>
      </trkpt>
      <trkpt lat="41.9296810" lon="-8.8817830">
        <ele>44.9</ele>
        <time>2021-05-19T05:58:06Z</time>
      </trkpt>
      <trkpt lat="41.9296900" lon="-8.8817850">
        <ele>44.9</ele>
        <time>2021-05-19T05:58:07Z</time>
      </trkpt>
      <trkpt lat="41.9296960" lon="-8.8817910">
        <ele>44.9</ele>
        <time>2021-05-19T05:58:08Z</time>
      </trkpt>
      <trkpt lat="41.9297080" lon="-8.8817950">
        <ele>44.9</ele>
        <time>2021-05-19T05:58:09Z</time>
      </trkpt>
      <trkpt lat="41.9297230" lon="-8.8817960">
        <ele>44.9</ele>
        <time>2021-05-19T05:58:10Z</time>
      </trkpt>
      <trkpt lat="41.9297450" lon="-8.8818000">
        <ele>45.0</ele>
        <time>2021-05-19T05:58:11Z</time>
      </trkpt>
      <trkpt lat="41.9297570" lon="-8.8818010">
        <ele>45.0</ele>
        <time>2021-05-19T05:58:12Z</time>
      </trkpt>
      <trkpt lat="41.9297680" lon="-8.8818020">
        <ele>45.0</ele>
        <time>2021-05-19T05:58:13Z</time>
      </trkpt>
      <trkpt lat="41.9297730" lon="-8.8818070">
        <ele>45.0</ele>
        <time>2021-05-19T05:58:14Z</time>
      </trkpt>
      <trkpt lat="41.9297810" lon="-8.8818070">
        <ele>45.0</ele>
        <time>2021-05-19T05:58:15Z</time>
      </trkpt>
      <trkpt lat="41.9297950" lon="-8.8818080">
        <ele>45.0</ele>
        <time>2021-05-19T05:58:16Z</time>
      </trkpt>
      <trkpt lat="41.9298120" lon="-8.8818150">
        <ele>45.1</ele>
        <time>2021-05-19T05:58:17Z</time>
      </trkpt>
      <trkpt lat="41.9298290" lon="-8.8818150">
        <ele>45.1</ele>
        <time>2021-05-19T05:58:18Z</time>
      </trkpt>
      <trkpt lat="41.9298420" lon="-8.8818210">
        <ele>45.1</ele>
        <time>2021-05-19T05:58:19Z</time>
      </trkpt>
      <trkpt lat="41.9298520" lon="-8.8818220">
        <ele>45.1</ele>
        <time>2021-05-19T05:58:20Z</time>
      </trkpt>
      <trkpt lat="41.9298630" lon="-8.8818250">
        <ele>45.1</ele>
        <time>2021-05-19T05:58:21Z</time>
      </trkpt>
      <trkpt lat="41.9298750" lon="-8.8818270">
        <ele>45.2</ele>
        <time>2021-05-19T05:58:22Z</time>
      </trkpt>
      <trkpt lat="41.9298870" lon="-8.8818320">
        <ele>45.2</ele>
        <time>2021-05-19T05:58:23Z</time>
      </trkpt>
      <trkpt lat="41.9298960" lon="-8.8818310">
        <ele>45.2</ele>
        <time>2021-05-19T05:58:24Z</time>
      </trkpt>
      <trkpt lat="41.9299050" lon="-8.8818300">
        <ele>45.2</ele>
        <time>2021-05-19T05:58:25Z</time>
      </trkpt>
      <trkpt lat="41.9299240" lon="-8.8818370">
        <ele>45.2</ele>
        <time>2021-05-19T05:58:26Z</time>
      </trkpt>
      <trkpt lat="41.9299430" lon="-8.8818410">
        <ele>45.3</ele>
        <time>2021-05-19T05:58:27Z</time>
      </trkpt>
      <trkpt lat="41.9299490" lon="-8.8818460">
        <ele>45.3</ele>
        <time>2021-05-19T05:58:28Z</time>
      </trkpt>
      <trkpt lat="41.9299540" lon="-8.8818520">
        <ele>45.3</ele>
        <time>2021-05-19T05:58:29Z</time>
      </trkpt>
      <trkpt lat="41.9299600" lon="-8.8818580">
        <ele>45.3</ele>
        <time>2021-05-19T05:58:30Z</time>
      </trkpt>
      <trkpt lat="41.9299790" lon="-8.8818570">
        <ele>45.4</ele>
        <time>2021-05-19T05:58:31Z</time>
      </trkpt>
      <trkpt lat="41.9299950" lon="-8.8818580">
        <ele>45.4</ele>
        <time>2021-05-19T05:58:32Z</time>
      </trkpt>
      <trkpt lat="41.9300070" lon="-8.8818560">
        <ele>45.4</ele>
        <time>2021-05-19T05:58:33Z</time>
      </trkpt>
      <trkpt lat="41.9300090" lon="-8.8818610">
        <ele>45.4</ele>
        <time>2021-05-19T05:58:34Z</time>
      </trkpt>
      <trkpt lat="41.9300180" lon="-8.8818650">
        <ele>45.4</ele>
        <time>2021-05-19T05:58:35Z</time>
      </trkpt>
      <trkpt lat="41.9300310" lon="-8.8818640">
        <ele>45.5</ele>
        <time>2021-05-19T05:58:36Z</time>
      </trkpt>
      <trkpt lat="41.9300550" lon="-8.8818670">
        <ele>45.5</ele>
        <time>2021-05-19T05:58:37Z</time>
      </trkpt>
      <trkpt lat="41.9300680" lon="-8.8818690">
        <ele>45.5</ele>
        <time>2021-05-19T05:58:38Z</time>
      </trkpt>
      <trkpt lat="41.9300800" lon="-8.8818710">
        <ele>45.5</ele>
        <time>2021-05-19T05:58:39Z</time>
      </trkpt>
      <trkpt lat="41.9300990" lon="-8.8818790">
        <ele>45.6</ele>
        <time>2021-05-19T05:58:40Z</time>
      </trkpt>
      <trkpt lat="41.9301080" lon="-8.8818820">
        <ele>45.6</ele>
        <time>2021-05-19T05:58:41Z</time>
      </trkpt>
      <trkpt lat="41.9301160" lon="-8.8818850">
        <ele>45.6</ele>
        <time>2021-05-19T05:58:42Z</time>
      </trkpt>
      <trkpt lat="41.9301410" lon="-8.8818820">
        <ele>45.7</ele>
        <time>2021-05-19T05:58:43Z</time>
      </trkpt>
      <trkpt lat="41.9301490" lon="-8.8818800">
        <ele>45.7</ele>
        <time>2021-05-19T05:58:44Z</time>
      </trkpt>
      <trkpt lat="41.9301580" lon="-8.8818780">
        <ele>45.7</ele>
        <time>2021-05-19T05:58:45Z</time>
      </trkpt>
      <trkpt lat="41.9301610" lon="-8.8818840">
        <ele>45.7</ele>
        <time>2021-05-19T05:58:46Z</time>
      </trkpt>
      <trkpt lat="41.9301780" lon="-8.8818880">
        <ele>45.8</ele>
        <time>2021-05-19T05:58:47Z</time>
      </trkpt>
      <trkpt lat="41.9301850" lon="-8.8818910">
        <ele>45.8</ele>
        <time>2021-05-19T05:58:48Z</time>
      </trkpt>
      <trkpt lat="41.9302000" lon="-8.8818950">
        <ele>45.8</ele>
        <time>2021-05-19T05:58:49Z</time>
      </trkpt>
      <trkpt lat="41.9302140" lon="-8.8818960">
        <ele>45.8</ele>
        <time>2021-05-19T05:58:50Z</time>
      </trkpt>
      <trkpt lat="41.9302310" lon="-8.8819030">
        <ele>45.9</ele>
        <time>2021-05-19T05:58:51Z</time>
      </trkpt>
      <trkpt lat="41.9302420" lon="-8.8819040">
        <ele>45.9</ele>
        <time>2021-05-19T05:58:52Z</time>
      </trkpt>
      <trkpt lat="41.9302630" lon="-8.8819110">
        <ele>45.9</ele>
        <time>2021-05-19T05:58:53Z</time>
      </trkpt>
      <trkpt lat="41.9302710" lon="-8.8819160">
        <ele>46.0</ele>
        <time>2021-05-19T05:58:54Z</time>
      </trkpt>
      <trkpt lat="41.9302800" lon="-8.8819220">
        <ele>46.0</ele>
        <time>2021-05-19T05:58:55Z</time>
      </trkpt>
      <trkpt lat="41.9303050" lon="-8.8819250">
        <ele>46.0</ele>
        <time>2021-05-19T05:58:56Z</time>
      </trkpt>
      <trkpt lat="41.9303120" lon="-8.8819260">
        <ele>46.1</ele>
        <time>2021-05-19T05:58:57Z</time>
      </trkpt>
      <trkpt lat="41.9303200" lon="-8.8819260">
        <ele>46.1</ele>
        <time>2021-05-19T05:58:58Z</time>
      </trkpt>
      <trkpt lat="41.9303460" lon="-8.8819410">
        <ele>46.1</ele>
        <time>2021-05-19T05:58:59Z</time>
      </trkpt>
      <trkpt lat="41.9303560" lon="-8.8819430">
        <ele>46.1</ele>
        <time>2021-05-19T05:59:00Z</time>
      </trkpt>
      <trkpt lat="41.9303810" lon="-8.8819550">
        <ele>46.2</ele>
        <time>2021-05-19T05:59:01Z</time>
      </trkpt>
      <trkpt lat="41.9303910" lon="-8.8819590">
        <ele>46.2</ele>
        <time>2021-05-19T05:59:02Z</time>
      </trkpt>
      <trkpt lat="41.9304050" lon="-8.8819590">
        <ele>46.2</ele>
        <time>2021-05-19T05:59:03Z</time>
      </trkpt>
      <trkpt lat="41.9304210" lon="-8.8819650">
        <ele>46.3</ele>
        <time>2021-05-19T05:59:04Z</time>
      </trkpt>
      <trkpt lat="41.9304430" lon="-8.8819740">
        <ele>46.3</ele>
        <time>2021-05-19T05:59:05Z</time>
      </trkpt>
      <trkpt lat="41.9304510" lon="-8.8819780">
        <ele>46.3</ele>
        <time>2021-05-19T05:59:06Z</time>
      </trkpt>
      <trkpt lat="41.9304590" lon="-8.8819810">
        <ele>46.3</ele>
        <time>2021-05-19T05:59:07Z</time>
      </trkpt>
      <trkpt lat="41.9304720" lon="-8.8819880">
        <ele>46.3</ele>
        <time>2021-05-19T05:59:08Z</time>
      </trkpt>
      <trkpt lat="41.9304860" lon="-8.8819880">
        <ele>46.3</ele>
        <time>2021-05-19T05:59:09Z</time>
      </trkpt>
      <trkpt lat="41.9305040" lon="-8.8819900">
        <ele>46.3</ele>
        <time>2021-05-19T05:59:10Z</time>
      </trkpt>
      <trkpt lat="41.9305140" lon="-8.8819940">
        <ele>46.4</ele>
        <time>2021-05-19T05:59:11Z</time>
      </trkpt>
      <trkpt lat="41.9305230" lon="-8.8819980">
        <ele>46.4</ele>
        <time>2021-05-19T05:59:12Z</time>
      </trkpt>
      <trkpt lat="41.9305430" lon="-8.8820080">
        <ele>46.4</ele>
        <time>2021-05-19T05:59:13Z</time>
      </trkpt>
      <trkpt lat="41.9305530" lon="-8.8820150">
        <ele>46.4</ele>
        <time>2021-05-19T05:59:14Z</time>
      </trkpt>
      <trkpt lat="41.9305620" lon="-8.8820230">
        <ele>46.4</ele>
        <time>2021-05-19T05:59:15Z</time>
      </trkpt>
      <trkpt lat="41.9305720" lon="-8.8820320">
        <ele>46.4</ele>
        <time>2021-05-19T05:59:16Z</time>
      </trkpt>
      <trkpt lat="41.9305840" lon="-8.8820320">
        <ele>46.4</ele>
        <time>2021-05-19T05:59:17Z</time>
      </trkpt>
      <trkpt lat="41.9305960" lon="-8.8820330">
        <ele>46.4</ele>
        <time>2021-05-19T05:59:18Z</time>
      </trkpt>
      <trkpt lat="41.9306130" lon="-8.8820320">
        <ele>46.4</ele>
        <time>2021-05-19T05:59:19Z</time>
      </trkpt>
      <trkpt lat="41.9306240" lon="-8.8820430">
        <ele>46.5</ele>
        <time>2021-05-19T05:59:20Z</time>
      </trkpt>
      <trkpt lat="41.9306320" lon="-8.8820550">
        <ele>46.5</ele>
        <time>2021-05-19T05:59:21Z</time>
      </trkpt>
      <trkpt lat="41.9306500" lon="-8.8820570">
        <ele>46.5</ele>
        <time>2021-05-19T05:59:22Z</time>
      </trkpt>
      <trkpt lat="41.9306660" lon="-8.8820660">
        <ele>46.5</ele>
        <time>2021-05-19T05:59:23Z</time>
      </trkpt>
      <trkpt lat="41.9306800" lon="-8.8820630">
        <ele>46.5</ele>
        <time>2021-05-19T05:59:24Z</time>
      </trkpt>
      <trkpt lat="41.9306870" lon="-8.8820650">
        <ele>46.5</ele>
        <time>2021-05-19T05:59:25Z</time>
      </trkpt>
      <trkpt lat="41.9306970" lon="-8.8820700">
        <ele>46.5</ele>
        <time>2021-05-19T05:59:26Z</time>
      </trkpt>
      <trkpt lat="41.9307110" lon="-8.8820800">
        <ele>46.5</ele>
        <time>2021-05-19T05:59:27Z</time>
      </trkpt>
      <trkpt lat="41.9307290" lon="-8.8820890">
        <ele>46.5</ele>
        <time>2021-05-19T05:59:28Z</time>
      </trkpt>
      <trkpt lat="41.9307410" lon="-8.8820930">
        <ele>46.5</ele>
        <time>2021-05-19T05:59:29Z</time>
      </trkpt>
      <trkpt lat="41.9307540" lon="-8.8820970">
        <ele>46.5</ele>
        <time>2021-05-19T05:59:30Z</time>
      </trkpt>
      <trkpt lat="41.9307860" lon="-8.8821080">
        <ele>46.5</ele>
        <time>2021-05-19T05:59:31Z</time>
      </trkpt>
      <trkpt lat="41.9307920" lon="-8.8821060">
        <ele>46.6</ele>
        <time>2021-05-19T05:59:32Z</time>
      </trkpt>
      <trkpt lat="41.9308090" lon="-8.8821130">
        <ele>46.6</ele>
        <time>2021-05-19T05:59:33Z</time>
      </trkpt>
      <trkpt lat="41.9308190" lon="-8.8821170">
        <ele>46.6</ele>
        <time>2021-05-19T05:59:34Z</time>
      </trkpt>
      <trkpt lat="41.9308420" lon="-8.8821280">
        <ele>46.6</ele>
        <time>2021-05-19T05:59:35Z</time>
      </trkpt>
      <trkpt lat="41.9308510" lon="-8.8821300">
        <ele>46.6</ele>
        <time>2021-05-19T05:59:36Z</time>
      </trkpt>
      <trkpt lat="41.9308600" lon="-8.8821330">
        <ele>46.6</ele>
        <time>2021-05-19T05:59:37Z</time>
      </trkpt>
      <trkpt lat="41.9308720" lon="-8.8821410">
        <ele>46.6</ele>
        <time>2021-05-19T05:59:38Z</time>
      </trkpt>
      <trkpt lat="41.9308830" lon="-8.8821420">
        <ele>46.6</ele>
        <time>2021-05-19T05:59:39Z</time>
      </trkpt>
      <trkpt lat="41.9308890" lon="-8.8821570">
        <ele>46.6</ele>
        <time>2021-05-19T05:59:40Z</time>
      </trkpt>
      <trkpt lat="41.9309050" lon="-8.8821540">
        <ele>46.6</ele>
        <time>2021-05-19T05:59:41Z</time>
      </trkpt>
      <trkpt lat="41.9309170" lon="-8.8821620">
        <ele>46.6</ele>
        <time>2021-05-19T05:59:42Z</time>
      </trkpt>
      <trkpt lat="41.9309380" lon="-8.8821730">
        <ele>46.6</ele>
        <time>2021-05-19T05:59:43Z</time>
      </trkpt>
      <trkpt lat="41.9309450" lon="-8.8821760">
        <ele>46.6</ele>
        <time>2021-05-19T05:59:44Z</time>
      </trkpt>
      <trkpt lat="41.9309530" lon="-8.8821800">
        <ele>46.6</ele>
        <time>2021-05-19T05:59:45Z</time>
      </trkpt>
      <trkpt lat="41.9309720" lon="-8.8821900">
        <ele>46.7</ele>
        <time>2021-05-19T05:59:46Z</time>
      </trkpt>
      <trkpt lat="41.9309800" lon="-8.8821950">
        <ele>46.7</ele>
        <time>2021-05-19T05:59:47Z</time>
      </trkpt>
      <trkpt lat="41.9309870" lon="-8.8822010">
        <ele>46.7</ele>
        <time>2021-05-19T05:59:48Z</time>
      </trkpt>
      <trkpt lat="41.9310020" lon="-8.8822060">
        <ele>46.7</ele>
        <time>2021-05-19T05:59:49Z</time>
      </trkpt>
      <trkpt lat="41.9310080" lon="-8.8822090">
        <ele>46.7</ele>
        <time>2021-05-19T05:59:50Z</time>
      </trkpt>
      <trkpt lat="41.9310200" lon="-8.8822050">
        <ele>46.7</ele>
        <time>2021-05-19T05:59:51Z</time>
      </trkpt>
      <trkpt lat="41.9310450" lon="-8.8822160">
        <ele>46.7</ele>
        <time>2021-05-19T05:59:52Z</time>
      </trkpt>
      <trkpt lat="41.9310550" lon="-8.8822210">
        <ele>46.7</ele>
        <time>2021-05-19T05:59:53Z</time>
      </trkpt>
      <trkpt lat="41.9310680" lon="-8.8822300">
        <ele>46.7</ele>
        <time>2021-05-19T05:59:54Z</time>
      </trkpt>
      <trkpt lat="41.9310860" lon="-8.8822370">
        <ele>46.7</ele>
        <time>2021-05-19T05:59:55Z</time>
      </trkpt>
      <trkpt lat="41.9310970" lon="-8.8822420">
        <ele>46.7</ele>
        <time>2021-05-19T05:59:56Z</time>
      </trkpt>
      <trkpt lat="41.9311130" lon="-8.8822520">
        <ele>46.7</ele>
        <time>2021-05-19T05:59:57Z</time>
      </trkpt>
      <trkpt lat="41.9311240" lon="-8.8822570">
        <ele>46.7</ele>
        <time>2021-05-19T05:59:58Z</time>
      </trkpt>
      <trkpt lat="41.9311430" lon="-8.8822640">
        <ele>46.7</ele>
        <time>2021-05-19T05:59:59Z</time>
      </trkpt>
      <trkpt lat="41.9311510" lon="-8.8822770">
        <ele>46.7</ele>
        <time>2021-05-19T06:00:00Z</time>
      </trkpt>
      <trkpt lat="41.9311640" lon="-8.8822750">
        <ele>46.7</ele>
        <time>2021-05-19T06:00:01Z</time>
      </trkpt>
      <trkpt lat="41.9311690" lon="-8.8822850">
        <ele>46.7</ele>
        <time>2021-05-19T06:00:02Z</time>
      </trkpt>
      <trkpt lat="41.9311940" lon="-8.8823040">
        <ele>46.7</ele>
        <time>2021-05-19T06:00:03Z</time>
      </trkpt>
      <trkpt lat="41.9312050" lon="-8.8823080">
        <ele>46.7</ele>
        <time>2021-05-19T06:00:04Z</time>
      </trkpt>
      <trkpt lat="41.9312200" lon="-8.8823100">
        <ele>46.6</ele>
        <time>2021-05-19T06:00:05Z</time>
      </trkpt>
      <trkpt lat="41.9312280" lon="-8.8823140">
        <ele>46.6</ele>
        <time>2021-05-19T06:00:06Z</time>
      </trkpt>
      <trkpt lat="41.9312370" lon="-8.8823170">
        <ele>46.6</ele>
        <time>2021-05-19T06:00:07Z</time>
      </trkpt>
      <trkpt lat="41.9312450" lon="-8.8823210">
        <ele>46.6</ele>
        <time>2021-05-19T06:00:08Z</time>
      </trkpt>
      <trkpt lat="41.9312640" lon="-8.8823280">
        <ele>46.6</ele>
        <time>2021-05-19T06:00:09Z</time>
      </trkpt>
      <trkpt lat="41.9312750" lon="-8.8823350">
        <ele>46.6</ele>
        <time>2021-05-19T06:00:10Z</time>
      </trkpt>
      <trkpt lat="41.9312930" lon="-8.8823490">
        <ele>46.6</ele>
        <time>2021-05-19T06:00:11Z</time>
      </trkpt>
      <trkpt lat="41.9313020" lon="-8.8823530">
        <ele>46.6</ele>
        <time>2021-05-19T06:00:12Z</time>
      </trkpt>
      <trkpt lat="41.9313110" lon="-8.8823580">
        <ele>46.6</ele>
        <time>2021-05-19T06:00:13Z</time>
      </trkpt>
      <trkpt lat="41.9313360" lon="-8.8823680">
        <ele>46.6</ele>
        <time>2021-05-19T06:00:14Z</time>
      </trkpt>
      <trkpt lat="41.9313420" lon="-8.8823750">
        <ele>46.6</ele>
        <time>2021-05-19T06:00:15Z</time>
      </trkpt>
      <trkpt lat="41.9313480" lon="-8.8823810">
        <ele>46.6</ele>
        <time>2021-05-19T06:00:16Z</time>
      </trkpt>
      <trkpt lat="41.9313680" lon="-8.8823920">
        <ele>46.5</ele>
        <time>2021-05-19T06:00:17Z</time>
      </trkpt>
      <trkpt lat="41.9313790" lon="-8.8823940">
        <ele>46.5</ele>
        <time>2021-05-19T06:00:18Z</time>
      </trkpt>
      <trkpt lat="41.9313890" lon="-8.8823960">
        <ele>46.5</ele>
        <time>2021-05-19T06:00:19Z</time>
      </trkpt>
      <trkpt lat="41.9314050" lon="-8.8823980">
        <ele>46.5</ele>
        <time>2021-05-19T06:00:20Z</time>
      </trkpt>
      <trkpt lat="41.9314130" lon="-8.8824030">
        <ele>46.5</ele>
        <time>2021-05-19T06:00:21Z</time>
      </trkpt>
      <trkpt lat="41.9314180" lon="-8.8824080">
        <ele>46.5</ele>
        <time>2021-05-19T06:00:22Z</time>
      </trkpt>
      <trkpt lat="41.9314380" lon="-8.8824170">
        <ele>46.5</ele>
        <time>2021-05-19T06:00:23Z</time>
      </trkpt>
      <trkpt lat="41.9314450" lon="-8.8824220">
        <ele>46.5</ele>
        <time>2021-05-19T06:00:24Z</time>
      </trkpt>
      <trkpt lat="41.9314520" lon="-8.8824260">
        <ele>46.5</ele>
        <time>2021-05-19T06:00:25Z</time>
      </trkpt>
      <trkpt lat="41.9314680" lon="-8.8824350">
        <ele>46.5</ele>
        <time>2021-05-19T06:00:26Z</time>
      </trkpt>
      <trkpt lat="41.9314840" lon="-8.8824380">
        <ele>46.4</ele>
        <time>2021-05-19T06:00:27Z</time>
      </trkpt>
      <trkpt lat="41.9314990" lon="-8.8824420">
        <ele>46.4</ele>
        <time>2021-05-19T06:00:28Z</time>
      </trkpt>
      <trkpt lat="41.9315100" lon="-8.8824520">
        <ele>46.4</ele>
        <time>2021-05-19T06:00:29Z</time>
      </trkpt>
      <trkpt lat="41.9315270" lon="-8.8824570">
        <ele>46.4</ele>
        <time>2021-05-19T06:00:30Z</time>
      </trkpt>
      <trkpt lat="41.9315310" lon="-8.8824610">
        <ele>46.4</ele>
        <time>2021-05-19T06:00:31Z</time>
      </trkpt>
      <trkpt lat="41.9315410" lon="-8.8824610">
        <ele>46.4</ele>
        <time>2021-05-19T06:00:32Z</time>
      </trkpt>
      <trkpt lat="41.9315590" lon="-8.8824580">
        <ele>46.4</ele>
        <time>2021-05-19T06:00:33Z</time>
      </trkpt>
      <trkpt lat="41.9315670" lon="-8.8824780">
        <ele>46.3</ele>
        <time>2021-05-19T06:00:34Z</time>
      </trkpt>
      <trkpt lat="41.9315780" lon="-8.8824850">
        <ele>46.3</ele>
        <time>2021-05-19T06:00:35Z</time>
      </trkpt>
      <trkpt lat="41.9315970" lon="-8.8824950">
        <ele>46.3</ele>
        <time>2021-05-19T06:00:36Z</time>
      </trkpt>
      <trkpt lat="41.9316080" lon="-8.8825060">
        <ele>46.3</ele>
        <time>2021-05-19T06:00:37Z</time>
      </trkpt>
      <trkpt lat="41.9316170" lon="-8.8825010">
        <ele>46.3</ele>
        <time>2021-05-19T06:00:38Z</time>
      </trkpt>
      <trkpt lat="41.9316280" lon="-8.8825020">
        <ele>46.3</ele>
        <time>2021-05-19T06:00:39Z</time>
      </trkpt>
      <trkpt lat="41.9316430" lon="-8.8825090">
        <ele>46.3</ele>
        <time>2021-05-19T06:00:40Z</time>
      </trkpt>
      <trkpt lat="41.9316630" lon="-8.8825130">
        <ele>46.2</ele>
        <time>2021-05-19T06:00:41Z</time>
      </trkpt>
      <trkpt lat="41.9316810" lon="-8.8825190">
        <ele>46.2</ele>
        <time>2021-05-19T06:00:42Z</time>
      </trkpt>
      <trkpt lat="41.9316930" lon="-8.8825220">
        <ele>46.2</ele>
        <time>2021-05-19T06:00:43Z</time>
      </trkpt>
      <trkpt lat="41.9317040" lon="-8.8825250">
        <ele>46.2</ele>
        <time>2021-05-19T06:00:44Z</time>
      </trkpt>
      <trkpt lat="41.9317200" lon="-8.8825330">
        <ele>46.2</ele>
        <time>2021-05-19T06:00:45Z</time>
      </trkpt>
      <trkpt lat="41.9317360" lon="-8.8825400">
        <ele>46.2</ele>
        <time>2021-05-19T06:00:46Z</time>
      </trkpt>
      <trkpt lat="41.9317480" lon="-8.8825520">
        <ele>46.1</ele>
        <time>2021-05-19T06:00:47Z</time>
      </trkpt>
      <trkpt lat="41.9317610" lon="-8.8825620">
        <ele>46.1</ele>
        <time>2021-05-19T06:00:48Z</time>
      </trkpt>
      <trkpt lat="41.9317730" lon="-8.8825590">
        <ele>46.1</ele>
        <time>2021-05-19T06:00:49Z</time>
      </trkpt>
      <trkpt lat="41.9317770" lon="-8.8825640">
        <ele>46.1</ele>
        <time>2021-05-19T06:00:50Z</time>
      </trkpt>
      <trkpt lat="41.9317810" lon="-8.8825620">
        <ele>46.1</ele>
        <time>2021-05-19T06:00:51Z</time>
      </trkpt>
      <trkpt lat="41.9317960" lon="-8.8825700">
        <ele>46.1</ele>
        <time>2021-05-19T06:00:52Z</time>
      </trkpt>
      <trkpt lat="41.9318170" lon="-8.8825760">
        <ele>46.1</ele>
        <time>2021-05-19T06:00:53Z</time>
      </trkpt>
      <trkpt lat="41.9318300" lon="-8.8825860">
        <ele>46.1</ele>
        <time>2021-05-19T06:00:54Z</time>
      </trkpt>
      <trkpt lat="41.9318430" lon="-8.8825910">
        <ele>46.0</ele>
        <time>2021-05-19T06:00:55Z</time>
      </trkpt>
      <trkpt lat="41.9318530" lon="-8.8825970">
        <ele>46.0</ele>
        <time>2021-05-19T06:00:56Z</time>
      </trkpt>
      <trkpt lat="41.9318600" lon="-8.8826030">
        <ele>46.0</ele>
        <time>2021-05-19T06:00:57Z</time>
      </trkpt>
      <trkpt lat="41.9318810" lon="-8.8826140">
        <ele>46.0</ele>
        <time>2021-05-19T06:00:58Z</time>
      </trkpt>
      <trkpt lat="41.9318900" lon="-8.8826190">
        <ele>46.0</ele>
        <time>2021-05-19T06:00:59Z</time>
      </trkpt>
      <trkpt lat="41.9318990" lon="-8.8826250">
        <ele>46.0</ele>
        <time>2021-05-19T06:01:00Z</time>
      </trkpt>
      <trkpt lat="41.9319180" lon="-8.8826330">
        <ele>45.9</ele>
        <time>2021-05-19T06:01:01Z</time>
      </trkpt>
      <trkpt lat="41.9319330" lon="-8.8826420">
        <ele>45.9</ele>
        <time>2021-05-19T06:01:02Z</time>
      </trkpt>
      <trkpt lat="41.9319530" lon="-8.8826490">
        <ele>45.9</ele>
        <time>2021-05-19T06:01:03Z</time>
      </trkpt>
      <trkpt lat="41.9319620" lon="-8.8826530">
        <ele>45.9</ele>
        <time>2021-05-19T06:01:04Z</time>
      </trkpt>
      <trkpt lat="41.9319720" lon="-8.8826570">
        <ele>45.9</ele>
        <time>2021-05-19T06:01:05Z</time>
      </trkpt>
      <trkpt lat="41.9319910" lon="-8.8826640">
        <ele>45.8</ele>
        <time>2021-05-19T06:01:06Z</time>
      </trkpt>
      <trkpt lat="41.9320010" lon="-8.8826660">
        <ele>45.8</ele>
        <time>2021-05-19T06:01:07Z</time>
      </trkpt>
      <trkpt lat="41.9320160" lon="-8.8826780">
        <ele>45.8</ele>
        <time>2021-05-19T06:01:08Z</time>
      </trkpt>
      <trkpt lat="41.9320270" lon="-8.8826800">
        <ele>45.8</ele>
        <time>2021-05-19T06:01:09Z</time>
      </trkpt>
      <trkpt lat="41.9320440" lon="-8.8826810">
        <ele>45.7</ele>
        <time>2021-05-19T06:01:10Z</time>
      </trkpt>
      <trkpt lat="41.9320580" lon="-8.8826920">
        <ele>45.7</ele>
        <time>2021-05-19T06:01:11Z</time>
      </trkpt>
      <trkpt lat="41.9320710" lon="-8.8826980">
        <ele>45.7</ele>
        <time>2021-05-19T06:01:12Z</time>
      </trkpt>
      <trkpt lat="41.9320830" lon="-8.8827030">
        <ele>45.7</ele>
        <time>2021-05-19T06:01:13Z</time>
      </trkpt>
      <trkpt lat="41.9320860" lon="-8.8827170">
        <ele>45.7</ele>
        <time>2021-05-19T06:01:14Z</time>
      </trkpt>
      <trkpt lat="41.9321130" lon="-8.8827180">
        <ele>45.6</ele>
        <time>2021-05-19T06:01:15Z</time>
      </trkpt>
      <trkpt lat="41.9321240" lon="-8.8827190">
        <ele>45.6</ele>
        <time>2021-05-19T06:01:16Z</time>
      </trkpt>
      <trkpt lat="41.9321410" lon="-8.8827320">
        <ele>45.5</ele>
        <time>2021-05-19T06:01:17Z</time>
      </trkpt>
      <trkpt lat="41.9321520" lon="-8.8827360">
        <ele>45.5</ele>
        <time>2021-05-19T06:01:18Z</time>
      </trkpt>
      <trkpt lat="41.9321620" lon="-8.8827390">
        <ele>45.5</ele>
        <time>2021-05-19T06:01:19Z</time>
      </trkpt>
      <trkpt lat="41.9321810" lon="-8.8827550">
        <ele>45.5</ele>
        <time>2021-05-19T06:01:20Z</time>
      </trkpt>
      <trkpt lat="41.9321880" lon="-8.8827570">
        <ele>45.5</ele>
        <time>2021-05-19T06:01:21Z</time>
      </trkpt>
      <trkpt lat="41.9321960" lon="-8.8827600">
        <ele>45.4</ele>
        <time>2021-05-19T06:01:22Z</time>
      </trkpt>
      <trkpt lat="41.9321990" lon="-8.8827680">
        <ele>45.4</ele>
        <time>2021-05-19T06:01:23Z</time>
      </trkpt>
      <trkpt lat="41.9322100" lon="-8.8827710">
        <ele>45.4</ele>
        <time>2021-05-19T06:01:24Z</time>
      </trkpt>
      <trkpt lat="41.9322230" lon="-8.8827760">
        <ele>45.4</ele>
        <time>2021-05-19T06:01:25Z</time>
      </trkpt>
      <trkpt lat="41.9322410" lon="-8.8827820">
        <ele>45.4</ele>
        <time>2021-05-19T06:01:26Z</time>
      </trkpt>
      <trkpt lat="41.9322540" lon="-8.8827960">
        <ele>45.3</ele>
        <time>2021-05-19T06:01:27Z</time>
      </trkpt>
      <trkpt lat="41.9322760" lon="-8.8828050">
        <ele>45.3</ele>
        <time>2021-05-19T06:01:28Z</time>
      </trkpt>
      <trkpt lat="41.9322840" lon="-8.8828110">
        <ele>45.3</ele>
        <time>2021-05-19T06:01:29Z</time>
      </trkpt>
      <trkpt lat="41.9322930" lon="-8.8828160">
        <ele>45.3</ele>
        <time>2021-05-19T06:01:30Z</time>
      </trkpt>
      <trkpt lat="41.9323040" lon="-8.8828170">
        <ele>45.2</ele>
        <time>2021-05-19T06:01:31Z</time>
      </trkpt>
      <trkpt lat="41.9323220" lon="-8.8828210">
        <ele>45.2</ele>
        <time>2021-05-19T06:01:32Z</time>
      </trkpt>
      <trkpt lat="41.9323450" lon="-8.8828290">
        <ele>45.2</ele>
        <time>2021-05-19T06:01:33Z</time>
      </trkpt>
      <trkpt lat="41.9323550" lon="-8.8828300">
        <ele>45.2</ele>
        <time>2021-05-19T06:01:34Z</time>
      </trkpt>
      <trkpt lat="41.9323640" lon="-8.8828320">
        <ele>45.1</ele>
        <time>2021-05-19T06:01:35Z</time>
      </trkpt>
      <trkpt lat="41.9323890" lon="-8.8828520">
        <ele>45.1</ele>
        <time>2021-05-19T06:01:36Z</time>
      </trkpt>
      <trkpt lat="41.9323970" lon="-8.8828620">
        <ele>45.1</ele>
        <time>2021-05-19T06:01:37Z</time>
      </trkpt>
      <trkpt lat="41.9324090" lon="-8.8828650">
        <ele>45.1</ele>
        <time>2021-05-19T06:01:38Z</time>
      </trkpt>
      <trkpt lat="41.9324200" lon="-8.8828790">
        <ele>45.1</ele>
        <time>2021-05-19T06:01:39Z</time>
      </trkpt>
      <trkpt lat="41.9324380" lon="-8.8828870">
        <ele>45.0</ele>
        <time>2021-05-19T06:01:40Z</time>
      </trkpt>
      <trkpt lat="41.9324520" lon="-8.8828910">
        <ele>45.0</ele>
        <time>2021-05-19T06:01:41Z</time>
      </trkpt>
      <trkpt lat="41.9324630" lon="-8.8828990">
        <ele>45.0</ele>
        <time>2021-05-19T06:01:42Z</time>
      </trkpt>
      <trkpt lat="41.9324760" lon="-8.8829050">
        <ele>45.0</ele>
        <time>2021-05-19T06:01:43Z</time>
      </trkpt>
      <trkpt lat="41.9324810" lon="-8.8829080">
        <ele>45.0</ele>
        <time>2021-05-19T06:01:44Z</time>
      </trkpt>
      <trkpt lat="41.9325130" lon="-8.8829180">
        <ele>45.0</ele>
        <time>2021-05-19T06:01:45Z</time>
      </trkpt>
      <trkpt lat="41.9325200" lon="-8.8829250">
        <ele>45.0</ele>
        <time>2021-05-19T06:01:46Z</time>
      </trkpt>
      <trkpt lat="41.9325310" lon="-8.8829330">
        <ele>45.0</ele>
        <time>2021-05-19T06:01:47Z</time>
      </trkpt>
      <trkpt lat="41.9325400" lon="-8.8829410">
        <ele>45.0</ele>
        <time>2021-05-19T06:01:48Z</time>
      </trkpt>
      <trkpt lat="41.9325500" lon="-8.8829440">
        <ele>45.0</ele>
        <time>2021-05-19T06:01:49Z</time>
      </trkpt>
      <trkpt lat="41.9325640" lon="-8.8829490">
        <ele>45.0</ele>
        <time>2021-05-19T06:01:50Z</time>
      </trkpt>
      <trkpt lat="41.9325790" lon="-8.8829570">
        <ele>45.0</ele>
        <time>2021-05-19T06:01:51Z</time>
      </trkpt>
      <trkpt lat="41.9325920" lon="-8.8829570">
        <ele>45.0</ele>
        <time>2021-05-19T06:01:52Z</time>
      </trkpt>
      <trkpt lat="41.9326140" lon="-8.8829600">
        <ele>45.0</ele>
        <time>2021-05-19T06:01:53Z</time>
      </trkpt>
      <trkpt lat="41.9326280" lon="-8.8829690">
        <ele>45.0</ele>
        <time>2021-05-19T06:01:54Z</time>
      </trkpt>
      <trkpt lat="41.9326450" lon="-8.8829760">
        <ele>45.0</ele>
        <time>2021-05-19T06:01:55Z</time>
      </trkpt>
      <trkpt lat="41.9326580" lon="-8.8829800">
        <ele>45.0</ele>
        <time>2021-05-19T06:01:56Z</time>
      </trkpt>
      <trkpt lat="41.9326640" lon="-8.8829830">
        <ele>45.0</ele>
        <time>2021-05-19T06:01:57Z</time>
      </trkpt>
      <trkpt lat="41.9326760" lon="-8.8829880">
        <ele>45.0</ele>
        <time>2021-05-19T06:01:58Z</time>
      </trkpt>
      <trkpt lat="41.9326950" lon="-8.8829970">
        <ele>45.0</ele>
        <time>2021-05-19T06:01:59Z</time>
      </trkpt>
      <trkpt lat="41.9327070" lon="-8.8830000">
        <ele>45.0</ele>
        <time>2021-05-19T06:02:00Z</time>
      </trkpt>
      <trkpt lat="41.9327180" lon="-8.8830030">
        <ele>45.0</ele>
        <time>2021-05-19T06:02:01Z</time>
      </trkpt>
      <trkpt lat="41.9327390" lon="-8.8830130">
        <ele>45.0</ele>
        <time>2021-05-19T06:02:02Z</time>
      </trkpt>
      <trkpt lat="41.9327480" lon="-8.8830180">
        <ele>45.0</ele>
        <time>2021-05-19T06:02:03Z</time>
      </trkpt>
      <trkpt lat="41.9327560" lon="-8.8830220">
        <ele>45.0</ele>
        <time>2021-05-19T06:02:04Z</time>
      </trkpt>
      <trkpt lat="41.9327770" lon="-8.8830320">
        <ele>45.0</ele>
        <time>2021-05-19T06:02:05Z</time>
      </trkpt>
      <trkpt lat="41.9327840" lon="-8.8830360">
        <ele>45.0</ele>
        <time>2021-05-19T06:02:06Z</time>
      </trkpt>
      <trkpt lat="41.9327910" lon="-8.8830410">
        <ele>45.0</ele>
        <time>2021-05-19T06:02:07Z</time>
      </trkpt>
      <trkpt lat="41.9328010" lon="-8.8830480">
        <ele>45.0</ele>
        <time>2021-05-19T06:02:08Z</time>
      </trkpt>
      <trkpt lat="41.9328150" lon="-8.8830580">
        <ele>45.0</ele>
        <time>2021-05-19T06:02:09Z</time>
      </trkpt>
      <trkpt lat="41.9328330" lon="-8.8830640">
        <ele>45.0</ele>
        <time>2021-05-19T06:02:10Z</time>
      </trkpt>
      <trkpt lat="41.9328460" lon="-8.8830700">
        <ele>45.0</ele>
        <time>2021-05-19T06:02:11Z</time>
      </trkpt>
      <trkpt lat="41.9328570" lon="-8.8830710">
        <ele>45.1</ele>
        <time>2021-05-19T06:02:12Z</time>
      </trkpt>
      <trkpt lat="41.9328690" lon="-8.8830800">
        <ele>45.1</ele>
        <time>2021-05-19T06:02:13Z</time>
      </trkpt>
      <trkpt lat="41.9328810" lon="-8.8830720">
        <ele>45.1</ele>
        <time>2021-05-19T06:02:14Z</time>
      </trkpt>
      <trkpt lat="41.9328930" lon="-8.8830820">
        <ele>45.1</ele>
        <time>2021-05-19T06:02:15Z</time>
      </trkpt>
      <trkpt lat="41.9329060" lon="-8.8830910">
        <ele>45.1</ele>
        <time>2021-05-19T06:02:16Z</time>
      </trkpt>
      <trkpt lat="41.9329230" lon="-8.8831020">
        <ele>45.1</ele>
        <time>2021-05-19T06:02:17Z</time>
      </trkpt>
      <trkpt lat="41.9329330" lon="-8.8831040">
        <ele>45.1</ele>
        <time>2021-05-19T06:02:18Z</time>
      </trkpt>
      <trkpt lat="41.9329440" lon="-8.8831060">
        <ele>45.1</ele>
        <time>2021-05-19T06:02:19Z</time>
      </trkpt>
      <trkpt lat="41.9329610" lon="-8.8831170">
        <ele>45.2</ele>
        <time>2021-05-19T06:02:20Z</time>
      </trkpt>
      <trkpt lat="41.9329770" lon="-8.8831240">
        <ele>45.2</ele>
        <time>2021-05-19T06:02:21Z</time>
      </trkpt>
      <trkpt lat="41.9329930" lon="-8.8831420">
        <ele>45.2</ele>
        <time>2021-05-19T06:02:22Z</time>
      </trkpt>
      <trkpt lat="41.9330010" lon="-8.8831490">
        <ele>45.2</ele>
        <time>2021-05-19T06:02:23Z</time>
      </trkpt>
      <trkpt lat="41.9330080" lon="-8.8831570">
        <ele>45.2</ele>
        <time>2021-05-19T06:02:24Z</time>
      </trkpt>
      <trkpt lat="41.9330140" lon="-8.8831650">
        <ele>45.2</ele>
        <time>2021-05-19T06:02:25Z</time>
      </trkpt>
      <trkpt lat="41.9330290" lon="-8.8831700">
        <ele>45.2</ele>
        <time>2021-05-19T06:02:26Z</time>
      </trkpt>
      <trkpt lat="41.9330390" lon="-8.8831740">
        <ele>45.2</ele>
        <time>2021-05-19T06:02:27Z</time>
      </trkpt>
      <trkpt lat="41.9330510" lon="-8.8831820">
        <ele>45.2</ele>
        <time>2021-05-19T06:02:28Z</time>
      </trkpt>
      <trkpt lat="41.9330690" lon="-8.8831860">
        <ele>45.2</ele>
        <time>2021-05-19T06:02:29Z</time>
      </trkpt>
      <trkpt lat="41.9330920" lon="-8.8832000">
        <ele>45.3</ele>
        <time>2021-05-19T06:02:30Z</time>
      </trkpt>
      <trkpt lat="41.9331010" lon="-8.8831970">
        <ele>45.3</ele>
        <time>2021-05-19T06:02:31Z</time>
      </trkpt>
      <trkpt lat="41.9331250" lon="-8.8832020">
        <ele>45.3</ele>
        <time>2021-05-19T06:02:32Z</time>
      </trkpt>
      <trkpt lat="41.9331320" lon="-8.8832040">
        <ele>45.3</ele>
        <time>2021-05-19T06:02:33Z</time>
      </trkpt>
      <trkpt lat="41.9331400" lon="-8.8832060">
        <ele>45.3</ele>
        <time>2021-05-19T06:02:34Z</time>
      </trkpt>
      <trkpt lat="41.9331590" lon="-8.8832160">
        <ele>45.3</ele>
        <time>2021-05-19T06:02:35Z</time>
      </trkpt>
      <trkpt lat="41.9331640" lon="-8.8832210">
        <ele>45.3</ele>
        <time>2021-05-19T06:02:36Z</time>
      </trkpt>
      <trkpt lat="41.9331680" lon="-8.8832260">
        <ele>45.3</ele>
        <time>2021-05-19T06:02:37Z</time>
      </trkpt>
      <trkpt lat="41.9331720" lon="-8.8832310">
        <ele>45.3</ele>
        <time>2021-05-19T06:02:38Z</time>
      </trkpt>
      <trkpt lat="41.9331890" lon="-8.8832360">
        <ele>45.3</ele>
        <time>2021-05-19T06:02:39Z</time>
      </trkpt>
      <trkpt lat="41.9332030" lon="-8.8832430">
        <ele>45.3</ele>
        <time>2021-05-19T06:02:40Z</time>
      </trkpt>
      <trkpt lat="41.9332160" lon="-8.8832410">
        <ele>45.4</ele>
        <time>2021-05-19T06:02:41Z</time>
      </trkpt>
      <trkpt lat="41.9332350" lon="-8.8832450">
        <ele>45.4</ele>
        <time>2021-05-19T06:02:42Z</time>
      </trkpt>
      <trkpt lat="41.9332540" lon="-8.8832550">
        <ele>45.4</ele>
        <time>2021-05-19T06:02:43Z</time>
      </trkpt>
      <trkpt lat="41.9332660" lon="-8.8832640">
        <ele>45.4</ele>
        <time>2021-05-19T06:02:44Z</time>
      </trkpt>
      <trkpt lat="41.9332770" lon="-8.8832720">
        <ele>45.4</ele>
        <time>2021-05-19T06:02:45Z</time>
      </trkpt>
      <trkpt lat="41.9332930" lon="-8.8832810">
        <ele>45.4</ele>
        <time>2021-05-19T06:02:46Z</time>
      </trkpt>
      <trkpt lat="41.9333070" lon="-8.8832950">
        <ele>45.4</ele>
        <time>2021-05-19T06:02:47Z</time>
      </trkpt>
      <trkpt lat="41.9333130" lon="-8.8833020">
        <ele>45.4</ele>
        <time>2021-05-19T06:02:48Z</time>
      </trkpt>
      <trkpt lat="41.9333230" lon="-8.8833050">
        <ele>45.4</ele>
        <time>2021-05-19T06:02:49Z</time>
      </trkpt>
      <trkpt lat="41.9333370" lon="-8.8833110">
        <ele>45.4</ele>
        <time>2021-05-19T06:02:50Z</time>
      </trkpt>
      <trkpt lat="41.9333590" lon="-8.8833350">
        <ele>45.5</ele>
        <time>2021-05-19T06:02:51Z</time>
      </trkpt>
      <trkpt lat="41.9333680" lon="-8.8833410">
        <ele>45.5</ele>
        <time>2021-05-19T06:02:52Z</time>
      </trkpt>
      <trkpt lat="41.9333780" lon="-8.8833430">
        <ele>45.5</ele>
        <time>2021-05-19T06:02:53Z</time>
      </trkpt>
      <trkpt lat="41.9333950" lon="-8.8833490">
        <ele>45.5</ele>
        <time>2021-05-19T06:02:54Z</time>
      </trkpt>
      <trkpt lat="41.9334120" lon="-8.8833600">
        <ele>45.5</ele>
        <time>2021-05-19T06:02:55Z</time>
      </trkpt>
      <trkpt lat="41.9334230" lon="-8.8833710">
        <ele>45.5</ele>
        <time>2021-05-19T06:02:56Z</time>
      </trkpt>
      <trkpt lat="41.9334440" lon="-8.8833760">
        <ele>45.6</ele>
        <time>2021-05-19T06:02:57Z</time>
      </trkpt>
      <trkpt lat="41.9334560" lon="-8.8833820">
        <ele>45.6</ele>
        <time>2021-05-19T06:02:58Z</time>
      </trkpt>
      <trkpt lat="41.9334670" lon="-8.8833870">
        <ele>45.6</ele>
        <time>2021-05-19T06:02:59Z</time>
      </trkpt>
      <trkpt lat="41.9335000" lon="-8.8834010">
        <ele>45.6</ele>
        <time>2021-05-19T06:03:00Z</time>
      </trkpt>
      <trkpt lat="41.9335090" lon="-8.8834070">
        <ele>45.6</ele>
        <time>2021-05-19T06:03:01Z</time>
      </trkpt>
      <trkpt lat="41.9335230" lon="-8.8834150">
        <ele>45.6</ele>
        <time>2021-05-19T06:03:02Z</time>
      </trkpt>
      <trkpt lat="41.9335360" lon="-8.8834230">
        <ele>45.6</ele>
        <time>2021-05-19T06:03:03Z</time>
      </trkpt>
      <trkpt lat="41.9335490" lon="-8.8834330">
        <ele>45.7</ele>
        <time>2021-05-19T06:03:04Z</time>
      </trkpt>
      <trkpt lat="41.9335640" lon="-8.8834340">
        <ele>45.7</ele>
        <time>2021-05-19T06:03:05Z</time>
      </trkpt>
      <trkpt lat="41.9335830" lon="-8.8834420">
        <ele>45.7</ele>
        <time>2021-05-19T06:03:06Z</time>
      </trkpt>
      <trkpt lat="41.9335930" lon="-8.8834480">
        <ele>45.7</ele>
        <time>2021-05-19T06:03:07Z</time>
      </trkpt>
      <trkpt lat="41.9336020" lon="-8.8834530">
        <ele>45.7</ele>
        <time>2021-05-19T06:03:08Z</time>
      </trkpt>
      <trkpt lat="41.9336190" lon="-8.8834600">
        <ele>45.7</ele>
        <time>2021-05-19T06:03:09Z</time>
      </trkpt>
      <trkpt lat="41.9336260" lon="-8.8834670">
        <ele>45.7</ele>
        <time>2021-05-19T06:03:10Z</time>
      </trkpt>
      <trkpt lat="41.9336330" lon="-8.8834720">
        <ele>45.7</ele>
        <time>2021-05-19T06:03:11Z</time>
      </trkpt>
      <trkpt lat="41.9336590" lon="-8.8834710">
        <ele>45.8</ele>
        <time>2021-05-19T06:03:12Z</time>
      </trkpt>
      <trkpt lat="41.9336690" lon="-8.8834740">
        <ele>45.8</ele>
        <time>2021-05-19T06:03:13Z</time>
      </trkpt>
      <trkpt lat="41.9336890" lon="-8.8834860">
        <ele>45.8</ele>
        <time>2021-05-19T06:03:14Z</time>
      </trkpt>
      <trkpt lat="41.9336980" lon="-8.8834870">
        <ele>45.8</ele>
        <time>2021-05-19T06:03:15Z</time>
      </trkpt>
      <trkpt lat="41.9337180" lon="-8.8834930">
        <ele>45.8</ele>
        <time>2021-05-19T06:03:16Z</time>
      </trkpt>
      <trkpt lat="41.9337270" lon="-8.8834930">
        <ele>45.8</ele>
        <time>2021-05-19T06:03:17Z</time>
      </trkpt>
      <trkpt lat="41.9337360" lon="-8.8834940">
        <ele>45.8</ele>
        <time>2021-05-19T06:03:18Z</time>
      </trkpt>
      <trkpt lat="41.9337460" lon="-8.8835040">
        <ele>45.8</ele>
        <time>2021-05-19T06:03:19Z</time>
      </trkpt>
      <trkpt lat="41.9337510" lon="-8.8835040">
        <ele>45.8</ele>
        <time>2021-05-19T06:03:20Z</time>
      </trkpt>
      <trkpt lat="41.9337610" lon="-8.8835120">
        <ele>45.8</ele>
        <time>2021-05-19T06:03:21Z</time>
      </trkpt>
      <trkpt lat="41.9337680" lon="-8.8835080">
        <ele>45.9</ele>
        <time>2021-05-19T06:03:22Z</time>
      </trkpt>
      <trkpt lat="41.9337830" lon="-8.8835190">
        <ele>45.9</ele>
        <time>2021-05-19T06:03:23Z</time>
      </trkpt>
      <trkpt lat="41.9337930" lon="-8.8835190">
        <ele>45.9</ele>
        <time>2021-05-19T06:03:24Z</time>
      </trkpt>
      <trkpt lat="41.9338060" lon="-8.8835290">
        <ele>45.9</ele>
        <time>2021-05-19T06:03:25Z</time>
      </trkpt>
      <trkpt lat="41.9338180" lon="-8.8835380">
        <ele>45.9</ele>
        <time>2021-05-19T06:03:26Z</time>
      </trkpt>
      <trkpt lat="41.9338330" lon="-8.8835400">
        <ele>45.9</ele>
        <time>2021-05-19T06:03:27Z</time>
      </trkpt>
      <trkpt lat="41.9338440" lon="-8.8835430">
        <ele>45.9</ele>
        <time>2021-05-19T06:03:28Z</time>
      </trkpt>
      <trkpt lat="41.9338560" lon="-8.8835470">
        <ele>46.0</ele>
        <time>2021-05-19T06:03:29Z</time>
      </trkpt>
      <trkpt lat="41.9338780" lon="-8.8835450">
        <ele>46.0</ele>
        <time>2021-05-19T06:03:30Z</time>
      </trkpt>
      <trkpt lat="41.9338870" lon="-8.8835490">
        <ele>46.0</ele>
        <time>2021-05-19T06:03:31Z</time>
      </trkpt>
      <trkpt lat="41.9339010" lon="-8.8835540">
        <ele>46.0</ele>
        <time>2021-05-19T06:03:32Z</time>
      </trkpt>
      <trkpt lat="41.9339170" lon="-8.8835590">
        <ele>46.0</ele>
        <time>2021-05-19T06:03:33Z</time>
      </trkpt>
      <trkpt lat="41.9339290" lon="-8.8835720">
        <ele>46.0</ele>
        <time>2021-05-19T06:03:34Z</time>
      </trkpt>
      <trkpt lat="41.9339410" lon="-8.8835820">
        <ele>46.1</ele>
        <time>2021-05-19T06:03:35Z</time>
      </trkpt>
      <trkpt lat="41.9339600" lon="-8.8835970">
        <ele>46.1</ele>
        <time>2021-05-19T06:03:36Z</time>
      </trkpt>
      <trkpt lat="41.9339700" lon="-8.8836020">
        <ele>46.1</ele>
        <time>2021-05-19T06:03:37Z</time>
      </trkpt>
      <trkpt lat="41.9339790" lon="-8.8836080">
        <ele>46.1</ele>
        <time>2021-05-19T06:03:38Z</time>
      </trkpt>
      <trkpt lat="41.9339830" lon="-8.8836110">
        <ele>46.1</ele>
        <time>2021-05-19T06:03:39Z</time>
      </trkpt>
      <trkpt lat="41.9339940" lon="-8.8836200">
        <ele>46.1</ele>
        <time>2021-05-19T06:03:40Z</time>
      </trkpt>
      <trkpt lat="41.9340070" lon="-8.8836310">
        <ele>46.1</ele>
        <time>2021-05-19T06:03:41Z</time>
      </trkpt>
      <trkpt lat="41.9340260" lon="-8.8836380">
        <ele>46.2</ele>
        <time>2021-05-19T06:03:42Z</time>
      </trkpt>
      <trkpt lat="41.9340340" lon="-8.8836440">
        <ele>46.2</ele>
        <time>2021-05-19T06:03:43Z</time>
      </trkpt>
      <trkpt lat="41.9340410" lon="-8.8836490">
        <ele>46.2</ele>
        <time>2021-05-19T06:03:44Z</time>
      </trkpt>
      <trkpt lat="41.9340390" lon="-8.8836550">
        <ele>46.2</ele>
        <time>2021-05-19T06:03:45Z</time>
      </trkpt>
      <trkpt lat="41.9340570" lon="-8.8836540">
        <ele>46.2</ele>
        <time>2021-05-19T06:03:46Z</time>
      </trkpt>
      <trkpt lat="41.9340700" lon="-8.8836550">
        <ele>46.2</ele>
        <time>2021-05-19T06:03:47Z</time>
      </trkpt>
      <trkpt lat="41.9340970" lon="-8.8836630">
        <ele>46.3</ele>
        <time>2021-05-19T06:03:48Z</time>
      </trkpt>
      <trkpt lat="41.9341080" lon="-8.8836630">
        <ele>46.3</ele>
        <time>2021-05-19T06:03:49Z</time>
      </trkpt>
      <trkpt lat="41.9341170" lon="-8.8836640">
        <ele>46.3</ele>
        <time>2021-05-19T06:03:50Z</time>
      </trkpt>
      <trkpt lat="41.9341240" lon="-8.8836740">
        <ele>46.3</ele>
        <time>2021-05-19T06:03:51Z</time>
      </trkpt>
      <trkpt lat="41.9341370" lon="-8.8836770">
        <ele>46.3</ele>
        <time>2021-05-19T06:03:52Z</time>
      </trkpt>
      <trkpt lat="41.9341520" lon="-8.8836790">
        <ele>46.3</ele>
        <time>2021-05-19T06:03:53Z</time>
      </trkpt>
      <trkpt lat="41.9341640" lon="-8.8836860">
        <ele>46.3</ele>
        <time>2021-05-19T06:03:54Z</time>
      </trkpt>
      <trkpt lat="41.9341890" lon="-8.8837010">
        <ele>46.4</ele>
        <time>2021-05-19T06:03:55Z</time>
      </trkpt>
      <trkpt lat="41.9342040" lon="-8.8837050">
        <ele>46.4</ele>
        <time>2021-05-19T06:03:56Z</time>
      </trkpt>
      <trkpt lat="41.9342200" lon="-8.8837090">
        <ele>46.4</ele>
        <time>2021-05-19T06:03:57Z</time>
      </trkpt>
      <trkpt lat="41.9342340" lon="-8.8837140">
        <ele>46.4</ele>
        <time>2021-05-19T06:03:58Z</time>
      </trkpt>
      <trkpt lat="41.9342450" lon="-8.8837210">
        <ele>46.4</ele>
        <time>2021-05-19T06:03:59Z</time>
      </trkpt>
      <trkpt lat="41.9342630" lon="-8.8837280">
        <ele>46.4</ele>
        <time>2021-05-19T06:04:00Z</time>
      </trkpt>
      <trkpt lat="41.9342690" lon="-8.8837420">
        <ele>46.4</ele>
        <time>2021-05-19T06:04:01Z</time>
      </trkpt>
      <trkpt lat="41.9342870" lon="-8.8837500">
        <ele>46.4</ele>
        <time>2021-05-19T06:04:02Z</time>
      </trkpt>
      <trkpt lat="41.9343060" lon="-8.8837640">
        <ele>46.4</ele>
        <time>2021-05-19T06:04:03Z</time>
      </trkpt>
      <trkpt lat="41.9343140" lon="-8.8837660">
        <ele>46.4</ele>
        <time>2021-05-19T06:04:04Z</time>
      </trkpt>
      <trkpt lat="41.9343210" lon="-8.8837690">
        <ele>46.4</ele>
        <time>2021-05-19T06:04:05Z</time>
      </trkpt>
      <trkpt lat="41.9343470" lon="-8.8837770">
        <ele>46.4</ele>
        <time>2021-05-19T06:04:06Z</time>
      </trkpt>
      <trkpt lat="41.9343560" lon="-8.8837850">
        <ele>46.4</ele>
        <time>2021-05-19T06:04:07Z</time>
      </trkpt>
      <trkpt lat="41.9343640" lon="-8.8837930">
        <ele>46.5</ele>
        <time>2021-05-19T06:04:08Z</time>
      </trkpt>
      <trkpt lat="41.9343780" lon="-8.8837960">
        <ele>46.5</ele>
        <time>2021-05-19T06:04:09Z</time>
      </trkpt>
      <trkpt lat="41.9343940" lon="-8.8838020">
        <ele>46.5</ele>
        <time>2021-05-19T06:04:10Z</time>
      </trkpt>
      <trkpt lat="41.9344110" lon="-8.8838210">
        <ele>46.5</ele>
        <time>2021-05-19T06:04:11Z</time>
      </trkpt>
      <trkpt lat="41.9344180" lon="-8.8838260">
        <ele>46.5</ele>
        <time>2021-05-19T06:04:12Z</time>
      </trkpt>
      <trkpt lat="41.9344260" lon="-8.8838300">
        <ele>46.5</ele>
        <time>2021-05-19T06:04:13Z</time>
      </trkpt>
      <trkpt lat="41.9344500" lon="-8.8838350">
        <ele>46.5</ele>
        <time>2021-05-19T06:04:14Z</time>
      </trkpt>
      <trkpt lat="41.9344600" lon="-8.8838390">
        <ele>46.5</ele>
        <time>2021-05-19T06:04:15Z</time>
      </trkpt>
      <trkpt lat="41.9344700" lon="-8.8838420">
        <ele>46.5</ele>
        <time>2021-05-19T06:04:16Z</time>
      </trkpt>
      <trkpt lat="41.9344880" lon="-8.8838580">
        <ele>46.6</ele>
        <time>2021-05-19T06:04:17Z</time>
      </trkpt>
      <trkpt lat="41.9344970" lon="-8.8838630">
        <ele>46.6</ele>
        <time>2021-05-19T06:04:18Z</time>
      </trkpt>
      <trkpt lat="41.9345050" lon="-8.8838690">
        <ele>46.6</ele>
        <time>2021-05-19T06:04:19Z</time>
      </trkpt>
      <trkpt lat="41.9345230" lon="-8.8838730">
        <ele>46.6</ele>
        <time>2021-05-19T06:04:20Z</time>
      </trkpt>
      <trkpt lat="41.9345320" lon="-8.8838770">
        <ele>46.6</ele>
        <time>2021-05-19T06:04:21Z</time>
      </trkpt>
      <trkpt lat="41.9345410" lon="-8.8838800">
        <ele>46.6</ele>
        <time>2021-05-19T06:04:22Z</time>
      </trkpt>
      <trkpt lat="41.9345510" lon="-8.8838860">
        <ele>46.6</ele>
        <time>2021-05-19T06:04:23Z</time>
      </trkpt>
      <trkpt lat="41.9345600" lon="-8.8838920">
        <ele>46.6</ele>
        <time>2021-05-19T06:04:24Z</time>
      </trkpt>
      <trkpt lat="41.9345690" lon="-8.8838930">
        <ele>46.6</ele>
        <time>2021-05-19T06:04:25Z</time>
      </trkpt>
      <trkpt lat="41.9345830" lon="-8.8838990">
        <ele>46.6</ele>
        <time>2021-05-19T06:04:26Z</time>
      </trkpt>
      <trkpt lat="41.9346000" lon="-8.8839120">
        <ele>46.6</ele>
        <time>2021-05-19T06:04:27Z</time>
      </trkpt>
      <trkpt lat="41.9346110" lon="-8.8839250">
        <ele>46.6</ele>
        <time>2021-05-19T06:04:28Z</time>
      </trkpt>
      <trkpt lat="41.9346250" lon="-8.8839390">
        <ele>46.7</ele>
        <time>2021-05-19T06:04:29Z</time>
      </trkpt>
      <trkpt lat="41.9346460" lon="-8.8839360">
        <ele>46.7</ele>
        <time>2021-05-19T06:04:30Z</time>
      </trkpt>
      <trkpt lat="41.9346580" lon="-8.8839380">
        <ele>46.7</ele>
        <time>2021-05-19T06:04:31Z</time>
      </trkpt>
      <trkpt lat="41.9346690" lon="-8.8839400">
        <ele>46.7</ele>
        <time>2021-05-19T06:04:32Z</time>
      </trkpt>
      <trkpt lat="41.9346850" lon="-8.8839460">
        <ele>46.7</ele>
        <time>2021-05-19T06:04:33Z</time>
      </trkpt>
      <trkpt lat="41.9346950" lon="-8.8839620">
        <ele>46.7</ele>
        <time>2021-05-19T06:04:34Z</time>
      </trkpt>
      <trkpt lat="41.9347140" lon="-8.8839680">
        <ele>46.7</ele>
        <time>2021-05-19T06:04:35Z</time>
      </trkpt>
      <trkpt lat="41.9347240" lon="-8.8839750">
        <ele>46.7</ele>
        <time>2021-05-19T06:04:36Z</time>
      </trkpt>
      <trkpt lat="41.9347340" lon="-8.8839810">
        <ele>46.7</ele>
        <time>2021-05-19T06:04:37Z</time>
      </trkpt>
      <trkpt lat="41.9347540" lon="-8.8839960">
        <ele>46.8</ele>
        <time>2021-05-19T06:04:38Z</time>
      </trkpt>
      <trkpt lat="41.9347620" lon="-8.8839980">
        <ele>46.8</ele>
        <time>2021-05-19T06:04:39Z</time>
      </trkpt>
      <trkpt lat="41.9347690" lon="-8.8840010">
        <ele>46.8</ele>
        <time>2021-05-19T06:04:40Z</time>
      </trkpt>
      <trkpt lat="41.9347820" lon="-8.8840040">
        <ele>46.8</ele>
        <time>2021-05-19T06:04:41Z</time>
      </trkpt>
      <trkpt lat="41.9347980" lon="-8.8840130">
        <ele>46.8</ele>
        <time>2021-05-19T06:04:42Z</time>
      </trkpt>
      <trkpt lat="41.9348130" lon="-8.8840220">
        <ele>46.8</ele>
        <time>2021-05-19T06:04:43Z</time>
      </trkpt>
      <trkpt lat="41.9348230" lon="-8.8840280">
        <ele>46.8</ele>
        <time>2021-05-19T06:04:44Z</time>
      </trkpt>
      <trkpt lat="41.9348310" lon="-8.8840280">
        <ele>46.9</ele>
        <time>2021-05-19T06:04:45Z</time>
      </trkpt>
      <trkpt lat="41.9348480" lon="-8.8840350">
        <ele>46.9</ele>
        <time>2021-05-19T06:04:46Z</time>
      </trkpt>
      <trkpt lat="41.9348560" lon="-8.8840360">
        <ele>46.9</ele>
        <time>2021-05-19T06:04:47Z</time>
      </trkpt>
      <trkpt lat="41.9348720" lon="-8.8840430">
        <ele>46.9</ele>
        <time>2021-05-19T06:04:48Z</time>
      </trkpt>
      <trkpt lat="41.9348870" lon="-8.8840560">
        <ele>46.9</ele>
        <time>2021-05-19T06:04:49Z</time>
      </trkpt>
      <trkpt lat="41.9348990" lon="-8.8840590">
        <ele>46.9</ele>
        <time>2021-05-19T06:04:50Z</time>
      </trkpt>
      <trkpt lat="41.9349130" lon="-8.8840770">
        <ele>46.9</ele>
        <time>2021-05-19T06:04:51Z</time>
      </trkpt>
      <trkpt lat="41.9349200" lon="-8.8840720">
        <ele>46.9</ele>
        <time>2021-05-19T06:04:52Z</time>
      </trkpt>
      <trkpt lat="41.9349330" lon="-8.8840760">
        <ele>47.0</ele>
        <time>2021-05-19T06:04:53Z</time>
      </trkpt>
      <trkpt lat="41.9349480" lon="-8.8840810">
        <ele>47.0</ele>
        <time>2021-05-19T06:04:54Z</time>
      </trkpt>
      <trkpt lat="41.9349620" lon="-8.8840820">
        <ele>47.0</ele>
        <time>2021-05-19T06:04:55Z</time>
      </trkpt>
      <trkpt lat="41.9349770" lon="-8.8840890">
        <ele>47.0</ele>
        <time>2021-05-19T06:04:56Z</time>
      </trkpt>
      <trkpt lat="41.9349920" lon="-8.8840960">
        <ele>47.0</ele>
        <time>2021-05-19T06:04:57Z</time>
      </trkpt>
      <trkpt lat="41.9350080" lon="-8.8840960">
        <ele>47.0</ele>
        <time>2021-05-19T06:04:58Z</time>
      </trkpt>
      <trkpt lat="41.9350270" lon="-8.8841080">
        <ele>47.0</ele>
        <time>2021-05-19T06:04:59Z</time>
      </trkpt>
      <trkpt lat="41.9350360" lon="-8.8841120">
        <ele>47.0</ele>
        <time>2021-05-19T06:05:00Z</time>
      </trkpt>
      <trkpt lat="41.9350440" lon="-8.8841170">
        <ele>47.0</ele>
        <time>2021-05-19T06:05:01Z</time>
      </trkpt>
      <trkpt lat="41.9350570" lon="-8.8841260">
        <ele>47.1</ele>
        <time>2021-05-19T06:05:02Z</time>
      </trkpt>
      <trkpt lat="41.9350610" lon="-8.8841340">
        <ele>47.1</ele>
        <time>2021-05-19T06:05:03Z</time>
      </trkpt>
      <trkpt lat="41.9350690" lon="-8.8841440">
        <ele>47.1</ele>
        <time>2021-05-19T06:05:04Z</time>
      </trkpt>
      <trkpt lat="41.9350870" lon="-8.8841550">
        <ele>47.1</ele>
        <time>2021-05-19T06:05:05Z</time>
      </trkpt>
      <trkpt lat="41.9350960" lon="-8.8841580">
        <ele>47.1</ele>
        <time>2021-05-19T06:05:06Z</time>
      </trkpt>
      <trkpt lat="41.9351040" lon="-8.8841620">
        <ele>47.1</ele>
        <time>2021-05-19T06:05:07Z</time>
      </trkpt>
      <trkpt lat="41.9351150" lon="-8.8841760">
        <ele>47.1</ele>
        <time>2021-05-19T06:05:08Z</time>
      </trkpt>
      <trkpt lat="41.9351310" lon="-8.8841840">
        <ele>47.1</ele>
        <time>2021-05-19T06:05:09Z</time>
      </trkpt>
      <trkpt lat="41.9351520" lon="-8.8841850">
        <ele>47.1</ele>
        <time>2021-05-19T06:05:10Z</time>
      </trkpt>
      <trkpt lat="41.9351620" lon="-8.8841880">
        <ele>47.1</ele>
        <time>2021-05-19T06:05:11Z</time>
      </trkpt>
      <trkpt lat="41.9351720" lon="-8.8841900">
        <ele>47.1</ele>
        <time>2021-05-19T06:05:12Z</time>
      </trkpt>
      <trkpt lat="41.9351900" lon="-8.8842000">
        <ele>47.2</ele>
        <time>2021-05-19T06:05:13Z</time>
      </trkpt>
      <trkpt lat="41.9352010" lon="-8.8842050">
        <ele>47.2</ele>
        <time>2021-05-19T06:05:14Z</time>
      </trkpt>
      <trkpt lat="41.9352120" lon="-8.8842090">
        <ele>47.2</ele>
        <time>2021-05-19T06:05:15Z</time>
      </trkpt>
      <trkpt lat="41.9352240" lon="-8.8842170">
        <ele>47.2</ele>
        <time>2021-05-19T06:05:16Z</time>
      </trkpt>
      <trkpt lat="41.9352420" lon="-8.8842310">
        <ele>47.2</ele>
        <time>2021-05-19T06:05:17Z</time>
      </trkpt>
      <trkpt lat="41.9352550" lon="-8.8842330">
        <ele>47.2</ele>
        <time>2021-05-19T06:05:18Z</time>
      </trkpt>
      <trkpt lat="41.9352710" lon="-8.8842340">
        <ele>47.2</ele>
        <time>2021-05-19T06:05:19Z</time>
      </trkpt>
      <trkpt lat="41.9352890" lon="-8.8842380">
        <ele>47.2</ele>
        <time>2021-05-19T06:05:20Z</time>
      </trkpt>
      <trkpt lat="41.9352950" lon="-8.8842490">
        <ele>47.2</ele>
        <time>2021-05-19T06:05:21Z</time>
      </trkpt>
      <trkpt lat="41.9353060" lon="-8.8842550">
        <ele>47.2</ele>
        <time>2021-05-19T06:05:22Z</time>
      </trkpt>
      <trkpt lat="41.9353140" lon="-8.8842490">
        <ele>47.2</ele>
        <time>2021-05-19T06:05:23Z</time>
      </trkpt>
      <trkpt lat="41.9353250" lon="-8.8842590">
        <ele>47.2</ele>
        <time>2021-05-19T06:05:24Z</time>
      </trkpt>
      <trkpt lat="41.9353350" lon="-8.8842650">
        <ele>47.2</ele>
        <time>2021-05-19T06:05:25Z</time>
      </trkpt>
      <trkpt lat="41.9353530" lon="-8.8842750">
        <ele>47.2</ele>
        <time>2021-05-19T06:05:26Z</time>
      </trkpt>
      <trkpt lat="41.9353690" lon="-8.8842850">
        <ele>47.2</ele>
        <time>2021-05-19T06:05:27Z</time>
      </trkpt>
      <trkpt lat="41.9353790" lon="-8.8842850">
        <ele>47.2</ele>
        <time>2021-05-19T06:05:28Z</time>
      </trkpt>
      <trkpt lat="41.9353860" lon="-8.8842860">
        <ele>47.2</ele>
        <time>2021-05-19T06:05:29Z</time>
      </trkpt>
      <trkpt lat="41.9353980" lon="-8.8842880">
        <ele>47.2</ele>
        <time>2021-05-19T06:05:30Z</time>
      </trkpt>
      <trkpt lat="41.9354170" lon="-8.8842970">
        <ele>47.2</ele>
        <time>2021-05-19T06:05:31Z</time>
      </trkpt>
      <trkpt lat="41.9354310" lon="-8.8843000">
        <ele>47.2</ele>
        <time>2021-05-19T06:05:32Z</time>
      </trkpt>
      <trkpt lat="41.9354440" lon="-8.8843070">
        <ele>47.2</ele>
        <time>2021-05-19T06:05:33Z</time>
      </trkpt>
      <trkpt lat="41.9354510" lon="-8.8843150">
        <ele>47.2</ele>
        <time>2021-05-19T06:05:34Z</time>
      </trkpt>
      <trkpt lat="41.9354580" lon="-8.8843190">
        <ele>47.2</ele>
        <time>2021-05-19T06:05:35Z</time>
      </trkpt>
      <trkpt lat="41.9354730" lon="-8.8843210">
        <ele>47.1</ele>
        <time>2021-05-19T06:05:36Z</time>
      </trkpt>
      <trkpt lat="41.9354870" lon="-8.8843300">
        <ele>47.1</ele>
        <time>2021-05-19T06:05:37Z</time>
      </trkpt>
      <trkpt lat="41.9355010" lon="-8.8843240">
        <ele>47.1</ele>
        <time>2021-05-19T06:05:38Z</time>
      </trkpt>
      <trkpt lat="41.9355150" lon="-8.8843340">
        <ele>47.1</ele>
        <time>2021-05-19T06:05:39Z</time>
      </trkpt>
      <trkpt lat="41.9355270" lon="-8.8843430">
        <ele>47.1</ele>
        <time>2021-05-19T06:05:40Z</time>
      </trkpt>
      <trkpt lat="41.9355490" lon="-8.8843490">
        <ele>47.1</ele>
        <time>2021-05-19T06:05:41Z</time>
      </trkpt>
      <trkpt lat="41.9355570" lon="-8.8843510">
        <ele>47.1</ele>
        <time>2021-05-19T06:05:42Z</time>
      </trkpt>
      <trkpt lat="41.9355650" lon="-8.8843520">
        <ele>47.1</ele>
        <time>2021-05-19T06:05:43Z</time>
      </trkpt>
      <trkpt lat="41.9355790" lon="-8.8843670">
        <ele>47.2</ele>
        <time>2021-05-19T06:05:44Z</time>
      </trkpt>
      <trkpt lat="41.9355920" lon="-8.8843690">
        <ele>47.2</ele>
        <time>2021-05-19T06:05:45Z</time>
      </trkpt>
      <trkpt lat="41.9356070" lon="-8.8843770">
        <ele>47.2</ele>
        <time>2021-05-19T06:05:46Z</time>
      </trkpt>
      <trkpt lat="41.9356230" lon="-8.8843760">
        <ele>47.2</ele>
        <time>2021-05-19T06:05:47Z</time>
      </trkpt>
      <trkpt lat="41.9356380" lon="-8.8843790">
        <ele>47.2</ele>
        <time>2021-05-19T06:05:48Z</time>
      </trkpt>
      <trkpt lat="41.9356510" lon="-8.8843910">
        <ele>47.2</ele>
        <time>2021-05-19T06:05:49Z</time>
      </trkpt>
      <trkpt lat="41.9356620" lon="-8.8843930">
        <ele>47.2</ele>
        <time>2021-05-19T06:05:50Z</time>
      </trkpt>
      <trkpt lat="41.9356790" lon="-8.8843980">
        <ele>47.2</ele>
        <time>2021-05-19T06:05:51Z</time>
      </trkpt>
      <trkpt lat="41.9356890" lon="-8.8844060">
        <ele>47.2</ele>
        <time>2021-05-19T06:05:52Z</time>
      </trkpt>
      <trkpt lat="41.9356970" lon="-8.8844120">
        <ele>47.2</ele>
        <time>2021-05-19T06:05:53Z</time>
      </trkpt>
      <trkpt lat="41.9357100" lon="-8.8844230">
        <ele>47.2</ele>
        <time>2021-05-19T06:05:54Z</time>
      </trkpt>
      <trkpt lat="41.9357220" lon="-8.8844380">
        <ele>47.2</ele>
        <time>2021-05-19T06:05:55Z</time>
      </trkpt>
      <trkpt lat="41.9357330" lon="-8.8844510">
        <ele>47.2</ele>
        <time>2021-05-19T06:05:56Z</time>
      </trkpt>
      <trkpt lat="41.9357480" lon="-8.8844560">
        <ele>47.2</ele>
        <time>2021-05-19T06:05:57Z</time>
      </trkpt>
      <trkpt lat="41.9357620" lon="-8.8844630">
        <ele>47.2</ele>
        <time>2021-05-19T06:05:58Z</time>
      </trkpt>
      <trkpt lat="41.9357730" lon="-8.8844720">
        <ele>47.2</ele>
        <time>2021-05-19T06:05:59Z</time>
      </trkpt>
      <trkpt lat="41.9357820" lon="-8.8844750">
        <ele>47.2</ele>
        <time>2021-05-19T06:06:00Z</time>
      </trkpt>
      <trkpt lat="41.9357900" lon="-8.8844820">
        <ele>47.2</ele>
        <time>2021-05-19T06:06:01Z</time>
      </trkpt>
      <trkpt lat="41.9358040" lon="-8.8844920">
        <ele>47.2</ele>
        <time>2021-05-19T06:06:02Z</time>
      </trkpt>
      <trkpt lat="41.9358150" lon="-8.8844920">
        <ele>47.2</ele>
        <time>2021-05-19T06:06:03Z</time>
      </trkpt>
      <trkpt lat="41.9358240" lon="-8.8844980">
        <ele>47.2</ele>
        <time>2021-05-19T06:06:04Z</time>
      </trkpt>
      <trkpt lat="41.9358380" lon="-8.8845080">
        <ele>47.2</ele>
        <time>2021-05-19T06:06:05Z</time>
      </trkpt>
      <trkpt lat="41.9358550" lon="-8.8845160">
        <ele>47.2</ele>
        <time>2021-05-19T06:06:06Z</time>
      </trkpt>
      <trkpt lat="41.9358670" lon="-8.8845170">
        <ele>47.2</ele>
        <time>2021-05-19T06:06:07Z</time>
      </trkpt>
      <trkpt lat="41.9358850" lon="-8.8845280">
        <ele>47.2</ele>
        <time>2021-05-19T06:06:08Z</time>
      </trkpt>
      <trkpt lat="41.9359020" lon="-8.8845340">
        <ele>47.2</ele>
        <time>2021-05-19T06:06:09Z</time>
      </trkpt>
      <trkpt lat="41.9359160" lon="-8.8845460">
        <ele>47.2</ele>
        <time>2021-05-19T06:06:10Z</time>
      </trkpt>
      <trkpt lat="41.9359330" lon="-8.8845580">
        <ele>47.2</ele>
        <time>2021-05-19T06:06:11Z</time>
      </trkpt>
      <trkpt lat="41.9359460" lon="-8.8845640">
        <ele>47.2</ele>
        <time>2021-05-19T06:06:12Z</time>
      </trkpt>
      <trkpt lat="41.9359720" lon="-8.8845640">
        <ele>47.2</ele>
        <time>2021-05-19T06:06:13Z</time>
      </trkpt>
      <trkpt lat="41.9359810" lon="-8.8845680">
        <ele>47.2</ele>
        <time>2021-05-19T06:06:14Z</time>
      </trkpt>
      <trkpt lat="41.9359910" lon="-8.8845710">
        <ele>47.2</ele>
        <time>2021-05-19T06:06:15Z</time>
      </trkpt>
      <trkpt lat="41.9360140" lon="-8.8845780">
        <ele>47.2</ele>
        <time>2021-05-19T06:06:16Z</time>
      </trkpt>
      <trkpt lat="41.9360210" lon="-8.8845810">
        <ele>47.2</ele>
        <time>2021-05-19T06:06:17Z</time>
      </trkpt>
      <trkpt lat="41.9360270" lon="-8.8845840">
        <ele>47.2</ele>
        <time>2021-05-19T06:06:18Z</time>
      </trkpt>
      <trkpt lat="41.9360380" lon="-8.8845900">
        <ele>47.2</ele>
        <time>2021-05-19T06:06:19Z</time>
      </trkpt>
      <trkpt lat="41.9360470" lon="-8.8845960">
        <ele>47.2</ele>
        <time>2021-05-19T06:06:20Z</time>
      </trkpt>
      <trkpt lat="41.9360540" lon="-8.8846010">
        <ele>47.2</ele>
        <time>2021-05-19T06:06:21Z</time>
      </trkpt>
      <trkpt lat="41.9360730" lon="-8.8846120">
        <ele>47.1</ele>
        <time>2021-05-19T06:06:22Z</time>
      </trkpt>
      <trkpt lat="41.9360810" lon="-8.8846180">
        <ele>47.1</ele>
        <time>2021-05-19T06:06:23Z</time>
      </trkpt>
      <trkpt lat="41.9360890" lon="-8.8846240">
        <ele>47.1</ele>
        <time>2021-05-19T06:06:24Z</time>
      </trkpt>
      <trkpt lat="41.9361020" lon="-8.8846340">
        <ele>47.1</ele>
        <time>2021-05-19T06:06:25Z</time>
      </trkpt>
      <trkpt lat="41.9361180" lon="-8.8846410">
        <ele>47.1</ele>
        <time>2021-05-19T06:06:26Z</time>
      </trkpt>
      <trkpt lat="41.9361360" lon="-8.8846480">
        <ele>47.1</ele>
        <time>2021-05-19T06:06:27Z</time>
      </trkpt>
      <trkpt lat="41.9361470" lon="-8.8846570">
        <ele>47.1</ele>
        <time>2021-05-19T06:06:28Z</time>
      </trkpt>
      <trkpt lat="41.9361680" lon="-8.8846600">
        <ele>47.1</ele>
        <time>2021-05-19T06:06:29Z</time>
      </trkpt>
      <trkpt lat="41.9361800" lon="-8.8846690">
        <ele>47.1</ele>
        <time>2021-05-19T06:06:30Z</time>
      </trkpt>
      <trkpt lat="41.9361910" lon="-8.8846830">
        <ele>47.1</ele>
        <time>2021-05-19T06:06:31Z</time>
      </trkpt>
      <trkpt lat="41.9362050" lon="-8.8846890">
        <ele>47.1</ele>
        <time>2021-05-19T06:06:32Z</time>
      </trkpt>
      <trkpt lat="41.9362140" lon="-8.8846900">
        <ele>47.1</ele>
        <time>2021-05-19T06:06:33Z</time>
      </trkpt>
      <trkpt lat="41.9362220" lon="-8.8846930">
        <ele>47.1</ele>
        <time>2021-05-19T06:06:34Z</time>
      </trkpt>
      <trkpt lat="41.9362350" lon="-8.8846990">
        <ele>47.1</ele>
        <time>2021-05-19T06:06:35Z</time>
      </trkpt>
      <trkpt lat="41.9362630" lon="-8.8847130">
        <ele>47.2</ele>
        <time>2021-05-19T06:06:36Z</time>
      </trkpt>
      <trkpt lat="41.9362720" lon="-8.8847180">
        <ele>47.2</ele>
        <time>2021-05-19T06:06:37Z</time>
      </trkpt>
      <trkpt lat="41.9362870" lon="-8.8847260">
        <ele>47.2</ele>
        <time>2021-05-19T06:06:38Z</time>
      </trkpt>
      <trkpt lat="41.9362980" lon="-8.8847280">
        <ele>47.2</ele>
        <time>2021-05-19T06:06:39Z</time>
      </trkpt>
      <trkpt lat="41.9363080" lon="-8.8847290">
        <ele>47.2</ele>
        <time>2021-05-19T06:06:40Z</time>
      </trkpt>
      <trkpt lat="41.9363220" lon="-8.8847350">
        <ele>47.2</ele>
        <time>2021-05-19T06:06:41Z</time>
      </trkpt>
      <trkpt lat="41.9363300" lon="-8.8847450">
        <ele>47.2</ele>
        <time>2021-05-19T06:06:42Z</time>
      </trkpt>
      <trkpt lat="41.9363370" lon="-8.8847510">
        <ele>47.2</ele>
        <time>2021-05-19T06:06:43Z</time>
      </trkpt>
      <trkpt lat="41.9363490" lon="-8.8847590">
        <ele>47.2</ele>
        <time>2021-05-19T06:06:44Z</time>
      </trkpt>
      <trkpt lat="41.9363660" lon="-8.8847680">
        <ele>47.2</ele>
        <time>2021-05-19T06:06:45Z</time>
      </trkpt>
      <trkpt lat="41.9363820" lon="-8.8847760">
        <ele>47.2</ele>
        <time>2021-05-19T06:06:46Z</time>
      </trkpt>
      <trkpt lat="41.9363910" lon="-8.8847800">
        <ele>47.2</ele>
        <time>2021-05-19T06:06:47Z</time>
      </trkpt>
      <trkpt lat="41.9364010" lon="-8.8847850">
        <ele>47.2</ele>
        <time>2021-05-19T06:06:48Z</time>
      </trkpt>
      <trkpt lat="41.9364310" lon="-8.8848000">
        <ele>47.2</ele>
        <time>2021-05-19T06:06:49Z</time>
      </trkpt>
      <trkpt lat="41.9364390" lon="-8.8848020">
        <ele>47.2</ele>
        <time>2021-05-19T06:06:50Z</time>
      </trkpt>
      <trkpt lat="41.9364520" lon="-8.8848160">
        <ele>47.2</ele>
        <time>2021-05-19T06:06:51Z</time>
      </trkpt>
      <trkpt lat="41.9364680" lon="-8.8848220">
        <ele>47.2</ele>
        <time>2021-05-19T06:06:52Z</time>
      </trkpt>
      <trkpt lat="41.9364800" lon="-8.8848250">
        <ele>47.2</ele>
        <time>2021-05-19T06:06:53Z</time>
      </trkpt>
      <trkpt lat="41.9364900" lon="-8.8848290">
        <ele>47.3</ele>
        <time>2021-05-19T06:06:54Z</time>
      </trkpt>
      <trkpt lat="41.9365030" lon="-8.8848330">
        <ele>47.3</ele>
        <time>2021-05-19T06:06:55Z</time>
      </trkpt>
      <trkpt lat="41.9365120" lon="-8.8848480">
        <ele>47.3</ele>
        <time>2021-05-19T06:06:56Z</time>
      </trkpt>
      <trkpt lat="41.9365300" lon="-8.8848500">
        <ele>47.3</ele>
        <time>2021-05-19T06:06:57Z</time>
      </trkpt>
      <trkpt lat="41.9365470" lon="-8.8848680">
        <ele>47.3</ele>
        <time>2021-05-19T06:06:58Z</time>
      </trkpt>
      <trkpt lat="41.9365540" lon="-8.8848720">
        <ele>47.3</ele>
        <time>2021-05-19T06:06:59Z</time>
      </trkpt>
      <trkpt lat="41.9365610" lon="-8.8848770">
        <ele>47.3</ele>
        <time>2021-05-19T06:07:00Z</time>
      </trkpt>
      <trkpt lat="41.9365730" lon="-8.8848810">
        <ele>47.3</ele>
        <time>2021-05-19T06:07:01Z</time>
      </trkpt>
      <trkpt lat="41.9365830" lon="-8.8848830">
        <ele>47.3</ele>
        <time>2021-05-19T06:07:02Z</time>
      </trkpt>
      <trkpt lat="41.9365920" lon="-8.8848890">
        <ele>47.3</ele>
        <time>2021-05-19T06:07:03Z</time>
      </trkpt>
      <trkpt lat="41.9366120" lon="-8.8849080">
        <ele>47.3</ele>
        <time>2021-05-19T06:07:04Z</time>
      </trkpt>
      <trkpt lat="41.9366200" lon="-8.8849090">
        <ele>47.3</ele>
        <time>2021-05-19T06:07:05Z</time>
      </trkpt>
      <trkpt lat="41.9366270" lon="-8.8849110">
        <ele>47.3</ele>
        <time>2021-05-19T06:07:06Z</time>
      </trkpt>
      <trkpt lat="41.9366490" lon="-8.8849210">
        <ele>47.3</ele>
        <time>2021-05-19T06:07:07Z</time>
      </trkpt>
      <trkpt lat="41.9366560" lon="-8.8849220">
        <ele>47.4</ele>
        <time>2021-05-19T06:07:08Z</time>
      </trkpt>
      <trkpt lat="41.9366640" lon="-8.8849240">
        <ele>47.4</ele>
        <time>2021-05-19T06:07:09Z</time>
      </trkpt>
      <trkpt lat="41.9366790" lon="-8.8849330">
        <ele>47.4</ele>
        <time>2021-05-19T06:07:10Z</time>
      </trkpt>
      <trkpt lat="41.9366920" lon="-8.8849440">
        <ele>47.4</ele>
        <time>2021-05-19T06:07:11Z</time>
      </trkpt>
      <trkpt lat="41.9367120" lon="-8.8849490">
        <ele>47.4</ele>
        <time>2021-05-19T06:07:12Z</time>
      </trkpt>
      <trkpt lat="41.9367190" lon="-8.8849500">
        <ele>47.4</ele>
        <time>2021-05-19T06:07:13Z</time>
      </trkpt>
      <trkpt lat="41.9367270" lon="-8.8849510">
        <ele>47.4</ele>
        <time>2021-05-19T06:07:14Z</time>
      </trkpt>
      <trkpt lat="41.9367340" lon="-8.8849520">
        <ele>47.4</ele>
        <time>2021-05-19T06:07:15Z</time>
      </trkpt>
      <trkpt lat="41.9367490" lon="-8.8849550">
        <ele>47.4</ele>
        <time>2021-05-19T06:07:16Z</time>
      </trkpt>
      <trkpt lat="41.9367650" lon="-8.8849610">
        <ele>47.4</ele>
        <time>2021-05-19T06:07:17Z</time>
      </trkpt>
      <trkpt lat="41.9367800" lon="-8.8849650">
        <ele>47.4</ele>
        <time>2021-05-19T06:07:18Z</time>
      </trkpt>
      <trkpt lat="41.9367980" lon="-8.8849680">
        <ele>47.5</ele>
        <time>2021-05-19T06:07:19Z</time>
      </trkpt>
      <trkpt lat="41.9368050" lon="-8.8849800">
        <ele>47.5</ele>
        <time>2021-05-19T06:07:20Z</time>
      </trkpt>
      <trkpt lat="41.9368190" lon="-8.8849890">
        <ele>47.5</ele>
        <time>2021-05-19T06:07:21Z</time>
      </trkpt>
      <trkpt lat="41.9368290" lon="-8.8849910">
        <ele>47.5</ele>
        <time>2021-05-19T06:07:22Z</time>
      </trkpt>
      <trkpt lat="41.9368480" lon="-8.8849990">
        <ele>47.5</ele>
        <time>2021-05-19T06:07:23Z</time>
      </trkpt>
      <trkpt lat="41.9368580" lon="-8.8850030">
        <ele>47.5</ele>
        <time>2021-05-19T06:07:24Z</time>
      </trkpt>
      <trkpt lat="41.9368670" lon="-8.8850060">
        <ele>47.5</ele>
        <time>2021-05-19T06:07:25Z</time>
      </trkpt>
      <trkpt lat="41.9368840" lon="-8.8850190">
        <ele>47.5</ele>
        <time>2021-05-19T06:07:26Z</time>
      </trkpt>
      <trkpt lat="41.9368950" lon="-8.8850220">
        <ele>47.5</ele>
        <time>2021-05-19T06:07:27Z</time>
      </trkpt>
      <trkpt lat="41.9369050" lon="-8.8850240">
        <ele>47.5</ele>
        <time>2021-05-19T06:07:28Z</time>
      </trkpt>
      <trkpt lat="41.9369310" lon="-8.8850260">
        <ele>47.5</ele>
        <time>2021-05-19T06:07:29Z</time>
      </trkpt>
      <trkpt lat="41.9369380" lon="-8.8850270">
        <ele>47.5</ele>
        <time>2021-05-19T06:07:30Z</time>
      </trkpt>
      <trkpt lat="41.9369460" lon="-8.8850270">
        <ele>47.5</ele>
        <time>2021-05-19T06:07:31Z</time>
      </trkpt>
      <trkpt lat="41.9369640" lon="-8.8850360">
        <ele>47.5</ele>
        <time>2021-05-19T06:07:32Z</time>
      </trkpt>
      <trkpt lat="41.9369800" lon="-8.8850330">
        <ele>47.6</ele>
        <time>2021-05-19T06:07:33Z</time>
      </trkpt>
      <trkpt lat="41.9369980" lon="-8.8850350">
        <ele>47.6</ele>
        <time>2021-05-19T06:07:34Z</time>
      </trkpt>
      <trkpt lat="41.9370090" lon="-8.8850380">
        <ele>47.6</ele>
        <time>2021-05-19T06:07:35Z</time>
      </trkpt>
      <trkpt lat="41.9370190" lon="-8.8850410">
        <ele>47.6</ele>
        <time>2021-05-19T06:07:36Z</time>
      </trkpt>
      <trkpt lat="41.9370280" lon="-8.8850500">
        <ele>47.6</ele>
        <time>2021-05-19T06:07:37Z</time>
      </trkpt>
      <trkpt lat="41.9370460" lon="-8.8850490">
        <ele>47.6</ele>
        <time>2021-05-19T06:07:38Z</time>
      </trkpt>
      <trkpt lat="41.9370600" lon="-8.8850510">
        <ele>47.6</ele>
        <time>2021-05-19T06:07:39Z</time>
      </trkpt>
      <trkpt lat="41.9370750" lon="-8.8850550">
        <ele>47.6</ele>
        <time>2021-05-19T06:07:40Z</time>
      </trkpt>
      <trkpt lat="41.9370850" lon="-8.8850540">
        <ele>47.6</ele>
        <time>2021-05-19T06:07:41Z</time>
      </trkpt>
      <trkpt lat="41.9370980" lon="-8.8850530">
        <ele>47.6</ele>
        <time>2021-05-19T06:07:42Z</time>
      </trkpt>
      <trkpt lat="41.9371120" lon="-8.8850550">
        <ele>47.6</ele>
        <time>2021-05-19T06:07:43Z</time>
      </trkpt>
      <trkpt lat="41.9371180" lon="-8.8850480">
        <ele>47.6</ele>
        <time>2021-05-19T06:07:44Z</time>
      </trkpt>
      <trkpt lat="41.9371320" lon="-8.8850610">
        <ele>47.6</ele>
        <time>2021-05-19T06:07:45Z</time>
      </trkpt>
      <trkpt lat="41.9371420" lon="-8.8850590">
        <ele>47.6</ele>
        <time>2021-05-19T06:07:46Z</time>
      </trkpt>
      <trkpt lat="41.9371660" lon="-8.8850590">
        <ele>47.6</ele>
        <time>2021-05-19T06:07:47Z</time>
      </trkpt>
      <trkpt lat="41.9371760" lon="-8.8850620">
        <ele>47.6</ele>
        <time>2021-05-19T06:07:48Z</time>
      </trkpt>
      <trkpt lat="41.9371850" lon="-8.8850640">
        <ele>47.6</ele>
        <time>2021-05-19T06:07:49Z</time>
      </trkpt>
      <trkpt lat="41.9372070" lon="-8.8850660">
        <ele>47.6</ele>
        <time>2021-05-19T06:07:50Z</time>
      </trkpt>
      <trkpt lat="41.9372160" lon="-8.8850640">
        <ele>47.6</ele>
        <time>2021-05-19T06:07:51Z</time>
      </trkpt>
      <trkpt lat="41.9372240" lon="-8.8850630">
        <ele>47.6</ele>
        <time>2021-05-19T06:07:52Z</time>
      </trkpt>
      <trkpt lat="41.9372400" lon="-8.8850680">
        <ele>47.6</ele>
        <time>2021-05-19T06:07:53Z</time>
      </trkpt>
      <trkpt lat="41.9372500" lon="-8.8850780">
        <ele>47.6</ele>
        <time>2021-05-19T06:07:54Z</time>
      </trkpt>
      <trkpt lat="41.9372700" lon="-8.8850870">
        <ele>47.7</ele>
        <time>2021-05-19T06:07:55Z</time>
      </trkpt>
      <trkpt lat="41.9372800" lon="-8.8850940">
        <ele>47.7</ele>
        <time>2021-05-19T06:07:56Z</time>
      </trkpt>
      <trkpt lat="41.9372890" lon="-8.8851000">
        <ele>47.7</ele>
        <time>2021-05-19T06:07:57Z</time>
      </trkpt>
      <trkpt lat="41.9373010" lon="-8.8850980">
        <ele>47.7</ele>
        <time>2021-05-19T06:07:58Z</time>
      </trkpt>
      <trkpt lat="41.9373090" lon="-8.8850990">
        <ele>47.7</ele>
        <time>2021-05-19T06:07:59Z</time>
      </trkpt>
      <trkpt lat="41.9373230" lon="-8.8850980">
        <ele>47.7</ele>
        <time>2021-05-19T06:08:00Z</time>
      </trkpt>
      <trkpt lat="41.9373450" lon="-8.8851010">
        <ele>47.7</ele>
        <time>2021-05-19T06:08:01Z</time>
      </trkpt>
      <trkpt lat="41.9373520" lon="-8.8851060">
        <ele>47.7</ele>
        <time>2021-05-19T06:08:02Z</time>
      </trkpt>
      <trkpt lat="41.9373590" lon="-8.8851100">
        <ele>47.7</ele>
        <time>2021-05-19T06:08:03Z</time>
      </trkpt>
      <trkpt lat="41.9373730" lon="-8.8851170">
        <ele>47.7</ele>
        <time>2021-05-19T06:08:04Z</time>
      </trkpt>
      <trkpt lat="41.9373910" lon="-8.8851250">
        <ele>47.7</ele>
        <time>2021-05-19T06:08:05Z</time>
      </trkpt>
      <trkpt lat="41.9374040" lon="-8.8851310">
        <ele>47.7</ele>
        <time>2021-05-19T06:08:06Z</time>
      </trkpt>
      <trkpt lat="41.9374110" lon="-8.8851320">
        <ele>47.7</ele>
        <time>2021-05-19T06:08:07Z</time>
      </trkpt>
      <trkpt lat="41.9374230" lon="-8.8851290">
        <ele>47.7</ele>
        <time>2021-05-19T06:08:08Z</time>
      </trkpt>
      <trkpt lat="41.9374410" lon="-8.8851350">
        <ele>47.7</ele>
        <time>2021-05-19T06:08:09Z</time>
      </trkpt>
      <trkpt lat="41.9374570" lon="-8.8851430">
        <ele>47.7</ele>
        <time>2021-05-19T06:08:10Z</time>
      </trkpt>
      <trkpt lat="41.9374730" lon="-8.8851370">
        <ele>47.7</ele>
        <time>2021-05-19T06:08:11Z</time>
      </trkpt>
      <trkpt lat="41.9374900" lon="-8.8851390">
        <ele>47.7</ele>
        <time>2021-05-19T06:08:12Z</time>
      </trkpt>
      <trkpt lat="41.9375070" lon="-8.8851350">
        <ele>47.7</ele>
        <time>2021-05-19T06:08:13Z</time>
      </trkpt>
      <trkpt lat="41.9375220" lon="-8.8851410">
        <ele>47.6</ele>
        <time>2021-05-19T06:08:14Z</time>
      </trkpt>
      <trkpt lat="41.9375360" lon="-8.8851340">
        <ele>47.6</ele>
        <time>2021-05-19T06:08:15Z</time>
      </trkpt>
      <trkpt lat="41.9375530" lon="-8.8851320">
        <ele>47.6</ele>
        <time>2021-05-19T06:08:16Z</time>
      </trkpt>
      <trkpt lat="41.9375720" lon="-8.8851260">
        <ele>47.6</ele>
        <time>2021-05-19T06:08:17Z</time>
      </trkpt>
      <trkpt lat="41.9375880" lon="-8.8851230">
        <ele>47.6</ele>
        <time>2021-05-19T06:08:18Z</time>
      </trkpt>
      <trkpt lat="41.9376030" lon="-8.8851160">
        <ele>47.6</ele>
        <time>2021-05-19T06:08:19Z</time>
      </trkpt>
      <trkpt lat="41.9376190" lon="-8.8851190">
        <ele>47.6</ele>
        <time>2021-05-19T06:08:20Z</time>
      </trkpt>
      <trkpt lat="41.9376350" lon="-8.8851150">
        <ele>47.6</ele>
        <time>2021-05-19T06:08:21Z</time>
      </trkpt>
      <trkpt lat="41.9376500" lon="-8.8851080">
        <ele>47.6</ele>
        <time>2021-05-19T06:08:22Z</time>
      </trkpt>
      <trkpt lat="41.9376670" lon="-8.8851120">
        <ele>47.6</ele>
        <time>2021-05-19T06:08:23Z</time>
      </trkpt>
      <trkpt lat="41.9376820" lon="-8.8851050">
        <ele>47.6</ele>
        <time>2021-05-19T06:08:24Z</time>
      </trkpt>
      <trkpt lat="41.9376960" lon="-8.8850990">
        <ele>47.6</ele>
        <time>2021-05-19T06:08:25Z</time>
      </trkpt>
      <trkpt lat="41.9377120" lon="-8.8851000">
        <ele>47.6</ele>
        <time>2021-05-19T06:08:26Z</time>
      </trkpt>
      <trkpt lat="41.9377290" lon="-8.8851010">
        <ele>47.6</ele>
        <time>2021-05-19T06:08:27Z</time>
      </trkpt>
      <trkpt lat="41.9377450" lon="-8.8850930">
        <ele>47.6</ele>
        <time>2021-05-19T06:08:28Z</time>
      </trkpt>
      <trkpt lat="41.9377600" lon="-8.8851010">
        <ele>47.6</ele>
        <time>2021-05-19T06:08:29Z</time>
      </trkpt>
      <trkpt lat="41.9377740" lon="-8.8851080">
        <ele>47.5</ele>
        <time>2021-05-19T06:08:30Z</time>
      </trkpt>
      <trkpt lat="41.9377900" lon="-8.8851060">
        <ele>47.5</ele>
        <time>2021-05-19T06:08:31Z</time>
      </trkpt>
      <trkpt lat="41.9378050" lon="-8.8851120">
        <ele>47.5</ele>
        <time>2021-05-19T06:08:32Z</time>
      </trkpt>
      <trkpt lat="41.9378190" lon="-8.8851070">
        <ele>47.5</ele>
        <time>2021-05-19T06:08:33Z</time>
      </trkpt>
      <trkpt lat="41.9378330" lon="-8.8851110">
        <ele>47.5</ele>
        <time>2021-05-19T06:08:34Z</time>
      </trkpt>
      <trkpt lat="41.9378480" lon="-8.8851090">
        <ele>47.5</ele>
        <time>2021-05-19T06:08:35Z</time>
      </trkpt>
      <trkpt lat="41.9378630" lon="-8.8851070">
        <ele>47.5</ele>
        <time>2021-05-19T06:08:36Z</time>
      </trkpt>
      <trkpt lat="41.9378780" lon="-8.8851040">
        <ele>47.5</ele>
        <time>2021-05-19T06:08:37Z</time>
      </trkpt>
      <trkpt lat="41.9378910" lon="-8.8851100">
        <ele>47.5</ele>
        <time>2021-05-19T06:08:38Z</time>
      </trkpt>
      <trkpt lat="41.9379030" lon="-8.8851140">
        <ele>47.5</ele>
        <time>2021-05-19T06:08:39Z</time>
      </trkpt>
      <trkpt lat="41.9379130" lon="-8.8851180">
        <ele>47.5</ele>
        <time>2021-05-19T06:08:40Z</time>
      </trkpt>
      <trkpt lat="41.9379210" lon="-8.8851130">
        <ele>47.5</ele>
        <time>2021-05-19T06:08:41Z</time>
      </trkpt>
      <trkpt lat="41.9379380" lon="-8.8851050">
        <ele>47.5</ele>
        <time>2021-05-19T06:08:42Z</time>
      </trkpt>
      <trkpt lat="41.9379460" lon="-8.8851020">
        <ele>47.5</ele>
        <time>2021-05-19T06:08:43Z</time>
      </trkpt>
      <trkpt lat="41.9379550" lon="-8.8850980">
        <ele>47.5</ele>
        <time>2021-05-19T06:08:44Z</time>
      </trkpt>
      <trkpt lat="41.9379630" lon="-8.8850940">
        <ele>47.5</ele>
        <time>2021-05-19T06:08:45Z</time>
      </trkpt>
      <trkpt lat="41.9379770" lon="-8.8850840">
        <ele>47.5</ele>
        <time>2021-05-19T06:08:46Z</time>
      </trkpt>
      <trkpt lat="41.9379850" lon="-8.8850780">
        <ele>47.5</ele>
        <time>2021-05-19T06:08:47Z</time>
      </trkpt>
      <trkpt lat="41.9379890" lon="-8.8850730">
        <ele>47.5</ele>
        <time>2021-05-19T06:08:48Z</time>
      </trkpt>
      <trkpt lat="41.9380020" lon="-8.8850680">
        <ele>47.5</ele>
        <time>2021-05-19T06:08:49Z</time>
      </trkpt>
      <trkpt lat="41.9380130" lon="-8.8850620">
        <ele>47.5</ele>
        <time>2021-05-19T06:08:50Z</time>
      </trkpt>
      <trkpt lat="41.9380300" lon="-8.8850420">
        <ele>47.5</ele>
        <time>2021-05-19T06:08:51Z</time>
      </trkpt>
      <trkpt lat="41.9380420" lon="-8.8850340">
        <ele>47.5</ele>
        <time>2021-05-19T06:08:52Z</time>
      </trkpt>
      <trkpt lat="41.9380530" lon="-8.8850270">
        <ele>47.5</ele>
        <time>2021-05-19T06:08:53Z</time>
      </trkpt>
      <trkpt lat="41.9380630" lon="-8.8850180">
        <ele>47.5</ele>
        <time>2021-05-19T06:08:54Z</time>
      </trkpt>
      <trkpt lat="41.9380640" lon="-8.8850090">
        <ele>47.5</ele>
        <time>2021-05-19T06:08:55Z</time>
      </trkpt>
      <trkpt lat="41.9380740" lon="-8.8849930">
        <ele>47.5</ele>
        <time>2021-05-19T06:08:56Z</time>
      </trkpt>
      <trkpt lat="41.9380890" lon="-8.8849730">
        <ele>47.4</ele>
        <time>2021-05-19T06:08:57Z</time>
      </trkpt>
      <trkpt lat="41.9380940" lon="-8.8849630">
        <ele>47.4</ele>
        <time>2021-05-19T06:08:58Z</time>
      </trkpt>
      <trkpt lat="41.9381000" lon="-8.8849520">
        <ele>47.4</ele>
        <time>2021-05-19T06:08:59Z</time>
      </trkpt>
      <trkpt lat="41.9381110" lon="-8.8849400">
        <ele>47.4</ele>
        <time>2021-05-19T06:09:00Z</time>
      </trkpt>
      <trkpt lat="41.9381170" lon="-8.8849290">
        <ele>47.4</ele>
        <time>2021-05-19T06:09:01Z</time>
      </trkpt>
      <trkpt lat="41.9381240" lon="-8.8849170">
        <ele>47.4</ele>
        <time>2021-05-19T06:09:02Z</time>
      </trkpt>
      <trkpt lat="41.9381450" lon="-8.8849110">
        <ele>47.4</ele>
        <time>2021-05-19T06:09:03Z</time>
      </trkpt>
      <trkpt lat="41.9381540" lon="-8.8849060">
        <ele>47.4</ele>
        <time>2021-05-19T06:09:04Z</time>
      </trkpt>
      <trkpt lat="41.9381620" lon="-8.8849020">
        <ele>47.4</ele>
        <time>2021-05-19T06:09:05Z</time>
      </trkpt>
      <trkpt lat="41.9381630" lon="-8.8849030">
        <ele>47.4</ele>
        <time>2021-05-19T06:09:06Z</time>
      </trkpt>
      <trkpt lat="41.9381820" lon="-8.8848950">
        <ele>47.4</ele>
        <time>2021-05-19T06:09:07Z</time>
      </trkpt>
      <trkpt lat="41.9381960" lon="-8.8848890">
        <ele>47.4</ele>
        <time>2021-05-19T06:09:08Z</time>
      </trkpt>
      <trkpt lat="41.9382150" lon="-8.8848860">
        <ele>47.4</ele>
        <time>2021-05-19T06:09:09Z</time>
      </trkpt>
      <trkpt lat="41.9382240" lon="-8.8848810">
        <ele>47.4</ele>
        <time>2021-05-19T06:09:10Z</time>
      </trkpt>
      <trkpt lat="41.9382450" lon="-8.8848740">
        <ele>47.4</ele>
        <time>2021-05-19T06:09:11Z</time>
      </trkpt>
      <trkpt lat="41.9382520" lon="-8.8848730">
        <ele>47.4</ele>
        <time>2021-05-19T06:09:12Z</time>
      </trkpt>
      <trkpt lat="41.9382600" lon="-8.8848710">
        <ele>47.4</ele>
        <time>2021-05-19T06:09:13Z</time>
      </trkpt>
      <trkpt lat="41.9382750" lon="-8.8848700">
        <ele>47.3</ele>
        <time>2021-05-19T06:09:14Z</time>
      </trkpt>
      <trkpt lat="41.9382940" lon="-8.8848680">
        <ele>47.3</ele>
        <time>2021-05-19T06:09:15Z</time>
      </trkpt>
      <trkpt lat="41.9383050" lon="-8.8848600">
        <ele>47.3</ele>
        <time>2021-05-19T06:09:16Z</time>
      </trkpt>
      <trkpt lat="41.9383160" lon="-8.8848570">
        <ele>47.3</ele>
        <time>2021-05-19T06:09:17Z</time>
      </trkpt>
      <trkpt lat="41.9383210" lon="-8.8848510">
        <ele>47.3</ele>
        <time>2021-05-19T06:09:18Z</time>
      </trkpt>
      <trkpt lat="41.9383430" lon="-8.8848410">
        <ele>47.3</ele>
        <time>2021-05-19T06:09:19Z</time>
      </trkpt>
      <trkpt lat="41.9383480" lon="-8.8848360">
        <ele>47.3</ele>
        <time>2021-05-19T06:09:20Z</time>
      </trkpt>
      <trkpt lat="41.9383540" lon="-8.8848300">
        <ele>47.3</ele>
        <time>2021-05-19T06:09:21Z</time>
      </trkpt>
      <trkpt lat="41.9383660" lon="-8.8848280">
        <ele>47.3</ele>
        <time>2021-05-19T06:09:22Z</time>
      </trkpt>
      <trkpt lat="41.9383830" lon="-8.8848230">
        <ele>47.3</ele>
        <time>2021-05-19T06:09:23Z</time>
      </trkpt>
      <trkpt lat="41.9384020" lon="-8.8848150">
        <ele>47.3</ele>
        <time>2021-05-19T06:09:24Z</time>
      </trkpt>
      <trkpt lat="41.9384110" lon="-8.8848120">
        <ele>47.3</ele>
        <time>2021-05-19T06:09:25Z</time>
      </trkpt>
      <trkpt lat="41.9384210" lon="-8.8848090">
        <ele>47.3</ele>
        <time>2021-05-19T06:09:26Z</time>
      </trkpt>
      <trkpt lat="41.9384360" lon="-8.8848080">
        <ele>47.3</ele>
        <time>2021-05-19T06:09:27Z</time>
      </trkpt>
      <trkpt lat="41.9384510" lon="-8.8848010">
        <ele>47.3</ele>
        <time>2021-05-19T06:09:28Z</time>
      </trkpt>
      <trkpt lat="41.9384630" lon="-8.8847960">
        <ele>47.3</ele>
        <time>2021-05-19T06:09:29Z</time>
      </trkpt>
      <trkpt lat="41.9384700" lon="-8.8848020">
        <ele>47.3</ele>
        <time>2021-05-19T06:09:30Z</time>
      </trkpt>
      <trkpt lat="41.9384830" lon="-8.8848010">
        <ele>47.2</ele>
        <time>2021-05-19T06:09:31Z</time>
      </trkpt>
      <trkpt lat="41.9384910" lon="-8.8847860">
        <ele>47.2</ele>
        <time>2021-05-19T06:09:32Z</time>
      </trkpt>
      <trkpt lat="41.9385060" lon="-8.8847800">
        <ele>47.2</ele>
        <time>2021-05-19T06:09:33Z</time>
      </trkpt>
      <trkpt lat="41.9385260" lon="-8.8847720">
        <ele>47.2</ele>
        <time>2021-05-19T06:09:34Z</time>
      </trkpt>
      <trkpt lat="41.9385340" lon="-8.8847680">
        <ele>47.2</ele>
        <time>2021-05-19T06:09:35Z</time>
      </trkpt>
      <trkpt lat="41.9385420" lon="-8.8847630">
        <ele>47.2</ele>
        <time>2021-05-19T06:09:36Z</time>
      </trkpt>
      <trkpt lat="41.9385640" lon="-8.8847560">
        <ele>47.2</ele>
        <time>2021-05-19T06:09:37Z</time>
      </trkpt>
      <trkpt lat="41.9385710" lon="-8.8847550">
        <ele>47.2</ele>
        <time>2021-05-19T06:09:38Z</time>
      </trkpt>
      <trkpt lat="41.9385790" lon="-8.8847530">
        <ele>47.2</ele>
        <time>2021-05-19T06:09:39Z</time>
      </trkpt>
      <trkpt lat="41.9385850" lon="-8.8847480">
        <ele>47.2</ele>
        <time>2021-05-19T06:09:40Z</time>
      </trkpt>
      <trkpt lat="41.9385990" lon="-8.8847460">
        <ele>47.2</ele>
        <time>2021-05-19T06:09:41Z</time>
      </trkpt>
      <trkpt lat="41.9386090" lon="-8.8847420">
        <ele>47.2</ele>
        <time>2021-05-19T06:09:42Z</time>
      </trkpt>
      <trkpt lat="41.9386300" lon="-8.8847340">
        <ele>47.2</ele>
        <time>2021-05-19T06:09:43Z</time>
      </trkpt>
      <trkpt lat="41.9386370" lon="-8.8847290">
        <ele>47.2</ele>
        <time>2021-05-19T06:09:44Z</time>
      </trkpt>
      <trkpt lat="41.9386440" lon="-8.8847240">
        <ele>47.2</ele>
        <time>2021-05-19T06:09:45Z</time>
      </trkpt>
      <trkpt lat="41.9386620" lon="-8.8847200">
        <ele>47.2</ele>
        <time>2021-05-19T06:09:46Z</time>
      </trkpt>
      <trkpt lat="41.9386720" lon="-8.8847110">
        <ele>47.2</ele>
        <time>2021-05-19T06:09:47Z</time>
      </trkpt>
      <trkpt lat="41.9386850" lon="-8.8847120">
        <ele>47.2</ele>
        <time>2021-05-19T06:09:48Z</time>
      </trkpt>
      <trkpt lat="41.9387000" lon="-8.8847090">
        <ele>47.2</ele>
        <time>2021-05-19T06:09:49Z</time>
      </trkpt>
      <trkpt lat="41.9387140" lon="-8.8847110">
        <ele>47.2</ele>
        <time>2021-05-19T06:09:50Z</time>
      </trkpt>
      <trkpt lat="41.9387190" lon="-8.8847050">
        <ele>47.2</ele>
        <time>2021-05-19T06:09:51Z</time>
      </trkpt>
      <trkpt lat="41.9387310" lon="-8.8846950">
        <ele>47.2</ele>
        <time>2021-05-19T06:09:52Z</time>
      </trkpt>
      <trkpt lat="41.9387470" lon="-8.8846970">
        <ele>47.2</ele>
        <time>2021-05-19T06:09:53Z</time>
      </trkpt>
      <trkpt lat="41.9387610" lon="-8.8846910">
        <ele>47.2</ele>
        <time>2021-05-19T06:09:54Z</time>
      </trkpt>
      <trkpt lat="41.9387770" lon="-8.8846820">
        <ele>47.2</ele>
        <time>2021-05-19T06:09:55Z</time>
      </trkpt>
      <trkpt lat="41.9387870" lon="-8.8846770">
        <ele>47.2</ele>
        <time>2021-05-19T06:09:56Z</time>
      </trkpt>
      <trkpt lat="41.9387980" lon="-8.8846720">
        <ele>47.2</ele>
        <time>2021-05-19T06:09:57Z</time>
      </trkpt>
      <trkpt lat="41.9388120" lon="-8.8846750">
        <ele>47.2</ele>
        <time>2021-05-19T06:09:58Z</time>
      </trkpt>
      <trkpt lat="41.9388230" lon="-8.8846710">
        <ele>47.2</ele>
        <time>2021-05-19T06:09:59Z</time>
      </trkpt>
      <trkpt lat="41.9388340" lon="-8.8846690">
        <ele>47.2</ele>
        <time>2021-05-19T06:10:00Z</time>
      </trkpt>
      <trkpt lat="41.9388550" lon="-8.8846510">
        <ele>47.2</ele>
        <time>2021-05-19T06:10:01Z</time>
      </trkpt>
      <trkpt lat="41.9388620" lon="-8.8846500">
        <ele>47.2</ele>
        <time>2021-05-19T06:10:02Z</time>
      </trkpt>
      <trkpt lat="41.9388690" lon="-8.8846480">
        <ele>47.2</ele>
        <time>2021-05-19T06:10:03Z</time>
      </trkpt>
      <trkpt lat="41.9388910" lon="-8.8846440">
        <ele>47.2</ele>
        <time>2021-05-19T06:10:04Z</time>
      </trkpt>
      <trkpt lat="41.9389020" lon="-8.8846430">
        <ele>47.2</ele>
        <time>2021-05-19T06:10:05Z</time>
      </trkpt>
      <trkpt lat="41.9389140" lon="-8.8846410">
        <ele>47.2</ele>
        <time>2021-05-19T06:10:06Z</time>
      </trkpt>
      <trkpt lat="41.9389290" lon="-8.8846310">
        <ele>47.2</ele>
        <time>2021-05-19T06:10:07Z</time>
      </trkpt>
      <trkpt lat="41.9389400" lon="-8.8846250">
        <ele>47.2</ele>
        <time>2021-05-19T06:10:08Z</time>
      </trkpt>
      <trkpt lat="41.9389550" lon="-8.8846260">
        <ele>47.2</ele>
        <time>2021-05-19T06:10:09Z</time>
      </trkpt>
      <trkpt lat="41.9389660" lon="-8.8846210">
        <ele>47.2</ele>
        <time>2021-05-19T06:10:10Z</time>
      </trkpt>
      <trkpt lat="41.9389720" lon="-8.8846170">
        <ele>47.2</ele>
        <time>2021-05-19T06:10:11Z</time>
      </trkpt>
      <trkpt lat="41.9390030" lon="-8.8846120">
        <ele>47.2</ele>
        <time>2021-05-19T06:10:12Z</time>
      </trkpt>
      <trkpt lat="41.9390100" lon="-8.8846080">
        <ele>47.2</ele>
        <time>2021-05-19T06:10:13Z</time>
      </trkpt>
      <trkpt lat="41.9390230" lon="-8.8846080">
        <ele>47.2</ele>
        <time>2021-05-19T06:10:14Z</time>
      </trkpt>
      <trkpt lat="41.9390360" lon="-8.8846030">
        <ele>47.2</ele>
        <time>2021-05-19T06:10:15Z</time>
      </trkpt>
      <trkpt lat="41.9390440" lon="-8.8845910">
        <ele>47.2</ele>
        <time>2021-05-19T06:10:16Z</time>
      </trkpt>
      <trkpt lat="41.9390680" lon="-8.8845830">
        <ele>47.2</ele>
        <time>2021-05-19T06:10:17Z</time>
      </trkpt>
      <trkpt lat="41.9390780" lon="-8.8845810">
        <ele>47.2</ele>
        <time>2021-05-19T06:10:18Z</time>
      </trkpt>
      <trkpt lat="41.9390880" lon="-8.8845780">
        <ele>47.2</ele>
        <time>2021-05-19T06:10:19Z</time>
      </trkpt>
      <trkpt lat="41.9390980" lon="-8.8845780">
        <ele>47.2</ele>
        <time>2021-05-19T06:10:20Z</time>
      </trkpt>
      <trkpt lat="41.9391100" lon="-8.8845740">
        <ele>47.2</ele>
        <time>2021-05-19T06:10:21Z</time>
      </trkpt>
      <trkpt lat="41.9391200" lon="-8.8845660">
        <ele>47.2</ele>
        <time>2021-05-19T06:10:22Z</time>
      </trkpt>
      <trkpt lat="41.9391310" lon="-8.8845650">
        <ele>47.2</ele>
        <time>2021-05-19T06:10:23Z</time>
      </trkpt>
      <trkpt lat="41.9391460" lon="-8.8845670">
        <ele>47.2</ele>
        <time>2021-05-19T06:10:24Z</time>
      </trkpt>
      <trkpt lat="41.9391550" lon="-8.8845600">
        <ele>47.2</ele>
        <time>2021-05-19T06:10:25Z</time>
      </trkpt>
      <trkpt lat="41.9391710" lon="-8.8845550">
        <ele>47.2</ele>
        <time>2021-05-19T06:10:26Z</time>
      </trkpt>
      <trkpt lat="41.9391820" lon="-8.8845540">
        <ele>47.2</ele>
        <time>2021-05-19T06:10:27Z</time>
      </trkpt>
      <trkpt lat="41.9391990" lon="-8.8845530">
        <ele>47.3</ele>
        <time>2021-05-19T06:10:28Z</time>
      </trkpt>
      <trkpt lat="41.9392150" lon="-8.8845490">
        <ele>47.3</ele>
        <time>2021-05-19T06:10:29Z</time>
      </trkpt>
      <trkpt lat="41.9392380" lon="-8.8845420">
        <ele>47.3</ele>
        <time>2021-05-19T06:10:30Z</time>
      </trkpt>
      <trkpt lat="41.9392450" lon="-8.8845400">
        <ele>47.3</ele>
        <time>2021-05-19T06:10:31Z</time>
      </trkpt>
      <trkpt lat="41.9392530" lon="-8.8845390">
        <ele>47.3</ele>
        <time>2021-05-19T06:10:32Z</time>
      </trkpt>
      <trkpt lat="41.9392660" lon="-8.8845320">
        <ele>47.3</ele>
        <time>2021-05-19T06:10:33Z</time>
      </trkpt>
      <trkpt lat="41.9392840" lon="-8.8845310">
        <ele>47.3</ele>
        <time>2021-05-19T06:10:34Z</time>
      </trkpt>
      <trkpt lat="41.9392940" lon="-8.8845240">
        <ele>47.3</ele>
        <time>2021-05-19T06:10:35Z</time>
      </trkpt>
      <trkpt lat="41.9393120" lon="-8.8845210">
        <ele>47.3</ele>
        <time>2021-05-19T06:10:36Z</time>
      </trkpt>
      <trkpt lat="41.9393300" lon="-8.8845170">
        <ele>47.3</ele>
        <time>2021-05-19T06:10:37Z</time>
      </trkpt>
      <trkpt lat="41.9393450" lon="-8.8845080">
        <ele>47.3</ele>
        <time>2021-05-19T06:10:38Z</time>
      </trkpt>
      <trkpt lat="41.9393630" lon="-8.8845080">
        <ele>47.3</ele>
        <time>2021-05-19T06:10:39Z</time>
      </trkpt>
      <trkpt lat="41.9393790" lon="-8.8845000">
        <ele>47.3</ele>
        <time>2021-05-19T06:10:40Z</time>
      </trkpt>
      <trkpt lat="41.9393960" lon="-8.8844950">
        <ele>47.3</ele>
        <time>2021-05-19T06:10:41Z</time>
      </trkpt>
      <trkpt lat="41.9394130" lon="-8.8844920">
        <ele>47.3</ele>
        <time>2021-05-19T06:10:42Z</time>
      </trkpt>
      <trkpt lat="41.9394270" lon="-8.8844840">
        <ele>47.3</ele>
        <time>2021-05-19T06:10:43Z</time>
      </trkpt>
      <trkpt lat="41.9394430" lon="-8.8844830">
        <ele>47.3</ele>
        <time>2021-05-19T06:10:44Z</time>
      </trkpt>
      <trkpt lat="41.9394580" lon="-8.8844800">
        <ele>47.3</ele>
        <time>2021-05-19T06:10:45Z</time>
      </trkpt>
      <trkpt lat="41.9394740" lon="-8.8844810">
        <ele>47.3</ele>
        <time>2021-05-19T06:10:46Z</time>
      </trkpt>
      <trkpt lat="41.9394910" lon="-8.8844780">
        <ele>47.3</ele>
        <time>2021-05-19T06:10:47Z</time>
      </trkpt>
      <trkpt lat="41.9395080" lon="-8.8844690">
        <ele>47.4</ele>
        <time>2021-05-19T06:10:48Z</time>
      </trkpt>
      <trkpt lat="41.9395240" lon="-8.8844700">
        <ele>47.4</ele>
        <time>2021-05-19T06:10:49Z</time>
      </trkpt>
      <trkpt lat="41.9395390" lon="-8.8844650">
        <ele>47.4</ele>
        <time>2021-05-19T06:10:50Z</time>
      </trkpt>
      <trkpt lat="41.9395560" lon="-8.8844630">
        <ele>47.4</ele>
        <time>2021-05-19T06:10:51Z</time>
      </trkpt>
      <trkpt lat="41.9395690" lon="-8.8844520">
        <ele>47.4</ele>
        <time>2021-05-19T06:10:52Z</time>
      </trkpt>
      <trkpt lat="41.9395850" lon="-8.8844540">
        <ele>47.4</ele>
        <time>2021-05-19T06:10:53Z</time>
      </trkpt>
      <trkpt lat="41.9396000" lon="-8.8844520">
        <ele>47.4</ele>
        <time>2021-05-19T06:10:54Z</time>
      </trkpt>
      <trkpt lat="41.9396130" lon="-8.8844430">
        <ele>47.4</ele>
        <time>2021-05-19T06:10:55Z</time>
      </trkpt>
      <trkpt lat="41.9396280" lon="-8.8844370">
        <ele>47.5</ele>
        <time>2021-05-19T06:10:56Z</time>
      </trkpt>
      <trkpt lat="41.9396420" lon="-8.8844270">
        <ele>47.5</ele>
        <time>2021-05-19T06:10:57Z</time>
      </trkpt>
      <trkpt lat="41.9396540" lon="-8.8844190">
        <ele>47.5</ele>
        <time>2021-05-19T06:10:58Z</time>
      </trkpt>
      <trkpt lat="41.9396730" lon="-8.8844230">
        <ele>47.5</ele>
        <time>2021-05-19T06:10:59Z</time>
      </trkpt>
      <trkpt lat="41.9396870" lon="-8.8844210">
        <ele>47.5</ele>
        <time>2021-05-19T06:11:00Z</time>
      </trkpt>
      <trkpt lat="41.9397010" lon="-8.8844150">
        <ele>47.5</ele>
        <time>2021-05-19T06:11:01Z</time>
      </trkpt>
      <trkpt lat="41.9397160" lon="-8.8844120">
        <ele>47.5</ele>
        <time>2021-05-19T06:11:02Z</time>
      </trkpt>
      <trkpt lat="41.9397290" lon="-8.8844020">
        <ele>47.5</ele>
        <time>2021-05-19T06:11:03Z</time>
      </trkpt>
      <trkpt lat="41.9397420" lon="-8.8843980">
        <ele>47.6</ele>
        <time>2021-05-19T06:11:04Z</time>
      </trkpt>
      <trkpt lat="41.9397560" lon="-8.8843970">
        <ele>47.6</ele>
        <time>2021-05-19T06:11:05Z</time>
      </trkpt>
      <trkpt lat="41.9397700" lon="-8.8843890">
        <ele>47.6</ele>
        <time>2021-05-19T06:11:06Z</time>
      </trkpt>
      <trkpt lat="41.9397860" lon="-8.8843900">
        <ele>47.6</ele>
        <time>2021-05-19T06:11:07Z</time>
      </trkpt>
      <trkpt lat="41.9398000" lon="-8.8843810">
        <ele>47.6</ele>
        <time>2021-05-19T06:11:08Z</time>
      </trkpt>
      <trkpt lat="41.9398210" lon="-8.8843750">
        <ele>47.6</ele>
        <time>2021-05-19T06:11:09Z</time>
      </trkpt>
      <trkpt lat="41.9398290" lon="-8.8843730">
        <ele>47.6</ele>
        <time>2021-05-19T06:11:10Z</time>
      </trkpt>
      <trkpt lat="41.9398370" lon="-8.8843710">
        <ele>47.6</ele>
        <time>2021-05-19T06:11:11Z</time>
      </trkpt>
      <trkpt lat="41.9398470" lon="-8.8843760">
        <ele>47.6</ele>
        <time>2021-05-19T06:11:12Z</time>
      </trkpt>
      <trkpt lat="41.9398560" lon="-8.8843660">
        <ele>47.6</ele>
        <time>2021-05-19T06:11:13Z</time>
      </trkpt>
      <trkpt lat="41.9398670" lon="-8.8843620">
        <ele>47.6</ele>
        <time>2021-05-19T06:11:14Z</time>
      </trkpt>
      <trkpt lat="41.9398770" lon="-8.8843620">
        <ele>47.6</ele>
        <time>2021-05-19T06:11:15Z</time>
      </trkpt>
      <trkpt lat="41.9398880" lon="-8.8843650">
        <ele>47.6</ele>
        <time>2021-05-19T06:11:16Z</time>
      </trkpt>
      <trkpt lat="41.9398970" lon="-8.8843610">
        <ele>47.7</ele>
        <time>2021-05-19T06:11:17Z</time>
      </trkpt>
      <trkpt lat="41.9399140" lon="-8.8843580">
        <ele>47.7</ele>
        <time>2021-05-19T06:11:18Z</time>
      </trkpt>
      <trkpt lat="41.9399230" lon="-8.8843560">
        <ele>47.7</ele>
        <time>2021-05-19T06:11:19Z</time>
      </trkpt>
      <trkpt lat="41.9399330" lon="-8.8843530">
        <ele>47.7</ele>
        <time>2021-05-19T06:11:20Z</time>
      </trkpt>
      <trkpt lat="41.9399420" lon="-8.8843500">
        <ele>47.7</ele>
        <time>2021-05-19T06:11:21Z</time>
      </trkpt>
      <trkpt lat="41.9399580" lon="-8.8843480">
        <ele>47.7</ele>
        <time>2021-05-19T06:11:22Z</time>
      </trkpt>
      <trkpt lat="41.9399730" lon="-8.8843450">
        <ele>47.7</ele>
        <time>2021-05-19T06:11:23Z</time>
      </trkpt>
      <trkpt lat="41.9399840" lon="-8.8843380">
        <ele>47.7</ele>
        <time>2021-05-19T06:11:24Z</time>
      </trkpt>
      <trkpt lat="41.9399880" lon="-8.8843400">
        <ele>47.7</ele>
        <time>2021-05-19T06:11:25Z</time>
      </trkpt>
      <trkpt lat="41.9400010" lon="-8.8843320">
        <ele>47.7</ele>
        <time>2021-05-19T06:11:26Z</time>
      </trkpt>
      <trkpt lat="41.9400140" lon="-8.8843310">
        <ele>47.7</ele>
        <time>2021-05-19T06:11:27Z</time>
      </trkpt>
      <trkpt lat="41.9400320" lon="-8.8843280">
        <ele>47.7</ele>
        <time>2021-05-19T06:11:28Z</time>
      </trkpt>
      <trkpt lat="41.9400440" lon="-8.8843210">
        <ele>47.7</ele>
        <time>2021-05-19T06:11:29Z</time>
      </trkpt>
      <trkpt lat="41.9400590" lon="-8.8843180">
        <ele>47.8</ele>
        <time>2021-05-19T06:11:30Z</time>
      </trkpt>
      <trkpt lat="41.9400830" lon="-8.8843160">
        <ele>47.8</ele>
        <time>2021-05-19T06:11:31Z</time>
      </trkpt>
      <trkpt lat="41.9400890" lon="-8.8843120">
        <ele>47.8</ele>
        <time>2021-05-19T06:11:32Z</time>
      </trkpt>
      <trkpt lat="41.9400960" lon="-8.8843090">
        <ele>47.8</ele>
        <time>2021-05-19T06:11:33Z</time>
      </trkpt>
      <trkpt lat="41.9401030" lon="-8.8843010">
        <ele>47.8</ele>
        <time>2021-05-19T06:11:34Z</time>
      </trkpt>
      <trkpt lat="41.9401170" lon="-8.8843010">
        <ele>47.8</ele>
        <time>2021-05-19T06:11:35Z</time>
      </trkpt>
      <trkpt lat="41.9401290" lon="-8.8842920">
        <ele>47.8</ele>
        <time>2021-05-19T06:11:36Z</time>
      </trkpt>
      <trkpt lat="41.9401480" lon="-8.8842910">
        <ele>47.8</ele>
        <time>2021-05-19T06:11:37Z</time>
      </trkpt>
      <trkpt lat="41.9401640" lon="-8.8842890">
        <ele>47.8</ele>
        <time>2021-05-19T06:11:38Z</time>
      </trkpt>
      <trkpt lat="41.9401770" lon="-8.8842810">
        <ele>47.8</ele>
        <time>2021-05-19T06:11:39Z</time>
      </trkpt>
      <trkpt lat="41.9401940" lon="-8.8842870">
        <ele>47.8</ele>
        <time>2021-05-19T06:11:40Z</time>
      </trkpt>
      <trkpt lat="41.9402090" lon="-8.8842840">
        <ele>47.8</ele>
        <time>2021-05-19T06:11:41Z</time>
      </trkpt>
      <trkpt lat="41.9402270" lon="-8.8842800">
        <ele>47.8</ele>
        <time>2021-05-19T06:11:42Z</time>
      </trkpt>
      <trkpt lat="41.9402450" lon="-8.8842780">
        <ele>47.8</ele>
        <time>2021-05-19T06:11:43Z</time>
      </trkpt>
      <trkpt lat="41.9402630" lon="-8.8842750">
        <ele>47.8</ele>
        <time>2021-05-19T06:11:44Z</time>
      </trkpt>
      <trkpt lat="41.9402900" lon="-8.8842720">
        <ele>47.9</ele>
        <time>2021-05-19T06:11:45Z</time>
      </trkpt>
      <trkpt lat="41.9402990" lon="-8.8842690">
        <ele>47.9</ele>
        <time>2021-05-19T06:11:46Z</time>
      </trkpt>
      <trkpt lat="41.9403150" lon="-8.8842640">
        <ele>47.9</ele>
        <time>2021-05-19T06:11:47Z</time>
      </trkpt>
      <trkpt lat="41.9403290" lon="-8.8842580">
        <ele>47.9</ele>
        <time>2021-05-19T06:11:48Z</time>
      </trkpt>
      <trkpt lat="41.9403430" lon="-8.8842500">
        <ele>47.9</ele>
        <time>2021-05-19T06:11:49Z</time>
      </trkpt>
      <trkpt lat="41.9403570" lon="-8.8842460">
        <ele>47.9</ele>
        <time>2021-05-19T06:11:50Z</time>
      </trkpt>
      <trkpt lat="41.9403740" lon="-8.8842410">
        <ele>47.9</ele>
        <time>2021-05-19T06:11:51Z</time>
      </trkpt>
      <trkpt lat="41.9403870" lon="-8.8842380">
        <ele>47.9</ele>
        <time>2021-05-19T06:11:52Z</time>
      </trkpt>
      <trkpt lat="41.9403940" lon="-8.8842330">
        <ele>47.9</ele>
        <time>2021-05-19T06:11:53Z</time>
      </trkpt>
      <trkpt lat="41.9404040" lon="-8.8842300">
        <ele>47.9</ele>
        <time>2021-05-19T06:11:54Z</time>
      </trkpt>
      <trkpt lat="41.9404160" lon="-8.8842250">
        <ele>47.9</ele>
        <time>2021-05-19T06:11:55Z</time>
      </trkpt>
      <trkpt lat="41.9404320" lon="-8.8842210">
        <ele>47.9</ele>
        <time>2021-05-19T06:11:56Z</time>
      </trkpt>
      <trkpt lat="41.9404430" lon="-8.8842170">
        <ele>47.9</ele>
        <time>2021-05-19T06:11:57Z</time>
      </trkpt>
      <trkpt lat="41.9404540" lon="-8.8842150">
        <ele>47.9</ele>
        <time>2021-05-19T06:11:58Z</time>
      </trkpt>
      <trkpt lat="41.9404630" lon="-8.8842110">
        <ele>47.9</ele>
        <time>2021-05-19T06:11:59Z</time>
      </trkpt>
      <trkpt lat="41.9404730" lon="-8.8842010">
        <ele>47.9</ele>
        <time>2021-05-19T06:12:00Z</time>
      </trkpt>
      <trkpt lat="41.9404810" lon="-8.8842010">
        <ele>47.9</ele>
        <time>2021-05-19T06:12:01Z</time>
      </trkpt>
      <trkpt lat="41.9404920" lon="-8.8841910">
        <ele>47.9</ele>
        <time>2021-05-19T06:12:02Z</time>
      </trkpt>
      <trkpt lat="41.9405040" lon="-8.8841880">
        <ele>47.9</ele>
        <time>2021-05-19T06:12:03Z</time>
      </trkpt>
      <trkpt lat="41.9405200" lon="-8.8841840">
        <ele>48.0</ele>
        <time>2021-05-19T06:12:04Z</time>
      </trkpt>
      <trkpt lat="41.9405340" lon="-8.8841830">
        <ele>48.0</ele>
        <time>2021-05-19T06:12:05Z</time>
      </trkpt>
      <trkpt lat="41.9405540" lon="-8.8841750">
        <ele>48.0</ele>
        <time>2021-05-19T06:12:06Z</time>
      </trkpt>
      <trkpt lat="41.9405630" lon="-8.8841730">
        <ele>48.0</ele>
        <time>2021-05-19T06:12:07Z</time>
      </trkpt>
      <trkpt lat="41.9405730" lon="-8.8841710">
        <ele>48.0</ele>
        <time>2021-05-19T06:12:08Z</time>
      </trkpt>
      <trkpt lat="41.9405840" lon="-8.8841740">
        <ele>48.0</ele>
        <time>2021-05-19T06:12:09Z</time>
      </trkpt>
      <trkpt lat="41.9405940" lon="-8.8841710">
        <ele>48.0</ele>
        <time>2021-05-19T06:12:10Z</time>
      </trkpt>
      <trkpt lat="41.9406070" lon="-8.8841660">
        <ele>48.0</ele>
        <time>2021-05-19T06:12:11Z</time>
      </trkpt>
      <trkpt lat="41.9406210" lon="-8.8841600">
        <ele>48.0</ele>
        <time>2021-05-19T06:12:12Z</time>
      </trkpt>
      <trkpt lat="41.9406300" lon="-8.8841550">
        <ele>48.0</ele>
        <time>2021-05-19T06:12:13Z</time>
      </trkpt>
      <trkpt lat="41.9406380" lon="-8.8841500">
        <ele>48.0</ele>
        <time>2021-05-19T06:12:14Z</time>
      </trkpt>
      <trkpt lat="41.9406470" lon="-8.8841450">
        <ele>48.0</ele>
        <time>2021-05-19T06:12:15Z</time>
      </trkpt>
      <trkpt lat="41.9406550" lon="-8.8841400">
        <ele>48.0</ele>
        <time>2021-05-19T06:12:16Z</time>
      </trkpt>
      <trkpt lat="41.9406710" lon="-8.8841440">
        <ele>48.0</ele>
        <time>2021-05-19T06:12:17Z</time>
      </trkpt>
      <trkpt lat="41.9406790" lon="-8.8841430">
        <ele>48.0</ele>
        <time>2021-05-19T06:12:18Z</time>
      </trkpt>
      <trkpt lat="41.9406860" lon="-8.8841420">
        <ele>48.0</ele>
        <time>2021-05-19T06:12:19Z</time>
      </trkpt>
      <trkpt lat="41.9406930" lon="-8.8841410">
        <ele>48.1</ele>
        <time>2021-05-19T06:12:20Z</time>
      </trkpt>
      <trkpt lat="41.9407060" lon="-8.8841490">
        <ele>47.9</ele>
        <time>2021-05-19T06:12:21Z</time>
      </trkpt>
      <trkpt lat="41.9407110" lon="-8.8841550">
        <ele>47.8</ele>
        <time>2021-05-19T06:12:22Z</time>
      </trkpt>
      <trkpt lat="41.9407150" lon="-8.8841600">
        <ele>47.8</ele>
        <time>2021-05-19T06:12:23Z</time>
      </trkpt>
      <trkpt lat="41.9407200" lon="-8.8841660">
        <ele>47.8</ele>
        <time>2021-05-19T06:12:24Z</time>
      </trkpt>
      <trkpt lat="41.9407250" lon="-8.8841710">
        <ele>47.7</ele>
        <time>2021-05-19T06:12:25Z</time>
      </trkpt>
      <trkpt lat="41.9407260" lon="-8.8841890">
        <ele>47.6</ele>
        <time>2021-05-19T06:12:26Z</time>
      </trkpt>
      <trkpt lat="41.9407260" lon="-8.8841980">
        <ele>47.6</ele>
        <time>2021-05-19T06:12:27Z</time>
      </trkpt>
      <trkpt lat="41.9407250" lon="-8.8842060">
        <ele>47.6</ele>
        <time>2021-05-19T06:12:28Z</time>
      </trkpt>
      <trkpt lat="41.9407250" lon="-8.8842150">
        <ele>47.5</ele>
        <time>2021-05-19T06:12:29Z</time>
      </trkpt>
      <trkpt lat="41.9407240" lon="-8.8842230">
        <ele>47.5</ele>
        <time>2021-05-19T06:12:30Z</time>
      </trkpt>
      <trkpt lat="41.9407230" lon="-8.8842270">
        <ele>47.5</ele>
        <time>2021-05-19T06:12:31Z</time>
      </trkpt>
      <trkpt lat="41.9407250" lon="-8.8842350">
        <ele>47.4</ele>
        <time>2021-05-19T06:12:32Z</time>
      </trkpt>
      <trkpt lat="41.9407200" lon="-8.8842580">
        <ele>47.3</ele>
        <time>2021-05-19T06:12:33Z</time>
      </trkpt>
      <trkpt lat="41.9407180" lon="-8.8842700">
        <ele>47.2</ele>
        <time>2021-05-19T06:12:34Z</time>
      </trkpt>
      <trkpt lat="41.9407150" lon="-8.8842830">
        <ele>47.2</ele>
        <time>2021-05-19T06:12:35Z</time>
      </trkpt>
      <trkpt lat="41.9407100" lon="-8.8843000">
        <ele>47.1</ele>
        <time>2021-05-19T06:12:36Z</time>
      </trkpt>
      <trkpt lat="41.9407070" lon="-8.8843120">
        <ele>47.0</ele>
        <time>2021-05-19T06:12:37Z</time>
      </trkpt>
      <trkpt lat="41.9407070" lon="-8.8843390">
        <ele>46.9</ele>
        <time>2021-05-19T06:12:38Z</time>
      </trkpt>
      <trkpt lat="41.9407090" lon="-8.8843470">
        <ele>46.9</ele>
        <time>2021-05-19T06:12:39Z</time>
      </trkpt>
      <trkpt lat="41.9407100" lon="-8.8843550">
        <ele>46.8</ele>
        <time>2021-05-19T06:12:40Z</time>
      </trkpt>
      <trkpt lat="41.9407110" lon="-8.8843630">
        <ele>46.8</ele>
        <time>2021-05-19T06:12:41Z</time>
      </trkpt>
      <trkpt lat="41.9407130" lon="-8.8843790">
        <ele>46.4</ele>
        <time>2021-05-19T06:12:42Z</time>
      </trkpt>
      <trkpt lat="41.9407280" lon="-8.8843970">
        <ele>46.3</ele>
        <time>2021-05-19T06:12:43Z</time>
      </trkpt>
      <trkpt lat="41.9407410" lon="-8.8844140">
        <ele>46.2</ele>
        <time>2021-05-19T06:12:44Z</time>
      </trkpt>
      <trkpt lat="41.9407490" lon="-8.8844210">
        <ele>46.1</ele>
        <time>2021-05-19T06:12:45Z</time>
      </trkpt>
      <trkpt lat="41.9407580" lon="-8.8844270">
        <ele>46.0</ele>
        <time>2021-05-19T06:12:46Z</time>
      </trkpt>
      <trkpt lat="41.9407680" lon="-8.8844310">
        <ele>46.0</ele>
        <time>2021-05-19T06:12:47Z</time>
      </trkpt>
      <trkpt lat="41.9407780" lon="-8.8844330">
        <ele>45.9</ele>
        <time>2021-05-19T06:12:48Z</time>
      </trkpt>
      <trkpt lat="41.9407900" lon="-8.8844400">
        <ele>45.8</ele>
        <time>2021-05-19T06:12:49Z</time>
      </trkpt>
      <trkpt lat="41.9407820" lon="-8.8844440">
        <ele>45.8</ele>
        <time>2021-05-19T06:12:50Z</time>
      </trkpt>
      <trkpt lat="41.9407930" lon="-8.8844500">
        <ele>45.7</ele>
        <time>2021-05-19T06:12:51Z</time>
      </trkpt>
      <trkpt lat="41.9408010" lon="-8.8844540">
        <ele>45.7</ele>
        <time>2021-05-19T06:12:52Z</time>
      </trkpt>
      <trkpt lat="41.9408030" lon="-8.8844530">
        <ele>45.7</ele>
        <time>2021-05-19T06:12:53Z</time>
      </trkpt>
      <trkpt lat="41.9408040" lon="-8.8844520">
        <ele>45.7</ele>
        <time>2021-05-19T06:12:54Z</time>
      </trkpt>
      <trkpt lat="41.9408050" lon="-8.8844520">
        <ele>45.7</ele>
        <time>2021-05-19T06:12:55Z</time>
      </trkpt>
      <trkpt lat="41.9408070" lon="-8.8844520">
        <ele>45.6</ele>
        <time>2021-05-19T06:12:56Z</time>
      </trkpt>
      <trkpt lat="41.9408080" lon="-8.8844520">
        <ele>45.6</ele>
        <time>2021-05-19T06:12:57Z</time>
      </trkpt>
      <trkpt lat="41.9408090" lon="-8.8844510">
        <ele>45.6</ele>
        <time>2021-05-19T06:12:58Z</time>
      </trkpt>
      <trkpt lat="41.9408100" lon="-8.8844510">
        <ele>45.6</ele>
        <time>2021-05-19T06:12:59Z</time>
      </trkpt>
      <trkpt lat="41.9408110" lon="-8.8844510">
        <ele>45.6</ele>
        <time>2021-05-19T06:13:00Z</time>
      </trkpt>
      <trkpt lat="41.9408120" lon="-8.8844510">
        <ele>45.6</ele>
        <time>2021-05-19T06:13:01Z</time>
      </trkpt>
      <trkpt lat="41.9408140" lon="-8.8844500">
        <ele>45.6</ele>
        <time>2021-05-19T06:13:02Z</time>
      </trkpt>
      <trkpt lat="41.9408150" lon="-8.8844500">
        <ele>45.6</ele>
        <time>2021-05-19T06:13:03Z</time>
      </trkpt>
      <trkpt lat="41.9408160" lon="-8.8844500">
        <ele>45.6</ele>
        <time>2021-05-19T06:13:04Z</time>
      </trkpt>
      <trkpt lat="41.9408170" lon="-8.8844500">
        <ele>45.6</ele>
        <time>2021-05-19T06:13:05Z</time>
      </trkpt>
      <trkpt lat="41.9408180" lon="-8.8844490">
        <ele>45.6</ele>
        <time>2021-05-19T06:13:06Z</time>
      </trkpt>
      <trkpt lat="41.9408190" lon="-8.8844490">
        <ele>45.6</ele>
        <time>2021-05-19T06:13:07Z</time>
      </trkpt>
      <trkpt lat="41.9408210" lon="-8.8844490">
        <ele>45.6</ele>
        <time>2021-05-19T06:13:08Z</time>
      </trkpt>
      <trkpt lat="41.9408220" lon="-8.8844490">
        <ele>45.6</ele>
        <time>2021-05-19T06:13:09Z</time>
      </trkpt>
      <trkpt lat="41.9408230" lon="-8.8844480">
        <ele>45.6</ele>
        <time>2021-05-19T06:13:10Z</time>
      </trkpt>
      <trkpt lat="41.9408240" lon="-8.8844480">
        <ele>45.5</ele>
        <time>2021-05-19T06:13:11Z</time>
      </trkpt>
      <trkpt lat="41.9408250" lon="-8.8844480">
        <ele>45.5</ele>
        <time>2021-05-19T06:13:12Z</time>
      </trkpt>
      <trkpt lat="41.9408260" lon="-8.8844470">
        <ele>45.5</ele>
        <time>2021-05-19T06:13:13Z</time>
      </trkpt>
      <trkpt lat="41.9408270" lon="-8.8844470">
        <ele>45.5</ele>
        <time>2021-05-19T06:13:14Z</time>
      </trkpt>
      <trkpt lat="41.9408290" lon="-8.8844470">
        <ele>45.5</ele>
        <time>2021-05-19T06:13:15Z</time>
      </trkpt>
      <trkpt lat="41.9408300" lon="-8.8844470">
        <ele>45.5</ele>
        <time>2021-05-19T06:13:16Z</time>
      </trkpt>
      <trkpt lat="41.9408310" lon="-8.8844460">
        <ele>45.5</ele>
        <time>2021-05-19T06:13:17Z</time>
      </trkpt>
      <trkpt lat="41.9408320" lon="-8.8844460">
        <ele>45.5</ele>
        <time>2021-05-19T06:13:18Z</time>
      </trkpt>
      <trkpt lat="41.9408330" lon="-8.8844460">
        <ele>45.5</ele>
        <time>2021-05-19T06:13:19Z</time>
      </trkpt>
      <trkpt lat="41.9408340" lon="-8.8844460">
        <ele>45.5</ele>
        <time>2021-05-19T06:13:20Z</time>
      </trkpt>
      <trkpt lat="41.9408360" lon="-8.8844450">
        <ele>45.5</ele>
        <time>2021-05-19T06:13:21Z</time>
      </trkpt>
      <trkpt lat="41.9408370" lon="-8.8844450">
        <ele>45.5</ele>
        <time>2021-05-19T06:13:22Z</time>
      </trkpt>
      <trkpt lat="41.9408380" lon="-8.8844450">
        <ele>45.5</ele>
        <time>2021-05-19T06:13:23Z</time>
      </trkpt>
      <trkpt lat="41.9408390" lon="-8.8844450">
        <ele>45.5</ele>
        <time>2021-05-19T06:13:24Z</time>
      </trkpt>
      <trkpt lat="41.9408400" lon="-8.8844440">
        <ele>45.5</ele>
        <time>2021-05-19T06:13:25Z</time>
      </trkpt>
      <trkpt lat="41.9408410" lon="-8.8844440">
        <ele>45.4</ele>
        <time>2021-05-19T06:13:26Z</time>
      </trkpt>
      <trkpt lat="41.9408430" lon="-8.8844440">
        <ele>45.4</ele>
        <time>2021-05-19T06:13:27Z</time>
      </trkpt>
      <trkpt lat="41.9408440" lon="-8.8844440">
        <ele>45.4</ele>
        <time>2021-05-19T06:13:28Z</time>
      </trkpt>
      <trkpt lat="41.9408450" lon="-8.8844430">
        <ele>45.4</ele>
        <time>2021-05-19T06:13:29Z</time>
      </trkpt>
      <trkpt lat="41.9408460" lon="-8.8844430">
        <ele>45.4</ele>
        <time>2021-05-19T06:13:30Z</time>
      </trkpt>
      <trkpt lat="41.9408580" lon="-8.8844420">
        <ele>45.4</ele>
        <time>2021-05-19T06:13:31Z</time>
      </trkpt>
      <trkpt lat="41.9408690" lon="-8.8844370">
        <ele>45.3</ele>
        <time>2021-05-19T06:13:32Z</time>
      </trkpt>
      <trkpt lat="41.9408820" lon="-8.8844410">
        <ele>45.2</ele>
        <time>2021-05-19T06:13:33Z</time>
      </trkpt>
      <trkpt lat="41.9408860" lon="-8.8844390">
        <ele>45.2</ele>
        <time>2021-05-19T06:13:34Z</time>
      </trkpt>
      <trkpt lat="41.9408900" lon="-8.8844370">
        <ele>45.2</ele>
        <time>2021-05-19T06:13:35Z</time>
      </trkpt>
      <trkpt lat="41.9408850" lon="-8.8844370">
        <ele>45.1</ele>
        <time>2021-05-19T06:13:36Z</time>
      </trkpt>
      <trkpt lat="41.9408960" lon="-8.8844380">
        <ele>45.1</ele>
        <time>2021-05-19T06:13:37Z</time>
      </trkpt>
      <trkpt lat="41.9409090" lon="-8.8844330">
        <ele>45.0</ele>
        <time>2021-05-19T06:13:38Z</time>
      </trkpt>
      <trkpt lat="41.9409180" lon="-8.8844310">
        <ele>45.0</ele>
        <time>2021-05-19T06:13:39Z</time>
      </trkpt>
      <trkpt lat="41.9409230" lon="-8.8844210">
        <ele>44.9</ele>
        <time>2021-05-19T06:13:40Z</time>
      </trkpt>
      <trkpt lat="41.9409380" lon="-8.8844170">
        <ele>44.8</ele>
        <time>2021-05-19T06:13:41Z</time>
      </trkpt>
      <trkpt lat="41.9409500" lon="-8.8844070">
        <ele>44.8</ele>
        <time>2021-05-19T06:13:42Z</time>
      </trkpt>
      <trkpt lat="41.9409620" lon="-8.8844010">
        <ele>44.7</ele>
        <time>2021-05-19T06:13:43Z</time>
      </trkpt>
      <trkpt lat="41.9409800" lon="-8.8843830">
        <ele>44.6</ele>
        <time>2021-05-19T06:13:44Z</time>
      </trkpt>
      <trkpt lat="41.9409870" lon="-8.8843750">
        <ele>44.5</ele>
        <time>2021-05-19T06:13:45Z</time>
      </trkpt>
      <trkpt lat="41.9409940" lon="-8.8843680">
        <ele>44.5</ele>
        <time>2021-05-19T06:13:46Z</time>
      </trkpt>
      <trkpt lat="41.9410030" lon="-8.8843660">
        <ele>44.4</ele>
        <time>2021-05-19T06:13:47Z</time>
      </trkpt>
      <trkpt lat="41.9410110" lon="-8.8843610">
        <ele>44.4</ele>
        <time>2021-05-19T06:13:48Z</time>
      </trkpt>
      <trkpt lat="41.9410080" lon="-8.8843630">
        <ele>44.4</ele>
        <time>2021-05-19T06:13:49Z</time>
      </trkpt>
      <trkpt lat="41.9410040" lon="-8.8843630">
        <ele>44.4</ele>
        <time>2021-05-19T06:13:50Z</time>
      </trkpt>
      <trkpt lat="41.9410120" lon="-8.8843630">
        <ele>44.3</ele>
        <time>2021-05-19T06:13:51Z</time>
      </trkpt>
      <trkpt lat="41.9410230" lon="-8.8843560">
        <ele>44.3</ele>
        <time>2021-05-19T06:13:52Z</time>
      </trkpt>
      <trkpt lat="41.9410350" lon="-8.8843440">
        <ele>44.2</ele>
        <time>2021-05-19T06:13:53Z</time>
      </trkpt>
      <trkpt lat="41.9410460" lon="-8.8843380">
        <ele>44.1</ele>
        <time>2021-05-19T06:13:54Z</time>
      </trkpt>
      <trkpt lat="41.9410550" lon="-8.8843320">
        <ele>44.1</ele>
        <time>2021-05-19T06:13:55Z</time>
      </trkpt>
      <trkpt lat="41.9410600" lon="-8.8843240">
        <ele>44.0</ele>
        <time>2021-05-19T06:13:56Z</time>
      </trkpt>
      <trkpt lat="41.9410720" lon="-8.8843140">
        <ele>44.0</ele>
        <time>2021-05-19T06:13:57Z</time>
      </trkpt>
      <trkpt lat="41.9410720" lon="-8.8843030">
        <ele>44.0</ele>
        <time>2021-05-19T06:13:58Z</time>
      </trkpt>
      <trkpt lat="41.9410820" lon="-8.8842940">
        <ele>43.9</ele>
        <time>2021-05-19T06:13:59Z</time>
      </trkpt>
      <trkpt lat="41.9410900" lon="-8.8842870">
        <ele>43.9</ele>
        <time>2021-05-19T06:14:00Z</time>
      </trkpt>
      <trkpt lat="41.9410980" lon="-8.8842810">
        <ele>43.8</ele>
        <time>2021-05-19T06:14:01Z</time>
      </trkpt>
      <trkpt lat="41.9411070" lon="-8.8842770">
        <ele>43.8</ele>
        <time>2021-05-19T06:14:02Z</time>
      </trkpt>
      <trkpt lat="41.9411190" lon="-8.8842710">
        <ele>43.8</ele>
        <time>2021-05-19T06:14:03Z</time>
      </trkpt>
      <trkpt lat="41.9411310" lon="-8.8842620">
        <ele>43.7</ele>
        <time>2021-05-19T06:14:04Z</time>
      </trkpt>
      <trkpt lat="41.9411400" lon="-8.8842540">
        <ele>43.7</ele>
        <time>2021-05-19T06:14:05Z</time>
      </trkpt>
      <trkpt lat="41.9411500" lon="-8.8842480">
        <ele>43.6</ele>
        <time>2021-05-19T06:14:06Z</time>
      </trkpt>
      <trkpt lat="41.9411630" lon="-8.8842450">
        <ele>43.6</ele>
        <time>2021-05-19T06:14:07Z</time>
      </trkpt>
      <trkpt lat="41.9411740" lon="-8.8842430">
        <ele>43.6</ele>
        <time>2021-05-19T06:14:08Z</time>
      </trkpt>
      <trkpt lat="41.9411850" lon="-8.8842390">
        <ele>43.5</ele>
        <time>2021-05-19T06:14:09Z</time>
      </trkpt>
      <trkpt lat="41.9411920" lon="-8.8842300">
        <ele>43.5</ele>
        <time>2021-05-19T06:14:10Z</time>
      </trkpt>
      <trkpt lat="41.9412030" lon="-8.8842270">
        <ele>43.5</ele>
        <time>2021-05-19T06:14:11Z</time>
      </trkpt>
      <trkpt lat="41.9412110" lon="-8.8842180">
        <ele>43.4</ele>
        <time>2021-05-19T06:14:12Z</time>
      </trkpt>
      <trkpt lat="41.9412250" lon="-8.8842120">
        <ele>43.4</ele>
        <time>2021-05-19T06:14:13Z</time>
      </trkpt>
      <trkpt lat="41.9412330" lon="-8.8842080">
        <ele>43.4</ele>
        <time>2021-05-19T06:14:14Z</time>
      </trkpt>
      <trkpt lat="41.9412430" lon="-8.8841970">
        <ele>43.3</ele>
        <time>2021-05-19T06:14:15Z</time>
      </trkpt>
      <trkpt lat="41.9412510" lon="-8.8841930">
        <ele>43.3</ele>
        <time>2021-05-19T06:14:16Z</time>
      </trkpt>
      <trkpt lat="41.9412680" lon="-8.8841770">
        <ele>43.2</ele>
        <time>2021-05-19T06:14:17Z</time>
      </trkpt>
      <trkpt lat="41.9412770" lon="-8.8841720">
        <ele>43.2</ele>
        <time>2021-05-19T06:14:18Z</time>
      </trkpt>
      <trkpt lat="41.9412860" lon="-8.8841670">
        <ele>43.2</ele>
        <time>2021-05-19T06:14:19Z</time>
      </trkpt>
      <trkpt lat="41.9413030" lon="-8.8841550">
        <ele>43.1</ele>
        <time>2021-05-19T06:14:20Z</time>
      </trkpt>
      <trkpt lat="41.9413110" lon="-8.8841500">
        <ele>43.1</ele>
        <time>2021-05-19T06:14:21Z</time>
      </trkpt>
      <trkpt lat="41.9413190" lon="-8.8841450">
        <ele>43.0</ele>
        <time>2021-05-19T06:14:22Z</time>
      </trkpt>
      <trkpt lat="41.9413390" lon="-8.8841350">
        <ele>42.9</ele>
        <time>2021-05-19T06:14:23Z</time>
      </trkpt>
      <trkpt lat="41.9413460" lon="-8.8841300">
        <ele>42.9</ele>
        <time>2021-05-19T06:14:24Z</time>
      </trkpt>
      <trkpt lat="41.9413530" lon="-8.8841240">
        <ele>42.9</ele>
        <time>2021-05-19T06:14:25Z</time>
      </trkpt>
      <trkpt lat="41.9413670" lon="-8.8841170">
        <ele>42.8</ele>
        <time>2021-05-19T06:14:26Z</time>
      </trkpt>
      <trkpt lat="41.9413800" lon="-8.8841080">
        <ele>42.8</ele>
        <time>2021-05-19T06:14:27Z</time>
      </trkpt>
      <trkpt lat="41.9413880" lon="-8.8841090">
        <ele>42.7</ele>
        <time>2021-05-19T06:14:28Z</time>
      </trkpt>
      <trkpt lat="41.9413970" lon="-8.8840970">
        <ele>42.7</ele>
        <time>2021-05-19T06:14:29Z</time>
      </trkpt>
      <trkpt lat="41.9414090" lon="-8.8840980">
        <ele>42.6</ele>
        <time>2021-05-19T06:14:30Z</time>
      </trkpt>
      <trkpt lat="41.9414180" lon="-8.8840920">
        <ele>42.6</ele>
        <time>2021-05-19T06:14:31Z</time>
      </trkpt>
      <trkpt lat="41.9414320" lon="-8.8840800">
        <ele>42.5</ele>
        <time>2021-05-19T06:14:32Z</time>
      </trkpt>
      <trkpt lat="41.9414370" lon="-8.8840750">
        <ele>42.5</ele>
        <time>2021-05-19T06:14:33Z</time>
      </trkpt>
      <trkpt lat="41.9414620" lon="-8.8840660">
        <ele>42.4</ele>
        <time>2021-05-19T06:14:34Z</time>
      </trkpt>
      <trkpt lat="41.9414670" lon="-8.8840620">
        <ele>42.4</ele>
        <time>2021-05-19T06:14:35Z</time>
      </trkpt>
      <trkpt lat="41.9414730" lon="-8.8840570">
        <ele>42.4</ele>
        <time>2021-05-19T06:14:36Z</time>
      </trkpt>
      <trkpt lat="41.9414920" lon="-8.8840460">
        <ele>42.3</ele>
        <time>2021-05-19T06:14:37Z</time>
      </trkpt>
      <trkpt lat="41.9415030" lon="-8.8840410">
        <ele>42.2</ele>
        <time>2021-05-19T06:14:38Z</time>
      </trkpt>
      <trkpt lat="41.9415150" lon="-8.8840370">
        <ele>42.2</ele>
        <time>2021-05-19T06:14:39Z</time>
      </trkpt>
      <trkpt lat="41.9415290" lon="-8.8840360">
        <ele>42.2</ele>
        <time>2021-05-19T06:14:40Z</time>
      </trkpt>
      <trkpt lat="41.9415470" lon="-8.8840310">
        <ele>42.1</ele>
        <time>2021-05-19T06:14:41Z</time>
      </trkpt>
      <trkpt lat="41.9415600" lon="-8.8840160">
        <ele>42.1</ele>
        <time>2021-05-19T06:14:42Z</time>
      </trkpt>
      <trkpt lat="41.9415720" lon="-8.8840140">
        <ele>42.0</ele>
        <time>2021-05-19T06:14:43Z</time>
      </trkpt>
      <trkpt lat="41.9415860" lon="-8.8840110">
        <ele>42.0</ele>
        <time>2021-05-19T06:14:44Z</time>
      </trkpt>
      <trkpt lat="41.9415980" lon="-8.8840000">
        <ele>41.9</ele>
        <time>2021-05-19T06:14:45Z</time>
      </trkpt>
      <trkpt lat="41.9416070" lon="-8.8840000">
        <ele>41.9</ele>
        <time>2021-05-19T06:14:46Z</time>
      </trkpt>
      <trkpt lat="41.9416190" lon="-8.8839960">
        <ele>41.9</ele>
        <time>2021-05-19T06:14:47Z</time>
      </trkpt>
      <trkpt lat="41.9416300" lon="-8.8839840">
        <ele>41.8</ele>
        <time>2021-05-19T06:14:48Z</time>
      </trkpt>
      <trkpt lat="41.9416440" lon="-8.8839820">
        <ele>41.8</ele>
        <time>2021-05-19T06:14:49Z</time>
      </trkpt>
      <trkpt lat="41.9416480" lon="-8.8839730">
        <ele>41.8</ele>
        <time>2021-05-19T06:14:50Z</time>
      </trkpt>
      <trkpt lat="41.9416600" lon="-8.8839740">
        <ele>41.7</ele>
        <time>2021-05-19T06:14:51Z</time>
      </trkpt>
      <trkpt lat="41.9416800" lon="-8.8839730">
        <ele>41.7</ele>
        <time>2021-05-19T06:14:52Z</time>
      </trkpt>
      <trkpt lat="41.9416910" lon="-8.8839650">
        <ele>41.6</ele>
        <time>2021-05-19T06:14:53Z</time>
      </trkpt>
      <trkpt lat="41.9417070" lon="-8.8839540">
        <ele>41.6</ele>
        <time>2021-05-19T06:14:54Z</time>
      </trkpt>
      <trkpt lat="41.9417220" lon="-8.8839460">
        <ele>41.5</ele>
        <time>2021-05-19T06:14:55Z</time>
      </trkpt>
      <trkpt lat="41.9417400" lon="-8.8839470">
        <ele>41.5</ele>
        <time>2021-05-19T06:14:56Z</time>
      </trkpt>
      <trkpt lat="41.9417500" lon="-8.8839440">
        <ele>41.5</ele>
        <time>2021-05-19T06:14:57Z</time>
      </trkpt>
      <trkpt lat="41.9417680" lon="-8.8839280">
        <ele>41.4</ele>
        <time>2021-05-19T06:14:58Z</time>
      </trkpt>
      <trkpt lat="41.9417780" lon="-8.8839240">
        <ele>41.4</ele>
        <time>2021-05-19T06:14:59Z</time>
      </trkpt>
      <trkpt lat="41.9417890" lon="-8.8839200">
        <ele>41.3</ele>
        <time>2021-05-19T06:15:00Z</time>
      </trkpt>
      <trkpt lat="41.9418040" lon="-8.8839110">
        <ele>41.2</ele>
        <time>2021-05-19T06:15:01Z</time>
      </trkpt>
      <trkpt lat="41.9418140" lon="-8.8839110">
        <ele>41.2</ele>
        <time>2021-05-19T06:15:02Z</time>
      </trkpt>
      <trkpt lat="41.9418230" lon="-8.8839120">
        <ele>41.2</ele>
        <time>2021-05-19T06:15:03Z</time>
      </trkpt>
      <trkpt lat="41.9418420" lon="-8.8839040">
        <ele>41.1</ele>
        <time>2021-05-19T06:15:04Z</time>
      </trkpt>
      <trkpt lat="41.9418540" lon="-8.8838960">
        <ele>41.0</ele>
        <time>2021-05-19T06:15:05Z</time>
      </trkpt>
      <trkpt lat="41.9418660" lon="-8.8838890">
        <ele>41.0</ele>
        <time>2021-05-19T06:15:06Z</time>
      </trkpt>
      <trkpt lat="41.9418730" lon="-8.8838840">
        <ele>41.0</ele>
        <time>2021-05-19T06:15:07Z</time>
      </trkpt>
      <trkpt lat="41.9418870" lon="-8.8838850">
        <ele>40.9</ele>
        <time>2021-05-19T06:15:08Z</time>
      </trkpt>
      <trkpt lat="41.9418990" lon="-8.8838770">
        <ele>40.9</ele>
        <time>2021-05-19T06:15:09Z</time>
      </trkpt>
      <trkpt lat="41.9419060" lon="-8.8838670">
        <ele>40.8</ele>
        <time>2021-05-19T06:15:10Z</time>
      </trkpt>
      <trkpt lat="41.9419220" lon="-8.8838610">
        <ele>40.7</ele>
        <time>2021-05-19T06:15:11Z</time>
      </trkpt>
      <trkpt lat="41.9419290" lon="-8.8838560">
        <ele>40.7</ele>
        <time>2021-05-19T06:15:12Z</time>
      </trkpt>
      <trkpt lat="41.9419410" lon="-8.8838560">
        <ele>40.7</ele>
        <time>2021-05-19T06:15:13Z</time>
      </trkpt>
      <trkpt lat="41.9419570" lon="-8.8838540">
        <ele>40.6</ele>
        <time>2021-05-19T06:15:14Z</time>
      </trkpt>
      <trkpt lat="41.9419780" lon="-8.8838390">
        <ele>40.5</ele>
        <time>2021-05-19T06:15:15Z</time>
      </trkpt>
      <trkpt lat="41.9419840" lon="-8.8838350">
        <ele>40.5</ele>
        <time>2021-05-19T06:15:16Z</time>
      </trkpt>
      <trkpt lat="41.9419890" lon="-8.8838300">
        <ele>40.4</ele>
        <time>2021-05-19T06:15:17Z</time>
      </trkpt>
      <trkpt lat="41.9419950" lon="-8.8838220">
        <ele>40.4</ele>
        <time>2021-05-19T06:15:18Z</time>
      </trkpt>
      <trkpt lat="41.9420080" lon="-8.8838190">
        <ele>40.4</ele>
        <time>2021-05-19T06:15:19Z</time>
      </trkpt>
      <trkpt lat="41.9420200" lon="-8.8838120">
        <ele>40.3</ele>
        <time>2021-05-19T06:15:20Z</time>
      </trkpt>
      <trkpt lat="41.9420400" lon="-8.8838050">
        <ele>40.2</ele>
        <time>2021-05-19T06:15:21Z</time>
      </trkpt>
      <trkpt lat="41.9420480" lon="-8.8838010">
        <ele>40.2</ele>
        <time>2021-05-19T06:15:22Z</time>
      </trkpt>
      <trkpt lat="41.9420560" lon="-8.8837960">
        <ele>40.2</ele>
        <time>2021-05-19T06:15:23Z</time>
      </trkpt>
      <trkpt lat="41.9420720" lon="-8.8837860">
        <ele>40.1</ele>
        <time>2021-05-19T06:15:24Z</time>
      </trkpt>
      <trkpt lat="41.9420840" lon="-8.8837810">
        <ele>40.1</ele>
        <time>2021-05-19T06:15:25Z</time>
      </trkpt>
      <trkpt lat="41.9421030" lon="-8.8837730">
        <ele>40.1</ele>
        <time>2021-05-19T06:15:26Z</time>
      </trkpt>
      <trkpt lat="41.9421110" lon="-8.8837710">
        <ele>40.0</ele>
        <time>2021-05-19T06:15:27Z</time>
      </trkpt>
      <trkpt lat="41.9421290" lon="-8.8837590">
        <ele>40.0</ele>
        <time>2021-05-19T06:15:28Z</time>
      </trkpt>
      <trkpt lat="41.9421440" lon="-8.8837630">
        <ele>40.0</ele>
        <time>2021-05-19T06:15:29Z</time>
      </trkpt>
      <trkpt lat="41.9421640" lon="-8.8837560">
        <ele>39.9</ele>
        <time>2021-05-19T06:15:30Z</time>
      </trkpt>
      <trkpt lat="41.9421750" lon="-8.8837500">
        <ele>39.9</ele>
        <time>2021-05-19T06:15:31Z</time>
      </trkpt>
      <trkpt lat="41.9421960" lon="-8.8837460">
        <ele>39.9</ele>
        <time>2021-05-19T06:15:32Z</time>
      </trkpt>
      <trkpt lat="41.9422060" lon="-8.8837450">
        <ele>39.8</ele>
        <time>2021-05-19T06:15:33Z</time>
      </trkpt>
      <trkpt lat="41.9422160" lon="-8.8837450">
        <ele>39.8</ele>
        <time>2021-05-19T06:15:34Z</time>
      </trkpt>
      <trkpt lat="41.9422370" lon="-8.8837460">
        <ele>39.8</ele>
        <time>2021-05-19T06:15:35Z</time>
      </trkpt>
      <trkpt lat="41.9422460" lon="-8.8837370">
        <ele>39.8</ele>
        <time>2021-05-19T06:15:36Z</time>
      </trkpt>
      <trkpt lat="41.9422530" lon="-8.8837370">
        <ele>39.8</ele>
        <time>2021-05-19T06:15:37Z</time>
      </trkpt>
      <trkpt lat="41.9422650" lon="-8.8837380">
        <ele>39.8</ele>
        <time>2021-05-19T06:15:38Z</time>
      </trkpt>
      <trkpt lat="41.9422780" lon="-8.8837360">
        <ele>39.8</ele>
        <time>2021-05-19T06:15:39Z</time>
      </trkpt>
      <trkpt lat="41.9422950" lon="-8.8837370">
        <ele>39.7</ele>
        <time>2021-05-19T06:15:40Z</time>
      </trkpt>
      <trkpt lat="41.9423040" lon="-8.8837370">
        <ele>39.7</ele>
        <time>2021-05-19T06:15:41Z</time>
      </trkpt>
      <trkpt lat="41.9423120" lon="-8.8837380">
        <ele>39.7</ele>
        <time>2021-05-19T06:15:42Z</time>
      </trkpt>
      <trkpt lat="41.9423210" lon="-8.8837390">
        <ele>39.7</ele>
        <time>2021-05-19T06:15:43Z</time>
      </trkpt>
      <trkpt lat="41.9423400" lon="-8.8837280">
        <ele>39.7</ele>
        <time>2021-05-19T06:15:44Z</time>
      </trkpt>
      <trkpt lat="41.9423500" lon="-8.8837210">
        <ele>39.7</ele>
        <time>2021-05-19T06:15:45Z</time>
      </trkpt>
      <trkpt lat="41.9423590" lon="-8.8837150">
        <ele>39.6</ele>
        <time>2021-05-19T06:15:46Z</time>
      </trkpt>
      <trkpt lat="41.9423670" lon="-8.8837070">
        <ele>39.6</ele>
        <time>2021-05-19T06:15:47Z</time>
      </trkpt>
      <trkpt lat="41.9423770" lon="-8.8836940">
        <ele>39.6</ele>
        <time>2021-05-19T06:15:48Z</time>
      </trkpt>
      <trkpt lat="41.9423840" lon="-8.8836900">
        <ele>39.6</ele>
        <time>2021-05-19T06:15:49Z</time>
      </trkpt>
      <trkpt lat="41.9423970" lon="-8.8836810">
        <ele>39.6</ele>
        <time>2021-05-19T06:15:50Z</time>
      </trkpt>
      <trkpt lat="41.9424140" lon="-8.8836780">
        <ele>39.6</ele>
        <time>2021-05-19T06:15:51Z</time>
      </trkpt>
      <trkpt lat="41.9424250" lon="-8.8836690">
        <ele>39.6</ele>
        <time>2021-05-19T06:15:52Z</time>
      </trkpt>
      <trkpt lat="41.9424390" lon="-8.8836570">
        <ele>39.6</ele>
        <time>2021-05-19T06:15:53Z</time>
      </trkpt>
      <trkpt lat="41.9424480" lon="-8.8836480">
        <ele>39.5</ele>
        <time>2021-05-19T06:15:54Z</time>
      </trkpt>
      <trkpt lat="41.9424610" lon="-8.8836360">
        <ele>39.5</ele>
        <time>2021-05-19T06:15:55Z</time>
      </trkpt>
      <trkpt lat="41.9424690" lon="-8.8836270">
        <ele>39.5</ele>
        <time>2021-05-19T06:15:56Z</time>
      </trkpt>
      <trkpt lat="41.9424780" lon="-8.8836200">
        <ele>39.5</ele>
        <time>2021-05-19T06:15:57Z</time>
      </trkpt>
      <trkpt lat="41.9424930" lon="-8.8836150">
        <ele>39.5</ele>
        <time>2021-05-19T06:15:58Z</time>
      </trkpt>
      <trkpt lat="41.9425010" lon="-8.8836030">
        <ele>39.5</ele>
        <time>2021-05-19T06:15:59Z</time>
      </trkpt>
      <trkpt lat="41.9425150" lon="-8.8835930">
        <ele>39.5</ele>
        <time>2021-05-19T06:16:00Z</time>
      </trkpt>
      <trkpt lat="41.9425240" lon="-8.8835800">
        <ele>39.5</ele>
        <time>2021-05-19T06:16:01Z</time>
      </trkpt>
      <trkpt lat="41.9425400" lon="-8.8835730">
        <ele>39.4</ele>
        <time>2021-05-19T06:16:02Z</time>
      </trkpt>
      <trkpt lat="41.9425530" lon="-8.8835600">
        <ele>39.4</ele>
        <time>2021-05-19T06:16:03Z</time>
      </trkpt>
      <trkpt lat="41.9425660" lon="-8.8835530">
        <ele>39.4</ele>
        <time>2021-05-19T06:16:04Z</time>
      </trkpt>
      <trkpt lat="41.9425820" lon="-8.8835370">
        <ele>39.4</ele>
        <time>2021-05-19T06:16:05Z</time>
      </trkpt>
      <trkpt lat="41.9425910" lon="-8.8835300">
        <ele>39.4</ele>
        <time>2021-05-19T06:16:06Z</time>
      </trkpt>
      <trkpt lat="41.9426000" lon="-8.8835230">
        <ele>39.4</ele>
        <time>2021-05-19T06:16:07Z</time>
      </trkpt>
      <trkpt lat="41.9426100" lon="-8.8835120">
        <ele>39.4</ele>
        <time>2021-05-19T06:16:08Z</time>
      </trkpt>
      <trkpt lat="41.9426250" lon="-8.8834950">
        <ele>39.4</ele>
        <time>2021-05-19T06:16:09Z</time>
      </trkpt>
      <trkpt lat="41.9426430" lon="-8.8834880">
        <ele>39.4</ele>
        <time>2021-05-19T06:16:10Z</time>
      </trkpt>
      <trkpt lat="41.9426530" lon="-8.8834770">
        <ele>39.3</ele>
        <time>2021-05-19T06:16:11Z</time>
      </trkpt>
      <trkpt lat="41.9426680" lon="-8.8834700">
        <ele>39.3</ele>
        <time>2021-05-19T06:16:12Z</time>
      </trkpt>
      <trkpt lat="41.9426770" lon="-8.8834570">
        <ele>39.3</ele>
        <time>2021-05-19T06:16:13Z</time>
      </trkpt>
      <trkpt lat="41.9426970" lon="-8.8834500">
        <ele>39.3</ele>
        <time>2021-05-19T06:16:14Z</time>
      </trkpt>
      <trkpt lat="41.9427070" lon="-8.8834460">
        <ele>39.3</ele>
        <time>2021-05-19T06:16:15Z</time>
      </trkpt>
      <trkpt lat="41.9427170" lon="-8.8834410">
        <ele>39.3</ele>
        <time>2021-05-19T06:16:16Z</time>
      </trkpt>
      <trkpt lat="41.9427340" lon="-8.8834200">
        <ele>39.3</ele>
        <time>2021-05-19T06:16:17Z</time>
      </trkpt>
      <trkpt lat="41.9427440" lon="-8.8834140">
        <ele>39.3</ele>
        <time>2021-05-19T06:16:18Z</time>
      </trkpt>
      <trkpt lat="41.9427550" lon="-8.8834080">
        <ele>39.3</ele>
        <time>2021-05-19T06:16:19Z</time>
      </trkpt>
      <trkpt lat="41.9427580" lon="-8.8833930">
        <ele>39.3</ele>
        <time>2021-05-19T06:16:20Z</time>
      </trkpt>
      <trkpt lat="41.9427670" lon="-8.8833870">
        <ele>39.2</ele>
        <time>2021-05-19T06:16:21Z</time>
      </trkpt>
      <trkpt lat="41.9427770" lon="-8.8833820">
        <ele>39.2</ele>
        <time>2021-05-19T06:16:22Z</time>
      </trkpt>
      <trkpt lat="41.9427980" lon="-8.8833790">
        <ele>39.2</ele>
        <time>2021-05-19T06:16:23Z</time>
      </trkpt>
      <trkpt lat="41.9428080" lon="-8.8833740">
        <ele>39.2</ele>
        <time>2021-05-19T06:16:24Z</time>
      </trkpt>
      <trkpt lat="41.9428170" lon="-8.8833700">
        <ele>39.2</ele>
        <time>2021-05-19T06:16:25Z</time>
      </trkpt>
      <trkpt lat="41.9428330" lon="-8.8833650">
        <ele>39.2</ele>
        <time>2021-05-19T06:16:26Z</time>
      </trkpt>
      <trkpt lat="41.9428520" lon="-8.8833640">
        <ele>39.2</ele>
        <time>2021-05-19T06:16:27Z</time>
      </trkpt>
      <trkpt lat="41.9428540" lon="-8.8833560">
        <ele>39.2</ele>
        <time>2021-05-19T06:16:28Z</time>
      </trkpt>
      <trkpt lat="41.9428680" lon="-8.8833500">
        <ele>39.2</ele>
        <time>2021-05-19T06:16:29Z</time>
      </trkpt>
      <trkpt lat="41.9428810" lon="-8.8833380">
        <ele>39.1</ele>
        <time>2021-05-19T06:16:30Z</time>
      </trkpt>
      <trkpt lat="41.9429090" lon="-8.8833310">
        <ele>39.1</ele>
        <time>2021-05-19T06:16:31Z</time>
      </trkpt>
      <trkpt lat="41.9429140" lon="-8.8833260">
        <ele>39.1</ele>
        <time>2021-05-19T06:16:32Z</time>
      </trkpt>
      <trkpt lat="41.9429200" lon="-8.8833200">
        <ele>39.1</ele>
        <time>2021-05-19T06:16:33Z</time>
      </trkpt>
      <trkpt lat="41.9429380" lon="-8.8833070">
        <ele>39.1</ele>
        <time>2021-05-19T06:16:34Z</time>
      </trkpt>
      <trkpt lat="41.9429480" lon="-8.8833010">
        <ele>39.1</ele>
        <time>2021-05-19T06:16:35Z</time>
      </trkpt>
      <trkpt lat="41.9429580" lon="-8.8832950">
        <ele>39.1</ele>
        <time>2021-05-19T06:16:36Z</time>
      </trkpt>
      <trkpt lat="41.9429730" lon="-8.8832710">
        <ele>39.1</ele>
        <time>2021-05-19T06:16:37Z</time>
      </trkpt>
      <trkpt lat="41.9429760" lon="-8.8832630">
        <ele>39.2</ele>
        <time>2021-05-19T06:16:38Z</time>
      </trkpt>
      <trkpt lat="41.9429800" lon="-8.8832550">
        <ele>39.2</ele>
        <time>2021-05-19T06:16:39Z</time>
      </trkpt>
      <trkpt lat="41.9429950" lon="-8.8832330">
        <ele>39.2</ele>
        <time>2021-05-19T06:16:40Z</time>
      </trkpt>
      <trkpt lat="41.9430000" lon="-8.8832230">
        <ele>39.2</ele>
        <time>2021-05-19T06:16:41Z</time>
      </trkpt>
      <trkpt lat="41.9430060" lon="-8.8832130">
        <ele>39.2</ele>
        <time>2021-05-19T06:16:42Z</time>
      </trkpt>
      <trkpt lat="41.9430210" lon="-8.8831900">
        <ele>39.3</ele>
        <time>2021-05-19T06:16:43Z</time>
      </trkpt>
      <trkpt lat="41.9430250" lon="-8.8831820">
        <ele>39.3</ele>
        <time>2021-05-19T06:16:44Z</time>
      </trkpt>
      <trkpt lat="41.9430280" lon="-8.8831730">
        <ele>39.3</ele>
        <time>2021-05-19T06:16:45Z</time>
      </trkpt>
      <trkpt lat="41.9430370" lon="-8.8831530">
        <ele>39.3</ele>
        <time>2021-05-19T06:16:46Z</time>
      </trkpt>
      <trkpt lat="41.9430410" lon="-8.8831370">
        <ele>39.3</ele>
        <time>2021-05-19T06:16:47Z</time>
      </trkpt>
      <trkpt lat="41.9430510" lon="-8.8831200">
        <ele>39.4</ele>
        <time>2021-05-19T06:16:48Z</time>
      </trkpt>
      <trkpt lat="41.9430600" lon="-8.8831040">
        <ele>39.4</ele>
        <time>2021-05-19T06:16:49Z</time>
      </trkpt>
      <trkpt lat="41.9430690" lon="-8.8830900">
        <ele>39.4</ele>
        <time>2021-05-19T06:16:50Z</time>
      </trkpt>
      <trkpt lat="41.9430730" lon="-8.8830760">
        <ele>39.4</ele>
        <time>2021-05-19T06:16:51Z</time>
      </trkpt>
      <trkpt lat="41.9430820" lon="-8.8830680">
        <ele>39.5</ele>
        <time>2021-05-19T06:16:52Z</time>
      </trkpt>
      <trkpt lat="41.9430920" lon="-8.8830390">
        <ele>39.5</ele>
        <time>2021-05-19T06:16:53Z</time>
      </trkpt>
      <trkpt lat="41.9430960" lon="-8.8830310">
        <ele>39.5</ele>
        <time>2021-05-19T06:16:54Z</time>
      </trkpt>
      <trkpt lat="41.9430990" lon="-8.8830220">
        <ele>39.5</ele>
        <time>2021-05-19T06:16:55Z</time>
      </trkpt>
      <trkpt lat="41.9431170" lon="-8.8830040">
        <ele>39.6</ele>
        <time>2021-05-19T06:16:56Z</time>
      </trkpt>
      <trkpt lat="41.9431220" lon="-8.8829840">
        <ele>39.6</ele>
        <time>2021-05-19T06:16:57Z</time>
      </trkpt>
      <trkpt lat="41.9431280" lon="-8.8829750">
        <ele>39.6</ele>
        <time>2021-05-19T06:16:58Z</time>
      </trkpt>
      <trkpt lat="41.9431340" lon="-8.8829630">
        <ele>39.7</ele>
        <time>2021-05-19T06:16:59Z</time>
      </trkpt>
      <trkpt lat="41.9431450" lon="-8.8829480">
        <ele>39.7</ele>
        <time>2021-05-19T06:17:00Z</time>
      </trkpt>
      <trkpt lat="41.9431600" lon="-8.8829350">
        <ele>39.7</ele>
        <time>2021-05-19T06:17:01Z</time>
      </trkpt>
      <trkpt lat="41.9431650" lon="-8.8829280">
        <ele>39.8</ele>
        <time>2021-05-19T06:17:02Z</time>
      </trkpt>
      <trkpt lat="41.9431700" lon="-8.8829220">
        <ele>39.8</ele>
        <time>2021-05-19T06:17:03Z</time>
      </trkpt>
      <trkpt lat="41.9431750" lon="-8.8829150">
        <ele>39.8</ele>
        <time>2021-05-19T06:17:04Z</time>
      </trkpt>
      <trkpt lat="41.9431870" lon="-8.8828960">
        <ele>39.8</ele>
        <time>2021-05-19T06:17:05Z</time>
      </trkpt>
      <trkpt lat="41.9431960" lon="-8.8828860">
        <ele>39.9</ele>
        <time>2021-05-19T06:17:06Z</time>
      </trkpt>
      <trkpt lat="41.9432150" lon="-8.8828680">
        <ele>39.9</ele>
        <time>2021-05-19T06:17:07Z</time>
      </trkpt>
      <trkpt lat="41.9432200" lon="-8.8828620">
        <ele>39.9</ele>
        <time>2021-05-19T06:17:08Z</time>
      </trkpt>
      <trkpt lat="41.9432260" lon="-8.8828550">
        <ele>39.9</ele>
        <time>2021-05-19T06:17:09Z</time>
      </trkpt>
      <trkpt lat="41.9432400" lon="-8.8828360">
        <ele>40.0</ele>
        <time>2021-05-19T06:17:10Z</time>
      </trkpt>
      <trkpt lat="41.9432490" lon="-8.8828290">
        <ele>40.0</ele>
        <time>2021-05-19T06:17:11Z</time>
      </trkpt>
      <trkpt lat="41.9432570" lon="-8.8828210">
        <ele>40.0</ele>
        <time>2021-05-19T06:17:12Z</time>
      </trkpt>
      <trkpt lat="41.9432660" lon="-8.8828110">
        <ele>40.0</ele>
        <time>2021-05-19T06:17:13Z</time>
      </trkpt>
      <trkpt lat="41.9432780" lon="-8.8828100">
        <ele>40.0</ele>
        <time>2021-05-19T06:17:14Z</time>
      </trkpt>
      <trkpt lat="41.9432820" lon="-8.8828030">
        <ele>40.0</ele>
        <time>2021-05-19T06:17:15Z</time>
      </trkpt>
      <trkpt lat="41.9432920" lon="-8.8828010">
        <ele>40.0</ele>
        <time>2021-05-19T06:17:16Z</time>
      </trkpt>
      <trkpt lat="41.9433070" lon="-8.8827960">
        <ele>40.0</ele>
        <time>2021-05-19T06:17:17Z</time>
      </trkpt>
      <trkpt lat="41.9433170" lon="-8.8827920">
        <ele>40.0</ele>
        <time>2021-05-19T06:17:18Z</time>
      </trkpt>
      <trkpt lat="41.9433300" lon="-8.8827860">
        <ele>40.0</ele>
        <time>2021-05-19T06:17:19Z</time>
      </trkpt>
      <trkpt lat="41.9433440" lon="-8.8827820">
        <ele>40.0</ele>
        <time>2021-05-19T06:17:20Z</time>
      </trkpt>
      <trkpt lat="41.9433550" lon="-8.8827690">
        <ele>40.0</ele>
        <time>2021-05-19T06:17:21Z</time>
      </trkpt>
      <trkpt lat="41.9433620" lon="-8.8827650">
        <ele>40.0</ele>
        <time>2021-05-19T06:17:22Z</time>
      </trkpt>
      <trkpt lat="41.9433690" lon="-8.8827600">
        <ele>40.0</ele>
        <time>2021-05-19T06:17:23Z</time>
      </trkpt>
      <trkpt lat="41.9433760" lon="-8.8827560">
        <ele>40.0</ele>
        <time>2021-05-19T06:17:24Z</time>
      </trkpt>
      <trkpt lat="41.9433890" lon="-8.8827520">
        <ele>40.0</ele>
        <time>2021-05-19T06:17:25Z</time>
      </trkpt>
      <trkpt lat="41.9434020" lon="-8.8827500">
        <ele>40.0</ele>
        <time>2021-05-19T06:17:26Z</time>
      </trkpt>
      <trkpt lat="41.9434070" lon="-8.8827500">
        <ele>40.0</ele>
        <time>2021-05-19T06:17:27Z</time>
      </trkpt>
      <trkpt lat="41.9434050" lon="-8.8827520">
        <ele>40.0</ele>
        <time>2021-05-19T06:17:28Z</time>
      </trkpt>
      <trkpt lat="41.9434100" lon="-8.8827460">
        <ele>40.0</ele>
        <time>2021-05-19T06:17:29Z</time>
      </trkpt>
      <trkpt lat="41.9434170" lon="-8.8827460">
        <ele>40.0</ele>
        <time>2021-05-19T06:17:30Z</time>
      </trkpt>
      <trkpt lat="41.9434310" lon="-8.8827370">
        <ele>40.0</ele>
        <time>2021-05-19T06:17:31Z</time>
      </trkpt>
      <trkpt lat="41.9434370" lon="-8.8827310">
        <ele>40.0</ele>
        <time>2021-05-19T06:17:32Z</time>
      </trkpt>
      <trkpt lat="41.9434500" lon="-8.8827210">
        <ele>40.0</ele>
        <time>2021-05-19T06:17:33Z</time>
      </trkpt>
      <trkpt lat="41.9434610" lon="-8.8827130">
        <ele>40.0</ele>
        <time>2021-05-19T06:17:34Z</time>
      </trkpt>
      <trkpt lat="41.9434780" lon="-8.8826980">
        <ele>40.0</ele>
        <time>2021-05-19T06:17:35Z</time>
      </trkpt>
      <trkpt lat="41.9434860" lon="-8.8826920">
        <ele>40.0</ele>
        <time>2021-05-19T06:17:36Z</time>
      </trkpt>
      <trkpt lat="41.9434930" lon="-8.8826870">
        <ele>40.0</ele>
        <time>2021-05-19T06:17:37Z</time>
      </trkpt>
      <trkpt lat="41.9435080" lon="-8.8826790">
        <ele>40.0</ele>
        <time>2021-05-19T06:17:38Z</time>
      </trkpt>
      <trkpt lat="41.9435150" lon="-8.8826750">
        <ele>40.0</ele>
        <time>2021-05-19T06:17:39Z</time>
      </trkpt>
      <trkpt lat="41.9435250" lon="-8.8826680">
        <ele>40.0</ele>
        <time>2021-05-19T06:17:40Z</time>
      </trkpt>
      <trkpt lat="41.9435420" lon="-8.8826510">
        <ele>40.0</ele>
        <time>2021-05-19T06:17:41Z</time>
      </trkpt>
      <trkpt lat="41.9435500" lon="-8.8826470">
        <ele>40.0</ele>
        <time>2021-05-19T06:17:42Z</time>
      </trkpt>
      <trkpt lat="41.9435580" lon="-8.8826430">
        <ele>40.0</ele>
        <time>2021-05-19T06:17:43Z</time>
      </trkpt>
      <trkpt lat="41.9435710" lon="-8.8826330">
        <ele>40.0</ele>
        <time>2021-05-19T06:17:44Z</time>
      </trkpt>
      <trkpt lat="41.9435820" lon="-8.8826270">
        <ele>40.0</ele>
        <time>2021-05-19T06:17:45Z</time>
      </trkpt>
      <trkpt lat="41.9435920" lon="-8.8826210">
        <ele>40.0</ele>
        <time>2021-05-19T06:17:46Z</time>
      </trkpt>
      <trkpt lat="41.9436060" lon="-8.8826190">
        <ele>40.0</ele>
        <time>2021-05-19T06:17:47Z</time>
      </trkpt>
      <trkpt lat="41.9436160" lon="-8.8826110">
        <ele>39.9</ele>
        <time>2021-05-19T06:17:48Z</time>
      </trkpt>
      <trkpt lat="41.9436260" lon="-8.8826040">
        <ele>39.9</ele>
        <time>2021-05-19T06:17:49Z</time>
      </trkpt>
      <trkpt lat="41.9436390" lon="-8.8826010">
        <ele>39.9</ele>
        <time>2021-05-19T06:17:50Z</time>
      </trkpt>
      <trkpt lat="41.9436540" lon="-8.8825920">
        <ele>39.9</ele>
        <time>2021-05-19T06:17:51Z</time>
      </trkpt>
      <trkpt lat="41.9436670" lon="-8.8825810">
        <ele>39.9</ele>
        <time>2021-05-19T06:17:52Z</time>
      </trkpt>
      <trkpt lat="41.9436790" lon="-8.8825720">
        <ele>39.9</ele>
        <time>2021-05-19T06:17:53Z</time>
      </trkpt>
      <trkpt lat="41.9437050" lon="-8.8825540">
        <ele>39.9</ele>
        <time>2021-05-19T06:17:54Z</time>
      </trkpt>
      <trkpt lat="41.9437120" lon="-8.8825470">
        <ele>39.9</ele>
        <time>2021-05-19T06:17:55Z</time>
      </trkpt>
      <trkpt lat="41.9437270" lon="-8.8825370">
        <ele>39.9</ele>
        <time>2021-05-19T06:17:56Z</time>
      </trkpt>
      <trkpt lat="41.9437430" lon="-8.8825340">
        <ele>39.9</ele>
        <time>2021-05-19T06:17:57Z</time>
      </trkpt>
      <trkpt lat="41.9437650" lon="-8.8825240">
        <ele>39.9</ele>
        <time>2021-05-19T06:17:58Z</time>
      </trkpt>
      <trkpt lat="41.9437740" lon="-8.8825180">
        <ele>39.9</ele>
        <time>2021-05-19T06:17:59Z</time>
      </trkpt>
      <trkpt lat="41.9437820" lon="-8.8825130">
        <ele>39.9</ele>
        <time>2021-05-19T06:18:00Z</time>
      </trkpt>
      <trkpt lat="41.9437950" lon="-8.8824990">
        <ele>39.9</ele>
        <time>2021-05-19T06:18:01Z</time>
      </trkpt>
      <trkpt lat="41.9438050" lon="-8.8824900">
        <ele>39.8</ele>
        <time>2021-05-19T06:18:02Z</time>
      </trkpt>
      <trkpt lat="41.9438160" lon="-8.8824790">
        <ele>39.8</ele>
        <time>2021-05-19T06:18:03Z</time>
      </trkpt>
      <trkpt lat="41.9438260" lon="-8.8824700">
        <ele>39.8</ele>
        <time>2021-05-19T06:18:04Z</time>
      </trkpt>
      <trkpt lat="41.9438340" lon="-8.8824640">
        <ele>39.8</ele>
        <time>2021-05-19T06:18:05Z</time>
      </trkpt>
      <trkpt lat="41.9438500" lon="-8.8824530">
        <ele>39.8</ele>
        <time>2021-05-19T06:18:06Z</time>
      </trkpt>
      <trkpt lat="41.9438620" lon="-8.8824480">
        <ele>39.8</ele>
        <time>2021-05-19T06:18:07Z</time>
      </trkpt>
      <trkpt lat="41.9438780" lon="-8.8824410">
        <ele>39.8</ele>
        <time>2021-05-19T06:18:08Z</time>
      </trkpt>
      <trkpt lat="41.9438930" lon="-8.8824350">
        <ele>39.8</ele>
        <time>2021-05-19T06:18:09Z</time>
      </trkpt>
      <trkpt lat="41.9439100" lon="-8.8824360">
        <ele>39.7</ele>
        <time>2021-05-19T06:18:10Z</time>
      </trkpt>
      <trkpt lat="41.9439230" lon="-8.8824320">
        <ele>39.7</ele>
        <time>2021-05-19T06:18:11Z</time>
      </trkpt>
      <trkpt lat="41.9439330" lon="-8.8824270">
        <ele>39.7</ele>
        <time>2021-05-19T06:18:12Z</time>
      </trkpt>
      <trkpt lat="41.9439460" lon="-8.8824270">
        <ele>39.7</ele>
        <time>2021-05-19T06:18:13Z</time>
      </trkpt>
      <trkpt lat="41.9439560" lon="-8.8824290">
        <ele>39.7</ele>
        <time>2021-05-19T06:18:14Z</time>
      </trkpt>
      <trkpt lat="41.9439790" lon="-8.8824260">
        <ele>39.7</ele>
        <time>2021-05-19T06:18:15Z</time>
      </trkpt>
      <trkpt lat="41.9439910" lon="-8.8824250">
        <ele>39.7</ele>
        <time>2021-05-19T06:18:16Z</time>
      </trkpt>
      <trkpt lat="41.9440030" lon="-8.8824240">
        <ele>39.7</ele>
        <time>2021-05-19T06:18:17Z</time>
      </trkpt>
      <trkpt lat="41.9440230" lon="-8.8824300">
        <ele>39.7</ele>
        <time>2021-05-19T06:18:18Z</time>
      </trkpt>
      <trkpt lat="41.9440320" lon="-8.8824280">
        <ele>39.7</ele>
        <time>2021-05-19T06:18:19Z</time>
      </trkpt>
      <trkpt lat="41.9440420" lon="-8.8824270">
        <ele>39.7</ele>
        <time>2021-05-19T06:18:20Z</time>
      </trkpt>
      <trkpt lat="41.9440640" lon="-8.8824300">
        <ele>39.7</ele>
        <time>2021-05-19T06:18:21Z</time>
      </trkpt>
      <trkpt lat="41.9440720" lon="-8.8824300">
        <ele>39.7</ele>
        <time>2021-05-19T06:18:22Z</time>
      </trkpt>
      <trkpt lat="41.9440810" lon="-8.8824310">
        <ele>39.7</ele>
        <time>2021-05-19T06:18:23Z</time>
      </trkpt>
      <trkpt lat="41.9441030" lon="-8.8824310">
        <ele>39.7</ele>
        <time>2021-05-19T06:18:24Z</time>
      </trkpt>
      <trkpt lat="41.9441170" lon="-8.8824340">
        <ele>39.7</ele>
        <time>2021-05-19T06:18:25Z</time>
      </trkpt>
      <trkpt lat="41.9441340" lon="-8.8824330">
        <ele>39.7</ele>
        <time>2021-05-19T06:18:26Z</time>
      </trkpt>
      <trkpt lat="41.9441530" lon="-8.8824320">
        <ele>39.7</ele>
        <time>2021-05-19T06:18:27Z</time>
      </trkpt>
      <trkpt lat="41.9441710" lon="-8.8824320">
        <ele>39.7</ele>
        <time>2021-05-19T06:18:28Z</time>
      </trkpt>
      <trkpt lat="41.9441860" lon="-8.8824280">
        <ele>39.7</ele>
        <time>2021-05-19T06:18:29Z</time>
      </trkpt>
      <trkpt lat="41.9442050" lon="-8.8824300">
        <ele>39.7</ele>
        <time>2021-05-19T06:18:30Z</time>
      </trkpt>
      <trkpt lat="41.9442200" lon="-8.8824230">
        <ele>39.7</ele>
        <time>2021-05-19T06:18:31Z</time>
      </trkpt>
      <trkpt lat="41.9442360" lon="-8.8824260">
        <ele>39.7</ele>
        <time>2021-05-19T06:18:32Z</time>
      </trkpt>
      <trkpt lat="41.9442520" lon="-8.8824270">
        <ele>39.7</ele>
        <time>2021-05-19T06:18:33Z</time>
      </trkpt>
      <trkpt lat="41.9442750" lon="-8.8824280">
        <ele>39.7</ele>
        <time>2021-05-19T06:18:34Z</time>
      </trkpt>
      <trkpt lat="41.9442820" lon="-8.8824280">
        <ele>39.7</ele>
        <time>2021-05-19T06:18:35Z</time>
      </trkpt>
      <trkpt lat="41.9442900" lon="-8.8824270">
        <ele>39.7</ele>
        <time>2021-05-19T06:18:36Z</time>
      </trkpt>
      <trkpt lat="41.9443020" lon="-8.8824280">
        <ele>39.7</ele>
        <time>2021-05-19T06:18:37Z</time>
      </trkpt>
      <trkpt lat="41.9443180" lon="-8.8824320">
        <ele>39.7</ele>
        <time>2021-05-19T06:18:38Z</time>
      </trkpt>
      <trkpt lat="41.9443310" lon="-8.8824350">
        <ele>39.7</ele>
        <time>2021-05-19T06:18:39Z</time>
      </trkpt>
      <trkpt lat="41.9443390" lon="-8.8824380">
        <ele>39.7</ele>
        <time>2021-05-19T06:18:40Z</time>
      </trkpt>
      <trkpt lat="41.9443500" lon="-8.8824360">
        <ele>39.7</ele>
        <time>2021-05-19T06:18:41Z</time>
      </trkpt>
      <trkpt lat="41.9443670" lon="-8.8824340">
        <ele>39.7</ele>
        <time>2021-05-19T06:18:42Z</time>
      </trkpt>
      <trkpt lat="41.9443820" lon="-8.8824370">
        <ele>39.7</ele>
        <time>2021-05-19T06:18:43Z</time>
      </trkpt>
      <trkpt lat="41.9444110" lon="-8.8824390">
        <ele>39.8</ele>
        <time>2021-05-19T06:18:44Z</time>
      </trkpt>
      <trkpt lat="41.9444200" lon="-8.8824410">
        <ele>39.8</ele>
        <time>2021-05-19T06:18:45Z</time>
      </trkpt>
      <trkpt lat="41.9444350" lon="-8.8824460">
        <ele>39.8</ele>
        <time>2021-05-19T06:18:46Z</time>
      </trkpt>
      <trkpt lat="41.9444510" lon="-8.8824420">
        <ele>39.8</ele>
        <time>2021-05-19T06:18:47Z</time>
      </trkpt>
      <trkpt lat="41.9444650" lon="-8.8824400">
        <ele>39.8</ele>
        <time>2021-05-19T06:18:48Z</time>
      </trkpt>
      <trkpt lat="41.9444760" lon="-8.8824450">
        <ele>39.8</ele>
        <time>2021-05-19T06:18:49Z</time>
      </trkpt>
      <trkpt lat="41.9444790" lon="-8.8824560">
        <ele>39.8</ele>
        <time>2021-05-19T06:18:50Z</time>
      </trkpt>
      <trkpt lat="41.9444950" lon="-8.8824490">
        <ele>39.8</ele>
        <time>2021-05-19T06:18:51Z</time>
      </trkpt>
      <trkpt lat="41.9445030" lon="-8.8824490">
        <ele>39.8</ele>
        <time>2021-05-19T06:18:52Z</time>
      </trkpt>
      <trkpt lat="41.9445100" lon="-8.8824500">
        <ele>39.8</ele>
        <time>2021-05-19T06:18:53Z</time>
      </trkpt>
      <trkpt lat="41.9445180" lon="-8.8824500">
        <ele>39.9</ele>
        <time>2021-05-19T06:18:54Z</time>
      </trkpt>
      <trkpt lat="41.9445320" lon="-8.8824450">
        <ele>39.9</ele>
        <time>2021-05-19T06:18:55Z</time>
      </trkpt>
      <trkpt lat="41.9445390" lon="-8.8824440">
        <ele>39.9</ele>
        <time>2021-05-19T06:18:56Z</time>
      </trkpt>
      <trkpt lat="41.9445470" lon="-8.8824400">
        <ele>39.9</ele>
        <time>2021-05-19T06:18:57Z</time>
      </trkpt>
      <trkpt lat="41.9445540" lon="-8.8824410">
        <ele>39.9</ele>
        <time>2021-05-19T06:18:58Z</time>
      </trkpt>
      <trkpt lat="41.9445710" lon="-8.8824450">
        <ele>39.9</ele>
        <time>2021-05-19T06:18:59Z</time>
      </trkpt>
      <trkpt lat="41.9445810" lon="-8.8824450">
        <ele>39.9</ele>
        <time>2021-05-19T06:19:00Z</time>
      </trkpt>
      <trkpt lat="41.9445930" lon="-8.8824450">
        <ele>39.9</ele>
        <time>2021-05-19T06:19:01Z</time>
      </trkpt>
      <trkpt lat="41.9446080" lon="-8.8824410">
        <ele>40.0</ele>
        <time>2021-05-19T06:19:02Z</time>
      </trkpt>
      <trkpt lat="41.9446160" lon="-8.8824350">
        <ele>40.0</ele>
        <time>2021-05-19T06:19:03Z</time>
      </trkpt>
      <trkpt lat="41.9446340" lon="-8.8824250">
        <ele>40.0</ele>
        <time>2021-05-19T06:19:04Z</time>
      </trkpt>
      <trkpt lat="41.9446420" lon="-8.8824220">
        <ele>40.0</ele>
        <time>2021-05-19T06:19:05Z</time>
      </trkpt>
      <trkpt lat="41.9446510" lon="-8.8824190">
        <ele>40.0</ele>
        <time>2021-05-19T06:19:06Z</time>
      </trkpt>
      <trkpt lat="41.9446600" lon="-8.8824140">
        <ele>40.0</ele>
        <time>2021-05-19T06:19:07Z</time>
      </trkpt>
      <trkpt lat="41.9446700" lon="-8.8824090">
        <ele>40.1</ele>
        <time>2021-05-19T06:19:08Z</time>
      </trkpt>
      <trkpt lat="41.9446800" lon="-8.8824020">
        <ele>40.1</ele>
        <time>2021-05-19T06:19:09Z</time>
      </trkpt>
      <trkpt lat="41.9446930" lon="-8.8823920">
        <ele>40.1</ele>
        <time>2021-05-19T06:19:10Z</time>
      </trkpt>
      <trkpt lat="41.9447040" lon="-8.8823830">
        <ele>40.2</ele>
        <time>2021-05-19T06:19:11Z</time>
      </trkpt>
      <trkpt lat="41.9447160" lon="-8.8823670">
        <ele>40.2</ele>
        <time>2021-05-19T06:19:12Z</time>
      </trkpt>
      <trkpt lat="41.9447230" lon="-8.8823630">
        <ele>40.2</ele>
        <time>2021-05-19T06:19:13Z</time>
      </trkpt>
      <trkpt lat="41.9447290" lon="-8.8823510">
        <ele>40.2</ele>
        <time>2021-05-19T06:19:14Z</time>
      </trkpt>
      <trkpt lat="41.9447420" lon="-8.8823300">
        <ele>40.3</ele>
        <time>2021-05-19T06:19:15Z</time>
      </trkpt>
      <trkpt lat="41.9447480" lon="-8.8823220">
        <ele>40.3</ele>
        <time>2021-05-19T06:19:16Z</time>
      </trkpt>
      <trkpt lat="41.9447530" lon="-8.8823130">
        <ele>40.3</ele>
        <time>2021-05-19T06:19:17Z</time>
      </trkpt>
      <trkpt lat="41.9447550" lon="-8.8823010">
        <ele>40.4</ele>
        <time>2021-05-19T06:19:18Z</time>
      </trkpt>
      <trkpt lat="41.9447620" lon="-8.8822920">
        <ele>40.4</ele>
        <time>2021-05-19T06:19:19Z</time>
      </trkpt>
      <trkpt lat="41.9447730" lon="-8.8822790">
        <ele>40.4</ele>
        <time>2021-05-19T06:19:20Z</time>
      </trkpt>
      <trkpt lat="41.9447800" lon="-8.8822670">
        <ele>40.5</ele>
        <time>2021-05-19T06:19:21Z</time>
      </trkpt>
      <trkpt lat="41.9447890" lon="-8.8822460">
        <ele>40.5</ele>
        <time>2021-05-19T06:19:22Z</time>
      </trkpt>
      <trkpt lat="41.9448020" lon="-8.8822220">
        <ele>40.6</ele>
        <time>2021-05-19T06:19:23Z</time>
      </trkpt>
      <trkpt lat="41.9448080" lon="-8.8822130">
        <ele>40.6</ele>
        <time>2021-05-19T06:19:24Z</time>
      </trkpt>
      <trkpt lat="41.9448150" lon="-8.8822030">
        <ele>40.6</ele>
        <time>2021-05-19T06:19:25Z</time>
      </trkpt>
      <trkpt lat="41.9448350" lon="-8.8821900">
        <ele>40.7</ele>
        <time>2021-05-19T06:19:26Z</time>
      </trkpt>
      <trkpt lat="41.9448420" lon="-8.8821860">
        <ele>40.7</ele>
        <time>2021-05-19T06:19:27Z</time>
      </trkpt>
      <trkpt lat="41.9448500" lon="-8.8821810">
        <ele>40.7</ele>
        <time>2021-05-19T06:19:28Z</time>
      </trkpt>
      <trkpt lat="41.9448710" lon="-8.8821760">
        <ele>40.7</ele>
        <time>2021-05-19T06:19:29Z</time>
      </trkpt>
      <trkpt lat="41.9448790" lon="-8.8821750">
        <ele>40.8</ele>
        <time>2021-05-19T06:19:30Z</time>
      </trkpt>
      <trkpt lat="41.9448880" lon="-8.8821730">
        <ele>40.8</ele>
        <time>2021-05-19T06:19:31Z</time>
      </trkpt>
      <trkpt lat="41.9449080" lon="-8.8821660">
        <ele>40.8</ele>
        <time>2021-05-19T06:19:32Z</time>
      </trkpt>
      <trkpt lat="41.9449160" lon="-8.8821630">
        <ele>40.8</ele>
        <time>2021-05-19T06:19:33Z</time>
      </trkpt>
      <trkpt lat="41.9449240" lon="-8.8821600">
        <ele>40.8</ele>
        <time>2021-05-19T06:19:34Z</time>
      </trkpt>
      <trkpt lat="41.9449390" lon="-8.8821600">
        <ele>40.8</ele>
        <time>2021-05-19T06:19:35Z</time>
      </trkpt>
      <trkpt lat="41.9449540" lon="-8.8821510">
        <ele>40.8</ele>
        <time>2021-05-19T06:19:36Z</time>
      </trkpt>
      <trkpt lat="41.9449640" lon="-8.8821480">
        <ele>40.8</ele>
        <time>2021-05-19T06:19:37Z</time>
      </trkpt>
      <trkpt lat="41.9449780" lon="-8.8821420">
        <ele>40.8</ele>
        <time>2021-05-19T06:19:38Z</time>
      </trkpt>
      <trkpt lat="41.9449860" lon="-8.8821400">
        <ele>40.8</ele>
        <time>2021-05-19T06:19:39Z</time>
      </trkpt>
      <trkpt lat="41.9450090" lon="-8.8821340">
        <ele>40.9</ele>
        <time>2021-05-19T06:19:40Z</time>
      </trkpt>
      <trkpt lat="41.9450180" lon="-8.8821320">
        <ele>40.9</ele>
        <time>2021-05-19T06:19:41Z</time>
      </trkpt>
      <trkpt lat="41.9450260" lon="-8.8821300">
        <ele>40.9</ele>
        <time>2021-05-19T06:19:42Z</time>
      </trkpt>
      <trkpt lat="41.9450490" lon="-8.8821230">
        <ele>40.9</ele>
        <time>2021-05-19T06:19:43Z</time>
      </trkpt>
      <trkpt lat="41.9450560" lon="-8.8821220">
        <ele>40.9</ele>
        <time>2021-05-19T06:19:44Z</time>
      </trkpt>
      <trkpt lat="41.9450640" lon="-8.8821210">
        <ele>40.9</ele>
        <time>2021-05-19T06:19:45Z</time>
      </trkpt>
      <trkpt lat="41.9450820" lon="-8.8821150">
        <ele>40.9</ele>
        <time>2021-05-19T06:19:46Z</time>
      </trkpt>
      <trkpt lat="41.9450910" lon="-8.8821120">
        <ele>40.8</ele>
        <time>2021-05-19T06:19:47Z</time>
      </trkpt>
      <trkpt lat="41.9451010" lon="-8.8821090">
        <ele>40.8</ele>
        <time>2021-05-19T06:19:48Z</time>
      </trkpt>
      <trkpt lat="41.9451160" lon="-8.8821060">
        <ele>40.8</ele>
        <time>2021-05-19T06:19:49Z</time>
      </trkpt>
      <trkpt lat="41.9451250" lon="-8.8821060">
        <ele>40.8</ele>
        <time>2021-05-19T06:19:50Z</time>
      </trkpt>
      <trkpt lat="41.9451360" lon="-8.8821030">
        <ele>40.8</ele>
        <time>2021-05-19T06:19:51Z</time>
      </trkpt>
      <trkpt lat="41.9451530" lon="-8.8820980">
        <ele>40.8</ele>
        <time>2021-05-19T06:19:52Z</time>
      </trkpt>
      <trkpt lat="41.9451640" lon="-8.8820950">
        <ele>40.8</ele>
        <time>2021-05-19T06:19:53Z</time>
      </trkpt>
      <trkpt lat="41.9451740" lon="-8.8820920">
        <ele>40.8</ele>
        <time>2021-05-19T06:19:54Z</time>
      </trkpt>
      <trkpt lat="41.9451970" lon="-8.8820800">
        <ele>40.8</ele>
        <time>2021-05-19T06:19:55Z</time>
      </trkpt>
      <trkpt lat="41.9452030" lon="-8.8820790">
        <ele>40.8</ele>
        <time>2021-05-19T06:19:56Z</time>
      </trkpt>
      <trkpt lat="41.9452100" lon="-8.8820780">
        <ele>40.8</ele>
        <time>2021-05-19T06:19:57Z</time>
      </trkpt>
      <trkpt lat="41.9452260" lon="-8.8820680">
        <ele>40.8</ele>
        <time>2021-05-19T06:19:58Z</time>
      </trkpt>
      <trkpt lat="41.9452350" lon="-8.8820680">
        <ele>40.8</ele>
        <time>2021-05-19T06:19:59Z</time>
      </trkpt>
      <trkpt lat="41.9452440" lon="-8.8820680">
        <ele>40.8</ele>
        <time>2021-05-19T06:20:00Z</time>
      </trkpt>
      <trkpt lat="41.9452560" lon="-8.8820650">
        <ele>40.8</ele>
        <time>2021-05-19T06:20:01Z</time>
      </trkpt>
      <trkpt lat="41.9452740" lon="-8.8820610">
        <ele>40.8</ele>
        <time>2021-05-19T06:20:02Z</time>
      </trkpt>
      <trkpt lat="41.9452960" lon="-8.8820530">
        <ele>40.8</ele>
        <time>2021-05-19T06:20:03Z</time>
      </trkpt>
      <trkpt lat="41.9453030" lon="-8.8820490">
        <ele>40.8</ele>
        <time>2021-05-19T06:20:04Z</time>
      </trkpt>
      <trkpt lat="41.9453090" lon="-8.8820460">
        <ele>40.8</ele>
        <time>2021-05-19T06:20:05Z</time>
      </trkpt>
      <trkpt lat="41.9453200" lon="-8.8820440">
        <ele>40.8</ele>
        <time>2021-05-19T06:20:06Z</time>
      </trkpt>
      <trkpt lat="41.9453310" lon="-8.8820400">
        <ele>40.8</ele>
        <time>2021-05-19T06:20:07Z</time>
      </trkpt>
      <trkpt lat="41.9453400" lon="-8.8820410">
        <ele>40.8</ele>
        <time>2021-05-19T06:20:08Z</time>
      </trkpt>
      <trkpt lat="41.9453530" lon="-8.8820400">
        <ele>40.8</ele>
        <time>2021-05-19T06:20:09Z</time>
      </trkpt>
      <trkpt lat="41.9453680" lon="-8.8820390">
        <ele>40.8</ele>
        <time>2021-05-19T06:20:10Z</time>
      </trkpt>
      <trkpt lat="41.9453850" lon="-8.8820440">
        <ele>40.8</ele>
        <time>2021-05-19T06:20:11Z</time>
      </trkpt>
      <trkpt lat="41.9453950" lon="-8.8820460">
        <ele>40.8</ele>
        <time>2021-05-19T06:20:12Z</time>
      </trkpt>
      <trkpt lat="41.9454050" lon="-8.8820470">
        <ele>40.8</ele>
        <time>2021-05-19T06:20:13Z</time>
      </trkpt>
      <trkpt lat="41.9454230" lon="-8.8820490">
        <ele>40.8</ele>
        <time>2021-05-19T06:20:14Z</time>
      </trkpt>
      <trkpt lat="41.9454350" lon="-8.8820510">
        <ele>40.8</ele>
        <time>2021-05-19T06:20:15Z</time>
      </trkpt>
      <trkpt lat="41.9454480" lon="-8.8820540">
        <ele>40.8</ele>
        <time>2021-05-19T06:20:16Z</time>
      </trkpt>
      <trkpt lat="41.9454630" lon="-8.8820520">
        <ele>40.8</ele>
        <time>2021-05-19T06:20:17Z</time>
      </trkpt>
      <trkpt lat="41.9454770" lon="-8.8820550">
        <ele>40.8</ele>
        <time>2021-05-19T06:20:18Z</time>
      </trkpt>
      <trkpt lat="41.9454940" lon="-8.8820580">
        <ele>40.8</ele>
        <time>2021-05-19T06:20:19Z</time>
      </trkpt>
      <trkpt lat="41.9455130" lon="-8.8820700">
        <ele>40.7</ele>
        <time>2021-05-19T06:20:20Z</time>
      </trkpt>
      <trkpt lat="41.9455210" lon="-8.8820740">
        <ele>40.7</ele>
        <time>2021-05-19T06:20:21Z</time>
      </trkpt>
      <trkpt lat="41.9455290" lon="-8.8820780">
        <ele>40.7</ele>
        <time>2021-05-19T06:20:22Z</time>
      </trkpt>
      <trkpt lat="41.9455510" lon="-8.8820810">
        <ele>40.7</ele>
        <time>2021-05-19T06:20:23Z</time>
      </trkpt>
      <trkpt lat="41.9455580" lon="-8.8820840">
        <ele>40.7</ele>
        <time>2021-05-19T06:20:24Z</time>
      </trkpt>
      <trkpt lat="41.9455660" lon="-8.8820860">
        <ele>40.7</ele>
        <time>2021-05-19T06:20:25Z</time>
      </trkpt>
      <trkpt lat="41.9455850" lon="-8.8820910">
        <ele>40.7</ele>
        <time>2021-05-19T06:20:26Z</time>
      </trkpt>
      <trkpt lat="41.9455940" lon="-8.8820920">
        <ele>40.7</ele>
        <time>2021-05-19T06:20:27Z</time>
      </trkpt>
      <trkpt lat="41.9456080" lon="-8.8820960">
        <ele>40.7</ele>
        <time>2021-05-19T06:20:28Z</time>
      </trkpt>
      <trkpt lat="41.9456230" lon="-8.8820990">
        <ele>40.7</ele>
        <time>2021-05-19T06:20:29Z</time>
      </trkpt>
      <trkpt lat="41.9456300" lon="-8.8820990">
        <ele>40.7</ele>
        <time>2021-05-19T06:20:30Z</time>
      </trkpt>
      <trkpt lat="41.9456460" lon="-8.8821000">
        <ele>40.7</ele>
        <time>2021-05-19T06:20:31Z</time>
      </trkpt>
      <trkpt lat="41.9456560" lon="-8.8821050">
        <ele>40.7</ele>
        <time>2021-05-19T06:20:32Z</time>
      </trkpt>
      <trkpt lat="41.9456780" lon="-8.8821140">
        <ele>40.7</ele>
        <time>2021-05-19T06:20:33Z</time>
      </trkpt>
      <trkpt lat="41.9456860" lon="-8.8821190">
        <ele>40.7</ele>
        <time>2021-05-19T06:20:34Z</time>
      </trkpt>
      <trkpt lat="41.9456950" lon="-8.8821250">
        <ele>40.7</ele>
        <time>2021-05-19T06:20:35Z</time>
      </trkpt>
      <trkpt lat="41.9457060" lon="-8.8821340">
        <ele>40.7</ele>
        <time>2021-05-19T06:20:36Z</time>
      </trkpt>
      <trkpt lat="41.9457240" lon="-8.8821390">
        <ele>40.7</ele>
        <time>2021-05-19T06:20:37Z</time>
      </trkpt>
      <trkpt lat="41.9457380" lon="-8.8821440">
        <ele>40.7</ele>
        <time>2021-05-19T06:20:38Z</time>
      </trkpt>
      <trkpt lat="41.9457530" lon="-8.8821480">
        <ele>40.7</ele>
        <time>2021-05-19T06:20:39Z</time>
      </trkpt>
      <trkpt lat="41.9457680" lon="-8.8821610">
        <ele>40.7</ele>
        <time>2021-05-19T06:20:40Z</time>
      </trkpt>
      <trkpt lat="41.9457770" lon="-8.8821660">
        <ele>40.7</ele>
        <time>2021-05-19T06:20:41Z</time>
      </trkpt>
      <trkpt lat="41.9457870" lon="-8.8821710">
        <ele>40.7</ele>
        <time>2021-05-19T06:20:42Z</time>
      </trkpt>
      <trkpt lat="41.9458080" lon="-8.8821790">
        <ele>40.7</ele>
        <time>2021-05-19T06:20:43Z</time>
      </trkpt>
      <trkpt lat="41.9458180" lon="-8.8821830">
        <ele>40.7</ele>
        <time>2021-05-19T06:20:44Z</time>
      </trkpt>
      <trkpt lat="41.9458270" lon="-8.8821860">
        <ele>40.7</ele>
        <time>2021-05-19T06:20:45Z</time>
      </trkpt>
      <trkpt lat="41.9458440" lon="-8.8821950">
        <ele>40.7</ele>
        <time>2021-05-19T06:20:46Z</time>
      </trkpt>
      <trkpt lat="41.9458540" lon="-8.8821970">
        <ele>40.7</ele>
        <time>2021-05-19T06:20:47Z</time>
      </trkpt>
      <trkpt lat="41.9458650" lon="-8.8821990">
        <ele>40.7</ele>
        <time>2021-05-19T06:20:48Z</time>
      </trkpt>
      <trkpt lat="41.9458890" lon="-8.8822020">
        <ele>40.6</ele>
        <time>2021-05-19T06:20:49Z</time>
      </trkpt>
      <trkpt lat="41.9458950" lon="-8.8822030">
        <ele>40.6</ele>
        <time>2021-05-19T06:20:50Z</time>
      </trkpt>
      <trkpt lat="41.9459020" lon="-8.8822040">
        <ele>40.6</ele>
        <time>2021-05-19T06:20:51Z</time>
      </trkpt>
      <trkpt lat="41.9459240" lon="-8.8822070">
        <ele>40.6</ele>
        <time>2021-05-19T06:20:52Z</time>
      </trkpt>
      <trkpt lat="41.9459340" lon="-8.8822090">
        <ele>40.5</ele>
        <time>2021-05-19T06:20:53Z</time>
      </trkpt>
      <trkpt lat="41.9459430" lon="-8.8822120">
        <ele>40.5</ele>
        <time>2021-05-19T06:20:54Z</time>
      </trkpt>
      <trkpt lat="41.9459590" lon="-8.8822130">
        <ele>40.5</ele>
        <time>2021-05-19T06:20:55Z</time>
      </trkpt>
      <trkpt lat="41.9459660" lon="-8.8822100">
        <ele>40.5</ele>
        <time>2021-05-19T06:20:56Z</time>
      </trkpt>
      <trkpt lat="41.9459790" lon="-8.8822140">
        <ele>40.5</ele>
        <time>2021-05-19T06:20:57Z</time>
      </trkpt>
      <trkpt lat="41.9459920" lon="-8.8822180">
        <ele>40.5</ele>
        <time>2021-05-19T06:20:58Z</time>
      </trkpt>
      <trkpt lat="41.9460060" lon="-8.8822230">
        <ele>40.4</ele>
        <time>2021-05-19T06:20:59Z</time>
      </trkpt>
      <trkpt lat="41.9460200" lon="-8.8822230">
        <ele>40.4</ele>
        <time>2021-05-19T06:21:00Z</time>
      </trkpt>
      <trkpt lat="41.9460340" lon="-8.8822320">
        <ele>40.4</ele>
        <time>2021-05-19T06:21:01Z</time>
      </trkpt>
      <trkpt lat="41.9460480" lon="-8.8822320">
        <ele>40.4</ele>
        <time>2021-05-19T06:21:02Z</time>
      </trkpt>
      <trkpt lat="41.9460620" lon="-8.8822270">
        <ele>40.3</ele>
        <time>2021-05-19T06:21:03Z</time>
      </trkpt>
      <trkpt lat="41.9460750" lon="-8.8822330">
        <ele>40.3</ele>
        <time>2021-05-19T06:21:04Z</time>
      </trkpt>
      <trkpt lat="41.9460820" lon="-8.8822330">
        <ele>40.3</ele>
        <time>2021-05-19T06:21:05Z</time>
      </trkpt>
      <trkpt lat="41.9460940" lon="-8.8822360">
        <ele>40.3</ele>
        <time>2021-05-19T06:21:06Z</time>
      </trkpt>
      <trkpt lat="41.9461180" lon="-8.8822380">
        <ele>40.2</ele>
        <time>2021-05-19T06:21:07Z</time>
      </trkpt>
      <trkpt lat="41.9461260" lon="-8.8822400">
        <ele>40.2</ele>
        <time>2021-05-19T06:21:08Z</time>
      </trkpt>
      <trkpt lat="41.9461340" lon="-8.8822410">
        <ele>40.2</ele>
        <time>2021-05-19T06:21:09Z</time>
      </trkpt>
      <trkpt lat="41.9461470" lon="-8.8822440">
        <ele>40.2</ele>
        <time>2021-05-19T06:21:10Z</time>
      </trkpt>
      <trkpt lat="41.9461630" lon="-8.8822500">
        <ele>40.1</ele>
        <time>2021-05-19T06:21:11Z</time>
      </trkpt>
      <trkpt lat="41.9461810" lon="-8.8822570">
        <ele>40.1</ele>
        <time>2021-05-19T06:21:12Z</time>
      </trkpt>
      <trkpt lat="41.9461920" lon="-8.8822600">
        <ele>40.1</ele>
        <time>2021-05-19T06:21:13Z</time>
      </trkpt>
      <trkpt lat="41.9462120" lon="-8.8822650">
        <ele>40.1</ele>
        <time>2021-05-19T06:21:14Z</time>
      </trkpt>
      <trkpt lat="41.9462200" lon="-8.8822690">
        <ele>40.1</ele>
        <time>2021-05-19T06:21:15Z</time>
      </trkpt>
      <trkpt lat="41.9462280" lon="-8.8822720">
        <ele>40.0</ele>
        <time>2021-05-19T06:21:16Z</time>
      </trkpt>
      <trkpt lat="41.9462430" lon="-8.8822700">
        <ele>40.0</ele>
        <time>2021-05-19T06:21:17Z</time>
      </trkpt>
      <trkpt lat="41.9462590" lon="-8.8822770">
        <ele>40.0</ele>
        <time>2021-05-19T06:21:18Z</time>
      </trkpt>
      <trkpt lat="41.9462760" lon="-8.8822810">
        <ele>40.0</ele>
        <time>2021-05-19T06:21:19Z</time>
      </trkpt>
      <trkpt lat="41.9462860" lon="-8.8822840">
        <ele>39.9</ele>
        <time>2021-05-19T06:21:20Z</time>
      </trkpt>
      <trkpt lat="41.9462970" lon="-8.8822860">
        <ele>39.9</ele>
        <time>2021-05-19T06:21:21Z</time>
      </trkpt>
      <trkpt lat="41.9463110" lon="-8.8822880">
        <ele>39.9</ele>
        <time>2021-05-19T06:21:22Z</time>
      </trkpt>
      <trkpt lat="41.9463250" lon="-8.8822910">
        <ele>39.9</ele>
        <time>2021-05-19T06:21:23Z</time>
      </trkpt>
      <trkpt lat="41.9463390" lon="-8.8822890">
        <ele>39.9</ele>
        <time>2021-05-19T06:21:24Z</time>
      </trkpt>
      <trkpt lat="41.9463570" lon="-8.8822840">
        <ele>39.8</ele>
        <time>2021-05-19T06:21:25Z</time>
      </trkpt>
      <trkpt lat="41.9463790" lon="-8.8822810">
        <ele>39.8</ele>
        <time>2021-05-19T06:21:26Z</time>
      </trkpt>
      <trkpt lat="41.9463860" lon="-8.8822830">
        <ele>39.8</ele>
        <time>2021-05-19T06:21:27Z</time>
      </trkpt>
      <trkpt lat="41.9463940" lon="-8.8822840">
        <ele>39.8</ele>
        <time>2021-05-19T06:21:28Z</time>
      </trkpt>
      <trkpt lat="41.9464080" lon="-8.8822930">
        <ele>39.8</ele>
        <time>2021-05-19T06:21:29Z</time>
      </trkpt>
      <trkpt lat="41.9464270" lon="-8.8822920">
        <ele>39.7</ele>
        <time>2021-05-19T06:21:30Z</time>
      </trkpt>
      <trkpt lat="41.9464340" lon="-8.8822910">
        <ele>39.7</ele>
        <time>2021-05-19T06:21:31Z</time>
      </trkpt>
      <trkpt lat="41.9464540" lon="-8.8822980">
        <ele>39.7</ele>
        <time>2021-05-19T06:21:32Z</time>
      </trkpt>
      <trkpt lat="41.9464600" lon="-8.8823000">
        <ele>39.7</ele>
        <time>2021-05-19T06:21:33Z</time>
      </trkpt>
      <trkpt lat="41.9464700" lon="-8.8822980">
        <ele>39.7</ele>
        <time>2021-05-19T06:21:34Z</time>
      </trkpt>
      <trkpt lat="41.9464830" lon="-8.8823000">
        <ele>39.7</ele>
        <time>2021-05-19T06:21:35Z</time>
      </trkpt>
      <trkpt lat="41.9464990" lon="-8.8822990">
        <ele>39.6</ele>
        <time>2021-05-19T06:21:36Z</time>
      </trkpt>
      <trkpt lat="41.9465130" lon="-8.8823030">
        <ele>39.6</ele>
        <time>2021-05-19T06:21:37Z</time>
      </trkpt>
      <trkpt lat="41.9465200" lon="-8.8823080">
        <ele>39.6</ele>
        <time>2021-05-19T06:21:38Z</time>
      </trkpt>
      <trkpt lat="41.9465320" lon="-8.8823120">
        <ele>39.6</ele>
        <time>2021-05-19T06:21:39Z</time>
      </trkpt>
      <trkpt lat="41.9465470" lon="-8.8823160">
        <ele>39.6</ele>
        <time>2021-05-19T06:21:40Z</time>
      </trkpt>
      <trkpt lat="41.9465630" lon="-8.8823130">
        <ele>39.6</ele>
        <time>2021-05-19T06:21:41Z</time>
      </trkpt>
      <trkpt lat="41.9465730" lon="-8.8823220">
        <ele>39.6</ele>
        <time>2021-05-19T06:21:42Z</time>
      </trkpt>
      <trkpt lat="41.9465950" lon="-8.8823280">
        <ele>39.5</ele>
        <time>2021-05-19T06:21:43Z</time>
      </trkpt>
      <trkpt lat="41.9466040" lon="-8.8823300">
        <ele>39.5</ele>
        <time>2021-05-19T06:21:44Z</time>
      </trkpt>
      <trkpt lat="41.9466140" lon="-8.8823330">
        <ele>39.5</ele>
        <time>2021-05-19T06:21:45Z</time>
      </trkpt>
      <trkpt lat="41.9466400" lon="-8.8823410">
        <ele>39.5</ele>
        <time>2021-05-19T06:21:46Z</time>
      </trkpt>
      <trkpt lat="41.9466450" lon="-8.8823410">
        <ele>39.5</ele>
        <time>2021-05-19T06:21:47Z</time>
      </trkpt>
      <trkpt lat="41.9466500" lon="-8.8823420">
        <ele>39.5</ele>
        <time>2021-05-19T06:21:48Z</time>
      </trkpt>
      <trkpt lat="41.9466590" lon="-8.8823460">
        <ele>39.5</ele>
        <time>2021-05-19T06:21:49Z</time>
      </trkpt>
      <trkpt lat="41.9466720" lon="-8.8823540">
        <ele>39.5</ele>
        <time>2021-05-19T06:21:50Z</time>
      </trkpt>
      <trkpt lat="41.9466800" lon="-8.8823600">
        <ele>39.5</ele>
        <time>2021-05-19T06:21:51Z</time>
      </trkpt>
      <trkpt lat="41.9466970" lon="-8.8823660">
        <ele>39.5</ele>
        <time>2021-05-19T06:21:52Z</time>
      </trkpt>
      <trkpt lat="41.9467100" lon="-8.8823720">
        <ele>39.5</ele>
        <time>2021-05-19T06:21:53Z</time>
      </trkpt>
      <trkpt lat="41.9467330" lon="-8.8823810">
        <ele>39.5</ele>
        <time>2021-05-19T06:21:54Z</time>
      </trkpt>
      <trkpt lat="41.9467400" lon="-8.8823840">
        <ele>39.5</ele>
        <time>2021-05-19T06:21:55Z</time>
      </trkpt>
      <trkpt lat="41.9467460" lon="-8.8823870">
        <ele>39.5</ele>
        <time>2021-05-19T06:21:56Z</time>
      </trkpt>
      <trkpt lat="41.9467630" lon="-8.8823840">
        <ele>39.5</ele>
        <time>2021-05-19T06:21:57Z</time>
      </trkpt>
      <trkpt lat="41.9467750" lon="-8.8823930">
        <ele>39.5</ele>
        <time>2021-05-19T06:21:58Z</time>
      </trkpt>
      <trkpt lat="41.9467940" lon="-8.8823920">
        <ele>39.6</ele>
        <time>2021-05-19T06:21:59Z</time>
      </trkpt>
      <trkpt lat="41.9468060" lon="-8.8823990">
        <ele>39.6</ele>
        <time>2021-05-19T06:22:00Z</time>
      </trkpt>
      <trkpt lat="41.9468160" lon="-8.8824000">
        <ele>39.6</ele>
        <time>2021-05-19T06:22:01Z</time>
      </trkpt>
      <trkpt lat="41.9468240" lon="-8.8824060">
        <ele>39.6</ele>
        <time>2021-05-19T06:22:02Z</time>
      </trkpt>
      <trkpt lat="41.9468350" lon="-8.8824110">
        <ele>39.6</ele>
        <time>2021-05-19T06:22:03Z</time>
      </trkpt>
      <trkpt lat="41.9468450" lon="-8.8824150">
        <ele>39.6</ele>
        <time>2021-05-19T06:22:04Z</time>
      </trkpt>
      <trkpt lat="41.9468510" lon="-8.8824250">
        <ele>39.6</ele>
        <time>2021-05-19T06:22:05Z</time>
      </trkpt>
      <trkpt lat="41.9468550" lon="-8.8824260">
        <ele>39.6</ele>
        <time>2021-05-19T06:22:06Z</time>
      </trkpt>
      <trkpt lat="41.9468600" lon="-8.8824290">
        <ele>39.6</ele>
        <time>2021-05-19T06:22:07Z</time>
      </trkpt>
      <trkpt lat="41.9468620" lon="-8.8824390">
        <ele>39.6</ele>
        <time>2021-05-19T06:22:08Z</time>
      </trkpt>
      <trkpt lat="41.9468610" lon="-8.8824360">
        <ele>39.6</ele>
        <time>2021-05-19T06:22:09Z</time>
      </trkpt>
      <trkpt lat="41.9468620" lon="-8.8824350">
        <ele>39.6</ele>
        <time>2021-05-19T06:22:10Z</time>
      </trkpt>
      <trkpt lat="41.9468620" lon="-8.8824350">
        <ele>39.6</ele>
        <time>2021-05-19T06:22:11Z</time>
      </trkpt>
      <trkpt lat="41.9468640" lon="-8.8824330">
        <ele>39.6</ele>
        <time>2021-05-19T06:22:12Z</time>
      </trkpt>
      <trkpt lat="41.9468650" lon="-8.8824320">
        <ele>39.6</ele>
        <time>2021-05-19T06:22:13Z</time>
      </trkpt>
      <trkpt lat="41.9468660" lon="-8.8824330">
        <ele>39.6</ele>
        <time>2021-05-19T06:22:14Z</time>
      </trkpt>
      <trkpt lat="41.9468670" lon="-8.8824340">
        <ele>39.6</ele>
        <time>2021-05-19T06:22:15Z</time>
      </trkpt>
      <trkpt lat="41.9468680" lon="-8.8824350">
        <ele>39.6</ele>
        <time>2021-05-19T06:22:16Z</time>
      </trkpt>
      <trkpt lat="41.9468710" lon="-8.8824370">
        <ele>39.6</ele>
        <time>2021-05-19T06:22:17Z</time>
      </trkpt>
      <trkpt lat="41.9468740" lon="-8.8824370">
        <ele>39.6</ele>
        <time>2021-05-19T06:22:18Z</time>
      </trkpt>
      <trkpt lat="41.9468740" lon="-8.8824390">
        <ele>39.6</ele>
        <time>2021-05-19T06:22:19Z</time>
      </trkpt>
      <trkpt lat="41.9468830" lon="-8.8824410">
        <ele>39.7</ele>
        <time>2021-05-19T06:22:20Z</time>
      </trkpt>
      <trkpt lat="41.9468930" lon="-8.8824440">
        <ele>39.7</ele>
        <time>2021-05-19T06:22:21Z</time>
      </trkpt>
      <trkpt lat="41.9468990" lon="-8.8824450">
        <ele>39.7</ele>
        <time>2021-05-19T06:22:22Z</time>
      </trkpt>
      <trkpt lat="41.9469020" lon="-8.8824470">
        <ele>39.7</ele>
        <time>2021-05-19T06:22:23Z</time>
      </trkpt>
      <trkpt lat="41.9469140" lon="-8.8824530">
        <ele>39.7</ele>
        <time>2021-05-19T06:22:24Z</time>
      </trkpt>
      <trkpt lat="41.9469240" lon="-8.8824600">
        <ele>39.7</ele>
        <time>2021-05-19T06:22:25Z</time>
      </trkpt>
      <trkpt lat="41.9469270" lon="-8.8824620">
        <ele>39.7</ele>
        <time>2021-05-19T06:22:26Z</time>
      </trkpt>
      <trkpt lat="41.9469400" lon="-8.8824760">
        <ele>39.7</ele>
        <time>2021-05-19T06:22:27Z</time>
      </trkpt>
      <trkpt lat="41.9469500" lon="-8.8824790">
        <ele>39.7</ele>
        <time>2021-05-19T06:22:28Z</time>
      </trkpt>
      <trkpt lat="41.9469660" lon="-8.8824960">
        <ele>39.7</ele>
        <time>2021-05-19T06:22:29Z</time>
      </trkpt>
      <trkpt lat="41.9469730" lon="-8.8825030">
        <ele>39.7</ele>
        <time>2021-05-19T06:22:30Z</time>
      </trkpt>
      <trkpt lat="41.9469800" lon="-8.8825100">
        <ele>39.7</ele>
        <time>2021-05-19T06:22:31Z</time>
      </trkpt>
      <trkpt lat="41.9469910" lon="-8.8825230">
        <ele>39.7</ele>
        <time>2021-05-19T06:22:32Z</time>
      </trkpt>
      <trkpt lat="41.9469990" lon="-8.8825310">
        <ele>39.7</ele>
        <time>2021-05-19T06:22:33Z</time>
      </trkpt>
      <trkpt lat="41.9470070" lon="-8.8825330">
        <ele>39.7</ele>
        <time>2021-05-19T06:22:34Z</time>
      </trkpt>
      <trkpt lat="41.9470130" lon="-8.8825360">
        <ele>39.7</ele>
        <time>2021-05-19T06:22:35Z</time>
      </trkpt>
      <trkpt lat="41.9470250" lon="-8.8825440">
        <ele>39.7</ele>
        <time>2021-05-19T06:22:36Z</time>
      </trkpt>
      <trkpt lat="41.9470400" lon="-8.8825490">
        <ele>39.7</ele>
        <time>2021-05-19T06:22:37Z</time>
      </trkpt>
      <trkpt lat="41.9470560" lon="-8.8825620">
        <ele>39.7</ele>
        <time>2021-05-19T06:22:38Z</time>
      </trkpt>
      <trkpt lat="41.9470680" lon="-8.8825760">
        <ele>39.7</ele>
        <time>2021-05-19T06:22:39Z</time>
      </trkpt>
      <trkpt lat="41.9470780" lon="-8.8825890">
        <ele>39.7</ele>
        <time>2021-05-19T06:22:40Z</time>
      </trkpt>
      <trkpt lat="41.9470910" lon="-8.8826010">
        <ele>39.7</ele>
        <time>2021-05-19T06:22:41Z</time>
      </trkpt>
      <trkpt lat="41.9471000" lon="-8.8826160">
        <ele>39.7</ele>
        <time>2021-05-19T06:22:42Z</time>
      </trkpt>
      <trkpt lat="41.9471140" lon="-8.8826270">
        <ele>39.7</ele>
        <time>2021-05-19T06:22:43Z</time>
      </trkpt>
      <trkpt lat="41.9471260" lon="-8.8826410">
        <ele>39.7</ele>
        <time>2021-05-19T06:22:44Z</time>
      </trkpt>
      <trkpt lat="41.9471390" lon="-8.8826550">
        <ele>39.7</ele>
        <time>2021-05-19T06:22:45Z</time>
      </trkpt>
      <trkpt lat="41.9471590" lon="-8.8826700">
        <ele>39.7</ele>
        <time>2021-05-19T06:22:46Z</time>
      </trkpt>
      <trkpt lat="41.9471670" lon="-8.8826780">
        <ele>39.6</ele>
        <time>2021-05-19T06:22:47Z</time>
      </trkpt>
      <trkpt lat="41.9471740" lon="-8.8826850">
        <ele>39.6</ele>
        <time>2021-05-19T06:22:48Z</time>
      </trkpt>
      <trkpt lat="41.9471800" lon="-8.8826920">
        <ele>39.6</ele>
        <time>2021-05-19T06:22:49Z</time>
      </trkpt>
      <trkpt lat="41.9471900" lon="-8.8827010">
        <ele>39.6</ele>
        <time>2021-05-19T06:22:50Z</time>
      </trkpt>
      <trkpt lat="41.9471980" lon="-8.8827100">
        <ele>39.6</ele>
        <time>2021-05-19T06:22:51Z</time>
      </trkpt>
      <trkpt lat="41.9472090" lon="-8.8827240">
        <ele>39.6</ele>
        <time>2021-05-19T06:22:52Z</time>
      </trkpt>
      <trkpt lat="41.9472200" lon="-8.8827340">
        <ele>39.6</ele>
        <time>2021-05-19T06:22:53Z</time>
      </trkpt>
      <trkpt lat="41.9472300" lon="-8.8827420">
        <ele>39.6</ele>
        <time>2021-05-19T06:22:54Z</time>
      </trkpt>
      <trkpt lat="41.9472410" lon="-8.8827470">
        <ele>39.6</ele>
        <time>2021-05-19T06:22:55Z</time>
      </trkpt>
      <trkpt lat="41.9472490" lon="-8.8827560">
        <ele>39.6</ele>
        <time>2021-05-19T06:22:56Z</time>
      </trkpt>
      <trkpt lat="41.9472570" lon="-8.8827680">
        <ele>39.6</ele>
        <time>2021-05-19T06:22:57Z</time>
      </trkpt>
      <trkpt lat="41.9472630" lon="-8.8827830">
        <ele>39.6</ele>
        <time>2021-05-19T06:22:58Z</time>
      </trkpt>
      <trkpt lat="41.9472680" lon="-8.8827930">
        <ele>39.6</ele>
        <time>2021-05-19T06:22:59Z</time>
      </trkpt>
      <trkpt lat="41.9472840" lon="-8.8828090">
        <ele>39.6</ele>
        <time>2021-05-19T06:23:00Z</time>
      </trkpt>
      <trkpt lat="41.9472870" lon="-8.8828130">
        <ele>39.6</ele>
        <time>2021-05-19T06:23:01Z</time>
      </trkpt>
      <trkpt lat="41.9472930" lon="-8.8828240">
        <ele>39.6</ele>
        <time>2021-05-19T06:23:02Z</time>
      </trkpt>
      <trkpt lat="41.9473070" lon="-8.8828410">
        <ele>39.5</ele>
        <time>2021-05-19T06:23:03Z</time>
      </trkpt>
      <trkpt lat="41.9473150" lon="-8.8828470">
        <ele>39.5</ele>
        <time>2021-05-19T06:23:04Z</time>
      </trkpt>
      <trkpt lat="41.9473220" lon="-8.8828540">
        <ele>39.5</ele>
        <time>2021-05-19T06:23:05Z</time>
      </trkpt>
      <trkpt lat="41.9473310" lon="-8.8828620">
        <ele>39.5</ele>
        <time>2021-05-19T06:23:06Z</time>
      </trkpt>
      <trkpt lat="41.9473440" lon="-8.8828770">
        <ele>39.5</ele>
        <time>2021-05-19T06:23:07Z</time>
      </trkpt>
      <trkpt lat="41.9473540" lon="-8.8828820">
        <ele>39.5</ele>
        <time>2021-05-19T06:23:08Z</time>
      </trkpt>
      <trkpt lat="41.9473700" lon="-8.8828930">
        <ele>39.5</ele>
        <time>2021-05-19T06:23:09Z</time>
      </trkpt>
      <trkpt lat="41.9473850" lon="-8.8829000">
        <ele>39.5</ele>
        <time>2021-05-19T06:23:10Z</time>
      </trkpt>
      <trkpt lat="41.9473930" lon="-8.8829030">
        <ele>39.5</ele>
        <time>2021-05-19T06:23:11Z</time>
      </trkpt>
      <trkpt lat="41.9474000" lon="-8.8829060">
        <ele>39.5</ele>
        <time>2021-05-19T06:23:12Z</time>
      </trkpt>
      <trkpt lat="41.9474080" lon="-8.8829090">
        <ele>39.5</ele>
        <time>2021-05-19T06:23:13Z</time>
      </trkpt>
      <trkpt lat="41.9474290" lon="-8.8829150">
        <ele>39.4</ele>
        <time>2021-05-19T06:23:14Z</time>
      </trkpt>
      <trkpt lat="41.9474400" lon="-8.8829170">
        <ele>39.4</ele>
        <time>2021-05-19T06:23:15Z</time>
      </trkpt>
      <trkpt lat="41.9474500" lon="-8.8829180">
        <ele>39.4</ele>
        <time>2021-05-19T06:23:16Z</time>
      </trkpt>
      <trkpt lat="41.9474620" lon="-8.8829210">
        <ele>39.4</ele>
        <time>2021-05-19T06:23:17Z</time>
      </trkpt>
      <trkpt lat="41.9474770" lon="-8.8829240">
        <ele>39.4</ele>
        <time>2021-05-19T06:23:18Z</time>
      </trkpt>
      <trkpt lat="41.9474970" lon="-8.8829280">
        <ele>39.3</ele>
        <time>2021-05-19T06:23:19Z</time>
      </trkpt>
      <trkpt lat="41.9475050" lon="-8.8829310">
        <ele>39.3</ele>
        <time>2021-05-19T06:23:20Z</time>
      </trkpt>
      <trkpt lat="41.9475130" lon="-8.8829330">
        <ele>39.3</ele>
        <time>2021-05-19T06:23:21Z</time>
      </trkpt>
      <trkpt lat="41.9475220" lon="-8.8829370">
        <ele>39.3</ele>
        <time>2021-05-19T06:23:22Z</time>
      </trkpt>
      <trkpt lat="41.9475300" lon="-8.8829330">
        <ele>39.3</ele>
        <time>2021-05-19T06:23:23Z</time>
      </trkpt>
      <trkpt lat="41.9475440" lon="-8.8829370">
        <ele>39.3</ele>
        <time>2021-05-19T06:23:24Z</time>
      </trkpt>
      <trkpt lat="41.9475540" lon="-8.8829380">
        <ele>39.3</ele>
        <time>2021-05-19T06:23:25Z</time>
      </trkpt>
      <trkpt lat="41.9475640" lon="-8.8829410">
        <ele>39.3</ele>
        <time>2021-05-19T06:23:26Z</time>
      </trkpt>
      <trkpt lat="41.9475780" lon="-8.8829440">
        <ele>39.2</ele>
        <time>2021-05-19T06:23:27Z</time>
      </trkpt>
      <trkpt lat="41.9475900" lon="-8.8829460">
        <ele>39.2</ele>
        <time>2021-05-19T06:23:28Z</time>
      </trkpt>
      <trkpt lat="41.9476060" lon="-8.8829520">
        <ele>39.2</ele>
        <time>2021-05-19T06:23:29Z</time>
      </trkpt>
      <trkpt lat="41.9476170" lon="-8.8829480">
        <ele>39.1</ele>
        <time>2021-05-19T06:23:30Z</time>
      </trkpt>
      <trkpt lat="41.9476350" lon="-8.8829540">
        <ele>39.1</ele>
        <time>2021-05-19T06:23:31Z</time>
      </trkpt>
      <trkpt lat="41.9476510" lon="-8.8829640">
        <ele>39.1</ele>
        <time>2021-05-19T06:23:32Z</time>
      </trkpt>
      <trkpt lat="41.9476600" lon="-8.8829660">
        <ele>39.1</ele>
        <time>2021-05-19T06:23:33Z</time>
      </trkpt>
      <trkpt lat="41.9476700" lon="-8.8829690">
        <ele>39.0</ele>
        <time>2021-05-19T06:23:34Z</time>
      </trkpt>
      <trkpt lat="41.9476820" lon="-8.8829650">
        <ele>39.0</ele>
        <time>2021-05-19T06:23:35Z</time>
      </trkpt>
      <trkpt lat="41.9476910" lon="-8.8829670">
        <ele>39.0</ele>
        <time>2021-05-19T06:23:36Z</time>
      </trkpt>
      <trkpt lat="41.9477050" lon="-8.8829650">
        <ele>38.9</ele>
        <time>2021-05-19T06:23:37Z</time>
      </trkpt>
      <trkpt lat="41.9477340" lon="-8.8829730">
        <ele>38.9</ele>
        <time>2021-05-19T06:23:38Z</time>
      </trkpt>
      <trkpt lat="41.9477430" lon="-8.8829780">
        <ele>38.8</ele>
        <time>2021-05-19T06:23:39Z</time>
      </trkpt>
      <trkpt lat="41.9477470" lon="-8.8829740">
        <ele>38.8</ele>
        <time>2021-05-19T06:23:40Z</time>
      </trkpt>
      <trkpt lat="41.9477620" lon="-8.8829740">
        <ele>38.8</ele>
        <time>2021-05-19T06:23:41Z</time>
      </trkpt>
      <trkpt lat="41.9477760" lon="-8.8829850">
        <ele>38.8</ele>
        <time>2021-05-19T06:23:42Z</time>
      </trkpt>
      <trkpt lat="41.9478000" lon="-8.8829830">
        <ele>38.7</ele>
        <time>2021-05-19T06:23:43Z</time>
      </trkpt>
      <trkpt lat="41.9478080" lon="-8.8829810">
        <ele>38.7</ele>
        <time>2021-05-19T06:23:44Z</time>
      </trkpt>
      <trkpt lat="41.9478170" lon="-8.8829780">
        <ele>38.7</ele>
        <time>2021-05-19T06:23:45Z</time>
      </trkpt>
      <trkpt lat="41.9478290" lon="-8.8829830">
        <ele>38.6</ele>
        <time>2021-05-19T06:23:46Z</time>
      </trkpt>
      <trkpt lat="41.9478460" lon="-8.8829880">
        <ele>38.6</ele>
        <time>2021-05-19T06:23:47Z</time>
      </trkpt>
      <trkpt lat="41.9478570" lon="-8.8829890">
        <ele>38.6</ele>
        <time>2021-05-19T06:23:48Z</time>
      </trkpt>
      <trkpt lat="41.9478670" lon="-8.8829860">
        <ele>38.5</ele>
        <time>2021-05-19T06:23:49Z</time>
      </trkpt>
      <trkpt lat="41.9478820" lon="-8.8829920">
        <ele>38.5</ele>
        <time>2021-05-19T06:23:50Z</time>
      </trkpt>
      <trkpt lat="41.9479030" lon="-8.8829890">
        <ele>38.4</ele>
        <time>2021-05-19T06:23:51Z</time>
      </trkpt>
      <trkpt lat="41.9479100" lon="-8.8829860">
        <ele>38.4</ele>
        <time>2021-05-19T06:23:52Z</time>
      </trkpt>
      <trkpt lat="41.9479180" lon="-8.8829830">
        <ele>38.4</ele>
        <time>2021-05-19T06:23:53Z</time>
      </trkpt>
      <trkpt lat="41.9479330" lon="-8.8829830">
        <ele>38.4</ele>
        <time>2021-05-19T06:23:54Z</time>
      </trkpt>
      <trkpt lat="41.9479460" lon="-8.8829840">
        <ele>38.3</ele>
        <time>2021-05-19T06:23:55Z</time>
      </trkpt>
      <trkpt lat="41.9479650" lon="-8.8829770">
        <ele>38.3</ele>
        <time>2021-05-19T06:23:56Z</time>
      </trkpt>
      <trkpt lat="41.9479730" lon="-8.8829720">
        <ele>38.3</ele>
        <time>2021-05-19T06:23:57Z</time>
      </trkpt>
      <trkpt lat="41.9479810" lon="-8.8829680">
        <ele>38.3</ele>
        <time>2021-05-19T06:23:58Z</time>
      </trkpt>
      <trkpt lat="41.9479980" lon="-8.8829670">
        <ele>38.2</ele>
        <time>2021-05-19T06:23:59Z</time>
      </trkpt>
      <trkpt lat="41.9480090" lon="-8.8829660">
        <ele>38.2</ele>
        <time>2021-05-19T06:24:00Z</time>
      </trkpt>
      <trkpt lat="41.9480310" lon="-8.8829550">
        <ele>38.2</ele>
        <time>2021-05-19T06:24:01Z</time>
      </trkpt>
      <trkpt lat="41.9480380" lon="-8.8829520">
        <ele>38.1</ele>
        <time>2021-05-19T06:24:02Z</time>
      </trkpt>
      <trkpt lat="41.9480440" lon="-8.8829490">
        <ele>38.1</ele>
        <time>2021-05-19T06:24:03Z</time>
      </trkpt>
      <trkpt lat="41.9480560" lon="-8.8829520">
        <ele>38.1</ele>
        <time>2021-05-19T06:24:04Z</time>
      </trkpt>
      <trkpt lat="41.9480700" lon="-8.8829490">
        <ele>38.1</ele>
        <time>2021-05-19T06:24:05Z</time>
      </trkpt>
      <trkpt lat="41.9480800" lon="-8.8829520">
        <ele>38.1</ele>
        <time>2021-05-19T06:24:06Z</time>
      </trkpt>
      <trkpt lat="41.9480890" lon="-8.8829600">
        <ele>38.0</ele>
        <time>2021-05-19T06:24:07Z</time>
      </trkpt>
      <trkpt lat="41.9481090" lon="-8.8829550">
        <ele>38.0</ele>
        <time>2021-05-19T06:24:08Z</time>
      </trkpt>
      <trkpt lat="41.9481230" lon="-8.8829610">
        <ele>38.0</ele>
        <time>2021-05-19T06:24:09Z</time>
      </trkpt>
      <trkpt lat="41.9481320" lon="-8.8829650">
        <ele>38.0</ele>
        <time>2021-05-19T06:24:10Z</time>
      </trkpt>
      <trkpt lat="41.9481410" lon="-8.8829700">
        <ele>38.0</ele>
        <time>2021-05-19T06:24:11Z</time>
      </trkpt>
      <trkpt lat="41.9481550" lon="-8.8829750">
        <ele>38.0</ele>
        <time>2021-05-19T06:24:12Z</time>
      </trkpt>
      <trkpt lat="41.9481680" lon="-8.8829800">
        <ele>38.0</ele>
        <time>2021-05-19T06:24:13Z</time>
      </trkpt>
      <trkpt lat="41.9481760" lon="-8.8829880">
        <ele>38.0</ele>
        <time>2021-05-19T06:24:14Z</time>
      </trkpt>
      <trkpt lat="41.9481860" lon="-8.8829900">
        <ele>38.0</ele>
        <time>2021-05-19T06:24:15Z</time>
      </trkpt>
      <trkpt lat="41.9482010" lon="-8.8829980">
        <ele>38.0</ele>
        <time>2021-05-19T06:24:16Z</time>
      </trkpt>
      <trkpt lat="41.9482150" lon="-8.8830040">
        <ele>38.0</ele>
        <time>2021-05-19T06:24:17Z</time>
      </trkpt>
      <trkpt lat="41.9482310" lon="-8.8830060">
        <ele>38.0</ele>
        <time>2021-05-19T06:24:18Z</time>
      </trkpt>
      <trkpt lat="41.9482470" lon="-8.8830130">
        <ele>37.9</ele>
        <time>2021-05-19T06:24:19Z</time>
      </trkpt>
      <trkpt lat="41.9482600" lon="-8.8830180">
        <ele>37.9</ele>
        <time>2021-05-19T06:24:20Z</time>
      </trkpt>
      <trkpt lat="41.9482830" lon="-8.8830260">
        <ele>37.9</ele>
        <time>2021-05-19T06:24:21Z</time>
      </trkpt>
      <trkpt lat="41.9482890" lon="-8.8830290">
        <ele>37.9</ele>
        <time>2021-05-19T06:24:22Z</time>
      </trkpt>
      <trkpt lat="41.9482960" lon="-8.8830320">
        <ele>37.9</ele>
        <time>2021-05-19T06:24:23Z</time>
      </trkpt>
      <trkpt lat="41.9483060" lon="-8.8830350">
        <ele>37.9</ele>
        <time>2021-05-19T06:24:24Z</time>
      </trkpt>
      <trkpt lat="41.9483200" lon="-8.8830330">
        <ele>37.9</ele>
        <time>2021-05-19T06:24:25Z</time>
      </trkpt>
      <trkpt lat="41.9483300" lon="-8.8830390">
        <ele>37.9</ele>
        <time>2021-05-19T06:24:26Z</time>
      </trkpt>
      <trkpt lat="41.9483530" lon="-8.8830460">
        <ele>37.9</ele>
        <time>2021-05-19T06:24:27Z</time>
      </trkpt>
      <trkpt lat="41.9483590" lon="-8.8830500">
        <ele>37.9</ele>
        <time>2021-05-19T06:24:28Z</time>
      </trkpt>
      <trkpt lat="41.9483660" lon="-8.8830530">
        <ele>37.9</ele>
        <time>2021-05-19T06:24:29Z</time>
      </trkpt>
      <trkpt lat="41.9483870" lon="-8.8830560">
        <ele>37.8</ele>
        <time>2021-05-19T06:24:30Z</time>
      </trkpt>
      <trkpt lat="41.9483940" lon="-8.8830600">
        <ele>37.8</ele>
        <time>2021-05-19T06:24:31Z</time>
      </trkpt>
      <trkpt lat="41.9484020" lon="-8.8830630">
        <ele>37.8</ele>
        <time>2021-05-19T06:24:32Z</time>
      </trkpt>
      <trkpt lat="41.9484150" lon="-8.8830690">
        <ele>37.8</ele>
        <time>2021-05-19T06:24:33Z</time>
      </trkpt>
      <trkpt lat="41.9484280" lon="-8.8830770">
        <ele>37.8</ele>
        <time>2021-05-19T06:24:34Z</time>
      </trkpt>
      <trkpt lat="41.9484420" lon="-8.8830800">
        <ele>37.8</ele>
        <time>2021-05-19T06:24:35Z</time>
      </trkpt>
      <trkpt lat="41.9484490" lon="-8.8830840">
        <ele>37.8</ele>
        <time>2021-05-19T06:24:36Z</time>
      </trkpt>
      <trkpt lat="41.9484570" lon="-8.8830860">
        <ele>37.8</ele>
        <time>2021-05-19T06:24:37Z</time>
      </trkpt>
      <trkpt lat="41.9484770" lon="-8.8830960">
        <ele>37.8</ele>
        <time>2021-05-19T06:24:38Z</time>
      </trkpt>
      <trkpt lat="41.9484850" lon="-8.8831000">
        <ele>37.7</ele>
        <time>2021-05-19T06:24:39Z</time>
      </trkpt>
      <trkpt lat="41.9484940" lon="-8.8831030">
        <ele>37.7</ele>
        <time>2021-05-19T06:24:40Z</time>
      </trkpt>
      <trkpt lat="41.9485140" lon="-8.8831100">
        <ele>37.7</ele>
        <time>2021-05-19T06:24:41Z</time>
      </trkpt>
      <trkpt lat="41.9485230" lon="-8.8831150">
        <ele>37.7</ele>
        <time>2021-05-19T06:24:42Z</time>
      </trkpt>
      <trkpt lat="41.9485330" lon="-8.8831190">
        <ele>37.7</ele>
        <time>2021-05-19T06:24:43Z</time>
      </trkpt>
      <trkpt lat="41.9485470" lon="-8.8831240">
        <ele>37.7</ele>
        <time>2021-05-19T06:24:44Z</time>
      </trkpt>
      <trkpt lat="41.9485640" lon="-8.8831310">
        <ele>37.6</ele>
        <time>2021-05-19T06:24:45Z</time>
      </trkpt>
      <trkpt lat="41.9485700" lon="-8.8831330">
        <ele>37.6</ele>
        <time>2021-05-19T06:24:46Z</time>
      </trkpt>
      <trkpt lat="41.9485820" lon="-8.8831370">
        <ele>37.6</ele>
        <time>2021-05-19T06:24:47Z</time>
      </trkpt>
      <trkpt lat="41.9485930" lon="-8.8831410">
        <ele>37.6</ele>
        <time>2021-05-19T06:24:48Z</time>
      </trkpt>
      <trkpt lat="41.9486120" lon="-8.8831480">
        <ele>37.5</ele>
        <time>2021-05-19T06:24:49Z</time>
      </trkpt>
      <trkpt lat="41.9486210" lon="-8.8831510">
        <ele>37.5</ele>
        <time>2021-05-19T06:24:50Z</time>
      </trkpt>
      <trkpt lat="41.9486300" lon="-8.8831550">
        <ele>37.5</ele>
        <time>2021-05-19T06:24:51Z</time>
      </trkpt>
      <trkpt lat="41.9486520" lon="-8.8831600">
        <ele>37.4</ele>
        <time>2021-05-19T06:24:52Z</time>
      </trkpt>
      <trkpt lat="41.9486620" lon="-8.8831620">
        <ele>37.4</ele>
        <time>2021-05-19T06:24:53Z</time>
      </trkpt>
      <trkpt lat="41.9486720" lon="-8.8831650">
        <ele>37.4</ele>
        <time>2021-05-19T06:24:54Z</time>
      </trkpt>
      <trkpt lat="41.9486780" lon="-8.8831680">
        <ele>37.4</ele>
        <time>2021-05-19T06:24:55Z</time>
      </trkpt>
      <trkpt lat="41.9486900" lon="-8.8831710">
        <ele>37.4</ele>
        <time>2021-05-19T06:24:56Z</time>
      </trkpt>
      <trkpt lat="41.9487030" lon="-8.8831730">
        <ele>37.3</ele>
        <time>2021-05-19T06:24:57Z</time>
      </trkpt>
      <trkpt lat="41.9487120" lon="-8.8831820">
        <ele>37.3</ele>
        <time>2021-05-19T06:24:58Z</time>
      </trkpt>
      <trkpt lat="41.9487220" lon="-8.8831840">
        <ele>37.3</ele>
        <time>2021-05-19T06:24:59Z</time>
      </trkpt>
      <trkpt lat="41.9487370" lon="-8.8831850">
        <ele>37.2</ele>
        <time>2021-05-19T06:25:00Z</time>
      </trkpt>
      <trkpt lat="41.9487490" lon="-8.8831910">
        <ele>37.2</ele>
        <time>2021-05-19T06:25:01Z</time>
      </trkpt>
      <trkpt lat="41.9487630" lon="-8.8831920">
        <ele>37.2</ele>
        <time>2021-05-19T06:25:02Z</time>
      </trkpt>
      <trkpt lat="41.9487720" lon="-8.8831980">
        <ele>37.2</ele>
        <time>2021-05-19T06:25:03Z</time>
      </trkpt>
      <trkpt lat="41.9487850" lon="-8.8832010">
        <ele>37.1</ele>
        <time>2021-05-19T06:25:04Z</time>
      </trkpt>
      <trkpt lat="41.9487960" lon="-8.8832050">
        <ele>37.1</ele>
        <time>2021-05-19T06:25:05Z</time>
      </trkpt>
      <trkpt lat="41.9488040" lon="-8.8832010">
        <ele>37.1</ele>
        <time>2021-05-19T06:25:06Z</time>
      </trkpt>
      <trkpt lat="41.9488170" lon="-8.8832080">
        <ele>37.1</ele>
        <time>2021-05-19T06:25:07Z</time>
      </trkpt>
      <trkpt lat="41.9488330" lon="-8.8832100">
        <ele>37.1</ele>
        <time>2021-05-19T06:25:08Z</time>
      </trkpt>
      <trkpt lat="41.9488540" lon="-8.8832150">
        <ele>37.0</ele>
        <time>2021-05-19T06:25:09Z</time>
      </trkpt>
      <trkpt lat="41.9488680" lon="-8.8832230">
        <ele>37.0</ele>
        <time>2021-05-19T06:25:10Z</time>
      </trkpt>
      <trkpt lat="41.9488770" lon="-8.8832320">
        <ele>37.0</ele>
        <time>2021-05-19T06:25:11Z</time>
      </trkpt>
      <trkpt lat="41.9488830" lon="-8.8832350">
        <ele>37.0</ele>
        <time>2021-05-19T06:25:12Z</time>
      </trkpt>
      <trkpt lat="41.9489000" lon="-8.8832420">
        <ele>36.9</ele>
        <time>2021-05-19T06:25:13Z</time>
      </trkpt>
      <trkpt lat="41.9489060" lon="-8.8832450">
        <ele>36.9</ele>
        <time>2021-05-19T06:25:14Z</time>
      </trkpt>
      <trkpt lat="41.9489190" lon="-8.8832500">
        <ele>36.9</ele>
        <time>2021-05-19T06:25:15Z</time>
      </trkpt>
      <trkpt lat="41.9489330" lon="-8.8832590">
        <ele>36.9</ele>
        <time>2021-05-19T06:25:16Z</time>
      </trkpt>
      <trkpt lat="41.9489530" lon="-8.8832690">
        <ele>36.9</ele>
        <time>2021-05-19T06:25:17Z</time>
      </trkpt>
      <trkpt lat="41.9489620" lon="-8.8832740">
        <ele>36.8</ele>
        <time>2021-05-19T06:25:18Z</time>
      </trkpt>
      <trkpt lat="41.9489710" lon="-8.8832780">
        <ele>36.8</ele>
        <time>2021-05-19T06:25:19Z</time>
      </trkpt>
      <trkpt lat="41.9489800" lon="-8.8832840">
        <ele>36.8</ele>
        <time>2021-05-19T06:25:20Z</time>
      </trkpt>
      <trkpt lat="41.9489910" lon="-8.8832880">
        <ele>36.8</ele>
        <time>2021-05-19T06:25:21Z</time>
      </trkpt>
      <trkpt lat="41.9490000" lon="-8.8832900">
        <ele>36.8</ele>
        <time>2021-05-19T06:25:22Z</time>
      </trkpt>
      <trkpt lat="41.9490230" lon="-8.8832940">
        <ele>36.8</ele>
        <time>2021-05-19T06:25:23Z</time>
      </trkpt>
      <trkpt lat="41.9490350" lon="-8.8832990">
        <ele>36.8</ele>
        <time>2021-05-19T06:25:24Z</time>
      </trkpt>
      <trkpt lat="41.9490460" lon="-8.8833030">
        <ele>36.8</ele>
        <time>2021-05-19T06:25:25Z</time>
      </trkpt>
      <trkpt lat="41.9490490" lon="-8.8833060">
        <ele>36.7</ele>
        <time>2021-05-19T06:25:26Z</time>
      </trkpt>
      <trkpt lat="41.9490640" lon="-8.8833150">
        <ele>36.7</ele>
        <time>2021-05-19T06:25:27Z</time>
      </trkpt>
      <trkpt lat="41.9490740" lon="-8.8833230">
        <ele>36.7</ele>
        <time>2021-05-19T06:25:28Z</time>
      </trkpt>
      <trkpt lat="41.9490990" lon="-8.8833380">
        <ele>36.7</ele>
        <time>2021-05-19T06:25:29Z</time>
      </trkpt>
      <trkpt lat="41.9491060" lon="-8.8833400">
        <ele>36.7</ele>
        <time>2021-05-19T06:25:30Z</time>
      </trkpt>
      <trkpt lat="41.9491130" lon="-8.8833420">
        <ele>36.7</ele>
        <time>2021-05-19T06:25:31Z</time>
      </trkpt>
      <trkpt lat="41.9491310" lon="-8.8833490">
        <ele>36.7</ele>
        <time>2021-05-19T06:25:32Z</time>
      </trkpt>
      <trkpt lat="41.9491360" lon="-8.8833490">
        <ele>36.7</ele>
        <time>2021-05-19T06:25:33Z</time>
      </trkpt>
      <trkpt lat="41.9491480" lon="-8.8833580">
        <ele>36.7</ele>
        <time>2021-05-19T06:25:34Z</time>
      </trkpt>
      <trkpt lat="41.9491700" lon="-8.8833680">
        <ele>36.7</ele>
        <time>2021-05-19T06:25:35Z</time>
      </trkpt>
      <trkpt lat="41.9491770" lon="-8.8833730">
        <ele>36.7</ele>
        <time>2021-05-19T06:25:36Z</time>
      </trkpt>
      <trkpt lat="41.9491840" lon="-8.8833770">
        <ele>36.7</ele>
        <time>2021-05-19T06:25:37Z</time>
      </trkpt>
      <trkpt lat="41.9492060" lon="-8.8833880">
        <ele>36.6</ele>
        <time>2021-05-19T06:25:38Z</time>
      </trkpt>
      <trkpt lat="41.9492150" lon="-8.8833930">
        <ele>36.6</ele>
        <time>2021-05-19T06:25:39Z</time>
      </trkpt>
      <trkpt lat="41.9492230" lon="-8.8833970">
        <ele>36.6</ele>
        <time>2021-05-19T06:25:40Z</time>
      </trkpt>
      <trkpt lat="41.9492360" lon="-8.8834040">
        <ele>36.6</ele>
        <time>2021-05-19T06:25:41Z</time>
      </trkpt>
      <trkpt lat="41.9492490" lon="-8.8834120">
        <ele>36.6</ele>
        <time>2021-05-19T06:25:42Z</time>
      </trkpt>
      <trkpt lat="41.9492660" lon="-8.8834240">
        <ele>36.5</ele>
        <time>2021-05-19T06:25:43Z</time>
      </trkpt>
      <trkpt lat="41.9492740" lon="-8.8834290">
        <ele>36.5</ele>
        <time>2021-05-19T06:25:44Z</time>
      </trkpt>
      <trkpt lat="41.9492830" lon="-8.8834330">
        <ele>36.5</ele>
        <time>2021-05-19T06:25:45Z</time>
      </trkpt>
      <trkpt lat="41.9492990" lon="-8.8834400">
        <ele>36.4</ele>
        <time>2021-05-19T06:25:46Z</time>
      </trkpt>
      <trkpt lat="41.9493130" lon="-8.8834490">
        <ele>36.4</ele>
        <time>2021-05-19T06:25:47Z</time>
      </trkpt>
      <trkpt lat="41.9493300" lon="-8.8834550">
        <ele>36.4</ele>
        <time>2021-05-19T06:25:48Z</time>
      </trkpt>
      <trkpt lat="41.9493330" lon="-8.8834620">
        <ele>36.3</ele>
        <time>2021-05-19T06:25:49Z</time>
      </trkpt>
      <trkpt lat="41.9493430" lon="-8.8834720">
        <ele>36.3</ele>
        <time>2021-05-19T06:25:50Z</time>
      </trkpt>
      <trkpt lat="41.9493570" lon="-8.8834740">
        <ele>36.3</ele>
        <time>2021-05-19T06:25:51Z</time>
      </trkpt>
      <trkpt lat="41.9493690" lon="-8.8834850">
        <ele>36.3</ele>
        <time>2021-05-19T06:25:52Z</time>
      </trkpt>
      <trkpt lat="41.9493840" lon="-8.8834990">
        <ele>36.2</ele>
        <time>2021-05-19T06:25:53Z</time>
      </trkpt>
      <trkpt lat="41.9493930" lon="-8.8835070">
        <ele>36.2</ele>
        <time>2021-05-19T06:25:54Z</time>
      </trkpt>
      <trkpt lat="41.9494020" lon="-8.8835150">
        <ele>36.2</ele>
        <time>2021-05-19T06:25:55Z</time>
      </trkpt>
      <trkpt lat="41.9494150" lon="-8.8835210">
        <ele>36.1</ele>
        <time>2021-05-19T06:25:56Z</time>
      </trkpt>
      <trkpt lat="41.9494290" lon="-8.8835330">
        <ele>36.1</ele>
        <time>2021-05-19T06:25:57Z</time>
      </trkpt>
      <trkpt lat="41.9494420" lon="-8.8835370">
        <ele>36.0</ele>
        <time>2021-05-19T06:25:58Z</time>
      </trkpt>
      <trkpt lat="41.9494520" lon="-8.8835440">
        <ele>36.0</ele>
        <time>2021-05-19T06:25:59Z</time>
      </trkpt>
      <trkpt lat="41.9494610" lon="-8.8835480">
        <ele>36.0</ele>
        <time>2021-05-19T06:26:00Z</time>
      </trkpt>
      <trkpt lat="41.9494750" lon="-8.8835540">
        <ele>36.0</ele>
        <time>2021-05-19T06:26:01Z</time>
      </trkpt>
      <trkpt lat="41.9494820" lon="-8.8835530">
        <ele>35.9</ele>
        <time>2021-05-19T06:26:02Z</time>
      </trkpt>
      <trkpt lat="41.9494910" lon="-8.8835600">
        <ele>35.9</ele>
        <time>2021-05-19T06:26:03Z</time>
      </trkpt>
      <trkpt lat="41.9495070" lon="-8.8835700">
        <ele>35.9</ele>
        <time>2021-05-19T06:26:04Z</time>
      </trkpt>
      <trkpt lat="41.9495220" lon="-8.8835820">
        <ele>35.8</ele>
        <time>2021-05-19T06:26:05Z</time>
      </trkpt>
      <trkpt lat="41.9495420" lon="-8.8836010">
        <ele>35.8</ele>
        <time>2021-05-19T06:26:06Z</time>
      </trkpt>
      <trkpt lat="41.9495470" lon="-8.8836060">
        <ele>35.7</ele>
        <time>2021-05-19T06:26:07Z</time>
      </trkpt>
      <trkpt lat="41.9495530" lon="-8.8836110">
        <ele>35.7</ele>
        <time>2021-05-19T06:26:08Z</time>
      </trkpt>
      <trkpt lat="41.9495750" lon="-8.8836170">
        <ele>35.7</ele>
        <time>2021-05-19T06:26:09Z</time>
      </trkpt>
      <trkpt lat="41.9495840" lon="-8.8836230">
        <ele>35.6</ele>
        <time>2021-05-19T06:26:10Z</time>
      </trkpt>
      <trkpt lat="41.9495930" lon="-8.8836280">
        <ele>35.6</ele>
        <time>2021-05-19T06:26:11Z</time>
      </trkpt>
      <trkpt lat="41.9496030" lon="-8.8836380">
        <ele>35.6</ele>
        <time>2021-05-19T06:26:12Z</time>
      </trkpt>
      <trkpt lat="41.9496170" lon="-8.8836410">
        <ele>35.6</ele>
        <time>2021-05-19T06:26:13Z</time>
      </trkpt>
      <trkpt lat="41.9496250" lon="-8.8836470">
        <ele>35.5</ele>
        <time>2021-05-19T06:26:14Z</time>
      </trkpt>
      <trkpt lat="41.9496330" lon="-8.8836520">
        <ele>35.5</ele>
        <time>2021-05-19T06:26:15Z</time>
      </trkpt>
      <trkpt lat="41.9496370" lon="-8.8836590">
        <ele>35.5</ele>
        <time>2021-05-19T06:26:16Z</time>
      </trkpt>
      <trkpt lat="41.9496490" lon="-8.8836660">
        <ele>35.5</ele>
        <time>2021-05-19T06:26:17Z</time>
      </trkpt>
      <trkpt lat="41.9496600" lon="-8.8836710">
        <ele>35.4</ele>
        <time>2021-05-19T06:26:18Z</time>
      </trkpt>
      <trkpt lat="41.9496760" lon="-8.8836810">
        <ele>35.4</ele>
        <time>2021-05-19T06:26:19Z</time>
      </trkpt>
      <trkpt lat="41.9496860" lon="-8.8836850">
        <ele>35.4</ele>
        <time>2021-05-19T06:26:20Z</time>
      </trkpt>
      <trkpt lat="41.9496960" lon="-8.8836710">
        <ele>35.3</ele>
        <time>2021-05-19T06:26:21Z</time>
      </trkpt>
      <trkpt lat="41.9496970" lon="-8.8836630">
        <ele>35.3</ele>
        <time>2021-05-19T06:26:22Z</time>
      </trkpt>
      <trkpt lat="41.9496970" lon="-8.8836640">
        <ele>35.3</ele>
        <time>2021-05-19T06:26:23Z</time>
      </trkpt>
      <trkpt lat="41.9496910" lon="-8.8836680">
        <ele>35.3</ele>
        <time>2021-05-19T06:26:24Z</time>
      </trkpt>
      <trkpt lat="41.9496810" lon="-8.8836690">
        <ele>35.3</ele>
        <time>2021-05-19T06:26:25Z</time>
      </trkpt>
      <trkpt lat="41.9496720" lon="-8.8836640">
        <ele>35.3</ele>
        <time>2021-05-19T06:26:26Z</time>
      </trkpt>
      <trkpt lat="41.9496690" lon="-8.8836620">
        <ele>35.2</ele>
        <time>2021-05-19T06:26:27Z</time>
      </trkpt>
      <trkpt lat="41.9496660" lon="-8.8836650">
        <ele>35.2</ele>
        <time>2021-05-19T06:26:28Z</time>
      </trkpt>
      <trkpt lat="41.9496670" lon="-8.8836600">
        <ele>35.2</ele>
        <time>2021-05-19T06:26:29Z</time>
      </trkpt>
      <trkpt lat="41.9496660" lon="-8.8836600">
        <ele>35.2</ele>
        <time>2021-05-19T06:26:30Z</time>
      </trkpt>
      <trkpt lat="41.9496680" lon="-8.8836630">
        <ele>35.2</ele>
        <time>2021-05-19T06:26:31Z</time>
      </trkpt>
      <trkpt lat="41.9496670" lon="-8.8836630">
        <ele>35.2</ele>
        <time>2021-05-19T06:26:32Z</time>
      </trkpt>
      <trkpt lat="41.9496670" lon="-8.8836610">
        <ele>35.2</ele>
        <time>2021-05-19T06:26:33Z</time>
      </trkpt>
      <trkpt lat="41.9496680" lon="-8.8836610">
        <ele>35.2</ele>
        <time>2021-05-19T06:26:34Z</time>
      </trkpt>
      <trkpt lat="41.9496680" lon="-8.8836610">
        <ele>35.2</ele>
        <time>2021-05-19T06:26:35Z</time>
      </trkpt>
      <trkpt lat="41.9496670" lon="-8.8836590">
        <ele>35.2</ele>
        <time>2021-05-19T06:26:36Z</time>
      </trkpt>
      <trkpt lat="41.9496660" lon="-8.8836580">
        <ele>35.2</ele>
        <time>2021-05-19T06:26:37Z</time>
      </trkpt>
      <trkpt lat="41.9496660" lon="-8.8836590">
        <ele>35.2</ele>
        <time>2021-05-19T06:26:38Z</time>
      </trkpt>
      <trkpt lat="41.9496670" lon="-8.8836600">
        <ele>35.2</ele>
        <time>2021-05-19T06:26:39Z</time>
      </trkpt>
      <trkpt lat="41.9496680" lon="-8.8836600">
        <ele>35.2</ele>
        <time>2021-05-19T06:26:40Z</time>
      </trkpt>
      <trkpt lat="41.9496650" lon="-8.8836600">
        <ele>35.2</ele>
        <time>2021-05-19T06:26:41Z</time>
      </trkpt>
      <trkpt lat="41.9496630" lon="-8.8836540">
        <ele>35.2</ele>
        <time>2021-05-19T06:26:42Z</time>
      </trkpt>
      <trkpt lat="41.9496630" lon="-8.8836530">
        <ele>35.2</ele>
        <time>2021-05-19T06:26:43Z</time>
      </trkpt>
      <trkpt lat="41.9496640" lon="-8.8836520">
        <ele>35.2</ele>
        <time>2021-05-19T06:26:44Z</time>
      </trkpt>
      <trkpt lat="41.9496650" lon="-8.8836520">
        <ele>35.2</ele>
        <time>2021-05-19T06:26:45Z</time>
      </trkpt>
      <trkpt lat="41.9496650" lon="-8.8836510">
        <ele>35.2</ele>
        <time>2021-05-19T06:26:46Z</time>
      </trkpt>
      <trkpt lat="41.9496660" lon="-8.8836500">
        <ele>35.2</ele>
        <time>2021-05-19T06:26:47Z</time>
      </trkpt>
      <trkpt lat="41.9496660" lon="-8.8836470">
        <ele>35.2</ele>
        <time>2021-05-19T06:26:48Z</time>
      </trkpt>
      <trkpt lat="41.9496660" lon="-8.8836460">
        <ele>35.2</ele>
        <time>2021-05-19T06:26:49Z</time>
      </trkpt>
      <trkpt lat="41.9496660" lon="-8.8836460">
        <ele>35.2</ele>
        <time>2021-05-19T06:26:50Z</time>
      </trkpt>
      <trkpt lat="41.9496660" lon="-8.8836460">
        <ele>35.2</ele>
        <time>2021-05-19T06:26:51Z</time>
      </trkpt>
      <trkpt lat="41.9496650" lon="-8.8836490">
        <ele>35.1</ele>
        <time>2021-05-19T06:26:52Z</time>
      </trkpt>
      <trkpt lat="41.9496660" lon="-8.8836500">
        <ele>35.1</ele>
        <time>2021-05-19T06:26:53Z</time>
      </trkpt>
      <trkpt lat="41.9496690" lon="-8.8836500">
        <ele>35.1</ele>
        <time>2021-05-19T06:26:54Z</time>
      </trkpt>
      <trkpt lat="41.9496730" lon="-8.8836500">
        <ele>35.1</ele>
        <time>2021-05-19T06:26:55Z</time>
      </trkpt>
      <trkpt lat="41.9496810" lon="-8.8836470">
        <ele>35.1</ele>
        <time>2021-05-19T06:26:56Z</time>
      </trkpt>
      <trkpt lat="41.9496920" lon="-8.8836530">
        <ele>35.1</ele>
        <time>2021-05-19T06:26:57Z</time>
      </trkpt>
      <trkpt lat="41.9497020" lon="-8.8836520">
        <ele>35.1</ele>
        <time>2021-05-19T06:26:58Z</time>
      </trkpt>
      <trkpt lat="41.9497120" lon="-8.8836510">
        <ele>35.0</ele>
        <time>2021-05-19T06:26:59Z</time>
      </trkpt>
      <trkpt lat="41.9497230" lon="-8.8836560">
        <ele>35.0</ele>
        <time>2021-05-19T06:27:00Z</time>
      </trkpt>
      <trkpt lat="41.9497340" lon="-8.8836570">
        <ele>35.0</ele>
        <time>2021-05-19T06:27:01Z</time>
      </trkpt>
      <trkpt lat="41.9497440" lon="-8.8836540">
        <ele>34.9</ele>
        <time>2021-05-19T06:27:02Z</time>
      </trkpt>
      <trkpt lat="41.9497620" lon="-8.8836580">
        <ele>34.9</ele>
        <time>2021-05-19T06:27:03Z</time>
      </trkpt>
      <trkpt lat="41.9497710" lon="-8.8836610">
        <ele>34.9</ele>
        <time>2021-05-19T06:27:04Z</time>
      </trkpt>
      <trkpt lat="41.9497780" lon="-8.8836610">
        <ele>34.8</ele>
        <time>2021-05-19T06:27:05Z</time>
      </trkpt>
      <trkpt lat="41.9497830" lon="-8.8836660">
        <ele>34.8</ele>
        <time>2021-05-19T06:27:06Z</time>
      </trkpt>
      <trkpt lat="41.9497960" lon="-8.8836680">
        <ele>34.8</ele>
        <time>2021-05-19T06:27:07Z</time>
      </trkpt>
      <trkpt lat="41.9498040" lon="-8.8836750">
        <ele>34.8</ele>
        <time>2021-05-19T06:27:08Z</time>
      </trkpt>
      <trkpt lat="41.9498200" lon="-8.8836770">
        <ele>34.7</ele>
        <time>2021-05-19T06:27:09Z</time>
      </trkpt>
      <trkpt lat="41.9498220" lon="-8.8836800">
        <ele>34.7</ele>
        <time>2021-05-19T06:27:10Z</time>
      </trkpt>
      <trkpt lat="41.9498360" lon="-8.8836870">
        <ele>34.6</ele>
        <time>2021-05-19T06:27:11Z</time>
      </trkpt>
      <trkpt lat="41.9498520" lon="-8.8836870">
        <ele>34.6</ele>
        <time>2021-05-19T06:27:12Z</time>
      </trkpt>
      <trkpt lat="41.9498620" lon="-8.8836900">
        <ele>34.6</ele>
        <time>2021-05-19T06:27:13Z</time>
      </trkpt>
      <trkpt lat="41.9498730" lon="-8.8836890">
        <ele>34.5</ele>
        <time>2021-05-19T06:27:14Z</time>
      </trkpt>
      <trkpt lat="41.9498840" lon="-8.8836910">
        <ele>34.5</ele>
        <time>2021-05-19T06:27:15Z</time>
      </trkpt>
      <trkpt lat="41.9498990" lon="-8.8836940">
        <ele>34.4</ele>
        <time>2021-05-19T06:27:16Z</time>
      </trkpt>
      <trkpt lat="41.9499100" lon="-8.8836990">
        <ele>34.4</ele>
        <time>2021-05-19T06:27:17Z</time>
      </trkpt>
      <trkpt lat="41.9499260" lon="-8.8837060">
        <ele>34.4</ele>
        <time>2021-05-19T06:27:18Z</time>
      </trkpt>
      <trkpt lat="41.9499360" lon="-8.8837080">
        <ele>34.3</ele>
        <time>2021-05-19T06:27:19Z</time>
      </trkpt>
      <trkpt lat="41.9499470" lon="-8.8837090">
        <ele>34.3</ele>
        <time>2021-05-19T06:27:20Z</time>
      </trkpt>
      <trkpt lat="41.9499590" lon="-8.8837110">
        <ele>34.2</ele>
        <time>2021-05-19T06:27:21Z</time>
      </trkpt>
      <trkpt lat="41.9499740" lon="-8.8837190">
        <ele>34.2</ele>
        <time>2021-05-19T06:27:22Z</time>
      </trkpt>
      <trkpt lat="41.9499890" lon="-8.8837310">
        <ele>34.1</ele>
        <time>2021-05-19T06:27:23Z</time>
      </trkpt>
      <trkpt lat="41.9499960" lon="-8.8837370">
        <ele>34.1</ele>
        <time>2021-05-19T06:27:24Z</time>
      </trkpt>
      <trkpt lat="41.9500040" lon="-8.8837430">
        <ele>34.1</ele>
        <time>2021-05-19T06:27:25Z</time>
      </trkpt>
      <trkpt lat="41.9500110" lon="-8.8837490">
        <ele>34.0</ele>
        <time>2021-05-19T06:27:26Z</time>
      </trkpt>
      <trkpt lat="41.9500230" lon="-8.8837550">
        <ele>34.0</ele>
        <time>2021-05-19T06:27:27Z</time>
      </trkpt>
      <trkpt lat="41.9500320" lon="-8.8837530">
        <ele>34.0</ele>
        <time>2021-05-19T06:27:28Z</time>
      </trkpt>
      <trkpt lat="41.9500440" lon="-8.8837570">
        <ele>33.9</ele>
        <time>2021-05-19T06:27:29Z</time>
      </trkpt>
      <trkpt lat="41.9500560" lon="-8.8837620">
        <ele>33.9</ele>
        <time>2021-05-19T06:27:30Z</time>
      </trkpt>
      <trkpt lat="41.9500710" lon="-8.8837710">
        <ele>33.8</ele>
        <time>2021-05-19T06:27:31Z</time>
      </trkpt>
      <trkpt lat="41.9500710" lon="-8.8837740">
        <ele>33.8</ele>
        <time>2021-05-19T06:27:32Z</time>
      </trkpt>
      <trkpt lat="41.9500700" lon="-8.8837750">
        <ele>33.8</ele>
        <time>2021-05-19T06:27:33Z</time>
      </trkpt>
      <trkpt lat="41.9500750" lon="-8.8837770">
        <ele>33.8</ele>
        <time>2021-05-19T06:27:34Z</time>
      </trkpt>
      <trkpt lat="41.9500840" lon="-8.8837710">
        <ele>33.8</ele>
        <time>2021-05-19T06:27:35Z</time>
      </trkpt>
      <trkpt lat="41.9500920" lon="-8.8837780">
        <ele>33.8</ele>
        <time>2021-05-19T06:27:36Z</time>
      </trkpt>
      <trkpt lat="41.9501040" lon="-8.8837750">
        <ele>33.7</ele>
        <time>2021-05-19T06:27:37Z</time>
      </trkpt>
      <trkpt lat="41.9501100" lon="-8.8837700">
        <ele>33.7</ele>
        <time>2021-05-19T06:27:38Z</time>
      </trkpt>
      <trkpt lat="41.9501190" lon="-8.8837680">
        <ele>33.7</ele>
        <time>2021-05-19T06:27:39Z</time>
      </trkpt>
      <trkpt lat="41.9501290" lon="-8.8837580">
        <ele>33.6</ele>
        <time>2021-05-19T06:27:40Z</time>
      </trkpt>
      <trkpt lat="41.9501360" lon="-8.8837500">
        <ele>33.6</ele>
        <time>2021-05-19T06:27:41Z</time>
      </trkpt>
      <trkpt lat="41.9501430" lon="-8.8837380">
        <ele>33.6</ele>
        <time>2021-05-19T06:27:42Z</time>
      </trkpt>
      <trkpt lat="41.9501410" lon="-8.8837190">
        <ele>33.6</ele>
        <time>2021-05-19T06:27:43Z</time>
      </trkpt>
      <trkpt lat="41.9501420" lon="-8.8837020">
        <ele>33.6</ele>
        <time>2021-05-19T06:27:44Z</time>
      </trkpt>
      <trkpt lat="41.9501440" lon="-8.8836790">
        <ele>33.6</ele>
        <time>2021-05-19T06:27:45Z</time>
      </trkpt>
      <trkpt lat="41.9501440" lon="-8.8836730">
        <ele>33.6</ele>
        <time>2021-05-19T06:27:46Z</time>
      </trkpt>
      <trkpt lat="41.9501390" lon="-8.8836550">
        <ele>33.6</ele>
        <time>2021-05-19T06:27:47Z</time>
      </trkpt>
      <trkpt lat="41.9501360" lon="-8.8836380">
        <ele>33.6</ele>
        <time>2021-05-19T06:27:48Z</time>
      </trkpt>
      <trkpt lat="41.9501400" lon="-8.8836100">
        <ele>33.6</ele>
        <time>2021-05-19T06:27:49Z</time>
      </trkpt>
      <trkpt lat="41.9501410" lon="-8.8835990">
        <ele>33.6</ele>
        <time>2021-05-19T06:27:50Z</time>
      </trkpt>
      <trkpt lat="41.9501430" lon="-8.8835880">
        <ele>33.6</ele>
        <time>2021-05-19T06:27:51Z</time>
      </trkpt>
      <trkpt lat="41.9501450" lon="-8.8835730">
        <ele>33.6</ele>
        <time>2021-05-19T06:27:52Z</time>
      </trkpt>
      <trkpt lat="41.9501450" lon="-8.8835620">
        <ele>33.6</ele>
        <time>2021-05-19T06:27:53Z</time>
      </trkpt>
      <trkpt lat="41.9501450" lon="-8.8835400">
        <ele>33.6</ele>
        <time>2021-05-19T06:27:54Z</time>
      </trkpt>
      <trkpt lat="41.9501440" lon="-8.8835320">
        <ele>33.6</ele>
        <time>2021-05-19T06:27:55Z</time>
      </trkpt>
      <trkpt lat="41.9501470" lon="-8.8835240">
        <ele>33.6</ele>
        <time>2021-05-19T06:27:56Z</time>
      </trkpt>
      <trkpt lat="41.9501440" lon="-8.8835000">
        <ele>33.6</ele>
        <time>2021-05-19T06:27:57Z</time>
      </trkpt>
      <trkpt lat="41.9501470" lon="-8.8834840">
        <ele>33.6</ele>
        <time>2021-05-19T06:27:58Z</time>
      </trkpt>
      <trkpt lat="41.9501500" lon="-8.8834700">
        <ele>33.6</ele>
        <time>2021-05-19T06:27:59Z</time>
      </trkpt>
      <trkpt lat="41.9501550" lon="-8.8834550">
        <ele>33.6</ele>
        <time>2021-05-19T06:28:00Z</time>
      </trkpt>
      <trkpt lat="41.9501570" lon="-8.8834390">
        <ele>33.6</ele>
        <time>2021-05-19T06:28:01Z</time>
      </trkpt>
      <trkpt lat="41.9501620" lon="-8.8834210">
        <ele>33.6</ele>
        <time>2021-05-19T06:28:02Z</time>
      </trkpt>
      <trkpt lat="41.9501680" lon="-8.8834140">
        <ele>33.6</ele>
        <time>2021-05-19T06:28:03Z</time>
      </trkpt>
      <trkpt lat="41.9501770" lon="-8.8834010">
        <ele>33.6</ele>
        <time>2021-05-19T06:28:04Z</time>
      </trkpt>
      <trkpt lat="41.9501880" lon="-8.8833900">
        <ele>33.6</ele>
        <time>2021-05-19T06:28:05Z</time>
      </trkpt>
      <trkpt lat="41.9502060" lon="-8.8833750">
        <ele>33.6</ele>
        <time>2021-05-19T06:28:06Z</time>
      </trkpt>
      <trkpt lat="41.9502140" lon="-8.8833730">
        <ele>33.6</ele>
        <time>2021-05-19T06:28:07Z</time>
      </trkpt>
      <trkpt lat="41.9502210" lon="-8.8833700">
        <ele>33.6</ele>
        <time>2021-05-19T06:28:08Z</time>
      </trkpt>
      <trkpt lat="41.9502290" lon="-8.8833680">
        <ele>33.6</ele>
        <time>2021-05-19T06:28:09Z</time>
      </trkpt>
      <trkpt lat="41.9502380" lon="-8.8833650">
        <ele>33.6</ele>
        <time>2021-05-19T06:28:10Z</time>
      </trkpt>
      <trkpt lat="41.9502490" lon="-8.8833640">
        <ele>33.6</ele>
        <time>2021-05-19T06:28:11Z</time>
      </trkpt>
      <trkpt lat="41.9502570" lon="-8.8833660">
        <ele>33.6</ele>
        <time>2021-05-19T06:28:12Z</time>
      </trkpt>
      <trkpt lat="41.9502720" lon="-8.8833600">
        <ele>33.5</ele>
        <time>2021-05-19T06:28:13Z</time>
      </trkpt>
      <trkpt lat="41.9502780" lon="-8.8833600">
        <ele>33.4</ele>
        <time>2021-05-19T06:28:14Z</time>
      </trkpt>
      <trkpt lat="41.9502930" lon="-8.8833600">
        <ele>33.4</ele>
        <time>2021-05-19T06:28:15Z</time>
      </trkpt>
      <trkpt lat="41.9503000" lon="-8.8833640">
        <ele>33.3</ele>
        <time>2021-05-19T06:28:16Z</time>
      </trkpt>
      <trkpt lat="41.9503150" lon="-8.8833680">
        <ele>33.2</ele>
        <time>2021-05-19T06:28:17Z</time>
      </trkpt>
      <trkpt lat="41.9503240" lon="-8.8833700">
        <ele>33.2</ele>
        <time>2021-05-19T06:28:18Z</time>
      </trkpt>
      <trkpt lat="41.9503380" lon="-8.8833720">
        <ele>33.1</ele>
        <time>2021-05-19T06:28:19Z</time>
      </trkpt>
      <trkpt lat="41.9503470" lon="-8.8833670">
        <ele>33.0</ele>
        <time>2021-05-19T06:28:20Z</time>
      </trkpt>
      <trkpt lat="41.9503570" lon="-8.8833640">
        <ele>33.0</ele>
        <time>2021-05-19T06:28:21Z</time>
      </trkpt>
      <trkpt lat="41.9503720" lon="-8.8833660">
        <ele>32.9</ele>
        <time>2021-05-19T06:28:22Z</time>
      </trkpt>
      <trkpt lat="41.9503840" lon="-8.8833590">
        <ele>32.8</ele>
        <time>2021-05-19T06:28:23Z</time>
      </trkpt>
      <trkpt lat="41.9503910" lon="-8.8833550">
        <ele>32.8</ele>
        <time>2021-05-19T06:28:24Z</time>
      </trkpt>
      <trkpt lat="41.9504070" lon="-8.8833510">
        <ele>32.7</ele>
        <time>2021-05-19T06:28:25Z</time>
      </trkpt>
      <trkpt lat="41.9504130" lon="-8.8833450">
        <ele>32.7</ele>
        <time>2021-05-19T06:28:26Z</time>
      </trkpt>
      <trkpt lat="41.9504240" lon="-8.8833380">
        <ele>32.6</ele>
        <time>2021-05-19T06:28:27Z</time>
      </trkpt>
      <trkpt lat="41.9504370" lon="-8.8833380">
        <ele>32.5</ele>
        <time>2021-05-19T06:28:28Z</time>
      </trkpt>
      <trkpt lat="41.9504480" lon="-8.8833340">
        <ele>32.5</ele>
        <time>2021-05-19T06:28:29Z</time>
      </trkpt>
      <trkpt lat="41.9504550" lon="-8.8833380">
        <ele>32.4</ele>
        <time>2021-05-19T06:28:30Z</time>
      </trkpt>
      <trkpt lat="41.9504720" lon="-8.8833350">
        <ele>32.3</ele>
        <time>2021-05-19T06:28:31Z</time>
      </trkpt>
      <trkpt lat="41.9504820" lon="-8.8833390">
        <ele>32.3</ele>
        <time>2021-05-19T06:28:32Z</time>
      </trkpt>
      <trkpt lat="41.9505080" lon="-8.8833350">
        <ele>32.1</ele>
        <time>2021-05-19T06:28:33Z</time>
      </trkpt>
      <trkpt lat="41.9505140" lon="-8.8833350">
        <ele>32.1</ele>
        <time>2021-05-19T06:28:34Z</time>
      </trkpt>
      <trkpt lat="41.9505200" lon="-8.8833340">
        <ele>32.0</ele>
        <time>2021-05-19T06:28:35Z</time>
      </trkpt>
      <trkpt lat="41.9505320" lon="-8.8833350">
        <ele>32.0</ele>
        <time>2021-05-19T06:28:36Z</time>
      </trkpt>
      <trkpt lat="41.9505390" lon="-8.8833320">
        <ele>31.9</ele>
        <time>2021-05-19T06:28:37Z</time>
      </trkpt>
      <trkpt lat="41.9505510" lon="-8.8833250">
        <ele>31.9</ele>
        <time>2021-05-19T06:28:38Z</time>
      </trkpt>
      <trkpt lat="41.9505630" lon="-8.8833170">
        <ele>31.8</ele>
        <time>2021-05-19T06:28:39Z</time>
      </trkpt>
      <trkpt lat="41.9505740" lon="-8.8833150">
        <ele>31.7</ele>
        <time>2021-05-19T06:28:40Z</time>
      </trkpt>
      <trkpt lat="41.9505840" lon="-8.8833090">
        <ele>31.7</ele>
        <time>2021-05-19T06:28:41Z</time>
      </trkpt>
      <trkpt lat="41.9506060" lon="-8.8833100">
        <ele>31.6</ele>
        <time>2021-05-19T06:28:42Z</time>
      </trkpt>
      <trkpt lat="41.9506140" lon="-8.8833070">
        <ele>31.5</ele>
        <time>2021-05-19T06:28:43Z</time>
      </trkpt>
      <trkpt lat="41.9506220" lon="-8.8833040">
        <ele>31.5</ele>
        <time>2021-05-19T06:28:44Z</time>
      </trkpt>
      <trkpt lat="41.9506420" lon="-8.8832960">
        <ele>31.4</ele>
        <time>2021-05-19T06:28:45Z</time>
      </trkpt>
      <trkpt lat="41.9506510" lon="-8.8832930">
        <ele>31.3</ele>
        <time>2021-05-19T06:28:46Z</time>
      </trkpt>
      <trkpt lat="41.9506590" lon="-8.8832900">
        <ele>31.3</ele>
        <time>2021-05-19T06:28:47Z</time>
      </trkpt>
      <trkpt lat="41.9506670" lon="-8.8832880">
        <ele>31.2</ele>
        <time>2021-05-19T06:28:48Z</time>
      </trkpt>
      <trkpt lat="41.9506760" lon="-8.8832910">
        <ele>31.2</ele>
        <time>2021-05-19T06:28:49Z</time>
      </trkpt>
      <trkpt lat="41.9506900" lon="-8.8832890">
        <ele>31.1</ele>
        <time>2021-05-19T06:28:50Z</time>
      </trkpt>
      <trkpt lat="41.9506970" lon="-8.8832820">
        <ele>31.1</ele>
        <time>2021-05-19T06:28:51Z</time>
      </trkpt>
      <trkpt lat="41.9507120" lon="-8.8832790">
        <ele>31.0</ele>
        <time>2021-05-19T06:28:52Z</time>
      </trkpt>
      <trkpt lat="41.9507220" lon="-8.8832780">
        <ele>30.9</ele>
        <time>2021-05-19T06:28:53Z</time>
      </trkpt>
      <trkpt lat="41.9507350" lon="-8.8832740">
        <ele>30.9</ele>
        <time>2021-05-19T06:28:54Z</time>
      </trkpt>
      <trkpt lat="41.9507490" lon="-8.8832710">
        <ele>30.8</ele>
        <time>2021-05-19T06:28:55Z</time>
      </trkpt>
      <trkpt lat="41.9507620" lon="-8.8832650">
        <ele>30.7</ele>
        <time>2021-05-19T06:28:56Z</time>
      </trkpt>
      <trkpt lat="41.9507680" lon="-8.8832680">
        <ele>30.7</ele>
        <time>2021-05-19T06:28:57Z</time>
      </trkpt>
      <trkpt lat="41.9507770" lon="-8.8832610">
        <ele>30.7</ele>
        <time>2021-05-19T06:28:58Z</time>
      </trkpt>
      <trkpt lat="41.9507900" lon="-8.8832600">
        <ele>30.6</ele>
        <time>2021-05-19T06:28:59Z</time>
      </trkpt>
      <trkpt lat="41.9507960" lon="-8.8832540">
        <ele>30.6</ele>
        <time>2021-05-19T06:29:00Z</time>
      </trkpt>
      <trkpt lat="41.9508090" lon="-8.8832470">
        <ele>30.5</ele>
        <time>2021-05-19T06:29:01Z</time>
      </trkpt>
      <trkpt lat="41.9508170" lon="-8.8832460">
        <ele>30.5</ele>
        <time>2021-05-19T06:29:02Z</time>
      </trkpt>
      <trkpt lat="41.9508330" lon="-8.8832410">
        <ele>30.4</ele>
        <time>2021-05-19T06:29:03Z</time>
      </trkpt>
      <trkpt lat="41.9508410" lon="-8.8832410">
        <ele>30.3</ele>
        <time>2021-05-19T06:29:04Z</time>
      </trkpt>
      <trkpt lat="41.9508550" lon="-8.8832370">
        <ele>30.3</ele>
        <time>2021-05-19T06:29:05Z</time>
      </trkpt>
      <trkpt lat="41.9508710" lon="-8.8832340">
        <ele>30.2</ele>
        <time>2021-05-19T06:29:06Z</time>
      </trkpt>
      <trkpt lat="41.9508850" lon="-8.8832230">
        <ele>30.1</ele>
        <time>2021-05-19T06:29:07Z</time>
      </trkpt>
      <trkpt lat="41.9508930" lon="-8.8832190">
        <ele>30.1</ele>
        <time>2021-05-19T06:29:08Z</time>
      </trkpt>
      <trkpt lat="41.9509030" lon="-8.8832130">
        <ele>30.0</ele>
        <time>2021-05-19T06:29:09Z</time>
      </trkpt>
      <trkpt lat="41.9509170" lon="-8.8832100">
        <ele>30.0</ele>
        <time>2021-05-19T06:29:10Z</time>
      </trkpt>
      <trkpt lat="41.9509260" lon="-8.8832010">
        <ele>29.9</ele>
        <time>2021-05-19T06:29:11Z</time>
      </trkpt>
      <trkpt lat="41.9509360" lon="-8.8832010">
        <ele>29.9</ele>
        <time>2021-05-19T06:29:12Z</time>
      </trkpt>
      <trkpt lat="41.9509570" lon="-8.8831950">
        <ele>29.8</ele>
        <time>2021-05-19T06:29:13Z</time>
      </trkpt>
      <trkpt lat="41.9509640" lon="-8.8831920">
        <ele>29.7</ele>
        <time>2021-05-19T06:29:14Z</time>
      </trkpt>
      <trkpt lat="41.9509720" lon="-8.8831890">
        <ele>29.7</ele>
        <time>2021-05-19T06:29:15Z</time>
      </trkpt>
      <trkpt lat="41.9509790" lon="-8.8831860">
        <ele>29.7</ele>
        <time>2021-05-19T06:29:16Z</time>
      </trkpt>
      <trkpt lat="41.9509920" lon="-8.8831820">
        <ele>29.6</ele>
        <time>2021-05-19T06:29:17Z</time>
      </trkpt>
      <trkpt lat="41.9510020" lon="-8.8831810">
        <ele>29.6</ele>
        <time>2021-05-19T06:29:18Z</time>
      </trkpt>
      <trkpt lat="41.9510140" lon="-8.8831780">
        <ele>29.5</ele>
        <time>2021-05-19T06:29:19Z</time>
      </trkpt>
      <trkpt lat="41.9510310" lon="-8.8831690">
        <ele>29.4</ele>
        <time>2021-05-19T06:29:20Z</time>
      </trkpt>
      <trkpt lat="41.9510440" lon="-8.8831570">
        <ele>29.4</ele>
        <time>2021-05-19T06:29:21Z</time>
      </trkpt>
      <trkpt lat="41.9510610" lon="-8.8831500">
        <ele>29.3</ele>
        <time>2021-05-19T06:29:22Z</time>
      </trkpt>
      <trkpt lat="41.9510700" lon="-8.8831410">
        <ele>29.3</ele>
        <time>2021-05-19T06:29:23Z</time>
      </trkpt>
      <trkpt lat="41.9510790" lon="-8.8831400">
        <ele>29.2</ele>
        <time>2021-05-19T06:29:24Z</time>
      </trkpt>
      <trkpt lat="41.9510910" lon="-8.8831330">
        <ele>29.2</ele>
        <time>2021-05-19T06:29:25Z</time>
      </trkpt>
      <trkpt lat="41.9511070" lon="-8.8831220">
        <ele>29.1</ele>
        <time>2021-05-19T06:29:26Z</time>
      </trkpt>
      <trkpt lat="41.9511190" lon="-8.8831130">
        <ele>29.0</ele>
        <time>2021-05-19T06:29:27Z</time>
      </trkpt>
      <trkpt lat="41.9511390" lon="-8.8831010">
        <ele>28.9</ele>
        <time>2021-05-19T06:29:28Z</time>
      </trkpt>
      <trkpt lat="41.9511460" lon="-8.8830950">
        <ele>28.9</ele>
        <time>2021-05-19T06:29:29Z</time>
      </trkpt>
      <trkpt lat="41.9511540" lon="-8.8830900">
        <ele>28.8</ele>
        <time>2021-05-19T06:29:30Z</time>
      </trkpt>
      <trkpt lat="41.9511730" lon="-8.8830750">
        <ele>28.8</ele>
        <time>2021-05-19T06:29:31Z</time>
      </trkpt>
      <trkpt lat="41.9511800" lon="-8.8830690">
        <ele>28.7</ele>
        <time>2021-05-19T06:29:32Z</time>
      </trkpt>
      <trkpt lat="41.9511880" lon="-8.8830620">
        <ele>28.7</ele>
        <time>2021-05-19T06:29:33Z</time>
      </trkpt>
      <trkpt lat="41.9512020" lon="-8.8830540">
        <ele>28.7</ele>
        <time>2021-05-19T06:29:34Z</time>
      </trkpt>
      <trkpt lat="41.9512140" lon="-8.8830480">
        <ele>28.7</ele>
        <time>2021-05-19T06:29:35Z</time>
      </trkpt>
      <trkpt lat="41.9512190" lon="-8.8830410">
        <ele>28.7</ele>
        <time>2021-05-19T06:29:36Z</time>
      </trkpt>
      <trkpt lat="41.9512250" lon="-8.8830330">
        <ele>28.6</ele>
        <time>2021-05-19T06:29:37Z</time>
      </trkpt>
      <trkpt lat="41.9512390" lon="-8.8830190">
        <ele>28.6</ele>
        <time>2021-05-19T06:29:38Z</time>
      </trkpt>
      <trkpt lat="41.9512580" lon="-8.8830080">
        <ele>28.6</ele>
        <time>2021-05-19T06:29:39Z</time>
      </trkpt>
      <trkpt lat="41.9512660" lon="-8.8830060">
        <ele>28.6</ele>
        <time>2021-05-19T06:29:40Z</time>
      </trkpt>
      <trkpt lat="41.9512740" lon="-8.8830050">
        <ele>28.6</ele>
        <time>2021-05-19T06:29:41Z</time>
      </trkpt>
      <trkpt lat="41.9512870" lon="-8.8829980">
        <ele>28.6</ele>
        <time>2021-05-19T06:29:42Z</time>
      </trkpt>
      <trkpt lat="41.9512980" lon="-8.8829930">
        <ele>28.5</ele>
        <time>2021-05-19T06:29:43Z</time>
      </trkpt>
      <trkpt lat="41.9513010" lon="-8.8829900">
        <ele>28.5</ele>
        <time>2021-05-19T06:29:44Z</time>
      </trkpt>
      <trkpt lat="41.9513010" lon="-8.8829890">
        <ele>28.5</ele>
        <time>2021-05-19T06:29:45Z</time>
      </trkpt>
      <trkpt lat="41.9513010" lon="-8.8829920">
        <ele>28.5</ele>
        <time>2021-05-19T06:29:46Z</time>
      </trkpt>
      <trkpt lat="41.9512990" lon="-8.8829940">
        <ele>28.5</ele>
        <time>2021-05-19T06:29:47Z</time>
      </trkpt>
      <trkpt lat="41.9513030" lon="-8.8829970">
        <ele>28.5</ele>
        <time>2021-05-19T06:29:48Z</time>
      </trkpt>
      <trkpt lat="41.9513020" lon="-8.8829970">
        <ele>28.5</ele>
        <time>2021-05-19T06:29:49Z</time>
      </trkpt>
      <trkpt lat="41.9513010" lon="-8.8829980">
        <ele>28.5</ele>
        <time>2021-05-19T06:29:50Z</time>
      </trkpt>
      <trkpt lat="41.9513010" lon="-8.8829960">
        <ele>28.5</ele>
        <time>2021-05-19T06:29:51Z</time>
      </trkpt>
      <trkpt lat="41.9513060" lon="-8.8829920">
        <ele>28.5</ele>
        <time>2021-05-19T06:29:52Z</time>
      </trkpt>
      <trkpt lat="41.9513150" lon="-8.8829880">
        <ele>28.5</ele>
        <time>2021-05-19T06:29:53Z</time>
      </trkpt>
      <trkpt lat="41.9513280" lon="-8.8829730">
        <ele>28.5</ele>
        <time>2021-05-19T06:29:54Z</time>
      </trkpt>
      <trkpt lat="41.9513410" lon="-8.8829660">
        <ele>28.5</ele>
        <time>2021-05-19T06:29:55Z</time>
      </trkpt>
      <trkpt lat="41.9513480" lon="-8.8829590">
        <ele>28.4</ele>
        <time>2021-05-19T06:29:56Z</time>
      </trkpt>
      <trkpt lat="41.9513560" lon="-8.8829490">
        <ele>28.4</ele>
        <time>2021-05-19T06:29:57Z</time>
      </trkpt>
      <trkpt lat="41.9513700" lon="-8.8829330">
        <ele>28.4</ele>
        <time>2021-05-19T06:29:58Z</time>
      </trkpt>
      <trkpt lat="41.9513790" lon="-8.8829260">
        <ele>28.4</ele>
        <time>2021-05-19T06:29:59Z</time>
      </trkpt>
      <trkpt lat="41.9513870" lon="-8.8829200">
        <ele>28.4</ele>
        <time>2021-05-19T06:30:00Z</time>
      </trkpt>
      <trkpt lat="41.9514060" lon="-8.8829100">
        <ele>28.4</ele>
        <time>2021-05-19T06:30:01Z</time>
      </trkpt>
      <trkpt lat="41.9514140" lon="-8.8829080">
        <ele>28.4</ele>
        <time>2021-05-19T06:30:02Z</time>
      </trkpt>
      <trkpt lat="41.9514220" lon="-8.8829050">
        <ele>28.4</ele>
        <time>2021-05-19T06:30:03Z</time>
      </trkpt>
      <trkpt lat="41.9514350" lon="-8.8828990">
        <ele>28.4</ele>
        <time>2021-05-19T06:30:04Z</time>
      </trkpt>
      <trkpt lat="41.9514460" lon="-8.8828970">
        <ele>28.4</ele>
        <time>2021-05-19T06:30:05Z</time>
      </trkpt>
      <trkpt lat="41.9514510" lon="-8.8828890">
        <ele>28.4</ele>
        <time>2021-05-19T06:30:06Z</time>
      </trkpt>
      <trkpt lat="41.9514760" lon="-8.8828810">
        <ele>28.4</ele>
        <time>2021-05-19T06:30:07Z</time>
      </trkpt>
      <trkpt lat="41.9514840" lon="-8.8828780">
        <ele>28.4</ele>
        <time>2021-05-19T06:30:08Z</time>
      </trkpt>
      <trkpt lat="41.9514910" lon="-8.8828740">
        <ele>28.4</ele>
        <time>2021-05-19T06:30:09Z</time>
      </trkpt>
      <trkpt lat="41.9515010" lon="-8.8828620">
        <ele>28.4</ele>
        <time>2021-05-19T06:30:10Z</time>
      </trkpt>
      <trkpt lat="41.9515130" lon="-8.8828570">
        <ele>28.4</ele>
        <time>2021-05-19T06:30:11Z</time>
      </trkpt>
      <trkpt lat="41.9515190" lon="-8.8828480">
        <ele>28.4</ele>
        <time>2021-05-19T06:30:12Z</time>
      </trkpt>
      <trkpt lat="41.9515390" lon="-8.8828400">
        <ele>28.4</ele>
        <time>2021-05-19T06:30:13Z</time>
      </trkpt>
      <trkpt lat="41.9515470" lon="-8.8828370">
        <ele>28.4</ele>
        <time>2021-05-19T06:30:14Z</time>
      </trkpt>
      <trkpt lat="41.9515550" lon="-8.8828330">
        <ele>28.4</ele>
        <time>2021-05-19T06:30:15Z</time>
      </trkpt>
      <trkpt lat="41.9515670" lon="-8.8828320">
        <ele>28.5</ele>
        <time>2021-05-19T06:30:16Z</time>
      </trkpt>
      <trkpt lat="41.9515820" lon="-8.8828200">
        <ele>28.5</ele>
        <time>2021-05-19T06:30:17Z</time>
      </trkpt>
      <trkpt lat="41.9516030" lon="-8.8828120">
        <ele>28.5</ele>
        <time>2021-05-19T06:30:18Z</time>
      </trkpt>
      <trkpt lat="41.9516120" lon="-8.8828100">
        <ele>28.5</ele>
        <time>2021-05-19T06:30:19Z</time>
      </trkpt>
      <trkpt lat="41.9516220" lon="-8.8828080">
        <ele>28.5</ele>
        <time>2021-05-19T06:30:20Z</time>
      </trkpt>
      <trkpt lat="41.9516270" lon="-8.8828000">
        <ele>28.5</ele>
        <time>2021-05-19T06:30:21Z</time>
      </trkpt>
      <trkpt lat="41.9516420" lon="-8.8827990">
        <ele>28.5</ele>
        <time>2021-05-19T06:30:22Z</time>
      </trkpt>
      <trkpt lat="41.9516540" lon="-8.8827860">
        <ele>28.5</ele>
        <time>2021-05-19T06:30:23Z</time>
      </trkpt>
      <trkpt lat="41.9516650" lon="-8.8827810">
        <ele>28.5</ele>
        <time>2021-05-19T06:30:24Z</time>
      </trkpt>
      <trkpt lat="41.9516790" lon="-8.8827730">
        <ele>28.5</ele>
        <time>2021-05-19T06:30:25Z</time>
      </trkpt>
      <trkpt lat="41.9516860" lon="-8.8827710">
        <ele>28.5</ele>
        <time>2021-05-19T06:30:26Z</time>
      </trkpt>
      <trkpt lat="41.9517090" lon="-8.8827650">
        <ele>28.6</ele>
        <time>2021-05-19T06:30:27Z</time>
      </trkpt>
      <trkpt lat="41.9517170" lon="-8.8827640">
        <ele>28.6</ele>
        <time>2021-05-19T06:30:28Z</time>
      </trkpt>
      <trkpt lat="41.9517250" lon="-8.8827620">
        <ele>28.6</ele>
        <time>2021-05-19T06:30:29Z</time>
      </trkpt>
      <trkpt lat="41.9517400" lon="-8.8827620">
        <ele>28.6</ele>
        <time>2021-05-19T06:30:30Z</time>
      </trkpt>
      <trkpt lat="41.9517550" lon="-8.8827650">
        <ele>28.6</ele>
        <time>2021-05-19T06:30:31Z</time>
      </trkpt>
      <trkpt lat="41.9517650" lon="-8.8827600">
        <ele>28.6</ele>
        <time>2021-05-19T06:30:32Z</time>
      </trkpt>
      <trkpt lat="41.9517830" lon="-8.8827490">
        <ele>28.6</ele>
        <time>2021-05-19T06:30:33Z</time>
      </trkpt>
      <trkpt lat="41.9517870" lon="-8.8827500">
        <ele>28.6</ele>
        <time>2021-05-19T06:30:34Z</time>
      </trkpt>
      <trkpt lat="41.9517950" lon="-8.8827440">
        <ele>28.6</ele>
        <time>2021-05-19T06:30:35Z</time>
      </trkpt>
      <trkpt lat="41.9518090" lon="-8.8827390">
        <ele>28.6</ele>
        <time>2021-05-19T06:30:36Z</time>
      </trkpt>
      <trkpt lat="41.9518220" lon="-8.8827340">
        <ele>28.6</ele>
        <time>2021-05-19T06:30:37Z</time>
      </trkpt>
      <trkpt lat="41.9518380" lon="-8.8827310">
        <ele>28.6</ele>
        <time>2021-05-19T06:30:38Z</time>
      </trkpt>
      <trkpt lat="41.9518530" lon="-8.8827280">
        <ele>28.6</ele>
        <time>2021-05-19T06:30:39Z</time>
      </trkpt>
      <trkpt lat="41.9518700" lon="-8.8827200">
        <ele>28.7</ele>
        <time>2021-05-19T06:30:40Z</time>
      </trkpt>
      <trkpt lat="41.9518880" lon="-8.8827170">
        <ele>28.7</ele>
        <time>2021-05-19T06:30:41Z</time>
      </trkpt>
      <trkpt lat="41.9518950" lon="-8.8827140">
        <ele>28.7</ele>
        <time>2021-05-19T06:30:42Z</time>
      </trkpt>
      <trkpt lat="41.9519030" lon="-8.8827110">
        <ele>28.7</ele>
        <time>2021-05-19T06:30:43Z</time>
      </trkpt>
      <trkpt lat="41.9519100" lon="-8.8827080">
        <ele>28.7</ele>
        <time>2021-05-19T06:30:44Z</time>
      </trkpt>
      <trkpt lat="41.9519300" lon="-8.8827060">
        <ele>28.6</ele>
        <time>2021-05-19T06:30:45Z</time>
      </trkpt>
      <trkpt lat="41.9519390" lon="-8.8827070">
        <ele>28.6</ele>
        <time>2021-05-19T06:30:46Z</time>
      </trkpt>
      <trkpt lat="41.9519470" lon="-8.8827080">
        <ele>28.6</ele>
        <time>2021-05-19T06:30:47Z</time>
      </trkpt>
      <trkpt lat="41.9519620" lon="-8.8827080">
        <ele>28.5</ele>
        <time>2021-05-19T06:30:48Z</time>
      </trkpt>
      <trkpt lat="41.9519750" lon="-8.8827040">
        <ele>28.5</ele>
        <time>2021-05-19T06:30:49Z</time>
      </trkpt>
      <trkpt lat="41.9519950" lon="-8.8827010">
        <ele>28.4</ele>
        <time>2021-05-19T06:30:50Z</time>
      </trkpt>
      <trkpt lat="41.9520040" lon="-8.8827010">
        <ele>28.4</ele>
        <time>2021-05-19T06:30:51Z</time>
      </trkpt>
      <trkpt lat="41.9520130" lon="-8.8827000">
        <ele>28.3</ele>
        <time>2021-05-19T06:30:52Z</time>
      </trkpt>
      <trkpt lat="41.9520310" lon="-8.8827000">
        <ele>28.3</ele>
        <time>2021-05-19T06:30:53Z</time>
      </trkpt>
      <trkpt lat="41.9520410" lon="-8.8826990">
        <ele>28.2</ele>
        <time>2021-05-19T06:30:54Z</time>
      </trkpt>
      <trkpt lat="41.9520500" lon="-8.8826970">
        <ele>28.2</ele>
        <time>2021-05-19T06:30:55Z</time>
      </trkpt>
      <trkpt lat="41.9520640" lon="-8.8826890">
        <ele>28.1</ele>
        <time>2021-05-19T06:30:56Z</time>
      </trkpt>
      <trkpt lat="41.9520760" lon="-8.8826850">
        <ele>28.1</ele>
        <time>2021-05-19T06:30:57Z</time>
      </trkpt>
      <trkpt lat="41.9520990" lon="-8.8826820">
        <ele>27.9</ele>
        <time>2021-05-19T06:30:58Z</time>
      </trkpt>
      <trkpt lat="41.9521070" lon="-8.8826840">
        <ele>27.9</ele>
        <time>2021-05-19T06:30:59Z</time>
      </trkpt>
      <trkpt lat="41.9521160" lon="-8.8826850">
        <ele>27.8</ele>
        <time>2021-05-19T06:31:00Z</time>
      </trkpt>
      <trkpt lat="41.9521240" lon="-8.8826880">
        <ele>27.8</ele>
        <time>2021-05-19T06:31:01Z</time>
      </trkpt>
      <trkpt lat="41.9521360" lon="-8.8826780">
        <ele>27.7</ele>
        <time>2021-05-19T06:31:02Z</time>
      </trkpt>
      <trkpt lat="41.9521490" lon="-8.8826760">
        <ele>27.6</ele>
        <time>2021-05-19T06:31:03Z</time>
      </trkpt>
      <trkpt lat="41.9521670" lon="-8.8826640">
        <ele>27.4</ele>
        <time>2021-05-19T06:31:04Z</time>
      </trkpt>
      <trkpt lat="41.9521830" lon="-8.8826680">
        <ele>27.3</ele>
        <time>2021-05-19T06:31:05Z</time>
      </trkpt>
      <trkpt lat="41.9522030" lon="-8.8826660">
        <ele>27.2</ele>
        <time>2021-05-19T06:31:06Z</time>
      </trkpt>
      <trkpt lat="41.9522120" lon="-8.8826630">
        <ele>27.1</ele>
        <time>2021-05-19T06:31:07Z</time>
      </trkpt>
      <trkpt lat="41.9522210" lon="-8.8826610">
        <ele>27.0</ele>
        <time>2021-05-19T06:31:08Z</time>
      </trkpt>
      <trkpt lat="41.9522450" lon="-8.8826580">
        <ele>26.8</ele>
        <time>2021-05-19T06:31:09Z</time>
      </trkpt>
      <trkpt lat="41.9522550" lon="-8.8826580">
        <ele>26.7</ele>
        <time>2021-05-19T06:31:10Z</time>
      </trkpt>
      <trkpt lat="41.9522640" lon="-8.8826570">
        <ele>26.6</ele>
        <time>2021-05-19T06:31:11Z</time>
      </trkpt>
      <trkpt lat="41.9522800" lon="-8.8826510">
        <ele>26.5</ele>
        <time>2021-05-19T06:31:12Z</time>
      </trkpt>
      <trkpt lat="41.9522880" lon="-8.8826490">
        <ele>26.4</ele>
        <time>2021-05-19T06:31:13Z</time>
      </trkpt>
      <trkpt lat="41.9523000" lon="-8.8826530">
        <ele>26.3</ele>
        <time>2021-05-19T06:31:14Z</time>
      </trkpt>
      <trkpt lat="41.9523110" lon="-8.8826520">
        <ele>26.2</ele>
        <time>2021-05-19T06:31:15Z</time>
      </trkpt>
      <trkpt lat="41.9523220" lon="-8.8826630">
        <ele>26.1</ele>
        <time>2021-05-19T06:31:16Z</time>
      </trkpt>
      <trkpt lat="41.9523280" lon="-8.8826550">
        <ele>26.0</ele>
        <time>2021-05-19T06:31:17Z</time>
      </trkpt>
      <trkpt lat="41.9523510" lon="-8.8826550">
        <ele>25.8</ele>
        <time>2021-05-19T06:31:18Z</time>
      </trkpt>
      <trkpt lat="41.9523590" lon="-8.8826540">
        <ele>25.8</ele>
        <time>2021-05-19T06:31:19Z</time>
      </trkpt>
      <trkpt lat="41.9523670" lon="-8.8826520">
        <ele>25.7</ele>
        <time>2021-05-19T06:31:20Z</time>
      </trkpt>
      <trkpt lat="41.9523790" lon="-8.8826480">
        <ele>25.6</ele>
        <time>2021-05-19T06:31:21Z</time>
      </trkpt>
      <trkpt lat="41.9523890" lon="-8.8826520">
        <ele>25.5</ele>
        <time>2021-05-19T06:31:22Z</time>
      </trkpt>
      <trkpt lat="41.9524010" lon="-8.8826590">
        <ele>25.4</ele>
        <time>2021-05-19T06:31:23Z</time>
      </trkpt>
      <trkpt lat="41.9524120" lon="-8.8826590">
        <ele>25.3</ele>
        <time>2021-05-19T06:31:24Z</time>
      </trkpt>
      <trkpt lat="41.9524310" lon="-8.8826610">
        <ele>25.1</ele>
        <time>2021-05-19T06:31:25Z</time>
      </trkpt>
      <trkpt lat="41.9524400" lon="-8.8826650">
        <ele>25.0</ele>
        <time>2021-05-19T06:31:26Z</time>
      </trkpt>
      <trkpt lat="41.9524490" lon="-8.8826670">
        <ele>25.0</ele>
        <time>2021-05-19T06:31:27Z</time>
      </trkpt>
      <trkpt lat="41.9524620" lon="-8.8826720">
        <ele>24.8</ele>
        <time>2021-05-19T06:31:28Z</time>
      </trkpt>
      <trkpt lat="41.9524730" lon="-8.8826780">
        <ele>24.7</ele>
        <time>2021-05-19T06:31:29Z</time>
      </trkpt>
      <trkpt lat="41.9524830" lon="-8.8826780">
        <ele>24.7</ele>
        <time>2021-05-19T06:31:30Z</time>
      </trkpt>
      <trkpt lat="41.9524960" lon="-8.8826810">
        <ele>24.5</ele>
        <time>2021-05-19T06:31:31Z</time>
      </trkpt>
      <trkpt lat="41.9525150" lon="-8.8826870">
        <ele>24.4</ele>
        <time>2021-05-19T06:31:32Z</time>
      </trkpt>
      <trkpt lat="41.9525250" lon="-8.8826900">
        <ele>24.3</ele>
        <time>2021-05-19T06:31:33Z</time>
      </trkpt>
      <trkpt lat="41.9525360" lon="-8.8826940">
        <ele>24.2</ele>
        <time>2021-05-19T06:31:34Z</time>
      </trkpt>
      <trkpt lat="41.9525580" lon="-8.8827040">
        <ele>24.0</ele>
        <time>2021-05-19T06:31:35Z</time>
      </trkpt>
      <trkpt lat="41.9525650" lon="-8.8827070">
        <ele>24.0</ele>
        <time>2021-05-19T06:31:36Z</time>
      </trkpt>
      <trkpt lat="41.9525730" lon="-8.8827100">
        <ele>23.9</ele>
        <time>2021-05-19T06:31:37Z</time>
      </trkpt>
      <trkpt lat="41.9525710" lon="-8.8827060">
        <ele>23.9</ele>
        <time>2021-05-19T06:31:38Z</time>
      </trkpt>
      <trkpt lat="41.9525690" lon="-8.8827060">
        <ele>23.8</ele>
        <time>2021-05-19T06:31:39Z</time>
      </trkpt>
      <trkpt lat="41.9525680" lon="-8.8827020">
        <ele>23.8</ele>
        <time>2021-05-19T06:31:40Z</time>
      </trkpt>
      <trkpt lat="41.9525670" lon="-8.8826990">
        <ele>23.8</ele>
        <time>2021-05-19T06:31:41Z</time>
      </trkpt>
      <trkpt lat="41.9525680" lon="-8.8826940">
        <ele>23.8</ele>
        <time>2021-05-19T06:31:42Z</time>
      </trkpt>
      <trkpt lat="41.9525780" lon="-8.8826940">
        <ele>23.7</ele>
        <time>2021-05-19T06:31:43Z</time>
      </trkpt>
      <trkpt lat="41.9525890" lon="-8.8827010">
        <ele>23.6</ele>
        <time>2021-05-19T06:31:44Z</time>
      </trkpt>
      <trkpt lat="41.9525910" lon="-8.8827100">
        <ele>23.5</ele>
        <time>2021-05-19T06:31:45Z</time>
      </trkpt>
      <trkpt lat="41.9526040" lon="-8.8827170">
        <ele>23.4</ele>
        <time>2021-05-19T06:31:46Z</time>
      </trkpt>
      <trkpt lat="41.9526110" lon="-8.8827180">
        <ele>23.4</ele>
        <time>2021-05-19T06:31:47Z</time>
      </trkpt>
      <trkpt lat="41.9526230" lon="-8.8827260">
        <ele>23.3</ele>
        <time>2021-05-19T06:31:48Z</time>
      </trkpt>
      <trkpt lat="41.9526350" lon="-8.8827310">
        <ele>23.2</ele>
        <time>2021-05-19T06:31:49Z</time>
      </trkpt>
      <trkpt lat="41.9526470" lon="-8.8827350">
        <ele>23.2</ele>
        <time>2021-05-19T06:31:50Z</time>
      </trkpt>
      <trkpt lat="41.9526600" lon="-8.8827360">
        <ele>23.1</ele>
        <time>2021-05-19T06:31:51Z</time>
      </trkpt>
      <trkpt lat="41.9526710" lon="-8.8827400">
        <ele>23.0</ele>
        <time>2021-05-19T06:31:52Z</time>
      </trkpt>
      <trkpt lat="41.9526900" lon="-8.8827480">
        <ele>22.9</ele>
        <time>2021-05-19T06:31:53Z</time>
      </trkpt>
      <trkpt lat="41.9526990" lon="-8.8827500">
        <ele>22.9</ele>
        <time>2021-05-19T06:31:54Z</time>
      </trkpt>
      <trkpt lat="41.9527080" lon="-8.8827520">
        <ele>22.8</ele>
        <time>2021-05-19T06:31:55Z</time>
      </trkpt>
      <trkpt lat="41.9527180" lon="-8.8827580">
        <ele>22.8</ele>
        <time>2021-05-19T06:31:56Z</time>
      </trkpt>
      <trkpt lat="41.9527260" lon="-8.8827680">
        <ele>22.7</ele>
        <time>2021-05-19T06:31:57Z</time>
      </trkpt>
      <trkpt lat="41.9527350" lon="-8.8827670">
        <ele>22.7</ele>
        <time>2021-05-19T06:31:58Z</time>
      </trkpt>
      <trkpt lat="41.9527460" lon="-8.8827750">
        <ele>22.6</ele>
        <time>2021-05-19T06:31:59Z</time>
      </trkpt>
      <trkpt lat="41.9527530" lon="-8.8827790">
        <ele>22.6</ele>
        <time>2021-05-19T06:32:00Z</time>
      </trkpt>
      <trkpt lat="41.9527620" lon="-8.8827820">
        <ele>22.5</ele>
        <time>2021-05-19T06:32:01Z</time>
      </trkpt>
      <trkpt lat="41.9527810" lon="-8.8827960">
        <ele>22.4</ele>
        <time>2021-05-19T06:32:02Z</time>
      </trkpt>
      <trkpt lat="41.9527890" lon="-8.8828030">
        <ele>22.4</ele>
        <time>2021-05-19T06:32:03Z</time>
      </trkpt>
      <trkpt lat="41.9527980" lon="-8.8828090">
        <ele>22.3</ele>
        <time>2021-05-19T06:32:04Z</time>
      </trkpt>
      <trkpt lat="41.9528120" lon="-8.8828070">
        <ele>22.2</ele>
        <time>2021-05-19T06:32:05Z</time>
      </trkpt>
      <trkpt lat="41.9528260" lon="-8.8828140">
        <ele>22.2</ele>
        <time>2021-05-19T06:32:06Z</time>
      </trkpt>
      <trkpt lat="41.9528370" lon="-8.8828150">
        <ele>22.1</ele>
        <time>2021-05-19T06:32:07Z</time>
      </trkpt>
      <trkpt lat="41.9528480" lon="-8.8828210">
        <ele>22.0</ele>
        <time>2021-05-19T06:32:08Z</time>
      </trkpt>
      <trkpt lat="41.9528610" lon="-8.8828240">
        <ele>22.0</ele>
        <time>2021-05-19T06:32:09Z</time>
      </trkpt>
      <trkpt lat="41.9528780" lon="-8.8828330">
        <ele>21.9</ele>
        <time>2021-05-19T06:32:10Z</time>
      </trkpt>
      <trkpt lat="41.9528880" lon="-8.8828380">
        <ele>21.9</ele>
        <time>2021-05-19T06:32:11Z</time>
      </trkpt>
      <trkpt lat="41.9528970" lon="-8.8828420">
        <ele>21.8</ele>
        <time>2021-05-19T06:32:12Z</time>
      </trkpt>
      <trkpt lat="41.9529110" lon="-8.8828440">
        <ele>21.8</ele>
        <time>2021-05-19T06:32:13Z</time>
      </trkpt>
      <trkpt lat="41.9529250" lon="-8.8828470">
        <ele>21.7</ele>
        <time>2021-05-19T06:32:14Z</time>
      </trkpt>
      <trkpt lat="41.9529360" lon="-8.8828540">
        <ele>21.7</ele>
        <time>2021-05-19T06:32:15Z</time>
      </trkpt>
      <trkpt lat="41.9529540" lon="-8.8828580">
        <ele>21.6</ele>
        <time>2021-05-19T06:32:16Z</time>
      </trkpt>
      <trkpt lat="41.9529710" lon="-8.8828830">
        <ele>21.5</ele>
        <time>2021-05-19T06:32:17Z</time>
      </trkpt>
      <trkpt lat="41.9529800" lon="-8.8828840">
        <ele>21.5</ele>
        <time>2021-05-19T06:32:18Z</time>
      </trkpt>
      <trkpt lat="41.9529880" lon="-8.8828860">
        <ele>21.5</ele>
        <time>2021-05-19T06:32:19Z</time>
      </trkpt>
      <trkpt lat="41.9529990" lon="-8.8828950">
        <ele>21.4</ele>
        <time>2021-05-19T06:32:20Z</time>
      </trkpt>
      <trkpt lat="41.9530170" lon="-8.8828960">
        <ele>21.4</ele>
        <time>2021-05-19T06:32:21Z</time>
      </trkpt>
      <trkpt lat="41.9530320" lon="-8.8829010">
        <ele>21.3</ele>
        <time>2021-05-19T06:32:22Z</time>
      </trkpt>
      <trkpt lat="41.9530430" lon="-8.8829110">
        <ele>21.3</ele>
        <time>2021-05-19T06:32:23Z</time>
      </trkpt>
      <trkpt lat="41.9530630" lon="-8.8829210">
        <ele>21.2</ele>
        <time>2021-05-19T06:32:24Z</time>
      </trkpt>
      <trkpt lat="41.9530730" lon="-8.8829250">
        <ele>21.1</ele>
        <time>2021-05-19T06:32:25Z</time>
      </trkpt>
      <trkpt lat="41.9530830" lon="-8.8829280">
        <ele>21.1</ele>
        <time>2021-05-19T06:32:26Z</time>
      </trkpt>
      <trkpt lat="41.9531020" lon="-8.8829380">
        <ele>21.0</ele>
        <time>2021-05-19T06:32:27Z</time>
      </trkpt>
      <trkpt lat="41.9531090" lon="-8.8829450">
        <ele>21.0</ele>
        <time>2021-05-19T06:32:28Z</time>
      </trkpt>
      <trkpt lat="41.9531160" lon="-8.8829520">
        <ele>21.0</ele>
        <time>2021-05-19T06:32:29Z</time>
      </trkpt>
      <trkpt lat="41.9531260" lon="-8.8829600">
        <ele>20.9</ele>
        <time>2021-05-19T06:32:30Z</time>
      </trkpt>
      <trkpt lat="41.9531380" lon="-8.8829690">
        <ele>20.9</ele>
        <time>2021-05-19T06:32:31Z</time>
      </trkpt>
      <trkpt lat="41.9531430" lon="-8.8829780">
        <ele>20.8</ele>
        <time>2021-05-19T06:32:32Z</time>
      </trkpt>
      <trkpt lat="41.9531630" lon="-8.8829850">
        <ele>20.8</ele>
        <time>2021-05-19T06:32:33Z</time>
      </trkpt>
      <trkpt lat="41.9531720" lon="-8.8829870">
        <ele>20.7</ele>
        <time>2021-05-19T06:32:34Z</time>
      </trkpt>
      <trkpt lat="41.9531800" lon="-8.8829900">
        <ele>20.7</ele>
        <time>2021-05-19T06:32:35Z</time>
      </trkpt>
      <trkpt lat="41.9532010" lon="-8.8830100">
        <ele>20.6</ele>
        <time>2021-05-19T06:32:36Z</time>
      </trkpt>
      <trkpt lat="41.9532060" lon="-8.8830160">
        <ele>20.6</ele>
        <time>2021-05-19T06:32:37Z</time>
      </trkpt>
      <trkpt lat="41.9532110" lon="-8.8830210">
        <ele>20.5</ele>
        <time>2021-05-19T06:32:38Z</time>
      </trkpt>
      <trkpt lat="41.9532230" lon="-8.8830250">
        <ele>20.5</ele>
        <time>2021-05-19T06:32:39Z</time>
      </trkpt>
      <trkpt lat="41.9532360" lon="-8.8830350">
        <ele>20.4</ele>
        <time>2021-05-19T06:32:40Z</time>
      </trkpt>
      <trkpt lat="41.9532380" lon="-8.8830390">
        <ele>20.4</ele>
        <time>2021-05-19T06:32:41Z</time>
      </trkpt>
      <trkpt lat="41.9532600" lon="-8.8830480">
        <ele>20.3</ele>
        <time>2021-05-19T06:32:42Z</time>
      </trkpt>
      <trkpt lat="41.9532690" lon="-8.8830520">
        <ele>20.3</ele>
        <time>2021-05-19T06:32:43Z</time>
      </trkpt>
      <trkpt lat="41.9532790" lon="-8.8830560">
        <ele>20.2</ele>
        <time>2021-05-19T06:32:44Z</time>
      </trkpt>
      <trkpt lat="41.9533000" lon="-8.8830590">
        <ele>20.1</ele>
        <time>2021-05-19T06:32:45Z</time>
      </trkpt>
      <trkpt lat="41.9533070" lon="-8.8830630">
        <ele>20.1</ele>
        <time>2021-05-19T06:32:46Z</time>
      </trkpt>
      <trkpt lat="41.9533150" lon="-8.8830670">
        <ele>20.0</ele>
        <time>2021-05-19T06:32:47Z</time>
      </trkpt>
      <trkpt lat="41.9533310" lon="-8.8830730">
        <ele>20.0</ele>
        <time>2021-05-19T06:32:48Z</time>
      </trkpt>
      <trkpt lat="41.9533420" lon="-8.8830760">
        <ele>19.9</ele>
        <time>2021-05-19T06:32:49Z</time>
      </trkpt>
      <trkpt lat="41.9533510" lon="-8.8830810">
        <ele>19.9</ele>
        <time>2021-05-19T06:32:50Z</time>
      </trkpt>
      <trkpt lat="41.9533640" lon="-8.8830870">
        <ele>19.8</ele>
        <time>2021-05-19T06:32:51Z</time>
      </trkpt>
      <trkpt lat="41.9533700" lon="-8.8830960">
        <ele>19.8</ele>
        <time>2021-05-19T06:32:52Z</time>
      </trkpt>
      <trkpt lat="41.9533850" lon="-8.8831000">
        <ele>19.7</ele>
        <time>2021-05-19T06:32:53Z</time>
      </trkpt>
      <trkpt lat="41.9533960" lon="-8.8831080">
        <ele>19.7</ele>
        <time>2021-05-19T06:32:54Z</time>
      </trkpt>
      <trkpt lat="41.9534080" lon="-8.8831120">
        <ele>19.6</ele>
        <time>2021-05-19T06:32:55Z</time>
      </trkpt>
      <trkpt lat="41.9534170" lon="-8.8831270">
        <ele>19.5</ele>
        <time>2021-05-19T06:32:56Z</time>
      </trkpt>
      <trkpt lat="41.9534240" lon="-8.8831300">
        <ele>19.5</ele>
        <time>2021-05-19T06:32:57Z</time>
      </trkpt>
      <trkpt lat="41.9534400" lon="-8.8831330">
        <ele>19.4</ele>
        <time>2021-05-19T06:32:58Z</time>
      </trkpt>
      <trkpt lat="41.9534460" lon="-8.8831430">
        <ele>19.4</ele>
        <time>2021-05-19T06:32:59Z</time>
      </trkpt>
      <trkpt lat="41.9534540" lon="-8.8831460">
        <ele>19.4</ele>
        <time>2021-05-19T06:33:00Z</time>
      </trkpt>
      <trkpt lat="41.9534750" lon="-8.8831500">
        <ele>19.3</ele>
        <time>2021-05-19T06:33:01Z</time>
      </trkpt>
      <trkpt lat="41.9534860" lon="-8.8831520">
        <ele>19.2</ele>
        <time>2021-05-19T06:33:02Z</time>
      </trkpt>
      <trkpt lat="41.9534980" lon="-8.8831580">
        <ele>19.2</ele>
        <time>2021-05-19T06:33:03Z</time>
      </trkpt>
      <trkpt lat="41.9535130" lon="-8.8831670">
        <ele>19.1</ele>
        <time>2021-05-19T06:33:04Z</time>
      </trkpt>
      <trkpt lat="41.9535200" lon="-8.8831740">
        <ele>19.1</ele>
        <time>2021-05-19T06:33:05Z</time>
      </trkpt>
      <trkpt lat="41.9535370" lon="-8.8831780">
        <ele>19.0</ele>
        <time>2021-05-19T06:33:06Z</time>
      </trkpt>
      <trkpt lat="41.9535450" lon="-8.8831800">
        <ele>19.0</ele>
        <time>2021-05-19T06:33:07Z</time>
      </trkpt>
      <trkpt lat="41.9535670" lon="-8.8831870">
        <ele>18.8</ele>
        <time>2021-05-19T06:33:08Z</time>
      </trkpt>
      <trkpt lat="41.9535780" lon="-8.8831910">
        <ele>18.8</ele>
        <time>2021-05-19T06:33:09Z</time>
      </trkpt>
      <trkpt lat="41.9535890" lon="-8.8831950">
        <ele>18.7</ele>
        <time>2021-05-19T06:33:10Z</time>
      </trkpt>
      <trkpt lat="41.9536060" lon="-8.8832000">
        <ele>18.7</ele>
        <time>2021-05-19T06:33:11Z</time>
      </trkpt>
      <trkpt lat="41.9536160" lon="-8.8832030">
        <ele>18.6</ele>
        <time>2021-05-19T06:33:12Z</time>
      </trkpt>
      <trkpt lat="41.9536210" lon="-8.8832050">
        <ele>18.6</ele>
        <time>2021-05-19T06:33:13Z</time>
      </trkpt>
      <trkpt lat="41.9536330" lon="-8.8832000">
        <ele>18.5</ele>
        <time>2021-05-19T06:33:14Z</time>
      </trkpt>
      <trkpt lat="41.9536450" lon="-8.8832060">
        <ele>18.5</ele>
        <time>2021-05-19T06:33:15Z</time>
      </trkpt>
      <trkpt lat="41.9536600" lon="-8.8832070">
        <ele>18.4</ele>
        <time>2021-05-19T06:33:16Z</time>
      </trkpt>
      <trkpt lat="41.9536800" lon="-8.8832160">
        <ele>18.3</ele>
        <time>2021-05-19T06:33:17Z</time>
      </trkpt>
      <trkpt lat="41.9536940" lon="-8.8832260">
        <ele>18.2</ele>
        <time>2021-05-19T06:33:18Z</time>
      </trkpt>
      <trkpt lat="41.9537070" lon="-8.8832350">
        <ele>18.2</ele>
        <time>2021-05-19T06:33:19Z</time>
      </trkpt>
      <trkpt lat="41.9537200" lon="-8.8832410">
        <ele>18.1</ele>
        <time>2021-05-19T06:33:20Z</time>
      </trkpt>
      <trkpt lat="41.9537360" lon="-8.8832470">
        <ele>18.0</ele>
        <time>2021-05-19T06:33:21Z</time>
      </trkpt>
      <trkpt lat="41.9537520" lon="-8.8832610">
        <ele>17.9</ele>
        <time>2021-05-19T06:33:22Z</time>
      </trkpt>
      <trkpt lat="41.9537610" lon="-8.8832680">
        <ele>17.8</ele>
        <time>2021-05-19T06:33:23Z</time>
      </trkpt>
      <trkpt lat="41.9537700" lon="-8.8832740">
        <ele>17.8</ele>
        <time>2021-05-19T06:33:24Z</time>
      </trkpt>
      <trkpt lat="41.9537880" lon="-8.8832940">
        <ele>17.7</ele>
        <time>2021-05-19T06:33:25Z</time>
      </trkpt>
      <trkpt lat="41.9537950" lon="-8.8833010">
        <ele>17.6</ele>
        <time>2021-05-19T06:33:26Z</time>
      </trkpt>
      <trkpt lat="41.9538010" lon="-8.8833080">
        <ele>17.6</ele>
        <time>2021-05-19T06:33:27Z</time>
      </trkpt>
      <trkpt lat="41.9538200" lon="-8.8833250">
        <ele>17.5</ele>
        <time>2021-05-19T06:33:28Z</time>
      </trkpt>
      <trkpt lat="41.9538260" lon="-8.8833320">
        <ele>17.4</ele>
        <time>2021-05-19T06:33:29Z</time>
      </trkpt>
      <trkpt lat="41.9538330" lon="-8.8833380">
        <ele>17.4</ele>
        <time>2021-05-19T06:33:30Z</time>
      </trkpt>
      <trkpt lat="41.9538500" lon="-8.8833530">
        <ele>17.2</ele>
        <time>2021-05-19T06:33:31Z</time>
      </trkpt>
      <trkpt lat="41.9538560" lon="-8.8833630">
        <ele>17.2</ele>
        <time>2021-05-19T06:33:32Z</time>
      </trkpt>
      <trkpt lat="41.9538660" lon="-8.8833800">
        <ele>17.1</ele>
        <time>2021-05-19T06:33:33Z</time>
      </trkpt>
      <trkpt lat="41.9538740" lon="-8.8833930">
        <ele>17.0</ele>
        <time>2021-05-19T06:33:34Z</time>
      </trkpt>
      <trkpt lat="41.9538800" lon="-8.8834060">
        <ele>17.0</ele>
        <time>2021-05-19T06:33:35Z</time>
      </trkpt>
      <trkpt lat="41.9538920" lon="-8.8834220">
        <ele>16.9</ele>
        <time>2021-05-19T06:33:36Z</time>
      </trkpt>
      <trkpt lat="41.9539010" lon="-8.8834410">
        <ele>16.8</ele>
        <time>2021-05-19T06:33:37Z</time>
      </trkpt>
      <trkpt lat="41.9539100" lon="-8.8834520">
        <ele>16.7</ele>
        <time>2021-05-19T06:33:38Z</time>
      </trkpt>
      <trkpt lat="41.9539140" lon="-8.8834650">
        <ele>16.6</ele>
        <time>2021-05-19T06:33:39Z</time>
      </trkpt>
      <trkpt lat="41.9539240" lon="-8.8834880">
        <ele>16.5</ele>
        <time>2021-05-19T06:33:40Z</time>
      </trkpt>
      <trkpt lat="41.9539380" lon="-8.8835080">
        <ele>16.4</ele>
        <time>2021-05-19T06:33:41Z</time>
      </trkpt>
      <trkpt lat="41.9539440" lon="-8.8835160">
        <ele>16.4</ele>
        <time>2021-05-19T06:33:42Z</time>
      </trkpt>
      <trkpt lat="41.9539500" lon="-8.8835240">
        <ele>16.3</ele>
        <time>2021-05-19T06:33:43Z</time>
      </trkpt>
      <trkpt lat="41.9539670" lon="-8.8835470">
        <ele>16.2</ele>
        <time>2021-05-19T06:33:44Z</time>
      </trkpt>
      <trkpt lat="41.9539720" lon="-8.8835590">
        <ele>16.2</ele>
        <time>2021-05-19T06:33:45Z</time>
      </trkpt>
      <trkpt lat="41.9539770" lon="-8.8835710">
        <ele>16.1</ele>
        <time>2021-05-19T06:33:46Z</time>
      </trkpt>
      <trkpt lat="41.9539840" lon="-8.8835850">
        <ele>16.1</ele>
        <time>2021-05-19T06:33:47Z</time>
      </trkpt>
      <trkpt lat="41.9539840" lon="-8.8835980">
        <ele>16.1</ele>
        <time>2021-05-19T06:33:48Z</time>
      </trkpt>
      <trkpt lat="41.9539940" lon="-8.8836100">
        <ele>16.1</ele>
        <time>2021-05-19T06:33:49Z</time>
      </trkpt>
      <trkpt lat="41.9540060" lon="-8.8836330">
        <ele>16.1</ele>
        <time>2021-05-19T06:33:50Z</time>
      </trkpt>
      <trkpt lat="41.9540200" lon="-8.8836430">
        <ele>16.1</ele>
        <time>2021-05-19T06:33:51Z</time>
      </trkpt>
      <trkpt lat="41.9540360" lon="-8.8836490">
        <ele>16.0</ele>
        <time>2021-05-19T06:33:52Z</time>
      </trkpt>
      <trkpt lat="41.9540470" lon="-8.8836570">
        <ele>16.0</ele>
        <time>2021-05-19T06:33:53Z</time>
      </trkpt>
      <trkpt lat="41.9540600" lon="-8.8836690">
        <ele>16.0</ele>
        <time>2021-05-19T06:33:54Z</time>
      </trkpt>
      <trkpt lat="41.9540670" lon="-8.8836740">
        <ele>15.9</ele>
        <time>2021-05-19T06:33:55Z</time>
      </trkpt>
      <trkpt lat="41.9540730" lon="-8.8836800">
        <ele>15.9</ele>
        <time>2021-05-19T06:33:56Z</time>
      </trkpt>
      <trkpt lat="41.9540800" lon="-8.8836860">
        <ele>15.9</ele>
        <time>2021-05-19T06:33:57Z</time>
      </trkpt>
      <trkpt lat="41.9540960" lon="-8.8837070">
        <ele>15.8</ele>
        <time>2021-05-19T06:33:58Z</time>
      </trkpt>
      <trkpt lat="41.9541020" lon="-8.8837140">
        <ele>15.8</ele>
        <time>2021-05-19T06:33:59Z</time>
      </trkpt>
      <trkpt lat="41.9541070" lon="-8.8837220">
        <ele>15.7</ele>
        <time>2021-05-19T06:34:00Z</time>
      </trkpt>
      <trkpt lat="41.9541160" lon="-8.8837200">
        <ele>15.7</ele>
        <time>2021-05-19T06:34:01Z</time>
      </trkpt>
      <trkpt lat="41.9541260" lon="-8.8837320">
        <ele>15.7</ele>
        <time>2021-05-19T06:34:02Z</time>
      </trkpt>
      <trkpt lat="41.9541370" lon="-8.8837390">
        <ele>15.6</ele>
        <time>2021-05-19T06:34:03Z</time>
      </trkpt>
      <trkpt lat="41.9541520" lon="-8.8837530">
        <ele>15.6</ele>
        <time>2021-05-19T06:34:04Z</time>
      </trkpt>
      <trkpt lat="41.9541610" lon="-8.8837580">
        <ele>15.5</ele>
        <time>2021-05-19T06:34:05Z</time>
      </trkpt>
      <trkpt lat="41.9541700" lon="-8.8837630">
        <ele>15.5</ele>
        <time>2021-05-19T06:34:06Z</time>
      </trkpt>
      <trkpt lat="41.9541880" lon="-8.8837800">
        <ele>15.4</ele>
        <time>2021-05-19T06:34:07Z</time>
      </trkpt>
      <trkpt lat="41.9541940" lon="-8.8837850">
        <ele>15.4</ele>
        <time>2021-05-19T06:34:08Z</time>
      </trkpt>
      <trkpt lat="41.9542000" lon="-8.8837910">
        <ele>15.4</ele>
        <time>2021-05-19T06:34:09Z</time>
      </trkpt>
      <trkpt lat="41.9542160" lon="-8.8838110">
        <ele>15.3</ele>
        <time>2021-05-19T06:34:10Z</time>
      </trkpt>
      <trkpt lat="41.9542240" lon="-8.8838210">
        <ele>15.3</ele>
        <time>2021-05-19T06:34:11Z</time>
      </trkpt>
      <trkpt lat="41.9542310" lon="-8.8838300">
        <ele>15.3</ele>
        <time>2021-05-19T06:34:12Z</time>
      </trkpt>
      <trkpt lat="41.9542430" lon="-8.8838430">
        <ele>15.3</ele>
        <time>2021-05-19T06:34:13Z</time>
      </trkpt>
      <trkpt lat="41.9542500" lon="-8.8838580">
        <ele>15.2</ele>
        <time>2021-05-19T06:34:14Z</time>
      </trkpt>
      <trkpt lat="41.9542650" lon="-8.8838740">
        <ele>15.2</ele>
        <time>2021-05-19T06:34:15Z</time>
      </trkpt>
      <trkpt lat="41.9542740" lon="-8.8838790">
        <ele>15.2</ele>
        <time>2021-05-19T06:34:16Z</time>
      </trkpt>
      <trkpt lat="41.9542830" lon="-8.8838850">
        <ele>15.2</ele>
        <time>2021-05-19T06:34:17Z</time>
      </trkpt>
      <trkpt lat="41.9542980" lon="-8.8839080">
        <ele>15.1</ele>
        <time>2021-05-19T06:34:18Z</time>
      </trkpt>
      <trkpt lat="41.9543070" lon="-8.8839170">
        <ele>15.1</ele>
        <time>2021-05-19T06:34:19Z</time>
      </trkpt>
      <trkpt lat="41.9543150" lon="-8.8839270">
        <ele>15.1</ele>
        <time>2021-05-19T06:34:20Z</time>
      </trkpt>
      <trkpt lat="41.9543250" lon="-8.8839330">
        <ele>15.1</ele>
        <time>2021-05-19T06:34:21Z</time>
      </trkpt>
      <trkpt lat="41.9543400" lon="-8.8839440">
        <ele>15.0</ele>
        <time>2021-05-19T06:34:22Z</time>
      </trkpt>
      <trkpt lat="41.9543550" lon="-8.8839510">
        <ele>15.0</ele>
        <time>2021-05-19T06:34:23Z</time>
      </trkpt>
      <trkpt lat="41.9543680" lon="-8.8839640">
        <ele>15.0</ele>
        <time>2021-05-19T06:34:24Z</time>
      </trkpt>
      <trkpt lat="41.9543810" lon="-8.8839780">
        <ele>15.0</ele>
        <time>2021-05-19T06:34:25Z</time>
      </trkpt>
      <trkpt lat="41.9543950" lon="-8.8839810">
        <ele>15.0</ele>
        <time>2021-05-19T06:34:26Z</time>
      </trkpt>
      <trkpt lat="41.9544090" lon="-8.8839860">
        <ele>15.0</ele>
        <time>2021-05-19T06:34:27Z</time>
      </trkpt>
      <trkpt lat="41.9544220" lon="-8.8839940">
        <ele>14.9</ele>
        <time>2021-05-19T06:34:28Z</time>
      </trkpt>
      <trkpt lat="41.9544320" lon="-8.8839980">
        <ele>14.9</ele>
        <time>2021-05-19T06:34:29Z</time>
      </trkpt>
      <trkpt lat="41.9544350" lon="-8.8840010">
        <ele>14.9</ele>
        <time>2021-05-19T06:34:30Z</time>
      </trkpt>
      <trkpt lat="41.9544380" lon="-8.8840060">
        <ele>14.9</ele>
        <time>2021-05-19T06:34:31Z</time>
      </trkpt>
      <trkpt lat="41.9544450" lon="-8.8840090">
        <ele>14.9</ele>
        <time>2021-05-19T06:34:32Z</time>
      </trkpt>
      <trkpt lat="41.9544390" lon="-8.8840130">
        <ele>14.9</ele>
        <time>2021-05-19T06:34:33Z</time>
      </trkpt>
      <trkpt lat="41.9544340" lon="-8.8840100">
        <ele>14.9</ele>
        <time>2021-05-19T06:34:34Z</time>
      </trkpt>
      <trkpt lat="41.9544500" lon="-8.8840110">
        <ele>14.9</ele>
        <time>2021-05-19T06:34:35Z</time>
      </trkpt>
      <trkpt lat="41.9544690" lon="-8.8840110">
        <ele>14.9</ele>
        <time>2021-05-19T06:34:36Z</time>
      </trkpt>
      <trkpt lat="41.9544790" lon="-8.8840150">
        <ele>14.9</ele>
        <time>2021-05-19T06:34:37Z</time>
      </trkpt>
      <trkpt lat="41.9544880" lon="-8.8840140">
        <ele>14.9</ele>
        <time>2021-05-19T06:34:38Z</time>
      </trkpt>
      <trkpt lat="41.9544990" lon="-8.8840170">
        <ele>14.9</ele>
        <time>2021-05-19T06:34:39Z</time>
      </trkpt>
      <trkpt lat="41.9545100" lon="-8.8840220">
        <ele>14.8</ele>
        <time>2021-05-19T06:34:40Z</time>
      </trkpt>
      <trkpt lat="41.9545330" lon="-8.8840260">
        <ele>14.8</ele>
        <time>2021-05-19T06:34:41Z</time>
      </trkpt>
      <trkpt lat="41.9545390" lon="-8.8840290">
        <ele>14.8</ele>
        <time>2021-05-19T06:34:42Z</time>
      </trkpt>
      <trkpt lat="41.9545460" lon="-8.8840320">
        <ele>14.8</ele>
        <time>2021-05-19T06:34:43Z</time>
      </trkpt>
      <trkpt lat="41.9545590" lon="-8.8840320">
        <ele>14.8</ele>
        <time>2021-05-19T06:34:44Z</time>
      </trkpt>
      <trkpt lat="41.9545740" lon="-8.8840330">
        <ele>14.8</ele>
        <time>2021-05-19T06:34:45Z</time>
      </trkpt>
      <trkpt lat="41.9545870" lon="-8.8840280">
        <ele>14.8</ele>
        <time>2021-05-19T06:34:46Z</time>
      </trkpt>
      <trkpt lat="41.9545970" lon="-8.8840320">
        <ele>14.8</ele>
        <time>2021-05-19T06:34:47Z</time>
      </trkpt>
      <trkpt lat="41.9546090" lon="-8.8840380">
        <ele>14.8</ele>
        <time>2021-05-19T06:34:48Z</time>
      </trkpt>
      <trkpt lat="41.9546280" lon="-8.8840350">
        <ele>14.8</ele>
        <time>2021-05-19T06:34:49Z</time>
      </trkpt>
      <trkpt lat="41.9546380" lon="-8.8840340">
        <ele>14.8</ele>
        <time>2021-05-19T06:34:50Z</time>
      </trkpt>
      <trkpt lat="41.9546470" lon="-8.8840340">
        <ele>14.7</ele>
        <time>2021-05-19T06:34:51Z</time>
      </trkpt>
      <trkpt lat="41.9546630" lon="-8.8840310">
        <ele>14.7</ele>
        <time>2021-05-19T06:34:52Z</time>
      </trkpt>
      <trkpt lat="41.9546750" lon="-8.8840340">
        <ele>14.7</ele>
        <time>2021-05-19T06:34:53Z</time>
      </trkpt>
      <trkpt lat="41.9546870" lon="-8.8840350">
        <ele>14.7</ele>
        <time>2021-05-19T06:34:54Z</time>
      </trkpt>
      <trkpt lat="41.9546930" lon="-8.8840380">
        <ele>14.7</ele>
        <time>2021-05-19T06:34:55Z</time>
      </trkpt>
      <trkpt lat="41.9547060" lon="-8.8840430">
        <ele>14.7</ele>
        <time>2021-05-19T06:34:56Z</time>
      </trkpt>
      <trkpt lat="41.9547220" lon="-8.8840390">
        <ele>14.7</ele>
        <time>2021-05-19T06:34:57Z</time>
      </trkpt>
      <trkpt lat="41.9547310" lon="-8.8840430">
        <ele>14.7</ele>
        <time>2021-05-19T06:34:58Z</time>
      </trkpt>
      <trkpt lat="41.9547380" lon="-8.8840460">
        <ele>14.7</ele>
        <time>2021-05-19T06:34:59Z</time>
      </trkpt>
      <trkpt lat="41.9547540" lon="-8.8840450">
        <ele>14.7</ele>
        <time>2021-05-19T06:35:00Z</time>
      </trkpt>
      <trkpt lat="41.9547590" lon="-8.8840430">
        <ele>14.7</ele>
        <time>2021-05-19T06:35:01Z</time>
      </trkpt>
      <trkpt lat="41.9547740" lon="-8.8840420">
        <ele>14.7</ele>
        <time>2021-05-19T06:35:02Z</time>
      </trkpt>
      <trkpt lat="41.9547870" lon="-8.8840440">
        <ele>14.7</ele>
        <time>2021-05-19T06:35:03Z</time>
      </trkpt>
      <trkpt lat="41.9548010" lon="-8.8840460">
        <ele>14.7</ele>
        <time>2021-05-19T06:35:04Z</time>
      </trkpt>
      <trkpt lat="41.9548180" lon="-8.8840520">
        <ele>14.7</ele>
        <time>2021-05-19T06:35:05Z</time>
      </trkpt>
      <trkpt lat="41.9548290" lon="-8.8840560">
        <ele>14.7</ele>
        <time>2021-05-19T06:35:06Z</time>
      </trkpt>
      <trkpt lat="41.9548510" lon="-8.8840540">
        <ele>14.7</ele>
        <time>2021-05-19T06:35:07Z</time>
      </trkpt>
      <trkpt lat="41.9548600" lon="-8.8840550">
        <ele>14.7</ele>
        <time>2021-05-19T06:35:08Z</time>
      </trkpt>
      <trkpt lat="41.9548690" lon="-8.8840550">
        <ele>14.7</ele>
        <time>2021-05-19T06:35:09Z</time>
      </trkpt>
      <trkpt lat="41.9548910" lon="-8.8840650">
        <ele>14.7</ele>
        <time>2021-05-19T06:35:10Z</time>
      </trkpt>
      <trkpt lat="41.9549000" lon="-8.8840670">
        <ele>14.7</ele>
        <time>2021-05-19T06:35:11Z</time>
      </trkpt>
      <trkpt lat="41.9549080" lon="-8.8840700">
        <ele>14.7</ele>
        <time>2021-05-19T06:35:12Z</time>
      </trkpt>
      <trkpt lat="41.9549140" lon="-8.8840720">
        <ele>14.6</ele>
        <time>2021-05-19T06:35:13Z</time>
      </trkpt>
      <trkpt lat="41.9549290" lon="-8.8840750">
        <ele>14.6</ele>
        <time>2021-05-19T06:35:14Z</time>
      </trkpt>
      <trkpt lat="41.9549410" lon="-8.8840750">
        <ele>14.6</ele>
        <time>2021-05-19T06:35:15Z</time>
      </trkpt>
      <trkpt lat="41.9549570" lon="-8.8840750">
        <ele>14.6</ele>
        <time>2021-05-19T06:35:16Z</time>
      </trkpt>
      <trkpt lat="41.9549710" lon="-8.8840710">
        <ele>14.6</ele>
        <time>2021-05-19T06:35:17Z</time>
      </trkpt>
      <trkpt lat="41.9549820" lon="-8.8840710">
        <ele>14.6</ele>
        <time>2021-05-19T06:35:18Z</time>
      </trkpt>
      <trkpt lat="41.9549920" lon="-8.8840730">
        <ele>14.7</ele>
        <time>2021-05-19T06:35:19Z</time>
      </trkpt>
      <trkpt lat="41.9550050" lon="-8.8840680">
        <ele>14.7</ele>
        <time>2021-05-19T06:35:20Z</time>
      </trkpt>
      <trkpt lat="41.9550260" lon="-8.8840690">
        <ele>14.7</ele>
        <time>2021-05-19T06:35:21Z</time>
      </trkpt>
      <trkpt lat="41.9550350" lon="-8.8840720">
        <ele>14.7</ele>
        <time>2021-05-19T06:35:22Z</time>
      </trkpt>
      <trkpt lat="41.9550440" lon="-8.8840740">
        <ele>14.7</ele>
        <time>2021-05-19T06:35:23Z</time>
      </trkpt>
      <trkpt lat="41.9550550" lon="-8.8840760">
        <ele>14.7</ele>
        <time>2021-05-19T06:35:24Z</time>
      </trkpt>
      <trkpt lat="41.9550710" lon="-8.8840820">
        <ele>14.7</ele>
        <time>2021-05-19T06:35:25Z</time>
      </trkpt>
      <trkpt lat="41.9550830" lon="-8.8840810">
        <ele>14.7</ele>
        <time>2021-05-19T06:35:26Z</time>
      </trkpt>
      <trkpt lat="41.9550980" lon="-8.8840870">
        <ele>14.7</ele>
        <time>2021-05-19T06:35:27Z</time>
      </trkpt>
      <trkpt lat="41.9551050" lon="-8.8840930">
        <ele>14.7</ele>
        <time>2021-05-19T06:35:28Z</time>
      </trkpt>
      <trkpt lat="41.9551200" lon="-8.8840960">
        <ele>14.7</ele>
        <time>2021-05-19T06:35:29Z</time>
      </trkpt>
      <trkpt lat="41.9551330" lon="-8.8840980">
        <ele>14.7</ele>
        <time>2021-05-19T06:35:30Z</time>
      </trkpt>
      <trkpt lat="41.9551490" lon="-8.8840970">
        <ele>14.7</ele>
        <time>2021-05-19T06:35:31Z</time>
      </trkpt>
      <trkpt lat="41.9551620" lon="-8.8840980">
        <ele>14.7</ele>
        <time>2021-05-19T06:35:32Z</time>
      </trkpt>
      <trkpt lat="41.9551860" lon="-8.8841010">
        <ele>14.7</ele>
        <time>2021-05-19T06:35:33Z</time>
      </trkpt>
      <trkpt lat="41.9551930" lon="-8.8841000">
        <ele>14.7</ele>
        <time>2021-05-19T06:35:34Z</time>
      </trkpt>
      <trkpt lat="41.9551990" lon="-8.8841000">
        <ele>14.7</ele>
        <time>2021-05-19T06:35:35Z</time>
      </trkpt>
      <trkpt lat="41.9552070" lon="-8.8840980">
        <ele>14.7</ele>
        <time>2021-05-19T06:35:36Z</time>
      </trkpt>
      <trkpt lat="41.9552200" lon="-8.8840990">
        <ele>14.7</ele>
        <time>2021-05-19T06:35:37Z</time>
      </trkpt>
      <trkpt lat="41.9552340" lon="-8.8841010">
        <ele>14.7</ele>
        <time>2021-05-19T06:35:38Z</time>
      </trkpt>
      <trkpt lat="41.9552470" lon="-8.8841020">
        <ele>14.7</ele>
        <time>2021-05-19T06:35:39Z</time>
      </trkpt>
      <trkpt lat="41.9552550" lon="-8.8840980">
        <ele>14.7</ele>
        <time>2021-05-19T06:35:40Z</time>
      </trkpt>
      <trkpt lat="41.9552640" lon="-8.8841000">
        <ele>14.7</ele>
        <time>2021-05-19T06:35:41Z</time>
      </trkpt>
      <trkpt lat="41.9552840" lon="-8.8841010">
        <ele>14.8</ele>
        <time>2021-05-19T06:35:42Z</time>
      </trkpt>
      <trkpt lat="41.9552940" lon="-8.8841020">
        <ele>14.8</ele>
        <time>2021-05-19T06:35:43Z</time>
      </trkpt>
      <trkpt lat="41.9553050" lon="-8.8841040">
        <ele>14.8</ele>
        <time>2021-05-19T06:35:44Z</time>
      </trkpt>
      <trkpt lat="41.9553140" lon="-8.8841060">
        <ele>14.8</ele>
        <time>2021-05-19T06:35:45Z</time>
      </trkpt>
      <trkpt lat="41.9553260" lon="-8.8841040">
        <ele>14.8</ele>
        <time>2021-05-19T06:35:46Z</time>
      </trkpt>
      <trkpt lat="41.9553390" lon="-8.8841110">
        <ele>14.8</ele>
        <time>2021-05-19T06:35:47Z</time>
      </trkpt>
      <trkpt lat="41.9553620" lon="-8.8841220">
        <ele>14.8</ele>
        <time>2021-05-19T06:35:48Z</time>
      </trkpt>
      <trkpt lat="41.9553740" lon="-8.8841240">
        <ele>14.8</ele>
        <time>2021-05-19T06:35:49Z</time>
      </trkpt>
      <trkpt lat="41.9553850" lon="-8.8841260">
        <ele>14.8</ele>
        <time>2021-05-19T06:35:50Z</time>
      </trkpt>
      <trkpt lat="41.9553990" lon="-8.8841340">
        <ele>14.8</ele>
        <time>2021-05-19T06:35:51Z</time>
      </trkpt>
      <trkpt lat="41.9554170" lon="-8.8841370">
        <ele>14.8</ele>
        <time>2021-05-19T06:35:52Z</time>
      </trkpt>
      <trkpt lat="41.9554320" lon="-8.8841440">
        <ele>14.8</ele>
        <time>2021-05-19T06:35:53Z</time>
      </trkpt>
      <trkpt lat="41.9554470" lon="-8.8841440">
        <ele>14.8</ele>
        <time>2021-05-19T06:35:54Z</time>
      </trkpt>
      <trkpt lat="41.9554610" lon="-8.8841460">
        <ele>14.8</ele>
        <time>2021-05-19T06:35:55Z</time>
      </trkpt>
      <trkpt lat="41.9554700" lon="-8.8841470">
        <ele>14.8</ele>
        <time>2021-05-19T06:35:56Z</time>
      </trkpt>
      <trkpt lat="41.9554780" lon="-8.8841490">
        <ele>14.9</ele>
        <time>2021-05-19T06:35:57Z</time>
      </trkpt>
      <trkpt lat="41.9554870" lon="-8.8841500">
        <ele>14.9</ele>
        <time>2021-05-19T06:35:58Z</time>
      </trkpt>
      <trkpt lat="41.9554990" lon="-8.8841590">
        <ele>14.9</ele>
        <time>2021-05-19T06:35:59Z</time>
      </trkpt>
      <trkpt lat="41.9555160" lon="-8.8841580">
        <ele>14.9</ele>
        <time>2021-05-19T06:36:00Z</time>
      </trkpt>
      <trkpt lat="41.9555350" lon="-8.8841680">
        <ele>14.9</ele>
        <time>2021-05-19T06:36:01Z</time>
      </trkpt>
      <trkpt lat="41.9555440" lon="-8.8841710">
        <ele>14.9</ele>
        <time>2021-05-19T06:36:02Z</time>
      </trkpt>
      <trkpt lat="41.9555520" lon="-8.8841740">
        <ele>14.9</ele>
        <time>2021-05-19T06:36:03Z</time>
      </trkpt>
      <trkpt lat="41.9555600" lon="-8.8841770">
        <ele>14.9</ele>
        <time>2021-05-19T06:36:04Z</time>
      </trkpt>
      <trkpt lat="41.9555780" lon="-8.8841750">
        <ele>14.9</ele>
        <time>2021-05-19T06:36:05Z</time>
      </trkpt>
      <trkpt lat="41.9555850" lon="-8.8841790">
        <ele>14.9</ele>
        <time>2021-05-19T06:36:06Z</time>
      </trkpt>
      <trkpt lat="41.9556040" lon="-8.8841820">
        <ele>15.0</ele>
        <time>2021-05-19T06:36:07Z</time>
      </trkpt>
      <trkpt lat="41.9556120" lon="-8.8841850">
        <ele>15.0</ele>
        <time>2021-05-19T06:36:08Z</time>
      </trkpt>
      <trkpt lat="41.9556200" lon="-8.8841870">
        <ele>15.0</ele>
        <time>2021-05-19T06:36:09Z</time>
      </trkpt>
      <trkpt lat="41.9556420" lon="-8.8841920">
        <ele>15.0</ele>
        <time>2021-05-19T06:36:10Z</time>
      </trkpt>
      <trkpt lat="41.9556500" lon="-8.8841940">
        <ele>15.0</ele>
        <time>2021-05-19T06:36:11Z</time>
      </trkpt>
      <trkpt lat="41.9556580" lon="-8.8841970">
        <ele>15.0</ele>
        <time>2021-05-19T06:36:12Z</time>
      </trkpt>
      <trkpt lat="41.9556780" lon="-8.8841960">
        <ele>15.0</ele>
        <time>2021-05-19T06:36:13Z</time>
      </trkpt>
      <trkpt lat="41.9556920" lon="-8.8841980">
        <ele>15.0</ele>
        <time>2021-05-19T06:36:14Z</time>
      </trkpt>
      <trkpt lat="41.9557070" lon="-8.8841990">
        <ele>15.0</ele>
        <time>2021-05-19T06:36:15Z</time>
      </trkpt>
      <trkpt lat="41.9557190" lon="-8.8842030">
        <ele>15.1</ele>
        <time>2021-05-19T06:36:16Z</time>
      </trkpt>
      <trkpt lat="41.9557270" lon="-8.8842060">
        <ele>15.1</ele>
        <time>2021-05-19T06:36:17Z</time>
      </trkpt>
      <trkpt lat="41.9557410" lon="-8.8842040">
        <ele>15.1</ele>
        <time>2021-05-19T06:36:18Z</time>
      </trkpt>
      <trkpt lat="41.9557530" lon="-8.8842100">
        <ele>15.1</ele>
        <time>2021-05-19T06:36:19Z</time>
      </trkpt>
      <trkpt lat="41.9557600" lon="-8.8842110">
        <ele>15.1</ele>
        <time>2021-05-19T06:36:20Z</time>
      </trkpt>
      <trkpt lat="41.9557770" lon="-8.8842130">
        <ele>15.1</ele>
        <time>2021-05-19T06:36:21Z</time>
      </trkpt>
      <trkpt lat="41.9557860" lon="-8.8842160">
        <ele>15.1</ele>
        <time>2021-05-19T06:36:22Z</time>
      </trkpt>
      <trkpt lat="41.9557990" lon="-8.8842110">
        <ele>15.1</ele>
        <time>2021-05-19T06:36:23Z</time>
      </trkpt>
      <trkpt lat="41.9558160" lon="-8.8842200">
        <ele>15.1</ele>
        <time>2021-05-19T06:36:24Z</time>
      </trkpt>
      <trkpt lat="41.9558280" lon="-8.8842250">
        <ele>15.1</ele>
        <time>2021-05-19T06:36:25Z</time>
      </trkpt>
      <trkpt lat="41.9558440" lon="-8.8842280">
        <ele>15.2</ele>
        <time>2021-05-19T06:36:26Z</time>
      </trkpt>
      <trkpt lat="41.9558590" lon="-8.8842280">
        <ele>15.2</ele>
        <time>2021-05-19T06:36:27Z</time>
      </trkpt>
      <trkpt lat="41.9558670" lon="-8.8842360">
        <ele>15.2</ele>
        <time>2021-05-19T06:36:28Z</time>
      </trkpt>
      <trkpt lat="41.9558790" lon="-8.8842380">
        <ele>15.2</ele>
        <time>2021-05-19T06:36:29Z</time>
      </trkpt>
      <trkpt lat="41.9558930" lon="-8.8842330">
        <ele>15.2</ele>
        <time>2021-05-19T06:36:30Z</time>
      </trkpt>
      <trkpt lat="41.9559080" lon="-8.8842370">
        <ele>15.2</ele>
        <time>2021-05-19T06:36:31Z</time>
      </trkpt>
      <trkpt lat="41.9559250" lon="-8.8842320">
        <ele>15.2</ele>
        <time>2021-05-19T06:36:32Z</time>
      </trkpt>
      <trkpt lat="41.9559390" lon="-8.8842420">
        <ele>15.3</ele>
        <time>2021-05-19T06:36:33Z</time>
      </trkpt>
      <trkpt lat="41.9559560" lon="-8.8842410">
        <ele>15.3</ele>
        <time>2021-05-19T06:36:34Z</time>
      </trkpt>
      <trkpt lat="41.9559640" lon="-8.8842470">
        <ele>15.3</ele>
        <time>2021-05-19T06:36:35Z</time>
      </trkpt>
      <trkpt lat="41.9559740" lon="-8.8842400">
        <ele>15.3</ele>
        <time>2021-05-19T06:36:36Z</time>
      </trkpt>
      <trkpt lat="41.9559880" lon="-8.8842480">
        <ele>15.3</ele>
        <time>2021-05-19T06:36:37Z</time>
      </trkpt>
      <trkpt lat="41.9560050" lon="-8.8842530">
        <ele>15.3</ele>
        <time>2021-05-19T06:36:38Z</time>
      </trkpt>
      <trkpt lat="41.9560100" lon="-8.8842580">
        <ele>15.3</ele>
        <time>2021-05-19T06:36:39Z</time>
      </trkpt>
      <trkpt lat="41.9560270" lon="-8.8842600">
        <ele>15.4</ele>
        <time>2021-05-19T06:36:40Z</time>
      </trkpt>
      <trkpt lat="41.9560370" lon="-8.8842640">
        <ele>15.4</ele>
        <time>2021-05-19T06:36:41Z</time>
      </trkpt>
      <trkpt lat="41.9560570" lon="-8.8842670">
        <ele>15.4</ele>
        <time>2021-05-19T06:36:42Z</time>
      </trkpt>
      <trkpt lat="41.9560650" lon="-8.8842640">
        <ele>15.4</ele>
        <time>2021-05-19T06:36:43Z</time>
      </trkpt>
      <trkpt lat="41.9560770" lon="-8.8842650">
        <ele>15.4</ele>
        <time>2021-05-19T06:36:44Z</time>
      </trkpt>
      <trkpt lat="41.9560940" lon="-8.8842590">
        <ele>15.5</ele>
        <time>2021-05-19T06:36:45Z</time>
      </trkpt>
      <trkpt lat="41.9561130" lon="-8.8842690">
        <ele>15.5</ele>
        <time>2021-05-19T06:36:46Z</time>
      </trkpt>
      <trkpt lat="41.9561220" lon="-8.8842710">
        <ele>15.5</ele>
        <time>2021-05-19T06:36:47Z</time>
      </trkpt>
      <trkpt lat="41.9561300" lon="-8.8842730">
        <ele>15.5</ele>
        <time>2021-05-19T06:36:48Z</time>
      </trkpt>
      <trkpt lat="41.9561550" lon="-8.8842690">
        <ele>15.6</ele>
        <time>2021-05-19T06:36:49Z</time>
      </trkpt>
      <trkpt lat="41.9561620" lon="-8.8842770">
        <ele>15.6</ele>
        <time>2021-05-19T06:36:50Z</time>
      </trkpt>
      <trkpt lat="41.9561730" lon="-8.8842820">
        <ele>15.6</ele>
        <time>2021-05-19T06:36:51Z</time>
      </trkpt>
      <trkpt lat="41.9561810" lon="-8.8842780">
        <ele>15.6</ele>
        <time>2021-05-19T06:36:52Z</time>
      </trkpt>
      <trkpt lat="41.9561950" lon="-8.8842860">
        <ele>15.7</ele>
        <time>2021-05-19T06:36:53Z</time>
      </trkpt>
      <trkpt lat="41.9562170" lon="-8.8842930">
        <ele>15.7</ele>
        <time>2021-05-19T06:36:54Z</time>
      </trkpt>
      <trkpt lat="41.9562270" lon="-8.8842960">
        <ele>15.7</ele>
        <time>2021-05-19T06:36:55Z</time>
      </trkpt>
      <trkpt lat="41.9562360" lon="-8.8842980">
        <ele>15.8</ele>
        <time>2021-05-19T06:36:56Z</time>
      </trkpt>
      <trkpt lat="41.9562480" lon="-8.8842980">
        <ele>15.8</ele>
        <time>2021-05-19T06:36:57Z</time>
      </trkpt>
      <trkpt lat="41.9562630" lon="-8.8843050">
        <ele>15.8</ele>
        <time>2021-05-19T06:36:58Z</time>
      </trkpt>
      <trkpt lat="41.9562770" lon="-8.8842990">
        <ele>15.9</ele>
        <time>2021-05-19T06:36:59Z</time>
      </trkpt>
      <trkpt lat="41.9562890" lon="-8.8842980">
        <ele>15.9</ele>
        <time>2021-05-19T06:37:00Z</time>
      </trkpt>
      <trkpt lat="41.9562990" lon="-8.8843010">
        <ele>15.9</ele>
        <time>2021-05-19T06:37:01Z</time>
      </trkpt>
      <trkpt lat="41.9563210" lon="-8.8843020">
        <ele>16.0</ele>
        <time>2021-05-19T06:37:02Z</time>
      </trkpt>
      <trkpt lat="41.9563290" lon="-8.8843030">
        <ele>16.0</ele>
        <time>2021-05-19T06:37:03Z</time>
      </trkpt>
      <trkpt lat="41.9563380" lon="-8.8843050">
        <ele>16.0</ele>
        <time>2021-05-19T06:37:04Z</time>
      </trkpt>
      <trkpt lat="41.9563590" lon="-8.8843090">
        <ele>16.1</ele>
        <time>2021-05-19T06:37:05Z</time>
      </trkpt>
      <trkpt lat="41.9563680" lon="-8.8843070">
        <ele>16.1</ele>
        <time>2021-05-19T06:37:06Z</time>
      </trkpt>
      <trkpt lat="41.9563760" lon="-8.8843050">
        <ele>16.2</ele>
        <time>2021-05-19T06:37:07Z</time>
      </trkpt>
      <trkpt lat="41.9563930" lon="-8.8843120">
        <ele>16.2</ele>
        <time>2021-05-19T06:37:08Z</time>
      </trkpt>
      <trkpt lat="41.9564040" lon="-8.8843170">
        <ele>16.3</ele>
        <time>2021-05-19T06:37:09Z</time>
      </trkpt>
      <trkpt lat="41.9564120" lon="-8.8843220">
        <ele>16.3</ele>
        <time>2021-05-19T06:37:10Z</time>
      </trkpt>
      <trkpt lat="41.9564280" lon="-8.8843300">
        <ele>16.4</ele>
        <time>2021-05-19T06:37:11Z</time>
      </trkpt>
      <trkpt lat="41.9564370" lon="-8.8843300">
        <ele>16.4</ele>
        <time>2021-05-19T06:37:12Z</time>
      </trkpt>
      <trkpt lat="41.9564570" lon="-8.8843220">
        <ele>16.5</ele>
        <time>2021-05-19T06:37:13Z</time>
      </trkpt>
      <trkpt lat="41.9564660" lon="-8.8843220">
        <ele>16.6</ele>
        <time>2021-05-19T06:37:14Z</time>
      </trkpt>
      <trkpt lat="41.9564750" lon="-8.8843210">
        <ele>16.6</ele>
        <time>2021-05-19T06:37:15Z</time>
      </trkpt>
      <trkpt lat="41.9564920" lon="-8.8843290">
        <ele>16.7</ele>
        <time>2021-05-19T06:37:16Z</time>
      </trkpt>
      <trkpt lat="41.9565030" lon="-8.8843330">
        <ele>16.7</ele>
        <time>2021-05-19T06:37:17Z</time>
      </trkpt>
      <trkpt lat="41.9565130" lon="-8.8843350">
        <ele>16.8</ele>
        <time>2021-05-19T06:37:18Z</time>
      </trkpt>
      <trkpt lat="41.9565250" lon="-8.8843340">
        <ele>16.8</ele>
        <time>2021-05-19T06:37:19Z</time>
      </trkpt>
      <trkpt lat="41.9565360" lon="-8.8843350">
        <ele>16.9</ele>
        <time>2021-05-19T06:37:20Z</time>
      </trkpt>
      <trkpt lat="41.9565510" lon="-8.8843440">
        <ele>17.0</ele>
        <time>2021-05-19T06:37:21Z</time>
      </trkpt>
      <trkpt lat="41.9565620" lon="-8.8843510">
        <ele>17.0</ele>
        <time>2021-05-19T06:37:22Z</time>
      </trkpt>
      <trkpt lat="41.9565710" lon="-8.8843540">
        <ele>17.1</ele>
        <time>2021-05-19T06:37:23Z</time>
      </trkpt>
      <trkpt lat="41.9565800" lon="-8.8843520">
        <ele>17.1</ele>
        <time>2021-05-19T06:37:24Z</time>
      </trkpt>
      <trkpt lat="41.9565910" lon="-8.8843500">
        <ele>17.2</ele>
        <time>2021-05-19T06:37:25Z</time>
      </trkpt>
      <trkpt lat="41.9566010" lon="-8.8843470">
        <ele>17.2</ele>
        <time>2021-05-19T06:37:26Z</time>
      </trkpt>
      <trkpt lat="41.9566140" lon="-8.8843440">
        <ele>17.3</ele>
        <time>2021-05-19T06:37:27Z</time>
      </trkpt>
      <trkpt lat="41.9566230" lon="-8.8843460">
        <ele>17.3</ele>
        <time>2021-05-19T06:37:28Z</time>
      </trkpt>
      <trkpt lat="41.9566300" lon="-8.8843490">
        <ele>17.4</ele>
        <time>2021-05-19T06:37:29Z</time>
      </trkpt>
      <trkpt lat="41.9566430" lon="-8.8843480">
        <ele>17.4</ele>
        <time>2021-05-19T06:37:30Z</time>
      </trkpt>
      <trkpt lat="41.9566550" lon="-8.8843500">
        <ele>17.5</ele>
        <time>2021-05-19T06:37:31Z</time>
      </trkpt>
      <trkpt lat="41.9566630" lon="-8.8843520">
        <ele>17.5</ele>
        <time>2021-05-19T06:37:32Z</time>
      </trkpt>
      <trkpt lat="41.9566770" lon="-8.8843520">
        <ele>17.6</ele>
        <time>2021-05-19T06:37:33Z</time>
      </trkpt>
      <trkpt lat="41.9566900" lon="-8.8843500">
        <ele>17.7</ele>
        <time>2021-05-19T06:37:34Z</time>
      </trkpt>
      <trkpt lat="41.9567030" lon="-8.8843500">
        <ele>17.8</ele>
        <time>2021-05-19T06:37:35Z</time>
      </trkpt>
      <trkpt lat="41.9567170" lon="-8.8843520">
        <ele>17.9</ele>
        <time>2021-05-19T06:37:36Z</time>
      </trkpt>
      <trkpt lat="41.9567350" lon="-8.8843540">
        <ele>18.0</ele>
        <time>2021-05-19T06:37:37Z</time>
      </trkpt>
      <trkpt lat="41.9567450" lon="-8.8843560">
        <ele>18.0</ele>
        <time>2021-05-19T06:37:38Z</time>
      </trkpt>
      <trkpt lat="41.9567540" lon="-8.8843570">
        <ele>18.1</ele>
        <time>2021-05-19T06:37:39Z</time>
      </trkpt>
      <trkpt lat="41.9567660" lon="-8.8843560">
        <ele>18.1</ele>
        <time>2021-05-19T06:37:40Z</time>
      </trkpt>
      <trkpt lat="41.9567830" lon="-8.8843550">
        <ele>18.2</ele>
        <time>2021-05-19T06:37:41Z</time>
      </trkpt>
      <trkpt lat="41.9567930" lon="-8.8843520">
        <ele>18.3</ele>
        <time>2021-05-19T06:37:42Z</time>
      </trkpt>
      <trkpt lat="41.9568070" lon="-8.8843550">
        <ele>18.4</ele>
        <time>2021-05-19T06:37:43Z</time>
      </trkpt>
      <trkpt lat="41.9568150" lon="-8.8843570">
        <ele>18.4</ele>
        <time>2021-05-19T06:37:44Z</time>
      </trkpt>
      <trkpt lat="41.9568300" lon="-8.8843550">
        <ele>18.5</ele>
        <time>2021-05-19T06:37:45Z</time>
      </trkpt>
      <trkpt lat="41.9568430" lon="-8.8843500">
        <ele>18.6</ele>
        <time>2021-05-19T06:37:46Z</time>
      </trkpt>
      <trkpt lat="41.9568560" lon="-8.8843540">
        <ele>18.7</ele>
        <time>2021-05-19T06:37:47Z</time>
      </trkpt>
      <trkpt lat="41.9568670" lon="-8.8843560">
        <ele>18.8</ele>
        <time>2021-05-19T06:37:48Z</time>
      </trkpt>
      <trkpt lat="41.9568730" lon="-8.8843550">
        <ele>18.8</ele>
        <time>2021-05-19T06:37:49Z</time>
      </trkpt>
      <trkpt lat="41.9568790" lon="-8.8843540">
        <ele>18.8</ele>
        <time>2021-05-19T06:37:50Z</time>
      </trkpt>
      <trkpt lat="41.9568910" lon="-8.8843540">
        <ele>18.9</ele>
        <time>2021-05-19T06:37:51Z</time>
      </trkpt>
      <trkpt lat="41.9568970" lon="-8.8843580">
        <ele>18.9</ele>
        <time>2021-05-19T06:37:52Z</time>
      </trkpt>
      <trkpt lat="41.9569030" lon="-8.8843580">
        <ele>19.0</ele>
        <time>2021-05-19T06:37:53Z</time>
      </trkpt>
      <trkpt lat="41.9569140" lon="-8.8843560">
        <ele>19.0</ele>
        <time>2021-05-19T06:37:54Z</time>
      </trkpt>
      <trkpt lat="41.9569230" lon="-8.8843590">
        <ele>19.1</ele>
        <time>2021-05-19T06:37:55Z</time>
      </trkpt>
      <trkpt lat="41.9569250" lon="-8.8843610">
        <ele>19.1</ele>
        <time>2021-05-19T06:37:56Z</time>
      </trkpt>
      <trkpt lat="41.9569340" lon="-8.8843550">
        <ele>19.2</ele>
        <time>2021-05-19T06:37:57Z</time>
      </trkpt>
      <trkpt lat="41.9569490" lon="-8.8843550">
        <ele>19.3</ele>
        <time>2021-05-19T06:37:58Z</time>
      </trkpt>
      <trkpt lat="41.9569570" lon="-8.8843560">
        <ele>19.3</ele>
        <time>2021-05-19T06:37:59Z</time>
      </trkpt>
      <trkpt lat="41.9569660" lon="-8.8843640">
        <ele>19.4</ele>
        <time>2021-05-19T06:38:00Z</time>
      </trkpt>
      <trkpt lat="41.9569810" lon="-8.8843700">
        <ele>19.4</ele>
        <time>2021-05-19T06:38:01Z</time>
      </trkpt>
      <trkpt lat="41.9569930" lon="-8.8843680">
        <ele>19.5</ele>
        <time>2021-05-19T06:38:02Z</time>
      </trkpt>
      <trkpt lat="41.9570020" lon="-8.8843660">
        <ele>19.5</ele>
        <time>2021-05-19T06:38:03Z</time>
      </trkpt>
      <trkpt lat="41.9570120" lon="-8.8843690">
        <ele>19.6</ele>
        <time>2021-05-19T06:38:04Z</time>
      </trkpt>
      <trkpt lat="41.9570250" lon="-8.8843710">
        <ele>19.7</ele>
        <time>2021-05-19T06:38:05Z</time>
      </trkpt>
      <trkpt lat="41.9570360" lon="-8.8843690">
        <ele>19.7</ele>
        <time>2021-05-19T06:38:06Z</time>
      </trkpt>
      <trkpt lat="41.9570490" lon="-8.8843680">
        <ele>19.8</ele>
        <time>2021-05-19T06:38:07Z</time>
      </trkpt>
      <trkpt lat="41.9570500" lon="-8.8843740">
        <ele>19.8</ele>
        <time>2021-05-19T06:38:08Z</time>
      </trkpt>
      <trkpt lat="41.9570570" lon="-8.8843780">
        <ele>19.9</ele>
        <time>2021-05-19T06:38:09Z</time>
      </trkpt>
      <trkpt lat="41.9570640" lon="-8.8843770">
        <ele>19.9</ele>
        <time>2021-05-19T06:38:10Z</time>
      </trkpt>
      <trkpt lat="41.9570790" lon="-8.8843800">
        <ele>20.0</ele>
        <time>2021-05-19T06:38:11Z</time>
      </trkpt>
      <trkpt lat="41.9570900" lon="-8.8843820">
        <ele>20.1</ele>
        <time>2021-05-19T06:38:12Z</time>
      </trkpt>
      <trkpt lat="41.9571010" lon="-8.8843800">
        <ele>20.2</ele>
        <time>2021-05-19T06:38:13Z</time>
      </trkpt>
      <trkpt lat="41.9570980" lon="-8.8843750">
        <ele>20.2</ele>
        <time>2021-05-19T06:38:14Z</time>
      </trkpt>
      <trkpt lat="41.9571040" lon="-8.8843760">
        <ele>20.2</ele>
        <time>2021-05-19T06:38:15Z</time>
      </trkpt>
      <trkpt lat="41.9571070" lon="-8.8843790">
        <ele>20.3</ele>
        <time>2021-05-19T06:38:16Z</time>
      </trkpt>
      <trkpt lat="41.9571140" lon="-8.8843780">
        <ele>20.3</ele>
        <time>2021-05-19T06:38:17Z</time>
      </trkpt>
      <trkpt lat="41.9571110" lon="-8.8843710">
        <ele>20.3</ele>
        <time>2021-05-19T06:38:18Z</time>
      </trkpt>
      <trkpt lat="41.9571110" lon="-8.8843730">
        <ele>20.4</ele>
        <time>2021-05-19T06:38:19Z</time>
      </trkpt>
      <trkpt lat="41.9571120" lon="-8.8843690">
        <ele>20.4</ele>
        <time>2021-05-19T06:38:20Z</time>
      </trkpt>
      <trkpt lat="41.9571160" lon="-8.8843680">
        <ele>20.4</ele>
        <time>2021-05-19T06:38:21Z</time>
      </trkpt>
      <trkpt lat="41.9571200" lon="-8.8843570">
        <ele>20.5</ele>
        <time>2021-05-19T06:38:22Z</time>
      </trkpt>
      <trkpt lat="41.9571220" lon="-8.8843620">
        <ele>20.5</ele>
        <time>2021-05-19T06:38:23Z</time>
      </trkpt>
      <trkpt lat="41.9571210" lon="-8.8843640">
        <ele>20.5</ele>
        <time>2021-05-19T06:38:24Z</time>
      </trkpt>
      <trkpt lat="41.9571260" lon="-8.8843620">
        <ele>20.5</ele>
        <time>2021-05-19T06:38:25Z</time>
      </trkpt>
      <trkpt lat="41.9571440" lon="-8.8843700">
        <ele>20.7</ele>
        <time>2021-05-19T06:38:26Z</time>
      </trkpt>
      <trkpt lat="41.9571640" lon="-8.8843740">
        <ele>20.8</ele>
        <time>2021-05-19T06:38:27Z</time>
      </trkpt>
      <trkpt lat="41.9571710" lon="-8.8843700">
        <ele>20.9</ele>
        <time>2021-05-19T06:38:28Z</time>
      </trkpt>
      <trkpt lat="41.9571770" lon="-8.8843740">
        <ele>20.9</ele>
        <time>2021-05-19T06:38:29Z</time>
      </trkpt>
      <trkpt lat="41.9571990" lon="-8.8843770">
        <ele>21.0</ele>
        <time>2021-05-19T06:38:30Z</time>
      </trkpt>
      <trkpt lat="41.9572140" lon="-8.8843800">
        <ele>21.1</ele>
        <time>2021-05-19T06:38:31Z</time>
      </trkpt>
      <trkpt lat="41.9572300" lon="-8.8843820">
        <ele>21.3</ele>
        <time>2021-05-19T06:38:32Z</time>
      </trkpt>
      <trkpt lat="41.9572440" lon="-8.8843830">
        <ele>21.3</ele>
        <time>2021-05-19T06:38:33Z</time>
      </trkpt>
      <trkpt lat="41.9572610" lon="-8.8843820">
        <ele>21.4</ele>
        <time>2021-05-19T06:38:34Z</time>
      </trkpt>
      <trkpt lat="41.9572720" lon="-8.8843840">
        <ele>21.5</ele>
        <time>2021-05-19T06:38:35Z</time>
      </trkpt>
      <trkpt lat="41.9572760" lon="-8.8843880">
        <ele>21.5</ele>
        <time>2021-05-19T06:38:36Z</time>
      </trkpt>
      <trkpt lat="41.9572910" lon="-8.8843870">
        <ele>21.6</ele>
        <time>2021-05-19T06:38:37Z</time>
      </trkpt>
      <trkpt lat="41.9573170" lon="-8.8843800">
        <ele>21.8</ele>
        <time>2021-05-19T06:38:38Z</time>
      </trkpt>
      <trkpt lat="41.9573270" lon="-8.8843790">
        <ele>21.9</ele>
        <time>2021-05-19T06:38:39Z</time>
      </trkpt>
      <trkpt lat="41.9573370" lon="-8.8843770">
        <ele>21.9</ele>
        <time>2021-05-19T06:38:40Z</time>
      </trkpt>
      <trkpt lat="41.9573680" lon="-8.8843830">
        <ele>22.0</ele>
        <time>2021-05-19T06:38:41Z</time>
      </trkpt>
      <trkpt lat="41.9573830" lon="-8.8843880">
        <ele>22.1</ele>
        <time>2021-05-19T06:38:42Z</time>
      </trkpt>
      <trkpt lat="41.9573950" lon="-8.8843970">
        <ele>22.1</ele>
        <time>2021-05-19T06:38:43Z</time>
      </trkpt>
      <trkpt lat="41.9574110" lon="-8.8844120">
        <ele>22.1</ele>
        <time>2021-05-19T06:38:44Z</time>
      </trkpt>
      <trkpt lat="41.9574220" lon="-8.8844160">
        <ele>22.2</ele>
        <time>2021-05-19T06:38:45Z</time>
      </trkpt>
      <trkpt lat="41.9574380" lon="-8.8844190">
        <ele>22.2</ele>
        <time>2021-05-19T06:38:46Z</time>
      </trkpt>
      <trkpt lat="41.9574570" lon="-8.8844130">
        <ele>22.3</ele>
        <time>2021-05-19T06:38:47Z</time>
      </trkpt>
      <trkpt lat="41.9574730" lon="-8.8844120">
        <ele>22.3</ele>
        <time>2021-05-19T06:38:48Z</time>
      </trkpt>
      <trkpt lat="41.9574900" lon="-8.8844120">
        <ele>22.4</ele>
        <time>2021-05-19T06:38:49Z</time>
      </trkpt>
      <trkpt lat="41.9574960" lon="-8.8844100">
        <ele>22.4</ele>
        <time>2021-05-19T06:38:50Z</time>
      </trkpt>
      <trkpt lat="41.9575030" lon="-8.8844080">
        <ele>22.4</ele>
        <time>2021-05-19T06:38:51Z</time>
      </trkpt>
      <trkpt lat="41.9575090" lon="-8.8844060">
        <ele>22.4</ele>
        <time>2021-05-19T06:38:52Z</time>
      </trkpt>
      <trkpt lat="41.9575270" lon="-8.8844060">
        <ele>22.5</ele>
        <time>2021-05-19T06:38:53Z</time>
      </trkpt>
      <trkpt lat="41.9575390" lon="-8.8844070">
        <ele>22.5</ele>
        <time>2021-05-19T06:38:54Z</time>
      </trkpt>
      <trkpt lat="41.9575520" lon="-8.8844100">
        <ele>22.6</ele>
        <time>2021-05-19T06:38:55Z</time>
      </trkpt>
      <trkpt lat="41.9575580" lon="-8.8844030">
        <ele>22.6</ele>
        <time>2021-05-19T06:38:56Z</time>
      </trkpt>
      <trkpt lat="41.9575660" lon="-8.8843990">
        <ele>22.6</ele>
        <time>2021-05-19T06:38:57Z</time>
      </trkpt>
      <trkpt lat="41.9575830" lon="-8.8844000">
        <ele>22.7</ele>
        <time>2021-05-19T06:38:58Z</time>
      </trkpt>
      <trkpt lat="41.9575920" lon="-8.8844000">
        <ele>22.7</ele>
        <time>2021-05-19T06:38:59Z</time>
      </trkpt>
      <trkpt lat="41.9576000" lon="-8.8843990">
        <ele>22.7</ele>
        <time>2021-05-19T06:39:00Z</time>
      </trkpt>
      <trkpt lat="41.9576090" lon="-8.8843980">
        <ele>22.7</ele>
        <time>2021-05-19T06:39:01Z</time>
      </trkpt>
      <trkpt lat="41.9576200" lon="-8.8843930">
        <ele>22.8</ele>
        <time>2021-05-19T06:39:02Z</time>
      </trkpt>
      <trkpt lat="41.9576280" lon="-8.8843930">
        <ele>22.8</ele>
        <time>2021-05-19T06:39:03Z</time>
      </trkpt>
      <trkpt lat="41.9576260" lon="-8.8843840">
        <ele>22.8</ele>
        <time>2021-05-19T06:39:04Z</time>
      </trkpt>
      <trkpt lat="41.9576220" lon="-8.8843790">
        <ele>22.8</ele>
        <time>2021-05-19T06:39:05Z</time>
      </trkpt>
      <trkpt lat="41.9576200" lon="-8.8843740">
        <ele>22.8</ele>
        <time>2021-05-19T06:39:06Z</time>
      </trkpt>
      <trkpt lat="41.9576160" lon="-8.8843670">
        <ele>22.8</ele>
        <time>2021-05-19T06:39:07Z</time>
      </trkpt>
      <trkpt lat="41.9576090" lon="-8.8843580">
        <ele>22.9</ele>
        <time>2021-05-19T06:39:08Z</time>
      </trkpt>
      <trkpt lat="41.9576040" lon="-8.8843530">
        <ele>22.9</ele>
        <time>2021-05-19T06:39:09Z</time>
      </trkpt>
      <trkpt lat="41.9575990" lon="-8.8843450">
        <ele>22.9</ele>
        <time>2021-05-19T06:39:10Z</time>
      </trkpt>
      <trkpt lat="41.9575950" lon="-8.8843390">
        <ele>22.9</ele>
        <time>2021-05-19T06:39:11Z</time>
      </trkpt>
      <trkpt lat="41.9575930" lon="-8.8843360">
        <ele>22.9</ele>
        <time>2021-05-19T06:39:12Z</time>
      </trkpt>
      <trkpt lat="41.9575880" lon="-8.8843320">
        <ele>23.0</ele>
        <time>2021-05-19T06:39:13Z</time>
      </trkpt>
      <trkpt lat="41.9575880" lon="-8.8843260">
        <ele>23.0</ele>
        <time>2021-05-19T06:39:14Z</time>
      </trkpt>
      <trkpt lat="41.9575900" lon="-8.8843250">
        <ele>23.0</ele>
        <time>2021-05-19T06:39:15Z</time>
      </trkpt>
      <trkpt lat="41.9575890" lon="-8.8843220">
        <ele>23.0</ele>
        <time>2021-05-19T06:39:16Z</time>
      </trkpt>
      <trkpt lat="41.9575840" lon="-8.8843190">
        <ele>23.0</ele>
        <time>2021-05-19T06:39:17Z</time>
      </trkpt>
      <trkpt lat="41.9575700" lon="-8.8843140">
        <ele>23.0</ele>
        <time>2021-05-19T06:39:18Z</time>
      </trkpt>
      <trkpt lat="41.9575660" lon="-8.8843130">
        <ele>23.1</ele>
        <time>2021-05-19T06:39:19Z</time>
      </trkpt>
      <trkpt lat="41.9575640" lon="-8.8843060">
        <ele>23.1</ele>
        <time>2021-05-19T06:39:20Z</time>
      </trkpt>
      <trkpt lat="41.9575660" lon="-8.8843030">
        <ele>23.1</ele>
        <time>2021-05-19T06:39:21Z</time>
      </trkpt>
      <trkpt lat="41.9575650" lon="-8.8843030">
        <ele>23.1</ele>
        <time>2021-05-19T06:39:22Z</time>
      </trkpt>
      <trkpt lat="41.9575670" lon="-8.8842980">
        <ele>23.1</ele>
        <time>2021-05-19T06:39:23Z</time>
      </trkpt>
      <trkpt lat="41.9575680" lon="-8.8842930">
        <ele>23.1</ele>
        <time>2021-05-19T06:39:24Z</time>
      </trkpt>
      <trkpt lat="41.9575760" lon="-8.8842920">
        <ele>23.1</ele>
        <time>2021-05-19T06:39:25Z</time>
      </trkpt>
      <trkpt lat="41.9575800" lon="-8.8842920">
        <ele>23.1</ele>
        <time>2021-05-19T06:39:26Z</time>
      </trkpt>
      <trkpt lat="41.9575830" lon="-8.8842890">
        <ele>23.1</ele>
        <time>2021-05-19T06:39:27Z</time>
      </trkpt>
      <trkpt lat="41.9575830" lon="-8.8842890">
        <ele>23.1</ele>
        <time>2021-05-19T06:39:28Z</time>
      </trkpt>
      <trkpt lat="41.9575960" lon="-8.8842890">
        <ele>23.2</ele>
        <time>2021-05-19T06:39:29Z</time>
      </trkpt>
      <trkpt lat="41.9576060" lon="-8.8842650">
        <ele>23.2</ele>
        <time>2021-05-19T06:39:30Z</time>
      </trkpt>
      <trkpt lat="41.9576010" lon="-8.8842530">
        <ele>23.3</ele>
        <time>2021-05-19T06:39:31Z</time>
      </trkpt>
      <trkpt lat="41.9576010" lon="-8.8842390">
        <ele>23.3</ele>
        <time>2021-05-19T06:39:32Z</time>
      </trkpt>
      <trkpt lat="41.9576000" lon="-8.8842360">
        <ele>23.3</ele>
        <time>2021-05-19T06:39:33Z</time>
      </trkpt>
      <trkpt lat="41.9575990" lon="-8.8842330">
        <ele>23.3</ele>
        <time>2021-05-19T06:39:34Z</time>
      </trkpt>
      <trkpt lat="41.9575970" lon="-8.8842300">
        <ele>23.3</ele>
        <time>2021-05-19T06:39:35Z</time>
      </trkpt>
      <trkpt lat="41.9575960" lon="-8.8842270">
        <ele>23.3</ele>
        <time>2021-05-19T06:39:36Z</time>
      </trkpt>
      <trkpt lat="41.9575950" lon="-8.8842240">
        <ele>23.3</ele>
        <time>2021-05-19T06:39:37Z</time>
      </trkpt>
      <trkpt lat="41.9575940" lon="-8.8842220">
        <ele>23.3</ele>
        <time>2021-05-19T06:39:38Z</time>
      </trkpt>
      <trkpt lat="41.9575930" lon="-8.8842190">
        <ele>23.4</ele>
        <time>2021-05-19T06:39:39Z</time>
      </trkpt>
      <trkpt lat="41.9575920" lon="-8.8842160">
        <ele>23.4</ele>
        <time>2021-05-19T06:39:40Z</time>
      </trkpt>
      <trkpt lat="41.9575910" lon="-8.8842130">
        <ele>23.4</ele>
        <time>2021-05-19T06:39:41Z</time>
      </trkpt>
      <trkpt lat="41.9575890" lon="-8.8842100">
        <ele>23.4</ele>
        <time>2021-05-19T06:39:42Z</time>
      </trkpt>
      <trkpt lat="41.9575880" lon="-8.8842070">
        <ele>23.4</ele>
        <time>2021-05-19T06:39:43Z</time>
      </trkpt>
      <trkpt lat="41.9575870" lon="-8.8842040">
        <ele>23.4</ele>
        <time>2021-05-19T06:39:44Z</time>
      </trkpt>
      <trkpt lat="41.9575860" lon="-8.8842010">
        <ele>23.4</ele>
        <time>2021-05-19T06:39:45Z</time>
      </trkpt>
      <trkpt lat="41.9575850" lon="-8.8841980">
        <ele>23.4</ele>
        <time>2021-05-19T06:39:46Z</time>
      </trkpt>
      <trkpt lat="41.9575840" lon="-8.8841950">
        <ele>23.4</ele>
        <time>2021-05-19T06:39:47Z</time>
      </trkpt>
      <trkpt lat="41.9575820" lon="-8.8841920">
        <ele>23.4</ele>
        <time>2021-05-19T06:39:48Z</time>
      </trkpt>
      <trkpt lat="41.9575810" lon="-8.8841890">
        <ele>23.4</ele>
        <time>2021-05-19T06:39:49Z</time>
      </trkpt>
      <trkpt lat="41.9575800" lon="-8.8841860">
        <ele>23.4</ele>
        <time>2021-05-19T06:39:50Z</time>
      </trkpt>
      <trkpt lat="41.9575790" lon="-8.8841830">
        <ele>23.4</ele>
        <time>2021-05-19T06:39:51Z</time>
      </trkpt>
      <trkpt lat="41.9575780" lon="-8.8841810">
        <ele>23.4</ele>
        <time>2021-05-19T06:39:52Z</time>
      </trkpt>
      <trkpt lat="41.9575770" lon="-8.8841780">
        <ele>23.5</ele>
        <time>2021-05-19T06:39:53Z</time>
      </trkpt>
      <trkpt lat="41.9575760" lon="-8.8841750">
        <ele>23.5</ele>
        <time>2021-05-19T06:39:54Z</time>
      </trkpt>
      <trkpt lat="41.9575740" lon="-8.8841720">
        <ele>23.5</ele>
        <time>2021-05-19T06:39:55Z</time>
      </trkpt>
      <trkpt lat="41.9575730" lon="-8.8841690">
        <ele>23.5</ele>
        <time>2021-05-19T06:39:56Z</time>
      </trkpt>
      <trkpt lat="41.9575720" lon="-8.8841660">
        <ele>23.5</ele>
        <time>2021-05-19T06:39:57Z</time>
      </trkpt>
      <trkpt lat="41.9575710" lon="-8.8841630">
        <ele>23.5</ele>
        <time>2021-05-19T06:39:58Z</time>
      </trkpt>
      <trkpt lat="41.9575700" lon="-8.8841620">
        <ele>23.5</ele>
        <time>2021-05-19T06:39:59Z</time>
      </trkpt>
      <trkpt lat="41.9575720" lon="-8.8841600">
        <ele>23.5</ele>
        <time>2021-05-19T06:40:00Z</time>
      </trkpt>
      <trkpt lat="41.9575750" lon="-8.8841630">
        <ele>23.5</ele>
        <time>2021-05-19T06:40:01Z</time>
      </trkpt>
      <trkpt lat="41.9575760" lon="-8.8841750">
        <ele>23.5</ele>
        <time>2021-05-19T06:40:02Z</time>
      </trkpt>
      <trkpt lat="41.9575750" lon="-8.8841770">
        <ele>23.6</ele>
        <time>2021-05-19T06:40:03Z</time>
      </trkpt>
      <trkpt lat="41.9575760" lon="-8.8841820">
        <ele>23.6</ele>
        <time>2021-05-19T06:40:04Z</time>
      </trkpt>
      <trkpt lat="41.9575800" lon="-8.8841900">
        <ele>23.6</ele>
        <time>2021-05-19T06:40:05Z</time>
      </trkpt>
      <trkpt lat="41.9575870" lon="-8.8842020">
        <ele>23.6</ele>
        <time>2021-05-19T06:40:06Z</time>
      </trkpt>
      <trkpt lat="41.9575920" lon="-8.8842070">
        <ele>23.6</ele>
        <time>2021-05-19T06:40:07Z</time>
      </trkpt>
      <trkpt lat="41.9575940" lon="-8.8842110">
        <ele>23.7</ele>
        <time>2021-05-19T06:40:08Z</time>
      </trkpt>
      <trkpt lat="41.9575950" lon="-8.8842190">
        <ele>23.7</ele>
        <time>2021-05-19T06:40:09Z</time>
      </trkpt>
      <trkpt lat="41.9575980" lon="-8.8842230">
        <ele>23.7</ele>
        <time>2021-05-19T06:40:10Z</time>
      </trkpt>
      <trkpt lat="41.9576070" lon="-8.8842310">
        <ele>23.7</ele>
        <time>2021-05-19T06:40:11Z</time>
      </trkpt>
      <trkpt lat="41.9576100" lon="-8.8842400">
        <ele>23.7</ele>
        <time>2021-05-19T06:40:12Z</time>
      </trkpt>
      <trkpt lat="41.9576130" lon="-8.8842460">
        <ele>23.8</ele>
        <time>2021-05-19T06:40:13Z</time>
      </trkpt>
      <trkpt lat="41.9576220" lon="-8.8842550">
        <ele>23.8</ele>
        <time>2021-05-19T06:40:14Z</time>
      </trkpt>
      <trkpt lat="41.9576300" lon="-8.8842590">
        <ele>23.8</ele>
        <time>2021-05-19T06:40:15Z</time>
      </trkpt>
      <trkpt lat="41.9576350" lon="-8.8842660">
        <ele>23.8</ele>
        <time>2021-05-19T06:40:16Z</time>
      </trkpt>
      <trkpt lat="41.9576380" lon="-8.8842710">
        <ele>23.9</ele>
        <time>2021-05-19T06:40:17Z</time>
      </trkpt>
      <trkpt lat="41.9576440" lon="-8.8842760">
        <ele>23.9</ele>
        <time>2021-05-19T06:40:18Z</time>
      </trkpt>
      <trkpt lat="41.9576440" lon="-8.8842760">
        <ele>23.9</ele>
        <time>2021-05-19T06:40:19Z</time>
      </trkpt>
      <trkpt lat="41.9576440" lon="-8.8842760">
        <ele>23.9</ele>
        <time>2021-05-19T06:40:20Z</time>
      </trkpt>
      <trkpt lat="41.9576570" lon="-8.8842820">
        <ele>23.9</ele>
        <time>2021-05-19T06:40:21Z</time>
      </trkpt>
      <trkpt lat="41.9576580" lon="-8.8842790">
        <ele>23.9</ele>
        <time>2021-05-19T06:40:22Z</time>
      </trkpt>
      <trkpt lat="41.9576640" lon="-8.8842760">
        <ele>24.0</ele>
        <time>2021-05-19T06:40:23Z</time>
      </trkpt>
      <trkpt lat="41.9576680" lon="-8.8842750">
        <ele>24.0</ele>
        <time>2021-05-19T06:40:24Z</time>
      </trkpt>
      <trkpt lat="41.9576740" lon="-8.8842740">
        <ele>24.0</ele>
        <time>2021-05-19T06:40:25Z</time>
      </trkpt>
      <trkpt lat="41.9576660" lon="-8.8842770">
        <ele>24.0</ele>
        <time>2021-05-19T06:40:26Z</time>
      </trkpt>
      <trkpt lat="41.9576610" lon="-8.8842850">
        <ele>24.0</ele>
        <time>2021-05-19T06:40:27Z</time>
      </trkpt>
      <trkpt lat="41.9576460" lon="-8.8842880">
        <ele>24.1</ele>
        <time>2021-05-19T06:40:28Z</time>
      </trkpt>
      <trkpt lat="41.9576430" lon="-8.8842900">
        <ele>24.1</ele>
        <time>2021-05-19T06:40:29Z</time>
      </trkpt>
      <trkpt lat="41.9576410" lon="-8.8842920">
        <ele>24.1</ele>
        <time>2021-05-19T06:40:30Z</time>
      </trkpt>
      <trkpt lat="41.9576410" lon="-8.8842970">
        <ele>24.1</ele>
        <time>2021-05-19T06:40:31Z</time>
      </trkpt>
      <trkpt lat="41.9576390" lon="-8.8843000">
        <ele>24.1</ele>
        <time>2021-05-19T06:40:32Z</time>
      </trkpt>
      <trkpt lat="41.9576380" lon="-8.8843040">
        <ele>24.1</ele>
        <time>2021-05-19T06:40:33Z</time>
      </trkpt>
      <trkpt lat="41.9576340" lon="-8.8843090">
        <ele>24.2</ele>
        <time>2021-05-19T06:40:34Z</time>
      </trkpt>
      <trkpt lat="41.9576310" lon="-8.8843150">
        <ele>24.2</ele>
        <time>2021-05-19T06:40:35Z</time>
      </trkpt>
      <trkpt lat="41.9576230" lon="-8.8843200">
        <ele>24.2</ele>
        <time>2021-05-19T06:40:36Z</time>
      </trkpt>
      <trkpt lat="41.9576210" lon="-8.8843250">
        <ele>24.2</ele>
        <time>2021-05-19T06:40:37Z</time>
      </trkpt>
      <trkpt lat="41.9576190" lon="-8.8843280">
        <ele>24.2</ele>
        <time>2021-05-19T06:40:38Z</time>
      </trkpt>
      <trkpt lat="41.9576130" lon="-8.8843330">
        <ele>24.3</ele>
        <time>2021-05-19T06:40:39Z</time>
      </trkpt>
      <trkpt lat="41.9576020" lon="-8.8843410">
        <ele>24.3</ele>
        <time>2021-05-19T06:40:40Z</time>
      </trkpt>
      <trkpt lat="41.9575990" lon="-8.8843480">
        <ele>24.3</ele>
        <time>2021-05-19T06:40:41Z</time>
      </trkpt>
      <trkpt lat="41.9575950" lon="-8.8843560">
        <ele>24.4</ele>
        <time>2021-05-19T06:40:42Z</time>
      </trkpt>
      <trkpt lat="41.9575910" lon="-8.8843630">
        <ele>24.4</ele>
        <time>2021-05-19T06:40:43Z</time>
      </trkpt>
      <trkpt lat="41.9575870" lon="-8.8843700">
        <ele>24.4</ele>
        <time>2021-05-19T06:40:44Z</time>
      </trkpt>
      <trkpt lat="41.9575840" lon="-8.8843770">
        <ele>24.4</ele>
        <time>2021-05-19T06:40:45Z</time>
      </trkpt>
      <trkpt lat="41.9575800" lon="-8.8843840">
        <ele>24.5</ele>
        <time>2021-05-19T06:40:46Z</time>
      </trkpt>
      <trkpt lat="41.9575760" lon="-8.8843910">
        <ele>24.5</ele>
        <time>2021-05-19T06:40:47Z</time>
      </trkpt>
      <trkpt lat="41.9575720" lon="-8.8843990">
        <ele>24.5</ele>
        <time>2021-05-19T06:40:48Z</time>
      </trkpt>
      <trkpt lat="41.9575690" lon="-8.8844060">
        <ele>24.5</ele>
        <time>2021-05-19T06:40:49Z</time>
      </trkpt>
      <trkpt lat="41.9575650" lon="-8.8844130">
        <ele>24.6</ele>
        <time>2021-05-19T06:40:50Z</time>
      </trkpt>
      <trkpt lat="41.9575610" lon="-8.8844200">
        <ele>24.6</ele>
        <time>2021-05-19T06:40:51Z</time>
      </trkpt>
      <trkpt lat="41.9575630" lon="-8.8844180">
        <ele>24.6</ele>
        <time>2021-05-19T06:40:52Z</time>
      </trkpt>
      <trkpt lat="41.9575640" lon="-8.8844170">
        <ele>24.6</ele>
        <time>2021-05-19T06:40:53Z</time>
      </trkpt>
      <trkpt lat="41.9575660" lon="-8.8844150">
        <ele>24.6</ele>
        <time>2021-05-19T06:40:54Z</time>
      </trkpt>
      <trkpt lat="41.9575680" lon="-8.8844130">
        <ele>24.6</ele>
        <time>2021-05-19T06:40:55Z</time>
      </trkpt>
      <trkpt lat="41.9575700" lon="-8.8844120">
        <ele>24.6</ele>
        <time>2021-05-19T06:40:56Z</time>
      </trkpt>
      <trkpt lat="41.9575710" lon="-8.8844100">
        <ele>24.6</ele>
        <time>2021-05-19T06:40:57Z</time>
      </trkpt>
      <trkpt lat="41.9575730" lon="-8.8844080">
        <ele>24.6</ele>
        <time>2021-05-19T06:40:58Z</time>
      </trkpt>
      <trkpt lat="41.9575750" lon="-8.8844070">
        <ele>24.6</ele>
        <time>2021-05-19T06:40:59Z</time>
      </trkpt>
      <trkpt lat="41.9575770" lon="-8.8844050">
        <ele>24.6</ele>
        <time>2021-05-19T06:41:00Z</time>
      </trkpt>
      <trkpt lat="41.9575780" lon="-8.8844030">
        <ele>24.7</ele>
        <time>2021-05-19T06:41:01Z</time>
      </trkpt>
      <trkpt lat="41.9575800" lon="-8.8844010">
        <ele>24.7</ele>
        <time>2021-05-19T06:41:02Z</time>
      </trkpt>
      <trkpt lat="41.9575820" lon="-8.8844000">
        <ele>24.7</ele>
        <time>2021-05-19T06:41:03Z</time>
      </trkpt>
      <trkpt lat="41.9575840" lon="-8.8843980">
        <ele>24.7</ele>
        <time>2021-05-19T06:41:04Z</time>
      </trkpt>
      <trkpt lat="41.9575850" lon="-8.8843960">
        <ele>24.7</ele>
        <time>2021-05-19T06:41:05Z</time>
      </trkpt>
      <trkpt lat="41.9575870" lon="-8.8843950">
        <ele>24.7</ele>
        <time>2021-05-19T06:41:06Z</time>
      </trkpt>
      <trkpt lat="41.9575890" lon="-8.8843930">
        <ele>24.7</ele>
        <time>2021-05-19T06:41:07Z</time>
      </trkpt>
      <trkpt lat="41.9575910" lon="-8.8843910">
        <ele>24.7</ele>
        <time>2021-05-19T06:41:08Z</time>
      </trkpt>
      <trkpt lat="41.9575920" lon="-8.8843900">
        <ele>24.7</ele>
        <time>2021-05-19T06:41:09Z</time>
      </trkpt>
      <trkpt lat="41.9575940" lon="-8.8843880">
        <ele>24.7</ele>
        <time>2021-05-19T06:41:10Z</time>
      </trkpt>
      <trkpt lat="41.9576030" lon="-8.8843700">
        <ele>24.8</ele>
        <time>2021-05-19T06:41:11Z</time>
      </trkpt>
      <trkpt lat="41.9576120" lon="-8.8843510">
        <ele>24.9</ele>
        <time>2021-05-19T06:41:12Z</time>
      </trkpt>
      <trkpt lat="41.9576210" lon="-8.8843320">
        <ele>24.9</ele>
        <time>2021-05-19T06:41:13Z</time>
      </trkpt>
      <trkpt lat="41.9576230" lon="-8.8843210">
        <ele>25.0</ele>
        <time>2021-05-19T06:41:14Z</time>
      </trkpt>
      <trkpt lat="41.9576250" lon="-8.8843120">
        <ele>25.0</ele>
        <time>2021-05-19T06:41:15Z</time>
      </trkpt>
      <trkpt lat="41.9576280" lon="-8.8843040">
        <ele>25.0</ele>
        <time>2021-05-19T06:41:16Z</time>
      </trkpt>
      <trkpt lat="41.9576300" lon="-8.8842960">
        <ele>25.0</ele>
        <time>2021-05-19T06:41:17Z</time>
      </trkpt>
      <trkpt lat="41.9576320" lon="-8.8842870">
        <ele>25.1</ele>
        <time>2021-05-19T06:41:18Z</time>
      </trkpt>
      <trkpt lat="41.9576340" lon="-8.8842790">
        <ele>25.1</ele>
        <time>2021-05-19T06:41:19Z</time>
      </trkpt>
      <trkpt lat="41.9576340" lon="-8.8842770">
        <ele>25.1</ele>
        <time>2021-05-19T06:41:20Z</time>
      </trkpt>
      <trkpt lat="41.9576320" lon="-8.8842730">
        <ele>25.1</ele>
        <time>2021-05-19T06:41:21Z</time>
      </trkpt>
      <trkpt lat="41.9576320" lon="-8.8842730">
        <ele>25.1</ele>
        <time>2021-05-19T06:41:22Z</time>
      </trkpt>
      <trkpt lat="41.9576320" lon="-8.8842730">
        <ele>25.1</ele>
        <time>2021-05-19T06:41:23Z</time>
      </trkpt>
      <trkpt lat="41.9576320" lon="-8.8842730">
        <ele>25.1</ele>
        <time>2021-05-19T06:41:24Z</time>
      </trkpt>
      <trkpt lat="41.9576320" lon="-8.8842730">
        <ele>25.1</ele>
        <time>2021-05-19T06:41:25Z</time>
      </trkpt>
      <trkpt lat="41.9576440" lon="-8.8842580">
        <ele>25.2</ele>
        <time>2021-05-19T06:41:26Z</time>
      </trkpt>
      <trkpt lat="41.9576440" lon="-8.8842580">
        <ele>25.2</ele>
        <time>2021-05-19T06:41:27Z</time>
      </trkpt>
      <trkpt lat="41.9576490" lon="-8.8842590">
        <ele>25.2</ele>
        <time>2021-05-19T06:41:28Z</time>
      </trkpt>
      <trkpt lat="41.9576530" lon="-8.8842610">
        <ele>25.2</ele>
        <time>2021-05-19T06:41:29Z</time>
      </trkpt>
      <trkpt lat="41.9576530" lon="-8.8842610">
        <ele>25.2</ele>
        <time>2021-05-19T06:41:30Z</time>
      </trkpt>
      <trkpt lat="41.9576550" lon="-8.8842570">
        <ele>25.2</ele>
        <time>2021-05-19T06:41:31Z</time>
      </trkpt>
      <trkpt lat="41.9576590" lon="-8.8842620">
        <ele>25.2</ele>
        <time>2021-05-19T06:41:32Z</time>
      </trkpt>
      <trkpt lat="41.9576600" lon="-8.8842640">
        <ele>25.2</ele>
        <time>2021-05-19T06:41:33Z</time>
      </trkpt>
      <trkpt lat="41.9576590" lon="-8.8842650">
        <ele>25.2</ele>
        <time>2021-05-19T06:41:34Z</time>
      </trkpt>
      <trkpt lat="41.9576570" lon="-8.8842650">
        <ele>25.3</ele>
        <time>2021-05-19T06:41:35Z</time>
      </trkpt>
      <trkpt lat="41.9576550" lon="-8.8842650">
        <ele>25.3</ele>
        <time>2021-05-19T06:41:36Z</time>
      </trkpt>
      <trkpt lat="41.9576530" lon="-8.8842650">
        <ele>25.3</ele>
        <time>2021-05-19T06:41:37Z</time>
      </trkpt>
      <trkpt lat="41.9576520" lon="-8.8842660">
        <ele>25.3</ele>
        <time>2021-05-19T06:41:38Z</time>
      </trkpt>
      <trkpt lat="41.9576500" lon="-8.8842660">
        <ele>25.3</ele>
        <time>2021-05-19T06:41:39Z</time>
      </trkpt>
      <trkpt lat="41.9576480" lon="-8.8842660">
        <ele>25.3</ele>
        <time>2021-05-19T06:41:40Z</time>
      </trkpt>
      <trkpt lat="41.9576460" lon="-8.8842660">
        <ele>25.3</ele>
        <time>2021-05-19T06:41:41Z</time>
      </trkpt>
      <trkpt lat="41.9576450" lon="-8.8842670">
        <ele>25.3</ele>
        <time>2021-05-19T06:41:42Z</time>
      </trkpt>
      <trkpt lat="41.9576430" lon="-8.8842670">
        <ele>25.3</ele>
        <time>2021-05-19T06:41:43Z</time>
      </trkpt>
      <trkpt lat="41.9576410" lon="-8.8842670">
        <ele>25.3</ele>
        <time>2021-05-19T06:41:44Z</time>
      </trkpt>
      <trkpt lat="41.9576390" lon="-8.8842670">
        <ele>25.3</ele>
        <time>2021-05-19T06:41:45Z</time>
      </trkpt>
      <trkpt lat="41.9576380" lon="-8.8842680">
        <ele>25.3</ele>
        <time>2021-05-19T06:41:46Z</time>
      </trkpt>
      <trkpt lat="41.9576360" lon="-8.8842680">
        <ele>25.3</ele>
        <time>2021-05-19T06:41:47Z</time>
      </trkpt>
      <trkpt lat="41.9576340" lon="-8.8842680">
        <ele>25.3</ele>
        <time>2021-05-19T06:41:48Z</time>
      </trkpt>
      <trkpt lat="41.9576320" lon="-8.8842680">
        <ele>25.4</ele>
        <time>2021-05-19T06:41:49Z</time>
      </trkpt>
      <trkpt lat="41.9576310" lon="-8.8842690">
        <ele>25.4</ele>
        <time>2021-05-19T06:41:50Z</time>
      </trkpt>
      <trkpt lat="41.9576290" lon="-8.8842690">
        <ele>25.4</ele>
        <time>2021-05-19T06:41:51Z</time>
      </trkpt>
      <trkpt lat="41.9576270" lon="-8.8842690">
        <ele>25.4</ele>
        <time>2021-05-19T06:41:52Z</time>
      </trkpt>
      <trkpt lat="41.9576250" lon="-8.8842690">
        <ele>25.4</ele>
        <time>2021-05-19T06:41:53Z</time>
      </trkpt>
      <trkpt lat="41.9576240" lon="-8.8842700">
        <ele>25.4</ele>
        <time>2021-05-19T06:41:54Z</time>
      </trkpt>
      <trkpt lat="41.9576220" lon="-8.8842700">
        <ele>25.4</ele>
        <time>2021-05-19T06:41:55Z</time>
      </trkpt>
      <trkpt lat="41.9576200" lon="-8.8842700">
        <ele>25.4</ele>
        <time>2021-05-19T06:41:56Z</time>
      </trkpt>
      <trkpt lat="41.9576180" lon="-8.8842680">
        <ele>25.4</ele>
        <time>2021-05-19T06:41:57Z</time>
      </trkpt>
      <trkpt lat="41.9576080" lon="-8.8842620">
        <ele>25.5</ele>
        <time>2021-05-19T06:41:58Z</time>
      </trkpt>
      <trkpt lat="41.9575910" lon="-8.8842540">
        <ele>25.5</ele>
        <time>2021-05-19T06:41:59Z</time>
      </trkpt>
      <trkpt lat="41.9576050" lon="-8.8842730">
        <ele>25.6</ele>
        <time>2021-05-19T06:42:00Z</time>
      </trkpt>
      <trkpt lat="41.9575950" lon="-8.8842650">
        <ele>25.7</ele>
        <time>2021-05-19T06:42:01Z</time>
      </trkpt>
      <trkpt lat="41.9576100" lon="-8.8842840">
        <ele>25.7</ele>
        <time>2021-05-19T06:42:02Z</time>
      </trkpt>
      <trkpt lat="41.9576130" lon="-8.8842850">
        <ele>25.7</ele>
        <time>2021-05-19T06:42:03Z</time>
      </trkpt>
      <trkpt lat="41.9576130" lon="-8.8842850">
        <ele>25.7</ele>
        <time>2021-05-19T06:42:04Z</time>
      </trkpt>
      <trkpt lat="41.9576130" lon="-8.8842850">
        <ele>25.7</ele>
        <time>2021-05-19T06:42:05Z</time>
      </trkpt>
      <trkpt lat="41.9576130" lon="-8.8842850">
        <ele>25.7</ele>
        <time>2021-05-19T06:42:06Z</time>
      </trkpt>
      <trkpt lat="41.9576130" lon="-8.8842850">
        <ele>25.7</ele>
        <time>2021-05-19T06:42:07Z</time>
      </trkpt>
      <trkpt lat="41.9576280" lon="-8.8842920">
        <ele>25.8</ele>
        <time>2021-05-19T06:42:08Z</time>
      </trkpt>
      <trkpt lat="41.9576280" lon="-8.8842920">
        <ele>25.8</ele>
        <time>2021-05-19T06:42:09Z</time>
      </trkpt>
      <trkpt lat="41.9576280" lon="-8.8842920">
        <ele>25.8</ele>
        <time>2021-05-19T06:42:10Z</time>
      </trkpt>
      <trkpt lat="41.9576360" lon="-8.8842910">
        <ele>25.8</ele>
        <time>2021-05-19T06:42:11Z</time>
      </trkpt>
      <trkpt lat="41.9576350" lon="-8.8842910">
        <ele>25.8</ele>
        <time>2021-05-19T06:42:12Z</time>
      </trkpt>
      <trkpt lat="41.9576370" lon="-8.8842890">
        <ele>25.9</ele>
        <time>2021-05-19T06:42:13Z</time>
      </trkpt>
      <trkpt lat="41.9576330" lon="-8.8842890">
        <ele>25.9</ele>
        <time>2021-05-19T06:42:14Z</time>
      </trkpt>
      <trkpt lat="41.9576300" lon="-8.8842890">
        <ele>25.9</ele>
        <time>2021-05-19T06:42:15Z</time>
      </trkpt>
      <trkpt lat="41.9576360" lon="-8.8842950">
        <ele>25.9</ele>
        <time>2021-05-19T06:42:16Z</time>
      </trkpt>
      <trkpt lat="41.9576360" lon="-8.8842970">
        <ele>25.9</ele>
        <time>2021-05-19T06:42:17Z</time>
      </trkpt>
      <trkpt lat="41.9576370" lon="-8.8842960">
        <ele>25.9</ele>
        <time>2021-05-19T06:42:18Z</time>
      </trkpt>
      <trkpt lat="41.9576400" lon="-8.8842970">
        <ele>25.9</ele>
        <time>2021-05-19T06:42:19Z</time>
      </trkpt>
      <trkpt lat="41.9576410" lon="-8.8842980">
        <ele>25.9</ele>
        <time>2021-05-19T06:42:20Z</time>
      </trkpt>
      <trkpt lat="41.9576420" lon="-8.8842980">
        <ele>25.9</ele>
        <time>2021-05-19T06:42:21Z</time>
      </trkpt>
      <trkpt lat="41.9576440" lon="-8.8843000">
        <ele>25.9</ele>
        <time>2021-05-19T06:42:22Z</time>
      </trkpt>
      <trkpt lat="41.9576440" lon="-8.8843000">
        <ele>25.9</ele>
        <time>2021-05-19T06:42:23Z</time>
      </trkpt>
      <trkpt lat="41.9576340" lon="-8.8842900">
        <ele>26.0</ele>
        <time>2021-05-19T06:42:24Z</time>
      </trkpt>
      <trkpt lat="41.9576360" lon="-8.8842860">
        <ele>26.0</ele>
        <time>2021-05-19T06:42:25Z</time>
      </trkpt>
      <trkpt lat="41.9576400" lon="-8.8842860">
        <ele>26.0</ele>
        <time>2021-05-19T06:42:26Z</time>
      </trkpt>
      <trkpt lat="41.9576420" lon="-8.8842780">
        <ele>26.0</ele>
        <time>2021-05-19T06:42:27Z</time>
      </trkpt>
      <trkpt lat="41.9576340" lon="-8.8842800">
        <ele>26.1</ele>
        <time>2021-05-19T06:42:28Z</time>
      </trkpt>
      <trkpt lat="41.9576330" lon="-8.8842750">
        <ele>26.1</ele>
        <time>2021-05-19T06:42:29Z</time>
      </trkpt>
      <trkpt lat="41.9576310" lon="-8.8842760">
        <ele>26.1</ele>
        <time>2021-05-19T06:42:30Z</time>
      </trkpt>
      <trkpt lat="41.9576230" lon="-8.8842670">
        <ele>26.1</ele>
        <time>2021-05-19T06:42:31Z</time>
      </trkpt>
      <trkpt lat="41.9576360" lon="-8.8842820">
        <ele>26.2</ele>
        <time>2021-05-19T06:42:32Z</time>
      </trkpt>
      <trkpt lat="41.9576380" lon="-8.8842780">
        <ele>26.2</ele>
        <time>2021-05-19T06:42:33Z</time>
      </trkpt>
      <trkpt lat="41.9576300" lon="-8.8842760">
        <ele>26.2</ele>
        <time>2021-05-19T06:42:34Z</time>
      </trkpt>
      <trkpt lat="41.9576360" lon="-8.8842720">
        <ele>26.2</ele>
        <time>2021-05-19T06:42:35Z</time>
      </trkpt>
      <trkpt lat="41.9576440" lon="-8.8842650">
        <ele>26.3</ele>
        <time>2021-05-19T06:42:36Z</time>
      </trkpt>
      <trkpt lat="41.9576450" lon="-8.8842580">
        <ele>26.3</ele>
        <time>2021-05-19T06:42:37Z</time>
      </trkpt>
      <trkpt lat="41.9576490" lon="-8.8842550">
        <ele>26.3</ele>
        <time>2021-05-19T06:42:38Z</time>
      </trkpt>
      <trkpt lat="41.9576550" lon="-8.8842540">
        <ele>26.3</ele>
        <time>2021-05-19T06:42:39Z</time>
      </trkpt>
      <trkpt lat="41.9576550" lon="-8.8842540">
        <ele>26.3</ele>
        <time>2021-05-19T06:42:40Z</time>
      </trkpt>
      <trkpt lat="41.9576550" lon="-8.8842540">
        <ele>26.3</ele>
        <time>2021-05-19T06:42:41Z</time>
      </trkpt>
      <trkpt lat="41.9576580" lon="-8.8842490">
        <ele>26.3</ele>
        <time>2021-05-19T06:42:42Z</time>
      </trkpt>
      <trkpt lat="41.9576580" lon="-8.8842490">
        <ele>26.3</ele>
        <time>2021-05-19T06:42:43Z</time>
      </trkpt>
      <trkpt lat="41.9576630" lon="-8.8842600">
        <ele>26.4</ele>
        <time>2021-05-19T06:42:44Z</time>
      </trkpt>
      <trkpt lat="41.9576660" lon="-8.8842660">
        <ele>26.4</ele>
        <time>2021-05-19T06:42:45Z</time>
      </trkpt>
      <trkpt lat="41.9576660" lon="-8.8842660">
        <ele>26.4</ele>
        <time>2021-05-19T06:42:46Z</time>
      </trkpt>
      <trkpt lat="41.9576660" lon="-8.8842660">
        <ele>26.4</ele>
        <time>2021-05-19T06:42:47Z</time>
      </trkpt>
      <trkpt lat="41.9576550" lon="-8.8842520">
        <ele>26.5</ele>
        <time>2021-05-19T06:42:48Z</time>
      </trkpt>
      <trkpt lat="41.9576520" lon="-8.8842460">
        <ele>26.5</ele>
        <time>2021-05-19T06:42:49Z</time>
      </trkpt>
      <trkpt lat="41.9576570" lon="-8.8842450">
        <ele>26.5</ele>
        <time>2021-05-19T06:42:50Z</time>
      </trkpt>
      <trkpt lat="41.9576610" lon="-8.8842420">
        <ele>26.5</ele>
        <time>2021-05-19T06:42:51Z</time>
      </trkpt>
      <trkpt lat="41.9576730" lon="-8.8842480">
        <ele>26.5</ele>
        <time>2021-05-19T06:42:52Z</time>
      </trkpt>
      <trkpt lat="41.9576790" lon="-8.8842530">
        <ele>26.6</ele>
        <time>2021-05-19T06:42:53Z</time>
      </trkpt>
      <trkpt lat="41.9576860" lon="-8.8842550">
        <ele>26.6</ele>
        <time>2021-05-19T06:42:54Z</time>
      </trkpt>
      <trkpt lat="41.9576840" lon="-8.8842580">
        <ele>26.6</ele>
        <time>2021-05-19T06:42:55Z</time>
      </trkpt>
      <trkpt lat="41.9576860" lon="-8.8842580">
        <ele>26.6</ele>
        <time>2021-05-19T06:42:56Z</time>
      </trkpt>
      <trkpt lat="41.9576840" lon="-8.8842620">
        <ele>26.6</ele>
        <time>2021-05-19T06:42:57Z</time>
      </trkpt>
      <trkpt lat="41.9576860" lon="-8.8842670">
        <ele>26.6</ele>
        <time>2021-05-19T06:42:58Z</time>
      </trkpt>
      <trkpt lat="41.9576890" lon="-8.8842760">
        <ele>26.7</ele>
        <time>2021-05-19T06:42:59Z</time>
      </trkpt>
      <trkpt lat="41.9576890" lon="-8.8842760">
        <ele>26.7</ele>
        <time>2021-05-19T06:43:00Z</time>
      </trkpt>
      <trkpt lat="41.9576890" lon="-8.8842760">
        <ele>26.7</ele>
        <time>2021-05-19T06:43:01Z</time>
      </trkpt>
      <trkpt lat="41.9576890" lon="-8.8842760">
        <ele>26.7</ele>
        <time>2021-05-19T06:43:02Z</time>
      </trkpt>
      <trkpt lat="41.9576890" lon="-8.8842760">
        <ele>26.7</ele>
        <time>2021-05-19T06:43:03Z</time>
      </trkpt>
      <trkpt lat="41.9577050" lon="-8.8842820">
        <ele>26.7</ele>
        <time>2021-05-19T06:43:04Z</time>
      </trkpt>
      <trkpt lat="41.9576940" lon="-8.8842780">
        <ele>26.8</ele>
        <time>2021-05-19T06:43:05Z</time>
      </trkpt>
      <trkpt lat="41.9576850" lon="-8.8842790">
        <ele>26.8</ele>
        <time>2021-05-19T06:43:06Z</time>
      </trkpt>
      <trkpt lat="41.9576750" lon="-8.8842790">
        <ele>26.8</ele>
        <time>2021-05-19T06:43:07Z</time>
      </trkpt>
      <trkpt lat="41.9576660" lon="-8.8842790">
        <ele>26.8</ele>
        <time>2021-05-19T06:43:08Z</time>
      </trkpt>
      <trkpt lat="41.9576510" lon="-8.8842970">
        <ele>26.9</ele>
        <time>2021-05-19T06:43:09Z</time>
      </trkpt>
      <trkpt lat="41.9576360" lon="-8.8842860">
        <ele>27.0</ele>
        <time>2021-05-19T06:43:10Z</time>
      </trkpt>
      <trkpt lat="41.9576280" lon="-8.8842890">
        <ele>27.0</ele>
        <time>2021-05-19T06:43:11Z</time>
      </trkpt>
      <trkpt lat="41.9576240" lon="-8.8842970">
        <ele>27.0</ele>
        <time>2021-05-19T06:43:12Z</time>
      </trkpt>
      <trkpt lat="41.9576210" lon="-8.8843040">
        <ele>27.0</ele>
        <time>2021-05-19T06:43:13Z</time>
      </trkpt>
      <trkpt lat="41.9576180" lon="-8.8843110">
        <ele>27.1</ele>
        <time>2021-05-19T06:43:14Z</time>
      </trkpt>
      <trkpt lat="41.9576150" lon="-8.8843180">
        <ele>27.1</ele>
        <time>2021-05-19T06:43:15Z</time>
      </trkpt>
      <trkpt lat="41.9576110" lon="-8.8843260">
        <ele>27.1</ele>
        <time>2021-05-19T06:43:16Z</time>
      </trkpt>
      <trkpt lat="41.9576080" lon="-8.8843330">
        <ele>27.1</ele>
        <time>2021-05-19T06:43:17Z</time>
      </trkpt>
      <trkpt lat="41.9576060" lon="-8.8843410">
        <ele>27.1</ele>
        <time>2021-05-19T06:43:18Z</time>
      </trkpt>
      <trkpt lat="41.9576030" lon="-8.8843440">
        <ele>27.1</ele>
        <time>2021-05-19T06:43:19Z</time>
      </trkpt>
      <trkpt lat="41.9575990" lon="-8.8843520">
        <ele>27.2</ele>
        <time>2021-05-19T06:43:20Z</time>
      </trkpt>
      <trkpt lat="41.9575950" lon="-8.8843610">
        <ele>27.2</ele>
        <time>2021-05-19T06:43:21Z</time>
      </trkpt>
      <trkpt lat="41.9575900" lon="-8.8843590">
        <ele>27.2</ele>
        <time>2021-05-19T06:43:22Z</time>
      </trkpt>
      <trkpt lat="41.9575860" lon="-8.8843620">
        <ele>27.2</ele>
        <time>2021-05-19T06:43:23Z</time>
      </trkpt>
      <trkpt lat="41.9575830" lon="-8.8843670">
        <ele>27.2</ele>
        <time>2021-05-19T06:43:24Z</time>
      </trkpt>
      <trkpt lat="41.9575870" lon="-8.8843780">
        <ele>27.2</ele>
        <time>2021-05-19T06:43:25Z</time>
      </trkpt>
      <trkpt lat="41.9575870" lon="-8.8843680">
        <ele>27.3</ele>
        <time>2021-05-19T06:43:26Z</time>
      </trkpt>
      <trkpt lat="41.9575890" lon="-8.8843610">
        <ele>27.3</ele>
        <time>2021-05-19T06:43:27Z</time>
      </trkpt>
      <trkpt lat="41.9575930" lon="-8.8843490">
        <ele>27.3</ele>
        <time>2021-05-19T06:43:28Z</time>
      </trkpt>
      <trkpt lat="41.9575980" lon="-8.8843410">
        <ele>27.3</ele>
        <time>2021-05-19T06:43:29Z</time>
      </trkpt>
      <trkpt lat="41.9576000" lon="-8.8843360">
        <ele>27.3</ele>
        <time>2021-05-19T06:43:30Z</time>
      </trkpt>
      <trkpt lat="41.9576010" lon="-8.8843310">
        <ele>27.4</ele>
        <time>2021-05-19T06:43:31Z</time>
      </trkpt>
      <trkpt lat="41.9576090" lon="-8.8843210">
        <ele>27.4</ele>
        <time>2021-05-19T06:43:32Z</time>
      </trkpt>
      <trkpt lat="41.9576130" lon="-8.8843200">
        <ele>27.4</ele>
        <time>2021-05-19T06:43:33Z</time>
      </trkpt>
      <trkpt lat="41.9576180" lon="-8.8843180">
        <ele>27.4</ele>
        <time>2021-05-19T06:43:34Z</time>
      </trkpt>
      <trkpt lat="41.9576220" lon="-8.8843160">
        <ele>27.4</ele>
        <time>2021-05-19T06:43:35Z</time>
      </trkpt>
      <trkpt lat="41.9576270" lon="-8.8843140">
        <ele>27.4</ele>
        <time>2021-05-19T06:43:36Z</time>
      </trkpt>
      <trkpt lat="41.9576310" lon="-8.8843130">
        <ele>27.4</ele>
        <time>2021-05-19T06:43:37Z</time>
      </trkpt>
      <trkpt lat="41.9576360" lon="-8.8843110">
        <ele>27.5</ele>
        <time>2021-05-19T06:43:38Z</time>
      </trkpt>
      <trkpt lat="41.9576380" lon="-8.8843080">
        <ele>27.5</ele>
        <time>2021-05-19T06:43:39Z</time>
      </trkpt>
      <trkpt lat="41.9576400" lon="-8.8843040">
        <ele>27.5</ele>
        <time>2021-05-19T06:43:40Z</time>
      </trkpt>
      <trkpt lat="41.9576410" lon="-8.8843010">
        <ele>27.5</ele>
        <time>2021-05-19T06:43:41Z</time>
      </trkpt>
      <trkpt lat="41.9576430" lon="-8.8842970">
        <ele>27.5</ele>
        <time>2021-05-19T06:43:42Z</time>
      </trkpt>
      <trkpt lat="41.9576450" lon="-8.8842940">
        <ele>27.5</ele>
        <time>2021-05-19T06:43:43Z</time>
      </trkpt>
      <trkpt lat="41.9576470" lon="-8.8842900">
        <ele>27.5</ele>
        <time>2021-05-19T06:43:44Z</time>
      </trkpt>
      <trkpt lat="41.9576490" lon="-8.8842870">
        <ele>27.5</ele>
        <time>2021-05-19T06:43:45Z</time>
      </trkpt>
      <trkpt lat="41.9576500" lon="-8.8842840">
        <ele>27.5</ele>
        <time>2021-05-19T06:43:46Z</time>
      </trkpt>
      <trkpt lat="41.9576520" lon="-8.8842800">
        <ele>27.5</ele>
        <time>2021-05-19T06:43:47Z</time>
      </trkpt>
      <trkpt lat="41.9576540" lon="-8.8842770">
        <ele>27.5</ele>
        <time>2021-05-19T06:43:48Z</time>
      </trkpt>
      <trkpt lat="41.9576560" lon="-8.8842730">
        <ele>27.5</ele>
        <time>2021-05-19T06:43:49Z</time>
      </trkpt>
      <trkpt lat="41.9576570" lon="-8.8842700">
        <ele>27.5</ele>
        <time>2021-05-19T06:43:50Z</time>
      </trkpt>
      <trkpt lat="41.9576590" lon="-8.8842660">
        <ele>27.5</ele>
        <time>2021-05-19T06:43:51Z</time>
      </trkpt>
      <trkpt lat="41.9576610" lon="-8.8842630">
        <ele>27.6</ele>
        <time>2021-05-19T06:43:52Z</time>
      </trkpt>
      <trkpt lat="41.9576630" lon="-8.8842630">
        <ele>27.6</ele>
        <time>2021-05-19T06:43:53Z</time>
      </trkpt>
      <trkpt lat="41.9576640" lon="-8.8842590">
        <ele>27.6</ele>
        <time>2021-05-19T06:43:54Z</time>
      </trkpt>
      <trkpt lat="41.9576680" lon="-8.8842550">
        <ele>27.6</ele>
        <time>2021-05-19T06:43:55Z</time>
      </trkpt>
      <trkpt lat="41.9576650" lon="-8.8842540">
        <ele>27.6</ele>
        <time>2021-05-19T06:43:56Z</time>
      </trkpt>
      <trkpt lat="41.9576650" lon="-8.8842520">
        <ele>27.6</ele>
        <time>2021-05-19T06:43:57Z</time>
      </trkpt>
      <trkpt lat="41.9576640" lon="-8.8842550">
        <ele>27.6</ele>
        <time>2021-05-19T06:43:58Z</time>
      </trkpt>
      <trkpt lat="41.9576660" lon="-8.8842570">
        <ele>27.6</ele>
        <time>2021-05-19T06:43:59Z</time>
      </trkpt>
      <trkpt lat="41.9576640" lon="-8.8842500">
        <ele>27.6</ele>
        <time>2021-05-19T06:44:00Z</time>
      </trkpt>
      <trkpt lat="41.9576640" lon="-8.8842500">
        <ele>27.6</ele>
        <time>2021-05-19T06:44:01Z</time>
      </trkpt>
      <trkpt lat="41.9576540" lon="-8.8842410">
        <ele>27.6</ele>
        <time>2021-05-19T06:44:02Z</time>
      </trkpt>
      <trkpt lat="41.9576520" lon="-8.8842410">
        <ele>27.6</ele>
        <time>2021-05-19T06:44:03Z</time>
      </trkpt>
      <trkpt lat="41.9576480" lon="-8.8842380">
        <ele>27.7</ele>
        <time>2021-05-19T06:44:04Z</time>
      </trkpt>
      <trkpt lat="41.9576490" lon="-8.8842370">
        <ele>27.7</ele>
        <time>2021-05-19T06:44:05Z</time>
      </trkpt>
      <trkpt lat="41.9576530" lon="-8.8842340">
        <ele>27.7</ele>
        <time>2021-05-19T06:44:06Z</time>
      </trkpt>
      <trkpt lat="41.9576590" lon="-8.8842350">
        <ele>27.7</ele>
        <time>2021-05-19T06:44:07Z</time>
      </trkpt>
      <trkpt lat="41.9576570" lon="-8.8842320">
        <ele>27.7</ele>
        <time>2021-05-19T06:44:08Z</time>
      </trkpt>
      <trkpt lat="41.9576560" lon="-8.8842300">
        <ele>27.7</ele>
        <time>2021-05-19T06:44:09Z</time>
      </trkpt>
      <trkpt lat="41.9576550" lon="-8.8842360">
        <ele>27.7</ele>
        <time>2021-05-19T06:44:10Z</time>
      </trkpt>
      <trkpt lat="41.9576530" lon="-8.8842410">
        <ele>27.7</ele>
        <time>2021-05-19T06:44:11Z</time>
      </trkpt>
      <trkpt lat="41.9576460" lon="-8.8842440">
        <ele>27.7</ele>
        <time>2021-05-19T06:44:12Z</time>
      </trkpt>
      <trkpt lat="41.9576390" lon="-8.8842430">
        <ele>27.7</ele>
        <time>2021-05-19T06:44:13Z</time>
      </trkpt>
      <trkpt lat="41.9576320" lon="-8.8842420">
        <ele>27.7</ele>
        <time>2021-05-19T06:44:14Z</time>
      </trkpt>
      <trkpt lat="41.9576240" lon="-8.8842340">
        <ele>27.8</ele>
        <time>2021-05-19T06:44:15Z</time>
      </trkpt>
      <trkpt lat="41.9576240" lon="-8.8842340">
        <ele>27.8</ele>
        <time>2021-05-19T06:44:16Z</time>
      </trkpt>
      <trkpt lat="41.9576040" lon="-8.8842340">
        <ele>27.8</ele>
        <time>2021-05-19T06:44:17Z</time>
      </trkpt>
      <trkpt lat="41.9576000" lon="-8.8842310">
        <ele>27.8</ele>
        <time>2021-05-19T06:44:18Z</time>
      </trkpt>
      <trkpt lat="41.9575950" lon="-8.8842270">
        <ele>27.8</ele>
        <time>2021-05-19T06:44:19Z</time>
      </trkpt>
      <trkpt lat="41.9575910" lon="-8.8842240">
        <ele>27.8</ele>
        <time>2021-05-19T06:44:20Z</time>
      </trkpt>
      <trkpt lat="41.9575860" lon="-8.8842210">
        <ele>27.8</ele>
        <time>2021-05-19T06:44:21Z</time>
      </trkpt>
      <trkpt lat="41.9575820" lon="-8.8842170">
        <ele>27.8</ele>
        <time>2021-05-19T06:44:22Z</time>
      </trkpt>
      <trkpt lat="41.9575780" lon="-8.8842140">
        <ele>27.8</ele>
        <time>2021-05-19T06:44:23Z</time>
      </trkpt>
      <trkpt lat="41.9575730" lon="-8.8842110">
        <ele>27.9</ele>
        <time>2021-05-19T06:44:24Z</time>
      </trkpt>
      <trkpt lat="41.9575690" lon="-8.8842080">
        <ele>27.9</ele>
        <time>2021-05-19T06:44:25Z</time>
      </trkpt>
      <trkpt lat="41.9575640" lon="-8.8842040">
        <ele>27.9</ele>
        <time>2021-05-19T06:44:26Z</time>
      </trkpt>
      <trkpt lat="41.9575600" lon="-8.8842010">
        <ele>27.9</ele>
        <time>2021-05-19T06:44:27Z</time>
      </trkpt>
      <trkpt lat="41.9575600" lon="-8.8842010">
        <ele>27.9</ele>
        <time>2021-05-19T06:44:28Z</time>
      </trkpt>
      <trkpt lat="41.9575600" lon="-8.8842010">
        <ele>27.9</ele>
        <time>2021-05-19T06:44:29Z</time>
      </trkpt>
      <trkpt lat="41.9575570" lon="-8.8842100">
        <ele>27.9</ele>
        <time>2021-05-19T06:44:30Z</time>
      </trkpt>
      <trkpt lat="41.9575540" lon="-8.8842070">
        <ele>27.9</ele>
        <time>2021-05-19T06:44:31Z</time>
      </trkpt>
      <trkpt lat="41.9575540" lon="-8.8842070">
        <ele>27.9</ele>
        <time>2021-05-19T06:44:32Z</time>
      </trkpt>
      <trkpt lat="41.9575540" lon="-8.8842070">
        <ele>27.9</ele>
        <time>2021-05-19T06:44:33Z</time>
      </trkpt>
      <trkpt lat="41.9575490" lon="-8.8841930">
        <ele>27.9</ele>
        <time>2021-05-19T06:44:34Z</time>
      </trkpt>
      <trkpt lat="41.9575490" lon="-8.8841920">
        <ele>27.9</ele>
        <time>2021-05-19T06:44:35Z</time>
      </trkpt>
      <trkpt lat="41.9575510" lon="-8.8841940">
        <ele>27.9</ele>
        <time>2021-05-19T06:44:36Z</time>
      </trkpt>
      <trkpt lat="41.9575590" lon="-8.8841980">
        <ele>27.9</ele>
        <time>2021-05-19T06:44:37Z</time>
      </trkpt>
      <trkpt lat="41.9575580" lon="-8.8841960">
        <ele>27.9</ele>
        <time>2021-05-19T06:44:38Z</time>
      </trkpt>
      <trkpt lat="41.9575590" lon="-8.8841930">
        <ele>27.9</ele>
        <time>2021-05-19T06:44:39Z</time>
      </trkpt>
      <trkpt lat="41.9575590" lon="-8.8841930">
        <ele>27.9</ele>
        <time>2021-05-19T06:44:40Z</time>
      </trkpt>
      <trkpt lat="41.9575590" lon="-8.8841930">
        <ele>27.9</ele>
        <time>2021-05-19T06:44:41Z</time>
      </trkpt>
      <trkpt lat="41.9575590" lon="-8.8841930">
        <ele>27.9</ele>
        <time>2021-05-19T06:44:42Z</time>
      </trkpt>
      <trkpt lat="41.9575590" lon="-8.8841930">
        <ele>27.9</ele>
        <time>2021-05-19T06:44:43Z</time>
      </trkpt>
      <trkpt lat="41.9575590" lon="-8.8841930">
        <ele>27.9</ele>
        <time>2021-05-19T06:44:44Z</time>
      </trkpt>
      <trkpt lat="41.9575590" lon="-8.8841930">
        <ele>27.9</ele>
        <time>2021-05-19T06:44:45Z</time>
      </trkpt>
      <trkpt lat="41.9575590" lon="-8.8841930">
        <ele>27.9</ele>
        <time>2021-05-19T06:44:46Z</time>
      </trkpt>
      <trkpt lat="41.9575490" lon="-8.8841700">
        <ele>28.0</ele>
        <time>2021-05-19T06:44:47Z</time>
      </trkpt>
      <trkpt lat="41.9575490" lon="-8.8841700">
        <ele>28.0</ele>
        <time>2021-05-19T06:44:48Z</time>
      </trkpt>
      <trkpt lat="41.9575490" lon="-8.8841700">
        <ele>28.0</ele>
        <time>2021-05-19T06:44:49Z</time>
      </trkpt>
      <trkpt lat="41.9575490" lon="-8.8841700">
        <ele>28.0</ele>
        <time>2021-05-19T06:44:50Z</time>
      </trkpt>
      <trkpt lat="41.9575490" lon="-8.8841700">
        <ele>28.0</ele>
        <time>2021-05-19T06:44:51Z</time>
      </trkpt>
      <trkpt lat="41.9575490" lon="-8.8841700">
        <ele>28.0</ele>
        <time>2021-05-19T06:44:52Z</time>
      </trkpt>
      <trkpt lat="41.9575490" lon="-8.8841700">
        <ele>28.0</ele>
        <time>2021-05-19T06:44:53Z</time>
      </trkpt>
      <trkpt lat="41.9575490" lon="-8.8841700">
        <ele>28.0</ele>
        <time>2021-05-19T06:44:54Z</time>
      </trkpt>
      <trkpt lat="41.9575490" lon="-8.8841700">
        <ele>28.0</ele>
        <time>2021-05-19T06:44:55Z</time>
      </trkpt>
      <trkpt lat="41.9575490" lon="-8.8841700">
        <ele>28.0</ele>
        <time>2021-05-19T06:44:56Z</time>
      </trkpt>
      <trkpt lat="41.9575490" lon="-8.8841700">
        <ele>28.0</ele>
        <time>2021-05-19T06:44:57Z</time>
      </trkpt>
      <trkpt lat="41.9575490" lon="-8.8841700">
        <ele>28.0</ele>
        <time>2021-05-19T06:44:58Z</time>
      </trkpt>
      <trkpt lat="41.9575490" lon="-8.8841700">
        <ele>28.0</ele>
        <time>2021-05-19T06:44:59Z</time>
      </trkpt>
      <trkpt lat="41.9575490" lon="-8.8841700">
        <ele>28.0</ele>
        <time>2021-05-19T06:45:00Z</time>
      </trkpt>
      <trkpt lat="41.9575490" lon="-8.8841700">
        <ele>28.0</ele>
        <time>2021-05-19T06:45:01Z</time>
      </trkpt>
      <trkpt lat="41.9575490" lon="-8.8841700">
        <ele>28.0</ele>
        <time>2021-05-19T06:45:02Z</time>
      </trkpt>
      <trkpt lat="41.9575490" lon="-8.8841700">
        <ele>28.0</ele>
        <time>2021-05-19T06:45:03Z</time>
      </trkpt>
      <trkpt lat="41.9575490" lon="-8.8841700">
        <ele>28.0</ele>
        <time>2021-05-19T06:45:04Z</time>
      </trkpt>
      <trkpt lat="41.9575490" lon="-8.8841700">
        <ele>28.0</ele>
        <time>2021-05-19T06:45:05Z</time>
      </trkpt>
      <trkpt lat="41.9575490" lon="-8.8841700">
        <ele>28.0</ele>
        <time>2021-05-19T06:45:06Z</time>
      </trkpt>
      <trkpt lat="41.9575490" lon="-8.8841700">
        <ele>28.0</ele>
        <time>2021-05-19T06:45:07Z</time>
      </trkpt>
      <trkpt lat="41.9575490" lon="-8.8841700">
        <ele>28.0</ele>
        <time>2021-05-19T06:45:08Z</time>
      </trkpt>
      <trkpt lat="41.9575490" lon="-8.8841700">
        <ele>28.0</ele>
        <time>2021-05-19T06:45:09Z</time>
      </trkpt>
      <trkpt lat="41.9575620" lon="-8.8841800">
        <ele>28.0</ele>
        <time>2021-05-19T06:45:10Z</time>
      </trkpt>
      <trkpt lat="41.9575640" lon="-8.8841830">
        <ele>28.0</ele>
        <time>2021-05-19T06:45:11Z</time>
      </trkpt>
      <trkpt lat="41.9575660" lon="-8.8841830">
        <ele>28.0</ele>
        <time>2021-05-19T06:45:12Z</time>
      </trkpt>
      <trkpt lat="41.9575660" lon="-8.8841830">
        <ele>28.0</ele>
        <time>2021-05-19T06:45:13Z</time>
      </trkpt>
      <trkpt lat="41.9575660" lon="-8.8841830">
        <ele>28.0</ele>
        <time>2021-05-19T06:45:14Z</time>
      </trkpt>
      <trkpt lat="41.9575750" lon="-8.8841980">
        <ele>28.0</ele>
        <time>2021-05-19T06:45:15Z</time>
      </trkpt>
      <trkpt lat="41.9575760" lon="-8.8842020">
        <ele>28.0</ele>
        <time>2021-05-19T06:45:16Z</time>
      </trkpt>
      <trkpt lat="41.9575790" lon="-8.8842030">
        <ele>28.0</ele>
        <time>2021-05-19T06:45:17Z</time>
      </trkpt>
      <trkpt lat="41.9575790" lon="-8.8842030">
        <ele>28.0</ele>
        <time>2021-05-19T06:45:18Z</time>
      </trkpt>
      <trkpt lat="41.9575810" lon="-8.8842020">
        <ele>28.0</ele>
        <time>2021-05-19T06:45:19Z</time>
      </trkpt>
      <trkpt lat="41.9575810" lon="-8.8842010">
        <ele>28.0</ele>
        <time>2021-05-19T06:45:20Z</time>
      </trkpt>
      <trkpt lat="41.9575810" lon="-8.8842010">
        <ele>28.0</ele>
        <time>2021-05-19T06:45:21Z</time>
      </trkpt>
      <trkpt lat="41.9575810" lon="-8.8842010">
        <ele>28.0</ele>
        <time>2021-05-19T06:45:22Z</time>
      </trkpt>
      <trkpt lat="41.9575810" lon="-8.8842000">
        <ele>28.0</ele>
        <time>2021-05-19T06:45:23Z</time>
      </trkpt>
      <trkpt lat="41.9575830" lon="-8.8842060">
        <ele>28.0</ele>
        <time>2021-05-19T06:45:24Z</time>
      </trkpt>
      <trkpt lat="41.9575830" lon="-8.8842060">
        <ele>28.0</ele>
        <time>2021-05-19T06:45:25Z</time>
      </trkpt>
      <trkpt lat="41.9575850" lon="-8.8842060">
        <ele>28.0</ele>
        <time>2021-05-19T06:45:26Z</time>
      </trkpt>
      <trkpt lat="41.9575900" lon="-8.8842130">
        <ele>28.0</ele>
        <time>2021-05-19T06:45:27Z</time>
      </trkpt>
      <trkpt lat="41.9575900" lon="-8.8842130">
        <ele>28.0</ele>
        <time>2021-05-19T06:45:28Z</time>
      </trkpt>
      <trkpt lat="41.9575970" lon="-8.8842200">
        <ele>28.1</ele>
        <time>2021-05-19T06:45:29Z</time>
      </trkpt>
      <trkpt lat="41.9575990" lon="-8.8842250">
        <ele>28.1</ele>
        <time>2021-05-19T06:45:30Z</time>
      </trkpt>
      <trkpt lat="41.9576040" lon="-8.8842350">
        <ele>28.1</ele>
        <time>2021-05-19T06:45:31Z</time>
      </trkpt>
      <trkpt lat="41.9576040" lon="-8.8842460">
        <ele>28.1</ele>
        <time>2021-05-19T06:45:32Z</time>
      </trkpt>
      <trkpt lat="41.9576000" lon="-8.8842540">
        <ele>28.1</ele>
        <time>2021-05-19T06:45:33Z</time>
      </trkpt>
      <trkpt lat="41.9576060" lon="-8.8842740">
        <ele>28.1</ele>
        <time>2021-05-19T06:45:34Z</time>
      </trkpt>
      <trkpt lat="41.9576110" lon="-8.8842810">
        <ele>28.1</ele>
        <time>2021-05-19T06:45:35Z</time>
      </trkpt>
      <trkpt lat="41.9576100" lon="-8.8842880">
        <ele>28.1</ele>
        <time>2021-05-19T06:45:36Z</time>
      </trkpt>
      <trkpt lat="41.9576090" lon="-8.8842920">
        <ele>28.1</ele>
        <time>2021-05-19T06:45:37Z</time>
      </trkpt>
      <trkpt lat="41.9576130" lon="-8.8843010">
        <ele>28.1</ele>
        <time>2021-05-19T06:45:38Z</time>
      </trkpt>
      <trkpt lat="41.9576120" lon="-8.8843040">
        <ele>28.1</ele>
        <time>2021-05-19T06:45:39Z</time>
      </trkpt>
      <trkpt lat="41.9576090" lon="-8.8843050">
        <ele>28.1</ele>
        <time>2021-05-19T06:45:40Z</time>
      </trkpt>
      <trkpt lat="41.9576040" lon="-8.8843100">
        <ele>28.1</ele>
        <time>2021-05-19T06:45:41Z</time>
      </trkpt>
      <trkpt lat="41.9575980" lon="-8.8843110">
        <ele>28.2</ele>
        <time>2021-05-19T06:45:42Z</time>
      </trkpt>
      <trkpt lat="41.9575940" lon="-8.8843140">
        <ele>28.2</ele>
        <time>2021-05-19T06:45:43Z</time>
      </trkpt>
      <trkpt lat="41.9575930" lon="-8.8843150">
        <ele>28.2</ele>
        <time>2021-05-19T06:45:44Z</time>
      </trkpt>
      <trkpt lat="41.9575930" lon="-8.8843130">
        <ele>28.2</ele>
        <time>2021-05-19T06:45:45Z</time>
      </trkpt>
      <trkpt lat="41.9575920" lon="-8.8843110">
        <ele>28.2</ele>
        <time>2021-05-19T06:45:46Z</time>
      </trkpt>
      <trkpt lat="41.9575920" lon="-8.8843120">
        <ele>28.2</ele>
        <time>2021-05-19T06:45:47Z</time>
      </trkpt>
      <trkpt lat="41.9575880" lon="-8.8843120">
        <ele>28.2</ele>
        <time>2021-05-19T06:45:48Z</time>
      </trkpt>
      <trkpt lat="41.9575810" lon="-8.8843140">
        <ele>28.2</ele>
        <time>2021-05-19T06:45:49Z</time>
      </trkpt>
      <trkpt lat="41.9575730" lon="-8.8843180">
        <ele>28.2</ele>
        <time>2021-05-19T06:45:50Z</time>
      </trkpt>
      <trkpt lat="41.9575670" lon="-8.8843210">
        <ele>28.2</ele>
        <time>2021-05-19T06:45:51Z</time>
      </trkpt>
      <trkpt lat="41.9575620" lon="-8.8843280">
        <ele>28.2</ele>
        <time>2021-05-19T06:45:52Z</time>
      </trkpt>
      <trkpt lat="41.9575640" lon="-8.8843300">
        <ele>28.2</ele>
        <time>2021-05-19T06:45:53Z</time>
      </trkpt>
      <trkpt lat="41.9575610" lon="-8.8843330">
        <ele>28.2</ele>
        <time>2021-05-19T06:45:54Z</time>
      </trkpt>
      <trkpt lat="41.9575630" lon="-8.8843290">
        <ele>28.2</ele>
        <time>2021-05-19T06:45:55Z</time>
      </trkpt>
      <trkpt lat="41.9575600" lon="-8.8843270">
        <ele>28.2</ele>
        <time>2021-05-19T06:45:56Z</time>
      </trkpt>
      <trkpt lat="41.9575520" lon="-8.8843250">
        <ele>28.2</ele>
        <time>2021-05-19T06:45:57Z</time>
      </trkpt>
      <trkpt lat="41.9575580" lon="-8.8843200">
        <ele>28.2</ele>
        <time>2021-05-19T06:45:58Z</time>
      </trkpt>
      <trkpt lat="41.9575670" lon="-8.8843140">
        <ele>28.2</ele>
        <time>2021-05-19T06:45:59Z</time>
      </trkpt>
      <trkpt lat="41.9575820" lon="-8.8843120">
        <ele>28.3</ele>
        <time>2021-05-19T06:46:00Z</time>
      </trkpt>
      <trkpt lat="41.9575900" lon="-8.8843100">
        <ele>28.3</ele>
        <time>2021-05-19T06:46:01Z</time>
      </trkpt>
      <trkpt lat="41.9575940" lon="-8.8843080">
        <ele>28.3</ele>
        <time>2021-05-19T06:46:02Z</time>
      </trkpt>
      <trkpt lat="41.9576020" lon="-8.8843080">
        <ele>28.3</ele>
        <time>2021-05-19T06:46:03Z</time>
      </trkpt>
      <trkpt lat="41.9576130" lon="-8.8843090">
        <ele>28.3</ele>
        <time>2021-05-19T06:46:04Z</time>
      </trkpt>
      <trkpt lat="41.9576130" lon="-8.8843090">
        <ele>28.3</ele>
        <time>2021-05-19T06:46:05Z</time>
      </trkpt>
      <trkpt lat="41.9576200" lon="-8.8843040">
        <ele>28.3</ele>
        <time>2021-05-19T06:46:06Z</time>
      </trkpt>
      <trkpt lat="41.9576190" lon="-8.8843030">
        <ele>28.3</ele>
        <time>2021-05-19T06:46:07Z</time>
      </trkpt>
      <trkpt lat="41.9576190" lon="-8.8843010">
        <ele>28.3</ele>
        <time>2021-05-19T06:46:08Z</time>
      </trkpt>
      <trkpt lat="41.9576180" lon="-8.8843000">
        <ele>28.3</ele>
        <time>2021-05-19T06:46:09Z</time>
      </trkpt>
      <trkpt lat="41.9576170" lon="-8.8842990">
        <ele>28.3</ele>
        <time>2021-05-19T06:46:10Z</time>
      </trkpt>
      <trkpt lat="41.9576170" lon="-8.8842980">
        <ele>28.3</ele>
        <time>2021-05-19T06:46:11Z</time>
      </trkpt>
      <trkpt lat="41.9576160" lon="-8.8842960">
        <ele>28.3</ele>
        <time>2021-05-19T06:46:12Z</time>
      </trkpt>
      <trkpt lat="41.9576150" lon="-8.8842950">
        <ele>28.3</ele>
        <time>2021-05-19T06:46:13Z</time>
      </trkpt>
      <trkpt lat="41.9576150" lon="-8.8842940">
        <ele>28.3</ele>
        <time>2021-05-19T06:46:14Z</time>
      </trkpt>
      <trkpt lat="41.9576140" lon="-8.8842930">
        <ele>28.3</ele>
        <time>2021-05-19T06:46:15Z</time>
      </trkpt>
      <trkpt lat="41.9576140" lon="-8.8842910">
        <ele>28.3</ele>
        <time>2021-05-19T06:46:16Z</time>
      </trkpt>
      <trkpt lat="41.9576130" lon="-8.8842900">
        <ele>28.3</ele>
        <time>2021-05-19T06:46:17Z</time>
      </trkpt>
      <trkpt lat="41.9576120" lon="-8.8842890">
        <ele>28.3</ele>
        <time>2021-05-19T06:46:18Z</time>
      </trkpt>
      <trkpt lat="41.9576120" lon="-8.8842880">
        <ele>28.3</ele>
        <time>2021-05-19T06:46:19Z</time>
      </trkpt>
      <trkpt lat="41.9576110" lon="-8.8842860">
        <ele>28.3</ele>
        <time>2021-05-19T06:46:20Z</time>
      </trkpt>
      <trkpt lat="41.9576100" lon="-8.8842850">
        <ele>28.3</ele>
        <time>2021-05-19T06:46:21Z</time>
      </trkpt>
      <trkpt lat="41.9576100" lon="-8.8842840">
        <ele>28.3</ele>
        <time>2021-05-19T06:46:22Z</time>
      </trkpt>
      <trkpt lat="41.9576090" lon="-8.8842820">
        <ele>28.3</ele>
        <time>2021-05-19T06:46:23Z</time>
      </trkpt>
      <trkpt lat="41.9576080" lon="-8.8842810">
        <ele>28.3</ele>
        <time>2021-05-19T06:46:24Z</time>
      </trkpt>
      <trkpt lat="41.9576080" lon="-8.8842800">
        <ele>28.3</ele>
        <time>2021-05-19T06:46:25Z</time>
      </trkpt>
      <trkpt lat="41.9576070" lon="-8.8842790">
        <ele>28.3</ele>
        <time>2021-05-19T06:46:26Z</time>
      </trkpt>
      <trkpt lat="41.9576060" lon="-8.8842770">
        <ele>28.3</ele>
        <time>2021-05-19T06:46:27Z</time>
      </trkpt>
      <trkpt lat="41.9576060" lon="-8.8842760">
        <ele>28.3</ele>
        <time>2021-05-19T06:46:28Z</time>
      </trkpt>
      <trkpt lat="41.9576050" lon="-8.8842750">
        <ele>28.3</ele>
        <time>2021-05-19T06:46:29Z</time>
      </trkpt>
      <trkpt lat="41.9576040" lon="-8.8842740">
        <ele>28.3</ele>
        <time>2021-05-19T06:46:30Z</time>
      </trkpt>
      <trkpt lat="41.9576040" lon="-8.8842720">
        <ele>28.3</ele>
        <time>2021-05-19T06:46:31Z</time>
      </trkpt>
      <trkpt lat="41.9576030" lon="-8.8842710">
        <ele>28.3</ele>
        <time>2021-05-19T06:46:32Z</time>
      </trkpt>
      <trkpt lat="41.9576030" lon="-8.8842700">
        <ele>28.3</ele>
        <time>2021-05-19T06:46:33Z</time>
      </trkpt>
      <trkpt lat="41.9576020" lon="-8.8842690">
        <ele>28.3</ele>
        <time>2021-05-19T06:46:34Z</time>
      </trkpt>
      <trkpt lat="41.9576010" lon="-8.8842670">
        <ele>28.3</ele>
        <time>2021-05-19T06:46:35Z</time>
      </trkpt>
      <trkpt lat="41.9576010" lon="-8.8842660">
        <ele>28.3</ele>
        <time>2021-05-19T06:46:36Z</time>
      </trkpt>
      <trkpt lat="41.9576000" lon="-8.8842650">
        <ele>28.3</ele>
        <time>2021-05-19T06:46:37Z</time>
      </trkpt>
      <trkpt lat="41.9575990" lon="-8.8842640">
        <ele>28.3</ele>
        <time>2021-05-19T06:46:38Z</time>
      </trkpt>
      <trkpt lat="41.9575990" lon="-8.8842620">
        <ele>28.3</ele>
        <time>2021-05-19T06:46:39Z</time>
      </trkpt>
      <trkpt lat="41.9575980" lon="-8.8842610">
        <ele>28.3</ele>
        <time>2021-05-19T06:46:40Z</time>
      </trkpt>
      <trkpt lat="41.9575980" lon="-8.8842600">
        <ele>28.3</ele>
        <time>2021-05-19T06:46:41Z</time>
      </trkpt>
      <trkpt lat="41.9575990" lon="-8.8842610">
        <ele>28.3</ele>
        <time>2021-05-19T06:46:42Z</time>
      </trkpt>
      <trkpt lat="41.9576030" lon="-8.8842620">
        <ele>28.3</ele>
        <time>2021-05-19T06:46:43Z</time>
      </trkpt>
      <trkpt lat="41.9576090" lon="-8.8842620">
        <ele>28.3</ele>
        <time>2021-05-19T06:46:44Z</time>
      </trkpt>
      <trkpt lat="41.9576130" lon="-8.8842620">
        <ele>28.3</ele>
        <time>2021-05-19T06:46:45Z</time>
      </trkpt>
      <trkpt lat="41.9576130" lon="-8.8842620">
        <ele>28.3</ele>
        <time>2021-05-19T06:46:46Z</time>
      </trkpt>
      <trkpt lat="41.9576050" lon="-8.8842580">
        <ele>28.4</ele>
        <time>2021-05-19T06:46:47Z</time>
      </trkpt>
      <trkpt lat="41.9576110" lon="-8.8842590">
        <ele>28.4</ele>
        <time>2021-05-19T06:46:48Z</time>
      </trkpt>
      <trkpt lat="41.9576090" lon="-8.8842580">
        <ele>28.4</ele>
        <time>2021-05-19T06:46:49Z</time>
      </trkpt>
      <trkpt lat="41.9576090" lon="-8.8842570">
        <ele>28.4</ele>
        <time>2021-05-19T06:46:50Z</time>
      </trkpt>
      <trkpt lat="41.9576140" lon="-8.8842580">
        <ele>28.4</ele>
        <time>2021-05-19T06:46:51Z</time>
      </trkpt>
      <trkpt lat="41.9576180" lon="-8.8842610">
        <ele>28.4</ele>
        <time>2021-05-19T06:46:52Z</time>
      </trkpt>
      <trkpt lat="41.9576210" lon="-8.8842630">
        <ele>28.4</ele>
        <time>2021-05-19T06:46:53Z</time>
      </trkpt>
      <trkpt lat="41.9576300" lon="-8.8842640">
        <ele>28.4</ele>
        <time>2021-05-19T06:46:54Z</time>
      </trkpt>
      <trkpt lat="41.9576400" lon="-8.8842710">
        <ele>28.4</ele>
        <time>2021-05-19T06:46:55Z</time>
      </trkpt>
      <trkpt lat="41.9576460" lon="-8.8842740">
        <ele>28.4</ele>
        <time>2021-05-19T06:46:56Z</time>
      </trkpt>
      <trkpt lat="41.9576540" lon="-8.8842740">
        <ele>28.4</ele>
        <time>2021-05-19T06:46:57Z</time>
      </trkpt>
      <trkpt lat="41.9576610" lon="-8.8842760">
        <ele>28.4</ele>
        <time>2021-05-19T06:46:58Z</time>
      </trkpt>
      <trkpt lat="41.9576640" lon="-8.8842730">
        <ele>28.4</ele>
        <time>2021-05-19T06:46:59Z</time>
      </trkpt>
      <trkpt lat="41.9576750" lon="-8.8842730">
        <ele>28.4</ele>
        <time>2021-05-19T06:47:00Z</time>
      </trkpt>
      <trkpt lat="41.9576790" lon="-8.8842800">
        <ele>28.4</ele>
        <time>2021-05-19T06:47:01Z</time>
      </trkpt>
      <trkpt lat="41.9576860" lon="-8.8842880">
        <ele>28.4</ele>
        <time>2021-05-19T06:47:02Z</time>
      </trkpt>
      <trkpt lat="41.9576870" lon="-8.8842910">
        <ele>28.4</ele>
        <time>2021-05-19T06:47:03Z</time>
      </trkpt>
      <trkpt lat="41.9576830" lon="-8.8842820">
        <ele>28.4</ele>
        <time>2021-05-19T06:47:04Z</time>
      </trkpt>
      <trkpt lat="41.9576800" lon="-8.8842800">
        <ele>28.4</ele>
        <time>2021-05-19T06:47:05Z</time>
      </trkpt>
      <trkpt lat="41.9576860" lon="-8.8842800">
        <ele>28.4</ele>
        <time>2021-05-19T06:47:06Z</time>
      </trkpt>
      <trkpt lat="41.9576880" lon="-8.8842820">
        <ele>28.4</ele>
        <time>2021-05-19T06:47:07Z</time>
      </trkpt>
      <trkpt lat="41.9576860" lon="-8.8842850">
        <ele>28.4</ele>
        <time>2021-05-19T06:47:08Z</time>
      </trkpt>
      <trkpt lat="41.9576830" lon="-8.8842850">
        <ele>28.4</ele>
        <time>2021-05-19T06:47:09Z</time>
      </trkpt>
      <trkpt lat="41.9576860" lon="-8.8842960">
        <ele>28.5</ele>
        <time>2021-05-19T06:47:10Z</time>
      </trkpt>
      <trkpt lat="41.9576900" lon="-8.8842970">
        <ele>28.5</ele>
        <time>2021-05-19T06:47:11Z</time>
      </trkpt>
      <trkpt lat="41.9576920" lon="-8.8843020">
        <ele>28.5</ele>
        <time>2021-05-19T06:47:12Z</time>
      </trkpt>
      <trkpt lat="41.9576950" lon="-8.8843030">
        <ele>28.5</ele>
        <time>2021-05-19T06:47:13Z</time>
      </trkpt>
      <trkpt lat="41.9576930" lon="-8.8843010">
        <ele>28.5</ele>
        <time>2021-05-19T06:47:14Z</time>
      </trkpt>
      <trkpt lat="41.9576860" lon="-8.8842970">
        <ele>28.5</ele>
        <time>2021-05-19T06:47:15Z</time>
      </trkpt>
      <trkpt lat="41.9576760" lon="-8.8842900">
        <ele>28.5</ele>
        <time>2021-05-19T06:47:16Z</time>
      </trkpt>
      <trkpt lat="41.9576760" lon="-8.8842930">
        <ele>28.5</ele>
        <time>2021-05-19T06:47:17Z</time>
      </trkpt>
      <trkpt lat="41.9576770" lon="-8.8842980">
        <ele>28.5</ele>
        <time>2021-05-19T06:47:18Z</time>
      </trkpt>
      <trkpt lat="41.9576790" lon="-8.8843070">
        <ele>28.5</ele>
        <time>2021-05-19T06:47:19Z</time>
      </trkpt>
      <trkpt lat="41.9576850" lon="-8.8843100">
        <ele>28.5</ele>
        <time>2021-05-19T06:47:20Z</time>
      </trkpt>
      <trkpt lat="41.9576820" lon="-8.8843070">
        <ele>28.5</ele>
        <time>2021-05-19T06:47:21Z</time>
      </trkpt>
      <trkpt lat="41.9576760" lon="-8.8843080">
        <ele>28.5</ele>
        <time>2021-05-19T06:47:22Z</time>
      </trkpt>
      <trkpt lat="41.9576810" lon="-8.8843120">
        <ele>28.5</ele>
        <time>2021-05-19T06:47:23Z</time>
      </trkpt>
      <trkpt lat="41.9576870" lon="-8.8843130">
        <ele>28.5</ele>
        <time>2021-05-19T06:47:24Z</time>
      </trkpt>
      <trkpt lat="41.9576900" lon="-8.8843210">
        <ele>28.5</ele>
        <time>2021-05-19T06:47:25Z</time>
      </trkpt>
      <trkpt lat="41.9576930" lon="-8.8843330">
        <ele>28.5</ele>
        <time>2021-05-19T06:47:26Z</time>
      </trkpt>
      <trkpt lat="41.9576990" lon="-8.8843330">
        <ele>28.5</ele>
        <time>2021-05-19T06:47:27Z</time>
      </trkpt>
      <trkpt lat="41.9576950" lon="-8.8843280">
        <ele>28.5</ele>
        <time>2021-05-19T06:47:28Z</time>
      </trkpt>
      <trkpt lat="41.9576930" lon="-8.8843160">
        <ele>28.5</ele>
        <time>2021-05-19T06:47:29Z</time>
      </trkpt>
      <trkpt lat="41.9576820" lon="-8.8843060">
        <ele>28.5</ele>
        <time>2021-05-19T06:47:30Z</time>
      </trkpt>
      <trkpt lat="41.9576740" lon="-8.8842990">
        <ele>28.5</ele>
        <time>2021-05-19T06:47:31Z</time>
      </trkpt>
      <trkpt lat="41.9576710" lon="-8.8842790">
        <ele>28.6</ele>
        <time>2021-05-19T06:47:32Z</time>
      </trkpt>
      <trkpt lat="41.9576650" lon="-8.8842710">
        <ele>28.6</ele>
        <time>2021-05-19T06:47:33Z</time>
      </trkpt>
      <trkpt lat="41.9576590" lon="-8.8842600">
        <ele>28.6</ele>
        <time>2021-05-19T06:47:34Z</time>
      </trkpt>
      <trkpt lat="41.9576550" lon="-8.8842600">
        <ele>28.6</ele>
        <time>2021-05-19T06:47:35Z</time>
      </trkpt>
      <trkpt lat="41.9576430" lon="-8.8842590">
        <ele>28.6</ele>
        <time>2021-05-19T06:47:36Z</time>
      </trkpt>
      <trkpt lat="41.9576420" lon="-8.8842630">
        <ele>28.6</ele>
        <time>2021-05-19T06:47:37Z</time>
      </trkpt>
      <trkpt lat="41.9576390" lon="-8.8842650">
        <ele>28.6</ele>
        <time>2021-05-19T06:47:38Z</time>
      </trkpt>
      <trkpt lat="41.9576390" lon="-8.8842630">
        <ele>28.6</ele>
        <time>2021-05-19T06:47:39Z</time>
      </trkpt>
      <trkpt lat="41.9576390" lon="-8.8842710">
        <ele>28.6</ele>
        <time>2021-05-19T06:47:40Z</time>
      </trkpt>
      <trkpt lat="41.9576330" lon="-8.8842710">
        <ele>28.6</ele>
        <time>2021-05-19T06:47:41Z</time>
      </trkpt>
      <trkpt lat="41.9576270" lon="-8.8842670">
        <ele>28.6</ele>
        <time>2021-05-19T06:47:42Z</time>
      </trkpt>
      <trkpt lat="41.9576200" lon="-8.8842660">
        <ele>28.6</ele>
        <time>2021-05-19T06:47:43Z</time>
      </trkpt>
      <trkpt lat="41.9576230" lon="-8.8842710">
        <ele>28.6</ele>
        <time>2021-05-19T06:47:44Z</time>
      </trkpt>
      <trkpt lat="41.9576270" lon="-8.8842830">
        <ele>28.6</ele>
        <time>2021-05-19T06:47:45Z</time>
      </trkpt>
      <trkpt lat="41.9576350" lon="-8.8842910">
        <ele>28.6</ele>
        <time>2021-05-19T06:47:46Z</time>
      </trkpt>
      <trkpt lat="41.9576320" lon="-8.8842910">
        <ele>28.6</ele>
        <time>2021-05-19T06:47:47Z</time>
      </trkpt>
      <trkpt lat="41.9576400" lon="-8.8842970">
        <ele>28.6</ele>
        <time>2021-05-19T06:47:48Z</time>
      </trkpt>
      <trkpt lat="41.9576440" lon="-8.8843000">
        <ele>28.6</ele>
        <time>2021-05-19T06:47:49Z</time>
      </trkpt>
      <trkpt lat="41.9576440" lon="-8.8843050">
        <ele>28.6</ele>
        <time>2021-05-19T06:47:50Z</time>
      </trkpt>
      <trkpt lat="41.9576510" lon="-8.8843140">
        <ele>28.6</ele>
        <time>2021-05-19T06:47:51Z</time>
      </trkpt>
      <trkpt lat="41.9576580" lon="-8.8843200">
        <ele>28.6</ele>
        <time>2021-05-19T06:47:52Z</time>
      </trkpt>
      <trkpt lat="41.9576590" lon="-8.8843230">
        <ele>28.6</ele>
        <time>2021-05-19T06:47:53Z</time>
      </trkpt>
      <trkpt lat="41.9576640" lon="-8.8843290">
        <ele>28.6</ele>
        <time>2021-05-19T06:47:54Z</time>
      </trkpt>
      <trkpt lat="41.9576430" lon="-8.8843230">
        <ele>28.6</ele>
        <time>2021-05-19T06:47:55Z</time>
      </trkpt>
      <trkpt lat="41.9576350" lon="-8.8843300">
        <ele>28.7</ele>
        <time>2021-05-19T06:47:56Z</time>
      </trkpt>
      <trkpt lat="41.9576300" lon="-8.8843300">
        <ele>28.7</ele>
        <time>2021-05-19T06:47:57Z</time>
      </trkpt>
      <trkpt lat="41.9576290" lon="-8.8843380">
        <ele>28.7</ele>
        <time>2021-05-19T06:47:58Z</time>
      </trkpt>
      <trkpt lat="41.9576340" lon="-8.8843430">
        <ele>28.7</ele>
        <time>2021-05-19T06:47:59Z</time>
      </trkpt>
      <trkpt lat="41.9576410" lon="-8.8843440">
        <ele>28.7</ele>
        <time>2021-05-19T06:48:00Z</time>
      </trkpt>
      <trkpt lat="41.9576510" lon="-8.8843460">
        <ele>28.7</ele>
        <time>2021-05-19T06:48:01Z</time>
      </trkpt>
      <trkpt lat="41.9576620" lon="-8.8843440">
        <ele>28.7</ele>
        <time>2021-05-19T06:48:02Z</time>
      </trkpt>
      <trkpt lat="41.9576730" lon="-8.8843410">
        <ele>28.7</ele>
        <time>2021-05-19T06:48:03Z</time>
      </trkpt>
      <trkpt lat="41.9576780" lon="-8.8843370">
        <ele>28.7</ele>
        <time>2021-05-19T06:48:04Z</time>
      </trkpt>
      <trkpt lat="41.9576910" lon="-8.8843330">
        <ele>28.7</ele>
        <time>2021-05-19T06:48:05Z</time>
      </trkpt>
      <trkpt lat="41.9577030" lon="-8.8843310">
        <ele>28.7</ele>
        <time>2021-05-19T06:48:06Z</time>
      </trkpt>
      <trkpt lat="41.9577070" lon="-8.8843280">
        <ele>28.7</ele>
        <time>2021-05-19T06:48:07Z</time>
      </trkpt>
      <trkpt lat="41.9577180" lon="-8.8843210">
        <ele>28.7</ele>
        <time>2021-05-19T06:48:08Z</time>
      </trkpt>
      <trkpt lat="41.9577280" lon="-8.8843120">
        <ele>28.7</ele>
        <time>2021-05-19T06:48:09Z</time>
      </trkpt>
      <trkpt lat="41.9577370" lon="-8.8843110">
        <ele>28.7</ele>
        <time>2021-05-19T06:48:10Z</time>
      </trkpt>
      <trkpt lat="41.9577500" lon="-8.8843140">
        <ele>28.7</ele>
        <time>2021-05-19T06:48:11Z</time>
      </trkpt>
      <trkpt lat="41.9577620" lon="-8.8843180">
        <ele>28.7</ele>
        <time>2021-05-19T06:48:12Z</time>
      </trkpt>
      <trkpt lat="41.9577740" lon="-8.8843180">
        <ele>28.8</ele>
        <time>2021-05-19T06:48:13Z</time>
      </trkpt>
      <trkpt lat="41.9577810" lon="-8.8843160">
        <ele>28.8</ele>
        <time>2021-05-19T06:48:14Z</time>
      </trkpt>
      <trkpt lat="41.9577900" lon="-8.8843150">
        <ele>28.8</ele>
        <time>2021-05-19T06:48:15Z</time>
      </trkpt>
      <trkpt lat="41.9577990" lon="-8.8843190">
        <ele>28.8</ele>
        <time>2021-05-19T06:48:16Z</time>
      </trkpt>
      <trkpt lat="41.9578030" lon="-8.8843170">
        <ele>28.8</ele>
        <time>2021-05-19T06:48:17Z</time>
      </trkpt>
      <trkpt lat="41.9578170" lon="-8.8843160">
        <ele>28.8</ele>
        <time>2021-05-19T06:48:18Z</time>
      </trkpt>
      <trkpt lat="41.9578310" lon="-8.8843120">
        <ele>28.8</ele>
        <time>2021-05-19T06:48:19Z</time>
      </trkpt>
      <trkpt lat="41.9578460" lon="-8.8843110">
        <ele>28.8</ele>
        <time>2021-05-19T06:48:20Z</time>
      </trkpt>
      <trkpt lat="41.9578590" lon="-8.8843050">
        <ele>28.8</ele>
        <time>2021-05-19T06:48:21Z</time>
      </trkpt>
      <trkpt lat="41.9578720" lon="-8.8843040">
        <ele>28.8</ele>
        <time>2021-05-19T06:48:22Z</time>
      </trkpt>
      <trkpt lat="41.9578810" lon="-8.8843020">
        <ele>28.8</ele>
        <time>2021-05-19T06:48:23Z</time>
      </trkpt>
      <trkpt lat="41.9578910" lon="-8.8843000">
        <ele>28.8</ele>
        <time>2021-05-19T06:48:24Z</time>
      </trkpt>
      <trkpt lat="41.9578960" lon="-8.8842930">
        <ele>28.8</ele>
        <time>2021-05-19T06:48:25Z</time>
      </trkpt>
      <trkpt lat="41.9579040" lon="-8.8842880">
        <ele>28.8</ele>
        <time>2021-05-19T06:48:26Z</time>
      </trkpt>
      <trkpt lat="41.9579160" lon="-8.8842840">
        <ele>28.9</ele>
        <time>2021-05-19T06:48:27Z</time>
      </trkpt>
      <trkpt lat="41.9579260" lon="-8.8842850">
        <ele>28.9</ele>
        <time>2021-05-19T06:48:28Z</time>
      </trkpt>
      <trkpt lat="41.9579360" lon="-8.8842820">
        <ele>28.9</ele>
        <time>2021-05-19T06:48:29Z</time>
      </trkpt>
      <trkpt lat="41.9579460" lon="-8.8842790">
        <ele>28.9</ele>
        <time>2021-05-19T06:48:30Z</time>
      </trkpt>
      <trkpt lat="41.9579550" lon="-8.8842790">
        <ele>28.9</ele>
        <time>2021-05-19T06:48:31Z</time>
      </trkpt>
      <trkpt lat="41.9579650" lon="-8.8842760">
        <ele>28.9</ele>
        <time>2021-05-19T06:48:32Z</time>
      </trkpt>
      <trkpt lat="41.9579810" lon="-8.8842740">
        <ele>28.9</ele>
        <time>2021-05-19T06:48:33Z</time>
      </trkpt>
      <trkpt lat="41.9579930" lon="-8.8842700">
        <ele>28.9</ele>
        <time>2021-05-19T06:48:34Z</time>
      </trkpt>
      <trkpt lat="41.9580190" lon="-8.8842690">
        <ele>28.9</ele>
        <time>2021-05-19T06:48:35Z</time>
      </trkpt>
      <trkpt lat="41.9580300" lon="-8.8842680">
        <ele>29.0</ele>
        <time>2021-05-19T06:48:36Z</time>
      </trkpt>
      <trkpt lat="41.9580460" lon="-8.8842700">
        <ele>29.0</ele>
        <time>2021-05-19T06:48:37Z</time>
      </trkpt>
      <trkpt lat="41.9580590" lon="-8.8842680">
        <ele>29.0</ele>
        <time>2021-05-19T06:48:38Z</time>
      </trkpt>
      <trkpt lat="41.9580780" lon="-8.8842650">
        <ele>29.0</ele>
        <time>2021-05-19T06:48:39Z</time>
      </trkpt>
      <trkpt lat="41.9580870" lon="-8.8842650">
        <ele>29.0</ele>
        <time>2021-05-19T06:48:40Z</time>
      </trkpt>
      <trkpt lat="41.9580960" lon="-8.8842660">
        <ele>29.0</ele>
        <time>2021-05-19T06:48:41Z</time>
      </trkpt>
      <trkpt lat="41.9581090" lon="-8.8842660">
        <ele>29.0</ele>
        <time>2021-05-19T06:48:42Z</time>
      </trkpt>
      <trkpt lat="41.9581190" lon="-8.8842660">
        <ele>29.0</ele>
        <time>2021-05-19T06:48:43Z</time>
      </trkpt>
      <trkpt lat="41.9581280" lon="-8.8842620">
        <ele>29.0</ele>
        <time>2021-05-19T06:48:44Z</time>
      </trkpt>
      <trkpt lat="41.9581310" lon="-8.8842570">
        <ele>29.0</ele>
        <time>2021-05-19T06:48:45Z</time>
      </trkpt>
      <trkpt lat="41.9581340" lon="-8.8842580">
        <ele>29.1</ele>
        <time>2021-05-19T06:48:46Z</time>
      </trkpt>
      <trkpt lat="41.9581370" lon="-8.8842600">
        <ele>29.1</ele>
        <time>2021-05-19T06:48:47Z</time>
      </trkpt>
      <trkpt lat="41.9581400" lon="-8.8842610">
        <ele>29.1</ele>
        <time>2021-05-19T06:48:48Z</time>
      </trkpt>
      <trkpt lat="41.9581430" lon="-8.8842620">
        <ele>29.1</ele>
        <time>2021-05-19T06:48:49Z</time>
      </trkpt>
      <trkpt lat="41.9581470" lon="-8.8842630">
        <ele>29.1</ele>
        <time>2021-05-19T06:48:50Z</time>
      </trkpt>
      <trkpt lat="41.9581500" lon="-8.8842650">
        <ele>29.1</ele>
        <time>2021-05-19T06:48:51Z</time>
      </trkpt>
      <trkpt lat="41.9581530" lon="-8.8842660">
        <ele>29.1</ele>
        <time>2021-05-19T06:48:52Z</time>
      </trkpt>
      <trkpt lat="41.9581560" lon="-8.8842670">
        <ele>29.1</ele>
        <time>2021-05-19T06:48:53Z</time>
      </trkpt>
      <trkpt lat="41.9581590" lon="-8.8842680">
        <ele>29.1</ele>
        <time>2021-05-19T06:48:54Z</time>
      </trkpt>
      <trkpt lat="41.9581620" lon="-8.8842700">
        <ele>29.1</ele>
        <time>2021-05-19T06:48:55Z</time>
      </trkpt>
      <trkpt lat="41.9581650" lon="-8.8842710">
        <ele>29.1</ele>
        <time>2021-05-19T06:48:56Z</time>
      </trkpt>
      <trkpt lat="41.9581680" lon="-8.8842720">
        <ele>29.1</ele>
        <time>2021-05-19T06:48:57Z</time>
      </trkpt>
      <trkpt lat="41.9581710" lon="-8.8842730">
        <ele>29.1</ele>
        <time>2021-05-19T06:48:58Z</time>
      </trkpt>
      <trkpt lat="41.9581740" lon="-8.8842750">
        <ele>29.1</ele>
        <time>2021-05-19T06:48:59Z</time>
      </trkpt>
      <trkpt lat="41.9581780" lon="-8.8842760">
        <ele>29.1</ele>
        <time>2021-05-19T06:49:00Z</time>
      </trkpt>
      <trkpt lat="41.9581810" lon="-8.8842770">
        <ele>29.1</ele>
        <time>2021-05-19T06:49:01Z</time>
      </trkpt>
      <trkpt lat="41.9581840" lon="-8.8842780">
        <ele>29.1</ele>
        <time>2021-05-19T06:49:02Z</time>
      </trkpt>
      <trkpt lat="41.9581870" lon="-8.8842800">
        <ele>29.1</ele>
        <time>2021-05-19T06:49:03Z</time>
      </trkpt>
      <trkpt lat="41.9581900" lon="-8.8842810">
        <ele>29.1</ele>
        <time>2021-05-19T06:49:04Z</time>
      </trkpt>
      <trkpt lat="41.9581930" lon="-8.8842820">
        <ele>29.1</ele>
        <time>2021-05-19T06:49:05Z</time>
      </trkpt>
      <trkpt lat="41.9581960" lon="-8.8842830">
        <ele>29.1</ele>
        <time>2021-05-19T06:49:06Z</time>
      </trkpt>
      <trkpt lat="41.9581990" lon="-8.8842850">
        <ele>29.1</ele>
        <time>2021-05-19T06:49:07Z</time>
      </trkpt>
      <trkpt lat="41.9582020" lon="-8.8842860">
        <ele>29.1</ele>
        <time>2021-05-19T06:49:08Z</time>
      </trkpt>
      <trkpt lat="41.9582050" lon="-8.8842870">
        <ele>29.1</ele>
        <time>2021-05-19T06:49:09Z</time>
      </trkpt>
      <trkpt lat="41.9582080" lon="-8.8842880">
        <ele>29.1</ele>
        <time>2021-05-19T06:49:10Z</time>
      </trkpt>
      <trkpt lat="41.9582120" lon="-8.8842900">
        <ele>29.1</ele>
        <time>2021-05-19T06:49:11Z</time>
      </trkpt>
      <trkpt lat="41.9582150" lon="-8.8842910">
        <ele>29.1</ele>
        <time>2021-05-19T06:49:12Z</time>
      </trkpt>
      <trkpt lat="41.9582180" lon="-8.8842920">
        <ele>29.1</ele>
        <time>2021-05-19T06:49:13Z</time>
      </trkpt>
      <trkpt lat="41.9582210" lon="-8.8842930">
        <ele>29.1</ele>
        <time>2021-05-19T06:49:14Z</time>
      </trkpt>
      <trkpt lat="41.9582240" lon="-8.8842950">
        <ele>29.1</ele>
        <time>2021-05-19T06:49:15Z</time>
      </trkpt>
      <trkpt lat="41.9582270" lon="-8.8842960">
        <ele>29.1</ele>
        <time>2021-05-19T06:49:16Z</time>
      </trkpt>
      <trkpt lat="41.9582340" lon="-8.8842970">
        <ele>29.2</ele>
        <time>2021-05-19T06:49:17Z</time>
      </trkpt>
      <trkpt lat="41.9582480" lon="-8.8843010">
        <ele>29.2</ele>
        <time>2021-05-19T06:49:18Z</time>
      </trkpt>
      <trkpt lat="41.9582610" lon="-8.8843070">
        <ele>29.2</ele>
        <time>2021-05-19T06:49:19Z</time>
      </trkpt>
      <trkpt lat="41.9582820" lon="-8.8843150">
        <ele>29.2</ele>
        <time>2021-05-19T06:49:20Z</time>
      </trkpt>
      <trkpt lat="41.9582920" lon="-8.8843180">
        <ele>29.2</ele>
        <time>2021-05-19T06:49:21Z</time>
      </trkpt>
      <trkpt lat="41.9583030" lon="-8.8843210">
        <ele>29.2</ele>
        <time>2021-05-19T06:49:22Z</time>
      </trkpt>
      <trkpt lat="41.9583230" lon="-8.8843270">
        <ele>29.3</ele>
        <time>2021-05-19T06:49:23Z</time>
      </trkpt>
      <trkpt lat="41.9583310" lon="-8.8843290">
        <ele>29.3</ele>
        <time>2021-05-19T06:49:24Z</time>
      </trkpt>
      <trkpt lat="41.9583400" lon="-8.8843310">
        <ele>29.3</ele>
        <time>2021-05-19T06:49:25Z</time>
      </trkpt>
      <trkpt lat="41.9583530" lon="-8.8843320">
        <ele>29.3</ele>
        <time>2021-05-19T06:49:26Z</time>
      </trkpt>
      <trkpt lat="41.9583630" lon="-8.8843350">
        <ele>29.3</ele>
        <time>2021-05-19T06:49:27Z</time>
      </trkpt>
      <trkpt lat="41.9583750" lon="-8.8843340">
        <ele>29.3</ele>
        <time>2021-05-19T06:49:28Z</time>
      </trkpt>
      <trkpt lat="41.9583960" lon="-8.8843320">
        <ele>29.3</ele>
        <time>2021-05-19T06:49:29Z</time>
      </trkpt>
      <trkpt lat="41.9584050" lon="-8.8843340">
        <ele>29.3</ele>
        <time>2021-05-19T06:49:30Z</time>
      </trkpt>
      <trkpt lat="41.9584130" lon="-8.8843360">
        <ele>29.3</ele>
        <time>2021-05-19T06:49:31Z</time>
      </trkpt>
      <trkpt lat="41.9584300" lon="-8.8843360">
        <ele>29.4</ele>
        <time>2021-05-19T06:49:32Z</time>
      </trkpt>
      <trkpt lat="41.9584440" lon="-8.8843320">
        <ele>29.4</ele>
        <time>2021-05-19T06:49:33Z</time>
      </trkpt>
      <trkpt lat="41.9584660" lon="-8.8843330">
        <ele>29.4</ele>
        <time>2021-05-19T06:49:34Z</time>
      </trkpt>
      <trkpt lat="41.9584750" lon="-8.8843330">
        <ele>29.4</ele>
        <time>2021-05-19T06:49:35Z</time>
      </trkpt>
      <trkpt lat="41.9584840" lon="-8.8843340">
        <ele>29.4</ele>
        <time>2021-05-19T06:49:36Z</time>
      </trkpt>
      <trkpt lat="41.9585020" lon="-8.8843310">
        <ele>29.4</ele>
        <time>2021-05-19T06:49:37Z</time>
      </trkpt>
      <trkpt lat="41.9585150" lon="-8.8843280">
        <ele>29.5</ele>
        <time>2021-05-19T06:49:38Z</time>
      </trkpt>
      <trkpt lat="41.9585270" lon="-8.8843200">
        <ele>29.5</ele>
        <time>2021-05-19T06:49:39Z</time>
      </trkpt>
      <trkpt lat="41.9585440" lon="-8.8843170">
        <ele>29.5</ele>
        <time>2021-05-19T06:49:40Z</time>
      </trkpt>
      <trkpt lat="41.9585570" lon="-8.8843130">
        <ele>29.5</ele>
        <time>2021-05-19T06:49:41Z</time>
      </trkpt>
      <trkpt lat="41.9585710" lon="-8.8843100">
        <ele>29.5</ele>
        <time>2021-05-19T06:49:42Z</time>
      </trkpt>
      <trkpt lat="41.9585880" lon="-8.8843110">
        <ele>29.6</ele>
        <time>2021-05-19T06:49:43Z</time>
      </trkpt>
      <trkpt lat="41.9586010" lon="-8.8843090">
        <ele>29.6</ele>
        <time>2021-05-19T06:49:44Z</time>
      </trkpt>
      <trkpt lat="41.9586200" lon="-8.8843020">
        <ele>29.6</ele>
        <time>2021-05-19T06:49:45Z</time>
      </trkpt>
      <trkpt lat="41.9586290" lon="-8.8843000">
        <ele>29.6</ele>
        <time>2021-05-19T06:49:46Z</time>
      </trkpt>
      <trkpt lat="41.9586370" lon="-8.8842970">
        <ele>29.6</ele>
        <time>2021-05-19T06:49:47Z</time>
      </trkpt>
      <trkpt lat="41.9586540" lon="-8.8842940">
        <ele>29.6</ele>
        <time>2021-05-19T06:49:48Z</time>
      </trkpt>
      <trkpt lat="41.9586650" lon="-8.8842930">
        <ele>29.6</ele>
        <time>2021-05-19T06:49:49Z</time>
      </trkpt>
      <trkpt lat="41.9586750" lon="-8.8842920">
        <ele>29.7</ele>
        <time>2021-05-19T06:49:50Z</time>
      </trkpt>
      <trkpt lat="41.9586870" lon="-8.8842880">
        <ele>29.7</ele>
        <time>2021-05-19T06:49:51Z</time>
      </trkpt>
      <trkpt lat="41.9587040" lon="-8.8842880">
        <ele>29.7</ele>
        <time>2021-05-19T06:49:52Z</time>
      </trkpt>
      <trkpt lat="41.9587200" lon="-8.8842840">
        <ele>29.7</ele>
        <time>2021-05-19T06:49:53Z</time>
      </trkpt>
      <trkpt lat="41.9587350" lon="-8.8842860">
        <ele>29.7</ele>
        <time>2021-05-19T06:49:54Z</time>
      </trkpt>
      <trkpt lat="41.9587560" lon="-8.8842850">
        <ele>29.8</ele>
        <time>2021-05-19T06:49:55Z</time>
      </trkpt>
      <trkpt lat="41.9587640" lon="-8.8842820">
        <ele>29.8</ele>
        <time>2021-05-19T06:49:56Z</time>
      </trkpt>
      <trkpt lat="41.9587720" lon="-8.8842800">
        <ele>29.8</ele>
        <time>2021-05-19T06:49:57Z</time>
      </trkpt>
      <trkpt lat="41.9587820" lon="-8.8842780">
        <ele>29.8</ele>
        <time>2021-05-19T06:49:58Z</time>
      </trkpt>
      <trkpt lat="41.9587960" lon="-8.8842790">
        <ele>29.8</ele>
        <time>2021-05-19T06:49:59Z</time>
      </trkpt>
      <trkpt lat="41.9588060" lon="-8.8842780">
        <ele>29.8</ele>
        <time>2021-05-19T06:50:00Z</time>
      </trkpt>
      <trkpt lat="41.9588230" lon="-8.8842790">
        <ele>29.9</ele>
        <time>2021-05-19T06:50:01Z</time>
      </trkpt>
      <trkpt lat="41.9588390" lon="-8.8842760">
        <ele>29.9</ele>
        <time>2021-05-19T06:50:02Z</time>
      </trkpt>
      <trkpt lat="41.9588520" lon="-8.8842760">
        <ele>29.9</ele>
        <time>2021-05-19T06:50:03Z</time>
      </trkpt>
      <trkpt lat="41.9588680" lon="-8.8842740">
        <ele>29.9</ele>
        <time>2021-05-19T06:50:04Z</time>
      </trkpt>
      <trkpt lat="41.9588790" lon="-8.8842750">
        <ele>29.9</ele>
        <time>2021-05-19T06:50:05Z</time>
      </trkpt>
      <trkpt lat="41.9588970" lon="-8.8842790">
        <ele>30.0</ele>
        <time>2021-05-19T06:50:06Z</time>
      </trkpt>
      <trkpt lat="41.9589100" lon="-8.8842770">
        <ele>30.0</ele>
        <time>2021-05-19T06:50:07Z</time>
      </trkpt>
      <trkpt lat="41.9589220" lon="-8.8842770">
        <ele>30.0</ele>
        <time>2021-05-19T06:50:08Z</time>
      </trkpt>
      <trkpt lat="41.9589330" lon="-8.8842790">
        <ele>30.0</ele>
        <time>2021-05-19T06:50:09Z</time>
      </trkpt>
      <trkpt lat="41.9589460" lon="-8.8842780">
        <ele>30.0</ele>
        <time>2021-05-19T06:50:10Z</time>
      </trkpt>
      <trkpt lat="41.9589620" lon="-8.8842810">
        <ele>30.1</ele>
        <time>2021-05-19T06:50:11Z</time>
      </trkpt>
      <trkpt lat="41.9589760" lon="-8.8842770">
        <ele>30.1</ele>
        <time>2021-05-19T06:50:12Z</time>
      </trkpt>
      <trkpt lat="41.9589900" lon="-8.8842760">
        <ele>30.1</ele>
        <time>2021-05-19T06:50:13Z</time>
      </trkpt>
      <trkpt lat="41.9590050" lon="-8.8842740">
        <ele>30.1</ele>
        <time>2021-05-19T06:50:14Z</time>
      </trkpt>
      <trkpt lat="41.9590210" lon="-8.8842750">
        <ele>30.1</ele>
        <time>2021-05-19T06:50:15Z</time>
      </trkpt>
      <trkpt lat="41.9590420" lon="-8.8842710">
        <ele>30.2</ele>
        <time>2021-05-19T06:50:16Z</time>
      </trkpt>
      <trkpt lat="41.9590500" lon="-8.8842710">
        <ele>30.2</ele>
        <time>2021-05-19T06:50:17Z</time>
      </trkpt>
      <trkpt lat="41.9590590" lon="-8.8842700">
        <ele>30.2</ele>
        <time>2021-05-19T06:50:18Z</time>
      </trkpt>
      <trkpt lat="41.9590740" lon="-8.8842700">
        <ele>30.2</ele>
        <time>2021-05-19T06:50:19Z</time>
      </trkpt>
      <trkpt lat="41.9590890" lon="-8.8842670">
        <ele>30.2</ele>
        <time>2021-05-19T06:50:20Z</time>
      </trkpt>
      <trkpt lat="41.9591020" lon="-8.8842640">
        <ele>30.3</ele>
        <time>2021-05-19T06:50:21Z</time>
      </trkpt>
      <trkpt lat="41.9591120" lon="-8.8842650">
        <ele>30.3</ele>
        <time>2021-05-19T06:50:22Z</time>
      </trkpt>
      <trkpt lat="41.9591240" lon="-8.8842620">
        <ele>30.3</ele>
        <time>2021-05-19T06:50:23Z</time>
      </trkpt>
      <trkpt lat="41.9591420" lon="-8.8842530">
        <ele>30.3</ele>
        <time>2021-05-19T06:50:24Z</time>
      </trkpt>
      <trkpt lat="41.9591520" lon="-8.8842500">
        <ele>30.3</ele>
        <time>2021-05-19T06:50:25Z</time>
      </trkpt>
      <trkpt lat="41.9591610" lon="-8.8842470">
        <ele>30.3</ele>
        <time>2021-05-19T06:50:26Z</time>
      </trkpt>
      <trkpt lat="41.9591740" lon="-8.8842440">
        <ele>30.4</ele>
        <time>2021-05-19T06:50:27Z</time>
      </trkpt>
      <trkpt lat="41.9591880" lon="-8.8842410">
        <ele>30.4</ele>
        <time>2021-05-19T06:50:28Z</time>
      </trkpt>
      <trkpt lat="41.9591990" lon="-8.8842390">
        <ele>30.4</ele>
        <time>2021-05-19T06:50:29Z</time>
      </trkpt>
      <trkpt lat="41.9592120" lon="-8.8842350">
        <ele>30.4</ele>
        <time>2021-05-19T06:50:30Z</time>
      </trkpt>
      <trkpt lat="41.9592220" lon="-8.8842310">
        <ele>30.4</ele>
        <time>2021-05-19T06:50:31Z</time>
      </trkpt>
      <trkpt lat="41.9592360" lon="-8.8842240">
        <ele>30.4</ele>
        <time>2021-05-19T06:50:32Z</time>
      </trkpt>
      <trkpt lat="41.9592510" lon="-8.8842190">
        <ele>30.5</ele>
        <time>2021-05-19T06:50:33Z</time>
      </trkpt>
      <trkpt lat="41.9592620" lon="-8.8842160">
        <ele>30.5</ele>
        <time>2021-05-19T06:50:34Z</time>
      </trkpt>
      <trkpt lat="41.9592750" lon="-8.8842090">
        <ele>30.5</ele>
        <time>2021-05-19T06:50:35Z</time>
      </trkpt>
      <trkpt lat="41.9592850" lon="-8.8842100">
        <ele>30.5</ele>
        <time>2021-05-19T06:50:36Z</time>
      </trkpt>
      <trkpt lat="41.9592980" lon="-8.8842050">
        <ele>30.5</ele>
        <time>2021-05-19T06:50:37Z</time>
      </trkpt>
      <trkpt lat="41.9593120" lon="-8.8842010">
        <ele>30.5</ele>
        <time>2021-05-19T06:50:38Z</time>
      </trkpt>
      <trkpt lat="41.9593230" lon="-8.8841990">
        <ele>30.6</ele>
        <time>2021-05-19T06:50:39Z</time>
      </trkpt>
      <trkpt lat="41.9593350" lon="-8.8841950">
        <ele>30.6</ele>
        <time>2021-05-19T06:50:40Z</time>
      </trkpt>
      <trkpt lat="41.9593480" lon="-8.8841920">
        <ele>30.6</ele>
        <time>2021-05-19T06:50:41Z</time>
      </trkpt>
      <trkpt lat="41.9593580" lon="-8.8841900">
        <ele>30.6</ele>
        <time>2021-05-19T06:50:42Z</time>
      </trkpt>
      <trkpt lat="41.9593690" lon="-8.8841860">
        <ele>30.6</ele>
        <time>2021-05-19T06:50:43Z</time>
      </trkpt>
      <trkpt lat="41.9593820" lon="-8.8841800">
        <ele>30.6</ele>
        <time>2021-05-19T06:50:44Z</time>
      </trkpt>
      <trkpt lat="41.9594030" lon="-8.8841710">
        <ele>30.7</ele>
        <time>2021-05-19T06:50:45Z</time>
      </trkpt>
      <trkpt lat="41.9594110" lon="-8.8841670">
        <ele>30.7</ele>
        <time>2021-05-19T06:50:46Z</time>
      </trkpt>
      <trkpt lat="41.9594190" lon="-8.8841640">
        <ele>30.7</ele>
        <time>2021-05-19T06:50:47Z</time>
      </trkpt>
      <trkpt lat="41.9594290" lon="-8.8841600">
        <ele>30.7</ele>
        <time>2021-05-19T06:50:48Z</time>
      </trkpt>
      <trkpt lat="41.9594380" lon="-8.8841590">
        <ele>30.7</ele>
        <time>2021-05-19T06:50:49Z</time>
      </trkpt>
      <trkpt lat="41.9594500" lon="-8.8841570">
        <ele>30.7</ele>
        <time>2021-05-19T06:50:50Z</time>
      </trkpt>
      <trkpt lat="41.9594640" lon="-8.8841540">
        <ele>30.7</ele>
        <time>2021-05-19T06:50:51Z</time>
      </trkpt>
      <trkpt lat="41.9594730" lon="-8.8841500">
        <ele>30.8</ele>
        <time>2021-05-19T06:50:52Z</time>
      </trkpt>
      <trkpt lat="41.9594840" lon="-8.8841410">
        <ele>30.8</ele>
        <time>2021-05-19T06:50:53Z</time>
      </trkpt>
      <trkpt lat="41.9595030" lon="-8.8841360">
        <ele>30.8</ele>
        <time>2021-05-19T06:50:54Z</time>
      </trkpt>
      <trkpt lat="41.9595140" lon="-8.8841330">
        <ele>30.8</ele>
        <time>2021-05-19T06:50:55Z</time>
      </trkpt>
      <trkpt lat="41.9595240" lon="-8.8841310">
        <ele>30.8</ele>
        <time>2021-05-19T06:50:56Z</time>
      </trkpt>
      <trkpt lat="41.9595380" lon="-8.8841300">
        <ele>30.8</ele>
        <time>2021-05-19T06:50:57Z</time>
      </trkpt>
      <trkpt lat="41.9595510" lon="-8.8841230">
        <ele>30.9</ele>
        <time>2021-05-19T06:50:58Z</time>
      </trkpt>
      <trkpt lat="41.9595620" lon="-8.8841240">
        <ele>30.9</ele>
        <time>2021-05-19T06:50:59Z</time>
      </trkpt>
      <trkpt lat="41.9595730" lon="-8.8841210">
        <ele>30.9</ele>
        <time>2021-05-19T06:51:00Z</time>
      </trkpt>
      <trkpt lat="41.9595840" lon="-8.8841170">
        <ele>30.9</ele>
        <time>2021-05-19T06:51:01Z</time>
      </trkpt>
      <trkpt lat="41.9596040" lon="-8.8841190">
        <ele>31.0</ele>
        <time>2021-05-19T06:51:02Z</time>
      </trkpt>
      <trkpt lat="41.9596130" lon="-8.8841200">
        <ele>31.0</ele>
        <time>2021-05-19T06:51:03Z</time>
      </trkpt>
      <trkpt lat="41.9596210" lon="-8.8841220">
        <ele>31.0</ele>
        <time>2021-05-19T06:51:04Z</time>
      </trkpt>
      <trkpt lat="41.9596310" lon="-8.8841180">
        <ele>31.1</ele>
        <time>2021-05-19T06:51:05Z</time>
      </trkpt>
      <trkpt lat="41.9596450" lon="-8.8841170">
        <ele>31.1</ele>
        <time>2021-05-19T06:51:06Z</time>
      </trkpt>
      <trkpt lat="41.9596540" lon="-8.8841170">
        <ele>31.1</ele>
        <time>2021-05-19T06:51:07Z</time>
      </trkpt>
      <trkpt lat="41.9596690" lon="-8.8841160">
        <ele>31.2</ele>
        <time>2021-05-19T06:51:08Z</time>
      </trkpt>
      <trkpt lat="41.9596830" lon="-8.8841150">
        <ele>31.2</ele>
        <time>2021-05-19T06:51:09Z</time>
      </trkpt>
      <trkpt lat="41.9596960" lon="-8.8841120">
        <ele>31.2</ele>
        <time>2021-05-19T06:51:10Z</time>
      </trkpt>
      <trkpt lat="41.9597100" lon="-8.8841150">
        <ele>31.3</ele>
        <time>2021-05-19T06:51:11Z</time>
      </trkpt>
      <trkpt lat="41.9597230" lon="-8.8841190">
        <ele>31.3</ele>
        <time>2021-05-19T06:51:12Z</time>
      </trkpt>
      <trkpt lat="41.9597380" lon="-8.8841250">
        <ele>31.3</ele>
        <time>2021-05-19T06:51:13Z</time>
      </trkpt>
      <trkpt lat="41.9597560" lon="-8.8841380">
        <ele>31.4</ele>
        <time>2021-05-19T06:51:14Z</time>
      </trkpt>
      <trkpt lat="41.9597640" lon="-8.8841410">
        <ele>31.4</ele>
        <time>2021-05-19T06:51:15Z</time>
      </trkpt>
      <trkpt lat="41.9597720" lon="-8.8841450">
        <ele>31.4</ele>
        <time>2021-05-19T06:51:16Z</time>
      </trkpt>
      <trkpt lat="41.9597790" lon="-8.8841540">
        <ele>31.4</ele>
        <time>2021-05-19T06:51:17Z</time>
      </trkpt>
      <trkpt lat="41.9597890" lon="-8.8841590">
        <ele>31.4</ele>
        <time>2021-05-19T06:51:18Z</time>
      </trkpt>
      <trkpt lat="41.9597990" lon="-8.8841630">
        <ele>31.5</ele>
        <time>2021-05-19T06:51:19Z</time>
      </trkpt>
      <trkpt lat="41.9598190" lon="-8.8841710">
        <ele>31.5</ele>
        <time>2021-05-19T06:51:20Z</time>
      </trkpt>
      <trkpt lat="41.9598270" lon="-8.8841740">
        <ele>31.5</ele>
        <time>2021-05-19T06:51:21Z</time>
      </trkpt>
      <trkpt lat="41.9598360" lon="-8.8841780">
        <ele>31.5</ele>
        <time>2021-05-19T06:51:22Z</time>
      </trkpt>
      <trkpt lat="41.9598560" lon="-8.8841910">
        <ele>31.5</ele>
        <time>2021-05-19T06:51:23Z</time>
      </trkpt>
      <trkpt lat="41.9598640" lon="-8.8841960">
        <ele>31.5</ele>
        <time>2021-05-19T06:51:24Z</time>
      </trkpt>
      <trkpt lat="41.9598730" lon="-8.8842020">
        <ele>31.6</ele>
        <time>2021-05-19T06:51:25Z</time>
      </trkpt>
      <trkpt lat="41.9598940" lon="-8.8842090">
        <ele>31.6</ele>
        <time>2021-05-19T06:51:26Z</time>
      </trkpt>
      <trkpt lat="41.9599030" lon="-8.8842140">
        <ele>31.6</ele>
        <time>2021-05-19T06:51:27Z</time>
      </trkpt>
      <trkpt lat="41.9599110" lon="-8.8842190">
        <ele>31.6</ele>
        <time>2021-05-19T06:51:28Z</time>
      </trkpt>
      <trkpt lat="41.9599300" lon="-8.8842230">
        <ele>31.6</ele>
        <time>2021-05-19T06:51:29Z</time>
      </trkpt>
      <trkpt lat="41.9599400" lon="-8.8842250">
        <ele>31.7</ele>
        <time>2021-05-19T06:51:30Z</time>
      </trkpt>
      <trkpt lat="41.9599490" lon="-8.8842270">
        <ele>31.7</ele>
        <time>2021-05-19T06:51:31Z</time>
      </trkpt>
      <trkpt lat="41.9599620" lon="-8.8842330">
        <ele>31.7</ele>
        <time>2021-05-19T06:51:32Z</time>
      </trkpt>
      <trkpt lat="41.9599750" lon="-8.8842350">
        <ele>31.7</ele>
        <time>2021-05-19T06:51:33Z</time>
      </trkpt>
      <trkpt lat="41.9599890" lon="-8.8842360">
        <ele>31.7</ele>
        <time>2021-05-19T06:51:34Z</time>
      </trkpt>
      <trkpt lat="41.9600050" lon="-8.8842380">
        <ele>31.7</ele>
        <time>2021-05-19T06:51:35Z</time>
      </trkpt>
      <trkpt lat="41.9600210" lon="-8.8842380">
        <ele>31.8</ele>
        <time>2021-05-19T06:51:36Z</time>
      </trkpt>
      <trkpt lat="41.9600340" lon="-8.8842360">
        <ele>31.8</ele>
        <time>2021-05-19T06:51:37Z</time>
      </trkpt>
      <trkpt lat="41.9600550" lon="-8.8842370">
        <ele>31.8</ele>
        <time>2021-05-19T06:51:38Z</time>
      </trkpt>
      <trkpt lat="41.9600650" lon="-8.8842370">
        <ele>31.8</ele>
        <time>2021-05-19T06:51:39Z</time>
      </trkpt>
      <trkpt lat="41.9600740" lon="-8.8842360">
        <ele>31.8</ele>
        <time>2021-05-19T06:51:40Z</time>
      </trkpt>
      <trkpt lat="41.9600940" lon="-8.8842300">
        <ele>31.8</ele>
        <time>2021-05-19T06:51:41Z</time>
      </trkpt>
      <trkpt lat="41.9601010" lon="-8.8842280">
        <ele>31.9</ele>
        <time>2021-05-19T06:51:42Z</time>
      </trkpt>
      <trkpt lat="41.9601090" lon="-8.8842260">
        <ele>31.9</ele>
        <time>2021-05-19T06:51:43Z</time>
      </trkpt>
      <trkpt lat="41.9601220" lon="-8.8842200">
        <ele>31.9</ele>
        <time>2021-05-19T06:51:44Z</time>
      </trkpt>
      <trkpt lat="41.9601350" lon="-8.8842110">
        <ele>31.9</ele>
        <time>2021-05-19T06:51:45Z</time>
      </trkpt>
      <trkpt lat="41.9601470" lon="-8.8842010">
        <ele>31.9</ele>
        <time>2021-05-19T06:51:46Z</time>
      </trkpt>
      <trkpt lat="41.9601600" lon="-8.8841950">
        <ele>31.9</ele>
        <time>2021-05-19T06:51:47Z</time>
      </trkpt>
      <trkpt lat="41.9601730" lon="-8.8841870">
        <ele>31.9</ele>
        <time>2021-05-19T06:51:48Z</time>
      </trkpt>
      <trkpt lat="41.9601860" lon="-8.8841800">
        <ele>31.9</ele>
        <time>2021-05-19T06:51:49Z</time>
      </trkpt>
      <trkpt lat="41.9602050" lon="-8.8841690">
        <ele>32.0</ele>
        <time>2021-05-19T06:51:50Z</time>
      </trkpt>
      <trkpt lat="41.9602130" lon="-8.8841630">
        <ele>32.0</ele>
        <time>2021-05-19T06:51:51Z</time>
      </trkpt>
      <trkpt lat="41.9602210" lon="-8.8841580">
        <ele>32.0</ele>
        <time>2021-05-19T06:51:52Z</time>
      </trkpt>
      <trkpt lat="41.9602340" lon="-8.8841510">
        <ele>32.0</ele>
        <time>2021-05-19T06:51:53Z</time>
      </trkpt>
      <trkpt lat="41.9602460" lon="-8.8841410">
        <ele>32.0</ele>
        <time>2021-05-19T06:51:54Z</time>
      </trkpt>
      <trkpt lat="41.9602590" lon="-8.8841320">
        <ele>32.0</ele>
        <time>2021-05-19T06:51:55Z</time>
      </trkpt>
      <trkpt lat="41.9602710" lon="-8.8841260">
        <ele>32.0</ele>
        <time>2021-05-19T06:51:56Z</time>
      </trkpt>
      <trkpt lat="41.9602900" lon="-8.8841120">
        <ele>32.1</ele>
        <time>2021-05-19T06:51:57Z</time>
      </trkpt>
      <trkpt lat="41.9602980" lon="-8.8841060">
        <ele>32.1</ele>
        <time>2021-05-19T06:51:58Z</time>
      </trkpt>
      <trkpt lat="41.9603060" lon="-8.8841010">
        <ele>32.1</ele>
        <time>2021-05-19T06:51:59Z</time>
      </trkpt>
      <trkpt lat="41.9603250" lon="-8.8840880">
        <ele>32.1</ele>
        <time>2021-05-19T06:52:00Z</time>
      </trkpt>
      <trkpt lat="41.9603320" lon="-8.8840830">
        <ele>32.1</ele>
        <time>2021-05-19T06:52:01Z</time>
      </trkpt>
      <trkpt lat="41.9603380" lon="-8.8840780">
        <ele>32.1</ele>
        <time>2021-05-19T06:52:02Z</time>
      </trkpt>
      <trkpt lat="41.9603510" lon="-8.8840710">
        <ele>32.1</ele>
        <time>2021-05-19T06:52:03Z</time>
      </trkpt>
      <trkpt lat="41.9603640" lon="-8.8840600">
        <ele>32.2</ele>
        <time>2021-05-19T06:52:04Z</time>
      </trkpt>
      <trkpt lat="41.9603750" lon="-8.8840490">
        <ele>32.2</ele>
        <time>2021-05-19T06:52:05Z</time>
      </trkpt>
      <trkpt lat="41.9603870" lon="-8.8840390">
        <ele>32.2</ele>
        <time>2021-05-19T06:52:06Z</time>
      </trkpt>
      <trkpt lat="41.9604050" lon="-8.8840220">
        <ele>32.2</ele>
        <time>2021-05-19T06:52:07Z</time>
      </trkpt>
      <trkpt lat="41.9604120" lon="-8.8840160">
        <ele>32.3</ele>
        <time>2021-05-19T06:52:08Z</time>
      </trkpt>
      <trkpt lat="41.9604190" lon="-8.8840090">
        <ele>32.3</ele>
        <time>2021-05-19T06:52:09Z</time>
      </trkpt>
      <trkpt lat="41.9604290" lon="-8.8839970">
        <ele>32.3</ele>
        <time>2021-05-19T06:52:10Z</time>
      </trkpt>
      <trkpt lat="41.9604400" lon="-8.8839850">
        <ele>32.3</ele>
        <time>2021-05-19T06:52:11Z</time>
      </trkpt>
      <trkpt lat="41.9604580" lon="-8.8839700">
        <ele>32.4</ele>
        <time>2021-05-19T06:52:12Z</time>
      </trkpt>
      <trkpt lat="41.9604660" lon="-8.8839640">
        <ele>32.4</ele>
        <time>2021-05-19T06:52:13Z</time>
      </trkpt>
      <trkpt lat="41.9604740" lon="-8.8839580">
        <ele>32.4</ele>
        <time>2021-05-19T06:52:14Z</time>
      </trkpt>
      <trkpt lat="41.9604850" lon="-8.8839520">
        <ele>32.5</ele>
        <time>2021-05-19T06:52:15Z</time>
      </trkpt>
      <trkpt lat="41.9604970" lon="-8.8839470">
        <ele>32.5</ele>
        <time>2021-05-19T06:52:16Z</time>
      </trkpt>
      <trkpt lat="41.9605070" lon="-8.8839420">
        <ele>32.6</ele>
        <time>2021-05-19T06:52:17Z</time>
      </trkpt>
      <trkpt lat="41.9605190" lon="-8.8839250">
        <ele>32.7</ele>
        <time>2021-05-19T06:52:18Z</time>
      </trkpt>
      <trkpt lat="41.9605320" lon="-8.8839250">
        <ele>32.7</ele>
        <time>2021-05-19T06:52:19Z</time>
      </trkpt>
      <trkpt lat="41.9605410" lon="-8.8839240">
        <ele>32.8</ele>
        <time>2021-05-19T06:52:20Z</time>
      </trkpt>
      <trkpt lat="41.9605530" lon="-8.8839250">
        <ele>32.8</ele>
        <time>2021-05-19T06:52:21Z</time>
      </trkpt>
      <trkpt lat="41.9605670" lon="-8.8839200">
        <ele>32.9</ele>
        <time>2021-05-19T06:52:22Z</time>
      </trkpt>
      <trkpt lat="41.9605800" lon="-8.8839200">
        <ele>33.0</ele>
        <time>2021-05-19T06:52:23Z</time>
      </trkpt>
      <trkpt lat="41.9605880" lon="-8.8839140">
        <ele>33.1</ele>
        <time>2021-05-19T06:52:24Z</time>
      </trkpt>
      <trkpt lat="41.9606010" lon="-8.8839180">
        <ele>33.2</ele>
        <time>2021-05-19T06:52:25Z</time>
      </trkpt>
      <trkpt lat="41.9606120" lon="-8.8839200">
        <ele>33.3</ele>
        <time>2021-05-19T06:52:26Z</time>
      </trkpt>
      <trkpt lat="41.9606230" lon="-8.8839230">
        <ele>33.4</ele>
        <time>2021-05-19T06:52:27Z</time>
      </trkpt>
      <trkpt lat="41.9606350" lon="-8.8839220">
        <ele>33.5</ele>
        <time>2021-05-19T06:52:28Z</time>
      </trkpt>
      <trkpt lat="41.9606480" lon="-8.8839230">
        <ele>33.6</ele>
        <time>2021-05-19T06:52:29Z</time>
      </trkpt>
      <trkpt lat="41.9606610" lon="-8.8839250">
        <ele>33.7</ele>
        <time>2021-05-19T06:52:30Z</time>
      </trkpt>
      <trkpt lat="41.9606680" lon="-8.8839330">
        <ele>33.8</ele>
        <time>2021-05-19T06:52:31Z</time>
      </trkpt>
      <trkpt lat="41.9606880" lon="-8.8839410">
        <ele>34.0</ele>
        <time>2021-05-19T06:52:32Z</time>
      </trkpt>
      <trkpt lat="41.9606970" lon="-8.8839430">
        <ele>34.1</ele>
        <time>2021-05-19T06:52:33Z</time>
      </trkpt>
      <trkpt lat="41.9607050" lon="-8.8839460">
        <ele>34.2</ele>
        <time>2021-05-19T06:52:34Z</time>
      </trkpt>
      <trkpt lat="41.9607190" lon="-8.8839520">
        <ele>34.3</ele>
        <time>2021-05-19T06:52:35Z</time>
      </trkpt>
      <trkpt lat="41.9607270" lon="-8.8839540">
        <ele>34.4</ele>
        <time>2021-05-19T06:52:36Z</time>
      </trkpt>
      <trkpt lat="41.9607390" lon="-8.8839550">
        <ele>34.5</ele>
        <time>2021-05-19T06:52:37Z</time>
      </trkpt>
      <trkpt lat="41.9607610" lon="-8.8839600">
        <ele>34.7</ele>
        <time>2021-05-19T06:52:38Z</time>
      </trkpt>
      <trkpt lat="41.9607710" lon="-8.8839590">
        <ele>34.8</ele>
        <time>2021-05-19T06:52:39Z</time>
      </trkpt>
      <trkpt lat="41.9607800" lon="-8.8839590">
        <ele>34.9</ele>
        <time>2021-05-19T06:52:40Z</time>
      </trkpt>
      <trkpt lat="41.9607920" lon="-8.8839580">
        <ele>35.1</ele>
        <time>2021-05-19T06:52:41Z</time>
      </trkpt>
      <trkpt lat="41.9608000" lon="-8.8839600">
        <ele>35.1</ele>
        <time>2021-05-19T06:52:42Z</time>
      </trkpt>
      <trkpt lat="41.9608080" lon="-8.8839600">
        <ele>35.2</ele>
        <time>2021-05-19T06:52:43Z</time>
      </trkpt>
      <trkpt lat="41.9608220" lon="-8.8839600">
        <ele>35.3</ele>
        <time>2021-05-19T06:52:44Z</time>
      </trkpt>
      <trkpt lat="41.9608400" lon="-8.8839580">
        <ele>35.5</ele>
        <time>2021-05-19T06:52:45Z</time>
      </trkpt>
      <trkpt lat="41.9608530" lon="-8.8839580">
        <ele>35.6</ele>
        <time>2021-05-19T06:52:46Z</time>
      </trkpt>
      <trkpt lat="41.9608670" lon="-8.8839470">
        <ele>35.7</ele>
        <time>2021-05-19T06:52:47Z</time>
      </trkpt>
      <trkpt lat="41.9608880" lon="-8.8839470">
        <ele>35.9</ele>
        <time>2021-05-19T06:52:48Z</time>
      </trkpt>
      <trkpt lat="41.9608970" lon="-8.8839460">
        <ele>36.0</ele>
        <time>2021-05-19T06:52:49Z</time>
      </trkpt>
      <trkpt lat="41.9609050" lon="-8.8839450">
        <ele>36.0</ele>
        <time>2021-05-19T06:52:50Z</time>
      </trkpt>
      <trkpt lat="41.9609280" lon="-8.8839400">
        <ele>36.2</ele>
        <time>2021-05-19T06:52:51Z</time>
      </trkpt>
      <trkpt lat="41.9609360" lon="-8.8839390">
        <ele>36.3</ele>
        <time>2021-05-19T06:52:52Z</time>
      </trkpt>
      <trkpt lat="41.9609450" lon="-8.8839390">
        <ele>36.3</ele>
        <time>2021-05-19T06:52:53Z</time>
      </trkpt>
      <trkpt lat="41.9609570" lon="-8.8839410">
        <ele>36.4</ele>
        <time>2021-05-19T06:52:54Z</time>
      </trkpt>
      <trkpt lat="41.9609660" lon="-8.8839410">
        <ele>36.5</ele>
        <time>2021-05-19T06:52:55Z</time>
      </trkpt>
      <trkpt lat="41.9609760" lon="-8.8839310">
        <ele>36.6</ele>
        <time>2021-05-19T06:52:56Z</time>
      </trkpt>
      <trkpt lat="41.9609850" lon="-8.8839290">
        <ele>36.6</ele>
        <time>2021-05-19T06:52:57Z</time>
      </trkpt>
      <trkpt lat="41.9610010" lon="-8.8839260">
        <ele>36.7</ele>
        <time>2021-05-19T06:52:58Z</time>
      </trkpt>
      <trkpt lat="41.9610110" lon="-8.8839190">
        <ele>36.8</ele>
        <time>2021-05-19T06:52:59Z</time>
      </trkpt>
      <trkpt lat="41.9610320" lon="-8.8839180">
        <ele>36.9</ele>
        <time>2021-05-19T06:53:00Z</time>
      </trkpt>
      <trkpt lat="41.9610400" lon="-8.8839190">
        <ele>37.0</ele>
        <time>2021-05-19T06:53:01Z</time>
      </trkpt>
      <trkpt lat="41.9610480" lon="-8.8839200">
        <ele>37.0</ele>
        <time>2021-05-19T06:53:02Z</time>
      </trkpt>
      <trkpt lat="41.9610690" lon="-8.8839170">
        <ele>37.1</ele>
        <time>2021-05-19T06:53:03Z</time>
      </trkpt>
      <trkpt lat="41.9610780" lon="-8.8839170">
        <ele>37.2</ele>
        <time>2021-05-19T06:53:04Z</time>
      </trkpt>
      <trkpt lat="41.9610870" lon="-8.8839170">
        <ele>37.2</ele>
        <time>2021-05-19T06:53:05Z</time>
      </trkpt>
      <trkpt lat="41.9611010" lon="-8.8839120">
        <ele>37.3</ele>
        <time>2021-05-19T06:53:06Z</time>
      </trkpt>
      <trkpt lat="41.9611150" lon="-8.8839020">
        <ele>37.3</ele>
        <time>2021-05-19T06:53:07Z</time>
      </trkpt>
      <trkpt lat="41.9611300" lon="-8.8839020">
        <ele>37.4</ele>
        <time>2021-05-19T06:53:08Z</time>
      </trkpt>
      <trkpt lat="41.9611430" lon="-8.8838960">
        <ele>37.5</ele>
        <time>2021-05-19T06:53:09Z</time>
      </trkpt>
      <trkpt lat="41.9611660" lon="-8.8838960">
        <ele>37.5</ele>
        <time>2021-05-19T06:53:10Z</time>
      </trkpt>
      <trkpt lat="41.9611740" lon="-8.8838960">
        <ele>37.5</ele>
        <time>2021-05-19T06:53:11Z</time>
      </trkpt>
      <trkpt lat="41.9611830" lon="-8.8838960">
        <ele>37.6</ele>
        <time>2021-05-19T06:53:12Z</time>
      </trkpt>
      <trkpt lat="41.9611960" lon="-8.8838950">
        <ele>37.6</ele>
        <time>2021-05-19T06:53:13Z</time>
      </trkpt>
      <trkpt lat="41.9612020" lon="-8.8839010">
        <ele>37.6</ele>
        <time>2021-05-19T06:53:14Z</time>
      </trkpt>
      <trkpt lat="41.9612130" lon="-8.8839040">
        <ele>37.6</ele>
        <time>2021-05-19T06:53:15Z</time>
      </trkpt>
      <trkpt lat="41.9612250" lon="-8.8839070">
        <ele>37.6</ele>
        <time>2021-05-19T06:53:16Z</time>
      </trkpt>
      <trkpt lat="41.9612370" lon="-8.8839070">
        <ele>37.6</ele>
        <time>2021-05-19T06:53:17Z</time>
      </trkpt>
      <trkpt lat="41.9612480" lon="-8.8839070">
        <ele>37.7</ele>
        <time>2021-05-19T06:53:18Z</time>
      </trkpt>
      <trkpt lat="41.9612640" lon="-8.8838980">
        <ele>37.7</ele>
        <time>2021-05-19T06:53:19Z</time>
      </trkpt>
      <trkpt lat="41.9612790" lon="-8.8839010">
        <ele>37.7</ele>
        <time>2021-05-19T06:53:20Z</time>
      </trkpt>
      <trkpt lat="41.9612940" lon="-8.8838990">
        <ele>37.7</ele>
        <time>2021-05-19T06:53:21Z</time>
      </trkpt>
      <trkpt lat="41.9613080" lon="-8.8838970">
        <ele>37.7</ele>
        <time>2021-05-19T06:53:22Z</time>
      </trkpt>
      <trkpt lat="41.9613190" lon="-8.8838950">
        <ele>37.7</ele>
        <time>2021-05-19T06:53:23Z</time>
      </trkpt>
      <trkpt lat="41.9613380" lon="-8.8838950">
        <ele>37.7</ele>
        <time>2021-05-19T06:53:24Z</time>
      </trkpt>
      <trkpt lat="41.9613520" lon="-8.8838990">
        <ele>37.7</ele>
        <time>2021-05-19T06:53:25Z</time>
      </trkpt>
      <trkpt lat="41.9613650" lon="-8.8839020">
        <ele>37.7</ele>
        <time>2021-05-19T06:53:26Z</time>
      </trkpt>
      <trkpt lat="41.9613880" lon="-8.8839050">
        <ele>37.6</ele>
        <time>2021-05-19T06:53:27Z</time>
      </trkpt>
      <trkpt lat="41.9613980" lon="-8.8839070">
        <ele>37.6</ele>
        <time>2021-05-19T06:53:28Z</time>
      </trkpt>
      <trkpt lat="41.9614080" lon="-8.8839080">
        <ele>37.6</ele>
        <time>2021-05-19T06:53:29Z</time>
      </trkpt>
      <trkpt lat="41.9614230" lon="-8.8839060">
        <ele>37.6</ele>
        <time>2021-05-19T06:53:30Z</time>
      </trkpt>
      <trkpt lat="41.9614360" lon="-8.8839050">
        <ele>37.6</ele>
        <time>2021-05-19T06:53:31Z</time>
      </trkpt>
      <trkpt lat="41.9614460" lon="-8.8839060">
        <ele>37.6</ele>
        <time>2021-05-19T06:53:32Z</time>
      </trkpt>
      <trkpt lat="41.9614590" lon="-8.8839060">
        <ele>37.6</ele>
        <time>2021-05-19T06:53:33Z</time>
      </trkpt>
      <trkpt lat="41.9614710" lon="-8.8839060">
        <ele>37.5</ele>
        <time>2021-05-19T06:53:34Z</time>
      </trkpt>
      <trkpt lat="41.9614900" lon="-8.8839090">
        <ele>37.5</ele>
        <time>2021-05-19T06:53:35Z</time>
      </trkpt>
      <trkpt lat="41.9615000" lon="-8.8839090">
        <ele>37.5</ele>
        <time>2021-05-19T06:53:36Z</time>
      </trkpt>
      <trkpt lat="41.9615090" lon="-8.8839100">
        <ele>37.5</ele>
        <time>2021-05-19T06:53:37Z</time>
      </trkpt>
      <trkpt lat="41.9615190" lon="-8.8839070">
        <ele>37.5</ele>
        <time>2021-05-19T06:53:38Z</time>
      </trkpt>
      <trkpt lat="41.9615310" lon="-8.8839050">
        <ele>37.5</ele>
        <time>2021-05-19T06:53:39Z</time>
      </trkpt>
      <trkpt lat="41.9615450" lon="-8.8839070">
        <ele>37.5</ele>
        <time>2021-05-19T06:53:40Z</time>
      </trkpt>
      <trkpt lat="41.9615550" lon="-8.8839060">
        <ele>37.4</ele>
        <time>2021-05-19T06:53:41Z</time>
      </trkpt>
      <trkpt lat="41.9615710" lon="-8.8839110">
        <ele>37.4</ele>
        <time>2021-05-19T06:53:42Z</time>
      </trkpt>
      <trkpt lat="41.9615880" lon="-8.8839100">
        <ele>37.4</ele>
        <time>2021-05-19T06:53:43Z</time>
      </trkpt>
      <trkpt lat="41.9616010" lon="-8.8839070">
        <ele>37.4</ele>
        <time>2021-05-19T06:53:44Z</time>
      </trkpt>
      <trkpt lat="41.9616230" lon="-8.8839120">
        <ele>37.3</ele>
        <time>2021-05-19T06:53:45Z</time>
      </trkpt>
      <trkpt lat="41.9616310" lon="-8.8839150">
        <ele>37.3</ele>
        <time>2021-05-19T06:53:46Z</time>
      </trkpt>
      <trkpt lat="41.9616390" lon="-8.8839170">
        <ele>37.3</ele>
        <time>2021-05-19T06:53:47Z</time>
      </trkpt>
      <trkpt lat="41.9616530" lon="-8.8839140">
        <ele>37.3</ele>
        <time>2021-05-19T06:53:48Z</time>
      </trkpt>
      <trkpt lat="41.9616690" lon="-8.8839160">
        <ele>37.3</ele>
        <time>2021-05-19T06:53:49Z</time>
      </trkpt>
      <trkpt lat="41.9616830" lon="-8.8839180">
        <ele>37.2</ele>
        <time>2021-05-19T06:53:50Z</time>
      </trkpt>
      <trkpt lat="41.9616970" lon="-8.8839280">
        <ele>37.2</ele>
        <time>2021-05-19T06:53:51Z</time>
      </trkpt>
      <trkpt lat="41.9617130" lon="-8.8839260">
        <ele>37.2</ele>
        <time>2021-05-19T06:53:52Z</time>
      </trkpt>
      <trkpt lat="41.9617260" lon="-8.8839310">
        <ele>37.1</ele>
        <time>2021-05-19T06:53:53Z</time>
      </trkpt>
      <trkpt lat="41.9617420" lon="-8.8839410">
        <ele>37.1</ele>
        <time>2021-05-19T06:53:54Z</time>
      </trkpt>
      <trkpt lat="41.9617560" lon="-8.8839410">
        <ele>37.1</ele>
        <time>2021-05-19T06:53:55Z</time>
      </trkpt>
      <trkpt lat="41.9617780" lon="-8.8839390">
        <ele>37.0</ele>
        <time>2021-05-19T06:53:56Z</time>
      </trkpt>
      <trkpt lat="41.9617860" lon="-8.8839410">
        <ele>37.0</ele>
        <time>2021-05-19T06:53:57Z</time>
      </trkpt>
      <trkpt lat="41.9617950" lon="-8.8839440">
        <ele>37.0</ele>
        <time>2021-05-19T06:53:58Z</time>
      </trkpt>
      <trkpt lat="41.9618180" lon="-8.8839460">
        <ele>36.9</ele>
        <time>2021-05-19T06:53:59Z</time>
      </trkpt>
      <trkpt lat="41.9618260" lon="-8.8839470">
        <ele>36.9</ele>
        <time>2021-05-19T06:54:00Z</time>
      </trkpt>
      <trkpt lat="41.9618350" lon="-8.8839480">
        <ele>36.9</ele>
        <time>2021-05-19T06:54:01Z</time>
      </trkpt>
      <trkpt lat="41.9618560" lon="-8.8839580">
        <ele>36.9</ele>
        <time>2021-05-19T06:54:02Z</time>
      </trkpt>
      <trkpt lat="41.9618650" lon="-8.8839600">
        <ele>36.8</ele>
        <time>2021-05-19T06:54:03Z</time>
      </trkpt>
      <trkpt lat="41.9618740" lon="-8.8839630">
        <ele>36.8</ele>
        <time>2021-05-19T06:54:04Z</time>
      </trkpt>
      <trkpt lat="41.9618870" lon="-8.8839680">
        <ele>36.8</ele>
        <time>2021-05-19T06:54:05Z</time>
      </trkpt>
      <trkpt lat="41.9619010" lon="-8.8839780">
        <ele>36.8</ele>
        <time>2021-05-19T06:54:06Z</time>
      </trkpt>
      <trkpt lat="41.9619130" lon="-8.8839880">
        <ele>36.7</ele>
        <time>2021-05-19T06:54:07Z</time>
      </trkpt>
      <trkpt lat="41.9619200" lon="-8.8839900">
        <ele>36.7</ele>
        <time>2021-05-19T06:54:08Z</time>
      </trkpt>
      <trkpt lat="41.9619320" lon="-8.8839900">
        <ele>36.7</ele>
        <time>2021-05-19T06:54:09Z</time>
      </trkpt>
      <trkpt lat="41.9619410" lon="-8.8839950">
        <ele>36.7</ele>
        <time>2021-05-19T06:54:10Z</time>
      </trkpt>
      <trkpt lat="41.9619530" lon="-8.8840050">
        <ele>36.6</ele>
        <time>2021-05-19T06:54:11Z</time>
      </trkpt>
      <trkpt lat="41.9619640" lon="-8.8840080">
        <ele>36.6</ele>
        <time>2021-05-19T06:54:12Z</time>
      </trkpt>
      <trkpt lat="41.9619760" lon="-8.8840110">
        <ele>36.6</ele>
        <time>2021-05-19T06:54:13Z</time>
      </trkpt>
      <trkpt lat="41.9619820" lon="-8.8840120">
        <ele>36.6</ele>
        <time>2021-05-19T06:54:14Z</time>
      </trkpt>
      <trkpt lat="41.9619950" lon="-8.8840180">
        <ele>36.5</ele>
        <time>2021-05-19T06:54:15Z</time>
      </trkpt>
      <trkpt lat="41.9620160" lon="-8.8840250">
        <ele>36.5</ele>
        <time>2021-05-19T06:54:16Z</time>
      </trkpt>
      <trkpt lat="41.9620250" lon="-8.8840280">
        <ele>36.5</ele>
        <time>2021-05-19T06:54:17Z</time>
      </trkpt>
      <trkpt lat="41.9620330" lon="-8.8840310">
        <ele>36.4</ele>
        <time>2021-05-19T06:54:18Z</time>
      </trkpt>
      <trkpt lat="41.9620470" lon="-8.8840390">
        <ele>36.4</ele>
        <time>2021-05-19T06:54:19Z</time>
      </trkpt>
      <trkpt lat="41.9620640" lon="-8.8840490">
        <ele>36.3</ele>
        <time>2021-05-19T06:54:20Z</time>
      </trkpt>
      <trkpt lat="41.9620750" lon="-8.8840530">
        <ele>36.3</ele>
        <time>2021-05-19T06:54:21Z</time>
      </trkpt>
      <trkpt lat="41.9620870" lon="-8.8840590">
        <ele>36.2</ele>
        <time>2021-05-19T06:54:22Z</time>
      </trkpt>
      <trkpt lat="41.9620980" lon="-8.8840660">
        <ele>36.2</ele>
        <time>2021-05-19T06:54:23Z</time>
      </trkpt>
      <trkpt lat="41.9621120" lon="-8.8840690">
        <ele>36.1</ele>
        <time>2021-05-19T06:54:24Z</time>
      </trkpt>
      <trkpt lat="41.9621260" lon="-8.8840730">
        <ele>36.0</ele>
        <time>2021-05-19T06:54:25Z</time>
      </trkpt>
      <trkpt lat="41.9621390" lon="-8.8840760">
        <ele>36.0</ele>
        <time>2021-05-19T06:54:26Z</time>
      </trkpt>
      <trkpt lat="41.9621530" lon="-8.8840860">
        <ele>35.9</ele>
        <time>2021-05-19T06:54:27Z</time>
      </trkpt>
      <trkpt lat="41.9621680" lon="-8.8840910">
        <ele>35.8</ele>
        <time>2021-05-19T06:54:28Z</time>
      </trkpt>
      <trkpt lat="41.9621830" lon="-8.8840940">
        <ele>35.7</ele>
        <time>2021-05-19T06:54:29Z</time>
      </trkpt>
      <trkpt lat="41.9621990" lon="-8.8841000">
        <ele>35.5</ele>
        <time>2021-05-19T06:54:30Z</time>
      </trkpt>
      <trkpt lat="41.9622100" lon="-8.8841030">
        <ele>35.5</ele>
        <time>2021-05-19T06:54:31Z</time>
      </trkpt>
      <trkpt lat="41.9622330" lon="-8.8841090">
        <ele>35.3</ele>
        <time>2021-05-19T06:54:32Z</time>
      </trkpt>
      <trkpt lat="41.9622420" lon="-8.8841110">
        <ele>35.3</ele>
        <time>2021-05-19T06:54:33Z</time>
      </trkpt>
      <trkpt lat="41.9622510" lon="-8.8841140">
        <ele>35.2</ele>
        <time>2021-05-19T06:54:34Z</time>
      </trkpt>
      <trkpt lat="41.9622660" lon="-8.8841180">
        <ele>35.1</ele>
        <time>2021-05-19T06:54:35Z</time>
      </trkpt>
      <trkpt lat="41.9622800" lon="-8.8841240">
        <ele>35.1</ele>
        <time>2021-05-19T06:54:36Z</time>
      </trkpt>
      <trkpt lat="41.9622930" lon="-8.8841270">
        <ele>35.0</ele>
        <time>2021-05-19T06:54:37Z</time>
      </trkpt>
      <trkpt lat="41.9623090" lon="-8.8841360">
        <ele>34.9</ele>
        <time>2021-05-19T06:54:38Z</time>
      </trkpt>
      <trkpt lat="41.9623300" lon="-8.8841390">
        <ele>34.8</ele>
        <time>2021-05-19T06:54:39Z</time>
      </trkpt>
      <trkpt lat="41.9623400" lon="-8.8841410">
        <ele>34.7</ele>
        <time>2021-05-19T06:54:40Z</time>
      </trkpt>
      <trkpt lat="41.9623490" lon="-8.8841420">
        <ele>34.7</ele>
        <time>2021-05-19T06:54:41Z</time>
      </trkpt>
      <trkpt lat="41.9623680" lon="-8.8841530">
        <ele>34.6</ele>
        <time>2021-05-19T06:54:42Z</time>
      </trkpt>
      <trkpt lat="41.9623760" lon="-8.8841550">
        <ele>34.6</ele>
        <time>2021-05-19T06:54:43Z</time>
      </trkpt>
      <trkpt lat="41.9623850" lon="-8.8841580">
        <ele>34.5</ele>
        <time>2021-05-19T06:54:44Z</time>
      </trkpt>
      <trkpt lat="41.9623990" lon="-8.8841620">
        <ele>34.4</ele>
        <time>2021-05-19T06:54:45Z</time>
      </trkpt>
      <trkpt lat="41.9624130" lon="-8.8841640">
        <ele>34.4</ele>
        <time>2021-05-19T06:54:46Z</time>
      </trkpt>
      <trkpt lat="41.9624280" lon="-8.8841660">
        <ele>34.3</ele>
        <time>2021-05-19T06:54:47Z</time>
      </trkpt>
      <trkpt lat="41.9624430" lon="-8.8841710">
        <ele>34.3</ele>
        <time>2021-05-19T06:54:48Z</time>
      </trkpt>
      <trkpt lat="41.9624650" lon="-8.8841740">
        <ele>34.2</ele>
        <time>2021-05-19T06:54:49Z</time>
      </trkpt>
      <trkpt lat="41.9624740" lon="-8.8841760">
        <ele>34.1</ele>
        <time>2021-05-19T06:54:50Z</time>
      </trkpt>
      <trkpt lat="41.9624830" lon="-8.8841780">
        <ele>34.1</ele>
        <time>2021-05-19T06:54:51Z</time>
      </trkpt>
      <trkpt lat="41.9625050" lon="-8.8841820">
        <ele>34.0</ele>
        <time>2021-05-19T06:54:52Z</time>
      </trkpt>
      <trkpt lat="41.9625150" lon="-8.8841830">
        <ele>34.0</ele>
        <time>2021-05-19T06:54:53Z</time>
      </trkpt>
      <trkpt lat="41.9625240" lon="-8.8841850">
        <ele>34.0</ele>
        <time>2021-05-19T06:54:54Z</time>
      </trkpt>
      <trkpt lat="41.9625390" lon="-8.8841880">
        <ele>33.9</ele>
        <time>2021-05-19T06:54:55Z</time>
      </trkpt>
      <trkpt lat="41.9625540" lon="-8.8841930">
        <ele>33.9</ele>
        <time>2021-05-19T06:54:56Z</time>
      </trkpt>
      <trkpt lat="41.9625760" lon="-8.8841970">
        <ele>33.9</ele>
        <time>2021-05-19T06:54:57Z</time>
      </trkpt>
      <trkpt lat="41.9625850" lon="-8.8841990">
        <ele>33.8</ele>
        <time>2021-05-19T06:54:58Z</time>
      </trkpt>
      <trkpt lat="41.9625930" lon="-8.8842010">
        <ele>33.8</ele>
        <time>2021-05-19T06:54:59Z</time>
      </trkpt>
      <trkpt lat="41.9626050" lon="-8.8842060">
        <ele>33.8</ele>
        <time>2021-05-19T06:55:00Z</time>
      </trkpt>
      <trkpt lat="41.9626200" lon="-8.8842080">
        <ele>33.8</ele>
        <time>2021-05-19T06:55:01Z</time>
      </trkpt>
      <trkpt lat="41.9626420" lon="-8.8842180">
        <ele>33.7</ele>
        <time>2021-05-19T06:55:02Z</time>
      </trkpt>
      <trkpt lat="41.9626480" lon="-8.8842220">
        <ele>33.7</ele>
        <time>2021-05-19T06:55:03Z</time>
      </trkpt>
      <trkpt lat="41.9626550" lon="-8.8842260">
        <ele>33.7</ele>
        <time>2021-05-19T06:55:04Z</time>
      </trkpt>
      <trkpt lat="41.9626690" lon="-8.8842290">
        <ele>33.7</ele>
        <time>2021-05-19T06:55:05Z</time>
      </trkpt>
      <trkpt lat="41.9626840" lon="-8.8842320">
        <ele>33.6</ele>
        <time>2021-05-19T06:55:06Z</time>
      </trkpt>
      <trkpt lat="41.9627050" lon="-8.8842400">
        <ele>33.6</ele>
        <time>2021-05-19T06:55:07Z</time>
      </trkpt>
      <trkpt lat="41.9627140" lon="-8.8842440">
        <ele>33.6</ele>
        <time>2021-05-19T06:55:08Z</time>
      </trkpt>
      <trkpt lat="41.9627220" lon="-8.8842480">
        <ele>33.6</ele>
        <time>2021-05-19T06:55:09Z</time>
      </trkpt>
      <trkpt lat="41.9627420" lon="-8.8842560">
        <ele>33.5</ele>
        <time>2021-05-19T06:55:10Z</time>
      </trkpt>
      <trkpt lat="41.9627490" lon="-8.8842600">
        <ele>33.5</ele>
        <time>2021-05-19T06:55:11Z</time>
      </trkpt>
      <trkpt lat="41.9627570" lon="-8.8842640">
        <ele>33.5</ele>
        <time>2021-05-19T06:55:12Z</time>
      </trkpt>
      <trkpt lat="41.9627800" lon="-8.8842710">
        <ele>33.5</ele>
        <time>2021-05-19T06:55:13Z</time>
      </trkpt>
      <trkpt lat="41.9627880" lon="-8.8842730">
        <ele>33.5</ele>
        <time>2021-05-19T06:55:14Z</time>
      </trkpt>
      <trkpt lat="41.9627970" lon="-8.8842750">
        <ele>33.5</ele>
        <time>2021-05-19T06:55:15Z</time>
      </trkpt>
      <trkpt lat="41.9628120" lon="-8.8842810">
        <ele>33.4</ele>
        <time>2021-05-19T06:55:16Z</time>
      </trkpt>
      <trkpt lat="41.9628230" lon="-8.8842870">
        <ele>33.4</ele>
        <time>2021-05-19T06:55:17Z</time>
      </trkpt>
      <trkpt lat="41.9628430" lon="-8.8842940">
        <ele>33.4</ele>
        <time>2021-05-19T06:55:18Z</time>
      </trkpt>
      <trkpt lat="41.9628520" lon="-8.8842950">
        <ele>33.4</ele>
        <time>2021-05-19T06:55:19Z</time>
      </trkpt>
      <trkpt lat="41.9628620" lon="-8.8842970">
        <ele>33.4</ele>
        <time>2021-05-19T06:55:20Z</time>
      </trkpt>
      <trkpt lat="41.9628730" lon="-8.8842980">
        <ele>33.3</ele>
        <time>2021-05-19T06:55:21Z</time>
      </trkpt>
      <trkpt lat="41.9628850" lon="-8.8843010">
        <ele>33.3</ele>
        <time>2021-05-19T06:55:22Z</time>
      </trkpt>
      <trkpt lat="41.9628960" lon="-8.8843060">
        <ele>33.3</ele>
        <time>2021-05-19T06:55:23Z</time>
      </trkpt>
      <trkpt lat="41.9629180" lon="-8.8843100">
        <ele>33.3</ele>
        <time>2021-05-19T06:55:24Z</time>
      </trkpt>
      <trkpt lat="41.9629260" lon="-8.8843150">
        <ele>33.3</ele>
        <time>2021-05-19T06:55:25Z</time>
      </trkpt>
      <trkpt lat="41.9629340" lon="-8.8843190">
        <ele>33.2</ele>
        <time>2021-05-19T06:55:26Z</time>
      </trkpt>
      <trkpt lat="41.9629540" lon="-8.8843240">
        <ele>33.2</ele>
        <time>2021-05-19T06:55:27Z</time>
      </trkpt>
      <trkpt lat="41.9629630" lon="-8.8843250">
        <ele>33.2</ele>
        <time>2021-05-19T06:55:28Z</time>
      </trkpt>
      <trkpt lat="41.9629710" lon="-8.8843260">
        <ele>33.2</ele>
        <time>2021-05-19T06:55:29Z</time>
      </trkpt>
      <trkpt lat="41.9629850" lon="-8.8843280">
        <ele>33.2</ele>
        <time>2021-05-19T06:55:30Z</time>
      </trkpt>
      <trkpt lat="41.9630030" lon="-8.8843280">
        <ele>33.1</ele>
        <time>2021-05-19T06:55:31Z</time>
      </trkpt>
      <trkpt lat="41.9630230" lon="-8.8843280">
        <ele>33.1</ele>
        <time>2021-05-19T06:55:32Z</time>
      </trkpt>
      <trkpt lat="41.9630320" lon="-8.8843290">
        <ele>33.1</ele>
        <time>2021-05-19T06:55:33Z</time>
      </trkpt>
      <trkpt lat="41.9630400" lon="-8.8843300">
        <ele>33.1</ele>
        <time>2021-05-19T06:55:34Z</time>
      </trkpt>
      <trkpt lat="41.9630620" lon="-8.8843330">
        <ele>33.0</ele>
        <time>2021-05-19T06:55:35Z</time>
      </trkpt>
      <trkpt lat="41.9630700" lon="-8.8843350">
        <ele>33.0</ele>
        <time>2021-05-19T06:55:36Z</time>
      </trkpt>
      <trkpt lat="41.9630790" lon="-8.8843370">
        <ele>33.0</ele>
        <time>2021-05-19T06:55:37Z</time>
      </trkpt>
      <trkpt lat="41.9631000" lon="-8.8843400">
        <ele>33.0</ele>
        <time>2021-05-19T06:55:38Z</time>
      </trkpt>
      <trkpt lat="41.9631090" lon="-8.8843390">
        <ele>33.0</ele>
        <time>2021-05-19T06:55:39Z</time>
      </trkpt>
      <trkpt lat="41.9631180" lon="-8.8843390">
        <ele>33.0</ele>
        <time>2021-05-19T06:55:40Z</time>
      </trkpt>
      <trkpt lat="41.9631310" lon="-8.8843450">
        <ele>33.0</ele>
        <time>2021-05-19T06:55:41Z</time>
      </trkpt>
      <trkpt lat="41.9631450" lon="-8.8843450">
        <ele>32.9</ele>
        <time>2021-05-19T06:55:42Z</time>
      </trkpt>
      <trkpt lat="41.9631660" lon="-8.8843490">
        <ele>32.9</ele>
        <time>2021-05-19T06:55:43Z</time>
      </trkpt>
      <trkpt lat="41.9631750" lon="-8.8843520">
        <ele>32.9</ele>
        <time>2021-05-19T06:55:44Z</time>
      </trkpt>
      <trkpt lat="41.9631830" lon="-8.8843550">
        <ele>32.9</ele>
        <time>2021-05-19T06:55:45Z</time>
      </trkpt>
      <trkpt lat="41.9631900" lon="-8.8843560">
        <ele>32.9</ele>
        <time>2021-05-19T06:55:46Z</time>
      </trkpt>
      <trkpt lat="41.9632060" lon="-8.8843630">
        <ele>32.9</ele>
        <time>2021-05-19T06:55:47Z</time>
      </trkpt>
      <trkpt lat="41.9632180" lon="-8.8843630">
        <ele>32.9</ele>
        <time>2021-05-19T06:55:48Z</time>
      </trkpt>
      <trkpt lat="41.9632320" lon="-8.8843680">
        <ele>32.9</ele>
        <time>2021-05-19T06:55:49Z</time>
      </trkpt>
      <trkpt lat="41.9632460" lon="-8.8843750">
        <ele>32.8</ele>
        <time>2021-05-19T06:55:50Z</time>
      </trkpt>
      <trkpt lat="41.9632600" lon="-8.8843810">
        <ele>32.8</ele>
        <time>2021-05-19T06:55:51Z</time>
      </trkpt>
      <trkpt lat="41.9632720" lon="-8.8843840">
        <ele>32.8</ele>
        <time>2021-05-19T06:55:52Z</time>
      </trkpt>
      <trkpt lat="41.9632850" lon="-8.8843880">
        <ele>32.8</ele>
        <time>2021-05-19T06:55:53Z</time>
      </trkpt>
      <trkpt lat="41.9632970" lon="-8.8843900">
        <ele>32.8</ele>
        <time>2021-05-19T06:55:54Z</time>
      </trkpt>
      <trkpt lat="41.9633080" lon="-8.8843900">
        <ele>32.8</ele>
        <time>2021-05-19T06:55:55Z</time>
      </trkpt>
      <trkpt lat="41.9633170" lon="-8.8843940">
        <ele>32.8</ele>
        <time>2021-05-19T06:55:56Z</time>
      </trkpt>
      <trkpt lat="41.9633290" lon="-8.8844040">
        <ele>32.8</ele>
        <time>2021-05-19T06:55:57Z</time>
      </trkpt>
      <trkpt lat="41.9633430" lon="-8.8844030">
        <ele>32.8</ele>
        <time>2021-05-19T06:55:58Z</time>
      </trkpt>
      <trkpt lat="41.9633530" lon="-8.8844070">
        <ele>32.7</ele>
        <time>2021-05-19T06:55:59Z</time>
      </trkpt>
      <trkpt lat="41.9633710" lon="-8.8844100">
        <ele>32.7</ele>
        <time>2021-05-19T06:56:00Z</time>
      </trkpt>
      <trkpt lat="41.9633920" lon="-8.8844150">
        <ele>32.7</ele>
        <time>2021-05-19T06:56:01Z</time>
      </trkpt>
      <trkpt lat="41.9634020" lon="-8.8844200">
        <ele>32.7</ele>
        <time>2021-05-19T06:56:02Z</time>
      </trkpt>
      <trkpt lat="41.9634110" lon="-8.8844240">
        <ele>32.7</ele>
        <time>2021-05-19T06:56:03Z</time>
      </trkpt>
      <trkpt lat="41.9634330" lon="-8.8844300">
        <ele>32.7</ele>
        <time>2021-05-19T06:56:04Z</time>
      </trkpt>
      <trkpt lat="41.9634430" lon="-8.8844330">
        <ele>32.7</ele>
        <time>2021-05-19T06:56:05Z</time>
      </trkpt>
      <trkpt lat="41.9634520" lon="-8.8844360">
        <ele>32.7</ele>
        <time>2021-05-19T06:56:06Z</time>
      </trkpt>
      <trkpt lat="41.9634670" lon="-8.8844330">
        <ele>32.7</ele>
        <time>2021-05-19T06:56:07Z</time>
      </trkpt>
      <trkpt lat="41.9634810" lon="-8.8844330">
        <ele>32.6</ele>
        <time>2021-05-19T06:56:08Z</time>
      </trkpt>
      <trkpt lat="41.9635050" lon="-8.8844350">
        <ele>32.6</ele>
        <time>2021-05-19T06:56:09Z</time>
      </trkpt>
      <trkpt lat="41.9635130" lon="-8.8844360">
        <ele>32.6</ele>
        <time>2021-05-19T06:56:10Z</time>
      </trkpt>
      <trkpt lat="41.9635220" lon="-8.8844370">
        <ele>32.6</ele>
        <time>2021-05-19T06:56:11Z</time>
      </trkpt>
      <trkpt lat="41.9635350" lon="-8.8844410">
        <ele>32.6</ele>
        <time>2021-05-19T06:56:12Z</time>
      </trkpt>
      <trkpt lat="41.9635500" lon="-8.8844440">
        <ele>32.6</ele>
        <time>2021-05-19T06:56:13Z</time>
      </trkpt>
      <trkpt lat="41.9635720" lon="-8.8844450">
        <ele>32.6</ele>
        <time>2021-05-19T06:56:14Z</time>
      </trkpt>
      <trkpt lat="41.9635810" lon="-8.8844450">
        <ele>32.6</ele>
        <time>2021-05-19T06:56:15Z</time>
      </trkpt>
      <trkpt lat="41.9635900" lon="-8.8844460">
        <ele>32.6</ele>
        <time>2021-05-19T06:56:16Z</time>
      </trkpt>
      <trkpt lat="41.9636100" lon="-8.8844480">
        <ele>32.6</ele>
        <time>2021-05-19T06:56:17Z</time>
      </trkpt>
      <trkpt lat="41.9636190" lon="-8.8844500">
        <ele>32.5</ele>
        <time>2021-05-19T06:56:18Z</time>
      </trkpt>
      <trkpt lat="41.9636270" lon="-8.8844510">
        <ele>32.5</ele>
        <time>2021-05-19T06:56:19Z</time>
      </trkpt>
      <trkpt lat="41.9636420" lon="-8.8844550">
        <ele>32.5</ele>
        <time>2021-05-19T06:56:20Z</time>
      </trkpt>
      <trkpt lat="41.9636550" lon="-8.8844580">
        <ele>32.5</ele>
        <time>2021-05-19T06:56:21Z</time>
      </trkpt>
      <trkpt lat="41.9636770" lon="-8.8844630">
        <ele>32.5</ele>
        <time>2021-05-19T06:56:22Z</time>
      </trkpt>
      <trkpt lat="41.9636850" lon="-8.8844640">
        <ele>32.5</ele>
        <time>2021-05-19T06:56:23Z</time>
      </trkpt>
      <trkpt lat="41.9636940" lon="-8.8844640">
        <ele>32.5</ele>
        <time>2021-05-19T06:56:24Z</time>
      </trkpt>
      <trkpt lat="41.9637080" lon="-8.8844630">
        <ele>32.5</ele>
        <time>2021-05-19T06:56:25Z</time>
      </trkpt>
      <trkpt lat="41.9637230" lon="-8.8844630">
        <ele>32.5</ele>
        <time>2021-05-19T06:56:26Z</time>
      </trkpt>
      <trkpt lat="41.9637340" lon="-8.8844630">
        <ele>32.5</ele>
        <time>2021-05-19T06:56:27Z</time>
      </trkpt>
      <trkpt lat="41.9637460" lon="-8.8844630">
        <ele>32.5</ele>
        <time>2021-05-19T06:56:28Z</time>
      </trkpt>
      <trkpt lat="41.9637580" lon="-8.8844620">
        <ele>32.4</ele>
        <time>2021-05-19T06:56:29Z</time>
      </trkpt>
      <trkpt lat="41.9637710" lon="-8.8844620">
        <ele>32.4</ele>
        <time>2021-05-19T06:56:30Z</time>
      </trkpt>
      <trkpt lat="41.9637850" lon="-8.8844610">
        <ele>32.4</ele>
        <time>2021-05-19T06:56:31Z</time>
      </trkpt>
      <trkpt lat="41.9637990" lon="-8.8844580">
        <ele>32.4</ele>
        <time>2021-05-19T06:56:32Z</time>
      </trkpt>
      <trkpt lat="41.9638090" lon="-8.8844560">
        <ele>32.4</ele>
        <time>2021-05-19T06:56:33Z</time>
      </trkpt>
      <trkpt lat="41.9638170" lon="-8.8844570">
        <ele>32.4</ele>
        <time>2021-05-19T06:56:34Z</time>
      </trkpt>
      <trkpt lat="41.9638260" lon="-8.8844570">
        <ele>32.4</ele>
        <time>2021-05-19T06:56:35Z</time>
      </trkpt>
      <trkpt lat="41.9638350" lon="-8.8844580">
        <ele>32.4</ele>
        <time>2021-05-19T06:56:36Z</time>
      </trkpt>
      <trkpt lat="41.9638470" lon="-8.8844600">
        <ele>32.4</ele>
        <time>2021-05-19T06:56:37Z</time>
      </trkpt>
      <trkpt lat="41.9638530" lon="-8.8844680">
        <ele>32.4</ele>
        <time>2021-05-19T06:56:38Z</time>
      </trkpt>
      <trkpt lat="41.9638550" lon="-8.8844730">
        <ele>32.4</ele>
        <time>2021-05-19T06:56:39Z</time>
      </trkpt>
      <trkpt lat="41.9638560" lon="-8.8844710">
        <ele>32.4</ele>
        <time>2021-05-19T06:56:40Z</time>
      </trkpt>
      <trkpt lat="41.9638560" lon="-8.8844680">
        <ele>32.4</ele>
        <time>2021-05-19T06:56:41Z</time>
      </trkpt>
      <trkpt lat="41.9638590" lon="-8.8844650">
        <ele>32.4</ele>
        <time>2021-05-19T06:56:42Z</time>
      </trkpt>
      <trkpt lat="41.9638600" lon="-8.8844620">
        <ele>32.4</ele>
        <time>2021-05-19T06:56:43Z</time>
      </trkpt>
      <trkpt lat="41.9638610" lon="-8.8844640">
        <ele>32.4</ele>
        <time>2021-05-19T06:56:44Z</time>
      </trkpt>
      <trkpt lat="41.9638700" lon="-8.8844640">
        <ele>32.4</ele>
        <time>2021-05-19T06:56:45Z</time>
      </trkpt>
      <trkpt lat="41.9638760" lon="-8.8844630">
        <ele>32.4</ele>
        <time>2021-05-19T06:56:46Z</time>
      </trkpt>
      <trkpt lat="41.9638800" lon="-8.8844640">
        <ele>32.4</ele>
        <time>2021-05-19T06:56:47Z</time>
      </trkpt>
      <trkpt lat="41.9638810" lon="-8.8844640">
        <ele>32.4</ele>
        <time>2021-05-19T06:56:48Z</time>
      </trkpt>
      <trkpt lat="41.9638820" lon="-8.8844640">
        <ele>32.4</ele>
        <time>2021-05-19T06:56:49Z</time>
      </trkpt>
      <trkpt lat="41.9638820" lon="-8.8844610">
        <ele>32.4</ele>
        <time>2021-05-19T06:56:50Z</time>
      </trkpt>
      <trkpt lat="41.9638830" lon="-8.8844620">
        <ele>32.4</ele>
        <time>2021-05-19T06:56:51Z</time>
      </trkpt>
      <trkpt lat="41.9638850" lon="-8.8844610">
        <ele>32.4</ele>
        <time>2021-05-19T06:56:52Z</time>
      </trkpt>
      <trkpt lat="41.9638820" lon="-8.8844590">
        <ele>32.4</ele>
        <time>2021-05-19T06:56:53Z</time>
      </trkpt>
      <trkpt lat="41.9638810" lon="-8.8844580">
        <ele>32.4</ele>
        <time>2021-05-19T06:56:54Z</time>
      </trkpt>
      <trkpt lat="41.9638780" lon="-8.8844560">
        <ele>32.4</ele>
        <time>2021-05-19T06:56:55Z</time>
      </trkpt>
      <trkpt lat="41.9638770" lon="-8.8844550">
        <ele>32.4</ele>
        <time>2021-05-19T06:56:56Z</time>
      </trkpt>
      <trkpt lat="41.9638770" lon="-8.8844540">
        <ele>32.4</ele>
        <time>2021-05-19T06:56:57Z</time>
      </trkpt>
      <trkpt lat="41.9638810" lon="-8.8844540">
        <ele>32.4</ele>
        <time>2021-05-19T06:56:58Z</time>
      </trkpt>
      <trkpt lat="41.9638950" lon="-8.8844500">
        <ele>32.4</ele>
        <time>2021-05-19T06:56:59Z</time>
      </trkpt>
      <trkpt lat="41.9639030" lon="-8.8844490">
        <ele>32.4</ele>
        <time>2021-05-19T06:57:00Z</time>
      </trkpt>
      <trkpt lat="41.9639110" lon="-8.8844490">
        <ele>32.4</ele>
        <time>2021-05-19T06:57:01Z</time>
      </trkpt>
      <trkpt lat="41.9639230" lon="-8.8844470">
        <ele>32.4</ele>
        <time>2021-05-19T06:57:02Z</time>
      </trkpt>
      <trkpt lat="41.9639360" lon="-8.8844440">
        <ele>32.4</ele>
        <time>2021-05-19T06:57:03Z</time>
      </trkpt>
      <trkpt lat="41.9639470" lon="-8.8844420">
        <ele>32.4</ele>
        <time>2021-05-19T06:57:04Z</time>
      </trkpt>
      <trkpt lat="41.9639610" lon="-8.8844400">
        <ele>32.4</ele>
        <time>2021-05-19T06:57:05Z</time>
      </trkpt>
      <trkpt lat="41.9639700" lon="-8.8844370">
        <ele>32.4</ele>
        <time>2021-05-19T06:57:06Z</time>
      </trkpt>
      <trkpt lat="41.9639820" lon="-8.8844310">
        <ele>32.4</ele>
        <time>2021-05-19T06:57:07Z</time>
      </trkpt>
      <trkpt lat="41.9639950" lon="-8.8844300">
        <ele>32.4</ele>
        <time>2021-05-19T06:57:08Z</time>
      </trkpt>
      <trkpt lat="41.9640050" lon="-8.8844280">
        <ele>32.3</ele>
        <time>2021-05-19T06:57:09Z</time>
      </trkpt>
      <trkpt lat="41.9640150" lon="-8.8844240">
        <ele>32.3</ele>
        <time>2021-05-19T06:57:10Z</time>
      </trkpt>
      <trkpt lat="41.9640260" lon="-8.8844230">
        <ele>32.3</ele>
        <time>2021-05-19T06:57:11Z</time>
      </trkpt>
      <trkpt lat="41.9640390" lon="-8.8844190">
        <ele>32.3</ele>
        <time>2021-05-19T06:57:12Z</time>
      </trkpt>
      <trkpt lat="41.9640600" lon="-8.8844130">
        <ele>32.3</ele>
        <time>2021-05-19T06:57:13Z</time>
      </trkpt>
      <trkpt lat="41.9640680" lon="-8.8844110">
        <ele>32.3</ele>
        <time>2021-05-19T06:57:14Z</time>
      </trkpt>
      <trkpt lat="41.9640760" lon="-8.8844090">
        <ele>32.3</ele>
        <time>2021-05-19T06:57:15Z</time>
      </trkpt>
      <trkpt lat="41.9640980" lon="-8.8844050">
        <ele>32.4</ele>
        <time>2021-05-19T06:57:16Z</time>
      </trkpt>
      <trkpt lat="41.9641060" lon="-8.8844030">
        <ele>32.4</ele>
        <time>2021-05-19T06:57:17Z</time>
      </trkpt>
      <trkpt lat="41.9641150" lon="-8.8844020">
        <ele>32.4</ele>
        <time>2021-05-19T06:57:18Z</time>
      </trkpt>
      <trkpt lat="41.9641360" lon="-8.8844010">
        <ele>32.4</ele>
        <time>2021-05-19T06:57:19Z</time>
      </trkpt>
      <trkpt lat="41.9641450" lon="-8.8844010">
        <ele>32.4</ele>
        <time>2021-05-19T06:57:20Z</time>
      </trkpt>
      <trkpt lat="41.9641530" lon="-8.8844010">
        <ele>32.4</ele>
        <time>2021-05-19T06:57:21Z</time>
      </trkpt>
      <trkpt lat="41.9641640" lon="-8.8843990">
        <ele>32.4</ele>
        <time>2021-05-19T06:57:22Z</time>
      </trkpt>
      <trkpt lat="41.9641750" lon="-8.8843940">
        <ele>32.4</ele>
        <time>2021-05-19T06:57:23Z</time>
      </trkpt>
      <trkpt lat="41.9641880" lon="-8.8843900">
        <ele>32.4</ele>
        <time>2021-05-19T06:57:24Z</time>
      </trkpt>
      <trkpt lat="41.9642080" lon="-8.8843880">
        <ele>32.4</ele>
        <time>2021-05-19T06:57:25Z</time>
      </trkpt>
      <trkpt lat="41.9642170" lon="-8.8843870">
        <ele>32.4</ele>
        <time>2021-05-19T06:57:26Z</time>
      </trkpt>
      <trkpt lat="41.9642260" lon="-8.8843850">
        <ele>32.4</ele>
        <time>2021-05-19T06:57:27Z</time>
      </trkpt>
      <trkpt lat="41.9642380" lon="-8.8843780">
        <ele>32.4</ele>
        <time>2021-05-19T06:57:28Z</time>
      </trkpt>
      <trkpt lat="41.9642510" lon="-8.8843720">
        <ele>32.4</ele>
        <time>2021-05-19T06:57:29Z</time>
      </trkpt>
      <trkpt lat="41.9642610" lon="-8.8843710">
        <ele>32.4</ele>
        <time>2021-05-19T06:57:30Z</time>
      </trkpt>
      <trkpt lat="41.9642810" lon="-8.8843630">
        <ele>32.5</ele>
        <time>2021-05-19T06:57:31Z</time>
      </trkpt>
      <trkpt lat="41.9642910" lon="-8.8843570">
        <ele>32.5</ele>
        <time>2021-05-19T06:57:32Z</time>
      </trkpt>
      <trkpt lat="41.9643000" lon="-8.8843520">
        <ele>32.5</ele>
        <time>2021-05-19T06:57:33Z</time>
      </trkpt>
      <trkpt lat="41.9643190" lon="-8.8843440">
        <ele>32.5</ele>
        <time>2021-05-19T06:57:34Z</time>
      </trkpt>
      <trkpt lat="41.9643270" lon="-8.8843390">
        <ele>32.5</ele>
        <time>2021-05-19T06:57:35Z</time>
      </trkpt>
      <trkpt lat="41.9643360" lon="-8.8843350">
        <ele>32.5</ele>
        <time>2021-05-19T06:57:36Z</time>
      </trkpt>
      <trkpt lat="41.9643590" lon="-8.8843310">
        <ele>32.6</ele>
        <time>2021-05-19T06:57:37Z</time>
      </trkpt>
      <trkpt lat="41.9643690" lon="-8.8843320">
        <ele>32.6</ele>
        <time>2021-05-19T06:57:38Z</time>
      </trkpt>
      <trkpt lat="41.9643780" lon="-8.8843320">
        <ele>32.6</ele>
        <time>2021-05-19T06:57:39Z</time>
      </trkpt>
      <trkpt lat="41.9643990" lon="-8.8843300">
        <ele>32.6</ele>
        <time>2021-05-19T06:57:40Z</time>
      </trkpt>
      <trkpt lat="41.9644060" lon="-8.8843280">
        <ele>32.6</ele>
        <time>2021-05-19T06:57:41Z</time>
      </trkpt>
      <trkpt lat="41.9644140" lon="-8.8843270">
        <ele>32.7</ele>
        <time>2021-05-19T06:57:42Z</time>
      </trkpt>
      <trkpt lat="41.9644240" lon="-8.8843270">
        <ele>32.7</ele>
        <time>2021-05-19T06:57:43Z</time>
      </trkpt>
      <trkpt lat="41.9644360" lon="-8.8843240">
        <ele>32.7</ele>
        <time>2021-05-19T06:57:44Z</time>
      </trkpt>
      <trkpt lat="41.9644480" lon="-8.8843220">
        <ele>32.7</ele>
        <time>2021-05-19T06:57:45Z</time>
      </trkpt>
      <trkpt lat="41.9644700" lon="-8.8843220">
        <ele>32.8</ele>
        <time>2021-05-19T06:57:46Z</time>
      </trkpt>
      <trkpt lat="41.9644780" lon="-8.8843220">
        <ele>32.8</ele>
        <time>2021-05-19T06:57:47Z</time>
      </trkpt>
      <trkpt lat="41.9644870" lon="-8.8843210">
        <ele>32.8</ele>
        <time>2021-05-19T06:57:48Z</time>
      </trkpt>
      <trkpt lat="41.9645080" lon="-8.8843190">
        <ele>32.9</ele>
        <time>2021-05-19T06:57:49Z</time>
      </trkpt>
      <trkpt lat="41.9645180" lon="-8.8843190">
        <ele>32.9</ele>
        <time>2021-05-19T06:57:50Z</time>
      </trkpt>
      <trkpt lat="41.9645270" lon="-8.8843190">
        <ele>33.0</ele>
        <time>2021-05-19T06:57:51Z</time>
      </trkpt>
      <trkpt lat="41.9645470" lon="-8.8843130">
        <ele>33.0</ele>
        <time>2021-05-19T06:57:52Z</time>
      </trkpt>
      <trkpt lat="41.9645550" lon="-8.8843110">
        <ele>33.0</ele>
        <time>2021-05-19T06:57:53Z</time>
      </trkpt>
      <trkpt lat="41.9645640" lon="-8.8843100">
        <ele>33.1</ele>
        <time>2021-05-19T06:57:54Z</time>
      </trkpt>
      <trkpt lat="41.9645860" lon="-8.8843050">
        <ele>33.1</ele>
        <time>2021-05-19T06:57:55Z</time>
      </trkpt>
      <trkpt lat="41.9645940" lon="-8.8843020">
        <ele>33.2</ele>
        <time>2021-05-19T06:57:56Z</time>
      </trkpt>
      <trkpt lat="41.9646030" lon="-8.8842980">
        <ele>33.2</ele>
        <time>2021-05-19T06:57:57Z</time>
      </trkpt>
      <trkpt lat="41.9646230" lon="-8.8842900">
        <ele>33.3</ele>
        <time>2021-05-19T06:57:58Z</time>
      </trkpt>
      <trkpt lat="41.9646320" lon="-8.8842870">
        <ele>33.3</ele>
        <time>2021-05-19T06:57:59Z</time>
      </trkpt>
      <trkpt lat="41.9646400" lon="-8.8842850">
        <ele>33.3</ele>
        <time>2021-05-19T06:58:00Z</time>
      </trkpt>
      <trkpt lat="41.9646510" lon="-8.8842800">
        <ele>33.4</ele>
        <time>2021-05-19T06:58:01Z</time>
      </trkpt>
      <trkpt lat="41.9646630" lon="-8.8842740">
        <ele>33.4</ele>
        <time>2021-05-19T06:58:02Z</time>
      </trkpt>
      <trkpt lat="41.9646730" lon="-8.8842700">
        <ele>33.4</ele>
        <time>2021-05-19T06:58:03Z</time>
      </trkpt>
      <trkpt lat="41.9646930" lon="-8.8842650">
        <ele>33.5</ele>
        <time>2021-05-19T06:58:04Z</time>
      </trkpt>
      <trkpt lat="41.9647020" lon="-8.8842630">
        <ele>33.5</ele>
        <time>2021-05-19T06:58:05Z</time>
      </trkpt>
      <trkpt lat="41.9647100" lon="-8.8842620">
        <ele>33.5</ele>
        <time>2021-05-19T06:58:06Z</time>
      </trkpt>
      <trkpt lat="41.9647290" lon="-8.8842520">
        <ele>33.6</ele>
        <time>2021-05-19T06:58:07Z</time>
      </trkpt>
      <trkpt lat="41.9647370" lon="-8.8842480">
        <ele>33.6</ele>
        <time>2021-05-19T06:58:08Z</time>
      </trkpt>
      <trkpt lat="41.9647450" lon="-8.8842440">
        <ele>33.6</ele>
        <time>2021-05-19T06:58:09Z</time>
      </trkpt>
      <trkpt lat="41.9647660" lon="-8.8842360">
        <ele>33.6</ele>
        <time>2021-05-19T06:58:10Z</time>
      </trkpt>
      <trkpt lat="41.9647740" lon="-8.8842330">
        <ele>33.6</ele>
        <time>2021-05-19T06:58:11Z</time>
      </trkpt>
      <trkpt lat="41.9647820" lon="-8.8842300">
        <ele>33.7</ele>
        <time>2021-05-19T06:58:12Z</time>
      </trkpt>
      <trkpt lat="41.9648030" lon="-8.8842220">
        <ele>33.7</ele>
        <time>2021-05-19T06:58:13Z</time>
      </trkpt>
      <trkpt lat="41.9648120" lon="-8.8842180">
        <ele>33.7</ele>
        <time>2021-05-19T06:58:14Z</time>
      </trkpt>
      <trkpt lat="41.9648200" lon="-8.8842150">
        <ele>33.7</ele>
        <time>2021-05-19T06:58:15Z</time>
      </trkpt>
      <trkpt lat="41.9648400" lon="-8.8842090">
        <ele>33.7</ele>
        <time>2021-05-19T06:58:16Z</time>
      </trkpt>
      <trkpt lat="41.9648490" lon="-8.8842060">
        <ele>33.7</ele>
        <time>2021-05-19T06:58:17Z</time>
      </trkpt>
      <trkpt lat="41.9648570" lon="-8.8842020">
        <ele>33.7</ele>
        <time>2021-05-19T06:58:18Z</time>
      </trkpt>
      <trkpt lat="41.9648780" lon="-8.8841890">
        <ele>33.8</ele>
        <time>2021-05-19T06:58:19Z</time>
      </trkpt>
      <trkpt lat="41.9648860" lon="-8.8841860">
        <ele>33.8</ele>
        <time>2021-05-19T06:58:20Z</time>
      </trkpt>
      <trkpt lat="41.9648940" lon="-8.8841820">
        <ele>33.8</ele>
        <time>2021-05-19T06:58:21Z</time>
      </trkpt>
      <trkpt lat="41.9649130" lon="-8.8841750">
        <ele>33.8</ele>
        <time>2021-05-19T06:58:22Z</time>
      </trkpt>
      <trkpt lat="41.9649220" lon="-8.8841710">
        <ele>33.8</ele>
        <time>2021-05-19T06:58:23Z</time>
      </trkpt>
      <trkpt lat="41.9649310" lon="-8.8841680">
        <ele>33.8</ele>
        <time>2021-05-19T06:58:24Z</time>
      </trkpt>
      <trkpt lat="41.9649520" lon="-8.8841580">
        <ele>33.8</ele>
        <time>2021-05-19T06:58:25Z</time>
      </trkpt>
      <trkpt lat="41.9649600" lon="-8.8841550">
        <ele>33.8</ele>
        <time>2021-05-19T06:58:26Z</time>
      </trkpt>
      <trkpt lat="41.9649690" lon="-8.8841530">
        <ele>33.8</ele>
        <time>2021-05-19T06:58:27Z</time>
      </trkpt>
      <trkpt lat="41.9649910" lon="-8.8841460">
        <ele>33.8</ele>
        <time>2021-05-19T06:58:28Z</time>
      </trkpt>
      <trkpt lat="41.9650010" lon="-8.8841430">
        <ele>33.8</ele>
        <time>2021-05-19T06:58:29Z</time>
      </trkpt>
      <trkpt lat="41.9650100" lon="-8.8841400">
        <ele>33.8</ele>
        <time>2021-05-19T06:58:30Z</time>
      </trkpt>
      <trkpt lat="41.9650230" lon="-8.8841350">
        <ele>33.8</ele>
        <time>2021-05-19T06:58:31Z</time>
      </trkpt>
      <trkpt lat="41.9650370" lon="-8.8841320">
        <ele>33.8</ele>
        <time>2021-05-19T06:58:32Z</time>
      </trkpt>
      <trkpt lat="41.9650560" lon="-8.8841270">
        <ele>33.8</ele>
        <time>2021-05-19T06:58:33Z</time>
      </trkpt>
      <trkpt lat="41.9650650" lon="-8.8841240">
        <ele>33.9</ele>
        <time>2021-05-19T06:58:34Z</time>
      </trkpt>
      <trkpt lat="41.9650730" lon="-8.8841220">
        <ele>33.9</ele>
        <time>2021-05-19T06:58:35Z</time>
      </trkpt>
      <trkpt lat="41.9650960" lon="-8.8841180">
        <ele>33.9</ele>
        <time>2021-05-19T06:58:36Z</time>
      </trkpt>
      <trkpt lat="41.9651060" lon="-8.8841170">
        <ele>33.9</ele>
        <time>2021-05-19T06:58:37Z</time>
      </trkpt>
      <trkpt lat="41.9651150" lon="-8.8841160">
        <ele>33.9</ele>
        <time>2021-05-19T06:58:38Z</time>
      </trkpt>
      <trkpt lat="41.9651290" lon="-8.8841140">
        <ele>33.9</ele>
        <time>2021-05-19T06:58:39Z</time>
      </trkpt>
      <trkpt lat="41.9651430" lon="-8.8841150">
        <ele>33.9</ele>
        <time>2021-05-19T06:58:40Z</time>
      </trkpt>
      <trkpt lat="41.9651650" lon="-8.8841180">
        <ele>33.9</ele>
        <time>2021-05-19T06:58:41Z</time>
      </trkpt>
      <trkpt lat="41.9651720" lon="-8.8841200">
        <ele>33.9</ele>
        <time>2021-05-19T06:58:42Z</time>
      </trkpt>
      <trkpt lat="41.9651800" lon="-8.8841230">
        <ele>33.9</ele>
        <time>2021-05-19T06:58:43Z</time>
      </trkpt>
      <trkpt lat="41.9651940" lon="-8.8841310">
        <ele>34.0</ele>
        <time>2021-05-19T06:58:44Z</time>
      </trkpt>
      <trkpt lat="41.9652050" lon="-8.8841380">
        <ele>34.0</ele>
        <time>2021-05-19T06:58:45Z</time>
      </trkpt>
      <trkpt lat="41.9652180" lon="-8.8841460">
        <ele>34.0</ele>
        <time>2021-05-19T06:58:46Z</time>
      </trkpt>
      <trkpt lat="41.9652310" lon="-8.8841540">
        <ele>34.0</ele>
        <time>2021-05-19T06:58:47Z</time>
      </trkpt>
      <trkpt lat="41.9652520" lon="-8.8841660">
        <ele>34.0</ele>
        <time>2021-05-19T06:58:48Z</time>
      </trkpt>
      <trkpt lat="41.9652580" lon="-8.8841720">
        <ele>34.0</ele>
        <time>2021-05-19T06:58:49Z</time>
      </trkpt>
      <trkpt lat="41.9652640" lon="-8.8841780">
        <ele>34.0</ele>
        <time>2021-05-19T06:58:50Z</time>
      </trkpt>
      <trkpt lat="41.9652800" lon="-8.8841930">
        <ele>34.0</ele>
        <time>2021-05-19T06:58:51Z</time>
      </trkpt>
      <trkpt lat="41.9652890" lon="-8.8842000">
        <ele>34.0</ele>
        <time>2021-05-19T06:58:52Z</time>
      </trkpt>
      <trkpt lat="41.9652990" lon="-8.8842060">
        <ele>34.1</ele>
        <time>2021-05-19T06:58:53Z</time>
      </trkpt>
      <trkpt lat="41.9653090" lon="-8.8842200">
        <ele>34.1</ele>
        <time>2021-05-19T06:58:54Z</time>
      </trkpt>
      <trkpt lat="41.9653220" lon="-8.8842260">
        <ele>34.1</ele>
        <time>2021-05-19T06:58:55Z</time>
      </trkpt>
      <trkpt lat="41.9653430" lon="-8.8842380">
        <ele>34.1</ele>
        <time>2021-05-19T06:58:56Z</time>
      </trkpt>
      <trkpt lat="41.9653500" lon="-8.8842430">
        <ele>34.1</ele>
        <time>2021-05-19T06:58:57Z</time>
      </trkpt>
      <trkpt lat="41.9653580" lon="-8.8842480">
        <ele>34.1</ele>
        <time>2021-05-19T06:58:58Z</time>
      </trkpt>
      <trkpt lat="41.9653690" lon="-8.8842560">
        <ele>34.1</ele>
        <time>2021-05-19T06:58:59Z</time>
      </trkpt>
      <trkpt lat="41.9653840" lon="-8.8842600">
        <ele>34.1</ele>
        <time>2021-05-19T06:59:00Z</time>
      </trkpt>
      <trkpt lat="41.9653940" lon="-8.8842640">
        <ele>34.1</ele>
        <time>2021-05-19T06:59:01Z</time>
      </trkpt>
      <trkpt lat="41.9654070" lon="-8.8842710">
        <ele>34.1</ele>
        <time>2021-05-19T06:59:02Z</time>
      </trkpt>
      <trkpt lat="41.9654160" lon="-8.8842760">
        <ele>34.1</ele>
        <time>2021-05-19T06:59:03Z</time>
      </trkpt>
      <trkpt lat="41.9654350" lon="-8.8842860">
        <ele>34.2</ele>
        <time>2021-05-19T06:59:04Z</time>
      </trkpt>
      <trkpt lat="41.9654440" lon="-8.8842890">
        <ele>34.2</ele>
        <time>2021-05-19T06:59:05Z</time>
      </trkpt>
      <trkpt lat="41.9654520" lon="-8.8842920">
        <ele>34.2</ele>
        <time>2021-05-19T06:59:06Z</time>
      </trkpt>
      <trkpt lat="41.9654730" lon="-8.8842940">
        <ele>34.2</ele>
        <time>2021-05-19T06:59:07Z</time>
      </trkpt>
      <trkpt lat="41.9654810" lon="-8.8842950">
        <ele>34.2</ele>
        <time>2021-05-19T06:59:08Z</time>
      </trkpt>
      <trkpt lat="41.9654890" lon="-8.8842960">
        <ele>34.2</ele>
        <time>2021-05-19T06:59:09Z</time>
      </trkpt>
      <trkpt lat="41.9655020" lon="-8.8842970">
        <ele>34.2</ele>
        <time>2021-05-19T06:59:10Z</time>
      </trkpt>
      <trkpt lat="41.9655120" lon="-8.8843010">
        <ele>34.2</ele>
        <time>2021-05-19T06:59:11Z</time>
      </trkpt>
      <trkpt lat="41.9655200" lon="-8.8843030">
        <ele>34.2</ele>
        <time>2021-05-19T06:59:12Z</time>
      </trkpt>
      <trkpt lat="41.9655290" lon="-8.8843010">
        <ele>34.2</ele>
        <time>2021-05-19T06:59:13Z</time>
      </trkpt>
      <trkpt lat="41.9655380" lon="-8.8843030">
        <ele>34.2</ele>
        <time>2021-05-19T06:59:14Z</time>
      </trkpt>
      <trkpt lat="41.9655520" lon="-8.8843050">
        <ele>34.2</ele>
        <time>2021-05-19T06:59:15Z</time>
      </trkpt>
      <trkpt lat="41.9655660" lon="-8.8843050">
        <ele>34.2</ele>
        <time>2021-05-19T06:59:16Z</time>
      </trkpt>
      <trkpt lat="41.9655800" lon="-8.8843040">
        <ele>34.2</ele>
        <time>2021-05-19T06:59:17Z</time>
      </trkpt>
      <trkpt lat="41.9655910" lon="-8.8843010">
        <ele>34.2</ele>
        <time>2021-05-19T06:59:18Z</time>
      </trkpt>
      <trkpt lat="41.9656010" lon="-8.8843040">
        <ele>34.2</ele>
        <time>2021-05-19T06:59:19Z</time>
      </trkpt>
      <trkpt lat="41.9656120" lon="-8.8843030">
        <ele>34.3</ele>
        <time>2021-05-19T06:59:20Z</time>
      </trkpt>
      <trkpt lat="41.9656220" lon="-8.8842970">
        <ele>34.3</ele>
        <time>2021-05-19T06:59:21Z</time>
      </trkpt>
      <trkpt lat="41.9656320" lon="-8.8842920">
        <ele>34.3</ele>
        <time>2021-05-19T06:59:22Z</time>
      </trkpt>
      <trkpt lat="41.9656430" lon="-8.8842930">
        <ele>34.3</ele>
        <time>2021-05-19T06:59:23Z</time>
      </trkpt>
      <trkpt lat="41.9656670" lon="-8.8842960">
        <ele>34.3</ele>
        <time>2021-05-19T06:59:24Z</time>
      </trkpt>
      <trkpt lat="41.9656770" lon="-8.8843000">
        <ele>34.3</ele>
        <time>2021-05-19T06:59:25Z</time>
      </trkpt>
      <trkpt lat="41.9656880" lon="-8.8843030">
        <ele>34.3</ele>
        <time>2021-05-19T06:59:26Z</time>
      </trkpt>
      <trkpt lat="41.9657020" lon="-8.8843090">
        <ele>34.3</ele>
        <time>2021-05-19T06:59:27Z</time>
      </trkpt>
      <trkpt lat="41.9657170" lon="-8.8843100">
        <ele>34.3</ele>
        <time>2021-05-19T06:59:28Z</time>
      </trkpt>
      <trkpt lat="41.9657370" lon="-8.8843160">
        <ele>34.3</ele>
        <time>2021-05-19T06:59:29Z</time>
      </trkpt>
      <trkpt lat="41.9657460" lon="-8.8843170">
        <ele>34.3</ele>
        <time>2021-05-19T06:59:30Z</time>
      </trkpt>
      <trkpt lat="41.9657540" lon="-8.8843190">
        <ele>34.3</ele>
        <time>2021-05-19T06:59:31Z</time>
      </trkpt>
      <trkpt lat="41.9657740" lon="-8.8843230">
        <ele>34.4</ele>
        <time>2021-05-19T06:59:32Z</time>
      </trkpt>
      <trkpt lat="41.9657830" lon="-8.8843220">
        <ele>34.4</ele>
        <time>2021-05-19T06:59:33Z</time>
      </trkpt>
      <trkpt lat="41.9657920" lon="-8.8843220">
        <ele>34.4</ele>
        <time>2021-05-19T06:59:34Z</time>
      </trkpt>
      <trkpt lat="41.9658060" lon="-8.8843230">
        <ele>34.4</ele>
        <time>2021-05-19T06:59:35Z</time>
      </trkpt>
      <trkpt lat="41.9658200" lon="-8.8843230">
        <ele>34.4</ele>
        <time>2021-05-19T06:59:36Z</time>
      </trkpt>
      <trkpt lat="41.9658350" lon="-8.8843240">
        <ele>34.4</ele>
        <time>2021-05-19T06:59:37Z</time>
      </trkpt>
      <trkpt lat="41.9658480" lon="-8.8843250">
        <ele>34.4</ele>
        <time>2021-05-19T06:59:38Z</time>
      </trkpt>
      <trkpt lat="41.9658620" lon="-8.8843230">
        <ele>34.4</ele>
        <time>2021-05-19T06:59:39Z</time>
      </trkpt>
      <trkpt lat="41.9658750" lon="-8.8843210">
        <ele>34.4</ele>
        <time>2021-05-19T06:59:40Z</time>
      </trkpt>
      <trkpt lat="41.9658870" lon="-8.8843170">
        <ele>34.4</ele>
        <time>2021-05-19T06:59:41Z</time>
      </trkpt>
      <trkpt lat="41.9658960" lon="-8.8843200">
        <ele>34.5</ele>
        <time>2021-05-19T06:59:42Z</time>
      </trkpt>
      <trkpt lat="41.9659080" lon="-8.8843140">
        <ele>34.5</ele>
        <time>2021-05-19T06:59:43Z</time>
      </trkpt>
      <trkpt lat="41.9659170" lon="-8.8843090">
        <ele>34.5</ele>
        <time>2021-05-19T06:59:44Z</time>
      </trkpt>
      <trkpt lat="41.9659330" lon="-8.8843050">
        <ele>34.5</ele>
        <time>2021-05-19T06:59:45Z</time>
      </trkpt>
      <trkpt lat="41.9659420" lon="-8.8842980">
        <ele>34.5</ele>
        <time>2021-05-19T06:59:46Z</time>
      </trkpt>
      <trkpt lat="41.9659530" lon="-8.8842950">
        <ele>34.5</ele>
        <time>2021-05-19T06:59:47Z</time>
      </trkpt>
      <trkpt lat="41.9659630" lon="-8.8842840">
        <ele>34.5</ele>
        <time>2021-05-19T06:59:48Z</time>
      </trkpt>
      <trkpt lat="41.9659760" lon="-8.8842830">
        <ele>34.5</ele>
        <time>2021-05-19T06:59:49Z</time>
      </trkpt>
      <trkpt lat="41.9659910" lon="-8.8842780">
        <ele>34.6</ele>
        <time>2021-05-19T06:59:50Z</time>
      </trkpt>
      <trkpt lat="41.9660030" lon="-8.8842740">
        <ele>34.6</ele>
        <time>2021-05-19T06:59:51Z</time>
      </trkpt>
      <trkpt lat="41.9660220" lon="-8.8842670">
        <ele>34.6</ele>
        <time>2021-05-19T06:59:52Z</time>
      </trkpt>
      <trkpt lat="41.9660320" lon="-8.8842650">
        <ele>34.6</ele>
        <time>2021-05-19T06:59:53Z</time>
      </trkpt>
      <trkpt lat="41.9660410" lon="-8.8842620">
        <ele>34.7</ele>
        <time>2021-05-19T06:59:54Z</time>
      </trkpt>
      <trkpt lat="41.9660530" lon="-8.8842570">
        <ele>34.7</ele>
        <time>2021-05-19T06:59:55Z</time>
      </trkpt>
      <trkpt lat="41.9660680" lon="-8.8842480">
        <ele>34.7</ele>
        <time>2021-05-19T06:59:56Z</time>
      </trkpt>
      <trkpt lat="41.9660820" lon="-8.8842400">
        <ele>34.8</ele>
        <time>2021-05-19T06:59:57Z</time>
      </trkpt>
      <trkpt lat="41.9660940" lon="-8.8842370">
        <ele>34.8</ele>
        <time>2021-05-19T06:59:58Z</time>
      </trkpt>
      <trkpt lat="41.9661060" lon="-8.8842330">
        <ele>34.8</ele>
        <time>2021-05-19T06:59:59Z</time>
      </trkpt>
      <trkpt lat="41.9661200" lon="-8.8842270">
        <ele>34.8</ele>
        <time>2021-05-19T07:00:00Z</time>
      </trkpt>
      <trkpt lat="41.9661330" lon="-8.8842250">
        <ele>34.9</ele>
        <time>2021-05-19T07:00:01Z</time>
      </trkpt>
      <trkpt lat="41.9661410" lon="-8.8842230">
        <ele>34.9</ele>
        <time>2021-05-19T07:00:02Z</time>
      </trkpt>
      <trkpt lat="41.9661500" lon="-8.8842170">
        <ele>34.9</ele>
        <time>2021-05-19T07:00:03Z</time>
      </trkpt>
      <trkpt lat="41.9661720" lon="-8.8842130">
        <ele>35.0</ele>
        <time>2021-05-19T07:00:04Z</time>
      </trkpt>
      <trkpt lat="41.9661830" lon="-8.8842130">
        <ele>35.0</ele>
        <time>2021-05-19T07:00:05Z</time>
      </trkpt>
      <trkpt lat="41.9661920" lon="-8.8842120">
        <ele>35.0</ele>
        <time>2021-05-19T07:00:06Z</time>
      </trkpt>
      <trkpt lat="41.9661960" lon="-8.8842100">
        <ele>35.0</ele>
        <time>2021-05-19T07:00:07Z</time>
      </trkpt>
      <trkpt lat="41.9662000" lon="-8.8842070">
        <ele>35.0</ele>
        <time>2021-05-19T07:00:08Z</time>
      </trkpt>
      <trkpt lat="41.9661980" lon="-8.8842030">
        <ele>35.0</ele>
        <time>2021-05-19T07:00:09Z</time>
      </trkpt>
      <trkpt lat="41.9661970" lon="-8.8842000">
        <ele>35.0</ele>
        <time>2021-05-19T07:00:10Z</time>
      </trkpt>
      <trkpt lat="41.9661980" lon="-8.8841990">
        <ele>35.1</ele>
        <time>2021-05-19T07:00:11Z</time>
      </trkpt>
      <trkpt lat="41.9662010" lon="-8.8841980">
        <ele>35.1</ele>
        <time>2021-05-19T07:00:12Z</time>
      </trkpt>
      <trkpt lat="41.9662110" lon="-8.8841940">
        <ele>35.1</ele>
        <time>2021-05-19T07:00:13Z</time>
      </trkpt>
      <trkpt lat="41.9662210" lon="-8.8841950">
        <ele>35.1</ele>
        <time>2021-05-19T07:00:14Z</time>
      </trkpt>
      <trkpt lat="41.9662290" lon="-8.8841910">
        <ele>35.1</ele>
        <time>2021-05-19T07:00:15Z</time>
      </trkpt>
      <trkpt lat="41.9662420" lon="-8.8841840">
        <ele>35.2</ele>
        <time>2021-05-19T07:00:16Z</time>
      </trkpt>
      <trkpt lat="41.9662510" lon="-8.8841790">
        <ele>35.2</ele>
        <time>2021-05-19T07:00:17Z</time>
      </trkpt>
      <trkpt lat="41.9662610" lon="-8.8841730">
        <ele>35.2</ele>
        <time>2021-05-19T07:00:18Z</time>
      </trkpt>
      <trkpt lat="41.9662700" lon="-8.8841670">
        <ele>35.2</ele>
        <time>2021-05-19T07:00:19Z</time>
      </trkpt>
      <trkpt lat="41.9662820" lon="-8.8841640">
        <ele>35.3</ele>
        <time>2021-05-19T07:00:20Z</time>
      </trkpt>
      <trkpt lat="41.9662890" lon="-8.8841610">
        <ele>35.3</ele>
        <time>2021-05-19T07:00:21Z</time>
      </trkpt>
      <trkpt lat="41.9662990" lon="-8.8841560">
        <ele>35.3</ele>
        <time>2021-05-19T07:00:22Z</time>
      </trkpt>
      <trkpt lat="41.9663180" lon="-8.8841550">
        <ele>35.3</ele>
        <time>2021-05-19T07:00:23Z</time>
      </trkpt>
      <trkpt lat="41.9663280" lon="-8.8841540">
        <ele>35.4</ele>
        <time>2021-05-19T07:00:24Z</time>
      </trkpt>
      <trkpt lat="41.9663370" lon="-8.8841530">
        <ele>35.4</ele>
        <time>2021-05-19T07:00:25Z</time>
      </trkpt>
      <trkpt lat="41.9663470" lon="-8.8841540">
        <ele>35.4</ele>
        <time>2021-05-19T07:00:26Z</time>
      </trkpt>
      <trkpt lat="41.9663580" lon="-8.8841520">
        <ele>35.4</ele>
        <time>2021-05-19T07:00:27Z</time>
      </trkpt>
      <trkpt lat="41.9663690" lon="-8.8841560">
        <ele>35.5</ele>
        <time>2021-05-19T07:00:28Z</time>
      </trkpt>
      <trkpt lat="41.9663780" lon="-8.8841510">
        <ele>35.5</ele>
        <time>2021-05-19T07:00:29Z</time>
      </trkpt>
      <trkpt lat="41.9663890" lon="-8.8841500">
        <ele>35.5</ele>
        <time>2021-05-19T07:00:30Z</time>
      </trkpt>
      <trkpt lat="41.9663990" lon="-8.8841430">
        <ele>35.5</ele>
        <time>2021-05-19T07:00:31Z</time>
      </trkpt>
      <trkpt lat="41.9664070" lon="-8.8841400">
        <ele>35.6</ele>
        <time>2021-05-19T07:00:32Z</time>
      </trkpt>
      <trkpt lat="41.9664130" lon="-8.8841410">
        <ele>35.6</ele>
        <time>2021-05-19T07:00:33Z</time>
      </trkpt>
      <trkpt lat="41.9664220" lon="-8.8841430">
        <ele>35.6</ele>
        <time>2021-05-19T07:00:34Z</time>
      </trkpt>
      <trkpt lat="41.9664270" lon="-8.8841430">
        <ele>35.6</ele>
        <time>2021-05-19T07:00:35Z</time>
      </trkpt>
      <trkpt lat="41.9664230" lon="-8.8841400">
        <ele>35.6</ele>
        <time>2021-05-19T07:00:36Z</time>
      </trkpt>
      <trkpt lat="41.9664360" lon="-8.8841320">
        <ele>35.6</ele>
        <time>2021-05-19T07:00:37Z</time>
      </trkpt>
      <trkpt lat="41.9664430" lon="-8.8841260">
        <ele>35.7</ele>
        <time>2021-05-19T07:00:38Z</time>
      </trkpt>
      <trkpt lat="41.9664500" lon="-8.8841240">
        <ele>35.7</ele>
        <time>2021-05-19T07:00:39Z</time>
      </trkpt>
      <trkpt lat="41.9664660" lon="-8.8841220">
        <ele>35.7</ele>
        <time>2021-05-19T07:00:40Z</time>
      </trkpt>
      <trkpt lat="41.9664730" lon="-8.8841220">
        <ele>35.7</ele>
        <time>2021-05-19T07:00:41Z</time>
      </trkpt>
      <trkpt lat="41.9664810" lon="-8.8841210">
        <ele>35.7</ele>
        <time>2021-05-19T07:00:42Z</time>
      </trkpt>
      <trkpt lat="41.9664880" lon="-8.8841200">
        <ele>35.7</ele>
        <time>2021-05-19T07:00:43Z</time>
      </trkpt>
      <trkpt lat="41.9665100" lon="-8.8841190">
        <ele>35.8</ele>
        <time>2021-05-19T07:00:44Z</time>
      </trkpt>
      <trkpt lat="41.9665180" lon="-8.8841190">
        <ele>35.8</ele>
        <time>2021-05-19T07:00:45Z</time>
      </trkpt>
      <trkpt lat="41.9665260" lon="-8.8841190">
        <ele>35.8</ele>
        <time>2021-05-19T07:00:46Z</time>
      </trkpt>
      <trkpt lat="41.9665340" lon="-8.8841190">
        <ele>35.8</ele>
        <time>2021-05-19T07:00:47Z</time>
      </trkpt>
      <trkpt lat="41.9665450" lon="-8.8841200">
        <ele>35.8</ele>
        <time>2021-05-19T07:00:48Z</time>
      </trkpt>
      <trkpt lat="41.9665540" lon="-8.8841180">
        <ele>35.8</ele>
        <time>2021-05-19T07:00:49Z</time>
      </trkpt>
      <trkpt lat="41.9665650" lon="-8.8841180">
        <ele>35.8</ele>
        <time>2021-05-19T07:00:50Z</time>
      </trkpt>
      <trkpt lat="41.9665760" lon="-8.8841180">
        <ele>35.8</ele>
        <time>2021-05-19T07:00:51Z</time>
      </trkpt>
      <trkpt lat="41.9665810" lon="-8.8841120">
        <ele>35.8</ele>
        <time>2021-05-19T07:00:52Z</time>
      </trkpt>
      <trkpt lat="41.9665880" lon="-8.8841090">
        <ele>35.8</ele>
        <time>2021-05-19T07:00:53Z</time>
      </trkpt>
      <trkpt lat="41.9665970" lon="-8.8841080">
        <ele>35.8</ele>
        <time>2021-05-19T07:00:54Z</time>
      </trkpt>
      <trkpt lat="41.9666080" lon="-8.8841060">
        <ele>35.8</ele>
        <time>2021-05-19T07:00:55Z</time>
      </trkpt>
      <trkpt lat="41.9666140" lon="-8.8841050">
        <ele>35.8</ele>
        <time>2021-05-19T07:00:56Z</time>
      </trkpt>
      <trkpt lat="41.9666170" lon="-8.8841020">
        <ele>35.8</ele>
        <time>2021-05-19T07:00:57Z</time>
      </trkpt>
      <trkpt lat="41.9666250" lon="-8.8841030">
        <ele>35.8</ele>
        <time>2021-05-19T07:00:58Z</time>
      </trkpt>
      <trkpt lat="41.9666330" lon="-8.8841010">
        <ele>35.8</ele>
        <time>2021-05-19T07:00:59Z</time>
      </trkpt>
      <trkpt lat="41.9666430" lon="-8.8840960">
        <ele>35.8</ele>
        <time>2021-05-19T07:01:00Z</time>
      </trkpt>
      <trkpt lat="41.9666530" lon="-8.8840920">
        <ele>35.7</ele>
        <time>2021-05-19T07:01:01Z</time>
      </trkpt>
      <trkpt lat="41.9666570" lon="-8.8840910">
        <ele>35.7</ele>
        <time>2021-05-19T07:01:02Z</time>
      </trkpt>
      <trkpt lat="41.9666610" lon="-8.8840900">
        <ele>35.7</ele>
        <time>2021-05-19T07:01:03Z</time>
      </trkpt>
      <trkpt lat="41.9666660" lon="-8.8840890">
        <ele>35.7</ele>
        <time>2021-05-19T07:01:04Z</time>
      </trkpt>
      <trkpt lat="41.9666700" lon="-8.8840880">
        <ele>35.7</ele>
        <time>2021-05-19T07:01:05Z</time>
      </trkpt>
      <trkpt lat="41.9666740" lon="-8.8840870">
        <ele>35.7</ele>
        <time>2021-05-19T07:01:06Z</time>
      </trkpt>
      <trkpt lat="41.9666780" lon="-8.8840860">
        <ele>35.7</ele>
        <time>2021-05-19T07:01:07Z</time>
      </trkpt>
      <trkpt lat="41.9666820" lon="-8.8840850">
        <ele>35.7</ele>
        <time>2021-05-19T07:01:08Z</time>
      </trkpt>
      <trkpt lat="41.9666850" lon="-8.8840850">
        <ele>35.7</ele>
        <time>2021-05-19T07:01:09Z</time>
      </trkpt>
      <trkpt lat="41.9666950" lon="-8.8840840">
        <ele>35.7</ele>
        <time>2021-05-19T07:01:10Z</time>
      </trkpt>
      <trkpt lat="41.9667090" lon="-8.8840850">
        <ele>35.7</ele>
        <time>2021-05-19T07:01:11Z</time>
      </trkpt>
      <trkpt lat="41.9667170" lon="-8.8840800">
        <ele>35.6</ele>
        <time>2021-05-19T07:01:12Z</time>
      </trkpt>
      <trkpt lat="41.9667240" lon="-8.8840780">
        <ele>35.6</ele>
        <time>2021-05-19T07:01:13Z</time>
      </trkpt>
      <trkpt lat="41.9667330" lon="-8.8840750">
        <ele>35.6</ele>
        <time>2021-05-19T07:01:14Z</time>
      </trkpt>
      <trkpt lat="41.9667410" lon="-8.8840750">
        <ele>35.6</ele>
        <time>2021-05-19T07:01:15Z</time>
      </trkpt>
      <trkpt lat="41.9667540" lon="-8.8840740">
        <ele>35.6</ele>
        <time>2021-05-19T07:01:16Z</time>
      </trkpt>
      <trkpt lat="41.9667680" lon="-8.8840770">
        <ele>35.5</ele>
        <time>2021-05-19T07:01:17Z</time>
      </trkpt>
      <trkpt lat="41.9667830" lon="-8.8840840">
        <ele>35.5</ele>
        <time>2021-05-19T07:01:18Z</time>
      </trkpt>
      <trkpt lat="41.9667940" lon="-8.8840880">
        <ele>35.5</ele>
        <time>2021-05-19T07:01:19Z</time>
      </trkpt>
      <trkpt lat="41.9668040" lon="-8.8840840">
        <ele>35.5</ele>
        <time>2021-05-19T07:01:20Z</time>
      </trkpt>
      <trkpt lat="41.9668110" lon="-8.8840810">
        <ele>35.4</ele>
        <time>2021-05-19T07:01:21Z</time>
      </trkpt>
      <trkpt lat="41.9668290" lon="-8.8840800">
        <ele>35.4</ele>
        <time>2021-05-19T07:01:22Z</time>
      </trkpt>
      <trkpt lat="41.9668370" lon="-8.8840800">
        <ele>35.4</ele>
        <time>2021-05-19T07:01:23Z</time>
      </trkpt>
      <trkpt lat="41.9668440" lon="-8.8840770">
        <ele>35.3</ele>
        <time>2021-05-19T07:01:24Z</time>
      </trkpt>
      <trkpt lat="41.9668540" lon="-8.8840720">
        <ele>35.3</ele>
        <time>2021-05-19T07:01:25Z</time>
      </trkpt>
      <trkpt lat="41.9668610" lon="-8.8840630">
        <ele>35.3</ele>
        <time>2021-05-19T07:01:26Z</time>
      </trkpt>
      <trkpt lat="41.9668670" lon="-8.8840580">
        <ele>35.3</ele>
        <time>2021-05-19T07:01:27Z</time>
      </trkpt>
      <trkpt lat="41.9668800" lon="-8.8840500">
        <ele>35.2</ele>
        <time>2021-05-19T07:01:28Z</time>
      </trkpt>
      <trkpt lat="41.9668850" lon="-8.8840460">
        <ele>35.2</ele>
        <time>2021-05-19T07:01:29Z</time>
      </trkpt>
      <trkpt lat="41.9668970" lon="-8.8840380">
        <ele>35.2</ele>
        <time>2021-05-19T07:01:30Z</time>
      </trkpt>
      <trkpt lat="41.9669040" lon="-8.8840370">
        <ele>35.2</ele>
        <time>2021-05-19T07:01:31Z</time>
      </trkpt>
      <trkpt lat="41.9669160" lon="-8.8840340">
        <ele>35.1</ele>
        <time>2021-05-19T07:01:32Z</time>
      </trkpt>
      <trkpt lat="41.9669270" lon="-8.8840320">
        <ele>35.1</ele>
        <time>2021-05-19T07:01:33Z</time>
      </trkpt>
      <trkpt lat="41.9669330" lon="-8.8840300">
        <ele>35.1</ele>
        <time>2021-05-19T07:01:34Z</time>
      </trkpt>
      <trkpt lat="41.9669510" lon="-8.8840250">
        <ele>35.0</ele>
        <time>2021-05-19T07:01:35Z</time>
      </trkpt>
      <trkpt lat="41.9669670" lon="-8.8840200">
        <ele>35.0</ele>
        <time>2021-05-19T07:01:36Z</time>
      </trkpt>
      <trkpt lat="41.9669740" lon="-8.8840170">
        <ele>34.9</ele>
        <time>2021-05-19T07:01:37Z</time>
      </trkpt>
      <trkpt lat="41.9669810" lon="-8.8840140">
        <ele>34.9</ele>
        <time>2021-05-19T07:01:38Z</time>
      </trkpt>
      <trkpt lat="41.9669880" lon="-8.8840110">
        <ele>34.9</ele>
        <time>2021-05-19T07:01:39Z</time>
      </trkpt>
      <trkpt lat="41.9669980" lon="-8.8840030">
        <ele>34.9</ele>
        <time>2021-05-19T07:01:40Z</time>
      </trkpt>
      <trkpt lat="41.9670030" lon="-8.8840050">
        <ele>34.8</ele>
        <time>2021-05-19T07:01:41Z</time>
      </trkpt>
      <trkpt lat="41.9670140" lon="-8.8839990">
        <ele>34.8</ele>
        <time>2021-05-19T07:01:42Z</time>
      </trkpt>
      <trkpt lat="41.9670340" lon="-8.8839830">
        <ele>34.7</ele>
        <time>2021-05-19T07:01:43Z</time>
      </trkpt>
      <trkpt lat="41.9670430" lon="-8.8839840">
        <ele>34.7</ele>
        <time>2021-05-19T07:01:44Z</time>
      </trkpt>
      <trkpt lat="41.9670610" lon="-8.8839770">
        <ele>34.6</ele>
        <time>2021-05-19T07:01:45Z</time>
      </trkpt>
      <trkpt lat="41.9670690" lon="-8.8839750">
        <ele>34.6</ele>
        <time>2021-05-19T07:01:46Z</time>
      </trkpt>
      <trkpt lat="41.9670760" lon="-8.8839740">
        <ele>34.6</ele>
        <time>2021-05-19T07:01:47Z</time>
      </trkpt>
      <trkpt lat="41.9670840" lon="-8.8839720">
        <ele>34.6</ele>
        <time>2021-05-19T07:01:48Z</time>
      </trkpt>
      <trkpt lat="41.9670930" lon="-8.8839680">
        <ele>34.5</ele>
        <time>2021-05-19T07:01:49Z</time>
      </trkpt>
      <trkpt lat="41.9671080" lon="-8.8839650">
        <ele>34.5</ele>
        <time>2021-05-19T07:01:50Z</time>
      </trkpt>
      <trkpt lat="41.9671170" lon="-8.8839560">
        <ele>34.4</ele>
        <time>2021-05-19T07:01:51Z</time>
      </trkpt>
      <trkpt lat="41.9671310" lon="-8.8839530">
        <ele>34.4</ele>
        <time>2021-05-19T07:01:52Z</time>
      </trkpt>
      <trkpt lat="41.9671500" lon="-8.8839420">
        <ele>34.3</ele>
        <time>2021-05-19T07:01:53Z</time>
      </trkpt>
      <trkpt lat="41.9671540" lon="-8.8839410">
        <ele>34.3</ele>
        <time>2021-05-19T07:01:54Z</time>
      </trkpt>
      <trkpt lat="41.9671670" lon="-8.8839370">
        <ele>34.3</ele>
        <time>2021-05-19T07:01:55Z</time>
      </trkpt>
      <trkpt lat="41.9671770" lon="-8.8839400">
        <ele>34.2</ele>
        <time>2021-05-19T07:01:56Z</time>
      </trkpt>
      <trkpt lat="41.9671840" lon="-8.8839340">
        <ele>34.2</ele>
        <time>2021-05-19T07:01:57Z</time>
      </trkpt>
      <trkpt lat="41.9671940" lon="-8.8839230">
        <ele>34.2</ele>
        <time>2021-05-19T07:01:58Z</time>
      </trkpt>
      <trkpt lat="41.9671990" lon="-8.8839200">
        <ele>34.1</ele>
        <time>2021-05-19T07:01:59Z</time>
      </trkpt>
      <trkpt lat="41.9672030" lon="-8.8839110">
        <ele>34.1</ele>
        <time>2021-05-19T07:02:00Z</time>
      </trkpt>
      <trkpt lat="41.9672180" lon="-8.8838960">
        <ele>34.1</ele>
        <time>2021-05-19T07:02:01Z</time>
      </trkpt>
      <trkpt lat="41.9672250" lon="-8.8838950">
        <ele>34.1</ele>
        <time>2021-05-19T07:02:02Z</time>
      </trkpt>
      <trkpt lat="41.9672340" lon="-8.8838900">
        <ele>34.0</ele>
        <time>2021-05-19T07:02:03Z</time>
      </trkpt>
      <trkpt lat="41.9672410" lon="-8.8838840">
        <ele>34.0</ele>
        <time>2021-05-19T07:02:04Z</time>
      </trkpt>
      <trkpt lat="41.9672530" lon="-8.8838800">
        <ele>34.0</ele>
        <time>2021-05-19T07:02:05Z</time>
      </trkpt>
      <trkpt lat="41.9672610" lon="-8.8838780">
        <ele>34.0</ele>
        <time>2021-05-19T07:02:06Z</time>
      </trkpt>
      <trkpt lat="41.9672780" lon="-8.8838740">
        <ele>34.0</ele>
        <time>2021-05-19T07:02:07Z</time>
      </trkpt>
      <trkpt lat="41.9672880" lon="-8.8838700">
        <ele>33.9</ele>
        <time>2021-05-19T07:02:08Z</time>
      </trkpt>
      <trkpt lat="41.9672970" lon="-8.8838660">
        <ele>33.9</ele>
        <time>2021-05-19T07:02:09Z</time>
      </trkpt>
      <trkpt lat="41.9673110" lon="-8.8838650">
        <ele>33.9</ele>
        <time>2021-05-19T07:02:10Z</time>
      </trkpt>
      <trkpt lat="41.9673280" lon="-8.8838700">
        <ele>33.9</ele>
        <time>2021-05-19T07:02:11Z</time>
      </trkpt>
      <trkpt lat="41.9673430" lon="-8.8838720">
        <ele>33.8</ele>
        <time>2021-05-19T07:02:12Z</time>
      </trkpt>
      <trkpt lat="41.9673630" lon="-8.8838720">
        <ele>33.8</ele>
        <time>2021-05-19T07:02:13Z</time>
      </trkpt>
      <trkpt lat="41.9673740" lon="-8.8838790">
        <ele>33.8</ele>
        <time>2021-05-19T07:02:14Z</time>
      </trkpt>
      <trkpt lat="41.9673910" lon="-8.8838810">
        <ele>33.7</ele>
        <time>2021-05-19T07:02:15Z</time>
      </trkpt>
      <trkpt lat="41.9674160" lon="-8.8838730">
        <ele>33.7</ele>
        <time>2021-05-19T07:02:16Z</time>
      </trkpt>
      <trkpt lat="41.9674220" lon="-8.8838690">
        <ele>33.7</ele>
        <time>2021-05-19T07:02:17Z</time>
      </trkpt>
      <trkpt lat="41.9674290" lon="-8.8838660">
        <ele>33.6</ele>
        <time>2021-05-19T07:02:18Z</time>
      </trkpt>
      <trkpt lat="41.9674510" lon="-8.8838570">
        <ele>33.6</ele>
        <time>2021-05-19T07:02:19Z</time>
      </trkpt>
      <trkpt lat="41.9674620" lon="-8.8838570">
        <ele>33.6</ele>
        <time>2021-05-19T07:02:20Z</time>
      </trkpt>
      <trkpt lat="41.9674730" lon="-8.8838560">
        <ele>33.5</ele>
        <time>2021-05-19T07:02:21Z</time>
      </trkpt>
      <trkpt lat="41.9674890" lon="-8.8838590">
        <ele>33.5</ele>
        <time>2021-05-19T07:02:22Z</time>
      </trkpt>
      <trkpt lat="41.9674950" lon="-8.8838590">
        <ele>33.5</ele>
        <time>2021-05-19T07:02:23Z</time>
      </trkpt>
      <trkpt lat="41.9675060" lon="-8.8838600">
        <ele>33.4</ele>
        <time>2021-05-19T07:02:24Z</time>
      </trkpt>
      <trkpt lat="41.9675130" lon="-8.8838600">
        <ele>33.4</ele>
        <time>2021-05-19T07:02:25Z</time>
      </trkpt>
      <trkpt lat="41.9675250" lon="-8.8838660">
        <ele>33.4</ele>
        <time>2021-05-19T07:02:26Z</time>
      </trkpt>
      <trkpt lat="41.9675360" lon="-8.8838660">
        <ele>33.3</ele>
        <time>2021-05-19T07:02:27Z</time>
      </trkpt>
      <trkpt lat="41.9675530" lon="-8.8838720">
        <ele>33.3</ele>
        <time>2021-05-19T07:02:28Z</time>
      </trkpt>
      <trkpt lat="41.9675620" lon="-8.8838720">
        <ele>33.2</ele>
        <time>2021-05-19T07:02:29Z</time>
      </trkpt>
      <trkpt lat="41.9675690" lon="-8.8838740">
        <ele>33.2</ele>
        <time>2021-05-19T07:02:30Z</time>
      </trkpt>
      <trkpt lat="41.9675910" lon="-8.8838760">
        <ele>33.2</ele>
        <time>2021-05-19T07:02:31Z</time>
      </trkpt>
      <trkpt lat="41.9676000" lon="-8.8838750">
        <ele>33.1</ele>
        <time>2021-05-19T07:02:32Z</time>
      </trkpt>
      <trkpt lat="41.9676100" lon="-8.8838750">
        <ele>33.1</ele>
        <time>2021-05-19T07:02:33Z</time>
      </trkpt>
      <trkpt lat="41.9676200" lon="-8.8838810">
        <ele>33.1</ele>
        <time>2021-05-19T07:02:34Z</time>
      </trkpt>
      <trkpt lat="41.9676280" lon="-8.8838960">
        <ele>33.1</ele>
        <time>2021-05-19T07:02:35Z</time>
      </trkpt>
      <trkpt lat="41.9676380" lon="-8.8838950">
        <ele>33.0</ele>
        <time>2021-05-19T07:02:36Z</time>
      </trkpt>
      <trkpt lat="41.9676510" lon="-8.8838960">
        <ele>33.0</ele>
        <time>2021-05-19T07:02:37Z</time>
      </trkpt>
      <trkpt lat="41.9676680" lon="-8.8839010">
        <ele>33.0</ele>
        <time>2021-05-19T07:02:38Z</time>
      </trkpt>
      <trkpt lat="41.9676840" lon="-8.8839020">
        <ele>33.0</ele>
        <time>2021-05-19T07:02:39Z</time>
      </trkpt>
      <trkpt lat="41.9677030" lon="-8.8839100">
        <ele>33.0</ele>
        <time>2021-05-19T07:02:40Z</time>
      </trkpt>
      <trkpt lat="41.9677260" lon="-8.8839200">
        <ele>33.0</ele>
        <time>2021-05-19T07:02:41Z</time>
      </trkpt>
      <trkpt lat="41.9677340" lon="-8.8839210">
        <ele>33.0</ele>
        <time>2021-05-19T07:02:42Z</time>
      </trkpt>
      <trkpt lat="41.9677430" lon="-8.8839230">
        <ele>33.0</ele>
        <time>2021-05-19T07:02:43Z</time>
      </trkpt>
      <trkpt lat="41.9677580" lon="-8.8839240">
        <ele>33.0</ele>
        <time>2021-05-19T07:02:44Z</time>
      </trkpt>
      <trkpt lat="41.9677780" lon="-8.8839300">
        <ele>33.0</ele>
        <time>2021-05-19T07:02:45Z</time>
      </trkpt>
      <trkpt lat="41.9677810" lon="-8.8839320">
        <ele>33.0</ele>
        <time>2021-05-19T07:02:46Z</time>
      </trkpt>
      <trkpt lat="41.9677920" lon="-8.8839340">
        <ele>33.0</ele>
        <time>2021-05-19T07:02:47Z</time>
      </trkpt>
      <trkpt lat="41.9677970" lon="-8.8839320">
        <ele>33.0</ele>
        <time>2021-05-19T07:02:48Z</time>
      </trkpt>
      <trkpt lat="41.9678110" lon="-8.8839370">
        <ele>33.1</ele>
        <time>2021-05-19T07:02:49Z</time>
      </trkpt>
      <trkpt lat="41.9678430" lon="-8.8839380">
        <ele>33.2</ele>
        <time>2021-05-19T07:02:50Z</time>
      </trkpt>
      <trkpt lat="41.9678510" lon="-8.8839370">
        <ele>33.2</ele>
        <time>2021-05-19T07:02:51Z</time>
      </trkpt>
      <trkpt lat="41.9678610" lon="-8.8839280">
        <ele>33.3</ele>
        <time>2021-05-19T07:02:52Z</time>
      </trkpt>
      <trkpt lat="41.9678690" lon="-8.8839260">
        <ele>33.3</ele>
        <time>2021-05-19T07:02:53Z</time>
      </trkpt>
      <trkpt lat="41.9678790" lon="-8.8839240">
        <ele>33.3</ele>
        <time>2021-05-19T07:02:54Z</time>
      </trkpt>
      <trkpt lat="41.9678970" lon="-8.8839240">
        <ele>33.4</ele>
        <time>2021-05-19T07:02:55Z</time>
      </trkpt>
      <trkpt lat="41.9679070" lon="-8.8839200">
        <ele>33.4</ele>
        <time>2021-05-19T07:02:56Z</time>
      </trkpt>
      <trkpt lat="41.9679150" lon="-8.8839200">
        <ele>33.5</ele>
        <time>2021-05-19T07:02:57Z</time>
      </trkpt>
      <trkpt lat="41.9679260" lon="-8.8839180">
        <ele>33.5</ele>
        <time>2021-05-19T07:02:58Z</time>
      </trkpt>
      <trkpt lat="41.9679290" lon="-8.8839140">
        <ele>33.5</ele>
        <time>2021-05-19T07:02:59Z</time>
      </trkpt>
      <trkpt lat="41.9679350" lon="-8.8839070">
        <ele>33.6</ele>
        <time>2021-05-19T07:03:00Z</time>
      </trkpt>
      <trkpt lat="41.9679470" lon="-8.8839040">
        <ele>33.6</ele>
        <time>2021-05-19T07:03:01Z</time>
      </trkpt>
      <trkpt lat="41.9679540" lon="-8.8839080">
        <ele>33.6</ele>
        <time>2021-05-19T07:03:02Z</time>
      </trkpt>
      <trkpt lat="41.9679640" lon="-8.8839140">
        <ele>33.7</ele>
        <time>2021-05-19T07:03:03Z</time>
      </trkpt>
      <trkpt lat="41.9679710" lon="-8.8839050">
        <ele>33.7</ele>
        <time>2021-05-19T07:03:04Z</time>
      </trkpt>
      <trkpt lat="41.9679820" lon="-8.8839070">
        <ele>33.8</ele>
        <time>2021-05-19T07:03:05Z</time>
      </trkpt>
      <trkpt lat="41.9679830" lon="-8.8839040">
        <ele>33.8</ele>
        <time>2021-05-19T07:03:06Z</time>
      </trkpt>
      <trkpt lat="41.9679960" lon="-8.8839000">
        <ele>33.8</ele>
        <time>2021-05-19T07:03:07Z</time>
      </trkpt>
      <trkpt lat="41.9680050" lon="-8.8839020">
        <ele>33.9</ele>
        <time>2021-05-19T07:03:08Z</time>
      </trkpt>
      <trkpt lat="41.9680200" lon="-8.8838930">
        <ele>33.9</ele>
        <time>2021-05-19T07:03:09Z</time>
      </trkpt>
      <trkpt lat="41.9680290" lon="-8.8838870">
        <ele>34.0</ele>
        <time>2021-05-19T07:03:10Z</time>
      </trkpt>
      <trkpt lat="41.9680480" lon="-8.8838820">
        <ele>34.0</ele>
        <time>2021-05-19T07:03:11Z</time>
      </trkpt>
      <trkpt lat="41.9680550" lon="-8.8838790">
        <ele>34.1</ele>
        <time>2021-05-19T07:03:12Z</time>
      </trkpt>
      <trkpt lat="41.9680610" lon="-8.8838760">
        <ele>34.1</ele>
        <time>2021-05-19T07:03:13Z</time>
      </trkpt>
      <trkpt lat="41.9680670" lon="-8.8838730">
        <ele>34.1</ele>
        <time>2021-05-19T07:03:14Z</time>
      </trkpt>
      <trkpt lat="41.9680840" lon="-8.8838690">
        <ele>34.2</ele>
        <time>2021-05-19T07:03:15Z</time>
      </trkpt>
      <trkpt lat="41.9680990" lon="-8.8838710">
        <ele>34.2</ele>
        <time>2021-05-19T07:03:16Z</time>
      </trkpt>
      <trkpt lat="41.9681120" lon="-8.8838680">
        <ele>34.3</ele>
        <time>2021-05-19T07:03:17Z</time>
      </trkpt>
      <trkpt lat="41.9681180" lon="-8.8838590">
        <ele>34.3</ele>
        <time>2021-05-19T07:03:18Z</time>
      </trkpt>
      <trkpt lat="41.9681330" lon="-8.8838630">
        <ele>34.4</ele>
        <time>2021-05-19T07:03:19Z</time>
      </trkpt>
      <trkpt lat="41.9681430" lon="-8.8838560">
        <ele>34.4</ele>
        <time>2021-05-19T07:03:20Z</time>
      </trkpt>
      <trkpt lat="41.9681650" lon="-8.8838590">
        <ele>34.5</ele>
        <time>2021-05-19T07:03:21Z</time>
      </trkpt>
      <trkpt lat="41.9681790" lon="-8.8838620">
        <ele>34.5</ele>
        <time>2021-05-19T07:03:22Z</time>
      </trkpt>
      <trkpt lat="41.9681980" lon="-8.8838650">
        <ele>34.6</ele>
        <time>2021-05-19T07:03:23Z</time>
      </trkpt>
      <trkpt lat="41.9682170" lon="-8.8838710">
        <ele>34.6</ele>
        <time>2021-05-19T07:03:24Z</time>
      </trkpt>
      <trkpt lat="41.9682270" lon="-8.8838680">
        <ele>34.6</ele>
        <time>2021-05-19T07:03:25Z</time>
      </trkpt>
      <trkpt lat="41.9682490" lon="-8.8838620">
        <ele>34.7</ele>
        <time>2021-05-19T07:03:26Z</time>
      </trkpt>
      <trkpt lat="41.9682590" lon="-8.8838600">
        <ele>34.7</ele>
        <time>2021-05-19T07:03:27Z</time>
      </trkpt>
      <trkpt lat="41.9682680" lon="-8.8838570">
        <ele>34.8</ele>
        <time>2021-05-19T07:03:28Z</time>
      </trkpt>
      <trkpt lat="41.9682910" lon="-8.8838520">
        <ele>34.8</ele>
        <time>2021-05-19T07:03:29Z</time>
      </trkpt>
      <trkpt lat="41.9683000" lon="-8.8838490">
        <ele>34.9</ele>
        <time>2021-05-19T07:03:30Z</time>
      </trkpt>
      <trkpt lat="41.9683090" lon="-8.8838450">
        <ele>34.9</ele>
        <time>2021-05-19T07:03:31Z</time>
      </trkpt>
      <trkpt lat="41.9683290" lon="-8.8838440">
        <ele>34.9</ele>
        <time>2021-05-19T07:03:32Z</time>
      </trkpt>
      <trkpt lat="41.9683380" lon="-8.8838440">
        <ele>35.0</ele>
        <time>2021-05-19T07:03:33Z</time>
      </trkpt>
      <trkpt lat="41.9683480" lon="-8.8838450">
        <ele>35.0</ele>
        <time>2021-05-19T07:03:34Z</time>
      </trkpt>
      <trkpt lat="41.9683540" lon="-8.8838390">
        <ele>35.0</ele>
        <time>2021-05-19T07:03:35Z</time>
      </trkpt>
      <trkpt lat="41.9683620" lon="-8.8838430">
        <ele>35.0</ele>
        <time>2021-05-19T07:03:36Z</time>
      </trkpt>
      <trkpt lat="41.9683750" lon="-8.8838460">
        <ele>35.1</ele>
        <time>2021-05-19T07:03:37Z</time>
      </trkpt>
      <trkpt lat="41.9683940" lon="-8.8838470">
        <ele>35.1</ele>
        <time>2021-05-19T07:03:38Z</time>
      </trkpt>
      <trkpt lat="41.9683950" lon="-8.8838500">
        <ele>35.1</ele>
        <time>2021-05-19T07:03:39Z</time>
      </trkpt>
      <trkpt lat="41.9684080" lon="-8.8838540">
        <ele>35.1</ele>
        <time>2021-05-19T07:03:40Z</time>
      </trkpt>
      <trkpt lat="41.9684210" lon="-8.8838590">
        <ele>35.2</ele>
        <time>2021-05-19T07:03:41Z</time>
      </trkpt>
      <trkpt lat="41.9684360" lon="-8.8838570">
        <ele>35.2</ele>
        <time>2021-05-19T07:03:42Z</time>
      </trkpt>
      <trkpt lat="41.9684510" lon="-8.8838640">
        <ele>35.2</ele>
        <time>2021-05-19T07:03:43Z</time>
      </trkpt>
      <trkpt lat="41.9684590" lon="-8.8838610">
        <ele>35.3</ele>
        <time>2021-05-19T07:03:44Z</time>
      </trkpt>
      <trkpt lat="41.9684630" lon="-8.8838640">
        <ele>35.3</ele>
        <time>2021-05-19T07:03:45Z</time>
      </trkpt>
      <trkpt lat="41.9684760" lon="-8.8838660">
        <ele>35.3</ele>
        <time>2021-05-19T07:03:46Z</time>
      </trkpt>
      <trkpt lat="41.9684910" lon="-8.8838700">
        <ele>35.3</ele>
        <time>2021-05-19T07:03:47Z</time>
      </trkpt>
      <trkpt lat="41.9685100" lon="-8.8838720">
        <ele>35.4</ele>
        <time>2021-05-19T07:03:48Z</time>
      </trkpt>
      <trkpt lat="41.9685200" lon="-8.8838770">
        <ele>35.4</ele>
        <time>2021-05-19T07:03:49Z</time>
      </trkpt>
      <trkpt lat="41.9685290" lon="-8.8838810">
        <ele>35.4</ele>
        <time>2021-05-19T07:03:50Z</time>
      </trkpt>
      <trkpt lat="41.9685460" lon="-8.8838820">
        <ele>35.4</ele>
        <time>2021-05-19T07:03:51Z</time>
      </trkpt>
      <trkpt lat="41.9685540" lon="-8.8838820">
        <ele>35.4</ele>
        <time>2021-05-19T07:03:52Z</time>
      </trkpt>
      <trkpt lat="41.9685610" lon="-8.8838830">
        <ele>35.4</ele>
        <time>2021-05-19T07:03:53Z</time>
      </trkpt>
      <trkpt lat="41.9685680" lon="-8.8838830">
        <ele>35.5</ele>
        <time>2021-05-19T07:03:54Z</time>
      </trkpt>
      <trkpt lat="41.9685880" lon="-8.8838820">
        <ele>35.5</ele>
        <time>2021-05-19T07:03:55Z</time>
      </trkpt>
      <trkpt lat="41.9685950" lon="-8.8838830">
        <ele>35.5</ele>
        <time>2021-05-19T07:03:56Z</time>
      </trkpt>
      <trkpt lat="41.9686010" lon="-8.8838850">
        <ele>35.5</ele>
        <time>2021-05-19T07:03:57Z</time>
      </trkpt>
      <trkpt lat="41.9686080" lon="-8.8838860">
        <ele>35.5</ele>
        <time>2021-05-19T07:03:58Z</time>
      </trkpt>
      <trkpt lat="41.9686270" lon="-8.8838850">
        <ele>35.6</ele>
        <time>2021-05-19T07:03:59Z</time>
      </trkpt>
      <trkpt lat="41.9686360" lon="-8.8838870">
        <ele>35.6</ele>
        <time>2021-05-19T07:04:00Z</time>
      </trkpt>
      <trkpt lat="41.9686440" lon="-8.8838880">
        <ele>35.6</ele>
        <time>2021-05-19T07:04:01Z</time>
      </trkpt>
      <trkpt lat="41.9686580" lon="-8.8838920">
        <ele>35.6</ele>
        <time>2021-05-19T07:04:02Z</time>
      </trkpt>
      <trkpt lat="41.9686700" lon="-8.8838920">
        <ele>35.6</ele>
        <time>2021-05-19T07:04:03Z</time>
      </trkpt>
      <trkpt lat="41.9686790" lon="-8.8838930">
        <ele>35.7</ele>
        <time>2021-05-19T07:04:04Z</time>
      </trkpt>
      <trkpt lat="41.9686930" lon="-8.8838930">
        <ele>35.7</ele>
        <time>2021-05-19T07:04:05Z</time>
      </trkpt>
      <trkpt lat="41.9687100" lon="-8.8838920">
        <ele>35.7</ele>
        <time>2021-05-19T07:04:06Z</time>
      </trkpt>
      <trkpt lat="41.9687290" lon="-8.8838900">
        <ele>35.7</ele>
        <time>2021-05-19T07:04:07Z</time>
      </trkpt>
      <trkpt lat="41.9687380" lon="-8.8838910">
        <ele>35.8</ele>
        <time>2021-05-19T07:04:08Z</time>
      </trkpt>
      <trkpt lat="41.9687470" lon="-8.8838930">
        <ele>35.8</ele>
        <time>2021-05-19T07:04:09Z</time>
      </trkpt>
      <trkpt lat="41.9687680" lon="-8.8838980">
        <ele>35.8</ele>
        <time>2021-05-19T07:04:10Z</time>
      </trkpt>
      <trkpt lat="41.9687830" lon="-8.8839050">
        <ele>35.8</ele>
        <time>2021-05-19T07:04:11Z</time>
      </trkpt>
      <trkpt lat="41.9687990" lon="-8.8839020">
        <ele>35.9</ele>
        <time>2021-05-19T07:04:12Z</time>
      </trkpt>
      <trkpt lat="41.9688130" lon="-8.8839020">
        <ele>35.9</ele>
        <time>2021-05-19T07:04:13Z</time>
      </trkpt>
      <trkpt lat="41.9688290" lon="-8.8839120">
        <ele>35.9</ele>
        <time>2021-05-19T07:04:14Z</time>
      </trkpt>
      <trkpt lat="41.9688460" lon="-8.8839090">
        <ele>35.9</ele>
        <time>2021-05-19T07:04:15Z</time>
      </trkpt>
      <trkpt lat="41.9688630" lon="-8.8839120">
        <ele>35.9</ele>
        <time>2021-05-19T07:04:16Z</time>
      </trkpt>
      <trkpt lat="41.9688800" lon="-8.8839250">
        <ele>36.0</ele>
        <time>2021-05-19T07:04:17Z</time>
      </trkpt>
      <trkpt lat="41.9688950" lon="-8.8839280">
        <ele>36.0</ele>
        <time>2021-05-19T07:04:18Z</time>
      </trkpt>
      <trkpt lat="41.9689090" lon="-8.8839300">
        <ele>36.0</ele>
        <time>2021-05-19T07:04:19Z</time>
      </trkpt>
      <trkpt lat="41.9689230" lon="-8.8839310">
        <ele>36.0</ele>
        <time>2021-05-19T07:04:20Z</time>
      </trkpt>
      <trkpt lat="41.9689380" lon="-8.8839360">
        <ele>36.0</ele>
        <time>2021-05-19T07:04:21Z</time>
      </trkpt>
      <trkpt lat="41.9689540" lon="-8.8839400">
        <ele>36.1</ele>
        <time>2021-05-19T07:04:22Z</time>
      </trkpt>
      <trkpt lat="41.9689690" lon="-8.8839380">
        <ele>36.1</ele>
        <time>2021-05-19T07:04:23Z</time>
      </trkpt>
      <trkpt lat="41.9689900" lon="-8.8839400">
        <ele>36.1</ele>
        <time>2021-05-19T07:04:24Z</time>
      </trkpt>
      <trkpt lat="41.9690000" lon="-8.8839390">
        <ele>36.1</ele>
        <time>2021-05-19T07:04:25Z</time>
      </trkpt>
      <trkpt lat="41.9690090" lon="-8.8839390">
        <ele>36.1</ele>
        <time>2021-05-19T07:04:26Z</time>
      </trkpt>
      <trkpt lat="41.9690200" lon="-8.8839460">
        <ele>36.1</ele>
        <time>2021-05-19T07:04:27Z</time>
      </trkpt>
      <trkpt lat="41.9690360" lon="-8.8839410">
        <ele>36.2</ele>
        <time>2021-05-19T07:04:28Z</time>
      </trkpt>
      <trkpt lat="41.9690510" lon="-8.8839420">
        <ele>36.2</ele>
        <time>2021-05-19T07:04:29Z</time>
      </trkpt>
      <trkpt lat="41.9690660" lon="-8.8839400">
        <ele>36.2</ele>
        <time>2021-05-19T07:04:30Z</time>
      </trkpt>
      <trkpt lat="41.9690820" lon="-8.8839350">
        <ele>36.2</ele>
        <time>2021-05-19T07:04:31Z</time>
      </trkpt>
      <trkpt lat="41.9690960" lon="-8.8839430">
        <ele>36.2</ele>
        <time>2021-05-19T07:04:32Z</time>
      </trkpt>
      <trkpt lat="41.9691190" lon="-8.8839430">
        <ele>36.3</ele>
        <time>2021-05-19T07:04:33Z</time>
      </trkpt>
      <trkpt lat="41.9691270" lon="-8.8839420">
        <ele>36.3</ele>
        <time>2021-05-19T07:04:34Z</time>
      </trkpt>
      <trkpt lat="41.9691360" lon="-8.8839420">
        <ele>36.3</ele>
        <time>2021-05-19T07:04:35Z</time>
      </trkpt>
      <trkpt lat="41.9691570" lon="-8.8839460">
        <ele>36.3</ele>
        <time>2021-05-19T07:04:36Z</time>
      </trkpt>
      <trkpt lat="41.9691660" lon="-8.8839450">
        <ele>36.3</ele>
        <time>2021-05-19T07:04:37Z</time>
      </trkpt>
      <trkpt lat="41.9691740" lon="-8.8839450">
        <ele>36.3</ele>
        <time>2021-05-19T07:04:38Z</time>
      </trkpt>
      <trkpt lat="41.9691970" lon="-8.8839510">
        <ele>36.4</ele>
        <time>2021-05-19T07:04:39Z</time>
      </trkpt>
      <trkpt lat="41.9692050" lon="-8.8839520">
        <ele>36.4</ele>
        <time>2021-05-19T07:04:40Z</time>
      </trkpt>
      <trkpt lat="41.9692140" lon="-8.8839540">
        <ele>36.4</ele>
        <time>2021-05-19T07:04:41Z</time>
      </trkpt>
      <trkpt lat="41.9692270" lon="-8.8839460">
        <ele>36.4</ele>
        <time>2021-05-19T07:04:42Z</time>
      </trkpt>
      <trkpt lat="41.9692420" lon="-8.8839530">
        <ele>36.4</ele>
        <time>2021-05-19T07:04:43Z</time>
      </trkpt>
      <trkpt lat="41.9692620" lon="-8.8839640">
        <ele>36.5</ele>
        <time>2021-05-19T07:04:44Z</time>
      </trkpt>
      <trkpt lat="41.9692710" lon="-8.8839680">
        <ele>36.5</ele>
        <time>2021-05-19T07:04:45Z</time>
      </trkpt>
      <trkpt lat="41.9692790" lon="-8.8839710">
        <ele>36.5</ele>
        <time>2021-05-19T07:04:46Z</time>
      </trkpt>
      <trkpt lat="41.9693010" lon="-8.8839710">
        <ele>36.5</ele>
        <time>2021-05-19T07:04:47Z</time>
      </trkpt>
      <trkpt lat="41.9693110" lon="-8.8839710">
        <ele>36.5</ele>
        <time>2021-05-19T07:04:48Z</time>
      </trkpt>
      <trkpt lat="41.9693200" lon="-8.8839710">
        <ele>36.5</ele>
        <time>2021-05-19T07:04:49Z</time>
      </trkpt>
      <trkpt lat="41.9693330" lon="-8.8839750">
        <ele>36.6</ele>
        <time>2021-05-19T07:04:50Z</time>
      </trkpt>
      <trkpt lat="41.9693470" lon="-8.8839780">
        <ele>36.6</ele>
        <time>2021-05-19T07:04:51Z</time>
      </trkpt>
      <trkpt lat="41.9693610" lon="-8.8839770">
        <ele>36.6</ele>
        <time>2021-05-19T07:04:52Z</time>
      </trkpt>
      <trkpt lat="41.9693750" lon="-8.8839800">
        <ele>36.6</ele>
        <time>2021-05-19T07:04:53Z</time>
      </trkpt>
      <trkpt lat="41.9693880" lon="-8.8839820">
        <ele>36.6</ele>
        <time>2021-05-19T07:04:54Z</time>
      </trkpt>
      <trkpt lat="41.9694020" lon="-8.8839820">
        <ele>36.7</ele>
        <time>2021-05-19T07:04:55Z</time>
      </trkpt>
      <trkpt lat="41.9694160" lon="-8.8839840">
        <ele>36.7</ele>
        <time>2021-05-19T07:04:56Z</time>
      </trkpt>
      <trkpt lat="41.9694300" lon="-8.8839870">
        <ele>36.7</ele>
        <time>2021-05-19T07:04:57Z</time>
      </trkpt>
      <trkpt lat="41.9694440" lon="-8.8839890">
        <ele>36.7</ele>
        <time>2021-05-19T07:04:58Z</time>
      </trkpt>
      <trkpt lat="41.9694580" lon="-8.8839810">
        <ele>36.8</ele>
        <time>2021-05-19T07:04:59Z</time>
      </trkpt>
      <trkpt lat="41.9694790" lon="-8.8839930">
        <ele>36.8</ele>
        <time>2021-05-19T07:05:00Z</time>
      </trkpt>
      <trkpt lat="41.9694860" lon="-8.8839930">
        <ele>36.8</ele>
        <time>2021-05-19T07:05:01Z</time>
      </trkpt>
      <trkpt lat="41.9694940" lon="-8.8839940">
        <ele>36.8</ele>
        <time>2021-05-19T07:05:02Z</time>
      </trkpt>
      <trkpt lat="41.9695160" lon="-8.8839930">
        <ele>36.9</ele>
        <time>2021-05-19T07:05:03Z</time>
      </trkpt>
      <trkpt lat="41.9695250" lon="-8.8839910">
        <ele>36.9</ele>
        <time>2021-05-19T07:05:04Z</time>
      </trkpt>
      <trkpt lat="41.9695340" lon="-8.8839880">
        <ele>36.9</ele>
        <time>2021-05-19T07:05:05Z</time>
      </trkpt>
      <trkpt lat="41.9695470" lon="-8.8839890">
        <ele>36.9</ele>
        <time>2021-05-19T07:05:06Z</time>
      </trkpt>
      <trkpt lat="41.9695570" lon="-8.8839940">
        <ele>36.9</ele>
        <time>2021-05-19T07:05:07Z</time>
      </trkpt>
      <trkpt lat="41.9695600" lon="-8.8839900">
        <ele>36.9</ele>
        <time>2021-05-19T07:05:08Z</time>
      </trkpt>
      <trkpt lat="41.9695650" lon="-8.8840000">
        <ele>36.9</ele>
        <time>2021-05-19T07:05:09Z</time>
      </trkpt>
      <trkpt lat="41.9695760" lon="-8.8840000">
        <ele>37.0</ele>
        <time>2021-05-19T07:05:10Z</time>
      </trkpt>
      <trkpt lat="41.9695820" lon="-8.8839950">
        <ele>37.0</ele>
        <time>2021-05-19T07:05:11Z</time>
      </trkpt>
      <trkpt lat="41.9695810" lon="-8.8840010">
        <ele>37.0</ele>
        <time>2021-05-19T07:05:12Z</time>
      </trkpt>
      <trkpt lat="41.9695910" lon="-8.8840060">
        <ele>37.0</ele>
        <time>2021-05-19T07:05:13Z</time>
      </trkpt>
      <trkpt lat="41.9695960" lon="-8.8840010">
        <ele>37.0</ele>
        <time>2021-05-19T07:05:14Z</time>
      </trkpt>
      <trkpt lat="41.9696120" lon="-8.8840020">
        <ele>37.0</ele>
        <time>2021-05-19T07:05:15Z</time>
      </trkpt>
      <trkpt lat="41.9696150" lon="-8.8840020">
        <ele>37.0</ele>
        <time>2021-05-19T07:05:16Z</time>
      </trkpt>
      <trkpt lat="41.9696270" lon="-8.8839990">
        <ele>37.1</ele>
        <time>2021-05-19T07:05:17Z</time>
      </trkpt>
      <trkpt lat="41.9696340" lon="-8.8840020">
        <ele>37.1</ele>
        <time>2021-05-19T07:05:18Z</time>
      </trkpt>
      <trkpt lat="41.9696420" lon="-8.8840060">
        <ele>37.1</ele>
        <time>2021-05-19T07:05:19Z</time>
      </trkpt>
      <trkpt lat="41.9696500" lon="-8.8840030">
        <ele>37.1</ele>
        <time>2021-05-19T07:05:20Z</time>
      </trkpt>
      <trkpt lat="41.9696580" lon="-8.8840080">
        <ele>37.1</ele>
        <time>2021-05-19T07:05:21Z</time>
      </trkpt>
      <trkpt lat="41.9696760" lon="-8.8840150">
        <ele>37.1</ele>
        <time>2021-05-19T07:05:22Z</time>
      </trkpt>
      <trkpt lat="41.9696830" lon="-8.8840160">
        <ele>37.1</ele>
        <time>2021-05-19T07:05:23Z</time>
      </trkpt>
      <trkpt lat="41.9696900" lon="-8.8840170">
        <ele>37.1</ele>
        <time>2021-05-19T07:05:24Z</time>
      </trkpt>
      <trkpt lat="41.9696970" lon="-8.8840180">
        <ele>37.1</ele>
        <time>2021-05-19T07:05:25Z</time>
      </trkpt>
      <trkpt lat="41.9697100" lon="-8.8840210">
        <ele>37.2</ele>
        <time>2021-05-19T07:05:26Z</time>
      </trkpt>
      <trkpt lat="41.9697090" lon="-8.8840210">
        <ele>37.2</ele>
        <time>2021-05-19T07:05:27Z</time>
      </trkpt>
      <trkpt lat="41.9697210" lon="-8.8840250">
        <ele>37.2</ele>
        <time>2021-05-19T07:05:28Z</time>
      </trkpt>
      <trkpt lat="41.9697310" lon="-8.8840230">
        <ele>37.2</ele>
        <time>2021-05-19T07:05:29Z</time>
      </trkpt>
      <trkpt lat="41.9697360" lon="-8.8840170">
        <ele>37.2</ele>
        <time>2021-05-19T07:05:30Z</time>
      </trkpt>
      <trkpt lat="41.9697430" lon="-8.8840160">
        <ele>37.2</ele>
        <time>2021-05-19T07:05:31Z</time>
      </trkpt>
      <trkpt lat="41.9697530" lon="-8.8840130">
        <ele>37.2</ele>
        <time>2021-05-19T07:05:32Z</time>
      </trkpt>
      <trkpt lat="41.9697660" lon="-8.8840250">
        <ele>37.2</ele>
        <time>2021-05-19T07:05:33Z</time>
      </trkpt>
      <trkpt lat="41.9697800" lon="-8.8840240">
        <ele>37.2</ele>
        <time>2021-05-19T07:05:34Z</time>
      </trkpt>
      <trkpt lat="41.9697860" lon="-8.8840240">
        <ele>37.2</ele>
        <time>2021-05-19T07:05:35Z</time>
      </trkpt>
      <trkpt lat="41.9697920" lon="-8.8840230">
        <ele>37.3</ele>
        <time>2021-05-19T07:05:36Z</time>
      </trkpt>
      <trkpt lat="41.9697980" lon="-8.8840230">
        <ele>37.3</ele>
        <time>2021-05-19T07:05:37Z</time>
      </trkpt>
      <trkpt lat="41.9698040" lon="-8.8840220">
        <ele>37.3</ele>
        <time>2021-05-19T07:05:38Z</time>
      </trkpt>
      <trkpt lat="41.9698110" lon="-8.8840230">
        <ele>37.3</ele>
        <time>2021-05-19T07:05:39Z</time>
      </trkpt>
      <trkpt lat="41.9698220" lon="-8.8840190">
        <ele>37.4</ele>
        <time>2021-05-19T07:05:40Z</time>
      </trkpt>
      <trkpt lat="41.9698350" lon="-8.8840270">
        <ele>38.7</ele>
        <time>2021-05-19T07:05:41Z</time>
      </trkpt>
      <trkpt lat="41.9698480" lon="-8.8840200">
        <ele>38.7</ele>
        <time>2021-05-19T07:05:42Z</time>
      </trkpt>
      <trkpt lat="41.9698530" lon="-8.8840200">
        <ele>38.7</ele>
        <time>2021-05-19T07:05:43Z</time>
      </trkpt>
      <trkpt lat="41.9698630" lon="-8.8840230">
        <ele>38.7</ele>
        <time>2021-05-19T07:05:44Z</time>
      </trkpt>
      <trkpt lat="41.9698680" lon="-8.8840260">
        <ele>38.7</ele>
        <time>2021-05-19T07:05:45Z</time>
      </trkpt>
      <trkpt lat="41.9698640" lon="-8.8840260">
        <ele>38.7</ele>
        <time>2021-05-19T07:05:46Z</time>
      </trkpt>
      <trkpt lat="41.9698730" lon="-8.8840220">
        <ele>38.8</ele>
        <time>2021-05-19T07:05:47Z</time>
      </trkpt>
      <trkpt lat="41.9698860" lon="-8.8840270">
        <ele>38.8</ele>
        <time>2021-05-19T07:05:48Z</time>
      </trkpt>
      <trkpt lat="41.9698970" lon="-8.8840280">
        <ele>38.8</ele>
        <time>2021-05-19T07:05:49Z</time>
      </trkpt>
      <trkpt lat="41.9699130" lon="-8.8840210">
        <ele>38.8</ele>
        <time>2021-05-19T07:05:50Z</time>
      </trkpt>
      <trkpt lat="41.9699300" lon="-8.8840210">
        <ele>38.8</ele>
        <time>2021-05-19T07:05:51Z</time>
      </trkpt>
      <trkpt lat="41.9699420" lon="-8.8840210">
        <ele>38.9</ele>
        <time>2021-05-19T07:05:52Z</time>
      </trkpt>
      <trkpt lat="41.9699590" lon="-8.8840220">
        <ele>38.9</ele>
        <time>2021-05-19T07:05:53Z</time>
      </trkpt>
      <trkpt lat="41.9699680" lon="-8.8840260">
        <ele>38.9</ele>
        <time>2021-05-19T07:05:54Z</time>
      </trkpt>
      <trkpt lat="41.9699840" lon="-8.8840230">
        <ele>38.9</ele>
        <time>2021-05-19T07:05:55Z</time>
      </trkpt>
      <trkpt lat="41.9699900" lon="-8.8840210">
        <ele>38.9</ele>
        <time>2021-05-19T07:05:56Z</time>
      </trkpt>
      <trkpt lat="41.9700070" lon="-8.8840280">
        <ele>39.0</ele>
        <time>2021-05-19T07:05:57Z</time>
      </trkpt>
      <trkpt lat="41.9700170" lon="-8.8840310">
        <ele>39.0</ele>
        <time>2021-05-19T07:05:58Z</time>
      </trkpt>
      <trkpt lat="41.9700280" lon="-8.8840340">
        <ele>39.0</ele>
        <time>2021-05-19T07:05:59Z</time>
      </trkpt>
      <trkpt lat="41.9700440" lon="-8.8840440">
        <ele>39.0</ele>
        <time>2021-05-19T07:06:00Z</time>
      </trkpt>
      <trkpt lat="41.9700550" lon="-8.8840520">
        <ele>39.1</ele>
        <time>2021-05-19T07:06:01Z</time>
      </trkpt>
      <trkpt lat="41.9700660" lon="-8.8840600">
        <ele>39.1</ele>
        <time>2021-05-19T07:06:02Z</time>
      </trkpt>
      <trkpt lat="41.9700760" lon="-8.8840510">
        <ele>39.1</ele>
        <time>2021-05-19T07:06:03Z</time>
      </trkpt>
      <trkpt lat="41.9700820" lon="-8.8840480">
        <ele>39.1</ele>
        <time>2021-05-19T07:06:04Z</time>
      </trkpt>
      <trkpt lat="41.9700870" lon="-8.8840450">
        <ele>39.1</ele>
        <time>2021-05-19T07:06:05Z</time>
      </trkpt>
      <trkpt lat="41.9700930" lon="-8.8840420">
        <ele>39.1</ele>
        <time>2021-05-19T07:06:06Z</time>
      </trkpt>
      <trkpt lat="41.9700990" lon="-8.8840390">
        <ele>39.1</ele>
        <time>2021-05-19T07:06:07Z</time>
      </trkpt>
      <trkpt lat="41.9701120" lon="-8.8840430">
        <ele>39.2</ele>
        <time>2021-05-19T07:06:08Z</time>
      </trkpt>
      <trkpt lat="41.9701260" lon="-8.8840410">
        <ele>39.2</ele>
        <time>2021-05-19T07:06:09Z</time>
      </trkpt>
      <trkpt lat="41.9701450" lon="-8.8840470">
        <ele>39.2</ele>
        <time>2021-05-19T07:06:10Z</time>
      </trkpt>
      <trkpt lat="41.9701540" lon="-8.8840490">
        <ele>39.2</ele>
        <time>2021-05-19T07:06:11Z</time>
      </trkpt>
      <trkpt lat="41.9701630" lon="-8.8840510">
        <ele>39.3</ele>
        <time>2021-05-19T07:06:12Z</time>
      </trkpt>
      <trkpt lat="41.9701830" lon="-8.8840510">
        <ele>39.3</ele>
        <time>2021-05-19T07:06:13Z</time>
      </trkpt>
      <trkpt lat="41.9701910" lon="-8.8840530">
        <ele>39.3</ele>
        <time>2021-05-19T07:06:14Z</time>
      </trkpt>
      <trkpt lat="41.9701990" lon="-8.8840550">
        <ele>39.3</ele>
        <time>2021-05-19T07:06:15Z</time>
      </trkpt>
      <trkpt lat="41.9702090" lon="-8.8840500">
        <ele>39.3</ele>
        <time>2021-05-19T07:06:16Z</time>
      </trkpt>
      <trkpt lat="41.9702240" lon="-8.8840540">
        <ele>39.4</ele>
        <time>2021-05-19T07:06:17Z</time>
      </trkpt>
      <trkpt lat="41.9702260" lon="-8.8840580">
        <ele>39.4</ele>
        <time>2021-05-19T07:06:18Z</time>
      </trkpt>
      <trkpt lat="41.9702380" lon="-8.8840590">
        <ele>39.4</ele>
        <time>2021-05-19T07:06:19Z</time>
      </trkpt>
      <trkpt lat="41.9702480" lon="-8.8840600">
        <ele>39.4</ele>
        <time>2021-05-19T07:06:20Z</time>
      </trkpt>
      <trkpt lat="41.9702590" lon="-8.8840580">
        <ele>39.4</ele>
        <time>2021-05-19T07:06:21Z</time>
      </trkpt>
      <trkpt lat="41.9702780" lon="-8.8840620">
        <ele>39.4</ele>
        <time>2021-05-19T07:06:22Z</time>
      </trkpt>
      <trkpt lat="41.9702920" lon="-8.8840620">
        <ele>39.5</ele>
        <time>2021-05-19T07:06:23Z</time>
      </trkpt>
      <trkpt lat="41.9703030" lon="-8.8840660">
        <ele>39.5</ele>
        <time>2021-05-19T07:06:24Z</time>
      </trkpt>
      <trkpt lat="41.9703150" lon="-8.8840680">
        <ele>39.5</ele>
        <time>2021-05-19T07:06:25Z</time>
      </trkpt>
      <trkpt lat="41.9703230" lon="-8.8840720">
        <ele>39.5</ele>
        <time>2021-05-19T07:06:26Z</time>
      </trkpt>
      <trkpt lat="41.9703390" lon="-8.8840720">
        <ele>39.5</ele>
        <time>2021-05-19T07:06:27Z</time>
      </trkpt>
      <trkpt lat="41.9703460" lon="-8.8840670">
        <ele>39.5</ele>
        <time>2021-05-19T07:06:28Z</time>
      </trkpt>
      <trkpt lat="41.9703560" lon="-8.8840690">
        <ele>39.5</ele>
        <time>2021-05-19T07:06:29Z</time>
      </trkpt>
      <trkpt lat="41.9703730" lon="-8.8840730">
        <ele>39.6</ele>
        <time>2021-05-19T07:06:30Z</time>
      </trkpt>
      <trkpt lat="41.9703840" lon="-8.8840700">
        <ele>39.6</ele>
        <time>2021-05-19T07:06:31Z</time>
      </trkpt>
      <trkpt lat="41.9704060" lon="-8.8840790">
        <ele>39.6</ele>
        <time>2021-05-19T07:06:32Z</time>
      </trkpt>
      <trkpt lat="41.9704140" lon="-8.8840800">
        <ele>39.6</ele>
        <time>2021-05-19T07:06:33Z</time>
      </trkpt>
      <trkpt lat="41.9704220" lon="-8.8840820">
        <ele>39.6</ele>
        <time>2021-05-19T07:06:34Z</time>
      </trkpt>
      <trkpt lat="41.9704270" lon="-8.8840790">
        <ele>39.6</ele>
        <time>2021-05-19T07:06:35Z</time>
      </trkpt>
      <trkpt lat="41.9704420" lon="-8.8840820">
        <ele>39.7</ele>
        <time>2021-05-19T07:06:36Z</time>
      </trkpt>
      <trkpt lat="41.9704560" lon="-8.8840910">
        <ele>39.7</ele>
        <time>2021-05-19T07:06:37Z</time>
      </trkpt>
      <trkpt lat="41.9704680" lon="-8.8840860">
        <ele>39.7</ele>
        <time>2021-05-19T07:06:38Z</time>
      </trkpt>
      <trkpt lat="41.9704850" lon="-8.8840860">
        <ele>39.7</ele>
        <time>2021-05-19T07:06:39Z</time>
      </trkpt>
      <trkpt lat="41.9705060" lon="-8.8840930">
        <ele>39.8</ele>
        <time>2021-05-19T07:06:40Z</time>
      </trkpt>
      <trkpt lat="41.9705140" lon="-8.8840950">
        <ele>39.8</ele>
        <time>2021-05-19T07:06:41Z</time>
      </trkpt>
      <trkpt lat="41.9705210" lon="-8.8840980">
        <ele>39.8</ele>
        <time>2021-05-19T07:06:42Z</time>
      </trkpt>
      <trkpt lat="41.9705340" lon="-8.8841010">
        <ele>39.8</ele>
        <time>2021-05-19T07:06:43Z</time>
      </trkpt>
      <trkpt lat="41.9705430" lon="-8.8841030">
        <ele>39.8</ele>
        <time>2021-05-19T07:06:44Z</time>
      </trkpt>
      <trkpt lat="41.9705570" lon="-8.8841020">
        <ele>39.8</ele>
        <time>2021-05-19T07:06:45Z</time>
      </trkpt>
      <trkpt lat="41.9705700" lon="-8.8841000">
        <ele>39.9</ele>
        <time>2021-05-19T07:06:46Z</time>
      </trkpt>
      <trkpt lat="41.9705800" lon="-8.8840980">
        <ele>39.9</ele>
        <time>2021-05-19T07:06:47Z</time>
      </trkpt>
      <trkpt lat="41.9705900" lon="-8.8840970">
        <ele>39.9</ele>
        <time>2021-05-19T07:06:48Z</time>
      </trkpt>
      <trkpt lat="41.9706040" lon="-8.8841020">
        <ele>39.9</ele>
        <time>2021-05-19T07:06:49Z</time>
      </trkpt>
      <trkpt lat="41.9706190" lon="-8.8841080">
        <ele>39.9</ele>
        <time>2021-05-19T07:06:50Z</time>
      </trkpt>
      <trkpt lat="41.9706320" lon="-8.8841070">
        <ele>40.0</ele>
        <time>2021-05-19T07:06:51Z</time>
      </trkpt>
      <trkpt lat="41.9706410" lon="-8.8841090">
        <ele>40.0</ele>
        <time>2021-05-19T07:06:52Z</time>
      </trkpt>
      <trkpt lat="41.9706490" lon="-8.8841040">
        <ele>40.0</ele>
        <time>2021-05-19T07:06:53Z</time>
      </trkpt>
      <trkpt lat="41.9706610" lon="-8.8841040">
        <ele>40.0</ele>
        <time>2021-05-19T07:06:54Z</time>
      </trkpt>
      <trkpt lat="41.9706720" lon="-8.8841080">
        <ele>40.0</ele>
        <time>2021-05-19T07:06:55Z</time>
      </trkpt>
      <trkpt lat="41.9706810" lon="-8.8841130">
        <ele>40.0</ele>
        <time>2021-05-19T07:06:56Z</time>
      </trkpt>
      <trkpt lat="41.9706890" lon="-8.8841180">
        <ele>40.0</ele>
        <time>2021-05-19T07:06:57Z</time>
      </trkpt>
      <trkpt lat="41.9707120" lon="-8.8841230">
        <ele>40.1</ele>
        <time>2021-05-19T07:06:58Z</time>
      </trkpt>
      <trkpt lat="41.9707210" lon="-8.8841270">
        <ele>40.1</ele>
        <time>2021-05-19T07:06:59Z</time>
      </trkpt>
      <trkpt lat="41.9707310" lon="-8.8841220">
        <ele>40.1</ele>
        <time>2021-05-19T07:07:00Z</time>
      </trkpt>
      <trkpt lat="41.9707470" lon="-8.8841240">
        <ele>40.2</ele>
        <time>2021-05-19T07:07:01Z</time>
      </trkpt>
      <trkpt lat="41.9707710" lon="-8.8841260">
        <ele>40.2</ele>
        <time>2021-05-19T07:07:02Z</time>
      </trkpt>
      <trkpt lat="41.9707800" lon="-8.8841270">
        <ele>40.2</ele>
        <time>2021-05-19T07:07:03Z</time>
      </trkpt>
      <trkpt lat="41.9707900" lon="-8.8841280">
        <ele>40.2</ele>
        <time>2021-05-19T07:07:04Z</time>
      </trkpt>
      <trkpt lat="41.9707980" lon="-8.8841300">
        <ele>40.2</ele>
        <time>2021-05-19T07:07:05Z</time>
      </trkpt>
      <trkpt lat="41.9708130" lon="-8.8841350">
        <ele>40.3</ele>
        <time>2021-05-19T07:07:06Z</time>
      </trkpt>
      <trkpt lat="41.9708240" lon="-8.8841400">
        <ele>40.3</ele>
        <time>2021-05-19T07:07:07Z</time>
      </trkpt>
      <trkpt lat="41.9708330" lon="-8.8841420">
        <ele>40.3</ele>
        <time>2021-05-19T07:07:08Z</time>
      </trkpt>
      <trkpt lat="41.9708530" lon="-8.8841470">
        <ele>40.3</ele>
        <time>2021-05-19T07:07:09Z</time>
      </trkpt>
      <trkpt lat="41.9708670" lon="-8.8841580">
        <ele>40.4</ele>
        <time>2021-05-19T07:07:10Z</time>
      </trkpt>
      <trkpt lat="41.9708800" lon="-8.8841590">
        <ele>40.4</ele>
        <time>2021-05-19T07:07:11Z</time>
      </trkpt>
      <trkpt lat="41.9708950" lon="-8.8841640">
        <ele>40.4</ele>
        <time>2021-05-19T07:07:12Z</time>
      </trkpt>
      <trkpt lat="41.9709040" lon="-8.8841560">
        <ele>40.4</ele>
        <time>2021-05-19T07:07:13Z</time>
      </trkpt>
      <trkpt lat="41.9709150" lon="-8.8841610">
        <ele>40.5</ele>
        <time>2021-05-19T07:07:14Z</time>
      </trkpt>
      <trkpt lat="41.9709280" lon="-8.8841650">
        <ele>40.5</ele>
        <time>2021-05-19T07:07:15Z</time>
      </trkpt>
      <trkpt lat="41.9709490" lon="-8.8841660">
        <ele>40.5</ele>
        <time>2021-05-19T07:07:16Z</time>
      </trkpt>
      <trkpt lat="41.9709550" lon="-8.8841680">
        <ele>40.5</ele>
        <time>2021-05-19T07:07:17Z</time>
      </trkpt>
      <trkpt lat="41.9709690" lon="-8.8841660">
        <ele>40.6</ele>
        <time>2021-05-19T07:07:18Z</time>
      </trkpt>
      <trkpt lat="41.9709850" lon="-8.8841730">
        <ele>40.6</ele>
        <time>2021-05-19T07:07:19Z</time>
      </trkpt>
      <trkpt lat="41.9710040" lon="-8.8841730">
        <ele>40.6</ele>
        <time>2021-05-19T07:07:20Z</time>
      </trkpt>
      <trkpt lat="41.9710140" lon="-8.8841780">
        <ele>40.6</ele>
        <time>2021-05-19T07:07:21Z</time>
      </trkpt>
      <trkpt lat="41.9710250" lon="-8.8841820">
        <ele>40.7</ele>
        <time>2021-05-19T07:07:22Z</time>
      </trkpt>
      <trkpt lat="41.9710370" lon="-8.8841770">
        <ele>40.7</ele>
        <time>2021-05-19T07:07:23Z</time>
      </trkpt>
      <trkpt lat="41.9710500" lon="-8.8841850">
        <ele>40.7</ele>
        <time>2021-05-19T07:07:24Z</time>
      </trkpt>
      <trkpt lat="41.9710610" lon="-8.8841880">
        <ele>40.7</ele>
        <time>2021-05-19T07:07:25Z</time>
      </trkpt>
      <trkpt lat="41.9710790" lon="-8.8841860">
        <ele>40.8</ele>
        <time>2021-05-19T07:07:26Z</time>
      </trkpt>
      <trkpt lat="41.9710880" lon="-8.8841910">
        <ele>40.8</ele>
        <time>2021-05-19T07:07:27Z</time>
      </trkpt>
      <trkpt lat="41.9710980" lon="-8.8841950">
        <ele>40.8</ele>
        <time>2021-05-19T07:07:28Z</time>
      </trkpt>
      <trkpt lat="41.9711130" lon="-8.8841950">
        <ele>40.8</ele>
        <time>2021-05-19T07:07:29Z</time>
      </trkpt>
      <trkpt lat="41.9711260" lon="-8.8842060">
        <ele>40.8</ele>
        <time>2021-05-19T07:07:30Z</time>
      </trkpt>
      <trkpt lat="41.9711490" lon="-8.8842060">
        <ele>40.9</ele>
        <time>2021-05-19T07:07:31Z</time>
      </trkpt>
      <trkpt lat="41.9711570" lon="-8.8842050">
        <ele>40.9</ele>
        <time>2021-05-19T07:07:32Z</time>
      </trkpt>
      <trkpt lat="41.9711650" lon="-8.8842040">
        <ele>40.9</ele>
        <time>2021-05-19T07:07:33Z</time>
      </trkpt>
      <trkpt lat="41.9711750" lon="-8.8842050">
        <ele>40.9</ele>
        <time>2021-05-19T07:07:34Z</time>
      </trkpt>
      <trkpt lat="41.9711860" lon="-8.8842050">
        <ele>40.9</ele>
        <time>2021-05-19T07:07:35Z</time>
      </trkpt>
      <trkpt lat="41.9711940" lon="-8.8842060">
        <ele>40.9</ele>
        <time>2021-05-19T07:07:36Z</time>
      </trkpt>
      <trkpt lat="41.9712110" lon="-8.8842100">
        <ele>40.9</ele>
        <time>2021-05-19T07:07:37Z</time>
      </trkpt>
      <trkpt lat="41.9712250" lon="-8.8842140">
        <ele>41.0</ele>
        <time>2021-05-19T07:07:38Z</time>
      </trkpt>
      <trkpt lat="41.9712490" lon="-8.8842200">
        <ele>41.0</ele>
        <time>2021-05-19T07:07:39Z</time>
      </trkpt>
      <trkpt lat="41.9712570" lon="-8.8842220">
        <ele>41.0</ele>
        <time>2021-05-19T07:07:40Z</time>
      </trkpt>
      <trkpt lat="41.9712640" lon="-8.8842240">
        <ele>41.0</ele>
        <time>2021-05-19T07:07:41Z</time>
      </trkpt>
      <trkpt lat="41.9712770" lon="-8.8842190">
        <ele>41.0</ele>
        <time>2021-05-19T07:07:42Z</time>
      </trkpt>
      <trkpt lat="41.9712930" lon="-8.8842290">
        <ele>41.0</ele>
        <time>2021-05-19T07:07:43Z</time>
      </trkpt>
      <trkpt lat="41.9713230" lon="-8.8842270">
        <ele>41.1</ele>
        <time>2021-05-19T07:07:44Z</time>
      </trkpt>
      <trkpt lat="41.9713310" lon="-8.8842250">
        <ele>41.1</ele>
        <time>2021-05-19T07:07:45Z</time>
      </trkpt>
      <trkpt lat="41.9713600" lon="-8.8842220">
        <ele>41.1</ele>
        <time>2021-05-19T07:07:46Z</time>
      </trkpt>
      <trkpt lat="41.9713690" lon="-8.8842190">
        <ele>41.1</ele>
        <time>2021-05-19T07:07:47Z</time>
      </trkpt>
      <trkpt lat="41.9713990" lon="-8.8842230">
        <ele>41.2</ele>
        <time>2021-05-19T07:07:48Z</time>
      </trkpt>
      <trkpt lat="41.9714080" lon="-8.8842260">
        <ele>41.2</ele>
        <time>2021-05-19T07:07:49Z</time>
      </trkpt>
      <trkpt lat="41.9714250" lon="-8.8842220">
        <ele>41.2</ele>
        <time>2021-05-19T07:07:50Z</time>
      </trkpt>
      <trkpt lat="41.9714420" lon="-8.8842290">
        <ele>41.2</ele>
        <time>2021-05-19T07:07:51Z</time>
      </trkpt>
      <trkpt lat="41.9714570" lon="-8.8842300">
        <ele>41.2</ele>
        <time>2021-05-19T07:07:52Z</time>
      </trkpt>
      <trkpt lat="41.9714730" lon="-8.8842310">
        <ele>41.3</ele>
        <time>2021-05-19T07:07:53Z</time>
      </trkpt>
      <trkpt lat="41.9714900" lon="-8.8842340">
        <ele>41.3</ele>
        <time>2021-05-19T07:07:54Z</time>
      </trkpt>
      <trkpt lat="41.9715060" lon="-8.8842340">
        <ele>41.3</ele>
        <time>2021-05-19T07:07:55Z</time>
      </trkpt>
      <trkpt lat="41.9715210" lon="-8.8842310">
        <ele>41.3</ele>
        <time>2021-05-19T07:07:56Z</time>
      </trkpt>
      <trkpt lat="41.9715350" lon="-8.8842420">
        <ele>41.4</ele>
        <time>2021-05-19T07:07:57Z</time>
      </trkpt>
      <trkpt lat="41.9715500" lon="-8.8842410">
        <ele>41.4</ele>
        <time>2021-05-19T07:07:58Z</time>
      </trkpt>
      <trkpt lat="41.9715660" lon="-8.8842350">
        <ele>41.4</ele>
        <time>2021-05-19T07:07:59Z</time>
      </trkpt>
      <trkpt lat="41.9715810" lon="-8.8842390">
        <ele>41.4</ele>
        <time>2021-05-19T07:08:00Z</time>
      </trkpt>
      <trkpt lat="41.9715960" lon="-8.8842350">
        <ele>41.5</ele>
        <time>2021-05-19T07:08:01Z</time>
      </trkpt>
      <trkpt lat="41.9716100" lon="-8.8842380">
        <ele>41.5</ele>
        <time>2021-05-19T07:08:02Z</time>
      </trkpt>
      <trkpt lat="41.9716260" lon="-8.8842460">
        <ele>41.5</ele>
        <time>2021-05-19T07:08:03Z</time>
      </trkpt>
      <trkpt lat="41.9716430" lon="-8.8842440">
        <ele>41.5</ele>
        <time>2021-05-19T07:08:04Z</time>
      </trkpt>
      <trkpt lat="41.9716590" lon="-8.8842410">
        <ele>41.6</ele>
        <time>2021-05-19T07:08:05Z</time>
      </trkpt>
      <trkpt lat="41.9716740" lon="-8.8842400">
        <ele>41.6</ele>
        <time>2021-05-19T07:08:06Z</time>
      </trkpt>
      <trkpt lat="41.9716900" lon="-8.8842510">
        <ele>41.6</ele>
        <time>2021-05-19T07:08:07Z</time>
      </trkpt>
      <trkpt lat="41.9717050" lon="-8.8842490">
        <ele>41.6</ele>
        <time>2021-05-19T07:08:08Z</time>
      </trkpt>
      <trkpt lat="41.9717220" lon="-8.8842510">
        <ele>41.7</ele>
        <time>2021-05-19T07:08:09Z</time>
      </trkpt>
      <trkpt lat="41.9717390" lon="-8.8842460">
        <ele>41.7</ele>
        <time>2021-05-19T07:08:10Z</time>
      </trkpt>
      <trkpt lat="41.9717540" lon="-8.8842490">
        <ele>41.7</ele>
        <time>2021-05-19T07:08:11Z</time>
      </trkpt>
      <trkpt lat="41.9717680" lon="-8.8842450">
        <ele>41.8</ele>
        <time>2021-05-19T07:08:12Z</time>
      </trkpt>
      <trkpt lat="41.9717790" lon="-8.8842530">
        <ele>41.8</ele>
        <time>2021-05-19T07:08:13Z</time>
      </trkpt>
      <trkpt lat="41.9717880" lon="-8.8842520">
        <ele>41.5</ele>
        <time>2021-05-19T07:08:14Z</time>
      </trkpt>
      <trkpt lat="41.9717990" lon="-8.8842550">
        <ele>41.5</ele>
        <time>2021-05-19T07:08:15Z</time>
      </trkpt>
      <trkpt lat="41.9718110" lon="-8.8842630">
        <ele>41.4</ele>
        <time>2021-05-19T07:08:16Z</time>
      </trkpt>
      <trkpt lat="41.9718210" lon="-8.8842580">
        <ele>41.4</ele>
        <time>2021-05-19T07:08:17Z</time>
      </trkpt>
      <trkpt lat="41.9718280" lon="-8.8842630">
        <ele>41.4</ele>
        <time>2021-05-19T07:08:18Z</time>
      </trkpt>
      <trkpt lat="41.9718390" lon="-8.8842630">
        <ele>41.3</ele>
        <time>2021-05-19T07:08:19Z</time>
      </trkpt>
      <trkpt lat="41.9718470" lon="-8.8842680">
        <ele>41.3</ele>
        <time>2021-05-19T07:08:20Z</time>
      </trkpt>
      <trkpt lat="41.9718670" lon="-8.8842800">
        <ele>41.2</ele>
        <time>2021-05-19T07:08:21Z</time>
      </trkpt>
      <trkpt lat="41.9718730" lon="-8.8842870">
        <ele>41.2</ele>
        <time>2021-05-19T07:08:22Z</time>
      </trkpt>
      <trkpt lat="41.9718790" lon="-8.8842930">
        <ele>41.2</ele>
        <time>2021-05-19T07:08:23Z</time>
      </trkpt>
      <trkpt lat="41.9718890" lon="-8.8843080">
        <ele>41.1</ele>
        <time>2021-05-19T07:08:24Z</time>
      </trkpt>
      <trkpt lat="41.9719000" lon="-8.8843170">
        <ele>41.1</ele>
        <time>2021-05-19T07:08:25Z</time>
      </trkpt>
      <trkpt lat="41.9719130" lon="-8.8843260">
        <ele>41.0</ele>
        <time>2021-05-19T07:08:26Z</time>
      </trkpt>
      <trkpt lat="41.9719280" lon="-8.8843410">
        <ele>40.9</ele>
        <time>2021-05-19T07:08:27Z</time>
      </trkpt>
      <trkpt lat="41.9719460" lon="-8.8843500">
        <ele>40.8</ele>
        <time>2021-05-19T07:08:28Z</time>
      </trkpt>
      <trkpt lat="41.9719590" lon="-8.8843550">
        <ele>40.8</ele>
        <time>2021-05-19T07:08:29Z</time>
      </trkpt>
      <trkpt lat="41.9719700" lon="-8.8843720">
        <ele>40.8</ele>
        <time>2021-05-19T07:08:30Z</time>
      </trkpt>
      <trkpt lat="41.9719820" lon="-8.8843850">
        <ele>40.7</ele>
        <time>2021-05-19T07:08:31Z</time>
      </trkpt>
      <trkpt lat="41.9720110" lon="-8.8843810">
        <ele>40.7</ele>
        <time>2021-05-19T07:08:32Z</time>
      </trkpt>
      <trkpt lat="41.9720200" lon="-8.8843780">
        <ele>40.6</ele>
        <time>2021-05-19T07:08:33Z</time>
      </trkpt>
      <trkpt lat="41.9720360" lon="-8.8843710">
        <ele>40.4</ele>
        <time>2021-05-19T07:08:34Z</time>
      </trkpt>
      <trkpt lat="41.9720480" lon="-8.8843790">
        <ele>40.4</ele>
        <time>2021-05-19T07:08:35Z</time>
      </trkpt>
      <trkpt lat="41.9720520" lon="-8.8843840">
        <ele>40.4</ele>
        <time>2021-05-19T07:08:36Z</time>
      </trkpt>
      <trkpt lat="41.9720650" lon="-8.8843810">
        <ele>40.4</ele>
        <time>2021-05-19T07:08:37Z</time>
      </trkpt>
      <trkpt lat="41.9720780" lon="-8.8843830">
        <ele>40.4</ele>
        <time>2021-05-19T07:08:38Z</time>
      </trkpt>
      <trkpt lat="41.9720820" lon="-8.8843710">
        <ele>40.4</ele>
        <time>2021-05-19T07:08:39Z</time>
      </trkpt>
      <trkpt lat="41.9720980" lon="-8.8843690">
        <ele>40.5</ele>
        <time>2021-05-19T07:08:40Z</time>
      </trkpt>
      <trkpt lat="41.9721100" lon="-8.8843670">
        <ele>40.5</ele>
        <time>2021-05-19T07:08:41Z</time>
      </trkpt>
      <trkpt lat="41.9721200" lon="-8.8843630">
        <ele>40.5</ele>
        <time>2021-05-19T07:08:42Z</time>
      </trkpt>
      <trkpt lat="41.9721310" lon="-8.8843600">
        <ele>40.5</ele>
        <time>2021-05-19T07:08:43Z</time>
      </trkpt>
      <trkpt lat="41.9721420" lon="-8.8843560">
        <ele>40.5</ele>
        <time>2021-05-19T07:08:44Z</time>
      </trkpt>
      <trkpt lat="41.9721540" lon="-8.8843500">
        <ele>40.6</ele>
        <time>2021-05-19T07:08:45Z</time>
      </trkpt>
      <trkpt lat="41.9721630" lon="-8.8843480">
        <ele>40.6</ele>
        <time>2021-05-19T07:08:46Z</time>
      </trkpt>
      <trkpt lat="41.9721710" lon="-8.8843470">
        <ele>40.6</ele>
        <time>2021-05-19T07:08:47Z</time>
      </trkpt>
      <trkpt lat="41.9721790" lon="-8.8843450">
        <ele>40.6</ele>
        <time>2021-05-19T07:08:48Z</time>
      </trkpt>
      <trkpt lat="41.9721890" lon="-8.8843430">
        <ele>40.6</ele>
        <time>2021-05-19T07:08:49Z</time>
      </trkpt>
      <trkpt lat="41.9722050" lon="-8.8843450">
        <ele>40.6</ele>
        <time>2021-05-19T07:08:50Z</time>
      </trkpt>
      <trkpt lat="41.9722070" lon="-8.8843460">
        <ele>40.7</ele>
        <time>2021-05-19T07:08:51Z</time>
      </trkpt>
      <trkpt lat="41.9722260" lon="-8.8843530">
        <ele>40.7</ele>
        <time>2021-05-19T07:08:52Z</time>
      </trkpt>
      <trkpt lat="41.9722360" lon="-8.8843480">
        <ele>40.7</ele>
        <time>2021-05-19T07:08:53Z</time>
      </trkpt>
      <trkpt lat="41.9722510" lon="-8.8843470">
        <ele>40.7</ele>
        <time>2021-05-19T07:08:54Z</time>
      </trkpt>
      <trkpt lat="41.9722570" lon="-8.8843470">
        <ele>40.7</ele>
        <time>2021-05-19T07:08:55Z</time>
      </trkpt>
      <trkpt lat="41.9722680" lon="-8.8843480">
        <ele>40.8</ele>
        <time>2021-05-19T07:08:56Z</time>
      </trkpt>
      <trkpt lat="41.9722850" lon="-8.8843500">
        <ele>40.8</ele>
        <time>2021-05-19T07:08:57Z</time>
      </trkpt>
      <trkpt lat="41.9723010" lon="-8.8843510">
        <ele>40.8</ele>
        <time>2021-05-19T07:08:58Z</time>
      </trkpt>
      <trkpt lat="41.9723210" lon="-8.8843500">
        <ele>40.9</ele>
        <time>2021-05-19T07:08:59Z</time>
      </trkpt>
      <trkpt lat="41.9723300" lon="-8.8843490">
        <ele>40.9</ele>
        <time>2021-05-19T07:09:00Z</time>
      </trkpt>
      <trkpt lat="41.9723390" lon="-8.8843490">
        <ele>40.9</ele>
        <time>2021-05-19T07:09:01Z</time>
      </trkpt>
      <trkpt lat="41.9723510" lon="-8.8843520">
        <ele>40.9</ele>
        <time>2021-05-19T07:09:02Z</time>
      </trkpt>
      <trkpt lat="41.9723620" lon="-8.8843570">
        <ele>40.9</ele>
        <time>2021-05-19T07:09:03Z</time>
      </trkpt>
      <trkpt lat="41.9723740" lon="-8.8843530">
        <ele>41.0</ele>
        <time>2021-05-19T07:09:04Z</time>
      </trkpt>
      <trkpt lat="41.9723920" lon="-8.8843570">
        <ele>41.0</ele>
        <time>2021-05-19T07:09:05Z</time>
      </trkpt>
      <trkpt lat="41.9724090" lon="-8.8843610">
        <ele>41.0</ele>
        <time>2021-05-19T07:09:06Z</time>
      </trkpt>
      <trkpt lat="41.9724220" lon="-8.8843560">
        <ele>41.0</ele>
        <time>2021-05-19T07:09:07Z</time>
      </trkpt>
      <trkpt lat="41.9724360" lon="-8.8843600">
        <ele>41.1</ele>
        <time>2021-05-19T07:09:08Z</time>
      </trkpt>
      <trkpt lat="41.9724500" lon="-8.8843550">
        <ele>41.1</ele>
        <time>2021-05-19T07:09:09Z</time>
      </trkpt>
      <trkpt lat="41.9724650" lon="-8.8843620">
        <ele>41.1</ele>
        <time>2021-05-19T07:09:10Z</time>
      </trkpt>
      <trkpt lat="41.9724760" lon="-8.8843640">
        <ele>41.1</ele>
        <time>2021-05-19T07:09:11Z</time>
      </trkpt>
      <trkpt lat="41.9724870" lon="-8.8843700">
        <ele>41.1</ele>
        <time>2021-05-19T07:09:12Z</time>
      </trkpt>
      <trkpt lat="41.9724950" lon="-8.8843700">
        <ele>41.1</ele>
        <time>2021-05-19T07:09:13Z</time>
      </trkpt>
      <trkpt lat="41.9725080" lon="-8.8843720">
        <ele>41.2</ele>
        <time>2021-05-19T07:09:14Z</time>
      </trkpt>
      <trkpt lat="41.9725090" lon="-8.8843770">
        <ele>41.2</ele>
        <time>2021-05-19T07:09:15Z</time>
      </trkpt>
      <trkpt lat="41.9725240" lon="-8.8843770">
        <ele>41.2</ele>
        <time>2021-05-19T07:09:16Z</time>
      </trkpt>
      <trkpt lat="41.9725340" lon="-8.8843730">
        <ele>41.2</ele>
        <time>2021-05-19T07:09:17Z</time>
      </trkpt>
      <trkpt lat="41.9725530" lon="-8.8843730">
        <ele>41.2</ele>
        <time>2021-05-19T07:09:18Z</time>
      </trkpt>
      <trkpt lat="41.9725680" lon="-8.8843680">
        <ele>41.2</ele>
        <time>2021-05-19T07:09:19Z</time>
      </trkpt>
      <trkpt lat="41.9725850" lon="-8.8843700">
        <ele>41.3</ele>
        <time>2021-05-19T07:09:20Z</time>
      </trkpt>
      <trkpt lat="41.9725960" lon="-8.8843710">
        <ele>41.3</ele>
        <time>2021-05-19T07:09:21Z</time>
      </trkpt>
      <trkpt lat="41.9726160" lon="-8.8843730">
        <ele>41.3</ele>
        <time>2021-05-19T07:09:22Z</time>
      </trkpt>
      <trkpt lat="41.9726280" lon="-8.8843750">
        <ele>41.3</ele>
        <time>2021-05-19T07:09:23Z</time>
      </trkpt>
      <trkpt lat="41.9726400" lon="-8.8843770">
        <ele>41.3</ele>
        <time>2021-05-19T07:09:24Z</time>
      </trkpt>
      <trkpt lat="41.9726500" lon="-8.8843780">
        <ele>41.4</ele>
        <time>2021-05-19T07:09:25Z</time>
      </trkpt>
      <trkpt lat="41.9726680" lon="-8.8843770">
        <ele>41.4</ele>
        <time>2021-05-19T07:09:26Z</time>
      </trkpt>
      <trkpt lat="41.9726800" lon="-8.8843760">
        <ele>41.4</ele>
        <time>2021-05-19T07:09:27Z</time>
      </trkpt>
      <trkpt lat="41.9726910" lon="-8.8843760">
        <ele>41.4</ele>
        <time>2021-05-19T07:09:28Z</time>
      </trkpt>
      <trkpt lat="41.9727100" lon="-8.8843730">
        <ele>41.4</ele>
        <time>2021-05-19T07:09:29Z</time>
      </trkpt>
      <trkpt lat="41.9727200" lon="-8.8843700">
        <ele>41.4</ele>
        <time>2021-05-19T07:09:30Z</time>
      </trkpt>
      <trkpt lat="41.9727290" lon="-8.8843680">
        <ele>41.4</ele>
        <time>2021-05-19T07:09:31Z</time>
      </trkpt>
      <trkpt lat="41.9727480" lon="-8.8843730">
        <ele>41.5</ele>
        <time>2021-05-19T07:09:32Z</time>
      </trkpt>
      <trkpt lat="41.9727600" lon="-8.8843750">
        <ele>41.5</ele>
        <time>2021-05-19T07:09:33Z</time>
      </trkpt>
      <trkpt lat="41.9727720" lon="-8.8843780">
        <ele>41.5</ele>
        <time>2021-05-19T07:09:34Z</time>
      </trkpt>
      <trkpt lat="41.9727850" lon="-8.8843780">
        <ele>41.5</ele>
        <time>2021-05-19T07:09:35Z</time>
      </trkpt>
      <trkpt lat="41.9728000" lon="-8.8843890">
        <ele>41.5</ele>
        <time>2021-05-19T07:09:36Z</time>
      </trkpt>
      <trkpt lat="41.9728200" lon="-8.8843910">
        <ele>41.6</ele>
        <time>2021-05-19T07:09:37Z</time>
      </trkpt>
      <trkpt lat="41.9728300" lon="-8.8843910">
        <ele>41.6</ele>
        <time>2021-05-19T07:09:38Z</time>
      </trkpt>
      <trkpt lat="41.9728400" lon="-8.8843910">
        <ele>41.6</ele>
        <time>2021-05-19T07:09:39Z</time>
      </trkpt>
      <trkpt lat="41.9728530" lon="-8.8843900">
        <ele>41.6</ele>
        <time>2021-05-19T07:09:40Z</time>
      </trkpt>
      <trkpt lat="41.9728650" lon="-8.8843940">
        <ele>41.6</ele>
        <time>2021-05-19T07:09:41Z</time>
      </trkpt>
      <trkpt lat="41.9728760" lon="-8.8843960">
        <ele>41.7</ele>
        <time>2021-05-19T07:09:42Z</time>
      </trkpt>
      <trkpt lat="41.9728900" lon="-8.8843970">
        <ele>41.7</ele>
        <time>2021-05-19T07:09:43Z</time>
      </trkpt>
      <trkpt lat="41.9728990" lon="-8.8844000">
        <ele>41.7</ele>
        <time>2021-05-19T07:09:44Z</time>
      </trkpt>
      <trkpt lat="41.9729090" lon="-8.8844020">
        <ele>41.7</ele>
        <time>2021-05-19T07:09:45Z</time>
      </trkpt>
      <trkpt lat="41.9729180" lon="-8.8844050">
        <ele>41.7</ele>
        <time>2021-05-19T07:09:46Z</time>
      </trkpt>
      <trkpt lat="41.9729370" lon="-8.8843990">
        <ele>41.8</ele>
        <time>2021-05-19T07:09:47Z</time>
      </trkpt>
      <trkpt lat="41.9729520" lon="-8.8844040">
        <ele>41.8</ele>
        <time>2021-05-19T07:09:48Z</time>
      </trkpt>
      <trkpt lat="41.9729630" lon="-8.8844080">
        <ele>41.8</ele>
        <time>2021-05-19T07:09:49Z</time>
      </trkpt>
      <trkpt lat="41.9729820" lon="-8.8844090">
        <ele>41.9</ele>
        <time>2021-05-19T07:09:50Z</time>
      </trkpt>
      <trkpt lat="41.9730100" lon="-8.8844100">
        <ele>41.9</ele>
        <time>2021-05-19T07:09:51Z</time>
      </trkpt>
      <trkpt lat="41.9730200" lon="-8.8844100">
        <ele>41.9</ele>
        <time>2021-05-19T07:09:52Z</time>
      </trkpt>
      <trkpt lat="41.9730380" lon="-8.8844100">
        <ele>42.0</ele>
        <time>2021-05-19T07:09:53Z</time>
      </trkpt>
      <trkpt lat="41.9730490" lon="-8.8844130">
        <ele>42.0</ele>
        <time>2021-05-19T07:09:54Z</time>
      </trkpt>
      <trkpt lat="41.9730640" lon="-8.8844180">
        <ele>42.0</ele>
        <time>2021-05-19T07:09:55Z</time>
      </trkpt>
      <trkpt lat="41.9730720" lon="-8.8844190">
        <ele>42.0</ele>
        <time>2021-05-19T07:09:56Z</time>
      </trkpt>
      <trkpt lat="41.9730830" lon="-8.8844210">
        <ele>42.0</ele>
        <time>2021-05-19T07:09:57Z</time>
      </trkpt>
      <trkpt lat="41.9731110" lon="-8.8844180">
        <ele>42.1</ele>
        <time>2021-05-19T07:09:58Z</time>
      </trkpt>
      <trkpt lat="41.9731190" lon="-8.8844180">
        <ele>42.1</ele>
        <time>2021-05-19T07:09:59Z</time>
      </trkpt>
      <trkpt lat="41.9731280" lon="-8.8844140">
        <ele>42.1</ele>
        <time>2021-05-19T07:10:00Z</time>
      </trkpt>
      <trkpt lat="41.9731370" lon="-8.8844210">
        <ele>42.1</ele>
        <time>2021-05-19T07:10:01Z</time>
      </trkpt>
      <trkpt lat="41.9731400" lon="-8.8844190">
        <ele>42.1</ele>
        <time>2021-05-19T07:10:02Z</time>
      </trkpt>
      <trkpt lat="41.9731520" lon="-8.8844220">
        <ele>42.2</ele>
        <time>2021-05-19T07:10:03Z</time>
      </trkpt>
      <trkpt lat="41.9731690" lon="-8.8844230">
        <ele>42.2</ele>
        <time>2021-05-19T07:10:04Z</time>
      </trkpt>
      <trkpt lat="41.9731880" lon="-8.8844260">
        <ele>42.2</ele>
        <time>2021-05-19T07:10:05Z</time>
      </trkpt>
      <trkpt lat="41.9732190" lon="-8.8844170">
        <ele>42.3</ele>
        <time>2021-05-19T07:10:06Z</time>
      </trkpt>
      <trkpt lat="41.9732250" lon="-8.8844140">
        <ele>42.3</ele>
        <time>2021-05-19T07:10:07Z</time>
      </trkpt>
      <trkpt lat="41.9732420" lon="-8.8844160">
        <ele>42.3</ele>
        <time>2021-05-19T07:10:08Z</time>
      </trkpt>
      <trkpt lat="41.9732560" lon="-8.8844190">
        <ele>42.3</ele>
        <time>2021-05-19T07:10:09Z</time>
      </trkpt>
      <trkpt lat="41.9732670" lon="-8.8844190">
        <ele>42.3</ele>
        <time>2021-05-19T07:10:10Z</time>
      </trkpt>
      <trkpt lat="41.9732790" lon="-8.8844220">
        <ele>42.3</ele>
        <time>2021-05-19T07:10:11Z</time>
      </trkpt>
      <trkpt lat="41.9732870" lon="-8.8844200">
        <ele>42.4</ele>
        <time>2021-05-19T07:10:12Z</time>
      </trkpt>
      <trkpt lat="41.9733120" lon="-8.8844250">
        <ele>42.4</ele>
        <time>2021-05-19T07:10:13Z</time>
      </trkpt>
      <trkpt lat="41.9733200" lon="-8.8844280">
        <ele>42.4</ele>
        <time>2021-05-19T07:10:14Z</time>
      </trkpt>
      <trkpt lat="41.9733280" lon="-8.8844300">
        <ele>42.4</ele>
        <time>2021-05-19T07:10:15Z</time>
      </trkpt>
      <trkpt lat="41.9733560" lon="-8.8844300">
        <ele>42.5</ele>
        <time>2021-05-19T07:10:16Z</time>
      </trkpt>
      <trkpt lat="41.9733660" lon="-8.8844350">
        <ele>42.5</ele>
        <time>2021-05-19T07:10:17Z</time>
      </trkpt>
      <trkpt lat="41.9733920" lon="-8.8844390">
        <ele>42.5</ele>
        <time>2021-05-19T07:10:18Z</time>
      </trkpt>
      <trkpt lat="41.9734030" lon="-8.8844390">
        <ele>42.5</ele>
        <time>2021-05-19T07:10:19Z</time>
      </trkpt>
      <trkpt lat="41.9734170" lon="-8.8844430">
        <ele>42.6</ele>
        <time>2021-05-19T07:10:20Z</time>
      </trkpt>
      <trkpt lat="41.9734390" lon="-8.8844440">
        <ele>42.6</ele>
        <time>2021-05-19T07:10:21Z</time>
      </trkpt>
      <trkpt lat="41.9734550" lon="-8.8844420">
        <ele>42.6</ele>
        <time>2021-05-19T07:10:22Z</time>
      </trkpt>
      <trkpt lat="41.9734720" lon="-8.8844480">
        <ele>42.6</ele>
        <time>2021-05-19T07:10:23Z</time>
      </trkpt>
      <trkpt lat="41.9734890" lon="-8.8844550">
        <ele>42.7</ele>
        <time>2021-05-19T07:10:24Z</time>
      </trkpt>
      <trkpt lat="41.9735060" lon="-8.8844570">
        <ele>42.7</ele>
        <time>2021-05-19T07:10:25Z</time>
      </trkpt>
      <trkpt lat="41.9735220" lon="-8.8844570">
        <ele>42.7</ele>
        <time>2021-05-19T07:10:26Z</time>
      </trkpt>
      <trkpt lat="41.9735400" lon="-8.8844620">
        <ele>42.7</ele>
        <time>2021-05-19T07:10:27Z</time>
      </trkpt>
      <trkpt lat="41.9735590" lon="-8.8844670">
        <ele>42.8</ele>
        <time>2021-05-19T07:10:28Z</time>
      </trkpt>
      <trkpt lat="41.9735760" lon="-8.8844670">
        <ele>42.8</ele>
        <time>2021-05-19T07:10:29Z</time>
      </trkpt>
      <trkpt lat="41.9735890" lon="-8.8844820">
        <ele>42.8</ele>
        <time>2021-05-19T07:10:30Z</time>
      </trkpt>
      <trkpt lat="41.9736060" lon="-8.8844800">
        <ele>42.8</ele>
        <time>2021-05-19T07:10:31Z</time>
      </trkpt>
      <trkpt lat="41.9736210" lon="-8.8844820">
        <ele>42.8</ele>
        <time>2021-05-19T07:10:32Z</time>
      </trkpt>
      <trkpt lat="41.9736370" lon="-8.8844830">
        <ele>42.9</ele>
        <time>2021-05-19T07:10:33Z</time>
      </trkpt>
      <trkpt lat="41.9736530" lon="-8.8844840">
        <ele>42.9</ele>
        <time>2021-05-19T07:10:34Z</time>
      </trkpt>
      <trkpt lat="41.9736670" lon="-8.8844900">
        <ele>42.9</ele>
        <time>2021-05-19T07:10:35Z</time>
      </trkpt>
      <trkpt lat="41.9736820" lon="-8.8844900">
        <ele>42.9</ele>
        <time>2021-05-19T07:10:36Z</time>
      </trkpt>
      <trkpt lat="41.9736970" lon="-8.8844950">
        <ele>42.9</ele>
        <time>2021-05-19T07:10:37Z</time>
      </trkpt>
      <trkpt lat="41.9737130" lon="-8.8844870">
        <ele>43.0</ele>
        <time>2021-05-19T07:10:38Z</time>
      </trkpt>
      <trkpt lat="41.9737280" lon="-8.8844940">
        <ele>43.0</ele>
        <time>2021-05-19T07:10:39Z</time>
      </trkpt>
      <trkpt lat="41.9737480" lon="-8.8845010">
        <ele>43.0</ele>
        <time>2021-05-19T07:10:40Z</time>
      </trkpt>
      <trkpt lat="41.9737570" lon="-8.8845030">
        <ele>43.0</ele>
        <time>2021-05-19T07:10:41Z</time>
      </trkpt>
      <trkpt lat="41.9737650" lon="-8.8845050">
        <ele>43.0</ele>
        <time>2021-05-19T07:10:42Z</time>
      </trkpt>
      <trkpt lat="41.9737790" lon="-8.8845090">
        <ele>43.0</ele>
        <time>2021-05-19T07:10:43Z</time>
      </trkpt>
      <trkpt lat="41.9737940" lon="-8.8845100">
        <ele>43.1</ele>
        <time>2021-05-19T07:10:44Z</time>
      </trkpt>
      <trkpt lat="41.9738110" lon="-8.8845070">
        <ele>43.1</ele>
        <time>2021-05-19T07:10:45Z</time>
      </trkpt>
      <trkpt lat="41.9738260" lon="-8.8845090">
        <ele>43.1</ele>
        <time>2021-05-19T07:10:46Z</time>
      </trkpt>
      <trkpt lat="41.9738420" lon="-8.8845060">
        <ele>43.1</ele>
        <time>2021-05-19T07:10:47Z</time>
      </trkpt>
      <trkpt lat="41.9738560" lon="-8.8845070">
        <ele>43.1</ele>
        <time>2021-05-19T07:10:48Z</time>
      </trkpt>
      <trkpt lat="41.9738700" lon="-8.8845110">
        <ele>43.1</ele>
        <time>2021-05-19T07:10:49Z</time>
      </trkpt>
      <trkpt lat="41.9738840" lon="-8.8845130">
        <ele>43.2</ele>
        <time>2021-05-19T07:10:50Z</time>
      </trkpt>
      <trkpt lat="41.9739000" lon="-8.8845080">
        <ele>43.2</ele>
        <time>2021-05-19T07:10:51Z</time>
      </trkpt>
      <trkpt lat="41.9739130" lon="-8.8845170">
        <ele>43.2</ele>
        <time>2021-05-19T07:10:52Z</time>
      </trkpt>
      <trkpt lat="41.9739270" lon="-8.8845190">
        <ele>43.2</ele>
        <time>2021-05-19T07:10:53Z</time>
      </trkpt>
      <trkpt lat="41.9739430" lon="-8.8845200">
        <ele>43.2</ele>
        <time>2021-05-19T07:10:54Z</time>
      </trkpt>
      <trkpt lat="41.9739590" lon="-8.8845170">
        <ele>43.2</ele>
        <time>2021-05-19T07:10:55Z</time>
      </trkpt>
      <trkpt lat="41.9739750" lon="-8.8845150">
        <ele>43.3</ele>
        <time>2021-05-19T07:10:56Z</time>
      </trkpt>
      <trkpt lat="41.9739890" lon="-8.8845220">
        <ele>43.3</ele>
        <time>2021-05-19T07:10:57Z</time>
      </trkpt>
      <trkpt lat="41.9740030" lon="-8.8845220">
        <ele>43.3</ele>
        <time>2021-05-19T07:10:58Z</time>
      </trkpt>
      <trkpt lat="41.9740170" lon="-8.8845240">
        <ele>43.3</ele>
        <time>2021-05-19T07:10:59Z</time>
      </trkpt>
      <trkpt lat="41.9740320" lon="-8.8845230">
        <ele>43.3</ele>
        <time>2021-05-19T07:11:00Z</time>
      </trkpt>
      <trkpt lat="41.9740470" lon="-8.8845180">
        <ele>43.4</ele>
        <time>2021-05-19T07:11:01Z</time>
      </trkpt>
      <trkpt lat="41.9740620" lon="-8.8845220">
        <ele>43.4</ele>
        <time>2021-05-19T07:11:02Z</time>
      </trkpt>
      <trkpt lat="41.9740770" lon="-8.8845260">
        <ele>43.4</ele>
        <time>2021-05-19T07:11:03Z</time>
      </trkpt>
      <trkpt lat="41.9740910" lon="-8.8845270">
        <ele>43.4</ele>
        <time>2021-05-19T07:11:04Z</time>
      </trkpt>
      <trkpt lat="41.9741060" lon="-8.8845300">
        <ele>43.4</ele>
        <time>2021-05-19T07:11:05Z</time>
      </trkpt>
      <trkpt lat="41.9741220" lon="-8.8845310">
        <ele>43.4</ele>
        <time>2021-05-19T07:11:06Z</time>
      </trkpt>
      <trkpt lat="41.9741380" lon="-8.8845270">
        <ele>43.5</ele>
        <time>2021-05-19T07:11:07Z</time>
      </trkpt>
      <trkpt lat="41.9741520" lon="-8.8845250">
        <ele>43.5</ele>
        <time>2021-05-19T07:11:08Z</time>
      </trkpt>
      <trkpt lat="41.9741680" lon="-8.8845250">
        <ele>43.5</ele>
        <time>2021-05-19T07:11:09Z</time>
      </trkpt>
      <trkpt lat="41.9741760" lon="-8.8845250">
        <ele>43.5</ele>
        <time>2021-05-19T07:11:10Z</time>
      </trkpt>
      <trkpt lat="41.9741830" lon="-8.8845230">
        <ele>43.5</ele>
        <time>2021-05-19T07:11:11Z</time>
      </trkpt>
      <trkpt lat="41.9741910" lon="-8.8845180">
        <ele>43.5</ele>
        <time>2021-05-19T07:11:12Z</time>
      </trkpt>
      <trkpt lat="41.9741990" lon="-8.8845120">
        <ele>43.5</ele>
        <time>2021-05-19T07:11:13Z</time>
      </trkpt>
      <trkpt lat="41.9742040" lon="-8.8845140">
        <ele>43.5</ele>
        <time>2021-05-19T07:11:14Z</time>
      </trkpt>
      <trkpt lat="41.9742160" lon="-8.8845180">
        <ele>43.5</ele>
        <time>2021-05-19T07:11:15Z</time>
      </trkpt>
      <trkpt lat="41.9742340" lon="-8.8845240">
        <ele>43.6</ele>
        <time>2021-05-19T07:11:16Z</time>
      </trkpt>
      <trkpt lat="41.9742430" lon="-8.8845230">
        <ele>43.6</ele>
        <time>2021-05-19T07:11:17Z</time>
      </trkpt>
      <trkpt lat="41.9742490" lon="-8.8845250">
        <ele>43.6</ele>
        <time>2021-05-19T07:11:18Z</time>
      </trkpt>
      <trkpt lat="41.9742660" lon="-8.8845240">
        <ele>43.6</ele>
        <time>2021-05-19T07:11:19Z</time>
      </trkpt>
      <trkpt lat="41.9742670" lon="-8.8845200">
        <ele>43.6</ele>
        <time>2021-05-19T07:11:20Z</time>
      </trkpt>
      <trkpt lat="41.9742740" lon="-8.8845220">
        <ele>43.6</ele>
        <time>2021-05-19T07:11:21Z</time>
      </trkpt>
      <trkpt lat="41.9742760" lon="-8.8845150">
        <ele>43.6</ele>
        <time>2021-05-19T07:11:22Z</time>
      </trkpt>
      <trkpt lat="41.9742870" lon="-8.8845130">
        <ele>43.6</ele>
        <time>2021-05-19T07:11:23Z</time>
      </trkpt>
      <trkpt lat="41.9743000" lon="-8.8845200">
        <ele>43.6</ele>
        <time>2021-05-19T07:11:24Z</time>
      </trkpt>
      <trkpt lat="41.9743070" lon="-8.8845260">
        <ele>43.7</ele>
        <time>2021-05-19T07:11:25Z</time>
      </trkpt>
      <trkpt lat="41.9743150" lon="-8.8845280">
        <ele>43.7</ele>
        <time>2021-05-19T07:11:26Z</time>
      </trkpt>
      <trkpt lat="41.9743260" lon="-8.8845250">
        <ele>43.7</ele>
        <time>2021-05-19T07:11:27Z</time>
      </trkpt>
      <trkpt lat="41.9743380" lon="-8.8845300">
        <ele>43.7</ele>
        <time>2021-05-19T07:11:28Z</time>
      </trkpt>
      <trkpt lat="41.9743570" lon="-8.8845310">
        <ele>43.7</ele>
        <time>2021-05-19T07:11:29Z</time>
      </trkpt>
      <trkpt lat="41.9743670" lon="-8.8845330">
        <ele>43.7</ele>
        <time>2021-05-19T07:11:30Z</time>
      </trkpt>
      <trkpt lat="41.9743760" lon="-8.8845350">
        <ele>43.7</ele>
        <time>2021-05-19T07:11:31Z</time>
      </trkpt>
      <trkpt lat="41.9743980" lon="-8.8845410">
        <ele>43.8</ele>
        <time>2021-05-19T07:11:32Z</time>
      </trkpt>
      <trkpt lat="41.9744080" lon="-8.8845420">
        <ele>43.8</ele>
        <time>2021-05-19T07:11:33Z</time>
      </trkpt>
      <trkpt lat="41.9744170" lon="-8.8845440">
        <ele>43.8</ele>
        <time>2021-05-19T07:11:34Z</time>
      </trkpt>
      <trkpt lat="41.9744270" lon="-8.8845440">
        <ele>43.8</ele>
        <time>2021-05-19T07:11:35Z</time>
      </trkpt>
      <trkpt lat="41.9744360" lon="-8.8845460">
        <ele>43.8</ele>
        <time>2021-05-19T07:11:36Z</time>
      </trkpt>
      <trkpt lat="41.9744460" lon="-8.8845490">
        <ele>43.8</ele>
        <time>2021-05-19T07:11:37Z</time>
      </trkpt>
      <trkpt lat="41.9744650" lon="-8.8845470">
        <ele>43.8</ele>
        <time>2021-05-19T07:11:38Z</time>
      </trkpt>
      <trkpt lat="41.9744790" lon="-8.8845510">
        <ele>43.8</ele>
        <time>2021-05-19T07:11:39Z</time>
      </trkpt>
      <trkpt lat="41.9744980" lon="-8.8845480">
        <ele>43.8</ele>
        <time>2021-05-19T07:11:40Z</time>
      </trkpt>
      <trkpt lat="41.9745110" lon="-8.8845470">
        <ele>43.8</ele>
        <time>2021-05-19T07:11:41Z</time>
      </trkpt>
      <trkpt lat="41.9745210" lon="-8.8845520">
        <ele>43.9</ele>
        <time>2021-05-19T07:11:42Z</time>
      </trkpt>
      <trkpt lat="41.9745400" lon="-8.8845490">
        <ele>43.9</ele>
        <time>2021-05-19T07:11:43Z</time>
      </trkpt>
      <trkpt lat="41.9745590" lon="-8.8845530">
        <ele>43.9</ele>
        <time>2021-05-19T07:11:44Z</time>
      </trkpt>
      <trkpt lat="41.9745710" lon="-8.8845570">
        <ele>43.9</ele>
        <time>2021-05-19T07:11:45Z</time>
      </trkpt>
      <trkpt lat="41.9745820" lon="-8.8845610">
        <ele>43.9</ele>
        <time>2021-05-19T07:11:46Z</time>
      </trkpt>
      <trkpt lat="41.9746060" lon="-8.8845630">
        <ele>43.9</ele>
        <time>2021-05-19T07:11:47Z</time>
      </trkpt>
      <trkpt lat="41.9746140" lon="-8.8845650">
        <ele>43.9</ele>
        <time>2021-05-19T07:11:48Z</time>
      </trkpt>
      <trkpt lat="41.9746220" lon="-8.8845660">
        <ele>43.9</ele>
        <time>2021-05-19T07:11:49Z</time>
      </trkpt>
      <trkpt lat="41.9746340" lon="-8.8845660">
        <ele>43.9</ele>
        <time>2021-05-19T07:11:50Z</time>
      </trkpt>
      <trkpt lat="41.9746410" lon="-8.8845620">
        <ele>43.9</ele>
        <time>2021-05-19T07:11:51Z</time>
      </trkpt>
      <trkpt lat="41.9746540" lon="-8.8845600">
        <ele>43.9</ele>
        <time>2021-05-19T07:11:52Z</time>
      </trkpt>
      <trkpt lat="41.9746650" lon="-8.8845630">
        <ele>44.0</ele>
        <time>2021-05-19T07:11:53Z</time>
      </trkpt>
      <trkpt lat="41.9746740" lon="-8.8845710">
        <ele>44.0</ele>
        <time>2021-05-19T07:11:54Z</time>
      </trkpt>
      <trkpt lat="41.9746840" lon="-8.8845710">
        <ele>44.0</ele>
        <time>2021-05-19T07:11:55Z</time>
      </trkpt>
      <trkpt lat="41.9747010" lon="-8.8845730">
        <ele>44.0</ele>
        <time>2021-05-19T07:11:56Z</time>
      </trkpt>
      <trkpt lat="41.9747150" lon="-8.8845750">
        <ele>44.0</ele>
        <time>2021-05-19T07:11:57Z</time>
      </trkpt>
      <trkpt lat="41.9747310" lon="-8.8845810">
        <ele>44.0</ele>
        <time>2021-05-19T07:11:58Z</time>
      </trkpt>
      <trkpt lat="41.9747480" lon="-8.8845820">
        <ele>44.0</ele>
        <time>2021-05-19T07:11:59Z</time>
      </trkpt>
      <trkpt lat="41.9747630" lon="-8.8845860">
        <ele>44.0</ele>
        <time>2021-05-19T07:12:00Z</time>
      </trkpt>
      <trkpt lat="41.9747790" lon="-8.8845900">
        <ele>44.0</ele>
        <time>2021-05-19T07:12:01Z</time>
      </trkpt>
      <trkpt lat="41.9747920" lon="-8.8845930">
        <ele>44.0</ele>
        <time>2021-05-19T07:12:02Z</time>
      </trkpt>
      <trkpt lat="41.9748070" lon="-8.8845970">
        <ele>44.0</ele>
        <time>2021-05-19T07:12:03Z</time>
      </trkpt>
      <trkpt lat="41.9748210" lon="-8.8845970">
        <ele>44.0</ele>
        <time>2021-05-19T07:12:04Z</time>
      </trkpt>
      <trkpt lat="41.9748330" lon="-8.8846020">
        <ele>44.0</ele>
        <time>2021-05-19T07:12:05Z</time>
      </trkpt>
      <trkpt lat="41.9748430" lon="-8.8846020">
        <ele>44.0</ele>
        <time>2021-05-19T07:12:06Z</time>
      </trkpt>
      <trkpt lat="41.9748660" lon="-8.8846120">
        <ele>44.0</ele>
        <time>2021-05-19T07:12:07Z</time>
      </trkpt>
      <trkpt lat="41.9748730" lon="-8.8846110">
        <ele>44.0</ele>
        <time>2021-05-19T07:12:08Z</time>
      </trkpt>
      <trkpt lat="41.9748800" lon="-8.8846100">
        <ele>44.0</ele>
        <time>2021-05-19T07:12:09Z</time>
      </trkpt>
      <trkpt lat="41.9748910" lon="-8.8846080">
        <ele>44.0</ele>
        <time>2021-05-19T07:12:10Z</time>
      </trkpt>
      <trkpt lat="41.9749110" lon="-8.8846100">
        <ele>43.9</ele>
        <time>2021-05-19T07:12:11Z</time>
      </trkpt>
      <trkpt lat="41.9749290" lon="-8.8846060">
        <ele>43.9</ele>
        <time>2021-05-19T07:12:12Z</time>
      </trkpt>
      <trkpt lat="41.9749400" lon="-8.8846160">
        <ele>43.9</ele>
        <time>2021-05-19T07:12:13Z</time>
      </trkpt>
      <trkpt lat="41.9749540" lon="-8.8846150">
        <ele>43.9</ele>
        <time>2021-05-19T07:12:14Z</time>
      </trkpt>
      <trkpt lat="41.9749680" lon="-8.8846130">
        <ele>43.9</ele>
        <time>2021-05-19T07:12:15Z</time>
      </trkpt>
      <trkpt lat="41.9749760" lon="-8.8846140">
        <ele>43.9</ele>
        <time>2021-05-19T07:12:16Z</time>
      </trkpt>
      <trkpt lat="41.9749940" lon="-8.8846170">
        <ele>43.9</ele>
        <time>2021-05-19T07:12:17Z</time>
      </trkpt>
      <trkpt lat="41.9750010" lon="-8.8846130">
        <ele>43.9</ele>
        <time>2021-05-19T07:12:18Z</time>
      </trkpt>
      <trkpt lat="41.9750150" lon="-8.8846180">
        <ele>43.9</ele>
        <time>2021-05-19T07:12:19Z</time>
      </trkpt>
      <trkpt lat="41.9750300" lon="-8.8846160">
        <ele>43.9</ele>
        <time>2021-05-19T07:12:20Z</time>
      </trkpt>
      <trkpt lat="41.9750500" lon="-8.8846160">
        <ele>43.9</ele>
        <time>2021-05-19T07:12:21Z</time>
      </trkpt>
      <trkpt lat="41.9750580" lon="-8.8846190">
        <ele>43.9</ele>
        <time>2021-05-19T07:12:22Z</time>
      </trkpt>
      <trkpt lat="41.9750670" lon="-8.8846210">
        <ele>43.9</ele>
        <time>2021-05-19T07:12:23Z</time>
      </trkpt>
      <trkpt lat="41.9750900" lon="-8.8846220">
        <ele>43.8</ele>
        <time>2021-05-19T07:12:24Z</time>
      </trkpt>
      <trkpt lat="41.9751010" lon="-8.8846230">
        <ele>43.8</ele>
        <time>2021-05-19T07:12:25Z</time>
      </trkpt>
      <trkpt lat="41.9751110" lon="-8.8846240">
        <ele>43.8</ele>
        <time>2021-05-19T07:12:26Z</time>
      </trkpt>
      <trkpt lat="41.9751230" lon="-8.8846250">
        <ele>43.8</ele>
        <time>2021-05-19T07:12:27Z</time>
      </trkpt>
      <trkpt lat="41.9751390" lon="-8.8846200">
        <ele>43.8</ele>
        <time>2021-05-19T07:12:28Z</time>
      </trkpt>
      <trkpt lat="41.9751510" lon="-8.8846290">
        <ele>43.8</ele>
        <time>2021-05-19T07:12:29Z</time>
      </trkpt>
      <trkpt lat="41.9751660" lon="-8.8846290">
        <ele>43.8</ele>
        <time>2021-05-19T07:12:30Z</time>
      </trkpt>
      <trkpt lat="41.9751690" lon="-8.8846270">
        <ele>43.8</ele>
        <time>2021-05-19T07:12:31Z</time>
      </trkpt>
      <trkpt lat="41.9751820" lon="-8.8846310">
        <ele>43.8</ele>
        <time>2021-05-19T07:12:32Z</time>
      </trkpt>
      <trkpt lat="41.9751940" lon="-8.8846240">
        <ele>43.8</ele>
        <time>2021-05-19T07:12:33Z</time>
      </trkpt>
      <trkpt lat="41.9752200" lon="-8.8846280">
        <ele>43.8</ele>
        <time>2021-05-19T07:12:34Z</time>
      </trkpt>
      <trkpt lat="41.9752300" lon="-8.8846270">
        <ele>43.8</ele>
        <time>2021-05-19T07:12:35Z</time>
      </trkpt>
      <trkpt lat="41.9752410" lon="-8.8846330">
        <ele>43.8</ele>
        <time>2021-05-19T07:12:36Z</time>
      </trkpt>
      <trkpt lat="41.9752480" lon="-8.8846240">
        <ele>43.7</ele>
        <time>2021-05-19T07:12:37Z</time>
      </trkpt>
      <trkpt lat="41.9752630" lon="-8.8846310">
        <ele>43.7</ele>
        <time>2021-05-19T07:12:38Z</time>
      </trkpt>
      <trkpt lat="41.9752790" lon="-8.8846260">
        <ele>43.7</ele>
        <time>2021-05-19T07:12:39Z</time>
      </trkpt>
      <trkpt lat="41.9752930" lon="-8.8846310">
        <ele>43.7</ele>
        <time>2021-05-19T07:12:40Z</time>
      </trkpt>
      <trkpt lat="41.9753180" lon="-8.8846280">
        <ele>43.7</ele>
        <time>2021-05-19T07:12:41Z</time>
      </trkpt>
      <trkpt lat="41.9753270" lon="-8.8846270">
        <ele>43.7</ele>
        <time>2021-05-19T07:12:42Z</time>
      </trkpt>
      <trkpt lat="41.9753370" lon="-8.8846270">
        <ele>43.7</ele>
        <time>2021-05-19T07:12:43Z</time>
      </trkpt>
      <trkpt lat="41.9753470" lon="-8.8846320">
        <ele>43.7</ele>
        <time>2021-05-19T07:12:44Z</time>
      </trkpt>
      <trkpt lat="41.9753560" lon="-8.8846250">
        <ele>43.7</ele>
        <time>2021-05-19T07:12:45Z</time>
      </trkpt>
      <trkpt lat="41.9753700" lon="-8.8846300">
        <ele>43.6</ele>
        <time>2021-05-19T07:12:46Z</time>
      </trkpt>
      <trkpt lat="41.9753810" lon="-8.8846410">
        <ele>43.6</ele>
        <time>2021-05-19T07:12:47Z</time>
      </trkpt>
      <trkpt lat="41.9753910" lon="-8.8846460">
        <ele>43.6</ele>
        <time>2021-05-19T07:12:48Z</time>
      </trkpt>
      <trkpt lat="41.9754030" lon="-8.8846480">
        <ele>43.6</ele>
        <time>2021-05-19T07:12:49Z</time>
      </trkpt>
      <trkpt lat="41.9754350" lon="-8.8846480">
        <ele>43.6</ele>
        <time>2021-05-19T07:12:50Z</time>
      </trkpt>
      <trkpt lat="41.9754430" lon="-8.8846520">
        <ele>43.6</ele>
        <time>2021-05-19T07:12:51Z</time>
      </trkpt>
      <trkpt lat="41.9754620" lon="-8.8846480">
        <ele>43.6</ele>
        <time>2021-05-19T07:12:52Z</time>
      </trkpt>
      <trkpt lat="41.9754800" lon="-8.8846530">
        <ele>43.5</ele>
        <time>2021-05-19T07:12:53Z</time>
      </trkpt>
      <trkpt lat="41.9754950" lon="-8.8846630">
        <ele>43.5</ele>
        <time>2021-05-19T07:12:54Z</time>
      </trkpt>
      <trkpt lat="41.9755140" lon="-8.8846640">
        <ele>43.5</ele>
        <time>2021-05-19T07:12:55Z</time>
      </trkpt>
      <trkpt lat="41.9755300" lon="-8.8846740">
        <ele>43.5</ele>
        <time>2021-05-19T07:12:56Z</time>
      </trkpt>
      <trkpt lat="41.9755410" lon="-8.8846710">
        <ele>43.5</ele>
        <time>2021-05-19T07:12:57Z</time>
      </trkpt>
      <trkpt lat="41.9755570" lon="-8.8846720">
        <ele>43.5</ele>
        <time>2021-05-19T07:12:58Z</time>
      </trkpt>
      <trkpt lat="41.9755660" lon="-8.8846710">
        <ele>43.5</ele>
        <time>2021-05-19T07:12:59Z</time>
      </trkpt>
      <trkpt lat="41.9755740" lon="-8.8846700">
        <ele>43.4</ele>
        <time>2021-05-19T07:13:00Z</time>
      </trkpt>
      <trkpt lat="41.9755880" lon="-8.8846670">
        <ele>43.4</ele>
        <time>2021-05-19T07:13:01Z</time>
      </trkpt>
      <trkpt lat="41.9756050" lon="-8.8846740">
        <ele>43.4</ele>
        <time>2021-05-19T07:13:02Z</time>
      </trkpt>
      <trkpt lat="41.9756130" lon="-8.8846740">
        <ele>43.4</ele>
        <time>2021-05-19T07:13:03Z</time>
      </trkpt>
      <trkpt lat="41.9756290" lon="-8.8846780">
        <ele>43.4</ele>
        <time>2021-05-19T07:13:04Z</time>
      </trkpt>
      <trkpt lat="41.9756370" lon="-8.8846720">
        <ele>43.4</ele>
        <time>2021-05-19T07:13:05Z</time>
      </trkpt>
      <trkpt lat="41.9756530" lon="-8.8846770">
        <ele>43.4</ele>
        <time>2021-05-19T07:13:06Z</time>
      </trkpt>
      <trkpt lat="41.9756680" lon="-8.8846760">
        <ele>43.3</ele>
        <time>2021-05-19T07:13:07Z</time>
      </trkpt>
      <trkpt lat="41.9756870" lon="-8.8846770">
        <ele>43.3</ele>
        <time>2021-05-19T07:13:08Z</time>
      </trkpt>
      <trkpt lat="41.9756970" lon="-8.8846840">
        <ele>43.3</ele>
        <time>2021-05-19T07:13:09Z</time>
      </trkpt>
      <trkpt lat="41.9757090" lon="-8.8846850">
        <ele>43.3</ele>
        <time>2021-05-19T07:13:10Z</time>
      </trkpt>
      <trkpt lat="41.9757190" lon="-8.8846880">
        <ele>43.3</ele>
        <time>2021-05-19T07:13:11Z</time>
      </trkpt>
      <trkpt lat="41.9757300" lon="-8.8846910">
        <ele>43.3</ele>
        <time>2021-05-19T07:13:12Z</time>
      </trkpt>
      <trkpt lat="41.9757400" lon="-8.8846940">
        <ele>43.3</ele>
        <time>2021-05-19T07:13:13Z</time>
      </trkpt>
      <trkpt lat="41.9757530" lon="-8.8846970">
        <ele>43.3</ele>
        <time>2021-05-19T07:13:14Z</time>
      </trkpt>
      <trkpt lat="41.9757700" lon="-8.8846960">
        <ele>43.2</ele>
        <time>2021-05-19T07:13:15Z</time>
      </trkpt>
      <trkpt lat="41.9757750" lon="-8.8846920">
        <ele>43.2</ele>
        <time>2021-05-19T07:13:16Z</time>
      </trkpt>
      <trkpt lat="41.9757870" lon="-8.8846980">
        <ele>43.2</ele>
        <time>2021-05-19T07:13:17Z</time>
      </trkpt>
      <trkpt lat="41.9758040" lon="-8.8846990">
        <ele>43.2</ele>
        <time>2021-05-19T07:13:18Z</time>
      </trkpt>
      <trkpt lat="41.9758070" lon="-8.8847010">
        <ele>43.2</ele>
        <time>2021-05-19T07:13:19Z</time>
      </trkpt>
      <trkpt lat="41.9758190" lon="-8.8846960">
        <ele>43.2</ele>
        <time>2021-05-19T07:13:20Z</time>
      </trkpt>
      <trkpt lat="41.9758330" lon="-8.8846940">
        <ele>43.2</ele>
        <time>2021-05-19T07:13:21Z</time>
      </trkpt>
      <trkpt lat="41.9758430" lon="-8.8847030">
        <ele>43.2</ele>
        <time>2021-05-19T07:13:22Z</time>
      </trkpt>
      <trkpt lat="41.9758590" lon="-8.8847080">
        <ele>43.2</ele>
        <time>2021-05-19T07:13:23Z</time>
      </trkpt>
      <trkpt lat="41.9758780" lon="-8.8847100">
        <ele>43.2</ele>
        <time>2021-05-19T07:13:24Z</time>
      </trkpt>
      <trkpt lat="41.9758870" lon="-8.8847070">
        <ele>43.2</ele>
        <time>2021-05-19T07:13:25Z</time>
      </trkpt>
      <trkpt lat="41.9759040" lon="-8.8847090">
        <ele>43.1</ele>
        <time>2021-05-19T07:13:26Z</time>
      </trkpt>
      <trkpt lat="41.9759110" lon="-8.8847110">
        <ele>43.1</ele>
        <time>2021-05-19T07:13:27Z</time>
      </trkpt>
      <trkpt lat="41.9759200" lon="-8.8847200">
        <ele>43.1</ele>
        <time>2021-05-19T07:13:28Z</time>
      </trkpt>
      <trkpt lat="41.9759340" lon="-8.8847250">
        <ele>43.1</ele>
        <time>2021-05-19T07:13:29Z</time>
      </trkpt>
      <trkpt lat="41.9759530" lon="-8.8847210">
        <ele>43.1</ele>
        <time>2021-05-19T07:13:30Z</time>
      </trkpt>
      <trkpt lat="41.9759600" lon="-8.8847280">
        <ele>43.1</ele>
        <time>2021-05-19T07:13:31Z</time>
      </trkpt>
      <trkpt lat="41.9759720" lon="-8.8847290">
        <ele>43.1</ele>
        <time>2021-05-19T07:13:32Z</time>
      </trkpt>
      <trkpt lat="41.9759870" lon="-8.8847270">
        <ele>43.1</ele>
        <time>2021-05-19T07:13:33Z</time>
      </trkpt>
      <trkpt lat="41.9760080" lon="-8.8847330">
        <ele>43.0</ele>
        <time>2021-05-19T07:13:34Z</time>
      </trkpt>
      <trkpt lat="41.9760190" lon="-8.8847270">
        <ele>43.0</ele>
        <time>2021-05-19T07:13:35Z</time>
      </trkpt>
      <trkpt lat="41.9760380" lon="-8.8847270">
        <ele>43.0</ele>
        <time>2021-05-19T07:13:36Z</time>
      </trkpt>
      <trkpt lat="41.9760470" lon="-8.8847180">
        <ele>43.0</ele>
        <time>2021-05-19T07:13:37Z</time>
      </trkpt>
      <trkpt lat="41.9760640" lon="-8.8847270">
        <ele>43.0</ele>
        <time>2021-05-19T07:13:38Z</time>
      </trkpt>
      <trkpt lat="41.9760800" lon="-8.8847320">
        <ele>43.0</ele>
        <time>2021-05-19T07:13:39Z</time>
      </trkpt>
      <trkpt lat="41.9760940" lon="-8.8847380">
        <ele>43.0</ele>
        <time>2021-05-19T07:13:40Z</time>
      </trkpt>
      <trkpt lat="41.9761120" lon="-8.8847390">
        <ele>42.9</ele>
        <time>2021-05-19T07:13:41Z</time>
      </trkpt>
      <trkpt lat="41.9761230" lon="-8.8847360">
        <ele>42.9</ele>
        <time>2021-05-19T07:13:42Z</time>
      </trkpt>
      <trkpt lat="41.9761390" lon="-8.8847320">
        <ele>42.9</ele>
        <time>2021-05-19T07:13:43Z</time>
      </trkpt>
      <trkpt lat="41.9761680" lon="-8.8847390">
        <ele>42.9</ele>
        <time>2021-05-19T07:13:44Z</time>
      </trkpt>
      <trkpt lat="41.9761760" lon="-8.8847370">
        <ele>42.9</ele>
        <time>2021-05-19T07:13:45Z</time>
      </trkpt>
      <trkpt lat="41.9762060" lon="-8.8847410">
        <ele>42.9</ele>
        <time>2021-05-19T07:13:46Z</time>
      </trkpt>
      <trkpt lat="41.9762170" lon="-8.8847400">
        <ele>42.9</ele>
        <time>2021-05-19T07:13:47Z</time>
      </trkpt>
      <trkpt lat="41.9762340" lon="-8.8847430">
        <ele>42.8</ele>
        <time>2021-05-19T07:13:48Z</time>
      </trkpt>
      <trkpt lat="41.9762470" lon="-8.8847400">
        <ele>42.8</ele>
        <time>2021-05-19T07:13:49Z</time>
      </trkpt>
      <trkpt lat="41.9762620" lon="-8.8847490">
        <ele>42.8</ele>
        <time>2021-05-19T07:13:50Z</time>
      </trkpt>
      <trkpt lat="41.9762780" lon="-8.8847510">
        <ele>42.8</ele>
        <time>2021-05-19T07:13:51Z</time>
      </trkpt>
      <trkpt lat="41.9762940" lon="-8.8847520">
        <ele>42.8</ele>
        <time>2021-05-19T07:13:52Z</time>
      </trkpt>
      <trkpt lat="41.9763110" lon="-8.8847540">
        <ele>42.8</ele>
        <time>2021-05-19T07:13:53Z</time>
      </trkpt>
      <trkpt lat="41.9763260" lon="-8.8847560">
        <ele>42.8</ele>
        <time>2021-05-19T07:13:54Z</time>
      </trkpt>
      <trkpt lat="41.9763410" lon="-8.8847620">
        <ele>42.7</ele>
        <time>2021-05-19T07:13:55Z</time>
      </trkpt>
      <trkpt lat="41.9763560" lon="-8.8847610">
        <ele>42.7</ele>
        <time>2021-05-19T07:13:56Z</time>
      </trkpt>
      <trkpt lat="41.9763710" lon="-8.8847630">
        <ele>42.7</ele>
        <time>2021-05-19T07:13:57Z</time>
      </trkpt>
      <trkpt lat="41.9763870" lon="-8.8847650">
        <ele>42.7</ele>
        <time>2021-05-19T07:13:58Z</time>
      </trkpt>
      <trkpt lat="41.9764010" lon="-8.8847670">
        <ele>42.7</ele>
        <time>2021-05-19T07:13:59Z</time>
      </trkpt>
      <trkpt lat="41.9764140" lon="-8.8847650">
        <ele>42.7</ele>
        <time>2021-05-19T07:14:00Z</time>
      </trkpt>
      <trkpt lat="41.9764280" lon="-8.8847660">
        <ele>42.7</ele>
        <time>2021-05-19T07:14:01Z</time>
      </trkpt>
      <trkpt lat="41.9764440" lon="-8.8847670">
        <ele>42.7</ele>
        <time>2021-05-19T07:14:02Z</time>
      </trkpt>
      <trkpt lat="41.9764600" lon="-8.8847660">
        <ele>42.6</ele>
        <time>2021-05-19T07:14:03Z</time>
      </trkpt>
      <trkpt lat="41.9764740" lon="-8.8847670">
        <ele>42.6</ele>
        <time>2021-05-19T07:14:04Z</time>
      </trkpt>
      <trkpt lat="41.9764900" lon="-8.8847710">
        <ele>42.6</ele>
        <time>2021-05-19T07:14:05Z</time>
      </trkpt>
      <trkpt lat="41.9765060" lon="-8.8847660">
        <ele>42.6</ele>
        <time>2021-05-19T07:14:06Z</time>
      </trkpt>
      <trkpt lat="41.9765210" lon="-8.8847730">
        <ele>42.6</ele>
        <time>2021-05-19T07:14:07Z</time>
      </trkpt>
      <trkpt lat="41.9765360" lon="-8.8847740">
        <ele>42.6</ele>
        <time>2021-05-19T07:14:08Z</time>
      </trkpt>
      <trkpt lat="41.9765500" lon="-8.8847810">
        <ele>42.6</ele>
        <time>2021-05-19T07:14:09Z</time>
      </trkpt>
      <trkpt lat="41.9765660" lon="-8.8847780">
        <ele>42.6</ele>
        <time>2021-05-19T07:14:10Z</time>
      </trkpt>
      <trkpt lat="41.9765810" lon="-8.8847690">
        <ele>42.5</ele>
        <time>2021-05-19T07:14:11Z</time>
      </trkpt>
      <trkpt lat="41.9765960" lon="-8.8847740">
        <ele>42.5</ele>
        <time>2021-05-19T07:14:12Z</time>
      </trkpt>
      <trkpt lat="41.9766140" lon="-8.8847700">
        <ele>42.5</ele>
        <time>2021-05-19T07:14:13Z</time>
      </trkpt>
      <trkpt lat="41.9766290" lon="-8.8847780">
        <ele>42.5</ele>
        <time>2021-05-19T07:14:14Z</time>
      </trkpt>
      <trkpt lat="41.9766450" lon="-8.8847730">
        <ele>42.5</ele>
        <time>2021-05-19T07:14:15Z</time>
      </trkpt>
      <trkpt lat="41.9766600" lon="-8.8847730">
        <ele>42.5</ele>
        <time>2021-05-19T07:14:16Z</time>
      </trkpt>
      <trkpt lat="41.9766750" lon="-8.8847820">
        <ele>42.5</ele>
        <time>2021-05-19T07:14:17Z</time>
      </trkpt>
      <trkpt lat="41.9766890" lon="-8.8847940">
        <ele>42.4</ele>
        <time>2021-05-19T07:14:18Z</time>
      </trkpt>
      <trkpt lat="41.9767060" lon="-8.8847850">
        <ele>42.4</ele>
        <time>2021-05-19T07:14:19Z</time>
      </trkpt>
      <trkpt lat="41.9767220" lon="-8.8847770">
        <ele>42.4</ele>
        <time>2021-05-19T07:14:20Z</time>
      </trkpt>
      <trkpt lat="41.9767370" lon="-8.8847880">
        <ele>42.4</ele>
        <time>2021-05-19T07:14:21Z</time>
      </trkpt>
      <trkpt lat="41.9767520" lon="-8.8847920">
        <ele>42.4</ele>
        <time>2021-05-19T07:14:22Z</time>
      </trkpt>
      <trkpt lat="41.9767670" lon="-8.8847950">
        <ele>42.4</ele>
        <time>2021-05-19T07:14:23Z</time>
      </trkpt>
      <trkpt lat="41.9767810" lon="-8.8847980">
        <ele>42.4</ele>
        <time>2021-05-19T07:14:24Z</time>
      </trkpt>
      <trkpt lat="41.9767950" lon="-8.8848060">
        <ele>42.4</ele>
        <time>2021-05-19T07:14:25Z</time>
      </trkpt>
      <trkpt lat="41.9768090" lon="-8.8848110">
        <ele>42.3</ele>
        <time>2021-05-19T07:14:26Z</time>
      </trkpt>
      <trkpt lat="41.9768210" lon="-8.8848140">
        <ele>42.3</ele>
        <time>2021-05-19T07:14:27Z</time>
      </trkpt>
      <trkpt lat="41.9768250" lon="-8.8848080">
        <ele>42.3</ele>
        <time>2021-05-19T07:14:28Z</time>
      </trkpt>
      <trkpt lat="41.9768300" lon="-8.8848100">
        <ele>42.3</ele>
        <time>2021-05-19T07:14:29Z</time>
      </trkpt>
      <trkpt lat="41.9768410" lon="-8.8848120">
        <ele>42.3</ele>
        <time>2021-05-19T07:14:30Z</time>
      </trkpt>
      <trkpt lat="41.9768530" lon="-8.8848090">
        <ele>42.3</ele>
        <time>2021-05-19T07:14:31Z</time>
      </trkpt>
      <trkpt lat="41.9768640" lon="-8.8848060">
        <ele>42.3</ele>
        <time>2021-05-19T07:14:32Z</time>
      </trkpt>
      <trkpt lat="41.9768820" lon="-8.8848040">
        <ele>42.3</ele>
        <time>2021-05-19T07:14:33Z</time>
      </trkpt>
      <trkpt lat="41.9769020" lon="-8.8848110">
        <ele>42.3</ele>
        <time>2021-05-19T07:14:34Z</time>
      </trkpt>
      <trkpt lat="41.9769120" lon="-8.8848100">
        <ele>42.3</ele>
        <time>2021-05-19T07:14:35Z</time>
      </trkpt>
      <trkpt lat="41.9769220" lon="-8.8848100">
        <ele>42.3</ele>
        <time>2021-05-19T07:14:36Z</time>
      </trkpt>
      <trkpt lat="41.9769350" lon="-8.8848090">
        <ele>42.3</ele>
        <time>2021-05-19T07:14:37Z</time>
      </trkpt>
      <trkpt lat="41.9769500" lon="-8.8848180">
        <ele>42.3</ele>
        <time>2021-05-19T07:14:38Z</time>
      </trkpt>
      <trkpt lat="41.9769680" lon="-8.8848280">
        <ele>42.2</ele>
        <time>2021-05-19T07:14:39Z</time>
      </trkpt>
      <trkpt lat="41.9769780" lon="-8.8848290">
        <ele>42.2</ele>
        <time>2021-05-19T07:14:40Z</time>
      </trkpt>
      <trkpt lat="41.9769870" lon="-8.8848310">
        <ele>42.2</ele>
        <time>2021-05-19T07:14:41Z</time>
      </trkpt>
      <trkpt lat="41.9769960" lon="-8.8848330">
        <ele>42.2</ele>
        <time>2021-05-19T07:14:42Z</time>
      </trkpt>
      <trkpt lat="41.9770070" lon="-8.8848230">
        <ele>42.2</ele>
        <time>2021-05-19T07:14:43Z</time>
      </trkpt>
      <trkpt lat="41.9770230" lon="-8.8848190">
        <ele>42.2</ele>
        <time>2021-05-19T07:14:44Z</time>
      </trkpt>
      <trkpt lat="41.9770390" lon="-8.8848220">
        <ele>42.2</ele>
        <time>2021-05-19T07:14:45Z</time>
      </trkpt>
      <trkpt lat="41.9770540" lon="-8.8848250">
        <ele>42.2</ele>
        <time>2021-05-19T07:14:46Z</time>
      </trkpt>
      <trkpt lat="41.9770680" lon="-8.8848260">
        <ele>42.2</ele>
        <time>2021-05-19T07:14:47Z</time>
      </trkpt>
      <trkpt lat="41.9770830" lon="-8.8848270">
        <ele>42.2</ele>
        <time>2021-05-19T07:14:48Z</time>
      </trkpt>
      <trkpt lat="41.9770980" lon="-8.8848280">
        <ele>42.2</ele>
        <time>2021-05-19T07:14:49Z</time>
      </trkpt>
      <trkpt lat="41.9771150" lon="-8.8848250">
        <ele>42.1</ele>
        <time>2021-05-19T07:14:50Z</time>
      </trkpt>
      <trkpt lat="41.9771300" lon="-8.8848300">
        <ele>42.1</ele>
        <time>2021-05-19T07:14:51Z</time>
      </trkpt>
      <trkpt lat="41.9771450" lon="-8.8848340">
        <ele>42.1</ele>
        <time>2021-05-19T07:14:52Z</time>
      </trkpt>
      <trkpt lat="41.9771590" lon="-8.8848350">
        <ele>42.1</ele>
        <time>2021-05-19T07:14:53Z</time>
      </trkpt>
      <trkpt lat="41.9771740" lon="-8.8848320">
        <ele>42.1</ele>
        <time>2021-05-19T07:14:54Z</time>
      </trkpt>
      <trkpt lat="41.9771870" lon="-8.8848340">
        <ele>42.1</ele>
        <time>2021-05-19T07:14:55Z</time>
      </trkpt>
      <trkpt lat="41.9772030" lon="-8.8848250">
        <ele>42.1</ele>
        <time>2021-05-19T07:14:56Z</time>
      </trkpt>
      <trkpt lat="41.9772240" lon="-8.8848290">
        <ele>42.0</ele>
        <time>2021-05-19T07:14:57Z</time>
      </trkpt>
      <trkpt lat="41.9772330" lon="-8.8848310">
        <ele>42.0</ele>
        <time>2021-05-19T07:14:58Z</time>
      </trkpt>
      <trkpt lat="41.9772420" lon="-8.8848340">
        <ele>42.0</ele>
        <time>2021-05-19T07:14:59Z</time>
      </trkpt>
      <trkpt lat="41.9772550" lon="-8.8848440">
        <ele>42.0</ele>
        <time>2021-05-19T07:15:00Z</time>
      </trkpt>
      <trkpt lat="41.9772690" lon="-8.8848490">
        <ele>42.0</ele>
        <time>2021-05-19T07:15:01Z</time>
      </trkpt>
      <trkpt lat="41.9772890" lon="-8.8848620">
        <ele>42.0</ele>
        <time>2021-05-19T07:15:02Z</time>
      </trkpt>
      <trkpt lat="41.9772960" lon="-8.8848660">
        <ele>42.0</ele>
        <time>2021-05-19T07:15:03Z</time>
      </trkpt>
      <trkpt lat="41.9773030" lon="-8.8848690">
        <ele>42.0</ele>
        <time>2021-05-19T07:15:04Z</time>
      </trkpt>
      <trkpt lat="41.9773120" lon="-8.8848780">
        <ele>42.0</ele>
        <time>2021-05-19T07:15:05Z</time>
      </trkpt>
      <trkpt lat="41.9773190" lon="-8.8848800">
        <ele>42.0</ele>
        <time>2021-05-19T07:15:06Z</time>
      </trkpt>
      <trkpt lat="41.9773280" lon="-8.8848870">
        <ele>42.0</ele>
        <time>2021-05-19T07:15:07Z</time>
      </trkpt>
      <trkpt lat="41.9773350" lon="-8.8848840">
        <ele>42.0</ele>
        <time>2021-05-19T07:15:08Z</time>
      </trkpt>
      <trkpt lat="41.9773500" lon="-8.8848820">
        <ele>42.0</ele>
        <time>2021-05-19T07:15:09Z</time>
      </trkpt>
      <trkpt lat="41.9773580" lon="-8.8848790">
        <ele>42.0</ele>
        <time>2021-05-19T07:15:10Z</time>
      </trkpt>
      <trkpt lat="41.9773790" lon="-8.8848750">
        <ele>42.0</ele>
        <time>2021-05-19T07:15:11Z</time>
      </trkpt>
      <trkpt lat="41.9773870" lon="-8.8848740">
        <ele>42.0</ele>
        <time>2021-05-19T07:15:12Z</time>
      </trkpt>
      <trkpt lat="41.9773950" lon="-8.8848730">
        <ele>42.0</ele>
        <time>2021-05-19T07:15:13Z</time>
      </trkpt>
      <trkpt lat="41.9774060" lon="-8.8848800">
        <ele>42.0</ele>
        <time>2021-05-19T07:15:14Z</time>
      </trkpt>
      <trkpt lat="41.9774190" lon="-8.8848820">
        <ele>42.0</ele>
        <time>2021-05-19T07:15:15Z</time>
      </trkpt>
      <trkpt lat="41.9774230" lon="-8.8848800">
        <ele>42.0</ele>
        <time>2021-05-19T07:15:16Z</time>
      </trkpt>
      <trkpt lat="41.9774440" lon="-8.8848770">
        <ele>42.0</ele>
        <time>2021-05-19T07:15:17Z</time>
      </trkpt>
      <trkpt lat="41.9774520" lon="-8.8848780">
        <ele>42.0</ele>
        <time>2021-05-19T07:15:18Z</time>
      </trkpt>
      <trkpt lat="41.9774610" lon="-8.8848800">
        <ele>42.0</ele>
        <time>2021-05-19T07:15:19Z</time>
      </trkpt>
      <trkpt lat="41.9774700" lon="-8.8848750">
        <ele>42.0</ele>
        <time>2021-05-19T07:15:20Z</time>
      </trkpt>
      <trkpt lat="41.9774780" lon="-8.8848750">
        <ele>42.0</ele>
        <time>2021-05-19T07:15:21Z</time>
      </trkpt>
      <trkpt lat="41.9774940" lon="-8.8848830">
        <ele>42.0</ele>
        <time>2021-05-19T07:15:22Z</time>
      </trkpt>
      <trkpt lat="41.9775080" lon="-8.8848770">
        <ele>42.0</ele>
        <time>2021-05-19T07:15:23Z</time>
      </trkpt>
      <trkpt lat="41.9775200" lon="-8.8848800">
        <ele>42.0</ele>
        <time>2021-05-19T07:15:24Z</time>
      </trkpt>
      <trkpt lat="41.9775250" lon="-8.8848700">
        <ele>42.0</ele>
        <time>2021-05-19T07:15:25Z</time>
      </trkpt>
      <trkpt lat="41.9775370" lon="-8.8848760">
        <ele>42.0</ele>
        <time>2021-05-19T07:15:26Z</time>
      </trkpt>
      <trkpt lat="41.9775430" lon="-8.8848760">
        <ele>42.0</ele>
        <time>2021-05-19T07:15:27Z</time>
      </trkpt>
      <trkpt lat="41.9775540" lon="-8.8848810">
        <ele>42.0</ele>
        <time>2021-05-19T07:15:28Z</time>
      </trkpt>
      <trkpt lat="41.9775710" lon="-8.8848870">
        <ele>42.1</ele>
        <time>2021-05-19T07:15:29Z</time>
      </trkpt>
      <trkpt lat="41.9775820" lon="-8.8848890">
        <ele>42.1</ele>
        <time>2021-05-19T07:15:30Z</time>
      </trkpt>
      <trkpt lat="41.9775920" lon="-8.8848900">
        <ele>42.1</ele>
        <time>2021-05-19T07:15:31Z</time>
      </trkpt>
      <trkpt lat="41.9776130" lon="-8.8848930">
        <ele>42.1</ele>
        <time>2021-05-19T07:15:32Z</time>
      </trkpt>
      <trkpt lat="41.9776210" lon="-8.8848930">
        <ele>42.1</ele>
        <time>2021-05-19T07:15:33Z</time>
      </trkpt>
      <trkpt lat="41.9776280" lon="-8.8848920">
        <ele>42.1</ele>
        <time>2021-05-19T07:15:34Z</time>
      </trkpt>
      <trkpt lat="41.9776490" lon="-8.8848950">
        <ele>42.1</ele>
        <time>2021-05-19T07:15:35Z</time>
      </trkpt>
      <trkpt lat="41.9776590" lon="-8.8848950">
        <ele>42.1</ele>
        <time>2021-05-19T07:15:36Z</time>
      </trkpt>
      <trkpt lat="41.9776680" lon="-8.8848950">
        <ele>42.1</ele>
        <time>2021-05-19T07:15:37Z</time>
      </trkpt>
      <trkpt lat="41.9776770" lon="-8.8848830">
        <ele>42.1</ele>
        <time>2021-05-19T07:15:38Z</time>
      </trkpt>
      <trkpt lat="41.9776880" lon="-8.8848810">
        <ele>42.1</ele>
        <time>2021-05-19T07:15:39Z</time>
      </trkpt>
      <trkpt lat="41.9776890" lon="-8.8848810">
        <ele>42.1</ele>
        <time>2021-05-19T07:15:40Z</time>
      </trkpt>
      <trkpt lat="41.9776960" lon="-8.8848920">
        <ele>42.1</ele>
        <time>2021-05-19T07:15:41Z</time>
      </trkpt>
      <trkpt lat="41.9777310" lon="-8.8848990">
        <ele>42.1</ele>
        <time>2021-05-19T07:15:42Z</time>
      </trkpt>
      <trkpt lat="41.9777390" lon="-8.8849010">
        <ele>42.1</ele>
        <time>2021-05-19T07:15:43Z</time>
      </trkpt>
      <trkpt lat="41.9777540" lon="-8.8848990">
        <ele>42.1</ele>
        <time>2021-05-19T07:15:44Z</time>
      </trkpt>
      <trkpt lat="41.9777610" lon="-8.8849020">
        <ele>42.1</ele>
        <time>2021-05-19T07:15:45Z</time>
      </trkpt>
      <trkpt lat="41.9777730" lon="-8.8849030">
        <ele>42.1</ele>
        <time>2021-05-19T07:15:46Z</time>
      </trkpt>
      <trkpt lat="41.9777840" lon="-8.8849040">
        <ele>42.1</ele>
        <time>2021-05-19T07:15:47Z</time>
      </trkpt>
      <trkpt lat="41.9778010" lon="-8.8849060">
        <ele>42.1</ele>
        <time>2021-05-19T07:15:48Z</time>
      </trkpt>
      <trkpt lat="41.9778150" lon="-8.8849100">
        <ele>42.1</ele>
        <time>2021-05-19T07:15:49Z</time>
      </trkpt>
      <trkpt lat="41.9778290" lon="-8.8849120">
        <ele>42.1</ele>
        <time>2021-05-19T07:15:50Z</time>
      </trkpt>
      <trkpt lat="41.9778400" lon="-8.8849140">
        <ele>42.1</ele>
        <time>2021-05-19T07:15:51Z</time>
      </trkpt>
      <trkpt lat="41.9778480" lon="-8.8849110">
        <ele>42.1</ele>
        <time>2021-05-19T07:15:52Z</time>
      </trkpt>
      <trkpt lat="41.9778620" lon="-8.8849120">
        <ele>42.1</ele>
        <time>2021-05-19T07:15:53Z</time>
      </trkpt>
      <trkpt lat="41.9778700" lon="-8.8849170">
        <ele>42.1</ele>
        <time>2021-05-19T07:15:54Z</time>
      </trkpt>
      <trkpt lat="41.9778900" lon="-8.8849230">
        <ele>42.2</ele>
        <time>2021-05-19T07:15:55Z</time>
      </trkpt>
      <trkpt lat="41.9779050" lon="-8.8849230">
        <ele>42.2</ele>
        <time>2021-05-19T07:15:56Z</time>
      </trkpt>
      <trkpt lat="41.9779200" lon="-8.8849270">
        <ele>42.2</ele>
        <time>2021-05-19T07:15:57Z</time>
      </trkpt>
      <trkpt lat="41.9779340" lon="-8.8849370">
        <ele>42.2</ele>
        <time>2021-05-19T07:15:58Z</time>
      </trkpt>
      <trkpt lat="41.9779460" lon="-8.8849390">
        <ele>42.2</ele>
        <time>2021-05-19T07:15:59Z</time>
      </trkpt>
      <trkpt lat="41.9779660" lon="-8.8849370">
        <ele>42.2</ele>
        <time>2021-05-19T07:16:00Z</time>
      </trkpt>
      <trkpt lat="41.9779750" lon="-8.8849370">
        <ele>42.2</ele>
        <time>2021-05-19T07:16:01Z</time>
      </trkpt>
      <trkpt lat="41.9779830" lon="-8.8849360">
        <ele>42.2</ele>
        <time>2021-05-19T07:16:02Z</time>
      </trkpt>
      <trkpt lat="41.9779950" lon="-8.8849400">
        <ele>42.2</ele>
        <time>2021-05-19T07:16:03Z</time>
      </trkpt>
      <trkpt lat="41.9780050" lon="-8.8849380">
        <ele>42.2</ele>
        <time>2021-05-19T07:16:04Z</time>
      </trkpt>
      <trkpt lat="41.9780180" lon="-8.8849350">
        <ele>42.2</ele>
        <time>2021-05-19T07:16:05Z</time>
      </trkpt>
      <trkpt lat="41.9780410" lon="-8.8849380">
        <ele>42.3</ele>
        <time>2021-05-19T07:16:06Z</time>
      </trkpt>
      <trkpt lat="41.9780480" lon="-8.8849390">
        <ele>42.3</ele>
        <time>2021-05-19T07:16:07Z</time>
      </trkpt>
      <trkpt lat="41.9780560" lon="-8.8849390">
        <ele>42.3</ele>
        <time>2021-05-19T07:16:08Z</time>
      </trkpt>
      <trkpt lat="41.9780690" lon="-8.8849400">
        <ele>42.3</ele>
        <time>2021-05-19T07:16:09Z</time>
      </trkpt>
      <trkpt lat="41.9780780" lon="-8.8849410">
        <ele>42.3</ele>
        <time>2021-05-19T07:16:10Z</time>
      </trkpt>
      <trkpt lat="41.9780900" lon="-8.8849410">
        <ele>42.3</ele>
        <time>2021-05-19T07:16:11Z</time>
      </trkpt>
      <trkpt lat="41.9781100" lon="-8.8849450">
        <ele>42.3</ele>
        <time>2021-05-19T07:16:12Z</time>
      </trkpt>
      <trkpt lat="41.9781200" lon="-8.8849460">
        <ele>42.3</ele>
        <time>2021-05-19T07:16:13Z</time>
      </trkpt>
      <trkpt lat="41.9781290" lon="-8.8849460">
        <ele>42.3</ele>
        <time>2021-05-19T07:16:14Z</time>
      </trkpt>
      <trkpt lat="41.9781430" lon="-8.8849460">
        <ele>42.3</ele>
        <time>2021-05-19T07:16:15Z</time>
      </trkpt>
      <trkpt lat="41.9781560" lon="-8.8849520">
        <ele>42.4</ele>
        <time>2021-05-19T07:16:16Z</time>
      </trkpt>
      <trkpt lat="41.9781710" lon="-8.8849520">
        <ele>42.4</ele>
        <time>2021-05-19T07:16:17Z</time>
      </trkpt>
      <trkpt lat="41.9781840" lon="-8.8849540">
        <ele>42.4</ele>
        <time>2021-05-19T07:16:18Z</time>
      </trkpt>
      <trkpt lat="41.9781990" lon="-8.8849540">
        <ele>42.4</ele>
        <time>2021-05-19T07:16:19Z</time>
      </trkpt>
      <trkpt lat="41.9782130" lon="-8.8849550">
        <ele>42.4</ele>
        <time>2021-05-19T07:16:20Z</time>
      </trkpt>
      <trkpt lat="41.9782270" lon="-8.8849500">
        <ele>42.4</ele>
        <time>2021-05-19T07:16:21Z</time>
      </trkpt>
      <trkpt lat="41.9782430" lon="-8.8849530">
        <ele>42.4</ele>
        <time>2021-05-19T07:16:22Z</time>
      </trkpt>
      <trkpt lat="41.9782640" lon="-8.8849510">
        <ele>42.4</ele>
        <time>2021-05-19T07:16:23Z</time>
      </trkpt>
      <trkpt lat="41.9782720" lon="-8.8849510">
        <ele>42.4</ele>
        <time>2021-05-19T07:16:24Z</time>
      </trkpt>
      <trkpt lat="41.9782810" lon="-8.8849520">
        <ele>42.4</ele>
        <time>2021-05-19T07:16:25Z</time>
      </trkpt>
      <trkpt lat="41.9782920" lon="-8.8849520">
        <ele>42.5</ele>
        <time>2021-05-19T07:16:26Z</time>
      </trkpt>
      <trkpt lat="41.9783030" lon="-8.8849490">
        <ele>42.5</ele>
        <time>2021-05-19T07:16:27Z</time>
      </trkpt>
      <trkpt lat="41.9783120" lon="-8.8849510">
        <ele>42.5</ele>
        <time>2021-05-19T07:16:28Z</time>
      </trkpt>
      <trkpt lat="41.9783310" lon="-8.8849520">
        <ele>42.5</ele>
        <time>2021-05-19T07:16:29Z</time>
      </trkpt>
      <trkpt lat="41.9783390" lon="-8.8849520">
        <ele>42.5</ele>
        <time>2021-05-19T07:16:30Z</time>
      </trkpt>
      <trkpt lat="41.9783480" lon="-8.8849510">
        <ele>42.5</ele>
        <time>2021-05-19T07:16:31Z</time>
      </trkpt>
      <trkpt lat="41.9783640" lon="-8.8849570">
        <ele>42.4</ele>
        <time>2021-05-19T07:16:32Z</time>
      </trkpt>
      <trkpt lat="41.9783650" lon="-8.8849690">
        <ele>42.4</ele>
        <time>2021-05-19T07:16:33Z</time>
      </trkpt>
      <trkpt lat="41.9783640" lon="-8.8849790">
        <ele>42.4</ele>
        <time>2021-05-19T07:16:34Z</time>
      </trkpt>
      <trkpt lat="41.9783580" lon="-8.8849920">
        <ele>42.3</ele>
        <time>2021-05-19T07:16:35Z</time>
      </trkpt>
      <trkpt lat="41.9783500" lon="-8.8850070">
        <ele>42.3</ele>
        <time>2021-05-19T07:16:36Z</time>
      </trkpt>
      <trkpt lat="41.9783430" lon="-8.8850150">
        <ele>42.3</ele>
        <time>2021-05-19T07:16:37Z</time>
      </trkpt>
      <trkpt lat="41.9783350" lon="-8.8850190">
        <ele>42.2</ele>
        <time>2021-05-19T07:16:38Z</time>
      </trkpt>
      <trkpt lat="41.9783220" lon="-8.8850270">
        <ele>42.2</ele>
        <time>2021-05-19T07:16:39Z</time>
      </trkpt>
      <trkpt lat="41.9783110" lon="-8.8850380">
        <ele>42.1</ele>
        <time>2021-05-19T07:16:40Z</time>
      </trkpt>
      <trkpt lat="41.9783080" lon="-8.8850500">
        <ele>42.1</ele>
        <time>2021-05-19T07:16:41Z</time>
      </trkpt>
      <trkpt lat="41.9783050" lon="-8.8850620">
        <ele>42.1</ele>
        <time>2021-05-19T07:16:42Z</time>
      </trkpt>
      <trkpt lat="41.9782930" lon="-8.8850750">
        <ele>41.8</ele>
        <time>2021-05-19T07:16:43Z</time>
      </trkpt>
      <trkpt lat="41.9782830" lon="-8.8850900">
        <ele>41.6</ele>
        <time>2021-05-19T07:16:44Z</time>
      </trkpt>
      <trkpt lat="41.9782810" lon="-8.8851080">
        <ele>41.4</ele>
        <time>2021-05-19T07:16:45Z</time>
      </trkpt>
      <trkpt lat="41.9782820" lon="-8.8851140">
        <ele>41.4</ele>
        <time>2021-05-19T07:16:46Z</time>
      </trkpt>
      <trkpt lat="41.9782820" lon="-8.8851360">
        <ele>41.1</ele>
        <time>2021-05-19T07:16:47Z</time>
      </trkpt>
      <trkpt lat="41.9782830" lon="-8.8851520">
        <ele>41.0</ele>
        <time>2021-05-19T07:16:48Z</time>
      </trkpt>
      <trkpt lat="41.9782870" lon="-8.8851640">
        <ele>40.8</ele>
        <time>2021-05-19T07:16:49Z</time>
      </trkpt>
      <trkpt lat="41.9782840" lon="-8.8851850">
        <ele>40.6</ele>
        <time>2021-05-19T07:16:50Z</time>
      </trkpt>
      <trkpt lat="41.9782860" lon="-8.8851990">
        <ele>40.5</ele>
        <time>2021-05-19T07:16:51Z</time>
      </trkpt>
      <trkpt lat="41.9782870" lon="-8.8852180">
        <ele>40.3</ele>
        <time>2021-05-19T07:16:52Z</time>
      </trkpt>
      <trkpt lat="41.9782910" lon="-8.8852310">
        <ele>40.2</ele>
        <time>2021-05-19T07:16:53Z</time>
      </trkpt>
      <trkpt lat="41.9782900" lon="-8.8852380">
        <ele>40.1</ele>
        <time>2021-05-19T07:16:54Z</time>
      </trkpt>
      <trkpt lat="41.9782950" lon="-8.8852620">
        <ele>39.9</ele>
        <time>2021-05-19T07:16:55Z</time>
      </trkpt>
      <trkpt lat="41.9782970" lon="-8.8852740">
        <ele>39.7</ele>
        <time>2021-05-19T07:16:56Z</time>
      </trkpt>
      <trkpt lat="41.9782980" lon="-8.8852870">
        <ele>39.6</ele>
        <time>2021-05-19T07:16:57Z</time>
      </trkpt>
      <trkpt lat="41.9782980" lon="-8.8852890">
        <ele>39.6</ele>
        <time>2021-05-19T07:16:58Z</time>
      </trkpt>
      <trkpt lat="41.9783000" lon="-8.8853130">
        <ele>39.4</ele>
        <time>2021-05-19T07:16:59Z</time>
      </trkpt>
      <trkpt lat="41.9783010" lon="-8.8853240">
        <ele>39.3</ele>
        <time>2021-05-19T07:17:00Z</time>
      </trkpt>
      <trkpt lat="41.9783010" lon="-8.8853400">
        <ele>39.1</ele>
        <time>2021-05-19T07:17:01Z</time>
      </trkpt>
      <trkpt lat="41.9782980" lon="-8.8853610">
        <ele>38.9</ele>
        <time>2021-05-19T07:17:02Z</time>
      </trkpt>
      <trkpt lat="41.9783000" lon="-8.8853810">
        <ele>38.8</ele>
        <time>2021-05-19T07:17:03Z</time>
      </trkpt>
      <trkpt lat="41.9783020" lon="-8.8854040">
        <ele>38.6</ele>
        <time>2021-05-19T07:17:04Z</time>
      </trkpt>
      <trkpt lat="41.9783050" lon="-8.8854260">
        <ele>38.4</ele>
        <time>2021-05-19T07:17:05Z</time>
      </trkpt>
      <trkpt lat="41.9783120" lon="-8.8854450">
        <ele>38.2</ele>
        <time>2021-05-19T07:17:06Z</time>
      </trkpt>
      <trkpt lat="41.9783180" lon="-8.8854580">
        <ele>38.0</ele>
        <time>2021-05-19T07:17:07Z</time>
      </trkpt>
      <trkpt lat="41.9783280" lon="-8.8854710">
        <ele>37.9</ele>
        <time>2021-05-19T07:17:08Z</time>
      </trkpt>
      <trkpt lat="41.9783370" lon="-8.8854760">
        <ele>37.8</ele>
        <time>2021-05-19T07:17:09Z</time>
      </trkpt>
      <trkpt lat="41.9783430" lon="-8.8854850">
        <ele>37.7</ele>
        <time>2021-05-19T07:17:10Z</time>
      </trkpt>
      <trkpt lat="41.9783570" lon="-8.8855010">
        <ele>37.4</ele>
        <time>2021-05-19T07:17:11Z</time>
      </trkpt>
      <trkpt lat="41.9783650" lon="-8.8855060">
        <ele>37.3</ele>
        <time>2021-05-19T07:17:12Z</time>
      </trkpt>
      <trkpt lat="41.9783820" lon="-8.8855120">
        <ele>37.1</ele>
        <time>2021-05-19T07:17:13Z</time>
      </trkpt>
      <trkpt lat="41.9783900" lon="-8.8855160">
        <ele>37.0</ele>
        <time>2021-05-19T07:17:14Z</time>
      </trkpt>
      <trkpt lat="41.9783960" lon="-8.8855250">
        <ele>36.9</ele>
        <time>2021-05-19T07:17:15Z</time>
      </trkpt>
      <trkpt lat="41.9784090" lon="-8.8855230">
        <ele>36.8</ele>
        <time>2021-05-19T07:17:16Z</time>
      </trkpt>
      <trkpt lat="41.9784230" lon="-8.8855320">
        <ele>36.6</ele>
        <time>2021-05-19T07:17:17Z</time>
      </trkpt>
      <trkpt lat="41.9784340" lon="-8.8855340">
        <ele>36.4</ele>
        <time>2021-05-19T07:17:18Z</time>
      </trkpt>
      <trkpt lat="41.9784500" lon="-8.8855320">
        <ele>36.2</ele>
        <time>2021-05-19T07:17:19Z</time>
      </trkpt>
      <trkpt lat="41.9784580" lon="-8.8855280">
        <ele>36.1</ele>
        <time>2021-05-19T07:17:20Z</time>
      </trkpt>
      <trkpt lat="41.9784690" lon="-8.8855320">
        <ele>36.0</ele>
        <time>2021-05-19T07:17:21Z</time>
      </trkpt>
      <trkpt lat="41.9784810" lon="-8.8855300">
        <ele>35.8</ele>
        <time>2021-05-19T07:17:22Z</time>
      </trkpt>
      <trkpt lat="41.9784890" lon="-8.8855320">
        <ele>35.7</ele>
        <time>2021-05-19T07:17:23Z</time>
      </trkpt>
      <trkpt lat="41.9785000" lon="-8.8855360">
        <ele>35.5</ele>
        <time>2021-05-19T07:17:24Z</time>
      </trkpt>
      <trkpt lat="41.9785140" lon="-8.8855390">
        <ele>35.3</ele>
        <time>2021-05-19T07:17:25Z</time>
      </trkpt>
      <trkpt lat="41.9785220" lon="-8.8855400">
        <ele>35.2</ele>
        <time>2021-05-19T07:17:26Z</time>
      </trkpt>
      <trkpt lat="41.9785350" lon="-8.8855400">
        <ele>35.0</ele>
        <time>2021-05-19T07:17:27Z</time>
      </trkpt>
      <trkpt lat="41.9785410" lon="-8.8855430">
        <ele>35.0</ele>
        <time>2021-05-19T07:17:28Z</time>
      </trkpt>
      <trkpt lat="41.9785530" lon="-8.8855470">
        <ele>34.8</ele>
        <time>2021-05-19T07:17:29Z</time>
      </trkpt>
      <trkpt lat="41.9785640" lon="-8.8855500">
        <ele>34.6</ele>
        <time>2021-05-19T07:17:30Z</time>
      </trkpt>
      <trkpt lat="41.9785710" lon="-8.8855520">
        <ele>34.5</ele>
        <time>2021-05-19T07:17:31Z</time>
      </trkpt>
      <trkpt lat="41.9785810" lon="-8.8855540">
        <ele>34.4</ele>
        <time>2021-05-19T07:17:32Z</time>
      </trkpt>
      <trkpt lat="41.9785940" lon="-8.8855600">
        <ele>34.2</ele>
        <time>2021-05-19T07:17:33Z</time>
      </trkpt>
      <trkpt lat="41.9785960" lon="-8.8855660">
        <ele>34.1</ele>
        <time>2021-05-19T07:17:34Z</time>
      </trkpt>
      <trkpt lat="41.9786080" lon="-8.8855750">
        <ele>33.9</ele>
        <time>2021-05-19T07:17:35Z</time>
      </trkpt>
      <trkpt lat="41.9786250" lon="-8.8855820">
        <ele>33.7</ele>
        <time>2021-05-19T07:17:36Z</time>
      </trkpt>
      <trkpt lat="41.9786350" lon="-8.8855810">
        <ele>33.5</ele>
        <time>2021-05-19T07:17:37Z</time>
      </trkpt>
      <trkpt lat="41.9786540" lon="-8.8855850">
        <ele>33.3</ele>
        <time>2021-05-19T07:17:38Z</time>
      </trkpt>
      <trkpt lat="41.9786630" lon="-8.8855890">
        <ele>33.1</ele>
        <time>2021-05-19T07:17:39Z</time>
      </trkpt>
      <trkpt lat="41.9786710" lon="-8.8855930">
        <ele>33.0</ele>
        <time>2021-05-19T07:17:40Z</time>
      </trkpt>
      <trkpt lat="41.9786750" lon="-8.8856020">
        <ele>32.9</ele>
        <time>2021-05-19T07:17:41Z</time>
      </trkpt>
      <trkpt lat="41.9786840" lon="-8.8856060">
        <ele>32.8</ele>
        <time>2021-05-19T07:17:42Z</time>
      </trkpt>
      <trkpt lat="41.9786970" lon="-8.8856100">
        <ele>32.6</ele>
        <time>2021-05-19T07:17:43Z</time>
      </trkpt>
      <trkpt lat="41.9787070" lon="-8.8856160">
        <ele>32.5</ele>
        <time>2021-05-19T07:17:44Z</time>
      </trkpt>
      <trkpt lat="41.9787170" lon="-8.8856230">
        <ele>32.3</ele>
        <time>2021-05-19T07:17:45Z</time>
      </trkpt>
      <trkpt lat="41.9787280" lon="-8.8856260">
        <ele>32.2</ele>
        <time>2021-05-19T07:17:46Z</time>
      </trkpt>
      <trkpt lat="41.9787360" lon="-8.8856290">
        <ele>32.1</ele>
        <time>2021-05-19T07:17:47Z</time>
      </trkpt>
      <trkpt lat="41.9787500" lon="-8.8856320">
        <ele>31.9</ele>
        <time>2021-05-19T07:17:48Z</time>
      </trkpt>
      <trkpt lat="41.9787590" lon="-8.8856350">
        <ele>31.8</ele>
        <time>2021-05-19T07:17:49Z</time>
      </trkpt>
      <trkpt lat="41.9787690" lon="-8.8856390">
        <ele>31.7</ele>
        <time>2021-05-19T07:17:50Z</time>
      </trkpt>
      <trkpt lat="41.9787700" lon="-8.8856420">
        <ele>31.6</ele>
        <time>2021-05-19T07:17:51Z</time>
      </trkpt>
      <trkpt lat="41.9787740" lon="-8.8856440">
        <ele>31.6</ele>
        <time>2021-05-19T07:17:52Z</time>
      </trkpt>
      <trkpt lat="41.9787830" lon="-8.8856510">
        <ele>31.5</ele>
        <time>2021-05-19T07:17:53Z</time>
      </trkpt>
      <trkpt lat="41.9787890" lon="-8.8856600">
        <ele>31.4</ele>
        <time>2021-05-19T07:17:54Z</time>
      </trkpt>
      <trkpt lat="41.9787930" lon="-8.8856620">
        <ele>31.3</ele>
        <time>2021-05-19T07:17:55Z</time>
      </trkpt>
      <trkpt lat="41.9787920" lon="-8.8856640">
        <ele>31.3</ele>
        <time>2021-05-19T07:17:56Z</time>
      </trkpt>
      <trkpt lat="41.9787950" lon="-8.8856650">
        <ele>31.3</ele>
        <time>2021-05-19T07:17:57Z</time>
      </trkpt>
      <trkpt lat="41.9787950" lon="-8.8856660">
        <ele>31.2</ele>
        <time>2021-05-19T07:17:58Z</time>
      </trkpt>
      <trkpt lat="41.9788010" lon="-8.8856690">
        <ele>31.2</ele>
        <time>2021-05-19T07:17:59Z</time>
      </trkpt>
      <trkpt lat="41.9788130" lon="-8.8856720">
        <ele>31.0</ele>
        <time>2021-05-19T07:18:00Z</time>
      </trkpt>
      <trkpt lat="41.9788200" lon="-8.8856720">
        <ele>31.0</ele>
        <time>2021-05-19T07:18:01Z</time>
      </trkpt>
      <trkpt lat="41.9788320" lon="-8.8856770">
        <ele>30.8</ele>
        <time>2021-05-19T07:18:02Z</time>
      </trkpt>
      <trkpt lat="41.9788420" lon="-8.8856800">
        <ele>30.7</ele>
        <time>2021-05-19T07:18:03Z</time>
      </trkpt>
      <trkpt lat="41.9788520" lon="-8.8856840">
        <ele>30.6</ele>
        <time>2021-05-19T07:18:04Z</time>
      </trkpt>
      <trkpt lat="41.9788620" lon="-8.8856880">
        <ele>30.5</ele>
        <time>2021-05-19T07:18:05Z</time>
      </trkpt>
      <trkpt lat="41.9788700" lon="-8.8856900">
        <ele>30.4</ele>
        <time>2021-05-19T07:18:06Z</time>
      </trkpt>
      <trkpt lat="41.9788840" lon="-8.8856940">
        <ele>30.2</ele>
        <time>2021-05-19T07:18:07Z</time>
      </trkpt>
      <trkpt lat="41.9788950" lon="-8.8857000">
        <ele>30.1</ele>
        <time>2021-05-19T07:18:08Z</time>
      </trkpt>
      <trkpt lat="41.9789090" lon="-8.8857070">
        <ele>29.9</ele>
        <time>2021-05-19T07:18:09Z</time>
      </trkpt>
      <trkpt lat="41.9789160" lon="-8.8857110">
        <ele>29.8</ele>
        <time>2021-05-19T07:18:10Z</time>
      </trkpt>
      <trkpt lat="41.9789220" lon="-8.8857160">
        <ele>29.8</ele>
        <time>2021-05-19T07:18:11Z</time>
      </trkpt>
      <trkpt lat="41.9789290" lon="-8.8857200">
        <ele>29.7</ele>
        <time>2021-05-19T07:18:12Z</time>
      </trkpt>
      <trkpt lat="41.9789340" lon="-8.8857220">
        <ele>29.6</ele>
        <time>2021-05-19T07:18:13Z</time>
      </trkpt>
      <trkpt lat="41.9789440" lon="-8.8857250">
        <ele>29.5</ele>
        <time>2021-05-19T07:18:14Z</time>
      </trkpt>
      <trkpt lat="41.9789590" lon="-8.8857360">
        <ele>29.3</ele>
        <time>2021-05-19T07:18:15Z</time>
      </trkpt>
      <trkpt lat="41.9789650" lon="-8.8857460">
        <ele>29.2</ele>
        <time>2021-05-19T07:18:16Z</time>
      </trkpt>
      <trkpt lat="41.9789730" lon="-8.8857590">
        <ele>29.1</ele>
        <time>2021-05-19T07:18:17Z</time>
      </trkpt>
      <trkpt lat="41.9789820" lon="-8.8857710">
        <ele>28.9</ele>
        <time>2021-05-19T07:18:18Z</time>
      </trkpt>
      <trkpt lat="41.9789880" lon="-8.8857810">
        <ele>28.8</ele>
        <time>2021-05-19T07:18:19Z</time>
      </trkpt>
      <trkpt lat="41.9789910" lon="-8.8857830">
        <ele>28.8</ele>
        <time>2021-05-19T07:18:20Z</time>
      </trkpt>
      <trkpt lat="41.9789950" lon="-8.8857860">
        <ele>28.7</ele>
        <time>2021-05-19T07:18:21Z</time>
      </trkpt>
      <trkpt lat="41.9789980" lon="-8.8857880">
        <ele>28.7</ele>
        <time>2021-05-19T07:18:22Z</time>
      </trkpt>
      <trkpt lat="41.9790010" lon="-8.8857900">
        <ele>28.6</ele>
        <time>2021-05-19T07:18:23Z</time>
      </trkpt>
      <trkpt lat="41.9790040" lon="-8.8857920">
        <ele>28.6</ele>
        <time>2021-05-19T07:18:24Z</time>
      </trkpt>
      <trkpt lat="41.9790070" lon="-8.8857940">
        <ele>28.5</ele>
        <time>2021-05-19T07:18:25Z</time>
      </trkpt>
      <trkpt lat="41.9790110" lon="-8.8857970">
        <ele>28.5</ele>
        <time>2021-05-19T07:18:26Z</time>
      </trkpt>
      <trkpt lat="41.9790140" lon="-8.8857990">
        <ele>28.4</ele>
        <time>2021-05-19T07:18:27Z</time>
      </trkpt>
      <trkpt lat="41.9790170" lon="-8.8858010">
        <ele>28.4</ele>
        <time>2021-05-19T07:18:28Z</time>
      </trkpt>
      <trkpt lat="41.9790220" lon="-8.8858080">
        <ele>28.3</ele>
        <time>2021-05-19T07:18:29Z</time>
      </trkpt>
      <trkpt lat="41.9790280" lon="-8.8858210">
        <ele>28.2</ele>
        <time>2021-05-19T07:18:30Z</time>
      </trkpt>
      <trkpt lat="41.9790380" lon="-8.8858310">
        <ele>28.0</ele>
        <time>2021-05-19T07:18:31Z</time>
      </trkpt>
      <trkpt lat="41.9790490" lon="-8.8858410">
        <ele>27.9</ele>
        <time>2021-05-19T07:18:32Z</time>
      </trkpt>
      <trkpt lat="41.9790520" lon="-8.8858480">
        <ele>27.8</ele>
        <time>2021-05-19T07:18:33Z</time>
      </trkpt>
      <trkpt lat="41.9790660" lon="-8.8858580">
        <ele>27.6</ele>
        <time>2021-05-19T07:18:34Z</time>
      </trkpt>
      <trkpt lat="41.9790750" lon="-8.8858630">
        <ele>27.5</ele>
        <time>2021-05-19T07:18:35Z</time>
      </trkpt>
      <trkpt lat="41.9790870" lon="-8.8858750">
        <ele>27.3</ele>
        <time>2021-05-19T07:18:36Z</time>
      </trkpt>
      <trkpt lat="41.9790950" lon="-8.8858850">
        <ele>27.2</ele>
        <time>2021-05-19T07:18:37Z</time>
      </trkpt>
      <trkpt lat="41.9791150" lon="-8.8859000">
        <ele>27.0</ele>
        <time>2021-05-19T07:18:38Z</time>
      </trkpt>
      <trkpt lat="41.9791210" lon="-8.8859070">
        <ele>26.9</ele>
        <time>2021-05-19T07:18:39Z</time>
      </trkpt>
      <trkpt lat="41.9791280" lon="-8.8859130">
        <ele>26.8</ele>
        <time>2021-05-19T07:18:40Z</time>
      </trkpt>
      <trkpt lat="41.9791460" lon="-8.8859260">
        <ele>26.5</ele>
        <time>2021-05-19T07:18:41Z</time>
      </trkpt>
      <trkpt lat="41.9791590" lon="-8.8859340">
        <ele>26.4</ele>
        <time>2021-05-19T07:18:42Z</time>
      </trkpt>
      <trkpt lat="41.9791700" lon="-8.8859440">
        <ele>26.2</ele>
        <time>2021-05-19T07:18:43Z</time>
      </trkpt>
      <trkpt lat="41.9791850" lon="-8.8859560">
        <ele>26.0</ele>
        <time>2021-05-19T07:18:44Z</time>
      </trkpt>
      <trkpt lat="41.9791940" lon="-8.8859690">
        <ele>25.9</ele>
        <time>2021-05-19T07:18:45Z</time>
      </trkpt>
      <trkpt lat="41.9792050" lon="-8.8859840">
        <ele>25.7</ele>
        <time>2021-05-19T07:18:46Z</time>
      </trkpt>
      <trkpt lat="41.9792160" lon="-8.8859990">
        <ele>25.6</ele>
        <time>2021-05-19T07:18:47Z</time>
      </trkpt>
      <trkpt lat="41.9792290" lon="-8.8860130">
        <ele>25.4</ele>
        <time>2021-05-19T07:18:48Z</time>
      </trkpt>
      <trkpt lat="41.9792410" lon="-8.8860240">
        <ele>25.2</ele>
        <time>2021-05-19T07:18:49Z</time>
      </trkpt>
      <trkpt lat="41.9792520" lon="-8.8860400">
        <ele>25.1</ele>
        <time>2021-05-19T07:18:50Z</time>
      </trkpt>
      <trkpt lat="41.9792640" lon="-8.8860530">
        <ele>24.9</ele>
        <time>2021-05-19T07:18:51Z</time>
      </trkpt>
      <trkpt lat="41.9792780" lon="-8.8860590">
        <ele>24.8</ele>
        <time>2021-05-19T07:18:52Z</time>
      </trkpt>
      <trkpt lat="41.9792870" lon="-8.8860700">
        <ele>24.6</ele>
        <time>2021-05-19T07:18:53Z</time>
      </trkpt>
      <trkpt lat="41.9792980" lon="-8.8860860">
        <ele>24.5</ele>
        <time>2021-05-19T07:18:54Z</time>
      </trkpt>
      <trkpt lat="41.9793150" lon="-8.8861000">
        <ele>24.2</ele>
        <time>2021-05-19T07:18:55Z</time>
      </trkpt>
      <trkpt lat="41.9793240" lon="-8.8861060">
        <ele>24.1</ele>
        <time>2021-05-19T07:18:56Z</time>
      </trkpt>
      <trkpt lat="41.9793330" lon="-8.8861110">
        <ele>24.0</ele>
        <time>2021-05-19T07:18:57Z</time>
      </trkpt>
      <trkpt lat="41.9793460" lon="-8.8861200">
        <ele>23.9</ele>
        <time>2021-05-19T07:18:58Z</time>
      </trkpt>
      <trkpt lat="41.9793560" lon="-8.8861350">
        <ele>23.7</ele>
        <time>2021-05-19T07:18:59Z</time>
      </trkpt>
      <trkpt lat="41.9793650" lon="-8.8861540">
        <ele>23.5</ele>
        <time>2021-05-19T07:19:00Z</time>
      </trkpt>
      <trkpt lat="41.9793730" lon="-8.8861690">
        <ele>23.4</ele>
        <time>2021-05-19T07:19:01Z</time>
      </trkpt>
      <trkpt lat="41.9793850" lon="-8.8861780">
        <ele>23.3</ele>
        <time>2021-05-19T07:19:02Z</time>
      </trkpt>
      <trkpt lat="41.9793990" lon="-8.8861880">
        <ele>23.1</ele>
        <time>2021-05-19T07:19:03Z</time>
      </trkpt>
      <trkpt lat="41.9794100" lon="-8.8861980">
        <ele>22.9</ele>
        <time>2021-05-19T07:19:04Z</time>
      </trkpt>
      <trkpt lat="41.9794190" lon="-8.8862140">
        <ele>22.8</ele>
        <time>2021-05-19T07:19:05Z</time>
      </trkpt>
      <trkpt lat="41.9794340" lon="-8.8862340">
        <ele>22.6</ele>
        <time>2021-05-19T07:19:06Z</time>
      </trkpt>
      <trkpt lat="41.9794400" lon="-8.8862420">
        <ele>22.6</ele>
        <time>2021-05-19T07:19:07Z</time>
      </trkpt>
      <trkpt lat="41.9794470" lon="-8.8862490">
        <ele>22.5</ele>
        <time>2021-05-19T07:19:08Z</time>
      </trkpt>
      <trkpt lat="41.9794640" lon="-8.8862570">
        <ele>22.3</ele>
        <time>2021-05-19T07:19:09Z</time>
      </trkpt>
      <trkpt lat="41.9794710" lon="-8.8862760">
        <ele>22.2</ele>
        <time>2021-05-19T07:19:10Z</time>
      </trkpt>
      <trkpt lat="41.9794790" lon="-8.8862860">
        <ele>22.1</ele>
        <time>2021-05-19T07:19:11Z</time>
      </trkpt>
      <trkpt lat="41.9794860" lon="-8.8862940">
        <ele>22.0</ele>
        <time>2021-05-19T07:19:12Z</time>
      </trkpt>
      <trkpt lat="41.9794900" lon="-8.8863070">
        <ele>21.9</ele>
        <time>2021-05-19T07:19:13Z</time>
      </trkpt>
      <trkpt lat="41.9794970" lon="-8.8863170">
        <ele>21.8</ele>
        <time>2021-05-19T07:19:14Z</time>
      </trkpt>
      <trkpt lat="41.9795080" lon="-8.8863280">
        <ele>21.7</ele>
        <time>2021-05-19T07:19:15Z</time>
      </trkpt>
      <trkpt lat="41.9795170" lon="-8.8863340">
        <ele>21.6</ele>
        <time>2021-05-19T07:19:16Z</time>
      </trkpt>
      <trkpt lat="41.9795340" lon="-8.8863340">
        <ele>21.4</ele>
        <time>2021-05-19T07:19:17Z</time>
      </trkpt>
      <trkpt lat="41.9795390" lon="-8.8863360">
        <ele>21.4</ele>
        <time>2021-05-19T07:19:18Z</time>
      </trkpt>
      <trkpt lat="41.9795430" lon="-8.8863370">
        <ele>21.4</ele>
        <time>2021-05-19T07:19:19Z</time>
      </trkpt>
      <trkpt lat="41.9795480" lon="-8.8863390">
        <ele>21.3</ele>
        <time>2021-05-19T07:19:20Z</time>
      </trkpt>
      <trkpt lat="41.9795530" lon="-8.8863400">
        <ele>21.3</ele>
        <time>2021-05-19T07:19:21Z</time>
      </trkpt>
      <trkpt lat="41.9795620" lon="-8.8863430">
        <ele>21.2</ele>
        <time>2021-05-19T07:19:22Z</time>
      </trkpt>
      <trkpt lat="41.9795740" lon="-8.8863490">
        <ele>21.1</ele>
        <time>2021-05-19T07:19:23Z</time>
      </trkpt>
      <trkpt lat="41.9795870" lon="-8.8863520">
        <ele>21.0</ele>
        <time>2021-05-19T07:19:24Z</time>
      </trkpt>
      <trkpt lat="41.9796060" lon="-8.8863480">
        <ele>20.8</ele>
        <time>2021-05-19T07:19:25Z</time>
      </trkpt>
      <trkpt lat="41.9796150" lon="-8.8863470">
        <ele>20.7</ele>
        <time>2021-05-19T07:19:26Z</time>
      </trkpt>
      <trkpt lat="41.9796240" lon="-8.8863470">
        <ele>20.6</ele>
        <time>2021-05-19T07:19:27Z</time>
      </trkpt>
      <trkpt lat="41.9796360" lon="-8.8863550">
        <ele>20.5</ele>
        <time>2021-05-19T07:19:28Z</time>
      </trkpt>
      <trkpt lat="41.9796460" lon="-8.8863600">
        <ele>20.4</ele>
        <time>2021-05-19T07:19:29Z</time>
      </trkpt>
      <trkpt lat="41.9796530" lon="-8.8863630">
        <ele>20.3</ele>
        <time>2021-05-19T07:19:30Z</time>
      </trkpt>
      <trkpt lat="41.9796690" lon="-8.8863710">
        <ele>20.2</ele>
        <time>2021-05-19T07:19:31Z</time>
      </trkpt>
      <trkpt lat="41.9796760" lon="-8.8863740">
        <ele>20.1</ele>
        <time>2021-05-19T07:19:32Z</time>
      </trkpt>
      <trkpt lat="41.9796850" lon="-8.8863840">
        <ele>20.0</ele>
        <time>2021-05-19T07:19:33Z</time>
      </trkpt>
      <trkpt lat="41.9797030" lon="-8.8863930">
        <ele>19.8</ele>
        <time>2021-05-19T07:19:34Z</time>
      </trkpt>
      <trkpt lat="41.9797130" lon="-8.8863980">
        <ele>19.7</ele>
        <time>2021-05-19T07:19:35Z</time>
      </trkpt>
      <trkpt lat="41.9797230" lon="-8.8864030">
        <ele>19.6</ele>
        <time>2021-05-19T07:19:36Z</time>
      </trkpt>
      <trkpt lat="41.9797320" lon="-8.8864070">
        <ele>19.5</ele>
        <time>2021-05-19T07:19:37Z</time>
      </trkpt>
      <trkpt lat="41.9797410" lon="-8.8864100">
        <ele>19.5</ele>
        <time>2021-05-19T07:19:38Z</time>
      </trkpt>
      <trkpt lat="41.9797560" lon="-8.8864190">
        <ele>19.3</ele>
        <time>2021-05-19T07:19:39Z</time>
      </trkpt>
      <trkpt lat="41.9797640" lon="-8.8864310">
        <ele>19.2</ele>
        <time>2021-05-19T07:19:40Z</time>
      </trkpt>
      <trkpt lat="41.9797770" lon="-8.8864450">
        <ele>19.0</ele>
        <time>2021-05-19T07:19:41Z</time>
      </trkpt>
      <trkpt lat="41.9797890" lon="-8.8864560">
        <ele>18.9</ele>
        <time>2021-05-19T07:19:42Z</time>
      </trkpt>
      <trkpt lat="41.9798040" lon="-8.8864670">
        <ele>18.7</ele>
        <time>2021-05-19T07:19:43Z</time>
      </trkpt>
      <trkpt lat="41.9798180" lon="-8.8864760">
        <ele>18.6</ele>
        <time>2021-05-19T07:19:44Z</time>
      </trkpt>
      <trkpt lat="41.9798330" lon="-8.8864840">
        <ele>18.5</ele>
        <time>2021-05-19T07:19:45Z</time>
      </trkpt>
      <trkpt lat="41.9798460" lon="-8.8864940">
        <ele>18.3</ele>
        <time>2021-05-19T07:19:46Z</time>
      </trkpt>
      <trkpt lat="41.9798590" lon="-8.8865020">
        <ele>18.2</ele>
        <time>2021-05-19T07:19:47Z</time>
      </trkpt>
      <trkpt lat="41.9798790" lon="-8.8865170">
        <ele>18.0</ele>
        <time>2021-05-19T07:19:48Z</time>
      </trkpt>
      <trkpt lat="41.9798870" lon="-8.8865220">
        <ele>17.9</ele>
        <time>2021-05-19T07:19:49Z</time>
      </trkpt>
      <trkpt lat="41.9798950" lon="-8.8865270">
        <ele>17.9</ele>
        <time>2021-05-19T07:19:50Z</time>
      </trkpt>
      <trkpt lat="41.9799080" lon="-8.8865330">
        <ele>17.8</ele>
        <time>2021-05-19T07:19:51Z</time>
      </trkpt>
      <trkpt lat="41.9799220" lon="-8.8865370">
        <ele>17.7</ele>
        <time>2021-05-19T07:19:52Z</time>
      </trkpt>
      <trkpt lat="41.9799340" lon="-8.8865440">
        <ele>17.6</ele>
        <time>2021-05-19T07:19:53Z</time>
      </trkpt>
      <trkpt lat="41.9799490" lon="-8.8865470">
        <ele>17.5</ele>
        <time>2021-05-19T07:19:54Z</time>
      </trkpt>
      <trkpt lat="41.9799710" lon="-8.8865550">
        <ele>17.3</ele>
        <time>2021-05-19T07:19:55Z</time>
      </trkpt>
      <trkpt lat="41.9799800" lon="-8.8865580">
        <ele>17.3</ele>
        <time>2021-05-19T07:19:56Z</time>
      </trkpt>
      <trkpt lat="41.9799890" lon="-8.8865610">
        <ele>17.2</ele>
        <time>2021-05-19T07:19:57Z</time>
      </trkpt>
      <trkpt lat="41.9800030" lon="-8.8865640">
        <ele>17.1</ele>
        <time>2021-05-19T07:19:58Z</time>
      </trkpt>
      <trkpt lat="41.9800160" lon="-8.8865590">
        <ele>17.0</ele>
        <time>2021-05-19T07:19:59Z</time>
      </trkpt>
      <trkpt lat="41.9800290" lon="-8.8865710">
        <ele>16.9</ele>
        <time>2021-05-19T07:20:00Z</time>
      </trkpt>
      <trkpt lat="41.9800440" lon="-8.8865680">
        <ele>16.9</ele>
        <time>2021-05-19T07:20:01Z</time>
      </trkpt>
      <trkpt lat="41.9800640" lon="-8.8865780">
        <ele>16.7</ele>
        <time>2021-05-19T07:20:02Z</time>
      </trkpt>
      <trkpt lat="41.9800720" lon="-8.8865830">
        <ele>16.7</ele>
        <time>2021-05-19T07:20:03Z</time>
      </trkpt>
      <trkpt lat="41.9800800" lon="-8.8865870">
        <ele>16.7</ele>
        <time>2021-05-19T07:20:04Z</time>
      </trkpt>
      <trkpt lat="41.9800950" lon="-8.8865860">
        <ele>16.6</ele>
        <time>2021-05-19T07:20:05Z</time>
      </trkpt>
      <trkpt lat="41.9801110" lon="-8.8865830">
        <ele>16.5</ele>
        <time>2021-05-19T07:20:06Z</time>
      </trkpt>
      <trkpt lat="41.9801330" lon="-8.8865820">
        <ele>16.4</ele>
        <time>2021-05-19T07:20:07Z</time>
      </trkpt>
      <trkpt lat="41.9801420" lon="-8.8865830">
        <ele>16.3</ele>
        <time>2021-05-19T07:20:08Z</time>
      </trkpt>
      <trkpt lat="41.9801520" lon="-8.8865840">
        <ele>16.3</ele>
        <time>2021-05-19T07:20:09Z</time>
      </trkpt>
      <trkpt lat="41.9801740" lon="-8.8865850">
        <ele>16.2</ele>
        <time>2021-05-19T07:20:10Z</time>
      </trkpt>
      <trkpt lat="41.9801830" lon="-8.8865830">
        <ele>16.1</ele>
        <time>2021-05-19T07:20:11Z</time>
      </trkpt>
      <trkpt lat="41.9801910" lon="-8.8865820">
        <ele>16.1</ele>
        <time>2021-05-19T07:20:12Z</time>
      </trkpt>
      <trkpt lat="41.9802050" lon="-8.8865790">
        <ele>16.0</ele>
        <time>2021-05-19T07:20:13Z</time>
      </trkpt>
      <trkpt lat="41.9802200" lon="-8.8865680">
        <ele>15.9</ele>
        <time>2021-05-19T07:20:14Z</time>
      </trkpt>
      <trkpt lat="41.9802330" lon="-8.8865590">
        <ele>15.9</ele>
        <time>2021-05-19T07:20:15Z</time>
      </trkpt>
      <trkpt lat="41.9802460" lon="-8.8865510">
        <ele>15.8</ele>
        <time>2021-05-19T07:20:16Z</time>
      </trkpt>
      <trkpt lat="41.9802580" lon="-8.8865440">
        <ele>15.7</ele>
        <time>2021-05-19T07:20:17Z</time>
      </trkpt>
      <trkpt lat="41.9802700" lon="-8.8865330">
        <ele>15.7</ele>
        <time>2021-05-19T07:20:18Z</time>
      </trkpt>
      <trkpt lat="41.9802840" lon="-8.8865260">
        <ele>15.6</ele>
        <time>2021-05-19T07:20:19Z</time>
      </trkpt>
      <trkpt lat="41.9802990" lon="-8.8865220">
        <ele>15.5</ele>
        <time>2021-05-19T07:20:20Z</time>
      </trkpt>
      <trkpt lat="41.9803130" lon="-8.8865150">
        <ele>15.5</ele>
        <time>2021-05-19T07:20:21Z</time>
      </trkpt>
      <trkpt lat="41.9803270" lon="-8.8865100">
        <ele>15.4</ele>
        <time>2021-05-19T07:20:22Z</time>
      </trkpt>
      <trkpt lat="41.9803460" lon="-8.8864970">
        <ele>15.3</ele>
        <time>2021-05-19T07:20:23Z</time>
      </trkpt>
      <trkpt lat="41.9803540" lon="-8.8864920">
        <ele>15.3</ele>
        <time>2021-05-19T07:20:24Z</time>
      </trkpt>
      <trkpt lat="41.9803610" lon="-8.8864880">
        <ele>15.2</ele>
        <time>2021-05-19T07:20:25Z</time>
      </trkpt>
      <trkpt lat="41.9803810" lon="-8.8864760">
        <ele>15.1</ele>
        <time>2021-05-19T07:20:26Z</time>
      </trkpt>
      <trkpt lat="41.9803880" lon="-8.8864710">
        <ele>15.1</ele>
        <time>2021-05-19T07:20:27Z</time>
      </trkpt>
      <trkpt lat="41.9803960" lon="-8.8864650">
        <ele>15.1</ele>
        <time>2021-05-19T07:20:28Z</time>
      </trkpt>
      <trkpt lat="41.9804170" lon="-8.8864520">
        <ele>15.0</ele>
        <time>2021-05-19T07:20:29Z</time>
      </trkpt>
      <trkpt lat="41.9804260" lon="-8.8864500">
        <ele>14.9</ele>
        <time>2021-05-19T07:20:30Z</time>
      </trkpt>
      <trkpt lat="41.9804340" lon="-8.8864470">
        <ele>14.9</ele>
        <time>2021-05-19T07:20:31Z</time>
      </trkpt>
      <trkpt lat="41.9804560" lon="-8.8864400">
        <ele>14.8</ele>
        <time>2021-05-19T07:20:32Z</time>
      </trkpt>
      <trkpt lat="41.9804650" lon="-8.8864370">
        <ele>14.7</ele>
        <time>2021-05-19T07:20:33Z</time>
      </trkpt>
      <trkpt lat="41.9804740" lon="-8.8864340">
        <ele>14.7</ele>
        <time>2021-05-19T07:20:34Z</time>
      </trkpt>
      <trkpt lat="41.9804950" lon="-8.8864290">
        <ele>14.6</ele>
        <time>2021-05-19T07:20:35Z</time>
      </trkpt>
      <trkpt lat="41.9805040" lon="-8.8864270">
        <ele>14.6</ele>
        <time>2021-05-19T07:20:36Z</time>
      </trkpt>
      <trkpt lat="41.9805130" lon="-8.8864250">
        <ele>14.6</ele>
        <time>2021-05-19T07:20:37Z</time>
      </trkpt>
      <trkpt lat="41.9805350" lon="-8.8864200">
        <ele>14.5</ele>
        <time>2021-05-19T07:20:38Z</time>
      </trkpt>
      <trkpt lat="41.9805430" lon="-8.8864180">
        <ele>14.4</ele>
        <time>2021-05-19T07:20:39Z</time>
      </trkpt>
      <trkpt lat="41.9805510" lon="-8.8864150">
        <ele>14.4</ele>
        <time>2021-05-19T07:20:40Z</time>
      </trkpt>
      <trkpt lat="41.9805720" lon="-8.8864070">
        <ele>14.3</ele>
        <time>2021-05-19T07:20:41Z</time>
      </trkpt>
      <trkpt lat="41.9805810" lon="-8.8864050">
        <ele>14.3</ele>
        <time>2021-05-19T07:20:42Z</time>
      </trkpt>
      <trkpt lat="41.9805890" lon="-8.8864030">
        <ele>14.3</ele>
        <time>2021-05-19T07:20:43Z</time>
      </trkpt>
      <trkpt lat="41.9806010" lon="-8.8864030">
        <ele>14.2</ele>
        <time>2021-05-19T07:20:44Z</time>
      </trkpt>
      <trkpt lat="41.9806120" lon="-8.8863990">
        <ele>14.2</ele>
        <time>2021-05-19T07:20:45Z</time>
      </trkpt>
      <trkpt lat="41.9806250" lon="-8.8863970">
        <ele>14.1</ele>
        <time>2021-05-19T07:20:46Z</time>
      </trkpt>
      <trkpt lat="41.9806440" lon="-8.8863900">
        <ele>14.1</ele>
        <time>2021-05-19T07:20:47Z</time>
      </trkpt>
      <trkpt lat="41.9806530" lon="-8.8863860">
        <ele>14.0</ele>
        <time>2021-05-19T07:20:48Z</time>
      </trkpt>
      <trkpt lat="41.9806610" lon="-8.8863830">
        <ele>14.0</ele>
        <time>2021-05-19T07:20:49Z</time>
      </trkpt>
      <trkpt lat="41.9806820" lon="-8.8863760">
        <ele>14.0</ele>
        <time>2021-05-19T07:20:50Z</time>
      </trkpt>
      <trkpt lat="41.9806900" lon="-8.8863750">
        <ele>13.9</ele>
        <time>2021-05-19T07:20:51Z</time>
      </trkpt>
      <trkpt lat="41.9806980" lon="-8.8863730">
        <ele>13.9</ele>
        <time>2021-05-19T07:20:52Z</time>
      </trkpt>
      <trkpt lat="41.9807120" lon="-8.8863730">
        <ele>13.9</ele>
        <time>2021-05-19T07:20:53Z</time>
      </trkpt>
      <trkpt lat="41.9807260" lon="-8.8863690">
        <ele>13.8</ele>
        <time>2021-05-19T07:20:54Z</time>
      </trkpt>
      <trkpt lat="41.9807390" lon="-8.8863690">
        <ele>13.8</ele>
        <time>2021-05-19T07:20:55Z</time>
      </trkpt>
      <trkpt lat="41.9807540" lon="-8.8863680">
        <ele>13.7</ele>
        <time>2021-05-19T07:20:56Z</time>
      </trkpt>
      <trkpt lat="41.9807690" lon="-8.8863690">
        <ele>13.7</ele>
        <time>2021-05-19T07:20:57Z</time>
      </trkpt>
      <trkpt lat="41.9807840" lon="-8.8863680">
        <ele>13.7</ele>
        <time>2021-05-19T07:20:58Z</time>
      </trkpt>
      <trkpt lat="41.9807960" lon="-8.8863620">
        <ele>13.6</ele>
        <time>2021-05-19T07:20:59Z</time>
      </trkpt>
      <trkpt lat="41.9808110" lon="-8.8863610">
        <ele>13.6</ele>
        <time>2021-05-19T07:21:00Z</time>
      </trkpt>
      <trkpt lat="41.9808330" lon="-8.8863570">
        <ele>13.6</ele>
        <time>2021-05-19T07:21:01Z</time>
      </trkpt>
      <trkpt lat="41.9808430" lon="-8.8863580">
        <ele>13.5</ele>
        <time>2021-05-19T07:21:02Z</time>
      </trkpt>
      <trkpt lat="41.9808520" lon="-8.8863580">
        <ele>13.5</ele>
        <time>2021-05-19T07:21:03Z</time>
      </trkpt>
      <trkpt lat="41.9808660" lon="-8.8863570">
        <ele>13.5</ele>
        <time>2021-05-19T07:21:04Z</time>
      </trkpt>
      <trkpt lat="41.9808790" lon="-8.8863570">
        <ele>13.4</ele>
        <time>2021-05-19T07:21:05Z</time>
      </trkpt>
      <trkpt lat="41.9808940" lon="-8.8863580">
        <ele>13.4</ele>
        <time>2021-05-19T07:21:06Z</time>
      </trkpt>
      <trkpt lat="41.9809080" lon="-8.8863540">
        <ele>13.4</ele>
        <time>2021-05-19T07:21:07Z</time>
      </trkpt>
      <trkpt lat="41.9809220" lon="-8.8863480">
        <ele>13.4</ele>
        <time>2021-05-19T07:21:08Z</time>
      </trkpt>
      <trkpt lat="41.9809370" lon="-8.8863440">
        <ele>13.3</ele>
        <time>2021-05-19T07:21:09Z</time>
      </trkpt>
      <trkpt lat="41.9809500" lon="-8.8863460">
        <ele>13.3</ele>
        <time>2021-05-19T07:21:10Z</time>
      </trkpt>
      <trkpt lat="41.9809640" lon="-8.8863480">
        <ele>13.3</ele>
        <time>2021-05-19T07:21:11Z</time>
      </trkpt>
      <trkpt lat="41.9809790" lon="-8.8863500">
        <ele>13.2</ele>
        <time>2021-05-19T07:21:12Z</time>
      </trkpt>
      <trkpt lat="41.9809940" lon="-8.8863510">
        <ele>13.2</ele>
        <time>2021-05-19T07:21:13Z</time>
      </trkpt>
      <trkpt lat="41.9810080" lon="-8.8863590">
        <ele>13.2</ele>
        <time>2021-05-19T07:21:14Z</time>
      </trkpt>
      <trkpt lat="41.9810220" lon="-8.8863580">
        <ele>13.1</ele>
        <time>2021-05-19T07:21:15Z</time>
      </trkpt>
      <trkpt lat="41.9810440" lon="-8.8863590">
        <ele>13.1</ele>
        <time>2021-05-19T07:21:16Z</time>
      </trkpt>
      <trkpt lat="41.9810520" lon="-8.8863600">
        <ele>13.1</ele>
        <time>2021-05-19T07:21:17Z</time>
      </trkpt>
      <trkpt lat="41.9810600" lon="-8.8863600">
        <ele>13.1</ele>
        <time>2021-05-19T07:21:18Z</time>
      </trkpt>
      <trkpt lat="41.9810810" lon="-8.8863620">
        <ele>13.0</ele>
        <time>2021-05-19T07:21:19Z</time>
      </trkpt>
      <trkpt lat="41.9810890" lon="-8.8863660">
        <ele>13.0</ele>
        <time>2021-05-19T07:21:20Z</time>
      </trkpt>
      <trkpt lat="41.9810970" lon="-8.8863690">
        <ele>13.0</ele>
        <time>2021-05-19T07:21:21Z</time>
      </trkpt>
      <trkpt lat="41.9811110" lon="-8.8863690">
        <ele>13.0</ele>
        <time>2021-05-19T07:21:22Z</time>
      </trkpt>
      <trkpt lat="41.9811250" lon="-8.8863680">
        <ele>13.0</ele>
        <time>2021-05-19T07:21:23Z</time>
      </trkpt>
      <trkpt lat="41.9811460" lon="-8.8863630">
        <ele>12.9</ele>
        <time>2021-05-19T07:21:24Z</time>
      </trkpt>
      <trkpt lat="41.9811540" lon="-8.8863600">
        <ele>12.9</ele>
        <time>2021-05-19T07:21:25Z</time>
      </trkpt>
      <trkpt lat="41.9811620" lon="-8.8863570">
        <ele>12.9</ele>
        <time>2021-05-19T07:21:26Z</time>
      </trkpt>
      <trkpt lat="41.9811750" lon="-8.8863500">
        <ele>12.9</ele>
        <time>2021-05-19T07:21:27Z</time>
      </trkpt>
      <trkpt lat="41.9811870" lon="-8.8863490">
        <ele>12.9</ele>
        <time>2021-05-19T07:21:28Z</time>
      </trkpt>
      <trkpt lat="41.9811980" lon="-8.8863520">
        <ele>12.9</ele>
        <time>2021-05-19T07:21:29Z</time>
      </trkpt>
      <trkpt lat="41.9812170" lon="-8.8863540">
        <ele>12.9</ele>
        <time>2021-05-19T07:21:30Z</time>
      </trkpt>
      <trkpt lat="41.9812250" lon="-8.8863540">
        <ele>12.9</ele>
        <time>2021-05-19T07:21:31Z</time>
      </trkpt>
      <trkpt lat="41.9812340" lon="-8.8863550">
        <ele>12.8</ele>
        <time>2021-05-19T07:21:32Z</time>
      </trkpt>
      <trkpt lat="41.9812470" lon="-8.8863540">
        <ele>12.8</ele>
        <time>2021-05-19T07:21:33Z</time>
      </trkpt>
      <trkpt lat="41.9812580" lon="-8.8863530">
        <ele>12.8</ele>
        <time>2021-05-19T07:21:34Z</time>
      </trkpt>
      <trkpt lat="41.9812700" lon="-8.8863500">
        <ele>12.8</ele>
        <time>2021-05-19T07:21:35Z</time>
      </trkpt>
      <trkpt lat="41.9812920" lon="-8.8863480">
        <ele>12.8</ele>
        <time>2021-05-19T07:21:36Z</time>
      </trkpt>
      <trkpt lat="41.9813000" lon="-8.8863440">
        <ele>12.8</ele>
        <time>2021-05-19T07:21:37Z</time>
      </trkpt>
      <trkpt lat="41.9813090" lon="-8.8863410">
        <ele>12.8</ele>
        <time>2021-05-19T07:21:38Z</time>
      </trkpt>
      <trkpt lat="41.9813200" lon="-8.8863410">
        <ele>12.8</ele>
        <time>2021-05-19T07:21:39Z</time>
      </trkpt>
      <trkpt lat="41.9813310" lon="-8.8863460">
        <ele>12.8</ele>
        <time>2021-05-19T07:21:40Z</time>
      </trkpt>
      <trkpt lat="41.9813440" lon="-8.8863470">
        <ele>12.8</ele>
        <time>2021-05-19T07:21:41Z</time>
      </trkpt>
      <trkpt lat="41.9813640" lon="-8.8863480">
        <ele>12.8</ele>
        <time>2021-05-19T07:21:42Z</time>
      </trkpt>
      <trkpt lat="41.9813730" lon="-8.8863470">
        <ele>12.8</ele>
        <time>2021-05-19T07:21:43Z</time>
      </trkpt>
      <trkpt lat="41.9813810" lon="-8.8863460">
        <ele>12.8</ele>
        <time>2021-05-19T07:21:44Z</time>
      </trkpt>
      <trkpt lat="41.9814030" lon="-8.8863480">
        <ele>12.8</ele>
        <time>2021-05-19T07:21:45Z</time>
      </trkpt>
      <trkpt lat="41.9814100" lon="-8.8863470">
        <ele>12.8</ele>
        <time>2021-05-19T07:21:46Z</time>
      </trkpt>
      <trkpt lat="41.9814180" lon="-8.8863470">
        <ele>12.8</ele>
        <time>2021-05-19T07:21:47Z</time>
      </trkpt>
      <trkpt lat="41.9814390" lon="-8.8863520">
        <ele>12.8</ele>
        <time>2021-05-19T07:21:48Z</time>
      </trkpt>
      <trkpt lat="41.9814480" lon="-8.8863530">
        <ele>12.8</ele>
        <time>2021-05-19T07:21:49Z</time>
      </trkpt>
      <trkpt lat="41.9814560" lon="-8.8863530">
        <ele>12.8</ele>
        <time>2021-05-19T07:21:50Z</time>
      </trkpt>
      <trkpt lat="41.9814700" lon="-8.8863530">
        <ele>12.8</ele>
        <time>2021-05-19T07:21:51Z</time>
      </trkpt>
      <trkpt lat="41.9814830" lon="-8.8863470">
        <ele>12.8</ele>
        <time>2021-05-19T07:21:52Z</time>
      </trkpt>
      <trkpt lat="41.9814980" lon="-8.8863470">
        <ele>12.8</ele>
        <time>2021-05-19T07:21:53Z</time>
      </trkpt>
      <trkpt lat="41.9815110" lon="-8.8863460">
        <ele>12.8</ele>
        <time>2021-05-19T07:21:54Z</time>
      </trkpt>
      <trkpt lat="41.9815340" lon="-8.8863420">
        <ele>12.7</ele>
        <time>2021-05-19T07:21:55Z</time>
      </trkpt>
      <trkpt lat="41.9815430" lon="-8.8863400">
        <ele>12.7</ele>
        <time>2021-05-19T07:21:56Z</time>
      </trkpt>
      <trkpt lat="41.9815520" lon="-8.8863380">
        <ele>12.7</ele>
        <time>2021-05-19T07:21:57Z</time>
      </trkpt>
      <trkpt lat="41.9815720" lon="-8.8863360">
        <ele>12.7</ele>
        <time>2021-05-19T07:21:58Z</time>
      </trkpt>
      <trkpt lat="41.9815810" lon="-8.8863320">
        <ele>12.7</ele>
        <time>2021-05-19T07:21:59Z</time>
      </trkpt>
      <trkpt lat="41.9815900" lon="-8.8863290">
        <ele>12.7</ele>
        <time>2021-05-19T07:22:00Z</time>
      </trkpt>
      <trkpt lat="41.9816020" lon="-8.8863240">
        <ele>12.7</ele>
        <time>2021-05-19T07:22:01Z</time>
      </trkpt>
      <trkpt lat="41.9816140" lon="-8.8863120">
        <ele>12.7</ele>
        <time>2021-05-19T07:22:02Z</time>
      </trkpt>
      <trkpt lat="41.9816280" lon="-8.8863060">
        <ele>12.6</ele>
        <time>2021-05-19T07:22:03Z</time>
      </trkpt>
      <trkpt lat="41.9816430" lon="-8.8863030">
        <ele>12.6</ele>
        <time>2021-05-19T07:22:04Z</time>
      </trkpt>
      <trkpt lat="41.9816570" lon="-8.8862950">
        <ele>12.6</ele>
        <time>2021-05-19T07:22:05Z</time>
      </trkpt>
      <trkpt lat="41.9816670" lon="-8.8862850">
        <ele>12.6</ele>
        <time>2021-05-19T07:22:06Z</time>
      </trkpt>
      <trkpt lat="41.9816880" lon="-8.8862750">
        <ele>12.5</ele>
        <time>2021-05-19T07:22:07Z</time>
      </trkpt>
      <trkpt lat="41.9816970" lon="-8.8862730">
        <ele>12.5</ele>
        <time>2021-05-19T07:22:08Z</time>
      </trkpt>
      <trkpt lat="41.9817050" lon="-8.8862700">
        <ele>12.4</ele>
        <time>2021-05-19T07:22:09Z</time>
      </trkpt>
      <trkpt lat="41.9817250" lon="-8.8862600">
        <ele>12.4</ele>
        <time>2021-05-19T07:22:10Z</time>
      </trkpt>
      <trkpt lat="41.9817320" lon="-8.8862560">
        <ele>12.4</ele>
        <time>2021-05-19T07:22:11Z</time>
      </trkpt>
      <trkpt lat="41.9817400" lon="-8.8862530">
        <ele>12.3</ele>
        <time>2021-05-19T07:22:12Z</time>
      </trkpt>
      <trkpt lat="41.9817580" lon="-8.8862530">
        <ele>12.3</ele>
        <time>2021-05-19T07:22:13Z</time>
      </trkpt>
      <trkpt lat="41.9817710" lon="-8.8862480">
        <ele>12.2</ele>
        <time>2021-05-19T07:22:14Z</time>
      </trkpt>
      <trkpt lat="41.9817840" lon="-8.8862380">
        <ele>12.2</ele>
        <time>2021-05-19T07:22:15Z</time>
      </trkpt>
      <trkpt lat="41.9817980" lon="-8.8862310">
        <ele>12.1</ele>
        <time>2021-05-19T07:22:16Z</time>
      </trkpt>
      <trkpt lat="41.9818120" lon="-8.8862300">
        <ele>12.1</ele>
        <time>2021-05-19T07:22:17Z</time>
      </trkpt>
      <trkpt lat="41.9818250" lon="-8.8862260">
        <ele>12.1</ele>
        <time>2021-05-19T07:22:18Z</time>
      </trkpt>
      <trkpt lat="41.9818400" lon="-8.8862270">
        <ele>12.0</ele>
        <time>2021-05-19T07:22:19Z</time>
      </trkpt>
      <trkpt lat="41.9818530" lon="-8.8862230">
        <ele>12.0</ele>
        <time>2021-05-19T07:22:20Z</time>
      </trkpt>
      <trkpt lat="41.9818680" lon="-8.8862220">
        <ele>11.9</ele>
        <time>2021-05-19T07:22:21Z</time>
      </trkpt>
      <trkpt lat="41.9818830" lon="-8.8862180">
        <ele>11.9</ele>
        <time>2021-05-19T07:22:22Z</time>
      </trkpt>
      <trkpt lat="41.9818980" lon="-8.8862250">
        <ele>11.8</ele>
        <time>2021-05-19T07:22:23Z</time>
      </trkpt>
      <trkpt lat="41.9819110" lon="-8.8862250">
        <ele>11.8</ele>
        <time>2021-05-19T07:22:24Z</time>
      </trkpt>
      <trkpt lat="41.9819250" lon="-8.8862240">
        <ele>11.7</ele>
        <time>2021-05-19T07:22:25Z</time>
      </trkpt>
      <trkpt lat="41.9819400" lon="-8.8862220">
        <ele>11.7</ele>
        <time>2021-05-19T07:22:26Z</time>
      </trkpt>
      <trkpt lat="41.9819540" lon="-8.8862130">
        <ele>11.7</ele>
        <time>2021-05-19T07:22:27Z</time>
      </trkpt>
      <trkpt lat="41.9819700" lon="-8.8862040">
        <ele>11.6</ele>
        <time>2021-05-19T07:22:28Z</time>
      </trkpt>
      <trkpt lat="41.9819820" lon="-8.8861930">
        <ele>11.6</ele>
        <time>2021-05-19T07:22:29Z</time>
      </trkpt>
      <trkpt lat="41.9819920" lon="-8.8861790">
        <ele>11.6</ele>
        <time>2021-05-19T07:22:30Z</time>
      </trkpt>
      <trkpt lat="41.9820040" lon="-8.8861680">
        <ele>11.6</ele>
        <time>2021-05-19T07:22:31Z</time>
      </trkpt>
      <trkpt lat="41.9820140" lon="-8.8861500">
        <ele>11.6</ele>
        <time>2021-05-19T07:22:32Z</time>
      </trkpt>
      <trkpt lat="41.9820230" lon="-8.8861360">
        <ele>11.6</ele>
        <time>2021-05-19T07:22:33Z</time>
      </trkpt>
      <trkpt lat="41.9820320" lon="-8.8861200">
        <ele>11.6</ele>
        <time>2021-05-19T07:22:34Z</time>
      </trkpt>
      <trkpt lat="41.9820440" lon="-8.8861060">
        <ele>11.6</ele>
        <time>2021-05-19T07:22:35Z</time>
      </trkpt>
      <trkpt lat="41.9820540" lon="-8.8860890">
        <ele>11.6</ele>
        <time>2021-05-19T07:22:36Z</time>
      </trkpt>
      <trkpt lat="41.9820630" lon="-8.8860730">
        <ele>11.7</ele>
        <time>2021-05-19T07:22:37Z</time>
      </trkpt>
      <trkpt lat="41.9820720" lon="-8.8860570">
        <ele>11.7</ele>
        <time>2021-05-19T07:22:38Z</time>
      </trkpt>
      <trkpt lat="41.9820770" lon="-8.8860360">
        <ele>11.7</ele>
        <time>2021-05-19T07:22:39Z</time>
      </trkpt>
      <trkpt lat="41.9820780" lon="-8.8860190">
        <ele>11.8</ele>
        <time>2021-05-19T07:22:40Z</time>
      </trkpt>
      <trkpt lat="41.9820750" lon="-8.8859960">
        <ele>11.9</ele>
        <time>2021-05-19T07:22:41Z</time>
      </trkpt>
      <trkpt lat="41.9820720" lon="-8.8859880">
        <ele>11.9</ele>
        <time>2021-05-19T07:22:42Z</time>
      </trkpt>
      <trkpt lat="41.9820690" lon="-8.8859810">
        <ele>11.9</ele>
        <time>2021-05-19T07:22:43Z</time>
      </trkpt>
      <trkpt lat="41.9820660" lon="-8.8859730">
        <ele>12.0</ele>
        <time>2021-05-19T07:22:44Z</time>
      </trkpt>
      <trkpt lat="41.9820580" lon="-8.8859540">
        <ele>12.1</ele>
        <time>2021-05-19T07:22:45Z</time>
      </trkpt>
      <trkpt lat="41.9820550" lon="-8.8859490">
        <ele>12.1</ele>
        <time>2021-05-19T07:22:46Z</time>
      </trkpt>
      <trkpt lat="41.9820540" lon="-8.8859480">
        <ele>12.1</ele>
        <time>2021-05-19T07:22:47Z</time>
      </trkpt>
      <trkpt lat="41.9820520" lon="-8.8859550">
        <ele>12.1</ele>
        <time>2021-05-19T07:22:48Z</time>
      </trkpt>
      <trkpt lat="41.9820500" lon="-8.8859550">
        <ele>12.1</ele>
        <time>2021-05-19T07:22:49Z</time>
      </trkpt>
      <trkpt lat="41.9820470" lon="-8.8859450">
        <ele>12.2</ele>
        <time>2021-05-19T07:22:50Z</time>
      </trkpt>
      <trkpt lat="41.9820420" lon="-8.8859320">
        <ele>12.3</ele>
        <time>2021-05-19T07:22:51Z</time>
      </trkpt>
      <trkpt lat="41.9820430" lon="-8.8859260">
        <ele>12.3</ele>
        <time>2021-05-19T07:22:52Z</time>
      </trkpt>
      <trkpt lat="41.9820480" lon="-8.8859120">
        <ele>12.4</ele>
        <time>2021-05-19T07:22:53Z</time>
      </trkpt>
      <trkpt lat="41.9820500" lon="-8.8859060">
        <ele>12.4</ele>
        <time>2021-05-19T07:22:54Z</time>
      </trkpt>
      <trkpt lat="41.9820500" lon="-8.8858950">
        <ele>12.5</ele>
        <time>2021-05-19T07:22:55Z</time>
      </trkpt>
      <trkpt lat="41.9820570" lon="-8.8858850">
        <ele>12.5</ele>
        <time>2021-05-19T07:22:56Z</time>
      </trkpt>
      <trkpt lat="41.9820670" lon="-8.8858740">
        <ele>12.6</ele>
        <time>2021-05-19T07:22:57Z</time>
      </trkpt>
      <trkpt lat="41.9820750" lon="-8.8858680">
        <ele>12.7</ele>
        <time>2021-05-19T07:22:58Z</time>
      </trkpt>
      <trkpt lat="41.9820880" lon="-8.8858550">
        <ele>12.8</ele>
        <time>2021-05-19T07:22:59Z</time>
      </trkpt>
      <trkpt lat="41.9820960" lon="-8.8858510">
        <ele>12.9</ele>
        <time>2021-05-19T07:23:00Z</time>
      </trkpt>
      <trkpt lat="41.9821070" lon="-8.8858450">
        <ele>13.0</ele>
        <time>2021-05-19T07:23:01Z</time>
      </trkpt>
      <trkpt lat="41.9821160" lon="-8.8858480">
        <ele>13.1</ele>
        <time>2021-05-19T07:23:02Z</time>
      </trkpt>
      <trkpt lat="41.9821290" lon="-8.8858440">
        <ele>13.2</ele>
        <time>2021-05-19T07:23:03Z</time>
      </trkpt>
      <trkpt lat="41.9821320" lon="-8.8858370">
        <ele>13.3</ele>
        <time>2021-05-19T07:23:04Z</time>
      </trkpt>
      <trkpt lat="41.9821390" lon="-8.8858350">
        <ele>13.3</ele>
        <time>2021-05-19T07:23:05Z</time>
      </trkpt>
      <trkpt lat="41.9821460" lon="-8.8858260">
        <ele>13.4</ele>
        <time>2021-05-19T07:23:06Z</time>
      </trkpt>
      <trkpt lat="41.9821600" lon="-8.8858220">
        <ele>13.6</ele>
        <time>2021-05-19T07:23:07Z</time>
      </trkpt>
      <trkpt lat="41.9821680" lon="-8.8858120">
        <ele>13.7</ele>
        <time>2021-05-19T07:23:08Z</time>
      </trkpt>
      <trkpt lat="41.9821710" lon="-8.8858000">
        <ele>13.8</ele>
        <time>2021-05-19T07:23:09Z</time>
      </trkpt>
      <trkpt lat="41.9821780" lon="-8.8857950">
        <ele>13.8</ele>
        <time>2021-05-19T07:23:10Z</time>
      </trkpt>
      <trkpt lat="41.9821940" lon="-8.8857950">
        <ele>14.0</ele>
        <time>2021-05-19T07:23:11Z</time>
      </trkpt>
      <trkpt lat="41.9821990" lon="-8.8857890">
        <ele>14.1</ele>
        <time>2021-05-19T07:23:12Z</time>
      </trkpt>
      <trkpt lat="41.9822110" lon="-8.8857810">
        <ele>14.2</ele>
        <time>2021-05-19T07:23:13Z</time>
      </trkpt>
      <trkpt lat="41.9822240" lon="-8.8857790">
        <ele>14.3</ele>
        <time>2021-05-19T07:23:14Z</time>
      </trkpt>
      <trkpt lat="41.9822380" lon="-8.8857740">
        <ele>14.5</ele>
        <time>2021-05-19T07:23:15Z</time>
      </trkpt>
      <trkpt lat="41.9822590" lon="-8.8857770">
        <ele>14.7</ele>
        <time>2021-05-19T07:23:16Z</time>
      </trkpt>
      <trkpt lat="41.9822700" lon="-8.8857720">
        <ele>14.8</ele>
        <time>2021-05-19T07:23:17Z</time>
      </trkpt>
      <trkpt lat="41.9822820" lon="-8.8857650">
        <ele>14.9</ele>
        <time>2021-05-19T07:23:18Z</time>
      </trkpt>
      <trkpt lat="41.9822890" lon="-8.8857600">
        <ele>15.0</ele>
        <time>2021-05-19T07:23:19Z</time>
      </trkpt>
      <trkpt lat="41.9823030" lon="-8.8857650">
        <ele>15.1</ele>
        <time>2021-05-19T07:23:20Z</time>
      </trkpt>
      <trkpt lat="41.9823140" lon="-8.8857600">
        <ele>15.2</ele>
        <time>2021-05-19T07:23:21Z</time>
      </trkpt>
      <trkpt lat="41.9823190" lon="-8.8857530">
        <ele>15.3</ele>
        <time>2021-05-19T07:23:22Z</time>
      </trkpt>
      <trkpt lat="41.9823280" lon="-8.8857440">
        <ele>15.4</ele>
        <time>2021-05-19T07:23:23Z</time>
      </trkpt>
      <trkpt lat="41.9823360" lon="-8.8857360">
        <ele>15.5</ele>
        <time>2021-05-19T07:23:24Z</time>
      </trkpt>
      <trkpt lat="41.9823450" lon="-8.8857270">
        <ele>15.6</ele>
        <time>2021-05-19T07:23:25Z</time>
      </trkpt>
      <trkpt lat="41.9823570" lon="-8.8857240">
        <ele>15.7</ele>
        <time>2021-05-19T07:23:26Z</time>
      </trkpt>
      <trkpt lat="41.9823650" lon="-8.8857170">
        <ele>15.8</ele>
        <time>2021-05-19T07:23:27Z</time>
      </trkpt>
      <trkpt lat="41.9823760" lon="-8.8857170">
        <ele>15.9</ele>
        <time>2021-05-19T07:23:28Z</time>
      </trkpt>
      <trkpt lat="41.9823880" lon="-8.8857120">
        <ele>16.1</ele>
        <time>2021-05-19T07:23:29Z</time>
      </trkpt>
      <trkpt lat="41.9823940" lon="-8.8857020">
        <ele>16.2</ele>
        <time>2021-05-19T07:23:30Z</time>
      </trkpt>
      <trkpt lat="41.9823950" lon="-8.8856950">
        <ele>16.2</ele>
        <time>2021-05-19T07:23:31Z</time>
      </trkpt>
      <trkpt lat="41.9824090" lon="-8.8856850">
        <ele>16.4</ele>
        <time>2021-05-19T07:23:32Z</time>
      </trkpt>
      <trkpt lat="41.9824140" lon="-8.8856760">
        <ele>16.5</ele>
        <time>2021-05-19T07:23:33Z</time>
      </trkpt>
      <trkpt lat="41.9824230" lon="-8.8856690">
        <ele>16.6</ele>
        <time>2021-05-19T07:23:34Z</time>
      </trkpt>
      <trkpt lat="41.9824340" lon="-8.8856610">
        <ele>16.7</ele>
        <time>2021-05-19T07:23:35Z</time>
      </trkpt>
      <trkpt lat="41.9824440" lon="-8.8856560">
        <ele>16.8</ele>
        <time>2021-05-19T07:23:36Z</time>
      </trkpt>
      <trkpt lat="41.9824540" lon="-8.8856470">
        <ele>16.9</ele>
        <time>2021-05-19T07:23:37Z</time>
      </trkpt>
      <trkpt lat="41.9824600" lon="-8.8856430">
        <ele>17.0</ele>
        <time>2021-05-19T07:23:38Z</time>
      </trkpt>
      <trkpt lat="41.9824700" lon="-8.8856380">
        <ele>17.1</ele>
        <time>2021-05-19T07:23:39Z</time>
      </trkpt>
      <trkpt lat="41.9824810" lon="-8.8856320">
        <ele>17.2</ele>
        <time>2021-05-19T07:23:40Z</time>
      </trkpt>
      <trkpt lat="41.9824910" lon="-8.8856300">
        <ele>17.3</ele>
        <time>2021-05-19T07:23:41Z</time>
      </trkpt>
      <trkpt lat="41.9825020" lon="-8.8856250">
        <ele>17.5</ele>
        <time>2021-05-19T07:23:42Z</time>
      </trkpt>
      <trkpt lat="41.9825080" lon="-8.8856200">
        <ele>17.5</ele>
        <time>2021-05-19T07:23:43Z</time>
      </trkpt>
      <trkpt lat="41.9825130" lon="-8.8856170">
        <ele>17.6</ele>
        <time>2021-05-19T07:23:44Z</time>
      </trkpt>
      <trkpt lat="41.9825110" lon="-8.8856130">
        <ele>17.6</ele>
        <time>2021-05-19T07:23:45Z</time>
      </trkpt>
      <trkpt lat="41.9825140" lon="-8.8856050">
        <ele>17.7</ele>
        <time>2021-05-19T07:23:46Z</time>
      </trkpt>
      <trkpt lat="41.9825200" lon="-8.8855980">
        <ele>17.8</ele>
        <time>2021-05-19T07:23:47Z</time>
      </trkpt>
      <trkpt lat="41.9825410" lon="-8.8855870">
        <ele>18.0</ele>
        <time>2021-05-19T07:23:48Z</time>
      </trkpt>
      <trkpt lat="41.9825590" lon="-8.8855890">
        <ele>18.2</ele>
        <time>2021-05-19T07:23:49Z</time>
      </trkpt>
      <trkpt lat="41.9825670" lon="-8.8855840">
        <ele>18.3</ele>
        <time>2021-05-19T07:23:50Z</time>
      </trkpt>
      <trkpt lat="41.9825740" lon="-8.8855800">
        <ele>18.3</ele>
        <time>2021-05-19T07:23:51Z</time>
      </trkpt>
      <trkpt lat="41.9825820" lon="-8.8855750">
        <ele>18.4</ele>
        <time>2021-05-19T07:23:52Z</time>
      </trkpt>
      <trkpt lat="41.9825930" lon="-8.8855670">
        <ele>18.6</ele>
        <time>2021-05-19T07:23:53Z</time>
      </trkpt>
      <trkpt lat="41.9826040" lon="-8.8855670">
        <ele>18.7</ele>
        <time>2021-05-19T07:23:54Z</time>
      </trkpt>
      <trkpt lat="41.9826110" lon="-8.8855650">
        <ele>18.8</ele>
        <time>2021-05-19T07:23:55Z</time>
      </trkpt>
      <trkpt lat="41.9826260" lon="-8.8855630">
        <ele>18.9</ele>
        <time>2021-05-19T07:23:56Z</time>
      </trkpt>
      <trkpt lat="41.9826350" lon="-8.8855540">
        <ele>19.0</ele>
        <time>2021-05-19T07:23:57Z</time>
      </trkpt>
      <trkpt lat="41.9826430" lon="-8.8855520">
        <ele>19.1</ele>
        <time>2021-05-19T07:23:58Z</time>
      </trkpt>
      <trkpt lat="41.9826510" lon="-8.8855520">
        <ele>19.2</ele>
        <time>2021-05-19T07:23:59Z</time>
      </trkpt>
      <trkpt lat="41.9826700" lon="-8.8855520">
        <ele>19.4</ele>
        <time>2021-05-19T07:24:00Z</time>
      </trkpt>
      <trkpt lat="41.9826790" lon="-8.8855500">
        <ele>19.5</ele>
        <time>2021-05-19T07:24:01Z</time>
      </trkpt>
      <trkpt lat="41.9826880" lon="-8.8855480">
        <ele>19.6</ele>
        <time>2021-05-19T07:24:02Z</time>
      </trkpt>
      <trkpt lat="41.9827000" lon="-8.8855500">
        <ele>19.7</ele>
        <time>2021-05-19T07:24:03Z</time>
      </trkpt>
      <trkpt lat="41.9827080" lon="-8.8855580">
        <ele>19.8</ele>
        <time>2021-05-19T07:24:04Z</time>
      </trkpt>
      <trkpt lat="41.9827060" lon="-8.8855670">
        <ele>19.8</ele>
        <time>2021-05-19T07:24:05Z</time>
      </trkpt>
      <trkpt lat="41.9827190" lon="-8.8855700">
        <ele>20.0</ele>
        <time>2021-05-19T07:24:06Z</time>
      </trkpt>
      <trkpt lat="41.9827380" lon="-8.8855850">
        <ele>20.1</ele>
        <time>2021-05-19T07:24:07Z</time>
      </trkpt>
      <trkpt lat="41.9827550" lon="-8.8855930">
        <ele>20.2</ele>
        <time>2021-05-19T07:24:08Z</time>
      </trkpt>
      <trkpt lat="41.9827650" lon="-8.8855980">
        <ele>20.3</ele>
        <time>2021-05-19T07:24:09Z</time>
      </trkpt>
      <trkpt lat="41.9827770" lon="-8.8856050">
        <ele>20.3</ele>
        <time>2021-05-19T07:24:10Z</time>
      </trkpt>
      <trkpt lat="41.9827880" lon="-8.8856090">
        <ele>20.4</ele>
        <time>2021-05-19T07:24:11Z</time>
      </trkpt>
      <trkpt lat="41.9827980" lon="-8.8856170">
        <ele>20.4</ele>
        <time>2021-05-19T07:24:12Z</time>
      </trkpt>
      <trkpt lat="41.9828100" lon="-8.8856300">
        <ele>20.5</ele>
        <time>2021-05-19T07:24:13Z</time>
      </trkpt>
      <trkpt lat="41.9828230" lon="-8.8856400">
        <ele>20.6</ele>
        <time>2021-05-19T07:24:14Z</time>
      </trkpt>
      <trkpt lat="41.9828310" lon="-8.8856460">
        <ele>20.6</ele>
        <time>2021-05-19T07:24:15Z</time>
      </trkpt>
      <trkpt lat="41.9828540" lon="-8.8856620">
        <ele>20.7</ele>
        <time>2021-05-19T07:24:16Z</time>
      </trkpt>
      <trkpt lat="41.9828600" lon="-8.8856640">
        <ele>20.7</ele>
        <time>2021-05-19T07:24:17Z</time>
      </trkpt>
      <trkpt lat="41.9828780" lon="-8.8856660">
        <ele>20.7</ele>
        <time>2021-05-19T07:24:18Z</time>
      </trkpt>
      <trkpt lat="41.9828880" lon="-8.8856770">
        <ele>20.8</ele>
        <time>2021-05-19T07:24:19Z</time>
      </trkpt>
      <trkpt lat="41.9828940" lon="-8.8856750">
        <ele>20.8</ele>
        <time>2021-05-19T07:24:20Z</time>
      </trkpt>
      <trkpt lat="41.9829080" lon="-8.8856860">
        <ele>20.8</ele>
        <time>2021-05-19T07:24:21Z</time>
      </trkpt>
      <trkpt lat="41.9829170" lon="-8.8856980">
        <ele>20.9</ele>
        <time>2021-05-19T07:24:22Z</time>
      </trkpt>
      <trkpt lat="41.9829370" lon="-8.8857050">
        <ele>20.9</ele>
        <time>2021-05-19T07:24:23Z</time>
      </trkpt>
      <trkpt lat="41.9829450" lon="-8.8857050">
        <ele>20.9</ele>
        <time>2021-05-19T07:24:24Z</time>
      </trkpt>
      <trkpt lat="41.9829540" lon="-8.8857050">
        <ele>21.0</ele>
        <time>2021-05-19T07:24:25Z</time>
      </trkpt>
      <trkpt lat="41.9829700" lon="-8.8857050">
        <ele>21.0</ele>
        <time>2021-05-19T07:24:26Z</time>
      </trkpt>
      <trkpt lat="41.9829800" lon="-8.8856980">
        <ele>21.0</ele>
        <time>2021-05-19T07:24:27Z</time>
      </trkpt>
      <trkpt lat="41.9829910" lon="-8.8856920">
        <ele>21.1</ele>
        <time>2021-05-19T07:24:28Z</time>
      </trkpt>
      <trkpt lat="41.9830100" lon="-8.8856880">
        <ele>21.1</ele>
        <time>2021-05-19T07:24:29Z</time>
      </trkpt>
      <trkpt lat="41.9830240" lon="-8.8856840">
        <ele>21.2</ele>
        <time>2021-05-19T07:24:30Z</time>
      </trkpt>
      <trkpt lat="41.9830350" lon="-8.8856720">
        <ele>21.3</ele>
        <time>2021-05-19T07:24:31Z</time>
      </trkpt>
      <trkpt lat="41.9830450" lon="-8.8856670">
        <ele>21.3</ele>
        <time>2021-05-19T07:24:32Z</time>
      </trkpt>
      <trkpt lat="41.9830570" lon="-8.8856580">
        <ele>21.4</ele>
        <time>2021-05-19T07:24:33Z</time>
      </trkpt>
      <trkpt lat="41.9830630" lon="-8.8856520">
        <ele>21.4</ele>
        <time>2021-05-19T07:24:34Z</time>
      </trkpt>
      <trkpt lat="41.9830790" lon="-8.8856430">
        <ele>21.5</ele>
        <time>2021-05-19T07:24:35Z</time>
      </trkpt>
      <trkpt lat="41.9830890" lon="-8.8856310">
        <ele>21.5</ele>
        <time>2021-05-19T07:24:36Z</time>
      </trkpt>
      <trkpt lat="41.9831020" lon="-8.8856190">
        <ele>21.6</ele>
        <time>2021-05-19T07:24:37Z</time>
      </trkpt>
      <trkpt lat="41.9831160" lon="-8.8856080">
        <ele>21.7</ele>
        <time>2021-05-19T07:24:38Z</time>
      </trkpt>
      <trkpt lat="41.9831240" lon="-8.8856060">
        <ele>21.7</ele>
        <time>2021-05-19T07:24:39Z</time>
      </trkpt>
      <trkpt lat="41.9831440" lon="-8.8856010">
        <ele>21.9</ele>
        <time>2021-05-19T07:24:40Z</time>
      </trkpt>
      <trkpt lat="41.9831630" lon="-8.8855880">
        <ele>22.0</ele>
        <time>2021-05-19T07:24:41Z</time>
      </trkpt>
      <trkpt lat="41.9831720" lon="-8.8855840">
        <ele>22.1</ele>
        <time>2021-05-19T07:24:42Z</time>
      </trkpt>
      <trkpt lat="41.9831800" lon="-8.8855790">
        <ele>22.1</ele>
        <time>2021-05-19T07:24:43Z</time>
      </trkpt>
      <trkpt lat="41.9832010" lon="-8.8855720">
        <ele>22.3</ele>
        <time>2021-05-19T07:24:44Z</time>
      </trkpt>
      <trkpt lat="41.9832090" lon="-8.8855680">
        <ele>22.3</ele>
        <time>2021-05-19T07:24:45Z</time>
      </trkpt>
      <trkpt lat="41.9832170" lon="-8.8855630">
        <ele>22.4</ele>
        <time>2021-05-19T07:24:46Z</time>
      </trkpt>
      <trkpt lat="41.9832320" lon="-8.8855600">
        <ele>22.5</ele>
        <time>2021-05-19T07:24:47Z</time>
      </trkpt>
      <trkpt lat="41.9832450" lon="-8.8855580">
        <ele>22.6</ele>
        <time>2021-05-19T07:24:48Z</time>
      </trkpt>
      <trkpt lat="41.9832580" lon="-8.8855480">
        <ele>22.7</ele>
        <time>2021-05-19T07:24:49Z</time>
      </trkpt>
      <trkpt lat="41.9832590" lon="-8.8855410">
        <ele>22.7</ele>
        <time>2021-05-19T07:24:50Z</time>
      </trkpt>
      <trkpt lat="41.9832640" lon="-8.8855280">
        <ele>22.8</ele>
        <time>2021-05-19T07:24:51Z</time>
      </trkpt>
      <trkpt lat="41.9832720" lon="-8.8855200">
        <ele>22.9</ele>
        <time>2021-05-19T07:24:52Z</time>
      </trkpt>
      <trkpt lat="41.9832760" lon="-8.8855140">
        <ele>23.0</ele>
        <time>2021-05-19T07:24:53Z</time>
      </trkpt>
      <trkpt lat="41.9832850" lon="-8.8855130">
        <ele>23.0</ele>
        <time>2021-05-19T07:24:54Z</time>
      </trkpt>
      <trkpt lat="41.9832960" lon="-8.8855070">
        <ele>23.1</ele>
        <time>2021-05-19T07:24:55Z</time>
      </trkpt>
      <trkpt lat="41.9833160" lon="-8.8854980">
        <ele>23.3</ele>
        <time>2021-05-19T07:24:56Z</time>
      </trkpt>
      <trkpt lat="41.9833240" lon="-8.8854940">
        <ele>23.4</ele>
        <time>2021-05-19T07:24:57Z</time>
      </trkpt>
      <trkpt lat="41.9833320" lon="-8.8854900">
        <ele>23.4</ele>
        <time>2021-05-19T07:24:58Z</time>
      </trkpt>
      <trkpt lat="41.9833420" lon="-8.8854900">
        <ele>23.5</ele>
        <time>2021-05-19T07:24:59Z</time>
      </trkpt>
      <trkpt lat="41.9833540" lon="-8.8854850">
        <ele>23.6</ele>
        <time>2021-05-19T07:25:00Z</time>
      </trkpt>
      <trkpt lat="41.9833660" lon="-8.8854780">
        <ele>23.7</ele>
        <time>2021-05-19T07:25:01Z</time>
      </trkpt>
      <trkpt lat="41.9833880" lon="-8.8854750">
        <ele>23.9</ele>
        <time>2021-05-19T07:25:02Z</time>
      </trkpt>
      <trkpt lat="41.9833970" lon="-8.8854720">
        <ele>24.0</ele>
        <time>2021-05-19T07:25:03Z</time>
      </trkpt>
      <trkpt lat="41.9834050" lon="-8.8854700">
        <ele>24.0</ele>
        <time>2021-05-19T07:25:04Z</time>
      </trkpt>
      <trkpt lat="41.9834130" lon="-8.8854670">
        <ele>24.1</ele>
        <time>2021-05-19T07:25:05Z</time>
      </trkpt>
      <trkpt lat="41.9834210" lon="-8.8854630">
        <ele>24.2</ele>
        <time>2021-05-19T07:25:06Z</time>
      </trkpt>
      <trkpt lat="41.9834340" lon="-8.8854560">
        <ele>24.3</ele>
        <time>2021-05-19T07:25:07Z</time>
      </trkpt>
      <trkpt lat="41.9834460" lon="-8.8854500">
        <ele>24.4</ele>
        <time>2021-05-19T07:25:08Z</time>
      </trkpt>
      <trkpt lat="41.9834570" lon="-8.8854490">
        <ele>24.5</ele>
        <time>2021-05-19T07:25:09Z</time>
      </trkpt>
      <trkpt lat="41.9834690" lon="-8.8854460">
        <ele>24.6</ele>
        <time>2021-05-19T07:25:10Z</time>
      </trkpt>
      <trkpt lat="41.9834780" lon="-8.8854420">
        <ele>24.7</ele>
        <time>2021-05-19T07:25:11Z</time>
      </trkpt>
      <trkpt lat="41.9834940" lon="-8.8854210">
        <ele>24.9</ele>
        <time>2021-05-19T07:25:12Z</time>
      </trkpt>
      <trkpt lat="41.9835000" lon="-8.8854140">
        <ele>24.9</ele>
        <time>2021-05-19T07:25:13Z</time>
      </trkpt>
      <trkpt lat="41.9835070" lon="-8.8854060">
        <ele>25.0</ele>
        <time>2021-05-19T07:25:14Z</time>
      </trkpt>
      <trkpt lat="41.9835080" lon="-8.8854030">
        <ele>25.1</ele>
        <time>2021-05-19T07:25:15Z</time>
      </trkpt>
      <trkpt lat="41.9835120" lon="-8.8853950">
        <ele>25.1</ele>
        <time>2021-05-19T07:25:16Z</time>
      </trkpt>
      <trkpt lat="41.9835180" lon="-8.8853920">
        <ele>25.2</ele>
        <time>2021-05-19T07:25:17Z</time>
      </trkpt>
      <trkpt lat="41.9835270" lon="-8.8853870">
        <ele>25.3</ele>
        <time>2021-05-19T07:25:18Z</time>
      </trkpt>
      <trkpt lat="41.9835260" lon="-8.8853820">
        <ele>25.3</ele>
        <time>2021-05-19T07:25:19Z</time>
      </trkpt>
      <trkpt lat="41.9835330" lon="-8.8853790">
        <ele>25.4</ele>
        <time>2021-05-19T07:25:20Z</time>
      </trkpt>
      <trkpt lat="41.9835390" lon="-8.8853730">
        <ele>25.5</ele>
        <time>2021-05-19T07:25:21Z</time>
      </trkpt>
      <trkpt lat="41.9835450" lon="-8.8853680">
        <ele>25.6</ele>
        <time>2021-05-19T07:25:22Z</time>
      </trkpt>
      <trkpt lat="41.9835560" lon="-8.8853590">
        <ele>25.7</ele>
        <time>2021-05-19T07:25:23Z</time>
      </trkpt>
      <trkpt lat="41.9835630" lon="-8.8853540">
        <ele>25.8</ele>
        <time>2021-05-19T07:25:24Z</time>
      </trkpt>
      <trkpt lat="41.9835770" lon="-8.8853500">
        <ele>26.0</ele>
        <time>2021-05-19T07:25:25Z</time>
      </trkpt>
      <trkpt lat="41.9835900" lon="-8.8853440">
        <ele>26.1</ele>
        <time>2021-05-19T07:25:26Z</time>
      </trkpt>
      <trkpt lat="41.9836100" lon="-8.8853320">
        <ele>26.4</ele>
        <time>2021-05-19T07:25:27Z</time>
      </trkpt>
      <trkpt lat="41.9836180" lon="-8.8853260">
        <ele>26.5</ele>
        <time>2021-05-19T07:25:28Z</time>
      </trkpt>
      <trkpt lat="41.9836250" lon="-8.8853190">
        <ele>26.6</ele>
        <time>2021-05-19T07:25:29Z</time>
      </trkpt>
      <trkpt lat="41.9836350" lon="-8.8853010">
        <ele>26.8</ele>
        <time>2021-05-19T07:25:30Z</time>
      </trkpt>
      <trkpt lat="41.9836400" lon="-8.8852930">
        <ele>26.9</ele>
        <time>2021-05-19T07:25:31Z</time>
      </trkpt>
      <trkpt lat="41.9836440" lon="-8.8852860">
        <ele>26.9</ele>
        <time>2021-05-19T07:25:32Z</time>
      </trkpt>
      <trkpt lat="41.9836480" lon="-8.8852780">
        <ele>27.0</ele>
        <time>2021-05-19T07:25:33Z</time>
      </trkpt>
      <trkpt lat="41.9836610" lon="-8.8852670">
        <ele>27.2</ele>
        <time>2021-05-19T07:25:34Z</time>
      </trkpt>
      <trkpt lat="41.9836660" lon="-8.8852650">
        <ele>27.3</ele>
        <time>2021-05-19T07:25:35Z</time>
      </trkpt>
      <trkpt lat="41.9836720" lon="-8.8852620">
        <ele>27.3</ele>
        <time>2021-05-19T07:25:36Z</time>
      </trkpt>
      <trkpt lat="41.9836770" lon="-8.8852600">
        <ele>27.4</ele>
        <time>2021-05-19T07:25:37Z</time>
      </trkpt>
      <trkpt lat="41.9836830" lon="-8.8852570">
        <ele>27.5</ele>
        <time>2021-05-19T07:25:38Z</time>
      </trkpt>
      <trkpt lat="41.9836980" lon="-8.8852630">
        <ele>27.6</ele>
        <time>2021-05-19T07:25:39Z</time>
      </trkpt>
      <trkpt lat="41.9837110" lon="-8.8852570">
        <ele>27.8</ele>
        <time>2021-05-19T07:25:40Z</time>
      </trkpt>
      <trkpt lat="41.9837270" lon="-8.8852580">
        <ele>27.9</ele>
        <time>2021-05-19T07:25:41Z</time>
      </trkpt>
      <trkpt lat="41.9837440" lon="-8.8852480">
        <ele>28.1</ele>
        <time>2021-05-19T07:25:42Z</time>
      </trkpt>
      <trkpt lat="41.9837500" lon="-8.8852530">
        <ele>28.2</ele>
        <time>2021-05-19T07:25:43Z</time>
      </trkpt>
      <trkpt lat="41.9837570" lon="-8.8852480">
        <ele>28.2</ele>
        <time>2021-05-19T07:25:44Z</time>
      </trkpt>
      <trkpt lat="41.9837600" lon="-8.8852490">
        <ele>28.3</ele>
        <time>2021-05-19T07:25:45Z</time>
      </trkpt>
      <trkpt lat="41.9837570" lon="-8.8852490">
        <ele>28.3</ele>
        <time>2021-05-19T07:25:46Z</time>
      </trkpt>
      <trkpt lat="41.9837570" lon="-8.8852500">
        <ele>28.3</ele>
        <time>2021-05-19T07:25:47Z</time>
      </trkpt>
      <trkpt lat="41.9837570" lon="-8.8852480">
        <ele>28.3</ele>
        <time>2021-05-19T07:25:48Z</time>
      </trkpt>
      <trkpt lat="41.9837540" lon="-8.8852500">
        <ele>28.3</ele>
        <time>2021-05-19T07:25:49Z</time>
      </trkpt>
      <trkpt lat="41.9837510" lon="-8.8852530">
        <ele>28.4</ele>
        <time>2021-05-19T07:25:50Z</time>
      </trkpt>
      <trkpt lat="41.9837540" lon="-8.8852530">
        <ele>28.4</ele>
        <time>2021-05-19T07:25:51Z</time>
      </trkpt>
      <trkpt lat="41.9837670" lon="-8.8852590">
        <ele>28.5</ele>
        <time>2021-05-19T07:25:52Z</time>
      </trkpt>
      <trkpt lat="41.9837750" lon="-8.8852460">
        <ele>28.6</ele>
        <time>2021-05-19T07:25:53Z</time>
      </trkpt>
      <trkpt lat="41.9837890" lon="-8.8852430">
        <ele>28.7</ele>
        <time>2021-05-19T07:25:54Z</time>
      </trkpt>
      <trkpt lat="41.9837990" lon="-8.8852400">
        <ele>28.7</ele>
        <time>2021-05-19T07:25:55Z</time>
      </trkpt>
      <trkpt lat="41.9838080" lon="-8.8852340">
        <ele>28.8</ele>
        <time>2021-05-19T07:25:56Z</time>
      </trkpt>
      <trkpt lat="41.9838330" lon="-8.8852240">
        <ele>28.9</ele>
        <time>2021-05-19T07:25:57Z</time>
      </trkpt>
      <trkpt lat="41.9838400" lon="-8.8852220">
        <ele>28.9</ele>
        <time>2021-05-19T07:25:58Z</time>
      </trkpt>
      <trkpt lat="41.9838480" lon="-8.8852200">
        <ele>29.0</ele>
        <time>2021-05-19T07:25:59Z</time>
      </trkpt>
      <trkpt lat="41.9838650" lon="-8.8852210">
        <ele>29.0</ele>
        <time>2021-05-19T07:26:00Z</time>
      </trkpt>
      <trkpt lat="41.9838780" lon="-8.8852230">
        <ele>29.1</ele>
        <time>2021-05-19T07:26:01Z</time>
      </trkpt>
      <trkpt lat="41.9838880" lon="-8.8852200">
        <ele>29.1</ele>
        <time>2021-05-19T07:26:02Z</time>
      </trkpt>
      <trkpt lat="41.9838990" lon="-8.8852190">
        <ele>29.2</ele>
        <time>2021-05-19T07:26:03Z</time>
      </trkpt>
      <trkpt lat="41.9839090" lon="-8.8852140">
        <ele>29.2</ele>
        <time>2021-05-19T07:26:04Z</time>
      </trkpt>
      <trkpt lat="41.9839250" lon="-8.8852130">
        <ele>29.2</ele>
        <time>2021-05-19T07:26:05Z</time>
      </trkpt>
      <trkpt lat="41.9839400" lon="-8.8852080">
        <ele>29.3</ele>
        <time>2021-05-19T07:26:06Z</time>
      </trkpt>
      <trkpt lat="41.9839560" lon="-8.8852060">
        <ele>29.3</ele>
        <time>2021-05-19T07:26:07Z</time>
      </trkpt>
      <trkpt lat="41.9839590" lon="-8.8852020">
        <ele>29.3</ele>
        <time>2021-05-19T07:26:08Z</time>
      </trkpt>
      <trkpt lat="41.9839710" lon="-8.8852040">
        <ele>29.4</ele>
        <time>2021-05-19T07:26:09Z</time>
      </trkpt>
      <trkpt lat="41.9839830" lon="-8.8852010">
        <ele>29.4</ele>
        <time>2021-05-19T07:26:10Z</time>
      </trkpt>
      <trkpt lat="41.9840000" lon="-8.8851960">
        <ele>29.5</ele>
        <time>2021-05-19T07:26:11Z</time>
      </trkpt>
      <trkpt lat="41.9840100" lon="-8.8851950">
        <ele>29.5</ele>
        <time>2021-05-19T07:26:12Z</time>
      </trkpt>
      <trkpt lat="41.9840170" lon="-8.8851910">
        <ele>29.5</ele>
        <time>2021-05-19T07:26:13Z</time>
      </trkpt>
      <trkpt lat="41.9840320" lon="-8.8851850">
        <ele>29.5</ele>
        <time>2021-05-19T07:26:14Z</time>
      </trkpt>
      <trkpt lat="41.9840560" lon="-8.8851780">
        <ele>29.6</ele>
        <time>2021-05-19T07:26:15Z</time>
      </trkpt>
      <trkpt lat="41.9840620" lon="-8.8851750">
        <ele>29.6</ele>
        <time>2021-05-19T07:26:16Z</time>
      </trkpt>
      <trkpt lat="41.9840690" lon="-8.8851710">
        <ele>29.7</ele>
        <time>2021-05-19T07:26:17Z</time>
      </trkpt>
      <trkpt lat="41.9840830" lon="-8.8851670">
        <ele>29.7</ele>
        <time>2021-05-19T07:26:18Z</time>
      </trkpt>
      <trkpt lat="41.9840940" lon="-8.8851610">
        <ele>29.8</ele>
        <time>2021-05-19T07:26:19Z</time>
      </trkpt>
      <trkpt lat="41.9841020" lon="-8.8851570">
        <ele>29.8</ele>
        <time>2021-05-19T07:26:20Z</time>
      </trkpt>
      <trkpt lat="41.9841230" lon="-8.8851430">
        <ele>29.9</ele>
        <time>2021-05-19T07:26:21Z</time>
      </trkpt>
      <trkpt lat="41.9841290" lon="-8.8851370">
        <ele>30.0</ele>
        <time>2021-05-19T07:26:22Z</time>
      </trkpt>
      <trkpt lat="41.9841350" lon="-8.8851320">
        <ele>30.0</ele>
        <time>2021-05-19T07:26:23Z</time>
      </trkpt>
      <trkpt lat="41.9841510" lon="-8.8851140">
        <ele>30.1</ele>
        <time>2021-05-19T07:26:24Z</time>
      </trkpt>
      <trkpt lat="41.9841560" lon="-8.8851070">
        <ele>30.2</ele>
        <time>2021-05-19T07:26:25Z</time>
      </trkpt>
      <trkpt lat="41.9841610" lon="-8.8850990">
        <ele>30.2</ele>
        <time>2021-05-19T07:26:26Z</time>
      </trkpt>
      <trkpt lat="41.9841680" lon="-8.8850900">
        <ele>30.3</ele>
        <time>2021-05-19T07:26:27Z</time>
      </trkpt>
      <trkpt lat="41.9841780" lon="-8.8850820">
        <ele>30.3</ele>
        <time>2021-05-19T07:26:28Z</time>
      </trkpt>
      <trkpt lat="41.9841930" lon="-8.8850840">
        <ele>30.4</ele>
        <time>2021-05-19T07:26:29Z</time>
      </trkpt>
      <trkpt lat="41.9842050" lon="-8.8850800">
        <ele>30.5</ele>
        <time>2021-05-19T07:26:30Z</time>
      </trkpt>
      <trkpt lat="41.9842180" lon="-8.8850760">
        <ele>30.6</ele>
        <time>2021-05-19T07:26:31Z</time>
      </trkpt>
      <trkpt lat="41.9842220" lon="-8.8850720">
        <ele>30.7</ele>
        <time>2021-05-19T07:26:32Z</time>
      </trkpt>
      <trkpt lat="41.9842310" lon="-8.8850660">
        <ele>30.7</ele>
        <time>2021-05-19T07:26:33Z</time>
      </trkpt>
      <trkpt lat="41.9842370" lon="-8.8850540">
        <ele>30.8</ele>
        <time>2021-05-19T07:26:34Z</time>
      </trkpt>
      <trkpt lat="41.9842450" lon="-8.8850400">
        <ele>30.9</ele>
        <time>2021-05-19T07:26:35Z</time>
      </trkpt>
      <trkpt lat="41.9842500" lon="-8.8850310">
        <ele>30.9</ele>
        <time>2021-05-19T07:26:36Z</time>
      </trkpt>
      <trkpt lat="41.9842530" lon="-8.8850250">
        <ele>31.0</ele>
        <time>2021-05-19T07:26:37Z</time>
      </trkpt>
      <trkpt lat="41.9842630" lon="-8.8850170">
        <ele>31.1</ele>
        <time>2021-05-19T07:26:38Z</time>
      </trkpt>
      <trkpt lat="41.9842680" lon="-8.8850080">
        <ele>31.1</ele>
        <time>2021-05-19T07:26:39Z</time>
      </trkpt>
      <trkpt lat="41.9842800" lon="-8.8850000">
        <ele>31.2</ele>
        <time>2021-05-19T07:26:40Z</time>
      </trkpt>
      <trkpt lat="41.9842880" lon="-8.8849960">
        <ele>31.3</ele>
        <time>2021-05-19T07:26:41Z</time>
      </trkpt>
      <trkpt lat="41.9842970" lon="-8.8849950">
        <ele>31.3</ele>
        <time>2021-05-19T07:26:42Z</time>
      </trkpt>
      <trkpt lat="41.9843170" lon="-8.8849820">
        <ele>31.5</ele>
        <time>2021-05-19T07:26:43Z</time>
      </trkpt>
      <trkpt lat="41.9843250" lon="-8.8849750">
        <ele>31.5</ele>
        <time>2021-05-19T07:26:44Z</time>
      </trkpt>
      <trkpt lat="41.9843330" lon="-8.8849690">
        <ele>31.6</ele>
        <time>2021-05-19T07:26:45Z</time>
      </trkpt>
      <trkpt lat="41.9843470" lon="-8.8849540">
        <ele>31.7</ele>
        <time>2021-05-19T07:26:46Z</time>
      </trkpt>
      <trkpt lat="41.9843570" lon="-8.8849470">
        <ele>31.7</ele>
        <time>2021-05-19T07:26:47Z</time>
      </trkpt>
      <trkpt lat="41.9843660" lon="-8.8849400">
        <ele>31.8</ele>
        <time>2021-05-19T07:26:48Z</time>
      </trkpt>
      <trkpt lat="41.9843770" lon="-8.8849260">
        <ele>31.9</ele>
        <time>2021-05-19T07:26:49Z</time>
      </trkpt>
      <trkpt lat="41.9843820" lon="-8.8849200">
        <ele>31.9</ele>
        <time>2021-05-19T07:26:50Z</time>
      </trkpt>
      <trkpt lat="41.9843810" lon="-8.8849140">
        <ele>32.0</ele>
        <time>2021-05-19T07:26:51Z</time>
      </trkpt>
      <trkpt lat="41.9843860" lon="-8.8849060">
        <ele>32.0</ele>
        <time>2021-05-19T07:26:52Z</time>
      </trkpt>
      <trkpt lat="41.9843950" lon="-8.8849010">
        <ele>32.1</ele>
        <time>2021-05-19T07:26:53Z</time>
      </trkpt>
      <trkpt lat="41.9844120" lon="-8.8848950">
        <ele>32.1</ele>
        <time>2021-05-19T07:26:54Z</time>
      </trkpt>
      <trkpt lat="41.9844330" lon="-8.8848920">
        <ele>32.2</ele>
        <time>2021-05-19T07:26:55Z</time>
      </trkpt>
      <trkpt lat="41.9844440" lon="-8.8848850">
        <ele>32.3</ele>
        <time>2021-05-19T07:26:56Z</time>
      </trkpt>
      <trkpt lat="41.9844620" lon="-8.8848710">
        <ele>32.4</ele>
        <time>2021-05-19T07:26:57Z</time>
      </trkpt>
      <trkpt lat="41.9844690" lon="-8.8848670">
        <ele>32.4</ele>
        <time>2021-05-19T07:26:58Z</time>
      </trkpt>
      <trkpt lat="41.9844770" lon="-8.8848640">
        <ele>32.5</ele>
        <time>2021-05-19T07:26:59Z</time>
      </trkpt>
      <trkpt lat="41.9844890" lon="-8.8848560">
        <ele>32.5</ele>
        <time>2021-05-19T07:27:00Z</time>
      </trkpt>
      <trkpt lat="41.9845060" lon="-8.8848480">
        <ele>32.6</ele>
        <time>2021-05-19T07:27:01Z</time>
      </trkpt>
      <trkpt lat="41.9845150" lon="-8.8848420">
        <ele>32.6</ele>
        <time>2021-05-19T07:27:02Z</time>
      </trkpt>
      <trkpt lat="41.9845220" lon="-8.8848370">
        <ele>32.6</ele>
        <time>2021-05-19T07:27:03Z</time>
      </trkpt>
      <trkpt lat="41.9845360" lon="-8.8848340">
        <ele>32.7</ele>
        <time>2021-05-19T07:27:04Z</time>
      </trkpt>
      <trkpt lat="41.9845550" lon="-8.8848250">
        <ele>32.8</ele>
        <time>2021-05-19T07:27:05Z</time>
      </trkpt>
      <trkpt lat="41.9845660" lon="-8.8848220">
        <ele>32.8</ele>
        <time>2021-05-19T07:27:06Z</time>
      </trkpt>
      <trkpt lat="41.9845760" lon="-8.8848180">
        <ele>32.8</ele>
        <time>2021-05-19T07:27:07Z</time>
      </trkpt>
      <trkpt lat="41.9845930" lon="-8.8848200">
        <ele>32.9</ele>
        <time>2021-05-19T07:27:08Z</time>
      </trkpt>
      <trkpt lat="41.9846040" lon="-8.8848200">
        <ele>32.9</ele>
        <time>2021-05-19T07:27:09Z</time>
      </trkpt>
      <trkpt lat="41.9846170" lon="-8.8848190">
        <ele>33.0</ele>
        <time>2021-05-19T07:27:10Z</time>
      </trkpt>
      <trkpt lat="41.9846360" lon="-8.8848160">
        <ele>33.0</ele>
        <time>2021-05-19T07:27:11Z</time>
      </trkpt>
      <trkpt lat="41.9846560" lon="-8.8848110">
        <ele>33.1</ele>
        <time>2021-05-19T07:27:12Z</time>
      </trkpt>
      <trkpt lat="41.9846680" lon="-8.8847980">
        <ele>33.1</ele>
        <time>2021-05-19T07:27:13Z</time>
      </trkpt>
      <trkpt lat="41.9846840" lon="-8.8847900">
        <ele>33.2</ele>
        <time>2021-05-19T07:27:14Z</time>
      </trkpt>
      <trkpt lat="41.9847010" lon="-8.8847840">
        <ele>33.3</ele>
        <time>2021-05-19T07:27:15Z</time>
      </trkpt>
      <trkpt lat="41.9847200" lon="-8.8847770">
        <ele>33.3</ele>
        <time>2021-05-19T07:27:16Z</time>
      </trkpt>
      <trkpt lat="41.9847280" lon="-8.8847710">
        <ele>33.4</ele>
        <time>2021-05-19T07:27:17Z</time>
      </trkpt>
      <trkpt lat="41.9847370" lon="-8.8847650">
        <ele>33.4</ele>
        <time>2021-05-19T07:27:18Z</time>
      </trkpt>
      <trkpt lat="41.9847520" lon="-8.8847590">
        <ele>33.5</ele>
        <time>2021-05-19T07:27:19Z</time>
      </trkpt>
      <trkpt lat="41.9847640" lon="-8.8847490">
        <ele>33.6</ele>
        <time>2021-05-19T07:27:20Z</time>
      </trkpt>
      <trkpt lat="41.9847770" lon="-8.8847430">
        <ele>33.6</ele>
        <time>2021-05-19T07:27:21Z</time>
      </trkpt>
      <trkpt lat="41.9847920" lon="-8.8847420">
        <ele>33.7</ele>
        <time>2021-05-19T07:27:22Z</time>
      </trkpt>
      <trkpt lat="41.9848060" lon="-8.8847370">
        <ele>33.8</ele>
        <time>2021-05-19T07:27:23Z</time>
      </trkpt>
      <trkpt lat="41.9848170" lon="-8.8847310">
        <ele>33.8</ele>
        <time>2021-05-19T07:27:24Z</time>
      </trkpt>
      <trkpt lat="41.9848270" lon="-8.8847260">
        <ele>33.9</ele>
        <time>2021-05-19T07:27:25Z</time>
      </trkpt>
      <trkpt lat="41.9848370" lon="-8.8847150">
        <ele>34.0</ele>
        <time>2021-05-19T07:27:26Z</time>
      </trkpt>
      <trkpt lat="41.9848450" lon="-8.8847090">
        <ele>34.0</ele>
        <time>2021-05-19T07:27:27Z</time>
      </trkpt>
      <trkpt lat="41.9848560" lon="-8.8847020">
        <ele>34.1</ele>
        <time>2021-05-19T07:27:28Z</time>
      </trkpt>
      <trkpt lat="41.9848630" lon="-8.8846910">
        <ele>34.2</ele>
        <time>2021-05-19T07:27:29Z</time>
      </trkpt>
      <trkpt lat="41.9848780" lon="-8.8846790">
        <ele>34.3</ele>
        <time>2021-05-19T07:27:30Z</time>
      </trkpt>
      <trkpt lat="41.9848910" lon="-8.8846650">
        <ele>34.4</ele>
        <time>2021-05-19T07:27:31Z</time>
      </trkpt>
      <trkpt lat="41.9848970" lon="-8.8846610">
        <ele>34.5</ele>
        <time>2021-05-19T07:27:32Z</time>
      </trkpt>
      <trkpt lat="41.9849030" lon="-8.8846570">
        <ele>34.5</ele>
        <time>2021-05-19T07:27:33Z</time>
      </trkpt>
      <trkpt lat="41.9849090" lon="-8.8846530">
        <ele>34.6</ele>
        <time>2021-05-19T07:27:34Z</time>
      </trkpt>
      <trkpt lat="41.9849300" lon="-8.8846400">
        <ele>34.8</ele>
        <time>2021-05-19T07:27:35Z</time>
      </trkpt>
      <trkpt lat="41.9849370" lon="-8.8846370">
        <ele>34.8</ele>
        <time>2021-05-19T07:27:36Z</time>
      </trkpt>
      <trkpt lat="41.9849450" lon="-8.8846350">
        <ele>34.9</ele>
        <time>2021-05-19T07:27:37Z</time>
      </trkpt>
      <trkpt lat="41.9849560" lon="-8.8846270">
        <ele>35.0</ele>
        <time>2021-05-19T07:27:38Z</time>
      </trkpt>
      <trkpt lat="41.9849650" lon="-8.8846290">
        <ele>35.1</ele>
        <time>2021-05-19T07:27:39Z</time>
      </trkpt>
      <trkpt lat="41.9849780" lon="-8.8846140">
        <ele>35.2</ele>
        <time>2021-05-19T07:27:40Z</time>
      </trkpt>
      <trkpt lat="41.9849840" lon="-8.8846070">
        <ele>35.3</ele>
        <time>2021-05-19T07:27:41Z</time>
      </trkpt>
      <trkpt lat="41.9849830" lon="-8.8846070">
        <ele>35.3</ele>
        <time>2021-05-19T07:27:42Z</time>
      </trkpt>
      <trkpt lat="41.9849850" lon="-8.8846080">
        <ele>35.3</ele>
        <time>2021-05-19T07:27:43Z</time>
      </trkpt>
      <trkpt lat="41.9849970" lon="-8.8846040">
        <ele>35.4</ele>
        <time>2021-05-19T07:27:44Z</time>
      </trkpt>
      <trkpt lat="41.9850060" lon="-8.8845970">
        <ele>35.5</ele>
        <time>2021-05-19T07:27:45Z</time>
      </trkpt>
      <trkpt lat="41.9850090" lon="-8.8845880">
        <ele>35.6</ele>
        <time>2021-05-19T07:27:46Z</time>
      </trkpt>
      <trkpt lat="41.9850190" lon="-8.8845840">
        <ele>35.7</ele>
        <time>2021-05-19T07:27:47Z</time>
      </trkpt>
      <trkpt lat="41.9850330" lon="-8.8845780">
        <ele>35.8</ele>
        <time>2021-05-19T07:27:48Z</time>
      </trkpt>
      <trkpt lat="41.9850360" lon="-8.8845740">
        <ele>35.8</ele>
        <time>2021-05-19T07:27:49Z</time>
      </trkpt>
      <trkpt lat="41.9850410" lon="-8.8845720">
        <ele>35.9</ele>
        <time>2021-05-19T07:27:50Z</time>
      </trkpt>
      <trkpt lat="41.9850510" lon="-8.8845630">
        <ele>36.0</ele>
        <time>2021-05-19T07:27:51Z</time>
      </trkpt>
      <trkpt lat="41.9850590" lon="-8.8845600">
        <ele>36.1</ele>
        <time>2021-05-19T07:27:52Z</time>
      </trkpt>
      <trkpt lat="41.9850800" lon="-8.8845560">
        <ele>36.3</ele>
        <time>2021-05-19T07:27:53Z</time>
      </trkpt>
      <trkpt lat="41.9850880" lon="-8.8845530">
        <ele>36.3</ele>
        <time>2021-05-19T07:27:54Z</time>
      </trkpt>
      <trkpt lat="41.9850960" lon="-8.8845510">
        <ele>36.4</ele>
        <time>2021-05-19T07:27:55Z</time>
      </trkpt>
      <trkpt lat="41.9851030" lon="-8.8845400">
        <ele>36.5</ele>
        <time>2021-05-19T07:27:56Z</time>
      </trkpt>
      <trkpt lat="41.9851080" lon="-8.8845300">
        <ele>36.6</ele>
        <time>2021-05-19T07:27:57Z</time>
      </trkpt>
      <trkpt lat="41.9851120" lon="-8.8845250">
        <ele>36.6</ele>
        <time>2021-05-19T07:27:58Z</time>
      </trkpt>
      <trkpt lat="41.9851220" lon="-8.8845210">
        <ele>36.7</ele>
        <time>2021-05-19T07:27:59Z</time>
      </trkpt>
      <trkpt lat="41.9851370" lon="-8.8845040">
        <ele>36.9</ele>
        <time>2021-05-19T07:28:00Z</time>
      </trkpt>
      <trkpt lat="41.9851430" lon="-8.8845010">
        <ele>36.9</ele>
        <time>2021-05-19T07:28:01Z</time>
      </trkpt>
      <trkpt lat="41.9851480" lon="-8.8844990">
        <ele>37.0</ele>
        <time>2021-05-19T07:28:02Z</time>
      </trkpt>
      <trkpt lat="41.9851540" lon="-8.8844960">
        <ele>37.0</ele>
        <time>2021-05-19T07:28:03Z</time>
      </trkpt>
      <trkpt lat="41.9851630" lon="-8.8844930">
        <ele>37.1</ele>
        <time>2021-05-19T07:28:04Z</time>
      </trkpt>
      <trkpt lat="41.9851770" lon="-8.8844910">
        <ele>37.2</ele>
        <time>2021-05-19T07:28:05Z</time>
      </trkpt>
      <trkpt lat="41.9851880" lon="-8.8844890">
        <ele>37.2</ele>
        <time>2021-05-19T07:28:06Z</time>
      </trkpt>
      <trkpt lat="41.9852000" lon="-8.8844830">
        <ele>37.3</ele>
        <time>2021-05-19T07:28:07Z</time>
      </trkpt>
      <trkpt lat="41.9852160" lon="-8.8844880">
        <ele>37.4</ele>
        <time>2021-05-19T07:28:08Z</time>
      </trkpt>
      <trkpt lat="41.9852370" lon="-8.8844800">
        <ele>37.6</ele>
        <time>2021-05-19T07:28:09Z</time>
      </trkpt>
      <trkpt lat="41.9852460" lon="-8.8844740">
        <ele>37.6</ele>
        <time>2021-05-19T07:28:10Z</time>
      </trkpt>
      <trkpt lat="41.9852540" lon="-8.8844690">
        <ele>37.7</ele>
        <time>2021-05-19T07:28:11Z</time>
      </trkpt>
      <trkpt lat="41.9852650" lon="-8.8844590">
        <ele>37.7</ele>
        <time>2021-05-19T07:28:12Z</time>
      </trkpt>
      <trkpt lat="41.9852670" lon="-8.8844490">
        <ele>37.8</ele>
        <time>2021-05-19T07:28:13Z</time>
      </trkpt>
      <trkpt lat="41.9852700" lon="-8.8844410">
        <ele>37.8</ele>
        <time>2021-05-19T07:28:14Z</time>
      </trkpt>
      <trkpt lat="41.9852740" lon="-8.8844300">
        <ele>37.9</ele>
        <time>2021-05-19T07:28:15Z</time>
      </trkpt>
      <trkpt lat="41.9852800" lon="-8.8844160">
        <ele>37.9</ele>
        <time>2021-05-19T07:28:16Z</time>
      </trkpt>
      <trkpt lat="41.9852860" lon="-8.8844100">
        <ele>38.0</ele>
        <time>2021-05-19T07:28:17Z</time>
      </trkpt>
      <trkpt lat="41.9852910" lon="-8.8844050">
        <ele>38.0</ele>
        <time>2021-05-19T07:28:18Z</time>
      </trkpt>
      <trkpt lat="41.9852970" lon="-8.8843990">
        <ele>38.0</ele>
        <time>2021-05-19T07:28:19Z</time>
      </trkpt>
      <trkpt lat="41.9853030" lon="-8.8843940">
        <ele>38.1</ele>
        <time>2021-05-19T07:28:20Z</time>
      </trkpt>
      <trkpt lat="41.9853190" lon="-8.8843910">
        <ele>38.1</ele>
        <time>2021-05-19T07:28:21Z</time>
      </trkpt>
      <trkpt lat="41.9853290" lon="-8.8843890">
        <ele>38.2</ele>
        <time>2021-05-19T07:28:22Z</time>
      </trkpt>
      <trkpt lat="41.9853370" lon="-8.8843880">
        <ele>38.2</ele>
        <time>2021-05-19T07:28:23Z</time>
      </trkpt>
      <trkpt lat="41.9853440" lon="-8.8843870">
        <ele>38.2</ele>
        <time>2021-05-19T07:28:24Z</time>
      </trkpt>
      <trkpt lat="41.9853580" lon="-8.8843850">
        <ele>38.3</ele>
        <time>2021-05-19T07:28:25Z</time>
      </trkpt>
      <trkpt lat="41.9853710" lon="-8.8843860">
        <ele>38.3</ele>
        <time>2021-05-19T07:28:26Z</time>
      </trkpt>
      <trkpt lat="41.9853850" lon="-8.8843890">
        <ele>38.3</ele>
        <time>2021-05-19T07:28:27Z</time>
      </trkpt>
      <trkpt lat="41.9853950" lon="-8.8843950">
        <ele>38.3</ele>
        <time>2021-05-19T07:28:28Z</time>
      </trkpt>
      <trkpt lat="41.9854060" lon="-8.8843980">
        <ele>38.4</ele>
        <time>2021-05-19T07:28:29Z</time>
      </trkpt>
      <trkpt lat="41.9854230" lon="-8.8844000">
        <ele>38.4</ele>
        <time>2021-05-19T07:28:30Z</time>
      </trkpt>
      <trkpt lat="41.9854370" lon="-8.8844040">
        <ele>38.4</ele>
        <time>2021-05-19T07:28:31Z</time>
      </trkpt>
      <trkpt lat="41.9854440" lon="-8.8844140">
        <ele>38.4</ele>
        <time>2021-05-19T07:28:32Z</time>
      </trkpt>
      <trkpt lat="41.9854520" lon="-8.8844270">
        <ele>38.4</ele>
        <time>2021-05-19T07:28:33Z</time>
      </trkpt>
      <trkpt lat="41.9854650" lon="-8.8844360">
        <ele>38.3</ele>
        <time>2021-05-19T07:28:34Z</time>
      </trkpt>
      <trkpt lat="41.9854750" lon="-8.8844500">
        <ele>38.3</ele>
        <time>2021-05-19T07:28:35Z</time>
      </trkpt>
      <trkpt lat="41.9854840" lon="-8.8844640">
        <ele>38.3</ele>
        <time>2021-05-19T07:28:36Z</time>
      </trkpt>
      <trkpt lat="41.9854950" lon="-8.8844690">
        <ele>38.3</ele>
        <time>2021-05-19T07:28:37Z</time>
      </trkpt>
      <trkpt lat="41.9855090" lon="-8.8844860">
        <ele>38.2</ele>
        <time>2021-05-19T07:28:38Z</time>
      </trkpt>
      <trkpt lat="41.9855160" lon="-8.8844980">
        <ele>38.2</ele>
        <time>2021-05-19T07:28:39Z</time>
      </trkpt>
      <trkpt lat="41.9855200" lon="-8.8844990">
        <ele>38.2</ele>
        <time>2021-05-19T07:28:40Z</time>
      </trkpt>
      <trkpt lat="41.9855310" lon="-8.8845090">
        <ele>38.2</ele>
        <time>2021-05-19T07:28:41Z</time>
      </trkpt>
      <trkpt lat="41.9855380" lon="-8.8845160">
        <ele>38.1</ele>
        <time>2021-05-19T07:28:42Z</time>
      </trkpt>
      <trkpt lat="41.9855510" lon="-8.8845290">
        <ele>38.1</ele>
        <time>2021-05-19T07:28:43Z</time>
      </trkpt>
      <trkpt lat="41.9855560" lon="-8.8845410">
        <ele>38.0</ele>
        <time>2021-05-19T07:28:44Z</time>
      </trkpt>
      <trkpt lat="41.9855720" lon="-8.8845500">
        <ele>38.0</ele>
        <time>2021-05-19T07:28:45Z</time>
      </trkpt>
      <trkpt lat="41.9855850" lon="-8.8845640">
        <ele>37.9</ele>
        <time>2021-05-19T07:28:46Z</time>
      </trkpt>
      <trkpt lat="41.9855990" lon="-8.8845730">
        <ele>37.9</ele>
        <time>2021-05-19T07:28:47Z</time>
      </trkpt>
      <trkpt lat="41.9856090" lon="-8.8845790">
        <ele>37.8</ele>
        <time>2021-05-19T07:28:48Z</time>
      </trkpt>
      <trkpt lat="41.9856170" lon="-8.8845840">
        <ele>37.8</ele>
        <time>2021-05-19T07:28:49Z</time>
      </trkpt>
      <trkpt lat="41.9856240" lon="-8.8845950">
        <ele>37.8</ele>
        <time>2021-05-19T07:28:50Z</time>
      </trkpt>
      <trkpt lat="41.9856400" lon="-8.8846050">
        <ele>37.7</ele>
        <time>2021-05-19T07:28:51Z</time>
      </trkpt>
      <trkpt lat="41.9856540" lon="-8.8846060">
        <ele>37.6</ele>
        <time>2021-05-19T07:28:52Z</time>
      </trkpt>
      <trkpt lat="41.9856680" lon="-8.8846140">
        <ele>37.6</ele>
        <time>2021-05-19T07:28:53Z</time>
      </trkpt>
      <trkpt lat="41.9856790" lon="-8.8846190">
        <ele>37.5</ele>
        <time>2021-05-19T07:28:54Z</time>
      </trkpt>
      <trkpt lat="41.9856960" lon="-8.8846230">
        <ele>37.5</ele>
        <time>2021-05-19T07:28:55Z</time>
      </trkpt>
      <trkpt lat="41.9856950" lon="-8.8846100">
        <ele>37.4</ele>
        <time>2021-05-19T07:28:56Z</time>
      </trkpt>
      <trkpt lat="41.9857040" lon="-8.8846050">
        <ele>37.4</ele>
        <time>2021-05-19T07:28:57Z</time>
      </trkpt>
      <trkpt lat="41.9857140" lon="-8.8846090">
        <ele>37.4</ele>
        <time>2021-05-19T07:28:58Z</time>
      </trkpt>
      <trkpt lat="41.9857230" lon="-8.8846140">
        <ele>37.3</ele>
        <time>2021-05-19T07:28:59Z</time>
      </trkpt>
      <trkpt lat="41.9857290" lon="-8.8846220">
        <ele>37.3</ele>
        <time>2021-05-19T07:29:00Z</time>
      </trkpt>
      <trkpt lat="41.9857420" lon="-8.8846280">
        <ele>37.2</ele>
        <time>2021-05-19T07:29:01Z</time>
      </trkpt>
      <trkpt lat="41.9857550" lon="-8.8846300">
        <ele>37.2</ele>
        <time>2021-05-19T07:29:02Z</time>
      </trkpt>
      <trkpt lat="41.9857710" lon="-8.8846370">
        <ele>37.2</ele>
        <time>2021-05-19T07:29:03Z</time>
      </trkpt>
      <trkpt lat="41.9857850" lon="-8.8846430">
        <ele>37.2</ele>
        <time>2021-05-19T07:29:04Z</time>
      </trkpt>
      <trkpt lat="41.9857970" lon="-8.8846450">
        <ele>37.2</ele>
        <time>2021-05-19T07:29:05Z</time>
      </trkpt>
      <trkpt lat="41.9858110" lon="-8.8846420">
        <ele>37.2</ele>
        <time>2021-05-19T07:29:06Z</time>
      </trkpt>
      <trkpt lat="41.9858220" lon="-8.8846450">
        <ele>37.2</ele>
        <time>2021-05-19T07:29:07Z</time>
      </trkpt>
      <trkpt lat="41.9858440" lon="-8.8846480">
        <ele>37.2</ele>
        <time>2021-05-19T07:29:08Z</time>
      </trkpt>
      <trkpt lat="41.9858540" lon="-8.8846480">
        <ele>37.2</ele>
        <time>2021-05-19T07:29:09Z</time>
      </trkpt>
      <trkpt lat="41.9858630" lon="-8.8846490">
        <ele>37.2</ele>
        <time>2021-05-19T07:29:10Z</time>
      </trkpt>
      <trkpt lat="41.9858750" lon="-8.8846480">
        <ele>37.2</ele>
        <time>2021-05-19T07:29:11Z</time>
      </trkpt>
      <trkpt lat="41.9858900" lon="-8.8846460">
        <ele>37.2</ele>
        <time>2021-05-19T07:29:12Z</time>
      </trkpt>
      <trkpt lat="41.9859040" lon="-8.8846420">
        <ele>37.2</ele>
        <time>2021-05-19T07:29:13Z</time>
      </trkpt>
      <trkpt lat="41.9859180" lon="-8.8846420">
        <ele>37.2</ele>
        <time>2021-05-19T07:29:14Z</time>
      </trkpt>
      <trkpt lat="41.9859310" lon="-8.8846440">
        <ele>37.2</ele>
        <time>2021-05-19T07:29:15Z</time>
      </trkpt>
      <trkpt lat="41.9859370" lon="-8.8846470">
        <ele>37.2</ele>
        <time>2021-05-19T07:29:16Z</time>
      </trkpt>
      <trkpt lat="41.9859430" lon="-8.8846490">
        <ele>37.2</ele>
        <time>2021-05-19T07:29:17Z</time>
      </trkpt>
      <trkpt lat="41.9859530" lon="-8.8846500">
        <ele>37.2</ele>
        <time>2021-05-19T07:29:18Z</time>
      </trkpt>
      <trkpt lat="41.9859640" lon="-8.8846500">
        <ele>37.2</ele>
        <time>2021-05-19T07:29:19Z</time>
      </trkpt>
      <trkpt lat="41.9859740" lon="-8.8846510">
        <ele>37.2</ele>
        <time>2021-05-19T07:29:20Z</time>
      </trkpt>
      <trkpt lat="41.9859860" lon="-8.8846520">
        <ele>37.1</ele>
        <time>2021-05-19T07:29:21Z</time>
      </trkpt>
      <trkpt lat="41.9859850" lon="-8.8846480">
        <ele>37.1</ele>
        <time>2021-05-19T07:29:22Z</time>
      </trkpt>
      <trkpt lat="41.9860010" lon="-8.8846520">
        <ele>37.1</ele>
        <time>2021-05-19T07:29:23Z</time>
      </trkpt>
      <trkpt lat="41.9860150" lon="-8.8846480">
        <ele>37.1</ele>
        <time>2021-05-19T07:29:24Z</time>
      </trkpt>
      <trkpt lat="41.9860120" lon="-8.8846380">
        <ele>37.1</ele>
        <time>2021-05-19T07:29:25Z</time>
      </trkpt>
      <trkpt lat="41.9860240" lon="-8.8846380">
        <ele>37.1</ele>
        <time>2021-05-19T07:29:26Z</time>
      </trkpt>
      <trkpt lat="41.9860290" lon="-8.8846300">
        <ele>37.1</ele>
        <time>2021-05-19T07:29:27Z</time>
      </trkpt>
      <trkpt lat="41.9860460" lon="-8.8846340">
        <ele>37.1</ele>
        <time>2021-05-19T07:29:28Z</time>
      </trkpt>
      <trkpt lat="41.9860740" lon="-8.8846220">
        <ele>37.0</ele>
        <time>2021-05-19T07:29:29Z</time>
      </trkpt>
      <trkpt lat="41.9860810" lon="-8.8846220">
        <ele>37.0</ele>
        <time>2021-05-19T07:29:30Z</time>
      </trkpt>
      <trkpt lat="41.9860970" lon="-8.8846260">
        <ele>37.0</ele>
        <time>2021-05-19T07:29:31Z</time>
      </trkpt>
      <trkpt lat="41.9861130" lon="-8.8846220">
        <ele>37.0</ele>
        <time>2021-05-19T07:29:32Z</time>
      </trkpt>
      <trkpt lat="41.9861330" lon="-8.8846220">
        <ele>37.0</ele>
        <time>2021-05-19T07:29:33Z</time>
      </trkpt>
      <trkpt lat="41.9861440" lon="-8.8846230">
        <ele>37.0</ele>
        <time>2021-05-19T07:29:34Z</time>
      </trkpt>
      <trkpt lat="41.9861730" lon="-8.8846210">
        <ele>36.9</ele>
        <time>2021-05-19T07:29:35Z</time>
      </trkpt>
      <trkpt lat="41.9861810" lon="-8.8846200">
        <ele>36.9</ele>
        <time>2021-05-19T07:29:36Z</time>
      </trkpt>
      <trkpt lat="41.9861950" lon="-8.8846160">
        <ele>36.9</ele>
        <time>2021-05-19T07:29:37Z</time>
      </trkpt>
      <trkpt lat="41.9862080" lon="-8.8846150">
        <ele>36.9</ele>
        <time>2021-05-19T07:29:38Z</time>
      </trkpt>
      <trkpt lat="41.9862260" lon="-8.8846120">
        <ele>36.9</ele>
        <time>2021-05-19T07:29:39Z</time>
      </trkpt>
      <trkpt lat="41.9862390" lon="-8.8846030">
        <ele>36.9</ele>
        <time>2021-05-19T07:29:40Z</time>
      </trkpt>
      <trkpt lat="41.9862600" lon="-8.8845970">
        <ele>36.9</ele>
        <time>2021-05-19T07:29:41Z</time>
      </trkpt>
      <trkpt lat="41.9862670" lon="-8.8845940">
        <ele>36.9</ele>
        <time>2021-05-19T07:29:42Z</time>
      </trkpt>
      <trkpt lat="41.9862750" lon="-8.8845910">
        <ele>36.9</ele>
        <time>2021-05-19T07:29:43Z</time>
      </trkpt>
      <trkpt lat="41.9862970" lon="-8.8845810">
        <ele>36.9</ele>
        <time>2021-05-19T07:29:44Z</time>
      </trkpt>
      <trkpt lat="41.9863050" lon="-8.8845770">
        <ele>36.8</ele>
        <time>2021-05-19T07:29:45Z</time>
      </trkpt>
      <trkpt lat="41.9863130" lon="-8.8845720">
        <ele>36.8</ele>
        <time>2021-05-19T07:29:46Z</time>
      </trkpt>
      <trkpt lat="41.9863270" lon="-8.8845640">
        <ele>36.8</ele>
        <time>2021-05-19T07:29:47Z</time>
      </trkpt>
      <trkpt lat="41.9863370" lon="-8.8845590">
        <ele>36.8</ele>
        <time>2021-05-19T07:29:48Z</time>
      </trkpt>
      <trkpt lat="41.9863470" lon="-8.8845590">
        <ele>36.8</ele>
        <time>2021-05-19T07:29:49Z</time>
      </trkpt>
      <trkpt lat="41.9863680" lon="-8.8845510">
        <ele>36.8</ele>
        <time>2021-05-19T07:29:50Z</time>
      </trkpt>
      <trkpt lat="41.9863760" lon="-8.8845500">
        <ele>36.8</ele>
        <time>2021-05-19T07:29:51Z</time>
      </trkpt>
      <trkpt lat="41.9863850" lon="-8.8845480">
        <ele>36.8</ele>
        <time>2021-05-19T07:29:52Z</time>
      </trkpt>
      <trkpt lat="41.9863980" lon="-8.8845440">
        <ele>36.8</ele>
        <time>2021-05-19T07:29:53Z</time>
      </trkpt>
      <trkpt lat="41.9864120" lon="-8.8845430">
        <ele>36.8</ele>
        <time>2021-05-19T07:29:54Z</time>
      </trkpt>
      <trkpt lat="41.9864240" lon="-8.8845350">
        <ele>36.8</ele>
        <time>2021-05-19T07:29:55Z</time>
      </trkpt>
      <trkpt lat="41.9864390" lon="-8.8845270">
        <ele>36.9</ele>
        <time>2021-05-19T07:29:56Z</time>
      </trkpt>
      <trkpt lat="41.9864570" lon="-8.8845210">
        <ele>36.9</ele>
        <time>2021-05-19T07:29:57Z</time>
      </trkpt>
      <trkpt lat="41.9864670" lon="-8.8845180">
        <ele>36.9</ele>
        <time>2021-05-19T07:29:58Z</time>
      </trkpt>
      <trkpt lat="41.9864760" lon="-8.8845150">
        <ele>36.9</ele>
        <time>2021-05-19T07:29:59Z</time>
      </trkpt>
      <trkpt lat="41.9864900" lon="-8.8845110">
        <ele>36.9</ele>
        <time>2021-05-19T07:30:00Z</time>
      </trkpt>
      <trkpt lat="41.9865040" lon="-8.8845070">
        <ele>36.9</ele>
        <time>2021-05-19T07:30:01Z</time>
      </trkpt>
      <trkpt lat="41.9865260" lon="-8.8844980">
        <ele>36.9</ele>
        <time>2021-05-19T07:30:02Z</time>
      </trkpt>
      <trkpt lat="41.9865340" lon="-8.8844950">
        <ele>36.9</ele>
        <time>2021-05-19T07:30:03Z</time>
      </trkpt>
      <trkpt lat="41.9865430" lon="-8.8844920">
        <ele>36.9</ele>
        <time>2021-05-19T07:30:04Z</time>
      </trkpt>
      <trkpt lat="41.9865500" lon="-8.8844880">
        <ele>36.9</ele>
        <time>2021-05-19T07:30:05Z</time>
      </trkpt>
      <trkpt lat="41.9865600" lon="-8.8844830">
        <ele>36.9</ele>
        <time>2021-05-19T07:30:06Z</time>
      </trkpt>
      <trkpt lat="41.9865690" lon="-8.8844760">
        <ele>36.9</ele>
        <time>2021-05-19T07:30:07Z</time>
      </trkpt>
      <trkpt lat="41.9865850" lon="-8.8844670">
        <ele>36.9</ele>
        <time>2021-05-19T07:30:08Z</time>
      </trkpt>
      <trkpt lat="41.9865940" lon="-8.8844580">
        <ele>36.9</ele>
        <time>2021-05-19T07:30:09Z</time>
      </trkpt>
      <trkpt lat="41.9866190" lon="-8.8844570">
        <ele>36.9</ele>
        <time>2021-05-19T07:30:10Z</time>
      </trkpt>
      <trkpt lat="41.9866300" lon="-8.8844550">
        <ele>36.9</ele>
        <time>2021-05-19T07:30:11Z</time>
      </trkpt>
      <trkpt lat="41.9866420" lon="-8.8844540">
        <ele>36.9</ele>
        <time>2021-05-19T07:30:12Z</time>
      </trkpt>
      <trkpt lat="41.9866590" lon="-8.8844520">
        <ele>36.9</ele>
        <time>2021-05-19T07:30:13Z</time>
      </trkpt>
      <trkpt lat="41.9866750" lon="-8.8844440">
        <ele>36.9</ele>
        <time>2021-05-19T07:30:14Z</time>
      </trkpt>
      <trkpt lat="41.9866920" lon="-8.8844420">
        <ele>36.9</ele>
        <time>2021-05-19T07:30:15Z</time>
      </trkpt>
      <trkpt lat="41.9867080" lon="-8.8844380">
        <ele>37.0</ele>
        <time>2021-05-19T07:30:16Z</time>
      </trkpt>
      <trkpt lat="41.9867230" lon="-8.8844320">
        <ele>37.0</ele>
        <time>2021-05-19T07:30:17Z</time>
      </trkpt>
      <trkpt lat="41.9867400" lon="-8.8844350">
        <ele>37.0</ele>
        <time>2021-05-19T07:30:18Z</time>
      </trkpt>
      <trkpt lat="41.9867560" lon="-8.8844340">
        <ele>37.0</ele>
        <time>2021-05-19T07:30:19Z</time>
      </trkpt>
      <trkpt lat="41.9867700" lon="-8.8844290">
        <ele>37.0</ele>
        <time>2021-05-19T07:30:20Z</time>
      </trkpt>
      <trkpt lat="41.9867850" lon="-8.8844270">
        <ele>37.0</ele>
        <time>2021-05-19T07:30:21Z</time>
      </trkpt>
      <trkpt lat="41.9868010" lon="-8.8844220">
        <ele>37.0</ele>
        <time>2021-05-19T07:30:22Z</time>
      </trkpt>
      <trkpt lat="41.9868130" lon="-8.8844180">
        <ele>37.0</ele>
        <time>2021-05-19T07:30:23Z</time>
      </trkpt>
      <trkpt lat="41.9868280" lon="-8.8844140">
        <ele>37.0</ele>
        <time>2021-05-19T07:30:24Z</time>
      </trkpt>
      <trkpt lat="41.9868420" lon="-8.8844160">
        <ele>37.0</ele>
        <time>2021-05-19T07:30:25Z</time>
      </trkpt>
      <trkpt lat="41.9868560" lon="-8.8844130">
        <ele>37.0</ele>
        <time>2021-05-19T07:30:26Z</time>
      </trkpt>
      <trkpt lat="41.9868700" lon="-8.8844110">
        <ele>37.1</ele>
        <time>2021-05-19T07:30:27Z</time>
      </trkpt>
      <trkpt lat="41.9868830" lon="-8.8844120">
        <ele>37.1</ele>
        <time>2021-05-19T07:30:28Z</time>
      </trkpt>
      <trkpt lat="41.9868940" lon="-8.8844100">
        <ele>37.1</ele>
        <time>2021-05-19T07:30:29Z</time>
      </trkpt>
      <trkpt lat="41.9869100" lon="-8.8844040">
        <ele>37.1</ele>
        <time>2021-05-19T07:30:30Z</time>
      </trkpt>
      <trkpt lat="41.9869240" lon="-8.8844000">
        <ele>37.1</ele>
        <time>2021-05-19T07:30:31Z</time>
      </trkpt>
      <trkpt lat="41.9869380" lon="-8.8843920">
        <ele>37.1</ele>
        <time>2021-05-19T07:30:32Z</time>
      </trkpt>
      <trkpt lat="41.9869520" lon="-8.8843860">
        <ele>37.2</ele>
        <time>2021-05-19T07:30:33Z</time>
      </trkpt>
      <trkpt lat="41.9869670" lon="-8.8843880">
        <ele>37.2</ele>
        <time>2021-05-19T07:30:34Z</time>
      </trkpt>
      <trkpt lat="41.9869880" lon="-8.8843790">
        <ele>37.2</ele>
        <time>2021-05-19T07:30:35Z</time>
      </trkpt>
      <trkpt lat="41.9869960" lon="-8.8843760">
        <ele>37.2</ele>
        <time>2021-05-19T07:30:36Z</time>
      </trkpt>
      <trkpt lat="41.9870040" lon="-8.8843720">
        <ele>37.2</ele>
        <time>2021-05-19T07:30:37Z</time>
      </trkpt>
      <trkpt lat="41.9870180" lon="-8.8843650">
        <ele>37.3</ele>
        <time>2021-05-19T07:30:38Z</time>
      </trkpt>
      <trkpt lat="41.9870320" lon="-8.8843600">
        <ele>37.3</ele>
        <time>2021-05-19T07:30:39Z</time>
      </trkpt>
      <trkpt lat="41.9870470" lon="-8.8843590">
        <ele>37.3</ele>
        <time>2021-05-19T07:30:40Z</time>
      </trkpt>
      <trkpt lat="41.9870610" lon="-8.8843600">
        <ele>37.4</ele>
        <time>2021-05-19T07:30:41Z</time>
      </trkpt>
      <trkpt lat="41.9870750" lon="-8.8843560">
        <ele>37.4</ele>
        <time>2021-05-19T07:30:42Z</time>
      </trkpt>
      <trkpt lat="41.9870890" lon="-8.8843480">
        <ele>37.4</ele>
        <time>2021-05-19T07:30:43Z</time>
      </trkpt>
      <trkpt lat="41.9871030" lon="-8.8843400">
        <ele>37.5</ele>
        <time>2021-05-19T07:30:44Z</time>
      </trkpt>
      <trkpt lat="41.9871170" lon="-8.8843360">
        <ele>37.5</ele>
        <time>2021-05-19T07:30:45Z</time>
      </trkpt>
      <trkpt lat="41.9871370" lon="-8.8843270">
        <ele>37.6</ele>
        <time>2021-05-19T07:30:46Z</time>
      </trkpt>
      <trkpt lat="41.9871450" lon="-8.8843230">
        <ele>37.6</ele>
        <time>2021-05-19T07:30:47Z</time>
      </trkpt>
      <trkpt lat="41.9871530" lon="-8.8843180">
        <ele>37.7</ele>
        <time>2021-05-19T07:30:48Z</time>
      </trkpt>
      <trkpt lat="41.9871680" lon="-8.8843110">
        <ele>37.7</ele>
        <time>2021-05-19T07:30:49Z</time>
      </trkpt>
      <trkpt lat="41.9871820" lon="-8.8843080">
        <ele>37.8</ele>
        <time>2021-05-19T07:30:50Z</time>
      </trkpt>
      <trkpt lat="41.9871970" lon="-8.8843040">
        <ele>37.9</ele>
        <time>2021-05-19T07:30:51Z</time>
      </trkpt>
      <trkpt lat="41.9872110" lon="-8.8843040">
        <ele>37.9</ele>
        <time>2021-05-19T07:30:52Z</time>
      </trkpt>
      <trkpt lat="41.9872240" lon="-8.8842970">
        <ele>38.1</ele>
        <time>2021-05-19T07:30:53Z</time>
      </trkpt>
      <trkpt lat="41.9872370" lon="-8.8842820">
        <ele>38.2</ele>
        <time>2021-05-19T07:30:54Z</time>
      </trkpt>
      <trkpt lat="41.9872500" lon="-8.8842760">
        <ele>38.4</ele>
        <time>2021-05-19T07:30:55Z</time>
      </trkpt>
      <trkpt lat="41.9872630" lon="-8.8842650">
        <ele>38.5</ele>
        <time>2021-05-19T07:30:56Z</time>
      </trkpt>
      <trkpt lat="41.9872770" lon="-8.8842600">
        <ele>38.7</ele>
        <time>2021-05-19T07:30:57Z</time>
      </trkpt>
      <trkpt lat="41.9872910" lon="-8.8842560">
        <ele>38.8</ele>
        <time>2021-05-19T07:30:58Z</time>
      </trkpt>
      <trkpt lat="41.9873050" lon="-8.8842520">
        <ele>38.9</ele>
        <time>2021-05-19T07:30:59Z</time>
      </trkpt>
      <trkpt lat="41.9873180" lon="-8.8842480">
        <ele>39.1</ele>
        <time>2021-05-19T07:31:00Z</time>
      </trkpt>
      <trkpt lat="41.9873320" lon="-8.8842430">
        <ele>39.2</ele>
        <time>2021-05-19T07:31:01Z</time>
      </trkpt>
      <trkpt lat="41.9873450" lon="-8.8842390">
        <ele>39.4</ele>
        <time>2021-05-19T07:31:02Z</time>
      </trkpt>
      <trkpt lat="41.9873590" lon="-8.8842450">
        <ele>39.5</ele>
        <time>2021-05-19T07:31:03Z</time>
      </trkpt>
      <trkpt lat="41.9873720" lon="-8.8842410">
        <ele>39.7</ele>
        <time>2021-05-19T07:31:04Z</time>
      </trkpt>
      <trkpt lat="41.9873840" lon="-8.8842370">
        <ele>39.8</ele>
        <time>2021-05-19T07:31:05Z</time>
      </trkpt>
      <trkpt lat="41.9873970" lon="-8.8842260">
        <ele>40.0</ele>
        <time>2021-05-19T07:31:06Z</time>
      </trkpt>
      <trkpt lat="41.9874100" lon="-8.8842180">
        <ele>40.2</ele>
        <time>2021-05-19T07:31:07Z</time>
      </trkpt>
      <trkpt lat="41.9874230" lon="-8.8842160">
        <ele>40.4</ele>
        <time>2021-05-19T07:31:08Z</time>
      </trkpt>
      <trkpt lat="41.9874450" lon="-8.8842100">
        <ele>40.6</ele>
        <time>2021-05-19T07:31:09Z</time>
      </trkpt>
      <trkpt lat="41.9874540" lon="-8.8842080">
        <ele>40.7</ele>
        <time>2021-05-19T07:31:10Z</time>
      </trkpt>
      <trkpt lat="41.9874620" lon="-8.8842050">
        <ele>41.2</ele>
        <time>2021-05-19T07:31:11Z</time>
      </trkpt>
      <trkpt lat="41.9874750" lon="-8.8842060">
        <ele>41.2</ele>
        <time>2021-05-19T07:31:12Z</time>
      </trkpt>
      <trkpt lat="41.9874870" lon="-8.8842090">
        <ele>41.3</ele>
        <time>2021-05-19T07:31:13Z</time>
      </trkpt>
      <trkpt lat="41.9874980" lon="-8.8842110">
        <ele>41.3</ele>
        <time>2021-05-19T07:31:14Z</time>
      </trkpt>
      <trkpt lat="41.9875090" lon="-8.8842070">
        <ele>41.3</ele>
        <time>2021-05-19T07:31:15Z</time>
      </trkpt>
      <trkpt lat="41.9875090" lon="-8.8841960">
        <ele>41.3</ele>
        <time>2021-05-19T07:31:16Z</time>
      </trkpt>
      <trkpt lat="41.9875180" lon="-8.8841960">
        <ele>41.3</ele>
        <time>2021-05-19T07:31:17Z</time>
      </trkpt>
      <trkpt lat="41.9875230" lon="-8.8841890">
        <ele>41.3</ele>
        <time>2021-05-19T07:31:18Z</time>
      </trkpt>
      <trkpt lat="41.9875300" lon="-8.8841810">
        <ele>41.3</ele>
        <time>2021-05-19T07:31:19Z</time>
      </trkpt>
      <trkpt lat="41.9875350" lon="-8.8841730">
        <ele>41.3</ele>
        <time>2021-05-19T07:31:20Z</time>
      </trkpt>
      <trkpt lat="41.9875410" lon="-8.8841670">
        <ele>41.3</ele>
        <time>2021-05-19T07:31:21Z</time>
      </trkpt>
      <trkpt lat="41.9875410" lon="-8.8841560">
        <ele>41.3</ele>
        <time>2021-05-19T07:31:22Z</time>
      </trkpt>
      <trkpt lat="41.9875440" lon="-8.8841520">
        <ele>41.3</ele>
        <time>2021-05-19T07:31:23Z</time>
      </trkpt>
      <trkpt lat="41.9875490" lon="-8.8841440">
        <ele>41.3</ele>
        <time>2021-05-19T07:31:24Z</time>
      </trkpt>
      <trkpt lat="41.9875560" lon="-8.8841390">
        <ele>41.3</ele>
        <time>2021-05-19T07:31:25Z</time>
      </trkpt>
      <trkpt lat="41.9875630" lon="-8.8841360">
        <ele>41.3</ele>
        <time>2021-05-19T07:31:26Z</time>
      </trkpt>
      <trkpt lat="41.9875710" lon="-8.8841340">
        <ele>41.3</ele>
        <time>2021-05-19T07:31:27Z</time>
      </trkpt>
      <trkpt lat="41.9875820" lon="-8.8841260">
        <ele>41.3</ele>
        <time>2021-05-19T07:31:28Z</time>
      </trkpt>
      <trkpt lat="41.9875920" lon="-8.8841240">
        <ele>41.3</ele>
        <time>2021-05-19T07:31:29Z</time>
      </trkpt>
      <trkpt lat="41.9876010" lon="-8.8841210">
        <ele>41.3</ele>
        <time>2021-05-19T07:31:30Z</time>
      </trkpt>
      <trkpt lat="41.9876050" lon="-8.8841190">
        <ele>41.3</ele>
        <time>2021-05-19T07:31:31Z</time>
      </trkpt>
      <trkpt lat="41.9876200" lon="-8.8841140">
        <ele>41.3</ele>
        <time>2021-05-19T07:31:32Z</time>
      </trkpt>
      <trkpt lat="41.9876260" lon="-8.8841120">
        <ele>41.3</ele>
        <time>2021-05-19T07:31:33Z</time>
      </trkpt>
      <trkpt lat="41.9876330" lon="-8.8841130">
        <ele>41.3</ele>
        <time>2021-05-19T07:31:34Z</time>
      </trkpt>
      <trkpt lat="41.9876360" lon="-8.8841120">
        <ele>41.3</ele>
        <time>2021-05-19T07:31:35Z</time>
      </trkpt>
      <trkpt lat="41.9876500" lon="-8.8841190">
        <ele>41.3</ele>
        <time>2021-05-19T07:31:36Z</time>
      </trkpt>
      <trkpt lat="41.9876580" lon="-8.8841220">
        <ele>41.3</ele>
        <time>2021-05-19T07:31:37Z</time>
      </trkpt>
      <trkpt lat="41.9876640" lon="-8.8841300">
        <ele>41.3</ele>
        <time>2021-05-19T07:31:38Z</time>
      </trkpt>
      <trkpt lat="41.9876670" lon="-8.8841380">
        <ele>41.3</ele>
        <time>2021-05-19T07:31:39Z</time>
      </trkpt>
      <trkpt lat="41.9876770" lon="-8.8841450">
        <ele>41.3</ele>
        <time>2021-05-19T07:31:40Z</time>
      </trkpt>
      <trkpt lat="41.9876890" lon="-8.8841600">
        <ele>41.3</ele>
        <time>2021-05-19T07:31:41Z</time>
      </trkpt>
      <trkpt lat="41.9877000" lon="-8.8841640">
        <ele>41.3</ele>
        <time>2021-05-19T07:31:42Z</time>
      </trkpt>
      <trkpt lat="41.9877120" lon="-8.8841690">
        <ele>41.2</ele>
        <time>2021-05-19T07:31:43Z</time>
      </trkpt>
      <trkpt lat="41.9877190" lon="-8.8841760">
        <ele>41.2</ele>
        <time>2021-05-19T07:31:44Z</time>
      </trkpt>
      <trkpt lat="41.9877270" lon="-8.8841760">
        <ele>41.2</ele>
        <time>2021-05-19T07:31:45Z</time>
      </trkpt>
      <trkpt lat="41.9877410" lon="-8.8841740">
        <ele>41.2</ele>
        <time>2021-05-19T07:31:46Z</time>
      </trkpt>
      <trkpt lat="41.9877480" lon="-8.8841720">
        <ele>41.2</ele>
        <time>2021-05-19T07:31:47Z</time>
      </trkpt>
      <trkpt lat="41.9877640" lon="-8.8841730">
        <ele>41.2</ele>
        <time>2021-05-19T07:31:48Z</time>
      </trkpt>
      <trkpt lat="41.9877730" lon="-8.8841710">
        <ele>41.2</ele>
        <time>2021-05-19T07:31:49Z</time>
      </trkpt>
      <trkpt lat="41.9877840" lon="-8.8841700">
        <ele>41.2</ele>
        <time>2021-05-19T07:31:50Z</time>
      </trkpt>
      <trkpt lat="41.9877940" lon="-8.8841640">
        <ele>41.2</ele>
        <time>2021-05-19T07:31:51Z</time>
      </trkpt>
      <trkpt lat="41.9878010" lon="-8.8841640">
        <ele>41.2</ele>
        <time>2021-05-19T07:31:52Z</time>
      </trkpt>
      <trkpt lat="41.9878060" lon="-8.8841580">
        <ele>41.2</ele>
        <time>2021-05-19T07:31:53Z</time>
      </trkpt>
      <trkpt lat="41.9877990" lon="-8.8841580">
        <ele>41.2</ele>
        <time>2021-05-19T07:31:54Z</time>
      </trkpt>
      <trkpt lat="41.9877980" lon="-8.8841560">
        <ele>41.2</ele>
        <time>2021-05-19T07:31:55Z</time>
      </trkpt>
      <trkpt lat="41.9877990" lon="-8.8841540">
        <ele>41.2</ele>
        <time>2021-05-19T07:31:56Z</time>
      </trkpt>
      <trkpt lat="41.9878010" lon="-8.8841570">
        <ele>41.2</ele>
        <time>2021-05-19T07:31:57Z</time>
      </trkpt>
      <trkpt lat="41.9878010" lon="-8.8841560">
        <ele>41.2</ele>
        <time>2021-05-19T07:31:58Z</time>
      </trkpt>
      <trkpt lat="41.9878000" lon="-8.8841480">
        <ele>41.1</ele>
        <time>2021-05-19T07:31:59Z</time>
      </trkpt>
      <trkpt lat="41.9878000" lon="-8.8841500">
        <ele>41.1</ele>
        <time>2021-05-19T07:32:00Z</time>
      </trkpt>
      <trkpt lat="41.9878010" lon="-8.8841520">
        <ele>41.1</ele>
        <time>2021-05-19T07:32:01Z</time>
      </trkpt>
      <trkpt lat="41.9878000" lon="-8.8841500">
        <ele>41.1</ele>
        <time>2021-05-19T07:32:02Z</time>
      </trkpt>
      <trkpt lat="41.9878000" lon="-8.8841550">
        <ele>41.1</ele>
        <time>2021-05-19T07:32:03Z</time>
      </trkpt>
      <trkpt lat="41.9878060" lon="-8.8841590">
        <ele>41.1</ele>
        <time>2021-05-19T07:32:04Z</time>
      </trkpt>
      <trkpt lat="41.9878080" lon="-8.8841580">
        <ele>41.1</ele>
        <time>2021-05-19T07:32:05Z</time>
      </trkpt>
      <trkpt lat="41.9878090" lon="-8.8841570">
        <ele>41.1</ele>
        <time>2021-05-19T07:32:06Z</time>
      </trkpt>
      <trkpt lat="41.9878090" lon="-8.8841570">
        <ele>41.1</ele>
        <time>2021-05-19T07:32:07Z</time>
      </trkpt>
      <trkpt lat="41.9878130" lon="-8.8841560">
        <ele>41.1</ele>
        <time>2021-05-19T07:32:08Z</time>
      </trkpt>
      <trkpt lat="41.9878140" lon="-8.8841560">
        <ele>41.1</ele>
        <time>2021-05-19T07:32:09Z</time>
      </trkpt>
      <trkpt lat="41.9878110" lon="-8.8841520">
        <ele>41.1</ele>
        <time>2021-05-19T07:32:10Z</time>
      </trkpt>
      <trkpt lat="41.9878090" lon="-8.8841530">
        <ele>41.1</ele>
        <time>2021-05-19T07:32:11Z</time>
      </trkpt>
      <trkpt lat="41.9878090" lon="-8.8841540">
        <ele>41.1</ele>
        <time>2021-05-19T07:32:12Z</time>
      </trkpt>
      <trkpt lat="41.9878090" lon="-8.8841540">
        <ele>41.1</ele>
        <time>2021-05-19T07:32:13Z</time>
      </trkpt>
      <trkpt lat="41.9878090" lon="-8.8841540">
        <ele>41.1</ele>
        <time>2021-05-19T07:32:14Z</time>
      </trkpt>
      <trkpt lat="41.9878090" lon="-8.8841540">
        <ele>41.1</ele>
        <time>2021-05-19T07:32:15Z</time>
      </trkpt>
      <trkpt lat="41.9878090" lon="-8.8841540">
        <ele>41.1</ele>
        <time>2021-05-19T07:32:16Z</time>
      </trkpt>
      <trkpt lat="41.9878000" lon="-8.8841670">
        <ele>41.1</ele>
        <time>2021-05-19T07:32:17Z</time>
      </trkpt>
      <trkpt lat="41.9878000" lon="-8.8841680">
        <ele>41.1</ele>
        <time>2021-05-19T07:32:18Z</time>
      </trkpt>
      <trkpt lat="41.9877990" lon="-8.8841650">
        <ele>41.1</ele>
        <time>2021-05-19T07:32:19Z</time>
      </trkpt>
      <trkpt lat="41.9877980" lon="-8.8841640">
        <ele>41.1</ele>
        <time>2021-05-19T07:32:20Z</time>
      </trkpt>
      <trkpt lat="41.9877970" lon="-8.8841620">
        <ele>41.1</ele>
        <time>2021-05-19T07:32:21Z</time>
      </trkpt>
      <trkpt lat="41.9877960" lon="-8.8841580">
        <ele>41.1</ele>
        <time>2021-05-19T07:32:22Z</time>
      </trkpt>
      <trkpt lat="41.9877930" lon="-8.8841530">
        <ele>41.1</ele>
        <time>2021-05-19T07:32:23Z</time>
      </trkpt>
      <trkpt lat="41.9877940" lon="-8.8841530">
        <ele>41.1</ele>
        <time>2021-05-19T07:32:24Z</time>
      </trkpt>
      <trkpt lat="41.9877950" lon="-8.8841540">
        <ele>41.1</ele>
        <time>2021-05-19T07:32:25Z</time>
      </trkpt>
      <trkpt lat="41.9877940" lon="-8.8841510">
        <ele>41.1</ele>
        <time>2021-05-19T07:32:26Z</time>
      </trkpt>
      <trkpt lat="41.9877920" lon="-8.8841480">
        <ele>41.1</ele>
        <time>2021-05-19T07:32:27Z</time>
      </trkpt>
      <trkpt lat="41.9877920" lon="-8.8841480">
        <ele>41.1</ele>
        <time>2021-05-19T07:32:28Z</time>
      </trkpt>
      <trkpt lat="41.9877920" lon="-8.8841480">
        <ele>41.1</ele>
        <time>2021-05-19T07:32:29Z</time>
      </trkpt>
      <trkpt lat="41.9877920" lon="-8.8841480">
        <ele>41.1</ele>
        <time>2021-05-19T07:32:30Z</time>
      </trkpt>
      <trkpt lat="41.9877920" lon="-8.8841480">
        <ele>41.1</ele>
        <time>2021-05-19T07:32:31Z</time>
      </trkpt>
      <trkpt lat="41.9877940" lon="-8.8841410">
        <ele>41.1</ele>
        <time>2021-05-19T07:32:32Z</time>
      </trkpt>
      <trkpt lat="41.9877920" lon="-8.8841430">
        <ele>41.1</ele>
        <time>2021-05-19T07:32:33Z</time>
      </trkpt>
      <trkpt lat="41.9877920" lon="-8.8841420">
        <ele>41.1</ele>
        <time>2021-05-19T07:32:34Z</time>
      </trkpt>
      <trkpt lat="41.9877910" lon="-8.8841390">
        <ele>41.1</ele>
        <time>2021-05-19T07:32:35Z</time>
      </trkpt>
      <trkpt lat="41.9877910" lon="-8.8841380">
        <ele>41.1</ele>
        <time>2021-05-19T07:32:36Z</time>
      </trkpt>
      <trkpt lat="41.9877920" lon="-8.8841380">
        <ele>41.1</ele>
        <time>2021-05-19T07:32:37Z</time>
      </trkpt>
      <trkpt lat="41.9877920" lon="-8.8841380">
        <ele>41.1</ele>
        <time>2021-05-19T07:32:38Z</time>
      </trkpt>
      <trkpt lat="41.9877920" lon="-8.8841380">
        <ele>41.1</ele>
        <time>2021-05-19T07:32:39Z</time>
      </trkpt>
      <trkpt lat="41.9877930" lon="-8.8841420">
        <ele>41.1</ele>
        <time>2021-05-19T07:32:40Z</time>
      </trkpt>
      <trkpt lat="41.9877920" lon="-8.8841410">
        <ele>41.1</ele>
        <time>2021-05-19T07:32:41Z</time>
      </trkpt>
      <trkpt lat="41.9877920" lon="-8.8841390">
        <ele>41.1</ele>
        <time>2021-05-19T07:32:42Z</time>
      </trkpt>
      <trkpt lat="41.9877920" lon="-8.8841390">
        <ele>41.1</ele>
        <time>2021-05-19T07:32:43Z</time>
      </trkpt>
      <trkpt lat="41.9877920" lon="-8.8841390">
        <ele>41.1</ele>
        <time>2021-05-19T07:32:44Z</time>
      </trkpt>
      <trkpt lat="41.9877980" lon="-8.8841370">
        <ele>41.1</ele>
        <time>2021-05-19T07:32:45Z</time>
      </trkpt>
      <trkpt lat="41.9877910" lon="-8.8841290">
        <ele>41.0</ele>
        <time>2021-05-19T07:32:46Z</time>
      </trkpt>
      <trkpt lat="41.9877890" lon="-8.8841270">
        <ele>41.0</ele>
        <time>2021-05-19T07:32:47Z</time>
      </trkpt>
      <trkpt lat="41.9877850" lon="-8.8841180">
        <ele>41.0</ele>
        <time>2021-05-19T07:32:48Z</time>
      </trkpt>
      <trkpt lat="41.9877900" lon="-8.8841260">
        <ele>41.0</ele>
        <time>2021-05-19T07:32:49Z</time>
      </trkpt>
      <trkpt lat="41.9877920" lon="-8.8841290">
        <ele>41.0</ele>
        <time>2021-05-19T07:32:50Z</time>
      </trkpt>
      <trkpt lat="41.9877920" lon="-8.8841280">
        <ele>41.0</ele>
        <time>2021-05-19T07:32:51Z</time>
      </trkpt>
      <trkpt lat="41.9877920" lon="-8.8841280">
        <ele>41.0</ele>
        <time>2021-05-19T07:32:52Z</time>
      </trkpt>
      <trkpt lat="41.9877920" lon="-8.8841230">
        <ele>41.0</ele>
        <time>2021-05-19T07:32:53Z</time>
      </trkpt>
      <trkpt lat="41.9877920" lon="-8.8841240">
        <ele>41.0</ele>
        <time>2021-05-19T07:32:54Z</time>
      </trkpt>
      <trkpt lat="41.9877920" lon="-8.8841220">
        <ele>41.0</ele>
        <time>2021-05-19T07:32:55Z</time>
      </trkpt>
      <trkpt lat="41.9877900" lon="-8.8841200">
        <ele>41.0</ele>
        <time>2021-05-19T07:32:56Z</time>
      </trkpt>
      <trkpt lat="41.9877910" lon="-8.8841240">
        <ele>41.0</ele>
        <time>2021-05-19T07:32:57Z</time>
      </trkpt>
      <trkpt lat="41.9877870" lon="-8.8841230">
        <ele>41.0</ele>
        <time>2021-05-19T07:32:58Z</time>
      </trkpt>
      <trkpt lat="41.9877840" lon="-8.8841220">
        <ele>41.0</ele>
        <time>2021-05-19T07:32:59Z</time>
      </trkpt>
      <trkpt lat="41.9877830" lon="-8.8841180">
        <ele>41.0</ele>
        <time>2021-05-19T07:33:00Z</time>
      </trkpt>
      <trkpt lat="41.9877810" lon="-8.8841190">
        <ele>41.0</ele>
        <time>2021-05-19T07:33:01Z</time>
      </trkpt>
      <trkpt lat="41.9877830" lon="-8.8841220">
        <ele>41.0</ele>
        <time>2021-05-19T07:33:02Z</time>
      </trkpt>
      <trkpt lat="41.9877830" lon="-8.8841220">
        <ele>41.0</ele>
        <time>2021-05-19T07:33:03Z</time>
      </trkpt>
      <trkpt lat="41.9877830" lon="-8.8841220">
        <ele>41.0</ele>
        <time>2021-05-19T07:33:04Z</time>
      </trkpt>
      <trkpt lat="41.9877830" lon="-8.8841220">
        <ele>41.0</ele>
        <time>2021-05-19T07:33:05Z</time>
      </trkpt>
      <trkpt lat="41.9877930" lon="-8.8841310">
        <ele>41.0</ele>
        <time>2021-05-19T07:33:06Z</time>
      </trkpt>
      <trkpt lat="41.9877950" lon="-8.8841330">
        <ele>41.0</ele>
        <time>2021-05-19T07:33:07Z</time>
      </trkpt>
      <trkpt lat="41.9877940" lon="-8.8841340">
        <ele>41.0</ele>
        <time>2021-05-19T07:33:08Z</time>
      </trkpt>
      <trkpt lat="41.9877950" lon="-8.8841330">
        <ele>41.0</ele>
        <time>2021-05-19T07:33:09Z</time>
      </trkpt>
      <trkpt lat="41.9877970" lon="-8.8841330">
        <ele>41.0</ele>
        <time>2021-05-19T07:33:10Z</time>
      </trkpt>
      <trkpt lat="41.9877960" lon="-8.8841310">
        <ele>41.0</ele>
        <time>2021-05-19T07:33:11Z</time>
      </trkpt>
      <trkpt lat="41.9877940" lon="-8.8841300">
        <ele>40.9</ele>
        <time>2021-05-19T07:33:12Z</time>
      </trkpt>
      <trkpt lat="41.9877950" lon="-8.8841300">
        <ele>40.9</ele>
        <time>2021-05-19T07:33:13Z</time>
      </trkpt>
      <trkpt lat="41.9877920" lon="-8.8841310">
        <ele>40.9</ele>
        <time>2021-05-19T07:33:14Z</time>
      </trkpt>
      <trkpt lat="41.9877950" lon="-8.8841350">
        <ele>40.9</ele>
        <time>2021-05-19T07:33:15Z</time>
      </trkpt>
      <trkpt lat="41.9877970" lon="-8.8841370">
        <ele>40.9</ele>
        <time>2021-05-19T07:33:16Z</time>
      </trkpt>
      <trkpt lat="41.9877990" lon="-8.8841370">
        <ele>40.9</ele>
        <time>2021-05-19T07:33:17Z</time>
      </trkpt>
      <trkpt lat="41.9878040" lon="-8.8841430">
        <ele>40.9</ele>
        <time>2021-05-19T07:33:18Z</time>
      </trkpt>
      <trkpt lat="41.9878040" lon="-8.8841430">
        <ele>40.9</ele>
        <time>2021-05-19T07:33:19Z</time>
      </trkpt>
      <trkpt lat="41.9878040" lon="-8.8841420">
        <ele>40.9</ele>
        <time>2021-05-19T07:33:20Z</time>
      </trkpt>
      <trkpt lat="41.9878050" lon="-8.8841410">
        <ele>40.9</ele>
        <time>2021-05-19T07:33:21Z</time>
      </trkpt>
      <trkpt lat="41.9878050" lon="-8.8841410">
        <ele>40.9</ele>
        <time>2021-05-19T07:33:22Z</time>
      </trkpt>
      <trkpt lat="41.9878050" lon="-8.8841410">
        <ele>40.9</ele>
        <time>2021-05-19T07:33:23Z</time>
      </trkpt>
      <trkpt lat="41.9878050" lon="-8.8841410">
        <ele>40.9</ele>
        <time>2021-05-19T07:33:24Z</time>
      </trkpt>
      <trkpt lat="41.9878050" lon="-8.8841410">
        <ele>40.9</ele>
        <time>2021-05-19T07:33:25Z</time>
      </trkpt>
      <trkpt lat="41.9878020" lon="-8.8841320">
        <ele>40.9</ele>
        <time>2021-05-19T07:33:26Z</time>
      </trkpt>
      <trkpt lat="41.9878040" lon="-8.8841340">
        <ele>40.9</ele>
        <time>2021-05-19T07:33:27Z</time>
      </trkpt>
      <trkpt lat="41.9878060" lon="-8.8841340">
        <ele>40.9</ele>
        <time>2021-05-19T07:33:28Z</time>
      </trkpt>
      <trkpt lat="41.9878040" lon="-8.8841340">
        <ele>40.9</ele>
        <time>2021-05-19T07:33:29Z</time>
      </trkpt>
      <trkpt lat="41.9878040" lon="-8.8841320">
        <ele>40.9</ele>
        <time>2021-05-19T07:33:30Z</time>
      </trkpt>
      <trkpt lat="41.9878020" lon="-8.8841320">
        <ele>40.9</ele>
        <time>2021-05-19T07:33:31Z</time>
      </trkpt>
      <trkpt lat="41.9877980" lon="-8.8841300">
        <ele>40.9</ele>
        <time>2021-05-19T07:33:32Z</time>
      </trkpt>
      <trkpt lat="41.9877950" lon="-8.8841300">
        <ele>40.9</ele>
        <time>2021-05-19T07:33:33Z</time>
      </trkpt>
      <trkpt lat="41.9877930" lon="-8.8841280">
        <ele>40.9</ele>
        <time>2021-05-19T07:33:34Z</time>
      </trkpt>
      <trkpt lat="41.9877850" lon="-8.8841290">
        <ele>40.9</ele>
        <time>2021-05-19T07:33:35Z</time>
      </trkpt>
      <trkpt lat="41.9877860" lon="-8.8841310">
        <ele>40.9</ele>
        <time>2021-05-19T07:33:36Z</time>
      </trkpt>
      <trkpt lat="41.9877860" lon="-8.8841300">
        <ele>40.9</ele>
        <time>2021-05-19T07:33:37Z</time>
      </trkpt>
      <trkpt lat="41.9877840" lon="-8.8841260">
        <ele>40.9</ele>
        <time>2021-05-19T07:33:38Z</time>
      </trkpt>
      <trkpt lat="41.9877840" lon="-8.8841260">
        <ele>40.9</ele>
        <time>2021-05-19T07:33:39Z</time>
      </trkpt>
      <trkpt lat="41.9877840" lon="-8.8841260">
        <ele>40.9</ele>
        <time>2021-05-19T07:33:40Z</time>
      </trkpt>
      <trkpt lat="41.9877840" lon="-8.8841260">
        <ele>40.9</ele>
        <time>2021-05-19T07:33:41Z</time>
      </trkpt>
      <trkpt lat="41.9877840" lon="-8.8841260">
        <ele>40.9</ele>
        <time>2021-05-19T07:33:42Z</time>
      </trkpt>
      <trkpt lat="41.9877860" lon="-8.8841280">
        <ele>40.9</ele>
        <time>2021-05-19T07:33:43Z</time>
      </trkpt>
      <trkpt lat="41.9877860" lon="-8.8841220">
        <ele>40.9</ele>
        <time>2021-05-19T07:33:44Z</time>
      </trkpt>
      <trkpt lat="41.9877870" lon="-8.8841160">
        <ele>40.9</ele>
        <time>2021-05-19T07:33:45Z</time>
      </trkpt>
      <trkpt lat="41.9877910" lon="-8.8841110">
        <ele>40.9</ele>
        <time>2021-05-19T07:33:46Z</time>
      </trkpt>
      <trkpt lat="41.9877990" lon="-8.8841050">
        <ele>40.8</ele>
        <time>2021-05-19T07:33:47Z</time>
      </trkpt>
      <trkpt lat="41.9878110" lon="-8.8841050">
        <ele>40.8</ele>
        <time>2021-05-19T07:33:48Z</time>
      </trkpt>
      <trkpt lat="41.9878210" lon="-8.8841030">
        <ele>40.8</ele>
        <time>2021-05-19T07:33:49Z</time>
      </trkpt>
      <trkpt lat="41.9878270" lon="-8.8841050">
        <ele>40.8</ele>
        <time>2021-05-19T07:33:50Z</time>
      </trkpt>
      <trkpt lat="41.9878300" lon="-8.8841090">
        <ele>40.8</ele>
        <time>2021-05-19T07:33:51Z</time>
      </trkpt>
      <trkpt lat="41.9878300" lon="-8.8841070">
        <ele>40.8</ele>
        <time>2021-05-19T07:33:52Z</time>
      </trkpt>
      <trkpt lat="41.9878310" lon="-8.8841070">
        <ele>40.8</ele>
        <time>2021-05-19T07:33:53Z</time>
      </trkpt>
      <trkpt lat="41.9878320" lon="-8.8841080">
        <ele>40.8</ele>
        <time>2021-05-19T07:33:54Z</time>
      </trkpt>
      <trkpt lat="41.9878320" lon="-8.8841050">
        <ele>40.8</ele>
        <time>2021-05-19T07:33:55Z</time>
      </trkpt>
      <trkpt lat="41.9878320" lon="-8.8841050">
        <ele>40.8</ele>
        <time>2021-05-19T07:33:56Z</time>
      </trkpt>
      <trkpt lat="41.9878320" lon="-8.8841050">
        <ele>40.8</ele>
        <time>2021-05-19T07:33:57Z</time>
      </trkpt>
      <trkpt lat="41.9878310" lon="-8.8841020">
        <ele>40.8</ele>
        <time>2021-05-19T07:33:58Z</time>
      </trkpt>
      <trkpt lat="41.9878290" lon="-8.8841020">
        <ele>40.8</ele>
        <time>2021-05-19T07:33:59Z</time>
      </trkpt>
      <trkpt lat="41.9878290" lon="-8.8841040">
        <ele>40.8</ele>
        <time>2021-05-19T07:34:00Z</time>
      </trkpt>
      <trkpt lat="41.9878280" lon="-8.8841040">
        <ele>40.8</ele>
        <time>2021-05-19T07:34:01Z</time>
      </trkpt>
      <trkpt lat="41.9878300" lon="-8.8841050">
        <ele>40.8</ele>
        <time>2021-05-19T07:34:02Z</time>
      </trkpt>
      <trkpt lat="41.9878310" lon="-8.8840990">
        <ele>40.8</ele>
        <time>2021-05-19T07:34:03Z</time>
      </trkpt>
      <trkpt lat="41.9878310" lon="-8.8840940">
        <ele>40.8</ele>
        <time>2021-05-19T07:34:04Z</time>
      </trkpt>
      <trkpt lat="41.9878330" lon="-8.8840900">
        <ele>40.8</ele>
        <time>2021-05-19T07:34:05Z</time>
      </trkpt>
      <trkpt lat="41.9878320" lon="-8.8840860">
        <ele>40.8</ele>
        <time>2021-05-19T07:34:06Z</time>
      </trkpt>
      <trkpt lat="41.9878320" lon="-8.8840860">
        <ele>40.8</ele>
        <time>2021-05-19T07:34:07Z</time>
      </trkpt>
      <trkpt lat="41.9878300" lon="-8.8840820">
        <ele>40.8</ele>
        <time>2021-05-19T07:34:08Z</time>
      </trkpt>
      <trkpt lat="41.9878310" lon="-8.8840830">
        <ele>40.8</ele>
        <time>2021-05-19T07:34:09Z</time>
      </trkpt>
      <trkpt lat="41.9878280" lon="-8.8840850">
        <ele>40.8</ele>
        <time>2021-05-19T07:34:10Z</time>
      </trkpt>
      <trkpt lat="41.9878260" lon="-8.8840840">
        <ele>40.8</ele>
        <time>2021-05-19T07:34:11Z</time>
      </trkpt>
      <trkpt lat="41.9878260" lon="-8.8840820">
        <ele>40.8</ele>
        <time>2021-05-19T07:34:12Z</time>
      </trkpt>
      <trkpt lat="41.9878300" lon="-8.8840830">
        <ele>40.8</ele>
        <time>2021-05-19T07:34:13Z</time>
      </trkpt>
      <trkpt lat="41.9878320" lon="-8.8840820">
        <ele>40.8</ele>
        <time>2021-05-19T07:34:14Z</time>
      </trkpt>
      <trkpt lat="41.9878340" lon="-8.8840880">
        <ele>40.8</ele>
        <time>2021-05-19T07:34:15Z</time>
      </trkpt>
      <trkpt lat="41.9878360" lon="-8.8840930">
        <ele>40.8</ele>
        <time>2021-05-19T07:34:16Z</time>
      </trkpt>
      <trkpt lat="41.9878360" lon="-8.8840960">
        <ele>40.7</ele>
        <time>2021-05-19T07:34:17Z</time>
      </trkpt>
      <trkpt lat="41.9878350" lon="-8.8840960">
        <ele>40.7</ele>
        <time>2021-05-19T07:34:18Z</time>
      </trkpt>
      <trkpt lat="41.9878360" lon="-8.8840980">
        <ele>40.7</ele>
        <time>2021-05-19T07:34:19Z</time>
      </trkpt>
      <trkpt lat="41.9878350" lon="-8.8841010">
        <ele>40.7</ele>
        <time>2021-05-19T07:34:20Z</time>
      </trkpt>
      <trkpt lat="41.9878360" lon="-8.8841020">
        <ele>40.7</ele>
        <time>2021-05-19T07:34:21Z</time>
      </trkpt>
      <trkpt lat="41.9878350" lon="-8.8841020">
        <ele>40.7</ele>
        <time>2021-05-19T07:34:22Z</time>
      </trkpt>
      <trkpt lat="41.9878340" lon="-8.8841050">
        <ele>40.7</ele>
        <time>2021-05-19T07:34:23Z</time>
      </trkpt>
      <trkpt lat="41.9878310" lon="-8.8841000">
        <ele>40.7</ele>
        <time>2021-05-19T07:34:24Z</time>
      </trkpt>
      <trkpt lat="41.9878260" lon="-8.8840950">
        <ele>40.7</ele>
        <time>2021-05-19T07:34:25Z</time>
      </trkpt>
      <trkpt lat="41.9878210" lon="-8.8840920">
        <ele>40.7</ele>
        <time>2021-05-19T07:34:26Z</time>
      </trkpt>
      <trkpt lat="41.9878230" lon="-8.8840940">
        <ele>40.7</ele>
        <time>2021-05-19T07:34:27Z</time>
      </trkpt>
      <trkpt lat="41.9878220" lon="-8.8840940">
        <ele>40.7</ele>
        <time>2021-05-19T07:34:28Z</time>
      </trkpt>
      <trkpt lat="41.9878230" lon="-8.8840920">
        <ele>40.7</ele>
        <time>2021-05-19T07:34:29Z</time>
      </trkpt>
      <trkpt lat="41.9878230" lon="-8.8840930">
        <ele>40.7</ele>
        <time>2021-05-19T07:34:30Z</time>
      </trkpt>
      <trkpt lat="41.9878220" lon="-8.8840930">
        <ele>40.7</ele>
        <time>2021-05-19T07:34:31Z</time>
      </trkpt>
      <trkpt lat="41.9878220" lon="-8.8840920">
        <ele>40.7</ele>
        <time>2021-05-19T07:34:32Z</time>
      </trkpt>
      <trkpt lat="41.9878210" lon="-8.8840930">
        <ele>40.7</ele>
        <time>2021-05-19T07:34:33Z</time>
      </trkpt>
      <trkpt lat="41.9878200" lon="-8.8840930">
        <ele>40.7</ele>
        <time>2021-05-19T07:34:34Z</time>
      </trkpt>
      <trkpt lat="41.9878190" lon="-8.8840940">
        <ele>40.7</ele>
        <time>2021-05-19T07:34:35Z</time>
      </trkpt>
      <trkpt lat="41.9878190" lon="-8.8840930">
        <ele>40.7</ele>
        <time>2021-05-19T07:34:36Z</time>
      </trkpt>
      <trkpt lat="41.9878200" lon="-8.8840940">
        <ele>40.7</ele>
        <time>2021-05-19T07:34:37Z</time>
      </trkpt>
      <trkpt lat="41.9878210" lon="-8.8840940">
        <ele>40.7</ele>
        <time>2021-05-19T07:34:38Z</time>
      </trkpt>
      <trkpt lat="41.9878220" lon="-8.8840970">
        <ele>40.7</ele>
        <time>2021-05-19T07:34:39Z</time>
      </trkpt>
      <trkpt lat="41.9878220" lon="-8.8840950">
        <ele>40.7</ele>
        <time>2021-05-19T07:34:40Z</time>
      </trkpt>
      <trkpt lat="41.9878250" lon="-8.8841000">
        <ele>40.7</ele>
        <time>2021-05-19T07:34:41Z</time>
      </trkpt>
      <trkpt lat="41.9878250" lon="-8.8841000">
        <ele>40.7</ele>
        <time>2021-05-19T07:34:42Z</time>
      </trkpt>
      <trkpt lat="41.9878250" lon="-8.8840980">
        <ele>40.7</ele>
        <time>2021-05-19T07:34:43Z</time>
      </trkpt>
      <trkpt lat="41.9878250" lon="-8.8840970">
        <ele>40.7</ele>
        <time>2021-05-19T07:34:44Z</time>
      </trkpt>
      <trkpt lat="41.9878230" lon="-8.8840980">
        <ele>40.7</ele>
        <time>2021-05-19T07:34:45Z</time>
      </trkpt>
      <trkpt lat="41.9878200" lon="-8.8840980">
        <ele>40.7</ele>
        <time>2021-05-19T07:34:46Z</time>
      </trkpt>
      <trkpt lat="41.9878160" lon="-8.8840970">
        <ele>40.7</ele>
        <time>2021-05-19T07:34:47Z</time>
      </trkpt>
      <trkpt lat="41.9878110" lon="-8.8841060">
        <ele>40.7</ele>
        <time>2021-05-19T07:34:48Z</time>
      </trkpt>
      <trkpt lat="41.9878150" lon="-8.8841060">
        <ele>40.7</ele>
        <time>2021-05-19T07:34:49Z</time>
      </trkpt>
      <trkpt lat="41.9878170" lon="-8.8841030">
        <ele>40.7</ele>
        <time>2021-05-19T07:34:50Z</time>
      </trkpt>
      <trkpt lat="41.9878170" lon="-8.8841020">
        <ele>40.7</ele>
        <time>2021-05-19T07:34:51Z</time>
      </trkpt>
      <trkpt lat="41.9878200" lon="-8.8841020">
        <ele>40.7</ele>
        <time>2021-05-19T07:34:52Z</time>
      </trkpt>
      <trkpt lat="41.9878200" lon="-8.8841030">
        <ele>40.7</ele>
        <time>2021-05-19T07:34:53Z</time>
      </trkpt>
      <trkpt lat="41.9878220" lon="-8.8841010">
        <ele>40.7</ele>
        <time>2021-05-19T07:34:54Z</time>
      </trkpt>
      <trkpt lat="41.9878260" lon="-8.8841010">
        <ele>40.7</ele>
        <time>2021-05-19T07:34:55Z</time>
      </trkpt>
      <trkpt lat="41.9878290" lon="-8.8841090">
        <ele>40.7</ele>
        <time>2021-05-19T07:34:56Z</time>
      </trkpt>
      <trkpt lat="41.9878310" lon="-8.8841090">
        <ele>40.7</ele>
        <time>2021-05-19T07:34:57Z</time>
      </trkpt>
      <trkpt lat="41.9878350" lon="-8.8841130">
        <ele>40.7</ele>
        <time>2021-05-19T07:34:58Z</time>
      </trkpt>
      <trkpt lat="41.9878360" lon="-8.8841180">
        <ele>40.6</ele>
        <time>2021-05-19T07:34:59Z</time>
      </trkpt>
      <trkpt lat="41.9878410" lon="-8.8841190">
        <ele>40.6</ele>
        <time>2021-05-19T07:35:00Z</time>
      </trkpt>
      <trkpt lat="41.9878430" lon="-8.8841160">
        <ele>40.6</ele>
        <time>2021-05-19T07:35:01Z</time>
      </trkpt>
      <trkpt lat="41.9878400" lon="-8.8841230">
        <ele>40.6</ele>
        <time>2021-05-19T07:35:02Z</time>
      </trkpt>
      <trkpt lat="41.9878400" lon="-8.8841270">
        <ele>40.6</ele>
        <time>2021-05-19T07:35:03Z</time>
      </trkpt>
      <trkpt lat="41.9878370" lon="-8.8841250">
        <ele>40.6</ele>
        <time>2021-05-19T07:35:04Z</time>
      </trkpt>
      <trkpt lat="41.9878390" lon="-8.8841270">
        <ele>40.6</ele>
        <time>2021-05-19T07:35:05Z</time>
      </trkpt>
      <trkpt lat="41.9878370" lon="-8.8841240">
        <ele>40.6</ele>
        <time>2021-05-19T07:35:06Z</time>
      </trkpt>
      <trkpt lat="41.9878340" lon="-8.8841180">
        <ele>40.6</ele>
        <time>2021-05-19T07:35:07Z</time>
      </trkpt>
      <trkpt lat="41.9878320" lon="-8.8841100">
        <ele>40.6</ele>
        <time>2021-05-19T07:35:08Z</time>
      </trkpt>
      <trkpt lat="41.9878360" lon="-8.8841050">
        <ele>40.6</ele>
        <time>2021-05-19T07:35:09Z</time>
      </trkpt>
      <trkpt lat="41.9878390" lon="-8.8840980">
        <ele>40.6</ele>
        <time>2021-05-19T07:35:10Z</time>
      </trkpt>
      <trkpt lat="41.9878440" lon="-8.8840910">
        <ele>40.6</ele>
        <time>2021-05-19T07:35:11Z</time>
      </trkpt>
      <trkpt lat="41.9878470" lon="-8.8840840">
        <ele>40.6</ele>
        <time>2021-05-19T07:35:12Z</time>
      </trkpt>
      <trkpt lat="41.9878470" lon="-8.8840710">
        <ele>40.6</ele>
        <time>2021-05-19T07:35:13Z</time>
      </trkpt>
      <trkpt lat="41.9878510" lon="-8.8840660">
        <ele>40.6</ele>
        <time>2021-05-19T07:35:14Z</time>
      </trkpt>
      <trkpt lat="41.9878540" lon="-8.8840550">
        <ele>40.6</ele>
        <time>2021-05-19T07:35:15Z</time>
      </trkpt>
      <trkpt lat="41.9878580" lon="-8.8840480">
        <ele>40.6</ele>
        <time>2021-05-19T07:35:16Z</time>
      </trkpt>
      <trkpt lat="41.9878640" lon="-8.8840360">
        <ele>40.5</ele>
        <time>2021-05-19T07:35:17Z</time>
      </trkpt>
      <trkpt lat="41.9878690" lon="-8.8840220">
        <ele>40.5</ele>
        <time>2021-05-19T07:35:18Z</time>
      </trkpt>
      <trkpt lat="41.9878720" lon="-8.8840130">
        <ele>40.5</ele>
        <time>2021-05-19T07:35:19Z</time>
      </trkpt>
      <trkpt lat="41.9878750" lon="-8.8840050">
        <ele>40.5</ele>
        <time>2021-05-19T07:35:20Z</time>
      </trkpt>
      <trkpt lat="41.9878820" lon="-8.8839950">
        <ele>40.5</ele>
        <time>2021-05-19T07:35:21Z</time>
      </trkpt>
      <trkpt lat="41.9878840" lon="-8.8839800">
        <ele>40.5</ele>
        <time>2021-05-19T07:35:22Z</time>
      </trkpt>
      <trkpt lat="41.9878850" lon="-8.8839670">
        <ele>40.5</ele>
        <time>2021-05-19T07:35:23Z</time>
      </trkpt>
      <trkpt lat="41.9878930" lon="-8.8839590">
        <ele>40.5</ele>
        <time>2021-05-19T07:35:24Z</time>
      </trkpt>
      <trkpt lat="41.9879030" lon="-8.8839480">
        <ele>40.5</ele>
        <time>2021-05-19T07:35:25Z</time>
      </trkpt>
      <trkpt lat="41.9879130" lon="-8.8839410">
        <ele>40.4</ele>
        <time>2021-05-19T07:35:26Z</time>
      </trkpt>
      <trkpt lat="41.9879290" lon="-8.8839380">
        <ele>40.4</ele>
        <time>2021-05-19T07:35:27Z</time>
      </trkpt>
      <trkpt lat="41.9879360" lon="-8.8839350">
        <ele>40.4</ele>
        <time>2021-05-19T07:35:28Z</time>
      </trkpt>
      <trkpt lat="41.9879430" lon="-8.8839330">
        <ele>40.4</ele>
        <time>2021-05-19T07:35:29Z</time>
      </trkpt>
      <trkpt lat="41.9879500" lon="-8.8839300">
        <ele>40.4</ele>
        <time>2021-05-19T07:35:30Z</time>
      </trkpt>
      <trkpt lat="41.9879600" lon="-8.8839270">
        <ele>40.4</ele>
        <time>2021-05-19T07:35:31Z</time>
      </trkpt>
      <trkpt lat="41.9879760" lon="-8.8839230">
        <ele>40.4</ele>
        <time>2021-05-19T07:35:32Z</time>
      </trkpt>
      <trkpt lat="41.9879850" lon="-8.8839180">
        <ele>40.3</ele>
        <time>2021-05-19T07:35:33Z</time>
      </trkpt>
      <trkpt lat="41.9879960" lon="-8.8839160">
        <ele>40.3</ele>
        <time>2021-05-19T07:35:34Z</time>
      </trkpt>
      <trkpt lat="41.9880020" lon="-8.8839130">
        <ele>40.3</ele>
        <time>2021-05-19T07:35:35Z</time>
      </trkpt>
      <trkpt lat="41.9880120" lon="-8.8839080">
        <ele>40.3</ele>
        <time>2021-05-19T07:35:36Z</time>
      </trkpt>
      <trkpt lat="41.9880250" lon="-8.8839000">
        <ele>40.3</ele>
        <time>2021-05-19T07:35:37Z</time>
      </trkpt>
      <trkpt lat="41.9880320" lon="-8.8838930">
        <ele>40.3</ele>
        <time>2021-05-19T07:35:38Z</time>
      </trkpt>
      <trkpt lat="41.9880450" lon="-8.8838880">
        <ele>40.3</ele>
        <time>2021-05-19T07:35:39Z</time>
      </trkpt>
      <trkpt lat="41.9880520" lon="-8.8838800">
        <ele>40.2</ele>
        <time>2021-05-19T07:35:40Z</time>
      </trkpt>
      <trkpt lat="41.9880650" lon="-8.8838710">
        <ele>40.2</ele>
        <time>2021-05-19T07:35:41Z</time>
      </trkpt>
      <trkpt lat="41.9880750" lon="-8.8838650">
        <ele>40.2</ele>
        <time>2021-05-19T07:35:42Z</time>
      </trkpt>
      <trkpt lat="41.9880900" lon="-8.8838590">
        <ele>40.2</ele>
        <time>2021-05-19T07:35:43Z</time>
      </trkpt>
      <trkpt lat="41.9881030" lon="-8.8838560">
        <ele>40.2</ele>
        <time>2021-05-19T07:35:44Z</time>
      </trkpt>
      <trkpt lat="41.9881220" lon="-8.8838590">
        <ele>40.1</ele>
        <time>2021-05-19T07:35:45Z</time>
      </trkpt>
      <trkpt lat="41.9881330" lon="-8.8838490">
        <ele>40.1</ele>
        <time>2021-05-19T07:35:46Z</time>
      </trkpt>
      <trkpt lat="41.9881370" lon="-8.8838400">
        <ele>40.1</ele>
        <time>2021-05-19T07:35:47Z</time>
      </trkpt>
      <trkpt lat="41.9881580" lon="-8.8838300">
        <ele>40.0</ele>
        <time>2021-05-19T07:35:48Z</time>
      </trkpt>
      <trkpt lat="41.9881680" lon="-8.8838270">
        <ele>40.0</ele>
        <time>2021-05-19T07:35:49Z</time>
      </trkpt>
      <trkpt lat="41.9881770" lon="-8.8838160">
        <ele>40.0</ele>
        <time>2021-05-19T07:35:50Z</time>
      </trkpt>
      <trkpt lat="41.9881840" lon="-8.8838080">
        <ele>40.0</ele>
        <time>2021-05-19T07:35:51Z</time>
      </trkpt>
      <trkpt lat="41.9881920" lon="-8.8837990">
        <ele>40.0</ele>
        <time>2021-05-19T07:35:52Z</time>
      </trkpt>
      <trkpt lat="41.9882010" lon="-8.8837900">
        <ele>40.0</ele>
        <time>2021-05-19T07:35:53Z</time>
      </trkpt>
      <trkpt lat="41.9882060" lon="-8.8837840">
        <ele>39.9</ele>
        <time>2021-05-19T07:35:54Z</time>
      </trkpt>
      <trkpt lat="41.9882170" lon="-8.8837740">
        <ele>39.9</ele>
        <time>2021-05-19T07:35:55Z</time>
      </trkpt>
      <trkpt lat="41.9882310" lon="-8.8837710">
        <ele>39.9</ele>
        <time>2021-05-19T07:35:56Z</time>
      </trkpt>
      <trkpt lat="41.9882490" lon="-8.8837590">
        <ele>39.9</ele>
        <time>2021-05-19T07:35:57Z</time>
      </trkpt>
      <trkpt lat="41.9882580" lon="-8.8837550">
        <ele>39.8</ele>
        <time>2021-05-19T07:35:58Z</time>
      </trkpt>
      <trkpt lat="41.9882660" lon="-8.8837500">
        <ele>39.8</ele>
        <time>2021-05-19T07:35:59Z</time>
      </trkpt>
      <trkpt lat="41.9882860" lon="-8.8837410">
        <ele>39.8</ele>
        <time>2021-05-19T07:36:00Z</time>
      </trkpt>
      <trkpt lat="41.9882930" lon="-8.8837360">
        <ele>39.8</ele>
        <time>2021-05-19T07:36:01Z</time>
      </trkpt>
      <trkpt lat="41.9883010" lon="-8.8837300">
        <ele>39.8</ele>
        <time>2021-05-19T07:36:02Z</time>
      </trkpt>
      <trkpt lat="41.9883140" lon="-8.8837170">
        <ele>39.7</ele>
        <time>2021-05-19T07:36:03Z</time>
      </trkpt>
      <trkpt lat="41.9883170" lon="-8.8837100">
        <ele>39.7</ele>
        <time>2021-05-19T07:36:04Z</time>
      </trkpt>
      <trkpt lat="41.9883160" lon="-8.8837000">
        <ele>39.7</ele>
        <time>2021-05-19T07:36:05Z</time>
      </trkpt>
      <trkpt lat="41.9883150" lon="-8.8836930">
        <ele>39.7</ele>
        <time>2021-05-19T07:36:06Z</time>
      </trkpt>
      <trkpt lat="41.9883210" lon="-8.8836610">
        <ele>39.7</ele>
        <time>2021-05-19T07:36:07Z</time>
      </trkpt>
      <trkpt lat="41.9883190" lon="-8.8836340">
        <ele>39.6</ele>
        <time>2021-05-19T07:36:08Z</time>
      </trkpt>
      <trkpt lat="41.9883280" lon="-8.8836240">
        <ele>39.6</ele>
        <time>2021-05-19T07:36:09Z</time>
      </trkpt>
      <trkpt lat="41.9883340" lon="-8.8836130">
        <ele>39.6</ele>
        <time>2021-05-19T07:36:10Z</time>
      </trkpt>
      <trkpt lat="41.9883470" lon="-8.8835900">
        <ele>39.6</ele>
        <time>2021-05-19T07:36:11Z</time>
      </trkpt>
      <trkpt lat="41.9883540" lon="-8.8835790">
        <ele>39.5</ele>
        <time>2021-05-19T07:36:12Z</time>
      </trkpt>
      <trkpt lat="41.9883690" lon="-8.8835680">
        <ele>39.5</ele>
        <time>2021-05-19T07:36:13Z</time>
      </trkpt>
      <trkpt lat="41.9883790" lon="-8.8835560">
        <ele>39.5</ele>
        <time>2021-05-19T07:36:14Z</time>
      </trkpt>
      <trkpt lat="41.9883900" lon="-8.8835420">
        <ele>39.5</ele>
        <time>2021-05-19T07:36:15Z</time>
      </trkpt>
      <trkpt lat="41.9883950" lon="-8.8835310">
        <ele>39.4</ele>
        <time>2021-05-19T07:36:16Z</time>
      </trkpt>
      <trkpt lat="41.9884010" lon="-8.8835240">
        <ele>39.4</ele>
        <time>2021-05-19T07:36:17Z</time>
      </trkpt>
      <trkpt lat="41.9884180" lon="-8.8835170">
        <ele>39.4</ele>
        <time>2021-05-19T07:36:18Z</time>
      </trkpt>
      <trkpt lat="41.9884490" lon="-8.8835010">
        <ele>39.4</ele>
        <time>2021-05-19T07:36:19Z</time>
      </trkpt>
      <trkpt lat="41.9884590" lon="-8.8834960">
        <ele>39.3</ele>
        <time>2021-05-19T07:36:20Z</time>
      </trkpt>
      <trkpt lat="41.9884800" lon="-8.8834840">
        <ele>39.3</ele>
        <time>2021-05-19T07:36:21Z</time>
      </trkpt>
      <trkpt lat="41.9884890" lon="-8.8834800">
        <ele>39.3</ele>
        <time>2021-05-19T07:36:22Z</time>
      </trkpt>
      <trkpt lat="41.9884990" lon="-8.8834750">
        <ele>39.3</ele>
        <time>2021-05-19T07:36:23Z</time>
      </trkpt>
      <trkpt lat="41.9885110" lon="-8.8834640">
        <ele>39.3</ele>
        <time>2021-05-19T07:36:24Z</time>
      </trkpt>
      <trkpt lat="41.9885230" lon="-8.8834550">
        <ele>39.2</ele>
        <time>2021-05-19T07:36:25Z</time>
      </trkpt>
      <trkpt lat="41.9885380" lon="-8.8834490">
        <ele>39.2</ele>
        <time>2021-05-19T07:36:26Z</time>
      </trkpt>
      <trkpt lat="41.9885490" lon="-8.8834420">
        <ele>39.2</ele>
        <time>2021-05-19T07:36:27Z</time>
      </trkpt>
      <trkpt lat="41.9885680" lon="-8.8834310">
        <ele>39.2</ele>
        <time>2021-05-19T07:36:28Z</time>
      </trkpt>
      <trkpt lat="41.9885790" lon="-8.8834220">
        <ele>39.2</ele>
        <time>2021-05-19T07:36:29Z</time>
      </trkpt>
      <trkpt lat="41.9885910" lon="-8.8834130">
        <ele>39.2</ele>
        <time>2021-05-19T07:36:30Z</time>
      </trkpt>
      <trkpt lat="41.9886080" lon="-8.8834140">
        <ele>39.2</ele>
        <time>2021-05-19T07:36:31Z</time>
      </trkpt>
      <trkpt lat="41.9886170" lon="-8.8834100">
        <ele>39.2</ele>
        <time>2021-05-19T07:36:32Z</time>
      </trkpt>
      <trkpt lat="41.9886250" lon="-8.8834000">
        <ele>39.1</ele>
        <time>2021-05-19T07:36:33Z</time>
      </trkpt>
      <trkpt lat="41.9886380" lon="-8.8833880">
        <ele>39.1</ele>
        <time>2021-05-19T07:36:34Z</time>
      </trkpt>
      <trkpt lat="41.9886520" lon="-8.8833660">
        <ele>39.1</ele>
        <time>2021-05-19T07:36:35Z</time>
      </trkpt>
      <trkpt lat="41.9886580" lon="-8.8833600">
        <ele>39.1</ele>
        <time>2021-05-19T07:36:36Z</time>
      </trkpt>
      <trkpt lat="41.9886640" lon="-8.8833530">
        <ele>39.1</ele>
        <time>2021-05-19T07:36:37Z</time>
      </trkpt>
      <trkpt lat="41.9886770" lon="-8.8833390">
        <ele>39.1</ele>
        <time>2021-05-19T07:36:38Z</time>
      </trkpt>
      <trkpt lat="41.9886880" lon="-8.8833270">
        <ele>39.1</ele>
        <time>2021-05-19T07:36:39Z</time>
      </trkpt>
      <trkpt lat="41.9886950" lon="-8.8833250">
        <ele>39.1</ele>
        <time>2021-05-19T07:36:40Z</time>
      </trkpt>
      <trkpt lat="41.9887090" lon="-8.8833210">
        <ele>39.1</ele>
        <time>2021-05-19T07:36:41Z</time>
      </trkpt>
      <trkpt lat="41.9887200" lon="-8.8833150">
        <ele>39.0</ele>
        <time>2021-05-19T07:36:42Z</time>
      </trkpt>
      <trkpt lat="41.9887380" lon="-8.8832960">
        <ele>39.0</ele>
        <time>2021-05-19T07:36:43Z</time>
      </trkpt>
      <trkpt lat="41.9887430" lon="-8.8832890">
        <ele>39.0</ele>
        <time>2021-05-19T07:36:44Z</time>
      </trkpt>
      <trkpt lat="41.9887470" lon="-8.8832820">
        <ele>39.0</ele>
        <time>2021-05-19T07:36:45Z</time>
      </trkpt>
      <trkpt lat="41.9887650" lon="-8.8832750">
        <ele>39.0</ele>
        <time>2021-05-19T07:36:46Z</time>
      </trkpt>
      <trkpt lat="41.9887730" lon="-8.8832690">
        <ele>39.0</ele>
        <time>2021-05-19T07:36:47Z</time>
      </trkpt>
      <trkpt lat="41.9887820" lon="-8.8832630">
        <ele>39.0</ele>
        <time>2021-05-19T07:36:48Z</time>
      </trkpt>
      <trkpt lat="41.9887990" lon="-8.8832440">
        <ele>39.0</ele>
        <time>2021-05-19T07:36:49Z</time>
      </trkpt>
      <trkpt lat="41.9888060" lon="-8.8832390">
        <ele>39.0</ele>
        <time>2021-05-19T07:36:50Z</time>
      </trkpt>
      <trkpt lat="41.9888130" lon="-8.8832350">
        <ele>39.0</ele>
        <time>2021-05-19T07:36:51Z</time>
      </trkpt>
      <trkpt lat="41.9888280" lon="-8.8832230">
        <ele>38.9</ele>
        <time>2021-05-19T07:36:52Z</time>
      </trkpt>
      <trkpt lat="41.9888410" lon="-8.8832190">
        <ele>38.9</ele>
        <time>2021-05-19T07:36:53Z</time>
      </trkpt>
      <trkpt lat="41.9888550" lon="-8.8832080">
        <ele>38.9</ele>
        <time>2021-05-19T07:36:54Z</time>
      </trkpt>
      <trkpt lat="41.9888680" lon="-8.8831940">
        <ele>38.9</ele>
        <time>2021-05-19T07:36:55Z</time>
      </trkpt>
      <trkpt lat="41.9888790" lon="-8.8831830">
        <ele>38.9</ele>
        <time>2021-05-19T07:36:56Z</time>
      </trkpt>
      <trkpt lat="41.9888920" lon="-8.8831770">
        <ele>38.9</ele>
        <time>2021-05-19T07:36:57Z</time>
      </trkpt>
      <trkpt lat="41.9888890" lon="-8.8831650">
        <ele>38.9</ele>
        <time>2021-05-19T07:36:58Z</time>
      </trkpt>
      <trkpt lat="41.9888750" lon="-8.8831650">
        <ele>38.9</ele>
        <time>2021-05-19T07:36:59Z</time>
      </trkpt>
      <trkpt lat="41.9888680" lon="-8.8831580">
        <ele>38.9</ele>
        <time>2021-05-19T07:37:00Z</time>
      </trkpt>
      <trkpt lat="41.9888640" lon="-8.8831500">
        <ele>38.9</ele>
        <time>2021-05-19T07:37:01Z</time>
      </trkpt>
      <trkpt lat="41.9888600" lon="-8.8831390">
        <ele>38.9</ele>
        <time>2021-05-19T07:37:02Z</time>
      </trkpt>
      <trkpt lat="41.9888600" lon="-8.8831130">
        <ele>38.8</ele>
        <time>2021-05-19T07:37:03Z</time>
      </trkpt>
      <trkpt lat="41.9888690" lon="-8.8830990">
        <ele>38.8</ele>
        <time>2021-05-19T07:37:04Z</time>
      </trkpt>
      <trkpt lat="41.9888740" lon="-8.8831020">
        <ele>38.8</ele>
        <time>2021-05-19T07:37:05Z</time>
      </trkpt>
      <trkpt lat="41.9888780" lon="-8.8831000">
        <ele>38.8</ele>
        <time>2021-05-19T07:37:06Z</time>
      </trkpt>
      <trkpt lat="41.9888800" lon="-8.8830980">
        <ele>38.8</ele>
        <time>2021-05-19T07:37:07Z</time>
      </trkpt>
      <trkpt lat="41.9888800" lon="-8.8830930">
        <ele>38.8</ele>
        <time>2021-05-19T07:37:08Z</time>
      </trkpt>
      <trkpt lat="41.9888850" lon="-8.8830830">
        <ele>38.8</ele>
        <time>2021-05-19T07:37:09Z</time>
      </trkpt>
      <trkpt lat="41.9888770" lon="-8.8830830">
        <ele>38.8</ele>
        <time>2021-05-19T07:37:10Z</time>
      </trkpt>
      <trkpt lat="41.9888710" lon="-8.8830840">
        <ele>38.8</ele>
        <time>2021-05-19T07:37:11Z</time>
      </trkpt>
      <trkpt lat="41.9888720" lon="-8.8830860">
        <ele>38.8</ele>
        <time>2021-05-19T07:37:12Z</time>
      </trkpt>
      <trkpt lat="41.9888650" lon="-8.8830810">
        <ele>38.8</ele>
        <time>2021-05-19T07:37:13Z</time>
      </trkpt>
      <trkpt lat="41.9888530" lon="-8.8830620">
        <ele>38.8</ele>
        <time>2021-05-19T07:37:14Z</time>
      </trkpt>
      <trkpt lat="41.9888660" lon="-8.8830550">
        <ele>38.8</ele>
        <time>2021-05-19T07:37:15Z</time>
      </trkpt>
      <trkpt lat="41.9888740" lon="-8.8830530">
        <ele>38.8</ele>
        <time>2021-05-19T07:37:16Z</time>
      </trkpt>
      <trkpt lat="41.9888780" lon="-8.8830490">
        <ele>38.8</ele>
        <time>2021-05-19T07:37:17Z</time>
      </trkpt>
      <trkpt lat="41.9889000" lon="-8.8830350">
        <ele>38.8</ele>
        <time>2021-05-19T07:37:18Z</time>
      </trkpt>
      <trkpt lat="41.9889110" lon="-8.8830290">
        <ele>38.8</ele>
        <time>2021-05-19T07:37:19Z</time>
      </trkpt>
      <trkpt lat="41.9889230" lon="-8.8830240">
        <ele>38.8</ele>
        <time>2021-05-19T07:37:20Z</time>
      </trkpt>
      <trkpt lat="41.9889410" lon="-8.8830080">
        <ele>38.8</ele>
        <time>2021-05-19T07:37:21Z</time>
      </trkpt>
      <trkpt lat="41.9889510" lon="-8.8830080">
        <ele>38.8</ele>
        <time>2021-05-19T07:37:22Z</time>
      </trkpt>
      <trkpt lat="41.9889670" lon="-8.8829950">
        <ele>38.8</ele>
        <time>2021-05-19T07:37:23Z</time>
      </trkpt>
      <trkpt lat="41.9889760" lon="-8.8829880">
        <ele>38.8</ele>
        <time>2021-05-19T07:37:24Z</time>
      </trkpt>
      <trkpt lat="41.9889850" lon="-8.8829820">
        <ele>38.8</ele>
        <time>2021-05-19T07:37:25Z</time>
      </trkpt>
      <trkpt lat="41.9889930" lon="-8.8829850">
        <ele>38.8</ele>
        <time>2021-05-19T07:37:26Z</time>
      </trkpt>
      <trkpt lat="41.9890080" lon="-8.8829760">
        <ele>38.7</ele>
        <time>2021-05-19T07:37:27Z</time>
      </trkpt>
      <trkpt lat="41.9890180" lon="-8.8829770">
        <ele>38.7</ele>
        <time>2021-05-19T07:37:28Z</time>
      </trkpt>
      <trkpt lat="41.9890420" lon="-8.8829680">
        <ele>38.7</ele>
        <time>2021-05-19T07:37:29Z</time>
      </trkpt>
      <trkpt lat="41.9890510" lon="-8.8829630">
        <ele>38.7</ele>
        <time>2021-05-19T07:37:30Z</time>
      </trkpt>
      <trkpt lat="41.9890730" lon="-8.8829490">
        <ele>38.7</ele>
        <time>2021-05-19T07:37:31Z</time>
      </trkpt>
      <trkpt lat="41.9890860" lon="-8.8829440">
        <ele>38.7</ele>
        <time>2021-05-19T07:37:32Z</time>
      </trkpt>
      <trkpt lat="41.9890990" lon="-8.8829380">
        <ele>38.7</ele>
        <time>2021-05-19T07:37:33Z</time>
      </trkpt>
      <trkpt lat="41.9891100" lon="-8.8829230">
        <ele>38.7</ele>
        <time>2021-05-19T07:37:34Z</time>
      </trkpt>
      <trkpt lat="41.9891300" lon="-8.8829230">
        <ele>38.7</ele>
        <time>2021-05-19T07:37:35Z</time>
      </trkpt>
      <trkpt lat="41.9891400" lon="-8.8829020">
        <ele>38.7</ele>
        <time>2021-05-19T07:37:36Z</time>
      </trkpt>
      <trkpt lat="41.9891550" lon="-8.8828980">
        <ele>38.7</ele>
        <time>2021-05-19T07:37:37Z</time>
      </trkpt>
      <trkpt lat="41.9891670" lon="-8.8828870">
        <ele>38.7</ele>
        <time>2021-05-19T07:37:38Z</time>
      </trkpt>
      <trkpt lat="41.9891790" lon="-8.8828840">
        <ele>38.7</ele>
        <time>2021-05-19T07:37:39Z</time>
      </trkpt>
      <trkpt lat="41.9891860" lon="-8.8828750">
        <ele>38.7</ele>
        <time>2021-05-19T07:37:40Z</time>
      </trkpt>
      <trkpt lat="41.9892070" lon="-8.8828740">
        <ele>38.7</ele>
        <time>2021-05-19T07:37:41Z</time>
      </trkpt>
      <trkpt lat="41.9892150" lon="-8.8828690">
        <ele>38.7</ele>
        <time>2021-05-19T07:37:42Z</time>
      </trkpt>
      <trkpt lat="41.9892220" lon="-8.8828630">
        <ele>38.8</ele>
        <time>2021-05-19T07:37:43Z</time>
      </trkpt>
      <trkpt lat="41.9892300" lon="-8.8828570">
        <ele>38.8</ele>
        <time>2021-05-19T07:37:44Z</time>
      </trkpt>
      <trkpt lat="41.9892490" lon="-8.8828520">
        <ele>38.8</ele>
        <time>2021-05-19T07:37:45Z</time>
      </trkpt>
      <trkpt lat="41.9892590" lon="-8.8828550">
        <ele>38.8</ele>
        <time>2021-05-19T07:37:46Z</time>
      </trkpt>
      <trkpt lat="41.9892740" lon="-8.8828520">
        <ele>38.8</ele>
        <time>2021-05-19T07:37:47Z</time>
      </trkpt>
      <trkpt lat="41.9892850" lon="-8.8828410">
        <ele>38.8</ele>
        <time>2021-05-19T07:37:48Z</time>
      </trkpt>
      <trkpt lat="41.9893000" lon="-8.8828280">
        <ele>38.8</ele>
        <time>2021-05-19T07:37:49Z</time>
      </trkpt>
      <trkpt lat="41.9893070" lon="-8.8828250">
        <ele>38.8</ele>
        <time>2021-05-19T07:37:50Z</time>
      </trkpt>
      <trkpt lat="41.9893130" lon="-8.8828210">
        <ele>38.8</ele>
        <time>2021-05-19T07:37:51Z</time>
      </trkpt>
      <trkpt lat="41.9893190" lon="-8.8828170">
        <ele>38.8</ele>
        <time>2021-05-19T07:37:52Z</time>
      </trkpt>
      <trkpt lat="41.9893360" lon="-8.8828070">
        <ele>38.8</ele>
        <time>2021-05-19T07:37:53Z</time>
      </trkpt>
      <trkpt lat="41.9893450" lon="-8.8827970">
        <ele>38.8</ele>
        <time>2021-05-19T07:37:54Z</time>
      </trkpt>
      <trkpt lat="41.9893480" lon="-8.8827890">
        <ele>38.9</ele>
        <time>2021-05-19T07:37:55Z</time>
      </trkpt>
      <trkpt lat="41.9893530" lon="-8.8827830">
        <ele>38.9</ele>
        <time>2021-05-19T07:37:56Z</time>
      </trkpt>
      <trkpt lat="41.9893600" lon="-8.8827720">
        <ele>38.9</ele>
        <time>2021-05-19T07:37:57Z</time>
      </trkpt>
      <trkpt lat="41.9893670" lon="-8.8827660">
        <ele>38.9</ele>
        <time>2021-05-19T07:37:58Z</time>
      </trkpt>
      <trkpt lat="41.9893760" lon="-8.8827560">
        <ele>38.9</ele>
        <time>2021-05-19T07:37:59Z</time>
      </trkpt>
      <trkpt lat="41.9893920" lon="-8.8827520">
        <ele>38.9</ele>
        <time>2021-05-19T07:38:00Z</time>
      </trkpt>
      <trkpt lat="41.9894050" lon="-8.8827470">
        <ele>39.0</ele>
        <time>2021-05-19T07:38:01Z</time>
      </trkpt>
      <trkpt lat="41.9894150" lon="-8.8827400">
        <ele>39.0</ele>
        <time>2021-05-19T07:38:02Z</time>
      </trkpt>
      <trkpt lat="41.9894230" lon="-8.8827380">
        <ele>39.0</ele>
        <time>2021-05-19T07:38:03Z</time>
      </trkpt>
      <trkpt lat="41.9894400" lon="-8.8827320">
        <ele>39.0</ele>
        <time>2021-05-19T07:38:04Z</time>
      </trkpt>
      <trkpt lat="41.9894560" lon="-8.8827210">
        <ele>39.1</ele>
        <time>2021-05-19T07:38:05Z</time>
      </trkpt>
      <trkpt lat="41.9894620" lon="-8.8827230">
        <ele>39.1</ele>
        <time>2021-05-19T07:38:06Z</time>
      </trkpt>
      <trkpt lat="41.9894820" lon="-8.8827000">
        <ele>39.1</ele>
        <time>2021-05-19T07:38:07Z</time>
      </trkpt>
      <trkpt lat="41.9895070" lon="-8.8826750">
        <ele>39.2</ele>
        <time>2021-05-19T07:38:08Z</time>
      </trkpt>
      <trkpt lat="41.9895130" lon="-8.8826700">
        <ele>39.2</ele>
        <time>2021-05-19T07:38:09Z</time>
      </trkpt>
      <trkpt lat="41.9895290" lon="-8.8826490">
        <ele>39.2</ele>
        <time>2021-05-19T07:38:10Z</time>
      </trkpt>
      <trkpt lat="41.9895370" lon="-8.8826400">
        <ele>39.2</ele>
        <time>2021-05-19T07:38:11Z</time>
      </trkpt>
      <trkpt lat="41.9895460" lon="-8.8826310">
        <ele>39.3</ele>
        <time>2021-05-19T07:38:12Z</time>
      </trkpt>
      <trkpt lat="41.9895590" lon="-8.8826160">
        <ele>39.3</ele>
        <time>2021-05-19T07:38:13Z</time>
      </trkpt>
      <trkpt lat="41.9895660" lon="-8.8826050">
        <ele>39.3</ele>
        <time>2021-05-19T07:38:14Z</time>
      </trkpt>
      <trkpt lat="41.9895790" lon="-8.8826030">
        <ele>39.3</ele>
        <time>2021-05-19T07:38:15Z</time>
      </trkpt>
      <trkpt lat="41.9895950" lon="-8.8825900">
        <ele>39.4</ele>
        <time>2021-05-19T07:38:16Z</time>
      </trkpt>
      <trkpt lat="41.9896000" lon="-8.8825850">
        <ele>39.4</ele>
        <time>2021-05-19T07:38:17Z</time>
      </trkpt>
      <trkpt lat="41.9896090" lon="-8.8825820">
        <ele>39.4</ele>
        <time>2021-05-19T07:38:18Z</time>
      </trkpt>
      <trkpt lat="41.9896210" lon="-8.8825690">
        <ele>39.4</ele>
        <time>2021-05-19T07:38:19Z</time>
      </trkpt>
      <trkpt lat="41.9896270" lon="-8.8825640">
        <ele>39.4</ele>
        <time>2021-05-19T07:38:20Z</time>
      </trkpt>
      <trkpt lat="41.9896360" lon="-8.8825510">
        <ele>39.4</ele>
        <time>2021-05-19T07:38:21Z</time>
      </trkpt>
      <trkpt lat="41.9896440" lon="-8.8825510">
        <ele>39.4</ele>
        <time>2021-05-19T07:38:22Z</time>
      </trkpt>
      <trkpt lat="41.9896620" lon="-8.8825470">
        <ele>39.4</ele>
        <time>2021-05-19T07:38:23Z</time>
      </trkpt>
      <trkpt lat="41.9896730" lon="-8.8825460">
        <ele>39.4</ele>
        <time>2021-05-19T07:38:24Z</time>
      </trkpt>
      <trkpt lat="41.9896970" lon="-8.8825350">
        <ele>39.5</ele>
        <time>2021-05-19T07:38:25Z</time>
      </trkpt>
      <trkpt lat="41.9897040" lon="-8.8825330">
        <ele>39.5</ele>
        <time>2021-05-19T07:38:26Z</time>
      </trkpt>
      <trkpt lat="41.9897110" lon="-8.8825300">
        <ele>39.5</ele>
        <time>2021-05-19T07:38:27Z</time>
      </trkpt>
      <trkpt lat="41.9897260" lon="-8.8825220">
        <ele>39.5</ele>
        <time>2021-05-19T07:38:28Z</time>
      </trkpt>
      <trkpt lat="41.9897350" lon="-8.8825170">
        <ele>39.6</ele>
        <time>2021-05-19T07:38:29Z</time>
      </trkpt>
      <trkpt lat="41.9897450" lon="-8.8825110">
        <ele>39.6</ele>
        <time>2021-05-19T07:38:30Z</time>
      </trkpt>
      <trkpt lat="41.9897500" lon="-8.8825010">
        <ele>39.6</ele>
        <time>2021-05-19T07:38:31Z</time>
      </trkpt>
      <trkpt lat="41.9897650" lon="-8.8824970">
        <ele>39.6</ele>
        <time>2021-05-19T07:38:32Z</time>
      </trkpt>
      <trkpt lat="41.9897740" lon="-8.8824890">
        <ele>39.7</ele>
        <time>2021-05-19T07:38:33Z</time>
      </trkpt>
      <trkpt lat="41.9897910" lon="-8.8824810">
        <ele>39.7</ele>
        <time>2021-05-19T07:38:34Z</time>
      </trkpt>
      <trkpt lat="41.9897980" lon="-8.8824750">
        <ele>39.7</ele>
        <time>2021-05-19T07:38:35Z</time>
      </trkpt>
      <trkpt lat="41.9898060" lon="-8.8824680">
        <ele>39.7</ele>
        <time>2021-05-19T07:38:36Z</time>
      </trkpt>
      <trkpt lat="41.9898130" lon="-8.8824610">
        <ele>39.8</ele>
        <time>2021-05-19T07:38:37Z</time>
      </trkpt>
      <trkpt lat="41.9898300" lon="-8.8824420">
        <ele>39.8</ele>
        <time>2021-05-19T07:38:38Z</time>
      </trkpt>
      <trkpt lat="41.9898370" lon="-8.8824360">
        <ele>39.8</ele>
        <time>2021-05-19T07:38:39Z</time>
      </trkpt>
      <trkpt lat="41.9898430" lon="-8.8824300">
        <ele>39.8</ele>
        <time>2021-05-19T07:38:40Z</time>
      </trkpt>
      <trkpt lat="41.9898550" lon="-8.8824210">
        <ele>39.9</ele>
        <time>2021-05-19T07:38:41Z</time>
      </trkpt>
      <trkpt lat="41.9898650" lon="-8.8824110">
        <ele>39.9</ele>
        <time>2021-05-19T07:38:42Z</time>
      </trkpt>
      <trkpt lat="41.9898680" lon="-8.8824020">
        <ele>39.9</ele>
        <time>2021-05-19T07:38:43Z</time>
      </trkpt>
      <trkpt lat="41.9898900" lon="-8.8823880">
        <ele>40.0</ele>
        <time>2021-05-19T07:38:44Z</time>
      </trkpt>
      <trkpt lat="41.9898990" lon="-8.8823870">
        <ele>40.0</ele>
        <time>2021-05-19T07:38:45Z</time>
      </trkpt>
      <trkpt lat="41.9899070" lon="-8.8823850">
        <ele>39.9</ele>
        <time>2021-05-19T07:38:46Z</time>
      </trkpt>
      <trkpt lat="41.9899210" lon="-8.8823770">
        <ele>39.9</ele>
        <time>2021-05-19T07:38:47Z</time>
      </trkpt>
      <trkpt lat="41.9899260" lon="-8.8823740">
        <ele>39.9</ele>
        <time>2021-05-19T07:38:48Z</time>
      </trkpt>
      <trkpt lat="41.9899390" lon="-8.8823660">
        <ele>40.0</ele>
        <time>2021-05-19T07:38:49Z</time>
      </trkpt>
      <trkpt lat="41.9899630" lon="-8.8823540">
        <ele>40.0</ele>
        <time>2021-05-19T07:38:50Z</time>
      </trkpt>
      <trkpt lat="41.9899720" lon="-8.8823510">
        <ele>40.1</ele>
        <time>2021-05-19T07:38:51Z</time>
      </trkpt>
      <trkpt lat="41.9899800" lon="-8.8823480">
        <ele>40.1</ele>
        <time>2021-05-19T07:38:52Z</time>
      </trkpt>
      <trkpt lat="41.9899980" lon="-8.8823350">
        <ele>40.1</ele>
        <time>2021-05-19T07:38:53Z</time>
      </trkpt>
      <trkpt lat="41.9900060" lon="-8.8823300">
        <ele>40.1</ele>
        <time>2021-05-19T07:38:54Z</time>
      </trkpt>
      <trkpt lat="41.9900130" lon="-8.8823240">
        <ele>40.2</ele>
        <time>2021-05-19T07:38:55Z</time>
      </trkpt>
      <trkpt lat="41.9900330" lon="-8.8823130">
        <ele>40.2</ele>
        <time>2021-05-19T07:38:56Z</time>
      </trkpt>
      <trkpt lat="41.9900420" lon="-8.8823080">
        <ele>40.2</ele>
        <time>2021-05-19T07:38:57Z</time>
      </trkpt>
      <trkpt lat="41.9900530" lon="-8.8823030">
        <ele>40.3</ele>
        <time>2021-05-19T07:38:58Z</time>
      </trkpt>
      <trkpt lat="41.9900610" lon="-8.8822940">
        <ele>40.2</ele>
        <time>2021-05-19T07:38:59Z</time>
      </trkpt>
      <trkpt lat="41.9900710" lon="-8.8822910">
        <ele>40.2</ele>
        <time>2021-05-19T07:39:00Z</time>
      </trkpt>
      <trkpt lat="41.9900850" lon="-8.8822860">
        <ele>40.2</ele>
        <time>2021-05-19T07:39:01Z</time>
      </trkpt>
      <trkpt lat="41.9900970" lon="-8.8822770">
        <ele>40.3</ele>
        <time>2021-05-19T07:39:02Z</time>
      </trkpt>
      <trkpt lat="41.9901110" lon="-8.8822740">
        <ele>40.3</ele>
        <time>2021-05-19T07:39:03Z</time>
      </trkpt>
      <trkpt lat="41.9901280" lon="-8.8822740">
        <ele>40.3</ele>
        <time>2021-05-19T07:39:04Z</time>
      </trkpt>
      <trkpt lat="41.9901450" lon="-8.8822720">
        <ele>40.4</ele>
        <time>2021-05-19T07:39:05Z</time>
      </trkpt>
      <trkpt lat="41.9901500" lon="-8.8822660">
        <ele>40.4</ele>
        <time>2021-05-19T07:39:06Z</time>
      </trkpt>
      <trkpt lat="41.9901610" lon="-8.8822600">
        <ele>40.4</ele>
        <time>2021-05-19T07:39:07Z</time>
      </trkpt>
      <trkpt lat="41.9901790" lon="-8.8822440">
        <ele>40.4</ele>
        <time>2021-05-19T07:39:08Z</time>
      </trkpt>
      <trkpt lat="41.9901830" lon="-8.8822390">
        <ele>40.4</ele>
        <time>2021-05-19T07:39:09Z</time>
      </trkpt>
      <trkpt lat="41.9901870" lon="-8.8822330">
        <ele>40.5</ele>
        <time>2021-05-19T07:39:10Z</time>
      </trkpt>
      <trkpt lat="41.9901910" lon="-8.8822280">
        <ele>40.5</ele>
        <time>2021-05-19T07:39:11Z</time>
      </trkpt>
      <trkpt lat="41.9902070" lon="-8.8822170">
        <ele>40.5</ele>
        <time>2021-05-19T07:39:12Z</time>
      </trkpt>
      <trkpt lat="41.9902170" lon="-8.8822130">
        <ele>40.5</ele>
        <time>2021-05-19T07:39:13Z</time>
      </trkpt>
      <trkpt lat="41.9902290" lon="-8.8821970">
        <ele>40.5</ele>
        <time>2021-05-19T07:39:14Z</time>
      </trkpt>
      <trkpt lat="41.9902350" lon="-8.8821890">
        <ele>40.6</ele>
        <time>2021-05-19T07:39:15Z</time>
      </trkpt>
      <trkpt lat="41.9902400" lon="-8.8821800">
        <ele>40.6</ele>
        <time>2021-05-19T07:39:16Z</time>
      </trkpt>
      <trkpt lat="41.9902460" lon="-8.8821720">
        <ele>40.6</ele>
        <time>2021-05-19T07:39:17Z</time>
      </trkpt>
      <trkpt lat="41.9902500" lon="-8.8821550">
        <ele>40.6</ele>
        <time>2021-05-19T07:39:18Z</time>
      </trkpt>
      <trkpt lat="41.9902570" lon="-8.8821490">
        <ele>40.6</ele>
        <time>2021-05-19T07:39:19Z</time>
      </trkpt>
      <trkpt lat="41.9902680" lon="-8.8821430">
        <ele>40.7</ele>
        <time>2021-05-19T07:39:20Z</time>
      </trkpt>
      <trkpt lat="41.9902840" lon="-8.8821290">
        <ele>40.7</ele>
        <time>2021-05-19T07:39:21Z</time>
      </trkpt>
      <trkpt lat="41.9902940" lon="-8.8821200">
        <ele>40.7</ele>
        <time>2021-05-19T07:39:22Z</time>
      </trkpt>
      <trkpt lat="41.9903040" lon="-8.8821110">
        <ele>40.7</ele>
        <time>2021-05-19T07:39:23Z</time>
      </trkpt>
      <trkpt lat="41.9903180" lon="-8.8821050">
        <ele>40.7</ele>
        <time>2021-05-19T07:39:24Z</time>
      </trkpt>
      <trkpt lat="41.9903310" lon="-8.8821030">
        <ele>40.7</ele>
        <time>2021-05-19T07:39:25Z</time>
      </trkpt>
      <trkpt lat="41.9903430" lon="-8.8820840">
        <ele>40.7</ele>
        <time>2021-05-19T07:39:26Z</time>
      </trkpt>
      <trkpt lat="41.9903540" lon="-8.8820730">
        <ele>40.8</ele>
        <time>2021-05-19T07:39:27Z</time>
      </trkpt>
      <trkpt lat="41.9903750" lon="-8.8820650">
        <ele>40.8</ele>
        <time>2021-05-19T07:39:28Z</time>
      </trkpt>
      <trkpt lat="41.9903860" lon="-8.8820540">
        <ele>40.8</ele>
        <time>2021-05-19T07:39:29Z</time>
      </trkpt>
      <trkpt lat="41.9903960" lon="-8.8820480">
        <ele>40.8</ele>
        <time>2021-05-19T07:39:30Z</time>
      </trkpt>
      <trkpt lat="41.9904050" lon="-8.8820450">
        <ele>40.8</ele>
        <time>2021-05-19T07:39:31Z</time>
      </trkpt>
      <trkpt lat="41.9904200" lon="-8.8820370">
        <ele>40.9</ele>
        <time>2021-05-19T07:39:32Z</time>
      </trkpt>
      <trkpt lat="41.9904500" lon="-8.8820150">
        <ele>40.9</ele>
        <time>2021-05-19T07:39:33Z</time>
      </trkpt>
      <trkpt lat="41.9904630" lon="-8.8820080">
        <ele>40.9</ele>
        <time>2021-05-19T07:39:34Z</time>
      </trkpt>
      <trkpt lat="41.9904770" lon="-8.8819990">
        <ele>41.0</ele>
        <time>2021-05-19T07:39:35Z</time>
      </trkpt>
      <trkpt lat="41.9904910" lon="-8.8819950">
        <ele>41.0</ele>
        <time>2021-05-19T07:39:36Z</time>
      </trkpt>
      <trkpt lat="41.9905040" lon="-8.8819830">
        <ele>41.0</ele>
        <time>2021-05-19T07:39:37Z</time>
      </trkpt>
      <trkpt lat="41.9905110" lon="-8.8819720">
        <ele>41.0</ele>
        <time>2021-05-19T07:39:38Z</time>
      </trkpt>
      <trkpt lat="41.9905200" lon="-8.8819680">
        <ele>41.0</ele>
        <time>2021-05-19T07:39:39Z</time>
      </trkpt>
      <trkpt lat="41.9905390" lon="-8.8819640">
        <ele>41.1</ele>
        <time>2021-05-19T07:39:40Z</time>
      </trkpt>
      <trkpt lat="41.9905490" lon="-8.8819630">
        <ele>41.1</ele>
        <time>2021-05-19T07:39:41Z</time>
      </trkpt>
      <trkpt lat="41.9905660" lon="-8.8819480">
        <ele>41.1</ele>
        <time>2021-05-19T07:39:42Z</time>
      </trkpt>
      <trkpt lat="41.9905810" lon="-8.8819390">
        <ele>41.2</ele>
        <time>2021-05-19T07:39:43Z</time>
      </trkpt>
      <trkpt lat="41.9906030" lon="-8.8819270">
        <ele>41.2</ele>
        <time>2021-05-19T07:39:44Z</time>
      </trkpt>
      <trkpt lat="41.9906090" lon="-8.8819220">
        <ele>41.2</ele>
        <time>2021-05-19T07:39:45Z</time>
      </trkpt>
      <trkpt lat="41.9906160" lon="-8.8819160">
        <ele>41.2</ele>
        <time>2021-05-19T07:39:46Z</time>
      </trkpt>
      <trkpt lat="41.9906330" lon="-8.8819100">
        <ele>41.3</ele>
        <time>2021-05-19T07:39:47Z</time>
      </trkpt>
      <trkpt lat="41.9906400" lon="-8.8819030">
        <ele>41.3</ele>
        <time>2021-05-19T07:39:48Z</time>
      </trkpt>
      <trkpt lat="41.9906480" lon="-8.8819030">
        <ele>41.3</ele>
        <time>2021-05-19T07:39:49Z</time>
      </trkpt>
      <trkpt lat="41.9906620" lon="-8.8818950">
        <ele>41.3</ele>
        <time>2021-05-19T07:39:50Z</time>
      </trkpt>
      <trkpt lat="41.9906700" lon="-8.8818940">
        <ele>41.3</ele>
        <time>2021-05-19T07:39:51Z</time>
      </trkpt>
      <trkpt lat="41.9906810" lon="-8.8818820">
        <ele>41.4</ele>
        <time>2021-05-19T07:39:52Z</time>
      </trkpt>
      <trkpt lat="41.9906880" lon="-8.8818790">
        <ele>41.4</ele>
        <time>2021-05-19T07:39:53Z</time>
      </trkpt>
      <trkpt lat="41.9907020" lon="-8.8818720">
        <ele>41.4</ele>
        <time>2021-05-19T07:39:54Z</time>
      </trkpt>
      <trkpt lat="41.9907110" lon="-8.8818620">
        <ele>41.4</ele>
        <time>2021-05-19T07:39:55Z</time>
      </trkpt>
      <trkpt lat="41.9907400" lon="-8.8818560">
        <ele>41.5</ele>
        <time>2021-05-19T07:39:56Z</time>
      </trkpt>
      <trkpt lat="41.9907500" lon="-8.8818550">
        <ele>41.5</ele>
        <time>2021-05-19T07:39:57Z</time>
      </trkpt>
      <trkpt lat="41.9907790" lon="-8.8818470">
        <ele>41.5</ele>
        <time>2021-05-19T07:39:58Z</time>
      </trkpt>
      <trkpt lat="41.9907870" lon="-8.8818420">
        <ele>41.6</ele>
        <time>2021-05-19T07:39:59Z</time>
      </trkpt>
      <trkpt lat="41.9908060" lon="-8.8818330">
        <ele>41.6</ele>
        <time>2021-05-19T07:40:00Z</time>
      </trkpt>
      <trkpt lat="41.9908130" lon="-8.8818250">
        <ele>41.6</ele>
        <time>2021-05-19T07:40:01Z</time>
      </trkpt>
      <trkpt lat="41.9908210" lon="-8.8818210">
        <ele>41.6</ele>
        <time>2021-05-19T07:40:02Z</time>
      </trkpt>
      <trkpt lat="41.9908310" lon="-8.8818130">
        <ele>41.6</ele>
        <time>2021-05-19T07:40:03Z</time>
      </trkpt>
      <trkpt lat="41.9908410" lon="-8.8818000">
        <ele>41.6</ele>
        <time>2021-05-19T07:40:04Z</time>
      </trkpt>
      <trkpt lat="41.9908600" lon="-8.8817900">
        <ele>41.6</ele>
        <time>2021-05-19T07:40:05Z</time>
      </trkpt>
      <trkpt lat="41.9908680" lon="-8.8817860">
        <ele>41.6</ele>
        <time>2021-05-19T07:40:06Z</time>
      </trkpt>
      <trkpt lat="41.9908750" lon="-8.8817810">
        <ele>41.7</ele>
        <time>2021-05-19T07:40:07Z</time>
      </trkpt>
      <trkpt lat="41.9908850" lon="-8.8817680">
        <ele>41.7</ele>
        <time>2021-05-19T07:40:08Z</time>
      </trkpt>
      <trkpt lat="41.9908980" lon="-8.8817580">
        <ele>41.7</ele>
        <time>2021-05-19T07:40:09Z</time>
      </trkpt>
      <trkpt lat="41.9909090" lon="-8.8817540">
        <ele>41.7</ele>
        <time>2021-05-19T07:40:10Z</time>
      </trkpt>
      <trkpt lat="41.9909240" lon="-8.8817420">
        <ele>41.7</ele>
        <time>2021-05-19T07:40:11Z</time>
      </trkpt>
      <trkpt lat="41.9909340" lon="-8.8817390">
        <ele>41.7</ele>
        <time>2021-05-19T07:40:12Z</time>
      </trkpt>
      <trkpt lat="41.9909430" lon="-8.8817230">
        <ele>41.7</ele>
        <time>2021-05-19T07:40:13Z</time>
      </trkpt>
      <trkpt lat="41.9909530" lon="-8.8817190">
        <ele>41.7</ele>
        <time>2021-05-19T07:40:14Z</time>
      </trkpt>
      <trkpt lat="41.9909680" lon="-8.8817030">
        <ele>41.7</ele>
        <time>2021-05-19T07:40:15Z</time>
      </trkpt>
      <trkpt lat="41.9909770" lon="-8.8816980">
        <ele>41.7</ele>
        <time>2021-05-19T07:40:16Z</time>
      </trkpt>
      <trkpt lat="41.9909850" lon="-8.8816920">
        <ele>41.7</ele>
        <time>2021-05-19T07:40:17Z</time>
      </trkpt>
      <trkpt lat="41.9909970" lon="-8.8816820">
        <ele>41.7</ele>
        <time>2021-05-19T07:40:18Z</time>
      </trkpt>
      <trkpt lat="41.9910050" lon="-8.8816770">
        <ele>41.7</ele>
        <time>2021-05-19T07:40:19Z</time>
      </trkpt>
      <trkpt lat="41.9910140" lon="-8.8816710">
        <ele>41.7</ele>
        <time>2021-05-19T07:40:20Z</time>
      </trkpt>
      <trkpt lat="41.9910250" lon="-8.8816590">
        <ele>41.7</ele>
        <time>2021-05-19T07:40:21Z</time>
      </trkpt>
      <trkpt lat="41.9910410" lon="-8.8816510">
        <ele>41.7</ele>
        <time>2021-05-19T07:40:22Z</time>
      </trkpt>
      <trkpt lat="41.9910510" lon="-8.8816500">
        <ele>41.7</ele>
        <time>2021-05-19T07:40:23Z</time>
      </trkpt>
      <trkpt lat="41.9910610" lon="-8.8816480">
        <ele>41.7</ele>
        <time>2021-05-19T07:40:24Z</time>
      </trkpt>
      <trkpt lat="41.9910630" lon="-8.8816410">
        <ele>41.6</ele>
        <time>2021-05-19T07:40:25Z</time>
      </trkpt>
      <trkpt lat="41.9910700" lon="-8.8816360">
        <ele>41.6</ele>
        <time>2021-05-19T07:40:26Z</time>
      </trkpt>
      <trkpt lat="41.9910770" lon="-8.8816280">
        <ele>41.6</ele>
        <time>2021-05-19T07:40:27Z</time>
      </trkpt>
      <trkpt lat="41.9910900" lon="-8.8816210">
        <ele>41.6</ele>
        <time>2021-05-19T07:40:28Z</time>
      </trkpt>
      <trkpt lat="41.9910990" lon="-8.8816100">
        <ele>41.6</ele>
        <time>2021-05-19T07:40:29Z</time>
      </trkpt>
      <trkpt lat="41.9911070" lon="-8.8815960">
        <ele>41.6</ele>
        <time>2021-05-19T07:40:30Z</time>
      </trkpt>
      <trkpt lat="41.9911200" lon="-8.8815870">
        <ele>41.6</ele>
        <time>2021-05-19T07:40:31Z</time>
      </trkpt>
      <trkpt lat="41.9911370" lon="-8.8815720">
        <ele>41.5</ele>
        <time>2021-05-19T07:40:32Z</time>
      </trkpt>
      <trkpt lat="41.9911440" lon="-8.8815650">
        <ele>41.5</ele>
        <time>2021-05-19T07:40:33Z</time>
      </trkpt>
      <trkpt lat="41.9911510" lon="-8.8815570">
        <ele>41.5</ele>
        <time>2021-05-19T07:40:34Z</time>
      </trkpt>
      <trkpt lat="41.9911630" lon="-8.8815510">
        <ele>41.5</ele>
        <time>2021-05-19T07:40:35Z</time>
      </trkpt>
      <trkpt lat="41.9911740" lon="-8.8815460">
        <ele>41.4</ele>
        <time>2021-05-19T07:40:36Z</time>
      </trkpt>
      <trkpt lat="41.9911830" lon="-8.8815330">
        <ele>41.4</ele>
        <time>2021-05-19T07:40:37Z</time>
      </trkpt>
      <trkpt lat="41.9912010" lon="-8.8815090">
        <ele>41.4</ele>
        <time>2021-05-19T07:40:38Z</time>
      </trkpt>
      <trkpt lat="41.9912050" lon="-8.8815020">
        <ele>41.4</ele>
        <time>2021-05-19T07:40:39Z</time>
      </trkpt>
      <trkpt lat="41.9912100" lon="-8.8814960">
        <ele>41.3</ele>
        <time>2021-05-19T07:40:40Z</time>
      </trkpt>
      <trkpt lat="41.9912170" lon="-8.8814910">
        <ele>41.3</ele>
        <time>2021-05-19T07:40:41Z</time>
      </trkpt>
      <trkpt lat="41.9912290" lon="-8.8814760">
        <ele>41.3</ele>
        <time>2021-05-19T07:40:42Z</time>
      </trkpt>
      <trkpt lat="41.9912380" lon="-8.8814730">
        <ele>41.3</ele>
        <time>2021-05-19T07:40:43Z</time>
      </trkpt>
      <trkpt lat="41.9912500" lon="-8.8814670">
        <ele>41.2</ele>
        <time>2021-05-19T07:40:44Z</time>
      </trkpt>
      <trkpt lat="41.9912650" lon="-8.8814550">
        <ele>41.2</ele>
        <time>2021-05-19T07:40:45Z</time>
      </trkpt>
      <trkpt lat="41.9912790" lon="-8.8814500">
        <ele>41.1</ele>
        <time>2021-05-19T07:40:46Z</time>
      </trkpt>
      <trkpt lat="41.9912900" lon="-8.8814410">
        <ele>41.1</ele>
        <time>2021-05-19T07:40:47Z</time>
      </trkpt>
      <trkpt lat="41.9912960" lon="-8.8814370">
        <ele>41.1</ele>
        <time>2021-05-19T07:40:48Z</time>
      </trkpt>
      <trkpt lat="41.9913060" lon="-8.8814270">
        <ele>41.0</ele>
        <time>2021-05-19T07:40:49Z</time>
      </trkpt>
      <trkpt lat="41.9913120" lon="-8.8814180">
        <ele>41.0</ele>
        <time>2021-05-19T07:40:50Z</time>
      </trkpt>
      <trkpt lat="41.9913190" lon="-8.8814090">
        <ele>41.0</ele>
        <time>2021-05-19T07:40:51Z</time>
      </trkpt>
      <trkpt lat="41.9913380" lon="-8.8813920">
        <ele>40.9</ele>
        <time>2021-05-19T07:40:52Z</time>
      </trkpt>
      <trkpt lat="41.9913500" lon="-8.8813750">
        <ele>40.8</ele>
        <time>2021-05-19T07:40:53Z</time>
      </trkpt>
      <trkpt lat="41.9913590" lon="-8.8813690">
        <ele>40.8</ele>
        <time>2021-05-19T07:40:54Z</time>
      </trkpt>
      <trkpt lat="41.9913730" lon="-8.8813560">
        <ele>40.8</ele>
        <time>2021-05-19T07:40:55Z</time>
      </trkpt>
      <trkpt lat="41.9913800" lon="-8.8813530">
        <ele>40.7</ele>
        <time>2021-05-19T07:40:56Z</time>
      </trkpt>
      <trkpt lat="41.9913870" lon="-8.8813500">
        <ele>40.7</ele>
        <time>2021-05-19T07:40:57Z</time>
      </trkpt>
      <trkpt lat="41.9913940" lon="-8.8813470">
        <ele>40.7</ele>
        <time>2021-05-19T07:40:58Z</time>
      </trkpt>
      <trkpt lat="41.9914090" lon="-8.8813320">
        <ele>40.6</ele>
        <time>2021-05-19T07:40:59Z</time>
      </trkpt>
      <trkpt lat="41.9914170" lon="-8.8813240">
        <ele>40.6</ele>
        <time>2021-05-19T07:41:00Z</time>
      </trkpt>
      <trkpt lat="41.9914250" lon="-8.8813170">
        <ele>40.6</ele>
        <time>2021-05-19T07:41:01Z</time>
      </trkpt>
      <trkpt lat="41.9914420" lon="-8.8813110">
        <ele>40.5</ele>
        <time>2021-05-19T07:41:02Z</time>
      </trkpt>
      <trkpt lat="41.9914590" lon="-8.8813080">
        <ele>40.4</ele>
        <time>2021-05-19T07:41:03Z</time>
      </trkpt>
      <trkpt lat="41.9914760" lon="-8.8813030">
        <ele>40.4</ele>
        <time>2021-05-19T07:41:04Z</time>
      </trkpt>
      <trkpt lat="41.9914900" lon="-8.8812970">
        <ele>40.3</ele>
        <time>2021-05-19T07:41:05Z</time>
      </trkpt>
      <trkpt lat="41.9915030" lon="-8.8812820">
        <ele>40.3</ele>
        <time>2021-05-19T07:41:06Z</time>
      </trkpt>
      <trkpt lat="41.9915180" lon="-8.8812660">
        <ele>40.2</ele>
        <time>2021-05-19T07:41:07Z</time>
      </trkpt>
      <trkpt lat="41.9915410" lon="-8.8812460">
        <ele>40.1</ele>
        <time>2021-05-19T07:41:08Z</time>
      </trkpt>
      <trkpt lat="41.9915520" lon="-8.8812380">
        <ele>40.1</ele>
        <time>2021-05-19T07:41:09Z</time>
      </trkpt>
      <trkpt lat="41.9915610" lon="-8.8812310">
        <ele>40.0</ele>
        <time>2021-05-19T07:41:10Z</time>
      </trkpt>
      <trkpt lat="41.9915740" lon="-8.8812140">
        <ele>40.0</ele>
        <time>2021-05-19T07:41:11Z</time>
      </trkpt>
      <trkpt lat="41.9915850" lon="-8.8812070">
        <ele>39.9</ele>
        <time>2021-05-19T07:41:12Z</time>
      </trkpt>
      <trkpt lat="41.9916020" lon="-8.8812070">
        <ele>39.9</ele>
        <time>2021-05-19T07:41:13Z</time>
      </trkpt>
      <trkpt lat="41.9916190" lon="-8.8811920">
        <ele>39.8</ele>
        <time>2021-05-19T07:41:14Z</time>
      </trkpt>
      <trkpt lat="41.9916290" lon="-8.8811880">
        <ele>39.7</ele>
        <time>2021-05-19T07:41:15Z</time>
      </trkpt>
      <trkpt lat="41.9916380" lon="-8.8811850">
        <ele>39.7</ele>
        <time>2021-05-19T07:41:16Z</time>
      </trkpt>
      <trkpt lat="41.9916520" lon="-8.8811710">
        <ele>39.7</ele>
        <time>2021-05-19T07:41:17Z</time>
      </trkpt>
      <trkpt lat="41.9916620" lon="-8.8811600">
        <ele>39.6</ele>
        <time>2021-05-19T07:41:18Z</time>
      </trkpt>
      <trkpt lat="41.9916710" lon="-8.8811500">
        <ele>39.6</ele>
        <time>2021-05-19T07:41:19Z</time>
      </trkpt>
      <trkpt lat="41.9916800" lon="-8.8811420">
        <ele>39.5</ele>
        <time>2021-05-19T07:41:20Z</time>
      </trkpt>
      <trkpt lat="41.9916880" lon="-8.8811370">
        <ele>39.5</ele>
        <time>2021-05-19T07:41:21Z</time>
      </trkpt>
      <trkpt lat="41.9916930" lon="-8.8811210">
        <ele>39.4</ele>
        <time>2021-05-19T07:41:22Z</time>
      </trkpt>
      <trkpt lat="41.9917170" lon="-8.8811110">
        <ele>39.4</ele>
        <time>2021-05-19T07:41:23Z</time>
      </trkpt>
      <trkpt lat="41.9917260" lon="-8.8811080">
        <ele>39.3</ele>
        <time>2021-05-19T07:41:24Z</time>
      </trkpt>
      <trkpt lat="41.9917350" lon="-8.8811060">
        <ele>39.3</ele>
        <time>2021-05-19T07:41:25Z</time>
      </trkpt>
      <trkpt lat="41.9917570" lon="-8.8811150">
        <ele>39.2</ele>
        <time>2021-05-19T07:41:26Z</time>
      </trkpt>
      <trkpt lat="41.9917620" lon="-8.8810960">
        <ele>39.2</ele>
        <time>2021-05-19T07:41:27Z</time>
      </trkpt>
      <trkpt lat="41.9917770" lon="-8.8810830">
        <ele>39.1</ele>
        <time>2021-05-19T07:41:28Z</time>
      </trkpt>
      <trkpt lat="41.9917910" lon="-8.8810790">
        <ele>39.1</ele>
        <time>2021-05-19T07:41:29Z</time>
      </trkpt>
      <trkpt lat="41.9918180" lon="-8.8810590">
        <ele>38.9</ele>
        <time>2021-05-19T07:41:30Z</time>
      </trkpt>
      <trkpt lat="41.9918260" lon="-8.8810510">
        <ele>38.9</ele>
        <time>2021-05-19T07:41:31Z</time>
      </trkpt>
      <trkpt lat="41.9918370" lon="-8.8810540">
        <ele>38.9</ele>
        <time>2021-05-19T07:41:32Z</time>
      </trkpt>
      <trkpt lat="41.9918450" lon="-8.8810300">
        <ele>38.8</ele>
        <time>2021-05-19T07:41:33Z</time>
      </trkpt>
      <trkpt lat="41.9918520" lon="-8.8810290">
        <ele>38.8</ele>
        <time>2021-05-19T07:41:34Z</time>
      </trkpt>
      <trkpt lat="41.9918670" lon="-8.8810190">
        <ele>38.7</ele>
        <time>2021-05-19T07:41:35Z</time>
      </trkpt>
      <trkpt lat="41.9918830" lon="-8.8810160">
        <ele>38.7</ele>
        <time>2021-05-19T07:41:36Z</time>
      </trkpt>
      <trkpt lat="41.9918910" lon="-8.8810000">
        <ele>38.7</ele>
        <time>2021-05-19T07:41:37Z</time>
      </trkpt>
      <trkpt lat="41.9919020" lon="-8.8809900">
        <ele>38.6</ele>
        <time>2021-05-19T07:41:38Z</time>
      </trkpt>
      <trkpt lat="41.9919130" lon="-8.8809820">
        <ele>38.6</ele>
        <time>2021-05-19T07:41:39Z</time>
      </trkpt>
      <trkpt lat="41.9919310" lon="-8.8809810">
        <ele>38.5</ele>
        <time>2021-05-19T07:41:40Z</time>
      </trkpt>
      <trkpt lat="41.9919450" lon="-8.8809650">
        <ele>38.5</ele>
        <time>2021-05-19T07:41:41Z</time>
      </trkpt>
      <trkpt lat="41.9919540" lon="-8.8809580">
        <ele>38.5</ele>
        <time>2021-05-19T07:41:42Z</time>
      </trkpt>
      <trkpt lat="41.9919630" lon="-8.8809520">
        <ele>38.4</ele>
        <time>2021-05-19T07:41:43Z</time>
      </trkpt>
      <trkpt lat="41.9919720" lon="-8.8809450">
        <ele>38.4</ele>
        <time>2021-05-19T07:41:44Z</time>
      </trkpt>
      <trkpt lat="41.9919830" lon="-8.8809370">
        <ele>38.4</ele>
        <time>2021-05-19T07:41:45Z</time>
      </trkpt>
      <trkpt lat="41.9919940" lon="-8.8809250">
        <ele>38.3</ele>
        <time>2021-05-19T07:41:46Z</time>
      </trkpt>
      <trkpt lat="41.9920080" lon="-8.8809140">
        <ele>38.3</ele>
        <time>2021-05-19T07:41:47Z</time>
      </trkpt>
      <trkpt lat="41.9920180" lon="-8.8809040">
        <ele>38.2</ele>
        <time>2021-05-19T07:41:48Z</time>
      </trkpt>
      <trkpt lat="41.9920290" lon="-8.8809000">
        <ele>38.2</ele>
        <time>2021-05-19T07:41:49Z</time>
      </trkpt>
      <trkpt lat="41.9920350" lon="-8.8808950">
        <ele>38.2</ele>
        <time>2021-05-19T07:41:50Z</time>
      </trkpt>
      <trkpt lat="41.9920450" lon="-8.8808810">
        <ele>38.2</ele>
        <time>2021-05-19T07:41:51Z</time>
      </trkpt>
      <trkpt lat="41.9920610" lon="-8.8808840">
        <ele>38.1</ele>
        <time>2021-05-19T07:41:52Z</time>
      </trkpt>
      <trkpt lat="41.9920780" lon="-8.8808810">
        <ele>38.1</ele>
        <time>2021-05-19T07:41:53Z</time>
      </trkpt>
      <trkpt lat="41.9920840" lon="-8.8808720">
        <ele>38.0</ele>
        <time>2021-05-19T07:41:54Z</time>
      </trkpt>
      <trkpt lat="41.9920940" lon="-8.8808660">
        <ele>38.0</ele>
        <time>2021-05-19T07:41:55Z</time>
      </trkpt>
      <trkpt lat="41.9921040" lon="-8.8808580">
        <ele>38.0</ele>
        <time>2021-05-19T07:41:56Z</time>
      </trkpt>
      <trkpt lat="41.9921140" lon="-8.8808450">
        <ele>37.9</ele>
        <time>2021-05-19T07:41:57Z</time>
      </trkpt>
      <trkpt lat="41.9921210" lon="-8.8808400">
        <ele>37.9</ele>
        <time>2021-05-19T07:41:58Z</time>
      </trkpt>
      <trkpt lat="41.9921270" lon="-8.8808340">
        <ele>37.9</ele>
        <time>2021-05-19T07:41:59Z</time>
      </trkpt>
      <trkpt lat="41.9921340" lon="-8.8808280">
        <ele>37.9</ele>
        <time>2021-05-19T07:42:00Z</time>
      </trkpt>
      <trkpt lat="41.9921400" lon="-8.8808110">
        <ele>37.9</ele>
        <time>2021-05-19T07:42:01Z</time>
      </trkpt>
      <trkpt lat="41.9921610" lon="-8.8808090">
        <ele>37.8</ele>
        <time>2021-05-19T07:42:02Z</time>
      </trkpt>
      <trkpt lat="41.9921660" lon="-8.8807930">
        <ele>37.8</ele>
        <time>2021-05-19T07:42:03Z</time>
      </trkpt>
      <trkpt lat="41.9921730" lon="-8.8807860">
        <ele>37.8</ele>
        <time>2021-05-19T07:42:04Z</time>
      </trkpt>
      <trkpt lat="41.9921810" lon="-8.8807800">
        <ele>37.7</ele>
        <time>2021-05-19T07:42:05Z</time>
      </trkpt>
      <trkpt lat="41.9921880" lon="-8.8807730">
        <ele>37.7</ele>
        <time>2021-05-19T07:42:06Z</time>
      </trkpt>
      <trkpt lat="41.9921950" lon="-8.8807700">
        <ele>37.7</ele>
        <time>2021-05-19T07:42:07Z</time>
      </trkpt>
      <trkpt lat="41.9922120" lon="-8.8807590">
        <ele>37.7</ele>
        <time>2021-05-19T07:42:08Z</time>
      </trkpt>
      <trkpt lat="41.9922160" lon="-8.8807510">
        <ele>37.7</ele>
        <time>2021-05-19T07:42:09Z</time>
      </trkpt>
      <trkpt lat="41.9922260" lon="-8.8807430">
        <ele>37.6</ele>
        <time>2021-05-19T07:42:10Z</time>
      </trkpt>
      <trkpt lat="41.9922310" lon="-8.8807420">
        <ele>37.6</ele>
        <time>2021-05-19T07:42:11Z</time>
      </trkpt>
      <trkpt lat="41.9922430" lon="-8.8807340">
        <ele>37.6</ele>
        <time>2021-05-19T07:42:12Z</time>
      </trkpt>
      <trkpt lat="41.9922520" lon="-8.8807210">
        <ele>37.6</ele>
        <time>2021-05-19T07:42:13Z</time>
      </trkpt>
      <trkpt lat="41.9922750" lon="-8.8807180">
        <ele>37.6</ele>
        <time>2021-05-19T07:42:14Z</time>
      </trkpt>
      <trkpt lat="41.9922740" lon="-8.8807140">
        <ele>37.6</ele>
        <time>2021-05-19T07:42:15Z</time>
      </trkpt>
      <trkpt lat="41.9922920" lon="-8.8807000">
        <ele>37.5</ele>
        <time>2021-05-19T07:42:16Z</time>
      </trkpt>
      <trkpt lat="41.9923010" lon="-8.8806860">
        <ele>37.5</ele>
        <time>2021-05-19T07:42:17Z</time>
      </trkpt>
      <trkpt lat="41.9923130" lon="-8.8806750">
        <ele>37.5</ele>
        <time>2021-05-19T07:42:18Z</time>
      </trkpt>
      <trkpt lat="41.9923290" lon="-8.8806690">
        <ele>37.5</ele>
        <time>2021-05-19T07:42:19Z</time>
      </trkpt>
      <trkpt lat="41.9923370" lon="-8.8806660">
        <ele>37.5</ele>
        <time>2021-05-19T07:42:20Z</time>
      </trkpt>
      <trkpt lat="41.9923420" lon="-8.8806480">
        <ele>37.5</ele>
        <time>2021-05-19T07:42:21Z</time>
      </trkpt>
      <trkpt lat="41.9923490" lon="-8.8806450">
        <ele>37.5</ele>
        <time>2021-05-19T07:42:22Z</time>
      </trkpt>
      <trkpt lat="41.9923670" lon="-8.8806340">
        <ele>37.5</ele>
        <time>2021-05-19T07:42:23Z</time>
      </trkpt>
      <trkpt lat="41.9923700" lon="-8.8806260">
        <ele>37.5</ele>
        <time>2021-05-19T07:42:24Z</time>
      </trkpt>
      <trkpt lat="41.9923750" lon="-8.8806220">
        <ele>37.5</ele>
        <time>2021-05-19T07:42:25Z</time>
      </trkpt>
      <trkpt lat="41.9923900" lon="-8.8806210">
        <ele>37.5</ele>
        <time>2021-05-19T07:42:26Z</time>
      </trkpt>
      <trkpt lat="41.9924070" lon="-8.8806140">
        <ele>37.5</ele>
        <time>2021-05-19T07:42:27Z</time>
      </trkpt>
      <trkpt lat="41.9924200" lon="-8.8806110">
        <ele>37.5</ele>
        <time>2021-05-19T07:42:28Z</time>
      </trkpt>
      <trkpt lat="41.9924410" lon="-8.8806030">
        <ele>37.5</ele>
        <time>2021-05-19T07:42:29Z</time>
      </trkpt>
      <trkpt lat="41.9924510" lon="-8.8806020">
        <ele>37.5</ele>
        <time>2021-05-19T07:42:30Z</time>
      </trkpt>
      <trkpt lat="41.9924640" lon="-8.8805930">
        <ele>37.5</ele>
        <time>2021-05-19T07:42:31Z</time>
      </trkpt>
      <trkpt lat="41.9924690" lon="-8.8805890">
        <ele>37.5</ele>
        <time>2021-05-19T07:42:32Z</time>
      </trkpt>
      <trkpt lat="41.9924930" lon="-8.8805790">
        <ele>37.5</ele>
        <time>2021-05-19T07:42:33Z</time>
      </trkpt>
      <trkpt lat="41.9924980" lon="-8.8805720">
        <ele>37.5</ele>
        <time>2021-05-19T07:42:34Z</time>
      </trkpt>
      <trkpt lat="41.9925140" lon="-8.8805590">
        <ele>37.5</ele>
        <time>2021-05-19T07:42:35Z</time>
      </trkpt>
      <trkpt lat="41.9925220" lon="-8.8805530">
        <ele>37.5</ele>
        <time>2021-05-19T07:42:36Z</time>
      </trkpt>
      <trkpt lat="41.9925300" lon="-8.8805470">
        <ele>37.5</ele>
        <time>2021-05-19T07:42:37Z</time>
      </trkpt>
      <trkpt lat="41.9925440" lon="-8.8805360">
        <ele>37.5</ele>
        <time>2021-05-19T07:42:38Z</time>
      </trkpt>
      <trkpt lat="41.9925570" lon="-8.8805290">
        <ele>37.5</ele>
        <time>2021-05-19T07:42:39Z</time>
      </trkpt>
      <trkpt lat="41.9925690" lon="-8.8805200">
        <ele>37.5</ele>
        <time>2021-05-19T07:42:40Z</time>
      </trkpt>
      <trkpt lat="41.9925870" lon="-8.8805020">
        <ele>37.5</ele>
        <time>2021-05-19T07:42:41Z</time>
      </trkpt>
      <trkpt lat="41.9925980" lon="-8.8804930">
        <ele>37.5</ele>
        <time>2021-05-19T07:42:42Z</time>
      </trkpt>
      <trkpt lat="41.9926090" lon="-8.8804810">
        <ele>37.5</ele>
        <time>2021-05-19T07:42:43Z</time>
      </trkpt>
      <trkpt lat="41.9926220" lon="-8.8804720">
        <ele>37.5</ele>
        <time>2021-05-19T07:42:44Z</time>
      </trkpt>
      <trkpt lat="41.9926400" lon="-8.8804620">
        <ele>37.5</ele>
        <time>2021-05-19T07:42:45Z</time>
      </trkpt>
      <trkpt lat="41.9926680" lon="-8.8804480">
        <ele>37.5</ele>
        <time>2021-05-19T07:42:46Z</time>
      </trkpt>
      <trkpt lat="41.9926760" lon="-8.8804440">
        <ele>37.5</ele>
        <time>2021-05-19T07:42:47Z</time>
      </trkpt>
      <trkpt lat="41.9926900" lon="-8.8804350">
        <ele>37.5</ele>
        <time>2021-05-19T07:42:48Z</time>
      </trkpt>
      <trkpt lat="41.9927030" lon="-8.8804260">
        <ele>37.6</ele>
        <time>2021-05-19T07:42:49Z</time>
      </trkpt>
      <trkpt lat="41.9927180" lon="-8.8804180">
        <ele>37.6</ele>
        <time>2021-05-19T07:42:50Z</time>
      </trkpt>
      <trkpt lat="41.9927310" lon="-8.8804120">
        <ele>37.6</ele>
        <time>2021-05-19T07:42:51Z</time>
      </trkpt>
      <trkpt lat="41.9927420" lon="-8.8803990">
        <ele>37.6</ele>
        <time>2021-05-19T07:42:52Z</time>
      </trkpt>
      <trkpt lat="41.9927390" lon="-8.8804040">
        <ele>37.6</ele>
        <time>2021-05-19T07:42:53Z</time>
      </trkpt>
      <trkpt lat="41.9927320" lon="-8.8804150">
        <ele>37.6</ele>
        <time>2021-05-19T07:42:54Z</time>
      </trkpt>
      <trkpt lat="41.9927290" lon="-8.8804170">
        <ele>37.7</ele>
        <time>2021-05-19T07:42:55Z</time>
      </trkpt>
      <trkpt lat="41.9927300" lon="-8.8804190">
        <ele>37.7</ele>
        <time>2021-05-19T07:42:56Z</time>
      </trkpt>
      <trkpt lat="41.9927260" lon="-8.8804160">
        <ele>37.7</ele>
        <time>2021-05-19T07:42:57Z</time>
      </trkpt>
      <trkpt lat="41.9927290" lon="-8.8804150">
        <ele>37.7</ele>
        <time>2021-05-19T07:42:58Z</time>
      </trkpt>
      <trkpt lat="41.9927270" lon="-8.8804160">
        <ele>37.7</ele>
        <time>2021-05-19T07:42:59Z</time>
      </trkpt>
      <trkpt lat="41.9927270" lon="-8.8804150">
        <ele>37.7</ele>
        <time>2021-05-19T07:43:00Z</time>
      </trkpt>
      <trkpt lat="41.9927320" lon="-8.8804050">
        <ele>37.7</ele>
        <time>2021-05-19T07:43:01Z</time>
      </trkpt>
      <trkpt lat="41.9927410" lon="-8.8804030">
        <ele>37.7</ele>
        <time>2021-05-19T07:43:02Z</time>
      </trkpt>
      <trkpt lat="41.9927500" lon="-8.8803930">
        <ele>37.8</ele>
        <time>2021-05-19T07:43:03Z</time>
      </trkpt>
      <trkpt lat="41.9927560" lon="-8.8803790">
        <ele>37.8</ele>
        <time>2021-05-19T07:43:04Z</time>
      </trkpt>
      <trkpt lat="41.9927710" lon="-8.8803660">
        <ele>37.8</ele>
        <time>2021-05-19T07:43:05Z</time>
      </trkpt>
      <trkpt lat="41.9927790" lon="-8.8803580">
        <ele>37.9</ele>
        <time>2021-05-19T07:43:06Z</time>
      </trkpt>
      <trkpt lat="41.9927870" lon="-8.8803500">
        <ele>37.9</ele>
        <time>2021-05-19T07:43:07Z</time>
      </trkpt>
      <trkpt lat="41.9927920" lon="-8.8803430">
        <ele>37.9</ele>
        <time>2021-05-19T07:43:08Z</time>
      </trkpt>
      <trkpt lat="41.9928020" lon="-8.8803430">
        <ele>38.0</ele>
        <time>2021-05-19T07:43:09Z</time>
      </trkpt>
      <trkpt lat="41.9928140" lon="-8.8803380">
        <ele>38.0</ele>
        <time>2021-05-19T07:43:10Z</time>
      </trkpt>
      <trkpt lat="41.9928300" lon="-8.8803250">
        <ele>38.1</ele>
        <time>2021-05-19T07:43:11Z</time>
      </trkpt>
      <trkpt lat="41.9928380" lon="-8.8803200">
        <ele>38.1</ele>
        <time>2021-05-19T07:43:12Z</time>
      </trkpt>
      <trkpt lat="41.9928470" lon="-8.8803140">
        <ele>38.1</ele>
        <time>2021-05-19T07:43:13Z</time>
      </trkpt>
      <trkpt lat="41.9928560" lon="-8.8802960">
        <ele>38.2</ele>
        <time>2021-05-19T07:43:14Z</time>
      </trkpt>
      <trkpt lat="41.9928690" lon="-8.8802910">
        <ele>38.2</ele>
        <time>2021-05-19T07:43:15Z</time>
      </trkpt>
      <trkpt lat="41.9928770" lon="-8.8802850">
        <ele>38.3</ele>
        <time>2021-05-19T07:43:16Z</time>
      </trkpt>
      <trkpt lat="41.9928830" lon="-8.8802780">
        <ele>38.3</ele>
        <time>2021-05-19T07:43:17Z</time>
      </trkpt>
      <trkpt lat="41.9928920" lon="-8.8802640">
        <ele>38.4</ele>
        <time>2021-05-19T07:43:18Z</time>
      </trkpt>
      <trkpt lat="41.9929080" lon="-8.8802490">
        <ele>38.4</ele>
        <time>2021-05-19T07:43:19Z</time>
      </trkpt>
      <trkpt lat="41.9929170" lon="-8.8802410">
        <ele>38.5</ele>
        <time>2021-05-19T07:43:20Z</time>
      </trkpt>
      <trkpt lat="41.9929250" lon="-8.8802320">
        <ele>38.5</ele>
        <time>2021-05-19T07:43:21Z</time>
      </trkpt>
      <trkpt lat="41.9929390" lon="-8.8802280">
        <ele>38.6</ele>
        <time>2021-05-19T07:43:22Z</time>
      </trkpt>
      <trkpt lat="41.9929500" lon="-8.8802190">
        <ele>38.6</ele>
        <time>2021-05-19T07:43:23Z</time>
      </trkpt>
      <trkpt lat="41.9929660" lon="-8.8801990">
        <ele>38.7</ele>
        <time>2021-05-19T07:43:24Z</time>
      </trkpt>
      <trkpt lat="41.9929740" lon="-8.8801920">
        <ele>38.7</ele>
        <time>2021-05-19T07:43:25Z</time>
      </trkpt>
      <trkpt lat="41.9929820" lon="-8.8801840">
        <ele>38.8</ele>
        <time>2021-05-19T07:43:26Z</time>
      </trkpt>
      <trkpt lat="41.9930030" lon="-8.8801600">
        <ele>38.9</ele>
        <time>2021-05-19T07:43:27Z</time>
      </trkpt>
      <trkpt lat="41.9930100" lon="-8.8801540">
        <ele>38.9</ele>
        <time>2021-05-19T07:43:28Z</time>
      </trkpt>
      <trkpt lat="41.9930170" lon="-8.8801470">
        <ele>38.9</ele>
        <time>2021-05-19T07:43:29Z</time>
      </trkpt>
      <trkpt lat="41.9930270" lon="-8.8801380">
        <ele>38.9</ele>
        <time>2021-05-19T07:43:30Z</time>
      </trkpt>
      <trkpt lat="41.9930460" lon="-8.8801300">
        <ele>39.0</ele>
        <time>2021-05-19T07:43:31Z</time>
      </trkpt>
      <trkpt lat="41.9930530" lon="-8.8801320">
        <ele>39.0</ele>
        <time>2021-05-19T07:43:32Z</time>
      </trkpt>
      <trkpt lat="41.9930640" lon="-8.8801240">
        <ele>39.0</ele>
        <time>2021-05-19T07:43:33Z</time>
      </trkpt>
      <trkpt lat="41.9930780" lon="-8.8801120">
        <ele>39.1</ele>
        <time>2021-05-19T07:43:34Z</time>
      </trkpt>
      <trkpt lat="41.9930900" lon="-8.8801110">
        <ele>39.1</ele>
        <time>2021-05-19T07:43:35Z</time>
      </trkpt>
      <trkpt lat="41.9931020" lon="-8.8801140">
        <ele>39.1</ele>
        <time>2021-05-19T07:43:36Z</time>
      </trkpt>
      <trkpt lat="41.9931100" lon="-8.8801210">
        <ele>39.1</ele>
        <time>2021-05-19T07:43:37Z</time>
      </trkpt>
      <trkpt lat="41.9931300" lon="-8.8801270">
        <ele>39.1</ele>
        <time>2021-05-19T07:43:38Z</time>
      </trkpt>
      <trkpt lat="41.9931310" lon="-8.8801290">
        <ele>39.1</ele>
        <time>2021-05-19T07:43:39Z</time>
      </trkpt>
      <trkpt lat="41.9931370" lon="-8.8801320">
        <ele>39.1</ele>
        <time>2021-05-19T07:43:40Z</time>
      </trkpt>
      <trkpt lat="41.9931550" lon="-8.8801360">
        <ele>39.0</ele>
        <time>2021-05-19T07:43:41Z</time>
      </trkpt>
      <trkpt lat="41.9931640" lon="-8.8801400">
        <ele>39.0</ele>
        <time>2021-05-19T07:43:42Z</time>
      </trkpt>
      <trkpt lat="41.9931730" lon="-8.8801440">
        <ele>38.9</ele>
        <time>2021-05-19T07:43:43Z</time>
      </trkpt>
      <trkpt lat="41.9931970" lon="-8.8801520">
        <ele>38.8</ele>
        <time>2021-05-19T07:43:44Z</time>
      </trkpt>
      <trkpt lat="41.9932060" lon="-8.8801530">
        <ele>38.8</ele>
        <time>2021-05-19T07:43:45Z</time>
      </trkpt>
      <trkpt lat="41.9932150" lon="-8.8801560">
        <ele>38.8</ele>
        <time>2021-05-19T07:43:46Z</time>
      </trkpt>
      <trkpt lat="41.9932330" lon="-8.8801630">
        <ele>38.7</ele>
        <time>2021-05-19T07:43:47Z</time>
      </trkpt>
      <trkpt lat="41.9932460" lon="-8.8801630">
        <ele>38.7</ele>
        <time>2021-05-19T07:43:48Z</time>
      </trkpt>
      <trkpt lat="41.9932570" lon="-8.8801640">
        <ele>38.6</ele>
        <time>2021-05-19T07:43:49Z</time>
      </trkpt>
      <trkpt lat="41.9932680" lon="-8.8801700">
        <ele>38.6</ele>
        <time>2021-05-19T07:43:50Z</time>
      </trkpt>
      <trkpt lat="41.9932910" lon="-8.8801870">
        <ele>38.5</ele>
        <time>2021-05-19T07:43:51Z</time>
      </trkpt>
      <trkpt lat="41.9933030" lon="-8.8801910">
        <ele>38.5</ele>
        <time>2021-05-19T07:43:52Z</time>
      </trkpt>
      <trkpt lat="41.9933150" lon="-8.8801940">
        <ele>38.4</ele>
        <time>2021-05-19T07:43:53Z</time>
      </trkpt>
      <trkpt lat="41.9933310" lon="-8.8801960">
        <ele>38.4</ele>
        <time>2021-05-19T07:43:54Z</time>
      </trkpt>
      <trkpt lat="41.9933470" lon="-8.8801930">
        <ele>38.3</ele>
        <time>2021-05-19T07:43:55Z</time>
      </trkpt>
      <trkpt lat="41.9933650" lon="-8.8801960">
        <ele>38.3</ele>
        <time>2021-05-19T07:43:56Z</time>
      </trkpt>
      <trkpt lat="41.9933810" lon="-8.8802010">
        <ele>38.2</ele>
        <time>2021-05-19T07:43:57Z</time>
      </trkpt>
      <trkpt lat="41.9933980" lon="-8.8802050">
        <ele>38.2</ele>
        <time>2021-05-19T07:43:58Z</time>
      </trkpt>
      <trkpt lat="41.9934150" lon="-8.8802040">
        <ele>38.2</ele>
        <time>2021-05-19T07:43:59Z</time>
      </trkpt>
      <trkpt lat="41.9934310" lon="-8.8802080">
        <ele>38.2</ele>
        <time>2021-05-19T07:44:00Z</time>
      </trkpt>
      <trkpt lat="41.9934460" lon="-8.8802070">
        <ele>38.1</ele>
        <time>2021-05-19T07:44:01Z</time>
      </trkpt>
      <trkpt lat="41.9934580" lon="-8.8802090">
        <ele>38.1</ele>
        <time>2021-05-19T07:44:02Z</time>
      </trkpt>
      <trkpt lat="41.9934740" lon="-8.8802100">
        <ele>38.1</ele>
        <time>2021-05-19T07:44:03Z</time>
      </trkpt>
      <trkpt lat="41.9934910" lon="-8.8802080">
        <ele>38.1</ele>
        <time>2021-05-19T07:44:04Z</time>
      </trkpt>
      <trkpt lat="41.9935070" lon="-8.8802030">
        <ele>38.0</ele>
        <time>2021-05-19T07:44:05Z</time>
      </trkpt>
      <trkpt lat="41.9935230" lon="-8.8802050">
        <ele>38.0</ele>
        <time>2021-05-19T07:44:06Z</time>
      </trkpt>
      <trkpt lat="41.9935360" lon="-8.8802000">
        <ele>38.0</ele>
        <time>2021-05-19T07:44:07Z</time>
      </trkpt>
      <trkpt lat="41.9935510" lon="-8.8801980">
        <ele>38.0</ele>
        <time>2021-05-19T07:44:08Z</time>
      </trkpt>
      <trkpt lat="41.9935650" lon="-8.8801950">
        <ele>38.0</ele>
        <time>2021-05-19T07:44:09Z</time>
      </trkpt>
      <trkpt lat="41.9935810" lon="-8.8801900">
        <ele>38.0</ele>
        <time>2021-05-19T07:44:10Z</time>
      </trkpt>
      <trkpt lat="41.9935980" lon="-8.8801890">
        <ele>37.9</ele>
        <time>2021-05-19T07:44:11Z</time>
      </trkpt>
      <trkpt lat="41.9936110" lon="-8.8801840">
        <ele>37.9</ele>
        <time>2021-05-19T07:44:12Z</time>
      </trkpt>
      <trkpt lat="41.9936280" lon="-8.8801840">
        <ele>37.9</ele>
        <time>2021-05-19T07:44:13Z</time>
      </trkpt>
      <trkpt lat="41.9936420" lon="-8.8801810">
        <ele>37.9</ele>
        <time>2021-05-19T07:44:14Z</time>
      </trkpt>
      <trkpt lat="41.9936600" lon="-8.8801850">
        <ele>37.9</ele>
        <time>2021-05-19T07:44:15Z</time>
      </trkpt>
      <trkpt lat="41.9936750" lon="-8.8801860">
        <ele>37.9</ele>
        <time>2021-05-19T07:44:16Z</time>
      </trkpt>
      <trkpt lat="41.9936890" lon="-8.8801850">
        <ele>37.8</ele>
        <time>2021-05-19T07:44:17Z</time>
      </trkpt>
      <trkpt lat="41.9937120" lon="-8.8801800">
        <ele>37.8</ele>
        <time>2021-05-19T07:44:18Z</time>
      </trkpt>
      <trkpt lat="41.9937210" lon="-8.8801790">
        <ele>37.8</ele>
        <time>2021-05-19T07:44:19Z</time>
      </trkpt>
      <trkpt lat="41.9937310" lon="-8.8801770">
        <ele>37.8</ele>
        <time>2021-05-19T07:44:20Z</time>
      </trkpt>
      <trkpt lat="41.9937450" lon="-8.8801710">
        <ele>37.8</ele>
        <time>2021-05-19T07:44:21Z</time>
      </trkpt>
      <trkpt lat="41.9937600" lon="-8.8801730">
        <ele>37.8</ele>
        <time>2021-05-19T07:44:22Z</time>
      </trkpt>
      <trkpt lat="41.9937740" lon="-8.8801720">
        <ele>37.7</ele>
        <time>2021-05-19T07:44:23Z</time>
      </trkpt>
      <trkpt lat="41.9937880" lon="-8.8801700">
        <ele>37.7</ele>
        <time>2021-05-19T07:44:24Z</time>
      </trkpt>
      <trkpt lat="41.9938090" lon="-8.8801650">
        <ele>37.7</ele>
        <time>2021-05-19T07:44:25Z</time>
      </trkpt>
      <trkpt lat="41.9938190" lon="-8.8801640">
        <ele>37.7</ele>
        <time>2021-05-19T07:44:26Z</time>
      </trkpt>
      <trkpt lat="41.9938280" lon="-8.8801620">
        <ele>37.7</ele>
        <time>2021-05-19T07:44:27Z</time>
      </trkpt>
      <trkpt lat="41.9938410" lon="-8.8801600">
        <ele>37.7</ele>
        <time>2021-05-19T07:44:28Z</time>
      </trkpt>
      <trkpt lat="41.9938550" lon="-8.8801580">
        <ele>37.6</ele>
        <time>2021-05-19T07:44:29Z</time>
      </trkpt>
      <trkpt lat="41.9938700" lon="-8.8801590">
        <ele>37.6</ele>
        <time>2021-05-19T07:44:30Z</time>
      </trkpt>
      <trkpt lat="41.9938850" lon="-8.8801600">
        <ele>37.6</ele>
        <time>2021-05-19T07:44:31Z</time>
      </trkpt>
      <trkpt lat="41.9938980" lon="-8.8801630">
        <ele>37.6</ele>
        <time>2021-05-19T07:44:32Z</time>
      </trkpt>
      <trkpt lat="41.9939120" lon="-8.8801650">
        <ele>37.6</ele>
        <time>2021-05-19T07:44:33Z</time>
      </trkpt>
      <trkpt lat="41.9939260" lon="-8.8801630">
        <ele>37.5</ele>
        <time>2021-05-19T07:44:34Z</time>
      </trkpt>
      <trkpt lat="41.9939410" lon="-8.8801570">
        <ele>37.5</ele>
        <time>2021-05-19T07:44:35Z</time>
      </trkpt>
      <trkpt lat="41.9939610" lon="-8.8801570">
        <ele>37.5</ele>
        <time>2021-05-19T07:44:36Z</time>
      </trkpt>
      <trkpt lat="41.9939700" lon="-8.8801590">
        <ele>37.5</ele>
        <time>2021-05-19T07:44:37Z</time>
      </trkpt>
      <trkpt lat="41.9939780" lon="-8.8801600">
        <ele>37.4</ele>
        <time>2021-05-19T07:44:38Z</time>
      </trkpt>
      <trkpt lat="41.9939920" lon="-8.8801570">
        <ele>37.4</ele>
        <time>2021-05-19T07:44:39Z</time>
      </trkpt>
      <trkpt lat="41.9940060" lon="-8.8801540">
        <ele>37.4</ele>
        <time>2021-05-19T07:44:40Z</time>
      </trkpt>
      <trkpt lat="41.9940200" lon="-8.8801480">
        <ele>37.3</ele>
        <time>2021-05-19T07:44:41Z</time>
      </trkpt>
      <trkpt lat="41.9940350" lon="-8.8801510">
        <ele>37.3</ele>
        <time>2021-05-19T07:44:42Z</time>
      </trkpt>
      <trkpt lat="41.9940570" lon="-8.8801540">
        <ele>37.3</ele>
        <time>2021-05-19T07:44:43Z</time>
      </trkpt>
      <trkpt lat="41.9940660" lon="-8.8801530">
        <ele>37.2</ele>
        <time>2021-05-19T07:44:44Z</time>
      </trkpt>
      <trkpt lat="41.9940750" lon="-8.8801530">
        <ele>37.2</ele>
        <time>2021-05-19T07:44:45Z</time>
      </trkpt>
      <trkpt lat="41.9940890" lon="-8.8801530">
        <ele>37.2</ele>
        <time>2021-05-19T07:44:46Z</time>
      </trkpt>
      <trkpt lat="41.9941030" lon="-8.8801520">
        <ele>37.1</ele>
        <time>2021-05-19T07:44:47Z</time>
      </trkpt>
      <trkpt lat="41.9941170" lon="-8.8801560">
        <ele>37.1</ele>
        <time>2021-05-19T07:44:48Z</time>
      </trkpt>
      <trkpt lat="41.9941310" lon="-8.8801550">
        <ele>37.0</ele>
        <time>2021-05-19T07:44:49Z</time>
      </trkpt>
      <trkpt lat="41.9941460" lon="-8.8801550">
        <ele>37.0</ele>
        <time>2021-05-19T07:44:50Z</time>
      </trkpt>
      <trkpt lat="41.9941600" lon="-8.8801580">
        <ele>37.0</ele>
        <time>2021-05-19T07:44:51Z</time>
      </trkpt>
      <trkpt lat="41.9941730" lon="-8.8801590">
        <ele>36.9</ele>
        <time>2021-05-19T07:44:52Z</time>
      </trkpt>
      <trkpt lat="41.9941870" lon="-8.8801600">
        <ele>36.9</ele>
        <time>2021-05-19T07:44:53Z</time>
      </trkpt>
      <trkpt lat="41.9942100" lon="-8.8801640">
        <ele>36.8</ele>
        <time>2021-05-19T07:44:54Z</time>
      </trkpt>
      <trkpt lat="41.9942190" lon="-8.8801660">
        <ele>36.7</ele>
        <time>2021-05-19T07:44:55Z</time>
      </trkpt>
      <trkpt lat="41.9942280" lon="-8.8801680">
        <ele>36.7</ele>
        <time>2021-05-19T07:44:56Z</time>
      </trkpt>
      <trkpt lat="41.9942420" lon="-8.8801710">
        <ele>36.6</ele>
        <time>2021-05-19T07:44:57Z</time>
      </trkpt>
      <trkpt lat="41.9942560" lon="-8.8801710">
        <ele>36.6</ele>
        <time>2021-05-19T07:44:58Z</time>
      </trkpt>
      <trkpt lat="41.9942780" lon="-8.8801760">
        <ele>36.5</ele>
        <time>2021-05-19T07:44:59Z</time>
      </trkpt>
      <trkpt lat="41.9942860" lon="-8.8801780">
        <ele>36.5</ele>
        <time>2021-05-19T07:45:00Z</time>
      </trkpt>
      <trkpt lat="41.9942950" lon="-8.8801810">
        <ele>36.4</ele>
        <time>2021-05-19T07:45:01Z</time>
      </trkpt>
      <trkpt lat="41.9943070" lon="-8.8801910">
        <ele>36.4</ele>
        <time>2021-05-19T07:45:02Z</time>
      </trkpt>
      <trkpt lat="41.9943200" lon="-8.8801970">
        <ele>36.3</ele>
        <time>2021-05-19T07:45:03Z</time>
      </trkpt>
      <trkpt lat="41.9943420" lon="-8.8801990">
        <ele>36.2</ele>
        <time>2021-05-19T07:45:04Z</time>
      </trkpt>
      <trkpt lat="41.9943510" lon="-8.8801980">
        <ele>36.2</ele>
        <time>2021-05-19T07:45:05Z</time>
      </trkpt>
      <trkpt lat="41.9943600" lon="-8.8801970">
        <ele>36.1</ele>
        <time>2021-05-19T07:45:06Z</time>
      </trkpt>
      <trkpt lat="41.9943740" lon="-8.8802010">
        <ele>36.1</ele>
        <time>2021-05-19T07:45:07Z</time>
      </trkpt>
      <trkpt lat="41.9943890" lon="-8.8802010">
        <ele>36.0</ele>
        <time>2021-05-19T07:45:08Z</time>
      </trkpt>
      <trkpt lat="41.9944030" lon="-8.8802040">
        <ele>35.9</ele>
        <time>2021-05-19T07:45:09Z</time>
      </trkpt>
      <trkpt lat="41.9944160" lon="-8.8802130">
        <ele>35.9</ele>
        <time>2021-05-19T07:45:10Z</time>
      </trkpt>
      <trkpt lat="41.9944390" lon="-8.8802190">
        <ele>35.8</ele>
        <time>2021-05-19T07:45:11Z</time>
      </trkpt>
      <trkpt lat="41.9944480" lon="-8.8802210">
        <ele>35.7</ele>
        <time>2021-05-19T07:45:12Z</time>
      </trkpt>
      <trkpt lat="41.9944570" lon="-8.8802220">
        <ele>35.7</ele>
        <time>2021-05-19T07:45:13Z</time>
      </trkpt>
      <trkpt lat="41.9944770" lon="-8.8802280">
        <ele>35.6</ele>
        <time>2021-05-19T07:45:14Z</time>
      </trkpt>
      <trkpt lat="41.9944860" lon="-8.8802320">
        <ele>35.5</ele>
        <time>2021-05-19T07:45:15Z</time>
      </trkpt>
      <trkpt lat="41.9944940" lon="-8.8802360">
        <ele>35.5</ele>
        <time>2021-05-19T07:45:16Z</time>
      </trkpt>
      <trkpt lat="41.9945150" lon="-8.8802460">
        <ele>35.4</ele>
        <time>2021-05-19T07:45:17Z</time>
      </trkpt>
      <trkpt lat="41.9945240" lon="-8.8802470">
        <ele>35.3</ele>
        <time>2021-05-19T07:45:18Z</time>
      </trkpt>
      <trkpt lat="41.9945330" lon="-8.8802490">
        <ele>35.3</ele>
        <time>2021-05-19T07:45:19Z</time>
      </trkpt>
      <trkpt lat="41.9945460" lon="-8.8802510">
        <ele>35.2</ele>
        <time>2021-05-19T07:45:20Z</time>
      </trkpt>
      <trkpt lat="41.9945610" lon="-8.8802510">
        <ele>35.2</ele>
        <time>2021-05-19T07:45:21Z</time>
      </trkpt>
      <trkpt lat="41.9945750" lon="-8.8802520">
        <ele>35.1</ele>
        <time>2021-05-19T07:45:22Z</time>
      </trkpt>
      <trkpt lat="41.9945870" lon="-8.8802600">
        <ele>35.0</ele>
        <time>2021-05-19T07:45:23Z</time>
      </trkpt>
      <trkpt lat="41.9946080" lon="-8.8802650">
        <ele>34.9</ele>
        <time>2021-05-19T07:45:24Z</time>
      </trkpt>
      <trkpt lat="41.9946160" lon="-8.8802700">
        <ele>34.9</ele>
        <time>2021-05-19T07:45:25Z</time>
      </trkpt>
      <trkpt lat="41.9946230" lon="-8.8802740">
        <ele>34.8</ele>
        <time>2021-05-19T07:45:26Z</time>
      </trkpt>
      <trkpt lat="41.9946450" lon="-8.8802820">
        <ele>34.7</ele>
        <time>2021-05-19T07:45:27Z</time>
      </trkpt>
      <trkpt lat="41.9946530" lon="-8.8802850">
        <ele>34.7</ele>
        <time>2021-05-19T07:45:28Z</time>
      </trkpt>
      <trkpt lat="41.9946620" lon="-8.8802880">
        <ele>34.6</ele>
        <time>2021-05-19T07:45:29Z</time>
      </trkpt>
      <trkpt lat="41.9946750" lon="-8.8802900">
        <ele>34.6</ele>
        <time>2021-05-19T07:45:30Z</time>
      </trkpt>
      <trkpt lat="41.9946890" lon="-8.8802900">
        <ele>34.5</ele>
        <time>2021-05-19T07:45:31Z</time>
      </trkpt>
      <trkpt lat="41.9947080" lon="-8.8802950">
        <ele>34.4</ele>
        <time>2021-05-19T07:45:32Z</time>
      </trkpt>
      <trkpt lat="41.9947170" lon="-8.8802970">
        <ele>34.3</ele>
        <time>2021-05-19T07:45:33Z</time>
      </trkpt>
      <trkpt lat="41.9947250" lon="-8.8802980">
        <ele>34.3</ele>
        <time>2021-05-19T07:45:34Z</time>
      </trkpt>
      <trkpt lat="41.9947390" lon="-8.8803020">
        <ele>34.2</ele>
        <time>2021-05-19T07:45:35Z</time>
      </trkpt>
      <trkpt lat="41.9947450" lon="-8.8802980">
        <ele>34.2</ele>
        <time>2021-05-19T07:45:36Z</time>
      </trkpt>
      <trkpt lat="41.9947500" lon="-8.8802890">
        <ele>34.2</ele>
        <time>2021-05-19T07:45:37Z</time>
      </trkpt>
      <trkpt lat="41.9947560" lon="-8.8802920">
        <ele>34.1</ele>
        <time>2021-05-19T07:45:38Z</time>
      </trkpt>
      <trkpt lat="41.9947700" lon="-8.8802940">
        <ele>34.0</ele>
        <time>2021-05-19T07:45:39Z</time>
      </trkpt>
      <trkpt lat="41.9947780" lon="-8.8802960">
        <ele>34.0</ele>
        <time>2021-05-19T07:45:40Z</time>
      </trkpt>
      <trkpt lat="41.9947850" lon="-8.8802980">
        <ele>34.0</ele>
        <time>2021-05-19T07:45:41Z</time>
      </trkpt>
      <trkpt lat="41.9947920" lon="-8.8803000">
        <ele>33.9</ele>
        <time>2021-05-19T07:45:42Z</time>
      </trkpt>
      <trkpt lat="41.9948140" lon="-8.8803090">
        <ele>33.8</ele>
        <time>2021-05-19T07:45:43Z</time>
      </trkpt>
      <trkpt lat="41.9948230" lon="-8.8803140">
        <ele>33.8</ele>
        <time>2021-05-19T07:45:44Z</time>
      </trkpt>
      <trkpt lat="41.9948310" lon="-8.8803190">
        <ele>33.7</ele>
        <time>2021-05-19T07:45:45Z</time>
      </trkpt>
      <trkpt lat="41.9948450" lon="-8.8803230">
        <ele>33.7</ele>
        <time>2021-05-19T07:45:46Z</time>
      </trkpt>
      <trkpt lat="41.9948590" lon="-8.8803250">
        <ele>33.6</ele>
        <time>2021-05-19T07:45:47Z</time>
      </trkpt>
      <trkpt lat="41.9948720" lon="-8.8803300">
        <ele>33.5</ele>
        <time>2021-05-19T07:45:48Z</time>
      </trkpt>
      <trkpt lat="41.9948850" lon="-8.8803360">
        <ele>33.5</ele>
        <time>2021-05-19T07:45:49Z</time>
      </trkpt>
      <trkpt lat="41.9948900" lon="-8.8803370">
        <ele>33.5</ele>
        <time>2021-05-19T07:45:50Z</time>
      </trkpt>
      <trkpt lat="41.9948950" lon="-8.8803390">
        <ele>33.4</ele>
        <time>2021-05-19T07:45:51Z</time>
      </trkpt>
      <trkpt lat="41.9948990" lon="-8.8803440">
        <ele>33.4</ele>
        <time>2021-05-19T07:45:52Z</time>
      </trkpt>
      <trkpt lat="41.9949050" lon="-8.8803450">
        <ele>33.4</ele>
        <time>2021-05-19T07:45:53Z</time>
      </trkpt>
      <trkpt lat="41.9949080" lon="-8.8803500">
        <ele>33.4</ele>
        <time>2021-05-19T07:45:54Z</time>
      </trkpt>
      <trkpt lat="41.9949070" lon="-8.8803510">
        <ele>33.4</ele>
        <time>2021-05-19T07:45:55Z</time>
      </trkpt>
      <trkpt lat="41.9948990" lon="-8.8803490">
        <ele>33.3</ele>
        <time>2021-05-19T07:45:56Z</time>
      </trkpt>
      <trkpt lat="41.9948950" lon="-8.8803490">
        <ele>33.3</ele>
        <time>2021-05-19T07:45:57Z</time>
      </trkpt>
      <trkpt lat="41.9948920" lon="-8.8803470">
        <ele>33.3</ele>
        <time>2021-05-19T07:45:58Z</time>
      </trkpt>
      <trkpt lat="41.9948890" lon="-8.8803440">
        <ele>33.3</ele>
        <time>2021-05-19T07:45:59Z</time>
      </trkpt>
      <trkpt lat="41.9948910" lon="-8.8803430">
        <ele>33.3</ele>
        <time>2021-05-19T07:46:00Z</time>
      </trkpt>
      <trkpt lat="41.9948850" lon="-8.8803470">
        <ele>33.2</ele>
        <time>2021-05-19T07:46:01Z</time>
      </trkpt>
      <trkpt lat="41.9948790" lon="-8.8803440">
        <ele>33.2</ele>
        <time>2021-05-19T07:46:02Z</time>
      </trkpt>
      <trkpt lat="41.9948770" lon="-8.8803420">
        <ele>33.2</ele>
        <time>2021-05-19T07:46:03Z</time>
      </trkpt>
      <trkpt lat="41.9948760" lon="-8.8803420">
        <ele>33.2</ele>
        <time>2021-05-19T07:46:04Z</time>
      </trkpt>
      <trkpt lat="41.9948760" lon="-8.8803410">
        <ele>33.2</ele>
        <time>2021-05-19T07:46:05Z</time>
      </trkpt>
      <trkpt lat="41.9948750" lon="-8.8803390">
        <ele>33.2</ele>
        <time>2021-05-19T07:46:06Z</time>
      </trkpt>
      <trkpt lat="41.9948720" lon="-8.8803390">
        <ele>33.1</ele>
        <time>2021-05-19T07:46:07Z</time>
      </trkpt>
      <trkpt lat="41.9948710" lon="-8.8803380">
        <ele>33.1</ele>
        <time>2021-05-19T07:46:08Z</time>
      </trkpt>
      <trkpt lat="41.9948730" lon="-8.8803380">
        <ele>33.1</ele>
        <time>2021-05-19T07:46:09Z</time>
      </trkpt>
      <trkpt lat="41.9948720" lon="-8.8803370">
        <ele>33.1</ele>
        <time>2021-05-19T07:46:10Z</time>
      </trkpt>
      <trkpt lat="41.9948760" lon="-8.8803380">
        <ele>33.1</ele>
        <time>2021-05-19T07:46:11Z</time>
      </trkpt>
      <trkpt lat="41.9948820" lon="-8.8803400">
        <ele>33.1</ele>
        <time>2021-05-19T07:46:12Z</time>
      </trkpt>
      <trkpt lat="41.9948810" lon="-8.8803390">
        <ele>33.1</ele>
        <time>2021-05-19T07:46:13Z</time>
      </trkpt>
      <trkpt lat="41.9948760" lon="-8.8803380">
        <ele>33.0</ele>
        <time>2021-05-19T07:46:14Z</time>
      </trkpt>
      <trkpt lat="41.9948750" lon="-8.8803390">
        <ele>33.0</ele>
        <time>2021-05-19T07:46:15Z</time>
      </trkpt>
      <trkpt lat="41.9948740" lon="-8.8803390">
        <ele>33.0</ele>
        <time>2021-05-19T07:46:16Z</time>
      </trkpt>
      <trkpt lat="41.9948740" lon="-8.8803390">
        <ele>33.0</ele>
        <time>2021-05-19T07:46:17Z</time>
      </trkpt>
      <trkpt lat="41.9948740" lon="-8.8803390">
        <ele>33.0</ele>
        <time>2021-05-19T07:46:18Z</time>
      </trkpt>
      <trkpt lat="41.9948640" lon="-8.8803380">
        <ele>33.0</ele>
        <time>2021-05-19T07:46:19Z</time>
      </trkpt>
      <trkpt lat="41.9948630" lon="-8.8803380">
        <ele>33.0</ele>
        <time>2021-05-19T07:46:20Z</time>
      </trkpt>
      <trkpt lat="41.9948620" lon="-8.8803370">
        <ele>33.0</ele>
        <time>2021-05-19T07:46:21Z</time>
      </trkpt>
      <trkpt lat="41.9948610" lon="-8.8803370">
        <ele>33.0</ele>
        <time>2021-05-19T07:46:22Z</time>
      </trkpt>
      <trkpt lat="41.9948610" lon="-8.8803380">
        <ele>33.0</ele>
        <time>2021-05-19T07:46:23Z</time>
      </trkpt>
      <trkpt lat="41.9948670" lon="-8.8803440">
        <ele>32.9</ele>
        <time>2021-05-19T07:46:24Z</time>
      </trkpt>
      <trkpt lat="41.9948780" lon="-8.8803550">
        <ele>32.9</ele>
        <time>2021-05-19T07:46:25Z</time>
      </trkpt>
      <trkpt lat="41.9948880" lon="-8.8803630">
        <ele>32.8</ele>
        <time>2021-05-19T07:46:26Z</time>
      </trkpt>
      <trkpt lat="41.9948960" lon="-8.8803680">
        <ele>32.8</ele>
        <time>2021-05-19T07:46:27Z</time>
      </trkpt>
      <trkpt lat="41.9949030" lon="-8.8803720">
        <ele>32.7</ele>
        <time>2021-05-19T07:46:28Z</time>
      </trkpt>
      <trkpt lat="41.9949130" lon="-8.8803740">
        <ele>32.7</ele>
        <time>2021-05-19T07:46:29Z</time>
      </trkpt>
      <trkpt lat="41.9949210" lon="-8.8803770">
        <ele>32.7</ele>
        <time>2021-05-19T07:46:30Z</time>
      </trkpt>
      <trkpt lat="41.9949220" lon="-8.8803750">
        <ele>32.6</ele>
        <time>2021-05-19T07:46:31Z</time>
      </trkpt>
      <trkpt lat="41.9949230" lon="-8.8803760">
        <ele>32.6</ele>
        <time>2021-05-19T07:46:32Z</time>
      </trkpt>
      <trkpt lat="41.9949200" lon="-8.8803760">
        <ele>32.6</ele>
        <time>2021-05-19T07:46:33Z</time>
      </trkpt>
      <trkpt lat="41.9949230" lon="-8.8803760">
        <ele>32.6</ele>
        <time>2021-05-19T07:46:34Z</time>
      </trkpt>
      <trkpt lat="41.9949300" lon="-8.8803780">
        <ele>32.6</ele>
        <time>2021-05-19T07:46:35Z</time>
      </trkpt>
      <trkpt lat="41.9949490" lon="-8.8803860">
        <ele>32.5</ele>
        <time>2021-05-19T07:46:36Z</time>
      </trkpt>
      <trkpt lat="41.9949580" lon="-8.8803880">
        <ele>32.5</ele>
        <time>2021-05-19T07:46:37Z</time>
      </trkpt>
      <trkpt lat="41.9949660" lon="-8.8803900">
        <ele>32.4</ele>
        <time>2021-05-19T07:46:38Z</time>
      </trkpt>
      <trkpt lat="41.9949830" lon="-8.8803860">
        <ele>32.4</ele>
        <time>2021-05-19T07:46:39Z</time>
      </trkpt>
      <trkpt lat="41.9949960" lon="-8.8803770">
        <ele>32.3</ele>
        <time>2021-05-19T07:46:40Z</time>
      </trkpt>
      <trkpt lat="41.9950120" lon="-8.8803750">
        <ele>32.2</ele>
        <time>2021-05-19T07:46:41Z</time>
      </trkpt>
      <trkpt lat="41.9950190" lon="-8.8803760">
        <ele>32.2</ele>
        <time>2021-05-19T07:46:42Z</time>
      </trkpt>
      <trkpt lat="41.9950270" lon="-8.8803790">
        <ele>32.2</ele>
        <time>2021-05-19T07:46:43Z</time>
      </trkpt>
      <trkpt lat="41.9950380" lon="-8.8803920">
        <ele>32.1</ele>
        <time>2021-05-19T07:46:44Z</time>
      </trkpt>
      <trkpt lat="41.9950440" lon="-8.8804000">
        <ele>32.1</ele>
        <time>2021-05-19T07:46:45Z</time>
      </trkpt>
      <trkpt lat="41.9950490" lon="-8.8804070">
        <ele>32.1</ele>
        <time>2021-05-19T07:46:46Z</time>
      </trkpt>
      <trkpt lat="41.9950540" lon="-8.8804150">
        <ele>32.0</ele>
        <time>2021-05-19T07:46:47Z</time>
      </trkpt>
      <trkpt lat="41.9950500" lon="-8.8804270">
        <ele>32.0</ele>
        <time>2021-05-19T07:46:48Z</time>
      </trkpt>
      <trkpt lat="41.9950460" lon="-8.8804270">
        <ele>32.0</ele>
        <time>2021-05-19T07:46:49Z</time>
      </trkpt>
      <trkpt lat="41.9950420" lon="-8.8804260">
        <ele>32.0</ele>
        <time>2021-05-19T07:46:50Z</time>
      </trkpt>
      <trkpt lat="41.9950390" lon="-8.8804260">
        <ele>31.9</ele>
        <time>2021-05-19T07:46:51Z</time>
      </trkpt>
      <trkpt lat="41.9950350" lon="-8.8804260">
        <ele>31.9</ele>
        <time>2021-05-19T07:46:52Z</time>
      </trkpt>
      <trkpt lat="41.9950310" lon="-8.8804260">
        <ele>31.9</ele>
        <time>2021-05-19T07:46:53Z</time>
      </trkpt>
      <trkpt lat="41.9950270" lon="-8.8804250">
        <ele>31.9</ele>
        <time>2021-05-19T07:46:54Z</time>
      </trkpt>
      <trkpt lat="41.9950230" lon="-8.8804250">
        <ele>31.9</ele>
        <time>2021-05-19T07:46:55Z</time>
      </trkpt>
      <trkpt lat="41.9950190" lon="-8.8804250">
        <ele>31.9</ele>
        <time>2021-05-19T07:46:56Z</time>
      </trkpt>
      <trkpt lat="41.9950160" lon="-8.8804250">
        <ele>31.8</ele>
        <time>2021-05-19T07:46:57Z</time>
      </trkpt>
      <trkpt lat="41.9950120" lon="-8.8804240">
        <ele>31.8</ele>
        <time>2021-05-19T07:46:58Z</time>
      </trkpt>
      <trkpt lat="41.9950080" lon="-8.8804240">
        <ele>31.8</ele>
        <time>2021-05-19T07:46:59Z</time>
      </trkpt>
      <trkpt lat="41.9950040" lon="-8.8804240">
        <ele>31.8</ele>
        <time>2021-05-19T07:47:00Z</time>
      </trkpt>
      <trkpt lat="41.9950040" lon="-8.8804240">
        <ele>31.8</ele>
        <time>2021-05-19T07:47:01Z</time>
      </trkpt>
      <trkpt lat="41.9950040" lon="-8.8804270">
        <ele>31.8</ele>
        <time>2021-05-19T07:47:02Z</time>
      </trkpt>
      <trkpt lat="41.9950040" lon="-8.8804270">
        <ele>31.8</ele>
        <time>2021-05-19T07:47:03Z</time>
      </trkpt>
      <trkpt lat="41.9950020" lon="-8.8804280">
        <ele>31.8</ele>
        <time>2021-05-19T07:47:04Z</time>
      </trkpt>
      <trkpt lat="41.9949990" lon="-8.8804220">
        <ele>31.7</ele>
        <time>2021-05-19T07:47:05Z</time>
      </trkpt>
      <trkpt lat="41.9949970" lon="-8.8804240">
        <ele>31.7</ele>
        <time>2021-05-19T07:47:06Z</time>
      </trkpt>
      <trkpt lat="41.9949950" lon="-8.8804190">
        <ele>31.7</ele>
        <time>2021-05-19T07:47:07Z</time>
      </trkpt>
      <trkpt lat="41.9949920" lon="-8.8804160">
        <ele>31.7</ele>
        <time>2021-05-19T07:47:08Z</time>
      </trkpt>
      <trkpt lat="41.9949990" lon="-8.8804160">
        <ele>31.7</ele>
        <time>2021-05-19T07:47:09Z</time>
      </trkpt>
      <trkpt lat="41.9949950" lon="-8.8804110">
        <ele>31.6</ele>
        <time>2021-05-19T07:47:10Z</time>
      </trkpt>
      <trkpt lat="41.9949950" lon="-8.8804120">
        <ele>31.6</ele>
        <time>2021-05-19T07:47:11Z</time>
      </trkpt>
      <trkpt lat="41.9949950" lon="-8.8804120">
        <ele>31.6</ele>
        <time>2021-05-19T07:47:12Z</time>
      </trkpt>
      <trkpt lat="41.9949970" lon="-8.8804360">
        <ele>31.6</ele>
        <time>2021-05-19T07:47:13Z</time>
      </trkpt>
      <trkpt lat="41.9950030" lon="-8.8804310">
        <ele>31.5</ele>
        <time>2021-05-19T07:47:14Z</time>
      </trkpt>
      <trkpt lat="41.9950050" lon="-8.8804320">
        <ele>31.5</ele>
        <time>2021-05-19T07:47:15Z</time>
      </trkpt>
      <trkpt lat="41.9950050" lon="-8.8804390">
        <ele>31.5</ele>
        <time>2021-05-19T07:47:16Z</time>
      </trkpt>
      <trkpt lat="41.9949990" lon="-8.8804460">
        <ele>31.5</ele>
        <time>2021-05-19T07:47:17Z</time>
      </trkpt>
      <trkpt lat="41.9949980" lon="-8.8804500">
        <ele>31.4</ele>
        <time>2021-05-19T07:47:18Z</time>
      </trkpt>
      <trkpt lat="41.9949930" lon="-8.8804540">
        <ele>31.4</ele>
        <time>2021-05-19T07:47:19Z</time>
      </trkpt>
      <trkpt lat="41.9949950" lon="-8.8804660">
        <ele>31.4</ele>
        <time>2021-05-19T07:47:20Z</time>
      </trkpt>
      <trkpt lat="41.9949950" lon="-8.8804690">
        <ele>31.4</ele>
        <time>2021-05-19T07:47:21Z</time>
      </trkpt>
      <trkpt lat="41.9949950" lon="-8.8804690">
        <ele>31.4</ele>
        <time>2021-05-19T07:47:22Z</time>
      </trkpt>
      <trkpt lat="41.9949950" lon="-8.8804690">
        <ele>31.4</ele>
        <time>2021-05-19T07:47:23Z</time>
      </trkpt>
      <trkpt lat="41.9950030" lon="-8.8804560">
        <ele>31.3</ele>
        <time>2021-05-19T07:47:24Z</time>
      </trkpt>
      <trkpt lat="41.9950030" lon="-8.8804560">
        <ele>31.3</ele>
        <time>2021-05-19T07:47:25Z</time>
      </trkpt>
      <trkpt lat="41.9950030" lon="-8.8804560">
        <ele>31.3</ele>
        <time>2021-05-19T07:47:26Z</time>
      </trkpt>
      <trkpt lat="41.9949940" lon="-8.8804630">
        <ele>31.3</ele>
        <time>2021-05-19T07:47:28Z</time>
      </trkpt>
      <trkpt lat="41.9949940" lon="-8.8804630">
        <ele>31.3</ele>
        <time>2021-05-19T07:47:29Z</time>
      </trkpt>
      <trkpt lat="41.9949940" lon="-8.8804630">
        <ele>31.3</ele>
        <time>2021-05-19T07:47:30Z</time>
      </trkpt>
      <trkpt lat="41.9950030" lon="-8.8804590">
        <ele>31.2</ele>
        <time>2021-05-19T07:47:31Z</time>
      </trkpt>
      <trkpt lat="41.9950030" lon="-8.8804590">
        <ele>31.2</ele>
        <time>2021-05-19T07:47:32Z</time>
      </trkpt>
      <trkpt lat="41.9950080" lon="-8.8804600">
        <ele>31.2</ele>
        <time>2021-05-19T07:47:33Z</time>
      </trkpt>
      <trkpt lat="41.9950080" lon="-8.8804600">
        <ele>31.2</ele>
        <time>2021-05-19T07:47:34Z</time>
      </trkpt>
      <trkpt lat="41.9950080" lon="-8.8804600">
        <ele>31.2</ele>
        <time>2021-05-19T07:47:35Z</time>
      </trkpt>
      <trkpt lat="41.9950080" lon="-8.8804600">
        <ele>31.2</ele>
        <time>2021-05-19T07:47:36Z</time>
      </trkpt>
      <trkpt lat="41.9950080" lon="-8.8804600">
        <ele>31.2</ele>
        <time>2021-05-19T07:47:37Z</time>
      </trkpt>
      <trkpt lat="41.9950090" lon="-8.8804520">
        <ele>31.2</ele>
        <time>2021-05-19T07:47:38Z</time>
      </trkpt>
      <trkpt lat="41.9949980" lon="-8.8804580">
        <ele>31.1</ele>
        <time>2021-05-19T07:47:39Z</time>
      </trkpt>
      <trkpt lat="41.9949920" lon="-8.8804550">
        <ele>31.1</ele>
        <time>2021-05-19T07:47:40Z</time>
      </trkpt>
      <trkpt lat="41.9949920" lon="-8.8804550">
        <ele>31.1</ele>
        <time>2021-05-19T07:47:41Z</time>
      </trkpt>
      <trkpt lat="41.9949920" lon="-8.8804500">
        <ele>31.1</ele>
        <time>2021-05-19T07:47:42Z</time>
      </trkpt>
      <trkpt lat="41.9949920" lon="-8.8804500">
        <ele>31.1</ele>
        <time>2021-05-19T07:47:43Z</time>
      </trkpt>
      <trkpt lat="41.9950100" lon="-8.8804360">
        <ele>31.0</ele>
        <time>2021-05-19T07:47:44Z</time>
      </trkpt>
      <trkpt lat="41.9950100" lon="-8.8804360">
        <ele>31.0</ele>
        <time>2021-05-19T07:47:45Z</time>
      </trkpt>
      <trkpt lat="41.9950100" lon="-8.8804360">
        <ele>31.0</ele>
        <time>2021-05-19T07:47:46Z</time>
      </trkpt>
      <trkpt lat="41.9950100" lon="-8.8804360">
        <ele>31.0</ele>
        <time>2021-05-19T07:47:47Z</time>
      </trkpt>
      <trkpt lat="41.9950100" lon="-8.8804360">
        <ele>31.0</ele>
        <time>2021-05-19T07:47:48Z</time>
      </trkpt>
      <trkpt lat="41.9950100" lon="-8.8804360">
        <ele>31.0</ele>
        <time>2021-05-19T07:47:49Z</time>
      </trkpt>
      <trkpt lat="41.9950100" lon="-8.8804360">
        <ele>31.0</ele>
        <time>2021-05-19T07:47:50Z</time>
      </trkpt>
      <trkpt lat="41.9950100" lon="-8.8804360">
        <ele>31.0</ele>
        <time>2021-05-19T07:47:51Z</time>
      </trkpt>
      <trkpt lat="41.9950100" lon="-8.8804360">
        <ele>31.0</ele>
        <time>2021-05-19T07:47:52Z</time>
      </trkpt>
      <trkpt lat="41.9950100" lon="-8.8804360">
        <ele>31.0</ele>
        <time>2021-05-19T07:47:53Z</time>
      </trkpt>
      <trkpt lat="41.9950100" lon="-8.8804360">
        <ele>31.0</ele>
        <time>2021-05-19T07:47:54Z</time>
      </trkpt>
      <trkpt lat="41.9949990" lon="-8.8804210">
        <ele>30.9</ele>
        <time>2021-05-19T07:47:55Z</time>
      </trkpt>
      <trkpt lat="41.9949990" lon="-8.8804280">
        <ele>30.9</ele>
        <time>2021-05-19T07:47:56Z</time>
      </trkpt>
      <trkpt lat="41.9950000" lon="-8.8804340">
        <ele>30.9</ele>
        <time>2021-05-19T07:47:57Z</time>
      </trkpt>
      <trkpt lat="41.9950040" lon="-8.8804420">
        <ele>30.8</ele>
        <time>2021-05-19T07:47:58Z</time>
      </trkpt>
      <trkpt lat="41.9950040" lon="-8.8804550">
        <ele>30.8</ele>
        <time>2021-05-19T07:47:59Z</time>
      </trkpt>
      <trkpt lat="41.9949990" lon="-8.8804630">
        <ele>30.7</ele>
        <time>2021-05-19T07:48:00Z</time>
      </trkpt>
      <trkpt lat="41.9949920" lon="-8.8804710">
        <ele>30.7</ele>
        <time>2021-05-19T07:48:01Z</time>
      </trkpt>
      <trkpt lat="41.9949850" lon="-8.8804790">
        <ele>30.7</ele>
        <time>2021-05-19T07:48:02Z</time>
      </trkpt>
      <trkpt lat="41.9949750" lon="-8.8804670">
        <ele>30.6</ele>
        <time>2021-05-19T07:48:03Z</time>
      </trkpt>
      <trkpt lat="41.9949690" lon="-8.8804610">
        <ele>30.6</ele>
        <time>2021-05-19T07:48:04Z</time>
      </trkpt>
      <trkpt lat="41.9949640" lon="-8.8804560">
        <ele>30.5</ele>
        <time>2021-05-19T07:48:05Z</time>
      </trkpt>
      <trkpt lat="41.9949580" lon="-8.8804460">
        <ele>30.5</ele>
        <time>2021-05-19T07:48:06Z</time>
      </trkpt>
      <trkpt lat="41.9949580" lon="-8.8804510">
        <ele>30.5</ele>
        <time>2021-05-19T07:48:07Z</time>
      </trkpt>
      <trkpt lat="41.9949620" lon="-8.8804630">
        <ele>30.4</ele>
        <time>2021-05-19T07:48:08Z</time>
      </trkpt>
      <trkpt lat="41.9949620" lon="-8.8804630">
        <ele>30.4</ele>
        <time>2021-05-19T07:48:09Z</time>
      </trkpt>
      <trkpt lat="41.9949700" lon="-8.8804640">
        <ele>30.4</ele>
        <time>2021-05-19T07:48:10Z</time>
      </trkpt>
      <trkpt lat="41.9949710" lon="-8.8804720">
        <ele>30.4</ele>
        <time>2021-05-19T07:48:11Z</time>
      </trkpt>
      <trkpt lat="41.9949600" lon="-8.8804610">
        <ele>30.3</ele>
        <time>2021-05-19T07:48:12Z</time>
      </trkpt>
      <trkpt lat="41.9949490" lon="-8.8804620">
        <ele>30.3</ele>
        <time>2021-05-19T07:48:13Z</time>
      </trkpt>
      <trkpt lat="41.9949380" lon="-8.8804620">
        <ele>30.2</ele>
        <time>2021-05-19T07:48:14Z</time>
      </trkpt>
      <trkpt lat="41.9949200" lon="-8.8804580">
        <ele>30.1</ele>
        <time>2021-05-19T07:48:15Z</time>
      </trkpt>
      <trkpt lat="41.9949110" lon="-8.8804570">
        <ele>30.1</ele>
        <time>2021-05-19T07:48:16Z</time>
      </trkpt>
      <trkpt lat="41.9949010" lon="-8.8804560">
        <ele>30.0</ele>
        <time>2021-05-19T07:48:17Z</time>
      </trkpt>
      <trkpt lat="41.9949240" lon="-8.8804460">
        <ele>29.9</ele>
        <time>2021-05-19T07:48:18Z</time>
      </trkpt>
      <trkpt lat="41.9949310" lon="-8.8804430">
        <ele>29.9</ele>
        <time>2021-05-19T07:48:19Z</time>
      </trkpt>
      <trkpt lat="41.9949420" lon="-8.8804480">
        <ele>29.9</ele>
        <time>2021-05-19T07:48:20Z</time>
      </trkpt>
      <trkpt lat="41.9949620" lon="-8.8804460">
        <ele>29.8</ele>
        <time>2021-05-19T07:48:21Z</time>
      </trkpt>
      <trkpt lat="41.9949790" lon="-8.8804530">
        <ele>29.7</ele>
        <time>2021-05-19T07:48:22Z</time>
      </trkpt>
      <trkpt lat="41.9949780" lon="-8.8804520">
        <ele>29.7</ele>
        <time>2021-05-19T07:48:23Z</time>
      </trkpt>
      <trkpt lat="41.9949850" lon="-8.8804590">
        <ele>29.6</ele>
        <time>2021-05-19T07:48:24Z</time>
      </trkpt>
      <trkpt lat="41.9949870" lon="-8.8804550">
        <ele>29.6</ele>
        <time>2021-05-19T07:48:25Z</time>
      </trkpt>
      <trkpt lat="41.9949820" lon="-8.8804360">
        <ele>29.6</ele>
        <time>2021-05-19T07:48:26Z</time>
      </trkpt>
      <trkpt lat="41.9949830" lon="-8.8804360">
        <ele>29.6</ele>
        <time>2021-05-19T07:48:27Z</time>
      </trkpt>
      <trkpt lat="41.9949810" lon="-8.8804290">
        <ele>29.5</ele>
        <time>2021-05-19T07:48:28Z</time>
      </trkpt>
      <trkpt lat="41.9949840" lon="-8.8804140">
        <ele>29.5</ele>
        <time>2021-05-19T07:48:29Z</time>
      </trkpt>
      <trkpt lat="41.9949830" lon="-8.8804090">
        <ele>29.5</ele>
        <time>2021-05-19T07:48:30Z</time>
      </trkpt>
      <trkpt lat="41.9949870" lon="-8.8804150">
        <ele>29.4</ele>
        <time>2021-05-19T07:48:31Z</time>
      </trkpt>
      <trkpt lat="41.9950050" lon="-8.8804150">
        <ele>29.4</ele>
        <time>2021-05-19T07:48:32Z</time>
      </trkpt>
      <trkpt lat="41.9950170" lon="-8.8804260">
        <ele>29.3</ele>
        <time>2021-05-19T07:48:33Z</time>
      </trkpt>
      <trkpt lat="41.9950290" lon="-8.8804360">
        <ele>29.2</ele>
        <time>2021-05-19T07:48:34Z</time>
      </trkpt>
      <trkpt lat="41.9950290" lon="-8.8804330">
        <ele>29.2</ele>
        <time>2021-05-19T07:48:35Z</time>
      </trkpt>
      <trkpt lat="41.9950260" lon="-8.8804270">
        <ele>29.2</ele>
        <time>2021-05-19T07:48:36Z</time>
      </trkpt>
      <trkpt lat="41.9950340" lon="-8.8804250">
        <ele>29.2</ele>
        <time>2021-05-19T07:48:37Z</time>
      </trkpt>
      <trkpt lat="41.9950300" lon="-8.8804320">
        <ele>29.1</ele>
        <time>2021-05-19T07:48:38Z</time>
      </trkpt>
      <trkpt lat="41.9950310" lon="-8.8804460">
        <ele>29.1</ele>
        <time>2021-05-19T07:48:39Z</time>
      </trkpt>
      <trkpt lat="41.9950210" lon="-8.8804570">
        <ele>29.0</ele>
        <time>2021-05-19T07:48:40Z</time>
      </trkpt>
      <trkpt lat="41.9950250" lon="-8.8804640">
        <ele>29.0</ele>
        <time>2021-05-19T07:48:41Z</time>
      </trkpt>
      <trkpt lat="41.9950220" lon="-8.8804610">
        <ele>29.0</ele>
        <time>2021-05-19T07:48:42Z</time>
      </trkpt>
      <trkpt lat="41.9950260" lon="-8.8804640">
        <ele>29.0</ele>
        <time>2021-05-19T07:48:43Z</time>
      </trkpt>
      <trkpt lat="41.9950220" lon="-8.8804810">
        <ele>28.9</ele>
        <time>2021-05-19T07:48:44Z</time>
      </trkpt>
      <trkpt lat="41.9950190" lon="-8.8804790">
        <ele>28.9</ele>
        <time>2021-05-19T07:48:45Z</time>
      </trkpt>
      <trkpt lat="41.9950160" lon="-8.8804860">
        <ele>28.9</ele>
        <time>2021-05-19T07:48:46Z</time>
      </trkpt>
      <trkpt lat="41.9950170" lon="-8.8804880">
        <ele>28.9</ele>
        <time>2021-05-19T07:48:47Z</time>
      </trkpt>
      <trkpt lat="41.9950110" lon="-8.8804830">
        <ele>28.8</ele>
        <time>2021-05-19T07:48:48Z</time>
      </trkpt>
      <trkpt lat="41.9950140" lon="-8.8804800">
        <ele>28.8</ele>
        <time>2021-05-19T07:48:49Z</time>
      </trkpt>
      <trkpt lat="41.9950110" lon="-8.8804800">
        <ele>28.8</ele>
        <time>2021-05-19T07:48:50Z</time>
      </trkpt>
      <trkpt lat="41.9950050" lon="-8.8804760">
        <ele>28.8</ele>
        <time>2021-05-19T07:48:51Z</time>
      </trkpt>
      <trkpt lat="41.9949990" lon="-8.8804730">
        <ele>28.7</ele>
        <time>2021-05-19T07:48:52Z</time>
      </trkpt>
      <trkpt lat="41.9949960" lon="-8.8804750">
        <ele>28.7</ele>
        <time>2021-05-19T07:48:53Z</time>
      </trkpt>
      <trkpt lat="41.9949880" lon="-8.8804660">
        <ele>28.7</ele>
        <time>2021-05-19T07:48:54Z</time>
      </trkpt>
      <trkpt lat="41.9949900" lon="-8.8804520">
        <ele>28.6</ele>
        <time>2021-05-19T07:48:55Z</time>
      </trkpt>
      <trkpt lat="41.9949910" lon="-8.8804380">
        <ele>28.6</ele>
        <time>2021-05-19T07:48:56Z</time>
      </trkpt>
      <trkpt lat="41.9949920" lon="-8.8804230">
        <ele>28.5</ele>
        <time>2021-05-19T07:48:57Z</time>
      </trkpt>
      <trkpt lat="41.9949940" lon="-8.8804090">
        <ele>28.5</ele>
        <time>2021-05-19T07:48:58Z</time>
      </trkpt>
      <trkpt lat="41.9949950" lon="-8.8803950">
        <ele>28.5</ele>
        <time>2021-05-19T07:48:59Z</time>
      </trkpt>
      <trkpt lat="41.9950020" lon="-8.8803790">
        <ele>28.4</ele>
        <time>2021-05-19T07:49:00Z</time>
      </trkpt>
      <trkpt lat="41.9950050" lon="-8.8803830">
        <ele>28.4</ele>
        <time>2021-05-19T07:49:01Z</time>
      </trkpt>
      <trkpt lat="41.9950080" lon="-8.8803880">
        <ele>28.4</ele>
        <time>2021-05-19T07:49:02Z</time>
      </trkpt>
      <trkpt lat="41.9950110" lon="-8.8803920">
        <ele>28.3</ele>
        <time>2021-05-19T07:49:03Z</time>
      </trkpt>
      <trkpt lat="41.9950140" lon="-8.8803960">
        <ele>28.3</ele>
        <time>2021-05-19T07:49:04Z</time>
      </trkpt>
      <trkpt lat="41.9950160" lon="-8.8804000">
        <ele>28.3</ele>
        <time>2021-05-19T07:49:05Z</time>
      </trkpt>
      <trkpt lat="41.9950190" lon="-8.8804040">
        <ele>28.3</ele>
        <time>2021-05-19T07:49:06Z</time>
      </trkpt>
      <trkpt lat="41.9950220" lon="-8.8804090">
        <ele>28.3</ele>
        <time>2021-05-19T07:49:07Z</time>
      </trkpt>
      <trkpt lat="41.9950250" lon="-8.8804130">
        <ele>28.3</ele>
        <time>2021-05-19T07:49:08Z</time>
      </trkpt>
      <trkpt lat="41.9950280" lon="-8.8804170">
        <ele>28.2</ele>
        <time>2021-05-19T07:49:09Z</time>
      </trkpt>
      <trkpt lat="41.9950340" lon="-8.8804270">
        <ele>28.2</ele>
        <time>2021-05-19T07:49:10Z</time>
      </trkpt>
      <trkpt lat="41.9950370" lon="-8.8804250">
        <ele>28.2</ele>
        <time>2021-05-19T07:49:11Z</time>
      </trkpt>
      <trkpt lat="41.9950350" lon="-8.8804150">
        <ele>28.1</ele>
        <time>2021-05-19T07:49:12Z</time>
      </trkpt>
      <trkpt lat="41.9950480" lon="-8.8804100">
        <ele>28.1</ele>
        <time>2021-05-19T07:49:13Z</time>
      </trkpt>
      <trkpt lat="41.9950510" lon="-8.8804130">
        <ele>28.1</ele>
        <time>2021-05-19T07:49:14Z</time>
      </trkpt>
      <trkpt lat="41.9950540" lon="-8.8804240">
        <ele>28.0</ele>
        <time>2021-05-19T07:49:15Z</time>
      </trkpt>
      <trkpt lat="41.9950600" lon="-8.8804280">
        <ele>28.0</ele>
        <time>2021-05-19T07:49:16Z</time>
      </trkpt>
      <trkpt lat="41.9950620" lon="-8.8804320">
        <ele>28.0</ele>
        <time>2021-05-19T07:49:17Z</time>
      </trkpt>
      <trkpt lat="41.9950610" lon="-8.8804320">
        <ele>28.0</ele>
        <time>2021-05-19T07:49:18Z</time>
      </trkpt>
      <trkpt lat="41.9950560" lon="-8.8804290">
        <ele>28.0</ele>
        <time>2021-05-19T07:49:19Z</time>
      </trkpt>
      <trkpt lat="41.9950630" lon="-8.8804290">
        <ele>27.9</ele>
        <time>2021-05-19T07:49:20Z</time>
      </trkpt>
      <trkpt lat="41.9950640" lon="-8.8804310">
        <ele>27.9</ele>
        <time>2021-05-19T07:49:21Z</time>
      </trkpt>
      <trkpt lat="41.9950650" lon="-8.8804330">
        <ele>27.9</ele>
        <time>2021-05-19T07:49:22Z</time>
      </trkpt>
      <trkpt lat="41.9950680" lon="-8.8804340">
        <ele>27.9</ele>
        <time>2021-05-19T07:49:23Z</time>
      </trkpt>
      <trkpt lat="41.9950680" lon="-8.8804320">
        <ele>27.9</ele>
        <time>2021-05-19T07:49:24Z</time>
      </trkpt>
      <trkpt lat="41.9950700" lon="-8.8804310">
        <ele>27.9</ele>
        <time>2021-05-19T07:49:25Z</time>
      </trkpt>
      <trkpt lat="41.9950690" lon="-8.8804310">
        <ele>27.9</ele>
        <time>2021-05-19T07:49:26Z</time>
      </trkpt>
      <trkpt lat="41.9950690" lon="-8.8804310">
        <ele>27.9</ele>
        <time>2021-05-19T07:49:27Z</time>
      </trkpt>
      <trkpt lat="41.9950690" lon="-8.8804320">
        <ele>27.9</ele>
        <time>2021-05-19T07:49:28Z</time>
      </trkpt>
      <trkpt lat="41.9950710" lon="-8.8804330">
        <ele>27.9</ele>
        <time>2021-05-19T07:49:29Z</time>
      </trkpt>
      <trkpt lat="41.9950720" lon="-8.8804330">
        <ele>27.9</ele>
        <time>2021-05-19T07:49:30Z</time>
      </trkpt>
      <trkpt lat="41.9950710" lon="-8.8804340">
        <ele>27.9</ele>
        <time>2021-05-19T07:49:31Z</time>
      </trkpt>
      <trkpt lat="41.9950730" lon="-8.8804360">
        <ele>27.9</ele>
        <time>2021-05-19T07:49:32Z</time>
      </trkpt>
      <trkpt lat="41.9950760" lon="-8.8804330">
        <ele>27.9</ele>
        <time>2021-05-19T07:49:33Z</time>
      </trkpt>
      <trkpt lat="41.9950790" lon="-8.8804340">
        <ele>27.8</ele>
        <time>2021-05-19T07:49:34Z</time>
      </trkpt>
      <trkpt lat="41.9950830" lon="-8.8804320">
        <ele>27.8</ele>
        <time>2021-05-19T07:49:35Z</time>
      </trkpt>
      <trkpt lat="41.9950840" lon="-8.8804290">
        <ele>27.8</ele>
        <time>2021-05-19T07:49:36Z</time>
      </trkpt>
      <trkpt lat="41.9950830" lon="-8.8804280">
        <ele>27.8</ele>
        <time>2021-05-19T07:49:37Z</time>
      </trkpt>
      <trkpt lat="41.9950790" lon="-8.8804270">
        <ele>27.8</ele>
        <time>2021-05-19T07:49:38Z</time>
      </trkpt>
      <trkpt lat="41.9950810" lon="-8.8804270">
        <ele>27.8</ele>
        <time>2021-05-19T07:49:39Z</time>
      </trkpt>
      <trkpt lat="41.9950830" lon="-8.8804260">
        <ele>27.8</ele>
        <time>2021-05-19T07:49:40Z</time>
      </trkpt>
      <trkpt lat="41.9950860" lon="-8.8804250">
        <ele>27.8</ele>
        <time>2021-05-19T07:49:41Z</time>
      </trkpt>
      <trkpt lat="41.9950880" lon="-8.8804250">
        <ele>27.8</ele>
        <time>2021-05-19T07:49:42Z</time>
      </trkpt>
      <trkpt lat="41.9950880" lon="-8.8804250">
        <ele>27.8</ele>
        <time>2021-05-19T07:49:43Z</time>
      </trkpt>
      <trkpt lat="41.9950880" lon="-8.8804250">
        <ele>27.8</ele>
        <time>2021-05-19T07:49:44Z</time>
      </trkpt>
      <trkpt lat="41.9950940" lon="-8.8804200">
        <ele>27.7</ele>
        <time>2021-05-19T07:49:45Z</time>
      </trkpt>
      <trkpt lat="41.9950940" lon="-8.8804260">
        <ele>27.7</ele>
        <time>2021-05-19T07:49:46Z</time>
      </trkpt>
      <trkpt lat="41.9950870" lon="-8.8804280">
        <ele>27.7</ele>
        <time>2021-05-19T07:49:47Z</time>
      </trkpt>
      <trkpt lat="41.9950880" lon="-8.8804270">
        <ele>27.7</ele>
        <time>2021-05-19T07:49:48Z</time>
      </trkpt>
      <trkpt lat="41.9950870" lon="-8.8804310">
        <ele>27.7</ele>
        <time>2021-05-19T07:49:49Z</time>
      </trkpt>
      <trkpt lat="41.9950940" lon="-8.8804320">
        <ele>27.6</ele>
        <time>2021-05-19T07:49:50Z</time>
      </trkpt>
      <trkpt lat="41.9951100" lon="-8.8804330">
        <ele>27.6</ele>
        <time>2021-05-19T07:49:51Z</time>
      </trkpt>
      <trkpt lat="41.9951140" lon="-8.8804320">
        <ele>27.6</ele>
        <time>2021-05-19T07:49:52Z</time>
      </trkpt>
      <trkpt lat="41.9951230" lon="-8.8804270">
        <ele>27.5</ele>
        <time>2021-05-19T07:49:53Z</time>
      </trkpt>
      <trkpt lat="41.9951250" lon="-8.8804260">
        <ele>27.5</ele>
        <time>2021-05-19T07:49:54Z</time>
      </trkpt>
      <trkpt lat="41.9951290" lon="-8.8804230">
        <ele>27.5</ele>
        <time>2021-05-19T07:49:55Z</time>
      </trkpt>
      <trkpt lat="41.9951310" lon="-8.8804210">
        <ele>27.5</ele>
        <time>2021-05-19T07:49:56Z</time>
      </trkpt>
      <trkpt lat="41.9951330" lon="-8.8804190">
        <ele>27.5</ele>
        <time>2021-05-19T07:49:57Z</time>
      </trkpt>
      <trkpt lat="41.9951320" lon="-8.8804190">
        <ele>27.5</ele>
        <time>2021-05-19T07:49:58Z</time>
      </trkpt>
      <trkpt lat="41.9951320" lon="-8.8804210">
        <ele>27.5</ele>
        <time>2021-05-19T07:49:59Z</time>
      </trkpt>
      <trkpt lat="41.9951330" lon="-8.8804190">
        <ele>27.5</ele>
        <time>2021-05-19T07:50:00Z</time>
      </trkpt>
      <trkpt lat="41.9951290" lon="-8.8804230">
        <ele>27.4</ele>
        <time>2021-05-19T07:50:01Z</time>
      </trkpt>
      <trkpt lat="41.9951300" lon="-8.8804260">
        <ele>27.4</ele>
        <time>2021-05-19T07:50:02Z</time>
      </trkpt>
      <trkpt lat="41.9951310" lon="-8.8804270">
        <ele>27.4</ele>
        <time>2021-05-19T07:50:03Z</time>
      </trkpt>
      <trkpt lat="41.9951320" lon="-8.8804270">
        <ele>27.4</ele>
        <time>2021-05-19T07:50:04Z</time>
      </trkpt>
      <trkpt lat="41.9951320" lon="-8.8804270">
        <ele>27.4</ele>
        <time>2021-05-19T07:50:05Z</time>
      </trkpt>
      <trkpt lat="41.9951320" lon="-8.8804270">
        <ele>27.4</ele>
        <time>2021-05-19T07:50:06Z</time>
      </trkpt>
      <trkpt lat="41.9951340" lon="-8.8804310">
        <ele>27.4</ele>
        <time>2021-05-19T07:50:07Z</time>
      </trkpt>
      <trkpt lat="41.9951350" lon="-8.8804310">
        <ele>27.4</ele>
        <time>2021-05-19T07:50:08Z</time>
      </trkpt>
      <trkpt lat="41.9951340" lon="-8.8804310">
        <ele>27.4</ele>
        <time>2021-05-19T07:50:09Z</time>
      </trkpt>
      <trkpt lat="41.9951350" lon="-8.8804320">
        <ele>27.4</ele>
        <time>2021-05-19T07:50:10Z</time>
      </trkpt>
      <trkpt lat="41.9951360" lon="-8.8804310">
        <ele>27.4</ele>
        <time>2021-05-19T07:50:11Z</time>
      </trkpt>
      <trkpt lat="41.9951360" lon="-8.8804340">
        <ele>27.4</ele>
        <time>2021-05-19T07:50:12Z</time>
      </trkpt>
      <trkpt lat="41.9951370" lon="-8.8804340">
        <ele>27.4</ele>
        <time>2021-05-19T07:50:13Z</time>
      </trkpt>
      <trkpt lat="41.9951350" lon="-8.8804350">
        <ele>27.4</ele>
        <time>2021-05-19T07:50:14Z</time>
      </trkpt>
      <trkpt lat="41.9951340" lon="-8.8804320">
        <ele>27.4</ele>
        <time>2021-05-19T07:50:15Z</time>
      </trkpt>
      <trkpt lat="41.9951320" lon="-8.8804320">
        <ele>27.4</ele>
        <time>2021-05-19T07:50:16Z</time>
      </trkpt>
      <trkpt lat="41.9951310" lon="-8.8804300">
        <ele>27.3</ele>
        <time>2021-05-19T07:50:17Z</time>
      </trkpt>
      <trkpt lat="41.9951340" lon="-8.8804260">
        <ele>27.3</ele>
        <time>2021-05-19T07:50:18Z</time>
      </trkpt>
      <trkpt lat="41.9951320" lon="-8.8804210">
        <ele>27.3</ele>
        <time>2021-05-19T07:50:19Z</time>
      </trkpt>
      <trkpt lat="41.9951380" lon="-8.8804100">
        <ele>27.3</ele>
        <time>2021-05-19T07:50:20Z</time>
      </trkpt>
      <trkpt lat="41.9951390" lon="-8.8804030">
        <ele>27.3</ele>
        <time>2021-05-19T07:50:21Z</time>
      </trkpt>
      <trkpt lat="41.9951470" lon="-8.8803850">
        <ele>27.2</ele>
        <time>2021-05-19T07:50:22Z</time>
      </trkpt>
      <trkpt lat="41.9951520" lon="-8.8803690">
        <ele>27.2</ele>
        <time>2021-05-19T07:50:23Z</time>
      </trkpt>
      <trkpt lat="41.9951570" lon="-8.8803650">
        <ele>27.1</ele>
        <time>2021-05-19T07:50:24Z</time>
      </trkpt>
      <trkpt lat="41.9951580" lon="-8.8803640">
        <ele>27.1</ele>
        <time>2021-05-19T07:50:25Z</time>
      </trkpt>
      <trkpt lat="41.9951600" lon="-8.8803640">
        <ele>27.1</ele>
        <time>2021-05-19T07:50:26Z</time>
      </trkpt>
      <trkpt lat="41.9951610" lon="-8.8803640">
        <ele>27.1</ele>
        <time>2021-05-19T07:50:27Z</time>
      </trkpt>
      <trkpt lat="41.9951630" lon="-8.8803640">
        <ele>27.1</ele>
        <time>2021-05-19T07:50:28Z</time>
      </trkpt>
      <trkpt lat="41.9951640" lon="-8.8803630">
        <ele>27.1</ele>
        <time>2021-05-19T07:50:29Z</time>
      </trkpt>
      <trkpt lat="41.9951660" lon="-8.8803630">
        <ele>27.1</ele>
        <time>2021-05-19T07:50:30Z</time>
      </trkpt>
      <trkpt lat="41.9951670" lon="-8.8803630">
        <ele>27.1</ele>
        <time>2021-05-19T07:50:31Z</time>
      </trkpt>
      <trkpt lat="41.9951690" lon="-8.8803630">
        <ele>27.1</ele>
        <time>2021-05-19T07:50:32Z</time>
      </trkpt>
      <trkpt lat="41.9951700" lon="-8.8803620">
        <ele>27.1</ele>
        <time>2021-05-19T07:50:33Z</time>
      </trkpt>
      <trkpt lat="41.9951720" lon="-8.8803620">
        <ele>27.1</ele>
        <time>2021-05-19T07:50:34Z</time>
      </trkpt>
      <trkpt lat="41.9951730" lon="-8.8803620">
        <ele>27.1</ele>
        <time>2021-05-19T07:50:35Z</time>
      </trkpt>
      <trkpt lat="41.9951750" lon="-8.8803620">
        <ele>27.1</ele>
        <time>2021-05-19T07:50:36Z</time>
      </trkpt>
      <trkpt lat="41.9951760" lon="-8.8803610">
        <ele>27.1</ele>
        <time>2021-05-19T07:50:37Z</time>
      </trkpt>
      <trkpt lat="41.9951780" lon="-8.8803610">
        <ele>27.1</ele>
        <time>2021-05-19T07:50:38Z</time>
      </trkpt>
      <trkpt lat="41.9951790" lon="-8.8803610">
        <ele>27.0</ele>
        <time>2021-05-19T07:50:39Z</time>
      </trkpt>
      <trkpt lat="41.9951810" lon="-8.8803610">
        <ele>27.0</ele>
        <time>2021-05-19T07:50:40Z</time>
      </trkpt>
      <trkpt lat="41.9951820" lon="-8.8803600">
        <ele>27.0</ele>
        <time>2021-05-19T07:50:41Z</time>
      </trkpt>
      <trkpt lat="41.9951840" lon="-8.8803600">
        <ele>27.0</ele>
        <time>2021-05-19T07:50:42Z</time>
      </trkpt>
      <trkpt lat="41.9951850" lon="-8.8803600">
        <ele>27.0</ele>
        <time>2021-05-19T07:50:43Z</time>
      </trkpt>
      <trkpt lat="41.9951870" lon="-8.8803600">
        <ele>27.0</ele>
        <time>2021-05-19T07:50:44Z</time>
      </trkpt>
      <trkpt lat="41.9951880" lon="-8.8803590">
        <ele>27.0</ele>
        <time>2021-05-19T07:50:45Z</time>
      </trkpt>
      <trkpt lat="41.9951900" lon="-8.8803590">
        <ele>27.0</ele>
        <time>2021-05-19T07:50:46Z</time>
      </trkpt>
      <trkpt lat="41.9951960" lon="-8.8803520">
        <ele>27.0</ele>
        <time>2021-05-19T07:50:47Z</time>
      </trkpt>
      <trkpt lat="41.9952090" lon="-8.8803450">
        <ele>26.9</ele>
        <time>2021-05-19T07:50:48Z</time>
      </trkpt>
      <trkpt lat="41.9952200" lon="-8.8803360">
        <ele>26.9</ele>
        <time>2021-05-19T07:50:49Z</time>
      </trkpt>
      <trkpt lat="41.9952340" lon="-8.8803350">
        <ele>26.8</ele>
        <time>2021-05-19T07:50:50Z</time>
      </trkpt>
      <trkpt lat="41.9952440" lon="-8.8803320">
        <ele>26.8</ele>
        <time>2021-05-19T07:50:51Z</time>
      </trkpt>
      <trkpt lat="41.9952560" lon="-8.8803260">
        <ele>26.7</ele>
        <time>2021-05-19T07:50:52Z</time>
      </trkpt>
      <trkpt lat="41.9952700" lon="-8.8803190">
        <ele>26.7</ele>
        <time>2021-05-19T07:50:53Z</time>
      </trkpt>
      <trkpt lat="41.9952830" lon="-8.8803150">
        <ele>26.6</ele>
        <time>2021-05-19T07:50:54Z</time>
      </trkpt>
      <trkpt lat="41.9953050" lon="-8.8803070">
        <ele>26.6</ele>
        <time>2021-05-19T07:50:55Z</time>
      </trkpt>
      <trkpt lat="41.9953140" lon="-8.8803040">
        <ele>26.5</ele>
        <time>2021-05-19T07:50:56Z</time>
      </trkpt>
      <trkpt lat="41.9953220" lon="-8.8803000">
        <ele>26.5</ele>
        <time>2021-05-19T07:50:57Z</time>
      </trkpt>
      <trkpt lat="41.9953400" lon="-8.8802920">
        <ele>26.4</ele>
        <time>2021-05-19T07:50:58Z</time>
      </trkpt>
      <trkpt lat="41.9953500" lon="-8.8802870">
        <ele>26.4</ele>
        <time>2021-05-19T07:50:59Z</time>
      </trkpt>
      <trkpt lat="41.9953590" lon="-8.8802830">
        <ele>26.4</ele>
        <time>2021-05-19T07:51:00Z</time>
      </trkpt>
      <trkpt lat="41.9953710" lon="-8.8802750">
        <ele>26.3</ele>
        <time>2021-05-19T07:51:01Z</time>
      </trkpt>
      <trkpt lat="41.9953810" lon="-8.8802730">
        <ele>26.3</ele>
        <time>2021-05-19T07:51:02Z</time>
      </trkpt>
      <trkpt lat="41.9953940" lon="-8.8802700">
        <ele>26.3</ele>
        <time>2021-05-19T07:51:03Z</time>
      </trkpt>
      <trkpt lat="41.9954130" lon="-8.8802650">
        <ele>26.2</ele>
        <time>2021-05-19T07:51:04Z</time>
      </trkpt>
      <trkpt lat="41.9954220" lon="-8.8802630">
        <ele>26.2</ele>
        <time>2021-05-19T07:51:05Z</time>
      </trkpt>
      <trkpt lat="41.9954300" lon="-8.8802610">
        <ele>26.1</ele>
        <time>2021-05-19T07:51:06Z</time>
      </trkpt>
      <trkpt lat="41.9954470" lon="-8.8802540">
        <ele>26.1</ele>
        <time>2021-05-19T07:51:07Z</time>
      </trkpt>
      <trkpt lat="41.9954640" lon="-8.8802530">
        <ele>26.0</ele>
        <time>2021-05-19T07:51:08Z</time>
      </trkpt>
      <trkpt lat="41.9954780" lon="-8.8802510">
        <ele>26.0</ele>
        <time>2021-05-19T07:51:09Z</time>
      </trkpt>
      <trkpt lat="41.9954930" lon="-8.8802430">
        <ele>26.0</ele>
        <time>2021-05-19T07:51:10Z</time>
      </trkpt>
      <trkpt lat="41.9955130" lon="-8.8802410">
        <ele>25.9</ele>
        <time>2021-05-19T07:51:11Z</time>
      </trkpt>
      <trkpt lat="41.9955230" lon="-8.8802410">
        <ele>25.9</ele>
        <time>2021-05-19T07:51:12Z</time>
      </trkpt>
      <trkpt lat="41.9955320" lon="-8.8802420">
        <ele>25.9</ele>
        <time>2021-05-19T07:51:13Z</time>
      </trkpt>
      <trkpt lat="41.9955440" lon="-8.8802430">
        <ele>25.8</ele>
        <time>2021-05-19T07:51:14Z</time>
      </trkpt>
      <trkpt lat="41.9955520" lon="-8.8802400">
        <ele>25.8</ele>
        <time>2021-05-19T07:51:15Z</time>
      </trkpt>
      <trkpt lat="41.9955660" lon="-8.8802370">
        <ele>25.8</ele>
        <time>2021-05-19T07:51:16Z</time>
      </trkpt>
      <trkpt lat="41.9955850" lon="-8.8802340">
        <ele>25.7</ele>
        <time>2021-05-19T07:51:17Z</time>
      </trkpt>
      <trkpt lat="41.9955980" lon="-8.8802290">
        <ele>25.7</ele>
        <time>2021-05-19T07:51:18Z</time>
      </trkpt>
      <trkpt lat="41.9956170" lon="-8.8802170">
        <ele>25.6</ele>
        <time>2021-05-19T07:51:19Z</time>
      </trkpt>
      <trkpt lat="41.9956250" lon="-8.8802140">
        <ele>25.6</ele>
        <time>2021-05-19T07:51:20Z</time>
      </trkpt>
      <trkpt lat="41.9956320" lon="-8.8802100">
        <ele>25.6</ele>
        <time>2021-05-19T07:51:21Z</time>
      </trkpt>
      <trkpt lat="41.9956460" lon="-8.8801970">
        <ele>25.6</ele>
        <time>2021-05-19T07:51:22Z</time>
      </trkpt>
      <trkpt lat="41.9956520" lon="-8.8801920">
        <ele>25.5</ele>
        <time>2021-05-19T07:51:23Z</time>
      </trkpt>
      <trkpt lat="41.9956570" lon="-8.8801870">
        <ele>25.5</ele>
        <time>2021-05-19T07:51:24Z</time>
      </trkpt>
      <trkpt lat="41.9956630" lon="-8.8801820">
        <ele>25.5</ele>
        <time>2021-05-19T07:51:25Z</time>
      </trkpt>
      <trkpt lat="41.9956790" lon="-8.8801720">
        <ele>25.5</ele>
        <time>2021-05-19T07:51:26Z</time>
      </trkpt>
      <trkpt lat="41.9956870" lon="-8.8801660">
        <ele>25.5</ele>
        <time>2021-05-19T07:51:27Z</time>
      </trkpt>
      <trkpt lat="41.9956950" lon="-8.8801600">
        <ele>25.4</ele>
        <time>2021-05-19T07:51:28Z</time>
      </trkpt>
      <trkpt lat="41.9957040" lon="-8.8801510">
        <ele>25.4</ele>
        <time>2021-05-19T07:51:29Z</time>
      </trkpt>
      <trkpt lat="41.9957150" lon="-8.8801430">
        <ele>25.4</ele>
        <time>2021-05-19T07:51:30Z</time>
      </trkpt>
      <trkpt lat="41.9957250" lon="-8.8801410">
        <ele>25.4</ele>
        <time>2021-05-19T07:51:31Z</time>
      </trkpt>
      <trkpt lat="41.9957410" lon="-8.8801340">
        <ele>25.3</ele>
        <time>2021-05-19T07:51:32Z</time>
      </trkpt>
      <trkpt lat="41.9957510" lon="-8.8801250">
        <ele>25.3</ele>
        <time>2021-05-19T07:51:33Z</time>
      </trkpt>
      <trkpt lat="41.9957670" lon="-8.8801230">
        <ele>25.3</ele>
        <time>2021-05-19T07:51:34Z</time>
      </trkpt>
      <trkpt lat="41.9957750" lon="-8.8801250">
        <ele>25.3</ele>
        <time>2021-05-19T07:51:35Z</time>
      </trkpt>
      <trkpt lat="41.9957850" lon="-8.8801180">
        <ele>25.2</ele>
        <time>2021-05-19T07:51:36Z</time>
      </trkpt>
      <trkpt lat="41.9958110" lon="-8.8801060">
        <ele>25.2</ele>
        <time>2021-05-19T07:51:37Z</time>
      </trkpt>
      <trkpt lat="41.9958190" lon="-8.8801040">
        <ele>25.2</ele>
        <time>2021-05-19T07:51:38Z</time>
      </trkpt>
      <trkpt lat="41.9958280" lon="-8.8801010">
        <ele>25.1</ele>
        <time>2021-05-19T07:51:39Z</time>
      </trkpt>
      <trkpt lat="41.9958460" lon="-8.8800970">
        <ele>25.1</ele>
        <time>2021-05-19T07:51:40Z</time>
      </trkpt>
      <trkpt lat="41.9958500" lon="-8.8801000">
        <ele>25.1</ele>
        <time>2021-05-19T07:51:41Z</time>
      </trkpt>
      <trkpt lat="41.9958620" lon="-8.8800910">
        <ele>25.1</ele>
        <time>2021-05-19T07:51:42Z</time>
      </trkpt>
      <trkpt lat="41.9958830" lon="-8.8800810">
        <ele>25.0</ele>
        <time>2021-05-19T07:51:43Z</time>
      </trkpt>
      <trkpt lat="41.9958940" lon="-8.8800770">
        <ele>25.0</ele>
        <time>2021-05-19T07:51:44Z</time>
      </trkpt>
      <trkpt lat="41.9959070" lon="-8.8800690">
        <ele>25.0</ele>
        <time>2021-05-19T07:51:45Z</time>
      </trkpt>
      <trkpt lat="41.9959260" lon="-8.8800640">
        <ele>25.0</ele>
        <time>2021-05-19T07:51:46Z</time>
      </trkpt>
      <trkpt lat="41.9959260" lon="-8.8800490">
        <ele>24.9</ele>
        <time>2021-05-19T07:51:47Z</time>
      </trkpt>
      <trkpt lat="41.9959350" lon="-8.8800400">
        <ele>24.9</ele>
        <time>2021-05-19T07:51:48Z</time>
      </trkpt>
      <trkpt lat="41.9959510" lon="-8.8800330">
        <ele>24.9</ele>
        <time>2021-05-19T07:51:49Z</time>
      </trkpt>
      <trkpt lat="41.9959640" lon="-8.8800270">
        <ele>24.9</ele>
        <time>2021-05-19T07:51:50Z</time>
      </trkpt>
      <trkpt lat="41.9959790" lon="-8.8800180">
        <ele>24.8</ele>
        <time>2021-05-19T07:51:51Z</time>
      </trkpt>
      <trkpt lat="41.9959910" lon="-8.8800140">
        <ele>24.8</ele>
        <time>2021-05-19T07:51:52Z</time>
      </trkpt>
      <trkpt lat="41.9959990" lon="-8.8800070">
        <ele>24.8</ele>
        <time>2021-05-19T07:51:53Z</time>
      </trkpt>
      <trkpt lat="41.9960130" lon="-8.8800020">
        <ele>24.8</ele>
        <time>2021-05-19T07:51:54Z</time>
      </trkpt>
      <trkpt lat="41.9960220" lon="-8.8799920">
        <ele>24.7</ele>
        <time>2021-05-19T07:51:55Z</time>
      </trkpt>
      <trkpt lat="41.9960340" lon="-8.8799800">
        <ele>24.7</ele>
        <time>2021-05-19T07:51:56Z</time>
      </trkpt>
      <trkpt lat="41.9960460" lon="-8.8799700">
        <ele>24.7</ele>
        <time>2021-05-19T07:51:57Z</time>
      </trkpt>
      <trkpt lat="41.9960620" lon="-8.8799590">
        <ele>24.7</ele>
        <time>2021-05-19T07:51:58Z</time>
      </trkpt>
      <trkpt lat="41.9960800" lon="-8.8799530">
        <ele>24.6</ele>
        <time>2021-05-19T07:51:59Z</time>
      </trkpt>
      <trkpt lat="41.9960950" lon="-8.8799440">
        <ele>24.6</ele>
        <time>2021-05-19T07:52:00Z</time>
      </trkpt>
      <trkpt lat="41.9961100" lon="-8.8799350">
        <ele>24.6</ele>
        <time>2021-05-19T07:52:01Z</time>
      </trkpt>
      <trkpt lat="41.9961230" lon="-8.8799230">
        <ele>24.5</ele>
        <time>2021-05-19T07:52:02Z</time>
      </trkpt>
      <trkpt lat="41.9961370" lon="-8.8799140">
        <ele>24.5</ele>
        <time>2021-05-19T07:52:03Z</time>
      </trkpt>
      <trkpt lat="41.9961490" lon="-8.8799060">
        <ele>24.5</ele>
        <time>2021-05-19T07:52:04Z</time>
      </trkpt>
      <trkpt lat="41.9961620" lon="-8.8799020">
        <ele>24.5</ele>
        <time>2021-05-19T07:52:05Z</time>
      </trkpt>
      <trkpt lat="41.9961770" lon="-8.8798990">
        <ele>24.5</ele>
        <time>2021-05-19T07:52:06Z</time>
      </trkpt>
      <trkpt lat="41.9961920" lon="-8.8798930">
        <ele>24.4</ele>
        <time>2021-05-19T07:52:07Z</time>
      </trkpt>
      <trkpt lat="41.9962070" lon="-8.8798820">
        <ele>24.4</ele>
        <time>2021-05-19T07:52:08Z</time>
      </trkpt>
      <trkpt lat="41.9962220" lon="-8.8798760">
        <ele>24.4</ele>
        <time>2021-05-19T07:52:09Z</time>
      </trkpt>
      <trkpt lat="41.9962330" lon="-8.8798630">
        <ele>24.4</ele>
        <time>2021-05-19T07:52:10Z</time>
      </trkpt>
      <trkpt lat="41.9962480" lon="-8.8798590">
        <ele>24.3</ele>
        <time>2021-05-19T07:52:11Z</time>
      </trkpt>
      <trkpt lat="41.9962640" lon="-8.8798550">
        <ele>24.3</ele>
        <time>2021-05-19T07:52:12Z</time>
      </trkpt>
      <trkpt lat="41.9962780" lon="-8.8798430">
        <ele>24.3</ele>
        <time>2021-05-19T07:52:13Z</time>
      </trkpt>
      <trkpt lat="41.9962920" lon="-8.8798360">
        <ele>24.3</ele>
        <time>2021-05-19T07:52:14Z</time>
      </trkpt>
      <trkpt lat="41.9963070" lon="-8.8798260">
        <ele>24.2</ele>
        <time>2021-05-19T07:52:15Z</time>
      </trkpt>
      <trkpt lat="41.9963210" lon="-8.8798180">
        <ele>24.2</ele>
        <time>2021-05-19T07:52:16Z</time>
      </trkpt>
      <trkpt lat="41.9963350" lon="-8.8798100">
        <ele>24.2</ele>
        <time>2021-05-19T07:52:17Z</time>
      </trkpt>
      <trkpt lat="41.9963480" lon="-8.8798040">
        <ele>24.2</ele>
        <time>2021-05-19T07:52:18Z</time>
      </trkpt>
      <trkpt lat="41.9963680" lon="-8.8797860">
        <ele>24.1</ele>
        <time>2021-05-19T07:52:19Z</time>
      </trkpt>
      <trkpt lat="41.9963760" lon="-8.8797820">
        <ele>24.1</ele>
        <time>2021-05-19T07:52:20Z</time>
      </trkpt>
      <trkpt lat="41.9963850" lon="-8.8797770">
        <ele>24.1</ele>
        <time>2021-05-19T07:52:21Z</time>
      </trkpt>
      <trkpt lat="41.9963990" lon="-8.8797690">
        <ele>24.1</ele>
        <time>2021-05-19T07:52:22Z</time>
      </trkpt>
      <trkpt lat="41.9964130" lon="-8.8797630">
        <ele>24.0</ele>
        <time>2021-05-19T07:52:23Z</time>
      </trkpt>
      <trkpt lat="41.9964320" lon="-8.8797520">
        <ele>24.0</ele>
        <time>2021-05-19T07:52:24Z</time>
      </trkpt>
      <trkpt lat="41.9964380" lon="-8.8797460">
        <ele>24.0</ele>
        <time>2021-05-19T07:52:25Z</time>
      </trkpt>
      <trkpt lat="41.9964450" lon="-8.8797400">
        <ele>24.0</ele>
        <time>2021-05-19T07:52:26Z</time>
      </trkpt>
      <trkpt lat="41.9964580" lon="-8.8797320">
        <ele>24.0</ele>
        <time>2021-05-19T07:52:27Z</time>
      </trkpt>
      <trkpt lat="41.9964660" lon="-8.8797250">
        <ele>23.9</ele>
        <time>2021-05-19T07:52:28Z</time>
      </trkpt>
      <trkpt lat="41.9964760" lon="-8.8797160">
        <ele>23.9</ele>
        <time>2021-05-19T07:52:29Z</time>
      </trkpt>
      <trkpt lat="41.9964820" lon="-8.8797130">
        <ele>23.9</ele>
        <time>2021-05-19T07:52:30Z</time>
      </trkpt>
      <trkpt lat="41.9964950" lon="-8.8797020">
        <ele>23.9</ele>
        <time>2021-05-19T07:52:31Z</time>
      </trkpt>
      <trkpt lat="41.9965010" lon="-8.8796960">
        <ele>23.9</ele>
        <time>2021-05-19T07:52:32Z</time>
      </trkpt>
      <trkpt lat="41.9965090" lon="-8.8796900">
        <ele>23.9</ele>
        <time>2021-05-19T07:52:33Z</time>
      </trkpt>
      <trkpt lat="41.9965160" lon="-8.8796800">
        <ele>23.8</ele>
        <time>2021-05-19T07:52:34Z</time>
      </trkpt>
      <trkpt lat="41.9965280" lon="-8.8796700">
        <ele>23.8</ele>
        <time>2021-05-19T07:52:35Z</time>
      </trkpt>
      <trkpt lat="41.9965340" lon="-8.8796590">
        <ele>23.8</ele>
        <time>2021-05-19T07:52:36Z</time>
      </trkpt>
      <trkpt lat="41.9965420" lon="-8.8796540">
        <ele>23.8</ele>
        <time>2021-05-19T07:52:37Z</time>
      </trkpt>
      <trkpt lat="41.9965550" lon="-8.8796510">
        <ele>23.8</ele>
        <time>2021-05-19T07:52:38Z</time>
      </trkpt>
      <trkpt lat="41.9965660" lon="-8.8796410">
        <ele>23.7</ele>
        <time>2021-05-19T07:52:39Z</time>
      </trkpt>
      <trkpt lat="41.9965770" lon="-8.8796310">
        <ele>23.7</ele>
        <time>2021-05-19T07:52:40Z</time>
      </trkpt>
      <trkpt lat="41.9965840" lon="-8.8796210">
        <ele>23.7</ele>
        <time>2021-05-19T07:52:41Z</time>
      </trkpt>
      <trkpt lat="41.9965870" lon="-8.8796150">
        <ele>23.7</ele>
        <time>2021-05-19T07:52:42Z</time>
      </trkpt>
      <trkpt lat="41.9965880" lon="-8.8796060">
        <ele>23.7</ele>
        <time>2021-05-19T07:52:43Z</time>
      </trkpt>
      <trkpt lat="41.9965910" lon="-8.8795980">
        <ele>23.7</ele>
        <time>2021-05-19T07:52:44Z</time>
      </trkpt>
      <trkpt lat="41.9966020" lon="-8.8795930">
        <ele>23.7</ele>
        <time>2021-05-19T07:52:45Z</time>
      </trkpt>
      <trkpt lat="41.9966160" lon="-8.8795880">
        <ele>23.6</ele>
        <time>2021-05-19T07:52:46Z</time>
      </trkpt>
      <trkpt lat="41.9966270" lon="-8.8795770">
        <ele>23.6</ele>
        <time>2021-05-19T07:52:47Z</time>
      </trkpt>
      <trkpt lat="41.9966410" lon="-8.8795680">
        <ele>23.6</ele>
        <time>2021-05-19T07:52:48Z</time>
      </trkpt>
      <trkpt lat="41.9966590" lon="-8.8795550">
        <ele>23.6</ele>
        <time>2021-05-19T07:52:49Z</time>
      </trkpt>
      <trkpt lat="41.9966750" lon="-8.8795490">
        <ele>23.5</ele>
        <time>2021-05-19T07:52:50Z</time>
      </trkpt>
      <trkpt lat="41.9966870" lon="-8.8795350">
        <ele>23.5</ele>
        <time>2021-05-19T07:52:51Z</time>
      </trkpt>
      <trkpt lat="41.9967040" lon="-8.8795300">
        <ele>23.5</ele>
        <time>2021-05-19T07:52:52Z</time>
      </trkpt>
      <trkpt lat="41.9967180" lon="-8.8795190">
        <ele>23.4</ele>
        <time>2021-05-19T07:52:53Z</time>
      </trkpt>
      <trkpt lat="41.9967380" lon="-8.8795050">
        <ele>23.4</ele>
        <time>2021-05-19T07:52:54Z</time>
      </trkpt>
      <trkpt lat="41.9967460" lon="-8.8795000">
        <ele>23.4</ele>
        <time>2021-05-19T07:52:55Z</time>
      </trkpt>
      <trkpt lat="41.9967550" lon="-8.8794960">
        <ele>23.4</ele>
        <time>2021-05-19T07:52:56Z</time>
      </trkpt>
      <trkpt lat="41.9967760" lon="-8.8794820">
        <ele>23.3</ele>
        <time>2021-05-19T07:52:57Z</time>
      </trkpt>
      <trkpt lat="41.9967860" lon="-8.8794770">
        <ele>23.3</ele>
        <time>2021-05-19T07:52:58Z</time>
      </trkpt>
      <trkpt lat="41.9967960" lon="-8.8794710">
        <ele>23.3</ele>
        <time>2021-05-19T07:52:59Z</time>
      </trkpt>
      <trkpt lat="41.9968090" lon="-8.8794580">
        <ele>23.3</ele>
        <time>2021-05-19T07:53:00Z</time>
      </trkpt>
      <trkpt lat="41.9968250" lon="-8.8794540">
        <ele>23.2</ele>
        <time>2021-05-19T07:53:01Z</time>
      </trkpt>
      <trkpt lat="41.9968380" lon="-8.8794520">
        <ele>23.2</ele>
        <time>2021-05-19T07:53:02Z</time>
      </trkpt>
      <trkpt lat="41.9968520" lon="-8.8794390">
        <ele>23.2</ele>
        <time>2021-05-19T07:53:03Z</time>
      </trkpt>
      <trkpt lat="41.9968650" lon="-8.8794320">
        <ele>23.1</ele>
        <time>2021-05-19T07:53:04Z</time>
      </trkpt>
      <trkpt lat="41.9968800" lon="-8.8794210">
        <ele>23.1</ele>
        <time>2021-05-19T07:53:05Z</time>
      </trkpt>
      <trkpt lat="41.9968930" lon="-8.8794080">
        <ele>23.1</ele>
        <time>2021-05-19T07:53:06Z</time>
      </trkpt>
      <trkpt lat="41.9969070" lon="-8.8793980">
        <ele>23.0</ele>
        <time>2021-05-19T07:53:07Z</time>
      </trkpt>
      <trkpt lat="41.9969230" lon="-8.8793980">
        <ele>23.0</ele>
        <time>2021-05-19T07:53:08Z</time>
      </trkpt>
      <trkpt lat="41.9969380" lon="-8.8793940">
        <ele>23.0</ele>
        <time>2021-05-19T07:53:09Z</time>
      </trkpt>
      <trkpt lat="41.9969510" lon="-8.8793800">
        <ele>22.9</ele>
        <time>2021-05-19T07:53:10Z</time>
      </trkpt>
      <trkpt lat="41.9969620" lon="-8.8793680">
        <ele>22.9</ele>
        <time>2021-05-19T07:53:11Z</time>
      </trkpt>
      <trkpt lat="41.9969740" lon="-8.8793630">
        <ele>22.9</ele>
        <time>2021-05-19T07:53:12Z</time>
      </trkpt>
      <trkpt lat="41.9969910" lon="-8.8793600">
        <ele>22.8</ele>
        <time>2021-05-19T07:53:13Z</time>
      </trkpt>
      <trkpt lat="41.9970020" lon="-8.8793480">
        <ele>22.8</ele>
        <time>2021-05-19T07:53:14Z</time>
      </trkpt>
      <trkpt lat="41.9970180" lon="-8.8793470">
        <ele>22.7</ele>
        <time>2021-05-19T07:53:15Z</time>
      </trkpt>
      <trkpt lat="41.9970290" lon="-8.8793370">
        <ele>22.7</ele>
        <time>2021-05-19T07:53:16Z</time>
      </trkpt>
      <trkpt lat="41.9970380" lon="-8.8793210">
        <ele>22.6</ele>
        <time>2021-05-19T07:53:17Z</time>
      </trkpt>
      <trkpt lat="41.9970570" lon="-8.8793060">
        <ele>22.5</ele>
        <time>2021-05-19T07:53:18Z</time>
      </trkpt>
      <trkpt lat="41.9970660" lon="-8.8793010">
        <ele>22.5</ele>
        <time>2021-05-19T07:53:19Z</time>
      </trkpt>
      <trkpt lat="41.9970750" lon="-8.8792950">
        <ele>22.5</ele>
        <time>2021-05-19T07:53:20Z</time>
      </trkpt>
      <trkpt lat="41.9970890" lon="-8.8792870">
        <ele>22.4</ele>
        <time>2021-05-19T07:53:21Z</time>
      </trkpt>
      <trkpt lat="41.9971010" lon="-8.8792800">
        <ele>22.3</ele>
        <time>2021-05-19T07:53:22Z</time>
      </trkpt>
      <trkpt lat="41.9971150" lon="-8.8792680">
        <ele>22.3</ele>
        <time>2021-05-19T07:53:23Z</time>
      </trkpt>
      <trkpt lat="41.9971280" lon="-8.8792650">
        <ele>22.2</ele>
        <time>2021-05-19T07:53:24Z</time>
      </trkpt>
      <trkpt lat="41.9971470" lon="-8.8792530">
        <ele>22.1</ele>
        <time>2021-05-19T07:53:25Z</time>
      </trkpt>
      <trkpt lat="41.9971550" lon="-8.8792500">
        <ele>22.1</ele>
        <time>2021-05-19T07:53:26Z</time>
      </trkpt>
      <trkpt lat="41.9971620" lon="-8.8792460">
        <ele>22.0</ele>
        <time>2021-05-19T07:53:27Z</time>
      </trkpt>
      <trkpt lat="41.9971750" lon="-8.8792320">
        <ele>22.0</ele>
        <time>2021-05-19T07:53:28Z</time>
      </trkpt>
      <trkpt lat="41.9971870" lon="-8.8792210">
        <ele>21.9</ele>
        <time>2021-05-19T07:53:29Z</time>
      </trkpt>
      <trkpt lat="41.9972020" lon="-8.8792180">
        <ele>21.8</ele>
        <time>2021-05-19T07:53:30Z</time>
      </trkpt>
      <trkpt lat="41.9972180" lon="-8.8792140">
        <ele>21.7</ele>
        <time>2021-05-19T07:53:31Z</time>
      </trkpt>
      <trkpt lat="41.9972320" lon="-8.8792070">
        <ele>21.7</ele>
        <time>2021-05-19T07:53:32Z</time>
      </trkpt>
      <trkpt lat="41.9972480" lon="-8.8792080">
        <ele>21.6</ele>
        <time>2021-05-19T07:53:33Z</time>
      </trkpt>
      <trkpt lat="41.9972620" lon="-8.8792020">
        <ele>21.5</ele>
        <time>2021-05-19T07:53:34Z</time>
      </trkpt>
      <trkpt lat="41.9972760" lon="-8.8791980">
        <ele>21.4</ele>
        <time>2021-05-19T07:53:35Z</time>
      </trkpt>
      <trkpt lat="41.9972890" lon="-8.8791840">
        <ele>21.3</ele>
        <time>2021-05-19T07:53:36Z</time>
      </trkpt>
      <trkpt lat="41.9972990" lon="-8.8791730">
        <ele>21.2</ele>
        <time>2021-05-19T07:53:37Z</time>
      </trkpt>
      <trkpt lat="41.9973090" lon="-8.8791690">
        <ele>21.2</ele>
        <time>2021-05-19T07:53:38Z</time>
      </trkpt>
      <trkpt lat="41.9973210" lon="-8.8791640">
        <ele>21.1</ele>
        <time>2021-05-19T07:53:39Z</time>
      </trkpt>
      <trkpt lat="41.9973260" lon="-8.8791500">
        <ele>21.0</ele>
        <time>2021-05-19T07:53:40Z</time>
      </trkpt>
      <trkpt lat="41.9973440" lon="-8.8791450">
        <ele>20.9</ele>
        <time>2021-05-19T07:53:41Z</time>
      </trkpt>
      <trkpt lat="41.9973530" lon="-8.8791410">
        <ele>20.8</ele>
        <time>2021-05-19T07:53:42Z</time>
      </trkpt>
      <trkpt lat="41.9973620" lon="-8.8791370">
        <ele>20.8</ele>
        <time>2021-05-19T07:53:43Z</time>
      </trkpt>
      <trkpt lat="41.9973710" lon="-8.8791260">
        <ele>20.7</ele>
        <time>2021-05-19T07:53:44Z</time>
      </trkpt>
      <trkpt lat="41.9973790" lon="-8.8791230">
        <ele>20.6</ele>
        <time>2021-05-19T07:53:46Z</time>
      </trkpt>
      <trkpt lat="41.9973910" lon="-8.8791170">
        <ele>20.5</ele>
        <time>2021-05-19T07:53:47Z</time>
      </trkpt>
      <trkpt lat="41.9973900" lon="-8.8791160">
        <ele>20.5</ele>
        <time>2021-05-19T07:53:48Z</time>
      </trkpt>
      <trkpt lat="41.9974010" lon="-8.8791120">
        <ele>20.4</ele>
        <time>2021-05-19T07:53:49Z</time>
      </trkpt>
      <trkpt lat="41.9974070" lon="-8.8791140">
        <ele>20.4</ele>
        <time>2021-05-19T07:53:50Z</time>
      </trkpt>
      <trkpt lat="41.9974190" lon="-8.8791120">
        <ele>20.3</ele>
        <time>2021-05-19T07:53:51Z</time>
      </trkpt>
      <trkpt lat="41.9974210" lon="-8.8791070">
        <ele>20.3</ele>
        <time>2021-05-19T07:53:52Z</time>
      </trkpt>
      <trkpt lat="41.9974340" lon="-8.8790980">
        <ele>20.2</ele>
        <time>2021-05-19T07:53:53Z</time>
      </trkpt>
      <trkpt lat="41.9974450" lon="-8.8790990">
        <ele>20.1</ele>
        <time>2021-05-19T07:53:54Z</time>
      </trkpt>
      <trkpt lat="41.9974560" lon="-8.8790970">
        <ele>20.0</ele>
        <time>2021-05-19T07:53:55Z</time>
      </trkpt>
      <trkpt lat="41.9974620" lon="-8.8790900">
        <ele>20.0</ele>
        <time>2021-05-19T07:53:56Z</time>
      </trkpt>
      <trkpt lat="41.9974750" lon="-8.8790870">
        <ele>19.9</ele>
        <time>2021-05-19T07:53:57Z</time>
      </trkpt>
      <trkpt lat="41.9974940" lon="-8.8790860">
        <ele>19.8</ele>
        <time>2021-05-19T07:53:58Z</time>
      </trkpt>
      <trkpt lat="41.9975040" lon="-8.8790820">
        <ele>19.7</ele>
        <time>2021-05-19T07:53:59Z</time>
      </trkpt>
      <trkpt lat="41.9975130" lon="-8.8790790">
        <ele>19.6</ele>
        <time>2021-05-19T07:54:00Z</time>
      </trkpt>
      <trkpt lat="41.9975260" lon="-8.8790760">
        <ele>19.5</ele>
        <time>2021-05-19T07:54:01Z</time>
      </trkpt>
      <trkpt lat="41.9975410" lon="-8.8790720">
        <ele>19.4</ele>
        <time>2021-05-19T07:54:02Z</time>
      </trkpt>
      <trkpt lat="41.9975750" lon="-8.8790670">
        <ele>19.2</ele>
        <time>2021-05-19T07:54:03Z</time>
      </trkpt>
      <trkpt lat="41.9975810" lon="-8.8790650">
        <ele>19.2</ele>
        <time>2021-05-19T07:54:04Z</time>
      </trkpt>
      <trkpt lat="41.9975970" lon="-8.8790620">
        <ele>19.1</ele>
        <time>2021-05-19T07:54:05Z</time>
      </trkpt>
      <trkpt lat="41.9976120" lon="-8.8790570">
        <ele>19.0</ele>
        <time>2021-05-19T07:54:06Z</time>
      </trkpt>
      <trkpt lat="41.9976270" lon="-8.8790520">
        <ele>18.9</ele>
        <time>2021-05-19T07:54:07Z</time>
      </trkpt>
      <trkpt lat="41.9976580" lon="-8.8790470">
        <ele>18.7</ele>
        <time>2021-05-19T07:54:08Z</time>
      </trkpt>
      <trkpt lat="41.9976720" lon="-8.8790390">
        <ele>18.6</ele>
        <time>2021-05-19T07:54:09Z</time>
      </trkpt>
      <trkpt lat="41.9976870" lon="-8.8790310">
        <ele>18.4</ele>
        <time>2021-05-19T07:54:10Z</time>
      </trkpt>
      <trkpt lat="41.9977010" lon="-8.8790330">
        <ele>18.4</ele>
        <time>2021-05-19T07:54:11Z</time>
      </trkpt>
      <trkpt lat="41.9977150" lon="-8.8790250">
        <ele>18.3</ele>
        <time>2021-05-19T07:54:12Z</time>
      </trkpt>
      <trkpt lat="41.9977300" lon="-8.8790290">
        <ele>18.2</ele>
        <time>2021-05-19T07:54:13Z</time>
      </trkpt>
      <trkpt lat="41.9977510" lon="-8.8790230">
        <ele>18.0</ele>
        <time>2021-05-19T07:54:14Z</time>
      </trkpt>
      <trkpt lat="41.9977610" lon="-8.8790200">
        <ele>18.0</ele>
        <time>2021-05-19T07:54:15Z</time>
      </trkpt>
      <trkpt lat="41.9977710" lon="-8.8790180">
        <ele>17.9</ele>
        <time>2021-05-19T07:54:16Z</time>
      </trkpt>
      <trkpt lat="41.9977830" lon="-8.8790130">
        <ele>17.9</ele>
        <time>2021-05-19T07:54:17Z</time>
      </trkpt>
      <trkpt lat="41.9977980" lon="-8.8790160">
        <ele>17.8</ele>
        <time>2021-05-19T07:54:18Z</time>
      </trkpt>
      <trkpt lat="41.9978140" lon="-8.8790120">
        <ele>17.7</ele>
        <time>2021-05-19T07:54:19Z</time>
      </trkpt>
      <trkpt lat="41.9978280" lon="-8.8790100">
        <ele>17.6</ele>
        <time>2021-05-19T07:54:20Z</time>
      </trkpt>
      <trkpt lat="41.9978430" lon="-8.8790120">
        <ele>17.5</ele>
        <time>2021-05-19T07:54:21Z</time>
      </trkpt>
      <trkpt lat="41.9978580" lon="-8.8790070">
        <ele>17.4</ele>
        <time>2021-05-19T07:54:22Z</time>
      </trkpt>
      <trkpt lat="41.9978730" lon="-8.8790050">
        <ele>17.4</ele>
        <time>2021-05-19T07:54:23Z</time>
      </trkpt>
      <trkpt lat="41.9978900" lon="-8.8789990">
        <ele>17.3</ele>
        <time>2021-05-19T07:54:24Z</time>
      </trkpt>
      <trkpt lat="41.9979070" lon="-8.8789940">
        <ele>17.2</ele>
        <time>2021-05-19T07:54:25Z</time>
      </trkpt>
      <trkpt lat="41.9979210" lon="-8.8789830">
        <ele>17.1</ele>
        <time>2021-05-19T07:54:26Z</time>
      </trkpt>
      <trkpt lat="41.9979340" lon="-8.8789790">
        <ele>17.1</ele>
        <time>2021-05-19T07:54:27Z</time>
      </trkpt>
      <trkpt lat="41.9979490" lon="-8.8789670">
        <ele>17.0</ele>
        <time>2021-05-19T07:54:28Z</time>
      </trkpt>
      <trkpt lat="41.9979640" lon="-8.8789640">
        <ele>16.9</ele>
        <time>2021-05-19T07:54:29Z</time>
      </trkpt>
      <trkpt lat="41.9979800" lon="-8.8789700">
        <ele>16.8</ele>
        <time>2021-05-19T07:54:30Z</time>
      </trkpt>
      <trkpt lat="41.9979950" lon="-8.8789570">
        <ele>16.8</ele>
        <time>2021-05-19T07:54:31Z</time>
      </trkpt>
      <trkpt lat="41.9980110" lon="-8.8789600">
        <ele>16.7</ele>
        <time>2021-05-19T07:54:32Z</time>
      </trkpt>
      <trkpt lat="41.9980270" lon="-8.8789590">
        <ele>16.6</ele>
        <time>2021-05-19T07:54:33Z</time>
      </trkpt>
      <trkpt lat="41.9980410" lon="-8.8789610">
        <ele>16.6</ele>
        <time>2021-05-19T07:54:34Z</time>
      </trkpt>
      <trkpt lat="41.9980590" lon="-8.8789660">
        <ele>16.5</ele>
        <time>2021-05-19T07:54:35Z</time>
      </trkpt>
      <trkpt lat="41.9980730" lon="-8.8789540">
        <ele>16.5</ele>
        <time>2021-05-19T07:54:36Z</time>
      </trkpt>
      <trkpt lat="41.9980870" lon="-8.8789510">
        <ele>16.4</ele>
        <time>2021-05-19T07:54:37Z</time>
      </trkpt>
      <trkpt lat="41.9981010" lon="-8.8789470">
        <ele>16.4</ele>
        <time>2021-05-19T07:54:38Z</time>
      </trkpt>
      <trkpt lat="41.9981140" lon="-8.8789390">
        <ele>16.3</ele>
        <time>2021-05-19T07:54:39Z</time>
      </trkpt>
      <trkpt lat="41.9981280" lon="-8.8789350">
        <ele>16.3</ele>
        <time>2021-05-19T07:54:40Z</time>
      </trkpt>
      <trkpt lat="41.9981410" lon="-8.8789290">
        <ele>16.2</ele>
        <time>2021-05-19T07:54:41Z</time>
      </trkpt>
      <trkpt lat="41.9981550" lon="-8.8789270">
        <ele>16.2</ele>
        <time>2021-05-19T07:54:42Z</time>
      </trkpt>
      <trkpt lat="41.9981670" lon="-8.8789150">
        <ele>16.1</ele>
        <time>2021-05-19T07:54:43Z</time>
      </trkpt>
      <trkpt lat="41.9981800" lon="-8.8789000">
        <ele>16.1</ele>
        <time>2021-05-19T07:54:44Z</time>
      </trkpt>
      <trkpt lat="41.9981920" lon="-8.8788910">
        <ele>16.0</ele>
        <time>2021-05-19T07:54:45Z</time>
      </trkpt>
      <trkpt lat="41.9982050" lon="-8.8788840">
        <ele>16.0</ele>
        <time>2021-05-19T07:54:46Z</time>
      </trkpt>
      <trkpt lat="41.9982160" lon="-8.8788740">
        <ele>16.0</ele>
        <time>2021-05-19T07:54:47Z</time>
      </trkpt>
      <trkpt lat="41.9982290" lon="-8.8788630">
        <ele>15.9</ele>
        <time>2021-05-19T07:54:48Z</time>
      </trkpt>
      <trkpt lat="41.9982400" lon="-8.8788480">
        <ele>15.9</ele>
        <time>2021-05-19T07:54:49Z</time>
      </trkpt>
      <trkpt lat="41.9982510" lon="-8.8788330">
        <ele>15.8</ele>
        <time>2021-05-19T07:54:50Z</time>
      </trkpt>
      <trkpt lat="41.9982600" lon="-8.8788140">
        <ele>15.8</ele>
        <time>2021-05-19T07:54:51Z</time>
      </trkpt>
      <trkpt lat="41.9982700" lon="-8.8787990">
        <ele>15.8</ele>
        <time>2021-05-19T07:54:52Z</time>
      </trkpt>
      <trkpt lat="41.9982790" lon="-8.8787820">
        <ele>15.8</ele>
        <time>2021-05-19T07:54:53Z</time>
      </trkpt>
      <trkpt lat="41.9982880" lon="-8.8787670">
        <ele>15.8</ele>
        <time>2021-05-19T07:54:54Z</time>
      </trkpt>
      <trkpt lat="41.9982970" lon="-8.8787510">
        <ele>15.7</ele>
        <time>2021-05-19T07:54:55Z</time>
      </trkpt>
      <trkpt lat="41.9983020" lon="-8.8787330">
        <ele>15.7</ele>
        <time>2021-05-19T07:54:56Z</time>
      </trkpt>
      <trkpt lat="41.9983150" lon="-8.8787260">
        <ele>15.7</ele>
        <time>2021-05-19T07:54:58Z</time>
      </trkpt>
      <trkpt lat="41.9983280" lon="-8.8787160">
        <ele>15.7</ele>
        <time>2021-05-19T07:54:59Z</time>
      </trkpt>
      <trkpt lat="41.9983330" lon="-8.8787020">
        <ele>15.7</ele>
        <time>2021-05-19T07:55:00Z</time>
      </trkpt>
      <trkpt lat="41.9983410" lon="-8.8786840">
        <ele>15.7</ele>
        <time>2021-05-19T07:55:01Z</time>
      </trkpt>
      <trkpt lat="41.9983570" lon="-8.8786630">
        <ele>15.7</ele>
        <time>2021-05-19T07:55:02Z</time>
      </trkpt>
      <trkpt lat="41.9983630" lon="-8.8786540">
        <ele>15.7</ele>
        <time>2021-05-19T07:55:03Z</time>
      </trkpt>
      <trkpt lat="41.9983690" lon="-8.8786440">
        <ele>15.7</ele>
        <time>2021-05-19T07:55:04Z</time>
      </trkpt>
      <trkpt lat="41.9983780" lon="-8.8786340">
        <ele>15.7</ele>
        <time>2021-05-19T07:55:05Z</time>
      </trkpt>
      <trkpt lat="41.9983880" lon="-8.8786320">
        <ele>15.6</ele>
        <time>2021-05-19T07:55:06Z</time>
      </trkpt>
      <trkpt lat="41.9984020" lon="-8.8786240">
        <ele>15.6</ele>
        <time>2021-05-19T07:55:07Z</time>
      </trkpt>
      <trkpt lat="41.9984140" lon="-8.8786140">
        <ele>15.6</ele>
        <time>2021-05-19T07:55:08Z</time>
      </trkpt>
      <trkpt lat="41.9984240" lon="-8.8786020">
        <ele>15.6</ele>
        <time>2021-05-19T07:55:09Z</time>
      </trkpt>
      <trkpt lat="41.9984380" lon="-8.8785980">
        <ele>15.6</ele>
        <time>2021-05-19T07:55:10Z</time>
      </trkpt>
      <trkpt lat="41.9984500" lon="-8.8785900">
        <ele>15.6</ele>
        <time>2021-05-19T07:55:11Z</time>
      </trkpt>
      <trkpt lat="41.9984650" lon="-8.8785850">
        <ele>15.6</ele>
        <time>2021-05-19T07:55:12Z</time>
      </trkpt>
      <trkpt lat="41.9984790" lon="-8.8785800">
        <ele>15.6</ele>
        <time>2021-05-19T07:55:13Z</time>
      </trkpt>
      <trkpt lat="41.9984910" lon="-8.8785760">
        <ele>15.6</ele>
        <time>2021-05-19T07:55:14Z</time>
      </trkpt>
      <trkpt lat="41.9985060" lon="-8.8785720">
        <ele>15.6</ele>
        <time>2021-05-19T07:55:15Z</time>
      </trkpt>
      <trkpt lat="41.9985200" lon="-8.8785670">
        <ele>15.6</ele>
        <time>2021-05-19T07:55:16Z</time>
      </trkpt>
      <trkpt lat="41.9985350" lon="-8.8785700">
        <ele>15.6</ele>
        <time>2021-05-19T07:55:17Z</time>
      </trkpt>
      <trkpt lat="41.9985490" lon="-8.8785680">
        <ele>15.6</ele>
        <time>2021-05-19T07:55:18Z</time>
      </trkpt>
      <trkpt lat="41.9985630" lon="-8.8785640">
        <ele>15.6</ele>
        <time>2021-05-19T07:55:19Z</time>
      </trkpt>
      <trkpt lat="41.9985760" lon="-8.8785600">
        <ele>15.6</ele>
        <time>2021-05-19T07:55:20Z</time>
      </trkpt>
      <trkpt lat="41.9985890" lon="-8.8785480">
        <ele>15.6</ele>
        <time>2021-05-19T07:55:21Z</time>
      </trkpt>
      <trkpt lat="41.9986020" lon="-8.8785470">
        <ele>15.6</ele>
        <time>2021-05-19T07:55:22Z</time>
      </trkpt>
      <trkpt lat="41.9986160" lon="-8.8785460">
        <ele>15.6</ele>
        <time>2021-05-19T07:55:23Z</time>
      </trkpt>
      <trkpt lat="41.9986300" lon="-8.8785470">
        <ele>15.6</ele>
        <time>2021-05-19T07:55:24Z</time>
      </trkpt>
      <trkpt lat="41.9986430" lon="-8.8785400">
        <ele>15.6</ele>
        <time>2021-05-19T07:55:25Z</time>
      </trkpt>
      <trkpt lat="41.9986560" lon="-8.8785350">
        <ele>15.6</ele>
        <time>2021-05-19T07:55:26Z</time>
      </trkpt>
      <trkpt lat="41.9986680" lon="-8.8785250">
        <ele>15.6</ele>
        <time>2021-05-19T07:55:27Z</time>
      </trkpt>
      <trkpt lat="41.9986830" lon="-8.8785230">
        <ele>15.6</ele>
        <time>2021-05-19T07:55:28Z</time>
      </trkpt>
      <trkpt lat="41.9986980" lon="-8.8785210">
        <ele>15.6</ele>
        <time>2021-05-19T07:55:29Z</time>
      </trkpt>
      <trkpt lat="41.9987120" lon="-8.8785160">
        <ele>15.6</ele>
        <time>2021-05-19T07:55:30Z</time>
      </trkpt>
      <trkpt lat="41.9987260" lon="-8.8785120">
        <ele>15.6</ele>
        <time>2021-05-19T07:55:31Z</time>
      </trkpt>
      <trkpt lat="41.9987480" lon="-8.8785050">
        <ele>15.6</ele>
        <time>2021-05-19T07:55:32Z</time>
      </trkpt>
      <trkpt lat="41.9987570" lon="-8.8785020">
        <ele>15.6</ele>
        <time>2021-05-19T07:55:33Z</time>
      </trkpt>
      <trkpt lat="41.9987660" lon="-8.8784980">
        <ele>15.6</ele>
        <time>2021-05-19T07:55:34Z</time>
      </trkpt>
      <trkpt lat="41.9987790" lon="-8.8784920">
        <ele>15.6</ele>
        <time>2021-05-19T07:55:35Z</time>
      </trkpt>
      <trkpt lat="41.9987910" lon="-8.8784820">
        <ele>15.6</ele>
        <time>2021-05-19T07:55:36Z</time>
      </trkpt>
      <trkpt lat="41.9988040" lon="-8.8784750">
        <ele>15.6</ele>
        <time>2021-05-19T07:55:37Z</time>
      </trkpt>
      <trkpt lat="41.9988170" lon="-8.8784680">
        <ele>15.6</ele>
        <time>2021-05-19T07:55:38Z</time>
      </trkpt>
      <trkpt lat="41.9988300" lon="-8.8784620">
        <ele>15.6</ele>
        <time>2021-05-19T07:55:39Z</time>
      </trkpt>
      <trkpt lat="41.9988420" lon="-8.8784510">
        <ele>15.6</ele>
        <time>2021-05-19T07:55:40Z</time>
      </trkpt>
      <trkpt lat="41.9988570" lon="-8.8784500">
        <ele>15.6</ele>
        <time>2021-05-19T07:55:41Z</time>
      </trkpt>
      <trkpt lat="41.9988690" lon="-8.8784380">
        <ele>15.6</ele>
        <time>2021-05-19T07:55:42Z</time>
      </trkpt>
      <trkpt lat="41.9988800" lon="-8.8784300">
        <ele>15.7</ele>
        <time>2021-05-19T07:55:43Z</time>
      </trkpt>
      <trkpt lat="41.9988930" lon="-8.8784210">
        <ele>15.7</ele>
        <time>2021-05-19T07:55:44Z</time>
      </trkpt>
      <trkpt lat="41.9989060" lon="-8.8784140">
        <ele>15.7</ele>
        <time>2021-05-19T07:55:45Z</time>
      </trkpt>
      <trkpt lat="41.9989170" lon="-8.8784030">
        <ele>15.7</ele>
        <time>2021-05-19T07:55:46Z</time>
      </trkpt>
      <trkpt lat="41.9989320" lon="-8.8783950">
        <ele>15.7</ele>
        <time>2021-05-19T07:55:47Z</time>
      </trkpt>
      <trkpt lat="41.9989450" lon="-8.8783900">
        <ele>15.7</ele>
        <time>2021-05-19T07:55:48Z</time>
      </trkpt>
      <trkpt lat="41.9989580" lon="-8.8783830">
        <ele>15.7</ele>
        <time>2021-05-19T07:55:49Z</time>
      </trkpt>
      <trkpt lat="41.9989710" lon="-8.8783810">
        <ele>15.7</ele>
        <time>2021-05-19T07:55:50Z</time>
      </trkpt>
      <trkpt lat="41.9989920" lon="-8.8783680">
        <ele>15.7</ele>
        <time>2021-05-19T07:55:51Z</time>
      </trkpt>
      <trkpt lat="41.9990010" lon="-8.8783640">
        <ele>15.7</ele>
        <time>2021-05-19T07:55:52Z</time>
      </trkpt>
      <trkpt lat="41.9990100" lon="-8.8783590">
        <ele>15.7</ele>
        <time>2021-05-19T07:55:53Z</time>
      </trkpt>
      <trkpt lat="41.9990290" lon="-8.8783490">
        <ele>15.7</ele>
        <time>2021-05-19T07:55:54Z</time>
      </trkpt>
      <trkpt lat="41.9990360" lon="-8.8783410">
        <ele>15.7</ele>
        <time>2021-05-19T07:55:55Z</time>
      </trkpt>
      <trkpt lat="41.9990430" lon="-8.8783340">
        <ele>15.7</ele>
        <time>2021-05-19T07:55:56Z</time>
      </trkpt>
      <trkpt lat="41.9990570" lon="-8.8783240">
        <ele>15.7</ele>
        <time>2021-05-19T07:55:57Z</time>
      </trkpt>
      <trkpt lat="41.9990600" lon="-8.8783140">
        <ele>15.7</ele>
        <time>2021-05-19T07:55:58Z</time>
      </trkpt>
      <trkpt lat="41.9990640" lon="-8.8783050">
        <ele>15.7</ele>
        <time>2021-05-19T07:55:59Z</time>
      </trkpt>
      <trkpt lat="41.9990670" lon="-8.8782950">
        <ele>15.7</ele>
        <time>2021-05-19T07:56:00Z</time>
      </trkpt>
      <trkpt lat="41.9990710" lon="-8.8782870">
        <ele>15.7</ele>
        <time>2021-05-19T07:56:01Z</time>
      </trkpt>
      <trkpt lat="41.9990820" lon="-8.8782900">
        <ele>15.7</ele>
        <time>2021-05-19T07:56:02Z</time>
      </trkpt>
      <trkpt lat="41.9990910" lon="-8.8782780">
        <ele>15.7</ele>
        <time>2021-05-19T07:56:03Z</time>
      </trkpt>
      <trkpt lat="41.9990970" lon="-8.8782730">
        <ele>15.7</ele>
        <time>2021-05-19T07:56:04Z</time>
      </trkpt>
      <trkpt lat="41.9991040" lon="-8.8782610">
        <ele>15.7</ele>
        <time>2021-05-19T07:56:05Z</time>
      </trkpt>
      <trkpt lat="41.9991140" lon="-8.8782490">
        <ele>15.7</ele>
        <time>2021-05-19T07:56:06Z</time>
      </trkpt>
      <trkpt lat="41.9991210" lon="-8.8782410">
        <ele>15.7</ele>
        <time>2021-05-19T07:56:07Z</time>
      </trkpt>
      <trkpt lat="41.9991290" lon="-8.8782250">
        <ele>15.7</ele>
        <time>2021-05-19T07:56:08Z</time>
      </trkpt>
      <trkpt lat="41.9991380" lon="-8.8782200">
        <ele>15.7</ele>
        <time>2021-05-19T07:56:09Z</time>
      </trkpt>
      <trkpt lat="41.9991490" lon="-8.8782210">
        <ele>15.7</ele>
        <time>2021-05-19T07:56:10Z</time>
      </trkpt>
      <trkpt lat="41.9991560" lon="-8.8782050">
        <ele>15.7</ele>
        <time>2021-05-19T07:56:11Z</time>
      </trkpt>
      <trkpt lat="41.9991740" lon="-8.8781980">
        <ele>15.7</ele>
        <time>2021-05-19T07:56:12Z</time>
      </trkpt>
      <trkpt lat="41.9991810" lon="-8.8781930">
        <ele>15.7</ele>
        <time>2021-05-19T07:56:13Z</time>
      </trkpt>
      <trkpt lat="41.9991930" lon="-8.8781810">
        <ele>15.7</ele>
        <time>2021-05-19T07:56:14Z</time>
      </trkpt>
      <trkpt lat="41.9992010" lon="-8.8781750">
        <ele>15.7</ele>
        <time>2021-05-19T07:56:15Z</time>
      </trkpt>
      <trkpt lat="41.9992240" lon="-8.8781570">
        <ele>15.7</ele>
        <time>2021-05-19T07:56:16Z</time>
      </trkpt>
      <trkpt lat="41.9992310" lon="-8.8781550">
        <ele>15.7</ele>
        <time>2021-05-19T07:56:17Z</time>
      </trkpt>
      <trkpt lat="41.9992370" lon="-8.8781530">
        <ele>15.6</ele>
        <time>2021-05-19T07:56:18Z</time>
      </trkpt>
      <trkpt lat="41.9992530" lon="-8.8781340">
        <ele>15.6</ele>
        <time>2021-05-19T07:56:19Z</time>
      </trkpt>
      <trkpt lat="41.9992590" lon="-8.8781280">
        <ele>15.6</ele>
        <time>2021-05-19T07:56:20Z</time>
      </trkpt>
      <trkpt lat="41.9992660" lon="-8.8781220">
        <ele>15.6</ele>
        <time>2021-05-19T07:56:21Z</time>
      </trkpt>
      <trkpt lat="41.9992790" lon="-8.8781130">
        <ele>15.6</ele>
        <time>2021-05-19T07:56:22Z</time>
      </trkpt>
      <trkpt lat="41.9992850" lon="-8.8781070">
        <ele>15.5</ele>
        <time>2021-05-19T07:56:23Z</time>
      </trkpt>
      <trkpt lat="41.9992910" lon="-8.8781020">
        <ele>15.5</ele>
        <time>2021-05-19T07:56:24Z</time>
      </trkpt>
      <trkpt lat="41.9992970" lon="-8.8780960">
        <ele>15.5</ele>
        <time>2021-05-19T07:56:25Z</time>
      </trkpt>
      <trkpt lat="41.9993220" lon="-8.8780840">
        <ele>15.5</ele>
        <time>2021-05-19T07:56:26Z</time>
      </trkpt>
      <trkpt lat="41.9993320" lon="-8.8780800">
        <ele>15.4</ele>
        <time>2021-05-19T07:56:27Z</time>
      </trkpt>
      <trkpt lat="41.9993470" lon="-8.8780670">
        <ele>15.4</ele>
        <time>2021-05-19T07:56:28Z</time>
      </trkpt>
      <trkpt lat="41.9993620" lon="-8.8780590">
        <ele>15.3</ele>
        <time>2021-05-19T07:56:29Z</time>
      </trkpt>
      <trkpt lat="41.9993760" lon="-8.8780550">
        <ele>15.3</ele>
        <time>2021-05-19T07:56:30Z</time>
      </trkpt>
      <trkpt lat="41.9993940" lon="-8.8780500">
        <ele>15.3</ele>
        <time>2021-05-19T07:56:31Z</time>
      </trkpt>
      <trkpt lat="41.9994090" lon="-8.8780450">
        <ele>15.2</ele>
        <time>2021-05-19T07:56:32Z</time>
      </trkpt>
      <trkpt lat="41.9994220" lon="-8.8780400">
        <ele>15.2</ele>
        <time>2021-05-19T07:56:33Z</time>
      </trkpt>
      <trkpt lat="41.9994440" lon="-8.8780320">
        <ele>15.1</ele>
        <time>2021-05-19T07:56:34Z</time>
      </trkpt>
      <trkpt lat="41.9994530" lon="-8.8780290">
        <ele>15.1</ele>
        <time>2021-05-19T07:56:35Z</time>
      </trkpt>
      <trkpt lat="41.9994620" lon="-8.8780270">
        <ele>15.1</ele>
        <time>2021-05-19T07:56:36Z</time>
      </trkpt>
      <trkpt lat="41.9994780" lon="-8.8780230">
        <ele>15.0</ele>
        <time>2021-05-19T07:56:37Z</time>
      </trkpt>
      <trkpt lat="41.9994950" lon="-8.8780270">
        <ele>15.0</ele>
        <time>2021-05-19T07:56:38Z</time>
      </trkpt>
      <trkpt lat="41.9995090" lon="-8.8780210">
        <ele>15.0</ele>
        <time>2021-05-19T07:56:39Z</time>
      </trkpt>
      <trkpt lat="41.9995240" lon="-8.8780220">
        <ele>14.9</ele>
        <time>2021-05-19T07:56:40Z</time>
      </trkpt>
      <trkpt lat="41.9995380" lon="-8.8780170">
        <ele>14.9</ele>
        <time>2021-05-19T07:56:41Z</time>
      </trkpt>
      <trkpt lat="41.9995530" lon="-8.8780260">
        <ele>14.8</ele>
        <time>2021-05-19T07:56:42Z</time>
      </trkpt>
      <trkpt lat="41.9995680" lon="-8.8780200">
        <ele>14.8</ele>
        <time>2021-05-19T07:56:43Z</time>
      </trkpt>
      <trkpt lat="41.9995810" lon="-8.8780260">
        <ele>14.8</ele>
        <time>2021-05-19T07:56:44Z</time>
      </trkpt>
      <trkpt lat="41.9995970" lon="-8.8780150">
        <ele>14.7</ele>
        <time>2021-05-19T07:56:45Z</time>
      </trkpt>
      <trkpt lat="41.9996100" lon="-8.8780150">
        <ele>14.7</ele>
        <time>2021-05-19T07:56:46Z</time>
      </trkpt>
      <trkpt lat="41.9996250" lon="-8.8780100">
        <ele>14.7</ele>
        <time>2021-05-19T07:56:47Z</time>
      </trkpt>
      <trkpt lat="41.9996410" lon="-8.8780140">
        <ele>14.6</ele>
        <time>2021-05-19T07:56:48Z</time>
      </trkpt>
      <trkpt lat="41.9996580" lon="-8.8780090">
        <ele>14.6</ele>
        <time>2021-05-19T07:56:49Z</time>
      </trkpt>
      <trkpt lat="41.9996730" lon="-8.8780110">
        <ele>14.5</ele>
        <time>2021-05-19T07:56:50Z</time>
      </trkpt>
      <trkpt lat="41.9996870" lon="-8.8780100">
        <ele>14.5</ele>
        <time>2021-05-19T07:56:51Z</time>
      </trkpt>
      <trkpt lat="41.9997030" lon="-8.8780100">
        <ele>14.5</ele>
        <time>2021-05-19T07:56:52Z</time>
      </trkpt>
      <trkpt lat="41.9997200" lon="-8.8780050">
        <ele>14.4</ele>
        <time>2021-05-19T07:56:53Z</time>
      </trkpt>
      <trkpt lat="41.9997350" lon="-8.8779960">
        <ele>14.4</ele>
        <time>2021-05-19T07:56:54Z</time>
      </trkpt>
      <trkpt lat="41.9997490" lon="-8.8779920">
        <ele>14.4</ele>
        <time>2021-05-19T07:56:55Z</time>
      </trkpt>
      <trkpt lat="41.9997650" lon="-8.8779890">
        <ele>14.3</ele>
        <time>2021-05-19T07:56:56Z</time>
      </trkpt>
      <trkpt lat="41.9997750" lon="-8.8779810">
        <ele>14.3</ele>
        <time>2021-05-19T07:56:57Z</time>
      </trkpt>
      <trkpt lat="41.9997800" lon="-8.8779760">
        <ele>14.3</ele>
        <time>2021-05-19T07:56:58Z</time>
      </trkpt>
      <trkpt lat="41.9997880" lon="-8.8779680">
        <ele>14.2</ele>
        <time>2021-05-19T07:56:59Z</time>
      </trkpt>
      <trkpt lat="41.9998010" lon="-8.8779650">
        <ele>14.2</ele>
        <time>2021-05-19T07:57:00Z</time>
      </trkpt>
      <trkpt lat="41.9998150" lon="-8.8779560">
        <ele>14.2</ele>
        <time>2021-05-19T07:57:01Z</time>
      </trkpt>
      <trkpt lat="41.9998250" lon="-8.8779430">
        <ele>14.2</ele>
        <time>2021-05-19T07:57:02Z</time>
      </trkpt>
      <trkpt lat="41.9998360" lon="-8.8779340">
        <ele>14.1</ele>
        <time>2021-05-19T07:57:03Z</time>
      </trkpt>
      <trkpt lat="41.9998420" lon="-8.8779250">
        <ele>14.1</ele>
        <time>2021-05-19T07:57:04Z</time>
      </trkpt>
      <trkpt lat="41.9998480" lon="-8.8779150">
        <ele>14.1</ele>
        <time>2021-05-19T07:57:05Z</time>
      </trkpt>
      <trkpt lat="41.9998610" lon="-8.8779020">
        <ele>14.1</ele>
        <time>2021-05-19T07:57:06Z</time>
      </trkpt>
      <trkpt lat="41.9998680" lon="-8.8778900">
        <ele>14.0</ele>
        <time>2021-05-19T07:57:07Z</time>
      </trkpt>
      <trkpt lat="41.9998690" lon="-8.8778830">
        <ele>14.0</ele>
        <time>2021-05-19T07:57:08Z</time>
      </trkpt>
      <trkpt lat="41.9998830" lon="-8.8778710">
        <ele>14.0</ele>
        <time>2021-05-19T07:57:09Z</time>
      </trkpt>
      <trkpt lat="41.9998970" lon="-8.8778500">
        <ele>14.0</ele>
        <time>2021-05-19T07:57:10Z</time>
      </trkpt>
      <trkpt lat="41.9999040" lon="-8.8778420">
        <ele>13.9</ele>
        <time>2021-05-19T07:57:11Z</time>
      </trkpt>
      <trkpt lat="41.9999100" lon="-8.8778340">
        <ele>13.9</ele>
        <time>2021-05-19T07:57:12Z</time>
      </trkpt>
      <trkpt lat="41.9999180" lon="-8.8778150">
        <ele>13.9</ele>
        <time>2021-05-19T07:57:13Z</time>
      </trkpt>
      <trkpt lat="41.9999230" lon="-8.8778060">
        <ele>13.9</ele>
        <time>2021-05-19T07:57:14Z</time>
      </trkpt>
      <trkpt lat="41.9999260" lon="-8.8777970">
        <ele>13.9</ele>
        <time>2021-05-19T07:57:15Z</time>
      </trkpt>
      <trkpt lat="41.9999320" lon="-8.8777920">
        <ele>13.8</ele>
        <time>2021-05-19T07:57:16Z</time>
      </trkpt>
      <trkpt lat="41.9999400" lon="-8.8777730">
        <ele>13.8</ele>
        <time>2021-05-19T07:57:17Z</time>
      </trkpt>
      <trkpt lat="41.9999440" lon="-8.8777570">
        <ele>13.8</ele>
        <time>2021-05-19T07:57:18Z</time>
      </trkpt>
      <trkpt lat="41.9999450" lon="-8.8777440">
        <ele>13.8</ele>
        <time>2021-05-19T07:57:19Z</time>
      </trkpt>
      <trkpt lat="41.9999500" lon="-8.8777300">
        <ele>13.8</ele>
        <time>2021-05-19T07:57:20Z</time>
      </trkpt>
      <trkpt lat="41.9999580" lon="-8.8777180">
        <ele>13.8</ele>
        <time>2021-05-19T07:57:21Z</time>
      </trkpt>
      <trkpt lat="41.9999600" lon="-8.8777170">
        <ele>13.8</ele>
        <time>2021-05-19T07:57:22Z</time>
      </trkpt>
      <trkpt lat="41.9999610" lon="-8.8777150">
        <ele>13.8</ele>
        <time>2021-05-19T07:57:23Z</time>
      </trkpt>
      <trkpt lat="41.9999660" lon="-8.8777130">
        <ele>13.8</ele>
        <time>2021-05-19T07:57:24Z</time>
      </trkpt>
      <trkpt lat="41.9999610" lon="-8.8777110">
        <ele>13.8</ele>
        <time>2021-05-19T07:57:25Z</time>
      </trkpt>
      <trkpt lat="41.9999540" lon="-8.8776950">
        <ele>13.8</ele>
        <time>2021-05-19T07:57:26Z</time>
      </trkpt>
      <trkpt lat="41.9999600" lon="-8.8776700">
        <ele>13.8</ele>
        <time>2021-05-19T07:57:27Z</time>
      </trkpt>
      <trkpt lat="41.9999590" lon="-8.8776420">
        <ele>13.8</ele>
        <time>2021-05-19T07:57:28Z</time>
      </trkpt>
      <trkpt lat="41.9999570" lon="-8.8776300">
        <ele>13.8</ele>
        <time>2021-05-19T07:57:29Z</time>
      </trkpt>
      <trkpt lat="41.9999620" lon="-8.8775960">
        <ele>13.8</ele>
        <time>2021-05-19T07:57:30Z</time>
      </trkpt>
      <trkpt lat="41.9999640" lon="-8.8775860">
        <ele>13.8</ele>
        <time>2021-05-19T07:57:31Z</time>
      </trkpt>
      <trkpt lat="41.9999660" lon="-8.8775750">
        <ele>13.8</ele>
        <time>2021-05-19T07:57:32Z</time>
      </trkpt>
      <trkpt lat="41.9999700" lon="-8.8775480">
        <ele>13.8</ele>
        <time>2021-05-19T07:57:33Z</time>
      </trkpt>
      <trkpt lat="41.9999750" lon="-8.8775370">
        <ele>13.8</ele>
        <time>2021-05-19T07:57:34Z</time>
      </trkpt>
      <trkpt lat="41.9999790" lon="-8.8775270">
        <ele>13.8</ele>
        <time>2021-05-19T07:57:35Z</time>
      </trkpt>
      <trkpt lat="41.9999840" lon="-8.8775190">
        <ele>13.8</ele>
        <time>2021-05-19T07:57:36Z</time>
      </trkpt>
      <trkpt lat="41.9999850" lon="-8.8775060">
        <ele>13.8</ele>
        <time>2021-05-19T07:57:37Z</time>
      </trkpt>
      <trkpt lat="41.9999860" lon="-8.8774890">
        <ele>13.8</ele>
        <time>2021-05-19T07:57:38Z</time>
      </trkpt>
      <trkpt lat="41.9999950" lon="-8.8774620">
        <ele>13.8</ele>
        <time>2021-05-19T07:57:39Z</time>
      </trkpt>
      <trkpt lat="42.0000010" lon="-8.8774520">
        <ele>13.8</ele>
        <time>2021-05-19T07:57:40Z</time>
      </trkpt>
      <trkpt lat="42.0000060" lon="-8.8774420">
        <ele>13.9</ele>
        <time>2021-05-19T07:57:41Z</time>
      </trkpt>
      <trkpt lat="42.0000170" lon="-8.8774260">
        <ele>13.9</ele>
        <time>2021-05-19T07:57:42Z</time>
      </trkpt>
      <trkpt lat="42.0000250" lon="-8.8774060">
        <ele>13.9</ele>
        <time>2021-05-19T07:57:43Z</time>
      </trkpt>
      <trkpt lat="42.0000350" lon="-8.8773930">
        <ele>13.9</ele>
        <time>2021-05-19T07:57:44Z</time>
      </trkpt>
      <trkpt lat="42.0000470" lon="-8.8773790">
        <ele>13.9</ele>
        <time>2021-05-19T07:57:45Z</time>
      </trkpt>
      <trkpt lat="42.0000620" lon="-8.8773710">
        <ele>13.9</ele>
        <time>2021-05-19T07:57:46Z</time>
      </trkpt>
      <trkpt lat="42.0000690" lon="-8.8773610">
        <ele>13.9</ele>
        <time>2021-05-19T07:57:47Z</time>
      </trkpt>
      <trkpt lat="42.0000720" lon="-8.8773490">
        <ele>14.0</ele>
        <time>2021-05-19T07:57:48Z</time>
      </trkpt>
      <trkpt lat="42.0000710" lon="-8.8773440">
        <ele>14.0</ele>
        <time>2021-05-19T07:57:49Z</time>
      </trkpt>
      <trkpt lat="42.0000790" lon="-8.8773370">
        <ele>14.0</ele>
        <time>2021-05-19T07:57:50Z</time>
      </trkpt>
      <trkpt lat="42.0000880" lon="-8.8773340">
        <ele>14.0</ele>
        <time>2021-05-19T07:57:51Z</time>
      </trkpt>
      <trkpt lat="42.0001010" lon="-8.8773250">
        <ele>14.0</ele>
        <time>2021-05-19T07:57:52Z</time>
      </trkpt>
      <trkpt lat="42.0001080" lon="-8.8773190">
        <ele>14.0</ele>
        <time>2021-05-19T07:57:53Z</time>
      </trkpt>
      <trkpt lat="42.0001050" lon="-8.8773210">
        <ele>14.0</ele>
        <time>2021-05-19T07:57:54Z</time>
      </trkpt>
      <trkpt lat="42.0001160" lon="-8.8773170">
        <ele>14.0</ele>
        <time>2021-05-19T07:57:55Z</time>
      </trkpt>
      <trkpt lat="42.0001210" lon="-8.8773160">
        <ele>14.0</ele>
        <time>2021-05-19T07:57:56Z</time>
      </trkpt>
      <trkpt lat="42.0001310" lon="-8.8773180">
        <ele>14.0</ele>
        <time>2021-05-19T07:57:57Z</time>
      </trkpt>
      <trkpt lat="42.0001570" lon="-8.8773260">
        <ele>14.0</ele>
        <time>2021-05-19T07:57:58Z</time>
      </trkpt>
      <trkpt lat="42.0001700" lon="-8.8773320">
        <ele>14.1</ele>
        <time>2021-05-19T07:57:59Z</time>
      </trkpt>
      <trkpt lat="42.0001800" lon="-8.8773300">
        <ele>14.1</ele>
        <time>2021-05-19T07:58:00Z</time>
      </trkpt>
      <trkpt lat="42.0002010" lon="-8.8773480">
        <ele>14.1</ele>
        <time>2021-05-19T07:58:01Z</time>
      </trkpt>
      <trkpt lat="42.0002180" lon="-8.8773430">
        <ele>14.1</ele>
        <time>2021-05-19T07:58:02Z</time>
      </trkpt>
      <trkpt lat="42.0002310" lon="-8.8773420">
        <ele>14.1</ele>
        <time>2021-05-19T07:58:03Z</time>
      </trkpt>
      <trkpt lat="42.0002410" lon="-8.8773420">
        <ele>14.1</ele>
        <time>2021-05-19T07:58:04Z</time>
      </trkpt>
      <trkpt lat="42.0002520" lon="-8.8773350">
        <ele>14.2</ele>
        <time>2021-05-19T07:58:05Z</time>
      </trkpt>
      <trkpt lat="42.0002620" lon="-8.8773280">
        <ele>14.2</ele>
        <time>2021-05-19T07:58:06Z</time>
      </trkpt>
      <trkpt lat="42.0002760" lon="-8.8773280">
        <ele>14.2</ele>
        <time>2021-05-19T07:58:07Z</time>
      </trkpt>
      <trkpt lat="42.0002960" lon="-8.8773410">
        <ele>14.2</ele>
        <time>2021-05-19T07:58:08Z</time>
      </trkpt>
      <trkpt lat="42.0003110" lon="-8.8773450">
        <ele>14.2</ele>
        <time>2021-05-19T07:58:09Z</time>
      </trkpt>
      <trkpt lat="42.0003300" lon="-8.8773450">
        <ele>14.3</ele>
        <time>2021-05-19T07:58:10Z</time>
      </trkpt>
      <trkpt lat="42.0003440" lon="-8.8773410">
        <ele>14.3</ele>
        <time>2021-05-19T07:58:11Z</time>
      </trkpt>
      <trkpt lat="42.0003610" lon="-8.8773460">
        <ele>14.3</ele>
        <time>2021-05-19T07:58:12Z</time>
      </trkpt>
      <trkpt lat="42.0003930" lon="-8.8773390">
        <ele>14.3</ele>
        <time>2021-05-19T07:58:13Z</time>
      </trkpt>
      <trkpt lat="42.0004020" lon="-8.8773350">
        <ele>14.4</ele>
        <time>2021-05-19T07:58:14Z</time>
      </trkpt>
      <trkpt lat="42.0004120" lon="-8.8773360">
        <ele>14.4</ele>
        <time>2021-05-19T07:58:15Z</time>
      </trkpt>
      <trkpt lat="42.0004320" lon="-8.8773400">
        <ele>14.4</ele>
        <time>2021-05-19T07:58:16Z</time>
      </trkpt>
      <trkpt lat="42.0004480" lon="-8.8773420">
        <ele>14.4</ele>
        <time>2021-05-19T07:58:17Z</time>
      </trkpt>
      <trkpt lat="42.0004540" lon="-8.8773410">
        <ele>14.5</ele>
        <time>2021-05-19T07:58:18Z</time>
      </trkpt>
      <trkpt lat="42.0004630" lon="-8.8773440">
        <ele>14.5</ele>
        <time>2021-05-19T07:58:19Z</time>
      </trkpt>
      <trkpt lat="42.0004770" lon="-8.8773460">
        <ele>14.5</ele>
        <time>2021-05-19T07:58:20Z</time>
      </trkpt>
      <trkpt lat="42.0004910" lon="-8.8773440">
        <ele>14.5</ele>
        <time>2021-05-19T07:58:21Z</time>
      </trkpt>
      <trkpt lat="42.0005070" lon="-8.8773340">
        <ele>14.6</ele>
        <time>2021-05-19T07:58:22Z</time>
      </trkpt>
      <trkpt lat="42.0005220" lon="-8.8773290">
        <ele>14.6</ele>
        <time>2021-05-19T07:58:23Z</time>
      </trkpt>
      <trkpt lat="42.0005380" lon="-8.8773230">
        <ele>14.6</ele>
        <time>2021-05-19T07:58:24Z</time>
      </trkpt>
      <trkpt lat="42.0005560" lon="-8.8773210">
        <ele>14.7</ele>
        <time>2021-05-19T07:58:25Z</time>
      </trkpt>
      <trkpt lat="42.0005640" lon="-8.8773180">
        <ele>14.7</ele>
        <time>2021-05-19T07:58:26Z</time>
      </trkpt>
      <trkpt lat="42.0005710" lon="-8.8773160">
        <ele>14.7</ele>
        <time>2021-05-19T07:58:27Z</time>
      </trkpt>
      <trkpt lat="42.0005700" lon="-8.8773100">
        <ele>14.7</ele>
        <time>2021-05-19T07:58:28Z</time>
      </trkpt>
      <trkpt lat="42.0005700" lon="-8.8773010">
        <ele>14.7</ele>
        <time>2021-05-19T07:58:29Z</time>
      </trkpt>
      <trkpt lat="42.0005720" lon="-8.8772960">
        <ele>14.7</ele>
        <time>2021-05-19T07:58:30Z</time>
      </trkpt>
      <trkpt lat="42.0005730" lon="-8.8772880">
        <ele>14.7</ele>
        <time>2021-05-19T07:58:31Z</time>
      </trkpt>
      <trkpt lat="42.0005910" lon="-8.8772830">
        <ele>14.8</ele>
        <time>2021-05-19T07:58:32Z</time>
      </trkpt>
      <trkpt lat="42.0006040" lon="-8.8772810">
        <ele>14.8</ele>
        <time>2021-05-19T07:58:33Z</time>
      </trkpt>
      <trkpt lat="42.0006150" lon="-8.8772780">
        <ele>14.8</ele>
        <time>2021-05-19T07:58:34Z</time>
      </trkpt>
      <trkpt lat="42.0006240" lon="-8.8772690">
        <ele>14.8</ele>
        <time>2021-05-19T07:58:35Z</time>
      </trkpt>
      <trkpt lat="42.0006300" lon="-8.8772680">
        <ele>14.9</ele>
        <time>2021-05-19T07:58:36Z</time>
      </trkpt>
      <trkpt lat="42.0006370" lon="-8.8772580">
        <ele>14.9</ele>
        <time>2021-05-19T07:58:37Z</time>
      </trkpt>
      <trkpt lat="42.0006490" lon="-8.8772500">
        <ele>14.9</ele>
        <time>2021-05-19T07:58:38Z</time>
      </trkpt>
      <trkpt lat="42.0006540" lon="-8.8772430">
        <ele>14.9</ele>
        <time>2021-05-19T07:58:39Z</time>
      </trkpt>
      <trkpt lat="42.0006660" lon="-8.8772330">
        <ele>14.9</ele>
        <time>2021-05-19T07:58:40Z</time>
      </trkpt>
      <trkpt lat="42.0006800" lon="-8.8772270">
        <ele>14.9</ele>
        <time>2021-05-19T07:58:41Z</time>
      </trkpt>
      <trkpt lat="42.0006970" lon="-8.8772200">
        <ele>15.0</ele>
        <time>2021-05-19T07:58:42Z</time>
      </trkpt>
      <trkpt lat="42.0007050" lon="-8.8772210">
        <ele>15.0</ele>
        <time>2021-05-19T07:58:43Z</time>
      </trkpt>
      <trkpt lat="42.0007120" lon="-8.8772210">
        <ele>15.0</ele>
        <time>2021-05-19T07:58:44Z</time>
      </trkpt>
      <trkpt lat="42.0007200" lon="-8.8772220">
        <ele>15.0</ele>
        <time>2021-05-19T07:58:45Z</time>
      </trkpt>
      <trkpt lat="42.0007280" lon="-8.8772220">
        <ele>15.0</ele>
        <time>2021-05-19T07:58:46Z</time>
      </trkpt>
      <trkpt lat="42.0007440" lon="-8.8772240">
        <ele>15.0</ele>
        <time>2021-05-19T07:58:47Z</time>
      </trkpt>
      <trkpt lat="42.0007620" lon="-8.8772290">
        <ele>15.0</ele>
        <time>2021-05-19T07:58:48Z</time>
      </trkpt>
      <trkpt lat="42.0007730" lon="-8.8772400">
        <ele>15.0</ele>
        <time>2021-05-19T07:58:49Z</time>
      </trkpt>
      <trkpt lat="42.0007840" lon="-8.8772440">
        <ele>15.0</ele>
        <time>2021-05-19T07:58:50Z</time>
      </trkpt>
      <trkpt lat="42.0007870" lon="-8.8772420">
        <ele>15.0</ele>
        <time>2021-05-19T07:58:51Z</time>
      </trkpt>
      <trkpt lat="42.0007970" lon="-8.8772430">
        <ele>15.1</ele>
        <time>2021-05-19T07:58:52Z</time>
      </trkpt>
      <trkpt lat="42.0007950" lon="-8.8772380">
        <ele>15.1</ele>
        <time>2021-05-19T07:58:53Z</time>
      </trkpt>
      <trkpt lat="42.0007990" lon="-8.8772290">
        <ele>15.1</ele>
        <time>2021-05-19T07:58:54Z</time>
      </trkpt>
      <trkpt lat="42.0008100" lon="-8.8772280">
        <ele>15.1</ele>
        <time>2021-05-19T07:58:55Z</time>
      </trkpt>
      <trkpt lat="42.0008100" lon="-8.8772130">
        <ele>15.1</ele>
        <time>2021-05-19T07:58:56Z</time>
      </trkpt>
      <trkpt lat="42.0008190" lon="-8.8772230">
        <ele>15.1</ele>
        <time>2021-05-19T07:58:57Z</time>
      </trkpt>
      <trkpt lat="42.0008230" lon="-8.8772190">
        <ele>15.1</ele>
        <time>2021-05-19T07:58:58Z</time>
      </trkpt>
      <trkpt lat="42.0008360" lon="-8.8772040">
        <ele>15.1</ele>
        <time>2021-05-19T07:58:59Z</time>
      </trkpt>
      <trkpt lat="42.0008540" lon="-8.8772090">
        <ele>15.1</ele>
        <time>2021-05-19T07:59:00Z</time>
      </trkpt>
      <trkpt lat="42.0008690" lon="-8.8772110">
        <ele>15.1</ele>
        <time>2021-05-19T07:59:01Z</time>
      </trkpt>
      <trkpt lat="42.0008770" lon="-8.8772150">
        <ele>15.1</ele>
        <time>2021-05-19T07:59:02Z</time>
      </trkpt>
      <trkpt lat="42.0008840" lon="-8.8772180">
        <ele>15.1</ele>
        <time>2021-05-19T07:59:03Z</time>
      </trkpt>
      <trkpt lat="42.0008910" lon="-8.8772220">
        <ele>15.1</ele>
        <time>2021-05-19T07:59:04Z</time>
      </trkpt>
      <trkpt lat="42.0009020" lon="-8.8772070">
        <ele>15.1</ele>
        <time>2021-05-19T07:59:05Z</time>
      </trkpt>
      <trkpt lat="42.0009080" lon="-8.8772010">
        <ele>15.1</ele>
        <time>2021-05-19T07:59:06Z</time>
      </trkpt>
      <trkpt lat="42.0009130" lon="-8.8771940">
        <ele>15.1</ele>
        <time>2021-05-19T07:59:07Z</time>
      </trkpt>
      <trkpt lat="42.0009190" lon="-8.8771880">
        <ele>15.1</ele>
        <time>2021-05-19T07:59:08Z</time>
      </trkpt>
      <trkpt lat="42.0009390" lon="-8.8771810">
        <ele>15.1</ele>
        <time>2021-05-19T07:59:09Z</time>
      </trkpt>
      <trkpt lat="42.0009500" lon="-8.8771820">
        <ele>15.1</ele>
        <time>2021-05-19T07:59:10Z</time>
      </trkpt>
      <trkpt lat="42.0009750" lon="-8.8771750">
        <ele>15.1</ele>
        <time>2021-05-19T07:59:11Z</time>
      </trkpt>
      <trkpt lat="42.0009870" lon="-8.8771730">
        <ele>15.1</ele>
        <time>2021-05-19T07:59:12Z</time>
      </trkpt>
      <trkpt lat="42.0010000" lon="-8.8771720">
        <ele>15.1</ele>
        <time>2021-05-19T07:59:13Z</time>
      </trkpt>
      <trkpt lat="42.0010190" lon="-8.8771580">
        <ele>15.1</ele>
        <time>2021-05-19T07:59:14Z</time>
      </trkpt>
      <trkpt lat="42.0010280" lon="-8.8771540">
        <ele>15.1</ele>
        <time>2021-05-19T07:59:15Z</time>
      </trkpt>
      <trkpt lat="42.0010360" lon="-8.8771490">
        <ele>15.1</ele>
        <time>2021-05-19T07:59:16Z</time>
      </trkpt>
      <trkpt lat="42.0010370" lon="-8.8771470">
        <ele>15.1</ele>
        <time>2021-05-19T07:59:17Z</time>
      </trkpt>
      <trkpt lat="42.0010420" lon="-8.8771240">
        <ele>15.0</ele>
        <time>2021-05-19T07:59:18Z</time>
      </trkpt>
      <trkpt lat="42.0010590" lon="-8.8771160">
        <ele>15.0</ele>
        <time>2021-05-19T07:59:19Z</time>
      </trkpt>
      <trkpt lat="42.0010750" lon="-8.8771170">
        <ele>15.0</ele>
        <time>2021-05-19T07:59:20Z</time>
      </trkpt>
      <trkpt lat="42.0010920" lon="-8.8771060">
        <ele>15.0</ele>
        <time>2021-05-19T07:59:21Z</time>
      </trkpt>
      <trkpt lat="42.0011000" lon="-8.8770990">
        <ele>15.0</ele>
        <time>2021-05-19T07:59:22Z</time>
      </trkpt>
      <trkpt lat="42.0011180" lon="-8.8770860">
        <ele>14.9</ele>
        <time>2021-05-19T07:59:23Z</time>
      </trkpt>
      <trkpt lat="42.0011470" lon="-8.8770730">
        <ele>14.9</ele>
        <time>2021-05-19T07:59:24Z</time>
      </trkpt>
      <trkpt lat="42.0011580" lon="-8.8770700">
        <ele>14.9</ele>
        <time>2021-05-19T07:59:25Z</time>
      </trkpt>
      <trkpt lat="42.0011750" lon="-8.8770650">
        <ele>14.8</ele>
        <time>2021-05-19T07:59:26Z</time>
      </trkpt>
      <trkpt lat="42.0011810" lon="-8.8770600">
        <ele>14.8</ele>
        <time>2021-05-19T07:59:27Z</time>
      </trkpt>
      <trkpt lat="42.0011860" lon="-8.8770540">
        <ele>14.8</ele>
        <time>2021-05-19T07:59:28Z</time>
      </trkpt>
      <trkpt lat="42.0011920" lon="-8.8770490">
        <ele>14.7</ele>
        <time>2021-05-19T07:59:29Z</time>
      </trkpt>
      <trkpt lat="42.0011980" lon="-8.8770440">
        <ele>14.7</ele>
        <time>2021-05-19T07:59:30Z</time>
      </trkpt>
      <trkpt lat="42.0012290" lon="-8.8770290">
        <ele>14.6</ele>
        <time>2021-05-19T07:59:31Z</time>
      </trkpt>
      <trkpt lat="42.0012370" lon="-8.8770250">
        <ele>14.6</ele>
        <time>2021-05-19T07:59:32Z</time>
      </trkpt>
      <trkpt lat="42.0012530" lon="-8.8770270">
        <ele>14.5</ele>
        <time>2021-05-19T07:59:33Z</time>
      </trkpt>
      <trkpt lat="42.0012600" lon="-8.8770250">
        <ele>14.5</ele>
        <time>2021-05-19T07:59:34Z</time>
      </trkpt>
      <trkpt lat="42.0012680" lon="-8.8770220">
        <ele>14.5</ele>
        <time>2021-05-19T07:59:35Z</time>
      </trkpt>
      <trkpt lat="42.0012750" lon="-8.8770200">
        <ele>14.5</ele>
        <time>2021-05-19T07:59:36Z</time>
      </trkpt>
      <trkpt lat="42.0012940" lon="-8.8770200">
        <ele>14.4</ele>
        <time>2021-05-19T07:59:37Z</time>
      </trkpt>
      <trkpt lat="42.0013070" lon="-8.8770210">
        <ele>14.4</ele>
        <time>2021-05-19T07:59:38Z</time>
      </trkpt>
      <trkpt lat="42.0013280" lon="-8.8770110">
        <ele>14.3</ele>
        <time>2021-05-19T07:59:39Z</time>
      </trkpt>
      <trkpt lat="42.0013250" lon="-8.8770150">
        <ele>14.3</ele>
        <time>2021-05-19T07:59:40Z</time>
      </trkpt>
      <trkpt lat="42.0013310" lon="-8.8770130">
        <ele>14.2</ele>
        <time>2021-05-19T07:59:41Z</time>
      </trkpt>
      <trkpt lat="42.0013340" lon="-8.8770060">
        <ele>14.2</ele>
        <time>2021-05-19T07:59:42Z</time>
      </trkpt>
      <trkpt lat="42.0013350" lon="-8.8770060">
        <ele>14.2</ele>
        <time>2021-05-19T07:59:43Z</time>
      </trkpt>
      <trkpt lat="42.0013350" lon="-8.8770080">
        <ele>14.2</ele>
        <time>2021-05-19T07:59:44Z</time>
      </trkpt>
      <trkpt lat="42.0013430" lon="-8.8770100">
        <ele>14.2</ele>
        <time>2021-05-19T07:59:45Z</time>
      </trkpt>
      <trkpt lat="42.0013530" lon="-8.8770120">
        <ele>14.1</ele>
        <time>2021-05-19T07:59:46Z</time>
      </trkpt>
      <trkpt lat="42.0013510" lon="-8.8770110">
        <ele>14.1</ele>
        <time>2021-05-19T07:59:47Z</time>
      </trkpt>
      <trkpt lat="42.0013530" lon="-8.8770210">
        <ele>14.1</ele>
        <time>2021-05-19T07:59:48Z</time>
      </trkpt>
      <trkpt lat="42.0013530" lon="-8.8770200">
        <ele>14.1</ele>
        <time>2021-05-19T07:59:49Z</time>
      </trkpt>
      <trkpt lat="42.0013430" lon="-8.8770070">
        <ele>14.0</ele>
        <time>2021-05-19T07:59:50Z</time>
      </trkpt>
      <trkpt lat="42.0013420" lon="-8.8770000">
        <ele>14.0</ele>
        <time>2021-05-19T07:59:51Z</time>
      </trkpt>
      <trkpt lat="42.0013380" lon="-8.8769930">
        <ele>14.0</ele>
        <time>2021-05-19T07:59:52Z</time>
      </trkpt>
      <trkpt lat="42.0013380" lon="-8.8769990">
        <ele>14.0</ele>
        <time>2021-05-19T07:59:53Z</time>
      </trkpt>
      <trkpt lat="42.0013390" lon="-8.8770000">
        <ele>14.0</ele>
        <time>2021-05-19T07:59:54Z</time>
      </trkpt>
      <trkpt lat="42.0013500" lon="-8.8770020">
        <ele>13.9</ele>
        <time>2021-05-19T07:59:55Z</time>
      </trkpt>
      <trkpt lat="42.0013640" lon="-8.8770020">
        <ele>13.9</ele>
        <time>2021-05-19T07:59:56Z</time>
      </trkpt>
      <trkpt lat="42.0013770" lon="-8.8770020">
        <ele>13.8</ele>
        <time>2021-05-19T07:59:57Z</time>
      </trkpt>
      <trkpt lat="42.0013850" lon="-8.8769960">
        <ele>13.8</ele>
        <time>2021-05-19T07:59:58Z</time>
      </trkpt>
      <trkpt lat="42.0013940" lon="-8.8769740">
        <ele>13.7</ele>
        <time>2021-05-19T07:59:59Z</time>
      </trkpt>
      <trkpt lat="42.0014000" lon="-8.8769570">
        <ele>13.7</ele>
        <time>2021-05-19T08:00:00Z</time>
      </trkpt>
      <trkpt lat="42.0014090" lon="-8.8769450">
        <ele>13.6</ele>
        <time>2021-05-19T08:00:01Z</time>
      </trkpt>
      <trkpt lat="42.0014140" lon="-8.8769380">
        <ele>13.6</ele>
        <time>2021-05-19T08:00:02Z</time>
      </trkpt>
      <trkpt lat="42.0014190" lon="-8.8769360">
        <ele>13.6</ele>
        <time>2021-05-19T08:00:03Z</time>
      </trkpt>
      <trkpt lat="42.0014240" lon="-8.8769340">
        <ele>13.5</ele>
        <time>2021-05-19T08:00:04Z</time>
      </trkpt>
      <trkpt lat="42.0014280" lon="-8.8769320">
        <ele>13.5</ele>
        <time>2021-05-19T08:00:05Z</time>
      </trkpt>
      <trkpt lat="42.0014330" lon="-8.8769310">
        <ele>13.5</ele>
        <time>2021-05-19T08:00:06Z</time>
      </trkpt>
      <trkpt lat="42.0014380" lon="-8.8769290">
        <ele>13.5</ele>
        <time>2021-05-19T08:00:07Z</time>
      </trkpt>
      <trkpt lat="42.0014430" lon="-8.8769270">
        <ele>13.4</ele>
        <time>2021-05-19T08:00:08Z</time>
      </trkpt>
      <trkpt lat="42.0014470" lon="-8.8769250">
        <ele>13.4</ele>
        <time>2021-05-19T08:00:09Z</time>
      </trkpt>
      <trkpt lat="42.0014520" lon="-8.8769230">
        <ele>13.4</ele>
        <time>2021-05-19T08:00:10Z</time>
      </trkpt>
      <trkpt lat="42.0014680" lon="-8.8769130">
        <ele>13.3</ele>
        <time>2021-05-19T08:00:11Z</time>
      </trkpt>
      <trkpt lat="42.0014850" lon="-8.8769140">
        <ele>13.3</ele>
        <time>2021-05-19T08:00:12Z</time>
      </trkpt>
      <trkpt lat="42.0015020" lon="-8.8769120">
        <ele>13.2</ele>
        <time>2021-05-19T08:00:13Z</time>
      </trkpt>
      <trkpt lat="42.0015150" lon="-8.8769230">
        <ele>13.1</ele>
        <time>2021-05-19T08:00:14Z</time>
      </trkpt>
      <trkpt lat="42.0015230" lon="-8.8769120">
        <ele>13.1</ele>
        <time>2021-05-19T08:00:15Z</time>
      </trkpt>
      <trkpt lat="42.0015330" lon="-8.8769120">
        <ele>13.0</ele>
        <time>2021-05-19T08:00:16Z</time>
      </trkpt>
      <trkpt lat="42.0015430" lon="-8.8769110">
        <ele>13.0</ele>
        <time>2021-05-19T08:00:17Z</time>
      </trkpt>
      <trkpt lat="42.0015530" lon="-8.8769100">
        <ele>13.0</ele>
        <time>2021-05-19T08:00:18Z</time>
      </trkpt>
      <trkpt lat="42.0015580" lon="-8.8769120">
        <ele>12.9</ele>
        <time>2021-05-19T08:00:19Z</time>
      </trkpt>
      <trkpt lat="42.0015620" lon="-8.8769040">
        <ele>12.9</ele>
        <time>2021-05-19T08:00:20Z</time>
      </trkpt>
      <trkpt lat="42.0015760" lon="-8.8768990">
        <ele>12.9</ele>
        <time>2021-05-19T08:00:21Z</time>
      </trkpt>
      <trkpt lat="42.0015870" lon="-8.8768960">
        <ele>12.8</ele>
        <time>2021-05-19T08:00:22Z</time>
      </trkpt>
      <trkpt lat="42.0016010" lon="-8.8768980">
        <ele>12.8</ele>
        <time>2021-05-19T08:00:23Z</time>
      </trkpt>
      <trkpt lat="42.0016200" lon="-8.8769020">
        <ele>12.7</ele>
        <time>2021-05-19T08:00:24Z</time>
      </trkpt>
      <trkpt lat="42.0016350" lon="-8.8769030">
        <ele>12.6</ele>
        <time>2021-05-19T08:00:25Z</time>
      </trkpt>
      <trkpt lat="42.0016460" lon="-8.8769060">
        <ele>12.6</ele>
        <time>2021-05-19T08:00:26Z</time>
      </trkpt>
      <trkpt lat="42.0016520" lon="-8.8769110">
        <ele>12.6</ele>
        <time>2021-05-19T08:00:27Z</time>
      </trkpt>
      <trkpt lat="42.0016590" lon="-8.8769010">
        <ele>12.5</ele>
        <time>2021-05-19T08:00:28Z</time>
      </trkpt>
      <trkpt lat="42.0016700" lon="-8.8769010">
        <ele>12.5</ele>
        <time>2021-05-19T08:00:29Z</time>
      </trkpt>
      <trkpt lat="42.0016820" lon="-8.8768970">
        <ele>12.4</ele>
        <time>2021-05-19T08:00:30Z</time>
      </trkpt>
      <trkpt lat="42.0016930" lon="-8.8768970">
        <ele>12.3</ele>
        <time>2021-05-19T08:00:31Z</time>
      </trkpt>
      <trkpt lat="42.0017040" lon="-8.8768930">
        <ele>12.3</ele>
        <time>2021-05-19T08:00:32Z</time>
      </trkpt>
      <trkpt lat="42.0017150" lon="-8.8768780">
        <ele>12.2</ele>
        <time>2021-05-19T08:00:33Z</time>
      </trkpt>
      <trkpt lat="42.0017250" lon="-8.8768680">
        <ele>12.2</ele>
        <time>2021-05-19T08:00:34Z</time>
      </trkpt>
      <trkpt lat="42.0017310" lon="-8.8768530">
        <ele>12.2</ele>
        <time>2021-05-19T08:00:35Z</time>
      </trkpt>
      <trkpt lat="42.0017300" lon="-8.8768390">
        <ele>12.1</ele>
        <time>2021-05-19T08:00:36Z</time>
      </trkpt>
      <trkpt lat="42.0017290" lon="-8.8768160">
        <ele>12.1</ele>
        <time>2021-05-19T08:00:37Z</time>
      </trkpt>
      <trkpt lat="42.0017280" lon="-8.8768060">
        <ele>12.0</ele>
        <time>2021-05-19T08:00:38Z</time>
      </trkpt>
      <trkpt lat="42.0017260" lon="-8.8767970">
        <ele>12.0</ele>
        <time>2021-05-19T08:00:39Z</time>
      </trkpt>
      <trkpt lat="42.0017240" lon="-8.8767880">
        <ele>12.0</ele>
        <time>2021-05-19T08:00:40Z</time>
      </trkpt>
      <trkpt lat="42.0017230" lon="-8.8767880">
        <ele>12.0</ele>
        <time>2021-05-19T08:00:41Z</time>
      </trkpt>
      <trkpt lat="42.0017240" lon="-8.8767920">
        <ele>12.0</ele>
        <time>2021-05-19T08:00:42Z</time>
      </trkpt>
      <trkpt lat="42.0017230" lon="-8.8767870">
        <ele>11.9</ele>
        <time>2021-05-19T08:00:43Z</time>
      </trkpt>
      <trkpt lat="42.0017230" lon="-8.8767930">
        <ele>11.9</ele>
        <time>2021-05-19T08:00:44Z</time>
      </trkpt>
      <trkpt lat="42.0017260" lon="-8.8768010">
        <ele>11.9</ele>
        <time>2021-05-19T08:00:45Z</time>
      </trkpt>
      <trkpt lat="42.0017220" lon="-8.8768020">
        <ele>11.9</ele>
        <time>2021-05-19T08:00:46Z</time>
      </trkpt>
      <trkpt lat="42.0017210" lon="-8.8767990">
        <ele>11.9</ele>
        <time>2021-05-19T08:00:47Z</time>
      </trkpt>
      <trkpt lat="42.0017230" lon="-8.8768000">
        <ele>11.9</ele>
        <time>2021-05-19T08:00:48Z</time>
      </trkpt>
      <trkpt lat="42.0017280" lon="-8.8768100">
        <ele>11.8</ele>
        <time>2021-05-19T08:00:49Z</time>
      </trkpt>
      <trkpt lat="42.0017310" lon="-8.8768120">
        <ele>11.8</ele>
        <time>2021-05-19T08:00:50Z</time>
      </trkpt>
      <trkpt lat="42.0017290" lon="-8.8768110">
        <ele>11.8</ele>
        <time>2021-05-19T08:00:51Z</time>
      </trkpt>
      <trkpt lat="42.0017230" lon="-8.8768100">
        <ele>11.8</ele>
        <time>2021-05-19T08:00:52Z</time>
      </trkpt>
      <trkpt lat="42.0017200" lon="-8.8768170">
        <ele>11.8</ele>
        <time>2021-05-19T08:00:53Z</time>
      </trkpt>
      <trkpt lat="42.0017190" lon="-8.8768170">
        <ele>11.8</ele>
        <time>2021-05-19T08:00:54Z</time>
      </trkpt>
      <trkpt lat="42.0017200" lon="-8.8768160">
        <ele>11.8</ele>
        <time>2021-05-19T08:00:55Z</time>
      </trkpt>
      <trkpt lat="42.0017230" lon="-8.8768170">
        <ele>11.7</ele>
        <time>2021-05-19T08:00:56Z</time>
      </trkpt>
      <trkpt lat="42.0017210" lon="-8.8768240">
        <ele>11.7</ele>
        <time>2021-05-19T08:00:57Z</time>
      </trkpt>
      <trkpt lat="42.0017290" lon="-8.8768210">
        <ele>11.7</ele>
        <time>2021-05-19T08:00:58Z</time>
      </trkpt>
      <trkpt lat="42.0017210" lon="-8.8768200">
        <ele>11.6</ele>
        <time>2021-05-19T08:00:59Z</time>
      </trkpt>
      <trkpt lat="42.0017190" lon="-8.8768220">
        <ele>11.6</ele>
        <time>2021-05-19T08:01:00Z</time>
      </trkpt>
      <trkpt lat="42.0017240" lon="-8.8768140">
        <ele>11.6</ele>
        <time>2021-05-19T08:01:01Z</time>
      </trkpt>
      <trkpt lat="42.0017290" lon="-8.8768130">
        <ele>11.6</ele>
        <time>2021-05-19T08:01:02Z</time>
      </trkpt>
      <trkpt lat="42.0017330" lon="-8.8768150">
        <ele>11.6</ele>
        <time>2021-05-19T08:01:03Z</time>
      </trkpt>
      <trkpt lat="42.0017370" lon="-8.8768180">
        <ele>11.5</ele>
        <time>2021-05-19T08:01:04Z</time>
      </trkpt>
      <trkpt lat="42.0017410" lon="-8.8768300">
        <ele>11.5</ele>
        <time>2021-05-19T08:01:05Z</time>
      </trkpt>
      <trkpt lat="42.0017470" lon="-8.8768420">
        <ele>11.5</ele>
        <time>2021-05-19T08:01:06Z</time>
      </trkpt>
      <trkpt lat="42.0017510" lon="-8.8768560">
        <ele>11.4</ele>
        <time>2021-05-19T08:01:07Z</time>
      </trkpt>
      <trkpt lat="42.0017560" lon="-8.8768660">
        <ele>11.4</ele>
        <time>2021-05-19T08:01:08Z</time>
      </trkpt>
      <trkpt lat="42.0017610" lon="-8.8768770">
        <ele>11.3</ele>
        <time>2021-05-19T08:01:09Z</time>
      </trkpt>
      <trkpt lat="42.0017690" lon="-8.8768860">
        <ele>11.3</ele>
        <time>2021-05-19T08:01:10Z</time>
      </trkpt>
      <trkpt lat="42.0017760" lon="-8.8769010">
        <ele>11.2</ele>
        <time>2021-05-19T08:01:11Z</time>
      </trkpt>
      <trkpt lat="42.0017780" lon="-8.8768980">
        <ele>11.2</ele>
        <time>2021-05-19T08:01:12Z</time>
      </trkpt>
      <trkpt lat="42.0017830" lon="-8.8769030">
        <ele>11.2</ele>
        <time>2021-05-19T08:01:13Z</time>
      </trkpt>
      <trkpt lat="42.0017870" lon="-8.8769050">
        <ele>11.1</ele>
        <time>2021-05-19T08:01:14Z</time>
      </trkpt>
      <trkpt lat="42.0017900" lon="-8.8769080">
        <ele>11.1</ele>
        <time>2021-05-19T08:01:15Z</time>
      </trkpt>
      <trkpt lat="42.0017900" lon="-8.8769100">
        <ele>11.1</ele>
        <time>2021-05-19T08:01:16Z</time>
      </trkpt>
      <trkpt lat="42.0017910" lon="-8.8769080">
        <ele>11.1</ele>
        <time>2021-05-19T08:01:17Z</time>
      </trkpt>
      <trkpt lat="42.0017910" lon="-8.8769070">
        <ele>11.1</ele>
        <time>2021-05-19T08:01:18Z</time>
      </trkpt>
      <trkpt lat="42.0017910" lon="-8.8769080">
        <ele>11.1</ele>
        <time>2021-05-19T08:01:19Z</time>
      </trkpt>
      <trkpt lat="42.0017890" lon="-8.8769100">
        <ele>11.1</ele>
        <time>2021-05-19T08:01:20Z</time>
      </trkpt>
      <trkpt lat="42.0017890" lon="-8.8769110">
        <ele>11.1</ele>
        <time>2021-05-19T08:01:21Z</time>
      </trkpt>
      <trkpt lat="42.0017900" lon="-8.8769080">
        <ele>11.1</ele>
        <time>2021-05-19T08:01:22Z</time>
      </trkpt>
      <trkpt lat="42.0017900" lon="-8.8769070">
        <ele>11.1</ele>
        <time>2021-05-19T08:01:23Z</time>
      </trkpt>
      <trkpt lat="42.0017890" lon="-8.8769030">
        <ele>11.0</ele>
        <time>2021-05-19T08:01:24Z</time>
      </trkpt>
      <trkpt lat="42.0017890" lon="-8.8768940">
        <ele>11.0</ele>
        <time>2021-05-19T08:01:25Z</time>
      </trkpt>
      <trkpt lat="42.0017870" lon="-8.8768810">
        <ele>11.0</ele>
        <time>2021-05-19T08:01:26Z</time>
      </trkpt>
      <trkpt lat="42.0017820" lon="-8.8768730">
        <ele>10.9</ele>
        <time>2021-05-19T08:01:27Z</time>
      </trkpt>
      <trkpt lat="42.0017820" lon="-8.8768580">
        <ele>10.9</ele>
        <time>2021-05-19T08:01:28Z</time>
      </trkpt>
      <trkpt lat="42.0017850" lon="-8.8768420">
        <ele>10.8</ele>
        <time>2021-05-19T08:01:29Z</time>
      </trkpt>
      <trkpt lat="42.0017870" lon="-8.8768240">
        <ele>10.7</ele>
        <time>2021-05-19T08:01:30Z</time>
      </trkpt>
      <trkpt lat="42.0017910" lon="-8.8768110">
        <ele>10.7</ele>
        <time>2021-05-19T08:01:31Z</time>
      </trkpt>
      <trkpt lat="42.0018020" lon="-8.8767980">
        <ele>10.6</ele>
        <time>2021-05-19T08:01:32Z</time>
      </trkpt>
      <trkpt lat="42.0018120" lon="-8.8767930">
        <ele>10.5</ele>
        <time>2021-05-19T08:01:33Z</time>
      </trkpt>
      <trkpt lat="42.0018200" lon="-8.8767850">
        <ele>10.5</ele>
        <time>2021-05-19T08:01:34Z</time>
      </trkpt>
      <trkpt lat="42.0018270" lon="-8.8767770">
        <ele>10.4</ele>
        <time>2021-05-19T08:01:35Z</time>
      </trkpt>
      <trkpt lat="42.0018410" lon="-8.8767720">
        <ele>10.4</ele>
        <time>2021-05-19T08:01:36Z</time>
      </trkpt>
      <trkpt lat="42.0018480" lon="-8.8767620">
        <ele>10.3</ele>
        <time>2021-05-19T08:01:37Z</time>
      </trkpt>
      <trkpt lat="42.0018500" lon="-8.8767560">
        <ele>10.3</ele>
        <time>2021-05-19T08:01:38Z</time>
      </trkpt>
      <trkpt lat="42.0018600" lon="-8.8767480">
        <ele>10.2</ele>
        <time>2021-05-19T08:01:39Z</time>
      </trkpt>
      <trkpt lat="42.0018700" lon="-8.8767380">
        <ele>10.2</ele>
        <time>2021-05-19T08:01:40Z</time>
      </trkpt>
      <trkpt lat="42.0018720" lon="-8.8767210">
        <ele>10.1</ele>
        <time>2021-05-19T08:01:41Z</time>
      </trkpt>
      <trkpt lat="42.0018760" lon="-8.8767090">
        <ele>10.1</ele>
        <time>2021-05-19T08:01:42Z</time>
      </trkpt>
      <trkpt lat="42.0018710" lon="-8.8766940">
        <ele>10.0</ele>
        <time>2021-05-19T08:01:43Z</time>
      </trkpt>
      <trkpt lat="42.0018790" lon="-8.8766860">
        <ele>9.9</ele>
        <time>2021-05-19T08:01:44Z</time>
      </trkpt>
      <trkpt lat="42.0018740" lon="-8.8766820">
        <ele>9.9</ele>
        <time>2021-05-19T08:01:45Z</time>
      </trkpt>
      <trkpt lat="42.0018730" lon="-8.8766810">
        <ele>9.9</ele>
        <time>2021-05-19T08:01:46Z</time>
      </trkpt>
      <trkpt lat="42.0018760" lon="-8.8766800">
        <ele>9.9</ele>
        <time>2021-05-19T08:01:47Z</time>
      </trkpt>
      <trkpt lat="42.0018770" lon="-8.8766800">
        <ele>9.9</ele>
        <time>2021-05-19T08:01:48Z</time>
      </trkpt>
      <trkpt lat="42.0018750" lon="-8.8766790">
        <ele>9.9</ele>
        <time>2021-05-19T08:01:49Z</time>
      </trkpt>
      <trkpt lat="42.0018750" lon="-8.8766790">
        <ele>9.9</ele>
        <time>2021-05-19T08:01:50Z</time>
      </trkpt>
      <trkpt lat="42.0018750" lon="-8.8766790">
        <ele>9.9</ele>
        <time>2021-05-19T08:01:51Z</time>
      </trkpt>
      <trkpt lat="42.0018810" lon="-8.8766780">
        <ele>9.8</ele>
        <time>2021-05-19T08:01:52Z</time>
      </trkpt>
      <trkpt lat="42.0018830" lon="-8.8766780">
        <ele>9.8</ele>
        <time>2021-05-19T08:01:53Z</time>
      </trkpt>
      <trkpt lat="42.0018820" lon="-8.8766790">
        <ele>9.8</ele>
        <time>2021-05-19T08:01:54Z</time>
      </trkpt>
      <trkpt lat="42.0018820" lon="-8.8766780">
        <ele>9.8</ele>
        <time>2021-05-19T08:01:55Z</time>
      </trkpt>
      <trkpt lat="42.0018840" lon="-8.8766820">
        <ele>9.8</ele>
        <time>2021-05-19T08:01:56Z</time>
      </trkpt>
      <trkpt lat="42.0018820" lon="-8.8766760">
        <ele>9.8</ele>
        <time>2021-05-19T08:01:57Z</time>
      </trkpt>
      <trkpt lat="42.0018810" lon="-8.8766810">
        <ele>9.8</ele>
        <time>2021-05-19T08:01:58Z</time>
      </trkpt>
      <trkpt lat="42.0018780" lon="-8.8766830">
        <ele>9.7</ele>
        <time>2021-05-19T08:01:59Z</time>
      </trkpt>
      <trkpt lat="42.0018740" lon="-8.8766830">
        <ele>9.7</ele>
        <time>2021-05-19T08:02:00Z</time>
      </trkpt>
      <trkpt lat="42.0018730" lon="-8.8766810">
        <ele>9.7</ele>
        <time>2021-05-19T08:02:01Z</time>
      </trkpt>
      <trkpt lat="42.0018710" lon="-8.8766790">
        <ele>9.7</ele>
        <time>2021-05-19T08:02:02Z</time>
      </trkpt>
      <trkpt lat="42.0018680" lon="-8.8766760">
        <ele>9.7</ele>
        <time>2021-05-19T08:02:03Z</time>
      </trkpt>
      <trkpt lat="42.0018670" lon="-8.8766810">
        <ele>9.7</ele>
        <time>2021-05-19T08:02:04Z</time>
      </trkpt>
      <trkpt lat="42.0018650" lon="-8.8766810">
        <ele>9.6</ele>
        <time>2021-05-19T08:02:05Z</time>
      </trkpt>
      <trkpt lat="42.0018610" lon="-8.8766750">
        <ele>9.6</ele>
        <time>2021-05-19T08:02:06Z</time>
      </trkpt>
      <trkpt lat="42.0018610" lon="-8.8766770">
        <ele>9.6</ele>
        <time>2021-05-19T08:02:07Z</time>
      </trkpt>
      <trkpt lat="42.0018580" lon="-8.8766800">
        <ele>9.6</ele>
        <time>2021-05-19T08:02:08Z</time>
      </trkpt>
      <trkpt lat="42.0018560" lon="-8.8766790">
        <ele>9.6</ele>
        <time>2021-05-19T08:02:09Z</time>
      </trkpt>
      <trkpt lat="42.0018550" lon="-8.8766840">
        <ele>9.6</ele>
        <time>2021-05-19T08:02:10Z</time>
      </trkpt>
      <trkpt lat="42.0018500" lon="-8.8766730">
        <ele>9.5</ele>
        <time>2021-05-19T08:02:11Z</time>
      </trkpt>
      <trkpt lat="42.0018480" lon="-8.8766750">
        <ele>9.5</ele>
        <time>2021-05-19T08:02:12Z</time>
      </trkpt>
      <trkpt lat="42.0018460" lon="-8.8766760">
        <ele>9.5</ele>
        <time>2021-05-19T08:02:13Z</time>
      </trkpt>
      <trkpt lat="42.0018460" lon="-8.8766750">
        <ele>9.5</ele>
        <time>2021-05-19T08:02:14Z</time>
      </trkpt>
      <trkpt lat="42.0018650" lon="-8.8766880">
        <ele>9.4</ele>
        <time>2021-05-19T08:02:15Z</time>
      </trkpt>
      <trkpt lat="42.0018670" lon="-8.8766860">
        <ele>9.4</ele>
        <time>2021-05-19T08:02:16Z</time>
      </trkpt>
      <trkpt lat="42.0018670" lon="-8.8766810">
        <ele>9.3</ele>
        <time>2021-05-19T08:02:17Z</time>
      </trkpt>
      <trkpt lat="42.0018740" lon="-8.8766660">
        <ele>9.3</ele>
        <time>2021-05-19T08:02:18Z</time>
      </trkpt>
      <trkpt lat="42.0018830" lon="-8.8766670">
        <ele>9.2</ele>
        <time>2021-05-19T08:02:19Z</time>
      </trkpt>
      <trkpt lat="42.0018780" lon="-8.8766710">
        <ele>9.2</ele>
        <time>2021-05-19T08:02:20Z</time>
      </trkpt>
      <trkpt lat="42.0018750" lon="-8.8766770">
        <ele>9.2</ele>
        <time>2021-05-19T08:02:21Z</time>
      </trkpt>
      <trkpt lat="42.0018740" lon="-8.8766820">
        <ele>9.1</ele>
        <time>2021-05-19T08:02:22Z</time>
      </trkpt>
      <trkpt lat="42.0018770" lon="-8.8766830">
        <ele>9.1</ele>
        <time>2021-05-19T08:02:23Z</time>
      </trkpt>
      <trkpt lat="42.0018810" lon="-8.8766930">
        <ele>9.1</ele>
        <time>2021-05-19T08:02:24Z</time>
      </trkpt>
      <trkpt lat="42.0018900" lon="-8.8767010">
        <ele>9.0</ele>
        <time>2021-05-19T08:02:25Z</time>
      </trkpt>
      <trkpt lat="42.0018930" lon="-8.8767090">
        <ele>9.0</ele>
        <time>2021-05-19T08:02:26Z</time>
      </trkpt>
      <trkpt lat="42.0018920" lon="-8.8767040">
        <ele>9.0</ele>
        <time>2021-05-19T08:02:27Z</time>
      </trkpt>
      <trkpt lat="42.0018930" lon="-8.8767050">
        <ele>9.0</ele>
        <time>2021-05-19T08:02:28Z</time>
      </trkpt>
      <trkpt lat="42.0018930" lon="-8.8767030">
        <ele>9.0</ele>
        <time>2021-05-19T08:02:29Z</time>
      </trkpt>
      <trkpt lat="42.0018960" lon="-8.8767020">
        <ele>8.9</ele>
        <time>2021-05-19T08:02:30Z</time>
      </trkpt>
      <trkpt lat="42.0018920" lon="-8.8766940">
        <ele>8.9</ele>
        <time>2021-05-19T08:02:31Z</time>
      </trkpt>
      <trkpt lat="42.0018920" lon="-8.8766960">
        <ele>8.9</ele>
        <time>2021-05-19T08:02:32Z</time>
      </trkpt>
      <trkpt lat="42.0018920" lon="-8.8766930">
        <ele>8.9</ele>
        <time>2021-05-19T08:02:33Z</time>
      </trkpt>
      <trkpt lat="42.0018900" lon="-8.8766920">
        <ele>8.9</ele>
        <time>2021-05-19T08:02:34Z</time>
      </trkpt>
      <trkpt lat="42.0018940" lon="-8.8766970">
        <ele>8.8</ele>
        <time>2021-05-19T08:02:35Z</time>
      </trkpt>
      <trkpt lat="42.0018910" lon="-8.8766990">
        <ele>8.8</ele>
        <time>2021-05-19T08:02:36Z</time>
      </trkpt>
      <trkpt lat="42.0018910" lon="-8.8766990">
        <ele>8.8</ele>
        <time>2021-05-19T08:02:37Z</time>
      </trkpt>
      <trkpt lat="42.0018910" lon="-8.8766930">
        <ele>8.8</ele>
        <time>2021-05-19T08:02:38Z</time>
      </trkpt>
      <trkpt lat="42.0018900" lon="-8.8766920">
        <ele>8.8</ele>
        <time>2021-05-19T08:02:39Z</time>
      </trkpt>
      <trkpt lat="42.0018920" lon="-8.8766940">
        <ele>8.8</ele>
        <time>2021-05-19T08:02:40Z</time>
      </trkpt>
      <trkpt lat="42.0018960" lon="-8.8766950">
        <ele>8.8</ele>
        <time>2021-05-19T08:02:41Z</time>
      </trkpt>
      <trkpt lat="42.0018980" lon="-8.8766970">
        <ele>8.8</ele>
        <time>2021-05-19T08:02:42Z</time>
      </trkpt>
      <trkpt lat="42.0018980" lon="-8.8766980">
        <ele>8.8</ele>
        <time>2021-05-19T08:02:43Z</time>
      </trkpt>
      <trkpt lat="42.0018970" lon="-8.8766960">
        <ele>8.7</ele>
        <time>2021-05-19T08:02:44Z</time>
      </trkpt>
      <trkpt lat="42.0019000" lon="-8.8766970">
        <ele>8.7</ele>
        <time>2021-05-19T08:02:45Z</time>
      </trkpt>
      <trkpt lat="42.0018960" lon="-8.8766980">
        <ele>8.7</ele>
        <time>2021-05-19T08:02:46Z</time>
      </trkpt>
      <trkpt lat="42.0018960" lon="-8.8767020">
        <ele>8.7</ele>
        <time>2021-05-19T08:02:47Z</time>
      </trkpt>
      <trkpt lat="42.0018990" lon="-8.8766970">
        <ele>8.7</ele>
        <time>2021-05-19T08:02:48Z</time>
      </trkpt>
      <trkpt lat="42.0018990" lon="-8.8766950">
        <ele>8.7</ele>
        <time>2021-05-19T08:02:49Z</time>
      </trkpt>
      <trkpt lat="42.0019040" lon="-8.8766950">
        <ele>8.6</ele>
        <time>2021-05-19T08:02:50Z</time>
      </trkpt>
      <trkpt lat="42.0019040" lon="-8.8766980">
        <ele>8.6</ele>
        <time>2021-05-19T08:02:51Z</time>
      </trkpt>
      <trkpt lat="42.0019040" lon="-8.8767000">
        <ele>8.6</ele>
        <time>2021-05-19T08:02:52Z</time>
      </trkpt>
      <trkpt lat="42.0019050" lon="-8.8766920">
        <ele>8.6</ele>
        <time>2021-05-19T08:02:53Z</time>
      </trkpt>
      <trkpt lat="42.0019040" lon="-8.8766900">
        <ele>8.6</ele>
        <time>2021-05-19T08:02:54Z</time>
      </trkpt>
      <trkpt lat="42.0019050" lon="-8.8766890">
        <ele>8.6</ele>
        <time>2021-05-19T08:02:55Z</time>
      </trkpt>
      <trkpt lat="42.0019030" lon="-8.8766950">
        <ele>8.5</ele>
        <time>2021-05-19T08:02:56Z</time>
      </trkpt>
      <trkpt lat="42.0019030" lon="-8.8766890">
        <ele>8.5</ele>
        <time>2021-05-19T08:02:57Z</time>
      </trkpt>
      <trkpt lat="42.0019000" lon="-8.8766990">
        <ele>8.5</ele>
        <time>2021-05-19T08:02:58Z</time>
      </trkpt>
      <trkpt lat="42.0018990" lon="-8.8766940">
        <ele>8.5</ele>
        <time>2021-05-19T08:02:59Z</time>
      </trkpt>
      <trkpt lat="42.0018960" lon="-8.8766970">
        <ele>8.4</ele>
        <time>2021-05-19T08:03:00Z</time>
      </trkpt>
      <trkpt lat="42.0018920" lon="-8.8766980">
        <ele>8.4</ele>
        <time>2021-05-19T08:03:01Z</time>
      </trkpt>
      <trkpt lat="42.0018950" lon="-8.8767000">
        <ele>8.4</ele>
        <time>2021-05-19T08:03:02Z</time>
      </trkpt>
      <trkpt lat="42.0018940" lon="-8.8767000">
        <ele>8.4</ele>
        <time>2021-05-19T08:03:03Z</time>
      </trkpt>
      <trkpt lat="42.0018870" lon="-8.8766930">
        <ele>8.4</ele>
        <time>2021-05-19T08:03:04Z</time>
      </trkpt>
      <trkpt lat="42.0018820" lon="-8.8766760">
        <ele>8.3</ele>
        <time>2021-05-19T08:03:05Z</time>
      </trkpt>
      <trkpt lat="42.0018850" lon="-8.8766770">
        <ele>8.3</ele>
        <time>2021-05-19T08:03:06Z</time>
      </trkpt>
      <trkpt lat="42.0018890" lon="-8.8766720">
        <ele>8.2</ele>
        <time>2021-05-19T08:03:07Z</time>
      </trkpt>
      <trkpt lat="42.0018970" lon="-8.8766750">
        <ele>8.2</ele>
        <time>2021-05-19T08:03:08Z</time>
      </trkpt>
      <trkpt lat="42.0019030" lon="-8.8766710">
        <ele>8.2</ele>
        <time>2021-05-19T08:03:09Z</time>
      </trkpt>
      <trkpt lat="42.0019120" lon="-8.8766720">
        <ele>8.1</ele>
        <time>2021-05-19T08:03:10Z</time>
      </trkpt>
      <trkpt lat="42.0019130" lon="-8.8766700">
        <ele>8.1</ele>
        <time>2021-05-19T08:03:11Z</time>
      </trkpt>
      <trkpt lat="42.0019080" lon="-8.8766740">
        <ele>8.1</ele>
        <time>2021-05-19T08:03:12Z</time>
      </trkpt>
      <trkpt lat="42.0019030" lon="-8.8766740">
        <ele>8.1</ele>
        <time>2021-05-19T08:03:13Z</time>
      </trkpt>
      <trkpt lat="42.0018990" lon="-8.8766830">
        <ele>8.0</ele>
        <time>2021-05-19T08:03:14Z</time>
      </trkpt>
      <trkpt lat="42.0018920" lon="-8.8766780">
        <ele>8.0</ele>
        <time>2021-05-19T08:03:15Z</time>
      </trkpt>
      <trkpt lat="42.0018890" lon="-8.8766810">
        <ele>8.0</ele>
        <time>2021-05-19T08:03:16Z</time>
      </trkpt>
      <trkpt lat="42.0018870" lon="-8.8766790">
        <ele>7.9</ele>
        <time>2021-05-19T08:03:17Z</time>
      </trkpt>
      <trkpt lat="42.0018850" lon="-8.8766770">
        <ele>7.9</ele>
        <time>2021-05-19T08:03:18Z</time>
      </trkpt>
      <trkpt lat="42.0018840" lon="-8.8766760">
        <ele>7.9</ele>
        <time>2021-05-19T08:03:19Z</time>
      </trkpt>
      <trkpt lat="42.0018820" lon="-8.8766750">
        <ele>7.9</ele>
        <time>2021-05-19T08:03:20Z</time>
      </trkpt>
      <trkpt lat="42.0018810" lon="-8.8766790">
        <ele>7.9</ele>
        <time>2021-05-19T08:03:21Z</time>
      </trkpt>
      <trkpt lat="42.0018760" lon="-8.8766760">
        <ele>7.9</ele>
        <time>2021-05-19T08:03:22Z</time>
      </trkpt>
      <trkpt lat="42.0018800" lon="-8.8766820">
        <ele>7.8</ele>
        <time>2021-05-19T08:03:23Z</time>
      </trkpt>
      <trkpt lat="42.0018810" lon="-8.8766790">
        <ele>7.8</ele>
        <time>2021-05-19T08:03:24Z</time>
      </trkpt>
      <trkpt lat="42.0018770" lon="-8.8766790">
        <ele>7.8</ele>
        <time>2021-05-19T08:03:25Z</time>
      </trkpt>
      <trkpt lat="42.0018790" lon="-8.8766780">
        <ele>7.8</ele>
        <time>2021-05-19T08:03:26Z</time>
      </trkpt>
      <trkpt lat="42.0018810" lon="-8.8766750">
        <ele>7.8</ele>
        <time>2021-05-19T08:03:27Z</time>
      </trkpt>
      <trkpt lat="42.0018870" lon="-8.8766770">
        <ele>7.8</ele>
        <time>2021-05-19T08:03:28Z</time>
      </trkpt>
      <trkpt lat="42.0018900" lon="-8.8766770">
        <ele>7.7</ele>
        <time>2021-05-19T08:03:29Z</time>
      </trkpt>
      <trkpt lat="42.0018890" lon="-8.8766720">
        <ele>7.7</ele>
        <time>2021-05-19T08:03:30Z</time>
      </trkpt>
      <trkpt lat="42.0018870" lon="-8.8766690">
        <ele>7.7</ele>
        <time>2021-05-19T08:03:31Z</time>
      </trkpt>
      <trkpt lat="42.0018880" lon="-8.8766630">
        <ele>7.7</ele>
        <time>2021-05-19T08:03:32Z</time>
      </trkpt>
      <trkpt lat="42.0018930" lon="-8.8766630">
        <ele>7.7</ele>
        <time>2021-05-19T08:03:33Z</time>
      </trkpt>
      <trkpt lat="42.0018920" lon="-8.8766600">
        <ele>7.7</ele>
        <time>2021-05-19T08:03:34Z</time>
      </trkpt>
      <trkpt lat="42.0018920" lon="-8.8766500">
        <ele>7.6</ele>
        <time>2021-05-19T08:03:35Z</time>
      </trkpt>
      <trkpt lat="42.0018910" lon="-8.8766460">
        <ele>7.6</ele>
        <time>2021-05-19T08:03:36Z</time>
      </trkpt>
      <trkpt lat="42.0018890" lon="-8.8766500">
        <ele>7.6</ele>
        <time>2021-05-19T08:03:37Z</time>
      </trkpt>
      <trkpt lat="42.0018860" lon="-8.8766560">
        <ele>7.6</ele>
        <time>2021-05-19T08:03:38Z</time>
      </trkpt>
      <trkpt lat="42.0018890" lon="-8.8766580">
        <ele>7.5</ele>
        <time>2021-05-19T08:03:39Z</time>
      </trkpt>
      <trkpt lat="42.0018930" lon="-8.8766590">
        <ele>7.5</ele>
        <time>2021-05-19T08:03:40Z</time>
      </trkpt>
      <trkpt lat="42.0018940" lon="-8.8766580">
        <ele>7.5</ele>
        <time>2021-05-19T08:03:41Z</time>
      </trkpt>
      <trkpt lat="42.0018950" lon="-8.8766560">
        <ele>7.5</ele>
        <time>2021-05-19T08:03:42Z</time>
      </trkpt>
      <trkpt lat="42.0018970" lon="-8.8766570">
        <ele>7.5</ele>
        <time>2021-05-19T08:03:43Z</time>
      </trkpt>
      <trkpt lat="42.0018900" lon="-8.8766560">
        <ele>7.5</ele>
        <time>2021-05-19T08:03:44Z</time>
      </trkpt>
      <trkpt lat="42.0018870" lon="-8.8766590">
        <ele>7.4</ele>
        <time>2021-05-19T08:03:45Z</time>
      </trkpt>
      <trkpt lat="42.0018880" lon="-8.8766640">
        <ele>7.4</ele>
        <time>2021-05-19T08:03:46Z</time>
      </trkpt>
      <trkpt lat="42.0018880" lon="-8.8766660">
        <ele>7.4</ele>
        <time>2021-05-19T08:03:47Z</time>
      </trkpt>
      <trkpt lat="42.0018880" lon="-8.8766650">
        <ele>7.4</ele>
        <time>2021-05-19T08:03:48Z</time>
      </trkpt>
      <trkpt lat="42.0018870" lon="-8.8766620">
        <ele>7.4</ele>
        <time>2021-05-19T08:03:49Z</time>
      </trkpt>
      <trkpt lat="42.0018870" lon="-8.8766640">
        <ele>7.4</ele>
        <time>2021-05-19T08:03:50Z</time>
      </trkpt>
      <trkpt lat="42.0018840" lon="-8.8766600">
        <ele>7.4</ele>
        <time>2021-05-19T08:03:51Z</time>
      </trkpt>
      <trkpt lat="42.0018800" lon="-8.8766580">
        <ele>7.4</ele>
        <time>2021-05-19T08:03:52Z</time>
      </trkpt>
      <trkpt lat="42.0018750" lon="-8.8766550">
        <ele>7.3</ele>
        <time>2021-05-19T08:03:53Z</time>
      </trkpt>
      <trkpt lat="42.0018700" lon="-8.8766550">
        <ele>7.3</ele>
        <time>2021-05-19T08:03:54Z</time>
      </trkpt>
      <trkpt lat="42.0018660" lon="-8.8766540">
        <ele>7.3</ele>
        <time>2021-05-19T08:03:55Z</time>
      </trkpt>
      <trkpt lat="42.0018620" lon="-8.8766580">
        <ele>7.3</ele>
        <time>2021-05-19T08:03:56Z</time>
      </trkpt>
      <trkpt lat="42.0018600" lon="-8.8766590">
        <ele>7.2</ele>
        <time>2021-05-19T08:03:57Z</time>
      </trkpt>
      <trkpt lat="42.0018590" lon="-8.8766560">
        <ele>7.2</ele>
        <time>2021-05-19T08:03:58Z</time>
      </trkpt>
      <trkpt lat="42.0018570" lon="-8.8766540">
        <ele>7.2</ele>
        <time>2021-05-19T08:03:59Z</time>
      </trkpt>
      <trkpt lat="42.0018550" lon="-8.8766580">
        <ele>7.2</ele>
        <time>2021-05-19T08:04:00Z</time>
      </trkpt>
      <trkpt lat="42.0018530" lon="-8.8766500">
        <ele>7.2</ele>
        <time>2021-05-19T08:04:01Z</time>
      </trkpt>
      <trkpt lat="42.0018550" lon="-8.8766550">
        <ele>7.2</ele>
        <time>2021-05-19T08:04:02Z</time>
      </trkpt>
      <trkpt lat="42.0018550" lon="-8.8766530">
        <ele>7.2</ele>
        <time>2021-05-19T08:04:03Z</time>
      </trkpt>
      <trkpt lat="42.0018540" lon="-8.8766490">
        <ele>7.1</ele>
        <time>2021-05-19T08:04:04Z</time>
      </trkpt>
      <trkpt lat="42.0018540" lon="-8.8766540">
        <ele>7.1</ele>
        <time>2021-05-19T08:04:05Z</time>
      </trkpt>
      <trkpt lat="42.0018510" lon="-8.8766480">
        <ele>7.1</ele>
        <time>2021-05-19T08:04:06Z</time>
      </trkpt>
      <trkpt lat="42.0018500" lon="-8.8766570">
        <ele>7.1</ele>
        <time>2021-05-19T08:04:07Z</time>
      </trkpt>
      <trkpt lat="42.0018480" lon="-8.8766590">
        <ele>7.1</ele>
        <time>2021-05-19T08:04:08Z</time>
      </trkpt>
      <trkpt lat="42.0018440" lon="-8.8766630">
        <ele>7.0</ele>
        <time>2021-05-19T08:04:09Z</time>
      </trkpt>
      <trkpt lat="42.0018470" lon="-8.8766630">
        <ele>7.0</ele>
        <time>2021-05-19T08:04:10Z</time>
      </trkpt>
      <trkpt lat="42.0018490" lon="-8.8766650">
        <ele>7.0</ele>
        <time>2021-05-19T08:04:11Z</time>
      </trkpt>
      <trkpt lat="42.0018430" lon="-8.8766790">
        <ele>7.0</ele>
        <time>2021-05-19T08:04:12Z</time>
      </trkpt>
      <trkpt lat="42.0018410" lon="-8.8766820">
        <ele>6.9</ele>
        <time>2021-05-19T08:04:13Z</time>
      </trkpt>
      <trkpt lat="42.0018410" lon="-8.8766780">
        <ele>6.9</ele>
        <time>2021-05-19T08:04:14Z</time>
      </trkpt>
      <trkpt lat="42.0018410" lon="-8.8766790">
        <ele>6.9</ele>
        <time>2021-05-19T08:04:15Z</time>
      </trkpt>
      <trkpt lat="42.0018420" lon="-8.8766790">
        <ele>6.9</ele>
        <time>2021-05-19T08:04:16Z</time>
      </trkpt>
      <trkpt lat="42.0018450" lon="-8.8766790">
        <ele>6.9</ele>
        <time>2021-05-19T08:04:17Z</time>
      </trkpt>
      <trkpt lat="42.0018440" lon="-8.8766800">
        <ele>6.9</ele>
        <time>2021-05-19T08:04:18Z</time>
      </trkpt>
      <trkpt lat="42.0018560" lon="-8.8766840">
        <ele>6.9</ele>
        <time>2021-05-19T08:04:19Z</time>
      </trkpt>
      <trkpt lat="42.0018560" lon="-8.8766870">
        <ele>6.8</ele>
        <time>2021-05-19T08:04:20Z</time>
      </trkpt>
      <trkpt lat="42.0018570" lon="-8.8766870">
        <ele>6.8</ele>
        <time>2021-05-19T08:04:21Z</time>
      </trkpt>
      <trkpt lat="42.0018570" lon="-8.8766870">
        <ele>6.8</ele>
        <time>2021-05-19T08:04:22Z</time>
      </trkpt>
      <trkpt lat="42.0018580" lon="-8.8766880">
        <ele>6.8</ele>
        <time>2021-05-19T08:04:23Z</time>
      </trkpt>
      <trkpt lat="42.0018550" lon="-8.8766880">
        <ele>6.8</ele>
        <time>2021-05-19T08:04:24Z</time>
      </trkpt>
      <trkpt lat="42.0018540" lon="-8.8766890">
        <ele>6.8</ele>
        <time>2021-05-19T08:04:25Z</time>
      </trkpt>
      <trkpt lat="42.0018570" lon="-8.8766900">
        <ele>6.8</ele>
        <time>2021-05-19T08:04:26Z</time>
      </trkpt>
      <trkpt lat="42.0018590" lon="-8.8766840">
        <ele>6.8</ele>
        <time>2021-05-19T08:04:27Z</time>
      </trkpt>
      <trkpt lat="42.0018630" lon="-8.8766820">
        <ele>6.8</ele>
        <time>2021-05-19T08:04:28Z</time>
      </trkpt>
      <trkpt lat="42.0018670" lon="-8.8766840">
        <ele>6.7</ele>
        <time>2021-05-19T08:04:29Z</time>
      </trkpt>
      <trkpt lat="42.0018690" lon="-8.8766880">
        <ele>6.7</ele>
        <time>2021-05-19T08:04:30Z</time>
      </trkpt>
      <trkpt lat="42.0018480" lon="-8.8766650">
        <ele>6.6</ele>
        <time>2021-05-19T08:04:31Z</time>
      </trkpt>
      <trkpt lat="42.0018440" lon="-8.8766580">
        <ele>6.6</ele>
        <time>2021-05-19T08:04:32Z</time>
      </trkpt>
      <trkpt lat="42.0018400" lon="-8.8766520">
        <ele>6.6</ele>
        <time>2021-05-19T08:04:33Z</time>
      </trkpt>
      <trkpt lat="42.0018490" lon="-8.8766550">
        <ele>6.5</ele>
        <time>2021-05-19T08:04:34Z</time>
      </trkpt>
      <trkpt lat="42.0018490" lon="-8.8766370">
        <ele>6.5</ele>
        <time>2021-05-19T08:04:35Z</time>
      </trkpt>
      <trkpt lat="42.0018420" lon="-8.8766360">
        <ele>6.5</ele>
        <time>2021-05-19T08:04:36Z</time>
      </trkpt>
      <trkpt lat="42.0018420" lon="-8.8766370">
        <ele>6.4</ele>
        <time>2021-05-19T08:04:37Z</time>
      </trkpt>
      <trkpt lat="42.0018330" lon="-8.8766230">
        <ele>6.4</ele>
        <time>2021-05-19T08:04:38Z</time>
      </trkpt>
      <trkpt lat="42.0018330" lon="-8.8766230">
        <ele>6.4</ele>
        <time>2021-05-19T08:04:39Z</time>
      </trkpt>
      <trkpt lat="42.0018230" lon="-8.8766170">
        <ele>6.4</ele>
        <time>2021-05-19T08:04:40Z</time>
      </trkpt>
      <trkpt lat="42.0018180" lon="-8.8766230">
        <ele>6.3</ele>
        <time>2021-05-19T08:04:41Z</time>
      </trkpt>
      <trkpt lat="42.0018220" lon="-8.8766270">
        <ele>6.3</ele>
        <time>2021-05-19T08:04:42Z</time>
      </trkpt>
      <trkpt lat="42.0018260" lon="-8.8766310">
        <ele>6.3</ele>
        <time>2021-05-19T08:04:43Z</time>
      </trkpt>
      <trkpt lat="42.0018300" lon="-8.8766350">
        <ele>6.3</ele>
        <time>2021-05-19T08:04:44Z</time>
      </trkpt>
      <trkpt lat="42.0018340" lon="-8.8766390">
        <ele>6.2</ele>
        <time>2021-05-19T08:04:45Z</time>
      </trkpt>
      <trkpt lat="42.0018380" lon="-8.8766430">
        <ele>6.2</ele>
        <time>2021-05-19T08:04:46Z</time>
      </trkpt>
      <trkpt lat="42.0018420" lon="-8.8766470">
        <ele>6.2</ele>
        <time>2021-05-19T08:04:47Z</time>
      </trkpt>
      <trkpt lat="42.0018460" lon="-8.8766510">
        <ele>6.2</ele>
        <time>2021-05-19T08:04:48Z</time>
      </trkpt>
      <trkpt lat="42.0018500" lon="-8.8766550">
        <ele>6.2</ele>
        <time>2021-05-19T08:04:49Z</time>
      </trkpt>
      <trkpt lat="42.0018540" lon="-8.8766590">
        <ele>6.2</ele>
        <time>2021-05-19T08:04:50Z</time>
      </trkpt>
      <trkpt lat="42.0018610" lon="-8.8766800">
        <ele>6.1</ele>
        <time>2021-05-19T08:04:51Z</time>
      </trkpt>
      <trkpt lat="42.0018660" lon="-8.8766870">
        <ele>6.1</ele>
        <time>2021-05-19T08:04:52Z</time>
      </trkpt>
      <trkpt lat="42.0018630" lon="-8.8767000">
        <ele>6.1</ele>
        <time>2021-05-19T08:04:53Z</time>
      </trkpt>
      <trkpt lat="42.0018740" lon="-8.8767250">
        <ele>6.0</ele>
        <time>2021-05-19T08:04:54Z</time>
      </trkpt>
      <trkpt lat="42.0018750" lon="-8.8767360">
        <ele>6.0</ele>
        <time>2021-05-19T08:04:55Z</time>
      </trkpt>
      <trkpt lat="42.0018740" lon="-8.8767350">
        <ele>6.0</ele>
        <time>2021-05-19T08:04:56Z</time>
      </trkpt>
      <trkpt lat="42.0018740" lon="-8.8767340">
        <ele>6.0</ele>
        <time>2021-05-19T08:04:57Z</time>
      </trkpt>
      <trkpt lat="42.0018740" lon="-8.8767340">
        <ele>6.0</ele>
        <time>2021-05-19T08:04:58Z</time>
      </trkpt>
      <trkpt lat="42.0018770" lon="-8.8767420">
        <ele>5.9</ele>
        <time>2021-05-19T08:04:59Z</time>
      </trkpt>
      <trkpt lat="42.0018750" lon="-8.8767370">
        <ele>5.9</ele>
        <time>2021-05-19T08:05:00Z</time>
      </trkpt>
      <trkpt lat="42.0018760" lon="-8.8767440">
        <ele>5.9</ele>
        <time>2021-05-19T08:05:01Z</time>
      </trkpt>
      <trkpt lat="42.0018740" lon="-8.8767430">
        <ele>5.9</ele>
        <time>2021-05-19T08:05:02Z</time>
      </trkpt>
      <trkpt lat="42.0018790" lon="-8.8767450">
        <ele>5.9</ele>
        <time>2021-05-19T08:05:03Z</time>
      </trkpt>
      <trkpt lat="42.0018800" lon="-8.8767440">
        <ele>5.9</ele>
        <time>2021-05-19T08:05:04Z</time>
      </trkpt>
      <trkpt lat="42.0018770" lon="-8.8767440">
        <ele>5.9</ele>
        <time>2021-05-19T08:05:05Z</time>
      </trkpt>
      <trkpt lat="42.0018830" lon="-8.8767350">
        <ele>5.9</ele>
        <time>2021-05-19T08:05:06Z</time>
      </trkpt>
      <trkpt lat="42.0018880" lon="-8.8767200">
        <ele>5.8</ele>
        <time>2021-05-19T08:05:07Z</time>
      </trkpt>
      <trkpt lat="42.0018970" lon="-8.8767040">
        <ele>5.8</ele>
        <time>2021-05-19T08:05:08Z</time>
      </trkpt>
      <trkpt lat="42.0019100" lon="-8.8767020">
        <ele>5.8</ele>
        <time>2021-05-19T08:05:09Z</time>
      </trkpt>
      <trkpt lat="42.0019150" lon="-8.8766940">
        <ele>5.7</ele>
        <time>2021-05-19T08:05:10Z</time>
      </trkpt>
      <trkpt lat="42.0019250" lon="-8.8766820">
        <ele>5.7</ele>
        <time>2021-05-19T08:05:11Z</time>
      </trkpt>
      <trkpt lat="42.0019340" lon="-8.8766760">
        <ele>5.7</ele>
        <time>2021-05-19T08:05:12Z</time>
      </trkpt>
      <trkpt lat="42.0019400" lon="-8.8766660">
        <ele>5.7</ele>
        <time>2021-05-19T08:05:13Z</time>
      </trkpt>
      <trkpt lat="42.0019480" lon="-8.8766610">
        <ele>5.6</ele>
        <time>2021-05-19T08:05:14Z</time>
      </trkpt>
      <trkpt lat="42.0019450" lon="-8.8766660">
        <ele>5.6</ele>
        <time>2021-05-19T08:05:15Z</time>
      </trkpt>
      <trkpt lat="42.0019480" lon="-8.8766690">
        <ele>5.6</ele>
        <time>2021-05-19T08:05:16Z</time>
      </trkpt>
      <trkpt lat="42.0019500" lon="-8.8766730">
        <ele>5.6</ele>
        <time>2021-05-19T08:05:17Z</time>
      </trkpt>
      <trkpt lat="42.0019530" lon="-8.8766760">
        <ele>5.6</ele>
        <time>2021-05-19T08:05:18Z</time>
      </trkpt>
      <trkpt lat="42.0019520" lon="-8.8766740">
        <ele>5.6</ele>
        <time>2021-05-19T08:05:19Z</time>
      </trkpt>
      <trkpt lat="42.0019510" lon="-8.8766740">
        <ele>5.6</ele>
        <time>2021-05-19T08:05:20Z</time>
      </trkpt>
      <trkpt lat="42.0019530" lon="-8.8766730">
        <ele>5.6</ele>
        <time>2021-05-19T08:05:21Z</time>
      </trkpt>
      <trkpt lat="42.0019470" lon="-8.8766620">
        <ele>5.6</ele>
        <time>2021-05-19T08:05:22Z</time>
      </trkpt>
      <trkpt lat="42.0019440" lon="-8.8766610">
        <ele>5.6</ele>
        <time>2021-05-19T08:05:23Z</time>
      </trkpt>
      <trkpt lat="42.0019430" lon="-8.8766600">
        <ele>5.6</ele>
        <time>2021-05-19T08:05:24Z</time>
      </trkpt>
      <trkpt lat="42.0019380" lon="-8.8766570">
        <ele>5.6</ele>
        <time>2021-05-19T08:05:25Z</time>
      </trkpt>
      <trkpt lat="42.0019350" lon="-8.8766530">
        <ele>5.5</ele>
        <time>2021-05-19T08:05:26Z</time>
      </trkpt>
      <trkpt lat="42.0019350" lon="-8.8766530">
        <ele>5.5</ele>
        <time>2021-05-19T08:05:27Z</time>
      </trkpt>
      <trkpt lat="42.0019350" lon="-8.8766530">
        <ele>5.5</ele>
        <time>2021-05-19T08:05:28Z</time>
      </trkpt>
      <trkpt lat="42.0019350" lon="-8.8766530">
        <ele>5.5</ele>
        <time>2021-05-19T08:05:29Z</time>
      </trkpt>
      <trkpt lat="42.0019320" lon="-8.8766380">
        <ele>5.5</ele>
        <time>2021-05-19T08:05:30Z</time>
      </trkpt>
      <trkpt lat="42.0019290" lon="-8.8766380">
        <ele>5.5</ele>
        <time>2021-05-19T08:05:31Z</time>
      </trkpt>
      <trkpt lat="42.0019280" lon="-8.8766340">
        <ele>5.5</ele>
        <time>2021-05-19T08:05:32Z</time>
      </trkpt>
      <trkpt lat="42.0019280" lon="-8.8766360">
        <ele>5.5</ele>
        <time>2021-05-19T08:05:33Z</time>
      </trkpt>
      <trkpt lat="42.0019280" lon="-8.8766360">
        <ele>5.5</ele>
        <time>2021-05-19T08:05:34Z</time>
      </trkpt>
      <trkpt lat="42.0019240" lon="-8.8766400">
        <ele>5.5</ele>
        <time>2021-05-19T08:05:35Z</time>
      </trkpt>
      <trkpt lat="42.0019240" lon="-8.8766390">
        <ele>5.5</ele>
        <time>2021-05-19T08:05:36Z</time>
      </trkpt>
      <trkpt lat="42.0019260" lon="-8.8766420">
        <ele>5.5</ele>
        <time>2021-05-19T08:05:37Z</time>
      </trkpt>
      <trkpt lat="42.0019260" lon="-8.8766420">
        <ele>5.5</ele>
        <time>2021-05-19T08:05:38Z</time>
      </trkpt>
      <trkpt lat="42.0019260" lon="-8.8766420">
        <ele>5.5</ele>
        <time>2021-05-19T08:05:39Z</time>
      </trkpt>
      <trkpt lat="42.0019260" lon="-8.8766420">
        <ele>5.5</ele>
        <time>2021-05-19T08:05:40Z</time>
      </trkpt>
      <trkpt lat="42.0019260" lon="-8.8766420">
        <ele>5.5</ele>
        <time>2021-05-19T08:05:41Z</time>
      </trkpt>
      <trkpt lat="42.0019440" lon="-8.8766400">
        <ele>5.5</ele>
        <time>2021-05-19T08:05:42Z</time>
      </trkpt>
      <trkpt lat="42.0019440" lon="-8.8766400">
        <ele>5.5</ele>
        <time>2021-05-19T08:05:43Z</time>
      </trkpt>
      <trkpt lat="42.0019450" lon="-8.8766390">
        <ele>5.5</ele>
        <time>2021-05-19T08:05:44Z</time>
      </trkpt>
      <trkpt lat="42.0019450" lon="-8.8766380">
        <ele>5.5</ele>
        <time>2021-05-19T08:05:45Z</time>
      </trkpt>
      <trkpt lat="42.0019430" lon="-8.8766370">
        <ele>5.5</ele>
        <time>2021-05-19T08:05:46Z</time>
      </trkpt>
      <trkpt lat="42.0019430" lon="-8.8766380">
        <ele>5.5</ele>
        <time>2021-05-19T08:05:47Z</time>
      </trkpt>
      <trkpt lat="42.0019430" lon="-8.8766380">
        <ele>5.5</ele>
        <time>2021-05-19T08:05:48Z</time>
      </trkpt>
      <trkpt lat="42.0019430" lon="-8.8766330">
        <ele>5.5</ele>
        <time>2021-05-19T08:05:49Z</time>
      </trkpt>
      <trkpt lat="42.0019400" lon="-8.8766340">
        <ele>5.5</ele>
        <time>2021-05-19T08:05:50Z</time>
      </trkpt>
      <trkpt lat="42.0019400" lon="-8.8766340">
        <ele>5.5</ele>
        <time>2021-05-19T08:05:51Z</time>
      </trkpt>
      <trkpt lat="42.0019400" lon="-8.8766340">
        <ele>5.5</ele>
        <time>2021-05-19T08:05:52Z</time>
      </trkpt>
      <trkpt lat="42.0019400" lon="-8.8766340">
        <ele>5.5</ele>
        <time>2021-05-19T08:05:53Z</time>
      </trkpt>
      <trkpt lat="42.0019400" lon="-8.8766340">
        <ele>5.5</ele>
        <time>2021-05-19T08:05:54Z</time>
      </trkpt>
      <trkpt lat="42.0019360" lon="-8.8766290">
        <ele>5.4</ele>
        <time>2021-05-19T08:05:55Z</time>
      </trkpt>
      <trkpt lat="42.0019370" lon="-8.8766280">
        <ele>5.4</ele>
        <time>2021-05-19T08:05:56Z</time>
      </trkpt>
      <trkpt lat="42.0019370" lon="-8.8766290">
        <ele>5.4</ele>
        <time>2021-05-19T08:05:57Z</time>
      </trkpt>
      <trkpt lat="42.0019380" lon="-8.8766230">
        <ele>5.4</ele>
        <time>2021-05-19T08:05:58Z</time>
      </trkpt>
      <trkpt lat="42.0019380" lon="-8.8766240">
        <ele>5.4</ele>
        <time>2021-05-19T08:05:59Z</time>
      </trkpt>
      <trkpt lat="42.0019380" lon="-8.8766270">
        <ele>5.4</ele>
        <time>2021-05-19T08:06:00Z</time>
      </trkpt>
      <trkpt lat="42.0019370" lon="-8.8766230">
        <ele>5.4</ele>
        <time>2021-05-19T08:06:01Z</time>
      </trkpt>
      <trkpt lat="42.0019370" lon="-8.8766230">
        <ele>5.4</ele>
        <time>2021-05-19T08:06:02Z</time>
      </trkpt>
      <trkpt lat="42.0019370" lon="-8.8766230">
        <ele>5.4</ele>
        <time>2021-05-19T08:06:03Z</time>
      </trkpt>
      <trkpt lat="42.0019320" lon="-8.8766030">
        <ele>5.4</ele>
        <time>2021-05-19T08:06:04Z</time>
      </trkpt>
      <trkpt lat="42.0019320" lon="-8.8766030">
        <ele>5.4</ele>
        <time>2021-05-19T08:06:05Z</time>
      </trkpt>
      <trkpt lat="42.0019320" lon="-8.8766030">
        <ele>5.4</ele>
        <time>2021-05-19T08:06:06Z</time>
      </trkpt>
      <trkpt lat="42.0019320" lon="-8.8766030">
        <ele>5.4</ele>
        <time>2021-05-19T08:06:07Z</time>
      </trkpt>
      <trkpt lat="42.0019320" lon="-8.8766030">
        <ele>5.4</ele>
        <time>2021-05-19T08:06:08Z</time>
      </trkpt>
      <trkpt lat="42.0019320" lon="-8.8766030">
        <ele>5.4</ele>
        <time>2021-05-19T08:06:09Z</time>
      </trkpt>
      <trkpt lat="42.0019320" lon="-8.8765980">
        <ele>5.4</ele>
        <time>2021-05-19T08:06:10Z</time>
      </trkpt>
      <trkpt lat="42.0019270" lon="-8.8765950">
        <ele>5.4</ele>
        <time>2021-05-19T08:06:11Z</time>
      </trkpt>
      <trkpt lat="42.0019270" lon="-8.8765950">
        <ele>5.4</ele>
        <time>2021-05-19T08:06:12Z</time>
      </trkpt>
      <trkpt lat="42.0019270" lon="-8.8765950">
        <ele>5.4</ele>
        <time>2021-05-19T08:06:13Z</time>
      </trkpt>
      <trkpt lat="42.0019240" lon="-8.8766000">
        <ele>5.4</ele>
        <time>2021-05-19T08:06:14Z</time>
      </trkpt>
      <trkpt lat="42.0019210" lon="-8.8766040">
        <ele>5.4</ele>
        <time>2021-05-19T08:06:15Z</time>
      </trkpt>
      <trkpt lat="42.0019210" lon="-8.8766040">
        <ele>5.4</ele>
        <time>2021-05-19T08:06:16Z</time>
      </trkpt>
      <trkpt lat="42.0019210" lon="-8.8766040">
        <ele>5.4</ele>
        <time>2021-05-19T08:06:17Z</time>
      </trkpt>
      <trkpt lat="42.0019210" lon="-8.8766040">
        <ele>5.4</ele>
        <time>2021-05-19T08:06:18Z</time>
      </trkpt>
      <trkpt lat="42.0019210" lon="-8.8766040">
        <ele>5.4</ele>
        <time>2021-05-19T08:06:19Z</time>
      </trkpt>
      <trkpt lat="42.0019310" lon="-8.8766210">
        <ele>5.4</ele>
        <time>2021-05-19T08:06:20Z</time>
      </trkpt>
      <trkpt lat="42.0019310" lon="-8.8766200">
        <ele>5.4</ele>
        <time>2021-05-19T08:06:21Z</time>
      </trkpt>
      <trkpt lat="42.0019310" lon="-8.8766200">
        <ele>5.4</ele>
        <time>2021-05-19T08:06:22Z</time>
      </trkpt>
      <trkpt lat="42.0019310" lon="-8.8766200">
        <ele>5.4</ele>
        <time>2021-05-19T08:06:23Z</time>
      </trkpt>
      <trkpt lat="42.0019310" lon="-8.8766200">
        <ele>5.4</ele>
        <time>2021-05-19T08:06:24Z</time>
      </trkpt>
      <trkpt lat="42.0019310" lon="-8.8766200">
        <ele>5.4</ele>
        <time>2021-05-19T08:06:25Z</time>
      </trkpt>
      <trkpt lat="42.0019310" lon="-8.8766200">
        <ele>5.4</ele>
        <time>2021-05-19T08:06:26Z</time>
      </trkpt>
      <trkpt lat="42.0019310" lon="-8.8766200">
        <ele>5.4</ele>
        <time>2021-05-19T08:06:27Z</time>
      </trkpt>
      <trkpt lat="42.0019310" lon="-8.8766200">
        <ele>5.4</ele>
        <time>2021-05-19T08:06:28Z</time>
      </trkpt>
      <trkpt lat="42.0019310" lon="-8.8766200">
        <ele>5.4</ele>
        <time>2021-05-19T08:06:29Z</time>
      </trkpt>
      <trkpt lat="42.0019310" lon="-8.8766200">
        <ele>5.4</ele>
        <time>2021-05-19T08:06:30Z</time>
      </trkpt>
      <trkpt lat="42.0019310" lon="-8.8766200">
        <ele>5.4</ele>
        <time>2021-05-19T08:06:31Z</time>
      </trkpt>
      <trkpt lat="42.0019310" lon="-8.8766200">
        <ele>5.4</ele>
        <time>2021-05-19T08:06:32Z</time>
      </trkpt>
      <trkpt lat="42.0019310" lon="-8.8766200">
        <ele>5.4</ele>
        <time>2021-05-19T08:06:33Z</time>
      </trkpt>
      <trkpt lat="42.0019310" lon="-8.8766200">
        <ele>5.4</ele>
        <time>2021-05-19T08:06:34Z</time>
      </trkpt>
      <trkpt lat="42.0019310" lon="-8.8766200">
        <ele>5.4</ele>
        <time>2021-05-19T08:06:35Z</time>
      </trkpt>
      <trkpt lat="42.0019310" lon="-8.8766200">
        <ele>5.4</ele>
        <time>2021-05-19T08:06:36Z</time>
      </trkpt>
      <trkpt lat="42.0019310" lon="-8.8766200">
        <ele>5.4</ele>
        <time>2021-05-19T08:06:37Z</time>
      </trkpt>
      <trkpt lat="42.0019310" lon="-8.8766200">
        <ele>5.4</ele>
        <time>2021-05-19T08:06:38Z</time>
      </trkpt>
      <trkpt lat="42.0019310" lon="-8.8766200">
        <ele>5.4</ele>
        <time>2021-05-19T08:06:39Z</time>
      </trkpt>
      <trkpt lat="42.0019310" lon="-8.8766200">
        <ele>5.4</ele>
        <time>2021-05-19T08:06:40Z</time>
      </trkpt>
      <trkpt lat="42.0019310" lon="-8.8766200">
        <ele>5.4</ele>
        <time>2021-05-19T08:06:41Z</time>
      </trkpt>
      <trkpt lat="42.0019310" lon="-8.8766200">
        <ele>5.4</ele>
        <time>2021-05-19T08:06:42Z</time>
      </trkpt>
      <trkpt lat="42.0019310" lon="-8.8766200">
        <ele>5.4</ele>
        <time>2021-05-19T08:06:43Z</time>
      </trkpt>
      <trkpt lat="42.0019310" lon="-8.8766200">
        <ele>5.4</ele>
        <time>2021-05-19T08:06:44Z</time>
      </trkpt>
      <trkpt lat="42.0019240" lon="-8.8766330">
        <ele>5.3</ele>
        <time>2021-05-19T08:06:45Z</time>
      </trkpt>
      <trkpt lat="42.0019240" lon="-8.8766320">
        <ele>5.3</ele>
        <time>2021-05-19T08:06:46Z</time>
      </trkpt>
      <trkpt lat="42.0019250" lon="-8.8766350">
        <ele>5.3</ele>
        <time>2021-05-19T08:06:47Z</time>
      </trkpt>
      <trkpt lat="42.0019300" lon="-8.8766310">
        <ele>5.3</ele>
        <time>2021-05-19T08:06:48Z</time>
      </trkpt>
      <trkpt lat="42.0019310" lon="-8.8766380">
        <ele>5.3</ele>
        <time>2021-05-19T08:06:49Z</time>
      </trkpt>
      <trkpt lat="42.0019290" lon="-8.8766320">
        <ele>5.3</ele>
        <time>2021-05-19T08:06:50Z</time>
      </trkpt>
      <trkpt lat="42.0019280" lon="-8.8766350">
        <ele>5.3</ele>
        <time>2021-05-19T08:06:51Z</time>
      </trkpt>
      <trkpt lat="42.0019330" lon="-8.8766380">
        <ele>5.3</ele>
        <time>2021-05-19T08:06:52Z</time>
      </trkpt>
      <trkpt lat="42.0019320" lon="-8.8766320">
        <ele>5.3</ele>
        <time>2021-05-19T08:06:53Z</time>
      </trkpt>
      <trkpt lat="42.0019320" lon="-8.8766360">
        <ele>5.3</ele>
        <time>2021-05-19T08:06:54Z</time>
      </trkpt>
      <trkpt lat="42.0019320" lon="-8.8766360">
        <ele>5.3</ele>
        <time>2021-05-19T08:06:55Z</time>
      </trkpt>
      <trkpt lat="42.0019320" lon="-8.8766360">
        <ele>5.3</ele>
        <time>2021-05-19T08:06:56Z</time>
      </trkpt>
      <trkpt lat="42.0019340" lon="-8.8766390">
        <ele>5.3</ele>
        <time>2021-05-19T08:06:57Z</time>
      </trkpt>
      <trkpt lat="42.0019340" lon="-8.8766430">
        <ele>5.3</ele>
        <time>2021-05-19T08:06:58Z</time>
      </trkpt>
      <trkpt lat="42.0019340" lon="-8.8766420">
        <ele>5.3</ele>
        <time>2021-05-19T08:06:59Z</time>
      </trkpt>
      <trkpt lat="42.0019340" lon="-8.8766420">
        <ele>5.3</ele>
        <time>2021-05-19T08:07:00Z</time>
      </trkpt>
      <trkpt lat="42.0019350" lon="-8.8766460">
        <ele>5.3</ele>
        <time>2021-05-19T08:07:01Z</time>
      </trkpt>
      <trkpt lat="42.0019360" lon="-8.8766460">
        <ele>5.3</ele>
        <time>2021-05-19T08:07:02Z</time>
      </trkpt>
      <trkpt lat="42.0019370" lon="-8.8766470">
        <ele>5.3</ele>
        <time>2021-05-19T08:07:03Z</time>
      </trkpt>
      <trkpt lat="42.0019360" lon="-8.8766490">
        <ele>5.3</ele>
        <time>2021-05-19T08:07:04Z</time>
      </trkpt>
      <trkpt lat="42.0019370" lon="-8.8766520">
        <ele>5.3</ele>
        <time>2021-05-19T08:07:05Z</time>
      </trkpt>
      <trkpt lat="42.0019370" lon="-8.8766570">
        <ele>5.3</ele>
        <time>2021-05-19T08:07:06Z</time>
      </trkpt>
      <trkpt lat="42.0019370" lon="-8.8766570">
        <ele>5.3</ele>
        <time>2021-05-19T08:07:07Z</time>
      </trkpt>
      <trkpt lat="42.0019360" lon="-8.8766560">
        <ele>5.3</ele>
        <time>2021-05-19T08:07:08Z</time>
      </trkpt>
      <trkpt lat="42.0019360" lon="-8.8766570">
        <ele>5.3</ele>
        <time>2021-05-19T08:07:09Z</time>
      </trkpt>
      <trkpt lat="42.0019340" lon="-8.8766550">
        <ele>5.3</ele>
        <time>2021-05-19T08:07:10Z</time>
      </trkpt>
      <trkpt lat="42.0019320" lon="-8.8766500">
        <ele>5.3</ele>
        <time>2021-05-19T08:07:11Z</time>
      </trkpt>
      <trkpt lat="42.0019290" lon="-8.8766470">
        <ele>5.3</ele>
        <time>2021-05-19T08:07:12Z</time>
      </trkpt>
      <trkpt lat="42.0019280" lon="-8.8766520">
        <ele>5.3</ele>
        <time>2021-05-19T08:07:13Z</time>
      </trkpt>
      <trkpt lat="42.0019270" lon="-8.8766540">
        <ele>5.3</ele>
        <time>2021-05-19T08:07:14Z</time>
      </trkpt>
      <trkpt lat="42.0019250" lon="-8.8766540">
        <ele>5.3</ele>
        <time>2021-05-19T08:07:15Z</time>
      </trkpt>
      <trkpt lat="42.0019240" lon="-8.8766520">
        <ele>5.3</ele>
        <time>2021-05-19T08:07:16Z</time>
      </trkpt>
      <trkpt lat="42.0019220" lon="-8.8766500">
        <ele>5.3</ele>
        <time>2021-05-19T08:07:17Z</time>
      </trkpt>
      <trkpt lat="42.0019220" lon="-8.8766500">
        <ele>5.3</ele>
        <time>2021-05-19T08:07:18Z</time>
      </trkpt>
      <trkpt lat="42.0019190" lon="-8.8766510">
        <ele>5.2</ele>
        <time>2021-05-19T08:07:19Z</time>
      </trkpt>
      <trkpt lat="42.0019170" lon="-8.8766480">
        <ele>5.2</ele>
        <time>2021-05-19T08:07:20Z</time>
      </trkpt>
      <trkpt lat="42.0019150" lon="-8.8766460">
        <ele>5.2</ele>
        <time>2021-05-19T08:07:21Z</time>
      </trkpt>
      <trkpt lat="42.0019120" lon="-8.8766430">
        <ele>5.2</ele>
        <time>2021-05-19T08:07:22Z</time>
      </trkpt>
      <trkpt lat="42.0019110" lon="-8.8766430">
        <ele>5.2</ele>
        <time>2021-05-19T08:07:23Z</time>
      </trkpt>
      <trkpt lat="42.0019090" lon="-8.8766450">
        <ele>5.2</ele>
        <time>2021-05-19T08:07:24Z</time>
      </trkpt>
      <trkpt lat="42.0019070" lon="-8.8766470">
        <ele>5.2</ele>
        <time>2021-05-19T08:07:25Z</time>
      </trkpt>
      <trkpt lat="42.0019060" lon="-8.8766500">
        <ele>5.2</ele>
        <time>2021-05-19T08:07:26Z</time>
      </trkpt>
      <trkpt lat="42.0019060" lon="-8.8766500">
        <ele>5.2</ele>
        <time>2021-05-19T08:07:27Z</time>
      </trkpt>
      <trkpt lat="42.0019060" lon="-8.8766500">
        <ele>5.2</ele>
        <time>2021-05-19T08:07:28Z</time>
      </trkpt>
      <trkpt lat="42.0019020" lon="-8.8766530">
        <ele>5.2</ele>
        <time>2021-05-19T08:07:29Z</time>
      </trkpt>
      <trkpt lat="42.0019020" lon="-8.8766530">
        <ele>5.2</ele>
        <time>2021-05-19T08:07:30Z</time>
      </trkpt>
      <trkpt lat="42.0019020" lon="-8.8766530">
        <ele>5.2</ele>
        <time>2021-05-19T08:07:31Z</time>
      </trkpt>
      <trkpt lat="42.0018990" lon="-8.8766550">
        <ele>5.2</ele>
        <time>2021-05-19T08:07:32Z</time>
      </trkpt>
      <trkpt lat="42.0018990" lon="-8.8766550">
        <ele>5.2</ele>
        <time>2021-05-19T08:07:33Z</time>
      </trkpt>
      <trkpt lat="42.0018960" lon="-8.8766630">
        <ele>5.2</ele>
        <time>2021-05-19T08:07:34Z</time>
      </trkpt>
      <trkpt lat="42.0018960" lon="-8.8766610">
        <ele>5.2</ele>
        <time>2021-05-19T08:07:35Z</time>
      </trkpt>
      <trkpt lat="42.0019010" lon="-8.8766620">
        <ele>5.2</ele>
        <time>2021-05-19T08:07:36Z</time>
      </trkpt>
      <trkpt lat="42.0019060" lon="-8.8766640">
        <ele>5.2</ele>
        <time>2021-05-19T08:07:37Z</time>
      </trkpt>
      <trkpt lat="42.0019070" lon="-8.8766620">
        <ele>5.2</ele>
        <time>2021-05-19T08:07:38Z</time>
      </trkpt>
      <trkpt lat="42.0019100" lon="-8.8766620">
        <ele>5.2</ele>
        <time>2021-05-19T08:07:39Z</time>
      </trkpt>
      <trkpt lat="42.0019130" lon="-8.8766670">
        <ele>5.2</ele>
        <time>2021-05-19T08:07:40Z</time>
      </trkpt>
      <trkpt lat="42.0019150" lon="-8.8766700">
        <ele>5.2</ele>
        <time>2021-05-19T08:07:41Z</time>
      </trkpt>
      <trkpt lat="42.0019160" lon="-8.8766710">
        <ele>5.2</ele>
        <time>2021-05-19T08:07:42Z</time>
      </trkpt>
      <trkpt lat="42.0019160" lon="-8.8766680">
        <ele>5.2</ele>
        <time>2021-05-19T08:07:43Z</time>
      </trkpt>
      <trkpt lat="42.0019150" lon="-8.8766660">
        <ele>5.2</ele>
        <time>2021-05-19T08:07:44Z</time>
      </trkpt>
      <trkpt lat="42.0019140" lon="-8.8766660">
        <ele>5.2</ele>
        <time>2021-05-19T08:07:45Z</time>
      </trkpt>
      <trkpt lat="42.0019130" lon="-8.8766650">
        <ele>5.2</ele>
        <time>2021-05-19T08:07:46Z</time>
      </trkpt>
      <trkpt lat="42.0019140" lon="-8.8766640">
        <ele>5.2</ele>
        <time>2021-05-19T08:07:47Z</time>
      </trkpt>
      <trkpt lat="42.0019130" lon="-8.8766620">
        <ele>5.2</ele>
        <time>2021-05-19T08:07:48Z</time>
      </trkpt>
      <trkpt lat="42.0019140" lon="-8.8766600">
        <ele>5.2</ele>
        <time>2021-05-19T08:07:49Z</time>
      </trkpt>
      <trkpt lat="42.0019140" lon="-8.8766600">
        <ele>5.2</ele>
        <time>2021-05-19T08:07:50Z</time>
      </trkpt>
      <trkpt lat="42.0019150" lon="-8.8766560">
        <ele>5.2</ele>
        <time>2021-05-19T08:07:51Z</time>
      </trkpt>
      <trkpt lat="42.0019160" lon="-8.8766550">
        <ele>5.2</ele>
        <time>2021-05-19T08:07:52Z</time>
      </trkpt>
      <trkpt lat="42.0019160" lon="-8.8766550">
        <ele>5.2</ele>
        <time>2021-05-19T08:07:53Z</time>
      </trkpt>
      <trkpt lat="42.0019200" lon="-8.8766560">
        <ele>5.2</ele>
        <time>2021-05-19T08:07:54Z</time>
      </trkpt>
      <trkpt lat="42.0019210" lon="-8.8766560">
        <ele>5.2</ele>
        <time>2021-05-19T08:07:55Z</time>
      </trkpt>
      <trkpt lat="42.0019220" lon="-8.8766550">
        <ele>5.2</ele>
        <time>2021-05-19T08:07:56Z</time>
      </trkpt>
      <trkpt lat="42.0019260" lon="-8.8766540">
        <ele>5.2</ele>
        <time>2021-05-19T08:07:57Z</time>
      </trkpt>
      <trkpt lat="42.0019270" lon="-8.8766540">
        <ele>5.2</ele>
        <time>2021-05-19T08:07:58Z</time>
      </trkpt>
      <trkpt lat="42.0019280" lon="-8.8766530">
        <ele>5.2</ele>
        <time>2021-05-19T08:07:59Z</time>
      </trkpt>
      <trkpt lat="42.0019290" lon="-8.8766520">
        <ele>5.2</ele>
        <time>2021-05-19T08:08:00Z</time>
      </trkpt>
      <trkpt lat="42.0019330" lon="-8.8766520">
        <ele>5.2</ele>
        <time>2021-05-19T08:08:01Z</time>
      </trkpt>
      <trkpt lat="42.0019360" lon="-8.8766520">
        <ele>5.2</ele>
        <time>2021-05-19T08:08:02Z</time>
      </trkpt>
      <trkpt lat="42.0019370" lon="-8.8766520">
        <ele>5.2</ele>
        <time>2021-05-19T08:08:03Z</time>
      </trkpt>
      <trkpt lat="42.0019400" lon="-8.8766520">
        <ele>5.2</ele>
        <time>2021-05-19T08:08:04Z</time>
      </trkpt>
      <trkpt lat="42.0019440" lon="-8.8766540">
        <ele>5.2</ele>
        <time>2021-05-19T08:08:05Z</time>
      </trkpt>
      <trkpt lat="42.0019460" lon="-8.8766540">
        <ele>5.2</ele>
        <time>2021-05-19T08:08:06Z</time>
      </trkpt>
      <trkpt lat="42.0019480" lon="-8.8766520">
        <ele>5.2</ele>
        <time>2021-05-19T08:08:07Z</time>
      </trkpt>
      <trkpt lat="42.0019490" lon="-8.8766530">
        <ele>5.2</ele>
        <time>2021-05-19T08:08:08Z</time>
      </trkpt>
      <trkpt lat="42.0019500" lon="-8.8766550">
        <ele>5.2</ele>
        <time>2021-05-19T08:08:09Z</time>
      </trkpt>
      <trkpt lat="42.0019500" lon="-8.8766540">
        <ele>5.2</ele>
        <time>2021-05-19T08:08:10Z</time>
      </trkpt>
      <trkpt lat="42.0019500" lon="-8.8766540">
        <ele>5.2</ele>
        <time>2021-05-19T08:08:11Z</time>
      </trkpt>
      <trkpt lat="42.0019520" lon="-8.8766560">
        <ele>5.2</ele>
        <time>2021-05-19T08:08:12Z</time>
      </trkpt>
      <trkpt lat="42.0019520" lon="-8.8766580">
        <ele>5.2</ele>
        <time>2021-05-19T08:08:13Z</time>
      </trkpt>
      <trkpt lat="42.0019500" lon="-8.8766580">
        <ele>5.2</ele>
        <time>2021-05-19T08:08:14Z</time>
      </trkpt>
      <trkpt lat="42.0019500" lon="-8.8766580">
        <ele>5.2</ele>
        <time>2021-05-19T08:08:15Z</time>
      </trkpt>
      <trkpt lat="42.0019500" lon="-8.8766580">
        <ele>5.2</ele>
        <time>2021-05-19T08:08:16Z</time>
      </trkpt>
      <trkpt lat="42.0019500" lon="-8.8766580">
        <ele>5.2</ele>
        <time>2021-05-19T08:08:17Z</time>
      </trkpt>
      <trkpt lat="42.0019500" lon="-8.8766580">
        <ele>5.2</ele>
        <time>2021-05-19T08:08:18Z</time>
      </trkpt>
      <trkpt lat="42.0019500" lon="-8.8766580">
        <ele>5.2</ele>
        <time>2021-05-19T08:08:19Z</time>
      </trkpt>
      <trkpt lat="42.0019500" lon="-8.8766580">
        <ele>5.2</ele>
        <time>2021-05-19T08:08:20Z</time>
      </trkpt>
      <trkpt lat="42.0019500" lon="-8.8766580">
        <ele>5.2</ele>
        <time>2021-05-19T08:08:21Z</time>
      </trkpt>
      <trkpt lat="42.0019500" lon="-8.8766580">
        <ele>5.2</ele>
        <time>2021-05-19T08:08:22Z</time>
      </trkpt>
      <trkpt lat="42.0019500" lon="-8.8766580">
        <ele>5.2</ele>
        <time>2021-05-19T08:08:23Z</time>
      </trkpt>
      <trkpt lat="42.0019500" lon="-8.8766580">
        <ele>5.2</ele>
        <time>2021-05-19T08:08:24Z</time>
      </trkpt>
      <trkpt lat="42.0019500" lon="-8.8766580">
        <ele>5.2</ele>
        <time>2021-05-19T08:08:25Z</time>
      </trkpt>
      <trkpt lat="42.0019500" lon="-8.8766580">
        <ele>5.2</ele>
        <time>2021-05-19T08:08:26Z</time>
      </trkpt>
      <trkpt lat="42.0019500" lon="-8.8766580">
        <ele>5.2</ele>
        <time>2021-05-19T08:08:27Z</time>
      </trkpt>
      <trkpt lat="42.0019500" lon="-8.8766580">
        <ele>5.2</ele>
        <time>2021-05-19T08:08:28Z</time>
      </trkpt>
      <trkpt lat="42.0019500" lon="-8.8766580">
        <ele>5.2</ele>
        <time>2021-05-19T08:08:29Z</time>
      </trkpt>
      <trkpt lat="42.0019500" lon="-8.8766580">
        <ele>5.2</ele>
        <time>2021-05-19T08:08:30Z</time>
      </trkpt>
      <trkpt lat="42.0019500" lon="-8.8766580">
        <ele>5.2</ele>
        <time>2021-05-19T08:08:31Z</time>
      </trkpt>
      <trkpt lat="42.0019500" lon="-8.8766580">
        <ele>5.2</ele>
        <time>2021-05-19T08:08:32Z</time>
      </trkpt>
      <trkpt lat="42.0019500" lon="-8.8766580">
        <ele>5.2</ele>
        <time>2021-05-19T08:08:33Z</time>
      </trkpt>
      <trkpt lat="42.0019500" lon="-8.8766580">
        <ele>5.2</ele>
        <time>2021-05-19T08:08:34Z</time>
      </trkpt>
      <trkpt lat="42.0019500" lon="-8.8766580">
        <ele>5.2</ele>
        <time>2021-05-19T08:08:35Z</time>
      </trkpt>
      <trkpt lat="42.0019500" lon="-8.8766580">
        <ele>5.2</ele>
        <time>2021-05-19T08:08:36Z</time>
      </trkpt>
      <trkpt lat="42.0019500" lon="-8.8766580">
        <ele>5.2</ele>
        <time>2021-05-19T08:08:37Z</time>
      </trkpt>
      <trkpt lat="42.0019500" lon="-8.8766580">
        <ele>5.2</ele>
        <time>2021-05-19T08:08:38Z</time>
      </trkpt>
      <trkpt lat="42.0019500" lon="-8.8766580">
        <ele>5.2</ele>
        <time>2021-05-19T08:08:39Z</time>
      </trkpt>
      <trkpt lat="42.0019500" lon="-8.8766580">
        <ele>5.2</ele>
        <time>2021-05-19T08:08:40Z</time>
      </trkpt>
      <trkpt lat="42.0019500" lon="-8.8766580">
        <ele>5.2</ele>
        <time>2021-05-19T08:08:41Z</time>
      </trkpt>
      <trkpt lat="42.0019500" lon="-8.8766580">
        <ele>5.2</ele>
        <time>2021-05-19T08:08:42Z</time>
      </trkpt>
      <trkpt lat="42.0019500" lon="-8.8766580">
        <ele>5.2</ele>
        <time>2021-05-19T08:08:43Z</time>
      </trkpt>
      <trkpt lat="42.0019500" lon="-8.8766580">
        <ele>5.2</ele>
        <time>2021-05-19T08:08:44Z</time>
      </trkpt>
      <trkpt lat="42.0019500" lon="-8.8766580">
        <ele>5.2</ele>
        <time>2021-05-19T08:08:45Z</time>
      </trkpt>
      <trkpt lat="42.0019500" lon="-8.8766580">
        <ele>5.2</ele>
        <time>2021-05-19T08:08:46Z</time>
      </trkpt>
      <trkpt lat="42.0019500" lon="-8.8766580">
        <ele>5.2</ele>
        <time>2021-05-19T08:08:47Z</time>
      </trkpt>
      <trkpt lat="42.0019500" lon="-8.8766580">
        <ele>5.2</ele>
        <time>2021-05-19T08:08:48Z</time>
      </trkpt>
      <trkpt lat="42.0019500" lon="-8.8766580">
        <ele>5.2</ele>
        <time>2021-05-19T08:08:49Z</time>
      </trkpt>
      <trkpt lat="42.0019500" lon="-8.8766580">
        <ele>5.2</ele>
        <time>2021-05-19T08:08:50Z</time>
      </trkpt>
      <trkpt lat="42.0019500" lon="-8.8766580">
        <ele>5.2</ele>
        <time>2021-05-19T08:08:51Z</time>
      </trkpt>
      <trkpt lat="42.0019500" lon="-8.8766580">
        <ele>5.2</ele>
        <time>2021-05-19T08:08:52Z</time>
      </trkpt>
      <trkpt lat="42.0019500" lon="-8.8766580">
        <ele>5.2</ele>
        <time>2021-05-19T08:08:53Z</time>
      </trkpt>
      <trkpt lat="42.0019500" lon="-8.8766580">
        <ele>5.2</ele>
        <time>2021-05-19T08:08:54Z</time>
      </trkpt>
      <trkpt lat="42.0019500" lon="-8.8766580">
        <ele>5.2</ele>
        <time>2021-05-19T08:08:55Z</time>
      </trkpt>
      <trkpt lat="42.0019500" lon="-8.8766580">
        <ele>5.2</ele>
        <time>2021-05-19T08:08:56Z</time>
      </trkpt>
      <trkpt lat="42.0019500" lon="-8.8766580">
        <ele>5.2</ele>
        <time>2021-05-19T08:08:57Z</time>
      </trkpt>
      <trkpt lat="42.0019500" lon="-8.8766580">
        <ele>5.2</ele>
        <time>2021-05-19T08:08:58Z</time>
      </trkpt>
      <trkpt lat="42.0019500" lon="-8.8766580">
        <ele>5.2</ele>
        <time>2021-05-19T08:08:59Z</time>
      </trkpt>
      <trkpt lat="42.0019500" lon="-8.8766580">
        <ele>5.2</ele>
        <time>2021-05-19T08:09:00Z</time>
      </trkpt>
      <trkpt lat="42.0019500" lon="-8.8766580">
        <ele>5.2</ele>
        <time>2021-05-19T08:09:01Z</time>
      </trkpt>
      <trkpt lat="42.0019500" lon="-8.8766580">
        <ele>5.2</ele>
        <time>2021-05-19T08:09:02Z</time>
      </trkpt>
      <trkpt lat="42.0019500" lon="-8.8766580">
        <ele>5.2</ele>
        <time>2021-05-19T08:09:03Z</time>
      </trkpt>
      <trkpt lat="42.0019500" lon="-8.8766580">
        <ele>5.2</ele>
        <time>2021-05-19T08:09:04Z</time>
      </trkpt>
      <trkpt lat="42.0019500" lon="-8.8766580">
        <ele>5.2</ele>
        <time>2021-05-19T08:09:05Z</time>
      </trkpt>
      <trkpt lat="42.0019500" lon="-8.8766580">
        <ele>5.2</ele>
        <time>2021-05-19T08:09:06Z</time>
      </trkpt>
      <trkpt lat="42.0019500" lon="-8.8766580">
        <ele>5.2</ele>
        <time>2021-05-19T08:09:07Z</time>
      </trkpt>
      <trkpt lat="42.0019500" lon="-8.8766580">
        <ele>5.2</ele>
        <time>2021-05-19T08:09:08Z</time>
      </trkpt>
      <trkpt lat="42.0019500" lon="-8.8766580">
        <ele>5.2</ele>
        <time>2021-05-19T08:09:09Z</time>
      </trkpt>
      <trkpt lat="42.0019500" lon="-8.8766580">
        <ele>5.2</ele>
        <time>2021-05-19T08:09:10Z</time>
      </trkpt>
      <trkpt lat="42.0019500" lon="-8.8766580">
        <ele>5.2</ele>
        <time>2021-05-19T08:09:11Z</time>
      </trkpt>
      <trkpt lat="42.0019500" lon="-8.8766580">
        <ele>5.2</ele>
        <time>2021-05-19T08:09:12Z</time>
      </trkpt>
      <trkpt lat="42.0019500" lon="-8.8766580">
        <ele>5.2</ele>
        <time>2021-05-19T08:09:13Z</time>
      </trkpt>
      <trkpt lat="42.0019500" lon="-8.8766580">
        <ele>5.2</ele>
        <time>2021-05-19T08:09:14Z</time>
      </trkpt>
      <trkpt lat="42.0019500" lon="-8.8766580">
        <ele>5.2</ele>
        <time>2021-05-19T08:09:15Z</time>
      </trkpt>
      <trkpt lat="42.0019500" lon="-8.8766580">
        <ele>5.2</ele>
        <time>2021-05-19T08:09:16Z</time>
      </trkpt>
      <trkpt lat="42.0019500" lon="-8.8766580">
        <ele>5.2</ele>
        <time>2021-05-19T08:09:17Z</time>
      </trkpt>
      <trkpt lat="42.0019500" lon="-8.8766580">
        <ele>5.2</ele>
        <time>2021-05-19T08:09:18Z</time>
      </trkpt>
      <trkpt lat="42.0019500" lon="-8.8766580">
        <ele>5.2</ele>
        <time>2021-05-19T08:09:19Z</time>
      </trkpt>
      <trkpt lat="42.0019500" lon="-8.8766580">
        <ele>5.2</ele>
        <time>2021-05-19T08:09:20Z</time>
      </trkpt>
      <trkpt lat="42.0019500" lon="-8.8766580">
        <ele>5.2</ele>
        <time>2021-05-19T08:09:21Z</time>
      </trkpt>
      <trkpt lat="42.0019500" lon="-8.8766580">
        <ele>5.2</ele>
        <time>2021-05-19T08:09:22Z</time>
      </trkpt>
      <trkpt lat="42.0019500" lon="-8.8766580">
        <ele>5.2</ele>
        <time>2021-05-19T08:09:23Z</time>
      </trkpt>
      <trkpt lat="42.0019500" lon="-8.8766580">
        <ele>5.2</ele>
        <time>2021-05-19T08:09:24Z</time>
      </trkpt>
      <trkpt lat="42.0019500" lon="-8.8766580">
        <ele>5.2</ele>
        <time>2021-05-19T08:09:25Z</time>
      </trkpt>
      <trkpt lat="42.0019500" lon="-8.8766580">
        <ele>5.2</ele>
        <time>2021-05-19T08:09:26Z</time>
      </trkpt>
      <trkpt lat="42.0019500" lon="-8.8766580">
        <ele>5.2</ele>
        <time>2021-05-19T08:09:27Z</time>
      </trkpt>
      <trkpt lat="42.0019500" lon="-8.8766580">
        <ele>5.2</ele>
        <time>2021-05-19T08:09:28Z</time>
      </trkpt>
      <trkpt lat="42.0019500" lon="-8.8766580">
        <ele>5.2</ele>
        <time>2021-05-19T08:09:29Z</time>
      </trkpt>
      <trkpt lat="42.0019500" lon="-8.8766580">
        <ele>5.2</ele>
        <time>2021-05-19T08:09:30Z</time>
      </trkpt>
      <trkpt lat="42.0019500" lon="-8.8766580">
        <ele>5.2</ele>
        <time>2021-05-19T08:09:31Z</time>
      </trkpt>
      <trkpt lat="42.0019500" lon="-8.8766580">
        <ele>5.2</ele>
        <time>2021-05-19T08:09:32Z</time>
      </trkpt>
      <trkpt lat="42.0019500" lon="-8.8766580">
        <ele>5.2</ele>
        <time>2021-05-19T08:09:33Z</time>
      </trkpt>
      <trkpt lat="42.0019500" lon="-8.8766580">
        <ele>5.2</ele>
        <time>2021-05-19T08:09:34Z</time>
      </trkpt>
      <trkpt lat="42.0019500" lon="-8.8766580">
        <ele>5.2</ele>
        <time>2021-05-19T08:09:35Z</time>
      </trkpt>
      <trkpt lat="42.0019500" lon="-8.8766580">
        <ele>5.2</ele>
        <time>2021-05-19T08:09:36Z</time>
      </trkpt>
      <trkpt lat="42.0019500" lon="-8.8766580">
        <ele>5.2</ele>
        <time>2021-05-19T08:09:37Z</time>
      </trkpt>
      <trkpt lat="42.0019500" lon="-8.8766580">
        <ele>5.2</ele>
        <time>2021-05-19T08:09:38Z</time>
      </trkpt>
      <trkpt lat="42.0019500" lon="-8.8766580">
        <ele>5.2</ele>
        <time>2021-05-19T08:09:39Z</time>
      </trkpt>
      <trkpt lat="42.0019500" lon="-8.8766580">
        <ele>5.2</ele>
        <time>2021-05-19T08:09:40Z</time>
      </trkpt>
      <trkpt lat="42.0019500" lon="-8.8766580">
        <ele>5.2</ele>
        <time>2021-05-19T08:09:41Z</time>
      </trkpt>
      <trkpt lat="42.0019500" lon="-8.8766580">
        <ele>5.2</ele>
        <time>2021-05-19T08:09:42Z</time>
      </trkpt>
      <trkpt lat="42.0019500" lon="-8.8766580">
        <ele>5.2</ele>
        <time>2021-05-19T08:09:43Z</time>
      </trkpt>
      <trkpt lat="42.0019500" lon="-8.8766580">
        <ele>5.2</ele>
        <time>2021-05-19T08:09:44Z</time>
      </trkpt>
      <trkpt lat="42.0019500" lon="-8.8766580">
        <ele>5.2</ele>
        <time>2021-05-19T08:09:45Z</time>
      </trkpt>
      <trkpt lat="42.0019500" lon="-8.8766580">
        <ele>5.2</ele>
        <time>2021-05-19T08:09:46Z</time>
      </trkpt>
      <trkpt lat="42.0019500" lon="-8.8766580">
        <ele>5.2</ele>
        <time>2021-05-19T08:09:47Z</time>
      </trkpt>
      <trkpt lat="42.0019500" lon="-8.8766580">
        <ele>5.2</ele>
        <time>2021-05-19T08:09:48Z</time>
      </trkpt>
      <trkpt lat="42.0019500" lon="-8.8766580">
        <ele>5.2</ele>
        <time>2021-05-19T08:09:49Z</time>
      </trkpt>
      <trkpt lat="42.0019500" lon="-8.8766580">
        <ele>5.2</ele>
        <time>2021-05-19T08:09:50Z</time>
      </trkpt>
      <trkpt lat="42.0019500" lon="-8.8766580">
        <ele>5.2</ele>
        <time>2021-05-19T08:09:51Z</time>
      </trkpt>
      <trkpt lat="42.0019500" lon="-8.8766580">
        <ele>5.2</ele>
        <time>2021-05-19T08:09:52Z</time>
      </trkpt>
      <trkpt lat="42.0019500" lon="-8.8766580">
        <ele>5.2</ele>
        <time>2021-05-19T08:09:53Z</time>
      </trkpt>
      <trkpt lat="42.0019500" lon="-8.8766580">
        <ele>5.2</ele>
        <time>2021-05-19T08:09:54Z</time>
      </trkpt>
      <trkpt lat="42.0019500" lon="-8.8766580">
        <ele>5.2</ele>
        <time>2021-05-19T08:09:55Z</time>
      </trkpt>
      <trkpt lat="42.0019500" lon="-8.8766580">
        <ele>5.2</ele>
        <time>2021-05-19T08:09:56Z</time>
      </trkpt>
      <trkpt lat="42.0019500" lon="-8.8766580">
        <ele>5.2</ele>
        <time>2021-05-19T08:09:57Z</time>
      </trkpt>
      <trkpt lat="42.0019500" lon="-8.8766580">
        <ele>5.2</ele>
        <time>2021-05-19T08:09:58Z</time>
      </trkpt>
      <trkpt lat="42.0019500" lon="-8.8766580">
        <ele>5.2</ele>
        <time>2021-05-19T08:09:59Z</time>
      </trkpt>
      <trkpt lat="42.0019500" lon="-8.8766580">
        <ele>5.2</ele>
        <time>2021-05-19T08:10:00Z</time>
      </trkpt>
      <trkpt lat="42.0019500" lon="-8.8766580">
        <ele>5.2</ele>
        <time>2021-05-19T08:10:01Z</time>
      </trkpt>
      <trkpt lat="42.0019500" lon="-8.8766580">
        <ele>5.2</ele>
        <time>2021-05-19T08:10:02Z</time>
      </trkpt>
      <trkpt lat="42.0019500" lon="-8.8766580">
        <ele>5.2</ele>
        <time>2021-05-19T08:10:03Z</time>
      </trkpt>
      <trkpt lat="42.0019500" lon="-8.8766580">
        <ele>5.2</ele>
        <time>2021-05-19T08:10:04Z</time>
      </trkpt>
      <trkpt lat="42.0019500" lon="-8.8766580">
        <ele>5.2</ele>
        <time>2021-05-19T08:10:05Z</time>
      </trkpt>
      <trkpt lat="42.0019500" lon="-8.8766580">
        <ele>5.2</ele>
        <time>2021-05-19T08:10:06Z</time>
      </trkpt>
      <trkpt lat="42.0019500" lon="-8.8766580">
        <ele>5.2</ele>
        <time>2021-05-19T08:10:07Z</time>
      </trkpt>
      <trkpt lat="42.0019500" lon="-8.8766580">
        <ele>5.2</ele>
        <time>2021-05-19T08:10:08Z</time>
      </trkpt>
      <trkpt lat="42.0019500" lon="-8.8766580">
        <ele>5.2</ele>
        <time>2021-05-19T08:10:09Z</time>
      </trkpt>
      <trkpt lat="42.0019500" lon="-8.8766580">
        <ele>5.2</ele>
        <time>2021-05-19T08:10:10Z</time>
      </trkpt>
      <trkpt lat="42.0019500" lon="-8.8766580">
        <ele>5.2</ele>
        <time>2021-05-19T08:10:11Z</time>
      </trkpt>
      <trkpt lat="42.0019500" lon="-8.8766580">
        <ele>5.2</ele>
        <time>2021-05-19T08:10:12Z</time>
      </trkpt>
      <trkpt lat="42.0019500" lon="-8.8766580">
        <ele>5.2</ele>
        <time>2021-05-19T08:10:13Z</time>
      </trkpt>
      <trkpt lat="42.0019500" lon="-8.8766580">
        <ele>5.2</ele>
        <time>2021-05-19T08:10:14Z</time>
      </trkpt>
      <trkpt lat="42.0019500" lon="-8.8766580">
        <ele>5.2</ele>
        <time>2021-05-19T08:10:15Z</time>
      </trkpt>
      <trkpt lat="42.0019500" lon="-8.8766580">
        <ele>5.2</ele>
        <time>2021-05-19T08:10:16Z</time>
      </trkpt>
      <trkpt lat="42.0019500" lon="-8.8766580">
        <ele>5.2</ele>
        <time>2021-05-19T08:10:17Z</time>
      </trkpt>
      <trkpt lat="42.0019500" lon="-8.8766580">
        <ele>5.2</ele>
        <time>2021-05-19T08:10:18Z</time>
      </trkpt>
      <trkpt lat="42.0019500" lon="-8.8766580">
        <ele>5.2</ele>
        <time>2021-05-19T08:10:19Z</time>
      </trkpt>
      <trkpt lat="42.0019500" lon="-8.8766580">
        <ele>5.2</ele>
        <time>2021-05-19T08:10:20Z</time>
      </trkpt>
      <trkpt lat="42.0019500" lon="-8.8766580">
        <ele>5.2</ele>
        <time>2021-05-19T08:10:21Z</time>
      </trkpt>
      <trkpt lat="42.0019500" lon="-8.8766580">
        <ele>5.2</ele>
        <time>2021-05-19T08:10:22Z</time>
      </trkpt>
      <trkpt lat="42.0019500" lon="-8.8766580">
        <ele>5.2</ele>
        <time>2021-05-19T08:10:23Z</time>
      </trkpt>
      <trkpt lat="42.0019500" lon="-8.8766580">
        <ele>5.2</ele>
        <time>2021-05-19T08:10:24Z</time>
      </trkpt>
      <trkpt lat="42.0019500" lon="-8.8766580">
        <ele>5.2</ele>
        <time>2021-05-19T08:10:25Z</time>
      </trkpt>
      <trkpt lat="42.0019500" lon="-8.8766580">
        <ele>5.2</ele>
        <time>2021-05-19T08:10:26Z</time>
      </trkpt>
      <trkpt lat="42.0019500" lon="-8.8766580">
        <ele>5.2</ele>
        <time>2021-05-19T08:10:27Z</time>
      </trkpt>
      <trkpt lat="42.0019500" lon="-8.8766580">
        <ele>5.2</ele>
        <time>2021-05-19T08:10:28Z</time>
      </trkpt>
      <trkpt lat="42.0019500" lon="-8.8766580">
        <ele>5.2</ele>
        <time>2021-05-19T08:10:29Z</time>
      </trkpt>
      <trkpt lat="42.0019500" lon="-8.8766580">
        <ele>5.2</ele>
        <time>2021-05-19T08:10:30Z</time>
      </trkpt>
      <trkpt lat="42.0019500" lon="-8.8766580">
        <ele>5.2</ele>
        <time>2021-05-19T08:10:31Z</time>
      </trkpt>
      <trkpt lat="42.0019500" lon="-8.8766580">
        <ele>5.2</ele>
        <time>2021-05-19T08:10:32Z</time>
      </trkpt>
      <trkpt lat="42.0019500" lon="-8.8766580">
        <ele>5.2</ele>
        <time>2021-05-19T08:10:33Z</time>
      </trkpt>
      <trkpt lat="42.0019500" lon="-8.8766580">
        <ele>5.2</ele>
        <time>2021-05-19T08:10:34Z</time>
      </trkpt>
      <trkpt lat="42.0019500" lon="-8.8766580">
        <ele>5.2</ele>
        <time>2021-05-19T08:10:35Z</time>
      </trkpt>
      <trkpt lat="42.0019500" lon="-8.8766580">
        <ele>5.2</ele>
        <time>2021-05-19T08:10:36Z</time>
      </trkpt>
      <trkpt lat="42.0019500" lon="-8.8766580">
        <ele>5.2</ele>
        <time>2021-05-19T08:10:37Z</time>
      </trkpt>
      <trkpt lat="42.0019500" lon="-8.8766580">
        <ele>5.2</ele>
        <time>2021-05-19T08:10:38Z</time>
      </trkpt>
      <trkpt lat="42.0019500" lon="-8.8766580">
        <ele>5.2</ele>
        <time>2021-05-19T08:10:39Z</time>
      </trkpt>
      <trkpt lat="42.0019500" lon="-8.8766580">
        <ele>5.2</ele>
        <time>2021-05-19T08:10:40Z</time>
      </trkpt>
      <trkpt lat="42.0019500" lon="-8.8766580">
        <ele>5.2</ele>
        <time>2021-05-19T08:10:41Z</time>
      </trkpt>
      <trkpt lat="42.0019500" lon="-8.8766580">
        <ele>5.2</ele>
        <time>2021-05-19T08:10:42Z</time>
      </trkpt>
      <trkpt lat="42.0019500" lon="-8.8766580">
        <ele>5.2</ele>
        <time>2021-05-19T08:10:43Z</time>
      </trkpt>
      <trkpt lat="42.0019500" lon="-8.8766580">
        <ele>5.2</ele>
        <time>2021-05-19T08:10:44Z</time>
      </trkpt>
      <trkpt lat="42.0019500" lon="-8.8766580">
        <ele>5.2</ele>
        <time>2021-05-19T08:10:45Z</time>
      </trkpt>
      <trkpt lat="42.0019500" lon="-8.8766580">
        <ele>5.2</ele>
        <time>2021-05-19T08:10:46Z</time>
      </trkpt>
      <trkpt lat="42.0019500" lon="-8.8766580">
        <ele>5.2</ele>
        <time>2021-05-19T08:10:48Z</time>
      </trkpt>
      <trkpt lat="42.0019500" lon="-8.8766580">
        <ele>5.2</ele>
        <time>2021-05-19T08:10:49Z</time>
      </trkpt>
      <trkpt lat="42.0019500" lon="-8.8766580">
        <ele>5.2</ele>
        <time>2021-05-19T08:10:50Z</time>
      </trkpt>
      <trkpt lat="42.0019500" lon="-8.8766580">
        <ele>5.2</ele>
        <time>2021-05-19T08:10:51Z</time>
      </trkpt>
      <trkpt lat="42.0019500" lon="-8.8766580">
        <ele>5.2</ele>
        <time>2021-05-19T08:10:52Z</time>
      </trkpt>
      <trkpt lat="42.0019500" lon="-8.8766580">
        <ele>5.2</ele>
        <time>2021-05-19T08:10:53Z</time>
      </trkpt>
      <trkpt lat="42.0019500" lon="-8.8766580">
        <ele>5.2</ele>
        <time>2021-05-19T08:10:54Z</time>
      </trkpt>
      <trkpt lat="42.0019500" lon="-8.8766580">
        <ele>5.2</ele>
        <time>2021-05-19T08:10:55Z</time>
      </trkpt>
      <trkpt lat="42.0019500" lon="-8.8766580">
        <ele>5.2</ele>
        <time>2021-05-19T08:10:56Z</time>
      </trkpt>
      <trkpt lat="42.0019500" lon="-8.8766580">
        <ele>5.2</ele>
        <time>2021-05-19T08:10:57Z</time>
      </trkpt>
      <trkpt lat="42.0019500" lon="-8.8766580">
        <ele>5.2</ele>
        <time>2021-05-19T08:10:58Z</time>
      </trkpt>
      <trkpt lat="42.0019500" lon="-8.8766580">
        <ele>5.2</ele>
        <time>2021-05-19T08:10:59Z</time>
      </trkpt>
      <trkpt lat="42.0019500" lon="-8.8766580">
        <ele>5.2</ele>
        <time>2021-05-19T08:11:00Z</time>
      </trkpt>
      <trkpt lat="42.0019500" lon="-8.8766580">
        <ele>5.2</ele>
        <time>2021-05-19T08:11:01Z</time>
      </trkpt>
      <trkpt lat="42.0019500" lon="-8.8766580">
        <ele>5.2</ele>
        <time>2021-05-19T08:11:02Z</time>
      </trkpt>
      <trkpt lat="42.0019500" lon="-8.8766580">
        <ele>5.2</ele>
        <time>2021-05-19T08:11:03Z</time>
      </trkpt>
      <trkpt lat="42.0019500" lon="-8.8766580">
        <ele>5.2</ele>
        <time>2021-05-19T08:11:04Z</time>
      </trkpt>
      <trkpt lat="42.0019500" lon="-8.8766580">
        <ele>5.2</ele>
        <time>2021-05-19T08:11:05Z</time>
      </trkpt>
      <trkpt lat="42.0019500" lon="-8.8766580">
        <ele>5.2</ele>
        <time>2021-05-19T08:11:06Z</time>
      </trkpt>
      <trkpt lat="42.0019500" lon="-8.8766580">
        <ele>5.2</ele>
        <time>2021-05-19T08:11:07Z</time>
      </trkpt>
      <trkpt lat="42.0019500" lon="-8.8766580">
        <ele>5.2</ele>
        <time>2021-05-19T08:11:08Z</time>
      </trkpt>
      <trkpt lat="42.0019500" lon="-8.8766580">
        <ele>5.2</ele>
        <time>2021-05-19T08:11:09Z</time>
      </trkpt>
      <trkpt lat="42.0019500" lon="-8.8766580">
        <ele>5.2</ele>
        <time>2021-05-19T08:11:10Z</time>
      </trkpt>
      <trkpt lat="42.0019500" lon="-8.8766580">
        <ele>5.2</ele>
        <time>2021-05-19T08:11:11Z</time>
      </trkpt>
      <trkpt lat="42.0019500" lon="-8.8766580">
        <ele>5.2</ele>
        <time>2021-05-19T08:11:12Z</time>
      </trkpt>
      <trkpt lat="42.0019500" lon="-8.8766580">
        <ele>5.2</ele>
        <time>2021-05-19T08:11:13Z</time>
      </trkpt>
      <trkpt lat="42.0019500" lon="-8.8766580">
        <ele>5.2</ele>
        <time>2021-05-19T08:11:14Z</time>
      </trkpt>
      <trkpt lat="42.0019500" lon="-8.8766580">
        <ele>5.2</ele>
        <time>2021-05-19T08:11:15Z</time>
      </trkpt>
      <trkpt lat="42.0019500" lon="-8.8766580">
        <ele>5.2</ele>
        <time>2021-05-19T08:11:16Z</time>
      </trkpt>
      <trkpt lat="42.0019500" lon="-8.8766580">
        <ele>5.2</ele>
        <time>2021-05-19T08:11:17Z</time>
      </trkpt>
      <trkpt lat="42.0019500" lon="-8.8766580">
        <ele>5.2</ele>
        <time>2021-05-19T08:11:18Z</time>
      </trkpt>
      <trkpt lat="42.0019500" lon="-8.8766580">
        <ele>5.2</ele>
        <time>2021-05-19T08:11:19Z</time>
      </trkpt>
      <trkpt lat="42.0019500" lon="-8.8766580">
        <ele>5.2</ele>
        <time>2021-05-19T08:11:20Z</time>
      </trkpt>
      <trkpt lat="42.0019500" lon="-8.8766580">
        <ele>5.2</ele>
        <time>2021-05-19T08:11:21Z</time>
      </trkpt>
      <trkpt lat="42.0019500" lon="-8.8766580">
        <ele>5.2</ele>
        <time>2021-05-19T08:11:22Z</time>
      </trkpt>
      <trkpt lat="42.0019500" lon="-8.8766580">
        <ele>5.2</ele>
        <time>2021-05-19T08:11:23Z</time>
      </trkpt>
      <trkpt lat="42.0019500" lon="-8.8766580">
        <ele>5.2</ele>
        <time>2021-05-19T08:11:24Z</time>
      </trkpt>
      <trkpt lat="42.0019500" lon="-8.8766580">
        <ele>5.2</ele>
        <time>2021-05-19T08:11:25Z</time>
      </trkpt>
      <trkpt lat="42.0019500" lon="-8.8766580">
        <ele>5.2</ele>
        <time>2021-05-19T08:11:26Z</time>
      </trkpt>
      <trkpt lat="42.0019500" lon="-8.8766580">
        <ele>5.2</ele>
        <time>2021-05-19T08:11:27Z</time>
      </trkpt>
      <trkpt lat="42.0019500" lon="-8.8766580">
        <ele>5.2</ele>
        <time>2021-05-19T08:11:28Z</time>
      </trkpt>
      <trkpt lat="42.0019500" lon="-8.8766580">
        <ele>5.2</ele>
        <time>2021-05-19T08:11:29Z</time>
      </trkpt>
      <trkpt lat="42.0019500" lon="-8.8766580">
        <ele>5.2</ele>
        <time>2021-05-19T08:11:30Z</time>
      </trkpt>
      <trkpt lat="42.0019500" lon="-8.8766580">
        <ele>5.2</ele>
        <time>2021-05-19T08:11:31Z</time>
      </trkpt>
      <trkpt lat="42.0019500" lon="-8.8766580">
        <ele>5.2</ele>
        <time>2021-05-19T08:11:32Z</time>
      </trkpt>
      <trkpt lat="42.0019500" lon="-8.8766580">
        <ele>5.2</ele>
        <time>2021-05-19T08:11:33Z</time>
      </trkpt>
      <trkpt lat="42.0019500" lon="-8.8766580">
        <ele>5.2</ele>
        <time>2021-05-19T08:11:34Z</time>
      </trkpt>
      <trkpt lat="42.0019500" lon="-8.8766580">
        <ele>5.2</ele>
        <time>2021-05-19T08:11:35Z</time>
      </trkpt>
      <trkpt lat="42.0019500" lon="-8.8766580">
        <ele>5.2</ele>
        <time>2021-05-19T08:11:36Z</time>
      </trkpt>
      <trkpt lat="42.0019500" lon="-8.8766580">
        <ele>5.2</ele>
        <time>2021-05-19T08:11:37Z</time>
      </trkpt>
      <trkpt lat="42.0019500" lon="-8.8766580">
        <ele>5.2</ele>
        <time>2021-05-19T08:11:38Z</time>
      </trkpt>
      <trkpt lat="42.0019500" lon="-8.8766580">
        <ele>5.2</ele>
        <time>2021-05-19T08:11:39Z</time>
      </trkpt>
      <trkpt lat="42.0019500" lon="-8.8766580">
        <ele>5.2</ele>
        <time>2021-05-19T08:11:40Z</time>
      </trkpt>
      <trkpt lat="42.0019500" lon="-8.8766580">
        <ele>5.2</ele>
        <time>2021-05-19T08:11:41Z</time>
      </trkpt>
      <trkpt lat="42.0019500" lon="-8.8766580">
        <ele>5.2</ele>
        <time>2021-05-19T08:11:42Z</time>
      </trkpt>
      <trkpt lat="42.0019500" lon="-8.8766580">
        <ele>5.2</ele>
        <time>2021-05-19T08:11:43Z</time>
      </trkpt>
      <trkpt lat="42.0019500" lon="-8.8766580">
        <ele>5.2</ele>
        <time>2021-05-19T08:11:44Z</time>
      </trkpt>
      <trkpt lat="42.0019500" lon="-8.8766580">
        <ele>5.2</ele>
        <time>2021-05-19T08:11:45Z</time>
      </trkpt>
      <trkpt lat="42.0019500" lon="-8.8766580">
        <ele>5.2</ele>
        <time>2021-05-19T08:11:46Z</time>
      </trkpt>
      <trkpt lat="42.0019500" lon="-8.8766580">
        <ele>5.2</ele>
        <time>2021-05-19T08:11:47Z</time>
      </trkpt>
      <trkpt lat="42.0019500" lon="-8.8766580">
        <ele>5.2</ele>
        <time>2021-05-19T08:11:48Z</time>
      </trkpt>
      <trkpt lat="42.0019500" lon="-8.8766580">
        <ele>5.2</ele>
        <time>2021-05-19T08:11:49Z</time>
      </trkpt>
      <trkpt lat="42.0019500" lon="-8.8766580">
        <ele>5.2</ele>
        <time>2021-05-19T08:11:50Z</time>
      </trkpt>
      <trkpt lat="42.0019500" lon="-8.8766580">
        <ele>5.2</ele>
        <time>2021-05-19T08:11:51Z</time>
      </trkpt>
      <trkpt lat="42.0019500" lon="-8.8766580">
        <ele>5.2</ele>
        <time>2021-05-19T08:11:52Z</time>
      </trkpt>
      <trkpt lat="42.0019500" lon="-8.8766580">
        <ele>5.2</ele>
        <time>2021-05-19T08:11:53Z</time>
      </trkpt>
      <trkpt lat="42.0019500" lon="-8.8766580">
        <ele>5.2</ele>
        <time>2021-05-19T08:11:54Z</time>
      </trkpt>
      <trkpt lat="42.0019500" lon="-8.8766580">
        <ele>5.2</ele>
        <time>2021-05-19T08:11:55Z</time>
      </trkpt>
      <trkpt lat="42.0019500" lon="-8.8766580">
        <ele>5.2</ele>
        <time>2021-05-19T08:11:56Z</time>
      </trkpt>
      <trkpt lat="42.0019500" lon="-8.8766580">
        <ele>5.2</ele>
        <time>2021-05-19T08:11:57Z</time>
      </trkpt>
      <trkpt lat="42.0019500" lon="-8.8766580">
        <ele>5.2</ele>
        <time>2021-05-19T08:11:58Z</time>
      </trkpt>
      <trkpt lat="42.0019500" lon="-8.8766580">
        <ele>5.2</ele>
        <time>2021-05-19T08:11:59Z</time>
      </trkpt>
      <trkpt lat="42.0019500" lon="-8.8766580">
        <ele>5.2</ele>
        <time>2021-05-19T08:12:00Z</time>
      </trkpt>
      <trkpt lat="42.0019500" lon="-8.8766580">
        <ele>5.2</ele>
        <time>2021-05-19T08:12:01Z</time>
      </trkpt>
      <trkpt lat="42.0019500" lon="-8.8766580">
        <ele>5.2</ele>
        <time>2021-05-19T08:12:02Z</time>
      </trkpt>
      <trkpt lat="42.0019500" lon="-8.8766580">
        <ele>5.2</ele>
        <time>2021-05-19T08:12:03Z</time>
      </trkpt>
      <trkpt lat="42.0019500" lon="-8.8766580">
        <ele>5.2</ele>
        <time>2021-05-19T08:12:04Z</time>
      </trkpt>
      <trkpt lat="42.0019500" lon="-8.8766580">
        <ele>5.2</ele>
        <time>2021-05-19T08:12:05Z</time>
      </trkpt>
      <trkpt lat="42.0019500" lon="-8.8766580">
        <ele>5.2</ele>
        <time>2021-05-19T08:12:06Z</time>
      </trkpt>
      <trkpt lat="42.0019500" lon="-8.8766580">
        <ele>5.2</ele>
        <time>2021-05-19T08:12:07Z</time>
      </trkpt>
      <trkpt lat="42.0019500" lon="-8.8766580">
        <ele>5.2</ele>
        <time>2021-05-19T08:12:08Z</time>
      </trkpt>
      <trkpt lat="42.0019500" lon="-8.8766580">
        <ele>5.2</ele>
        <time>2021-05-19T08:12:09Z</time>
      </trkpt>
      <trkpt lat="42.0019500" lon="-8.8766580">
        <ele>5.2</ele>
        <time>2021-05-19T08:12:10Z</time>
      </trkpt>
      <trkpt lat="42.0019500" lon="-8.8766580">
        <ele>5.2</ele>
        <time>2021-05-19T08:12:11Z</time>
      </trkpt>
      <trkpt lat="42.0019500" lon="-8.8766580">
        <ele>5.2</ele>
        <time>2021-05-19T08:12:12Z</time>
      </trkpt>
      <trkpt lat="42.0019500" lon="-8.8766580">
        <ele>5.2</ele>
        <time>2021-05-19T08:12:13Z</time>
      </trkpt>
      <trkpt lat="42.0019500" lon="-8.8766580">
        <ele>5.2</ele>
        <time>2021-05-19T08:12:14Z</time>
      </trkpt>
      <trkpt lat="42.0019500" lon="-8.8766580">
        <ele>5.2</ele>
        <time>2021-05-19T08:12:15Z</time>
      </trkpt>
      <trkpt lat="42.0019500" lon="-8.8766580">
        <ele>5.2</ele>
        <time>2021-05-19T08:12:16Z</time>
      </trkpt>
      <trkpt lat="42.0019500" lon="-8.8766580">
        <ele>5.2</ele>
        <time>2021-05-19T08:12:17Z</time>
      </trkpt>
      <trkpt lat="42.0019500" lon="-8.8766580">
        <ele>5.2</ele>
        <time>2021-05-19T08:12:18Z</time>
      </trkpt>
      <trkpt lat="42.0019500" lon="-8.8766580">
        <ele>5.2</ele>
        <time>2021-05-19T08:12:19Z</time>
      </trkpt>
      <trkpt lat="42.0019500" lon="-8.8766580">
        <ele>5.2</ele>
        <time>2021-05-19T08:12:20Z</time>
      </trkpt>
      <trkpt lat="42.0019500" lon="-8.8766580">
        <ele>5.2</ele>
        <time>2021-05-19T08:12:21Z</time>
      </trkpt>
      <trkpt lat="42.0019500" lon="-8.8766580">
        <ele>5.2</ele>
        <time>2021-05-19T08:12:23Z</time>
      </trkpt>
      <trkpt lat="42.0019500" lon="-8.8766580">
        <ele>5.2</ele>
        <time>2021-05-19T08:12:24Z</time>
      </trkpt>
      <trkpt lat="42.0019500" lon="-8.8766580">
        <ele>5.2</ele>
        <time>2021-05-19T08:12:25Z</time>
      </trkpt>
      <trkpt lat="42.0019500" lon="-8.8766580">
        <ele>5.2</ele>
        <time>2021-05-19T08:12:26Z</time>
      </trkpt>
      <trkpt lat="42.0019500" lon="-8.8766580">
        <ele>5.2</ele>
        <time>2021-05-19T08:12:27Z</time>
      </trkpt>
      <trkpt lat="42.0019500" lon="-8.8766580">
        <ele>5.2</ele>
        <time>2021-05-19T08:12:28Z</time>
      </trkpt>
      <trkpt lat="42.0019500" lon="-8.8766580">
        <ele>5.2</ele>
        <time>2021-05-19T08:12:29Z</time>
      </trkpt>
      <trkpt lat="42.0019500" lon="-8.8766580">
        <ele>5.2</ele>
        <time>2021-05-19T08:12:30Z</time>
      </trkpt>
      <trkpt lat="42.0019500" lon="-8.8766580">
        <ele>5.2</ele>
        <time>2021-05-19T08:12:31Z</time>
      </trkpt>
      <trkpt lat="42.0019500" lon="-8.8766580">
        <ele>5.2</ele>
        <time>2021-05-19T08:12:32Z</time>
      </trkpt>
      <trkpt lat="42.0019500" lon="-8.8766580">
        <ele>5.2</ele>
        <time>2021-05-19T08:12:33Z</time>
      </trkpt>
      <trkpt lat="42.0019500" lon="-8.8766580">
        <ele>5.2</ele>
        <time>2021-05-19T08:12:34Z</time>
      </trkpt>
      <trkpt lat="42.0019500" lon="-8.8766580">
        <ele>5.2</ele>
        <time>2021-05-19T08:12:35Z</time>
      </trkpt>
      <trkpt lat="42.0019500" lon="-8.8766580">
        <ele>5.2</ele>
        <time>2021-05-19T08:12:36Z</time>
      </trkpt>
      <trkpt lat="42.0019500" lon="-8.8766580">
        <ele>5.2</ele>
        <time>2021-05-19T08:12:37Z</time>
      </trkpt>
      <trkpt lat="42.0019500" lon="-8.8766580">
        <ele>5.2</ele>
        <time>2021-05-19T08:12:38Z</time>
      </trkpt>
      <trkpt lat="42.0019500" lon="-8.8766580">
        <ele>5.2</ele>
        <time>2021-05-19T08:12:39Z</time>
      </trkpt>
      <trkpt lat="42.0019500" lon="-8.8766580">
        <ele>5.2</ele>
        <time>2021-05-19T08:12:40Z</time>
      </trkpt>
      <trkpt lat="42.0019500" lon="-8.8766580">
        <ele>5.2</ele>
        <time>2021-05-19T08:12:41Z</time>
      </trkpt>
      <trkpt lat="42.0019500" lon="-8.8766580">
        <ele>5.2</ele>
        <time>2021-05-19T08:12:42Z</time>
      </trkpt>
      <trkpt lat="42.0019500" lon="-8.8766580">
        <ele>5.2</ele>
        <time>2021-05-19T08:12:43Z</time>
      </trkpt>
      <trkpt lat="42.0019500" lon="-8.8766580">
        <ele>5.2</ele>
        <time>2021-05-19T08:12:44Z</time>
      </trkpt>
      <trkpt lat="42.0019500" lon="-8.8766580">
        <ele>5.2</ele>
        <time>2021-05-19T08:12:45Z</time>
      </trkpt>
      <trkpt lat="42.0019500" lon="-8.8766580">
        <ele>5.2</ele>
        <time>2021-05-19T08:12:46Z</time>
      </trkpt>
      <trkpt lat="42.0019500" lon="-8.8766580">
        <ele>5.2</ele>
        <time>2021-05-19T08:12:47Z</time>
      </trkpt>
      <trkpt lat="42.0019500" lon="-8.8766580">
        <ele>5.2</ele>
        <time>2021-05-19T08:12:48Z</time>
      </trkpt>
      <trkpt lat="42.0019500" lon="-8.8766580">
        <ele>5.2</ele>
        <time>2021-05-19T08:12:49Z</time>
      </trkpt>
      <trkpt lat="42.0019500" lon="-8.8766580">
        <ele>5.2</ele>
        <time>2021-05-19T08:12:50Z</time>
      </trkpt>
      <trkpt lat="42.0019500" lon="-8.8766580">
        <ele>5.2</ele>
        <time>2021-05-19T08:12:51Z</time>
      </trkpt>
      <trkpt lat="42.0019500" lon="-8.8766580">
        <ele>5.2</ele>
        <time>2021-05-19T08:12:52Z</time>
      </trkpt>
      <trkpt lat="42.0019500" lon="-8.8766580">
        <ele>5.2</ele>
        <time>2021-05-19T08:12:53Z</time>
      </trkpt>
      <trkpt lat="42.0019500" lon="-8.8766580">
        <ele>5.2</ele>
        <time>2021-05-19T08:12:54Z</time>
      </trkpt>
      <trkpt lat="42.0019500" lon="-8.8766580">
        <ele>5.2</ele>
        <time>2021-05-19T08:12:55Z</time>
      </trkpt>
      <trkpt lat="42.0019500" lon="-8.8766580">
        <ele>5.2</ele>
        <time>2021-05-19T08:12:56Z</time>
      </trkpt>
      <trkpt lat="42.0019500" lon="-8.8766580">
        <ele>5.2</ele>
        <time>2021-05-19T08:12:57Z</time>
      </trkpt>
      <trkpt lat="42.0019500" lon="-8.8766580">
        <ele>5.2</ele>
        <time>2021-05-19T08:12:58Z</time>
      </trkpt>
      <trkpt lat="42.0019500" lon="-8.8766580">
        <ele>5.2</ele>
        <time>2021-05-19T08:12:59Z</time>
      </trkpt>
      <trkpt lat="42.0019500" lon="-8.8766580">
        <ele>5.2</ele>
        <time>2021-05-19T08:13:00Z</time>
      </trkpt>
      <trkpt lat="42.0019500" lon="-8.8766580">
        <ele>5.2</ele>
        <time>2021-05-19T08:13:01Z</time>
      </trkpt>
      <trkpt lat="42.0019500" lon="-8.8766580">
        <ele>5.2</ele>
        <time>2021-05-19T08:13:02Z</time>
      </trkpt>
      <trkpt lat="42.0019500" lon="-8.8766580">
        <ele>5.2</ele>
        <time>2021-05-19T08:13:03Z</time>
      </trkpt>
      <trkpt lat="42.0019500" lon="-8.8766580">
        <ele>5.2</ele>
        <time>2021-05-19T08:13:04Z</time>
      </trkpt>
      <trkpt lat="42.0019500" lon="-8.8766580">
        <ele>5.2</ele>
        <time>2021-05-19T08:13:05Z</time>
      </trkpt>
      <trkpt lat="42.0019500" lon="-8.8766580">
        <ele>5.2</ele>
        <time>2021-05-19T08:13:06Z</time>
      </trkpt>
      <trkpt lat="42.0019500" lon="-8.8766580">
        <ele>5.2</ele>
        <time>2021-05-19T08:13:07Z</time>
      </trkpt>
      <trkpt lat="42.0019500" lon="-8.8766580">
        <ele>5.2</ele>
        <time>2021-05-19T08:13:08Z</time>
      </trkpt>
      <trkpt lat="42.0019500" lon="-8.8766580">
        <ele>5.2</ele>
        <time>2021-05-19T08:13:09Z</time>
      </trkpt>
      <trkpt lat="42.0019500" lon="-8.8766580">
        <ele>5.2</ele>
        <time>2021-05-19T08:13:10Z</time>
      </trkpt>
      <trkpt lat="42.0019500" lon="-8.8766580">
        <ele>5.2</ele>
        <time>2021-05-19T08:13:11Z</time>
      </trkpt>
      <trkpt lat="42.0019500" lon="-8.8766580">
        <ele>5.2</ele>
        <time>2021-05-19T08:13:12Z</time>
      </trkpt>
      <trkpt lat="42.0019500" lon="-8.8766580">
        <ele>5.2</ele>
        <time>2021-05-19T08:13:13Z</time>
      </trkpt>
      <trkpt lat="42.0019500" lon="-8.8766580">
        <ele>5.2</ele>
        <time>2021-05-19T08:13:14Z</time>
      </trkpt>
      <trkpt lat="42.0019500" lon="-8.8766580">
        <ele>5.2</ele>
        <time>2021-05-19T08:13:15Z</time>
      </trkpt>
      <trkpt lat="42.0019500" lon="-8.8766580">
        <ele>5.2</ele>
        <time>2021-05-19T08:13:16Z</time>
      </trkpt>
      <trkpt lat="42.0019500" lon="-8.8766580">
        <ele>5.2</ele>
        <time>2021-05-19T08:13:17Z</time>
      </trkpt>
      <trkpt lat="42.0019500" lon="-8.8766580">
        <ele>5.2</ele>
        <time>2021-05-19T08:13:18Z</time>
      </trkpt>
      <trkpt lat="42.0019500" lon="-8.8766580">
        <ele>5.2</ele>
        <time>2021-05-19T08:13:19Z</time>
      </trkpt>
      <trkpt lat="42.0019500" lon="-8.8766580">
        <ele>5.2</ele>
        <time>2021-05-19T08:13:20Z</time>
      </trkpt>
      <trkpt lat="42.0019500" lon="-8.8766580">
        <ele>5.2</ele>
        <time>2021-05-19T08:13:21Z</time>
      </trkpt>
      <trkpt lat="42.0019500" lon="-8.8766580">
        <ele>5.2</ele>
        <time>2021-05-19T08:13:22Z</time>
      </trkpt>
      <trkpt lat="42.0019500" lon="-8.8766580">
        <ele>5.2</ele>
        <time>2021-05-19T08:13:23Z</time>
      </trkpt>
      <trkpt lat="42.0019500" lon="-8.8766580">
        <ele>5.2</ele>
        <time>2021-05-19T08:13:24Z</time>
      </trkpt>
      <trkpt lat="42.0019500" lon="-8.8766580">
        <ele>5.2</ele>
        <time>2021-05-19T08:13:25Z</time>
      </trkpt>
      <trkpt lat="42.0019500" lon="-8.8766580">
        <ele>5.2</ele>
        <time>2021-05-19T08:13:26Z</time>
      </trkpt>
      <trkpt lat="42.0019500" lon="-8.8766580">
        <ele>5.2</ele>
        <time>2021-05-19T08:13:27Z</time>
      </trkpt>
      <trkpt lat="42.0019500" lon="-8.8766580">
        <ele>5.2</ele>
        <time>2021-05-19T08:13:28Z</time>
      </trkpt>
      <trkpt lat="42.0019500" lon="-8.8766580">
        <ele>5.2</ele>
        <time>2021-05-19T08:13:29Z</time>
      </trkpt>
      <trkpt lat="42.0019500" lon="-8.8766580">
        <ele>5.2</ele>
        <time>2021-05-19T08:13:30Z</time>
      </trkpt>
      <trkpt lat="42.0019500" lon="-8.8766580">
        <ele>5.2</ele>
        <time>2021-05-19T08:13:31Z</time>
      </trkpt>
      <trkpt lat="42.0019500" lon="-8.8766580">
        <ele>5.2</ele>
        <time>2021-05-19T08:13:32Z</time>
      </trkpt>
      <trkpt lat="42.0019500" lon="-8.8766580">
        <ele>5.2</ele>
        <time>2021-05-19T08:13:33Z</time>
      </trkpt>
      <trkpt lat="42.0019500" lon="-8.8766580">
        <ele>5.2</ele>
        <time>2021-05-19T08:13:34Z</time>
      </trkpt>
      <trkpt lat="42.0019500" lon="-8.8766580">
        <ele>5.2</ele>
        <time>2021-05-19T08:13:35Z</time>
      </trkpt>
      <trkpt lat="42.0019500" lon="-8.8766580">
        <ele>5.2</ele>
        <time>2021-05-19T08:13:36Z</time>
      </trkpt>
      <trkpt lat="42.0019500" lon="-8.8766580">
        <ele>5.2</ele>
        <time>2021-05-19T08:13:37Z</time>
      </trkpt>
      <trkpt lat="42.0019500" lon="-8.8766580">
        <ele>5.2</ele>
        <time>2021-05-19T08:13:38Z</time>
      </trkpt>
      <trkpt lat="42.0019500" lon="-8.8766580">
        <ele>5.2</ele>
        <time>2021-05-19T08:13:39Z</time>
      </trkpt>
      <trkpt lat="42.0019500" lon="-8.8766580">
        <ele>5.2</ele>
        <time>2021-05-19T08:13:40Z</time>
      </trkpt>
      <trkpt lat="42.0019500" lon="-8.8766580">
        <ele>5.2</ele>
        <time>2021-05-19T08:13:41Z</time>
      </trkpt>
      <trkpt lat="42.0019500" lon="-8.8766580">
        <ele>5.2</ele>
        <time>2021-05-19T08:13:42Z</time>
      </trkpt>
      <trkpt lat="42.0019500" lon="-8.8766580">
        <ele>5.2</ele>
        <time>2021-05-19T08:13:43Z</time>
      </trkpt>
      <trkpt lat="42.0019500" lon="-8.8766580">
        <ele>5.2</ele>
        <time>2021-05-19T08:13:44Z</time>
      </trkpt>
      <trkpt lat="42.0019500" lon="-8.8766580">
        <ele>5.2</ele>
        <time>2021-05-19T08:13:45Z</time>
      </trkpt>
      <trkpt lat="42.0019500" lon="-8.8766580">
        <ele>5.2</ele>
        <time>2021-05-19T08:13:47Z</time>
      </trkpt>
      <trkpt lat="42.0019500" lon="-8.8766580">
        <ele>5.2</ele>
        <time>2021-05-19T08:13:48Z</time>
      </trkpt>
      <trkpt lat="42.0019500" lon="-8.8766580">
        <ele>5.2</ele>
        <time>2021-05-19T08:13:49Z</time>
      </trkpt>
      <trkpt lat="42.0019500" lon="-8.8766580">
        <ele>5.2</ele>
        <time>2021-05-19T08:13:50Z</time>
      </trkpt>
      <trkpt lat="42.0019500" lon="-8.8766580">
        <ele>5.2</ele>
        <time>2021-05-19T08:13:51Z</time>
      </trkpt>
      <trkpt lat="42.0019500" lon="-8.8766580">
        <ele>5.2</ele>
        <time>2021-05-19T08:13:52Z</time>
      </trkpt>
      <trkpt lat="42.0019500" lon="-8.8766580">
        <ele>5.2</ele>
        <time>2021-05-19T08:13:53Z</time>
      </trkpt>
      <trkpt lat="42.0019500" lon="-8.8766580">
        <ele>5.2</ele>
        <time>2021-05-19T08:13:54Z</time>
      </trkpt>
      <trkpt lat="42.0019500" lon="-8.8766580">
        <ele>5.2</ele>
        <time>2021-05-19T08:13:55Z</time>
      </trkpt>
      <trkpt lat="42.0019500" lon="-8.8766580">
        <ele>5.2</ele>
        <time>2021-05-19T08:13:56Z</time>
      </trkpt>
      <trkpt lat="42.0019500" lon="-8.8766580">
        <ele>5.2</ele>
        <time>2021-05-19T08:13:57Z</time>
      </trkpt>
      <trkpt lat="42.0019500" lon="-8.8766580">
        <ele>5.2</ele>
        <time>2021-05-19T08:13:58Z</time>
      </trkpt>
      <trkpt lat="42.0019500" lon="-8.8766580">
        <ele>5.2</ele>
        <time>2021-05-19T08:13:59Z</time>
      </trkpt>
      <trkpt lat="42.0019500" lon="-8.8766580">
        <ele>5.2</ele>
        <time>2021-05-19T08:14:00Z</time>
      </trkpt>
      <trkpt lat="42.0019500" lon="-8.8766580">
        <ele>5.2</ele>
        <time>2021-05-19T08:14:01Z</time>
      </trkpt>
      <trkpt lat="42.0019500" lon="-8.8766580">
        <ele>5.2</ele>
        <time>2021-05-19T08:14:02Z</time>
      </trkpt>
      <trkpt lat="42.0019500" lon="-8.8766580">
        <ele>5.2</ele>
        <time>2021-05-19T08:14:03Z</time>
      </trkpt>
      <trkpt lat="42.0019500" lon="-8.8766580">
        <ele>5.2</ele>
        <time>2021-05-19T08:14:04Z</time>
      </trkpt>
      <trkpt lat="42.0019500" lon="-8.8766580">
        <ele>5.2</ele>
        <time>2021-05-19T08:14:05Z</time>
      </trkpt>
      <trkpt lat="42.0019500" lon="-8.8766580">
        <ele>5.2</ele>
        <time>2021-05-19T08:14:06Z</time>
      </trkpt>
      <trkpt lat="42.0019500" lon="-8.8766580">
        <ele>5.2</ele>
        <time>2021-05-19T08:14:07Z</time>
      </trkpt>
      <trkpt lat="42.0019500" lon="-8.8766580">
        <ele>5.2</ele>
        <time>2021-05-19T08:14:08Z</time>
      </trkpt>
      <trkpt lat="42.0019500" lon="-8.8766580">
        <ele>5.2</ele>
        <time>2021-05-19T08:14:09Z</time>
      </trkpt>
      <trkpt lat="42.0019500" lon="-8.8766580">
        <ele>5.2</ele>
        <time>2021-05-19T08:14:10Z</time>
      </trkpt>
      <trkpt lat="42.0019500" lon="-8.8766580">
        <ele>5.2</ele>
        <time>2021-05-19T08:14:11Z</time>
      </trkpt>
      <trkpt lat="42.0019500" lon="-8.8766580">
        <ele>5.2</ele>
        <time>2021-05-19T08:14:12Z</time>
      </trkpt>
      <trkpt lat="42.0019500" lon="-8.8766580">
        <ele>5.2</ele>
        <time>2021-05-19T08:14:13Z</time>
      </trkpt>
      <trkpt lat="42.0019500" lon="-8.8766580">
        <ele>5.2</ele>
        <time>2021-05-19T08:14:14Z</time>
      </trkpt>
      <trkpt lat="42.0019500" lon="-8.8766580">
        <ele>5.2</ele>
        <time>2021-05-19T08:14:15Z</time>
      </trkpt>
      <trkpt lat="42.0019500" lon="-8.8766580">
        <ele>5.2</ele>
        <time>2021-05-19T08:14:16Z</time>
      </trkpt>
      <trkpt lat="42.0019500" lon="-8.8766580">
        <ele>5.2</ele>
        <time>2021-05-19T08:14:17Z</time>
      </trkpt>
      <trkpt lat="42.0019500" lon="-8.8766580">
        <ele>5.2</ele>
        <time>2021-05-19T08:14:18Z</time>
      </trkpt>
      <trkpt lat="42.0019500" lon="-8.8766580">
        <ele>5.2</ele>
        <time>2021-05-19T08:14:19Z</time>
      </trkpt>
      <trkpt lat="42.0019500" lon="-8.8766580">
        <ele>5.2</ele>
        <time>2021-05-19T08:14:20Z</time>
      </trkpt>
      <trkpt lat="42.0019500" lon="-8.8766580">
        <ele>5.2</ele>
        <time>2021-05-19T08:14:21Z</time>
      </trkpt>
      <trkpt lat="42.0019500" lon="-8.8766580">
        <ele>5.2</ele>
        <time>2021-05-19T08:14:22Z</time>
      </trkpt>
      <trkpt lat="42.0019500" lon="-8.8766580">
        <ele>5.2</ele>
        <time>2021-05-19T08:14:23Z</time>
      </trkpt>
      <trkpt lat="42.0019500" lon="-8.8766580">
        <ele>5.2</ele>
        <time>2021-05-19T08:14:24Z</time>
      </trkpt>
      <trkpt lat="42.0019500" lon="-8.8766580">
        <ele>5.2</ele>
        <time>2021-05-19T08:14:25Z</time>
      </trkpt>
      <trkpt lat="42.0019500" lon="-8.8766580">
        <ele>5.2</ele>
        <time>2021-05-19T08:14:26Z</time>
      </trkpt>
      <trkpt lat="42.0019500" lon="-8.8766580">
        <ele>5.2</ele>
        <time>2021-05-19T08:14:27Z</time>
      </trkpt>
      <trkpt lat="42.0019500" lon="-8.8766580">
        <ele>5.2</ele>
        <time>2021-05-19T08:14:28Z</time>
      </trkpt>
      <trkpt lat="42.0019500" lon="-8.8766580">
        <ele>5.2</ele>
        <time>2021-05-19T08:14:29Z</time>
      </trkpt>
      <trkpt lat="42.0019500" lon="-8.8766580">
        <ele>5.2</ele>
        <time>2021-05-19T08:14:30Z</time>
      </trkpt>
      <trkpt lat="42.0019500" lon="-8.8766580">
        <ele>5.2</ele>
        <time>2021-05-19T08:14:31Z</time>
      </trkpt>
      <trkpt lat="42.0019500" lon="-8.8766580">
        <ele>5.2</ele>
        <time>2021-05-19T08:14:32Z</time>
      </trkpt>
      <trkpt lat="42.0019500" lon="-8.8766580">
        <ele>5.2</ele>
        <time>2021-05-19T08:14:33Z</time>
      </trkpt>
      <trkpt lat="42.0019500" lon="-8.8766580">
        <ele>5.2</ele>
        <time>2021-05-19T08:14:34Z</time>
      </trkpt>
      <trkpt lat="42.0019500" lon="-8.8766580">
        <ele>5.2</ele>
        <time>2021-05-19T08:14:35Z</time>
      </trkpt>
      <trkpt lat="42.0019500" lon="-8.8766580">
        <ele>5.2</ele>
        <time>2021-05-19T08:14:36Z</time>
      </trkpt>
      <trkpt lat="42.0019500" lon="-8.8766580">
        <ele>5.2</ele>
        <time>2021-05-19T08:14:37Z</time>
      </trkpt>
      <trkpt lat="42.0019500" lon="-8.8766580">
        <ele>5.2</ele>
        <time>2021-05-19T08:14:38Z</time>
      </trkpt>
      <trkpt lat="42.0019500" lon="-8.8766580">
        <ele>5.2</ele>
        <time>2021-05-19T08:14:39Z</time>
      </trkpt>
      <trkpt lat="42.0019500" lon="-8.8766580">
        <ele>5.2</ele>
        <time>2021-05-19T08:14:40Z</time>
      </trkpt>
      <trkpt lat="42.0019500" lon="-8.8766580">
        <ele>5.2</ele>
        <time>2021-05-19T08:14:41Z</time>
      </trkpt>
      <trkpt lat="42.0019500" lon="-8.8766580">
        <ele>5.2</ele>
        <time>2021-05-19T08:14:42Z</time>
      </trkpt>
      <trkpt lat="42.0019480" lon="-8.8766340">
        <ele>5.1</ele>
        <time>2021-05-19T08:14:43Z</time>
      </trkpt>
      <trkpt lat="42.0019500" lon="-8.8766360">
        <ele>5.1</ele>
        <time>2021-05-19T08:14:44Z</time>
      </trkpt>
      <trkpt lat="42.0019550" lon="-8.8766430">
        <ele>5.1</ele>
        <time>2021-05-19T08:14:45Z</time>
      </trkpt>
      <trkpt lat="42.0019490" lon="-8.8766390">
        <ele>5.1</ele>
        <time>2021-05-19T08:14:46Z</time>
      </trkpt>
      <trkpt lat="42.0019480" lon="-8.8766390">
        <ele>5.1</ele>
        <time>2021-05-19T08:14:47Z</time>
      </trkpt>
      <trkpt lat="42.0019470" lon="-8.8766400">
        <ele>5.1</ele>
        <time>2021-05-19T08:14:48Z</time>
      </trkpt>
      <trkpt lat="42.0019470" lon="-8.8766340">
        <ele>5.1</ele>
        <time>2021-05-19T08:14:49Z</time>
      </trkpt>
      <trkpt lat="42.0019470" lon="-8.8766390">
        <ele>5.1</ele>
        <time>2021-05-19T08:14:50Z</time>
      </trkpt>
      <trkpt lat="42.0019470" lon="-8.8766410">
        <ele>5.1</ele>
        <time>2021-05-19T08:14:51Z</time>
      </trkpt>
      <trkpt lat="42.0019460" lon="-8.8766450">
        <ele>5.1</ele>
        <time>2021-05-19T08:14:52Z</time>
      </trkpt>
      <trkpt lat="42.0019480" lon="-8.8766460">
        <ele>5.1</ele>
        <time>2021-05-19T08:14:53Z</time>
      </trkpt>
      <trkpt lat="42.0019470" lon="-8.8766460">
        <ele>5.1</ele>
        <time>2021-05-19T08:14:54Z</time>
      </trkpt>
      <trkpt lat="42.0019460" lon="-8.8766470">
        <ele>5.1</ele>
        <time>2021-05-19T08:14:55Z</time>
      </trkpt>
      <trkpt lat="42.0019460" lon="-8.8766480">
        <ele>5.1</ele>
        <time>2021-05-19T08:14:56Z</time>
      </trkpt>
      <trkpt lat="42.0019450" lon="-8.8766490">
        <ele>5.1</ele>
        <time>2021-05-19T08:14:57Z</time>
      </trkpt>
      <trkpt lat="42.0019440" lon="-8.8766510">
        <ele>5.1</ele>
        <time>2021-05-19T08:14:58Z</time>
      </trkpt>
      <trkpt lat="42.0019450" lon="-8.8766540">
        <ele>5.1</ele>
        <time>2021-05-19T08:14:59Z</time>
      </trkpt>
      <trkpt lat="42.0019450" lon="-8.8766580">
        <ele>5.1</ele>
        <time>2021-05-19T08:15:00Z</time>
      </trkpt>
      <trkpt lat="42.0019460" lon="-8.8766570">
        <ele>5.1</ele>
        <time>2021-05-19T08:15:01Z</time>
      </trkpt>
      <trkpt lat="42.0019460" lon="-8.8766570">
        <ele>5.1</ele>
        <time>2021-05-19T08:15:02Z</time>
      </trkpt>
      <trkpt lat="42.0019470" lon="-8.8766550">
        <ele>5.1</ele>
        <time>2021-05-19T08:15:03Z</time>
      </trkpt>
      <trkpt lat="42.0019460" lon="-8.8766540">
        <ele>5.1</ele>
        <time>2021-05-19T08:15:04Z</time>
      </trkpt>
      <trkpt lat="42.0019450" lon="-8.8766490">
        <ele>5.1</ele>
        <time>2021-05-19T08:15:05Z</time>
      </trkpt>
      <trkpt lat="42.0019420" lon="-8.8766470">
        <ele>5.1</ele>
        <time>2021-05-19T08:15:06Z</time>
      </trkpt>
      <trkpt lat="42.0019420" lon="-8.8766470">
        <ele>5.1</ele>
        <time>2021-05-19T08:15:07Z</time>
      </trkpt>
      <trkpt lat="42.0019450" lon="-8.8766500">
        <ele>5.1</ele>
        <time>2021-05-19T08:15:08Z</time>
      </trkpt>
      <trkpt lat="42.0019440" lon="-8.8766500">
        <ele>5.1</ele>
        <time>2021-05-19T08:15:09Z</time>
      </trkpt>
      <trkpt lat="42.0019440" lon="-8.8766500">
        <ele>5.1</ele>
        <time>2021-05-19T08:15:10Z</time>
      </trkpt>
      <trkpt lat="42.0019430" lon="-8.8766520">
        <ele>5.1</ele>
        <time>2021-05-19T08:15:11Z</time>
      </trkpt>
      <trkpt lat="42.0019440" lon="-8.8766500">
        <ele>5.1</ele>
        <time>2021-05-19T08:15:12Z</time>
      </trkpt>
      <trkpt lat="42.0019420" lon="-8.8766490">
        <ele>5.1</ele>
        <time>2021-05-19T08:15:13Z</time>
      </trkpt>
      <trkpt lat="42.0019380" lon="-8.8766510">
        <ele>5.1</ele>
        <time>2021-05-19T08:15:14Z</time>
      </trkpt>
      <trkpt lat="42.0019350" lon="-8.8766470">
        <ele>5.1</ele>
        <time>2021-05-19T08:15:15Z</time>
      </trkpt>
      <trkpt lat="42.0019300" lon="-8.8766450">
        <ele>5.1</ele>
        <time>2021-05-19T08:15:16Z</time>
      </trkpt>
      <trkpt lat="42.0019240" lon="-8.8766410">
        <ele>5.1</ele>
        <time>2021-05-19T08:15:17Z</time>
      </trkpt>
      <trkpt lat="42.0019180" lon="-8.8766460">
        <ele>5.1</ele>
        <time>2021-05-19T08:15:18Z</time>
      </trkpt>
      <trkpt lat="42.0019120" lon="-8.8766490">
        <ele>5.1</ele>
        <time>2021-05-19T08:15:19Z</time>
      </trkpt>
      <trkpt lat="42.0019040" lon="-8.8766550">
        <ele>5.1</ele>
        <time>2021-05-19T08:15:20Z</time>
      </trkpt>
      <trkpt lat="42.0018970" lon="-8.8766550">
        <ele>5.1</ele>
        <time>2021-05-19T08:15:21Z</time>
      </trkpt>
      <trkpt lat="42.0018920" lon="-8.8766610">
        <ele>5.1</ele>
        <time>2021-05-19T08:15:22Z</time>
      </trkpt>
      <trkpt lat="42.0018870" lon="-8.8766670">
        <ele>5.1</ele>
        <time>2021-05-19T08:15:23Z</time>
      </trkpt>
      <trkpt lat="42.0018790" lon="-8.8766550">
        <ele>5.0</ele>
        <time>2021-05-19T08:15:24Z</time>
      </trkpt>
      <trkpt lat="42.0018760" lon="-8.8766560">
        <ele>5.0</ele>
        <time>2021-05-19T08:15:25Z</time>
      </trkpt>
      <trkpt lat="42.0018750" lon="-8.8766590">
        <ele>5.0</ele>
        <time>2021-05-19T08:15:26Z</time>
      </trkpt>
      <trkpt lat="42.0018750" lon="-8.8766570">
        <ele>5.0</ele>
        <time>2021-05-19T08:15:27Z</time>
      </trkpt>
      <trkpt lat="42.0018740" lon="-8.8766550">
        <ele>5.0</ele>
        <time>2021-05-19T08:15:28Z</time>
      </trkpt>
      <trkpt lat="42.0018720" lon="-8.8766550">
        <ele>5.0</ele>
        <time>2021-05-19T08:15:29Z</time>
      </trkpt>
      <trkpt lat="42.0018730" lon="-8.8766520">
        <ele>5.0</ele>
        <time>2021-05-19T08:15:30Z</time>
      </trkpt>
      <trkpt lat="42.0018570" lon="-8.8766480">
        <ele>5.0</ele>
        <time>2021-05-19T08:15:31Z</time>
      </trkpt>
      <trkpt lat="42.0018610" lon="-8.8766610">
        <ele>5.0</ele>
        <time>2021-05-19T08:15:32Z</time>
      </trkpt>
      <trkpt lat="42.0018660" lon="-8.8766740">
        <ele>5.0</ele>
        <time>2021-05-19T08:15:34Z</time>
      </trkpt>
      <trkpt lat="42.0018600" lon="-8.8766890">
        <ele>5.0</ele>
        <time>2021-05-19T08:15:35Z</time>
      </trkpt>
      <trkpt lat="42.0018520" lon="-8.8766850">
        <ele>5.0</ele>
        <time>2021-05-19T08:15:36Z</time>
      </trkpt>
      <trkpt lat="42.0018390" lon="-8.8766990">
        <ele>5.0</ele>
        <time>2021-05-19T08:15:37Z</time>
      </trkpt>
      <trkpt lat="42.0018370" lon="-8.8767020">
        <ele>5.0</ele>
        <time>2021-05-19T08:15:38Z</time>
      </trkpt>
      <trkpt lat="42.0018380" lon="-8.8767000">
        <ele>5.0</ele>
        <time>2021-05-19T08:15:39Z</time>
      </trkpt>
      <trkpt lat="42.0018460" lon="-8.8766950">
        <ele>5.0</ele>
        <time>2021-05-19T08:15:40Z</time>
      </trkpt>
      <trkpt lat="42.0018470" lon="-8.8766940">
        <ele>5.0</ele>
        <time>2021-05-19T08:15:41Z</time>
      </trkpt>
      <trkpt lat="42.0018480" lon="-8.8766930">
        <ele>5.0</ele>
        <time>2021-05-19T08:15:42Z</time>
      </trkpt>
      <trkpt lat="42.0018470" lon="-8.8766940">
        <ele>5.0</ele>
        <time>2021-05-19T08:15:43Z</time>
      </trkpt>
      <trkpt lat="42.0018470" lon="-8.8766950">
        <ele>5.0</ele>
        <time>2021-05-19T08:15:44Z</time>
      </trkpt>
      <trkpt lat="42.0018470" lon="-8.8766950">
        <ele>5.0</ele>
        <time>2021-05-19T08:15:45Z</time>
      </trkpt>
      <trkpt lat="42.0018420" lon="-8.8767140">
        <ele>5.0</ele>
        <time>2021-05-19T08:15:46Z</time>
      </trkpt>
      <trkpt lat="42.0018340" lon="-8.8767120">
        <ele>5.0</ele>
        <time>2021-05-19T08:15:47Z</time>
      </trkpt>
      <trkpt lat="42.0018270" lon="-8.8767170">
        <ele>5.0</ele>
        <time>2021-05-19T08:15:48Z</time>
      </trkpt>
      <trkpt lat="42.0018260" lon="-8.8767320">
        <ele>4.9</ele>
        <time>2021-05-19T08:15:49Z</time>
      </trkpt>
      <trkpt lat="42.0018110" lon="-8.8767390">
        <ele>4.9</ele>
        <time>2021-05-19T08:15:50Z</time>
      </trkpt>
      <trkpt lat="42.0018020" lon="-8.8767540">
        <ele>4.9</ele>
        <time>2021-05-19T08:15:51Z</time>
      </trkpt>
      <trkpt lat="42.0017960" lon="-8.8767610">
        <ele>4.9</ele>
        <time>2021-05-19T08:15:52Z</time>
      </trkpt>
      <trkpt lat="42.0017890" lon="-8.8767670">
        <ele>4.9</ele>
        <time>2021-05-19T08:15:53Z</time>
      </trkpt>
      <trkpt lat="42.0017830" lon="-8.8767740">
        <ele>4.9</ele>
        <time>2021-05-19T08:15:54Z</time>
      </trkpt>
      <trkpt lat="42.0017830" lon="-8.8767780">
        <ele>4.9</ele>
        <time>2021-05-19T08:15:55Z</time>
      </trkpt>
      <trkpt lat="42.0017710" lon="-8.8767950">
        <ele>4.9</ele>
        <time>2021-05-19T08:15:56Z</time>
      </trkpt>
      <trkpt lat="42.0017830" lon="-8.8767980">
        <ele>4.9</ele>
        <time>2021-05-19T08:15:57Z</time>
      </trkpt>
      <trkpt lat="42.0017780" lon="-8.8768150">
        <ele>4.9</ele>
        <time>2021-05-19T08:15:58Z</time>
      </trkpt>
      <trkpt lat="42.0017740" lon="-8.8768210">
        <ele>4.9</ele>
        <time>2021-05-19T08:15:59Z</time>
      </trkpt>
      <trkpt lat="42.0017780" lon="-8.8768370">
        <ele>4.9</ele>
        <time>2021-05-19T08:16:00Z</time>
      </trkpt>
      <trkpt lat="42.0017810" lon="-8.8768420">
        <ele>4.9</ele>
        <time>2021-05-19T08:16:01Z</time>
      </trkpt>
      <trkpt lat="42.0017890" lon="-8.8768480">
        <ele>4.9</ele>
        <time>2021-05-19T08:16:02Z</time>
      </trkpt>
      <trkpt lat="42.0017920" lon="-8.8768510">
        <ele>4.9</ele>
        <time>2021-05-19T08:16:03Z</time>
      </trkpt>
      <trkpt lat="42.0017900" lon="-8.8768440">
        <ele>4.9</ele>
        <time>2021-05-19T08:16:04Z</time>
      </trkpt>
      <trkpt lat="42.0017970" lon="-8.8768400">
        <ele>4.9</ele>
        <time>2021-05-19T08:16:05Z</time>
      </trkpt>
      <trkpt lat="42.0018120" lon="-8.8768380">
        <ele>4.8</ele>
        <time>2021-05-19T08:16:06Z</time>
      </trkpt>
      <trkpt lat="42.0018150" lon="-8.8768270">
        <ele>4.8</ele>
        <time>2021-05-19T08:16:07Z</time>
      </trkpt>
      <trkpt lat="42.0018240" lon="-8.8768190">
        <ele>4.8</ele>
        <time>2021-05-19T08:16:08Z</time>
      </trkpt>
      <trkpt lat="42.0018340" lon="-8.8768180">
        <ele>4.8</ele>
        <time>2021-05-19T08:16:09Z</time>
      </trkpt>
      <trkpt lat="42.0018330" lon="-8.8768150">
        <ele>4.8</ele>
        <time>2021-05-19T08:16:10Z</time>
      </trkpt>
      <trkpt lat="42.0018430" lon="-8.8768060">
        <ele>4.8</ele>
        <time>2021-05-19T08:16:11Z</time>
      </trkpt>
      <trkpt lat="42.0018570" lon="-8.8767990">
        <ele>4.8</ele>
        <time>2021-05-19T08:16:12Z</time>
      </trkpt>
      <trkpt lat="42.0018670" lon="-8.8767910">
        <ele>4.8</ele>
        <time>2021-05-19T08:16:13Z</time>
      </trkpt>
      <trkpt lat="42.0018700" lon="-8.8767870">
        <ele>4.8</ele>
        <time>2021-05-19T08:16:14Z</time>
      </trkpt>
      <trkpt lat="42.0018790" lon="-8.8767730">
        <ele>4.8</ele>
        <time>2021-05-19T08:16:15Z</time>
      </trkpt>
      <trkpt lat="42.0018840" lon="-8.8767680">
        <ele>4.8</ele>
        <time>2021-05-19T08:16:16Z</time>
      </trkpt>
      <trkpt lat="42.0018970" lon="-8.8767620">
        <ele>4.8</ele>
        <time>2021-05-19T08:16:17Z</time>
      </trkpt>
      <trkpt lat="42.0019170" lon="-8.8767490">
        <ele>4.8</ele>
        <time>2021-05-19T08:16:18Z</time>
      </trkpt>
      <trkpt lat="42.0019280" lon="-8.8767410">
        <ele>4.8</ele>
        <time>2021-05-19T08:16:19Z</time>
      </trkpt>
      <trkpt lat="42.0019400" lon="-8.8767330">
        <ele>4.8</ele>
        <time>2021-05-19T08:16:20Z</time>
      </trkpt>
      <trkpt lat="42.0019690" lon="-8.8767160">
        <ele>4.8</ele>
        <time>2021-05-19T08:16:21Z</time>
      </trkpt>
      <trkpt lat="42.0019750" lon="-8.8767130">
        <ele>4.8</ele>
        <time>2021-05-19T08:16:22Z</time>
      </trkpt>
      <trkpt lat="42.0019880" lon="-8.8767040">
        <ele>4.8</ele>
        <time>2021-05-19T08:16:23Z</time>
      </trkpt>
      <trkpt lat="42.0019980" lon="-8.8767010">
        <ele>4.8</ele>
        <time>2021-05-19T08:16:24Z</time>
      </trkpt>
      <trkpt lat="42.0020040" lon="-8.8766990">
        <ele>4.8</ele>
        <time>2021-05-19T08:16:25Z</time>
      </trkpt>
      <trkpt lat="42.0020130" lon="-8.8766910">
        <ele>4.8</ele>
        <time>2021-05-19T08:16:26Z</time>
      </trkpt>
      <trkpt lat="42.0020290" lon="-8.8766880">
        <ele>4.8</ele>
        <time>2021-05-19T08:16:27Z</time>
      </trkpt>
      <trkpt lat="42.0020370" lon="-8.8766790">
        <ele>4.8</ele>
        <time>2021-05-19T08:16:28Z</time>
      </trkpt>
      <trkpt lat="42.0020610" lon="-8.8766650">
        <ele>4.7</ele>
        <time>2021-05-19T08:16:29Z</time>
      </trkpt>
      <trkpt lat="42.0020730" lon="-8.8766620">
        <ele>4.7</ele>
        <time>2021-05-19T08:16:30Z</time>
      </trkpt>
      <trkpt lat="42.0020880" lon="-8.8766500">
        <ele>4.7</ele>
        <time>2021-05-19T08:16:31Z</time>
      </trkpt>
      <trkpt lat="42.0021010" lon="-8.8766480">
        <ele>4.7</ele>
        <time>2021-05-19T08:16:32Z</time>
      </trkpt>
      <trkpt lat="42.0021090" lon="-8.8766500">
        <ele>4.7</ele>
        <time>2021-05-19T08:16:33Z</time>
      </trkpt>
      <trkpt lat="42.0021160" lon="-8.8766400">
        <ele>4.7</ele>
        <time>2021-05-19T08:16:34Z</time>
      </trkpt>
      <trkpt lat="42.0021320" lon="-8.8766280">
        <ele>4.7</ele>
        <time>2021-05-19T08:16:35Z</time>
      </trkpt>
      <trkpt lat="42.0021420" lon="-8.8766220">
        <ele>4.7</ele>
        <time>2021-05-19T08:16:36Z</time>
      </trkpt>
      <trkpt lat="42.0021520" lon="-8.8766150">
        <ele>4.7</ele>
        <time>2021-05-19T08:16:37Z</time>
      </trkpt>
      <trkpt lat="42.0021600" lon="-8.8766080">
        <ele>4.7</ele>
        <time>2021-05-19T08:16:38Z</time>
      </trkpt>
      <trkpt lat="42.0021660" lon="-8.8766130">
        <ele>4.7</ele>
        <time>2021-05-19T08:16:39Z</time>
      </trkpt>
      <trkpt lat="42.0021760" lon="-8.8766200">
        <ele>4.7</ele>
        <time>2021-05-19T08:16:40Z</time>
      </trkpt>
      <trkpt lat="42.0021850" lon="-8.8766160">
        <ele>4.8</ele>
        <time>2021-05-19T08:16:41Z</time>
      </trkpt>
      <trkpt lat="42.0021930" lon="-8.8766150">
        <ele>4.8</ele>
        <time>2021-05-19T08:16:42Z</time>
      </trkpt>
      <trkpt lat="42.0022050" lon="-8.8766100">
        <ele>4.8</ele>
        <time>2021-05-19T08:16:43Z</time>
      </trkpt>
      <trkpt lat="42.0022170" lon="-8.8766140">
        <ele>4.8</ele>
        <time>2021-05-19T08:16:44Z</time>
      </trkpt>
      <trkpt lat="42.0022320" lon="-8.8766130">
        <ele>4.8</ele>
        <time>2021-05-19T08:16:45Z</time>
      </trkpt>
      <trkpt lat="42.0022490" lon="-8.8766090">
        <ele>4.8</ele>
        <time>2021-05-19T08:16:46Z</time>
      </trkpt>
      <trkpt lat="42.0022610" lon="-8.8766070">
        <ele>4.8</ele>
        <time>2021-05-19T08:16:47Z</time>
      </trkpt>
      <trkpt lat="42.0022700" lon="-8.8766170">
        <ele>4.8</ele>
        <time>2021-05-19T08:16:48Z</time>
      </trkpt>
      <trkpt lat="42.0022840" lon="-8.8766110">
        <ele>4.8</ele>
        <time>2021-05-19T08:16:49Z</time>
      </trkpt>
      <trkpt lat="42.0022940" lon="-8.8766220">
        <ele>4.8</ele>
        <time>2021-05-19T08:16:50Z</time>
      </trkpt>
      <trkpt lat="42.0023030" lon="-8.8766240">
        <ele>4.8</ele>
        <time>2021-05-19T08:16:51Z</time>
      </trkpt>
      <trkpt lat="42.0023190" lon="-8.8766200">
        <ele>4.8</ele>
        <time>2021-05-19T08:16:52Z</time>
      </trkpt>
      <trkpt lat="42.0023450" lon="-8.8766140">
        <ele>4.8</ele>
        <time>2021-05-19T08:16:53Z</time>
      </trkpt>
      <trkpt lat="42.0023540" lon="-8.8766130">
        <ele>4.8</ele>
        <time>2021-05-19T08:16:54Z</time>
      </trkpt>
      <trkpt lat="42.0023620" lon="-8.8766120">
        <ele>4.8</ele>
        <time>2021-05-19T08:16:55Z</time>
      </trkpt>
      <trkpt lat="42.0023840" lon="-8.8766180">
        <ele>4.8</ele>
        <time>2021-05-19T08:16:56Z</time>
      </trkpt>
      <trkpt lat="42.0023900" lon="-8.8766220">
        <ele>4.8</ele>
        <time>2021-05-19T08:16:57Z</time>
      </trkpt>
      <trkpt lat="42.0023970" lon="-8.8766260">
        <ele>4.8</ele>
        <time>2021-05-19T08:16:58Z</time>
      </trkpt>
      <trkpt lat="42.0024120" lon="-8.8766380">
        <ele>4.8</ele>
        <time>2021-05-19T08:16:59Z</time>
      </trkpt>
      <trkpt lat="42.0024250" lon="-8.8766360">
        <ele>4.8</ele>
        <time>2021-05-19T08:17:00Z</time>
      </trkpt>
      <trkpt lat="42.0024290" lon="-8.8766440">
        <ele>4.8</ele>
        <time>2021-05-19T08:17:01Z</time>
      </trkpt>
      <trkpt lat="42.0024330" lon="-8.8766450">
        <ele>4.8</ele>
        <time>2021-05-19T08:17:02Z</time>
      </trkpt>
      <trkpt lat="42.0024280" lon="-8.8766430">
        <ele>4.8</ele>
        <time>2021-05-19T08:17:03Z</time>
      </trkpt>
      <trkpt lat="42.0024260" lon="-8.8766420">
        <ele>4.8</ele>
        <time>2021-05-19T08:17:04Z</time>
      </trkpt>
      <trkpt lat="42.0024260" lon="-8.8766410">
        <ele>4.8</ele>
        <time>2021-05-19T08:17:05Z</time>
      </trkpt>
      <trkpt lat="42.0024250" lon="-8.8766410">
        <ele>4.8</ele>
        <time>2021-05-19T08:17:06Z</time>
      </trkpt>
      <trkpt lat="42.0024250" lon="-8.8766410">
        <ele>4.8</ele>
        <time>2021-05-19T08:17:07Z</time>
      </trkpt>
      <trkpt lat="42.0024250" lon="-8.8766410">
        <ele>4.8</ele>
        <time>2021-05-19T08:17:08Z</time>
      </trkpt>
      <trkpt lat="42.0024250" lon="-8.8766410">
        <ele>4.8</ele>
        <time>2021-05-19T08:17:09Z</time>
      </trkpt>
      <trkpt lat="42.0024190" lon="-8.8766360">
        <ele>4.8</ele>
        <time>2021-05-19T08:17:10Z</time>
      </trkpt>
      <trkpt lat="42.0024190" lon="-8.8766360">
        <ele>4.8</ele>
        <time>2021-05-19T08:17:11Z</time>
      </trkpt>
      <trkpt lat="42.0024190" lon="-8.8766340">
        <ele>4.8</ele>
        <time>2021-05-19T08:17:12Z</time>
      </trkpt>
      <trkpt lat="42.0024200" lon="-8.8766340">
        <ele>4.8</ele>
        <time>2021-05-19T08:17:13Z</time>
      </trkpt>
      <trkpt lat="42.0024220" lon="-8.8766350">
        <ele>4.8</ele>
        <time>2021-05-19T08:17:14Z</time>
      </trkpt>
      <trkpt lat="42.0024330" lon="-8.8766400">
        <ele>4.8</ele>
        <time>2021-05-19T08:17:15Z</time>
      </trkpt>
      <trkpt lat="42.0024390" lon="-8.8766370">
        <ele>4.8</ele>
        <time>2021-05-19T08:17:16Z</time>
      </trkpt>
      <trkpt lat="42.0024410" lon="-8.8766390">
        <ele>4.8</ele>
        <time>2021-05-19T08:17:17Z</time>
      </trkpt>
      <trkpt lat="42.0024550" lon="-8.8766350">
        <ele>4.8</ele>
        <time>2021-05-19T08:17:18Z</time>
      </trkpt>
      <trkpt lat="42.0024720" lon="-8.8766370">
        <ele>4.8</ele>
        <time>2021-05-19T08:17:19Z</time>
      </trkpt>
      <trkpt lat="42.0024810" lon="-8.8766370">
        <ele>4.8</ele>
        <time>2021-05-19T08:17:20Z</time>
      </trkpt>
      <trkpt lat="42.0024890" lon="-8.8766370">
        <ele>4.8</ele>
        <time>2021-05-19T08:17:21Z</time>
      </trkpt>
      <trkpt lat="42.0024980" lon="-8.8766370">
        <ele>4.8</ele>
        <time>2021-05-19T08:17:22Z</time>
      </trkpt>
      <trkpt lat="42.0025020" lon="-8.8766500">
        <ele>4.8</ele>
        <time>2021-05-19T08:17:23Z</time>
      </trkpt>
      <trkpt lat="42.0025190" lon="-8.8766450">
        <ele>4.8</ele>
        <time>2021-05-19T08:17:24Z</time>
      </trkpt>
      <trkpt lat="42.0025290" lon="-8.8766500">
        <ele>4.9</ele>
        <time>2021-05-19T08:17:25Z</time>
      </trkpt>
      <trkpt lat="42.0025350" lon="-8.8766530">
        <ele>4.9</ele>
        <time>2021-05-19T08:17:26Z</time>
      </trkpt>
      <trkpt lat="42.0025550" lon="-8.8766560">
        <ele>4.9</ele>
        <time>2021-05-19T08:17:27Z</time>
      </trkpt>
      <trkpt lat="42.0025630" lon="-8.8766540">
        <ele>4.9</ele>
        <time>2021-05-19T08:17:28Z</time>
      </trkpt>
      <trkpt lat="42.0025730" lon="-8.8766710">
        <ele>4.9</ele>
        <time>2021-05-19T08:17:29Z</time>
      </trkpt>
      <trkpt lat="42.0025750" lon="-8.8766680">
        <ele>4.9</ele>
        <time>2021-05-19T08:17:30Z</time>
      </trkpt>
      <trkpt lat="42.0025890" lon="-8.8766740">
        <ele>4.9</ele>
        <time>2021-05-19T08:17:31Z</time>
      </trkpt>
      <trkpt lat="42.0026030" lon="-8.8766800">
        <ele>4.9</ele>
        <time>2021-05-19T08:17:32Z</time>
      </trkpt>
      <trkpt lat="42.0026150" lon="-8.8766820">
        <ele>4.9</ele>
        <time>2021-05-19T08:17:33Z</time>
      </trkpt>
      <trkpt lat="42.0026270" lon="-8.8766830">
        <ele>4.9</ele>
        <time>2021-05-19T08:17:34Z</time>
      </trkpt>
      <trkpt lat="42.0026440" lon="-8.8766930">
        <ele>4.9</ele>
        <time>2021-05-19T08:17:35Z</time>
      </trkpt>
      <trkpt lat="42.0026570" lon="-8.8766990">
        <ele>4.9</ele>
        <time>2021-05-19T08:17:36Z</time>
      </trkpt>
      <trkpt lat="42.0026690" lon="-8.8767050">
        <ele>4.9</ele>
        <time>2021-05-19T08:17:37Z</time>
      </trkpt>
      <trkpt lat="42.0026870" lon="-8.8767090">
        <ele>4.9</ele>
        <time>2021-05-19T08:17:38Z</time>
      </trkpt>
      <trkpt lat="42.0026960" lon="-8.8767130">
        <ele>4.9</ele>
        <time>2021-05-19T08:17:39Z</time>
      </trkpt>
      <trkpt lat="42.0027050" lon="-8.8767160">
        <ele>4.9</ele>
        <time>2021-05-19T08:17:40Z</time>
      </trkpt>
      <trkpt lat="42.0027180" lon="-8.8767170">
        <ele>4.9</ele>
        <time>2021-05-19T08:17:41Z</time>
      </trkpt>
      <trkpt lat="42.0027240" lon="-8.8767340">
        <ele>4.9</ele>
        <time>2021-05-19T08:17:42Z</time>
      </trkpt>
      <trkpt lat="42.0027370" lon="-8.8767230">
        <ele>4.9</ele>
        <time>2021-05-19T08:17:43Z</time>
      </trkpt>
      <trkpt lat="42.0027610" lon="-8.8767370">
        <ele>5.0</ele>
        <time>2021-05-19T08:17:44Z</time>
      </trkpt>
      <trkpt lat="42.0027710" lon="-8.8767400">
        <ele>5.0</ele>
        <time>2021-05-19T08:17:45Z</time>
      </trkpt>
      <trkpt lat="42.0027790" lon="-8.8767420">
        <ele>5.0</ele>
        <time>2021-05-19T08:17:46Z</time>
      </trkpt>
      <trkpt lat="42.0027900" lon="-8.8767430">
        <ele>5.0</ele>
        <time>2021-05-19T08:17:47Z</time>
      </trkpt>
      <trkpt lat="42.0028050" lon="-8.8767580">
        <ele>5.0</ele>
        <time>2021-05-19T08:17:48Z</time>
      </trkpt>
      <trkpt lat="42.0028180" lon="-8.8767660">
        <ele>5.0</ele>
        <time>2021-05-19T08:17:49Z</time>
      </trkpt>
      <trkpt lat="42.0028310" lon="-8.8767760">
        <ele>5.0</ele>
        <time>2021-05-19T08:17:50Z</time>
      </trkpt>
      <trkpt lat="42.0028400" lon="-8.8767860">
        <ele>5.0</ele>
        <time>2021-05-19T08:17:51Z</time>
      </trkpt>
      <trkpt lat="42.0028540" lon="-8.8767880">
        <ele>5.0</ele>
        <time>2021-05-19T08:17:52Z</time>
      </trkpt>
      <trkpt lat="42.0028560" lon="-8.8768080">
        <ele>5.0</ele>
        <time>2021-05-19T08:17:53Z</time>
      </trkpt>
      <trkpt lat="42.0028720" lon="-8.8768240">
        <ele>5.1</ele>
        <time>2021-05-19T08:17:54Z</time>
      </trkpt>
      <trkpt lat="42.0028780" lon="-8.8768290">
        <ele>5.1</ele>
        <time>2021-05-19T08:17:55Z</time>
      </trkpt>
      <trkpt lat="42.0028830" lon="-8.8768330">
        <ele>5.1</ele>
        <time>2021-05-19T08:17:56Z</time>
      </trkpt>
      <trkpt lat="42.0028880" lon="-8.8768380">
        <ele>5.1</ele>
        <time>2021-05-19T08:17:57Z</time>
      </trkpt>
      <trkpt lat="42.0028860" lon="-8.8768230">
        <ele>5.1</ele>
        <time>2021-05-19T08:17:58Z</time>
      </trkpt>
      <trkpt lat="42.0028880" lon="-8.8768150">
        <ele>5.1</ele>
        <time>2021-05-19T08:17:59Z</time>
      </trkpt>
      <trkpt lat="42.0028880" lon="-8.8768070">
        <ele>5.1</ele>
        <time>2021-05-19T08:18:00Z</time>
      </trkpt>
      <trkpt lat="42.0028900" lon="-8.8768060">
        <ele>5.1</ele>
        <time>2021-05-19T08:18:01Z</time>
      </trkpt>
      <trkpt lat="42.0028910" lon="-8.8768060">
        <ele>5.1</ele>
        <time>2021-05-19T08:18:02Z</time>
      </trkpt>
      <trkpt lat="42.0028930" lon="-8.8768020">
        <ele>5.1</ele>
        <time>2021-05-19T08:18:03Z</time>
      </trkpt>
      <trkpt lat="42.0029020" lon="-8.8768170">
        <ele>5.1</ele>
        <time>2021-05-19T08:18:04Z</time>
      </trkpt>
      <trkpt lat="42.0029100" lon="-8.8768200">
        <ele>5.2</ele>
        <time>2021-05-19T08:18:05Z</time>
      </trkpt>
      <trkpt lat="42.0029220" lon="-8.8768250">
        <ele>5.2</ele>
        <time>2021-05-19T08:18:06Z</time>
      </trkpt>
      <trkpt lat="42.0029330" lon="-8.8768290">
        <ele>5.2</ele>
        <time>2021-05-19T08:18:07Z</time>
      </trkpt>
      <trkpt lat="42.0029430" lon="-8.8768510">
        <ele>5.2</ele>
        <time>2021-05-19T08:18:08Z</time>
      </trkpt>
      <trkpt lat="42.0029540" lon="-8.8768540">
        <ele>5.2</ele>
        <time>2021-05-19T08:18:09Z</time>
      </trkpt>
      <trkpt lat="42.0029600" lon="-8.8768620">
        <ele>5.3</ele>
        <time>2021-05-19T08:18:10Z</time>
      </trkpt>
      <trkpt lat="42.0029720" lon="-8.8768720">
        <ele>5.3</ele>
        <time>2021-05-19T08:18:11Z</time>
      </trkpt>
      <trkpt lat="42.0029890" lon="-8.8768700">
        <ele>5.3</ele>
        <time>2021-05-19T08:18:12Z</time>
      </trkpt>
      <trkpt lat="42.0030000" lon="-8.8768750">
        <ele>5.4</ele>
        <time>2021-05-19T08:18:13Z</time>
      </trkpt>
      <trkpt lat="42.0030050" lon="-8.8768980">
        <ele>5.4</ele>
        <time>2021-05-19T08:18:14Z</time>
      </trkpt>
      <trkpt lat="42.0030200" lon="-8.8769040">
        <ele>5.5</ele>
        <time>2021-05-19T08:18:15Z</time>
      </trkpt>
      <trkpt lat="42.0030120" lon="-8.8768960">
        <ele>5.5</ele>
        <time>2021-05-19T08:18:16Z</time>
      </trkpt>
      <trkpt lat="42.0029960" lon="-8.8768810">
        <ele>5.5</ele>
        <time>2021-05-19T08:18:17Z</time>
      </trkpt>
      <trkpt lat="42.0030030" lon="-8.8768760">
        <ele>5.6</ele>
        <time>2021-05-19T08:18:18Z</time>
      </trkpt>
      <trkpt lat="42.0030070" lon="-8.8768770">
        <ele>5.6</ele>
        <time>2021-05-19T08:18:19Z</time>
      </trkpt>
      <trkpt lat="42.0030120" lon="-8.8768780">
        <ele>5.6</ele>
        <time>2021-05-19T08:18:20Z</time>
      </trkpt>
      <trkpt lat="42.0030170" lon="-8.8768790">
        <ele>5.6</ele>
        <time>2021-05-19T08:18:21Z</time>
      </trkpt>
      <trkpt lat="42.0030210" lon="-8.8768810">
        <ele>5.6</ele>
        <time>2021-05-19T08:18:22Z</time>
      </trkpt>
      <trkpt lat="42.0030260" lon="-8.8768820">
        <ele>5.6</ele>
        <time>2021-05-19T08:18:23Z</time>
      </trkpt>
      <trkpt lat="42.0030310" lon="-8.8768830">
        <ele>5.7</ele>
        <time>2021-05-19T08:18:24Z</time>
      </trkpt>
      <trkpt lat="42.0030350" lon="-8.8768840">
        <ele>5.7</ele>
        <time>2021-05-19T08:18:25Z</time>
      </trkpt>
      <trkpt lat="42.0030400" lon="-8.8768850">
        <ele>5.7</ele>
        <time>2021-05-19T08:18:26Z</time>
      </trkpt>
      <trkpt lat="42.0030560" lon="-8.8769210">
        <ele>5.8</ele>
        <time>2021-05-19T08:18:27Z</time>
      </trkpt>
      <trkpt lat="42.0030640" lon="-8.8769230">
        <ele>5.9</ele>
        <time>2021-05-19T08:18:28Z</time>
      </trkpt>
      <trkpt lat="42.0030690" lon="-8.8769560">
        <ele>6.0</ele>
        <time>2021-05-19T08:18:29Z</time>
      </trkpt>
      <trkpt lat="42.0030820" lon="-8.8769550">
        <ele>6.0</ele>
        <time>2021-05-19T08:18:30Z</time>
      </trkpt>
      <trkpt lat="42.0030940" lon="-8.8769720">
        <ele>6.1</ele>
        <time>2021-05-19T08:18:31Z</time>
      </trkpt>
      <trkpt lat="42.0031010" lon="-8.8769760">
        <ele>6.1</ele>
        <time>2021-05-19T08:18:32Z</time>
      </trkpt>
      <trkpt lat="42.0031070" lon="-8.8769810">
        <ele>6.2</ele>
        <time>2021-05-19T08:18:33Z</time>
      </trkpt>
      <trkpt lat="42.0031130" lon="-8.8769850">
        <ele>6.2</ele>
        <time>2021-05-19T08:18:34Z</time>
      </trkpt>
      <trkpt lat="42.0031170" lon="-8.8769930">
        <ele>6.2</ele>
        <time>2021-05-19T08:18:35Z</time>
      </trkpt>
      <trkpt lat="42.0031230" lon="-8.8770050">
        <ele>6.3</ele>
        <time>2021-05-19T08:18:36Z</time>
      </trkpt>
      <trkpt lat="42.0031360" lon="-8.8770160">
        <ele>6.4</ele>
        <time>2021-05-19T08:18:37Z</time>
      </trkpt>
      <trkpt lat="42.0031490" lon="-8.8770340">
        <ele>6.5</ele>
        <time>2021-05-19T08:18:38Z</time>
      </trkpt>
      <trkpt lat="42.0031590" lon="-8.8770390">
        <ele>6.5</ele>
        <time>2021-05-19T08:18:39Z</time>
      </trkpt>
      <trkpt lat="42.0031680" lon="-8.8770440">
        <ele>6.6</ele>
        <time>2021-05-19T08:18:40Z</time>
      </trkpt>
      <trkpt lat="42.0031710" lon="-8.8770560">
        <ele>6.6</ele>
        <time>2021-05-19T08:18:41Z</time>
      </trkpt>
      <trkpt lat="42.0031820" lon="-8.8770690">
        <ele>6.7</ele>
        <time>2021-05-19T08:18:42Z</time>
      </trkpt>
      <trkpt lat="42.0031900" lon="-8.8770800">
        <ele>6.7</ele>
        <time>2021-05-19T08:18:43Z</time>
      </trkpt>
      <trkpt lat="42.0032020" lon="-8.8770860">
        <ele>6.8</ele>
        <time>2021-05-19T08:18:44Z</time>
      </trkpt>
      <trkpt lat="42.0032130" lon="-8.8770830">
        <ele>6.9</ele>
        <time>2021-05-19T08:18:45Z</time>
      </trkpt>
      <trkpt lat="42.0032250" lon="-8.8770860">
        <ele>6.9</ele>
        <time>2021-05-19T08:18:46Z</time>
      </trkpt>
      <trkpt lat="42.0032430" lon="-8.8770850">
        <ele>7.0</ele>
        <time>2021-05-19T08:18:47Z</time>
      </trkpt>
      <trkpt lat="42.0032500" lon="-8.8770970">
        <ele>7.1</ele>
        <time>2021-05-19T08:18:48Z</time>
      </trkpt>
      <trkpt lat="42.0032560" lon="-8.8771080">
        <ele>7.1</ele>
        <time>2021-05-19T08:18:49Z</time>
      </trkpt>
      <trkpt lat="42.0032670" lon="-8.8771180">
        <ele>7.2</ele>
        <time>2021-05-19T08:18:50Z</time>
      </trkpt>
      <trkpt lat="42.0032750" lon="-8.8771280">
        <ele>7.3</ele>
        <time>2021-05-19T08:18:51Z</time>
      </trkpt>
      <trkpt lat="42.0032840" lon="-8.8771390">
        <ele>7.3</ele>
        <time>2021-05-19T08:18:52Z</time>
      </trkpt>
      <trkpt lat="42.0032990" lon="-8.8771460">
        <ele>7.4</ele>
        <time>2021-05-19T08:18:53Z</time>
      </trkpt>
      <trkpt lat="42.0033070" lon="-8.8771520">
        <ele>7.5</ele>
        <time>2021-05-19T08:18:54Z</time>
      </trkpt>
      <trkpt lat="42.0033140" lon="-8.8771580">
        <ele>7.5</ele>
        <time>2021-05-19T08:18:55Z</time>
      </trkpt>
      <trkpt lat="42.0033210" lon="-8.8771640">
        <ele>7.5</ele>
        <time>2021-05-19T08:18:56Z</time>
      </trkpt>
      <trkpt lat="42.0033330" lon="-8.8771640">
        <ele>7.6</ele>
        <time>2021-05-19T08:18:57Z</time>
      </trkpt>
      <trkpt lat="42.0033440" lon="-8.8771730">
        <ele>7.7</ele>
        <time>2021-05-19T08:18:58Z</time>
      </trkpt>
      <trkpt lat="42.0033520" lon="-8.8771810">
        <ele>7.7</ele>
        <time>2021-05-19T08:18:59Z</time>
      </trkpt>
      <trkpt lat="42.0033620" lon="-8.8771930">
        <ele>7.8</ele>
        <time>2021-05-19T08:19:00Z</time>
      </trkpt>
      <trkpt lat="42.0033770" lon="-8.8771980">
        <ele>7.9</ele>
        <time>2021-05-19T08:19:01Z</time>
      </trkpt>
      <trkpt lat="42.0033860" lon="-8.8771980">
        <ele>7.9</ele>
        <time>2021-05-19T08:19:02Z</time>
      </trkpt>
      <trkpt lat="42.0034010" lon="-8.8772060">
        <ele>8.0</ele>
        <time>2021-05-19T08:19:03Z</time>
      </trkpt>
      <trkpt lat="42.0034110" lon="-8.8772130">
        <ele>8.1</ele>
        <time>2021-05-19T08:19:04Z</time>
      </trkpt>
      <trkpt lat="42.0034280" lon="-8.8772230">
        <ele>8.2</ele>
        <time>2021-05-19T08:19:05Z</time>
      </trkpt>
      <trkpt lat="42.0034440" lon="-8.8772330">
        <ele>8.3</ele>
        <time>2021-05-19T08:19:06Z</time>
      </trkpt>
      <trkpt lat="42.0034660" lon="-8.8772390">
        <ele>8.4</ele>
        <time>2021-05-19T08:19:07Z</time>
      </trkpt>
      <trkpt lat="42.0034750" lon="-8.8772440">
        <ele>8.4</ele>
        <time>2021-05-19T08:19:08Z</time>
      </trkpt>
      <trkpt lat="42.0034850" lon="-8.8772500">
        <ele>8.5</ele>
        <time>2021-05-19T08:19:09Z</time>
      </trkpt>
      <trkpt lat="42.0035010" lon="-8.8772690">
        <ele>8.6</ele>
        <time>2021-05-19T08:19:10Z</time>
      </trkpt>
      <trkpt lat="42.0035100" lon="-8.8772760">
        <ele>8.6</ele>
        <time>2021-05-19T08:19:11Z</time>
      </trkpt>
      <trkpt lat="42.0035190" lon="-8.8772840">
        <ele>8.7</ele>
        <time>2021-05-19T08:19:12Z</time>
      </trkpt>
      <trkpt lat="42.0035300" lon="-8.8772920">
        <ele>8.7</ele>
        <time>2021-05-19T08:19:13Z</time>
      </trkpt>
      <trkpt lat="42.0035420" lon="-8.8773050">
        <ele>8.8</ele>
        <time>2021-05-19T08:19:14Z</time>
      </trkpt>
      <trkpt lat="42.0035570" lon="-8.8773180">
        <ele>8.9</ele>
        <time>2021-05-19T08:19:15Z</time>
      </trkpt>
      <trkpt lat="42.0035660" lon="-8.8773260">
        <ele>9.0</ele>
        <time>2021-05-19T08:19:16Z</time>
      </trkpt>
      <trkpt lat="42.0035800" lon="-8.8773480">
        <ele>9.1</ele>
        <time>2021-05-19T08:19:17Z</time>
      </trkpt>
      <trkpt lat="42.0035850" lon="-8.8773570">
        <ele>9.1</ele>
        <time>2021-05-19T08:19:18Z</time>
      </trkpt>
      <trkpt lat="42.0035900" lon="-8.8773650">
        <ele>9.1</ele>
        <time>2021-05-19T08:19:19Z</time>
      </trkpt>
      <trkpt lat="42.0035970" lon="-8.8773800">
        <ele>9.2</ele>
        <time>2021-05-19T08:19:20Z</time>
      </trkpt>
      <trkpt lat="42.0036040" lon="-8.8773920">
        <ele>9.3</ele>
        <time>2021-05-19T08:19:21Z</time>
      </trkpt>
      <trkpt lat="42.0036100" lon="-8.8774030">
        <ele>9.3</ele>
        <time>2021-05-19T08:19:22Z</time>
      </trkpt>
      <trkpt lat="42.0036270" lon="-8.8774210">
        <ele>9.4</ele>
        <time>2021-05-19T08:19:23Z</time>
      </trkpt>
      <trkpt lat="42.0036330" lon="-8.8774280">
        <ele>9.4</ele>
        <time>2021-05-19T08:19:24Z</time>
      </trkpt>
      <trkpt lat="42.0036390" lon="-8.8774340">
        <ele>9.5</ele>
        <time>2021-05-19T08:19:25Z</time>
      </trkpt>
      <trkpt lat="42.0036470" lon="-8.8774450">
        <ele>9.5</ele>
        <time>2021-05-19T08:19:26Z</time>
      </trkpt>
      <trkpt lat="42.0036570" lon="-8.8774620">
        <ele>9.6</ele>
        <time>2021-05-19T08:19:27Z</time>
      </trkpt>
      <trkpt lat="42.0036660" lon="-8.8774720">
        <ele>9.5</ele>
        <time>2021-05-19T08:19:28Z</time>
      </trkpt>
      <trkpt lat="42.0036710" lon="-8.8774840">
        <ele>9.6</ele>
        <time>2021-05-19T08:19:29Z</time>
      </trkpt>
      <trkpt lat="42.0036810" lon="-8.8774880">
        <ele>9.6</ele>
        <time>2021-05-19T08:19:30Z</time>
      </trkpt>
      <trkpt lat="42.0036890" lon="-8.8774970">
        <ele>9.7</ele>
        <time>2021-05-19T08:19:31Z</time>
      </trkpt>
      <trkpt lat="42.0036980" lon="-8.8775080">
        <ele>9.7</ele>
        <time>2021-05-19T08:19:32Z</time>
      </trkpt>
      <trkpt lat="42.0037070" lon="-8.8775200">
        <ele>9.7</ele>
        <time>2021-05-19T08:19:33Z</time>
      </trkpt>
      <trkpt lat="42.0037230" lon="-8.8775400">
        <ele>9.8</ele>
        <time>2021-05-19T08:19:34Z</time>
      </trkpt>
      <trkpt lat="42.0037320" lon="-8.8775490">
        <ele>9.8</ele>
        <time>2021-05-19T08:19:35Z</time>
      </trkpt>
      <trkpt lat="42.0037400" lon="-8.8775570">
        <ele>9.9</ele>
        <time>2021-05-19T08:19:36Z</time>
      </trkpt>
      <trkpt lat="42.0037490" lon="-8.8775650">
        <ele>9.9</ele>
        <time>2021-05-19T08:19:37Z</time>
      </trkpt>
      <trkpt lat="42.0037580" lon="-8.8775780">
        <ele>10.0</ele>
        <time>2021-05-19T08:19:38Z</time>
      </trkpt>
      <trkpt lat="42.0037630" lon="-8.8775920">
        <ele>10.0</ele>
        <time>2021-05-19T08:19:39Z</time>
      </trkpt>
      <trkpt lat="42.0037740" lon="-8.8776000">
        <ele>10.1</ele>
        <time>2021-05-19T08:19:40Z</time>
      </trkpt>
      <trkpt lat="42.0037800" lon="-8.8776100">
        <ele>10.1</ele>
        <time>2021-05-19T08:19:41Z</time>
      </trkpt>
      <trkpt lat="42.0037870" lon="-8.8776230">
        <ele>10.1</ele>
        <time>2021-05-19T08:19:42Z</time>
      </trkpt>
      <trkpt lat="42.0037950" lon="-8.8776390">
        <ele>10.1</ele>
        <time>2021-05-19T08:19:43Z</time>
      </trkpt>
      <trkpt lat="42.0038000" lon="-8.8776530">
        <ele>10.2</ele>
        <time>2021-05-19T08:19:44Z</time>
      </trkpt>
      <trkpt lat="42.0038080" lon="-8.8776600">
        <ele>10.2</ele>
        <time>2021-05-19T08:19:45Z</time>
      </trkpt>
      <trkpt lat="42.0038070" lon="-8.8776600">
        <ele>10.2</ele>
        <time>2021-05-19T08:19:46Z</time>
      </trkpt>
      <trkpt lat="42.0038100" lon="-8.8776700">
        <ele>10.2</ele>
        <time>2021-05-19T08:19:47Z</time>
      </trkpt>
      <trkpt lat="42.0038100" lon="-8.8776770">
        <ele>10.2</ele>
        <time>2021-05-19T08:19:48Z</time>
      </trkpt>
      <trkpt lat="42.0038100" lon="-8.8776930">
        <ele>10.3</ele>
        <time>2021-05-19T08:19:49Z</time>
      </trkpt>
      <trkpt lat="42.0038180" lon="-8.8777060">
        <ele>10.4</ele>
        <time>2021-05-19T08:19:50Z</time>
      </trkpt>
      <trkpt lat="42.0038300" lon="-8.8777280">
        <ele>10.4</ele>
        <time>2021-05-19T08:19:51Z</time>
      </trkpt>
      <trkpt lat="42.0038360" lon="-8.8777370">
        <ele>10.5</ele>
        <time>2021-05-19T08:19:52Z</time>
      </trkpt>
      <trkpt lat="42.0038410" lon="-8.8777450">
        <ele>10.5</ele>
        <time>2021-05-19T08:19:53Z</time>
      </trkpt>
      <trkpt lat="42.0038520" lon="-8.8777680">
        <ele>10.6</ele>
        <time>2021-05-19T08:19:54Z</time>
      </trkpt>
      <trkpt lat="42.0038570" lon="-8.8777770">
        <ele>10.6</ele>
        <time>2021-05-19T08:19:55Z</time>
      </trkpt>
      <trkpt lat="42.0038620" lon="-8.8777860">
        <ele>10.6</ele>
        <time>2021-05-19T08:19:56Z</time>
      </trkpt>
      <trkpt lat="42.0038660" lon="-8.8778030">
        <ele>10.7</ele>
        <time>2021-05-19T08:19:57Z</time>
      </trkpt>
      <trkpt lat="42.0038690" lon="-8.8778150">
        <ele>10.7</ele>
        <time>2021-05-19T08:19:58Z</time>
      </trkpt>
      <trkpt lat="42.0038770" lon="-8.8778250">
        <ele>10.8</ele>
        <time>2021-05-19T08:19:59Z</time>
      </trkpt>
      <trkpt lat="42.0038920" lon="-8.8778490">
        <ele>10.9</ele>
        <time>2021-05-19T08:20:00Z</time>
      </trkpt>
      <trkpt lat="42.0038970" lon="-8.8778590">
        <ele>10.9</ele>
        <time>2021-05-19T08:20:01Z</time>
      </trkpt>
      <trkpt lat="42.0039010" lon="-8.8778680">
        <ele>10.9</ele>
        <time>2021-05-19T08:20:02Z</time>
      </trkpt>
      <trkpt lat="42.0039050" lon="-8.8778750">
        <ele>11.0</ele>
        <time>2021-05-19T08:20:03Z</time>
      </trkpt>
      <trkpt lat="42.0039050" lon="-8.8778740">
        <ele>11.0</ele>
        <time>2021-05-19T08:20:04Z</time>
      </trkpt>
      <trkpt lat="42.0039130" lon="-8.8778730">
        <ele>11.1</ele>
        <time>2021-05-19T08:20:05Z</time>
      </trkpt>
      <trkpt lat="42.0039180" lon="-8.8778770">
        <ele>11.1</ele>
        <time>2021-05-19T08:20:06Z</time>
      </trkpt>
      <trkpt lat="42.0039200" lon="-8.8778880">
        <ele>11.1</ele>
        <time>2021-05-19T08:20:07Z</time>
      </trkpt>
      <trkpt lat="42.0039230" lon="-8.8779050">
        <ele>11.1</ele>
        <time>2021-05-19T08:20:08Z</time>
      </trkpt>
      <trkpt lat="42.0039330" lon="-8.8779250">
        <ele>11.3</ele>
        <time>2021-05-19T08:20:09Z</time>
      </trkpt>
      <trkpt lat="42.0039390" lon="-8.8779370">
        <ele>11.3</ele>
        <time>2021-05-19T08:20:10Z</time>
      </trkpt>
      <trkpt lat="42.0039450" lon="-8.8779500">
        <ele>11.4</ele>
        <time>2021-05-19T08:20:11Z</time>
      </trkpt>
      <trkpt lat="42.0039550" lon="-8.8779630">
        <ele>11.4</ele>
        <time>2021-05-19T08:20:12Z</time>
      </trkpt>
      <trkpt lat="42.0039630" lon="-8.8779720">
        <ele>11.5</ele>
        <time>2021-05-19T08:20:13Z</time>
      </trkpt>
      <trkpt lat="42.0039710" lon="-8.8779840">
        <ele>11.5</ele>
        <time>2021-05-19T08:20:14Z</time>
      </trkpt>
      <trkpt lat="42.0039860" lon="-8.8780060">
        <ele>11.7</ele>
        <time>2021-05-19T08:20:15Z</time>
      </trkpt>
      <trkpt lat="42.0039920" lon="-8.8780130">
        <ele>11.6</ele>
        <time>2021-05-19T08:20:16Z</time>
      </trkpt>
      <trkpt lat="42.0039970" lon="-8.8780210">
        <ele>11.7</ele>
        <time>2021-05-19T08:20:17Z</time>
      </trkpt>
      <trkpt lat="42.0040060" lon="-8.8780380">
        <ele>11.8</ele>
        <time>2021-05-19T08:20:18Z</time>
      </trkpt>
      <trkpt lat="42.0040180" lon="-8.8780440">
        <ele>11.9</ele>
        <time>2021-05-19T08:20:19Z</time>
      </trkpt>
      <trkpt lat="42.0040250" lon="-8.8780510">
        <ele>11.9</ele>
        <time>2021-05-19T08:20:20Z</time>
      </trkpt>
      <trkpt lat="42.0040360" lon="-8.8780650">
        <ele>12.0</ele>
        <time>2021-05-19T08:20:21Z</time>
      </trkpt>
      <trkpt lat="42.0040440" lon="-8.8780720">
        <ele>12.0</ele>
        <time>2021-05-19T08:20:22Z</time>
      </trkpt>
      <trkpt lat="42.0040490" lon="-8.8780840">
        <ele>12.1</ele>
        <time>2021-05-19T08:20:23Z</time>
      </trkpt>
      <trkpt lat="42.0040620" lon="-8.8781060">
        <ele>12.2</ele>
        <time>2021-05-19T08:20:24Z</time>
      </trkpt>
      <trkpt lat="42.0040680" lon="-8.8781120">
        <ele>12.3</ele>
        <time>2021-05-19T08:20:25Z</time>
      </trkpt>
      <trkpt lat="42.0040750" lon="-8.8781260">
        <ele>12.3</ele>
        <time>2021-05-19T08:20:26Z</time>
      </trkpt>
      <trkpt lat="42.0040790" lon="-8.8781360">
        <ele>12.3</ele>
        <time>2021-05-19T08:20:27Z</time>
      </trkpt>
      <trkpt lat="42.0040810" lon="-8.8781450">
        <ele>12.3</ele>
        <time>2021-05-19T08:20:28Z</time>
      </trkpt>
      <trkpt lat="42.0040830" lon="-8.8781550">
        <ele>12.3</ele>
        <time>2021-05-19T08:20:29Z</time>
      </trkpt>
      <trkpt lat="42.0040830" lon="-8.8781670">
        <ele>12.3</ele>
        <time>2021-05-19T08:20:30Z</time>
      </trkpt>
      <trkpt lat="42.0040840" lon="-8.8781810">
        <ele>12.2</ele>
        <time>2021-05-19T08:20:31Z</time>
      </trkpt>
      <trkpt lat="42.0040820" lon="-8.8781850">
        <ele>12.2</ele>
        <time>2021-05-19T08:20:32Z</time>
      </trkpt>
      <trkpt lat="42.0040900" lon="-8.8782030">
        <ele>12.2</ele>
        <time>2021-05-19T08:20:33Z</time>
      </trkpt>
      <trkpt lat="42.0040940" lon="-8.8782230">
        <ele>12.1</ele>
        <time>2021-05-19T08:20:34Z</time>
      </trkpt>
      <trkpt lat="42.0041000" lon="-8.8782330">
        <ele>12.1</ele>
        <time>2021-05-19T08:20:35Z</time>
      </trkpt>
      <trkpt lat="42.0041040" lon="-8.8782520">
        <ele>12.0</ele>
        <time>2021-05-19T08:20:36Z</time>
      </trkpt>
      <trkpt lat="42.0041060" lon="-8.8782610">
        <ele>12.0</ele>
        <time>2021-05-19T08:20:37Z</time>
      </trkpt>
      <trkpt lat="42.0041140" lon="-8.8782610">
        <ele>11.9</ele>
        <time>2021-05-19T08:20:38Z</time>
      </trkpt>
      <trkpt lat="42.0041200" lon="-8.8782830">
        <ele>11.9</ele>
        <time>2021-05-19T08:20:39Z</time>
      </trkpt>
      <trkpt lat="42.0041260" lon="-8.8782900">
        <ele>11.8</ele>
        <time>2021-05-19T08:20:40Z</time>
      </trkpt>
      <trkpt lat="42.0041250" lon="-8.8782940">
        <ele>11.8</ele>
        <time>2021-05-19T08:20:41Z</time>
      </trkpt>
      <trkpt lat="42.0041370" lon="-8.8783080">
        <ele>11.7</ele>
        <time>2021-05-19T08:20:42Z</time>
      </trkpt>
      <trkpt lat="42.0041420" lon="-8.8783200">
        <ele>11.7</ele>
        <time>2021-05-19T08:20:43Z</time>
      </trkpt>
      <trkpt lat="42.0041560" lon="-8.8783380">
        <ele>11.6</ele>
        <time>2021-05-19T08:20:44Z</time>
      </trkpt>
      <trkpt lat="42.0041630" lon="-8.8783490">
        <ele>11.5</ele>
        <time>2021-05-19T08:20:45Z</time>
      </trkpt>
      <trkpt lat="42.0041680" lon="-8.8783590">
        <ele>11.5</ele>
        <time>2021-05-19T08:20:46Z</time>
      </trkpt>
      <trkpt lat="42.0041750" lon="-8.8783780">
        <ele>11.4</ele>
        <time>2021-05-19T08:20:47Z</time>
      </trkpt>
      <trkpt lat="42.0041820" lon="-8.8783820">
        <ele>11.4</ele>
        <time>2021-05-19T08:20:48Z</time>
      </trkpt>
      <trkpt lat="42.0041880" lon="-8.8783950">
        <ele>11.3</ele>
        <time>2021-05-19T08:20:49Z</time>
      </trkpt>
      <trkpt lat="42.0042000" lon="-8.8784140">
        <ele>11.3</ele>
        <time>2021-05-19T08:20:50Z</time>
      </trkpt>
      <trkpt lat="42.0042100" lon="-8.8784310">
        <ele>11.2</ele>
        <time>2021-05-19T08:20:51Z</time>
      </trkpt>
      <trkpt lat="42.0042160" lon="-8.8784430">
        <ele>11.2</ele>
        <time>2021-05-19T08:20:52Z</time>
      </trkpt>
      <trkpt lat="42.0042210" lon="-8.8784540">
        <ele>11.1</ele>
        <time>2021-05-19T08:20:53Z</time>
      </trkpt>
      <trkpt lat="42.0042260" lon="-8.8784650">
        <ele>11.1</ele>
        <time>2021-05-19T08:20:54Z</time>
      </trkpt>
      <trkpt lat="42.0042330" lon="-8.8784840">
        <ele>11.1</ele>
        <time>2021-05-19T08:20:55Z</time>
      </trkpt>
      <trkpt lat="42.0042380" lon="-8.8784950">
        <ele>11.0</ele>
        <time>2021-05-19T08:20:56Z</time>
      </trkpt>
      <trkpt lat="42.0042470" lon="-8.8785040">
        <ele>11.0</ele>
        <time>2021-05-19T08:20:57Z</time>
      </trkpt>
      <trkpt lat="42.0042470" lon="-8.8785220">
        <ele>10.9</ele>
        <time>2021-05-19T08:20:58Z</time>
      </trkpt>
      <trkpt lat="42.0042500" lon="-8.8785340">
        <ele>10.9</ele>
        <time>2021-05-19T08:20:59Z</time>
      </trkpt>
      <trkpt lat="42.0042610" lon="-8.8785480">
        <ele>10.9</ele>
        <time>2021-05-19T08:21:00Z</time>
      </trkpt>
      <trkpt lat="42.0042670" lon="-8.8785590">
        <ele>10.8</ele>
        <time>2021-05-19T08:21:01Z</time>
      </trkpt>
      <trkpt lat="42.0042670" lon="-8.8785770">
        <ele>10.8</ele>
        <time>2021-05-19T08:21:02Z</time>
      </trkpt>
      <trkpt lat="42.0042760" lon="-8.8786030">
        <ele>10.8</ele>
        <time>2021-05-19T08:21:03Z</time>
      </trkpt>
      <trkpt lat="42.0042800" lon="-8.8786120">
        <ele>10.7</ele>
        <time>2021-05-19T08:21:04Z</time>
      </trkpt>
      <trkpt lat="42.0042840" lon="-8.8786220">
        <ele>10.7</ele>
        <time>2021-05-19T08:21:05Z</time>
      </trkpt>
      <trkpt lat="42.0042880" lon="-8.8786450">
        <ele>10.7</ele>
        <time>2021-05-19T08:21:06Z</time>
      </trkpt>
      <trkpt lat="42.0042920" lon="-8.8786570">
        <ele>10.7</ele>
        <time>2021-05-19T08:21:07Z</time>
      </trkpt>
      <trkpt lat="42.0042950" lon="-8.8786700">
        <ele>10.7</ele>
        <time>2021-05-19T08:21:08Z</time>
      </trkpt>
      <trkpt lat="42.0043020" lon="-8.8786950">
        <ele>10.6</ele>
        <time>2021-05-19T08:21:09Z</time>
      </trkpt>
      <trkpt lat="42.0043050" lon="-8.8787120">
        <ele>10.6</ele>
        <time>2021-05-19T08:21:10Z</time>
      </trkpt>
      <trkpt lat="42.0043100" lon="-8.8787250">
        <ele>10.6</ele>
        <time>2021-05-19T08:21:11Z</time>
      </trkpt>
      <trkpt lat="42.0043040" lon="-8.8787280">
        <ele>10.6</ele>
        <time>2021-05-19T08:21:12Z</time>
      </trkpt>
      <trkpt lat="42.0043090" lon="-8.8787350">
        <ele>10.6</ele>
        <time>2021-05-19T08:21:13Z</time>
      </trkpt>
      <trkpt lat="42.0043100" lon="-8.8787520">
        <ele>10.6</ele>
        <time>2021-05-19T08:21:14Z</time>
      </trkpt>
      <trkpt lat="42.0043130" lon="-8.8787720">
        <ele>10.6</ele>
        <time>2021-05-19T08:21:15Z</time>
      </trkpt>
      <trkpt lat="42.0043160" lon="-8.8787840">
        <ele>10.6</ele>
        <time>2021-05-19T08:21:16Z</time>
      </trkpt>
      <trkpt lat="42.0043170" lon="-8.8787950">
        <ele>10.6</ele>
        <time>2021-05-19T08:21:17Z</time>
      </trkpt>
      <trkpt lat="42.0043280" lon="-8.8788240">
        <ele>10.5</ele>
        <time>2021-05-19T08:21:18Z</time>
      </trkpt>
      <trkpt lat="42.0043330" lon="-8.8788310">
        <ele>10.5</ele>
        <time>2021-05-19T08:21:19Z</time>
      </trkpt>
      <trkpt lat="42.0043380" lon="-8.8788390">
        <ele>10.5</ele>
        <time>2021-05-19T08:21:20Z</time>
      </trkpt>
      <trkpt lat="42.0043420" lon="-8.8788480">
        <ele>10.5</ele>
        <time>2021-05-19T08:21:21Z</time>
      </trkpt>
      <trkpt lat="42.0043510" lon="-8.8788600">
        <ele>10.5</ele>
        <time>2021-05-19T08:21:22Z</time>
      </trkpt>
      <trkpt lat="42.0043510" lon="-8.8788730">
        <ele>10.5</ele>
        <time>2021-05-19T08:21:23Z</time>
      </trkpt>
      <trkpt lat="42.0043490" lon="-8.8788930">
        <ele>10.5</ele>
        <time>2021-05-19T08:21:24Z</time>
      </trkpt>
      <trkpt lat="42.0043500" lon="-8.8788950">
        <ele>10.5</ele>
        <time>2021-05-19T08:21:25Z</time>
      </trkpt>
      <trkpt lat="42.0043500" lon="-8.8788980">
        <ele>10.5</ele>
        <time>2021-05-19T08:21:26Z</time>
      </trkpt>
      <trkpt lat="42.0043510" lon="-8.8789010">
        <ele>10.5</ele>
        <time>2021-05-19T08:21:27Z</time>
      </trkpt>
      <trkpt lat="42.0043510" lon="-8.8789030">
        <ele>10.5</ele>
        <time>2021-05-19T08:21:28Z</time>
      </trkpt>
      <trkpt lat="42.0043520" lon="-8.8789060">
        <ele>10.5</ele>
        <time>2021-05-19T08:21:29Z</time>
      </trkpt>
      <trkpt lat="42.0043520" lon="-8.8789090">
        <ele>10.5</ele>
        <time>2021-05-19T08:21:30Z</time>
      </trkpt>
      <trkpt lat="42.0043530" lon="-8.8789110">
        <ele>10.5</ele>
        <time>2021-05-19T08:21:31Z</time>
      </trkpt>
      <trkpt lat="42.0043530" lon="-8.8789140">
        <ele>10.5</ele>
        <time>2021-05-19T08:21:32Z</time>
      </trkpt>
      <trkpt lat="42.0043540" lon="-8.8789170">
        <ele>10.5</ele>
        <time>2021-05-19T08:21:33Z</time>
      </trkpt>
      <trkpt lat="42.0043540" lon="-8.8789190">
        <ele>10.5</ele>
        <time>2021-05-19T08:21:34Z</time>
      </trkpt>
      <trkpt lat="42.0043550" lon="-8.8789220">
        <ele>10.5</ele>
        <time>2021-05-19T08:21:35Z</time>
      </trkpt>
      <trkpt lat="42.0043550" lon="-8.8789250">
        <ele>10.5</ele>
        <time>2021-05-19T08:21:36Z</time>
      </trkpt>
      <trkpt lat="42.0043560" lon="-8.8789270">
        <ele>10.5</ele>
        <time>2021-05-19T08:21:37Z</time>
      </trkpt>
      <trkpt lat="42.0043560" lon="-8.8789300">
        <ele>10.5</ele>
        <time>2021-05-19T08:21:38Z</time>
      </trkpt>
      <trkpt lat="42.0043530" lon="-8.8789330">
        <ele>10.5</ele>
        <time>2021-05-19T08:21:39Z</time>
      </trkpt>
      <trkpt lat="42.0043530" lon="-8.8789350">
        <ele>10.5</ele>
        <time>2021-05-19T08:21:40Z</time>
      </trkpt>
      <trkpt lat="42.0043550" lon="-8.8789350">
        <ele>10.5</ele>
        <time>2021-05-19T08:21:41Z</time>
      </trkpt>
      <trkpt lat="42.0043550" lon="-8.8789350">
        <ele>10.5</ele>
        <time>2021-05-19T08:21:42Z</time>
      </trkpt>
      <trkpt lat="42.0043550" lon="-8.8789350">
        <ele>10.5</ele>
        <time>2021-05-19T08:21:43Z</time>
      </trkpt>
      <trkpt lat="42.0043530" lon="-8.8789380">
        <ele>10.5</ele>
        <time>2021-05-19T08:21:44Z</time>
      </trkpt>
      <trkpt lat="42.0043520" lon="-8.8789370">
        <ele>10.5</ele>
        <time>2021-05-19T08:21:45Z</time>
      </trkpt>
      <trkpt lat="42.0043550" lon="-8.8789360">
        <ele>10.5</ele>
        <time>2021-05-19T08:21:46Z</time>
      </trkpt>
      <trkpt lat="42.0043570" lon="-8.8789380">
        <ele>10.5</ele>
        <time>2021-05-19T08:21:47Z</time>
      </trkpt>
      <trkpt lat="42.0043590" lon="-8.8789520">
        <ele>10.5</ele>
        <time>2021-05-19T08:21:48Z</time>
      </trkpt>
      <trkpt lat="42.0043670" lon="-8.8789640">
        <ele>10.5</ele>
        <time>2021-05-19T08:21:49Z</time>
      </trkpt>
      <trkpt lat="42.0043790" lon="-8.8789770">
        <ele>10.5</ele>
        <time>2021-05-19T08:21:50Z</time>
      </trkpt>
      <trkpt lat="42.0043830" lon="-8.8789870">
        <ele>10.5</ele>
        <time>2021-05-19T08:21:51Z</time>
      </trkpt>
      <trkpt lat="42.0043860" lon="-8.8789970">
        <ele>10.5</ele>
        <time>2021-05-19T08:21:52Z</time>
      </trkpt>
      <trkpt lat="42.0043900" lon="-8.8790070">
        <ele>10.5</ele>
        <time>2021-05-19T08:21:53Z</time>
      </trkpt>
      <trkpt lat="42.0043990" lon="-8.8790440">
        <ele>10.5</ele>
        <time>2021-05-19T08:21:54Z</time>
      </trkpt>
      <trkpt lat="42.0044010" lon="-8.8790550">
        <ele>10.5</ele>
        <time>2021-05-19T08:21:55Z</time>
      </trkpt>
      <trkpt lat="42.0043990" lon="-8.8790630">
        <ele>10.5</ele>
        <time>2021-05-19T08:21:56Z</time>
      </trkpt>
      <trkpt lat="42.0044060" lon="-8.8790790">
        <ele>10.5</ele>
        <time>2021-05-19T08:21:57Z</time>
      </trkpt>
      <trkpt lat="42.0044080" lon="-8.8790920">
        <ele>10.5</ele>
        <time>2021-05-19T08:21:58Z</time>
      </trkpt>
      <trkpt lat="42.0044180" lon="-8.8791090">
        <ele>10.5</ele>
        <time>2021-05-19T08:21:59Z</time>
      </trkpt>
      <trkpt lat="42.0044230" lon="-8.8791240">
        <ele>10.5</ele>
        <time>2021-05-19T08:22:00Z</time>
      </trkpt>
      <trkpt lat="42.0044280" lon="-8.8791370">
        <ele>10.4</ele>
        <time>2021-05-19T08:22:01Z</time>
      </trkpt>
      <trkpt lat="42.0044300" lon="-8.8791440">
        <ele>10.4</ele>
        <time>2021-05-19T08:22:02Z</time>
      </trkpt>
      <trkpt lat="42.0044400" lon="-8.8791660">
        <ele>10.4</ele>
        <time>2021-05-19T08:22:03Z</time>
      </trkpt>
      <trkpt lat="42.0044470" lon="-8.8791870">
        <ele>10.4</ele>
        <time>2021-05-19T08:22:04Z</time>
      </trkpt>
      <trkpt lat="42.0044500" lon="-8.8791990">
        <ele>10.4</ele>
        <time>2021-05-19T08:22:05Z</time>
      </trkpt>
      <trkpt lat="42.0044540" lon="-8.8792120">
        <ele>10.4</ele>
        <time>2021-05-19T08:22:06Z</time>
      </trkpt>
      <trkpt lat="42.0044550" lon="-8.8792270">
        <ele>10.4</ele>
        <time>2021-05-19T08:22:07Z</time>
      </trkpt>
      <trkpt lat="42.0044600" lon="-8.8792410">
        <ele>10.4</ele>
        <time>2021-05-19T08:22:08Z</time>
      </trkpt>
      <trkpt lat="42.0044570" lon="-8.8792580">
        <ele>10.4</ele>
        <time>2021-05-19T08:22:09Z</time>
      </trkpt>
      <trkpt lat="42.0044640" lon="-8.8792820">
        <ele>10.4</ele>
        <time>2021-05-19T08:22:10Z</time>
      </trkpt>
      <trkpt lat="42.0044680" lon="-8.8792940">
        <ele>10.4</ele>
        <time>2021-05-19T08:22:11Z</time>
      </trkpt>
      <trkpt lat="42.0044710" lon="-8.8793050">
        <ele>10.4</ele>
        <time>2021-05-19T08:22:12Z</time>
      </trkpt>
      <trkpt lat="42.0044720" lon="-8.8793080">
        <ele>10.4</ele>
        <time>2021-05-19T08:22:13Z</time>
      </trkpt>
      <trkpt lat="42.0044760" lon="-8.8793220">
        <ele>10.4</ele>
        <time>2021-05-19T08:22:14Z</time>
      </trkpt>
      <trkpt lat="42.0044830" lon="-8.8793270">
        <ele>10.4</ele>
        <time>2021-05-19T08:22:15Z</time>
      </trkpt>
      <trkpt lat="42.0044880" lon="-8.8793430">
        <ele>10.4</ele>
        <time>2021-05-19T08:22:16Z</time>
      </trkpt>
      <trkpt lat="42.0045010" lon="-8.8793660">
        <ele>10.4</ele>
        <time>2021-05-19T08:22:17Z</time>
      </trkpt>
      <trkpt lat="42.0045070" lon="-8.8793740">
        <ele>10.3</ele>
        <time>2021-05-19T08:22:18Z</time>
      </trkpt>
      <trkpt lat="42.0045130" lon="-8.8793830">
        <ele>10.3</ele>
        <time>2021-05-19T08:22:19Z</time>
      </trkpt>
      <trkpt lat="42.0045240" lon="-8.8794060">
        <ele>10.3</ele>
        <time>2021-05-19T08:22:20Z</time>
      </trkpt>
      <trkpt lat="42.0045290" lon="-8.8794160">
        <ele>10.3</ele>
        <time>2021-05-19T08:22:21Z</time>
      </trkpt>
      <trkpt lat="42.0045340" lon="-8.8794270">
        <ele>10.3</ele>
        <time>2021-05-19T08:22:22Z</time>
      </trkpt>
      <trkpt lat="42.0045430" lon="-8.8794590">
        <ele>10.3</ele>
        <time>2021-05-19T08:22:23Z</time>
      </trkpt>
      <trkpt lat="42.0045460" lon="-8.8794690">
        <ele>10.3</ele>
        <time>2021-05-19T08:22:24Z</time>
      </trkpt>
      <trkpt lat="42.0045480" lon="-8.8794790">
        <ele>10.3</ele>
        <time>2021-05-19T08:22:25Z</time>
      </trkpt>
      <trkpt lat="42.0045560" lon="-8.8795030">
        <ele>10.3</ele>
        <time>2021-05-19T08:22:26Z</time>
      </trkpt>
      <trkpt lat="42.0045610" lon="-8.8795140">
        <ele>10.3</ele>
        <time>2021-05-19T08:22:27Z</time>
      </trkpt>
      <trkpt lat="42.0045650" lon="-8.8795240">
        <ele>10.3</ele>
        <time>2021-05-19T08:22:28Z</time>
      </trkpt>
      <trkpt lat="42.0045740" lon="-8.8795350">
        <ele>10.3</ele>
        <time>2021-05-19T08:22:29Z</time>
      </trkpt>
      <trkpt lat="42.0045850" lon="-8.8795520">
        <ele>10.3</ele>
        <time>2021-05-19T08:22:30Z</time>
      </trkpt>
      <trkpt lat="42.0045910" lon="-8.8795780">
        <ele>10.3</ele>
        <time>2021-05-19T08:22:31Z</time>
      </trkpt>
      <trkpt lat="42.0045930" lon="-8.8795890">
        <ele>10.3</ele>
        <time>2021-05-19T08:22:32Z</time>
      </trkpt>
      <trkpt lat="42.0045960" lon="-8.8795990">
        <ele>10.3</ele>
        <time>2021-05-19T08:22:33Z</time>
      </trkpt>
      <trkpt lat="42.0046030" lon="-8.8796180">
        <ele>10.3</ele>
        <time>2021-05-19T08:22:34Z</time>
      </trkpt>
      <trkpt lat="42.0046070" lon="-8.8796290">
        <ele>10.3</ele>
        <time>2021-05-19T08:22:35Z</time>
      </trkpt>
      <trkpt lat="42.0046090" lon="-8.8796420">
        <ele>10.3</ele>
        <time>2021-05-19T08:22:36Z</time>
      </trkpt>
      <trkpt lat="42.0046190" lon="-8.8796570">
        <ele>10.3</ele>
        <time>2021-05-19T08:22:37Z</time>
      </trkpt>
      <trkpt lat="42.0046280" lon="-8.8796680">
        <ele>10.3</ele>
        <time>2021-05-19T08:22:38Z</time>
      </trkpt>
      <trkpt lat="42.0046320" lon="-8.8796800">
        <ele>10.3</ele>
        <time>2021-05-19T08:22:39Z</time>
      </trkpt>
      <trkpt lat="42.0046430" lon="-8.8796910">
        <ele>10.3</ele>
        <time>2021-05-19T08:22:40Z</time>
      </trkpt>
      <trkpt lat="42.0046540" lon="-8.8797030">
        <ele>10.3</ele>
        <time>2021-05-19T08:22:41Z</time>
      </trkpt>
      <trkpt lat="42.0046610" lon="-8.8797140">
        <ele>10.3</ele>
        <time>2021-05-19T08:22:42Z</time>
      </trkpt>
      <trkpt lat="42.0046730" lon="-8.8797230">
        <ele>10.3</ele>
        <time>2021-05-19T08:22:43Z</time>
      </trkpt>
      <trkpt lat="42.0046800" lon="-8.8797290">
        <ele>10.3</ele>
        <time>2021-05-19T08:22:44Z</time>
      </trkpt>
      <trkpt lat="42.0046950" lon="-8.8797450">
        <ele>10.4</ele>
        <time>2021-05-19T08:22:45Z</time>
      </trkpt>
      <trkpt lat="42.0047050" lon="-8.8797470">
        <ele>10.4</ele>
        <time>2021-05-19T08:22:46Z</time>
      </trkpt>
      <trkpt lat="42.0047200" lon="-8.8797600">
        <ele>10.4</ele>
        <time>2021-05-19T08:22:47Z</time>
      </trkpt>
      <trkpt lat="42.0047300" lon="-8.8797710">
        <ele>10.4</ele>
        <time>2021-05-19T08:22:48Z</time>
      </trkpt>
      <trkpt lat="42.0047420" lon="-8.8797780">
        <ele>10.4</ele>
        <time>2021-05-19T08:22:49Z</time>
      </trkpt>
      <trkpt lat="42.0047500" lon="-8.8797780">
        <ele>10.4</ele>
        <time>2021-05-19T08:22:50Z</time>
      </trkpt>
      <trkpt lat="42.0047630" lon="-8.8797840">
        <ele>10.4</ele>
        <time>2021-05-19T08:22:51Z</time>
      </trkpt>
      <trkpt lat="42.0047710" lon="-8.8797900">
        <ele>10.4</ele>
        <time>2021-05-19T08:22:52Z</time>
      </trkpt>
      <trkpt lat="42.0047820" lon="-8.8797900">
        <ele>10.4</ele>
        <time>2021-05-19T08:22:53Z</time>
      </trkpt>
      <trkpt lat="42.0047910" lon="-8.8797940">
        <ele>10.4</ele>
        <time>2021-05-19T08:22:54Z</time>
      </trkpt>
      <trkpt lat="42.0048020" lon="-8.8798010">
        <ele>10.5</ele>
        <time>2021-05-19T08:22:55Z</time>
      </trkpt>
      <trkpt lat="42.0048190" lon="-8.8798050">
        <ele>10.5</ele>
        <time>2021-05-19T08:22:56Z</time>
      </trkpt>
      <trkpt lat="42.0048370" lon="-8.8798110">
        <ele>10.5</ele>
        <time>2021-05-19T08:22:57Z</time>
      </trkpt>
      <trkpt lat="42.0048460" lon="-8.8798150">
        <ele>10.5</ele>
        <time>2021-05-19T08:22:58Z</time>
      </trkpt>
      <trkpt lat="42.0048550" lon="-8.8798180">
        <ele>10.5</ele>
        <time>2021-05-19T08:22:59Z</time>
      </trkpt>
      <trkpt lat="42.0048670" lon="-8.8798280">
        <ele>10.5</ele>
        <time>2021-05-19T08:23:00Z</time>
      </trkpt>
      <trkpt lat="42.0048720" lon="-8.8798330">
        <ele>10.5</ele>
        <time>2021-05-19T08:23:01Z</time>
      </trkpt>
      <trkpt lat="42.0048880" lon="-8.8798400">
        <ele>10.6</ele>
        <time>2021-05-19T08:23:02Z</time>
      </trkpt>
      <trkpt lat="42.0049030" lon="-8.8798430">
        <ele>10.6</ele>
        <time>2021-05-19T08:23:03Z</time>
      </trkpt>
      <trkpt lat="42.0049160" lon="-8.8798550">
        <ele>10.6</ele>
        <time>2021-05-19T08:23:04Z</time>
      </trkpt>
      <trkpt lat="42.0049330" lon="-8.8798620">
        <ele>10.6</ele>
        <time>2021-05-19T08:23:05Z</time>
      </trkpt>
      <trkpt lat="42.0049430" lon="-8.8798670">
        <ele>10.6</ele>
        <time>2021-05-19T08:23:06Z</time>
      </trkpt>
      <trkpt lat="42.0049520" lon="-8.8798720">
        <ele>10.6</ele>
        <time>2021-05-19T08:23:07Z</time>
      </trkpt>
      <trkpt lat="42.0049600" lon="-8.8798800">
        <ele>10.6</ele>
        <time>2021-05-19T08:23:08Z</time>
      </trkpt>
      <trkpt lat="42.0049700" lon="-8.8798820">
        <ele>10.6</ele>
        <time>2021-05-19T08:23:09Z</time>
      </trkpt>
      <trkpt lat="42.0049770" lon="-8.8798890">
        <ele>10.7</ele>
        <time>2021-05-19T08:23:10Z</time>
      </trkpt>
      <trkpt lat="42.0049870" lon="-8.8799040">
        <ele>10.7</ele>
        <time>2021-05-19T08:23:11Z</time>
      </trkpt>
      <trkpt lat="42.0049900" lon="-8.8799130">
        <ele>10.7</ele>
        <time>2021-05-19T08:23:12Z</time>
      </trkpt>
      <trkpt lat="42.0049930" lon="-8.8799230">
        <ele>10.7</ele>
        <time>2021-05-19T08:23:13Z</time>
      </trkpt>
      <trkpt lat="42.0049960" lon="-8.8799320">
        <ele>10.7</ele>
        <time>2021-05-19T08:23:14Z</time>
      </trkpt>
      <trkpt lat="42.0050040" lon="-8.8799460">
        <ele>10.7</ele>
        <time>2021-05-19T08:23:15Z</time>
      </trkpt>
      <trkpt lat="42.0050050" lon="-8.8799540">
        <ele>10.7</ele>
        <time>2021-05-19T08:23:16Z</time>
      </trkpt>
      <trkpt lat="42.0050090" lon="-8.8799670">
        <ele>10.7</ele>
        <time>2021-05-19T08:23:17Z</time>
      </trkpt>
      <trkpt lat="42.0050170" lon="-8.8799740">
        <ele>10.7</ele>
        <time>2021-05-19T08:23:18Z</time>
      </trkpt>
      <trkpt lat="42.0050220" lon="-8.8799740">
        <ele>10.7</ele>
        <time>2021-05-19T08:23:19Z</time>
      </trkpt>
      <trkpt lat="42.0050190" lon="-8.8799770">
        <ele>10.7</ele>
        <time>2021-05-19T08:23:20Z</time>
      </trkpt>
      <trkpt lat="42.0050130" lon="-8.8799910">
        <ele>10.7</ele>
        <time>2021-05-19T08:23:21Z</time>
      </trkpt>
      <trkpt lat="42.0050110" lon="-8.8799990">
        <ele>10.7</ele>
        <time>2021-05-19T08:23:22Z</time>
      </trkpt>
      <trkpt lat="42.0050120" lon="-8.8799960">
        <ele>10.7</ele>
        <time>2021-05-19T08:23:23Z</time>
      </trkpt>
      <trkpt lat="42.0050130" lon="-8.8799920">
        <ele>10.7</ele>
        <time>2021-05-19T08:23:24Z</time>
      </trkpt>
      <trkpt lat="42.0050090" lon="-8.8799930">
        <ele>10.7</ele>
        <time>2021-05-19T08:23:25Z</time>
      </trkpt>
      <trkpt lat="42.0050110" lon="-8.8799940">
        <ele>10.7</ele>
        <time>2021-05-19T08:23:26Z</time>
      </trkpt>
      <trkpt lat="42.0050130" lon="-8.8799970">
        <ele>10.7</ele>
        <time>2021-05-19T08:23:27Z</time>
      </trkpt>
      <trkpt lat="42.0050130" lon="-8.8799970">
        <ele>10.7</ele>
        <time>2021-05-19T08:23:28Z</time>
      </trkpt>
      <trkpt lat="42.0050120" lon="-8.8799960">
        <ele>10.7</ele>
        <time>2021-05-19T08:23:29Z</time>
      </trkpt>
      <trkpt lat="42.0050130" lon="-8.8799960">
        <ele>10.7</ele>
        <time>2021-05-19T08:23:30Z</time>
      </trkpt>
      <trkpt lat="42.0050150" lon="-8.8799990">
        <ele>10.7</ele>
        <time>2021-05-19T08:23:31Z</time>
      </trkpt>
      <trkpt lat="42.0050160" lon="-8.8800000">
        <ele>10.7</ele>
        <time>2021-05-19T08:23:32Z</time>
      </trkpt>
      <trkpt lat="42.0050160" lon="-8.8800000">
        <ele>10.7</ele>
        <time>2021-05-19T08:23:33Z</time>
      </trkpt>
      <trkpt lat="42.0050160" lon="-8.8800000">
        <ele>10.7</ele>
        <time>2021-05-19T08:23:34Z</time>
      </trkpt>
      <trkpt lat="42.0050160" lon="-8.8800000">
        <ele>10.7</ele>
        <time>2021-05-19T08:23:35Z</time>
      </trkpt>
      <trkpt lat="42.0050160" lon="-8.8800000">
        <ele>10.7</ele>
        <time>2021-05-19T08:23:36Z</time>
      </trkpt>
      <trkpt lat="42.0050160" lon="-8.8800000">
        <ele>10.7</ele>
        <time>2021-05-19T08:23:37Z</time>
      </trkpt>
      <trkpt lat="42.0050160" lon="-8.8800000">
        <ele>10.7</ele>
        <time>2021-05-19T08:23:38Z</time>
      </trkpt>
      <trkpt lat="42.0050160" lon="-8.8800000">
        <ele>10.7</ele>
        <time>2021-05-19T08:23:39Z</time>
      </trkpt>
      <trkpt lat="42.0050160" lon="-8.8800000">
        <ele>10.7</ele>
        <time>2021-05-19T08:23:40Z</time>
      </trkpt>
      <trkpt lat="42.0050160" lon="-8.8800000">
        <ele>10.7</ele>
        <time>2021-05-19T08:23:41Z</time>
      </trkpt>
      <trkpt lat="42.0050160" lon="-8.8800000">
        <ele>10.7</ele>
        <time>2021-05-19T08:23:42Z</time>
      </trkpt>
      <trkpt lat="42.0050190" lon="-8.8799910">
        <ele>10.7</ele>
        <time>2021-05-19T08:23:43Z</time>
      </trkpt>
      <trkpt lat="42.0050190" lon="-8.8799920">
        <ele>10.7</ele>
        <time>2021-05-19T08:23:44Z</time>
      </trkpt>
      <trkpt lat="42.0050190" lon="-8.8799920">
        <ele>10.7</ele>
        <time>2021-05-19T08:23:45Z</time>
      </trkpt>
      <trkpt lat="42.0050190" lon="-8.8799920">
        <ele>10.7</ele>
        <time>2021-05-19T08:23:46Z</time>
      </trkpt>
      <trkpt lat="42.0050190" lon="-8.8799920">
        <ele>10.7</ele>
        <time>2021-05-19T08:23:47Z</time>
      </trkpt>
      <trkpt lat="42.0050190" lon="-8.8799920">
        <ele>10.7</ele>
        <time>2021-05-19T08:23:48Z</time>
      </trkpt>
      <trkpt lat="42.0050190" lon="-8.8799920">
        <ele>10.7</ele>
        <time>2021-05-19T08:23:49Z</time>
      </trkpt>
      <trkpt lat="42.0050190" lon="-8.8799920">
        <ele>10.7</ele>
        <time>2021-05-19T08:23:50Z</time>
      </trkpt>
      <trkpt lat="42.0050140" lon="-8.8799970">
        <ele>10.7</ele>
        <time>2021-05-19T08:23:51Z</time>
      </trkpt>
      <trkpt lat="42.0050140" lon="-8.8800000">
        <ele>10.7</ele>
        <time>2021-05-19T08:23:52Z</time>
      </trkpt>
      <trkpt lat="42.0050140" lon="-8.8800040">
        <ele>10.7</ele>
        <time>2021-05-19T08:23:53Z</time>
      </trkpt>
      <trkpt lat="42.0050140" lon="-8.8800000">
        <ele>10.7</ele>
        <time>2021-05-19T08:23:54Z</time>
      </trkpt>
      <trkpt lat="42.0050150" lon="-8.8799960">
        <ele>10.7</ele>
        <time>2021-05-19T08:23:55Z</time>
      </trkpt>
      <trkpt lat="42.0050150" lon="-8.8799920">
        <ele>10.7</ele>
        <time>2021-05-19T08:23:56Z</time>
      </trkpt>
      <trkpt lat="42.0050150" lon="-8.8799870">
        <ele>10.7</ele>
        <time>2021-05-19T08:23:57Z</time>
      </trkpt>
      <trkpt lat="42.0050160" lon="-8.8799830">
        <ele>10.7</ele>
        <time>2021-05-19T08:23:58Z</time>
      </trkpt>
      <trkpt lat="42.0050160" lon="-8.8799790">
        <ele>10.7</ele>
        <time>2021-05-19T08:23:59Z</time>
      </trkpt>
      <trkpt lat="42.0050160" lon="-8.8799750">
        <ele>10.7</ele>
        <time>2021-05-19T08:24:00Z</time>
      </trkpt>
      <trkpt lat="42.0050170" lon="-8.8799710">
        <ele>10.7</ele>
        <time>2021-05-19T08:24:01Z</time>
      </trkpt>
      <trkpt lat="42.0050170" lon="-8.8799670">
        <ele>10.7</ele>
        <time>2021-05-19T08:24:02Z</time>
      </trkpt>
      <trkpt lat="42.0050170" lon="-8.8799620">
        <ele>10.7</ele>
        <time>2021-05-19T08:24:03Z</time>
      </trkpt>
      <trkpt lat="42.0050180" lon="-8.8799580">
        <ele>10.7</ele>
        <time>2021-05-19T08:24:04Z</time>
      </trkpt>
      <trkpt lat="42.0050180" lon="-8.8799540">
        <ele>10.7</ele>
        <time>2021-05-19T08:24:05Z</time>
      </trkpt>
      <trkpt lat="42.0050300" lon="-8.8799360">
        <ele>10.7</ele>
        <time>2021-05-19T08:24:06Z</time>
      </trkpt>
      <trkpt lat="42.0050460" lon="-8.8799410">
        <ele>10.6</ele>
        <time>2021-05-19T08:24:07Z</time>
      </trkpt>
      <trkpt lat="42.0050670" lon="-8.8799460">
        <ele>10.6</ele>
        <time>2021-05-19T08:24:08Z</time>
      </trkpt>
      <trkpt lat="42.0050760" lon="-8.8799480">
        <ele>10.6</ele>
        <time>2021-05-19T08:24:09Z</time>
      </trkpt>
      <trkpt lat="42.0050840" lon="-8.8799500">
        <ele>10.6</ele>
        <time>2021-05-19T08:24:10Z</time>
      </trkpt>
      <trkpt lat="42.0051030" lon="-8.8799510">
        <ele>10.5</ele>
        <time>2021-05-19T08:24:11Z</time>
      </trkpt>
      <trkpt lat="42.0051110" lon="-8.8799570">
        <ele>10.5</ele>
        <time>2021-05-19T08:24:12Z</time>
      </trkpt>
      <trkpt lat="42.0051300" lon="-8.8799590">
        <ele>10.5</ele>
        <time>2021-05-19T08:24:13Z</time>
      </trkpt>
      <trkpt lat="42.0051430" lon="-8.8799660">
        <ele>10.4</ele>
        <time>2021-05-19T08:24:14Z</time>
      </trkpt>
      <trkpt lat="42.0051530" lon="-8.8799640">
        <ele>10.4</ele>
        <time>2021-05-19T08:24:15Z</time>
      </trkpt>
      <trkpt lat="42.0051620" lon="-8.8799720">
        <ele>10.4</ele>
        <time>2021-05-19T08:24:16Z</time>
      </trkpt>
      <trkpt lat="42.0051710" lon="-8.8799760">
        <ele>10.4</ele>
        <time>2021-05-19T08:24:17Z</time>
      </trkpt>
      <trkpt lat="42.0051810" lon="-8.8799790">
        <ele>10.3</ele>
        <time>2021-05-19T08:24:18Z</time>
      </trkpt>
      <trkpt lat="42.0051880" lon="-8.8799760">
        <ele>10.3</ele>
        <time>2021-05-19T08:24:19Z</time>
      </trkpt>
      <trkpt lat="42.0051990" lon="-8.8799830">
        <ele>10.3</ele>
        <time>2021-05-19T08:24:20Z</time>
      </trkpt>
      <trkpt lat="42.0052050" lon="-8.8799830">
        <ele>10.3</ele>
        <time>2021-05-19T08:24:21Z</time>
      </trkpt>
      <trkpt lat="42.0052080" lon="-8.8799820">
        <ele>10.3</ele>
        <time>2021-05-19T08:24:22Z</time>
      </trkpt>
      <trkpt lat="42.0052080" lon="-8.8799830">
        <ele>10.3</ele>
        <time>2021-05-19T08:24:23Z</time>
      </trkpt>
      <trkpt lat="42.0052080" lon="-8.8799830">
        <ele>10.3</ele>
        <time>2021-05-19T08:24:24Z</time>
      </trkpt>
      <trkpt lat="42.0052070" lon="-8.8799840">
        <ele>10.3</ele>
        <time>2021-05-19T08:24:25Z</time>
      </trkpt>
      <trkpt lat="42.0052070" lon="-8.8799820">
        <ele>10.3</ele>
        <time>2021-05-19T08:24:26Z</time>
      </trkpt>
      <trkpt lat="42.0052070" lon="-8.8799820">
        <ele>10.3</ele>
        <time>2021-05-19T08:24:27Z</time>
      </trkpt>
      <trkpt lat="42.0052110" lon="-8.8799830">
        <ele>10.3</ele>
        <time>2021-05-19T08:24:28Z</time>
      </trkpt>
      <trkpt lat="42.0052120" lon="-8.8799820">
        <ele>10.3</ele>
        <time>2021-05-19T08:24:29Z</time>
      </trkpt>
      <trkpt lat="42.0052140" lon="-8.8799820">
        <ele>10.3</ele>
        <time>2021-05-19T08:24:30Z</time>
      </trkpt>
      <trkpt lat="42.0052180" lon="-8.8799840">
        <ele>10.2</ele>
        <time>2021-05-19T08:24:31Z</time>
      </trkpt>
      <trkpt lat="42.0052220" lon="-8.8799830">
        <ele>10.2</ele>
        <time>2021-05-19T08:24:32Z</time>
      </trkpt>
      <trkpt lat="42.0052300" lon="-8.8799840">
        <ele>10.2</ele>
        <time>2021-05-19T08:24:33Z</time>
      </trkpt>
      <trkpt lat="42.0052310" lon="-8.8799870">
        <ele>10.2</ele>
        <time>2021-05-19T08:24:34Z</time>
      </trkpt>
      <trkpt lat="42.0052320" lon="-8.8799880">
        <ele>10.2</ele>
        <time>2021-05-19T08:24:35Z</time>
      </trkpt>
      <trkpt lat="42.0052280" lon="-8.8799860">
        <ele>10.2</ele>
        <time>2021-05-19T08:24:36Z</time>
      </trkpt>
      <trkpt lat="42.0052280" lon="-8.8799880">
        <ele>10.2</ele>
        <time>2021-05-19T08:24:37Z</time>
      </trkpt>
      <trkpt lat="42.0052260" lon="-8.8799920">
        <ele>10.2</ele>
        <time>2021-05-19T08:24:38Z</time>
      </trkpt>
      <trkpt lat="42.0052250" lon="-8.8799930">
        <ele>10.2</ele>
        <time>2021-05-19T08:24:39Z</time>
      </trkpt>
      <trkpt lat="42.0052270" lon="-8.8799960">
        <ele>10.2</ele>
        <time>2021-05-19T08:24:40Z</time>
      </trkpt>
      <trkpt lat="42.0052320" lon="-8.8799970">
        <ele>10.2</ele>
        <time>2021-05-19T08:24:41Z</time>
      </trkpt>
      <trkpt lat="42.0052400" lon="-8.8800010">
        <ele>10.1</ele>
        <time>2021-05-19T08:24:42Z</time>
      </trkpt>
      <trkpt lat="42.0052500" lon="-8.8800060">
        <ele>10.1</ele>
        <time>2021-05-19T08:24:43Z</time>
      </trkpt>
      <trkpt lat="42.0052540" lon="-8.8800090">
        <ele>10.1</ele>
        <time>2021-05-19T08:24:44Z</time>
      </trkpt>
      <trkpt lat="42.0052640" lon="-8.8800100">
        <ele>10.1</ele>
        <time>2021-05-19T08:24:45Z</time>
      </trkpt>
      <trkpt lat="42.0052720" lon="-8.8800100">
        <ele>10.1</ele>
        <time>2021-05-19T08:24:46Z</time>
      </trkpt>
      <trkpt lat="42.0052840" lon="-8.8800160">
        <ele>10.0</ele>
        <time>2021-05-19T08:24:47Z</time>
      </trkpt>
      <trkpt lat="42.0052950" lon="-8.8800200">
        <ele>10.0</ele>
        <time>2021-05-19T08:24:48Z</time>
      </trkpt>
      <trkpt lat="42.0053080" lon="-8.8800200">
        <ele>10.0</ele>
        <time>2021-05-19T08:24:49Z</time>
      </trkpt>
      <trkpt lat="42.0053120" lon="-8.8800220">
        <ele>10.0</ele>
        <time>2021-05-19T08:24:50Z</time>
      </trkpt>
      <trkpt lat="42.0053170" lon="-8.8800200">
        <ele>10.0</ele>
        <time>2021-05-19T08:24:51Z</time>
      </trkpt>
      <trkpt lat="42.0053270" lon="-8.8800260">
        <ele>10.0</ele>
        <time>2021-05-19T08:24:52Z</time>
      </trkpt>
      <trkpt lat="42.0053380" lon="-8.8800310">
        <ele>9.9</ele>
        <time>2021-05-19T08:24:53Z</time>
      </trkpt>
      <trkpt lat="42.0053440" lon="-8.8800320">
        <ele>9.9</ele>
        <time>2021-05-19T08:24:54Z</time>
      </trkpt>
      <trkpt lat="42.0053570" lon="-8.8800330">
        <ele>9.9</ele>
        <time>2021-05-19T08:24:55Z</time>
      </trkpt>
      <trkpt lat="42.0053700" lon="-8.8800340">
        <ele>9.9</ele>
        <time>2021-05-19T08:24:56Z</time>
      </trkpt>
      <trkpt lat="42.0053800" lon="-8.8800360">
        <ele>9.9</ele>
        <time>2021-05-19T08:24:57Z</time>
      </trkpt>
      <trkpt lat="42.0053990" lon="-8.8800440">
        <ele>9.9</ele>
        <time>2021-05-19T08:24:58Z</time>
      </trkpt>
      <trkpt lat="42.0054000" lon="-8.8800420">
        <ele>9.9</ele>
        <time>2021-05-19T08:24:59Z</time>
      </trkpt>
      <trkpt lat="42.0054090" lon="-8.8800440">
        <ele>9.9</ele>
        <time>2021-05-19T08:25:00Z</time>
      </trkpt>
      <trkpt lat="42.0054240" lon="-8.8800500">
        <ele>9.8</ele>
        <time>2021-05-19T08:25:01Z</time>
      </trkpt>
      <trkpt lat="42.0054270" lon="-8.8800510">
        <ele>9.8</ele>
        <time>2021-05-19T08:25:02Z</time>
      </trkpt>
      <trkpt lat="42.0054390" lon="-8.8800580">
        <ele>9.8</ele>
        <time>2021-05-19T08:25:03Z</time>
      </trkpt>
      <trkpt lat="42.0054480" lon="-8.8800650">
        <ele>9.8</ele>
        <time>2021-05-19T08:25:04Z</time>
      </trkpt>
      <trkpt lat="42.0054600" lon="-8.8800660">
        <ele>9.8</ele>
        <time>2021-05-19T08:25:05Z</time>
      </trkpt>
      <trkpt lat="42.0054630" lon="-8.8800720">
        <ele>9.8</ele>
        <time>2021-05-19T08:25:06Z</time>
      </trkpt>
      <trkpt lat="42.0054790" lon="-8.8800750">
        <ele>9.8</ele>
        <time>2021-05-19T08:25:07Z</time>
      </trkpt>
      <trkpt lat="42.0054860" lon="-8.8800800">
        <ele>9.8</ele>
        <time>2021-05-19T08:25:08Z</time>
      </trkpt>
      <trkpt lat="42.0055050" lon="-8.8800940">
        <ele>9.8</ele>
        <time>2021-05-19T08:25:09Z</time>
      </trkpt>
      <trkpt lat="42.0055180" lon="-8.8800990">
        <ele>9.8</ele>
        <time>2021-05-19T08:25:10Z</time>
      </trkpt>
      <trkpt lat="42.0055300" lon="-8.8801040">
        <ele>9.8</ele>
        <time>2021-05-19T08:25:11Z</time>
      </trkpt>
      <trkpt lat="42.0055390" lon="-8.8801120">
        <ele>9.8</ele>
        <time>2021-05-19T08:25:12Z</time>
      </trkpt>
      <trkpt lat="42.0055480" lon="-8.8801140">
        <ele>9.7</ele>
        <time>2021-05-19T08:25:13Z</time>
      </trkpt>
      <trkpt lat="42.0055590" lon="-8.8801220">
        <ele>9.7</ele>
        <time>2021-05-19T08:25:14Z</time>
      </trkpt>
      <trkpt lat="42.0055660" lon="-8.8801210">
        <ele>9.7</ele>
        <time>2021-05-19T08:25:15Z</time>
      </trkpt>
      <trkpt lat="42.0055800" lon="-8.8801350">
        <ele>9.7</ele>
        <time>2021-05-19T08:25:16Z</time>
      </trkpt>
      <trkpt lat="42.0056030" lon="-8.8801480">
        <ele>9.7</ele>
        <time>2021-05-19T08:25:17Z</time>
      </trkpt>
      <trkpt lat="42.0056100" lon="-8.8801500">
        <ele>9.7</ele>
        <time>2021-05-19T08:25:18Z</time>
      </trkpt>
      <trkpt lat="42.0056180" lon="-8.8801510">
        <ele>9.7</ele>
        <time>2021-05-19T08:25:19Z</time>
      </trkpt>
      <trkpt lat="42.0056390" lon="-8.8801630">
        <ele>9.7</ele>
        <time>2021-05-19T08:25:20Z</time>
      </trkpt>
      <trkpt lat="42.0056460" lon="-8.8801670">
        <ele>9.7</ele>
        <time>2021-05-19T08:25:21Z</time>
      </trkpt>
      <trkpt lat="42.0056540" lon="-8.8801700">
        <ele>9.7</ele>
        <time>2021-05-19T08:25:22Z</time>
      </trkpt>
      <trkpt lat="42.0056670" lon="-8.8801740">
        <ele>9.7</ele>
        <time>2021-05-19T08:25:23Z</time>
      </trkpt>
      <trkpt lat="42.0056790" lon="-8.8801840">
        <ele>9.7</ele>
        <time>2021-05-19T08:25:24Z</time>
      </trkpt>
      <trkpt lat="42.0056870" lon="-8.8801850">
        <ele>9.6</ele>
        <time>2021-05-19T08:25:25Z</time>
      </trkpt>
      <trkpt lat="42.0056990" lon="-8.8801910">
        <ele>9.6</ele>
        <time>2021-05-19T08:25:26Z</time>
      </trkpt>
      <trkpt lat="42.0057100" lon="-8.8801960">
        <ele>9.6</ele>
        <time>2021-05-19T08:25:27Z</time>
      </trkpt>
      <trkpt lat="42.0057180" lon="-8.8802060">
        <ele>9.6</ele>
        <time>2021-05-19T08:25:28Z</time>
      </trkpt>
      <trkpt lat="42.0057420" lon="-8.8802190">
        <ele>9.6</ele>
        <time>2021-05-19T08:25:29Z</time>
      </trkpt>
      <trkpt lat="42.0057510" lon="-8.8802230">
        <ele>9.6</ele>
        <time>2021-05-19T08:25:30Z</time>
      </trkpt>
      <trkpt lat="42.0057600" lon="-8.8802260">
        <ele>9.6</ele>
        <time>2021-05-19T08:25:31Z</time>
      </trkpt>
      <trkpt lat="42.0057630" lon="-8.8802290">
        <ele>9.6</ele>
        <time>2021-05-19T08:25:32Z</time>
      </trkpt>
      <trkpt lat="42.0057800" lon="-8.8802390">
        <ele>9.6</ele>
        <time>2021-05-19T08:25:33Z</time>
      </trkpt>
      <trkpt lat="42.0057830" lon="-8.8802500">
        <ele>9.6</ele>
        <time>2021-05-19T08:25:34Z</time>
      </trkpt>
      <trkpt lat="42.0058030" lon="-8.8802620">
        <ele>9.6</ele>
        <time>2021-05-19T08:25:35Z</time>
      </trkpt>
      <trkpt lat="42.0058100" lon="-8.8802690">
        <ele>9.6</ele>
        <time>2021-05-19T08:25:36Z</time>
      </trkpt>
      <trkpt lat="42.0058180" lon="-8.8802750">
        <ele>9.6</ele>
        <time>2021-05-19T08:25:37Z</time>
      </trkpt>
      <trkpt lat="42.0058210" lon="-8.8802870">
        <ele>9.6</ele>
        <time>2021-05-19T08:25:38Z</time>
      </trkpt>
      <trkpt lat="42.0058330" lon="-8.8802930">
        <ele>9.6</ele>
        <time>2021-05-19T08:25:39Z</time>
      </trkpt>
      <trkpt lat="42.0058450" lon="-8.8803040">
        <ele>9.5</ele>
        <time>2021-05-19T08:25:40Z</time>
      </trkpt>
      <trkpt lat="42.0058600" lon="-8.8803070">
        <ele>9.5</ele>
        <time>2021-05-19T08:25:41Z</time>
      </trkpt>
      <trkpt lat="42.0058760" lon="-8.8803200">
        <ele>9.5</ele>
        <time>2021-05-19T08:25:42Z</time>
      </trkpt>
      <trkpt lat="42.0058880" lon="-8.8803210">
        <ele>9.5</ele>
        <time>2021-05-19T08:25:43Z</time>
      </trkpt>
      <trkpt lat="42.0058920" lon="-8.8803270">
        <ele>9.5</ele>
        <time>2021-05-19T08:25:44Z</time>
      </trkpt>
      <trkpt lat="42.0059010" lon="-8.8803330">
        <ele>9.5</ele>
        <time>2021-05-19T08:25:45Z</time>
      </trkpt>
      <trkpt lat="42.0059080" lon="-8.8803390">
        <ele>9.5</ele>
        <time>2021-05-19T08:25:46Z</time>
      </trkpt>
      <trkpt lat="42.0059110" lon="-8.8803440">
        <ele>9.5</ele>
        <time>2021-05-19T08:25:47Z</time>
      </trkpt>
      <trkpt lat="42.0059050" lon="-8.8803370">
        <ele>9.5</ele>
        <time>2021-05-19T08:25:48Z</time>
      </trkpt>
      <trkpt lat="42.0058980" lon="-8.8803220">
        <ele>9.5</ele>
        <time>2021-05-19T08:25:49Z</time>
      </trkpt>
      <trkpt lat="42.0058960" lon="-8.8803170">
        <ele>9.5</ele>
        <time>2021-05-19T08:25:50Z</time>
      </trkpt>
      <trkpt lat="42.0058930" lon="-8.8803150">
        <ele>9.5</ele>
        <time>2021-05-19T08:25:51Z</time>
      </trkpt>
      <trkpt lat="42.0058930" lon="-8.8803150">
        <ele>9.5</ele>
        <time>2021-05-19T08:25:52Z</time>
      </trkpt>
      <trkpt lat="42.0058930" lon="-8.8803120">
        <ele>9.5</ele>
        <time>2021-05-19T08:25:53Z</time>
      </trkpt>
      <trkpt lat="42.0058920" lon="-8.8803100">
        <ele>9.5</ele>
        <time>2021-05-19T08:25:54Z</time>
      </trkpt>
      <trkpt lat="42.0058930" lon="-8.8803070">
        <ele>9.5</ele>
        <time>2021-05-19T08:25:55Z</time>
      </trkpt>
      <trkpt lat="42.0058960" lon="-8.8803080">
        <ele>9.5</ele>
        <time>2021-05-19T08:25:56Z</time>
      </trkpt>
      <trkpt lat="42.0059010" lon="-8.8803100">
        <ele>9.5</ele>
        <time>2021-05-19T08:25:57Z</time>
      </trkpt>
      <trkpt lat="42.0059050" lon="-8.8803120">
        <ele>9.5</ele>
        <time>2021-05-19T08:25:58Z</time>
      </trkpt>
      <trkpt lat="42.0059090" lon="-8.8803140">
        <ele>9.5</ele>
        <time>2021-05-19T08:25:59Z</time>
      </trkpt>
      <trkpt lat="42.0059140" lon="-8.8803160">
        <ele>9.5</ele>
        <time>2021-05-19T08:26:00Z</time>
      </trkpt>
      <trkpt lat="42.0059180" lon="-8.8803180">
        <ele>9.5</ele>
        <time>2021-05-19T08:26:01Z</time>
      </trkpt>
      <trkpt lat="42.0059220" lon="-8.8803200">
        <ele>9.5</ele>
        <time>2021-05-19T08:26:02Z</time>
      </trkpt>
      <trkpt lat="42.0059270" lon="-8.8803220">
        <ele>9.5</ele>
        <time>2021-05-19T08:26:03Z</time>
      </trkpt>
      <trkpt lat="42.0059310" lon="-8.8803240">
        <ele>9.5</ele>
        <time>2021-05-19T08:26:04Z</time>
      </trkpt>
      <trkpt lat="42.0059470" lon="-8.8803320">
        <ele>9.5</ele>
        <time>2021-05-19T08:26:05Z</time>
      </trkpt>
      <trkpt lat="42.0059560" lon="-8.8803380">
        <ele>9.5</ele>
        <time>2021-05-19T08:26:06Z</time>
      </trkpt>
      <trkpt lat="42.0059660" lon="-8.8803440">
        <ele>9.5</ele>
        <time>2021-05-19T08:26:07Z</time>
      </trkpt>
      <trkpt lat="42.0059680" lon="-8.8803450">
        <ele>9.5</ele>
        <time>2021-05-19T08:26:08Z</time>
      </trkpt>
      <trkpt lat="42.0059760" lon="-8.8803510">
        <ele>9.5</ele>
        <time>2021-05-19T08:26:09Z</time>
      </trkpt>
      <trkpt lat="42.0059890" lon="-8.8803670">
        <ele>9.5</ele>
        <time>2021-05-19T08:26:10Z</time>
      </trkpt>
      <trkpt lat="42.0059990" lon="-8.8803730">
        <ele>9.5</ele>
        <time>2021-05-19T08:26:11Z</time>
      </trkpt>
      <trkpt lat="42.0060090" lon="-8.8803820">
        <ele>9.5</ele>
        <time>2021-05-19T08:26:12Z</time>
      </trkpt>
      <trkpt lat="42.0060190" lon="-8.8803900">
        <ele>9.5</ele>
        <time>2021-05-19T08:26:13Z</time>
      </trkpt>
      <trkpt lat="42.0060370" lon="-8.8804070">
        <ele>9.5</ele>
        <time>2021-05-19T08:26:14Z</time>
      </trkpt>
      <trkpt lat="42.0060450" lon="-8.8804100">
        <ele>9.5</ele>
        <time>2021-05-19T08:26:15Z</time>
      </trkpt>
      <trkpt lat="42.0060530" lon="-8.8804140">
        <ele>9.5</ele>
        <time>2021-05-19T08:26:16Z</time>
      </trkpt>
      <trkpt lat="42.0060680" lon="-8.8804180">
        <ele>9.5</ele>
        <time>2021-05-19T08:26:17Z</time>
      </trkpt>
      <trkpt lat="42.0060800" lon="-8.8804210">
        <ele>9.5</ele>
        <time>2021-05-19T08:26:18Z</time>
      </trkpt>
      <trkpt lat="42.0060930" lon="-8.8804280">
        <ele>9.5</ele>
        <time>2021-05-19T08:26:19Z</time>
      </trkpt>
      <trkpt lat="42.0061080" lon="-8.8804310">
        <ele>9.5</ele>
        <time>2021-05-19T08:26:20Z</time>
      </trkpt>
      <trkpt lat="42.0061250" lon="-8.8804440">
        <ele>9.5</ele>
        <time>2021-05-19T08:26:21Z</time>
      </trkpt>
      <trkpt lat="42.0061340" lon="-8.8804510">
        <ele>9.5</ele>
        <time>2021-05-19T08:26:22Z</time>
      </trkpt>
      <trkpt lat="42.0061420" lon="-8.8804580">
        <ele>9.5</ele>
        <time>2021-05-19T08:26:23Z</time>
      </trkpt>
      <trkpt lat="42.0061650" lon="-8.8804670">
        <ele>9.5</ele>
        <time>2021-05-19T08:26:24Z</time>
      </trkpt>
      <trkpt lat="42.0061720" lon="-8.8804700">
        <ele>9.5</ele>
        <time>2021-05-19T08:26:25Z</time>
      </trkpt>
      <trkpt lat="42.0061800" lon="-8.8804740">
        <ele>9.5</ele>
        <time>2021-05-19T08:26:26Z</time>
      </trkpt>
      <trkpt lat="42.0061920" lon="-8.8804850">
        <ele>9.5</ele>
        <time>2021-05-19T08:26:27Z</time>
      </trkpt>
      <trkpt lat="42.0062040" lon="-8.8804910">
        <ele>9.5</ele>
        <time>2021-05-19T08:26:28Z</time>
      </trkpt>
      <trkpt lat="42.0062140" lon="-8.8804990">
        <ele>9.5</ele>
        <time>2021-05-19T08:26:29Z</time>
      </trkpt>
      <trkpt lat="42.0062200" lon="-8.8805120">
        <ele>9.5</ele>
        <time>2021-05-19T08:26:30Z</time>
      </trkpt>
      <trkpt lat="42.0062300" lon="-8.8805220">
        <ele>9.5</ele>
        <time>2021-05-19T08:26:31Z</time>
      </trkpt>
      <trkpt lat="42.0062400" lon="-8.8805260">
        <ele>9.5</ele>
        <time>2021-05-19T08:26:32Z</time>
      </trkpt>
      <trkpt lat="42.0062510" lon="-8.8805320">
        <ele>9.5</ele>
        <time>2021-05-19T08:26:33Z</time>
      </trkpt>
      <trkpt lat="42.0062610" lon="-8.8805380">
        <ele>9.5</ele>
        <time>2021-05-19T08:26:34Z</time>
      </trkpt>
      <trkpt lat="42.0062820" lon="-8.8805520">
        <ele>9.5</ele>
        <time>2021-05-19T08:26:35Z</time>
      </trkpt>
      <trkpt lat="42.0062890" lon="-8.8805580">
        <ele>9.5</ele>
        <time>2021-05-19T08:26:36Z</time>
      </trkpt>
      <trkpt lat="42.0062970" lon="-8.8805630">
        <ele>9.5</ele>
        <time>2021-05-19T08:26:37Z</time>
      </trkpt>
      <trkpt lat="42.0063090" lon="-8.8805680">
        <ele>9.5</ele>
        <time>2021-05-19T08:26:38Z</time>
      </trkpt>
      <trkpt lat="42.0063280" lon="-8.8805810">
        <ele>9.5</ele>
        <time>2021-05-19T08:26:39Z</time>
      </trkpt>
      <trkpt lat="42.0063390" lon="-8.8805880">
        <ele>9.5</ele>
        <time>2021-05-19T08:26:40Z</time>
      </trkpt>
      <trkpt lat="42.0063510" lon="-8.8805930">
        <ele>9.5</ele>
        <time>2021-05-19T08:26:41Z</time>
      </trkpt>
      <trkpt lat="42.0063610" lon="-8.8805940">
        <ele>9.5</ele>
        <time>2021-05-19T08:26:42Z</time>
      </trkpt>
      <trkpt lat="42.0063790" lon="-8.8806040">
        <ele>9.5</ele>
        <time>2021-05-19T08:26:43Z</time>
      </trkpt>
      <trkpt lat="42.0063870" lon="-8.8806090">
        <ele>9.5</ele>
        <time>2021-05-19T08:26:44Z</time>
      </trkpt>
      <trkpt lat="42.0063980" lon="-8.8806190">
        <ele>9.5</ele>
        <time>2021-05-19T08:26:45Z</time>
      </trkpt>
      <trkpt lat="42.0064060" lon="-8.8806210">
        <ele>9.5</ele>
        <time>2021-05-19T08:26:46Z</time>
      </trkpt>
      <trkpt lat="42.0064180" lon="-8.8806250">
        <ele>9.5</ele>
        <time>2021-05-19T08:26:47Z</time>
      </trkpt>
      <trkpt lat="42.0064340" lon="-8.8806390">
        <ele>9.5</ele>
        <time>2021-05-19T08:26:48Z</time>
      </trkpt>
      <trkpt lat="42.0064460" lon="-8.8806420">
        <ele>9.5</ele>
        <time>2021-05-19T08:26:49Z</time>
      </trkpt>
      <trkpt lat="42.0064570" lon="-8.8806460">
        <ele>9.5</ele>
        <time>2021-05-19T08:26:50Z</time>
      </trkpt>
      <trkpt lat="42.0064740" lon="-8.8806540">
        <ele>9.5</ele>
        <time>2021-05-19T08:26:51Z</time>
      </trkpt>
      <trkpt lat="42.0064870" lon="-8.8806560">
        <ele>9.5</ele>
        <time>2021-05-19T08:26:52Z</time>
      </trkpt>
      <trkpt lat="42.0065020" lon="-8.8806750">
        <ele>9.5</ele>
        <time>2021-05-19T08:26:53Z</time>
      </trkpt>
      <trkpt lat="42.0065110" lon="-8.8806800">
        <ele>9.5</ele>
        <time>2021-05-19T08:26:54Z</time>
      </trkpt>
      <trkpt lat="42.0065200" lon="-8.8806850">
        <ele>9.5</ele>
        <time>2021-05-19T08:26:55Z</time>
      </trkpt>
      <trkpt lat="42.0065220" lon="-8.8806940">
        <ele>9.5</ele>
        <time>2021-05-19T08:26:56Z</time>
      </trkpt>
      <trkpt lat="42.0065360" lon="-8.8807030">
        <ele>9.5</ele>
        <time>2021-05-19T08:26:57Z</time>
      </trkpt>
      <trkpt lat="42.0065480" lon="-8.8807080">
        <ele>9.5</ele>
        <time>2021-05-19T08:26:58Z</time>
      </trkpt>
      <trkpt lat="42.0065580" lon="-8.8807160">
        <ele>9.5</ele>
        <time>2021-05-19T08:26:59Z</time>
      </trkpt>
      <trkpt lat="42.0065710" lon="-8.8807250">
        <ele>9.5</ele>
        <time>2021-05-19T08:27:00Z</time>
      </trkpt>
      <trkpt lat="42.0065810" lon="-8.8807250">
        <ele>9.5</ele>
        <time>2021-05-19T08:27:01Z</time>
      </trkpt>
      <trkpt lat="42.0065960" lon="-8.8807310">
        <ele>9.5</ele>
        <time>2021-05-19T08:27:02Z</time>
      </trkpt>
      <trkpt lat="42.0066070" lon="-8.8807400">
        <ele>9.5</ele>
        <time>2021-05-19T08:27:03Z</time>
      </trkpt>
      <trkpt lat="42.0066250" lon="-8.8807470">
        <ele>9.5</ele>
        <time>2021-05-19T08:27:04Z</time>
      </trkpt>
      <trkpt lat="42.0066370" lon="-8.8807530">
        <ele>9.5</ele>
        <time>2021-05-19T08:27:05Z</time>
      </trkpt>
      <trkpt lat="42.0066460" lon="-8.8807620">
        <ele>9.5</ele>
        <time>2021-05-19T08:27:06Z</time>
      </trkpt>
      <trkpt lat="42.0066570" lon="-8.8807620">
        <ele>9.5</ele>
        <time>2021-05-19T08:27:07Z</time>
      </trkpt>
      <trkpt lat="42.0066690" lon="-8.8807730">
        <ele>9.5</ele>
        <time>2021-05-19T08:27:08Z</time>
      </trkpt>
      <trkpt lat="42.0066790" lon="-8.8807810">
        <ele>9.6</ele>
        <time>2021-05-19T08:27:09Z</time>
      </trkpt>
      <trkpt lat="42.0066870" lon="-8.8807800">
        <ele>9.6</ele>
        <time>2021-05-19T08:27:10Z</time>
      </trkpt>
      <trkpt lat="42.0067040" lon="-8.8807840">
        <ele>9.6</ele>
        <time>2021-05-19T08:27:11Z</time>
      </trkpt>
      <trkpt lat="42.0067230" lon="-8.8807920">
        <ele>9.6</ele>
        <time>2021-05-19T08:27:12Z</time>
      </trkpt>
      <trkpt lat="42.0067340" lon="-8.8807970">
        <ele>9.6</ele>
        <time>2021-05-19T08:27:13Z</time>
      </trkpt>
      <trkpt lat="42.0067440" lon="-8.8808010">
        <ele>9.6</ele>
        <time>2021-05-19T08:27:14Z</time>
      </trkpt>
      <trkpt lat="42.0067570" lon="-8.8808100">
        <ele>9.6</ele>
        <time>2021-05-19T08:27:15Z</time>
      </trkpt>
      <trkpt lat="42.0067690" lon="-8.8808190">
        <ele>9.6</ele>
        <time>2021-05-19T08:27:16Z</time>
      </trkpt>
      <trkpt lat="42.0067830" lon="-8.8808270">
        <ele>9.6</ele>
        <time>2021-05-19T08:27:17Z</time>
      </trkpt>
      <trkpt lat="42.0067950" lon="-8.8808310">
        <ele>9.6</ele>
        <time>2021-05-19T08:27:18Z</time>
      </trkpt>
      <trkpt lat="42.0068160" lon="-8.8808400">
        <ele>9.6</ele>
        <time>2021-05-19T08:27:19Z</time>
      </trkpt>
      <trkpt lat="42.0068250" lon="-8.8808440">
        <ele>9.6</ele>
        <time>2021-05-19T08:27:20Z</time>
      </trkpt>
      <trkpt lat="42.0068340" lon="-8.8808490">
        <ele>9.6</ele>
        <time>2021-05-19T08:27:21Z</time>
      </trkpt>
      <trkpt lat="42.0068450" lon="-8.8808600">
        <ele>9.6</ele>
        <time>2021-05-19T08:27:22Z</time>
      </trkpt>
      <trkpt lat="42.0068600" lon="-8.8808610">
        <ele>9.7</ele>
        <time>2021-05-19T08:27:23Z</time>
      </trkpt>
      <trkpt lat="42.0068750" lon="-8.8808660">
        <ele>9.7</ele>
        <time>2021-05-19T08:27:24Z</time>
      </trkpt>
      <trkpt lat="42.0068890" lon="-8.8808690">
        <ele>9.7</ele>
        <time>2021-05-19T08:27:25Z</time>
      </trkpt>
      <trkpt lat="42.0069030" lon="-8.8808790">
        <ele>9.7</ele>
        <time>2021-05-19T08:27:26Z</time>
      </trkpt>
      <trkpt lat="42.0069170" lon="-8.8808860">
        <ele>9.7</ele>
        <time>2021-05-19T08:27:27Z</time>
      </trkpt>
      <trkpt lat="42.0069370" lon="-8.8808910">
        <ele>9.7</ele>
        <time>2021-05-19T08:27:28Z</time>
      </trkpt>
      <trkpt lat="42.0069460" lon="-8.8808930">
        <ele>9.7</ele>
        <time>2021-05-19T08:27:29Z</time>
      </trkpt>
      <trkpt lat="42.0069540" lon="-8.8808950">
        <ele>9.7</ele>
        <time>2021-05-19T08:27:30Z</time>
      </trkpt>
      <trkpt lat="42.0069650" lon="-8.8809070">
        <ele>9.7</ele>
        <time>2021-05-19T08:27:31Z</time>
      </trkpt>
      <trkpt lat="42.0069790" lon="-8.8809090">
        <ele>9.7</ele>
        <time>2021-05-19T08:27:32Z</time>
      </trkpt>
      <trkpt lat="42.0070000" lon="-8.8809180">
        <ele>9.8</ele>
        <time>2021-05-19T08:27:33Z</time>
      </trkpt>
      <trkpt lat="42.0070100" lon="-8.8809220">
        <ele>9.8</ele>
        <time>2021-05-19T08:27:34Z</time>
      </trkpt>
      <trkpt lat="42.0070190" lon="-8.8809260">
        <ele>9.8</ele>
        <time>2021-05-19T08:27:35Z</time>
      </trkpt>
      <trkpt lat="42.0070310" lon="-8.8809340">
        <ele>9.8</ele>
        <time>2021-05-19T08:27:36Z</time>
      </trkpt>
      <trkpt lat="42.0070420" lon="-8.8809330">
        <ele>9.8</ele>
        <time>2021-05-19T08:27:37Z</time>
      </trkpt>
      <trkpt lat="42.0070540" lon="-8.8809330">
        <ele>9.8</ele>
        <time>2021-05-19T08:27:38Z</time>
      </trkpt>
      <trkpt lat="42.0070650" lon="-8.8809370">
        <ele>9.8</ele>
        <time>2021-05-19T08:27:39Z</time>
      </trkpt>
      <trkpt lat="42.0070780" lon="-8.8809330">
        <ele>9.8</ele>
        <time>2021-05-19T08:27:40Z</time>
      </trkpt>
      <trkpt lat="42.0070880" lon="-8.8809410">
        <ele>9.8</ele>
        <time>2021-05-19T08:27:41Z</time>
      </trkpt>
      <trkpt lat="42.0071090" lon="-8.8809440">
        <ele>9.8</ele>
        <time>2021-05-19T08:27:42Z</time>
      </trkpt>
      <trkpt lat="42.0071170" lon="-8.8809480">
        <ele>9.8</ele>
        <time>2021-05-19T08:27:43Z</time>
      </trkpt>
      <trkpt lat="42.0071250" lon="-8.8809520">
        <ele>9.9</ele>
        <time>2021-05-19T08:27:44Z</time>
      </trkpt>
      <trkpt lat="42.0071440" lon="-8.8809570">
        <ele>9.9</ele>
        <time>2021-05-19T08:27:45Z</time>
      </trkpt>
      <trkpt lat="42.0071550" lon="-8.8809600">
        <ele>9.9</ele>
        <time>2021-05-19T08:27:46Z</time>
      </trkpt>
      <trkpt lat="42.0071700" lon="-8.8809700">
        <ele>9.9</ele>
        <time>2021-05-19T08:27:47Z</time>
      </trkpt>
      <trkpt lat="42.0071790" lon="-8.8809740">
        <ele>9.9</ele>
        <time>2021-05-19T08:27:48Z</time>
      </trkpt>
      <trkpt lat="42.0071880" lon="-8.8809790">
        <ele>9.9</ele>
        <time>2021-05-19T08:27:49Z</time>
      </trkpt>
      <trkpt lat="42.0072040" lon="-8.8809760">
        <ele>10.0</ele>
        <time>2021-05-19T08:27:50Z</time>
      </trkpt>
      <trkpt lat="42.0072180" lon="-8.8809820">
        <ele>10.0</ele>
        <time>2021-05-19T08:27:51Z</time>
      </trkpt>
      <trkpt lat="42.0072330" lon="-8.8809820">
        <ele>10.0</ele>
        <time>2021-05-19T08:27:52Z</time>
      </trkpt>
      <trkpt lat="42.0072460" lon="-8.8809880">
        <ele>10.0</ele>
        <time>2021-05-19T08:27:53Z</time>
      </trkpt>
      <trkpt lat="42.0072580" lon="-8.8809950">
        <ele>10.0</ele>
        <time>2021-05-19T08:27:54Z</time>
      </trkpt>
      <trkpt lat="42.0072720" lon="-8.8809990">
        <ele>10.1</ele>
        <time>2021-05-19T08:27:55Z</time>
      </trkpt>
      <trkpt lat="42.0072870" lon="-8.8810040">
        <ele>10.1</ele>
        <time>2021-05-19T08:27:56Z</time>
      </trkpt>
      <trkpt lat="42.0073020" lon="-8.8810020">
        <ele>10.1</ele>
        <time>2021-05-19T08:27:57Z</time>
      </trkpt>
      <trkpt lat="42.0073170" lon="-8.8810040">
        <ele>10.1</ele>
        <time>2021-05-19T08:27:58Z</time>
      </trkpt>
      <trkpt lat="42.0073290" lon="-8.8810120">
        <ele>10.2</ele>
        <time>2021-05-19T08:27:59Z</time>
      </trkpt>
      <trkpt lat="42.0073510" lon="-8.8810220">
        <ele>10.2</ele>
        <time>2021-05-19T08:28:00Z</time>
      </trkpt>
      <trkpt lat="42.0073600" lon="-8.8810240">
        <ele>10.2</ele>
        <time>2021-05-19T08:28:01Z</time>
      </trkpt>
      <trkpt lat="42.0073700" lon="-8.8810250">
        <ele>10.2</ele>
        <time>2021-05-19T08:28:02Z</time>
      </trkpt>
      <trkpt lat="42.0073840" lon="-8.8810300">
        <ele>10.3</ele>
        <time>2021-05-19T08:28:03Z</time>
      </trkpt>
      <trkpt lat="42.0073970" lon="-8.8810350">
        <ele>10.3</ele>
        <time>2021-05-19T08:28:04Z</time>
      </trkpt>
      <trkpt lat="42.0074100" lon="-8.8810420">
        <ele>10.3</ele>
        <time>2021-05-19T08:28:05Z</time>
      </trkpt>
      <trkpt lat="42.0074240" lon="-8.8810460">
        <ele>10.4</ele>
        <time>2021-05-19T08:28:06Z</time>
      </trkpt>
      <trkpt lat="42.0074390" lon="-8.8810460">
        <ele>10.4</ele>
        <time>2021-05-19T08:28:07Z</time>
      </trkpt>
      <trkpt lat="42.0074520" lon="-8.8810520">
        <ele>10.4</ele>
        <time>2021-05-19T08:28:08Z</time>
      </trkpt>
      <trkpt lat="42.0074670" lon="-8.8810530">
        <ele>10.5</ele>
        <time>2021-05-19T08:28:09Z</time>
      </trkpt>
      <trkpt lat="42.0074760" lon="-8.8810580">
        <ele>10.5</ele>
        <time>2021-05-19T08:28:10Z</time>
      </trkpt>
      <trkpt lat="42.0074870" lon="-8.8810650">
        <ele>10.5</ele>
        <time>2021-05-19T08:28:11Z</time>
      </trkpt>
      <trkpt lat="42.0075080" lon="-8.8810700">
        <ele>10.6</ele>
        <time>2021-05-19T08:28:12Z</time>
      </trkpt>
      <trkpt lat="42.0075180" lon="-8.8810690">
        <ele>10.6</ele>
        <time>2021-05-19T08:28:13Z</time>
      </trkpt>
      <trkpt lat="42.0075280" lon="-8.8810690">
        <ele>10.6</ele>
        <time>2021-05-19T08:28:14Z</time>
      </trkpt>
      <trkpt lat="42.0075410" lon="-8.8810770">
        <ele>10.6</ele>
        <time>2021-05-19T08:28:15Z</time>
      </trkpt>
      <trkpt lat="42.0075550" lon="-8.8810840">
        <ele>10.7</ele>
        <time>2021-05-19T08:28:16Z</time>
      </trkpt>
      <trkpt lat="42.0075690" lon="-8.8810850">
        <ele>10.7</ele>
        <time>2021-05-19T08:28:17Z</time>
      </trkpt>
      <trkpt lat="42.0075840" lon="-8.8810910">
        <ele>10.7</ele>
        <time>2021-05-19T08:28:18Z</time>
      </trkpt>
      <trkpt lat="42.0075990" lon="-8.8810930">
        <ele>10.8</ele>
        <time>2021-05-19T08:28:19Z</time>
      </trkpt>
      <trkpt lat="42.0076140" lon="-8.8810920">
        <ele>10.8</ele>
        <time>2021-05-19T08:28:20Z</time>
      </trkpt>
      <trkpt lat="42.0076280" lon="-8.8810910">
        <ele>10.9</ele>
        <time>2021-05-19T08:28:21Z</time>
      </trkpt>
      <trkpt lat="42.0076420" lon="-8.8811030">
        <ele>10.9</ele>
        <time>2021-05-19T08:28:22Z</time>
      </trkpt>
      <trkpt lat="42.0076560" lon="-8.8811040">
        <ele>10.8</ele>
        <time>2021-05-19T08:28:23Z</time>
      </trkpt>
      <trkpt lat="42.0076710" lon="-8.8811110">
        <ele>10.8</ele>
        <time>2021-05-19T08:28:24Z</time>
      </trkpt>
      <trkpt lat="42.0076830" lon="-8.8811130">
        <ele>10.8</ele>
        <time>2021-05-19T08:28:25Z</time>
      </trkpt>
      <trkpt lat="42.0076990" lon="-8.8811170">
        <ele>10.8</ele>
        <time>2021-05-19T08:28:26Z</time>
      </trkpt>
      <trkpt lat="42.0077130" lon="-8.8811260">
        <ele>10.8</ele>
        <time>2021-05-19T08:28:27Z</time>
      </trkpt>
      <trkpt lat="42.0077230" lon="-8.8811400">
        <ele>10.7</ele>
        <time>2021-05-19T08:28:28Z</time>
      </trkpt>
      <trkpt lat="42.0077350" lon="-8.8811460">
        <ele>10.7</ele>
        <time>2021-05-19T08:28:29Z</time>
      </trkpt>
      <trkpt lat="42.0077470" lon="-8.8811580">
        <ele>10.7</ele>
        <time>2021-05-19T08:28:30Z</time>
      </trkpt>
      <trkpt lat="42.0077580" lon="-8.8811830">
        <ele>10.6</ele>
        <time>2021-05-19T08:28:31Z</time>
      </trkpt>
      <trkpt lat="42.0077640" lon="-8.8811940">
        <ele>10.6</ele>
        <time>2021-05-19T08:28:32Z</time>
      </trkpt>
      <trkpt lat="42.0077690" lon="-8.8812040">
        <ele>10.6</ele>
        <time>2021-05-19T08:28:33Z</time>
      </trkpt>
      <trkpt lat="42.0077780" lon="-8.8812160">
        <ele>10.6</ele>
        <time>2021-05-19T08:28:34Z</time>
      </trkpt>
      <trkpt lat="42.0077840" lon="-8.8812360">
        <ele>10.5</ele>
        <time>2021-05-19T08:28:35Z</time>
      </trkpt>
      <trkpt lat="42.0077980" lon="-8.8812550">
        <ele>10.5</ele>
        <time>2021-05-19T08:28:36Z</time>
      </trkpt>
      <trkpt lat="42.0078060" lon="-8.8812620">
        <ele>10.4</ele>
        <time>2021-05-19T08:28:37Z</time>
      </trkpt>
      <trkpt lat="42.0078130" lon="-8.8812700">
        <ele>10.4</ele>
        <time>2021-05-19T08:28:38Z</time>
      </trkpt>
      <trkpt lat="42.0078250" lon="-8.8812780">
        <ele>10.3</ele>
        <time>2021-05-19T08:28:39Z</time>
      </trkpt>
      <trkpt lat="42.0078370" lon="-8.8812920">
        <ele>10.3</ele>
        <time>2021-05-19T08:28:40Z</time>
      </trkpt>
      <trkpt lat="42.0078420" lon="-8.8813100">
        <ele>10.3</ele>
        <time>2021-05-19T08:28:41Z</time>
      </trkpt>
      <trkpt lat="42.0078520" lon="-8.8813130">
        <ele>10.2</ele>
        <time>2021-05-19T08:28:42Z</time>
      </trkpt>
      <trkpt lat="42.0078600" lon="-8.8813150">
        <ele>10.2</ele>
        <time>2021-05-19T08:28:43Z</time>
      </trkpt>
      <trkpt lat="42.0078730" lon="-8.8813260">
        <ele>10.1</ele>
        <time>2021-05-19T08:28:44Z</time>
      </trkpt>
      <trkpt lat="42.0078820" lon="-8.8813410">
        <ele>10.1</ele>
        <time>2021-05-19T08:28:45Z</time>
      </trkpt>
      <trkpt lat="42.0078860" lon="-8.8813450">
        <ele>10.1</ele>
        <time>2021-05-19T08:28:46Z</time>
      </trkpt>
      <trkpt lat="42.0078930" lon="-8.8813560">
        <ele>10.0</ele>
        <time>2021-05-19T08:28:47Z</time>
      </trkpt>
      <trkpt lat="42.0079010" lon="-8.8813680">
        <ele>10.0</ele>
        <time>2021-05-19T08:28:48Z</time>
      </trkpt>
      <trkpt lat="42.0079140" lon="-8.8813780">
        <ele>10.0</ele>
        <time>2021-05-19T08:28:49Z</time>
      </trkpt>
      <trkpt lat="42.0079200" lon="-8.8813800">
        <ele>9.9</ele>
        <time>2021-05-19T08:28:50Z</time>
      </trkpt>
      <trkpt lat="42.0079290" lon="-8.8813930">
        <ele>9.9</ele>
        <time>2021-05-19T08:28:51Z</time>
      </trkpt>
      <trkpt lat="42.0079450" lon="-8.8813950">
        <ele>9.9</ele>
        <time>2021-05-19T08:28:52Z</time>
      </trkpt>
      <trkpt lat="42.0079580" lon="-8.8814040">
        <ele>9.8</ele>
        <time>2021-05-19T08:28:53Z</time>
      </trkpt>
      <trkpt lat="42.0079640" lon="-8.8814050">
        <ele>9.8</ele>
        <time>2021-05-19T08:28:54Z</time>
      </trkpt>
      <trkpt lat="42.0079880" lon="-8.8814120">
        <ele>9.8</ele>
        <time>2021-05-19T08:28:55Z</time>
      </trkpt>
      <trkpt lat="42.0080010" lon="-8.8814170">
        <ele>9.7</ele>
        <time>2021-05-19T08:28:56Z</time>
      </trkpt>
      <trkpt lat="42.0080180" lon="-8.8814280">
        <ele>9.7</ele>
        <time>2021-05-19T08:28:57Z</time>
      </trkpt>
      <trkpt lat="42.0080310" lon="-8.8814340">
        <ele>9.7</ele>
        <time>2021-05-19T08:28:58Z</time>
      </trkpt>
      <trkpt lat="42.0080490" lon="-8.8814410">
        <ele>9.7</ele>
        <time>2021-05-19T08:28:59Z</time>
      </trkpt>
      <trkpt lat="42.0080620" lon="-8.8814500">
        <ele>9.6</ele>
        <time>2021-05-19T08:29:00Z</time>
      </trkpt>
      <trkpt lat="42.0080740" lon="-8.8814580">
        <ele>9.6</ele>
        <time>2021-05-19T08:29:01Z</time>
      </trkpt>
      <trkpt lat="42.0080890" lon="-8.8814620">
        <ele>9.6</ele>
        <time>2021-05-19T08:29:02Z</time>
      </trkpt>
      <trkpt lat="42.0081030" lon="-8.8814710">
        <ele>9.6</ele>
        <time>2021-05-19T08:29:03Z</time>
      </trkpt>
      <trkpt lat="42.0081180" lon="-8.8814740">
        <ele>9.5</ele>
        <time>2021-05-19T08:29:04Z</time>
      </trkpt>
      <trkpt lat="42.0081350" lon="-8.8814790">
        <ele>9.5</ele>
        <time>2021-05-19T08:29:05Z</time>
      </trkpt>
      <trkpt lat="42.0081470" lon="-8.8814860">
        <ele>9.5</ele>
        <time>2021-05-19T08:29:06Z</time>
      </trkpt>
      <trkpt lat="42.0081620" lon="-8.8814910">
        <ele>9.5</ele>
        <time>2021-05-19T08:29:07Z</time>
      </trkpt>
      <trkpt lat="42.0081750" lon="-8.8815010">
        <ele>9.4</ele>
        <time>2021-05-19T08:29:08Z</time>
      </trkpt>
      <trkpt lat="42.0081890" lon="-8.8815060">
        <ele>9.4</ele>
        <time>2021-05-19T08:29:09Z</time>
      </trkpt>
      <trkpt lat="42.0082040" lon="-8.8815100">
        <ele>9.4</ele>
        <time>2021-05-19T08:29:10Z</time>
      </trkpt>
      <trkpt lat="42.0082210" lon="-8.8815120">
        <ele>9.4</ele>
        <time>2021-05-19T08:29:11Z</time>
      </trkpt>
      <trkpt lat="42.0082340" lon="-8.8815170">
        <ele>9.4</ele>
        <time>2021-05-19T08:29:12Z</time>
      </trkpt>
      <trkpt lat="42.0082490" lon="-8.8815260">
        <ele>9.3</ele>
        <time>2021-05-19T08:29:13Z</time>
      </trkpt>
      <trkpt lat="42.0082620" lon="-8.8815270">
        <ele>9.3</ele>
        <time>2021-05-19T08:29:14Z</time>
      </trkpt>
      <trkpt lat="42.0082770" lon="-8.8815350">
        <ele>9.3</ele>
        <time>2021-05-19T08:29:15Z</time>
      </trkpt>
      <trkpt lat="42.0082890" lon="-8.8815430">
        <ele>9.3</ele>
        <time>2021-05-19T08:29:16Z</time>
      </trkpt>
      <trkpt lat="42.0083030" lon="-8.8815490">
        <ele>9.3</ele>
        <time>2021-05-19T08:29:17Z</time>
      </trkpt>
      <trkpt lat="42.0083160" lon="-8.8815550">
        <ele>9.3</ele>
        <time>2021-05-19T08:29:18Z</time>
      </trkpt>
      <trkpt lat="42.0083310" lon="-8.8815560">
        <ele>9.2</ele>
        <time>2021-05-19T08:29:19Z</time>
      </trkpt>
      <trkpt lat="42.0083460" lon="-8.8815610">
        <ele>9.2</ele>
        <time>2021-05-19T08:29:20Z</time>
      </trkpt>
      <trkpt lat="42.0083590" lon="-8.8815720">
        <ele>9.2</ele>
        <time>2021-05-19T08:29:21Z</time>
      </trkpt>
      <trkpt lat="42.0083730" lon="-8.8815750">
        <ele>9.2</ele>
        <time>2021-05-19T08:29:22Z</time>
      </trkpt>
      <trkpt lat="42.0083890" lon="-8.8815840">
        <ele>9.2</ele>
        <time>2021-05-19T08:29:23Z</time>
      </trkpt>
      <trkpt lat="42.0084020" lon="-8.8815910">
        <ele>9.2</ele>
        <time>2021-05-19T08:29:24Z</time>
      </trkpt>
      <trkpt lat="42.0084170" lon="-8.8815960">
        <ele>9.2</ele>
        <time>2021-05-19T08:29:25Z</time>
      </trkpt>
      <trkpt lat="42.0084310" lon="-8.8816000">
        <ele>9.1</ele>
        <time>2021-05-19T08:29:26Z</time>
      </trkpt>
      <trkpt lat="42.0084450" lon="-8.8816090">
        <ele>9.1</ele>
        <time>2021-05-19T08:29:27Z</time>
      </trkpt>
      <trkpt lat="42.0084670" lon="-8.8816160">
        <ele>9.1</ele>
        <time>2021-05-19T08:29:28Z</time>
      </trkpt>
      <trkpt lat="42.0084770" lon="-8.8816210">
        <ele>9.1</ele>
        <time>2021-05-19T08:29:29Z</time>
      </trkpt>
      <trkpt lat="42.0084860" lon="-8.8816250">
        <ele>9.1</ele>
        <time>2021-05-19T08:29:30Z</time>
      </trkpt>
      <trkpt lat="42.0085000" lon="-8.8816300">
        <ele>9.1</ele>
        <time>2021-05-19T08:29:31Z</time>
      </trkpt>
      <trkpt lat="42.0085180" lon="-8.8816370">
        <ele>9.1</ele>
        <time>2021-05-19T08:29:32Z</time>
      </trkpt>
      <trkpt lat="42.0085310" lon="-8.8816430">
        <ele>9.1</ele>
        <time>2021-05-19T08:29:33Z</time>
      </trkpt>
      <trkpt lat="42.0085450" lon="-8.8816480">
        <ele>9.1</ele>
        <time>2021-05-19T08:29:34Z</time>
      </trkpt>
      <trkpt lat="42.0085600" lon="-8.8816540">
        <ele>9.0</ele>
        <time>2021-05-19T08:29:35Z</time>
      </trkpt>
      <trkpt lat="42.0085760" lon="-8.8816590">
        <ele>9.0</ele>
        <time>2021-05-19T08:29:36Z</time>
      </trkpt>
      <trkpt lat="42.0085910" lon="-8.8816560">
        <ele>9.0</ele>
        <time>2021-05-19T08:29:37Z</time>
      </trkpt>
      <trkpt lat="42.0086070" lon="-8.8816590">
        <ele>9.0</ele>
        <time>2021-05-19T08:29:38Z</time>
      </trkpt>
      <trkpt lat="42.0086230" lon="-8.8816630">
        <ele>9.0</ele>
        <time>2021-05-19T08:29:39Z</time>
      </trkpt>
      <trkpt lat="42.0086360" lon="-8.8816760">
        <ele>9.0</ele>
        <time>2021-05-19T08:29:40Z</time>
      </trkpt>
      <trkpt lat="42.0086470" lon="-8.8816840">
        <ele>9.0</ele>
        <time>2021-05-19T08:29:41Z</time>
      </trkpt>
      <trkpt lat="42.0086630" lon="-8.8816870">
        <ele>9.0</ele>
        <time>2021-05-19T08:29:42Z</time>
      </trkpt>
      <trkpt lat="42.0086760" lon="-8.8816930">
        <ele>9.0</ele>
        <time>2021-05-19T08:29:43Z</time>
      </trkpt>
      <trkpt lat="42.0086900" lon="-8.8817000">
        <ele>9.0</ele>
        <time>2021-05-19T08:29:44Z</time>
      </trkpt>
      <trkpt lat="42.0087050" lon="-8.8817040">
        <ele>9.0</ele>
        <time>2021-05-19T08:29:45Z</time>
      </trkpt>
      <trkpt lat="42.0087170" lon="-8.8817130">
        <ele>9.0</ele>
        <time>2021-05-19T08:29:46Z</time>
      </trkpt>
      <trkpt lat="42.0087280" lon="-8.8817300">
        <ele>9.0</ele>
        <time>2021-05-19T08:29:47Z</time>
      </trkpt>
      <trkpt lat="42.0087430" lon="-8.8817290">
        <ele>9.0</ele>
        <time>2021-05-19T08:29:48Z</time>
      </trkpt>
      <trkpt lat="42.0087580" lon="-8.8817380">
        <ele>9.0</ele>
        <time>2021-05-19T08:29:49Z</time>
      </trkpt>
      <trkpt lat="42.0087690" lon="-8.8817450">
        <ele>9.0</ele>
        <time>2021-05-19T08:29:50Z</time>
      </trkpt>
      <trkpt lat="42.0087760" lon="-8.8817450">
        <ele>8.9</ele>
        <time>2021-05-19T08:29:51Z</time>
      </trkpt>
      <trkpt lat="42.0087730" lon="-8.8817420">
        <ele>8.9</ele>
        <time>2021-05-19T08:29:52Z</time>
      </trkpt>
      <trkpt lat="42.0087700" lon="-8.8817390">
        <ele>8.9</ele>
        <time>2021-05-19T08:29:53Z</time>
      </trkpt>
      <trkpt lat="42.0087670" lon="-8.8817360">
        <ele>8.9</ele>
        <time>2021-05-19T08:29:54Z</time>
      </trkpt>
      <trkpt lat="42.0087640" lon="-8.8817330">
        <ele>8.9</ele>
        <time>2021-05-19T08:29:55Z</time>
      </trkpt>
      <trkpt lat="42.0087610" lon="-8.8817300">
        <ele>8.9</ele>
        <time>2021-05-19T08:29:56Z</time>
      </trkpt>
      <trkpt lat="42.0087570" lon="-8.8817280">
        <ele>8.9</ele>
        <time>2021-05-19T08:29:57Z</time>
      </trkpt>
      <trkpt lat="42.0087540" lon="-8.8817250">
        <ele>8.9</ele>
        <time>2021-05-19T08:29:58Z</time>
      </trkpt>
      <trkpt lat="42.0087510" lon="-8.8817220">
        <ele>8.9</ele>
        <time>2021-05-19T08:29:59Z</time>
      </trkpt>
      <trkpt lat="42.0087480" lon="-8.8817190">
        <ele>8.9</ele>
        <time>2021-05-19T08:30:00Z</time>
      </trkpt>
      <trkpt lat="42.0087450" lon="-8.8817160">
        <ele>8.9</ele>
        <time>2021-05-19T08:30:01Z</time>
      </trkpt>
      <trkpt lat="42.0087420" lon="-8.8817130">
        <ele>8.9</ele>
        <time>2021-05-19T08:30:02Z</time>
      </trkpt>
      <trkpt lat="42.0087360" lon="-8.8817100">
        <ele>8.9</ele>
        <time>2021-05-19T08:30:03Z</time>
      </trkpt>
      <trkpt lat="42.0087340" lon="-8.8817110">
        <ele>8.9</ele>
        <time>2021-05-19T08:30:04Z</time>
      </trkpt>
      <trkpt lat="42.0087340" lon="-8.8817110">
        <ele>8.9</ele>
        <time>2021-05-19T08:30:05Z</time>
      </trkpt>
      <trkpt lat="42.0087330" lon="-8.8817110">
        <ele>8.9</ele>
        <time>2021-05-19T08:30:06Z</time>
      </trkpt>
      <trkpt lat="42.0087320" lon="-8.8817100">
        <ele>8.9</ele>
        <time>2021-05-19T08:30:07Z</time>
      </trkpt>
      <trkpt lat="42.0087290" lon="-8.8817010">
        <ele>8.9</ele>
        <time>2021-05-19T08:30:08Z</time>
      </trkpt>
      <trkpt lat="42.0087230" lon="-8.8817080">
        <ele>8.9</ele>
        <time>2021-05-19T08:30:09Z</time>
      </trkpt>
      <trkpt lat="42.0087160" lon="-8.8817120">
        <ele>8.9</ele>
        <time>2021-05-19T08:30:10Z</time>
      </trkpt>
      <trkpt lat="42.0087090" lon="-8.8817120">
        <ele>8.9</ele>
        <time>2021-05-19T08:30:11Z</time>
      </trkpt>
      <trkpt lat="42.0087070" lon="-8.8817120">
        <ele>8.9</ele>
        <time>2021-05-19T08:30:12Z</time>
      </trkpt>
      <trkpt lat="42.0087020" lon="-8.8817100">
        <ele>8.9</ele>
        <time>2021-05-19T08:30:13Z</time>
      </trkpt>
      <trkpt lat="42.0086990" lon="-8.8817100">
        <ele>8.9</ele>
        <time>2021-05-19T08:30:14Z</time>
      </trkpt>
      <trkpt lat="42.0086970" lon="-8.8817100">
        <ele>8.9</ele>
        <time>2021-05-19T08:30:15Z</time>
      </trkpt>
      <trkpt lat="42.0086950" lon="-8.8817100">
        <ele>8.9</ele>
        <time>2021-05-19T08:30:16Z</time>
      </trkpt>
      <trkpt lat="42.0086920" lon="-8.8817120">
        <ele>8.9</ele>
        <time>2021-05-19T08:30:17Z</time>
      </trkpt>
      <trkpt lat="42.0086900" lon="-8.8817150">
        <ele>8.9</ele>
        <time>2021-05-19T08:30:18Z</time>
      </trkpt>
      <trkpt lat="42.0086870" lon="-8.8817150">
        <ele>8.9</ele>
        <time>2021-05-19T08:30:19Z</time>
      </trkpt>
      <trkpt lat="42.0086840" lon="-8.8817140">
        <ele>8.9</ele>
        <time>2021-05-19T08:30:20Z</time>
      </trkpt>
      <trkpt lat="42.0086830" lon="-8.8817140">
        <ele>8.9</ele>
        <time>2021-05-19T08:30:21Z</time>
      </trkpt>
      <trkpt lat="42.0086770" lon="-8.8817100">
        <ele>8.9</ele>
        <time>2021-05-19T08:30:22Z</time>
      </trkpt>
      <trkpt lat="42.0086770" lon="-8.8817110">
        <ele>8.9</ele>
        <time>2021-05-19T08:30:23Z</time>
      </trkpt>
      <trkpt lat="42.0086760" lon="-8.8817130">
        <ele>8.9</ele>
        <time>2021-05-19T08:30:24Z</time>
      </trkpt>
      <trkpt lat="42.0086740" lon="-8.8817150">
        <ele>8.9</ele>
        <time>2021-05-19T08:30:25Z</time>
      </trkpt>
      <trkpt lat="42.0086730" lon="-8.8817150">
        <ele>8.9</ele>
        <time>2021-05-19T08:30:26Z</time>
      </trkpt>
      <trkpt lat="42.0086720" lon="-8.8817130">
        <ele>8.9</ele>
        <time>2021-05-19T08:30:27Z</time>
      </trkpt>
      <trkpt lat="42.0086720" lon="-8.8817150">
        <ele>8.9</ele>
        <time>2021-05-19T08:30:28Z</time>
      </trkpt>
      <trkpt lat="42.0086740" lon="-8.8817140">
        <ele>8.9</ele>
        <time>2021-05-19T08:30:29Z</time>
      </trkpt>
      <trkpt lat="42.0086740" lon="-8.8817120">
        <ele>8.9</ele>
        <time>2021-05-19T08:30:30Z</time>
      </trkpt>
      <trkpt lat="42.0086740" lon="-8.8817140">
        <ele>8.9</ele>
        <time>2021-05-19T08:30:31Z</time>
      </trkpt>
      <trkpt lat="42.0086760" lon="-8.8817130">
        <ele>8.9</ele>
        <time>2021-05-19T08:30:32Z</time>
      </trkpt>
      <trkpt lat="42.0086840" lon="-8.8817130">
        <ele>8.9</ele>
        <time>2021-05-19T08:30:33Z</time>
      </trkpt>
      <trkpt lat="42.0086820" lon="-8.8817120">
        <ele>8.9</ele>
        <time>2021-05-19T08:30:34Z</time>
      </trkpt>
      <trkpt lat="42.0087000" lon="-8.8817170">
        <ele>8.9</ele>
        <time>2021-05-19T08:30:35Z</time>
      </trkpt>
      <trkpt lat="42.0087060" lon="-8.8817200">
        <ele>8.9</ele>
        <time>2021-05-19T08:30:36Z</time>
      </trkpt>
      <trkpt lat="42.0087160" lon="-8.8817290">
        <ele>8.9</ele>
        <time>2021-05-19T08:30:37Z</time>
      </trkpt>
      <trkpt lat="42.0087220" lon="-8.8817310">
        <ele>8.9</ele>
        <time>2021-05-19T08:30:38Z</time>
      </trkpt>
      <trkpt lat="42.0087310" lon="-8.8817450">
        <ele>8.9</ele>
        <time>2021-05-19T08:30:39Z</time>
      </trkpt>
      <trkpt lat="42.0087490" lon="-8.8817610">
        <ele>8.9</ele>
        <time>2021-05-19T08:30:40Z</time>
      </trkpt>
      <trkpt lat="42.0087560" lon="-8.8817670">
        <ele>8.9</ele>
        <time>2021-05-19T08:30:41Z</time>
      </trkpt>
      <trkpt lat="42.0087640" lon="-8.8817730">
        <ele>8.9</ele>
        <time>2021-05-19T08:30:42Z</time>
      </trkpt>
      <trkpt lat="42.0087620" lon="-8.8817810">
        <ele>8.9</ele>
        <time>2021-05-19T08:30:43Z</time>
      </trkpt>
      <trkpt lat="42.0087790" lon="-8.8817920">
        <ele>8.9</ele>
        <time>2021-05-19T08:30:44Z</time>
      </trkpt>
      <trkpt lat="42.0087850" lon="-8.8817980">
        <ele>8.8</ele>
        <time>2021-05-19T08:30:45Z</time>
      </trkpt>
      <trkpt lat="42.0088070" lon="-8.8818120">
        <ele>8.8</ele>
        <time>2021-05-19T08:30:46Z</time>
      </trkpt>
      <trkpt lat="42.0088160" lon="-8.8818150">
        <ele>8.8</ele>
        <time>2021-05-19T08:30:47Z</time>
      </trkpt>
      <trkpt lat="42.0088290" lon="-8.8818220">
        <ele>8.8</ele>
        <time>2021-05-19T08:30:48Z</time>
      </trkpt>
      <trkpt lat="42.0088420" lon="-8.8818290">
        <ele>8.8</ele>
        <time>2021-05-19T08:30:49Z</time>
      </trkpt>
      <trkpt lat="42.0088420" lon="-8.8818320">
        <ele>8.8</ele>
        <time>2021-05-19T08:30:50Z</time>
      </trkpt>
      <trkpt lat="42.0088540" lon="-8.8818390">
        <ele>8.8</ele>
        <time>2021-05-19T08:30:51Z</time>
      </trkpt>
      <trkpt lat="42.0088680" lon="-8.8818470">
        <ele>8.8</ele>
        <time>2021-05-19T08:30:52Z</time>
      </trkpt>
      <trkpt lat="42.0088750" lon="-8.8818530">
        <ele>8.8</ele>
        <time>2021-05-19T08:30:53Z</time>
      </trkpt>
      <trkpt lat="42.0088860" lon="-8.8818540">
        <ele>8.8</ele>
        <time>2021-05-19T08:30:54Z</time>
      </trkpt>
      <trkpt lat="42.0088970" lon="-8.8818640">
        <ele>8.8</ele>
        <time>2021-05-19T08:30:55Z</time>
      </trkpt>
      <trkpt lat="42.0089110" lon="-8.8818760">
        <ele>8.8</ele>
        <time>2021-05-19T08:30:56Z</time>
      </trkpt>
      <trkpt lat="42.0089230" lon="-8.8818810">
        <ele>8.8</ele>
        <time>2021-05-19T08:30:57Z</time>
      </trkpt>
      <trkpt lat="42.0089390" lon="-8.8818880">
        <ele>8.8</ele>
        <time>2021-05-19T08:30:58Z</time>
      </trkpt>
      <trkpt lat="42.0089530" lon="-8.8818910">
        <ele>8.8</ele>
        <time>2021-05-19T08:30:59Z</time>
      </trkpt>
      <trkpt lat="42.0089680" lon="-8.8818970">
        <ele>8.8</ele>
        <time>2021-05-19T08:31:00Z</time>
      </trkpt>
      <trkpt lat="42.0089700" lon="-8.8818980">
        <ele>8.8</ele>
        <time>2021-05-19T08:31:01Z</time>
      </trkpt>
      <trkpt lat="42.0089720" lon="-8.8819000">
        <ele>8.8</ele>
        <time>2021-05-19T08:31:02Z</time>
      </trkpt>
      <trkpt lat="42.0089740" lon="-8.8819020">
        <ele>8.8</ele>
        <time>2021-05-19T08:31:03Z</time>
      </trkpt>
      <trkpt lat="42.0089770" lon="-8.8819030">
        <ele>8.8</ele>
        <time>2021-05-19T08:31:04Z</time>
      </trkpt>
      <trkpt lat="42.0089790" lon="-8.8819050">
        <ele>8.8</ele>
        <time>2021-05-19T08:31:05Z</time>
      </trkpt>
      <trkpt lat="42.0089810" lon="-8.8819070">
        <ele>8.8</ele>
        <time>2021-05-19T08:31:06Z</time>
      </trkpt>
      <trkpt lat="42.0089830" lon="-8.8819090">
        <ele>8.8</ele>
        <time>2021-05-19T08:31:07Z</time>
      </trkpt>
      <trkpt lat="42.0089850" lon="-8.8819100">
        <ele>8.8</ele>
        <time>2021-05-19T08:31:08Z</time>
      </trkpt>
      <trkpt lat="42.0089870" lon="-8.8819120">
        <ele>8.8</ele>
        <time>2021-05-19T08:31:09Z</time>
      </trkpt>
      <trkpt lat="42.0089970" lon="-8.8819180">
        <ele>8.8</ele>
        <time>2021-05-19T08:31:10Z</time>
      </trkpt>
      <trkpt lat="42.0090060" lon="-8.8819240">
        <ele>8.8</ele>
        <time>2021-05-19T08:31:11Z</time>
      </trkpt>
      <trkpt lat="42.0090170" lon="-8.8819240">
        <ele>8.8</ele>
        <time>2021-05-19T08:31:12Z</time>
      </trkpt>
      <trkpt lat="42.0090360" lon="-8.8819260">
        <ele>8.8</ele>
        <time>2021-05-19T08:31:13Z</time>
      </trkpt>
      <trkpt lat="42.0090170" lon="-8.8819250">
        <ele>8.8</ele>
        <time>2021-05-19T08:31:14Z</time>
      </trkpt>
      <trkpt lat="42.0090180" lon="-8.8819250">
        <ele>8.8</ele>
        <time>2021-05-19T08:31:15Z</time>
      </trkpt>
      <trkpt lat="42.0090260" lon="-8.8819330">
        <ele>8.8</ele>
        <time>2021-05-19T08:31:16Z</time>
      </trkpt>
      <trkpt lat="42.0090410" lon="-8.8819470">
        <ele>8.8</ele>
        <time>2021-05-19T08:31:17Z</time>
      </trkpt>
      <trkpt lat="42.0090510" lon="-8.8819570">
        <ele>8.8</ele>
        <time>2021-05-19T08:31:18Z</time>
      </trkpt>
      <trkpt lat="42.0090680" lon="-8.8819610">
        <ele>8.8</ele>
        <time>2021-05-19T08:31:19Z</time>
      </trkpt>
      <trkpt lat="42.0090830" lon="-8.8819600">
        <ele>8.8</ele>
        <time>2021-05-19T08:31:20Z</time>
      </trkpt>
      <trkpt lat="42.0090960" lon="-8.8819640">
        <ele>8.8</ele>
        <time>2021-05-19T08:31:21Z</time>
      </trkpt>
      <trkpt lat="42.0091170" lon="-8.8819700">
        <ele>8.8</ele>
        <time>2021-05-19T08:31:22Z</time>
      </trkpt>
      <trkpt lat="42.0091250" lon="-8.8819740">
        <ele>8.8</ele>
        <time>2021-05-19T08:31:23Z</time>
      </trkpt>
      <trkpt lat="42.0091330" lon="-8.8819770">
        <ele>8.8</ele>
        <time>2021-05-19T08:31:24Z</time>
      </trkpt>
      <trkpt lat="42.0091440" lon="-8.8819810">
        <ele>8.8</ele>
        <time>2021-05-19T08:31:25Z</time>
      </trkpt>
      <trkpt lat="42.0091540" lon="-8.8819880">
        <ele>8.8</ele>
        <time>2021-05-19T08:31:26Z</time>
      </trkpt>
      <trkpt lat="42.0091650" lon="-8.8819970">
        <ele>8.8</ele>
        <time>2021-05-19T08:31:27Z</time>
      </trkpt>
      <trkpt lat="42.0091810" lon="-8.8819940">
        <ele>8.8</ele>
        <time>2021-05-19T08:31:28Z</time>
      </trkpt>
      <trkpt lat="42.0091960" lon="-8.8819900">
        <ele>8.8</ele>
        <time>2021-05-19T08:31:29Z</time>
      </trkpt>
      <trkpt lat="42.0092170" lon="-8.8819970">
        <ele>8.8</ele>
        <time>2021-05-19T08:31:30Z</time>
      </trkpt>
      <trkpt lat="42.0092300" lon="-8.8819940">
        <ele>8.8</ele>
        <time>2021-05-19T08:31:31Z</time>
      </trkpt>
      <trkpt lat="42.0092480" lon="-8.8819980">
        <ele>8.8</ele>
        <time>2021-05-19T08:31:32Z</time>
      </trkpt>
      <trkpt lat="42.0092650" lon="-8.8820000">
        <ele>8.9</ele>
        <time>2021-05-19T08:31:33Z</time>
      </trkpt>
      <trkpt lat="42.0092820" lon="-8.8820090">
        <ele>8.9</ele>
        <time>2021-05-19T08:31:34Z</time>
      </trkpt>
      <trkpt lat="42.0092970" lon="-8.8820110">
        <ele>8.9</ele>
        <time>2021-05-19T08:31:35Z</time>
      </trkpt>
      <trkpt lat="42.0093120" lon="-8.8820120">
        <ele>8.9</ele>
        <time>2021-05-19T08:31:36Z</time>
      </trkpt>
      <trkpt lat="42.0093280" lon="-8.8820190">
        <ele>8.9</ele>
        <time>2021-05-19T08:31:37Z</time>
      </trkpt>
      <trkpt lat="42.0093290" lon="-8.8820280">
        <ele>8.9</ele>
        <time>2021-05-19T08:31:38Z</time>
      </trkpt>
      <trkpt lat="42.0093240" lon="-8.8820310">
        <ele>8.9</ele>
        <time>2021-05-19T08:31:39Z</time>
      </trkpt>
      <trkpt lat="42.0093160" lon="-8.8820270">
        <ele>8.9</ele>
        <time>2021-05-19T08:31:40Z</time>
      </trkpt>
      <trkpt lat="42.0093250" lon="-8.8820300">
        <ele>8.9</ele>
        <time>2021-05-19T08:31:41Z</time>
      </trkpt>
      <trkpt lat="42.0093410" lon="-8.8820300">
        <ele>8.9</ele>
        <time>2021-05-19T08:31:42Z</time>
      </trkpt>
      <trkpt lat="42.0093510" lon="-8.8820370">
        <ele>8.9</ele>
        <time>2021-05-19T08:31:43Z</time>
      </trkpt>
      <trkpt lat="42.0093560" lon="-8.8820340">
        <ele>8.9</ele>
        <time>2021-05-19T08:31:44Z</time>
      </trkpt>
      <trkpt lat="42.0093810" lon="-8.8820410">
        <ele>9.0</ele>
        <time>2021-05-19T08:31:45Z</time>
      </trkpt>
      <trkpt lat="42.0093870" lon="-8.8820430">
        <ele>9.0</ele>
        <time>2021-05-19T08:31:46Z</time>
      </trkpt>
      <trkpt lat="42.0093930" lon="-8.8820460">
        <ele>9.0</ele>
        <time>2021-05-19T08:31:47Z</time>
      </trkpt>
      <trkpt lat="42.0094000" lon="-8.8820550">
        <ele>9.0</ele>
        <time>2021-05-19T08:31:48Z</time>
      </trkpt>
      <trkpt lat="42.0094120" lon="-8.8820550">
        <ele>9.0</ele>
        <time>2021-05-19T08:31:49Z</time>
      </trkpt>
      <trkpt lat="42.0094270" lon="-8.8820590">
        <ele>9.0</ele>
        <time>2021-05-19T08:31:50Z</time>
      </trkpt>
      <trkpt lat="42.0094480" lon="-8.8820660">
        <ele>9.0</ele>
        <time>2021-05-19T08:31:51Z</time>
      </trkpt>
      <trkpt lat="42.0094560" lon="-8.8820690">
        <ele>9.0</ele>
        <time>2021-05-19T08:31:52Z</time>
      </trkpt>
      <trkpt lat="42.0094640" lon="-8.8820720">
        <ele>9.0</ele>
        <time>2021-05-19T08:31:53Z</time>
      </trkpt>
      <trkpt lat="42.0094790" lon="-8.8820740">
        <ele>9.0</ele>
        <time>2021-05-19T08:31:54Z</time>
      </trkpt>
      <trkpt lat="42.0094850" lon="-8.8820780">
        <ele>9.0</ele>
        <time>2021-05-19T08:31:55Z</time>
      </trkpt>
      <trkpt lat="42.0094930" lon="-8.8820790">
        <ele>9.0</ele>
        <time>2021-05-19T08:31:56Z</time>
      </trkpt>
      <trkpt lat="42.0095060" lon="-8.8820850">
        <ele>9.0</ele>
        <time>2021-05-19T08:31:57Z</time>
      </trkpt>
      <trkpt lat="42.0095270" lon="-8.8820870">
        <ele>9.0</ele>
        <time>2021-05-19T08:31:58Z</time>
      </trkpt>
      <trkpt lat="42.0095430" lon="-8.8820860">
        <ele>9.0</ele>
        <time>2021-05-19T08:31:59Z</time>
      </trkpt>
      <trkpt lat="42.0095580" lon="-8.8820910">
        <ele>9.0</ele>
        <time>2021-05-19T08:32:00Z</time>
      </trkpt>
      <trkpt lat="42.0095720" lon="-8.8820930">
        <ele>9.0</ele>
        <time>2021-05-19T08:32:01Z</time>
      </trkpt>
      <trkpt lat="42.0095870" lon="-8.8820940">
        <ele>9.0</ele>
        <time>2021-05-19T08:32:02Z</time>
      </trkpt>
      <trkpt lat="42.0096010" lon="-8.8821030">
        <ele>9.0</ele>
        <time>2021-05-19T08:32:03Z</time>
      </trkpt>
      <trkpt lat="42.0096190" lon="-8.8821100">
        <ele>9.0</ele>
        <time>2021-05-19T08:32:04Z</time>
      </trkpt>
      <trkpt lat="42.0096470" lon="-8.8821180">
        <ele>9.0</ele>
        <time>2021-05-19T08:32:05Z</time>
      </trkpt>
      <trkpt lat="42.0096550" lon="-8.8821210">
        <ele>9.0</ele>
        <time>2021-05-19T08:32:06Z</time>
      </trkpt>
      <trkpt lat="42.0096820" lon="-8.8821290">
        <ele>9.1</ele>
        <time>2021-05-19T08:32:07Z</time>
      </trkpt>
      <trkpt lat="42.0096910" lon="-8.8821300">
        <ele>9.1</ele>
        <time>2021-05-19T08:32:08Z</time>
      </trkpt>
      <trkpt lat="42.0097070" lon="-8.8821370">
        <ele>9.1</ele>
        <time>2021-05-19T08:32:09Z</time>
      </trkpt>
      <trkpt lat="42.0097240" lon="-8.8821390">
        <ele>9.1</ele>
        <time>2021-05-19T08:32:10Z</time>
      </trkpt>
      <trkpt lat="42.0097410" lon="-8.8821390">
        <ele>9.1</ele>
        <time>2021-05-19T08:32:11Z</time>
      </trkpt>
      <trkpt lat="42.0097550" lon="-8.8821450">
        <ele>9.1</ele>
        <time>2021-05-19T08:32:12Z</time>
      </trkpt>
      <trkpt lat="42.0097690" lon="-8.8821480">
        <ele>9.1</ele>
        <time>2021-05-19T08:32:13Z</time>
      </trkpt>
      <trkpt lat="42.0097860" lon="-8.8821560">
        <ele>9.1</ele>
        <time>2021-05-19T08:32:14Z</time>
      </trkpt>
      <trkpt lat="42.0098020" lon="-8.8821540">
        <ele>9.2</ele>
        <time>2021-05-19T08:32:15Z</time>
      </trkpt>
      <trkpt lat="42.0098190" lon="-8.8821590">
        <ele>9.2</ele>
        <time>2021-05-19T08:32:16Z</time>
      </trkpt>
      <trkpt lat="42.0098350" lon="-8.8821480">
        <ele>9.2</ele>
        <time>2021-05-19T08:32:17Z</time>
      </trkpt>
      <trkpt lat="42.0098510" lon="-8.8821570">
        <ele>9.2</ele>
        <time>2021-05-19T08:32:18Z</time>
      </trkpt>
      <trkpt lat="42.0098660" lon="-8.8821550">
        <ele>9.2</ele>
        <time>2021-05-19T08:32:19Z</time>
      </trkpt>
      <trkpt lat="42.0098840" lon="-8.8821620">
        <ele>9.2</ele>
        <time>2021-05-19T08:32:20Z</time>
      </trkpt>
      <trkpt lat="42.0098980" lon="-8.8821560">
        <ele>9.2</ele>
        <time>2021-05-19T08:32:21Z</time>
      </trkpt>
      <trkpt lat="42.0099140" lon="-8.8821560">
        <ele>9.3</ele>
        <time>2021-05-19T08:32:22Z</time>
      </trkpt>
      <trkpt lat="42.0099310" lon="-8.8821490">
        <ele>9.3</ele>
        <time>2021-05-19T08:32:23Z</time>
      </trkpt>
      <trkpt lat="42.0099470" lon="-8.8821470">
        <ele>9.3</ele>
        <time>2021-05-19T08:32:24Z</time>
      </trkpt>
      <trkpt lat="42.0099620" lon="-8.8821510">
        <ele>9.3</ele>
        <time>2021-05-19T08:32:25Z</time>
      </trkpt>
      <trkpt lat="42.0099790" lon="-8.8821460">
        <ele>9.3</ele>
        <time>2021-05-19T08:32:26Z</time>
      </trkpt>
      <trkpt lat="42.0099940" lon="-8.8821430">
        <ele>9.4</ele>
        <time>2021-05-19T08:32:27Z</time>
      </trkpt>
      <trkpt lat="42.0100090" lon="-8.8821470">
        <ele>9.4</ele>
        <time>2021-05-19T08:32:28Z</time>
      </trkpt>
      <trkpt lat="42.0100250" lon="-8.8821430">
        <ele>9.4</ele>
        <time>2021-05-19T08:32:29Z</time>
      </trkpt>
      <trkpt lat="42.0100410" lon="-8.8821410">
        <ele>9.4</ele>
        <time>2021-05-19T08:32:30Z</time>
      </trkpt>
      <trkpt lat="42.0100560" lon="-8.8821420">
        <ele>9.5</ele>
        <time>2021-05-19T08:32:31Z</time>
      </trkpt>
      <trkpt lat="42.0100700" lon="-8.8821360">
        <ele>9.5</ele>
        <time>2021-05-19T08:32:32Z</time>
      </trkpt>
      <trkpt lat="42.0100850" lon="-8.8821290">
        <ele>9.5</ele>
        <time>2021-05-19T08:32:33Z</time>
      </trkpt>
      <trkpt lat="42.0101000" lon="-8.8821230">
        <ele>9.5</ele>
        <time>2021-05-19T08:32:34Z</time>
      </trkpt>
      <trkpt lat="42.0101180" lon="-8.8821240">
        <ele>9.6</ele>
        <time>2021-05-19T08:32:35Z</time>
      </trkpt>
      <trkpt lat="42.0101330" lon="-8.8821170">
        <ele>9.6</ele>
        <time>2021-05-19T08:32:36Z</time>
      </trkpt>
      <trkpt lat="42.0101470" lon="-8.8821120">
        <ele>9.6</ele>
        <time>2021-05-19T08:32:37Z</time>
      </trkpt>
      <trkpt lat="42.0101620" lon="-8.8821090">
        <ele>9.7</ele>
        <time>2021-05-19T08:32:38Z</time>
      </trkpt>
      <trkpt lat="42.0101780" lon="-8.8821130">
        <ele>9.7</ele>
        <time>2021-05-19T08:32:39Z</time>
      </trkpt>
      <trkpt lat="42.0101930" lon="-8.8821060">
        <ele>9.7</ele>
        <time>2021-05-19T08:32:40Z</time>
      </trkpt>
      <trkpt lat="42.0102080" lon="-8.8821090">
        <ele>9.8</ele>
        <time>2021-05-19T08:32:41Z</time>
      </trkpt>
      <trkpt lat="42.0102230" lon="-8.8821080">
        <ele>9.8</ele>
        <time>2021-05-19T08:32:42Z</time>
      </trkpt>
      <trkpt lat="42.0102380" lon="-8.8821100">
        <ele>9.9</ele>
        <time>2021-05-19T08:32:43Z</time>
      </trkpt>
      <trkpt lat="42.0102540" lon="-8.8821030">
        <ele>9.9</ele>
        <time>2021-05-19T08:32:44Z</time>
      </trkpt>
      <trkpt lat="42.0102700" lon="-8.8821060">
        <ele>9.9</ele>
        <time>2021-05-19T08:32:45Z</time>
      </trkpt>
      <trkpt lat="42.0102850" lon="-8.8820980">
        <ele>10.0</ele>
        <time>2021-05-19T08:32:46Z</time>
      </trkpt>
      <trkpt lat="42.0103000" lon="-8.8821060">
        <ele>10.0</ele>
        <time>2021-05-19T08:32:47Z</time>
      </trkpt>
      <trkpt lat="42.0103140" lon="-8.8821010">
        <ele>10.1</ele>
        <time>2021-05-19T08:32:48Z</time>
      </trkpt>
      <trkpt lat="42.0103290" lon="-8.8821020">
        <ele>10.1</ele>
        <time>2021-05-19T08:32:49Z</time>
      </trkpt>
      <trkpt lat="42.0103410" lon="-8.8820990">
        <ele>10.1</ele>
        <time>2021-05-19T08:32:50Z</time>
      </trkpt>
      <trkpt lat="42.0103550" lon="-8.8820950">
        <ele>10.2</ele>
        <time>2021-05-19T08:32:51Z</time>
      </trkpt>
      <trkpt lat="42.0103700" lon="-8.8820960">
        <ele>10.2</ele>
        <time>2021-05-19T08:32:52Z</time>
      </trkpt>
      <trkpt lat="42.0103840" lon="-8.8820950">
        <ele>10.2</ele>
        <time>2021-05-19T08:32:53Z</time>
      </trkpt>
      <trkpt lat="42.0103990" lon="-8.8820850">
        <ele>10.3</ele>
        <time>2021-05-19T08:32:54Z</time>
      </trkpt>
      <trkpt lat="42.0104140" lon="-8.8820870">
        <ele>10.3</ele>
        <time>2021-05-19T08:32:55Z</time>
      </trkpt>
      <trkpt lat="42.0104290" lon="-8.8820860">
        <ele>10.4</ele>
        <time>2021-05-19T08:32:56Z</time>
      </trkpt>
      <trkpt lat="42.0104450" lon="-8.8820900">
        <ele>10.4</ele>
        <time>2021-05-19T08:32:57Z</time>
      </trkpt>
      <trkpt lat="42.0104600" lon="-8.8820880">
        <ele>10.5</ele>
        <time>2021-05-19T08:32:58Z</time>
      </trkpt>
      <trkpt lat="42.0104760" lon="-8.8820810">
        <ele>10.5</ele>
        <time>2021-05-19T08:32:59Z</time>
      </trkpt>
      <trkpt lat="42.0104900" lon="-8.8820780">
        <ele>10.5</ele>
        <time>2021-05-19T08:33:00Z</time>
      </trkpt>
      <trkpt lat="42.0105050" lon="-8.8820740">
        <ele>10.6</ele>
        <time>2021-05-19T08:33:01Z</time>
      </trkpt>
      <trkpt lat="42.0105170" lon="-8.8820760">
        <ele>10.6</ele>
        <time>2021-05-19T08:33:02Z</time>
      </trkpt>
      <trkpt lat="42.0105310" lon="-8.8820790">
        <ele>10.7</ele>
        <time>2021-05-19T08:33:03Z</time>
      </trkpt>
      <trkpt lat="42.0105450" lon="-8.8820750">
        <ele>10.7</ele>
        <time>2021-05-19T08:33:04Z</time>
      </trkpt>
      <trkpt lat="42.0105580" lon="-8.8820690">
        <ele>10.8</ele>
        <time>2021-05-19T08:33:05Z</time>
      </trkpt>
      <trkpt lat="42.0105730" lon="-8.8820730">
        <ele>10.8</ele>
        <time>2021-05-19T08:33:06Z</time>
      </trkpt>
      <trkpt lat="42.0105870" lon="-8.8820740">
        <ele>10.8</ele>
        <time>2021-05-19T08:33:07Z</time>
      </trkpt>
      <trkpt lat="42.0106000" lon="-8.8820700">
        <ele>10.9</ele>
        <time>2021-05-19T08:33:08Z</time>
      </trkpt>
      <trkpt lat="42.0106150" lon="-8.8820670">
        <ele>11.0</ele>
        <time>2021-05-19T08:33:09Z</time>
      </trkpt>
      <trkpt lat="42.0106280" lon="-8.8820630">
        <ele>11.0</ele>
        <time>2021-05-19T08:33:10Z</time>
      </trkpt>
      <trkpt lat="42.0106430" lon="-8.8820620">
        <ele>11.1</ele>
        <time>2021-05-19T08:33:11Z</time>
      </trkpt>
      <trkpt lat="42.0106560" lon="-8.8820580">
        <ele>11.1</ele>
        <time>2021-05-19T08:33:12Z</time>
      </trkpt>
      <trkpt lat="42.0106690" lon="-8.8820470">
        <ele>11.2</ele>
        <time>2021-05-19T08:33:13Z</time>
      </trkpt>
      <trkpt lat="42.0106840" lon="-8.8820450">
        <ele>11.2</ele>
        <time>2021-05-19T08:33:14Z</time>
      </trkpt>
      <trkpt lat="42.0106980" lon="-8.8820460">
        <ele>11.3</ele>
        <time>2021-05-19T08:33:15Z</time>
      </trkpt>
      <trkpt lat="42.0107130" lon="-8.8820490">
        <ele>11.4</ele>
        <time>2021-05-19T08:33:16Z</time>
      </trkpt>
      <trkpt lat="42.0107260" lon="-8.8820430">
        <ele>11.4</ele>
        <time>2021-05-19T08:33:17Z</time>
      </trkpt>
      <trkpt lat="42.0107310" lon="-8.8820430">
        <ele>11.4</ele>
        <time>2021-05-19T08:33:18Z</time>
      </trkpt>
      <trkpt lat="42.0107370" lon="-8.8820420">
        <ele>11.5</ele>
        <time>2021-05-19T08:33:19Z</time>
      </trkpt>
      <trkpt lat="42.0107440" lon="-8.8820430">
        <ele>11.5</ele>
        <time>2021-05-19T08:33:20Z</time>
      </trkpt>
      <trkpt lat="42.0107470" lon="-8.8820420">
        <ele>11.5</ele>
        <time>2021-05-19T08:33:21Z</time>
      </trkpt>
      <trkpt lat="42.0107580" lon="-8.8820430">
        <ele>11.5</ele>
        <time>2021-05-19T08:33:22Z</time>
      </trkpt>
      <trkpt lat="42.0107640" lon="-8.8820380">
        <ele>11.6</ele>
        <time>2021-05-19T08:33:23Z</time>
      </trkpt>
      <trkpt lat="42.0107650" lon="-8.8820400">
        <ele>11.6</ele>
        <time>2021-05-19T08:33:24Z</time>
      </trkpt>
      <trkpt lat="42.0107720" lon="-8.8820410">
        <ele>11.6</ele>
        <time>2021-05-19T08:33:25Z</time>
      </trkpt>
      <trkpt lat="42.0107860" lon="-8.8820420">
        <ele>11.7</ele>
        <time>2021-05-19T08:33:26Z</time>
      </trkpt>
      <trkpt lat="42.0107920" lon="-8.8820420">
        <ele>11.7</ele>
        <time>2021-05-19T08:33:27Z</time>
      </trkpt>
      <trkpt lat="42.0108050" lon="-8.8820420">
        <ele>11.8</ele>
        <time>2021-05-19T08:33:28Z</time>
      </trkpt>
      <trkpt lat="42.0108120" lon="-8.8820440">
        <ele>11.8</ele>
        <time>2021-05-19T08:33:29Z</time>
      </trkpt>
      <trkpt lat="42.0108210" lon="-8.8820480">
        <ele>11.8</ele>
        <time>2021-05-19T08:33:30Z</time>
      </trkpt>
      <trkpt lat="42.0108260" lon="-8.8820530">
        <ele>11.8</ele>
        <time>2021-05-19T08:33:31Z</time>
      </trkpt>
      <trkpt lat="42.0108350" lon="-8.8820550">
        <ele>11.9</ele>
        <time>2021-05-19T08:33:32Z</time>
      </trkpt>
      <trkpt lat="42.0108370" lon="-8.8820530">
        <ele>11.9</ele>
        <time>2021-05-19T08:33:33Z</time>
      </trkpt>
      <trkpt lat="42.0108520" lon="-8.8820600">
        <ele>12.0</ele>
        <time>2021-05-19T08:33:34Z</time>
      </trkpt>
      <trkpt lat="42.0108570" lon="-8.8820590">
        <ele>12.0</ele>
        <time>2021-05-19T08:33:35Z</time>
      </trkpt>
      <trkpt lat="42.0108680" lon="-8.8820590">
        <ele>12.0</ele>
        <time>2021-05-19T08:33:36Z</time>
      </trkpt>
      <trkpt lat="42.0108880" lon="-8.8820610">
        <ele>12.1</ele>
        <time>2021-05-19T08:33:37Z</time>
      </trkpt>
      <trkpt lat="42.0108960" lon="-8.8820640">
        <ele>12.2</ele>
        <time>2021-05-19T08:33:38Z</time>
      </trkpt>
      <trkpt lat="42.0109050" lon="-8.8820670">
        <ele>12.2</ele>
        <time>2021-05-19T08:33:39Z</time>
      </trkpt>
      <trkpt lat="42.0109120" lon="-8.8820650">
        <ele>12.2</ele>
        <time>2021-05-19T08:33:40Z</time>
      </trkpt>
      <trkpt lat="42.0109190" lon="-8.8820730">
        <ele>12.3</ele>
        <time>2021-05-19T08:33:41Z</time>
      </trkpt>
      <trkpt lat="42.0109250" lon="-8.8820750">
        <ele>12.3</ele>
        <time>2021-05-19T08:33:42Z</time>
      </trkpt>
      <trkpt lat="42.0109370" lon="-8.8820840">
        <ele>12.4</ele>
        <time>2021-05-19T08:33:43Z</time>
      </trkpt>
      <trkpt lat="42.0109440" lon="-8.8820840">
        <ele>12.4</ele>
        <time>2021-05-19T08:33:44Z</time>
      </trkpt>
      <trkpt lat="42.0109450" lon="-8.8820890">
        <ele>12.4</ele>
        <time>2021-05-19T08:33:45Z</time>
      </trkpt>
      <trkpt lat="42.0109550" lon="-8.8820930">
        <ele>12.5</ele>
        <time>2021-05-19T08:33:46Z</time>
      </trkpt>
      <trkpt lat="42.0109660" lon="-8.8821000">
        <ele>12.5</ele>
        <time>2021-05-19T08:33:47Z</time>
      </trkpt>
      <trkpt lat="42.0109780" lon="-8.8821100">
        <ele>12.6</ele>
        <time>2021-05-19T08:33:48Z</time>
      </trkpt>
      <trkpt lat="42.0109870" lon="-8.8821130">
        <ele>12.6</ele>
        <time>2021-05-19T08:33:49Z</time>
      </trkpt>
      <trkpt lat="42.0109950" lon="-8.8821150">
        <ele>12.7</ele>
        <time>2021-05-19T08:33:50Z</time>
      </trkpt>
      <trkpt lat="42.0110030" lon="-8.8821180">
        <ele>12.7</ele>
        <time>2021-05-19T08:33:51Z</time>
      </trkpt>
      <trkpt lat="42.0110170" lon="-8.8821160">
        <ele>12.8</ele>
        <time>2021-05-19T08:33:52Z</time>
      </trkpt>
      <trkpt lat="42.0110260" lon="-8.8821140">
        <ele>12.8</ele>
        <time>2021-05-19T08:33:53Z</time>
      </trkpt>
      <trkpt lat="42.0110370" lon="-8.8821160">
        <ele>12.9</ele>
        <time>2021-05-19T08:33:54Z</time>
      </trkpt>
      <trkpt lat="42.0110490" lon="-8.8821200">
        <ele>12.9</ele>
        <time>2021-05-19T08:33:55Z</time>
      </trkpt>
      <trkpt lat="42.0110690" lon="-8.8821190">
        <ele>13.0</ele>
        <time>2021-05-19T08:33:56Z</time>
      </trkpt>
      <trkpt lat="42.0110810" lon="-8.8821210">
        <ele>13.1</ele>
        <time>2021-05-19T08:33:57Z</time>
      </trkpt>
      <trkpt lat="42.0110850" lon="-8.8821190">
        <ele>13.1</ele>
        <time>2021-05-19T08:33:58Z</time>
      </trkpt>
      <trkpt lat="42.0111040" lon="-8.8821190">
        <ele>13.2</ele>
        <time>2021-05-19T08:33:59Z</time>
      </trkpt>
      <trkpt lat="42.0111080" lon="-8.8821140">
        <ele>13.2</ele>
        <time>2021-05-19T08:34:00Z</time>
      </trkpt>
      <trkpt lat="42.0111170" lon="-8.8821090">
        <ele>13.3</ele>
        <time>2021-05-19T08:34:01Z</time>
      </trkpt>
      <trkpt lat="42.0111260" lon="-8.8821110">
        <ele>13.3</ele>
        <time>2021-05-19T08:34:02Z</time>
      </trkpt>
      <trkpt lat="42.0111360" lon="-8.8821060">
        <ele>13.4</ele>
        <time>2021-05-19T08:34:03Z</time>
      </trkpt>
      <trkpt lat="42.0111510" lon="-8.8820990">
        <ele>13.5</ele>
        <time>2021-05-19T08:34:04Z</time>
      </trkpt>
      <trkpt lat="42.0111690" lon="-8.8820890">
        <ele>13.6</ele>
        <time>2021-05-19T08:34:05Z</time>
      </trkpt>
      <trkpt lat="42.0111800" lon="-8.8820850">
        <ele>13.6</ele>
        <time>2021-05-19T08:34:06Z</time>
      </trkpt>
      <trkpt lat="42.0111860" lon="-8.8820800">
        <ele>13.7</ele>
        <time>2021-05-19T08:34:07Z</time>
      </trkpt>
      <trkpt lat="42.0111990" lon="-8.8820740">
        <ele>13.7</ele>
        <time>2021-05-19T08:34:08Z</time>
      </trkpt>
      <trkpt lat="42.0112160" lon="-8.8820670">
        <ele>13.8</ele>
        <time>2021-05-19T08:34:09Z</time>
      </trkpt>
      <trkpt lat="42.0112240" lon="-8.8820600">
        <ele>13.9</ele>
        <time>2021-05-19T08:34:10Z</time>
      </trkpt>
      <trkpt lat="42.0112300" lon="-8.8820540">
        <ele>13.9</ele>
        <time>2021-05-19T08:34:11Z</time>
      </trkpt>
      <trkpt lat="42.0112490" lon="-8.8820380">
        <ele>14.1</ele>
        <time>2021-05-19T08:34:12Z</time>
      </trkpt>
      <trkpt lat="42.0112580" lon="-8.8820290">
        <ele>14.1</ele>
        <time>2021-05-19T08:34:13Z</time>
      </trkpt>
      <trkpt lat="42.0112660" lon="-8.8820200">
        <ele>14.2</ele>
        <time>2021-05-19T08:34:14Z</time>
      </trkpt>
      <trkpt lat="42.0112640" lon="-8.8820120">
        <ele>14.2</ele>
        <time>2021-05-19T08:34:15Z</time>
      </trkpt>
      <trkpt lat="42.0112760" lon="-8.8820030">
        <ele>14.3</ele>
        <time>2021-05-19T08:34:16Z</time>
      </trkpt>
      <trkpt lat="42.0112900" lon="-8.8819930">
        <ele>14.4</ele>
        <time>2021-05-19T08:34:17Z</time>
      </trkpt>
      <trkpt lat="42.0112950" lon="-8.8819830">
        <ele>14.4</ele>
        <time>2021-05-19T08:34:18Z</time>
      </trkpt>
      <trkpt lat="42.0113110" lon="-8.8819710">
        <ele>14.6</ele>
        <time>2021-05-19T08:34:19Z</time>
      </trkpt>
      <trkpt lat="42.0113190" lon="-8.8819580">
        <ele>14.6</ele>
        <time>2021-05-19T08:34:20Z</time>
      </trkpt>
      <trkpt lat="42.0113310" lon="-8.8819320">
        <ele>14.8</ele>
        <time>2021-05-19T08:34:21Z</time>
      </trkpt>
      <trkpt lat="42.0113460" lon="-8.8819210">
        <ele>14.9</ele>
        <time>2021-05-19T08:34:22Z</time>
      </trkpt>
      <trkpt lat="42.0113600" lon="-8.8819110">
        <ele>15.0</ele>
        <time>2021-05-19T08:34:23Z</time>
      </trkpt>
      <trkpt lat="42.0113770" lon="-8.8818990">
        <ele>15.1</ele>
        <time>2021-05-19T08:34:24Z</time>
      </trkpt>
      <trkpt lat="42.0113930" lon="-8.8818960">
        <ele>15.2</ele>
        <time>2021-05-19T08:34:25Z</time>
      </trkpt>
      <trkpt lat="42.0114160" lon="-8.8818800">
        <ele>15.4</ele>
        <time>2021-05-19T08:34:26Z</time>
      </trkpt>
      <trkpt lat="42.0114270" lon="-8.8818720">
        <ele>15.5</ele>
        <time>2021-05-19T08:34:27Z</time>
      </trkpt>
      <trkpt lat="42.0114390" lon="-8.8818670">
        <ele>15.5</ele>
        <time>2021-05-19T08:34:28Z</time>
      </trkpt>
      <trkpt lat="42.0114530" lon="-8.8818570">
        <ele>15.6</ele>
        <time>2021-05-19T08:34:29Z</time>
      </trkpt>
      <trkpt lat="42.0114660" lon="-8.8818450">
        <ele>15.7</ele>
        <time>2021-05-19T08:34:30Z</time>
      </trkpt>
      <trkpt lat="42.0114850" lon="-8.8818360">
        <ele>15.8</ele>
        <time>2021-05-19T08:34:31Z</time>
      </trkpt>
      <trkpt lat="42.0114950" lon="-8.8818250">
        <ele>15.9</ele>
        <time>2021-05-19T08:34:32Z</time>
      </trkpt>
      <trkpt lat="42.0115120" lon="-8.8818150">
        <ele>16.0</ele>
        <time>2021-05-19T08:34:33Z</time>
      </trkpt>
      <trkpt lat="42.0115320" lon="-8.8817930">
        <ele>16.1</ele>
        <time>2021-05-19T08:34:34Z</time>
      </trkpt>
      <trkpt lat="42.0115380" lon="-8.8817870">
        <ele>16.2</ele>
        <time>2021-05-19T08:34:35Z</time>
      </trkpt>
      <trkpt lat="42.0115450" lon="-8.8817820">
        <ele>16.2</ele>
        <time>2021-05-19T08:34:36Z</time>
      </trkpt>
      <trkpt lat="42.0115610" lon="-8.8817820">
        <ele>16.3</ele>
        <time>2021-05-19T08:34:37Z</time>
      </trkpt>
      <trkpt lat="42.0115770" lon="-8.8817720">
        <ele>16.4</ele>
        <time>2021-05-19T08:34:38Z</time>
      </trkpt>
      <trkpt lat="42.0115910" lon="-8.8817670">
        <ele>16.5</ele>
        <time>2021-05-19T08:34:39Z</time>
      </trkpt>
      <trkpt lat="42.0116040" lon="-8.8817560">
        <ele>16.5</ele>
        <time>2021-05-19T08:34:40Z</time>
      </trkpt>
      <trkpt lat="42.0116270" lon="-8.8817380">
        <ele>16.7</ele>
        <time>2021-05-19T08:34:41Z</time>
      </trkpt>
      <trkpt lat="42.0116350" lon="-8.8817320">
        <ele>16.7</ele>
        <time>2021-05-19T08:34:42Z</time>
      </trkpt>
      <trkpt lat="42.0116430" lon="-8.8817270">
        <ele>16.8</ele>
        <time>2021-05-19T08:34:43Z</time>
      </trkpt>
      <trkpt lat="42.0116570" lon="-8.8817210">
        <ele>16.8</ele>
        <time>2021-05-19T08:34:44Z</time>
      </trkpt>
      <trkpt lat="42.0116660" lon="-8.8817140">
        <ele>16.9</ele>
        <time>2021-05-19T08:34:45Z</time>
      </trkpt>
      <trkpt lat="42.0116740" lon="-8.8817060">
        <ele>16.9</ele>
        <time>2021-05-19T08:34:46Z</time>
      </trkpt>
      <trkpt lat="42.0116830" lon="-8.8816990">
        <ele>17.0</ele>
        <time>2021-05-19T08:34:47Z</time>
      </trkpt>
      <trkpt lat="42.0116940" lon="-8.8816930">
        <ele>17.0</ele>
        <time>2021-05-19T08:34:48Z</time>
      </trkpt>
      <trkpt lat="42.0117040" lon="-8.8816870">
        <ele>17.1</ele>
        <time>2021-05-19T08:34:49Z</time>
      </trkpt>
      <trkpt lat="42.0117130" lon="-8.8816780">
        <ele>17.2</ele>
        <time>2021-05-19T08:34:50Z</time>
      </trkpt>
      <trkpt lat="42.0117180" lon="-8.8816810">
        <ele>17.2</ele>
        <time>2021-05-19T08:34:51Z</time>
      </trkpt>
      <trkpt lat="42.0117170" lon="-8.8816770">
        <ele>17.2</ele>
        <time>2021-05-19T08:34:52Z</time>
      </trkpt>
      <trkpt lat="42.0117170" lon="-8.8816760">
        <ele>17.2</ele>
        <time>2021-05-19T08:34:53Z</time>
      </trkpt>
      <trkpt lat="42.0117160" lon="-8.8816660">
        <ele>17.2</ele>
        <time>2021-05-19T08:34:54Z</time>
      </trkpt>
      <trkpt lat="42.0117110" lon="-8.8816700">
        <ele>17.2</ele>
        <time>2021-05-19T08:34:55Z</time>
      </trkpt>
      <trkpt lat="42.0117120" lon="-8.8816660">
        <ele>17.2</ele>
        <time>2021-05-19T08:34:56Z</time>
      </trkpt>
      <trkpt lat="42.0117200" lon="-8.8816660">
        <ele>17.3</ele>
        <time>2021-05-19T08:34:57Z</time>
      </trkpt>
      <trkpt lat="42.0117260" lon="-8.8816710">
        <ele>17.3</ele>
        <time>2021-05-19T08:34:58Z</time>
      </trkpt>
      <trkpt lat="42.0117400" lon="-8.8816810">
        <ele>17.3</ele>
        <time>2021-05-19T08:34:59Z</time>
      </trkpt>
      <trkpt lat="42.0117490" lon="-8.8816890">
        <ele>17.3</ele>
        <time>2021-05-19T08:35:00Z</time>
      </trkpt>
      <trkpt lat="42.0117620" lon="-8.8816910">
        <ele>17.4</ele>
        <time>2021-05-19T08:35:01Z</time>
      </trkpt>
      <trkpt lat="42.0117670" lon="-8.8817060">
        <ele>17.4</ele>
        <time>2021-05-19T08:35:02Z</time>
      </trkpt>
      <trkpt lat="42.0117670" lon="-8.8817160">
        <ele>17.4</ele>
        <time>2021-05-19T08:35:03Z</time>
      </trkpt>
      <trkpt lat="42.0117640" lon="-8.8817100">
        <ele>17.4</ele>
        <time>2021-05-19T08:35:04Z</time>
      </trkpt>
      <trkpt lat="42.0117700" lon="-8.8817160">
        <ele>17.5</ele>
        <time>2021-05-19T08:35:05Z</time>
      </trkpt>
      <trkpt lat="42.0117860" lon="-8.8817180">
        <ele>17.5</ele>
        <time>2021-05-19T08:35:06Z</time>
      </trkpt>
      <trkpt lat="42.0117970" lon="-8.8817210">
        <ele>17.5</ele>
        <time>2021-05-19T08:35:07Z</time>
      </trkpt>
      <trkpt lat="42.0118050" lon="-8.8817380">
        <ele>17.6</ele>
        <time>2021-05-19T08:35:08Z</time>
      </trkpt>
      <trkpt lat="42.0118180" lon="-8.8817490">
        <ele>17.6</ele>
        <time>2021-05-19T08:35:09Z</time>
      </trkpt>
      <trkpt lat="42.0118430" lon="-8.8817570">
        <ele>17.7</ele>
        <time>2021-05-19T08:35:10Z</time>
      </trkpt>
      <trkpt lat="42.0118500" lon="-8.8817610">
        <ele>17.7</ele>
        <time>2021-05-19T08:35:11Z</time>
      </trkpt>
      <trkpt lat="42.0118570" lon="-8.8817650">
        <ele>17.7</ele>
        <time>2021-05-19T08:35:12Z</time>
      </trkpt>
      <trkpt lat="42.0118650" lon="-8.8817760">
        <ele>17.8</ele>
        <time>2021-05-19T08:35:13Z</time>
      </trkpt>
      <trkpt lat="42.0118810" lon="-8.8817860">
        <ele>17.8</ele>
        <time>2021-05-19T08:35:14Z</time>
      </trkpt>
      <trkpt lat="42.0118910" lon="-8.8817990">
        <ele>17.8</ele>
        <time>2021-05-19T08:35:15Z</time>
      </trkpt>
      <trkpt lat="42.0119040" lon="-8.8818100">
        <ele>17.9</ele>
        <time>2021-05-19T08:35:16Z</time>
      </trkpt>
      <trkpt lat="42.0119230" lon="-8.8818210">
        <ele>17.9</ele>
        <time>2021-05-19T08:35:17Z</time>
      </trkpt>
      <trkpt lat="42.0119320" lon="-8.8818240">
        <ele>18.0</ele>
        <time>2021-05-19T08:35:18Z</time>
      </trkpt>
      <trkpt lat="42.0119400" lon="-8.8818270">
        <ele>18.0</ele>
        <time>2021-05-19T08:35:19Z</time>
      </trkpt>
      <trkpt lat="42.0119590" lon="-8.8818390">
        <ele>18.0</ele>
        <time>2021-05-19T08:35:20Z</time>
      </trkpt>
      <trkpt lat="42.0119660" lon="-8.8818450">
        <ele>18.1</ele>
        <time>2021-05-19T08:35:21Z</time>
      </trkpt>
      <trkpt lat="42.0119730" lon="-8.8818510">
        <ele>18.1</ele>
        <time>2021-05-19T08:35:22Z</time>
      </trkpt>
      <trkpt lat="42.0119840" lon="-8.8818540">
        <ele>18.1</ele>
        <time>2021-05-19T08:35:23Z</time>
      </trkpt>
      <trkpt lat="42.0119960" lon="-8.8818640">
        <ele>18.1</ele>
        <time>2021-05-19T08:35:24Z</time>
      </trkpt>
      <trkpt lat="42.0120060" lon="-8.8818700">
        <ele>18.2</ele>
        <time>2021-05-19T08:35:25Z</time>
      </trkpt>
      <trkpt lat="42.0120160" lon="-8.8818770">
        <ele>18.2</ele>
        <time>2021-05-19T08:35:26Z</time>
      </trkpt>
      <trkpt lat="42.0120280" lon="-8.8818850">
        <ele>18.2</ele>
        <time>2021-05-19T08:35:27Z</time>
      </trkpt>
      <trkpt lat="42.0120330" lon="-8.8818900">
        <ele>18.2</ele>
        <time>2021-05-19T08:35:28Z</time>
      </trkpt>
      <trkpt lat="42.0120530" lon="-8.8819020">
        <ele>18.3</ele>
        <time>2021-05-19T08:35:29Z</time>
      </trkpt>
      <trkpt lat="42.0120620" lon="-8.8819050">
        <ele>18.3</ele>
        <time>2021-05-19T08:35:30Z</time>
      </trkpt>
      <trkpt lat="42.0120700" lon="-8.8819070">
        <ele>18.3</ele>
        <time>2021-05-19T08:35:31Z</time>
      </trkpt>
      <trkpt lat="42.0120820" lon="-8.8819110">
        <ele>18.3</ele>
        <time>2021-05-19T08:35:32Z</time>
      </trkpt>
      <trkpt lat="42.0121000" lon="-8.8819190">
        <ele>18.4</ele>
        <time>2021-05-19T08:35:33Z</time>
      </trkpt>
      <trkpt lat="42.0121130" lon="-8.8819270">
        <ele>18.4</ele>
        <time>2021-05-19T08:35:34Z</time>
      </trkpt>
      <trkpt lat="42.0121250" lon="-8.8819350">
        <ele>18.4</ele>
        <time>2021-05-19T08:35:35Z</time>
      </trkpt>
      <trkpt lat="42.0121340" lon="-8.8819460">
        <ele>18.4</ele>
        <time>2021-05-19T08:35:36Z</time>
      </trkpt>
      <trkpt lat="42.0121480" lon="-8.8819460">
        <ele>18.4</ele>
        <time>2021-05-19T08:35:37Z</time>
      </trkpt>
      <trkpt lat="42.0121490" lon="-8.8819530">
        <ele>18.4</ele>
        <time>2021-05-19T08:35:38Z</time>
      </trkpt>
      <trkpt lat="42.0121690" lon="-8.8819630">
        <ele>18.5</ele>
        <time>2021-05-19T08:35:39Z</time>
      </trkpt>
      <trkpt lat="42.0121790" lon="-8.8819620">
        <ele>18.5</ele>
        <time>2021-05-19T08:35:40Z</time>
      </trkpt>
      <trkpt lat="42.0121960" lon="-8.8819580">
        <ele>18.5</ele>
        <time>2021-05-19T08:35:41Z</time>
      </trkpt>
      <trkpt lat="42.0122110" lon="-8.8819670">
        <ele>18.5</ele>
        <time>2021-05-19T08:35:42Z</time>
      </trkpt>
      <trkpt lat="42.0122240" lon="-8.8819730">
        <ele>18.5</ele>
        <time>2021-05-19T08:35:43Z</time>
      </trkpt>
      <trkpt lat="42.0122450" lon="-8.8819760">
        <ele>18.5</ele>
        <time>2021-05-19T08:35:44Z</time>
      </trkpt>
      <trkpt lat="42.0122600" lon="-8.8819810">
        <ele>18.5</ele>
        <time>2021-05-19T08:35:45Z</time>
      </trkpt>
      <trkpt lat="42.0122790" lon="-8.8819790">
        <ele>18.5</ele>
        <time>2021-05-19T08:35:46Z</time>
      </trkpt>
      <trkpt lat="42.0122930" lon="-8.8819820">
        <ele>18.5</ele>
        <time>2021-05-19T08:35:47Z</time>
      </trkpt>
      <trkpt lat="42.0123100" lon="-8.8819840">
        <ele>18.5</ele>
        <time>2021-05-19T08:35:48Z</time>
      </trkpt>
      <trkpt lat="42.0123250" lon="-8.8819860">
        <ele>18.5</ele>
        <time>2021-05-19T08:35:49Z</time>
      </trkpt>
      <trkpt lat="42.0123410" lon="-8.8819820">
        <ele>18.5</ele>
        <time>2021-05-19T08:35:50Z</time>
      </trkpt>
      <trkpt lat="42.0123580" lon="-8.8819910">
        <ele>18.5</ele>
        <time>2021-05-19T08:35:51Z</time>
      </trkpt>
      <trkpt lat="42.0123730" lon="-8.8819920">
        <ele>18.5</ele>
        <time>2021-05-19T08:35:52Z</time>
      </trkpt>
      <trkpt lat="42.0123920" lon="-8.8819920">
        <ele>18.5</ele>
        <time>2021-05-19T08:35:53Z</time>
      </trkpt>
      <trkpt lat="42.0124070" lon="-8.8819930">
        <ele>18.5</ele>
        <time>2021-05-19T08:35:54Z</time>
      </trkpt>
      <trkpt lat="42.0124240" lon="-8.8819960">
        <ele>18.5</ele>
        <time>2021-05-19T08:35:55Z</time>
      </trkpt>
      <trkpt lat="42.0124390" lon="-8.8819970">
        <ele>18.5</ele>
        <time>2021-05-19T08:35:56Z</time>
      </trkpt>
      <trkpt lat="42.0124510" lon="-8.8820000">
        <ele>18.5</ele>
        <time>2021-05-19T08:35:57Z</time>
      </trkpt>
      <trkpt lat="42.0124660" lon="-8.8820020">
        <ele>18.5</ele>
        <time>2021-05-19T08:35:58Z</time>
      </trkpt>
      <trkpt lat="42.0124830" lon="-8.8820080">
        <ele>18.5</ele>
        <time>2021-05-19T08:35:59Z</time>
      </trkpt>
      <trkpt lat="42.0124970" lon="-8.8820120">
        <ele>18.5</ele>
        <time>2021-05-19T08:36:00Z</time>
      </trkpt>
      <trkpt lat="42.0125120" lon="-8.8820150">
        <ele>18.5</ele>
        <time>2021-05-19T08:36:01Z</time>
      </trkpt>
      <trkpt lat="42.0125270" lon="-8.8820200">
        <ele>18.5</ele>
        <time>2021-05-19T08:36:02Z</time>
      </trkpt>
      <trkpt lat="42.0125430" lon="-8.8820170">
        <ele>18.4</ele>
        <time>2021-05-19T08:36:03Z</time>
      </trkpt>
      <trkpt lat="42.0125580" lon="-8.8820180">
        <ele>18.4</ele>
        <time>2021-05-19T08:36:04Z</time>
      </trkpt>
      <trkpt lat="42.0125720" lon="-8.8820290">
        <ele>18.4</ele>
        <time>2021-05-19T08:36:05Z</time>
      </trkpt>
      <trkpt lat="42.0125860" lon="-8.8820320">
        <ele>18.4</ele>
        <time>2021-05-19T08:36:06Z</time>
      </trkpt>
      <trkpt lat="42.0126020" lon="-8.8820280">
        <ele>18.4</ele>
        <time>2021-05-19T08:36:07Z</time>
      </trkpt>
      <trkpt lat="42.0126170" lon="-8.8820350">
        <ele>18.4</ele>
        <time>2021-05-19T08:36:08Z</time>
      </trkpt>
      <trkpt lat="42.0126300" lon="-8.8820380">
        <ele>18.3</ele>
        <time>2021-05-19T08:36:09Z</time>
      </trkpt>
      <trkpt lat="42.0126340" lon="-8.8820440">
        <ele>18.3</ele>
        <time>2021-05-19T08:36:10Z</time>
      </trkpt>
      <trkpt lat="42.0126310" lon="-8.8820550">
        <ele>18.3</ele>
        <time>2021-05-19T08:36:11Z</time>
      </trkpt>
      <trkpt lat="42.0126220" lon="-8.8820540">
        <ele>18.3</ele>
        <time>2021-05-19T08:36:12Z</time>
      </trkpt>
      <trkpt lat="42.0126130" lon="-8.8820490">
        <ele>18.3</ele>
        <time>2021-05-19T08:36:13Z</time>
      </trkpt>
      <trkpt lat="42.0126120" lon="-8.8820490">
        <ele>18.3</ele>
        <time>2021-05-19T08:36:14Z</time>
      </trkpt>
      <trkpt lat="42.0126080" lon="-8.8820440">
        <ele>18.3</ele>
        <time>2021-05-19T08:36:15Z</time>
      </trkpt>
      <trkpt lat="42.0126040" lon="-8.8820420">
        <ele>18.3</ele>
        <time>2021-05-19T08:36:16Z</time>
      </trkpt>
      <trkpt lat="42.0126040" lon="-8.8820410">
        <ele>18.3</ele>
        <time>2021-05-19T08:36:17Z</time>
      </trkpt>
      <trkpt lat="42.0125900" lon="-8.8820380">
        <ele>18.3</ele>
        <time>2021-05-19T08:36:18Z</time>
      </trkpt>
      <trkpt lat="42.0125870" lon="-8.8820380">
        <ele>18.3</ele>
        <time>2021-05-19T08:36:19Z</time>
      </trkpt>
      <trkpt lat="42.0125850" lon="-8.8820370">
        <ele>18.3</ele>
        <time>2021-05-19T08:36:20Z</time>
      </trkpt>
      <trkpt lat="42.0125830" lon="-8.8820360">
        <ele>18.3</ele>
        <time>2021-05-19T08:36:21Z</time>
      </trkpt>
      <trkpt lat="42.0125760" lon="-8.8820290">
        <ele>18.2</ele>
        <time>2021-05-19T08:36:22Z</time>
      </trkpt>
      <trkpt lat="42.0125740" lon="-8.8820290">
        <ele>18.2</ele>
        <time>2021-05-19T08:36:23Z</time>
      </trkpt>
      <trkpt lat="42.0125720" lon="-8.8820260">
        <ele>18.2</ele>
        <time>2021-05-19T08:36:24Z</time>
      </trkpt>
      <trkpt lat="42.0125730" lon="-8.8820260">
        <ele>18.2</ele>
        <time>2021-05-19T08:36:25Z</time>
      </trkpt>
      <trkpt lat="42.0125810" lon="-8.8820290">
        <ele>18.2</ele>
        <time>2021-05-19T08:36:26Z</time>
      </trkpt>
      <trkpt lat="42.0125880" lon="-8.8820200">
        <ele>18.2</ele>
        <time>2021-05-19T08:36:27Z</time>
      </trkpt>
      <trkpt lat="42.0126030" lon="-8.8820240">
        <ele>18.2</ele>
        <time>2021-05-19T08:36:28Z</time>
      </trkpt>
      <trkpt lat="42.0126200" lon="-8.8820290">
        <ele>18.1</ele>
        <time>2021-05-19T08:36:29Z</time>
      </trkpt>
      <trkpt lat="42.0126330" lon="-8.8820340">
        <ele>18.1</ele>
        <time>2021-05-19T08:36:30Z</time>
      </trkpt>
      <trkpt lat="42.0126430" lon="-8.8820390">
        <ele>18.1</ele>
        <time>2021-05-19T08:36:31Z</time>
      </trkpt>
      <trkpt lat="42.0126520" lon="-8.8820400">
        <ele>18.1</ele>
        <time>2021-05-19T08:36:32Z</time>
      </trkpt>
      <trkpt lat="42.0126610" lon="-8.8820430">
        <ele>18.1</ele>
        <time>2021-05-19T08:36:33Z</time>
      </trkpt>
      <trkpt lat="42.0126720" lon="-8.8820430">
        <ele>18.0</ele>
        <time>2021-05-19T08:36:34Z</time>
      </trkpt>
      <trkpt lat="42.0126840" lon="-8.8820480">
        <ele>18.0</ele>
        <time>2021-05-19T08:36:35Z</time>
      </trkpt>
      <trkpt lat="42.0126980" lon="-8.8820520">
        <ele>18.0</ele>
        <time>2021-05-19T08:36:36Z</time>
      </trkpt>
      <trkpt lat="42.0127120" lon="-8.8820510">
        <ele>17.9</ele>
        <time>2021-05-19T08:36:37Z</time>
      </trkpt>
      <trkpt lat="42.0127330" lon="-8.8820550">
        <ele>17.9</ele>
        <time>2021-05-19T08:36:38Z</time>
      </trkpt>
      <trkpt lat="42.0127420" lon="-8.8820550">
        <ele>17.9</ele>
        <time>2021-05-19T08:36:39Z</time>
      </trkpt>
      <trkpt lat="42.0127500" lon="-8.8820550">
        <ele>17.8</ele>
        <time>2021-05-19T08:36:40Z</time>
      </trkpt>
      <trkpt lat="42.0127600" lon="-8.8820670">
        <ele>17.8</ele>
        <time>2021-05-19T08:36:41Z</time>
      </trkpt>
      <trkpt lat="42.0127790" lon="-8.8820600">
        <ele>17.8</ele>
        <time>2021-05-19T08:36:42Z</time>
      </trkpt>
      <trkpt lat="42.0127940" lon="-8.8820600">
        <ele>17.7</ele>
        <time>2021-05-19T08:36:43Z</time>
      </trkpt>
      <trkpt lat="42.0128070" lon="-8.8820580">
        <ele>17.7</ele>
        <time>2021-05-19T08:36:44Z</time>
      </trkpt>
      <trkpt lat="42.0128270" lon="-8.8820640">
        <ele>17.6</ele>
        <time>2021-05-19T08:36:45Z</time>
      </trkpt>
      <trkpt lat="42.0128340" lon="-8.8820670">
        <ele>17.6</ele>
        <time>2021-05-19T08:36:46Z</time>
      </trkpt>
      <trkpt lat="42.0128420" lon="-8.8820710">
        <ele>17.6</ele>
        <time>2021-05-19T08:36:47Z</time>
      </trkpt>
      <trkpt lat="42.0128490" lon="-8.8820740">
        <ele>17.6</ele>
        <time>2021-05-19T08:36:48Z</time>
      </trkpt>
      <trkpt lat="42.0128690" lon="-8.8820760">
        <ele>17.5</ele>
        <time>2021-05-19T08:36:49Z</time>
      </trkpt>
      <trkpt lat="42.0128780" lon="-8.8820760">
        <ele>17.5</ele>
        <time>2021-05-19T08:36:50Z</time>
      </trkpt>
      <trkpt lat="42.0128870" lon="-8.8820770">
        <ele>17.5</ele>
        <time>2021-05-19T08:36:51Z</time>
      </trkpt>
      <trkpt lat="42.0128990" lon="-8.8820780">
        <ele>17.5</ele>
        <time>2021-05-19T08:36:52Z</time>
      </trkpt>
      <trkpt lat="42.0129080" lon="-8.8820850">
        <ele>17.5</ele>
        <time>2021-05-19T08:36:53Z</time>
      </trkpt>
      <trkpt lat="42.0129170" lon="-8.8820900">
        <ele>17.4</ele>
        <time>2021-05-19T08:36:54Z</time>
      </trkpt>
      <trkpt lat="42.0129470" lon="-8.8820940">
        <ele>17.4</ele>
        <time>2021-05-19T08:36:55Z</time>
      </trkpt>
      <trkpt lat="42.0129590" lon="-8.8820930">
        <ele>17.4</ele>
        <time>2021-05-19T08:36:56Z</time>
      </trkpt>
      <trkpt lat="42.0129760" lon="-8.8820970">
        <ele>17.3</ele>
        <time>2021-05-19T08:36:57Z</time>
      </trkpt>
      <trkpt lat="42.0129850" lon="-8.8821030">
        <ele>17.3</ele>
        <time>2021-05-19T08:36:58Z</time>
      </trkpt>
      <trkpt lat="42.0130120" lon="-8.8821040">
        <ele>17.3</ele>
        <time>2021-05-19T08:36:59Z</time>
      </trkpt>
      <trkpt lat="42.0130210" lon="-8.8821060">
        <ele>17.3</ele>
        <time>2021-05-19T08:37:00Z</time>
      </trkpt>
      <trkpt lat="42.0130290" lon="-8.8821080">
        <ele>17.3</ele>
        <time>2021-05-19T08:37:01Z</time>
      </trkpt>
      <trkpt lat="42.0130300" lon="-8.8821060">
        <ele>17.3</ele>
        <time>2021-05-19T08:37:02Z</time>
      </trkpt>
      <trkpt lat="42.0130470" lon="-8.8821120">
        <ele>17.2</ele>
        <time>2021-05-19T08:37:03Z</time>
      </trkpt>
      <trkpt lat="42.0130620" lon="-8.8821180">
        <ele>17.2</ele>
        <time>2021-05-19T08:37:04Z</time>
      </trkpt>
      <trkpt lat="42.0130800" lon="-8.8821220">
        <ele>17.2</ele>
        <time>2021-05-19T08:37:05Z</time>
      </trkpt>
      <trkpt lat="42.0130950" lon="-8.8821230">
        <ele>17.2</ele>
        <time>2021-05-19T08:37:06Z</time>
      </trkpt>
      <trkpt lat="42.0131100" lon="-8.8821270">
        <ele>17.2</ele>
        <time>2021-05-19T08:37:07Z</time>
      </trkpt>
      <trkpt lat="42.0131240" lon="-8.8821300">
        <ele>17.2</ele>
        <time>2021-05-19T08:37:08Z</time>
      </trkpt>
      <trkpt lat="42.0131410" lon="-8.8821310">
        <ele>17.2</ele>
        <time>2021-05-19T08:37:09Z</time>
      </trkpt>
      <trkpt lat="42.0131590" lon="-8.8821330">
        <ele>17.2</ele>
        <time>2021-05-19T08:37:10Z</time>
      </trkpt>
      <trkpt lat="42.0131740" lon="-8.8821380">
        <ele>17.1</ele>
        <time>2021-05-19T08:37:11Z</time>
      </trkpt>
      <trkpt lat="42.0131900" lon="-8.8821430">
        <ele>17.1</ele>
        <time>2021-05-19T08:37:12Z</time>
      </trkpt>
      <trkpt lat="42.0132070" lon="-8.8821500">
        <ele>17.1</ele>
        <time>2021-05-19T08:37:13Z</time>
      </trkpt>
      <trkpt lat="42.0132210" lon="-8.8821530">
        <ele>17.1</ele>
        <time>2021-05-19T08:37:14Z</time>
      </trkpt>
      <trkpt lat="42.0132350" lon="-8.8821600">
        <ele>17.1</ele>
        <time>2021-05-19T08:37:15Z</time>
      </trkpt>
      <trkpt lat="42.0132480" lon="-8.8821640">
        <ele>17.1</ele>
        <time>2021-05-19T08:37:16Z</time>
      </trkpt>
      <trkpt lat="42.0132630" lon="-8.8821660">
        <ele>17.1</ele>
        <time>2021-05-19T08:37:17Z</time>
      </trkpt>
      <trkpt lat="42.0132780" lon="-8.8821700">
        <ele>17.1</ele>
        <time>2021-05-19T08:37:18Z</time>
      </trkpt>
      <trkpt lat="42.0132940" lon="-8.8821780">
        <ele>17.0</ele>
        <time>2021-05-19T08:37:19Z</time>
      </trkpt>
      <trkpt lat="42.0133080" lon="-8.8821820">
        <ele>17.0</ele>
        <time>2021-05-19T08:37:20Z</time>
      </trkpt>
      <trkpt lat="42.0133230" lon="-8.8821860">
        <ele>17.0</ele>
        <time>2021-05-19T08:37:21Z</time>
      </trkpt>
      <trkpt lat="42.0133370" lon="-8.8821880">
        <ele>17.0</ele>
        <time>2021-05-19T08:37:22Z</time>
      </trkpt>
      <trkpt lat="42.0133520" lon="-8.8821960">
        <ele>17.0</ele>
        <time>2021-05-19T08:37:23Z</time>
      </trkpt>
      <trkpt lat="42.0133640" lon="-8.8822010">
        <ele>17.0</ele>
        <time>2021-05-19T08:37:24Z</time>
      </trkpt>
      <trkpt lat="42.0133790" lon="-8.8822050">
        <ele>17.0</ele>
        <time>2021-05-19T08:37:25Z</time>
      </trkpt>
      <trkpt lat="42.0133930" lon="-8.8821980">
        <ele>17.0</ele>
        <time>2021-05-19T08:37:26Z</time>
      </trkpt>
      <trkpt lat="42.0134070" lon="-8.8821990">
        <ele>17.0</ele>
        <time>2021-05-19T08:37:27Z</time>
      </trkpt>
      <trkpt lat="42.0134200" lon="-8.8822020">
        <ele>17.0</ele>
        <time>2021-05-19T08:37:28Z</time>
      </trkpt>
      <trkpt lat="42.0134350" lon="-8.8822140">
        <ele>16.9</ele>
        <time>2021-05-19T08:37:29Z</time>
      </trkpt>
      <trkpt lat="42.0134480" lon="-8.8822200">
        <ele>16.9</ele>
        <time>2021-05-19T08:37:30Z</time>
      </trkpt>
      <trkpt lat="42.0134620" lon="-8.8822250">
        <ele>16.9</ele>
        <time>2021-05-19T08:37:31Z</time>
      </trkpt>
      <trkpt lat="42.0134750" lon="-8.8822300">
        <ele>16.9</ele>
        <time>2021-05-19T08:37:32Z</time>
      </trkpt>
      <trkpt lat="42.0134910" lon="-8.8822340">
        <ele>16.9</ele>
        <time>2021-05-19T08:37:33Z</time>
      </trkpt>
      <trkpt lat="42.0135060" lon="-8.8822380">
        <ele>16.9</ele>
        <time>2021-05-19T08:37:34Z</time>
      </trkpt>
      <trkpt lat="42.0135190" lon="-8.8822480">
        <ele>16.9</ele>
        <time>2021-05-19T08:37:35Z</time>
      </trkpt>
      <trkpt lat="42.0135330" lon="-8.8822510">
        <ele>16.9</ele>
        <time>2021-05-19T08:37:36Z</time>
      </trkpt>
      <trkpt lat="42.0135470" lon="-8.8822550">
        <ele>16.9</ele>
        <time>2021-05-19T08:37:37Z</time>
      </trkpt>
      <trkpt lat="42.0135590" lon="-8.8822620">
        <ele>16.9</ele>
        <time>2021-05-19T08:37:38Z</time>
      </trkpt>
      <trkpt lat="42.0135740" lon="-8.8822690">
        <ele>16.9</ele>
        <time>2021-05-19T08:37:39Z</time>
      </trkpt>
      <trkpt lat="42.0135870" lon="-8.8822710">
        <ele>16.9</ele>
        <time>2021-05-19T08:37:40Z</time>
      </trkpt>
      <trkpt lat="42.0136060" lon="-8.8822820">
        <ele>16.9</ele>
        <time>2021-05-19T08:37:41Z</time>
      </trkpt>
      <trkpt lat="42.0136150" lon="-8.8822870">
        <ele>16.9</ele>
        <time>2021-05-19T08:37:42Z</time>
      </trkpt>
      <trkpt lat="42.0136230" lon="-8.8822910">
        <ele>16.9</ele>
        <time>2021-05-19T08:37:43Z</time>
      </trkpt>
      <trkpt lat="42.0136350" lon="-8.8823040">
        <ele>16.9</ele>
        <time>2021-05-19T08:37:44Z</time>
      </trkpt>
      <trkpt lat="42.0136470" lon="-8.8823100">
        <ele>16.9</ele>
        <time>2021-05-19T08:37:45Z</time>
      </trkpt>
      <trkpt lat="42.0136640" lon="-8.8823290">
        <ele>16.9</ele>
        <time>2021-05-19T08:37:46Z</time>
      </trkpt>
      <trkpt lat="42.0136710" lon="-8.8823330">
        <ele>16.9</ele>
        <time>2021-05-19T08:37:47Z</time>
      </trkpt>
      <trkpt lat="42.0136790" lon="-8.8823380">
        <ele>16.9</ele>
        <time>2021-05-19T08:37:48Z</time>
      </trkpt>
      <trkpt lat="42.0136860" lon="-8.8823550">
        <ele>16.9</ele>
        <time>2021-05-19T08:37:49Z</time>
      </trkpt>
      <trkpt lat="42.0136900" lon="-8.8823740">
        <ele>16.9</ele>
        <time>2021-05-19T08:37:50Z</time>
      </trkpt>
      <trkpt lat="42.0137000" lon="-8.8823860">
        <ele>17.0</ele>
        <time>2021-05-19T08:37:51Z</time>
      </trkpt>
      <trkpt lat="42.0137030" lon="-8.8824090">
        <ele>17.0</ele>
        <time>2021-05-19T08:37:52Z</time>
      </trkpt>
      <trkpt lat="42.0137100" lon="-8.8824240">
        <ele>17.0</ele>
        <time>2021-05-19T08:37:53Z</time>
      </trkpt>
      <trkpt lat="42.0137120" lon="-8.8824450">
        <ele>17.0</ele>
        <time>2021-05-19T08:37:54Z</time>
      </trkpt>
      <trkpt lat="42.0137160" lon="-8.8824620">
        <ele>17.0</ele>
        <time>2021-05-19T08:37:55Z</time>
      </trkpt>
      <trkpt lat="42.0137180" lon="-8.8824840">
        <ele>17.0</ele>
        <time>2021-05-19T08:37:56Z</time>
      </trkpt>
      <trkpt lat="42.0137260" lon="-8.8824990">
        <ele>16.9</ele>
        <time>2021-05-19T08:37:57Z</time>
      </trkpt>
      <trkpt lat="42.0137310" lon="-8.8825190">
        <ele>16.9</ele>
        <time>2021-05-19T08:37:58Z</time>
      </trkpt>
      <trkpt lat="42.0137350" lon="-8.8825370">
        <ele>16.9</ele>
        <time>2021-05-19T08:37:59Z</time>
      </trkpt>
      <trkpt lat="42.0137420" lon="-8.8825530">
        <ele>16.9</ele>
        <time>2021-05-19T08:38:00Z</time>
      </trkpt>
      <trkpt lat="42.0137420" lon="-8.8825760">
        <ele>16.9</ele>
        <time>2021-05-19T08:38:01Z</time>
      </trkpt>
      <trkpt lat="42.0137490" lon="-8.8825910">
        <ele>16.9</ele>
        <time>2021-05-19T08:38:02Z</time>
      </trkpt>
      <trkpt lat="42.0137520" lon="-8.8826090">
        <ele>16.8</ele>
        <time>2021-05-19T08:38:03Z</time>
      </trkpt>
      <trkpt lat="42.0137590" lon="-8.8826210">
        <ele>16.8</ele>
        <time>2021-05-19T08:38:04Z</time>
      </trkpt>
      <trkpt lat="42.0137530" lon="-8.8826260">
        <ele>16.8</ele>
        <time>2021-05-19T08:38:05Z</time>
      </trkpt>
      <trkpt lat="42.0137580" lon="-8.8826350">
        <ele>16.8</ele>
        <time>2021-05-19T08:38:06Z</time>
      </trkpt>
      <trkpt lat="42.0137680" lon="-8.8826580">
        <ele>16.7</ele>
        <time>2021-05-19T08:38:07Z</time>
      </trkpt>
      <trkpt lat="42.0137710" lon="-8.8826690">
        <ele>16.7</ele>
        <time>2021-05-19T08:38:08Z</time>
      </trkpt>
      <trkpt lat="42.0137750" lon="-8.8826800">
        <ele>16.7</ele>
        <time>2021-05-19T08:38:09Z</time>
      </trkpt>
      <trkpt lat="42.0137770" lon="-8.8826940">
        <ele>16.6</ele>
        <time>2021-05-19T08:38:10Z</time>
      </trkpt>
      <trkpt lat="42.0137840" lon="-8.8827080">
        <ele>16.6</ele>
        <time>2021-05-19T08:38:11Z</time>
      </trkpt>
      <trkpt lat="42.0137890" lon="-8.8827180">
        <ele>16.6</ele>
        <time>2021-05-19T08:38:12Z</time>
      </trkpt>
      <trkpt lat="42.0138000" lon="-8.8827380">
        <ele>16.5</ele>
        <time>2021-05-19T08:38:13Z</time>
      </trkpt>
      <trkpt lat="42.0138050" lon="-8.8827470">
        <ele>16.5</ele>
        <time>2021-05-19T08:38:14Z</time>
      </trkpt>
      <trkpt lat="42.0138090" lon="-8.8827550">
        <ele>16.5</ele>
        <time>2021-05-19T08:38:15Z</time>
      </trkpt>
      <trkpt lat="42.0138130" lon="-8.8827640">
        <ele>16.5</ele>
        <time>2021-05-19T08:38:16Z</time>
      </trkpt>
      <trkpt lat="42.0138220" lon="-8.8827720">
        <ele>16.4</ele>
        <time>2021-05-19T08:38:17Z</time>
      </trkpt>
      <trkpt lat="42.0138320" lon="-8.8827850">
        <ele>16.4</ele>
        <time>2021-05-19T08:38:18Z</time>
      </trkpt>
      <trkpt lat="42.0138370" lon="-8.8827950">
        <ele>16.4</ele>
        <time>2021-05-19T08:38:19Z</time>
      </trkpt>
      <trkpt lat="42.0138520" lon="-8.8828120">
        <ele>16.3</ele>
        <time>2021-05-19T08:38:20Z</time>
      </trkpt>
      <trkpt lat="42.0138580" lon="-8.8828210">
        <ele>16.3</ele>
        <time>2021-05-19T08:38:21Z</time>
      </trkpt>
      <trkpt lat="42.0138650" lon="-8.8828300">
        <ele>16.2</ele>
        <time>2021-05-19T08:38:22Z</time>
      </trkpt>
      <trkpt lat="42.0138770" lon="-8.8828370">
        <ele>16.2</ele>
        <time>2021-05-19T08:38:23Z</time>
      </trkpt>
      <trkpt lat="42.0138840" lon="-8.8828430">
        <ele>16.2</ele>
        <time>2021-05-19T08:38:24Z</time>
      </trkpt>
      <trkpt lat="42.0138930" lon="-8.8828410">
        <ele>16.2</ele>
        <time>2021-05-19T08:38:25Z</time>
      </trkpt>
      <trkpt lat="42.0139130" lon="-8.8828510">
        <ele>16.1</ele>
        <time>2021-05-19T08:38:26Z</time>
      </trkpt>
      <trkpt lat="42.0139170" lon="-8.8828590">
        <ele>16.1</ele>
        <time>2021-05-19T08:38:27Z</time>
      </trkpt>
      <trkpt lat="42.0139420" lon="-8.8828800">
        <ele>16.1</ele>
        <time>2021-05-19T08:38:28Z</time>
      </trkpt>
      <trkpt lat="42.0139470" lon="-8.8828870">
        <ele>16.0</ele>
        <time>2021-05-19T08:38:29Z</time>
      </trkpt>
      <trkpt lat="42.0139650" lon="-8.8828940">
        <ele>16.0</ele>
        <time>2021-05-19T08:38:30Z</time>
      </trkpt>
      <trkpt lat="42.0139790" lon="-8.8829040">
        <ele>16.0</ele>
        <time>2021-05-19T08:38:31Z</time>
      </trkpt>
      <trkpt lat="42.0139950" lon="-8.8829100">
        <ele>16.0</ele>
        <time>2021-05-19T08:38:32Z</time>
      </trkpt>
      <trkpt lat="42.0140110" lon="-8.8829130">
        <ele>15.9</ele>
        <time>2021-05-19T08:38:33Z</time>
      </trkpt>
      <trkpt lat="42.0140260" lon="-8.8829230">
        <ele>15.9</ele>
        <time>2021-05-19T08:38:34Z</time>
      </trkpt>
      <trkpt lat="42.0140390" lon="-8.8829280">
        <ele>15.9</ele>
        <time>2021-05-19T08:38:35Z</time>
      </trkpt>
      <trkpt lat="42.0140540" lon="-8.8829310">
        <ele>15.9</ele>
        <time>2021-05-19T08:38:36Z</time>
      </trkpt>
      <trkpt lat="42.0140700" lon="-8.8829400">
        <ele>15.9</ele>
        <time>2021-05-19T08:38:37Z</time>
      </trkpt>
      <trkpt lat="42.0140870" lon="-8.8829420">
        <ele>15.9</ele>
        <time>2021-05-19T08:38:38Z</time>
      </trkpt>
      <trkpt lat="42.0140980" lon="-8.8829480">
        <ele>15.9</ele>
        <time>2021-05-19T08:38:39Z</time>
      </trkpt>
      <trkpt lat="42.0141130" lon="-8.8829560">
        <ele>15.9</ele>
        <time>2021-05-19T08:38:40Z</time>
      </trkpt>
      <trkpt lat="42.0141280" lon="-8.8829550">
        <ele>15.9</ele>
        <time>2021-05-19T08:38:41Z</time>
      </trkpt>
      <trkpt lat="42.0141450" lon="-8.8829630">
        <ele>15.9</ele>
        <time>2021-05-19T08:38:42Z</time>
      </trkpt>
      <trkpt lat="42.0141580" lon="-8.8829650">
        <ele>15.9</ele>
        <time>2021-05-19T08:38:43Z</time>
      </trkpt>
      <trkpt lat="42.0141750" lon="-8.8829690">
        <ele>15.9</ele>
        <time>2021-05-19T08:38:44Z</time>
      </trkpt>
      <trkpt lat="42.0141890" lon="-8.8829760">
        <ele>15.9</ele>
        <time>2021-05-19T08:38:45Z</time>
      </trkpt>
      <trkpt lat="42.0142030" lon="-8.8829870">
        <ele>15.9</ele>
        <time>2021-05-19T08:38:46Z</time>
      </trkpt>
      <trkpt lat="42.0142180" lon="-8.8829870">
        <ele>15.9</ele>
        <time>2021-05-19T08:38:47Z</time>
      </trkpt>
      <trkpt lat="42.0142350" lon="-8.8829880">
        <ele>15.9</ele>
        <time>2021-05-19T08:38:48Z</time>
      </trkpt>
      <trkpt lat="42.0142490" lon="-8.8829990">
        <ele>15.9</ele>
        <time>2021-05-19T08:38:49Z</time>
      </trkpt>
      <trkpt lat="42.0142700" lon="-8.8830130">
        <ele>15.9</ele>
        <time>2021-05-19T08:38:50Z</time>
      </trkpt>
      <trkpt lat="42.0142780" lon="-8.8830150">
        <ele>15.9</ele>
        <time>2021-05-19T08:38:51Z</time>
      </trkpt>
      <trkpt lat="42.0142870" lon="-8.8830180">
        <ele>15.9</ele>
        <time>2021-05-19T08:38:52Z</time>
      </trkpt>
      <trkpt lat="42.0143010" lon="-8.8830210">
        <ele>15.9</ele>
        <time>2021-05-19T08:38:53Z</time>
      </trkpt>
      <trkpt lat="42.0143150" lon="-8.8830370">
        <ele>15.9</ele>
        <time>2021-05-19T08:38:54Z</time>
      </trkpt>
      <trkpt lat="42.0143260" lon="-8.8830470">
        <ele>15.9</ele>
        <time>2021-05-19T08:38:55Z</time>
      </trkpt>
      <trkpt lat="42.0143440" lon="-8.8830540">
        <ele>15.9</ele>
        <time>2021-05-19T08:38:56Z</time>
      </trkpt>
      <trkpt lat="42.0143620" lon="-8.8830700">
        <ele>15.9</ele>
        <time>2021-05-19T08:38:57Z</time>
      </trkpt>
      <trkpt lat="42.0143690" lon="-8.8830760">
        <ele>15.9</ele>
        <time>2021-05-19T08:38:58Z</time>
      </trkpt>
      <trkpt lat="42.0143760" lon="-8.8830820">
        <ele>15.9</ele>
        <time>2021-05-19T08:38:59Z</time>
      </trkpt>
      <trkpt lat="42.0143880" lon="-8.8830890">
        <ele>15.9</ele>
        <time>2021-05-19T08:39:00Z</time>
      </trkpt>
      <trkpt lat="42.0144000" lon="-8.8831000">
        <ele>15.9</ele>
        <time>2021-05-19T08:39:01Z</time>
      </trkpt>
      <trkpt lat="42.0144090" lon="-8.8831140">
        <ele>15.9</ele>
        <time>2021-05-19T08:39:02Z</time>
      </trkpt>
      <trkpt lat="42.0144220" lon="-8.8831250">
        <ele>15.9</ele>
        <time>2021-05-19T08:39:03Z</time>
      </trkpt>
      <trkpt lat="42.0144370" lon="-8.8831440">
        <ele>15.9</ele>
        <time>2021-05-19T08:39:04Z</time>
      </trkpt>
      <trkpt lat="42.0144450" lon="-8.8831510">
        <ele>15.9</ele>
        <time>2021-05-19T08:39:05Z</time>
      </trkpt>
      <trkpt lat="42.0144520" lon="-8.8831580">
        <ele>15.9</ele>
        <time>2021-05-19T08:39:06Z</time>
      </trkpt>
      <trkpt lat="42.0144650" lon="-8.8831660">
        <ele>15.9</ele>
        <time>2021-05-19T08:39:07Z</time>
      </trkpt>
      <trkpt lat="42.0144760" lon="-8.8831780">
        <ele>15.9</ele>
        <time>2021-05-19T08:39:08Z</time>
      </trkpt>
      <trkpt lat="42.0144880" lon="-8.8831890">
        <ele>15.9</ele>
        <time>2021-05-19T08:39:09Z</time>
      </trkpt>
      <trkpt lat="42.0144990" lon="-8.8831990">
        <ele>15.9</ele>
        <time>2021-05-19T08:39:10Z</time>
      </trkpt>
      <trkpt lat="42.0145150" lon="-8.8832150">
        <ele>15.9</ele>
        <time>2021-05-19T08:39:11Z</time>
      </trkpt>
      <trkpt lat="42.0145220" lon="-8.8832220">
        <ele>15.9</ele>
        <time>2021-05-19T08:39:12Z</time>
      </trkpt>
      <trkpt lat="42.0145290" lon="-8.8832280">
        <ele>15.9</ele>
        <time>2021-05-19T08:39:13Z</time>
      </trkpt>
      <trkpt lat="42.0145290" lon="-8.8832350">
        <ele>15.9</ele>
        <time>2021-05-19T08:39:14Z</time>
      </trkpt>
      <trkpt lat="42.0145320" lon="-8.8832400">
        <ele>15.9</ele>
        <time>2021-05-19T08:39:15Z</time>
      </trkpt>
      <trkpt lat="42.0145440" lon="-8.8832530">
        <ele>15.8</ele>
        <time>2021-05-19T08:39:16Z</time>
      </trkpt>
      <trkpt lat="42.0145500" lon="-8.8832600">
        <ele>15.8</ele>
        <time>2021-05-19T08:39:17Z</time>
      </trkpt>
      <trkpt lat="42.0145670" lon="-8.8832670">
        <ele>15.8</ele>
        <time>2021-05-19T08:39:18Z</time>
      </trkpt>
      <trkpt lat="42.0145690" lon="-8.8832750">
        <ele>15.8</ele>
        <time>2021-05-19T08:39:19Z</time>
      </trkpt>
      <trkpt lat="42.0145810" lon="-8.8832760">
        <ele>15.8</ele>
        <time>2021-05-19T08:39:20Z</time>
      </trkpt>
      <trkpt lat="42.0145920" lon="-8.8832830">
        <ele>15.7</ele>
        <time>2021-05-19T08:39:21Z</time>
      </trkpt>
      <trkpt lat="42.0145960" lon="-8.8832880">
        <ele>15.7</ele>
        <time>2021-05-19T08:39:22Z</time>
      </trkpt>
      <trkpt lat="42.0146070" lon="-8.8832960">
        <ele>15.7</ele>
        <time>2021-05-19T08:39:23Z</time>
      </trkpt>
      <trkpt lat="42.0146060" lon="-8.8833020">
        <ele>15.7</ele>
        <time>2021-05-19T08:39:24Z</time>
      </trkpt>
      <trkpt lat="42.0146180" lon="-8.8833160">
        <ele>15.6</ele>
        <time>2021-05-19T08:39:25Z</time>
      </trkpt>
      <trkpt lat="42.0146210" lon="-8.8833250">
        <ele>15.6</ele>
        <time>2021-05-19T08:39:26Z</time>
      </trkpt>
      <trkpt lat="42.0146250" lon="-8.8833370">
        <ele>15.6</ele>
        <time>2021-05-19T08:39:27Z</time>
      </trkpt>
      <trkpt lat="42.0146330" lon="-8.8833480">
        <ele>15.5</ele>
        <time>2021-05-19T08:39:28Z</time>
      </trkpt>
      <trkpt lat="42.0146370" lon="-8.8833660">
        <ele>15.5</ele>
        <time>2021-05-19T08:39:29Z</time>
      </trkpt>
      <trkpt lat="42.0146320" lon="-8.8833810">
        <ele>15.4</ele>
        <time>2021-05-19T08:39:30Z</time>
      </trkpt>
      <trkpt lat="42.0146450" lon="-8.8834030">
        <ele>15.4</ele>
        <time>2021-05-19T08:39:31Z</time>
      </trkpt>
      <trkpt lat="42.0146520" lon="-8.8834130">
        <ele>15.3</ele>
        <time>2021-05-19T08:39:32Z</time>
      </trkpt>
      <trkpt lat="42.0146580" lon="-8.8834220">
        <ele>15.3</ele>
        <time>2021-05-19T08:39:33Z</time>
      </trkpt>
      <trkpt lat="42.0146740" lon="-8.8834440">
        <ele>15.2</ele>
        <time>2021-05-19T08:39:34Z</time>
      </trkpt>
      <trkpt lat="42.0146790" lon="-8.8834540">
        <ele>15.1</ele>
        <time>2021-05-19T08:39:35Z</time>
      </trkpt>
      <trkpt lat="42.0146850" lon="-8.8834630">
        <ele>15.1</ele>
        <time>2021-05-19T08:39:36Z</time>
      </trkpt>
      <trkpt lat="42.0147010" lon="-8.8834810">
        <ele>15.0</ele>
        <time>2021-05-19T08:39:37Z</time>
      </trkpt>
      <trkpt lat="42.0147110" lon="-8.8834970">
        <ele>14.9</ele>
        <time>2021-05-19T08:39:38Z</time>
      </trkpt>
      <trkpt lat="42.0147230" lon="-8.8835110">
        <ele>14.8</ele>
        <time>2021-05-19T08:39:39Z</time>
      </trkpt>
      <trkpt lat="42.0147350" lon="-8.8835220">
        <ele>14.7</ele>
        <time>2021-05-19T08:39:40Z</time>
      </trkpt>
      <trkpt lat="42.0147460" lon="-8.8835360">
        <ele>14.7</ele>
        <time>2021-05-19T08:39:41Z</time>
      </trkpt>
      <trkpt lat="42.0147620" lon="-8.8835440">
        <ele>14.6</ele>
        <time>2021-05-19T08:39:42Z</time>
      </trkpt>
      <trkpt lat="42.0147760" lon="-8.8835540">
        <ele>14.5</ele>
        <time>2021-05-19T08:39:43Z</time>
      </trkpt>
      <trkpt lat="42.0147930" lon="-8.8835520">
        <ele>14.4</ele>
        <time>2021-05-19T08:39:44Z</time>
      </trkpt>
      <trkpt lat="42.0148080" lon="-8.8835610">
        <ele>14.3</ele>
        <time>2021-05-19T08:39:45Z</time>
      </trkpt>
      <trkpt lat="42.0148240" lon="-8.8835580">
        <ele>14.2</ele>
        <time>2021-05-19T08:39:46Z</time>
      </trkpt>
      <trkpt lat="42.0148400" lon="-8.8835640">
        <ele>14.1</ele>
        <time>2021-05-19T08:39:47Z</time>
      </trkpt>
      <trkpt lat="42.0148550" lon="-8.8835690">
        <ele>14.1</ele>
        <time>2021-05-19T08:39:48Z</time>
      </trkpt>
      <trkpt lat="42.0148710" lon="-8.8835660">
        <ele>14.0</ele>
        <time>2021-05-19T08:39:49Z</time>
      </trkpt>
      <trkpt lat="42.0148880" lon="-8.8835660">
        <ele>13.9</ele>
        <time>2021-05-19T08:39:50Z</time>
      </trkpt>
      <trkpt lat="42.0149030" lon="-8.8835650">
        <ele>13.8</ele>
        <time>2021-05-19T08:39:51Z</time>
      </trkpt>
      <trkpt lat="42.0149200" lon="-8.8835690">
        <ele>13.7</ele>
        <time>2021-05-19T08:39:52Z</time>
      </trkpt>
      <trkpt lat="42.0149350" lon="-8.8835620">
        <ele>13.6</ele>
        <time>2021-05-19T08:39:53Z</time>
      </trkpt>
      <trkpt lat="42.0149510" lon="-8.8835710">
        <ele>13.6</ele>
        <time>2021-05-19T08:39:54Z</time>
      </trkpt>
      <trkpt lat="42.0149690" lon="-8.8835620">
        <ele>13.5</ele>
        <time>2021-05-19T08:39:55Z</time>
      </trkpt>
      <trkpt lat="42.0149850" lon="-8.8835600">
        <ele>13.4</ele>
        <time>2021-05-19T08:39:56Z</time>
      </trkpt>
      <trkpt lat="42.0150020" lon="-8.8835670">
        <ele>13.3</ele>
        <time>2021-05-19T08:39:57Z</time>
      </trkpt>
      <trkpt lat="42.0150190" lon="-8.8835670">
        <ele>13.2</ele>
        <time>2021-05-19T08:39:58Z</time>
      </trkpt>
      <trkpt lat="42.0150350" lon="-8.8835730">
        <ele>13.1</ele>
        <time>2021-05-19T08:39:59Z</time>
      </trkpt>
      <trkpt lat="42.0150510" lon="-8.8835770">
        <ele>13.0</ele>
        <time>2021-05-19T08:40:00Z</time>
      </trkpt>
      <trkpt lat="42.0150660" lon="-8.8835750">
        <ele>13.0</ele>
        <time>2021-05-19T08:40:01Z</time>
      </trkpt>
      <trkpt lat="42.0150810" lon="-8.8835780">
        <ele>12.9</ele>
        <time>2021-05-19T08:40:02Z</time>
      </trkpt>
      <trkpt lat="42.0150950" lon="-8.8835860">
        <ele>12.8</ele>
        <time>2021-05-19T08:40:03Z</time>
      </trkpt>
      <trkpt lat="42.0151100" lon="-8.8835840">
        <ele>12.7</ele>
        <time>2021-05-19T08:40:04Z</time>
      </trkpt>
      <trkpt lat="42.0151240" lon="-8.8835900">
        <ele>12.7</ele>
        <time>2021-05-19T08:40:05Z</time>
      </trkpt>
      <trkpt lat="42.0151320" lon="-8.8835950">
        <ele>12.6</ele>
        <time>2021-05-19T08:40:06Z</time>
      </trkpt>
      <trkpt lat="42.0151390" lon="-8.8836000">
        <ele>12.6</ele>
        <time>2021-05-19T08:40:07Z</time>
      </trkpt>
      <trkpt lat="42.0151460" lon="-8.8836050">
        <ele>12.5</ele>
        <time>2021-05-19T08:40:08Z</time>
      </trkpt>
      <trkpt lat="42.0151580" lon="-8.8836110">
        <ele>12.5</ele>
        <time>2021-05-19T08:40:09Z</time>
      </trkpt>
      <trkpt lat="42.0151720" lon="-8.8836090">
        <ele>12.4</ele>
        <time>2021-05-19T08:40:10Z</time>
      </trkpt>
      <trkpt lat="42.0151750" lon="-8.8836160">
        <ele>12.4</ele>
        <time>2021-05-19T08:40:11Z</time>
      </trkpt>
      <trkpt lat="42.0151760" lon="-8.8836190">
        <ele>12.3</ele>
        <time>2021-05-19T08:40:12Z</time>
      </trkpt>
      <trkpt lat="42.0151860" lon="-8.8836230">
        <ele>12.3</ele>
        <time>2021-05-19T08:40:13Z</time>
      </trkpt>
      <trkpt lat="42.0152030" lon="-8.8836320">
        <ele>12.2</ele>
        <time>2021-05-19T08:40:14Z</time>
      </trkpt>
      <trkpt lat="42.0152310" lon="-8.8836430">
        <ele>12.0</ele>
        <time>2021-05-19T08:40:15Z</time>
      </trkpt>
      <trkpt lat="42.0152380" lon="-8.8836480">
        <ele>12.0</ele>
        <time>2021-05-19T08:40:16Z</time>
      </trkpt>
      <trkpt lat="42.0152600" lon="-8.8836540">
        <ele>11.9</ele>
        <time>2021-05-19T08:40:17Z</time>
      </trkpt>
      <trkpt lat="42.0152690" lon="-8.8836560">
        <ele>11.8</ele>
        <time>2021-05-19T08:40:18Z</time>
      </trkpt>
      <trkpt lat="42.0152780" lon="-8.8836590">
        <ele>11.8</ele>
        <time>2021-05-19T08:40:19Z</time>
      </trkpt>
      <trkpt lat="42.0152920" lon="-8.8836660">
        <ele>11.7</ele>
        <time>2021-05-19T08:40:20Z</time>
      </trkpt>
      <trkpt lat="42.0153070" lon="-8.8836720">
        <ele>11.6</ele>
        <time>2021-05-19T08:40:21Z</time>
      </trkpt>
      <trkpt lat="42.0153220" lon="-8.8836800">
        <ele>11.6</ele>
        <time>2021-05-19T08:40:22Z</time>
      </trkpt>
      <trkpt lat="42.0153340" lon="-8.8836890">
        <ele>11.5</ele>
        <time>2021-05-19T08:40:23Z</time>
      </trkpt>
      <trkpt lat="42.0153460" lon="-8.8836920">
        <ele>11.5</ele>
        <time>2021-05-19T08:40:24Z</time>
      </trkpt>
      <trkpt lat="42.0153620" lon="-8.8836950">
        <ele>11.4</ele>
        <time>2021-05-19T08:40:25Z</time>
      </trkpt>
      <trkpt lat="42.0153750" lon="-8.8837040">
        <ele>11.4</ele>
        <time>2021-05-19T08:40:26Z</time>
      </trkpt>
      <trkpt lat="42.0153890" lon="-8.8837100">
        <ele>11.3</ele>
        <time>2021-05-19T08:40:27Z</time>
      </trkpt>
      <trkpt lat="42.0154030" lon="-8.8837140">
        <ele>11.3</ele>
        <time>2021-05-19T08:40:28Z</time>
      </trkpt>
      <trkpt lat="42.0154200" lon="-8.8837140">
        <ele>11.2</ele>
        <time>2021-05-19T08:40:29Z</time>
      </trkpt>
      <trkpt lat="42.0154350" lon="-8.8837190">
        <ele>11.2</ele>
        <time>2021-05-19T08:40:30Z</time>
      </trkpt>
      <trkpt lat="42.0154480" lon="-8.8837320">
        <ele>11.1</ele>
        <time>2021-05-19T08:40:31Z</time>
      </trkpt>
      <trkpt lat="42.0154630" lon="-8.8837380">
        <ele>11.1</ele>
        <time>2021-05-19T08:40:32Z</time>
      </trkpt>
      <trkpt lat="42.0154760" lon="-8.8837430">
        <ele>11.1</ele>
        <time>2021-05-19T08:40:33Z</time>
      </trkpt>
      <trkpt lat="42.0154920" lon="-8.8837440">
        <ele>11.0</ele>
        <time>2021-05-19T08:40:34Z</time>
      </trkpt>
      <trkpt lat="42.0155050" lon="-8.8837500">
        <ele>11.0</ele>
        <time>2021-05-19T08:40:35Z</time>
      </trkpt>
      <trkpt lat="42.0155180" lon="-8.8837600">
        <ele>11.0</ele>
        <time>2021-05-19T08:40:36Z</time>
      </trkpt>
      <trkpt lat="42.0155330" lon="-8.8837660">
        <ele>10.9</ele>
        <time>2021-05-19T08:40:37Z</time>
      </trkpt>
      <trkpt lat="42.0155470" lon="-8.8837710">
        <ele>10.9</ele>
        <time>2021-05-19T08:40:38Z</time>
      </trkpt>
      <trkpt lat="42.0155590" lon="-8.8837790">
        <ele>10.9</ele>
        <time>2021-05-19T08:40:39Z</time>
      </trkpt>
      <trkpt lat="42.0155740" lon="-8.8837780">
        <ele>10.9</ele>
        <time>2021-05-19T08:40:40Z</time>
      </trkpt>
      <trkpt lat="42.0155880" lon="-8.8837820">
        <ele>10.8</ele>
        <time>2021-05-19T08:40:41Z</time>
      </trkpt>
      <trkpt lat="42.0156030" lon="-8.8837850">
        <ele>10.8</ele>
        <time>2021-05-19T08:40:42Z</time>
      </trkpt>
      <trkpt lat="42.0156190" lon="-8.8837870">
        <ele>10.8</ele>
        <time>2021-05-19T08:40:43Z</time>
      </trkpt>
      <trkpt lat="42.0156340" lon="-8.8837890">
        <ele>10.8</ele>
        <time>2021-05-19T08:40:44Z</time>
      </trkpt>
      <trkpt lat="42.0156530" lon="-8.8837900">
        <ele>10.7</ele>
        <time>2021-05-19T08:40:45Z</time>
      </trkpt>
      <trkpt lat="42.0156710" lon="-8.8837990">
        <ele>10.7</ele>
        <time>2021-05-19T08:40:46Z</time>
      </trkpt>
      <trkpt lat="42.0156850" lon="-8.8838000">
        <ele>10.7</ele>
        <time>2021-05-19T08:40:47Z</time>
      </trkpt>
      <trkpt lat="42.0156990" lon="-8.8837970">
        <ele>10.6</ele>
        <time>2021-05-19T08:40:48Z</time>
      </trkpt>
      <trkpt lat="42.0157130" lon="-8.8838010">
        <ele>10.6</ele>
        <time>2021-05-19T08:40:49Z</time>
      </trkpt>
      <trkpt lat="42.0157290" lon="-8.8838070">
        <ele>10.6</ele>
        <time>2021-05-19T08:40:50Z</time>
      </trkpt>
      <trkpt lat="42.0157420" lon="-8.8838030">
        <ele>10.6</ele>
        <time>2021-05-19T08:40:51Z</time>
      </trkpt>
      <trkpt lat="42.0157590" lon="-8.8838130">
        <ele>10.5</ele>
        <time>2021-05-19T08:40:52Z</time>
      </trkpt>
      <trkpt lat="42.0157730" lon="-8.8838070">
        <ele>10.5</ele>
        <time>2021-05-19T08:40:53Z</time>
      </trkpt>
      <trkpt lat="42.0157890" lon="-8.8838130">
        <ele>10.5</ele>
        <time>2021-05-19T08:40:54Z</time>
      </trkpt>
      <trkpt lat="42.0158030" lon="-8.8838110">
        <ele>10.5</ele>
        <time>2021-05-19T08:40:55Z</time>
      </trkpt>
      <trkpt lat="42.0158190" lon="-8.8838090">
        <ele>10.4</ele>
        <time>2021-05-19T08:40:56Z</time>
      </trkpt>
      <trkpt lat="42.0158350" lon="-8.8838160">
        <ele>10.4</ele>
        <time>2021-05-19T08:40:57Z</time>
      </trkpt>
      <trkpt lat="42.0158500" lon="-8.8838090">
        <ele>10.4</ele>
        <time>2021-05-19T08:40:58Z</time>
      </trkpt>
      <trkpt lat="42.0158650" lon="-8.8838180">
        <ele>10.4</ele>
        <time>2021-05-19T08:40:59Z</time>
      </trkpt>
      <trkpt lat="42.0158800" lon="-8.8838220">
        <ele>10.3</ele>
        <time>2021-05-19T08:41:00Z</time>
      </trkpt>
      <trkpt lat="42.0158950" lon="-8.8838240">
        <ele>10.3</ele>
        <time>2021-05-19T08:41:01Z</time>
      </trkpt>
      <trkpt lat="42.0159100" lon="-8.8838210">
        <ele>10.3</ele>
        <time>2021-05-19T08:41:02Z</time>
      </trkpt>
      <trkpt lat="42.0159240" lon="-8.8838300">
        <ele>10.3</ele>
        <time>2021-05-19T08:41:03Z</time>
      </trkpt>
      <trkpt lat="42.0159470" lon="-8.8838300">
        <ele>10.2</ele>
        <time>2021-05-19T08:41:04Z</time>
      </trkpt>
      <trkpt lat="42.0159560" lon="-8.8838310">
        <ele>10.2</ele>
        <time>2021-05-19T08:41:05Z</time>
      </trkpt>
      <trkpt lat="42.0159660" lon="-8.8838310">
        <ele>10.2</ele>
        <time>2021-05-19T08:41:06Z</time>
      </trkpt>
      <trkpt lat="42.0159800" lon="-8.8838260">
        <ele>10.2</ele>
        <time>2021-05-19T08:41:07Z</time>
      </trkpt>
      <trkpt lat="42.0159960" lon="-8.8838280">
        <ele>10.2</ele>
        <time>2021-05-19T08:41:08Z</time>
      </trkpt>
      <trkpt lat="42.0160090" lon="-8.8838260">
        <ele>10.1</ele>
        <time>2021-05-19T08:41:09Z</time>
      </trkpt>
      <trkpt lat="42.0160230" lon="-8.8838260">
        <ele>10.1</ele>
        <time>2021-05-19T08:41:10Z</time>
      </trkpt>
      <trkpt lat="42.0160380" lon="-8.8838230">
        <ele>10.1</ele>
        <time>2021-05-19T08:41:11Z</time>
      </trkpt>
      <trkpt lat="42.0160520" lon="-8.8838160">
        <ele>10.1</ele>
        <time>2021-05-19T08:41:12Z</time>
      </trkpt>
      <trkpt lat="42.0160770" lon="-8.8838130">
        <ele>10.0</ele>
        <time>2021-05-19T08:41:13Z</time>
      </trkpt>
      <trkpt lat="42.0160870" lon="-8.8838120">
        <ele>10.0</ele>
        <time>2021-05-19T08:41:14Z</time>
      </trkpt>
      <trkpt lat="42.0160970" lon="-8.8838100">
        <ele>10.0</ele>
        <time>2021-05-19T08:41:15Z</time>
      </trkpt>
      <trkpt lat="42.0161120" lon="-8.8838090">
        <ele>10.0</ele>
        <time>2021-05-19T08:41:16Z</time>
      </trkpt>
      <trkpt lat="42.0161270" lon="-8.8837930">
        <ele>10.0</ele>
        <time>2021-05-19T08:41:17Z</time>
      </trkpt>
      <trkpt lat="42.0161420" lon="-8.8837920">
        <ele>9.9</ele>
        <time>2021-05-19T08:41:18Z</time>
      </trkpt>
      <trkpt lat="42.0161570" lon="-8.8837890">
        <ele>9.9</ele>
        <time>2021-05-19T08:41:19Z</time>
      </trkpt>
      <trkpt lat="42.0161730" lon="-8.8837960">
        <ele>9.9</ele>
        <time>2021-05-19T08:41:20Z</time>
      </trkpt>
      <trkpt lat="42.0161850" lon="-8.8837940">
        <ele>9.9</ele>
        <time>2021-05-19T08:41:21Z</time>
      </trkpt>
      <trkpt lat="42.0162000" lon="-8.8837920">
        <ele>9.9</ele>
        <time>2021-05-19T08:41:22Z</time>
      </trkpt>
      <trkpt lat="42.0162140" lon="-8.8837840">
        <ele>9.9</ele>
        <time>2021-05-19T08:41:23Z</time>
      </trkpt>
      <trkpt lat="42.0162310" lon="-8.8837830">
        <ele>9.9</ele>
        <time>2021-05-19T08:41:24Z</time>
      </trkpt>
      <trkpt lat="42.0162430" lon="-8.8837800">
        <ele>9.8</ele>
        <time>2021-05-19T08:41:25Z</time>
      </trkpt>
      <trkpt lat="42.0162590" lon="-8.8837770">
        <ele>9.8</ele>
        <time>2021-05-19T08:41:26Z</time>
      </trkpt>
      <trkpt lat="42.0162750" lon="-8.8837710">
        <ele>9.8</ele>
        <time>2021-05-19T08:41:27Z</time>
      </trkpt>
      <trkpt lat="42.0162960" lon="-8.8837690">
        <ele>9.8</ele>
        <time>2021-05-19T08:41:28Z</time>
      </trkpt>
      <trkpt lat="42.0163050" lon="-8.8837700">
        <ele>9.8</ele>
        <time>2021-05-19T08:41:29Z</time>
      </trkpt>
      <trkpt lat="42.0163140" lon="-8.8837700">
        <ele>9.8</ele>
        <time>2021-05-19T08:41:30Z</time>
      </trkpt>
      <trkpt lat="42.0163370" lon="-8.8837680">
        <ele>9.8</ele>
        <time>2021-05-19T08:41:31Z</time>
      </trkpt>
      <trkpt lat="42.0163460" lon="-8.8837700">
        <ele>9.8</ele>
        <time>2021-05-19T08:41:32Z</time>
      </trkpt>
      <trkpt lat="42.0163550" lon="-8.8837730">
        <ele>9.8</ele>
        <time>2021-05-19T08:41:33Z</time>
      </trkpt>
      <trkpt lat="42.0163750" lon="-8.8837790">
        <ele>9.7</ele>
        <time>2021-05-19T08:41:34Z</time>
      </trkpt>
      <trkpt lat="42.0163830" lon="-8.8837810">
        <ele>9.7</ele>
        <time>2021-05-19T08:41:35Z</time>
      </trkpt>
      <trkpt lat="42.0163920" lon="-8.8837820">
        <ele>9.7</ele>
        <time>2021-05-19T08:41:36Z</time>
      </trkpt>
      <trkpt lat="42.0164050" lon="-8.8837890">
        <ele>9.7</ele>
        <time>2021-05-19T08:41:37Z</time>
      </trkpt>
      <trkpt lat="42.0164180" lon="-8.8837940">
        <ele>9.7</ele>
        <time>2021-05-19T08:41:38Z</time>
      </trkpt>
      <trkpt lat="42.0164380" lon="-8.8838010">
        <ele>9.7</ele>
        <time>2021-05-19T08:41:39Z</time>
      </trkpt>
      <trkpt lat="42.0164450" lon="-8.8838050">
        <ele>9.7</ele>
        <time>2021-05-19T08:41:40Z</time>
      </trkpt>
      <trkpt lat="42.0164530" lon="-8.8838090">
        <ele>9.7</ele>
        <time>2021-05-19T08:41:41Z</time>
      </trkpt>
      <trkpt lat="42.0164660" lon="-8.8838100">
        <ele>9.7</ele>
        <time>2021-05-19T08:41:42Z</time>
      </trkpt>
      <trkpt lat="42.0164750" lon="-8.8838170">
        <ele>9.7</ele>
        <time>2021-05-19T08:41:43Z</time>
      </trkpt>
      <trkpt lat="42.0164850" lon="-8.8838270">
        <ele>9.7</ele>
        <time>2021-05-19T08:41:44Z</time>
      </trkpt>
      <trkpt lat="42.0164930" lon="-8.8838300">
        <ele>9.7</ele>
        <time>2021-05-19T08:41:45Z</time>
      </trkpt>
      <trkpt lat="42.0165030" lon="-8.8838410">
        <ele>9.7</ele>
        <time>2021-05-19T08:41:46Z</time>
      </trkpt>
      <trkpt lat="42.0165120" lon="-8.8838480">
        <ele>9.7</ele>
        <time>2021-05-19T08:41:47Z</time>
      </trkpt>
      <trkpt lat="42.0165330" lon="-8.8838590">
        <ele>9.6</ele>
        <time>2021-05-19T08:41:48Z</time>
      </trkpt>
      <trkpt lat="42.0165410" lon="-8.8838650">
        <ele>9.6</ele>
        <time>2021-05-19T08:41:49Z</time>
      </trkpt>
      <trkpt lat="42.0165480" lon="-8.8838700">
        <ele>9.6</ele>
        <time>2021-05-19T08:41:50Z</time>
      </trkpt>
      <trkpt lat="42.0165580" lon="-8.8838770">
        <ele>9.6</ele>
        <time>2021-05-19T08:41:51Z</time>
      </trkpt>
      <trkpt lat="42.0165690" lon="-8.8838840">
        <ele>9.6</ele>
        <time>2021-05-19T08:41:52Z</time>
      </trkpt>
      <trkpt lat="42.0165810" lon="-8.8838930">
        <ele>9.6</ele>
        <time>2021-05-19T08:41:53Z</time>
      </trkpt>
      <trkpt lat="42.0166000" lon="-8.8839010">
        <ele>9.6</ele>
        <time>2021-05-19T08:41:54Z</time>
      </trkpt>
      <trkpt lat="42.0166080" lon="-8.8839060">
        <ele>9.6</ele>
        <time>2021-05-19T08:41:55Z</time>
      </trkpt>
      <trkpt lat="42.0166170" lon="-8.8839100">
        <ele>9.6</ele>
        <time>2021-05-19T08:41:56Z</time>
      </trkpt>
      <trkpt lat="42.0166370" lon="-8.8839240">
        <ele>9.6</ele>
        <time>2021-05-19T08:41:57Z</time>
      </trkpt>
      <trkpt lat="42.0166450" lon="-8.8839270">
        <ele>9.6</ele>
        <time>2021-05-19T08:41:58Z</time>
      </trkpt>
      <trkpt lat="42.0166530" lon="-8.8839310">
        <ele>9.6</ele>
        <time>2021-05-19T08:41:59Z</time>
      </trkpt>
      <trkpt lat="42.0166630" lon="-8.8839440">
        <ele>9.6</ele>
        <time>2021-05-19T08:42:00Z</time>
      </trkpt>
      <trkpt lat="42.0166760" lon="-8.8839500">
        <ele>9.6</ele>
        <time>2021-05-19T08:42:01Z</time>
      </trkpt>
      <trkpt lat="42.0166930" lon="-8.8839630">
        <ele>9.6</ele>
        <time>2021-05-19T08:42:02Z</time>
      </trkpt>
      <trkpt lat="42.0167010" lon="-8.8839680">
        <ele>9.6</ele>
        <time>2021-05-19T08:42:03Z</time>
      </trkpt>
      <trkpt lat="42.0167090" lon="-8.8839720">
        <ele>9.6</ele>
        <time>2021-05-19T08:42:04Z</time>
      </trkpt>
      <trkpt lat="42.0167300" lon="-8.8839790">
        <ele>9.6</ele>
        <time>2021-05-19T08:42:05Z</time>
      </trkpt>
      <trkpt lat="42.0167390" lon="-8.8839820">
        <ele>9.6</ele>
        <time>2021-05-19T08:42:06Z</time>
      </trkpt>
      <trkpt lat="42.0167470" lon="-8.8839860">
        <ele>9.6</ele>
        <time>2021-05-19T08:42:07Z</time>
      </trkpt>
      <trkpt lat="42.0167600" lon="-8.8839920">
        <ele>9.6</ele>
        <time>2021-05-19T08:42:08Z</time>
      </trkpt>
      <trkpt lat="42.0167740" lon="-8.8839920">
        <ele>9.6</ele>
        <time>2021-05-19T08:42:09Z</time>
      </trkpt>
      <trkpt lat="42.0167890" lon="-8.8839980">
        <ele>9.6</ele>
        <time>2021-05-19T08:42:10Z</time>
      </trkpt>
      <trkpt lat="42.0168000" lon="-8.8840060">
        <ele>9.6</ele>
        <time>2021-05-19T08:42:11Z</time>
      </trkpt>
      <trkpt lat="42.0168150" lon="-8.8840100">
        <ele>9.6</ele>
        <time>2021-05-19T08:42:12Z</time>
      </trkpt>
      <trkpt lat="42.0168290" lon="-8.8840180">
        <ele>9.6</ele>
        <time>2021-05-19T08:42:13Z</time>
      </trkpt>
      <trkpt lat="42.0168430" lon="-8.8840180">
        <ele>9.7</ele>
        <time>2021-05-19T08:42:14Z</time>
      </trkpt>
      <trkpt lat="42.0168560" lon="-8.8840210">
        <ele>9.7</ele>
        <time>2021-05-19T08:42:15Z</time>
      </trkpt>
      <trkpt lat="42.0168700" lon="-8.8840230">
        <ele>9.7</ele>
        <time>2021-05-19T08:42:16Z</time>
      </trkpt>
      <trkpt lat="42.0168850" lon="-8.8840360">
        <ele>9.7</ele>
        <time>2021-05-19T08:42:17Z</time>
      </trkpt>
      <trkpt lat="42.0168990" lon="-8.8840320">
        <ele>9.7</ele>
        <time>2021-05-19T08:42:18Z</time>
      </trkpt>
      <trkpt lat="42.0169130" lon="-8.8840380">
        <ele>9.7</ele>
        <time>2021-05-19T08:42:19Z</time>
      </trkpt>
      <trkpt lat="42.0169250" lon="-8.8840390">
        <ele>9.7</ele>
        <time>2021-05-19T08:42:20Z</time>
      </trkpt>
      <trkpt lat="42.0169400" lon="-8.8840450">
        <ele>9.7</ele>
        <time>2021-05-19T08:42:21Z</time>
      </trkpt>
      <trkpt lat="42.0169540" lon="-8.8840480">
        <ele>9.7</ele>
        <time>2021-05-19T08:42:22Z</time>
      </trkpt>
      <trkpt lat="42.0169670" lon="-8.8840470">
        <ele>9.7</ele>
        <time>2021-05-19T08:42:23Z</time>
      </trkpt>
      <trkpt lat="42.0169830" lon="-8.8840530">
        <ele>9.7</ele>
        <time>2021-05-19T08:42:24Z</time>
      </trkpt>
      <trkpt lat="42.0169990" lon="-8.8840490">
        <ele>9.7</ele>
        <time>2021-05-19T08:42:25Z</time>
      </trkpt>
      <trkpt lat="42.0170140" lon="-8.8840520">
        <ele>9.7</ele>
        <time>2021-05-19T08:42:26Z</time>
      </trkpt>
      <trkpt lat="42.0170280" lon="-8.8840530">
        <ele>9.7</ele>
        <time>2021-05-19T08:42:27Z</time>
      </trkpt>
      <trkpt lat="42.0170430" lon="-8.8840600">
        <ele>9.7</ele>
        <time>2021-05-19T08:42:28Z</time>
      </trkpt>
      <trkpt lat="42.0170570" lon="-8.8840560">
        <ele>9.7</ele>
        <time>2021-05-19T08:42:29Z</time>
      </trkpt>
      <trkpt lat="42.0170780" lon="-8.8840570">
        <ele>9.7</ele>
        <time>2021-05-19T08:42:30Z</time>
      </trkpt>
      <trkpt lat="42.0170870" lon="-8.8840590">
        <ele>9.7</ele>
        <time>2021-05-19T08:42:31Z</time>
      </trkpt>
      <trkpt lat="42.0170950" lon="-8.8840600">
        <ele>9.8</ele>
        <time>2021-05-19T08:42:32Z</time>
      </trkpt>
      <trkpt lat="42.0171150" lon="-8.8840550">
        <ele>9.8</ele>
        <time>2021-05-19T08:42:33Z</time>
      </trkpt>
      <trkpt lat="42.0171240" lon="-8.8840570">
        <ele>9.8</ele>
        <time>2021-05-19T08:42:34Z</time>
      </trkpt>
      <trkpt lat="42.0171330" lon="-8.8840580">
        <ele>9.8</ele>
        <time>2021-05-19T08:42:35Z</time>
      </trkpt>
      <trkpt lat="42.0171530" lon="-8.8840580">
        <ele>9.8</ele>
        <time>2021-05-19T08:42:36Z</time>
      </trkpt>
      <trkpt lat="42.0171620" lon="-8.8840560">
        <ele>9.8</ele>
        <time>2021-05-19T08:42:37Z</time>
      </trkpt>
      <trkpt lat="42.0171700" lon="-8.8840550">
        <ele>9.8</ele>
        <time>2021-05-19T08:42:38Z</time>
      </trkpt>
      <trkpt lat="42.0171830" lon="-8.8840480">
        <ele>9.8</ele>
        <time>2021-05-19T08:42:39Z</time>
      </trkpt>
      <trkpt lat="42.0171960" lon="-8.8840420">
        <ele>9.8</ele>
        <time>2021-05-19T08:42:40Z</time>
      </trkpt>
      <trkpt lat="42.0172160" lon="-8.8840300">
        <ele>9.9</ele>
        <time>2021-05-19T08:42:41Z</time>
      </trkpt>
      <trkpt lat="42.0172240" lon="-8.8840290">
        <ele>9.9</ele>
        <time>2021-05-19T08:42:42Z</time>
      </trkpt>
      <trkpt lat="42.0172330" lon="-8.8840270">
        <ele>9.9</ele>
        <time>2021-05-19T08:42:43Z</time>
      </trkpt>
      <trkpt lat="42.0172470" lon="-8.8840290">
        <ele>9.9</ele>
        <time>2021-05-19T08:42:44Z</time>
      </trkpt>
      <trkpt lat="42.0172610" lon="-8.8840290">
        <ele>9.9</ele>
        <time>2021-05-19T08:42:45Z</time>
      </trkpt>
      <trkpt lat="42.0172830" lon="-8.8840280">
        <ele>9.9</ele>
        <time>2021-05-19T08:42:46Z</time>
      </trkpt>
      <trkpt lat="42.0172910" lon="-8.8840290">
        <ele>9.9</ele>
        <time>2021-05-19T08:42:47Z</time>
      </trkpt>
      <trkpt lat="42.0173000" lon="-8.8840300">
        <ele>9.9</ele>
        <time>2021-05-19T08:42:48Z</time>
      </trkpt>
      <trkpt lat="42.0173210" lon="-8.8840290">
        <ele>9.9</ele>
        <time>2021-05-19T08:42:49Z</time>
      </trkpt>
      <trkpt lat="42.0173300" lon="-8.8840260">
        <ele>10.0</ele>
        <time>2021-05-19T08:42:50Z</time>
      </trkpt>
      <trkpt lat="42.0173390" lon="-8.8840230">
        <ele>10.0</ele>
        <time>2021-05-19T08:42:51Z</time>
      </trkpt>
      <trkpt lat="42.0173530" lon="-8.8840190">
        <ele>10.0</ele>
        <time>2021-05-19T08:42:52Z</time>
      </trkpt>
      <trkpt lat="42.0173660" lon="-8.8840180">
        <ele>10.0</ele>
        <time>2021-05-19T08:42:53Z</time>
      </trkpt>
      <trkpt lat="42.0173780" lon="-8.8840180">
        <ele>10.0</ele>
        <time>2021-05-19T08:42:54Z</time>
      </trkpt>
      <trkpt lat="42.0173830" lon="-8.8840160">
        <ele>10.0</ele>
        <time>2021-05-19T08:42:55Z</time>
      </trkpt>
      <trkpt lat="42.0173900" lon="-8.8840100">
        <ele>10.0</ele>
        <time>2021-05-19T08:42:56Z</time>
      </trkpt>
      <trkpt lat="42.0173960" lon="-8.8840080">
        <ele>10.0</ele>
        <time>2021-05-19T08:42:57Z</time>
      </trkpt>
      <trkpt lat="42.0174070" lon="-8.8840050">
        <ele>10.1</ele>
        <time>2021-05-19T08:42:58Z</time>
      </trkpt>
      <trkpt lat="42.0174160" lon="-8.8840010">
        <ele>10.1</ele>
        <time>2021-05-19T08:42:59Z</time>
      </trkpt>
      <trkpt lat="42.0174240" lon="-8.8839980">
        <ele>10.1</ele>
        <time>2021-05-19T08:43:00Z</time>
      </trkpt>
      <trkpt lat="42.0174370" lon="-8.8839990">
        <ele>10.1</ele>
        <time>2021-05-19T08:43:01Z</time>
      </trkpt>
      <trkpt lat="42.0174440" lon="-8.8839970">
        <ele>10.1</ele>
        <time>2021-05-19T08:43:02Z</time>
      </trkpt>
      <trkpt lat="42.0174560" lon="-8.8839900">
        <ele>10.1</ele>
        <time>2021-05-19T08:43:03Z</time>
      </trkpt>
      <trkpt lat="42.0174630" lon="-8.8839910">
        <ele>10.1</ele>
        <time>2021-05-19T08:43:04Z</time>
      </trkpt>
      <trkpt lat="42.0174740" lon="-8.8839840">
        <ele>10.2</ele>
        <time>2021-05-19T08:43:05Z</time>
      </trkpt>
      <trkpt lat="42.0174830" lon="-8.8839810">
        <ele>10.2</ele>
        <time>2021-05-19T08:43:06Z</time>
      </trkpt>
      <trkpt lat="42.0174880" lon="-8.8839750">
        <ele>10.2</ele>
        <time>2021-05-19T08:43:07Z</time>
      </trkpt>
      <trkpt lat="42.0175010" lon="-8.8839670">
        <ele>10.2</ele>
        <time>2021-05-19T08:43:08Z</time>
      </trkpt>
      <trkpt lat="42.0175060" lon="-8.8839640">
        <ele>10.2</ele>
        <time>2021-05-19T08:43:09Z</time>
      </trkpt>
      <trkpt lat="42.0175150" lon="-8.8839620">
        <ele>10.2</ele>
        <time>2021-05-19T08:43:10Z</time>
      </trkpt>
      <trkpt lat="42.0175350" lon="-8.8839550">
        <ele>10.3</ele>
        <time>2021-05-19T08:43:11Z</time>
      </trkpt>
      <trkpt lat="42.0175440" lon="-8.8839530">
        <ele>10.3</ele>
        <time>2021-05-19T08:43:12Z</time>
      </trkpt>
      <trkpt lat="42.0175520" lon="-8.8839510">
        <ele>10.3</ele>
        <time>2021-05-19T08:43:13Z</time>
      </trkpt>
      <trkpt lat="42.0175530" lon="-8.8839530">
        <ele>10.3</ele>
        <time>2021-05-19T08:43:14Z</time>
      </trkpt>
      <trkpt lat="42.0175630" lon="-8.8839550">
        <ele>10.3</ele>
        <time>2021-05-19T08:43:15Z</time>
      </trkpt>
      <trkpt lat="42.0175740" lon="-8.8839480">
        <ele>10.4</ele>
        <time>2021-05-19T08:43:16Z</time>
      </trkpt>
      <trkpt lat="42.0175810" lon="-8.8839480">
        <ele>10.4</ele>
        <time>2021-05-19T08:43:17Z</time>
      </trkpt>
      <trkpt lat="42.0175930" lon="-8.8839450">
        <ele>10.4</ele>
        <time>2021-05-19T08:43:18Z</time>
      </trkpt>
      <trkpt lat="42.0176020" lon="-8.8839400">
        <ele>10.4</ele>
        <time>2021-05-19T08:43:19Z</time>
      </trkpt>
      <trkpt lat="42.0176150" lon="-8.8839460">
        <ele>10.4</ele>
        <time>2021-05-19T08:43:20Z</time>
      </trkpt>
      <trkpt lat="42.0176250" lon="-8.8839460">
        <ele>10.5</ele>
        <time>2021-05-19T08:43:21Z</time>
      </trkpt>
      <trkpt lat="42.0176440" lon="-8.8839440">
        <ele>10.5</ele>
        <time>2021-05-19T08:43:22Z</time>
      </trkpt>
      <trkpt lat="42.0176550" lon="-8.8839460">
        <ele>10.5</ele>
        <time>2021-05-19T08:43:23Z</time>
      </trkpt>
      <trkpt lat="42.0176640" lon="-8.8839480">
        <ele>10.5</ele>
        <time>2021-05-19T08:43:24Z</time>
      </trkpt>
      <trkpt lat="42.0176730" lon="-8.8839490">
        <ele>10.6</ele>
        <time>2021-05-19T08:43:25Z</time>
      </trkpt>
      <trkpt lat="42.0176820" lon="-8.8839510">
        <ele>10.6</ele>
        <time>2021-05-19T08:43:26Z</time>
      </trkpt>
      <trkpt lat="42.0176920" lon="-8.8839510">
        <ele>10.6</ele>
        <time>2021-05-19T08:43:27Z</time>
      </trkpt>
      <trkpt lat="42.0177080" lon="-8.8839580">
        <ele>10.6</ele>
        <time>2021-05-19T08:43:28Z</time>
      </trkpt>
      <trkpt lat="42.0177190" lon="-8.8839530">
        <ele>10.6</ele>
        <time>2021-05-19T08:43:29Z</time>
      </trkpt>
      <trkpt lat="42.0177340" lon="-8.8839540">
        <ele>10.7</ele>
        <time>2021-05-19T08:43:30Z</time>
      </trkpt>
      <trkpt lat="42.0177440" lon="-8.8839510">
        <ele>10.7</ele>
        <time>2021-05-19T08:43:31Z</time>
      </trkpt>
      <trkpt lat="42.0177600" lon="-8.8839540">
        <ele>10.7</ele>
        <time>2021-05-19T08:43:32Z</time>
      </trkpt>
      <trkpt lat="42.0177760" lon="-8.8839500">
        <ele>10.7</ele>
        <time>2021-05-19T08:43:33Z</time>
      </trkpt>
      <trkpt lat="42.0177910" lon="-8.8839550">
        <ele>10.7</ele>
        <time>2021-05-19T08:43:34Z</time>
      </trkpt>
      <trkpt lat="42.0178060" lon="-8.8839600">
        <ele>10.8</ele>
        <time>2021-05-19T08:43:35Z</time>
      </trkpt>
      <trkpt lat="42.0178190" lon="-8.8839590">
        <ele>10.8</ele>
        <time>2021-05-19T08:43:36Z</time>
      </trkpt>
      <trkpt lat="42.0178330" lon="-8.8839570">
        <ele>10.8</ele>
        <time>2021-05-19T08:43:37Z</time>
      </trkpt>
      <trkpt lat="42.0178470" lon="-8.8839570">
        <ele>10.8</ele>
        <time>2021-05-19T08:43:38Z</time>
      </trkpt>
      <trkpt lat="42.0178610" lon="-8.8839550">
        <ele>10.9</ele>
        <time>2021-05-19T08:43:39Z</time>
      </trkpt>
      <trkpt lat="42.0178740" lon="-8.8839620">
        <ele>10.9</ele>
        <time>2021-05-19T08:43:40Z</time>
      </trkpt>
      <trkpt lat="42.0178820" lon="-8.8839560">
        <ele>10.9</ele>
        <time>2021-05-19T08:43:41Z</time>
      </trkpt>
      <trkpt lat="42.0178930" lon="-8.8839590">
        <ele>10.9</ele>
        <time>2021-05-19T08:43:42Z</time>
      </trkpt>
      <trkpt lat="42.0179040" lon="-8.8839590">
        <ele>10.9</ele>
        <time>2021-05-19T08:43:43Z</time>
      </trkpt>
      <trkpt lat="42.0179210" lon="-8.8839570">
        <ele>11.0</ele>
        <time>2021-05-19T08:43:44Z</time>
      </trkpt>
      <trkpt lat="42.0179350" lon="-8.8839510">
        <ele>11.0</ele>
        <time>2021-05-19T08:43:45Z</time>
      </trkpt>
      <trkpt lat="42.0179360" lon="-8.8839490">
        <ele>11.0</ele>
        <time>2021-05-19T08:43:46Z</time>
      </trkpt>
      <trkpt lat="42.0179500" lon="-8.8839470">
        <ele>11.0</ele>
        <time>2021-05-19T08:43:47Z</time>
      </trkpt>
      <trkpt lat="42.0179580" lon="-8.8839420">
        <ele>11.0</ele>
        <time>2021-05-19T08:43:48Z</time>
      </trkpt>
      <trkpt lat="42.0179680" lon="-8.8839410">
        <ele>11.0</ele>
        <time>2021-05-19T08:43:49Z</time>
      </trkpt>
      <trkpt lat="42.0179810" lon="-8.8839410">
        <ele>11.1</ele>
        <time>2021-05-19T08:43:50Z</time>
      </trkpt>
      <trkpt lat="42.0179960" lon="-8.8839390">
        <ele>11.1</ele>
        <time>2021-05-19T08:43:51Z</time>
      </trkpt>
      <trkpt lat="42.0180090" lon="-8.8839360">
        <ele>11.1</ele>
        <time>2021-05-19T08:43:52Z</time>
      </trkpt>
      <trkpt lat="42.0180250" lon="-8.8839340">
        <ele>11.1</ele>
        <time>2021-05-19T08:43:53Z</time>
      </trkpt>
      <trkpt lat="42.0180390" lon="-8.8839270">
        <ele>11.2</ele>
        <time>2021-05-19T08:43:54Z</time>
      </trkpt>
      <trkpt lat="42.0180530" lon="-8.8839260">
        <ele>11.2</ele>
        <time>2021-05-19T08:43:55Z</time>
      </trkpt>
      <trkpt lat="42.0180610" lon="-8.8839240">
        <ele>11.2</ele>
        <time>2021-05-19T08:43:56Z</time>
      </trkpt>
      <trkpt lat="42.0180730" lon="-8.8839190">
        <ele>11.2</ele>
        <time>2021-05-19T08:43:57Z</time>
      </trkpt>
      <trkpt lat="42.0180890" lon="-8.8839090">
        <ele>11.3</ele>
        <time>2021-05-19T08:43:58Z</time>
      </trkpt>
      <trkpt lat="42.0181050" lon="-8.8839050">
        <ele>11.3</ele>
        <time>2021-05-19T08:43:59Z</time>
      </trkpt>
      <trkpt lat="42.0181200" lon="-8.8839030">
        <ele>11.3</ele>
        <time>2021-05-19T08:44:00Z</time>
      </trkpt>
      <trkpt lat="42.0181330" lon="-8.8838980">
        <ele>11.4</ele>
        <time>2021-05-19T08:44:01Z</time>
      </trkpt>
      <trkpt lat="42.0181500" lon="-8.8838990">
        <ele>11.4</ele>
        <time>2021-05-19T08:44:02Z</time>
      </trkpt>
      <trkpt lat="42.0181620" lon="-8.8838910">
        <ele>11.4</ele>
        <time>2021-05-19T08:44:03Z</time>
      </trkpt>
      <trkpt lat="42.0181770" lon="-8.8838970">
        <ele>11.4</ele>
        <time>2021-05-19T08:44:04Z</time>
      </trkpt>
      <trkpt lat="42.0181890" lon="-8.8838920">
        <ele>11.5</ele>
        <time>2021-05-19T08:44:05Z</time>
      </trkpt>
      <trkpt lat="42.0182030" lon="-8.8838870">
        <ele>11.5</ele>
        <time>2021-05-19T08:44:06Z</time>
      </trkpt>
      <trkpt lat="42.0182170" lon="-8.8838880">
        <ele>11.5</ele>
        <time>2021-05-19T08:44:07Z</time>
      </trkpt>
      <trkpt lat="42.0182300" lon="-8.8838860">
        <ele>11.6</ele>
        <time>2021-05-19T08:44:08Z</time>
      </trkpt>
      <trkpt lat="42.0182450" lon="-8.8838840">
        <ele>11.6</ele>
        <time>2021-05-19T08:44:09Z</time>
      </trkpt>
      <trkpt lat="42.0182560" lon="-8.8838770">
        <ele>11.6</ele>
        <time>2021-05-19T08:44:10Z</time>
      </trkpt>
      <trkpt lat="42.0182710" lon="-8.8838720">
        <ele>11.7</ele>
        <time>2021-05-19T08:44:11Z</time>
      </trkpt>
      <trkpt lat="42.0182870" lon="-8.8838680">
        <ele>11.7</ele>
        <time>2021-05-19T08:44:12Z</time>
      </trkpt>
      <trkpt lat="42.0183040" lon="-8.8838620">
        <ele>11.7</ele>
        <time>2021-05-19T08:44:13Z</time>
      </trkpt>
      <trkpt lat="42.0183210" lon="-8.8838560">
        <ele>11.8</ele>
        <time>2021-05-19T08:44:14Z</time>
      </trkpt>
      <trkpt lat="42.0183360" lon="-8.8838570">
        <ele>11.8</ele>
        <time>2021-05-19T08:44:15Z</time>
      </trkpt>
      <trkpt lat="42.0183500" lon="-8.8838500">
        <ele>11.9</ele>
        <time>2021-05-19T08:44:16Z</time>
      </trkpt>
      <trkpt lat="42.0183650" lon="-8.8838500">
        <ele>11.9</ele>
        <time>2021-05-19T08:44:17Z</time>
      </trkpt>
      <trkpt lat="42.0183810" lon="-8.8838500">
        <ele>12.0</ele>
        <time>2021-05-19T08:44:18Z</time>
      </trkpt>
      <trkpt lat="42.0183950" lon="-8.8838500">
        <ele>12.0</ele>
        <time>2021-05-19T08:44:19Z</time>
      </trkpt>
      <trkpt lat="42.0184110" lon="-8.8838450">
        <ele>12.1</ele>
        <time>2021-05-19T08:44:20Z</time>
      </trkpt>
      <trkpt lat="42.0184280" lon="-8.8838400">
        <ele>12.1</ele>
        <time>2021-05-19T08:44:21Z</time>
      </trkpt>
      <trkpt lat="42.0184440" lon="-8.8838420">
        <ele>12.2</ele>
        <time>2021-05-19T08:44:22Z</time>
      </trkpt>
      <trkpt lat="42.0184570" lon="-8.8838400">
        <ele>12.2</ele>
        <time>2021-05-19T08:44:23Z</time>
      </trkpt>
      <trkpt lat="42.0184730" lon="-8.8838400">
        <ele>12.3</ele>
        <time>2021-05-19T08:44:24Z</time>
      </trkpt>
      <trkpt lat="42.0184870" lon="-8.8838400">
        <ele>12.3</ele>
        <time>2021-05-19T08:44:25Z</time>
      </trkpt>
      <trkpt lat="42.0185010" lon="-8.8838310">
        <ele>12.4</ele>
        <time>2021-05-19T08:44:26Z</time>
      </trkpt>
      <trkpt lat="42.0185180" lon="-8.8838290">
        <ele>12.4</ele>
        <time>2021-05-19T08:44:27Z</time>
      </trkpt>
      <trkpt lat="42.0185330" lon="-8.8838240">
        <ele>12.5</ele>
        <time>2021-05-19T08:44:28Z</time>
      </trkpt>
      <trkpt lat="42.0185490" lon="-8.8838240">
        <ele>12.5</ele>
        <time>2021-05-19T08:44:29Z</time>
      </trkpt>
      <trkpt lat="42.0185710" lon="-8.8838200">
        <ele>12.6</ele>
        <time>2021-05-19T08:44:30Z</time>
      </trkpt>
      <trkpt lat="42.0185810" lon="-8.8838220">
        <ele>12.6</ele>
        <time>2021-05-19T08:44:31Z</time>
      </trkpt>
      <trkpt lat="42.0185900" lon="-8.8838240">
        <ele>12.6</ele>
        <time>2021-05-19T08:44:32Z</time>
      </trkpt>
      <trkpt lat="42.0186040" lon="-8.8838260">
        <ele>12.6</ele>
        <time>2021-05-19T08:44:33Z</time>
      </trkpt>
      <trkpt lat="42.0186190" lon="-8.8838220">
        <ele>12.7</ele>
        <time>2021-05-19T08:44:34Z</time>
      </trkpt>
      <trkpt lat="42.0186330" lon="-8.8838220">
        <ele>12.7</ele>
        <time>2021-05-19T08:44:35Z</time>
      </trkpt>
      <trkpt lat="42.0186490" lon="-8.8838230">
        <ele>12.7</ele>
        <time>2021-05-19T08:44:36Z</time>
      </trkpt>
      <trkpt lat="42.0186630" lon="-8.8838210">
        <ele>12.7</ele>
        <time>2021-05-19T08:44:37Z</time>
      </trkpt>
      <trkpt lat="42.0186780" lon="-8.8838190">
        <ele>12.7</ele>
        <time>2021-05-19T08:44:38Z</time>
      </trkpt>
      <trkpt lat="42.0186920" lon="-8.8838200">
        <ele>12.7</ele>
        <time>2021-05-19T08:44:39Z</time>
      </trkpt>
      <trkpt lat="42.0186960" lon="-8.8838190">
        <ele>12.7</ele>
        <time>2021-05-19T08:44:40Z</time>
      </trkpt>
      <trkpt lat="42.0187060" lon="-8.8838220">
        <ele>12.7</ele>
        <time>2021-05-19T08:44:41Z</time>
      </trkpt>
      <trkpt lat="42.0187260" lon="-8.8838190">
        <ele>12.7</ele>
        <time>2021-05-19T08:44:42Z</time>
      </trkpt>
      <trkpt lat="42.0187360" lon="-8.8838190">
        <ele>12.7</ele>
        <time>2021-05-19T08:44:43Z</time>
      </trkpt>
      <trkpt lat="42.0187450" lon="-8.8838200">
        <ele>12.7</ele>
        <time>2021-05-19T08:44:44Z</time>
      </trkpt>
      <trkpt lat="42.0187530" lon="-8.8838210">
        <ele>12.7</ele>
        <time>2021-05-19T08:44:45Z</time>
      </trkpt>
      <trkpt lat="42.0187590" lon="-8.8838150">
        <ele>12.7</ele>
        <time>2021-05-19T08:44:46Z</time>
      </trkpt>
      <trkpt lat="42.0187790" lon="-8.8838190">
        <ele>12.7</ele>
        <time>2021-05-19T08:44:47Z</time>
      </trkpt>
      <trkpt lat="42.0187860" lon="-8.8838180">
        <ele>12.7</ele>
        <time>2021-05-19T08:44:48Z</time>
      </trkpt>
      <trkpt lat="42.0187980" lon="-8.8838230">
        <ele>12.7</ele>
        <time>2021-05-19T08:44:49Z</time>
      </trkpt>
      <trkpt lat="42.0188070" lon="-8.8838290">
        <ele>12.7</ele>
        <time>2021-05-19T08:44:50Z</time>
      </trkpt>
      <trkpt lat="42.0188180" lon="-8.8838310">
        <ele>12.7</ele>
        <time>2021-05-19T08:44:51Z</time>
      </trkpt>
      <trkpt lat="42.0188220" lon="-8.8838330">
        <ele>12.7</ele>
        <time>2021-05-19T08:44:52Z</time>
      </trkpt>
      <trkpt lat="42.0188340" lon="-8.8838390">
        <ele>12.7</ele>
        <time>2021-05-19T08:44:53Z</time>
      </trkpt>
      <trkpt lat="42.0188410" lon="-8.8838410">
        <ele>12.7</ele>
        <time>2021-05-19T08:44:54Z</time>
      </trkpt>
      <trkpt lat="42.0188530" lon="-8.8838440">
        <ele>12.7</ele>
        <time>2021-05-19T08:44:55Z</time>
      </trkpt>
      <trkpt lat="42.0188620" lon="-8.8838410">
        <ele>12.7</ele>
        <time>2021-05-19T08:44:56Z</time>
      </trkpt>
      <trkpt lat="42.0188870" lon="-8.8838430">
        <ele>12.7</ele>
        <time>2021-05-19T08:44:57Z</time>
      </trkpt>
      <trkpt lat="42.0188970" lon="-8.8838450">
        <ele>12.7</ele>
        <time>2021-05-19T08:44:58Z</time>
      </trkpt>
      <trkpt lat="42.0189060" lon="-8.8838480">
        <ele>12.7</ele>
        <time>2021-05-19T08:44:59Z</time>
      </trkpt>
      <trkpt lat="42.0189170" lon="-8.8838520">
        <ele>12.7</ele>
        <time>2021-05-19T08:45:00Z</time>
      </trkpt>
      <trkpt lat="42.0189340" lon="-8.8838530">
        <ele>12.7</ele>
        <time>2021-05-19T08:45:01Z</time>
      </trkpt>
      <trkpt lat="42.0189500" lon="-8.8838490">
        <ele>12.7</ele>
        <time>2021-05-19T08:45:02Z</time>
      </trkpt>
      <trkpt lat="42.0189640" lon="-8.8838500">
        <ele>12.7</ele>
        <time>2021-05-19T08:45:03Z</time>
      </trkpt>
      <trkpt lat="42.0189790" lon="-8.8838500">
        <ele>12.8</ele>
        <time>2021-05-19T08:45:04Z</time>
      </trkpt>
      <trkpt lat="42.0189930" lon="-8.8838530">
        <ele>12.8</ele>
        <time>2021-05-19T08:45:05Z</time>
      </trkpt>
      <trkpt lat="42.0190060" lon="-8.8838550">
        <ele>12.8</ele>
        <time>2021-05-19T08:45:06Z</time>
      </trkpt>
      <trkpt lat="42.0190210" lon="-8.8838550">
        <ele>12.8</ele>
        <time>2021-05-19T08:45:07Z</time>
      </trkpt>
      <trkpt lat="42.0190350" lon="-8.8838520">
        <ele>12.8</ele>
        <time>2021-05-19T08:45:08Z</time>
      </trkpt>
      <trkpt lat="42.0190480" lon="-8.8838580">
        <ele>12.8</ele>
        <time>2021-05-19T08:45:09Z</time>
      </trkpt>
      <trkpt lat="42.0190620" lon="-8.8838630">
        <ele>12.8</ele>
        <time>2021-05-19T08:45:10Z</time>
      </trkpt>
      <trkpt lat="42.0190780" lon="-8.8838680">
        <ele>12.8</ele>
        <time>2021-05-19T08:45:11Z</time>
      </trkpt>
      <trkpt lat="42.0190930" lon="-8.8838700">
        <ele>12.8</ele>
        <time>2021-05-19T08:45:12Z</time>
      </trkpt>
      <trkpt lat="42.0191090" lon="-8.8838700">
        <ele>12.8</ele>
        <time>2021-05-19T08:45:13Z</time>
      </trkpt>
      <trkpt lat="42.0191250" lon="-8.8838730">
        <ele>12.8</ele>
        <time>2021-05-19T08:45:14Z</time>
      </trkpt>
      <trkpt lat="42.0191410" lon="-8.8838750">
        <ele>12.8</ele>
        <time>2021-05-19T08:45:15Z</time>
      </trkpt>
      <trkpt lat="42.0191570" lon="-8.8838730">
        <ele>12.8</ele>
        <time>2021-05-19T08:45:16Z</time>
      </trkpt>
      <trkpt lat="42.0191720" lon="-8.8838800">
        <ele>12.8</ele>
        <time>2021-05-19T08:45:17Z</time>
      </trkpt>
      <trkpt lat="42.0191850" lon="-8.8838820">
        <ele>12.8</ele>
        <time>2021-05-19T08:45:18Z</time>
      </trkpt>
      <trkpt lat="42.0192000" lon="-8.8838880">
        <ele>12.8</ele>
        <time>2021-05-19T08:45:19Z</time>
      </trkpt>
      <trkpt lat="42.0192150" lon="-8.8838860">
        <ele>12.9</ele>
        <time>2021-05-19T08:45:20Z</time>
      </trkpt>
      <trkpt lat="42.0192300" lon="-8.8838920">
        <ele>12.9</ele>
        <time>2021-05-19T08:45:21Z</time>
      </trkpt>
      <trkpt lat="42.0192430" lon="-8.8838980">
        <ele>12.9</ele>
        <time>2021-05-19T08:45:22Z</time>
      </trkpt>
      <trkpt lat="42.0192560" lon="-8.8839000">
        <ele>12.9</ele>
        <time>2021-05-19T08:45:23Z</time>
      </trkpt>
      <trkpt lat="42.0192710" lon="-8.8839020">
        <ele>13.0</ele>
        <time>2021-05-19T08:45:24Z</time>
      </trkpt>
      <trkpt lat="42.0192850" lon="-8.8839070">
        <ele>13.0</ele>
        <time>2021-05-19T08:45:25Z</time>
      </trkpt>
      <trkpt lat="42.0193080" lon="-8.8839100">
        <ele>13.1</ele>
        <time>2021-05-19T08:45:26Z</time>
      </trkpt>
      <trkpt lat="42.0193180" lon="-8.8839120">
        <ele>13.1</ele>
        <time>2021-05-19T08:45:27Z</time>
      </trkpt>
      <trkpt lat="42.0193270" lon="-8.8839140">
        <ele>13.1</ele>
        <time>2021-05-19T08:45:28Z</time>
      </trkpt>
      <trkpt lat="42.0193400" lon="-8.8839160">
        <ele>13.2</ele>
        <time>2021-05-19T08:45:29Z</time>
      </trkpt>
      <trkpt lat="42.0193550" lon="-8.8839210">
        <ele>13.2</ele>
        <time>2021-05-19T08:45:30Z</time>
      </trkpt>
      <trkpt lat="42.0193690" lon="-8.8839250">
        <ele>13.2</ele>
        <time>2021-05-19T08:45:31Z</time>
      </trkpt>
      <trkpt lat="42.0193830" lon="-8.8839260">
        <ele>13.3</ele>
        <time>2021-05-19T08:45:32Z</time>
      </trkpt>
      <trkpt lat="42.0193960" lon="-8.8839270">
        <ele>13.3</ele>
        <time>2021-05-19T08:45:33Z</time>
      </trkpt>
      <trkpt lat="42.0194110" lon="-8.8839310">
        <ele>13.4</ele>
        <time>2021-05-19T08:45:34Z</time>
      </trkpt>
      <trkpt lat="42.0194240" lon="-8.8839330">
        <ele>13.4</ele>
        <time>2021-05-19T08:45:35Z</time>
      </trkpt>
      <trkpt lat="42.0194250" lon="-8.8839400">
        <ele>13.5</ele>
        <time>2021-05-19T08:45:36Z</time>
      </trkpt>
      <trkpt lat="42.0194310" lon="-8.8839430">
        <ele>13.5</ele>
        <time>2021-05-19T08:45:37Z</time>
      </trkpt>
      <trkpt lat="42.0194370" lon="-8.8839480">
        <ele>13.5</ele>
        <time>2021-05-19T08:45:38Z</time>
      </trkpt>
      <trkpt lat="42.0194500" lon="-8.8839450">
        <ele>13.6</ele>
        <time>2021-05-19T08:45:39Z</time>
      </trkpt>
      <trkpt lat="42.0194620" lon="-8.8839500">
        <ele>13.6</ele>
        <time>2021-05-19T08:45:40Z</time>
      </trkpt>
      <trkpt lat="42.0194730" lon="-8.8839490">
        <ele>13.7</ele>
        <time>2021-05-19T08:45:41Z</time>
      </trkpt>
      <trkpt lat="42.0194840" lon="-8.8839460">
        <ele>13.7</ele>
        <time>2021-05-19T08:45:42Z</time>
      </trkpt>
      <trkpt lat="42.0194950" lon="-8.8839520">
        <ele>13.7</ele>
        <time>2021-05-19T08:45:43Z</time>
      </trkpt>
      <trkpt lat="42.0195070" lon="-8.8839520">
        <ele>13.8</ele>
        <time>2021-05-19T08:45:44Z</time>
      </trkpt>
      <trkpt lat="42.0195180" lon="-8.8839510">
        <ele>13.8</ele>
        <time>2021-05-19T08:45:45Z</time>
      </trkpt>
      <trkpt lat="42.0195290" lon="-8.8839510">
        <ele>13.9</ele>
        <time>2021-05-19T08:45:46Z</time>
      </trkpt>
      <trkpt lat="42.0195330" lon="-8.8839490">
        <ele>13.9</ele>
        <time>2021-05-19T08:45:47Z</time>
      </trkpt>
      <trkpt lat="42.0195430" lon="-8.8839510">
        <ele>13.9</ele>
        <time>2021-05-19T08:45:48Z</time>
      </trkpt>
      <trkpt lat="42.0195540" lon="-8.8839520">
        <ele>14.0</ele>
        <time>2021-05-19T08:45:49Z</time>
      </trkpt>
      <trkpt lat="42.0195670" lon="-8.8839450">
        <ele>14.0</ele>
        <time>2021-05-19T08:45:50Z</time>
      </trkpt>
      <trkpt lat="42.0195740" lon="-8.8839400">
        <ele>14.1</ele>
        <time>2021-05-19T08:45:51Z</time>
      </trkpt>
      <trkpt lat="42.0195880" lon="-8.8839390">
        <ele>14.1</ele>
        <time>2021-05-19T08:45:52Z</time>
      </trkpt>
      <trkpt lat="42.0195970" lon="-8.8839350">
        <ele>14.2</ele>
        <time>2021-05-19T08:45:53Z</time>
      </trkpt>
      <trkpt lat="42.0196070" lon="-8.8839310">
        <ele>14.2</ele>
        <time>2021-05-19T08:45:54Z</time>
      </trkpt>
      <trkpt lat="42.0196170" lon="-8.8839240">
        <ele>14.2</ele>
        <time>2021-05-19T08:45:55Z</time>
      </trkpt>
      <trkpt lat="42.0196360" lon="-8.8839150">
        <ele>14.3</ele>
        <time>2021-05-19T08:45:56Z</time>
      </trkpt>
      <trkpt lat="42.0196370" lon="-8.8839140">
        <ele>14.3</ele>
        <time>2021-05-19T08:45:57Z</time>
      </trkpt>
      <trkpt lat="42.0196470" lon="-8.8839080">
        <ele>14.3</ele>
        <time>2021-05-19T08:45:58Z</time>
      </trkpt>
      <trkpt lat="42.0196620" lon="-8.8839060">
        <ele>14.4</ele>
        <time>2021-05-19T08:45:59Z</time>
      </trkpt>
      <trkpt lat="42.0196680" lon="-8.8839030">
        <ele>14.4</ele>
        <time>2021-05-19T08:46:00Z</time>
      </trkpt>
      <trkpt lat="42.0196800" lon="-8.8839030">
        <ele>14.5</ele>
        <time>2021-05-19T08:46:01Z</time>
      </trkpt>
      <trkpt lat="42.0196920" lon="-8.8838910">
        <ele>14.5</ele>
        <time>2021-05-19T08:46:02Z</time>
      </trkpt>
      <trkpt lat="42.0197130" lon="-8.8838840">
        <ele>14.6</ele>
        <time>2021-05-19T08:46:03Z</time>
      </trkpt>
      <trkpt lat="42.0197210" lon="-8.8838800">
        <ele>14.6</ele>
        <time>2021-05-19T08:46:04Z</time>
      </trkpt>
      <trkpt lat="42.0197280" lon="-8.8838770">
        <ele>14.6</ele>
        <time>2021-05-19T08:46:05Z</time>
      </trkpt>
      <trkpt lat="42.0197510" lon="-8.8838770">
        <ele>14.7</ele>
        <time>2021-05-19T08:46:06Z</time>
      </trkpt>
      <trkpt lat="42.0197620" lon="-8.8838760">
        <ele>14.8</ele>
        <time>2021-05-19T08:46:07Z</time>
      </trkpt>
      <trkpt lat="42.0197720" lon="-8.8838740">
        <ele>14.8</ele>
        <time>2021-05-19T08:46:08Z</time>
      </trkpt>
      <trkpt lat="42.0197830" lon="-8.8838690">
        <ele>14.8</ele>
        <time>2021-05-19T08:46:09Z</time>
      </trkpt>
      <trkpt lat="42.0197940" lon="-8.8838690">
        <ele>14.8</ele>
        <time>2021-05-19T08:46:10Z</time>
      </trkpt>
      <trkpt lat="42.0198020" lon="-8.8838610">
        <ele>14.9</ele>
        <time>2021-05-19T08:46:11Z</time>
      </trkpt>
      <trkpt lat="42.0198130" lon="-8.8838610">
        <ele>14.9</ele>
        <time>2021-05-19T08:46:12Z</time>
      </trkpt>
      <trkpt lat="42.0198230" lon="-8.8838560">
        <ele>14.9</ele>
        <time>2021-05-19T08:46:13Z</time>
      </trkpt>
      <trkpt lat="42.0198320" lon="-8.8838590">
        <ele>14.9</ele>
        <time>2021-05-19T08:46:14Z</time>
      </trkpt>
      <trkpt lat="42.0198390" lon="-8.8838660">
        <ele>15.0</ele>
        <time>2021-05-19T08:46:15Z</time>
      </trkpt>
      <trkpt lat="42.0198450" lon="-8.8838610">
        <ele>15.0</ele>
        <time>2021-05-19T08:46:16Z</time>
      </trkpt>
      <trkpt lat="42.0198590" lon="-8.8838620">
        <ele>15.0</ele>
        <time>2021-05-19T08:46:17Z</time>
      </trkpt>
      <trkpt lat="42.0198790" lon="-8.8838630">
        <ele>15.0</ele>
        <time>2021-05-19T08:46:18Z</time>
      </trkpt>
      <trkpt lat="42.0198880" lon="-8.8838630">
        <ele>15.0</ele>
        <time>2021-05-19T08:46:19Z</time>
      </trkpt>
      <trkpt lat="42.0198970" lon="-8.8838620">
        <ele>15.0</ele>
        <time>2021-05-19T08:46:20Z</time>
      </trkpt>
      <trkpt lat="42.0199240" lon="-8.8838610">
        <ele>15.1</ele>
        <time>2021-05-19T08:46:21Z</time>
      </trkpt>
      <trkpt lat="42.0199320" lon="-8.8838600">
        <ele>15.1</ele>
        <time>2021-05-19T08:46:22Z</time>
      </trkpt>
      <trkpt lat="42.0199410" lon="-8.8838590">
        <ele>15.1</ele>
        <time>2021-05-19T08:46:23Z</time>
      </trkpt>
      <trkpt lat="42.0199590" lon="-8.8838540">
        <ele>15.1</ele>
        <time>2021-05-19T08:46:24Z</time>
      </trkpt>
      <trkpt lat="42.0199750" lon="-8.8838530">
        <ele>15.1</ele>
        <time>2021-05-19T08:46:25Z</time>
      </trkpt>
      <trkpt lat="42.0200050" lon="-8.8838580">
        <ele>15.1</ele>
        <time>2021-05-19T08:46:26Z</time>
      </trkpt>
      <trkpt lat="42.0200130" lon="-8.8838600">
        <ele>15.1</ele>
        <time>2021-05-19T08:46:27Z</time>
      </trkpt>
      <trkpt lat="42.0200310" lon="-8.8838590">
        <ele>15.1</ele>
        <time>2021-05-19T08:46:28Z</time>
      </trkpt>
      <trkpt lat="42.0200470" lon="-8.8838590">
        <ele>15.1</ele>
        <time>2021-05-19T08:46:29Z</time>
      </trkpt>
      <trkpt lat="42.0200640" lon="-8.8838550">
        <ele>15.1</ele>
        <time>2021-05-19T08:46:30Z</time>
      </trkpt>
      <trkpt lat="42.0200800" lon="-8.8838490">
        <ele>15.1</ele>
        <time>2021-05-19T08:46:31Z</time>
      </trkpt>
      <trkpt lat="42.0200970" lon="-8.8838440">
        <ele>15.1</ele>
        <time>2021-05-19T08:46:32Z</time>
      </trkpt>
      <trkpt lat="42.0201130" lon="-8.8838420">
        <ele>15.1</ele>
        <time>2021-05-19T08:46:33Z</time>
      </trkpt>
      <trkpt lat="42.0201300" lon="-8.8838420">
        <ele>15.2</ele>
        <time>2021-05-19T08:46:34Z</time>
      </trkpt>
      <trkpt lat="42.0201480" lon="-8.8838410">
        <ele>15.2</ele>
        <time>2021-05-19T08:46:35Z</time>
      </trkpt>
      <trkpt lat="42.0201640" lon="-8.8838330">
        <ele>15.2</ele>
        <time>2021-05-19T08:46:36Z</time>
      </trkpt>
      <trkpt lat="42.0201810" lon="-8.8838350">
        <ele>15.2</ele>
        <time>2021-05-19T08:46:37Z</time>
      </trkpt>
      <trkpt lat="42.0201960" lon="-8.8838270">
        <ele>15.2</ele>
        <time>2021-05-19T08:46:38Z</time>
      </trkpt>
      <trkpt lat="42.0202120" lon="-8.8838240">
        <ele>15.2</ele>
        <time>2021-05-19T08:46:39Z</time>
      </trkpt>
      <trkpt lat="42.0202270" lon="-8.8838170">
        <ele>15.2</ele>
        <time>2021-05-19T08:46:40Z</time>
      </trkpt>
      <trkpt lat="42.0202440" lon="-8.8838200">
        <ele>15.2</ele>
        <time>2021-05-19T08:46:41Z</time>
      </trkpt>
      <trkpt lat="42.0202600" lon="-8.8838240">
        <ele>15.2</ele>
        <time>2021-05-19T08:46:42Z</time>
      </trkpt>
      <trkpt lat="42.0202780" lon="-8.8838270">
        <ele>15.1</ele>
        <time>2021-05-19T08:46:43Z</time>
      </trkpt>
      <trkpt lat="42.0202920" lon="-8.8838250">
        <ele>15.1</ele>
        <time>2021-05-19T08:46:44Z</time>
      </trkpt>
      <trkpt lat="42.0203070" lon="-8.8838190">
        <ele>15.1</ele>
        <time>2021-05-19T08:46:45Z</time>
      </trkpt>
      <trkpt lat="42.0203210" lon="-8.8838270">
        <ele>15.1</ele>
        <time>2021-05-19T08:46:46Z</time>
      </trkpt>
      <trkpt lat="42.0203360" lon="-8.8838290">
        <ele>15.0</ele>
        <time>2021-05-19T08:46:47Z</time>
      </trkpt>
      <trkpt lat="42.0203520" lon="-8.8838240">
        <ele>15.0</ele>
        <time>2021-05-19T08:46:48Z</time>
      </trkpt>
      <trkpt lat="42.0203650" lon="-8.8838270">
        <ele>15.0</ele>
        <time>2021-05-19T08:46:49Z</time>
      </trkpt>
      <trkpt lat="42.0203790" lon="-8.8838290">
        <ele>14.9</ele>
        <time>2021-05-19T08:46:50Z</time>
      </trkpt>
      <trkpt lat="42.0203920" lon="-8.8838280">
        <ele>14.9</ele>
        <time>2021-05-19T08:46:51Z</time>
      </trkpt>
      <trkpt lat="42.0204050" lon="-8.8838280">
        <ele>14.9</ele>
        <time>2021-05-19T08:46:52Z</time>
      </trkpt>
      <trkpt lat="42.0204110" lon="-8.8838290">
        <ele>14.9</ele>
        <time>2021-05-19T08:46:53Z</time>
      </trkpt>
      <trkpt lat="42.0204190" lon="-8.8838300">
        <ele>14.9</ele>
        <time>2021-05-19T08:46:54Z</time>
      </trkpt>
      <trkpt lat="42.0204270" lon="-8.8838290">
        <ele>14.8</ele>
        <time>2021-05-19T08:46:55Z</time>
      </trkpt>
      <trkpt lat="42.0204330" lon="-8.8838370">
        <ele>14.8</ele>
        <time>2021-05-19T08:46:56Z</time>
      </trkpt>
      <trkpt lat="42.0204420" lon="-8.8838360">
        <ele>14.8</ele>
        <time>2021-05-19T08:46:57Z</time>
      </trkpt>
      <trkpt lat="42.0204530" lon="-8.8838340">
        <ele>14.8</ele>
        <time>2021-05-19T08:46:58Z</time>
      </trkpt>
      <trkpt lat="42.0204570" lon="-8.8838320">
        <ele>14.8</ele>
        <time>2021-05-19T08:46:59Z</time>
      </trkpt>
      <trkpt lat="42.0204760" lon="-8.8838380">
        <ele>14.7</ele>
        <time>2021-05-19T08:47:00Z</time>
      </trkpt>
      <trkpt lat="42.0204850" lon="-8.8838390">
        <ele>14.7</ele>
        <time>2021-05-19T08:47:01Z</time>
      </trkpt>
      <trkpt lat="42.0204900" lon="-8.8838420">
        <ele>14.7</ele>
        <time>2021-05-19T08:47:02Z</time>
      </trkpt>
      <trkpt lat="42.0205020" lon="-8.8838430">
        <ele>14.7</ele>
        <time>2021-05-19T08:47:03Z</time>
      </trkpt>
      <trkpt lat="42.0205090" lon="-8.8838460">
        <ele>14.6</ele>
        <time>2021-05-19T08:47:04Z</time>
      </trkpt>
      <trkpt lat="42.0205170" lon="-8.8838480">
        <ele>14.6</ele>
        <time>2021-05-19T08:47:05Z</time>
      </trkpt>
      <trkpt lat="42.0205340" lon="-8.8838460">
        <ele>14.6</ele>
        <time>2021-05-19T08:47:06Z</time>
      </trkpt>
      <trkpt lat="42.0205440" lon="-8.8838450">
        <ele>14.6</ele>
        <time>2021-05-19T08:47:07Z</time>
      </trkpt>
      <trkpt lat="42.0205550" lon="-8.8838440">
        <ele>14.5</ele>
        <time>2021-05-19T08:47:08Z</time>
      </trkpt>
      <trkpt lat="42.0205600" lon="-8.8838420">
        <ele>14.5</ele>
        <time>2021-05-19T08:47:09Z</time>
      </trkpt>
      <trkpt lat="42.0205680" lon="-8.8838460">
        <ele>14.5</ele>
        <time>2021-05-19T08:47:10Z</time>
      </trkpt>
      <trkpt lat="42.0205740" lon="-8.8838420">
        <ele>14.5</ele>
        <time>2021-05-19T08:47:11Z</time>
      </trkpt>
      <trkpt lat="42.0205860" lon="-8.8838440">
        <ele>14.4</ele>
        <time>2021-05-19T08:47:12Z</time>
      </trkpt>
      <trkpt lat="42.0205920" lon="-8.8838420">
        <ele>14.4</ele>
        <time>2021-05-19T08:47:13Z</time>
      </trkpt>
      <trkpt lat="42.0205990" lon="-8.8838420">
        <ele>14.4</ele>
        <time>2021-05-19T08:47:14Z</time>
      </trkpt>
      <trkpt lat="42.0206030" lon="-8.8838420">
        <ele>14.4</ele>
        <time>2021-05-19T08:47:15Z</time>
      </trkpt>
      <trkpt lat="42.0206160" lon="-8.8838450">
        <ele>14.3</ele>
        <time>2021-05-19T08:47:16Z</time>
      </trkpt>
      <trkpt lat="42.0206300" lon="-8.8838410">
        <ele>14.3</ele>
        <time>2021-05-19T08:47:17Z</time>
      </trkpt>
      <trkpt lat="42.0206480" lon="-8.8838430">
        <ele>14.2</ele>
        <time>2021-05-19T08:47:18Z</time>
      </trkpt>
      <trkpt lat="42.0206710" lon="-8.8838450">
        <ele>14.1</ele>
        <time>2021-05-19T08:47:19Z</time>
      </trkpt>
      <trkpt lat="42.0206820" lon="-8.8838460">
        <ele>14.1</ele>
        <time>2021-05-19T08:47:20Z</time>
      </trkpt>
      <trkpt lat="42.0206930" lon="-8.8838470">
        <ele>14.1</ele>
        <time>2021-05-19T08:47:21Z</time>
      </trkpt>
      <trkpt lat="42.0207050" lon="-8.8838570">
        <ele>14.0</ele>
        <time>2021-05-19T08:47:22Z</time>
      </trkpt>
      <trkpt lat="42.0207280" lon="-8.8838570">
        <ele>13.9</ele>
        <time>2021-05-19T08:47:23Z</time>
      </trkpt>
      <trkpt lat="42.0207480" lon="-8.8838540">
        <ele>13.9</ele>
        <time>2021-05-19T08:47:24Z</time>
      </trkpt>
      <trkpt lat="42.0207580" lon="-8.8838510">
        <ele>13.9</ele>
        <time>2021-05-19T08:47:25Z</time>
      </trkpt>
      <trkpt lat="42.0207730" lon="-8.8838420">
        <ele>13.8</ele>
        <time>2021-05-19T08:47:26Z</time>
      </trkpt>
      <trkpt lat="42.0207860" lon="-8.8838420">
        <ele>13.8</ele>
        <time>2021-05-19T08:47:27Z</time>
      </trkpt>
      <trkpt lat="42.0207940" lon="-8.8838470">
        <ele>13.7</ele>
        <time>2021-05-19T08:47:28Z</time>
      </trkpt>
      <trkpt lat="42.0208060" lon="-8.8838460">
        <ele>13.7</ele>
        <time>2021-05-19T08:47:29Z</time>
      </trkpt>
      <trkpt lat="42.0208150" lon="-8.8838410">
        <ele>13.7</ele>
        <time>2021-05-19T08:47:30Z</time>
      </trkpt>
      <trkpt lat="42.0208280" lon="-8.8838380">
        <ele>13.7</ele>
        <time>2021-05-19T08:47:31Z</time>
      </trkpt>
      <trkpt lat="42.0208430" lon="-8.8838360">
        <ele>13.6</ele>
        <time>2021-05-19T08:47:32Z</time>
      </trkpt>
      <trkpt lat="42.0208580" lon="-8.8838370">
        <ele>13.6</ele>
        <time>2021-05-19T08:47:33Z</time>
      </trkpt>
      <trkpt lat="42.0208760" lon="-8.8838360">
        <ele>13.6</ele>
        <time>2021-05-19T08:47:34Z</time>
      </trkpt>
      <trkpt lat="42.0208980" lon="-8.8838350">
        <ele>13.5</ele>
        <time>2021-05-19T08:47:35Z</time>
      </trkpt>
      <trkpt lat="42.0209090" lon="-8.8838340">
        <ele>13.5</ele>
        <time>2021-05-19T08:47:36Z</time>
      </trkpt>
      <trkpt lat="42.0209190" lon="-8.8838320">
        <ele>13.5</ele>
        <time>2021-05-19T08:47:37Z</time>
      </trkpt>
      <trkpt lat="42.0209220" lon="-8.8838280">
        <ele>13.5</ele>
        <time>2021-05-19T08:47:38Z</time>
      </trkpt>
      <trkpt lat="42.0209380" lon="-8.8838350">
        <ele>13.5</ele>
        <time>2021-05-19T08:47:39Z</time>
      </trkpt>
      <trkpt lat="42.0209530" lon="-8.8838390">
        <ele>13.4</ele>
        <time>2021-05-19T08:47:40Z</time>
      </trkpt>
      <trkpt lat="42.0209730" lon="-8.8838370">
        <ele>13.4</ele>
        <time>2021-05-19T08:47:41Z</time>
      </trkpt>
      <trkpt lat="42.0209850" lon="-8.8838410">
        <ele>13.4</ele>
        <time>2021-05-19T08:47:42Z</time>
      </trkpt>
      <trkpt lat="42.0209930" lon="-8.8838450">
        <ele>13.4</ele>
        <time>2021-05-19T08:47:43Z</time>
      </trkpt>
      <trkpt lat="42.0210120" lon="-8.8838500">
        <ele>13.4</ele>
        <time>2021-05-19T08:47:44Z</time>
      </trkpt>
      <trkpt lat="42.0210220" lon="-8.8838470">
        <ele>13.4</ele>
        <time>2021-05-19T08:47:45Z</time>
      </trkpt>
      <trkpt lat="42.0210390" lon="-8.8838640">
        <ele>13.4</ele>
        <time>2021-05-19T08:47:46Z</time>
      </trkpt>
      <trkpt lat="42.0210450" lon="-8.8838710">
        <ele>13.4</ele>
        <time>2021-05-19T08:47:47Z</time>
      </trkpt>
      <trkpt lat="42.0210650" lon="-8.8838890">
        <ele>13.3</ele>
        <time>2021-05-19T08:47:48Z</time>
      </trkpt>
      <trkpt lat="42.0210810" lon="-8.8838920">
        <ele>13.3</ele>
        <time>2021-05-19T08:47:49Z</time>
      </trkpt>
      <trkpt lat="42.0210900" lon="-8.8838970">
        <ele>13.3</ele>
        <time>2021-05-19T08:47:50Z</time>
      </trkpt>
      <trkpt lat="42.0211000" lon="-8.8839020">
        <ele>13.3</ele>
        <time>2021-05-19T08:47:51Z</time>
      </trkpt>
      <trkpt lat="42.0211070" lon="-8.8839090">
        <ele>13.3</ele>
        <time>2021-05-19T08:47:52Z</time>
      </trkpt>
      <trkpt lat="42.0211210" lon="-8.8839140">
        <ele>13.3</ele>
        <time>2021-05-19T08:47:53Z</time>
      </trkpt>
      <trkpt lat="42.0211330" lon="-8.8839160">
        <ele>13.3</ele>
        <time>2021-05-19T08:47:54Z</time>
      </trkpt>
      <trkpt lat="42.0211520" lon="-8.8839280">
        <ele>13.3</ele>
        <time>2021-05-19T08:47:55Z</time>
      </trkpt>
      <trkpt lat="42.0211600" lon="-8.8839340">
        <ele>13.3</ele>
        <time>2021-05-19T08:47:56Z</time>
      </trkpt>
      <trkpt lat="42.0211680" lon="-8.8839400">
        <ele>13.3</ele>
        <time>2021-05-19T08:47:57Z</time>
      </trkpt>
      <trkpt lat="42.0211810" lon="-8.8839470">
        <ele>13.3</ele>
        <time>2021-05-19T08:47:58Z</time>
      </trkpt>
      <trkpt lat="42.0211970" lon="-8.8839510">
        <ele>13.3</ele>
        <time>2021-05-19T08:47:59Z</time>
      </trkpt>
      <trkpt lat="42.0212090" lon="-8.8839570">
        <ele>13.3</ele>
        <time>2021-05-19T08:48:00Z</time>
      </trkpt>
      <trkpt lat="42.0212220" lon="-8.8839670">
        <ele>13.3</ele>
        <time>2021-05-19T08:48:01Z</time>
      </trkpt>
      <trkpt lat="42.0212360" lon="-8.8839780">
        <ele>13.3</ele>
        <time>2021-05-19T08:48:02Z</time>
      </trkpt>
      <trkpt lat="42.0212490" lon="-8.8839880">
        <ele>13.2</ele>
        <time>2021-05-19T08:48:03Z</time>
      </trkpt>
      <trkpt lat="42.0212520" lon="-8.8839880">
        <ele>13.2</ele>
        <time>2021-05-19T08:48:04Z</time>
      </trkpt>
      <trkpt lat="42.0212660" lon="-8.8839970">
        <ele>13.2</ele>
        <time>2021-05-19T08:48:05Z</time>
      </trkpt>
      <trkpt lat="42.0212850" lon="-8.8840000">
        <ele>13.2</ele>
        <time>2021-05-19T08:48:06Z</time>
      </trkpt>
      <trkpt lat="42.0212910" lon="-8.8840070">
        <ele>13.2</ele>
        <time>2021-05-19T08:48:07Z</time>
      </trkpt>
      <trkpt lat="42.0213090" lon="-8.8840110">
        <ele>13.2</ele>
        <time>2021-05-19T08:48:08Z</time>
      </trkpt>
      <trkpt lat="42.0213140" lon="-8.8840230">
        <ele>13.2</ele>
        <time>2021-05-19T08:48:09Z</time>
      </trkpt>
      <trkpt lat="42.0213380" lon="-8.8840270">
        <ele>13.2</ele>
        <time>2021-05-19T08:48:10Z</time>
      </trkpt>
      <trkpt lat="42.0213460" lon="-8.8840310">
        <ele>13.2</ele>
        <time>2021-05-19T08:48:11Z</time>
      </trkpt>
      <trkpt lat="42.0213530" lon="-8.8840340">
        <ele>13.2</ele>
        <time>2021-05-19T08:48:12Z</time>
      </trkpt>
      <trkpt lat="42.0213640" lon="-8.8840390">
        <ele>13.2</ele>
        <time>2021-05-19T08:48:13Z</time>
      </trkpt>
      <trkpt lat="42.0213750" lon="-8.8840430">
        <ele>13.2</ele>
        <time>2021-05-19T08:48:14Z</time>
      </trkpt>
      <trkpt lat="42.0213800" lon="-8.8840480">
        <ele>13.2</ele>
        <time>2021-05-19T08:48:15Z</time>
      </trkpt>
      <trkpt lat="42.0214020" lon="-8.8840520">
        <ele>13.2</ele>
        <time>2021-05-19T08:48:16Z</time>
      </trkpt>
      <trkpt lat="42.0214090" lon="-8.8840510">
        <ele>13.2</ele>
        <time>2021-05-19T08:48:17Z</time>
      </trkpt>
      <trkpt lat="42.0214290" lon="-8.8840490">
        <ele>13.2</ele>
        <time>2021-05-19T08:48:18Z</time>
      </trkpt>
      <trkpt lat="42.0214410" lon="-8.8840480">
        <ele>13.2</ele>
        <time>2021-05-19T08:48:19Z</time>
      </trkpt>
      <trkpt lat="42.0214560" lon="-8.8840420">
        <ele>13.2</ele>
        <time>2021-05-19T08:48:20Z</time>
      </trkpt>
      <trkpt lat="42.0214710" lon="-8.8840420">
        <ele>13.2</ele>
        <time>2021-05-19T08:48:21Z</time>
      </trkpt>
      <trkpt lat="42.0215040" lon="-8.8840490">
        <ele>13.2</ele>
        <time>2021-05-19T08:48:22Z</time>
      </trkpt>
      <trkpt lat="42.0215120" lon="-8.8840470">
        <ele>13.2</ele>
        <time>2021-05-19T08:48:23Z</time>
      </trkpt>
      <trkpt lat="42.0215390" lon="-8.8840420">
        <ele>13.2</ele>
        <time>2021-05-19T08:48:24Z</time>
      </trkpt>
      <trkpt lat="42.0215490" lon="-8.8840440">
        <ele>13.2</ele>
        <time>2021-05-19T08:48:25Z</time>
      </trkpt>
      <trkpt lat="42.0215670" lon="-8.8840440">
        <ele>13.2</ele>
        <time>2021-05-19T08:48:26Z</time>
      </trkpt>
      <trkpt lat="42.0215810" lon="-8.8840410">
        <ele>13.2</ele>
        <time>2021-05-19T08:48:27Z</time>
      </trkpt>
      <trkpt lat="42.0215980" lon="-8.8840390">
        <ele>13.2</ele>
        <time>2021-05-19T08:48:28Z</time>
      </trkpt>
      <trkpt lat="42.0216130" lon="-8.8840410">
        <ele>13.2</ele>
        <time>2021-05-19T08:48:29Z</time>
      </trkpt>
      <trkpt lat="42.0216290" lon="-8.8840430">
        <ele>13.1</ele>
        <time>2021-05-19T08:48:30Z</time>
      </trkpt>
      <trkpt lat="42.0216430" lon="-8.8840440">
        <ele>13.1</ele>
        <time>2021-05-19T08:48:31Z</time>
      </trkpt>
      <trkpt lat="42.0216600" lon="-8.8840440">
        <ele>13.1</ele>
        <time>2021-05-19T08:48:32Z</time>
      </trkpt>
      <trkpt lat="42.0216740" lon="-8.8840450">
        <ele>13.1</ele>
        <time>2021-05-19T08:48:33Z</time>
      </trkpt>
      <trkpt lat="42.0216890" lon="-8.8840500">
        <ele>13.1</ele>
        <time>2021-05-19T08:48:34Z</time>
      </trkpt>
      <trkpt lat="42.0217040" lon="-8.8840500">
        <ele>13.0</ele>
        <time>2021-05-19T08:48:35Z</time>
      </trkpt>
      <trkpt lat="42.0217200" lon="-8.8840480">
        <ele>13.0</ele>
        <time>2021-05-19T08:48:36Z</time>
      </trkpt>
      <trkpt lat="42.0217340" lon="-8.8840490">
        <ele>13.0</ele>
        <time>2021-05-19T08:48:37Z</time>
      </trkpt>
      <trkpt lat="42.0217490" lon="-8.8840480">
        <ele>13.0</ele>
        <time>2021-05-19T08:48:38Z</time>
      </trkpt>
      <trkpt lat="42.0217640" lon="-8.8840430">
        <ele>12.9</ele>
        <time>2021-05-19T08:48:39Z</time>
      </trkpt>
      <trkpt lat="42.0217800" lon="-8.8840420">
        <ele>12.9</ele>
        <time>2021-05-19T08:48:40Z</time>
      </trkpt>
      <trkpt lat="42.0217950" lon="-8.8840420">
        <ele>12.9</ele>
        <time>2021-05-19T08:48:41Z</time>
      </trkpt>
      <trkpt lat="42.0218110" lon="-8.8840420">
        <ele>12.9</ele>
        <time>2021-05-19T08:48:42Z</time>
      </trkpt>
      <trkpt lat="42.0218270" lon="-8.8840420">
        <ele>12.9</ele>
        <time>2021-05-19T08:48:43Z</time>
      </trkpt>
      <trkpt lat="42.0218420" lon="-8.8840430">
        <ele>12.8</ele>
        <time>2021-05-19T08:48:44Z</time>
      </trkpt>
      <trkpt lat="42.0218570" lon="-8.8840470">
        <ele>12.8</ele>
        <time>2021-05-19T08:48:45Z</time>
      </trkpt>
      <trkpt lat="42.0218730" lon="-8.8840510">
        <ele>12.8</ele>
        <time>2021-05-19T08:48:46Z</time>
      </trkpt>
      <trkpt lat="42.0218890" lon="-8.8840530">
        <ele>12.8</ele>
        <time>2021-05-19T08:48:47Z</time>
      </trkpt>
      <trkpt lat="42.0219050" lon="-8.8840500">
        <ele>12.7</ele>
        <time>2021-05-19T08:48:48Z</time>
      </trkpt>
      <trkpt lat="42.0219200" lon="-8.8840550">
        <ele>12.7</ele>
        <time>2021-05-19T08:48:49Z</time>
      </trkpt>
      <trkpt lat="42.0219340" lon="-8.8840620">
        <ele>12.7</ele>
        <time>2021-05-19T08:48:50Z</time>
      </trkpt>
      <trkpt lat="42.0219500" lon="-8.8840610">
        <ele>12.7</ele>
        <time>2021-05-19T08:48:51Z</time>
      </trkpt>
      <trkpt lat="42.0219660" lon="-8.8840660">
        <ele>12.6</ele>
        <time>2021-05-19T08:48:52Z</time>
      </trkpt>
      <trkpt lat="42.0219830" lon="-8.8840680">
        <ele>12.6</ele>
        <time>2021-05-19T08:48:53Z</time>
      </trkpt>
      <trkpt lat="42.0219960" lon="-8.8840730">
        <ele>12.6</ele>
        <time>2021-05-19T08:48:54Z</time>
      </trkpt>
      <trkpt lat="42.0220100" lon="-8.8840760">
        <ele>12.6</ele>
        <time>2021-05-19T08:48:55Z</time>
      </trkpt>
      <trkpt lat="42.0220250" lon="-8.8840780">
        <ele>12.6</ele>
        <time>2021-05-19T08:48:56Z</time>
      </trkpt>
      <trkpt lat="42.0220370" lon="-8.8840840">
        <ele>12.5</ele>
        <time>2021-05-19T08:48:57Z</time>
      </trkpt>
      <trkpt lat="42.0220520" lon="-8.8840840">
        <ele>12.5</ele>
        <time>2021-05-19T08:48:58Z</time>
      </trkpt>
      <trkpt lat="42.0220600" lon="-8.8840850">
        <ele>12.5</ele>
        <time>2021-05-19T08:48:59Z</time>
      </trkpt>
      <trkpt lat="42.0220670" lon="-8.8840870">
        <ele>12.5</ele>
        <time>2021-05-19T08:49:00Z</time>
      </trkpt>
      <trkpt lat="42.0220750" lon="-8.8840890">
        <ele>12.5</ele>
        <time>2021-05-19T08:49:01Z</time>
      </trkpt>
      <trkpt lat="42.0220850" lon="-8.8840890">
        <ele>12.5</ele>
        <time>2021-05-19T08:49:02Z</time>
      </trkpt>
      <trkpt lat="42.0220940" lon="-8.8840920">
        <ele>12.4</ele>
        <time>2021-05-19T08:49:03Z</time>
      </trkpt>
      <trkpt lat="42.0221000" lon="-8.8841000">
        <ele>12.4</ele>
        <time>2021-05-19T08:49:04Z</time>
      </trkpt>
      <trkpt lat="42.0221100" lon="-8.8840980">
        <ele>12.4</ele>
        <time>2021-05-19T08:49:05Z</time>
      </trkpt>
      <trkpt lat="42.0221210" lon="-8.8841010">
        <ele>12.4</ele>
        <time>2021-05-19T08:49:06Z</time>
      </trkpt>
      <trkpt lat="42.0221320" lon="-8.8841060">
        <ele>12.4</ele>
        <time>2021-05-19T08:49:07Z</time>
      </trkpt>
      <trkpt lat="42.0221430" lon="-8.8841110">
        <ele>12.4</ele>
        <time>2021-05-19T08:49:08Z</time>
      </trkpt>
      <trkpt lat="42.0221540" lon="-8.8841170">
        <ele>12.4</ele>
        <time>2021-05-19T08:49:09Z</time>
      </trkpt>
      <trkpt lat="42.0221620" lon="-8.8841280">
        <ele>12.3</ele>
        <time>2021-05-19T08:49:10Z</time>
      </trkpt>
      <trkpt lat="42.0221730" lon="-8.8841360">
        <ele>12.3</ele>
        <time>2021-05-19T08:49:11Z</time>
      </trkpt>
      <trkpt lat="42.0221790" lon="-8.8841430">
        <ele>12.3</ele>
        <time>2021-05-19T08:49:12Z</time>
      </trkpt>
      <trkpt lat="42.0221880" lon="-8.8841470">
        <ele>12.3</ele>
        <time>2021-05-19T08:49:13Z</time>
      </trkpt>
      <trkpt lat="42.0222010" lon="-8.8841520">
        <ele>12.3</ele>
        <time>2021-05-19T08:49:14Z</time>
      </trkpt>
      <trkpt lat="42.0222120" lon="-8.8841520">
        <ele>12.3</ele>
        <time>2021-05-19T08:49:15Z</time>
      </trkpt>
      <trkpt lat="42.0222210" lon="-8.8841570">
        <ele>12.3</ele>
        <time>2021-05-19T08:49:16Z</time>
      </trkpt>
      <trkpt lat="42.0222410" lon="-8.8841680">
        <ele>12.2</ele>
        <time>2021-05-19T08:49:17Z</time>
      </trkpt>
      <trkpt lat="42.0222500" lon="-8.8841730">
        <ele>12.2</ele>
        <time>2021-05-19T08:49:18Z</time>
      </trkpt>
      <trkpt lat="42.0222580" lon="-8.8841780">
        <ele>12.2</ele>
        <time>2021-05-19T08:49:19Z</time>
      </trkpt>
      <trkpt lat="42.0222730" lon="-8.8841880">
        <ele>12.2</ele>
        <time>2021-05-19T08:49:20Z</time>
      </trkpt>
      <trkpt lat="42.0222830" lon="-8.8841920">
        <ele>12.2</ele>
        <time>2021-05-19T08:49:21Z</time>
      </trkpt>
      <trkpt lat="42.0222980" lon="-8.8842040">
        <ele>12.2</ele>
        <time>2021-05-19T08:49:22Z</time>
      </trkpt>
      <trkpt lat="42.0223010" lon="-8.8842070">
        <ele>12.1</ele>
        <time>2021-05-19T08:49:23Z</time>
      </trkpt>
      <trkpt lat="42.0223120" lon="-8.8842150">
        <ele>12.1</ele>
        <time>2021-05-19T08:49:24Z</time>
      </trkpt>
      <trkpt lat="42.0223270" lon="-8.8842270">
        <ele>12.1</ele>
        <time>2021-05-19T08:49:25Z</time>
      </trkpt>
      <trkpt lat="42.0223400" lon="-8.8842320">
        <ele>12.1</ele>
        <time>2021-05-19T08:49:26Z</time>
      </trkpt>
      <trkpt lat="42.0223510" lon="-8.8842380">
        <ele>12.1</ele>
        <time>2021-05-19T08:49:27Z</time>
      </trkpt>
      <trkpt lat="42.0223600" lon="-8.8842400">
        <ele>12.1</ele>
        <time>2021-05-19T08:49:28Z</time>
      </trkpt>
      <trkpt lat="42.0223700" lon="-8.8842430">
        <ele>12.1</ele>
        <time>2021-05-19T08:49:29Z</time>
      </trkpt>
      <trkpt lat="42.0223780" lon="-8.8842490">
        <ele>12.0</ele>
        <time>2021-05-19T08:49:30Z</time>
      </trkpt>
      <trkpt lat="42.0223890" lon="-8.8842580">
        <ele>12.0</ele>
        <time>2021-05-19T08:49:31Z</time>
      </trkpt>
      <trkpt lat="42.0224040" lon="-8.8842630">
        <ele>12.0</ele>
        <time>2021-05-19T08:49:32Z</time>
      </trkpt>
      <trkpt lat="42.0224200" lon="-8.8842620">
        <ele>12.0</ele>
        <time>2021-05-19T08:49:33Z</time>
      </trkpt>
      <trkpt lat="42.0224310" lon="-8.8842740">
        <ele>12.0</ele>
        <time>2021-05-19T08:49:34Z</time>
      </trkpt>
      <trkpt lat="42.0224580" lon="-8.8842820">
        <ele>12.0</ele>
        <time>2021-05-19T08:49:35Z</time>
      </trkpt>
      <trkpt lat="42.0224660" lon="-8.8842860">
        <ele>11.9</ele>
        <time>2021-05-19T08:49:36Z</time>
      </trkpt>
      <trkpt lat="42.0224850" lon="-8.8842900">
        <ele>11.9</ele>
        <time>2021-05-19T08:49:37Z</time>
      </trkpt>
      <trkpt lat="42.0225010" lon="-8.8842940">
        <ele>11.9</ele>
        <time>2021-05-19T08:49:38Z</time>
      </trkpt>
      <trkpt lat="42.0225150" lon="-8.8843000">
        <ele>11.9</ele>
        <time>2021-05-19T08:49:39Z</time>
      </trkpt>
      <trkpt lat="42.0225330" lon="-8.8842980">
        <ele>11.9</ele>
        <time>2021-05-19T08:49:40Z</time>
      </trkpt>
      <trkpt lat="42.0225490" lon="-8.8842900">
        <ele>11.9</ele>
        <time>2021-05-19T08:49:41Z</time>
      </trkpt>
      <trkpt lat="42.0225650" lon="-8.8842870">
        <ele>11.9</ele>
        <time>2021-05-19T08:49:42Z</time>
      </trkpt>
      <trkpt lat="42.0225810" lon="-8.8842860">
        <ele>11.9</ele>
        <time>2021-05-19T08:49:43Z</time>
      </trkpt>
      <trkpt lat="42.0225970" lon="-8.8842850">
        <ele>11.9</ele>
        <time>2021-05-19T08:49:44Z</time>
      </trkpt>
      <trkpt lat="42.0226130" lon="-8.8842850">
        <ele>11.9</ele>
        <time>2021-05-19T08:49:45Z</time>
      </trkpt>
      <trkpt lat="42.0226300" lon="-8.8842840">
        <ele>11.9</ele>
        <time>2021-05-19T08:49:46Z</time>
      </trkpt>
      <trkpt lat="42.0226460" lon="-8.8842820">
        <ele>11.9</ele>
        <time>2021-05-19T08:49:47Z</time>
      </trkpt>
      <trkpt lat="42.0226660" lon="-8.8842880">
        <ele>12.0</ele>
        <time>2021-05-19T08:49:48Z</time>
      </trkpt>
      <trkpt lat="42.0226820" lon="-8.8842870">
        <ele>12.0</ele>
        <time>2021-05-19T08:49:49Z</time>
      </trkpt>
      <trkpt lat="42.0226980" lon="-8.8842840">
        <ele>12.0</ele>
        <time>2021-05-19T08:49:50Z</time>
      </trkpt>
      <trkpt lat="42.0227260" lon="-8.8842840">
        <ele>12.0</ele>
        <time>2021-05-19T08:49:51Z</time>
      </trkpt>
      <trkpt lat="42.0227350" lon="-8.8842850">
        <ele>12.1</ele>
        <time>2021-05-19T08:49:52Z</time>
      </trkpt>
      <trkpt lat="42.0227500" lon="-8.8842850">
        <ele>12.1</ele>
        <time>2021-05-19T08:49:53Z</time>
      </trkpt>
      <trkpt lat="42.0227680" lon="-8.8842810">
        <ele>12.1</ele>
        <time>2021-05-19T08:49:54Z</time>
      </trkpt>
      <trkpt lat="42.0227850" lon="-8.8842830">
        <ele>12.2</ele>
        <time>2021-05-19T08:49:55Z</time>
      </trkpt>
      <trkpt lat="42.0227990" lon="-8.8842880">
        <ele>12.2</ele>
        <time>2021-05-19T08:49:56Z</time>
      </trkpt>
      <trkpt lat="42.0228160" lon="-8.8842850">
        <ele>12.2</ele>
        <time>2021-05-19T08:49:57Z</time>
      </trkpt>
      <trkpt lat="42.0228300" lon="-8.8842810">
        <ele>12.2</ele>
        <time>2021-05-19T08:49:58Z</time>
      </trkpt>
      <trkpt lat="42.0228450" lon="-8.8842800">
        <ele>12.3</ele>
        <time>2021-05-19T08:49:59Z</time>
      </trkpt>
      <trkpt lat="42.0228570" lon="-8.8842740">
        <ele>12.3</ele>
        <time>2021-05-19T08:50:00Z</time>
      </trkpt>
      <trkpt lat="42.0228730" lon="-8.8842720">
        <ele>12.3</ele>
        <time>2021-05-19T08:50:01Z</time>
      </trkpt>
      <trkpt lat="42.0228870" lon="-8.8842740">
        <ele>12.4</ele>
        <time>2021-05-19T08:50:02Z</time>
      </trkpt>
      <trkpt lat="42.0229010" lon="-8.8842750">
        <ele>12.4</ele>
        <time>2021-05-19T08:50:03Z</time>
      </trkpt>
      <trkpt lat="42.0229150" lon="-8.8842760">
        <ele>12.4</ele>
        <time>2021-05-19T08:50:04Z</time>
      </trkpt>
      <trkpt lat="42.0229310" lon="-8.8842810">
        <ele>12.4</ele>
        <time>2021-05-19T08:50:05Z</time>
      </trkpt>
      <trkpt lat="42.0229440" lon="-8.8842820">
        <ele>12.5</ele>
        <time>2021-05-19T08:50:06Z</time>
      </trkpt>
      <trkpt lat="42.0229570" lon="-8.8842840">
        <ele>12.5</ele>
        <time>2021-05-19T08:50:07Z</time>
      </trkpt>
      <trkpt lat="42.0229710" lon="-8.8842780">
        <ele>12.5</ele>
        <time>2021-05-19T08:50:08Z</time>
      </trkpt>
      <trkpt lat="42.0229860" lon="-8.8842790">
        <ele>12.6</ele>
        <time>2021-05-19T08:50:09Z</time>
      </trkpt>
      <trkpt lat="42.0230010" lon="-8.8842720">
        <ele>12.6</ele>
        <time>2021-05-19T08:50:10Z</time>
      </trkpt>
      <trkpt lat="42.0230160" lon="-8.8842620">
        <ele>12.6</ele>
        <time>2021-05-19T08:50:11Z</time>
      </trkpt>
      <trkpt lat="42.0230290" lon="-8.8842530">
        <ele>12.7</ele>
        <time>2021-05-19T08:50:12Z</time>
      </trkpt>
      <trkpt lat="42.0230440" lon="-8.8842440">
        <ele>12.7</ele>
        <time>2021-05-19T08:50:13Z</time>
      </trkpt>
      <trkpt lat="42.0230530" lon="-8.8842260">
        <ele>12.8</ele>
        <time>2021-05-19T08:50:14Z</time>
      </trkpt>
      <trkpt lat="42.0230610" lon="-8.8842050">
        <ele>12.8</ele>
        <time>2021-05-19T08:50:15Z</time>
      </trkpt>
      <trkpt lat="42.0230630" lon="-8.8841880">
        <ele>12.8</ele>
        <time>2021-05-19T08:50:16Z</time>
      </trkpt>
      <trkpt lat="42.0230660" lon="-8.8841720">
        <ele>12.9</ele>
        <time>2021-05-19T08:50:17Z</time>
      </trkpt>
      <trkpt lat="42.0230780" lon="-8.8841620">
        <ele>12.9</ele>
        <time>2021-05-19T08:50:18Z</time>
      </trkpt>
      <trkpt lat="42.0230860" lon="-8.8841520">
        <ele>12.9</ele>
        <time>2021-05-19T08:50:19Z</time>
      </trkpt>
      <trkpt lat="42.0231080" lon="-8.8841470">
        <ele>13.0</ele>
        <time>2021-05-19T08:50:20Z</time>
      </trkpt>
      <trkpt lat="42.0231180" lon="-8.8841500">
        <ele>13.0</ele>
        <time>2021-05-19T08:50:21Z</time>
      </trkpt>
      <trkpt lat="42.0231280" lon="-8.8841540">
        <ele>13.1</ele>
        <time>2021-05-19T08:50:22Z</time>
      </trkpt>
      <trkpt lat="42.0231460" lon="-8.8841530">
        <ele>13.1</ele>
        <time>2021-05-19T08:50:23Z</time>
      </trkpt>
      <trkpt lat="42.0231600" lon="-8.8841550">
        <ele>13.1</ele>
        <time>2021-05-19T08:50:24Z</time>
      </trkpt>
      <trkpt lat="42.0231720" lon="-8.8841650">
        <ele>13.1</ele>
        <time>2021-05-19T08:50:25Z</time>
      </trkpt>
      <trkpt lat="42.0231850" lon="-8.8841750">
        <ele>13.1</ele>
        <time>2021-05-19T08:50:26Z</time>
      </trkpt>
      <trkpt lat="42.0232060" lon="-8.8841820">
        <ele>13.2</ele>
        <time>2021-05-19T08:50:27Z</time>
      </trkpt>
      <trkpt lat="42.0232140" lon="-8.8841880">
        <ele>13.2</ele>
        <time>2021-05-19T08:50:28Z</time>
      </trkpt>
      <trkpt lat="42.0232220" lon="-8.8841930">
        <ele>13.2</ele>
        <time>2021-05-19T08:50:29Z</time>
      </trkpt>
      <trkpt lat="42.0232320" lon="-8.8842020">
        <ele>13.2</ele>
        <time>2021-05-19T08:50:30Z</time>
      </trkpt>
      <trkpt lat="42.0232400" lon="-8.8842180">
        <ele>13.3</ele>
        <time>2021-05-19T08:50:31Z</time>
      </trkpt>
      <trkpt lat="42.0232490" lon="-8.8842220">
        <ele>13.3</ele>
        <time>2021-05-19T08:50:32Z</time>
      </trkpt>
      <trkpt lat="42.0232560" lon="-8.8842340">
        <ele>13.3</ele>
        <time>2021-05-19T08:50:33Z</time>
      </trkpt>
      <trkpt lat="42.0232620" lon="-8.8842440">
        <ele>13.3</ele>
        <time>2021-05-19T08:50:34Z</time>
      </trkpt>
      <trkpt lat="42.0232680" lon="-8.8842470">
        <ele>13.3</ele>
        <time>2021-05-19T08:50:35Z</time>
      </trkpt>
      <trkpt lat="42.0232730" lon="-8.8842440">
        <ele>13.3</ele>
        <time>2021-05-19T08:50:36Z</time>
      </trkpt>
      <trkpt lat="42.0232820" lon="-8.8842460">
        <ele>13.3</ele>
        <time>2021-05-19T08:50:37Z</time>
      </trkpt>
      <trkpt lat="42.0232900" lon="-8.8842450">
        <ele>13.3</ele>
        <time>2021-05-19T08:50:38Z</time>
      </trkpt>
      <trkpt lat="42.0233020" lon="-8.8842430">
        <ele>13.3</ele>
        <time>2021-05-19T08:50:39Z</time>
      </trkpt>
      <trkpt lat="42.0233170" lon="-8.8842370">
        <ele>13.3</ele>
        <time>2021-05-19T08:50:40Z</time>
      </trkpt>
      <trkpt lat="42.0233250" lon="-8.8842370">
        <ele>13.3</ele>
        <time>2021-05-19T08:50:41Z</time>
      </trkpt>
      <trkpt lat="42.0233320" lon="-8.8842360">
        <ele>13.4</ele>
        <time>2021-05-19T08:50:42Z</time>
      </trkpt>
      <trkpt lat="42.0233400" lon="-8.8842350">
        <ele>13.4</ele>
        <time>2021-05-19T08:50:43Z</time>
      </trkpt>
      <trkpt lat="42.0233500" lon="-8.8842300">
        <ele>13.4</ele>
        <time>2021-05-19T08:50:44Z</time>
      </trkpt>
      <trkpt lat="42.0233590" lon="-8.8842270">
        <ele>13.4</ele>
        <time>2021-05-19T08:50:45Z</time>
      </trkpt>
      <trkpt lat="42.0233650" lon="-8.8842220">
        <ele>13.4</ele>
        <time>2021-05-19T08:50:46Z</time>
      </trkpt>
      <trkpt lat="42.0233760" lon="-8.8842190">
        <ele>13.4</ele>
        <time>2021-05-19T08:50:47Z</time>
      </trkpt>
      <trkpt lat="42.0233860" lon="-8.8842210">
        <ele>13.4</ele>
        <time>2021-05-19T08:50:48Z</time>
      </trkpt>
      <trkpt lat="42.0233970" lon="-8.8842180">
        <ele>13.4</ele>
        <time>2021-05-19T08:50:49Z</time>
      </trkpt>
      <trkpt lat="42.0234090" lon="-8.8842170">
        <ele>13.4</ele>
        <time>2021-05-19T08:50:50Z</time>
      </trkpt>
      <trkpt lat="42.0234210" lon="-8.8842140">
        <ele>13.4</ele>
        <time>2021-05-19T08:50:51Z</time>
      </trkpt>
      <trkpt lat="42.0234330" lon="-8.8842080">
        <ele>13.4</ele>
        <time>2021-05-19T08:50:52Z</time>
      </trkpt>
      <trkpt lat="42.0234430" lon="-8.8842040">
        <ele>13.4</ele>
        <time>2021-05-19T08:50:53Z</time>
      </trkpt>
      <trkpt lat="42.0234540" lon="-8.8842010">
        <ele>13.4</ele>
        <time>2021-05-19T08:50:54Z</time>
      </trkpt>
      <trkpt lat="42.0234670" lon="-8.8842030">
        <ele>13.4</ele>
        <time>2021-05-19T08:50:55Z</time>
      </trkpt>
      <trkpt lat="42.0234760" lon="-8.8841960">
        <ele>13.4</ele>
        <time>2021-05-19T08:50:56Z</time>
      </trkpt>
      <trkpt lat="42.0234840" lon="-8.8841910">
        <ele>13.4</ele>
        <time>2021-05-19T08:50:57Z</time>
      </trkpt>
      <trkpt lat="42.0234960" lon="-8.8841870">
        <ele>13.4</ele>
        <time>2021-05-19T08:50:58Z</time>
      </trkpt>
      <trkpt lat="42.0235060" lon="-8.8841840">
        <ele>13.4</ele>
        <time>2021-05-19T08:50:59Z</time>
      </trkpt>
      <trkpt lat="42.0235180" lon="-8.8841800">
        <ele>13.4</ele>
        <time>2021-05-19T08:51:00Z</time>
      </trkpt>
      <trkpt lat="42.0235310" lon="-8.8841750">
        <ele>13.4</ele>
        <time>2021-05-19T08:51:01Z</time>
      </trkpt>
      <trkpt lat="42.0235460" lon="-8.8841680">
        <ele>13.4</ele>
        <time>2021-05-19T08:51:02Z</time>
      </trkpt>
      <trkpt lat="42.0235590" lon="-8.8841690">
        <ele>13.4</ele>
        <time>2021-05-19T08:51:03Z</time>
      </trkpt>
      <trkpt lat="42.0235750" lon="-8.8841650">
        <ele>13.4</ele>
        <time>2021-05-19T08:51:04Z</time>
      </trkpt>
      <trkpt lat="42.0235900" lon="-8.8841570">
        <ele>13.4</ele>
        <time>2021-05-19T08:51:05Z</time>
      </trkpt>
      <trkpt lat="42.0236100" lon="-8.8841540">
        <ele>13.4</ele>
        <time>2021-05-19T08:51:06Z</time>
      </trkpt>
      <trkpt lat="42.0236260" lon="-8.8841490">
        <ele>13.4</ele>
        <time>2021-05-19T08:51:07Z</time>
      </trkpt>
      <trkpt lat="42.0236450" lon="-8.8841450">
        <ele>13.4</ele>
        <time>2021-05-19T08:51:08Z</time>
      </trkpt>
      <trkpt lat="42.0236600" lon="-8.8841450">
        <ele>13.4</ele>
        <time>2021-05-19T08:51:09Z</time>
      </trkpt>
      <trkpt lat="42.0236780" lon="-8.8841340">
        <ele>13.3</ele>
        <time>2021-05-19T08:51:10Z</time>
      </trkpt>
      <trkpt lat="42.0236920" lon="-8.8841300">
        <ele>13.3</ele>
        <time>2021-05-19T08:51:11Z</time>
      </trkpt>
      <trkpt lat="42.0237080" lon="-8.8841280">
        <ele>13.3</ele>
        <time>2021-05-19T08:51:12Z</time>
      </trkpt>
      <trkpt lat="42.0237240" lon="-8.8841220">
        <ele>13.3</ele>
        <time>2021-05-19T08:51:13Z</time>
      </trkpt>
      <trkpt lat="42.0237390" lon="-8.8841160">
        <ele>13.3</ele>
        <time>2021-05-19T08:51:14Z</time>
      </trkpt>
      <trkpt lat="42.0237550" lon="-8.8841140">
        <ele>13.3</ele>
        <time>2021-05-19T08:51:15Z</time>
      </trkpt>
      <trkpt lat="42.0237710" lon="-8.8841090">
        <ele>13.3</ele>
        <time>2021-05-19T08:51:16Z</time>
      </trkpt>
      <trkpt lat="42.0237850" lon="-8.8841040">
        <ele>13.3</ele>
        <time>2021-05-19T08:51:17Z</time>
      </trkpt>
      <trkpt lat="42.0238020" lon="-8.8841010">
        <ele>13.3</ele>
        <time>2021-05-19T08:51:18Z</time>
      </trkpt>
      <trkpt lat="42.0238190" lon="-8.8840980">
        <ele>13.2</ele>
        <time>2021-05-19T08:51:19Z</time>
      </trkpt>
      <trkpt lat="42.0238320" lon="-8.8840980">
        <ele>13.2</ele>
        <time>2021-05-19T08:51:20Z</time>
      </trkpt>
      <trkpt lat="42.0238470" lon="-8.8840910">
        <ele>13.2</ele>
        <time>2021-05-19T08:51:21Z</time>
      </trkpt>
      <trkpt lat="42.0238620" lon="-8.8840920">
        <ele>13.2</ele>
        <time>2021-05-19T08:51:22Z</time>
      </trkpt>
      <trkpt lat="42.0238790" lon="-8.8840910">
        <ele>13.2</ele>
        <time>2021-05-19T08:51:23Z</time>
      </trkpt>
      <trkpt lat="42.0238940" lon="-8.8840900">
        <ele>13.2</ele>
        <time>2021-05-19T08:51:24Z</time>
      </trkpt>
      <trkpt lat="42.0239100" lon="-8.8840910">
        <ele>13.2</ele>
        <time>2021-05-19T08:51:25Z</time>
      </trkpt>
      <trkpt lat="42.0239260" lon="-8.8840910">
        <ele>13.2</ele>
        <time>2021-05-19T08:51:26Z</time>
      </trkpt>
      <trkpt lat="42.0239420" lon="-8.8840860">
        <ele>13.1</ele>
        <time>2021-05-19T08:51:27Z</time>
      </trkpt>
      <trkpt lat="42.0239560" lon="-8.8840850">
        <ele>13.1</ele>
        <time>2021-05-19T08:51:28Z</time>
      </trkpt>
      <trkpt lat="42.0239720" lon="-8.8840890">
        <ele>13.1</ele>
        <time>2021-05-19T08:51:29Z</time>
      </trkpt>
      <trkpt lat="42.0239850" lon="-8.8840840">
        <ele>13.1</ele>
        <time>2021-05-19T08:51:30Z</time>
      </trkpt>
      <trkpt lat="42.0239990" lon="-8.8840880">
        <ele>13.1</ele>
        <time>2021-05-19T08:51:31Z</time>
      </trkpt>
      <trkpt lat="42.0240140" lon="-8.8840890">
        <ele>13.1</ele>
        <time>2021-05-19T08:51:32Z</time>
      </trkpt>
      <trkpt lat="42.0240290" lon="-8.8840910">
        <ele>13.0</ele>
        <time>2021-05-19T08:51:33Z</time>
      </trkpt>
      <trkpt lat="42.0240430" lon="-8.8840880">
        <ele>13.0</ele>
        <time>2021-05-19T08:51:34Z</time>
      </trkpt>
      <trkpt lat="42.0240580" lon="-8.8840890">
        <ele>13.0</ele>
        <time>2021-05-19T08:51:35Z</time>
      </trkpt>
      <trkpt lat="42.0240720" lon="-8.8840830">
        <ele>13.0</ele>
        <time>2021-05-19T08:51:36Z</time>
      </trkpt>
      <trkpt lat="42.0240860" lon="-8.8840810">
        <ele>13.0</ele>
        <time>2021-05-19T08:51:37Z</time>
      </trkpt>
      <trkpt lat="42.0241070" lon="-8.8840830">
        <ele>12.9</ele>
        <time>2021-05-19T08:51:38Z</time>
      </trkpt>
      <trkpt lat="42.0241170" lon="-8.8840840">
        <ele>12.9</ele>
        <time>2021-05-19T08:51:39Z</time>
      </trkpt>
      <trkpt lat="42.0241260" lon="-8.8840840">
        <ele>12.9</ele>
        <time>2021-05-19T08:51:40Z</time>
      </trkpt>
      <trkpt lat="42.0241420" lon="-8.8840850">
        <ele>12.9</ele>
        <time>2021-05-19T08:51:41Z</time>
      </trkpt>
      <trkpt lat="42.0241560" lon="-8.8840810">
        <ele>12.9</ele>
        <time>2021-05-19T08:51:42Z</time>
      </trkpt>
      <trkpt lat="42.0241770" lon="-8.8840860">
        <ele>12.9</ele>
        <time>2021-05-19T08:51:43Z</time>
      </trkpt>
      <trkpt lat="42.0241860" lon="-8.8840840">
        <ele>12.8</ele>
        <time>2021-05-19T08:51:44Z</time>
      </trkpt>
      <trkpt lat="42.0241940" lon="-8.8840830">
        <ele>12.8</ele>
        <time>2021-05-19T08:51:45Z</time>
      </trkpt>
      <trkpt lat="42.0242080" lon="-8.8840830">
        <ele>12.8</ele>
        <time>2021-05-19T08:51:46Z</time>
      </trkpt>
      <trkpt lat="42.0242230" lon="-8.8840850">
        <ele>12.8</ele>
        <time>2021-05-19T08:51:47Z</time>
      </trkpt>
      <trkpt lat="42.0242360" lon="-8.8840840">
        <ele>12.8</ele>
        <time>2021-05-19T08:51:48Z</time>
      </trkpt>
      <trkpt lat="42.0242500" lon="-8.8840810">
        <ele>12.8</ele>
        <time>2021-05-19T08:51:49Z</time>
      </trkpt>
      <trkpt lat="42.0242640" lon="-8.8840840">
        <ele>12.8</ele>
        <time>2021-05-19T08:51:50Z</time>
      </trkpt>
      <trkpt lat="42.0242790" lon="-8.8840820">
        <ele>12.8</ele>
        <time>2021-05-19T08:51:51Z</time>
      </trkpt>
      <trkpt lat="42.0242940" lon="-8.8840840">
        <ele>12.8</ele>
        <time>2021-05-19T08:51:52Z</time>
      </trkpt>
      <trkpt lat="42.0243090" lon="-8.8840810">
        <ele>12.8</ele>
        <time>2021-05-19T08:51:53Z</time>
      </trkpt>
      <trkpt lat="42.0243240" lon="-8.8840840">
        <ele>12.8</ele>
        <time>2021-05-19T08:51:54Z</time>
      </trkpt>
      <trkpt lat="42.0243380" lon="-8.8840830">
        <ele>12.7</ele>
        <time>2021-05-19T08:51:55Z</time>
      </trkpt>
      <trkpt lat="42.0243600" lon="-8.8840860">
        <ele>12.7</ele>
        <time>2021-05-19T08:51:56Z</time>
      </trkpt>
      <trkpt lat="42.0243690" lon="-8.8840890">
        <ele>12.7</ele>
        <time>2021-05-19T08:51:57Z</time>
      </trkpt>
      <trkpt lat="42.0243770" lon="-8.8840910">
        <ele>12.7</ele>
        <time>2021-05-19T08:51:58Z</time>
      </trkpt>
      <trkpt lat="42.0243990" lon="-8.8840860">
        <ele>12.7</ele>
        <time>2021-05-19T08:51:59Z</time>
      </trkpt>
      <trkpt lat="42.0244080" lon="-8.8840820">
        <ele>12.7</ele>
        <time>2021-05-19T08:52:00Z</time>
      </trkpt>
      <trkpt lat="42.0244170" lon="-8.8840770">
        <ele>12.7</ele>
        <time>2021-05-19T08:52:01Z</time>
      </trkpt>
      <trkpt lat="42.0244380" lon="-8.8840740">
        <ele>12.7</ele>
        <time>2021-05-19T08:52:02Z</time>
      </trkpt>
      <trkpt lat="42.0244470" lon="-8.8840720">
        <ele>12.7</ele>
        <time>2021-05-19T08:52:03Z</time>
      </trkpt>
      <trkpt lat="42.0244550" lon="-8.8840690">
        <ele>12.7</ele>
        <time>2021-05-19T08:52:04Z</time>
      </trkpt>
      <trkpt lat="42.0244710" lon="-8.8840680">
        <ele>12.7</ele>
        <time>2021-05-19T08:52:05Z</time>
      </trkpt>
      <trkpt lat="42.0244850" lon="-8.8840650">
        <ele>12.8</ele>
        <time>2021-05-19T08:52:06Z</time>
      </trkpt>
      <trkpt lat="42.0244970" lon="-8.8840640">
        <ele>12.8</ele>
        <time>2021-05-19T08:52:07Z</time>
      </trkpt>
      <trkpt lat="42.0245070" lon="-8.8840640">
        <ele>12.8</ele>
        <time>2021-05-19T08:52:08Z</time>
      </trkpt>
      <trkpt lat="42.0245180" lon="-8.8840630">
        <ele>12.8</ele>
        <time>2021-05-19T08:52:09Z</time>
      </trkpt>
      <trkpt lat="42.0245380" lon="-8.8840660">
        <ele>12.8</ele>
        <time>2021-05-19T08:52:10Z</time>
      </trkpt>
      <trkpt lat="42.0245470" lon="-8.8840690">
        <ele>12.8</ele>
        <time>2021-05-19T08:52:11Z</time>
      </trkpt>
      <trkpt lat="42.0245560" lon="-8.8840710">
        <ele>12.8</ele>
        <time>2021-05-19T08:52:12Z</time>
      </trkpt>
      <trkpt lat="42.0245660" lon="-8.8840740">
        <ele>12.8</ele>
        <time>2021-05-19T08:52:13Z</time>
      </trkpt>
      <trkpt lat="42.0245770" lon="-8.8840750">
        <ele>12.8</ele>
        <time>2021-05-19T08:52:14Z</time>
      </trkpt>
      <trkpt lat="42.0245840" lon="-8.8840810">
        <ele>12.8</ele>
        <time>2021-05-19T08:52:15Z</time>
      </trkpt>
      <trkpt lat="42.0246030" lon="-8.8840870">
        <ele>12.8</ele>
        <time>2021-05-19T08:52:16Z</time>
      </trkpt>
      <trkpt lat="42.0246110" lon="-8.8840860">
        <ele>12.8</ele>
        <time>2021-05-19T08:52:17Z</time>
      </trkpt>
      <trkpt lat="42.0246190" lon="-8.8840840">
        <ele>12.8</ele>
        <time>2021-05-19T08:52:18Z</time>
      </trkpt>
      <trkpt lat="42.0246270" lon="-8.8840830">
        <ele>12.8</ele>
        <time>2021-05-19T08:52:19Z</time>
      </trkpt>
      <trkpt lat="42.0246430" lon="-8.8840870">
        <ele>12.8</ele>
        <time>2021-05-19T08:52:20Z</time>
      </trkpt>
      <trkpt lat="42.0246590" lon="-8.8840890">
        <ele>12.8</ele>
        <time>2021-05-19T08:52:21Z</time>
      </trkpt>
      <trkpt lat="42.0246810" lon="-8.8840870">
        <ele>12.9</ele>
        <time>2021-05-19T08:52:22Z</time>
      </trkpt>
      <trkpt lat="42.0246910" lon="-8.8840870">
        <ele>12.9</ele>
        <time>2021-05-19T08:52:23Z</time>
      </trkpt>
      <trkpt lat="42.0247000" lon="-8.8840880">
        <ele>12.9</ele>
        <time>2021-05-19T08:52:24Z</time>
      </trkpt>
      <trkpt lat="42.0247140" lon="-8.8840840">
        <ele>12.9</ele>
        <time>2021-05-19T08:52:25Z</time>
      </trkpt>
      <trkpt lat="42.0247290" lon="-8.8840930">
        <ele>12.9</ele>
        <time>2021-05-19T08:52:26Z</time>
      </trkpt>
      <trkpt lat="42.0247430" lon="-8.8840880">
        <ele>13.0</ele>
        <time>2021-05-19T08:52:27Z</time>
      </trkpt>
      <trkpt lat="42.0247580" lon="-8.8840870">
        <ele>13.0</ele>
        <time>2021-05-19T08:52:28Z</time>
      </trkpt>
      <trkpt lat="42.0247730" lon="-8.8840900">
        <ele>13.0</ele>
        <time>2021-05-19T08:52:29Z</time>
      </trkpt>
      <trkpt lat="42.0247870" lon="-8.8840860">
        <ele>13.0</ele>
        <time>2021-05-19T08:52:30Z</time>
      </trkpt>
      <trkpt lat="42.0248020" lon="-8.8840890">
        <ele>13.0</ele>
        <time>2021-05-19T08:52:31Z</time>
      </trkpt>
      <trkpt lat="42.0248180" lon="-8.8840860">
        <ele>13.1</ele>
        <time>2021-05-19T08:52:32Z</time>
      </trkpt>
      <trkpt lat="42.0248320" lon="-8.8840840">
        <ele>13.1</ele>
        <time>2021-05-19T08:52:33Z</time>
      </trkpt>
      <trkpt lat="42.0248480" lon="-8.8840890">
        <ele>13.1</ele>
        <time>2021-05-19T08:52:34Z</time>
      </trkpt>
      <trkpt lat="42.0248620" lon="-8.8840860">
        <ele>13.1</ele>
        <time>2021-05-19T08:52:35Z</time>
      </trkpt>
      <trkpt lat="42.0248760" lon="-8.8840850">
        <ele>13.2</ele>
        <time>2021-05-19T08:52:36Z</time>
      </trkpt>
      <trkpt lat="42.0248910" lon="-8.8840870">
        <ele>13.2</ele>
        <time>2021-05-19T08:52:37Z</time>
      </trkpt>
      <trkpt lat="42.0249060" lon="-8.8840840">
        <ele>13.2</ele>
        <time>2021-05-19T08:52:38Z</time>
      </trkpt>
      <trkpt lat="42.0249290" lon="-8.8840860">
        <ele>13.3</ele>
        <time>2021-05-19T08:52:39Z</time>
      </trkpt>
      <trkpt lat="42.0249380" lon="-8.8840870">
        <ele>13.3</ele>
        <time>2021-05-19T08:52:40Z</time>
      </trkpt>
      <trkpt lat="42.0249480" lon="-8.8840890">
        <ele>13.3</ele>
        <time>2021-05-19T08:52:41Z</time>
      </trkpt>
      <trkpt lat="42.0249700" lon="-8.8840900">
        <ele>13.3</ele>
        <time>2021-05-19T08:52:42Z</time>
      </trkpt>
      <trkpt lat="42.0249780" lon="-8.8840910">
        <ele>13.4</ele>
        <time>2021-05-19T08:52:43Z</time>
      </trkpt>
      <trkpt lat="42.0249870" lon="-8.8840930">
        <ele>13.4</ele>
        <time>2021-05-19T08:52:44Z</time>
      </trkpt>
      <trkpt lat="42.0250100" lon="-8.8840930">
        <ele>13.4</ele>
        <time>2021-05-19T08:52:45Z</time>
      </trkpt>
      <trkpt lat="42.0250180" lon="-8.8840940">
        <ele>13.4</ele>
        <time>2021-05-19T08:52:46Z</time>
      </trkpt>
      <trkpt lat="42.0250270" lon="-8.8840960">
        <ele>13.5</ele>
        <time>2021-05-19T08:52:47Z</time>
      </trkpt>
      <trkpt lat="42.0250410" lon="-8.8840980">
        <ele>13.5</ele>
        <time>2021-05-19T08:52:48Z</time>
      </trkpt>
      <trkpt lat="42.0250540" lon="-8.8841030">
        <ele>13.5</ele>
        <time>2021-05-19T08:52:49Z</time>
      </trkpt>
      <trkpt lat="42.0250750" lon="-8.8841080">
        <ele>13.6</ele>
        <time>2021-05-19T08:52:50Z</time>
      </trkpt>
      <trkpt lat="42.0250840" lon="-8.8841110">
        <ele>13.6</ele>
        <time>2021-05-19T08:52:51Z</time>
      </trkpt>
      <trkpt lat="42.0250930" lon="-8.8841130">
        <ele>13.6</ele>
        <time>2021-05-19T08:52:52Z</time>
      </trkpt>
      <trkpt lat="42.0251040" lon="-8.8841170">
        <ele>13.6</ele>
        <time>2021-05-19T08:52:53Z</time>
      </trkpt>
      <trkpt lat="42.0251160" lon="-8.8841180">
        <ele>13.6</ele>
        <time>2021-05-19T08:52:54Z</time>
      </trkpt>
      <trkpt lat="42.0251290" lon="-8.8841230">
        <ele>13.7</ele>
        <time>2021-05-19T08:52:55Z</time>
      </trkpt>
      <trkpt lat="42.0251490" lon="-8.8841260">
        <ele>13.7</ele>
        <time>2021-05-19T08:52:56Z</time>
      </trkpt>
      <trkpt lat="42.0251560" lon="-8.8841320">
        <ele>13.7</ele>
        <time>2021-05-19T08:52:57Z</time>
      </trkpt>
      <trkpt lat="42.0251640" lon="-8.8841370">
        <ele>13.7</ele>
        <time>2021-05-19T08:52:58Z</time>
      </trkpt>
      <trkpt lat="42.0251740" lon="-8.8841400">
        <ele>13.8</ele>
        <time>2021-05-19T08:52:59Z</time>
      </trkpt>
      <trkpt lat="42.0251870" lon="-8.8841450">
        <ele>13.8</ele>
        <time>2021-05-19T08:53:00Z</time>
      </trkpt>
      <trkpt lat="42.0251980" lon="-8.8841520">
        <ele>13.8</ele>
        <time>2021-05-19T08:53:01Z</time>
      </trkpt>
      <trkpt lat="42.0252170" lon="-8.8841600">
        <ele>13.9</ele>
        <time>2021-05-19T08:53:02Z</time>
      </trkpt>
      <trkpt lat="42.0252250" lon="-8.8841640">
        <ele>13.9</ele>
        <time>2021-05-19T08:53:03Z</time>
      </trkpt>
      <trkpt lat="42.0252330" lon="-8.8841680">
        <ele>13.9</ele>
        <time>2021-05-19T08:53:04Z</time>
      </trkpt>
      <trkpt lat="42.0252450" lon="-8.8841730">
        <ele>13.9</ele>
        <time>2021-05-19T08:53:05Z</time>
      </trkpt>
      <trkpt lat="42.0252560" lon="-8.8841820">
        <ele>13.9</ele>
        <time>2021-05-19T08:53:06Z</time>
      </trkpt>
      <trkpt lat="42.0252660" lon="-8.8841890">
        <ele>14.0</ele>
        <time>2021-05-19T08:53:07Z</time>
      </trkpt>
      <trkpt lat="42.0252790" lon="-8.8841990">
        <ele>14.0</ele>
        <time>2021-05-19T08:53:08Z</time>
      </trkpt>
      <trkpt lat="42.0252940" lon="-8.8842040">
        <ele>14.0</ele>
        <time>2021-05-19T08:53:09Z</time>
      </trkpt>
      <trkpt lat="42.0253070" lon="-8.8842100">
        <ele>14.0</ele>
        <time>2021-05-19T08:53:10Z</time>
      </trkpt>
      <trkpt lat="42.0253210" lon="-8.8842110">
        <ele>14.1</ele>
        <time>2021-05-19T08:53:11Z</time>
      </trkpt>
      <trkpt lat="42.0253350" lon="-8.8842120">
        <ele>14.1</ele>
        <time>2021-05-19T08:53:12Z</time>
      </trkpt>
      <trkpt lat="42.0253470" lon="-8.8842270">
        <ele>14.2</ele>
        <time>2021-05-19T08:53:13Z</time>
      </trkpt>
      <trkpt lat="42.0253690" lon="-8.8842350">
        <ele>14.2</ele>
        <time>2021-05-19T08:53:14Z</time>
      </trkpt>
      <trkpt lat="42.0253770" lon="-8.8842360">
        <ele>14.2</ele>
        <time>2021-05-19T08:53:15Z</time>
      </trkpt>
      <trkpt lat="42.0253850" lon="-8.8842380">
        <ele>14.3</ele>
        <time>2021-05-19T08:53:16Z</time>
      </trkpt>
      <trkpt lat="42.0254060" lon="-8.8842450">
        <ele>14.3</ele>
        <time>2021-05-19T08:53:17Z</time>
      </trkpt>
      <trkpt lat="42.0254140" lon="-8.8842470">
        <ele>14.3</ele>
        <time>2021-05-19T08:53:18Z</time>
      </trkpt>
      <trkpt lat="42.0254220" lon="-8.8842500">
        <ele>14.3</ele>
        <time>2021-05-19T08:53:19Z</time>
      </trkpt>
      <trkpt lat="42.0254430" lon="-8.8842590">
        <ele>14.4</ele>
        <time>2021-05-19T08:53:20Z</time>
      </trkpt>
      <trkpt lat="42.0254510" lon="-8.8842600">
        <ele>14.4</ele>
        <time>2021-05-19T08:53:21Z</time>
      </trkpt>
      <trkpt lat="42.0254600" lon="-8.8842620">
        <ele>14.4</ele>
        <time>2021-05-19T08:53:22Z</time>
      </trkpt>
      <trkpt lat="42.0254810" lon="-8.8842710">
        <ele>14.5</ele>
        <time>2021-05-19T08:53:23Z</time>
      </trkpt>
      <trkpt lat="42.0254900" lon="-8.8842740">
        <ele>14.5</ele>
        <time>2021-05-19T08:53:24Z</time>
      </trkpt>
      <trkpt lat="42.0254980" lon="-8.8842780">
        <ele>14.5</ele>
        <time>2021-05-19T08:53:25Z</time>
      </trkpt>
      <trkpt lat="42.0255060" lon="-8.8842860">
        <ele>14.5</ele>
        <time>2021-05-19T08:53:26Z</time>
      </trkpt>
      <trkpt lat="42.0255170" lon="-8.8842910">
        <ele>14.6</ele>
        <time>2021-05-19T08:53:27Z</time>
      </trkpt>
      <trkpt lat="42.0255270" lon="-8.8843000">
        <ele>14.6</ele>
        <time>2021-05-19T08:53:28Z</time>
      </trkpt>
      <trkpt lat="42.0255360" lon="-8.8843080">
        <ele>14.6</ele>
        <time>2021-05-19T08:53:29Z</time>
      </trkpt>
      <trkpt lat="42.0255480" lon="-8.8843130">
        <ele>14.7</ele>
        <time>2021-05-19T08:53:30Z</time>
      </trkpt>
      <trkpt lat="42.0255610" lon="-8.8843140">
        <ele>14.9</ele>
        <time>2021-05-19T08:53:31Z</time>
      </trkpt>
      <trkpt lat="42.0255820" lon="-8.8843150">
        <ele>15.0</ele>
        <time>2021-05-19T08:53:32Z</time>
      </trkpt>
      <trkpt lat="42.0255900" lon="-8.8843190">
        <ele>15.0</ele>
        <time>2021-05-19T08:53:33Z</time>
      </trkpt>
      <trkpt lat="42.0255970" lon="-8.8843230">
        <ele>15.0</ele>
        <time>2021-05-19T08:53:34Z</time>
      </trkpt>
      <trkpt lat="42.0256070" lon="-8.8843310">
        <ele>15.1</ele>
        <time>2021-05-19T08:53:35Z</time>
      </trkpt>
      <trkpt lat="42.0256180" lon="-8.8843380">
        <ele>15.1</ele>
        <time>2021-05-19T08:53:36Z</time>
      </trkpt>
      <trkpt lat="42.0256210" lon="-8.8843370">
        <ele>15.1</ele>
        <time>2021-05-19T08:53:37Z</time>
      </trkpt>
      <trkpt lat="42.0256320" lon="-8.8843360">
        <ele>15.2</ele>
        <time>2021-05-19T08:53:38Z</time>
      </trkpt>
      <trkpt lat="42.0256440" lon="-8.8843350">
        <ele>15.2</ele>
        <time>2021-05-19T08:53:39Z</time>
      </trkpt>
      <trkpt lat="42.0256510" lon="-8.8843320">
        <ele>15.2</ele>
        <time>2021-05-19T08:53:40Z</time>
      </trkpt>
      <trkpt lat="42.0256580" lon="-8.8843300">
        <ele>15.2</ele>
        <time>2021-05-19T08:53:41Z</time>
      </trkpt>
      <trkpt lat="42.0256640" lon="-8.8843270">
        <ele>15.3</ele>
        <time>2021-05-19T08:53:42Z</time>
      </trkpt>
      <trkpt lat="42.0256710" lon="-8.8843290">
        <ele>15.3</ele>
        <time>2021-05-19T08:53:43Z</time>
      </trkpt>
      <trkpt lat="42.0256720" lon="-8.8843320">
        <ele>15.3</ele>
        <time>2021-05-19T08:53:44Z</time>
      </trkpt>
      <trkpt lat="42.0256720" lon="-8.8843420">
        <ele>15.3</ele>
        <time>2021-05-19T08:53:45Z</time>
      </trkpt>
      <trkpt lat="42.0256790" lon="-8.8843540">
        <ele>15.3</ele>
        <time>2021-05-19T08:53:46Z</time>
      </trkpt>
      <trkpt lat="42.0256860" lon="-8.8843630">
        <ele>15.3</ele>
        <time>2021-05-19T08:53:47Z</time>
      </trkpt>
      <trkpt lat="42.0257030" lon="-8.8843780">
        <ele>15.4</ele>
        <time>2021-05-19T08:53:48Z</time>
      </trkpt>
      <trkpt lat="42.0257080" lon="-8.8843840">
        <ele>15.4</ele>
        <time>2021-05-19T08:53:49Z</time>
      </trkpt>
      <trkpt lat="42.0257120" lon="-8.8843900">
        <ele>15.4</ele>
        <time>2021-05-19T08:53:50Z</time>
      </trkpt>
      <trkpt lat="42.0257160" lon="-8.8843960">
        <ele>15.4</ele>
        <time>2021-05-19T08:53:51Z</time>
      </trkpt>
      <trkpt lat="42.0257280" lon="-8.8844130">
        <ele>15.4</ele>
        <time>2021-05-19T08:53:52Z</time>
      </trkpt>
      <trkpt lat="42.0257330" lon="-8.8844200">
        <ele>15.4</ele>
        <time>2021-05-19T08:53:53Z</time>
      </trkpt>
      <trkpt lat="42.0257370" lon="-8.8844260">
        <ele>15.4</ele>
        <time>2021-05-19T08:53:54Z</time>
      </trkpt>
      <trkpt lat="42.0257420" lon="-8.8844330">
        <ele>15.4</ele>
        <time>2021-05-19T08:53:55Z</time>
      </trkpt>
      <trkpt lat="42.0257410" lon="-8.8844350">
        <ele>15.4</ele>
        <time>2021-05-19T08:53:56Z</time>
      </trkpt>
      <trkpt lat="42.0257510" lon="-8.8844470">
        <ele>15.4</ele>
        <time>2021-05-19T08:53:57Z</time>
      </trkpt>
      <trkpt lat="42.0257610" lon="-8.8844630">
        <ele>15.5</ele>
        <time>2021-05-19T08:53:58Z</time>
      </trkpt>
      <trkpt lat="42.0257620" lon="-8.8844740">
        <ele>15.5</ele>
        <time>2021-05-19T08:53:59Z</time>
      </trkpt>
      <trkpt lat="42.0257710" lon="-8.8844820">
        <ele>15.5</ele>
        <time>2021-05-19T08:54:00Z</time>
      </trkpt>
      <trkpt lat="42.0257810" lon="-8.8844970">
        <ele>15.5</ele>
        <time>2021-05-19T08:54:01Z</time>
      </trkpt>
      <trkpt lat="42.0257870" lon="-8.8845120">
        <ele>15.5</ele>
        <time>2021-05-19T08:54:02Z</time>
      </trkpt>
      <trkpt lat="42.0258030" lon="-8.8845210">
        <ele>15.5</ele>
        <time>2021-05-19T08:54:03Z</time>
      </trkpt>
      <trkpt lat="42.0258140" lon="-8.8845310">
        <ele>15.6</ele>
        <time>2021-05-19T08:54:04Z</time>
      </trkpt>
      <trkpt lat="42.0258270" lon="-8.8845410">
        <ele>15.6</ele>
        <time>2021-05-19T08:54:05Z</time>
      </trkpt>
      <trkpt lat="42.0258550" lon="-8.8845580">
        <ele>15.6</ele>
        <time>2021-05-19T08:54:06Z</time>
      </trkpt>
      <trkpt lat="42.0258620" lon="-8.8845600">
        <ele>15.6</ele>
        <time>2021-05-19T08:54:07Z</time>
      </trkpt>
      <trkpt lat="42.0258810" lon="-8.8845690">
        <ele>15.7</ele>
        <time>2021-05-19T08:54:08Z</time>
      </trkpt>
      <trkpt lat="42.0258960" lon="-8.8845780">
        <ele>15.7</ele>
        <time>2021-05-19T08:54:09Z</time>
      </trkpt>
      <trkpt lat="42.0259060" lon="-8.8845930">
        <ele>15.7</ele>
        <time>2021-05-19T08:54:10Z</time>
      </trkpt>
      <trkpt lat="42.0259170" lon="-8.8846070">
        <ele>15.7</ele>
        <time>2021-05-19T08:54:11Z</time>
      </trkpt>
      <trkpt lat="42.0259330" lon="-8.8846290">
        <ele>15.7</ele>
        <time>2021-05-19T08:54:12Z</time>
      </trkpt>
      <trkpt lat="42.0259410" lon="-8.8846360">
        <ele>15.7</ele>
        <time>2021-05-19T08:54:13Z</time>
      </trkpt>
      <trkpt lat="42.0259480" lon="-8.8846420">
        <ele>15.7</ele>
        <time>2021-05-19T08:54:14Z</time>
      </trkpt>
      <trkpt lat="42.0259600" lon="-8.8846550">
        <ele>15.7</ele>
        <time>2021-05-19T08:54:15Z</time>
      </trkpt>
      <trkpt lat="42.0259730" lon="-8.8846620">
        <ele>15.8</ele>
        <time>2021-05-19T08:54:16Z</time>
      </trkpt>
      <trkpt lat="42.0259860" lon="-8.8846730">
        <ele>15.8</ele>
        <time>2021-05-19T08:54:17Z</time>
      </trkpt>
      <trkpt lat="42.0259980" lon="-8.8846820">
        <ele>15.8</ele>
        <time>2021-05-19T08:54:18Z</time>
      </trkpt>
      <trkpt lat="42.0260120" lon="-8.8846890">
        <ele>15.8</ele>
        <time>2021-05-19T08:54:19Z</time>
      </trkpt>
      <trkpt lat="42.0260230" lon="-8.8847010">
        <ele>15.8</ele>
        <time>2021-05-19T08:54:20Z</time>
      </trkpt>
      <trkpt lat="42.0260440" lon="-8.8847160">
        <ele>15.8</ele>
        <time>2021-05-19T08:54:21Z</time>
      </trkpt>
      <trkpt lat="42.0260520" lon="-8.8847210">
        <ele>15.8</ele>
        <time>2021-05-19T08:54:22Z</time>
      </trkpt>
      <trkpt lat="42.0260610" lon="-8.8847250">
        <ele>15.8</ele>
        <time>2021-05-19T08:54:23Z</time>
      </trkpt>
      <trkpt lat="42.0260810" lon="-8.8847390">
        <ele>15.9</ele>
        <time>2021-05-19T08:54:24Z</time>
      </trkpt>
      <trkpt lat="42.0260900" lon="-8.8847460">
        <ele>15.9</ele>
        <time>2021-05-19T08:54:25Z</time>
      </trkpt>
      <trkpt lat="42.0260980" lon="-8.8847520">
        <ele>15.9</ele>
        <time>2021-05-19T08:54:26Z</time>
      </trkpt>
      <trkpt lat="42.0261110" lon="-8.8847580">
        <ele>15.9</ele>
        <time>2021-05-19T08:54:27Z</time>
      </trkpt>
      <trkpt lat="42.0261260" lon="-8.8847670">
        <ele>15.9</ele>
        <time>2021-05-19T08:54:28Z</time>
      </trkpt>
      <trkpt lat="42.0261400" lon="-8.8847720">
        <ele>15.9</ele>
        <time>2021-05-19T08:54:29Z</time>
      </trkpt>
      <trkpt lat="42.0261530" lon="-8.8847760">
        <ele>16.0</ele>
        <time>2021-05-19T08:54:30Z</time>
      </trkpt>
      <trkpt lat="42.0261680" lon="-8.8847840">
        <ele>16.0</ele>
        <time>2021-05-19T08:54:31Z</time>
      </trkpt>
      <trkpt lat="42.0261800" lon="-8.8847910">
        <ele>16.0</ele>
        <time>2021-05-19T08:54:32Z</time>
      </trkpt>
      <trkpt lat="42.0261930" lon="-8.8848030">
        <ele>16.0</ele>
        <time>2021-05-19T08:54:33Z</time>
      </trkpt>
      <trkpt lat="42.0262050" lon="-8.8848100">
        <ele>16.1</ele>
        <time>2021-05-19T08:54:34Z</time>
      </trkpt>
      <trkpt lat="42.0262210" lon="-8.8848090">
        <ele>16.1</ele>
        <time>2021-05-19T08:54:35Z</time>
      </trkpt>
      <trkpt lat="42.0262390" lon="-8.8848090">
        <ele>16.1</ele>
        <time>2021-05-19T08:54:36Z</time>
      </trkpt>
      <trkpt lat="42.0262520" lon="-8.8848130">
        <ele>16.1</ele>
        <time>2021-05-19T08:54:37Z</time>
      </trkpt>
      <trkpt lat="42.0262650" lon="-8.8848180">
        <ele>16.2</ele>
        <time>2021-05-19T08:54:38Z</time>
      </trkpt>
      <trkpt lat="42.0262780" lon="-8.8848290">
        <ele>16.2</ele>
        <time>2021-05-19T08:54:39Z</time>
      </trkpt>
      <trkpt lat="42.0262910" lon="-8.8848320">
        <ele>16.2</ele>
        <time>2021-05-19T08:54:40Z</time>
      </trkpt>
      <trkpt lat="42.0263040" lon="-8.8848400">
        <ele>16.3</ele>
        <time>2021-05-19T08:54:41Z</time>
      </trkpt>
      <trkpt lat="42.0263190" lon="-8.8848400">
        <ele>16.3</ele>
        <time>2021-05-19T08:54:42Z</time>
      </trkpt>
      <trkpt lat="42.0263420" lon="-8.8848430">
        <ele>16.3</ele>
        <time>2021-05-19T08:54:43Z</time>
      </trkpt>
      <trkpt lat="42.0263500" lon="-8.8848460">
        <ele>16.3</ele>
        <time>2021-05-19T08:54:44Z</time>
      </trkpt>
      <trkpt lat="42.0263580" lon="-8.8848480">
        <ele>16.4</ele>
        <time>2021-05-19T08:54:45Z</time>
      </trkpt>
      <trkpt lat="42.0263710" lon="-8.8848510">
        <ele>16.4</ele>
        <time>2021-05-19T08:54:46Z</time>
      </trkpt>
      <trkpt lat="42.0263850" lon="-8.8848560">
        <ele>16.4</ele>
        <time>2021-05-19T08:54:47Z</time>
      </trkpt>
      <trkpt lat="42.0264010" lon="-8.8848570">
        <ele>16.4</ele>
        <time>2021-05-19T08:54:48Z</time>
      </trkpt>
      <trkpt lat="42.0264150" lon="-8.8848590">
        <ele>16.4</ele>
        <time>2021-05-19T08:54:49Z</time>
      </trkpt>
      <trkpt lat="42.0264290" lon="-8.8848590">
        <ele>16.5</ele>
        <time>2021-05-19T08:54:50Z</time>
      </trkpt>
      <trkpt lat="42.0264440" lon="-8.8848610">
        <ele>16.5</ele>
        <time>2021-05-19T08:54:51Z</time>
      </trkpt>
      <trkpt lat="42.0264580" lon="-8.8848670">
        <ele>16.5</ele>
        <time>2021-05-19T08:54:52Z</time>
      </trkpt>
      <trkpt lat="42.0264720" lon="-8.8848700">
        <ele>16.5</ele>
        <time>2021-05-19T08:54:53Z</time>
      </trkpt>
      <trkpt lat="42.0264860" lon="-8.8848740">
        <ele>16.5</ele>
        <time>2021-05-19T08:54:54Z</time>
      </trkpt>
      <trkpt lat="42.0264990" lon="-8.8848770">
        <ele>16.6</ele>
        <time>2021-05-19T08:54:55Z</time>
      </trkpt>
      <trkpt lat="42.0265220" lon="-8.8848820">
        <ele>16.6</ele>
        <time>2021-05-19T08:54:56Z</time>
      </trkpt>
      <trkpt lat="42.0265310" lon="-8.8848840">
        <ele>16.6</ele>
        <time>2021-05-19T08:54:57Z</time>
      </trkpt>
      <trkpt lat="42.0265400" lon="-8.8848860">
        <ele>16.6</ele>
        <time>2021-05-19T08:54:58Z</time>
      </trkpt>
      <trkpt lat="42.0265550" lon="-8.8848850">
        <ele>16.6</ele>
        <time>2021-05-19T08:54:59Z</time>
      </trkpt>
      <trkpt lat="42.0265690" lon="-8.8848830">
        <ele>16.6</ele>
        <time>2021-05-19T08:55:00Z</time>
      </trkpt>
      <trkpt lat="42.0265840" lon="-8.8848780">
        <ele>16.7</ele>
        <time>2021-05-19T08:55:01Z</time>
      </trkpt>
      <trkpt lat="42.0265990" lon="-8.8848770">
        <ele>16.7</ele>
        <time>2021-05-19T08:55:02Z</time>
      </trkpt>
      <trkpt lat="42.0266150" lon="-8.8848810">
        <ele>16.7</ele>
        <time>2021-05-19T08:55:03Z</time>
      </trkpt>
      <trkpt lat="42.0266290" lon="-8.8848800">
        <ele>16.7</ele>
        <time>2021-05-19T08:55:04Z</time>
      </trkpt>
      <trkpt lat="42.0266430" lon="-8.8848760">
        <ele>16.7</ele>
        <time>2021-05-19T08:55:05Z</time>
      </trkpt>
      <trkpt lat="42.0266570" lon="-8.8848740">
        <ele>16.8</ele>
        <time>2021-05-19T08:55:06Z</time>
      </trkpt>
      <trkpt lat="42.0266800" lon="-8.8848750">
        <ele>16.8</ele>
        <time>2021-05-19T08:55:07Z</time>
      </trkpt>
      <trkpt lat="42.0266880" lon="-8.8848720">
        <ele>16.8</ele>
        <time>2021-05-19T08:55:08Z</time>
      </trkpt>
      <trkpt lat="42.0266970" lon="-8.8848690">
        <ele>16.8</ele>
        <time>2021-05-19T08:55:09Z</time>
      </trkpt>
      <trkpt lat="42.0267110" lon="-8.8848650">
        <ele>16.8</ele>
        <time>2021-05-19T08:55:10Z</time>
      </trkpt>
      <trkpt lat="42.0267260" lon="-8.8848650">
        <ele>16.8</ele>
        <time>2021-05-19T08:55:11Z</time>
      </trkpt>
      <trkpt lat="42.0267420" lon="-8.8848670">
        <ele>16.8</ele>
        <time>2021-05-19T08:55:12Z</time>
      </trkpt>
      <trkpt lat="42.0267560" lon="-8.8848650">
        <ele>16.9</ele>
        <time>2021-05-19T08:55:13Z</time>
      </trkpt>
      <trkpt lat="42.0267690" lon="-8.8848620">
        <ele>16.9</ele>
        <time>2021-05-19T08:55:14Z</time>
      </trkpt>
      <trkpt lat="42.0267840" lon="-8.8848550">
        <ele>16.9</ele>
        <time>2021-05-19T08:55:15Z</time>
      </trkpt>
      <trkpt lat="42.0267980" lon="-8.8848520">
        <ele>16.9</ele>
        <time>2021-05-19T08:55:16Z</time>
      </trkpt>
      <trkpt lat="42.0268120" lon="-8.8848470">
        <ele>16.9</ele>
        <time>2021-05-19T08:55:17Z</time>
      </trkpt>
      <trkpt lat="42.0268250" lon="-8.8848460">
        <ele>16.9</ele>
        <time>2021-05-19T08:55:18Z</time>
      </trkpt>
      <trkpt lat="42.0268390" lon="-8.8848420">
        <ele>16.9</ele>
        <time>2021-05-19T08:55:19Z</time>
      </trkpt>
      <trkpt lat="42.0268520" lon="-8.8848320">
        <ele>16.9</ele>
        <time>2021-05-19T08:55:20Z</time>
      </trkpt>
      <trkpt lat="42.0268680" lon="-8.8848330">
        <ele>16.9</ele>
        <time>2021-05-19T08:55:21Z</time>
      </trkpt>
      <trkpt lat="42.0268820" lon="-8.8848300">
        <ele>16.9</ele>
        <time>2021-05-19T08:55:22Z</time>
      </trkpt>
      <trkpt lat="42.0268970" lon="-8.8848220">
        <ele>16.9</ele>
        <time>2021-05-19T08:55:23Z</time>
      </trkpt>
      <trkpt lat="42.0269130" lon="-8.8848200">
        <ele>16.9</ele>
        <time>2021-05-19T08:55:24Z</time>
      </trkpt>
      <trkpt lat="42.0269270" lon="-8.8848190">
        <ele>16.9</ele>
        <time>2021-05-19T08:55:25Z</time>
      </trkpt>
      <trkpt lat="42.0269500" lon="-8.8848150">
        <ele>16.9</ele>
        <time>2021-05-19T08:55:26Z</time>
      </trkpt>
      <trkpt lat="42.0269580" lon="-8.8848110">
        <ele>16.9</ele>
        <time>2021-05-19T08:55:27Z</time>
      </trkpt>
      <trkpt lat="42.0269670" lon="-8.8848060">
        <ele>16.9</ele>
        <time>2021-05-19T08:55:28Z</time>
      </trkpt>
      <trkpt lat="42.0269860" lon="-8.8847970">
        <ele>16.9</ele>
        <time>2021-05-19T08:55:29Z</time>
      </trkpt>
      <trkpt lat="42.0269940" lon="-8.8847940">
        <ele>16.9</ele>
        <time>2021-05-19T08:55:30Z</time>
      </trkpt>
      <trkpt lat="42.0270020" lon="-8.8847900">
        <ele>16.9</ele>
        <time>2021-05-19T08:55:31Z</time>
      </trkpt>
      <trkpt lat="42.0270140" lon="-8.8847840">
        <ele>16.9</ele>
        <time>2021-05-19T08:55:32Z</time>
      </trkpt>
      <trkpt lat="42.0270270" lon="-8.8847760">
        <ele>16.9</ele>
        <time>2021-05-19T08:55:33Z</time>
      </trkpt>
      <trkpt lat="42.0270400" lon="-8.8847670">
        <ele>16.9</ele>
        <time>2021-05-19T08:55:34Z</time>
      </trkpt>
      <trkpt lat="42.0270550" lon="-8.8847690">
        <ele>16.9</ele>
        <time>2021-05-19T08:55:35Z</time>
      </trkpt>
      <trkpt lat="42.0270770" lon="-8.8847590">
        <ele>16.8</ele>
        <time>2021-05-19T08:55:36Z</time>
      </trkpt>
      <trkpt lat="42.0270850" lon="-8.8847540">
        <ele>16.8</ele>
        <time>2021-05-19T08:55:37Z</time>
      </trkpt>
      <trkpt lat="42.0270940" lon="-8.8847490">
        <ele>16.8</ele>
        <time>2021-05-19T08:55:38Z</time>
      </trkpt>
      <trkpt lat="42.0271160" lon="-8.8847420">
        <ele>16.8</ele>
        <time>2021-05-19T08:55:39Z</time>
      </trkpt>
      <trkpt lat="42.0271240" lon="-8.8847410">
        <ele>16.8</ele>
        <time>2021-05-19T08:55:40Z</time>
      </trkpt>
      <trkpt lat="42.0271330" lon="-8.8847400">
        <ele>16.8</ele>
        <time>2021-05-19T08:55:41Z</time>
      </trkpt>
      <trkpt lat="42.0271460" lon="-8.8847340">
        <ele>16.8</ele>
        <time>2021-05-19T08:55:42Z</time>
      </trkpt>
      <trkpt lat="42.0271590" lon="-8.8847330">
        <ele>16.8</ele>
        <time>2021-05-19T08:55:43Z</time>
      </trkpt>
      <trkpt lat="42.0271700" lon="-8.8847200">
        <ele>16.7</ele>
        <time>2021-05-19T08:55:44Z</time>
      </trkpt>
      <trkpt lat="42.0271830" lon="-8.8847100">
        <ele>16.7</ele>
        <time>2021-05-19T08:55:45Z</time>
      </trkpt>
      <trkpt lat="42.0271970" lon="-8.8847090">
        <ele>16.7</ele>
        <time>2021-05-19T08:55:46Z</time>
      </trkpt>
      <trkpt lat="42.0272100" lon="-8.8847040">
        <ele>16.7</ele>
        <time>2021-05-19T08:55:47Z</time>
      </trkpt>
      <trkpt lat="42.0272230" lon="-8.8846920">
        <ele>16.7</ele>
        <time>2021-05-19T08:55:48Z</time>
      </trkpt>
      <trkpt lat="42.0272350" lon="-8.8846860">
        <ele>16.6</ele>
        <time>2021-05-19T08:55:49Z</time>
      </trkpt>
      <trkpt lat="42.0272560" lon="-8.8846780">
        <ele>16.6</ele>
        <time>2021-05-19T08:55:50Z</time>
      </trkpt>
      <trkpt lat="42.0272640" lon="-8.8846730">
        <ele>16.6</ele>
        <time>2021-05-19T08:55:51Z</time>
      </trkpt>
      <trkpt lat="42.0272720" lon="-8.8846680">
        <ele>16.6</ele>
        <time>2021-05-19T08:55:52Z</time>
      </trkpt>
      <trkpt lat="42.0272850" lon="-8.8846590">
        <ele>16.6</ele>
        <time>2021-05-19T08:55:53Z</time>
      </trkpt>
      <trkpt lat="42.0273010" lon="-8.8846580">
        <ele>16.6</ele>
        <time>2021-05-19T08:55:54Z</time>
      </trkpt>
      <trkpt lat="42.0273130" lon="-8.8846500">
        <ele>16.5</ele>
        <time>2021-05-19T08:55:55Z</time>
      </trkpt>
      <trkpt lat="42.0273250" lon="-8.8846420">
        <ele>16.5</ele>
        <time>2021-05-19T08:55:56Z</time>
      </trkpt>
      <trkpt lat="42.0273470" lon="-8.8846340">
        <ele>16.5</ele>
        <time>2021-05-19T08:55:57Z</time>
      </trkpt>
      <trkpt lat="42.0273560" lon="-8.8846320">
        <ele>16.5</ele>
        <time>2021-05-19T08:55:58Z</time>
      </trkpt>
      <trkpt lat="42.0273650" lon="-8.8846300">
        <ele>16.5</ele>
        <time>2021-05-19T08:55:59Z</time>
      </trkpt>
      <trkpt lat="42.0273770" lon="-8.8846200">
        <ele>16.5</ele>
        <time>2021-05-19T08:56:00Z</time>
      </trkpt>
      <trkpt lat="42.0273920" lon="-8.8846240">
        <ele>16.4</ele>
        <time>2021-05-19T08:56:01Z</time>
      </trkpt>
      <trkpt lat="42.0274060" lon="-8.8846150">
        <ele>16.4</ele>
        <time>2021-05-19T08:56:02Z</time>
      </trkpt>
      <trkpt lat="42.0274190" lon="-8.8846060">
        <ele>16.4</ele>
        <time>2021-05-19T08:56:03Z</time>
      </trkpt>
      <trkpt lat="42.0274330" lon="-8.8846010">
        <ele>16.4</ele>
        <time>2021-05-19T08:56:04Z</time>
      </trkpt>
      <trkpt lat="42.0274460" lon="-8.8845930">
        <ele>16.4</ele>
        <time>2021-05-19T08:56:05Z</time>
      </trkpt>
      <trkpt lat="42.0274660" lon="-8.8845830">
        <ele>16.3</ele>
        <time>2021-05-19T08:56:06Z</time>
      </trkpt>
      <trkpt lat="42.0274750" lon="-8.8845800">
        <ele>16.3</ele>
        <time>2021-05-19T08:56:07Z</time>
      </trkpt>
      <trkpt lat="42.0274840" lon="-8.8845760">
        <ele>16.3</ele>
        <time>2021-05-19T08:56:08Z</time>
      </trkpt>
      <trkpt lat="42.0274980" lon="-8.8845720">
        <ele>16.3</ele>
        <time>2021-05-19T08:56:09Z</time>
      </trkpt>
      <trkpt lat="42.0275110" lon="-8.8845690">
        <ele>16.3</ele>
        <time>2021-05-19T08:56:10Z</time>
      </trkpt>
      <trkpt lat="42.0275330" lon="-8.8845610">
        <ele>16.2</ele>
        <time>2021-05-19T08:56:11Z</time>
      </trkpt>
      <trkpt lat="42.0275420" lon="-8.8845570">
        <ele>16.2</ele>
        <time>2021-05-19T08:56:12Z</time>
      </trkpt>
      <trkpt lat="42.0275500" lon="-8.8845530">
        <ele>16.2</ele>
        <time>2021-05-19T08:56:13Z</time>
      </trkpt>
      <trkpt lat="42.0275720" lon="-8.8845440">
        <ele>16.2</ele>
        <time>2021-05-19T08:56:14Z</time>
      </trkpt>
      <trkpt lat="42.0275810" lon="-8.8845380">
        <ele>16.2</ele>
        <time>2021-05-19T08:56:15Z</time>
      </trkpt>
      <trkpt lat="42.0275890" lon="-8.8845320">
        <ele>16.2</ele>
        <time>2021-05-19T08:56:16Z</time>
      </trkpt>
      <trkpt lat="42.0276030" lon="-8.8845290">
        <ele>16.1</ele>
        <time>2021-05-19T08:56:17Z</time>
      </trkpt>
      <trkpt lat="42.0276160" lon="-8.8845280">
        <ele>16.1</ele>
        <time>2021-05-19T08:56:18Z</time>
      </trkpt>
      <trkpt lat="42.0276370" lon="-8.8845130">
        <ele>16.1</ele>
        <time>2021-05-19T08:56:19Z</time>
      </trkpt>
      <trkpt lat="42.0276450" lon="-8.8845120">
        <ele>16.1</ele>
        <time>2021-05-19T08:56:20Z</time>
      </trkpt>
      <trkpt lat="42.0276540" lon="-8.8845100">
        <ele>16.1</ele>
        <time>2021-05-19T08:56:21Z</time>
      </trkpt>
      <trkpt lat="42.0276680" lon="-8.8845030">
        <ele>16.1</ele>
        <time>2021-05-19T08:56:22Z</time>
      </trkpt>
      <trkpt lat="42.0276830" lon="-8.8845020">
        <ele>16.0</ele>
        <time>2021-05-19T08:56:23Z</time>
      </trkpt>
      <trkpt lat="42.0276990" lon="-8.8844970">
        <ele>16.0</ele>
        <time>2021-05-19T08:56:24Z</time>
      </trkpt>
      <trkpt lat="42.0277140" lon="-8.8844890">
        <ele>16.0</ele>
        <time>2021-05-19T08:56:25Z</time>
      </trkpt>
      <trkpt lat="42.0277290" lon="-8.8844850">
        <ele>16.0</ele>
        <time>2021-05-19T08:56:26Z</time>
      </trkpt>
      <trkpt lat="42.0277410" lon="-8.8844780">
        <ele>16.0</ele>
        <time>2021-05-19T08:56:27Z</time>
      </trkpt>
      <trkpt lat="42.0277560" lon="-8.8844740">
        <ele>15.9</ele>
        <time>2021-05-19T08:56:28Z</time>
      </trkpt>
      <trkpt lat="42.0277700" lon="-8.8844630">
        <ele>15.9</ele>
        <time>2021-05-19T08:56:29Z</time>
      </trkpt>
      <trkpt lat="42.0277840" lon="-8.8844560">
        <ele>15.9</ele>
        <time>2021-05-19T08:56:30Z</time>
      </trkpt>
      <trkpt lat="42.0277980" lon="-8.8844490">
        <ele>15.9</ele>
        <time>2021-05-19T08:56:31Z</time>
      </trkpt>
      <trkpt lat="42.0278110" lon="-8.8844430">
        <ele>15.8</ele>
        <time>2021-05-19T08:56:32Z</time>
      </trkpt>
      <trkpt lat="42.0278250" lon="-8.8844370">
        <ele>15.8</ele>
        <time>2021-05-19T08:56:33Z</time>
      </trkpt>
      <trkpt lat="42.0278390" lon="-8.8844330">
        <ele>15.8</ele>
        <time>2021-05-19T08:56:34Z</time>
      </trkpt>
      <trkpt lat="42.0278560" lon="-8.8844300">
        <ele>15.8</ele>
        <time>2021-05-19T08:56:35Z</time>
      </trkpt>
      <trkpt lat="42.0278700" lon="-8.8844250">
        <ele>15.8</ele>
        <time>2021-05-19T08:56:36Z</time>
      </trkpt>
      <trkpt lat="42.0278860" lon="-8.8844180">
        <ele>15.7</ele>
        <time>2021-05-19T08:56:37Z</time>
      </trkpt>
      <trkpt lat="42.0279010" lon="-8.8844110">
        <ele>15.7</ele>
        <time>2021-05-19T08:56:38Z</time>
      </trkpt>
      <trkpt lat="42.0279140" lon="-8.8844050">
        <ele>15.7</ele>
        <time>2021-05-19T08:56:39Z</time>
      </trkpt>
      <trkpt lat="42.0279270" lon="-8.8844000">
        <ele>15.7</ele>
        <time>2021-05-19T08:56:40Z</time>
      </trkpt>
      <trkpt lat="42.0279420" lon="-8.8843940">
        <ele>15.7</ele>
        <time>2021-05-19T08:56:41Z</time>
      </trkpt>
      <trkpt lat="42.0279560" lon="-8.8843900">
        <ele>15.6</ele>
        <time>2021-05-19T08:56:42Z</time>
      </trkpt>
      <trkpt lat="42.0279690" lon="-8.8843870">
        <ele>15.6</ele>
        <time>2021-05-19T08:56:43Z</time>
      </trkpt>
      <trkpt lat="42.0279890" lon="-8.8843820">
        <ele>15.6</ele>
        <time>2021-05-19T08:56:44Z</time>
      </trkpt>
      <trkpt lat="42.0279980" lon="-8.8843800">
        <ele>15.6</ele>
        <time>2021-05-19T08:56:45Z</time>
      </trkpt>
      <trkpt lat="42.0280080" lon="-8.8843770">
        <ele>15.6</ele>
        <time>2021-05-19T08:56:46Z</time>
      </trkpt>
      <trkpt lat="42.0280210" lon="-8.8843720">
        <ele>15.6</ele>
        <time>2021-05-19T08:56:47Z</time>
      </trkpt>
      <trkpt lat="42.0280340" lon="-8.8843660">
        <ele>15.5</ele>
        <time>2021-05-19T08:56:48Z</time>
      </trkpt>
      <trkpt lat="42.0280460" lon="-8.8843560">
        <ele>15.5</ele>
        <time>2021-05-19T08:56:49Z</time>
      </trkpt>
      <trkpt lat="42.0280610" lon="-8.8843520">
        <ele>15.5</ele>
        <time>2021-05-19T08:56:50Z</time>
      </trkpt>
      <trkpt lat="42.0280730" lon="-8.8843420">
        <ele>15.5</ele>
        <time>2021-05-19T08:56:51Z</time>
      </trkpt>
      <trkpt lat="42.0280860" lon="-8.8843370">
        <ele>15.5</ele>
        <time>2021-05-19T08:56:52Z</time>
      </trkpt>
      <trkpt lat="42.0281080" lon="-8.8843280">
        <ele>15.4</ele>
        <time>2021-05-19T08:56:53Z</time>
      </trkpt>
      <trkpt lat="42.0281160" lon="-8.8843260">
        <ele>15.4</ele>
        <time>2021-05-19T08:56:54Z</time>
      </trkpt>
      <trkpt lat="42.0281250" lon="-8.8843230">
        <ele>15.4</ele>
        <time>2021-05-19T08:56:55Z</time>
      </trkpt>
      <trkpt lat="42.0281380" lon="-8.8843130">
        <ele>15.4</ele>
        <time>2021-05-19T08:56:56Z</time>
      </trkpt>
      <trkpt lat="42.0281530" lon="-8.8843120">
        <ele>15.4</ele>
        <time>2021-05-19T08:56:57Z</time>
      </trkpt>
      <trkpt lat="42.0281720" lon="-8.8842980">
        <ele>15.3</ele>
        <time>2021-05-19T08:56:58Z</time>
      </trkpt>
      <trkpt lat="42.0281800" lon="-8.8842920">
        <ele>15.3</ele>
        <time>2021-05-19T08:56:59Z</time>
      </trkpt>
      <trkpt lat="42.0281880" lon="-8.8842850">
        <ele>15.3</ele>
        <time>2021-05-19T08:57:00Z</time>
      </trkpt>
      <trkpt lat="42.0282040" lon="-8.8842820">
        <ele>15.2</ele>
        <time>2021-05-19T08:57:01Z</time>
      </trkpt>
      <trkpt lat="42.0282180" lon="-8.8842770">
        <ele>15.2</ele>
        <time>2021-05-19T08:57:02Z</time>
      </trkpt>
      <trkpt lat="42.0282290" lon="-8.8842660">
        <ele>15.2</ele>
        <time>2021-05-19T08:57:03Z</time>
      </trkpt>
      <trkpt lat="42.0282440" lon="-8.8842600">
        <ele>15.2</ele>
        <time>2021-05-19T08:57:04Z</time>
      </trkpt>
      <trkpt lat="42.0282650" lon="-8.8842490">
        <ele>15.1</ele>
        <time>2021-05-19T08:57:05Z</time>
      </trkpt>
      <trkpt lat="42.0282730" lon="-8.8842460">
        <ele>15.1</ele>
        <time>2021-05-19T08:57:06Z</time>
      </trkpt>
      <trkpt lat="42.0282820" lon="-8.8842420">
        <ele>15.1</ele>
        <time>2021-05-19T08:57:07Z</time>
      </trkpt>
      <trkpt lat="42.0282970" lon="-8.8842390">
        <ele>15.1</ele>
        <time>2021-05-19T08:57:08Z</time>
      </trkpt>
      <trkpt lat="42.0283100" lon="-8.8842340">
        <ele>15.0</ele>
        <time>2021-05-19T08:57:09Z</time>
      </trkpt>
      <trkpt lat="42.0283250" lon="-8.8842270">
        <ele>15.0</ele>
        <time>2021-05-19T08:57:10Z</time>
      </trkpt>
      <trkpt lat="42.0283390" lon="-8.8842210">
        <ele>15.0</ele>
        <time>2021-05-19T08:57:11Z</time>
      </trkpt>
      <trkpt lat="42.0283520" lon="-8.8842140">
        <ele>15.0</ele>
        <time>2021-05-19T08:57:12Z</time>
      </trkpt>
      <trkpt lat="42.0283650" lon="-8.8842100">
        <ele>14.9</ele>
        <time>2021-05-19T08:57:13Z</time>
      </trkpt>
      <trkpt lat="42.0283780" lon="-8.8842050">
        <ele>14.9</ele>
        <time>2021-05-19T08:57:14Z</time>
      </trkpt>
      <trkpt lat="42.0283910" lon="-8.8842010">
        <ele>14.9</ele>
        <time>2021-05-19T08:57:15Z</time>
      </trkpt>
      <trkpt lat="42.0284120" lon="-8.8841910">
        <ele>14.9</ele>
        <time>2021-05-19T08:57:16Z</time>
      </trkpt>
      <trkpt lat="42.0284210" lon="-8.8841880">
        <ele>14.8</ele>
        <time>2021-05-19T08:57:17Z</time>
      </trkpt>
      <trkpt lat="42.0284290" lon="-8.8841840">
        <ele>14.8</ele>
        <time>2021-05-19T08:57:18Z</time>
      </trkpt>
      <trkpt lat="42.0284430" lon="-8.8841800">
        <ele>14.8</ele>
        <time>2021-05-19T08:57:19Z</time>
      </trkpt>
      <trkpt lat="42.0284570" lon="-8.8841710">
        <ele>14.8</ele>
        <time>2021-05-19T08:57:20Z</time>
      </trkpt>
      <trkpt lat="42.0284730" lon="-8.8841710">
        <ele>14.8</ele>
        <time>2021-05-19T08:57:21Z</time>
      </trkpt>
      <trkpt lat="42.0284860" lon="-8.8841610">
        <ele>14.7</ele>
        <time>2021-05-19T08:57:22Z</time>
      </trkpt>
      <trkpt lat="42.0284980" lon="-8.8841540">
        <ele>14.7</ele>
        <time>2021-05-19T08:57:23Z</time>
      </trkpt>
      <trkpt lat="42.0285120" lon="-8.8841470">
        <ele>14.7</ele>
        <time>2021-05-19T08:57:24Z</time>
      </trkpt>
      <trkpt lat="42.0285330" lon="-8.8841430">
        <ele>14.7</ele>
        <time>2021-05-19T08:57:25Z</time>
      </trkpt>
      <trkpt lat="42.0285410" lon="-8.8841390">
        <ele>14.7</ele>
        <time>2021-05-19T08:57:26Z</time>
      </trkpt>
      <trkpt lat="42.0285480" lon="-8.8841360">
        <ele>14.6</ele>
        <time>2021-05-19T08:57:27Z</time>
      </trkpt>
      <trkpt lat="42.0285590" lon="-8.8841320">
        <ele>14.6</ele>
        <time>2021-05-19T08:57:28Z</time>
      </trkpt>
      <trkpt lat="42.0285690" lon="-8.8841280">
        <ele>14.6</ele>
        <time>2021-05-19T08:57:29Z</time>
      </trkpt>
      <trkpt lat="42.0285810" lon="-8.8841270">
        <ele>14.6</ele>
        <time>2021-05-19T08:57:30Z</time>
      </trkpt>
      <trkpt lat="42.0285940" lon="-8.8841200">
        <ele>14.6</ele>
        <time>2021-05-19T08:57:31Z</time>
      </trkpt>
      <trkpt lat="42.0286080" lon="-8.8841110">
        <ele>14.6</ele>
        <time>2021-05-19T08:57:32Z</time>
      </trkpt>
      <trkpt lat="42.0286200" lon="-8.8841000">
        <ele>14.5</ele>
        <time>2021-05-19T08:57:33Z</time>
      </trkpt>
      <trkpt lat="42.0286340" lon="-8.8841010">
        <ele>14.5</ele>
        <time>2021-05-19T08:57:34Z</time>
      </trkpt>
      <trkpt lat="42.0286540" lon="-8.8840870">
        <ele>14.5</ele>
        <time>2021-05-19T08:57:35Z</time>
      </trkpt>
      <trkpt lat="42.0286620" lon="-8.8840810">
        <ele>14.5</ele>
        <time>2021-05-19T08:57:36Z</time>
      </trkpt>
      <trkpt lat="42.0286710" lon="-8.8840760">
        <ele>14.5</ele>
        <time>2021-05-19T08:57:37Z</time>
      </trkpt>
      <trkpt lat="42.0286830" lon="-8.8840660">
        <ele>14.4</ele>
        <time>2021-05-19T08:57:38Z</time>
      </trkpt>
      <trkpt lat="42.0286970" lon="-8.8840600">
        <ele>14.4</ele>
        <time>2021-05-19T08:57:39Z</time>
      </trkpt>
      <trkpt lat="42.0287080" lon="-8.8840540">
        <ele>14.4</ele>
        <time>2021-05-19T08:57:40Z</time>
      </trkpt>
      <trkpt lat="42.0287210" lon="-8.8840470">
        <ele>14.4</ele>
        <time>2021-05-19T08:57:41Z</time>
      </trkpt>
      <trkpt lat="42.0287290" lon="-8.8840460">
        <ele>14.4</ele>
        <time>2021-05-19T08:57:42Z</time>
      </trkpt>
      <trkpt lat="42.0287510" lon="-8.8840360">
        <ele>14.3</ele>
        <time>2021-05-19T08:57:43Z</time>
      </trkpt>
      <trkpt lat="42.0287600" lon="-8.8840330">
        <ele>14.3</ele>
        <time>2021-05-19T08:57:44Z</time>
      </trkpt>
      <trkpt lat="42.0287690" lon="-8.8840300">
        <ele>14.3</ele>
        <time>2021-05-19T08:57:45Z</time>
      </trkpt>
      <trkpt lat="42.0287840" lon="-8.8840270">
        <ele>14.3</ele>
        <time>2021-05-19T08:57:46Z</time>
      </trkpt>
      <trkpt lat="42.0287970" lon="-8.8840190">
        <ele>14.3</ele>
        <time>2021-05-19T08:57:47Z</time>
      </trkpt>
      <trkpt lat="42.0288100" lon="-8.8840110">
        <ele>14.3</ele>
        <time>2021-05-19T08:57:48Z</time>
      </trkpt>
      <trkpt lat="42.0288230" lon="-8.8840050">
        <ele>14.2</ele>
        <time>2021-05-19T08:57:49Z</time>
      </trkpt>
      <trkpt lat="42.0288310" lon="-8.8840020">
        <ele>14.2</ele>
        <time>2021-05-19T08:57:50Z</time>
      </trkpt>
      <trkpt lat="42.0288430" lon="-8.8840010">
        <ele>14.2</ele>
        <time>2021-05-19T08:57:51Z</time>
      </trkpt>
      <trkpt lat="42.0288560" lon="-8.8839960">
        <ele>14.2</ele>
        <time>2021-05-19T08:57:52Z</time>
      </trkpt>
      <trkpt lat="42.0288680" lon="-8.8839980">
        <ele>14.2</ele>
        <time>2021-05-19T08:57:53Z</time>
      </trkpt>
      <trkpt lat="42.0288780" lon="-8.8839880">
        <ele>14.2</ele>
        <time>2021-05-19T08:57:54Z</time>
      </trkpt>
      <trkpt lat="42.0288880" lon="-8.8839780">
        <ele>14.1</ele>
        <time>2021-05-19T08:57:55Z</time>
      </trkpt>
      <trkpt lat="42.0288990" lon="-8.8839690">
        <ele>14.1</ele>
        <time>2021-05-19T08:57:56Z</time>
      </trkpt>
      <trkpt lat="42.0289090" lon="-8.8839620">
        <ele>14.1</ele>
        <time>2021-05-19T08:57:57Z</time>
      </trkpt>
      <trkpt lat="42.0289190" lon="-8.8839600">
        <ele>14.1</ele>
        <time>2021-05-19T08:57:58Z</time>
      </trkpt>
      <trkpt lat="42.0289390" lon="-8.8839540">
        <ele>14.1</ele>
        <time>2021-05-19T08:57:59Z</time>
      </trkpt>
      <trkpt lat="42.0289470" lon="-8.8839490">
        <ele>14.1</ele>
        <time>2021-05-19T08:58:00Z</time>
      </trkpt>
      <trkpt lat="42.0289550" lon="-8.8839450">
        <ele>14.0</ele>
        <time>2021-05-19T08:58:01Z</time>
      </trkpt>
      <trkpt lat="42.0289690" lon="-8.8839450">
        <ele>14.0</ele>
        <time>2021-05-19T08:58:02Z</time>
      </trkpt>
      <trkpt lat="42.0289830" lon="-8.8839350">
        <ele>14.0</ele>
        <time>2021-05-19T08:58:03Z</time>
      </trkpt>
      <trkpt lat="42.0289950" lon="-8.8839230">
        <ele>14.0</ele>
        <time>2021-05-19T08:58:04Z</time>
      </trkpt>
      <trkpt lat="42.0290080" lon="-8.8839200">
        <ele>14.0</ele>
        <time>2021-05-19T08:58:05Z</time>
      </trkpt>
      <trkpt lat="42.0290210" lon="-8.8839110">
        <ele>14.0</ele>
        <time>2021-05-19T08:58:06Z</time>
      </trkpt>
      <trkpt lat="42.0290360" lon="-8.8839090">
        <ele>13.9</ele>
        <time>2021-05-19T08:58:07Z</time>
      </trkpt>
      <trkpt lat="42.0290570" lon="-8.8839030">
        <ele>13.9</ele>
        <time>2021-05-19T08:58:08Z</time>
      </trkpt>
      <trkpt lat="42.0290650" lon="-8.8838990">
        <ele>13.9</ele>
        <time>2021-05-19T08:58:09Z</time>
      </trkpt>
      <trkpt lat="42.0290740" lon="-8.8838960">
        <ele>13.9</ele>
        <time>2021-05-19T08:58:10Z</time>
      </trkpt>
      <trkpt lat="42.0290870" lon="-8.8838890">
        <ele>13.9</ele>
        <time>2021-05-19T08:58:11Z</time>
      </trkpt>
      <trkpt lat="42.0291030" lon="-8.8838820">
        <ele>13.8</ele>
        <time>2021-05-19T08:58:12Z</time>
      </trkpt>
      <trkpt lat="42.0291170" lon="-8.8838780">
        <ele>13.8</ele>
        <time>2021-05-19T08:58:13Z</time>
      </trkpt>
      <trkpt lat="42.0291280" lon="-8.8838670">
        <ele>13.8</ele>
        <time>2021-05-19T08:58:14Z</time>
      </trkpt>
      <trkpt lat="42.0291410" lon="-8.8838620">
        <ele>13.8</ele>
        <time>2021-05-19T08:58:15Z</time>
      </trkpt>
      <trkpt lat="42.0291560" lon="-8.8838610">
        <ele>13.8</ele>
        <time>2021-05-19T08:58:16Z</time>
      </trkpt>
      <trkpt lat="42.0291710" lon="-8.8838540">
        <ele>13.8</ele>
        <time>2021-05-19T08:58:17Z</time>
      </trkpt>
      <trkpt lat="42.0291860" lon="-8.8838440">
        <ele>13.7</ele>
        <time>2021-05-19T08:58:18Z</time>
      </trkpt>
      <trkpt lat="42.0292000" lon="-8.8838380">
        <ele>13.7</ele>
        <time>2021-05-19T08:58:19Z</time>
      </trkpt>
      <trkpt lat="42.0292140" lon="-8.8838280">
        <ele>13.7</ele>
        <time>2021-05-19T08:58:20Z</time>
      </trkpt>
      <trkpt lat="42.0292280" lon="-8.8838240">
        <ele>13.7</ele>
        <time>2021-05-19T08:58:21Z</time>
      </trkpt>
      <trkpt lat="42.0292430" lon="-8.8838170">
        <ele>13.7</ele>
        <time>2021-05-19T08:58:22Z</time>
      </trkpt>
      <trkpt lat="42.0292570" lon="-8.8838150">
        <ele>13.6</ele>
        <time>2021-05-19T08:58:23Z</time>
      </trkpt>
      <trkpt lat="42.0292720" lon="-8.8838100">
        <ele>13.6</ele>
        <time>2021-05-19T08:58:24Z</time>
      </trkpt>
      <trkpt lat="42.0292870" lon="-8.8838050">
        <ele>13.6</ele>
        <time>2021-05-19T08:58:25Z</time>
      </trkpt>
      <trkpt lat="42.0293000" lon="-8.8837980">
        <ele>13.6</ele>
        <time>2021-05-19T08:58:26Z</time>
      </trkpt>
      <trkpt lat="42.0293140" lon="-8.8837960">
        <ele>13.6</ele>
        <time>2021-05-19T08:58:27Z</time>
      </trkpt>
      <trkpt lat="42.0293280" lon="-8.8837840">
        <ele>13.6</ele>
        <time>2021-05-19T08:58:28Z</time>
      </trkpt>
      <trkpt lat="42.0293430" lon="-8.8837830">
        <ele>13.6</ele>
        <time>2021-05-19T08:58:29Z</time>
      </trkpt>
      <trkpt lat="42.0293580" lon="-8.8837800">
        <ele>13.6</ele>
        <time>2021-05-19T08:58:30Z</time>
      </trkpt>
      <trkpt lat="42.0293720" lon="-8.8837760">
        <ele>13.6</ele>
        <time>2021-05-19T08:58:31Z</time>
      </trkpt>
      <trkpt lat="42.0293860" lon="-8.8837690">
        <ele>13.6</ele>
        <time>2021-05-19T08:58:32Z</time>
      </trkpt>
      <trkpt lat="42.0294000" lon="-8.8837630">
        <ele>13.5</ele>
        <time>2021-05-19T08:58:33Z</time>
      </trkpt>
      <trkpt lat="42.0294110" lon="-8.8837530">
        <ele>13.5</ele>
        <time>2021-05-19T08:58:34Z</time>
      </trkpt>
      <trkpt lat="42.0294240" lon="-8.8837490">
        <ele>13.5</ele>
        <time>2021-05-19T08:58:35Z</time>
      </trkpt>
      <trkpt lat="42.0294380" lon="-8.8837450">
        <ele>13.5</ele>
        <time>2021-05-19T08:58:36Z</time>
      </trkpt>
      <trkpt lat="42.0294580" lon="-8.8837380">
        <ele>13.5</ele>
        <time>2021-05-19T08:58:37Z</time>
      </trkpt>
      <trkpt lat="42.0294660" lon="-8.8837350">
        <ele>13.5</ele>
        <time>2021-05-19T08:58:38Z</time>
      </trkpt>
      <trkpt lat="42.0294740" lon="-8.8837320">
        <ele>13.5</ele>
        <time>2021-05-19T08:58:39Z</time>
      </trkpt>
      <trkpt lat="42.0294850" lon="-8.8837260">
        <ele>13.5</ele>
        <time>2021-05-19T08:58:40Z</time>
      </trkpt>
      <trkpt lat="42.0294990" lon="-8.8837260">
        <ele>13.5</ele>
        <time>2021-05-19T08:58:41Z</time>
      </trkpt>
      <trkpt lat="42.0295080" lon="-8.8837180">
        <ele>13.5</ele>
        <time>2021-05-19T08:58:42Z</time>
      </trkpt>
      <trkpt lat="42.0295290" lon="-8.8837100">
        <ele>13.5</ele>
        <time>2021-05-19T08:58:43Z</time>
      </trkpt>
      <trkpt lat="42.0295360" lon="-8.8837030">
        <ele>13.5</ele>
        <time>2021-05-19T08:58:44Z</time>
      </trkpt>
      <trkpt lat="42.0295440" lon="-8.8836970">
        <ele>13.5</ele>
        <time>2021-05-19T08:58:45Z</time>
      </trkpt>
      <trkpt lat="42.0295640" lon="-8.8836890">
        <ele>13.5</ele>
        <time>2021-05-19T08:58:46Z</time>
      </trkpt>
      <trkpt lat="42.0295730" lon="-8.8836870">
        <ele>13.5</ele>
        <time>2021-05-19T08:58:47Z</time>
      </trkpt>
      <trkpt lat="42.0295810" lon="-8.8836840">
        <ele>13.5</ele>
        <time>2021-05-19T08:58:48Z</time>
      </trkpt>
      <trkpt lat="42.0295930" lon="-8.8836780">
        <ele>13.5</ele>
        <time>2021-05-19T08:58:49Z</time>
      </trkpt>
      <trkpt lat="42.0296050" lon="-8.8836750">
        <ele>13.5</ele>
        <time>2021-05-19T08:58:50Z</time>
      </trkpt>
      <trkpt lat="42.0296130" lon="-8.8836700">
        <ele>13.5</ele>
        <time>2021-05-19T08:58:51Z</time>
      </trkpt>
      <trkpt lat="42.0296240" lon="-8.8836670">
        <ele>13.5</ele>
        <time>2021-05-19T08:58:52Z</time>
      </trkpt>
      <trkpt lat="42.0296320" lon="-8.8836580">
        <ele>13.5</ele>
        <time>2021-05-19T08:58:53Z</time>
      </trkpt>
      <trkpt lat="42.0296440" lon="-8.8836600">
        <ele>13.5</ele>
        <time>2021-05-19T08:58:54Z</time>
      </trkpt>
      <trkpt lat="42.0296540" lon="-8.8836490">
        <ele>13.5</ele>
        <time>2021-05-19T08:58:55Z</time>
      </trkpt>
      <trkpt lat="42.0296620" lon="-8.8836420">
        <ele>13.5</ele>
        <time>2021-05-19T08:58:56Z</time>
      </trkpt>
      <trkpt lat="42.0296710" lon="-8.8836360">
        <ele>13.5</ele>
        <time>2021-05-19T08:58:57Z</time>
      </trkpt>
      <trkpt lat="42.0296810" lon="-8.8836250">
        <ele>13.5</ele>
        <time>2021-05-19T08:58:58Z</time>
      </trkpt>
      <trkpt lat="42.0296920" lon="-8.8836220">
        <ele>13.5</ele>
        <time>2021-05-19T08:58:59Z</time>
      </trkpt>
      <trkpt lat="42.0297040" lon="-8.8836230">
        <ele>13.5</ele>
        <time>2021-05-19T08:59:00Z</time>
      </trkpt>
      <trkpt lat="42.0297160" lon="-8.8836170">
        <ele>13.5</ele>
        <time>2021-05-19T08:59:01Z</time>
      </trkpt>
      <trkpt lat="42.0297250" lon="-8.8836080">
        <ele>13.5</ele>
        <time>2021-05-19T08:59:02Z</time>
      </trkpt>
      <trkpt lat="42.0297360" lon="-8.8836040">
        <ele>13.5</ele>
        <time>2021-05-19T08:59:03Z</time>
      </trkpt>
      <trkpt lat="42.0297490" lon="-8.8835980">
        <ele>13.5</ele>
        <time>2021-05-19T08:59:04Z</time>
      </trkpt>
      <trkpt lat="42.0297620" lon="-8.8835940">
        <ele>13.5</ele>
        <time>2021-05-19T08:59:05Z</time>
      </trkpt>
      <trkpt lat="42.0297770" lon="-8.8835890">
        <ele>13.5</ele>
        <time>2021-05-19T08:59:06Z</time>
      </trkpt>
      <trkpt lat="42.0297900" lon="-8.8835900">
        <ele>13.5</ele>
        <time>2021-05-19T08:59:07Z</time>
      </trkpt>
      <trkpt lat="42.0298100" lon="-8.8835790">
        <ele>13.5</ele>
        <time>2021-05-19T08:59:08Z</time>
      </trkpt>
      <trkpt lat="42.0298190" lon="-8.8835750">
        <ele>13.5</ele>
        <time>2021-05-19T08:59:09Z</time>
      </trkpt>
      <trkpt lat="42.0298280" lon="-8.8835720">
        <ele>13.5</ele>
        <time>2021-05-19T08:59:10Z</time>
      </trkpt>
      <trkpt lat="42.0298410" lon="-8.8835630">
        <ele>13.5</ele>
        <time>2021-05-19T08:59:11Z</time>
      </trkpt>
      <trkpt lat="42.0298530" lon="-8.8835560">
        <ele>13.5</ele>
        <time>2021-05-19T08:59:12Z</time>
      </trkpt>
      <trkpt lat="42.0298660" lon="-8.8835500">
        <ele>13.5</ele>
        <time>2021-05-19T08:59:13Z</time>
      </trkpt>
      <trkpt lat="42.0298750" lon="-8.8835410">
        <ele>13.5</ele>
        <time>2021-05-19T08:59:14Z</time>
      </trkpt>
      <trkpt lat="42.0298840" lon="-8.8835360">
        <ele>13.5</ele>
        <time>2021-05-19T08:59:15Z</time>
      </trkpt>
      <trkpt lat="42.0298980" lon="-8.8835300">
        <ele>13.5</ele>
        <time>2021-05-19T08:59:16Z</time>
      </trkpt>
      <trkpt lat="42.0299060" lon="-8.8835290">
        <ele>13.5</ele>
        <time>2021-05-19T08:59:17Z</time>
      </trkpt>
      <trkpt lat="42.0299140" lon="-8.8835290">
        <ele>13.5</ele>
        <time>2021-05-19T08:59:18Z</time>
      </trkpt>
      <trkpt lat="42.0299210" lon="-8.8835280">
        <ele>13.5</ele>
        <time>2021-05-19T08:59:19Z</time>
      </trkpt>
      <trkpt lat="42.0299310" lon="-8.8835200">
        <ele>13.5</ele>
        <time>2021-05-19T08:59:20Z</time>
      </trkpt>
      <trkpt lat="42.0299350" lon="-8.8835080">
        <ele>13.5</ele>
        <time>2021-05-19T08:59:21Z</time>
      </trkpt>
      <trkpt lat="42.0299430" lon="-8.8835030">
        <ele>13.5</ele>
        <time>2021-05-19T08:59:22Z</time>
      </trkpt>
      <trkpt lat="42.0299420" lon="-8.8835010">
        <ele>13.5</ele>
        <time>2021-05-19T08:59:23Z</time>
      </trkpt>
      <trkpt lat="42.0299530" lon="-8.8834930">
        <ele>13.5</ele>
        <time>2021-05-19T08:59:24Z</time>
      </trkpt>
      <trkpt lat="42.0299640" lon="-8.8834900">
        <ele>13.5</ele>
        <time>2021-05-19T08:59:25Z</time>
      </trkpt>
      <trkpt lat="42.0299760" lon="-8.8834820">
        <ele>13.5</ele>
        <time>2021-05-19T08:59:26Z</time>
      </trkpt>
      <trkpt lat="42.0299890" lon="-8.8834780">
        <ele>13.5</ele>
        <time>2021-05-19T08:59:27Z</time>
      </trkpt>
      <trkpt lat="42.0300000" lon="-8.8834670">
        <ele>13.5</ele>
        <time>2021-05-19T08:59:28Z</time>
      </trkpt>
      <trkpt lat="42.0300040" lon="-8.8834670">
        <ele>13.5</ele>
        <time>2021-05-19T08:59:29Z</time>
      </trkpt>
      <trkpt lat="42.0300160" lon="-8.8834590">
        <ele>13.5</ele>
        <time>2021-05-19T08:59:30Z</time>
      </trkpt>
      <trkpt lat="42.0300280" lon="-8.8834560">
        <ele>13.5</ele>
        <time>2021-05-19T08:59:31Z</time>
      </trkpt>
      <trkpt lat="42.0300360" lon="-8.8834500">
        <ele>13.5</ele>
        <time>2021-05-19T08:59:32Z</time>
      </trkpt>
      <trkpt lat="42.0300450" lon="-8.8834500">
        <ele>13.5</ele>
        <time>2021-05-19T08:59:33Z</time>
      </trkpt>
      <trkpt lat="42.0300640" lon="-8.8834410">
        <ele>13.5</ele>
        <time>2021-05-19T08:59:34Z</time>
      </trkpt>
      <trkpt lat="42.0300840" lon="-8.8834340">
        <ele>13.5</ele>
        <time>2021-05-19T08:59:35Z</time>
      </trkpt>
      <trkpt lat="42.0300930" lon="-8.8834300">
        <ele>13.5</ele>
        <time>2021-05-19T08:59:36Z</time>
      </trkpt>
      <trkpt lat="42.0301010" lon="-8.8834250">
        <ele>13.5</ele>
        <time>2021-05-19T08:59:37Z</time>
      </trkpt>
      <trkpt lat="42.0301240" lon="-8.8834170">
        <ele>13.5</ele>
        <time>2021-05-19T08:59:38Z</time>
      </trkpt>
      <trkpt lat="42.0301330" lon="-8.8834130">
        <ele>13.5</ele>
        <time>2021-05-19T08:59:39Z</time>
      </trkpt>
      <trkpt lat="42.0301430" lon="-8.8834100">
        <ele>13.5</ele>
        <time>2021-05-19T08:59:40Z</time>
      </trkpt>
      <trkpt lat="42.0301590" lon="-8.8834100">
        <ele>13.5</ele>
        <time>2021-05-19T08:59:41Z</time>
      </trkpt>
      <trkpt lat="42.0301740" lon="-8.8833990">
        <ele>13.5</ele>
        <time>2021-05-19T08:59:42Z</time>
      </trkpt>
      <trkpt lat="42.0301880" lon="-8.8834000">
        <ele>13.5</ele>
        <time>2021-05-19T08:59:43Z</time>
      </trkpt>
      <trkpt lat="42.0302030" lon="-8.8833960">
        <ele>13.5</ele>
        <time>2021-05-19T08:59:44Z</time>
      </trkpt>
      <trkpt lat="42.0302160" lon="-8.8833880">
        <ele>13.5</ele>
        <time>2021-05-19T08:59:45Z</time>
      </trkpt>
      <trkpt lat="42.0302300" lon="-8.8833850">
        <ele>13.5</ele>
        <time>2021-05-19T08:59:46Z</time>
      </trkpt>
      <trkpt lat="42.0302490" lon="-8.8833790">
        <ele>13.5</ele>
        <time>2021-05-19T08:59:47Z</time>
      </trkpt>
      <trkpt lat="42.0302570" lon="-8.8833770">
        <ele>13.5</ele>
        <time>2021-05-19T08:59:48Z</time>
      </trkpt>
      <trkpt lat="42.0302650" lon="-8.8833740">
        <ele>13.5</ele>
        <time>2021-05-19T08:59:49Z</time>
      </trkpt>
      <trkpt lat="42.0302680" lon="-8.8833660">
        <ele>13.5</ele>
        <time>2021-05-19T08:59:50Z</time>
      </trkpt>
      <trkpt lat="42.0302770" lon="-8.8833600">
        <ele>13.6</ele>
        <time>2021-05-19T08:59:51Z</time>
      </trkpt>
      <trkpt lat="42.0302830" lon="-8.8833560">
        <ele>13.6</ele>
        <time>2021-05-19T08:59:52Z</time>
      </trkpt>
      <trkpt lat="42.0302980" lon="-8.8833520">
        <ele>13.6</ele>
        <time>2021-05-19T08:59:53Z</time>
      </trkpt>
      <trkpt lat="42.0303040" lon="-8.8833430">
        <ele>13.6</ele>
        <time>2021-05-19T08:59:54Z</time>
      </trkpt>
      <trkpt lat="42.0303150" lon="-8.8833400">
        <ele>13.6</ele>
        <time>2021-05-19T08:59:55Z</time>
      </trkpt>
      <trkpt lat="42.0303250" lon="-8.8833340">
        <ele>13.6</ele>
        <time>2021-05-19T08:59:56Z</time>
      </trkpt>
      <trkpt lat="42.0303310" lon="-8.8833370">
        <ele>13.6</ele>
        <time>2021-05-19T08:59:57Z</time>
      </trkpt>
      <trkpt lat="42.0303470" lon="-8.8833260">
        <ele>13.6</ele>
        <time>2021-05-19T08:59:58Z</time>
      </trkpt>
      <trkpt lat="42.0303550" lon="-8.8833200">
        <ele>13.6</ele>
        <time>2021-05-19T08:59:59Z</time>
      </trkpt>
      <trkpt lat="42.0303660" lon="-8.8833130">
        <ele>13.6</ele>
        <time>2021-05-19T09:00:00Z</time>
      </trkpt>
      <trkpt lat="42.0303750" lon="-8.8833060">
        <ele>13.6</ele>
        <time>2021-05-19T09:00:01Z</time>
      </trkpt>
      <trkpt lat="42.0303760" lon="-8.8832980">
        <ele>13.6</ele>
        <time>2021-05-19T09:00:02Z</time>
      </trkpt>
      <trkpt lat="42.0303850" lon="-8.8832980">
        <ele>13.6</ele>
        <time>2021-05-19T09:00:03Z</time>
      </trkpt>
      <trkpt lat="42.0304070" lon="-8.8832850">
        <ele>13.6</ele>
        <time>2021-05-19T09:00:04Z</time>
      </trkpt>
      <trkpt lat="42.0304150" lon="-8.8832820">
        <ele>13.6</ele>
        <time>2021-05-19T09:00:05Z</time>
      </trkpt>
      <trkpt lat="42.0304230" lon="-8.8832780">
        <ele>13.6</ele>
        <time>2021-05-19T09:00:06Z</time>
      </trkpt>
      <trkpt lat="42.0304330" lon="-8.8832760">
        <ele>13.6</ele>
        <time>2021-05-19T09:00:07Z</time>
      </trkpt>
      <trkpt lat="42.0304450" lon="-8.8832710">
        <ele>13.6</ele>
        <time>2021-05-19T09:00:08Z</time>
      </trkpt>
      <trkpt lat="42.0304570" lon="-8.8832650">
        <ele>13.6</ele>
        <time>2021-05-19T09:00:09Z</time>
      </trkpt>
      <trkpt lat="42.0304720" lon="-8.8832640">
        <ele>13.6</ele>
        <time>2021-05-19T09:00:10Z</time>
      </trkpt>
      <trkpt lat="42.0304870" lon="-8.8832590">
        <ele>13.7</ele>
        <time>2021-05-19T09:00:11Z</time>
      </trkpt>
      <trkpt lat="42.0305000" lon="-8.8832530">
        <ele>13.7</ele>
        <time>2021-05-19T09:00:12Z</time>
      </trkpt>
      <trkpt lat="42.0305130" lon="-8.8832440">
        <ele>13.7</ele>
        <time>2021-05-19T09:00:13Z</time>
      </trkpt>
      <trkpt lat="42.0305270" lon="-8.8832370">
        <ele>13.7</ele>
        <time>2021-05-19T09:00:14Z</time>
      </trkpt>
      <trkpt lat="42.0305420" lon="-8.8832330">
        <ele>13.7</ele>
        <time>2021-05-19T09:00:15Z</time>
      </trkpt>
      <trkpt lat="42.0305530" lon="-8.8832250">
        <ele>13.7</ele>
        <time>2021-05-19T09:00:16Z</time>
      </trkpt>
      <trkpt lat="42.0305660" lon="-8.8832130">
        <ele>13.7</ele>
        <time>2021-05-19T09:00:17Z</time>
      </trkpt>
      <trkpt lat="42.0305890" lon="-8.8832050">
        <ele>13.7</ele>
        <time>2021-05-19T09:00:18Z</time>
      </trkpt>
      <trkpt lat="42.0305990" lon="-8.8832010">
        <ele>13.7</ele>
        <time>2021-05-19T09:00:19Z</time>
      </trkpt>
      <trkpt lat="42.0306080" lon="-8.8831980">
        <ele>13.7</ele>
        <time>2021-05-19T09:00:20Z</time>
      </trkpt>
      <trkpt lat="42.0306300" lon="-8.8831910">
        <ele>13.7</ele>
        <time>2021-05-19T09:00:21Z</time>
      </trkpt>
      <trkpt lat="42.0306420" lon="-8.8831860">
        <ele>13.7</ele>
        <time>2021-05-19T09:00:22Z</time>
      </trkpt>
      <trkpt lat="42.0306550" lon="-8.8831730">
        <ele>13.7</ele>
        <time>2021-05-19T09:00:23Z</time>
      </trkpt>
      <trkpt lat="42.0306660" lon="-8.8831720">
        <ele>13.7</ele>
        <time>2021-05-19T09:00:24Z</time>
      </trkpt>
      <trkpt lat="42.0306770" lon="-8.8831710">
        <ele>13.7</ele>
        <time>2021-05-19T09:00:25Z</time>
      </trkpt>
      <trkpt lat="42.0306970" lon="-8.8831700">
        <ele>13.8</ele>
        <time>2021-05-19T09:00:26Z</time>
      </trkpt>
      <trkpt lat="42.0307120" lon="-8.8831600">
        <ele>13.8</ele>
        <time>2021-05-19T09:00:27Z</time>
      </trkpt>
      <trkpt lat="42.0307220" lon="-8.8831490">
        <ele>13.8</ele>
        <time>2021-05-19T09:00:28Z</time>
      </trkpt>
      <trkpt lat="42.0307250" lon="-8.8831440">
        <ele>13.8</ele>
        <time>2021-05-19T09:00:29Z</time>
      </trkpt>
      <trkpt lat="42.0307360" lon="-8.8831350">
        <ele>13.8</ele>
        <time>2021-05-19T09:00:30Z</time>
      </trkpt>
      <trkpt lat="42.0307510" lon="-8.8831300">
        <ele>13.8</ele>
        <time>2021-05-19T09:00:31Z</time>
      </trkpt>
      <trkpt lat="42.0307690" lon="-8.8831230">
        <ele>13.8</ele>
        <time>2021-05-19T09:00:32Z</time>
      </trkpt>
      <trkpt lat="42.0307860" lon="-8.8831170">
        <ele>13.8</ele>
        <time>2021-05-19T09:00:33Z</time>
      </trkpt>
      <trkpt lat="42.0307960" lon="-8.8831160">
        <ele>13.8</ele>
        <time>2021-05-19T09:00:34Z</time>
      </trkpt>
      <trkpt lat="42.0308060" lon="-8.8831140">
        <ele>13.8</ele>
        <time>2021-05-19T09:00:35Z</time>
      </trkpt>
      <trkpt lat="42.0308240" lon="-8.8831050">
        <ele>13.8</ele>
        <time>2021-05-19T09:00:36Z</time>
      </trkpt>
      <trkpt lat="42.0308400" lon="-8.8831020">
        <ele>13.8</ele>
        <time>2021-05-19T09:00:37Z</time>
      </trkpt>
      <trkpt lat="42.0308550" lon="-8.8830940">
        <ele>13.9</ele>
        <time>2021-05-19T09:00:38Z</time>
      </trkpt>
      <trkpt lat="42.0308640" lon="-8.8830870">
        <ele>13.9</ele>
        <time>2021-05-19T09:00:39Z</time>
      </trkpt>
      <trkpt lat="42.0308730" lon="-8.8830800">
        <ele>13.9</ele>
        <time>2021-05-19T09:00:40Z</time>
      </trkpt>
      <trkpt lat="42.0308890" lon="-8.8830810">
        <ele>13.9</ele>
        <time>2021-05-19T09:00:41Z</time>
      </trkpt>
      <trkpt lat="42.0309020" lon="-8.8830810">
        <ele>13.9</ele>
        <time>2021-05-19T09:00:42Z</time>
      </trkpt>
      <trkpt lat="42.0309070" lon="-8.8830720">
        <ele>13.9</ele>
        <time>2021-05-19T09:00:43Z</time>
      </trkpt>
      <trkpt lat="42.0309200" lon="-8.8830670">
        <ele>13.9</ele>
        <time>2021-05-19T09:00:44Z</time>
      </trkpt>
      <trkpt lat="42.0309330" lon="-8.8830630">
        <ele>13.9</ele>
        <time>2021-05-19T09:00:45Z</time>
      </trkpt>
      <trkpt lat="42.0309510" lon="-8.8830570">
        <ele>13.9</ele>
        <time>2021-05-19T09:00:46Z</time>
      </trkpt>
      <trkpt lat="42.0309540" lon="-8.8830480">
        <ele>13.9</ele>
        <time>2021-05-19T09:00:47Z</time>
      </trkpt>
      <trkpt lat="42.0309630" lon="-8.8830450">
        <ele>13.9</ele>
        <time>2021-05-19T09:00:48Z</time>
      </trkpt>
      <trkpt lat="42.0309830" lon="-8.8830370">
        <ele>13.9</ele>
        <time>2021-05-19T09:00:49Z</time>
      </trkpt>
      <trkpt lat="42.0309920" lon="-8.8830340">
        <ele>13.9</ele>
        <time>2021-05-19T09:00:50Z</time>
      </trkpt>
      <trkpt lat="42.0310000" lon="-8.8830300">
        <ele>13.9</ele>
        <time>2021-05-19T09:00:51Z</time>
      </trkpt>
      <trkpt lat="42.0310270" lon="-8.8830150">
        <ele>14.0</ele>
        <time>2021-05-19T09:00:52Z</time>
      </trkpt>
      <trkpt lat="42.0310340" lon="-8.8830120">
        <ele>14.0</ele>
        <time>2021-05-19T09:00:53Z</time>
      </trkpt>
      <trkpt lat="42.0310470" lon="-8.8830050">
        <ele>14.0</ele>
        <time>2021-05-19T09:00:54Z</time>
      </trkpt>
      <trkpt lat="42.0310540" lon="-8.8830020">
        <ele>14.0</ele>
        <time>2021-05-19T09:00:55Z</time>
      </trkpt>
      <trkpt lat="42.0310620" lon="-8.8829990">
        <ele>14.0</ele>
        <time>2021-05-19T09:00:56Z</time>
      </trkpt>
      <trkpt lat="42.0310690" lon="-8.8829960">
        <ele>14.0</ele>
        <time>2021-05-19T09:00:57Z</time>
      </trkpt>
      <trkpt lat="42.0310720" lon="-8.8829970">
        <ele>14.0</ele>
        <time>2021-05-19T09:00:58Z</time>
      </trkpt>
      <trkpt lat="42.0310810" lon="-8.8829900">
        <ele>14.0</ele>
        <time>2021-05-19T09:00:59Z</time>
      </trkpt>
      <trkpt lat="42.0310950" lon="-8.8829840">
        <ele>14.0</ele>
        <time>2021-05-19T09:01:00Z</time>
      </trkpt>
      <trkpt lat="42.0311000" lon="-8.8829840">
        <ele>14.0</ele>
        <time>2021-05-19T09:01:01Z</time>
      </trkpt>
      <trkpt lat="42.0311100" lon="-8.8829790">
        <ele>14.0</ele>
        <time>2021-05-19T09:01:02Z</time>
      </trkpt>
      <trkpt lat="42.0311240" lon="-8.8829700">
        <ele>14.0</ele>
        <time>2021-05-19T09:01:03Z</time>
      </trkpt>
      <trkpt lat="42.0311340" lon="-8.8829670">
        <ele>14.0</ele>
        <time>2021-05-19T09:01:04Z</time>
      </trkpt>
      <trkpt lat="42.0311580" lon="-8.8829650">
        <ele>14.0</ele>
        <time>2021-05-19T09:01:05Z</time>
      </trkpt>
      <trkpt lat="42.0311710" lon="-8.8829640">
        <ele>14.0</ele>
        <time>2021-05-19T09:01:06Z</time>
      </trkpt>
      <trkpt lat="42.0311700" lon="-8.8829570">
        <ele>14.0</ele>
        <time>2021-05-19T09:01:07Z</time>
      </trkpt>
      <trkpt lat="42.0311870" lon="-8.8829450">
        <ele>14.1</ele>
        <time>2021-05-19T09:01:08Z</time>
      </trkpt>
      <trkpt lat="42.0312010" lon="-8.8829430">
        <ele>14.1</ele>
        <time>2021-05-19T09:01:09Z</time>
      </trkpt>
      <trkpt lat="42.0312100" lon="-8.8829340">
        <ele>14.1</ele>
        <time>2021-05-19T09:01:10Z</time>
      </trkpt>
      <trkpt lat="42.0312160" lon="-8.8829310">
        <ele>14.1</ele>
        <time>2021-05-19T09:01:11Z</time>
      </trkpt>
      <trkpt lat="42.0312260" lon="-8.8829270">
        <ele>14.1</ele>
        <time>2021-05-19T09:01:12Z</time>
      </trkpt>
      <trkpt lat="42.0312310" lon="-8.8829240">
        <ele>14.1</ele>
        <time>2021-05-19T09:01:13Z</time>
      </trkpt>
      <trkpt lat="42.0312390" lon="-8.8829360">
        <ele>14.1</ele>
        <time>2021-05-19T09:01:14Z</time>
      </trkpt>
      <trkpt lat="42.0312480" lon="-8.8829310">
        <ele>14.1</ele>
        <time>2021-05-19T09:01:15Z</time>
      </trkpt>
      <trkpt lat="42.0312610" lon="-8.8829250">
        <ele>14.1</ele>
        <time>2021-05-19T09:01:16Z</time>
      </trkpt>
      <trkpt lat="42.0312740" lon="-8.8829170">
        <ele>14.1</ele>
        <time>2021-05-19T09:01:17Z</time>
      </trkpt>
      <trkpt lat="42.0312800" lon="-8.8829100">
        <ele>14.1</ele>
        <time>2021-05-19T09:01:18Z</time>
      </trkpt>
      <trkpt lat="42.0312890" lon="-8.8829090">
        <ele>14.1</ele>
        <time>2021-05-19T09:01:19Z</time>
      </trkpt>
      <trkpt lat="42.0313010" lon="-8.8829110">
        <ele>14.1</ele>
        <time>2021-05-19T09:01:20Z</time>
      </trkpt>
      <trkpt lat="42.0312910" lon="-8.8829030">
        <ele>14.1</ele>
        <time>2021-05-19T09:01:21Z</time>
      </trkpt>
      <trkpt lat="42.0312970" lon="-8.8828970">
        <ele>14.2</ele>
        <time>2021-05-19T09:01:22Z</time>
      </trkpt>
      <trkpt lat="42.0313020" lon="-8.8828910">
        <ele>14.2</ele>
        <time>2021-05-19T09:01:23Z</time>
      </trkpt>
      <trkpt lat="42.0313070" lon="-8.8828840">
        <ele>14.2</ele>
        <time>2021-05-19T09:01:24Z</time>
      </trkpt>
      <trkpt lat="42.0313120" lon="-8.8828780">
        <ele>14.2</ele>
        <time>2021-05-19T09:01:25Z</time>
      </trkpt>
      <trkpt lat="42.0313180" lon="-8.8828720">
        <ele>14.2</ele>
        <time>2021-05-19T09:01:26Z</time>
      </trkpt>
      <trkpt lat="42.0313230" lon="-8.8828660">
        <ele>14.2</ele>
        <time>2021-05-19T09:01:27Z</time>
      </trkpt>
      <trkpt lat="42.0313440" lon="-8.8828610">
        <ele>14.2</ele>
        <time>2021-05-19T09:01:28Z</time>
      </trkpt>
      <trkpt lat="42.0313520" lon="-8.8828590">
        <ele>14.2</ele>
        <time>2021-05-19T09:01:29Z</time>
      </trkpt>
      <trkpt lat="42.0313600" lon="-8.8828570">
        <ele>14.2</ele>
        <time>2021-05-19T09:01:30Z</time>
      </trkpt>
      <trkpt lat="42.0313860" lon="-8.8828490">
        <ele>14.3</ele>
        <time>2021-05-19T09:01:31Z</time>
      </trkpt>
      <trkpt lat="42.0313920" lon="-8.8828440">
        <ele>14.3</ele>
        <time>2021-05-19T09:01:32Z</time>
      </trkpt>
      <trkpt lat="42.0313990" lon="-8.8828380">
        <ele>14.3</ele>
        <time>2021-05-19T09:01:33Z</time>
      </trkpt>
      <trkpt lat="42.0314070" lon="-8.8828340">
        <ele>14.3</ele>
        <time>2021-05-19T09:01:34Z</time>
      </trkpt>
      <trkpt lat="42.0314180" lon="-8.8828320">
        <ele>14.3</ele>
        <time>2021-05-19T09:01:35Z</time>
      </trkpt>
      <trkpt lat="42.0314310" lon="-8.8828300">
        <ele>14.3</ele>
        <time>2021-05-19T09:01:36Z</time>
      </trkpt>
      <trkpt lat="42.0314460" lon="-8.8828210">
        <ele>14.3</ele>
        <time>2021-05-19T09:01:37Z</time>
      </trkpt>
      <trkpt lat="42.0314630" lon="-8.8828110">
        <ele>14.3</ele>
        <time>2021-05-19T09:01:38Z</time>
      </trkpt>
      <trkpt lat="42.0314740" lon="-8.8828100">
        <ele>14.3</ele>
        <time>2021-05-19T09:01:39Z</time>
      </trkpt>
      <trkpt lat="42.0314840" lon="-8.8828050">
        <ele>14.4</ele>
        <time>2021-05-19T09:01:40Z</time>
      </trkpt>
      <trkpt lat="42.0314960" lon="-8.8828010">
        <ele>14.4</ele>
        <time>2021-05-19T09:01:41Z</time>
      </trkpt>
      <trkpt lat="42.0315110" lon="-8.8827980">
        <ele>14.4</ele>
        <time>2021-05-19T09:01:42Z</time>
      </trkpt>
      <trkpt lat="42.0315260" lon="-8.8827920">
        <ele>14.4</ele>
        <time>2021-05-19T09:01:43Z</time>
      </trkpt>
      <trkpt lat="42.0315340" lon="-8.8827840">
        <ele>14.4</ele>
        <time>2021-05-19T09:01:44Z</time>
      </trkpt>
      <trkpt lat="42.0315400" lon="-8.8827820">
        <ele>14.4</ele>
        <time>2021-05-19T09:01:45Z</time>
      </trkpt>
      <trkpt lat="42.0315470" lon="-8.8827780">
        <ele>14.4</ele>
        <time>2021-05-19T09:01:46Z</time>
      </trkpt>
      <trkpt lat="42.0315550" lon="-8.8827720">
        <ele>14.4</ele>
        <time>2021-05-19T09:01:47Z</time>
      </trkpt>
      <trkpt lat="42.0315680" lon="-8.8827670">
        <ele>14.4</ele>
        <time>2021-05-19T09:01:48Z</time>
      </trkpt>
      <trkpt lat="42.0315760" lon="-8.8827640">
        <ele>14.4</ele>
        <time>2021-05-19T09:01:49Z</time>
      </trkpt>
      <trkpt lat="42.0315900" lon="-8.8827570">
        <ele>14.4</ele>
        <time>2021-05-19T09:01:50Z</time>
      </trkpt>
      <trkpt lat="42.0316060" lon="-8.8827540">
        <ele>14.5</ele>
        <time>2021-05-19T09:01:51Z</time>
      </trkpt>
      <trkpt lat="42.0316180" lon="-8.8827460">
        <ele>14.5</ele>
        <time>2021-05-19T09:01:52Z</time>
      </trkpt>
      <trkpt lat="42.0316360" lon="-8.8827410">
        <ele>14.5</ele>
        <time>2021-05-19T09:01:53Z</time>
      </trkpt>
      <trkpt lat="42.0316540" lon="-8.8827350">
        <ele>14.5</ele>
        <time>2021-05-19T09:01:54Z</time>
      </trkpt>
      <trkpt lat="42.0316700" lon="-8.8827250">
        <ele>14.5</ele>
        <time>2021-05-19T09:01:55Z</time>
      </trkpt>
      <trkpt lat="42.0316850" lon="-8.8827190">
        <ele>14.5</ele>
        <time>2021-05-19T09:01:56Z</time>
      </trkpt>
      <trkpt lat="42.0317010" lon="-8.8827140">
        <ele>14.5</ele>
        <time>2021-05-19T09:01:57Z</time>
      </trkpt>
      <trkpt lat="42.0317140" lon="-8.8827100">
        <ele>14.6</ele>
        <time>2021-05-19T09:01:58Z</time>
      </trkpt>
      <trkpt lat="42.0317290" lon="-8.8827020">
        <ele>14.6</ele>
        <time>2021-05-19T09:01:59Z</time>
      </trkpt>
      <trkpt lat="42.0317450" lon="-8.8826930">
        <ele>14.6</ele>
        <time>2021-05-19T09:02:00Z</time>
      </trkpt>
      <trkpt lat="42.0317620" lon="-8.8826870">
        <ele>14.6</ele>
        <time>2021-05-19T09:02:01Z</time>
      </trkpt>
      <trkpt lat="42.0317770" lon="-8.8826810">
        <ele>14.6</ele>
        <time>2021-05-19T09:02:02Z</time>
      </trkpt>
      <trkpt lat="42.0317900" lon="-8.8826760">
        <ele>14.6</ele>
        <time>2021-05-19T09:02:03Z</time>
      </trkpt>
      <trkpt lat="42.0318060" lon="-8.8826710">
        <ele>14.7</ele>
        <time>2021-05-19T09:02:04Z</time>
      </trkpt>
      <trkpt lat="42.0318200" lon="-8.8826660">
        <ele>14.7</ele>
        <time>2021-05-19T09:02:05Z</time>
      </trkpt>
      <trkpt lat="42.0318330" lon="-8.8826570">
        <ele>14.7</ele>
        <time>2021-05-19T09:02:06Z</time>
      </trkpt>
      <trkpt lat="42.0318490" lon="-8.8826500">
        <ele>14.7</ele>
        <time>2021-05-19T09:02:07Z</time>
      </trkpt>
      <trkpt lat="42.0318630" lon="-8.8826420">
        <ele>14.7</ele>
        <time>2021-05-19T09:02:08Z</time>
      </trkpt>
      <trkpt lat="42.0318770" lon="-8.8826350">
        <ele>14.7</ele>
        <time>2021-05-19T09:02:09Z</time>
      </trkpt>
      <trkpt lat="42.0318920" lon="-8.8826270">
        <ele>14.7</ele>
        <time>2021-05-19T09:02:10Z</time>
      </trkpt>
      <trkpt lat="42.0319050" lon="-8.8826240">
        <ele>14.8</ele>
        <time>2021-05-19T09:02:11Z</time>
      </trkpt>
      <trkpt lat="42.0319180" lon="-8.8826170">
        <ele>14.8</ele>
        <time>2021-05-19T09:02:12Z</time>
      </trkpt>
      <trkpt lat="42.0319340" lon="-8.8826130">
        <ele>14.8</ele>
        <time>2021-05-19T09:02:13Z</time>
      </trkpt>
      <trkpt lat="42.0319480" lon="-8.8826180">
        <ele>14.8</ele>
        <time>2021-05-19T09:02:14Z</time>
      </trkpt>
      <trkpt lat="42.0319630" lon="-8.8826130">
        <ele>14.8</ele>
        <time>2021-05-19T09:02:15Z</time>
      </trkpt>
      <trkpt lat="42.0319790" lon="-8.8826130">
        <ele>14.8</ele>
        <time>2021-05-19T09:02:16Z</time>
      </trkpt>
      <trkpt lat="42.0319950" lon="-8.8826130">
        <ele>14.8</ele>
        <time>2021-05-19T09:02:17Z</time>
      </trkpt>
      <trkpt lat="42.0320090" lon="-8.8826100">
        <ele>14.8</ele>
        <time>2021-05-19T09:02:18Z</time>
      </trkpt>
      <trkpt lat="42.0320230" lon="-8.8826110">
        <ele>14.8</ele>
        <time>2021-05-19T09:02:19Z</time>
      </trkpt>
      <trkpt lat="42.0320320" lon="-8.8826050">
        <ele>14.8</ele>
        <time>2021-05-19T09:02:20Z</time>
      </trkpt>
      <trkpt lat="42.0320390" lon="-8.8825970">
        <ele>14.9</ele>
        <time>2021-05-19T09:02:21Z</time>
      </trkpt>
      <trkpt lat="42.0320460" lon="-8.8825810">
        <ele>14.9</ele>
        <time>2021-05-19T09:02:22Z</time>
      </trkpt>
      <trkpt lat="42.0320540" lon="-8.8825770">
        <ele>14.9</ele>
        <time>2021-05-19T09:02:23Z</time>
      </trkpt>
      <trkpt lat="42.0320620" lon="-8.8825730">
        <ele>14.9</ele>
        <time>2021-05-19T09:02:24Z</time>
      </trkpt>
      <trkpt lat="42.0320720" lon="-8.8825570">
        <ele>14.9</ele>
        <time>2021-05-19T09:02:25Z</time>
      </trkpt>
      <trkpt lat="42.0320800" lon="-8.8825510">
        <ele>14.9</ele>
        <time>2021-05-19T09:02:26Z</time>
      </trkpt>
      <trkpt lat="42.0320870" lon="-8.8825440">
        <ele>14.9</ele>
        <time>2021-05-19T09:02:27Z</time>
      </trkpt>
      <trkpt lat="42.0320940" lon="-8.8825370">
        <ele>14.9</ele>
        <time>2021-05-19T09:02:28Z</time>
      </trkpt>
      <trkpt lat="42.0321150" lon="-8.8825290">
        <ele>14.9</ele>
        <time>2021-05-19T09:02:29Z</time>
      </trkpt>
      <trkpt lat="42.0321290" lon="-8.8825270">
        <ele>14.9</ele>
        <time>2021-05-19T09:02:30Z</time>
      </trkpt>
      <trkpt lat="42.0321450" lon="-8.8825290">
        <ele>14.9</ele>
        <time>2021-05-19T09:02:31Z</time>
      </trkpt>
      <trkpt lat="42.0321560" lon="-8.8825280">
        <ele>14.9</ele>
        <time>2021-05-19T09:02:32Z</time>
      </trkpt>
      <trkpt lat="42.0321660" lon="-8.8825270">
        <ele>14.9</ele>
        <time>2021-05-19T09:02:33Z</time>
      </trkpt>
      <trkpt lat="42.0321840" lon="-8.8825170">
        <ele>14.9</ele>
        <time>2021-05-19T09:02:34Z</time>
      </trkpt>
      <trkpt lat="42.0321900" lon="-8.8825140">
        <ele>14.9</ele>
        <time>2021-05-19T09:02:35Z</time>
      </trkpt>
      <trkpt lat="42.0321970" lon="-8.8825100">
        <ele>14.9</ele>
        <time>2021-05-19T09:02:36Z</time>
      </trkpt>
      <trkpt lat="42.0322030" lon="-8.8825070">
        <ele>14.9</ele>
        <time>2021-05-19T09:02:37Z</time>
      </trkpt>
      <trkpt lat="42.0322180" lon="-8.8825040">
        <ele>15.0</ele>
        <time>2021-05-19T09:02:38Z</time>
      </trkpt>
      <trkpt lat="42.0322270" lon="-8.8824990">
        <ele>15.0</ele>
        <time>2021-05-19T09:02:39Z</time>
      </trkpt>
      <trkpt lat="42.0322360" lon="-8.8824920">
        <ele>15.0</ele>
        <time>2021-05-19T09:02:40Z</time>
      </trkpt>
      <trkpt lat="42.0322510" lon="-8.8824800">
        <ele>15.0</ele>
        <time>2021-05-19T09:02:41Z</time>
      </trkpt>
      <trkpt lat="42.0322580" lon="-8.8824760">
        <ele>15.0</ele>
        <time>2021-05-19T09:02:42Z</time>
      </trkpt>
      <trkpt lat="42.0322660" lon="-8.8824710">
        <ele>15.0</ele>
        <time>2021-05-19T09:02:43Z</time>
      </trkpt>
      <trkpt lat="42.0322730" lon="-8.8824670">
        <ele>15.0</ele>
        <time>2021-05-19T09:02:44Z</time>
      </trkpt>
      <trkpt lat="42.0322910" lon="-8.8824570">
        <ele>15.0</ele>
        <time>2021-05-19T09:02:45Z</time>
      </trkpt>
      <trkpt lat="42.0323000" lon="-8.8824530">
        <ele>15.0</ele>
        <time>2021-05-19T09:02:46Z</time>
      </trkpt>
      <trkpt lat="42.0323080" lon="-8.8824500">
        <ele>15.0</ele>
        <time>2021-05-19T09:02:47Z</time>
      </trkpt>
      <trkpt lat="42.0323130" lon="-8.8824440">
        <ele>15.0</ele>
        <time>2021-05-19T09:02:48Z</time>
      </trkpt>
      <trkpt lat="42.0323270" lon="-8.8824370">
        <ele>15.0</ele>
        <time>2021-05-19T09:02:49Z</time>
      </trkpt>
      <trkpt lat="42.0323370" lon="-8.8824350">
        <ele>15.0</ele>
        <time>2021-05-19T09:02:50Z</time>
      </trkpt>
      <trkpt lat="42.0323560" lon="-8.8824250">
        <ele>15.0</ele>
        <time>2021-05-19T09:02:51Z</time>
      </trkpt>
      <trkpt lat="42.0323660" lon="-8.8824170">
        <ele>15.0</ele>
        <time>2021-05-19T09:02:52Z</time>
      </trkpt>
      <trkpt lat="42.0323780" lon="-8.8824160">
        <ele>15.1</ele>
        <time>2021-05-19T09:02:53Z</time>
      </trkpt>
      <trkpt lat="42.0323820" lon="-8.8824150">
        <ele>15.1</ele>
        <time>2021-05-19T09:02:54Z</time>
      </trkpt>
      <trkpt lat="42.0323920" lon="-8.8824080">
        <ele>15.1</ele>
        <time>2021-05-19T09:02:55Z</time>
      </trkpt>
      <trkpt lat="42.0324050" lon="-8.8824030">
        <ele>15.1</ele>
        <time>2021-05-19T09:02:56Z</time>
      </trkpt>
      <trkpt lat="42.0324130" lon="-8.8823970">
        <ele>15.1</ele>
        <time>2021-05-19T09:02:57Z</time>
      </trkpt>
      <trkpt lat="42.0324230" lon="-8.8823930">
        <ele>15.1</ele>
        <time>2021-05-19T09:02:58Z</time>
      </trkpt>
      <trkpt lat="42.0324390" lon="-8.8823910">
        <ele>15.1</ele>
        <time>2021-05-19T09:02:59Z</time>
      </trkpt>
      <trkpt lat="42.0324510" lon="-8.8823830">
        <ele>15.1</ele>
        <time>2021-05-19T09:03:00Z</time>
      </trkpt>
      <trkpt lat="42.0324700" lon="-8.8823810">
        <ele>15.1</ele>
        <time>2021-05-19T09:03:01Z</time>
      </trkpt>
      <trkpt lat="42.0324820" lon="-8.8823790">
        <ele>15.1</ele>
        <time>2021-05-19T09:03:02Z</time>
      </trkpt>
      <trkpt lat="42.0324890" lon="-8.8823750">
        <ele>15.1</ele>
        <time>2021-05-19T09:03:03Z</time>
      </trkpt>
      <trkpt lat="42.0325020" lon="-8.8823730">
        <ele>15.1</ele>
        <time>2021-05-19T09:03:04Z</time>
      </trkpt>
      <trkpt lat="42.0325110" lon="-8.8823610">
        <ele>15.2</ele>
        <time>2021-05-19T09:03:05Z</time>
      </trkpt>
      <trkpt lat="42.0325250" lon="-8.8823560">
        <ele>15.2</ele>
        <time>2021-05-19T09:03:06Z</time>
      </trkpt>
      <trkpt lat="42.0325360" lon="-8.8823480">
        <ele>15.2</ele>
        <time>2021-05-19T09:03:07Z</time>
      </trkpt>
      <trkpt lat="42.0325470" lon="-8.8823430">
        <ele>15.2</ele>
        <time>2021-05-19T09:03:08Z</time>
      </trkpt>
      <trkpt lat="42.0325580" lon="-8.8823350">
        <ele>15.2</ele>
        <time>2021-05-19T09:03:09Z</time>
      </trkpt>
      <trkpt lat="42.0325690" lon="-8.8823330">
        <ele>15.2</ele>
        <time>2021-05-19T09:03:10Z</time>
      </trkpt>
      <trkpt lat="42.0325820" lon="-8.8823320">
        <ele>15.2</ele>
        <time>2021-05-19T09:03:11Z</time>
      </trkpt>
      <trkpt lat="42.0325900" lon="-8.8823230">
        <ele>15.2</ele>
        <time>2021-05-19T09:03:12Z</time>
      </trkpt>
      <trkpt lat="42.0325980" lon="-8.8823140">
        <ele>15.2</ele>
        <time>2021-05-19T09:03:13Z</time>
      </trkpt>
      <trkpt lat="42.0326170" lon="-8.8823060">
        <ele>15.3</ele>
        <time>2021-05-19T09:03:14Z</time>
      </trkpt>
      <trkpt lat="42.0326280" lon="-8.8823040">
        <ele>15.3</ele>
        <time>2021-05-19T09:03:15Z</time>
      </trkpt>
      <trkpt lat="42.0326380" lon="-8.8823010">
        <ele>15.3</ele>
        <time>2021-05-19T09:03:16Z</time>
      </trkpt>
      <trkpt lat="42.0326560" lon="-8.8822980">
        <ele>15.3</ele>
        <time>2021-05-19T09:03:17Z</time>
      </trkpt>
      <trkpt lat="42.0326650" lon="-8.8822890">
        <ele>15.3</ele>
        <time>2021-05-19T09:03:18Z</time>
      </trkpt>
      <trkpt lat="42.0326780" lon="-8.8822840">
        <ele>15.3</ele>
        <time>2021-05-19T09:03:19Z</time>
      </trkpt>
      <trkpt lat="42.0326930" lon="-8.8822770">
        <ele>15.3</ele>
        <time>2021-05-19T09:03:20Z</time>
      </trkpt>
      <trkpt lat="42.0327040" lon="-8.8822740">
        <ele>15.4</ele>
        <time>2021-05-19T09:03:21Z</time>
      </trkpt>
      <trkpt lat="42.0327180" lon="-8.8822690">
        <ele>15.4</ele>
        <time>2021-05-19T09:03:22Z</time>
      </trkpt>
      <trkpt lat="42.0327280" lon="-8.8822680">
        <ele>15.4</ele>
        <time>2021-05-19T09:03:23Z</time>
      </trkpt>
      <trkpt lat="42.0327430" lon="-8.8822590">
        <ele>15.4</ele>
        <time>2021-05-19T09:03:24Z</time>
      </trkpt>
      <trkpt lat="42.0327630" lon="-8.8822580">
        <ele>15.4</ele>
        <time>2021-05-19T09:03:25Z</time>
      </trkpt>
      <trkpt lat="42.0327830" lon="-8.8822480">
        <ele>15.4</ele>
        <time>2021-05-19T09:03:26Z</time>
      </trkpt>
      <trkpt lat="42.0327930" lon="-8.8822480">
        <ele>15.4</ele>
        <time>2021-05-19T09:03:27Z</time>
      </trkpt>
      <trkpt lat="42.0328040" lon="-8.8822480">
        <ele>15.5</ele>
        <time>2021-05-19T09:03:28Z</time>
      </trkpt>
      <trkpt lat="42.0328160" lon="-8.8822360">
        <ele>15.5</ele>
        <time>2021-05-19T09:03:29Z</time>
      </trkpt>
      <trkpt lat="42.0328270" lon="-8.8822300">
        <ele>15.5</ele>
        <time>2021-05-19T09:03:30Z</time>
      </trkpt>
      <trkpt lat="42.0328370" lon="-8.8822250">
        <ele>15.5</ele>
        <time>2021-05-19T09:03:31Z</time>
      </trkpt>
      <trkpt lat="42.0328510" lon="-8.8822240">
        <ele>15.5</ele>
        <time>2021-05-19T09:03:32Z</time>
      </trkpt>
      <trkpt lat="42.0328640" lon="-8.8822130">
        <ele>15.5</ele>
        <time>2021-05-19T09:03:33Z</time>
      </trkpt>
      <trkpt lat="42.0328920" lon="-8.8822060">
        <ele>15.5</ele>
        <time>2021-05-19T09:03:34Z</time>
      </trkpt>
      <trkpt lat="42.0329020" lon="-8.8822040">
        <ele>15.6</ele>
        <time>2021-05-19T09:03:35Z</time>
      </trkpt>
      <trkpt lat="42.0329200" lon="-8.8821990">
        <ele>15.6</ele>
        <time>2021-05-19T09:03:36Z</time>
      </trkpt>
      <trkpt lat="42.0329380" lon="-8.8821940">
        <ele>15.6</ele>
        <time>2021-05-19T09:03:37Z</time>
      </trkpt>
      <trkpt lat="42.0329520" lon="-8.8821860">
        <ele>15.6</ele>
        <time>2021-05-19T09:03:38Z</time>
      </trkpt>
      <trkpt lat="42.0329670" lon="-8.8821830">
        <ele>15.6</ele>
        <time>2021-05-19T09:03:39Z</time>
      </trkpt>
      <trkpt lat="42.0329810" lon="-8.8821760">
        <ele>15.7</ele>
        <time>2021-05-19T09:03:40Z</time>
      </trkpt>
      <trkpt lat="42.0329970" lon="-8.8821740">
        <ele>15.7</ele>
        <time>2021-05-19T09:03:41Z</time>
      </trkpt>
      <trkpt lat="42.0330110" lon="-8.8821670">
        <ele>15.7</ele>
        <time>2021-05-19T09:03:42Z</time>
      </trkpt>
      <trkpt lat="42.0330270" lon="-8.8821600">
        <ele>15.7</ele>
        <time>2021-05-19T09:03:43Z</time>
      </trkpt>
      <trkpt lat="42.0330440" lon="-8.8821560">
        <ele>15.7</ele>
        <time>2021-05-19T09:03:44Z</time>
      </trkpt>
      <trkpt lat="42.0330610" lon="-8.8821530">
        <ele>15.8</ele>
        <time>2021-05-19T09:03:45Z</time>
      </trkpt>
      <trkpt lat="42.0330760" lon="-8.8821490">
        <ele>15.8</ele>
        <time>2021-05-19T09:03:46Z</time>
      </trkpt>
      <trkpt lat="42.0330880" lon="-8.8821480">
        <ele>15.8</ele>
        <time>2021-05-19T09:03:47Z</time>
      </trkpt>
      <trkpt lat="42.0331030" lon="-8.8821440">
        <ele>15.8</ele>
        <time>2021-05-19T09:03:48Z</time>
      </trkpt>
      <trkpt lat="42.0331170" lon="-8.8821470">
        <ele>15.8</ele>
        <time>2021-05-19T09:03:49Z</time>
      </trkpt>
      <trkpt lat="42.0331320" lon="-8.8821470">
        <ele>15.8</ele>
        <time>2021-05-19T09:03:50Z</time>
      </trkpt>
      <trkpt lat="42.0331460" lon="-8.8821440">
        <ele>15.9</ele>
        <time>2021-05-19T09:03:51Z</time>
      </trkpt>
      <trkpt lat="42.0331680" lon="-8.8821390">
        <ele>15.9</ele>
        <time>2021-05-19T09:03:52Z</time>
      </trkpt>
      <trkpt lat="42.0331770" lon="-8.8821370">
        <ele>15.9</ele>
        <time>2021-05-19T09:03:53Z</time>
      </trkpt>
      <trkpt lat="42.0331860" lon="-8.8821360">
        <ele>15.9</ele>
        <time>2021-05-19T09:03:54Z</time>
      </trkpt>
      <trkpt lat="42.0332020" lon="-8.8821340">
        <ele>15.9</ele>
        <time>2021-05-19T09:03:55Z</time>
      </trkpt>
      <trkpt lat="42.0332170" lon="-8.8821330">
        <ele>15.9</ele>
        <time>2021-05-19T09:03:56Z</time>
      </trkpt>
      <trkpt lat="42.0332320" lon="-8.8821290">
        <ele>16.0</ele>
        <time>2021-05-19T09:03:57Z</time>
      </trkpt>
      <trkpt lat="42.0332470" lon="-8.8821250">
        <ele>16.0</ele>
        <time>2021-05-19T09:03:58Z</time>
      </trkpt>
      <trkpt lat="42.0332630" lon="-8.8821280">
        <ele>16.0</ele>
        <time>2021-05-19T09:03:59Z</time>
      </trkpt>
      <trkpt lat="42.0332770" lon="-8.8821290">
        <ele>16.0</ele>
        <time>2021-05-19T09:04:00Z</time>
      </trkpt>
      <trkpt lat="42.0332940" lon="-8.8821280">
        <ele>16.0</ele>
        <time>2021-05-19T09:04:01Z</time>
      </trkpt>
      <trkpt lat="42.0333100" lon="-8.8821310">
        <ele>16.0</ele>
        <time>2021-05-19T09:04:02Z</time>
      </trkpt>
      <trkpt lat="42.0333250" lon="-8.8821270">
        <ele>16.1</ele>
        <time>2021-05-19T09:04:03Z</time>
      </trkpt>
      <trkpt lat="42.0333400" lon="-8.8821250">
        <ele>16.1</ele>
        <time>2021-05-19T09:04:04Z</time>
      </trkpt>
      <trkpt lat="42.0333540" lon="-8.8821280">
        <ele>16.1</ele>
        <time>2021-05-19T09:04:05Z</time>
      </trkpt>
      <trkpt lat="42.0333670" lon="-8.8821230">
        <ele>16.1</ele>
        <time>2021-05-19T09:04:06Z</time>
      </trkpt>
      <trkpt lat="42.0333750" lon="-8.8821280">
        <ele>16.1</ele>
        <time>2021-05-19T09:04:07Z</time>
      </trkpt>
      <trkpt lat="42.0333820" lon="-8.8821260">
        <ele>16.1</ele>
        <time>2021-05-19T09:04:08Z</time>
      </trkpt>
      <trkpt lat="42.0334000" lon="-8.8821250">
        <ele>16.1</ele>
        <time>2021-05-19T09:04:09Z</time>
      </trkpt>
      <trkpt lat="42.0334070" lon="-8.8821190">
        <ele>16.2</ele>
        <time>2021-05-19T09:04:10Z</time>
      </trkpt>
      <trkpt lat="42.0334200" lon="-8.8821210">
        <ele>16.2</ele>
        <time>2021-05-19T09:04:11Z</time>
      </trkpt>
      <trkpt lat="42.0334300" lon="-8.8821100">
        <ele>16.2</ele>
        <time>2021-05-19T09:04:12Z</time>
      </trkpt>
      <trkpt lat="42.0334380" lon="-8.8821160">
        <ele>16.2</ele>
        <time>2021-05-19T09:04:13Z</time>
      </trkpt>
      <trkpt lat="42.0334610" lon="-8.8821110">
        <ele>16.2</ele>
        <time>2021-05-19T09:04:14Z</time>
      </trkpt>
      <trkpt lat="42.0334730" lon="-8.8821040">
        <ele>16.2</ele>
        <time>2021-05-19T09:04:15Z</time>
      </trkpt>
      <trkpt lat="42.0334870" lon="-8.8820990">
        <ele>16.2</ele>
        <time>2021-05-19T09:04:16Z</time>
      </trkpt>
      <trkpt lat="42.0335030" lon="-8.8820960">
        <ele>16.2</ele>
        <time>2021-05-19T09:04:17Z</time>
      </trkpt>
      <trkpt lat="42.0335160" lon="-8.8820900">
        <ele>16.2</ele>
        <time>2021-05-19T09:04:18Z</time>
      </trkpt>
      <trkpt lat="42.0335310" lon="-8.8820830">
        <ele>16.3</ele>
        <time>2021-05-19T09:04:19Z</time>
      </trkpt>
      <trkpt lat="42.0335460" lon="-8.8820810">
        <ele>16.3</ele>
        <time>2021-05-19T09:04:20Z</time>
      </trkpt>
      <trkpt lat="42.0335610" lon="-8.8820760">
        <ele>16.3</ele>
        <time>2021-05-19T09:04:21Z</time>
      </trkpt>
      <trkpt lat="42.0335740" lon="-8.8820700">
        <ele>16.3</ele>
        <time>2021-05-19T09:04:22Z</time>
      </trkpt>
      <trkpt lat="42.0335970" lon="-8.8820630">
        <ele>16.3</ele>
        <time>2021-05-19T09:04:23Z</time>
      </trkpt>
      <trkpt lat="42.0336050" lon="-8.8820610">
        <ele>16.3</ele>
        <time>2021-05-19T09:04:24Z</time>
      </trkpt>
      <trkpt lat="42.0336130" lon="-8.8820600">
        <ele>16.3</ele>
        <time>2021-05-19T09:04:25Z</time>
      </trkpt>
      <trkpt lat="42.0336290" lon="-8.8820550">
        <ele>16.4</ele>
        <time>2021-05-19T09:04:26Z</time>
      </trkpt>
      <trkpt lat="42.0336420" lon="-8.8820510">
        <ele>16.4</ele>
        <time>2021-05-19T09:04:27Z</time>
      </trkpt>
      <trkpt lat="42.0336560" lon="-8.8820410">
        <ele>16.4</ele>
        <time>2021-05-19T09:04:28Z</time>
      </trkpt>
      <trkpt lat="42.0336690" lon="-8.8820360">
        <ele>16.4</ele>
        <time>2021-05-19T09:04:29Z</time>
      </trkpt>
      <trkpt lat="42.0336890" lon="-8.8820230">
        <ele>16.4</ele>
        <time>2021-05-19T09:04:30Z</time>
      </trkpt>
      <trkpt lat="42.0336980" lon="-8.8820210">
        <ele>16.4</ele>
        <time>2021-05-19T09:04:31Z</time>
      </trkpt>
      <trkpt lat="42.0337080" lon="-8.8820180">
        <ele>16.5</ele>
        <time>2021-05-19T09:04:32Z</time>
      </trkpt>
      <trkpt lat="42.0337200" lon="-8.8820110">
        <ele>16.5</ele>
        <time>2021-05-19T09:04:33Z</time>
      </trkpt>
      <trkpt lat="42.0337360" lon="-8.8820120">
        <ele>16.5</ele>
        <time>2021-05-19T09:04:34Z</time>
      </trkpt>
      <trkpt lat="42.0337570" lon="-8.8819980">
        <ele>16.5</ele>
        <time>2021-05-19T09:04:35Z</time>
      </trkpt>
      <trkpt lat="42.0337640" lon="-8.8819950">
        <ele>16.5</ele>
        <time>2021-05-19T09:04:36Z</time>
      </trkpt>
      <trkpt lat="42.0337720" lon="-8.8819910">
        <ele>16.6</ele>
        <time>2021-05-19T09:04:37Z</time>
      </trkpt>
      <trkpt lat="42.0337850" lon="-8.8819910">
        <ele>16.6</ele>
        <time>2021-05-19T09:04:38Z</time>
      </trkpt>
      <trkpt lat="42.0337990" lon="-8.8819880">
        <ele>16.6</ele>
        <time>2021-05-19T09:04:39Z</time>
      </trkpt>
      <trkpt lat="42.0338130" lon="-8.8819850">
        <ele>16.6</ele>
        <time>2021-05-19T09:04:40Z</time>
      </trkpt>
      <trkpt lat="42.0338270" lon="-8.8819830">
        <ele>16.7</ele>
        <time>2021-05-19T09:04:41Z</time>
      </trkpt>
      <trkpt lat="42.0338410" lon="-8.8819780">
        <ele>16.7</ele>
        <time>2021-05-19T09:04:42Z</time>
      </trkpt>
      <trkpt lat="42.0338570" lon="-8.8819740">
        <ele>16.7</ele>
        <time>2021-05-19T09:04:43Z</time>
      </trkpt>
      <trkpt lat="42.0338700" lon="-8.8819690">
        <ele>16.8</ele>
        <time>2021-05-19T09:04:44Z</time>
      </trkpt>
      <trkpt lat="42.0338840" lon="-8.8819680">
        <ele>16.8</ele>
        <time>2021-05-19T09:04:45Z</time>
      </trkpt>
      <trkpt lat="42.0338970" lon="-8.8819640">
        <ele>16.8</ele>
        <time>2021-05-19T09:04:46Z</time>
      </trkpt>
      <trkpt lat="42.0339130" lon="-8.8819620">
        <ele>16.9</ele>
        <time>2021-05-19T09:04:47Z</time>
      </trkpt>
      <trkpt lat="42.0339350" lon="-8.8819620">
        <ele>16.9</ele>
        <time>2021-05-19T09:04:48Z</time>
      </trkpt>
      <trkpt lat="42.0339430" lon="-8.8819620">
        <ele>16.9</ele>
        <time>2021-05-19T09:04:49Z</time>
      </trkpt>
      <trkpt lat="42.0339520" lon="-8.8819620">
        <ele>17.0</ele>
        <time>2021-05-19T09:04:50Z</time>
      </trkpt>
      <trkpt lat="42.0339730" lon="-8.8819620">
        <ele>17.0</ele>
        <time>2021-05-19T09:04:51Z</time>
      </trkpt>
      <trkpt lat="42.0339830" lon="-8.8819630">
        <ele>17.0</ele>
        <time>2021-05-19T09:04:52Z</time>
      </trkpt>
      <trkpt lat="42.0339920" lon="-8.8819640">
        <ele>17.0</ele>
        <time>2021-05-19T09:04:53Z</time>
      </trkpt>
      <trkpt lat="42.0340060" lon="-8.8819580">
        <ele>17.1</ele>
        <time>2021-05-19T09:04:54Z</time>
      </trkpt>
      <trkpt lat="42.0340190" lon="-8.8819510">
        <ele>17.1</ele>
        <time>2021-05-19T09:04:55Z</time>
      </trkpt>
      <trkpt lat="42.0340300" lon="-8.8819350">
        <ele>17.2</ele>
        <time>2021-05-19T09:04:56Z</time>
      </trkpt>
      <trkpt lat="42.0340410" lon="-8.8819190">
        <ele>17.3</ele>
        <time>2021-05-19T09:04:57Z</time>
      </trkpt>
      <trkpt lat="42.0340450" lon="-8.8818940">
        <ele>17.3</ele>
        <time>2021-05-19T09:04:58Z</time>
      </trkpt>
      <trkpt lat="42.0340430" lon="-8.8818700">
        <ele>17.3</ele>
        <time>2021-05-19T09:04:59Z</time>
      </trkpt>
      <trkpt lat="42.0340410" lon="-8.8818500">
        <ele>17.4</ele>
        <time>2021-05-19T09:05:00Z</time>
      </trkpt>
      <trkpt lat="42.0340380" lon="-8.8818420">
        <ele>17.4</ele>
        <time>2021-05-19T09:05:01Z</time>
      </trkpt>
      <trkpt lat="42.0340360" lon="-8.8818270">
        <ele>17.4</ele>
        <time>2021-05-19T09:05:02Z</time>
      </trkpt>
      <trkpt lat="42.0340350" lon="-8.8818080">
        <ele>17.4</ele>
        <time>2021-05-19T09:05:03Z</time>
      </trkpt>
      <trkpt lat="42.0340320" lon="-8.8817890">
        <ele>17.5</ele>
        <time>2021-05-19T09:05:04Z</time>
      </trkpt>
      <trkpt lat="42.0340310" lon="-8.8817850">
        <ele>17.5</ele>
        <time>2021-05-19T09:05:05Z</time>
      </trkpt>
      <trkpt lat="42.0340330" lon="-8.8817630">
        <ele>17.5</ele>
        <time>2021-05-19T09:05:06Z</time>
      </trkpt>
      <trkpt lat="42.0340310" lon="-8.8817570">
        <ele>17.6</ele>
        <time>2021-05-19T09:05:07Z</time>
      </trkpt>
      <trkpt lat="42.0340270" lon="-8.8817510">
        <ele>17.6</ele>
        <time>2021-05-19T09:05:08Z</time>
      </trkpt>
      <trkpt lat="42.0340280" lon="-8.8817430">
        <ele>17.6</ele>
        <time>2021-05-19T09:05:09Z</time>
      </trkpt>
      <trkpt lat="42.0340270" lon="-8.8817360">
        <ele>17.6</ele>
        <time>2021-05-19T09:05:10Z</time>
      </trkpt>
      <trkpt lat="42.0340280" lon="-8.8817370">
        <ele>17.6</ele>
        <time>2021-05-19T09:05:11Z</time>
      </trkpt>
      <trkpt lat="42.0340320" lon="-8.8817280">
        <ele>17.6</ele>
        <time>2021-05-19T09:05:12Z</time>
      </trkpt>
      <trkpt lat="42.0340430" lon="-8.8817150">
        <ele>17.7</ele>
        <time>2021-05-19T09:05:13Z</time>
      </trkpt>
      <trkpt lat="42.0340570" lon="-8.8817070">
        <ele>17.7</ele>
        <time>2021-05-19T09:05:14Z</time>
      </trkpt>
      <trkpt lat="42.0340660" lon="-8.8817030">
        <ele>17.8</ele>
        <time>2021-05-19T09:05:15Z</time>
      </trkpt>
      <trkpt lat="42.0340720" lon="-8.8816990">
        <ele>17.8</ele>
        <time>2021-05-19T09:05:16Z</time>
      </trkpt>
      <trkpt lat="42.0340790" lon="-8.8816910">
        <ele>17.8</ele>
        <time>2021-05-19T09:05:17Z</time>
      </trkpt>
      <trkpt lat="42.0340880" lon="-8.8816850">
        <ele>17.8</ele>
        <time>2021-05-19T09:05:18Z</time>
      </trkpt>
      <trkpt lat="42.0340960" lon="-8.8816770">
        <ele>17.9</ele>
        <time>2021-05-19T09:05:19Z</time>
      </trkpt>
      <trkpt lat="42.0341060" lon="-8.8816620">
        <ele>17.9</ele>
        <time>2021-05-19T09:05:20Z</time>
      </trkpt>
      <trkpt lat="42.0341110" lon="-8.8816560">
        <ele>17.9</ele>
        <time>2021-05-19T09:05:21Z</time>
      </trkpt>
      <trkpt lat="42.0341170" lon="-8.8816490">
        <ele>17.9</ele>
        <time>2021-05-19T09:05:22Z</time>
      </trkpt>
      <trkpt lat="42.0341220" lon="-8.8816420">
        <ele>18.0</ele>
        <time>2021-05-19T09:05:23Z</time>
      </trkpt>
      <trkpt lat="42.0341400" lon="-8.8816240">
        <ele>18.0</ele>
        <time>2021-05-19T09:05:24Z</time>
      </trkpt>
      <trkpt lat="42.0341480" lon="-8.8816170">
        <ele>18.0</ele>
        <time>2021-05-19T09:05:25Z</time>
      </trkpt>
      <trkpt lat="42.0341560" lon="-8.8816100">
        <ele>18.0</ele>
        <time>2021-05-19T09:05:26Z</time>
      </trkpt>
      <trkpt lat="42.0341640" lon="-8.8816010">
        <ele>18.1</ele>
        <time>2021-05-19T09:05:27Z</time>
      </trkpt>
      <trkpt lat="42.0341690" lon="-8.8815910">
        <ele>18.1</ele>
        <time>2021-05-19T09:05:28Z</time>
      </trkpt>
      <trkpt lat="42.0341780" lon="-8.8815810">
        <ele>18.1</ele>
        <time>2021-05-19T09:05:29Z</time>
      </trkpt>
      <trkpt lat="42.0341880" lon="-8.8815700">
        <ele>18.1</ele>
        <time>2021-05-19T09:05:30Z</time>
      </trkpt>
      <trkpt lat="42.0341960" lon="-8.8815650">
        <ele>18.2</ele>
        <time>2021-05-19T09:05:31Z</time>
      </trkpt>
      <trkpt lat="42.0342050" lon="-8.8815570">
        <ele>18.2</ele>
        <time>2021-05-19T09:05:32Z</time>
      </trkpt>
      <trkpt lat="42.0342190" lon="-8.8815420">
        <ele>18.2</ele>
        <time>2021-05-19T09:05:33Z</time>
      </trkpt>
      <trkpt lat="42.0342230" lon="-8.8815360">
        <ele>18.2</ele>
        <time>2021-05-19T09:05:34Z</time>
      </trkpt>
      <trkpt lat="42.0342280" lon="-8.8815290">
        <ele>18.3</ele>
        <time>2021-05-19T09:05:35Z</time>
      </trkpt>
      <trkpt lat="42.0342320" lon="-8.8815230">
        <ele>18.3</ele>
        <time>2021-05-19T09:05:36Z</time>
      </trkpt>
      <trkpt lat="42.0342360" lon="-8.8815170">
        <ele>18.3</ele>
        <time>2021-05-19T09:05:37Z</time>
      </trkpt>
      <trkpt lat="42.0342530" lon="-8.8815070">
        <ele>18.3</ele>
        <time>2021-05-19T09:05:38Z</time>
      </trkpt>
      <trkpt lat="42.0342630" lon="-8.8815040">
        <ele>18.4</ele>
        <time>2021-05-19T09:05:39Z</time>
      </trkpt>
      <trkpt lat="42.0342720" lon="-8.8815010">
        <ele>18.4</ele>
        <time>2021-05-19T09:05:40Z</time>
      </trkpt>
      <trkpt lat="42.0342940" lon="-8.8814940">
        <ele>18.4</ele>
        <time>2021-05-19T09:05:41Z</time>
      </trkpt>
      <trkpt lat="42.0343000" lon="-8.8814910">
        <ele>18.4</ele>
        <time>2021-05-19T09:05:42Z</time>
      </trkpt>
      <trkpt lat="42.0343070" lon="-8.8814880">
        <ele>18.5</ele>
        <time>2021-05-19T09:05:43Z</time>
      </trkpt>
      <trkpt lat="42.0343150" lon="-8.8814890">
        <ele>18.5</ele>
        <time>2021-05-19T09:05:44Z</time>
      </trkpt>
      <trkpt lat="42.0343260" lon="-8.8814840">
        <ele>18.5</ele>
        <time>2021-05-19T09:05:45Z</time>
      </trkpt>
      <trkpt lat="42.0343400" lon="-8.8814780">
        <ele>18.5</ele>
        <time>2021-05-19T09:05:46Z</time>
      </trkpt>
      <trkpt lat="42.0343590" lon="-8.8814620">
        <ele>18.6</ele>
        <time>2021-05-19T09:05:47Z</time>
      </trkpt>
      <trkpt lat="42.0343660" lon="-8.8814560">
        <ele>18.6</ele>
        <time>2021-05-19T09:05:48Z</time>
      </trkpt>
      <trkpt lat="42.0343730" lon="-8.8814510">
        <ele>18.6</ele>
        <time>2021-05-19T09:05:49Z</time>
      </trkpt>
      <trkpt lat="42.0343900" lon="-8.8814320">
        <ele>18.7</ele>
        <time>2021-05-19T09:05:50Z</time>
      </trkpt>
      <trkpt lat="42.0343970" lon="-8.8814250">
        <ele>18.7</ele>
        <time>2021-05-19T09:05:51Z</time>
      </trkpt>
      <trkpt lat="42.0344050" lon="-8.8814170">
        <ele>18.7</ele>
        <time>2021-05-19T09:05:52Z</time>
      </trkpt>
      <trkpt lat="42.0344170" lon="-8.8814090">
        <ele>18.7</ele>
        <time>2021-05-19T09:05:53Z</time>
      </trkpt>
      <trkpt lat="42.0344280" lon="-8.8814040">
        <ele>18.7</ele>
        <time>2021-05-19T09:05:54Z</time>
      </trkpt>
      <trkpt lat="42.0344340" lon="-8.8813990">
        <ele>18.8</ele>
        <time>2021-05-19T09:05:55Z</time>
      </trkpt>
      <trkpt lat="42.0344530" lon="-8.8813840">
        <ele>18.8</ele>
        <time>2021-05-19T09:05:56Z</time>
      </trkpt>
      <trkpt lat="42.0344610" lon="-8.8813780">
        <ele>18.8</ele>
        <time>2021-05-19T09:05:57Z</time>
      </trkpt>
      <trkpt lat="42.0344680" lon="-8.8813730">
        <ele>18.8</ele>
        <time>2021-05-19T09:05:58Z</time>
      </trkpt>
      <trkpt lat="42.0344950" lon="-8.8813650">
        <ele>18.9</ele>
        <time>2021-05-19T09:05:59Z</time>
      </trkpt>
      <trkpt lat="42.0345000" lon="-8.8813620">
        <ele>18.9</ele>
        <time>2021-05-19T09:06:00Z</time>
      </trkpt>
      <trkpt lat="42.0345060" lon="-8.8813580">
        <ele>18.9</ele>
        <time>2021-05-19T09:06:01Z</time>
      </trkpt>
      <trkpt lat="42.0345220" lon="-8.8813400">
        <ele>19.0</ele>
        <time>2021-05-19T09:06:02Z</time>
      </trkpt>
      <trkpt lat="42.0345280" lon="-8.8813320">
        <ele>19.0</ele>
        <time>2021-05-19T09:06:03Z</time>
      </trkpt>
      <trkpt lat="42.0345330" lon="-8.8813240">
        <ele>19.0</ele>
        <time>2021-05-19T09:06:04Z</time>
      </trkpt>
      <trkpt lat="42.0345500" lon="-8.8813020">
        <ele>19.1</ele>
        <time>2021-05-19T09:06:05Z</time>
      </trkpt>
      <trkpt lat="42.0345550" lon="-8.8812960">
        <ele>19.1</ele>
        <time>2021-05-19T09:06:06Z</time>
      </trkpt>
      <trkpt lat="42.0345610" lon="-8.8812900">
        <ele>19.1</ele>
        <time>2021-05-19T09:06:07Z</time>
      </trkpt>
      <trkpt lat="42.0345680" lon="-8.8812720">
        <ele>19.2</ele>
        <time>2021-05-19T09:06:08Z</time>
      </trkpt>
      <trkpt lat="42.0345790" lon="-8.8812530">
        <ele>19.2</ele>
        <time>2021-05-19T09:06:09Z</time>
      </trkpt>
      <trkpt lat="42.0345920" lon="-8.8812380">
        <ele>19.2</ele>
        <time>2021-05-19T09:06:10Z</time>
      </trkpt>
      <trkpt lat="42.0345980" lon="-8.8812230">
        <ele>19.2</ele>
        <time>2021-05-19T09:06:11Z</time>
      </trkpt>
      <trkpt lat="42.0345990" lon="-8.8812120">
        <ele>19.2</ele>
        <time>2021-05-19T09:06:12Z</time>
      </trkpt>
      <trkpt lat="42.0346060" lon="-8.8811910">
        <ele>19.3</ele>
        <time>2021-05-19T09:06:13Z</time>
      </trkpt>
      <trkpt lat="42.0346050" lon="-8.8811760">
        <ele>19.3</ele>
        <time>2021-05-19T09:06:14Z</time>
      </trkpt>
      <trkpt lat="42.0346000" lon="-8.8811510">
        <ele>19.5</ele>
        <time>2021-05-19T09:06:15Z</time>
      </trkpt>
      <trkpt lat="42.0346030" lon="-8.8811390">
        <ele>19.5</ele>
        <time>2021-05-19T09:06:16Z</time>
      </trkpt>
      <trkpt lat="42.0346060" lon="-8.8811260">
        <ele>19.5</ele>
        <time>2021-05-19T09:06:17Z</time>
      </trkpt>
      <trkpt lat="42.0346070" lon="-8.8811070">
        <ele>19.6</ele>
        <time>2021-05-19T09:06:18Z</time>
      </trkpt>
      <trkpt lat="42.0346060" lon="-8.8810950">
        <ele>19.6</ele>
        <time>2021-05-19T09:06:19Z</time>
      </trkpt>
      <trkpt lat="42.0346130" lon="-8.8810790">
        <ele>19.7</ele>
        <time>2021-05-19T09:06:20Z</time>
      </trkpt>
      <trkpt lat="42.0346220" lon="-8.8810530">
        <ele>19.8</ele>
        <time>2021-05-19T09:06:21Z</time>
      </trkpt>
      <trkpt lat="42.0346240" lon="-8.8810430">
        <ele>19.8</ele>
        <time>2021-05-19T09:06:22Z</time>
      </trkpt>
      <trkpt lat="42.0346260" lon="-8.8810320">
        <ele>19.9</ele>
        <time>2021-05-19T09:06:23Z</time>
      </trkpt>
      <trkpt lat="42.0346310" lon="-8.8810200">
        <ele>19.9</ele>
        <time>2021-05-19T09:06:24Z</time>
      </trkpt>
      <trkpt lat="42.0346390" lon="-8.8810090">
        <ele>19.9</ele>
        <time>2021-05-19T09:06:25Z</time>
      </trkpt>
      <trkpt lat="42.0346420" lon="-8.8809940">
        <ele>20.0</ele>
        <time>2021-05-19T09:06:26Z</time>
      </trkpt>
      <trkpt lat="42.0346550" lon="-8.8809650">
        <ele>20.1</ele>
        <time>2021-05-19T09:06:27Z</time>
      </trkpt>
      <trkpt lat="42.0346590" lon="-8.8809560">
        <ele>20.1</ele>
        <time>2021-05-19T09:06:28Z</time>
      </trkpt>
      <trkpt lat="42.0346630" lon="-8.8809470">
        <ele>20.2</ele>
        <time>2021-05-19T09:06:29Z</time>
      </trkpt>
      <trkpt lat="42.0346780" lon="-8.8809360">
        <ele>20.2</ele>
        <time>2021-05-19T09:06:30Z</time>
      </trkpt>
      <trkpt lat="42.0346800" lon="-8.8809220">
        <ele>20.3</ele>
        <time>2021-05-19T09:06:31Z</time>
      </trkpt>
      <trkpt lat="42.0346860" lon="-8.8809100">
        <ele>20.3</ele>
        <time>2021-05-19T09:06:32Z</time>
      </trkpt>
      <trkpt lat="42.0346960" lon="-8.8808960">
        <ele>20.3</ele>
        <time>2021-05-19T09:06:33Z</time>
      </trkpt>
      <trkpt lat="42.0347140" lon="-8.8808860">
        <ele>20.4</ele>
        <time>2021-05-19T09:06:34Z</time>
      </trkpt>
      <trkpt lat="42.0347200" lon="-8.8808790">
        <ele>20.4</ele>
        <time>2021-05-19T09:06:35Z</time>
      </trkpt>
      <trkpt lat="42.0347260" lon="-8.8808650">
        <ele>20.4</ele>
        <time>2021-05-19T09:06:36Z</time>
      </trkpt>
      <trkpt lat="42.0347310" lon="-8.8808540">
        <ele>20.5</ele>
        <time>2021-05-19T09:06:37Z</time>
      </trkpt>
      <trkpt lat="42.0347420" lon="-8.8808420">
        <ele>20.5</ele>
        <time>2021-05-19T09:06:38Z</time>
      </trkpt>
      <trkpt lat="42.0347520" lon="-8.8808280">
        <ele>20.5</ele>
        <time>2021-05-19T09:06:39Z</time>
      </trkpt>
      <trkpt lat="42.0347610" lon="-8.8808210">
        <ele>20.6</ele>
        <time>2021-05-19T09:06:40Z</time>
      </trkpt>
      <trkpt lat="42.0347670" lon="-8.8808120">
        <ele>20.6</ele>
        <time>2021-05-19T09:06:41Z</time>
      </trkpt>
      <trkpt lat="42.0347780" lon="-8.8808010">
        <ele>20.6</ele>
        <time>2021-05-19T09:06:42Z</time>
      </trkpt>
      <trkpt lat="42.0347900" lon="-8.8807890">
        <ele>20.6</ele>
        <time>2021-05-19T09:06:43Z</time>
      </trkpt>
      <trkpt lat="42.0348000" lon="-8.8807770">
        <ele>20.7</ele>
        <time>2021-05-19T09:06:44Z</time>
      </trkpt>
      <trkpt lat="42.0348140" lon="-8.8807650">
        <ele>20.7</ele>
        <time>2021-05-19T09:06:45Z</time>
      </trkpt>
      <trkpt lat="42.0348230" lon="-8.8807590">
        <ele>20.7</ele>
        <time>2021-05-19T09:06:46Z</time>
      </trkpt>
      <trkpt lat="42.0348320" lon="-8.8807530">
        <ele>20.7</ele>
        <time>2021-05-19T09:06:47Z</time>
      </trkpt>
      <trkpt lat="42.0348490" lon="-8.8807460">
        <ele>20.7</ele>
        <time>2021-05-19T09:06:48Z</time>
      </trkpt>
      <trkpt lat="42.0348620" lon="-8.8807370">
        <ele>20.8</ele>
        <time>2021-05-19T09:06:49Z</time>
      </trkpt>
      <trkpt lat="42.0348780" lon="-8.8807270">
        <ele>20.8</ele>
        <time>2021-05-19T09:06:50Z</time>
      </trkpt>
      <trkpt lat="42.0348910" lon="-8.8807210">
        <ele>20.8</ele>
        <time>2021-05-19T09:06:51Z</time>
      </trkpt>
      <trkpt lat="42.0349050" lon="-8.8807130">
        <ele>20.8</ele>
        <time>2021-05-19T09:06:52Z</time>
      </trkpt>
      <trkpt lat="42.0349180" lon="-8.8807090">
        <ele>20.8</ele>
        <time>2021-05-19T09:06:53Z</time>
      </trkpt>
      <trkpt lat="42.0349290" lon="-8.8807050">
        <ele>20.9</ele>
        <time>2021-05-19T09:06:54Z</time>
      </trkpt>
      <trkpt lat="42.0349400" lon="-8.8807030">
        <ele>20.9</ele>
        <time>2021-05-19T09:06:55Z</time>
      </trkpt>
      <trkpt lat="42.0349520" lon="-8.8806990">
        <ele>20.9</ele>
        <time>2021-05-19T09:06:56Z</time>
      </trkpt>
      <trkpt lat="42.0349680" lon="-8.8806920">
        <ele>20.9</ele>
        <time>2021-05-19T09:06:57Z</time>
      </trkpt>
      <trkpt lat="42.0349840" lon="-8.8806870">
        <ele>20.9</ele>
        <time>2021-05-19T09:06:58Z</time>
      </trkpt>
      <trkpt lat="42.0349920" lon="-8.8806850">
        <ele>20.9</ele>
        <time>2021-05-19T09:06:59Z</time>
      </trkpt>
      <trkpt lat="42.0350060" lon="-8.8806800">
        <ele>20.9</ele>
        <time>2021-05-19T09:07:00Z</time>
      </trkpt>
      <trkpt lat="42.0350140" lon="-8.8806830">
        <ele>21.0</ele>
        <time>2021-05-19T09:07:01Z</time>
      </trkpt>
      <trkpt lat="42.0350300" lon="-8.8806730">
        <ele>21.0</ele>
        <time>2021-05-19T09:07:02Z</time>
      </trkpt>
      <trkpt lat="42.0350420" lon="-8.8806690">
        <ele>21.0</ele>
        <time>2021-05-19T09:07:03Z</time>
      </trkpt>
      <trkpt lat="42.0350570" lon="-8.8806640">
        <ele>21.0</ele>
        <time>2021-05-19T09:07:04Z</time>
      </trkpt>
      <trkpt lat="42.0350690" lon="-8.8806610">
        <ele>21.0</ele>
        <time>2021-05-19T09:07:05Z</time>
      </trkpt>
      <trkpt lat="42.0350800" lon="-8.8806590">
        <ele>21.0</ele>
        <time>2021-05-19T09:07:06Z</time>
      </trkpt>
      <trkpt lat="42.0350830" lon="-8.8806580">
        <ele>21.0</ele>
        <time>2021-05-19T09:07:07Z</time>
      </trkpt>
      <trkpt lat="42.0350900" lon="-8.8806530">
        <ele>21.0</ele>
        <time>2021-05-19T09:07:08Z</time>
      </trkpt>
      <trkpt lat="42.0351040" lon="-8.8806510">
        <ele>21.1</ele>
        <time>2021-05-19T09:07:09Z</time>
      </trkpt>
      <trkpt lat="42.0351280" lon="-8.8806450">
        <ele>21.1</ele>
        <time>2021-05-19T09:07:10Z</time>
      </trkpt>
      <trkpt lat="42.0351380" lon="-8.8806420">
        <ele>21.1</ele>
        <time>2021-05-19T09:07:11Z</time>
      </trkpt>
      <trkpt lat="42.0351490" lon="-8.8806380">
        <ele>21.1</ele>
        <time>2021-05-19T09:07:12Z</time>
      </trkpt>
      <trkpt lat="42.0351580" lon="-8.8806370">
        <ele>21.1</ele>
        <time>2021-05-19T09:07:13Z</time>
      </trkpt>
      <trkpt lat="42.0351670" lon="-8.8806330">
        <ele>21.1</ele>
        <time>2021-05-19T09:07:14Z</time>
      </trkpt>
      <trkpt lat="42.0351800" lon="-8.8806280">
        <ele>21.1</ele>
        <time>2021-05-19T09:07:15Z</time>
      </trkpt>
      <trkpt lat="42.0351840" lon="-8.8806190">
        <ele>21.1</ele>
        <time>2021-05-19T09:07:16Z</time>
      </trkpt>
      <trkpt lat="42.0352050" lon="-8.8806090">
        <ele>21.2</ele>
        <time>2021-05-19T09:07:17Z</time>
      </trkpt>
      <trkpt lat="42.0352130" lon="-8.8806090">
        <ele>21.2</ele>
        <time>2021-05-19T09:07:18Z</time>
      </trkpt>
      <trkpt lat="42.0352230" lon="-8.8806080">
        <ele>21.2</ele>
        <time>2021-05-19T09:07:19Z</time>
      </trkpt>
      <trkpt lat="42.0352350" lon="-8.8806000">
        <ele>21.2</ele>
        <time>2021-05-19T09:07:20Z</time>
      </trkpt>
      <trkpt lat="42.0352450" lon="-8.8805960">
        <ele>21.2</ele>
        <time>2021-05-19T09:07:21Z</time>
      </trkpt>
      <trkpt lat="42.0352650" lon="-8.8805900">
        <ele>21.3</ele>
        <time>2021-05-19T09:07:22Z</time>
      </trkpt>
      <trkpt lat="42.0352870" lon="-8.8805840">
        <ele>21.3</ele>
        <time>2021-05-19T09:07:23Z</time>
      </trkpt>
      <trkpt lat="42.0352930" lon="-8.8805810">
        <ele>21.3</ele>
        <time>2021-05-19T09:07:24Z</time>
      </trkpt>
      <trkpt lat="42.0353000" lon="-8.8805770">
        <ele>21.3</ele>
        <time>2021-05-19T09:07:25Z</time>
      </trkpt>
      <trkpt lat="42.0353120" lon="-8.8805790">
        <ele>21.3</ele>
        <time>2021-05-19T09:07:26Z</time>
      </trkpt>
      <trkpt lat="42.0353190" lon="-8.8805710">
        <ele>21.3</ele>
        <time>2021-05-19T09:07:27Z</time>
      </trkpt>
      <trkpt lat="42.0353350" lon="-8.8805680">
        <ele>21.4</ele>
        <time>2021-05-19T09:07:28Z</time>
      </trkpt>
      <trkpt lat="42.0353510" lon="-8.8805610">
        <ele>21.4</ele>
        <time>2021-05-19T09:07:29Z</time>
      </trkpt>
      <trkpt lat="42.0353670" lon="-8.8805560">
        <ele>21.4</ele>
        <time>2021-05-19T09:07:30Z</time>
      </trkpt>
      <trkpt lat="42.0353860" lon="-8.8805470">
        <ele>21.5</ele>
        <time>2021-05-19T09:07:31Z</time>
      </trkpt>
      <trkpt lat="42.0353940" lon="-8.8805410">
        <ele>21.5</ele>
        <time>2021-05-19T09:07:32Z</time>
      </trkpt>
      <trkpt lat="42.0354010" lon="-8.8805360">
        <ele>21.5</ele>
        <time>2021-05-19T09:07:33Z</time>
      </trkpt>
      <trkpt lat="42.0354140" lon="-8.8805250">
        <ele>21.5</ele>
        <time>2021-05-19T09:07:34Z</time>
      </trkpt>
      <trkpt lat="42.0354280" lon="-8.8805160">
        <ele>21.6</ele>
        <time>2021-05-19T09:07:35Z</time>
      </trkpt>
      <trkpt lat="42.0354390" lon="-8.8805110">
        <ele>21.6</ele>
        <time>2021-05-19T09:07:36Z</time>
      </trkpt>
      <trkpt lat="42.0354470" lon="-8.8805070">
        <ele>21.6</ele>
        <time>2021-05-19T09:07:37Z</time>
      </trkpt>
      <trkpt lat="42.0354540" lon="-8.8804970">
        <ele>21.6</ele>
        <time>2021-05-19T09:07:38Z</time>
      </trkpt>
      <trkpt lat="42.0354750" lon="-8.8804860">
        <ele>21.7</ele>
        <time>2021-05-19T09:07:39Z</time>
      </trkpt>
      <trkpt lat="42.0354810" lon="-8.8804830">
        <ele>21.7</ele>
        <time>2021-05-19T09:07:40Z</time>
      </trkpt>
      <trkpt lat="42.0354880" lon="-8.8804790">
        <ele>21.7</ele>
        <time>2021-05-19T09:07:41Z</time>
      </trkpt>
      <trkpt lat="42.0355000" lon="-8.8804690">
        <ele>21.8</ele>
        <time>2021-05-19T09:07:42Z</time>
      </trkpt>
      <trkpt lat="42.0355140" lon="-8.8804580">
        <ele>21.8</ele>
        <time>2021-05-19T09:07:43Z</time>
      </trkpt>
      <trkpt lat="42.0355280" lon="-8.8804410">
        <ele>21.9</ele>
        <time>2021-05-19T09:07:44Z</time>
      </trkpt>
      <trkpt lat="42.0355380" lon="-8.8804330">
        <ele>21.9</ele>
        <time>2021-05-19T09:07:45Z</time>
      </trkpt>
      <trkpt lat="42.0355430" lon="-8.8804290">
        <ele>21.9</ele>
        <time>2021-05-19T09:07:46Z</time>
      </trkpt>
      <trkpt lat="42.0355540" lon="-8.8804200">
        <ele>21.9</ele>
        <time>2021-05-19T09:07:47Z</time>
      </trkpt>
      <trkpt lat="42.0355640" lon="-8.8804130">
        <ele>22.0</ele>
        <time>2021-05-19T09:07:48Z</time>
      </trkpt>
      <trkpt lat="42.0355760" lon="-8.8804040">
        <ele>22.0</ele>
        <time>2021-05-19T09:07:49Z</time>
      </trkpt>
      <trkpt lat="42.0355830" lon="-8.8803940">
        <ele>22.0</ele>
        <time>2021-05-19T09:07:50Z</time>
      </trkpt>
      <trkpt lat="42.0355890" lon="-8.8803820">
        <ele>22.1</ele>
        <time>2021-05-19T09:07:51Z</time>
      </trkpt>
      <trkpt lat="42.0356030" lon="-8.8803710">
        <ele>22.1</ele>
        <time>2021-05-19T09:07:52Z</time>
      </trkpt>
      <trkpt lat="42.0356180" lon="-8.8803600">
        <ele>22.1</ele>
        <time>2021-05-19T09:07:53Z</time>
      </trkpt>
      <trkpt lat="42.0356310" lon="-8.8803500">
        <ele>22.2</ele>
        <time>2021-05-19T09:07:54Z</time>
      </trkpt>
      <trkpt lat="42.0356390" lon="-8.8803430">
        <ele>22.2</ele>
        <time>2021-05-19T09:07:55Z</time>
      </trkpt>
      <trkpt lat="42.0356460" lon="-8.8803370">
        <ele>22.2</ele>
        <time>2021-05-19T09:07:56Z</time>
      </trkpt>
      <trkpt lat="42.0356570" lon="-8.8803310">
        <ele>22.2</ele>
        <time>2021-05-19T09:07:57Z</time>
      </trkpt>
      <trkpt lat="42.0356740" lon="-8.8803220">
        <ele>22.2</ele>
        <time>2021-05-19T09:07:58Z</time>
      </trkpt>
      <trkpt lat="42.0356770" lon="-8.8803220">
        <ele>22.2</ele>
        <time>2021-05-19T09:07:59Z</time>
      </trkpt>
      <trkpt lat="42.0356890" lon="-8.8803140">
        <ele>22.2</ele>
        <time>2021-05-19T09:08:00Z</time>
      </trkpt>
      <trkpt lat="42.0357050" lon="-8.8803030">
        <ele>22.2</ele>
        <time>2021-05-19T09:08:01Z</time>
      </trkpt>
      <trkpt lat="42.0357360" lon="-8.8802870">
        <ele>22.2</ele>
        <time>2021-05-19T09:08:02Z</time>
      </trkpt>
      <trkpt lat="42.0357440" lon="-8.8802830">
        <ele>22.2</ele>
        <time>2021-05-19T09:08:03Z</time>
      </trkpt>
      <trkpt lat="42.0357710" lon="-8.8802680">
        <ele>22.3</ele>
        <time>2021-05-19T09:08:04Z</time>
      </trkpt>
      <trkpt lat="42.0357790" lon="-8.8802640">
        <ele>22.3</ele>
        <time>2021-05-19T09:08:05Z</time>
      </trkpt>
      <trkpt lat="42.0357960" lon="-8.8802560">
        <ele>22.3</ele>
        <time>2021-05-19T09:08:06Z</time>
      </trkpt>
      <trkpt lat="42.0358130" lon="-8.8802450">
        <ele>22.3</ele>
        <time>2021-05-19T09:08:07Z</time>
      </trkpt>
      <trkpt lat="42.0358290" lon="-8.8802400">
        <ele>22.3</ele>
        <time>2021-05-19T09:08:08Z</time>
      </trkpt>
      <trkpt lat="42.0358460" lon="-8.8802330">
        <ele>22.3</ele>
        <time>2021-05-19T09:08:09Z</time>
      </trkpt>
      <trkpt lat="42.0358620" lon="-8.8802260">
        <ele>22.3</ele>
        <time>2021-05-19T09:08:10Z</time>
      </trkpt>
      <trkpt lat="42.0358750" lon="-8.8802150">
        <ele>22.3</ele>
        <time>2021-05-19T09:08:11Z</time>
      </trkpt>
      <trkpt lat="42.0358920" lon="-8.8802100">
        <ele>22.3</ele>
        <time>2021-05-19T09:08:12Z</time>
      </trkpt>
      <trkpt lat="42.0359090" lon="-8.8802040">
        <ele>22.3</ele>
        <time>2021-05-19T09:08:13Z</time>
      </trkpt>
      <trkpt lat="42.0359210" lon="-8.8801900">
        <ele>22.3</ele>
        <time>2021-05-19T09:08:14Z</time>
      </trkpt>
      <trkpt lat="42.0359350" lon="-8.8801770">
        <ele>22.3</ele>
        <time>2021-05-19T09:08:15Z</time>
      </trkpt>
      <trkpt lat="42.0359480" lon="-8.8801690">
        <ele>22.3</ele>
        <time>2021-05-19T09:08:16Z</time>
      </trkpt>
      <trkpt lat="42.0359460" lon="-8.8801580">
        <ele>22.3</ele>
        <time>2021-05-19T09:08:17Z</time>
      </trkpt>
      <trkpt lat="42.0359440" lon="-8.8801430">
        <ele>22.3</ele>
        <time>2021-05-19T09:08:18Z</time>
      </trkpt>
      <trkpt lat="42.0359430" lon="-8.8801340">
        <ele>22.3</ele>
        <time>2021-05-19T09:08:19Z</time>
      </trkpt>
      <trkpt lat="42.0359430" lon="-8.8801230">
        <ele>22.3</ele>
        <time>2021-05-19T09:08:20Z</time>
      </trkpt>
      <trkpt lat="42.0359450" lon="-8.8801100">
        <ele>22.3</ele>
        <time>2021-05-19T09:08:21Z</time>
      </trkpt>
      <trkpt lat="42.0359460" lon="-8.8800960">
        <ele>22.3</ele>
        <time>2021-05-19T09:08:22Z</time>
      </trkpt>
      <trkpt lat="42.0359450" lon="-8.8800810">
        <ele>22.3</ele>
        <time>2021-05-19T09:08:23Z</time>
      </trkpt>
      <trkpt lat="42.0359430" lon="-8.8800680">
        <ele>22.3</ele>
        <time>2021-05-19T09:08:24Z</time>
      </trkpt>
      <trkpt lat="42.0359360" lon="-8.8800640">
        <ele>22.3</ele>
        <time>2021-05-19T09:08:25Z</time>
      </trkpt>
      <trkpt lat="42.0359250" lon="-8.8800730">
        <ele>22.3</ele>
        <time>2021-05-19T09:08:26Z</time>
      </trkpt>
      <trkpt lat="42.0359180" lon="-8.8800770">
        <ele>22.3</ele>
        <time>2021-05-19T09:08:27Z</time>
      </trkpt>
      <trkpt lat="42.0359130" lon="-8.8800800">
        <ele>22.3</ele>
        <time>2021-05-19T09:08:28Z</time>
      </trkpt>
      <trkpt lat="42.0359090" lon="-8.8800800">
        <ele>22.3</ele>
        <time>2021-05-19T09:08:29Z</time>
      </trkpt>
      <trkpt lat="42.0359040" lon="-8.8800900">
        <ele>22.3</ele>
        <time>2021-05-19T09:08:30Z</time>
      </trkpt>
      <trkpt lat="42.0359040" lon="-8.8801010">
        <ele>22.3</ele>
        <time>2021-05-19T09:08:31Z</time>
      </trkpt>
      <trkpt lat="42.0359110" lon="-8.8801150">
        <ele>22.3</ele>
        <time>2021-05-19T09:08:32Z</time>
      </trkpt>
      <trkpt lat="42.0359450" lon="-8.8801140">
        <ele>22.3</ele>
        <time>2021-05-19T09:08:33Z</time>
      </trkpt>
      <trkpt lat="42.0359570" lon="-8.8801160">
        <ele>22.4</ele>
        <time>2021-05-19T09:08:34Z</time>
      </trkpt>
      <trkpt lat="42.0359740" lon="-8.8801160">
        <ele>22.4</ele>
        <time>2021-05-19T09:08:35Z</time>
      </trkpt>
      <trkpt lat="42.0359820" lon="-8.8801170">
        <ele>22.4</ele>
        <time>2021-05-19T09:08:36Z</time>
      </trkpt>
      <trkpt lat="42.0359950" lon="-8.8801200">
        <ele>22.4</ele>
        <time>2021-05-19T09:08:37Z</time>
      </trkpt>
      <trkpt lat="42.0360060" lon="-8.8801270">
        <ele>22.4</ele>
        <time>2021-05-19T09:08:38Z</time>
      </trkpt>
      <trkpt lat="42.0360250" lon="-8.8801230">
        <ele>22.4</ele>
        <time>2021-05-19T09:08:39Z</time>
      </trkpt>
      <trkpt lat="42.0360340" lon="-8.8801220">
        <ele>22.4</ele>
        <time>2021-05-19T09:08:40Z</time>
      </trkpt>
      <trkpt lat="42.0360440" lon="-8.8801200">
        <ele>22.4</ele>
        <time>2021-05-19T09:08:41Z</time>
      </trkpt>
      <trkpt lat="42.0360480" lon="-8.8801180">
        <ele>22.4</ele>
        <time>2021-05-19T09:08:42Z</time>
      </trkpt>
      <trkpt lat="42.0360600" lon="-8.8801230">
        <ele>22.4</ele>
        <time>2021-05-19T09:08:43Z</time>
      </trkpt>
      <trkpt lat="42.0360710" lon="-8.8801170">
        <ele>22.4</ele>
        <time>2021-05-19T09:08:44Z</time>
      </trkpt>
      <trkpt lat="42.0360940" lon="-8.8801200">
        <ele>22.4</ele>
        <time>2021-05-19T09:08:45Z</time>
      </trkpt>
      <trkpt lat="42.0361050" lon="-8.8801150">
        <ele>22.5</ele>
        <time>2021-05-19T09:08:46Z</time>
      </trkpt>
      <trkpt lat="42.0361220" lon="-8.8801120">
        <ele>22.5</ele>
        <time>2021-05-19T09:08:47Z</time>
      </trkpt>
      <trkpt lat="42.0361320" lon="-8.8801160">
        <ele>22.5</ele>
        <time>2021-05-19T09:08:48Z</time>
      </trkpt>
      <trkpt lat="42.0361630" lon="-8.8801150">
        <ele>22.5</ele>
        <time>2021-05-19T09:08:49Z</time>
      </trkpt>
      <trkpt lat="42.0361730" lon="-8.8801150">
        <ele>22.5</ele>
        <time>2021-05-19T09:08:50Z</time>
      </trkpt>
      <trkpt lat="42.0362010" lon="-8.8801120">
        <ele>22.5</ele>
        <time>2021-05-19T09:08:51Z</time>
      </trkpt>
      <trkpt lat="42.0362100" lon="-8.8801120">
        <ele>22.6</ele>
        <time>2021-05-19T09:08:52Z</time>
      </trkpt>
      <trkpt lat="42.0362280" lon="-8.8801110">
        <ele>22.6</ele>
        <time>2021-05-19T09:08:53Z</time>
      </trkpt>
      <trkpt lat="42.0362460" lon="-8.8801090">
        <ele>22.6</ele>
        <time>2021-05-19T09:08:54Z</time>
      </trkpt>
      <trkpt lat="42.0362650" lon="-8.8801110">
        <ele>22.6</ele>
        <time>2021-05-19T09:08:55Z</time>
      </trkpt>
      <trkpt lat="42.0362810" lon="-8.8801120">
        <ele>22.6</ele>
        <time>2021-05-19T09:08:56Z</time>
      </trkpt>
      <trkpt lat="42.0362940" lon="-8.8801100">
        <ele>22.6</ele>
        <time>2021-05-19T09:08:57Z</time>
      </trkpt>
      <trkpt lat="42.0363100" lon="-8.8801120">
        <ele>22.6</ele>
        <time>2021-05-19T09:08:58Z</time>
      </trkpt>
      <trkpt lat="42.0363250" lon="-8.8801110">
        <ele>22.7</ele>
        <time>2021-05-19T09:08:59Z</time>
      </trkpt>
      <trkpt lat="42.0363440" lon="-8.8801120">
        <ele>22.7</ele>
        <time>2021-05-19T09:09:00Z</time>
      </trkpt>
      <trkpt lat="42.0363610" lon="-8.8801090">
        <ele>22.7</ele>
        <time>2021-05-19T09:09:01Z</time>
      </trkpt>
      <trkpt lat="42.0363770" lon="-8.8801060">
        <ele>22.7</ele>
        <time>2021-05-19T09:09:02Z</time>
      </trkpt>
      <trkpt lat="42.0363950" lon="-8.8800960">
        <ele>22.7</ele>
        <time>2021-05-19T09:09:03Z</time>
      </trkpt>
      <trkpt lat="42.0364090" lon="-8.8800890">
        <ele>22.7</ele>
        <time>2021-05-19T09:09:04Z</time>
      </trkpt>
      <trkpt lat="42.0364250" lon="-8.8800870">
        <ele>22.8</ele>
        <time>2021-05-19T09:09:05Z</time>
      </trkpt>
      <trkpt lat="42.0364420" lon="-8.8800810">
        <ele>22.8</ele>
        <time>2021-05-19T09:09:06Z</time>
      </trkpt>
      <trkpt lat="42.0364610" lon="-8.8800790">
        <ele>22.8</ele>
        <time>2021-05-19T09:09:07Z</time>
      </trkpt>
      <trkpt lat="42.0364760" lon="-8.8800730">
        <ele>22.8</ele>
        <time>2021-05-19T09:09:08Z</time>
      </trkpt>
      <trkpt lat="42.0364920" lon="-8.8800720">
        <ele>22.8</ele>
        <time>2021-05-19T09:09:09Z</time>
      </trkpt>
      <trkpt lat="42.0365060" lon="-8.8800670">
        <ele>22.8</ele>
        <time>2021-05-19T09:09:10Z</time>
      </trkpt>
      <trkpt lat="42.0365200" lon="-8.8800560">
        <ele>22.9</ele>
        <time>2021-05-19T09:09:11Z</time>
      </trkpt>
      <trkpt lat="42.0365320" lon="-8.8800480">
        <ele>22.9</ele>
        <time>2021-05-19T09:09:12Z</time>
      </trkpt>
      <trkpt lat="42.0365470" lon="-8.8800380">
        <ele>22.9</ele>
        <time>2021-05-19T09:09:13Z</time>
      </trkpt>
      <trkpt lat="42.0365610" lon="-8.8800270">
        <ele>22.9</ele>
        <time>2021-05-19T09:09:14Z</time>
      </trkpt>
      <trkpt lat="42.0365760" lon="-8.8800160">
        <ele>22.9</ele>
        <time>2021-05-19T09:09:15Z</time>
      </trkpt>
      <trkpt lat="42.0365890" lon="-8.8800040">
        <ele>23.0</ele>
        <time>2021-05-19T09:09:16Z</time>
      </trkpt>
      <trkpt lat="42.0366030" lon="-8.8799990">
        <ele>23.0</ele>
        <time>2021-05-19T09:09:17Z</time>
      </trkpt>
      <trkpt lat="42.0366170" lon="-8.8799870">
        <ele>23.0</ele>
        <time>2021-05-19T09:09:18Z</time>
      </trkpt>
      <trkpt lat="42.0366320" lon="-8.8799810">
        <ele>23.1</ele>
        <time>2021-05-19T09:09:19Z</time>
      </trkpt>
      <trkpt lat="42.0366440" lon="-8.8799720">
        <ele>23.1</ele>
        <time>2021-05-19T09:09:20Z</time>
      </trkpt>
      <trkpt lat="42.0366590" lon="-8.8799660">
        <ele>23.1</ele>
        <time>2021-05-19T09:09:21Z</time>
      </trkpt>
      <trkpt lat="42.0366730" lon="-8.8799620">
        <ele>23.1</ele>
        <time>2021-05-19T09:09:22Z</time>
      </trkpt>
      <trkpt lat="42.0366900" lon="-8.8799580">
        <ele>23.2</ele>
        <time>2021-05-19T09:09:23Z</time>
      </trkpt>
      <trkpt lat="42.0367060" lon="-8.8799500">
        <ele>23.2</ele>
        <time>2021-05-19T09:09:24Z</time>
      </trkpt>
      <trkpt lat="42.0367220" lon="-8.8799450">
        <ele>23.2</ele>
        <time>2021-05-19T09:09:25Z</time>
      </trkpt>
      <trkpt lat="42.0367350" lon="-8.8799410">
        <ele>23.3</ele>
        <time>2021-05-19T09:09:26Z</time>
      </trkpt>
      <trkpt lat="42.0367570" lon="-8.8799380">
        <ele>23.3</ele>
        <time>2021-05-19T09:09:27Z</time>
      </trkpt>
      <trkpt lat="42.0367650" lon="-8.8799340">
        <ele>23.4</ele>
        <time>2021-05-19T09:09:28Z</time>
      </trkpt>
      <trkpt lat="42.0367740" lon="-8.8799300">
        <ele>23.4</ele>
        <time>2021-05-19T09:09:29Z</time>
      </trkpt>
      <trkpt lat="42.0367900" lon="-8.8799240">
        <ele>23.4</ele>
        <time>2021-05-19T09:09:30Z</time>
      </trkpt>
      <trkpt lat="42.0368040" lon="-8.8799200">
        <ele>23.4</ele>
        <time>2021-05-19T09:09:31Z</time>
      </trkpt>
      <trkpt lat="42.0368240" lon="-8.8799110">
        <ele>23.5</ele>
        <time>2021-05-19T09:09:32Z</time>
      </trkpt>
      <trkpt lat="42.0368310" lon="-8.8799040">
        <ele>23.5</ele>
        <time>2021-05-19T09:09:33Z</time>
      </trkpt>
      <trkpt lat="42.0368380" lon="-8.8798980">
        <ele>23.5</ele>
        <time>2021-05-19T09:09:34Z</time>
      </trkpt>
      <trkpt lat="42.0368510" lon="-8.8799000">
        <ele>23.6</ele>
        <time>2021-05-19T09:09:35Z</time>
      </trkpt>
      <trkpt lat="42.0368610" lon="-8.8798930">
        <ele>23.6</ele>
        <time>2021-05-19T09:09:36Z</time>
      </trkpt>
      <trkpt lat="42.0368740" lon="-8.8798900">
        <ele>23.6</ele>
        <time>2021-05-19T09:09:37Z</time>
      </trkpt>
      <trkpt lat="42.0368940" lon="-8.8798850">
        <ele>23.7</ele>
        <time>2021-05-19T09:09:38Z</time>
      </trkpt>
      <trkpt lat="42.0369040" lon="-8.8798840">
        <ele>23.7</ele>
        <time>2021-05-19T09:09:39Z</time>
      </trkpt>
      <trkpt lat="42.0369130" lon="-8.8798830">
        <ele>23.7</ele>
        <time>2021-05-19T09:09:40Z</time>
      </trkpt>
      <trkpt lat="42.0369270" lon="-8.8798800">
        <ele>23.8</ele>
        <time>2021-05-19T09:09:41Z</time>
      </trkpt>
      <trkpt lat="42.0369400" lon="-8.8798760">
        <ele>23.8</ele>
        <time>2021-05-19T09:09:42Z</time>
      </trkpt>
      <trkpt lat="42.0369510" lon="-8.8798810">
        <ele>23.8</ele>
        <time>2021-05-19T09:09:43Z</time>
      </trkpt>
      <trkpt lat="42.0369550" lon="-8.8798760">
        <ele>23.8</ele>
        <time>2021-05-19T09:09:44Z</time>
      </trkpt>
      <trkpt lat="42.0369710" lon="-8.8798700">
        <ele>23.9</ele>
        <time>2021-05-19T09:09:45Z</time>
      </trkpt>
      <trkpt lat="42.0369880" lon="-8.8798680">
        <ele>23.9</ele>
        <time>2021-05-19T09:09:46Z</time>
      </trkpt>
      <trkpt lat="42.0370000" lon="-8.8798610">
        <ele>23.9</ele>
        <time>2021-05-19T09:09:47Z</time>
      </trkpt>
      <trkpt lat="42.0370150" lon="-8.8798570">
        <ele>23.9</ele>
        <time>2021-05-19T09:09:48Z</time>
      </trkpt>
      <trkpt lat="42.0370260" lon="-8.8798490">
        <ele>23.9</ele>
        <time>2021-05-19T09:09:49Z</time>
      </trkpt>
      <trkpt lat="42.0370370" lon="-8.8798460">
        <ele>23.9</ele>
        <time>2021-05-19T09:09:50Z</time>
      </trkpt>
      <trkpt lat="42.0370450" lon="-8.8798420">
        <ele>23.9</ele>
        <time>2021-05-19T09:09:51Z</time>
      </trkpt>
      <trkpt lat="42.0370560" lon="-8.8798430">
        <ele>23.9</ele>
        <time>2021-05-19T09:09:52Z</time>
      </trkpt>
      <trkpt lat="42.0370690" lon="-8.8798370">
        <ele>23.8</ele>
        <time>2021-05-19T09:09:53Z</time>
      </trkpt>
      <trkpt lat="42.0370760" lon="-8.8798380">
        <ele>23.8</ele>
        <time>2021-05-19T09:09:54Z</time>
      </trkpt>
      <trkpt lat="42.0370830" lon="-8.8798310">
        <ele>23.8</ele>
        <time>2021-05-19T09:09:55Z</time>
      </trkpt>
      <trkpt lat="42.0370980" lon="-8.8798320">
        <ele>23.8</ele>
        <time>2021-05-19T09:09:56Z</time>
      </trkpt>
      <trkpt lat="42.0371120" lon="-8.8798320">
        <ele>23.7</ele>
        <time>2021-05-19T09:09:57Z</time>
      </trkpt>
      <trkpt lat="42.0371340" lon="-8.8798340">
        <ele>23.7</ele>
        <time>2021-05-19T09:09:58Z</time>
      </trkpt>
      <trkpt lat="42.0371420" lon="-8.8798390">
        <ele>23.7</ele>
        <time>2021-05-19T09:09:59Z</time>
      </trkpt>
      <trkpt lat="42.0371500" lon="-8.8798430">
        <ele>23.6</ele>
        <time>2021-05-19T09:10:00Z</time>
      </trkpt>
      <trkpt lat="42.0371630" lon="-8.8798440">
        <ele>23.6</ele>
        <time>2021-05-19T09:10:01Z</time>
      </trkpt>
      <trkpt lat="42.0371780" lon="-8.8798510">
        <ele>23.5</ele>
        <time>2021-05-19T09:10:02Z</time>
      </trkpt>
      <trkpt lat="42.0371930" lon="-8.8798500">
        <ele>23.4</ele>
        <time>2021-05-19T09:10:03Z</time>
      </trkpt>
      <trkpt lat="42.0372090" lon="-8.8798560">
        <ele>23.4</ele>
        <time>2021-05-19T09:10:04Z</time>
      </trkpt>
      <trkpt lat="42.0372250" lon="-8.8798600">
        <ele>23.3</ele>
        <time>2021-05-19T09:10:05Z</time>
      </trkpt>
      <trkpt lat="42.0372390" lon="-8.8798580">
        <ele>23.2</ele>
        <time>2021-05-19T09:10:06Z</time>
      </trkpt>
      <trkpt lat="42.0372550" lon="-8.8798540">
        <ele>23.1</ele>
        <time>2021-05-19T09:10:07Z</time>
      </trkpt>
      <trkpt lat="42.0372700" lon="-8.8798430">
        <ele>23.0</ele>
        <time>2021-05-19T09:10:08Z</time>
      </trkpt>
      <trkpt lat="42.0372840" lon="-8.8798310">
        <ele>22.9</ele>
        <time>2021-05-19T09:10:09Z</time>
      </trkpt>
      <trkpt lat="42.0372990" lon="-8.8798250">
        <ele>22.8</ele>
        <time>2021-05-19T09:10:10Z</time>
      </trkpt>
      <trkpt lat="42.0373140" lon="-8.8798220">
        <ele>22.7</ele>
        <time>2021-05-19T09:10:11Z</time>
      </trkpt>
      <trkpt lat="42.0373290" lon="-8.8798160">
        <ele>22.6</ele>
        <time>2021-05-19T09:10:12Z</time>
      </trkpt>
      <trkpt lat="42.0373450" lon="-8.8798090">
        <ele>22.5</ele>
        <time>2021-05-19T09:10:13Z</time>
      </trkpt>
      <trkpt lat="42.0373600" lon="-8.8798060">
        <ele>22.4</ele>
        <time>2021-05-19T09:10:14Z</time>
      </trkpt>
      <trkpt lat="42.0373770" lon="-8.8798030">
        <ele>22.2</ele>
        <time>2021-05-19T09:10:15Z</time>
      </trkpt>
      <trkpt lat="42.0373920" lon="-8.8797950">
        <ele>22.1</ele>
        <time>2021-05-19T09:10:16Z</time>
      </trkpt>
      <trkpt lat="42.0374060" lon="-8.8797940">
        <ele>22.0</ele>
        <time>2021-05-19T09:10:17Z</time>
      </trkpt>
      <trkpt lat="42.0374190" lon="-8.8797870">
        <ele>21.9</ele>
        <time>2021-05-19T09:10:18Z</time>
      </trkpt>
      <trkpt lat="42.0374340" lon="-8.8797860">
        <ele>21.8</ele>
        <time>2021-05-19T09:10:19Z</time>
      </trkpt>
      <trkpt lat="42.0374490" lon="-8.8797830">
        <ele>21.7</ele>
        <time>2021-05-19T09:10:20Z</time>
      </trkpt>
      <trkpt lat="42.0374630" lon="-8.8797790">
        <ele>21.6</ele>
        <time>2021-05-19T09:10:21Z</time>
      </trkpt>
      <trkpt lat="42.0374780" lon="-8.8797830">
        <ele>21.5</ele>
        <time>2021-05-19T09:10:22Z</time>
      </trkpt>
      <trkpt lat="42.0374940" lon="-8.8797870">
        <ele>21.4</ele>
        <time>2021-05-19T09:10:23Z</time>
      </trkpt>
      <trkpt lat="42.0375090" lon="-8.8797770">
        <ele>21.3</ele>
        <time>2021-05-19T09:10:24Z</time>
      </trkpt>
      <trkpt lat="42.0375200" lon="-8.8797710">
        <ele>21.2</ele>
        <time>2021-05-19T09:10:25Z</time>
      </trkpt>
      <trkpt lat="42.0375290" lon="-8.8797710">
        <ele>21.2</ele>
        <time>2021-05-19T09:10:26Z</time>
      </trkpt>
      <trkpt lat="42.0375400" lon="-8.8797680">
        <ele>21.1</ele>
        <time>2021-05-19T09:10:27Z</time>
      </trkpt>
      <trkpt lat="42.0375510" lon="-8.8797670">
        <ele>21.1</ele>
        <time>2021-05-19T09:10:28Z</time>
      </trkpt>
      <trkpt lat="42.0375580" lon="-8.8797510">
        <ele>21.1</ele>
        <time>2021-05-19T09:10:29Z</time>
      </trkpt>
      <trkpt lat="42.0375650" lon="-8.8797540">
        <ele>21.1</ele>
        <time>2021-05-19T09:10:30Z</time>
      </trkpt>
      <trkpt lat="42.0375750" lon="-8.8797570">
        <ele>21.0</ele>
        <time>2021-05-19T09:10:31Z</time>
      </trkpt>
      <trkpt lat="42.0375730" lon="-8.8797500">
        <ele>21.0</ele>
        <time>2021-05-19T09:10:32Z</time>
      </trkpt>
      <trkpt lat="42.0375740" lon="-8.8797500">
        <ele>21.0</ele>
        <time>2021-05-19T09:10:33Z</time>
      </trkpt>
      <trkpt lat="42.0375710" lon="-8.8797530">
        <ele>21.0</ele>
        <time>2021-05-19T09:10:34Z</time>
      </trkpt>
      <trkpt lat="42.0375800" lon="-8.8797470">
        <ele>21.0</ele>
        <time>2021-05-19T09:10:35Z</time>
      </trkpt>
      <trkpt lat="42.0375750" lon="-8.8797510">
        <ele>21.0</ele>
        <time>2021-05-19T09:10:36Z</time>
      </trkpt>
      <trkpt lat="42.0375810" lon="-8.8797490">
        <ele>21.0</ele>
        <time>2021-05-19T09:10:37Z</time>
      </trkpt>
      <trkpt lat="42.0375890" lon="-8.8797550">
        <ele>20.9</ele>
        <time>2021-05-19T09:10:38Z</time>
      </trkpt>
      <trkpt lat="42.0376000" lon="-8.8797500">
        <ele>20.9</ele>
        <time>2021-05-19T09:10:39Z</time>
      </trkpt>
      <trkpt lat="42.0376050" lon="-8.8797480">
        <ele>20.9</ele>
        <time>2021-05-19T09:10:40Z</time>
      </trkpt>
      <trkpt lat="42.0376090" lon="-8.8797390">
        <ele>20.9</ele>
        <time>2021-05-19T09:10:41Z</time>
      </trkpt>
      <trkpt lat="42.0376120" lon="-8.8797400">
        <ele>20.9</ele>
        <time>2021-05-19T09:10:42Z</time>
      </trkpt>
      <trkpt lat="42.0376150" lon="-8.8797420">
        <ele>20.9</ele>
        <time>2021-05-19T09:10:43Z</time>
      </trkpt>
      <trkpt lat="42.0376230" lon="-8.8797430">
        <ele>20.8</ele>
        <time>2021-05-19T09:10:44Z</time>
      </trkpt>
      <trkpt lat="42.0376260" lon="-8.8797380">
        <ele>20.8</ele>
        <time>2021-05-19T09:10:45Z</time>
      </trkpt>
      <trkpt lat="42.0376320" lon="-8.8797290">
        <ele>20.8</ele>
        <time>2021-05-19T09:10:46Z</time>
      </trkpt>
      <trkpt lat="42.0376350" lon="-8.8797140">
        <ele>20.8</ele>
        <time>2021-05-19T09:10:47Z</time>
      </trkpt>
      <trkpt lat="42.0376400" lon="-8.8797150">
        <ele>20.8</ele>
        <time>2021-05-19T09:10:48Z</time>
      </trkpt>
      <trkpt lat="42.0376450" lon="-8.8797150">
        <ele>20.7</ele>
        <time>2021-05-19T09:10:49Z</time>
      </trkpt>
      <trkpt lat="42.0376500" lon="-8.8797160">
        <ele>20.7</ele>
        <time>2021-05-19T09:10:50Z</time>
      </trkpt>
      <trkpt lat="42.0376550" lon="-8.8797160">
        <ele>20.7</ele>
        <time>2021-05-19T09:10:51Z</time>
      </trkpt>
      <trkpt lat="42.0376600" lon="-8.8797170">
        <ele>20.7</ele>
        <time>2021-05-19T09:10:52Z</time>
      </trkpt>
      <trkpt lat="42.0376650" lon="-8.8797170">
        <ele>20.7</ele>
        <time>2021-05-19T09:10:53Z</time>
      </trkpt>
      <trkpt lat="42.0376700" lon="-8.8797180">
        <ele>20.7</ele>
        <time>2021-05-19T09:10:54Z</time>
      </trkpt>
      <trkpt lat="42.0376910" lon="-8.8797130">
        <ele>20.6</ele>
        <time>2021-05-19T09:10:55Z</time>
      </trkpt>
      <trkpt lat="42.0377040" lon="-8.8797170">
        <ele>20.6</ele>
        <time>2021-05-19T09:10:56Z</time>
      </trkpt>
      <trkpt lat="42.0377220" lon="-8.8797130">
        <ele>20.6</ele>
        <time>2021-05-19T09:10:57Z</time>
      </trkpt>
      <trkpt lat="42.0377320" lon="-8.8797100">
        <ele>20.6</ele>
        <time>2021-05-19T09:10:58Z</time>
      </trkpt>
      <trkpt lat="42.0377410" lon="-8.8797080">
        <ele>20.6</ele>
        <time>2021-05-19T09:10:59Z</time>
      </trkpt>
      <trkpt lat="42.0377600" lon="-8.8797080">
        <ele>20.5</ele>
        <time>2021-05-19T09:11:00Z</time>
      </trkpt>
      <trkpt lat="42.0377690" lon="-8.8797090">
        <ele>20.5</ele>
        <time>2021-05-19T09:11:01Z</time>
      </trkpt>
      <trkpt lat="42.0377780" lon="-8.8797110">
        <ele>20.5</ele>
        <time>2021-05-19T09:11:02Z</time>
      </trkpt>
      <trkpt lat="42.0377890" lon="-8.8797170">
        <ele>20.5</ele>
        <time>2021-05-19T09:11:03Z</time>
      </trkpt>
      <trkpt lat="42.0378020" lon="-8.8797180">
        <ele>20.5</ele>
        <time>2021-05-19T09:11:04Z</time>
      </trkpt>
      <trkpt lat="42.0378130" lon="-8.8797220">
        <ele>20.5</ele>
        <time>2021-05-19T09:11:05Z</time>
      </trkpt>
      <trkpt lat="42.0378170" lon="-8.8797230">
        <ele>20.4</ele>
        <time>2021-05-19T09:11:06Z</time>
      </trkpt>
      <trkpt lat="42.0378260" lon="-8.8797280">
        <ele>20.4</ele>
        <time>2021-05-19T09:11:07Z</time>
      </trkpt>
      <trkpt lat="42.0378280" lon="-8.8797330">
        <ele>20.4</ele>
        <time>2021-05-19T09:11:08Z</time>
      </trkpt>
      <trkpt lat="42.0378400" lon="-8.8797440">
        <ele>20.4</ele>
        <time>2021-05-19T09:11:09Z</time>
      </trkpt>
      <trkpt lat="42.0378490" lon="-8.8797540">
        <ele>20.4</ele>
        <time>2021-05-19T09:11:10Z</time>
      </trkpt>
      <trkpt lat="42.0378550" lon="-8.8797660">
        <ele>20.4</ele>
        <time>2021-05-19T09:11:11Z</time>
      </trkpt>
      <trkpt lat="42.0378640" lon="-8.8797760">
        <ele>20.4</ele>
        <time>2021-05-19T09:11:12Z</time>
      </trkpt>
      <trkpt lat="42.0378740" lon="-8.8797910">
        <ele>20.4</ele>
        <time>2021-05-19T09:11:13Z</time>
      </trkpt>
      <trkpt lat="42.0378860" lon="-8.8798080">
        <ele>20.4</ele>
        <time>2021-05-19T09:11:14Z</time>
      </trkpt>
      <trkpt lat="42.0378830" lon="-8.8798170">
        <ele>20.4</ele>
        <time>2021-05-19T09:11:15Z</time>
      </trkpt>
      <trkpt lat="42.0378930" lon="-8.8798350">
        <ele>20.4</ele>
        <time>2021-05-19T09:11:16Z</time>
      </trkpt>
      <trkpt lat="42.0378970" lon="-8.8798530">
        <ele>20.4</ele>
        <time>2021-05-19T09:11:17Z</time>
      </trkpt>
      <trkpt lat="42.0379060" lon="-8.8798830">
        <ele>20.4</ele>
        <time>2021-05-19T09:11:18Z</time>
      </trkpt>
      <trkpt lat="42.0379100" lon="-8.8798920">
        <ele>20.4</ele>
        <time>2021-05-19T09:11:19Z</time>
      </trkpt>
      <trkpt lat="42.0379130" lon="-8.8799020">
        <ele>20.4</ele>
        <time>2021-05-19T09:11:20Z</time>
      </trkpt>
      <trkpt lat="42.0379220" lon="-8.8799220">
        <ele>20.4</ele>
        <time>2021-05-19T09:11:21Z</time>
      </trkpt>
      <trkpt lat="42.0379270" lon="-8.8799330">
        <ele>20.5</ele>
        <time>2021-05-19T09:11:22Z</time>
      </trkpt>
      <trkpt lat="42.0379310" lon="-8.8799440">
        <ele>20.5</ele>
        <time>2021-05-19T09:11:23Z</time>
      </trkpt>
      <trkpt lat="42.0379340" lon="-8.8799520">
        <ele>20.5</ele>
        <time>2021-05-19T09:11:24Z</time>
      </trkpt>
      <trkpt lat="42.0379410" lon="-8.8799780">
        <ele>20.5</ele>
        <time>2021-05-19T09:11:25Z</time>
      </trkpt>
      <trkpt lat="42.0379530" lon="-8.8799960">
        <ele>20.5</ele>
        <time>2021-05-19T09:11:26Z</time>
      </trkpt>
      <trkpt lat="42.0379620" lon="-8.8800070">
        <ele>20.6</ele>
        <time>2021-05-19T09:11:27Z</time>
      </trkpt>
      <trkpt lat="42.0379660" lon="-8.8800230">
        <ele>20.6</ele>
        <time>2021-05-19T09:11:28Z</time>
      </trkpt>
      <trkpt lat="42.0379700" lon="-8.8800350">
        <ele>20.6</ele>
        <time>2021-05-19T09:11:29Z</time>
      </trkpt>
      <trkpt lat="42.0379720" lon="-8.8800470">
        <ele>20.6</ele>
        <time>2021-05-19T09:11:30Z</time>
      </trkpt>
      <trkpt lat="42.0379770" lon="-8.8800590">
        <ele>20.6</ele>
        <time>2021-05-19T09:11:31Z</time>
      </trkpt>
      <trkpt lat="42.0379850" lon="-8.8800730">
        <ele>20.7</ele>
        <time>2021-05-19T09:11:32Z</time>
      </trkpt>
      <trkpt lat="42.0379910" lon="-8.8800830">
        <ele>20.7</ele>
        <time>2021-05-19T09:11:33Z</time>
      </trkpt>
      <trkpt lat="42.0380030" lon="-8.8801070">
        <ele>20.7</ele>
        <time>2021-05-19T09:11:34Z</time>
      </trkpt>
      <trkpt lat="42.0380070" lon="-8.8801140">
        <ele>20.7</ele>
        <time>2021-05-19T09:11:35Z</time>
      </trkpt>
      <trkpt lat="42.0380200" lon="-8.8801230">
        <ele>20.8</ele>
        <time>2021-05-19T09:11:36Z</time>
      </trkpt>
      <trkpt lat="42.0380320" lon="-8.8801320">
        <ele>20.8</ele>
        <time>2021-05-19T09:11:37Z</time>
      </trkpt>
      <trkpt lat="42.0380460" lon="-8.8801420">
        <ele>20.8</ele>
        <time>2021-05-19T09:11:38Z</time>
      </trkpt>
      <trkpt lat="42.0380580" lon="-8.8801530">
        <ele>20.8</ele>
        <time>2021-05-19T09:11:39Z</time>
      </trkpt>
      <trkpt lat="42.0380690" lon="-8.8801580">
        <ele>20.9</ele>
        <time>2021-05-19T09:11:40Z</time>
      </trkpt>
      <trkpt lat="42.0380810" lon="-8.8801710">
        <ele>20.9</ele>
        <time>2021-05-19T09:11:41Z</time>
      </trkpt>
      <trkpt lat="42.0380940" lon="-8.8801810">
        <ele>20.9</ele>
        <time>2021-05-19T09:11:42Z</time>
      </trkpt>
      <trkpt lat="42.0380990" lon="-8.8801880">
        <ele>20.9</ele>
        <time>2021-05-19T09:11:43Z</time>
      </trkpt>
      <trkpt lat="42.0381130" lon="-8.8801890">
        <ele>20.9</ele>
        <time>2021-05-19T09:11:44Z</time>
      </trkpt>
      <trkpt lat="42.0381290" lon="-8.8801950">
        <ele>21.0</ele>
        <time>2021-05-19T09:11:45Z</time>
      </trkpt>
      <trkpt lat="42.0381450" lon="-8.8801970">
        <ele>21.0</ele>
        <time>2021-05-19T09:11:46Z</time>
      </trkpt>
      <trkpt lat="42.0381510" lon="-8.8802020">
        <ele>21.0</ele>
        <time>2021-05-19T09:11:47Z</time>
      </trkpt>
      <trkpt lat="42.0381610" lon="-8.8802190">
        <ele>21.0</ele>
        <time>2021-05-19T09:11:48Z</time>
      </trkpt>
      <trkpt lat="42.0381700" lon="-8.8802250">
        <ele>21.0</ele>
        <time>2021-05-19T09:11:49Z</time>
      </trkpt>
      <trkpt lat="42.0381920" lon="-8.8802390">
        <ele>21.0</ele>
        <time>2021-05-19T09:11:50Z</time>
      </trkpt>
      <trkpt lat="42.0382020" lon="-8.8802470">
        <ele>21.1</ele>
        <time>2021-05-19T09:11:51Z</time>
      </trkpt>
      <trkpt lat="42.0382130" lon="-8.8802560">
        <ele>21.1</ele>
        <time>2021-05-19T09:11:52Z</time>
      </trkpt>
      <trkpt lat="42.0382270" lon="-8.8802710">
        <ele>21.1</ele>
        <time>2021-05-19T09:11:53Z</time>
      </trkpt>
      <trkpt lat="42.0382360" lon="-8.8802780">
        <ele>21.1</ele>
        <time>2021-05-19T09:11:54Z</time>
      </trkpt>
      <trkpt lat="42.0382450" lon="-8.8802850">
        <ele>21.1</ele>
        <time>2021-05-19T09:11:55Z</time>
      </trkpt>
      <trkpt lat="42.0382650" lon="-8.8802980">
        <ele>21.2</ele>
        <time>2021-05-19T09:11:56Z</time>
      </trkpt>
      <trkpt lat="42.0382770" lon="-8.8803020">
        <ele>21.2</ele>
        <time>2021-05-19T09:11:57Z</time>
      </trkpt>
      <trkpt lat="42.0382910" lon="-8.8803160">
        <ele>21.2</ele>
        <time>2021-05-19T09:11:58Z</time>
      </trkpt>
      <trkpt lat="42.0383020" lon="-8.8803240">
        <ele>21.2</ele>
        <time>2021-05-19T09:11:59Z</time>
      </trkpt>
      <trkpt lat="42.0383140" lon="-8.8803330">
        <ele>21.3</ele>
        <time>2021-05-19T09:12:00Z</time>
      </trkpt>
      <trkpt lat="42.0383240" lon="-8.8803440">
        <ele>21.3</ele>
        <time>2021-05-19T09:12:01Z</time>
      </trkpt>
      <trkpt lat="42.0383350" lon="-8.8803490">
        <ele>21.3</ele>
        <time>2021-05-19T09:12:02Z</time>
      </trkpt>
      <trkpt lat="42.0383430" lon="-8.8803590">
        <ele>21.3</ele>
        <time>2021-05-19T09:12:03Z</time>
      </trkpt>
      <trkpt lat="42.0383630" lon="-8.8803770">
        <ele>21.4</ele>
        <time>2021-05-19T09:12:04Z</time>
      </trkpt>
      <trkpt lat="42.0383680" lon="-8.8803820">
        <ele>21.4</ele>
        <time>2021-05-19T09:12:05Z</time>
      </trkpt>
      <trkpt lat="42.0383730" lon="-8.8803860">
        <ele>21.4</ele>
        <time>2021-05-19T09:12:06Z</time>
      </trkpt>
      <trkpt lat="42.0383810" lon="-8.8803930">
        <ele>21.4</ele>
        <time>2021-05-19T09:12:07Z</time>
      </trkpt>
      <trkpt lat="42.0383890" lon="-8.8803990">
        <ele>21.4</ele>
        <time>2021-05-19T09:12:08Z</time>
      </trkpt>
      <trkpt lat="42.0384000" lon="-8.8804110">
        <ele>21.4</ele>
        <time>2021-05-19T09:12:09Z</time>
      </trkpt>
      <trkpt lat="42.0384080" lon="-8.8804250">
        <ele>21.5</ele>
        <time>2021-05-19T09:12:10Z</time>
      </trkpt>
      <trkpt lat="42.0384180" lon="-8.8804390">
        <ele>21.5</ele>
        <time>2021-05-19T09:12:11Z</time>
      </trkpt>
      <trkpt lat="42.0384340" lon="-8.8804580">
        <ele>21.5</ele>
        <time>2021-05-19T09:12:12Z</time>
      </trkpt>
      <trkpt lat="42.0384410" lon="-8.8804630">
        <ele>21.5</ele>
        <time>2021-05-19T09:12:13Z</time>
      </trkpt>
      <trkpt lat="42.0384480" lon="-8.8804690">
        <ele>21.5</ele>
        <time>2021-05-19T09:12:14Z</time>
      </trkpt>
      <trkpt lat="42.0384580" lon="-8.8804770">
        <ele>21.5</ele>
        <time>2021-05-19T09:12:15Z</time>
      </trkpt>
      <trkpt lat="42.0384660" lon="-8.8804870">
        <ele>21.5</ele>
        <time>2021-05-19T09:12:16Z</time>
      </trkpt>
      <trkpt lat="42.0384730" lon="-8.8804880">
        <ele>21.5</ele>
        <time>2021-05-19T09:12:17Z</time>
      </trkpt>
      <trkpt lat="42.0384860" lon="-8.8804990">
        <ele>21.5</ele>
        <time>2021-05-19T09:12:18Z</time>
      </trkpt>
      <trkpt lat="42.0384990" lon="-8.8805050">
        <ele>21.6</ele>
        <time>2021-05-19T09:12:19Z</time>
      </trkpt>
      <trkpt lat="42.0385140" lon="-8.8805100">
        <ele>21.6</ele>
        <time>2021-05-19T09:12:20Z</time>
      </trkpt>
      <trkpt lat="42.0385290" lon="-8.8805200">
        <ele>21.6</ele>
        <time>2021-05-19T09:12:21Z</time>
      </trkpt>
      <trkpt lat="42.0385410" lon="-8.8805270">
        <ele>21.6</ele>
        <time>2021-05-19T09:12:22Z</time>
      </trkpt>
      <trkpt lat="42.0385460" lon="-8.8805310">
        <ele>21.6</ele>
        <time>2021-05-19T09:12:23Z</time>
      </trkpt>
      <trkpt lat="42.0385560" lon="-8.8805320">
        <ele>21.6</ele>
        <time>2021-05-19T09:12:24Z</time>
      </trkpt>
      <trkpt lat="42.0385640" lon="-8.8805380">
        <ele>21.6</ele>
        <time>2021-05-19T09:12:25Z</time>
      </trkpt>
      <trkpt lat="42.0385610" lon="-8.8805520">
        <ele>21.6</ele>
        <time>2021-05-19T09:12:26Z</time>
      </trkpt>
      <trkpt lat="42.0385750" lon="-8.8805600">
        <ele>21.6</ele>
        <time>2021-05-19T09:12:27Z</time>
      </trkpt>
      <trkpt lat="42.0385900" lon="-8.8805720">
        <ele>21.5</ele>
        <time>2021-05-19T09:12:28Z</time>
      </trkpt>
      <trkpt lat="42.0386050" lon="-8.8805800">
        <ele>21.5</ele>
        <time>2021-05-19T09:12:29Z</time>
      </trkpt>
      <trkpt lat="42.0386160" lon="-8.8805860">
        <ele>21.5</ele>
        <time>2021-05-19T09:12:30Z</time>
      </trkpt>
      <trkpt lat="42.0386290" lon="-8.8805860">
        <ele>21.5</ele>
        <time>2021-05-19T09:12:31Z</time>
      </trkpt>
      <trkpt lat="42.0386370" lon="-8.8805810">
        <ele>21.5</ele>
        <time>2021-05-19T09:12:32Z</time>
      </trkpt>
      <trkpt lat="42.0386400" lon="-8.8805690">
        <ele>21.6</ele>
        <time>2021-05-19T09:12:33Z</time>
      </trkpt>
      <trkpt lat="42.0386530" lon="-8.8805500">
        <ele>21.7</ele>
        <time>2021-05-19T09:12:34Z</time>
      </trkpt>
      <trkpt lat="42.0386710" lon="-8.8805420">
        <ele>21.8</ele>
        <time>2021-05-19T09:12:35Z</time>
      </trkpt>
      <trkpt lat="42.0386840" lon="-8.8805320">
        <ele>21.8</ele>
        <time>2021-05-19T09:12:36Z</time>
      </trkpt>
      <trkpt lat="42.0387010" lon="-8.8805250">
        <ele>21.9</ele>
        <time>2021-05-19T09:12:37Z</time>
      </trkpt>
      <trkpt lat="42.0387120" lon="-8.8805210">
        <ele>22.0</ele>
        <time>2021-05-19T09:12:38Z</time>
      </trkpt>
      <trkpt lat="42.0387280" lon="-8.8805080">
        <ele>22.1</ele>
        <time>2021-05-19T09:12:39Z</time>
      </trkpt>
      <trkpt lat="42.0387350" lon="-8.8804990">
        <ele>22.1</ele>
        <time>2021-05-19T09:12:40Z</time>
      </trkpt>
      <trkpt lat="42.0387430" lon="-8.8804910">
        <ele>22.2</ele>
        <time>2021-05-19T09:12:41Z</time>
      </trkpt>
      <trkpt lat="42.0387580" lon="-8.8804780">
        <ele>22.3</ele>
        <time>2021-05-19T09:12:42Z</time>
      </trkpt>
      <trkpt lat="42.0387700" lon="-8.8804730">
        <ele>22.4</ele>
        <time>2021-05-19T09:12:43Z</time>
      </trkpt>
      <trkpt lat="42.0387880" lon="-8.8804660">
        <ele>22.5</ele>
        <time>2021-05-19T09:12:44Z</time>
      </trkpt>
      <trkpt lat="42.0387950" lon="-8.8804600">
        <ele>22.6</ele>
        <time>2021-05-19T09:12:45Z</time>
      </trkpt>
      <trkpt lat="42.0388030" lon="-8.8804530">
        <ele>22.6</ele>
        <time>2021-05-19T09:12:46Z</time>
      </trkpt>
      <trkpt lat="42.0388080" lon="-8.8804380">
        <ele>22.7</ele>
        <time>2021-05-19T09:12:47Z</time>
      </trkpt>
      <trkpt lat="42.0388170" lon="-8.8804250">
        <ele>22.8</ele>
        <time>2021-05-19T09:12:48Z</time>
      </trkpt>
      <trkpt lat="42.0388240" lon="-8.8804160">
        <ele>22.9</ele>
        <time>2021-05-19T09:12:49Z</time>
      </trkpt>
      <trkpt lat="42.0388330" lon="-8.8804040">
        <ele>22.9</ele>
        <time>2021-05-19T09:12:50Z</time>
      </trkpt>
      <trkpt lat="42.0388440" lon="-8.8803870">
        <ele>23.1</ele>
        <time>2021-05-19T09:12:51Z</time>
      </trkpt>
      <trkpt lat="42.0388470" lon="-8.8803750">
        <ele>23.1</ele>
        <time>2021-05-19T09:12:52Z</time>
      </trkpt>
      <trkpt lat="42.0388530" lon="-8.8803590">
        <ele>23.2</ele>
        <time>2021-05-19T09:12:53Z</time>
      </trkpt>
      <trkpt lat="42.0388510" lon="-8.8803480">
        <ele>23.3</ele>
        <time>2021-05-19T09:12:54Z</time>
      </trkpt>
      <trkpt lat="42.0388570" lon="-8.8803220">
        <ele>23.4</ele>
        <time>2021-05-19T09:12:55Z</time>
      </trkpt>
      <trkpt lat="42.0388600" lon="-8.8803100">
        <ele>23.5</ele>
        <time>2021-05-19T09:12:56Z</time>
      </trkpt>
      <trkpt lat="42.0388630" lon="-8.8802970">
        <ele>23.5</ele>
        <time>2021-05-19T09:12:57Z</time>
      </trkpt>
      <trkpt lat="42.0388730" lon="-8.8802780">
        <ele>23.6</ele>
        <time>2021-05-19T09:12:58Z</time>
      </trkpt>
      <trkpt lat="42.0388730" lon="-8.8802610">
        <ele>23.7</ele>
        <time>2021-05-19T09:12:59Z</time>
      </trkpt>
      <trkpt lat="42.0388810" lon="-8.8802340">
        <ele>23.9</ele>
        <time>2021-05-19T09:13:00Z</time>
      </trkpt>
      <trkpt lat="42.0388840" lon="-8.8802200">
        <ele>23.9</ele>
        <time>2021-05-19T09:13:01Z</time>
      </trkpt>
      <trkpt lat="42.0388880" lon="-8.8802070">
        <ele>24.0</ele>
        <time>2021-05-19T09:13:02Z</time>
      </trkpt>
      <trkpt lat="42.0388930" lon="-8.8801880">
        <ele>24.1</ele>
        <time>2021-05-19T09:13:03Z</time>
      </trkpt>
      <trkpt lat="42.0388930" lon="-8.8801710">
        <ele>24.1</ele>
        <time>2021-05-19T09:13:04Z</time>
      </trkpt>
      <trkpt lat="42.0388910" lon="-8.8801580">
        <ele>24.2</ele>
        <time>2021-05-19T09:13:05Z</time>
      </trkpt>
      <trkpt lat="42.0388980" lon="-8.8801410">
        <ele>24.2</ele>
        <time>2021-05-19T09:13:06Z</time>
      </trkpt>
      <trkpt lat="42.0388990" lon="-8.8801280">
        <ele>24.3</ele>
        <time>2021-05-19T09:13:07Z</time>
      </trkpt>
      <trkpt lat="42.0389080" lon="-8.8801070">
        <ele>24.4</ele>
        <time>2021-05-19T09:13:08Z</time>
      </trkpt>
      <trkpt lat="42.0389140" lon="-8.8800850">
        <ele>24.5</ele>
        <time>2021-05-19T09:13:09Z</time>
      </trkpt>
      <trkpt lat="42.0389240" lon="-8.8800730">
        <ele>24.5</ele>
        <time>2021-05-19T09:13:10Z</time>
      </trkpt>
      <trkpt lat="42.0389320" lon="-8.8800570">
        <ele>24.6</ele>
        <time>2021-05-19T09:13:11Z</time>
      </trkpt>
      <trkpt lat="42.0389400" lon="-8.8800340">
        <ele>24.6</ele>
        <time>2021-05-19T09:13:12Z</time>
      </trkpt>
      <trkpt lat="42.0389480" lon="-8.8800240">
        <ele>24.7</ele>
        <time>2021-05-19T09:13:13Z</time>
      </trkpt>
      <trkpt lat="42.0389510" lon="-8.8800130">
        <ele>24.7</ele>
        <time>2021-05-19T09:13:14Z</time>
      </trkpt>
      <trkpt lat="42.0389520" lon="-8.8799960">
        <ele>24.8</ele>
        <time>2021-05-19T09:13:15Z</time>
      </trkpt>
      <trkpt lat="42.0389580" lon="-8.8799800">
        <ele>24.8</ele>
        <time>2021-05-19T09:13:16Z</time>
      </trkpt>
      <trkpt lat="42.0389650" lon="-8.8799640">
        <ele>24.8</ele>
        <time>2021-05-19T09:13:17Z</time>
      </trkpt>
      <trkpt lat="42.0389630" lon="-8.8799520">
        <ele>24.9</ele>
        <time>2021-05-19T09:13:18Z</time>
      </trkpt>
      <trkpt lat="42.0389700" lon="-8.8799370">
        <ele>24.9</ele>
        <time>2021-05-19T09:13:19Z</time>
      </trkpt>
      <trkpt lat="42.0389780" lon="-8.8799200">
        <ele>25.0</ele>
        <time>2021-05-19T09:13:20Z</time>
      </trkpt>
      <trkpt lat="42.0389860" lon="-8.8799090">
        <ele>25.0</ele>
        <time>2021-05-19T09:13:21Z</time>
      </trkpt>
      <trkpt lat="42.0389810" lon="-8.8798920">
        <ele>25.0</ele>
        <time>2021-05-19T09:13:22Z</time>
      </trkpt>
      <trkpt lat="42.0389940" lon="-8.8798780">
        <ele>25.1</ele>
        <time>2021-05-19T09:13:23Z</time>
      </trkpt>
      <trkpt lat="42.0390000" lon="-8.8798550">
        <ele>25.1</ele>
        <time>2021-05-19T09:13:24Z</time>
      </trkpt>
      <trkpt lat="42.0390000" lon="-8.8798440">
        <ele>25.1</ele>
        <time>2021-05-19T09:13:25Z</time>
      </trkpt>
      <trkpt lat="42.0390070" lon="-8.8798320">
        <ele>25.2</ele>
        <time>2021-05-19T09:13:26Z</time>
      </trkpt>
      <trkpt lat="42.0390130" lon="-8.8798170">
        <ele>25.2</ele>
        <time>2021-05-19T09:13:27Z</time>
      </trkpt>
      <trkpt lat="42.0390230" lon="-8.8798070">
        <ele>25.2</ele>
        <time>2021-05-19T09:13:28Z</time>
      </trkpt>
      <trkpt lat="42.0390330" lon="-8.8797890">
        <ele>25.3</ele>
        <time>2021-05-19T09:13:29Z</time>
      </trkpt>
      <trkpt lat="42.0390510" lon="-8.8797700">
        <ele>25.4</ele>
        <time>2021-05-19T09:13:30Z</time>
      </trkpt>
      <trkpt lat="42.0390590" lon="-8.8797630">
        <ele>25.4</ele>
        <time>2021-05-19T09:13:31Z</time>
      </trkpt>
      <trkpt lat="42.0390670" lon="-8.8797550">
        <ele>25.4</ele>
        <time>2021-05-19T09:13:32Z</time>
      </trkpt>
      <trkpt lat="42.0390760" lon="-8.8797450">
        <ele>25.4</ele>
        <time>2021-05-19T09:13:33Z</time>
      </trkpt>
      <trkpt lat="42.0390890" lon="-8.8797380">
        <ele>25.5</ele>
        <time>2021-05-19T09:13:34Z</time>
      </trkpt>
      <trkpt lat="42.0390970" lon="-8.8797280">
        <ele>25.5</ele>
        <time>2021-05-19T09:13:35Z</time>
      </trkpt>
      <trkpt lat="42.0391150" lon="-8.8797170">
        <ele>25.5</ele>
        <time>2021-05-19T09:13:36Z</time>
      </trkpt>
      <trkpt lat="42.0391230" lon="-8.8797100">
        <ele>25.6</ele>
        <time>2021-05-19T09:13:37Z</time>
      </trkpt>
      <trkpt lat="42.0391360" lon="-8.8797020">
        <ele>25.6</ele>
        <time>2021-05-19T09:13:38Z</time>
      </trkpt>
      <trkpt lat="42.0391500" lon="-8.8796950">
        <ele>25.6</ele>
        <time>2021-05-19T09:13:39Z</time>
      </trkpt>
      <trkpt lat="42.0391690" lon="-8.8796810">
        <ele>25.7</ele>
        <time>2021-05-19T09:13:40Z</time>
      </trkpt>
      <trkpt lat="42.0391750" lon="-8.8796750">
        <ele>25.7</ele>
        <time>2021-05-19T09:13:41Z</time>
      </trkpt>
      <trkpt lat="42.0391820" lon="-8.8796680">
        <ele>25.7</ele>
        <time>2021-05-19T09:13:42Z</time>
      </trkpt>
      <trkpt lat="42.0391980" lon="-8.8796590">
        <ele>25.8</ele>
        <time>2021-05-19T09:13:43Z</time>
      </trkpt>
      <trkpt lat="42.0392110" lon="-8.8796490">
        <ele>25.8</ele>
        <time>2021-05-19T09:13:44Z</time>
      </trkpt>
      <trkpt lat="42.0392230" lon="-8.8796430">
        <ele>25.9</ele>
        <time>2021-05-19T09:13:45Z</time>
      </trkpt>
      <trkpt lat="42.0392340" lon="-8.8796380">
        <ele>25.9</ele>
        <time>2021-05-19T09:13:46Z</time>
      </trkpt>
      <trkpt lat="42.0392450" lon="-8.8796330">
        <ele>25.9</ele>
        <time>2021-05-19T09:13:47Z</time>
      </trkpt>
      <trkpt lat="42.0392560" lon="-8.8796330">
        <ele>25.9</ele>
        <time>2021-05-19T09:13:48Z</time>
      </trkpt>
      <trkpt lat="42.0392610" lon="-8.8796310">
        <ele>26.0</ele>
        <time>2021-05-19T09:13:49Z</time>
      </trkpt>
      <trkpt lat="42.0392670" lon="-8.8796290">
        <ele>26.0</ele>
        <time>2021-05-19T09:13:50Z</time>
      </trkpt>
      <trkpt lat="42.0392800" lon="-8.8796220">
        <ele>26.0</ele>
        <time>2021-05-19T09:13:51Z</time>
      </trkpt>
      <trkpt lat="42.0392980" lon="-8.8796100">
        <ele>26.1</ele>
        <time>2021-05-19T09:13:52Z</time>
      </trkpt>
      <trkpt lat="42.0393060" lon="-8.8796030">
        <ele>26.1</ele>
        <time>2021-05-19T09:13:53Z</time>
      </trkpt>
      <trkpt lat="42.0393140" lon="-8.8795960">
        <ele>26.1</ele>
        <time>2021-05-19T09:13:54Z</time>
      </trkpt>
      <trkpt lat="42.0393290" lon="-8.8795860">
        <ele>26.2</ele>
        <time>2021-05-19T09:13:55Z</time>
      </trkpt>
      <trkpt lat="42.0393370" lon="-8.8795780">
        <ele>26.2</ele>
        <time>2021-05-19T09:13:56Z</time>
      </trkpt>
      <trkpt lat="42.0393410" lon="-8.8795720">
        <ele>26.2</ele>
        <time>2021-05-19T09:13:57Z</time>
      </trkpt>
      <trkpt lat="42.0393580" lon="-8.8795580">
        <ele>26.3</ele>
        <time>2021-05-19T09:13:58Z</time>
      </trkpt>
      <trkpt lat="42.0393660" lon="-8.8795440">
        <ele>26.3</ele>
        <time>2021-05-19T09:13:59Z</time>
      </trkpt>
      <trkpt lat="42.0393780" lon="-8.8795370">
        <ele>26.4</ele>
        <time>2021-05-19T09:14:00Z</time>
      </trkpt>
      <trkpt lat="42.0393830" lon="-8.8795270">
        <ele>26.4</ele>
        <time>2021-05-19T09:14:01Z</time>
      </trkpt>
      <trkpt lat="42.0393890" lon="-8.8795170">
        <ele>26.5</ele>
        <time>2021-05-19T09:14:02Z</time>
      </trkpt>
      <trkpt lat="42.0393990" lon="-8.8795080">
        <ele>26.5</ele>
        <time>2021-05-19T09:14:03Z</time>
      </trkpt>
      <trkpt lat="42.0394060" lon="-8.8794940">
        <ele>26.5</ele>
        <time>2021-05-19T09:14:04Z</time>
      </trkpt>
      <trkpt lat="42.0394140" lon="-8.8794840">
        <ele>26.6</ele>
        <time>2021-05-19T09:14:05Z</time>
      </trkpt>
      <trkpt lat="42.0394250" lon="-8.8794710">
        <ele>26.7</ele>
        <time>2021-05-19T09:14:06Z</time>
      </trkpt>
      <trkpt lat="42.0394350" lon="-8.8794570">
        <ele>26.7</ele>
        <time>2021-05-19T09:14:07Z</time>
      </trkpt>
      <trkpt lat="42.0394510" lon="-8.8794410">
        <ele>26.8</ele>
        <time>2021-05-19T09:14:08Z</time>
      </trkpt>
      <trkpt lat="42.0394610" lon="-8.8794300">
        <ele>26.9</ele>
        <time>2021-05-19T09:14:09Z</time>
      </trkpt>
      <trkpt lat="42.0394740" lon="-8.8794180">
        <ele>27.0</ele>
        <time>2021-05-19T09:14:10Z</time>
      </trkpt>
      <trkpt lat="42.0394830" lon="-8.8794030">
        <ele>27.0</ele>
        <time>2021-05-19T09:14:11Z</time>
      </trkpt>
      <trkpt lat="42.0394970" lon="-8.8793910">
        <ele>27.1</ele>
        <time>2021-05-19T09:14:12Z</time>
      </trkpt>
      <trkpt lat="42.0395090" lon="-8.8793770">
        <ele>27.2</ele>
        <time>2021-05-19T09:14:13Z</time>
      </trkpt>
      <trkpt lat="42.0395170" lon="-8.8793660">
        <ele>27.3</ele>
        <time>2021-05-19T09:14:14Z</time>
      </trkpt>
      <trkpt lat="42.0395220" lon="-8.8793630">
        <ele>27.3</ele>
        <time>2021-05-19T09:14:15Z</time>
      </trkpt>
      <trkpt lat="42.0395320" lon="-8.8793520">
        <ele>27.3</ele>
        <time>2021-05-19T09:14:16Z</time>
      </trkpt>
      <trkpt lat="42.0395440" lon="-8.8793370">
        <ele>27.4</ele>
        <time>2021-05-19T09:14:17Z</time>
      </trkpt>
      <trkpt lat="42.0395490" lon="-8.8793240">
        <ele>27.5</ele>
        <time>2021-05-19T09:14:18Z</time>
      </trkpt>
      <trkpt lat="42.0395580" lon="-8.8793080">
        <ele>27.6</ele>
        <time>2021-05-19T09:14:19Z</time>
      </trkpt>
      <trkpt lat="42.0395710" lon="-8.8792970">
        <ele>27.6</ele>
        <time>2021-05-19T09:14:20Z</time>
      </trkpt>
      <trkpt lat="42.0395800" lon="-8.8792870">
        <ele>27.7</ele>
        <time>2021-05-19T09:14:21Z</time>
      </trkpt>
      <trkpt lat="42.0395920" lon="-8.8792720">
        <ele>27.8</ele>
        <time>2021-05-19T09:14:22Z</time>
      </trkpt>
      <trkpt lat="42.0396000" lon="-8.8792610">
        <ele>27.8</ele>
        <time>2021-05-19T09:14:23Z</time>
      </trkpt>
      <trkpt lat="42.0396050" lon="-8.8792500">
        <ele>27.9</ele>
        <time>2021-05-19T09:14:24Z</time>
      </trkpt>
      <trkpt lat="42.0396140" lon="-8.8792350">
        <ele>27.9</ele>
        <time>2021-05-19T09:14:25Z</time>
      </trkpt>
      <trkpt lat="42.0396250" lon="-8.8792220">
        <ele>28.0</ele>
        <time>2021-05-19T09:14:26Z</time>
      </trkpt>
      <trkpt lat="42.0396270" lon="-8.8792140">
        <ele>28.0</ele>
        <time>2021-05-19T09:14:27Z</time>
      </trkpt>
      <trkpt lat="42.0396400" lon="-8.8792040">
        <ele>28.1</ele>
        <time>2021-05-19T09:14:28Z</time>
      </trkpt>
      <trkpt lat="42.0396430" lon="-8.8791940">
        <ele>28.2</ele>
        <time>2021-05-19T09:14:29Z</time>
      </trkpt>
      <trkpt lat="42.0396550" lon="-8.8791850">
        <ele>28.2</ele>
        <time>2021-05-19T09:14:30Z</time>
      </trkpt>
      <trkpt lat="42.0396620" lon="-8.8791810">
        <ele>28.3</ele>
        <time>2021-05-19T09:14:31Z</time>
      </trkpt>
      <trkpt lat="42.0396810" lon="-8.8791650">
        <ele>28.4</ele>
        <time>2021-05-19T09:14:32Z</time>
      </trkpt>
      <trkpt lat="42.0396910" lon="-8.8791580">
        <ele>28.4</ele>
        <time>2021-05-19T09:14:33Z</time>
      </trkpt>
      <trkpt lat="42.0397010" lon="-8.8791500">
        <ele>28.5</ele>
        <time>2021-05-19T09:14:34Z</time>
      </trkpt>
      <trkpt lat="42.0397140" lon="-8.8791390">
        <ele>28.5</ele>
        <time>2021-05-19T09:14:35Z</time>
      </trkpt>
      <trkpt lat="42.0397270" lon="-8.8791300">
        <ele>28.6</ele>
        <time>2021-05-19T09:14:36Z</time>
      </trkpt>
      <trkpt lat="42.0397450" lon="-8.8791170">
        <ele>28.7</ele>
        <time>2021-05-19T09:14:37Z</time>
      </trkpt>
      <trkpt lat="42.0397530" lon="-8.8791100">
        <ele>28.7</ele>
        <time>2021-05-19T09:14:38Z</time>
      </trkpt>
      <trkpt lat="42.0397610" lon="-8.8791020">
        <ele>28.8</ele>
        <time>2021-05-19T09:14:39Z</time>
      </trkpt>
      <trkpt lat="42.0397730" lon="-8.8790940">
        <ele>28.8</ele>
        <time>2021-05-19T09:14:40Z</time>
      </trkpt>
      <trkpt lat="42.0397840" lon="-8.8790860">
        <ele>28.9</ele>
        <time>2021-05-19T09:14:41Z</time>
      </trkpt>
      <trkpt lat="42.0397920" lon="-8.8790820">
        <ele>28.9</ele>
        <time>2021-05-19T09:14:42Z</time>
      </trkpt>
      <trkpt lat="42.0398090" lon="-8.8790700">
        <ele>29.0</ele>
        <time>2021-05-19T09:14:43Z</time>
      </trkpt>
      <trkpt lat="42.0398180" lon="-8.8790630">
        <ele>29.1</ele>
        <time>2021-05-19T09:14:44Z</time>
      </trkpt>
      <trkpt lat="42.0398320" lon="-8.8790570">
        <ele>29.1</ele>
        <time>2021-05-19T09:14:45Z</time>
      </trkpt>
      <trkpt lat="42.0398390" lon="-8.8790530">
        <ele>29.2</ele>
        <time>2021-05-19T09:14:46Z</time>
      </trkpt>
      <trkpt lat="42.0398510" lon="-8.8790520">
        <ele>29.2</ele>
        <time>2021-05-19T09:14:47Z</time>
      </trkpt>
      <trkpt lat="42.0398710" lon="-8.8790490">
        <ele>29.3</ele>
        <time>2021-05-19T09:14:48Z</time>
      </trkpt>
      <trkpt lat="42.0398810" lon="-8.8790480">
        <ele>29.4</ele>
        <time>2021-05-19T09:14:49Z</time>
      </trkpt>
      <trkpt lat="42.0398900" lon="-8.8790460">
        <ele>29.4</ele>
        <time>2021-05-19T09:14:50Z</time>
      </trkpt>
      <trkpt lat="42.0398990" lon="-8.8790440">
        <ele>29.4</ele>
        <time>2021-05-19T09:14:51Z</time>
      </trkpt>
      <trkpt lat="42.0399110" lon="-8.8790420">
        <ele>29.5</ele>
        <time>2021-05-19T09:14:52Z</time>
      </trkpt>
      <trkpt lat="42.0399210" lon="-8.8790420">
        <ele>29.5</ele>
        <time>2021-05-19T09:14:53Z</time>
      </trkpt>
      <trkpt lat="42.0399430" lon="-8.8790390">
        <ele>29.6</ele>
        <time>2021-05-19T09:14:54Z</time>
      </trkpt>
      <trkpt lat="42.0399550" lon="-8.8790350">
        <ele>29.7</ele>
        <time>2021-05-19T09:14:55Z</time>
      </trkpt>
      <trkpt lat="42.0399630" lon="-8.8790340">
        <ele>29.7</ele>
        <time>2021-05-19T09:14:56Z</time>
      </trkpt>
      <trkpt lat="42.0399750" lon="-8.8790370">
        <ele>29.8</ele>
        <time>2021-05-19T09:14:57Z</time>
      </trkpt>
      <trkpt lat="42.0399870" lon="-8.8790340">
        <ele>29.8</ele>
        <time>2021-05-19T09:14:58Z</time>
      </trkpt>
      <trkpt lat="42.0400010" lon="-8.8790320">
        <ele>29.9</ele>
        <time>2021-05-19T09:14:59Z</time>
      </trkpt>
      <trkpt lat="42.0400100" lon="-8.8790320">
        <ele>30.0</ele>
        <time>2021-05-19T09:15:00Z</time>
      </trkpt>
      <trkpt lat="42.0400220" lon="-8.8790250">
        <ele>30.0</ele>
        <time>2021-05-19T09:15:01Z</time>
      </trkpt>
      <trkpt lat="42.0400380" lon="-8.8790190">
        <ele>30.1</ele>
        <time>2021-05-19T09:15:02Z</time>
      </trkpt>
      <trkpt lat="42.0400470" lon="-8.8790220">
        <ele>30.1</ele>
        <time>2021-05-19T09:15:03Z</time>
      </trkpt>
      <trkpt lat="42.0400530" lon="-8.8790280">
        <ele>30.2</ele>
        <time>2021-05-19T09:15:04Z</time>
      </trkpt>
      <trkpt lat="42.0400720" lon="-8.8790210">
        <ele>30.2</ele>
        <time>2021-05-19T09:15:05Z</time>
      </trkpt>
      <trkpt lat="42.0400810" lon="-8.8790190">
        <ele>30.3</ele>
        <time>2021-05-19T09:15:06Z</time>
      </trkpt>
      <trkpt lat="42.0400890" lon="-8.8790180">
        <ele>30.3</ele>
        <time>2021-05-19T09:15:07Z</time>
      </trkpt>
      <trkpt lat="42.0401010" lon="-8.8790190">
        <ele>30.3</ele>
        <time>2021-05-19T09:15:08Z</time>
      </trkpt>
      <trkpt lat="42.0401160" lon="-8.8790130">
        <ele>30.4</ele>
        <time>2021-05-19T09:15:09Z</time>
      </trkpt>
      <trkpt lat="42.0401240" lon="-8.8790040">
        <ele>30.4</ele>
        <time>2021-05-19T09:15:10Z</time>
      </trkpt>
      <trkpt lat="42.0401430" lon="-8.8790000">
        <ele>30.5</ele>
        <time>2021-05-19T09:15:11Z</time>
      </trkpt>
      <trkpt lat="42.0401610" lon="-8.8790000">
        <ele>30.6</ele>
        <time>2021-05-19T09:15:12Z</time>
      </trkpt>
      <trkpt lat="42.0401770" lon="-8.8789980">
        <ele>30.6</ele>
        <time>2021-05-19T09:15:13Z</time>
      </trkpt>
      <trkpt lat="42.0401920" lon="-8.8789920">
        <ele>30.6</ele>
        <time>2021-05-19T09:15:14Z</time>
      </trkpt>
      <trkpt lat="42.0402090" lon="-8.8789860">
        <ele>30.7</ele>
        <time>2021-05-19T09:15:15Z</time>
      </trkpt>
      <trkpt lat="42.0402260" lon="-8.8789790">
        <ele>30.7</ele>
        <time>2021-05-19T09:15:16Z</time>
      </trkpt>
      <trkpt lat="42.0402440" lon="-8.8789780">
        <ele>30.8</ele>
        <time>2021-05-19T09:15:17Z</time>
      </trkpt>
      <trkpt lat="42.0402590" lon="-8.8789710">
        <ele>30.8</ele>
        <time>2021-05-19T09:15:18Z</time>
      </trkpt>
      <trkpt lat="42.0402750" lon="-8.8789700">
        <ele>30.8</ele>
        <time>2021-05-19T09:15:19Z</time>
      </trkpt>
      <trkpt lat="42.0402910" lon="-8.8789630">
        <ele>30.9</ele>
        <time>2021-05-19T09:15:20Z</time>
      </trkpt>
      <trkpt lat="42.0403070" lon="-8.8789490">
        <ele>30.9</ele>
        <time>2021-05-19T09:15:21Z</time>
      </trkpt>
      <trkpt lat="42.0403230" lon="-8.8789470">
        <ele>31.0</ele>
        <time>2021-05-19T09:15:22Z</time>
      </trkpt>
      <trkpt lat="42.0403410" lon="-8.8789470">
        <ele>31.0</ele>
        <time>2021-05-19T09:15:23Z</time>
      </trkpt>
      <trkpt lat="42.0403550" lon="-8.8789450">
        <ele>31.0</ele>
        <time>2021-05-19T09:15:24Z</time>
      </trkpt>
      <trkpt lat="42.0403700" lon="-8.8789360">
        <ele>31.0</ele>
        <time>2021-05-19T09:15:25Z</time>
      </trkpt>
      <trkpt lat="42.0403820" lon="-8.8789300">
        <ele>31.1</ele>
        <time>2021-05-19T09:15:26Z</time>
      </trkpt>
      <trkpt lat="42.0403960" lon="-8.8789270">
        <ele>31.1</ele>
        <time>2021-05-19T09:15:27Z</time>
      </trkpt>
      <trkpt lat="42.0404100" lon="-8.8789240">
        <ele>31.1</ele>
        <time>2021-05-19T09:15:28Z</time>
      </trkpt>
      <trkpt lat="42.0404230" lon="-8.8789130">
        <ele>31.1</ele>
        <time>2021-05-19T09:15:29Z</time>
      </trkpt>
      <trkpt lat="42.0404370" lon="-8.8789050">
        <ele>31.1</ele>
        <time>2021-05-19T09:15:30Z</time>
      </trkpt>
      <trkpt lat="42.0404520" lon="-8.8789000">
        <ele>31.2</ele>
        <time>2021-05-19T09:15:31Z</time>
      </trkpt>
      <trkpt lat="42.0404660" lon="-8.8788950">
        <ele>31.2</ele>
        <time>2021-05-19T09:15:32Z</time>
      </trkpt>
      <trkpt lat="42.0404810" lon="-8.8788930">
        <ele>31.2</ele>
        <time>2021-05-19T09:15:33Z</time>
      </trkpt>
      <trkpt lat="42.0404950" lon="-8.8788890">
        <ele>31.2</ele>
        <time>2021-05-19T09:15:34Z</time>
      </trkpt>
      <trkpt lat="42.0405080" lon="-8.8788820">
        <ele>31.2</ele>
        <time>2021-05-19T09:15:35Z</time>
      </trkpt>
      <trkpt lat="42.0405220" lon="-8.8788780">
        <ele>31.2</ele>
        <time>2021-05-19T09:15:36Z</time>
      </trkpt>
      <trkpt lat="42.0405350" lon="-8.8788780">
        <ele>31.2</ele>
        <time>2021-05-19T09:15:37Z</time>
      </trkpt>
      <trkpt lat="42.0405490" lon="-8.8788830">
        <ele>31.2</ele>
        <time>2021-05-19T09:15:38Z</time>
      </trkpt>
      <trkpt lat="42.0405620" lon="-8.8788850">
        <ele>31.2</ele>
        <time>2021-05-19T09:15:39Z</time>
      </trkpt>
      <trkpt lat="42.0405840" lon="-8.8788850">
        <ele>31.2</ele>
        <time>2021-05-19T09:15:40Z</time>
      </trkpt>
      <trkpt lat="42.0405920" lon="-8.8788830">
        <ele>31.2</ele>
        <time>2021-05-19T09:15:41Z</time>
      </trkpt>
      <trkpt lat="42.0406000" lon="-8.8788820">
        <ele>31.2</ele>
        <time>2021-05-19T09:15:42Z</time>
      </trkpt>
      <trkpt lat="42.0406140" lon="-8.8788800">
        <ele>31.1</ele>
        <time>2021-05-19T09:15:43Z</time>
      </trkpt>
      <trkpt lat="42.0406150" lon="-8.8788790">
        <ele>31.1</ele>
        <time>2021-05-19T09:15:44Z</time>
      </trkpt>
      <trkpt lat="42.0406160" lon="-8.8788780">
        <ele>31.1</ele>
        <time>2021-05-19T09:15:45Z</time>
      </trkpt>
      <trkpt lat="42.0406170" lon="-8.8788770">
        <ele>31.1</ele>
        <time>2021-05-19T09:15:46Z</time>
      </trkpt>
      <trkpt lat="42.0406190" lon="-8.8788760">
        <ele>31.1</ele>
        <time>2021-05-19T09:15:47Z</time>
      </trkpt>
      <trkpt lat="42.0406200" lon="-8.8788750">
        <ele>31.1</ele>
        <time>2021-05-19T09:15:48Z</time>
      </trkpt>
      <trkpt lat="42.0406210" lon="-8.8788740">
        <ele>31.1</ele>
        <time>2021-05-19T09:15:49Z</time>
      </trkpt>
      <trkpt lat="42.0406220" lon="-8.8788730">
        <ele>31.1</ele>
        <time>2021-05-19T09:15:50Z</time>
      </trkpt>
      <trkpt lat="42.0406230" lon="-8.8788730">
        <ele>31.1</ele>
        <time>2021-05-19T09:15:51Z</time>
      </trkpt>
      <trkpt lat="42.0406240" lon="-8.8788720">
        <ele>31.1</ele>
        <time>2021-05-19T09:15:52Z</time>
      </trkpt>
      <trkpt lat="42.0406250" lon="-8.8788710">
        <ele>31.1</ele>
        <time>2021-05-19T09:15:53Z</time>
      </trkpt>
      <trkpt lat="42.0406260" lon="-8.8788700">
        <ele>31.1</ele>
        <time>2021-05-19T09:15:54Z</time>
      </trkpt>
      <trkpt lat="42.0406270" lon="-8.8788690">
        <ele>31.1</ele>
        <time>2021-05-19T09:15:55Z</time>
      </trkpt>
      <trkpt lat="42.0406290" lon="-8.8788680">
        <ele>31.1</ele>
        <time>2021-05-19T09:15:56Z</time>
      </trkpt>
      <trkpt lat="42.0406300" lon="-8.8788670">
        <ele>31.1</ele>
        <time>2021-05-19T09:15:57Z</time>
      </trkpt>
      <trkpt lat="42.0406310" lon="-8.8788660">
        <ele>31.1</ele>
        <time>2021-05-19T09:15:58Z</time>
      </trkpt>
      <trkpt lat="42.0406320" lon="-8.8788650">
        <ele>31.1</ele>
        <time>2021-05-19T09:15:59Z</time>
      </trkpt>
      <trkpt lat="42.0406330" lon="-8.8788640">
        <ele>31.1</ele>
        <time>2021-05-19T09:16:00Z</time>
      </trkpt>
      <trkpt lat="42.0406370" lon="-8.8788540">
        <ele>31.1</ele>
        <time>2021-05-19T09:16:01Z</time>
      </trkpt>
      <trkpt lat="42.0406460" lon="-8.8788530">
        <ele>31.1</ele>
        <time>2021-05-19T09:16:02Z</time>
      </trkpt>
      <trkpt lat="42.0406520" lon="-8.8788530">
        <ele>31.1</ele>
        <time>2021-05-19T09:16:03Z</time>
      </trkpt>
      <trkpt lat="42.0406620" lon="-8.8788530">
        <ele>31.1</ele>
        <time>2021-05-19T09:16:04Z</time>
      </trkpt>
      <trkpt lat="42.0406680" lon="-8.8788520">
        <ele>31.1</ele>
        <time>2021-05-19T09:16:05Z</time>
      </trkpt>
      <trkpt lat="42.0406790" lon="-8.8788520">
        <ele>31.1</ele>
        <time>2021-05-19T09:16:06Z</time>
      </trkpt>
      <trkpt lat="42.0406920" lon="-8.8788480">
        <ele>31.0</ele>
        <time>2021-05-19T09:16:07Z</time>
      </trkpt>
      <trkpt lat="42.0407010" lon="-8.8788490">
        <ele>31.0</ele>
        <time>2021-05-19T09:16:08Z</time>
      </trkpt>
      <trkpt lat="42.0407060" lon="-8.8788460">
        <ele>31.0</ele>
        <time>2021-05-19T09:16:09Z</time>
      </trkpt>
      <trkpt lat="42.0407210" lon="-8.8788490">
        <ele>31.0</ele>
        <time>2021-05-19T09:16:10Z</time>
      </trkpt>
      <trkpt lat="42.0407330" lon="-8.8788500">
        <ele>31.0</ele>
        <time>2021-05-19T09:16:11Z</time>
      </trkpt>
      <trkpt lat="42.0407390" lon="-8.8788500">
        <ele>31.0</ele>
        <time>2021-05-19T09:16:12Z</time>
      </trkpt>
      <trkpt lat="42.0407490" lon="-8.8788500">
        <ele>31.0</ele>
        <time>2021-05-19T09:16:13Z</time>
      </trkpt>
      <trkpt lat="42.0407610" lon="-8.8788500">
        <ele>31.0</ele>
        <time>2021-05-19T09:16:14Z</time>
      </trkpt>
      <trkpt lat="42.0407690" lon="-8.8788520">
        <ele>30.9</ele>
        <time>2021-05-19T09:16:15Z</time>
      </trkpt>
      <trkpt lat="42.0407780" lon="-8.8788550">
        <ele>30.9</ele>
        <time>2021-05-19T09:16:16Z</time>
      </trkpt>
      <trkpt lat="42.0408010" lon="-8.8788560">
        <ele>30.9</ele>
        <time>2021-05-19T09:16:17Z</time>
      </trkpt>
      <trkpt lat="42.0408120" lon="-8.8788560">
        <ele>30.9</ele>
        <time>2021-05-19T09:16:18Z</time>
      </trkpt>
      <trkpt lat="42.0408220" lon="-8.8788570">
        <ele>30.9</ele>
        <time>2021-05-19T09:16:19Z</time>
      </trkpt>
      <trkpt lat="42.0408380" lon="-8.8788540">
        <ele>30.9</ele>
        <time>2021-05-19T09:16:20Z</time>
      </trkpt>
      <trkpt lat="42.0408540" lon="-8.8788520">
        <ele>30.9</ele>
        <time>2021-05-19T09:16:21Z</time>
      </trkpt>
      <trkpt lat="42.0408690" lon="-8.8788510">
        <ele>30.9</ele>
        <time>2021-05-19T09:16:22Z</time>
      </trkpt>
      <trkpt lat="42.0408840" lon="-8.8788450">
        <ele>30.9</ele>
        <time>2021-05-19T09:16:23Z</time>
      </trkpt>
      <trkpt lat="42.0409030" lon="-8.8788510">
        <ele>30.9</ele>
        <time>2021-05-19T09:16:24Z</time>
      </trkpt>
      <trkpt lat="42.0409180" lon="-8.8788430">
        <ele>30.8</ele>
        <time>2021-05-19T09:16:25Z</time>
      </trkpt>
      <trkpt lat="42.0409340" lon="-8.8788410">
        <ele>30.8</ele>
        <time>2021-05-19T09:16:26Z</time>
      </trkpt>
      <trkpt lat="42.0409490" lon="-8.8788280">
        <ele>30.8</ele>
        <time>2021-05-19T09:16:27Z</time>
      </trkpt>
      <trkpt lat="42.0409630" lon="-8.8788190">
        <ele>30.9</ele>
        <time>2021-05-19T09:16:28Z</time>
      </trkpt>
      <trkpt lat="42.0409780" lon="-8.8788080">
        <ele>30.9</ele>
        <time>2021-05-19T09:16:29Z</time>
      </trkpt>
      <trkpt lat="42.0409950" lon="-8.8788030">
        <ele>30.9</ele>
        <time>2021-05-19T09:16:30Z</time>
      </trkpt>
      <trkpt lat="42.0410110" lon="-8.8787980">
        <ele>30.9</ele>
        <time>2021-05-19T09:16:31Z</time>
      </trkpt>
      <trkpt lat="42.0410250" lon="-8.8787830">
        <ele>30.9</ele>
        <time>2021-05-19T09:16:32Z</time>
      </trkpt>
      <trkpt lat="42.0410400" lon="-8.8787720">
        <ele>30.9</ele>
        <time>2021-05-19T09:16:33Z</time>
      </trkpt>
      <trkpt lat="42.0410550" lon="-8.8787630">
        <ele>30.9</ele>
        <time>2021-05-19T09:16:34Z</time>
      </trkpt>
      <trkpt lat="42.0410710" lon="-8.8787560">
        <ele>30.9</ele>
        <time>2021-05-19T09:16:35Z</time>
      </trkpt>
      <trkpt lat="42.0410840" lon="-8.8787440">
        <ele>30.9</ele>
        <time>2021-05-19T09:16:36Z</time>
      </trkpt>
      <trkpt lat="42.0410980" lon="-8.8787300">
        <ele>30.9</ele>
        <time>2021-05-19T09:16:37Z</time>
      </trkpt>
      <trkpt lat="42.0411140" lon="-8.8787210">
        <ele>31.0</ele>
        <time>2021-05-19T09:16:38Z</time>
      </trkpt>
      <trkpt lat="42.0411300" lon="-8.8787120">
        <ele>31.0</ele>
        <time>2021-05-19T09:16:39Z</time>
      </trkpt>
      <trkpt lat="42.0411450" lon="-8.8786980">
        <ele>31.0</ele>
        <time>2021-05-19T09:16:40Z</time>
      </trkpt>
      <trkpt lat="42.0411590" lon="-8.8786900">
        <ele>31.1</ele>
        <time>2021-05-19T09:16:41Z</time>
      </trkpt>
      <trkpt lat="42.0411740" lon="-8.8786800">
        <ele>31.1</ele>
        <time>2021-05-19T09:16:42Z</time>
      </trkpt>
      <trkpt lat="42.0411890" lon="-8.8786730">
        <ele>31.1</ele>
        <time>2021-05-19T09:16:43Z</time>
      </trkpt>
      <trkpt lat="42.0412040" lon="-8.8786700">
        <ele>31.2</ele>
        <time>2021-05-19T09:16:44Z</time>
      </trkpt>
      <trkpt lat="42.0412140" lon="-8.8786610">
        <ele>31.2</ele>
        <time>2021-05-19T09:16:45Z</time>
      </trkpt>
      <trkpt lat="42.0412280" lon="-8.8786490">
        <ele>31.3</ele>
        <time>2021-05-19T09:16:46Z</time>
      </trkpt>
      <trkpt lat="42.0412390" lon="-8.8786350">
        <ele>31.4</ele>
        <time>2021-05-19T09:16:47Z</time>
      </trkpt>
      <trkpt lat="42.0412540" lon="-8.8786230">
        <ele>31.4</ele>
        <time>2021-05-19T09:16:48Z</time>
      </trkpt>
      <trkpt lat="42.0412670" lon="-8.8786150">
        <ele>31.5</ele>
        <time>2021-05-19T09:16:49Z</time>
      </trkpt>
      <trkpt lat="42.0412830" lon="-8.8786080">
        <ele>31.6</ele>
        <time>2021-05-19T09:16:50Z</time>
      </trkpt>
      <trkpt lat="42.0412970" lon="-8.8786030">
        <ele>31.7</ele>
        <time>2021-05-19T09:16:51Z</time>
      </trkpt>
      <trkpt lat="42.0413100" lon="-8.8785930">
        <ele>31.7</ele>
        <time>2021-05-19T09:16:52Z</time>
      </trkpt>
      <trkpt lat="42.0413200" lon="-8.8785810">
        <ele>31.8</ele>
        <time>2021-05-19T09:16:53Z</time>
      </trkpt>
      <trkpt lat="42.0413360" lon="-8.8785780">
        <ele>31.9</ele>
        <time>2021-05-19T09:16:54Z</time>
      </trkpt>
      <trkpt lat="42.0413470" lon="-8.8785670">
        <ele>32.0</ele>
        <time>2021-05-19T09:16:55Z</time>
      </trkpt>
      <trkpt lat="42.0413580" lon="-8.8785470">
        <ele>32.2</ele>
        <time>2021-05-19T09:16:56Z</time>
      </trkpt>
      <trkpt lat="42.0413610" lon="-8.8785420">
        <ele>32.2</ele>
        <time>2021-05-19T09:16:57Z</time>
      </trkpt>
      <trkpt lat="42.0413630" lon="-8.8785360">
        <ele>32.2</ele>
        <time>2021-05-19T09:16:58Z</time>
      </trkpt>
      <trkpt lat="42.0413660" lon="-8.8785310">
        <ele>32.3</ele>
        <time>2021-05-19T09:16:59Z</time>
      </trkpt>
      <trkpt lat="42.0413680" lon="-8.8785260">
        <ele>32.3</ele>
        <time>2021-05-19T09:17:00Z</time>
      </trkpt>
      <trkpt lat="42.0413720" lon="-8.8785190">
        <ele>32.4</ele>
        <time>2021-05-19T09:17:01Z</time>
      </trkpt>
      <trkpt lat="42.0413840" lon="-8.8785030">
        <ele>32.5</ele>
        <time>2021-05-19T09:17:02Z</time>
      </trkpt>
      <trkpt lat="42.0413870" lon="-8.8784950">
        <ele>32.6</ele>
        <time>2021-05-19T09:17:03Z</time>
      </trkpt>
      <trkpt lat="42.0414020" lon="-8.8784760">
        <ele>32.7</ele>
        <time>2021-05-19T09:17:04Z</time>
      </trkpt>
      <trkpt lat="42.0414100" lon="-8.8784690">
        <ele>32.8</ele>
        <time>2021-05-19T09:17:05Z</time>
      </trkpt>
      <trkpt lat="42.0414170" lon="-8.8784610">
        <ele>32.9</ele>
        <time>2021-05-19T09:17:06Z</time>
      </trkpt>
      <trkpt lat="42.0414200" lon="-8.8784540">
        <ele>33.0</ele>
        <time>2021-05-19T09:17:07Z</time>
      </trkpt>
      <trkpt lat="42.0414250" lon="-8.8784430">
        <ele>33.1</ele>
        <time>2021-05-19T09:17:08Z</time>
      </trkpt>
      <trkpt lat="42.0414330" lon="-8.8784280">
        <ele>33.2</ele>
        <time>2021-05-19T09:17:09Z</time>
      </trkpt>
      <trkpt lat="42.0414460" lon="-8.8784110">
        <ele>33.4</ele>
        <time>2021-05-19T09:17:10Z</time>
      </trkpt>
      <trkpt lat="42.0414520" lon="-8.8784010">
        <ele>33.5</ele>
        <time>2021-05-19T09:17:11Z</time>
      </trkpt>
      <trkpt lat="42.0414580" lon="-8.8783900">
        <ele>33.6</ele>
        <time>2021-05-19T09:17:12Z</time>
      </trkpt>
      <trkpt lat="42.0414650" lon="-8.8783770">
        <ele>33.7</ele>
        <time>2021-05-19T09:17:13Z</time>
      </trkpt>
      <trkpt lat="42.0414750" lon="-8.8783630">
        <ele>33.9</ele>
        <time>2021-05-19T09:17:14Z</time>
      </trkpt>
      <trkpt lat="42.0414760" lon="-8.8783520">
        <ele>34.0</ele>
        <time>2021-05-19T09:17:15Z</time>
      </trkpt>
      <trkpt lat="42.0414860" lon="-8.8783370">
        <ele>34.1</ele>
        <time>2021-05-19T09:17:16Z</time>
      </trkpt>
      <trkpt lat="42.0414910" lon="-8.8783190">
        <ele>34.3</ele>
        <time>2021-05-19T09:17:17Z</time>
      </trkpt>
      <trkpt lat="42.0414920" lon="-8.8783040">
        <ele>34.4</ele>
        <time>2021-05-19T09:17:18Z</time>
      </trkpt>
      <trkpt lat="42.0414970" lon="-8.8782960">
        <ele>34.5</ele>
        <time>2021-05-19T09:17:19Z</time>
      </trkpt>
      <trkpt lat="42.0415050" lon="-8.8782800">
        <ele>34.6</ele>
        <time>2021-05-19T09:17:20Z</time>
      </trkpt>
      <trkpt lat="42.0415130" lon="-8.8782510">
        <ele>34.9</ele>
        <time>2021-05-19T09:17:21Z</time>
      </trkpt>
      <trkpt lat="42.0415180" lon="-8.8782410">
        <ele>35.0</ele>
        <time>2021-05-19T09:17:22Z</time>
      </trkpt>
      <trkpt lat="42.0415220" lon="-8.8782300">
        <ele>35.1</ele>
        <time>2021-05-19T09:17:23Z</time>
      </trkpt>
      <trkpt lat="42.0415200" lon="-8.8782100">
        <ele>35.2</ele>
        <time>2021-05-19T09:17:24Z</time>
      </trkpt>
      <trkpt lat="42.0415210" lon="-8.8781990">
        <ele>35.3</ele>
        <time>2021-05-19T09:17:25Z</time>
      </trkpt>
      <trkpt lat="42.0415230" lon="-8.8781870">
        <ele>35.4</ele>
        <time>2021-05-19T09:17:26Z</time>
      </trkpt>
      <trkpt lat="42.0415240" lon="-8.8781750">
        <ele>35.5</ele>
        <time>2021-05-19T09:17:27Z</time>
      </trkpt>
      <trkpt lat="42.0415230" lon="-8.8781550">
        <ele>35.7</ele>
        <time>2021-05-19T09:17:28Z</time>
      </trkpt>
      <trkpt lat="42.0415190" lon="-8.8781350">
        <ele>35.8</ele>
        <time>2021-05-19T09:17:29Z</time>
      </trkpt>
      <trkpt lat="42.0415170" lon="-8.8781210">
        <ele>36.0</ele>
        <time>2021-05-19T09:17:30Z</time>
      </trkpt>
      <trkpt lat="42.0415100" lon="-8.8781010">
        <ele>36.1</ele>
        <time>2021-05-19T09:17:31Z</time>
      </trkpt>
      <trkpt lat="42.0415090" lon="-8.8780900">
        <ele>36.2</ele>
        <time>2021-05-19T09:17:32Z</time>
      </trkpt>
      <trkpt lat="42.0415100" lon="-8.8780720">
        <ele>36.3</ele>
        <time>2021-05-19T09:17:33Z</time>
      </trkpt>
      <trkpt lat="42.0415070" lon="-8.8780480">
        <ele>36.5</ele>
        <time>2021-05-19T09:17:34Z</time>
      </trkpt>
      <trkpt lat="42.0415100" lon="-8.8780190">
        <ele>36.7</ele>
        <time>2021-05-19T09:17:35Z</time>
      </trkpt>
      <trkpt lat="42.0415120" lon="-8.8780080">
        <ele>36.8</ele>
        <time>2021-05-19T09:17:36Z</time>
      </trkpt>
      <trkpt lat="42.0415130" lon="-8.8779960">
        <ele>36.9</ele>
        <time>2021-05-19T09:17:37Z</time>
      </trkpt>
      <trkpt lat="42.0415140" lon="-8.8779900">
        <ele>36.9</ele>
        <time>2021-05-19T09:17:38Z</time>
      </trkpt>
      <trkpt lat="42.0415170" lon="-8.8779710">
        <ele>37.0</ele>
        <time>2021-05-19T09:17:39Z</time>
      </trkpt>
      <trkpt lat="42.0415200" lon="-8.8779560">
        <ele>37.1</ele>
        <time>2021-05-19T09:17:40Z</time>
      </trkpt>
      <trkpt lat="42.0415300" lon="-8.8779360">
        <ele>37.3</ele>
        <time>2021-05-19T09:17:41Z</time>
      </trkpt>
      <trkpt lat="42.0415380" lon="-8.8779190">
        <ele>37.4</ele>
        <time>2021-05-19T09:17:42Z</time>
      </trkpt>
      <trkpt lat="42.0415530" lon="-8.8779170">
        <ele>37.5</ele>
        <time>2021-05-19T09:17:43Z</time>
      </trkpt>
      <trkpt lat="42.0415630" lon="-8.8779120">
        <ele>37.6</ele>
        <time>2021-05-19T09:17:44Z</time>
      </trkpt>
      <trkpt lat="42.0415710" lon="-8.8779140">
        <ele>37.7</ele>
        <time>2021-05-19T09:17:45Z</time>
      </trkpt>
      <trkpt lat="42.0415830" lon="-8.8779130">
        <ele>37.8</ele>
        <time>2021-05-19T09:17:46Z</time>
      </trkpt>
      <trkpt lat="42.0415920" lon="-8.8779140">
        <ele>38.0</ele>
        <time>2021-05-19T09:17:47Z</time>
      </trkpt>
      <trkpt lat="42.0416040" lon="-8.8779180">
        <ele>38.0</ele>
        <time>2021-05-19T09:17:48Z</time>
      </trkpt>
      <trkpt lat="42.0416170" lon="-8.8779220">
        <ele>38.0</ele>
        <time>2021-05-19T09:17:49Z</time>
      </trkpt>
      <trkpt lat="42.0416310" lon="-8.8779240">
        <ele>38.0</ele>
        <time>2021-05-19T09:17:50Z</time>
      </trkpt>
      <trkpt lat="42.0416380" lon="-8.8779290">
        <ele>38.0</ele>
        <time>2021-05-19T09:17:51Z</time>
      </trkpt>
      <trkpt lat="42.0416580" lon="-8.8779400">
        <ele>38.0</ele>
        <time>2021-05-19T09:17:52Z</time>
      </trkpt>
      <trkpt lat="42.0416660" lon="-8.8779430">
        <ele>38.0</ele>
        <time>2021-05-19T09:17:53Z</time>
      </trkpt>
      <trkpt lat="42.0416740" lon="-8.8779460">
        <ele>38.0</ele>
        <time>2021-05-19T09:17:54Z</time>
      </trkpt>
      <trkpt lat="42.0416850" lon="-8.8779500">
        <ele>38.0</ele>
        <time>2021-05-19T09:17:55Z</time>
      </trkpt>
      <trkpt lat="42.0416950" lon="-8.8779540">
        <ele>38.0</ele>
        <time>2021-05-19T09:17:56Z</time>
      </trkpt>
      <trkpt lat="42.0417060" lon="-8.8779580">
        <ele>38.0</ele>
        <time>2021-05-19T09:17:57Z</time>
      </trkpt>
      <trkpt lat="42.0417150" lon="-8.8779650">
        <ele>38.0</ele>
        <time>2021-05-19T09:17:58Z</time>
      </trkpt>
      <trkpt lat="42.0417300" lon="-8.8779690">
        <ele>38.0</ele>
        <time>2021-05-19T09:17:59Z</time>
      </trkpt>
      <trkpt lat="42.0417390" lon="-8.8779770">
        <ele>38.0</ele>
        <time>2021-05-19T09:18:00Z</time>
      </trkpt>
      <trkpt lat="42.0417540" lon="-8.8779800">
        <ele>38.0</ele>
        <time>2021-05-19T09:18:01Z</time>
      </trkpt>
      <trkpt lat="42.0417580" lon="-8.8779790">
        <ele>38.0</ele>
        <time>2021-05-19T09:18:02Z</time>
      </trkpt>
      <trkpt lat="42.0417710" lon="-8.8779850">
        <ele>38.0</ele>
        <time>2021-05-19T09:18:03Z</time>
      </trkpt>
      <trkpt lat="42.0417930" lon="-8.8779860">
        <ele>38.0</ele>
        <time>2021-05-19T09:18:04Z</time>
      </trkpt>
      <trkpt lat="42.0418030" lon="-8.8779850">
        <ele>38.0</ele>
        <time>2021-05-19T09:18:05Z</time>
      </trkpt>
      <trkpt lat="42.0418130" lon="-8.8779830">
        <ele>38.0</ele>
        <time>2021-05-19T09:18:06Z</time>
      </trkpt>
      <trkpt lat="42.0418320" lon="-8.8779970">
        <ele>37.9</ele>
        <time>2021-05-19T09:18:07Z</time>
      </trkpt>
      <trkpt lat="42.0418420" lon="-8.8780010">
        <ele>37.9</ele>
        <time>2021-05-19T09:18:08Z</time>
      </trkpt>
      <trkpt lat="42.0418510" lon="-8.8780040">
        <ele>37.9</ele>
        <time>2021-05-19T09:18:09Z</time>
      </trkpt>
      <trkpt lat="42.0418560" lon="-8.8780110">
        <ele>37.9</ele>
        <time>2021-05-19T09:18:10Z</time>
      </trkpt>
      <trkpt lat="42.0418730" lon="-8.8780160">
        <ele>37.9</ele>
        <time>2021-05-19T09:18:11Z</time>
      </trkpt>
      <trkpt lat="42.0418800" lon="-8.8780200">
        <ele>37.9</ele>
        <time>2021-05-19T09:18:12Z</time>
      </trkpt>
      <trkpt lat="42.0418970" lon="-8.8780240">
        <ele>37.9</ele>
        <time>2021-05-19T09:18:13Z</time>
      </trkpt>
      <trkpt lat="42.0419120" lon="-8.8780350">
        <ele>37.9</ele>
        <time>2021-05-19T09:18:14Z</time>
      </trkpt>
      <trkpt lat="42.0419270" lon="-8.8780450">
        <ele>37.9</ele>
        <time>2021-05-19T09:18:15Z</time>
      </trkpt>
      <trkpt lat="42.0419380" lon="-8.8780540">
        <ele>37.9</ele>
        <time>2021-05-19T09:18:16Z</time>
      </trkpt>
      <trkpt lat="42.0419520" lon="-8.8780610">
        <ele>37.8</ele>
        <time>2021-05-19T09:18:17Z</time>
      </trkpt>
      <trkpt lat="42.0419670" lon="-8.8780650">
        <ele>37.8</ele>
        <time>2021-05-19T09:18:18Z</time>
      </trkpt>
      <trkpt lat="42.0419770" lon="-8.8780670">
        <ele>37.8</ele>
        <time>2021-05-19T09:18:19Z</time>
      </trkpt>
      <trkpt lat="42.0419900" lon="-8.8780700">
        <ele>37.8</ele>
        <time>2021-05-19T09:18:20Z</time>
      </trkpt>
      <trkpt lat="42.0420010" lon="-8.8780730">
        <ele>37.8</ele>
        <time>2021-05-19T09:18:21Z</time>
      </trkpt>
      <trkpt lat="42.0420210" lon="-8.8780850">
        <ele>37.8</ele>
        <time>2021-05-19T09:18:22Z</time>
      </trkpt>
      <trkpt lat="42.0420280" lon="-8.8780860">
        <ele>37.8</ele>
        <time>2021-05-19T09:18:23Z</time>
      </trkpt>
      <trkpt lat="42.0420360" lon="-8.8780870">
        <ele>37.8</ele>
        <time>2021-05-19T09:18:24Z</time>
      </trkpt>
      <trkpt lat="42.0420470" lon="-8.8780940">
        <ele>37.8</ele>
        <time>2021-05-19T09:18:25Z</time>
      </trkpt>
      <trkpt lat="42.0420640" lon="-8.8780950">
        <ele>37.8</ele>
        <time>2021-05-19T09:18:26Z</time>
      </trkpt>
      <trkpt lat="42.0420800" lon="-8.8781000">
        <ele>37.8</ele>
        <time>2021-05-19T09:18:27Z</time>
      </trkpt>
      <trkpt lat="42.0420960" lon="-8.8781000">
        <ele>37.8</ele>
        <time>2021-05-19T09:18:28Z</time>
      </trkpt>
      <trkpt lat="42.0421100" lon="-8.8781080">
        <ele>37.8</ele>
        <time>2021-05-19T09:18:29Z</time>
      </trkpt>
      <trkpt lat="42.0421230" lon="-8.8781080">
        <ele>37.8</ele>
        <time>2021-05-19T09:18:30Z</time>
      </trkpt>
      <trkpt lat="42.0421350" lon="-8.8781110">
        <ele>37.8</ele>
        <time>2021-05-19T09:18:31Z</time>
      </trkpt>
      <trkpt lat="42.0421460" lon="-8.8781170">
        <ele>37.8</ele>
        <time>2021-05-19T09:18:32Z</time>
      </trkpt>
      <trkpt lat="42.0421510" lon="-8.8781250">
        <ele>37.8</ele>
        <time>2021-05-19T09:18:33Z</time>
      </trkpt>
      <trkpt lat="42.0421550" lon="-8.8781260">
        <ele>37.8</ele>
        <time>2021-05-19T09:18:34Z</time>
      </trkpt>
      <trkpt lat="42.0421690" lon="-8.8781320">
        <ele>37.8</ele>
        <time>2021-05-19T09:18:35Z</time>
      </trkpt>
      <trkpt lat="42.0421810" lon="-8.8781410">
        <ele>37.8</ele>
        <time>2021-05-19T09:18:36Z</time>
      </trkpt>
      <trkpt lat="42.0421970" lon="-8.8781430">
        <ele>37.8</ele>
        <time>2021-05-19T09:18:37Z</time>
      </trkpt>
      <trkpt lat="42.0422070" lon="-8.8781440">
        <ele>37.8</ele>
        <time>2021-05-19T09:18:38Z</time>
      </trkpt>
      <trkpt lat="42.0422070" lon="-8.8781370">
        <ele>37.8</ele>
        <time>2021-05-19T09:18:39Z</time>
      </trkpt>
      <trkpt lat="42.0422020" lon="-8.8781300">
        <ele>37.8</ele>
        <time>2021-05-19T09:18:40Z</time>
      </trkpt>
      <trkpt lat="42.0422010" lon="-8.8781280">
        <ele>37.8</ele>
        <time>2021-05-19T09:18:41Z</time>
      </trkpt>
      <trkpt lat="42.0422000" lon="-8.8781300">
        <ele>37.8</ele>
        <time>2021-05-19T09:18:42Z</time>
      </trkpt>
      <trkpt lat="42.0422060" lon="-8.8781240">
        <ele>37.8</ele>
        <time>2021-05-19T09:18:43Z</time>
      </trkpt>
      <trkpt lat="42.0422060" lon="-8.8781240">
        <ele>37.8</ele>
        <time>2021-05-19T09:18:44Z</time>
      </trkpt>
      <trkpt lat="42.0422090" lon="-8.8781230">
        <ele>37.8</ele>
        <time>2021-05-19T09:18:45Z</time>
      </trkpt>
      <trkpt lat="42.0422090" lon="-8.8781230">
        <ele>37.8</ele>
        <time>2021-05-19T09:18:46Z</time>
      </trkpt>
      <trkpt lat="42.0422090" lon="-8.8781230">
        <ele>37.8</ele>
        <time>2021-05-19T09:18:47Z</time>
      </trkpt>
      <trkpt lat="42.0422140" lon="-8.8781230">
        <ele>37.8</ele>
        <time>2021-05-19T09:18:48Z</time>
      </trkpt>
      <trkpt lat="42.0422140" lon="-8.8781230">
        <ele>37.8</ele>
        <time>2021-05-19T09:18:49Z</time>
      </trkpt>
      <trkpt lat="42.0422160" lon="-8.8781230">
        <ele>37.8</ele>
        <time>2021-05-19T09:18:50Z</time>
      </trkpt>
      <trkpt lat="42.0422150" lon="-8.8781230">
        <ele>37.8</ele>
        <time>2021-05-19T09:18:51Z</time>
      </trkpt>
      <trkpt lat="42.0422170" lon="-8.8781240">
        <ele>37.8</ele>
        <time>2021-05-19T09:18:52Z</time>
      </trkpt>
      <trkpt lat="42.0422190" lon="-8.8781210">
        <ele>37.8</ele>
        <time>2021-05-19T09:18:53Z</time>
      </trkpt>
      <trkpt lat="42.0422180" lon="-8.8781210">
        <ele>37.8</ele>
        <time>2021-05-19T09:18:54Z</time>
      </trkpt>
      <trkpt lat="42.0422170" lon="-8.8781210">
        <ele>37.8</ele>
        <time>2021-05-19T09:18:55Z</time>
      </trkpt>
      <trkpt lat="42.0422170" lon="-8.8781220">
        <ele>37.8</ele>
        <time>2021-05-19T09:18:56Z</time>
      </trkpt>
      <trkpt lat="42.0422170" lon="-8.8781220">
        <ele>37.8</ele>
        <time>2021-05-19T09:18:57Z</time>
      </trkpt>
      <trkpt lat="42.0422170" lon="-8.8781250">
        <ele>37.8</ele>
        <time>2021-05-19T09:18:58Z</time>
      </trkpt>
      <trkpt lat="42.0422170" lon="-8.8781250">
        <ele>37.8</ele>
        <time>2021-05-19T09:18:59Z</time>
      </trkpt>
      <trkpt lat="42.0422180" lon="-8.8781260">
        <ele>37.8</ele>
        <time>2021-05-19T09:19:00Z</time>
      </trkpt>
      <trkpt lat="42.0422180" lon="-8.8781280">
        <ele>37.8</ele>
        <time>2021-05-19T09:19:01Z</time>
      </trkpt>
      <trkpt lat="42.0422180" lon="-8.8781270">
        <ele>37.8</ele>
        <time>2021-05-19T09:19:02Z</time>
      </trkpt>
      <trkpt lat="42.0422170" lon="-8.8781280">
        <ele>37.8</ele>
        <time>2021-05-19T09:19:03Z</time>
      </trkpt>
      <trkpt lat="42.0422230" lon="-8.8781360">
        <ele>37.8</ele>
        <time>2021-05-19T09:19:04Z</time>
      </trkpt>
      <trkpt lat="42.0422360" lon="-8.8781360">
        <ele>37.8</ele>
        <time>2021-05-19T09:19:05Z</time>
      </trkpt>
      <trkpt lat="42.0422440" lon="-8.8781440">
        <ele>37.8</ele>
        <time>2021-05-19T09:19:06Z</time>
      </trkpt>
      <trkpt lat="42.0422500" lon="-8.8781630">
        <ele>37.8</ele>
        <time>2021-05-19T09:19:07Z</time>
      </trkpt>
      <trkpt lat="42.0422520" lon="-8.8781790">
        <ele>37.8</ele>
        <time>2021-05-19T09:19:08Z</time>
      </trkpt>
      <trkpt lat="42.0422550" lon="-8.8781860">
        <ele>37.8</ele>
        <time>2021-05-19T09:19:09Z</time>
      </trkpt>
      <trkpt lat="42.0422620" lon="-8.8781980">
        <ele>37.8</ele>
        <time>2021-05-19T09:19:10Z</time>
      </trkpt>
      <trkpt lat="42.0422680" lon="-8.8782040">
        <ele>37.8</ele>
        <time>2021-05-19T09:19:11Z</time>
      </trkpt>
      <trkpt lat="42.0422760" lon="-8.8782140">
        <ele>37.8</ele>
        <time>2021-05-19T09:19:12Z</time>
      </trkpt>
      <trkpt lat="42.0422900" lon="-8.8782290">
        <ele>37.8</ele>
        <time>2021-05-19T09:19:13Z</time>
      </trkpt>
      <trkpt lat="42.0423000" lon="-8.8782360">
        <ele>37.8</ele>
        <time>2021-05-19T09:19:14Z</time>
      </trkpt>
      <trkpt lat="42.0423110" lon="-8.8782450">
        <ele>37.8</ele>
        <time>2021-05-19T09:19:15Z</time>
      </trkpt>
      <trkpt lat="42.0423290" lon="-8.8782530">
        <ele>37.8</ele>
        <time>2021-05-19T09:19:16Z</time>
      </trkpt>
      <trkpt lat="42.0423400" lon="-8.8782640">
        <ele>37.8</ele>
        <time>2021-05-19T09:19:17Z</time>
      </trkpt>
      <trkpt lat="42.0423470" lon="-8.8782710">
        <ele>37.8</ele>
        <time>2021-05-19T09:19:18Z</time>
      </trkpt>
      <trkpt lat="42.0423560" lon="-8.8782800">
        <ele>37.8</ele>
        <time>2021-05-19T09:19:19Z</time>
      </trkpt>
      <trkpt lat="42.0423660" lon="-8.8782880">
        <ele>37.8</ele>
        <time>2021-05-19T09:19:20Z</time>
      </trkpt>
      <trkpt lat="42.0423720" lon="-8.8783000">
        <ele>37.8</ele>
        <time>2021-05-19T09:19:21Z</time>
      </trkpt>
      <trkpt lat="42.0423840" lon="-8.8783080">
        <ele>37.8</ele>
        <time>2021-05-19T09:19:22Z</time>
      </trkpt>
      <trkpt lat="42.0423990" lon="-8.8783270">
        <ele>37.8</ele>
        <time>2021-05-19T09:19:23Z</time>
      </trkpt>
      <trkpt lat="42.0424060" lon="-8.8783360">
        <ele>37.8</ele>
        <time>2021-05-19T09:19:24Z</time>
      </trkpt>
      <trkpt lat="42.0424120" lon="-8.8783440">
        <ele>37.8</ele>
        <time>2021-05-19T09:19:25Z</time>
      </trkpt>
      <trkpt lat="42.0424250" lon="-8.8783510">
        <ele>37.8</ele>
        <time>2021-05-19T09:19:26Z</time>
      </trkpt>
      <trkpt lat="42.0424320" lon="-8.8783600">
        <ele>37.8</ele>
        <time>2021-05-19T09:19:27Z</time>
      </trkpt>
      <trkpt lat="42.0424440" lon="-8.8783610">
        <ele>37.8</ele>
        <time>2021-05-19T09:19:28Z</time>
      </trkpt>
      <trkpt lat="42.0424600" lon="-8.8783800">
        <ele>37.8</ele>
        <time>2021-05-19T09:19:29Z</time>
      </trkpt>
      <trkpt lat="42.0424670" lon="-8.8783860">
        <ele>37.8</ele>
        <time>2021-05-19T09:19:30Z</time>
      </trkpt>
      <trkpt lat="42.0424730" lon="-8.8783910">
        <ele>37.8</ele>
        <time>2021-05-19T09:19:31Z</time>
      </trkpt>
      <trkpt lat="42.0424870" lon="-8.8783940">
        <ele>37.8</ele>
        <time>2021-05-19T09:19:32Z</time>
      </trkpt>
      <trkpt lat="42.0425020" lon="-8.8784020">
        <ele>37.8</ele>
        <time>2021-05-19T09:19:33Z</time>
      </trkpt>
      <trkpt lat="42.0425100" lon="-8.8784070">
        <ele>37.8</ele>
        <time>2021-05-19T09:19:34Z</time>
      </trkpt>
      <trkpt lat="42.0425220" lon="-8.8784180">
        <ele>37.8</ele>
        <time>2021-05-19T09:19:35Z</time>
      </trkpt>
      <trkpt lat="42.0425290" lon="-8.8784260">
        <ele>37.8</ele>
        <time>2021-05-19T09:19:36Z</time>
      </trkpt>
      <trkpt lat="42.0425500" lon="-8.8784360">
        <ele>37.8</ele>
        <time>2021-05-19T09:19:37Z</time>
      </trkpt>
      <trkpt lat="42.0425590" lon="-8.8784420">
        <ele>37.8</ele>
        <time>2021-05-19T09:19:38Z</time>
      </trkpt>
      <trkpt lat="42.0425680" lon="-8.8784470">
        <ele>37.9</ele>
        <time>2021-05-19T09:19:39Z</time>
      </trkpt>
      <trkpt lat="42.0425780" lon="-8.8784490">
        <ele>37.9</ele>
        <time>2021-05-19T09:19:40Z</time>
      </trkpt>
      <trkpt lat="42.0425940" lon="-8.8784560">
        <ele>37.9</ele>
        <time>2021-05-19T09:19:41Z</time>
      </trkpt>
      <trkpt lat="42.0426150" lon="-8.8784680">
        <ele>37.9</ele>
        <time>2021-05-19T09:19:42Z</time>
      </trkpt>
      <trkpt lat="42.0426240" lon="-8.8784710">
        <ele>37.9</ele>
        <time>2021-05-19T09:19:43Z</time>
      </trkpt>
      <trkpt lat="42.0426320" lon="-8.8784740">
        <ele>37.9</ele>
        <time>2021-05-19T09:19:44Z</time>
      </trkpt>
      <trkpt lat="42.0426450" lon="-8.8784750">
        <ele>37.9</ele>
        <time>2021-05-19T09:19:45Z</time>
      </trkpt>
      <trkpt lat="42.0426590" lon="-8.8784830">
        <ele>37.9</ele>
        <time>2021-05-19T09:19:46Z</time>
      </trkpt>
      <trkpt lat="42.0426650" lon="-8.8784850">
        <ele>37.9</ele>
        <time>2021-05-19T09:19:47Z</time>
      </trkpt>
      <trkpt lat="42.0426790" lon="-8.8784860">
        <ele>37.9</ele>
        <time>2021-05-19T09:19:48Z</time>
      </trkpt>
      <trkpt lat="42.0426930" lon="-8.8784930">
        <ele>37.9</ele>
        <time>2021-05-19T09:19:49Z</time>
      </trkpt>
      <trkpt lat="42.0427120" lon="-8.8784960">
        <ele>37.9</ele>
        <time>2021-05-19T09:19:50Z</time>
      </trkpt>
      <trkpt lat="42.0427230" lon="-8.8784960">
        <ele>37.9</ele>
        <time>2021-05-19T09:19:51Z</time>
      </trkpt>
      <trkpt lat="42.0427340" lon="-8.8784960">
        <ele>37.9</ele>
        <time>2021-05-19T09:19:52Z</time>
      </trkpt>
      <trkpt lat="42.0427510" lon="-8.8785030">
        <ele>37.9</ele>
        <time>2021-05-19T09:19:53Z</time>
      </trkpt>
      <trkpt lat="42.0427570" lon="-8.8785000">
        <ele>38.0</ele>
        <time>2021-05-19T09:19:54Z</time>
      </trkpt>
      <trkpt lat="42.0427700" lon="-8.8785020">
        <ele>38.0</ele>
        <time>2021-05-19T09:19:55Z</time>
      </trkpt>
      <trkpt lat="42.0427860" lon="-8.8785150">
        <ele>38.0</ele>
        <time>2021-05-19T09:19:56Z</time>
      </trkpt>
      <trkpt lat="42.0427960" lon="-8.8785220">
        <ele>38.0</ele>
        <time>2021-05-19T09:19:57Z</time>
      </trkpt>
      <trkpt lat="42.0428180" lon="-8.8785230">
        <ele>38.0</ele>
        <time>2021-05-19T09:19:58Z</time>
      </trkpt>
      <trkpt lat="42.0428260" lon="-8.8785250">
        <ele>38.0</ele>
        <time>2021-05-19T09:19:59Z</time>
      </trkpt>
      <trkpt lat="42.0428350" lon="-8.8785270">
        <ele>38.0</ele>
        <time>2021-05-19T09:20:00Z</time>
      </trkpt>
      <trkpt lat="42.0428440" lon="-8.8785280">
        <ele>38.1</ele>
        <time>2021-05-19T09:20:01Z</time>
      </trkpt>
      <trkpt lat="42.0428540" lon="-8.8785320">
        <ele>38.1</ele>
        <time>2021-05-19T09:20:02Z</time>
      </trkpt>
      <trkpt lat="42.0428700" lon="-8.8785350">
        <ele>38.1</ele>
        <time>2021-05-19T09:20:03Z</time>
      </trkpt>
      <trkpt lat="42.0428900" lon="-8.8785420">
        <ele>38.1</ele>
        <time>2021-05-19T09:20:04Z</time>
      </trkpt>
      <trkpt lat="42.0428990" lon="-8.8785440">
        <ele>38.1</ele>
        <time>2021-05-19T09:20:05Z</time>
      </trkpt>
      <trkpt lat="42.0429080" lon="-8.8785470">
        <ele>38.1</ele>
        <time>2021-05-19T09:20:06Z</time>
      </trkpt>
      <trkpt lat="42.0429220" lon="-8.8785530">
        <ele>38.1</ele>
        <time>2021-05-19T09:20:07Z</time>
      </trkpt>
      <trkpt lat="42.0429290" lon="-8.8785480">
        <ele>38.2</ele>
        <time>2021-05-19T09:20:08Z</time>
      </trkpt>
      <trkpt lat="42.0429430" lon="-8.8785550">
        <ele>38.2</ele>
        <time>2021-05-19T09:20:09Z</time>
      </trkpt>
      <trkpt lat="42.0429570" lon="-8.8785610">
        <ele>38.2</ele>
        <time>2021-05-19T09:20:10Z</time>
      </trkpt>
      <trkpt lat="42.0429650" lon="-8.8785640">
        <ele>38.2</ele>
        <time>2021-05-19T09:20:11Z</time>
      </trkpt>
      <trkpt lat="42.0429630" lon="-8.8785630">
        <ele>38.2</ele>
        <time>2021-05-19T09:20:12Z</time>
      </trkpt>
      <trkpt lat="42.0429590" lon="-8.8785560">
        <ele>38.2</ele>
        <time>2021-05-19T09:20:13Z</time>
      </trkpt>
      <trkpt lat="42.0429630" lon="-8.8785570">
        <ele>38.2</ele>
        <time>2021-05-19T09:20:14Z</time>
      </trkpt>
      <trkpt lat="42.0429780" lon="-8.8785580">
        <ele>38.2</ele>
        <time>2021-05-19T09:20:15Z</time>
      </trkpt>
      <trkpt lat="42.0429970" lon="-8.8785570">
        <ele>38.2</ele>
        <time>2021-05-19T09:20:16Z</time>
      </trkpt>
      <trkpt lat="42.0430070" lon="-8.8785630">
        <ele>38.2</ele>
        <time>2021-05-19T09:20:17Z</time>
      </trkpt>
      <trkpt lat="42.0430180" lon="-8.8785680">
        <ele>38.3</ele>
        <time>2021-05-19T09:20:18Z</time>
      </trkpt>
      <trkpt lat="42.0430280" lon="-8.8785710">
        <ele>38.3</ele>
        <time>2021-05-19T09:20:19Z</time>
      </trkpt>
      <trkpt lat="42.0430400" lon="-8.8785740">
        <ele>38.3</ele>
        <time>2021-05-19T09:20:20Z</time>
      </trkpt>
      <trkpt lat="42.0430520" lon="-8.8785710">
        <ele>38.3</ele>
        <time>2021-05-19T09:20:21Z</time>
      </trkpt>
      <trkpt lat="42.0430670" lon="-8.8785790">
        <ele>38.3</ele>
        <time>2021-05-19T09:20:22Z</time>
      </trkpt>
      <trkpt lat="42.0430780" lon="-8.8785820">
        <ele>38.3</ele>
        <time>2021-05-19T09:20:23Z</time>
      </trkpt>
      <trkpt lat="42.0430960" lon="-8.8785880">
        <ele>38.3</ele>
        <time>2021-05-19T09:20:24Z</time>
      </trkpt>
      <trkpt lat="42.0431110" lon="-8.8785920">
        <ele>38.3</ele>
        <time>2021-05-19T09:20:25Z</time>
      </trkpt>
      <trkpt lat="42.0431180" lon="-8.8786000">
        <ele>38.3</ele>
        <time>2021-05-19T09:20:26Z</time>
      </trkpt>
      <trkpt lat="42.0431290" lon="-8.8786010">
        <ele>38.3</ele>
        <time>2021-05-19T09:20:27Z</time>
      </trkpt>
      <trkpt lat="42.0431390" lon="-8.8786090">
        <ele>38.3</ele>
        <time>2021-05-19T09:20:28Z</time>
      </trkpt>
      <trkpt lat="42.0431540" lon="-8.8786140">
        <ele>38.3</ele>
        <time>2021-05-19T09:20:29Z</time>
      </trkpt>
      <trkpt lat="42.0431660" lon="-8.8786180">
        <ele>38.3</ele>
        <time>2021-05-19T09:20:30Z</time>
      </trkpt>
      <trkpt lat="42.0431820" lon="-8.8786250">
        <ele>38.3</ele>
        <time>2021-05-19T09:20:31Z</time>
      </trkpt>
      <trkpt lat="42.0431940" lon="-8.8786340">
        <ele>38.3</ele>
        <time>2021-05-19T09:20:32Z</time>
      </trkpt>
      <trkpt lat="42.0432050" lon="-8.8786410">
        <ele>38.3</ele>
        <time>2021-05-19T09:20:33Z</time>
      </trkpt>
      <trkpt lat="42.0432170" lon="-8.8786500">
        <ele>38.3</ele>
        <time>2021-05-19T09:20:34Z</time>
      </trkpt>
      <trkpt lat="42.0432240" lon="-8.8786590">
        <ele>38.3</ele>
        <time>2021-05-19T09:20:35Z</time>
      </trkpt>
      <trkpt lat="42.0432380" lon="-8.8786690">
        <ele>38.2</ele>
        <time>2021-05-19T09:20:36Z</time>
      </trkpt>
      <trkpt lat="42.0432480" lon="-8.8786770">
        <ele>38.2</ele>
        <time>2021-05-19T09:20:37Z</time>
      </trkpt>
      <trkpt lat="42.0432680" lon="-8.8786920">
        <ele>38.2</ele>
        <time>2021-05-19T09:20:38Z</time>
      </trkpt>
      <trkpt lat="42.0432760" lon="-8.8786990">
        <ele>38.2</ele>
        <time>2021-05-19T09:20:39Z</time>
      </trkpt>
      <trkpt lat="42.0432850" lon="-8.8787050">
        <ele>38.2</ele>
        <time>2021-05-19T09:20:40Z</time>
      </trkpt>
      <trkpt lat="42.0432990" lon="-8.8787070">
        <ele>38.2</ele>
        <time>2021-05-19T09:20:41Z</time>
      </trkpt>
      <trkpt lat="42.0433130" lon="-8.8787160">
        <ele>38.2</ele>
        <time>2021-05-19T09:20:42Z</time>
      </trkpt>
      <trkpt lat="42.0433290" lon="-8.8787210">
        <ele>38.2</ele>
        <time>2021-05-19T09:20:43Z</time>
      </trkpt>
      <trkpt lat="42.0433440" lon="-8.8787260">
        <ele>38.2</ele>
        <time>2021-05-19T09:20:44Z</time>
      </trkpt>
      <trkpt lat="42.0433580" lon="-8.8787330">
        <ele>38.2</ele>
        <time>2021-05-19T09:20:45Z</time>
      </trkpt>
      <trkpt lat="42.0433750" lon="-8.8787400">
        <ele>38.2</ele>
        <time>2021-05-19T09:20:46Z</time>
      </trkpt>
      <trkpt lat="42.0433880" lon="-8.8787440">
        <ele>38.2</ele>
        <time>2021-05-19T09:20:47Z</time>
      </trkpt>
      <trkpt lat="42.0434020" lon="-8.8787480">
        <ele>38.2</ele>
        <time>2021-05-19T09:20:48Z</time>
      </trkpt>
      <trkpt lat="42.0434180" lon="-8.8787530">
        <ele>38.1</ele>
        <time>2021-05-19T09:20:49Z</time>
      </trkpt>
      <trkpt lat="42.0434250" lon="-8.8787570">
        <ele>38.1</ele>
        <time>2021-05-19T09:20:50Z</time>
      </trkpt>
      <trkpt lat="42.0434330" lon="-8.8787620">
        <ele>38.1</ele>
        <time>2021-05-19T09:20:51Z</time>
      </trkpt>
      <trkpt lat="42.0434400" lon="-8.8787660">
        <ele>38.1</ele>
        <time>2021-05-19T09:20:52Z</time>
      </trkpt>
      <trkpt lat="42.0434500" lon="-8.8787700">
        <ele>38.1</ele>
        <time>2021-05-19T09:20:53Z</time>
      </trkpt>
      <trkpt lat="42.0434600" lon="-8.8787740">
        <ele>38.1</ele>
        <time>2021-05-19T09:20:54Z</time>
      </trkpt>
      <trkpt lat="42.0434690" lon="-8.8787770">
        <ele>38.1</ele>
        <time>2021-05-19T09:20:55Z</time>
      </trkpt>
      <trkpt lat="42.0434820" lon="-8.8787840">
        <ele>38.1</ele>
        <time>2021-05-19T09:20:56Z</time>
      </trkpt>
      <trkpt lat="42.0434980" lon="-8.8787900">
        <ele>38.0</ele>
        <time>2021-05-19T09:20:57Z</time>
      </trkpt>
      <trkpt lat="42.0435010" lon="-8.8787890">
        <ele>38.0</ele>
        <time>2021-05-19T09:20:58Z</time>
      </trkpt>
      <trkpt lat="42.0435150" lon="-8.8787940">
        <ele>38.0</ele>
        <time>2021-05-19T09:20:59Z</time>
      </trkpt>
      <trkpt lat="42.0435290" lon="-8.8788000">
        <ele>38.0</ele>
        <time>2021-05-19T09:21:00Z</time>
      </trkpt>
      <trkpt lat="42.0435430" lon="-8.8788040">
        <ele>38.0</ele>
        <time>2021-05-19T09:21:01Z</time>
      </trkpt>
      <trkpt lat="42.0435560" lon="-8.8788120">
        <ele>37.9</ele>
        <time>2021-05-19T09:21:02Z</time>
      </trkpt>
      <trkpt lat="42.0435630" lon="-8.8788200">
        <ele>37.9</ele>
        <time>2021-05-19T09:21:03Z</time>
      </trkpt>
      <trkpt lat="42.0435790" lon="-8.8788270">
        <ele>37.9</ele>
        <time>2021-05-19T09:21:04Z</time>
      </trkpt>
      <trkpt lat="42.0435850" lon="-8.8788260">
        <ele>37.9</ele>
        <time>2021-05-19T09:21:05Z</time>
      </trkpt>
      <trkpt lat="42.0435970" lon="-8.8788290">
        <ele>37.9</ele>
        <time>2021-05-19T09:21:06Z</time>
      </trkpt>
      <trkpt lat="42.0436050" lon="-8.8788340">
        <ele>37.9</ele>
        <time>2021-05-19T09:21:07Z</time>
      </trkpt>
      <trkpt lat="42.0436170" lon="-8.8788460">
        <ele>37.8</ele>
        <time>2021-05-19T09:21:08Z</time>
      </trkpt>
      <trkpt lat="42.0436360" lon="-8.8788520">
        <ele>37.8</ele>
        <time>2021-05-19T09:21:09Z</time>
      </trkpt>
      <trkpt lat="42.0436440" lon="-8.8788570">
        <ele>37.8</ele>
        <time>2021-05-19T09:21:10Z</time>
      </trkpt>
      <trkpt lat="42.0436530" lon="-8.8788610">
        <ele>37.8</ele>
        <time>2021-05-19T09:21:11Z</time>
      </trkpt>
      <trkpt lat="42.0436650" lon="-8.8788730">
        <ele>37.7</ele>
        <time>2021-05-19T09:21:12Z</time>
      </trkpt>
      <trkpt lat="42.0436750" lon="-8.8788780">
        <ele>37.7</ele>
        <time>2021-05-19T09:21:13Z</time>
      </trkpt>
      <trkpt lat="42.0436810" lon="-8.8788820">
        <ele>37.7</ele>
        <time>2021-05-19T09:21:14Z</time>
      </trkpt>
      <trkpt lat="42.0436920" lon="-8.8788890">
        <ele>37.7</ele>
        <time>2021-05-19T09:21:15Z</time>
      </trkpt>
      <trkpt lat="42.0437020" lon="-8.8788970">
        <ele>37.7</ele>
        <time>2021-05-19T09:21:16Z</time>
      </trkpt>
      <trkpt lat="42.0437070" lon="-8.8789020">
        <ele>37.7</ele>
        <time>2021-05-19T09:21:17Z</time>
      </trkpt>
      <trkpt lat="42.0437180" lon="-8.8789100">
        <ele>37.6</ele>
        <time>2021-05-19T09:21:18Z</time>
      </trkpt>
      <trkpt lat="42.0437290" lon="-8.8789240">
        <ele>37.6</ele>
        <time>2021-05-19T09:21:19Z</time>
      </trkpt>
      <trkpt lat="42.0437460" lon="-8.8789390">
        <ele>37.6</ele>
        <time>2021-05-19T09:21:20Z</time>
      </trkpt>
      <trkpt lat="42.0437540" lon="-8.8789450">
        <ele>37.5</ele>
        <time>2021-05-19T09:21:21Z</time>
      </trkpt>
      <trkpt lat="42.0437610" lon="-8.8789510">
        <ele>37.5</ele>
        <time>2021-05-19T09:21:22Z</time>
      </trkpt>
      <trkpt lat="42.0437730" lon="-8.8789570">
        <ele>37.5</ele>
        <time>2021-05-19T09:21:23Z</time>
      </trkpt>
      <trkpt lat="42.0437870" lon="-8.8789610">
        <ele>37.5</ele>
        <time>2021-05-19T09:21:24Z</time>
      </trkpt>
      <trkpt lat="42.0437970" lon="-8.8789710">
        <ele>37.4</ele>
        <time>2021-05-19T09:21:25Z</time>
      </trkpt>
      <trkpt lat="42.0438020" lon="-8.8789790">
        <ele>37.4</ele>
        <time>2021-05-19T09:21:26Z</time>
      </trkpt>
      <trkpt lat="42.0438130" lon="-8.8789840">
        <ele>37.4</ele>
        <time>2021-05-19T09:21:27Z</time>
      </trkpt>
      <trkpt lat="42.0438280" lon="-8.8789860">
        <ele>37.3</ele>
        <time>2021-05-19T09:21:28Z</time>
      </trkpt>
      <trkpt lat="42.0438400" lon="-8.8789980">
        <ele>37.3</ele>
        <time>2021-05-19T09:21:29Z</time>
      </trkpt>
      <trkpt lat="42.0438620" lon="-8.8790130">
        <ele>37.2</ele>
        <time>2021-05-19T09:21:30Z</time>
      </trkpt>
      <trkpt lat="42.0438690" lon="-8.8790210">
        <ele>37.2</ele>
        <time>2021-05-19T09:21:31Z</time>
      </trkpt>
      <trkpt lat="42.0438750" lon="-8.8790300">
        <ele>37.2</ele>
        <time>2021-05-19T09:21:32Z</time>
      </trkpt>
      <trkpt lat="42.0438780" lon="-8.8790400">
        <ele>37.2</ele>
        <time>2021-05-19T09:21:33Z</time>
      </trkpt>
      <trkpt lat="42.0438900" lon="-8.8790530">
        <ele>37.1</ele>
        <time>2021-05-19T09:21:34Z</time>
      </trkpt>
      <trkpt lat="42.0438990" lon="-8.8790620">
        <ele>37.1</ele>
        <time>2021-05-19T09:21:35Z</time>
      </trkpt>
      <trkpt lat="42.0439190" lon="-8.8790650">
        <ele>37.1</ele>
        <time>2021-05-19T09:21:36Z</time>
      </trkpt>
      <trkpt lat="42.0439280" lon="-8.8790680">
        <ele>37.0</ele>
        <time>2021-05-19T09:21:37Z</time>
      </trkpt>
      <trkpt lat="42.0439370" lon="-8.8790710">
        <ele>37.0</ele>
        <time>2021-05-19T09:21:38Z</time>
      </trkpt>
      <trkpt lat="42.0439470" lon="-8.8790770">
        <ele>37.0</ele>
        <time>2021-05-19T09:21:39Z</time>
      </trkpt>
      <trkpt lat="42.0439540" lon="-8.8790850">
        <ele>36.9</ele>
        <time>2021-05-19T09:21:40Z</time>
      </trkpt>
      <trkpt lat="42.0439660" lon="-8.8790970">
        <ele>36.9</ele>
        <time>2021-05-19T09:21:41Z</time>
      </trkpt>
      <trkpt lat="42.0439830" lon="-8.8791160">
        <ele>36.9</ele>
        <time>2021-05-19T09:21:42Z</time>
      </trkpt>
      <trkpt lat="42.0439900" lon="-8.8791220">
        <ele>36.8</ele>
        <time>2021-05-19T09:21:43Z</time>
      </trkpt>
      <trkpt lat="42.0439980" lon="-8.8791280">
        <ele>36.8</ele>
        <time>2021-05-19T09:21:44Z</time>
      </trkpt>
      <trkpt lat="42.0440060" lon="-8.8791380">
        <ele>36.8</ele>
        <time>2021-05-19T09:21:45Z</time>
      </trkpt>
      <trkpt lat="42.0440200" lon="-8.8791570">
        <ele>36.7</ele>
        <time>2021-05-19T09:21:46Z</time>
      </trkpt>
      <trkpt lat="42.0440290" lon="-8.8791710">
        <ele>36.7</ele>
        <time>2021-05-19T09:21:47Z</time>
      </trkpt>
      <trkpt lat="42.0440420" lon="-8.8791840">
        <ele>36.7</ele>
        <time>2021-05-19T09:21:48Z</time>
      </trkpt>
      <trkpt lat="42.0440590" lon="-8.8792030">
        <ele>36.6</ele>
        <time>2021-05-19T09:21:49Z</time>
      </trkpt>
      <trkpt lat="42.0440640" lon="-8.8792130">
        <ele>36.6</ele>
        <time>2021-05-19T09:21:50Z</time>
      </trkpt>
      <trkpt lat="42.0440700" lon="-8.8792240">
        <ele>36.6</ele>
        <time>2021-05-19T09:21:51Z</time>
      </trkpt>
      <trkpt lat="42.0440740" lon="-8.8792350">
        <ele>36.6</ele>
        <time>2021-05-19T09:21:52Z</time>
      </trkpt>
      <trkpt lat="42.0440790" lon="-8.8792440">
        <ele>36.6</ele>
        <time>2021-05-19T09:21:53Z</time>
      </trkpt>
      <trkpt lat="42.0440830" lon="-8.8792570">
        <ele>36.5</ele>
        <time>2021-05-19T09:21:54Z</time>
      </trkpt>
      <trkpt lat="42.0441040" lon="-8.8792740">
        <ele>36.5</ele>
        <time>2021-05-19T09:21:55Z</time>
      </trkpt>
      <trkpt lat="42.0441100" lon="-8.8792790">
        <ele>36.5</ele>
        <time>2021-05-19T09:21:56Z</time>
      </trkpt>
      <trkpt lat="42.0441160" lon="-8.8792850">
        <ele>36.5</ele>
        <time>2021-05-19T09:21:57Z</time>
      </trkpt>
      <trkpt lat="42.0441330" lon="-8.8793010">
        <ele>36.5</ele>
        <time>2021-05-19T09:21:58Z</time>
      </trkpt>
      <trkpt lat="42.0441420" lon="-8.8793080">
        <ele>36.5</ele>
        <time>2021-05-19T09:21:59Z</time>
      </trkpt>
      <trkpt lat="42.0441510" lon="-8.8793160">
        <ele>36.4</ele>
        <time>2021-05-19T09:22:00Z</time>
      </trkpt>
      <trkpt lat="42.0441630" lon="-8.8793300">
        <ele>36.4</ele>
        <time>2021-05-19T09:22:01Z</time>
      </trkpt>
      <trkpt lat="42.0441710" lon="-8.8793480">
        <ele>36.4</ele>
        <time>2021-05-19T09:22:02Z</time>
      </trkpt>
      <trkpt lat="42.0441810" lon="-8.8793590">
        <ele>36.4</ele>
        <time>2021-05-19T09:22:03Z</time>
      </trkpt>
      <trkpt lat="42.0441910" lon="-8.8793600">
        <ele>36.4</ele>
        <time>2021-05-19T09:22:04Z</time>
      </trkpt>
      <trkpt lat="42.0441970" lon="-8.8793690">
        <ele>36.4</ele>
        <time>2021-05-19T09:22:05Z</time>
      </trkpt>
      <trkpt lat="42.0442070" lon="-8.8793840">
        <ele>36.4</ele>
        <time>2021-05-19T09:22:06Z</time>
      </trkpt>
      <trkpt lat="42.0442110" lon="-8.8793960">
        <ele>36.4</ele>
        <time>2021-05-19T09:22:07Z</time>
      </trkpt>
      <trkpt lat="42.0442210" lon="-8.8794040">
        <ele>36.4</ele>
        <time>2021-05-19T09:22:08Z</time>
      </trkpt>
      <trkpt lat="42.0442280" lon="-8.8794110">
        <ele>36.4</ele>
        <time>2021-05-19T09:22:09Z</time>
      </trkpt>
      <trkpt lat="42.0442330" lon="-8.8794230">
        <ele>36.4</ele>
        <time>2021-05-19T09:22:10Z</time>
      </trkpt>
      <trkpt lat="42.0442470" lon="-8.8794370">
        <ele>36.4</ele>
        <time>2021-05-19T09:22:11Z</time>
      </trkpt>
      <trkpt lat="42.0442640" lon="-8.8794530">
        <ele>36.4</ele>
        <time>2021-05-19T09:22:12Z</time>
      </trkpt>
      <trkpt lat="42.0442700" lon="-8.8794620">
        <ele>36.4</ele>
        <time>2021-05-19T09:22:13Z</time>
      </trkpt>
      <trkpt lat="42.0442770" lon="-8.8794700">
        <ele>36.4</ele>
        <time>2021-05-19T09:22:14Z</time>
      </trkpt>
      <trkpt lat="42.0443000" lon="-8.8794870">
        <ele>36.4</ele>
        <time>2021-05-19T09:22:15Z</time>
      </trkpt>
      <trkpt lat="42.0443080" lon="-8.8794920">
        <ele>36.4</ele>
        <time>2021-05-19T09:22:16Z</time>
      </trkpt>
      <trkpt lat="42.0443170" lon="-8.8794980">
        <ele>36.4</ele>
        <time>2021-05-19T09:22:17Z</time>
      </trkpt>
      <trkpt lat="42.0443310" lon="-8.8795060">
        <ele>36.4</ele>
        <time>2021-05-19T09:22:18Z</time>
      </trkpt>
      <trkpt lat="42.0443360" lon="-8.8795090">
        <ele>36.4</ele>
        <time>2021-05-19T09:22:19Z</time>
      </trkpt>
      <trkpt lat="42.0443470" lon="-8.8795160">
        <ele>36.4</ele>
        <time>2021-05-19T09:22:20Z</time>
      </trkpt>
      <trkpt lat="42.0443540" lon="-8.8795230">
        <ele>36.4</ele>
        <time>2021-05-19T09:22:21Z</time>
      </trkpt>
      <trkpt lat="42.0443630" lon="-8.8795350">
        <ele>36.4</ele>
        <time>2021-05-19T09:22:22Z</time>
      </trkpt>
      <trkpt lat="42.0443740" lon="-8.8795330">
        <ele>36.4</ele>
        <time>2021-05-19T09:22:23Z</time>
      </trkpt>
      <trkpt lat="42.0443940" lon="-8.8795480">
        <ele>36.4</ele>
        <time>2021-05-19T09:22:24Z</time>
      </trkpt>
      <trkpt lat="42.0444020" lon="-8.8795550">
        <ele>36.4</ele>
        <time>2021-05-19T09:22:25Z</time>
      </trkpt>
      <trkpt lat="42.0444100" lon="-8.8795620">
        <ele>36.4</ele>
        <time>2021-05-19T09:22:26Z</time>
      </trkpt>
      <trkpt lat="42.0444300" lon="-8.8795760">
        <ele>36.4</ele>
        <time>2021-05-19T09:22:27Z</time>
      </trkpt>
      <trkpt lat="42.0444380" lon="-8.8795830">
        <ele>36.5</ele>
        <time>2021-05-19T09:22:28Z</time>
      </trkpt>
      <trkpt lat="42.0444450" lon="-8.8795900">
        <ele>36.5</ele>
        <time>2021-05-19T09:22:29Z</time>
      </trkpt>
      <trkpt lat="42.0444620" lon="-8.8796060">
        <ele>36.5</ele>
        <time>2021-05-19T09:22:30Z</time>
      </trkpt>
      <trkpt lat="42.0444690" lon="-8.8796130">
        <ele>36.5</ele>
        <time>2021-05-19T09:22:31Z</time>
      </trkpt>
      <trkpt lat="42.0444750" lon="-8.8796200">
        <ele>36.5</ele>
        <time>2021-05-19T09:22:32Z</time>
      </trkpt>
      <trkpt lat="42.0444790" lon="-8.8796380">
        <ele>36.5</ele>
        <time>2021-05-19T09:22:33Z</time>
      </trkpt>
      <trkpt lat="42.0444830" lon="-8.8796400">
        <ele>36.5</ele>
        <time>2021-05-19T09:22:34Z</time>
      </trkpt>
      <trkpt lat="42.0444980" lon="-8.8796530">
        <ele>36.5</ele>
        <time>2021-05-19T09:22:35Z</time>
      </trkpt>
      <trkpt lat="42.0445120" lon="-8.8796680">
        <ele>36.5</ele>
        <time>2021-05-19T09:22:36Z</time>
      </trkpt>
      <trkpt lat="42.0445240" lon="-8.8796790">
        <ele>36.5</ele>
        <time>2021-05-19T09:22:37Z</time>
      </trkpt>
      <trkpt lat="42.0445370" lon="-8.8796900">
        <ele>36.5</ele>
        <time>2021-05-19T09:22:38Z</time>
      </trkpt>
      <trkpt lat="42.0445500" lon="-8.8796980">
        <ele>36.5</ele>
        <time>2021-05-19T09:22:39Z</time>
      </trkpt>
      <trkpt lat="42.0445650" lon="-8.8797140">
        <ele>36.5</ele>
        <time>2021-05-19T09:22:40Z</time>
      </trkpt>
      <trkpt lat="42.0445730" lon="-8.8797220">
        <ele>36.5</ele>
        <time>2021-05-19T09:22:41Z</time>
      </trkpt>
      <trkpt lat="42.0445810" lon="-8.8797290">
        <ele>36.5</ele>
        <time>2021-05-19T09:22:42Z</time>
      </trkpt>
      <trkpt lat="42.0445920" lon="-8.8797360">
        <ele>36.5</ele>
        <time>2021-05-19T09:22:43Z</time>
      </trkpt>
      <trkpt lat="42.0446070" lon="-8.8797430">
        <ele>36.6</ele>
        <time>2021-05-19T09:22:44Z</time>
      </trkpt>
      <trkpt lat="42.0446060" lon="-8.8797480">
        <ele>36.6</ele>
        <time>2021-05-19T09:22:45Z</time>
      </trkpt>
      <trkpt lat="42.0446190" lon="-8.8797540">
        <ele>36.6</ele>
        <time>2021-05-19T09:22:46Z</time>
      </trkpt>
      <trkpt lat="42.0446320" lon="-8.8797690">
        <ele>36.6</ele>
        <time>2021-05-19T09:22:47Z</time>
      </trkpt>
      <trkpt lat="42.0446440" lon="-8.8797750">
        <ele>36.6</ele>
        <time>2021-05-19T09:22:48Z</time>
      </trkpt>
      <trkpt lat="42.0446590" lon="-8.8797790">
        <ele>36.6</ele>
        <time>2021-05-19T09:22:49Z</time>
      </trkpt>
      <trkpt lat="42.0446710" lon="-8.8797870">
        <ele>36.6</ele>
        <time>2021-05-19T09:22:50Z</time>
      </trkpt>
      <trkpt lat="42.0446840" lon="-8.8798000">
        <ele>36.6</ele>
        <time>2021-05-19T09:22:51Z</time>
      </trkpt>
      <trkpt lat="42.0446930" lon="-8.8798120">
        <ele>36.6</ele>
        <time>2021-05-19T09:22:52Z</time>
      </trkpt>
      <trkpt lat="42.0447020" lon="-8.8798160">
        <ele>36.6</ele>
        <time>2021-05-19T09:22:53Z</time>
      </trkpt>
      <trkpt lat="42.0447080" lon="-8.8798230">
        <ele>36.6</ele>
        <time>2021-05-19T09:22:54Z</time>
      </trkpt>
      <trkpt lat="42.0447010" lon="-8.8798210">
        <ele>36.6</ele>
        <time>2021-05-19T09:22:55Z</time>
      </trkpt>
      <trkpt lat="42.0447020" lon="-8.8798230">
        <ele>36.6</ele>
        <time>2021-05-19T09:22:56Z</time>
      </trkpt>
      <trkpt lat="42.0447020" lon="-8.8798240">
        <ele>36.6</ele>
        <time>2021-05-19T09:22:57Z</time>
      </trkpt>
      <trkpt lat="42.0447020" lon="-8.8798250">
        <ele>36.6</ele>
        <time>2021-05-19T09:22:58Z</time>
      </trkpt>
      <trkpt lat="42.0447030" lon="-8.8798290">
        <ele>36.7</ele>
        <time>2021-05-19T09:22:59Z</time>
      </trkpt>
      <trkpt lat="42.0447090" lon="-8.8798330">
        <ele>36.7</ele>
        <time>2021-05-19T09:23:00Z</time>
      </trkpt>
      <trkpt lat="42.0447120" lon="-8.8798340">
        <ele>36.7</ele>
        <time>2021-05-19T09:23:01Z</time>
      </trkpt>
      <trkpt lat="42.0447120" lon="-8.8798350">
        <ele>36.7</ele>
        <time>2021-05-19T09:23:02Z</time>
      </trkpt>
      <trkpt lat="42.0447120" lon="-8.8798360">
        <ele>36.7</ele>
        <time>2021-05-19T09:23:03Z</time>
      </trkpt>
      <trkpt lat="42.0447130" lon="-8.8798360">
        <ele>36.7</ele>
        <time>2021-05-19T09:23:04Z</time>
      </trkpt>
      <trkpt lat="42.0447130" lon="-8.8798360">
        <ele>36.7</ele>
        <time>2021-05-19T09:23:05Z</time>
      </trkpt>
      <trkpt lat="42.0447150" lon="-8.8798350">
        <ele>36.7</ele>
        <time>2021-05-19T09:23:06Z</time>
      </trkpt>
      <trkpt lat="42.0447150" lon="-8.8798340">
        <ele>36.7</ele>
        <time>2021-05-19T09:23:07Z</time>
      </trkpt>
      <trkpt lat="42.0447150" lon="-8.8798320">
        <ele>36.7</ele>
        <time>2021-05-19T09:23:08Z</time>
      </trkpt>
      <trkpt lat="42.0447150" lon="-8.8798320">
        <ele>36.7</ele>
        <time>2021-05-19T09:23:09Z</time>
      </trkpt>
      <trkpt lat="42.0447120" lon="-8.8798290">
        <ele>36.7</ele>
        <time>2021-05-19T09:23:10Z</time>
      </trkpt>
      <trkpt lat="42.0447150" lon="-8.8798300">
        <ele>36.7</ele>
        <time>2021-05-19T09:23:11Z</time>
      </trkpt>
      <trkpt lat="42.0447150" lon="-8.8798310">
        <ele>36.7</ele>
        <time>2021-05-19T09:23:12Z</time>
      </trkpt>
      <trkpt lat="42.0447130" lon="-8.8798300">
        <ele>36.7</ele>
        <time>2021-05-19T09:23:13Z</time>
      </trkpt>
      <trkpt lat="42.0447130" lon="-8.8798360">
        <ele>36.7</ele>
        <time>2021-05-19T09:23:14Z</time>
      </trkpt>
      <trkpt lat="42.0447150" lon="-8.8798360">
        <ele>36.7</ele>
        <time>2021-05-19T09:23:15Z</time>
      </trkpt>
      <trkpt lat="42.0447290" lon="-8.8798390">
        <ele>36.7</ele>
        <time>2021-05-19T09:23:16Z</time>
      </trkpt>
      <trkpt lat="42.0447340" lon="-8.8798410">
        <ele>36.7</ele>
        <time>2021-05-19T09:23:17Z</time>
      </trkpt>
      <trkpt lat="42.0447400" lon="-8.8798500">
        <ele>36.7</ele>
        <time>2021-05-19T09:23:18Z</time>
      </trkpt>
      <trkpt lat="42.0447470" lon="-8.8798570">
        <ele>36.7</ele>
        <time>2021-05-19T09:23:19Z</time>
      </trkpt>
      <trkpt lat="42.0447530" lon="-8.8798650">
        <ele>36.7</ele>
        <time>2021-05-19T09:23:20Z</time>
      </trkpt>
      <trkpt lat="42.0447610" lon="-8.8798710">
        <ele>36.7</ele>
        <time>2021-05-19T09:23:21Z</time>
      </trkpt>
      <trkpt lat="42.0447690" lon="-8.8798780">
        <ele>36.7</ele>
        <time>2021-05-19T09:23:22Z</time>
      </trkpt>
      <trkpt lat="42.0447760" lon="-8.8798850">
        <ele>36.7</ele>
        <time>2021-05-19T09:23:23Z</time>
      </trkpt>
      <trkpt lat="42.0447770" lon="-8.8798870">
        <ele>36.7</ele>
        <time>2021-05-19T09:23:24Z</time>
      </trkpt>
      <trkpt lat="42.0447730" lon="-8.8798870">
        <ele>36.7</ele>
        <time>2021-05-19T09:23:25Z</time>
      </trkpt>
      <trkpt lat="42.0447750" lon="-8.8798880">
        <ele>36.7</ele>
        <time>2021-05-19T09:23:26Z</time>
      </trkpt>
      <trkpt lat="42.0447740" lon="-8.8798890">
        <ele>36.7</ele>
        <time>2021-05-19T09:23:27Z</time>
      </trkpt>
      <trkpt lat="42.0447760" lon="-8.8798900">
        <ele>36.7</ele>
        <time>2021-05-19T09:23:28Z</time>
      </trkpt>
      <trkpt lat="42.0447760" lon="-8.8798870">
        <ele>36.7</ele>
        <time>2021-05-19T09:23:29Z</time>
      </trkpt>
      <trkpt lat="42.0447750" lon="-8.8798840">
        <ele>36.7</ele>
        <time>2021-05-19T09:23:30Z</time>
      </trkpt>
      <trkpt lat="42.0447770" lon="-8.8798820">
        <ele>36.7</ele>
        <time>2021-05-19T09:23:31Z</time>
      </trkpt>
      <trkpt lat="42.0447780" lon="-8.8798810">
        <ele>36.7</ele>
        <time>2021-05-19T09:23:32Z</time>
      </trkpt>
      <trkpt lat="42.0447800" lon="-8.8798770">
        <ele>36.7</ele>
        <time>2021-05-19T09:23:33Z</time>
      </trkpt>
      <trkpt lat="42.0447830" lon="-8.8798760">
        <ele>36.7</ele>
        <time>2021-05-19T09:23:34Z</time>
      </trkpt>
      <trkpt lat="42.0447840" lon="-8.8798730">
        <ele>36.7</ele>
        <time>2021-05-19T09:23:35Z</time>
      </trkpt>
      <trkpt lat="42.0447860" lon="-8.8798740">
        <ele>36.7</ele>
        <time>2021-05-19T09:23:36Z</time>
      </trkpt>
      <trkpt lat="42.0447850" lon="-8.8798730">
        <ele>36.7</ele>
        <time>2021-05-19T09:23:37Z</time>
      </trkpt>
      <trkpt lat="42.0447820" lon="-8.8798710">
        <ele>36.7</ele>
        <time>2021-05-19T09:23:38Z</time>
      </trkpt>
      <trkpt lat="42.0447850" lon="-8.8798700">
        <ele>36.7</ele>
        <time>2021-05-19T09:23:39Z</time>
      </trkpt>
      <trkpt lat="42.0447850" lon="-8.8798710">
        <ele>36.7</ele>
        <time>2021-05-19T09:23:40Z</time>
      </trkpt>
      <trkpt lat="42.0447830" lon="-8.8798700">
        <ele>36.7</ele>
        <time>2021-05-19T09:23:41Z</time>
      </trkpt>
      <trkpt lat="42.0447780" lon="-8.8798720">
        <ele>36.7</ele>
        <time>2021-05-19T09:23:42Z</time>
      </trkpt>
      <trkpt lat="42.0447810" lon="-8.8798730">
        <ele>36.7</ele>
        <time>2021-05-19T09:23:43Z</time>
      </trkpt>
      <trkpt lat="42.0447780" lon="-8.8798690">
        <ele>36.7</ele>
        <time>2021-05-19T09:23:44Z</time>
      </trkpt>
      <trkpt lat="42.0447750" lon="-8.8798750">
        <ele>36.7</ele>
        <time>2021-05-19T09:23:45Z</time>
      </trkpt>
      <trkpt lat="42.0447750" lon="-8.8798780">
        <ele>36.7</ele>
        <time>2021-05-19T09:23:46Z</time>
      </trkpt>
      <trkpt lat="42.0447810" lon="-8.8798880">
        <ele>36.7</ele>
        <time>2021-05-19T09:23:47Z</time>
      </trkpt>
      <trkpt lat="42.0447830" lon="-8.8798940">
        <ele>36.7</ele>
        <time>2021-05-19T09:23:48Z</time>
      </trkpt>
      <trkpt lat="42.0447860" lon="-8.8799050">
        <ele>36.7</ele>
        <time>2021-05-19T09:23:49Z</time>
      </trkpt>
      <trkpt lat="42.0447880" lon="-8.8799150">
        <ele>36.7</ele>
        <time>2021-05-19T09:23:50Z</time>
      </trkpt>
      <trkpt lat="42.0447900" lon="-8.8799260">
        <ele>36.7</ele>
        <time>2021-05-19T09:23:51Z</time>
      </trkpt>
      <trkpt lat="42.0447910" lon="-8.8799350">
        <ele>36.7</ele>
        <time>2021-05-19T09:23:52Z</time>
      </trkpt>
      <trkpt lat="42.0447910" lon="-8.8799460">
        <ele>36.7</ele>
        <time>2021-05-19T09:23:53Z</time>
      </trkpt>
      <trkpt lat="42.0447920" lon="-8.8799490">
        <ele>36.7</ele>
        <time>2021-05-19T09:23:54Z</time>
      </trkpt>
      <trkpt lat="42.0447920" lon="-8.8799490">
        <ele>36.7</ele>
        <time>2021-05-19T09:23:55Z</time>
      </trkpt>
      <trkpt lat="42.0447970" lon="-8.8799580">
        <ele>36.7</ele>
        <time>2021-05-19T09:23:56Z</time>
      </trkpt>
      <trkpt lat="42.0447950" lon="-8.8799560">
        <ele>36.7</ele>
        <time>2021-05-19T09:23:57Z</time>
      </trkpt>
      <trkpt lat="42.0447950" lon="-8.8799560">
        <ele>36.7</ele>
        <time>2021-05-19T09:23:58Z</time>
      </trkpt>
      <trkpt lat="42.0447950" lon="-8.8799560">
        <ele>36.7</ele>
        <time>2021-05-19T09:23:59Z</time>
      </trkpt>
      <trkpt lat="42.0447950" lon="-8.8799560">
        <ele>36.7</ele>
        <time>2021-05-19T09:24:00Z</time>
      </trkpt>
      <trkpt lat="42.0447950" lon="-8.8799560">
        <ele>36.7</ele>
        <time>2021-05-19T09:24:01Z</time>
      </trkpt>
      <trkpt lat="42.0447950" lon="-8.8799560">
        <ele>36.7</ele>
        <time>2021-05-19T09:24:02Z</time>
      </trkpt>
      <trkpt lat="42.0447950" lon="-8.8799560">
        <ele>36.7</ele>
        <time>2021-05-19T09:24:03Z</time>
      </trkpt>
      <trkpt lat="42.0447950" lon="-8.8799560">
        <ele>36.7</ele>
        <time>2021-05-19T09:24:04Z</time>
      </trkpt>
      <trkpt lat="42.0447950" lon="-8.8799560">
        <ele>36.7</ele>
        <time>2021-05-19T09:24:05Z</time>
      </trkpt>
      <trkpt lat="42.0447950" lon="-8.8799560">
        <ele>36.7</ele>
        <time>2021-05-19T09:24:06Z</time>
      </trkpt>
      <trkpt lat="42.0447950" lon="-8.8799560">
        <ele>36.7</ele>
        <time>2021-05-19T09:24:07Z</time>
      </trkpt>
      <trkpt lat="42.0447950" lon="-8.8799560">
        <ele>36.7</ele>
        <time>2021-05-19T09:24:08Z</time>
      </trkpt>
      <trkpt lat="42.0447950" lon="-8.8799560">
        <ele>36.7</ele>
        <time>2021-05-19T09:24:09Z</time>
      </trkpt>
      <trkpt lat="42.0447950" lon="-8.8799560">
        <ele>36.7</ele>
        <time>2021-05-19T09:24:10Z</time>
      </trkpt>
      <trkpt lat="42.0447950" lon="-8.8799560">
        <ele>36.7</ele>
        <time>2021-05-19T09:24:11Z</time>
      </trkpt>
      <trkpt lat="42.0447950" lon="-8.8799560">
        <ele>36.7</ele>
        <time>2021-05-19T09:24:12Z</time>
      </trkpt>
      <trkpt lat="42.0447950" lon="-8.8799560">
        <ele>36.7</ele>
        <time>2021-05-19T09:24:13Z</time>
      </trkpt>
      <trkpt lat="42.0447950" lon="-8.8799560">
        <ele>36.7</ele>
        <time>2021-05-19T09:24:14Z</time>
      </trkpt>
      <trkpt lat="42.0447950" lon="-8.8799560">
        <ele>36.7</ele>
        <time>2021-05-19T09:24:15Z</time>
      </trkpt>
      <trkpt lat="42.0447950" lon="-8.8799560">
        <ele>36.7</ele>
        <time>2021-05-19T09:24:16Z</time>
      </trkpt>
      <trkpt lat="42.0447950" lon="-8.8799560">
        <ele>36.7</ele>
        <time>2021-05-19T09:24:17Z</time>
      </trkpt>
      <trkpt lat="42.0447950" lon="-8.8799560">
        <ele>36.7</ele>
        <time>2021-05-19T09:24:18Z</time>
      </trkpt>
      <trkpt lat="42.0447950" lon="-8.8799560">
        <ele>36.7</ele>
        <time>2021-05-19T09:24:19Z</time>
      </trkpt>
      <trkpt lat="42.0447950" lon="-8.8799560">
        <ele>36.7</ele>
        <time>2021-05-19T09:24:20Z</time>
      </trkpt>
      <trkpt lat="42.0447950" lon="-8.8799560">
        <ele>36.7</ele>
        <time>2021-05-19T09:24:21Z</time>
      </trkpt>
      <trkpt lat="42.0447950" lon="-8.8799560">
        <ele>36.7</ele>
        <time>2021-05-19T09:24:22Z</time>
      </trkpt>
      <trkpt lat="42.0447950" lon="-8.8799560">
        <ele>36.7</ele>
        <time>2021-05-19T09:24:23Z</time>
      </trkpt>
      <trkpt lat="42.0447950" lon="-8.8799560">
        <ele>36.7</ele>
        <time>2021-05-19T09:24:24Z</time>
      </trkpt>
      <trkpt lat="42.0447950" lon="-8.8799560">
        <ele>36.7</ele>
        <time>2021-05-19T09:24:25Z</time>
      </trkpt>
      <trkpt lat="42.0447950" lon="-8.8799560">
        <ele>36.7</ele>
        <time>2021-05-19T09:24:26Z</time>
      </trkpt>
      <trkpt lat="42.0447950" lon="-8.8799560">
        <ele>36.7</ele>
        <time>2021-05-19T09:24:27Z</time>
      </trkpt>
      <trkpt lat="42.0447950" lon="-8.8799560">
        <ele>36.7</ele>
        <time>2021-05-19T09:24:28Z</time>
      </trkpt>
      <trkpt lat="42.0447950" lon="-8.8799560">
        <ele>36.7</ele>
        <time>2021-05-19T09:24:29Z</time>
      </trkpt>
      <trkpt lat="42.0447950" lon="-8.8799560">
        <ele>36.7</ele>
        <time>2021-05-19T09:24:31Z</time>
      </trkpt>
      <trkpt lat="42.0447950" lon="-8.8799560">
        <ele>36.7</ele>
        <time>2021-05-19T09:24:32Z</time>
      </trkpt>
      <trkpt lat="42.0447950" lon="-8.8799560">
        <ele>36.7</ele>
        <time>2021-05-19T09:24:33Z</time>
      </trkpt>
      <trkpt lat="42.0447950" lon="-8.8799560">
        <ele>36.7</ele>
        <time>2021-05-19T09:24:34Z</time>
      </trkpt>
      <trkpt lat="42.0447950" lon="-8.8799560">
        <ele>36.7</ele>
        <time>2021-05-19T09:24:35Z</time>
      </trkpt>
      <trkpt lat="42.0447950" lon="-8.8799560">
        <ele>36.7</ele>
        <time>2021-05-19T09:24:37Z</time>
      </trkpt>
      <trkpt lat="42.0447950" lon="-8.8799560">
        <ele>36.7</ele>
        <time>2021-05-19T09:24:38Z</time>
      </trkpt>
      <trkpt lat="42.0447950" lon="-8.8799560">
        <ele>36.7</ele>
        <time>2021-05-19T09:24:39Z</time>
      </trkpt>
      <trkpt lat="42.0447950" lon="-8.8799560">
        <ele>36.7</ele>
        <time>2021-05-19T09:24:41Z</time>
      </trkpt>
      <trkpt lat="42.0447950" lon="-8.8799560">
        <ele>36.7</ele>
        <time>2021-05-19T09:24:42Z</time>
      </trkpt>
      <trkpt lat="42.0447950" lon="-8.8799560">
        <ele>36.7</ele>
        <time>2021-05-19T09:24:43Z</time>
      </trkpt>
      <trkpt lat="42.0447950" lon="-8.8799560">
        <ele>36.7</ele>
        <time>2021-05-19T09:24:45Z</time>
      </trkpt>
      <trkpt lat="42.0447950" lon="-8.8799560">
        <ele>36.7</ele>
        <time>2021-05-19T09:24:46Z</time>
      </trkpt>
      <trkpt lat="42.0447950" lon="-8.8799560">
        <ele>36.7</ele>
        <time>2021-05-19T09:24:47Z</time>
      </trkpt>
      <trkpt lat="42.0447950" lon="-8.8799560">
        <ele>36.7</ele>
        <time>2021-05-19T09:24:48Z</time>
      </trkpt>
      <trkpt lat="42.0447950" lon="-8.8799560">
        <ele>36.7</ele>
        <time>2021-05-19T09:24:49Z</time>
      </trkpt>
      <trkpt lat="42.0447950" lon="-8.8799560">
        <ele>36.7</ele>
        <time>2021-05-19T09:24:50Z</time>
      </trkpt>
      <trkpt lat="42.0447950" lon="-8.8799560">
        <ele>36.7</ele>
        <time>2021-05-19T09:24:51Z</time>
      </trkpt>
      <trkpt lat="42.0447950" lon="-8.8799560">
        <ele>36.7</ele>
        <time>2021-05-19T09:24:52Z</time>
      </trkpt>
      <trkpt lat="42.0447950" lon="-8.8799560">
        <ele>36.7</ele>
        <time>2021-05-19T09:24:53Z</time>
      </trkpt>
      <trkpt lat="42.0447950" lon="-8.8799560">
        <ele>36.7</ele>
        <time>2021-05-19T09:24:54Z</time>
      </trkpt>
      <trkpt lat="42.0447950" lon="-8.8799560">
        <ele>36.7</ele>
        <time>2021-05-19T09:24:55Z</time>
      </trkpt>
      <trkpt lat="42.0447950" lon="-8.8799560">
        <ele>36.7</ele>
        <time>2021-05-19T09:24:56Z</time>
      </trkpt>
      <trkpt lat="42.0447950" lon="-8.8799560">
        <ele>36.7</ele>
        <time>2021-05-19T09:24:57Z</time>
      </trkpt>
      <trkpt lat="42.0447950" lon="-8.8799560">
        <ele>36.7</ele>
        <time>2021-05-19T09:24:58Z</time>
      </trkpt>
      <trkpt lat="42.0447950" lon="-8.8799560">
        <ele>36.7</ele>
        <time>2021-05-19T09:24:59Z</time>
      </trkpt>
      <trkpt lat="42.0447950" lon="-8.8799560">
        <ele>36.7</ele>
        <time>2021-05-19T09:25:00Z</time>
      </trkpt>
      <trkpt lat="42.0447950" lon="-8.8799560">
        <ele>36.7</ele>
        <time>2021-05-19T09:25:01Z</time>
      </trkpt>
      <trkpt lat="42.0447950" lon="-8.8799560">
        <ele>36.7</ele>
        <time>2021-05-19T09:25:02Z</time>
      </trkpt>
      <trkpt lat="42.0447950" lon="-8.8799560">
        <ele>36.7</ele>
        <time>2021-05-19T09:25:03Z</time>
      </trkpt>
      <trkpt lat="42.0447950" lon="-8.8799560">
        <ele>36.7</ele>
        <time>2021-05-19T09:25:04Z</time>
      </trkpt>
      <trkpt lat="42.0447950" lon="-8.8799560">
        <ele>36.7</ele>
        <time>2021-05-19T09:25:05Z</time>
      </trkpt>
      <trkpt lat="42.0447950" lon="-8.8799560">
        <ele>36.7</ele>
        <time>2021-05-19T09:25:06Z</time>
      </trkpt>
      <trkpt lat="42.0447950" lon="-8.8799560">
        <ele>36.7</ele>
        <time>2021-05-19T09:25:07Z</time>
      </trkpt>
      <trkpt lat="42.0447950" lon="-8.8799560">
        <ele>36.7</ele>
        <time>2021-05-19T09:25:08Z</time>
      </trkpt>
      <trkpt lat="42.0447950" lon="-8.8799560">
        <ele>36.7</ele>
        <time>2021-05-19T09:25:09Z</time>
      </trkpt>
      <trkpt lat="42.0447950" lon="-8.8799560">
        <ele>36.7</ele>
        <time>2021-05-19T09:25:10Z</time>
      </trkpt>
      <trkpt lat="42.0447950" lon="-8.8799560">
        <ele>36.7</ele>
        <time>2021-05-19T09:25:11Z</time>
      </trkpt>
      <trkpt lat="42.0447950" lon="-8.8799560">
        <ele>36.7</ele>
        <time>2021-05-19T09:25:12Z</time>
      </trkpt>
      <trkpt lat="42.0447950" lon="-8.8799560">
        <ele>36.7</ele>
        <time>2021-05-19T09:25:13Z</time>
      </trkpt>
      <trkpt lat="42.0447950" lon="-8.8799560">
        <ele>36.7</ele>
        <time>2021-05-19T09:25:14Z</time>
      </trkpt>
      <trkpt lat="42.0447950" lon="-8.8799560">
        <ele>36.7</ele>
        <time>2021-05-19T09:25:15Z</time>
      </trkpt>
      <trkpt lat="42.0447950" lon="-8.8799560">
        <ele>36.7</ele>
        <time>2021-05-19T09:25:16Z</time>
      </trkpt>
      <trkpt lat="42.0447950" lon="-8.8799560">
        <ele>36.7</ele>
        <time>2021-05-19T09:25:17Z</time>
      </trkpt>
      <trkpt lat="42.0447950" lon="-8.8799560">
        <ele>36.7</ele>
        <time>2021-05-19T09:25:18Z</time>
      </trkpt>
      <trkpt lat="42.0447950" lon="-8.8799560">
        <ele>36.7</ele>
        <time>2021-05-19T09:25:19Z</time>
      </trkpt>
      <trkpt lat="42.0447950" lon="-8.8799560">
        <ele>36.7</ele>
        <time>2021-05-19T09:25:20Z</time>
      </trkpt>
      <trkpt lat="42.0447950" lon="-8.8799560">
        <ele>36.7</ele>
        <time>2021-05-19T09:25:21Z</time>
      </trkpt>
      <trkpt lat="42.0447950" lon="-8.8799560">
        <ele>36.7</ele>
        <time>2021-05-19T09:25:22Z</time>
      </trkpt>
      <trkpt lat="42.0447950" lon="-8.8799560">
        <ele>36.7</ele>
        <time>2021-05-19T09:25:23Z</time>
      </trkpt>
      <trkpt lat="42.0447950" lon="-8.8799560">
        <ele>36.7</ele>
        <time>2021-05-19T09:25:24Z</time>
      </trkpt>
      <trkpt lat="42.0447950" lon="-8.8799560">
        <ele>36.7</ele>
        <time>2021-05-19T09:25:25Z</time>
      </trkpt>
      <trkpt lat="42.0447950" lon="-8.8799560">
        <ele>36.7</ele>
        <time>2021-05-19T09:25:26Z</time>
      </trkpt>
      <trkpt lat="42.0447950" lon="-8.8799560">
        <ele>36.7</ele>
        <time>2021-05-19T09:25:27Z</time>
      </trkpt>
      <trkpt lat="42.0447950" lon="-8.8799560">
        <ele>36.7</ele>
        <time>2021-05-19T09:25:28Z</time>
      </trkpt>
      <trkpt lat="42.0447950" lon="-8.8799560">
        <ele>36.7</ele>
        <time>2021-05-19T09:25:29Z</time>
      </trkpt>
      <trkpt lat="42.0447950" lon="-8.8799560">
        <ele>36.7</ele>
        <time>2021-05-19T09:25:30Z</time>
      </trkpt>
      <trkpt lat="42.0447950" lon="-8.8799560">
        <ele>36.7</ele>
        <time>2021-05-19T09:25:31Z</time>
      </trkpt>
      <trkpt lat="42.0447950" lon="-8.8799560">
        <ele>36.7</ele>
        <time>2021-05-19T09:25:32Z</time>
      </trkpt>
      <trkpt lat="42.0447950" lon="-8.8799560">
        <ele>36.7</ele>
        <time>2021-05-19T09:25:33Z</time>
      </trkpt>
      <trkpt lat="42.0447950" lon="-8.8799560">
        <ele>36.7</ele>
        <time>2021-05-19T09:25:34Z</time>
      </trkpt>
      <trkpt lat="42.0447950" lon="-8.8799560">
        <ele>36.7</ele>
        <time>2021-05-19T09:25:35Z</time>
      </trkpt>
      <trkpt lat="42.0447950" lon="-8.8799560">
        <ele>36.7</ele>
        <time>2021-05-19T09:25:36Z</time>
      </trkpt>
      <trkpt lat="42.0447950" lon="-8.8799560">
        <ele>36.7</ele>
        <time>2021-05-19T09:25:37Z</time>
      </trkpt>
      <trkpt lat="42.0447950" lon="-8.8799560">
        <ele>36.7</ele>
        <time>2021-05-19T09:25:38Z</time>
      </trkpt>
      <trkpt lat="42.0447950" lon="-8.8799560">
        <ele>36.7</ele>
        <time>2021-05-19T09:25:39Z</time>
      </trkpt>
      <trkpt lat="42.0447950" lon="-8.8799560">
        <ele>36.7</ele>
        <time>2021-05-19T09:25:40Z</time>
      </trkpt>
      <trkpt lat="42.0447950" lon="-8.8799560">
        <ele>36.7</ele>
        <time>2021-05-19T09:25:41Z</time>
      </trkpt>
      <trkpt lat="42.0447950" lon="-8.8799560">
        <ele>36.7</ele>
        <time>2021-05-19T09:25:42Z</time>
      </trkpt>
      <trkpt lat="42.0447950" lon="-8.8799560">
        <ele>36.7</ele>
        <time>2021-05-19T09:25:43Z</time>
      </trkpt>
      <trkpt lat="42.0447950" lon="-8.8799560">
        <ele>36.7</ele>
        <time>2021-05-19T09:25:44Z</time>
      </trkpt>
      <trkpt lat="42.0447950" lon="-8.8799560">
        <ele>36.7</ele>
        <time>2021-05-19T09:25:45Z</time>
      </trkpt>
      <trkpt lat="42.0447950" lon="-8.8799560">
        <ele>36.7</ele>
        <time>2021-05-19T09:25:46Z</time>
      </trkpt>
      <trkpt lat="42.0447950" lon="-8.8799560">
        <ele>36.7</ele>
        <time>2021-05-19T09:25:47Z</time>
      </trkpt>
      <trkpt lat="42.0447950" lon="-8.8799560">
        <ele>36.7</ele>
        <time>2021-05-19T09:25:48Z</time>
      </trkpt>
      <trkpt lat="42.0447950" lon="-8.8799560">
        <ele>36.7</ele>
        <time>2021-05-19T09:25:49Z</time>
      </trkpt>
      <trkpt lat="42.0447950" lon="-8.8799560">
        <ele>36.7</ele>
        <time>2021-05-19T09:25:50Z</time>
      </trkpt>
      <trkpt lat="42.0447950" lon="-8.8799560">
        <ele>36.7</ele>
        <time>2021-05-19T09:25:51Z</time>
      </trkpt>
      <trkpt lat="42.0447950" lon="-8.8799560">
        <ele>36.7</ele>
        <time>2021-05-19T09:25:52Z</time>
      </trkpt>
      <trkpt lat="42.0447950" lon="-8.8799560">
        <ele>36.7</ele>
        <time>2021-05-19T09:25:53Z</time>
      </trkpt>
      <trkpt lat="42.0447950" lon="-8.8799560">
        <ele>36.7</ele>
        <time>2021-05-19T09:25:54Z</time>
      </trkpt>
      <trkpt lat="42.0447950" lon="-8.8799560">
        <ele>36.7</ele>
        <time>2021-05-19T09:25:55Z</time>
      </trkpt>
      <trkpt lat="42.0447950" lon="-8.8799560">
        <ele>36.7</ele>
        <time>2021-05-19T09:25:56Z</time>
      </trkpt>
      <trkpt lat="42.0447950" lon="-8.8799560">
        <ele>36.7</ele>
        <time>2021-05-19T09:25:57Z</time>
      </trkpt>
      <trkpt lat="42.0447950" lon="-8.8799560">
        <ele>36.7</ele>
        <time>2021-05-19T09:25:58Z</time>
      </trkpt>
      <trkpt lat="42.0447950" lon="-8.8799560">
        <ele>36.7</ele>
        <time>2021-05-19T09:25:59Z</time>
      </trkpt>
      <trkpt lat="42.0447950" lon="-8.8799560">
        <ele>36.7</ele>
        <time>2021-05-19T09:26:00Z</time>
      </trkpt>
      <trkpt lat="42.0447950" lon="-8.8799560">
        <ele>36.7</ele>
        <time>2021-05-19T09:26:01Z</time>
      </trkpt>
      <trkpt lat="42.0447950" lon="-8.8799560">
        <ele>36.7</ele>
        <time>2021-05-19T09:26:02Z</time>
      </trkpt>
      <trkpt lat="42.0447950" lon="-8.8799560">
        <ele>36.7</ele>
        <time>2021-05-19T09:26:03Z</time>
      </trkpt>
      <trkpt lat="42.0447950" lon="-8.8799560">
        <ele>36.7</ele>
        <time>2021-05-19T09:26:04Z</time>
      </trkpt>
      <trkpt lat="42.0447950" lon="-8.8799560">
        <ele>36.7</ele>
        <time>2021-05-19T09:26:05Z</time>
      </trkpt>
      <trkpt lat="42.0447950" lon="-8.8799560">
        <ele>36.7</ele>
        <time>2021-05-19T09:26:06Z</time>
      </trkpt>
      <trkpt lat="42.0447950" lon="-8.8799560">
        <ele>36.7</ele>
        <time>2021-05-19T09:26:07Z</time>
      </trkpt>
      <trkpt lat="42.0447950" lon="-8.8799560">
        <ele>36.7</ele>
        <time>2021-05-19T09:26:08Z</time>
      </trkpt>
      <trkpt lat="42.0447950" lon="-8.8799560">
        <ele>36.7</ele>
        <time>2021-05-19T09:26:09Z</time>
      </trkpt>
      <trkpt lat="42.0447950" lon="-8.8799560">
        <ele>36.7</ele>
        <time>2021-05-19T09:26:10Z</time>
      </trkpt>
      <trkpt lat="42.0447950" lon="-8.8799560">
        <ele>36.7</ele>
        <time>2021-05-19T09:26:11Z</time>
      </trkpt>
      <trkpt lat="42.0447950" lon="-8.8799560">
        <ele>36.7</ele>
        <time>2021-05-19T09:26:12Z</time>
      </trkpt>
      <trkpt lat="42.0447950" lon="-8.8799560">
        <ele>36.7</ele>
        <time>2021-05-19T09:26:13Z</time>
      </trkpt>
      <trkpt lat="42.0447950" lon="-8.8799560">
        <ele>36.7</ele>
        <time>2021-05-19T09:26:14Z</time>
      </trkpt>
      <trkpt lat="42.0447950" lon="-8.8799560">
        <ele>36.7</ele>
        <time>2021-05-19T09:26:15Z</time>
      </trkpt>
      <trkpt lat="42.0447950" lon="-8.8799560">
        <ele>36.7</ele>
        <time>2021-05-19T09:26:16Z</time>
      </trkpt>
      <trkpt lat="42.0447950" lon="-8.8799560">
        <ele>36.7</ele>
        <time>2021-05-19T09:26:17Z</time>
      </trkpt>
      <trkpt lat="42.0447950" lon="-8.8799560">
        <ele>36.7</ele>
        <time>2021-05-19T09:26:18Z</time>
      </trkpt>
      <trkpt lat="42.0447950" lon="-8.8799560">
        <ele>36.7</ele>
        <time>2021-05-19T09:26:19Z</time>
      </trkpt>
      <trkpt lat="42.0447950" lon="-8.8799560">
        <ele>36.7</ele>
        <time>2021-05-19T09:26:20Z</time>
      </trkpt>
      <trkpt lat="42.0447950" lon="-8.8799560">
        <ele>36.7</ele>
        <time>2021-05-19T09:26:21Z</time>
      </trkpt>
      <trkpt lat="42.0447950" lon="-8.8799560">
        <ele>36.7</ele>
        <time>2021-05-19T09:26:22Z</time>
      </trkpt>
      <trkpt lat="42.0447950" lon="-8.8799560">
        <ele>36.7</ele>
        <time>2021-05-19T09:26:23Z</time>
      </trkpt>
      <trkpt lat="42.0447950" lon="-8.8799560">
        <ele>36.7</ele>
        <time>2021-05-19T09:26:24Z</time>
      </trkpt>
      <trkpt lat="42.0447950" lon="-8.8799560">
        <ele>36.7</ele>
        <time>2021-05-19T09:26:25Z</time>
      </trkpt>
      <trkpt lat="42.0447950" lon="-8.8799560">
        <ele>36.7</ele>
        <time>2021-05-19T09:26:26Z</time>
      </trkpt>
      <trkpt lat="42.0447950" lon="-8.8799560">
        <ele>36.7</ele>
        <time>2021-05-19T09:26:27Z</time>
      </trkpt>
      <trkpt lat="42.0447950" lon="-8.8799560">
        <ele>36.7</ele>
        <time>2021-05-19T09:26:28Z</time>
      </trkpt>
      <trkpt lat="42.0447950" lon="-8.8799560">
        <ele>36.7</ele>
        <time>2021-05-19T09:26:29Z</time>
      </trkpt>
      <trkpt lat="42.0447950" lon="-8.8799560">
        <ele>36.7</ele>
        <time>2021-05-19T09:26:30Z</time>
      </trkpt>
      <trkpt lat="42.0447950" lon="-8.8799560">
        <ele>36.7</ele>
        <time>2021-05-19T09:26:31Z</time>
      </trkpt>
      <trkpt lat="42.0447950" lon="-8.8799560">
        <ele>36.7</ele>
        <time>2021-05-19T09:26:32Z</time>
      </trkpt>
      <trkpt lat="42.0447950" lon="-8.8799560">
        <ele>36.7</ele>
        <time>2021-05-19T09:26:33Z</time>
      </trkpt>
      <trkpt lat="42.0447950" lon="-8.8799560">
        <ele>36.7</ele>
        <time>2021-05-19T09:26:34Z</time>
      </trkpt>
      <trkpt lat="42.0447950" lon="-8.8799560">
        <ele>36.7</ele>
        <time>2021-05-19T09:26:35Z</time>
      </trkpt>
      <trkpt lat="42.0447950" lon="-8.8799560">
        <ele>36.7</ele>
        <time>2021-05-19T09:26:36Z</time>
      </trkpt>
      <trkpt lat="42.0447950" lon="-8.8799560">
        <ele>36.7</ele>
        <time>2021-05-19T09:26:37Z</time>
      </trkpt>
      <trkpt lat="42.0447950" lon="-8.8799560">
        <ele>36.7</ele>
        <time>2021-05-19T09:26:38Z</time>
      </trkpt>
      <trkpt lat="42.0447950" lon="-8.8799560">
        <ele>36.7</ele>
        <time>2021-05-19T09:26:39Z</time>
      </trkpt>
      <trkpt lat="42.0447950" lon="-8.8799560">
        <ele>36.7</ele>
        <time>2021-05-19T09:26:40Z</time>
      </trkpt>
      <trkpt lat="42.0447950" lon="-8.8799560">
        <ele>36.7</ele>
        <time>2021-05-19T09:26:41Z</time>
      </trkpt>
      <trkpt lat="42.0447950" lon="-8.8799560">
        <ele>36.7</ele>
        <time>2021-05-19T09:26:42Z</time>
      </trkpt>
      <trkpt lat="42.0447950" lon="-8.8799560">
        <ele>36.7</ele>
        <time>2021-05-19T09:26:43Z</time>
      </trkpt>
      <trkpt lat="42.0447950" lon="-8.8799560">
        <ele>36.7</ele>
        <time>2021-05-19T09:26:44Z</time>
      </trkpt>
      <trkpt lat="42.0447950" lon="-8.8799560">
        <ele>36.7</ele>
        <time>2021-05-19T09:26:45Z</time>
      </trkpt>
      <trkpt lat="42.0447950" lon="-8.8799560">
        <ele>36.7</ele>
        <time>2021-05-19T09:26:46Z</time>
      </trkpt>
      <trkpt lat="42.0447950" lon="-8.8799560">
        <ele>36.7</ele>
        <time>2021-05-19T09:26:47Z</time>
      </trkpt>
      <trkpt lat="42.0447950" lon="-8.8799560">
        <ele>36.7</ele>
        <time>2021-05-19T09:26:48Z</time>
      </trkpt>
      <trkpt lat="42.0447950" lon="-8.8799560">
        <ele>36.7</ele>
        <time>2021-05-19T09:26:49Z</time>
      </trkpt>
      <trkpt lat="42.0447950" lon="-8.8799560">
        <ele>36.7</ele>
        <time>2021-05-19T09:26:50Z</time>
      </trkpt>
      <trkpt lat="42.0447950" lon="-8.8799560">
        <ele>36.7</ele>
        <time>2021-05-19T09:26:51Z</time>
      </trkpt>
      <trkpt lat="42.0447950" lon="-8.8799560">
        <ele>36.7</ele>
        <time>2021-05-19T09:26:52Z</time>
      </trkpt>
      <trkpt lat="42.0447950" lon="-8.8799560">
        <ele>36.7</ele>
        <time>2021-05-19T09:26:53Z</time>
      </trkpt>
      <trkpt lat="42.0447950" lon="-8.8799560">
        <ele>36.7</ele>
        <time>2021-05-19T09:26:54Z</time>
      </trkpt>
      <trkpt lat="42.0447950" lon="-8.8799560">
        <ele>36.7</ele>
        <time>2021-05-19T09:26:55Z</time>
      </trkpt>
      <trkpt lat="42.0447950" lon="-8.8799560">
        <ele>36.7</ele>
        <time>2021-05-19T09:26:56Z</time>
      </trkpt>
      <trkpt lat="42.0447950" lon="-8.8799560">
        <ele>36.7</ele>
        <time>2021-05-19T09:26:57Z</time>
      </trkpt>
      <trkpt lat="42.0447950" lon="-8.8799560">
        <ele>36.7</ele>
        <time>2021-05-19T09:26:58Z</time>
      </trkpt>
      <trkpt lat="42.0447950" lon="-8.8799560">
        <ele>36.7</ele>
        <time>2021-05-19T09:26:59Z</time>
      </trkpt>
      <trkpt lat="42.0447950" lon="-8.8799560">
        <ele>36.7</ele>
        <time>2021-05-19T09:27:00Z</time>
      </trkpt>
      <trkpt lat="42.0447950" lon="-8.8799560">
        <ele>36.7</ele>
        <time>2021-05-19T09:27:01Z</time>
      </trkpt>
      <trkpt lat="42.0447950" lon="-8.8799560">
        <ele>36.7</ele>
        <time>2021-05-19T09:27:02Z</time>
      </trkpt>
      <trkpt lat="42.0447950" lon="-8.8799560">
        <ele>36.7</ele>
        <time>2021-05-19T09:27:03Z</time>
      </trkpt>
      <trkpt lat="42.0447950" lon="-8.8799560">
        <ele>36.7</ele>
        <time>2021-05-19T09:27:04Z</time>
      </trkpt>
      <trkpt lat="42.0447950" lon="-8.8799560">
        <ele>36.7</ele>
        <time>2021-05-19T09:27:05Z</time>
      </trkpt>
      <trkpt lat="42.0447950" lon="-8.8799560">
        <ele>36.7</ele>
        <time>2021-05-19T09:27:06Z</time>
      </trkpt>
      <trkpt lat="42.0447950" lon="-8.8799560">
        <ele>36.7</ele>
        <time>2021-05-19T09:27:07Z</time>
      </trkpt>
      <trkpt lat="42.0447950" lon="-8.8799560">
        <ele>36.7</ele>
        <time>2021-05-19T09:27:08Z</time>
      </trkpt>
      <trkpt lat="42.0447950" lon="-8.8799560">
        <ele>36.7</ele>
        <time>2021-05-19T09:27:09Z</time>
      </trkpt>
      <trkpt lat="42.0447950" lon="-8.8799560">
        <ele>36.7</ele>
        <time>2021-05-19T09:27:10Z</time>
      </trkpt>
      <trkpt lat="42.0447950" lon="-8.8799560">
        <ele>36.7</ele>
        <time>2021-05-19T09:27:11Z</time>
      </trkpt>
      <trkpt lat="42.0447950" lon="-8.8799560">
        <ele>36.7</ele>
        <time>2021-05-19T09:27:12Z</time>
      </trkpt>
      <trkpt lat="42.0447950" lon="-8.8799560">
        <ele>36.7</ele>
        <time>2021-05-19T09:27:13Z</time>
      </trkpt>
      <trkpt lat="42.0447950" lon="-8.8799560">
        <ele>36.7</ele>
        <time>2021-05-19T09:27:14Z</time>
      </trkpt>
      <trkpt lat="42.0447950" lon="-8.8799560">
        <ele>36.7</ele>
        <time>2021-05-19T09:27:15Z</time>
      </trkpt>
      <trkpt lat="42.0447950" lon="-8.8799560">
        <ele>36.7</ele>
        <time>2021-05-19T09:27:16Z</time>
      </trkpt>
      <trkpt lat="42.0447950" lon="-8.8799560">
        <ele>36.7</ele>
        <time>2021-05-19T09:27:17Z</time>
      </trkpt>
      <trkpt lat="42.0447950" lon="-8.8799560">
        <ele>36.7</ele>
        <time>2021-05-19T09:27:18Z</time>
      </trkpt>
      <trkpt lat="42.0447950" lon="-8.8799560">
        <ele>36.7</ele>
        <time>2021-05-19T09:27:19Z</time>
      </trkpt>
      <trkpt lat="42.0447950" lon="-8.8799560">
        <ele>36.7</ele>
        <time>2021-05-19T09:27:20Z</time>
      </trkpt>
      <trkpt lat="42.0447950" lon="-8.8799560">
        <ele>36.7</ele>
        <time>2021-05-19T09:27:21Z</time>
      </trkpt>
      <trkpt lat="42.0447950" lon="-8.8799560">
        <ele>36.7</ele>
        <time>2021-05-19T09:27:22Z</time>
      </trkpt>
      <trkpt lat="42.0447950" lon="-8.8799560">
        <ele>36.7</ele>
        <time>2021-05-19T09:27:23Z</time>
      </trkpt>
      <trkpt lat="42.0447950" lon="-8.8799560">
        <ele>36.7</ele>
        <time>2021-05-19T09:27:24Z</time>
      </trkpt>
      <trkpt lat="42.0447950" lon="-8.8799560">
        <ele>36.7</ele>
        <time>2021-05-19T09:27:25Z</time>
      </trkpt>
      <trkpt lat="42.0447950" lon="-8.8799560">
        <ele>36.7</ele>
        <time>2021-05-19T09:27:26Z</time>
      </trkpt>
      <trkpt lat="42.0447950" lon="-8.8799560">
        <ele>36.7</ele>
        <time>2021-05-19T09:27:27Z</time>
      </trkpt>
      <trkpt lat="42.0447950" lon="-8.8799560">
        <ele>36.7</ele>
        <time>2021-05-19T09:27:28Z</time>
      </trkpt>
      <trkpt lat="42.0447950" lon="-8.8799560">
        <ele>36.7</ele>
        <time>2021-05-19T09:27:29Z</time>
      </trkpt>
      <trkpt lat="42.0447950" lon="-8.8799560">
        <ele>36.7</ele>
        <time>2021-05-19T09:27:30Z</time>
      </trkpt>
      <trkpt lat="42.0447950" lon="-8.8799560">
        <ele>36.7</ele>
        <time>2021-05-19T09:27:31Z</time>
      </trkpt>
      <trkpt lat="42.0447950" lon="-8.8799560">
        <ele>36.7</ele>
        <time>2021-05-19T09:27:32Z</time>
      </trkpt>
      <trkpt lat="42.0447950" lon="-8.8799560">
        <ele>36.7</ele>
        <time>2021-05-19T09:27:33Z</time>
      </trkpt>
      <trkpt lat="42.0447950" lon="-8.8799560">
        <ele>36.7</ele>
        <time>2021-05-19T09:27:34Z</time>
      </trkpt>
      <trkpt lat="42.0447950" lon="-8.8799560">
        <ele>36.7</ele>
        <time>2021-05-19T09:27:35Z</time>
      </trkpt>
      <trkpt lat="42.0447950" lon="-8.8799560">
        <ele>36.7</ele>
        <time>2021-05-19T09:27:36Z</time>
      </trkpt>
      <trkpt lat="42.0447950" lon="-8.8799560">
        <ele>36.7</ele>
        <time>2021-05-19T09:27:37Z</time>
      </trkpt>
      <trkpt lat="42.0447950" lon="-8.8799560">
        <ele>36.7</ele>
        <time>2021-05-19T09:27:38Z</time>
      </trkpt>
      <trkpt lat="42.0447950" lon="-8.8799560">
        <ele>36.7</ele>
        <time>2021-05-19T09:27:39Z</time>
      </trkpt>
      <trkpt lat="42.0447950" lon="-8.8799560">
        <ele>36.7</ele>
        <time>2021-05-19T09:27:40Z</time>
      </trkpt>
      <trkpt lat="42.0447950" lon="-8.8799560">
        <ele>36.7</ele>
        <time>2021-05-19T09:27:41Z</time>
      </trkpt>
      <trkpt lat="42.0447950" lon="-8.8799560">
        <ele>36.7</ele>
        <time>2021-05-19T09:27:42Z</time>
      </trkpt>
      <trkpt lat="42.0447950" lon="-8.8799560">
        <ele>36.7</ele>
        <time>2021-05-19T09:27:43Z</time>
      </trkpt>
      <trkpt lat="42.0447950" lon="-8.8799560">
        <ele>36.7</ele>
        <time>2021-05-19T09:27:44Z</time>
      </trkpt>
      <trkpt lat="42.0447950" lon="-8.8799560">
        <ele>36.7</ele>
        <time>2021-05-19T09:27:45Z</time>
      </trkpt>
      <trkpt lat="42.0447950" lon="-8.8799560">
        <ele>36.7</ele>
        <time>2021-05-19T09:27:46Z</time>
      </trkpt>
      <trkpt lat="42.0447950" lon="-8.8799560">
        <ele>36.7</ele>
        <time>2021-05-19T09:27:47Z</time>
      </trkpt>
      <trkpt lat="42.0447950" lon="-8.8799560">
        <ele>36.7</ele>
        <time>2021-05-19T09:27:48Z</time>
      </trkpt>
      <trkpt lat="42.0447950" lon="-8.8799560">
        <ele>36.7</ele>
        <time>2021-05-19T09:27:49Z</time>
      </trkpt>
      <trkpt lat="42.0447950" lon="-8.8799560">
        <ele>36.7</ele>
        <time>2021-05-19T09:27:50Z</time>
      </trkpt>
      <trkpt lat="42.0447950" lon="-8.8799560">
        <ele>36.7</ele>
        <time>2021-05-19T09:27:51Z</time>
      </trkpt>
      <trkpt lat="42.0447950" lon="-8.8799560">
        <ele>36.7</ele>
        <time>2021-05-19T09:27:52Z</time>
      </trkpt>
      <trkpt lat="42.0447950" lon="-8.8799560">
        <ele>36.7</ele>
        <time>2021-05-19T09:27:53Z</time>
      </trkpt>
      <trkpt lat="42.0447950" lon="-8.8799560">
        <ele>36.7</ele>
        <time>2021-05-19T09:27:54Z</time>
      </trkpt>
      <trkpt lat="42.0447950" lon="-8.8799560">
        <ele>36.7</ele>
        <time>2021-05-19T09:27:55Z</time>
      </trkpt>
      <trkpt lat="42.0447950" lon="-8.8799560">
        <ele>36.7</ele>
        <time>2021-05-19T09:27:56Z</time>
      </trkpt>
      <trkpt lat="42.0448090" lon="-8.8799590">
        <ele>36.7</ele>
        <time>2021-05-19T09:27:57Z</time>
      </trkpt>
      <trkpt lat="42.0448200" lon="-8.8799540">
        <ele>36.7</ele>
        <time>2021-05-19T09:27:58Z</time>
      </trkpt>
      <trkpt lat="42.0448210" lon="-8.8799570">
        <ele>36.7</ele>
        <time>2021-05-19T09:27:59Z</time>
      </trkpt>
      <trkpt lat="42.0448270" lon="-8.8799500">
        <ele>36.7</ele>
        <time>2021-05-19T09:28:00Z</time>
      </trkpt>
      <trkpt lat="42.0448370" lon="-8.8799500">
        <ele>36.7</ele>
        <time>2021-05-19T09:28:01Z</time>
      </trkpt>
      <trkpt lat="42.0448420" lon="-8.8799480">
        <ele>36.7</ele>
        <time>2021-05-19T09:28:02Z</time>
      </trkpt>
      <trkpt lat="42.0448490" lon="-8.8799460">
        <ele>36.7</ele>
        <time>2021-05-19T09:28:03Z</time>
      </trkpt>
      <trkpt lat="42.0448520" lon="-8.8799450">
        <ele>36.7</ele>
        <time>2021-05-19T09:28:04Z</time>
      </trkpt>
      <trkpt lat="42.0448490" lon="-8.8799450">
        <ele>36.7</ele>
        <time>2021-05-19T09:28:05Z</time>
      </trkpt>
      <trkpt lat="42.0448450" lon="-8.8799450">
        <ele>36.7</ele>
        <time>2021-05-19T09:28:06Z</time>
      </trkpt>
      <trkpt lat="42.0448430" lon="-8.8799460">
        <ele>36.7</ele>
        <time>2021-05-19T09:28:07Z</time>
      </trkpt>
      <trkpt lat="42.0448420" lon="-8.8799450">
        <ele>36.7</ele>
        <time>2021-05-19T09:28:08Z</time>
      </trkpt>
      <trkpt lat="42.0448410" lon="-8.8799450">
        <ele>36.7</ele>
        <time>2021-05-19T09:28:09Z</time>
      </trkpt>
      <trkpt lat="42.0448420" lon="-8.8799460">
        <ele>36.7</ele>
        <time>2021-05-19T09:28:10Z</time>
      </trkpt>
      <trkpt lat="42.0448400" lon="-8.8799480">
        <ele>36.7</ele>
        <time>2021-05-19T09:28:11Z</time>
      </trkpt>
      <trkpt lat="42.0448390" lon="-8.8799470">
        <ele>36.7</ele>
        <time>2021-05-19T09:28:12Z</time>
      </trkpt>
      <trkpt lat="42.0448370" lon="-8.8799460">
        <ele>36.7</ele>
        <time>2021-05-19T09:28:13Z</time>
      </trkpt>
      <trkpt lat="42.0448350" lon="-8.8799470">
        <ele>36.7</ele>
        <time>2021-05-19T09:28:14Z</time>
      </trkpt>
      <trkpt lat="42.0448360" lon="-8.8799450">
        <ele>36.7</ele>
        <time>2021-05-19T09:28:15Z</time>
      </trkpt>
      <trkpt lat="42.0448370" lon="-8.8799460">
        <ele>36.7</ele>
        <time>2021-05-19T09:28:16Z</time>
      </trkpt>
      <trkpt lat="42.0448370" lon="-8.8799450">
        <ele>36.7</ele>
        <time>2021-05-19T09:28:17Z</time>
      </trkpt>
      <trkpt lat="42.0448350" lon="-8.8799430">
        <ele>36.7</ele>
        <time>2021-05-19T09:28:18Z</time>
      </trkpt>
      <trkpt lat="42.0448340" lon="-8.8799450">
        <ele>36.7</ele>
        <time>2021-05-19T09:28:19Z</time>
      </trkpt>
      <trkpt lat="42.0448350" lon="-8.8799440">
        <ele>36.7</ele>
        <time>2021-05-19T09:28:20Z</time>
      </trkpt>
      <trkpt lat="42.0448320" lon="-8.8799430">
        <ele>36.7</ele>
        <time>2021-05-19T09:28:21Z</time>
      </trkpt>
      <trkpt lat="42.0448330" lon="-8.8799390">
        <ele>36.7</ele>
        <time>2021-05-19T09:28:22Z</time>
      </trkpt>
      <trkpt lat="42.0448320" lon="-8.8799360">
        <ele>36.7</ele>
        <time>2021-05-19T09:28:23Z</time>
      </trkpt>
      <trkpt lat="42.0448310" lon="-8.8799310">
        <ele>36.7</ele>
        <time>2021-05-19T09:28:24Z</time>
      </trkpt>
      <trkpt lat="42.0448320" lon="-8.8799290">
        <ele>36.7</ele>
        <time>2021-05-19T09:28:25Z</time>
      </trkpt>
      <trkpt lat="42.0448330" lon="-8.8799280">
        <ele>36.7</ele>
        <time>2021-05-19T09:28:26Z</time>
      </trkpt>
      <trkpt lat="42.0448440" lon="-8.8799250">
        <ele>36.7</ele>
        <time>2021-05-19T09:28:27Z</time>
      </trkpt>
      <trkpt lat="42.0448450" lon="-8.8799200">
        <ele>36.7</ele>
        <time>2021-05-19T09:28:28Z</time>
      </trkpt>
      <trkpt lat="42.0448460" lon="-8.8799210">
        <ele>36.6</ele>
        <time>2021-05-19T09:28:29Z</time>
      </trkpt>
      <trkpt lat="42.0448440" lon="-8.8799250">
        <ele>36.6</ele>
        <time>2021-05-19T09:28:30Z</time>
      </trkpt>
      <trkpt lat="42.0448460" lon="-8.8799250">
        <ele>36.6</ele>
        <time>2021-05-19T09:28:31Z</time>
      </trkpt>
      <trkpt lat="42.0448450" lon="-8.8799270">
        <ele>36.6</ele>
        <time>2021-05-19T09:28:32Z</time>
      </trkpt>
      <trkpt lat="42.0448450" lon="-8.8799280">
        <ele>36.6</ele>
        <time>2021-05-19T09:28:33Z</time>
      </trkpt>
      <trkpt lat="42.0448450" lon="-8.8799270">
        <ele>36.6</ele>
        <time>2021-05-19T09:28:34Z</time>
      </trkpt>
      <trkpt lat="42.0448440" lon="-8.8799250">
        <ele>36.6</ele>
        <time>2021-05-19T09:28:35Z</time>
      </trkpt>
      <trkpt lat="42.0448440" lon="-8.8799250">
        <ele>36.6</ele>
        <time>2021-05-19T09:28:36Z</time>
      </trkpt>
      <trkpt lat="42.0448400" lon="-8.8799250">
        <ele>36.6</ele>
        <time>2021-05-19T09:28:37Z</time>
      </trkpt>
      <trkpt lat="42.0448410" lon="-8.8799250">
        <ele>36.6</ele>
        <time>2021-05-19T09:28:38Z</time>
      </trkpt>
      <trkpt lat="42.0448390" lon="-8.8799260">
        <ele>36.6</ele>
        <time>2021-05-19T09:28:39Z</time>
      </trkpt>
      <trkpt lat="42.0448390" lon="-8.8799250">
        <ele>36.6</ele>
        <time>2021-05-19T09:28:40Z</time>
      </trkpt>
      <trkpt lat="42.0448410" lon="-8.8799220">
        <ele>36.6</ele>
        <time>2021-05-19T09:28:41Z</time>
      </trkpt>
      <trkpt lat="42.0448430" lon="-8.8799170">
        <ele>36.6</ele>
        <time>2021-05-19T09:28:42Z</time>
      </trkpt>
      <trkpt lat="42.0448460" lon="-8.8799150">
        <ele>36.6</ele>
        <time>2021-05-19T09:28:43Z</time>
      </trkpt>
      <trkpt lat="42.0448490" lon="-8.8799210">
        <ele>36.6</ele>
        <time>2021-05-19T09:28:44Z</time>
      </trkpt>
      <trkpt lat="42.0448500" lon="-8.8799230">
        <ele>36.6</ele>
        <time>2021-05-19T09:28:45Z</time>
      </trkpt>
      <trkpt lat="42.0448520" lon="-8.8799230">
        <ele>36.6</ele>
        <time>2021-05-19T09:28:46Z</time>
      </trkpt>
      <trkpt lat="42.0448560" lon="-8.8799220">
        <ele>36.6</ele>
        <time>2021-05-19T09:28:47Z</time>
      </trkpt>
      <trkpt lat="42.0448590" lon="-8.8799200">
        <ele>36.6</ele>
        <time>2021-05-19T09:28:48Z</time>
      </trkpt>
      <trkpt lat="42.0448590" lon="-8.8799200">
        <ele>36.6</ele>
        <time>2021-05-19T09:28:49Z</time>
      </trkpt>
      <trkpt lat="42.0448580" lon="-8.8799190">
        <ele>36.6</ele>
        <time>2021-05-19T09:28:50Z</time>
      </trkpt>
      <trkpt lat="42.0448640" lon="-8.8799160">
        <ele>36.6</ele>
        <time>2021-05-19T09:28:51Z</time>
      </trkpt>
      <trkpt lat="42.0448650" lon="-8.8799150">
        <ele>36.6</ele>
        <time>2021-05-19T09:28:52Z</time>
      </trkpt>
      <trkpt lat="42.0448640" lon="-8.8799190">
        <ele>36.6</ele>
        <time>2021-05-19T09:28:53Z</time>
      </trkpt>
      <trkpt lat="42.0448690" lon="-8.8799300">
        <ele>36.6</ele>
        <time>2021-05-19T09:28:54Z</time>
      </trkpt>
      <trkpt lat="42.0448610" lon="-8.8799320">
        <ele>36.6</ele>
        <time>2021-05-19T09:28:55Z</time>
      </trkpt>
      <trkpt lat="42.0448610" lon="-8.8799350">
        <ele>36.6</ele>
        <time>2021-05-19T09:28:56Z</time>
      </trkpt>
      <trkpt lat="42.0448600" lon="-8.8799360">
        <ele>36.6</ele>
        <time>2021-05-19T09:28:57Z</time>
      </trkpt>
      <trkpt lat="42.0448550" lon="-8.8799370">
        <ele>36.6</ele>
        <time>2021-05-19T09:28:58Z</time>
      </trkpt>
      <trkpt lat="42.0448550" lon="-8.8799370">
        <ele>36.6</ele>
        <time>2021-05-19T09:28:59Z</time>
      </trkpt>
      <trkpt lat="42.0448530" lon="-8.8799380">
        <ele>36.6</ele>
        <time>2021-05-19T09:29:00Z</time>
      </trkpt>
      <trkpt lat="42.0448530" lon="-8.8799390">
        <ele>36.6</ele>
        <time>2021-05-19T09:29:01Z</time>
      </trkpt>
      <trkpt lat="42.0448520" lon="-8.8799370">
        <ele>36.6</ele>
        <time>2021-05-19T09:29:02Z</time>
      </trkpt>
      <trkpt lat="42.0448450" lon="-8.8799330">
        <ele>36.6</ele>
        <time>2021-05-19T09:29:03Z</time>
      </trkpt>
      <trkpt lat="42.0448400" lon="-8.8799170">
        <ele>36.6</ele>
        <time>2021-05-19T09:29:04Z</time>
      </trkpt>
      <trkpt lat="42.0448430" lon="-8.8799150">
        <ele>36.6</ele>
        <time>2021-05-19T09:29:05Z</time>
      </trkpt>
      <trkpt lat="42.0448420" lon="-8.8799270">
        <ele>36.6</ele>
        <time>2021-05-19T09:29:06Z</time>
      </trkpt>
      <trkpt lat="42.0448470" lon="-8.8799240">
        <ele>36.6</ele>
        <time>2021-05-19T09:29:07Z</time>
      </trkpt>
      <trkpt lat="42.0448450" lon="-8.8799280">
        <ele>36.6</ele>
        <time>2021-05-19T09:29:08Z</time>
      </trkpt>
      <trkpt lat="42.0448460" lon="-8.8799250">
        <ele>36.6</ele>
        <time>2021-05-19T09:29:09Z</time>
      </trkpt>
      <trkpt lat="42.0448460" lon="-8.8799270">
        <ele>36.6</ele>
        <time>2021-05-19T09:29:10Z</time>
      </trkpt>
      <trkpt lat="42.0448460" lon="-8.8799300">
        <ele>36.6</ele>
        <time>2021-05-19T09:29:11Z</time>
      </trkpt>
      <trkpt lat="42.0448470" lon="-8.8799270">
        <ele>36.6</ele>
        <time>2021-05-19T09:29:12Z</time>
      </trkpt>
      <trkpt lat="42.0448480" lon="-8.8799270">
        <ele>36.6</ele>
        <time>2021-05-19T09:29:13Z</time>
      </trkpt>
      <trkpt lat="42.0448490" lon="-8.8799260">
        <ele>36.6</ele>
        <time>2021-05-19T09:29:14Z</time>
      </trkpt>
      <trkpt lat="42.0448500" lon="-8.8799260">
        <ele>36.6</ele>
        <time>2021-05-19T09:29:15Z</time>
      </trkpt>
      <trkpt lat="42.0448500" lon="-8.8799250">
        <ele>36.6</ele>
        <time>2021-05-19T09:29:16Z</time>
      </trkpt>
      <trkpt lat="42.0448500" lon="-8.8799240">
        <ele>36.6</ele>
        <time>2021-05-19T09:29:17Z</time>
      </trkpt>
      <trkpt lat="42.0448500" lon="-8.8799240">
        <ele>36.6</ele>
        <time>2021-05-19T09:29:18Z</time>
      </trkpt>
      <trkpt lat="42.0448480" lon="-8.8799210">
        <ele>36.6</ele>
        <time>2021-05-19T09:29:19Z</time>
      </trkpt>
      <trkpt lat="42.0448400" lon="-8.8799210">
        <ele>36.6</ele>
        <time>2021-05-19T09:29:20Z</time>
      </trkpt>
      <trkpt lat="42.0448340" lon="-8.8799160">
        <ele>36.6</ele>
        <time>2021-05-19T09:29:21Z</time>
      </trkpt>
      <trkpt lat="42.0448220" lon="-8.8799140">
        <ele>36.6</ele>
        <time>2021-05-19T09:29:22Z</time>
      </trkpt>
      <trkpt lat="42.0448180" lon="-8.8799220">
        <ele>36.6</ele>
        <time>2021-05-19T09:29:23Z</time>
      </trkpt>
      <trkpt lat="42.0448130" lon="-8.8799310">
        <ele>36.6</ele>
        <time>2021-05-19T09:29:24Z</time>
      </trkpt>
      <trkpt lat="42.0448060" lon="-8.8799310">
        <ele>36.6</ele>
        <time>2021-05-19T09:29:25Z</time>
      </trkpt>
      <trkpt lat="42.0447950" lon="-8.8799410">
        <ele>36.6</ele>
        <time>2021-05-19T09:29:26Z</time>
      </trkpt>
      <trkpt lat="42.0447920" lon="-8.8799460">
        <ele>36.6</ele>
        <time>2021-05-19T09:29:27Z</time>
      </trkpt>
      <trkpt lat="42.0447890" lon="-8.8799460">
        <ele>36.6</ele>
        <time>2021-05-19T09:29:28Z</time>
      </trkpt>
      <trkpt lat="42.0447820" lon="-8.8799470">
        <ele>36.6</ele>
        <time>2021-05-19T09:29:29Z</time>
      </trkpt>
      <trkpt lat="42.0447830" lon="-8.8799440">
        <ele>36.6</ele>
        <time>2021-05-19T09:29:30Z</time>
      </trkpt>
      <trkpt lat="42.0447830" lon="-8.8799450">
        <ele>36.6</ele>
        <time>2021-05-19T09:29:31Z</time>
      </trkpt>
      <trkpt lat="42.0447840" lon="-8.8799450">
        <ele>36.6</ele>
        <time>2021-05-19T09:29:32Z</time>
      </trkpt>
      <trkpt lat="42.0447840" lon="-8.8799460">
        <ele>36.6</ele>
        <time>2021-05-19T09:29:33Z</time>
      </trkpt>
      <trkpt lat="42.0447840" lon="-8.8799460">
        <ele>36.6</ele>
        <time>2021-05-19T09:29:34Z</time>
      </trkpt>
      <trkpt lat="42.0447840" lon="-8.8799460">
        <ele>36.6</ele>
        <time>2021-05-19T09:29:35Z</time>
      </trkpt>
      <trkpt lat="42.0447850" lon="-8.8799470">
        <ele>36.6</ele>
        <time>2021-05-19T09:29:36Z</time>
      </trkpt>
      <trkpt lat="42.0447850" lon="-8.8799470">
        <ele>36.6</ele>
        <time>2021-05-19T09:29:37Z</time>
      </trkpt>
      <trkpt lat="42.0447850" lon="-8.8799480">
        <ele>36.6</ele>
        <time>2021-05-19T09:29:38Z</time>
      </trkpt>
      <trkpt lat="42.0447850" lon="-8.8799480">
        <ele>36.6</ele>
        <time>2021-05-19T09:29:39Z</time>
      </trkpt>
      <trkpt lat="42.0447850" lon="-8.8799490">
        <ele>36.6</ele>
        <time>2021-05-19T09:29:40Z</time>
      </trkpt>
      <trkpt lat="42.0447860" lon="-8.8799490">
        <ele>36.6</ele>
        <time>2021-05-19T09:29:41Z</time>
      </trkpt>
      <trkpt lat="42.0447860" lon="-8.8799490">
        <ele>36.6</ele>
        <time>2021-05-19T09:29:42Z</time>
      </trkpt>
      <trkpt lat="42.0447860" lon="-8.8799500">
        <ele>36.6</ele>
        <time>2021-05-19T09:29:43Z</time>
      </trkpt>
      <trkpt lat="42.0447860" lon="-8.8799500">
        <ele>36.6</ele>
        <time>2021-05-19T09:29:44Z</time>
      </trkpt>
      <trkpt lat="42.0447870" lon="-8.8799510">
        <ele>36.6</ele>
        <time>2021-05-19T09:29:45Z</time>
      </trkpt>
      <trkpt lat="42.0447870" lon="-8.8799510">
        <ele>36.6</ele>
        <time>2021-05-19T09:29:46Z</time>
      </trkpt>
      <trkpt lat="42.0447870" lon="-8.8799510">
        <ele>36.6</ele>
        <time>2021-05-19T09:29:47Z</time>
      </trkpt>
      <trkpt lat="42.0447870" lon="-8.8799520">
        <ele>36.6</ele>
        <time>2021-05-19T09:29:48Z</time>
      </trkpt>
      <trkpt lat="42.0447870" lon="-8.8799520">
        <ele>36.6</ele>
        <time>2021-05-19T09:29:49Z</time>
      </trkpt>
      <trkpt lat="42.0447880" lon="-8.8799530">
        <ele>36.6</ele>
        <time>2021-05-19T09:29:50Z</time>
      </trkpt>
      <trkpt lat="42.0447880" lon="-8.8799530">
        <ele>36.6</ele>
        <time>2021-05-19T09:29:51Z</time>
      </trkpt>
      <trkpt lat="42.0447880" lon="-8.8799540">
        <ele>36.6</ele>
        <time>2021-05-19T09:29:52Z</time>
      </trkpt>
      <trkpt lat="42.0447880" lon="-8.8799540">
        <ele>36.6</ele>
        <time>2021-05-19T09:29:53Z</time>
      </trkpt>
      <trkpt lat="42.0447880" lon="-8.8799540">
        <ele>36.6</ele>
        <time>2021-05-19T09:29:54Z</time>
      </trkpt>
      <trkpt lat="42.0447890" lon="-8.8799550">
        <ele>36.6</ele>
        <time>2021-05-19T09:29:55Z</time>
      </trkpt>
      <trkpt lat="42.0447890" lon="-8.8799550">
        <ele>36.6</ele>
        <time>2021-05-19T09:29:56Z</time>
      </trkpt>
      <trkpt lat="42.0447890" lon="-8.8799560">
        <ele>36.6</ele>
        <time>2021-05-19T09:29:57Z</time>
      </trkpt>
      <trkpt lat="42.0447890" lon="-8.8799560">
        <ele>36.6</ele>
        <time>2021-05-19T09:29:58Z</time>
      </trkpt>
      <trkpt lat="42.0447900" lon="-8.8799560">
        <ele>36.6</ele>
        <time>2021-05-19T09:29:59Z</time>
      </trkpt>
      <trkpt lat="42.0447900" lon="-8.8799570">
        <ele>36.6</ele>
        <time>2021-05-19T09:30:00Z</time>
      </trkpt>
      <trkpt lat="42.0447900" lon="-8.8799570">
        <ele>36.6</ele>
        <time>2021-05-19T09:30:01Z</time>
      </trkpt>
      <trkpt lat="42.0447900" lon="-8.8799580">
        <ele>36.6</ele>
        <time>2021-05-19T09:30:02Z</time>
      </trkpt>
      <trkpt lat="42.0447900" lon="-8.8799580">
        <ele>36.6</ele>
        <time>2021-05-19T09:30:03Z</time>
      </trkpt>
      <trkpt lat="42.0447910" lon="-8.8799590">
        <ele>36.6</ele>
        <time>2021-05-19T09:30:04Z</time>
      </trkpt>
      <trkpt lat="42.0447910" lon="-8.8799590">
        <ele>36.6</ele>
        <time>2021-05-19T09:30:05Z</time>
      </trkpt>
      <trkpt lat="42.0447910" lon="-8.8799590">
        <ele>36.6</ele>
        <time>2021-05-19T09:30:06Z</time>
      </trkpt>
      <trkpt lat="42.0447910" lon="-8.8799600">
        <ele>36.6</ele>
        <time>2021-05-19T09:30:07Z</time>
      </trkpt>
      <trkpt lat="42.0447920" lon="-8.8799600">
        <ele>36.6</ele>
        <time>2021-05-19T09:30:08Z</time>
      </trkpt>
      <trkpt lat="42.0447920" lon="-8.8799610">
        <ele>36.6</ele>
        <time>2021-05-19T09:30:09Z</time>
      </trkpt>
      <trkpt lat="42.0447920" lon="-8.8799610">
        <ele>36.6</ele>
        <time>2021-05-19T09:30:10Z</time>
      </trkpt>
      <trkpt lat="42.0447920" lon="-8.8799610">
        <ele>36.6</ele>
        <time>2021-05-19T09:30:11Z</time>
      </trkpt>
      <trkpt lat="42.0447920" lon="-8.8799620">
        <ele>36.6</ele>
        <time>2021-05-19T09:30:12Z</time>
      </trkpt>
      <trkpt lat="42.0447930" lon="-8.8799620">
        <ele>36.6</ele>
        <time>2021-05-19T09:30:13Z</time>
      </trkpt>
      <trkpt lat="42.0447930" lon="-8.8799630">
        <ele>36.6</ele>
        <time>2021-05-19T09:30:14Z</time>
      </trkpt>
      <trkpt lat="42.0447930" lon="-8.8799630">
        <ele>36.6</ele>
        <time>2021-05-19T09:30:15Z</time>
      </trkpt>
      <trkpt lat="42.0447930" lon="-8.8799630">
        <ele>36.6</ele>
        <time>2021-05-19T09:30:16Z</time>
      </trkpt>
      <trkpt lat="42.0447940" lon="-8.8799640">
        <ele>36.6</ele>
        <time>2021-05-19T09:30:17Z</time>
      </trkpt>
      <trkpt lat="42.0447940" lon="-8.8799640">
        <ele>36.6</ele>
        <time>2021-05-19T09:30:18Z</time>
      </trkpt>
      <trkpt lat="42.0447940" lon="-8.8799650">
        <ele>36.6</ele>
        <time>2021-05-19T09:30:19Z</time>
      </trkpt>
      <trkpt lat="42.0447940" lon="-8.8799650">
        <ele>36.6</ele>
        <time>2021-05-19T09:30:20Z</time>
      </trkpt>
      <trkpt lat="42.0447940" lon="-8.8799660">
        <ele>36.6</ele>
        <time>2021-05-19T09:30:21Z</time>
      </trkpt>
      <trkpt lat="42.0447950" lon="-8.8799660">
        <ele>36.6</ele>
        <time>2021-05-19T09:30:22Z</time>
      </trkpt>
      <trkpt lat="42.0447950" lon="-8.8799660">
        <ele>36.6</ele>
        <time>2021-05-19T09:30:23Z</time>
      </trkpt>
      <trkpt lat="42.0447950" lon="-8.8799670">
        <ele>36.6</ele>
        <time>2021-05-19T09:30:24Z</time>
      </trkpt>
      <trkpt lat="42.0447950" lon="-8.8799670">
        <ele>36.6</ele>
        <time>2021-05-19T09:30:25Z</time>
      </trkpt>
      <trkpt lat="42.0447960" lon="-8.8799680">
        <ele>36.6</ele>
        <time>2021-05-19T09:30:26Z</time>
      </trkpt>
      <trkpt lat="42.0447960" lon="-8.8799680">
        <ele>36.6</ele>
        <time>2021-05-19T09:30:27Z</time>
      </trkpt>
      <trkpt lat="42.0447960" lon="-8.8799680">
        <ele>36.6</ele>
        <time>2021-05-19T09:30:28Z</time>
      </trkpt>
      <trkpt lat="42.0447960" lon="-8.8799690">
        <ele>36.6</ele>
        <time>2021-05-19T09:30:29Z</time>
      </trkpt>
      <trkpt lat="42.0447960" lon="-8.8799690">
        <ele>36.6</ele>
        <time>2021-05-19T09:30:30Z</time>
      </trkpt>
      <trkpt lat="42.0447970" lon="-8.8799700">
        <ele>36.6</ele>
        <time>2021-05-19T09:30:31Z</time>
      </trkpt>
      <trkpt lat="42.0447970" lon="-8.8799700">
        <ele>36.6</ele>
        <time>2021-05-19T09:30:32Z</time>
      </trkpt>
      <trkpt lat="42.0447970" lon="-8.8799710">
        <ele>36.6</ele>
        <time>2021-05-19T09:30:33Z</time>
      </trkpt>
      <trkpt lat="42.0447970" lon="-8.8799710">
        <ele>36.6</ele>
        <time>2021-05-19T09:30:34Z</time>
      </trkpt>
      <trkpt lat="42.0447970" lon="-8.8799710">
        <ele>36.6</ele>
        <time>2021-05-19T09:30:35Z</time>
      </trkpt>
      <trkpt lat="42.0447980" lon="-8.8799720">
        <ele>36.6</ele>
        <time>2021-05-19T09:30:36Z</time>
      </trkpt>
      <trkpt lat="42.0447980" lon="-8.8799720">
        <ele>36.6</ele>
        <time>2021-05-19T09:30:37Z</time>
      </trkpt>
      <trkpt lat="42.0447980" lon="-8.8799730">
        <ele>36.6</ele>
        <time>2021-05-19T09:30:38Z</time>
      </trkpt>
      <trkpt lat="42.0447980" lon="-8.8799730">
        <ele>36.6</ele>
        <time>2021-05-19T09:30:39Z</time>
      </trkpt>
      <trkpt lat="42.0447990" lon="-8.8799730">
        <ele>36.6</ele>
        <time>2021-05-19T09:30:40Z</time>
      </trkpt>
      <trkpt lat="42.0447990" lon="-8.8799740">
        <ele>36.6</ele>
        <time>2021-05-19T09:30:41Z</time>
      </trkpt>
      <trkpt lat="42.0447990" lon="-8.8799740">
        <ele>36.6</ele>
        <time>2021-05-19T09:30:42Z</time>
      </trkpt>
      <trkpt lat="42.0447990" lon="-8.8799750">
        <ele>36.6</ele>
        <time>2021-05-19T09:30:43Z</time>
      </trkpt>
      <trkpt lat="42.0447990" lon="-8.8799750">
        <ele>36.6</ele>
        <time>2021-05-19T09:30:44Z</time>
      </trkpt>
      <trkpt lat="42.0448000" lon="-8.8799760">
        <ele>36.6</ele>
        <time>2021-05-19T09:30:45Z</time>
      </trkpt>
      <trkpt lat="42.0448000" lon="-8.8799760">
        <ele>36.6</ele>
        <time>2021-05-19T09:30:46Z</time>
      </trkpt>
      <trkpt lat="42.0448000" lon="-8.8799760">
        <ele>36.6</ele>
        <time>2021-05-19T09:30:47Z</time>
      </trkpt>
      <trkpt lat="42.0448000" lon="-8.8799770">
        <ele>36.6</ele>
        <time>2021-05-19T09:30:48Z</time>
      </trkpt>
      <trkpt lat="42.0448010" lon="-8.8799770">
        <ele>36.6</ele>
        <time>2021-05-19T09:30:49Z</time>
      </trkpt>
      <trkpt lat="42.0448010" lon="-8.8799780">
        <ele>36.6</ele>
        <time>2021-05-19T09:30:50Z</time>
      </trkpt>
      <trkpt lat="42.0448010" lon="-8.8799780">
        <ele>36.6</ele>
        <time>2021-05-19T09:30:51Z</time>
      </trkpt>
      <trkpt lat="42.0448010" lon="-8.8799780">
        <ele>36.6</ele>
        <time>2021-05-19T09:30:52Z</time>
      </trkpt>
      <trkpt lat="42.0448010" lon="-8.8799790">
        <ele>36.6</ele>
        <time>2021-05-19T09:30:53Z</time>
      </trkpt>
      <trkpt lat="42.0448020" lon="-8.8799790">
        <ele>36.6</ele>
        <time>2021-05-19T09:30:54Z</time>
      </trkpt>
      <trkpt lat="42.0448020" lon="-8.8799800">
        <ele>36.6</ele>
        <time>2021-05-19T09:30:55Z</time>
      </trkpt>
      <trkpt lat="42.0448020" lon="-8.8799800">
        <ele>36.6</ele>
        <time>2021-05-19T09:30:56Z</time>
      </trkpt>
      <trkpt lat="42.0448020" lon="-8.8799800">
        <ele>36.6</ele>
        <time>2021-05-19T09:30:57Z</time>
      </trkpt>
      <trkpt lat="42.0448030" lon="-8.8799810">
        <ele>36.6</ele>
        <time>2021-05-19T09:30:58Z</time>
      </trkpt>
      <trkpt lat="42.0448030" lon="-8.8799810">
        <ele>36.6</ele>
        <time>2021-05-19T09:30:59Z</time>
      </trkpt>
      <trkpt lat="42.0448030" lon="-8.8799820">
        <ele>36.6</ele>
        <time>2021-05-19T09:31:00Z</time>
      </trkpt>
      <trkpt lat="42.0448030" lon="-8.8799820">
        <ele>36.6</ele>
        <time>2021-05-19T09:31:01Z</time>
      </trkpt>
      <trkpt lat="42.0448030" lon="-8.8799830">
        <ele>36.6</ele>
        <time>2021-05-19T09:31:02Z</time>
      </trkpt>
      <trkpt lat="42.0448040" lon="-8.8799830">
        <ele>36.6</ele>
        <time>2021-05-19T09:31:03Z</time>
      </trkpt>
      <trkpt lat="42.0448040" lon="-8.8799830">
        <ele>36.6</ele>
        <time>2021-05-19T09:31:04Z</time>
      </trkpt>
      <trkpt lat="42.0448040" lon="-8.8799840">
        <ele>36.6</ele>
        <time>2021-05-19T09:31:05Z</time>
      </trkpt>
      <trkpt lat="42.0448040" lon="-8.8799840">
        <ele>36.6</ele>
        <time>2021-05-19T09:31:06Z</time>
      </trkpt>
      <trkpt lat="42.0448050" lon="-8.8799850">
        <ele>36.6</ele>
        <time>2021-05-19T09:31:07Z</time>
      </trkpt>
      <trkpt lat="42.0448050" lon="-8.8799850">
        <ele>36.6</ele>
        <time>2021-05-19T09:31:08Z</time>
      </trkpt>
      <trkpt lat="42.0448050" lon="-8.8799850">
        <ele>36.6</ele>
        <time>2021-05-19T09:31:09Z</time>
      </trkpt>
      <trkpt lat="42.0448050" lon="-8.8799860">
        <ele>36.6</ele>
        <time>2021-05-19T09:31:10Z</time>
      </trkpt>
      <trkpt lat="42.0448050" lon="-8.8799860">
        <ele>36.6</ele>
        <time>2021-05-19T09:31:11Z</time>
      </trkpt>
      <trkpt lat="42.0448060" lon="-8.8799870">
        <ele>36.6</ele>
        <time>2021-05-19T09:31:12Z</time>
      </trkpt>
      <trkpt lat="42.0448060" lon="-8.8799870">
        <ele>36.6</ele>
        <time>2021-05-19T09:31:13Z</time>
      </trkpt>
      <trkpt lat="42.0448060" lon="-8.8799880">
        <ele>36.6</ele>
        <time>2021-05-19T09:31:14Z</time>
      </trkpt>
      <trkpt lat="42.0448060" lon="-8.8799880">
        <ele>36.6</ele>
        <time>2021-05-19T09:31:15Z</time>
      </trkpt>
      <trkpt lat="42.0448060" lon="-8.8799880">
        <ele>36.6</ele>
        <time>2021-05-19T09:31:16Z</time>
      </trkpt>
      <trkpt lat="42.0448070" lon="-8.8799890">
        <ele>36.6</ele>
        <time>2021-05-19T09:31:17Z</time>
      </trkpt>
      <trkpt lat="42.0448070" lon="-8.8799890">
        <ele>36.6</ele>
        <time>2021-05-19T09:31:18Z</time>
      </trkpt>
      <trkpt lat="42.0448070" lon="-8.8799900">
        <ele>36.6</ele>
        <time>2021-05-19T09:31:19Z</time>
      </trkpt>
      <trkpt lat="42.0448070" lon="-8.8799900">
        <ele>36.6</ele>
        <time>2021-05-19T09:31:20Z</time>
      </trkpt>
      <trkpt lat="42.0448080" lon="-8.8799900">
        <ele>36.6</ele>
        <time>2021-05-19T09:31:21Z</time>
      </trkpt>
      <trkpt lat="42.0448080" lon="-8.8799910">
        <ele>36.6</ele>
        <time>2021-05-19T09:31:22Z</time>
      </trkpt>
      <trkpt lat="42.0448080" lon="-8.8799910">
        <ele>36.6</ele>
        <time>2021-05-19T09:31:23Z</time>
      </trkpt>
      <trkpt lat="42.0448080" lon="-8.8799920">
        <ele>36.6</ele>
        <time>2021-05-19T09:31:24Z</time>
      </trkpt>
      <trkpt lat="42.0448080" lon="-8.8799920">
        <ele>36.6</ele>
        <time>2021-05-19T09:31:25Z</time>
      </trkpt>
      <trkpt lat="42.0448090" lon="-8.8799930">
        <ele>36.6</ele>
        <time>2021-05-19T09:31:26Z</time>
      </trkpt>
      <trkpt lat="42.0448090" lon="-8.8799930">
        <ele>36.6</ele>
        <time>2021-05-19T09:31:27Z</time>
      </trkpt>
      <trkpt lat="42.0448090" lon="-8.8799930">
        <ele>36.6</ele>
        <time>2021-05-19T09:31:28Z</time>
      </trkpt>
      <trkpt lat="42.0448090" lon="-8.8799940">
        <ele>36.6</ele>
        <time>2021-05-19T09:31:29Z</time>
      </trkpt>
      <trkpt lat="42.0448100" lon="-8.8799940">
        <ele>36.6</ele>
        <time>2021-05-19T09:31:30Z</time>
      </trkpt>
      <trkpt lat="42.0448100" lon="-8.8799950">
        <ele>36.6</ele>
        <time>2021-05-19T09:31:31Z</time>
      </trkpt>
      <trkpt lat="42.0448100" lon="-8.8799950">
        <ele>36.6</ele>
        <time>2021-05-19T09:31:32Z</time>
      </trkpt>
      <trkpt lat="42.0448100" lon="-8.8799950">
        <ele>36.6</ele>
        <time>2021-05-19T09:31:33Z</time>
      </trkpt>
      <trkpt lat="42.0448100" lon="-8.8799960">
        <ele>36.6</ele>
        <time>2021-05-19T09:31:34Z</time>
      </trkpt>
      <trkpt lat="42.0448110" lon="-8.8799960">
        <ele>36.6</ele>
        <time>2021-05-19T09:31:35Z</time>
      </trkpt>
      <trkpt lat="42.0448110" lon="-8.8799970">
        <ele>36.6</ele>
        <time>2021-05-19T09:31:36Z</time>
      </trkpt>
      <trkpt lat="42.0448110" lon="-8.8799970">
        <ele>36.6</ele>
        <time>2021-05-19T09:31:37Z</time>
      </trkpt>
      <trkpt lat="42.0448110" lon="-8.8799970">
        <ele>36.6</ele>
        <time>2021-05-19T09:31:38Z</time>
      </trkpt>
      <trkpt lat="42.0448120" lon="-8.8799980">
        <ele>36.6</ele>
        <time>2021-05-19T09:31:39Z</time>
      </trkpt>
      <trkpt lat="42.0448120" lon="-8.8799980">
        <ele>36.6</ele>
        <time>2021-05-19T09:31:40Z</time>
      </trkpt>
      <trkpt lat="42.0448120" lon="-8.8799990">
        <ele>36.6</ele>
        <time>2021-05-19T09:31:41Z</time>
      </trkpt>
      <trkpt lat="42.0448120" lon="-8.8799990">
        <ele>36.6</ele>
        <time>2021-05-19T09:31:42Z</time>
      </trkpt>
      <trkpt lat="42.0448120" lon="-8.8800000">
        <ele>36.6</ele>
        <time>2021-05-19T09:31:43Z</time>
      </trkpt>
      <trkpt lat="42.0448130" lon="-8.8800000">
        <ele>36.6</ele>
        <time>2021-05-19T09:31:44Z</time>
      </trkpt>
      <trkpt lat="42.0448130" lon="-8.8800000">
        <ele>36.6</ele>
        <time>2021-05-19T09:31:45Z</time>
      </trkpt>
      <trkpt lat="42.0448130" lon="-8.8800010">
        <ele>36.6</ele>
        <time>2021-05-19T09:31:46Z</time>
      </trkpt>
      <trkpt lat="42.0448130" lon="-8.8800010">
        <ele>36.6</ele>
        <time>2021-05-19T09:31:47Z</time>
      </trkpt>
      <trkpt lat="42.0448140" lon="-8.8800020">
        <ele>36.6</ele>
        <time>2021-05-19T09:31:48Z</time>
      </trkpt>
      <trkpt lat="42.0448140" lon="-8.8800020">
        <ele>36.6</ele>
        <time>2021-05-19T09:31:49Z</time>
      </trkpt>
      <trkpt lat="42.0448140" lon="-8.8800020">
        <ele>36.6</ele>
        <time>2021-05-19T09:31:50Z</time>
      </trkpt>
      <trkpt lat="42.0448140" lon="-8.8800030">
        <ele>36.6</ele>
        <time>2021-05-19T09:31:51Z</time>
      </trkpt>
      <trkpt lat="42.0448140" lon="-8.8800030">
        <ele>36.6</ele>
        <time>2021-05-19T09:31:52Z</time>
      </trkpt>
      <trkpt lat="42.0448150" lon="-8.8800040">
        <ele>36.6</ele>
        <time>2021-05-19T09:31:53Z</time>
      </trkpt>
      <trkpt lat="42.0448150" lon="-8.8800040">
        <ele>36.6</ele>
        <time>2021-05-19T09:31:54Z</time>
      </trkpt>
      <trkpt lat="42.0448150" lon="-8.8800050">
        <ele>36.6</ele>
        <time>2021-05-19T09:31:55Z</time>
      </trkpt>
      <trkpt lat="42.0448150" lon="-8.8800050">
        <ele>36.6</ele>
        <time>2021-05-19T09:31:56Z</time>
      </trkpt>
      <trkpt lat="42.0448150" lon="-8.8800050">
        <ele>36.6</ele>
        <time>2021-05-19T09:31:57Z</time>
      </trkpt>
      <trkpt lat="42.0448160" lon="-8.8800060">
        <ele>36.6</ele>
        <time>2021-05-19T09:31:58Z</time>
      </trkpt>
      <trkpt lat="42.0448160" lon="-8.8800060">
        <ele>36.6</ele>
        <time>2021-05-19T09:31:59Z</time>
      </trkpt>
      <trkpt lat="42.0448160" lon="-8.8800070">
        <ele>36.6</ele>
        <time>2021-05-19T09:32:00Z</time>
      </trkpt>
      <trkpt lat="42.0448160" lon="-8.8800070">
        <ele>36.6</ele>
        <time>2021-05-19T09:32:01Z</time>
      </trkpt>
      <trkpt lat="42.0448170" lon="-8.8800070">
        <ele>36.6</ele>
        <time>2021-05-19T09:32:02Z</time>
      </trkpt>
      <trkpt lat="42.0448170" lon="-8.8800080">
        <ele>36.6</ele>
        <time>2021-05-19T09:32:03Z</time>
      </trkpt>
      <trkpt lat="42.0448170" lon="-8.8800080">
        <ele>36.6</ele>
        <time>2021-05-19T09:32:04Z</time>
      </trkpt>
      <trkpt lat="42.0448170" lon="-8.8800090">
        <ele>36.6</ele>
        <time>2021-05-19T09:32:05Z</time>
      </trkpt>
      <trkpt lat="42.0448170" lon="-8.8800090">
        <ele>36.6</ele>
        <time>2021-05-19T09:32:06Z</time>
      </trkpt>
      <trkpt lat="42.0448180" lon="-8.8800100">
        <ele>36.6</ele>
        <time>2021-05-19T09:32:07Z</time>
      </trkpt>
      <trkpt lat="42.0448180" lon="-8.8800100">
        <ele>36.6</ele>
        <time>2021-05-19T09:32:08Z</time>
      </trkpt>
      <trkpt lat="42.0448180" lon="-8.8800100">
        <ele>36.6</ele>
        <time>2021-05-19T09:32:09Z</time>
      </trkpt>
      <trkpt lat="42.0448180" lon="-8.8800110">
        <ele>36.6</ele>
        <time>2021-05-19T09:32:10Z</time>
      </trkpt>
      <trkpt lat="42.0448190" lon="-8.8800110">
        <ele>36.6</ele>
        <time>2021-05-19T09:32:11Z</time>
      </trkpt>
      <trkpt lat="42.0448190" lon="-8.8800120">
        <ele>36.6</ele>
        <time>2021-05-19T09:32:12Z</time>
      </trkpt>
      <trkpt lat="42.0448190" lon="-8.8800120">
        <ele>36.6</ele>
        <time>2021-05-19T09:32:13Z</time>
      </trkpt>
      <trkpt lat="42.0448130" lon="-8.8800210">
        <ele>36.6</ele>
        <time>2021-05-19T09:32:14Z</time>
      </trkpt>
      <trkpt lat="42.0448130" lon="-8.8800350">
        <ele>36.5</ele>
        <time>2021-05-19T09:32:15Z</time>
      </trkpt>
      <trkpt lat="42.0448100" lon="-8.8800490">
        <ele>36.5</ele>
        <time>2021-05-19T09:32:16Z</time>
      </trkpt>
      <trkpt lat="42.0448040" lon="-8.8800600">
        <ele>36.5</ele>
        <time>2021-05-19T09:32:17Z</time>
      </trkpt>
      <trkpt lat="42.0448060" lon="-8.8800580">
        <ele>36.5</ele>
        <time>2021-05-19T09:32:18Z</time>
      </trkpt>
      <trkpt lat="42.0448030" lon="-8.8800660">
        <ele>36.5</ele>
        <time>2021-05-19T09:32:19Z</time>
      </trkpt>
      <trkpt lat="42.0448010" lon="-8.8800760">
        <ele>36.5</ele>
        <time>2021-05-19T09:32:20Z</time>
      </trkpt>
      <trkpt lat="42.0447950" lon="-8.8800860">
        <ele>36.5</ele>
        <time>2021-05-19T09:32:21Z</time>
      </trkpt>
      <trkpt lat="42.0447960" lon="-8.8800940">
        <ele>36.5</ele>
        <time>2021-05-19T09:32:22Z</time>
      </trkpt>
      <trkpt lat="42.0447990" lon="-8.8800910">
        <ele>36.5</ele>
        <time>2021-05-19T09:32:23Z</time>
      </trkpt>
      <trkpt lat="42.0447970" lon="-8.8800930">
        <ele>36.5</ele>
        <time>2021-05-19T09:32:24Z</time>
      </trkpt>
      <trkpt lat="42.0447950" lon="-8.8801020">
        <ele>36.5</ele>
        <time>2021-05-19T09:32:25Z</time>
      </trkpt>
      <trkpt lat="42.0447920" lon="-8.8801050">
        <ele>36.5</ele>
        <time>2021-05-19T09:32:26Z</time>
      </trkpt>
      <trkpt lat="42.0447910" lon="-8.8801130">
        <ele>36.5</ele>
        <time>2021-05-19T09:32:27Z</time>
      </trkpt>
      <trkpt lat="42.0447850" lon="-8.8801180">
        <ele>36.4</ele>
        <time>2021-05-19T09:32:28Z</time>
      </trkpt>
      <trkpt lat="42.0447870" lon="-8.8801210">
        <ele>36.4</ele>
        <time>2021-05-19T09:32:29Z</time>
      </trkpt>
      <trkpt lat="42.0447880" lon="-8.8801220">
        <ele>36.4</ele>
        <time>2021-05-19T09:32:30Z</time>
      </trkpt>
      <trkpt lat="42.0447900" lon="-8.8801240">
        <ele>36.4</ele>
        <time>2021-05-19T09:32:31Z</time>
      </trkpt>
      <trkpt lat="42.0447900" lon="-8.8801260">
        <ele>36.4</ele>
        <time>2021-05-19T09:32:32Z</time>
      </trkpt>
      <trkpt lat="42.0447920" lon="-8.8801270">
        <ele>36.4</ele>
        <time>2021-05-19T09:32:33Z</time>
      </trkpt>
      <trkpt lat="42.0447930" lon="-8.8801240">
        <ele>36.4</ele>
        <time>2021-05-19T09:32:34Z</time>
      </trkpt>
      <trkpt lat="42.0447920" lon="-8.8801280">
        <ele>36.4</ele>
        <time>2021-05-19T09:32:35Z</time>
      </trkpt>
      <trkpt lat="42.0447930" lon="-8.8801250">
        <ele>36.4</ele>
        <time>2021-05-19T09:32:36Z</time>
      </trkpt>
      <trkpt lat="42.0447910" lon="-8.8801260">
        <ele>36.4</ele>
        <time>2021-05-19T09:32:37Z</time>
      </trkpt>
      <trkpt lat="42.0447900" lon="-8.8801280">
        <ele>36.4</ele>
        <time>2021-05-19T09:32:38Z</time>
      </trkpt>
      <trkpt lat="42.0447910" lon="-8.8801310">
        <ele>36.4</ele>
        <time>2021-05-19T09:32:39Z</time>
      </trkpt>
      <trkpt lat="42.0447940" lon="-8.8801320">
        <ele>36.4</ele>
        <time>2021-05-19T09:32:40Z</time>
      </trkpt>
      <trkpt lat="42.0447970" lon="-8.8801270">
        <ele>36.3</ele>
        <time>2021-05-19T09:32:41Z</time>
      </trkpt>
      <trkpt lat="42.0447990" lon="-8.8801320">
        <ele>36.3</ele>
        <time>2021-05-19T09:32:42Z</time>
      </trkpt>
      <trkpt lat="42.0448000" lon="-8.8801270">
        <ele>36.3</ele>
        <time>2021-05-19T09:32:43Z</time>
      </trkpt>
      <trkpt lat="42.0447970" lon="-8.8801220">
        <ele>36.3</ele>
        <time>2021-05-19T09:32:44Z</time>
      </trkpt>
      <trkpt lat="42.0447980" lon="-8.8801230">
        <ele>36.3</ele>
        <time>2021-05-19T09:32:45Z</time>
      </trkpt>
      <trkpt lat="42.0447980" lon="-8.8801270">
        <ele>36.3</ele>
        <time>2021-05-19T09:32:46Z</time>
      </trkpt>
      <trkpt lat="42.0448000" lon="-8.8801270">
        <ele>36.3</ele>
        <time>2021-05-19T09:32:47Z</time>
      </trkpt>
      <trkpt lat="42.0447980" lon="-8.8801270">
        <ele>36.3</ele>
        <time>2021-05-19T09:32:48Z</time>
      </trkpt>
      <trkpt lat="42.0447970" lon="-8.8801270">
        <ele>36.3</ele>
        <time>2021-05-19T09:32:49Z</time>
      </trkpt>
      <trkpt lat="42.0447970" lon="-8.8801280">
        <ele>36.3</ele>
        <time>2021-05-19T09:32:50Z</time>
      </trkpt>
      <trkpt lat="42.0447960" lon="-8.8801320">
        <ele>36.3</ele>
        <time>2021-05-19T09:32:51Z</time>
      </trkpt>
      <trkpt lat="42.0448010" lon="-8.8801410">
        <ele>36.3</ele>
        <time>2021-05-19T09:32:52Z</time>
      </trkpt>
      <trkpt lat="42.0448020" lon="-8.8801400">
        <ele>36.3</ele>
        <time>2021-05-19T09:32:53Z</time>
      </trkpt>
      <trkpt lat="42.0448010" lon="-8.8801420">
        <ele>36.2</ele>
        <time>2021-05-19T09:32:54Z</time>
      </trkpt>
      <trkpt lat="42.0448010" lon="-8.8801430">
        <ele>36.2</ele>
        <time>2021-05-19T09:32:55Z</time>
      </trkpt>
      <trkpt lat="42.0448030" lon="-8.8801410">
        <ele>36.2</ele>
        <time>2021-05-19T09:32:56Z</time>
      </trkpt>
      <trkpt lat="42.0448030" lon="-8.8801410">
        <ele>36.2</ele>
        <time>2021-05-19T09:32:57Z</time>
      </trkpt>
      <trkpt lat="42.0448010" lon="-8.8801400">
        <ele>36.2</ele>
        <time>2021-05-19T09:32:58Z</time>
      </trkpt>
      <trkpt lat="42.0448000" lon="-8.8801420">
        <ele>36.2</ele>
        <time>2021-05-19T09:32:59Z</time>
      </trkpt>
      <trkpt lat="42.0447990" lon="-8.8801390">
        <ele>36.2</ele>
        <time>2021-05-19T09:33:00Z</time>
      </trkpt>
      <trkpt lat="42.0447990" lon="-8.8801400">
        <ele>36.2</ele>
        <time>2021-05-19T09:33:01Z</time>
      </trkpt>
      <trkpt lat="42.0447950" lon="-8.8801420">
        <ele>36.2</ele>
        <time>2021-05-19T09:33:02Z</time>
      </trkpt>
      <trkpt lat="42.0447950" lon="-8.8801420">
        <ele>36.2</ele>
        <time>2021-05-19T09:33:03Z</time>
      </trkpt>
      <trkpt lat="42.0447930" lon="-8.8801400">
        <ele>36.2</ele>
        <time>2021-05-19T09:33:04Z</time>
      </trkpt>
      <trkpt lat="42.0447850" lon="-8.8801350">
        <ele>36.2</ele>
        <time>2021-05-19T09:33:05Z</time>
      </trkpt>
      <trkpt lat="42.0447850" lon="-8.8801340">
        <ele>36.2</ele>
        <time>2021-05-19T09:33:06Z</time>
      </trkpt>
      <trkpt lat="42.0447830" lon="-8.8801340">
        <ele>36.2</ele>
        <time>2021-05-19T09:33:07Z</time>
      </trkpt>
      <trkpt lat="42.0447810" lon="-8.8801360">
        <ele>36.2</ele>
        <time>2021-05-19T09:33:08Z</time>
      </trkpt>
      <trkpt lat="42.0447820" lon="-8.8801400">
        <ele>36.2</ele>
        <time>2021-05-19T09:33:09Z</time>
      </trkpt>
      <trkpt lat="42.0447820" lon="-8.8801410">
        <ele>36.2</ele>
        <time>2021-05-19T09:33:10Z</time>
      </trkpt>
      <trkpt lat="42.0447800" lon="-8.8801410">
        <ele>36.1</ele>
        <time>2021-05-19T09:33:11Z</time>
      </trkpt>
      <trkpt lat="42.0447800" lon="-8.8801420">
        <ele>36.1</ele>
        <time>2021-05-19T09:33:12Z</time>
      </trkpt>
      <trkpt lat="42.0447800" lon="-8.8801420">
        <ele>36.1</ele>
        <time>2021-05-19T09:33:13Z</time>
      </trkpt>
      <trkpt lat="42.0447810" lon="-8.8801450">
        <ele>36.1</ele>
        <time>2021-05-19T09:33:14Z</time>
      </trkpt>
      <trkpt lat="42.0447810" lon="-8.8801440">
        <ele>36.1</ele>
        <time>2021-05-19T09:33:15Z</time>
      </trkpt>
      <trkpt lat="42.0447820" lon="-8.8801470">
        <ele>36.1</ele>
        <time>2021-05-19T09:33:16Z</time>
      </trkpt>
      <trkpt lat="42.0447820" lon="-8.8801420">
        <ele>36.1</ele>
        <time>2021-05-19T09:33:17Z</time>
      </trkpt>
      <trkpt lat="42.0447850" lon="-8.8801370">
        <ele>36.1</ele>
        <time>2021-05-19T09:33:18Z</time>
      </trkpt>
      <trkpt lat="42.0447840" lon="-8.8801360">
        <ele>36.1</ele>
        <time>2021-05-19T09:33:19Z</time>
      </trkpt>
      <trkpt lat="42.0447840" lon="-8.8801310">
        <ele>36.1</ele>
        <time>2021-05-19T09:33:20Z</time>
      </trkpt>
      <trkpt lat="42.0447850" lon="-8.8801320">
        <ele>36.1</ele>
        <time>2021-05-19T09:33:21Z</time>
      </trkpt>
      <trkpt lat="42.0447860" lon="-8.8801290">
        <ele>36.1</ele>
        <time>2021-05-19T09:33:22Z</time>
      </trkpt>
      <trkpt lat="42.0447850" lon="-8.8801270">
        <ele>36.1</ele>
        <time>2021-05-19T09:33:23Z</time>
      </trkpt>
      <trkpt lat="42.0447830" lon="-8.8801250">
        <ele>36.1</ele>
        <time>2021-05-19T09:33:24Z</time>
      </trkpt>
      <trkpt lat="42.0447840" lon="-8.8801260">
        <ele>36.1</ele>
        <time>2021-05-19T09:33:25Z</time>
      </trkpt>
      <trkpt lat="42.0447840" lon="-8.8801270">
        <ele>36.1</ele>
        <time>2021-05-19T09:33:26Z</time>
      </trkpt>
      <trkpt lat="42.0447850" lon="-8.8801280">
        <ele>36.1</ele>
        <time>2021-05-19T09:33:27Z</time>
      </trkpt>
      <trkpt lat="42.0447840" lon="-8.8801250">
        <ele>36.0</ele>
        <time>2021-05-19T09:33:28Z</time>
      </trkpt>
      <trkpt lat="42.0447840" lon="-8.8801250">
        <ele>36.0</ele>
        <time>2021-05-19T09:33:29Z</time>
      </trkpt>
      <trkpt lat="42.0447840" lon="-8.8801260">
        <ele>36.0</ele>
        <time>2021-05-19T09:33:30Z</time>
      </trkpt>
      <trkpt lat="42.0447840" lon="-8.8801260">
        <ele>36.0</ele>
        <time>2021-05-19T09:33:31Z</time>
      </trkpt>
      <trkpt lat="42.0447850" lon="-8.8801260">
        <ele>36.0</ele>
        <time>2021-05-19T09:33:32Z</time>
      </trkpt>
      <trkpt lat="42.0447840" lon="-8.8801250">
        <ele>36.0</ele>
        <time>2021-05-19T09:33:33Z</time>
      </trkpt>
      <trkpt lat="42.0447830" lon="-8.8801250">
        <ele>36.0</ele>
        <time>2021-05-19T09:33:34Z</time>
      </trkpt>
      <trkpt lat="42.0447830" lon="-8.8801230">
        <ele>36.0</ele>
        <time>2021-05-19T09:33:35Z</time>
      </trkpt>
      <trkpt lat="42.0447830" lon="-8.8801230">
        <ele>36.0</ele>
        <time>2021-05-19T09:33:36Z</time>
      </trkpt>
      <trkpt lat="42.0447870" lon="-8.8801270">
        <ele>36.0</ele>
        <time>2021-05-19T09:33:37Z</time>
      </trkpt>
      <trkpt lat="42.0447880" lon="-8.8801260">
        <ele>36.0</ele>
        <time>2021-05-19T09:33:38Z</time>
      </trkpt>
      <trkpt lat="42.0447880" lon="-8.8801260">
        <ele>36.0</ele>
        <time>2021-05-19T09:33:39Z</time>
      </trkpt>
      <trkpt lat="42.0447920" lon="-8.8801290">
        <ele>36.0</ele>
        <time>2021-05-19T09:33:40Z</time>
      </trkpt>
      <trkpt lat="42.0447930" lon="-8.8801300">
        <ele>36.0</ele>
        <time>2021-05-19T09:33:41Z</time>
      </trkpt>
      <trkpt lat="42.0447930" lon="-8.8801300">
        <ele>36.0</ele>
        <time>2021-05-19T09:33:42Z</time>
      </trkpt>
      <trkpt lat="42.0447950" lon="-8.8801340">
        <ele>36.0</ele>
        <time>2021-05-19T09:33:43Z</time>
      </trkpt>
      <trkpt lat="42.0447950" lon="-8.8801340">
        <ele>36.0</ele>
        <time>2021-05-19T09:33:44Z</time>
      </trkpt>
      <trkpt lat="42.0447950" lon="-8.8801340">
        <ele>36.0</ele>
        <time>2021-05-19T09:33:45Z</time>
      </trkpt>
      <trkpt lat="42.0447950" lon="-8.8801340">
        <ele>36.0</ele>
        <time>2021-05-19T09:33:46Z</time>
      </trkpt>
      <trkpt lat="42.0447940" lon="-8.8801340">
        <ele>36.0</ele>
        <time>2021-05-19T09:33:47Z</time>
      </trkpt>
      <trkpt lat="42.0447930" lon="-8.8801380">
        <ele>36.0</ele>
        <time>2021-05-19T09:33:48Z</time>
      </trkpt>
      <trkpt lat="42.0447930" lon="-8.8801390">
        <ele>36.0</ele>
        <time>2021-05-19T09:33:49Z</time>
      </trkpt>
      <trkpt lat="42.0447920" lon="-8.8801390">
        <ele>36.0</ele>
        <time>2021-05-19T09:33:50Z</time>
      </trkpt>
      <trkpt lat="42.0447930" lon="-8.8801390">
        <ele>36.0</ele>
        <time>2021-05-19T09:33:51Z</time>
      </trkpt>
      <trkpt lat="42.0447920" lon="-8.8801390">
        <ele>36.0</ele>
        <time>2021-05-19T09:33:52Z</time>
      </trkpt>
      <trkpt lat="42.0447930" lon="-8.8801380">
        <ele>36.0</ele>
        <time>2021-05-19T09:33:53Z</time>
      </trkpt>
      <trkpt lat="42.0447920" lon="-8.8801370">
        <ele>35.9</ele>
        <time>2021-05-19T09:33:54Z</time>
      </trkpt>
      <trkpt lat="42.0447930" lon="-8.8801390">
        <ele>35.9</ele>
        <time>2021-05-19T09:33:55Z</time>
      </trkpt>
      <trkpt lat="42.0447920" lon="-8.8801360">
        <ele>35.9</ele>
        <time>2021-05-19T09:33:56Z</time>
      </trkpt>
      <trkpt lat="42.0447910" lon="-8.8801340">
        <ele>35.9</ele>
        <time>2021-05-19T09:33:57Z</time>
      </trkpt>
      <trkpt lat="42.0447900" lon="-8.8801330">
        <ele>35.9</ele>
        <time>2021-05-19T09:33:58Z</time>
      </trkpt>
      <trkpt lat="42.0447920" lon="-8.8801350">
        <ele>35.9</ele>
        <time>2021-05-19T09:33:59Z</time>
      </trkpt>
      <trkpt lat="42.0447920" lon="-8.8801340">
        <ele>35.9</ele>
        <time>2021-05-19T09:34:00Z</time>
      </trkpt>
      <trkpt lat="42.0447920" lon="-8.8801310">
        <ele>35.9</ele>
        <time>2021-05-19T09:34:01Z</time>
      </trkpt>
      <trkpt lat="42.0447920" lon="-8.8801300">
        <ele>35.9</ele>
        <time>2021-05-19T09:34:02Z</time>
      </trkpt>
      <trkpt lat="42.0447920" lon="-8.8801300">
        <ele>35.9</ele>
        <time>2021-05-19T09:34:03Z</time>
      </trkpt>
      <trkpt lat="42.0447950" lon="-8.8801220">
        <ele>35.9</ele>
        <time>2021-05-19T09:34:04Z</time>
      </trkpt>
      <trkpt lat="42.0447920" lon="-8.8801170">
        <ele>35.9</ele>
        <time>2021-05-19T09:34:05Z</time>
      </trkpt>
      <trkpt lat="42.0447910" lon="-8.8801230">
        <ele>35.9</ele>
        <time>2021-05-19T09:34:06Z</time>
      </trkpt>
      <trkpt lat="42.0447910" lon="-8.8801240">
        <ele>35.9</ele>
        <time>2021-05-19T09:34:07Z</time>
      </trkpt>
      <trkpt lat="42.0447910" lon="-8.8801250">
        <ele>35.9</ele>
        <time>2021-05-19T09:34:08Z</time>
      </trkpt>
      <trkpt lat="42.0447900" lon="-8.8801280">
        <ele>35.8</ele>
        <time>2021-05-19T09:34:09Z</time>
      </trkpt>
      <trkpt lat="42.0447910" lon="-8.8801300">
        <ele>35.8</ele>
        <time>2021-05-19T09:34:10Z</time>
      </trkpt>
      <trkpt lat="42.0447920" lon="-8.8801310">
        <ele>35.8</ele>
        <time>2021-05-19T09:34:11Z</time>
      </trkpt>
      <trkpt lat="42.0447930" lon="-8.8801320">
        <ele>35.8</ele>
        <time>2021-05-19T09:34:12Z</time>
      </trkpt>
      <trkpt lat="42.0447920" lon="-8.8801320">
        <ele>35.8</ele>
        <time>2021-05-19T09:34:13Z</time>
      </trkpt>
      <trkpt lat="42.0447940" lon="-8.8801300">
        <ele>35.8</ele>
        <time>2021-05-19T09:34:14Z</time>
      </trkpt>
      <trkpt lat="42.0447960" lon="-8.8801330">
        <ele>35.8</ele>
        <time>2021-05-19T09:34:15Z</time>
      </trkpt>
      <trkpt lat="42.0447960" lon="-8.8801330">
        <ele>35.8</ele>
        <time>2021-05-19T09:34:16Z</time>
      </trkpt>
      <trkpt lat="42.0448000" lon="-8.8801340">
        <ele>35.8</ele>
        <time>2021-05-19T09:34:17Z</time>
      </trkpt>
      <trkpt lat="42.0448000" lon="-8.8801330">
        <ele>35.8</ele>
        <time>2021-05-19T09:34:18Z</time>
      </trkpt>
      <trkpt lat="42.0447960" lon="-8.8801340">
        <ele>35.8</ele>
        <time>2021-05-19T09:34:19Z</time>
      </trkpt>
      <trkpt lat="42.0447980" lon="-8.8801320">
        <ele>35.8</ele>
        <time>2021-05-19T09:34:20Z</time>
      </trkpt>
      <trkpt lat="42.0447960" lon="-8.8801350">
        <ele>35.8</ele>
        <time>2021-05-19T09:34:21Z</time>
      </trkpt>
      <trkpt lat="42.0447870" lon="-8.8801260">
        <ele>35.7</ele>
        <time>2021-05-19T09:34:22Z</time>
      </trkpt>
      <trkpt lat="42.0447940" lon="-8.8801380">
        <ele>35.7</ele>
        <time>2021-05-19T09:34:23Z</time>
      </trkpt>
      <trkpt lat="42.0447960" lon="-8.8801330">
        <ele>35.7</ele>
        <time>2021-05-19T09:34:24Z</time>
      </trkpt>
      <trkpt lat="42.0447990" lon="-8.8801310">
        <ele>35.7</ele>
        <time>2021-05-19T09:34:25Z</time>
      </trkpt>
      <trkpt lat="42.0448030" lon="-8.8801310">
        <ele>35.7</ele>
        <time>2021-05-19T09:34:26Z</time>
      </trkpt>
      <trkpt lat="42.0448090" lon="-8.8801320">
        <ele>35.6</ele>
        <time>2021-05-19T09:34:27Z</time>
      </trkpt>
      <trkpt lat="42.0448170" lon="-8.8801430">
        <ele>35.6</ele>
        <time>2021-05-19T09:34:28Z</time>
      </trkpt>
      <trkpt lat="42.0448170" lon="-8.8801450">
        <ele>35.6</ele>
        <time>2021-05-19T09:34:29Z</time>
      </trkpt>
      <trkpt lat="42.0448270" lon="-8.8801650">
        <ele>35.6</ele>
        <time>2021-05-19T09:34:30Z</time>
      </trkpt>
      <trkpt lat="42.0448310" lon="-8.8801700">
        <ele>35.5</ele>
        <time>2021-05-19T09:34:31Z</time>
      </trkpt>
      <trkpt lat="42.0448310" lon="-8.8801810">
        <ele>35.5</ele>
        <time>2021-05-19T09:34:32Z</time>
      </trkpt>
      <trkpt lat="42.0448330" lon="-8.8801870">
        <ele>35.5</ele>
        <time>2021-05-19T09:34:33Z</time>
      </trkpt>
      <trkpt lat="42.0448410" lon="-8.8801920">
        <ele>35.5</ele>
        <time>2021-05-19T09:34:34Z</time>
      </trkpt>
      <trkpt lat="42.0448470" lon="-8.8802020">
        <ele>35.4</ele>
        <time>2021-05-19T09:34:35Z</time>
      </trkpt>
      <trkpt lat="42.0448510" lon="-8.8802100">
        <ele>35.4</ele>
        <time>2021-05-19T09:34:36Z</time>
      </trkpt>
      <trkpt lat="42.0448610" lon="-8.8802270">
        <ele>35.4</ele>
        <time>2021-05-19T09:34:37Z</time>
      </trkpt>
      <trkpt lat="42.0448700" lon="-8.8802260">
        <ele>35.3</ele>
        <time>2021-05-19T09:34:38Z</time>
      </trkpt>
      <trkpt lat="42.0448710" lon="-8.8802230">
        <ele>35.3</ele>
        <time>2021-05-19T09:34:39Z</time>
      </trkpt>
      <trkpt lat="42.0448730" lon="-8.8802230">
        <ele>35.3</ele>
        <time>2021-05-19T09:34:40Z</time>
      </trkpt>
      <trkpt lat="42.0448740" lon="-8.8802230">
        <ele>35.3</ele>
        <time>2021-05-19T09:34:41Z</time>
      </trkpt>
      <trkpt lat="42.0448780" lon="-8.8802230">
        <ele>35.3</ele>
        <time>2021-05-19T09:34:42Z</time>
      </trkpt>
      <trkpt lat="42.0448820" lon="-8.8802280">
        <ele>35.3</ele>
        <time>2021-05-19T09:34:43Z</time>
      </trkpt>
      <trkpt lat="42.0448800" lon="-8.8802340">
        <ele>35.3</ele>
        <time>2021-05-19T09:34:44Z</time>
      </trkpt>
      <trkpt lat="42.0448880" lon="-8.8802470">
        <ele>35.3</ele>
        <time>2021-05-19T09:34:45Z</time>
      </trkpt>
      <trkpt lat="42.0448930" lon="-8.8802600">
        <ele>35.2</ele>
        <time>2021-05-19T09:34:46Z</time>
      </trkpt>
      <trkpt lat="42.0448890" lon="-8.8802560">
        <ele>35.2</ele>
        <time>2021-05-19T09:34:47Z</time>
      </trkpt>
      <trkpt lat="42.0448910" lon="-8.8802590">
        <ele>35.2</ele>
        <time>2021-05-19T09:34:48Z</time>
      </trkpt>
      <trkpt lat="42.0448880" lon="-8.8802610">
        <ele>35.2</ele>
        <time>2021-05-19T09:34:49Z</time>
      </trkpt>
      <trkpt lat="42.0448950" lon="-8.8802700">
        <ele>35.2</ele>
        <time>2021-05-19T09:34:50Z</time>
      </trkpt>
      <trkpt lat="42.0448920" lon="-8.8802800">
        <ele>35.1</ele>
        <time>2021-05-19T09:34:51Z</time>
      </trkpt>
      <trkpt lat="42.0449010" lon="-8.8802930">
        <ele>35.1</ele>
        <time>2021-05-19T09:34:52Z</time>
      </trkpt>
      <trkpt lat="42.0449060" lon="-8.8803040">
        <ele>35.1</ele>
        <time>2021-05-19T09:34:53Z</time>
      </trkpt>
      <trkpt lat="42.0449120" lon="-8.8803130">
        <ele>35.1</ele>
        <time>2021-05-19T09:34:54Z</time>
      </trkpt>
      <trkpt lat="42.0449180" lon="-8.8803210">
        <ele>35.0</ele>
        <time>2021-05-19T09:34:55Z</time>
      </trkpt>
      <trkpt lat="42.0449240" lon="-8.8803350">
        <ele>35.0</ele>
        <time>2021-05-19T09:34:56Z</time>
      </trkpt>
      <trkpt lat="42.0449290" lon="-8.8803540">
        <ele>35.0</ele>
        <time>2021-05-19T09:34:57Z</time>
      </trkpt>
      <trkpt lat="42.0449360" lon="-8.8803650">
        <ele>34.9</ele>
        <time>2021-05-19T09:34:58Z</time>
      </trkpt>
      <trkpt lat="42.0449400" lon="-8.8803770">
        <ele>34.9</ele>
        <time>2021-05-19T09:34:59Z</time>
      </trkpt>
      <trkpt lat="42.0449410" lon="-8.8803860">
        <ele>34.9</ele>
        <time>2021-05-19T09:35:00Z</time>
      </trkpt>
      <trkpt lat="42.0449490" lon="-8.8803980">
        <ele>34.8</ele>
        <time>2021-05-19T09:35:01Z</time>
      </trkpt>
      <trkpt lat="42.0449530" lon="-8.8804160">
        <ele>34.8</ele>
        <time>2021-05-19T09:35:02Z</time>
      </trkpt>
      <trkpt lat="42.0449630" lon="-8.8804300">
        <ele>34.8</ele>
        <time>2021-05-19T09:35:03Z</time>
      </trkpt>
      <trkpt lat="42.0449690" lon="-8.8804390">
        <ele>34.7</ele>
        <time>2021-05-19T09:35:04Z</time>
      </trkpt>
      <trkpt lat="42.0449720" lon="-8.8804490">
        <ele>34.7</ele>
        <time>2021-05-19T09:35:05Z</time>
      </trkpt>
      <trkpt lat="42.0449890" lon="-8.8804670">
        <ele>34.7</ele>
        <time>2021-05-19T09:35:06Z</time>
      </trkpt>
      <trkpt lat="42.0449960" lon="-8.8804740">
        <ele>34.6</ele>
        <time>2021-05-19T09:35:07Z</time>
      </trkpt>
      <trkpt lat="42.0450020" lon="-8.8804820">
        <ele>34.6</ele>
        <time>2021-05-19T09:35:08Z</time>
      </trkpt>
      <trkpt lat="42.0450090" lon="-8.8804870">
        <ele>34.6</ele>
        <time>2021-05-19T09:35:09Z</time>
      </trkpt>
      <trkpt lat="42.0450190" lon="-8.8804970">
        <ele>34.5</ele>
        <time>2021-05-19T09:35:10Z</time>
      </trkpt>
      <trkpt lat="42.0450240" lon="-8.8805040">
        <ele>34.5</ele>
        <time>2021-05-19T09:35:11Z</time>
      </trkpt>
      <trkpt lat="42.0450360" lon="-8.8805100">
        <ele>34.5</ele>
        <time>2021-05-19T09:35:12Z</time>
      </trkpt>
      <trkpt lat="42.0450410" lon="-8.8805180">
        <ele>34.5</ele>
        <time>2021-05-19T09:35:13Z</time>
      </trkpt>
      <trkpt lat="42.0450510" lon="-8.8805250">
        <ele>34.4</ele>
        <time>2021-05-19T09:35:14Z</time>
      </trkpt>
      <trkpt lat="42.0450600" lon="-8.8805230">
        <ele>34.4</ele>
        <time>2021-05-19T09:35:15Z</time>
      </trkpt>
      <trkpt lat="42.0450750" lon="-8.8805330">
        <ele>34.3</ele>
        <time>2021-05-19T09:35:16Z</time>
      </trkpt>
      <trkpt lat="42.0450800" lon="-8.8805360">
        <ele>34.3</ele>
        <time>2021-05-19T09:35:17Z</time>
      </trkpt>
      <trkpt lat="42.0450920" lon="-8.8805400">
        <ele>34.3</ele>
        <time>2021-05-19T09:35:18Z</time>
      </trkpt>
      <trkpt lat="42.0450990" lon="-8.8805480">
        <ele>34.3</ele>
        <time>2021-05-19T09:35:19Z</time>
      </trkpt>
      <trkpt lat="42.0451120" lon="-8.8805520">
        <ele>34.2</ele>
        <time>2021-05-19T09:35:20Z</time>
      </trkpt>
      <trkpt lat="42.0451300" lon="-8.8805550">
        <ele>34.2</ele>
        <time>2021-05-19T09:35:21Z</time>
      </trkpt>
      <trkpt lat="42.0451380" lon="-8.8805630">
        <ele>34.1</ele>
        <time>2021-05-19T09:35:22Z</time>
      </trkpt>
      <trkpt lat="42.0451520" lon="-8.8805640">
        <ele>34.1</ele>
        <time>2021-05-19T09:35:23Z</time>
      </trkpt>
      <trkpt lat="42.0451570" lon="-8.8805690">
        <ele>34.1</ele>
        <time>2021-05-19T09:35:24Z</time>
      </trkpt>
      <trkpt lat="42.0451670" lon="-8.8805720">
        <ele>34.0</ele>
        <time>2021-05-19T09:35:25Z</time>
      </trkpt>
      <trkpt lat="42.0451870" lon="-8.8805720">
        <ele>34.0</ele>
        <time>2021-05-19T09:35:26Z</time>
      </trkpt>
      <trkpt lat="42.0451970" lon="-8.8805800">
        <ele>33.9</ele>
        <time>2021-05-19T09:35:27Z</time>
      </trkpt>
      <trkpt lat="42.0452120" lon="-8.8805810">
        <ele>33.9</ele>
        <time>2021-05-19T09:35:28Z</time>
      </trkpt>
      <trkpt lat="42.0452220" lon="-8.8805850">
        <ele>33.9</ele>
        <time>2021-05-19T09:35:29Z</time>
      </trkpt>
      <trkpt lat="42.0452290" lon="-8.8805900">
        <ele>33.8</ele>
        <time>2021-05-19T09:35:30Z</time>
      </trkpt>
      <trkpt lat="42.0452430" lon="-8.8805950">
        <ele>33.8</ele>
        <time>2021-05-19T09:35:31Z</time>
      </trkpt>
      <trkpt lat="42.0452470" lon="-8.8805990">
        <ele>33.8</ele>
        <time>2021-05-19T09:35:32Z</time>
      </trkpt>
      <trkpt lat="42.0452580" lon="-8.8806020">
        <ele>33.7</ele>
        <time>2021-05-19T09:35:33Z</time>
      </trkpt>
      <trkpt lat="42.0452740" lon="-8.8806070">
        <ele>33.7</ele>
        <time>2021-05-19T09:35:34Z</time>
      </trkpt>
      <trkpt lat="42.0452880" lon="-8.8806050">
        <ele>33.7</ele>
        <time>2021-05-19T09:35:35Z</time>
      </trkpt>
      <trkpt lat="42.0452970" lon="-8.8806030">
        <ele>33.7</ele>
        <time>2021-05-19T09:35:36Z</time>
      </trkpt>
      <trkpt lat="42.0453150" lon="-8.8806020">
        <ele>33.6</ele>
        <time>2021-05-19T09:35:37Z</time>
      </trkpt>
      <trkpt lat="42.0453390" lon="-8.8805930">
        <ele>33.6</ele>
        <time>2021-05-19T09:35:38Z</time>
      </trkpt>
      <trkpt lat="42.0453460" lon="-8.8805890">
        <ele>33.6</ele>
        <time>2021-05-19T09:35:39Z</time>
      </trkpt>
      <trkpt lat="42.0453530" lon="-8.8805860">
        <ele>33.6</ele>
        <time>2021-05-19T09:35:40Z</time>
      </trkpt>
      <trkpt lat="42.0453610" lon="-8.8805790">
        <ele>33.6</ele>
        <time>2021-05-19T09:35:41Z</time>
      </trkpt>
      <trkpt lat="42.0453800" lon="-8.8805730">
        <ele>33.6</ele>
        <time>2021-05-19T09:35:42Z</time>
      </trkpt>
      <trkpt lat="42.0454010" lon="-8.8805560">
        <ele>33.6</ele>
        <time>2021-05-19T09:35:43Z</time>
      </trkpt>
      <trkpt lat="42.0454060" lon="-8.8805500">
        <ele>33.6</ele>
        <time>2021-05-19T09:35:44Z</time>
      </trkpt>
      <trkpt lat="42.0454120" lon="-8.8805450">
        <ele>33.6</ele>
        <time>2021-05-19T09:35:45Z</time>
      </trkpt>
      <trkpt lat="42.0454300" lon="-8.8805400">
        <ele>33.6</ele>
        <time>2021-05-19T09:35:46Z</time>
      </trkpt>
      <trkpt lat="42.0454400" lon="-8.8805380">
        <ele>33.6</ele>
        <time>2021-05-19T09:35:47Z</time>
      </trkpt>
      <trkpt lat="42.0454510" lon="-8.8805300">
        <ele>33.6</ele>
        <time>2021-05-19T09:35:48Z</time>
      </trkpt>
      <trkpt lat="42.0454520" lon="-8.8805240">
        <ele>33.6</ele>
        <time>2021-05-19T09:35:49Z</time>
      </trkpt>
      <trkpt lat="42.0454630" lon="-8.8805120">
        <ele>33.6</ele>
        <time>2021-05-19T09:35:50Z</time>
      </trkpt>
      <trkpt lat="42.0454670" lon="-8.8805050">
        <ele>33.6</ele>
        <time>2021-05-19T09:35:51Z</time>
      </trkpt>
      <trkpt lat="42.0454780" lon="-8.8804990">
        <ele>33.6</ele>
        <time>2021-05-19T09:35:52Z</time>
      </trkpt>
      <trkpt lat="42.0454910" lon="-8.8804950">
        <ele>33.6</ele>
        <time>2021-05-19T09:35:53Z</time>
      </trkpt>
      <trkpt lat="42.0455000" lon="-8.8804930">
        <ele>33.6</ele>
        <time>2021-05-19T09:35:54Z</time>
      </trkpt>
      <trkpt lat="42.0455170" lon="-8.8804840">
        <ele>33.6</ele>
        <time>2021-05-19T09:35:55Z</time>
      </trkpt>
      <trkpt lat="42.0455270" lon="-8.8804800">
        <ele>33.6</ele>
        <time>2021-05-19T09:35:56Z</time>
      </trkpt>
      <trkpt lat="42.0455420" lon="-8.8804810">
        <ele>33.6</ele>
        <time>2021-05-19T09:35:57Z</time>
      </trkpt>
      <trkpt lat="42.0455510" lon="-8.8804830">
        <ele>33.6</ele>
        <time>2021-05-19T09:35:58Z</time>
      </trkpt>
      <trkpt lat="42.0455580" lon="-8.8804910">
        <ele>33.2</ele>
        <time>2021-05-19T09:35:59Z</time>
      </trkpt>
      <trkpt lat="42.0455600" lon="-8.8804960">
        <ele>33.2</ele>
        <time>2021-05-19T09:36:00Z</time>
      </trkpt>
      <trkpt lat="42.0455670" lon="-8.8805020">
        <ele>33.1</ele>
        <time>2021-05-19T09:36:01Z</time>
      </trkpt>
      <trkpt lat="42.0455730" lon="-8.8805130">
        <ele>33.0</ele>
        <time>2021-05-19T09:36:02Z</time>
      </trkpt>
      <trkpt lat="42.0455810" lon="-8.8805200">
        <ele>33.0</ele>
        <time>2021-05-19T09:36:03Z</time>
      </trkpt>
      <trkpt lat="42.0455790" lon="-8.8805190">
        <ele>32.9</ele>
        <time>2021-05-19T09:36:04Z</time>
      </trkpt>
      <trkpt lat="42.0455760" lon="-8.8805180">
        <ele>32.9</ele>
        <time>2021-05-19T09:36:05Z</time>
      </trkpt>
      <trkpt lat="42.0455760" lon="-8.8805280">
        <ele>32.9</ele>
        <time>2021-05-19T09:36:06Z</time>
      </trkpt>
      <trkpt lat="42.0455740" lon="-8.8805410">
        <ele>32.8</ele>
        <time>2021-05-19T09:36:07Z</time>
      </trkpt>
      <trkpt lat="42.0455790" lon="-8.8805540">
        <ele>32.7</ele>
        <time>2021-05-19T09:36:08Z</time>
      </trkpt>
      <trkpt lat="42.0455830" lon="-8.8805700">
        <ele>32.6</ele>
        <time>2021-05-19T09:36:09Z</time>
      </trkpt>
      <trkpt lat="42.0455820" lon="-8.8805830">
        <ele>32.5</ele>
        <time>2021-05-19T09:36:10Z</time>
      </trkpt>
      <trkpt lat="42.0455800" lon="-8.8805950">
        <ele>32.4</ele>
        <time>2021-05-19T09:36:11Z</time>
      </trkpt>
      <trkpt lat="42.0455760" lon="-8.8806060">
        <ele>32.3</ele>
        <time>2021-05-19T09:36:12Z</time>
      </trkpt>
      <trkpt lat="42.0455750" lon="-8.8806200">
        <ele>32.2</ele>
        <time>2021-05-19T09:36:13Z</time>
      </trkpt>
      <trkpt lat="42.0455740" lon="-8.8806340">
        <ele>32.1</ele>
        <time>2021-05-19T09:36:14Z</time>
      </trkpt>
      <trkpt lat="42.0455700" lon="-8.8806520">
        <ele>32.0</ele>
        <time>2021-05-19T09:36:15Z</time>
      </trkpt>
      <trkpt lat="42.0455720" lon="-8.8806640">
        <ele>31.9</ele>
        <time>2021-05-19T09:36:16Z</time>
      </trkpt>
      <trkpt lat="42.0455700" lon="-8.8806790">
        <ele>31.9</ele>
        <time>2021-05-19T09:36:17Z</time>
      </trkpt>
      <trkpt lat="42.0455680" lon="-8.8806980">
        <ele>31.7</ele>
        <time>2021-05-19T09:36:18Z</time>
      </trkpt>
      <trkpt lat="42.0455670" lon="-8.8807090">
        <ele>31.7</ele>
        <time>2021-05-19T09:36:19Z</time>
      </trkpt>
      <trkpt lat="42.0455650" lon="-8.8807190">
        <ele>31.6</ele>
        <time>2021-05-19T09:36:20Z</time>
      </trkpt>
      <trkpt lat="42.0455640" lon="-8.8807300">
        <ele>31.5</ele>
        <time>2021-05-19T09:36:21Z</time>
      </trkpt>
      <trkpt lat="42.0455620" lon="-8.8807470">
        <ele>31.4</ele>
        <time>2021-05-19T09:36:22Z</time>
      </trkpt>
      <trkpt lat="42.0455640" lon="-8.8807620">
        <ele>31.3</ele>
        <time>2021-05-19T09:36:23Z</time>
      </trkpt>
      <trkpt lat="42.0455640" lon="-8.8807750">
        <ele>31.2</ele>
        <time>2021-05-19T09:36:24Z</time>
      </trkpt>
      <trkpt lat="42.0455630" lon="-8.8807880">
        <ele>31.2</ele>
        <time>2021-05-19T09:36:25Z</time>
      </trkpt>
      <trkpt lat="42.0455620" lon="-8.8808030">
        <ele>31.1</ele>
        <time>2021-05-19T09:36:26Z</time>
      </trkpt>
      <trkpt lat="42.0455610" lon="-8.8808130">
        <ele>31.0</ele>
        <time>2021-05-19T09:36:27Z</time>
      </trkpt>
      <trkpt lat="42.0455580" lon="-8.8808430">
        <ele>30.8</ele>
        <time>2021-05-19T09:36:28Z</time>
      </trkpt>
      <trkpt lat="42.0455580" lon="-8.8808530">
        <ele>30.8</ele>
        <time>2021-05-19T09:36:29Z</time>
      </trkpt>
      <trkpt lat="42.0455580" lon="-8.8808630">
        <ele>30.7</ele>
        <time>2021-05-19T09:36:30Z</time>
      </trkpt>
      <trkpt lat="42.0455610" lon="-8.8808760">
        <ele>30.6</ele>
        <time>2021-05-19T09:36:31Z</time>
      </trkpt>
      <trkpt lat="42.0455620" lon="-8.8808910">
        <ele>30.5</ele>
        <time>2021-05-19T09:36:32Z</time>
      </trkpt>
      <trkpt lat="42.0455640" lon="-8.8809100">
        <ele>30.4</ele>
        <time>2021-05-19T09:36:33Z</time>
      </trkpt>
      <trkpt lat="42.0455650" lon="-8.8809310">
        <ele>30.3</ele>
        <time>2021-05-19T09:36:34Z</time>
      </trkpt>
      <trkpt lat="42.0455630" lon="-8.8809390">
        <ele>30.3</ele>
        <time>2021-05-19T09:36:35Z</time>
      </trkpt>
      <trkpt lat="42.0455640" lon="-8.8809540">
        <ele>30.2</ele>
        <time>2021-05-19T09:36:36Z</time>
      </trkpt>
      <trkpt lat="42.0455610" lon="-8.8809680">
        <ele>30.1</ele>
        <time>2021-05-19T09:36:37Z</time>
      </trkpt>
      <trkpt lat="42.0455660" lon="-8.8809780">
        <ele>30.0</ele>
        <time>2021-05-19T09:36:38Z</time>
      </trkpt>
      <trkpt lat="42.0455610" lon="-8.8809940">
        <ele>29.9</ele>
        <time>2021-05-19T09:36:39Z</time>
      </trkpt>
      <trkpt lat="42.0455600" lon="-8.8810160">
        <ele>29.8</ele>
        <time>2021-05-19T09:36:40Z</time>
      </trkpt>
      <trkpt lat="42.0455620" lon="-8.8810320">
        <ele>29.7</ele>
        <time>2021-05-19T09:36:41Z</time>
      </trkpt>
      <trkpt lat="42.0455610" lon="-8.8810510">
        <ele>29.6</ele>
        <time>2021-05-19T09:36:42Z</time>
      </trkpt>
      <trkpt lat="42.0455580" lon="-8.8810730">
        <ele>29.5</ele>
        <time>2021-05-19T09:36:43Z</time>
      </trkpt>
      <trkpt lat="42.0455590" lon="-8.8810820">
        <ele>29.5</ele>
        <time>2021-05-19T09:36:44Z</time>
      </trkpt>
      <trkpt lat="42.0455600" lon="-8.8810960">
        <ele>29.4</ele>
        <time>2021-05-19T09:36:45Z</time>
      </trkpt>
      <trkpt lat="42.0455620" lon="-8.8811120">
        <ele>29.3</ele>
        <time>2021-05-19T09:36:46Z</time>
      </trkpt>
      <trkpt lat="42.0455610" lon="-8.8811370">
        <ele>29.2</ele>
        <time>2021-05-19T09:36:47Z</time>
      </trkpt>
      <trkpt lat="42.0455580" lon="-8.8811460">
        <ele>29.2</ele>
        <time>2021-05-19T09:36:48Z</time>
      </trkpt>
      <trkpt lat="42.0455560" lon="-8.8811550">
        <ele>29.1</ele>
        <time>2021-05-19T09:36:49Z</time>
      </trkpt>
      <trkpt lat="42.0455530" lon="-8.8811640">
        <ele>29.1</ele>
        <time>2021-05-19T09:36:50Z</time>
      </trkpt>
      <trkpt lat="42.0455580" lon="-8.8811750">
        <ele>29.0</ele>
        <time>2021-05-19T09:36:51Z</time>
      </trkpt>
      <trkpt lat="42.0455540" lon="-8.8811980">
        <ele>28.9</ele>
        <time>2021-05-19T09:36:52Z</time>
      </trkpt>
      <trkpt lat="42.0455580" lon="-8.8812050">
        <ele>28.9</ele>
        <time>2021-05-19T09:36:53Z</time>
      </trkpt>
      <trkpt lat="42.0455590" lon="-8.8812130">
        <ele>28.8</ele>
        <time>2021-05-19T09:36:54Z</time>
      </trkpt>
      <trkpt lat="42.0455570" lon="-8.8812270">
        <ele>28.8</ele>
        <time>2021-05-19T09:36:55Z</time>
      </trkpt>
      <trkpt lat="42.0455540" lon="-8.8812490">
        <ele>28.7</ele>
        <time>2021-05-19T09:36:56Z</time>
      </trkpt>
      <trkpt lat="42.0455520" lon="-8.8812740">
        <ele>28.6</ele>
        <time>2021-05-19T09:36:57Z</time>
      </trkpt>
      <trkpt lat="42.0455520" lon="-8.8812860">
        <ele>28.5</ele>
        <time>2021-05-19T09:36:58Z</time>
      </trkpt>
      <trkpt lat="42.0455520" lon="-8.8812970">
        <ele>28.5</ele>
        <time>2021-05-19T09:36:59Z</time>
      </trkpt>
      <trkpt lat="42.0455520" lon="-8.8813080">
        <ele>28.4</ele>
        <time>2021-05-19T09:37:00Z</time>
      </trkpt>
      <trkpt lat="42.0455570" lon="-8.8813200">
        <ele>28.4</ele>
        <time>2021-05-19T09:37:01Z</time>
      </trkpt>
      <trkpt lat="42.0455520" lon="-8.8813460">
        <ele>28.2</ele>
        <time>2021-05-19T09:37:02Z</time>
      </trkpt>
      <trkpt lat="42.0455490" lon="-8.8813580">
        <ele>28.2</ele>
        <time>2021-05-19T09:37:03Z</time>
      </trkpt>
      <trkpt lat="42.0455490" lon="-8.8813790">
        <ele>28.1</ele>
        <time>2021-05-19T09:37:04Z</time>
      </trkpt>
      <trkpt lat="42.0455530" lon="-8.8813860">
        <ele>28.1</ele>
        <time>2021-05-19T09:37:05Z</time>
      </trkpt>
      <trkpt lat="42.0455490" lon="-8.8814020">
        <ele>28.0</ele>
        <time>2021-05-19T09:37:06Z</time>
      </trkpt>
      <trkpt lat="42.0455490" lon="-8.8814230">
        <ele>27.9</ele>
        <time>2021-05-19T09:37:07Z</time>
      </trkpt>
      <trkpt lat="42.0455560" lon="-8.8814540">
        <ele>27.8</ele>
        <time>2021-05-19T09:37:08Z</time>
      </trkpt>
      <trkpt lat="42.0455590" lon="-8.8814640">
        <ele>27.7</ele>
        <time>2021-05-19T09:37:09Z</time>
      </trkpt>
      <trkpt lat="42.0455610" lon="-8.8814730">
        <ele>27.7</ele>
        <time>2021-05-19T09:37:10Z</time>
      </trkpt>
      <trkpt lat="42.0455660" lon="-8.8814860">
        <ele>27.6</ele>
        <time>2021-05-19T09:37:11Z</time>
      </trkpt>
      <trkpt lat="42.0455630" lon="-8.8815060">
        <ele>27.6</ele>
        <time>2021-05-19T09:37:12Z</time>
      </trkpt>
      <trkpt lat="42.0455630" lon="-8.8815170">
        <ele>27.5</ele>
        <time>2021-05-19T09:37:13Z</time>
      </trkpt>
      <trkpt lat="42.0455570" lon="-8.8815320">
        <ele>27.5</ele>
        <time>2021-05-19T09:37:14Z</time>
      </trkpt>
      <trkpt lat="42.0455560" lon="-8.8815470">
        <ele>27.4</ele>
        <time>2021-05-19T09:37:15Z</time>
      </trkpt>
      <trkpt lat="42.0455600" lon="-8.8815570">
        <ele>27.4</ele>
        <time>2021-05-19T09:37:16Z</time>
      </trkpt>
      <trkpt lat="42.0455580" lon="-8.8815870">
        <ele>27.2</ele>
        <time>2021-05-19T09:37:17Z</time>
      </trkpt>
      <trkpt lat="42.0455590" lon="-8.8815980">
        <ele>27.2</ele>
        <time>2021-05-19T09:37:18Z</time>
      </trkpt>
      <trkpt lat="42.0455590" lon="-8.8816100">
        <ele>27.2</ele>
        <time>2021-05-19T09:37:19Z</time>
      </trkpt>
      <trkpt lat="42.0455590" lon="-8.8816210">
        <ele>27.1</ele>
        <time>2021-05-19T09:37:20Z</time>
      </trkpt>
      <trkpt lat="42.0455580" lon="-8.8816380">
        <ele>27.1</ele>
        <time>2021-05-19T09:37:21Z</time>
      </trkpt>
      <trkpt lat="42.0455600" lon="-8.8816530">
        <ele>27.0</ele>
        <time>2021-05-19T09:37:22Z</time>
      </trkpt>
      <trkpt lat="42.0455590" lon="-8.8816730">
        <ele>26.9</ele>
        <time>2021-05-19T09:37:23Z</time>
      </trkpt>
      <trkpt lat="42.0455590" lon="-8.8816950">
        <ele>26.9</ele>
        <time>2021-05-19T09:37:24Z</time>
      </trkpt>
      <trkpt lat="42.0455590" lon="-8.8817210">
        <ele>26.8</ele>
        <time>2021-05-19T09:37:25Z</time>
      </trkpt>
      <trkpt lat="42.0455540" lon="-8.8817310">
        <ele>26.7</ele>
        <time>2021-05-19T09:37:26Z</time>
      </trkpt>
      <trkpt lat="42.0455560" lon="-8.8817610">
        <ele>26.6</ele>
        <time>2021-05-19T09:37:27Z</time>
      </trkpt>
      <trkpt lat="42.0455560" lon="-8.8817700">
        <ele>26.6</ele>
        <time>2021-05-19T09:37:28Z</time>
      </trkpt>
      <trkpt lat="42.0455560" lon="-8.8817800">
        <ele>26.6</ele>
        <time>2021-05-19T09:37:29Z</time>
      </trkpt>
      <trkpt lat="42.0455600" lon="-8.8818060">
        <ele>26.5</ele>
        <time>2021-05-19T09:37:30Z</time>
      </trkpt>
      <trkpt lat="42.0455620" lon="-8.8818180">
        <ele>26.4</ele>
        <time>2021-05-19T09:37:31Z</time>
      </trkpt>
      <trkpt lat="42.0455640" lon="-8.8818290">
        <ele>26.4</ele>
        <time>2021-05-19T09:37:32Z</time>
      </trkpt>
      <trkpt lat="42.0455640" lon="-8.8818440">
        <ele>26.4</ele>
        <time>2021-05-19T09:37:33Z</time>
      </trkpt>
      <trkpt lat="42.0455610" lon="-8.8818620">
        <ele>26.3</ele>
        <time>2021-05-19T09:37:34Z</time>
      </trkpt>
      <trkpt lat="42.0455600" lon="-8.8818770">
        <ele>26.2</ele>
        <time>2021-05-19T09:37:35Z</time>
      </trkpt>
      <trkpt lat="42.0455590" lon="-8.8818930">
        <ele>26.2</ele>
        <time>2021-05-19T09:37:36Z</time>
      </trkpt>
      <trkpt lat="42.0455580" lon="-8.8819060">
        <ele>26.1</ele>
        <time>2021-05-19T09:37:37Z</time>
      </trkpt>
      <trkpt lat="42.0455590" lon="-8.8819170">
        <ele>26.1</ele>
        <time>2021-05-19T09:37:38Z</time>
      </trkpt>
      <trkpt lat="42.0455570" lon="-8.8819480">
        <ele>26.0</ele>
        <time>2021-05-19T09:37:39Z</time>
      </trkpt>
      <trkpt lat="42.0455580" lon="-8.8819580">
        <ele>26.0</ele>
        <time>2021-05-19T09:37:40Z</time>
      </trkpt>
      <trkpt lat="42.0455580" lon="-8.8819690">
        <ele>25.9</ele>
        <time>2021-05-19T09:37:41Z</time>
      </trkpt>
      <trkpt lat="42.0455670" lon="-8.8819780">
        <ele>25.9</ele>
        <time>2021-05-19T09:37:42Z</time>
      </trkpt>
      <trkpt lat="42.0455630" lon="-8.8819920">
        <ele>25.9</ele>
        <time>2021-05-19T09:37:43Z</time>
      </trkpt>
      <trkpt lat="42.0455660" lon="-8.8820140">
        <ele>25.8</ele>
        <time>2021-05-19T09:37:44Z</time>
      </trkpt>
      <trkpt lat="42.0455650" lon="-8.8820210">
        <ele>25.8</ele>
        <time>2021-05-19T09:37:45Z</time>
      </trkpt>
      <trkpt lat="42.0455650" lon="-8.8820440">
        <ele>25.7</ele>
        <time>2021-05-19T09:37:46Z</time>
      </trkpt>
      <trkpt lat="42.0455680" lon="-8.8820630">
        <ele>25.6</ele>
        <time>2021-05-19T09:37:47Z</time>
      </trkpt>
      <trkpt lat="42.0455690" lon="-8.8820780">
        <ele>25.6</ele>
        <time>2021-05-19T09:37:48Z</time>
      </trkpt>
      <trkpt lat="42.0455700" lon="-8.8820930">
        <ele>25.5</ele>
        <time>2021-05-19T09:37:49Z</time>
      </trkpt>
      <trkpt lat="42.0455720" lon="-8.8821050">
        <ele>25.5</ele>
        <time>2021-05-19T09:37:50Z</time>
      </trkpt>
      <trkpt lat="42.0455740" lon="-8.8821240">
        <ele>25.5</ele>
        <time>2021-05-19T09:37:51Z</time>
      </trkpt>
      <trkpt lat="42.0455770" lon="-8.8821440">
        <ele>25.4</ele>
        <time>2021-05-19T09:37:52Z</time>
      </trkpt>
      <trkpt lat="42.0455780" lon="-8.8821660">
        <ele>25.3</ele>
        <time>2021-05-19T09:37:53Z</time>
      </trkpt>
      <trkpt lat="42.0455810" lon="-8.8821870">
        <ele>25.3</ele>
        <time>2021-05-19T09:37:54Z</time>
      </trkpt>
      <trkpt lat="42.0455810" lon="-8.8822120">
        <ele>25.2</ele>
        <time>2021-05-19T09:37:55Z</time>
      </trkpt>
      <trkpt lat="42.0455780" lon="-8.8822280">
        <ele>25.1</ele>
        <time>2021-05-19T09:37:56Z</time>
      </trkpt>
      <trkpt lat="42.0455750" lon="-8.8822450">
        <ele>25.1</ele>
        <time>2021-05-19T09:37:57Z</time>
      </trkpt>
      <trkpt lat="42.0455760" lon="-8.8822610">
        <ele>25.0</ele>
        <time>2021-05-19T09:37:58Z</time>
      </trkpt>
      <trkpt lat="42.0455800" lon="-8.8822710">
        <ele>25.0</ele>
        <time>2021-05-19T09:37:59Z</time>
      </trkpt>
      <trkpt lat="42.0455870" lon="-8.8822910">
        <ele>24.9</ele>
        <time>2021-05-19T09:38:00Z</time>
      </trkpt>
      <trkpt lat="42.0455900" lon="-8.8823110">
        <ele>24.9</ele>
        <time>2021-05-19T09:38:01Z</time>
      </trkpt>
      <trkpt lat="42.0455950" lon="-8.8823260">
        <ele>24.8</ele>
        <time>2021-05-19T09:38:02Z</time>
      </trkpt>
      <trkpt lat="42.0455970" lon="-8.8823350">
        <ele>24.8</ele>
        <time>2021-05-19T09:38:03Z</time>
      </trkpt>
      <trkpt lat="42.0455990" lon="-8.8823590">
        <ele>24.7</ele>
        <time>2021-05-19T09:38:04Z</time>
      </trkpt>
      <trkpt lat="42.0456010" lon="-8.8823680">
        <ele>24.7</ele>
        <time>2021-05-19T09:38:05Z</time>
      </trkpt>
      <trkpt lat="42.0456040" lon="-8.8823810">
        <ele>24.7</ele>
        <time>2021-05-19T09:38:06Z</time>
      </trkpt>
      <trkpt lat="42.0456020" lon="-8.8823970">
        <ele>24.6</ele>
        <time>2021-05-19T09:38:07Z</time>
      </trkpt>
      <trkpt lat="42.0456120" lon="-8.8824140">
        <ele>24.5</ele>
        <time>2021-05-19T09:38:08Z</time>
      </trkpt>
      <trkpt lat="42.0456210" lon="-8.8824410">
        <ele>24.4</ele>
        <time>2021-05-19T09:38:09Z</time>
      </trkpt>
      <trkpt lat="42.0456220" lon="-8.8824600">
        <ele>24.3</ele>
        <time>2021-05-19T09:38:10Z</time>
      </trkpt>
      <trkpt lat="42.0456300" lon="-8.8824790">
        <ele>24.2</ele>
        <time>2021-05-19T09:38:11Z</time>
      </trkpt>
      <trkpt lat="42.0456330" lon="-8.8824950">
        <ele>24.1</ele>
        <time>2021-05-19T09:38:12Z</time>
      </trkpt>
      <trkpt lat="42.0456380" lon="-8.8825030">
        <ele>24.1</ele>
        <time>2021-05-19T09:38:13Z</time>
      </trkpt>
      <trkpt lat="42.0456440" lon="-8.8825100">
        <ele>24.1</ele>
        <time>2021-05-19T09:38:14Z</time>
      </trkpt>
      <trkpt lat="42.0456390" lon="-8.8825240">
        <ele>24.0</ele>
        <time>2021-05-19T09:38:15Z</time>
      </trkpt>
      <trkpt lat="42.0456420" lon="-8.8825410">
        <ele>23.9</ele>
        <time>2021-05-19T09:38:16Z</time>
      </trkpt>
      <trkpt lat="42.0456490" lon="-8.8825690">
        <ele>23.8</ele>
        <time>2021-05-19T09:38:17Z</time>
      </trkpt>
      <trkpt lat="42.0456530" lon="-8.8825810">
        <ele>23.7</ele>
        <time>2021-05-19T09:38:18Z</time>
      </trkpt>
      <trkpt lat="42.0456560" lon="-8.8825920">
        <ele>23.7</ele>
        <time>2021-05-19T09:38:19Z</time>
      </trkpt>
      <trkpt lat="42.0456580" lon="-8.8826020">
        <ele>23.7</ele>
        <time>2021-05-19T09:38:20Z</time>
      </trkpt>
      <trkpt lat="42.0456700" lon="-8.8826140">
        <ele>23.6</ele>
        <time>2021-05-19T09:38:21Z</time>
      </trkpt>
      <trkpt lat="42.0456710" lon="-8.8826290">
        <ele>23.5</ele>
        <time>2021-05-19T09:38:22Z</time>
      </trkpt>
      <trkpt lat="42.0456810" lon="-8.8826580">
        <ele>23.4</ele>
        <time>2021-05-19T09:38:23Z</time>
      </trkpt>
      <trkpt lat="42.0456840" lon="-8.8826660">
        <ele>23.3</ele>
        <time>2021-05-19T09:38:24Z</time>
      </trkpt>
      <trkpt lat="42.0456870" lon="-8.8826750">
        <ele>23.3</ele>
        <time>2021-05-19T09:38:25Z</time>
      </trkpt>
      <trkpt lat="42.0456920" lon="-8.8826850">
        <ele>23.2</ele>
        <time>2021-05-19T09:38:26Z</time>
      </trkpt>
      <trkpt lat="42.0456910" lon="-8.8827000">
        <ele>23.2</ele>
        <time>2021-05-19T09:38:27Z</time>
      </trkpt>
      <trkpt lat="42.0456980" lon="-8.8827150">
        <ele>23.1</ele>
        <time>2021-05-19T09:38:28Z</time>
      </trkpt>
      <trkpt lat="42.0457050" lon="-8.8827240">
        <ele>23.0</ele>
        <time>2021-05-19T09:38:29Z</time>
      </trkpt>
      <trkpt lat="42.0457110" lon="-8.8827360">
        <ele>22.9</ele>
        <time>2021-05-19T09:38:30Z</time>
      </trkpt>
      <trkpt lat="42.0457120" lon="-8.8827450">
        <ele>22.9</ele>
        <time>2021-05-19T09:38:31Z</time>
      </trkpt>
      <trkpt lat="42.0457150" lon="-8.8827530">
        <ele>22.9</ele>
        <time>2021-05-19T09:38:32Z</time>
      </trkpt>
      <trkpt lat="42.0457170" lon="-8.8827780">
        <ele>22.7</ele>
        <time>2021-05-19T09:38:33Z</time>
      </trkpt>
      <trkpt lat="42.0457190" lon="-8.8827900">
        <ele>22.7</ele>
        <time>2021-05-19T09:38:34Z</time>
      </trkpt>
      <trkpt lat="42.0457210" lon="-8.8828020">
        <ele>22.6</ele>
        <time>2021-05-19T09:38:35Z</time>
      </trkpt>
      <trkpt lat="42.0457200" lon="-8.8828090">
        <ele>22.6</ele>
        <time>2021-05-19T09:38:36Z</time>
      </trkpt>
      <trkpt lat="42.0457290" lon="-8.8828230">
        <ele>22.5</ele>
        <time>2021-05-19T09:38:37Z</time>
      </trkpt>
      <trkpt lat="42.0457340" lon="-8.8828460">
        <ele>22.3</ele>
        <time>2021-05-19T09:38:38Z</time>
      </trkpt>
      <trkpt lat="42.0457320" lon="-8.8828600">
        <ele>22.3</ele>
        <time>2021-05-19T09:38:39Z</time>
      </trkpt>
      <trkpt lat="42.0457340" lon="-8.8828750">
        <ele>22.2</ele>
        <time>2021-05-19T09:38:40Z</time>
      </trkpt>
      <trkpt lat="42.0457320" lon="-8.8828890">
        <ele>22.1</ele>
        <time>2021-05-19T09:38:41Z</time>
      </trkpt>
      <trkpt lat="42.0457370" lon="-8.8829080">
        <ele>22.0</ele>
        <time>2021-05-19T09:38:42Z</time>
      </trkpt>
      <trkpt lat="42.0457400" lon="-8.8829240">
        <ele>21.9</ele>
        <time>2021-05-19T09:38:43Z</time>
      </trkpt>
      <trkpt lat="42.0457400" lon="-8.8829480">
        <ele>21.7</ele>
        <time>2021-05-19T09:38:44Z</time>
      </trkpt>
      <trkpt lat="42.0457380" lon="-8.8829600">
        <ele>21.7</ele>
        <time>2021-05-19T09:38:45Z</time>
      </trkpt>
      <trkpt lat="42.0457370" lon="-8.8829710">
        <ele>21.6</ele>
        <time>2021-05-19T09:38:46Z</time>
      </trkpt>
      <trkpt lat="42.0457350" lon="-8.8829830">
        <ele>21.5</ele>
        <time>2021-05-19T09:38:47Z</time>
      </trkpt>
      <trkpt lat="42.0457320" lon="-8.8830100">
        <ele>21.4</ele>
        <time>2021-05-19T09:38:48Z</time>
      </trkpt>
      <trkpt lat="42.0457320" lon="-8.8830210">
        <ele>21.3</ele>
        <time>2021-05-19T09:38:49Z</time>
      </trkpt>
      <trkpt lat="42.0457330" lon="-8.8830330">
        <ele>21.2</ele>
        <time>2021-05-19T09:38:50Z</time>
      </trkpt>
      <trkpt lat="42.0457330" lon="-8.8830530">
        <ele>21.1</ele>
        <time>2021-05-19T09:38:51Z</time>
      </trkpt>
      <trkpt lat="42.0457330" lon="-8.8830660">
        <ele>21.0</ele>
        <time>2021-05-19T09:38:52Z</time>
      </trkpt>
      <trkpt lat="42.0457330" lon="-8.8830750">
        <ele>21.0</ele>
        <time>2021-05-19T09:38:53Z</time>
      </trkpt>
      <trkpt lat="42.0457350" lon="-8.8830930">
        <ele>20.8</ele>
        <time>2021-05-19T09:38:54Z</time>
      </trkpt>
      <trkpt lat="42.0457390" lon="-8.8830950">
        <ele>20.8</ele>
        <time>2021-05-19T09:38:55Z</time>
      </trkpt>
      <trkpt lat="42.0457440" lon="-8.8831180">
        <ele>20.7</ele>
        <time>2021-05-19T09:38:56Z</time>
      </trkpt>
      <trkpt lat="42.0457560" lon="-8.8831310">
        <ele>20.5</ele>
        <time>2021-05-19T09:38:57Z</time>
      </trkpt>
      <trkpt lat="42.0457620" lon="-8.8831370">
        <ele>19.7</ele>
        <time>2021-05-19T09:38:58Z</time>
      </trkpt>
      <trkpt lat="42.0457680" lon="-8.8831430">
        <ele>19.7</ele>
        <time>2021-05-19T09:38:59Z</time>
      </trkpt>
      <trkpt lat="42.0457740" lon="-8.8831490">
        <ele>19.6</ele>
        <time>2021-05-19T09:39:00Z</time>
      </trkpt>
      <trkpt lat="42.0457860" lon="-8.8831560">
        <ele>19.4</ele>
        <time>2021-05-19T09:39:01Z</time>
      </trkpt>
      <trkpt lat="42.0457840" lon="-8.8831600">
        <ele>19.4</ele>
        <time>2021-05-19T09:39:02Z</time>
      </trkpt>
      <trkpt lat="42.0457980" lon="-8.8831710">
        <ele>19.2</ele>
        <time>2021-05-19T09:39:03Z</time>
      </trkpt>
      <trkpt lat="42.0458230" lon="-8.8831810">
        <ele>18.9</ele>
        <time>2021-05-19T09:39:04Z</time>
      </trkpt>
      <trkpt lat="42.0458300" lon="-8.8831840">
        <ele>18.9</ele>
        <time>2021-05-19T09:39:05Z</time>
      </trkpt>
      <trkpt lat="42.0458370" lon="-8.8831880">
        <ele>18.8</ele>
        <time>2021-05-19T09:39:06Z</time>
      </trkpt>
      <trkpt lat="42.0458450" lon="-8.8831970">
        <ele>18.7</ele>
        <time>2021-05-19T09:39:07Z</time>
      </trkpt>
      <trkpt lat="42.0458550" lon="-8.8832010">
        <ele>18.6</ele>
        <time>2021-05-19T09:39:08Z</time>
      </trkpt>
      <trkpt lat="42.0458640" lon="-8.8832040">
        <ele>18.5</ele>
        <time>2021-05-19T09:39:09Z</time>
      </trkpt>
      <trkpt lat="42.0458750" lon="-8.8832060">
        <ele>18.4</ele>
        <time>2021-05-19T09:39:10Z</time>
      </trkpt>
      <trkpt lat="42.0458910" lon="-8.8832200">
        <ele>18.2</ele>
        <time>2021-05-19T09:39:11Z</time>
      </trkpt>
      <trkpt lat="42.0459000" lon="-8.8832200">
        <ele>18.1</ele>
        <time>2021-05-19T09:39:12Z</time>
      </trkpt>
      <trkpt lat="42.0459120" lon="-8.8832260">
        <ele>18.0</ele>
        <time>2021-05-19T09:39:13Z</time>
      </trkpt>
      <trkpt lat="42.0459270" lon="-8.8832270">
        <ele>17.8</ele>
        <time>2021-05-19T09:39:14Z</time>
      </trkpt>
      <trkpt lat="42.0459440" lon="-8.8832300">
        <ele>17.6</ele>
        <time>2021-05-19T09:39:15Z</time>
      </trkpt>
      <trkpt lat="42.0459590" lon="-8.8832300">
        <ele>17.5</ele>
        <time>2021-05-19T09:39:16Z</time>
      </trkpt>
      <trkpt lat="42.0459750" lon="-8.8832200">
        <ele>17.3</ele>
        <time>2021-05-19T09:39:17Z</time>
      </trkpt>
      <trkpt lat="42.0459910" lon="-8.8832210">
        <ele>17.1</ele>
        <time>2021-05-19T09:39:18Z</time>
      </trkpt>
      <trkpt lat="42.0460180" lon="-8.8832260">
        <ele>16.9</ele>
        <time>2021-05-19T09:39:19Z</time>
      </trkpt>
      <trkpt lat="42.0460280" lon="-8.8832280">
        <ele>16.8</ele>
        <time>2021-05-19T09:39:20Z</time>
      </trkpt>
      <trkpt lat="42.0460510" lon="-8.8832330">
        <ele>16.5</ele>
        <time>2021-05-19T09:39:21Z</time>
      </trkpt>
      <trkpt lat="42.0460590" lon="-8.8832340">
        <ele>16.5</ele>
        <time>2021-05-19T09:39:22Z</time>
      </trkpt>
      <trkpt lat="42.0460660" lon="-8.8832360">
        <ele>16.4</ele>
        <time>2021-05-19T09:39:23Z</time>
      </trkpt>
      <trkpt lat="42.0460760" lon="-8.8832390">
        <ele>16.3</ele>
        <time>2021-05-19T09:39:24Z</time>
      </trkpt>
      <trkpt lat="42.0460920" lon="-8.8832460">
        <ele>16.1</ele>
        <time>2021-05-19T09:39:25Z</time>
      </trkpt>
      <trkpt lat="42.0461000" lon="-8.8832510">
        <ele>16.0</ele>
        <time>2021-05-19T09:39:26Z</time>
      </trkpt>
      <trkpt lat="42.0461130" lon="-8.8832560">
        <ele>15.9</ele>
        <time>2021-05-19T09:39:27Z</time>
      </trkpt>
      <trkpt lat="42.0461210" lon="-8.8832580">
        <ele>15.8</ele>
        <time>2021-05-19T09:39:28Z</time>
      </trkpt>
      <trkpt lat="42.0461290" lon="-8.8832560">
        <ele>15.8</ele>
        <time>2021-05-19T09:39:29Z</time>
      </trkpt>
      <trkpt lat="42.0461390" lon="-8.8832580">
        <ele>15.7</ele>
        <time>2021-05-19T09:39:30Z</time>
      </trkpt>
      <trkpt lat="42.0461480" lon="-8.8832580">
        <ele>15.6</ele>
        <time>2021-05-19T09:39:31Z</time>
      </trkpt>
      <trkpt lat="42.0461600" lon="-8.8832580">
        <ele>15.5</ele>
        <time>2021-05-19T09:39:32Z</time>
      </trkpt>
      <trkpt lat="42.0461670" lon="-8.8832560">
        <ele>15.4</ele>
        <time>2021-05-19T09:39:33Z</time>
      </trkpt>
      <trkpt lat="42.0461930" lon="-8.8832520">
        <ele>15.2</ele>
        <time>2021-05-19T09:39:34Z</time>
      </trkpt>
      <trkpt lat="42.0462040" lon="-8.8832450">
        <ele>15.1</ele>
        <time>2021-05-19T09:39:35Z</time>
      </trkpt>
      <trkpt lat="42.0462100" lon="-8.8832450">
        <ele>15.1</ele>
        <time>2021-05-19T09:39:36Z</time>
      </trkpt>
      <trkpt lat="42.0462070" lon="-8.8832450">
        <ele>15.0</ele>
        <time>2021-05-19T09:39:37Z</time>
      </trkpt>
      <trkpt lat="42.0462050" lon="-8.8832480">
        <ele>15.0</ele>
        <time>2021-05-19T09:39:38Z</time>
      </trkpt>
      <trkpt lat="42.0462090" lon="-8.8832470">
        <ele>15.0</ele>
        <time>2021-05-19T09:39:39Z</time>
      </trkpt>
      <trkpt lat="42.0462240" lon="-8.8832410">
        <ele>14.8</ele>
        <time>2021-05-19T09:39:40Z</time>
      </trkpt>
      <trkpt lat="42.0462440" lon="-8.8832380">
        <ele>14.7</ele>
        <time>2021-05-19T09:39:41Z</time>
      </trkpt>
      <trkpt lat="42.0462440" lon="-8.8832380">
        <ele>14.7</ele>
        <time>2021-05-19T09:39:42Z</time>
      </trkpt>
      <trkpt lat="42.0462560" lon="-8.8832380">
        <ele>14.6</ele>
        <time>2021-05-19T09:39:43Z</time>
      </trkpt>
      <trkpt lat="42.0462690" lon="-8.8832380">
        <ele>14.5</ele>
        <time>2021-05-19T09:39:44Z</time>
      </trkpt>
      <trkpt lat="42.0462780" lon="-8.8832360">
        <ele>14.4</ele>
        <time>2021-05-19T09:39:45Z</time>
      </trkpt>
      <trkpt lat="42.0462880" lon="-8.8832320">
        <ele>14.3</ele>
        <time>2021-05-19T09:39:46Z</time>
      </trkpt>
      <trkpt lat="42.0462930" lon="-8.8832310">
        <ele>14.3</ele>
        <time>2021-05-19T09:39:47Z</time>
      </trkpt>
      <trkpt lat="42.0463120" lon="-8.8832280">
        <ele>14.1</ele>
        <time>2021-05-19T09:39:48Z</time>
      </trkpt>
      <trkpt lat="42.0463220" lon="-8.8832240">
        <ele>14.0</ele>
        <time>2021-05-19T09:39:49Z</time>
      </trkpt>
      <trkpt lat="42.0463420" lon="-8.8832210">
        <ele>13.9</ele>
        <time>2021-05-19T09:39:50Z</time>
      </trkpt>
      <trkpt lat="42.0463510" lon="-8.8832210">
        <ele>13.8</ele>
        <time>2021-05-19T09:39:51Z</time>
      </trkpt>
      <trkpt lat="42.0463590" lon="-8.8832210">
        <ele>13.8</ele>
        <time>2021-05-19T09:39:52Z</time>
      </trkpt>
      <trkpt lat="42.0463800" lon="-8.8832180">
        <ele>13.6</ele>
        <time>2021-05-19T09:39:53Z</time>
      </trkpt>
      <trkpt lat="42.0463880" lon="-8.8832160">
        <ele>13.5</ele>
        <time>2021-05-19T09:39:54Z</time>
      </trkpt>
      <trkpt lat="42.0463970" lon="-8.8832150">
        <ele>13.5</ele>
        <time>2021-05-19T09:39:55Z</time>
      </trkpt>
      <trkpt lat="42.0464170" lon="-8.8832140">
        <ele>13.3</ele>
        <time>2021-05-19T09:39:56Z</time>
      </trkpt>
      <trkpt lat="42.0464240" lon="-8.8832160">
        <ele>13.3</ele>
        <time>2021-05-19T09:39:57Z</time>
      </trkpt>
      <trkpt lat="42.0464320" lon="-8.8832190">
        <ele>13.2</ele>
        <time>2021-05-19T09:39:58Z</time>
      </trkpt>
      <trkpt lat="42.0464390" lon="-8.8832220">
        <ele>13.2</ele>
        <time>2021-05-19T09:39:59Z</time>
      </trkpt>
      <trkpt lat="42.0464480" lon="-8.8832190">
        <ele>13.1</ele>
        <time>2021-05-19T09:40:00Z</time>
      </trkpt>
      <trkpt lat="42.0464560" lon="-8.8832250">
        <ele>13.1</ele>
        <time>2021-05-19T09:40:01Z</time>
      </trkpt>
      <trkpt lat="42.0464690" lon="-8.8832290">
        <ele>13.0</ele>
        <time>2021-05-19T09:40:02Z</time>
      </trkpt>
      <trkpt lat="42.0464790" lon="-8.8832340">
        <ele>12.9</ele>
        <time>2021-05-19T09:40:03Z</time>
      </trkpt>
      <trkpt lat="42.0464990" lon="-8.8832350">
        <ele>12.8</ele>
        <time>2021-05-19T09:40:04Z</time>
      </trkpt>
      <trkpt lat="42.0465120" lon="-8.8832390">
        <ele>12.7</ele>
        <time>2021-05-19T09:40:05Z</time>
      </trkpt>
      <trkpt lat="42.0465230" lon="-8.8832360">
        <ele>12.6</ele>
        <time>2021-05-19T09:40:06Z</time>
      </trkpt>
      <trkpt lat="42.0465330" lon="-8.8832380">
        <ele>12.6</ele>
        <time>2021-05-19T09:40:07Z</time>
      </trkpt>
      <trkpt lat="42.0465490" lon="-8.8832380">
        <ele>12.4</ele>
        <time>2021-05-19T09:40:08Z</time>
      </trkpt>
      <trkpt lat="42.0465620" lon="-8.8832420">
        <ele>12.4</ele>
        <time>2021-05-19T09:40:09Z</time>
      </trkpt>
      <trkpt lat="42.0465870" lon="-8.8832410">
        <ele>12.2</ele>
        <time>2021-05-19T09:40:10Z</time>
      </trkpt>
      <trkpt lat="42.0465940" lon="-8.8832410">
        <ele>12.2</ele>
        <time>2021-05-19T09:40:11Z</time>
      </trkpt>
      <trkpt lat="42.0466010" lon="-8.8832410">
        <ele>12.2</ele>
        <time>2021-05-19T09:40:12Z</time>
      </trkpt>
      <trkpt lat="42.0466140" lon="-8.8832410">
        <ele>12.1</ele>
        <time>2021-05-19T09:40:13Z</time>
      </trkpt>
      <trkpt lat="42.0466110" lon="-8.8832510">
        <ele>12.1</ele>
        <time>2021-05-19T09:40:14Z</time>
      </trkpt>
      <trkpt lat="42.0466150" lon="-8.8832570">
        <ele>12.0</ele>
        <time>2021-05-19T09:40:15Z</time>
      </trkpt>
      <trkpt lat="42.0466110" lon="-8.8832630">
        <ele>12.0</ele>
        <time>2021-05-19T09:40:16Z</time>
      </trkpt>
      <trkpt lat="42.0466000" lon="-8.8832610">
        <ele>11.9</ele>
        <time>2021-05-19T09:40:17Z</time>
      </trkpt>
      <trkpt lat="42.0465990" lon="-8.8832650">
        <ele>11.9</ele>
        <time>2021-05-19T09:40:18Z</time>
      </trkpt>
      <trkpt lat="42.0465960" lon="-8.8832640">
        <ele>11.9</ele>
        <time>2021-05-19T09:40:19Z</time>
      </trkpt>
      <trkpt lat="42.0465920" lon="-8.8832680">
        <ele>11.9</ele>
        <time>2021-05-19T09:40:20Z</time>
      </trkpt>
      <trkpt lat="42.0465920" lon="-8.8832750">
        <ele>11.9</ele>
        <time>2021-05-19T09:40:21Z</time>
      </trkpt>
      <trkpt lat="42.0465900" lon="-8.8832770">
        <ele>11.9</ele>
        <time>2021-05-19T09:40:22Z</time>
      </trkpt>
      <trkpt lat="42.0465920" lon="-8.8832760">
        <ele>11.8</ele>
        <time>2021-05-19T09:40:23Z</time>
      </trkpt>
      <trkpt lat="42.0465950" lon="-8.8832760">
        <ele>11.8</ele>
        <time>2021-05-19T09:40:24Z</time>
      </trkpt>
      <trkpt lat="42.0465970" lon="-8.8832750">
        <ele>11.8</ele>
        <time>2021-05-19T09:40:25Z</time>
      </trkpt>
      <trkpt lat="42.0466000" lon="-8.8832740">
        <ele>11.8</ele>
        <time>2021-05-19T09:40:26Z</time>
      </trkpt>
      <trkpt lat="42.0466020" lon="-8.8832740">
        <ele>11.8</ele>
        <time>2021-05-19T09:40:27Z</time>
      </trkpt>
      <trkpt lat="42.0466050" lon="-8.8832730">
        <ele>11.8</ele>
        <time>2021-05-19T09:40:28Z</time>
      </trkpt>
      <trkpt lat="42.0466070" lon="-8.8832720">
        <ele>11.8</ele>
        <time>2021-05-19T09:40:29Z</time>
      </trkpt>
      <trkpt lat="42.0466100" lon="-8.8832720">
        <ele>11.8</ele>
        <time>2021-05-19T09:40:30Z</time>
      </trkpt>
      <trkpt lat="42.0466120" lon="-8.8832710">
        <ele>11.7</ele>
        <time>2021-05-19T09:40:31Z</time>
      </trkpt>
      <trkpt lat="42.0466140" lon="-8.8832700">
        <ele>11.7</ele>
        <time>2021-05-19T09:40:32Z</time>
      </trkpt>
      <trkpt lat="42.0466170" lon="-8.8832690">
        <ele>11.7</ele>
        <time>2021-05-19T09:40:33Z</time>
      </trkpt>
      <trkpt lat="42.0466190" lon="-8.8832690">
        <ele>11.7</ele>
        <time>2021-05-19T09:40:34Z</time>
      </trkpt>
      <trkpt lat="42.0466220" lon="-8.8832680">
        <ele>11.7</ele>
        <time>2021-05-19T09:40:35Z</time>
      </trkpt>
      <trkpt lat="42.0466240" lon="-8.8832670">
        <ele>11.7</ele>
        <time>2021-05-19T09:40:36Z</time>
      </trkpt>
      <trkpt lat="42.0466270" lon="-8.8832670">
        <ele>11.7</ele>
        <time>2021-05-19T09:40:37Z</time>
      </trkpt>
      <trkpt lat="42.0466290" lon="-8.8832660">
        <ele>11.7</ele>
        <time>2021-05-19T09:40:38Z</time>
      </trkpt>
      <trkpt lat="42.0466510" lon="-8.8832550">
        <ele>11.6</ele>
        <time>2021-05-19T09:40:39Z</time>
      </trkpt>
      <trkpt lat="42.0466590" lon="-8.8832500">
        <ele>11.5</ele>
        <time>2021-05-19T09:40:40Z</time>
      </trkpt>
      <trkpt lat="42.0466670" lon="-8.8832450">
        <ele>11.5</ele>
        <time>2021-05-19T09:40:41Z</time>
      </trkpt>
      <trkpt lat="42.0466850" lon="-8.8832470">
        <ele>11.4</ele>
        <time>2021-05-19T09:40:42Z</time>
      </trkpt>
      <trkpt lat="42.0467000" lon="-8.8832390">
        <ele>11.4</ele>
        <time>2021-05-19T09:40:43Z</time>
      </trkpt>
      <trkpt lat="42.0467050" lon="-8.8832390">
        <ele>11.3</ele>
        <time>2021-05-19T09:40:44Z</time>
      </trkpt>
      <trkpt lat="42.0467150" lon="-8.8832370">
        <ele>11.3</ele>
        <time>2021-05-19T09:40:45Z</time>
      </trkpt>
      <trkpt lat="42.0467270" lon="-8.8832330">
        <ele>11.3</ele>
        <time>2021-05-19T09:40:46Z</time>
      </trkpt>
      <trkpt lat="42.0467470" lon="-8.8832350">
        <ele>11.2</ele>
        <time>2021-05-19T09:40:47Z</time>
      </trkpt>
      <trkpt lat="42.0467570" lon="-8.8832310">
        <ele>11.1</ele>
        <time>2021-05-19T09:40:48Z</time>
      </trkpt>
      <trkpt lat="42.0467760" lon="-8.8832290">
        <ele>11.1</ele>
        <time>2021-05-19T09:40:49Z</time>
      </trkpt>
      <trkpt lat="42.0467870" lon="-8.8832310">
        <ele>11.0</ele>
        <time>2021-05-19T09:40:50Z</time>
      </trkpt>
      <trkpt lat="42.0468000" lon="-8.8832250">
        <ele>11.0</ele>
        <time>2021-05-19T09:40:51Z</time>
      </trkpt>
      <trkpt lat="42.0468130" lon="-8.8832200">
        <ele>10.9</ele>
        <time>2021-05-19T09:40:52Z</time>
      </trkpt>
      <trkpt lat="42.0468310" lon="-8.8832190">
        <ele>10.9</ele>
        <time>2021-05-19T09:40:53Z</time>
      </trkpt>
      <trkpt lat="42.0468410" lon="-8.8832170">
        <ele>10.8</ele>
        <time>2021-05-19T09:40:54Z</time>
      </trkpt>
      <trkpt lat="42.0468700" lon="-8.8832100">
        <ele>10.7</ele>
        <time>2021-05-19T09:40:55Z</time>
      </trkpt>
      <trkpt lat="42.0468780" lon="-8.8832080">
        <ele>10.7</ele>
        <time>2021-05-19T09:40:56Z</time>
      </trkpt>
      <trkpt lat="42.0468950" lon="-8.8832030">
        <ele>10.7</ele>
        <time>2021-05-19T09:40:57Z</time>
      </trkpt>
      <trkpt lat="42.0469080" lon="-8.8832040">
        <ele>10.6</ele>
        <time>2021-05-19T09:40:58Z</time>
      </trkpt>
      <trkpt lat="42.0469210" lon="-8.8831970">
        <ele>10.6</ele>
        <time>2021-05-19T09:40:59Z</time>
      </trkpt>
      <trkpt lat="42.0469350" lon="-8.8831910">
        <ele>10.5</ele>
        <time>2021-05-19T09:41:00Z</time>
      </trkpt>
      <trkpt lat="42.0469440" lon="-8.8831900">
        <ele>10.5</ele>
        <time>2021-05-19T09:41:01Z</time>
      </trkpt>
      <trkpt lat="42.0469520" lon="-8.8831880">
        <ele>10.5</ele>
        <time>2021-05-19T09:41:02Z</time>
      </trkpt>
      <trkpt lat="42.0469690" lon="-8.8831860">
        <ele>10.4</ele>
        <time>2021-05-19T09:41:03Z</time>
      </trkpt>
      <trkpt lat="42.0469880" lon="-8.8831780">
        <ele>10.4</ele>
        <time>2021-05-19T09:41:04Z</time>
      </trkpt>
      <trkpt lat="42.0469970" lon="-8.8831750">
        <ele>10.4</ele>
        <time>2021-05-19T09:41:05Z</time>
      </trkpt>
      <trkpt lat="42.0470070" lon="-8.8831720">
        <ele>10.3</ele>
        <time>2021-05-19T09:41:06Z</time>
      </trkpt>
      <trkpt lat="42.0470190" lon="-8.8831760">
        <ele>10.3</ele>
        <time>2021-05-19T09:41:07Z</time>
      </trkpt>
      <trkpt lat="42.0470300" lon="-8.8831750">
        <ele>10.3</ele>
        <time>2021-05-19T09:41:08Z</time>
      </trkpt>
      <trkpt lat="42.0470420" lon="-8.8831750">
        <ele>10.2</ele>
        <time>2021-05-19T09:41:09Z</time>
      </trkpt>
      <trkpt lat="42.0470520" lon="-8.8831740">
        <ele>10.2</ele>
        <time>2021-05-19T09:41:10Z</time>
      </trkpt>
      <trkpt lat="42.0470590" lon="-8.8831810">
        <ele>10.2</ele>
        <time>2021-05-19T09:41:11Z</time>
      </trkpt>
      <trkpt lat="42.0470710" lon="-8.8831880">
        <ele>10.1</ele>
        <time>2021-05-19T09:41:12Z</time>
      </trkpt>
      <trkpt lat="42.0470780" lon="-8.8831900">
        <ele>10.1</ele>
        <time>2021-05-19T09:41:13Z</time>
      </trkpt>
      <trkpt lat="42.0470840" lon="-8.8831870">
        <ele>10.1</ele>
        <time>2021-05-19T09:41:14Z</time>
      </trkpt>
      <trkpt lat="42.0471030" lon="-8.8831900">
        <ele>10.0</ele>
        <time>2021-05-19T09:41:15Z</time>
      </trkpt>
      <trkpt lat="42.0471100" lon="-8.8831930">
        <ele>10.0</ele>
        <time>2021-05-19T09:41:16Z</time>
      </trkpt>
      <trkpt lat="42.0471180" lon="-8.8831990">
        <ele>10.0</ele>
        <time>2021-05-19T09:41:17Z</time>
      </trkpt>
      <trkpt lat="42.0471370" lon="-8.8832040">
        <ele>9.9</ele>
        <time>2021-05-19T09:41:18Z</time>
      </trkpt>
      <trkpt lat="42.0471500" lon="-8.8832040">
        <ele>9.9</ele>
        <time>2021-05-19T09:41:19Z</time>
      </trkpt>
      <trkpt lat="42.0471570" lon="-8.8832120">
        <ele>9.9</ele>
        <time>2021-05-19T09:41:20Z</time>
      </trkpt>
      <trkpt lat="42.0471710" lon="-8.8832120">
        <ele>9.8</ele>
        <time>2021-05-19T09:41:21Z</time>
      </trkpt>
      <trkpt lat="42.0471810" lon="-8.8832150">
        <ele>9.8</ele>
        <time>2021-05-19T09:41:22Z</time>
      </trkpt>
      <trkpt lat="42.0471890" lon="-8.8832250">
        <ele>9.8</ele>
        <time>2021-05-19T09:41:23Z</time>
      </trkpt>
      <trkpt lat="42.0471990" lon="-8.8832280">
        <ele>9.7</ele>
        <time>2021-05-19T09:41:24Z</time>
      </trkpt>
      <trkpt lat="42.0472080" lon="-8.8832410">
        <ele>9.7</ele>
        <time>2021-05-19T09:41:25Z</time>
      </trkpt>
      <trkpt lat="42.0472140" lon="-8.8832430">
        <ele>9.7</ele>
        <time>2021-05-19T09:41:26Z</time>
      </trkpt>
      <trkpt lat="42.0472310" lon="-8.8832470">
        <ele>9.6</ele>
        <time>2021-05-19T09:41:27Z</time>
      </trkpt>
      <trkpt lat="42.0472400" lon="-8.8832440">
        <ele>9.6</ele>
        <time>2021-05-19T09:41:28Z</time>
      </trkpt>
      <trkpt lat="42.0472600" lon="-8.8832430">
        <ele>9.6</ele>
        <time>2021-05-19T09:41:29Z</time>
      </trkpt>
      <trkpt lat="42.0472690" lon="-8.8832470">
        <ele>9.5</ele>
        <time>2021-05-19T09:41:30Z</time>
      </trkpt>
      <trkpt lat="42.0472760" lon="-8.8832530">
        <ele>9.5</ele>
        <time>2021-05-19T09:41:31Z</time>
      </trkpt>
      <trkpt lat="42.0472940" lon="-8.8832550">
        <ele>9.5</ele>
        <time>2021-05-19T09:41:32Z</time>
      </trkpt>
      <trkpt lat="42.0473020" lon="-8.8832570">
        <ele>9.4</ele>
        <time>2021-05-19T09:41:33Z</time>
      </trkpt>
      <trkpt lat="42.0473220" lon="-8.8832650">
        <ele>9.4</ele>
        <time>2021-05-19T09:41:34Z</time>
      </trkpt>
      <trkpt lat="42.0473340" lon="-8.8832690">
        <ele>9.4</ele>
        <time>2021-05-19T09:41:35Z</time>
      </trkpt>
      <trkpt lat="42.0473410" lon="-8.8832730">
        <ele>9.3</ele>
        <time>2021-05-19T09:41:36Z</time>
      </trkpt>
      <trkpt lat="42.0473550" lon="-8.8832770">
        <ele>9.3</ele>
        <time>2021-05-19T09:41:37Z</time>
      </trkpt>
      <trkpt lat="42.0473730" lon="-8.8832880">
        <ele>9.3</ele>
        <time>2021-05-19T09:41:38Z</time>
      </trkpt>
      <trkpt lat="42.0473830" lon="-8.8832910">
        <ele>9.2</ele>
        <time>2021-05-19T09:41:39Z</time>
      </trkpt>
      <trkpt lat="42.0473940" lon="-8.8832940">
        <ele>9.2</ele>
        <time>2021-05-19T09:41:40Z</time>
      </trkpt>
      <trkpt lat="42.0474060" lon="-8.8832950">
        <ele>9.2</ele>
        <time>2021-05-19T09:41:41Z</time>
      </trkpt>
      <trkpt lat="42.0474200" lon="-8.8833040">
        <ele>9.2</ele>
        <time>2021-05-19T09:41:42Z</time>
      </trkpt>
      <trkpt lat="42.0474330" lon="-8.8833100">
        <ele>9.1</ele>
        <time>2021-05-19T09:41:43Z</time>
      </trkpt>
      <trkpt lat="42.0474420" lon="-8.8833120">
        <ele>9.1</ele>
        <time>2021-05-19T09:41:44Z</time>
      </trkpt>
      <trkpt lat="42.0474500" lon="-8.8833150">
        <ele>9.1</ele>
        <time>2021-05-19T09:41:45Z</time>
      </trkpt>
      <trkpt lat="42.0474580" lon="-8.8833180">
        <ele>9.1</ele>
        <time>2021-05-19T09:41:46Z</time>
      </trkpt>
      <trkpt lat="42.0474660" lon="-8.8833240">
        <ele>9.1</ele>
        <time>2021-05-19T09:41:47Z</time>
      </trkpt>
      <trkpt lat="42.0474800" lon="-8.8833290">
        <ele>9.1</ele>
        <time>2021-05-19T09:41:48Z</time>
      </trkpt>
      <trkpt lat="42.0474910" lon="-8.8833330">
        <ele>9.0</ele>
        <time>2021-05-19T09:41:49Z</time>
      </trkpt>
      <trkpt lat="42.0475070" lon="-8.8833420">
        <ele>9.0</ele>
        <time>2021-05-19T09:41:50Z</time>
      </trkpt>
      <trkpt lat="42.0475130" lon="-8.8833450">
        <ele>9.0</ele>
        <time>2021-05-19T09:41:51Z</time>
      </trkpt>
      <trkpt lat="42.0475250" lon="-8.8833450">
        <ele>9.0</ele>
        <time>2021-05-19T09:41:52Z</time>
      </trkpt>
      <trkpt lat="42.0475340" lon="-8.8833560">
        <ele>9.0</ele>
        <time>2021-05-19T09:41:53Z</time>
      </trkpt>
      <trkpt lat="42.0475520" lon="-8.8833620">
        <ele>9.0</ele>
        <time>2021-05-19T09:41:54Z</time>
      </trkpt>
      <trkpt lat="42.0475660" lon="-8.8833640">
        <ele>8.9</ele>
        <time>2021-05-19T09:41:55Z</time>
      </trkpt>
      <trkpt lat="42.0475750" lon="-8.8833720">
        <ele>8.9</ele>
        <time>2021-05-19T09:41:56Z</time>
      </trkpt>
      <trkpt lat="42.0475850" lon="-8.8833770">
        <ele>8.9</ele>
        <time>2021-05-19T09:41:57Z</time>
      </trkpt>
      <trkpt lat="42.0476030" lon="-8.8833850">
        <ele>8.9</ele>
        <time>2021-05-19T09:41:58Z</time>
      </trkpt>
      <trkpt lat="42.0476120" lon="-8.8833890">
        <ele>8.9</ele>
        <time>2021-05-19T09:41:59Z</time>
      </trkpt>
      <trkpt lat="42.0476220" lon="-8.8833930">
        <ele>8.9</ele>
        <time>2021-05-19T09:42:00Z</time>
      </trkpt>
      <trkpt lat="42.0476310" lon="-8.8833930">
        <ele>8.9</ele>
        <time>2021-05-19T09:42:01Z</time>
      </trkpt>
      <trkpt lat="42.0476440" lon="-8.8833900">
        <ele>8.9</ele>
        <time>2021-05-19T09:42:02Z</time>
      </trkpt>
      <trkpt lat="42.0476520" lon="-8.8833940">
        <ele>8.9</ele>
        <time>2021-05-19T09:42:03Z</time>
      </trkpt>
      <trkpt lat="42.0476730" lon="-8.8834000">
        <ele>8.8</ele>
        <time>2021-05-19T09:42:04Z</time>
      </trkpt>
      <trkpt lat="42.0476800" lon="-8.8834020">
        <ele>8.8</ele>
        <time>2021-05-19T09:42:05Z</time>
      </trkpt>
      <trkpt lat="42.0476880" lon="-8.8834040">
        <ele>8.8</ele>
        <time>2021-05-19T09:42:06Z</time>
      </trkpt>
      <trkpt lat="42.0477130" lon="-8.8834110">
        <ele>8.8</ele>
        <time>2021-05-19T09:42:07Z</time>
      </trkpt>
      <trkpt lat="42.0477210" lon="-8.8834130">
        <ele>8.8</ele>
        <time>2021-05-19T09:42:08Z</time>
      </trkpt>
      <trkpt lat="42.0477290" lon="-8.8834150">
        <ele>8.8</ele>
        <time>2021-05-19T09:42:09Z</time>
      </trkpt>
      <trkpt lat="42.0477410" lon="-8.8834330">
        <ele>8.8</ele>
        <time>2021-05-19T09:42:10Z</time>
      </trkpt>
      <trkpt lat="42.0477470" lon="-8.8834380">
        <ele>8.8</ele>
        <time>2021-05-19T09:42:11Z</time>
      </trkpt>
      <trkpt lat="42.0477520" lon="-8.8834440">
        <ele>8.8</ele>
        <time>2021-05-19T09:42:12Z</time>
      </trkpt>
      <trkpt lat="42.0477570" lon="-8.8834500">
        <ele>8.8</ele>
        <time>2021-05-19T09:42:13Z</time>
      </trkpt>
      <trkpt lat="42.0477690" lon="-8.8834600">
        <ele>8.8</ele>
        <time>2021-05-19T09:42:14Z</time>
      </trkpt>
      <trkpt lat="42.0477800" lon="-8.8834720">
        <ele>8.8</ele>
        <time>2021-05-19T09:42:15Z</time>
      </trkpt>
      <trkpt lat="42.0477860" lon="-8.8834830">
        <ele>8.8</ele>
        <time>2021-05-19T09:42:16Z</time>
      </trkpt>
      <trkpt lat="42.0477980" lon="-8.8834870">
        <ele>8.8</ele>
        <time>2021-05-19T09:42:17Z</time>
      </trkpt>
      <trkpt lat="42.0478070" lon="-8.8834920">
        <ele>8.7</ele>
        <time>2021-05-19T09:42:18Z</time>
      </trkpt>
      <trkpt lat="42.0478160" lon="-8.8835050">
        <ele>8.7</ele>
        <time>2021-05-19T09:42:19Z</time>
      </trkpt>
      <trkpt lat="42.0478230" lon="-8.8835110">
        <ele>8.7</ele>
        <time>2021-05-19T09:42:20Z</time>
      </trkpt>
      <trkpt lat="42.0478290" lon="-8.8835180">
        <ele>8.7</ele>
        <time>2021-05-19T09:42:21Z</time>
      </trkpt>
      <trkpt lat="42.0478360" lon="-8.8835240">
        <ele>8.7</ele>
        <time>2021-05-19T09:42:22Z</time>
      </trkpt>
      <trkpt lat="42.0478450" lon="-8.8835330">
        <ele>8.7</ele>
        <time>2021-05-19T09:42:23Z</time>
      </trkpt>
      <trkpt lat="42.0478650" lon="-8.8835440">
        <ele>8.7</ele>
        <time>2021-05-19T09:42:24Z</time>
      </trkpt>
      <trkpt lat="42.0478840" lon="-8.8835520">
        <ele>8.7</ele>
        <time>2021-05-19T09:42:25Z</time>
      </trkpt>
      <trkpt lat="42.0478930" lon="-8.8835560">
        <ele>8.7</ele>
        <time>2021-05-19T09:42:26Z</time>
      </trkpt>
      <trkpt lat="42.0479030" lon="-8.8835600">
        <ele>8.7</ele>
        <time>2021-05-19T09:42:27Z</time>
      </trkpt>
      <trkpt lat="42.0479140" lon="-8.8835670">
        <ele>8.7</ele>
        <time>2021-05-19T09:42:28Z</time>
      </trkpt>
      <trkpt lat="42.0479240" lon="-8.8835820">
        <ele>8.7</ele>
        <time>2021-05-19T09:42:29Z</time>
      </trkpt>
      <trkpt lat="42.0479320" lon="-8.8835900">
        <ele>8.6</ele>
        <time>2021-05-19T09:42:30Z</time>
      </trkpt>
      <trkpt lat="42.0479420" lon="-8.8835930">
        <ele>8.6</ele>
        <time>2021-05-19T09:42:31Z</time>
      </trkpt>
      <trkpt lat="42.0479600" lon="-8.8836010">
        <ele>8.6</ele>
        <time>2021-05-19T09:42:32Z</time>
      </trkpt>
      <trkpt lat="42.0479780" lon="-8.8836070">
        <ele>8.6</ele>
        <time>2021-05-19T09:42:33Z</time>
      </trkpt>
      <trkpt lat="42.0479880" lon="-8.8836100">
        <ele>8.6</ele>
        <time>2021-05-19T09:42:34Z</time>
      </trkpt>
      <trkpt lat="42.0479970" lon="-8.8836120">
        <ele>8.6</ele>
        <time>2021-05-19T09:42:35Z</time>
      </trkpt>
      <trkpt lat="42.0480120" lon="-8.8836290">
        <ele>8.6</ele>
        <time>2021-05-19T09:42:36Z</time>
      </trkpt>
      <trkpt lat="42.0480190" lon="-8.8836320">
        <ele>8.6</ele>
        <time>2021-05-19T09:42:37Z</time>
      </trkpt>
      <trkpt lat="42.0480220" lon="-8.8836390">
        <ele>8.6</ele>
        <time>2021-05-19T09:42:38Z</time>
      </trkpt>
      <trkpt lat="42.0480420" lon="-8.8836470">
        <ele>8.6</ele>
        <time>2021-05-19T09:42:39Z</time>
      </trkpt>
      <trkpt lat="42.0480530" lon="-8.8836540">
        <ele>8.6</ele>
        <time>2021-05-19T09:42:40Z</time>
      </trkpt>
      <trkpt lat="42.0480670" lon="-8.8836610">
        <ele>8.6</ele>
        <time>2021-05-19T09:42:41Z</time>
      </trkpt>
      <trkpt lat="42.0480800" lon="-8.8836660">
        <ele>8.6</ele>
        <time>2021-05-19T09:42:42Z</time>
      </trkpt>
      <trkpt lat="42.0480980" lon="-8.8836810">
        <ele>8.6</ele>
        <time>2021-05-19T09:42:43Z</time>
      </trkpt>
      <trkpt lat="42.0481080" lon="-8.8836880">
        <ele>8.5</ele>
        <time>2021-05-19T09:42:44Z</time>
      </trkpt>
      <trkpt lat="42.0481180" lon="-8.8836950">
        <ele>8.5</ele>
        <time>2021-05-19T09:42:45Z</time>
      </trkpt>
      <trkpt lat="42.0481210" lon="-8.8837020">
        <ele>8.5</ele>
        <time>2021-05-19T09:42:46Z</time>
      </trkpt>
      <trkpt lat="42.0481330" lon="-8.8837080">
        <ele>8.5</ele>
        <time>2021-05-19T09:42:47Z</time>
      </trkpt>
      <trkpt lat="42.0481460" lon="-8.8837230">
        <ele>8.5</ele>
        <time>2021-05-19T09:42:48Z</time>
      </trkpt>
      <trkpt lat="42.0481680" lon="-8.8837250">
        <ele>8.5</ele>
        <time>2021-05-19T09:42:49Z</time>
      </trkpt>
      <trkpt lat="42.0481760" lon="-8.8837300">
        <ele>8.5</ele>
        <time>2021-05-19T09:42:50Z</time>
      </trkpt>
      <trkpt lat="42.0481840" lon="-8.8837360">
        <ele>8.5</ele>
        <time>2021-05-19T09:42:51Z</time>
      </trkpt>
      <trkpt lat="42.0482060" lon="-8.8837480">
        <ele>8.6</ele>
        <time>2021-05-19T09:42:52Z</time>
      </trkpt>
      <trkpt lat="42.0482130" lon="-8.8837520">
        <ele>8.6</ele>
        <time>2021-05-19T09:42:53Z</time>
      </trkpt>
      <trkpt lat="42.0482200" lon="-8.8837550">
        <ele>8.6</ele>
        <time>2021-05-19T09:42:54Z</time>
      </trkpt>
      <trkpt lat="42.0482320" lon="-8.8837650">
        <ele>8.6</ele>
        <time>2021-05-19T09:42:55Z</time>
      </trkpt>
      <trkpt lat="42.0482520" lon="-8.8837780">
        <ele>8.6</ele>
        <time>2021-05-19T09:42:56Z</time>
      </trkpt>
      <trkpt lat="42.0482500" lon="-8.8837890">
        <ele>8.6</ele>
        <time>2021-05-19T09:42:57Z</time>
      </trkpt>
      <trkpt lat="42.0482680" lon="-8.8837970">
        <ele>8.6</ele>
        <time>2021-05-19T09:42:58Z</time>
      </trkpt>
      <trkpt lat="42.0482730" lon="-8.8838090">
        <ele>8.6</ele>
        <time>2021-05-19T09:42:59Z</time>
      </trkpt>
      <trkpt lat="42.0482970" lon="-8.8838330">
        <ele>8.6</ele>
        <time>2021-05-19T09:43:00Z</time>
      </trkpt>
      <trkpt lat="42.0483000" lon="-8.8838430">
        <ele>8.6</ele>
        <time>2021-05-19T09:43:01Z</time>
      </trkpt>
      <trkpt lat="42.0483140" lon="-8.8838680">
        <ele>8.6</ele>
        <time>2021-05-19T09:43:02Z</time>
      </trkpt>
      <trkpt lat="42.0483190" lon="-8.8838810">
        <ele>8.6</ele>
        <time>2021-05-19T09:43:03Z</time>
      </trkpt>
      <trkpt lat="42.0483250" lon="-8.8838930">
        <ele>8.6</ele>
        <time>2021-05-19T09:43:04Z</time>
      </trkpt>
      <trkpt lat="42.0483330" lon="-8.8839090">
        <ele>8.6</ele>
        <time>2021-05-19T09:43:05Z</time>
      </trkpt>
      <trkpt lat="42.0483440" lon="-8.8839200">
        <ele>8.6</ele>
        <time>2021-05-19T09:43:06Z</time>
      </trkpt>
      <trkpt lat="42.0483480" lon="-8.8839380">
        <ele>8.7</ele>
        <time>2021-05-19T09:43:07Z</time>
      </trkpt>
      <trkpt lat="42.0483540" lon="-8.8839550">
        <ele>8.7</ele>
        <time>2021-05-19T09:43:08Z</time>
      </trkpt>
      <trkpt lat="42.0483540" lon="-8.8839700">
        <ele>8.7</ele>
        <time>2021-05-19T09:43:09Z</time>
      </trkpt>
      <trkpt lat="42.0483570" lon="-8.8839920">
        <ele>8.7</ele>
        <time>2021-05-19T09:43:10Z</time>
      </trkpt>
      <trkpt lat="42.0483570" lon="-8.8840170">
        <ele>8.6</ele>
        <time>2021-05-19T09:43:11Z</time>
      </trkpt>
      <trkpt lat="42.0483580" lon="-8.8840300">
        <ele>8.6</ele>
        <time>2021-05-19T09:43:12Z</time>
      </trkpt>
      <trkpt lat="42.0483600" lon="-8.8840420">
        <ele>8.6</ele>
        <time>2021-05-19T09:43:13Z</time>
      </trkpt>
      <trkpt lat="42.0483600" lon="-8.8840540">
        <ele>8.6</ele>
        <time>2021-05-19T09:43:14Z</time>
      </trkpt>
      <trkpt lat="42.0483630" lon="-8.8840660">
        <ele>8.5</ele>
        <time>2021-05-19T09:43:15Z</time>
      </trkpt>
      <trkpt lat="42.0483640" lon="-8.8840720">
        <ele>8.5</ele>
        <time>2021-05-19T09:43:16Z</time>
      </trkpt>
      <trkpt lat="42.0483710" lon="-8.8840850">
        <ele>8.5</ele>
        <time>2021-05-19T09:43:17Z</time>
      </trkpt>
      <trkpt lat="42.0483790" lon="-8.8840840">
        <ele>8.4</ele>
        <time>2021-05-19T09:43:18Z</time>
      </trkpt>
      <trkpt lat="42.0483870" lon="-8.8840890">
        <ele>8.4</ele>
        <time>2021-05-19T09:43:19Z</time>
      </trkpt>
      <trkpt lat="42.0484070" lon="-8.8840910">
        <ele>8.3</ele>
        <time>2021-05-19T09:43:20Z</time>
      </trkpt>
      <trkpt lat="42.0484210" lon="-8.8840980">
        <ele>8.3</ele>
        <time>2021-05-19T09:43:21Z</time>
      </trkpt>
      <trkpt lat="42.0484340" lon="-8.8841050">
        <ele>8.3</ele>
        <time>2021-05-19T09:43:22Z</time>
      </trkpt>
      <trkpt lat="42.0484430" lon="-8.8841100">
        <ele>8.2</ele>
        <time>2021-05-19T09:43:23Z</time>
      </trkpt>
      <trkpt lat="42.0484600" lon="-8.8841160">
        <ele>8.2</ele>
        <time>2021-05-19T09:43:24Z</time>
      </trkpt>
      <trkpt lat="42.0484740" lon="-8.8841120">
        <ele>8.1</ele>
        <time>2021-05-19T09:43:25Z</time>
      </trkpt>
      <trkpt lat="42.0484890" lon="-8.8841180">
        <ele>8.1</ele>
        <time>2021-05-19T09:43:26Z</time>
      </trkpt>
      <trkpt lat="42.0485060" lon="-8.8841160">
        <ele>8.0</ele>
        <time>2021-05-19T09:43:27Z</time>
      </trkpt>
      <trkpt lat="42.0485220" lon="-8.8841190">
        <ele>8.0</ele>
        <time>2021-05-19T09:43:28Z</time>
      </trkpt>
      <trkpt lat="42.0485360" lon="-8.8841250">
        <ele>7.9</ele>
        <time>2021-05-19T09:43:29Z</time>
      </trkpt>
      <trkpt lat="42.0485520" lon="-8.8841260">
        <ele>7.9</ele>
        <time>2021-05-19T09:43:30Z</time>
      </trkpt>
      <trkpt lat="42.0485670" lon="-8.8841300">
        <ele>7.8</ele>
        <time>2021-05-19T09:43:31Z</time>
      </trkpt>
      <trkpt lat="42.0485820" lon="-8.8841330">
        <ele>7.8</ele>
        <time>2021-05-19T09:43:32Z</time>
      </trkpt>
      <trkpt lat="42.0485970" lon="-8.8841330">
        <ele>7.7</ele>
        <time>2021-05-19T09:43:33Z</time>
      </trkpt>
      <trkpt lat="42.0486120" lon="-8.8841320">
        <ele>7.7</ele>
        <time>2021-05-19T09:43:34Z</time>
      </trkpt>
      <trkpt lat="42.0486280" lon="-8.8841300">
        <ele>7.6</ele>
        <time>2021-05-19T09:43:35Z</time>
      </trkpt>
      <trkpt lat="42.0486410" lon="-8.8841360">
        <ele>7.6</ele>
        <time>2021-05-19T09:43:36Z</time>
      </trkpt>
      <trkpt lat="42.0486560" lon="-8.8841400">
        <ele>7.6</ele>
        <time>2021-05-19T09:43:37Z</time>
      </trkpt>
      <trkpt lat="42.0486700" lon="-8.8841490">
        <ele>7.5</ele>
        <time>2021-05-19T09:43:38Z</time>
      </trkpt>
      <trkpt lat="42.0486850" lon="-8.8841540">
        <ele>7.5</ele>
        <time>2021-05-19T09:43:39Z</time>
      </trkpt>
      <trkpt lat="42.0486990" lon="-8.8841590">
        <ele>7.4</ele>
        <time>2021-05-19T09:43:40Z</time>
      </trkpt>
      <trkpt lat="42.0487220" lon="-8.8841660">
        <ele>7.3</ele>
        <time>2021-05-19T09:43:41Z</time>
      </trkpt>
      <trkpt lat="42.0487320" lon="-8.8841660">
        <ele>7.3</ele>
        <time>2021-05-19T09:43:42Z</time>
      </trkpt>
      <trkpt lat="42.0487420" lon="-8.8841660">
        <ele>7.3</ele>
        <time>2021-05-19T09:43:43Z</time>
      </trkpt>
      <trkpt lat="42.0487560" lon="-8.8841750">
        <ele>7.2</ele>
        <time>2021-05-19T09:43:44Z</time>
      </trkpt>
      <trkpt lat="42.0487710" lon="-8.8841770">
        <ele>7.2</ele>
        <time>2021-05-19T09:43:45Z</time>
      </trkpt>
      <trkpt lat="42.0487850" lon="-8.8841890">
        <ele>7.1</ele>
        <time>2021-05-19T09:43:46Z</time>
      </trkpt>
      <trkpt lat="42.0487990" lon="-8.8841880">
        <ele>7.1</ele>
        <time>2021-05-19T09:43:47Z</time>
      </trkpt>
      <trkpt lat="42.0488120" lon="-8.8841980">
        <ele>7.1</ele>
        <time>2021-05-19T09:43:48Z</time>
      </trkpt>
      <trkpt lat="42.0488270" lon="-8.8841950">
        <ele>7.1</ele>
        <time>2021-05-19T09:43:49Z</time>
      </trkpt>
      <trkpt lat="42.0488390" lon="-8.8842100">
        <ele>7.0</ele>
        <time>2021-05-19T09:43:50Z</time>
      </trkpt>
      <trkpt lat="42.0488510" lon="-8.8842190">
        <ele>7.0</ele>
        <time>2021-05-19T09:43:51Z</time>
      </trkpt>
      <trkpt lat="42.0488640" lon="-8.8842280">
        <ele>7.0</ele>
        <time>2021-05-19T09:43:52Z</time>
      </trkpt>
      <trkpt lat="42.0488760" lon="-8.8842340">
        <ele>7.0</ele>
        <time>2021-05-19T09:43:53Z</time>
      </trkpt>
      <trkpt lat="42.0488840" lon="-8.8842490">
        <ele>7.0</ele>
        <time>2021-05-19T09:43:54Z</time>
      </trkpt>
      <trkpt lat="42.0488950" lon="-8.8842600">
        <ele>6.9</ele>
        <time>2021-05-19T09:43:55Z</time>
      </trkpt>
      <trkpt lat="42.0489010" lon="-8.8842770">
        <ele>6.9</ele>
        <time>2021-05-19T09:43:56Z</time>
      </trkpt>
      <trkpt lat="42.0489080" lon="-8.8842950">
        <ele>6.9</ele>
        <time>2021-05-19T09:43:57Z</time>
      </trkpt>
      <trkpt lat="42.0489210" lon="-8.8843010">
        <ele>6.9</ele>
        <time>2021-05-19T09:43:58Z</time>
      </trkpt>
      <trkpt lat="42.0489300" lon="-8.8843180">
        <ele>6.8</ele>
        <time>2021-05-19T09:43:59Z</time>
      </trkpt>
      <trkpt lat="42.0489360" lon="-8.8843280">
        <ele>6.8</ele>
        <time>2021-05-19T09:44:00Z</time>
      </trkpt>
      <trkpt lat="42.0489430" lon="-8.8843310">
        <ele>6.8</ele>
        <time>2021-05-19T09:44:01Z</time>
      </trkpt>
      <trkpt lat="42.0489490" lon="-8.8843430">
        <ele>6.7</ele>
        <time>2021-05-19T09:44:02Z</time>
      </trkpt>
      <trkpt lat="42.0489500" lon="-8.8843560">
        <ele>6.7</ele>
        <time>2021-05-19T09:44:03Z</time>
      </trkpt>
      <trkpt lat="42.0489600" lon="-8.8843790">
        <ele>6.7</ele>
        <time>2021-05-19T09:44:04Z</time>
      </trkpt>
      <trkpt lat="42.0489600" lon="-8.8843890">
        <ele>6.6</ele>
        <time>2021-05-19T09:44:05Z</time>
      </trkpt>
      <trkpt lat="42.0489610" lon="-8.8843990">
        <ele>6.6</ele>
        <time>2021-05-19T09:44:06Z</time>
      </trkpt>
      <trkpt lat="42.0489610" lon="-8.8844090">
        <ele>6.6</ele>
        <time>2021-05-19T09:44:07Z</time>
      </trkpt>
      <trkpt lat="42.0489670" lon="-8.8844110">
        <ele>6.6</ele>
        <time>2021-05-19T09:44:08Z</time>
      </trkpt>
      <trkpt lat="42.0489760" lon="-8.8844060">
        <ele>6.5</ele>
        <time>2021-05-19T09:44:09Z</time>
      </trkpt>
      <trkpt lat="42.0489840" lon="-8.8844060">
        <ele>6.5</ele>
        <time>2021-05-19T09:44:10Z</time>
      </trkpt>
      <trkpt lat="42.0489910" lon="-8.8844120">
        <ele>6.5</ele>
        <time>2021-05-19T09:44:11Z</time>
      </trkpt>
      <trkpt lat="42.0490100" lon="-8.8844200">
        <ele>6.4</ele>
        <time>2021-05-19T09:44:12Z</time>
      </trkpt>
      <trkpt lat="42.0490200" lon="-8.8844260">
        <ele>6.4</ele>
        <time>2021-05-19T09:44:13Z</time>
      </trkpt>
      <trkpt lat="42.0490350" lon="-8.8844290">
        <ele>6.4</ele>
        <time>2021-05-19T09:44:14Z</time>
      </trkpt>
      <trkpt lat="42.0490510" lon="-8.8844300">
        <ele>6.3</ele>
        <time>2021-05-19T09:44:15Z</time>
      </trkpt>
      <trkpt lat="42.0490590" lon="-8.8844310">
        <ele>6.3</ele>
        <time>2021-05-19T09:44:16Z</time>
      </trkpt>
      <trkpt lat="42.0490740" lon="-8.8844400">
        <ele>6.2</ele>
        <time>2021-05-19T09:44:17Z</time>
      </trkpt>
      <trkpt lat="42.0490810" lon="-8.8844410">
        <ele>6.2</ele>
        <time>2021-05-19T09:44:18Z</time>
      </trkpt>
      <trkpt lat="42.0490990" lon="-8.8844490">
        <ele>6.2</ele>
        <time>2021-05-19T09:44:19Z</time>
      </trkpt>
      <trkpt lat="42.0491070" lon="-8.8844490">
        <ele>6.1</ele>
        <time>2021-05-19T09:44:20Z</time>
      </trkpt>
      <trkpt lat="42.0491140" lon="-8.8844500">
        <ele>6.1</ele>
        <time>2021-05-19T09:44:21Z</time>
      </trkpt>
      <trkpt lat="42.0491220" lon="-8.8844510">
        <ele>6.1</ele>
        <time>2021-05-19T09:44:22Z</time>
      </trkpt>
      <trkpt lat="42.0491540" lon="-8.8844520">
        <ele>6.0</ele>
        <time>2021-05-19T09:44:23Z</time>
      </trkpt>
      <trkpt lat="42.0491610" lon="-8.8844530">
        <ele>6.0</ele>
        <time>2021-05-19T09:44:24Z</time>
      </trkpt>
      <trkpt lat="42.0491760" lon="-8.8844610">
        <ele>6.0</ele>
        <time>2021-05-19T09:44:25Z</time>
      </trkpt>
      <trkpt lat="42.0491900" lon="-8.8844620">
        <ele>5.9</ele>
        <time>2021-05-19T09:44:26Z</time>
      </trkpt>
      <trkpt lat="42.0492060" lon="-8.8844680">
        <ele>5.9</ele>
        <time>2021-05-19T09:44:27Z</time>
      </trkpt>
      <trkpt lat="42.0492200" lon="-8.8844710">
        <ele>5.9</ele>
        <time>2021-05-19T09:44:28Z</time>
      </trkpt>
      <trkpt lat="42.0492340" lon="-8.8844780">
        <ele>5.8</ele>
        <time>2021-05-19T09:44:29Z</time>
      </trkpt>
      <trkpt lat="42.0492490" lon="-8.8844780">
        <ele>5.8</ele>
        <time>2021-05-19T09:44:30Z</time>
      </trkpt>
      <trkpt lat="42.0492630" lon="-8.8844820">
        <ele>5.8</ele>
        <time>2021-05-19T09:44:31Z</time>
      </trkpt>
      <trkpt lat="42.0492750" lon="-8.8844850">
        <ele>5.7</ele>
        <time>2021-05-19T09:44:32Z</time>
      </trkpt>
      <trkpt lat="42.0492910" lon="-8.8844870">
        <ele>5.7</ele>
        <time>2021-05-19T09:44:33Z</time>
      </trkpt>
      <trkpt lat="42.0493030" lon="-8.8844920">
        <ele>5.7</ele>
        <time>2021-05-19T09:44:34Z</time>
      </trkpt>
      <trkpt lat="42.0493170" lon="-8.8844920">
        <ele>5.7</ele>
        <time>2021-05-19T09:44:35Z</time>
      </trkpt>
      <trkpt lat="42.0493310" lon="-8.8844980">
        <ele>5.6</ele>
        <time>2021-05-19T09:44:36Z</time>
      </trkpt>
      <trkpt lat="42.0493440" lon="-8.8845010">
        <ele>5.6</ele>
        <time>2021-05-19T09:44:37Z</time>
      </trkpt>
      <trkpt lat="42.0493550" lon="-8.8844990">
        <ele>5.6</ele>
        <time>2021-05-19T09:44:38Z</time>
      </trkpt>
      <trkpt lat="42.0493660" lon="-8.8845030">
        <ele>5.6</ele>
        <time>2021-05-19T09:44:39Z</time>
      </trkpt>
      <trkpt lat="42.0493740" lon="-8.8845090">
        <ele>5.6</ele>
        <time>2021-05-19T09:44:40Z</time>
      </trkpt>
      <trkpt lat="42.0493850" lon="-8.8845140">
        <ele>5.6</ele>
        <time>2021-05-19T09:44:41Z</time>
      </trkpt>
      <trkpt lat="42.0493920" lon="-8.8845190">
        <ele>5.5</ele>
        <time>2021-05-19T09:44:42Z</time>
      </trkpt>
      <trkpt lat="42.0494040" lon="-8.8845200">
        <ele>5.5</ele>
        <time>2021-05-19T09:44:43Z</time>
      </trkpt>
      <trkpt lat="42.0494160" lon="-8.8845210">
        <ele>5.5</ele>
        <time>2021-05-19T09:44:44Z</time>
      </trkpt>
      <trkpt lat="42.0494250" lon="-8.8845260">
        <ele>5.5</ele>
        <time>2021-05-19T09:44:45Z</time>
      </trkpt>
      <trkpt lat="42.0494340" lon="-8.8845280">
        <ele>5.5</ele>
        <time>2021-05-19T09:44:46Z</time>
      </trkpt>
      <trkpt lat="42.0494450" lon="-8.8845350">
        <ele>5.5</ele>
        <time>2021-05-19T09:44:47Z</time>
      </trkpt>
      <trkpt lat="42.0494530" lon="-8.8845360">
        <ele>5.5</ele>
        <time>2021-05-19T09:44:48Z</time>
      </trkpt>
      <trkpt lat="42.0494630" lon="-8.8845350">
        <ele>5.4</ele>
        <time>2021-05-19T09:44:49Z</time>
      </trkpt>
      <trkpt lat="42.0494710" lon="-8.8845390">
        <ele>5.4</ele>
        <time>2021-05-19T09:44:50Z</time>
      </trkpt>
      <trkpt lat="42.0494820" lon="-8.8845440">
        <ele>5.4</ele>
        <time>2021-05-19T09:44:51Z</time>
      </trkpt>
      <trkpt lat="42.0494950" lon="-8.8845470">
        <ele>5.4</ele>
        <time>2021-05-19T09:44:52Z</time>
      </trkpt>
      <trkpt lat="42.0495070" lon="-8.8845510">
        <ele>5.4</ele>
        <time>2021-05-19T09:44:53Z</time>
      </trkpt>
      <trkpt lat="42.0495160" lon="-8.8845540">
        <ele>5.4</ele>
        <time>2021-05-19T09:44:54Z</time>
      </trkpt>
      <trkpt lat="42.0495270" lon="-8.8845590">
        <ele>5.4</ele>
        <time>2021-05-19T09:44:55Z</time>
      </trkpt>
      <trkpt lat="42.0495380" lon="-8.8845600">
        <ele>5.4</ele>
        <time>2021-05-19T09:44:56Z</time>
      </trkpt>
      <trkpt lat="42.0495470" lon="-8.8845610">
        <ele>5.3</ele>
        <time>2021-05-19T09:44:57Z</time>
      </trkpt>
      <trkpt lat="42.0495660" lon="-8.8845720">
        <ele>5.3</ele>
        <time>2021-05-19T09:44:58Z</time>
      </trkpt>
      <trkpt lat="42.0495750" lon="-8.8845770">
        <ele>5.3</ele>
        <time>2021-05-19T09:44:59Z</time>
      </trkpt>
      <trkpt lat="42.0495850" lon="-8.8845820">
        <ele>5.3</ele>
        <time>2021-05-19T09:45:00Z</time>
      </trkpt>
      <trkpt lat="42.0495970" lon="-8.8845840">
        <ele>5.3</ele>
        <time>2021-05-19T09:45:01Z</time>
      </trkpt>
      <trkpt lat="42.0496120" lon="-8.8845920">
        <ele>5.3</ele>
        <time>2021-05-19T09:45:02Z</time>
      </trkpt>
      <trkpt lat="42.0496240" lon="-8.8845950">
        <ele>5.3</ele>
        <time>2021-05-19T09:45:03Z</time>
      </trkpt>
      <trkpt lat="42.0496380" lon="-8.8845980">
        <ele>5.3</ele>
        <time>2021-05-19T09:45:04Z</time>
      </trkpt>
      <trkpt lat="42.0496530" lon="-8.8846020">
        <ele>5.2</ele>
        <time>2021-05-19T09:45:05Z</time>
      </trkpt>
      <trkpt lat="42.0496660" lon="-8.8846050">
        <ele>5.2</ele>
        <time>2021-05-19T09:45:06Z</time>
      </trkpt>
      <trkpt lat="42.0496790" lon="-8.8846130">
        <ele>5.2</ele>
        <time>2021-05-19T09:45:07Z</time>
      </trkpt>
      <trkpt lat="42.0496930" lon="-8.8846130">
        <ele>5.2</ele>
        <time>2021-05-19T09:45:08Z</time>
      </trkpt>
      <trkpt lat="42.0497080" lon="-8.8846200">
        <ele>5.2</ele>
        <time>2021-05-19T09:45:09Z</time>
      </trkpt>
      <trkpt lat="42.0497230" lon="-8.8846260">
        <ele>5.2</ele>
        <time>2021-05-19T09:45:10Z</time>
      </trkpt>
      <trkpt lat="42.0497370" lon="-8.8846270">
        <ele>5.2</ele>
        <time>2021-05-19T09:45:11Z</time>
      </trkpt>
      <trkpt lat="42.0497510" lon="-8.8846350">
        <ele>5.1</ele>
        <time>2021-05-19T09:45:12Z</time>
      </trkpt>
      <trkpt lat="42.0497650" lon="-8.8846350">
        <ele>5.1</ele>
        <time>2021-05-19T09:45:13Z</time>
      </trkpt>
      <trkpt lat="42.0497800" lon="-8.8846380">
        <ele>5.1</ele>
        <time>2021-05-19T09:45:14Z</time>
      </trkpt>
      <trkpt lat="42.0497940" lon="-8.8846460">
        <ele>5.1</ele>
        <time>2021-05-19T09:45:15Z</time>
      </trkpt>
      <trkpt lat="42.0498100" lon="-8.8846490">
        <ele>5.1</ele>
        <time>2021-05-19T09:45:16Z</time>
      </trkpt>
      <trkpt lat="42.0498230" lon="-8.8846570">
        <ele>5.0</ele>
        <time>2021-05-19T09:45:17Z</time>
      </trkpt>
      <trkpt lat="42.0498380" lon="-8.8846560">
        <ele>5.0</ele>
        <time>2021-05-19T09:45:18Z</time>
      </trkpt>
      <trkpt lat="42.0498520" lon="-8.8846590">
        <ele>5.0</ele>
        <time>2021-05-19T09:45:19Z</time>
      </trkpt>
      <trkpt lat="42.0498650" lon="-8.8846640">
        <ele>4.9</ele>
        <time>2021-05-19T09:45:20Z</time>
      </trkpt>
      <trkpt lat="42.0498790" lon="-8.8846680">
        <ele>4.9</ele>
        <time>2021-05-19T09:45:21Z</time>
      </trkpt>
      <trkpt lat="42.0498940" lon="-8.8846770">
        <ele>4.9</ele>
        <time>2021-05-19T09:45:22Z</time>
      </trkpt>
      <trkpt lat="42.0499090" lon="-8.8846830">
        <ele>4.9</ele>
        <time>2021-05-19T09:45:23Z</time>
      </trkpt>
      <trkpt lat="42.0499230" lon="-8.8846890">
        <ele>4.8</ele>
        <time>2021-05-19T09:45:24Z</time>
      </trkpt>
      <trkpt lat="42.0499370" lon="-8.8846920">
        <ele>4.8</ele>
        <time>2021-05-19T09:45:25Z</time>
      </trkpt>
      <trkpt lat="42.0499520" lon="-8.8846900">
        <ele>4.7</ele>
        <time>2021-05-19T09:45:26Z</time>
      </trkpt>
      <trkpt lat="42.0499650" lon="-8.8847000">
        <ele>4.7</ele>
        <time>2021-05-19T09:45:27Z</time>
      </trkpt>
      <trkpt lat="42.0499790" lon="-8.8847050">
        <ele>4.6</ele>
        <time>2021-05-19T09:45:28Z</time>
      </trkpt>
      <trkpt lat="42.0499930" lon="-8.8847080">
        <ele>4.6</ele>
        <time>2021-05-19T09:45:29Z</time>
      </trkpt>
      <trkpt lat="42.0500080" lon="-8.8847130">
        <ele>4.6</ele>
        <time>2021-05-19T09:45:30Z</time>
      </trkpt>
      <trkpt lat="42.0500190" lon="-8.8847250">
        <ele>4.5</ele>
        <time>2021-05-19T09:45:31Z</time>
      </trkpt>
      <trkpt lat="42.0500300" lon="-8.8847350">
        <ele>4.5</ele>
        <time>2021-05-19T09:45:32Z</time>
      </trkpt>
      <trkpt lat="42.0500510" lon="-8.8847440">
        <ele>4.4</ele>
        <time>2021-05-19T09:45:33Z</time>
      </trkpt>
      <trkpt lat="42.0500590" lon="-8.8847480">
        <ele>4.4</ele>
        <time>2021-05-19T09:45:34Z</time>
      </trkpt>
      <trkpt lat="42.0500670" lon="-8.8847530">
        <ele>4.4</ele>
        <time>2021-05-19T09:45:35Z</time>
      </trkpt>
      <trkpt lat="42.0500790" lon="-8.8847640">
        <ele>4.3</ele>
        <time>2021-05-19T09:45:36Z</time>
      </trkpt>
      <trkpt lat="42.0500940" lon="-8.8847650">
        <ele>4.3</ele>
        <time>2021-05-19T09:45:37Z</time>
      </trkpt>
      <trkpt lat="42.0501050" lon="-8.8847720">
        <ele>4.2</ele>
        <time>2021-05-19T09:45:38Z</time>
      </trkpt>
      <trkpt lat="42.0501180" lon="-8.8847710">
        <ele>4.2</ele>
        <time>2021-05-19T09:45:39Z</time>
      </trkpt>
      <trkpt lat="42.0501290" lon="-8.8847720">
        <ele>4.2</ele>
        <time>2021-05-19T09:45:40Z</time>
      </trkpt>
      <trkpt lat="42.0501410" lon="-8.8847740">
        <ele>4.2</ele>
        <time>2021-05-19T09:45:41Z</time>
      </trkpt>
      <trkpt lat="42.0501530" lon="-8.8847770">
        <ele>4.1</ele>
        <time>2021-05-19T09:45:42Z</time>
      </trkpt>
      <trkpt lat="42.0501650" lon="-8.8847770">
        <ele>4.1</ele>
        <time>2021-05-19T09:45:43Z</time>
      </trkpt>
      <trkpt lat="42.0501860" lon="-8.8847750">
        <ele>4.1</ele>
        <time>2021-05-19T09:45:44Z</time>
      </trkpt>
      <trkpt lat="42.0501940" lon="-8.8847740">
        <ele>4.1</ele>
        <time>2021-05-19T09:45:45Z</time>
      </trkpt>
      <trkpt lat="42.0502020" lon="-8.8847740">
        <ele>4.1</ele>
        <time>2021-05-19T09:45:46Z</time>
      </trkpt>
      <trkpt lat="42.0502130" lon="-8.8847770">
        <ele>4.1</ele>
        <time>2021-05-19T09:45:47Z</time>
      </trkpt>
      <trkpt lat="42.0502220" lon="-8.8847660">
        <ele>4.1</ele>
        <time>2021-05-19T09:45:48Z</time>
      </trkpt>
      <trkpt lat="42.0502300" lon="-8.8847620">
        <ele>4.1</ele>
        <time>2021-05-19T09:45:49Z</time>
      </trkpt>
      <trkpt lat="42.0502350" lon="-8.8847580">
        <ele>4.1</ele>
        <time>2021-05-19T09:45:50Z</time>
      </trkpt>
      <trkpt lat="42.0502440" lon="-8.8847560">
        <ele>4.1</ele>
        <time>2021-05-19T09:45:51Z</time>
      </trkpt>
      <trkpt lat="42.0502560" lon="-8.8847480">
        <ele>4.1</ele>
        <time>2021-05-19T09:45:52Z</time>
      </trkpt>
      <trkpt lat="42.0502610" lon="-8.8847490">
        <ele>4.1</ele>
        <time>2021-05-19T09:45:53Z</time>
      </trkpt>
      <trkpt lat="42.0502700" lon="-8.8847510">
        <ele>4.1</ele>
        <time>2021-05-19T09:45:54Z</time>
      </trkpt>
      <trkpt lat="42.0502850" lon="-8.8847480">
        <ele>4.1</ele>
        <time>2021-05-19T09:45:55Z</time>
      </trkpt>
      <trkpt lat="42.0502950" lon="-8.8847390">
        <ele>4.1</ele>
        <time>2021-05-19T09:45:56Z</time>
      </trkpt>
      <trkpt lat="42.0503000" lon="-8.8847370">
        <ele>4.1</ele>
        <time>2021-05-19T09:45:57Z</time>
      </trkpt>
      <trkpt lat="42.0503090" lon="-8.8847280">
        <ele>4.2</ele>
        <time>2021-05-19T09:45:58Z</time>
      </trkpt>
      <trkpt lat="42.0503140" lon="-8.8847200">
        <ele>4.2</ele>
        <time>2021-05-19T09:45:59Z</time>
      </trkpt>
      <trkpt lat="42.0503300" lon="-8.8847190">
        <ele>4.2</ele>
        <time>2021-05-19T09:46:00Z</time>
      </trkpt>
      <trkpt lat="42.0503310" lon="-8.8847180">
        <ele>4.2</ele>
        <time>2021-05-19T09:46:01Z</time>
      </trkpt>
      <trkpt lat="42.0503420" lon="-8.8847090">
        <ele>4.2</ele>
        <time>2021-05-19T09:46:02Z</time>
      </trkpt>
      <trkpt lat="42.0503480" lon="-8.8847040">
        <ele>4.3</ele>
        <time>2021-05-19T09:46:03Z</time>
      </trkpt>
      <trkpt lat="42.0503600" lon="-8.8846940">
        <ele>4.3</ele>
        <time>2021-05-19T09:46:05Z</time>
      </trkpt>
      <trkpt lat="42.0503710" lon="-8.8846890">
        <ele>4.4</ele>
        <time>2021-05-19T09:46:06Z</time>
      </trkpt>
      <trkpt lat="42.0503770" lon="-8.8846800">
        <ele>4.4</ele>
        <time>2021-05-19T09:46:07Z</time>
      </trkpt>
      <trkpt lat="42.0503780" lon="-8.8846660">
        <ele>4.4</ele>
        <time>2021-05-19T09:46:08Z</time>
      </trkpt>
      <trkpt lat="42.0503820" lon="-8.8846470">
        <ele>4.5</ele>
        <time>2021-05-19T09:46:09Z</time>
      </trkpt>
      <trkpt lat="42.0503920" lon="-8.8846270">
        <ele>4.6</ele>
        <time>2021-05-19T09:46:10Z</time>
      </trkpt>
      <trkpt lat="42.0503980" lon="-8.8846160">
        <ele>4.6</ele>
        <time>2021-05-19T09:46:11Z</time>
      </trkpt>
      <trkpt lat="42.0504030" lon="-8.8846060">
        <ele>4.7</ele>
        <time>2021-05-19T09:46:12Z</time>
      </trkpt>
      <trkpt lat="42.0504060" lon="-8.8845910">
        <ele>4.7</ele>
        <time>2021-05-19T09:46:13Z</time>
      </trkpt>
      <trkpt lat="42.0504130" lon="-8.8845790">
        <ele>4.8</ele>
        <time>2021-05-19T09:46:14Z</time>
      </trkpt>
      <trkpt lat="42.0504190" lon="-8.8845610">
        <ele>4.9</ele>
        <time>2021-05-19T09:46:15Z</time>
      </trkpt>
      <trkpt lat="42.0504270" lon="-8.8845470">
        <ele>5.0</ele>
        <time>2021-05-19T09:46:16Z</time>
      </trkpt>
      <trkpt lat="42.0504370" lon="-8.8845380">
        <ele>5.0</ele>
        <time>2021-05-19T09:46:17Z</time>
      </trkpt>
      <trkpt lat="42.0504470" lon="-8.8845460">
        <ele>5.1</ele>
        <time>2021-05-19T09:46:18Z</time>
      </trkpt>
      <trkpt lat="42.0504550" lon="-8.8845540">
        <ele>5.1</ele>
        <time>2021-05-19T09:46:19Z</time>
      </trkpt>
      <trkpt lat="42.0504670" lon="-8.8845510">
        <ele>5.2</ele>
        <time>2021-05-19T09:46:20Z</time>
      </trkpt>
      <trkpt lat="42.0504770" lon="-8.8845530">
        <ele>5.2</ele>
        <time>2021-05-19T09:46:21Z</time>
      </trkpt>
      <trkpt lat="42.0504940" lon="-8.8845580">
        <ele>5.3</ele>
        <time>2021-05-19T09:46:22Z</time>
      </trkpt>
      <trkpt lat="42.0505070" lon="-8.8845650">
        <ele>5.3</ele>
        <time>2021-05-19T09:46:23Z</time>
      </trkpt>
      <trkpt lat="42.0505220" lon="-8.8845640">
        <ele>5.4</ele>
        <time>2021-05-19T09:46:24Z</time>
      </trkpt>
      <trkpt lat="42.0505300" lon="-8.8845630">
        <ele>5.4</ele>
        <time>2021-05-19T09:46:25Z</time>
      </trkpt>
      <trkpt lat="42.0505390" lon="-8.8845660">
        <ele>5.4</ele>
        <time>2021-05-19T09:46:26Z</time>
      </trkpt>
      <trkpt lat="42.0505490" lon="-8.8845660">
        <ele>5.4</ele>
        <time>2021-05-19T09:46:27Z</time>
      </trkpt>
      <trkpt lat="42.0505620" lon="-8.8845700">
        <ele>5.5</ele>
        <time>2021-05-19T09:46:28Z</time>
      </trkpt>
      <trkpt lat="42.0505700" lon="-8.8845780">
        <ele>5.5</ele>
        <time>2021-05-19T09:46:29Z</time>
      </trkpt>
      <trkpt lat="42.0505820" lon="-8.8845810">
        <ele>5.5</ele>
        <time>2021-05-19T09:46:30Z</time>
      </trkpt>
      <trkpt lat="42.0505880" lon="-8.8845840">
        <ele>5.5</ele>
        <time>2021-05-19T09:46:31Z</time>
      </trkpt>
      <trkpt lat="42.0505970" lon="-8.8845890">
        <ele>5.5</ele>
        <time>2021-05-19T09:46:32Z</time>
      </trkpt>
      <trkpt lat="42.0506060" lon="-8.8845890">
        <ele>5.5</ele>
        <time>2021-05-19T09:46:33Z</time>
      </trkpt>
      <trkpt lat="42.0506200" lon="-8.8845900">
        <ele>5.5</ele>
        <time>2021-05-19T09:46:34Z</time>
      </trkpt>
      <trkpt lat="42.0506320" lon="-8.8845990">
        <ele>5.6</ele>
        <time>2021-05-19T09:46:35Z</time>
      </trkpt>
      <trkpt lat="42.0506500" lon="-8.8845990">
        <ele>5.6</ele>
        <time>2021-05-19T09:46:36Z</time>
      </trkpt>
      <trkpt lat="42.0506620" lon="-8.8846010">
        <ele>5.6</ele>
        <time>2021-05-19T09:46:37Z</time>
      </trkpt>
      <trkpt lat="42.0506720" lon="-8.8846020">
        <ele>5.6</ele>
        <time>2021-05-19T09:46:38Z</time>
      </trkpt>
      <trkpt lat="42.0506830" lon="-8.8846040">
        <ele>5.6</ele>
        <time>2021-05-19T09:46:39Z</time>
      </trkpt>
      <trkpt lat="42.0506970" lon="-8.8846110">
        <ele>5.6</ele>
        <time>2021-05-19T09:46:40Z</time>
      </trkpt>
      <trkpt lat="42.0507040" lon="-8.8846110">
        <ele>5.6</ele>
        <time>2021-05-19T09:46:41Z</time>
      </trkpt>
      <trkpt lat="42.0507180" lon="-8.8846150">
        <ele>5.6</ele>
        <time>2021-05-19T09:46:42Z</time>
      </trkpt>
      <trkpt lat="42.0507260" lon="-8.8846160">
        <ele>5.6</ele>
        <time>2021-05-19T09:46:43Z</time>
      </trkpt>
      <trkpt lat="42.0507470" lon="-8.8846150">
        <ele>5.6</ele>
        <time>2021-05-19T09:46:44Z</time>
      </trkpt>
      <trkpt lat="42.0507560" lon="-8.8846190">
        <ele>5.6</ele>
        <time>2021-05-19T09:46:45Z</time>
      </trkpt>
      <trkpt lat="42.0507640" lon="-8.8846220">
        <ele>5.6</ele>
        <time>2021-05-19T09:46:46Z</time>
      </trkpt>
      <trkpt lat="42.0507780" lon="-8.8846280">
        <ele>5.7</ele>
        <time>2021-05-19T09:46:47Z</time>
      </trkpt>
      <trkpt lat="42.0507910" lon="-8.8846320">
        <ele>5.7</ele>
        <time>2021-05-19T09:46:48Z</time>
      </trkpt>
      <trkpt lat="42.0508110" lon="-8.8846330">
        <ele>5.7</ele>
        <time>2021-05-19T09:46:49Z</time>
      </trkpt>
      <trkpt lat="42.0508200" lon="-8.8846340">
        <ele>5.7</ele>
        <time>2021-05-19T09:46:50Z</time>
      </trkpt>
      <trkpt lat="42.0508290" lon="-8.8846360">
        <ele>5.7</ele>
        <time>2021-05-19T09:46:51Z</time>
      </trkpt>
      <trkpt lat="42.0508360" lon="-8.8846370">
        <ele>5.7</ele>
        <time>2021-05-19T09:46:52Z</time>
      </trkpt>
      <trkpt lat="42.0508520" lon="-8.8846410">
        <ele>5.7</ele>
        <time>2021-05-19T09:46:53Z</time>
      </trkpt>
      <trkpt lat="42.0508600" lon="-8.8846410">
        <ele>5.7</ele>
        <time>2021-05-19T09:46:54Z</time>
      </trkpt>
      <trkpt lat="42.0508740" lon="-8.8846490">
        <ele>5.7</ele>
        <time>2021-05-19T09:46:55Z</time>
      </trkpt>
      <trkpt lat="42.0508880" lon="-8.8846520">
        <ele>5.7</ele>
        <time>2021-05-19T09:46:56Z</time>
      </trkpt>
      <trkpt lat="42.0508990" lon="-8.8846510">
        <ele>5.7</ele>
        <time>2021-05-19T09:46:57Z</time>
      </trkpt>
      <trkpt lat="42.0509100" lon="-8.8846520">
        <ele>5.7</ele>
        <time>2021-05-19T09:46:58Z</time>
      </trkpt>
      <trkpt lat="42.0509210" lon="-8.8846530">
        <ele>5.7</ele>
        <time>2021-05-19T09:46:59Z</time>
      </trkpt>
      <trkpt lat="42.0509370" lon="-8.8846540">
        <ele>5.7</ele>
        <time>2021-05-19T09:47:00Z</time>
      </trkpt>
      <trkpt lat="42.0509530" lon="-8.8846560">
        <ele>5.7</ele>
        <time>2021-05-19T09:47:01Z</time>
      </trkpt>
      <trkpt lat="42.0509660" lon="-8.8846590">
        <ele>5.7</ele>
        <time>2021-05-19T09:47:02Z</time>
      </trkpt>
      <trkpt lat="42.0509810" lon="-8.8846620">
        <ele>5.7</ele>
        <time>2021-05-19T09:47:03Z</time>
      </trkpt>
      <trkpt lat="42.0510020" lon="-8.8846660">
        <ele>5.7</ele>
        <time>2021-05-19T09:47:04Z</time>
      </trkpt>
      <trkpt lat="42.0510120" lon="-8.8846680">
        <ele>5.7</ele>
        <time>2021-05-19T09:47:05Z</time>
      </trkpt>
      <trkpt lat="42.0510210" lon="-8.8846690">
        <ele>5.7</ele>
        <time>2021-05-19T09:47:06Z</time>
      </trkpt>
      <trkpt lat="42.0510340" lon="-8.8846720">
        <ele>5.7</ele>
        <time>2021-05-19T09:47:07Z</time>
      </trkpt>
      <trkpt lat="42.0510480" lon="-8.8846730">
        <ele>5.7</ele>
        <time>2021-05-19T09:47:08Z</time>
      </trkpt>
      <trkpt lat="42.0510640" lon="-8.8846690">
        <ele>5.7</ele>
        <time>2021-05-19T09:47:09Z</time>
      </trkpt>
      <trkpt lat="42.0510780" lon="-8.8846680">
        <ele>5.7</ele>
        <time>2021-05-19T09:47:10Z</time>
      </trkpt>
      <trkpt lat="42.0510920" lon="-8.8846670">
        <ele>5.7</ele>
        <time>2021-05-19T09:47:11Z</time>
      </trkpt>
      <trkpt lat="42.0511060" lon="-8.8846650">
        <ele>5.8</ele>
        <time>2021-05-19T09:47:12Z</time>
      </trkpt>
      <trkpt lat="42.0511230" lon="-8.8846680">
        <ele>5.8</ele>
        <time>2021-05-19T09:47:13Z</time>
      </trkpt>
      <trkpt lat="42.0511290" lon="-8.8846710">
        <ele>5.8</ele>
        <time>2021-05-19T09:47:14Z</time>
      </trkpt>
      <trkpt lat="42.0511360" lon="-8.8846730">
        <ele>5.8</ele>
        <time>2021-05-19T09:47:15Z</time>
      </trkpt>
      <trkpt lat="42.0511420" lon="-8.8846760">
        <ele>5.8</ele>
        <time>2021-05-19T09:47:16Z</time>
      </trkpt>
      <trkpt lat="42.0511460" lon="-8.8846740">
        <ele>5.8</ele>
        <time>2021-05-19T09:47:17Z</time>
      </trkpt>
      <trkpt lat="42.0511570" lon="-8.8846750">
        <ele>5.8</ele>
        <time>2021-05-19T09:47:18Z</time>
      </trkpt>
      <trkpt lat="42.0511630" lon="-8.8846750">
        <ele>5.8</ele>
        <time>2021-05-19T09:47:19Z</time>
      </trkpt>
      <trkpt lat="42.0511660" lon="-8.8846780">
        <ele>5.8</ele>
        <time>2021-05-19T09:47:20Z</time>
      </trkpt>
      <trkpt lat="42.0511750" lon="-8.8846770">
        <ele>5.8</ele>
        <time>2021-05-19T09:47:21Z</time>
      </trkpt>
      <trkpt lat="42.0511840" lon="-8.8846810">
        <ele>5.8</ele>
        <time>2021-05-19T09:47:22Z</time>
      </trkpt>
      <trkpt lat="42.0511910" lon="-8.8846820">
        <ele>5.8</ele>
        <time>2021-05-19T09:47:23Z</time>
      </trkpt>
      <trkpt lat="42.0511980" lon="-8.8846840">
        <ele>5.8</ele>
        <time>2021-05-19T09:47:24Z</time>
      </trkpt>
      <trkpt lat="42.0512050" lon="-8.8846850">
        <ele>5.8</ele>
        <time>2021-05-19T09:47:25Z</time>
      </trkpt>
      <trkpt lat="42.0512120" lon="-8.8846860">
        <ele>5.8</ele>
        <time>2021-05-19T09:47:26Z</time>
      </trkpt>
      <trkpt lat="42.0512240" lon="-8.8846880">
        <ele>5.8</ele>
        <time>2021-05-19T09:47:27Z</time>
      </trkpt>
      <trkpt lat="42.0512330" lon="-8.8846870">
        <ele>5.8</ele>
        <time>2021-05-19T09:47:28Z</time>
      </trkpt>
      <trkpt lat="42.0512470" lon="-8.8846880">
        <ele>5.8</ele>
        <time>2021-05-19T09:47:29Z</time>
      </trkpt>
      <trkpt lat="42.0512540" lon="-8.8846890">
        <ele>5.8</ele>
        <time>2021-05-19T09:47:30Z</time>
      </trkpt>
      <trkpt lat="42.0512640" lon="-8.8846910">
        <ele>5.9</ele>
        <time>2021-05-19T09:47:31Z</time>
      </trkpt>
      <trkpt lat="42.0512770" lon="-8.8846980">
        <ele>6.0</ele>
        <time>2021-05-19T09:47:32Z</time>
      </trkpt>
      <trkpt lat="42.0512970" lon="-8.8847100">
        <ele>6.1</ele>
        <time>2021-05-19T09:47:33Z</time>
      </trkpt>
      <trkpt lat="42.0513060" lon="-8.8847140">
        <ele>6.1</ele>
        <time>2021-05-19T09:47:34Z</time>
      </trkpt>
      <trkpt lat="42.0513150" lon="-8.8847180">
        <ele>6.2</ele>
        <time>2021-05-19T09:47:35Z</time>
      </trkpt>
      <trkpt lat="42.0513330" lon="-8.8847210">
        <ele>6.3</ele>
        <time>2021-05-19T09:47:36Z</time>
      </trkpt>
      <trkpt lat="42.0513410" lon="-8.8847220">
        <ele>6.3</ele>
        <time>2021-05-19T09:47:37Z</time>
      </trkpt>
      <trkpt lat="42.0513480" lon="-8.8847230">
        <ele>6.4</ele>
        <time>2021-05-19T09:47:38Z</time>
      </trkpt>
      <trkpt lat="42.0513760" lon="-8.8847300">
        <ele>6.6</ele>
        <time>2021-05-19T09:47:39Z</time>
      </trkpt>
      <trkpt lat="42.0513870" lon="-8.8847310">
        <ele>6.6</ele>
        <time>2021-05-19T09:47:40Z</time>
      </trkpt>
      <trkpt lat="42.0513840" lon="-8.8847340">
        <ele>6.6</ele>
        <time>2021-05-19T09:47:41Z</time>
      </trkpt>
      <trkpt lat="42.0513970" lon="-8.8847370">
        <ele>6.7</ele>
        <time>2021-05-19T09:47:42Z</time>
      </trkpt>
      <trkpt lat="42.0514090" lon="-8.8847420">
        <ele>6.8</ele>
        <time>2021-05-19T09:47:43Z</time>
      </trkpt>
      <trkpt lat="42.0514180" lon="-8.8847440">
        <ele>6.9</ele>
        <time>2021-05-19T09:47:44Z</time>
      </trkpt>
      <trkpt lat="42.0514340" lon="-8.8847480">
        <ele>7.0</ele>
        <time>2021-05-19T09:47:45Z</time>
      </trkpt>
      <trkpt lat="42.0514470" lon="-8.8847570">
        <ele>7.1</ele>
        <time>2021-05-19T09:47:46Z</time>
      </trkpt>
      <trkpt lat="42.0514570" lon="-8.8847550">
        <ele>7.1</ele>
        <time>2021-05-19T09:47:47Z</time>
      </trkpt>
      <trkpt lat="42.0514700" lon="-8.8847510">
        <ele>7.2</ele>
        <time>2021-05-19T09:47:48Z</time>
      </trkpt>
      <trkpt lat="42.0514800" lon="-8.8847580">
        <ele>7.3</ele>
        <time>2021-05-19T09:47:49Z</time>
      </trkpt>
      <trkpt lat="42.0514860" lon="-8.8847630">
        <ele>7.3</ele>
        <time>2021-05-19T09:47:50Z</time>
      </trkpt>
      <trkpt lat="42.0514960" lon="-8.8847650">
        <ele>7.4</ele>
        <time>2021-05-19T09:47:51Z</time>
      </trkpt>
      <trkpt lat="42.0515100" lon="-8.8847760">
        <ele>7.5</ele>
        <time>2021-05-19T09:47:52Z</time>
      </trkpt>
      <trkpt lat="42.0515190" lon="-8.8847830">
        <ele>7.5</ele>
        <time>2021-05-19T09:47:53Z</time>
      </trkpt>
      <trkpt lat="42.0515250" lon="-8.8847890">
        <ele>7.6</ele>
        <time>2021-05-19T09:47:54Z</time>
      </trkpt>
      <trkpt lat="42.0515380" lon="-8.8848010">
        <ele>7.7</ele>
        <time>2021-05-19T09:47:55Z</time>
      </trkpt>
      <trkpt lat="42.0515430" lon="-8.8848070">
        <ele>7.7</ele>
        <time>2021-05-19T09:47:56Z</time>
      </trkpt>
      <trkpt lat="42.0515540" lon="-8.8848170">
        <ele>7.8</ele>
        <time>2021-05-19T09:47:57Z</time>
      </trkpt>
      <trkpt lat="42.0515560" lon="-8.8848320">
        <ele>7.8</ele>
        <time>2021-05-19T09:47:58Z</time>
      </trkpt>
      <trkpt lat="42.0515640" lon="-8.8848460">
        <ele>7.9</ele>
        <time>2021-05-19T09:47:59Z</time>
      </trkpt>
      <trkpt lat="42.0515770" lon="-8.8848620">
        <ele>7.8</ele>
        <time>2021-05-19T09:48:00Z</time>
      </trkpt>
      <trkpt lat="42.0515830" lon="-8.8848810">
        <ele>7.8</ele>
        <time>2021-05-19T09:48:01Z</time>
      </trkpt>
      <trkpt lat="42.0515950" lon="-8.8848940">
        <ele>7.7</ele>
        <time>2021-05-19T09:48:02Z</time>
      </trkpt>
      <trkpt lat="42.0516050" lon="-8.8849190">
        <ele>7.6</ele>
        <time>2021-05-19T09:48:03Z</time>
      </trkpt>
      <trkpt lat="42.0516090" lon="-8.8849280">
        <ele>7.6</ele>
        <time>2021-05-19T09:48:04Z</time>
      </trkpt>
      <trkpt lat="42.0516130" lon="-8.8849380">
        <ele>7.5</ele>
        <time>2021-05-19T09:48:05Z</time>
      </trkpt>
      <trkpt lat="42.0516240" lon="-8.8849690">
        <ele>7.4</ele>
        <time>2021-05-19T09:48:06Z</time>
      </trkpt>
      <trkpt lat="42.0516270" lon="-8.8849770">
        <ele>7.4</ele>
        <time>2021-05-19T09:48:07Z</time>
      </trkpt>
      <trkpt lat="42.0516300" lon="-8.8849860">
        <ele>7.4</ele>
        <time>2021-05-19T09:48:08Z</time>
      </trkpt>
      <trkpt lat="42.0516340" lon="-8.8849980">
        <ele>7.3</ele>
        <time>2021-05-19T09:48:09Z</time>
      </trkpt>
      <trkpt lat="42.0516390" lon="-8.8850170">
        <ele>7.3</ele>
        <time>2021-05-19T09:48:10Z</time>
      </trkpt>
      <trkpt lat="42.0516400" lon="-8.8850250">
        <ele>7.3</ele>
        <time>2021-05-19T09:48:11Z</time>
      </trkpt>
      <trkpt lat="42.0516450" lon="-8.8850420">
        <ele>7.2</ele>
        <time>2021-05-19T09:48:12Z</time>
      </trkpt>
      <trkpt lat="42.0516460" lon="-8.8850620">
        <ele>7.2</ele>
        <time>2021-05-19T09:48:13Z</time>
      </trkpt>
      <trkpt lat="42.0516480" lon="-8.8850780">
        <ele>7.2</ele>
        <time>2021-05-19T09:48:14Z</time>
      </trkpt>
      <trkpt lat="42.0516490" lon="-8.8850960">
        <ele>7.1</ele>
        <time>2021-05-19T09:48:15Z</time>
      </trkpt>
      <trkpt lat="42.0516520" lon="-8.8851080">
        <ele>7.1</ele>
        <time>2021-05-19T09:48:16Z</time>
      </trkpt>
      <trkpt lat="42.0516530" lon="-8.8851270">
        <ele>7.1</ele>
        <time>2021-05-19T09:48:17Z</time>
      </trkpt>
      <trkpt lat="42.0516560" lon="-8.8851410">
        <ele>7.0</ele>
        <time>2021-05-19T09:48:18Z</time>
      </trkpt>
      <trkpt lat="42.0516580" lon="-8.8851550">
        <ele>7.0</ele>
        <time>2021-05-19T09:48:19Z</time>
      </trkpt>
      <trkpt lat="42.0516590" lon="-8.8851630">
        <ele>7.0</ele>
        <time>2021-05-19T09:48:20Z</time>
      </trkpt>
      <trkpt lat="42.0516640" lon="-8.8851800">
        <ele>7.0</ele>
        <time>2021-05-19T09:48:21Z</time>
      </trkpt>
      <trkpt lat="42.0516670" lon="-8.8851940">
        <ele>7.0</ele>
        <time>2021-05-19T09:48:22Z</time>
      </trkpt>
      <trkpt lat="42.0516790" lon="-8.8852250">
        <ele>6.9</ele>
        <time>2021-05-19T09:48:23Z</time>
      </trkpt>
      <trkpt lat="42.0516830" lon="-8.8852360">
        <ele>6.9</ele>
        <time>2021-05-19T09:48:24Z</time>
      </trkpt>
      <trkpt lat="42.0516870" lon="-8.8852470">
        <ele>6.9</ele>
        <time>2021-05-19T09:48:25Z</time>
      </trkpt>
      <trkpt lat="42.0516920" lon="-8.8852710">
        <ele>6.9</ele>
        <time>2021-05-19T09:48:26Z</time>
      </trkpt>
      <trkpt lat="42.0516960" lon="-8.8852850">
        <ele>6.9</ele>
        <time>2021-05-19T09:48:27Z</time>
      </trkpt>
      <trkpt lat="42.0517000" lon="-8.8852980">
        <ele>6.9</ele>
        <time>2021-05-19T09:48:28Z</time>
      </trkpt>
      <trkpt lat="42.0517010" lon="-8.8853150">
        <ele>6.9</ele>
        <time>2021-05-19T09:48:29Z</time>
      </trkpt>
      <trkpt lat="42.0517070" lon="-8.8853340">
        <ele>6.9</ele>
        <time>2021-05-19T09:48:30Z</time>
      </trkpt>
      <trkpt lat="42.0517090" lon="-8.8853530">
        <ele>6.9</ele>
        <time>2021-05-19T09:48:31Z</time>
      </trkpt>
      <trkpt lat="42.0517130" lon="-8.8853690">
        <ele>6.9</ele>
        <time>2021-05-19T09:48:32Z</time>
      </trkpt>
      <trkpt lat="42.0517170" lon="-8.8853880">
        <ele>6.9</ele>
        <time>2021-05-19T09:48:33Z</time>
      </trkpt>
      <trkpt lat="42.0517170" lon="-8.8854040">
        <ele>6.8</ele>
        <time>2021-05-19T09:48:34Z</time>
      </trkpt>
      <trkpt lat="42.0517170" lon="-8.8854160">
        <ele>6.8</ele>
        <time>2021-05-19T09:48:35Z</time>
      </trkpt>
      <trkpt lat="42.0517200" lon="-8.8854460">
        <ele>6.8</ele>
        <time>2021-05-19T09:48:36Z</time>
      </trkpt>
      <trkpt lat="42.0517260" lon="-8.8854570">
        <ele>6.8</ele>
        <time>2021-05-19T09:48:37Z</time>
      </trkpt>
      <trkpt lat="42.0517310" lon="-8.8854690">
        <ele>6.8</ele>
        <time>2021-05-19T09:48:38Z</time>
      </trkpt>
      <trkpt lat="42.0517310" lon="-8.8854890">
        <ele>6.8</ele>
        <time>2021-05-19T09:48:39Z</time>
      </trkpt>
      <trkpt lat="42.0517330" lon="-8.8855110">
        <ele>6.8</ele>
        <time>2021-05-19T09:48:40Z</time>
      </trkpt>
      <trkpt lat="42.0517320" lon="-8.8855210">
        <ele>6.8</ele>
        <time>2021-05-19T09:48:41Z</time>
      </trkpt>
      <trkpt lat="42.0517310" lon="-8.8855360">
        <ele>6.8</ele>
        <time>2021-05-19T09:48:42Z</time>
      </trkpt>
      <trkpt lat="42.0517330" lon="-8.8855500">
        <ele>6.9</ele>
        <time>2021-05-19T09:48:43Z</time>
      </trkpt>
      <trkpt lat="42.0517390" lon="-8.8855780">
        <ele>6.9</ele>
        <time>2021-05-19T09:48:44Z</time>
      </trkpt>
      <trkpt lat="42.0517420" lon="-8.8855890">
        <ele>6.9</ele>
        <time>2021-05-19T09:48:45Z</time>
      </trkpt>
      <trkpt lat="42.0517450" lon="-8.8855990">
        <ele>6.9</ele>
        <time>2021-05-19T09:48:46Z</time>
      </trkpt>
      <trkpt lat="42.0517450" lon="-8.8856210">
        <ele>6.9</ele>
        <time>2021-05-19T09:48:47Z</time>
      </trkpt>
      <trkpt lat="42.0517460" lon="-8.8856370">
        <ele>6.9</ele>
        <time>2021-05-19T09:48:48Z</time>
      </trkpt>
      <trkpt lat="42.0517490" lon="-8.8856530">
        <ele>6.9</ele>
        <time>2021-05-19T09:48:49Z</time>
      </trkpt>
      <trkpt lat="42.0517480" lon="-8.8856730">
        <ele>6.9</ele>
        <time>2021-05-19T09:48:50Z</time>
      </trkpt>
      <trkpt lat="42.0517510" lon="-8.8856860">
        <ele>6.9</ele>
        <time>2021-05-19T09:48:51Z</time>
      </trkpt>
      <trkpt lat="42.0517560" lon="-8.8856970">
        <ele>6.9</ele>
        <time>2021-05-19T09:48:52Z</time>
      </trkpt>
      <trkpt lat="42.0517620" lon="-8.8857160">
        <ele>6.9</ele>
        <time>2021-05-19T09:48:53Z</time>
      </trkpt>
      <trkpt lat="42.0517680" lon="-8.8857440">
        <ele>6.9</ele>
        <time>2021-05-19T09:48:54Z</time>
      </trkpt>
      <trkpt lat="42.0517710" lon="-8.8857540">
        <ele>6.9</ele>
        <time>2021-05-19T09:48:55Z</time>
      </trkpt>
      <trkpt lat="42.0517730" lon="-8.8857650">
        <ele>6.9</ele>
        <time>2021-05-19T09:48:56Z</time>
      </trkpt>
      <trkpt lat="42.0517720" lon="-8.8857790">
        <ele>6.9</ele>
        <time>2021-05-19T09:48:57Z</time>
      </trkpt>
      <trkpt lat="42.0517740" lon="-8.8857900">
        <ele>6.9</ele>
        <time>2021-05-19T09:48:58Z</time>
      </trkpt>
      <trkpt lat="42.0517740" lon="-8.8857980">
        <ele>6.9</ele>
        <time>2021-05-19T09:48:59Z</time>
      </trkpt>
      <trkpt lat="42.0517790" lon="-8.8858100">
        <ele>7.0</ele>
        <time>2021-05-19T09:49:00Z</time>
      </trkpt>
      <trkpt lat="42.0517850" lon="-8.8858360">
        <ele>7.0</ele>
        <time>2021-05-19T09:49:01Z</time>
      </trkpt>
      <trkpt lat="42.0517900" lon="-8.8858480">
        <ele>7.0</ele>
        <time>2021-05-19T09:49:02Z</time>
      </trkpt>
      <trkpt lat="42.0517950" lon="-8.8858610">
        <ele>7.0</ele>
        <time>2021-05-19T09:49:03Z</time>
      </trkpt>
      <trkpt lat="42.0517960" lon="-8.8858810">
        <ele>7.0</ele>
        <time>2021-05-19T09:49:04Z</time>
      </trkpt>
      <trkpt lat="42.0517980" lon="-8.8859020">
        <ele>7.0</ele>
        <time>2021-05-19T09:49:05Z</time>
      </trkpt>
      <trkpt lat="42.0518090" lon="-8.8859230">
        <ele>7.1</ele>
        <time>2021-05-19T09:49:06Z</time>
      </trkpt>
      <trkpt lat="42.0518150" lon="-8.8859320">
        <ele>7.1</ele>
        <time>2021-05-19T09:49:07Z</time>
      </trkpt>
      <trkpt lat="42.0518200" lon="-8.8859420">
        <ele>7.1</ele>
        <time>2021-05-19T09:49:08Z</time>
      </trkpt>
      <trkpt lat="42.0518170" lon="-8.8859550">
        <ele>7.1</ele>
        <time>2021-05-19T09:49:09Z</time>
      </trkpt>
      <trkpt lat="42.0518180" lon="-8.8859760">
        <ele>7.1</ele>
        <time>2021-05-19T09:49:10Z</time>
      </trkpt>
      <trkpt lat="42.0518310" lon="-8.8859860">
        <ele>7.1</ele>
        <time>2021-05-19T09:49:11Z</time>
      </trkpt>
      <trkpt lat="42.0518400" lon="-8.8860080">
        <ele>7.1</ele>
        <time>2021-05-19T09:49:12Z</time>
      </trkpt>
      <trkpt lat="42.0518410" lon="-8.8860220">
        <ele>7.1</ele>
        <time>2021-05-19T09:49:13Z</time>
      </trkpt>
      <trkpt lat="42.0518460" lon="-8.8860350">
        <ele>7.2</ele>
        <time>2021-05-19T09:49:14Z</time>
      </trkpt>
      <trkpt lat="42.0518480" lon="-8.8860510">
        <ele>7.2</ele>
        <time>2021-05-19T09:49:15Z</time>
      </trkpt>
      <trkpt lat="42.0518560" lon="-8.8860650">
        <ele>7.2</ele>
        <time>2021-05-19T09:49:16Z</time>
      </trkpt>
      <trkpt lat="42.0518580" lon="-8.8860830">
        <ele>7.2</ele>
        <time>2021-05-19T09:49:17Z</time>
      </trkpt>
      <trkpt lat="42.0518650" lon="-8.8861000">
        <ele>7.2</ele>
        <time>2021-05-19T09:49:18Z</time>
      </trkpt>
      <trkpt lat="42.0518700" lon="-8.8861290">
        <ele>7.3</ele>
        <time>2021-05-19T09:49:19Z</time>
      </trkpt>
      <trkpt lat="42.0518730" lon="-8.8861390">
        <ele>7.3</ele>
        <time>2021-05-19T09:49:20Z</time>
      </trkpt>
      <trkpt lat="42.0518750" lon="-8.8861490">
        <ele>7.3</ele>
        <time>2021-05-19T09:49:21Z</time>
      </trkpt>
      <trkpt lat="42.0518780" lon="-8.8861650">
        <ele>7.3</ele>
        <time>2021-05-19T09:49:22Z</time>
      </trkpt>
      <trkpt lat="42.0518750" lon="-8.8861860">
        <ele>7.3</ele>
        <time>2021-05-19T09:49:23Z</time>
      </trkpt>
      <trkpt lat="42.0518810" lon="-8.8862130">
        <ele>7.4</ele>
        <time>2021-05-19T09:49:24Z</time>
      </trkpt>
      <trkpt lat="42.0518800" lon="-8.8862260">
        <ele>7.4</ele>
        <time>2021-05-19T09:49:25Z</time>
      </trkpt>
      <trkpt lat="42.0518800" lon="-8.8862390">
        <ele>7.4</ele>
        <time>2021-05-19T09:49:26Z</time>
      </trkpt>
      <trkpt lat="42.0518820" lon="-8.8862610">
        <ele>7.4</ele>
        <time>2021-05-19T09:49:27Z</time>
      </trkpt>
      <trkpt lat="42.0518880" lon="-8.8862700">
        <ele>7.4</ele>
        <time>2021-05-19T09:49:28Z</time>
      </trkpt>
      <trkpt lat="42.0518850" lon="-8.8862850">
        <ele>7.5</ele>
        <time>2021-05-19T09:49:29Z</time>
      </trkpt>
      <trkpt lat="42.0518900" lon="-8.8863110">
        <ele>7.5</ele>
        <time>2021-05-19T09:49:30Z</time>
      </trkpt>
      <trkpt lat="42.0518900" lon="-8.8863270">
        <ele>7.5</ele>
        <time>2021-05-19T09:49:31Z</time>
      </trkpt>
      <trkpt lat="42.0518900" lon="-8.8863420">
        <ele>7.5</ele>
        <time>2021-05-19T09:49:32Z</time>
      </trkpt>
      <trkpt lat="42.0518950" lon="-8.8863590">
        <ele>7.6</ele>
        <time>2021-05-19T09:49:33Z</time>
      </trkpt>
      <trkpt lat="42.0518950" lon="-8.8863780">
        <ele>7.6</ele>
        <time>2021-05-19T09:49:34Z</time>
      </trkpt>
      <trkpt lat="42.0518970" lon="-8.8864010">
        <ele>7.6</ele>
        <time>2021-05-19T09:49:35Z</time>
      </trkpt>
      <trkpt lat="42.0519040" lon="-8.8864170">
        <ele>7.6</ele>
        <time>2021-05-19T09:49:36Z</time>
      </trkpt>
      <trkpt lat="42.0519050" lon="-8.8864270">
        <ele>7.7</ele>
        <time>2021-05-19T09:49:37Z</time>
      </trkpt>
      <trkpt lat="42.0519070" lon="-8.8864410">
        <ele>7.7</ele>
        <time>2021-05-19T09:49:38Z</time>
      </trkpt>
      <trkpt lat="42.0519090" lon="-8.8864600">
        <ele>7.7</ele>
        <time>2021-05-19T09:49:39Z</time>
      </trkpt>
      <trkpt lat="42.0519110" lon="-8.8864820">
        <ele>7.7</ele>
        <time>2021-05-19T09:49:40Z</time>
      </trkpt>
      <trkpt lat="42.0519120" lon="-8.8865020">
        <ele>7.8</ele>
        <time>2021-05-19T09:49:41Z</time>
      </trkpt>
      <trkpt lat="42.0519150" lon="-8.8865240">
        <ele>7.8</ele>
        <time>2021-05-19T09:49:42Z</time>
      </trkpt>
      <trkpt lat="42.0519150" lon="-8.8865330">
        <ele>7.8</ele>
        <time>2021-05-19T09:49:43Z</time>
      </trkpt>
      <trkpt lat="42.0519160" lon="-8.8865430">
        <ele>7.8</ele>
        <time>2021-05-19T09:49:44Z</time>
      </trkpt>
      <trkpt lat="42.0519160" lon="-8.8865530">
        <ele>7.8</ele>
        <time>2021-05-19T09:49:45Z</time>
      </trkpt>
      <trkpt lat="42.0519220" lon="-8.8865720">
        <ele>7.9</ele>
        <time>2021-05-19T09:49:46Z</time>
      </trkpt>
      <trkpt lat="42.0519240" lon="-8.8865890">
        <ele>7.9</ele>
        <time>2021-05-19T09:49:47Z</time>
      </trkpt>
      <trkpt lat="42.0519270" lon="-8.8866010">
        <ele>7.9</ele>
        <time>2021-05-19T09:49:48Z</time>
      </trkpt>
      <trkpt lat="42.0519280" lon="-8.8866110">
        <ele>7.9</ele>
        <time>2021-05-19T09:49:49Z</time>
      </trkpt>
      <trkpt lat="42.0519340" lon="-8.8866290">
        <ele>7.9</ele>
        <time>2021-05-19T09:49:50Z</time>
      </trkpt>
      <trkpt lat="42.0519390" lon="-8.8866490">
        <ele>8.0</ele>
        <time>2021-05-19T09:49:51Z</time>
      </trkpt>
      <trkpt lat="42.0519470" lon="-8.8866620">
        <ele>8.0</ele>
        <time>2021-05-19T09:49:52Z</time>
      </trkpt>
      <trkpt lat="42.0519530" lon="-8.8866840">
        <ele>8.0</ele>
        <time>2021-05-19T09:49:53Z</time>
      </trkpt>
      <trkpt lat="42.0519560" lon="-8.8866980">
        <ele>8.0</ele>
        <time>2021-05-19T09:49:54Z</time>
      </trkpt>
      <trkpt lat="42.0519610" lon="-8.8867120">
        <ele>8.1</ele>
        <time>2021-05-19T09:49:55Z</time>
      </trkpt>
      <trkpt lat="42.0519620" lon="-8.8867270">
        <ele>8.1</ele>
        <time>2021-05-19T09:49:56Z</time>
      </trkpt>
      <trkpt lat="42.0519620" lon="-8.8867430">
        <ele>8.1</ele>
        <time>2021-05-19T09:49:57Z</time>
      </trkpt>
      <trkpt lat="42.0519650" lon="-8.8867550">
        <ele>8.1</ele>
        <time>2021-05-19T09:49:58Z</time>
      </trkpt>
      <trkpt lat="42.0519700" lon="-8.8867710">
        <ele>8.1</ele>
        <time>2021-05-19T09:49:59Z</time>
      </trkpt>
      <trkpt lat="42.0519730" lon="-8.8867830">
        <ele>8.2</ele>
        <time>2021-05-19T09:50:00Z</time>
      </trkpt>
      <trkpt lat="42.0519840" lon="-8.8868080">
        <ele>8.2</ele>
        <time>2021-05-19T09:50:01Z</time>
      </trkpt>
      <trkpt lat="42.0519880" lon="-8.8868200">
        <ele>8.2</ele>
        <time>2021-05-19T09:50:02Z</time>
      </trkpt>
      <trkpt lat="42.0519910" lon="-8.8868320">
        <ele>8.2</ele>
        <time>2021-05-19T09:50:03Z</time>
      </trkpt>
      <trkpt lat="42.0519950" lon="-8.8868480">
        <ele>8.3</ele>
        <time>2021-05-19T09:50:04Z</time>
      </trkpt>
      <trkpt lat="42.0520040" lon="-8.8868660">
        <ele>8.3</ele>
        <time>2021-05-19T09:50:05Z</time>
      </trkpt>
      <trkpt lat="42.0520060" lon="-8.8868850">
        <ele>8.3</ele>
        <time>2021-05-19T09:50:06Z</time>
      </trkpt>
      <trkpt lat="42.0520070" lon="-8.8868990">
        <ele>8.3</ele>
        <time>2021-05-19T09:50:07Z</time>
      </trkpt>
      <trkpt lat="42.0520150" lon="-8.8869120">
        <ele>8.4</ele>
        <time>2021-05-19T09:50:08Z</time>
      </trkpt>
      <trkpt lat="42.0520210" lon="-8.8869250">
        <ele>8.4</ele>
        <time>2021-05-19T09:50:09Z</time>
      </trkpt>
      <trkpt lat="42.0520240" lon="-8.8869370">
        <ele>8.4</ele>
        <time>2021-05-19T09:50:10Z</time>
      </trkpt>
      <trkpt lat="42.0520270" lon="-8.8869540">
        <ele>8.4</ele>
        <time>2021-05-19T09:50:11Z</time>
      </trkpt>
      <trkpt lat="42.0520360" lon="-8.8869730">
        <ele>8.4</ele>
        <time>2021-05-19T09:50:12Z</time>
      </trkpt>
      <trkpt lat="42.0520440" lon="-8.8869900">
        <ele>8.5</ele>
        <time>2021-05-19T09:50:13Z</time>
      </trkpt>
      <trkpt lat="42.0520500" lon="-8.8870010">
        <ele>8.5</ele>
        <time>2021-05-19T09:50:14Z</time>
      </trkpt>
      <trkpt lat="42.0520560" lon="-8.8870190">
        <ele>8.5</ele>
        <time>2021-05-19T09:50:15Z</time>
      </trkpt>
      <trkpt lat="42.0520570" lon="-8.8870330">
        <ele>8.5</ele>
        <time>2021-05-19T09:50:16Z</time>
      </trkpt>
      <trkpt lat="42.0520650" lon="-8.8870480">
        <ele>8.6</ele>
        <time>2021-05-19T09:50:17Z</time>
      </trkpt>
      <trkpt lat="42.0520710" lon="-8.8870570">
        <ele>8.6</ele>
        <time>2021-05-19T09:50:18Z</time>
      </trkpt>
      <trkpt lat="42.0520720" lon="-8.8870710">
        <ele>8.6</ele>
        <time>2021-05-19T09:50:19Z</time>
      </trkpt>
      <trkpt lat="42.0520770" lon="-8.8870810">
        <ele>8.6</ele>
        <time>2021-05-19T09:50:20Z</time>
      </trkpt>
      <trkpt lat="42.0520780" lon="-8.8870970">
        <ele>8.6</ele>
        <time>2021-05-19T09:50:21Z</time>
      </trkpt>
      <trkpt lat="42.0520830" lon="-8.8871100">
        <ele>8.7</ele>
        <time>2021-05-19T09:50:22Z</time>
      </trkpt>
      <trkpt lat="42.0520960" lon="-8.8871230">
        <ele>8.7</ele>
        <time>2021-05-19T09:50:23Z</time>
      </trkpt>
      <trkpt lat="42.0521040" lon="-8.8871390">
        <ele>8.7</ele>
        <time>2021-05-19T09:50:24Z</time>
      </trkpt>
      <trkpt lat="42.0521210" lon="-8.8871630">
        <ele>8.8</ele>
        <time>2021-05-19T09:50:25Z</time>
      </trkpt>
      <trkpt lat="42.0521270" lon="-8.8871700">
        <ele>8.8</ele>
        <time>2021-05-19T09:50:26Z</time>
      </trkpt>
      <trkpt lat="42.0521320" lon="-8.8871780">
        <ele>8.8</ele>
        <time>2021-05-19T09:50:27Z</time>
      </trkpt>
      <trkpt lat="42.0521340" lon="-8.8871880">
        <ele>8.8</ele>
        <time>2021-05-19T09:50:28Z</time>
      </trkpt>
      <trkpt lat="42.0521410" lon="-8.8872040">
        <ele>8.8</ele>
        <time>2021-05-19T09:50:29Z</time>
      </trkpt>
      <trkpt lat="42.0521520" lon="-8.8872170">
        <ele>8.9</ele>
        <time>2021-05-19T09:50:30Z</time>
      </trkpt>
      <trkpt lat="42.0521650" lon="-8.8872410">
        <ele>8.9</ele>
        <time>2021-05-19T09:50:31Z</time>
      </trkpt>
      <trkpt lat="42.0521700" lon="-8.8872500">
        <ele>8.9</ele>
        <time>2021-05-19T09:50:32Z</time>
      </trkpt>
      <trkpt lat="42.0521740" lon="-8.8872600">
        <ele>8.9</ele>
        <time>2021-05-19T09:50:33Z</time>
      </trkpt>
      <trkpt lat="42.0521860" lon="-8.8872750">
        <ele>9.0</ele>
        <time>2021-05-19T09:50:34Z</time>
      </trkpt>
      <trkpt lat="42.0521960" lon="-8.8872830">
        <ele>9.0</ele>
        <time>2021-05-19T09:50:35Z</time>
      </trkpt>
      <trkpt lat="42.0522030" lon="-8.8872860">
        <ele>9.0</ele>
        <time>2021-05-19T09:50:36Z</time>
      </trkpt>
      <trkpt lat="42.0522130" lon="-8.8873010">
        <ele>9.0</ele>
        <time>2021-05-19T09:50:37Z</time>
      </trkpt>
      <trkpt lat="42.0522230" lon="-8.8873100">
        <ele>9.1</ele>
        <time>2021-05-19T09:50:38Z</time>
      </trkpt>
      <trkpt lat="42.0522370" lon="-8.8873290">
        <ele>9.1</ele>
        <time>2021-05-19T09:50:39Z</time>
      </trkpt>
      <trkpt lat="42.0522490" lon="-8.8873330">
        <ele>9.1</ele>
        <time>2021-05-19T09:50:40Z</time>
      </trkpt>
      <trkpt lat="42.0522550" lon="-8.8873350">
        <ele>9.1</ele>
        <time>2021-05-19T09:50:41Z</time>
      </trkpt>
      <trkpt lat="42.0522700" lon="-8.8873460">
        <ele>9.2</ele>
        <time>2021-05-19T09:50:42Z</time>
      </trkpt>
      <trkpt lat="42.0522720" lon="-8.8873630">
        <ele>9.2</ele>
        <time>2021-05-19T09:50:43Z</time>
      </trkpt>
      <trkpt lat="42.0522890" lon="-8.8873820">
        <ele>9.2</ele>
        <time>2021-05-19T09:50:44Z</time>
      </trkpt>
      <trkpt lat="42.0522960" lon="-8.8873900">
        <ele>9.2</ele>
        <time>2021-05-19T09:50:45Z</time>
      </trkpt>
      <trkpt lat="42.0523030" lon="-8.8873990">
        <ele>9.3</ele>
        <time>2021-05-19T09:50:46Z</time>
      </trkpt>
      <trkpt lat="42.0523200" lon="-8.8874120">
        <ele>9.3</ele>
        <time>2021-05-19T09:50:47Z</time>
      </trkpt>
      <trkpt lat="42.0523280" lon="-8.8874170">
        <ele>9.3</ele>
        <time>2021-05-19T09:50:48Z</time>
      </trkpt>
      <trkpt lat="42.0523370" lon="-8.8874220">
        <ele>9.3</ele>
        <time>2021-05-19T09:50:49Z</time>
      </trkpt>
      <trkpt lat="42.0523420" lon="-8.8874320">
        <ele>9.3</ele>
        <time>2021-05-19T09:50:50Z</time>
      </trkpt>
      <trkpt lat="42.0523540" lon="-8.8874420">
        <ele>9.4</ele>
        <time>2021-05-19T09:50:51Z</time>
      </trkpt>
      <trkpt lat="42.0523580" lon="-8.8874530">
        <ele>9.4</ele>
        <time>2021-05-19T09:50:52Z</time>
      </trkpt>
      <trkpt lat="42.0523690" lon="-8.8874670">
        <ele>9.4</ele>
        <time>2021-05-19T09:50:53Z</time>
      </trkpt>
      <trkpt lat="42.0523780" lon="-8.8874710">
        <ele>9.4</ele>
        <time>2021-05-19T09:50:54Z</time>
      </trkpt>
      <trkpt lat="42.0523830" lon="-8.8874840">
        <ele>9.4</ele>
        <time>2021-05-19T09:50:55Z</time>
      </trkpt>
      <trkpt lat="42.0524010" lon="-8.8875000">
        <ele>9.5</ele>
        <time>2021-05-19T09:50:56Z</time>
      </trkpt>
      <trkpt lat="42.0524090" lon="-8.8875070">
        <ele>9.5</ele>
        <time>2021-05-19T09:50:57Z</time>
      </trkpt>
      <trkpt lat="42.0524240" lon="-8.8875260">
        <ele>9.5</ele>
        <time>2021-05-19T09:50:58Z</time>
      </trkpt>
      <trkpt lat="42.0524330" lon="-8.8875330">
        <ele>9.5</ele>
        <time>2021-05-19T09:50:59Z</time>
      </trkpt>
      <trkpt lat="42.0524410" lon="-8.8875390">
        <ele>9.6</ele>
        <time>2021-05-19T09:51:00Z</time>
      </trkpt>
      <trkpt lat="42.0524590" lon="-8.8875520">
        <ele>9.6</ele>
        <time>2021-05-19T09:51:01Z</time>
      </trkpt>
      <trkpt lat="42.0524660" lon="-8.8875590">
        <ele>9.6</ele>
        <time>2021-05-19T09:51:02Z</time>
      </trkpt>
      <trkpt lat="42.0524720" lon="-8.8875650">
        <ele>9.6</ele>
        <time>2021-05-19T09:51:03Z</time>
      </trkpt>
      <trkpt lat="42.0524800" lon="-8.8875750">
        <ele>9.6</ele>
        <time>2021-05-19T09:51:04Z</time>
      </trkpt>
      <trkpt lat="42.0524950" lon="-8.8875760">
        <ele>9.7</ele>
        <time>2021-05-19T09:51:05Z</time>
      </trkpt>
      <trkpt lat="42.0524990" lon="-8.8875900">
        <ele>9.7</ele>
        <time>2021-05-19T09:51:06Z</time>
      </trkpt>
      <trkpt lat="42.0525100" lon="-8.8875990">
        <ele>9.7</ele>
        <time>2021-05-19T09:51:07Z</time>
      </trkpt>
      <trkpt lat="42.0525230" lon="-8.8876010">
        <ele>9.7</ele>
        <time>2021-05-19T09:51:08Z</time>
      </trkpt>
      <trkpt lat="42.0525300" lon="-8.8876080">
        <ele>9.7</ele>
        <time>2021-05-19T09:51:09Z</time>
      </trkpt>
      <trkpt lat="42.0525420" lon="-8.8876220">
        <ele>9.7</ele>
        <time>2021-05-19T09:51:10Z</time>
      </trkpt>
      <trkpt lat="42.0525540" lon="-8.8876310">
        <ele>9.8</ele>
        <time>2021-05-19T09:51:11Z</time>
      </trkpt>
      <trkpt lat="42.0525600" lon="-8.8876360">
        <ele>9.8</ele>
        <time>2021-05-19T09:51:12Z</time>
      </trkpt>
      <trkpt lat="42.0525650" lon="-8.8876350">
        <ele>9.8</ele>
        <time>2021-05-19T09:51:13Z</time>
      </trkpt>
      <trkpt lat="42.0525570" lon="-8.8876300">
        <ele>9.8</ele>
        <time>2021-05-19T09:51:14Z</time>
      </trkpt>
      <trkpt lat="42.0525550" lon="-8.8876320">
        <ele>9.8</ele>
        <time>2021-05-19T09:51:15Z</time>
      </trkpt>
      <trkpt lat="42.0525580" lon="-8.8876420">
        <ele>9.8</ele>
        <time>2021-05-19T09:51:16Z</time>
      </trkpt>
      <trkpt lat="42.0525770" lon="-8.8876530">
        <ele>9.8</ele>
        <time>2021-05-19T09:51:17Z</time>
      </trkpt>
      <trkpt lat="42.0525890" lon="-8.8876770">
        <ele>9.9</ele>
        <time>2021-05-19T09:51:18Z</time>
      </trkpt>
      <trkpt lat="42.0525940" lon="-8.8876860">
        <ele>9.9</ele>
        <time>2021-05-19T09:51:19Z</time>
      </trkpt>
      <trkpt lat="42.0525990" lon="-8.8876960">
        <ele>9.9</ele>
        <time>2021-05-19T09:51:20Z</time>
      </trkpt>
      <trkpt lat="42.0526140" lon="-8.8877160">
        <ele>9.9</ele>
        <time>2021-05-19T09:51:21Z</time>
      </trkpt>
      <trkpt lat="42.0526210" lon="-8.8877220">
        <ele>10.0</ele>
        <time>2021-05-19T09:51:22Z</time>
      </trkpt>
      <trkpt lat="42.0526270" lon="-8.8877290">
        <ele>10.0</ele>
        <time>2021-05-19T09:51:23Z</time>
      </trkpt>
      <trkpt lat="42.0526310" lon="-8.8877360">
        <ele>10.0</ele>
        <time>2021-05-19T09:51:24Z</time>
      </trkpt>
      <trkpt lat="42.0526390" lon="-8.8877460">
        <ele>10.0</ele>
        <time>2021-05-19T09:51:25Z</time>
      </trkpt>
      <trkpt lat="42.0526480" lon="-8.8877510">
        <ele>10.0</ele>
        <time>2021-05-19T09:51:26Z</time>
      </trkpt>
      <trkpt lat="42.0526540" lon="-8.8877580">
        <ele>10.0</ele>
        <time>2021-05-19T09:51:27Z</time>
      </trkpt>
      <trkpt lat="42.0526670" lon="-8.8877840">
        <ele>10.0</ele>
        <time>2021-05-19T09:51:28Z</time>
      </trkpt>
      <trkpt lat="42.0526720" lon="-8.8877910">
        <ele>10.0</ele>
        <time>2021-05-19T09:51:29Z</time>
      </trkpt>
      <trkpt lat="42.0526780" lon="-8.8877970">
        <ele>10.1</ele>
        <time>2021-05-19T09:51:30Z</time>
      </trkpt>
      <trkpt lat="42.0526890" lon="-8.8878080">
        <ele>10.1</ele>
        <time>2021-05-19T09:51:31Z</time>
      </trkpt>
      <trkpt lat="42.0527040" lon="-8.8878200">
        <ele>10.1</ele>
        <time>2021-05-19T09:51:32Z</time>
      </trkpt>
      <trkpt lat="42.0527180" lon="-8.8878320">
        <ele>10.1</ele>
        <time>2021-05-19T09:51:33Z</time>
      </trkpt>
      <trkpt lat="42.0527300" lon="-8.8878400">
        <ele>10.1</ele>
        <time>2021-05-19T09:51:34Z</time>
      </trkpt>
      <trkpt lat="42.0527430" lon="-8.8878590">
        <ele>10.2</ele>
        <time>2021-05-19T09:51:35Z</time>
      </trkpt>
      <trkpt lat="42.0527510" lon="-8.8878660">
        <ele>10.2</ele>
        <time>2021-05-19T09:51:36Z</time>
      </trkpt>
      <trkpt lat="42.0527590" lon="-8.8878730">
        <ele>10.2</ele>
        <time>2021-05-19T09:51:37Z</time>
      </trkpt>
      <trkpt lat="42.0527750" lon="-8.8878860">
        <ele>10.2</ele>
        <time>2021-05-19T09:51:38Z</time>
      </trkpt>
      <trkpt lat="42.0527880" lon="-8.8878990">
        <ele>10.2</ele>
        <time>2021-05-19T09:51:39Z</time>
      </trkpt>
      <trkpt lat="42.0528000" lon="-8.8879060">
        <ele>10.3</ele>
        <time>2021-05-19T09:51:40Z</time>
      </trkpt>
      <trkpt lat="42.0528040" lon="-8.8879190">
        <ele>10.3</ele>
        <time>2021-05-19T09:51:41Z</time>
      </trkpt>
      <trkpt lat="42.0528140" lon="-8.8879240">
        <ele>10.3</ele>
        <time>2021-05-19T09:51:42Z</time>
      </trkpt>
      <trkpt lat="42.0528270" lon="-8.8879360">
        <ele>10.3</ele>
        <time>2021-05-19T09:51:43Z</time>
      </trkpt>
      <trkpt lat="42.0528370" lon="-8.8879460">
        <ele>10.3</ele>
        <time>2021-05-19T09:51:44Z</time>
      </trkpt>
      <trkpt lat="42.0528480" lon="-8.8879580">
        <ele>10.3</ele>
        <time>2021-05-19T09:51:45Z</time>
      </trkpt>
      <trkpt lat="42.0528540" lon="-8.8879630">
        <ele>10.3</ele>
        <time>2021-05-19T09:51:46Z</time>
      </trkpt>
      <trkpt lat="42.0528590" lon="-8.8879690">
        <ele>10.4</ele>
        <time>2021-05-19T09:51:47Z</time>
      </trkpt>
      <trkpt lat="42.0528730" lon="-8.8879880">
        <ele>10.4</ele>
        <time>2021-05-19T09:51:48Z</time>
      </trkpt>
      <trkpt lat="42.0528800" lon="-8.8879960">
        <ele>10.4</ele>
        <time>2021-05-19T09:51:49Z</time>
      </trkpt>
      <trkpt lat="42.0528880" lon="-8.8880030">
        <ele>10.4</ele>
        <time>2021-05-19T09:51:50Z</time>
      </trkpt>
      <trkpt lat="42.0528950" lon="-8.8880160">
        <ele>10.4</ele>
        <time>2021-05-19T09:51:51Z</time>
      </trkpt>
      <trkpt lat="42.0529070" lon="-8.8880160">
        <ele>10.4</ele>
        <time>2021-05-19T09:51:52Z</time>
      </trkpt>
      <trkpt lat="42.0529140" lon="-8.8880250">
        <ele>10.5</ele>
        <time>2021-05-19T09:51:53Z</time>
      </trkpt>
      <trkpt lat="42.0529260" lon="-8.8880290">
        <ele>10.5</ele>
        <time>2021-05-19T09:51:54Z</time>
      </trkpt>
      <trkpt lat="42.0529330" lon="-8.8880400">
        <ele>10.5</ele>
        <time>2021-05-19T09:51:55Z</time>
      </trkpt>
      <trkpt lat="42.0529430" lon="-8.8880470">
        <ele>10.5</ele>
        <time>2021-05-19T09:51:56Z</time>
      </trkpt>
      <trkpt lat="42.0529520" lon="-8.8880550">
        <ele>10.5</ele>
        <time>2021-05-19T09:51:57Z</time>
      </trkpt>
      <trkpt lat="42.0529580" lon="-8.8880630">
        <ele>10.5</ele>
        <time>2021-05-19T09:51:58Z</time>
      </trkpt>
      <trkpt lat="42.0529690" lon="-8.8880710">
        <ele>10.6</ele>
        <time>2021-05-19T09:51:59Z</time>
      </trkpt>
      <trkpt lat="42.0529850" lon="-8.8880900">
        <ele>10.6</ele>
        <time>2021-05-19T09:52:00Z</time>
      </trkpt>
      <trkpt lat="42.0529920" lon="-8.8880990">
        <ele>10.6</ele>
        <time>2021-05-19T09:52:01Z</time>
      </trkpt>
      <trkpt lat="42.0529980" lon="-8.8881090">
        <ele>10.6</ele>
        <time>2021-05-19T09:52:02Z</time>
      </trkpt>
      <trkpt lat="42.0530150" lon="-8.8881240">
        <ele>10.7</ele>
        <time>2021-05-19T09:52:03Z</time>
      </trkpt>
      <trkpt lat="42.0530230" lon="-8.8881310">
        <ele>10.7</ele>
        <time>2021-05-19T09:52:04Z</time>
      </trkpt>
      <trkpt lat="42.0530300" lon="-8.8881380">
        <ele>10.7</ele>
        <time>2021-05-19T09:52:05Z</time>
      </trkpt>
      <trkpt lat="42.0530360" lon="-8.8881470">
        <ele>10.7</ele>
        <time>2021-05-19T09:52:06Z</time>
      </trkpt>
      <trkpt lat="42.0530470" lon="-8.8881560">
        <ele>10.7</ele>
        <time>2021-05-19T09:52:07Z</time>
      </trkpt>
      <trkpt lat="42.0530540" lon="-8.8881630">
        <ele>10.7</ele>
        <time>2021-05-19T09:52:08Z</time>
      </trkpt>
      <trkpt lat="42.0530610" lon="-8.8881750">
        <ele>10.8</ele>
        <time>2021-05-19T09:52:09Z</time>
      </trkpt>
      <trkpt lat="42.0530710" lon="-8.8881850">
        <ele>10.8</ele>
        <time>2021-05-19T09:52:10Z</time>
      </trkpt>
      <trkpt lat="42.0530810" lon="-8.8881940">
        <ele>10.8</ele>
        <time>2021-05-19T09:52:11Z</time>
      </trkpt>
      <trkpt lat="42.0530970" lon="-8.8882110">
        <ele>10.8</ele>
        <time>2021-05-19T09:52:12Z</time>
      </trkpt>
      <trkpt lat="42.0531030" lon="-8.8882190">
        <ele>10.8</ele>
        <time>2021-05-19T09:52:13Z</time>
      </trkpt>
      <trkpt lat="42.0531100" lon="-8.8882260">
        <ele>10.8</ele>
        <time>2021-05-19T09:52:14Z</time>
      </trkpt>
      <trkpt lat="42.0531170" lon="-8.8882340">
        <ele>10.8</ele>
        <time>2021-05-19T09:52:15Z</time>
      </trkpt>
      <trkpt lat="42.0531270" lon="-8.8882400">
        <ele>10.9</ele>
        <time>2021-05-19T09:52:16Z</time>
      </trkpt>
      <trkpt lat="42.0531380" lon="-8.8882510">
        <ele>10.9</ele>
        <time>2021-05-19T09:52:17Z</time>
      </trkpt>
      <trkpt lat="42.0531500" lon="-8.8882550">
        <ele>10.9</ele>
        <time>2021-05-19T09:52:18Z</time>
      </trkpt>
      <trkpt lat="42.0531550" lon="-8.8882660">
        <ele>10.9</ele>
        <time>2021-05-19T09:52:19Z</time>
      </trkpt>
      <trkpt lat="42.0531670" lon="-8.8882760">
        <ele>10.9</ele>
        <time>2021-05-19T09:52:20Z</time>
      </trkpt>
      <trkpt lat="42.0531760" lon="-8.8882890">
        <ele>10.9</ele>
        <time>2021-05-19T09:52:21Z</time>
      </trkpt>
      <trkpt lat="42.0531830" lon="-8.8882990">
        <ele>10.9</ele>
        <time>2021-05-19T09:52:22Z</time>
      </trkpt>
      <trkpt lat="42.0531950" lon="-8.8883010">
        <ele>10.9</ele>
        <time>2021-05-19T09:52:23Z</time>
      </trkpt>
      <trkpt lat="42.0532040" lon="-8.8883080">
        <ele>10.9</ele>
        <time>2021-05-19T09:52:24Z</time>
      </trkpt>
      <trkpt lat="42.0532150" lon="-8.8883140">
        <ele>10.9</ele>
        <time>2021-05-19T09:52:25Z</time>
      </trkpt>
      <trkpt lat="42.0532160" lon="-8.8883300">
        <ele>10.9</ele>
        <time>2021-05-19T09:52:26Z</time>
      </trkpt>
      <trkpt lat="42.0532260" lon="-8.8883400">
        <ele>11.0</ele>
        <time>2021-05-19T09:52:27Z</time>
      </trkpt>
      <trkpt lat="42.0532410" lon="-8.8883490">
        <ele>11.0</ele>
        <time>2021-05-19T09:52:28Z</time>
      </trkpt>
      <trkpt lat="42.0532470" lon="-8.8883570">
        <ele>11.0</ele>
        <time>2021-05-19T09:52:29Z</time>
      </trkpt>
      <trkpt lat="42.0532660" lon="-8.8883660">
        <ele>11.0</ele>
        <time>2021-05-19T09:52:30Z</time>
      </trkpt>
      <trkpt lat="42.0532710" lon="-8.8883780">
        <ele>11.0</ele>
        <time>2021-05-19T09:52:31Z</time>
      </trkpt>
      <trkpt lat="42.0532920" lon="-8.8883820">
        <ele>11.0</ele>
        <time>2021-05-19T09:52:32Z</time>
      </trkpt>
      <trkpt lat="42.0532940" lon="-8.8883870">
        <ele>11.0</ele>
        <time>2021-05-19T09:52:33Z</time>
      </trkpt>
      <trkpt lat="42.0533000" lon="-8.8884040">
        <ele>11.0</ele>
        <time>2021-05-19T09:52:34Z</time>
      </trkpt>
      <trkpt lat="42.0533090" lon="-8.8884160">
        <ele>11.0</ele>
        <time>2021-05-19T09:52:35Z</time>
      </trkpt>
      <trkpt lat="42.0533150" lon="-8.8884250">
        <ele>11.0</ele>
        <time>2021-05-19T09:52:36Z</time>
      </trkpt>
      <trkpt lat="42.0533240" lon="-8.8884350">
        <ele>11.0</ele>
        <time>2021-05-19T09:52:37Z</time>
      </trkpt>
      <trkpt lat="42.0533350" lon="-8.8884480">
        <ele>11.0</ele>
        <time>2021-05-19T09:52:38Z</time>
      </trkpt>
      <trkpt lat="42.0533470" lon="-8.8884580">
        <ele>10.9</ele>
        <time>2021-05-19T09:52:39Z</time>
      </trkpt>
      <trkpt lat="42.0533630" lon="-8.8884690">
        <ele>10.9</ele>
        <time>2021-05-19T09:52:40Z</time>
      </trkpt>
      <trkpt lat="42.0533660" lon="-8.8884810">
        <ele>10.9</ele>
        <time>2021-05-19T09:52:41Z</time>
      </trkpt>
      <trkpt lat="42.0533780" lon="-8.8884980">
        <ele>10.9</ele>
        <time>2021-05-19T09:52:42Z</time>
      </trkpt>
      <trkpt lat="42.0533870" lon="-8.8885030">
        <ele>10.9</ele>
        <time>2021-05-19T09:52:43Z</time>
      </trkpt>
      <trkpt lat="42.0534050" lon="-8.8885120">
        <ele>10.9</ele>
        <time>2021-05-19T09:52:44Z</time>
      </trkpt>
      <trkpt lat="42.0534170" lon="-8.8885200">
        <ele>10.9</ele>
        <time>2021-05-19T09:52:45Z</time>
      </trkpt>
      <trkpt lat="42.0534290" lon="-8.8885280">
        <ele>10.9</ele>
        <time>2021-05-19T09:52:46Z</time>
      </trkpt>
      <trkpt lat="42.0534370" lon="-8.8885360">
        <ele>10.9</ele>
        <time>2021-05-19T09:52:47Z</time>
      </trkpt>
      <trkpt lat="42.0534420" lon="-8.8885500">
        <ele>10.9</ele>
        <time>2021-05-19T09:52:48Z</time>
      </trkpt>
      <trkpt lat="42.0534600" lon="-8.8885690">
        <ele>10.8</ele>
        <time>2021-05-19T09:52:49Z</time>
      </trkpt>
      <trkpt lat="42.0534670" lon="-8.8885760">
        <ele>10.8</ele>
        <time>2021-05-19T09:52:50Z</time>
      </trkpt>
      <trkpt lat="42.0534740" lon="-8.8885830">
        <ele>10.8</ele>
        <time>2021-05-19T09:52:51Z</time>
      </trkpt>
      <trkpt lat="42.0534890" lon="-8.8886010">
        <ele>10.8</ele>
        <time>2021-05-19T09:52:52Z</time>
      </trkpt>
      <trkpt lat="42.0534980" lon="-8.8886070">
        <ele>10.8</ele>
        <time>2021-05-19T09:52:53Z</time>
      </trkpt>
      <trkpt lat="42.0535060" lon="-8.8886130">
        <ele>10.8</ele>
        <time>2021-05-19T09:52:54Z</time>
      </trkpt>
      <trkpt lat="42.0535210" lon="-8.8886320">
        <ele>10.7</ele>
        <time>2021-05-19T09:52:55Z</time>
      </trkpt>
      <trkpt lat="42.0535290" lon="-8.8886380">
        <ele>10.7</ele>
        <time>2021-05-19T09:52:56Z</time>
      </trkpt>
      <trkpt lat="42.0535370" lon="-8.8886430">
        <ele>10.7</ele>
        <time>2021-05-19T09:52:57Z</time>
      </trkpt>
      <trkpt lat="42.0535510" lon="-8.8886540">
        <ele>10.7</ele>
        <time>2021-05-19T09:52:58Z</time>
      </trkpt>
      <trkpt lat="42.0535570" lon="-8.8886660">
        <ele>10.7</ele>
        <time>2021-05-19T09:52:59Z</time>
      </trkpt>
      <trkpt lat="42.0535650" lon="-8.8886740">
        <ele>10.7</ele>
        <time>2021-05-19T09:53:00Z</time>
      </trkpt>
      <trkpt lat="42.0535710" lon="-8.8886830">
        <ele>10.7</ele>
        <time>2021-05-19T09:53:01Z</time>
      </trkpt>
      <trkpt lat="42.0535790" lon="-8.8886920">
        <ele>10.7</ele>
        <time>2021-05-19T09:53:02Z</time>
      </trkpt>
      <trkpt lat="42.0535880" lon="-8.8887030">
        <ele>10.6</ele>
        <time>2021-05-19T09:53:03Z</time>
      </trkpt>
      <trkpt lat="42.0535950" lon="-8.8887140">
        <ele>10.6</ele>
        <time>2021-05-19T09:53:04Z</time>
      </trkpt>
      <trkpt lat="42.0536060" lon="-8.8887310">
        <ele>10.6</ele>
        <time>2021-05-19T09:53:05Z</time>
      </trkpt>
      <trkpt lat="42.0536140" lon="-8.8887420">
        <ele>10.6</ele>
        <time>2021-05-19T09:53:06Z</time>
      </trkpt>
      <trkpt lat="42.0536210" lon="-8.8887490">
        <ele>10.6</ele>
        <time>2021-05-19T09:53:07Z</time>
      </trkpt>
      <trkpt lat="42.0536300" lon="-8.8887560">
        <ele>10.6</ele>
        <time>2021-05-19T09:53:08Z</time>
      </trkpt>
      <trkpt lat="42.0536390" lon="-8.8887610">
        <ele>10.5</ele>
        <time>2021-05-19T09:53:09Z</time>
      </trkpt>
      <trkpt lat="42.0536560" lon="-8.8887680">
        <ele>10.5</ele>
        <time>2021-05-19T09:53:10Z</time>
      </trkpt>
      <trkpt lat="42.0536700" lon="-8.8887710">
        <ele>10.5</ele>
        <time>2021-05-19T09:53:11Z</time>
      </trkpt>
      <trkpt lat="42.0536850" lon="-8.8887730">
        <ele>10.5</ele>
        <time>2021-05-19T09:53:12Z</time>
      </trkpt>
      <trkpt lat="42.0536960" lon="-8.8887810">
        <ele>10.5</ele>
        <time>2021-05-19T09:53:13Z</time>
      </trkpt>
      <trkpt lat="42.0537040" lon="-8.8887880">
        <ele>10.4</ele>
        <time>2021-05-19T09:53:14Z</time>
      </trkpt>
      <trkpt lat="42.0537150" lon="-8.8887890">
        <ele>10.4</ele>
        <time>2021-05-19T09:53:15Z</time>
      </trkpt>
      <trkpt lat="42.0537240" lon="-8.8887950">
        <ele>10.4</ele>
        <time>2021-05-19T09:53:16Z</time>
      </trkpt>
      <trkpt lat="42.0537320" lon="-8.8887990">
        <ele>10.4</ele>
        <time>2021-05-19T09:53:17Z</time>
      </trkpt>
      <trkpt lat="42.0537430" lon="-8.8888030">
        <ele>10.4</ele>
        <time>2021-05-19T09:53:18Z</time>
      </trkpt>
      <trkpt lat="42.0537620" lon="-8.8888120">
        <ele>10.3</ele>
        <time>2021-05-19T09:53:19Z</time>
      </trkpt>
      <trkpt lat="42.0537710" lon="-8.8888160">
        <ele>10.3</ele>
        <time>2021-05-19T09:53:20Z</time>
      </trkpt>
      <trkpt lat="42.0537800" lon="-8.8888200">
        <ele>10.3</ele>
        <time>2021-05-19T09:53:21Z</time>
      </trkpt>
      <trkpt lat="42.0537940" lon="-8.8888160">
        <ele>10.3</ele>
        <time>2021-05-19T09:53:22Z</time>
      </trkpt>
      <trkpt lat="42.0538120" lon="-8.8888190">
        <ele>10.2</ele>
        <time>2021-05-19T09:53:23Z</time>
      </trkpt>
      <trkpt lat="42.0538170" lon="-8.8888170">
        <ele>10.2</ele>
        <time>2021-05-19T09:53:24Z</time>
      </trkpt>
      <trkpt lat="42.0538290" lon="-8.8888180">
        <ele>10.2</ele>
        <time>2021-05-19T09:53:25Z</time>
      </trkpt>
      <trkpt lat="42.0538410" lon="-8.8888170">
        <ele>10.2</ele>
        <time>2021-05-19T09:53:26Z</time>
      </trkpt>
      <trkpt lat="42.0538470" lon="-8.8888270">
        <ele>10.2</ele>
        <time>2021-05-19T09:53:27Z</time>
      </trkpt>
      <trkpt lat="42.0538630" lon="-8.8888300">
        <ele>10.1</ele>
        <time>2021-05-19T09:53:28Z</time>
      </trkpt>
      <trkpt lat="42.0538750" lon="-8.8888340">
        <ele>10.1</ele>
        <time>2021-05-19T09:53:29Z</time>
      </trkpt>
      <trkpt lat="42.0538960" lon="-8.8888370">
        <ele>10.1</ele>
        <time>2021-05-19T09:53:30Z</time>
      </trkpt>
      <trkpt lat="42.0539060" lon="-8.8888350">
        <ele>10.1</ele>
        <time>2021-05-19T09:53:31Z</time>
      </trkpt>
      <trkpt lat="42.0539150" lon="-8.8888340">
        <ele>10.1</ele>
        <time>2021-05-19T09:53:32Z</time>
      </trkpt>
      <trkpt lat="42.0539290" lon="-8.8888340">
        <ele>10.0</ele>
        <time>2021-05-19T09:53:33Z</time>
      </trkpt>
      <trkpt lat="42.0539350" lon="-8.8888320">
        <ele>10.0</ele>
        <time>2021-05-19T09:53:34Z</time>
      </trkpt>
      <trkpt lat="42.0539490" lon="-8.8888300">
        <ele>10.0</ele>
        <time>2021-05-19T09:53:35Z</time>
      </trkpt>
      <trkpt lat="42.0539700" lon="-8.8888240">
        <ele>10.0</ele>
        <time>2021-05-19T09:53:36Z</time>
      </trkpt>
      <trkpt lat="42.0539820" lon="-8.8888170">
        <ele>10.0</ele>
        <time>2021-05-19T09:53:37Z</time>
      </trkpt>
      <trkpt lat="42.0539960" lon="-8.8888150">
        <ele>9.9</ele>
        <time>2021-05-19T09:53:38Z</time>
      </trkpt>
      <trkpt lat="42.0540090" lon="-8.8888060">
        <ele>9.9</ele>
        <time>2021-05-19T09:53:39Z</time>
      </trkpt>
      <trkpt lat="42.0540220" lon="-8.8887970">
        <ele>9.9</ele>
        <time>2021-05-19T09:53:40Z</time>
      </trkpt>
      <trkpt lat="42.0540370" lon="-8.8887930">
        <ele>9.9</ele>
        <time>2021-05-19T09:53:41Z</time>
      </trkpt>
      <trkpt lat="42.0540500" lon="-8.8887860">
        <ele>9.9</ele>
        <time>2021-05-19T09:53:42Z</time>
      </trkpt>
      <trkpt lat="42.0540640" lon="-8.8887830">
        <ele>9.9</ele>
        <time>2021-05-19T09:53:43Z</time>
      </trkpt>
      <trkpt lat="42.0540770" lon="-8.8887710">
        <ele>9.8</ele>
        <time>2021-05-19T09:53:44Z</time>
      </trkpt>
      <trkpt lat="42.0540890" lon="-8.8887660">
        <ele>9.8</ele>
        <time>2021-05-19T09:53:45Z</time>
      </trkpt>
      <trkpt lat="42.0541030" lon="-8.8887590">
        <ele>9.8</ele>
        <time>2021-05-19T09:53:46Z</time>
      </trkpt>
      <trkpt lat="42.0541170" lon="-8.8887440">
        <ele>9.8</ele>
        <time>2021-05-19T09:53:47Z</time>
      </trkpt>
      <trkpt lat="42.0541340" lon="-8.8887280">
        <ele>9.7</ele>
        <time>2021-05-19T09:53:48Z</time>
      </trkpt>
      <trkpt lat="42.0541410" lon="-8.8887210">
        <ele>9.7</ele>
        <time>2021-05-19T09:53:49Z</time>
      </trkpt>
      <trkpt lat="42.0541490" lon="-8.8887150">
        <ele>9.7</ele>
        <time>2021-05-19T09:53:50Z</time>
      </trkpt>
      <trkpt lat="42.0541590" lon="-8.8886970">
        <ele>9.7</ele>
        <time>2021-05-19T09:53:51Z</time>
      </trkpt>
      <trkpt lat="42.0541720" lon="-8.8886880">
        <ele>9.7</ele>
        <time>2021-05-19T09:53:52Z</time>
      </trkpt>
      <trkpt lat="42.0541910" lon="-8.8886710">
        <ele>9.6</ele>
        <time>2021-05-19T09:53:53Z</time>
      </trkpt>
      <trkpt lat="42.0541980" lon="-8.8886630">
        <ele>9.6</ele>
        <time>2021-05-19T09:53:54Z</time>
      </trkpt>
      <trkpt lat="42.0542050" lon="-8.8886550">
        <ele>9.6</ele>
        <time>2021-05-19T09:53:55Z</time>
      </trkpt>
      <trkpt lat="42.0542260" lon="-8.8886450">
        <ele>9.6</ele>
        <time>2021-05-19T09:53:56Z</time>
      </trkpt>
      <trkpt lat="42.0542340" lon="-8.8886370">
        <ele>9.6</ele>
        <time>2021-05-19T09:53:57Z</time>
      </trkpt>
      <trkpt lat="42.0542410" lon="-8.8886300">
        <ele>9.6</ele>
        <time>2021-05-19T09:53:58Z</time>
      </trkpt>
      <trkpt lat="42.0542530" lon="-8.8886230">
        <ele>9.5</ele>
        <time>2021-05-19T09:53:59Z</time>
      </trkpt>
      <trkpt lat="42.0542650" lon="-8.8886160">
        <ele>9.5</ele>
        <time>2021-05-19T09:54:00Z</time>
      </trkpt>
      <trkpt lat="42.0542730" lon="-8.8886120">
        <ele>9.5</ele>
        <time>2021-05-19T09:54:01Z</time>
      </trkpt>
      <trkpt lat="42.0542820" lon="-8.8886120">
        <ele>9.5</ele>
        <time>2021-05-19T09:54:02Z</time>
      </trkpt>
      <trkpt lat="42.0542840" lon="-8.8886040">
        <ele>9.5</ele>
        <time>2021-05-19T09:54:03Z</time>
      </trkpt>
      <trkpt lat="42.0542880" lon="-8.8886010">
        <ele>9.5</ele>
        <time>2021-05-19T09:54:04Z</time>
      </trkpt>
      <trkpt lat="42.0543010" lon="-8.8885910">
        <ele>9.5</ele>
        <time>2021-05-19T09:54:05Z</time>
      </trkpt>
      <trkpt lat="42.0543140" lon="-8.8885820">
        <ele>9.4</ele>
        <time>2021-05-19T09:54:06Z</time>
      </trkpt>
      <trkpt lat="42.0543160" lon="-8.8885770">
        <ele>9.4</ele>
        <time>2021-05-19T09:54:07Z</time>
      </trkpt>
      <trkpt lat="42.0543210" lon="-8.8885680">
        <ele>9.4</ele>
        <time>2021-05-19T09:54:08Z</time>
      </trkpt>
      <trkpt lat="42.0543260" lon="-8.8885720">
        <ele>9.4</ele>
        <time>2021-05-19T09:54:09Z</time>
      </trkpt>
      <trkpt lat="42.0543360" lon="-8.8885570">
        <ele>9.4</ele>
        <time>2021-05-19T09:54:10Z</time>
      </trkpt>
      <trkpt lat="42.0543500" lon="-8.8885480">
        <ele>9.4</ele>
        <time>2021-05-19T09:54:11Z</time>
      </trkpt>
      <trkpt lat="42.0543620" lon="-8.8885360">
        <ele>9.4</ele>
        <time>2021-05-19T09:54:12Z</time>
      </trkpt>
      <trkpt lat="42.0543700" lon="-8.8885220">
        <ele>9.4</ele>
        <time>2021-05-19T09:54:13Z</time>
      </trkpt>
      <trkpt lat="42.0543780" lon="-8.8885100">
        <ele>9.4</ele>
        <time>2021-05-19T09:54:14Z</time>
      </trkpt>
      <trkpt lat="42.0543880" lon="-8.8885010">
        <ele>9.4</ele>
        <time>2021-05-19T09:54:15Z</time>
      </trkpt>
      <trkpt lat="42.0543970" lon="-8.8884950">
        <ele>9.4</ele>
        <time>2021-05-19T09:54:16Z</time>
      </trkpt>
      <trkpt lat="42.0544030" lon="-8.8884910">
        <ele>9.4</ele>
        <time>2021-05-19T09:54:17Z</time>
      </trkpt>
      <trkpt lat="42.0544160" lon="-8.8884800">
        <ele>9.4</ele>
        <time>2021-05-19T09:54:18Z</time>
      </trkpt>
      <trkpt lat="42.0544200" lon="-8.8884700">
        <ele>9.3</ele>
        <time>2021-05-19T09:54:19Z</time>
      </trkpt>
      <trkpt lat="42.0544300" lon="-8.8884650">
        <ele>9.3</ele>
        <time>2021-05-19T09:54:20Z</time>
      </trkpt>
      <trkpt lat="42.0544420" lon="-8.8884580">
        <ele>9.3</ele>
        <time>2021-05-19T09:54:21Z</time>
      </trkpt>
      <trkpt lat="42.0544480" lon="-8.8884480">
        <ele>9.3</ele>
        <time>2021-05-19T09:54:22Z</time>
      </trkpt>
      <trkpt lat="42.0544600" lon="-8.8884430">
        <ele>9.3</ele>
        <time>2021-05-19T09:54:23Z</time>
      </trkpt>
      <trkpt lat="42.0544660" lon="-8.8884390">
        <ele>9.3</ele>
        <time>2021-05-19T09:54:24Z</time>
      </trkpt>
      <trkpt lat="42.0544800" lon="-8.8884300">
        <ele>9.3</ele>
        <time>2021-05-19T09:54:25Z</time>
      </trkpt>
      <trkpt lat="42.0544900" lon="-8.8884220">
        <ele>9.3</ele>
        <time>2021-05-19T09:54:26Z</time>
      </trkpt>
      <trkpt lat="42.0544960" lon="-8.8884150">
        <ele>9.3</ele>
        <time>2021-05-19T09:54:27Z</time>
      </trkpt>
      <trkpt lat="42.0545080" lon="-8.8884060">
        <ele>9.3</ele>
        <time>2021-05-19T09:54:28Z</time>
      </trkpt>
      <trkpt lat="42.0545150" lon="-8.8883950">
        <ele>9.3</ele>
        <time>2021-05-19T09:54:29Z</time>
      </trkpt>
      <trkpt lat="42.0545240" lon="-8.8883900">
        <ele>9.3</ele>
        <time>2021-05-19T09:54:30Z</time>
      </trkpt>
      <trkpt lat="42.0545370" lon="-8.8883830">
        <ele>9.3</ele>
        <time>2021-05-19T09:54:31Z</time>
      </trkpt>
      <trkpt lat="42.0545450" lon="-8.8883800">
        <ele>9.3</ele>
        <time>2021-05-19T09:54:32Z</time>
      </trkpt>
      <trkpt lat="42.0545580" lon="-8.8883720">
        <ele>9.3</ele>
        <time>2021-05-19T09:54:33Z</time>
      </trkpt>
      <trkpt lat="42.0545660" lon="-8.8883610">
        <ele>9.3</ele>
        <time>2021-05-19T09:54:34Z</time>
      </trkpt>
      <trkpt lat="42.0545790" lon="-8.8883570">
        <ele>9.3</ele>
        <time>2021-05-19T09:54:35Z</time>
      </trkpt>
      <trkpt lat="42.0545910" lon="-8.8883510">
        <ele>9.3</ele>
        <time>2021-05-19T09:54:36Z</time>
      </trkpt>
      <trkpt lat="42.0545990" lon="-8.8883420">
        <ele>9.3</ele>
        <time>2021-05-19T09:54:37Z</time>
      </trkpt>
      <trkpt lat="42.0546200" lon="-8.8883270">
        <ele>9.3</ele>
        <time>2021-05-19T09:54:38Z</time>
      </trkpt>
      <trkpt lat="42.0546280" lon="-8.8883210">
        <ele>9.3</ele>
        <time>2021-05-19T09:54:39Z</time>
      </trkpt>
      <trkpt lat="42.0546350" lon="-8.8883150">
        <ele>9.3</ele>
        <time>2021-05-19T09:54:40Z</time>
      </trkpt>
      <trkpt lat="42.0546410" lon="-8.8883040">
        <ele>9.3</ele>
        <time>2021-05-19T09:54:41Z</time>
      </trkpt>
      <trkpt lat="42.0546510" lon="-8.8882930">
        <ele>9.3</ele>
        <time>2021-05-19T09:54:42Z</time>
      </trkpt>
      <trkpt lat="42.0546650" lon="-8.8882890">
        <ele>9.3</ele>
        <time>2021-05-19T09:54:43Z</time>
      </trkpt>
      <trkpt lat="42.0546870" lon="-8.8882770">
        <ele>9.3</ele>
        <time>2021-05-19T09:54:44Z</time>
      </trkpt>
      <trkpt lat="42.0546990" lon="-8.8882710">
        <ele>9.3</ele>
        <time>2021-05-19T09:54:45Z</time>
      </trkpt>
      <trkpt lat="42.0547110" lon="-8.8882630">
        <ele>9.3</ele>
        <time>2021-05-19T09:54:46Z</time>
      </trkpt>
      <trkpt lat="42.0547160" lon="-8.8882610">
        <ele>9.3</ele>
        <time>2021-05-19T09:54:47Z</time>
      </trkpt>
      <trkpt lat="42.0547300" lon="-8.8882520">
        <ele>9.3</ele>
        <time>2021-05-19T09:54:48Z</time>
      </trkpt>
      <trkpt lat="42.0547420" lon="-8.8882420">
        <ele>9.3</ele>
        <time>2021-05-19T09:54:49Z</time>
      </trkpt>
      <trkpt lat="42.0547550" lon="-8.8882300">
        <ele>9.3</ele>
        <time>2021-05-19T09:54:50Z</time>
      </trkpt>
      <trkpt lat="42.0547610" lon="-8.8882290">
        <ele>9.3</ele>
        <time>2021-05-19T09:54:51Z</time>
      </trkpt>
      <trkpt lat="42.0547730" lon="-8.8882220">
        <ele>9.3</ele>
        <time>2021-05-19T09:54:52Z</time>
      </trkpt>
      <trkpt lat="42.0547820" lon="-8.8882140">
        <ele>9.3</ele>
        <time>2021-05-19T09:54:53Z</time>
      </trkpt>
      <trkpt lat="42.0548000" lon="-8.8882000">
        <ele>9.3</ele>
        <time>2021-05-19T09:54:54Z</time>
      </trkpt>
      <trkpt lat="42.0548080" lon="-8.8881940">
        <ele>9.3</ele>
        <time>2021-05-19T09:54:55Z</time>
      </trkpt>
      <trkpt lat="42.0548160" lon="-8.8881890">
        <ele>9.3</ele>
        <time>2021-05-19T09:54:56Z</time>
      </trkpt>
      <trkpt lat="42.0548400" lon="-8.8881830">
        <ele>9.2</ele>
        <time>2021-05-19T09:54:57Z</time>
      </trkpt>
      <trkpt lat="42.0548480" lon="-8.8881780">
        <ele>9.2</ele>
        <time>2021-05-19T09:54:58Z</time>
      </trkpt>
      <trkpt lat="42.0548560" lon="-8.8881740">
        <ele>9.2</ele>
        <time>2021-05-19T09:54:59Z</time>
      </trkpt>
      <trkpt lat="42.0548710" lon="-8.8881650">
        <ele>9.2</ele>
        <time>2021-05-19T09:55:00Z</time>
      </trkpt>
      <trkpt lat="42.0548870" lon="-8.8881560">
        <ele>9.2</ele>
        <time>2021-05-19T09:55:01Z</time>
      </trkpt>
      <trkpt lat="42.0548980" lon="-8.8881470">
        <ele>9.2</ele>
        <time>2021-05-19T09:55:02Z</time>
      </trkpt>
      <trkpt lat="42.0549130" lon="-8.8881420">
        <ele>9.2</ele>
        <time>2021-05-19T09:55:03Z</time>
      </trkpt>
      <trkpt lat="42.0549280" lon="-8.8881360">
        <ele>9.2</ele>
        <time>2021-05-19T09:55:04Z</time>
      </trkpt>
      <trkpt lat="42.0549430" lon="-8.8881300">
        <ele>9.2</ele>
        <time>2021-05-19T09:55:05Z</time>
      </trkpt>
      <trkpt lat="42.0549570" lon="-8.8881210">
        <ele>9.2</ele>
        <time>2021-05-19T09:55:06Z</time>
      </trkpt>
      <trkpt lat="42.0549690" lon="-8.8881090">
        <ele>9.2</ele>
        <time>2021-05-19T09:55:07Z</time>
      </trkpt>
      <trkpt lat="42.0549820" lon="-8.8881050">
        <ele>9.2</ele>
        <time>2021-05-19T09:55:08Z</time>
      </trkpt>
      <trkpt lat="42.0549890" lon="-8.8880990">
        <ele>9.2</ele>
        <time>2021-05-19T09:55:09Z</time>
      </trkpt>
      <trkpt lat="42.0549960" lon="-8.8881030">
        <ele>9.2</ele>
        <time>2021-05-19T09:55:10Z</time>
      </trkpt>
      <trkpt lat="42.0550160" lon="-8.8880980">
        <ele>9.2</ele>
        <time>2021-05-19T09:55:11Z</time>
      </trkpt>
      <trkpt lat="42.0550240" lon="-8.8880990">
        <ele>9.2</ele>
        <time>2021-05-19T09:55:12Z</time>
      </trkpt>
      <trkpt lat="42.0550330" lon="-8.8880990">
        <ele>9.2</ele>
        <time>2021-05-19T09:55:13Z</time>
      </trkpt>
      <trkpt lat="42.0550440" lon="-8.8880930">
        <ele>9.2</ele>
        <time>2021-05-19T09:55:14Z</time>
      </trkpt>
      <trkpt lat="42.0550570" lon="-8.8880840">
        <ele>9.2</ele>
        <time>2021-05-19T09:55:15Z</time>
      </trkpt>
      <trkpt lat="42.0550680" lon="-8.8880820">
        <ele>9.3</ele>
        <time>2021-05-19T09:55:16Z</time>
      </trkpt>
      <trkpt lat="42.0550800" lon="-8.8880860">
        <ele>9.3</ele>
        <time>2021-05-19T09:55:17Z</time>
      </trkpt>
      <trkpt lat="42.0550900" lon="-8.8880870">
        <ele>9.3</ele>
        <time>2021-05-19T09:55:18Z</time>
      </trkpt>
      <trkpt lat="42.0550990" lon="-8.8880850">
        <ele>9.3</ele>
        <time>2021-05-19T09:55:19Z</time>
      </trkpt>
      <trkpt lat="42.0551060" lon="-8.8880820">
        <ele>9.3</ele>
        <time>2021-05-19T09:55:20Z</time>
      </trkpt>
      <trkpt lat="42.0551210" lon="-8.8880850">
        <ele>9.3</ele>
        <time>2021-05-19T09:55:21Z</time>
      </trkpt>
      <trkpt lat="42.0551330" lon="-8.8880820">
        <ele>9.3</ele>
        <time>2021-05-19T09:55:22Z</time>
      </trkpt>
      <trkpt lat="42.0551420" lon="-8.8880760">
        <ele>9.3</ele>
        <time>2021-05-19T09:55:23Z</time>
      </trkpt>
      <trkpt lat="42.0551570" lon="-8.8880700">
        <ele>9.3</ele>
        <time>2021-05-19T09:55:24Z</time>
      </trkpt>
      <trkpt lat="42.0551630" lon="-8.8880670">
        <ele>9.3</ele>
        <time>2021-05-19T09:55:25Z</time>
      </trkpt>
      <trkpt lat="42.0551800" lon="-8.8880660">
        <ele>9.3</ele>
        <time>2021-05-19T09:55:26Z</time>
      </trkpt>
      <trkpt lat="42.0551940" lon="-8.8880680">
        <ele>9.3</ele>
        <time>2021-05-19T09:55:27Z</time>
      </trkpt>
      <trkpt lat="42.0552080" lon="-8.8880690">
        <ele>9.3</ele>
        <time>2021-05-19T09:55:28Z</time>
      </trkpt>
      <trkpt lat="42.0552230" lon="-8.8880640">
        <ele>9.3</ele>
        <time>2021-05-19T09:55:29Z</time>
      </trkpt>
      <trkpt lat="42.0552330" lon="-8.8880650">
        <ele>9.4</ele>
        <time>2021-05-19T09:55:30Z</time>
      </trkpt>
      <trkpt lat="42.0552470" lon="-8.8880700">
        <ele>9.4</ele>
        <time>2021-05-19T09:55:31Z</time>
      </trkpt>
      <trkpt lat="42.0552520" lon="-8.8880760">
        <ele>9.4</ele>
        <time>2021-05-19T09:55:32Z</time>
      </trkpt>
      <trkpt lat="42.0552750" lon="-8.8880840">
        <ele>9.4</ele>
        <time>2021-05-19T09:55:33Z</time>
      </trkpt>
      <trkpt lat="42.0552840" lon="-8.8880870">
        <ele>9.4</ele>
        <time>2021-05-19T09:55:34Z</time>
      </trkpt>
      <trkpt lat="42.0552930" lon="-8.8880890">
        <ele>9.4</ele>
        <time>2021-05-19T09:55:35Z</time>
      </trkpt>
      <trkpt lat="42.0553050" lon="-8.8880920">
        <ele>9.4</ele>
        <time>2021-05-19T09:55:36Z</time>
      </trkpt>
      <trkpt lat="42.0553160" lon="-8.8880910">
        <ele>9.4</ele>
        <time>2021-05-19T09:55:37Z</time>
      </trkpt>
      <trkpt lat="42.0553250" lon="-8.8880980">
        <ele>9.4</ele>
        <time>2021-05-19T09:55:38Z</time>
      </trkpt>
      <trkpt lat="42.0553340" lon="-8.8881040">
        <ele>9.4</ele>
        <time>2021-05-19T09:55:39Z</time>
      </trkpt>
      <trkpt lat="42.0553500" lon="-8.8881060">
        <ele>9.4</ele>
        <time>2021-05-19T09:55:40Z</time>
      </trkpt>
      <trkpt lat="42.0553560" lon="-8.8881060">
        <ele>9.4</ele>
        <time>2021-05-19T09:55:41Z</time>
      </trkpt>
      <trkpt lat="42.0553770" lon="-8.8881100">
        <ele>9.5</ele>
        <time>2021-05-19T09:55:42Z</time>
      </trkpt>
      <trkpt lat="42.0553870" lon="-8.8881110">
        <ele>9.5</ele>
        <time>2021-05-19T09:55:43Z</time>
      </trkpt>
      <trkpt lat="42.0553960" lon="-8.8881130">
        <ele>9.5</ele>
        <time>2021-05-19T09:55:44Z</time>
      </trkpt>
      <trkpt lat="42.0554040" lon="-8.8881160">
        <ele>9.5</ele>
        <time>2021-05-19T09:55:45Z</time>
      </trkpt>
      <trkpt lat="42.0554180" lon="-8.8881140">
        <ele>9.5</ele>
        <time>2021-05-19T09:55:46Z</time>
      </trkpt>
      <trkpt lat="42.0554310" lon="-8.8881140">
        <ele>9.5</ele>
        <time>2021-05-19T09:55:47Z</time>
      </trkpt>
      <trkpt lat="42.0554450" lon="-8.8881200">
        <ele>9.5</ele>
        <time>2021-05-19T09:55:48Z</time>
      </trkpt>
      <trkpt lat="42.0554530" lon="-8.8881260">
        <ele>9.5</ele>
        <time>2021-05-19T09:55:49Z</time>
      </trkpt>
      <trkpt lat="42.0554650" lon="-8.8881320">
        <ele>9.5</ele>
        <time>2021-05-19T09:55:50Z</time>
      </trkpt>
      <trkpt lat="42.0554830" lon="-8.8881400">
        <ele>9.5</ele>
        <time>2021-05-19T09:55:51Z</time>
      </trkpt>
      <trkpt lat="42.0554930" lon="-8.8881430">
        <ele>9.5</ele>
        <time>2021-05-19T09:55:52Z</time>
      </trkpt>
      <trkpt lat="42.0555020" lon="-8.8881470">
        <ele>9.5</ele>
        <time>2021-05-19T09:55:53Z</time>
      </trkpt>
      <trkpt lat="42.0555090" lon="-8.8881500">
        <ele>9.5</ele>
        <time>2021-05-19T09:55:54Z</time>
      </trkpt>
      <trkpt lat="42.0555200" lon="-8.8881520">
        <ele>9.5</ele>
        <time>2021-05-19T09:55:55Z</time>
      </trkpt>
      <trkpt lat="42.0555310" lon="-8.8881570">
        <ele>9.5</ele>
        <time>2021-05-19T09:55:56Z</time>
      </trkpt>
      <trkpt lat="42.0555440" lon="-8.8881630">
        <ele>9.5</ele>
        <time>2021-05-19T09:55:57Z</time>
      </trkpt>
      <trkpt lat="42.0555500" lon="-8.8881650">
        <ele>9.5</ele>
        <time>2021-05-19T09:55:58Z</time>
      </trkpt>
      <trkpt lat="42.0555610" lon="-8.8881680">
        <ele>9.5</ele>
        <time>2021-05-19T09:55:59Z</time>
      </trkpt>
      <trkpt lat="42.0555800" lon="-8.8881710">
        <ele>9.5</ele>
        <time>2021-05-19T09:56:00Z</time>
      </trkpt>
      <trkpt lat="42.0555890" lon="-8.8881750">
        <ele>9.5</ele>
        <time>2021-05-19T09:56:01Z</time>
      </trkpt>
      <trkpt lat="42.0555980" lon="-8.8881790">
        <ele>9.5</ele>
        <time>2021-05-19T09:56:02Z</time>
      </trkpt>
      <trkpt lat="42.0556110" lon="-8.8881820">
        <ele>9.5</ele>
        <time>2021-05-19T09:56:03Z</time>
      </trkpt>
      <trkpt lat="42.0556220" lon="-8.8881860">
        <ele>9.5</ele>
        <time>2021-05-19T09:56:04Z</time>
      </trkpt>
      <trkpt lat="42.0556300" lon="-8.8881890">
        <ele>9.5</ele>
        <time>2021-05-19T09:56:05Z</time>
      </trkpt>
      <trkpt lat="42.0556390" lon="-8.8881900">
        <ele>9.5</ele>
        <time>2021-05-19T09:56:06Z</time>
      </trkpt>
      <trkpt lat="42.0556580" lon="-8.8881970">
        <ele>9.5</ele>
        <time>2021-05-19T09:56:07Z</time>
      </trkpt>
      <trkpt lat="42.0556760" lon="-8.8882110">
        <ele>9.6</ele>
        <time>2021-05-19T09:56:08Z</time>
      </trkpt>
      <trkpt lat="42.0556840" lon="-8.8882170">
        <ele>9.6</ele>
        <time>2021-05-19T09:56:09Z</time>
      </trkpt>
      <trkpt lat="42.0556920" lon="-8.8882230">
        <ele>9.6</ele>
        <time>2021-05-19T09:56:10Z</time>
      </trkpt>
      <trkpt lat="42.0557080" lon="-8.8882370">
        <ele>9.6</ele>
        <time>2021-05-19T09:56:11Z</time>
      </trkpt>
      <trkpt lat="42.0557150" lon="-8.8882400">
        <ele>9.6</ele>
        <time>2021-05-19T09:56:12Z</time>
      </trkpt>
      <trkpt lat="42.0557210" lon="-8.8882440">
        <ele>9.6</ele>
        <time>2021-05-19T09:56:13Z</time>
      </trkpt>
      <trkpt lat="42.0557280" lon="-8.8882480">
        <ele>9.6</ele>
        <time>2021-05-19T09:56:14Z</time>
      </trkpt>
      <trkpt lat="42.0557480" lon="-8.8882540">
        <ele>9.6</ele>
        <time>2021-05-19T09:56:15Z</time>
      </trkpt>
      <trkpt lat="42.0557570" lon="-8.8882580">
        <ele>9.6</ele>
        <time>2021-05-19T09:56:16Z</time>
      </trkpt>
      <trkpt lat="42.0557660" lon="-8.8882630">
        <ele>9.6</ele>
        <time>2021-05-19T09:56:17Z</time>
      </trkpt>
      <trkpt lat="42.0557840" lon="-8.8882710">
        <ele>9.6</ele>
        <time>2021-05-19T09:56:18Z</time>
      </trkpt>
      <trkpt lat="42.0557920" lon="-8.8882770">
        <ele>9.6</ele>
        <time>2021-05-19T09:56:19Z</time>
      </trkpt>
      <trkpt lat="42.0558010" lon="-8.8882840">
        <ele>9.6</ele>
        <time>2021-05-19T09:56:20Z</time>
      </trkpt>
      <trkpt lat="42.0558140" lon="-8.8882930">
        <ele>9.6</ele>
        <time>2021-05-19T09:56:21Z</time>
      </trkpt>
      <trkpt lat="42.0558290" lon="-8.8882990">
        <ele>9.6</ele>
        <time>2021-05-19T09:56:22Z</time>
      </trkpt>
      <trkpt lat="42.0558360" lon="-8.8883020">
        <ele>9.6</ele>
        <time>2021-05-19T09:56:23Z</time>
      </trkpt>
      <trkpt lat="42.0558470" lon="-8.8883040">
        <ele>9.6</ele>
        <time>2021-05-19T09:56:24Z</time>
      </trkpt>
      <trkpt lat="42.0558600" lon="-8.8883090">
        <ele>9.6</ele>
        <time>2021-05-19T09:56:25Z</time>
      </trkpt>
      <trkpt lat="42.0558810" lon="-8.8883180">
        <ele>9.6</ele>
        <time>2021-05-19T09:56:26Z</time>
      </trkpt>
      <trkpt lat="42.0558910" lon="-8.8883260">
        <ele>9.6</ele>
        <time>2021-05-19T09:56:27Z</time>
      </trkpt>
      <trkpt lat="42.0559000" lon="-8.8883340">
        <ele>9.6</ele>
        <time>2021-05-19T09:56:28Z</time>
      </trkpt>
      <trkpt lat="42.0559060" lon="-8.8883320">
        <ele>9.6</ele>
        <time>2021-05-19T09:56:29Z</time>
      </trkpt>
      <trkpt lat="42.0559110" lon="-8.8883280">
        <ele>9.6</ele>
        <time>2021-05-19T09:56:30Z</time>
      </trkpt>
      <trkpt lat="42.0559230" lon="-8.8883350">
        <ele>9.6</ele>
        <time>2021-05-19T09:56:31Z</time>
      </trkpt>
      <trkpt lat="42.0559350" lon="-8.8883430">
        <ele>9.6</ele>
        <time>2021-05-19T09:56:32Z</time>
      </trkpt>
      <trkpt lat="42.0559420" lon="-8.8883420">
        <ele>9.6</ele>
        <time>2021-05-19T09:56:33Z</time>
      </trkpt>
      <trkpt lat="42.0559560" lon="-8.8883490">
        <ele>9.6</ele>
        <time>2021-05-19T09:56:34Z</time>
      </trkpt>
      <trkpt lat="42.0559640" lon="-8.8883500">
        <ele>9.6</ele>
        <time>2021-05-19T09:56:35Z</time>
      </trkpt>
      <trkpt lat="42.0559790" lon="-8.8883560">
        <ele>9.6</ele>
        <time>2021-05-19T09:56:36Z</time>
      </trkpt>
      <trkpt lat="42.0559990" lon="-8.8883580">
        <ele>9.6</ele>
        <time>2021-05-19T09:56:37Z</time>
      </trkpt>
      <trkpt lat="42.0560060" lon="-8.8883650">
        <ele>9.6</ele>
        <time>2021-05-19T09:56:38Z</time>
      </trkpt>
      <trkpt lat="42.0560190" lon="-8.8883730">
        <ele>9.6</ele>
        <time>2021-05-19T09:56:39Z</time>
      </trkpt>
      <trkpt lat="42.0560260" lon="-8.8883770">
        <ele>9.6</ele>
        <time>2021-05-19T09:56:40Z</time>
      </trkpt>
      <trkpt lat="42.0560360" lon="-8.8883820">
        <ele>9.6</ele>
        <time>2021-05-19T09:56:41Z</time>
      </trkpt>
      <trkpt lat="42.0560440" lon="-8.8883880">
        <ele>9.6</ele>
        <time>2021-05-19T09:56:42Z</time>
      </trkpt>
      <trkpt lat="42.0560570" lon="-8.8883890">
        <ele>9.6</ele>
        <time>2021-05-19T09:56:43Z</time>
      </trkpt>
      <trkpt lat="42.0560670" lon="-8.8883980">
        <ele>9.6</ele>
        <time>2021-05-19T09:56:44Z</time>
      </trkpt>
      <trkpt lat="42.0560810" lon="-8.8884050">
        <ele>9.6</ele>
        <time>2021-05-19T09:56:45Z</time>
      </trkpt>
      <trkpt lat="42.0560890" lon="-8.8884110">
        <ele>9.6</ele>
        <time>2021-05-19T09:56:46Z</time>
      </trkpt>
      <trkpt lat="42.0561000" lon="-8.8884120">
        <ele>9.6</ele>
        <time>2021-05-19T09:56:47Z</time>
      </trkpt>
      <trkpt lat="42.0561090" lon="-8.8884160">
        <ele>9.6</ele>
        <time>2021-05-19T09:56:48Z</time>
      </trkpt>
      <trkpt lat="42.0561220" lon="-8.8884170">
        <ele>9.6</ele>
        <time>2021-05-19T09:56:49Z</time>
      </trkpt>
      <trkpt lat="42.0561320" lon="-8.8884230">
        <ele>9.6</ele>
        <time>2021-05-19T09:56:50Z</time>
      </trkpt>
      <trkpt lat="42.0561480" lon="-8.8884280">
        <ele>9.6</ele>
        <time>2021-05-19T09:56:51Z</time>
      </trkpt>
      <trkpt lat="42.0561570" lon="-8.8884310">
        <ele>9.6</ele>
        <time>2021-05-19T09:56:52Z</time>
      </trkpt>
      <trkpt lat="42.0561730" lon="-8.8884370">
        <ele>9.6</ele>
        <time>2021-05-19T09:56:53Z</time>
      </trkpt>
      <trkpt lat="42.0561820" lon="-8.8884420">
        <ele>9.6</ele>
        <time>2021-05-19T09:56:54Z</time>
      </trkpt>
      <trkpt lat="42.0561930" lon="-8.8884430">
        <ele>9.6</ele>
        <time>2021-05-19T09:56:55Z</time>
      </trkpt>
      <trkpt lat="42.0562050" lon="-8.8884470">
        <ele>9.7</ele>
        <time>2021-05-19T09:56:56Z</time>
      </trkpt>
      <trkpt lat="42.0562130" lon="-8.8884530">
        <ele>9.7</ele>
        <time>2021-05-19T09:56:57Z</time>
      </trkpt>
      <trkpt lat="42.0562330" lon="-8.8884560">
        <ele>9.7</ele>
        <time>2021-05-19T09:56:58Z</time>
      </trkpt>
      <trkpt lat="42.0562410" lon="-8.8884600">
        <ele>9.7</ele>
        <time>2021-05-19T09:56:59Z</time>
      </trkpt>
      <trkpt lat="42.0562490" lon="-8.8884640">
        <ele>9.7</ele>
        <time>2021-05-19T09:57:00Z</time>
      </trkpt>
      <trkpt lat="42.0562600" lon="-8.8884720">
        <ele>9.7</ele>
        <time>2021-05-19T09:57:01Z</time>
      </trkpt>
      <trkpt lat="42.0562590" lon="-8.8884750">
        <ele>9.7</ele>
        <time>2021-05-19T09:57:02Z</time>
      </trkpt>
      <trkpt lat="42.0562680" lon="-8.8884790">
        <ele>9.7</ele>
        <time>2021-05-19T09:57:03Z</time>
      </trkpt>
      <trkpt lat="42.0562750" lon="-8.8884800">
        <ele>9.7</ele>
        <time>2021-05-19T09:57:04Z</time>
      </trkpt>
      <trkpt lat="42.0562930" lon="-8.8884870">
        <ele>9.7</ele>
        <time>2021-05-19T09:57:05Z</time>
      </trkpt>
      <trkpt lat="42.0563010" lon="-8.8884900">
        <ele>9.7</ele>
        <time>2021-05-19T09:57:06Z</time>
      </trkpt>
      <trkpt lat="42.0563100" lon="-8.8884930">
        <ele>9.7</ele>
        <time>2021-05-19T09:57:07Z</time>
      </trkpt>
      <trkpt lat="42.0563240" lon="-8.8884950">
        <ele>9.7</ele>
        <time>2021-05-19T09:57:08Z</time>
      </trkpt>
      <trkpt lat="42.0563380" lon="-8.8884920">
        <ele>9.7</ele>
        <time>2021-05-19T09:57:09Z</time>
      </trkpt>
      <trkpt lat="42.0563580" lon="-8.8885030">
        <ele>9.7</ele>
        <time>2021-05-19T09:57:10Z</time>
      </trkpt>
      <trkpt lat="42.0563660" lon="-8.8885060">
        <ele>9.7</ele>
        <time>2021-05-19T09:57:11Z</time>
      </trkpt>
      <trkpt lat="42.0563730" lon="-8.8885100">
        <ele>9.7</ele>
        <time>2021-05-19T09:57:12Z</time>
      </trkpt>
      <trkpt lat="42.0563910" lon="-8.8885150">
        <ele>9.7</ele>
        <time>2021-05-19T09:57:13Z</time>
      </trkpt>
      <trkpt lat="42.0564000" lon="-8.8885180">
        <ele>9.7</ele>
        <time>2021-05-19T09:57:14Z</time>
      </trkpt>
      <trkpt lat="42.0564100" lon="-8.8885220">
        <ele>9.7</ele>
        <time>2021-05-19T09:57:15Z</time>
      </trkpt>
      <trkpt lat="42.0564200" lon="-8.8885220">
        <ele>9.7</ele>
        <time>2021-05-19T09:57:16Z</time>
      </trkpt>
      <trkpt lat="42.0564300" lon="-8.8885290">
        <ele>9.7</ele>
        <time>2021-05-19T09:57:17Z</time>
      </trkpt>
      <trkpt lat="42.0564360" lon="-8.8885290">
        <ele>9.7</ele>
        <time>2021-05-19T09:57:18Z</time>
      </trkpt>
      <trkpt lat="42.0564460" lon="-8.8885330">
        <ele>9.7</ele>
        <time>2021-05-19T09:57:19Z</time>
      </trkpt>
      <trkpt lat="42.0564570" lon="-8.8885410">
        <ele>9.7</ele>
        <time>2021-05-19T09:57:20Z</time>
      </trkpt>
      <trkpt lat="42.0564670" lon="-8.8885460">
        <ele>9.7</ele>
        <time>2021-05-19T09:57:21Z</time>
      </trkpt>
      <trkpt lat="42.0564860" lon="-8.8885570">
        <ele>9.8</ele>
        <time>2021-05-19T09:57:22Z</time>
      </trkpt>
      <trkpt lat="42.0564940" lon="-8.8885610">
        <ele>9.8</ele>
        <time>2021-05-19T09:57:23Z</time>
      </trkpt>
      <trkpt lat="42.0565010" lon="-8.8885650">
        <ele>9.8</ele>
        <time>2021-05-19T09:57:24Z</time>
      </trkpt>
      <trkpt lat="42.0565090" lon="-8.8885700">
        <ele>9.8</ele>
        <time>2021-05-19T09:57:25Z</time>
      </trkpt>
      <trkpt lat="42.0565220" lon="-8.8885750">
        <ele>9.8</ele>
        <time>2021-05-19T09:57:26Z</time>
      </trkpt>
      <trkpt lat="42.0565300" lon="-8.8885820">
        <ele>9.8</ele>
        <time>2021-05-19T09:57:27Z</time>
      </trkpt>
      <trkpt lat="42.0565450" lon="-8.8885870">
        <ele>9.8</ele>
        <time>2021-05-19T09:57:28Z</time>
      </trkpt>
      <trkpt lat="42.0565590" lon="-8.8885920">
        <ele>9.8</ele>
        <time>2021-05-19T09:57:29Z</time>
      </trkpt>
      <trkpt lat="42.0565690" lon="-8.8885960">
        <ele>9.8</ele>
        <time>2021-05-19T09:57:30Z</time>
      </trkpt>
      <trkpt lat="42.0565780" lon="-8.8886010">
        <ele>9.8</ele>
        <time>2021-05-19T09:57:31Z</time>
      </trkpt>
      <trkpt lat="42.0565910" lon="-8.8886090">
        <ele>9.8</ele>
        <time>2021-05-19T09:57:32Z</time>
      </trkpt>
      <trkpt lat="42.0566070" lon="-8.8886090">
        <ele>9.8</ele>
        <time>2021-05-19T09:57:33Z</time>
      </trkpt>
      <trkpt lat="42.0566220" lon="-8.8886110">
        <ele>9.8</ele>
        <time>2021-05-19T09:57:34Z</time>
      </trkpt>
      <trkpt lat="42.0566400" lon="-8.8886150">
        <ele>9.8</ele>
        <time>2021-05-19T09:57:35Z</time>
      </trkpt>
      <trkpt lat="42.0566500" lon="-8.8886160">
        <ele>9.8</ele>
        <time>2021-05-19T09:57:36Z</time>
      </trkpt>
      <trkpt lat="42.0566630" lon="-8.8886160">
        <ele>9.8</ele>
        <time>2021-05-19T09:57:37Z</time>
      </trkpt>
      <trkpt lat="42.0566810" lon="-8.8886260">
        <ele>9.8</ele>
        <time>2021-05-19T09:57:38Z</time>
      </trkpt>
      <trkpt lat="42.0566990" lon="-8.8886280">
        <ele>9.9</ele>
        <time>2021-05-19T09:57:39Z</time>
      </trkpt>
      <trkpt lat="42.0567120" lon="-8.8886350">
        <ele>9.9</ele>
        <time>2021-05-19T09:57:40Z</time>
      </trkpt>
      <trkpt lat="42.0567300" lon="-8.8886380">
        <ele>9.9</ele>
        <time>2021-05-19T09:57:41Z</time>
      </trkpt>
      <trkpt lat="42.0567440" lon="-8.8886420">
        <ele>9.9</ele>
        <time>2021-05-19T09:57:42Z</time>
      </trkpt>
      <trkpt lat="42.0567570" lon="-8.8886500">
        <ele>9.9</ele>
        <time>2021-05-19T09:57:43Z</time>
      </trkpt>
      <trkpt lat="42.0567720" lon="-8.8886550">
        <ele>9.9</ele>
        <time>2021-05-19T09:57:44Z</time>
      </trkpt>
      <trkpt lat="42.0567840" lon="-8.8886600">
        <ele>9.9</ele>
        <time>2021-05-19T09:57:45Z</time>
      </trkpt>
      <trkpt lat="42.0567990" lon="-8.8886700">
        <ele>9.9</ele>
        <time>2021-05-19T09:57:46Z</time>
      </trkpt>
      <trkpt lat="42.0568140" lon="-8.8886730">
        <ele>9.9</ele>
        <time>2021-05-19T09:57:47Z</time>
      </trkpt>
      <trkpt lat="42.0568290" lon="-8.8886790">
        <ele>9.9</ele>
        <time>2021-05-19T09:57:48Z</time>
      </trkpt>
      <trkpt lat="42.0568420" lon="-8.8886910">
        <ele>10.0</ele>
        <time>2021-05-19T09:57:49Z</time>
      </trkpt>
      <trkpt lat="42.0568540" lon="-8.8886960">
        <ele>10.0</ele>
        <time>2021-05-19T09:57:50Z</time>
      </trkpt>
      <trkpt lat="42.0568690" lon="-8.8887020">
        <ele>10.0</ele>
        <time>2021-05-19T09:57:51Z</time>
      </trkpt>
      <trkpt lat="42.0568850" lon="-8.8887050">
        <ele>10.0</ele>
        <time>2021-05-19T09:57:52Z</time>
      </trkpt>
      <trkpt lat="42.0569000" lon="-8.8887130">
        <ele>10.0</ele>
        <time>2021-05-19T09:57:53Z</time>
      </trkpt>
      <trkpt lat="42.0569180" lon="-8.8887000">
        <ele>10.0</ele>
        <time>2021-05-19T09:57:54Z</time>
      </trkpt>
      <trkpt lat="42.0569320" lon="-8.8887050">
        <ele>10.1</ele>
        <time>2021-05-19T09:57:55Z</time>
      </trkpt>
      <trkpt lat="42.0569470" lon="-8.8887090">
        <ele>10.1</ele>
        <time>2021-05-19T09:57:56Z</time>
      </trkpt>
      <trkpt lat="42.0569600" lon="-8.8887230">
        <ele>10.1</ele>
        <time>2021-05-19T09:57:57Z</time>
      </trkpt>
      <trkpt lat="42.0569730" lon="-8.8887260">
        <ele>10.1</ele>
        <time>2021-05-19T09:57:58Z</time>
      </trkpt>
      <trkpt lat="42.0569870" lon="-8.8887280">
        <ele>10.2</ele>
        <time>2021-05-19T09:57:59Z</time>
      </trkpt>
      <trkpt lat="42.0569980" lon="-8.8887390">
        <ele>10.2</ele>
        <time>2021-05-19T09:58:00Z</time>
      </trkpt>
      <trkpt lat="42.0570120" lon="-8.8887490">
        <ele>10.2</ele>
        <time>2021-05-19T09:58:01Z</time>
      </trkpt>
      <trkpt lat="42.0570250" lon="-8.8887530">
        <ele>10.2</ele>
        <time>2021-05-19T09:58:02Z</time>
      </trkpt>
      <trkpt lat="42.0570400" lon="-8.8887570">
        <ele>10.3</ele>
        <time>2021-05-19T09:58:03Z</time>
      </trkpt>
      <trkpt lat="42.0570540" lon="-8.8887580">
        <ele>10.3</ele>
        <time>2021-05-19T09:58:04Z</time>
      </trkpt>
      <trkpt lat="42.0570700" lon="-8.8887580">
        <ele>10.3</ele>
        <time>2021-05-19T09:58:05Z</time>
      </trkpt>
      <trkpt lat="42.0570820" lon="-8.8887620">
        <ele>10.4</ele>
        <time>2021-05-19T09:58:06Z</time>
      </trkpt>
      <trkpt lat="42.0570960" lon="-8.8887690">
        <ele>10.4</ele>
        <time>2021-05-19T09:58:07Z</time>
      </trkpt>
      <trkpt lat="42.0571100" lon="-8.8887710">
        <ele>10.4</ele>
        <time>2021-05-19T09:58:08Z</time>
      </trkpt>
      <trkpt lat="42.0571230" lon="-8.8887750">
        <ele>10.5</ele>
        <time>2021-05-19T09:58:09Z</time>
      </trkpt>
      <trkpt lat="42.0571370" lon="-8.8887800">
        <ele>10.5</ele>
        <time>2021-05-19T09:58:10Z</time>
      </trkpt>
      <trkpt lat="42.0571530" lon="-8.8887770">
        <ele>10.5</ele>
        <time>2021-05-19T09:58:11Z</time>
      </trkpt>
      <trkpt lat="42.0571650" lon="-8.8887860">
        <ele>10.6</ele>
        <time>2021-05-19T09:58:12Z</time>
      </trkpt>
      <trkpt lat="42.0571780" lon="-8.8887940">
        <ele>10.6</ele>
        <time>2021-05-19T09:58:13Z</time>
      </trkpt>
      <trkpt lat="42.0571890" lon="-8.8888080">
        <ele>10.6</ele>
        <time>2021-05-19T09:58:14Z</time>
      </trkpt>
      <trkpt lat="42.0571980" lon="-8.8888130">
        <ele>10.7</ele>
        <time>2021-05-19T09:58:15Z</time>
      </trkpt>
      <trkpt lat="42.0572090" lon="-8.8888190">
        <ele>10.7</ele>
        <time>2021-05-19T09:58:16Z</time>
      </trkpt>
      <trkpt lat="42.0572180" lon="-8.8888220">
        <ele>10.7</ele>
        <time>2021-05-19T09:58:17Z</time>
      </trkpt>
      <trkpt lat="42.0572210" lon="-8.8888200">
        <ele>10.7</ele>
        <time>2021-05-19T09:58:18Z</time>
      </trkpt>
      <trkpt lat="42.0572270" lon="-8.8888220">
        <ele>10.7</ele>
        <time>2021-05-19T09:58:19Z</time>
      </trkpt>
      <trkpt lat="42.0572320" lon="-8.8888260">
        <ele>10.7</ele>
        <time>2021-05-19T09:58:20Z</time>
      </trkpt>
      <trkpt lat="42.0572500" lon="-8.8888330">
        <ele>10.8</ele>
        <time>2021-05-19T09:58:21Z</time>
      </trkpt>
      <trkpt lat="42.0572670" lon="-8.8888380">
        <ele>10.8</ele>
        <time>2021-05-19T09:58:22Z</time>
      </trkpt>
      <trkpt lat="42.0572780" lon="-8.8888450">
        <ele>10.8</ele>
        <time>2021-05-19T09:58:23Z</time>
      </trkpt>
      <trkpt lat="42.0572910" lon="-8.8888480">
        <ele>10.8</ele>
        <time>2021-05-19T09:58:24Z</time>
      </trkpt>
      <trkpt lat="42.0572970" lon="-8.8888560">
        <ele>10.9</ele>
        <time>2021-05-19T09:58:25Z</time>
      </trkpt>
      <trkpt lat="42.0573040" lon="-8.8888590">
        <ele>10.9</ele>
        <time>2021-05-19T09:58:26Z</time>
      </trkpt>
      <trkpt lat="42.0573120" lon="-8.8888640">
        <ele>10.9</ele>
        <time>2021-05-19T09:58:27Z</time>
      </trkpt>
      <trkpt lat="42.0573230" lon="-8.8888760">
        <ele>10.9</ele>
        <time>2021-05-19T09:58:28Z</time>
      </trkpt>
      <trkpt lat="42.0573330" lon="-8.8888830">
        <ele>10.9</ele>
        <time>2021-05-19T09:58:29Z</time>
      </trkpt>
      <trkpt lat="42.0573440" lon="-8.8888950">
        <ele>10.9</ele>
        <time>2021-05-19T09:58:30Z</time>
      </trkpt>
      <trkpt lat="42.0573510" lon="-8.8889010">
        <ele>10.9</ele>
        <time>2021-05-19T09:58:31Z</time>
      </trkpt>
      <trkpt lat="42.0573570" lon="-8.8889070">
        <ele>10.9</ele>
        <time>2021-05-19T09:58:32Z</time>
      </trkpt>
      <trkpt lat="42.0573630" lon="-8.8889130">
        <ele>10.9</ele>
        <time>2021-05-19T09:58:33Z</time>
      </trkpt>
      <trkpt lat="42.0573720" lon="-8.8889140">
        <ele>11.0</ele>
        <time>2021-05-19T09:58:34Z</time>
      </trkpt>
      <trkpt lat="42.0573810" lon="-8.8889220">
        <ele>11.0</ele>
        <time>2021-05-19T09:58:35Z</time>
      </trkpt>
      <trkpt lat="42.0573940" lon="-8.8889260">
        <ele>11.0</ele>
        <time>2021-05-19T09:58:36Z</time>
      </trkpt>
      <trkpt lat="42.0574100" lon="-8.8889350">
        <ele>11.0</ele>
        <time>2021-05-19T09:58:37Z</time>
      </trkpt>
      <trkpt lat="42.0574200" lon="-8.8889390">
        <ele>11.0</ele>
        <time>2021-05-19T09:58:38Z</time>
      </trkpt>
      <trkpt lat="42.0574290" lon="-8.8889440">
        <ele>11.0</ele>
        <time>2021-05-19T09:58:39Z</time>
      </trkpt>
      <trkpt lat="42.0574390" lon="-8.8889470">
        <ele>11.0</ele>
        <time>2021-05-19T09:58:40Z</time>
      </trkpt>
      <trkpt lat="42.0574540" lon="-8.8889580">
        <ele>11.1</ele>
        <time>2021-05-19T09:58:41Z</time>
      </trkpt>
      <trkpt lat="42.0574620" lon="-8.8889640">
        <ele>11.1</ele>
        <time>2021-05-19T09:58:42Z</time>
      </trkpt>
      <trkpt lat="42.0574770" lon="-8.8889760">
        <ele>11.1</ele>
        <time>2021-05-19T09:58:43Z</time>
      </trkpt>
      <trkpt lat="42.0574870" lon="-8.8889810">
        <ele>11.1</ele>
        <time>2021-05-19T09:58:44Z</time>
      </trkpt>
      <trkpt lat="42.0574960" lon="-8.8889870">
        <ele>11.1</ele>
        <time>2021-05-19T09:58:45Z</time>
      </trkpt>
      <trkpt lat="42.0575020" lon="-8.8889950">
        <ele>11.1</ele>
        <time>2021-05-19T09:58:46Z</time>
      </trkpt>
      <trkpt lat="42.0575190" lon="-8.8890030">
        <ele>11.1</ele>
        <time>2021-05-19T09:58:47Z</time>
      </trkpt>
      <trkpt lat="42.0575200" lon="-8.8890040">
        <ele>11.1</ele>
        <time>2021-05-19T09:58:48Z</time>
      </trkpt>
      <trkpt lat="42.0575400" lon="-8.8890150">
        <ele>11.2</ele>
        <time>2021-05-19T09:58:49Z</time>
      </trkpt>
      <trkpt lat="42.0575490" lon="-8.8890180">
        <ele>11.2</ele>
        <time>2021-05-19T09:58:50Z</time>
      </trkpt>
      <trkpt lat="42.0575590" lon="-8.8890220">
        <ele>11.2</ele>
        <time>2021-05-19T09:58:51Z</time>
      </trkpt>
      <trkpt lat="42.0575730" lon="-8.8890300">
        <ele>11.2</ele>
        <time>2021-05-19T09:58:52Z</time>
      </trkpt>
      <trkpt lat="42.0575830" lon="-8.8890350">
        <ele>11.2</ele>
        <time>2021-05-19T09:58:53Z</time>
      </trkpt>
      <trkpt lat="42.0575920" lon="-8.8890410">
        <ele>11.2</ele>
        <time>2021-05-19T09:58:54Z</time>
      </trkpt>
      <trkpt lat="42.0576050" lon="-8.8890530">
        <ele>11.3</ele>
        <time>2021-05-19T09:58:55Z</time>
      </trkpt>
      <trkpt lat="42.0576180" lon="-8.8890580">
        <ele>11.3</ele>
        <time>2021-05-19T09:58:56Z</time>
      </trkpt>
      <trkpt lat="42.0576370" lon="-8.8890650">
        <ele>11.3</ele>
        <time>2021-05-19T09:58:57Z</time>
      </trkpt>
      <trkpt lat="42.0576460" lon="-8.8890700">
        <ele>11.3</ele>
        <time>2021-05-19T09:58:58Z</time>
      </trkpt>
      <trkpt lat="42.0576540" lon="-8.8890740">
        <ele>11.3</ele>
        <time>2021-05-19T09:58:59Z</time>
      </trkpt>
      <trkpt lat="42.0576650" lon="-8.8890760">
        <ele>11.3</ele>
        <time>2021-05-19T09:59:00Z</time>
      </trkpt>
      <trkpt lat="42.0576750" lon="-8.8890790">
        <ele>11.3</ele>
        <time>2021-05-19T09:59:01Z</time>
      </trkpt>
      <trkpt lat="42.0576850" lon="-8.8890880">
        <ele>11.3</ele>
        <time>2021-05-19T09:59:02Z</time>
      </trkpt>
      <trkpt lat="42.0576980" lon="-8.8890910">
        <ele>11.3</ele>
        <time>2021-05-19T09:59:03Z</time>
      </trkpt>
      <trkpt lat="42.0577130" lon="-8.8891020">
        <ele>11.4</ele>
        <time>2021-05-19T09:59:04Z</time>
      </trkpt>
      <trkpt lat="42.0577250" lon="-8.8891060">
        <ele>11.4</ele>
        <time>2021-05-19T09:59:05Z</time>
      </trkpt>
      <trkpt lat="42.0577420" lon="-8.8891140">
        <ele>11.4</ele>
        <time>2021-05-19T09:59:06Z</time>
      </trkpt>
      <trkpt lat="42.0577560" lon="-8.8891240">
        <ele>11.4</ele>
        <time>2021-05-19T09:59:07Z</time>
      </trkpt>
      <trkpt lat="42.0577720" lon="-8.8891270">
        <ele>11.4</ele>
        <time>2021-05-19T09:59:08Z</time>
      </trkpt>
      <trkpt lat="42.0577870" lon="-8.8891320">
        <ele>11.4</ele>
        <time>2021-05-19T09:59:09Z</time>
      </trkpt>
      <trkpt lat="42.0578020" lon="-8.8891360">
        <ele>11.4</ele>
        <time>2021-05-19T09:59:10Z</time>
      </trkpt>
      <trkpt lat="42.0578170" lon="-8.8891410">
        <ele>11.4</ele>
        <time>2021-05-19T09:59:11Z</time>
      </trkpt>
      <trkpt lat="42.0578290" lon="-8.8891490">
        <ele>11.5</ele>
        <time>2021-05-19T09:59:12Z</time>
      </trkpt>
      <trkpt lat="42.0578430" lon="-8.8891540">
        <ele>11.5</ele>
        <time>2021-05-19T09:59:13Z</time>
      </trkpt>
      <trkpt lat="42.0578560" lon="-8.8891600">
        <ele>11.5</ele>
        <time>2021-05-19T09:59:14Z</time>
      </trkpt>
      <trkpt lat="42.0578680" lon="-8.8891670">
        <ele>11.5</ele>
        <time>2021-05-19T09:59:15Z</time>
      </trkpt>
      <trkpt lat="42.0578850" lon="-8.8891660">
        <ele>11.5</ele>
        <time>2021-05-19T09:59:16Z</time>
      </trkpt>
      <trkpt lat="42.0578980" lon="-8.8891750">
        <ele>11.5</ele>
        <time>2021-05-19T09:59:17Z</time>
      </trkpt>
      <trkpt lat="42.0579100" lon="-8.8891830">
        <ele>11.6</ele>
        <time>2021-05-19T09:59:18Z</time>
      </trkpt>
      <trkpt lat="42.0579240" lon="-8.8891900">
        <ele>11.6</ele>
        <time>2021-05-19T09:59:19Z</time>
      </trkpt>
      <trkpt lat="42.0579390" lon="-8.8891940">
        <ele>11.6</ele>
        <time>2021-05-19T09:59:20Z</time>
      </trkpt>
      <trkpt lat="42.0579540" lon="-8.8892010">
        <ele>11.6</ele>
        <time>2021-05-19T09:59:21Z</time>
      </trkpt>
      <trkpt lat="42.0579670" lon="-8.8892100">
        <ele>11.6</ele>
        <time>2021-05-19T09:59:22Z</time>
      </trkpt>
      <trkpt lat="42.0579810" lon="-8.8892160">
        <ele>11.7</ele>
        <time>2021-05-19T09:59:23Z</time>
      </trkpt>
      <trkpt lat="42.0579940" lon="-8.8892200">
        <ele>11.7</ele>
        <time>2021-05-19T09:59:24Z</time>
      </trkpt>
      <trkpt lat="42.0580090" lon="-8.8892210">
        <ele>11.7</ele>
        <time>2021-05-19T09:59:25Z</time>
      </trkpt>
      <trkpt lat="42.0580210" lon="-8.8892240">
        <ele>11.7</ele>
        <time>2021-05-19T09:59:26Z</time>
      </trkpt>
      <trkpt lat="42.0580360" lon="-8.8892300">
        <ele>11.7</ele>
        <time>2021-05-19T09:59:27Z</time>
      </trkpt>
      <trkpt lat="42.0580500" lon="-8.8892370">
        <ele>11.8</ele>
        <time>2021-05-19T09:59:28Z</time>
      </trkpt>
      <trkpt lat="42.0580650" lon="-8.8892410">
        <ele>11.8</ele>
        <time>2021-05-19T09:59:29Z</time>
      </trkpt>
      <trkpt lat="42.0580780" lon="-8.8892450">
        <ele>11.8</ele>
        <time>2021-05-19T09:59:30Z</time>
      </trkpt>
      <trkpt lat="42.0580930" lon="-8.8892510">
        <ele>11.8</ele>
        <time>2021-05-19T09:59:31Z</time>
      </trkpt>
      <trkpt lat="42.0581060" lon="-8.8892610">
        <ele>11.8</ele>
        <time>2021-05-19T09:59:32Z</time>
      </trkpt>
      <trkpt lat="42.0581210" lon="-8.8892650">
        <ele>11.9</ele>
        <time>2021-05-19T09:59:33Z</time>
      </trkpt>
      <trkpt lat="42.0581350" lon="-8.8892700">
        <ele>11.9</ele>
        <time>2021-05-19T09:59:34Z</time>
      </trkpt>
      <trkpt lat="42.0581480" lon="-8.8892760">
        <ele>11.9</ele>
        <time>2021-05-19T09:59:35Z</time>
      </trkpt>
      <trkpt lat="42.0581600" lon="-8.8892830">
        <ele>11.9</ele>
        <time>2021-05-19T09:59:36Z</time>
      </trkpt>
      <trkpt lat="42.0581740" lon="-8.8892870">
        <ele>11.9</ele>
        <time>2021-05-19T09:59:37Z</time>
      </trkpt>
      <trkpt lat="42.0581880" lon="-8.8892930">
        <ele>11.9</ele>
        <time>2021-05-19T09:59:38Z</time>
      </trkpt>
      <trkpt lat="42.0582010" lon="-8.8893010">
        <ele>11.9</ele>
        <time>2021-05-19T09:59:39Z</time>
      </trkpt>
      <trkpt lat="42.0582150" lon="-8.8893050">
        <ele>11.9</ele>
        <time>2021-05-19T09:59:40Z</time>
      </trkpt>
      <trkpt lat="42.0582360" lon="-8.8893120">
        <ele>11.9</ele>
        <time>2021-05-19T09:59:41Z</time>
      </trkpt>
      <trkpt lat="42.0582450" lon="-8.8893160">
        <ele>11.9</ele>
        <time>2021-05-19T09:59:42Z</time>
      </trkpt>
      <trkpt lat="42.0582530" lon="-8.8893190">
        <ele>11.9</ele>
        <time>2021-05-19T09:59:43Z</time>
      </trkpt>
      <trkpt lat="42.0582660" lon="-8.8893230">
        <ele>11.9</ele>
        <time>2021-05-19T09:59:44Z</time>
      </trkpt>
      <trkpt lat="42.0582800" lon="-8.8893230">
        <ele>11.9</ele>
        <time>2021-05-19T09:59:45Z</time>
      </trkpt>
      <trkpt lat="42.0582920" lon="-8.8893330">
        <ele>12.0</ele>
        <time>2021-05-19T09:59:46Z</time>
      </trkpt>
      <trkpt lat="42.0583060" lon="-8.8893350">
        <ele>12.0</ele>
        <time>2021-05-19T09:59:47Z</time>
      </trkpt>
      <trkpt lat="42.0583180" lon="-8.8893390">
        <ele>12.0</ele>
        <time>2021-05-19T09:59:48Z</time>
      </trkpt>
      <trkpt lat="42.0583320" lon="-8.8893420">
        <ele>12.0</ele>
        <time>2021-05-19T09:59:49Z</time>
      </trkpt>
      <trkpt lat="42.0583350" lon="-8.8893480">
        <ele>12.0</ele>
        <time>2021-05-19T09:59:50Z</time>
      </trkpt>
      <trkpt lat="42.0583430" lon="-8.8893560">
        <ele>12.0</ele>
        <time>2021-05-19T09:59:51Z</time>
      </trkpt>
      <trkpt lat="42.0583500" lon="-8.8893640">
        <ele>12.0</ele>
        <time>2021-05-19T09:59:52Z</time>
      </trkpt>
      <trkpt lat="42.0583620" lon="-8.8893660">
        <ele>12.0</ele>
        <time>2021-05-19T09:59:53Z</time>
      </trkpt>
      <trkpt lat="42.0583740" lon="-8.8893660">
        <ele>12.0</ele>
        <time>2021-05-19T09:59:54Z</time>
      </trkpt>
      <trkpt lat="42.0583810" lon="-8.8893720">
        <ele>12.0</ele>
        <time>2021-05-19T09:59:55Z</time>
      </trkpt>
      <trkpt lat="42.0583900" lon="-8.8893790">
        <ele>12.0</ele>
        <time>2021-05-19T09:59:56Z</time>
      </trkpt>
      <trkpt lat="42.0583990" lon="-8.8893840">
        <ele>12.0</ele>
        <time>2021-05-19T09:59:57Z</time>
      </trkpt>
      <trkpt lat="42.0584170" lon="-8.8893910">
        <ele>12.1</ele>
        <time>2021-05-19T09:59:58Z</time>
      </trkpt>
      <trkpt lat="42.0584230" lon="-8.8893920">
        <ele>12.1</ele>
        <time>2021-05-19T09:59:59Z</time>
      </trkpt>
      <trkpt lat="42.0584320" lon="-8.8894030">
        <ele>12.1</ele>
        <time>2021-05-19T10:00:00Z</time>
      </trkpt>
      <trkpt lat="42.0584440" lon="-8.8894080">
        <ele>12.1</ele>
        <time>2021-05-19T10:00:01Z</time>
      </trkpt>
      <trkpt lat="42.0584550" lon="-8.8894110">
        <ele>12.1</ele>
        <time>2021-05-19T10:00:02Z</time>
      </trkpt>
      <trkpt lat="42.0584690" lon="-8.8894170">
        <ele>12.1</ele>
        <time>2021-05-19T10:00:03Z</time>
      </trkpt>
      <trkpt lat="42.0584710" lon="-8.8894210">
        <ele>12.1</ele>
        <time>2021-05-19T10:00:04Z</time>
      </trkpt>
      <trkpt lat="42.0584850" lon="-8.8894300">
        <ele>12.2</ele>
        <time>2021-05-19T10:00:05Z</time>
      </trkpt>
      <trkpt lat="42.0584930" lon="-8.8894340">
        <ele>12.2</ele>
        <time>2021-05-19T10:00:06Z</time>
      </trkpt>
      <trkpt lat="42.0585000" lon="-8.8894390">
        <ele>12.2</ele>
        <time>2021-05-19T10:00:07Z</time>
      </trkpt>
      <trkpt lat="42.0585080" lon="-8.8894430">
        <ele>12.2</ele>
        <time>2021-05-19T10:00:08Z</time>
      </trkpt>
      <trkpt lat="42.0585340" lon="-8.8894470">
        <ele>12.2</ele>
        <time>2021-05-19T10:00:09Z</time>
      </trkpt>
      <trkpt lat="42.0585470" lon="-8.8894520">
        <ele>12.3</ele>
        <time>2021-05-19T10:00:10Z</time>
      </trkpt>
      <trkpt lat="42.0585590" lon="-8.8894570">
        <ele>12.3</ele>
        <time>2021-05-19T10:00:11Z</time>
      </trkpt>
      <trkpt lat="42.0585570" lon="-8.8894620">
        <ele>12.3</ele>
        <time>2021-05-19T10:00:12Z</time>
      </trkpt>
      <trkpt lat="42.0585720" lon="-8.8894670">
        <ele>12.3</ele>
        <time>2021-05-19T10:00:13Z</time>
      </trkpt>
      <trkpt lat="42.0585810" lon="-8.8894700">
        <ele>12.3</ele>
        <time>2021-05-19T10:00:14Z</time>
      </trkpt>
      <trkpt lat="42.0585890" lon="-8.8894660">
        <ele>12.4</ele>
        <time>2021-05-19T10:00:15Z</time>
      </trkpt>
      <trkpt lat="42.0586040" lon="-8.8894760">
        <ele>12.4</ele>
        <time>2021-05-19T10:00:16Z</time>
      </trkpt>
      <trkpt lat="42.0586200" lon="-8.8894800">
        <ele>12.4</ele>
        <time>2021-05-19T10:00:17Z</time>
      </trkpt>
      <trkpt lat="42.0586440" lon="-8.8894830">
        <ele>12.5</ele>
        <time>2021-05-19T10:00:18Z</time>
      </trkpt>
      <trkpt lat="42.0586530" lon="-8.8894870">
        <ele>12.5</ele>
        <time>2021-05-19T10:00:19Z</time>
      </trkpt>
      <trkpt lat="42.0586610" lon="-8.8894900">
        <ele>12.5</ele>
        <time>2021-05-19T10:00:20Z</time>
      </trkpt>
      <trkpt lat="42.0586650" lon="-8.8894900">
        <ele>12.5</ele>
        <time>2021-05-19T10:00:21Z</time>
      </trkpt>
      <trkpt lat="42.0586740" lon="-8.8894960">
        <ele>12.5</ele>
        <time>2021-05-19T10:00:22Z</time>
      </trkpt>
      <trkpt lat="42.0586900" lon="-8.8895040">
        <ele>12.6</ele>
        <time>2021-05-19T10:00:23Z</time>
      </trkpt>
      <trkpt lat="42.0587020" lon="-8.8895070">
        <ele>12.6</ele>
        <time>2021-05-19T10:00:24Z</time>
      </trkpt>
      <trkpt lat="42.0587120" lon="-8.8895120">
        <ele>12.6</ele>
        <time>2021-05-19T10:00:25Z</time>
      </trkpt>
      <trkpt lat="42.0587250" lon="-8.8895150">
        <ele>12.7</ele>
        <time>2021-05-19T10:00:26Z</time>
      </trkpt>
      <trkpt lat="42.0587390" lon="-8.8895230">
        <ele>12.7</ele>
        <time>2021-05-19T10:00:27Z</time>
      </trkpt>
      <trkpt lat="42.0587580" lon="-8.8895250">
        <ele>12.8</ele>
        <time>2021-05-19T10:00:28Z</time>
      </trkpt>
      <trkpt lat="42.0587700" lon="-8.8895280">
        <ele>12.8</ele>
        <time>2021-05-19T10:00:29Z</time>
      </trkpt>
      <trkpt lat="42.0587850" lon="-8.8895370">
        <ele>12.8</ele>
        <time>2021-05-19T10:00:30Z</time>
      </trkpt>
      <trkpt lat="42.0587930" lon="-8.8895390">
        <ele>12.9</ele>
        <time>2021-05-19T10:00:31Z</time>
      </trkpt>
      <trkpt lat="42.0588130" lon="-8.8895490">
        <ele>12.9</ele>
        <time>2021-05-19T10:00:32Z</time>
      </trkpt>
      <trkpt lat="42.0588180" lon="-8.8895550">
        <ele>12.9</ele>
        <time>2021-05-19T10:00:33Z</time>
      </trkpt>
      <trkpt lat="42.0588260" lon="-8.8895600">
        <ele>13.0</ele>
        <time>2021-05-19T10:00:34Z</time>
      </trkpt>
      <trkpt lat="42.0588330" lon="-8.8895660">
        <ele>13.0</ele>
        <time>2021-05-19T10:00:35Z</time>
      </trkpt>
      <trkpt lat="42.0588410" lon="-8.8895710">
        <ele>13.0</ele>
        <time>2021-05-19T10:00:36Z</time>
      </trkpt>
      <trkpt lat="42.0588480" lon="-8.8895760">
        <ele>13.0</ele>
        <time>2021-05-19T10:00:37Z</time>
      </trkpt>
      <trkpt lat="42.0588550" lon="-8.8895820">
        <ele>13.1</ele>
        <time>2021-05-19T10:00:38Z</time>
      </trkpt>
      <trkpt lat="42.0588700" lon="-8.8895880">
        <ele>13.1</ele>
        <time>2021-05-19T10:00:39Z</time>
      </trkpt>
      <trkpt lat="42.0588800" lon="-8.8895860">
        <ele>13.1</ele>
        <time>2021-05-19T10:00:40Z</time>
      </trkpt>
      <trkpt lat="42.0589000" lon="-8.8895970">
        <ele>13.2</ele>
        <time>2021-05-19T10:00:41Z</time>
      </trkpt>
      <trkpt lat="42.0589080" lon="-8.8896000">
        <ele>13.2</ele>
        <time>2021-05-19T10:00:42Z</time>
      </trkpt>
      <trkpt lat="42.0589160" lon="-8.8896020">
        <ele>13.2</ele>
        <time>2021-05-19T10:00:43Z</time>
      </trkpt>
      <trkpt lat="42.0589230" lon="-8.8896020">
        <ele>13.3</ele>
        <time>2021-05-19T10:00:44Z</time>
      </trkpt>
      <trkpt lat="42.0589340" lon="-8.8896140">
        <ele>13.3</ele>
        <time>2021-05-19T10:00:45Z</time>
      </trkpt>
      <trkpt lat="42.0589440" lon="-8.8896150">
        <ele>13.3</ele>
        <time>2021-05-19T10:00:46Z</time>
      </trkpt>
      <trkpt lat="42.0589650" lon="-8.8896150">
        <ele>13.4</ele>
        <time>2021-05-19T10:00:47Z</time>
      </trkpt>
      <trkpt lat="42.0589740" lon="-8.8896160">
        <ele>13.4</ele>
        <time>2021-05-19T10:00:48Z</time>
      </trkpt>
      <trkpt lat="42.0589820" lon="-8.8896170">
        <ele>13.4</ele>
        <time>2021-05-19T10:00:49Z</time>
      </trkpt>
      <trkpt lat="42.0590020" lon="-8.8896330">
        <ele>13.5</ele>
        <time>2021-05-19T10:00:50Z</time>
      </trkpt>
      <trkpt lat="42.0590100" lon="-8.8896370">
        <ele>13.5</ele>
        <time>2021-05-19T10:00:51Z</time>
      </trkpt>
      <trkpt lat="42.0590170" lon="-8.8896420">
        <ele>13.5</ele>
        <time>2021-05-19T10:00:52Z</time>
      </trkpt>
      <trkpt lat="42.0590380" lon="-8.8896470">
        <ele>13.6</ele>
        <time>2021-05-19T10:00:53Z</time>
      </trkpt>
      <trkpt lat="42.0590490" lon="-8.8896500">
        <ele>13.6</ele>
        <time>2021-05-19T10:00:54Z</time>
      </trkpt>
      <trkpt lat="42.0590590" lon="-8.8896530">
        <ele>13.6</ele>
        <time>2021-05-19T10:00:55Z</time>
      </trkpt>
      <trkpt lat="42.0590730" lon="-8.8896520">
        <ele>13.7</ele>
        <time>2021-05-19T10:00:56Z</time>
      </trkpt>
      <trkpt lat="42.0590800" lon="-8.8896550">
        <ele>13.7</ele>
        <time>2021-05-19T10:00:57Z</time>
      </trkpt>
      <trkpt lat="42.0590930" lon="-8.8896560">
        <ele>13.7</ele>
        <time>2021-05-19T10:00:58Z</time>
      </trkpt>
      <trkpt lat="42.0591100" lon="-8.8896670">
        <ele>13.8</ele>
        <time>2021-05-19T10:00:59Z</time>
      </trkpt>
      <trkpt lat="42.0591200" lon="-8.8896630">
        <ele>13.8</ele>
        <time>2021-05-19T10:01:00Z</time>
      </trkpt>
      <trkpt lat="42.0591310" lon="-8.8896720">
        <ele>13.8</ele>
        <time>2021-05-19T10:01:01Z</time>
      </trkpt>
      <trkpt lat="42.0591400" lon="-8.8896770">
        <ele>13.8</ele>
        <time>2021-05-19T10:01:02Z</time>
      </trkpt>
      <trkpt lat="42.0591510" lon="-8.8896790">
        <ele>13.9</ele>
        <time>2021-05-19T10:01:03Z</time>
      </trkpt>
      <trkpt lat="42.0591660" lon="-8.8896810">
        <ele>13.9</ele>
        <time>2021-05-19T10:01:04Z</time>
      </trkpt>
      <trkpt lat="42.0591780" lon="-8.8896970">
        <ele>13.9</ele>
        <time>2021-05-19T10:01:05Z</time>
      </trkpt>
      <trkpt lat="42.0591890" lon="-8.8896930">
        <ele>13.9</ele>
        <time>2021-05-19T10:01:06Z</time>
      </trkpt>
      <trkpt lat="42.0592050" lon="-8.8896990">
        <ele>14.0</ele>
        <time>2021-05-19T10:01:07Z</time>
      </trkpt>
      <trkpt lat="42.0592180" lon="-8.8897010">
        <ele>14.0</ele>
        <time>2021-05-19T10:01:08Z</time>
      </trkpt>
      <trkpt lat="42.0592340" lon="-8.8897070">
        <ele>14.0</ele>
        <time>2021-05-19T10:01:09Z</time>
      </trkpt>
      <trkpt lat="42.0592480" lon="-8.8897000">
        <ele>14.1</ele>
        <time>2021-05-19T10:01:10Z</time>
      </trkpt>
      <trkpt lat="42.0592630" lon="-8.8897000">
        <ele>14.1</ele>
        <time>2021-05-19T10:01:11Z</time>
      </trkpt>
      <trkpt lat="42.0592860" lon="-8.8896990">
        <ele>14.2</ele>
        <time>2021-05-19T10:01:12Z</time>
      </trkpt>
      <trkpt lat="42.0592960" lon="-8.8897000">
        <ele>14.2</ele>
        <time>2021-05-19T10:01:13Z</time>
      </trkpt>
      <trkpt lat="42.0593050" lon="-8.8897020">
        <ele>14.2</ele>
        <time>2021-05-19T10:01:14Z</time>
      </trkpt>
      <trkpt lat="42.0593160" lon="-8.8897040">
        <ele>14.2</ele>
        <time>2021-05-19T10:01:15Z</time>
      </trkpt>
      <trkpt lat="42.0593340" lon="-8.8897080">
        <ele>14.2</ele>
        <time>2021-05-19T10:01:16Z</time>
      </trkpt>
      <trkpt lat="42.0593530" lon="-8.8897060">
        <ele>14.3</ele>
        <time>2021-05-19T10:01:17Z</time>
      </trkpt>
      <trkpt lat="42.0593630" lon="-8.8897070">
        <ele>14.3</ele>
        <time>2021-05-19T10:01:18Z</time>
      </trkpt>
      <trkpt lat="42.0593720" lon="-8.8897080">
        <ele>14.3</ele>
        <time>2021-05-19T10:01:19Z</time>
      </trkpt>
      <trkpt lat="42.0593930" lon="-8.8897120">
        <ele>14.4</ele>
        <time>2021-05-19T10:01:20Z</time>
      </trkpt>
      <trkpt lat="42.0594020" lon="-8.8897160">
        <ele>14.4</ele>
        <time>2021-05-19T10:01:21Z</time>
      </trkpt>
      <trkpt lat="42.0594120" lon="-8.8897200">
        <ele>14.4</ele>
        <time>2021-05-19T10:01:22Z</time>
      </trkpt>
      <trkpt lat="42.0594270" lon="-8.8897220">
        <ele>14.4</ele>
        <time>2021-05-19T10:01:23Z</time>
      </trkpt>
      <trkpt lat="42.0594380" lon="-8.8897260">
        <ele>14.5</ele>
        <time>2021-05-19T10:01:24Z</time>
      </trkpt>
      <trkpt lat="42.0594460" lon="-8.8897310">
        <ele>14.5</ele>
        <time>2021-05-19T10:01:25Z</time>
      </trkpt>
      <trkpt lat="42.0594540" lon="-8.8897380">
        <ele>14.5</ele>
        <time>2021-05-19T10:01:26Z</time>
      </trkpt>
      <trkpt lat="42.0594730" lon="-8.8897420">
        <ele>14.5</ele>
        <time>2021-05-19T10:01:27Z</time>
      </trkpt>
      <trkpt lat="42.0594870" lon="-8.8897430">
        <ele>14.5</ele>
        <time>2021-05-19T10:01:28Z</time>
      </trkpt>
      <trkpt lat="42.0595030" lon="-8.8897470">
        <ele>14.6</ele>
        <time>2021-05-19T10:01:29Z</time>
      </trkpt>
      <trkpt lat="42.0595130" lon="-8.8897510">
        <ele>14.6</ele>
        <time>2021-05-19T10:01:30Z</time>
      </trkpt>
      <trkpt lat="42.0595310" lon="-8.8897550">
        <ele>14.6</ele>
        <time>2021-05-19T10:01:31Z</time>
      </trkpt>
      <trkpt lat="42.0595390" lon="-8.8897560">
        <ele>14.6</ele>
        <time>2021-05-19T10:01:32Z</time>
      </trkpt>
      <trkpt lat="42.0595530" lon="-8.8897570">
        <ele>14.6</ele>
        <time>2021-05-19T10:01:33Z</time>
      </trkpt>
      <trkpt lat="42.0595660" lon="-8.8897610">
        <ele>14.6</ele>
        <time>2021-05-19T10:01:34Z</time>
      </trkpt>
      <trkpt lat="42.0595850" lon="-8.8897670">
        <ele>14.7</ele>
        <time>2021-05-19T10:01:35Z</time>
      </trkpt>
      <trkpt lat="42.0595930" lon="-8.8897710">
        <ele>14.7</ele>
        <time>2021-05-19T10:01:36Z</time>
      </trkpt>
      <trkpt lat="42.0596020" lon="-8.8897740">
        <ele>14.7</ele>
        <time>2021-05-19T10:01:37Z</time>
      </trkpt>
      <trkpt lat="42.0596130" lon="-8.8897760">
        <ele>14.7</ele>
        <time>2021-05-19T10:01:38Z</time>
      </trkpt>
      <trkpt lat="42.0596200" lon="-8.8897810">
        <ele>14.7</ele>
        <time>2021-05-19T10:01:39Z</time>
      </trkpt>
      <trkpt lat="42.0596330" lon="-8.8897840">
        <ele>14.7</ele>
        <time>2021-05-19T10:01:40Z</time>
      </trkpt>
      <trkpt lat="42.0596510" lon="-8.8897900">
        <ele>14.8</ele>
        <time>2021-05-19T10:01:41Z</time>
      </trkpt>
      <trkpt lat="42.0596570" lon="-8.8897930">
        <ele>14.8</ele>
        <time>2021-05-19T10:01:42Z</time>
      </trkpt>
      <trkpt lat="42.0596640" lon="-8.8897960">
        <ele>14.8</ele>
        <time>2021-05-19T10:01:43Z</time>
      </trkpt>
      <trkpt lat="42.0596700" lon="-8.8897990">
        <ele>14.8</ele>
        <time>2021-05-19T10:01:44Z</time>
      </trkpt>
      <trkpt lat="42.0596900" lon="-8.8898110">
        <ele>14.8</ele>
        <time>2021-05-19T10:01:45Z</time>
      </trkpt>
      <trkpt lat="42.0596970" lon="-8.8898150">
        <ele>14.9</ele>
        <time>2021-05-19T10:01:46Z</time>
      </trkpt>
      <trkpt lat="42.0597050" lon="-8.8898180">
        <ele>14.9</ele>
        <time>2021-05-19T10:01:47Z</time>
      </trkpt>
      <trkpt lat="42.0597170" lon="-8.8898250">
        <ele>14.9</ele>
        <time>2021-05-19T10:01:48Z</time>
      </trkpt>
      <trkpt lat="42.0597340" lon="-8.8898330">
        <ele>14.9</ele>
        <time>2021-05-19T10:01:49Z</time>
      </trkpt>
      <trkpt lat="42.0597520" lon="-8.8898370">
        <ele>15.0</ele>
        <time>2021-05-19T10:01:50Z</time>
      </trkpt>
      <trkpt lat="42.0597660" lon="-8.8898400">
        <ele>15.0</ele>
        <time>2021-05-19T10:01:51Z</time>
      </trkpt>
      <trkpt lat="42.0597840" lon="-8.8898360">
        <ele>15.0</ele>
        <time>2021-05-19T10:01:52Z</time>
      </trkpt>
      <trkpt lat="42.0597970" lon="-8.8898380">
        <ele>15.0</ele>
        <time>2021-05-19T10:01:53Z</time>
      </trkpt>
      <trkpt lat="42.0598110" lon="-8.8898450">
        <ele>15.0</ele>
        <time>2021-05-19T10:01:54Z</time>
      </trkpt>
      <trkpt lat="42.0598250" lon="-8.8898480">
        <ele>15.0</ele>
        <time>2021-05-19T10:01:55Z</time>
      </trkpt>
      <trkpt lat="42.0598380" lon="-8.8898540">
        <ele>15.0</ele>
        <time>2021-05-19T10:01:56Z</time>
      </trkpt>
      <trkpt lat="42.0598520" lon="-8.8898590">
        <ele>15.0</ele>
        <time>2021-05-19T10:01:57Z</time>
      </trkpt>
      <trkpt lat="42.0598680" lon="-8.8898600">
        <ele>15.0</ele>
        <time>2021-05-19T10:01:58Z</time>
      </trkpt>
      <trkpt lat="42.0598810" lon="-8.8898700">
        <ele>15.0</ele>
        <time>2021-05-19T10:01:59Z</time>
      </trkpt>
      <trkpt lat="42.0598950" lon="-8.8898720">
        <ele>15.0</ele>
        <time>2021-05-19T10:02:00Z</time>
      </trkpt>
      <trkpt lat="42.0599100" lon="-8.8898700">
        <ele>14.9</ele>
        <time>2021-05-19T10:02:01Z</time>
      </trkpt>
      <trkpt lat="42.0599250" lon="-8.8898670">
        <ele>14.9</ele>
        <time>2021-05-19T10:02:02Z</time>
      </trkpt>
      <trkpt lat="42.0599380" lon="-8.8898720">
        <ele>14.9</ele>
        <time>2021-05-19T10:02:03Z</time>
      </trkpt>
      <trkpt lat="42.0599530" lon="-8.8898770">
        <ele>14.9</ele>
        <time>2021-05-19T10:02:04Z</time>
      </trkpt>
      <trkpt lat="42.0599680" lon="-8.8898820">
        <ele>14.8</ele>
        <time>2021-05-19T10:02:05Z</time>
      </trkpt>
      <trkpt lat="42.0599820" lon="-8.8898920">
        <ele>14.8</ele>
        <time>2021-05-19T10:02:06Z</time>
      </trkpt>
      <trkpt lat="42.0599970" lon="-8.8898970">
        <ele>14.8</ele>
        <time>2021-05-19T10:02:07Z</time>
      </trkpt>
      <trkpt lat="42.0600110" lon="-8.8899020">
        <ele>14.7</ele>
        <time>2021-05-19T10:02:08Z</time>
      </trkpt>
      <trkpt lat="42.0600260" lon="-8.8899070">
        <ele>14.7</ele>
        <time>2021-05-19T10:02:09Z</time>
      </trkpt>
      <trkpt lat="42.0600400" lon="-8.8899140">
        <ele>14.7</ele>
        <time>2021-05-19T10:02:10Z</time>
      </trkpt>
      <trkpt lat="42.0600530" lon="-8.8899220">
        <ele>14.6</ele>
        <time>2021-05-19T10:02:11Z</time>
      </trkpt>
      <trkpt lat="42.0600680" lon="-8.8899250">
        <ele>14.6</ele>
        <time>2021-05-19T10:02:12Z</time>
      </trkpt>
      <trkpt lat="42.0600800" lon="-8.8899340">
        <ele>14.5</ele>
        <time>2021-05-19T10:02:13Z</time>
      </trkpt>
      <trkpt lat="42.0600920" lon="-8.8899380">
        <ele>14.5</ele>
        <time>2021-05-19T10:02:14Z</time>
      </trkpt>
      <trkpt lat="42.0601010" lon="-8.8899390">
        <ele>14.5</ele>
        <time>2021-05-19T10:02:15Z</time>
      </trkpt>
      <trkpt lat="42.0601130" lon="-8.8899400">
        <ele>14.4</ele>
        <time>2021-05-19T10:02:16Z</time>
      </trkpt>
      <trkpt lat="42.0601350" lon="-8.8899500">
        <ele>14.4</ele>
        <time>2021-05-19T10:02:17Z</time>
      </trkpt>
      <trkpt lat="42.0601410" lon="-8.8899540">
        <ele>14.4</ele>
        <time>2021-05-19T10:02:18Z</time>
      </trkpt>
      <trkpt lat="42.0601480" lon="-8.8899590">
        <ele>14.3</ele>
        <time>2021-05-19T10:02:19Z</time>
      </trkpt>
      <trkpt lat="42.0601620" lon="-8.8899650">
        <ele>14.3</ele>
        <time>2021-05-19T10:02:20Z</time>
      </trkpt>
      <trkpt lat="42.0601750" lon="-8.8899750">
        <ele>14.3</ele>
        <time>2021-05-19T10:02:21Z</time>
      </trkpt>
      <trkpt lat="42.0601970" lon="-8.8899810">
        <ele>14.2</ele>
        <time>2021-05-19T10:02:22Z</time>
      </trkpt>
      <trkpt lat="42.0602040" lon="-8.8899850">
        <ele>14.2</ele>
        <time>2021-05-19T10:02:23Z</time>
      </trkpt>
      <trkpt lat="42.0602120" lon="-8.8899890">
        <ele>14.2</ele>
        <time>2021-05-19T10:02:24Z</time>
      </trkpt>
      <trkpt lat="42.0602250" lon="-8.8899960">
        <ele>14.1</ele>
        <time>2021-05-19T10:02:25Z</time>
      </trkpt>
      <trkpt lat="42.0602390" lon="-8.8899980">
        <ele>14.1</ele>
        <time>2021-05-19T10:02:26Z</time>
      </trkpt>
      <trkpt lat="42.0602510" lon="-8.8900110">
        <ele>14.0</ele>
        <time>2021-05-19T10:02:27Z</time>
      </trkpt>
      <trkpt lat="42.0602640" lon="-8.8900140">
        <ele>14.0</ele>
        <time>2021-05-19T10:02:28Z</time>
      </trkpt>
      <trkpt lat="42.0602760" lon="-8.8900280">
        <ele>14.0</ele>
        <time>2021-05-19T10:02:29Z</time>
      </trkpt>
      <trkpt lat="42.0602890" lon="-8.8900270">
        <ele>13.9</ele>
        <time>2021-05-19T10:02:30Z</time>
      </trkpt>
      <trkpt lat="42.0603050" lon="-8.8900320">
        <ele>13.9</ele>
        <time>2021-05-19T10:02:31Z</time>
      </trkpt>
      <trkpt lat="42.0603200" lon="-8.8900290">
        <ele>13.8</ele>
        <time>2021-05-19T10:02:32Z</time>
      </trkpt>
      <trkpt lat="42.0603420" lon="-8.8900310">
        <ele>13.8</ele>
        <time>2021-05-19T10:02:33Z</time>
      </trkpt>
      <trkpt lat="42.0603500" lon="-8.8900380">
        <ele>13.7</ele>
        <time>2021-05-19T10:02:34Z</time>
      </trkpt>
      <trkpt lat="42.0603570" lon="-8.8900440">
        <ele>13.7</ele>
        <time>2021-05-19T10:02:35Z</time>
      </trkpt>
      <trkpt lat="42.0603770" lon="-8.8900560">
        <ele>13.7</ele>
        <time>2021-05-19T10:02:36Z</time>
      </trkpt>
      <trkpt lat="42.0603850" lon="-8.8900600">
        <ele>13.7</ele>
        <time>2021-05-19T10:02:37Z</time>
      </trkpt>
      <trkpt lat="42.0603930" lon="-8.8900630">
        <ele>13.6</ele>
        <time>2021-05-19T10:02:38Z</time>
      </trkpt>
      <trkpt lat="42.0604030" lon="-8.8900680">
        <ele>13.6</ele>
        <time>2021-05-19T10:02:39Z</time>
      </trkpt>
      <trkpt lat="42.0604150" lon="-8.8900680">
        <ele>13.6</ele>
        <time>2021-05-19T10:02:40Z</time>
      </trkpt>
      <trkpt lat="42.0604280" lon="-8.8900720">
        <ele>13.6</ele>
        <time>2021-05-19T10:02:41Z</time>
      </trkpt>
      <trkpt lat="42.0604360" lon="-8.8900830">
        <ele>13.6</ele>
        <time>2021-05-19T10:02:42Z</time>
      </trkpt>
      <trkpt lat="42.0604470" lon="-8.8900900">
        <ele>13.5</ele>
        <time>2021-05-19T10:02:43Z</time>
      </trkpt>
      <trkpt lat="42.0604610" lon="-8.8900860">
        <ele>13.5</ele>
        <time>2021-05-19T10:02:44Z</time>
      </trkpt>
      <trkpt lat="42.0604720" lon="-8.8900880">
        <ele>13.5</ele>
        <time>2021-05-19T10:02:45Z</time>
      </trkpt>
      <trkpt lat="42.0604810" lon="-8.8900980">
        <ele>13.5</ele>
        <time>2021-05-19T10:02:46Z</time>
      </trkpt>
      <trkpt lat="42.0604910" lon="-8.8901030">
        <ele>13.4</ele>
        <time>2021-05-19T10:02:47Z</time>
      </trkpt>
      <trkpt lat="42.0605040" lon="-8.8901130">
        <ele>13.4</ele>
        <time>2021-05-19T10:02:48Z</time>
      </trkpt>
      <trkpt lat="42.0605160" lon="-8.8901170">
        <ele>13.4</ele>
        <time>2021-05-19T10:02:49Z</time>
      </trkpt>
      <trkpt lat="42.0605270" lon="-8.8901190">
        <ele>13.4</ele>
        <time>2021-05-19T10:02:50Z</time>
      </trkpt>
      <trkpt lat="42.0605400" lon="-8.8901180">
        <ele>13.4</ele>
        <time>2021-05-19T10:02:51Z</time>
      </trkpt>
      <trkpt lat="42.0605510" lon="-8.8901180">
        <ele>13.4</ele>
        <time>2021-05-19T10:02:52Z</time>
      </trkpt>
      <trkpt lat="42.0605720" lon="-8.8901290">
        <ele>13.3</ele>
        <time>2021-05-19T10:02:53Z</time>
      </trkpt>
      <trkpt lat="42.0605800" lon="-8.8901330">
        <ele>13.3</ele>
        <time>2021-05-19T10:02:54Z</time>
      </trkpt>
      <trkpt lat="42.0605890" lon="-8.8901370">
        <ele>13.3</ele>
        <time>2021-05-19T10:02:55Z</time>
      </trkpt>
      <trkpt lat="42.0606010" lon="-8.8901410">
        <ele>13.3</ele>
        <time>2021-05-19T10:02:56Z</time>
      </trkpt>
      <trkpt lat="42.0606120" lon="-8.8901480">
        <ele>13.3</ele>
        <time>2021-05-19T10:02:57Z</time>
      </trkpt>
      <trkpt lat="42.0606240" lon="-8.8901490">
        <ele>13.3</ele>
        <time>2021-05-19T10:02:58Z</time>
      </trkpt>
      <trkpt lat="42.0606370" lon="-8.8901550">
        <ele>13.2</ele>
        <time>2021-05-19T10:02:59Z</time>
      </trkpt>
      <trkpt lat="42.0606500" lon="-8.8901600">
        <ele>13.2</ele>
        <time>2021-05-19T10:03:00Z</time>
      </trkpt>
      <trkpt lat="42.0606650" lon="-8.8901570">
        <ele>13.2</ele>
        <time>2021-05-19T10:03:01Z</time>
      </trkpt>
      <trkpt lat="42.0606790" lon="-8.8901610">
        <ele>13.2</ele>
        <time>2021-05-19T10:03:02Z</time>
      </trkpt>
      <trkpt lat="42.0606920" lon="-8.8901680">
        <ele>13.2</ele>
        <time>2021-05-19T10:03:03Z</time>
      </trkpt>
      <trkpt lat="42.0607060" lon="-8.8901690">
        <ele>13.2</ele>
        <time>2021-05-19T10:03:04Z</time>
      </trkpt>
      <trkpt lat="42.0607280" lon="-8.8901780">
        <ele>13.1</ele>
        <time>2021-05-19T10:03:05Z</time>
      </trkpt>
      <trkpt lat="42.0607360" lon="-8.8901820">
        <ele>13.1</ele>
        <time>2021-05-19T10:03:06Z</time>
      </trkpt>
      <trkpt lat="42.0607440" lon="-8.8901870">
        <ele>13.1</ele>
        <time>2021-05-19T10:03:07Z</time>
      </trkpt>
      <trkpt lat="42.0607630" lon="-8.8901960">
        <ele>13.1</ele>
        <time>2021-05-19T10:03:08Z</time>
      </trkpt>
      <trkpt lat="42.0607710" lon="-8.8902020">
        <ele>13.1</ele>
        <time>2021-05-19T10:03:09Z</time>
      </trkpt>
      <trkpt lat="42.0607780" lon="-8.8902070">
        <ele>13.1</ele>
        <time>2021-05-19T10:03:10Z</time>
      </trkpt>
      <trkpt lat="42.0607920" lon="-8.8902070">
        <ele>13.0</ele>
        <time>2021-05-19T10:03:11Z</time>
      </trkpt>
      <trkpt lat="42.0608050" lon="-8.8902130">
        <ele>13.0</ele>
        <time>2021-05-19T10:03:12Z</time>
      </trkpt>
      <trkpt lat="42.0608160" lon="-8.8902250">
        <ele>13.0</ele>
        <time>2021-05-19T10:03:13Z</time>
      </trkpt>
      <trkpt lat="42.0608260" lon="-8.8902350">
        <ele>13.0</ele>
        <time>2021-05-19T10:03:14Z</time>
      </trkpt>
      <trkpt lat="42.0608450" lon="-8.8902480">
        <ele>13.0</ele>
        <time>2021-05-19T10:03:15Z</time>
      </trkpt>
      <trkpt lat="42.0608540" lon="-8.8902500">
        <ele>13.0</ele>
        <time>2021-05-19T10:03:16Z</time>
      </trkpt>
      <trkpt lat="42.0608620" lon="-8.8902510">
        <ele>12.9</ele>
        <time>2021-05-19T10:03:17Z</time>
      </trkpt>
      <trkpt lat="42.0608720" lon="-8.8902610">
        <ele>12.9</ele>
        <time>2021-05-19T10:03:18Z</time>
      </trkpt>
      <trkpt lat="42.0608840" lon="-8.8902730">
        <ele>12.9</ele>
        <time>2021-05-19T10:03:19Z</time>
      </trkpt>
      <trkpt lat="42.0609010" lon="-8.8902860">
        <ele>12.9</ele>
        <time>2021-05-19T10:03:20Z</time>
      </trkpt>
      <trkpt lat="42.0609090" lon="-8.8902900">
        <ele>12.9</ele>
        <time>2021-05-19T10:03:21Z</time>
      </trkpt>
      <trkpt lat="42.0609170" lon="-8.8902940">
        <ele>12.9</ele>
        <time>2021-05-19T10:03:22Z</time>
      </trkpt>
      <trkpt lat="42.0609390" lon="-8.8903020">
        <ele>12.8</ele>
        <time>2021-05-19T10:03:23Z</time>
      </trkpt>
      <trkpt lat="42.0609470" lon="-8.8903050">
        <ele>12.8</ele>
        <time>2021-05-19T10:03:24Z</time>
      </trkpt>
      <trkpt lat="42.0609550" lon="-8.8903090">
        <ele>12.8</ele>
        <time>2021-05-19T10:03:25Z</time>
      </trkpt>
      <trkpt lat="42.0609740" lon="-8.8903190">
        <ele>12.8</ele>
        <time>2021-05-19T10:03:26Z</time>
      </trkpt>
      <trkpt lat="42.0609810" lon="-8.8903230">
        <ele>12.8</ele>
        <time>2021-05-19T10:03:27Z</time>
      </trkpt>
      <trkpt lat="42.0609890" lon="-8.8903260">
        <ele>12.8</ele>
        <time>2021-05-19T10:03:28Z</time>
      </trkpt>
      <trkpt lat="42.0610100" lon="-8.8903310">
        <ele>12.7</ele>
        <time>2021-05-19T10:03:29Z</time>
      </trkpt>
      <trkpt lat="42.0610170" lon="-8.8903340">
        <ele>12.7</ele>
        <time>2021-05-19T10:03:30Z</time>
      </trkpt>
      <trkpt lat="42.0610250" lon="-8.8903370">
        <ele>12.7</ele>
        <time>2021-05-19T10:03:31Z</time>
      </trkpt>
      <trkpt lat="42.0610460" lon="-8.8903420">
        <ele>12.7</ele>
        <time>2021-05-19T10:03:32Z</time>
      </trkpt>
      <trkpt lat="42.0610550" lon="-8.8903430">
        <ele>12.7</ele>
        <time>2021-05-19T10:03:33Z</time>
      </trkpt>
      <trkpt lat="42.0610640" lon="-8.8903450">
        <ele>12.7</ele>
        <time>2021-05-19T10:03:34Z</time>
      </trkpt>
      <trkpt lat="42.0610760" lon="-8.8903460">
        <ele>12.7</ele>
        <time>2021-05-19T10:03:35Z</time>
      </trkpt>
      <trkpt lat="42.0610880" lon="-8.8903530">
        <ele>12.6</ele>
        <time>2021-05-19T10:03:36Z</time>
      </trkpt>
      <trkpt lat="42.0610970" lon="-8.8903620">
        <ele>12.6</ele>
        <time>2021-05-19T10:03:37Z</time>
      </trkpt>
      <trkpt lat="42.0611190" lon="-8.8903700">
        <ele>12.6</ele>
        <time>2021-05-19T10:03:38Z</time>
      </trkpt>
      <trkpt lat="42.0611270" lon="-8.8903720">
        <ele>12.6</ele>
        <time>2021-05-19T10:03:39Z</time>
      </trkpt>
      <trkpt lat="42.0611360" lon="-8.8903740">
        <ele>12.6</ele>
        <time>2021-05-19T10:03:40Z</time>
      </trkpt>
      <trkpt lat="42.0611560" lon="-8.8903830">
        <ele>12.5</ele>
        <time>2021-05-19T10:03:41Z</time>
      </trkpt>
      <trkpt lat="42.0611640" lon="-8.8903850">
        <ele>12.5</ele>
        <time>2021-05-19T10:03:42Z</time>
      </trkpt>
      <trkpt lat="42.0611720" lon="-8.8903880">
        <ele>12.5</ele>
        <time>2021-05-19T10:03:43Z</time>
      </trkpt>
      <trkpt lat="42.0611850" lon="-8.8903950">
        <ele>12.5</ele>
        <time>2021-05-19T10:03:44Z</time>
      </trkpt>
      <trkpt lat="42.0612000" lon="-8.8903970">
        <ele>12.5</ele>
        <time>2021-05-19T10:03:45Z</time>
      </trkpt>
      <trkpt lat="42.0612220" lon="-8.8904040">
        <ele>12.5</ele>
        <time>2021-05-19T10:03:46Z</time>
      </trkpt>
      <trkpt lat="42.0612300" lon="-8.8904050">
        <ele>12.4</ele>
        <time>2021-05-19T10:03:47Z</time>
      </trkpt>
      <trkpt lat="42.0612390" lon="-8.8904070">
        <ele>12.4</ele>
        <time>2021-05-19T10:03:48Z</time>
      </trkpt>
      <trkpt lat="42.0612530" lon="-8.8904110">
        <ele>12.4</ele>
        <time>2021-05-19T10:03:49Z</time>
      </trkpt>
      <trkpt lat="42.0612670" lon="-8.8904140">
        <ele>12.4</ele>
        <time>2021-05-19T10:03:50Z</time>
      </trkpt>
      <trkpt lat="42.0612870" lon="-8.8904190">
        <ele>12.4</ele>
        <time>2021-05-19T10:03:51Z</time>
      </trkpt>
      <trkpt lat="42.0612950" lon="-8.8904220">
        <ele>12.3</ele>
        <time>2021-05-19T10:03:52Z</time>
      </trkpt>
      <trkpt lat="42.0613030" lon="-8.8904250">
        <ele>12.3</ele>
        <time>2021-05-19T10:03:53Z</time>
      </trkpt>
      <trkpt lat="42.0613250" lon="-8.8904330">
        <ele>12.3</ele>
        <time>2021-05-19T10:03:54Z</time>
      </trkpt>
      <trkpt lat="42.0613330" lon="-8.8904380">
        <ele>12.3</ele>
        <time>2021-05-19T10:03:55Z</time>
      </trkpt>
      <trkpt lat="42.0613410" lon="-8.8904420">
        <ele>12.3</ele>
        <time>2021-05-19T10:03:56Z</time>
      </trkpt>
      <trkpt lat="42.0613510" lon="-8.8904480">
        <ele>12.3</ele>
        <time>2021-05-19T10:03:57Z</time>
      </trkpt>
      <trkpt lat="42.0613630" lon="-8.8904520">
        <ele>12.2</ele>
        <time>2021-05-19T10:03:58Z</time>
      </trkpt>
      <trkpt lat="42.0613750" lon="-8.8904550">
        <ele>12.2</ele>
        <time>2021-05-19T10:03:59Z</time>
      </trkpt>
      <trkpt lat="42.0613870" lon="-8.8904610">
        <ele>12.2</ele>
        <time>2021-05-19T10:04:00Z</time>
      </trkpt>
      <trkpt lat="42.0613990" lon="-8.8904580">
        <ele>12.2</ele>
        <time>2021-05-19T10:04:01Z</time>
      </trkpt>
      <trkpt lat="42.0614080" lon="-8.8904670">
        <ele>12.2</ele>
        <time>2021-05-19T10:04:02Z</time>
      </trkpt>
      <trkpt lat="42.0614250" lon="-8.8904710">
        <ele>12.1</ele>
        <time>2021-05-19T10:04:03Z</time>
      </trkpt>
      <trkpt lat="42.0614320" lon="-8.8904720">
        <ele>12.1</ele>
        <time>2021-05-19T10:04:04Z</time>
      </trkpt>
      <trkpt lat="42.0614400" lon="-8.8904740">
        <ele>12.1</ele>
        <time>2021-05-19T10:04:05Z</time>
      </trkpt>
      <trkpt lat="42.0614470" lon="-8.8904750">
        <ele>12.1</ele>
        <time>2021-05-19T10:04:06Z</time>
      </trkpt>
      <trkpt lat="42.0614510" lon="-8.8904770">
        <ele>12.1</ele>
        <time>2021-05-19T10:04:07Z</time>
      </trkpt>
      <trkpt lat="42.0614650" lon="-8.8904800">
        <ele>12.1</ele>
        <time>2021-05-19T10:04:08Z</time>
      </trkpt>
      <trkpt lat="42.0614720" lon="-8.8904880">
        <ele>12.0</ele>
        <time>2021-05-19T10:04:09Z</time>
      </trkpt>
      <trkpt lat="42.0614870" lon="-8.8904890">
        <ele>12.0</ele>
        <time>2021-05-19T10:04:10Z</time>
      </trkpt>
      <trkpt lat="42.0615000" lon="-8.8904950">
        <ele>12.0</ele>
        <time>2021-05-19T10:04:11Z</time>
      </trkpt>
      <trkpt lat="42.0615090" lon="-8.8905010">
        <ele>12.0</ele>
        <time>2021-05-19T10:04:12Z</time>
      </trkpt>
      <trkpt lat="42.0615170" lon="-8.8905090">
        <ele>12.0</ele>
        <time>2021-05-19T10:04:13Z</time>
      </trkpt>
      <trkpt lat="42.0615300" lon="-8.8905150">
        <ele>12.0</ele>
        <time>2021-05-19T10:04:14Z</time>
      </trkpt>
      <trkpt lat="42.0615400" lon="-8.8905210">
        <ele>11.9</ele>
        <time>2021-05-19T10:04:15Z</time>
      </trkpt>
      <trkpt lat="42.0615490" lon="-8.8905290">
        <ele>11.9</ele>
        <time>2021-05-19T10:04:16Z</time>
      </trkpt>
      <trkpt lat="42.0615600" lon="-8.8905300">
        <ele>11.9</ele>
        <time>2021-05-19T10:04:17Z</time>
      </trkpt>
      <trkpt lat="42.0615780" lon="-8.8905340">
        <ele>11.9</ele>
        <time>2021-05-19T10:04:18Z</time>
      </trkpt>
      <trkpt lat="42.0615910" lon="-8.8905370">
        <ele>11.9</ele>
        <time>2021-05-19T10:04:19Z</time>
      </trkpt>
      <trkpt lat="42.0616040" lon="-8.8905440">
        <ele>11.9</ele>
        <time>2021-05-19T10:04:20Z</time>
      </trkpt>
      <trkpt lat="42.0616190" lon="-8.8905510">
        <ele>11.8</ele>
        <time>2021-05-19T10:04:21Z</time>
      </trkpt>
      <trkpt lat="42.0616330" lon="-8.8905580">
        <ele>11.8</ele>
        <time>2021-05-19T10:04:22Z</time>
      </trkpt>
      <trkpt lat="42.0616490" lon="-8.8905590">
        <ele>11.8</ele>
        <time>2021-05-19T10:04:23Z</time>
      </trkpt>
      <trkpt lat="42.0616620" lon="-8.8905620">
        <ele>11.8</ele>
        <time>2021-05-19T10:04:24Z</time>
      </trkpt>
      <trkpt lat="42.0616760" lon="-8.8905680">
        <ele>11.8</ele>
        <time>2021-05-19T10:04:25Z</time>
      </trkpt>
      <trkpt lat="42.0616880" lon="-8.8905770">
        <ele>11.7</ele>
        <time>2021-05-19T10:04:26Z</time>
      </trkpt>
      <trkpt lat="42.0617040" lon="-8.8905810">
        <ele>11.7</ele>
        <time>2021-05-19T10:04:27Z</time>
      </trkpt>
      <trkpt lat="42.0617260" lon="-8.8905870">
        <ele>11.7</ele>
        <time>2021-05-19T10:04:28Z</time>
      </trkpt>
      <trkpt lat="42.0617340" lon="-8.8905930">
        <ele>11.7</ele>
        <time>2021-05-19T10:04:29Z</time>
      </trkpt>
      <trkpt lat="42.0617430" lon="-8.8905980">
        <ele>11.7</ele>
        <time>2021-05-19T10:04:30Z</time>
      </trkpt>
      <trkpt lat="42.0617580" lon="-8.8906010">
        <ele>11.7</ele>
        <time>2021-05-19T10:04:31Z</time>
      </trkpt>
      <trkpt lat="42.0617720" lon="-8.8906050">
        <ele>11.6</ele>
        <time>2021-05-19T10:04:32Z</time>
      </trkpt>
      <trkpt lat="42.0617850" lon="-8.8906130">
        <ele>11.6</ele>
        <time>2021-05-19T10:04:33Z</time>
      </trkpt>
      <trkpt lat="42.0618000" lon="-8.8906150">
        <ele>11.6</ele>
        <time>2021-05-19T10:04:34Z</time>
      </trkpt>
      <trkpt lat="42.0618140" lon="-8.8906170">
        <ele>11.6</ele>
        <time>2021-05-19T10:04:35Z</time>
      </trkpt>
      <trkpt lat="42.0618270" lon="-8.8906230">
        <ele>11.6</ele>
        <time>2021-05-19T10:04:36Z</time>
      </trkpt>
      <trkpt lat="42.0618500" lon="-8.8906290">
        <ele>11.6</ele>
        <time>2021-05-19T10:04:37Z</time>
      </trkpt>
      <trkpt lat="42.0618580" lon="-8.8906300">
        <ele>11.6</ele>
        <time>2021-05-19T10:04:38Z</time>
      </trkpt>
      <trkpt lat="42.0618670" lon="-8.8906300">
        <ele>11.6</ele>
        <time>2021-05-19T10:04:39Z</time>
      </trkpt>
      <trkpt lat="42.0618800" lon="-8.8906370">
        <ele>11.6</ele>
        <time>2021-05-19T10:04:40Z</time>
      </trkpt>
      <trkpt lat="42.0618930" lon="-8.8906470">
        <ele>11.6</ele>
        <time>2021-05-19T10:04:41Z</time>
      </trkpt>
      <trkpt lat="42.0619030" lon="-8.8906520">
        <ele>11.6</ele>
        <time>2021-05-19T10:04:42Z</time>
      </trkpt>
      <trkpt lat="42.0619150" lon="-8.8906630">
        <ele>11.6</ele>
        <time>2021-05-19T10:04:43Z</time>
      </trkpt>
      <trkpt lat="42.0619250" lon="-8.8906690">
        <ele>11.6</ele>
        <time>2021-05-19T10:04:44Z</time>
      </trkpt>
      <trkpt lat="42.0619460" lon="-8.8906750">
        <ele>11.6</ele>
        <time>2021-05-19T10:04:45Z</time>
      </trkpt>
      <trkpt lat="42.0619540" lon="-8.8906790">
        <ele>11.6</ele>
        <time>2021-05-19T10:04:46Z</time>
      </trkpt>
      <trkpt lat="42.0619630" lon="-8.8906820">
        <ele>11.6</ele>
        <time>2021-05-19T10:04:47Z</time>
      </trkpt>
      <trkpt lat="42.0619830" lon="-8.8906940">
        <ele>11.6</ele>
        <time>2021-05-19T10:04:48Z</time>
      </trkpt>
      <trkpt lat="42.0619900" lon="-8.8906990">
        <ele>11.6</ele>
        <time>2021-05-19T10:04:49Z</time>
      </trkpt>
      <trkpt lat="42.0619980" lon="-8.8907040">
        <ele>11.6</ele>
        <time>2021-05-19T10:04:50Z</time>
      </trkpt>
      <trkpt lat="42.0620210" lon="-8.8907070">
        <ele>11.6</ele>
        <time>2021-05-19T10:04:51Z</time>
      </trkpt>
      <trkpt lat="42.0620280" lon="-8.8907120">
        <ele>11.6</ele>
        <time>2021-05-19T10:04:52Z</time>
      </trkpt>
      <trkpt lat="42.0620360" lon="-8.8907160">
        <ele>11.6</ele>
        <time>2021-05-19T10:04:53Z</time>
      </trkpt>
      <trkpt lat="42.0620490" lon="-8.8907230">
        <ele>11.6</ele>
        <time>2021-05-19T10:04:54Z</time>
      </trkpt>
      <trkpt lat="42.0620610" lon="-8.8907350">
        <ele>11.6</ele>
        <time>2021-05-19T10:04:55Z</time>
      </trkpt>
      <trkpt lat="42.0620820" lon="-8.8907430">
        <ele>11.6</ele>
        <time>2021-05-19T10:04:56Z</time>
      </trkpt>
      <trkpt lat="42.0620890" lon="-8.8907460">
        <ele>11.6</ele>
        <time>2021-05-19T10:04:57Z</time>
      </trkpt>
      <trkpt lat="42.0620970" lon="-8.8907490">
        <ele>11.6</ele>
        <time>2021-05-19T10:04:58Z</time>
      </trkpt>
      <trkpt lat="42.0621100" lon="-8.8907550">
        <ele>11.6</ele>
        <time>2021-05-19T10:04:59Z</time>
      </trkpt>
      <trkpt lat="42.0621230" lon="-8.8907620">
        <ele>11.6</ele>
        <time>2021-05-19T10:05:00Z</time>
      </trkpt>
      <trkpt lat="42.0621430" lon="-8.8907740">
        <ele>11.6</ele>
        <time>2021-05-19T10:05:01Z</time>
      </trkpt>
      <trkpt lat="42.0621500" lon="-8.8907790">
        <ele>11.6</ele>
        <time>2021-05-19T10:05:02Z</time>
      </trkpt>
      <trkpt lat="42.0621580" lon="-8.8907850">
        <ele>11.6</ele>
        <time>2021-05-19T10:05:03Z</time>
      </trkpt>
      <trkpt lat="42.0621760" lon="-8.8907990">
        <ele>11.6</ele>
        <time>2021-05-19T10:05:04Z</time>
      </trkpt>
      <trkpt lat="42.0621850" lon="-8.8908020">
        <ele>11.6</ele>
        <time>2021-05-19T10:05:05Z</time>
      </trkpt>
      <trkpt lat="42.0621930" lon="-8.8908050">
        <ele>11.6</ele>
        <time>2021-05-19T10:05:06Z</time>
      </trkpt>
      <trkpt lat="42.0622140" lon="-8.8908110">
        <ele>11.7</ele>
        <time>2021-05-19T10:05:07Z</time>
      </trkpt>
      <trkpt lat="42.0622230" lon="-8.8908140">
        <ele>11.7</ele>
        <time>2021-05-19T10:05:08Z</time>
      </trkpt>
      <trkpt lat="42.0622310" lon="-8.8908170">
        <ele>11.7</ele>
        <time>2021-05-19T10:05:09Z</time>
      </trkpt>
      <trkpt lat="42.0622510" lon="-8.8908280">
        <ele>11.7</ele>
        <time>2021-05-19T10:05:10Z</time>
      </trkpt>
      <trkpt lat="42.0622590" lon="-8.8908320">
        <ele>11.7</ele>
        <time>2021-05-19T10:05:11Z</time>
      </trkpt>
      <trkpt lat="42.0622660" lon="-8.8908370">
        <ele>11.7</ele>
        <time>2021-05-19T10:05:12Z</time>
      </trkpt>
      <trkpt lat="42.0622790" lon="-8.8908410">
        <ele>11.8</ele>
        <time>2021-05-19T10:05:13Z</time>
      </trkpt>
      <trkpt lat="42.0622920" lon="-8.8908480">
        <ele>11.8</ele>
        <time>2021-05-19T10:05:14Z</time>
      </trkpt>
      <trkpt lat="42.0623120" lon="-8.8908590">
        <ele>11.8</ele>
        <time>2021-05-19T10:05:15Z</time>
      </trkpt>
      <trkpt lat="42.0623200" lon="-8.8908610">
        <ele>11.8</ele>
        <time>2021-05-19T10:05:16Z</time>
      </trkpt>
      <trkpt lat="42.0623290" lon="-8.8908620">
        <ele>11.9</ele>
        <time>2021-05-19T10:05:17Z</time>
      </trkpt>
      <trkpt lat="42.0623500" lon="-8.8908650">
        <ele>11.9</ele>
        <time>2021-05-19T10:05:18Z</time>
      </trkpt>
      <trkpt lat="42.0623590" lon="-8.8908670">
        <ele>11.9</ele>
        <time>2021-05-19T10:05:19Z</time>
      </trkpt>
      <trkpt lat="42.0623670" lon="-8.8908680">
        <ele>11.9</ele>
        <time>2021-05-19T10:05:20Z</time>
      </trkpt>
      <trkpt lat="42.0623870" lon="-8.8908730">
        <ele>12.0</ele>
        <time>2021-05-19T10:05:21Z</time>
      </trkpt>
      <trkpt lat="42.0623960" lon="-8.8908770">
        <ele>12.0</ele>
        <time>2021-05-19T10:05:22Z</time>
      </trkpt>
      <trkpt lat="42.0624040" lon="-8.8908800">
        <ele>12.0</ele>
        <time>2021-05-19T10:05:23Z</time>
      </trkpt>
      <trkpt lat="42.0624240" lon="-8.8908880">
        <ele>12.1</ele>
        <time>2021-05-19T10:05:24Z</time>
      </trkpt>
      <trkpt lat="42.0624340" lon="-8.8908900">
        <ele>12.1</ele>
        <time>2021-05-19T10:05:25Z</time>
      </trkpt>
      <trkpt lat="42.0624430" lon="-8.8908920">
        <ele>12.1</ele>
        <time>2021-05-19T10:05:26Z</time>
      </trkpt>
      <trkpt lat="42.0624520" lon="-8.8909030">
        <ele>12.1</ele>
        <time>2021-05-19T10:05:27Z</time>
      </trkpt>
      <trkpt lat="42.0624680" lon="-8.8909070">
        <ele>12.2</ele>
        <time>2021-05-19T10:05:28Z</time>
      </trkpt>
      <trkpt lat="42.0624900" lon="-8.8909130">
        <ele>12.2</ele>
        <time>2021-05-19T10:05:29Z</time>
      </trkpt>
      <trkpt lat="42.0624980" lon="-8.8909170">
        <ele>12.2</ele>
        <time>2021-05-19T10:05:30Z</time>
      </trkpt>
      <trkpt lat="42.0625070" lon="-8.8909220">
        <ele>12.3</ele>
        <time>2021-05-19T10:05:31Z</time>
      </trkpt>
      <trkpt lat="42.0625190" lon="-8.8909350">
        <ele>12.3</ele>
        <time>2021-05-19T10:05:32Z</time>
      </trkpt>
      <trkpt lat="42.0625340" lon="-8.8909380">
        <ele>12.3</ele>
        <time>2021-05-19T10:05:33Z</time>
      </trkpt>
      <trkpt lat="42.0625470" lon="-8.8909420">
        <ele>12.4</ele>
        <time>2021-05-19T10:05:34Z</time>
      </trkpt>
      <trkpt lat="42.0625620" lon="-8.8909460">
        <ele>12.4</ele>
        <time>2021-05-19T10:05:35Z</time>
      </trkpt>
      <trkpt lat="42.0625760" lon="-8.8909490">
        <ele>12.4</ele>
        <time>2021-05-19T10:05:36Z</time>
      </trkpt>
      <trkpt lat="42.0625880" lon="-8.8909630">
        <ele>12.5</ele>
        <time>2021-05-19T10:05:37Z</time>
      </trkpt>
      <trkpt lat="42.0626090" lon="-8.8909730">
        <ele>12.5</ele>
        <time>2021-05-19T10:05:38Z</time>
      </trkpt>
      <trkpt lat="42.0626180" lon="-8.8909760">
        <ele>12.5</ele>
        <time>2021-05-19T10:05:39Z</time>
      </trkpt>
      <trkpt lat="42.0626260" lon="-8.8909790">
        <ele>12.6</ele>
        <time>2021-05-19T10:05:40Z</time>
      </trkpt>
      <trkpt lat="42.0626470" lon="-8.8909880">
        <ele>12.6</ele>
        <time>2021-05-19T10:05:41Z</time>
      </trkpt>
      <trkpt lat="42.0626550" lon="-8.8909900">
        <ele>12.6</ele>
        <time>2021-05-19T10:05:42Z</time>
      </trkpt>
      <trkpt lat="42.0626640" lon="-8.8909930">
        <ele>12.6</ele>
        <time>2021-05-19T10:05:43Z</time>
      </trkpt>
      <trkpt lat="42.0626790" lon="-8.8910020">
        <ele>12.7</ele>
        <time>2021-05-19T10:05:44Z</time>
      </trkpt>
      <trkpt lat="42.0626860" lon="-8.8910060">
        <ele>12.7</ele>
        <time>2021-05-19T10:05:45Z</time>
      </trkpt>
      <trkpt lat="42.0626920" lon="-8.8910110">
        <ele>12.7</ele>
        <time>2021-05-19T10:05:46Z</time>
      </trkpt>
      <trkpt lat="42.0626980" lon="-8.8910150">
        <ele>12.7</ele>
        <time>2021-05-19T10:05:47Z</time>
      </trkpt>
      <trkpt lat="42.0627030" lon="-8.8910230">
        <ele>12.8</ele>
        <time>2021-05-19T10:05:48Z</time>
      </trkpt>
      <trkpt lat="42.0627140" lon="-8.8910310">
        <ele>12.8</ele>
        <time>2021-05-19T10:05:49Z</time>
      </trkpt>
      <trkpt lat="42.0627170" lon="-8.8910350">
        <ele>12.8</ele>
        <time>2021-05-19T10:05:50Z</time>
      </trkpt>
      <trkpt lat="42.0627250" lon="-8.8910390">
        <ele>12.8</ele>
        <time>2021-05-19T10:05:51Z</time>
      </trkpt>
      <trkpt lat="42.0627380" lon="-8.8910470">
        <ele>12.9</ele>
        <time>2021-05-19T10:05:52Z</time>
      </trkpt>
      <trkpt lat="42.0627450" lon="-8.8910510">
        <ele>12.9</ele>
        <time>2021-05-19T10:05:53Z</time>
      </trkpt>
      <trkpt lat="42.0627590" lon="-8.8910550">
        <ele>12.9</ele>
        <time>2021-05-19T10:05:54Z</time>
      </trkpt>
      <trkpt lat="42.0627690" lon="-8.8910590">
        <ele>12.9</ele>
        <time>2021-05-19T10:05:55Z</time>
      </trkpt>
      <trkpt lat="42.0627760" lon="-8.8910620">
        <ele>13.0</ele>
        <time>2021-05-19T10:05:56Z</time>
      </trkpt>
      <trkpt lat="42.0627870" lon="-8.8910600">
        <ele>13.0</ele>
        <time>2021-05-19T10:05:57Z</time>
      </trkpt>
      <trkpt lat="42.0627950" lon="-8.8910630">
        <ele>13.0</ele>
        <time>2021-05-19T10:05:58Z</time>
      </trkpt>
      <trkpt lat="42.0628080" lon="-8.8910640">
        <ele>13.1</ele>
        <time>2021-05-19T10:05:59Z</time>
      </trkpt>
      <trkpt lat="42.0628140" lon="-8.8910720">
        <ele>13.1</ele>
        <time>2021-05-19T10:06:00Z</time>
      </trkpt>
      <trkpt lat="42.0628240" lon="-8.8910720">
        <ele>13.1</ele>
        <time>2021-05-19T10:06:01Z</time>
      </trkpt>
      <trkpt lat="42.0628320" lon="-8.8910790">
        <ele>13.1</ele>
        <time>2021-05-19T10:06:02Z</time>
      </trkpt>
      <trkpt lat="42.0628420" lon="-8.8910850">
        <ele>13.2</ele>
        <time>2021-05-19T10:06:03Z</time>
      </trkpt>
      <trkpt lat="42.0628560" lon="-8.8910850">
        <ele>13.2</ele>
        <time>2021-05-19T10:06:04Z</time>
      </trkpt>
      <trkpt lat="42.0628660" lon="-8.8910880">
        <ele>13.2</ele>
        <time>2021-05-19T10:06:05Z</time>
      </trkpt>
      <trkpt lat="42.0628750" lon="-8.8910910">
        <ele>13.3</ele>
        <time>2021-05-19T10:06:06Z</time>
      </trkpt>
      <trkpt lat="42.0628860" lon="-8.8910910">
        <ele>13.3</ele>
        <time>2021-05-19T10:06:07Z</time>
      </trkpt>
      <trkpt lat="42.0629040" lon="-8.8911000">
        <ele>13.4</ele>
        <time>2021-05-19T10:06:08Z</time>
      </trkpt>
      <trkpt lat="42.0629140" lon="-8.8911060">
        <ele>13.4</ele>
        <time>2021-05-19T10:06:09Z</time>
      </trkpt>
      <trkpt lat="42.0629240" lon="-8.8911100">
        <ele>13.4</ele>
        <time>2021-05-19T10:06:10Z</time>
      </trkpt>
      <trkpt lat="42.0629360" lon="-8.8911140">
        <ele>13.5</ele>
        <time>2021-05-19T10:06:11Z</time>
      </trkpt>
      <trkpt lat="42.0629470" lon="-8.8911190">
        <ele>13.5</ele>
        <time>2021-05-19T10:06:12Z</time>
      </trkpt>
      <trkpt lat="42.0629580" lon="-8.8911220">
        <ele>13.5</ele>
        <time>2021-05-19T10:06:13Z</time>
      </trkpt>
      <trkpt lat="42.0629690" lon="-8.8911290">
        <ele>13.6</ele>
        <time>2021-05-19T10:06:14Z</time>
      </trkpt>
      <trkpt lat="42.0629920" lon="-8.8911390">
        <ele>13.7</ele>
        <time>2021-05-19T10:06:15Z</time>
      </trkpt>
      <trkpt lat="42.0629990" lon="-8.8911460">
        <ele>13.7</ele>
        <time>2021-05-19T10:06:16Z</time>
      </trkpt>
      <trkpt lat="42.0630050" lon="-8.8911520">
        <ele>13.7</ele>
        <time>2021-05-19T10:06:17Z</time>
      </trkpt>
      <trkpt lat="42.0630170" lon="-8.8911570">
        <ele>13.8</ele>
        <time>2021-05-19T10:06:18Z</time>
      </trkpt>
      <trkpt lat="42.0630270" lon="-8.8911640">
        <ele>13.8</ele>
        <time>2021-05-19T10:06:19Z</time>
      </trkpt>
      <trkpt lat="42.0630370" lon="-8.8911690">
        <ele>13.8</ele>
        <time>2021-05-19T10:06:20Z</time>
      </trkpt>
      <trkpt lat="42.0630480" lon="-8.8911730">
        <ele>13.9</ele>
        <time>2021-05-19T10:06:21Z</time>
      </trkpt>
      <trkpt lat="42.0630530" lon="-8.8911830">
        <ele>13.9</ele>
        <time>2021-05-19T10:06:22Z</time>
      </trkpt>
      <trkpt lat="42.0630660" lon="-8.8911870">
        <ele>13.9</ele>
        <time>2021-05-19T10:06:23Z</time>
      </trkpt>
      <trkpt lat="42.0630770" lon="-8.8911880">
        <ele>14.0</ele>
        <time>2021-05-19T10:06:24Z</time>
      </trkpt>
      <trkpt lat="42.0630920" lon="-8.8911990">
        <ele>14.0</ele>
        <time>2021-05-19T10:06:25Z</time>
      </trkpt>
      <trkpt lat="42.0631000" lon="-8.8911990">
        <ele>14.1</ele>
        <time>2021-05-19T10:06:26Z</time>
      </trkpt>
      <trkpt lat="42.0631090" lon="-8.8912050">
        <ele>14.1</ele>
        <time>2021-05-19T10:06:27Z</time>
      </trkpt>
      <trkpt lat="42.0631210" lon="-8.8912080">
        <ele>14.1</ele>
        <time>2021-05-19T10:06:28Z</time>
      </trkpt>
      <trkpt lat="42.0631310" lon="-8.8912110">
        <ele>14.2</ele>
        <time>2021-05-19T10:06:29Z</time>
      </trkpt>
      <trkpt lat="42.0631520" lon="-8.8912220">
        <ele>14.2</ele>
        <time>2021-05-19T10:06:30Z</time>
      </trkpt>
      <trkpt lat="42.0631590" lon="-8.8912270">
        <ele>14.3</ele>
        <time>2021-05-19T10:06:31Z</time>
      </trkpt>
      <trkpt lat="42.0631670" lon="-8.8912310">
        <ele>14.3</ele>
        <time>2021-05-19T10:06:32Z</time>
      </trkpt>
      <trkpt lat="42.0631770" lon="-8.8912320">
        <ele>14.3</ele>
        <time>2021-05-19T10:06:33Z</time>
      </trkpt>
      <trkpt lat="42.0631910" lon="-8.8912390">
        <ele>14.4</ele>
        <time>2021-05-19T10:06:34Z</time>
      </trkpt>
      <trkpt lat="42.0632010" lon="-8.8912490">
        <ele>14.4</ele>
        <time>2021-05-19T10:06:35Z</time>
      </trkpt>
      <trkpt lat="42.0632240" lon="-8.8912540">
        <ele>14.5</ele>
        <time>2021-05-19T10:06:36Z</time>
      </trkpt>
      <trkpt lat="42.0632240" lon="-8.8912600">
        <ele>14.5</ele>
        <time>2021-05-19T10:06:37Z</time>
      </trkpt>
      <trkpt lat="42.0632340" lon="-8.8912630">
        <ele>14.5</ele>
        <time>2021-05-19T10:06:38Z</time>
      </trkpt>
      <trkpt lat="42.0632500" lon="-8.8912720">
        <ele>14.6</ele>
        <time>2021-05-19T10:06:39Z</time>
      </trkpt>
      <trkpt lat="42.0632660" lon="-8.8912770">
        <ele>14.7</ele>
        <time>2021-05-19T10:06:40Z</time>
      </trkpt>
      <trkpt lat="42.0632770" lon="-8.8912780">
        <ele>14.7</ele>
        <time>2021-05-19T10:06:41Z</time>
      </trkpt>
      <trkpt lat="42.0632900" lon="-8.8912860">
        <ele>14.7</ele>
        <time>2021-05-19T10:06:42Z</time>
      </trkpt>
      <trkpt lat="42.0632980" lon="-8.8912880">
        <ele>14.8</ele>
        <time>2021-05-19T10:06:43Z</time>
      </trkpt>
      <trkpt lat="42.0633090" lon="-8.8912920">
        <ele>14.8</ele>
        <time>2021-05-19T10:06:44Z</time>
      </trkpt>
      <trkpt lat="42.0633280" lon="-8.8912930">
        <ele>14.8</ele>
        <time>2021-05-19T10:06:45Z</time>
      </trkpt>
      <trkpt lat="42.0633360" lon="-8.8913010">
        <ele>14.9</ele>
        <time>2021-05-19T10:06:46Z</time>
      </trkpt>
      <trkpt lat="42.0633480" lon="-8.8912980">
        <ele>14.9</ele>
        <time>2021-05-19T10:06:47Z</time>
      </trkpt>
      <trkpt lat="42.0633590" lon="-8.8913100">
        <ele>15.0</ele>
        <time>2021-05-19T10:06:48Z</time>
      </trkpt>
      <trkpt lat="42.0633730" lon="-8.8913170">
        <ele>15.0</ele>
        <time>2021-05-19T10:06:49Z</time>
      </trkpt>
      <trkpt lat="42.0633900" lon="-8.8913150">
        <ele>15.1</ele>
        <time>2021-05-19T10:06:50Z</time>
      </trkpt>
      <trkpt lat="42.0634090" lon="-8.8913290">
        <ele>15.2</ele>
        <time>2021-05-19T10:06:51Z</time>
      </trkpt>
      <trkpt lat="42.0634160" lon="-8.8913320">
        <ele>15.2</ele>
        <time>2021-05-19T10:06:52Z</time>
      </trkpt>
      <trkpt lat="42.0634240" lon="-8.8913360">
        <ele>15.2</ele>
        <time>2021-05-19T10:06:53Z</time>
      </trkpt>
      <trkpt lat="42.0634440" lon="-8.8913420">
        <ele>15.3</ele>
        <time>2021-05-19T10:06:54Z</time>
      </trkpt>
      <trkpt lat="42.0634520" lon="-8.8913450">
        <ele>15.4</ele>
        <time>2021-05-19T10:06:55Z</time>
      </trkpt>
      <trkpt lat="42.0634660" lon="-8.8913530">
        <ele>15.4</ele>
        <time>2021-05-19T10:06:56Z</time>
      </trkpt>
      <trkpt lat="42.0634700" lon="-8.8913570">
        <ele>15.4</ele>
        <time>2021-05-19T10:06:57Z</time>
      </trkpt>
      <trkpt lat="42.0634840" lon="-8.8913620">
        <ele>15.5</ele>
        <time>2021-05-19T10:06:58Z</time>
      </trkpt>
      <trkpt lat="42.0634900" lon="-8.8913700">
        <ele>15.5</ele>
        <time>2021-05-19T10:06:59Z</time>
      </trkpt>
      <trkpt lat="42.0635030" lon="-8.8913740">
        <ele>15.6</ele>
        <time>2021-05-19T10:07:00Z</time>
      </trkpt>
      <trkpt lat="42.0635150" lon="-8.8913760">
        <ele>15.7</ele>
        <time>2021-05-19T10:07:01Z</time>
      </trkpt>
      <trkpt lat="42.0635290" lon="-8.8913860">
        <ele>15.7</ele>
        <time>2021-05-19T10:07:02Z</time>
      </trkpt>
      <trkpt lat="42.0635430" lon="-8.8913840">
        <ele>15.8</ele>
        <time>2021-05-19T10:07:03Z</time>
      </trkpt>
      <trkpt lat="42.0635640" lon="-8.8913980">
        <ele>15.9</ele>
        <time>2021-05-19T10:07:04Z</time>
      </trkpt>
      <trkpt lat="42.0635690" lon="-8.8914040">
        <ele>15.9</ele>
        <time>2021-05-19T10:07:05Z</time>
      </trkpt>
      <trkpt lat="42.0635750" lon="-8.8914090">
        <ele>15.9</ele>
        <time>2021-05-19T10:07:06Z</time>
      </trkpt>
      <trkpt lat="42.0635880" lon="-8.8914080">
        <ele>16.0</ele>
        <time>2021-05-19T10:07:07Z</time>
      </trkpt>
      <trkpt lat="42.0636010" lon="-8.8914110">
        <ele>16.0</ele>
        <time>2021-05-19T10:07:08Z</time>
      </trkpt>
      <trkpt lat="42.0636030" lon="-8.8914140">
        <ele>16.1</ele>
        <time>2021-05-19T10:07:09Z</time>
      </trkpt>
      <trkpt lat="42.0636270" lon="-8.8914150">
        <ele>16.2</ele>
        <time>2021-05-19T10:07:10Z</time>
      </trkpt>
      <trkpt lat="42.0636370" lon="-8.8914220">
        <ele>16.2</ele>
        <time>2021-05-19T10:07:11Z</time>
      </trkpt>
      <trkpt lat="42.0636500" lon="-8.8914300">
        <ele>16.3</ele>
        <time>2021-05-19T10:07:12Z</time>
      </trkpt>
      <trkpt lat="42.0636650" lon="-8.8914300">
        <ele>16.3</ele>
        <time>2021-05-19T10:07:13Z</time>
      </trkpt>
      <trkpt lat="42.0636830" lon="-8.8914320">
        <ele>16.4</ele>
        <time>2021-05-19T10:07:14Z</time>
      </trkpt>
      <trkpt lat="42.0636940" lon="-8.8914330">
        <ele>16.5</ele>
        <time>2021-05-19T10:07:15Z</time>
      </trkpt>
      <trkpt lat="42.0637170" lon="-8.8914430">
        <ele>16.6</ele>
        <time>2021-05-19T10:07:16Z</time>
      </trkpt>
      <trkpt lat="42.0637130" lon="-8.8914470">
        <ele>16.6</ele>
        <time>2021-05-19T10:07:17Z</time>
      </trkpt>
      <trkpt lat="42.0637200" lon="-8.8914590">
        <ele>16.6</ele>
        <time>2021-05-19T10:07:18Z</time>
      </trkpt>
      <trkpt lat="42.0637290" lon="-8.8914570">
        <ele>16.7</ele>
        <time>2021-05-19T10:07:19Z</time>
      </trkpt>
      <trkpt lat="42.0637390" lon="-8.8914670">
        <ele>16.7</ele>
        <time>2021-05-19T10:07:20Z</time>
      </trkpt>
      <trkpt lat="42.0637480" lon="-8.8914690">
        <ele>16.8</ele>
        <time>2021-05-19T10:07:21Z</time>
      </trkpt>
      <trkpt lat="42.0637690" lon="-8.8914770">
        <ele>16.8</ele>
        <time>2021-05-19T10:07:22Z</time>
      </trkpt>
      <trkpt lat="42.0637810" lon="-8.8914780">
        <ele>16.9</ele>
        <time>2021-05-19T10:07:23Z</time>
      </trkpt>
      <trkpt lat="42.0637960" lon="-8.8914870">
        <ele>17.0</ele>
        <time>2021-05-19T10:07:24Z</time>
      </trkpt>
      <trkpt lat="42.0637980" lon="-8.8914870">
        <ele>17.0</ele>
        <time>2021-05-19T10:07:25Z</time>
      </trkpt>
      <trkpt lat="42.0638070" lon="-8.8914920">
        <ele>17.0</ele>
        <time>2021-05-19T10:07:26Z</time>
      </trkpt>
      <trkpt lat="42.0638300" lon="-8.8915070">
        <ele>17.1</ele>
        <time>2021-05-19T10:07:27Z</time>
      </trkpt>
      <trkpt lat="42.0638380" lon="-8.8915110">
        <ele>17.2</ele>
        <time>2021-05-19T10:07:28Z</time>
      </trkpt>
      <trkpt lat="42.0638450" lon="-8.8915160">
        <ele>17.2</ele>
        <time>2021-05-19T10:07:29Z</time>
      </trkpt>
      <trkpt lat="42.0638630" lon="-8.8915230">
        <ele>17.3</ele>
        <time>2021-05-19T10:07:30Z</time>
      </trkpt>
      <trkpt lat="42.0638750" lon="-8.8915260">
        <ele>17.4</ele>
        <time>2021-05-19T10:07:31Z</time>
      </trkpt>
      <trkpt lat="42.0638860" lon="-8.8915280">
        <ele>17.4</ele>
        <time>2021-05-19T10:07:32Z</time>
      </trkpt>
      <trkpt lat="42.0639030" lon="-8.8915360">
        <ele>17.5</ele>
        <time>2021-05-19T10:07:33Z</time>
      </trkpt>
      <trkpt lat="42.0639140" lon="-8.8915350">
        <ele>17.5</ele>
        <time>2021-05-19T10:07:34Z</time>
      </trkpt>
      <trkpt lat="42.0639250" lon="-8.8915420">
        <ele>17.6</ele>
        <time>2021-05-19T10:07:35Z</time>
      </trkpt>
      <trkpt lat="42.0639400" lon="-8.8915460">
        <ele>17.7</ele>
        <time>2021-05-19T10:07:36Z</time>
      </trkpt>
      <trkpt lat="42.0639530" lon="-8.8915480">
        <ele>17.7</ele>
        <time>2021-05-19T10:07:37Z</time>
      </trkpt>
      <trkpt lat="42.0639670" lon="-8.8915580">
        <ele>17.8</ele>
        <time>2021-05-19T10:07:38Z</time>
      </trkpt>
      <trkpt lat="42.0639790" lon="-8.8915590">
        <ele>17.9</ele>
        <time>2021-05-19T10:07:39Z</time>
      </trkpt>
      <trkpt lat="42.0639950" lon="-8.8915710">
        <ele>18.0</ele>
        <time>2021-05-19T10:07:40Z</time>
      </trkpt>
      <trkpt lat="42.0640060" lon="-8.8915700">
        <ele>18.0</ele>
        <time>2021-05-19T10:07:41Z</time>
      </trkpt>
      <trkpt lat="42.0640170" lon="-8.8915770">
        <ele>18.1</ele>
        <time>2021-05-19T10:07:42Z</time>
      </trkpt>
      <trkpt lat="42.0640240" lon="-8.8915880">
        <ele>18.1</ele>
        <time>2021-05-19T10:07:43Z</time>
      </trkpt>
      <trkpt lat="42.0640330" lon="-8.8915890">
        <ele>18.2</ele>
        <time>2021-05-19T10:07:44Z</time>
      </trkpt>
      <trkpt lat="42.0640400" lon="-8.8915940">
        <ele>18.2</ele>
        <time>2021-05-19T10:07:45Z</time>
      </trkpt>
      <trkpt lat="42.0640550" lon="-8.8916020">
        <ele>18.3</ele>
        <time>2021-05-19T10:07:46Z</time>
      </trkpt>
      <trkpt lat="42.0640590" lon="-8.8916060">
        <ele>18.3</ele>
        <time>2021-05-19T10:07:47Z</time>
      </trkpt>
      <trkpt lat="42.0640690" lon="-8.8916170">
        <ele>18.4</ele>
        <time>2021-05-19T10:07:48Z</time>
      </trkpt>
      <trkpt lat="42.0640850" lon="-8.8916250">
        <ele>18.4</ele>
        <time>2021-05-19T10:07:49Z</time>
      </trkpt>
      <trkpt lat="42.0640930" lon="-8.8916290">
        <ele>18.5</ele>
        <time>2021-05-19T10:07:50Z</time>
      </trkpt>
      <trkpt lat="42.0641020" lon="-8.8916310">
        <ele>18.5</ele>
        <time>2021-05-19T10:07:51Z</time>
      </trkpt>
      <trkpt lat="42.0641120" lon="-8.8916340">
        <ele>18.6</ele>
        <time>2021-05-19T10:07:52Z</time>
      </trkpt>
      <trkpt lat="42.0641340" lon="-8.8916450">
        <ele>18.7</ele>
        <time>2021-05-19T10:07:53Z</time>
      </trkpt>
      <trkpt lat="42.0641390" lon="-8.8916420">
        <ele>18.7</ele>
        <time>2021-05-19T10:07:54Z</time>
      </trkpt>
      <trkpt lat="42.0641550" lon="-8.8916510">
        <ele>18.8</ele>
        <time>2021-05-19T10:07:55Z</time>
      </trkpt>
      <trkpt lat="42.0641580" lon="-8.8916590">
        <ele>18.8</ele>
        <time>2021-05-19T10:07:56Z</time>
      </trkpt>
      <trkpt lat="42.0641690" lon="-8.8916650">
        <ele>18.8</ele>
        <time>2021-05-19T10:07:57Z</time>
      </trkpt>
      <trkpt lat="42.0641850" lon="-8.8916660">
        <ele>18.9</ele>
        <time>2021-05-19T10:07:58Z</time>
      </trkpt>
      <trkpt lat="42.0641940" lon="-8.8916710">
        <ele>18.9</ele>
        <time>2021-05-19T10:07:59Z</time>
      </trkpt>
      <trkpt lat="42.0642020" lon="-8.8916730">
        <ele>19.0</ele>
        <time>2021-05-19T10:08:00Z</time>
      </trkpt>
      <trkpt lat="42.0642210" lon="-8.8916780">
        <ele>19.0</ele>
        <time>2021-05-19T10:08:01Z</time>
      </trkpt>
      <trkpt lat="42.0642330" lon="-8.8916900">
        <ele>19.1</ele>
        <time>2021-05-19T10:08:02Z</time>
      </trkpt>
      <trkpt lat="42.0642450" lon="-8.8916880">
        <ele>19.1</ele>
        <time>2021-05-19T10:08:03Z</time>
      </trkpt>
      <trkpt lat="42.0642480" lon="-8.8916940">
        <ele>19.2</ele>
        <time>2021-05-19T10:08:04Z</time>
      </trkpt>
      <trkpt lat="42.0642630" lon="-8.8916980">
        <ele>19.2</ele>
        <time>2021-05-19T10:08:05Z</time>
      </trkpt>
      <trkpt lat="42.0642780" lon="-8.8917010">
        <ele>19.3</ele>
        <time>2021-05-19T10:08:06Z</time>
      </trkpt>
      <trkpt lat="42.0642920" lon="-8.8917110">
        <ele>19.4</ele>
        <time>2021-05-19T10:08:07Z</time>
      </trkpt>
      <trkpt lat="42.0643020" lon="-8.8917150">
        <ele>19.4</ele>
        <time>2021-05-19T10:08:08Z</time>
      </trkpt>
      <trkpt lat="42.0643140" lon="-8.8917190">
        <ele>19.5</ele>
        <time>2021-05-19T10:08:09Z</time>
      </trkpt>
      <trkpt lat="42.0643260" lon="-8.8917210">
        <ele>19.5</ele>
        <time>2021-05-19T10:08:10Z</time>
      </trkpt>
      <trkpt lat="42.0643370" lon="-8.8917290">
        <ele>19.6</ele>
        <time>2021-05-19T10:08:11Z</time>
      </trkpt>
      <trkpt lat="42.0643470" lon="-8.8917330">
        <ele>19.7</ele>
        <time>2021-05-19T10:08:12Z</time>
      </trkpt>
      <trkpt lat="42.0643530" lon="-8.8917360">
        <ele>19.7</ele>
        <time>2021-05-19T10:08:13Z</time>
      </trkpt>
      <trkpt lat="42.0643740" lon="-8.8917440">
        <ele>19.8</ele>
        <time>2021-05-19T10:08:14Z</time>
      </trkpt>
      <trkpt lat="42.0643850" lon="-8.8917490">
        <ele>19.8</ele>
        <time>2021-05-19T10:08:15Z</time>
      </trkpt>
      <trkpt lat="42.0643980" lon="-8.8917500">
        <ele>19.9</ele>
        <time>2021-05-19T10:08:16Z</time>
      </trkpt>
      <trkpt lat="42.0644060" lon="-8.8917500">
        <ele>20.0</ele>
        <time>2021-05-19T10:08:17Z</time>
      </trkpt>
      <trkpt lat="42.0644210" lon="-8.8917510">
        <ele>20.0</ele>
        <time>2021-05-19T10:08:18Z</time>
      </trkpt>
      <trkpt lat="42.0644270" lon="-8.8917540">
        <ele>20.1</ele>
        <time>2021-05-19T10:08:19Z</time>
      </trkpt>
      <trkpt lat="42.0644360" lon="-8.8917580">
        <ele>20.1</ele>
        <time>2021-05-19T10:08:20Z</time>
      </trkpt>
      <trkpt lat="42.0644470" lon="-8.8917700">
        <ele>20.2</ele>
        <time>2021-05-19T10:08:21Z</time>
      </trkpt>
      <trkpt lat="42.0644620" lon="-8.8917710">
        <ele>20.3</ele>
        <time>2021-05-19T10:08:22Z</time>
      </trkpt>
      <trkpt lat="42.0644790" lon="-8.8917700">
        <ele>20.3</ele>
        <time>2021-05-19T10:08:23Z</time>
      </trkpt>
      <trkpt lat="42.0644970" lon="-8.8917770">
        <ele>20.4</ele>
        <time>2021-05-19T10:08:24Z</time>
      </trkpt>
      <trkpt lat="42.0645070" lon="-8.8917800">
        <ele>20.4</ele>
        <time>2021-05-19T10:08:25Z</time>
      </trkpt>
      <trkpt lat="42.0645170" lon="-8.8917840">
        <ele>20.5</ele>
        <time>2021-05-19T10:08:26Z</time>
      </trkpt>
      <trkpt lat="42.0645380" lon="-8.8917970">
        <ele>20.6</ele>
        <time>2021-05-19T10:08:27Z</time>
      </trkpt>
      <trkpt lat="42.0645470" lon="-8.8918020">
        <ele>20.6</ele>
        <time>2021-05-19T10:08:28Z</time>
      </trkpt>
      <trkpt lat="42.0645550" lon="-8.8918060">
        <ele>20.7</ele>
        <time>2021-05-19T10:08:29Z</time>
      </trkpt>
      <trkpt lat="42.0645680" lon="-8.8918160">
        <ele>20.7</ele>
        <time>2021-05-19T10:08:30Z</time>
      </trkpt>
      <trkpt lat="42.0645820" lon="-8.8918230">
        <ele>20.7</ele>
        <time>2021-05-19T10:08:31Z</time>
      </trkpt>
      <trkpt lat="42.0645920" lon="-8.8918260">
        <ele>20.8</ele>
        <time>2021-05-19T10:08:32Z</time>
      </trkpt>
      <trkpt lat="42.0646030" lon="-8.8918380">
        <ele>20.8</ele>
        <time>2021-05-19T10:08:33Z</time>
      </trkpt>
      <trkpt lat="42.0646090" lon="-8.8918420">
        <ele>20.8</ele>
        <time>2021-05-19T10:08:34Z</time>
      </trkpt>
      <trkpt lat="42.0646220" lon="-8.8918470">
        <ele>20.8</ele>
        <time>2021-05-19T10:08:35Z</time>
      </trkpt>
      <trkpt lat="42.0646390" lon="-8.8918520">
        <ele>20.9</ele>
        <time>2021-05-19T10:08:36Z</time>
      </trkpt>
      <trkpt lat="42.0646600" lon="-8.8918680">
        <ele>20.9</ele>
        <time>2021-05-19T10:08:37Z</time>
      </trkpt>
      <trkpt lat="42.0646660" lon="-8.8918730">
        <ele>20.9</ele>
        <time>2021-05-19T10:08:38Z</time>
      </trkpt>
      <trkpt lat="42.0646730" lon="-8.8918790">
        <ele>20.9</ele>
        <time>2021-05-19T10:08:39Z</time>
      </trkpt>
      <trkpt lat="42.0646840" lon="-8.8918830">
        <ele>20.9</ele>
        <time>2021-05-19T10:08:40Z</time>
      </trkpt>
      <trkpt lat="42.0647010" lon="-8.8918870">
        <ele>20.9</ele>
        <time>2021-05-19T10:08:41Z</time>
      </trkpt>
      <trkpt lat="42.0647130" lon="-8.8918930">
        <ele>21.0</ele>
        <time>2021-05-19T10:08:42Z</time>
      </trkpt>
      <trkpt lat="42.0647260" lon="-8.8919040">
        <ele>21.0</ele>
        <time>2021-05-19T10:08:43Z</time>
      </trkpt>
      <trkpt lat="42.0647460" lon="-8.8919180">
        <ele>21.0</ele>
        <time>2021-05-19T10:08:44Z</time>
      </trkpt>
      <trkpt lat="42.0647550" lon="-8.8919250">
        <ele>21.0</ele>
        <time>2021-05-19T10:08:45Z</time>
      </trkpt>
      <trkpt lat="42.0647630" lon="-8.8919330">
        <ele>21.0</ele>
        <time>2021-05-19T10:08:46Z</time>
      </trkpt>
      <trkpt lat="42.0647820" lon="-8.8919420">
        <ele>21.0</ele>
        <time>2021-05-19T10:08:47Z</time>
      </trkpt>
      <trkpt lat="42.0647900" lon="-8.8919460">
        <ele>21.0</ele>
        <time>2021-05-19T10:08:48Z</time>
      </trkpt>
      <trkpt lat="42.0647980" lon="-8.8919510">
        <ele>21.0</ele>
        <time>2021-05-19T10:08:49Z</time>
      </trkpt>
      <trkpt lat="42.0648140" lon="-8.8919610">
        <ele>21.0</ele>
        <time>2021-05-19T10:08:50Z</time>
      </trkpt>
      <trkpt lat="42.0648240" lon="-8.8919650">
        <ele>21.0</ele>
        <time>2021-05-19T10:08:51Z</time>
      </trkpt>
      <trkpt lat="42.0648340" lon="-8.8919680">
        <ele>21.0</ele>
        <time>2021-05-19T10:08:52Z</time>
      </trkpt>
      <trkpt lat="42.0648550" lon="-8.8919720">
        <ele>21.0</ele>
        <time>2021-05-19T10:08:53Z</time>
      </trkpt>
      <trkpt lat="42.0648630" lon="-8.8919740">
        <ele>21.0</ele>
        <time>2021-05-19T10:08:54Z</time>
      </trkpt>
      <trkpt lat="42.0648720" lon="-8.8919760">
        <ele>21.0</ele>
        <time>2021-05-19T10:08:55Z</time>
      </trkpt>
      <trkpt lat="42.0648860" lon="-8.8919830">
        <ele>21.0</ele>
        <time>2021-05-19T10:08:56Z</time>
      </trkpt>
      <trkpt lat="42.0649020" lon="-8.8919890">
        <ele>21.0</ele>
        <time>2021-05-19T10:08:57Z</time>
      </trkpt>
      <trkpt lat="42.0649270" lon="-8.8920010">
        <ele>21.0</ele>
        <time>2021-05-19T10:08:58Z</time>
      </trkpt>
      <trkpt lat="42.0649370" lon="-8.8920040">
        <ele>21.0</ele>
        <time>2021-05-19T10:08:59Z</time>
      </trkpt>
      <trkpt lat="42.0649460" lon="-8.8920060">
        <ele>21.0</ele>
        <time>2021-05-19T10:09:00Z</time>
      </trkpt>
      <trkpt lat="42.0649490" lon="-8.8920120">
        <ele>21.0</ele>
        <time>2021-05-19T10:09:01Z</time>
      </trkpt>
      <trkpt lat="42.0649650" lon="-8.8920210">
        <ele>21.0</ele>
        <time>2021-05-19T10:09:02Z</time>
      </trkpt>
      <trkpt lat="42.0649790" lon="-8.8920220">
        <ele>21.1</ele>
        <time>2021-05-19T10:09:03Z</time>
      </trkpt>
      <trkpt lat="42.0650100" lon="-8.8920380">
        <ele>21.1</ele>
        <time>2021-05-19T10:09:04Z</time>
      </trkpt>
      <trkpt lat="42.0650190" lon="-8.8920390">
        <ele>21.1</ele>
        <time>2021-05-19T10:09:05Z</time>
      </trkpt>
      <trkpt lat="42.0650380" lon="-8.8920420">
        <ele>21.1</ele>
        <time>2021-05-19T10:09:06Z</time>
      </trkpt>
      <trkpt lat="42.0650530" lon="-8.8920450">
        <ele>21.1</ele>
        <time>2021-05-19T10:09:07Z</time>
      </trkpt>
      <trkpt lat="42.0650690" lon="-8.8920480">
        <ele>21.1</ele>
        <time>2021-05-19T10:09:08Z</time>
      </trkpt>
      <trkpt lat="42.0650860" lon="-8.8920490">
        <ele>21.1</ele>
        <time>2021-05-19T10:09:09Z</time>
      </trkpt>
      <trkpt lat="42.0651000" lon="-8.8920580">
        <ele>21.1</ele>
        <time>2021-05-19T10:09:10Z</time>
      </trkpt>
      <trkpt lat="42.0651140" lon="-8.8920650">
        <ele>21.1</ele>
        <time>2021-05-19T10:09:11Z</time>
      </trkpt>
      <trkpt lat="42.0651300" lon="-8.8920710">
        <ele>21.1</ele>
        <time>2021-05-19T10:09:12Z</time>
      </trkpt>
      <trkpt lat="42.0651460" lon="-8.8920780">
        <ele>21.1</ele>
        <time>2021-05-19T10:09:13Z</time>
      </trkpt>
      <trkpt lat="42.0651600" lon="-8.8920860">
        <ele>21.1</ele>
        <time>2021-05-19T10:09:14Z</time>
      </trkpt>
      <trkpt lat="42.0651740" lon="-8.8920900">
        <ele>21.1</ele>
        <time>2021-05-19T10:09:15Z</time>
      </trkpt>
      <trkpt lat="42.0651890" lon="-8.8920970">
        <ele>21.1</ele>
        <time>2021-05-19T10:09:16Z</time>
      </trkpt>
      <trkpt lat="42.0652050" lon="-8.8920930">
        <ele>21.1</ele>
        <time>2021-05-19T10:09:17Z</time>
      </trkpt>
      <trkpt lat="42.0652180" lon="-8.8921010">
        <ele>21.1</ele>
        <time>2021-05-19T10:09:18Z</time>
      </trkpt>
      <trkpt lat="42.0652320" lon="-8.8921050">
        <ele>21.1</ele>
        <time>2021-05-19T10:09:19Z</time>
      </trkpt>
      <trkpt lat="42.0652460" lon="-8.8921110">
        <ele>21.1</ele>
        <time>2021-05-19T10:09:20Z</time>
      </trkpt>
      <trkpt lat="42.0652600" lon="-8.8921150">
        <ele>21.1</ele>
        <time>2021-05-19T10:09:21Z</time>
      </trkpt>
      <trkpt lat="42.0652770" lon="-8.8921170">
        <ele>21.1</ele>
        <time>2021-05-19T10:09:22Z</time>
      </trkpt>
      <trkpt lat="42.0652910" lon="-8.8921250">
        <ele>21.1</ele>
        <time>2021-05-19T10:09:23Z</time>
      </trkpt>
      <trkpt lat="42.0653050" lon="-8.8921290">
        <ele>21.1</ele>
        <time>2021-05-19T10:09:24Z</time>
      </trkpt>
      <trkpt lat="42.0653190" lon="-8.8921270">
        <ele>21.1</ele>
        <time>2021-05-19T10:09:25Z</time>
      </trkpt>
      <trkpt lat="42.0653310" lon="-8.8921360">
        <ele>21.1</ele>
        <time>2021-05-19T10:09:26Z</time>
      </trkpt>
      <trkpt lat="42.0653460" lon="-8.8921350">
        <ele>21.1</ele>
        <time>2021-05-19T10:09:27Z</time>
      </trkpt>
      <trkpt lat="42.0653590" lon="-8.8921480">
        <ele>21.1</ele>
        <time>2021-05-19T10:09:28Z</time>
      </trkpt>
      <trkpt lat="42.0653710" lon="-8.8921510">
        <ele>21.1</ele>
        <time>2021-05-19T10:09:29Z</time>
      </trkpt>
      <trkpt lat="42.0653840" lon="-8.8921560">
        <ele>21.1</ele>
        <time>2021-05-19T10:09:30Z</time>
      </trkpt>
      <trkpt lat="42.0653970" lon="-8.8921660">
        <ele>21.1</ele>
        <time>2021-05-19T10:09:31Z</time>
      </trkpt>
      <trkpt lat="42.0654120" lon="-8.8921630">
        <ele>21.1</ele>
        <time>2021-05-19T10:09:32Z</time>
      </trkpt>
      <trkpt lat="42.0654240" lon="-8.8921730">
        <ele>21.1</ele>
        <time>2021-05-19T10:09:33Z</time>
      </trkpt>
      <trkpt lat="42.0654370" lon="-8.8921770">
        <ele>21.1</ele>
        <time>2021-05-19T10:09:34Z</time>
      </trkpt>
      <trkpt lat="42.0654500" lon="-8.8921840">
        <ele>21.1</ele>
        <time>2021-05-19T10:09:35Z</time>
      </trkpt>
      <trkpt lat="42.0654710" lon="-8.8921950">
        <ele>21.1</ele>
        <time>2021-05-19T10:09:36Z</time>
      </trkpt>
      <trkpt lat="42.0654780" lon="-8.8922000">
        <ele>21.1</ele>
        <time>2021-05-19T10:09:37Z</time>
      </trkpt>
      <trkpt lat="42.0654860" lon="-8.8922060">
        <ele>21.1</ele>
        <time>2021-05-19T10:09:38Z</time>
      </trkpt>
      <trkpt lat="42.0655000" lon="-8.8922090">
        <ele>21.1</ele>
        <time>2021-05-19T10:09:39Z</time>
      </trkpt>
      <trkpt lat="42.0655140" lon="-8.8922150">
        <ele>21.1</ele>
        <time>2021-05-19T10:09:40Z</time>
      </trkpt>
      <trkpt lat="42.0655340" lon="-8.8922270">
        <ele>21.1</ele>
        <time>2021-05-19T10:09:41Z</time>
      </trkpt>
      <trkpt lat="42.0655420" lon="-8.8922310">
        <ele>21.1</ele>
        <time>2021-05-19T10:09:42Z</time>
      </trkpt>
      <trkpt lat="42.0655500" lon="-8.8922340">
        <ele>21.1</ele>
        <time>2021-05-19T10:09:43Z</time>
      </trkpt>
      <trkpt lat="42.0655610" lon="-8.8922490">
        <ele>21.1</ele>
        <time>2021-05-19T10:09:44Z</time>
      </trkpt>
      <trkpt lat="42.0655740" lon="-8.8922540">
        <ele>21.1</ele>
        <time>2021-05-19T10:09:45Z</time>
      </trkpt>
      <trkpt lat="42.0655890" lon="-8.8922580">
        <ele>21.1</ele>
        <time>2021-05-19T10:09:46Z</time>
      </trkpt>
      <trkpt lat="42.0656010" lon="-8.8922640">
        <ele>21.1</ele>
        <time>2021-05-19T10:09:47Z</time>
      </trkpt>
      <trkpt lat="42.0656120" lon="-8.8922730">
        <ele>21.1</ele>
        <time>2021-05-19T10:09:48Z</time>
      </trkpt>
      <trkpt lat="42.0656280" lon="-8.8922720">
        <ele>21.1</ele>
        <time>2021-05-19T10:09:49Z</time>
      </trkpt>
      <trkpt lat="42.0656460" lon="-8.8922860">
        <ele>21.0</ele>
        <time>2021-05-19T10:09:50Z</time>
      </trkpt>
      <trkpt lat="42.0656550" lon="-8.8922880">
        <ele>21.0</ele>
        <time>2021-05-19T10:09:51Z</time>
      </trkpt>
      <trkpt lat="42.0656640" lon="-8.8922910">
        <ele>21.0</ele>
        <time>2021-05-19T10:09:52Z</time>
      </trkpt>
      <trkpt lat="42.0656760" lon="-8.8923030">
        <ele>21.0</ele>
        <time>2021-05-19T10:09:53Z</time>
      </trkpt>
      <trkpt lat="42.0656910" lon="-8.8923000">
        <ele>21.0</ele>
        <time>2021-05-19T10:09:54Z</time>
      </trkpt>
      <trkpt lat="42.0657050" lon="-8.8923070">
        <ele>21.0</ele>
        <time>2021-05-19T10:09:55Z</time>
      </trkpt>
      <trkpt lat="42.0657180" lon="-8.8923060">
        <ele>21.0</ele>
        <time>2021-05-19T10:09:56Z</time>
      </trkpt>
      <trkpt lat="42.0657350" lon="-8.8923020">
        <ele>21.0</ele>
        <time>2021-05-19T10:09:57Z</time>
      </trkpt>
      <trkpt lat="42.0657470" lon="-8.8923030">
        <ele>21.0</ele>
        <time>2021-05-19T10:09:58Z</time>
      </trkpt>
      <trkpt lat="42.0657680" lon="-8.8923060">
        <ele>21.0</ele>
        <time>2021-05-19T10:09:59Z</time>
      </trkpt>
      <trkpt lat="42.0657770" lon="-8.8923100">
        <ele>21.0</ele>
        <time>2021-05-19T10:10:00Z</time>
      </trkpt>
      <trkpt lat="42.0657850" lon="-8.8923130">
        <ele>21.0</ele>
        <time>2021-05-19T10:10:01Z</time>
      </trkpt>
      <trkpt lat="42.0658070" lon="-8.8923180">
        <ele>20.9</ele>
        <time>2021-05-19T10:10:02Z</time>
      </trkpt>
      <trkpt lat="42.0658160" lon="-8.8923180">
        <ele>20.9</ele>
        <time>2021-05-19T10:10:03Z</time>
      </trkpt>
      <trkpt lat="42.0658250" lon="-8.8923190">
        <ele>20.9</ele>
        <time>2021-05-19T10:10:04Z</time>
      </trkpt>
      <trkpt lat="42.0658360" lon="-8.8923210">
        <ele>20.9</ele>
        <time>2021-05-19T10:10:05Z</time>
      </trkpt>
      <trkpt lat="42.0658450" lon="-8.8923290">
        <ele>20.9</ele>
        <time>2021-05-19T10:10:06Z</time>
      </trkpt>
      <trkpt lat="42.0658560" lon="-8.8923320">
        <ele>20.9</ele>
        <time>2021-05-19T10:10:07Z</time>
      </trkpt>
      <trkpt lat="42.0658700" lon="-8.8923340">
        <ele>20.9</ele>
        <time>2021-05-19T10:10:08Z</time>
      </trkpt>
      <trkpt lat="42.0658820" lon="-8.8923450">
        <ele>20.9</ele>
        <time>2021-05-19T10:10:09Z</time>
      </trkpt>
      <trkpt lat="42.0659030" lon="-8.8923540">
        <ele>20.9</ele>
        <time>2021-05-19T10:10:10Z</time>
      </trkpt>
      <trkpt lat="42.0659120" lon="-8.8923590">
        <ele>20.9</ele>
        <time>2021-05-19T10:10:11Z</time>
      </trkpt>
      <trkpt lat="42.0659200" lon="-8.8923630">
        <ele>20.9</ele>
        <time>2021-05-19T10:10:12Z</time>
      </trkpt>
      <trkpt lat="42.0659360" lon="-8.8923650">
        <ele>20.9</ele>
        <time>2021-05-19T10:10:13Z</time>
      </trkpt>
      <trkpt lat="42.0659460" lon="-8.8923750">
        <ele>20.9</ele>
        <time>2021-05-19T10:10:14Z</time>
      </trkpt>
      <trkpt lat="42.0659610" lon="-8.8923780">
        <ele>20.9</ele>
        <time>2021-05-19T10:10:15Z</time>
      </trkpt>
      <trkpt lat="42.0659750" lon="-8.8923860">
        <ele>20.9</ele>
        <time>2021-05-19T10:10:16Z</time>
      </trkpt>
      <trkpt lat="42.0659870" lon="-8.8923850">
        <ele>20.8</ele>
        <time>2021-05-19T10:10:17Z</time>
      </trkpt>
      <trkpt lat="42.0659980" lon="-8.8923930">
        <ele>20.8</ele>
        <time>2021-05-19T10:10:18Z</time>
      </trkpt>
      <trkpt lat="42.0660080" lon="-8.8924030">
        <ele>20.8</ele>
        <time>2021-05-19T10:10:19Z</time>
      </trkpt>
      <trkpt lat="42.0660280" lon="-8.8924100">
        <ele>20.8</ele>
        <time>2021-05-19T10:10:20Z</time>
      </trkpt>
      <trkpt lat="42.0660360" lon="-8.8924160">
        <ele>20.8</ele>
        <time>2021-05-19T10:10:21Z</time>
      </trkpt>
      <trkpt lat="42.0660440" lon="-8.8924210">
        <ele>20.8</ele>
        <time>2021-05-19T10:10:22Z</time>
      </trkpt>
      <trkpt lat="42.0660660" lon="-8.8924270">
        <ele>20.8</ele>
        <time>2021-05-19T10:10:23Z</time>
      </trkpt>
      <trkpt lat="42.0660750" lon="-8.8924300">
        <ele>20.8</ele>
        <time>2021-05-19T10:10:24Z</time>
      </trkpt>
      <trkpt lat="42.0660830" lon="-8.8924340">
        <ele>20.8</ele>
        <time>2021-05-19T10:10:25Z</time>
      </trkpt>
      <trkpt lat="42.0660960" lon="-8.8924390">
        <ele>20.8</ele>
        <time>2021-05-19T10:10:26Z</time>
      </trkpt>
      <trkpt lat="42.0661090" lon="-8.8924440">
        <ele>20.8</ele>
        <time>2021-05-19T10:10:27Z</time>
      </trkpt>
      <trkpt lat="42.0661200" lon="-8.8924490">
        <ele>20.8</ele>
        <time>2021-05-19T10:10:28Z</time>
      </trkpt>
      <trkpt lat="42.0661350" lon="-8.8924510">
        <ele>20.8</ele>
        <time>2021-05-19T10:10:29Z</time>
      </trkpt>
      <trkpt lat="42.0661570" lon="-8.8924560">
        <ele>20.8</ele>
        <time>2021-05-19T10:10:30Z</time>
      </trkpt>
      <trkpt lat="42.0661650" lon="-8.8924580">
        <ele>20.8</ele>
        <time>2021-05-19T10:10:31Z</time>
      </trkpt>
      <trkpt lat="42.0661740" lon="-8.8924600">
        <ele>20.8</ele>
        <time>2021-05-19T10:10:32Z</time>
      </trkpt>
      <trkpt lat="42.0661890" lon="-8.8924650">
        <ele>20.8</ele>
        <time>2021-05-19T10:10:33Z</time>
      </trkpt>
      <trkpt lat="42.0662020" lon="-8.8924700">
        <ele>20.8</ele>
        <time>2021-05-19T10:10:34Z</time>
      </trkpt>
      <trkpt lat="42.0662240" lon="-8.8924740">
        <ele>20.8</ele>
        <time>2021-05-19T10:10:35Z</time>
      </trkpt>
      <trkpt lat="42.0662320" lon="-8.8924740">
        <ele>20.8</ele>
        <time>2021-05-19T10:10:36Z</time>
      </trkpt>
      <trkpt lat="42.0662410" lon="-8.8924750">
        <ele>20.8</ele>
        <time>2021-05-19T10:10:37Z</time>
      </trkpt>
      <trkpt lat="42.0662630" lon="-8.8924810">
        <ele>20.8</ele>
        <time>2021-05-19T10:10:38Z</time>
      </trkpt>
      <trkpt lat="42.0662700" lon="-8.8924860">
        <ele>20.8</ele>
        <time>2021-05-19T10:10:39Z</time>
      </trkpt>
      <trkpt lat="42.0662780" lon="-8.8924910">
        <ele>20.8</ele>
        <time>2021-05-19T10:10:40Z</time>
      </trkpt>
      <trkpt lat="42.0662880" lon="-8.8924980">
        <ele>20.8</ele>
        <time>2021-05-19T10:10:41Z</time>
      </trkpt>
      <trkpt lat="42.0662980" lon="-8.8925040">
        <ele>20.8</ele>
        <time>2021-05-19T10:10:42Z</time>
      </trkpt>
      <trkpt lat="42.0663080" lon="-8.8925110">
        <ele>20.8</ele>
        <time>2021-05-19T10:10:43Z</time>
      </trkpt>
      <trkpt lat="42.0663290" lon="-8.8925170">
        <ele>20.8</ele>
        <time>2021-05-19T10:10:44Z</time>
      </trkpt>
      <trkpt lat="42.0663370" lon="-8.8925180">
        <ele>20.8</ele>
        <time>2021-05-19T10:10:45Z</time>
      </trkpt>
      <trkpt lat="42.0663460" lon="-8.8925200">
        <ele>20.8</ele>
        <time>2021-05-19T10:10:46Z</time>
      </trkpt>
      <trkpt lat="42.0663660" lon="-8.8925280">
        <ele>20.7</ele>
        <time>2021-05-19T10:10:47Z</time>
      </trkpt>
      <trkpt lat="42.0663750" lon="-8.8925310">
        <ele>20.7</ele>
        <time>2021-05-19T10:10:48Z</time>
      </trkpt>
      <trkpt lat="42.0663830" lon="-8.8925330">
        <ele>20.7</ele>
        <time>2021-05-19T10:10:49Z</time>
      </trkpt>
      <trkpt lat="42.0663950" lon="-8.8925460">
        <ele>20.7</ele>
        <time>2021-05-19T10:10:50Z</time>
      </trkpt>
      <trkpt lat="42.0664090" lon="-8.8925440">
        <ele>20.7</ele>
        <time>2021-05-19T10:10:51Z</time>
      </trkpt>
      <trkpt lat="42.0664230" lon="-8.8925460">
        <ele>20.7</ele>
        <time>2021-05-19T10:10:52Z</time>
      </trkpt>
      <trkpt lat="42.0664370" lon="-8.8925500">
        <ele>20.7</ele>
        <time>2021-05-19T10:10:53Z</time>
      </trkpt>
      <trkpt lat="42.0664520" lon="-8.8925540">
        <ele>20.7</ele>
        <time>2021-05-19T10:10:54Z</time>
      </trkpt>
      <trkpt lat="42.0664670" lon="-8.8925540">
        <ele>20.7</ele>
        <time>2021-05-19T10:10:55Z</time>
      </trkpt>
      <trkpt lat="42.0664880" lon="-8.8925650">
        <ele>20.7</ele>
        <time>2021-05-19T10:10:56Z</time>
      </trkpt>
      <trkpt lat="42.0664970" lon="-8.8925710">
        <ele>20.7</ele>
        <time>2021-05-19T10:10:57Z</time>
      </trkpt>
      <trkpt lat="42.0665050" lon="-8.8925760">
        <ele>20.7</ele>
        <time>2021-05-19T10:10:58Z</time>
      </trkpt>
      <trkpt lat="42.0665140" lon="-8.8925820">
        <ele>20.7</ele>
        <time>2021-05-19T10:10:59Z</time>
      </trkpt>
      <trkpt lat="42.0665230" lon="-8.8925910">
        <ele>20.7</ele>
        <time>2021-05-19T10:11:00Z</time>
      </trkpt>
      <trkpt lat="42.0665370" lon="-8.8925940">
        <ele>20.7</ele>
        <time>2021-05-19T10:11:01Z</time>
      </trkpt>
      <trkpt lat="42.0665550" lon="-8.8926110">
        <ele>20.7</ele>
        <time>2021-05-19T10:11:02Z</time>
      </trkpt>
      <trkpt lat="42.0665610" lon="-8.8926170">
        <ele>20.7</ele>
        <time>2021-05-19T10:11:03Z</time>
      </trkpt>
      <trkpt lat="42.0665680" lon="-8.8926220">
        <ele>20.7</ele>
        <time>2021-05-19T10:11:04Z</time>
      </trkpt>
      <trkpt lat="42.0665850" lon="-8.8926380">
        <ele>20.7</ele>
        <time>2021-05-19T10:11:05Z</time>
      </trkpt>
      <trkpt lat="42.0665910" lon="-8.8926470">
        <ele>20.7</ele>
        <time>2021-05-19T10:11:06Z</time>
      </trkpt>
      <trkpt lat="42.0665970" lon="-8.8926560">
        <ele>20.7</ele>
        <time>2021-05-19T10:11:07Z</time>
      </trkpt>
      <trkpt lat="42.0666180" lon="-8.8926580">
        <ele>20.7</ele>
        <time>2021-05-19T10:11:08Z</time>
      </trkpt>
      <trkpt lat="42.0666260" lon="-8.8926600">
        <ele>20.7</ele>
        <time>2021-05-19T10:11:09Z</time>
      </trkpt>
      <trkpt lat="42.0666340" lon="-8.8926610">
        <ele>20.7</ele>
        <time>2021-05-19T10:11:10Z</time>
      </trkpt>
      <trkpt lat="42.0666450" lon="-8.8926670">
        <ele>20.7</ele>
        <time>2021-05-19T10:11:11Z</time>
      </trkpt>
      <trkpt lat="42.0666560" lon="-8.8926720">
        <ele>20.7</ele>
        <time>2021-05-19T10:11:12Z</time>
      </trkpt>
      <trkpt lat="42.0666680" lon="-8.8926760">
        <ele>20.7</ele>
        <time>2021-05-19T10:11:13Z</time>
      </trkpt>
      <trkpt lat="42.0666780" lon="-8.8926860">
        <ele>20.7</ele>
        <time>2021-05-19T10:11:14Z</time>
      </trkpt>
      <trkpt lat="42.0666890" lon="-8.8926880">
        <ele>20.7</ele>
        <time>2021-05-19T10:11:15Z</time>
      </trkpt>
      <trkpt lat="42.0667020" lon="-8.8926910">
        <ele>20.7</ele>
        <time>2021-05-19T10:11:16Z</time>
      </trkpt>
      <trkpt lat="42.0667230" lon="-8.8926970">
        <ele>20.7</ele>
        <time>2021-05-19T10:11:17Z</time>
      </trkpt>
      <trkpt lat="42.0667320" lon="-8.8927000">
        <ele>20.7</ele>
        <time>2021-05-19T10:11:18Z</time>
      </trkpt>
      <trkpt lat="42.0667410" lon="-8.8927020">
        <ele>20.7</ele>
        <time>2021-05-19T10:11:19Z</time>
      </trkpt>
      <trkpt lat="42.0667610" lon="-8.8927090">
        <ele>20.7</ele>
        <time>2021-05-19T10:11:20Z</time>
      </trkpt>
      <trkpt lat="42.0667700" lon="-8.8927100">
        <ele>20.8</ele>
        <time>2021-05-19T10:11:21Z</time>
      </trkpt>
      <trkpt lat="42.0667780" lon="-8.8927110">
        <ele>20.8</ele>
        <time>2021-05-19T10:11:22Z</time>
      </trkpt>
      <trkpt lat="42.0667890" lon="-8.8927180">
        <ele>20.8</ele>
        <time>2021-05-19T10:11:23Z</time>
      </trkpt>
      <trkpt lat="42.0668010" lon="-8.8927230">
        <ele>20.8</ele>
        <time>2021-05-19T10:11:24Z</time>
      </trkpt>
      <trkpt lat="42.0668110" lon="-8.8927270">
        <ele>20.8</ele>
        <time>2021-05-19T10:11:25Z</time>
      </trkpt>
      <trkpt lat="42.0668220" lon="-8.8927340">
        <ele>20.8</ele>
        <time>2021-05-19T10:11:26Z</time>
      </trkpt>
      <trkpt lat="42.0668360" lon="-8.8927300">
        <ele>20.8</ele>
        <time>2021-05-19T10:11:27Z</time>
      </trkpt>
      <trkpt lat="42.0668460" lon="-8.8927360">
        <ele>20.8</ele>
        <time>2021-05-19T10:11:28Z</time>
      </trkpt>
      <trkpt lat="42.0668570" lon="-8.8927460">
        <ele>20.8</ele>
        <time>2021-05-19T10:11:29Z</time>
      </trkpt>
      <trkpt lat="42.0668690" lon="-8.8927450">
        <ele>20.8</ele>
        <time>2021-05-19T10:11:30Z</time>
      </trkpt>
      <trkpt lat="42.0668770" lon="-8.8927580">
        <ele>20.8</ele>
        <time>2021-05-19T10:11:31Z</time>
      </trkpt>
      <trkpt lat="42.0668970" lon="-8.8927610">
        <ele>20.9</ele>
        <time>2021-05-19T10:11:32Z</time>
      </trkpt>
      <trkpt lat="42.0669060" lon="-8.8927640">
        <ele>20.9</ele>
        <time>2021-05-19T10:11:33Z</time>
      </trkpt>
      <trkpt lat="42.0669140" lon="-8.8927660">
        <ele>20.9</ele>
        <time>2021-05-19T10:11:34Z</time>
      </trkpt>
      <trkpt lat="42.0669240" lon="-8.8927720">
        <ele>20.9</ele>
        <time>2021-05-19T10:11:35Z</time>
      </trkpt>
      <trkpt lat="42.0669370" lon="-8.8927750">
        <ele>20.9</ele>
        <time>2021-05-19T10:11:36Z</time>
      </trkpt>
      <trkpt lat="42.0669470" lon="-8.8927840">
        <ele>20.9</ele>
        <time>2021-05-19T10:11:37Z</time>
      </trkpt>
      <trkpt lat="42.0669680" lon="-8.8927940">
        <ele>20.9</ele>
        <time>2021-05-19T10:11:38Z</time>
      </trkpt>
      <trkpt lat="42.0669750" lon="-8.8927980">
        <ele>20.9</ele>
        <time>2021-05-19T10:11:39Z</time>
      </trkpt>
      <trkpt lat="42.0669830" lon="-8.8928030">
        <ele>21.0</ele>
        <time>2021-05-19T10:11:40Z</time>
      </trkpt>
      <trkpt lat="42.0670030" lon="-8.8928110">
        <ele>21.0</ele>
        <time>2021-05-19T10:11:41Z</time>
      </trkpt>
      <trkpt lat="42.0670110" lon="-8.8928120">
        <ele>21.0</ele>
        <time>2021-05-19T10:11:42Z</time>
      </trkpt>
      <trkpt lat="42.0670200" lon="-8.8928120">
        <ele>21.0</ele>
        <time>2021-05-19T10:11:43Z</time>
      </trkpt>
      <trkpt lat="42.0670330" lon="-8.8928190">
        <ele>21.0</ele>
        <time>2021-05-19T10:11:44Z</time>
      </trkpt>
      <trkpt lat="42.0670440" lon="-8.8928240">
        <ele>21.0</ele>
        <time>2021-05-19T10:11:45Z</time>
      </trkpt>
      <trkpt lat="42.0670560" lon="-8.8928230">
        <ele>21.1</ele>
        <time>2021-05-19T10:11:46Z</time>
      </trkpt>
      <trkpt lat="42.0670750" lon="-8.8928360">
        <ele>21.1</ele>
        <time>2021-05-19T10:11:47Z</time>
      </trkpt>
      <trkpt lat="42.0670820" lon="-8.8928430">
        <ele>21.1</ele>
        <time>2021-05-19T10:11:48Z</time>
      </trkpt>
      <trkpt lat="42.0670890" lon="-8.8928490">
        <ele>21.1</ele>
        <time>2021-05-19T10:11:49Z</time>
      </trkpt>
      <trkpt lat="42.0671090" lon="-8.8928620">
        <ele>21.2</ele>
        <time>2021-05-19T10:11:50Z</time>
      </trkpt>
      <trkpt lat="42.0671180" lon="-8.8928660">
        <ele>21.2</ele>
        <time>2021-05-19T10:11:51Z</time>
      </trkpt>
      <trkpt lat="42.0671270" lon="-8.8928690">
        <ele>21.2</ele>
        <time>2021-05-19T10:11:52Z</time>
      </trkpt>
      <trkpt lat="42.0671400" lon="-8.8928710">
        <ele>21.2</ele>
        <time>2021-05-19T10:11:53Z</time>
      </trkpt>
      <trkpt lat="42.0671530" lon="-8.8928810">
        <ele>21.2</ele>
        <time>2021-05-19T10:11:54Z</time>
      </trkpt>
      <trkpt lat="42.0671680" lon="-8.8928790">
        <ele>21.3</ele>
        <time>2021-05-19T10:11:55Z</time>
      </trkpt>
      <trkpt lat="42.0671800" lon="-8.8928820">
        <ele>21.3</ele>
        <time>2021-05-19T10:11:56Z</time>
      </trkpt>
      <trkpt lat="42.0671910" lon="-8.8928850">
        <ele>21.3</ele>
        <time>2021-05-19T10:11:57Z</time>
      </trkpt>
      <trkpt lat="42.0672040" lon="-8.8928840">
        <ele>21.3</ele>
        <time>2021-05-19T10:11:58Z</time>
      </trkpt>
      <trkpt lat="42.0672150" lon="-8.8928870">
        <ele>21.4</ele>
        <time>2021-05-19T10:11:59Z</time>
      </trkpt>
      <trkpt lat="42.0672350" lon="-8.8928990">
        <ele>21.4</ele>
        <time>2021-05-19T10:12:00Z</time>
      </trkpt>
      <trkpt lat="42.0672420" lon="-8.8929040">
        <ele>21.4</ele>
        <time>2021-05-19T10:12:01Z</time>
      </trkpt>
      <trkpt lat="42.0672500" lon="-8.8929100">
        <ele>21.4</ele>
        <time>2021-05-19T10:12:02Z</time>
      </trkpt>
      <trkpt lat="42.0672690" lon="-8.8929220">
        <ele>21.5</ele>
        <time>2021-05-19T10:12:03Z</time>
      </trkpt>
      <trkpt lat="42.0672770" lon="-8.8929250">
        <ele>21.5</ele>
        <time>2021-05-19T10:12:04Z</time>
      </trkpt>
      <trkpt lat="42.0672850" lon="-8.8929290">
        <ele>21.5</ele>
        <time>2021-05-19T10:12:05Z</time>
      </trkpt>
      <trkpt lat="42.0672980" lon="-8.8929320">
        <ele>21.5</ele>
        <time>2021-05-19T10:12:06Z</time>
      </trkpt>
      <trkpt lat="42.0673120" lon="-8.8929330">
        <ele>21.6</ele>
        <time>2021-05-19T10:12:07Z</time>
      </trkpt>
      <trkpt lat="42.0673310" lon="-8.8929410">
        <ele>21.6</ele>
        <time>2021-05-19T10:12:08Z</time>
      </trkpt>
      <trkpt lat="42.0673390" lon="-8.8929470">
        <ele>21.6</ele>
        <time>2021-05-19T10:12:09Z</time>
      </trkpt>
      <trkpt lat="42.0673460" lon="-8.8929520">
        <ele>21.6</ele>
        <time>2021-05-19T10:12:10Z</time>
      </trkpt>
      <trkpt lat="42.0673650" lon="-8.8929560">
        <ele>21.7</ele>
        <time>2021-05-19T10:12:11Z</time>
      </trkpt>
      <trkpt lat="42.0673740" lon="-8.8929570">
        <ele>21.7</ele>
        <time>2021-05-19T10:12:12Z</time>
      </trkpt>
      <trkpt lat="42.0673820" lon="-8.8929590">
        <ele>21.7</ele>
        <time>2021-05-19T10:12:13Z</time>
      </trkpt>
      <trkpt lat="42.0674040" lon="-8.8929680">
        <ele>21.8</ele>
        <time>2021-05-19T10:12:14Z</time>
      </trkpt>
      <trkpt lat="42.0674130" lon="-8.8929710">
        <ele>21.8</ele>
        <time>2021-05-19T10:12:15Z</time>
      </trkpt>
      <trkpt lat="42.0674210" lon="-8.8929740">
        <ele>21.8</ele>
        <time>2021-05-19T10:12:16Z</time>
      </trkpt>
      <trkpt lat="42.0674410" lon="-8.8929830">
        <ele>21.9</ele>
        <time>2021-05-19T10:12:17Z</time>
      </trkpt>
      <trkpt lat="42.0674480" lon="-8.8929860">
        <ele>21.9</ele>
        <time>2021-05-19T10:12:18Z</time>
      </trkpt>
      <trkpt lat="42.0674560" lon="-8.8929900">
        <ele>21.9</ele>
        <time>2021-05-19T10:12:19Z</time>
      </trkpt>
      <trkpt lat="42.0674620" lon="-8.8929910">
        <ele>21.9</ele>
        <time>2021-05-19T10:12:20Z</time>
      </trkpt>
      <trkpt lat="42.0674670" lon="-8.8929960">
        <ele>22.0</ele>
        <time>2021-05-19T10:12:21Z</time>
      </trkpt>
      <trkpt lat="42.0674740" lon="-8.8930020">
        <ele>22.0</ele>
        <time>2021-05-19T10:12:22Z</time>
      </trkpt>
      <trkpt lat="42.0674770" lon="-8.8930050">
        <ele>22.0</ele>
        <time>2021-05-19T10:12:23Z</time>
      </trkpt>
      <trkpt lat="42.0674820" lon="-8.8930110">
        <ele>22.0</ele>
        <time>2021-05-19T10:12:24Z</time>
      </trkpt>
      <trkpt lat="42.0674920" lon="-8.8930170">
        <ele>22.0</ele>
        <time>2021-05-19T10:12:25Z</time>
      </trkpt>
      <trkpt lat="42.0675050" lon="-8.8930250">
        <ele>22.1</ele>
        <time>2021-05-19T10:12:26Z</time>
      </trkpt>
      <trkpt lat="42.0675110" lon="-8.8930310">
        <ele>22.1</ele>
        <time>2021-05-19T10:12:27Z</time>
      </trkpt>
      <trkpt lat="42.0675150" lon="-8.8930330">
        <ele>22.1</ele>
        <time>2021-05-19T10:12:28Z</time>
      </trkpt>
      <trkpt lat="42.0675220" lon="-8.8930380">
        <ele>22.1</ele>
        <time>2021-05-19T10:12:29Z</time>
      </trkpt>
      <trkpt lat="42.0675290" lon="-8.8930400">
        <ele>22.1</ele>
        <time>2021-05-19T10:12:30Z</time>
      </trkpt>
      <trkpt lat="42.0675380" lon="-8.8930440">
        <ele>22.2</ele>
        <time>2021-05-19T10:12:31Z</time>
      </trkpt>
      <trkpt lat="42.0675450" lon="-8.8930490">
        <ele>22.2</ele>
        <time>2021-05-19T10:12:32Z</time>
      </trkpt>
      <trkpt lat="42.0675570" lon="-8.8930540">
        <ele>22.2</ele>
        <time>2021-05-19T10:12:33Z</time>
      </trkpt>
      <trkpt lat="42.0675640" lon="-8.8930610">
        <ele>22.2</ele>
        <time>2021-05-19T10:12:34Z</time>
      </trkpt>
      <trkpt lat="42.0675750" lon="-8.8930710">
        <ele>22.3</ele>
        <time>2021-05-19T10:12:35Z</time>
      </trkpt>
      <trkpt lat="42.0675850" lon="-8.8930740">
        <ele>22.3</ele>
        <time>2021-05-19T10:12:36Z</time>
      </trkpt>
      <trkpt lat="42.0675970" lon="-8.8930760">
        <ele>22.3</ele>
        <time>2021-05-19T10:12:37Z</time>
      </trkpt>
      <trkpt lat="42.0676090" lon="-8.8930810">
        <ele>22.4</ele>
        <time>2021-05-19T10:12:38Z</time>
      </trkpt>
      <trkpt lat="42.0676180" lon="-8.8930830">
        <ele>22.4</ele>
        <time>2021-05-19T10:12:39Z</time>
      </trkpt>
      <trkpt lat="42.0676290" lon="-8.8930910">
        <ele>22.4</ele>
        <time>2021-05-19T10:12:40Z</time>
      </trkpt>
      <trkpt lat="42.0676360" lon="-8.8930980">
        <ele>22.5</ele>
        <time>2021-05-19T10:12:41Z</time>
      </trkpt>
      <trkpt lat="42.0676530" lon="-8.8931020">
        <ele>22.5</ele>
        <time>2021-05-19T10:12:42Z</time>
      </trkpt>
      <trkpt lat="42.0676580" lon="-8.8931070">
        <ele>22.5</ele>
        <time>2021-05-19T10:12:43Z</time>
      </trkpt>
      <trkpt lat="42.0676820" lon="-8.8931130">
        <ele>22.6</ele>
        <time>2021-05-19T10:12:44Z</time>
      </trkpt>
      <trkpt lat="42.0676880" lon="-8.8931140">
        <ele>22.6</ele>
        <time>2021-05-19T10:12:45Z</time>
      </trkpt>
      <trkpt lat="42.0676940" lon="-8.8931150">
        <ele>22.6</ele>
        <time>2021-05-19T10:12:46Z</time>
      </trkpt>
      <trkpt lat="42.0677130" lon="-8.8931240">
        <ele>22.6</ele>
        <time>2021-05-19T10:12:47Z</time>
      </trkpt>
      <trkpt lat="42.0677230" lon="-8.8931290">
        <ele>22.7</ele>
        <time>2021-05-19T10:12:48Z</time>
      </trkpt>
      <trkpt lat="42.0677330" lon="-8.8931340">
        <ele>22.7</ele>
        <time>2021-05-19T10:12:49Z</time>
      </trkpt>
      <trkpt lat="42.0677480" lon="-8.8931410">
        <ele>22.7</ele>
        <time>2021-05-19T10:12:50Z</time>
      </trkpt>
      <trkpt lat="42.0677580" lon="-8.8931440">
        <ele>22.7</ele>
        <time>2021-05-19T10:12:51Z</time>
      </trkpt>
      <trkpt lat="42.0677680" lon="-8.8931460">
        <ele>22.8</ele>
        <time>2021-05-19T10:12:52Z</time>
      </trkpt>
      <trkpt lat="42.0677880" lon="-8.8931520">
        <ele>22.8</ele>
        <time>2021-05-19T10:12:53Z</time>
      </trkpt>
      <trkpt lat="42.0677880" lon="-8.8931550">
        <ele>22.8</ele>
        <time>2021-05-19T10:12:54Z</time>
      </trkpt>
      <trkpt lat="42.0678010" lon="-8.8931490">
        <ele>22.9</ele>
        <time>2021-05-19T10:12:55Z</time>
      </trkpt>
      <trkpt lat="42.0678160" lon="-8.8931530">
        <ele>22.9</ele>
        <time>2021-05-19T10:12:56Z</time>
      </trkpt>
      <trkpt lat="42.0678240" lon="-8.8931570">
        <ele>22.9</ele>
        <time>2021-05-19T10:12:57Z</time>
      </trkpt>
      <trkpt lat="42.0678320" lon="-8.8931610">
        <ele>22.9</ele>
        <time>2021-05-19T10:12:58Z</time>
      </trkpt>
      <trkpt lat="42.0678490" lon="-8.8931640">
        <ele>23.0</ele>
        <time>2021-05-19T10:12:59Z</time>
      </trkpt>
      <trkpt lat="42.0678640" lon="-8.8931610">
        <ele>23.0</ele>
        <time>2021-05-19T10:13:00Z</time>
      </trkpt>
      <trkpt lat="42.0678860" lon="-8.8931640">
        <ele>23.1</ele>
        <time>2021-05-19T10:13:01Z</time>
      </trkpt>
      <trkpt lat="42.0678950" lon="-8.8931640">
        <ele>23.1</ele>
        <time>2021-05-19T10:13:02Z</time>
      </trkpt>
      <trkpt lat="42.0679030" lon="-8.8931650">
        <ele>23.1</ele>
        <time>2021-05-19T10:13:03Z</time>
      </trkpt>
      <trkpt lat="42.0679100" lon="-8.8931650">
        <ele>23.1</ele>
        <time>2021-05-19T10:13:04Z</time>
      </trkpt>
      <trkpt lat="42.0679280" lon="-8.8931680">
        <ele>23.1</ele>
        <time>2021-05-19T10:13:05Z</time>
      </trkpt>
      <trkpt lat="42.0679340" lon="-8.8931720">
        <ele>23.2</ele>
        <time>2021-05-19T10:13:06Z</time>
      </trkpt>
      <trkpt lat="42.0679570" lon="-8.8931730">
        <ele>23.2</ele>
        <time>2021-05-19T10:13:07Z</time>
      </trkpt>
      <trkpt lat="42.0679680" lon="-8.8931740">
        <ele>23.2</ele>
        <time>2021-05-19T10:13:08Z</time>
      </trkpt>
      <trkpt lat="42.0679780" lon="-8.8931740">
        <ele>23.3</ele>
        <time>2021-05-19T10:13:09Z</time>
      </trkpt>
      <trkpt lat="42.0680010" lon="-8.8931740">
        <ele>23.3</ele>
        <time>2021-05-19T10:13:10Z</time>
      </trkpt>
      <trkpt lat="42.0680080" lon="-8.8931730">
        <ele>23.3</ele>
        <time>2021-05-19T10:13:11Z</time>
      </trkpt>
      <trkpt lat="42.0680150" lon="-8.8931730">
        <ele>23.4</ele>
        <time>2021-05-19T10:13:12Z</time>
      </trkpt>
      <trkpt lat="42.0680290" lon="-8.8931740">
        <ele>23.4</ele>
        <time>2021-05-19T10:13:13Z</time>
      </trkpt>
      <trkpt lat="42.0680420" lon="-8.8931780">
        <ele>23.4</ele>
        <time>2021-05-19T10:13:14Z</time>
      </trkpt>
      <trkpt lat="42.0680520" lon="-8.8931760">
        <ele>23.4</ele>
        <time>2021-05-19T10:13:15Z</time>
      </trkpt>
      <trkpt lat="42.0680700" lon="-8.8931850">
        <ele>23.5</ele>
        <time>2021-05-19T10:13:16Z</time>
      </trkpt>
      <trkpt lat="42.0680790" lon="-8.8931850">
        <ele>23.5</ele>
        <time>2021-05-19T10:13:17Z</time>
      </trkpt>
      <trkpt lat="42.0680880" lon="-8.8931860">
        <ele>23.5</ele>
        <time>2021-05-19T10:13:18Z</time>
      </trkpt>
      <trkpt lat="42.0681060" lon="-8.8931820">
        <ele>23.5</ele>
        <time>2021-05-19T10:13:19Z</time>
      </trkpt>
      <trkpt lat="42.0681130" lon="-8.8931820">
        <ele>23.6</ele>
        <time>2021-05-19T10:13:20Z</time>
      </trkpt>
      <trkpt lat="42.0681200" lon="-8.8931810">
        <ele>23.6</ele>
        <time>2021-05-19T10:13:21Z</time>
      </trkpt>
      <trkpt lat="42.0681270" lon="-8.8931800">
        <ele>23.6</ele>
        <time>2021-05-19T10:13:22Z</time>
      </trkpt>
      <trkpt lat="42.0681280" lon="-8.8931800">
        <ele>23.6</ele>
        <time>2021-05-19T10:13:23Z</time>
      </trkpt>
      <trkpt lat="42.0681350" lon="-8.8931790">
        <ele>23.6</ele>
        <time>2021-05-19T10:13:24Z</time>
      </trkpt>
      <trkpt lat="42.0681500" lon="-8.8931840">
        <ele>23.6</ele>
        <time>2021-05-19T10:13:25Z</time>
      </trkpt>
      <trkpt lat="42.0681540" lon="-8.8931850">
        <ele>23.6</ele>
        <time>2021-05-19T10:13:26Z</time>
      </trkpt>
      <trkpt lat="42.0681570" lon="-8.8931860">
        <ele>23.6</ele>
        <time>2021-05-19T10:13:27Z</time>
      </trkpt>
      <trkpt lat="42.0681540" lon="-8.8931880">
        <ele>23.6</ele>
        <time>2021-05-19T10:13:28Z</time>
      </trkpt>
      <trkpt lat="42.0681530" lon="-8.8931880">
        <ele>23.6</ele>
        <time>2021-05-19T10:13:29Z</time>
      </trkpt>
      <trkpt lat="42.0681530" lon="-8.8931890">
        <ele>23.6</ele>
        <time>2021-05-19T10:13:30Z</time>
      </trkpt>
      <trkpt lat="42.0681520" lon="-8.8931930">
        <ele>23.6</ele>
        <time>2021-05-19T10:13:31Z</time>
      </trkpt>
      <trkpt lat="42.0681530" lon="-8.8931930">
        <ele>23.6</ele>
        <time>2021-05-19T10:13:32Z</time>
      </trkpt>
      <trkpt lat="42.0681520" lon="-8.8931930">
        <ele>23.6</ele>
        <time>2021-05-19T10:13:33Z</time>
      </trkpt>
      <trkpt lat="42.0681510" lon="-8.8931950">
        <ele>23.6</ele>
        <time>2021-05-19T10:13:34Z</time>
      </trkpt>
      <trkpt lat="42.0681470" lon="-8.8931970">
        <ele>23.6</ele>
        <time>2021-05-19T10:13:35Z</time>
      </trkpt>
      <trkpt lat="42.0681440" lon="-8.8932000">
        <ele>23.7</ele>
        <time>2021-05-19T10:13:36Z</time>
      </trkpt>
      <trkpt lat="42.0681390" lon="-8.8932070">
        <ele>23.7</ele>
        <time>2021-05-19T10:13:37Z</time>
      </trkpt>
      <trkpt lat="42.0681370" lon="-8.8932150">
        <ele>23.7</ele>
        <time>2021-05-19T10:13:38Z</time>
      </trkpt>
      <trkpt lat="42.0681330" lon="-8.8932140">
        <ele>23.7</ele>
        <time>2021-05-19T10:13:39Z</time>
      </trkpt>
      <trkpt lat="42.0681300" lon="-8.8932140">
        <ele>23.7</ele>
        <time>2021-05-19T10:13:40Z</time>
      </trkpt>
      <trkpt lat="42.0681280" lon="-8.8932140">
        <ele>23.7</ele>
        <time>2021-05-19T10:13:41Z</time>
      </trkpt>
      <trkpt lat="42.0681220" lon="-8.8932150">
        <ele>23.7</ele>
        <time>2021-05-19T10:13:42Z</time>
      </trkpt>
      <trkpt lat="42.0681210" lon="-8.8932160">
        <ele>23.7</ele>
        <time>2021-05-19T10:13:43Z</time>
      </trkpt>
      <trkpt lat="42.0681190" lon="-8.8932160">
        <ele>23.7</ele>
        <time>2021-05-19T10:13:44Z</time>
      </trkpt>
      <trkpt lat="42.0681220" lon="-8.8932180">
        <ele>23.7</ele>
        <time>2021-05-19T10:13:45Z</time>
      </trkpt>
      <trkpt lat="42.0681230" lon="-8.8932190">
        <ele>23.7</ele>
        <time>2021-05-19T10:13:46Z</time>
      </trkpt>
      <trkpt lat="42.0681240" lon="-8.8932170">
        <ele>23.7</ele>
        <time>2021-05-19T10:13:47Z</time>
      </trkpt>
      <trkpt lat="42.0681240" lon="-8.8932150">
        <ele>23.7</ele>
        <time>2021-05-19T10:13:48Z</time>
      </trkpt>
      <trkpt lat="42.0681250" lon="-8.8932150">
        <ele>23.7</ele>
        <time>2021-05-19T10:13:49Z</time>
      </trkpt>
      <trkpt lat="42.0681280" lon="-8.8932160">
        <ele>23.7</ele>
        <time>2021-05-19T10:13:50Z</time>
      </trkpt>
      <trkpt lat="42.0681290" lon="-8.8932140">
        <ele>23.7</ele>
        <time>2021-05-19T10:13:51Z</time>
      </trkpt>
      <trkpt lat="42.0681320" lon="-8.8932100">
        <ele>23.7</ele>
        <time>2021-05-19T10:13:52Z</time>
      </trkpt>
      <trkpt lat="42.0681330" lon="-8.8932070">
        <ele>23.7</ele>
        <time>2021-05-19T10:13:53Z</time>
      </trkpt>
      <trkpt lat="42.0681370" lon="-8.8932040">
        <ele>23.7</ele>
        <time>2021-05-19T10:13:54Z</time>
      </trkpt>
      <trkpt lat="42.0681400" lon="-8.8932010">
        <ele>23.7</ele>
        <time>2021-05-19T10:13:55Z</time>
      </trkpt>
      <trkpt lat="42.0681410" lon="-8.8932000">
        <ele>23.7</ele>
        <time>2021-05-19T10:13:56Z</time>
      </trkpt>
      <trkpt lat="42.0681400" lon="-8.8932020">
        <ele>23.7</ele>
        <time>2021-05-19T10:13:57Z</time>
      </trkpt>
      <trkpt lat="42.0681380" lon="-8.8932050">
        <ele>23.7</ele>
        <time>2021-05-19T10:13:58Z</time>
      </trkpt>
      <trkpt lat="42.0681390" lon="-8.8932060">
        <ele>23.7</ele>
        <time>2021-05-19T10:13:59Z</time>
      </trkpt>
      <trkpt lat="42.0681350" lon="-8.8932060">
        <ele>23.7</ele>
        <time>2021-05-19T10:14:00Z</time>
      </trkpt>
      <trkpt lat="42.0681370" lon="-8.8932040">
        <ele>23.7</ele>
        <time>2021-05-19T10:14:01Z</time>
      </trkpt>
      <trkpt lat="42.0681380" lon="-8.8932030">
        <ele>23.7</ele>
        <time>2021-05-19T10:14:02Z</time>
      </trkpt>
      <trkpt lat="42.0681380" lon="-8.8932000">
        <ele>23.7</ele>
        <time>2021-05-19T10:14:03Z</time>
      </trkpt>
      <trkpt lat="42.0681410" lon="-8.8931980">
        <ele>23.7</ele>
        <time>2021-05-19T10:14:04Z</time>
      </trkpt>
      <trkpt lat="42.0681420" lon="-8.8931990">
        <ele>23.7</ele>
        <time>2021-05-19T10:14:05Z</time>
      </trkpt>
      <trkpt lat="42.0681420" lon="-8.8931980">
        <ele>23.7</ele>
        <time>2021-05-19T10:14:06Z</time>
      </trkpt>
      <trkpt lat="42.0681390" lon="-8.8931950">
        <ele>23.7</ele>
        <time>2021-05-19T10:14:07Z</time>
      </trkpt>
      <trkpt lat="42.0681370" lon="-8.8931940">
        <ele>23.7</ele>
        <time>2021-05-19T10:14:08Z</time>
      </trkpt>
      <trkpt lat="42.0681360" lon="-8.8931950">
        <ele>23.7</ele>
        <time>2021-05-19T10:14:09Z</time>
      </trkpt>
      <trkpt lat="42.0681370" lon="-8.8931950">
        <ele>23.7</ele>
        <time>2021-05-19T10:14:10Z</time>
      </trkpt>
      <trkpt lat="42.0681400" lon="-8.8931910">
        <ele>23.7</ele>
        <time>2021-05-19T10:14:11Z</time>
      </trkpt>
      <trkpt lat="42.0681360" lon="-8.8931930">
        <ele>23.7</ele>
        <time>2021-05-19T10:14:12Z</time>
      </trkpt>
      <trkpt lat="42.0681360" lon="-8.8931890">
        <ele>23.7</ele>
        <time>2021-05-19T10:14:13Z</time>
      </trkpt>
      <trkpt lat="42.0681380" lon="-8.8931890">
        <ele>23.7</ele>
        <time>2021-05-19T10:14:14Z</time>
      </trkpt>
      <trkpt lat="42.0681400" lon="-8.8931900">
        <ele>23.7</ele>
        <time>2021-05-19T10:14:15Z</time>
      </trkpt>
      <trkpt lat="42.0681410" lon="-8.8931890">
        <ele>23.7</ele>
        <time>2021-05-19T10:14:16Z</time>
      </trkpt>
      <trkpt lat="42.0681400" lon="-8.8931870">
        <ele>23.7</ele>
        <time>2021-05-19T10:14:17Z</time>
      </trkpt>
      <trkpt lat="42.0681390" lon="-8.8931880">
        <ele>23.7</ele>
        <time>2021-05-19T10:14:18Z</time>
      </trkpt>
      <trkpt lat="42.0681380" lon="-8.8931890">
        <ele>23.7</ele>
        <time>2021-05-19T10:14:19Z</time>
      </trkpt>
      <trkpt lat="42.0681410" lon="-8.8931900">
        <ele>23.7</ele>
        <time>2021-05-19T10:14:20Z</time>
      </trkpt>
      <trkpt lat="42.0681440" lon="-8.8931880">
        <ele>23.7</ele>
        <time>2021-05-19T10:14:21Z</time>
      </trkpt>
      <trkpt lat="42.0681560" lon="-8.8931840">
        <ele>23.7</ele>
        <time>2021-05-19T10:14:22Z</time>
      </trkpt>
      <trkpt lat="42.0681660" lon="-8.8931750">
        <ele>23.7</ele>
        <time>2021-05-19T10:14:23Z</time>
      </trkpt>
      <trkpt lat="42.0681720" lon="-8.8931690">
        <ele>23.7</ele>
        <time>2021-05-19T10:14:24Z</time>
      </trkpt>
      <trkpt lat="42.0681800" lon="-8.8931660">
        <ele>23.7</ele>
        <time>2021-05-19T10:14:25Z</time>
      </trkpt>
      <trkpt lat="42.0682010" lon="-8.8931600">
        <ele>23.7</ele>
        <time>2021-05-19T10:14:26Z</time>
      </trkpt>
      <trkpt lat="42.0682090" lon="-8.8931570">
        <ele>23.7</ele>
        <time>2021-05-19T10:14:27Z</time>
      </trkpt>
      <trkpt lat="42.0682160" lon="-8.8931530">
        <ele>23.7</ele>
        <time>2021-05-19T10:14:28Z</time>
      </trkpt>
      <trkpt lat="42.0682360" lon="-8.8931480">
        <ele>23.7</ele>
        <time>2021-05-19T10:14:29Z</time>
      </trkpt>
      <trkpt lat="42.0682450" lon="-8.8931460">
        <ele>23.7</ele>
        <time>2021-05-19T10:14:30Z</time>
      </trkpt>
      <trkpt lat="42.0682540" lon="-8.8931440">
        <ele>23.7</ele>
        <time>2021-05-19T10:14:31Z</time>
      </trkpt>
      <trkpt lat="42.0682650" lon="-8.8931390">
        <ele>23.7</ele>
        <time>2021-05-19T10:14:32Z</time>
      </trkpt>
      <trkpt lat="42.0682760" lon="-8.8931410">
        <ele>23.7</ele>
        <time>2021-05-19T10:14:33Z</time>
      </trkpt>
      <trkpt lat="42.0682850" lon="-8.8931410">
        <ele>23.7</ele>
        <time>2021-05-19T10:14:34Z</time>
      </trkpt>
      <trkpt lat="42.0683010" lon="-8.8931420">
        <ele>23.7</ele>
        <time>2021-05-19T10:14:35Z</time>
      </trkpt>
      <trkpt lat="42.0683120" lon="-8.8931410">
        <ele>23.7</ele>
        <time>2021-05-19T10:14:36Z</time>
      </trkpt>
      <trkpt lat="42.0683270" lon="-8.8931390">
        <ele>23.7</ele>
        <time>2021-05-19T10:14:37Z</time>
      </trkpt>
      <trkpt lat="42.0683410" lon="-8.8931370">
        <ele>23.7</ele>
        <time>2021-05-19T10:14:38Z</time>
      </trkpt>
      <trkpt lat="42.0683520" lon="-8.8931360">
        <ele>23.7</ele>
        <time>2021-05-19T10:14:39Z</time>
      </trkpt>
      <trkpt lat="42.0683630" lon="-8.8931320">
        <ele>23.7</ele>
        <time>2021-05-19T10:14:40Z</time>
      </trkpt>
      <trkpt lat="42.0683720" lon="-8.8931300">
        <ele>23.7</ele>
        <time>2021-05-19T10:14:41Z</time>
      </trkpt>
      <trkpt lat="42.0683840" lon="-8.8931240">
        <ele>23.7</ele>
        <time>2021-05-19T10:14:42Z</time>
      </trkpt>
      <trkpt lat="42.0683990" lon="-8.8931230">
        <ele>23.7</ele>
        <time>2021-05-19T10:14:43Z</time>
      </trkpt>
      <trkpt lat="42.0684100" lon="-8.8931180">
        <ele>23.7</ele>
        <time>2021-05-19T10:14:44Z</time>
      </trkpt>
      <trkpt lat="42.0684200" lon="-8.8931200">
        <ele>23.7</ele>
        <time>2021-05-19T10:14:45Z</time>
      </trkpt>
      <trkpt lat="42.0684330" lon="-8.8931190">
        <ele>23.7</ele>
        <time>2021-05-19T10:14:46Z</time>
      </trkpt>
      <trkpt lat="42.0684440" lon="-8.8931150">
        <ele>23.7</ele>
        <time>2021-05-19T10:14:47Z</time>
      </trkpt>
      <trkpt lat="42.0684560" lon="-8.8931180">
        <ele>23.7</ele>
        <time>2021-05-19T10:14:48Z</time>
      </trkpt>
      <trkpt lat="42.0684690" lon="-8.8931190">
        <ele>23.7</ele>
        <time>2021-05-19T10:14:49Z</time>
      </trkpt>
      <trkpt lat="42.0684800" lon="-8.8931120">
        <ele>23.7</ele>
        <time>2021-05-19T10:14:50Z</time>
      </trkpt>
      <trkpt lat="42.0684970" lon="-8.8931070">
        <ele>23.7</ele>
        <time>2021-05-19T10:14:51Z</time>
      </trkpt>
      <trkpt lat="42.0685180" lon="-8.8930990">
        <ele>23.7</ele>
        <time>2021-05-19T10:14:52Z</time>
      </trkpt>
      <trkpt lat="42.0685270" lon="-8.8930960">
        <ele>23.7</ele>
        <time>2021-05-19T10:14:53Z</time>
      </trkpt>
      <trkpt lat="42.0685370" lon="-8.8930940">
        <ele>23.7</ele>
        <time>2021-05-19T10:14:54Z</time>
      </trkpt>
      <trkpt lat="42.0685520" lon="-8.8930920">
        <ele>23.7</ele>
        <time>2021-05-19T10:14:55Z</time>
      </trkpt>
      <trkpt lat="42.0685640" lon="-8.8930860">
        <ele>23.7</ele>
        <time>2021-05-19T10:14:56Z</time>
      </trkpt>
      <trkpt lat="42.0685800" lon="-8.8930810">
        <ele>23.7</ele>
        <time>2021-05-19T10:14:57Z</time>
      </trkpt>
      <trkpt lat="42.0685900" lon="-8.8930780">
        <ele>23.7</ele>
        <time>2021-05-19T10:14:58Z</time>
      </trkpt>
      <trkpt lat="42.0685990" lon="-8.8930750">
        <ele>23.7</ele>
        <time>2021-05-19T10:14:59Z</time>
      </trkpt>
      <trkpt lat="42.0686090" lon="-8.8930720">
        <ele>23.7</ele>
        <time>2021-05-19T10:15:00Z</time>
      </trkpt>
      <trkpt lat="42.0686280" lon="-8.8930630">
        <ele>23.7</ele>
        <time>2021-05-19T10:15:01Z</time>
      </trkpt>
      <trkpt lat="42.0686390" lon="-8.8930600">
        <ele>23.7</ele>
        <time>2021-05-19T10:15:02Z</time>
      </trkpt>
      <trkpt lat="42.0686490" lon="-8.8930560">
        <ele>23.7</ele>
        <time>2021-05-19T10:15:03Z</time>
      </trkpt>
      <trkpt lat="42.0686590" lon="-8.8930580">
        <ele>23.7</ele>
        <time>2021-05-19T10:15:04Z</time>
      </trkpt>
      <trkpt lat="42.0686740" lon="-8.8930540">
        <ele>23.7</ele>
        <time>2021-05-19T10:15:05Z</time>
      </trkpt>
      <trkpt lat="42.0686820" lon="-8.8930480">
        <ele>23.7</ele>
        <time>2021-05-19T10:15:06Z</time>
      </trkpt>
      <trkpt lat="42.0686970" lon="-8.8930440">
        <ele>23.7</ele>
        <time>2021-05-19T10:15:07Z</time>
      </trkpt>
      <trkpt lat="42.0687090" lon="-8.8930420">
        <ele>23.7</ele>
        <time>2021-05-19T10:15:08Z</time>
      </trkpt>
      <trkpt lat="42.0687300" lon="-8.8930370">
        <ele>23.7</ele>
        <time>2021-05-19T10:15:09Z</time>
      </trkpt>
      <trkpt lat="42.0687380" lon="-8.8930370">
        <ele>23.7</ele>
        <time>2021-05-19T10:15:10Z</time>
      </trkpt>
      <trkpt lat="42.0687470" lon="-8.8930370">
        <ele>23.7</ele>
        <time>2021-05-19T10:15:11Z</time>
      </trkpt>
      <trkpt lat="42.0687620" lon="-8.8930350">
        <ele>23.7</ele>
        <time>2021-05-19T10:15:12Z</time>
      </trkpt>
      <trkpt lat="42.0687790" lon="-8.8930350">
        <ele>23.7</ele>
        <time>2021-05-19T10:15:13Z</time>
      </trkpt>
      <trkpt lat="42.0688000" lon="-8.8930250">
        <ele>23.7</ele>
        <time>2021-05-19T10:15:14Z</time>
      </trkpt>
      <trkpt lat="42.0688090" lon="-8.8930230">
        <ele>23.7</ele>
        <time>2021-05-19T10:15:15Z</time>
      </trkpt>
      <trkpt lat="42.0688180" lon="-8.8930210">
        <ele>23.8</ele>
        <time>2021-05-19T10:15:16Z</time>
      </trkpt>
      <trkpt lat="42.0688300" lon="-8.8930230">
        <ele>23.8</ele>
        <time>2021-05-19T10:15:17Z</time>
      </trkpt>
      <trkpt lat="42.0688470" lon="-8.8930180">
        <ele>23.8</ele>
        <time>2021-05-19T10:15:18Z</time>
      </trkpt>
      <trkpt lat="42.0688660" lon="-8.8930140">
        <ele>23.8</ele>
        <time>2021-05-19T10:15:19Z</time>
      </trkpt>
      <trkpt lat="42.0688750" lon="-8.8930140">
        <ele>23.8</ele>
        <time>2021-05-19T10:15:20Z</time>
      </trkpt>
      <trkpt lat="42.0688840" lon="-8.8930130">
        <ele>23.8</ele>
        <time>2021-05-19T10:15:21Z</time>
      </trkpt>
      <trkpt lat="42.0688980" lon="-8.8930080">
        <ele>23.8</ele>
        <time>2021-05-19T10:15:22Z</time>
      </trkpt>
      <trkpt lat="42.0689120" lon="-8.8930050">
        <ele>23.8</ele>
        <time>2021-05-19T10:15:23Z</time>
      </trkpt>
      <trkpt lat="42.0689280" lon="-8.8929990">
        <ele>23.8</ele>
        <time>2021-05-19T10:15:24Z</time>
      </trkpt>
      <trkpt lat="42.0689410" lon="-8.8929950">
        <ele>23.9</ele>
        <time>2021-05-19T10:15:25Z</time>
      </trkpt>
      <trkpt lat="42.0689510" lon="-8.8929930">
        <ele>23.9</ele>
        <time>2021-05-19T10:15:26Z</time>
      </trkpt>
      <trkpt lat="42.0689670" lon="-8.8929940">
        <ele>23.9</ele>
        <time>2021-05-19T10:15:27Z</time>
      </trkpt>
      <trkpt lat="42.0689760" lon="-8.8929880">
        <ele>23.9</ele>
        <time>2021-05-19T10:15:28Z</time>
      </trkpt>
      <trkpt lat="42.0690030" lon="-8.8929840">
        <ele>23.9</ele>
        <time>2021-05-19T10:15:29Z</time>
      </trkpt>
      <trkpt lat="42.0690090" lon="-8.8929840">
        <ele>23.9</ele>
        <time>2021-05-19T10:15:30Z</time>
      </trkpt>
      <trkpt lat="42.0690150" lon="-8.8929830">
        <ele>23.9</ele>
        <time>2021-05-19T10:15:31Z</time>
      </trkpt>
      <trkpt lat="42.0690270" lon="-8.8929840">
        <ele>23.9</ele>
        <time>2021-05-19T10:15:32Z</time>
      </trkpt>
      <trkpt lat="42.0690390" lon="-8.8929810">
        <ele>23.9</ele>
        <time>2021-05-19T10:15:33Z</time>
      </trkpt>
      <trkpt lat="42.0690490" lon="-8.8929800">
        <ele>24.0</ele>
        <time>2021-05-19T10:15:34Z</time>
      </trkpt>
      <trkpt lat="42.0690670" lon="-8.8929780">
        <ele>24.0</ele>
        <time>2021-05-19T10:15:35Z</time>
      </trkpt>
      <trkpt lat="42.0690850" lon="-8.8929740">
        <ele>24.0</ele>
        <time>2021-05-19T10:15:36Z</time>
      </trkpt>
      <trkpt lat="42.0690950" lon="-8.8929650">
        <ele>24.0</ele>
        <time>2021-05-19T10:15:37Z</time>
      </trkpt>
      <trkpt lat="42.0691090" lon="-8.8929640">
        <ele>24.0</ele>
        <time>2021-05-19T10:15:38Z</time>
      </trkpt>
      <trkpt lat="42.0691200" lon="-8.8929600">
        <ele>24.0</ele>
        <time>2021-05-19T10:15:39Z</time>
      </trkpt>
      <trkpt lat="42.0691320" lon="-8.8929590">
        <ele>24.1</ele>
        <time>2021-05-19T10:15:40Z</time>
      </trkpt>
      <trkpt lat="42.0691410" lon="-8.8929570">
        <ele>24.1</ele>
        <time>2021-05-19T10:15:41Z</time>
      </trkpt>
      <trkpt lat="42.0691510" lon="-8.8929550">
        <ele>24.1</ele>
        <time>2021-05-19T10:15:42Z</time>
      </trkpt>
      <trkpt lat="42.0691660" lon="-8.8929520">
        <ele>24.1</ele>
        <time>2021-05-19T10:15:43Z</time>
      </trkpt>
      <trkpt lat="42.0691830" lon="-8.8929510">
        <ele>24.1</ele>
        <time>2021-05-19T10:15:44Z</time>
      </trkpt>
      <trkpt lat="42.0692030" lon="-8.8929520">
        <ele>24.1</ele>
        <time>2021-05-19T10:15:45Z</time>
      </trkpt>
      <trkpt lat="42.0692120" lon="-8.8929540">
        <ele>24.1</ele>
        <time>2021-05-19T10:15:46Z</time>
      </trkpt>
      <trkpt lat="42.0692200" lon="-8.8929550">
        <ele>24.1</ele>
        <time>2021-05-19T10:15:47Z</time>
      </trkpt>
      <trkpt lat="42.0692320" lon="-8.8929510">
        <ele>24.2</ele>
        <time>2021-05-19T10:15:48Z</time>
      </trkpt>
      <trkpt lat="42.0692500" lon="-8.8929460">
        <ele>24.2</ele>
        <time>2021-05-19T10:15:49Z</time>
      </trkpt>
      <trkpt lat="42.0692700" lon="-8.8929410">
        <ele>24.2</ele>
        <time>2021-05-19T10:15:50Z</time>
      </trkpt>
      <trkpt lat="42.0692810" lon="-8.8929400">
        <ele>24.2</ele>
        <time>2021-05-19T10:15:51Z</time>
      </trkpt>
      <trkpt lat="42.0692950" lon="-8.8929470">
        <ele>24.2</ele>
        <time>2021-05-19T10:15:52Z</time>
      </trkpt>
      <trkpt lat="42.0693130" lon="-8.8929410">
        <ele>24.3</ele>
        <time>2021-05-19T10:15:53Z</time>
      </trkpt>
      <trkpt lat="42.0693200" lon="-8.8929420">
        <ele>24.3</ele>
        <time>2021-05-19T10:15:54Z</time>
      </trkpt>
      <trkpt lat="42.0693280" lon="-8.8929320">
        <ele>24.3</ele>
        <time>2021-05-19T10:15:55Z</time>
      </trkpt>
      <trkpt lat="42.0693400" lon="-8.8929260">
        <ele>24.3</ele>
        <time>2021-05-19T10:15:56Z</time>
      </trkpt>
      <trkpt lat="42.0693570" lon="-8.8929250">
        <ele>24.3</ele>
        <time>2021-05-19T10:15:57Z</time>
      </trkpt>
      <trkpt lat="42.0693730" lon="-8.8929240">
        <ele>24.3</ele>
        <time>2021-05-19T10:15:58Z</time>
      </trkpt>
      <trkpt lat="42.0693860" lon="-8.8929230">
        <ele>24.3</ele>
        <time>2021-05-19T10:15:59Z</time>
      </trkpt>
      <trkpt lat="42.0694010" lon="-8.8929170">
        <ele>24.4</ele>
        <time>2021-05-19T10:16:00Z</time>
      </trkpt>
      <trkpt lat="42.0694160" lon="-8.8929150">
        <ele>24.4</ele>
        <time>2021-05-19T10:16:01Z</time>
      </trkpt>
      <trkpt lat="42.0694280" lon="-8.8929120">
        <ele>24.4</ele>
        <time>2021-05-19T10:16:02Z</time>
      </trkpt>
      <trkpt lat="42.0694410" lon="-8.8929090">
        <ele>24.4</ele>
        <time>2021-05-19T10:16:03Z</time>
      </trkpt>
      <trkpt lat="42.0694550" lon="-8.8929060">
        <ele>24.4</ele>
        <time>2021-05-19T10:16:04Z</time>
      </trkpt>
      <trkpt lat="42.0694680" lon="-8.8929050">
        <ele>24.4</ele>
        <time>2021-05-19T10:16:05Z</time>
      </trkpt>
      <trkpt lat="42.0694770" lon="-8.8929050">
        <ele>24.4</ele>
        <time>2021-05-19T10:16:06Z</time>
      </trkpt>
      <trkpt lat="42.0694880" lon="-8.8929070">
        <ele>24.4</ele>
        <time>2021-05-19T10:16:07Z</time>
      </trkpt>
      <trkpt lat="42.0694970" lon="-8.8929050">
        <ele>24.5</ele>
        <time>2021-05-19T10:16:08Z</time>
      </trkpt>
      <trkpt lat="42.0695060" lon="-8.8929030">
        <ele>24.5</ele>
        <time>2021-05-19T10:16:09Z</time>
      </trkpt>
      <trkpt lat="42.0695150" lon="-8.8928990">
        <ele>24.5</ele>
        <time>2021-05-19T10:16:10Z</time>
      </trkpt>
      <trkpt lat="42.0695320" lon="-8.8929040">
        <ele>24.5</ele>
        <time>2021-05-19T10:16:11Z</time>
      </trkpt>
      <trkpt lat="42.0695450" lon="-8.8929050">
        <ele>24.5</ele>
        <time>2021-05-19T10:16:12Z</time>
      </trkpt>
      <trkpt lat="42.0695610" lon="-8.8929050">
        <ele>24.5</ele>
        <time>2021-05-19T10:16:13Z</time>
      </trkpt>
      <trkpt lat="42.0695750" lon="-8.8929110">
        <ele>24.5</ele>
        <time>2021-05-19T10:16:14Z</time>
      </trkpt>
      <trkpt lat="42.0695920" lon="-8.8929130">
        <ele>24.5</ele>
        <time>2021-05-19T10:16:15Z</time>
      </trkpt>
      <trkpt lat="42.0696010" lon="-8.8929220">
        <ele>24.6</ele>
        <time>2021-05-19T10:16:16Z</time>
      </trkpt>
      <trkpt lat="42.0696130" lon="-8.8929290">
        <ele>24.6</ele>
        <time>2021-05-19T10:16:17Z</time>
      </trkpt>
      <trkpt lat="42.0696230" lon="-8.8929360">
        <ele>24.6</ele>
        <time>2021-05-19T10:16:18Z</time>
      </trkpt>
      <trkpt lat="42.0696330" lon="-8.8929450">
        <ele>24.6</ele>
        <time>2021-05-19T10:16:19Z</time>
      </trkpt>
      <trkpt lat="42.0696450" lon="-8.8929490">
        <ele>24.6</ele>
        <time>2021-05-19T10:16:20Z</time>
      </trkpt>
      <trkpt lat="42.0696580" lon="-8.8929570">
        <ele>24.6</ele>
        <time>2021-05-19T10:16:21Z</time>
      </trkpt>
      <trkpt lat="42.0696770" lon="-8.8929690">
        <ele>24.6</ele>
        <time>2021-05-19T10:16:22Z</time>
      </trkpt>
      <trkpt lat="42.0696870" lon="-8.8929760">
        <ele>24.6</ele>
        <time>2021-05-19T10:16:23Z</time>
      </trkpt>
      <trkpt lat="42.0696940" lon="-8.8929850">
        <ele>24.6</ele>
        <time>2021-05-19T10:16:24Z</time>
      </trkpt>
      <trkpt lat="42.0697030" lon="-8.8929930">
        <ele>24.6</ele>
        <time>2021-05-19T10:16:25Z</time>
      </trkpt>
      <trkpt lat="42.0697170" lon="-8.8930000">
        <ele>24.7</ele>
        <time>2021-05-19T10:16:26Z</time>
      </trkpt>
      <trkpt lat="42.0697280" lon="-8.8930050">
        <ele>24.7</ele>
        <time>2021-05-19T10:16:27Z</time>
      </trkpt>
      <trkpt lat="42.0697510" lon="-8.8930020">
        <ele>24.7</ele>
        <time>2021-05-19T10:16:28Z</time>
      </trkpt>
      <trkpt lat="42.0697690" lon="-8.8930000">
        <ele>24.7</ele>
        <time>2021-05-19T10:16:29Z</time>
      </trkpt>
      <trkpt lat="42.0697790" lon="-8.8929990">
        <ele>24.7</ele>
        <time>2021-05-19T10:16:30Z</time>
      </trkpt>
      <trkpt lat="42.0697880" lon="-8.8929970">
        <ele>24.7</ele>
        <time>2021-05-19T10:16:31Z</time>
      </trkpt>
      <trkpt lat="42.0698110" lon="-8.8929880">
        <ele>24.7</ele>
        <time>2021-05-19T10:16:32Z</time>
      </trkpt>
      <trkpt lat="42.0698220" lon="-8.8929890">
        <ele>24.7</ele>
        <time>2021-05-19T10:16:33Z</time>
      </trkpt>
      <trkpt lat="42.0698330" lon="-8.8929890">
        <ele>24.7</ele>
        <time>2021-05-19T10:16:34Z</time>
      </trkpt>
      <trkpt lat="42.0698520" lon="-8.8929830">
        <ele>24.8</ele>
        <time>2021-05-19T10:16:35Z</time>
      </trkpt>
      <trkpt lat="42.0698620" lon="-8.8929830">
        <ele>24.8</ele>
        <time>2021-05-19T10:16:36Z</time>
      </trkpt>
      <trkpt lat="42.0698710" lon="-8.8929820">
        <ele>24.8</ele>
        <time>2021-05-19T10:16:37Z</time>
      </trkpt>
      <trkpt lat="42.0698780" lon="-8.8929810">
        <ele>24.8</ele>
        <time>2021-05-19T10:16:38Z</time>
      </trkpt>
      <trkpt lat="42.0698930" lon="-8.8929790">
        <ele>24.8</ele>
        <time>2021-05-19T10:16:39Z</time>
      </trkpt>
      <trkpt lat="42.0699010" lon="-8.8929790">
        <ele>24.8</ele>
        <time>2021-05-19T10:16:40Z</time>
      </trkpt>
      <trkpt lat="42.0699160" lon="-8.8929740">
        <ele>24.8</ele>
        <time>2021-05-19T10:16:41Z</time>
      </trkpt>
      <trkpt lat="42.0699290" lon="-8.8929710">
        <ele>24.8</ele>
        <time>2021-05-19T10:16:42Z</time>
      </trkpt>
      <trkpt lat="42.0699420" lon="-8.8929680">
        <ele>24.9</ele>
        <time>2021-05-19T10:16:43Z</time>
      </trkpt>
      <trkpt lat="42.0699580" lon="-8.8929700">
        <ele>24.9</ele>
        <time>2021-05-19T10:16:44Z</time>
      </trkpt>
      <trkpt lat="42.0699720" lon="-8.8929650">
        <ele>24.9</ele>
        <time>2021-05-19T10:16:45Z</time>
      </trkpt>
      <trkpt lat="42.0699850" lon="-8.8929630">
        <ele>24.9</ele>
        <time>2021-05-19T10:16:46Z</time>
      </trkpt>
      <trkpt lat="42.0699970" lon="-8.8929540">
        <ele>24.9</ele>
        <time>2021-05-19T10:16:47Z</time>
      </trkpt>
      <trkpt lat="42.0700070" lon="-8.8929530">
        <ele>24.9</ele>
        <time>2021-05-19T10:16:48Z</time>
      </trkpt>
      <trkpt lat="42.0700190" lon="-8.8929540">
        <ele>24.9</ele>
        <time>2021-05-19T10:16:49Z</time>
      </trkpt>
      <trkpt lat="42.0700370" lon="-8.8929490">
        <ele>25.0</ele>
        <time>2021-05-19T10:16:50Z</time>
      </trkpt>
      <trkpt lat="42.0700470" lon="-8.8929440">
        <ele>25.0</ele>
        <time>2021-05-19T10:16:51Z</time>
      </trkpt>
      <trkpt lat="42.0700560" lon="-8.8929400">
        <ele>25.0</ele>
        <time>2021-05-19T10:16:52Z</time>
      </trkpt>
      <trkpt lat="42.0700660" lon="-8.8929390">
        <ele>25.0</ele>
        <time>2021-05-19T10:16:53Z</time>
      </trkpt>
      <trkpt lat="42.0700720" lon="-8.8929300">
        <ele>25.0</ele>
        <time>2021-05-19T10:16:54Z</time>
      </trkpt>
      <trkpt lat="42.0700830" lon="-8.8929270">
        <ele>25.0</ele>
        <time>2021-05-19T10:16:55Z</time>
      </trkpt>
      <trkpt lat="42.0701050" lon="-8.8929290">
        <ele>25.1</ele>
        <time>2021-05-19T10:16:56Z</time>
      </trkpt>
      <trkpt lat="42.0701140" lon="-8.8929310">
        <ele>25.1</ele>
        <time>2021-05-19T10:16:57Z</time>
      </trkpt>
      <trkpt lat="42.0701230" lon="-8.8929330">
        <ele>25.1</ele>
        <time>2021-05-19T10:16:58Z</time>
      </trkpt>
      <trkpt lat="42.0701400" lon="-8.8929380">
        <ele>25.1</ele>
        <time>2021-05-19T10:16:59Z</time>
      </trkpt>
      <trkpt lat="42.0701430" lon="-8.8929580">
        <ele>25.1</ele>
        <time>2021-05-19T10:17:00Z</time>
      </trkpt>
      <trkpt lat="42.0701580" lon="-8.8929610">
        <ele>25.1</ele>
        <time>2021-05-19T10:17:01Z</time>
      </trkpt>
      <trkpt lat="42.0701680" lon="-8.8929740">
        <ele>25.2</ele>
        <time>2021-05-19T10:17:02Z</time>
      </trkpt>
      <trkpt lat="42.0701820" lon="-8.8929870">
        <ele>25.2</ele>
        <time>2021-05-19T10:17:03Z</time>
      </trkpt>
      <trkpt lat="42.0701890" lon="-8.8929990">
        <ele>25.2</ele>
        <time>2021-05-19T10:17:04Z</time>
      </trkpt>
      <trkpt lat="42.0702070" lon="-8.8930040">
        <ele>25.2</ele>
        <time>2021-05-19T10:17:05Z</time>
      </trkpt>
      <trkpt lat="42.0702170" lon="-8.8930090">
        <ele>25.2</ele>
        <time>2021-05-19T10:17:06Z</time>
      </trkpt>
      <trkpt lat="42.0702360" lon="-8.8930210">
        <ele>25.3</ele>
        <time>2021-05-19T10:17:07Z</time>
      </trkpt>
      <trkpt lat="42.0702450" lon="-8.8930250">
        <ele>25.3</ele>
        <time>2021-05-19T10:17:08Z</time>
      </trkpt>
      <trkpt lat="42.0702530" lon="-8.8930300">
        <ele>25.3</ele>
        <time>2021-05-19T10:17:09Z</time>
      </trkpt>
      <trkpt lat="42.0702620" lon="-8.8930260">
        <ele>25.3</ele>
        <time>2021-05-19T10:17:10Z</time>
      </trkpt>
      <trkpt lat="42.0702830" lon="-8.8930270">
        <ele>25.3</ele>
        <time>2021-05-19T10:17:11Z</time>
      </trkpt>
      <trkpt lat="42.0702880" lon="-8.8930270">
        <ele>25.3</ele>
        <time>2021-05-19T10:17:12Z</time>
      </trkpt>
      <trkpt lat="42.0702990" lon="-8.8930160">
        <ele>25.4</ele>
        <time>2021-05-19T10:17:13Z</time>
      </trkpt>
      <trkpt lat="42.0703070" lon="-8.8930090">
        <ele>25.4</ele>
        <time>2021-05-19T10:17:14Z</time>
      </trkpt>
      <trkpt lat="42.0703290" lon="-8.8929910">
        <ele>25.4</ele>
        <time>2021-05-19T10:17:15Z</time>
      </trkpt>
      <trkpt lat="42.0703370" lon="-8.8929840">
        <ele>25.4</ele>
        <time>2021-05-19T10:17:16Z</time>
      </trkpt>
      <trkpt lat="42.0703450" lon="-8.8929760">
        <ele>25.4</ele>
        <time>2021-05-19T10:17:17Z</time>
      </trkpt>
      <trkpt lat="42.0703560" lon="-8.8929610">
        <ele>25.5</ele>
        <time>2021-05-19T10:17:18Z</time>
      </trkpt>
      <trkpt lat="42.0703610" lon="-8.8929520">
        <ele>25.5</ele>
        <time>2021-05-19T10:17:19Z</time>
      </trkpt>
      <trkpt lat="42.0703680" lon="-8.8929410">
        <ele>25.5</ele>
        <time>2021-05-19T10:17:20Z</time>
      </trkpt>
      <trkpt lat="42.0703760" lon="-8.8929180">
        <ele>25.5</ele>
        <time>2021-05-19T10:17:21Z</time>
      </trkpt>
      <trkpt lat="42.0703820" lon="-8.8929080">
        <ele>25.5</ele>
        <time>2021-05-19T10:17:22Z</time>
      </trkpt>
      <trkpt lat="42.0703870" lon="-8.8928980">
        <ele>25.6</ele>
        <time>2021-05-19T10:17:23Z</time>
      </trkpt>
      <trkpt lat="42.0703980" lon="-8.8928770">
        <ele>25.6</ele>
        <time>2021-05-19T10:17:24Z</time>
      </trkpt>
      <trkpt lat="42.0704080" lon="-8.8928680">
        <ele>25.6</ele>
        <time>2021-05-19T10:17:25Z</time>
      </trkpt>
      <trkpt lat="42.0704170" lon="-8.8928600">
        <ele>25.6</ele>
        <time>2021-05-19T10:17:26Z</time>
      </trkpt>
      <trkpt lat="42.0704190" lon="-8.8928580">
        <ele>25.6</ele>
        <time>2021-05-19T10:17:27Z</time>
      </trkpt>
      <trkpt lat="42.0704370" lon="-8.8928460">
        <ele>25.7</ele>
        <time>2021-05-19T10:17:28Z</time>
      </trkpt>
      <trkpt lat="42.0704470" lon="-8.8928440">
        <ele>25.7</ele>
        <time>2021-05-19T10:17:29Z</time>
      </trkpt>
      <trkpt lat="42.0704550" lon="-8.8928390">
        <ele>25.7</ele>
        <time>2021-05-19T10:17:30Z</time>
      </trkpt>
      <trkpt lat="42.0704650" lon="-8.8928240">
        <ele>25.7</ele>
        <time>2021-05-19T10:17:31Z</time>
      </trkpt>
      <trkpt lat="42.0704750" lon="-8.8928130">
        <ele>25.7</ele>
        <time>2021-05-19T10:17:32Z</time>
      </trkpt>
      <trkpt lat="42.0704860" lon="-8.8928030">
        <ele>25.8</ele>
        <time>2021-05-19T10:17:33Z</time>
      </trkpt>
      <trkpt lat="42.0704890" lon="-8.8927950">
        <ele>25.8</ele>
        <time>2021-05-19T10:17:34Z</time>
      </trkpt>
      <trkpt lat="42.0704980" lon="-8.8927840">
        <ele>25.8</ele>
        <time>2021-05-19T10:17:35Z</time>
      </trkpt>
      <trkpt lat="42.0705070" lon="-8.8927710">
        <ele>25.9</ele>
        <time>2021-05-19T10:17:36Z</time>
      </trkpt>
      <trkpt lat="42.0705180" lon="-8.8927570">
        <ele>25.9</ele>
        <time>2021-05-19T10:17:37Z</time>
      </trkpt>
      <trkpt lat="42.0705260" lon="-8.8927460">
        <ele>25.9</ele>
        <time>2021-05-19T10:17:38Z</time>
      </trkpt>
      <trkpt lat="42.0705330" lon="-8.8927390">
        <ele>26.0</ele>
        <time>2021-05-19T10:17:39Z</time>
      </trkpt>
      <trkpt lat="42.0705490" lon="-8.8927330">
        <ele>26.0</ele>
        <time>2021-05-19T10:17:40Z</time>
      </trkpt>
      <trkpt lat="42.0705660" lon="-8.8927230">
        <ele>26.0</ele>
        <time>2021-05-19T10:17:41Z</time>
      </trkpt>
      <trkpt lat="42.0705730" lon="-8.8927170">
        <ele>26.1</ele>
        <time>2021-05-19T10:17:42Z</time>
      </trkpt>
      <trkpt lat="42.0705810" lon="-8.8927120">
        <ele>26.1</ele>
        <time>2021-05-19T10:17:43Z</time>
      </trkpt>
      <trkpt lat="42.0705940" lon="-8.8927070">
        <ele>26.1</ele>
        <time>2021-05-19T10:17:44Z</time>
      </trkpt>
      <trkpt lat="42.0706070" lon="-8.8927040">
        <ele>26.1</ele>
        <time>2021-05-19T10:17:45Z</time>
      </trkpt>
      <trkpt lat="42.0706140" lon="-8.8927030">
        <ele>26.1</ele>
        <time>2021-05-19T10:17:46Z</time>
      </trkpt>
      <trkpt lat="42.0706380" lon="-8.8926970">
        <ele>26.2</ele>
        <time>2021-05-19T10:17:47Z</time>
      </trkpt>
      <trkpt lat="42.0706460" lon="-8.8926940">
        <ele>26.2</ele>
        <time>2021-05-19T10:17:48Z</time>
      </trkpt>
      <trkpt lat="42.0706630" lon="-8.8926910">
        <ele>26.2</ele>
        <time>2021-05-19T10:17:49Z</time>
      </trkpt>
      <trkpt lat="42.0706770" lon="-8.8926880">
        <ele>26.2</ele>
        <time>2021-05-19T10:17:50Z</time>
      </trkpt>
      <trkpt lat="42.0706870" lon="-8.8926810">
        <ele>26.2</ele>
        <time>2021-05-19T10:17:51Z</time>
      </trkpt>
      <trkpt lat="42.0706950" lon="-8.8926780">
        <ele>26.2</ele>
        <time>2021-05-19T10:17:52Z</time>
      </trkpt>
      <trkpt lat="42.0707090" lon="-8.8926860">
        <ele>26.2</ele>
        <time>2021-05-19T10:17:53Z</time>
      </trkpt>
      <trkpt lat="42.0707250" lon="-8.8926850">
        <ele>26.2</ele>
        <time>2021-05-19T10:17:54Z</time>
      </trkpt>
      <trkpt lat="42.0707370" lon="-8.8926770">
        <ele>26.2</ele>
        <time>2021-05-19T10:17:55Z</time>
      </trkpt>
      <trkpt lat="42.0707680" lon="-8.8926720">
        <ele>26.2</ele>
        <time>2021-05-19T10:17:56Z</time>
      </trkpt>
      <trkpt lat="42.0707790" lon="-8.8926690">
        <ele>26.2</ele>
        <time>2021-05-19T10:17:57Z</time>
      </trkpt>
      <trkpt lat="42.0707880" lon="-8.8926680">
        <ele>26.3</ele>
        <time>2021-05-19T10:17:58Z</time>
      </trkpt>
      <trkpt lat="42.0707970" lon="-8.8926640">
        <ele>26.3</ele>
        <time>2021-05-19T10:17:59Z</time>
      </trkpt>
      <trkpt lat="42.0708060" lon="-8.8926600">
        <ele>26.3</ele>
        <time>2021-05-19T10:18:00Z</time>
      </trkpt>
      <trkpt lat="42.0708150" lon="-8.8926560">
        <ele>26.3</ele>
        <time>2021-05-19T10:18:01Z</time>
      </trkpt>
      <trkpt lat="42.0708250" lon="-8.8926640">
        <ele>26.3</ele>
        <time>2021-05-19T10:18:02Z</time>
      </trkpt>
      <trkpt lat="42.0708450" lon="-8.8926550">
        <ele>26.3</ele>
        <time>2021-05-19T10:18:03Z</time>
      </trkpt>
      <trkpt lat="42.0708690" lon="-8.8926510">
        <ele>26.3</ele>
        <time>2021-05-19T10:18:04Z</time>
      </trkpt>
      <trkpt lat="42.0708780" lon="-8.8926490">
        <ele>26.3</ele>
        <time>2021-05-19T10:18:05Z</time>
      </trkpt>
      <trkpt lat="42.0708870" lon="-8.8926480">
        <ele>26.3</ele>
        <time>2021-05-19T10:18:06Z</time>
      </trkpt>
      <trkpt lat="42.0709050" lon="-8.8926390">
        <ele>26.3</ele>
        <time>2021-05-19T10:18:07Z</time>
      </trkpt>
      <trkpt lat="42.0709140" lon="-8.8926340">
        <ele>26.3</ele>
        <time>2021-05-19T10:18:08Z</time>
      </trkpt>
      <trkpt lat="42.0709220" lon="-8.8926300">
        <ele>26.3</ele>
        <time>2021-05-19T10:18:09Z</time>
      </trkpt>
      <trkpt lat="42.0709440" lon="-8.8926240">
        <ele>26.3</ele>
        <time>2021-05-19T10:18:10Z</time>
      </trkpt>
      <trkpt lat="42.0709510" lon="-8.8926230">
        <ele>26.3</ele>
        <time>2021-05-19T10:18:11Z</time>
      </trkpt>
      <trkpt lat="42.0709590" lon="-8.8926220">
        <ele>26.3</ele>
        <time>2021-05-19T10:18:12Z</time>
      </trkpt>
      <trkpt lat="42.0709810" lon="-8.8926110">
        <ele>26.3</ele>
        <time>2021-05-19T10:18:13Z</time>
      </trkpt>
      <trkpt lat="42.0709890" lon="-8.8926060">
        <ele>26.3</ele>
        <time>2021-05-19T10:18:14Z</time>
      </trkpt>
      <trkpt lat="42.0709980" lon="-8.8926020">
        <ele>26.4</ele>
        <time>2021-05-19T10:18:15Z</time>
      </trkpt>
      <trkpt lat="42.0710130" lon="-8.8925990">
        <ele>26.4</ele>
        <time>2021-05-19T10:18:16Z</time>
      </trkpt>
      <trkpt lat="42.0710260" lon="-8.8925990">
        <ele>26.4</ele>
        <time>2021-05-19T10:18:17Z</time>
      </trkpt>
      <trkpt lat="42.0710350" lon="-8.8925960">
        <ele>26.4</ele>
        <time>2021-05-19T10:18:18Z</time>
      </trkpt>
      <trkpt lat="42.0710470" lon="-8.8925930">
        <ele>26.4</ele>
        <time>2021-05-19T10:18:19Z</time>
      </trkpt>
      <trkpt lat="42.0710560" lon="-8.8925900">
        <ele>26.4</ele>
        <time>2021-05-19T10:18:20Z</time>
      </trkpt>
      <trkpt lat="42.0710700" lon="-8.8925920">
        <ele>26.4</ele>
        <time>2021-05-19T10:18:21Z</time>
      </trkpt>
      <trkpt lat="42.0710830" lon="-8.8925890">
        <ele>26.4</ele>
        <time>2021-05-19T10:18:22Z</time>
      </trkpt>
      <trkpt lat="42.0711060" lon="-8.8925850">
        <ele>26.4</ele>
        <time>2021-05-19T10:18:23Z</time>
      </trkpt>
      <trkpt lat="42.0711150" lon="-8.8925800">
        <ele>26.4</ele>
        <time>2021-05-19T10:18:24Z</time>
      </trkpt>
      <trkpt lat="42.0711230" lon="-8.8925760">
        <ele>26.5</ele>
        <time>2021-05-19T10:18:25Z</time>
      </trkpt>
      <trkpt lat="42.0711410" lon="-8.8925730">
        <ele>26.5</ele>
        <time>2021-05-19T10:18:26Z</time>
      </trkpt>
      <trkpt lat="42.0711510" lon="-8.8925740">
        <ele>26.5</ele>
        <time>2021-05-19T10:18:27Z</time>
      </trkpt>
      <trkpt lat="42.0711600" lon="-8.8925740">
        <ele>26.5</ele>
        <time>2021-05-19T10:18:28Z</time>
      </trkpt>
      <trkpt lat="42.0711760" lon="-8.8925650">
        <ele>26.5</ele>
        <time>2021-05-19T10:18:29Z</time>
      </trkpt>
      <trkpt lat="42.0711880" lon="-8.8925520">
        <ele>26.5</ele>
        <time>2021-05-19T10:18:30Z</time>
      </trkpt>
      <trkpt lat="42.0712010" lon="-8.8925530">
        <ele>26.5</ele>
        <time>2021-05-19T10:18:31Z</time>
      </trkpt>
      <trkpt lat="42.0712160" lon="-8.8925550">
        <ele>26.5</ele>
        <time>2021-05-19T10:18:32Z</time>
      </trkpt>
      <trkpt lat="42.0712360" lon="-8.8925480">
        <ele>26.6</ele>
        <time>2021-05-19T10:18:33Z</time>
      </trkpt>
      <trkpt lat="42.0712440" lon="-8.8925460">
        <ele>26.6</ele>
        <time>2021-05-19T10:18:34Z</time>
      </trkpt>
      <trkpt lat="42.0712520" lon="-8.8925450">
        <ele>26.6</ele>
        <time>2021-05-19T10:18:35Z</time>
      </trkpt>
      <trkpt lat="42.0712720" lon="-8.8925400">
        <ele>26.6</ele>
        <time>2021-05-19T10:18:36Z</time>
      </trkpt>
      <trkpt lat="42.0712810" lon="-8.8925370">
        <ele>26.6</ele>
        <time>2021-05-19T10:18:37Z</time>
      </trkpt>
      <trkpt lat="42.0712910" lon="-8.8925340">
        <ele>26.6</ele>
        <time>2021-05-19T10:18:38Z</time>
      </trkpt>
      <trkpt lat="42.0713010" lon="-8.8925290">
        <ele>26.6</ele>
        <time>2021-05-19T10:18:39Z</time>
      </trkpt>
      <trkpt lat="42.0713130" lon="-8.8925210">
        <ele>26.7</ele>
        <time>2021-05-19T10:18:40Z</time>
      </trkpt>
      <trkpt lat="42.0713240" lon="-8.8925170">
        <ele>26.7</ele>
        <time>2021-05-19T10:18:41Z</time>
      </trkpt>
      <trkpt lat="42.0713330" lon="-8.8925100">
        <ele>26.7</ele>
        <time>2021-05-19T10:18:42Z</time>
      </trkpt>
      <trkpt lat="42.0713470" lon="-8.8925080">
        <ele>26.7</ele>
        <time>2021-05-19T10:18:43Z</time>
      </trkpt>
      <trkpt lat="42.0713580" lon="-8.8925090">
        <ele>26.7</ele>
        <time>2021-05-19T10:18:44Z</time>
      </trkpt>
      <trkpt lat="42.0713790" lon="-8.8925030">
        <ele>26.7</ele>
        <time>2021-05-19T10:18:45Z</time>
      </trkpt>
      <trkpt lat="42.0713860" lon="-8.8925040">
        <ele>26.7</ele>
        <time>2021-05-19T10:18:46Z</time>
      </trkpt>
      <trkpt lat="42.0713940" lon="-8.8925050">
        <ele>26.7</ele>
        <time>2021-05-19T10:18:47Z</time>
      </trkpt>
      <trkpt lat="42.0714160" lon="-8.8925010">
        <ele>26.8</ele>
        <time>2021-05-19T10:18:48Z</time>
      </trkpt>
      <trkpt lat="42.0714250" lon="-8.8924990">
        <ele>26.8</ele>
        <time>2021-05-19T10:18:49Z</time>
      </trkpt>
      <trkpt lat="42.0714350" lon="-8.8924960">
        <ele>26.8</ele>
        <time>2021-05-19T10:18:50Z</time>
      </trkpt>
      <trkpt lat="42.0714510" lon="-8.8924930">
        <ele>26.8</ele>
        <time>2021-05-19T10:18:51Z</time>
      </trkpt>
      <trkpt lat="42.0714640" lon="-8.8924950">
        <ele>26.8</ele>
        <time>2021-05-19T10:18:52Z</time>
      </trkpt>
      <trkpt lat="42.0714780" lon="-8.8924930">
        <ele>26.8</ele>
        <time>2021-05-19T10:18:53Z</time>
      </trkpt>
      <trkpt lat="42.0714910" lon="-8.8924830">
        <ele>26.8</ele>
        <time>2021-05-19T10:18:54Z</time>
      </trkpt>
      <trkpt lat="42.0715100" lon="-8.8924780">
        <ele>26.9</ele>
        <time>2021-05-19T10:18:55Z</time>
      </trkpt>
      <trkpt lat="42.0715170" lon="-8.8924710">
        <ele>26.9</ele>
        <time>2021-05-19T10:18:56Z</time>
      </trkpt>
      <trkpt lat="42.0715240" lon="-8.8924630">
        <ele>26.9</ele>
        <time>2021-05-19T10:18:57Z</time>
      </trkpt>
      <trkpt lat="42.0715370" lon="-8.8924610">
        <ele>26.9</ele>
        <time>2021-05-19T10:18:58Z</time>
      </trkpt>
      <trkpt lat="42.0715540" lon="-8.8924610">
        <ele>26.9</ele>
        <time>2021-05-19T10:18:59Z</time>
      </trkpt>
      <trkpt lat="42.0715700" lon="-8.8924580">
        <ele>26.9</ele>
        <time>2021-05-19T10:19:00Z</time>
      </trkpt>
      <trkpt lat="42.0715860" lon="-8.8924560">
        <ele>27.0</ele>
        <time>2021-05-19T10:19:01Z</time>
      </trkpt>
      <trkpt lat="42.0715880" lon="-8.8924620">
        <ele>27.0</ele>
        <time>2021-05-19T10:19:02Z</time>
      </trkpt>
      <trkpt lat="42.0716050" lon="-8.8924550">
        <ele>27.0</ele>
        <time>2021-05-19T10:19:03Z</time>
      </trkpt>
      <trkpt lat="42.0716160" lon="-8.8924570">
        <ele>27.0</ele>
        <time>2021-05-19T10:19:04Z</time>
      </trkpt>
      <trkpt lat="42.0716290" lon="-8.8924550">
        <ele>27.0</ele>
        <time>2021-05-19T10:19:05Z</time>
      </trkpt>
      <trkpt lat="42.0716450" lon="-8.8924530">
        <ele>27.0</ele>
        <time>2021-05-19T10:19:06Z</time>
      </trkpt>
      <trkpt lat="42.0716520" lon="-8.8924530">
        <ele>27.0</ele>
        <time>2021-05-19T10:19:07Z</time>
      </trkpt>
      <trkpt lat="42.0716640" lon="-8.8924550">
        <ele>27.1</ele>
        <time>2021-05-19T10:19:08Z</time>
      </trkpt>
      <trkpt lat="42.0716750" lon="-8.8924490">
        <ele>27.1</ele>
        <time>2021-05-19T10:19:09Z</time>
      </trkpt>
      <trkpt lat="42.0716820" lon="-8.8924510">
        <ele>27.1</ele>
        <time>2021-05-19T10:19:10Z</time>
      </trkpt>
      <trkpt lat="42.0716940" lon="-8.8924530">
        <ele>27.1</ele>
        <time>2021-05-19T10:19:11Z</time>
      </trkpt>
      <trkpt lat="42.0717050" lon="-8.8924480">
        <ele>27.1</ele>
        <time>2021-05-19T10:19:12Z</time>
      </trkpt>
      <trkpt lat="42.0717200" lon="-8.8924480">
        <ele>27.1</ele>
        <time>2021-05-19T10:19:13Z</time>
      </trkpt>
      <trkpt lat="42.0717320" lon="-8.8924340">
        <ele>27.1</ele>
        <time>2021-05-19T10:19:14Z</time>
      </trkpt>
      <trkpt lat="42.0717410" lon="-8.8924320">
        <ele>27.1</ele>
        <time>2021-05-19T10:19:15Z</time>
      </trkpt>
      <trkpt lat="42.0717560" lon="-8.8924310">
        <ele>27.2</ele>
        <time>2021-05-19T10:19:16Z</time>
      </trkpt>
      <trkpt lat="42.0717640" lon="-8.8924270">
        <ele>27.2</ele>
        <time>2021-05-19T10:19:17Z</time>
      </trkpt>
      <trkpt lat="42.0717760" lon="-8.8924310">
        <ele>27.2</ele>
        <time>2021-05-19T10:19:18Z</time>
      </trkpt>
      <trkpt lat="42.0717860" lon="-8.8924230">
        <ele>27.2</ele>
        <time>2021-05-19T10:19:19Z</time>
      </trkpt>
      <trkpt lat="42.0717980" lon="-8.8924240">
        <ele>27.2</ele>
        <time>2021-05-19T10:19:20Z</time>
      </trkpt>
      <trkpt lat="42.0718270" lon="-8.8924130">
        <ele>27.2</ele>
        <time>2021-05-19T10:19:21Z</time>
      </trkpt>
      <trkpt lat="42.0718380" lon="-8.8924090">
        <ele>27.2</ele>
        <time>2021-05-19T10:19:22Z</time>
      </trkpt>
      <trkpt lat="42.0718670" lon="-8.8924180">
        <ele>27.2</ele>
        <time>2021-05-19T10:19:23Z</time>
      </trkpt>
      <trkpt lat="42.0718760" lon="-8.8924210">
        <ele>27.2</ele>
        <time>2021-05-19T10:19:24Z</time>
      </trkpt>
      <trkpt lat="42.0718940" lon="-8.8924310">
        <ele>27.2</ele>
        <time>2021-05-19T10:19:25Z</time>
      </trkpt>
      <trkpt lat="42.0719110" lon="-8.8924260">
        <ele>27.2</ele>
        <time>2021-05-19T10:19:26Z</time>
      </trkpt>
      <trkpt lat="42.0719280" lon="-8.8924190">
        <ele>27.2</ele>
        <time>2021-05-19T10:19:27Z</time>
      </trkpt>
      <trkpt lat="42.0719450" lon="-8.8924290">
        <ele>27.2</ele>
        <time>2021-05-19T10:19:28Z</time>
      </trkpt>
      <trkpt lat="42.0719600" lon="-8.8924320">
        <ele>27.2</ele>
        <time>2021-05-19T10:19:29Z</time>
      </trkpt>
      <trkpt lat="42.0719770" lon="-8.8924260">
        <ele>27.2</ele>
        <time>2021-05-19T10:19:30Z</time>
      </trkpt>
      <trkpt lat="42.0719930" lon="-8.8924270">
        <ele>27.2</ele>
        <time>2021-05-19T10:19:31Z</time>
      </trkpt>
      <trkpt lat="42.0720120" lon="-8.8924200">
        <ele>27.2</ele>
        <time>2021-05-19T10:19:32Z</time>
      </trkpt>
      <trkpt lat="42.0720280" lon="-8.8924140">
        <ele>27.2</ele>
        <time>2021-05-19T10:19:33Z</time>
      </trkpt>
      <trkpt lat="42.0720430" lon="-8.8924090">
        <ele>27.2</ele>
        <time>2021-05-19T10:19:34Z</time>
      </trkpt>
      <trkpt lat="42.0720600" lon="-8.8924130">
        <ele>27.2</ele>
        <time>2021-05-19T10:19:35Z</time>
      </trkpt>
      <trkpt lat="42.0720770" lon="-8.8924190">
        <ele>27.2</ele>
        <time>2021-05-19T10:19:36Z</time>
      </trkpt>
      <trkpt lat="42.0720930" lon="-8.8924190">
        <ele>27.2</ele>
        <time>2021-05-19T10:19:37Z</time>
      </trkpt>
      <trkpt lat="42.0721080" lon="-8.8924270">
        <ele>27.2</ele>
        <time>2021-05-19T10:19:38Z</time>
      </trkpt>
      <trkpt lat="42.0721300" lon="-8.8924280">
        <ele>27.1</ele>
        <time>2021-05-19T10:19:39Z</time>
      </trkpt>
      <trkpt lat="42.0721380" lon="-8.8924290">
        <ele>27.1</ele>
        <time>2021-05-19T10:19:40Z</time>
      </trkpt>
      <trkpt lat="42.0721460" lon="-8.8924290">
        <ele>27.1</ele>
        <time>2021-05-19T10:19:41Z</time>
      </trkpt>
      <trkpt lat="42.0721530" lon="-8.8924340">
        <ele>27.1</ele>
        <time>2021-05-19T10:19:42Z</time>
      </trkpt>
      <trkpt lat="42.0721620" lon="-8.8924410">
        <ele>27.1</ele>
        <time>2021-05-19T10:19:43Z</time>
      </trkpt>
      <trkpt lat="42.0721690" lon="-8.8924460">
        <ele>27.1</ele>
        <time>2021-05-19T10:19:44Z</time>
      </trkpt>
      <trkpt lat="42.0721790" lon="-8.8924480">
        <ele>27.1</ele>
        <time>2021-05-19T10:19:45Z</time>
      </trkpt>
      <trkpt lat="42.0721840" lon="-8.8924480">
        <ele>27.1</ele>
        <time>2021-05-19T10:19:46Z</time>
      </trkpt>
      <trkpt lat="42.0721920" lon="-8.8924500">
        <ele>27.1</ele>
        <time>2021-05-19T10:19:47Z</time>
      </trkpt>
      <trkpt lat="42.0722090" lon="-8.8924520">
        <ele>27.1</ele>
        <time>2021-05-19T10:19:48Z</time>
      </trkpt>
      <trkpt lat="42.0722240" lon="-8.8924520">
        <ele>27.1</ele>
        <time>2021-05-19T10:19:49Z</time>
      </trkpt>
      <trkpt lat="42.0722350" lon="-8.8924500">
        <ele>27.1</ele>
        <time>2021-05-19T10:19:50Z</time>
      </trkpt>
      <trkpt lat="42.0722430" lon="-8.8924590">
        <ele>27.1</ele>
        <time>2021-05-19T10:19:51Z</time>
      </trkpt>
      <trkpt lat="42.0722530" lon="-8.8924580">
        <ele>27.1</ele>
        <time>2021-05-19T10:19:52Z</time>
      </trkpt>
      <trkpt lat="42.0722600" lon="-8.8924590">
        <ele>27.1</ele>
        <time>2021-05-19T10:19:53Z</time>
      </trkpt>
      <trkpt lat="42.0722730" lon="-8.8924600">
        <ele>27.1</ele>
        <time>2021-05-19T10:19:54Z</time>
      </trkpt>
      <trkpt lat="42.0722850" lon="-8.8924650">
        <ele>27.1</ele>
        <time>2021-05-19T10:19:55Z</time>
      </trkpt>
      <trkpt lat="42.0722950" lon="-8.8924620">
        <ele>27.1</ele>
        <time>2021-05-19T10:19:56Z</time>
      </trkpt>
      <trkpt lat="42.0723080" lon="-8.8924620">
        <ele>27.1</ele>
        <time>2021-05-19T10:19:57Z</time>
      </trkpt>
      <trkpt lat="42.0723290" lon="-8.8924730">
        <ele>27.0</ele>
        <time>2021-05-19T10:19:58Z</time>
      </trkpt>
      <trkpt lat="42.0723390" lon="-8.8924750">
        <ele>27.0</ele>
        <time>2021-05-19T10:19:59Z</time>
      </trkpt>
      <trkpt lat="42.0723480" lon="-8.8924780">
        <ele>27.0</ele>
        <time>2021-05-19T10:20:00Z</time>
      </trkpt>
      <trkpt lat="42.0723630" lon="-8.8924760">
        <ele>27.0</ele>
        <time>2021-05-19T10:20:01Z</time>
      </trkpt>
      <trkpt lat="42.0723750" lon="-8.8924810">
        <ele>27.0</ele>
        <time>2021-05-19T10:20:02Z</time>
      </trkpt>
      <trkpt lat="42.0723840" lon="-8.8924860">
        <ele>27.0</ele>
        <time>2021-05-19T10:20:03Z</time>
      </trkpt>
      <trkpt lat="42.0723990" lon="-8.8924880">
        <ele>27.0</ele>
        <time>2021-05-19T10:20:04Z</time>
      </trkpt>
      <trkpt lat="42.0724090" lon="-8.8924850">
        <ele>27.0</ele>
        <time>2021-05-19T10:20:05Z</time>
      </trkpt>
      <trkpt lat="42.0724270" lon="-8.8924860">
        <ele>27.0</ele>
        <time>2021-05-19T10:20:06Z</time>
      </trkpt>
      <trkpt lat="42.0724370" lon="-8.8924840">
        <ele>27.0</ele>
        <time>2021-05-19T10:20:07Z</time>
      </trkpt>
      <trkpt lat="42.0724460" lon="-8.8924820">
        <ele>27.0</ele>
        <time>2021-05-19T10:20:08Z</time>
      </trkpt>
      <trkpt lat="42.0724630" lon="-8.8924850">
        <ele>27.0</ele>
        <time>2021-05-19T10:20:09Z</time>
      </trkpt>
      <trkpt lat="42.0724770" lon="-8.8924860">
        <ele>27.0</ele>
        <time>2021-05-19T10:20:10Z</time>
      </trkpt>
      <trkpt lat="42.0724990" lon="-8.8924910">
        <ele>27.0</ele>
        <time>2021-05-19T10:20:11Z</time>
      </trkpt>
      <trkpt lat="42.0725070" lon="-8.8924930">
        <ele>27.0</ele>
        <time>2021-05-19T10:20:12Z</time>
      </trkpt>
      <trkpt lat="42.0725160" lon="-8.8924960">
        <ele>27.0</ele>
        <time>2021-05-19T10:20:13Z</time>
      </trkpt>
      <trkpt lat="42.0725240" lon="-8.8924930">
        <ele>27.0</ele>
        <time>2021-05-19T10:20:14Z</time>
      </trkpt>
      <trkpt lat="42.0725380" lon="-8.8924890">
        <ele>27.0</ele>
        <time>2021-05-19T10:20:15Z</time>
      </trkpt>
      <trkpt lat="42.0725490" lon="-8.8924890">
        <ele>27.0</ele>
        <time>2021-05-19T10:20:16Z</time>
      </trkpt>
      <trkpt lat="42.0725550" lon="-8.8924880">
        <ele>27.0</ele>
        <time>2021-05-19T10:20:17Z</time>
      </trkpt>
      <trkpt lat="42.0725650" lon="-8.8924840">
        <ele>27.0</ele>
        <time>2021-05-19T10:20:18Z</time>
      </trkpt>
      <trkpt lat="42.0725790" lon="-8.8924890">
        <ele>27.0</ele>
        <time>2021-05-19T10:20:19Z</time>
      </trkpt>
      <trkpt lat="42.0726000" lon="-8.8924900">
        <ele>27.0</ele>
        <time>2021-05-19T10:20:20Z</time>
      </trkpt>
      <trkpt lat="42.0726090" lon="-8.8924910">
        <ele>27.0</ele>
        <time>2021-05-19T10:20:21Z</time>
      </trkpt>
      <trkpt lat="42.0726190" lon="-8.8924930">
        <ele>27.0</ele>
        <time>2021-05-19T10:20:22Z</time>
      </trkpt>
      <trkpt lat="42.0726260" lon="-8.8924920">
        <ele>27.0</ele>
        <time>2021-05-19T10:20:23Z</time>
      </trkpt>
      <trkpt lat="42.0726360" lon="-8.8924960">
        <ele>27.0</ele>
        <time>2021-05-19T10:20:24Z</time>
      </trkpt>
      <trkpt lat="42.0726510" lon="-8.8924930">
        <ele>27.0</ele>
        <time>2021-05-19T10:20:25Z</time>
      </trkpt>
      <trkpt lat="42.0726720" lon="-8.8925000">
        <ele>27.0</ele>
        <time>2021-05-19T10:20:26Z</time>
      </trkpt>
      <trkpt lat="42.0726810" lon="-8.8925000">
        <ele>27.0</ele>
        <time>2021-05-19T10:20:27Z</time>
      </trkpt>
      <trkpt lat="42.0726890" lon="-8.8924990">
        <ele>27.0</ele>
        <time>2021-05-19T10:20:28Z</time>
      </trkpt>
      <trkpt lat="42.0727220" lon="-8.8925140">
        <ele>27.0</ele>
        <time>2021-05-19T10:20:29Z</time>
      </trkpt>
      <trkpt lat="42.0727290" lon="-8.8925170">
        <ele>27.0</ele>
        <time>2021-05-19T10:20:30Z</time>
      </trkpt>
      <trkpt lat="42.0727470" lon="-8.8925160">
        <ele>27.0</ele>
        <time>2021-05-19T10:20:31Z</time>
      </trkpt>
      <trkpt lat="42.0727650" lon="-8.8925140">
        <ele>27.0</ele>
        <time>2021-05-19T10:20:32Z</time>
      </trkpt>
      <trkpt lat="42.0727840" lon="-8.8925110">
        <ele>27.0</ele>
        <time>2021-05-19T10:20:33Z</time>
      </trkpt>
      <trkpt lat="42.0727990" lon="-8.8925110">
        <ele>27.0</ele>
        <time>2021-05-19T10:20:34Z</time>
      </trkpt>
      <trkpt lat="42.0728120" lon="-8.8925090">
        <ele>27.1</ele>
        <time>2021-05-19T10:20:35Z</time>
      </trkpt>
      <trkpt lat="42.0728230" lon="-8.8925100">
        <ele>27.1</ele>
        <time>2021-05-19T10:20:36Z</time>
      </trkpt>
      <trkpt lat="42.0728310" lon="-8.8925150">
        <ele>27.1</ele>
        <time>2021-05-19T10:20:37Z</time>
      </trkpt>
      <trkpt lat="42.0728430" lon="-8.8925140">
        <ele>27.1</ele>
        <time>2021-05-19T10:20:38Z</time>
      </trkpt>
      <trkpt lat="42.0728580" lon="-8.8925200">
        <ele>27.1</ele>
        <time>2021-05-19T10:20:39Z</time>
      </trkpt>
      <trkpt lat="42.0728630" lon="-8.8925200">
        <ele>27.1</ele>
        <time>2021-05-19T10:20:40Z</time>
      </trkpt>
      <trkpt lat="42.0728780" lon="-8.8925180">
        <ele>27.1</ele>
        <time>2021-05-19T10:20:41Z</time>
      </trkpt>
      <trkpt lat="42.0728900" lon="-8.8925230">
        <ele>27.1</ele>
        <time>2021-05-19T10:20:42Z</time>
      </trkpt>
      <trkpt lat="42.0729040" lon="-8.8925240">
        <ele>27.1</ele>
        <time>2021-05-19T10:20:43Z</time>
      </trkpt>
      <trkpt lat="42.0729140" lon="-8.8925280">
        <ele>27.1</ele>
        <time>2021-05-19T10:20:44Z</time>
      </trkpt>
      <trkpt lat="42.0729250" lon="-8.8925300">
        <ele>27.1</ele>
        <time>2021-05-19T10:20:45Z</time>
      </trkpt>
      <trkpt lat="42.0729520" lon="-8.8925350">
        <ele>27.1</ele>
        <time>2021-05-19T10:20:46Z</time>
      </trkpt>
      <trkpt lat="42.0729620" lon="-8.8925360">
        <ele>27.1</ele>
        <time>2021-05-19T10:20:47Z</time>
      </trkpt>
      <trkpt lat="42.0729730" lon="-8.8925370">
        <ele>27.2</ele>
        <time>2021-05-19T10:20:48Z</time>
      </trkpt>
      <trkpt lat="42.0729900" lon="-8.8925320">
        <ele>27.2</ele>
        <time>2021-05-19T10:20:49Z</time>
      </trkpt>
      <trkpt lat="42.0730040" lon="-8.8925410">
        <ele>27.2</ele>
        <time>2021-05-19T10:20:50Z</time>
      </trkpt>
      <trkpt lat="42.0730220" lon="-8.8925330">
        <ele>27.2</ele>
        <time>2021-05-19T10:20:51Z</time>
      </trkpt>
      <trkpt lat="42.0730290" lon="-8.8925340">
        <ele>27.2</ele>
        <time>2021-05-19T10:20:52Z</time>
      </trkpt>
      <trkpt lat="42.0730360" lon="-8.8925360">
        <ele>27.2</ele>
        <time>2021-05-19T10:20:53Z</time>
      </trkpt>
      <trkpt lat="42.0730430" lon="-8.8925380">
        <ele>27.2</ele>
        <time>2021-05-19T10:20:54Z</time>
      </trkpt>
      <trkpt lat="42.0730670" lon="-8.8925410">
        <ele>27.2</ele>
        <time>2021-05-19T10:20:55Z</time>
      </trkpt>
      <trkpt lat="42.0730740" lon="-8.8925400">
        <ele>27.2</ele>
        <time>2021-05-19T10:20:56Z</time>
      </trkpt>
      <trkpt lat="42.0730810" lon="-8.8925380">
        <ele>27.2</ele>
        <time>2021-05-19T10:20:57Z</time>
      </trkpt>
      <trkpt lat="42.0731040" lon="-8.8925390">
        <ele>27.2</ele>
        <time>2021-05-19T10:20:58Z</time>
      </trkpt>
      <trkpt lat="42.0731110" lon="-8.8925410">
        <ele>27.2</ele>
        <time>2021-05-19T10:20:59Z</time>
      </trkpt>
      <trkpt lat="42.0731180" lon="-8.8925420">
        <ele>27.2</ele>
        <time>2021-05-19T10:21:00Z</time>
      </trkpt>
      <trkpt lat="42.0731420" lon="-8.8925420">
        <ele>27.2</ele>
        <time>2021-05-19T10:21:01Z</time>
      </trkpt>
      <trkpt lat="42.0731530" lon="-8.8925420">
        <ele>27.2</ele>
        <time>2021-05-19T10:21:02Z</time>
      </trkpt>
      <trkpt lat="42.0731630" lon="-8.8925430">
        <ele>27.2</ele>
        <time>2021-05-19T10:21:03Z</time>
      </trkpt>
      <trkpt lat="42.0731720" lon="-8.8925450">
        <ele>27.2</ele>
        <time>2021-05-19T10:21:04Z</time>
      </trkpt>
      <trkpt lat="42.0731840" lon="-8.8925540">
        <ele>27.3</ele>
        <time>2021-05-19T10:21:05Z</time>
      </trkpt>
      <trkpt lat="42.0731940" lon="-8.8925500">
        <ele>27.3</ele>
        <time>2021-05-19T10:21:06Z</time>
      </trkpt>
      <trkpt lat="42.0732080" lon="-8.8925560">
        <ele>27.3</ele>
        <time>2021-05-19T10:21:07Z</time>
      </trkpt>
      <trkpt lat="42.0732200" lon="-8.8925590">
        <ele>27.3</ele>
        <time>2021-05-19T10:21:08Z</time>
      </trkpt>
      <trkpt lat="42.0732500" lon="-8.8925590">
        <ele>27.3</ele>
        <time>2021-05-19T10:21:09Z</time>
      </trkpt>
      <trkpt lat="42.0732590" lon="-8.8925580">
        <ele>27.3</ele>
        <time>2021-05-19T10:21:10Z</time>
      </trkpt>
      <trkpt lat="42.0732670" lon="-8.8925570">
        <ele>27.3</ele>
        <time>2021-05-19T10:21:11Z</time>
      </trkpt>
      <trkpt lat="42.0732790" lon="-8.8925570">
        <ele>27.3</ele>
        <time>2021-05-19T10:21:12Z</time>
      </trkpt>
      <trkpt lat="42.0732910" lon="-8.8925590">
        <ele>27.3</ele>
        <time>2021-05-19T10:21:13Z</time>
      </trkpt>
      <trkpt lat="42.0732950" lon="-8.8925580">
        <ele>27.3</ele>
        <time>2021-05-19T10:21:14Z</time>
      </trkpt>
      <trkpt lat="42.0733010" lon="-8.8925660">
        <ele>27.3</ele>
        <time>2021-05-19T10:21:15Z</time>
      </trkpt>
      <trkpt lat="42.0733240" lon="-8.8925660">
        <ele>27.3</ele>
        <time>2021-05-19T10:21:16Z</time>
      </trkpt>
      <trkpt lat="42.0733490" lon="-8.8925680">
        <ele>27.3</ele>
        <time>2021-05-19T10:21:17Z</time>
      </trkpt>
      <trkpt lat="42.0733580" lon="-8.8925690">
        <ele>27.3</ele>
        <time>2021-05-19T10:21:18Z</time>
      </trkpt>
      <trkpt lat="42.0733670" lon="-8.8925690">
        <ele>27.4</ele>
        <time>2021-05-19T10:21:19Z</time>
      </trkpt>
      <trkpt lat="42.0733750" lon="-8.8925700">
        <ele>27.4</ele>
        <time>2021-05-19T10:21:20Z</time>
      </trkpt>
      <trkpt lat="42.0733960" lon="-8.8925640">
        <ele>27.4</ele>
        <time>2021-05-19T10:21:21Z</time>
      </trkpt>
      <trkpt lat="42.0734220" lon="-8.8925680">
        <ele>27.4</ele>
        <time>2021-05-19T10:21:22Z</time>
      </trkpt>
      <trkpt lat="42.0734300" lon="-8.8925670">
        <ele>27.4</ele>
        <time>2021-05-19T10:21:23Z</time>
      </trkpt>
      <trkpt lat="42.0734370" lon="-8.8925670">
        <ele>27.4</ele>
        <time>2021-05-19T10:21:24Z</time>
      </trkpt>
      <trkpt lat="42.0734580" lon="-8.8925640">
        <ele>27.4</ele>
        <time>2021-05-19T10:21:25Z</time>
      </trkpt>
      <trkpt lat="42.0734670" lon="-8.8925630">
        <ele>27.4</ele>
        <time>2021-05-19T10:21:26Z</time>
      </trkpt>
      <trkpt lat="42.0734760" lon="-8.8925620">
        <ele>27.4</ele>
        <time>2021-05-19T10:21:27Z</time>
      </trkpt>
      <trkpt lat="42.0734900" lon="-8.8925660">
        <ele>27.5</ele>
        <time>2021-05-19T10:21:28Z</time>
      </trkpt>
      <trkpt lat="42.0735030" lon="-8.8925650">
        <ele>27.5</ele>
        <time>2021-05-19T10:21:29Z</time>
      </trkpt>
      <trkpt lat="42.0735290" lon="-8.8925620">
        <ele>27.5</ele>
        <time>2021-05-19T10:21:30Z</time>
      </trkpt>
      <trkpt lat="42.0735370" lon="-8.8925650">
        <ele>27.5</ele>
        <time>2021-05-19T10:21:31Z</time>
      </trkpt>
      <trkpt lat="42.0735460" lon="-8.8925670">
        <ele>27.6</ele>
        <time>2021-05-19T10:21:32Z</time>
      </trkpt>
      <trkpt lat="42.0735570" lon="-8.8925660">
        <ele>27.6</ele>
        <time>2021-05-19T10:21:33Z</time>
      </trkpt>
      <trkpt lat="42.0735610" lon="-8.8925690">
        <ele>27.6</ele>
        <time>2021-05-19T10:21:34Z</time>
      </trkpt>
      <trkpt lat="42.0735780" lon="-8.8925740">
        <ele>27.6</ele>
        <time>2021-05-19T10:21:35Z</time>
      </trkpt>
      <trkpt lat="42.0735890" lon="-8.8925730">
        <ele>27.6</ele>
        <time>2021-05-19T10:21:36Z</time>
      </trkpt>
      <trkpt lat="42.0736110" lon="-8.8925710">
        <ele>27.7</ele>
        <time>2021-05-19T10:21:37Z</time>
      </trkpt>
      <trkpt lat="42.0736170" lon="-8.8925690">
        <ele>27.7</ele>
        <time>2021-05-19T10:21:38Z</time>
      </trkpt>
      <trkpt lat="42.0736260" lon="-8.8925750">
        <ele>27.7</ele>
        <time>2021-05-19T10:21:39Z</time>
      </trkpt>
      <trkpt lat="42.0736460" lon="-8.8925660">
        <ele>27.7</ele>
        <time>2021-05-19T10:21:40Z</time>
      </trkpt>
      <trkpt lat="42.0736540" lon="-8.8925660">
        <ele>27.8</ele>
        <time>2021-05-19T10:21:41Z</time>
      </trkpt>
      <trkpt lat="42.0736700" lon="-8.8925690">
        <ele>27.8</ele>
        <time>2021-05-19T10:21:42Z</time>
      </trkpt>
      <trkpt lat="42.0736760" lon="-8.8925690">
        <ele>27.8</ele>
        <time>2021-05-19T10:21:43Z</time>
      </trkpt>
      <trkpt lat="42.0737080" lon="-8.8925700">
        <ele>27.9</ele>
        <time>2021-05-19T10:21:44Z</time>
      </trkpt>
      <trkpt lat="42.0737150" lon="-8.8925690">
        <ele>27.9</ele>
        <time>2021-05-19T10:21:45Z</time>
      </trkpt>
      <trkpt lat="42.0737240" lon="-8.8925650">
        <ele>27.9</ele>
        <time>2021-05-19T10:21:46Z</time>
      </trkpt>
      <trkpt lat="42.0737440" lon="-8.8925670">
        <ele>27.9</ele>
        <time>2021-05-19T10:21:47Z</time>
      </trkpt>
      <trkpt lat="42.0737450" lon="-8.8925760">
        <ele>27.9</ele>
        <time>2021-05-19T10:21:48Z</time>
      </trkpt>
      <trkpt lat="42.0737570" lon="-8.8925770">
        <ele>28.0</ele>
        <time>2021-05-19T10:21:49Z</time>
      </trkpt>
      <trkpt lat="42.0737660" lon="-8.8925800">
        <ele>28.0</ele>
        <time>2021-05-19T10:21:50Z</time>
      </trkpt>
      <trkpt lat="42.0737770" lon="-8.8925820">
        <ele>28.0</ele>
        <time>2021-05-19T10:21:51Z</time>
      </trkpt>
      <trkpt lat="42.0737970" lon="-8.8925900">
        <ele>28.1</ele>
        <time>2021-05-19T10:21:52Z</time>
      </trkpt>
      <trkpt lat="42.0738060" lon="-8.8925950">
        <ele>28.1</ele>
        <time>2021-05-19T10:21:53Z</time>
      </trkpt>
      <trkpt lat="42.0738160" lon="-8.8925990">
        <ele>28.1</ele>
        <time>2021-05-19T10:21:54Z</time>
      </trkpt>
      <trkpt lat="42.0738280" lon="-8.8925940">
        <ele>28.1</ele>
        <time>2021-05-19T10:21:55Z</time>
      </trkpt>
      <trkpt lat="42.0738450" lon="-8.8925950">
        <ele>28.2</ele>
        <time>2021-05-19T10:21:56Z</time>
      </trkpt>
      <trkpt lat="42.0738550" lon="-8.8925930">
        <ele>28.2</ele>
        <time>2021-05-19T10:21:57Z</time>
      </trkpt>
      <trkpt lat="42.0738570" lon="-8.8925980">
        <ele>28.2</ele>
        <time>2021-05-19T10:21:58Z</time>
      </trkpt>
      <trkpt lat="42.0738730" lon="-8.8925990">
        <ele>28.2</ele>
        <time>2021-05-19T10:21:59Z</time>
      </trkpt>
      <trkpt lat="42.0738990" lon="-8.8926000">
        <ele>28.3</ele>
        <time>2021-05-19T10:22:00Z</time>
      </trkpt>
      <trkpt lat="42.0739080" lon="-8.8926010">
        <ele>28.3</ele>
        <time>2021-05-19T10:22:01Z</time>
      </trkpt>
      <trkpt lat="42.0739180" lon="-8.8926020">
        <ele>28.3</ele>
        <time>2021-05-19T10:22:02Z</time>
      </trkpt>
      <trkpt lat="42.0739320" lon="-8.8926020">
        <ele>28.4</ele>
        <time>2021-05-19T10:22:03Z</time>
      </trkpt>
      <trkpt lat="42.0739410" lon="-8.8926050">
        <ele>28.4</ele>
        <time>2021-05-19T10:22:04Z</time>
      </trkpt>
      <trkpt lat="42.0739470" lon="-8.8926080">
        <ele>28.4</ele>
        <time>2021-05-19T10:22:05Z</time>
      </trkpt>
      <trkpt lat="42.0739610" lon="-8.8926110">
        <ele>28.4</ele>
        <time>2021-05-19T10:22:06Z</time>
      </trkpt>
      <trkpt lat="42.0739770" lon="-8.8926100">
        <ele>28.5</ele>
        <time>2021-05-19T10:22:07Z</time>
      </trkpt>
      <trkpt lat="42.0739940" lon="-8.8926070">
        <ele>28.5</ele>
        <time>2021-05-19T10:22:08Z</time>
      </trkpt>
      <trkpt lat="42.0740020" lon="-8.8926050">
        <ele>28.5</ele>
        <time>2021-05-19T10:22:09Z</time>
      </trkpt>
      <trkpt lat="42.0740090" lon="-8.8926030">
        <ele>28.6</ele>
        <time>2021-05-19T10:22:10Z</time>
      </trkpt>
      <trkpt lat="42.0740160" lon="-8.8926010">
        <ele>28.6</ele>
        <time>2021-05-19T10:22:11Z</time>
      </trkpt>
      <trkpt lat="42.0740420" lon="-8.8926030">
        <ele>28.6</ele>
        <time>2021-05-19T10:22:12Z</time>
      </trkpt>
      <trkpt lat="42.0740510" lon="-8.8926070">
        <ele>28.6</ele>
        <time>2021-05-19T10:22:13Z</time>
      </trkpt>
      <trkpt lat="42.0740610" lon="-8.8926100">
        <ele>28.7</ele>
        <time>2021-05-19T10:22:14Z</time>
      </trkpt>
      <trkpt lat="42.0740760" lon="-8.8926130">
        <ele>28.7</ele>
        <time>2021-05-19T10:22:15Z</time>
      </trkpt>
      <trkpt lat="42.0740940" lon="-8.8926080">
        <ele>28.7</ele>
        <time>2021-05-19T10:22:16Z</time>
      </trkpt>
      <trkpt lat="42.0741090" lon="-8.8926190">
        <ele>28.8</ele>
        <time>2021-05-19T10:22:17Z</time>
      </trkpt>
      <trkpt lat="42.0741190" lon="-8.8926200">
        <ele>28.8</ele>
        <time>2021-05-19T10:22:18Z</time>
      </trkpt>
      <trkpt lat="42.0741290" lon="-8.8926220">
        <ele>28.8</ele>
        <time>2021-05-19T10:22:19Z</time>
      </trkpt>
      <trkpt lat="42.0741420" lon="-8.8926210">
        <ele>28.9</ele>
        <time>2021-05-19T10:22:20Z</time>
      </trkpt>
      <trkpt lat="42.0741610" lon="-8.8926150">
        <ele>28.9</ele>
        <time>2021-05-19T10:22:21Z</time>
      </trkpt>
      <trkpt lat="42.0741740" lon="-8.8926180">
        <ele>28.9</ele>
        <time>2021-05-19T10:22:22Z</time>
      </trkpt>
      <trkpt lat="42.0741940" lon="-8.8926130">
        <ele>29.0</ele>
        <time>2021-05-19T10:22:23Z</time>
      </trkpt>
      <trkpt lat="42.0742120" lon="-8.8926130">
        <ele>29.0</ele>
        <time>2021-05-19T10:22:24Z</time>
      </trkpt>
      <trkpt lat="42.0742310" lon="-8.8926100">
        <ele>29.1</ele>
        <time>2021-05-19T10:22:25Z</time>
      </trkpt>
      <trkpt lat="42.0742500" lon="-8.8926070">
        <ele>29.1</ele>
        <time>2021-05-19T10:22:26Z</time>
      </trkpt>
      <trkpt lat="42.0742610" lon="-8.8926080">
        <ele>29.2</ele>
        <time>2021-05-19T10:22:27Z</time>
      </trkpt>
      <trkpt lat="42.0742740" lon="-8.8926090">
        <ele>29.2</ele>
        <time>2021-05-19T10:22:28Z</time>
      </trkpt>
      <trkpt lat="42.0742930" lon="-8.8926130">
        <ele>29.2</ele>
        <time>2021-05-19T10:22:29Z</time>
      </trkpt>
      <trkpt lat="42.0743030" lon="-8.8926130">
        <ele>29.3</ele>
        <time>2021-05-19T10:22:30Z</time>
      </trkpt>
      <trkpt lat="42.0743100" lon="-8.8926160">
        <ele>29.3</ele>
        <time>2021-05-19T10:22:31Z</time>
      </trkpt>
      <trkpt lat="42.0743210" lon="-8.8926140">
        <ele>29.3</ele>
        <time>2021-05-19T10:22:32Z</time>
      </trkpt>
      <trkpt lat="42.0743340" lon="-8.8926120">
        <ele>29.3</ele>
        <time>2021-05-19T10:22:33Z</time>
      </trkpt>
      <trkpt lat="42.0743500" lon="-8.8926180">
        <ele>29.4</ele>
        <time>2021-05-19T10:22:34Z</time>
      </trkpt>
      <trkpt lat="42.0743680" lon="-8.8926150">
        <ele>29.4</ele>
        <time>2021-05-19T10:22:35Z</time>
      </trkpt>
      <trkpt lat="42.0743820" lon="-8.8926100">
        <ele>29.5</ele>
        <time>2021-05-19T10:22:36Z</time>
      </trkpt>
      <trkpt lat="42.0743970" lon="-8.8926130">
        <ele>29.5</ele>
        <time>2021-05-19T10:22:37Z</time>
      </trkpt>
      <trkpt lat="42.0744030" lon="-8.8926180">
        <ele>29.5</ele>
        <time>2021-05-19T10:22:38Z</time>
      </trkpt>
      <trkpt lat="42.0744110" lon="-8.8926280">
        <ele>29.5</ele>
        <time>2021-05-19T10:22:39Z</time>
      </trkpt>
      <trkpt lat="42.0744270" lon="-8.8926290">
        <ele>29.6</ele>
        <time>2021-05-19T10:22:40Z</time>
      </trkpt>
      <trkpt lat="42.0744410" lon="-8.8926340">
        <ele>29.6</ele>
        <time>2021-05-19T10:22:41Z</time>
      </trkpt>
      <trkpt lat="42.0744530" lon="-8.8926340">
        <ele>29.6</ele>
        <time>2021-05-19T10:22:42Z</time>
      </trkpt>
      <trkpt lat="42.0744680" lon="-8.8926360">
        <ele>29.6</ele>
        <time>2021-05-19T10:22:43Z</time>
      </trkpt>
      <trkpt lat="42.0744800" lon="-8.8926320">
        <ele>29.6</ele>
        <time>2021-05-19T10:22:44Z</time>
      </trkpt>
      <trkpt lat="42.0744960" lon="-8.8926390">
        <ele>29.7</ele>
        <time>2021-05-19T10:22:45Z</time>
      </trkpt>
      <trkpt lat="42.0745200" lon="-8.8926510">
        <ele>29.7</ele>
        <time>2021-05-19T10:22:46Z</time>
      </trkpt>
      <trkpt lat="42.0745300" lon="-8.8926550">
        <ele>29.7</ele>
        <time>2021-05-19T10:22:47Z</time>
      </trkpt>
      <trkpt lat="42.0745410" lon="-8.8926580">
        <ele>29.8</ele>
        <time>2021-05-19T10:22:48Z</time>
      </trkpt>
      <trkpt lat="42.0745580" lon="-8.8926590">
        <ele>29.8</ele>
        <time>2021-05-19T10:22:49Z</time>
      </trkpt>
      <trkpt lat="42.0745710" lon="-8.8926630">
        <ele>29.8</ele>
        <time>2021-05-19T10:22:50Z</time>
      </trkpt>
      <trkpt lat="42.0745870" lon="-8.8926660">
        <ele>29.8</ele>
        <time>2021-05-19T10:22:51Z</time>
      </trkpt>
      <trkpt lat="42.0746030" lon="-8.8926640">
        <ele>29.9</ele>
        <time>2021-05-19T10:22:52Z</time>
      </trkpt>
      <trkpt lat="42.0746160" lon="-8.8926700">
        <ele>29.9</ele>
        <time>2021-05-19T10:22:53Z</time>
      </trkpt>
      <trkpt lat="42.0746290" lon="-8.8926700">
        <ele>29.9</ele>
        <time>2021-05-19T10:22:54Z</time>
      </trkpt>
      <trkpt lat="42.0746500" lon="-8.8926770">
        <ele>30.0</ele>
        <time>2021-05-19T10:22:55Z</time>
      </trkpt>
      <trkpt lat="42.0746590" lon="-8.8926770">
        <ele>30.0</ele>
        <time>2021-05-19T10:22:56Z</time>
      </trkpt>
      <trkpt lat="42.0746670" lon="-8.8926770">
        <ele>30.0</ele>
        <time>2021-05-19T10:22:57Z</time>
      </trkpt>
      <trkpt lat="42.0746810" lon="-8.8926810">
        <ele>30.0</ele>
        <time>2021-05-19T10:22:58Z</time>
      </trkpt>
      <trkpt lat="42.0746940" lon="-8.8926790">
        <ele>30.0</ele>
        <time>2021-05-19T10:22:59Z</time>
      </trkpt>
      <trkpt lat="42.0747090" lon="-8.8926760">
        <ele>30.1</ele>
        <time>2021-05-19T10:23:00Z</time>
      </trkpt>
      <trkpt lat="42.0747240" lon="-8.8926750">
        <ele>30.1</ele>
        <time>2021-05-19T10:23:01Z</time>
      </trkpt>
      <trkpt lat="42.0747380" lon="-8.8926780">
        <ele>30.1</ele>
        <time>2021-05-19T10:23:02Z</time>
      </trkpt>
      <trkpt lat="42.0747530" lon="-8.8926770">
        <ele>30.1</ele>
        <time>2021-05-19T10:23:03Z</time>
      </trkpt>
      <trkpt lat="42.0747660" lon="-8.8926720">
        <ele>30.1</ele>
        <time>2021-05-19T10:23:04Z</time>
      </trkpt>
      <trkpt lat="42.0747790" lon="-8.8926700">
        <ele>30.1</ele>
        <time>2021-05-19T10:23:05Z</time>
      </trkpt>
      <trkpt lat="42.0747930" lon="-8.8926690">
        <ele>30.2</ele>
        <time>2021-05-19T10:23:06Z</time>
      </trkpt>
      <trkpt lat="42.0748080" lon="-8.8926730">
        <ele>30.2</ele>
        <time>2021-05-19T10:23:07Z</time>
      </trkpt>
      <trkpt lat="42.0748300" lon="-8.8926790">
        <ele>30.2</ele>
        <time>2021-05-19T10:23:08Z</time>
      </trkpt>
      <trkpt lat="42.0748400" lon="-8.8926830">
        <ele>30.2</ele>
        <time>2021-05-19T10:23:09Z</time>
      </trkpt>
      <trkpt lat="42.0748500" lon="-8.8926860">
        <ele>30.2</ele>
        <time>2021-05-19T10:23:10Z</time>
      </trkpt>
      <trkpt lat="42.0748640" lon="-8.8926830">
        <ele>30.2</ele>
        <time>2021-05-19T10:23:11Z</time>
      </trkpt>
      <trkpt lat="42.0748790" lon="-8.8926930">
        <ele>30.2</ele>
        <time>2021-05-19T10:23:12Z</time>
      </trkpt>
      <trkpt lat="42.0748940" lon="-8.8926850">
        <ele>30.2</ele>
        <time>2021-05-19T10:23:13Z</time>
      </trkpt>
      <trkpt lat="42.0749080" lon="-8.8926870">
        <ele>30.2</ele>
        <time>2021-05-19T10:23:14Z</time>
      </trkpt>
      <trkpt lat="42.0749220" lon="-8.8926870">
        <ele>30.2</ele>
        <time>2021-05-19T10:23:15Z</time>
      </trkpt>
      <trkpt lat="42.0749350" lon="-8.8926840">
        <ele>30.3</ele>
        <time>2021-05-19T10:23:16Z</time>
      </trkpt>
      <trkpt lat="42.0749460" lon="-8.8926850">
        <ele>30.3</ele>
        <time>2021-05-19T10:23:17Z</time>
      </trkpt>
      <trkpt lat="42.0749560" lon="-8.8926870">
        <ele>30.3</ele>
        <time>2021-05-19T10:23:18Z</time>
      </trkpt>
      <trkpt lat="42.0749670" lon="-8.8926840">
        <ele>30.3</ele>
        <time>2021-05-19T10:23:19Z</time>
      </trkpt>
      <trkpt lat="42.0749780" lon="-8.8926910">
        <ele>30.3</ele>
        <time>2021-05-19T10:23:20Z</time>
      </trkpt>
      <trkpt lat="42.0749920" lon="-8.8926970">
        <ele>30.3</ele>
        <time>2021-05-19T10:23:21Z</time>
      </trkpt>
      <trkpt lat="42.0750000" lon="-8.8926920">
        <ele>30.3</ele>
        <time>2021-05-19T10:23:22Z</time>
      </trkpt>
      <trkpt lat="42.0750210" lon="-8.8926930">
        <ele>30.3</ele>
        <time>2021-05-19T10:23:23Z</time>
      </trkpt>
      <trkpt lat="42.0750300" lon="-8.8926940">
        <ele>30.3</ele>
        <time>2021-05-19T10:23:24Z</time>
      </trkpt>
      <trkpt lat="42.0750390" lon="-8.8926950">
        <ele>30.3</ele>
        <time>2021-05-19T10:23:25Z</time>
      </trkpt>
      <trkpt lat="42.0750550" lon="-8.8926910">
        <ele>30.3</ele>
        <time>2021-05-19T10:23:26Z</time>
      </trkpt>
      <trkpt lat="42.0750620" lon="-8.8926910">
        <ele>30.3</ele>
        <time>2021-05-19T10:23:27Z</time>
      </trkpt>
      <trkpt lat="42.0750690" lon="-8.8926900">
        <ele>30.3</ele>
        <time>2021-05-19T10:23:28Z</time>
      </trkpt>
      <trkpt lat="42.0750760" lon="-8.8926900">
        <ele>30.3</ele>
        <time>2021-05-19T10:23:29Z</time>
      </trkpt>
      <trkpt lat="42.0750940" lon="-8.8926930">
        <ele>30.3</ele>
        <time>2021-05-19T10:23:30Z</time>
      </trkpt>
      <trkpt lat="42.0751010" lon="-8.8926860">
        <ele>30.4</ele>
        <time>2021-05-19T10:23:31Z</time>
      </trkpt>
      <trkpt lat="42.0751090" lon="-8.8926900">
        <ele>30.4</ele>
        <time>2021-05-19T10:23:32Z</time>
      </trkpt>
      <trkpt lat="42.0751220" lon="-8.8926880">
        <ele>30.4</ele>
        <time>2021-05-19T10:23:33Z</time>
      </trkpt>
      <trkpt lat="42.0751350" lon="-8.8926940">
        <ele>30.4</ele>
        <time>2021-05-19T10:23:34Z</time>
      </trkpt>
      <trkpt lat="42.0751450" lon="-8.8926920">
        <ele>30.4</ele>
        <time>2021-05-19T10:23:35Z</time>
      </trkpt>
      <trkpt lat="42.0751660" lon="-8.8926930">
        <ele>30.4</ele>
        <time>2021-05-19T10:23:36Z</time>
      </trkpt>
      <trkpt lat="42.0751740" lon="-8.8926930">
        <ele>30.4</ele>
        <time>2021-05-19T10:23:37Z</time>
      </trkpt>
      <trkpt lat="42.0751810" lon="-8.8926930">
        <ele>30.4</ele>
        <time>2021-05-19T10:23:38Z</time>
      </trkpt>
      <trkpt lat="42.0752010" lon="-8.8927030">
        <ele>30.4</ele>
        <time>2021-05-19T10:23:39Z</time>
      </trkpt>
      <trkpt lat="42.0752090" lon="-8.8927070">
        <ele>30.4</ele>
        <time>2021-05-19T10:23:40Z</time>
      </trkpt>
      <trkpt lat="42.0752200" lon="-8.8927040">
        <ele>30.4</ele>
        <time>2021-05-19T10:23:41Z</time>
      </trkpt>
      <trkpt lat="42.0752290" lon="-8.8927000">
        <ele>30.4</ele>
        <time>2021-05-19T10:23:42Z</time>
      </trkpt>
      <trkpt lat="42.0752360" lon="-8.8927050">
        <ele>30.4</ele>
        <time>2021-05-19T10:23:43Z</time>
      </trkpt>
      <trkpt lat="42.0752480" lon="-8.8927070">
        <ele>30.5</ele>
        <time>2021-05-19T10:23:44Z</time>
      </trkpt>
      <trkpt lat="42.0752670" lon="-8.8927090">
        <ele>30.5</ele>
        <time>2021-05-19T10:23:45Z</time>
      </trkpt>
      <trkpt lat="42.0752810" lon="-8.8927160">
        <ele>30.5</ele>
        <time>2021-05-19T10:23:46Z</time>
      </trkpt>
      <trkpt lat="42.0752990" lon="-8.8927080">
        <ele>30.5</ele>
        <time>2021-05-19T10:23:47Z</time>
      </trkpt>
      <trkpt lat="42.0753100" lon="-8.8927130">
        <ele>30.6</ele>
        <time>2021-05-19T10:23:48Z</time>
      </trkpt>
      <trkpt lat="42.0753260" lon="-8.8927100">
        <ele>30.6</ele>
        <time>2021-05-19T10:23:49Z</time>
      </trkpt>
      <trkpt lat="42.0753480" lon="-8.8927140">
        <ele>30.6</ele>
        <time>2021-05-19T10:23:50Z</time>
      </trkpt>
      <trkpt lat="42.0753550" lon="-8.8927170">
        <ele>30.6</ele>
        <time>2021-05-19T10:23:51Z</time>
      </trkpt>
      <trkpt lat="42.0753740" lon="-8.8927240">
        <ele>30.7</ele>
        <time>2021-05-19T10:23:52Z</time>
      </trkpt>
      <trkpt lat="42.0753820" lon="-8.8927270">
        <ele>30.7</ele>
        <time>2021-05-19T10:23:53Z</time>
      </trkpt>
      <trkpt lat="42.0754080" lon="-8.8927370">
        <ele>30.7</ele>
        <time>2021-05-19T10:23:54Z</time>
      </trkpt>
      <trkpt lat="42.0754160" lon="-8.8927400">
        <ele>30.8</ele>
        <time>2021-05-19T10:23:55Z</time>
      </trkpt>
      <trkpt lat="42.0754230" lon="-8.8927440">
        <ele>30.8</ele>
        <time>2021-05-19T10:23:56Z</time>
      </trkpt>
      <trkpt lat="42.0754360" lon="-8.8927410">
        <ele>30.8</ele>
        <time>2021-05-19T10:23:57Z</time>
      </trkpt>
      <trkpt lat="42.0754450" lon="-8.8927430">
        <ele>30.8</ele>
        <time>2021-05-19T10:23:58Z</time>
      </trkpt>
      <trkpt lat="42.0754580" lon="-8.8927550">
        <ele>30.9</ele>
        <time>2021-05-19T10:23:59Z</time>
      </trkpt>
      <trkpt lat="42.0754660" lon="-8.8927660">
        <ele>30.9</ele>
        <time>2021-05-19T10:24:00Z</time>
      </trkpt>
      <trkpt lat="42.0754840" lon="-8.8927640">
        <ele>30.9</ele>
        <time>2021-05-19T10:24:01Z</time>
      </trkpt>
      <trkpt lat="42.0755000" lon="-8.8927700">
        <ele>31.0</ele>
        <time>2021-05-19T10:24:02Z</time>
      </trkpt>
      <trkpt lat="42.0755200" lon="-8.8927710">
        <ele>31.0</ele>
        <time>2021-05-19T10:24:03Z</time>
      </trkpt>
      <trkpt lat="42.0755350" lon="-8.8927740">
        <ele>31.1</ele>
        <time>2021-05-19T10:24:04Z</time>
      </trkpt>
      <trkpt lat="42.0755420" lon="-8.8927820">
        <ele>31.1</ele>
        <time>2021-05-19T10:24:05Z</time>
      </trkpt>
      <trkpt lat="42.0755540" lon="-8.8927860">
        <ele>31.2</ele>
        <time>2021-05-19T10:24:06Z</time>
      </trkpt>
      <trkpt lat="42.0755680" lon="-8.8927870">
        <ele>31.2</ele>
        <time>2021-05-19T10:24:07Z</time>
      </trkpt>
      <trkpt lat="42.0755820" lon="-8.8927820">
        <ele>31.3</ele>
        <time>2021-05-19T10:24:08Z</time>
      </trkpt>
      <trkpt lat="42.0755940" lon="-8.8927890">
        <ele>31.3</ele>
        <time>2021-05-19T10:24:09Z</time>
      </trkpt>
      <trkpt lat="42.0756060" lon="-8.8927940">
        <ele>31.4</ele>
        <time>2021-05-19T10:24:10Z</time>
      </trkpt>
      <trkpt lat="42.0756150" lon="-8.8928020">
        <ele>31.4</ele>
        <time>2021-05-19T10:24:11Z</time>
      </trkpt>
      <trkpt lat="42.0756300" lon="-8.8928030">
        <ele>31.5</ele>
        <time>2021-05-19T10:24:12Z</time>
      </trkpt>
      <trkpt lat="42.0756360" lon="-8.8928120">
        <ele>31.5</ele>
        <time>2021-05-19T10:24:13Z</time>
      </trkpt>
      <trkpt lat="42.0756450" lon="-8.8928250">
        <ele>31.6</ele>
        <time>2021-05-19T10:24:14Z</time>
      </trkpt>
      <trkpt lat="42.0756590" lon="-8.8928360">
        <ele>31.7</ele>
        <time>2021-05-19T10:24:15Z</time>
      </trkpt>
      <trkpt lat="42.0756670" lon="-8.8928420">
        <ele>31.7</ele>
        <time>2021-05-19T10:24:16Z</time>
      </trkpt>
      <trkpt lat="42.0756780" lon="-8.8928420">
        <ele>31.7</ele>
        <time>2021-05-19T10:24:17Z</time>
      </trkpt>
      <trkpt lat="42.0756850" lon="-8.8928480">
        <ele>31.8</ele>
        <time>2021-05-19T10:24:18Z</time>
      </trkpt>
      <trkpt lat="42.0756990" lon="-8.8928470">
        <ele>31.8</ele>
        <time>2021-05-19T10:24:19Z</time>
      </trkpt>
      <trkpt lat="42.0757090" lon="-8.8928520">
        <ele>31.9</ele>
        <time>2021-05-19T10:24:20Z</time>
      </trkpt>
      <trkpt lat="42.0757240" lon="-8.8928540">
        <ele>31.9</ele>
        <time>2021-05-19T10:24:21Z</time>
      </trkpt>
      <trkpt lat="42.0757380" lon="-8.8928640">
        <ele>32.0</ele>
        <time>2021-05-19T10:24:22Z</time>
      </trkpt>
      <trkpt lat="42.0757470" lon="-8.8928670">
        <ele>32.1</ele>
        <time>2021-05-19T10:24:23Z</time>
      </trkpt>
      <trkpt lat="42.0757650" lon="-8.8928720">
        <ele>32.1</ele>
        <time>2021-05-19T10:24:24Z</time>
      </trkpt>
      <trkpt lat="42.0757870" lon="-8.8928840">
        <ele>32.2</ele>
        <time>2021-05-19T10:24:25Z</time>
      </trkpt>
      <trkpt lat="42.0757970" lon="-8.8928870">
        <ele>32.3</ele>
        <time>2021-05-19T10:24:26Z</time>
      </trkpt>
      <trkpt lat="42.0758070" lon="-8.8928900">
        <ele>32.3</ele>
        <time>2021-05-19T10:24:27Z</time>
      </trkpt>
      <trkpt lat="42.0758280" lon="-8.8928970">
        <ele>32.4</ele>
        <time>2021-05-19T10:24:28Z</time>
      </trkpt>
      <trkpt lat="42.0758360" lon="-8.8929010">
        <ele>32.4</ele>
        <time>2021-05-19T10:24:29Z</time>
      </trkpt>
      <trkpt lat="42.0758440" lon="-8.8929040">
        <ele>32.5</ele>
        <time>2021-05-19T10:24:30Z</time>
      </trkpt>
      <trkpt lat="42.0758670" lon="-8.8929090">
        <ele>32.5</ele>
        <time>2021-05-19T10:24:31Z</time>
      </trkpt>
      <trkpt lat="42.0758740" lon="-8.8929120">
        <ele>32.6</ele>
        <time>2021-05-19T10:24:32Z</time>
      </trkpt>
      <trkpt lat="42.0758820" lon="-8.8929150">
        <ele>32.6</ele>
        <time>2021-05-19T10:24:33Z</time>
      </trkpt>
      <trkpt lat="42.0759000" lon="-8.8929170">
        <ele>32.6</ele>
        <time>2021-05-19T10:24:34Z</time>
      </trkpt>
      <trkpt lat="42.0759090" lon="-8.8929220">
        <ele>32.7</ele>
        <time>2021-05-19T10:24:35Z</time>
      </trkpt>
      <trkpt lat="42.0759190" lon="-8.8929260">
        <ele>32.7</ele>
        <time>2021-05-19T10:24:36Z</time>
      </trkpt>
      <trkpt lat="42.0759240" lon="-8.8929260">
        <ele>32.7</ele>
        <time>2021-05-19T10:24:37Z</time>
      </trkpt>
      <trkpt lat="42.0759360" lon="-8.8929300">
        <ele>32.8</ele>
        <time>2021-05-19T10:24:38Z</time>
      </trkpt>
      <trkpt lat="42.0759470" lon="-8.8929370">
        <ele>32.8</ele>
        <time>2021-05-19T10:24:39Z</time>
      </trkpt>
      <trkpt lat="42.0759570" lon="-8.8929420">
        <ele>32.8</ele>
        <time>2021-05-19T10:24:40Z</time>
      </trkpt>
      <trkpt lat="42.0759730" lon="-8.8929490">
        <ele>32.9</ele>
        <time>2021-05-19T10:24:41Z</time>
      </trkpt>
      <trkpt lat="42.0759900" lon="-8.8929560">
        <ele>33.0</ele>
        <time>2021-05-19T10:24:42Z</time>
      </trkpt>
      <trkpt lat="42.0760060" lon="-8.8929600">
        <ele>33.0</ele>
        <time>2021-05-19T10:24:43Z</time>
      </trkpt>
      <trkpt lat="42.0760200" lon="-8.8929610">
        <ele>33.0</ele>
        <time>2021-05-19T10:24:44Z</time>
      </trkpt>
      <trkpt lat="42.0760390" lon="-8.8929620">
        <ele>33.1</ele>
        <time>2021-05-19T10:24:45Z</time>
      </trkpt>
      <trkpt lat="42.0760440" lon="-8.8929670">
        <ele>33.1</ele>
        <time>2021-05-19T10:24:46Z</time>
      </trkpt>
      <trkpt lat="42.0760510" lon="-8.8929750">
        <ele>33.1</ele>
        <time>2021-05-19T10:24:47Z</time>
      </trkpt>
      <trkpt lat="42.0760700" lon="-8.8929830">
        <ele>33.2</ele>
        <time>2021-05-19T10:24:48Z</time>
      </trkpt>
      <trkpt lat="42.0760790" lon="-8.8929890">
        <ele>33.2</ele>
        <time>2021-05-19T10:24:49Z</time>
      </trkpt>
      <trkpt lat="42.0760970" lon="-8.8929940">
        <ele>33.3</ele>
        <time>2021-05-19T10:24:50Z</time>
      </trkpt>
      <trkpt lat="42.0761160" lon="-8.8930010">
        <ele>33.3</ele>
        <time>2021-05-19T10:24:51Z</time>
      </trkpt>
      <trkpt lat="42.0761250" lon="-8.8930010">
        <ele>33.3</ele>
        <time>2021-05-19T10:24:52Z</time>
      </trkpt>
      <trkpt lat="42.0761340" lon="-8.8930010">
        <ele>33.3</ele>
        <time>2021-05-19T10:24:53Z</time>
      </trkpt>
      <trkpt lat="42.0761490" lon="-8.8930100">
        <ele>33.4</ele>
        <time>2021-05-19T10:24:54Z</time>
      </trkpt>
      <trkpt lat="42.0761640" lon="-8.8930070">
        <ele>33.4</ele>
        <time>2021-05-19T10:24:55Z</time>
      </trkpt>
      <trkpt lat="42.0761850" lon="-8.8930140">
        <ele>33.5</ele>
        <time>2021-05-19T10:24:56Z</time>
      </trkpt>
      <trkpt lat="42.0761940" lon="-8.8930150">
        <ele>33.5</ele>
        <time>2021-05-19T10:24:57Z</time>
      </trkpt>
      <trkpt lat="42.0762040" lon="-8.8930170">
        <ele>33.5</ele>
        <time>2021-05-19T10:24:58Z</time>
      </trkpt>
      <trkpt lat="42.0762160" lon="-8.8930180">
        <ele>33.5</ele>
        <time>2021-05-19T10:24:59Z</time>
      </trkpt>
      <trkpt lat="42.0762340" lon="-8.8930230">
        <ele>33.5</ele>
        <time>2021-05-19T10:25:00Z</time>
      </trkpt>
      <trkpt lat="42.0762510" lon="-8.8930250">
        <ele>33.6</ele>
        <time>2021-05-19T10:25:01Z</time>
      </trkpt>
      <trkpt lat="42.0762620" lon="-8.8930260">
        <ele>33.6</ele>
        <time>2021-05-19T10:25:02Z</time>
      </trkpt>
      <trkpt lat="42.0762800" lon="-8.8930330">
        <ele>33.6</ele>
        <time>2021-05-19T10:25:03Z</time>
      </trkpt>
      <trkpt lat="42.0762900" lon="-8.8930360">
        <ele>33.6</ele>
        <time>2021-05-19T10:25:04Z</time>
      </trkpt>
      <trkpt lat="42.0762990" lon="-8.8930380">
        <ele>33.7</ele>
        <time>2021-05-19T10:25:05Z</time>
      </trkpt>
      <trkpt lat="42.0763150" lon="-8.8930420">
        <ele>33.7</ele>
        <time>2021-05-19T10:25:06Z</time>
      </trkpt>
      <trkpt lat="42.0763330" lon="-8.8930470">
        <ele>33.7</ele>
        <time>2021-05-19T10:25:07Z</time>
      </trkpt>
      <trkpt lat="42.0763460" lon="-8.8930500">
        <ele>33.7</ele>
        <time>2021-05-19T10:25:08Z</time>
      </trkpt>
      <trkpt lat="42.0763630" lon="-8.8930490">
        <ele>33.7</ele>
        <time>2021-05-19T10:25:09Z</time>
      </trkpt>
      <trkpt lat="42.0763760" lon="-8.8930510">
        <ele>33.7</ele>
        <time>2021-05-19T10:25:10Z</time>
      </trkpt>
      <trkpt lat="42.0763840" lon="-8.8930630">
        <ele>33.7</ele>
        <time>2021-05-19T10:25:11Z</time>
      </trkpt>
      <trkpt lat="42.0763960" lon="-8.8930570">
        <ele>33.7</ele>
        <time>2021-05-19T10:25:12Z</time>
      </trkpt>
      <trkpt lat="42.0764150" lon="-8.8930650">
        <ele>33.8</ele>
        <time>2021-05-19T10:25:13Z</time>
      </trkpt>
      <trkpt lat="42.0764240" lon="-8.8930680">
        <ele>33.8</ele>
        <time>2021-05-19T10:25:14Z</time>
      </trkpt>
      <trkpt lat="42.0764320" lon="-8.8930710">
        <ele>33.8</ele>
        <time>2021-05-19T10:25:15Z</time>
      </trkpt>
      <trkpt lat="42.0764380" lon="-8.8930760">
        <ele>33.8</ele>
        <time>2021-05-19T10:25:16Z</time>
      </trkpt>
      <trkpt lat="42.0764520" lon="-8.8930790">
        <ele>33.8</ele>
        <time>2021-05-19T10:25:17Z</time>
      </trkpt>
      <trkpt lat="42.0764650" lon="-8.8930850">
        <ele>33.8</ele>
        <time>2021-05-19T10:25:18Z</time>
      </trkpt>
      <trkpt lat="42.0764750" lon="-8.8930880">
        <ele>33.8</ele>
        <time>2021-05-19T10:25:19Z</time>
      </trkpt>
      <trkpt lat="42.0764920" lon="-8.8930960">
        <ele>33.8</ele>
        <time>2021-05-19T10:25:20Z</time>
      </trkpt>
      <trkpt lat="42.0765150" lon="-8.8930950">
        <ele>33.8</ele>
        <time>2021-05-19T10:25:21Z</time>
      </trkpt>
      <trkpt lat="42.0765240" lon="-8.8930990">
        <ele>33.9</ele>
        <time>2021-05-19T10:25:22Z</time>
      </trkpt>
      <trkpt lat="42.0765340" lon="-8.8931020">
        <ele>33.9</ele>
        <time>2021-05-19T10:25:23Z</time>
      </trkpt>
      <trkpt lat="42.0765450" lon="-8.8931010">
        <ele>33.9</ele>
        <time>2021-05-19T10:25:24Z</time>
      </trkpt>
      <trkpt lat="42.0765640" lon="-8.8931110">
        <ele>33.9</ele>
        <time>2021-05-19T10:25:25Z</time>
      </trkpt>
      <trkpt lat="42.0765810" lon="-8.8931120">
        <ele>33.9</ele>
        <time>2021-05-19T10:25:26Z</time>
      </trkpt>
      <trkpt lat="42.0765960" lon="-8.8931150">
        <ele>33.9</ele>
        <time>2021-05-19T10:25:27Z</time>
      </trkpt>
      <trkpt lat="42.0766080" lon="-8.8931220">
        <ele>33.9</ele>
        <time>2021-05-19T10:25:28Z</time>
      </trkpt>
      <trkpt lat="42.0766290" lon="-8.8931270">
        <ele>33.9</ele>
        <time>2021-05-19T10:25:29Z</time>
      </trkpt>
      <trkpt lat="42.0766450" lon="-8.8931300">
        <ele>34.0</ele>
        <time>2021-05-19T10:25:30Z</time>
      </trkpt>
      <trkpt lat="42.0766610" lon="-8.8931370">
        <ele>34.0</ele>
        <time>2021-05-19T10:25:31Z</time>
      </trkpt>
      <trkpt lat="42.0766760" lon="-8.8931420">
        <ele>34.0</ele>
        <time>2021-05-19T10:25:32Z</time>
      </trkpt>
      <trkpt lat="42.0766910" lon="-8.8931510">
        <ele>34.0</ele>
        <time>2021-05-19T10:25:33Z</time>
      </trkpt>
      <trkpt lat="42.0767070" lon="-8.8931550">
        <ele>34.0</ele>
        <time>2021-05-19T10:25:34Z</time>
      </trkpt>
      <trkpt lat="42.0767230" lon="-8.8931640">
        <ele>34.1</ele>
        <time>2021-05-19T10:25:35Z</time>
      </trkpt>
      <trkpt lat="42.0767400" lon="-8.8931650">
        <ele>34.1</ele>
        <time>2021-05-19T10:25:36Z</time>
      </trkpt>
      <trkpt lat="42.0767550" lon="-8.8931680">
        <ele>34.1</ele>
        <time>2021-05-19T10:25:37Z</time>
      </trkpt>
      <trkpt lat="42.0767710" lon="-8.8931720">
        <ele>34.1</ele>
        <time>2021-05-19T10:25:38Z</time>
      </trkpt>
      <trkpt lat="42.0767840" lon="-8.8931860">
        <ele>34.2</ele>
        <time>2021-05-19T10:25:39Z</time>
      </trkpt>
      <trkpt lat="42.0768010" lon="-8.8931880">
        <ele>34.2</ele>
        <time>2021-05-19T10:25:40Z</time>
      </trkpt>
      <trkpt lat="42.0768170" lon="-8.8931910">
        <ele>34.2</ele>
        <time>2021-05-19T10:25:41Z</time>
      </trkpt>
      <trkpt lat="42.0768300" lon="-8.8931920">
        <ele>34.3</ele>
        <time>2021-05-19T10:25:42Z</time>
      </trkpt>
      <trkpt lat="42.0768440" lon="-8.8931980">
        <ele>34.3</ele>
        <time>2021-05-19T10:25:43Z</time>
      </trkpt>
      <trkpt lat="42.0768570" lon="-8.8932050">
        <ele>34.3</ele>
        <time>2021-05-19T10:25:44Z</time>
      </trkpt>
      <trkpt lat="42.0768730" lon="-8.8932110">
        <ele>34.4</ele>
        <time>2021-05-19T10:25:45Z</time>
      </trkpt>
      <trkpt lat="42.0768850" lon="-8.8932220">
        <ele>34.4</ele>
        <time>2021-05-19T10:25:46Z</time>
      </trkpt>
      <trkpt lat="42.0769000" lon="-8.8932290">
        <ele>34.4</ele>
        <time>2021-05-19T10:25:47Z</time>
      </trkpt>
      <trkpt lat="42.0769140" lon="-8.8932350">
        <ele>34.5</ele>
        <time>2021-05-19T10:25:48Z</time>
      </trkpt>
      <trkpt lat="42.0769290" lon="-8.8932450">
        <ele>34.5</ele>
        <time>2021-05-19T10:25:49Z</time>
      </trkpt>
      <trkpt lat="42.0769430" lon="-8.8932500">
        <ele>34.6</ele>
        <time>2021-05-19T10:25:50Z</time>
      </trkpt>
      <trkpt lat="42.0769580" lon="-8.8932530">
        <ele>34.6</ele>
        <time>2021-05-19T10:25:51Z</time>
      </trkpt>
      <trkpt lat="42.0769570" lon="-8.8932590">
        <ele>34.6</ele>
        <time>2021-05-19T10:25:52Z</time>
      </trkpt>
      <trkpt lat="42.0769620" lon="-8.8932670">
        <ele>34.6</ele>
        <time>2021-05-19T10:25:53Z</time>
      </trkpt>
      <trkpt lat="42.0769650" lon="-8.8932770">
        <ele>34.7</ele>
        <time>2021-05-19T10:25:54Z</time>
      </trkpt>
      <trkpt lat="42.0769740" lon="-8.8932880">
        <ele>34.7</ele>
        <time>2021-05-19T10:25:55Z</time>
      </trkpt>
      <trkpt lat="42.0769860" lon="-8.8933010">
        <ele>34.7</ele>
        <time>2021-05-19T10:25:56Z</time>
      </trkpt>
      <trkpt lat="42.0770020" lon="-8.8933140">
        <ele>34.8</ele>
        <time>2021-05-19T10:25:57Z</time>
      </trkpt>
      <trkpt lat="42.0770010" lon="-8.8933150">
        <ele>34.8</ele>
        <time>2021-05-19T10:25:58Z</time>
      </trkpt>
      <trkpt lat="42.0770090" lon="-8.8933210">
        <ele>34.8</ele>
        <time>2021-05-19T10:25:59Z</time>
      </trkpt>
      <trkpt lat="42.0770180" lon="-8.8933400">
        <ele>34.8</ele>
        <time>2021-05-19T10:26:00Z</time>
      </trkpt>
      <trkpt lat="42.0770280" lon="-8.8933430">
        <ele>34.9</ele>
        <time>2021-05-19T10:26:01Z</time>
      </trkpt>
      <trkpt lat="42.0770360" lon="-8.8933500">
        <ele>34.9</ele>
        <time>2021-05-19T10:26:02Z</time>
      </trkpt>
      <trkpt lat="42.0770530" lon="-8.8933650">
        <ele>34.9</ele>
        <time>2021-05-19T10:26:03Z</time>
      </trkpt>
      <trkpt lat="42.0770580" lon="-8.8933710">
        <ele>35.0</ele>
        <time>2021-05-19T10:26:04Z</time>
      </trkpt>
      <trkpt lat="42.0770630" lon="-8.8933790">
        <ele>35.0</ele>
        <time>2021-05-19T10:26:05Z</time>
      </trkpt>
      <trkpt lat="42.0770810" lon="-8.8933860">
        <ele>35.0</ele>
        <time>2021-05-19T10:26:06Z</time>
      </trkpt>
      <trkpt lat="42.0770930" lon="-8.8933950">
        <ele>35.1</ele>
        <time>2021-05-19T10:26:07Z</time>
      </trkpt>
      <trkpt lat="42.0771020" lon="-8.8934060">
        <ele>35.1</ele>
        <time>2021-05-19T10:26:08Z</time>
      </trkpt>
      <trkpt lat="42.0771100" lon="-8.8934120">
        <ele>35.1</ele>
        <time>2021-05-19T10:26:09Z</time>
      </trkpt>
      <trkpt lat="42.0771250" lon="-8.8934300">
        <ele>35.2</ele>
        <time>2021-05-19T10:26:10Z</time>
      </trkpt>
      <trkpt lat="42.0771340" lon="-8.8934350">
        <ele>35.2</ele>
        <time>2021-05-19T10:26:11Z</time>
      </trkpt>
      <trkpt lat="42.0771440" lon="-8.8934410">
        <ele>35.2</ele>
        <time>2021-05-19T10:26:12Z</time>
      </trkpt>
      <trkpt lat="42.0771530" lon="-8.8934450">
        <ele>35.3</ele>
        <time>2021-05-19T10:26:13Z</time>
      </trkpt>
      <trkpt lat="42.0771610" lon="-8.8934510">
        <ele>35.3</ele>
        <time>2021-05-19T10:26:14Z</time>
      </trkpt>
      <trkpt lat="42.0771750" lon="-8.8934620">
        <ele>35.3</ele>
        <time>2021-05-19T10:26:15Z</time>
      </trkpt>
      <trkpt lat="42.0771840" lon="-8.8934690">
        <ele>35.4</ele>
        <time>2021-05-19T10:26:16Z</time>
      </trkpt>
      <trkpt lat="42.0771970" lon="-8.8934780">
        <ele>35.4</ele>
        <time>2021-05-19T10:26:17Z</time>
      </trkpt>
      <trkpt lat="42.0772070" lon="-8.8934850">
        <ele>35.4</ele>
        <time>2021-05-19T10:26:18Z</time>
      </trkpt>
      <trkpt lat="42.0772170" lon="-8.8934910">
        <ele>35.5</ele>
        <time>2021-05-19T10:26:19Z</time>
      </trkpt>
      <trkpt lat="42.0772310" lon="-8.8935030">
        <ele>35.5</ele>
        <time>2021-05-19T10:26:20Z</time>
      </trkpt>
      <trkpt lat="42.0772500" lon="-8.8935120">
        <ele>35.6</ele>
        <time>2021-05-19T10:26:21Z</time>
      </trkpt>
      <trkpt lat="42.0772570" lon="-8.8935190">
        <ele>35.6</ele>
        <time>2021-05-19T10:26:22Z</time>
      </trkpt>
      <trkpt lat="42.0772630" lon="-8.8935250">
        <ele>35.6</ele>
        <time>2021-05-19T10:26:23Z</time>
      </trkpt>
      <trkpt lat="42.0772790" lon="-8.8935370">
        <ele>35.7</ele>
        <time>2021-05-19T10:26:24Z</time>
      </trkpt>
      <trkpt lat="42.0772890" lon="-8.8935440">
        <ele>35.7</ele>
        <time>2021-05-19T10:26:25Z</time>
      </trkpt>
      <trkpt lat="42.0773040" lon="-8.8935600">
        <ele>35.8</ele>
        <time>2021-05-19T10:26:26Z</time>
      </trkpt>
      <trkpt lat="42.0773150" lon="-8.8935650">
        <ele>35.8</ele>
        <time>2021-05-19T10:26:27Z</time>
      </trkpt>
      <trkpt lat="42.0773300" lon="-8.8935760">
        <ele>35.8</ele>
        <time>2021-05-19T10:26:28Z</time>
      </trkpt>
      <trkpt lat="42.0773390" lon="-8.8935810">
        <ele>35.9</ele>
        <time>2021-05-19T10:26:29Z</time>
      </trkpt>
      <trkpt lat="42.0773490" lon="-8.8935850">
        <ele>35.9</ele>
        <time>2021-05-19T10:26:30Z</time>
      </trkpt>
      <trkpt lat="42.0773640" lon="-8.8935890">
        <ele>36.0</ele>
        <time>2021-05-19T10:26:31Z</time>
      </trkpt>
      <trkpt lat="42.0773780" lon="-8.8936000">
        <ele>36.0</ele>
        <time>2021-05-19T10:26:32Z</time>
      </trkpt>
      <trkpt lat="42.0773890" lon="-8.8936030">
        <ele>36.0</ele>
        <time>2021-05-19T10:26:33Z</time>
      </trkpt>
      <trkpt lat="42.0774060" lon="-8.8936110">
        <ele>36.1</ele>
        <time>2021-05-19T10:26:34Z</time>
      </trkpt>
      <trkpt lat="42.0774210" lon="-8.8936110">
        <ele>36.1</ele>
        <time>2021-05-19T10:26:35Z</time>
      </trkpt>
      <trkpt lat="42.0774270" lon="-8.8936170">
        <ele>36.2</ele>
        <time>2021-05-19T10:26:36Z</time>
      </trkpt>
      <trkpt lat="42.0774340" lon="-8.8936250">
        <ele>36.2</ele>
        <time>2021-05-19T10:26:37Z</time>
      </trkpt>
      <trkpt lat="42.0774540" lon="-8.8936370">
        <ele>36.3</ele>
        <time>2021-05-19T10:26:38Z</time>
      </trkpt>
      <trkpt lat="42.0774620" lon="-8.8936420">
        <ele>36.3</ele>
        <time>2021-05-19T10:26:39Z</time>
      </trkpt>
      <trkpt lat="42.0774700" lon="-8.8936460">
        <ele>36.3</ele>
        <time>2021-05-19T10:26:40Z</time>
      </trkpt>
      <trkpt lat="42.0774840" lon="-8.8936500">
        <ele>36.3</ele>
        <time>2021-05-19T10:26:41Z</time>
      </trkpt>
      <trkpt lat="42.0775000" lon="-8.8936550">
        <ele>36.4</ele>
        <time>2021-05-19T10:26:42Z</time>
      </trkpt>
      <trkpt lat="42.0775130" lon="-8.8936540">
        <ele>36.4</ele>
        <time>2021-05-19T10:26:43Z</time>
      </trkpt>
      <trkpt lat="42.0775300" lon="-8.8936550">
        <ele>36.5</ele>
        <time>2021-05-19T10:26:44Z</time>
      </trkpt>
      <trkpt lat="42.0775410" lon="-8.8936610">
        <ele>36.5</ele>
        <time>2021-05-19T10:26:45Z</time>
      </trkpt>
      <trkpt lat="42.0775530" lon="-8.8936660">
        <ele>36.5</ele>
        <time>2021-05-19T10:26:46Z</time>
      </trkpt>
      <trkpt lat="42.0775640" lon="-8.8936720">
        <ele>36.6</ele>
        <time>2021-05-19T10:26:47Z</time>
      </trkpt>
      <trkpt lat="42.0775860" lon="-8.8936740">
        <ele>36.6</ele>
        <time>2021-05-19T10:26:48Z</time>
      </trkpt>
      <trkpt lat="42.0775950" lon="-8.8936750">
        <ele>36.6</ele>
        <time>2021-05-19T10:26:49Z</time>
      </trkpt>
      <trkpt lat="42.0776040" lon="-8.8936760">
        <ele>36.7</ele>
        <time>2021-05-19T10:26:50Z</time>
      </trkpt>
      <trkpt lat="42.0776210" lon="-8.8936850">
        <ele>36.7</ele>
        <time>2021-05-19T10:26:51Z</time>
      </trkpt>
      <trkpt lat="42.0776320" lon="-8.8936880">
        <ele>36.7</ele>
        <time>2021-05-19T10:26:52Z</time>
      </trkpt>
      <trkpt lat="42.0776440" lon="-8.8936950">
        <ele>36.8</ele>
        <time>2021-05-19T10:26:53Z</time>
      </trkpt>
      <trkpt lat="42.0776560" lon="-8.8936940">
        <ele>36.8</ele>
        <time>2021-05-19T10:26:54Z</time>
      </trkpt>
      <trkpt lat="42.0776660" lon="-8.8936970">
        <ele>36.8</ele>
        <time>2021-05-19T10:26:55Z</time>
      </trkpt>
      <trkpt lat="42.0776780" lon="-8.8936980">
        <ele>36.8</ele>
        <time>2021-05-19T10:26:56Z</time>
      </trkpt>
      <trkpt lat="42.0776930" lon="-8.8937050">
        <ele>36.9</ele>
        <time>2021-05-19T10:26:57Z</time>
      </trkpt>
      <trkpt lat="42.0777110" lon="-8.8937010">
        <ele>36.9</ele>
        <time>2021-05-19T10:26:58Z</time>
      </trkpt>
      <trkpt lat="42.0777160" lon="-8.8937030">
        <ele>36.9</ele>
        <time>2021-05-19T10:26:59Z</time>
      </trkpt>
      <trkpt lat="42.0777240" lon="-8.8937140">
        <ele>37.0</ele>
        <time>2021-05-19T10:27:00Z</time>
      </trkpt>
      <trkpt lat="42.0777380" lon="-8.8937210">
        <ele>37.0</ele>
        <time>2021-05-19T10:27:01Z</time>
      </trkpt>
      <trkpt lat="42.0777430" lon="-8.8937210">
        <ele>37.0</ele>
        <time>2021-05-19T10:27:02Z</time>
      </trkpt>
      <trkpt lat="42.0777560" lon="-8.8937240">
        <ele>37.0</ele>
        <time>2021-05-19T10:27:03Z</time>
      </trkpt>
      <trkpt lat="42.0777800" lon="-8.8937280">
        <ele>37.1</ele>
        <time>2021-05-19T10:27:04Z</time>
      </trkpt>
      <trkpt lat="42.0777910" lon="-8.8937310">
        <ele>37.1</ele>
        <time>2021-05-19T10:27:05Z</time>
      </trkpt>
      <trkpt lat="42.0778010" lon="-8.8937340">
        <ele>37.1</ele>
        <time>2021-05-19T10:27:06Z</time>
      </trkpt>
      <trkpt lat="42.0778060" lon="-8.8937340">
        <ele>37.1</ele>
        <time>2021-05-19T10:27:07Z</time>
      </trkpt>
      <trkpt lat="42.0778170" lon="-8.8937390">
        <ele>37.1</ele>
        <time>2021-05-19T10:27:08Z</time>
      </trkpt>
      <trkpt lat="42.0778310" lon="-8.8937360">
        <ele>37.1</ele>
        <time>2021-05-19T10:27:09Z</time>
      </trkpt>
      <trkpt lat="42.0778510" lon="-8.8937370">
        <ele>37.1</ele>
        <time>2021-05-19T10:27:10Z</time>
      </trkpt>
      <trkpt lat="42.0778610" lon="-8.8937370">
        <ele>37.2</ele>
        <time>2021-05-19T10:27:11Z</time>
      </trkpt>
      <trkpt lat="42.0778700" lon="-8.8937360">
        <ele>37.2</ele>
        <time>2021-05-19T10:27:12Z</time>
      </trkpt>
      <trkpt lat="42.0778800" lon="-8.8937340">
        <ele>37.2</ele>
        <time>2021-05-19T10:27:13Z</time>
      </trkpt>
      <trkpt lat="42.0778980" lon="-8.8937340">
        <ele>37.2</ele>
        <time>2021-05-19T10:27:14Z</time>
      </trkpt>
      <trkpt lat="42.0779130" lon="-8.8937350">
        <ele>37.2</ele>
        <time>2021-05-19T10:27:15Z</time>
      </trkpt>
      <trkpt lat="42.0779270" lon="-8.8937400">
        <ele>37.2</ele>
        <time>2021-05-19T10:27:16Z</time>
      </trkpt>
      <trkpt lat="42.0779350" lon="-8.8937450">
        <ele>37.2</ele>
        <time>2021-05-19T10:27:17Z</time>
      </trkpt>
      <trkpt lat="42.0779380" lon="-8.8937400">
        <ele>37.2</ele>
        <time>2021-05-19T10:27:18Z</time>
      </trkpt>
      <trkpt lat="42.0779480" lon="-8.8937440">
        <ele>37.2</ele>
        <time>2021-05-19T10:27:19Z</time>
      </trkpt>
      <trkpt lat="42.0779580" lon="-8.8937550">
        <ele>37.2</ele>
        <time>2021-05-19T10:27:20Z</time>
      </trkpt>
      <trkpt lat="42.0779700" lon="-8.8937590">
        <ele>37.2</ele>
        <time>2021-05-19T10:27:21Z</time>
      </trkpt>
      <trkpt lat="42.0779820" lon="-8.8937630">
        <ele>37.2</ele>
        <time>2021-05-19T10:27:22Z</time>
      </trkpt>
      <trkpt lat="42.0779930" lon="-8.8937630">
        <ele>37.2</ele>
        <time>2021-05-19T10:27:23Z</time>
      </trkpt>
      <trkpt lat="42.0779950" lon="-8.8937620">
        <ele>37.2</ele>
        <time>2021-05-19T10:27:24Z</time>
      </trkpt>
      <trkpt lat="42.0779850" lon="-8.8937650">
        <ele>37.2</ele>
        <time>2021-05-19T10:27:25Z</time>
      </trkpt>
      <trkpt lat="42.0779830" lon="-8.8937650">
        <ele>37.3</ele>
        <time>2021-05-19T10:27:26Z</time>
      </trkpt>
      <trkpt lat="42.0779850" lon="-8.8937660">
        <ele>37.3</ele>
        <time>2021-05-19T10:27:27Z</time>
      </trkpt>
      <trkpt lat="42.0779860" lon="-8.8937660">
        <ele>37.3</ele>
        <time>2021-05-19T10:27:28Z</time>
      </trkpt>
      <trkpt lat="42.0779890" lon="-8.8937670">
        <ele>37.3</ele>
        <time>2021-05-19T10:27:29Z</time>
      </trkpt>
      <trkpt lat="42.0779950" lon="-8.8937680">
        <ele>37.3</ele>
        <time>2021-05-19T10:27:30Z</time>
      </trkpt>
      <trkpt lat="42.0779940" lon="-8.8937660">
        <ele>37.3</ele>
        <time>2021-05-19T10:27:31Z</time>
      </trkpt>
      <trkpt lat="42.0779940" lon="-8.8937690">
        <ele>37.3</ele>
        <time>2021-05-19T10:27:32Z</time>
      </trkpt>
      <trkpt lat="42.0779930" lon="-8.8937670">
        <ele>37.3</ele>
        <time>2021-05-19T10:27:33Z</time>
      </trkpt>
      <trkpt lat="42.0779930" lon="-8.8937630">
        <ele>37.3</ele>
        <time>2021-05-19T10:27:34Z</time>
      </trkpt>
      <trkpt lat="42.0779960" lon="-8.8937620">
        <ele>37.3</ele>
        <time>2021-05-19T10:27:35Z</time>
      </trkpt>
      <trkpt lat="42.0780010" lon="-8.8937680">
        <ele>37.3</ele>
        <time>2021-05-19T10:27:36Z</time>
      </trkpt>
      <trkpt lat="42.0779930" lon="-8.8937670">
        <ele>37.3</ele>
        <time>2021-05-19T10:27:37Z</time>
      </trkpt>
      <trkpt lat="42.0779910" lon="-8.8937580">
        <ele>37.3</ele>
        <time>2021-05-19T10:27:38Z</time>
      </trkpt>
      <trkpt lat="42.0779910" lon="-8.8937570">
        <ele>37.3</ele>
        <time>2021-05-19T10:27:39Z</time>
      </trkpt>
      <trkpt lat="42.0779890" lon="-8.8937570">
        <ele>37.3</ele>
        <time>2021-05-19T10:27:40Z</time>
      </trkpt>
      <trkpt lat="42.0779890" lon="-8.8937670">
        <ele>37.3</ele>
        <time>2021-05-19T10:27:41Z</time>
      </trkpt>
      <trkpt lat="42.0779920" lon="-8.8937710">
        <ele>37.3</ele>
        <time>2021-05-19T10:27:42Z</time>
      </trkpt>
      <trkpt lat="42.0779910" lon="-8.8937680">
        <ele>37.3</ele>
        <time>2021-05-19T10:27:43Z</time>
      </trkpt>
      <trkpt lat="42.0779920" lon="-8.8937630">
        <ele>37.3</ele>
        <time>2021-05-19T10:27:44Z</time>
      </trkpt>
      <trkpt lat="42.0780120" lon="-8.8937820">
        <ele>37.3</ele>
        <time>2021-05-19T10:27:45Z</time>
      </trkpt>
      <trkpt lat="42.0780070" lon="-8.8937800">
        <ele>37.3</ele>
        <time>2021-05-19T10:27:46Z</time>
      </trkpt>
      <trkpt lat="42.0780000" lon="-8.8937740">
        <ele>37.3</ele>
        <time>2021-05-19T10:27:47Z</time>
      </trkpt>
      <trkpt lat="42.0780000" lon="-8.8937740">
        <ele>37.3</ele>
        <time>2021-05-19T10:27:48Z</time>
      </trkpt>
      <trkpt lat="42.0780000" lon="-8.8937750">
        <ele>37.3</ele>
        <time>2021-05-19T10:27:49Z</time>
      </trkpt>
      <trkpt lat="42.0780000" lon="-8.8937750">
        <ele>37.3</ele>
        <time>2021-05-19T10:27:50Z</time>
      </trkpt>
      <trkpt lat="42.0780000" lon="-8.8937750">
        <ele>37.3</ele>
        <time>2021-05-19T10:27:51Z</time>
      </trkpt>
      <trkpt lat="42.0779900" lon="-8.8937850">
        <ele>37.3</ele>
        <time>2021-05-19T10:27:52Z</time>
      </trkpt>
      <trkpt lat="42.0779910" lon="-8.8937850">
        <ele>37.3</ele>
        <time>2021-05-19T10:27:53Z</time>
      </trkpt>
      <trkpt lat="42.0779890" lon="-8.8937800">
        <ele>37.3</ele>
        <time>2021-05-19T10:27:54Z</time>
      </trkpt>
      <trkpt lat="42.0779880" lon="-8.8937750">
        <ele>37.3</ele>
        <time>2021-05-19T10:27:55Z</time>
      </trkpt>
      <trkpt lat="42.0779870" lon="-8.8937740">
        <ele>37.3</ele>
        <time>2021-05-19T10:27:56Z</time>
      </trkpt>
      <trkpt lat="42.0779840" lon="-8.8937740">
        <ele>37.3</ele>
        <time>2021-05-19T10:27:57Z</time>
      </trkpt>
      <trkpt lat="42.0779880" lon="-8.8937760">
        <ele>37.3</ele>
        <time>2021-05-19T10:27:58Z</time>
      </trkpt>
      <trkpt lat="42.0779880" lon="-8.8937760">
        <ele>37.3</ele>
        <time>2021-05-19T10:27:59Z</time>
      </trkpt>
      <trkpt lat="42.0779880" lon="-8.8937750">
        <ele>37.3</ele>
        <time>2021-05-19T10:28:00Z</time>
      </trkpt>
      <trkpt lat="42.0779900" lon="-8.8937750">
        <ele>37.3</ele>
        <time>2021-05-19T10:28:01Z</time>
      </trkpt>
      <trkpt lat="42.0779910" lon="-8.8937750">
        <ele>37.3</ele>
        <time>2021-05-19T10:28:02Z</time>
      </trkpt>
      <trkpt lat="42.0779890" lon="-8.8937780">
        <ele>37.3</ele>
        <time>2021-05-19T10:28:03Z</time>
      </trkpt>
      <trkpt lat="42.0779900" lon="-8.8937750">
        <ele>37.3</ele>
        <time>2021-05-19T10:28:04Z</time>
      </trkpt>
      <trkpt lat="42.0779930" lon="-8.8937700">
        <ele>37.3</ele>
        <time>2021-05-19T10:28:05Z</time>
      </trkpt>
      <trkpt lat="42.0779870" lon="-8.8937750">
        <ele>37.3</ele>
        <time>2021-05-19T10:28:06Z</time>
      </trkpt>
      <trkpt lat="42.0779970" lon="-8.8937640">
        <ele>37.3</ele>
        <time>2021-05-19T10:28:07Z</time>
      </trkpt>
      <trkpt lat="42.0779930" lon="-8.8937720">
        <ele>37.3</ele>
        <time>2021-05-19T10:28:08Z</time>
      </trkpt>
      <trkpt lat="42.0779910" lon="-8.8937730">
        <ele>37.3</ele>
        <time>2021-05-19T10:28:09Z</time>
      </trkpt>
      <trkpt lat="42.0779910" lon="-8.8937730">
        <ele>37.3</ele>
        <time>2021-05-19T10:28:10Z</time>
      </trkpt>
      <trkpt lat="42.0779900" lon="-8.8937660">
        <ele>37.3</ele>
        <time>2021-05-19T10:28:11Z</time>
      </trkpt>
      <trkpt lat="42.0779900" lon="-8.8937630">
        <ele>37.3</ele>
        <time>2021-05-19T10:28:12Z</time>
      </trkpt>
      <trkpt lat="42.0779890" lon="-8.8937600">
        <ele>37.3</ele>
        <time>2021-05-19T10:28:13Z</time>
      </trkpt>
      <trkpt lat="42.0779890" lon="-8.8937600">
        <ele>37.3</ele>
        <time>2021-05-19T10:28:14Z</time>
      </trkpt>
      <trkpt lat="42.0779890" lon="-8.8937600">
        <ele>37.3</ele>
        <time>2021-05-19T10:28:15Z</time>
      </trkpt>
      <trkpt lat="42.0779890" lon="-8.8937600">
        <ele>37.3</ele>
        <time>2021-05-19T10:28:16Z</time>
      </trkpt>
      <trkpt lat="42.0779850" lon="-8.8937550">
        <ele>37.3</ele>
        <time>2021-05-19T10:28:17Z</time>
      </trkpt>
      <trkpt lat="42.0779840" lon="-8.8937570">
        <ele>37.3</ele>
        <time>2021-05-19T10:28:18Z</time>
      </trkpt>
      <trkpt lat="42.0779850" lon="-8.8937570">
        <ele>37.3</ele>
        <time>2021-05-19T10:28:19Z</time>
      </trkpt>
      <trkpt lat="42.0779830" lon="-8.8937590">
        <ele>37.3</ele>
        <time>2021-05-19T10:28:20Z</time>
      </trkpt>
      <trkpt lat="42.0779830" lon="-8.8937590">
        <ele>37.3</ele>
        <time>2021-05-19T10:28:21Z</time>
      </trkpt>
      <trkpt lat="42.0779830" lon="-8.8937570">
        <ele>37.3</ele>
        <time>2021-05-19T10:28:22Z</time>
      </trkpt>
      <trkpt lat="42.0779820" lon="-8.8937590">
        <ele>37.3</ele>
        <time>2021-05-19T10:28:23Z</time>
      </trkpt>
      <trkpt lat="42.0779830" lon="-8.8937570">
        <ele>37.3</ele>
        <time>2021-05-19T10:28:24Z</time>
      </trkpt>
      <trkpt lat="42.0779830" lon="-8.8937570">
        <ele>37.3</ele>
        <time>2021-05-19T10:28:25Z</time>
      </trkpt>
      <trkpt lat="42.0779830" lon="-8.8937570">
        <ele>37.3</ele>
        <time>2021-05-19T10:28:26Z</time>
      </trkpt>
      <trkpt lat="42.0779820" lon="-8.8937630">
        <ele>37.3</ele>
        <time>2021-05-19T10:28:27Z</time>
      </trkpt>
      <trkpt lat="42.0779820" lon="-8.8937620">
        <ele>37.3</ele>
        <time>2021-05-19T10:28:28Z</time>
      </trkpt>
      <trkpt lat="42.0779820" lon="-8.8937620">
        <ele>37.3</ele>
        <time>2021-05-19T10:28:29Z</time>
      </trkpt>
      <trkpt lat="42.0779820" lon="-8.8937620">
        <ele>37.3</ele>
        <time>2021-05-19T10:28:30Z</time>
      </trkpt>
      <trkpt lat="42.0779820" lon="-8.8937640">
        <ele>37.3</ele>
        <time>2021-05-19T10:28:31Z</time>
      </trkpt>
      <trkpt lat="42.0779810" lon="-8.8937660">
        <ele>37.3</ele>
        <time>2021-05-19T10:28:32Z</time>
      </trkpt>
      <trkpt lat="42.0779810" lon="-8.8937660">
        <ele>37.3</ele>
        <time>2021-05-19T10:28:33Z</time>
      </trkpt>
      <trkpt lat="42.0779810" lon="-8.8937660">
        <ele>37.3</ele>
        <time>2021-05-19T10:28:34Z</time>
      </trkpt>
      <trkpt lat="42.0779830" lon="-8.8937680">
        <ele>37.3</ele>
        <time>2021-05-19T10:28:35Z</time>
      </trkpt>
      <trkpt lat="42.0779830" lon="-8.8937680">
        <ele>37.3</ele>
        <time>2021-05-19T10:28:36Z</time>
      </trkpt>
      <trkpt lat="42.0779840" lon="-8.8937680">
        <ele>37.3</ele>
        <time>2021-05-19T10:28:37Z</time>
      </trkpt>
      <trkpt lat="42.0779840" lon="-8.8937690">
        <ele>37.3</ele>
        <time>2021-05-19T10:28:38Z</time>
      </trkpt>
      <trkpt lat="42.0779840" lon="-8.8937660">
        <ele>37.3</ele>
        <time>2021-05-19T10:28:39Z</time>
      </trkpt>
      <trkpt lat="42.0779830" lon="-8.8937670">
        <ele>37.3</ele>
        <time>2021-05-19T10:28:40Z</time>
      </trkpt>
      <trkpt lat="42.0779830" lon="-8.8937620">
        <ele>37.3</ele>
        <time>2021-05-19T10:28:41Z</time>
      </trkpt>
      <trkpt lat="42.0779830" lon="-8.8937620">
        <ele>37.3</ele>
        <time>2021-05-19T10:28:42Z</time>
      </trkpt>
      <trkpt lat="42.0779830" lon="-8.8937620">
        <ele>37.3</ele>
        <time>2021-05-19T10:28:43Z</time>
      </trkpt>
      <trkpt lat="42.0779830" lon="-8.8937620">
        <ele>37.3</ele>
        <time>2021-05-19T10:28:44Z</time>
      </trkpt>
      <trkpt lat="42.0779830" lon="-8.8937620">
        <ele>37.3</ele>
        <time>2021-05-19T10:28:45Z</time>
      </trkpt>
      <trkpt lat="42.0779830" lon="-8.8937620">
        <ele>37.3</ele>
        <time>2021-05-19T10:28:46Z</time>
      </trkpt>
      <trkpt lat="42.0779830" lon="-8.8937620">
        <ele>37.3</ele>
        <time>2021-05-19T10:28:47Z</time>
      </trkpt>
      <trkpt lat="42.0779830" lon="-8.8937620">
        <ele>37.3</ele>
        <time>2021-05-19T10:28:48Z</time>
      </trkpt>
      <trkpt lat="42.0779830" lon="-8.8937620">
        <ele>37.3</ele>
        <time>2021-05-19T10:28:49Z</time>
      </trkpt>
      <trkpt lat="42.0779830" lon="-8.8937620">
        <ele>37.3</ele>
        <time>2021-05-19T10:28:50Z</time>
      </trkpt>
      <trkpt lat="42.0779830" lon="-8.8937620">
        <ele>37.3</ele>
        <time>2021-05-19T10:28:51Z</time>
      </trkpt>
      <trkpt lat="42.0779830" lon="-8.8937620">
        <ele>37.3</ele>
        <time>2021-05-19T10:28:52Z</time>
      </trkpt>
      <trkpt lat="42.0779830" lon="-8.8937620">
        <ele>37.3</ele>
        <time>2021-05-19T10:28:53Z</time>
      </trkpt>
      <trkpt lat="42.0779830" lon="-8.8937620">
        <ele>37.3</ele>
        <time>2021-05-19T10:28:54Z</time>
      </trkpt>
      <trkpt lat="42.0779830" lon="-8.8937620">
        <ele>37.3</ele>
        <time>2021-05-19T10:28:55Z</time>
      </trkpt>
      <trkpt lat="42.0779830" lon="-8.8937620">
        <ele>37.3</ele>
        <time>2021-05-19T10:28:56Z</time>
      </trkpt>
      <trkpt lat="42.0779830" lon="-8.8937620">
        <ele>37.3</ele>
        <time>2021-05-19T10:28:57Z</time>
      </trkpt>
      <trkpt lat="42.0779830" lon="-8.8937620">
        <ele>37.3</ele>
        <time>2021-05-19T10:28:58Z</time>
      </trkpt>
      <trkpt lat="42.0779830" lon="-8.8937620">
        <ele>37.3</ele>
        <time>2021-05-19T10:28:59Z</time>
      </trkpt>
      <trkpt lat="42.0779830" lon="-8.8937620">
        <ele>37.3</ele>
        <time>2021-05-19T10:29:00Z</time>
      </trkpt>
      <trkpt lat="42.0779830" lon="-8.8937620">
        <ele>37.3</ele>
        <time>2021-05-19T10:29:01Z</time>
      </trkpt>
      <trkpt lat="42.0779830" lon="-8.8937620">
        <ele>37.3</ele>
        <time>2021-05-19T10:29:02Z</time>
      </trkpt>
      <trkpt lat="42.0779830" lon="-8.8937620">
        <ele>37.3</ele>
        <time>2021-05-19T10:29:03Z</time>
      </trkpt>
      <trkpt lat="42.0779830" lon="-8.8937620">
        <ele>37.3</ele>
        <time>2021-05-19T10:29:04Z</time>
      </trkpt>
      <trkpt lat="42.0779830" lon="-8.8937620">
        <ele>37.3</ele>
        <time>2021-05-19T10:29:05Z</time>
      </trkpt>
      <trkpt lat="42.0779830" lon="-8.8937620">
        <ele>37.3</ele>
        <time>2021-05-19T10:29:06Z</time>
      </trkpt>
      <trkpt lat="42.0779830" lon="-8.8937620">
        <ele>37.3</ele>
        <time>2021-05-19T10:29:07Z</time>
      </trkpt>
      <trkpt lat="42.0779830" lon="-8.8937620">
        <ele>37.3</ele>
        <time>2021-05-19T10:29:08Z</time>
      </trkpt>
      <trkpt lat="42.0779830" lon="-8.8937620">
        <ele>37.3</ele>
        <time>2021-05-19T10:29:09Z</time>
      </trkpt>
      <trkpt lat="42.0779830" lon="-8.8937620">
        <ele>37.3</ele>
        <time>2021-05-19T10:29:10Z</time>
      </trkpt>
      <trkpt lat="42.0779830" lon="-8.8937620">
        <ele>37.3</ele>
        <time>2021-05-19T10:29:11Z</time>
      </trkpt>
      <trkpt lat="42.0779830" lon="-8.8937620">
        <ele>37.3</ele>
        <time>2021-05-19T10:29:12Z</time>
      </trkpt>
      <trkpt lat="42.0779780" lon="-8.8937620">
        <ele>37.3</ele>
        <time>2021-05-19T10:29:13Z</time>
      </trkpt>
      <trkpt lat="42.0779780" lon="-8.8937610">
        <ele>37.3</ele>
        <time>2021-05-19T10:29:14Z</time>
      </trkpt>
      <trkpt lat="42.0779790" lon="-8.8937560">
        <ele>37.3</ele>
        <time>2021-05-19T10:29:15Z</time>
      </trkpt>
      <trkpt lat="42.0779790" lon="-8.8937570">
        <ele>37.3</ele>
        <time>2021-05-19T10:29:16Z</time>
      </trkpt>
      <trkpt lat="42.0779790" lon="-8.8937610">
        <ele>37.3</ele>
        <time>2021-05-19T10:29:17Z</time>
      </trkpt>
      <trkpt lat="42.0779790" lon="-8.8937610">
        <ele>37.3</ele>
        <time>2021-05-19T10:29:18Z</time>
      </trkpt>
      <trkpt lat="42.0779810" lon="-8.8937690">
        <ele>37.3</ele>
        <time>2021-05-19T10:29:19Z</time>
      </trkpt>
      <trkpt lat="42.0779830" lon="-8.8937690">
        <ele>37.3</ele>
        <time>2021-05-19T10:29:20Z</time>
      </trkpt>
      <trkpt lat="42.0779810" lon="-8.8937700">
        <ele>37.3</ele>
        <time>2021-05-19T10:29:21Z</time>
      </trkpt>
      <trkpt lat="42.0779810" lon="-8.8937670">
        <ele>37.3</ele>
        <time>2021-05-19T10:29:22Z</time>
      </trkpt>
      <trkpt lat="42.0779800" lon="-8.8937700">
        <ele>37.3</ele>
        <time>2021-05-19T10:29:23Z</time>
      </trkpt>
      <trkpt lat="42.0779790" lon="-8.8937680">
        <ele>37.3</ele>
        <time>2021-05-19T10:29:24Z</time>
      </trkpt>
      <trkpt lat="42.0779790" lon="-8.8937690">
        <ele>37.3</ele>
        <time>2021-05-19T10:29:25Z</time>
      </trkpt>
      <trkpt lat="42.0779770" lon="-8.8937730">
        <ele>37.3</ele>
        <time>2021-05-19T10:29:26Z</time>
      </trkpt>
      <trkpt lat="42.0779770" lon="-8.8937740">
        <ele>37.3</ele>
        <time>2021-05-19T10:29:27Z</time>
      </trkpt>
      <trkpt lat="42.0779770" lon="-8.8937760">
        <ele>37.3</ele>
        <time>2021-05-19T10:29:28Z</time>
      </trkpt>
      <trkpt lat="42.0779780" lon="-8.8937780">
        <ele>37.3</ele>
        <time>2021-05-19T10:29:29Z</time>
      </trkpt>
      <trkpt lat="42.0779780" lon="-8.8937810">
        <ele>37.3</ele>
        <time>2021-05-19T10:29:30Z</time>
      </trkpt>
      <trkpt lat="42.0779780" lon="-8.8937800">
        <ele>37.3</ele>
        <time>2021-05-19T10:29:31Z</time>
      </trkpt>
      <trkpt lat="42.0779770" lon="-8.8937830">
        <ele>37.3</ele>
        <time>2021-05-19T10:29:32Z</time>
      </trkpt>
      <trkpt lat="42.0779770" lon="-8.8937830">
        <ele>37.3</ele>
        <time>2021-05-19T10:29:33Z</time>
      </trkpt>
      <trkpt lat="42.0779770" lon="-8.8937830">
        <ele>37.3</ele>
        <time>2021-05-19T10:29:34Z</time>
      </trkpt>
      <trkpt lat="42.0779770" lon="-8.8937830">
        <ele>37.3</ele>
        <time>2021-05-19T10:29:35Z</time>
      </trkpt>
      <trkpt lat="42.0779770" lon="-8.8937840">
        <ele>37.3</ele>
        <time>2021-05-19T10:29:36Z</time>
      </trkpt>
      <trkpt lat="42.0779770" lon="-8.8937860">
        <ele>37.3</ele>
        <time>2021-05-19T10:29:37Z</time>
      </trkpt>
      <trkpt lat="42.0779770" lon="-8.8937860">
        <ele>37.3</ele>
        <time>2021-05-19T10:29:38Z</time>
      </trkpt>
      <trkpt lat="42.0779770" lon="-8.8937850">
        <ele>37.3</ele>
        <time>2021-05-19T10:29:39Z</time>
      </trkpt>
      <trkpt lat="42.0779770" lon="-8.8937850">
        <ele>37.3</ele>
        <time>2021-05-19T10:29:40Z</time>
      </trkpt>
      <trkpt lat="42.0779760" lon="-8.8937860">
        <ele>37.3</ele>
        <time>2021-05-19T10:29:41Z</time>
      </trkpt>
      <trkpt lat="42.0779760" lon="-8.8937870">
        <ele>37.3</ele>
        <time>2021-05-19T10:29:42Z</time>
      </trkpt>
      <trkpt lat="42.0779780" lon="-8.8937860">
        <ele>37.3</ele>
        <time>2021-05-19T10:29:43Z</time>
      </trkpt>
      <trkpt lat="42.0779790" lon="-8.8937850">
        <ele>37.3</ele>
        <time>2021-05-19T10:29:44Z</time>
      </trkpt>
      <trkpt lat="42.0779810" lon="-8.8937830">
        <ele>37.3</ele>
        <time>2021-05-19T10:29:45Z</time>
      </trkpt>
      <trkpt lat="42.0779820" lon="-8.8937830">
        <ele>37.3</ele>
        <time>2021-05-19T10:29:46Z</time>
      </trkpt>
      <trkpt lat="42.0779810" lon="-8.8937840">
        <ele>37.3</ele>
        <time>2021-05-19T10:29:47Z</time>
      </trkpt>
      <trkpt lat="42.0779820" lon="-8.8937810">
        <ele>37.3</ele>
        <time>2021-05-19T10:29:48Z</time>
      </trkpt>
      <trkpt lat="42.0779820" lon="-8.8937790">
        <ele>37.3</ele>
        <time>2021-05-19T10:29:49Z</time>
      </trkpt>
      <trkpt lat="42.0779840" lon="-8.8937770">
        <ele>37.3</ele>
        <time>2021-05-19T10:29:50Z</time>
      </trkpt>
      <trkpt lat="42.0779850" lon="-8.8937740">
        <ele>37.3</ele>
        <time>2021-05-19T10:29:51Z</time>
      </trkpt>
      <trkpt lat="42.0779850" lon="-8.8937720">
        <ele>37.3</ele>
        <time>2021-05-19T10:29:52Z</time>
      </trkpt>
      <trkpt lat="42.0779850" lon="-8.8937700">
        <ele>37.3</ele>
        <time>2021-05-19T10:29:53Z</time>
      </trkpt>
      <trkpt lat="42.0779860" lon="-8.8937680">
        <ele>37.3</ele>
        <time>2021-05-19T10:29:54Z</time>
      </trkpt>
      <trkpt lat="42.0779860" lon="-8.8937660">
        <ele>37.3</ele>
        <time>2021-05-19T10:29:55Z</time>
      </trkpt>
      <trkpt lat="42.0779870" lon="-8.8937620">
        <ele>37.3</ele>
        <time>2021-05-19T10:29:56Z</time>
      </trkpt>
      <trkpt lat="42.0779860" lon="-8.8937630">
        <ele>37.3</ele>
        <time>2021-05-19T10:29:57Z</time>
      </trkpt>
      <trkpt lat="42.0779870" lon="-8.8937610">
        <ele>37.3</ele>
        <time>2021-05-19T10:29:58Z</time>
      </trkpt>
      <trkpt lat="42.0779860" lon="-8.8937640">
        <ele>37.3</ele>
        <time>2021-05-19T10:29:59Z</time>
      </trkpt>
      <trkpt lat="42.0779860" lon="-8.8937650">
        <ele>37.3</ele>
        <time>2021-05-19T10:30:00Z</time>
      </trkpt>
      <trkpt lat="42.0779880" lon="-8.8937640">
        <ele>37.3</ele>
        <time>2021-05-19T10:30:01Z</time>
      </trkpt>
      <trkpt lat="42.0779880" lon="-8.8937660">
        <ele>37.3</ele>
        <time>2021-05-19T10:30:02Z</time>
      </trkpt>
      <trkpt lat="42.0779870" lon="-8.8937690">
        <ele>37.3</ele>
        <time>2021-05-19T10:30:03Z</time>
      </trkpt>
      <trkpt lat="42.0779870" lon="-8.8937700">
        <ele>37.3</ele>
        <time>2021-05-19T10:30:04Z</time>
      </trkpt>
      <trkpt lat="42.0779850" lon="-8.8937680">
        <ele>37.3</ele>
        <time>2021-05-19T10:30:05Z</time>
      </trkpt>
      <trkpt lat="42.0779850" lon="-8.8937750">
        <ele>37.3</ele>
        <time>2021-05-19T10:30:06Z</time>
      </trkpt>
      <trkpt lat="42.0779890" lon="-8.8937650">
        <ele>37.3</ele>
        <time>2021-05-19T10:30:07Z</time>
      </trkpt>
      <trkpt lat="42.0779860" lon="-8.8937650">
        <ele>37.3</ele>
        <time>2021-05-19T10:30:08Z</time>
      </trkpt>
      <trkpt lat="42.0779870" lon="-8.8937680">
        <ele>37.3</ele>
        <time>2021-05-19T10:30:09Z</time>
      </trkpt>
      <trkpt lat="42.0779860" lon="-8.8937710">
        <ele>37.3</ele>
        <time>2021-05-19T10:30:10Z</time>
      </trkpt>
      <trkpt lat="42.0779860" lon="-8.8937700">
        <ele>37.3</ele>
        <time>2021-05-19T10:30:11Z</time>
      </trkpt>
      <trkpt lat="42.0779870" lon="-8.8937670">
        <ele>37.3</ele>
        <time>2021-05-19T10:30:12Z</time>
      </trkpt>
      <trkpt lat="42.0779870" lon="-8.8937630">
        <ele>37.3</ele>
        <time>2021-05-19T10:30:13Z</time>
      </trkpt>
      <trkpt lat="42.0779850" lon="-8.8937630">
        <ele>37.3</ele>
        <time>2021-05-19T10:30:14Z</time>
      </trkpt>
      <trkpt lat="42.0779840" lon="-8.8937670">
        <ele>37.3</ele>
        <time>2021-05-19T10:30:15Z</time>
      </trkpt>
      <trkpt lat="42.0779830" lon="-8.8937700">
        <ele>37.3</ele>
        <time>2021-05-19T10:30:16Z</time>
      </trkpt>
      <trkpt lat="42.0779820" lon="-8.8937730">
        <ele>37.3</ele>
        <time>2021-05-19T10:30:17Z</time>
      </trkpt>
      <trkpt lat="42.0779810" lon="-8.8937760">
        <ele>37.3</ele>
        <time>2021-05-19T10:30:18Z</time>
      </trkpt>
      <trkpt lat="42.0779810" lon="-8.8937750">
        <ele>37.3</ele>
        <time>2021-05-19T10:30:19Z</time>
      </trkpt>
      <trkpt lat="42.0779760" lon="-8.8937790">
        <ele>37.3</ele>
        <time>2021-05-19T10:30:20Z</time>
      </trkpt>
      <trkpt lat="42.0779760" lon="-8.8937760">
        <ele>37.3</ele>
        <time>2021-05-19T10:30:21Z</time>
      </trkpt>
      <trkpt lat="42.0779740" lon="-8.8937770">
        <ele>37.3</ele>
        <time>2021-05-19T10:30:22Z</time>
      </trkpt>
      <trkpt lat="42.0779760" lon="-8.8937770">
        <ele>37.3</ele>
        <time>2021-05-19T10:30:23Z</time>
      </trkpt>
      <trkpt lat="42.0779760" lon="-8.8937790">
        <ele>37.3</ele>
        <time>2021-05-19T10:30:24Z</time>
      </trkpt>
      <trkpt lat="42.0779770" lon="-8.8937780">
        <ele>37.3</ele>
        <time>2021-05-19T10:30:25Z</time>
      </trkpt>
      <trkpt lat="42.0779770" lon="-8.8937800">
        <ele>37.3</ele>
        <time>2021-05-19T10:30:26Z</time>
      </trkpt>
      <trkpt lat="42.0779770" lon="-8.8937790">
        <ele>37.3</ele>
        <time>2021-05-19T10:30:27Z</time>
      </trkpt>
      <trkpt lat="42.0779770" lon="-8.8937790">
        <ele>37.3</ele>
        <time>2021-05-19T10:30:28Z</time>
      </trkpt>
      <trkpt lat="42.0779780" lon="-8.8937760">
        <ele>37.3</ele>
        <time>2021-05-19T10:30:29Z</time>
      </trkpt>
      <trkpt lat="42.0779790" lon="-8.8937760">
        <ele>37.3</ele>
        <time>2021-05-19T10:30:30Z</time>
      </trkpt>
      <trkpt lat="42.0779790" lon="-8.8937740">
        <ele>37.3</ele>
        <time>2021-05-19T10:30:31Z</time>
      </trkpt>
      <trkpt lat="42.0779780" lon="-8.8937720">
        <ele>37.3</ele>
        <time>2021-05-19T10:30:32Z</time>
      </trkpt>
      <trkpt lat="42.0779780" lon="-8.8937710">
        <ele>37.3</ele>
        <time>2021-05-19T10:30:33Z</time>
      </trkpt>
      <trkpt lat="42.0779780" lon="-8.8937710">
        <ele>37.3</ele>
        <time>2021-05-19T10:30:34Z</time>
      </trkpt>
      <trkpt lat="42.0779780" lon="-8.8937730">
        <ele>37.3</ele>
        <time>2021-05-19T10:30:35Z</time>
      </trkpt>
      <trkpt lat="42.0779770" lon="-8.8937710">
        <ele>37.3</ele>
        <time>2021-05-19T10:30:36Z</time>
      </trkpt>
      <trkpt lat="42.0779760" lon="-8.8937690">
        <ele>37.3</ele>
        <time>2021-05-19T10:30:37Z</time>
      </trkpt>
      <trkpt lat="42.0779760" lon="-8.8937690">
        <ele>37.3</ele>
        <time>2021-05-19T10:30:38Z</time>
      </trkpt>
      <trkpt lat="42.0779770" lon="-8.8937720">
        <ele>37.3</ele>
        <time>2021-05-19T10:30:39Z</time>
      </trkpt>
      <trkpt lat="42.0779770" lon="-8.8937720">
        <ele>37.3</ele>
        <time>2021-05-19T10:30:40Z</time>
      </trkpt>
      <trkpt lat="42.0779760" lon="-8.8937710">
        <ele>37.3</ele>
        <time>2021-05-19T10:30:41Z</time>
      </trkpt>
      <trkpt lat="42.0779760" lon="-8.8937710">
        <ele>37.3</ele>
        <time>2021-05-19T10:30:42Z</time>
      </trkpt>
      <trkpt lat="42.0779760" lon="-8.8937720">
        <ele>37.3</ele>
        <time>2021-05-19T10:30:43Z</time>
      </trkpt>
      <trkpt lat="42.0779760" lon="-8.8937740">
        <ele>37.3</ele>
        <time>2021-05-19T10:30:44Z</time>
      </trkpt>
      <trkpt lat="42.0779750" lon="-8.8937730">
        <ele>37.3</ele>
        <time>2021-05-19T10:30:45Z</time>
      </trkpt>
      <trkpt lat="42.0779740" lon="-8.8937750">
        <ele>37.3</ele>
        <time>2021-05-19T10:30:46Z</time>
      </trkpt>
      <trkpt lat="42.0779740" lon="-8.8937770">
        <ele>37.2</ele>
        <time>2021-05-19T10:30:47Z</time>
      </trkpt>
      <trkpt lat="42.0779730" lon="-8.8937790">
        <ele>37.2</ele>
        <time>2021-05-19T10:30:48Z</time>
      </trkpt>
      <trkpt lat="42.0779730" lon="-8.8937800">
        <ele>37.2</ele>
        <time>2021-05-19T10:30:49Z</time>
      </trkpt>
      <trkpt lat="42.0779730" lon="-8.8937800">
        <ele>37.2</ele>
        <time>2021-05-19T10:30:50Z</time>
      </trkpt>
      <trkpt lat="42.0779730" lon="-8.8937850">
        <ele>37.2</ele>
        <time>2021-05-19T10:30:51Z</time>
      </trkpt>
      <trkpt lat="42.0779730" lon="-8.8937840">
        <ele>37.2</ele>
        <time>2021-05-19T10:30:52Z</time>
      </trkpt>
      <trkpt lat="42.0779740" lon="-8.8937830">
        <ele>37.2</ele>
        <time>2021-05-19T10:30:53Z</time>
      </trkpt>
      <trkpt lat="42.0779750" lon="-8.8937830">
        <ele>37.2</ele>
        <time>2021-05-19T10:30:54Z</time>
      </trkpt>
      <trkpt lat="42.0779750" lon="-8.8937850">
        <ele>37.2</ele>
        <time>2021-05-19T10:30:55Z</time>
      </trkpt>
      <trkpt lat="42.0779750" lon="-8.8937850">
        <ele>37.2</ele>
        <time>2021-05-19T10:30:56Z</time>
      </trkpt>
      <trkpt lat="42.0779760" lon="-8.8937870">
        <ele>37.2</ele>
        <time>2021-05-19T10:30:57Z</time>
      </trkpt>
      <trkpt lat="42.0779740" lon="-8.8937890">
        <ele>37.2</ele>
        <time>2021-05-19T10:30:58Z</time>
      </trkpt>
      <trkpt lat="42.0779760" lon="-8.8937880">
        <ele>37.2</ele>
        <time>2021-05-19T10:30:59Z</time>
      </trkpt>
      <trkpt lat="42.0779750" lon="-8.8937890">
        <ele>37.2</ele>
        <time>2021-05-19T10:31:00Z</time>
      </trkpt>
      <trkpt lat="42.0779740" lon="-8.8937870">
        <ele>37.2</ele>
        <time>2021-05-19T10:31:01Z</time>
      </trkpt>
      <trkpt lat="42.0779740" lon="-8.8937870">
        <ele>37.2</ele>
        <time>2021-05-19T10:31:02Z</time>
      </trkpt>
      <trkpt lat="42.0779750" lon="-8.8937850">
        <ele>37.2</ele>
        <time>2021-05-19T10:31:03Z</time>
      </trkpt>
      <trkpt lat="42.0779740" lon="-8.8937870">
        <ele>37.2</ele>
        <time>2021-05-19T10:31:04Z</time>
      </trkpt>
      <trkpt lat="42.0779740" lon="-8.8937870">
        <ele>37.2</ele>
        <time>2021-05-19T10:31:05Z</time>
      </trkpt>
      <trkpt lat="42.0779740" lon="-8.8937870">
        <ele>37.2</ele>
        <time>2021-05-19T10:31:06Z</time>
      </trkpt>
      <trkpt lat="42.0779750" lon="-8.8937840">
        <ele>37.2</ele>
        <time>2021-05-19T10:31:07Z</time>
      </trkpt>
      <trkpt lat="42.0779730" lon="-8.8937840">
        <ele>37.2</ele>
        <time>2021-05-19T10:31:08Z</time>
      </trkpt>
      <trkpt lat="42.0779730" lon="-8.8937840">
        <ele>37.2</ele>
        <time>2021-05-19T10:31:09Z</time>
      </trkpt>
      <trkpt lat="42.0779730" lon="-8.8937820">
        <ele>37.2</ele>
        <time>2021-05-19T10:31:10Z</time>
      </trkpt>
      <trkpt lat="42.0779740" lon="-8.8937800">
        <ele>37.2</ele>
        <time>2021-05-19T10:31:11Z</time>
      </trkpt>
      <trkpt lat="42.0779740" lon="-8.8937800">
        <ele>37.2</ele>
        <time>2021-05-19T10:31:12Z</time>
      </trkpt>
      <trkpt lat="42.0779760" lon="-8.8937800">
        <ele>37.2</ele>
        <time>2021-05-19T10:31:13Z</time>
      </trkpt>
      <trkpt lat="42.0779760" lon="-8.8937770">
        <ele>37.2</ele>
        <time>2021-05-19T10:31:14Z</time>
      </trkpt>
      <trkpt lat="42.0779770" lon="-8.8937760">
        <ele>37.2</ele>
        <time>2021-05-19T10:31:15Z</time>
      </trkpt>
      <trkpt lat="42.0779770" lon="-8.8937750">
        <ele>37.2</ele>
        <time>2021-05-19T10:31:16Z</time>
      </trkpt>
      <trkpt lat="42.0779770" lon="-8.8937760">
        <ele>37.2</ele>
        <time>2021-05-19T10:31:17Z</time>
      </trkpt>
      <trkpt lat="42.0779770" lon="-8.8937760">
        <ele>37.2</ele>
        <time>2021-05-19T10:31:18Z</time>
      </trkpt>
      <trkpt lat="42.0779800" lon="-8.8937730">
        <ele>37.2</ele>
        <time>2021-05-19T10:31:19Z</time>
      </trkpt>
      <trkpt lat="42.0779790" lon="-8.8937710">
        <ele>37.2</ele>
        <time>2021-05-19T10:31:20Z</time>
      </trkpt>
      <trkpt lat="42.0779770" lon="-8.8937750">
        <ele>37.2</ele>
        <time>2021-05-19T10:31:21Z</time>
      </trkpt>
      <trkpt lat="42.0779750" lon="-8.8937730">
        <ele>37.2</ele>
        <time>2021-05-19T10:31:22Z</time>
      </trkpt>
      <trkpt lat="42.0779760" lon="-8.8937720">
        <ele>37.2</ele>
        <time>2021-05-19T10:31:23Z</time>
      </trkpt>
      <trkpt lat="42.0779770" lon="-8.8937720">
        <ele>37.2</ele>
        <time>2021-05-19T10:31:24Z</time>
      </trkpt>
      <trkpt lat="42.0779770" lon="-8.8937710">
        <ele>37.2</ele>
        <time>2021-05-19T10:31:25Z</time>
      </trkpt>
      <trkpt lat="42.0779780" lon="-8.8937700">
        <ele>37.2</ele>
        <time>2021-05-19T10:31:26Z</time>
      </trkpt>
      <trkpt lat="42.0779780" lon="-8.8937720">
        <ele>37.2</ele>
        <time>2021-05-19T10:31:27Z</time>
      </trkpt>
      <trkpt lat="42.0779780" lon="-8.8937730">
        <ele>37.2</ele>
        <time>2021-05-19T10:31:28Z</time>
      </trkpt>
      <trkpt lat="42.0779770" lon="-8.8937720">
        <ele>37.2</ele>
        <time>2021-05-19T10:31:29Z</time>
      </trkpt>
      <trkpt lat="42.0779760" lon="-8.8937730">
        <ele>37.2</ele>
        <time>2021-05-19T10:31:30Z</time>
      </trkpt>
      <trkpt lat="42.0779760" lon="-8.8937720">
        <ele>37.2</ele>
        <time>2021-05-19T10:31:31Z</time>
      </trkpt>
      <trkpt lat="42.0779760" lon="-8.8937690">
        <ele>37.2</ele>
        <time>2021-05-19T10:31:32Z</time>
      </trkpt>
      <trkpt lat="42.0779760" lon="-8.8937690">
        <ele>37.2</ele>
        <time>2021-05-19T10:31:33Z</time>
      </trkpt>
      <trkpt lat="42.0779780" lon="-8.8937720">
        <ele>37.2</ele>
        <time>2021-05-19T10:31:34Z</time>
      </trkpt>
      <trkpt lat="42.0779780" lon="-8.8937700">
        <ele>37.2</ele>
        <time>2021-05-19T10:31:35Z</time>
      </trkpt>
      <trkpt lat="42.0779790" lon="-8.8937690">
        <ele>37.2</ele>
        <time>2021-05-19T10:31:36Z</time>
      </trkpt>
      <trkpt lat="42.0779800" lon="-8.8937690">
        <ele>37.2</ele>
        <time>2021-05-19T10:31:37Z</time>
      </trkpt>
      <trkpt lat="42.0779820" lon="-8.8937690">
        <ele>37.2</ele>
        <time>2021-05-19T10:31:38Z</time>
      </trkpt>
      <trkpt lat="42.0779830" lon="-8.8937700">
        <ele>37.2</ele>
        <time>2021-05-19T10:31:39Z</time>
      </trkpt>
      <trkpt lat="42.0779830" lon="-8.8937700">
        <ele>37.2</ele>
        <time>2021-05-19T10:31:40Z</time>
      </trkpt>
      <trkpt lat="42.0779830" lon="-8.8937700">
        <ele>37.2</ele>
        <time>2021-05-19T10:31:41Z</time>
      </trkpt>
      <trkpt lat="42.0779830" lon="-8.8937690">
        <ele>37.2</ele>
        <time>2021-05-19T10:31:42Z</time>
      </trkpt>
      <trkpt lat="42.0779830" lon="-8.8937670">
        <ele>37.2</ele>
        <time>2021-05-19T10:31:43Z</time>
      </trkpt>
      <trkpt lat="42.0779830" lon="-8.8937670">
        <ele>37.2</ele>
        <time>2021-05-19T10:31:44Z</time>
      </trkpt>
      <trkpt lat="42.0779830" lon="-8.8937650">
        <ele>37.2</ele>
        <time>2021-05-19T10:31:45Z</time>
      </trkpt>
      <trkpt lat="42.0779820" lon="-8.8937640">
        <ele>37.2</ele>
        <time>2021-05-19T10:31:46Z</time>
      </trkpt>
      <trkpt lat="42.0779820" lon="-8.8937640">
        <ele>37.2</ele>
        <time>2021-05-19T10:31:47Z</time>
      </trkpt>
      <trkpt lat="42.0779830" lon="-8.8937600">
        <ele>37.2</ele>
        <time>2021-05-19T10:31:48Z</time>
      </trkpt>
      <trkpt lat="42.0779850" lon="-8.8937600">
        <ele>37.2</ele>
        <time>2021-05-19T10:31:49Z</time>
      </trkpt>
      <trkpt lat="42.0779860" lon="-8.8937610">
        <ele>37.2</ele>
        <time>2021-05-19T10:31:50Z</time>
      </trkpt>
      <trkpt lat="42.0779860" lon="-8.8937630">
        <ele>37.2</ele>
        <time>2021-05-19T10:31:51Z</time>
      </trkpt>
      <trkpt lat="42.0779870" lon="-8.8937650">
        <ele>37.2</ele>
        <time>2021-05-19T10:31:52Z</time>
      </trkpt>
      <trkpt lat="42.0779870" lon="-8.8937650">
        <ele>37.2</ele>
        <time>2021-05-19T10:31:53Z</time>
      </trkpt>
      <trkpt lat="42.0779860" lon="-8.8937670">
        <ele>37.2</ele>
        <time>2021-05-19T10:31:54Z</time>
      </trkpt>
      <trkpt lat="42.0779840" lon="-8.8937660">
        <ele>37.2</ele>
        <time>2021-05-19T10:31:55Z</time>
      </trkpt>
      <trkpt lat="42.0779840" lon="-8.8937660">
        <ele>37.2</ele>
        <time>2021-05-19T10:31:56Z</time>
      </trkpt>
      <trkpt lat="42.0779830" lon="-8.8937670">
        <ele>37.2</ele>
        <time>2021-05-19T10:31:57Z</time>
      </trkpt>
      <trkpt lat="42.0779830" lon="-8.8937670">
        <ele>37.2</ele>
        <time>2021-05-19T10:31:58Z</time>
      </trkpt>
      <trkpt lat="42.0779830" lon="-8.8937670">
        <ele>37.2</ele>
        <time>2021-05-19T10:31:59Z</time>
      </trkpt>
      <trkpt lat="42.0779830" lon="-8.8937670">
        <ele>37.2</ele>
        <time>2021-05-19T10:32:00Z</time>
      </trkpt>
      <trkpt lat="42.0779840" lon="-8.8937720">
        <ele>37.2</ele>
        <time>2021-05-19T10:32:01Z</time>
      </trkpt>
      <trkpt lat="42.0779840" lon="-8.8937720">
        <ele>37.2</ele>
        <time>2021-05-19T10:32:02Z</time>
      </trkpt>
      <trkpt lat="42.0779850" lon="-8.8937730">
        <ele>37.2</ele>
        <time>2021-05-19T10:32:03Z</time>
      </trkpt>
      <trkpt lat="42.0779850" lon="-8.8937730">
        <ele>37.2</ele>
        <time>2021-05-19T10:32:04Z</time>
      </trkpt>
      <trkpt lat="42.0779850" lon="-8.8937730">
        <ele>37.2</ele>
        <time>2021-05-19T10:32:05Z</time>
      </trkpt>
      <trkpt lat="42.0779860" lon="-8.8937760">
        <ele>37.2</ele>
        <time>2021-05-19T10:32:06Z</time>
      </trkpt>
      <trkpt lat="42.0779870" lon="-8.8937770">
        <ele>37.2</ele>
        <time>2021-05-19T10:32:07Z</time>
      </trkpt>
      <trkpt lat="42.0779870" lon="-8.8937770">
        <ele>37.2</ele>
        <time>2021-05-19T10:32:08Z</time>
      </trkpt>
      <trkpt lat="42.0779840" lon="-8.8937800">
        <ele>37.2</ele>
        <time>2021-05-19T10:32:09Z</time>
      </trkpt>
      <trkpt lat="42.0779830" lon="-8.8937810">
        <ele>37.2</ele>
        <time>2021-05-19T10:32:10Z</time>
      </trkpt>
      <trkpt lat="42.0779810" lon="-8.8937790">
        <ele>37.2</ele>
        <time>2021-05-19T10:32:11Z</time>
      </trkpt>
      <trkpt lat="42.0779800" lon="-8.8937770">
        <ele>37.2</ele>
        <time>2021-05-19T10:32:12Z</time>
      </trkpt>
      <trkpt lat="42.0779800" lon="-8.8937760">
        <ele>37.2</ele>
        <time>2021-05-19T10:32:13Z</time>
      </trkpt>
      <trkpt lat="42.0779790" lon="-8.8937760">
        <ele>37.2</ele>
        <time>2021-05-19T10:32:14Z</time>
      </trkpt>
      <trkpt lat="42.0779810" lon="-8.8937770">
        <ele>37.2</ele>
        <time>2021-05-19T10:32:15Z</time>
      </trkpt>
      <trkpt lat="42.0779800" lon="-8.8937760">
        <ele>37.2</ele>
        <time>2021-05-19T10:32:16Z</time>
      </trkpt>
      <trkpt lat="42.0779810" lon="-8.8937750">
        <ele>37.2</ele>
        <time>2021-05-19T10:32:17Z</time>
      </trkpt>
      <trkpt lat="42.0779810" lon="-8.8937750">
        <ele>37.2</ele>
        <time>2021-05-19T10:32:18Z</time>
      </trkpt>
      <trkpt lat="42.0779790" lon="-8.8937720">
        <ele>37.2</ele>
        <time>2021-05-19T10:32:19Z</time>
      </trkpt>
      <trkpt lat="42.0779790" lon="-8.8937710">
        <ele>37.2</ele>
        <time>2021-05-19T10:32:20Z</time>
      </trkpt>
      <trkpt lat="42.0779790" lon="-8.8937680">
        <ele>37.2</ele>
        <time>2021-05-19T10:32:21Z</time>
      </trkpt>
      <trkpt lat="42.0779790" lon="-8.8937660">
        <ele>37.2</ele>
        <time>2021-05-19T10:32:22Z</time>
      </trkpt>
      <trkpt lat="42.0779790" lon="-8.8937640">
        <ele>37.2</ele>
        <time>2021-05-19T10:32:23Z</time>
      </trkpt>
      <trkpt lat="42.0779800" lon="-8.8937650">
        <ele>37.2</ele>
        <time>2021-05-19T10:32:24Z</time>
      </trkpt>
      <trkpt lat="42.0779810" lon="-8.8937660">
        <ele>37.2</ele>
        <time>2021-05-19T10:32:25Z</time>
      </trkpt>
      <trkpt lat="42.0779820" lon="-8.8937660">
        <ele>37.2</ele>
        <time>2021-05-19T10:32:26Z</time>
      </trkpt>
      <trkpt lat="42.0779810" lon="-8.8937660">
        <ele>37.2</ele>
        <time>2021-05-19T10:32:27Z</time>
      </trkpt>
      <trkpt lat="42.0779800" lon="-8.8937660">
        <ele>37.2</ele>
        <time>2021-05-19T10:32:28Z</time>
      </trkpt>
      <trkpt lat="42.0779800" lon="-8.8937660">
        <ele>37.2</ele>
        <time>2021-05-19T10:32:29Z</time>
      </trkpt>
      <trkpt lat="42.0779790" lon="-8.8937670">
        <ele>37.2</ele>
        <time>2021-05-19T10:32:30Z</time>
      </trkpt>
      <trkpt lat="42.0779790" lon="-8.8937680">
        <ele>37.2</ele>
        <time>2021-05-19T10:32:31Z</time>
      </trkpt>
      <trkpt lat="42.0779800" lon="-8.8937700">
        <ele>37.2</ele>
        <time>2021-05-19T10:32:32Z</time>
      </trkpt>
      <trkpt lat="42.0779790" lon="-8.8937720">
        <ele>37.2</ele>
        <time>2021-05-19T10:32:33Z</time>
      </trkpt>
      <trkpt lat="42.0779790" lon="-8.8937740">
        <ele>37.2</ele>
        <time>2021-05-19T10:32:34Z</time>
      </trkpt>
      <trkpt lat="42.0779810" lon="-8.8937760">
        <ele>37.2</ele>
        <time>2021-05-19T10:32:35Z</time>
      </trkpt>
      <trkpt lat="42.0779800" lon="-8.8937730">
        <ele>37.2</ele>
        <time>2021-05-19T10:32:36Z</time>
      </trkpt>
      <trkpt lat="42.0779810" lon="-8.8937750">
        <ele>37.2</ele>
        <time>2021-05-19T10:32:37Z</time>
      </trkpt>
      <trkpt lat="42.0779810" lon="-8.8937780">
        <ele>37.2</ele>
        <time>2021-05-19T10:32:38Z</time>
      </trkpt>
      <trkpt lat="42.0779800" lon="-8.8937780">
        <ele>37.2</ele>
        <time>2021-05-19T10:32:39Z</time>
      </trkpt>
      <trkpt lat="42.0779800" lon="-8.8937770">
        <ele>37.2</ele>
        <time>2021-05-19T10:32:40Z</time>
      </trkpt>
      <trkpt lat="42.0779810" lon="-8.8937800">
        <ele>37.2</ele>
        <time>2021-05-19T10:32:41Z</time>
      </trkpt>
      <trkpt lat="42.0779830" lon="-8.8937800">
        <ele>37.2</ele>
        <time>2021-05-19T10:32:42Z</time>
      </trkpt>
      <trkpt lat="42.0779830" lon="-8.8937790">
        <ele>37.2</ele>
        <time>2021-05-19T10:32:43Z</time>
      </trkpt>
      <trkpt lat="42.0779830" lon="-8.8937780">
        <ele>37.2</ele>
        <time>2021-05-19T10:32:44Z</time>
      </trkpt>
      <trkpt lat="42.0779880" lon="-8.8937770">
        <ele>37.2</ele>
        <time>2021-05-19T10:32:45Z</time>
      </trkpt>
      <trkpt lat="42.0779880" lon="-8.8937660">
        <ele>37.2</ele>
        <time>2021-05-19T10:32:46Z</time>
      </trkpt>
      <trkpt lat="42.0779860" lon="-8.8937660">
        <ele>37.2</ele>
        <time>2021-05-19T10:32:47Z</time>
      </trkpt>
      <trkpt lat="42.0779880" lon="-8.8937660">
        <ele>37.2</ele>
        <time>2021-05-19T10:32:48Z</time>
      </trkpt>
      <trkpt lat="42.0779870" lon="-8.8937640">
        <ele>37.2</ele>
        <time>2021-05-19T10:32:49Z</time>
      </trkpt>
      <trkpt lat="42.0779850" lon="-8.8937610">
        <ele>37.2</ele>
        <time>2021-05-19T10:32:50Z</time>
      </trkpt>
      <trkpt lat="42.0779840" lon="-8.8937590">
        <ele>37.2</ele>
        <time>2021-05-19T10:32:51Z</time>
      </trkpt>
      <trkpt lat="42.0779860" lon="-8.8937600">
        <ele>37.2</ele>
        <time>2021-05-19T10:32:52Z</time>
      </trkpt>
      <trkpt lat="42.0779870" lon="-8.8937600">
        <ele>37.2</ele>
        <time>2021-05-19T10:32:53Z</time>
      </trkpt>
      <trkpt lat="42.0779860" lon="-8.8937590">
        <ele>37.2</ele>
        <time>2021-05-19T10:32:54Z</time>
      </trkpt>
      <trkpt lat="42.0779870" lon="-8.8937580">
        <ele>37.2</ele>
        <time>2021-05-19T10:32:55Z</time>
      </trkpt>
      <trkpt lat="42.0779850" lon="-8.8937560">
        <ele>37.2</ele>
        <time>2021-05-19T10:32:56Z</time>
      </trkpt>
      <trkpt lat="42.0779840" lon="-8.8937550">
        <ele>37.2</ele>
        <time>2021-05-19T10:32:57Z</time>
      </trkpt>
      <trkpt lat="42.0779820" lon="-8.8937530">
        <ele>37.2</ele>
        <time>2021-05-19T10:32:58Z</time>
      </trkpt>
      <trkpt lat="42.0779840" lon="-8.8937520">
        <ele>37.2</ele>
        <time>2021-05-19T10:32:59Z</time>
      </trkpt>
      <trkpt lat="42.0779840" lon="-8.8937490">
        <ele>37.2</ele>
        <time>2021-05-19T10:33:00Z</time>
      </trkpt>
      <trkpt lat="42.0779850" lon="-8.8937460">
        <ele>37.2</ele>
        <time>2021-05-19T10:33:01Z</time>
      </trkpt>
      <trkpt lat="42.0779840" lon="-8.8937450">
        <ele>37.2</ele>
        <time>2021-05-19T10:33:02Z</time>
      </trkpt>
      <trkpt lat="42.0779830" lon="-8.8937450">
        <ele>37.2</ele>
        <time>2021-05-19T10:33:03Z</time>
      </trkpt>
      <trkpt lat="42.0779820" lon="-8.8937430">
        <ele>37.2</ele>
        <time>2021-05-19T10:33:04Z</time>
      </trkpt>
      <trkpt lat="42.0779820" lon="-8.8937430">
        <ele>37.2</ele>
        <time>2021-05-19T10:33:05Z</time>
      </trkpt>
      <trkpt lat="42.0779820" lon="-8.8937420">
        <ele>37.2</ele>
        <time>2021-05-19T10:33:06Z</time>
      </trkpt>
      <trkpt lat="42.0779800" lon="-8.8937420">
        <ele>37.2</ele>
        <time>2021-05-19T10:33:07Z</time>
      </trkpt>
      <trkpt lat="42.0779800" lon="-8.8937420">
        <ele>37.2</ele>
        <time>2021-05-19T10:33:08Z</time>
      </trkpt>
      <trkpt lat="42.0779800" lon="-8.8937410">
        <ele>37.2</ele>
        <time>2021-05-19T10:33:09Z</time>
      </trkpt>
      <trkpt lat="42.0779800" lon="-8.8937410">
        <ele>37.2</ele>
        <time>2021-05-19T10:33:10Z</time>
      </trkpt>
      <trkpt lat="42.0779800" lon="-8.8937390">
        <ele>37.2</ele>
        <time>2021-05-19T10:33:11Z</time>
      </trkpt>
      <trkpt lat="42.0779790" lon="-8.8937400">
        <ele>37.2</ele>
        <time>2021-05-19T10:33:12Z</time>
      </trkpt>
      <trkpt lat="42.0779790" lon="-8.8937400">
        <ele>37.2</ele>
        <time>2021-05-19T10:33:13Z</time>
      </trkpt>
      <trkpt lat="42.0779800" lon="-8.8937410">
        <ele>37.2</ele>
        <time>2021-05-19T10:33:14Z</time>
      </trkpt>
      <trkpt lat="42.0779790" lon="-8.8937420">
        <ele>37.2</ele>
        <time>2021-05-19T10:33:15Z</time>
      </trkpt>
      <trkpt lat="42.0779790" lon="-8.8937410">
        <ele>37.2</ele>
        <time>2021-05-19T10:33:16Z</time>
      </trkpt>
      <trkpt lat="42.0779790" lon="-8.8937420">
        <ele>37.2</ele>
        <time>2021-05-19T10:33:17Z</time>
      </trkpt>
      <trkpt lat="42.0779770" lon="-8.8937460">
        <ele>37.2</ele>
        <time>2021-05-19T10:33:18Z</time>
      </trkpt>
      <trkpt lat="42.0779770" lon="-8.8937490">
        <ele>37.2</ele>
        <time>2021-05-19T10:33:19Z</time>
      </trkpt>
      <trkpt lat="42.0779790" lon="-8.8937540">
        <ele>37.2</ele>
        <time>2021-05-19T10:33:20Z</time>
      </trkpt>
      <trkpt lat="42.0779770" lon="-8.8937560">
        <ele>37.2</ele>
        <time>2021-05-19T10:33:21Z</time>
      </trkpt>
      <trkpt lat="42.0779780" lon="-8.8937520">
        <ele>37.2</ele>
        <time>2021-05-19T10:33:22Z</time>
      </trkpt>
      <trkpt lat="42.0779780" lon="-8.8937530">
        <ele>37.2</ele>
        <time>2021-05-19T10:33:23Z</time>
      </trkpt>
      <trkpt lat="42.0779790" lon="-8.8937550">
        <ele>37.2</ele>
        <time>2021-05-19T10:33:24Z</time>
      </trkpt>
      <trkpt lat="42.0779790" lon="-8.8937580">
        <ele>37.2</ele>
        <time>2021-05-19T10:33:25Z</time>
      </trkpt>
      <trkpt lat="42.0779780" lon="-8.8937600">
        <ele>37.2</ele>
        <time>2021-05-19T10:33:26Z</time>
      </trkpt>
      <trkpt lat="42.0779790" lon="-8.8937640">
        <ele>37.2</ele>
        <time>2021-05-19T10:33:27Z</time>
      </trkpt>
      <trkpt lat="42.0779800" lon="-8.8937620">
        <ele>37.2</ele>
        <time>2021-05-19T10:33:28Z</time>
      </trkpt>
      <trkpt lat="42.0779780" lon="-8.8937660">
        <ele>37.2</ele>
        <time>2021-05-19T10:33:29Z</time>
      </trkpt>
      <trkpt lat="42.0779780" lon="-8.8937690">
        <ele>37.2</ele>
        <time>2021-05-19T10:33:30Z</time>
      </trkpt>
      <trkpt lat="42.0779790" lon="-8.8937720">
        <ele>37.2</ele>
        <time>2021-05-19T10:33:31Z</time>
      </trkpt>
      <trkpt lat="42.0779790" lon="-8.8937770">
        <ele>37.2</ele>
        <time>2021-05-19T10:33:32Z</time>
      </trkpt>
      <trkpt lat="42.0779800" lon="-8.8937810">
        <ele>37.2</ele>
        <time>2021-05-19T10:33:33Z</time>
      </trkpt>
      <trkpt lat="42.0779800" lon="-8.8937810">
        <ele>37.2</ele>
        <time>2021-05-19T10:33:34Z</time>
      </trkpt>
      <trkpt lat="42.0779800" lon="-8.8937810">
        <ele>37.2</ele>
        <time>2021-05-19T10:33:35Z</time>
      </trkpt>
      <trkpt lat="42.0779790" lon="-8.8937830">
        <ele>37.2</ele>
        <time>2021-05-19T10:33:36Z</time>
      </trkpt>
      <trkpt lat="42.0779800" lon="-8.8937820">
        <ele>37.2</ele>
        <time>2021-05-19T10:33:37Z</time>
      </trkpt>
      <trkpt lat="42.0779810" lon="-8.8937820">
        <ele>37.2</ele>
        <time>2021-05-19T10:33:38Z</time>
      </trkpt>
      <trkpt lat="42.0779810" lon="-8.8937840">
        <ele>37.2</ele>
        <time>2021-05-19T10:33:39Z</time>
      </trkpt>
      <trkpt lat="42.0779810" lon="-8.8937880">
        <ele>37.2</ele>
        <time>2021-05-19T10:33:40Z</time>
      </trkpt>
      <trkpt lat="42.0779810" lon="-8.8937890">
        <ele>37.2</ele>
        <time>2021-05-19T10:33:41Z</time>
      </trkpt>
      <trkpt lat="42.0779810" lon="-8.8937910">
        <ele>37.2</ele>
        <time>2021-05-19T10:33:42Z</time>
      </trkpt>
      <trkpt lat="42.0779810" lon="-8.8937920">
        <ele>37.2</ele>
        <time>2021-05-19T10:33:43Z</time>
      </trkpt>
      <trkpt lat="42.0779820" lon="-8.8937920">
        <ele>37.2</ele>
        <time>2021-05-19T10:33:44Z</time>
      </trkpt>
      <trkpt lat="42.0779820" lon="-8.8937950">
        <ele>37.2</ele>
        <time>2021-05-19T10:33:45Z</time>
      </trkpt>
      <trkpt lat="42.0779820" lon="-8.8937940">
        <ele>37.2</ele>
        <time>2021-05-19T10:33:46Z</time>
      </trkpt>
      <trkpt lat="42.0779800" lon="-8.8937950">
        <ele>37.2</ele>
        <time>2021-05-19T10:33:47Z</time>
      </trkpt>
      <trkpt lat="42.0779800" lon="-8.8937950">
        <ele>37.2</ele>
        <time>2021-05-19T10:33:48Z</time>
      </trkpt>
      <trkpt lat="42.0779790" lon="-8.8937960">
        <ele>37.2</ele>
        <time>2021-05-19T10:33:49Z</time>
      </trkpt>
      <trkpt lat="42.0779790" lon="-8.8937950">
        <ele>37.2</ele>
        <time>2021-05-19T10:33:50Z</time>
      </trkpt>
      <trkpt lat="42.0779780" lon="-8.8937950">
        <ele>37.2</ele>
        <time>2021-05-19T10:33:51Z</time>
      </trkpt>
      <trkpt lat="42.0779790" lon="-8.8937970">
        <ele>37.2</ele>
        <time>2021-05-19T10:33:52Z</time>
      </trkpt>
      <trkpt lat="42.0779800" lon="-8.8937990">
        <ele>37.2</ele>
        <time>2021-05-19T10:33:53Z</time>
      </trkpt>
      <trkpt lat="42.0779810" lon="-8.8937980">
        <ele>37.2</ele>
        <time>2021-05-19T10:33:54Z</time>
      </trkpt>
      <trkpt lat="42.0779790" lon="-8.8938000">
        <ele>37.2</ele>
        <time>2021-05-19T10:33:55Z</time>
      </trkpt>
      <trkpt lat="42.0779810" lon="-8.8937970">
        <ele>37.2</ele>
        <time>2021-05-19T10:33:56Z</time>
      </trkpt>
      <trkpt lat="42.0779820" lon="-8.8937970">
        <ele>37.2</ele>
        <time>2021-05-19T10:33:57Z</time>
      </trkpt>
      <trkpt lat="42.0779830" lon="-8.8937960">
        <ele>37.2</ele>
        <time>2021-05-19T10:33:58Z</time>
      </trkpt>
      <trkpt lat="42.0779820" lon="-8.8937970">
        <ele>37.2</ele>
        <time>2021-05-19T10:33:59Z</time>
      </trkpt>
      <trkpt lat="42.0779820" lon="-8.8937970">
        <ele>37.2</ele>
        <time>2021-05-19T10:34:00Z</time>
      </trkpt>
      <trkpt lat="42.0779830" lon="-8.8937960">
        <ele>37.2</ele>
        <time>2021-05-19T10:34:01Z</time>
      </trkpt>
      <trkpt lat="42.0779830" lon="-8.8937950">
        <ele>37.2</ele>
        <time>2021-05-19T10:34:02Z</time>
      </trkpt>
      <trkpt lat="42.0779820" lon="-8.8937920">
        <ele>37.2</ele>
        <time>2021-05-19T10:34:03Z</time>
      </trkpt>
      <trkpt lat="42.0779810" lon="-8.8937910">
        <ele>37.2</ele>
        <time>2021-05-19T10:34:04Z</time>
      </trkpt>
      <trkpt lat="42.0779800" lon="-8.8937880">
        <ele>37.2</ele>
        <time>2021-05-19T10:34:05Z</time>
      </trkpt>
      <trkpt lat="42.0779800" lon="-8.8937890">
        <ele>37.2</ele>
        <time>2021-05-19T10:34:06Z</time>
      </trkpt>
      <trkpt lat="42.0779790" lon="-8.8937870">
        <ele>37.2</ele>
        <time>2021-05-19T10:34:07Z</time>
      </trkpt>
      <trkpt lat="42.0779800" lon="-8.8937870">
        <ele>37.2</ele>
        <time>2021-05-19T10:34:08Z</time>
      </trkpt>
      <trkpt lat="42.0779780" lon="-8.8937880">
        <ele>37.2</ele>
        <time>2021-05-19T10:34:09Z</time>
      </trkpt>
      <trkpt lat="42.0779790" lon="-8.8937870">
        <ele>37.2</ele>
        <time>2021-05-19T10:34:10Z</time>
      </trkpt>
      <trkpt lat="42.0779780" lon="-8.8937880">
        <ele>37.2</ele>
        <time>2021-05-19T10:34:11Z</time>
      </trkpt>
      <trkpt lat="42.0779770" lon="-8.8937880">
        <ele>37.2</ele>
        <time>2021-05-19T10:34:12Z</time>
      </trkpt>
      <trkpt lat="42.0779770" lon="-8.8937880">
        <ele>37.2</ele>
        <time>2021-05-19T10:34:13Z</time>
      </trkpt>
      <trkpt lat="42.0779760" lon="-8.8937880">
        <ele>37.2</ele>
        <time>2021-05-19T10:34:14Z</time>
      </trkpt>
      <trkpt lat="42.0779760" lon="-8.8937880">
        <ele>37.2</ele>
        <time>2021-05-19T10:34:15Z</time>
      </trkpt>
      <trkpt lat="42.0779760" lon="-8.8937880">
        <ele>37.2</ele>
        <time>2021-05-19T10:34:16Z</time>
      </trkpt>
      <trkpt lat="42.0779740" lon="-8.8937850">
        <ele>37.2</ele>
        <time>2021-05-19T10:34:17Z</time>
      </trkpt>
      <trkpt lat="42.0779740" lon="-8.8937830">
        <ele>37.2</ele>
        <time>2021-05-19T10:34:18Z</time>
      </trkpt>
      <trkpt lat="42.0779740" lon="-8.8937840">
        <ele>37.2</ele>
        <time>2021-05-19T10:34:19Z</time>
      </trkpt>
      <trkpt lat="42.0779740" lon="-8.8937840">
        <ele>37.2</ele>
        <time>2021-05-19T10:34:20Z</time>
      </trkpt>
      <trkpt lat="42.0779750" lon="-8.8937820">
        <ele>37.2</ele>
        <time>2021-05-19T10:34:21Z</time>
      </trkpt>
      <trkpt lat="42.0779740" lon="-8.8937830">
        <ele>37.2</ele>
        <time>2021-05-19T10:34:22Z</time>
      </trkpt>
      <trkpt lat="42.0779730" lon="-8.8937840">
        <ele>37.2</ele>
        <time>2021-05-19T10:34:23Z</time>
      </trkpt>
      <trkpt lat="42.0779730" lon="-8.8937830">
        <ele>37.2</ele>
        <time>2021-05-19T10:34:24Z</time>
      </trkpt>
      <trkpt lat="42.0779720" lon="-8.8937830">
        <ele>37.2</ele>
        <time>2021-05-19T10:34:25Z</time>
      </trkpt>
      <trkpt lat="42.0779720" lon="-8.8937840">
        <ele>37.2</ele>
        <time>2021-05-19T10:34:26Z</time>
      </trkpt>
      <trkpt lat="42.0779710" lon="-8.8937820">
        <ele>37.2</ele>
        <time>2021-05-19T10:34:27Z</time>
      </trkpt>
      <trkpt lat="42.0779720" lon="-8.8937790">
        <ele>37.2</ele>
        <time>2021-05-19T10:34:28Z</time>
      </trkpt>
      <trkpt lat="42.0779730" lon="-8.8937790">
        <ele>37.2</ele>
        <time>2021-05-19T10:34:29Z</time>
      </trkpt>
      <trkpt lat="42.0779750" lon="-8.8937790">
        <ele>37.2</ele>
        <time>2021-05-19T10:34:30Z</time>
      </trkpt>
      <trkpt lat="42.0779770" lon="-8.8937770">
        <ele>37.2</ele>
        <time>2021-05-19T10:34:31Z</time>
      </trkpt>
      <trkpt lat="42.0779760" lon="-8.8937780">
        <ele>37.2</ele>
        <time>2021-05-19T10:34:32Z</time>
      </trkpt>
      <trkpt lat="42.0779760" lon="-8.8937740">
        <ele>37.2</ele>
        <time>2021-05-19T10:34:33Z</time>
      </trkpt>
      <trkpt lat="42.0779770" lon="-8.8937730">
        <ele>37.2</ele>
        <time>2021-05-19T10:34:34Z</time>
      </trkpt>
      <trkpt lat="42.0779770" lon="-8.8937730">
        <ele>37.2</ele>
        <time>2021-05-19T10:34:35Z</time>
      </trkpt>
      <trkpt lat="42.0779780" lon="-8.8937730">
        <ele>37.2</ele>
        <time>2021-05-19T10:34:36Z</time>
      </trkpt>
      <trkpt lat="42.0779780" lon="-8.8937740">
        <ele>37.2</ele>
        <time>2021-05-19T10:34:37Z</time>
      </trkpt>
      <trkpt lat="42.0779790" lon="-8.8937740">
        <ele>37.2</ele>
        <time>2021-05-19T10:34:38Z</time>
      </trkpt>
      <trkpt lat="42.0779800" lon="-8.8937760">
        <ele>37.2</ele>
        <time>2021-05-19T10:34:39Z</time>
      </trkpt>
      <trkpt lat="42.0779810" lon="-8.8937750">
        <ele>37.2</ele>
        <time>2021-05-19T10:34:40Z</time>
      </trkpt>
      <trkpt lat="42.0779820" lon="-8.8937770">
        <ele>37.2</ele>
        <time>2021-05-19T10:34:41Z</time>
      </trkpt>
      <trkpt lat="42.0779820" lon="-8.8937750">
        <ele>37.2</ele>
        <time>2021-05-19T10:34:42Z</time>
      </trkpt>
      <trkpt lat="42.0779830" lon="-8.8937760">
        <ele>37.2</ele>
        <time>2021-05-19T10:34:43Z</time>
      </trkpt>
      <trkpt lat="42.0779830" lon="-8.8937780">
        <ele>37.2</ele>
        <time>2021-05-19T10:34:44Z</time>
      </trkpt>
      <trkpt lat="42.0779830" lon="-8.8937770">
        <ele>37.2</ele>
        <time>2021-05-19T10:34:45Z</time>
      </trkpt>
      <trkpt lat="42.0779840" lon="-8.8937780">
        <ele>37.2</ele>
        <time>2021-05-19T10:34:46Z</time>
      </trkpt>
      <trkpt lat="42.0779830" lon="-8.8937790">
        <ele>37.2</ele>
        <time>2021-05-19T10:34:47Z</time>
      </trkpt>
      <trkpt lat="42.0779830" lon="-8.8937810">
        <ele>37.2</ele>
        <time>2021-05-19T10:34:48Z</time>
      </trkpt>
      <trkpt lat="42.0779840" lon="-8.8937790">
        <ele>37.2</ele>
        <time>2021-05-19T10:34:49Z</time>
      </trkpt>
      <trkpt lat="42.0779840" lon="-8.8937790">
        <ele>37.2</ele>
        <time>2021-05-19T10:34:50Z</time>
      </trkpt>
      <trkpt lat="42.0779840" lon="-8.8937760">
        <ele>37.2</ele>
        <time>2021-05-19T10:34:51Z</time>
      </trkpt>
      <trkpt lat="42.0779790" lon="-8.8937760">
        <ele>37.2</ele>
        <time>2021-05-19T10:34:52Z</time>
      </trkpt>
      <trkpt lat="42.0779820" lon="-8.8937760">
        <ele>37.2</ele>
        <time>2021-05-19T10:34:53Z</time>
      </trkpt>
      <trkpt lat="42.0779860" lon="-8.8937750">
        <ele>37.2</ele>
        <time>2021-05-19T10:34:54Z</time>
      </trkpt>
      <trkpt lat="42.0779880" lon="-8.8937870">
        <ele>37.2</ele>
        <time>2021-05-19T10:34:55Z</time>
      </trkpt>
      <trkpt lat="42.0779890" lon="-8.8937680">
        <ele>37.1</ele>
        <time>2021-05-19T10:34:56Z</time>
      </trkpt>
      <trkpt lat="42.0779890" lon="-8.8937700">
        <ele>37.1</ele>
        <time>2021-05-19T10:34:57Z</time>
      </trkpt>
      <trkpt lat="42.0779910" lon="-8.8937760">
        <ele>37.1</ele>
        <time>2021-05-19T10:34:58Z</time>
      </trkpt>
      <trkpt lat="42.0779940" lon="-8.8937740">
        <ele>37.1</ele>
        <time>2021-05-19T10:34:59Z</time>
      </trkpt>
      <trkpt lat="42.0779980" lon="-8.8937760">
        <ele>37.1</ele>
        <time>2021-05-19T10:35:00Z</time>
      </trkpt>
      <trkpt lat="42.0779980" lon="-8.8937760">
        <ele>37.1</ele>
        <time>2021-05-19T10:35:01Z</time>
      </trkpt>
      <trkpt lat="42.0780020" lon="-8.8937760">
        <ele>37.1</ele>
        <time>2021-05-19T10:35:02Z</time>
      </trkpt>
      <trkpt lat="42.0780020" lon="-8.8937760">
        <ele>37.1</ele>
        <time>2021-05-19T10:35:03Z</time>
      </trkpt>
      <trkpt lat="42.0779870" lon="-8.8937700">
        <ele>37.1</ele>
        <time>2021-05-19T10:35:04Z</time>
      </trkpt>
      <trkpt lat="42.0779980" lon="-8.8937800">
        <ele>37.1</ele>
        <time>2021-05-19T10:35:05Z</time>
      </trkpt>
      <trkpt lat="42.0780010" lon="-8.8937750">
        <ele>37.1</ele>
        <time>2021-05-19T10:35:06Z</time>
      </trkpt>
      <trkpt lat="42.0780020" lon="-8.8937750">
        <ele>37.1</ele>
        <time>2021-05-19T10:35:07Z</time>
      </trkpt>
      <trkpt lat="42.0779980" lon="-8.8937700">
        <ele>37.1</ele>
        <time>2021-05-19T10:35:08Z</time>
      </trkpt>
      <trkpt lat="42.0779770" lon="-8.8937630">
        <ele>37.1</ele>
        <time>2021-05-19T10:35:09Z</time>
      </trkpt>
      <trkpt lat="42.0779780" lon="-8.8937650">
        <ele>37.1</ele>
        <time>2021-05-19T10:35:10Z</time>
      </trkpt>
      <trkpt lat="42.0779770" lon="-8.8937650">
        <ele>37.1</ele>
        <time>2021-05-19T10:35:11Z</time>
      </trkpt>
      <trkpt lat="42.0779730" lon="-8.8937640">
        <ele>37.1</ele>
        <time>2021-05-19T10:35:12Z</time>
      </trkpt>
      <trkpt lat="42.0779770" lon="-8.8937670">
        <ele>37.1</ele>
        <time>2021-05-19T10:35:13Z</time>
      </trkpt>
      <trkpt lat="42.0779800" lon="-8.8937660">
        <ele>37.1</ele>
        <time>2021-05-19T10:35:14Z</time>
      </trkpt>
      <trkpt lat="42.0779830" lon="-8.8937670">
        <ele>37.1</ele>
        <time>2021-05-19T10:35:15Z</time>
      </trkpt>
      <trkpt lat="42.0779840" lon="-8.8937660">
        <ele>37.1</ele>
        <time>2021-05-19T10:35:16Z</time>
      </trkpt>
      <trkpt lat="42.0779810" lon="-8.8937690">
        <ele>37.1</ele>
        <time>2021-05-19T10:35:17Z</time>
      </trkpt>
      <trkpt lat="42.0779840" lon="-8.8937690">
        <ele>37.1</ele>
        <time>2021-05-19T10:35:18Z</time>
      </trkpt>
      <trkpt lat="42.0779820" lon="-8.8937720">
        <ele>37.1</ele>
        <time>2021-05-19T10:35:19Z</time>
      </trkpt>
      <trkpt lat="42.0779840" lon="-8.8937760">
        <ele>37.1</ele>
        <time>2021-05-19T10:35:20Z</time>
      </trkpt>
      <trkpt lat="42.0779850" lon="-8.8937680">
        <ele>37.1</ele>
        <time>2021-05-19T10:35:21Z</time>
      </trkpt>
      <trkpt lat="42.0779880" lon="-8.8937670">
        <ele>37.1</ele>
        <time>2021-05-19T10:35:22Z</time>
      </trkpt>
      <trkpt lat="42.0779860" lon="-8.8937650">
        <ele>37.1</ele>
        <time>2021-05-19T10:35:23Z</time>
      </trkpt>
      <trkpt lat="42.0779860" lon="-8.8937680">
        <ele>37.1</ele>
        <time>2021-05-19T10:35:24Z</time>
      </trkpt>
      <trkpt lat="42.0779830" lon="-8.8937740">
        <ele>37.1</ele>
        <time>2021-05-19T10:35:25Z</time>
      </trkpt>
      <trkpt lat="42.0779840" lon="-8.8937760">
        <ele>37.1</ele>
        <time>2021-05-19T10:35:26Z</time>
      </trkpt>
      <trkpt lat="42.0779840" lon="-8.8937760">
        <ele>37.1</ele>
        <time>2021-05-19T10:35:27Z</time>
      </trkpt>
      <trkpt lat="42.0779840" lon="-8.8937760">
        <ele>37.1</ele>
        <time>2021-05-19T10:35:28Z</time>
      </trkpt>
      <trkpt lat="42.0779840" lon="-8.8937760">
        <ele>37.1</ele>
        <time>2021-05-19T10:35:29Z</time>
      </trkpt>
      <trkpt lat="42.0779980" lon="-8.8937770">
        <ele>37.1</ele>
        <time>2021-05-19T10:35:30Z</time>
      </trkpt>
      <trkpt lat="42.0779980" lon="-8.8937790">
        <ele>37.1</ele>
        <time>2021-05-19T10:35:31Z</time>
      </trkpt>
      <trkpt lat="42.0779960" lon="-8.8937710">
        <ele>37.1</ele>
        <time>2021-05-19T10:35:32Z</time>
      </trkpt>
      <trkpt lat="42.0779940" lon="-8.8937770">
        <ele>37.1</ele>
        <time>2021-05-19T10:35:33Z</time>
      </trkpt>
      <trkpt lat="42.0779970" lon="-8.8937820">
        <ele>37.1</ele>
        <time>2021-05-19T10:35:34Z</time>
      </trkpt>
      <trkpt lat="42.0779960" lon="-8.8937780">
        <ele>37.1</ele>
        <time>2021-05-19T10:35:35Z</time>
      </trkpt>
      <trkpt lat="42.0779970" lon="-8.8937770">
        <ele>37.1</ele>
        <time>2021-05-19T10:35:36Z</time>
      </trkpt>
      <trkpt lat="42.0779960" lon="-8.8937780">
        <ele>37.1</ele>
        <time>2021-05-19T10:35:37Z</time>
      </trkpt>
      <trkpt lat="42.0779960" lon="-8.8937780">
        <ele>37.1</ele>
        <time>2021-05-19T10:35:38Z</time>
      </trkpt>
      <trkpt lat="42.0779960" lon="-8.8937780">
        <ele>37.1</ele>
        <time>2021-05-19T10:35:39Z</time>
      </trkpt>
      <trkpt lat="42.0779960" lon="-8.8937780">
        <ele>37.1</ele>
        <time>2021-05-19T10:35:40Z</time>
      </trkpt>
      <trkpt lat="42.0779960" lon="-8.8937780">
        <ele>37.1</ele>
        <time>2021-05-19T10:35:41Z</time>
      </trkpt>
      <trkpt lat="42.0779940" lon="-8.8937730">
        <ele>37.1</ele>
        <time>2021-05-19T10:35:42Z</time>
      </trkpt>
      <trkpt lat="42.0779950" lon="-8.8937710">
        <ele>37.1</ele>
        <time>2021-05-19T10:35:43Z</time>
      </trkpt>
      <trkpt lat="42.0779950" lon="-8.8937710">
        <ele>37.1</ele>
        <time>2021-05-19T10:35:44Z</time>
      </trkpt>
      <trkpt lat="42.0779970" lon="-8.8937710">
        <ele>37.1</ele>
        <time>2021-05-19T10:35:45Z</time>
      </trkpt>
      <trkpt lat="42.0779970" lon="-8.8937710">
        <ele>37.1</ele>
        <time>2021-05-19T10:35:46Z</time>
      </trkpt>
      <trkpt lat="42.0779980" lon="-8.8937750">
        <ele>37.1</ele>
        <time>2021-05-19T10:35:47Z</time>
      </trkpt>
      <trkpt lat="42.0779980" lon="-8.8937750">
        <ele>37.1</ele>
        <time>2021-05-19T10:35:48Z</time>
      </trkpt>
      <trkpt lat="42.0779980" lon="-8.8937750">
        <ele>37.1</ele>
        <time>2021-05-19T10:35:49Z</time>
      </trkpt>
      <trkpt lat="42.0779980" lon="-8.8937750">
        <ele>37.1</ele>
        <time>2021-05-19T10:35:50Z</time>
      </trkpt>
      <trkpt lat="42.0779960" lon="-8.8937760">
        <ele>37.1</ele>
        <time>2021-05-19T10:35:51Z</time>
      </trkpt>
      <trkpt lat="42.0779960" lon="-8.8937760">
        <ele>37.1</ele>
        <time>2021-05-19T10:35:52Z</time>
      </trkpt>
      <trkpt lat="42.0779960" lon="-8.8937760">
        <ele>37.1</ele>
        <time>2021-05-19T10:35:53Z</time>
      </trkpt>
      <trkpt lat="42.0779960" lon="-8.8937760">
        <ele>37.1</ele>
        <time>2021-05-19T10:35:54Z</time>
      </trkpt>
      <trkpt lat="42.0779960" lon="-8.8937760">
        <ele>37.1</ele>
        <time>2021-05-19T10:35:55Z</time>
      </trkpt>
      <trkpt lat="42.0779960" lon="-8.8937760">
        <ele>37.1</ele>
        <time>2021-05-19T10:35:56Z</time>
      </trkpt>
      <trkpt lat="42.0779960" lon="-8.8937760">
        <ele>37.1</ele>
        <time>2021-05-19T10:35:57Z</time>
      </trkpt>
      <trkpt lat="42.0779960" lon="-8.8937760">
        <ele>37.1</ele>
        <time>2021-05-19T10:35:58Z</time>
      </trkpt>
      <trkpt lat="42.0779960" lon="-8.8937760">
        <ele>37.1</ele>
        <time>2021-05-19T10:35:59Z</time>
      </trkpt>
      <trkpt lat="42.0779960" lon="-8.8937760">
        <ele>37.1</ele>
        <time>2021-05-19T10:36:00Z</time>
      </trkpt>
      <trkpt lat="42.0779960" lon="-8.8937760">
        <ele>37.1</ele>
        <time>2021-05-19T10:36:01Z</time>
      </trkpt>
      <trkpt lat="42.0779960" lon="-8.8937760">
        <ele>37.1</ele>
        <time>2021-05-19T10:36:02Z</time>
      </trkpt>
      <trkpt lat="42.0779960" lon="-8.8937760">
        <ele>37.1</ele>
        <time>2021-05-19T10:36:03Z</time>
      </trkpt>
      <trkpt lat="42.0780020" lon="-8.8937670">
        <ele>37.0</ele>
        <time>2021-05-19T10:36:04Z</time>
      </trkpt>
      <trkpt lat="42.0780020" lon="-8.8937680">
        <ele>37.0</ele>
        <time>2021-05-19T10:36:05Z</time>
      </trkpt>
      <trkpt lat="42.0780020" lon="-8.8937680">
        <ele>37.0</ele>
        <time>2021-05-19T10:36:06Z</time>
      </trkpt>
      <trkpt lat="42.0779990" lon="-8.8937710">
        <ele>37.0</ele>
        <time>2021-05-19T10:36:07Z</time>
      </trkpt>
      <trkpt lat="42.0779950" lon="-8.8937650">
        <ele>37.0</ele>
        <time>2021-05-19T10:36:08Z</time>
      </trkpt>
      <trkpt lat="42.0779900" lon="-8.8937630">
        <ele>37.0</ele>
        <time>2021-05-19T10:36:09Z</time>
      </trkpt>
      <trkpt lat="42.0779970" lon="-8.8937510">
        <ele>37.0</ele>
        <time>2021-05-19T10:36:10Z</time>
      </trkpt>
      <trkpt lat="42.0779950" lon="-8.8937440">
        <ele>37.0</ele>
        <time>2021-05-19T10:36:11Z</time>
      </trkpt>
      <trkpt lat="42.0779980" lon="-8.8937380">
        <ele>37.0</ele>
        <time>2021-05-19T10:36:12Z</time>
      </trkpt>
      <trkpt lat="42.0779990" lon="-8.8937390">
        <ele>37.0</ele>
        <time>2021-05-19T10:36:13Z</time>
      </trkpt>
      <trkpt lat="42.0780030" lon="-8.8937410">
        <ele>37.0</ele>
        <time>2021-05-19T10:36:14Z</time>
      </trkpt>
      <trkpt lat="42.0780030" lon="-8.8937420">
        <ele>37.0</ele>
        <time>2021-05-19T10:36:15Z</time>
      </trkpt>
      <trkpt lat="42.0780010" lon="-8.8937410">
        <ele>37.0</ele>
        <time>2021-05-19T10:36:16Z</time>
      </trkpt>
      <trkpt lat="42.0780010" lon="-8.8937410">
        <ele>37.0</ele>
        <time>2021-05-19T10:36:17Z</time>
      </trkpt>
      <trkpt lat="42.0780010" lon="-8.8937410">
        <ele>37.0</ele>
        <time>2021-05-19T10:36:18Z</time>
      </trkpt>
      <trkpt lat="42.0780010" lon="-8.8937410">
        <ele>37.0</ele>
        <time>2021-05-19T10:36:19Z</time>
      </trkpt>
      <trkpt lat="42.0780010" lon="-8.8937410">
        <ele>37.0</ele>
        <time>2021-05-19T10:36:20Z</time>
      </trkpt>
      <trkpt lat="42.0780010" lon="-8.8937410">
        <ele>37.0</ele>
        <time>2021-05-19T10:36:21Z</time>
      </trkpt>
      <trkpt lat="42.0780010" lon="-8.8937410">
        <ele>37.0</ele>
        <time>2021-05-19T10:36:22Z</time>
      </trkpt>
      <trkpt lat="42.0779980" lon="-8.8937520">
        <ele>37.0</ele>
        <time>2021-05-19T10:36:23Z</time>
      </trkpt>
      <trkpt lat="42.0779980" lon="-8.8937520">
        <ele>37.0</ele>
        <time>2021-05-19T10:36:24Z</time>
      </trkpt>
      <trkpt lat="42.0779910" lon="-8.8937470">
        <ele>37.0</ele>
        <time>2021-05-19T10:36:25Z</time>
      </trkpt>
      <trkpt lat="42.0779890" lon="-8.8937470">
        <ele>37.0</ele>
        <time>2021-05-19T10:36:26Z</time>
      </trkpt>
      <trkpt lat="42.0779850" lon="-8.8937450">
        <ele>37.0</ele>
        <time>2021-05-19T10:36:27Z</time>
      </trkpt>
      <trkpt lat="42.0779850" lon="-8.8937450">
        <ele>37.0</ele>
        <time>2021-05-19T10:36:28Z</time>
      </trkpt>
      <trkpt lat="42.0779850" lon="-8.8937450">
        <ele>37.0</ele>
        <time>2021-05-19T10:36:29Z</time>
      </trkpt>
      <trkpt lat="42.0779850" lon="-8.8937450">
        <ele>37.0</ele>
        <time>2021-05-19T10:36:30Z</time>
      </trkpt>
      <trkpt lat="42.0779940" lon="-8.8937620">
        <ele>37.0</ele>
        <time>2021-05-19T10:36:31Z</time>
      </trkpt>
      <trkpt lat="42.0779940" lon="-8.8937620">
        <ele>37.0</ele>
        <time>2021-05-19T10:36:32Z</time>
      </trkpt>
      <trkpt lat="42.0779940" lon="-8.8937610">
        <ele>37.0</ele>
        <time>2021-05-19T10:36:33Z</time>
      </trkpt>
      <trkpt lat="42.0779930" lon="-8.8937600">
        <ele>37.0</ele>
        <time>2021-05-19T10:36:34Z</time>
      </trkpt>
      <trkpt lat="42.0779950" lon="-8.8937600">
        <ele>37.0</ele>
        <time>2021-05-19T10:36:35Z</time>
      </trkpt>
      <trkpt lat="42.0779950" lon="-8.8937590">
        <ele>37.0</ele>
        <time>2021-05-19T10:36:36Z</time>
      </trkpt>
      <trkpt lat="42.0779960" lon="-8.8937580">
        <ele>37.0</ele>
        <time>2021-05-19T10:36:37Z</time>
      </trkpt>
      <trkpt lat="42.0779970" lon="-8.8937580">
        <ele>37.0</ele>
        <time>2021-05-19T10:36:38Z</time>
      </trkpt>
      <trkpt lat="42.0779980" lon="-8.8937580">
        <ele>37.0</ele>
        <time>2021-05-19T10:36:39Z</time>
      </trkpt>
      <trkpt lat="42.0779980" lon="-8.8937570">
        <ele>37.0</ele>
        <time>2021-05-19T10:36:40Z</time>
      </trkpt>
      <trkpt lat="42.0779960" lon="-8.8937560">
        <ele>37.0</ele>
        <time>2021-05-19T10:36:41Z</time>
      </trkpt>
      <trkpt lat="42.0779950" lon="-8.8937550">
        <ele>37.0</ele>
        <time>2021-05-19T10:36:42Z</time>
      </trkpt>
      <trkpt lat="42.0779940" lon="-8.8937550">
        <ele>37.0</ele>
        <time>2021-05-19T10:36:43Z</time>
      </trkpt>
      <trkpt lat="42.0779870" lon="-8.8937500">
        <ele>37.0</ele>
        <time>2021-05-19T10:36:44Z</time>
      </trkpt>
      <trkpt lat="42.0779850" lon="-8.8937500">
        <ele>37.0</ele>
        <time>2021-05-19T10:36:45Z</time>
      </trkpt>
      <trkpt lat="42.0779850" lon="-8.8937500">
        <ele>37.0</ele>
        <time>2021-05-19T10:36:46Z</time>
      </trkpt>
      <trkpt lat="42.0779820" lon="-8.8937490">
        <ele>37.0</ele>
        <time>2021-05-19T10:36:47Z</time>
      </trkpt>
      <trkpt lat="42.0779800" lon="-8.8937490">
        <ele>37.0</ele>
        <time>2021-05-19T10:36:48Z</time>
      </trkpt>
      <trkpt lat="42.0779830" lon="-8.8937500">
        <ele>37.0</ele>
        <time>2021-05-19T10:36:49Z</time>
      </trkpt>
      <trkpt lat="42.0779840" lon="-8.8937500">
        <ele>37.0</ele>
        <time>2021-05-19T10:36:50Z</time>
      </trkpt>
      <trkpt lat="42.0779850" lon="-8.8937490">
        <ele>37.0</ele>
        <time>2021-05-19T10:36:51Z</time>
      </trkpt>
      <trkpt lat="42.0779830" lon="-8.8937490">
        <ele>37.0</ele>
        <time>2021-05-19T10:36:52Z</time>
      </trkpt>
      <trkpt lat="42.0779830" lon="-8.8937490">
        <ele>37.0</ele>
        <time>2021-05-19T10:36:53Z</time>
      </trkpt>
      <trkpt lat="42.0779820" lon="-8.8937490">
        <ele>37.0</ele>
        <time>2021-05-19T10:36:54Z</time>
      </trkpt>
      <trkpt lat="42.0779830" lon="-8.8937480">
        <ele>37.0</ele>
        <time>2021-05-19T10:36:55Z</time>
      </trkpt>
      <trkpt lat="42.0779840" lon="-8.8937470">
        <ele>36.9</ele>
        <time>2021-05-19T10:36:56Z</time>
      </trkpt>
      <trkpt lat="42.0779830" lon="-8.8937480">
        <ele>36.9</ele>
        <time>2021-05-19T10:36:57Z</time>
      </trkpt>
      <trkpt lat="42.0779850" lon="-8.8937480">
        <ele>36.9</ele>
        <time>2021-05-19T10:36:58Z</time>
      </trkpt>
      <trkpt lat="42.0779850" lon="-8.8937480">
        <ele>36.9</ele>
        <time>2021-05-19T10:36:59Z</time>
      </trkpt>
      <trkpt lat="42.0779850" lon="-8.8937480">
        <ele>36.9</ele>
        <time>2021-05-19T10:37:00Z</time>
      </trkpt>
      <trkpt lat="42.0779880" lon="-8.8937490">
        <ele>36.9</ele>
        <time>2021-05-19T10:37:01Z</time>
      </trkpt>
      <trkpt lat="42.0779880" lon="-8.8937490">
        <ele>36.9</ele>
        <time>2021-05-19T10:37:02Z</time>
      </trkpt>
      <trkpt lat="42.0779900" lon="-8.8937500">
        <ele>36.9</ele>
        <time>2021-05-19T10:37:03Z</time>
      </trkpt>
      <trkpt lat="42.0779900" lon="-8.8937500">
        <ele>36.9</ele>
        <time>2021-05-19T10:37:04Z</time>
      </trkpt>
      <trkpt lat="42.0779920" lon="-8.8937490">
        <ele>36.9</ele>
        <time>2021-05-19T10:37:05Z</time>
      </trkpt>
      <trkpt lat="42.0779950" lon="-8.8937500">
        <ele>36.9</ele>
        <time>2021-05-19T10:37:06Z</time>
      </trkpt>
      <trkpt lat="42.0779970" lon="-8.8937490">
        <ele>36.9</ele>
        <time>2021-05-19T10:37:07Z</time>
      </trkpt>
      <trkpt lat="42.0779970" lon="-8.8937500">
        <ele>36.9</ele>
        <time>2021-05-19T10:37:08Z</time>
      </trkpt>
      <trkpt lat="42.0779960" lon="-8.8937480">
        <ele>36.9</ele>
        <time>2021-05-19T10:37:09Z</time>
      </trkpt>
      <trkpt lat="42.0779920" lon="-8.8937430">
        <ele>36.9</ele>
        <time>2021-05-19T10:37:10Z</time>
      </trkpt>
      <trkpt lat="42.0779930" lon="-8.8937390">
        <ele>36.9</ele>
        <time>2021-05-19T10:37:11Z</time>
      </trkpt>
      <trkpt lat="42.0779930" lon="-8.8937370">
        <ele>36.9</ele>
        <time>2021-05-19T10:37:12Z</time>
      </trkpt>
      <trkpt lat="42.0779980" lon="-8.8937360">
        <ele>36.9</ele>
        <time>2021-05-19T10:37:13Z</time>
      </trkpt>
      <trkpt lat="42.0780000" lon="-8.8937370">
        <ele>36.9</ele>
        <time>2021-05-19T10:37:14Z</time>
      </trkpt>
      <trkpt lat="42.0780060" lon="-8.8937340">
        <ele>36.9</ele>
        <time>2021-05-19T10:37:15Z</time>
      </trkpt>
      <trkpt lat="42.0780080" lon="-8.8937320">
        <ele>36.9</ele>
        <time>2021-05-19T10:37:16Z</time>
      </trkpt>
      <trkpt lat="42.0780100" lon="-8.8937330">
        <ele>36.9</ele>
        <time>2021-05-19T10:37:17Z</time>
      </trkpt>
      <trkpt lat="42.0780110" lon="-8.8937350">
        <ele>36.9</ele>
        <time>2021-05-19T10:37:18Z</time>
      </trkpt>
      <trkpt lat="42.0780090" lon="-8.8937360">
        <ele>36.9</ele>
        <time>2021-05-19T10:37:19Z</time>
      </trkpt>
      <trkpt lat="42.0780100" lon="-8.8937390">
        <ele>36.9</ele>
        <time>2021-05-19T10:37:20Z</time>
      </trkpt>
      <trkpt lat="42.0780080" lon="-8.8937390">
        <ele>36.9</ele>
        <time>2021-05-19T10:37:21Z</time>
      </trkpt>
      <trkpt lat="42.0780090" lon="-8.8937400">
        <ele>36.9</ele>
        <time>2021-05-19T10:37:22Z</time>
      </trkpt>
      <trkpt lat="42.0780110" lon="-8.8937400">
        <ele>36.9</ele>
        <time>2021-05-19T10:37:23Z</time>
      </trkpt>
      <trkpt lat="42.0780120" lon="-8.8937410">
        <ele>36.9</ele>
        <time>2021-05-19T10:37:24Z</time>
      </trkpt>
      <trkpt lat="42.0780120" lon="-8.8937410">
        <ele>36.9</ele>
        <time>2021-05-19T10:37:25Z</time>
      </trkpt>
      <trkpt lat="42.0780090" lon="-8.8937440">
        <ele>36.9</ele>
        <time>2021-05-19T10:37:26Z</time>
      </trkpt>
      <trkpt lat="42.0780090" lon="-8.8937440">
        <ele>36.9</ele>
        <time>2021-05-19T10:37:27Z</time>
      </trkpt>
      <trkpt lat="42.0780080" lon="-8.8937460">
        <ele>36.9</ele>
        <time>2021-05-19T10:37:28Z</time>
      </trkpt>
      <trkpt lat="42.0780080" lon="-8.8937460">
        <ele>36.9</ele>
        <time>2021-05-19T10:37:29Z</time>
      </trkpt>
      <trkpt lat="42.0780020" lon="-8.8937480">
        <ele>36.9</ele>
        <time>2021-05-19T10:37:30Z</time>
      </trkpt>
      <trkpt lat="42.0780020" lon="-8.8937500">
        <ele>36.9</ele>
        <time>2021-05-19T10:37:31Z</time>
      </trkpt>
      <trkpt lat="42.0780010" lon="-8.8937510">
        <ele>36.9</ele>
        <time>2021-05-19T10:37:32Z</time>
      </trkpt>
      <trkpt lat="42.0779980" lon="-8.8937510">
        <ele>36.9</ele>
        <time>2021-05-19T10:37:33Z</time>
      </trkpt>
      <trkpt lat="42.0780010" lon="-8.8937510">
        <ele>36.9</ele>
        <time>2021-05-19T10:37:34Z</time>
      </trkpt>
      <trkpt lat="42.0780010" lon="-8.8937530">
        <ele>36.9</ele>
        <time>2021-05-19T10:37:35Z</time>
      </trkpt>
      <trkpt lat="42.0780010" lon="-8.8937530">
        <ele>36.9</ele>
        <time>2021-05-19T10:37:36Z</time>
      </trkpt>
      <trkpt lat="42.0779960" lon="-8.8937510">
        <ele>36.9</ele>
        <time>2021-05-19T10:37:37Z</time>
      </trkpt>
      <trkpt lat="42.0779950" lon="-8.8937510">
        <ele>36.9</ele>
        <time>2021-05-19T10:37:38Z</time>
      </trkpt>
      <trkpt lat="42.0779970" lon="-8.8937520">
        <ele>36.9</ele>
        <time>2021-05-19T10:37:39Z</time>
      </trkpt>
      <trkpt lat="42.0779940" lon="-8.8937500">
        <ele>36.8</ele>
        <time>2021-05-19T10:37:40Z</time>
      </trkpt>
      <trkpt lat="42.0779940" lon="-8.8937500">
        <ele>36.8</ele>
        <time>2021-05-19T10:37:41Z</time>
      </trkpt>
      <trkpt lat="42.0779900" lon="-8.8937500">
        <ele>36.8</ele>
        <time>2021-05-19T10:37:42Z</time>
      </trkpt>
      <trkpt lat="42.0779900" lon="-8.8937500">
        <ele>36.8</ele>
        <time>2021-05-19T10:37:43Z</time>
      </trkpt>
      <trkpt lat="42.0779880" lon="-8.8937500">
        <ele>36.8</ele>
        <time>2021-05-19T10:37:44Z</time>
      </trkpt>
      <trkpt lat="42.0779880" lon="-8.8937500">
        <ele>36.8</ele>
        <time>2021-05-19T10:37:45Z</time>
      </trkpt>
      <trkpt lat="42.0779940" lon="-8.8937520">
        <ele>36.8</ele>
        <time>2021-05-19T10:37:46Z</time>
      </trkpt>
      <trkpt lat="42.0779920" lon="-8.8937510">
        <ele>36.8</ele>
        <time>2021-05-19T10:37:47Z</time>
      </trkpt>
      <trkpt lat="42.0779870" lon="-8.8937500">
        <ele>36.8</ele>
        <time>2021-05-19T10:37:48Z</time>
      </trkpt>
      <trkpt lat="42.0779850" lon="-8.8937510">
        <ele>36.8</ele>
        <time>2021-05-19T10:37:49Z</time>
      </trkpt>
      <trkpt lat="42.0779870" lon="-8.8937520">
        <ele>36.8</ele>
        <time>2021-05-19T10:37:50Z</time>
      </trkpt>
      <trkpt lat="42.0779890" lon="-8.8937530">
        <ele>36.8</ele>
        <time>2021-05-19T10:37:51Z</time>
      </trkpt>
      <trkpt lat="42.0779900" lon="-8.8937530">
        <ele>36.8</ele>
        <time>2021-05-19T10:37:52Z</time>
      </trkpt>
      <trkpt lat="42.0779900" lon="-8.8937530">
        <ele>36.8</ele>
        <time>2021-05-19T10:37:53Z</time>
      </trkpt>
      <trkpt lat="42.0779900" lon="-8.8937530">
        <ele>36.8</ele>
        <time>2021-05-19T10:37:54Z</time>
      </trkpt>
      <trkpt lat="42.0779920" lon="-8.8937530">
        <ele>36.8</ele>
        <time>2021-05-19T10:37:55Z</time>
      </trkpt>
      <trkpt lat="42.0779940" lon="-8.8937530">
        <ele>36.8</ele>
        <time>2021-05-19T10:37:56Z</time>
      </trkpt>
      <trkpt lat="42.0779930" lon="-8.8937510">
        <ele>36.8</ele>
        <time>2021-05-19T10:37:57Z</time>
      </trkpt>
      <trkpt lat="42.0779870" lon="-8.8937480">
        <ele>36.8</ele>
        <time>2021-05-19T10:37:58Z</time>
      </trkpt>
      <trkpt lat="42.0779830" lon="-8.8937490">
        <ele>36.8</ele>
        <time>2021-05-19T10:37:59Z</time>
      </trkpt>
      <trkpt lat="42.0779850" lon="-8.8937450">
        <ele>36.8</ele>
        <time>2021-05-19T10:38:00Z</time>
      </trkpt>
      <trkpt lat="42.0779850" lon="-8.8937470">
        <ele>36.8</ele>
        <time>2021-05-19T10:38:01Z</time>
      </trkpt>
      <trkpt lat="42.0779870" lon="-8.8937460">
        <ele>36.8</ele>
        <time>2021-05-19T10:38:02Z</time>
      </trkpt>
      <trkpt lat="42.0779890" lon="-8.8937470">
        <ele>36.8</ele>
        <time>2021-05-19T10:38:03Z</time>
      </trkpt>
      <trkpt lat="42.0779900" lon="-8.8937440">
        <ele>36.8</ele>
        <time>2021-05-19T10:38:04Z</time>
      </trkpt>
      <trkpt lat="42.0779930" lon="-8.8937460">
        <ele>36.8</ele>
        <time>2021-05-19T10:38:05Z</time>
      </trkpt>
      <trkpt lat="42.0779920" lon="-8.8937450">
        <ele>36.8</ele>
        <time>2021-05-19T10:38:06Z</time>
      </trkpt>
      <trkpt lat="42.0779940" lon="-8.8937460">
        <ele>36.8</ele>
        <time>2021-05-19T10:38:07Z</time>
      </trkpt>
      <trkpt lat="42.0779950" lon="-8.8937450">
        <ele>36.8</ele>
        <time>2021-05-19T10:38:08Z</time>
      </trkpt>
      <trkpt lat="42.0779950" lon="-8.8937450">
        <ele>36.8</ele>
        <time>2021-05-19T10:38:09Z</time>
      </trkpt>
      <trkpt lat="42.0779950" lon="-8.8937450">
        <ele>36.8</ele>
        <time>2021-05-19T10:38:10Z</time>
      </trkpt>
      <trkpt lat="42.0779950" lon="-8.8937430">
        <ele>36.8</ele>
        <time>2021-05-19T10:38:11Z</time>
      </trkpt>
      <trkpt lat="42.0779960" lon="-8.8937440">
        <ele>36.8</ele>
        <time>2021-05-19T10:38:12Z</time>
      </trkpt>
      <trkpt lat="42.0779960" lon="-8.8937440">
        <ele>36.8</ele>
        <time>2021-05-19T10:38:13Z</time>
      </trkpt>
      <trkpt lat="42.0779960" lon="-8.8937440">
        <ele>36.8</ele>
        <time>2021-05-19T10:38:14Z</time>
      </trkpt>
      <trkpt lat="42.0780050" lon="-8.8937500">
        <ele>36.7</ele>
        <time>2021-05-19T10:38:15Z</time>
      </trkpt>
      <trkpt lat="42.0780060" lon="-8.8937500">
        <ele>36.7</ele>
        <time>2021-05-19T10:38:16Z</time>
      </trkpt>
      <trkpt lat="42.0780080" lon="-8.8937510">
        <ele>36.7</ele>
        <time>2021-05-19T10:38:17Z</time>
      </trkpt>
      <trkpt lat="42.0780080" lon="-8.8937510">
        <ele>36.7</ele>
        <time>2021-05-19T10:38:18Z</time>
      </trkpt>
      <trkpt lat="42.0780080" lon="-8.8937510">
        <ele>36.7</ele>
        <time>2021-05-19T10:38:19Z</time>
      </trkpt>
      <trkpt lat="42.0780080" lon="-8.8937510">
        <ele>36.7</ele>
        <time>2021-05-19T10:38:20Z</time>
      </trkpt>
      <trkpt lat="42.0780080" lon="-8.8937510">
        <ele>36.7</ele>
        <time>2021-05-19T10:38:21Z</time>
      </trkpt>
      <trkpt lat="42.0780080" lon="-8.8937510">
        <ele>36.7</ele>
        <time>2021-05-19T10:38:22Z</time>
      </trkpt>
      <trkpt lat="42.0780080" lon="-8.8937510">
        <ele>36.7</ele>
        <time>2021-05-19T10:38:23Z</time>
      </trkpt>
      <trkpt lat="42.0780080" lon="-8.8937510">
        <ele>36.7</ele>
        <time>2021-05-19T10:38:24Z</time>
      </trkpt>
      <trkpt lat="42.0780080" lon="-8.8937510">
        <ele>36.7</ele>
        <time>2021-05-19T10:38:25Z</time>
      </trkpt>
      <trkpt lat="42.0780080" lon="-8.8937510">
        <ele>36.7</ele>
        <time>2021-05-19T10:38:26Z</time>
      </trkpt>
      <trkpt lat="42.0780080" lon="-8.8937510">
        <ele>36.7</ele>
        <time>2021-05-19T10:38:27Z</time>
      </trkpt>
      <trkpt lat="42.0780120" lon="-8.8937480">
        <ele>36.7</ele>
        <time>2021-05-19T10:38:28Z</time>
      </trkpt>
      <trkpt lat="42.0780130" lon="-8.8937480">
        <ele>36.7</ele>
        <time>2021-05-19T10:38:29Z</time>
      </trkpt>
      <trkpt lat="42.0780140" lon="-8.8937480">
        <ele>36.7</ele>
        <time>2021-05-19T10:38:30Z</time>
      </trkpt>
      <trkpt lat="42.0780140" lon="-8.8937480">
        <ele>36.7</ele>
        <time>2021-05-19T10:38:31Z</time>
      </trkpt>
      <trkpt lat="42.0780120" lon="-8.8937480">
        <ele>36.7</ele>
        <time>2021-05-19T10:38:32Z</time>
      </trkpt>
      <trkpt lat="42.0780120" lon="-8.8937480">
        <ele>36.7</ele>
        <time>2021-05-19T10:38:33Z</time>
      </trkpt>
      <trkpt lat="42.0780100" lon="-8.8937480">
        <ele>36.7</ele>
        <time>2021-05-19T10:38:34Z</time>
      </trkpt>
      <trkpt lat="42.0780100" lon="-8.8937480">
        <ele>36.7</ele>
        <time>2021-05-19T10:38:35Z</time>
      </trkpt>
      <trkpt lat="42.0780100" lon="-8.8937480">
        <ele>36.7</ele>
        <time>2021-05-19T10:38:36Z</time>
      </trkpt>
      <trkpt lat="42.0780100" lon="-8.8937480">
        <ele>36.7</ele>
        <time>2021-05-19T10:38:37Z</time>
      </trkpt>
      <trkpt lat="42.0780100" lon="-8.8937490">
        <ele>36.7</ele>
        <time>2021-05-19T10:38:38Z</time>
      </trkpt>
      <trkpt lat="42.0780100" lon="-8.8937490">
        <ele>36.7</ele>
        <time>2021-05-19T10:38:39Z</time>
      </trkpt>
      <trkpt lat="42.0780100" lon="-8.8937490">
        <ele>36.7</ele>
        <time>2021-05-19T10:38:40Z</time>
      </trkpt>
      <trkpt lat="42.0780100" lon="-8.8937490">
        <ele>36.7</ele>
        <time>2021-05-19T10:38:41Z</time>
      </trkpt>
      <trkpt lat="42.0780100" lon="-8.8937490">
        <ele>36.7</ele>
        <time>2021-05-19T10:38:42Z</time>
      </trkpt>
      <trkpt lat="42.0780100" lon="-8.8937490">
        <ele>36.7</ele>
        <time>2021-05-19T10:38:43Z</time>
      </trkpt>
      <trkpt lat="42.0779970" lon="-8.8937420">
        <ele>36.7</ele>
        <time>2021-05-19T10:38:44Z</time>
      </trkpt>
      <trkpt lat="42.0779990" lon="-8.8937430">
        <ele>36.7</ele>
        <time>2021-05-19T10:38:45Z</time>
      </trkpt>
      <trkpt lat="42.0779990" lon="-8.8937430">
        <ele>36.7</ele>
        <time>2021-05-19T10:38:46Z</time>
      </trkpt>
      <trkpt lat="42.0779990" lon="-8.8937430">
        <ele>36.7</ele>
        <time>2021-05-19T10:38:47Z</time>
      </trkpt>
      <trkpt lat="42.0779980" lon="-8.8937430">
        <ele>36.7</ele>
        <time>2021-05-19T10:38:48Z</time>
      </trkpt>
      <trkpt lat="42.0779990" lon="-8.8937430">
        <ele>36.7</ele>
        <time>2021-05-19T10:38:49Z</time>
      </trkpt>
      <trkpt lat="42.0779990" lon="-8.8937430">
        <ele>36.7</ele>
        <time>2021-05-19T10:38:50Z</time>
      </trkpt>
      <trkpt lat="42.0779980" lon="-8.8937420">
        <ele>36.7</ele>
        <time>2021-05-19T10:38:51Z</time>
      </trkpt>
      <trkpt lat="42.0779980" lon="-8.8937420">
        <ele>36.7</ele>
        <time>2021-05-19T10:38:52Z</time>
      </trkpt>
      <trkpt lat="42.0779990" lon="-8.8937420">
        <ele>36.7</ele>
        <time>2021-05-19T10:38:53Z</time>
      </trkpt>
      <trkpt lat="42.0779990" lon="-8.8937420">
        <ele>36.7</ele>
        <time>2021-05-19T10:38:54Z</time>
      </trkpt>
      <trkpt lat="42.0779990" lon="-8.8937420">
        <ele>36.7</ele>
        <time>2021-05-19T10:38:55Z</time>
      </trkpt>
      <trkpt lat="42.0780020" lon="-8.8937460">
        <ele>36.7</ele>
        <time>2021-05-19T10:38:56Z</time>
      </trkpt>
      <trkpt lat="42.0780010" lon="-8.8937450">
        <ele>36.7</ele>
        <time>2021-05-19T10:38:57Z</time>
      </trkpt>
      <trkpt lat="42.0780050" lon="-8.8937460">
        <ele>36.7</ele>
        <time>2021-05-19T10:38:58Z</time>
      </trkpt>
      <trkpt lat="42.0780010" lon="-8.8937450">
        <ele>36.7</ele>
        <time>2021-05-19T10:38:59Z</time>
      </trkpt>
      <trkpt lat="42.0780030" lon="-8.8937450">
        <ele>36.7</ele>
        <time>2021-05-19T10:39:00Z</time>
      </trkpt>
      <trkpt lat="42.0780050" lon="-8.8937460">
        <ele>36.7</ele>
        <time>2021-05-19T10:39:01Z</time>
      </trkpt>
      <trkpt lat="42.0780050" lon="-8.8937460">
        <ele>36.7</ele>
        <time>2021-05-19T10:39:02Z</time>
      </trkpt>
      <trkpt lat="42.0780030" lon="-8.8937420">
        <ele>36.7</ele>
        <time>2021-05-19T10:39:03Z</time>
      </trkpt>
      <trkpt lat="42.0780020" lon="-8.8937410">
        <ele>36.7</ele>
        <time>2021-05-19T10:39:04Z</time>
      </trkpt>
      <trkpt lat="42.0780050" lon="-8.8937430">
        <ele>36.7</ele>
        <time>2021-05-19T10:39:05Z</time>
      </trkpt>
      <trkpt lat="42.0780010" lon="-8.8937420">
        <ele>36.7</ele>
        <time>2021-05-19T10:39:06Z</time>
      </trkpt>
      <trkpt lat="42.0780010" lon="-8.8937420">
        <ele>36.7</ele>
        <time>2021-05-19T10:39:07Z</time>
      </trkpt>
      <trkpt lat="42.0780010" lon="-8.8937420">
        <ele>36.7</ele>
        <time>2021-05-19T10:39:08Z</time>
      </trkpt>
      <trkpt lat="42.0780010" lon="-8.8937420">
        <ele>36.7</ele>
        <time>2021-05-19T10:39:09Z</time>
      </trkpt>
      <trkpt lat="42.0780010" lon="-8.8937420">
        <ele>36.7</ele>
        <time>2021-05-19T10:39:10Z</time>
      </trkpt>
      <trkpt lat="42.0780010" lon="-8.8937420">
        <ele>36.7</ele>
        <time>2021-05-19T10:39:11Z</time>
      </trkpt>
      <trkpt lat="42.0780010" lon="-8.8937420">
        <ele>36.7</ele>
        <time>2021-05-19T10:39:12Z</time>
      </trkpt>
      <trkpt lat="42.0779980" lon="-8.8937430">
        <ele>36.7</ele>
        <time>2021-05-19T10:39:13Z</time>
      </trkpt>
      <trkpt lat="42.0779980" lon="-8.8937440">
        <ele>36.6</ele>
        <time>2021-05-19T10:39:14Z</time>
      </trkpt>
      <trkpt lat="42.0779990" lon="-8.8937450">
        <ele>36.6</ele>
        <time>2021-05-19T10:39:15Z</time>
      </trkpt>
      <trkpt lat="42.0779970" lon="-8.8937450">
        <ele>36.6</ele>
        <time>2021-05-19T10:39:16Z</time>
      </trkpt>
      <trkpt lat="42.0779990" lon="-8.8937480">
        <ele>36.6</ele>
        <time>2021-05-19T10:39:17Z</time>
      </trkpt>
      <trkpt lat="42.0779970" lon="-8.8937460">
        <ele>36.6</ele>
        <time>2021-05-19T10:39:18Z</time>
      </trkpt>
      <trkpt lat="42.0779970" lon="-8.8937460">
        <ele>36.6</ele>
        <time>2021-05-19T10:39:19Z</time>
      </trkpt>
      <trkpt lat="42.0780010" lon="-8.8937500">
        <ele>36.6</ele>
        <time>2021-05-19T10:39:20Z</time>
      </trkpt>
      <trkpt lat="42.0779970" lon="-8.8937470">
        <ele>36.6</ele>
        <time>2021-05-19T10:39:21Z</time>
      </trkpt>
      <trkpt lat="42.0780000" lon="-8.8937470">
        <ele>36.6</ele>
        <time>2021-05-19T10:39:22Z</time>
      </trkpt>
      <trkpt lat="42.0779970" lon="-8.8937470">
        <ele>36.6</ele>
        <time>2021-05-19T10:39:23Z</time>
      </trkpt>
      <trkpt lat="42.0779980" lon="-8.8937490">
        <ele>36.6</ele>
        <time>2021-05-19T10:39:24Z</time>
      </trkpt>
      <trkpt lat="42.0779960" lon="-8.8937470">
        <ele>36.6</ele>
        <time>2021-05-19T10:39:25Z</time>
      </trkpt>
      <trkpt lat="42.0779970" lon="-8.8937480">
        <ele>36.6</ele>
        <time>2021-05-19T10:39:26Z</time>
      </trkpt>
      <trkpt lat="42.0779970" lon="-8.8937470">
        <ele>36.6</ele>
        <time>2021-05-19T10:39:27Z</time>
      </trkpt>
      <trkpt lat="42.0779960" lon="-8.8937460">
        <ele>36.6</ele>
        <time>2021-05-19T10:39:28Z</time>
      </trkpt>
      <trkpt lat="42.0779910" lon="-8.8937460">
        <ele>36.6</ele>
        <time>2021-05-19T10:39:29Z</time>
      </trkpt>
      <trkpt lat="42.0779880" lon="-8.8937430">
        <ele>36.6</ele>
        <time>2021-05-19T10:39:30Z</time>
      </trkpt>
      <trkpt lat="42.0779870" lon="-8.8937430">
        <ele>36.6</ele>
        <time>2021-05-19T10:39:31Z</time>
      </trkpt>
      <trkpt lat="42.0779880" lon="-8.8937440">
        <ele>36.6</ele>
        <time>2021-05-19T10:39:32Z</time>
      </trkpt>
      <trkpt lat="42.0779890" lon="-8.8937440">
        <ele>36.6</ele>
        <time>2021-05-19T10:39:33Z</time>
      </trkpt>
      <trkpt lat="42.0779930" lon="-8.8937460">
        <ele>36.6</ele>
        <time>2021-05-19T10:39:34Z</time>
      </trkpt>
      <trkpt lat="42.0779960" lon="-8.8937480">
        <ele>36.6</ele>
        <time>2021-05-19T10:39:35Z</time>
      </trkpt>
      <trkpt lat="42.0779970" lon="-8.8937490">
        <ele>36.6</ele>
        <time>2021-05-19T10:39:36Z</time>
      </trkpt>
      <trkpt lat="42.0779970" lon="-8.8937510">
        <ele>36.6</ele>
        <time>2021-05-19T10:39:37Z</time>
      </trkpt>
      <trkpt lat="42.0779910" lon="-8.8937530">
        <ele>36.6</ele>
        <time>2021-05-19T10:39:38Z</time>
      </trkpt>
      <trkpt lat="42.0779870" lon="-8.8937500">
        <ele>36.6</ele>
        <time>2021-05-19T10:39:39Z</time>
      </trkpt>
      <trkpt lat="42.0779890" lon="-8.8937620">
        <ele>36.5</ele>
        <time>2021-05-19T10:39:40Z</time>
      </trkpt>
      <trkpt lat="42.0779970" lon="-8.8937530">
        <ele>36.5</ele>
        <time>2021-05-19T10:39:41Z</time>
      </trkpt>
      <trkpt lat="42.0780020" lon="-8.8937550">
        <ele>36.5</ele>
        <time>2021-05-19T10:39:42Z</time>
      </trkpt>
      <trkpt lat="42.0779970" lon="-8.8937590">
        <ele>36.5</ele>
        <time>2021-05-19T10:39:43Z</time>
      </trkpt>
      <trkpt lat="42.0779980" lon="-8.8937620">
        <ele>36.5</ele>
        <time>2021-05-19T10:39:44Z</time>
      </trkpt>
      <trkpt lat="42.0779960" lon="-8.8937580">
        <ele>36.5</ele>
        <time>2021-05-19T10:39:45Z</time>
      </trkpt>
      <trkpt lat="42.0779950" lon="-8.8937570">
        <ele>36.5</ele>
        <time>2021-05-19T10:39:46Z</time>
      </trkpt>
      <trkpt lat="42.0779940" lon="-8.8937560">
        <ele>36.5</ele>
        <time>2021-05-19T10:39:47Z</time>
      </trkpt>
      <trkpt lat="42.0779940" lon="-8.8937530">
        <ele>36.5</ele>
        <time>2021-05-19T10:39:48Z</time>
      </trkpt>
      <trkpt lat="42.0779910" lon="-8.8937530">
        <ele>36.5</ele>
        <time>2021-05-19T10:39:49Z</time>
      </trkpt>
      <trkpt lat="42.0779890" lon="-8.8937510">
        <ele>36.5</ele>
        <time>2021-05-19T10:39:50Z</time>
      </trkpt>
      <trkpt lat="42.0779890" lon="-8.8937490">
        <ele>36.5</ele>
        <time>2021-05-19T10:39:51Z</time>
      </trkpt>
      <trkpt lat="42.0779910" lon="-8.8937460">
        <ele>36.5</ele>
        <time>2021-05-19T10:39:52Z</time>
      </trkpt>
      <trkpt lat="42.0779890" lon="-8.8937450">
        <ele>36.5</ele>
        <time>2021-05-19T10:39:53Z</time>
      </trkpt>
      <trkpt lat="42.0779870" lon="-8.8937470">
        <ele>36.5</ele>
        <time>2021-05-19T10:39:54Z</time>
      </trkpt>
      <trkpt lat="42.0779910" lon="-8.8937440">
        <ele>36.5</ele>
        <time>2021-05-19T10:39:56Z</time>
      </trkpt>
      <trkpt lat="42.0779990" lon="-8.8937400">
        <ele>36.4</ele>
        <time>2021-05-19T10:39:57Z</time>
      </trkpt>
      <trkpt lat="42.0780100" lon="-8.8937380">
        <ele>36.4</ele>
        <time>2021-05-19T10:39:58Z</time>
      </trkpt>
      <trkpt lat="42.0780110" lon="-8.8937380">
        <ele>36.4</ele>
        <time>2021-05-19T10:39:59Z</time>
      </trkpt>
      <trkpt lat="42.0780080" lon="-8.8937410">
        <ele>36.4</ele>
        <time>2021-05-19T10:40:00Z</time>
      </trkpt>
      <trkpt lat="42.0780070" lon="-8.8937410">
        <ele>36.4</ele>
        <time>2021-05-19T10:40:01Z</time>
      </trkpt>
      <trkpt lat="42.0780050" lon="-8.8937430">
        <ele>36.4</ele>
        <time>2021-05-19T10:40:02Z</time>
      </trkpt>
      <trkpt lat="42.0780020" lon="-8.8937460">
        <ele>36.4</ele>
        <time>2021-05-19T10:40:03Z</time>
      </trkpt>
      <trkpt lat="42.0779940" lon="-8.8937460">
        <ele>36.4</ele>
        <time>2021-05-19T10:40:04Z</time>
      </trkpt>
      <trkpt lat="42.0779940" lon="-8.8937480">
        <ele>36.4</ele>
        <time>2021-05-19T10:40:05Z</time>
      </trkpt>
      <trkpt lat="42.0779930" lon="-8.8937490">
        <ele>36.4</ele>
        <time>2021-05-19T10:40:06Z</time>
      </trkpt>
      <trkpt lat="42.0779940" lon="-8.8937480">
        <ele>36.4</ele>
        <time>2021-05-19T10:40:07Z</time>
      </trkpt>
      <trkpt lat="42.0779950" lon="-8.8937500">
        <ele>36.4</ele>
        <time>2021-05-19T10:40:08Z</time>
      </trkpt>
      <trkpt lat="42.0779950" lon="-8.8937500">
        <ele>36.4</ele>
        <time>2021-05-19T10:40:09Z</time>
      </trkpt>
      <trkpt lat="42.0779970" lon="-8.8937530">
        <ele>36.4</ele>
        <time>2021-05-19T10:40:10Z</time>
      </trkpt>
      <trkpt lat="42.0779990" lon="-8.8937550">
        <ele>36.4</ele>
        <time>2021-05-19T10:40:11Z</time>
      </trkpt>
      <trkpt lat="42.0780070" lon="-8.8937530">
        <ele>36.4</ele>
        <time>2021-05-19T10:40:12Z</time>
      </trkpt>
      <trkpt lat="42.0780070" lon="-8.8937530">
        <ele>36.4</ele>
        <time>2021-05-19T10:40:13Z</time>
      </trkpt>
      <trkpt lat="42.0780080" lon="-8.8937580">
        <ele>36.3</ele>
        <time>2021-05-19T10:40:14Z</time>
      </trkpt>
      <trkpt lat="42.0780080" lon="-8.8937580">
        <ele>36.3</ele>
        <time>2021-05-19T10:40:15Z</time>
      </trkpt>
      <trkpt lat="42.0780080" lon="-8.8937580">
        <ele>36.3</ele>
        <time>2021-05-19T10:40:16Z</time>
      </trkpt>
      <trkpt lat="42.0780080" lon="-8.8937580">
        <ele>36.3</ele>
        <time>2021-05-19T10:40:17Z</time>
      </trkpt>
      <trkpt lat="42.0780080" lon="-8.8937580">
        <ele>36.3</ele>
        <time>2021-05-19T10:40:18Z</time>
      </trkpt>
      <trkpt lat="42.0780080" lon="-8.8937580">
        <ele>36.3</ele>
        <time>2021-05-19T10:40:19Z</time>
      </trkpt>
      <trkpt lat="42.0780080" lon="-8.8937580">
        <ele>36.3</ele>
        <time>2021-05-19T10:40:20Z</time>
      </trkpt>
      <trkpt lat="42.0780040" lon="-8.8937570">
        <ele>36.3</ele>
        <time>2021-05-19T10:40:21Z</time>
      </trkpt>
      <trkpt lat="42.0780040" lon="-8.8937570">
        <ele>36.3</ele>
        <time>2021-05-19T10:40:22Z</time>
      </trkpt>
      <trkpt lat="42.0780060" lon="-8.8937580">
        <ele>36.3</ele>
        <time>2021-05-19T10:40:23Z</time>
      </trkpt>
      <trkpt lat="42.0780080" lon="-8.8937570">
        <ele>36.3</ele>
        <time>2021-05-19T10:40:24Z</time>
      </trkpt>
      <trkpt lat="42.0780080" lon="-8.8937580">
        <ele>36.3</ele>
        <time>2021-05-19T10:40:25Z</time>
      </trkpt>
      <trkpt lat="42.0780090" lon="-8.8937560">
        <ele>36.3</ele>
        <time>2021-05-19T10:40:26Z</time>
      </trkpt>
      <trkpt lat="42.0780060" lon="-8.8937560">
        <ele>36.3</ele>
        <time>2021-05-19T10:40:27Z</time>
      </trkpt>
      <trkpt lat="42.0780060" lon="-8.8937560">
        <ele>36.3</ele>
        <time>2021-05-19T10:40:28Z</time>
      </trkpt>
      <trkpt lat="42.0780060" lon="-8.8937560">
        <ele>36.3</ele>
        <time>2021-05-19T10:40:29Z</time>
      </trkpt>
      <trkpt lat="42.0780080" lon="-8.8937590">
        <ele>36.3</ele>
        <time>2021-05-19T10:40:30Z</time>
      </trkpt>
      <trkpt lat="42.0780100" lon="-8.8937550">
        <ele>36.3</ele>
        <time>2021-05-19T10:40:31Z</time>
      </trkpt>
      <trkpt lat="42.0780110" lon="-8.8937570">
        <ele>36.3</ele>
        <time>2021-05-19T10:40:32Z</time>
      </trkpt>
      <trkpt lat="42.0780110" lon="-8.8937570">
        <ele>36.3</ele>
        <time>2021-05-19T10:40:33Z</time>
      </trkpt>
      <trkpt lat="42.0780110" lon="-8.8937570">
        <ele>36.3</ele>
        <time>2021-05-19T10:40:34Z</time>
      </trkpt>
      <trkpt lat="42.0780100" lon="-8.8937550">
        <ele>36.3</ele>
        <time>2021-05-19T10:40:35Z</time>
      </trkpt>
      <trkpt lat="42.0780100" lon="-8.8937550">
        <ele>36.3</ele>
        <time>2021-05-19T10:40:36Z</time>
      </trkpt>
      <trkpt lat="42.0780100" lon="-8.8937550">
        <ele>36.3</ele>
        <time>2021-05-19T10:40:37Z</time>
      </trkpt>
      <trkpt lat="42.0780100" lon="-8.8937550">
        <ele>36.3</ele>
        <time>2021-05-19T10:40:38Z</time>
      </trkpt>
      <trkpt lat="42.0780100" lon="-8.8937550">
        <ele>36.3</ele>
        <time>2021-05-19T10:40:39Z</time>
      </trkpt>
      <trkpt lat="42.0780100" lon="-8.8937550">
        <ele>36.3</ele>
        <time>2021-05-19T10:40:40Z</time>
      </trkpt>
      <trkpt lat="42.0780100" lon="-8.8937550">
        <ele>36.3</ele>
        <time>2021-05-19T10:40:41Z</time>
      </trkpt>
      <trkpt lat="42.0780100" lon="-8.8937550">
        <ele>36.3</ele>
        <time>2021-05-19T10:40:42Z</time>
      </trkpt>
      <trkpt lat="42.0780030" lon="-8.8937510">
        <ele>36.3</ele>
        <time>2021-05-19T10:40:43Z</time>
      </trkpt>
      <trkpt lat="42.0780010" lon="-8.8937510">
        <ele>36.3</ele>
        <time>2021-05-19T10:40:44Z</time>
      </trkpt>
      <trkpt lat="42.0779990" lon="-8.8937510">
        <ele>36.3</ele>
        <time>2021-05-19T10:40:45Z</time>
      </trkpt>
      <trkpt lat="42.0779980" lon="-8.8937510">
        <ele>36.3</ele>
        <time>2021-05-19T10:40:46Z</time>
      </trkpt>
      <trkpt lat="42.0779990" lon="-8.8937520">
        <ele>36.3</ele>
        <time>2021-05-19T10:40:47Z</time>
      </trkpt>
      <trkpt lat="42.0779990" lon="-8.8937520">
        <ele>36.3</ele>
        <time>2021-05-19T10:40:48Z</time>
      </trkpt>
      <trkpt lat="42.0780010" lon="-8.8937510">
        <ele>36.3</ele>
        <time>2021-05-19T10:40:49Z</time>
      </trkpt>
      <trkpt lat="42.0779980" lon="-8.8937510">
        <ele>36.3</ele>
        <time>2021-05-19T10:40:50Z</time>
      </trkpt>
      <trkpt lat="42.0779980" lon="-8.8937520">
        <ele>36.3</ele>
        <time>2021-05-19T10:40:51Z</time>
      </trkpt>
      <trkpt lat="42.0779990" lon="-8.8937540">
        <ele>36.3</ele>
        <time>2021-05-19T10:40:52Z</time>
      </trkpt>
      <trkpt lat="42.0780010" lon="-8.8937610">
        <ele>36.2</ele>
        <time>2021-05-19T10:40:53Z</time>
      </trkpt>
      <trkpt lat="42.0779970" lon="-8.8937640">
        <ele>36.2</ele>
        <time>2021-05-19T10:40:54Z</time>
      </trkpt>
      <trkpt lat="42.0779940" lon="-8.8937640">
        <ele>36.2</ele>
        <time>2021-05-19T10:40:55Z</time>
      </trkpt>
      <trkpt lat="42.0779950" lon="-8.8937640">
        <ele>36.2</ele>
        <time>2021-05-19T10:40:56Z</time>
      </trkpt>
      <trkpt lat="42.0779920" lon="-8.8937640">
        <ele>36.2</ele>
        <time>2021-05-19T10:40:57Z</time>
      </trkpt>
      <trkpt lat="42.0779910" lon="-8.8937630">
        <ele>36.2</ele>
        <time>2021-05-19T10:40:58Z</time>
      </trkpt>
      <trkpt lat="42.0779910" lon="-8.8937620">
        <ele>36.2</ele>
        <time>2021-05-19T10:40:59Z</time>
      </trkpt>
      <trkpt lat="42.0779930" lon="-8.8937590">
        <ele>36.2</ele>
        <time>2021-05-19T10:41:00Z</time>
      </trkpt>
      <trkpt lat="42.0779880" lon="-8.8937570">
        <ele>36.2</ele>
        <time>2021-05-19T10:41:01Z</time>
      </trkpt>
      <trkpt lat="42.0779880" lon="-8.8937510">
        <ele>36.2</ele>
        <time>2021-05-19T10:41:02Z</time>
      </trkpt>
      <trkpt lat="42.0779840" lon="-8.8937480">
        <ele>36.2</ele>
        <time>2021-05-19T10:41:03Z</time>
      </trkpt>
      <trkpt lat="42.0779850" lon="-8.8937460">
        <ele>36.2</ele>
        <time>2021-05-19T10:41:04Z</time>
      </trkpt>
      <trkpt lat="42.0779880" lon="-8.8937470">
        <ele>36.2</ele>
        <time>2021-05-19T10:41:05Z</time>
      </trkpt>
      <trkpt lat="42.0779860" lon="-8.8937470">
        <ele>36.2</ele>
        <time>2021-05-19T10:41:06Z</time>
      </trkpt>
      <trkpt lat="42.0779850" lon="-8.8937450">
        <ele>36.2</ele>
        <time>2021-05-19T10:41:07Z</time>
      </trkpt>
      <trkpt lat="42.0779850" lon="-8.8937440">
        <ele>36.2</ele>
        <time>2021-05-19T10:41:08Z</time>
      </trkpt>
      <trkpt lat="42.0779860" lon="-8.8937390">
        <ele>36.2</ele>
        <time>2021-05-19T10:41:09Z</time>
      </trkpt>
      <trkpt lat="42.0779880" lon="-8.8937390">
        <ele>36.1</ele>
        <time>2021-05-19T10:41:10Z</time>
      </trkpt>
      <trkpt lat="42.0779880" lon="-8.8937380">
        <ele>36.1</ele>
        <time>2021-05-19T10:41:11Z</time>
      </trkpt>
      <trkpt lat="42.0779880" lon="-8.8937370">
        <ele>36.1</ele>
        <time>2021-05-19T10:41:12Z</time>
      </trkpt>
      <trkpt lat="42.0779880" lon="-8.8937360">
        <ele>36.1</ele>
        <time>2021-05-19T10:41:13Z</time>
      </trkpt>
      <trkpt lat="42.0779890" lon="-8.8937390">
        <ele>36.1</ele>
        <time>2021-05-19T10:41:14Z</time>
      </trkpt>
      <trkpt lat="42.0779880" lon="-8.8937400">
        <ele>36.1</ele>
        <time>2021-05-19T10:41:15Z</time>
      </trkpt>
      <trkpt lat="42.0779880" lon="-8.8937400">
        <ele>36.1</ele>
        <time>2021-05-19T10:41:16Z</time>
      </trkpt>
      <trkpt lat="42.0779840" lon="-8.8937440">
        <ele>36.1</ele>
        <time>2021-05-19T10:41:17Z</time>
      </trkpt>
      <trkpt lat="42.0779840" lon="-8.8937440">
        <ele>36.1</ele>
        <time>2021-05-19T10:41:18Z</time>
      </trkpt>
      <trkpt lat="42.0779860" lon="-8.8937450">
        <ele>36.1</ele>
        <time>2021-05-19T10:41:19Z</time>
      </trkpt>
      <trkpt lat="42.0779850" lon="-8.8937430">
        <ele>36.1</ele>
        <time>2021-05-19T10:41:20Z</time>
      </trkpt>
      <trkpt lat="42.0779860" lon="-8.8937430">
        <ele>36.1</ele>
        <time>2021-05-19T10:41:21Z</time>
      </trkpt>
      <trkpt lat="42.0779890" lon="-8.8937450">
        <ele>36.1</ele>
        <time>2021-05-19T10:41:22Z</time>
      </trkpt>
      <trkpt lat="42.0779900" lon="-8.8937460">
        <ele>36.1</ele>
        <time>2021-05-19T10:41:23Z</time>
      </trkpt>
      <trkpt lat="42.0779890" lon="-8.8937470">
        <ele>36.1</ele>
        <time>2021-05-19T10:41:24Z</time>
      </trkpt>
      <trkpt lat="42.0779880" lon="-8.8937460">
        <ele>36.1</ele>
        <time>2021-05-19T10:41:25Z</time>
      </trkpt>
      <trkpt lat="42.0779900" lon="-8.8937480">
        <ele>36.1</ele>
        <time>2021-05-19T10:41:26Z</time>
      </trkpt>
      <trkpt lat="42.0779910" lon="-8.8937520">
        <ele>36.1</ele>
        <time>2021-05-19T10:41:27Z</time>
      </trkpt>
      <trkpt lat="42.0779940" lon="-8.8937550">
        <ele>36.1</ele>
        <time>2021-05-19T10:41:28Z</time>
      </trkpt>
      <trkpt lat="42.0779980" lon="-8.8937530">
        <ele>36.1</ele>
        <time>2021-05-19T10:41:29Z</time>
      </trkpt>
      <trkpt lat="42.0779950" lon="-8.8937530">
        <ele>36.1</ele>
        <time>2021-05-19T10:41:30Z</time>
      </trkpt>
      <trkpt lat="42.0779950" lon="-8.8937530">
        <ele>36.1</ele>
        <time>2021-05-19T10:41:31Z</time>
      </trkpt>
      <trkpt lat="42.0779950" lon="-8.8937530">
        <ele>36.1</ele>
        <time>2021-05-19T10:41:32Z</time>
      </trkpt>
      <trkpt lat="42.0779930" lon="-8.8937510">
        <ele>36.1</ele>
        <time>2021-05-19T10:41:34Z</time>
      </trkpt>
      <trkpt lat="42.0779920" lon="-8.8937490">
        <ele>36.0</ele>
        <time>2021-05-19T10:41:35Z</time>
      </trkpt>
      <trkpt lat="42.0779970" lon="-8.8937510">
        <ele>36.0</ele>
        <time>2021-05-19T10:41:36Z</time>
      </trkpt>
      <trkpt lat="42.0779970" lon="-8.8937480">
        <ele>36.0</ele>
        <time>2021-05-19T10:41:37Z</time>
      </trkpt>
      <trkpt lat="42.0779940" lon="-8.8937460">
        <ele>36.0</ele>
        <time>2021-05-19T10:41:38Z</time>
      </trkpt>
      <trkpt lat="42.0779950" lon="-8.8937440">
        <ele>36.0</ele>
        <time>2021-05-19T10:41:39Z</time>
      </trkpt>
      <trkpt lat="42.0779950" lon="-8.8937430">
        <ele>36.0</ele>
        <time>2021-05-19T10:41:40Z</time>
      </trkpt>
      <trkpt lat="42.0779940" lon="-8.8937430">
        <ele>36.0</ele>
        <time>2021-05-19T10:41:41Z</time>
      </trkpt>
      <trkpt lat="42.0779960" lon="-8.8937400">
        <ele>36.0</ele>
        <time>2021-05-19T10:41:42Z</time>
      </trkpt>
      <trkpt lat="42.0780000" lon="-8.8937320">
        <ele>36.0</ele>
        <time>2021-05-19T10:41:43Z</time>
      </trkpt>
      <trkpt lat="42.0779950" lon="-8.8937310">
        <ele>36.0</ele>
        <time>2021-05-19T10:41:44Z</time>
      </trkpt>
      <trkpt lat="42.0779890" lon="-8.8937360">
        <ele>36.0</ele>
        <time>2021-05-19T10:41:45Z</time>
      </trkpt>
      <trkpt lat="42.0779840" lon="-8.8937340">
        <ele>36.0</ele>
        <time>2021-05-19T10:41:46Z</time>
      </trkpt>
      <trkpt lat="42.0779770" lon="-8.8937400">
        <ele>35.9</ele>
        <time>2021-05-19T10:41:47Z</time>
      </trkpt>
      <trkpt lat="42.0779730" lon="-8.8937460">
        <ele>35.9</ele>
        <time>2021-05-19T10:41:48Z</time>
      </trkpt>
      <trkpt lat="42.0779760" lon="-8.8937500">
        <ele>35.9</ele>
        <time>2021-05-19T10:41:49Z</time>
      </trkpt>
      <trkpt lat="42.0779750" lon="-8.8937540">
        <ele>35.9</ele>
        <time>2021-05-19T10:41:50Z</time>
      </trkpt>
      <trkpt lat="42.0779720" lon="-8.8937490">
        <ele>35.9</ele>
        <time>2021-05-19T10:41:51Z</time>
      </trkpt>
      <trkpt lat="42.0779690" lon="-8.8937400">
        <ele>35.9</ele>
        <time>2021-05-19T10:41:52Z</time>
      </trkpt>
      <trkpt lat="42.0779680" lon="-8.8937440">
        <ele>35.9</ele>
        <time>2021-05-19T10:41:53Z</time>
      </trkpt>
      <trkpt lat="42.0779680" lon="-8.8937440">
        <ele>35.9</ele>
        <time>2021-05-19T10:41:54Z</time>
      </trkpt>
      <trkpt lat="42.0779690" lon="-8.8937440">
        <ele>35.9</ele>
        <time>2021-05-19T10:41:55Z</time>
      </trkpt>
      <trkpt lat="42.0779700" lon="-8.8937440">
        <ele>35.9</ele>
        <time>2021-05-19T10:41:56Z</time>
      </trkpt>
      <trkpt lat="42.0779700" lon="-8.8937450">
        <ele>35.9</ele>
        <time>2021-05-19T10:41:57Z</time>
      </trkpt>
      <trkpt lat="42.0779710" lon="-8.8937450">
        <ele>35.9</ele>
        <time>2021-05-19T10:41:58Z</time>
      </trkpt>
      <trkpt lat="42.0779720" lon="-8.8937450">
        <ele>35.9</ele>
        <time>2021-05-19T10:41:59Z</time>
      </trkpt>
      <trkpt lat="42.0779720" lon="-8.8937450">
        <ele>35.9</ele>
        <time>2021-05-19T10:42:00Z</time>
      </trkpt>
      <trkpt lat="42.0779730" lon="-8.8937450">
        <ele>35.8</ele>
        <time>2021-05-19T10:42:01Z</time>
      </trkpt>
      <trkpt lat="42.0779740" lon="-8.8937450">
        <ele>35.8</ele>
        <time>2021-05-19T10:42:02Z</time>
      </trkpt>
      <trkpt lat="42.0779750" lon="-8.8937450">
        <ele>35.8</ele>
        <time>2021-05-19T10:42:03Z</time>
      </trkpt>
      <trkpt lat="42.0779750" lon="-8.8937450">
        <ele>35.8</ele>
        <time>2021-05-19T10:42:04Z</time>
      </trkpt>
      <trkpt lat="42.0779760" lon="-8.8937450">
        <ele>35.8</ele>
        <time>2021-05-19T10:42:05Z</time>
      </trkpt>
      <trkpt lat="42.0779770" lon="-8.8937460">
        <ele>35.8</ele>
        <time>2021-05-19T10:42:06Z</time>
      </trkpt>
      <trkpt lat="42.0779770" lon="-8.8937460">
        <ele>35.8</ele>
        <time>2021-05-19T10:42:07Z</time>
      </trkpt>
      <trkpt lat="42.0779780" lon="-8.8937460">
        <ele>35.8</ele>
        <time>2021-05-19T10:42:08Z</time>
      </trkpt>
      <trkpt lat="42.0779790" lon="-8.8937460">
        <ele>35.8</ele>
        <time>2021-05-19T10:42:09Z</time>
      </trkpt>
      <trkpt lat="42.0779790" lon="-8.8937460">
        <ele>35.8</ele>
        <time>2021-05-19T10:42:10Z</time>
      </trkpt>
      <trkpt lat="42.0779800" lon="-8.8937460">
        <ele>35.8</ele>
        <time>2021-05-19T10:42:11Z</time>
      </trkpt>
      <trkpt lat="42.0779810" lon="-8.8937460">
        <ele>35.8</ele>
        <time>2021-05-19T10:42:12Z</time>
      </trkpt>
      <trkpt lat="42.0779810" lon="-8.8937460">
        <ele>35.8</ele>
        <time>2021-05-19T10:42:13Z</time>
      </trkpt>
      <trkpt lat="42.0779820" lon="-8.8937460">
        <ele>35.8</ele>
        <time>2021-05-19T10:42:14Z</time>
      </trkpt>
      <trkpt lat="42.0779830" lon="-8.8937470">
        <ele>35.8</ele>
        <time>2021-05-19T10:42:15Z</time>
      </trkpt>
      <trkpt lat="42.0779830" lon="-8.8937470">
        <ele>35.8</ele>
        <time>2021-05-19T10:42:16Z</time>
      </trkpt>
      <trkpt lat="42.0779840" lon="-8.8937470">
        <ele>35.8</ele>
        <time>2021-05-19T10:42:17Z</time>
      </trkpt>
      <trkpt lat="42.0779850" lon="-8.8937470">
        <ele>35.8</ele>
        <time>2021-05-19T10:42:18Z</time>
      </trkpt>
      <trkpt lat="42.0779860" lon="-8.8937470">
        <ele>35.8</ele>
        <time>2021-05-19T10:42:19Z</time>
      </trkpt>
      <trkpt lat="42.0779860" lon="-8.8937470">
        <ele>35.8</ele>
        <time>2021-05-19T10:42:20Z</time>
      </trkpt>
      <trkpt lat="42.0779870" lon="-8.8937470">
        <ele>35.8</ele>
        <time>2021-05-19T10:42:21Z</time>
      </trkpt>
      <trkpt lat="42.0779880" lon="-8.8937470">
        <ele>35.8</ele>
        <time>2021-05-19T10:42:22Z</time>
      </trkpt>
      <trkpt lat="42.0779880" lon="-8.8937470">
        <ele>35.8</ele>
        <time>2021-05-19T10:42:23Z</time>
      </trkpt>
      <trkpt lat="42.0779890" lon="-8.8937480">
        <ele>35.8</ele>
        <time>2021-05-19T10:42:24Z</time>
      </trkpt>
      <trkpt lat="42.0779900" lon="-8.8937480">
        <ele>35.8</ele>
        <time>2021-05-19T10:42:25Z</time>
      </trkpt>
      <trkpt lat="42.0779900" lon="-8.8937480">
        <ele>35.8</ele>
        <time>2021-05-19T10:42:26Z</time>
      </trkpt>
      <trkpt lat="42.0779910" lon="-8.8937480">
        <ele>35.8</ele>
        <time>2021-05-19T10:42:27Z</time>
      </trkpt>
      <trkpt lat="42.0779920" lon="-8.8937480">
        <ele>35.8</ele>
        <time>2021-05-19T10:42:28Z</time>
      </trkpt>
      <trkpt lat="42.0779920" lon="-8.8937480">
        <ele>35.8</ele>
        <time>2021-05-19T10:42:29Z</time>
      </trkpt>
      <trkpt lat="42.0779930" lon="-8.8937480">
        <ele>35.8</ele>
        <time>2021-05-19T10:42:30Z</time>
      </trkpt>
      <trkpt lat="42.0779940" lon="-8.8937480">
        <ele>35.8</ele>
        <time>2021-05-19T10:42:31Z</time>
      </trkpt>
      <trkpt lat="42.0779940" lon="-8.8937480">
        <ele>35.8</ele>
        <time>2021-05-19T10:42:32Z</time>
      </trkpt>
      <trkpt lat="42.0779950" lon="-8.8937490">
        <ele>35.8</ele>
        <time>2021-05-19T10:42:33Z</time>
      </trkpt>
      <trkpt lat="42.0779960" lon="-8.8937490">
        <ele>35.8</ele>
        <time>2021-05-19T10:42:34Z</time>
      </trkpt>
      <trkpt lat="42.0779960" lon="-8.8937490">
        <ele>35.8</ele>
        <time>2021-05-19T10:42:35Z</time>
      </trkpt>
      <trkpt lat="42.0779970" lon="-8.8937490">
        <ele>35.8</ele>
        <time>2021-05-19T10:42:36Z</time>
      </trkpt>
      <trkpt lat="42.0779980" lon="-8.8937490">
        <ele>35.8</ele>
        <time>2021-05-19T10:42:37Z</time>
      </trkpt>
      <trkpt lat="42.0779990" lon="-8.8937490">
        <ele>35.8</ele>
        <time>2021-05-19T10:42:38Z</time>
      </trkpt>
      <trkpt lat="42.0779990" lon="-8.8937490">
        <ele>35.8</ele>
        <time>2021-05-19T10:42:39Z</time>
      </trkpt>
      <trkpt lat="42.0780000" lon="-8.8937490">
        <ele>35.8</ele>
        <time>2021-05-19T10:42:40Z</time>
      </trkpt>
      <trkpt lat="42.0780010" lon="-8.8937500">
        <ele>35.8</ele>
        <time>2021-05-19T10:42:41Z</time>
      </trkpt>
      <trkpt lat="42.0780010" lon="-8.8937500">
        <ele>35.8</ele>
        <time>2021-05-19T10:42:42Z</time>
      </trkpt>
      <trkpt lat="42.0780020" lon="-8.8937500">
        <ele>35.8</ele>
        <time>2021-05-19T10:42:43Z</time>
      </trkpt>
      <trkpt lat="42.0780030" lon="-8.8937500">
        <ele>35.8</ele>
        <time>2021-05-19T10:42:44Z</time>
      </trkpt>
      <trkpt lat="42.0780030" lon="-8.8937500">
        <ele>35.8</ele>
        <time>2021-05-19T10:42:45Z</time>
      </trkpt>
      <trkpt lat="42.0780040" lon="-8.8937500">
        <ele>35.8</ele>
        <time>2021-05-19T10:42:46Z</time>
      </trkpt>
      <trkpt lat="42.0780050" lon="-8.8937500">
        <ele>35.8</ele>
        <time>2021-05-19T10:42:47Z</time>
      </trkpt>
      <trkpt lat="42.0780050" lon="-8.8937500">
        <ele>35.8</ele>
        <time>2021-05-19T10:42:48Z</time>
      </trkpt>
      <trkpt lat="42.0780060" lon="-8.8937500">
        <ele>35.8</ele>
        <time>2021-05-19T10:42:49Z</time>
      </trkpt>
      <trkpt lat="42.0780070" lon="-8.8937510">
        <ele>35.8</ele>
        <time>2021-05-19T10:42:50Z</time>
      </trkpt>
      <trkpt lat="42.0780070" lon="-8.8937510">
        <ele>35.8</ele>
        <time>2021-05-19T10:42:51Z</time>
      </trkpt>
      <trkpt lat="42.0780080" lon="-8.8937510">
        <ele>35.8</ele>
        <time>2021-05-19T10:42:52Z</time>
      </trkpt>
      <trkpt lat="42.0780090" lon="-8.8937510">
        <ele>35.8</ele>
        <time>2021-05-19T10:42:53Z</time>
      </trkpt>
      <trkpt lat="42.0780090" lon="-8.8937510">
        <ele>35.8</ele>
        <time>2021-05-19T10:42:54Z</time>
      </trkpt>
      <trkpt lat="42.0780100" lon="-8.8937510">
        <ele>35.8</ele>
        <time>2021-05-19T10:42:55Z</time>
      </trkpt>
      <trkpt lat="42.0780110" lon="-8.8937510">
        <ele>35.7</ele>
        <time>2021-05-19T10:42:56Z</time>
      </trkpt>
      <trkpt lat="42.0780120" lon="-8.8937510">
        <ele>35.7</ele>
        <time>2021-05-19T10:42:57Z</time>
      </trkpt>
      <trkpt lat="42.0780120" lon="-8.8937510">
        <ele>35.7</ele>
        <time>2021-05-19T10:42:58Z</time>
      </trkpt>
      <trkpt lat="42.0780130" lon="-8.8937520">
        <ele>35.7</ele>
        <time>2021-05-19T10:42:59Z</time>
      </trkpt>
      <trkpt lat="42.0780140" lon="-8.8937520">
        <ele>35.7</ele>
        <time>2021-05-19T10:43:00Z</time>
      </trkpt>
      <trkpt lat="42.0780140" lon="-8.8937520">
        <ele>35.7</ele>
        <time>2021-05-19T10:43:01Z</time>
      </trkpt>
      <trkpt lat="42.0780150" lon="-8.8937520">
        <ele>35.7</ele>
        <time>2021-05-19T10:43:02Z</time>
      </trkpt>
      <trkpt lat="42.0780160" lon="-8.8937520">
        <ele>35.7</ele>
        <time>2021-05-19T10:43:03Z</time>
      </trkpt>
      <trkpt lat="42.0780160" lon="-8.8937520">
        <ele>35.7</ele>
        <time>2021-05-19T10:43:04Z</time>
      </trkpt>
      <trkpt lat="42.0780170" lon="-8.8937520">
        <ele>35.7</ele>
        <time>2021-05-19T10:43:05Z</time>
      </trkpt>
      <trkpt lat="42.0780180" lon="-8.8937520">
        <ele>35.7</ele>
        <time>2021-05-19T10:43:06Z</time>
      </trkpt>
      <trkpt lat="42.0780180" lon="-8.8937520">
        <ele>35.7</ele>
        <time>2021-05-19T10:43:07Z</time>
      </trkpt>
      <trkpt lat="42.0780190" lon="-8.8937530">
        <ele>35.7</ele>
        <time>2021-05-19T10:43:08Z</time>
      </trkpt>
      <trkpt lat="42.0780200" lon="-8.8937530">
        <ele>35.7</ele>
        <time>2021-05-19T10:43:09Z</time>
      </trkpt>
      <trkpt lat="42.0780200" lon="-8.8937530">
        <ele>35.7</ele>
        <time>2021-05-19T10:43:10Z</time>
      </trkpt>
      <trkpt lat="42.0780210" lon="-8.8937530">
        <ele>35.7</ele>
        <time>2021-05-19T10:43:11Z</time>
      </trkpt>
      <trkpt lat="42.0780220" lon="-8.8937530">
        <ele>35.7</ele>
        <time>2021-05-19T10:43:12Z</time>
      </trkpt>
      <trkpt lat="42.0780230" lon="-8.8937530">
        <ele>35.7</ele>
        <time>2021-05-19T10:43:13Z</time>
      </trkpt>
      <trkpt lat="42.0780230" lon="-8.8937530">
        <ele>35.7</ele>
        <time>2021-05-19T10:43:14Z</time>
      </trkpt>
      <trkpt lat="42.0780240" lon="-8.8937530">
        <ele>35.7</ele>
        <time>2021-05-19T10:43:15Z</time>
      </trkpt>
      <trkpt lat="42.0780250" lon="-8.8937530">
        <ele>35.7</ele>
        <time>2021-05-19T10:43:16Z</time>
      </trkpt>
      <trkpt lat="42.0780250" lon="-8.8937540">
        <ele>35.7</ele>
        <time>2021-05-19T10:43:17Z</time>
      </trkpt>
      <trkpt lat="42.0780260" lon="-8.8937540">
        <ele>35.7</ele>
        <time>2021-05-19T10:43:18Z</time>
      </trkpt>
      <trkpt lat="42.0780270" lon="-8.8937540">
        <ele>35.7</ele>
        <time>2021-05-19T10:43:19Z</time>
      </trkpt>
      <trkpt lat="42.0780270" lon="-8.8937540">
        <ele>35.7</ele>
        <time>2021-05-19T10:43:21Z</time>
      </trkpt>
      <trkpt lat="42.0780280" lon="-8.8937540">
        <ele>35.7</ele>
        <time>2021-05-19T10:43:22Z</time>
      </trkpt>
      <trkpt lat="42.0780440" lon="-8.8937510">
        <ele>35.7</ele>
        <time>2021-05-19T10:43:23Z</time>
      </trkpt>
      <trkpt lat="42.0780470" lon="-8.8937470">
        <ele>35.6</ele>
        <time>2021-05-19T10:43:24Z</time>
      </trkpt>
      <trkpt lat="42.0780580" lon="-8.8937480">
        <ele>35.6</ele>
        <time>2021-05-19T10:43:25Z</time>
      </trkpt>
      <trkpt lat="42.0780680" lon="-8.8937480">
        <ele>35.6</ele>
        <time>2021-05-19T10:43:26Z</time>
      </trkpt>
      <trkpt lat="42.0780770" lon="-8.8937460">
        <ele>35.6</ele>
        <time>2021-05-19T10:43:27Z</time>
      </trkpt>
      <trkpt lat="42.0780890" lon="-8.8937450">
        <ele>35.5</ele>
        <time>2021-05-19T10:43:28Z</time>
      </trkpt>
      <trkpt lat="42.0781120" lon="-8.8937410">
        <ele>35.5</ele>
        <time>2021-05-19T10:43:29Z</time>
      </trkpt>
      <trkpt lat="42.0781200" lon="-8.8937390">
        <ele>35.4</ele>
        <time>2021-05-19T10:43:30Z</time>
      </trkpt>
      <trkpt lat="42.0781270" lon="-8.8937360">
        <ele>35.4</ele>
        <time>2021-05-19T10:43:31Z</time>
      </trkpt>
      <trkpt lat="42.0781440" lon="-8.8937300">
        <ele>35.4</ele>
        <time>2021-05-19T10:43:32Z</time>
      </trkpt>
      <trkpt lat="42.0781540" lon="-8.8937270">
        <ele>35.3</ele>
        <time>2021-05-19T10:43:33Z</time>
      </trkpt>
      <trkpt lat="42.0781630" lon="-8.8937250">
        <ele>35.3</ele>
        <time>2021-05-19T10:43:34Z</time>
      </trkpt>
      <trkpt lat="42.0781740" lon="-8.8937260">
        <ele>35.3</ele>
        <time>2021-05-19T10:43:35Z</time>
      </trkpt>
      <trkpt lat="42.0781870" lon="-8.8937230">
        <ele>35.2</ele>
        <time>2021-05-19T10:43:36Z</time>
      </trkpt>
      <trkpt lat="42.0781920" lon="-8.8937210">
        <ele>35.2</ele>
        <time>2021-05-19T10:43:37Z</time>
      </trkpt>
      <trkpt lat="42.0782100" lon="-8.8937110">
        <ele>35.2</ele>
        <time>2021-05-19T10:43:38Z</time>
      </trkpt>
      <trkpt lat="42.0782180" lon="-8.8937080">
        <ele>35.1</ele>
        <time>2021-05-19T10:43:39Z</time>
      </trkpt>
      <trkpt lat="42.0782270" lon="-8.8937040">
        <ele>35.1</ele>
        <time>2021-05-19T10:43:40Z</time>
      </trkpt>
      <trkpt lat="42.0782340" lon="-8.8937000">
        <ele>35.2</ele>
        <time>2021-05-19T10:43:41Z</time>
      </trkpt>
      <trkpt lat="42.0782430" lon="-8.8936960">
        <ele>35.2</ele>
        <time>2021-05-19T10:43:42Z</time>
      </trkpt>
      <trkpt lat="42.0782530" lon="-8.8936930">
        <ele>35.1</ele>
        <time>2021-05-19T10:43:43Z</time>
      </trkpt>
      <trkpt lat="42.0782560" lon="-8.8936870">
        <ele>35.1</ele>
        <time>2021-05-19T10:43:44Z</time>
      </trkpt>
      <trkpt lat="42.0782670" lon="-8.8936800">
        <ele>35.1</ele>
        <time>2021-05-19T10:43:45Z</time>
      </trkpt>
      <trkpt lat="42.0782820" lon="-8.8936700">
        <ele>35.1</ele>
        <time>2021-05-19T10:43:46Z</time>
      </trkpt>
      <trkpt lat="42.0782900" lon="-8.8936720">
        <ele>35.1</ele>
        <time>2021-05-19T10:43:47Z</time>
      </trkpt>
      <trkpt lat="42.0783030" lon="-8.8936710">
        <ele>35.1</ele>
        <time>2021-05-19T10:43:48Z</time>
      </trkpt>
      <trkpt lat="42.0783140" lon="-8.8936620">
        <ele>35.0</ele>
        <time>2021-05-19T10:43:49Z</time>
      </trkpt>
      <trkpt lat="42.0783230" lon="-8.8936580">
        <ele>35.1</ele>
        <time>2021-05-19T10:43:50Z</time>
      </trkpt>
      <trkpt lat="42.0783290" lon="-8.8936590">
        <ele>35.1</ele>
        <time>2021-05-19T10:43:51Z</time>
      </trkpt>
      <trkpt lat="42.0783400" lon="-8.8936510">
        <ele>35.0</ele>
        <time>2021-05-19T10:43:52Z</time>
      </trkpt>
      <trkpt lat="42.0783630" lon="-8.8936460">
        <ele>35.0</ele>
        <time>2021-05-19T10:43:53Z</time>
      </trkpt>
      <trkpt lat="42.0783710" lon="-8.8936430">
        <ele>35.0</ele>
        <time>2021-05-19T10:43:54Z</time>
      </trkpt>
      <trkpt lat="42.0783800" lon="-8.8936390">
        <ele>35.0</ele>
        <time>2021-05-19T10:43:55Z</time>
      </trkpt>
      <trkpt lat="42.0783930" lon="-8.8936350">
        <ele>35.0</ele>
        <time>2021-05-19T10:43:56Z</time>
      </trkpt>
      <trkpt lat="42.0784020" lon="-8.8936320">
        <ele>34.9</ele>
        <time>2021-05-19T10:43:57Z</time>
      </trkpt>
      <trkpt lat="42.0784100" lon="-8.8936290">
        <ele>34.9</ele>
        <time>2021-05-19T10:43:58Z</time>
      </trkpt>
      <trkpt lat="42.0784230" lon="-8.8936200">
        <ele>34.9</ele>
        <time>2021-05-19T10:43:59Z</time>
      </trkpt>
      <trkpt lat="42.0784260" lon="-8.8936100">
        <ele>34.9</ele>
        <time>2021-05-19T10:44:00Z</time>
      </trkpt>
      <trkpt lat="42.0784370" lon="-8.8936050">
        <ele>34.9</ele>
        <time>2021-05-19T10:44:01Z</time>
      </trkpt>
      <trkpt lat="42.0784460" lon="-8.8936000">
        <ele>34.9</ele>
        <time>2021-05-19T10:44:02Z</time>
      </trkpt>
      <trkpt lat="42.0784550" lon="-8.8935940">
        <ele>34.8</ele>
        <time>2021-05-19T10:44:03Z</time>
      </trkpt>
      <trkpt lat="42.0784660" lon="-8.8935870">
        <ele>34.9</ele>
        <time>2021-05-19T10:44:04Z</time>
      </trkpt>
      <trkpt lat="42.0784800" lon="-8.8935810">
        <ele>34.9</ele>
        <time>2021-05-19T10:44:05Z</time>
      </trkpt>
      <trkpt lat="42.0784930" lon="-8.8935740">
        <ele>34.8</ele>
        <time>2021-05-19T10:44:06Z</time>
      </trkpt>
      <trkpt lat="42.0785060" lon="-8.8935700">
        <ele>34.8</ele>
        <time>2021-05-19T10:44:07Z</time>
      </trkpt>
      <trkpt lat="42.0785210" lon="-8.8935590">
        <ele>34.8</ele>
        <time>2021-05-19T10:44:08Z</time>
      </trkpt>
      <trkpt lat="42.0785310" lon="-8.8935470">
        <ele>34.8</ele>
        <time>2021-05-19T10:44:09Z</time>
      </trkpt>
      <trkpt lat="42.0785440" lon="-8.8935410">
        <ele>34.7</ele>
        <time>2021-05-19T10:44:10Z</time>
      </trkpt>
      <trkpt lat="42.0785500" lon="-8.8935310">
        <ele>34.7</ele>
        <time>2021-05-19T10:44:11Z</time>
      </trkpt>
      <trkpt lat="42.0785720" lon="-8.8935210">
        <ele>34.6</ele>
        <time>2021-05-19T10:44:12Z</time>
      </trkpt>
      <trkpt lat="42.0785830" lon="-8.8935140">
        <ele>34.6</ele>
        <time>2021-05-19T10:44:13Z</time>
      </trkpt>
      <trkpt lat="42.0785950" lon="-8.8935080">
        <ele>34.6</ele>
        <time>2021-05-19T10:44:14Z</time>
      </trkpt>
      <trkpt lat="42.0786070" lon="-8.8934980">
        <ele>34.6</ele>
        <time>2021-05-19T10:44:15Z</time>
      </trkpt>
      <trkpt lat="42.0786160" lon="-8.8934860">
        <ele>34.6</ele>
        <time>2021-05-19T10:44:16Z</time>
      </trkpt>
      <trkpt lat="42.0786280" lon="-8.8934790">
        <ele>34.5</ele>
        <time>2021-05-19T10:44:17Z</time>
      </trkpt>
      <trkpt lat="42.0786360" lon="-8.8934710">
        <ele>34.5</ele>
        <time>2021-05-19T10:44:18Z</time>
      </trkpt>
      <trkpt lat="42.0786440" lon="-8.8934710">
        <ele>34.5</ele>
        <time>2021-05-19T10:44:19Z</time>
      </trkpt>
      <trkpt lat="42.0786560" lon="-8.8934620">
        <ele>34.4</ele>
        <time>2021-05-19T10:44:20Z</time>
      </trkpt>
      <trkpt lat="42.0786670" lon="-8.8934550">
        <ele>34.4</ele>
        <time>2021-05-19T10:44:21Z</time>
      </trkpt>
      <trkpt lat="42.0786700" lon="-8.8934490">
        <ele>34.4</ele>
        <time>2021-05-19T10:44:22Z</time>
      </trkpt>
      <trkpt lat="42.0786840" lon="-8.8934400">
        <ele>34.4</ele>
        <time>2021-05-19T10:44:23Z</time>
      </trkpt>
      <trkpt lat="42.0786880" lon="-8.8934330">
        <ele>34.4</ele>
        <time>2021-05-19T10:44:24Z</time>
      </trkpt>
      <trkpt lat="42.0786950" lon="-8.8934200">
        <ele>34.3</ele>
        <time>2021-05-19T10:44:25Z</time>
      </trkpt>
      <trkpt lat="42.0787090" lon="-8.8934090">
        <ele>34.3</ele>
        <time>2021-05-19T10:44:26Z</time>
      </trkpt>
      <trkpt lat="42.0787210" lon="-8.8933980">
        <ele>34.3</ele>
        <time>2021-05-19T10:44:27Z</time>
      </trkpt>
      <trkpt lat="42.0787370" lon="-8.8933790">
        <ele>34.2</ele>
        <time>2021-05-19T10:44:28Z</time>
      </trkpt>
      <trkpt lat="42.0787520" lon="-8.8933780">
        <ele>34.2</ele>
        <time>2021-05-19T10:44:29Z</time>
      </trkpt>
      <trkpt lat="42.0787640" lon="-8.8933700">
        <ele>34.1</ele>
        <time>2021-05-19T10:44:30Z</time>
      </trkpt>
      <trkpt lat="42.0787780" lon="-8.8933630">
        <ele>34.0</ele>
        <time>2021-05-19T10:44:31Z</time>
      </trkpt>
      <trkpt lat="42.0787930" lon="-8.8933550">
        <ele>34.0</ele>
        <time>2021-05-19T10:44:32Z</time>
      </trkpt>
      <trkpt lat="42.0788050" lon="-8.8933420">
        <ele>33.9</ele>
        <time>2021-05-19T10:44:33Z</time>
      </trkpt>
      <trkpt lat="42.0788150" lon="-8.8933280">
        <ele>33.9</ele>
        <time>2021-05-19T10:44:34Z</time>
      </trkpt>
      <trkpt lat="42.0788270" lon="-8.8933140">
        <ele>33.9</ele>
        <time>2021-05-19T10:44:35Z</time>
      </trkpt>
      <trkpt lat="42.0788400" lon="-8.8933060">
        <ele>33.8</ele>
        <time>2021-05-19T10:44:36Z</time>
      </trkpt>
      <trkpt lat="42.0788550" lon="-8.8932950">
        <ele>33.7</ele>
        <time>2021-05-19T10:44:37Z</time>
      </trkpt>
      <trkpt lat="42.0788690" lon="-8.8932900">
        <ele>33.7</ele>
        <time>2021-05-19T10:44:38Z</time>
      </trkpt>
      <trkpt lat="42.0788800" lon="-8.8932790">
        <ele>33.6</ele>
        <time>2021-05-19T10:44:39Z</time>
      </trkpt>
      <trkpt lat="42.0788970" lon="-8.8932760">
        <ele>33.5</ele>
        <time>2021-05-19T10:44:40Z</time>
      </trkpt>
      <trkpt lat="42.0789110" lon="-8.8932660">
        <ele>33.5</ele>
        <time>2021-05-19T10:44:41Z</time>
      </trkpt>
      <trkpt lat="42.0789290" lon="-8.8932540">
        <ele>33.4</ele>
        <time>2021-05-19T10:44:42Z</time>
      </trkpt>
      <trkpt lat="42.0789360" lon="-8.8932470">
        <ele>33.4</ele>
        <time>2021-05-19T10:44:43Z</time>
      </trkpt>
      <trkpt lat="42.0789420" lon="-8.8932390">
        <ele>33.4</ele>
        <time>2021-05-19T10:44:44Z</time>
      </trkpt>
      <trkpt lat="42.0789540" lon="-8.8932220">
        <ele>33.3</ele>
        <time>2021-05-19T10:44:45Z</time>
      </trkpt>
      <trkpt lat="42.0789630" lon="-8.8932120">
        <ele>33.3</ele>
        <time>2021-05-19T10:44:46Z</time>
      </trkpt>
      <trkpt lat="42.0789800" lon="-8.8931920">
        <ele>33.2</ele>
        <time>2021-05-19T10:44:47Z</time>
      </trkpt>
      <trkpt lat="42.0789860" lon="-8.8931830">
        <ele>33.1</ele>
        <time>2021-05-19T10:44:48Z</time>
      </trkpt>
      <trkpt lat="42.0789920" lon="-8.8931740">
        <ele>33.1</ele>
        <time>2021-05-19T10:44:49Z</time>
      </trkpt>
      <trkpt lat="42.0790040" lon="-8.8931650">
        <ele>33.1</ele>
        <time>2021-05-19T10:44:50Z</time>
      </trkpt>
      <trkpt lat="42.0790170" lon="-8.8931570">
        <ele>33.0</ele>
        <time>2021-05-19T10:44:51Z</time>
      </trkpt>
      <trkpt lat="42.0790290" lon="-8.8931460">
        <ele>32.9</ele>
        <time>2021-05-19T10:44:52Z</time>
      </trkpt>
      <trkpt lat="42.0790390" lon="-8.8931300">
        <ele>32.8</ele>
        <time>2021-05-19T10:44:53Z</time>
      </trkpt>
      <trkpt lat="42.0790490" lon="-8.8931160">
        <ele>32.8</ele>
        <time>2021-05-19T10:44:54Z</time>
      </trkpt>
      <trkpt lat="42.0790620" lon="-8.8931090">
        <ele>32.8</ele>
        <time>2021-05-19T10:44:55Z</time>
      </trkpt>
      <trkpt lat="42.0790790" lon="-8.8930910">
        <ele>32.7</ele>
        <time>2021-05-19T10:44:56Z</time>
      </trkpt>
      <trkpt lat="42.0790860" lon="-8.8930830">
        <ele>32.6</ele>
        <time>2021-05-19T10:44:57Z</time>
      </trkpt>
      <trkpt lat="42.0790940" lon="-8.8930760">
        <ele>32.6</ele>
        <time>2021-05-19T10:44:58Z</time>
      </trkpt>
      <trkpt lat="42.0791060" lon="-8.8930670">
        <ele>32.5</ele>
        <time>2021-05-19T10:44:59Z</time>
      </trkpt>
      <trkpt lat="42.0791200" lon="-8.8930620">
        <ele>32.5</ele>
        <time>2021-05-19T10:45:00Z</time>
      </trkpt>
      <trkpt lat="42.0791330" lon="-8.8930540">
        <ele>32.4</ele>
        <time>2021-05-19T10:45:01Z</time>
      </trkpt>
      <trkpt lat="42.0791440" lon="-8.8930360">
        <ele>32.4</ele>
        <time>2021-05-19T10:45:02Z</time>
      </trkpt>
      <trkpt lat="42.0791580" lon="-8.8930350">
        <ele>32.3</ele>
        <time>2021-05-19T10:45:03Z</time>
      </trkpt>
      <trkpt lat="42.0791720" lon="-8.8930300">
        <ele>32.3</ele>
        <time>2021-05-19T10:45:04Z</time>
      </trkpt>
      <trkpt lat="42.0791820" lon="-8.8930110">
        <ele>32.2</ele>
        <time>2021-05-19T10:45:05Z</time>
      </trkpt>
      <trkpt lat="42.0791950" lon="-8.8930050">
        <ele>32.2</ele>
        <time>2021-05-19T10:45:06Z</time>
      </trkpt>
      <trkpt lat="42.0792070" lon="-8.8929910">
        <ele>32.1</ele>
        <time>2021-05-19T10:45:07Z</time>
      </trkpt>
      <trkpt lat="42.0792140" lon="-8.8929740">
        <ele>32.0</ele>
        <time>2021-05-19T10:45:08Z</time>
      </trkpt>
      <trkpt lat="42.0792280" lon="-8.8929640">
        <ele>32.0</ele>
        <time>2021-05-19T10:45:09Z</time>
      </trkpt>
      <trkpt lat="42.0792410" lon="-8.8929630">
        <ele>31.9</ele>
        <time>2021-05-19T10:45:10Z</time>
      </trkpt>
      <trkpt lat="42.0792490" lon="-8.8929450">
        <ele>31.9</ele>
        <time>2021-05-19T10:45:11Z</time>
      </trkpt>
      <trkpt lat="42.0792600" lon="-8.8929330">
        <ele>31.8</ele>
        <time>2021-05-19T10:45:12Z</time>
      </trkpt>
      <trkpt lat="42.0792700" lon="-8.8929150">
        <ele>31.8</ele>
        <time>2021-05-19T10:45:13Z</time>
      </trkpt>
      <trkpt lat="42.0792810" lon="-8.8929050">
        <ele>31.7</ele>
        <time>2021-05-19T10:45:14Z</time>
      </trkpt>
      <trkpt lat="42.0792940" lon="-8.8928970">
        <ele>31.7</ele>
        <time>2021-05-19T10:45:15Z</time>
      </trkpt>
      <trkpt lat="42.0793080" lon="-8.8928900">
        <ele>31.6</ele>
        <time>2021-05-19T10:45:16Z</time>
      </trkpt>
      <trkpt lat="42.0793210" lon="-8.8928810">
        <ele>31.6</ele>
        <time>2021-05-19T10:45:17Z</time>
      </trkpt>
      <trkpt lat="42.0793340" lon="-8.8928700">
        <ele>31.6</ele>
        <time>2021-05-19T10:45:18Z</time>
      </trkpt>
      <trkpt lat="42.0793450" lon="-8.8928600">
        <ele>31.5</ele>
        <time>2021-05-19T10:45:19Z</time>
      </trkpt>
      <trkpt lat="42.0793550" lon="-8.8928420">
        <ele>31.5</ele>
        <time>2021-05-19T10:45:20Z</time>
      </trkpt>
      <trkpt lat="42.0793690" lon="-8.8928360">
        <ele>31.5</ele>
        <time>2021-05-19T10:45:21Z</time>
      </trkpt>
      <trkpt lat="42.0793820" lon="-8.8928280">
        <ele>31.4</ele>
        <time>2021-05-19T10:45:22Z</time>
      </trkpt>
      <trkpt lat="42.0793990" lon="-8.8928320">
        <ele>31.4</ele>
        <time>2021-05-19T10:45:23Z</time>
      </trkpt>
      <trkpt lat="42.0794090" lon="-8.8928200">
        <ele>31.4</ele>
        <time>2021-05-19T10:45:24Z</time>
      </trkpt>
      <trkpt lat="42.0794200" lon="-8.8928080">
        <ele>31.3</ele>
        <time>2021-05-19T10:45:25Z</time>
      </trkpt>
      <trkpt lat="42.0794320" lon="-8.8927920">
        <ele>31.3</ele>
        <time>2021-05-19T10:45:26Z</time>
      </trkpt>
      <trkpt lat="42.0794420" lon="-8.8927740">
        <ele>31.3</ele>
        <time>2021-05-19T10:45:27Z</time>
      </trkpt>
      <trkpt lat="42.0794500" lon="-8.8927580">
        <ele>31.2</ele>
        <time>2021-05-19T10:45:28Z</time>
      </trkpt>
      <trkpt lat="42.0794640" lon="-8.8927500">
        <ele>31.2</ele>
        <time>2021-05-19T10:45:29Z</time>
      </trkpt>
      <trkpt lat="42.0794760" lon="-8.8927430">
        <ele>31.2</ele>
        <time>2021-05-19T10:45:30Z</time>
      </trkpt>
      <trkpt lat="42.0794960" lon="-8.8927300">
        <ele>31.1</ele>
        <time>2021-05-19T10:45:31Z</time>
      </trkpt>
      <trkpt lat="42.0795040" lon="-8.8927240">
        <ele>31.1</ele>
        <time>2021-05-19T10:45:32Z</time>
      </trkpt>
      <trkpt lat="42.0795110" lon="-8.8927170">
        <ele>31.1</ele>
        <time>2021-05-19T10:45:33Z</time>
      </trkpt>
      <trkpt lat="42.0795240" lon="-8.8927120">
        <ele>31.0</ele>
        <time>2021-05-19T10:45:34Z</time>
      </trkpt>
      <trkpt lat="42.0795370" lon="-8.8927020">
        <ele>31.0</ele>
        <time>2021-05-19T10:45:35Z</time>
      </trkpt>
      <trkpt lat="42.0795500" lon="-8.8926980">
        <ele>31.0</ele>
        <time>2021-05-19T10:45:37Z</time>
      </trkpt>
      <trkpt lat="42.0795610" lon="-8.8926850">
        <ele>30.9</ele>
        <time>2021-05-19T10:45:38Z</time>
      </trkpt>
      <trkpt lat="42.0795720" lon="-8.8926740">
        <ele>30.9</ele>
        <time>2021-05-19T10:45:39Z</time>
      </trkpt>
      <trkpt lat="42.0795820" lon="-8.8926600">
        <ele>30.9</ele>
        <time>2021-05-19T10:45:40Z</time>
      </trkpt>
      <trkpt lat="42.0795990" lon="-8.8926390">
        <ele>30.8</ele>
        <time>2021-05-19T10:45:41Z</time>
      </trkpt>
      <trkpt lat="42.0796050" lon="-8.8926310">
        <ele>30.8</ele>
        <time>2021-05-19T10:45:42Z</time>
      </trkpt>
      <trkpt lat="42.0796120" lon="-8.8926230">
        <ele>30.8</ele>
        <time>2021-05-19T10:45:43Z</time>
      </trkpt>
      <trkpt lat="42.0796300" lon="-8.8926080">
        <ele>30.7</ele>
        <time>2021-05-19T10:45:44Z</time>
      </trkpt>
      <trkpt lat="42.0796370" lon="-8.8926030">
        <ele>30.7</ele>
        <time>2021-05-19T10:45:45Z</time>
      </trkpt>
      <trkpt lat="42.0796450" lon="-8.8925980">
        <ele>30.7</ele>
        <time>2021-05-19T10:45:46Z</time>
      </trkpt>
      <trkpt lat="42.0796530" lon="-8.8925800">
        <ele>30.6</ele>
        <time>2021-05-19T10:45:47Z</time>
      </trkpt>
      <trkpt lat="42.0796650" lon="-8.8925680">
        <ele>30.6</ele>
        <time>2021-05-19T10:45:48Z</time>
      </trkpt>
      <trkpt lat="42.0796750" lon="-8.8925570">
        <ele>30.5</ele>
        <time>2021-05-19T10:45:49Z</time>
      </trkpt>
      <trkpt lat="42.0796850" lon="-8.8925430">
        <ele>30.5</ele>
        <time>2021-05-19T10:45:50Z</time>
      </trkpt>
      <trkpt lat="42.0797000" lon="-8.8925340">
        <ele>30.5</ele>
        <time>2021-05-19T10:45:51Z</time>
      </trkpt>
      <trkpt lat="42.0797110" lon="-8.8925260">
        <ele>30.4</ele>
        <time>2021-05-19T10:45:52Z</time>
      </trkpt>
      <trkpt lat="42.0797260" lon="-8.8925180">
        <ele>30.4</ele>
        <time>2021-05-19T10:45:53Z</time>
      </trkpt>
      <trkpt lat="42.0797390" lon="-8.8925110">
        <ele>30.3</ele>
        <time>2021-05-19T10:45:54Z</time>
      </trkpt>
      <trkpt lat="42.0797530" lon="-8.8925080">
        <ele>30.3</ele>
        <time>2021-05-19T10:45:55Z</time>
      </trkpt>
      <trkpt lat="42.0797660" lon="-8.8924970">
        <ele>30.3</ele>
        <time>2021-05-19T10:45:56Z</time>
      </trkpt>
      <trkpt lat="42.0797780" lon="-8.8924870">
        <ele>30.2</ele>
        <time>2021-05-19T10:45:57Z</time>
      </trkpt>
      <trkpt lat="42.0797880" lon="-8.8924740">
        <ele>30.2</ele>
        <time>2021-05-19T10:45:58Z</time>
      </trkpt>
      <trkpt lat="42.0797980" lon="-8.8924620">
        <ele>30.2</ele>
        <time>2021-05-19T10:45:59Z</time>
      </trkpt>
      <trkpt lat="42.0798060" lon="-8.8924460">
        <ele>30.1</ele>
        <time>2021-05-19T10:46:00Z</time>
      </trkpt>
      <trkpt lat="42.0798270" lon="-8.8924350">
        <ele>30.1</ele>
        <time>2021-05-19T10:46:01Z</time>
      </trkpt>
      <trkpt lat="42.0798340" lon="-8.8924290">
        <ele>30.1</ele>
        <time>2021-05-19T10:46:02Z</time>
      </trkpt>
      <trkpt lat="42.0798420" lon="-8.8924240">
        <ele>30.0</ele>
        <time>2021-05-19T10:46:03Z</time>
      </trkpt>
      <trkpt lat="42.0798560" lon="-8.8923990">
        <ele>30.0</ele>
        <time>2021-05-19T10:46:04Z</time>
      </trkpt>
      <trkpt lat="42.0798610" lon="-8.8923900">
        <ele>30.0</ele>
        <time>2021-05-19T10:46:05Z</time>
      </trkpt>
      <trkpt lat="42.0798660" lon="-8.8923810">
        <ele>29.9</ele>
        <time>2021-05-19T10:46:06Z</time>
      </trkpt>
      <trkpt lat="42.0798790" lon="-8.8923610">
        <ele>29.9</ele>
        <time>2021-05-19T10:46:07Z</time>
      </trkpt>
      <trkpt lat="42.0798840" lon="-8.8923520">
        <ele>29.9</ele>
        <time>2021-05-19T10:46:08Z</time>
      </trkpt>
      <trkpt lat="42.0798890" lon="-8.8923420">
        <ele>29.8</ele>
        <time>2021-05-19T10:46:09Z</time>
      </trkpt>
      <trkpt lat="42.0799060" lon="-8.8923260">
        <ele>29.8</ele>
        <time>2021-05-19T10:46:10Z</time>
      </trkpt>
      <trkpt lat="42.0799110" lon="-8.8923170">
        <ele>29.8</ele>
        <time>2021-05-19T10:46:11Z</time>
      </trkpt>
      <trkpt lat="42.0799170" lon="-8.8923080">
        <ele>29.8</ele>
        <time>2021-05-19T10:46:12Z</time>
      </trkpt>
      <trkpt lat="42.0799250" lon="-8.8922920">
        <ele>29.7</ele>
        <time>2021-05-19T10:46:13Z</time>
      </trkpt>
      <trkpt lat="42.0799330" lon="-8.8922770">
        <ele>29.7</ele>
        <time>2021-05-19T10:46:14Z</time>
      </trkpt>
      <trkpt lat="42.0799450" lon="-8.8922710">
        <ele>29.7</ele>
        <time>2021-05-19T10:46:15Z</time>
      </trkpt>
      <trkpt lat="42.0799500" lon="-8.8922550">
        <ele>29.6</ele>
        <time>2021-05-19T10:46:16Z</time>
      </trkpt>
      <trkpt lat="42.0799560" lon="-8.8922430">
        <ele>29.6</ele>
        <time>2021-05-19T10:46:17Z</time>
      </trkpt>
      <trkpt lat="42.0799690" lon="-8.8922130">
        <ele>29.6</ele>
        <time>2021-05-19T10:46:18Z</time>
      </trkpt>
      <trkpt lat="42.0799770" lon="-8.8922000">
        <ele>29.5</ele>
        <time>2021-05-19T10:46:19Z</time>
      </trkpt>
      <trkpt lat="42.0799860" lon="-8.8921870">
        <ele>29.5</ele>
        <time>2021-05-19T10:46:20Z</time>
      </trkpt>
      <trkpt lat="42.0799920" lon="-8.8921720">
        <ele>29.5</ele>
        <time>2021-05-19T10:46:21Z</time>
      </trkpt>
      <trkpt lat="42.0800000" lon="-8.8921600">
        <ele>29.4</ele>
        <time>2021-05-19T10:46:22Z</time>
      </trkpt>
      <trkpt lat="42.0800100" lon="-8.8921370">
        <ele>29.4</ele>
        <time>2021-05-19T10:46:23Z</time>
      </trkpt>
      <trkpt lat="42.0800150" lon="-8.8921280">
        <ele>29.4</ele>
        <time>2021-05-19T10:46:24Z</time>
      </trkpt>
      <trkpt lat="42.0800190" lon="-8.8921180">
        <ele>29.4</ele>
        <time>2021-05-19T10:46:25Z</time>
      </trkpt>
      <trkpt lat="42.0800290" lon="-8.8921060">
        <ele>29.3</ele>
        <time>2021-05-19T10:46:26Z</time>
      </trkpt>
      <trkpt lat="42.0800330" lon="-8.8920840">
        <ele>29.3</ele>
        <time>2021-05-19T10:46:27Z</time>
      </trkpt>
      <trkpt lat="42.0800510" lon="-8.8920680">
        <ele>29.3</ele>
        <time>2021-05-19T10:46:28Z</time>
      </trkpt>
      <trkpt lat="42.0800580" lon="-8.8920580">
        <ele>29.2</ele>
        <time>2021-05-19T10:46:29Z</time>
      </trkpt>
      <trkpt lat="42.0800640" lon="-8.8920490">
        <ele>29.2</ele>
        <time>2021-05-19T10:46:30Z</time>
      </trkpt>
      <trkpt lat="42.0800760" lon="-8.8920380">
        <ele>29.2</ele>
        <time>2021-05-19T10:46:31Z</time>
      </trkpt>
      <trkpt lat="42.0800880" lon="-8.8920320">
        <ele>29.2</ele>
        <time>2021-05-19T10:46:32Z</time>
      </trkpt>
      <trkpt lat="42.0801010" lon="-8.8920260">
        <ele>29.1</ele>
        <time>2021-05-19T10:46:33Z</time>
      </trkpt>
      <trkpt lat="42.0801070" lon="-8.8920040">
        <ele>29.1</ele>
        <time>2021-05-19T10:46:34Z</time>
      </trkpt>
      <trkpt lat="42.0801150" lon="-8.8919860">
        <ele>29.1</ele>
        <time>2021-05-19T10:46:35Z</time>
      </trkpt>
      <trkpt lat="42.0801240" lon="-8.8919740">
        <ele>29.0</ele>
        <time>2021-05-19T10:46:36Z</time>
      </trkpt>
      <trkpt lat="42.0801290" lon="-8.8919530">
        <ele>29.0</ele>
        <time>2021-05-19T10:46:37Z</time>
      </trkpt>
      <trkpt lat="42.0801360" lon="-8.8919360">
        <ele>29.0</ele>
        <time>2021-05-19T10:46:38Z</time>
      </trkpt>
      <trkpt lat="42.0801470" lon="-8.8919260">
        <ele>28.9</ele>
        <time>2021-05-19T10:46:39Z</time>
      </trkpt>
      <trkpt lat="42.0801620" lon="-8.8919230">
        <ele>28.9</ele>
        <time>2021-05-19T10:46:40Z</time>
      </trkpt>
      <trkpt lat="42.0801680" lon="-8.8919080">
        <ele>28.8</ele>
        <time>2021-05-19T10:46:41Z</time>
      </trkpt>
      <trkpt lat="42.0801740" lon="-8.8918930">
        <ele>28.8</ele>
        <time>2021-05-19T10:46:42Z</time>
      </trkpt>
      <trkpt lat="42.0801860" lon="-8.8918890">
        <ele>28.8</ele>
        <time>2021-05-19T10:46:43Z</time>
      </trkpt>
      <trkpt lat="42.0801910" lon="-8.8918680">
        <ele>28.7</ele>
        <time>2021-05-19T10:46:44Z</time>
      </trkpt>
      <trkpt lat="42.0801990" lon="-8.8918540">
        <ele>28.7</ele>
        <time>2021-05-19T10:46:45Z</time>
      </trkpt>
      <trkpt lat="42.0802110" lon="-8.8918420">
        <ele>28.6</ele>
        <time>2021-05-19T10:46:46Z</time>
      </trkpt>
      <trkpt lat="42.0802220" lon="-8.8918300">
        <ele>28.6</ele>
        <time>2021-05-19T10:46:47Z</time>
      </trkpt>
      <trkpt lat="42.0802370" lon="-8.8918080">
        <ele>28.5</ele>
        <time>2021-05-19T10:46:48Z</time>
      </trkpt>
      <trkpt lat="42.0802410" lon="-8.8917990">
        <ele>28.5</ele>
        <time>2021-05-19T10:46:49Z</time>
      </trkpt>
      <trkpt lat="42.0802460" lon="-8.8917890">
        <ele>28.5</ele>
        <time>2021-05-19T10:46:50Z</time>
      </trkpt>
      <trkpt lat="42.0802570" lon="-8.8917660">
        <ele>28.4</ele>
        <time>2021-05-19T10:46:51Z</time>
      </trkpt>
      <trkpt lat="42.0802600" lon="-8.8917540">
        <ele>28.4</ele>
        <time>2021-05-19T10:46:52Z</time>
      </trkpt>
      <trkpt lat="42.0802620" lon="-8.8917410">
        <ele>28.3</ele>
        <time>2021-05-19T10:46:53Z</time>
      </trkpt>
      <trkpt lat="42.0802750" lon="-8.8917170">
        <ele>28.3</ele>
        <time>2021-05-19T10:46:54Z</time>
      </trkpt>
      <trkpt lat="42.0802820" lon="-8.8917110">
        <ele>28.2</ele>
        <time>2021-05-19T10:46:55Z</time>
      </trkpt>
      <trkpt lat="42.0802890" lon="-8.8917040">
        <ele>28.2</ele>
        <time>2021-05-19T10:46:56Z</time>
      </trkpt>
      <trkpt lat="42.0802960" lon="-8.8916870">
        <ele>28.1</ele>
        <time>2021-05-19T10:46:57Z</time>
      </trkpt>
      <trkpt lat="42.0803050" lon="-8.8916740">
        <ele>28.1</ele>
        <time>2021-05-19T10:46:58Z</time>
      </trkpt>
      <trkpt lat="42.0803240" lon="-8.8916600">
        <ele>28.0</ele>
        <time>2021-05-19T10:46:59Z</time>
      </trkpt>
      <trkpt lat="42.0803310" lon="-8.8916550">
        <ele>28.0</ele>
        <time>2021-05-19T10:47:00Z</time>
      </trkpt>
      <trkpt lat="42.0803390" lon="-8.8916490">
        <ele>28.0</ele>
        <time>2021-05-19T10:47:01Z</time>
      </trkpt>
      <trkpt lat="42.0803490" lon="-8.8916370">
        <ele>27.9</ele>
        <time>2021-05-19T10:47:02Z</time>
      </trkpt>
      <trkpt lat="42.0803580" lon="-8.8916220">
        <ele>27.9</ele>
        <time>2021-05-19T10:47:03Z</time>
      </trkpt>
      <trkpt lat="42.0803730" lon="-8.8916020">
        <ele>27.8</ele>
        <time>2021-05-19T10:47:04Z</time>
      </trkpt>
      <trkpt lat="42.0803780" lon="-8.8915940">
        <ele>27.8</ele>
        <time>2021-05-19T10:47:05Z</time>
      </trkpt>
      <trkpt lat="42.0803840" lon="-8.8915870">
        <ele>27.8</ele>
        <time>2021-05-19T10:47:06Z</time>
      </trkpt>
      <trkpt lat="42.0803940" lon="-8.8915670">
        <ele>27.8</ele>
        <time>2021-05-19T10:47:07Z</time>
      </trkpt>
      <trkpt lat="42.0803970" lon="-8.8915540">
        <ele>27.7</ele>
        <time>2021-05-19T10:47:08Z</time>
      </trkpt>
      <trkpt lat="42.0803990" lon="-8.8915420">
        <ele>27.7</ele>
        <time>2021-05-19T10:47:09Z</time>
      </trkpt>
      <trkpt lat="42.0804100" lon="-8.8915200">
        <ele>27.7</ele>
        <time>2021-05-19T10:47:10Z</time>
      </trkpt>
      <trkpt lat="42.0804150" lon="-8.8915110">
        <ele>27.7</ele>
        <time>2021-05-19T10:47:11Z</time>
      </trkpt>
      <trkpt lat="42.0804210" lon="-8.8915020">
        <ele>27.6</ele>
        <time>2021-05-19T10:47:12Z</time>
      </trkpt>
      <trkpt lat="42.0804300" lon="-8.8914920">
        <ele>27.6</ele>
        <time>2021-05-19T10:47:13Z</time>
      </trkpt>
      <trkpt lat="42.0804340" lon="-8.8914730">
        <ele>27.6</ele>
        <time>2021-05-19T10:47:14Z</time>
      </trkpt>
      <trkpt lat="42.0804390" lon="-8.8914610">
        <ele>27.5</ele>
        <time>2021-05-19T10:47:15Z</time>
      </trkpt>
      <trkpt lat="42.0804410" lon="-8.8914520">
        <ele>27.5</ele>
        <time>2021-05-19T10:47:16Z</time>
      </trkpt>
      <trkpt lat="42.0804450" lon="-8.8914460">
        <ele>27.5</ele>
        <time>2021-05-19T10:47:17Z</time>
      </trkpt>
      <trkpt lat="42.0804510" lon="-8.8914270">
        <ele>27.5</ele>
        <time>2021-05-19T10:47:18Z</time>
      </trkpt>
      <trkpt lat="42.0804520" lon="-8.8914190">
        <ele>27.5</ele>
        <time>2021-05-19T10:47:19Z</time>
      </trkpt>
      <trkpt lat="42.0804530" lon="-8.8914120">
        <ele>27.5</ele>
        <time>2021-05-19T10:47:20Z</time>
      </trkpt>
      <trkpt lat="42.0804540" lon="-8.8913980">
        <ele>27.5</ele>
        <time>2021-05-19T10:47:21Z</time>
      </trkpt>
      <trkpt lat="42.0804570" lon="-8.8913940">
        <ele>27.4</ele>
        <time>2021-05-19T10:47:22Z</time>
      </trkpt>
      <trkpt lat="42.0804550" lon="-8.8913830">
        <ele>27.4</ele>
        <time>2021-05-19T10:47:23Z</time>
      </trkpt>
      <trkpt lat="42.0804600" lon="-8.8913760">
        <ele>27.4</ele>
        <time>2021-05-19T10:47:24Z</time>
      </trkpt>
      <trkpt lat="42.0804600" lon="-8.8913710">
        <ele>27.4</ele>
        <time>2021-05-19T10:47:25Z</time>
      </trkpt>
      <trkpt lat="42.0804660" lon="-8.8913580">
        <ele>27.4</ele>
        <time>2021-05-19T10:47:26Z</time>
      </trkpt>
      <trkpt lat="42.0804670" lon="-8.8913410">
        <ele>27.4</ele>
        <time>2021-05-19T10:47:27Z</time>
      </trkpt>
      <trkpt lat="42.0804640" lon="-8.8913270">
        <ele>27.3</ele>
        <time>2021-05-19T10:47:28Z</time>
      </trkpt>
      <trkpt lat="42.0804640" lon="-8.8913250">
        <ele>27.3</ele>
        <time>2021-05-19T10:47:29Z</time>
      </trkpt>
      <trkpt lat="42.0804690" lon="-8.8913210">
        <ele>27.3</ele>
        <time>2021-05-19T10:47:30Z</time>
      </trkpt>
      <trkpt lat="42.0804720" lon="-8.8913110">
        <ele>27.3</ele>
        <time>2021-05-19T10:47:31Z</time>
      </trkpt>
      <trkpt lat="42.0804770" lon="-8.8912990">
        <ele>27.3</ele>
        <time>2021-05-19T10:47:32Z</time>
      </trkpt>
      <trkpt lat="42.0804850" lon="-8.8912870">
        <ele>27.3</ele>
        <time>2021-05-19T10:47:33Z</time>
      </trkpt>
      <trkpt lat="42.0804890" lon="-8.8912800">
        <ele>27.3</ele>
        <time>2021-05-19T10:47:34Z</time>
      </trkpt>
      <trkpt lat="42.0804980" lon="-8.8912680">
        <ele>27.2</ele>
        <time>2021-05-19T10:47:35Z</time>
      </trkpt>
      <trkpt lat="42.0805040" lon="-8.8912540">
        <ele>27.2</ele>
        <time>2021-05-19T10:47:36Z</time>
      </trkpt>
      <trkpt lat="42.0805110" lon="-8.8912490">
        <ele>27.2</ele>
        <time>2021-05-19T10:47:37Z</time>
      </trkpt>
      <trkpt lat="42.0805220" lon="-8.8912360">
        <ele>27.2</ele>
        <time>2021-05-19T10:47:38Z</time>
      </trkpt>
      <trkpt lat="42.0805270" lon="-8.8912250">
        <ele>27.2</ele>
        <time>2021-05-19T10:47:39Z</time>
      </trkpt>
      <trkpt lat="42.0805280" lon="-8.8912140">
        <ele>27.1</ele>
        <time>2021-05-19T10:47:40Z</time>
      </trkpt>
      <trkpt lat="42.0805320" lon="-8.8912000">
        <ele>27.1</ele>
        <time>2021-05-19T10:47:41Z</time>
      </trkpt>
      <trkpt lat="42.0805370" lon="-8.8911890">
        <ele>27.1</ele>
        <time>2021-05-19T10:47:42Z</time>
      </trkpt>
      <trkpt lat="42.0805410" lon="-8.8911790">
        <ele>27.1</ele>
        <time>2021-05-19T10:47:43Z</time>
      </trkpt>
      <trkpt lat="42.0805490" lon="-8.8911710">
        <ele>27.1</ele>
        <time>2021-05-19T10:47:44Z</time>
      </trkpt>
      <trkpt lat="42.0805630" lon="-8.8911480">
        <ele>27.0</ele>
        <time>2021-05-19T10:47:45Z</time>
      </trkpt>
      <trkpt lat="42.0805720" lon="-8.8911370">
        <ele>27.0</ele>
        <time>2021-05-19T10:47:46Z</time>
      </trkpt>
      <trkpt lat="42.0805810" lon="-8.8911270">
        <ele>27.0</ele>
        <time>2021-05-19T10:47:47Z</time>
      </trkpt>
      <trkpt lat="42.0805940" lon="-8.8911160">
        <ele>27.0</ele>
        <time>2021-05-19T10:47:48Z</time>
      </trkpt>
      <trkpt lat="42.0805980" lon="-8.8911120">
        <ele>27.0</ele>
        <time>2021-05-19T10:47:49Z</time>
      </trkpt>
      <trkpt lat="42.0806090" lon="-8.8910970">
        <ele>26.9</ele>
        <time>2021-05-19T10:47:50Z</time>
      </trkpt>
      <trkpt lat="42.0806210" lon="-8.8910830">
        <ele>26.9</ele>
        <time>2021-05-19T10:47:51Z</time>
      </trkpt>
      <trkpt lat="42.0806260" lon="-8.8910760">
        <ele>26.9</ele>
        <time>2021-05-19T10:47:52Z</time>
      </trkpt>
      <trkpt lat="42.0806310" lon="-8.8910680">
        <ele>26.9</ele>
        <time>2021-05-19T10:47:53Z</time>
      </trkpt>
      <trkpt lat="42.0806360" lon="-8.8910600">
        <ele>26.9</ele>
        <time>2021-05-19T10:47:54Z</time>
      </trkpt>
      <trkpt lat="42.0806410" lon="-8.8910500">
        <ele>26.9</ele>
        <time>2021-05-19T10:47:55Z</time>
      </trkpt>
      <trkpt lat="42.0806450" lon="-8.8910430">
        <ele>26.9</ele>
        <time>2021-05-19T10:47:56Z</time>
      </trkpt>
      <trkpt lat="42.0806580" lon="-8.8910310">
        <ele>26.9</ele>
        <time>2021-05-19T10:47:57Z</time>
      </trkpt>
      <trkpt lat="42.0806690" lon="-8.8910210">
        <ele>26.8</ele>
        <time>2021-05-19T10:47:58Z</time>
      </trkpt>
      <trkpt lat="42.0806840" lon="-8.8910090">
        <ele>26.8</ele>
        <time>2021-05-19T10:47:59Z</time>
      </trkpt>
      <trkpt lat="42.0806990" lon="-8.8910030">
        <ele>26.8</ele>
        <time>2021-05-19T10:48:00Z</time>
      </trkpt>
      <trkpt lat="42.0807120" lon="-8.8909940">
        <ele>26.8</ele>
        <time>2021-05-19T10:48:01Z</time>
      </trkpt>
      <trkpt lat="42.0807270" lon="-8.8909830">
        <ele>26.8</ele>
        <time>2021-05-19T10:48:02Z</time>
      </trkpt>
      <trkpt lat="42.0807420" lon="-8.8909700">
        <ele>26.8</ele>
        <time>2021-05-19T10:48:03Z</time>
      </trkpt>
      <trkpt lat="42.0807570" lon="-8.8909620">
        <ele>26.8</ele>
        <time>2021-05-19T10:48:04Z</time>
      </trkpt>
      <trkpt lat="42.0807710" lon="-8.8909490">
        <ele>26.8</ele>
        <time>2021-05-19T10:48:05Z</time>
      </trkpt>
      <trkpt lat="42.0807850" lon="-8.8909380">
        <ele>26.7</ele>
        <time>2021-05-19T10:48:07Z</time>
      </trkpt>
      <trkpt lat="42.0807970" lon="-8.8909300">
        <ele>26.7</ele>
        <time>2021-05-19T10:48:08Z</time>
      </trkpt>
      <trkpt lat="42.0808130" lon="-8.8909180">
        <ele>26.7</ele>
        <time>2021-05-19T10:48:09Z</time>
      </trkpt>
      <trkpt lat="42.0808240" lon="-8.8909040">
        <ele>26.7</ele>
        <time>2021-05-19T10:48:10Z</time>
      </trkpt>
      <trkpt lat="42.0808350" lon="-8.8908950">
        <ele>26.7</ele>
        <time>2021-05-19T10:48:11Z</time>
      </trkpt>
      <trkpt lat="42.0808480" lon="-8.8908890">
        <ele>26.7</ele>
        <time>2021-05-19T10:48:12Z</time>
      </trkpt>
      <trkpt lat="42.0808660" lon="-8.8908710">
        <ele>26.7</ele>
        <time>2021-05-19T10:48:13Z</time>
      </trkpt>
      <trkpt lat="42.0808730" lon="-8.8908630">
        <ele>26.7</ele>
        <time>2021-05-19T10:48:14Z</time>
      </trkpt>
      <trkpt lat="42.0808790" lon="-8.8908540">
        <ele>26.7</ele>
        <time>2021-05-19T10:48:15Z</time>
      </trkpt>
      <trkpt lat="42.0808940" lon="-8.8908360">
        <ele>26.7</ele>
        <time>2021-05-19T10:48:16Z</time>
      </trkpt>
      <trkpt lat="42.0809010" lon="-8.8908300">
        <ele>26.7</ele>
        <time>2021-05-19T10:48:17Z</time>
      </trkpt>
      <trkpt lat="42.0809090" lon="-8.8908240">
        <ele>26.7</ele>
        <time>2021-05-19T10:48:18Z</time>
      </trkpt>
      <trkpt lat="42.0809250" lon="-8.8908210">
        <ele>26.7</ele>
        <time>2021-05-19T10:48:19Z</time>
      </trkpt>
      <trkpt lat="42.0809390" lon="-8.8908120">
        <ele>26.7</ele>
        <time>2021-05-19T10:48:20Z</time>
      </trkpt>
      <trkpt lat="42.0809510" lon="-8.8908030">
        <ele>26.7</ele>
        <time>2021-05-19T10:48:21Z</time>
      </trkpt>
      <trkpt lat="42.0809670" lon="-8.8908000">
        <ele>26.8</ele>
        <time>2021-05-19T10:48:22Z</time>
      </trkpt>
      <trkpt lat="42.0809800" lon="-8.8907920">
        <ele>26.8</ele>
        <time>2021-05-19T10:48:23Z</time>
      </trkpt>
      <trkpt lat="42.0809970" lon="-8.8907870">
        <ele>26.8</ele>
        <time>2021-05-19T10:48:24Z</time>
      </trkpt>
      <trkpt lat="42.0810090" lon="-8.8907750">
        <ele>26.8</ele>
        <time>2021-05-19T10:48:25Z</time>
      </trkpt>
      <trkpt lat="42.0810250" lon="-8.8907660">
        <ele>26.8</ele>
        <time>2021-05-19T10:48:26Z</time>
      </trkpt>
      <trkpt lat="42.0810290" lon="-8.8907570">
        <ele>26.8</ele>
        <time>2021-05-19T10:48:27Z</time>
      </trkpt>
      <trkpt lat="42.0810360" lon="-8.8907460">
        <ele>26.8</ele>
        <time>2021-05-19T10:48:28Z</time>
      </trkpt>
      <trkpt lat="42.0810440" lon="-8.8907410">
        <ele>26.8</ele>
        <time>2021-05-19T10:48:29Z</time>
      </trkpt>
      <trkpt lat="42.0810550" lon="-8.8907320">
        <ele>26.8</ele>
        <time>2021-05-19T10:48:30Z</time>
      </trkpt>
      <trkpt lat="42.0810630" lon="-8.8907200">
        <ele>26.9</ele>
        <time>2021-05-19T10:48:31Z</time>
      </trkpt>
      <trkpt lat="42.0810700" lon="-8.8907100">
        <ele>26.9</ele>
        <time>2021-05-19T10:48:32Z</time>
      </trkpt>
      <trkpt lat="42.0810740" lon="-8.8907030">
        <ele>26.9</ele>
        <time>2021-05-19T10:48:33Z</time>
      </trkpt>
      <trkpt lat="42.0810880" lon="-8.8906920">
        <ele>26.9</ele>
        <time>2021-05-19T10:48:34Z</time>
      </trkpt>
      <trkpt lat="42.0810950" lon="-8.8906890">
        <ele>26.9</ele>
        <time>2021-05-19T10:48:35Z</time>
      </trkpt>
      <trkpt lat="42.0811050" lon="-8.8906880">
        <ele>26.9</ele>
        <time>2021-05-19T10:48:36Z</time>
      </trkpt>
      <trkpt lat="42.0811100" lon="-8.8906860">
        <ele>26.9</ele>
        <time>2021-05-19T10:48:37Z</time>
      </trkpt>
      <trkpt lat="42.0811180" lon="-8.8906740">
        <ele>27.0</ele>
        <time>2021-05-19T10:48:38Z</time>
      </trkpt>
      <trkpt lat="42.0811260" lon="-8.8906670">
        <ele>27.0</ele>
        <time>2021-05-19T10:48:39Z</time>
      </trkpt>
      <trkpt lat="42.0811310" lon="-8.8906620">
        <ele>27.0</ele>
        <time>2021-05-19T10:48:40Z</time>
      </trkpt>
      <trkpt lat="42.0811320" lon="-8.8906500">
        <ele>27.0</ele>
        <time>2021-05-19T10:48:41Z</time>
      </trkpt>
      <trkpt lat="42.0811480" lon="-8.8906360">
        <ele>27.0</ele>
        <time>2021-05-19T10:48:42Z</time>
      </trkpt>
      <trkpt lat="42.0811540" lon="-8.8906320">
        <ele>27.0</ele>
        <time>2021-05-19T10:48:43Z</time>
      </trkpt>
      <trkpt lat="42.0811610" lon="-8.8906160">
        <ele>27.1</ele>
        <time>2021-05-19T10:48:44Z</time>
      </trkpt>
      <trkpt lat="42.0811690" lon="-8.8906100">
        <ele>27.1</ele>
        <time>2021-05-19T10:48:45Z</time>
      </trkpt>
      <trkpt lat="42.0811710" lon="-8.8906010">
        <ele>27.1</ele>
        <time>2021-05-19T10:48:46Z</time>
      </trkpt>
      <trkpt lat="42.0811840" lon="-8.8905920">
        <ele>27.1</ele>
        <time>2021-05-19T10:48:47Z</time>
      </trkpt>
      <trkpt lat="42.0811950" lon="-8.8905820">
        <ele>27.1</ele>
        <time>2021-05-19T10:48:48Z</time>
      </trkpt>
      <trkpt lat="42.0812050" lon="-8.8905680">
        <ele>27.2</ele>
        <time>2021-05-19T10:48:49Z</time>
      </trkpt>
      <trkpt lat="42.0812120" lon="-8.8905550">
        <ele>27.2</ele>
        <time>2021-05-19T10:48:50Z</time>
      </trkpt>
      <trkpt lat="42.0812180" lon="-8.8905460">
        <ele>27.2</ele>
        <time>2021-05-19T10:48:51Z</time>
      </trkpt>
      <trkpt lat="42.0812310" lon="-8.8905330">
        <ele>27.3</ele>
        <time>2021-05-19T10:48:52Z</time>
      </trkpt>
      <trkpt lat="42.0812390" lon="-8.8905280">
        <ele>27.3</ele>
        <time>2021-05-19T10:48:53Z</time>
      </trkpt>
      <trkpt lat="42.0812460" lon="-8.8905170">
        <ele>27.3</ele>
        <time>2021-05-19T10:48:54Z</time>
      </trkpt>
      <trkpt lat="42.0812590" lon="-8.8905060">
        <ele>27.3</ele>
        <time>2021-05-19T10:48:55Z</time>
      </trkpt>
      <trkpt lat="42.0812690" lon="-8.8904970">
        <ele>27.4</ele>
        <time>2021-05-19T10:48:56Z</time>
      </trkpt>
      <trkpt lat="42.0812780" lon="-8.8904890">
        <ele>27.4</ele>
        <time>2021-05-19T10:48:57Z</time>
      </trkpt>
      <trkpt lat="42.0812800" lon="-8.8904670">
        <ele>27.4</ele>
        <time>2021-05-19T10:48:58Z</time>
      </trkpt>
      <trkpt lat="42.0812840" lon="-8.8904590">
        <ele>27.5</ele>
        <time>2021-05-19T10:48:59Z</time>
      </trkpt>
      <trkpt lat="42.0812880" lon="-8.8904510">
        <ele>27.5</ele>
        <time>2021-05-19T10:49:00Z</time>
      </trkpt>
      <trkpt lat="42.0812920" lon="-8.8904430">
        <ele>27.5</ele>
        <time>2021-05-19T10:49:01Z</time>
      </trkpt>
      <trkpt lat="42.0812930" lon="-8.8904420">
        <ele>27.5</ele>
        <time>2021-05-19T10:49:02Z</time>
      </trkpt>
      <trkpt lat="42.0812990" lon="-8.8904330">
        <ele>27.5</ele>
        <time>2021-05-19T10:49:03Z</time>
      </trkpt>
      <trkpt lat="42.0813060" lon="-8.8904210">
        <ele>27.6</ele>
        <time>2021-05-19T10:49:04Z</time>
      </trkpt>
      <trkpt lat="42.0813090" lon="-8.8904130">
        <ele>27.6</ele>
        <time>2021-05-19T10:49:05Z</time>
      </trkpt>
      <trkpt lat="42.0813350" lon="-8.8903950">
        <ele>27.7</ele>
        <time>2021-05-19T10:49:06Z</time>
      </trkpt>
      <trkpt lat="42.0813410" lon="-8.8903890">
        <ele>27.7</ele>
        <time>2021-05-19T10:49:07Z</time>
      </trkpt>
      <trkpt lat="42.0813560" lon="-8.8903690">
        <ele>27.7</ele>
        <time>2021-05-19T10:49:08Z</time>
      </trkpt>
      <trkpt lat="42.0813650" lon="-8.8903630">
        <ele>27.8</ele>
        <time>2021-05-19T10:49:09Z</time>
      </trkpt>
      <trkpt lat="42.0813730" lon="-8.8903560">
        <ele>27.8</ele>
        <time>2021-05-19T10:49:10Z</time>
      </trkpt>
      <trkpt lat="42.0813810" lon="-8.8903500">
        <ele>27.8</ele>
        <time>2021-05-19T10:49:11Z</time>
      </trkpt>
      <trkpt lat="42.0813930" lon="-8.8903330">
        <ele>27.9</ele>
        <time>2021-05-19T10:49:12Z</time>
      </trkpt>
      <trkpt lat="42.0814020" lon="-8.8903250">
        <ele>27.9</ele>
        <time>2021-05-19T10:49:13Z</time>
      </trkpt>
      <trkpt lat="42.0814100" lon="-8.8903180">
        <ele>27.9</ele>
        <time>2021-05-19T10:49:14Z</time>
      </trkpt>
      <trkpt lat="42.0814330" lon="-8.8902950">
        <ele>28.0</ele>
        <time>2021-05-19T10:49:15Z</time>
      </trkpt>
      <trkpt lat="42.0814410" lon="-8.8902840">
        <ele>28.1</ele>
        <time>2021-05-19T10:49:16Z</time>
      </trkpt>
      <trkpt lat="42.0814560" lon="-8.8902690">
        <ele>28.1</ele>
        <time>2021-05-19T10:49:17Z</time>
      </trkpt>
      <trkpt lat="42.0814660" lon="-8.8902530">
        <ele>28.2</ele>
        <time>2021-05-19T10:49:18Z</time>
      </trkpt>
      <trkpt lat="42.0814730" lon="-8.8902390">
        <ele>28.3</ele>
        <time>2021-05-19T10:49:19Z</time>
      </trkpt>
      <trkpt lat="42.0814880" lon="-8.8902200">
        <ele>28.3</ele>
        <time>2021-05-19T10:49:20Z</time>
      </trkpt>
      <trkpt lat="42.0815060" lon="-8.8902040">
        <ele>28.4</ele>
        <time>2021-05-19T10:49:21Z</time>
      </trkpt>
      <trkpt lat="42.0815180" lon="-8.8902010">
        <ele>28.5</ele>
        <time>2021-05-19T10:49:22Z</time>
      </trkpt>
      <trkpt lat="42.0815320" lon="-8.8902010">
        <ele>28.5</ele>
        <time>2021-05-19T10:49:23Z</time>
      </trkpt>
      <trkpt lat="42.0815480" lon="-8.8901980">
        <ele>28.6</ele>
        <time>2021-05-19T10:49:24Z</time>
      </trkpt>
      <trkpt lat="42.0815630" lon="-8.8901930">
        <ele>28.6</ele>
        <time>2021-05-19T10:49:25Z</time>
      </trkpt>
      <trkpt lat="42.0815770" lon="-8.8901880">
        <ele>28.7</ele>
        <time>2021-05-19T10:49:26Z</time>
      </trkpt>
      <trkpt lat="42.0815890" lon="-8.8901820">
        <ele>28.7</ele>
        <time>2021-05-19T10:49:27Z</time>
      </trkpt>
      <trkpt lat="42.0816050" lon="-8.8901780">
        <ele>28.8</ele>
        <time>2021-05-19T10:49:28Z</time>
      </trkpt>
      <trkpt lat="42.0816200" lon="-8.8901730">
        <ele>28.9</ele>
        <time>2021-05-19T10:49:29Z</time>
      </trkpt>
      <trkpt lat="42.0816390" lon="-8.8901620">
        <ele>29.0</ele>
        <time>2021-05-19T10:49:30Z</time>
      </trkpt>
      <trkpt lat="42.0816720" lon="-8.8901590">
        <ele>29.1</ele>
        <time>2021-05-19T10:49:31Z</time>
      </trkpt>
      <trkpt lat="42.0816810" lon="-8.8901540">
        <ele>29.1</ele>
        <time>2021-05-19T10:49:32Z</time>
      </trkpt>
      <trkpt lat="42.0816990" lon="-8.8901530">
        <ele>29.2</ele>
        <time>2021-05-19T10:49:33Z</time>
      </trkpt>
      <trkpt lat="42.0817130" lon="-8.8901470">
        <ele>29.2</ele>
        <time>2021-05-19T10:49:34Z</time>
      </trkpt>
      <trkpt lat="42.0817260" lon="-8.8901470">
        <ele>29.3</ele>
        <time>2021-05-19T10:49:35Z</time>
      </trkpt>
      <trkpt lat="42.0817440" lon="-8.8901470">
        <ele>29.4</ele>
        <time>2021-05-19T10:49:36Z</time>
      </trkpt>
      <trkpt lat="42.0817600" lon="-8.8901430">
        <ele>29.4</ele>
        <time>2021-05-19T10:49:37Z</time>
      </trkpt>
      <trkpt lat="42.0817740" lon="-8.8901410">
        <ele>29.5</ele>
        <time>2021-05-19T10:49:38Z</time>
      </trkpt>
      <trkpt lat="42.0817890" lon="-8.8901340">
        <ele>29.5</ele>
        <time>2021-05-19T10:49:39Z</time>
      </trkpt>
      <trkpt lat="42.0818060" lon="-8.8901320">
        <ele>29.6</ele>
        <time>2021-05-19T10:49:40Z</time>
      </trkpt>
      <trkpt lat="42.0818220" lon="-8.8901270">
        <ele>29.7</ele>
        <time>2021-05-19T10:49:41Z</time>
      </trkpt>
      <trkpt lat="42.0818350" lon="-8.8901220">
        <ele>29.7</ele>
        <time>2021-05-19T10:49:42Z</time>
      </trkpt>
      <trkpt lat="42.0818500" lon="-8.8901200">
        <ele>29.8</ele>
        <time>2021-05-19T10:49:43Z</time>
      </trkpt>
      <trkpt lat="42.0818640" lon="-8.8901110">
        <ele>29.8</ele>
        <time>2021-05-19T10:49:44Z</time>
      </trkpt>
      <trkpt lat="42.0818800" lon="-8.8901150">
        <ele>29.9</ele>
        <time>2021-05-19T10:49:45Z</time>
      </trkpt>
      <trkpt lat="42.0818960" lon="-8.8901150">
        <ele>30.0</ele>
        <time>2021-05-19T10:49:46Z</time>
      </trkpt>
      <trkpt lat="42.0819120" lon="-8.8901100">
        <ele>30.0</ele>
        <time>2021-05-19T10:49:47Z</time>
      </trkpt>
      <trkpt lat="42.0819240" lon="-8.8901070">
        <ele>30.1</ele>
        <time>2021-05-19T10:49:48Z</time>
      </trkpt>
      <trkpt lat="42.0819450" lon="-8.8901080">
        <ele>30.2</ele>
        <time>2021-05-19T10:49:49Z</time>
      </trkpt>
      <trkpt lat="42.0819540" lon="-8.8901070">
        <ele>30.2</ele>
        <time>2021-05-19T10:49:50Z</time>
      </trkpt>
      <trkpt lat="42.0819620" lon="-8.8901070">
        <ele>30.2</ele>
        <time>2021-05-19T10:49:51Z</time>
      </trkpt>
      <trkpt lat="42.0819770" lon="-8.8900990">
        <ele>30.3</ele>
        <time>2021-05-19T10:49:52Z</time>
      </trkpt>
      <trkpt lat="42.0819930" lon="-8.8900980">
        <ele>30.4</ele>
        <time>2021-05-19T10:49:53Z</time>
      </trkpt>
      <trkpt lat="42.0820090" lon="-8.8900860">
        <ele>30.4</ele>
        <time>2021-05-19T10:49:54Z</time>
      </trkpt>
      <trkpt lat="42.0820230" lon="-8.8900780">
        <ele>30.5</ele>
        <time>2021-05-19T10:49:55Z</time>
      </trkpt>
      <trkpt lat="42.0820400" lon="-8.8900860">
        <ele>30.6</ele>
        <time>2021-05-19T10:49:56Z</time>
      </trkpt>
      <trkpt lat="42.0820540" lon="-8.8900890">
        <ele>30.6</ele>
        <time>2021-05-19T10:49:57Z</time>
      </trkpt>
      <trkpt lat="42.0820810" lon="-8.8900800">
        <ele>30.7</ele>
        <time>2021-05-19T10:49:58Z</time>
      </trkpt>
      <trkpt lat="42.0820900" lon="-8.8900760">
        <ele>30.8</ele>
        <time>2021-05-19T10:49:59Z</time>
      </trkpt>
      <trkpt lat="42.0821100" lon="-8.8900680">
        <ele>30.9</ele>
        <time>2021-05-19T10:50:00Z</time>
      </trkpt>
      <trkpt lat="42.0821190" lon="-8.8900660">
        <ele>30.9</ele>
        <time>2021-05-19T10:50:01Z</time>
      </trkpt>
      <trkpt lat="42.0821270" lon="-8.8900630">
        <ele>30.9</ele>
        <time>2021-05-19T10:50:02Z</time>
      </trkpt>
      <trkpt lat="42.0821410" lon="-8.8900590">
        <ele>31.0</ele>
        <time>2021-05-19T10:50:03Z</time>
      </trkpt>
      <trkpt lat="42.0821550" lon="-8.8900560">
        <ele>31.0</ele>
        <time>2021-05-19T10:50:04Z</time>
      </trkpt>
      <trkpt lat="42.0821700" lon="-8.8900540">
        <ele>31.1</ele>
        <time>2021-05-19T10:50:05Z</time>
      </trkpt>
      <trkpt lat="42.0821830" lon="-8.8900400">
        <ele>31.2</ele>
        <time>2021-05-19T10:50:06Z</time>
      </trkpt>
      <trkpt lat="42.0821980" lon="-8.8900420">
        <ele>31.2</ele>
        <time>2021-05-19T10:50:07Z</time>
      </trkpt>
      <trkpt lat="42.0822100" lon="-8.8900330">
        <ele>31.3</ele>
        <time>2021-05-19T10:50:08Z</time>
      </trkpt>
      <trkpt lat="42.0822230" lon="-8.8900170">
        <ele>31.4</ele>
        <time>2021-05-19T10:50:09Z</time>
      </trkpt>
      <trkpt lat="42.0822380" lon="-8.8900170">
        <ele>31.4</ele>
        <time>2021-05-19T10:50:10Z</time>
      </trkpt>
      <trkpt lat="42.0822530" lon="-8.8900170">
        <ele>31.5</ele>
        <time>2021-05-19T10:50:11Z</time>
      </trkpt>
      <trkpt lat="42.0822720" lon="-8.8900230">
        <ele>31.6</ele>
        <time>2021-05-19T10:50:12Z</time>
      </trkpt>
      <trkpt lat="42.0822950" lon="-8.8900220">
        <ele>31.7</ele>
        <time>2021-05-19T10:50:13Z</time>
      </trkpt>
      <trkpt lat="42.0823040" lon="-8.8900200">
        <ele>31.7</ele>
        <time>2021-05-19T10:50:14Z</time>
      </trkpt>
      <trkpt lat="42.0823130" lon="-8.8900190">
        <ele>31.7</ele>
        <time>2021-05-19T10:50:15Z</time>
      </trkpt>
      <trkpt lat="42.0823260" lon="-8.8900130">
        <ele>31.8</ele>
        <time>2021-05-19T10:50:16Z</time>
      </trkpt>
      <trkpt lat="42.0823390" lon="-8.8900110">
        <ele>31.8</ele>
        <time>2021-05-19T10:50:17Z</time>
      </trkpt>
      <trkpt lat="42.0823550" lon="-8.8900040">
        <ele>31.9</ele>
        <time>2021-05-19T10:50:18Z</time>
      </trkpt>
      <trkpt lat="42.0823690" lon="-8.8900030">
        <ele>32.0</ele>
        <time>2021-05-19T10:50:19Z</time>
      </trkpt>
      <trkpt lat="42.0823840" lon="-8.8900030">
        <ele>32.0</ele>
        <time>2021-05-19T10:50:20Z</time>
      </trkpt>
      <trkpt lat="42.0823970" lon="-8.8899990">
        <ele>32.1</ele>
        <time>2021-05-19T10:50:21Z</time>
      </trkpt>
      <trkpt lat="42.0824120" lon="-8.8899950">
        <ele>32.1</ele>
        <time>2021-05-19T10:50:22Z</time>
      </trkpt>
      <trkpt lat="42.0824250" lon="-8.8899940">
        <ele>32.2</ele>
        <time>2021-05-19T10:50:23Z</time>
      </trkpt>
      <trkpt lat="42.0824400" lon="-8.8899960">
        <ele>32.2</ele>
        <time>2021-05-19T10:50:24Z</time>
      </trkpt>
      <trkpt lat="42.0824530" lon="-8.8899910">
        <ele>32.3</ele>
        <time>2021-05-19T10:50:25Z</time>
      </trkpt>
      <trkpt lat="42.0824660" lon="-8.8899850">
        <ele>32.4</ele>
        <time>2021-05-19T10:50:26Z</time>
      </trkpt>
      <trkpt lat="42.0824810" lon="-8.8899820">
        <ele>32.4</ele>
        <time>2021-05-19T10:50:27Z</time>
      </trkpt>
      <trkpt lat="42.0824960" lon="-8.8899850">
        <ele>32.5</ele>
        <time>2021-05-19T10:50:28Z</time>
      </trkpt>
      <trkpt lat="42.0825090" lon="-8.8899800">
        <ele>32.5</ele>
        <time>2021-05-19T10:50:29Z</time>
      </trkpt>
      <trkpt lat="42.0825320" lon="-8.8899810">
        <ele>32.6</ele>
        <time>2021-05-19T10:50:30Z</time>
      </trkpt>
      <trkpt lat="42.0825390" lon="-8.8899810">
        <ele>32.6</ele>
        <time>2021-05-19T10:50:31Z</time>
      </trkpt>
      <trkpt lat="42.0825470" lon="-8.8899800">
        <ele>32.7</ele>
        <time>2021-05-19T10:50:32Z</time>
      </trkpt>
      <trkpt lat="42.0825590" lon="-8.8899900">
        <ele>32.7</ele>
        <time>2021-05-19T10:50:33Z</time>
      </trkpt>
      <trkpt lat="42.0825690" lon="-8.8900010">
        <ele>32.8</ele>
        <time>2021-05-19T10:50:34Z</time>
      </trkpt>
      <trkpt lat="42.0825780" lon="-8.8900040">
        <ele>32.8</ele>
        <time>2021-05-19T10:50:35Z</time>
      </trkpt>
      <trkpt lat="42.0825910" lon="-8.8900110">
        <ele>32.9</ele>
        <time>2021-05-19T10:50:36Z</time>
      </trkpt>
      <trkpt lat="42.0826060" lon="-8.8900090">
        <ele>32.9</ele>
        <time>2021-05-19T10:50:37Z</time>
      </trkpt>
      <trkpt lat="42.0826270" lon="-8.8900120">
        <ele>33.0</ele>
        <time>2021-05-19T10:50:38Z</time>
      </trkpt>
      <trkpt lat="42.0826360" lon="-8.8900140">
        <ele>33.1</ele>
        <time>2021-05-19T10:50:39Z</time>
      </trkpt>
      <trkpt lat="42.0826440" lon="-8.8900170">
        <ele>33.1</ele>
        <time>2021-05-19T10:50:40Z</time>
      </trkpt>
      <trkpt lat="42.0826560" lon="-8.8900250">
        <ele>33.2</ele>
        <time>2021-05-19T10:50:41Z</time>
      </trkpt>
      <trkpt lat="42.0826710" lon="-8.8900260">
        <ele>33.2</ele>
        <time>2021-05-19T10:50:42Z</time>
      </trkpt>
      <trkpt lat="42.0826820" lon="-8.8900390">
        <ele>33.3</ele>
        <time>2021-05-19T10:50:43Z</time>
      </trkpt>
      <trkpt lat="42.0826930" lon="-8.8900550">
        <ele>33.3</ele>
        <time>2021-05-19T10:50:44Z</time>
      </trkpt>
      <trkpt lat="42.0827150" lon="-8.8900630">
        <ele>33.4</ele>
        <time>2021-05-19T10:50:45Z</time>
      </trkpt>
      <trkpt lat="42.0827230" lon="-8.8900670">
        <ele>33.5</ele>
        <time>2021-05-19T10:50:46Z</time>
      </trkpt>
      <trkpt lat="42.0827310" lon="-8.8900720">
        <ele>33.5</ele>
        <time>2021-05-19T10:50:47Z</time>
      </trkpt>
      <trkpt lat="42.0827460" lon="-8.8900780">
        <ele>33.6</ele>
        <time>2021-05-19T10:50:48Z</time>
      </trkpt>
      <trkpt lat="42.0827590" lon="-8.8900800">
        <ele>33.6</ele>
        <time>2021-05-19T10:50:49Z</time>
      </trkpt>
      <trkpt lat="42.0827780" lon="-8.8900940">
        <ele>33.7</ele>
        <time>2021-05-19T10:50:50Z</time>
      </trkpt>
      <trkpt lat="42.0827870" lon="-8.8900960">
        <ele>33.7</ele>
        <time>2021-05-19T10:50:51Z</time>
      </trkpt>
      <trkpt lat="42.0827950" lon="-8.8900990">
        <ele>33.8</ele>
        <time>2021-05-19T10:50:52Z</time>
      </trkpt>
      <trkpt lat="42.0828090" lon="-8.8901030">
        <ele>33.8</ele>
        <time>2021-05-19T10:50:53Z</time>
      </trkpt>
      <trkpt lat="42.0828250" lon="-8.8901010">
        <ele>33.9</ele>
        <time>2021-05-19T10:50:54Z</time>
      </trkpt>
      <trkpt lat="42.0828370" lon="-8.8901060">
        <ele>34.0</ele>
        <time>2021-05-19T10:50:55Z</time>
      </trkpt>
      <trkpt lat="42.0828510" lon="-8.8901120">
        <ele>34.0</ele>
        <time>2021-05-19T10:50:56Z</time>
      </trkpt>
      <trkpt lat="42.0828690" lon="-8.8901310">
        <ele>34.1</ele>
        <time>2021-05-19T10:50:57Z</time>
      </trkpt>
      <trkpt lat="42.0828750" lon="-8.8901370">
        <ele>34.1</ele>
        <time>2021-05-19T10:50:58Z</time>
      </trkpt>
      <trkpt lat="42.0828820" lon="-8.8901440">
        <ele>34.2</ele>
        <time>2021-05-19T10:50:59Z</time>
      </trkpt>
      <trkpt lat="42.0828940" lon="-8.8901480">
        <ele>34.2</ele>
        <time>2021-05-19T10:51:00Z</time>
      </trkpt>
      <trkpt lat="42.0829080" lon="-8.8901520">
        <ele>34.3</ele>
        <time>2021-05-19T10:51:01Z</time>
      </trkpt>
      <trkpt lat="42.0829170" lon="-8.8901720">
        <ele>34.4</ele>
        <time>2021-05-19T10:51:02Z</time>
      </trkpt>
      <trkpt lat="42.0829250" lon="-8.8901860">
        <ele>34.4</ele>
        <time>2021-05-19T10:51:03Z</time>
      </trkpt>
      <trkpt lat="42.0829320" lon="-8.8902120">
        <ele>34.5</ele>
        <time>2021-05-19T10:51:04Z</time>
      </trkpt>
      <trkpt lat="42.0829330" lon="-8.8902230">
        <ele>34.5</ele>
        <time>2021-05-19T10:51:05Z</time>
      </trkpt>
      <trkpt lat="42.0829340" lon="-8.8902350">
        <ele>34.6</ele>
        <time>2021-05-19T10:51:06Z</time>
      </trkpt>
      <trkpt lat="42.0829340" lon="-8.8902310">
        <ele>34.6</ele>
        <time>2021-05-19T10:51:07Z</time>
      </trkpt>
      <trkpt lat="42.0829250" lon="-8.8902170">
        <ele>34.7</ele>
        <time>2021-05-19T10:51:08Z</time>
      </trkpt>
      <trkpt lat="42.0829190" lon="-8.8902140">
        <ele>34.7</ele>
        <time>2021-05-19T10:51:09Z</time>
      </trkpt>
      <trkpt lat="42.0829150" lon="-8.8902180">
        <ele>34.7</ele>
        <time>2021-05-19T10:51:10Z</time>
      </trkpt>
      <trkpt lat="42.0829120" lon="-8.8902330">
        <ele>34.8</ele>
        <time>2021-05-19T10:51:11Z</time>
      </trkpt>
      <trkpt lat="42.0829060" lon="-8.8902500">
        <ele>34.8</ele>
        <time>2021-05-19T10:51:12Z</time>
      </trkpt>
      <trkpt lat="42.0829030" lon="-8.8902600">
        <ele>34.8</ele>
        <time>2021-05-19T10:51:13Z</time>
      </trkpt>
      <trkpt lat="42.0829040" lon="-8.8902640">
        <ele>34.9</ele>
        <time>2021-05-19T10:51:14Z</time>
      </trkpt>
      <trkpt lat="42.0829050" lon="-8.8902700">
        <ele>34.9</ele>
        <time>2021-05-19T10:51:15Z</time>
      </trkpt>
      <trkpt lat="42.0829000" lon="-8.8902800">
        <ele>34.9</ele>
        <time>2021-05-19T10:51:16Z</time>
      </trkpt>
      <trkpt lat="42.0828930" lon="-8.8902920">
        <ele>35.0</ele>
        <time>2021-05-19T10:51:17Z</time>
      </trkpt>
      <trkpt lat="42.0828990" lon="-8.8902850">
        <ele>35.0</ele>
        <time>2021-05-19T10:51:18Z</time>
      </trkpt>
      <trkpt lat="42.0828990" lon="-8.8902950">
        <ele>35.0</ele>
        <time>2021-05-19T10:51:19Z</time>
      </trkpt>
      <trkpt lat="42.0828980" lon="-8.8902970">
        <ele>35.0</ele>
        <time>2021-05-19T10:51:20Z</time>
      </trkpt>
      <trkpt lat="42.0828970" lon="-8.8902950">
        <ele>35.0</ele>
        <time>2021-05-19T10:51:21Z</time>
      </trkpt>
      <trkpt lat="42.0828980" lon="-8.8902930">
        <ele>35.1</ele>
        <time>2021-05-19T10:51:22Z</time>
      </trkpt>
      <trkpt lat="42.0828950" lon="-8.8902820">
        <ele>35.1</ele>
        <time>2021-05-19T10:51:23Z</time>
      </trkpt>
      <trkpt lat="42.0828910" lon="-8.8902780">
        <ele>35.1</ele>
        <time>2021-05-19T10:51:24Z</time>
      </trkpt>
      <trkpt lat="42.0828870" lon="-8.8902740">
        <ele>35.1</ele>
        <time>2021-05-19T10:51:25Z</time>
      </trkpt>
      <trkpt lat="42.0828900" lon="-8.8902640">
        <ele>35.2</ele>
        <time>2021-05-19T10:51:26Z</time>
      </trkpt>
      <trkpt lat="42.0828870" lon="-8.8902500">
        <ele>35.2</ele>
        <time>2021-05-19T10:51:27Z</time>
      </trkpt>
      <trkpt lat="42.0828860" lon="-8.8902520">
        <ele>35.2</ele>
        <time>2021-05-19T10:51:28Z</time>
      </trkpt>
      <trkpt lat="42.0828870" lon="-8.8902620">
        <ele>35.3</ele>
        <time>2021-05-19T10:51:29Z</time>
      </trkpt>
      <trkpt lat="42.0828870" lon="-8.8902620">
        <ele>35.3</ele>
        <time>2021-05-19T10:51:30Z</time>
      </trkpt>
      <trkpt lat="42.0828810" lon="-8.8902680">
        <ele>35.3</ele>
        <time>2021-05-19T10:51:31Z</time>
      </trkpt>
      <trkpt lat="42.0828810" lon="-8.8902650">
        <ele>35.3</ele>
        <time>2021-05-19T10:51:32Z</time>
      </trkpt>
      <trkpt lat="42.0828790" lon="-8.8902600">
        <ele>35.3</ele>
        <time>2021-05-19T10:51:33Z</time>
      </trkpt>
      <trkpt lat="42.0828790" lon="-8.8902600">
        <ele>35.3</ele>
        <time>2021-05-19T10:51:34Z</time>
      </trkpt>
      <trkpt lat="42.0828770" lon="-8.8902600">
        <ele>35.3</ele>
        <time>2021-05-19T10:51:35Z</time>
      </trkpt>
      <trkpt lat="42.0828770" lon="-8.8902600">
        <ele>35.3</ele>
        <time>2021-05-19T10:51:36Z</time>
      </trkpt>
      <trkpt lat="42.0828650" lon="-8.8902410">
        <ele>35.4</ele>
        <time>2021-05-19T10:51:37Z</time>
      </trkpt>
      <trkpt lat="42.0828630" lon="-8.8902400">
        <ele>35.4</ele>
        <time>2021-05-19T10:51:38Z</time>
      </trkpt>
      <trkpt lat="42.0828610" lon="-8.8902440">
        <ele>35.4</ele>
        <time>2021-05-19T10:51:39Z</time>
      </trkpt>
      <trkpt lat="42.0828580" lon="-8.8902410">
        <ele>35.4</ele>
        <time>2021-05-19T10:51:40Z</time>
      </trkpt>
      <trkpt lat="42.0828560" lon="-8.8902420">
        <ele>35.4</ele>
        <time>2021-05-19T10:51:41Z</time>
      </trkpt>
      <trkpt lat="42.0828530" lon="-8.8902440">
        <ele>35.5</ele>
        <time>2021-05-19T10:51:42Z</time>
      </trkpt>
      <trkpt lat="42.0828520" lon="-8.8902470">
        <ele>35.5</ele>
        <time>2021-05-19T10:51:43Z</time>
      </trkpt>
      <trkpt lat="42.0828490" lon="-8.8902500">
        <ele>35.5</ele>
        <time>2021-05-19T10:51:44Z</time>
      </trkpt>
      <trkpt lat="42.0828450" lon="-8.8902460">
        <ele>35.5</ele>
        <time>2021-05-19T10:51:45Z</time>
      </trkpt>
      <trkpt lat="42.0828430" lon="-8.8902410">
        <ele>35.5</ele>
        <time>2021-05-19T10:51:46Z</time>
      </trkpt>
      <trkpt lat="42.0828410" lon="-8.8902420">
        <ele>35.5</ele>
        <time>2021-05-19T10:51:47Z</time>
      </trkpt>
      <trkpt lat="42.0828420" lon="-8.8902420">
        <ele>35.5</ele>
        <time>2021-05-19T10:51:48Z</time>
      </trkpt>
      <trkpt lat="42.0828390" lon="-8.8902420">
        <ele>35.5</ele>
        <time>2021-05-19T10:51:49Z</time>
      </trkpt>
      <trkpt lat="42.0828360" lon="-8.8902510">
        <ele>35.6</ele>
        <time>2021-05-19T10:51:50Z</time>
      </trkpt>
      <trkpt lat="42.0828340" lon="-8.8902560">
        <ele>35.6</ele>
        <time>2021-05-19T10:51:51Z</time>
      </trkpt>
      <trkpt lat="42.0828380" lon="-8.8902610">
        <ele>35.6</ele>
        <time>2021-05-19T10:51:52Z</time>
      </trkpt>
      <trkpt lat="42.0828350" lon="-8.8902610">
        <ele>35.6</ele>
        <time>2021-05-19T10:51:53Z</time>
      </trkpt>
      <trkpt lat="42.0828230" lon="-8.8902680">
        <ele>35.7</ele>
        <time>2021-05-19T10:51:54Z</time>
      </trkpt>
      <trkpt lat="42.0828270" lon="-8.8902660">
        <ele>35.7</ele>
        <time>2021-05-19T10:51:55Z</time>
      </trkpt>
      <trkpt lat="42.0828270" lon="-8.8902650">
        <ele>35.7</ele>
        <time>2021-05-19T10:51:56Z</time>
      </trkpt>
      <trkpt lat="42.0828280" lon="-8.8902670">
        <ele>35.7</ele>
        <time>2021-05-19T10:51:57Z</time>
      </trkpt>
      <trkpt lat="42.0828320" lon="-8.8902650">
        <ele>35.7</ele>
        <time>2021-05-19T10:51:58Z</time>
      </trkpt>
      <trkpt lat="42.0828350" lon="-8.8902700">
        <ele>35.7</ele>
        <time>2021-05-19T10:51:59Z</time>
      </trkpt>
      <trkpt lat="42.0828390" lon="-8.8902680">
        <ele>35.8</ele>
        <time>2021-05-19T10:52:00Z</time>
      </trkpt>
      <trkpt lat="42.0828460" lon="-8.8902610">
        <ele>35.8</ele>
        <time>2021-05-19T10:52:01Z</time>
      </trkpt>
      <trkpt lat="42.0828520" lon="-8.8902520">
        <ele>35.8</ele>
        <time>2021-05-19T10:52:02Z</time>
      </trkpt>
      <trkpt lat="42.0828440" lon="-8.8902730">
        <ele>35.9</ele>
        <time>2021-05-19T10:52:03Z</time>
      </trkpt>
      <trkpt lat="42.0828470" lon="-8.8902690">
        <ele>35.9</ele>
        <time>2021-05-19T10:52:04Z</time>
      </trkpt>
      <trkpt lat="42.0828710" lon="-8.8902550">
        <ele>36.0</ele>
        <time>2021-05-19T10:52:05Z</time>
      </trkpt>
      <trkpt lat="42.0828850" lon="-8.8902560">
        <ele>36.1</ele>
        <time>2021-05-19T10:52:06Z</time>
      </trkpt>
      <trkpt lat="42.0828900" lon="-8.8902510">
        <ele>36.1</ele>
        <time>2021-05-19T10:52:07Z</time>
      </trkpt>
      <trkpt lat="42.0828930" lon="-8.8902480">
        <ele>36.1</ele>
        <time>2021-05-19T10:52:08Z</time>
      </trkpt>
      <trkpt lat="42.0828970" lon="-8.8902490">
        <ele>36.1</ele>
        <time>2021-05-19T10:52:09Z</time>
      </trkpt>
      <trkpt lat="42.0828870" lon="-8.8902460">
        <ele>36.2</ele>
        <time>2021-05-19T10:52:10Z</time>
      </trkpt>
      <trkpt lat="42.0828870" lon="-8.8902410">
        <ele>36.2</ele>
        <time>2021-05-19T10:52:11Z</time>
      </trkpt>
      <trkpt lat="42.0828800" lon="-8.8902460">
        <ele>36.2</ele>
        <time>2021-05-19T10:52:12Z</time>
      </trkpt>
      <trkpt lat="42.0828860" lon="-8.8902750">
        <ele>36.3</ele>
        <time>2021-05-19T10:52:13Z</time>
      </trkpt>
      <trkpt lat="42.0828850" lon="-8.8902840">
        <ele>36.4</ele>
        <time>2021-05-19T10:52:14Z</time>
      </trkpt>
      <trkpt lat="42.0828740" lon="-8.8902830">
        <ele>36.4</ele>
        <time>2021-05-19T10:52:15Z</time>
      </trkpt>
      <trkpt lat="42.0828720" lon="-8.8902630">
        <ele>36.5</ele>
        <time>2021-05-19T10:52:16Z</time>
      </trkpt>
      <trkpt lat="42.0828720" lon="-8.8902560">
        <ele>36.5</ele>
        <time>2021-05-19T10:52:17Z</time>
      </trkpt>
      <trkpt lat="42.0828560" lon="-8.8902550">
        <ele>36.6</ele>
        <time>2021-05-19T10:52:18Z</time>
      </trkpt>
      <trkpt lat="42.0828400" lon="-8.8902700">
        <ele>36.6</ele>
        <time>2021-05-19T10:52:19Z</time>
      </trkpt>
      <trkpt lat="42.0828290" lon="-8.8902660">
        <ele>36.7</ele>
        <time>2021-05-19T10:52:20Z</time>
      </trkpt>
      <trkpt lat="42.0828480" lon="-8.8902730">
        <ele>36.8</ele>
        <time>2021-05-19T10:52:21Z</time>
      </trkpt>
      <trkpt lat="42.0828480" lon="-8.8902860">
        <ele>36.8</ele>
        <time>2021-05-19T10:52:22Z</time>
      </trkpt>
      <trkpt lat="42.0828560" lon="-8.8903020">
        <ele>36.9</ele>
        <time>2021-05-19T10:52:23Z</time>
      </trkpt>
      <trkpt lat="42.0828490" lon="-8.8903090">
        <ele>36.9</ele>
        <time>2021-05-19T10:52:24Z</time>
      </trkpt>
      <trkpt lat="42.0828580" lon="-8.8903420">
        <ele>37.0</ele>
        <time>2021-05-19T10:52:25Z</time>
      </trkpt>
      <trkpt lat="42.0828760" lon="-8.8903720">
        <ele>37.2</ele>
        <time>2021-05-19T10:52:26Z</time>
      </trkpt>
      <trkpt lat="42.0828820" lon="-8.8903830">
        <ele>37.2</ele>
        <time>2021-05-19T10:52:27Z</time>
      </trkpt>
      <trkpt lat="42.0828930" lon="-8.8903950">
        <ele>37.3</ele>
        <time>2021-05-19T10:52:28Z</time>
      </trkpt>
      <trkpt lat="42.0829060" lon="-8.8904030">
        <ele>37.3</ele>
        <time>2021-05-19T10:52:29Z</time>
      </trkpt>
      <trkpt lat="42.0829170" lon="-8.8904120">
        <ele>37.4</ele>
        <time>2021-05-19T10:52:30Z</time>
      </trkpt>
      <trkpt lat="42.0829210" lon="-8.8904160">
        <ele>37.4</ele>
        <time>2021-05-19T10:52:31Z</time>
      </trkpt>
      <trkpt lat="42.0829170" lon="-8.8904130">
        <ele>37.4</ele>
        <time>2021-05-19T10:52:32Z</time>
      </trkpt>
      <trkpt lat="42.0829150" lon="-8.8904210">
        <ele>37.4</ele>
        <time>2021-05-19T10:52:33Z</time>
      </trkpt>
      <trkpt lat="42.0829070" lon="-8.8904190">
        <ele>37.5</ele>
        <time>2021-05-19T10:52:34Z</time>
      </trkpt>
      <trkpt lat="42.0829100" lon="-8.8904310">
        <ele>37.5</ele>
        <time>2021-05-19T10:52:35Z</time>
      </trkpt>
      <trkpt lat="42.0829160" lon="-8.8904420">
        <ele>37.6</ele>
        <time>2021-05-19T10:52:36Z</time>
      </trkpt>
      <trkpt lat="42.0829180" lon="-8.8904500">
        <ele>37.6</ele>
        <time>2021-05-19T10:52:37Z</time>
      </trkpt>
      <trkpt lat="42.0829180" lon="-8.8904540">
        <ele>37.6</ele>
        <time>2021-05-19T10:52:38Z</time>
      </trkpt>
      <trkpt lat="42.0829200" lon="-8.8904530">
        <ele>37.6</ele>
        <time>2021-05-19T10:52:39Z</time>
      </trkpt>
      <trkpt lat="42.0829170" lon="-8.8904620">
        <ele>37.6</ele>
        <time>2021-05-19T10:52:40Z</time>
      </trkpt>
      <trkpt lat="42.0829180" lon="-8.8904570">
        <ele>37.7</ele>
        <time>2021-05-19T10:52:41Z</time>
      </trkpt>
      <trkpt lat="42.0829190" lon="-8.8904570">
        <ele>37.7</ele>
        <time>2021-05-19T10:52:42Z</time>
      </trkpt>
      <trkpt lat="42.0829240" lon="-8.8904530">
        <ele>37.7</ele>
        <time>2021-05-19T10:52:43Z</time>
      </trkpt>
      <trkpt lat="42.0829300" lon="-8.8904460">
        <ele>37.7</ele>
        <time>2021-05-19T10:52:44Z</time>
      </trkpt>
      <trkpt lat="42.0829310" lon="-8.8904550">
        <ele>37.7</ele>
        <time>2021-05-19T10:52:45Z</time>
      </trkpt>
      <trkpt lat="42.0829330" lon="-8.8904540">
        <ele>37.7</ele>
        <time>2021-05-19T10:52:46Z</time>
      </trkpt>
      <trkpt lat="42.0829350" lon="-8.8904550">
        <ele>37.8</ele>
        <time>2021-05-19T10:52:47Z</time>
      </trkpt>
      <trkpt lat="42.0829340" lon="-8.8904700">
        <ele>37.8</ele>
        <time>2021-05-19T10:52:48Z</time>
      </trkpt>
      <trkpt lat="42.0829320" lon="-8.8904710">
        <ele>37.8</ele>
        <time>2021-05-19T10:52:49Z</time>
      </trkpt>
      <trkpt lat="42.0829300" lon="-8.8904750">
        <ele>37.8</ele>
        <time>2021-05-19T10:52:50Z</time>
      </trkpt>
      <trkpt lat="42.0829310" lon="-8.8904740">
        <ele>37.8</ele>
        <time>2021-05-19T10:52:51Z</time>
      </trkpt>
      <trkpt lat="42.0829350" lon="-8.8904750">
        <ele>37.8</ele>
        <time>2021-05-19T10:52:52Z</time>
      </trkpt>
      <trkpt lat="42.0829380" lon="-8.8904690">
        <ele>37.9</ele>
        <time>2021-05-19T10:52:53Z</time>
      </trkpt>
      <trkpt lat="42.0829380" lon="-8.8904730">
        <ele>37.9</ele>
        <time>2021-05-19T10:52:54Z</time>
      </trkpt>
      <trkpt lat="42.0829380" lon="-8.8904690">
        <ele>37.9</ele>
        <time>2021-05-19T10:52:55Z</time>
      </trkpt>
      <trkpt lat="42.0829370" lon="-8.8904660">
        <ele>37.9</ele>
        <time>2021-05-19T10:52:56Z</time>
      </trkpt>
      <trkpt lat="42.0829360" lon="-8.8904730">
        <ele>37.9</ele>
        <time>2021-05-19T10:52:57Z</time>
      </trkpt>
      <trkpt lat="42.0829350" lon="-8.8904670">
        <ele>37.9</ele>
        <time>2021-05-19T10:52:58Z</time>
      </trkpt>
      <trkpt lat="42.0829360" lon="-8.8904760">
        <ele>38.0</ele>
        <time>2021-05-19T10:52:59Z</time>
      </trkpt>
      <trkpt lat="42.0829360" lon="-8.8904810">
        <ele>38.0</ele>
        <time>2021-05-19T10:53:00Z</time>
      </trkpt>
      <trkpt lat="42.0829320" lon="-8.8904870">
        <ele>38.0</ele>
        <time>2021-05-19T10:53:01Z</time>
      </trkpt>
      <trkpt lat="42.0829310" lon="-8.8904990">
        <ele>38.0</ele>
        <time>2021-05-19T10:53:02Z</time>
      </trkpt>
      <trkpt lat="42.0829310" lon="-8.8905050">
        <ele>38.1</ele>
        <time>2021-05-19T10:53:03Z</time>
      </trkpt>
      <trkpt lat="42.0829300" lon="-8.8904980">
        <ele>38.1</ele>
        <time>2021-05-19T10:53:04Z</time>
      </trkpt>
      <trkpt lat="42.0829320" lon="-8.8904870">
        <ele>38.1</ele>
        <time>2021-05-19T10:53:05Z</time>
      </trkpt>
      <trkpt lat="42.0829330" lon="-8.8904860">
        <ele>38.1</ele>
        <time>2021-05-19T10:53:06Z</time>
      </trkpt>
      <trkpt lat="42.0829430" lon="-8.8904650">
        <ele>38.2</ele>
        <time>2021-05-19T10:53:07Z</time>
      </trkpt>
      <trkpt lat="42.0829440" lon="-8.8904660">
        <ele>38.2</ele>
        <time>2021-05-19T10:53:08Z</time>
      </trkpt>
      <trkpt lat="42.0829320" lon="-8.8904670">
        <ele>38.2</ele>
        <time>2021-05-19T10:53:09Z</time>
      </trkpt>
      <trkpt lat="42.0829350" lon="-8.8904760">
        <ele>38.3</ele>
        <time>2021-05-19T10:53:10Z</time>
      </trkpt>
      <trkpt lat="42.0829370" lon="-8.8904720">
        <ele>38.3</ele>
        <time>2021-05-19T10:53:11Z</time>
      </trkpt>
      <trkpt lat="42.0829240" lon="-8.8904640">
        <ele>38.3</ele>
        <time>2021-05-19T10:53:12Z</time>
      </trkpt>
      <trkpt lat="42.0829190" lon="-8.8904590">
        <ele>38.3</ele>
        <time>2021-05-19T10:53:13Z</time>
      </trkpt>
      <trkpt lat="42.0829170" lon="-8.8904580">
        <ele>38.3</ele>
        <time>2021-05-19T10:53:14Z</time>
      </trkpt>
      <trkpt lat="42.0829140" lon="-8.8904640">
        <ele>38.4</ele>
        <time>2021-05-19T10:53:15Z</time>
      </trkpt>
      <trkpt lat="42.0829110" lon="-8.8904670">
        <ele>38.4</ele>
        <time>2021-05-19T10:53:16Z</time>
      </trkpt>
      <trkpt lat="42.0829020" lon="-8.8904730">
        <ele>38.4</ele>
        <time>2021-05-19T10:53:17Z</time>
      </trkpt>
      <trkpt lat="42.0829100" lon="-8.8904670">
        <ele>38.5</ele>
        <time>2021-05-19T10:53:18Z</time>
      </trkpt>
      <trkpt lat="42.0829140" lon="-8.8904580">
        <ele>38.5</ele>
        <time>2021-05-19T10:53:19Z</time>
      </trkpt>
      <trkpt lat="42.0829170" lon="-8.8904500">
        <ele>38.5</ele>
        <time>2021-05-19T10:53:20Z</time>
      </trkpt>
      <trkpt lat="42.0829210" lon="-8.8904410">
        <ele>38.5</ele>
        <time>2021-05-19T10:53:21Z</time>
      </trkpt>
      <trkpt lat="42.0829250" lon="-8.8904320">
        <ele>38.6</ele>
        <time>2021-05-19T10:53:22Z</time>
      </trkpt>
      <trkpt lat="42.0829360" lon="-8.8904230">
        <ele>38.6</ele>
        <time>2021-05-19T10:53:23Z</time>
      </trkpt>
      <trkpt lat="42.0829330" lon="-8.8904330">
        <ele>38.6</ele>
        <time>2021-05-19T10:53:24Z</time>
      </trkpt>
      <trkpt lat="42.0829290" lon="-8.8904430">
        <ele>38.7</ele>
        <time>2021-05-19T10:53:25Z</time>
      </trkpt>
      <trkpt lat="42.0829260" lon="-8.8904530">
        <ele>38.7</ele>
        <time>2021-05-19T10:53:26Z</time>
      </trkpt>
      <trkpt lat="42.0829220" lon="-8.8904630">
        <ele>38.7</ele>
        <time>2021-05-19T10:53:27Z</time>
      </trkpt>
      <trkpt lat="42.0829190" lon="-8.8904730">
        <ele>38.8</ele>
        <time>2021-05-19T10:53:28Z</time>
      </trkpt>
      <trkpt lat="42.0829150" lon="-8.8904830">
        <ele>38.8</ele>
        <time>2021-05-19T10:53:29Z</time>
      </trkpt>
      <trkpt lat="42.0829070" lon="-8.8904810">
        <ele>38.8</ele>
        <time>2021-05-19T10:53:30Z</time>
      </trkpt>
      <trkpt lat="42.0829010" lon="-8.8904910">
        <ele>38.8</ele>
        <time>2021-05-19T10:53:31Z</time>
      </trkpt>
      <trkpt lat="42.0828940" lon="-8.8905040">
        <ele>38.9</ele>
        <time>2021-05-19T10:53:32Z</time>
      </trkpt>
      <trkpt lat="42.0828960" lon="-8.8904920">
        <ele>38.9</ele>
        <time>2021-05-19T10:53:33Z</time>
      </trkpt>
      <trkpt lat="42.0828970" lon="-8.8904790">
        <ele>38.9</ele>
        <time>2021-05-19T10:53:34Z</time>
      </trkpt>
      <trkpt lat="42.0828950" lon="-8.8904760">
        <ele>39.0</ele>
        <time>2021-05-19T10:53:35Z</time>
      </trkpt>
      <trkpt lat="42.0828930" lon="-8.8904800">
        <ele>39.0</ele>
        <time>2021-05-19T10:53:36Z</time>
      </trkpt>
      <trkpt lat="42.0828930" lon="-8.8904810">
        <ele>39.0</ele>
        <time>2021-05-19T10:53:37Z</time>
      </trkpt>
      <trkpt lat="42.0828930" lon="-8.8904780">
        <ele>39.0</ele>
        <time>2021-05-19T10:53:38Z</time>
      </trkpt>
      <trkpt lat="42.0828920" lon="-8.8904730">
        <ele>39.0</ele>
        <time>2021-05-19T10:53:39Z</time>
      </trkpt>
      <trkpt lat="42.0828920" lon="-8.8904730">
        <ele>39.0</ele>
        <time>2021-05-19T10:53:40Z</time>
      </trkpt>
      <trkpt lat="42.0828940" lon="-8.8904750">
        <ele>39.0</ele>
        <time>2021-05-19T10:53:41Z</time>
      </trkpt>
      <trkpt lat="42.0828940" lon="-8.8904750">
        <ele>39.0</ele>
        <time>2021-05-19T10:53:42Z</time>
      </trkpt>
      <trkpt lat="42.0828920" lon="-8.8904900">
        <ele>39.0</ele>
        <time>2021-05-19T10:53:43Z</time>
      </trkpt>
      <trkpt lat="42.0828860" lon="-8.8904980">
        <ele>39.1</ele>
        <time>2021-05-19T10:53:44Z</time>
      </trkpt>
      <trkpt lat="42.0828920" lon="-8.8904920">
        <ele>39.1</ele>
        <time>2021-05-19T10:53:45Z</time>
      </trkpt>
      <trkpt lat="42.0828940" lon="-8.8904940">
        <ele>39.1</ele>
        <time>2021-05-19T10:53:46Z</time>
      </trkpt>
      <trkpt lat="42.0828920" lon="-8.8904930">
        <ele>39.1</ele>
        <time>2021-05-19T10:53:47Z</time>
      </trkpt>
      <trkpt lat="42.0828940" lon="-8.8904930">
        <ele>39.1</ele>
        <time>2021-05-19T10:53:48Z</time>
      </trkpt>
      <trkpt lat="42.0828970" lon="-8.8904930">
        <ele>39.1</ele>
        <time>2021-05-19T10:53:49Z</time>
      </trkpt>
      <trkpt lat="42.0828930" lon="-8.8904950">
        <ele>39.1</ele>
        <time>2021-05-19T10:53:50Z</time>
      </trkpt>
      <trkpt lat="42.0828940" lon="-8.8904910">
        <ele>39.1</ele>
        <time>2021-05-19T10:53:51Z</time>
      </trkpt>
      <trkpt lat="42.0828950" lon="-8.8904890">
        <ele>39.2</ele>
        <time>2021-05-19T10:53:52Z</time>
      </trkpt>
      <trkpt lat="42.0828950" lon="-8.8904890">
        <ele>39.2</ele>
        <time>2021-05-19T10:53:53Z</time>
      </trkpt>
      <trkpt lat="42.0828950" lon="-8.8904890">
        <ele>39.2</ele>
        <time>2021-05-19T10:53:54Z</time>
      </trkpt>
      <trkpt lat="42.0828950" lon="-8.8904890">
        <ele>39.2</ele>
        <time>2021-05-19T10:53:55Z</time>
      </trkpt>
      <trkpt lat="42.0828950" lon="-8.8904890">
        <ele>39.2</ele>
        <time>2021-05-19T10:53:56Z</time>
      </trkpt>
      <trkpt lat="42.0828950" lon="-8.8904890">
        <ele>39.2</ele>
        <time>2021-05-19T10:53:57Z</time>
      </trkpt>
      <trkpt lat="42.0828950" lon="-8.8904890">
        <ele>39.2</ele>
        <time>2021-05-19T10:53:58Z</time>
      </trkpt>
      <trkpt lat="42.0829010" lon="-8.8904690">
        <ele>39.2</ele>
        <time>2021-05-19T10:53:59Z</time>
      </trkpt>
      <trkpt lat="42.0829010" lon="-8.8904700">
        <ele>39.2</ele>
        <time>2021-05-19T10:54:00Z</time>
      </trkpt>
      <trkpt lat="42.0829010" lon="-8.8904700">
        <ele>39.2</ele>
        <time>2021-05-19T10:54:01Z</time>
      </trkpt>
      <trkpt lat="42.0829010" lon="-8.8904700">
        <ele>39.2</ele>
        <time>2021-05-19T10:54:02Z</time>
      </trkpt>
      <trkpt lat="42.0829010" lon="-8.8904700">
        <ele>39.2</ele>
        <time>2021-05-19T10:54:03Z</time>
      </trkpt>
      <trkpt lat="42.0829010" lon="-8.8904700">
        <ele>39.2</ele>
        <time>2021-05-19T10:54:04Z</time>
      </trkpt>
      <trkpt lat="42.0829010" lon="-8.8904700">
        <ele>39.2</ele>
        <time>2021-05-19T10:54:05Z</time>
      </trkpt>
      <trkpt lat="42.0829010" lon="-8.8904700">
        <ele>39.2</ele>
        <time>2021-05-19T10:54:06Z</time>
      </trkpt>
      <trkpt lat="42.0829010" lon="-8.8904700">
        <ele>39.2</ele>
        <time>2021-05-19T10:54:07Z</time>
      </trkpt>
      <trkpt lat="42.0829010" lon="-8.8904700">
        <ele>39.2</ele>
        <time>2021-05-19T10:54:08Z</time>
      </trkpt>
      <trkpt lat="42.0829010" lon="-8.8904700">
        <ele>39.2</ele>
        <time>2021-05-19T10:54:09Z</time>
      </trkpt>
      <trkpt lat="42.0828980" lon="-8.8904590">
        <ele>39.2</ele>
        <time>2021-05-19T10:54:10Z</time>
      </trkpt>
      <trkpt lat="42.0828990" lon="-8.8904600">
        <ele>39.2</ele>
        <time>2021-05-19T10:54:11Z</time>
      </trkpt>
      <trkpt lat="42.0829000" lon="-8.8904620">
        <ele>39.2</ele>
        <time>2021-05-19T10:54:12Z</time>
      </trkpt>
      <trkpt lat="42.0829020" lon="-8.8904600">
        <ele>39.3</ele>
        <time>2021-05-19T10:54:13Z</time>
      </trkpt>
      <trkpt lat="42.0829080" lon="-8.8904620">
        <ele>39.3</ele>
        <time>2021-05-19T10:54:14Z</time>
      </trkpt>
      <trkpt lat="42.0829080" lon="-8.8904620">
        <ele>39.3</ele>
        <time>2021-05-19T10:54:15Z</time>
      </trkpt>
      <trkpt lat="42.0829080" lon="-8.8904620">
        <ele>39.3</ele>
        <time>2021-05-19T10:54:16Z</time>
      </trkpt>
      <trkpt lat="42.0829080" lon="-8.8904620">
        <ele>39.3</ele>
        <time>2021-05-19T10:54:17Z</time>
      </trkpt>
      <trkpt lat="42.0829040" lon="-8.8904590">
        <ele>39.3</ele>
        <time>2021-05-19T10:54:18Z</time>
      </trkpt>
      <trkpt lat="42.0829030" lon="-8.8904760">
        <ele>39.3</ele>
        <time>2021-05-19T10:54:19Z</time>
      </trkpt>
      <trkpt lat="42.0829080" lon="-8.8904750">
        <ele>39.4</ele>
        <time>2021-05-19T10:54:20Z</time>
      </trkpt>
      <trkpt lat="42.0829250" lon="-8.8904560">
        <ele>39.4</ele>
        <time>2021-05-19T10:54:21Z</time>
      </trkpt>
      <trkpt lat="42.0829390" lon="-8.8904490">
        <ele>39.5</ele>
        <time>2021-05-19T10:54:22Z</time>
      </trkpt>
      <trkpt lat="42.0829430" lon="-8.8904380">
        <ele>39.5</ele>
        <time>2021-05-19T10:54:23Z</time>
      </trkpt>
      <trkpt lat="42.0829460" lon="-8.8904400">
        <ele>39.5</ele>
        <time>2021-05-19T10:54:24Z</time>
      </trkpt>
      <trkpt lat="42.0829450" lon="-8.8904420">
        <ele>39.5</ele>
        <time>2021-05-19T10:54:25Z</time>
      </trkpt>
      <trkpt lat="42.0829480" lon="-8.8904320">
        <ele>39.5</ele>
        <time>2021-05-19T10:54:26Z</time>
      </trkpt>
      <trkpt lat="42.0829500" lon="-8.8904200">
        <ele>39.6</ele>
        <time>2021-05-19T10:54:27Z</time>
      </trkpt>
      <trkpt lat="42.0829520" lon="-8.8904330">
        <ele>39.6</ele>
        <time>2021-05-19T10:54:28Z</time>
      </trkpt>
      <trkpt lat="42.0829630" lon="-8.8904380">
        <ele>39.6</ele>
        <time>2021-05-19T10:54:29Z</time>
      </trkpt>
      <trkpt lat="42.0829600" lon="-8.8904390">
        <ele>39.6</ele>
        <time>2021-05-19T10:54:30Z</time>
      </trkpt>
      <trkpt lat="42.0829650" lon="-8.8904290">
        <ele>39.7</ele>
        <time>2021-05-19T10:54:31Z</time>
      </trkpt>
      <trkpt lat="42.0829620" lon="-8.8904400">
        <ele>39.7</ele>
        <time>2021-05-19T10:54:32Z</time>
      </trkpt>
      <trkpt lat="42.0829570" lon="-8.8904500">
        <ele>39.7</ele>
        <time>2021-05-19T10:54:33Z</time>
      </trkpt>
      <trkpt lat="42.0829510" lon="-8.8904480">
        <ele>39.7</ele>
        <time>2021-05-19T10:54:34Z</time>
      </trkpt>
      <trkpt lat="42.0829540" lon="-8.8904470">
        <ele>39.7</ele>
        <time>2021-05-19T10:54:35Z</time>
      </trkpt>
      <trkpt lat="42.0829620" lon="-8.8904490">
        <ele>39.8</ele>
        <time>2021-05-19T10:54:36Z</time>
      </trkpt>
      <trkpt lat="42.0829630" lon="-8.8904400">
        <ele>39.8</ele>
        <time>2021-05-19T10:54:37Z</time>
      </trkpt>
      <trkpt lat="42.0829490" lon="-8.8904470">
        <ele>39.8</ele>
        <time>2021-05-19T10:54:38Z</time>
      </trkpt>
      <trkpt lat="42.0829430" lon="-8.8904480">
        <ele>39.8</ele>
        <time>2021-05-19T10:54:39Z</time>
      </trkpt>
      <trkpt lat="42.0829350" lon="-8.8904580">
        <ele>39.9</ele>
        <time>2021-05-19T10:54:40Z</time>
      </trkpt>
      <trkpt lat="42.0829240" lon="-8.8904630">
        <ele>39.9</ele>
        <time>2021-05-19T10:54:41Z</time>
      </trkpt>
      <trkpt lat="42.0829250" lon="-8.8904610">
        <ele>39.9</ele>
        <time>2021-05-19T10:54:42Z</time>
      </trkpt>
      <trkpt lat="42.0829230" lon="-8.8904540">
        <ele>39.9</ele>
        <time>2021-05-19T10:54:43Z</time>
      </trkpt>
      <trkpt lat="42.0829180" lon="-8.8904530">
        <ele>39.9</ele>
        <time>2021-05-19T10:54:44Z</time>
      </trkpt>
      <trkpt lat="42.0829170" lon="-8.8904520">
        <ele>39.9</ele>
        <time>2021-05-19T10:54:45Z</time>
      </trkpt>
      <trkpt lat="42.0829110" lon="-8.8904500">
        <ele>39.9</ele>
        <time>2021-05-19T10:54:46Z</time>
      </trkpt>
      <trkpt lat="42.0829100" lon="-8.8904520">
        <ele>39.9</ele>
        <time>2021-05-19T10:54:47Z</time>
      </trkpt>
      <trkpt lat="42.0829130" lon="-8.8904600">
        <ele>39.9</ele>
        <time>2021-05-19T10:54:48Z</time>
      </trkpt>
      <trkpt lat="42.0829140" lon="-8.8904680">
        <ele>39.9</ele>
        <time>2021-05-19T10:54:49Z</time>
      </trkpt>
      <trkpt lat="42.0829100" lon="-8.8904700">
        <ele>40.0</ele>
        <time>2021-05-19T10:54:50Z</time>
      </trkpt>
      <trkpt lat="42.0829080" lon="-8.8904710">
        <ele>40.0</ele>
        <time>2021-05-19T10:54:51Z</time>
      </trkpt>
      <trkpt lat="42.0829050" lon="-8.8904750">
        <ele>40.0</ele>
        <time>2021-05-19T10:54:52Z</time>
      </trkpt>
      <trkpt lat="42.0829040" lon="-8.8904760">
        <ele>40.0</ele>
        <time>2021-05-19T10:54:53Z</time>
      </trkpt>
      <trkpt lat="42.0829040" lon="-8.8904760">
        <ele>40.0</ele>
        <time>2021-05-19T10:54:54Z</time>
      </trkpt>
      <trkpt lat="42.0828950" lon="-8.8904620">
        <ele>40.0</ele>
        <time>2021-05-19T10:54:55Z</time>
      </trkpt>
      <trkpt lat="42.0828950" lon="-8.8904570">
        <ele>40.0</ele>
        <time>2021-05-19T10:54:56Z</time>
      </trkpt>
      <trkpt lat="42.0828950" lon="-8.8904570">
        <ele>40.0</ele>
        <time>2021-05-19T10:54:57Z</time>
      </trkpt>
      <trkpt lat="42.0828950" lon="-8.8904570">
        <ele>40.0</ele>
        <time>2021-05-19T10:54:58Z</time>
      </trkpt>
      <trkpt lat="42.0828950" lon="-8.8904570">
        <ele>40.0</ele>
        <time>2021-05-19T10:54:59Z</time>
      </trkpt>
      <trkpt lat="42.0828950" lon="-8.8904570">
        <ele>40.0</ele>
        <time>2021-05-19T10:55:00Z</time>
      </trkpt>
      <trkpt lat="42.0828950" lon="-8.8904570">
        <ele>40.0</ele>
        <time>2021-05-19T10:55:01Z</time>
      </trkpt>
      <trkpt lat="42.0828950" lon="-8.8904570">
        <ele>40.0</ele>
        <time>2021-05-19T10:55:02Z</time>
      </trkpt>
      <trkpt lat="42.0828950" lon="-8.8904570">
        <ele>40.0</ele>
        <time>2021-05-19T10:55:03Z</time>
      </trkpt>
      <trkpt lat="42.0828950" lon="-8.8904570">
        <ele>40.0</ele>
        <time>2021-05-19T10:55:04Z</time>
      </trkpt>
      <trkpt lat="42.0829140" lon="-8.8904540">
        <ele>40.0</ele>
        <time>2021-05-19T10:55:05Z</time>
      </trkpt>
      <trkpt lat="42.0829140" lon="-8.8904540">
        <ele>40.0</ele>
        <time>2021-05-19T10:55:06Z</time>
      </trkpt>
      <trkpt lat="42.0829140" lon="-8.8904540">
        <ele>40.0</ele>
        <time>2021-05-19T10:55:07Z</time>
      </trkpt>
      <trkpt lat="42.0829170" lon="-8.8904510">
        <ele>40.0</ele>
        <time>2021-05-19T10:55:08Z</time>
      </trkpt>
      <trkpt lat="42.0829190" lon="-8.8904520">
        <ele>40.0</ele>
        <time>2021-05-19T10:55:09Z</time>
      </trkpt>
      <trkpt lat="42.0829180" lon="-8.8904570">
        <ele>40.0</ele>
        <time>2021-05-19T10:55:10Z</time>
      </trkpt>
      <trkpt lat="42.0829180" lon="-8.8904600">
        <ele>40.0</ele>
        <time>2021-05-19T10:55:11Z</time>
      </trkpt>
      <trkpt lat="42.0829150" lon="-8.8904620">
        <ele>40.0</ele>
        <time>2021-05-19T10:55:12Z</time>
      </trkpt>
      <trkpt lat="42.0829170" lon="-8.8904650">
        <ele>40.1</ele>
        <time>2021-05-19T10:55:13Z</time>
      </trkpt>
      <trkpt lat="42.0829200" lon="-8.8904630">
        <ele>40.1</ele>
        <time>2021-05-19T10:55:14Z</time>
      </trkpt>
      <trkpt lat="42.0829150" lon="-8.8904630">
        <ele>40.1</ele>
        <time>2021-05-19T10:55:15Z</time>
      </trkpt>
      <trkpt lat="42.0829090" lon="-8.8904640">
        <ele>40.1</ele>
        <time>2021-05-19T10:55:16Z</time>
      </trkpt>
      <trkpt lat="42.0829100" lon="-8.8904610">
        <ele>40.1</ele>
        <time>2021-05-19T10:55:17Z</time>
      </trkpt>
      <trkpt lat="42.0829120" lon="-8.8904570">
        <ele>40.1</ele>
        <time>2021-05-19T10:55:18Z</time>
      </trkpt>
      <trkpt lat="42.0829120" lon="-8.8904580">
        <ele>40.1</ele>
        <time>2021-05-19T10:55:19Z</time>
      </trkpt>
      <trkpt lat="42.0829120" lon="-8.8904580">
        <ele>40.1</ele>
        <time>2021-05-19T10:55:20Z</time>
      </trkpt>
      <trkpt lat="42.0829120" lon="-8.8904580">
        <ele>40.1</ele>
        <time>2021-05-19T10:55:21Z</time>
      </trkpt>
      <trkpt lat="42.0829120" lon="-8.8904580">
        <ele>40.1</ele>
        <time>2021-05-19T10:55:22Z</time>
      </trkpt>
      <trkpt lat="42.0829120" lon="-8.8904580">
        <ele>40.1</ele>
        <time>2021-05-19T10:55:23Z</time>
      </trkpt>
      <trkpt lat="42.0829120" lon="-8.8904580">
        <ele>40.1</ele>
        <time>2021-05-19T10:55:24Z</time>
      </trkpt>
      <trkpt lat="42.0829120" lon="-8.8904580">
        <ele>40.1</ele>
        <time>2021-05-19T10:55:25Z</time>
      </trkpt>
      <trkpt lat="42.0829120" lon="-8.8904580">
        <ele>40.1</ele>
        <time>2021-05-19T10:55:26Z</time>
      </trkpt>
      <trkpt lat="42.0829120" lon="-8.8904580">
        <ele>40.1</ele>
        <time>2021-05-19T10:55:27Z</time>
      </trkpt>
      <trkpt lat="42.0829120" lon="-8.8904580">
        <ele>40.1</ele>
        <time>2021-05-19T10:55:28Z</time>
      </trkpt>
      <trkpt lat="42.0829120" lon="-8.8904580">
        <ele>40.1</ele>
        <time>2021-05-19T10:55:29Z</time>
      </trkpt>
      <trkpt lat="42.0829120" lon="-8.8904580">
        <ele>40.1</ele>
        <time>2021-05-19T10:55:30Z</time>
      </trkpt>
      <trkpt lat="42.0829120" lon="-8.8904580">
        <ele>40.1</ele>
        <time>2021-05-19T10:55:31Z</time>
      </trkpt>
      <trkpt lat="42.0829120" lon="-8.8904580">
        <ele>40.1</ele>
        <time>2021-05-19T10:55:32Z</time>
      </trkpt>
      <trkpt lat="42.0829100" lon="-8.8904380">
        <ele>40.1</ele>
        <time>2021-05-19T10:55:33Z</time>
      </trkpt>
      <trkpt lat="42.0829100" lon="-8.8904380">
        <ele>40.1</ele>
        <time>2021-05-19T10:55:34Z</time>
      </trkpt>
      <trkpt lat="42.0829100" lon="-8.8904380">
        <ele>40.1</ele>
        <time>2021-05-19T10:55:35Z</time>
      </trkpt>
      <trkpt lat="42.0829120" lon="-8.8904370">
        <ele>40.1</ele>
        <time>2021-05-19T10:55:36Z</time>
      </trkpt>
      <trkpt lat="42.0829140" lon="-8.8904350">
        <ele>40.1</ele>
        <time>2021-05-19T10:55:37Z</time>
      </trkpt>
      <trkpt lat="42.0829180" lon="-8.8904360">
        <ele>40.1</ele>
        <time>2021-05-19T10:55:38Z</time>
      </trkpt>
      <trkpt lat="42.0829210" lon="-8.8904350">
        <ele>40.1</ele>
        <time>2021-05-19T10:55:39Z</time>
      </trkpt>
      <trkpt lat="42.0829200" lon="-8.8904360">
        <ele>40.1</ele>
        <time>2021-05-19T10:55:40Z</time>
      </trkpt>
      <trkpt lat="42.0829210" lon="-8.8904320">
        <ele>40.1</ele>
        <time>2021-05-19T10:55:41Z</time>
      </trkpt>
      <trkpt lat="42.0829160" lon="-8.8904460">
        <ele>40.1</ele>
        <time>2021-05-19T10:55:42Z</time>
      </trkpt>
      <trkpt lat="42.0829160" lon="-8.8904460">
        <ele>40.1</ele>
        <time>2021-05-19T10:55:43Z</time>
      </trkpt>
      <trkpt lat="42.0829160" lon="-8.8904460">
        <ele>40.1</ele>
        <time>2021-05-19T10:55:44Z</time>
      </trkpt>
      <trkpt lat="42.0829160" lon="-8.8904460">
        <ele>40.1</ele>
        <time>2021-05-19T10:55:45Z</time>
      </trkpt>
      <trkpt lat="42.0829110" lon="-8.8904490">
        <ele>40.1</ele>
        <time>2021-05-19T10:55:46Z</time>
      </trkpt>
      <trkpt lat="42.0829110" lon="-8.8904490">
        <ele>40.1</ele>
        <time>2021-05-19T10:55:47Z</time>
      </trkpt>
      <trkpt lat="42.0829110" lon="-8.8904490">
        <ele>40.1</ele>
        <time>2021-05-19T10:55:48Z</time>
      </trkpt>
      <trkpt lat="42.0829130" lon="-8.8904480">
        <ele>40.1</ele>
        <time>2021-05-19T10:55:49Z</time>
      </trkpt>
      <trkpt lat="42.0829120" lon="-8.8904480">
        <ele>40.1</ele>
        <time>2021-05-19T10:55:50Z</time>
      </trkpt>
      <trkpt lat="42.0829160" lon="-8.8904450">
        <ele>40.1</ele>
        <time>2021-05-19T10:55:51Z</time>
      </trkpt>
      <trkpt lat="42.0829180" lon="-8.8904560">
        <ele>40.1</ele>
        <time>2021-05-19T10:55:52Z</time>
      </trkpt>
      <trkpt lat="42.0829180" lon="-8.8904560">
        <ele>40.1</ele>
        <time>2021-05-19T10:55:53Z</time>
      </trkpt>
      <trkpt lat="42.0829180" lon="-8.8904560">
        <ele>40.1</ele>
        <time>2021-05-19T10:55:54Z</time>
      </trkpt>
      <trkpt lat="42.0829180" lon="-8.8904560">
        <ele>40.1</ele>
        <time>2021-05-19T10:55:55Z</time>
      </trkpt>
      <trkpt lat="42.0829180" lon="-8.8904560">
        <ele>40.1</ele>
        <time>2021-05-19T10:55:56Z</time>
      </trkpt>
      <trkpt lat="42.0829180" lon="-8.8904560">
        <ele>40.1</ele>
        <time>2021-05-19T10:55:57Z</time>
      </trkpt>
      <trkpt lat="42.0829180" lon="-8.8904560">
        <ele>40.1</ele>
        <time>2021-05-19T10:55:58Z</time>
      </trkpt>
      <trkpt lat="42.0829180" lon="-8.8904560">
        <ele>40.1</ele>
        <time>2021-05-19T10:55:59Z</time>
      </trkpt>
      <trkpt lat="42.0829230" lon="-8.8904670">
        <ele>40.1</ele>
        <time>2021-05-19T10:56:00Z</time>
      </trkpt>
      <trkpt lat="42.0829260" lon="-8.8904670">
        <ele>40.2</ele>
        <time>2021-05-19T10:56:01Z</time>
      </trkpt>
      <trkpt lat="42.0829270" lon="-8.8904670">
        <ele>40.2</ele>
        <time>2021-05-19T10:56:02Z</time>
      </trkpt>
      <trkpt lat="42.0829300" lon="-8.8904610">
        <ele>40.2</ele>
        <time>2021-05-19T10:56:03Z</time>
      </trkpt>
      <trkpt lat="42.0829300" lon="-8.8904600">
        <ele>40.2</ele>
        <time>2021-05-19T10:56:04Z</time>
      </trkpt>
      <trkpt lat="42.0829300" lon="-8.8904600">
        <ele>40.2</ele>
        <time>2021-05-19T10:56:05Z</time>
      </trkpt>
      <trkpt lat="42.0829300" lon="-8.8904600">
        <ele>40.2</ele>
        <time>2021-05-19T10:56:06Z</time>
      </trkpt>
      <trkpt lat="42.0829310" lon="-8.8904670">
        <ele>40.2</ele>
        <time>2021-05-19T10:56:07Z</time>
      </trkpt>
      <trkpt lat="42.0829310" lon="-8.8904670">
        <ele>40.2</ele>
        <time>2021-05-19T10:56:08Z</time>
      </trkpt>
      <trkpt lat="42.0829310" lon="-8.8904670">
        <ele>40.2</ele>
        <time>2021-05-19T10:56:09Z</time>
      </trkpt>
      <trkpt lat="42.0829310" lon="-8.8904670">
        <ele>40.2</ele>
        <time>2021-05-19T10:56:10Z</time>
      </trkpt>
      <trkpt lat="42.0829290" lon="-8.8904630">
        <ele>40.2</ele>
        <time>2021-05-19T10:56:11Z</time>
      </trkpt>
      <trkpt lat="42.0829270" lon="-8.8904610">
        <ele>40.2</ele>
        <time>2021-05-19T10:56:12Z</time>
      </trkpt>
      <trkpt lat="42.0829320" lon="-8.8904610">
        <ele>40.2</ele>
        <time>2021-05-19T10:56:13Z</time>
      </trkpt>
      <trkpt lat="42.0829340" lon="-8.8904710">
        <ele>40.2</ele>
        <time>2021-05-19T10:56:14Z</time>
      </trkpt>
      <trkpt lat="42.0829340" lon="-8.8904710">
        <ele>40.2</ele>
        <time>2021-05-19T10:56:15Z</time>
      </trkpt>
      <trkpt lat="42.0829320" lon="-8.8904750">
        <ele>40.2</ele>
        <time>2021-05-19T10:56:16Z</time>
      </trkpt>
      <trkpt lat="42.0829340" lon="-8.8904710">
        <ele>40.2</ele>
        <time>2021-05-19T10:56:17Z</time>
      </trkpt>
      <trkpt lat="42.0829330" lon="-8.8904730">
        <ele>40.2</ele>
        <time>2021-05-19T10:56:18Z</time>
      </trkpt>
      <trkpt lat="42.0829330" lon="-8.8904730">
        <ele>40.2</ele>
        <time>2021-05-19T10:56:19Z</time>
      </trkpt>
      <trkpt lat="42.0829330" lon="-8.8904730">
        <ele>40.2</ele>
        <time>2021-05-19T10:56:20Z</time>
      </trkpt>
      <trkpt lat="42.0829330" lon="-8.8904690">
        <ele>40.2</ele>
        <time>2021-05-19T10:56:21Z</time>
      </trkpt>
      <trkpt lat="42.0829280" lon="-8.8904810">
        <ele>40.2</ele>
        <time>2021-05-19T10:56:22Z</time>
      </trkpt>
      <trkpt lat="42.0829270" lon="-8.8904810">
        <ele>40.2</ele>
        <time>2021-05-19T10:56:23Z</time>
      </trkpt>
      <trkpt lat="42.0829270" lon="-8.8904810">
        <ele>40.2</ele>
        <time>2021-05-19T10:56:24Z</time>
      </trkpt>
      <trkpt lat="42.0829320" lon="-8.8904710">
        <ele>40.2</ele>
        <time>2021-05-19T10:56:25Z</time>
      </trkpt>
      <trkpt lat="42.0829320" lon="-8.8904610">
        <ele>40.2</ele>
        <time>2021-05-19T10:56:26Z</time>
      </trkpt>
      <trkpt lat="42.0829320" lon="-8.8904610">
        <ele>40.2</ele>
        <time>2021-05-19T10:56:27Z</time>
      </trkpt>
      <trkpt lat="42.0829320" lon="-8.8904610">
        <ele>40.2</ele>
        <time>2021-05-19T10:56:28Z</time>
      </trkpt>
      <trkpt lat="42.0829320" lon="-8.8904610">
        <ele>40.2</ele>
        <time>2021-05-19T10:56:29Z</time>
      </trkpt>
      <trkpt lat="42.0829320" lon="-8.8904610">
        <ele>40.2</ele>
        <time>2021-05-19T10:56:30Z</time>
      </trkpt>
      <trkpt lat="42.0829320" lon="-8.8904610">
        <ele>40.2</ele>
        <time>2021-05-19T10:56:31Z</time>
      </trkpt>
      <trkpt lat="42.0829320" lon="-8.8904610">
        <ele>40.2</ele>
        <time>2021-05-19T10:56:32Z</time>
      </trkpt>
      <trkpt lat="42.0829240" lon="-8.8904440">
        <ele>40.2</ele>
        <time>2021-05-19T10:56:33Z</time>
      </trkpt>
      <trkpt lat="42.0829220" lon="-8.8904430">
        <ele>40.2</ele>
        <time>2021-05-19T10:56:34Z</time>
      </trkpt>
      <trkpt lat="42.0829210" lon="-8.8904370">
        <ele>40.2</ele>
        <time>2021-05-19T10:56:35Z</time>
      </trkpt>
      <trkpt lat="42.0829190" lon="-8.8904350">
        <ele>40.2</ele>
        <time>2021-05-19T10:56:36Z</time>
      </trkpt>
      <trkpt lat="42.0829180" lon="-8.8904310">
        <ele>40.2</ele>
        <time>2021-05-19T10:56:37Z</time>
      </trkpt>
      <trkpt lat="42.0829230" lon="-8.8904240">
        <ele>40.2</ele>
        <time>2021-05-19T10:56:38Z</time>
      </trkpt>
      <trkpt lat="42.0829230" lon="-8.8904320">
        <ele>40.2</ele>
        <time>2021-05-19T10:56:39Z</time>
      </trkpt>
      <trkpt lat="42.0829230" lon="-8.8904320">
        <ele>40.2</ele>
        <time>2021-05-19T10:56:40Z</time>
      </trkpt>
      <trkpt lat="42.0829160" lon="-8.8904380">
        <ele>40.2</ele>
        <time>2021-05-19T10:56:41Z</time>
      </trkpt>
      <trkpt lat="42.0829160" lon="-8.8904470">
        <ele>40.2</ele>
        <time>2021-05-19T10:56:42Z</time>
      </trkpt>
      <trkpt lat="42.0829130" lon="-8.8904590">
        <ele>40.2</ele>
        <time>2021-05-19T10:56:43Z</time>
      </trkpt>
      <trkpt lat="42.0829130" lon="-8.8904590">
        <ele>40.2</ele>
        <time>2021-05-19T10:56:44Z</time>
      </trkpt>
      <trkpt lat="42.0829170" lon="-8.8904580">
        <ele>40.2</ele>
        <time>2021-05-19T10:56:46Z</time>
      </trkpt>
      <trkpt lat="42.0829220" lon="-8.8904490">
        <ele>40.2</ele>
        <time>2021-05-19T10:56:47Z</time>
      </trkpt>
      <trkpt lat="42.0829220" lon="-8.8904490">
        <ele>40.2</ele>
        <time>2021-05-19T10:56:48Z</time>
      </trkpt>
      <trkpt lat="42.0829160" lon="-8.8904480">
        <ele>40.2</ele>
        <time>2021-05-19T10:56:49Z</time>
      </trkpt>
      <trkpt lat="42.0829230" lon="-8.8904400">
        <ele>40.2</ele>
        <time>2021-05-19T10:56:50Z</time>
      </trkpt>
      <trkpt lat="42.0829230" lon="-8.8904400">
        <ele>40.2</ele>
        <time>2021-05-19T10:56:51Z</time>
      </trkpt>
      <trkpt lat="42.0829230" lon="-8.8904400">
        <ele>40.2</ele>
        <time>2021-05-19T10:56:52Z</time>
      </trkpt>
      <trkpt lat="42.0829230" lon="-8.8904400">
        <ele>40.2</ele>
        <time>2021-05-19T10:56:53Z</time>
      </trkpt>
      <trkpt lat="42.0829230" lon="-8.8904400">
        <ele>40.2</ele>
        <time>2021-05-19T10:56:54Z</time>
      </trkpt>
      <trkpt lat="42.0829350" lon="-8.8904360">
        <ele>40.2</ele>
        <time>2021-05-19T10:56:55Z</time>
      </trkpt>
      <trkpt lat="42.0829340" lon="-8.8904360">
        <ele>40.2</ele>
        <time>2021-05-19T10:56:56Z</time>
      </trkpt>
      <trkpt lat="42.0829240" lon="-8.8904250">
        <ele>40.2</ele>
        <time>2021-05-19T10:56:57Z</time>
      </trkpt>
      <trkpt lat="42.0829230" lon="-8.8904360">
        <ele>40.2</ele>
        <time>2021-05-19T10:56:58Z</time>
      </trkpt>
      <trkpt lat="42.0829230" lon="-8.8904370">
        <ele>40.2</ele>
        <time>2021-05-19T10:56:59Z</time>
      </trkpt>
      <trkpt lat="42.0829180" lon="-8.8904560">
        <ele>40.2</ele>
        <time>2021-05-19T10:57:00Z</time>
      </trkpt>
      <trkpt lat="42.0829250" lon="-8.8904590">
        <ele>40.2</ele>
        <time>2021-05-19T10:57:01Z</time>
      </trkpt>
      <trkpt lat="42.0829220" lon="-8.8904580">
        <ele>40.2</ele>
        <time>2021-05-19T10:57:02Z</time>
      </trkpt>
      <trkpt lat="42.0829220" lon="-8.8904580">
        <ele>40.2</ele>
        <time>2021-05-19T10:57:03Z</time>
      </trkpt>
      <trkpt lat="42.0829220" lon="-8.8904580">
        <ele>40.2</ele>
        <time>2021-05-19T10:57:04Z</time>
      </trkpt>
      <trkpt lat="42.0829220" lon="-8.8904580">
        <ele>40.2</ele>
        <time>2021-05-19T10:57:05Z</time>
      </trkpt>
      <trkpt lat="42.0829220" lon="-8.8904580">
        <ele>40.2</ele>
        <time>2021-05-19T10:57:06Z</time>
      </trkpt>
      <trkpt lat="42.0829220" lon="-8.8904580">
        <ele>40.2</ele>
        <time>2021-05-19T10:57:07Z</time>
      </trkpt>
      <trkpt lat="42.0829220" lon="-8.8904580">
        <ele>40.2</ele>
        <time>2021-05-19T10:57:08Z</time>
      </trkpt>
      <trkpt lat="42.0829220" lon="-8.8904580">
        <ele>40.2</ele>
        <time>2021-05-19T10:57:09Z</time>
      </trkpt>
      <trkpt lat="42.0829220" lon="-8.8904580">
        <ele>40.2</ele>
        <time>2021-05-19T10:57:10Z</time>
      </trkpt>
      <trkpt lat="42.0829220" lon="-8.8904580">
        <ele>40.2</ele>
        <time>2021-05-19T10:57:11Z</time>
      </trkpt>
      <trkpt lat="42.0829220" lon="-8.8904580">
        <ele>40.2</ele>
        <time>2021-05-19T10:57:12Z</time>
      </trkpt>
      <trkpt lat="42.0829220" lon="-8.8904580">
        <ele>40.2</ele>
        <time>2021-05-19T10:57:13Z</time>
      </trkpt>
      <trkpt lat="42.0829220" lon="-8.8904580">
        <ele>40.2</ele>
        <time>2021-05-19T10:57:14Z</time>
      </trkpt>
      <trkpt lat="42.0829220" lon="-8.8904580">
        <ele>40.2</ele>
        <time>2021-05-19T10:57:15Z</time>
      </trkpt>
      <trkpt lat="42.0829220" lon="-8.8904580">
        <ele>40.2</ele>
        <time>2021-05-19T10:57:16Z</time>
      </trkpt>
      <trkpt lat="42.0829220" lon="-8.8904580">
        <ele>40.2</ele>
        <time>2021-05-19T10:57:17Z</time>
      </trkpt>
      <trkpt lat="42.0829220" lon="-8.8904580">
        <ele>40.2</ele>
        <time>2021-05-19T10:57:18Z</time>
      </trkpt>
      <trkpt lat="42.0829220" lon="-8.8904580">
        <ele>40.2</ele>
        <time>2021-05-19T10:57:19Z</time>
      </trkpt>
      <trkpt lat="42.0829220" lon="-8.8904580">
        <ele>40.2</ele>
        <time>2021-05-19T10:57:20Z</time>
      </trkpt>
      <trkpt lat="42.0829220" lon="-8.8904580">
        <ele>40.2</ele>
        <time>2021-05-19T10:57:21Z</time>
      </trkpt>
      <trkpt lat="42.0829220" lon="-8.8904580">
        <ele>40.2</ele>
        <time>2021-05-19T10:57:22Z</time>
      </trkpt>
      <trkpt lat="42.0829220" lon="-8.8904580">
        <ele>40.2</ele>
        <time>2021-05-19T10:57:23Z</time>
      </trkpt>
      <trkpt lat="42.0829220" lon="-8.8904580">
        <ele>40.2</ele>
        <time>2021-05-19T10:57:24Z</time>
      </trkpt>
      <trkpt lat="42.0829220" lon="-8.8904580">
        <ele>40.2</ele>
        <time>2021-05-19T10:57:25Z</time>
      </trkpt>
      <trkpt lat="42.0829220" lon="-8.8904580">
        <ele>40.2</ele>
        <time>2021-05-19T10:57:26Z</time>
      </trkpt>
      <trkpt lat="42.0829220" lon="-8.8904580">
        <ele>40.2</ele>
        <time>2021-05-19T10:57:27Z</time>
      </trkpt>
      <trkpt lat="42.0829220" lon="-8.8904580">
        <ele>40.2</ele>
        <time>2021-05-19T10:57:28Z</time>
      </trkpt>
      <trkpt lat="42.0829220" lon="-8.8904580">
        <ele>40.2</ele>
        <time>2021-05-19T10:57:29Z</time>
      </trkpt>
      <trkpt lat="42.0829220" lon="-8.8904580">
        <ele>40.2</ele>
        <time>2021-05-19T10:57:30Z</time>
      </trkpt>
      <trkpt lat="42.0829220" lon="-8.8904580">
        <ele>40.2</ele>
        <time>2021-05-19T10:57:31Z</time>
      </trkpt>
      <trkpt lat="42.0829220" lon="-8.8904580">
        <ele>40.2</ele>
        <time>2021-05-19T10:57:32Z</time>
      </trkpt>
      <trkpt lat="42.0829220" lon="-8.8904580">
        <ele>40.2</ele>
        <time>2021-05-19T10:57:33Z</time>
      </trkpt>
      <trkpt lat="42.0829220" lon="-8.8904580">
        <ele>40.2</ele>
        <time>2021-05-19T10:57:34Z</time>
      </trkpt>
      <trkpt lat="42.0829220" lon="-8.8904580">
        <ele>40.2</ele>
        <time>2021-05-19T10:57:35Z</time>
      </trkpt>
      <trkpt lat="42.0829220" lon="-8.8904580">
        <ele>40.2</ele>
        <time>2021-05-19T10:57:36Z</time>
      </trkpt>
      <trkpt lat="42.0829220" lon="-8.8904580">
        <ele>40.2</ele>
        <time>2021-05-19T10:57:37Z</time>
      </trkpt>
      <trkpt lat="42.0829220" lon="-8.8904580">
        <ele>40.2</ele>
        <time>2021-05-19T10:57:38Z</time>
      </trkpt>
      <trkpt lat="42.0829220" lon="-8.8904580">
        <ele>40.2</ele>
        <time>2021-05-19T10:57:39Z</time>
      </trkpt>
      <trkpt lat="42.0829220" lon="-8.8904580">
        <ele>40.2</ele>
        <time>2021-05-19T10:57:40Z</time>
      </trkpt>
      <trkpt lat="42.0829220" lon="-8.8904580">
        <ele>40.2</ele>
        <time>2021-05-19T10:57:41Z</time>
      </trkpt>
      <trkpt lat="42.0829220" lon="-8.8904580">
        <ele>40.2</ele>
        <time>2021-05-19T10:57:42Z</time>
      </trkpt>
      <trkpt lat="42.0829220" lon="-8.8904580">
        <ele>40.2</ele>
        <time>2021-05-19T10:57:43Z</time>
      </trkpt>
      <trkpt lat="42.0829220" lon="-8.8904580">
        <ele>40.2</ele>
        <time>2021-05-19T10:57:44Z</time>
      </trkpt>
      <trkpt lat="42.0829220" lon="-8.8904580">
        <ele>40.2</ele>
        <time>2021-05-19T10:57:45Z</time>
      </trkpt>
      <trkpt lat="42.0829220" lon="-8.8904580">
        <ele>40.2</ele>
        <time>2021-05-19T10:57:46Z</time>
      </trkpt>
      <trkpt lat="42.0829220" lon="-8.8904580">
        <ele>40.2</ele>
        <time>2021-05-19T10:57:47Z</time>
      </trkpt>
      <trkpt lat="42.0829220" lon="-8.8904580">
        <ele>40.2</ele>
        <time>2021-05-19T10:57:48Z</time>
      </trkpt>
      <trkpt lat="42.0829220" lon="-8.8904580">
        <ele>40.2</ele>
        <time>2021-05-19T10:57:49Z</time>
      </trkpt>
      <trkpt lat="42.0829220" lon="-8.8904580">
        <ele>40.2</ele>
        <time>2021-05-19T10:57:50Z</time>
      </trkpt>
      <trkpt lat="42.0829220" lon="-8.8904580">
        <ele>40.2</ele>
        <time>2021-05-19T10:57:51Z</time>
      </trkpt>
      <trkpt lat="42.0829220" lon="-8.8904580">
        <ele>40.2</ele>
        <time>2021-05-19T10:57:52Z</time>
      </trkpt>
      <trkpt lat="42.0829220" lon="-8.8904580">
        <ele>40.2</ele>
        <time>2021-05-19T10:57:53Z</time>
      </trkpt>
      <trkpt lat="42.0829220" lon="-8.8904580">
        <ele>40.2</ele>
        <time>2021-05-19T10:57:54Z</time>
      </trkpt>
      <trkpt lat="42.0829220" lon="-8.8904580">
        <ele>40.2</ele>
        <time>2021-05-19T10:57:55Z</time>
      </trkpt>
      <trkpt lat="42.0829220" lon="-8.8904580">
        <ele>40.2</ele>
        <time>2021-05-19T10:57:56Z</time>
      </trkpt>
      <trkpt lat="42.0829220" lon="-8.8904580">
        <ele>40.2</ele>
        <time>2021-05-19T10:57:57Z</time>
      </trkpt>
      <trkpt lat="42.0829220" lon="-8.8904580">
        <ele>40.2</ele>
        <time>2021-05-19T10:57:58Z</time>
      </trkpt>
      <trkpt lat="42.0829220" lon="-8.8904580">
        <ele>40.2</ele>
        <time>2021-05-19T10:57:59Z</time>
      </trkpt>
      <trkpt lat="42.0829220" lon="-8.8904580">
        <ele>40.2</ele>
        <time>2021-05-19T10:58:00Z</time>
      </trkpt>
      <trkpt lat="42.0829220" lon="-8.8904580">
        <ele>40.2</ele>
        <time>2021-05-19T10:58:01Z</time>
      </trkpt>
      <trkpt lat="42.0829220" lon="-8.8904580">
        <ele>40.2</ele>
        <time>2021-05-19T10:58:02Z</time>
      </trkpt>
      <trkpt lat="42.0829220" lon="-8.8904580">
        <ele>40.2</ele>
        <time>2021-05-19T10:58:03Z</time>
      </trkpt>
      <trkpt lat="42.0829220" lon="-8.8904580">
        <ele>40.2</ele>
        <time>2021-05-19T10:58:04Z</time>
      </trkpt>
      <trkpt lat="42.0829220" lon="-8.8904580">
        <ele>40.2</ele>
        <time>2021-05-19T10:58:05Z</time>
      </trkpt>
      <trkpt lat="42.0829220" lon="-8.8904580">
        <ele>40.2</ele>
        <time>2021-05-19T10:58:06Z</time>
      </trkpt>
      <trkpt lat="42.0829220" lon="-8.8904580">
        <ele>40.2</ele>
        <time>2021-05-19T10:58:07Z</time>
      </trkpt>
      <trkpt lat="42.0829220" lon="-8.8904580">
        <ele>40.2</ele>
        <time>2021-05-19T10:58:08Z</time>
      </trkpt>
      <trkpt lat="42.0829220" lon="-8.8904580">
        <ele>40.2</ele>
        <time>2021-05-19T10:58:09Z</time>
      </trkpt>
      <trkpt lat="42.0829220" lon="-8.8904580">
        <ele>40.2</ele>
        <time>2021-05-19T10:58:10Z</time>
      </trkpt>
      <trkpt lat="42.0829220" lon="-8.8904580">
        <ele>40.2</ele>
        <time>2021-05-19T10:58:11Z</time>
      </trkpt>
      <trkpt lat="42.0829220" lon="-8.8904580">
        <ele>40.2</ele>
        <time>2021-05-19T10:58:12Z</time>
      </trkpt>
      <trkpt lat="42.0829220" lon="-8.8904580">
        <ele>40.2</ele>
        <time>2021-05-19T10:58:13Z</time>
      </trkpt>
      <trkpt lat="42.0829220" lon="-8.8904580">
        <ele>40.2</ele>
        <time>2021-05-19T10:58:14Z</time>
      </trkpt>
      <trkpt lat="42.0829220" lon="-8.8904580">
        <ele>40.2</ele>
        <time>2021-05-19T10:58:15Z</time>
      </trkpt>
      <trkpt lat="42.0829220" lon="-8.8904580">
        <ele>40.2</ele>
        <time>2021-05-19T10:58:16Z</time>
      </trkpt>
      <trkpt lat="42.0829220" lon="-8.8904580">
        <ele>40.2</ele>
        <time>2021-05-19T10:58:17Z</time>
      </trkpt>
      <trkpt lat="42.0829220" lon="-8.8904580">
        <ele>40.2</ele>
        <time>2021-05-19T10:58:18Z</time>
      </trkpt>
      <trkpt lat="42.0829220" lon="-8.8904580">
        <ele>40.2</ele>
        <time>2021-05-19T10:58:19Z</time>
      </trkpt>
      <trkpt lat="42.0829220" lon="-8.8904580">
        <ele>40.2</ele>
        <time>2021-05-19T10:58:20Z</time>
      </trkpt>
      <trkpt lat="42.0829220" lon="-8.8904580">
        <ele>40.2</ele>
        <time>2021-05-19T10:58:21Z</time>
      </trkpt>
      <trkpt lat="42.0829220" lon="-8.8904580">
        <ele>40.2</ele>
        <time>2021-05-19T10:58:22Z</time>
      </trkpt>
      <trkpt lat="42.0829220" lon="-8.8904580">
        <ele>40.2</ele>
        <time>2021-05-19T10:58:23Z</time>
      </trkpt>
      <trkpt lat="42.0829220" lon="-8.8904580">
        <ele>40.2</ele>
        <time>2021-05-19T10:58:24Z</time>
      </trkpt>
      <trkpt lat="42.0829220" lon="-8.8904580">
        <ele>40.2</ele>
        <time>2021-05-19T10:58:25Z</time>
      </trkpt>
      <trkpt lat="42.0829220" lon="-8.8904580">
        <ele>40.2</ele>
        <time>2021-05-19T10:58:26Z</time>
      </trkpt>
      <trkpt lat="42.0829220" lon="-8.8904580">
        <ele>40.2</ele>
        <time>2021-05-19T10:58:27Z</time>
      </trkpt>
      <trkpt lat="42.0829220" lon="-8.8904580">
        <ele>40.2</ele>
        <time>2021-05-19T10:58:28Z</time>
      </trkpt>
      <trkpt lat="42.0829220" lon="-8.8904580">
        <ele>40.2</ele>
        <time>2021-05-19T10:58:29Z</time>
      </trkpt>
      <trkpt lat="42.0829220" lon="-8.8904580">
        <ele>40.2</ele>
        <time>2021-05-19T10:58:30Z</time>
      </trkpt>
      <trkpt lat="42.0829220" lon="-8.8904580">
        <ele>40.2</ele>
        <time>2021-05-19T10:58:31Z</time>
      </trkpt>
      <trkpt lat="42.0829220" lon="-8.8904580">
        <ele>40.2</ele>
        <time>2021-05-19T10:58:32Z</time>
      </trkpt>
      <trkpt lat="42.0829220" lon="-8.8904580">
        <ele>40.2</ele>
        <time>2021-05-19T10:58:34Z</time>
      </trkpt>
      <trkpt lat="42.0829220" lon="-8.8904580">
        <ele>40.2</ele>
        <time>2021-05-19T10:58:35Z</time>
      </trkpt>
      <trkpt lat="42.0829220" lon="-8.8904580">
        <ele>40.2</ele>
        <time>2021-05-19T10:58:36Z</time>
      </trkpt>
      <trkpt lat="42.0829220" lon="-8.8904580">
        <ele>40.2</ele>
        <time>2021-05-19T10:58:37Z</time>
      </trkpt>
      <trkpt lat="42.0829220" lon="-8.8904580">
        <ele>40.2</ele>
        <time>2021-05-19T10:58:38Z</time>
      </trkpt>
      <trkpt lat="42.0829220" lon="-8.8904580">
        <ele>40.2</ele>
        <time>2021-05-19T10:58:39Z</time>
      </trkpt>
      <trkpt lat="42.0829220" lon="-8.8904580">
        <ele>40.2</ele>
        <time>2021-05-19T10:58:40Z</time>
      </trkpt>
      <trkpt lat="42.0829220" lon="-8.8904580">
        <ele>40.2</ele>
        <time>2021-05-19T10:58:41Z</time>
      </trkpt>
      <trkpt lat="42.0829220" lon="-8.8904580">
        <ele>40.2</ele>
        <time>2021-05-19T10:58:42Z</time>
      </trkpt>
      <trkpt lat="42.0829220" lon="-8.8904580">
        <ele>40.2</ele>
        <time>2021-05-19T10:58:43Z</time>
      </trkpt>
      <trkpt lat="42.0829220" lon="-8.8904580">
        <ele>40.2</ele>
        <time>2021-05-19T10:58:44Z</time>
      </trkpt>
      <trkpt lat="42.0829220" lon="-8.8904580">
        <ele>40.2</ele>
        <time>2021-05-19T10:58:45Z</time>
      </trkpt>
      <trkpt lat="42.0829220" lon="-8.8904580">
        <ele>40.2</ele>
        <time>2021-05-19T10:58:46Z</time>
      </trkpt>
      <trkpt lat="42.0829220" lon="-8.8904580">
        <ele>40.2</ele>
        <time>2021-05-19T10:58:47Z</time>
      </trkpt>
      <trkpt lat="42.0829220" lon="-8.8904580">
        <ele>40.2</ele>
        <time>2021-05-19T10:58:48Z</time>
      </trkpt>
      <trkpt lat="42.0829220" lon="-8.8904580">
        <ele>40.2</ele>
        <time>2021-05-19T10:58:49Z</time>
      </trkpt>
      <trkpt lat="42.0829220" lon="-8.8904580">
        <ele>40.2</ele>
        <time>2021-05-19T10:58:50Z</time>
      </trkpt>
      <trkpt lat="42.0829220" lon="-8.8904580">
        <ele>40.2</ele>
        <time>2021-05-19T10:58:51Z</time>
      </trkpt>
      <trkpt lat="42.0829220" lon="-8.8904580">
        <ele>40.2</ele>
        <time>2021-05-19T10:58:52Z</time>
      </trkpt>
      <trkpt lat="42.0829220" lon="-8.8904580">
        <ele>40.2</ele>
        <time>2021-05-19T10:58:53Z</time>
      </trkpt>
      <trkpt lat="42.0829220" lon="-8.8904580">
        <ele>40.2</ele>
        <time>2021-05-19T10:58:55Z</time>
      </trkpt>
      <trkpt lat="42.0829220" lon="-8.8904580">
        <ele>40.2</ele>
        <time>2021-05-19T10:58:56Z</time>
      </trkpt>
      <trkpt lat="42.0829220" lon="-8.8904580">
        <ele>40.2</ele>
        <time>2021-05-19T10:58:57Z</time>
      </trkpt>
      <trkpt lat="42.0829220" lon="-8.8904580">
        <ele>40.2</ele>
        <time>2021-05-19T10:58:58Z</time>
      </trkpt>
      <trkpt lat="42.0829220" lon="-8.8904580">
        <ele>40.2</ele>
        <time>2021-05-19T10:58:59Z</time>
      </trkpt>
      <trkpt lat="42.0829220" lon="-8.8904580">
        <ele>40.2</ele>
        <time>2021-05-19T10:59:00Z</time>
      </trkpt>
      <trkpt lat="42.0829220" lon="-8.8904580">
        <ele>40.2</ele>
        <time>2021-05-19T10:59:01Z</time>
      </trkpt>
      <trkpt lat="42.0829220" lon="-8.8904580">
        <ele>40.2</ele>
        <time>2021-05-19T10:59:02Z</time>
      </trkpt>
      <trkpt lat="42.0829220" lon="-8.8904580">
        <ele>40.2</ele>
        <time>2021-05-19T10:59:03Z</time>
      </trkpt>
      <trkpt lat="42.0829220" lon="-8.8904580">
        <ele>40.2</ele>
        <time>2021-05-19T10:59:04Z</time>
      </trkpt>
      <trkpt lat="42.0829220" lon="-8.8904580">
        <ele>40.2</ele>
        <time>2021-05-19T10:59:05Z</time>
      </trkpt>
      <trkpt lat="42.0829220" lon="-8.8904580">
        <ele>40.2</ele>
        <time>2021-05-19T10:59:06Z</time>
      </trkpt>
      <trkpt lat="42.0829220" lon="-8.8904580">
        <ele>40.2</ele>
        <time>2021-05-19T10:59:07Z</time>
      </trkpt>
      <trkpt lat="42.0829220" lon="-8.8904580">
        <ele>40.2</ele>
        <time>2021-05-19T10:59:08Z</time>
      </trkpt>
      <trkpt lat="42.0829220" lon="-8.8904580">
        <ele>40.2</ele>
        <time>2021-05-19T10:59:09Z</time>
      </trkpt>
      <trkpt lat="42.0829220" lon="-8.8904580">
        <ele>40.2</ele>
        <time>2021-05-19T10:59:10Z</time>
      </trkpt>
      <trkpt lat="42.0829220" lon="-8.8904580">
        <ele>40.2</ele>
        <time>2021-05-19T10:59:11Z</time>
      </trkpt>
      <trkpt lat="42.0829220" lon="-8.8904580">
        <ele>40.2</ele>
        <time>2021-05-19T10:59:12Z</time>
      </trkpt>
      <trkpt lat="42.0829220" lon="-8.8904580">
        <ele>40.2</ele>
        <time>2021-05-19T10:59:13Z</time>
      </trkpt>
      <trkpt lat="42.0829220" lon="-8.8904580">
        <ele>40.2</ele>
        <time>2021-05-19T10:59:14Z</time>
      </trkpt>
      <trkpt lat="42.0829220" lon="-8.8904580">
        <ele>40.2</ele>
        <time>2021-05-19T10:59:15Z</time>
      </trkpt>
      <trkpt lat="42.0829220" lon="-8.8904580">
        <ele>40.2</ele>
        <time>2021-05-19T10:59:16Z</time>
      </trkpt>
      <trkpt lat="42.0829220" lon="-8.8904580">
        <ele>40.2</ele>
        <time>2021-05-19T10:59:17Z</time>
      </trkpt>
      <trkpt lat="42.0829220" lon="-8.8904580">
        <ele>40.2</ele>
        <time>2021-05-19T10:59:18Z</time>
      </trkpt>
      <trkpt lat="42.0829220" lon="-8.8904580">
        <ele>40.2</ele>
        <time>2021-05-19T10:59:19Z</time>
      </trkpt>
      <trkpt lat="42.0829220" lon="-8.8904580">
        <ele>40.2</ele>
        <time>2021-05-19T10:59:20Z</time>
      </trkpt>
      <trkpt lat="42.0829220" lon="-8.8904580">
        <ele>40.2</ele>
        <time>2021-05-19T10:59:21Z</time>
      </trkpt>
      <trkpt lat="42.0829220" lon="-8.8904580">
        <ele>40.2</ele>
        <time>2021-05-19T10:59:22Z</time>
      </trkpt>
      <trkpt lat="42.0829220" lon="-8.8904580">
        <ele>40.2</ele>
        <time>2021-05-19T10:59:23Z</time>
      </trkpt>
      <trkpt lat="42.0829220" lon="-8.8904580">
        <ele>40.2</ele>
        <time>2021-05-19T10:59:24Z</time>
      </trkpt>
      <trkpt lat="42.0829220" lon="-8.8904580">
        <ele>40.2</ele>
        <time>2021-05-19T10:59:25Z</time>
      </trkpt>
      <trkpt lat="42.0829220" lon="-8.8904580">
        <ele>40.2</ele>
        <time>2021-05-19T10:59:26Z</time>
      </trkpt>
      <trkpt lat="42.0829220" lon="-8.8904580">
        <ele>40.2</ele>
        <time>2021-05-19T10:59:27Z</time>
      </trkpt>
      <trkpt lat="42.0829220" lon="-8.8904580">
        <ele>40.2</ele>
        <time>2021-05-19T10:59:28Z</time>
      </trkpt>
      <trkpt lat="42.0829220" lon="-8.8904580">
        <ele>40.2</ele>
        <time>2021-05-19T10:59:29Z</time>
      </trkpt>
      <trkpt lat="42.0829220" lon="-8.8904580">
        <ele>40.2</ele>
        <time>2021-05-19T10:59:30Z</time>
      </trkpt>
      <trkpt lat="42.0829220" lon="-8.8904580">
        <ele>40.2</ele>
        <time>2021-05-19T10:59:31Z</time>
      </trkpt>
      <trkpt lat="42.0829220" lon="-8.8904580">
        <ele>40.2</ele>
        <time>2021-05-19T10:59:32Z</time>
      </trkpt>
      <trkpt lat="42.0829220" lon="-8.8904580">
        <ele>40.2</ele>
        <time>2021-05-19T10:59:33Z</time>
      </trkpt>
      <trkpt lat="42.0829220" lon="-8.8904580">
        <ele>40.2</ele>
        <time>2021-05-19T10:59:34Z</time>
      </trkpt>
      <trkpt lat="42.0829220" lon="-8.8904580">
        <ele>40.2</ele>
        <time>2021-05-19T10:59:35Z</time>
      </trkpt>
      <trkpt lat="42.0829220" lon="-8.8904580">
        <ele>40.2</ele>
        <time>2021-05-19T10:59:36Z</time>
      </trkpt>
      <trkpt lat="42.0829220" lon="-8.8904580">
        <ele>40.2</ele>
        <time>2021-05-19T10:59:37Z</time>
      </trkpt>
      <trkpt lat="42.0829220" lon="-8.8904580">
        <ele>40.2</ele>
        <time>2021-05-19T10:59:38Z</time>
      </trkpt>
      <trkpt lat="42.0829220" lon="-8.8904580">
        <ele>40.2</ele>
        <time>2021-05-19T10:59:39Z</time>
      </trkpt>
      <trkpt lat="42.0829220" lon="-8.8904580">
        <ele>40.2</ele>
        <time>2021-05-19T10:59:40Z</time>
      </trkpt>
      <trkpt lat="42.0829220" lon="-8.8904580">
        <ele>40.2</ele>
        <time>2021-05-19T10:59:41Z</time>
      </trkpt>
      <trkpt lat="42.0829220" lon="-8.8904580">
        <ele>40.2</ele>
        <time>2021-05-19T10:59:42Z</time>
      </trkpt>
      <trkpt lat="42.0829220" lon="-8.8904580">
        <ele>40.2</ele>
        <time>2021-05-19T10:59:43Z</time>
      </trkpt>
      <trkpt lat="42.0829220" lon="-8.8904580">
        <ele>40.2</ele>
        <time>2021-05-19T10:59:44Z</time>
      </trkpt>
      <trkpt lat="42.0829220" lon="-8.8904580">
        <ele>40.2</ele>
        <time>2021-05-19T10:59:45Z</time>
      </trkpt>
      <trkpt lat="42.0829220" lon="-8.8904580">
        <ele>40.2</ele>
        <time>2021-05-19T10:59:46Z</time>
      </trkpt>
      <trkpt lat="42.0829220" lon="-8.8904580">
        <ele>40.2</ele>
        <time>2021-05-19T10:59:47Z</time>
      </trkpt>
      <trkpt lat="42.0829220" lon="-8.8904580">
        <ele>40.2</ele>
        <time>2021-05-19T10:59:48Z</time>
      </trkpt>
      <trkpt lat="42.0829220" lon="-8.8904580">
        <ele>40.2</ele>
        <time>2021-05-19T10:59:49Z</time>
      </trkpt>
      <trkpt lat="42.0829220" lon="-8.8904580">
        <ele>40.2</ele>
        <time>2021-05-19T10:59:50Z</time>
      </trkpt>
      <trkpt lat="42.0829220" lon="-8.8904580">
        <ele>40.2</ele>
        <time>2021-05-19T10:59:51Z</time>
      </trkpt>
      <trkpt lat="42.0829220" lon="-8.8904580">
        <ele>40.2</ele>
        <time>2021-05-19T10:59:52Z</time>
      </trkpt>
      <trkpt lat="42.0829220" lon="-8.8904580">
        <ele>40.2</ele>
        <time>2021-05-19T10:59:53Z</time>
      </trkpt>
      <trkpt lat="42.0829220" lon="-8.8904580">
        <ele>40.2</ele>
        <time>2021-05-19T10:59:54Z</time>
      </trkpt>
      <trkpt lat="42.0829220" lon="-8.8904580">
        <ele>40.2</ele>
        <time>2021-05-19T10:59:55Z</time>
      </trkpt>
      <trkpt lat="42.0829220" lon="-8.8904580">
        <ele>40.2</ele>
        <time>2021-05-19T10:59:56Z</time>
      </trkpt>
      <trkpt lat="42.0829220" lon="-8.8904580">
        <ele>40.2</ele>
        <time>2021-05-19T10:59:57Z</time>
      </trkpt>
      <trkpt lat="42.0829220" lon="-8.8904580">
        <ele>40.2</ele>
        <time>2021-05-19T10:59:58Z</time>
      </trkpt>
      <trkpt lat="42.0829220" lon="-8.8904580">
        <ele>40.2</ele>
        <time>2021-05-19T10:59:59Z</time>
      </trkpt>
      <trkpt lat="42.0829220" lon="-8.8904580">
        <ele>40.2</ele>
        <time>2021-05-19T11:00:00Z</time>
      </trkpt>
      <trkpt lat="42.0829220" lon="-8.8904580">
        <ele>40.2</ele>
        <time>2021-05-19T11:00:01Z</time>
      </trkpt>
      <trkpt lat="42.0829220" lon="-8.8904580">
        <ele>40.2</ele>
        <time>2021-05-19T11:00:02Z</time>
      </trkpt>
      <trkpt lat="42.0829220" lon="-8.8904580">
        <ele>40.2</ele>
        <time>2021-05-19T11:00:03Z</time>
      </trkpt>
      <trkpt lat="42.0829220" lon="-8.8904580">
        <ele>40.2</ele>
        <time>2021-05-19T11:00:04Z</time>
      </trkpt>
      <trkpt lat="42.0829220" lon="-8.8904580">
        <ele>40.2</ele>
        <time>2021-05-19T11:00:05Z</time>
      </trkpt>
      <trkpt lat="42.0829220" lon="-8.8904580">
        <ele>40.2</ele>
        <time>2021-05-19T11:00:06Z</time>
      </trkpt>
      <trkpt lat="42.0829220" lon="-8.8904580">
        <ele>40.2</ele>
        <time>2021-05-19T11:00:07Z</time>
      </trkpt>
      <trkpt lat="42.0829220" lon="-8.8904580">
        <ele>40.2</ele>
        <time>2021-05-19T11:00:08Z</time>
      </trkpt>
      <trkpt lat="42.0829220" lon="-8.8904580">
        <ele>40.2</ele>
        <time>2021-05-19T11:00:09Z</time>
      </trkpt>
      <trkpt lat="42.0829220" lon="-8.8904580">
        <ele>40.2</ele>
        <time>2021-05-19T11:00:10Z</time>
      </trkpt>
      <trkpt lat="42.0829220" lon="-8.8904580">
        <ele>40.2</ele>
        <time>2021-05-19T11:00:11Z</time>
      </trkpt>
      <trkpt lat="42.0829220" lon="-8.8904580">
        <ele>40.2</ele>
        <time>2021-05-19T11:00:12Z</time>
      </trkpt>
      <trkpt lat="42.0829220" lon="-8.8904580">
        <ele>40.2</ele>
        <time>2021-05-19T11:00:13Z</time>
      </trkpt>
      <trkpt lat="42.0829220" lon="-8.8904580">
        <ele>40.2</ele>
        <time>2021-05-19T11:00:14Z</time>
      </trkpt>
      <trkpt lat="42.0829220" lon="-8.8904580">
        <ele>40.2</ele>
        <time>2021-05-19T11:00:15Z</time>
      </trkpt>
      <trkpt lat="42.0829220" lon="-8.8904580">
        <ele>40.2</ele>
        <time>2021-05-19T11:00:16Z</time>
      </trkpt>
      <trkpt lat="42.0829220" lon="-8.8904580">
        <ele>40.2</ele>
        <time>2021-05-19T11:00:17Z</time>
      </trkpt>
      <trkpt lat="42.0829220" lon="-8.8904580">
        <ele>40.2</ele>
        <time>2021-05-19T11:00:18Z</time>
      </trkpt>
      <trkpt lat="42.0829220" lon="-8.8904580">
        <ele>40.2</ele>
        <time>2021-05-19T11:00:19Z</time>
      </trkpt>
      <trkpt lat="42.0829220" lon="-8.8904580">
        <ele>40.2</ele>
        <time>2021-05-19T11:00:20Z</time>
      </trkpt>
      <trkpt lat="42.0829220" lon="-8.8904580">
        <ele>40.2</ele>
        <time>2021-05-19T11:00:21Z</time>
      </trkpt>
      <trkpt lat="42.0829220" lon="-8.8904580">
        <ele>40.2</ele>
        <time>2021-05-19T11:00:22Z</time>
      </trkpt>
      <trkpt lat="42.0829220" lon="-8.8904580">
        <ele>40.2</ele>
        <time>2021-05-19T11:00:23Z</time>
      </trkpt>
      <trkpt lat="42.0829220" lon="-8.8904580">
        <ele>40.2</ele>
        <time>2021-05-19T11:00:24Z</time>
      </trkpt>
      <trkpt lat="42.0829220" lon="-8.8904580">
        <ele>40.2</ele>
        <time>2021-05-19T11:00:25Z</time>
      </trkpt>
      <trkpt lat="42.0829220" lon="-8.8904580">
        <ele>40.2</ele>
        <time>2021-05-19T11:00:26Z</time>
      </trkpt>
      <trkpt lat="42.0829220" lon="-8.8904580">
        <ele>40.2</ele>
        <time>2021-05-19T11:00:27Z</time>
      </trkpt>
      <trkpt lat="42.0829220" lon="-8.8904580">
        <ele>40.2</ele>
        <time>2021-05-19T11:00:28Z</time>
      </trkpt>
      <trkpt lat="42.0829220" lon="-8.8904580">
        <ele>40.2</ele>
        <time>2021-05-19T11:00:29Z</time>
      </trkpt>
      <trkpt lat="42.0829220" lon="-8.8904580">
        <ele>40.2</ele>
        <time>2021-05-19T11:00:30Z</time>
      </trkpt>
      <trkpt lat="42.0829220" lon="-8.8904580">
        <ele>40.2</ele>
        <time>2021-05-19T11:00:31Z</time>
      </trkpt>
      <trkpt lat="42.0829220" lon="-8.8904580">
        <ele>40.2</ele>
        <time>2021-05-19T11:00:32Z</time>
      </trkpt>
      <trkpt lat="42.0829220" lon="-8.8904580">
        <ele>40.2</ele>
        <time>2021-05-19T11:00:33Z</time>
      </trkpt>
      <trkpt lat="42.0829220" lon="-8.8904580">
        <ele>40.2</ele>
        <time>2021-05-19T11:00:34Z</time>
      </trkpt>
      <trkpt lat="42.0829220" lon="-8.8904580">
        <ele>40.2</ele>
        <time>2021-05-19T11:00:35Z</time>
      </trkpt>
      <trkpt lat="42.0829220" lon="-8.8904580">
        <ele>40.2</ele>
        <time>2021-05-19T11:00:36Z</time>
      </trkpt>
      <trkpt lat="42.0829220" lon="-8.8904580">
        <ele>40.2</ele>
        <time>2021-05-19T11:00:37Z</time>
      </trkpt>
      <trkpt lat="42.0829220" lon="-8.8904580">
        <ele>40.2</ele>
        <time>2021-05-19T11:00:38Z</time>
      </trkpt>
      <trkpt lat="42.0829220" lon="-8.8904580">
        <ele>40.2</ele>
        <time>2021-05-19T11:00:39Z</time>
      </trkpt>
      <trkpt lat="42.0829220" lon="-8.8904580">
        <ele>40.2</ele>
        <time>2021-05-19T11:00:40Z</time>
      </trkpt>
      <trkpt lat="42.0829220" lon="-8.8904580">
        <ele>40.2</ele>
        <time>2021-05-19T11:00:41Z</time>
      </trkpt>
      <trkpt lat="42.0829220" lon="-8.8904580">
        <ele>40.2</ele>
        <time>2021-05-19T11:00:42Z</time>
      </trkpt>
      <trkpt lat="42.0829220" lon="-8.8904580">
        <ele>40.2</ele>
        <time>2021-05-19T11:00:43Z</time>
      </trkpt>
      <trkpt lat="42.0829220" lon="-8.8904580">
        <ele>40.2</ele>
        <time>2021-05-19T11:00:44Z</time>
      </trkpt>
      <trkpt lat="42.0829220" lon="-8.8904580">
        <ele>40.2</ele>
        <time>2021-05-19T11:00:45Z</time>
      </trkpt>
      <trkpt lat="42.0829220" lon="-8.8904580">
        <ele>40.2</ele>
        <time>2021-05-19T11:00:46Z</time>
      </trkpt>
      <trkpt lat="42.0829220" lon="-8.8904580">
        <ele>40.2</ele>
        <time>2021-05-19T11:00:47Z</time>
      </trkpt>
      <trkpt lat="42.0829220" lon="-8.8904580">
        <ele>40.2</ele>
        <time>2021-05-19T11:00:48Z</time>
      </trkpt>
      <trkpt lat="42.0829220" lon="-8.8904580">
        <ele>40.2</ele>
        <time>2021-05-19T11:00:49Z</time>
      </trkpt>
      <trkpt lat="42.0829220" lon="-8.8904580">
        <ele>40.2</ele>
        <time>2021-05-19T11:00:50Z</time>
      </trkpt>
      <trkpt lat="42.0829220" lon="-8.8904580">
        <ele>40.2</ele>
        <time>2021-05-19T11:00:51Z</time>
      </trkpt>
      <trkpt lat="42.0829220" lon="-8.8904580">
        <ele>40.2</ele>
        <time>2021-05-19T11:00:52Z</time>
      </trkpt>
      <trkpt lat="42.0829220" lon="-8.8904580">
        <ele>40.2</ele>
        <time>2021-05-19T11:00:53Z</time>
      </trkpt>
      <trkpt lat="42.0829220" lon="-8.8904580">
        <ele>40.2</ele>
        <time>2021-05-19T11:00:54Z</time>
      </trkpt>
      <trkpt lat="42.0829220" lon="-8.8904580">
        <ele>40.2</ele>
        <time>2021-05-19T11:00:55Z</time>
      </trkpt>
      <trkpt lat="42.0829220" lon="-8.8904580">
        <ele>40.2</ele>
        <time>2021-05-19T11:00:56Z</time>
      </trkpt>
      <trkpt lat="42.0829220" lon="-8.8904580">
        <ele>40.2</ele>
        <time>2021-05-19T11:00:57Z</time>
      </trkpt>
      <trkpt lat="42.0829220" lon="-8.8904580">
        <ele>40.2</ele>
        <time>2021-05-19T11:00:58Z</time>
      </trkpt>
      <trkpt lat="42.0829220" lon="-8.8904580">
        <ele>40.2</ele>
        <time>2021-05-19T11:00:59Z</time>
      </trkpt>
      <trkpt lat="42.0829220" lon="-8.8904580">
        <ele>40.2</ele>
        <time>2021-05-19T11:01:00Z</time>
      </trkpt>
      <trkpt lat="42.0829220" lon="-8.8904580">
        <ele>40.2</ele>
        <time>2021-05-19T11:01:01Z</time>
      </trkpt>
      <trkpt lat="42.0829220" lon="-8.8904580">
        <ele>40.2</ele>
        <time>2021-05-19T11:01:02Z</time>
      </trkpt>
      <trkpt lat="42.0829220" lon="-8.8904580">
        <ele>40.2</ele>
        <time>2021-05-19T11:01:03Z</time>
      </trkpt>
      <trkpt lat="42.0829220" lon="-8.8904580">
        <ele>40.2</ele>
        <time>2021-05-19T11:01:04Z</time>
      </trkpt>
      <trkpt lat="42.0829220" lon="-8.8904580">
        <ele>40.2</ele>
        <time>2021-05-19T11:01:05Z</time>
      </trkpt>
      <trkpt lat="42.0829220" lon="-8.8904580">
        <ele>40.2</ele>
        <time>2021-05-19T11:01:06Z</time>
      </trkpt>
      <trkpt lat="42.0829220" lon="-8.8904580">
        <ele>40.2</ele>
        <time>2021-05-19T11:01:07Z</time>
      </trkpt>
      <trkpt lat="42.0829220" lon="-8.8904580">
        <ele>40.2</ele>
        <time>2021-05-19T11:01:08Z</time>
      </trkpt>
      <trkpt lat="42.0829220" lon="-8.8904580">
        <ele>40.2</ele>
        <time>2021-05-19T11:01:09Z</time>
      </trkpt>
      <trkpt lat="42.0829220" lon="-8.8904580">
        <ele>40.2</ele>
        <time>2021-05-19T11:01:10Z</time>
      </trkpt>
      <trkpt lat="42.0829220" lon="-8.8904580">
        <ele>40.2</ele>
        <time>2021-05-19T11:01:11Z</time>
      </trkpt>
      <trkpt lat="42.0829220" lon="-8.8904580">
        <ele>40.2</ele>
        <time>2021-05-19T11:01:12Z</time>
      </trkpt>
      <trkpt lat="42.0829220" lon="-8.8904580">
        <ele>40.2</ele>
        <time>2021-05-19T11:01:13Z</time>
      </trkpt>
      <trkpt lat="42.0829220" lon="-8.8904580">
        <ele>40.2</ele>
        <time>2021-05-19T11:01:14Z</time>
      </trkpt>
      <trkpt lat="42.0829220" lon="-8.8904580">
        <ele>40.2</ele>
        <time>2021-05-19T11:01:15Z</time>
      </trkpt>
      <trkpt lat="42.0829220" lon="-8.8904580">
        <ele>40.2</ele>
        <time>2021-05-19T11:01:16Z</time>
      </trkpt>
      <trkpt lat="42.0829220" lon="-8.8904580">
        <ele>40.2</ele>
        <time>2021-05-19T11:01:17Z</time>
      </trkpt>
      <trkpt lat="42.0829220" lon="-8.8904580">
        <ele>40.2</ele>
        <time>2021-05-19T11:01:18Z</time>
      </trkpt>
      <trkpt lat="42.0829220" lon="-8.8904580">
        <ele>40.2</ele>
        <time>2021-05-19T11:01:19Z</time>
      </trkpt>
      <trkpt lat="42.0829220" lon="-8.8904580">
        <ele>40.2</ele>
        <time>2021-05-19T11:01:20Z</time>
      </trkpt>
      <trkpt lat="42.0829220" lon="-8.8904580">
        <ele>40.2</ele>
        <time>2021-05-19T11:01:21Z</time>
      </trkpt>
      <trkpt lat="42.0829220" lon="-8.8904580">
        <ele>40.2</ele>
        <time>2021-05-19T11:01:22Z</time>
      </trkpt>
      <trkpt lat="42.0829220" lon="-8.8904580">
        <ele>40.2</ele>
        <time>2021-05-19T11:01:23Z</time>
      </trkpt>
      <trkpt lat="42.0829220" lon="-8.8904580">
        <ele>40.2</ele>
        <time>2021-05-19T11:01:24Z</time>
      </trkpt>
      <trkpt lat="42.0829220" lon="-8.8904580">
        <ele>40.2</ele>
        <time>2021-05-19T11:01:25Z</time>
      </trkpt>
      <trkpt lat="42.0829220" lon="-8.8904580">
        <ele>40.2</ele>
        <time>2021-05-19T11:01:26Z</time>
      </trkpt>
      <trkpt lat="42.0829220" lon="-8.8904580">
        <ele>40.2</ele>
        <time>2021-05-19T11:01:27Z</time>
      </trkpt>
      <trkpt lat="42.0829220" lon="-8.8904580">
        <ele>40.2</ele>
        <time>2021-05-19T11:01:28Z</time>
      </trkpt>
      <trkpt lat="42.0829220" lon="-8.8904580">
        <ele>40.2</ele>
        <time>2021-05-19T11:01:29Z</time>
      </trkpt>
      <trkpt lat="42.0829220" lon="-8.8904580">
        <ele>40.2</ele>
        <time>2021-05-19T11:01:30Z</time>
      </trkpt>
      <trkpt lat="42.0829220" lon="-8.8904580">
        <ele>40.2</ele>
        <time>2021-05-19T11:01:31Z</time>
      </trkpt>
      <trkpt lat="42.0829220" lon="-8.8904580">
        <ele>40.2</ele>
        <time>2021-05-19T11:01:32Z</time>
      </trkpt>
      <trkpt lat="42.0829220" lon="-8.8904580">
        <ele>40.2</ele>
        <time>2021-05-19T11:01:33Z</time>
      </trkpt>
      <trkpt lat="42.0829220" lon="-8.8904580">
        <ele>40.2</ele>
        <time>2021-05-19T11:01:34Z</time>
      </trkpt>
      <trkpt lat="42.0829220" lon="-8.8904580">
        <ele>40.2</ele>
        <time>2021-05-19T11:01:35Z</time>
      </trkpt>
      <trkpt lat="42.0829220" lon="-8.8904580">
        <ele>40.2</ele>
        <time>2021-05-19T11:01:36Z</time>
      </trkpt>
      <trkpt lat="42.0829220" lon="-8.8904580">
        <ele>40.2</ele>
        <time>2021-05-19T11:01:37Z</time>
      </trkpt>
      <trkpt lat="42.0829220" lon="-8.8904580">
        <ele>40.2</ele>
        <time>2021-05-19T11:01:38Z</time>
      </trkpt>
      <trkpt lat="42.0829220" lon="-8.8904580">
        <ele>40.2</ele>
        <time>2021-05-19T11:01:39Z</time>
      </trkpt>
      <trkpt lat="42.0829220" lon="-8.8904580">
        <ele>40.2</ele>
        <time>2021-05-19T11:01:40Z</time>
      </trkpt>
      <trkpt lat="42.0829220" lon="-8.8904580">
        <ele>40.2</ele>
        <time>2021-05-19T11:01:41Z</time>
      </trkpt>
      <trkpt lat="42.0829220" lon="-8.8904580">
        <ele>40.2</ele>
        <time>2021-05-19T11:01:42Z</time>
      </trkpt>
      <trkpt lat="42.0829220" lon="-8.8904580">
        <ele>40.2</ele>
        <time>2021-05-19T11:01:43Z</time>
      </trkpt>
      <trkpt lat="42.0829220" lon="-8.8904580">
        <ele>40.2</ele>
        <time>2021-05-19T11:01:44Z</time>
      </trkpt>
      <trkpt lat="42.0829220" lon="-8.8904580">
        <ele>40.2</ele>
        <time>2021-05-19T11:01:45Z</time>
      </trkpt>
      <trkpt lat="42.0829220" lon="-8.8904580">
        <ele>40.2</ele>
        <time>2021-05-19T11:01:46Z</time>
      </trkpt>
      <trkpt lat="42.0829220" lon="-8.8904580">
        <ele>40.2</ele>
        <time>2021-05-19T11:01:47Z</time>
      </trkpt>
      <trkpt lat="42.0829220" lon="-8.8904580">
        <ele>40.2</ele>
        <time>2021-05-19T11:01:48Z</time>
      </trkpt>
      <trkpt lat="42.0829220" lon="-8.8904580">
        <ele>40.2</ele>
        <time>2021-05-19T11:01:49Z</time>
      </trkpt>
      <trkpt lat="42.0829220" lon="-8.8904580">
        <ele>40.2</ele>
        <time>2021-05-19T11:01:50Z</time>
      </trkpt>
      <trkpt lat="42.0829220" lon="-8.8904580">
        <ele>40.2</ele>
        <time>2021-05-19T11:01:51Z</time>
      </trkpt>
      <trkpt lat="42.0829220" lon="-8.8904580">
        <ele>40.2</ele>
        <time>2021-05-19T11:01:52Z</time>
      </trkpt>
      <trkpt lat="42.0829220" lon="-8.8904580">
        <ele>40.2</ele>
        <time>2021-05-19T11:01:53Z</time>
      </trkpt>
      <trkpt lat="42.0829220" lon="-8.8904580">
        <ele>40.2</ele>
        <time>2021-05-19T11:01:54Z</time>
      </trkpt>
      <trkpt lat="42.0829220" lon="-8.8904580">
        <ele>40.2</ele>
        <time>2021-05-19T11:01:55Z</time>
      </trkpt>
      <trkpt lat="42.0829220" lon="-8.8904580">
        <ele>40.2</ele>
        <time>2021-05-19T11:01:56Z</time>
      </trkpt>
      <trkpt lat="42.0829220" lon="-8.8904580">
        <ele>40.2</ele>
        <time>2021-05-19T11:01:57Z</time>
      </trkpt>
      <trkpt lat="42.0829220" lon="-8.8904580">
        <ele>40.2</ele>
        <time>2021-05-19T11:01:58Z</time>
      </trkpt>
      <trkpt lat="42.0829220" lon="-8.8904580">
        <ele>40.2</ele>
        <time>2021-05-19T11:01:59Z</time>
      </trkpt>
      <trkpt lat="42.0829220" lon="-8.8904580">
        <ele>40.2</ele>
        <time>2021-05-19T11:02:00Z</time>
      </trkpt>
      <trkpt lat="42.0829220" lon="-8.8904580">
        <ele>40.2</ele>
        <time>2021-05-19T11:02:01Z</time>
      </trkpt>
      <trkpt lat="42.0829220" lon="-8.8904580">
        <ele>40.2</ele>
        <time>2021-05-19T11:02:02Z</time>
      </trkpt>
      <trkpt lat="42.0829220" lon="-8.8904580">
        <ele>40.2</ele>
        <time>2021-05-19T11:02:03Z</time>
      </trkpt>
      <trkpt lat="42.0829220" lon="-8.8904580">
        <ele>40.2</ele>
        <time>2021-05-19T11:02:04Z</time>
      </trkpt>
      <trkpt lat="42.0829220" lon="-8.8904580">
        <ele>40.2</ele>
        <time>2021-05-19T11:02:05Z</time>
      </trkpt>
      <trkpt lat="42.0829220" lon="-8.8904580">
        <ele>40.2</ele>
        <time>2021-05-19T11:02:06Z</time>
      </trkpt>
      <trkpt lat="42.0829220" lon="-8.8904580">
        <ele>40.2</ele>
        <time>2021-05-19T11:02:07Z</time>
      </trkpt>
      <trkpt lat="42.0829220" lon="-8.8904580">
        <ele>40.2</ele>
        <time>2021-05-19T11:02:08Z</time>
      </trkpt>
      <trkpt lat="42.0829220" lon="-8.8904580">
        <ele>40.2</ele>
        <time>2021-05-19T11:02:09Z</time>
      </trkpt>
      <trkpt lat="42.0829220" lon="-8.8904580">
        <ele>40.2</ele>
        <time>2021-05-19T11:02:10Z</time>
      </trkpt>
      <trkpt lat="42.0829220" lon="-8.8904580">
        <ele>40.2</ele>
        <time>2021-05-19T11:02:11Z</time>
      </trkpt>
      <trkpt lat="42.0829220" lon="-8.8904580">
        <ele>40.2</ele>
        <time>2021-05-19T11:02:12Z</time>
      </trkpt>
      <trkpt lat="42.0829220" lon="-8.8904580">
        <ele>40.2</ele>
        <time>2021-05-19T11:02:13Z</time>
      </trkpt>
      <trkpt lat="42.0829220" lon="-8.8904580">
        <ele>40.2</ele>
        <time>2021-05-19T11:02:14Z</time>
      </trkpt>
      <trkpt lat="42.0829220" lon="-8.8904580">
        <ele>40.2</ele>
        <time>2021-05-19T11:02:15Z</time>
      </trkpt>
      <trkpt lat="42.0829220" lon="-8.8904580">
        <ele>40.2</ele>
        <time>2021-05-19T11:02:16Z</time>
      </trkpt>
      <trkpt lat="42.0829220" lon="-8.8904580">
        <ele>40.2</ele>
        <time>2021-05-19T11:02:17Z</time>
      </trkpt>
      <trkpt lat="42.0829220" lon="-8.8904580">
        <ele>40.2</ele>
        <time>2021-05-19T11:02:18Z</time>
      </trkpt>
      <trkpt lat="42.0829220" lon="-8.8904580">
        <ele>40.2</ele>
        <time>2021-05-19T11:02:19Z</time>
      </trkpt>
      <trkpt lat="42.0829220" lon="-8.8904580">
        <ele>40.2</ele>
        <time>2021-05-19T11:02:20Z</time>
      </trkpt>
      <trkpt lat="42.0829220" lon="-8.8904580">
        <ele>40.2</ele>
        <time>2021-05-19T11:02:21Z</time>
      </trkpt>
      <trkpt lat="42.0829220" lon="-8.8904580">
        <ele>40.2</ele>
        <time>2021-05-19T11:02:22Z</time>
      </trkpt>
      <trkpt lat="42.0829220" lon="-8.8904580">
        <ele>40.2</ele>
        <time>2021-05-19T11:02:23Z</time>
      </trkpt>
      <trkpt lat="42.0829220" lon="-8.8904580">
        <ele>40.2</ele>
        <time>2021-05-19T11:02:24Z</time>
      </trkpt>
      <trkpt lat="42.0829220" lon="-8.8904580">
        <ele>40.2</ele>
        <time>2021-05-19T11:02:25Z</time>
      </trkpt>
      <trkpt lat="42.0829220" lon="-8.8904580">
        <ele>40.2</ele>
        <time>2021-05-19T11:02:26Z</time>
      </trkpt>
      <trkpt lat="42.0829220" lon="-8.8904580">
        <ele>40.2</ele>
        <time>2021-05-19T11:02:27Z</time>
      </trkpt>
      <trkpt lat="42.0829220" lon="-8.8904580">
        <ele>40.2</ele>
        <time>2021-05-19T11:02:28Z</time>
      </trkpt>
      <trkpt lat="42.0829220" lon="-8.8904580">
        <ele>40.2</ele>
        <time>2021-05-19T11:02:29Z</time>
      </trkpt>
      <trkpt lat="42.0829220" lon="-8.8904580">
        <ele>40.2</ele>
        <time>2021-05-19T11:02:30Z</time>
      </trkpt>
      <trkpt lat="42.0829220" lon="-8.8904580">
        <ele>40.2</ele>
        <time>2021-05-19T11:02:31Z</time>
      </trkpt>
      <trkpt lat="42.0829220" lon="-8.8904580">
        <ele>40.2</ele>
        <time>2021-05-19T11:02:32Z</time>
      </trkpt>
      <trkpt lat="42.0829220" lon="-8.8904580">
        <ele>40.2</ele>
        <time>2021-05-19T11:02:33Z</time>
      </trkpt>
      <trkpt lat="42.0829220" lon="-8.8904580">
        <ele>40.2</ele>
        <time>2021-05-19T11:02:34Z</time>
      </trkpt>
      <trkpt lat="42.0829220" lon="-8.8904580">
        <ele>40.2</ele>
        <time>2021-05-19T11:02:35Z</time>
      </trkpt>
      <trkpt lat="42.0829220" lon="-8.8904580">
        <ele>40.2</ele>
        <time>2021-05-19T11:02:36Z</time>
      </trkpt>
      <trkpt lat="42.0829220" lon="-8.8904580">
        <ele>40.2</ele>
        <time>2021-05-19T11:02:37Z</time>
      </trkpt>
      <trkpt lat="42.0829220" lon="-8.8904580">
        <ele>40.2</ele>
        <time>2021-05-19T11:02:38Z</time>
      </trkpt>
      <trkpt lat="42.0829220" lon="-8.8904580">
        <ele>40.2</ele>
        <time>2021-05-19T11:02:39Z</time>
      </trkpt>
      <trkpt lat="42.0829220" lon="-8.8904580">
        <ele>40.2</ele>
        <time>2021-05-19T11:02:40Z</time>
      </trkpt>
      <trkpt lat="42.0829220" lon="-8.8904580">
        <ele>40.2</ele>
        <time>2021-05-19T11:02:41Z</time>
      </trkpt>
      <trkpt lat="42.0829220" lon="-8.8904580">
        <ele>40.2</ele>
        <time>2021-05-19T11:02:42Z</time>
      </trkpt>
      <trkpt lat="42.0829220" lon="-8.8904580">
        <ele>40.2</ele>
        <time>2021-05-19T11:02:43Z</time>
      </trkpt>
      <trkpt lat="42.0829220" lon="-8.8904580">
        <ele>40.2</ele>
        <time>2021-05-19T11:02:44Z</time>
      </trkpt>
      <trkpt lat="42.0829220" lon="-8.8904580">
        <ele>40.2</ele>
        <time>2021-05-19T11:02:45Z</time>
      </trkpt>
      <trkpt lat="42.0829220" lon="-8.8904580">
        <ele>40.2</ele>
        <time>2021-05-19T11:02:46Z</time>
      </trkpt>
      <trkpt lat="42.0829220" lon="-8.8904580">
        <ele>40.2</ele>
        <time>2021-05-19T11:02:47Z</time>
      </trkpt>
      <trkpt lat="42.0829220" lon="-8.8904580">
        <ele>40.2</ele>
        <time>2021-05-19T11:02:48Z</time>
      </trkpt>
      <trkpt lat="42.0829220" lon="-8.8904580">
        <ele>40.2</ele>
        <time>2021-05-19T11:02:49Z</time>
      </trkpt>
      <trkpt lat="42.0829220" lon="-8.8904580">
        <ele>40.2</ele>
        <time>2021-05-19T11:02:50Z</time>
      </trkpt>
      <trkpt lat="42.0829220" lon="-8.8904580">
        <ele>40.2</ele>
        <time>2021-05-19T11:02:51Z</time>
      </trkpt>
      <trkpt lat="42.0829220" lon="-8.8904580">
        <ele>40.2</ele>
        <time>2021-05-19T11:02:52Z</time>
      </trkpt>
      <trkpt lat="42.0829220" lon="-8.8904580">
        <ele>40.2</ele>
        <time>2021-05-19T11:02:53Z</time>
      </trkpt>
      <trkpt lat="42.0829220" lon="-8.8904580">
        <ele>40.2</ele>
        <time>2021-05-19T11:02:54Z</time>
      </trkpt>
      <trkpt lat="42.0829220" lon="-8.8904580">
        <ele>40.2</ele>
        <time>2021-05-19T11:02:55Z</time>
      </trkpt>
      <trkpt lat="42.0829220" lon="-8.8904580">
        <ele>40.2</ele>
        <time>2021-05-19T11:02:56Z</time>
      </trkpt>
      <trkpt lat="42.0829220" lon="-8.8904580">
        <ele>40.2</ele>
        <time>2021-05-19T11:02:57Z</time>
      </trkpt>
      <trkpt lat="42.0829220" lon="-8.8904580">
        <ele>40.2</ele>
        <time>2021-05-19T11:02:58Z</time>
      </trkpt>
      <trkpt lat="42.0829220" lon="-8.8904580">
        <ele>40.2</ele>
        <time>2021-05-19T11:02:59Z</time>
      </trkpt>
      <trkpt lat="42.0829220" lon="-8.8904580">
        <ele>40.2</ele>
        <time>2021-05-19T11:03:00Z</time>
      </trkpt>
      <trkpt lat="42.0829220" lon="-8.8904580">
        <ele>40.2</ele>
        <time>2021-05-19T11:03:01Z</time>
      </trkpt>
      <trkpt lat="42.0829220" lon="-8.8904580">
        <ele>40.2</ele>
        <time>2021-05-19T11:03:02Z</time>
      </trkpt>
      <trkpt lat="42.0829220" lon="-8.8904580">
        <ele>40.2</ele>
        <time>2021-05-19T11:03:03Z</time>
      </trkpt>
      <trkpt lat="42.0829220" lon="-8.8904580">
        <ele>40.2</ele>
        <time>2021-05-19T11:03:04Z</time>
      </trkpt>
      <trkpt lat="42.0829220" lon="-8.8904580">
        <ele>40.2</ele>
        <time>2021-05-19T11:03:05Z</time>
      </trkpt>
      <trkpt lat="42.0829220" lon="-8.8904580">
        <ele>40.2</ele>
        <time>2021-05-19T11:03:06Z</time>
      </trkpt>
      <trkpt lat="42.0829220" lon="-8.8904580">
        <ele>40.2</ele>
        <time>2021-05-19T11:03:07Z</time>
      </trkpt>
      <trkpt lat="42.0829220" lon="-8.8904580">
        <ele>40.2</ele>
        <time>2021-05-19T11:03:08Z</time>
      </trkpt>
      <trkpt lat="42.0829220" lon="-8.8904580">
        <ele>40.2</ele>
        <time>2021-05-19T11:03:09Z</time>
      </trkpt>
      <trkpt lat="42.0829220" lon="-8.8904580">
        <ele>40.2</ele>
        <time>2021-05-19T11:03:10Z</time>
      </trkpt>
      <trkpt lat="42.0829220" lon="-8.8904580">
        <ele>40.2</ele>
        <time>2021-05-19T11:03:11Z</time>
      </trkpt>
      <trkpt lat="42.0829220" lon="-8.8904580">
        <ele>40.2</ele>
        <time>2021-05-19T11:03:12Z</time>
      </trkpt>
      <trkpt lat="42.0829220" lon="-8.8904580">
        <ele>40.2</ele>
        <time>2021-05-19T11:03:13Z</time>
      </trkpt>
      <trkpt lat="42.0829220" lon="-8.8904580">
        <ele>40.2</ele>
        <time>2021-05-19T11:03:14Z</time>
      </trkpt>
      <trkpt lat="42.0829220" lon="-8.8904580">
        <ele>40.2</ele>
        <time>2021-05-19T11:03:15Z</time>
      </trkpt>
      <trkpt lat="42.0829220" lon="-8.8904580">
        <ele>40.2</ele>
        <time>2021-05-19T11:03:16Z</time>
      </trkpt>
      <trkpt lat="42.0829220" lon="-8.8904580">
        <ele>40.2</ele>
        <time>2021-05-19T11:03:17Z</time>
      </trkpt>
      <trkpt lat="42.0829220" lon="-8.8904580">
        <ele>40.2</ele>
        <time>2021-05-19T11:03:18Z</time>
      </trkpt>
      <trkpt lat="42.0829220" lon="-8.8904580">
        <ele>40.2</ele>
        <time>2021-05-19T11:03:19Z</time>
      </trkpt>
      <trkpt lat="42.0829220" lon="-8.8904580">
        <ele>40.2</ele>
        <time>2021-05-19T11:03:20Z</time>
      </trkpt>
      <trkpt lat="42.0829220" lon="-8.8904580">
        <ele>40.2</ele>
        <time>2021-05-19T11:03:21Z</time>
      </trkpt>
      <trkpt lat="42.0829220" lon="-8.8904580">
        <ele>40.2</ele>
        <time>2021-05-19T11:03:22Z</time>
      </trkpt>
      <trkpt lat="42.0829220" lon="-8.8904580">
        <ele>40.2</ele>
        <time>2021-05-19T11:03:23Z</time>
      </trkpt>
      <trkpt lat="42.0829220" lon="-8.8904580">
        <ele>40.2</ele>
        <time>2021-05-19T11:03:24Z</time>
      </trkpt>
      <trkpt lat="42.0829220" lon="-8.8904580">
        <ele>40.2</ele>
        <time>2021-05-19T11:03:25Z</time>
      </trkpt>
      <trkpt lat="42.0829220" lon="-8.8904580">
        <ele>40.2</ele>
        <time>2021-05-19T11:03:26Z</time>
      </trkpt>
      <trkpt lat="42.0829220" lon="-8.8904580">
        <ele>40.2</ele>
        <time>2021-05-19T11:03:27Z</time>
      </trkpt>
      <trkpt lat="42.0829220" lon="-8.8904580">
        <ele>40.2</ele>
        <time>2021-05-19T11:03:28Z</time>
      </trkpt>
      <trkpt lat="42.0829220" lon="-8.8904580">
        <ele>40.2</ele>
        <time>2021-05-19T11:03:29Z</time>
      </trkpt>
      <trkpt lat="42.0829220" lon="-8.8904580">
        <ele>40.2</ele>
        <time>2021-05-19T11:03:30Z</time>
      </trkpt>
      <trkpt lat="42.0829220" lon="-8.8904580">
        <ele>40.2</ele>
        <time>2021-05-19T11:03:31Z</time>
      </trkpt>
      <trkpt lat="42.0829220" lon="-8.8904580">
        <ele>40.2</ele>
        <time>2021-05-19T11:03:32Z</time>
      </trkpt>
      <trkpt lat="42.0829220" lon="-8.8904580">
        <ele>40.2</ele>
        <time>2021-05-19T11:03:33Z</time>
      </trkpt>
      <trkpt lat="42.0829220" lon="-8.8904580">
        <ele>40.2</ele>
        <time>2021-05-19T11:03:34Z</time>
      </trkpt>
      <trkpt lat="42.0829220" lon="-8.8904580">
        <ele>40.2</ele>
        <time>2021-05-19T11:03:35Z</time>
      </trkpt>
      <trkpt lat="42.0829220" lon="-8.8904580">
        <ele>40.2</ele>
        <time>2021-05-19T11:03:36Z</time>
      </trkpt>
      <trkpt lat="42.0829220" lon="-8.8904580">
        <ele>40.2</ele>
        <time>2021-05-19T11:03:37Z</time>
      </trkpt>
      <trkpt lat="42.0829220" lon="-8.8904580">
        <ele>40.2</ele>
        <time>2021-05-19T11:03:38Z</time>
      </trkpt>
      <trkpt lat="42.0829220" lon="-8.8904580">
        <ele>40.2</ele>
        <time>2021-05-19T11:03:39Z</time>
      </trkpt>
      <trkpt lat="42.0829220" lon="-8.8904580">
        <ele>40.2</ele>
        <time>2021-05-19T11:03:40Z</time>
      </trkpt>
      <trkpt lat="42.0829220" lon="-8.8904580">
        <ele>40.2</ele>
        <time>2021-05-19T11:03:41Z</time>
      </trkpt>
      <trkpt lat="42.0829220" lon="-8.8904580">
        <ele>40.2</ele>
        <time>2021-05-19T11:03:42Z</time>
      </trkpt>
      <trkpt lat="42.0829220" lon="-8.8904580">
        <ele>40.2</ele>
        <time>2021-05-19T11:03:43Z</time>
      </trkpt>
      <trkpt lat="42.0829220" lon="-8.8904580">
        <ele>40.2</ele>
        <time>2021-05-19T11:03:44Z</time>
      </trkpt>
      <trkpt lat="42.0829220" lon="-8.8904580">
        <ele>40.2</ele>
        <time>2021-05-19T11:03:45Z</time>
      </trkpt>
      <trkpt lat="42.0829220" lon="-8.8904580">
        <ele>40.2</ele>
        <time>2021-05-19T11:03:46Z</time>
      </trkpt>
      <trkpt lat="42.0829220" lon="-8.8904580">
        <ele>40.2</ele>
        <time>2021-05-19T11:03:47Z</time>
      </trkpt>
      <trkpt lat="42.0829220" lon="-8.8904580">
        <ele>40.2</ele>
        <time>2021-05-19T11:03:48Z</time>
      </trkpt>
      <trkpt lat="42.0829220" lon="-8.8904580">
        <ele>40.2</ele>
        <time>2021-05-19T11:03:49Z</time>
      </trkpt>
      <trkpt lat="42.0829220" lon="-8.8904580">
        <ele>40.2</ele>
        <time>2021-05-19T11:03:50Z</time>
      </trkpt>
      <trkpt lat="42.0829220" lon="-8.8904580">
        <ele>40.2</ele>
        <time>2021-05-19T11:03:51Z</time>
      </trkpt>
      <trkpt lat="42.0829220" lon="-8.8904580">
        <ele>40.2</ele>
        <time>2021-05-19T11:03:52Z</time>
      </trkpt>
      <trkpt lat="42.0829220" lon="-8.8904580">
        <ele>40.2</ele>
        <time>2021-05-19T11:03:53Z</time>
      </trkpt>
      <trkpt lat="42.0829220" lon="-8.8904580">
        <ele>40.2</ele>
        <time>2021-05-19T11:03:54Z</time>
      </trkpt>
      <trkpt lat="42.0829220" lon="-8.8904580">
        <ele>40.2</ele>
        <time>2021-05-19T11:03:55Z</time>
      </trkpt>
      <trkpt lat="42.0829220" lon="-8.8904580">
        <ele>40.2</ele>
        <time>2021-05-19T11:03:56Z</time>
      </trkpt>
      <trkpt lat="42.0829220" lon="-8.8904580">
        <ele>40.2</ele>
        <time>2021-05-19T11:03:57Z</time>
      </trkpt>
      <trkpt lat="42.0829220" lon="-8.8904580">
        <ele>40.2</ele>
        <time>2021-05-19T11:03:58Z</time>
      </trkpt>
      <trkpt lat="42.0829220" lon="-8.8904580">
        <ele>40.2</ele>
        <time>2021-05-19T11:03:59Z</time>
      </trkpt>
      <trkpt lat="42.0829220" lon="-8.8904580">
        <ele>40.2</ele>
        <time>2021-05-19T11:04:00Z</time>
      </trkpt>
      <trkpt lat="42.0829220" lon="-8.8904580">
        <ele>40.2</ele>
        <time>2021-05-19T11:04:01Z</time>
      </trkpt>
      <trkpt lat="42.0829220" lon="-8.8904580">
        <ele>40.2</ele>
        <time>2021-05-19T11:04:02Z</time>
      </trkpt>
      <trkpt lat="42.0829220" lon="-8.8904580">
        <ele>40.2</ele>
        <time>2021-05-19T11:04:03Z</time>
      </trkpt>
      <trkpt lat="42.0829220" lon="-8.8904580">
        <ele>40.2</ele>
        <time>2021-05-19T11:04:04Z</time>
      </trkpt>
      <trkpt lat="42.0829220" lon="-8.8904580">
        <ele>40.2</ele>
        <time>2021-05-19T11:04:05Z</time>
      </trkpt>
      <trkpt lat="42.0829220" lon="-8.8904580">
        <ele>40.2</ele>
        <time>2021-05-19T11:04:06Z</time>
      </trkpt>
      <trkpt lat="42.0829220" lon="-8.8904580">
        <ele>40.2</ele>
        <time>2021-05-19T11:04:07Z</time>
      </trkpt>
      <trkpt lat="42.0829220" lon="-8.8904580">
        <ele>40.2</ele>
        <time>2021-05-19T11:04:08Z</time>
      </trkpt>
      <trkpt lat="42.0829220" lon="-8.8904580">
        <ele>40.2</ele>
        <time>2021-05-19T11:04:09Z</time>
      </trkpt>
      <trkpt lat="42.0829220" lon="-8.8904580">
        <ele>40.2</ele>
        <time>2021-05-19T11:04:10Z</time>
      </trkpt>
      <trkpt lat="42.0829220" lon="-8.8904580">
        <ele>40.2</ele>
        <time>2021-05-19T11:04:11Z</time>
      </trkpt>
      <trkpt lat="42.0829220" lon="-8.8904580">
        <ele>40.2</ele>
        <time>2021-05-19T11:04:12Z</time>
      </trkpt>
      <trkpt lat="42.0829220" lon="-8.8904580">
        <ele>40.2</ele>
        <time>2021-05-19T11:04:13Z</time>
      </trkpt>
      <trkpt lat="42.0829220" lon="-8.8904580">
        <ele>40.2</ele>
        <time>2021-05-19T11:04:14Z</time>
      </trkpt>
      <trkpt lat="42.0829220" lon="-8.8904580">
        <ele>40.2</ele>
        <time>2021-05-19T11:04:15Z</time>
      </trkpt>
      <trkpt lat="42.0829220" lon="-8.8904580">
        <ele>40.2</ele>
        <time>2021-05-19T11:04:16Z</time>
      </trkpt>
      <trkpt lat="42.0829220" lon="-8.8904580">
        <ele>40.2</ele>
        <time>2021-05-19T11:04:17Z</time>
      </trkpt>
      <trkpt lat="42.0829220" lon="-8.8904580">
        <ele>40.2</ele>
        <time>2021-05-19T11:04:18Z</time>
      </trkpt>
      <trkpt lat="42.0829220" lon="-8.8904580">
        <ele>40.1</ele>
        <time>2021-05-19T11:04:19Z</time>
      </trkpt>
      <trkpt lat="42.0829220" lon="-8.8904580">
        <ele>40.0</ele>
        <time>2021-05-19T11:04:20Z</time>
      </trkpt>
      <trkpt lat="42.0829220" lon="-8.8904580">
        <ele>39.9</ele>
        <time>2021-05-19T11:04:21Z</time>
      </trkpt>
      <trkpt lat="42.0829220" lon="-8.8904580">
        <ele>39.8</ele>
        <time>2021-05-19T11:04:22Z</time>
      </trkpt>
      <trkpt lat="42.0829220" lon="-8.8904580">
        <ele>39.8</ele>
        <time>2021-05-19T11:04:23Z</time>
      </trkpt>
      <trkpt lat="42.0829220" lon="-8.8904580">
        <ele>39.7</ele>
        <time>2021-05-19T11:04:24Z</time>
      </trkpt>
      <trkpt lat="42.0829220" lon="-8.8904580">
        <ele>39.6</ele>
        <time>2021-05-19T11:04:25Z</time>
      </trkpt>
      <trkpt lat="42.0829220" lon="-8.8904580">
        <ele>39.5</ele>
        <time>2021-05-19T11:04:26Z</time>
      </trkpt>
      <trkpt lat="42.0829220" lon="-8.8904580">
        <ele>39.4</ele>
        <time>2021-05-19T11:04:27Z</time>
      </trkpt>
      <trkpt lat="42.0829220" lon="-8.8904580">
        <ele>39.3</ele>
        <time>2021-05-19T11:04:28Z</time>
      </trkpt>
      <trkpt lat="42.0829220" lon="-8.8904580">
        <ele>39.2</ele>
        <time>2021-05-19T11:04:29Z</time>
      </trkpt>
      <trkpt lat="42.0829220" lon="-8.8904580">
        <ele>39.1</ele>
        <time>2021-05-19T11:04:30Z</time>
      </trkpt>
      <trkpt lat="42.0829220" lon="-8.8904580">
        <ele>39.0</ele>
        <time>2021-05-19T11:04:31Z</time>
      </trkpt>
      <trkpt lat="42.0829220" lon="-8.8904580">
        <ele>39.0</ele>
        <time>2021-05-19T11:04:32Z</time>
      </trkpt>
      <trkpt lat="42.0829220" lon="-8.8904580">
        <ele>38.9</ele>
        <time>2021-05-19T11:04:33Z</time>
      </trkpt>
      <trkpt lat="42.0829220" lon="-8.8904580">
        <ele>38.8</ele>
        <time>2021-05-19T11:04:34Z</time>
      </trkpt>
      <trkpt lat="42.0829220" lon="-8.8904580">
        <ele>38.7</ele>
        <time>2021-05-19T11:04:35Z</time>
      </trkpt>
      <trkpt lat="42.0829220" lon="-8.8904580">
        <ele>38.6</ele>
        <time>2021-05-19T11:04:36Z</time>
      </trkpt>
      <trkpt lat="42.0829220" lon="-8.8904580">
        <ele>38.5</ele>
        <time>2021-05-19T11:04:37Z</time>
      </trkpt>
      <trkpt lat="42.0829220" lon="-8.8904580">
        <ele>38.4</ele>
        <time>2021-05-19T11:04:38Z</time>
      </trkpt>
      <trkpt lat="42.0829220" lon="-8.8904580">
        <ele>38.3</ele>
        <time>2021-05-19T11:04:39Z</time>
      </trkpt>
      <trkpt lat="42.0829220" lon="-8.8904580">
        <ele>38.2</ele>
        <time>2021-05-19T11:04:40Z</time>
      </trkpt>
      <trkpt lat="42.0829220" lon="-8.8904580">
        <ele>38.2</ele>
        <time>2021-05-19T11:04:41Z</time>
      </trkpt>
      <trkpt lat="42.0829220" lon="-8.8904580">
        <ele>38.1</ele>
        <time>2021-05-19T11:04:42Z</time>
      </trkpt>
      <trkpt lat="42.0829220" lon="-8.8904580">
        <ele>38.0</ele>
        <time>2021-05-19T11:04:43Z</time>
      </trkpt>
      <trkpt lat="42.0829220" lon="-8.8904580">
        <ele>37.9</ele>
        <time>2021-05-19T11:04:44Z</time>
      </trkpt>
      <trkpt lat="42.0829220" lon="-8.8904580">
        <ele>37.8</ele>
        <time>2021-05-19T11:04:45Z</time>
      </trkpt>
      <trkpt lat="42.0829220" lon="-8.8904580">
        <ele>37.7</ele>
        <time>2021-05-19T11:04:46Z</time>
      </trkpt>
      <trkpt lat="42.0829220" lon="-8.8904580">
        <ele>37.6</ele>
        <time>2021-05-19T11:04:47Z</time>
      </trkpt>
      <trkpt lat="42.0829220" lon="-8.8904580">
        <ele>37.5</ele>
        <time>2021-05-19T11:04:48Z</time>
      </trkpt>
      <trkpt lat="42.0829220" lon="-8.8904580">
        <ele>37.4</ele>
        <time>2021-05-19T11:04:49Z</time>
      </trkpt>
      <trkpt lat="42.0829220" lon="-8.8904580">
        <ele>37.4</ele>
        <time>2021-05-19T11:04:50Z</time>
      </trkpt>
      <trkpt lat="42.0829220" lon="-8.8904580">
        <ele>37.3</ele>
        <time>2021-05-19T11:04:51Z</time>
      </trkpt>
      <trkpt lat="42.0829220" lon="-8.8904580">
        <ele>37.2</ele>
        <time>2021-05-19T11:04:52Z</time>
      </trkpt>
      <trkpt lat="42.0829220" lon="-8.8904580">
        <ele>37.1</ele>
        <time>2021-05-19T11:04:53Z</time>
      </trkpt>
      <trkpt lat="42.0829220" lon="-8.8904580">
        <ele>37.0</ele>
        <time>2021-05-19T11:04:54Z</time>
      </trkpt>
      <trkpt lat="42.0829220" lon="-8.8904580">
        <ele>36.9</ele>
        <time>2021-05-19T11:04:55Z</time>
      </trkpt>
      <trkpt lat="42.0829220" lon="-8.8904580">
        <ele>36.8</ele>
        <time>2021-05-19T11:04:56Z</time>
      </trkpt>
      <trkpt lat="42.0829220" lon="-8.8904580">
        <ele>36.7</ele>
        <time>2021-05-19T11:04:57Z</time>
      </trkpt>
      <trkpt lat="42.0829220" lon="-8.8904580">
        <ele>36.6</ele>
        <time>2021-05-19T11:04:58Z</time>
      </trkpt>
      <trkpt lat="42.0829220" lon="-8.8904580">
        <ele>36.6</ele>
        <time>2021-05-19T11:04:59Z</time>
      </trkpt>
      <trkpt lat="42.0829220" lon="-8.8904580">
        <ele>36.5</ele>
        <time>2021-05-19T11:05:00Z</time>
      </trkpt>
      <trkpt lat="42.0829220" lon="-8.8904580">
        <ele>36.4</ele>
        <time>2021-05-19T11:05:01Z</time>
      </trkpt>
      <trkpt lat="42.0829220" lon="-8.8904580">
        <ele>36.3</ele>
        <time>2021-05-19T11:05:02Z</time>
      </trkpt>
      <trkpt lat="42.0829220" lon="-8.8904580">
        <ele>36.2</ele>
        <time>2021-05-19T11:05:03Z</time>
      </trkpt>
      <trkpt lat="42.0829220" lon="-8.8904580">
        <ele>36.1</ele>
        <time>2021-05-19T11:05:04Z</time>
      </trkpt>
      <trkpt lat="42.0829220" lon="-8.8904580">
        <ele>36.0</ele>
        <time>2021-05-19T11:05:05Z</time>
      </trkpt>
      <trkpt lat="42.0829220" lon="-8.8904580">
        <ele>35.9</ele>
        <time>2021-05-19T11:05:06Z</time>
      </trkpt>
      <trkpt lat="42.0829220" lon="-8.8904580">
        <ele>35.8</ele>
        <time>2021-05-19T11:05:08Z</time>
      </trkpt>
      <trkpt lat="42.0829220" lon="-8.8904580">
        <ele>35.8</ele>
        <time>2021-05-19T11:05:09Z</time>
      </trkpt>
      <trkpt lat="42.0829220" lon="-8.8904580">
        <ele>35.7</ele>
        <time>2021-05-19T11:05:10Z</time>
      </trkpt>
      <trkpt lat="42.0829220" lon="-8.8904580">
        <ele>35.6</ele>
        <time>2021-05-19T11:05:11Z</time>
      </trkpt>
      <trkpt lat="42.0829220" lon="-8.8904580">
        <ele>35.5</ele>
        <time>2021-05-19T11:05:12Z</time>
      </trkpt>
      <trkpt lat="42.0829220" lon="-8.8904580">
        <ele>35.4</ele>
        <time>2021-05-19T11:05:13Z</time>
      </trkpt>
      <trkpt lat="42.0829220" lon="-8.8904580">
        <ele>35.3</ele>
        <time>2021-05-19T11:05:14Z</time>
      </trkpt>
      <trkpt lat="42.0829220" lon="-8.8904580">
        <ele>35.2</ele>
        <time>2021-05-19T11:05:15Z</time>
      </trkpt>
      <trkpt lat="42.0829220" lon="-8.8904580">
        <ele>35.1</ele>
        <time>2021-05-19T11:05:16Z</time>
      </trkpt>
      <trkpt lat="42.0829220" lon="-8.8904580">
        <ele>35.0</ele>
        <time>2021-05-19T11:05:17Z</time>
      </trkpt>
      <trkpt lat="42.0829220" lon="-8.8904580">
        <ele>34.9</ele>
        <time>2021-05-19T11:05:18Z</time>
      </trkpt>
      <trkpt lat="42.0829220" lon="-8.8904580">
        <ele>34.9</ele>
        <time>2021-05-19T11:05:19Z</time>
      </trkpt>
      <trkpt lat="42.0829220" lon="-8.8904580">
        <ele>34.8</ele>
        <time>2021-05-19T11:05:20Z</time>
      </trkpt>
      <trkpt lat="42.0829220" lon="-8.8904580">
        <ele>34.7</ele>
        <time>2021-05-19T11:05:21Z</time>
      </trkpt>
      <trkpt lat="42.0829220" lon="-8.8904580">
        <ele>34.6</ele>
        <time>2021-05-19T11:05:22Z</time>
      </trkpt>
      <trkpt lat="42.0829220" lon="-8.8904580">
        <ele>34.5</ele>
        <time>2021-05-19T11:05:23Z</time>
      </trkpt>
      <trkpt lat="42.0829220" lon="-8.8904580">
        <ele>34.4</ele>
        <time>2021-05-19T11:05:24Z</time>
      </trkpt>
      <trkpt lat="42.0829220" lon="-8.8904580">
        <ele>34.3</ele>
        <time>2021-05-19T11:05:25Z</time>
      </trkpt>
      <trkpt lat="42.0829220" lon="-8.8904580">
        <ele>34.2</ele>
        <time>2021-05-19T11:05:26Z</time>
      </trkpt>
      <trkpt lat="42.0829220" lon="-8.8904580">
        <ele>34.1</ele>
        <time>2021-05-19T11:05:27Z</time>
      </trkpt>
      <trkpt lat="42.0829220" lon="-8.8904580">
        <ele>34.1</ele>
        <time>2021-05-19T11:05:28Z</time>
      </trkpt>
      <trkpt lat="42.0829220" lon="-8.8904580">
        <ele>34.0</ele>
        <time>2021-05-19T11:05:29Z</time>
      </trkpt>
      <trkpt lat="42.0829220" lon="-8.8904580">
        <ele>33.9</ele>
        <time>2021-05-19T11:05:30Z</time>
      </trkpt>
      <trkpt lat="42.0829220" lon="-8.8904580">
        <ele>33.8</ele>
        <time>2021-05-19T11:05:31Z</time>
      </trkpt>
      <trkpt lat="42.0829220" lon="-8.8904580">
        <ele>33.7</ele>
        <time>2021-05-19T11:05:32Z</time>
      </trkpt>
      <trkpt lat="42.0829220" lon="-8.8904580">
        <ele>33.6</ele>
        <time>2021-05-19T11:05:33Z</time>
      </trkpt>
      <trkpt lat="42.0829220" lon="-8.8904580">
        <ele>33.5</ele>
        <time>2021-05-19T11:05:34Z</time>
      </trkpt>
      <trkpt lat="42.0829220" lon="-8.8904580">
        <ele>33.4</ele>
        <time>2021-05-19T11:05:35Z</time>
      </trkpt>
      <trkpt lat="42.0829220" lon="-8.8904580">
        <ele>33.3</ele>
        <time>2021-05-19T11:05:36Z</time>
      </trkpt>
      <trkpt lat="42.0829220" lon="-8.8904580">
        <ele>33.3</ele>
        <time>2021-05-19T11:05:37Z</time>
      </trkpt>
      <trkpt lat="42.0829220" lon="-8.8904580">
        <ele>33.2</ele>
        <time>2021-05-19T11:05:38Z</time>
      </trkpt>
      <trkpt lat="42.0829220" lon="-8.8904580">
        <ele>33.1</ele>
        <time>2021-05-19T11:05:39Z</time>
      </trkpt>
      <trkpt lat="42.0829220" lon="-8.8904580">
        <ele>33.0</ele>
        <time>2021-05-19T11:05:40Z</time>
      </trkpt>
      <trkpt lat="42.0829220" lon="-8.8904580">
        <ele>32.9</ele>
        <time>2021-05-19T11:05:41Z</time>
      </trkpt>
      <trkpt lat="42.0829220" lon="-8.8904580">
        <ele>32.8</ele>
        <time>2021-05-19T11:05:42Z</time>
      </trkpt>
      <trkpt lat="42.0829220" lon="-8.8904580">
        <ele>32.7</ele>
        <time>2021-05-19T11:05:43Z</time>
      </trkpt>
      <trkpt lat="42.0829220" lon="-8.8904580">
        <ele>32.6</ele>
        <time>2021-05-19T11:05:44Z</time>
      </trkpt>
      <trkpt lat="42.0829220" lon="-8.8904580">
        <ele>32.5</ele>
        <time>2021-05-19T11:05:45Z</time>
      </trkpt>
      <trkpt lat="42.0829220" lon="-8.8904580">
        <ele>32.5</ele>
        <time>2021-05-19T11:05:46Z</time>
      </trkpt>
      <trkpt lat="42.0829220" lon="-8.8904580">
        <ele>32.4</ele>
        <time>2021-05-19T11:05:47Z</time>
      </trkpt>
      <trkpt lat="42.0829220" lon="-8.8904580">
        <ele>32.3</ele>
        <time>2021-05-19T11:05:48Z</time>
      </trkpt>
      <trkpt lat="42.0829220" lon="-8.8904580">
        <ele>32.2</ele>
        <time>2021-05-19T11:05:49Z</time>
      </trkpt>
      <trkpt lat="42.0829220" lon="-8.8904580">
        <ele>32.1</ele>
        <time>2021-05-19T11:05:50Z</time>
      </trkpt>
      <trkpt lat="42.0829220" lon="-8.8904580">
        <ele>32.0</ele>
        <time>2021-05-19T11:05:51Z</time>
      </trkpt>
      <trkpt lat="42.0829220" lon="-8.8904580">
        <ele>31.9</ele>
        <time>2021-05-19T11:05:52Z</time>
      </trkpt>
      <trkpt lat="42.0829220" lon="-8.8904580">
        <ele>31.8</ele>
        <time>2021-05-19T11:05:53Z</time>
      </trkpt>
      <trkpt lat="42.0829220" lon="-8.8904580">
        <ele>31.7</ele>
        <time>2021-05-19T11:05:54Z</time>
      </trkpt>
      <trkpt lat="42.0829220" lon="-8.8904580">
        <ele>31.7</ele>
        <time>2021-05-19T11:05:55Z</time>
      </trkpt>
      <trkpt lat="42.0829220" lon="-8.8904580">
        <ele>31.6</ele>
        <time>2021-05-19T11:05:56Z</time>
      </trkpt>
      <trkpt lat="42.0829220" lon="-8.8904580">
        <ele>31.5</ele>
        <time>2021-05-19T11:05:57Z</time>
      </trkpt>
      <trkpt lat="42.0829220" lon="-8.8904580">
        <ele>31.4</ele>
        <time>2021-05-19T11:05:58Z</time>
      </trkpt>
      <trkpt lat="42.0829220" lon="-8.8904580">
        <ele>31.3</ele>
        <time>2021-05-19T11:05:59Z</time>
      </trkpt>
      <trkpt lat="42.0829220" lon="-8.8904580">
        <ele>31.3</ele>
        <time>2021-05-19T11:06:00Z</time>
      </trkpt>
      <trkpt lat="42.0829220" lon="-8.8904190">
        <ele>32.3</ele>
        <time>2021-05-19T11:06:01Z</time>
      </trkpt>
      <trkpt lat="42.0829250" lon="-8.8904170">
        <ele>32.3</ele>
        <time>2021-05-19T11:06:02Z</time>
      </trkpt>
      <trkpt lat="42.0829260" lon="-8.8904110">
        <ele>32.3</ele>
        <time>2021-05-19T11:06:03Z</time>
      </trkpt>
      <trkpt lat="42.0829250" lon="-8.8904100">
        <ele>32.3</ele>
        <time>2021-05-19T11:06:04Z</time>
      </trkpt>
      <trkpt lat="42.0829250" lon="-8.8904110">
        <ele>32.3</ele>
        <time>2021-05-19T11:06:05Z</time>
      </trkpt>
      <trkpt lat="42.0829240" lon="-8.8904120">
        <ele>32.3</ele>
        <time>2021-05-19T11:06:06Z</time>
      </trkpt>
      <trkpt lat="42.0829220" lon="-8.8904110">
        <ele>32.3</ele>
        <time>2021-05-19T11:06:07Z</time>
      </trkpt>
      <trkpt lat="42.0829220" lon="-8.8904170">
        <ele>32.3</ele>
        <time>2021-05-19T11:06:08Z</time>
      </trkpt>
      <trkpt lat="42.0829180" lon="-8.8904200">
        <ele>32.3</ele>
        <time>2021-05-19T11:06:09Z</time>
      </trkpt>
      <trkpt lat="42.0829160" lon="-8.8904230">
        <ele>32.3</ele>
        <time>2021-05-19T11:06:10Z</time>
      </trkpt>
      <trkpt lat="42.0829140" lon="-8.8904320">
        <ele>31.3</ele>
        <time>2021-05-19T11:06:11Z</time>
      </trkpt>
      <trkpt lat="42.0829120" lon="-8.8904320">
        <ele>31.3</ele>
        <time>2021-05-19T11:06:12Z</time>
      </trkpt>
      <trkpt lat="42.0829140" lon="-8.8904300">
        <ele>31.3</ele>
        <time>2021-05-19T11:06:13Z</time>
      </trkpt>
      <trkpt lat="42.0829140" lon="-8.8904350">
        <ele>31.3</ele>
        <time>2021-05-19T11:06:14Z</time>
      </trkpt>
      <trkpt lat="42.0829130" lon="-8.8904280">
        <ele>32.3</ele>
        <time>2021-05-19T11:06:15Z</time>
      </trkpt>
      <trkpt lat="42.0829100" lon="-8.8904250">
        <ele>32.3</ele>
        <time>2021-05-19T11:06:16Z</time>
      </trkpt>
      <trkpt lat="42.0829070" lon="-8.8904270">
        <ele>32.3</ele>
        <time>2021-05-19T11:06:17Z</time>
      </trkpt>
      <trkpt lat="42.0829100" lon="-8.8904230">
        <ele>32.3</ele>
        <time>2021-05-19T11:06:18Z</time>
      </trkpt>
      <trkpt lat="42.0829130" lon="-8.8904290">
        <ele>31.3</ele>
        <time>2021-05-19T11:06:19Z</time>
      </trkpt>
      <trkpt lat="42.0829120" lon="-8.8904280">
        <ele>32.3</ele>
        <time>2021-05-19T11:06:20Z</time>
      </trkpt>
      <trkpt lat="42.0829120" lon="-8.8904290">
        <ele>31.3</ele>
        <time>2021-05-19T11:06:21Z</time>
      </trkpt>
      <trkpt lat="42.0829120" lon="-8.8904290">
        <ele>31.3</ele>
        <time>2021-05-19T11:06:22Z</time>
      </trkpt>
      <trkpt lat="42.0829090" lon="-8.8904360">
        <ele>31.3</ele>
        <time>2021-05-19T11:06:23Z</time>
      </trkpt>
      <trkpt lat="42.0829130" lon="-8.8904360">
        <ele>31.3</ele>
        <time>2021-05-19T11:06:24Z</time>
      </trkpt>
      <trkpt lat="42.0829110" lon="-8.8904400">
        <ele>31.3</ele>
        <time>2021-05-19T11:06:25Z</time>
      </trkpt>
      <trkpt lat="42.0829120" lon="-8.8904340">
        <ele>31.3</ele>
        <time>2021-05-19T11:06:26Z</time>
      </trkpt>
      <trkpt lat="42.0829120" lon="-8.8904330">
        <ele>31.3</ele>
        <time>2021-05-19T11:06:27Z</time>
      </trkpt>
      <trkpt lat="42.0829130" lon="-8.8904320">
        <ele>31.3</ele>
        <time>2021-05-19T11:06:28Z</time>
      </trkpt>
      <trkpt lat="42.0829140" lon="-8.8904350">
        <ele>31.3</ele>
        <time>2021-05-19T11:06:29Z</time>
      </trkpt>
      <trkpt lat="42.0829130" lon="-8.8904390">
        <ele>31.3</ele>
        <time>2021-05-19T11:06:30Z</time>
      </trkpt>
      <trkpt lat="42.0829120" lon="-8.8904410">
        <ele>31.3</ele>
        <time>2021-05-19T11:06:31Z</time>
      </trkpt>
      <trkpt lat="42.0829150" lon="-8.8904400">
        <ele>31.3</ele>
        <time>2021-05-19T11:06:32Z</time>
      </trkpt>
      <trkpt lat="42.0829150" lon="-8.8904390">
        <ele>31.3</ele>
        <time>2021-05-19T11:06:33Z</time>
      </trkpt>
      <trkpt lat="42.0829150" lon="-8.8904390">
        <ele>31.3</ele>
        <time>2021-05-19T11:06:34Z</time>
      </trkpt>
      <trkpt lat="42.0829150" lon="-8.8904390">
        <ele>31.3</ele>
        <time>2021-05-19T11:06:35Z</time>
      </trkpt>
      <trkpt lat="42.0829110" lon="-8.8904480">
        <ele>31.3</ele>
        <time>2021-05-19T11:06:36Z</time>
      </trkpt>
      <trkpt lat="42.0829160" lon="-8.8904460">
        <ele>31.3</ele>
        <time>2021-05-19T11:06:37Z</time>
      </trkpt>
      <trkpt lat="42.0829150" lon="-8.8904410">
        <ele>31.3</ele>
        <time>2021-05-19T11:06:38Z</time>
      </trkpt>
      <trkpt lat="42.0829170" lon="-8.8904390">
        <ele>31.3</ele>
        <time>2021-05-19T11:06:39Z</time>
      </trkpt>
      <trkpt lat="42.0829170" lon="-8.8904370">
        <ele>31.3</ele>
        <time>2021-05-19T11:06:40Z</time>
      </trkpt>
      <trkpt lat="42.0829200" lon="-8.8904390">
        <ele>31.3</ele>
        <time>2021-05-19T11:06:41Z</time>
      </trkpt>
      <trkpt lat="42.0829200" lon="-8.8904390">
        <ele>31.3</ele>
        <time>2021-05-19T11:06:42Z</time>
      </trkpt>
      <trkpt lat="42.0829200" lon="-8.8904380">
        <ele>31.3</ele>
        <time>2021-05-19T11:06:43Z</time>
      </trkpt>
      <trkpt lat="42.0829190" lon="-8.8904400">
        <ele>31.3</ele>
        <time>2021-05-19T11:06:44Z</time>
      </trkpt>
      <trkpt lat="42.0829210" lon="-8.8904420">
        <ele>31.3</ele>
        <time>2021-05-19T11:06:45Z</time>
      </trkpt>
      <trkpt lat="42.0829230" lon="-8.8904440">
        <ele>31.3</ele>
        <time>2021-05-19T11:06:46Z</time>
      </trkpt>
      <trkpt lat="42.0829210" lon="-8.8904480">
        <ele>31.3</ele>
        <time>2021-05-19T11:06:47Z</time>
      </trkpt>
      <trkpt lat="42.0829220" lon="-8.8904500">
        <ele>31.3</ele>
        <time>2021-05-19T11:06:48Z</time>
      </trkpt>
      <trkpt lat="42.0829200" lon="-8.8904490">
        <ele>31.3</ele>
        <time>2021-05-19T11:06:49Z</time>
      </trkpt>
      <trkpt lat="42.0829200" lon="-8.8904510">
        <ele>31.3</ele>
        <time>2021-05-19T11:06:50Z</time>
      </trkpt>
      <trkpt lat="42.0829240" lon="-8.8904520">
        <ele>31.3</ele>
        <time>2021-05-19T11:06:51Z</time>
      </trkpt>
      <trkpt lat="42.0829230" lon="-8.8904600">
        <ele>31.3</ele>
        <time>2021-05-19T11:06:52Z</time>
      </trkpt>
      <trkpt lat="42.0829170" lon="-8.8904560">
        <ele>31.3</ele>
        <time>2021-05-19T11:06:53Z</time>
      </trkpt>
      <trkpt lat="42.0829220" lon="-8.8904540">
        <ele>31.3</ele>
        <time>2021-05-19T11:06:54Z</time>
      </trkpt>
      <trkpt lat="42.0829230" lon="-8.8904530">
        <ele>31.3</ele>
        <time>2021-05-19T11:06:55Z</time>
      </trkpt>
      <trkpt lat="42.0829210" lon="-8.8904570">
        <ele>31.3</ele>
        <time>2021-05-19T11:06:56Z</time>
      </trkpt>
      <trkpt lat="42.0829200" lon="-8.8904590">
        <ele>31.3</ele>
        <time>2021-05-19T11:06:57Z</time>
      </trkpt>
      <trkpt lat="42.0829220" lon="-8.8904590">
        <ele>31.3</ele>
        <time>2021-05-19T11:06:58Z</time>
      </trkpt>
      <trkpt lat="42.0829190" lon="-8.8904550">
        <ele>31.3</ele>
        <time>2021-05-19T11:06:59Z</time>
      </trkpt>
      <trkpt lat="42.0829180" lon="-8.8904500">
        <ele>31.3</ele>
        <time>2021-05-19T11:07:00Z</time>
      </trkpt>
      <trkpt lat="42.0829190" lon="-8.8904460">
        <ele>31.3</ele>
        <time>2021-05-19T11:07:01Z</time>
      </trkpt>
      <trkpt lat="42.0829180" lon="-8.8904460">
        <ele>31.3</ele>
        <time>2021-05-19T11:07:02Z</time>
      </trkpt>
      <trkpt lat="42.0829130" lon="-8.8904680">
        <ele>31.3</ele>
        <time>2021-05-19T11:07:03Z</time>
      </trkpt>
      <trkpt lat="42.0829140" lon="-8.8904680">
        <ele>31.3</ele>
        <time>2021-05-19T11:07:04Z</time>
      </trkpt>
      <trkpt lat="42.0829130" lon="-8.8904690">
        <ele>31.3</ele>
        <time>2021-05-19T11:07:05Z</time>
      </trkpt>
      <trkpt lat="42.0829130" lon="-8.8904690">
        <ele>31.3</ele>
        <time>2021-05-19T11:07:06Z</time>
      </trkpt>
      <trkpt lat="42.0829120" lon="-8.8904700">
        <ele>31.3</ele>
        <time>2021-05-19T11:07:07Z</time>
      </trkpt>
      <trkpt lat="42.0829120" lon="-8.8904700">
        <ele>31.3</ele>
        <time>2021-05-19T11:07:08Z</time>
      </trkpt>
      <trkpt lat="42.0829110" lon="-8.8904700">
        <ele>31.3</ele>
        <time>2021-05-19T11:07:09Z</time>
      </trkpt>
      <trkpt lat="42.0829110" lon="-8.8904710">
        <ele>31.3</ele>
        <time>2021-05-19T11:07:10Z</time>
      </trkpt>
      <trkpt lat="42.0829100" lon="-8.8904710">
        <ele>31.3</ele>
        <time>2021-05-19T11:07:11Z</time>
      </trkpt>
      <trkpt lat="42.0829100" lon="-8.8904710">
        <ele>31.3</ele>
        <time>2021-05-19T11:07:12Z</time>
      </trkpt>
      <trkpt lat="42.0829100" lon="-8.8904720">
        <ele>30.3</ele>
        <time>2021-05-19T11:07:13Z</time>
      </trkpt>
      <trkpt lat="42.0829090" lon="-8.8904720">
        <ele>30.3</ele>
        <time>2021-05-19T11:07:14Z</time>
      </trkpt>
      <trkpt lat="42.0829090" lon="-8.8904730">
        <ele>30.3</ele>
        <time>2021-05-19T11:07:15Z</time>
      </trkpt>
      <trkpt lat="42.0829080" lon="-8.8904730">
        <ele>30.3</ele>
        <time>2021-05-19T11:07:16Z</time>
      </trkpt>
      <trkpt lat="42.0829080" lon="-8.8904730">
        <ele>30.3</ele>
        <time>2021-05-19T11:07:17Z</time>
      </trkpt>
      <trkpt lat="42.0829070" lon="-8.8904740">
        <ele>30.3</ele>
        <time>2021-05-19T11:07:18Z</time>
      </trkpt>
      <trkpt lat="42.0829070" lon="-8.8904740">
        <ele>30.3</ele>
        <time>2021-05-19T11:07:19Z</time>
      </trkpt>
      <trkpt lat="42.0829070" lon="-8.8904750">
        <ele>30.3</ele>
        <time>2021-05-19T11:07:20Z</time>
      </trkpt>
      <trkpt lat="42.0829060" lon="-8.8904750">
        <ele>30.3</ele>
        <time>2021-05-19T11:07:21Z</time>
      </trkpt>
      <trkpt lat="42.0829060" lon="-8.8904750">
        <ele>30.3</ele>
        <time>2021-05-19T11:07:22Z</time>
      </trkpt>
      <trkpt lat="42.0829050" lon="-8.8904760">
        <ele>30.3</ele>
        <time>2021-05-19T11:07:23Z</time>
      </trkpt>
      <trkpt lat="42.0829050" lon="-8.8904760">
        <ele>30.3</ele>
        <time>2021-05-19T11:07:24Z</time>
      </trkpt>
      <trkpt lat="42.0829040" lon="-8.8904760">
        <ele>30.0</ele>
        <time>2021-05-19T11:07:25Z</time>
      </trkpt>
      <trkpt lat="42.0829040" lon="-8.8904770">
        <ele>30.0</ele>
        <time>2021-05-19T11:07:26Z</time>
      </trkpt>
      <trkpt lat="42.0829030" lon="-8.8904770">
        <ele>30.0</ele>
        <time>2021-05-19T11:07:27Z</time>
      </trkpt>
      <trkpt lat="42.0829030" lon="-8.8904780">
        <ele>30.0</ele>
        <time>2021-05-19T11:07:28Z</time>
      </trkpt>
      <trkpt lat="42.0829030" lon="-8.8904780">
        <ele>30.0</ele>
        <time>2021-05-19T11:07:29Z</time>
      </trkpt>
      <trkpt lat="42.0829020" lon="-8.8904780">
        <ele>30.0</ele>
        <time>2021-05-19T11:07:30Z</time>
      </trkpt>
      <trkpt lat="42.0829020" lon="-8.8904790">
        <ele>30.0</ele>
        <time>2021-05-19T11:07:31Z</time>
      </trkpt>
      <trkpt lat="42.0829010" lon="-8.8904790">
        <ele>30.0</ele>
        <time>2021-05-19T11:07:32Z</time>
      </trkpt>
      <trkpt lat="42.0829010" lon="-8.8904800">
        <ele>30.0</ele>
        <time>2021-05-19T11:07:33Z</time>
      </trkpt>
      <trkpt lat="42.0829000" lon="-8.8904800">
        <ele>30.0</ele>
        <time>2021-05-19T11:07:34Z</time>
      </trkpt>
      <trkpt lat="42.0829000" lon="-8.8904800">
        <ele>30.0</ele>
        <time>2021-05-19T11:07:35Z</time>
      </trkpt>
      <trkpt lat="42.0829000" lon="-8.8904810">
        <ele>30.0</ele>
        <time>2021-05-19T11:07:36Z</time>
      </trkpt>
      <trkpt lat="42.0828990" lon="-8.8904810">
        <ele>30.0</ele>
        <time>2021-05-19T11:07:37Z</time>
      </trkpt>
      <trkpt lat="42.0828990" lon="-8.8904810">
        <ele>30.0</ele>
        <time>2021-05-19T11:07:38Z</time>
      </trkpt>
      <trkpt lat="42.0828980" lon="-8.8904820">
        <ele>30.0</ele>
        <time>2021-05-19T11:07:39Z</time>
      </trkpt>
      <trkpt lat="42.0828980" lon="-8.8904820">
        <ele>30.0</ele>
        <time>2021-05-19T11:07:40Z</time>
      </trkpt>
      <trkpt lat="42.0828970" lon="-8.8904830">
        <ele>30.0</ele>
        <time>2021-05-19T11:07:41Z</time>
      </trkpt>
      <trkpt lat="42.0828970" lon="-8.8904830">
        <ele>30.0</ele>
        <time>2021-05-19T11:07:42Z</time>
      </trkpt>
      <trkpt lat="42.0828960" lon="-8.8904830">
        <ele>30.0</ele>
        <time>2021-05-19T11:07:43Z</time>
      </trkpt>
      <trkpt lat="42.0828960" lon="-8.8904840">
        <ele>30.0</ele>
        <time>2021-05-19T11:07:44Z</time>
      </trkpt>
      <trkpt lat="42.0828960" lon="-8.8904840">
        <ele>30.0</ele>
        <time>2021-05-19T11:07:45Z</time>
      </trkpt>
      <trkpt lat="42.0828950" lon="-8.8904840">
        <ele>30.0</ele>
        <time>2021-05-19T11:07:46Z</time>
      </trkpt>
      <trkpt lat="42.0828950" lon="-8.8904850">
        <ele>30.0</ele>
        <time>2021-05-19T11:07:47Z</time>
      </trkpt>
      <trkpt lat="42.0828940" lon="-8.8904850">
        <ele>30.0</ele>
        <time>2021-05-19T11:07:48Z</time>
      </trkpt>
      <trkpt lat="42.0828940" lon="-8.8904860">
        <ele>30.0</ele>
        <time>2021-05-19T11:07:49Z</time>
      </trkpt>
      <trkpt lat="42.0828930" lon="-8.8904860">
        <ele>30.0</ele>
        <time>2021-05-19T11:07:50Z</time>
      </trkpt>
      <trkpt lat="42.0828930" lon="-8.8904860">
        <ele>30.0</ele>
        <time>2021-05-19T11:07:51Z</time>
      </trkpt>
      <trkpt lat="42.0828930" lon="-8.8904870">
        <ele>30.0</ele>
        <time>2021-05-19T11:07:52Z</time>
      </trkpt>
      <trkpt lat="42.0828920" lon="-8.8904870">
        <ele>30.0</ele>
        <time>2021-05-19T11:07:53Z</time>
      </trkpt>
      <trkpt lat="42.0828920" lon="-8.8904880">
        <ele>30.0</ele>
        <time>2021-05-19T11:07:54Z</time>
      </trkpt>
      <trkpt lat="42.0828910" lon="-8.8904880">
        <ele>30.0</ele>
        <time>2021-05-19T11:07:55Z</time>
      </trkpt>
      <trkpt lat="42.0828910" lon="-8.8904880">
        <ele>30.0</ele>
        <time>2021-05-19T11:07:56Z</time>
      </trkpt>
      <trkpt lat="42.0828900" lon="-8.8904890">
        <ele>30.0</ele>
        <time>2021-05-19T11:07:57Z</time>
      </trkpt>
      <trkpt lat="42.0828900" lon="-8.8904890">
        <ele>30.0</ele>
        <time>2021-05-19T11:07:58Z</time>
      </trkpt>
      <trkpt lat="42.0828890" lon="-8.8904890">
        <ele>30.0</ele>
        <time>2021-05-19T11:07:59Z</time>
      </trkpt>
      <trkpt lat="42.0828890" lon="-8.8904900">
        <ele>30.0</ele>
        <time>2021-05-19T11:08:00Z</time>
      </trkpt>
      <trkpt lat="42.0828890" lon="-8.8904900">
        <ele>30.0</ele>
        <time>2021-05-19T11:08:01Z</time>
      </trkpt>
      <trkpt lat="42.0828880" lon="-8.8904910">
        <ele>30.0</ele>
        <time>2021-05-19T11:08:02Z</time>
      </trkpt>
      <trkpt lat="42.0828880" lon="-8.8904910">
        <ele>30.0</ele>
        <time>2021-05-19T11:08:03Z</time>
      </trkpt>
      <trkpt lat="42.0828870" lon="-8.8904910">
        <ele>30.0</ele>
        <time>2021-05-19T11:08:04Z</time>
      </trkpt>
      <trkpt lat="42.0828870" lon="-8.8904920">
        <ele>30.0</ele>
        <time>2021-05-19T11:08:05Z</time>
      </trkpt>
      <trkpt lat="42.0828860" lon="-8.8904920">
        <ele>30.0</ele>
        <time>2021-05-19T11:08:06Z</time>
      </trkpt>
      <trkpt lat="42.0828860" lon="-8.8904930">
        <ele>30.0</ele>
        <time>2021-05-19T11:08:07Z</time>
      </trkpt>
      <trkpt lat="42.0828860" lon="-8.8904930">
        <ele>30.0</ele>
        <time>2021-05-19T11:08:08Z</time>
      </trkpt>
      <trkpt lat="42.0828850" lon="-8.8904930">
        <ele>30.0</ele>
        <time>2021-05-19T11:08:09Z</time>
      </trkpt>
      <trkpt lat="42.0828850" lon="-8.8904940">
        <ele>30.0</ele>
        <time>2021-05-19T11:08:10Z</time>
      </trkpt>
      <trkpt lat="42.0828840" lon="-8.8904940">
        <ele>30.0</ele>
        <time>2021-05-19T11:08:11Z</time>
      </trkpt>
      <trkpt lat="42.0828840" lon="-8.8904940">
        <ele>30.0</ele>
        <time>2021-05-19T11:08:12Z</time>
      </trkpt>
      <trkpt lat="42.0828830" lon="-8.8904950">
        <ele>30.0</ele>
        <time>2021-05-19T11:08:13Z</time>
      </trkpt>
      <trkpt lat="42.0828830" lon="-8.8904950">
        <ele>30.0</ele>
        <time>2021-05-19T11:08:14Z</time>
      </trkpt>
      <trkpt lat="42.0828820" lon="-8.8904960">
        <ele>30.0</ele>
        <time>2021-05-19T11:08:15Z</time>
      </trkpt>
      <trkpt lat="42.0828820" lon="-8.8904960">
        <ele>30.0</ele>
        <time>2021-05-19T11:08:16Z</time>
      </trkpt>
      <trkpt lat="42.0828810" lon="-8.8905000">
        <ele>30.0</ele>
        <time>2021-05-19T11:08:17Z</time>
      </trkpt>
      <trkpt lat="42.0828830" lon="-8.8905000">
        <ele>30.0</ele>
        <time>2021-05-19T11:08:18Z</time>
      </trkpt>
      <trkpt lat="42.0828890" lon="-8.8904920">
        <ele>30.0</ele>
        <time>2021-05-19T11:08:19Z</time>
      </trkpt>
      <trkpt lat="42.0828900" lon="-8.8904890">
        <ele>30.0</ele>
        <time>2021-05-19T11:08:20Z</time>
      </trkpt>
      <trkpt lat="42.0828920" lon="-8.8904870">
        <ele>30.0</ele>
        <time>2021-05-19T11:08:21Z</time>
      </trkpt>
      <trkpt lat="42.0828930" lon="-8.8904880">
        <ele>30.0</ele>
        <time>2021-05-19T11:08:22Z</time>
      </trkpt>
      <trkpt lat="42.0828950" lon="-8.8904850">
        <ele>30.0</ele>
        <time>2021-05-19T11:08:23Z</time>
      </trkpt>
      <trkpt lat="42.0828950" lon="-8.8904840">
        <ele>30.0</ele>
        <time>2021-05-19T11:08:24Z</time>
      </trkpt>
      <trkpt lat="42.0828980" lon="-8.8904800">
        <ele>30.0</ele>
        <time>2021-05-19T11:08:25Z</time>
      </trkpt>
      <trkpt lat="42.0828990" lon="-8.8904810">
        <ele>30.0</ele>
        <time>2021-05-19T11:08:26Z</time>
      </trkpt>
      <trkpt lat="42.0828990" lon="-8.8904820">
        <ele>30.0</ele>
        <time>2021-05-19T11:08:27Z</time>
      </trkpt>
      <trkpt lat="42.0829000" lon="-8.8904800">
        <ele>30.0</ele>
        <time>2021-05-19T11:08:28Z</time>
      </trkpt>
      <trkpt lat="42.0828970" lon="-8.8904800">
        <ele>30.0</ele>
        <time>2021-05-19T11:08:29Z</time>
      </trkpt>
      <trkpt lat="42.0828990" lon="-8.8904770">
        <ele>30.0</ele>
        <time>2021-05-19T11:08:30Z</time>
      </trkpt>
      <trkpt lat="42.0829020" lon="-8.8904720">
        <ele>30.0</ele>
        <time>2021-05-19T11:08:31Z</time>
      </trkpt>
      <trkpt lat="42.0829010" lon="-8.8904710">
        <ele>31.1</ele>
        <time>2021-05-19T11:08:32Z</time>
      </trkpt>
      <trkpt lat="42.0828980" lon="-8.8904690">
        <ele>31.1</ele>
        <time>2021-05-19T11:08:33Z</time>
      </trkpt>
      <trkpt lat="42.0828940" lon="-8.8904660">
        <ele>31.1</ele>
        <time>2021-05-19T11:08:34Z</time>
      </trkpt>
      <trkpt lat="42.0828930" lon="-8.8904740">
        <ele>30.0</ele>
        <time>2021-05-19T11:08:35Z</time>
      </trkpt>
      <trkpt lat="42.0828940" lon="-8.8904760">
        <ele>30.0</ele>
        <time>2021-05-19T11:08:36Z</time>
      </trkpt>
      <trkpt lat="42.0829010" lon="-8.8904680">
        <ele>31.1</ele>
        <time>2021-05-19T11:08:37Z</time>
      </trkpt>
      <trkpt lat="42.0829050" lon="-8.8904660">
        <ele>31.3</ele>
        <time>2021-05-19T11:08:38Z</time>
      </trkpt>
      <trkpt lat="42.0829080" lon="-8.8904630">
        <ele>31.3</ele>
        <time>2021-05-19T11:08:39Z</time>
      </trkpt>
      <trkpt lat="42.0829090" lon="-8.8904570">
        <ele>31.3</ele>
        <time>2021-05-19T11:08:40Z</time>
      </trkpt>
      <trkpt lat="42.0829080" lon="-8.8904560">
        <ele>31.3</ele>
        <time>2021-05-19T11:08:41Z</time>
      </trkpt>
      <trkpt lat="42.0829080" lon="-8.8904560">
        <ele>31.3</ele>
        <time>2021-05-19T11:08:42Z</time>
      </trkpt>
      <trkpt lat="42.0829060" lon="-8.8904600">
        <ele>31.3</ele>
        <time>2021-05-19T11:08:43Z</time>
      </trkpt>
      <trkpt lat="42.0829060" lon="-8.8904600">
        <ele>31.3</ele>
        <time>2021-05-19T11:08:44Z</time>
      </trkpt>
      <trkpt lat="42.0829100" lon="-8.8904660">
        <ele>31.3</ele>
        <time>2021-05-19T11:08:45Z</time>
      </trkpt>
      <trkpt lat="42.0829120" lon="-8.8904690">
        <ele>31.3</ele>
        <time>2021-05-19T11:08:46Z</time>
      </trkpt>
      <trkpt lat="42.0829100" lon="-8.8904740">
        <ele>30.3</ele>
        <time>2021-05-19T11:08:47Z</time>
      </trkpt>
      <trkpt lat="42.0829080" lon="-8.8904730">
        <ele>30.3</ele>
        <time>2021-05-19T11:08:48Z</time>
      </trkpt>
      <trkpt lat="42.0829050" lon="-8.8904630">
        <ele>31.3</ele>
        <time>2021-05-19T11:08:49Z</time>
      </trkpt>
      <trkpt lat="42.0829030" lon="-8.8904580">
        <ele>31.1</ele>
        <time>2021-05-19T11:08:50Z</time>
      </trkpt>
      <trkpt lat="42.0829030" lon="-8.8904580">
        <ele>31.1</ele>
        <time>2021-05-19T11:08:51Z</time>
      </trkpt>
      <trkpt lat="42.0829010" lon="-8.8904550">
        <ele>31.1</ele>
        <time>2021-05-19T11:08:52Z</time>
      </trkpt>
      <trkpt lat="42.0829010" lon="-8.8904530">
        <ele>31.1</ele>
        <time>2021-05-19T11:08:53Z</time>
      </trkpt>
      <trkpt lat="42.0829060" lon="-8.8904490">
        <ele>31.3</ele>
        <time>2021-05-19T11:08:54Z</time>
      </trkpt>
      <trkpt lat="42.0829050" lon="-8.8904520">
        <ele>31.3</ele>
        <time>2021-05-19T11:08:55Z</time>
      </trkpt>
      <trkpt lat="42.0829070" lon="-8.8904620">
        <ele>31.3</ele>
        <time>2021-05-19T11:08:56Z</time>
      </trkpt>
      <trkpt lat="42.0829070" lon="-8.8904620">
        <ele>31.3</ele>
        <time>2021-05-19T11:08:57Z</time>
      </trkpt>
      <trkpt lat="42.0829070" lon="-8.8904620">
        <ele>31.3</ele>
        <time>2021-05-19T11:08:58Z</time>
      </trkpt>
      <trkpt lat="42.0829070" lon="-8.8904710">
        <ele>31.3</ele>
        <time>2021-05-19T11:08:59Z</time>
      </trkpt>
      <trkpt lat="42.0829070" lon="-8.8904710">
        <ele>31.3</ele>
        <time>2021-05-19T11:09:00Z</time>
      </trkpt>
      <trkpt lat="42.0829070" lon="-8.8904710">
        <ele>31.3</ele>
        <time>2021-05-19T11:09:01Z</time>
      </trkpt>
      <trkpt lat="42.0829070" lon="-8.8904710">
        <ele>31.3</ele>
        <time>2021-05-19T11:09:02Z</time>
      </trkpt>
      <trkpt lat="42.0829070" lon="-8.8904710">
        <ele>31.3</ele>
        <time>2021-05-19T11:09:03Z</time>
      </trkpt>
      <trkpt lat="42.0829070" lon="-8.8904710">
        <ele>31.3</ele>
        <time>2021-05-19T11:09:04Z</time>
      </trkpt>
      <trkpt lat="42.0829070" lon="-8.8904710">
        <ele>31.3</ele>
        <time>2021-05-19T11:09:05Z</time>
      </trkpt>
      <trkpt lat="42.0829070" lon="-8.8904710">
        <ele>31.3</ele>
        <time>2021-05-19T11:09:06Z</time>
      </trkpt>
      <trkpt lat="42.0829070" lon="-8.8904710">
        <ele>31.3</ele>
        <time>2021-05-19T11:09:07Z</time>
      </trkpt>
      <trkpt lat="42.0829070" lon="-8.8904710">
        <ele>31.3</ele>
        <time>2021-05-19T11:09:08Z</time>
      </trkpt>
      <trkpt lat="42.0829100" lon="-8.8904790">
        <ele>30.3</ele>
        <time>2021-05-19T11:09:09Z</time>
      </trkpt>
      <trkpt lat="42.0829100" lon="-8.8904790">
        <ele>30.3</ele>
        <time>2021-05-19T11:09:10Z</time>
      </trkpt>
      <trkpt lat="42.0829100" lon="-8.8904790">
        <ele>30.3</ele>
        <time>2021-05-19T11:09:11Z</time>
      </trkpt>
      <trkpt lat="42.0829100" lon="-8.8904790">
        <ele>30.3</ele>
        <time>2021-05-19T11:09:12Z</time>
      </trkpt>
      <trkpt lat="42.0829100" lon="-8.8904790">
        <ele>30.3</ele>
        <time>2021-05-19T11:09:13Z</time>
      </trkpt>
      <trkpt lat="42.0829100" lon="-8.8904790">
        <ele>30.3</ele>
        <time>2021-05-19T11:09:14Z</time>
      </trkpt>
      <trkpt lat="42.0829100" lon="-8.8904790">
        <ele>30.3</ele>
        <time>2021-05-19T11:09:15Z</time>
      </trkpt>
      <trkpt lat="42.0829100" lon="-8.8904790">
        <ele>30.3</ele>
        <time>2021-05-19T11:09:16Z</time>
      </trkpt>
      <trkpt lat="42.0829100" lon="-8.8904790">
        <ele>30.3</ele>
        <time>2021-05-19T11:09:17Z</time>
      </trkpt>
      <trkpt lat="42.0829100" lon="-8.8904790">
        <ele>30.3</ele>
        <time>2021-05-19T11:09:18Z</time>
      </trkpt>
      <trkpt lat="42.0829100" lon="-8.8904790">
        <ele>30.3</ele>
        <time>2021-05-19T11:09:19Z</time>
      </trkpt>
      <trkpt lat="42.0829100" lon="-8.8904790">
        <ele>30.3</ele>
        <time>2021-05-19T11:09:20Z</time>
      </trkpt>
      <trkpt lat="42.0829100" lon="-8.8904790">
        <ele>30.3</ele>
        <time>2021-05-19T11:09:21Z</time>
      </trkpt>
      <trkpt lat="42.0829100" lon="-8.8904790">
        <ele>30.3</ele>
        <time>2021-05-19T11:09:22Z</time>
      </trkpt>
      <trkpt lat="42.0829100" lon="-8.8904790">
        <ele>30.3</ele>
        <time>2021-05-19T11:09:23Z</time>
      </trkpt>
      <trkpt lat="42.0829100" lon="-8.8904790">
        <ele>30.3</ele>
        <time>2021-05-19T11:09:24Z</time>
      </trkpt>
      <trkpt lat="42.0829110" lon="-8.8904860">
        <ele>30.3</ele>
        <time>2021-05-19T11:09:25Z</time>
      </trkpt>
      <trkpt lat="42.0829120" lon="-8.8904870">
        <ele>30.3</ele>
        <time>2021-05-19T11:09:26Z</time>
      </trkpt>
      <trkpt lat="42.0829120" lon="-8.8904870">
        <ele>30.3</ele>
        <time>2021-05-19T11:09:27Z</time>
      </trkpt>
      <trkpt lat="42.0829120" lon="-8.8904870">
        <ele>30.3</ele>
        <time>2021-05-19T11:09:28Z</time>
      </trkpt>
      <trkpt lat="42.0829120" lon="-8.8904870">
        <ele>30.3</ele>
        <time>2021-05-19T11:09:29Z</time>
      </trkpt>
      <trkpt lat="42.0829130" lon="-8.8904880">
        <ele>30.3</ele>
        <time>2021-05-19T11:09:30Z</time>
      </trkpt>
      <trkpt lat="42.0829150" lon="-8.8904870">
        <ele>30.3</ele>
        <time>2021-05-19T11:09:31Z</time>
      </trkpt>
      <trkpt lat="42.0829160" lon="-8.8904810">
        <ele>30.3</ele>
        <time>2021-05-19T11:09:32Z</time>
      </trkpt>
      <trkpt lat="42.0829140" lon="-8.8904830">
        <ele>30.3</ele>
        <time>2021-05-19T11:09:33Z</time>
      </trkpt>
      <trkpt lat="42.0829140" lon="-8.8904830">
        <ele>30.3</ele>
        <time>2021-05-19T11:09:34Z</time>
      </trkpt>
      <trkpt lat="42.0829110" lon="-8.8904810">
        <ele>30.3</ele>
        <time>2021-05-19T11:09:35Z</time>
      </trkpt>
      <trkpt lat="42.0829110" lon="-8.8904790">
        <ele>30.3</ele>
        <time>2021-05-19T11:09:36Z</time>
      </trkpt>
      <trkpt lat="42.0829110" lon="-8.8904830">
        <ele>30.3</ele>
        <time>2021-05-19T11:09:37Z</time>
      </trkpt>
      <trkpt lat="42.0829110" lon="-8.8904810">
        <ele>30.3</ele>
        <time>2021-05-19T11:09:38Z</time>
      </trkpt>
      <trkpt lat="42.0829120" lon="-8.8904790">
        <ele>30.3</ele>
        <time>2021-05-19T11:09:39Z</time>
      </trkpt>
      <trkpt lat="42.0829100" lon="-8.8904790">
        <ele>30.3</ele>
        <time>2021-05-19T11:09:40Z</time>
      </trkpt>
      <trkpt lat="42.0829110" lon="-8.8904790">
        <ele>30.3</ele>
        <time>2021-05-19T11:09:41Z</time>
      </trkpt>
      <trkpt lat="42.0829120" lon="-8.8904780">
        <ele>30.3</ele>
        <time>2021-05-19T11:09:42Z</time>
      </trkpt>
      <trkpt lat="42.0829120" lon="-8.8904790">
        <ele>30.3</ele>
        <time>2021-05-19T11:09:43Z</time>
      </trkpt>
      <trkpt lat="42.0829110" lon="-8.8904820">
        <ele>30.3</ele>
        <time>2021-05-19T11:09:44Z</time>
      </trkpt>
      <trkpt lat="42.0829130" lon="-8.8904830">
        <ele>30.3</ele>
        <time>2021-05-19T11:09:45Z</time>
      </trkpt>
      <trkpt lat="42.0829120" lon="-8.8904860">
        <ele>30.3</ele>
        <time>2021-05-19T11:09:46Z</time>
      </trkpt>
      <trkpt lat="42.0829130" lon="-8.8904890">
        <ele>30.3</ele>
        <time>2021-05-19T11:09:47Z</time>
      </trkpt>
      <trkpt lat="42.0829130" lon="-8.8904890">
        <ele>30.3</ele>
        <time>2021-05-19T11:09:48Z</time>
      </trkpt>
      <trkpt lat="42.0829130" lon="-8.8904890">
        <ele>30.3</ele>
        <time>2021-05-19T11:09:49Z</time>
      </trkpt>
      <trkpt lat="42.0829120" lon="-8.8904860">
        <ele>30.3</ele>
        <time>2021-05-19T11:09:50Z</time>
      </trkpt>
      <trkpt lat="42.0829130" lon="-8.8904850">
        <ele>30.3</ele>
        <time>2021-05-19T11:09:51Z</time>
      </trkpt>
      <trkpt lat="42.0829110" lon="-8.8904860">
        <ele>30.3</ele>
        <time>2021-05-19T11:09:52Z</time>
      </trkpt>
      <trkpt lat="42.0829110" lon="-8.8904860">
        <ele>30.3</ele>
        <time>2021-05-19T11:09:53Z</time>
      </trkpt>
      <trkpt lat="42.0829110" lon="-8.8904880">
        <ele>30.3</ele>
        <time>2021-05-19T11:09:54Z</time>
      </trkpt>
      <trkpt lat="42.0829100" lon="-8.8904860">
        <ele>30.3</ele>
        <time>2021-05-19T11:09:55Z</time>
      </trkpt>
      <trkpt lat="42.0829100" lon="-8.8904830">
        <ele>30.3</ele>
        <time>2021-05-19T11:09:56Z</time>
      </trkpt>
      <trkpt lat="42.0829090" lon="-8.8904850">
        <ele>30.3</ele>
        <time>2021-05-19T11:09:57Z</time>
      </trkpt>
      <trkpt lat="42.0829090" lon="-8.8904870">
        <ele>30.3</ele>
        <time>2021-05-19T11:09:58Z</time>
      </trkpt>
      <trkpt lat="42.0829090" lon="-8.8904860">
        <ele>30.3</ele>
        <time>2021-05-19T11:09:59Z</time>
      </trkpt>
      <trkpt lat="42.0829100" lon="-8.8904850">
        <ele>30.3</ele>
        <time>2021-05-19T11:10:00Z</time>
      </trkpt>
      <trkpt lat="42.0829120" lon="-8.8904850">
        <ele>30.3</ele>
        <time>2021-05-19T11:10:01Z</time>
      </trkpt>
      <trkpt lat="42.0829110" lon="-8.8904820">
        <ele>30.3</ele>
        <time>2021-05-19T11:10:02Z</time>
      </trkpt>
      <trkpt lat="42.0829110" lon="-8.8904830">
        <ele>30.3</ele>
        <time>2021-05-19T11:10:03Z</time>
      </trkpt>
      <trkpt lat="42.0829120" lon="-8.8904840">
        <ele>30.3</ele>
        <time>2021-05-19T11:10:04Z</time>
      </trkpt>
      <trkpt lat="42.0829120" lon="-8.8904840">
        <ele>30.3</ele>
        <time>2021-05-19T11:10:05Z</time>
      </trkpt>
      <trkpt lat="42.0829160" lon="-8.8904850">
        <ele>30.3</ele>
        <time>2021-05-19T11:10:06Z</time>
      </trkpt>
      <trkpt lat="42.0829180" lon="-8.8904850">
        <ele>30.3</ele>
        <time>2021-05-19T11:10:07Z</time>
      </trkpt>
      <trkpt lat="42.0829180" lon="-8.8904850">
        <ele>30.3</ele>
        <time>2021-05-19T11:10:08Z</time>
      </trkpt>
      <trkpt lat="42.0829210" lon="-8.8904880">
        <ele>30.3</ele>
        <time>2021-05-19T11:10:09Z</time>
      </trkpt>
      <trkpt lat="42.0829230" lon="-8.8904870">
        <ele>30.3</ele>
        <time>2021-05-19T11:10:10Z</time>
      </trkpt>
      <trkpt lat="42.0829230" lon="-8.8904930">
        <ele>30.3</ele>
        <time>2021-05-19T11:10:11Z</time>
      </trkpt>
      <trkpt lat="42.0829240" lon="-8.8904970">
        <ele>30.3</ele>
        <time>2021-05-19T11:10:12Z</time>
      </trkpt>
      <trkpt lat="42.0829240" lon="-8.8904960">
        <ele>30.3</ele>
        <time>2021-05-19T11:10:13Z</time>
      </trkpt>
      <trkpt lat="42.0829240" lon="-8.8904960">
        <ele>30.3</ele>
        <time>2021-05-19T11:10:14Z</time>
      </trkpt>
      <trkpt lat="42.0829240" lon="-8.8904960">
        <ele>30.3</ele>
        <time>2021-05-19T11:10:15Z</time>
      </trkpt>
      <trkpt lat="42.0829240" lon="-8.8904960">
        <ele>30.3</ele>
        <time>2021-05-19T11:10:16Z</time>
      </trkpt>
      <trkpt lat="42.0829240" lon="-8.8904950">
        <ele>30.3</ele>
        <time>2021-05-19T11:10:17Z</time>
      </trkpt>
      <trkpt lat="42.0829240" lon="-8.8904950">
        <ele>30.3</ele>
        <time>2021-05-19T11:10:18Z</time>
      </trkpt>
      <trkpt lat="42.0829240" lon="-8.8904950">
        <ele>30.3</ele>
        <time>2021-05-19T11:10:19Z</time>
      </trkpt>
      <trkpt lat="42.0829240" lon="-8.8904950">
        <ele>30.3</ele>
        <time>2021-05-19T11:10:20Z</time>
      </trkpt>
      <trkpt lat="42.0829240" lon="-8.8904940">
        <ele>30.3</ele>
        <time>2021-05-19T11:10:21Z</time>
      </trkpt>
      <trkpt lat="42.0829240" lon="-8.8904940">
        <ele>30.3</ele>
        <time>2021-05-19T11:10:22Z</time>
      </trkpt>
      <trkpt lat="42.0829240" lon="-8.8904940">
        <ele>30.3</ele>
        <time>2021-05-19T11:10:23Z</time>
      </trkpt>
      <trkpt lat="42.0829240" lon="-8.8904940">
        <ele>30.3</ele>
        <time>2021-05-19T11:10:24Z</time>
      </trkpt>
      <trkpt lat="42.0829240" lon="-8.8904930">
        <ele>30.3</ele>
        <time>2021-05-19T11:10:25Z</time>
      </trkpt>
      <trkpt lat="42.0829240" lon="-8.8904930">
        <ele>30.3</ele>
        <time>2021-05-19T11:10:26Z</time>
      </trkpt>
      <trkpt lat="42.0829240" lon="-8.8904930">
        <ele>30.3</ele>
        <time>2021-05-19T11:10:27Z</time>
      </trkpt>
      <trkpt lat="42.0829240" lon="-8.8904930">
        <ele>30.3</ele>
        <time>2021-05-19T11:10:28Z</time>
      </trkpt>
      <trkpt lat="42.0829240" lon="-8.8904920">
        <ele>30.3</ele>
        <time>2021-05-19T11:10:29Z</time>
      </trkpt>
      <trkpt lat="42.0829240" lon="-8.8904920">
        <ele>30.3</ele>
        <time>2021-05-19T11:10:30Z</time>
      </trkpt>
      <trkpt lat="42.0829240" lon="-8.8904920">
        <ele>30.3</ele>
        <time>2021-05-19T11:10:31Z</time>
      </trkpt>
      <trkpt lat="42.0829240" lon="-8.8904920">
        <ele>30.3</ele>
        <time>2021-05-19T11:10:32Z</time>
      </trkpt>
      <trkpt lat="42.0829240" lon="-8.8904910">
        <ele>30.3</ele>
        <time>2021-05-19T11:10:33Z</time>
      </trkpt>
      <trkpt lat="42.0829240" lon="-8.8904910">
        <ele>30.3</ele>
        <time>2021-05-19T11:10:34Z</time>
      </trkpt>
      <trkpt lat="42.0829240" lon="-8.8904910">
        <ele>30.3</ele>
        <time>2021-05-19T11:10:35Z</time>
      </trkpt>
      <trkpt lat="42.0829240" lon="-8.8904910">
        <ele>30.3</ele>
        <time>2021-05-19T11:10:36Z</time>
      </trkpt>
      <trkpt lat="42.0829240" lon="-8.8904900">
        <ele>30.3</ele>
        <time>2021-05-19T11:10:37Z</time>
      </trkpt>
      <trkpt lat="42.0829240" lon="-8.8904900">
        <ele>30.3</ele>
        <time>2021-05-19T11:10:38Z</time>
      </trkpt>
      <trkpt lat="42.0829230" lon="-8.8904900">
        <ele>30.3</ele>
        <time>2021-05-19T11:10:39Z</time>
      </trkpt>
      <trkpt lat="42.0829230" lon="-8.8904900">
        <ele>30.3</ele>
        <time>2021-05-19T11:10:40Z</time>
      </trkpt>
      <trkpt lat="42.0829230" lon="-8.8904890">
        <ele>30.3</ele>
        <time>2021-05-19T11:10:41Z</time>
      </trkpt>
      <trkpt lat="42.0829230" lon="-8.8904890">
        <ele>30.3</ele>
        <time>2021-05-19T11:10:42Z</time>
      </trkpt>
      <trkpt lat="42.0829230" lon="-8.8904890">
        <ele>30.3</ele>
        <time>2021-05-19T11:10:43Z</time>
      </trkpt>
      <trkpt lat="42.0829230" lon="-8.8904890">
        <ele>30.3</ele>
        <time>2021-05-19T11:10:44Z</time>
      </trkpt>
      <trkpt lat="42.0829230" lon="-8.8904880">
        <ele>30.3</ele>
        <time>2021-05-19T11:10:45Z</time>
      </trkpt>
      <trkpt lat="42.0829230" lon="-8.8904880">
        <ele>30.3</ele>
        <time>2021-05-19T11:10:46Z</time>
      </trkpt>
      <trkpt lat="42.0829230" lon="-8.8904880">
        <ele>30.3</ele>
        <time>2021-05-19T11:10:47Z</time>
      </trkpt>
      <trkpt lat="42.0829230" lon="-8.8904880">
        <ele>30.3</ele>
        <time>2021-05-19T11:10:48Z</time>
      </trkpt>
      <trkpt lat="42.0829230" lon="-8.8904870">
        <ele>30.3</ele>
        <time>2021-05-19T11:10:49Z</time>
      </trkpt>
      <trkpt lat="42.0829230" lon="-8.8904870">
        <ele>30.3</ele>
        <time>2021-05-19T11:10:50Z</time>
      </trkpt>
      <trkpt lat="42.0829230" lon="-8.8904870">
        <ele>30.3</ele>
        <time>2021-05-19T11:10:51Z</time>
      </trkpt>
      <trkpt lat="42.0829230" lon="-8.8904870">
        <ele>30.3</ele>
        <time>2021-05-19T11:10:52Z</time>
      </trkpt>
      <trkpt lat="42.0829230" lon="-8.8904860">
        <ele>30.3</ele>
        <time>2021-05-19T11:10:53Z</time>
      </trkpt>
      <trkpt lat="42.0829230" lon="-8.8904860">
        <ele>30.3</ele>
        <time>2021-05-19T11:10:54Z</time>
      </trkpt>
      <trkpt lat="42.0829230" lon="-8.8904860">
        <ele>30.3</ele>
        <time>2021-05-19T11:10:55Z</time>
      </trkpt>
      <trkpt lat="42.0829230" lon="-8.8904860">
        <ele>30.3</ele>
        <time>2021-05-19T11:10:56Z</time>
      </trkpt>
      <trkpt lat="42.0829230" lon="-8.8904850">
        <ele>30.3</ele>
        <time>2021-05-19T11:10:57Z</time>
      </trkpt>
      <trkpt lat="42.0829230" lon="-8.8904850">
        <ele>30.3</ele>
        <time>2021-05-19T11:10:58Z</time>
      </trkpt>
      <trkpt lat="42.0829230" lon="-8.8904850">
        <ele>30.3</ele>
        <time>2021-05-19T11:10:59Z</time>
      </trkpt>
      <trkpt lat="42.0829230" lon="-8.8904850">
        <ele>30.3</ele>
        <time>2021-05-19T11:11:00Z</time>
      </trkpt>
      <trkpt lat="42.0829230" lon="-8.8904840">
        <ele>30.3</ele>
        <time>2021-05-19T11:11:01Z</time>
      </trkpt>
      <trkpt lat="42.0829230" lon="-8.8904840">
        <ele>30.3</ele>
        <time>2021-05-19T11:11:02Z</time>
      </trkpt>
      <trkpt lat="42.0829230" lon="-8.8904840">
        <ele>30.3</ele>
        <time>2021-05-19T11:11:03Z</time>
      </trkpt>
      <trkpt lat="42.0829230" lon="-8.8904840">
        <ele>30.3</ele>
        <time>2021-05-19T11:11:04Z</time>
      </trkpt>
      <trkpt lat="42.0829230" lon="-8.8904830">
        <ele>30.3</ele>
        <time>2021-05-19T11:11:05Z</time>
      </trkpt>
      <trkpt lat="42.0829230" lon="-8.8904830">
        <ele>30.3</ele>
        <time>2021-05-19T11:11:06Z</time>
      </trkpt>
      <trkpt lat="42.0829230" lon="-8.8904830">
        <ele>30.3</ele>
        <time>2021-05-19T11:11:07Z</time>
      </trkpt>
      <trkpt lat="42.0829230" lon="-8.8904830">
        <ele>30.3</ele>
        <time>2021-05-19T11:11:08Z</time>
      </trkpt>
      <trkpt lat="42.0829230" lon="-8.8904820">
        <ele>30.3</ele>
        <time>2021-05-19T11:11:09Z</time>
      </trkpt>
      <trkpt lat="42.0829230" lon="-8.8904820">
        <ele>30.3</ele>
        <time>2021-05-19T11:11:10Z</time>
      </trkpt>
      <trkpt lat="42.0829230" lon="-8.8904820">
        <ele>30.3</ele>
        <time>2021-05-19T11:11:11Z</time>
      </trkpt>
      <trkpt lat="42.0829230" lon="-8.8904820">
        <ele>30.3</ele>
        <time>2021-05-19T11:11:12Z</time>
      </trkpt>
      <trkpt lat="42.0829230" lon="-8.8904810">
        <ele>30.3</ele>
        <time>2021-05-19T11:11:13Z</time>
      </trkpt>
      <trkpt lat="42.0829230" lon="-8.8904810">
        <ele>30.3</ele>
        <time>2021-05-19T11:11:14Z</time>
      </trkpt>
      <trkpt lat="42.0829230" lon="-8.8904810">
        <ele>30.3</ele>
        <time>2021-05-19T11:11:15Z</time>
      </trkpt>
      <trkpt lat="42.0829230" lon="-8.8904810">
        <ele>30.3</ele>
        <time>2021-05-19T11:11:16Z</time>
      </trkpt>
      <trkpt lat="42.0829230" lon="-8.8904800">
        <ele>30.3</ele>
        <time>2021-05-19T11:11:17Z</time>
      </trkpt>
      <trkpt lat="42.0829230" lon="-8.8904800">
        <ele>30.3</ele>
        <time>2021-05-19T11:11:18Z</time>
      </trkpt>
      <trkpt lat="42.0829230" lon="-8.8904800">
        <ele>30.3</ele>
        <time>2021-05-19T11:11:19Z</time>
      </trkpt>
      <trkpt lat="42.0829230" lon="-8.8904800">
        <ele>30.3</ele>
        <time>2021-05-19T11:11:20Z</time>
      </trkpt>
      <trkpt lat="42.0829230" lon="-8.8904790">
        <ele>30.3</ele>
        <time>2021-05-19T11:11:21Z</time>
      </trkpt>
      <trkpt lat="42.0829230" lon="-8.8904790">
        <ele>30.3</ele>
        <time>2021-05-19T11:11:22Z</time>
      </trkpt>
      <trkpt lat="42.0829230" lon="-8.8904790">
        <ele>30.3</ele>
        <time>2021-05-19T11:11:23Z</time>
      </trkpt>
      <trkpt lat="42.0829230" lon="-8.8904780">
        <ele>30.3</ele>
        <time>2021-05-19T11:11:24Z</time>
      </trkpt>
      <trkpt lat="42.0829230" lon="-8.8904780">
        <ele>30.3</ele>
        <time>2021-05-19T11:11:25Z</time>
      </trkpt>
      <trkpt lat="42.0829230" lon="-8.8904780">
        <ele>30.3</ele>
        <time>2021-05-19T11:11:26Z</time>
      </trkpt>
      <trkpt lat="42.0829230" lon="-8.8904780">
        <ele>30.3</ele>
        <time>2021-05-19T11:11:27Z</time>
      </trkpt>
      <trkpt lat="42.0829230" lon="-8.8904770">
        <ele>30.3</ele>
        <time>2021-05-19T11:11:28Z</time>
      </trkpt>
      <trkpt lat="42.0829230" lon="-8.8904770">
        <ele>30.3</ele>
        <time>2021-05-19T11:11:29Z</time>
      </trkpt>
      <trkpt lat="42.0829230" lon="-8.8904770">
        <ele>30.3</ele>
        <time>2021-05-19T11:11:30Z</time>
      </trkpt>
      <trkpt lat="42.0829230" lon="-8.8904770">
        <ele>30.3</ele>
        <time>2021-05-19T11:11:31Z</time>
      </trkpt>
      <trkpt lat="42.0829230" lon="-8.8904760">
        <ele>30.3</ele>
        <time>2021-05-19T11:11:32Z</time>
      </trkpt>
      <trkpt lat="42.0829220" lon="-8.8904760">
        <ele>30.3</ele>
        <time>2021-05-19T11:11:33Z</time>
      </trkpt>
      <trkpt lat="42.0829220" lon="-8.8904760">
        <ele>30.3</ele>
        <time>2021-05-19T11:11:34Z</time>
      </trkpt>
      <trkpt lat="42.0829220" lon="-8.8904760">
        <ele>30.3</ele>
        <time>2021-05-19T11:11:35Z</time>
      </trkpt>
      <trkpt lat="42.0829220" lon="-8.8904750">
        <ele>30.3</ele>
        <time>2021-05-19T11:11:36Z</time>
      </trkpt>
      <trkpt lat="42.0829220" lon="-8.8904750">
        <ele>30.3</ele>
        <time>2021-05-19T11:11:37Z</time>
      </trkpt>
      <trkpt lat="42.0829220" lon="-8.8904750">
        <ele>30.3</ele>
        <time>2021-05-19T11:11:38Z</time>
      </trkpt>
      <trkpt lat="42.0829220" lon="-8.8904750">
        <ele>30.3</ele>
        <time>2021-05-19T11:11:39Z</time>
      </trkpt>
      <trkpt lat="42.0829220" lon="-8.8904740">
        <ele>30.3</ele>
        <time>2021-05-19T11:11:40Z</time>
      </trkpt>
      <trkpt lat="42.0829220" lon="-8.8904740">
        <ele>30.3</ele>
        <time>2021-05-19T11:11:41Z</time>
      </trkpt>
      <trkpt lat="42.0829220" lon="-8.8904740">
        <ele>30.3</ele>
        <time>2021-05-19T11:11:42Z</time>
      </trkpt>
      <trkpt lat="42.0829220" lon="-8.8904740">
        <ele>30.3</ele>
        <time>2021-05-19T11:11:43Z</time>
      </trkpt>
      <trkpt lat="42.0829220" lon="-8.8904730">
        <ele>30.3</ele>
        <time>2021-05-19T11:11:44Z</time>
      </trkpt>
      <trkpt lat="42.0829220" lon="-8.8904730">
        <ele>30.3</ele>
        <time>2021-05-19T11:11:45Z</time>
      </trkpt>
      <trkpt lat="42.0829220" lon="-8.8904730">
        <ele>30.3</ele>
        <time>2021-05-19T11:11:46Z</time>
      </trkpt>
      <trkpt lat="42.0829220" lon="-8.8904730">
        <ele>30.3</ele>
        <time>2021-05-19T11:11:47Z</time>
      </trkpt>
      <trkpt lat="42.0829220" lon="-8.8904720">
        <ele>30.3</ele>
        <time>2021-05-19T11:11:48Z</time>
      </trkpt>
      <trkpt lat="42.0829220" lon="-8.8904720">
        <ele>30.3</ele>
        <time>2021-05-19T11:11:49Z</time>
      </trkpt>
      <trkpt lat="42.0829220" lon="-8.8904720">
        <ele>30.3</ele>
        <time>2021-05-19T11:11:50Z</time>
      </trkpt>
      <trkpt lat="42.0829220" lon="-8.8904720">
        <ele>30.3</ele>
        <time>2021-05-19T11:11:51Z</time>
      </trkpt>
      <trkpt lat="42.0829220" lon="-8.8904710">
        <ele>31.3</ele>
        <time>2021-05-19T11:11:52Z</time>
      </trkpt>
      <trkpt lat="42.0829220" lon="-8.8904710">
        <ele>31.3</ele>
        <time>2021-05-19T11:11:53Z</time>
      </trkpt>
      <trkpt lat="42.0829220" lon="-8.8904710">
        <ele>31.3</ele>
        <time>2021-05-19T11:11:54Z</time>
      </trkpt>
      <trkpt lat="42.0829220" lon="-8.8904710">
        <ele>31.3</ele>
        <time>2021-05-19T11:11:55Z</time>
      </trkpt>
      <trkpt lat="42.0829220" lon="-8.8904700">
        <ele>31.3</ele>
        <time>2021-05-19T11:11:56Z</time>
      </trkpt>
      <trkpt lat="42.0829220" lon="-8.8904700">
        <ele>31.3</ele>
        <time>2021-05-19T11:11:57Z</time>
      </trkpt>
      <trkpt lat="42.0829220" lon="-8.8904700">
        <ele>31.3</ele>
        <time>2021-05-19T11:11:58Z</time>
      </trkpt>
      <trkpt lat="42.0829220" lon="-8.8904700">
        <ele>31.3</ele>
        <time>2021-05-19T11:11:59Z</time>
      </trkpt>
      <trkpt lat="42.0829220" lon="-8.8904690">
        <ele>31.3</ele>
        <time>2021-05-19T11:12:00Z</time>
      </trkpt>
      <trkpt lat="42.0829220" lon="-8.8904690">
        <ele>31.3</ele>
        <time>2021-05-19T11:12:01Z</time>
      </trkpt>
      <trkpt lat="42.0829220" lon="-8.8904690">
        <ele>31.3</ele>
        <time>2021-05-19T11:12:02Z</time>
      </trkpt>
      <trkpt lat="42.0829220" lon="-8.8904690">
        <ele>31.3</ele>
        <time>2021-05-19T11:12:03Z</time>
      </trkpt>
      <trkpt lat="42.0829220" lon="-8.8904680">
        <ele>31.3</ele>
        <time>2021-05-19T11:12:04Z</time>
      </trkpt>
      <trkpt lat="42.0829220" lon="-8.8904680">
        <ele>31.3</ele>
        <time>2021-05-19T11:12:05Z</time>
      </trkpt>
      <trkpt lat="42.0829220" lon="-8.8904680">
        <ele>31.3</ele>
        <time>2021-05-19T11:12:06Z</time>
      </trkpt>
      <trkpt lat="42.0829220" lon="-8.8904680">
        <ele>31.3</ele>
        <time>2021-05-19T11:12:07Z</time>
      </trkpt>
      <trkpt lat="42.0829220" lon="-8.8904670">
        <ele>31.3</ele>
        <time>2021-05-19T11:12:08Z</time>
      </trkpt>
      <trkpt lat="42.0829220" lon="-8.8904670">
        <ele>31.3</ele>
        <time>2021-05-19T11:12:09Z</time>
      </trkpt>
      <trkpt lat="42.0829220" lon="-8.8904670">
        <ele>31.3</ele>
        <time>2021-05-19T11:12:10Z</time>
      </trkpt>
      <trkpt lat="42.0829220" lon="-8.8904670">
        <ele>31.3</ele>
        <time>2021-05-19T11:12:11Z</time>
      </trkpt>
      <trkpt lat="42.0829220" lon="-8.8904660">
        <ele>31.3</ele>
        <time>2021-05-19T11:12:12Z</time>
      </trkpt>
      <trkpt lat="42.0829220" lon="-8.8904660">
        <ele>31.3</ele>
        <time>2021-05-19T11:12:13Z</time>
      </trkpt>
      <trkpt lat="42.0829220" lon="-8.8904660">
        <ele>31.3</ele>
        <time>2021-05-19T11:12:14Z</time>
      </trkpt>
      <trkpt lat="42.0829220" lon="-8.8904660">
        <ele>31.3</ele>
        <time>2021-05-19T11:12:15Z</time>
      </trkpt>
      <trkpt lat="42.0829220" lon="-8.8904650">
        <ele>31.3</ele>
        <time>2021-05-19T11:12:16Z</time>
      </trkpt>
      <trkpt lat="42.0829220" lon="-8.8904650">
        <ele>31.3</ele>
        <time>2021-05-19T11:12:17Z</time>
      </trkpt>
      <trkpt lat="42.0829220" lon="-8.8904650">
        <ele>31.3</ele>
        <time>2021-05-19T11:12:18Z</time>
      </trkpt>
      <trkpt lat="42.0829220" lon="-8.8904650">
        <ele>31.3</ele>
        <time>2021-05-19T11:12:19Z</time>
      </trkpt>
      <trkpt lat="42.0829220" lon="-8.8904640">
        <ele>31.3</ele>
        <time>2021-05-19T11:12:20Z</time>
      </trkpt>
      <trkpt lat="42.0829220" lon="-8.8904640">
        <ele>31.3</ele>
        <time>2021-05-19T11:12:21Z</time>
      </trkpt>
      <trkpt lat="42.0829220" lon="-8.8904640">
        <ele>31.3</ele>
        <time>2021-05-19T11:12:22Z</time>
      </trkpt>
      <trkpt lat="42.0829220" lon="-8.8904640">
        <ele>31.3</ele>
        <time>2021-05-19T11:12:23Z</time>
      </trkpt>
      <trkpt lat="42.0829220" lon="-8.8904630">
        <ele>31.3</ele>
        <time>2021-05-19T11:12:24Z</time>
      </trkpt>
      <trkpt lat="42.0829220" lon="-8.8904630">
        <ele>31.3</ele>
        <time>2021-05-19T11:12:25Z</time>
      </trkpt>
      <trkpt lat="42.0829220" lon="-8.8904630">
        <ele>31.3</ele>
        <time>2021-05-19T11:12:26Z</time>
      </trkpt>
      <trkpt lat="42.0829210" lon="-8.8904630">
        <ele>31.3</ele>
        <time>2021-05-19T11:12:27Z</time>
      </trkpt>
      <trkpt lat="42.0829210" lon="-8.8904620">
        <ele>31.3</ele>
        <time>2021-05-19T11:12:28Z</time>
      </trkpt>
      <trkpt lat="42.0829210" lon="-8.8904620">
        <ele>31.3</ele>
        <time>2021-05-19T11:12:29Z</time>
      </trkpt>
      <trkpt lat="42.0829210" lon="-8.8904620">
        <ele>31.3</ele>
        <time>2021-05-19T11:12:30Z</time>
      </trkpt>
      <trkpt lat="42.0829210" lon="-8.8904620">
        <ele>31.3</ele>
        <time>2021-05-19T11:12:31Z</time>
      </trkpt>
      <trkpt lat="42.0829210" lon="-8.8904610">
        <ele>31.3</ele>
        <time>2021-05-19T11:12:32Z</time>
      </trkpt>
      <trkpt lat="42.0829210" lon="-8.8904610">
        <ele>31.3</ele>
        <time>2021-05-19T11:12:33Z</time>
      </trkpt>
      <trkpt lat="42.0829210" lon="-8.8904610">
        <ele>31.3</ele>
        <time>2021-05-19T11:12:34Z</time>
      </trkpt>
      <trkpt lat="42.0829210" lon="-8.8904610">
        <ele>31.3</ele>
        <time>2021-05-19T11:12:35Z</time>
      </trkpt>
      <trkpt lat="42.0829210" lon="-8.8904600">
        <ele>31.3</ele>
        <time>2021-05-19T11:12:36Z</time>
      </trkpt>
      <trkpt lat="42.0829210" lon="-8.8904600">
        <ele>31.3</ele>
        <time>2021-05-19T11:12:37Z</time>
      </trkpt>
      <trkpt lat="42.0829210" lon="-8.8904600">
        <ele>31.3</ele>
        <time>2021-05-19T11:12:38Z</time>
      </trkpt>
      <trkpt lat="42.0829210" lon="-8.8904590">
        <ele>31.3</ele>
        <time>2021-05-19T11:12:39Z</time>
      </trkpt>
      <trkpt lat="42.0829210" lon="-8.8904590">
        <ele>31.3</ele>
        <time>2021-05-19T11:12:40Z</time>
      </trkpt>
      <trkpt lat="42.0829210" lon="-8.8904590">
        <ele>31.3</ele>
        <time>2021-05-19T11:12:41Z</time>
      </trkpt>
      <trkpt lat="42.0829210" lon="-8.8904590">
        <ele>31.3</ele>
        <time>2021-05-19T11:12:42Z</time>
      </trkpt>
      <trkpt lat="42.0829210" lon="-8.8904580">
        <ele>31.3</ele>
        <time>2021-05-19T11:12:43Z</time>
      </trkpt>
      <trkpt lat="42.0829210" lon="-8.8904580">
        <ele>31.3</ele>
        <time>2021-05-19T11:12:44Z</time>
      </trkpt>
      <trkpt lat="42.0829210" lon="-8.8904580">
        <ele>31.3</ele>
        <time>2021-05-19T11:12:45Z</time>
      </trkpt>
      <trkpt lat="42.0829210" lon="-8.8904580">
        <ele>31.3</ele>
        <time>2021-05-19T11:12:46Z</time>
      </trkpt>
      <trkpt lat="42.0829210" lon="-8.8904570">
        <ele>31.3</ele>
        <time>2021-05-19T11:12:47Z</time>
      </trkpt>
      <trkpt lat="42.0829210" lon="-8.8904570">
        <ele>31.3</ele>
        <time>2021-05-19T11:12:48Z</time>
      </trkpt>
      <trkpt lat="42.0829210" lon="-8.8904570">
        <ele>31.3</ele>
        <time>2021-05-19T11:12:49Z</time>
      </trkpt>
      <trkpt lat="42.0829210" lon="-8.8904570">
        <ele>31.3</ele>
        <time>2021-05-19T11:12:50Z</time>
      </trkpt>
      <trkpt lat="42.0829210" lon="-8.8904560">
        <ele>31.3</ele>
        <time>2021-05-19T11:12:51Z</time>
      </trkpt>
      <trkpt lat="42.0829210" lon="-8.8904560">
        <ele>31.3</ele>
        <time>2021-05-19T11:12:52Z</time>
      </trkpt>
      <trkpt lat="42.0829210" lon="-8.8904560">
        <ele>31.3</ele>
        <time>2021-05-19T11:12:53Z</time>
      </trkpt>
      <trkpt lat="42.0829210" lon="-8.8904560">
        <ele>31.3</ele>
        <time>2021-05-19T11:12:54Z</time>
      </trkpt>
      <trkpt lat="42.0829210" lon="-8.8904550">
        <ele>31.3</ele>
        <time>2021-05-19T11:12:55Z</time>
      </trkpt>
      <trkpt lat="42.0829210" lon="-8.8904550">
        <ele>31.3</ele>
        <time>2021-05-19T11:12:56Z</time>
      </trkpt>
      <trkpt lat="42.0829210" lon="-8.8904550">
        <ele>31.3</ele>
        <time>2021-05-19T11:12:57Z</time>
      </trkpt>
      <trkpt lat="42.0829210" lon="-8.8904550">
        <ele>31.3</ele>
        <time>2021-05-19T11:12:58Z</time>
      </trkpt>
      <trkpt lat="42.0829210" lon="-8.8904540">
        <ele>31.3</ele>
        <time>2021-05-19T11:12:59Z</time>
      </trkpt>
      <trkpt lat="42.0829210" lon="-8.8904540">
        <ele>31.3</ele>
        <time>2021-05-19T11:13:00Z</time>
      </trkpt>
      <trkpt lat="42.0829210" lon="-8.8904540">
        <ele>31.3</ele>
        <time>2021-05-19T11:13:01Z</time>
      </trkpt>
      <trkpt lat="42.0829210" lon="-8.8904540">
        <ele>31.3</ele>
        <time>2021-05-19T11:13:02Z</time>
      </trkpt>
      <trkpt lat="42.0829210" lon="-8.8904530">
        <ele>31.3</ele>
        <time>2021-05-19T11:13:03Z</time>
      </trkpt>
      <trkpt lat="42.0829210" lon="-8.8904530">
        <ele>31.3</ele>
        <time>2021-05-19T11:13:04Z</time>
      </trkpt>
      <trkpt lat="42.0829210" lon="-8.8904530">
        <ele>31.3</ele>
        <time>2021-05-19T11:13:05Z</time>
      </trkpt>
      <trkpt lat="42.0829210" lon="-8.8904530">
        <ele>31.3</ele>
        <time>2021-05-19T11:13:06Z</time>
      </trkpt>
      <trkpt lat="42.0829210" lon="-8.8904520">
        <ele>31.3</ele>
        <time>2021-05-19T11:13:07Z</time>
      </trkpt>
      <trkpt lat="42.0829210" lon="-8.8904520">
        <ele>31.3</ele>
        <time>2021-05-19T11:13:08Z</time>
      </trkpt>
      <trkpt lat="42.0829210" lon="-8.8904520">
        <ele>31.3</ele>
        <time>2021-05-19T11:13:09Z</time>
      </trkpt>
      <trkpt lat="42.0829210" lon="-8.8904520">
        <ele>31.3</ele>
        <time>2021-05-19T11:13:10Z</time>
      </trkpt>
      <trkpt lat="42.0829210" lon="-8.8904510">
        <ele>31.3</ele>
        <time>2021-05-19T11:13:11Z</time>
      </trkpt>
      <trkpt lat="42.0829210" lon="-8.8904510">
        <ele>31.3</ele>
        <time>2021-05-19T11:13:12Z</time>
      </trkpt>
      <trkpt lat="42.0829210" lon="-8.8904510">
        <ele>31.3</ele>
        <time>2021-05-19T11:13:13Z</time>
      </trkpt>
      <trkpt lat="42.0829210" lon="-8.8904510">
        <ele>31.3</ele>
        <time>2021-05-19T11:13:14Z</time>
      </trkpt>
      <trkpt lat="42.0829210" lon="-8.8904500">
        <ele>31.3</ele>
        <time>2021-05-19T11:13:15Z</time>
      </trkpt>
      <trkpt lat="42.0829210" lon="-8.8904500">
        <ele>31.3</ele>
        <time>2021-05-19T11:13:16Z</time>
      </trkpt>
      <trkpt lat="42.0829210" lon="-8.8904500">
        <ele>31.3</ele>
        <time>2021-05-19T11:13:17Z</time>
      </trkpt>
      <trkpt lat="42.0829210" lon="-8.8904500">
        <ele>31.3</ele>
        <time>2021-05-19T11:13:18Z</time>
      </trkpt>
      <trkpt lat="42.0829210" lon="-8.8904490">
        <ele>31.3</ele>
        <time>2021-05-19T11:13:19Z</time>
      </trkpt>
      <trkpt lat="42.0829210" lon="-8.8904490">
        <ele>31.3</ele>
        <time>2021-05-19T11:13:20Z</time>
      </trkpt>
      <trkpt lat="42.0829200" lon="-8.8904490">
        <ele>31.3</ele>
        <time>2021-05-19T11:13:21Z</time>
      </trkpt>
      <trkpt lat="42.0829200" lon="-8.8904490">
        <ele>31.3</ele>
        <time>2021-05-19T11:13:22Z</time>
      </trkpt>
      <trkpt lat="42.0829200" lon="-8.8904480">
        <ele>31.3</ele>
        <time>2021-05-19T11:13:23Z</time>
      </trkpt>
      <trkpt lat="42.0829200" lon="-8.8904480">
        <ele>31.3</ele>
        <time>2021-05-19T11:13:24Z</time>
      </trkpt>
      <trkpt lat="42.0829200" lon="-8.8904480">
        <ele>31.3</ele>
        <time>2021-05-19T11:13:25Z</time>
      </trkpt>
      <trkpt lat="42.0829200" lon="-8.8904480">
        <ele>31.3</ele>
        <time>2021-05-19T11:13:26Z</time>
      </trkpt>
      <trkpt lat="42.0829200" lon="-8.8904470">
        <ele>31.3</ele>
        <time>2021-05-19T11:13:27Z</time>
      </trkpt>
      <trkpt lat="42.0829200" lon="-8.8904470">
        <ele>31.3</ele>
        <time>2021-05-19T11:13:28Z</time>
      </trkpt>
      <trkpt lat="42.0829200" lon="-8.8904470">
        <ele>31.3</ele>
        <time>2021-05-19T11:13:29Z</time>
      </trkpt>
      <trkpt lat="42.0829200" lon="-8.8904470">
        <ele>31.3</ele>
        <time>2021-05-19T11:13:30Z</time>
      </trkpt>
      <trkpt lat="42.0829200" lon="-8.8904460">
        <ele>31.3</ele>
        <time>2021-05-19T11:13:31Z</time>
      </trkpt>
      <trkpt lat="42.0829200" lon="-8.8904460">
        <ele>31.3</ele>
        <time>2021-05-19T11:13:32Z</time>
      </trkpt>
      <trkpt lat="42.0829200" lon="-8.8904460">
        <ele>31.3</ele>
        <time>2021-05-19T11:13:33Z</time>
      </trkpt>
      <trkpt lat="42.0829200" lon="-8.8904460">
        <ele>31.3</ele>
        <time>2021-05-19T11:13:34Z</time>
      </trkpt>
      <trkpt lat="42.0829200" lon="-8.8904450">
        <ele>31.3</ele>
        <time>2021-05-19T11:13:35Z</time>
      </trkpt>
      <trkpt lat="42.0829200" lon="-8.8904450">
        <ele>31.3</ele>
        <time>2021-05-19T11:13:36Z</time>
      </trkpt>
      <trkpt lat="42.0829200" lon="-8.8904450">
        <ele>31.3</ele>
        <time>2021-05-19T11:13:37Z</time>
      </trkpt>
      <trkpt lat="42.0829200" lon="-8.8904450">
        <ele>31.3</ele>
        <time>2021-05-19T11:13:38Z</time>
      </trkpt>
      <trkpt lat="42.0829200" lon="-8.8904440">
        <ele>31.3</ele>
        <time>2021-05-19T11:13:39Z</time>
      </trkpt>
      <trkpt lat="42.0829200" lon="-8.8904440">
        <ele>31.3</ele>
        <time>2021-05-19T11:13:40Z</time>
      </trkpt>
      <trkpt lat="42.0829200" lon="-8.8904440">
        <ele>31.3</ele>
        <time>2021-05-19T11:13:41Z</time>
      </trkpt>
      <trkpt lat="42.0829200" lon="-8.8904440">
        <ele>31.3</ele>
        <time>2021-05-19T11:13:42Z</time>
      </trkpt>
      <trkpt lat="42.0829200" lon="-8.8904430">
        <ele>31.3</ele>
        <time>2021-05-19T11:13:43Z</time>
      </trkpt>
      <trkpt lat="42.0829200" lon="-8.8904430">
        <ele>31.3</ele>
        <time>2021-05-19T11:13:44Z</time>
      </trkpt>
      <trkpt lat="42.0829200" lon="-8.8904430">
        <ele>31.3</ele>
        <time>2021-05-19T11:13:45Z</time>
      </trkpt>
      <trkpt lat="42.0829200" lon="-8.8904430">
        <ele>31.3</ele>
        <time>2021-05-19T11:13:46Z</time>
      </trkpt>
      <trkpt lat="42.0829200" lon="-8.8904420">
        <ele>31.3</ele>
        <time>2021-05-19T11:13:47Z</time>
      </trkpt>
      <trkpt lat="42.0829200" lon="-8.8904420">
        <ele>31.3</ele>
        <time>2021-05-19T11:13:48Z</time>
      </trkpt>
      <trkpt lat="42.0829310" lon="-8.8904320">
        <ele>31.3</ele>
        <time>2021-05-19T11:13:49Z</time>
      </trkpt>
      <trkpt lat="42.0829420" lon="-8.8904220">
        <ele>32.6</ele>
        <time>2021-05-19T11:13:50Z</time>
      </trkpt>
      <trkpt lat="42.0829430" lon="-8.8904180">
        <ele>32.6</ele>
        <time>2021-05-19T11:13:51Z</time>
      </trkpt>
      <trkpt lat="42.0829410" lon="-8.8904190">
        <ele>32.6</ele>
        <time>2021-05-19T11:13:52Z</time>
      </trkpt>
      <trkpt lat="42.0829410" lon="-8.8904200">
        <ele>32.6</ele>
        <time>2021-05-19T11:13:53Z</time>
      </trkpt>
      <trkpt lat="42.0829410" lon="-8.8904200">
        <ele>32.6</ele>
        <time>2021-05-19T11:13:54Z</time>
      </trkpt>
      <trkpt lat="42.0829410" lon="-8.8904210">
        <ele>32.6</ele>
        <time>2021-05-19T11:13:55Z</time>
      </trkpt>
      <trkpt lat="42.0829400" lon="-8.8904210">
        <ele>32.6</ele>
        <time>2021-05-19T11:13:56Z</time>
      </trkpt>
      <trkpt lat="42.0829400" lon="-8.8904220">
        <ele>32.6</ele>
        <time>2021-05-19T11:13:57Z</time>
      </trkpt>
      <trkpt lat="42.0829400" lon="-8.8904220">
        <ele>32.6</ele>
        <time>2021-05-19T11:13:58Z</time>
      </trkpt>
      <trkpt lat="42.0829400" lon="-8.8904220">
        <ele>32.6</ele>
        <time>2021-05-19T11:13:59Z</time>
      </trkpt>
      <trkpt lat="42.0829400" lon="-8.8904230">
        <ele>32.6</ele>
        <time>2021-05-19T11:14:00Z</time>
      </trkpt>
      <trkpt lat="42.0829400" lon="-8.8904230">
        <ele>32.6</ele>
        <time>2021-05-19T11:14:01Z</time>
      </trkpt>
      <trkpt lat="42.0829400" lon="-8.8904240">
        <ele>32.6</ele>
        <time>2021-05-19T11:14:02Z</time>
      </trkpt>
      <trkpt lat="42.0829400" lon="-8.8904240">
        <ele>32.6</ele>
        <time>2021-05-19T11:14:03Z</time>
      </trkpt>
      <trkpt lat="42.0829390" lon="-8.8904250">
        <ele>32.6</ele>
        <time>2021-05-19T11:14:04Z</time>
      </trkpt>
      <trkpt lat="42.0829390" lon="-8.8904250">
        <ele>32.6</ele>
        <time>2021-05-19T11:14:05Z</time>
      </trkpt>
      <trkpt lat="42.0829390" lon="-8.8904250">
        <ele>32.6</ele>
        <time>2021-05-19T11:14:06Z</time>
      </trkpt>
      <trkpt lat="42.0829390" lon="-8.8904260">
        <ele>32.6</ele>
        <time>2021-05-19T11:14:07Z</time>
      </trkpt>
      <trkpt lat="42.0829390" lon="-8.8904260">
        <ele>32.6</ele>
        <time>2021-05-19T11:14:08Z</time>
      </trkpt>
      <trkpt lat="42.0829390" lon="-8.8904270">
        <ele>32.6</ele>
        <time>2021-05-19T11:14:09Z</time>
      </trkpt>
      <trkpt lat="42.0829390" lon="-8.8904270">
        <ele>32.6</ele>
        <time>2021-05-19T11:14:10Z</time>
      </trkpt>
      <trkpt lat="42.0829390" lon="-8.8904280">
        <ele>32.6</ele>
        <time>2021-05-19T11:14:11Z</time>
      </trkpt>
      <trkpt lat="42.0829380" lon="-8.8904280">
        <ele>32.6</ele>
        <time>2021-05-19T11:14:12Z</time>
      </trkpt>
      <trkpt lat="42.0829380" lon="-8.8904280">
        <ele>32.6</ele>
        <time>2021-05-19T11:14:13Z</time>
      </trkpt>
      <trkpt lat="42.0829380" lon="-8.8904290">
        <ele>31.5</ele>
        <time>2021-05-19T11:14:14Z</time>
      </trkpt>
      <trkpt lat="42.0829380" lon="-8.8904290">
        <ele>31.5</ele>
        <time>2021-05-19T11:14:15Z</time>
      </trkpt>
      <trkpt lat="42.0829380" lon="-8.8904300">
        <ele>31.5</ele>
        <time>2021-05-19T11:14:16Z</time>
      </trkpt>
      <trkpt lat="42.0829380" lon="-8.8904300">
        <ele>31.5</ele>
        <time>2021-05-19T11:14:17Z</time>
      </trkpt>
      <trkpt lat="42.0829380" lon="-8.8904310">
        <ele>31.5</ele>
        <time>2021-05-19T11:14:18Z</time>
      </trkpt>
      <trkpt lat="42.0829380" lon="-8.8904310">
        <ele>31.5</ele>
        <time>2021-05-19T11:14:19Z</time>
      </trkpt>
      <trkpt lat="42.0829370" lon="-8.8904310">
        <ele>31.5</ele>
        <time>2021-05-19T11:14:20Z</time>
      </trkpt>
      <trkpt lat="42.0829370" lon="-8.8904320">
        <ele>31.5</ele>
        <time>2021-05-19T11:14:21Z</time>
      </trkpt>
      <trkpt lat="42.0829370" lon="-8.8904320">
        <ele>31.5</ele>
        <time>2021-05-19T11:14:22Z</time>
      </trkpt>
      <trkpt lat="42.0829370" lon="-8.8904330">
        <ele>31.5</ele>
        <time>2021-05-19T11:14:23Z</time>
      </trkpt>
      <trkpt lat="42.0829370" lon="-8.8904330">
        <ele>31.5</ele>
        <time>2021-05-19T11:14:24Z</time>
      </trkpt>
      <trkpt lat="42.0829370" lon="-8.8904340">
        <ele>31.5</ele>
        <time>2021-05-19T11:14:25Z</time>
      </trkpt>
      <trkpt lat="42.0829370" lon="-8.8904340">
        <ele>31.5</ele>
        <time>2021-05-19T11:14:26Z</time>
      </trkpt>
      <trkpt lat="42.0829370" lon="-8.8904340">
        <ele>31.5</ele>
        <time>2021-05-19T11:14:27Z</time>
      </trkpt>
      <trkpt lat="42.0829360" lon="-8.8904350">
        <ele>31.5</ele>
        <time>2021-05-19T11:14:28Z</time>
      </trkpt>
      <trkpt lat="42.0829360" lon="-8.8904350">
        <ele>31.5</ele>
        <time>2021-05-19T11:14:29Z</time>
      </trkpt>
      <trkpt lat="42.0829360" lon="-8.8904360">
        <ele>31.5</ele>
        <time>2021-05-19T11:14:30Z</time>
      </trkpt>
      <trkpt lat="42.0829360" lon="-8.8904360">
        <ele>31.5</ele>
        <time>2021-05-19T11:14:31Z</time>
      </trkpt>
      <trkpt lat="42.0829360" lon="-8.8904370">
        <ele>31.5</ele>
        <time>2021-05-19T11:14:32Z</time>
      </trkpt>
      <trkpt lat="42.0829360" lon="-8.8904370">
        <ele>31.5</ele>
        <time>2021-05-19T11:14:33Z</time>
      </trkpt>
      <trkpt lat="42.0829360" lon="-8.8904370">
        <ele>31.5</ele>
        <time>2021-05-19T11:14:34Z</time>
      </trkpt>
      <trkpt lat="42.0829360" lon="-8.8904380">
        <ele>31.5</ele>
        <time>2021-05-19T11:14:35Z</time>
      </trkpt>
      <trkpt lat="42.0829350" lon="-8.8904380">
        <ele>31.3</ele>
        <time>2021-05-19T11:14:36Z</time>
      </trkpt>
      <trkpt lat="42.0829350" lon="-8.8904390">
        <ele>31.3</ele>
        <time>2021-05-19T11:14:37Z</time>
      </trkpt>
      <trkpt lat="42.0829350" lon="-8.8904390">
        <ele>31.3</ele>
        <time>2021-05-19T11:14:38Z</time>
      </trkpt>
      <trkpt lat="42.0829350" lon="-8.8904400">
        <ele>31.3</ele>
        <time>2021-05-19T11:14:39Z</time>
      </trkpt>
      <trkpt lat="42.0829350" lon="-8.8904400">
        <ele>31.3</ele>
        <time>2021-05-19T11:14:40Z</time>
      </trkpt>
      <trkpt lat="42.0829350" lon="-8.8904400">
        <ele>31.3</ele>
        <time>2021-05-19T11:14:41Z</time>
      </trkpt>
      <trkpt lat="42.0829350" lon="-8.8904410">
        <ele>31.3</ele>
        <time>2021-05-19T11:14:42Z</time>
      </trkpt>
      <trkpt lat="42.0829350" lon="-8.8904410">
        <ele>31.3</ele>
        <time>2021-05-19T11:14:43Z</time>
      </trkpt>
      <trkpt lat="42.0829340" lon="-8.8904420">
        <ele>31.3</ele>
        <time>2021-05-19T11:14:44Z</time>
      </trkpt>
      <trkpt lat="42.0829340" lon="-8.8904420">
        <ele>31.3</ele>
        <time>2021-05-19T11:14:45Z</time>
      </trkpt>
      <trkpt lat="42.0829340" lon="-8.8904430">
        <ele>31.3</ele>
        <time>2021-05-19T11:14:46Z</time>
      </trkpt>
      <trkpt lat="42.0829340" lon="-8.8904430">
        <ele>31.3</ele>
        <time>2021-05-19T11:14:47Z</time>
      </trkpt>
      <trkpt lat="42.0829340" lon="-8.8904430">
        <ele>31.3</ele>
        <time>2021-05-19T11:14:48Z</time>
      </trkpt>
      <trkpt lat="42.0829340" lon="-8.8904440">
        <ele>31.3</ele>
        <time>2021-05-19T11:14:49Z</time>
      </trkpt>
      <trkpt lat="42.0829340" lon="-8.8904440">
        <ele>31.3</ele>
        <time>2021-05-19T11:14:50Z</time>
      </trkpt>
      <trkpt lat="42.0829340" lon="-8.8904450">
        <ele>31.3</ele>
        <time>2021-05-19T11:14:51Z</time>
      </trkpt>
      <trkpt lat="42.0829330" lon="-8.8904450">
        <ele>31.3</ele>
        <time>2021-05-19T11:14:52Z</time>
      </trkpt>
      <trkpt lat="42.0829330" lon="-8.8904460">
        <ele>31.3</ele>
        <time>2021-05-19T11:14:53Z</time>
      </trkpt>
      <trkpt lat="42.0829330" lon="-8.8904460">
        <ele>31.3</ele>
        <time>2021-05-19T11:14:54Z</time>
      </trkpt>
      <trkpt lat="42.0829330" lon="-8.8904460">
        <ele>31.3</ele>
        <time>2021-05-19T11:14:55Z</time>
      </trkpt>
      <trkpt lat="42.0829330" lon="-8.8904470">
        <ele>31.3</ele>
        <time>2021-05-19T11:14:56Z</time>
      </trkpt>
      <trkpt lat="42.0829330" lon="-8.8904470">
        <ele>31.3</ele>
        <time>2021-05-19T11:14:57Z</time>
      </trkpt>
      <trkpt lat="42.0829330" lon="-8.8904480">
        <ele>31.3</ele>
        <time>2021-05-19T11:14:58Z</time>
      </trkpt>
      <trkpt lat="42.0829330" lon="-8.8904480">
        <ele>31.3</ele>
        <time>2021-05-19T11:14:59Z</time>
      </trkpt>
      <trkpt lat="42.0829330" lon="-8.8904490">
        <ele>31.3</ele>
        <time>2021-05-19T11:15:00Z</time>
      </trkpt>
      <trkpt lat="42.0829320" lon="-8.8904490">
        <ele>31.3</ele>
        <time>2021-05-19T11:15:01Z</time>
      </trkpt>
      <trkpt lat="42.0829320" lon="-8.8904490">
        <ele>31.3</ele>
        <time>2021-05-19T11:15:02Z</time>
      </trkpt>
      <trkpt lat="42.0829320" lon="-8.8904500">
        <ele>31.3</ele>
        <time>2021-05-19T11:15:03Z</time>
      </trkpt>
      <trkpt lat="42.0829320" lon="-8.8904500">
        <ele>31.3</ele>
        <time>2021-05-19T11:15:04Z</time>
      </trkpt>
      <trkpt lat="42.0829320" lon="-8.8904510">
        <ele>31.3</ele>
        <time>2021-05-19T11:15:05Z</time>
      </trkpt>
      <trkpt lat="42.0829320" lon="-8.8904510">
        <ele>31.3</ele>
        <time>2021-05-19T11:15:06Z</time>
      </trkpt>
      <trkpt lat="42.0829320" lon="-8.8904510">
        <ele>31.3</ele>
        <time>2021-05-19T11:15:07Z</time>
      </trkpt>
      <trkpt lat="42.0829320" lon="-8.8904520">
        <ele>31.3</ele>
        <time>2021-05-19T11:15:08Z</time>
      </trkpt>
      <trkpt lat="42.0829310" lon="-8.8904520">
        <ele>31.3</ele>
        <time>2021-05-19T11:15:09Z</time>
      </trkpt>
      <trkpt lat="42.0829310" lon="-8.8904530">
        <ele>31.3</ele>
        <time>2021-05-19T11:15:10Z</time>
      </trkpt>
      <trkpt lat="42.0829310" lon="-8.8904530">
        <ele>31.3</ele>
        <time>2021-05-19T11:15:11Z</time>
      </trkpt>
      <trkpt lat="42.0829310" lon="-8.8904540">
        <ele>31.3</ele>
        <time>2021-05-19T11:15:12Z</time>
      </trkpt>
      <trkpt lat="42.0829310" lon="-8.8904540">
        <ele>31.3</ele>
        <time>2021-05-19T11:15:13Z</time>
      </trkpt>
      <trkpt lat="42.0829310" lon="-8.8904540">
        <ele>31.3</ele>
        <time>2021-05-19T11:15:14Z</time>
      </trkpt>
      <trkpt lat="42.0829310" lon="-8.8904550">
        <ele>31.3</ele>
        <time>2021-05-19T11:15:15Z</time>
      </trkpt>
      <trkpt lat="42.0829310" lon="-8.8904550">
        <ele>31.3</ele>
        <time>2021-05-19T11:15:16Z</time>
      </trkpt>
      <trkpt lat="42.0829300" lon="-8.8904560">
        <ele>31.3</ele>
        <time>2021-05-19T11:15:17Z</time>
      </trkpt>
      <trkpt lat="42.0829300" lon="-8.8904560">
        <ele>31.3</ele>
        <time>2021-05-19T11:15:18Z</time>
      </trkpt>
      <trkpt lat="42.0829300" lon="-8.8904570">
        <ele>31.3</ele>
        <time>2021-05-19T11:15:19Z</time>
      </trkpt>
      <trkpt lat="42.0829300" lon="-8.8904570">
        <ele>31.3</ele>
        <time>2021-05-19T11:15:20Z</time>
      </trkpt>
      <trkpt lat="42.0829300" lon="-8.8904570">
        <ele>31.3</ele>
        <time>2021-05-19T11:15:21Z</time>
      </trkpt>
      <trkpt lat="42.0829300" lon="-8.8904580">
        <ele>31.3</ele>
        <time>2021-05-19T11:15:22Z</time>
      </trkpt>
      <trkpt lat="42.0829300" lon="-8.8904580">
        <ele>31.3</ele>
        <time>2021-05-19T11:15:23Z</time>
      </trkpt>
      <trkpt lat="42.0829300" lon="-8.8904590">
        <ele>31.3</ele>
        <time>2021-05-19T11:15:24Z</time>
      </trkpt>
      <trkpt lat="42.0829290" lon="-8.8904590">
        <ele>31.3</ele>
        <time>2021-05-19T11:15:25Z</time>
      </trkpt>
      <trkpt lat="42.0829290" lon="-8.8904600">
        <ele>31.3</ele>
        <time>2021-05-19T11:15:26Z</time>
      </trkpt>
      <trkpt lat="42.0829290" lon="-8.8904600">
        <ele>31.3</ele>
        <time>2021-05-19T11:15:27Z</time>
      </trkpt>
      <trkpt lat="42.0829290" lon="-8.8904600">
        <ele>31.3</ele>
        <time>2021-05-19T11:15:28Z</time>
      </trkpt>
      <trkpt lat="42.0829290" lon="-8.8904610">
        <ele>31.3</ele>
        <time>2021-05-19T11:15:29Z</time>
      </trkpt>
      <trkpt lat="42.0829290" lon="-8.8904610">
        <ele>31.3</ele>
        <time>2021-05-19T11:15:30Z</time>
      </trkpt>
      <trkpt lat="42.0829290" lon="-8.8904620">
        <ele>31.3</ele>
        <time>2021-05-19T11:15:31Z</time>
      </trkpt>
      <trkpt lat="42.0829290" lon="-8.8904620">
        <ele>31.3</ele>
        <time>2021-05-19T11:15:32Z</time>
      </trkpt>
      <trkpt lat="42.0829280" lon="-8.8904630">
        <ele>31.3</ele>
        <time>2021-05-19T11:15:33Z</time>
      </trkpt>
      <trkpt lat="42.0829280" lon="-8.8904630">
        <ele>31.3</ele>
        <time>2021-05-19T11:15:34Z</time>
      </trkpt>
      <trkpt lat="42.0829280" lon="-8.8904630">
        <ele>31.3</ele>
        <time>2021-05-19T11:15:35Z</time>
      </trkpt>
      <trkpt lat="42.0829280" lon="-8.8904640">
        <ele>31.3</ele>
        <time>2021-05-19T11:15:36Z</time>
      </trkpt>
      <trkpt lat="42.0829280" lon="-8.8904640">
        <ele>31.3</ele>
        <time>2021-05-19T11:15:37Z</time>
      </trkpt>
      <trkpt lat="42.0829280" lon="-8.8904650">
        <ele>31.3</ele>
        <time>2021-05-19T11:15:38Z</time>
      </trkpt>
      <trkpt lat="42.0829280" lon="-8.8904650">
        <ele>31.3</ele>
        <time>2021-05-19T11:15:39Z</time>
      </trkpt>
      <trkpt lat="42.0829280" lon="-8.8904660">
        <ele>31.3</ele>
        <time>2021-05-19T11:15:40Z</time>
      </trkpt>
      <trkpt lat="42.0829270" lon="-8.8904660">
        <ele>31.3</ele>
        <time>2021-05-19T11:15:41Z</time>
      </trkpt>
      <trkpt lat="42.0829270" lon="-8.8904660">
        <ele>31.3</ele>
        <time>2021-05-19T11:15:42Z</time>
      </trkpt>
      <trkpt lat="42.0829270" lon="-8.8904670">
        <ele>31.3</ele>
        <time>2021-05-19T11:15:43Z</time>
      </trkpt>
      <trkpt lat="42.0829270" lon="-8.8904670">
        <ele>31.3</ele>
        <time>2021-05-19T11:15:44Z</time>
      </trkpt>
      <trkpt lat="42.0829270" lon="-8.8904680">
        <ele>31.3</ele>
        <time>2021-05-19T11:15:45Z</time>
      </trkpt>
      <trkpt lat="42.0829270" lon="-8.8904680">
        <ele>31.3</ele>
        <time>2021-05-19T11:15:46Z</time>
      </trkpt>
      <trkpt lat="42.0829270" lon="-8.8904690">
        <ele>31.3</ele>
        <time>2021-05-19T11:15:47Z</time>
      </trkpt>
      <trkpt lat="42.0829270" lon="-8.8904690">
        <ele>31.3</ele>
        <time>2021-05-19T11:15:48Z</time>
      </trkpt>
      <trkpt lat="42.0829260" lon="-8.8904690">
        <ele>31.3</ele>
        <time>2021-05-19T11:15:49Z</time>
      </trkpt>
      <trkpt lat="42.0829260" lon="-8.8904700">
        <ele>31.3</ele>
        <time>2021-05-19T11:15:50Z</time>
      </trkpt>
      <trkpt lat="42.0829260" lon="-8.8904700">
        <ele>31.3</ele>
        <time>2021-05-19T11:15:51Z</time>
      </trkpt>
      <trkpt lat="42.0829260" lon="-8.8904710">
        <ele>31.3</ele>
        <time>2021-05-19T11:15:52Z</time>
      </trkpt>
      <trkpt lat="42.0829260" lon="-8.8904710">
        <ele>31.3</ele>
        <time>2021-05-19T11:15:53Z</time>
      </trkpt>
      <trkpt lat="42.0829260" lon="-8.8904720">
        <ele>30.3</ele>
        <time>2021-05-19T11:15:54Z</time>
      </trkpt>
      <trkpt lat="42.0829260" lon="-8.8904720">
        <ele>30.3</ele>
        <time>2021-05-19T11:15:55Z</time>
      </trkpt>
      <trkpt lat="42.0829260" lon="-8.8904720">
        <ele>30.3</ele>
        <time>2021-05-19T11:15:56Z</time>
      </trkpt>
      <trkpt lat="42.0829250" lon="-8.8904730">
        <ele>30.3</ele>
        <time>2021-05-19T11:15:57Z</time>
      </trkpt>
      <trkpt lat="42.0829250" lon="-8.8904730">
        <ele>30.3</ele>
        <time>2021-05-19T11:15:58Z</time>
      </trkpt>
      <trkpt lat="42.0829250" lon="-8.8904740">
        <ele>30.3</ele>
        <time>2021-05-19T11:15:59Z</time>
      </trkpt>
      <trkpt lat="42.0829250" lon="-8.8904740">
        <ele>30.3</ele>
        <time>2021-05-19T11:16:00Z</time>
      </trkpt>
      <trkpt lat="42.0829250" lon="-8.8904750">
        <ele>30.3</ele>
        <time>2021-05-19T11:16:01Z</time>
      </trkpt>
      <trkpt lat="42.0829250" lon="-8.8904750">
        <ele>30.3</ele>
        <time>2021-05-19T11:16:02Z</time>
      </trkpt>
      <trkpt lat="42.0829250" lon="-8.8904750">
        <ele>30.3</ele>
        <time>2021-05-19T11:16:03Z</time>
      </trkpt>
      <trkpt lat="42.0829250" lon="-8.8904760">
        <ele>30.3</ele>
        <time>2021-05-19T11:16:04Z</time>
      </trkpt>
      <trkpt lat="42.0829240" lon="-8.8904760">
        <ele>30.3</ele>
        <time>2021-05-19T11:16:05Z</time>
      </trkpt>
      <trkpt lat="42.0829240" lon="-8.8904770">
        <ele>30.3</ele>
        <time>2021-05-19T11:16:06Z</time>
      </trkpt>
      <trkpt lat="42.0829240" lon="-8.8904770">
        <ele>30.3</ele>
        <time>2021-05-19T11:16:07Z</time>
      </trkpt>
      <trkpt lat="42.0829240" lon="-8.8904780">
        <ele>30.3</ele>
        <time>2021-05-19T11:16:08Z</time>
      </trkpt>
      <trkpt lat="42.0829240" lon="-8.8904780">
        <ele>30.3</ele>
        <time>2021-05-19T11:16:09Z</time>
      </trkpt>
      <trkpt lat="42.0829240" lon="-8.8904780">
        <ele>30.3</ele>
        <time>2021-05-19T11:16:10Z</time>
      </trkpt>
      <trkpt lat="42.0829240" lon="-8.8904780">
        <ele>30.3</ele>
        <time>2021-05-19T11:16:11Z</time>
      </trkpt>
      <trkpt lat="42.0829240" lon="-8.8904780">
        <ele>30.3</ele>
        <time>2021-05-19T11:16:12Z</time>
      </trkpt>
      <trkpt lat="42.0829240" lon="-8.8904780">
        <ele>30.3</ele>
        <time>2021-05-19T11:16:13Z</time>
      </trkpt>
      <trkpt lat="42.0829240" lon="-8.8904780">
        <ele>30.3</ele>
        <time>2021-05-19T11:16:14Z</time>
      </trkpt>
      <trkpt lat="42.0829240" lon="-8.8904780">
        <ele>30.3</ele>
        <time>2021-05-19T11:16:15Z</time>
      </trkpt>
      <trkpt lat="42.0829240" lon="-8.8904780">
        <ele>30.3</ele>
        <time>2021-05-19T11:16:16Z</time>
      </trkpt>
      <trkpt lat="42.0829240" lon="-8.8904780">
        <ele>30.3</ele>
        <time>2021-05-19T11:16:17Z</time>
      </trkpt>
      <trkpt lat="42.0829240" lon="-8.8904780">
        <ele>30.3</ele>
        <time>2021-05-19T11:16:18Z</time>
      </trkpt>
      <trkpt lat="42.0829240" lon="-8.8904780">
        <ele>30.3</ele>
        <time>2021-05-19T11:16:19Z</time>
      </trkpt>
      <trkpt lat="42.0829240" lon="-8.8904780">
        <ele>30.3</ele>
        <time>2021-05-19T11:16:20Z</time>
      </trkpt>
      <trkpt lat="42.0829240" lon="-8.8904770">
        <ele>30.3</ele>
        <time>2021-05-19T11:16:21Z</time>
      </trkpt>
      <trkpt lat="42.0829240" lon="-8.8904770">
        <ele>30.3</ele>
        <time>2021-05-19T11:16:22Z</time>
      </trkpt>
      <trkpt lat="42.0829240" lon="-8.8904770">
        <ele>30.3</ele>
        <time>2021-05-19T11:16:23Z</time>
      </trkpt>
      <trkpt lat="42.0829240" lon="-8.8904770">
        <ele>30.3</ele>
        <time>2021-05-19T11:16:24Z</time>
      </trkpt>
      <trkpt lat="42.0829240" lon="-8.8904770">
        <ele>30.3</ele>
        <time>2021-05-19T11:16:25Z</time>
      </trkpt>
      <trkpt lat="42.0829240" lon="-8.8904770">
        <ele>30.3</ele>
        <time>2021-05-19T11:16:26Z</time>
      </trkpt>
      <trkpt lat="42.0829240" lon="-8.8904770">
        <ele>30.3</ele>
        <time>2021-05-19T11:16:27Z</time>
      </trkpt>
      <trkpt lat="42.0829240" lon="-8.8904770">
        <ele>30.3</ele>
        <time>2021-05-19T11:16:28Z</time>
      </trkpt>
      <trkpt lat="42.0829240" lon="-8.8904770">
        <ele>30.3</ele>
        <time>2021-05-19T11:16:29Z</time>
      </trkpt>
      <trkpt lat="42.0829240" lon="-8.8904770">
        <ele>30.3</ele>
        <time>2021-05-19T11:16:30Z</time>
      </trkpt>
      <trkpt lat="42.0829240" lon="-8.8904770">
        <ele>30.3</ele>
        <time>2021-05-19T11:16:31Z</time>
      </trkpt>
      <trkpt lat="42.0829240" lon="-8.8904770">
        <ele>30.3</ele>
        <time>2021-05-19T11:16:32Z</time>
      </trkpt>
      <trkpt lat="42.0829240" lon="-8.8904770">
        <ele>30.3</ele>
        <time>2021-05-19T11:16:33Z</time>
      </trkpt>
      <trkpt lat="42.0829240" lon="-8.8904770">
        <ele>30.3</ele>
        <time>2021-05-19T11:16:34Z</time>
      </trkpt>
      <trkpt lat="42.0829240" lon="-8.8904770">
        <ele>30.3</ele>
        <time>2021-05-19T11:16:35Z</time>
      </trkpt>
      <trkpt lat="42.0829240" lon="-8.8904770">
        <ele>30.3</ele>
        <time>2021-05-19T11:16:36Z</time>
      </trkpt>
      <trkpt lat="42.0829240" lon="-8.8904770">
        <ele>30.3</ele>
        <time>2021-05-19T11:16:37Z</time>
      </trkpt>
      <trkpt lat="42.0829240" lon="-8.8904770">
        <ele>30.3</ele>
        <time>2021-05-19T11:16:38Z</time>
      </trkpt>
      <trkpt lat="42.0829240" lon="-8.8904770">
        <ele>30.3</ele>
        <time>2021-05-19T11:16:39Z</time>
      </trkpt>
      <trkpt lat="42.0829240" lon="-8.8904770">
        <ele>30.3</ele>
        <time>2021-05-19T11:16:40Z</time>
      </trkpt>
      <trkpt lat="42.0829240" lon="-8.8904770">
        <ele>30.3</ele>
        <time>2021-05-19T11:16:41Z</time>
      </trkpt>
      <trkpt lat="42.0829250" lon="-8.8904770">
        <ele>30.3</ele>
        <time>2021-05-19T11:16:42Z</time>
      </trkpt>
      <trkpt lat="42.0829250" lon="-8.8904770">
        <ele>30.3</ele>
        <time>2021-05-19T11:16:43Z</time>
      </trkpt>
      <trkpt lat="42.0829250" lon="-8.8904760">
        <ele>30.3</ele>
        <time>2021-05-19T11:16:44Z</time>
      </trkpt>
      <trkpt lat="42.0829250" lon="-8.8904760">
        <ele>30.3</ele>
        <time>2021-05-19T11:16:45Z</time>
      </trkpt>
      <trkpt lat="42.0829250" lon="-8.8904760">
        <ele>30.3</ele>
        <time>2021-05-19T11:16:46Z</time>
      </trkpt>
      <trkpt lat="42.0829250" lon="-8.8904760">
        <ele>30.3</ele>
        <time>2021-05-19T11:16:47Z</time>
      </trkpt>
      <trkpt lat="42.0829250" lon="-8.8904760">
        <ele>30.3</ele>
        <time>2021-05-19T11:16:48Z</time>
      </trkpt>
      <trkpt lat="42.0829250" lon="-8.8904760">
        <ele>30.3</ele>
        <time>2021-05-19T11:16:49Z</time>
      </trkpt>
      <trkpt lat="42.0829250" lon="-8.8904760">
        <ele>30.3</ele>
        <time>2021-05-19T11:16:50Z</time>
      </trkpt>
      <trkpt lat="42.0829250" lon="-8.8904760">
        <ele>30.3</ele>
        <time>2021-05-19T11:16:51Z</time>
      </trkpt>
      <trkpt lat="42.0829250" lon="-8.8904760">
        <ele>30.3</ele>
        <time>2021-05-19T11:16:52Z</time>
      </trkpt>
      <trkpt lat="42.0829250" lon="-8.8904760">
        <ele>30.3</ele>
        <time>2021-05-19T11:16:53Z</time>
      </trkpt>
      <trkpt lat="42.0829250" lon="-8.8904760">
        <ele>30.3</ele>
        <time>2021-05-19T11:16:54Z</time>
      </trkpt>
      <trkpt lat="42.0829250" lon="-8.8904760">
        <ele>30.3</ele>
        <time>2021-05-19T11:16:55Z</time>
      </trkpt>
      <trkpt lat="42.0829250" lon="-8.8904760">
        <ele>30.3</ele>
        <time>2021-05-19T11:16:56Z</time>
      </trkpt>
      <trkpt lat="42.0829250" lon="-8.8904760">
        <ele>30.3</ele>
        <time>2021-05-19T11:16:57Z</time>
      </trkpt>
      <trkpt lat="42.0829250" lon="-8.8904760">
        <ele>30.3</ele>
        <time>2021-05-19T11:16:58Z</time>
      </trkpt>
      <trkpt lat="42.0829250" lon="-8.8904760">
        <ele>30.3</ele>
        <time>2021-05-19T11:16:59Z</time>
      </trkpt>
      <trkpt lat="42.0829250" lon="-8.8904760">
        <ele>30.3</ele>
        <time>2021-05-19T11:17:00Z</time>
      </trkpt>
      <trkpt lat="42.0829250" lon="-8.8904760">
        <ele>30.3</ele>
        <time>2021-05-19T11:17:01Z</time>
      </trkpt>
      <trkpt lat="42.0829250" lon="-8.8904760">
        <ele>30.3</ele>
        <time>2021-05-19T11:17:02Z</time>
      </trkpt>
      <trkpt lat="42.0829250" lon="-8.8904760">
        <ele>30.3</ele>
        <time>2021-05-19T11:17:03Z</time>
      </trkpt>
      <trkpt lat="42.0829250" lon="-8.8904760">
        <ele>30.3</ele>
        <time>2021-05-19T11:17:04Z</time>
      </trkpt>
      <trkpt lat="42.0829250" lon="-8.8904760">
        <ele>30.3</ele>
        <time>2021-05-19T11:17:05Z</time>
      </trkpt>
      <trkpt lat="42.0829250" lon="-8.8904760">
        <ele>30.3</ele>
        <time>2021-05-19T11:17:06Z</time>
      </trkpt>
      <trkpt lat="42.0829250" lon="-8.8904750">
        <ele>30.3</ele>
        <time>2021-05-19T11:17:07Z</time>
      </trkpt>
      <trkpt lat="42.0829250" lon="-8.8904750">
        <ele>30.3</ele>
        <time>2021-05-19T11:17:08Z</time>
      </trkpt>
      <trkpt lat="42.0829250" lon="-8.8904750">
        <ele>30.3</ele>
        <time>2021-05-19T11:17:09Z</time>
      </trkpt>
      <trkpt lat="42.0829250" lon="-8.8904750">
        <ele>30.3</ele>
        <time>2021-05-19T11:17:10Z</time>
      </trkpt>
      <trkpt lat="42.0829250" lon="-8.8904750">
        <ele>30.3</ele>
        <time>2021-05-19T11:17:11Z</time>
      </trkpt>
      <trkpt lat="42.0829250" lon="-8.8904750">
        <ele>30.3</ele>
        <time>2021-05-19T11:17:12Z</time>
      </trkpt>
      <trkpt lat="42.0829250" lon="-8.8904750">
        <ele>30.3</ele>
        <time>2021-05-19T11:17:13Z</time>
      </trkpt>
      <trkpt lat="42.0829250" lon="-8.8904750">
        <ele>30.3</ele>
        <time>2021-05-19T11:17:14Z</time>
      </trkpt>
      <trkpt lat="42.0829250" lon="-8.8904750">
        <ele>30.3</ele>
        <time>2021-05-19T11:17:15Z</time>
      </trkpt>
      <trkpt lat="42.0829250" lon="-8.8904750">
        <ele>30.3</ele>
        <time>2021-05-19T11:17:16Z</time>
      </trkpt>
      <trkpt lat="42.0829250" lon="-8.8904750">
        <ele>30.3</ele>
        <time>2021-05-19T11:17:17Z</time>
      </trkpt>
      <trkpt lat="42.0829250" lon="-8.8904750">
        <ele>30.3</ele>
        <time>2021-05-19T11:17:18Z</time>
      </trkpt>
      <trkpt lat="42.0829250" lon="-8.8904750">
        <ele>30.3</ele>
        <time>2021-05-19T11:17:19Z</time>
      </trkpt>
      <trkpt lat="42.0829250" lon="-8.8904750">
        <ele>30.3</ele>
        <time>2021-05-19T11:17:20Z</time>
      </trkpt>
      <trkpt lat="42.0829250" lon="-8.8904750">
        <ele>30.3</ele>
        <time>2021-05-19T11:17:21Z</time>
      </trkpt>
      <trkpt lat="42.0829250" lon="-8.8904750">
        <ele>30.3</ele>
        <time>2021-05-19T11:17:22Z</time>
      </trkpt>
      <trkpt lat="42.0829250" lon="-8.8904750">
        <ele>30.3</ele>
        <time>2021-05-19T11:17:23Z</time>
      </trkpt>
      <trkpt lat="42.0829250" lon="-8.8904750">
        <ele>30.3</ele>
        <time>2021-05-19T11:17:24Z</time>
      </trkpt>
      <trkpt lat="42.0829250" lon="-8.8904750">
        <ele>30.3</ele>
        <time>2021-05-19T11:17:25Z</time>
      </trkpt>
      <trkpt lat="42.0829250" lon="-8.8904750">
        <ele>30.3</ele>
        <time>2021-05-19T11:17:26Z</time>
      </trkpt>
      <trkpt lat="42.0829250" lon="-8.8904750">
        <ele>30.3</ele>
        <time>2021-05-19T11:17:27Z</time>
      </trkpt>
      <trkpt lat="42.0829250" lon="-8.8904750">
        <ele>30.3</ele>
        <time>2021-05-19T11:17:28Z</time>
      </trkpt>
      <trkpt lat="42.0829250" lon="-8.8904750">
        <ele>30.3</ele>
        <time>2021-05-19T11:17:30Z</time>
      </trkpt>
      <trkpt lat="42.0829250" lon="-8.8904750">
        <ele>30.3</ele>
        <time>2021-05-19T11:17:31Z</time>
      </trkpt>
      <trkpt lat="42.0829250" lon="-8.8904740">
        <ele>30.3</ele>
        <time>2021-05-19T11:17:32Z</time>
      </trkpt>
      <trkpt lat="42.0829250" lon="-8.8904740">
        <ele>30.3</ele>
        <time>2021-05-19T11:17:33Z</time>
      </trkpt>
      <trkpt lat="42.0829250" lon="-8.8904740">
        <ele>30.3</ele>
        <time>2021-05-19T11:17:34Z</time>
      </trkpt>
      <trkpt lat="42.0829250" lon="-8.8904740">
        <ele>30.3</ele>
        <time>2021-05-19T11:17:35Z</time>
      </trkpt>
      <trkpt lat="42.0829250" lon="-8.8904740">
        <ele>30.3</ele>
        <time>2021-05-19T11:17:36Z</time>
      </trkpt>
      <trkpt lat="42.0829250" lon="-8.8904740">
        <ele>30.3</ele>
        <time>2021-05-19T11:17:37Z</time>
      </trkpt>
      <trkpt lat="42.0829250" lon="-8.8904740">
        <ele>30.3</ele>
        <time>2021-05-19T11:17:38Z</time>
      </trkpt>
      <trkpt lat="42.0829250" lon="-8.8904740">
        <ele>30.3</ele>
        <time>2021-05-19T11:17:39Z</time>
      </trkpt>
      <trkpt lat="42.0829250" lon="-8.8904740">
        <ele>30.3</ele>
        <time>2021-05-19T11:17:40Z</time>
      </trkpt>
      <trkpt lat="42.0829250" lon="-8.8904740">
        <ele>30.3</ele>
        <time>2021-05-19T11:17:41Z</time>
      </trkpt>
      <trkpt lat="42.0829250" lon="-8.8904740">
        <ele>30.3</ele>
        <time>2021-05-19T11:17:42Z</time>
      </trkpt>
      <trkpt lat="42.0829250" lon="-8.8904740">
        <ele>30.3</ele>
        <time>2021-05-19T11:17:43Z</time>
      </trkpt>
      <trkpt lat="42.0829250" lon="-8.8904740">
        <ele>30.3</ele>
        <time>2021-05-19T11:17:44Z</time>
      </trkpt>
      <trkpt lat="42.0829250" lon="-8.8904740">
        <ele>30.3</ele>
        <time>2021-05-19T11:17:45Z</time>
      </trkpt>
      <trkpt lat="42.0829250" lon="-8.8904740">
        <ele>30.3</ele>
        <time>2021-05-19T11:17:46Z</time>
      </trkpt>
      <trkpt lat="42.0829260" lon="-8.8904740">
        <ele>30.3</ele>
        <time>2021-05-19T11:17:47Z</time>
      </trkpt>
      <trkpt lat="42.0829260" lon="-8.8904740">
        <ele>30.3</ele>
        <time>2021-05-19T11:17:48Z</time>
      </trkpt>
      <trkpt lat="42.0829260" lon="-8.8904740">
        <ele>30.3</ele>
        <time>2021-05-19T11:17:49Z</time>
      </trkpt>
      <trkpt lat="42.0829260" lon="-8.8904740">
        <ele>30.3</ele>
        <time>2021-05-19T11:17:50Z</time>
      </trkpt>
      <trkpt lat="42.0829260" lon="-8.8904740">
        <ele>30.3</ele>
        <time>2021-05-19T11:17:51Z</time>
      </trkpt>
      <trkpt lat="42.0829260" lon="-8.8904740">
        <ele>30.3</ele>
        <time>2021-05-19T11:17:52Z</time>
      </trkpt>
      <trkpt lat="42.0829260" lon="-8.8904740">
        <ele>30.3</ele>
        <time>2021-05-19T11:17:53Z</time>
      </trkpt>
      <trkpt lat="42.0829260" lon="-8.8904740">
        <ele>30.3</ele>
        <time>2021-05-19T11:17:54Z</time>
      </trkpt>
      <trkpt lat="42.0829260" lon="-8.8904730">
        <ele>30.3</ele>
        <time>2021-05-19T11:17:55Z</time>
      </trkpt>
      <trkpt lat="42.0829260" lon="-8.8904730">
        <ele>30.3</ele>
        <time>2021-05-19T11:17:56Z</time>
      </trkpt>
      <trkpt lat="42.0829260" lon="-8.8904730">
        <ele>30.3</ele>
        <time>2021-05-19T11:17:57Z</time>
      </trkpt>
      <trkpt lat="42.0829260" lon="-8.8904730">
        <ele>30.3</ele>
        <time>2021-05-19T11:17:58Z</time>
      </trkpt>
      <trkpt lat="42.0829260" lon="-8.8904730">
        <ele>30.3</ele>
        <time>2021-05-19T11:17:59Z</time>
      </trkpt>
      <trkpt lat="42.0829260" lon="-8.8904730">
        <ele>30.3</ele>
        <time>2021-05-19T11:18:00Z</time>
      </trkpt>
      <trkpt lat="42.0829260" lon="-8.8904730">
        <ele>30.3</ele>
        <time>2021-05-19T11:18:01Z</time>
      </trkpt>
      <trkpt lat="42.0829260" lon="-8.8904730">
        <ele>30.3</ele>
        <time>2021-05-19T11:18:02Z</time>
      </trkpt>
      <trkpt lat="42.0829260" lon="-8.8904730">
        <ele>30.3</ele>
        <time>2021-05-19T11:18:03Z</time>
      </trkpt>
      <trkpt lat="42.0829260" lon="-8.8904730">
        <ele>30.3</ele>
        <time>2021-05-19T11:18:04Z</time>
      </trkpt>
      <trkpt lat="42.0829260" lon="-8.8904730">
        <ele>30.3</ele>
        <time>2021-05-19T11:18:05Z</time>
      </trkpt>
      <trkpt lat="42.0829260" lon="-8.8904730">
        <ele>30.3</ele>
        <time>2021-05-19T11:18:06Z</time>
      </trkpt>
      <trkpt lat="42.0829260" lon="-8.8904730">
        <ele>30.3</ele>
        <time>2021-05-19T11:18:07Z</time>
      </trkpt>
      <trkpt lat="42.0829260" lon="-8.8904730">
        <ele>30.3</ele>
        <time>2021-05-19T11:18:08Z</time>
      </trkpt>
      <trkpt lat="42.0829260" lon="-8.8904730">
        <ele>30.3</ele>
        <time>2021-05-19T11:18:09Z</time>
      </trkpt>
      <trkpt lat="42.0829260" lon="-8.8904730">
        <ele>30.3</ele>
        <time>2021-05-19T11:18:10Z</time>
      </trkpt>
      <trkpt lat="42.0829260" lon="-8.8904730">
        <ele>30.3</ele>
        <time>2021-05-19T11:18:11Z</time>
      </trkpt>
      <trkpt lat="42.0829260" lon="-8.8904730">
        <ele>30.3</ele>
        <time>2021-05-19T11:18:12Z</time>
      </trkpt>
      <trkpt lat="42.0829260" lon="-8.8904730">
        <ele>30.3</ele>
        <time>2021-05-19T11:18:13Z</time>
      </trkpt>
      <trkpt lat="42.0829260" lon="-8.8904730">
        <ele>30.3</ele>
        <time>2021-05-19T11:18:14Z</time>
      </trkpt>
      <trkpt lat="42.0829260" lon="-8.8904730">
        <ele>30.3</ele>
        <time>2021-05-19T11:18:15Z</time>
      </trkpt>
      <trkpt lat="42.0829260" lon="-8.8904730">
        <ele>30.3</ele>
        <time>2021-05-19T11:18:16Z</time>
      </trkpt>
      <trkpt lat="42.0829260" lon="-8.8904730">
        <ele>30.3</ele>
        <time>2021-05-19T11:18:17Z</time>
      </trkpt>
      <trkpt lat="42.0829260" lon="-8.8904720">
        <ele>30.3</ele>
        <time>2021-05-19T11:18:18Z</time>
      </trkpt>
      <trkpt lat="42.0829260" lon="-8.8904720">
        <ele>30.3</ele>
        <time>2021-05-19T11:18:19Z</time>
      </trkpt>
      <trkpt lat="42.0829260" lon="-8.8904720">
        <ele>30.3</ele>
        <time>2021-05-19T11:18:20Z</time>
      </trkpt>
      <trkpt lat="42.0829260" lon="-8.8904720">
        <ele>30.3</ele>
        <time>2021-05-19T11:18:21Z</time>
      </trkpt>
      <trkpt lat="42.0829260" lon="-8.8904720">
        <ele>30.3</ele>
        <time>2021-05-19T11:18:22Z</time>
      </trkpt>
      <trkpt lat="42.0829260" lon="-8.8904720">
        <ele>30.3</ele>
        <time>2021-05-19T11:18:23Z</time>
      </trkpt>
      <trkpt lat="42.0829260" lon="-8.8904720">
        <ele>30.3</ele>
        <time>2021-05-19T11:18:24Z</time>
      </trkpt>
      <trkpt lat="42.0829260" lon="-8.8904720">
        <ele>30.3</ele>
        <time>2021-05-19T11:18:25Z</time>
      </trkpt>
      <trkpt lat="42.0829260" lon="-8.8904720">
        <ele>30.3</ele>
        <time>2021-05-19T11:18:26Z</time>
      </trkpt>
      <trkpt lat="42.0829260" lon="-8.8904720">
        <ele>30.3</ele>
        <time>2021-05-19T11:18:27Z</time>
      </trkpt>
      <trkpt lat="42.0829260" lon="-8.8904720">
        <ele>30.3</ele>
        <time>2021-05-19T11:18:28Z</time>
      </trkpt>
      <trkpt lat="42.0829260" lon="-8.8904720">
        <ele>30.3</ele>
        <time>2021-05-19T11:18:29Z</time>
      </trkpt>
      <trkpt lat="42.0829260" lon="-8.8904720">
        <ele>30.3</ele>
        <time>2021-05-19T11:18:30Z</time>
      </trkpt>
      <trkpt lat="42.0829260" lon="-8.8904720">
        <ele>30.3</ele>
        <time>2021-05-19T11:18:31Z</time>
      </trkpt>
      <trkpt lat="42.0829260" lon="-8.8904720">
        <ele>30.3</ele>
        <time>2021-05-19T11:18:32Z</time>
      </trkpt>
      <trkpt lat="42.0829260" lon="-8.8904720">
        <ele>30.3</ele>
        <time>2021-05-19T11:18:33Z</time>
      </trkpt>
      <trkpt lat="42.0829260" lon="-8.8904720">
        <ele>30.3</ele>
        <time>2021-05-19T11:18:34Z</time>
      </trkpt>
      <trkpt lat="42.0829260" lon="-8.8904720">
        <ele>30.3</ele>
        <time>2021-05-19T11:18:35Z</time>
      </trkpt>
      <trkpt lat="42.0829260" lon="-8.8904720">
        <ele>30.3</ele>
        <time>2021-05-19T11:18:36Z</time>
      </trkpt>
      <trkpt lat="42.0829260" lon="-8.8904720">
        <ele>30.3</ele>
        <time>2021-05-19T11:18:37Z</time>
      </trkpt>
      <trkpt lat="42.0829260" lon="-8.8904720">
        <ele>30.3</ele>
        <time>2021-05-19T11:18:38Z</time>
      </trkpt>
      <trkpt lat="42.0829260" lon="-8.8904720">
        <ele>30.3</ele>
        <time>2021-05-19T11:18:39Z</time>
      </trkpt>
      <trkpt lat="42.0829260" lon="-8.8904720">
        <ele>30.3</ele>
        <time>2021-05-19T11:18:40Z</time>
      </trkpt>
      <trkpt lat="42.0829260" lon="-8.8904710">
        <ele>31.3</ele>
        <time>2021-05-19T11:18:41Z</time>
      </trkpt>
      <trkpt lat="42.0829260" lon="-8.8904710">
        <ele>31.3</ele>
        <time>2021-05-19T11:18:42Z</time>
      </trkpt>
      <trkpt lat="42.0829260" lon="-8.8904710">
        <ele>31.3</ele>
        <time>2021-05-19T11:18:43Z</time>
      </trkpt>
      <trkpt lat="42.0829260" lon="-8.8904710">
        <ele>31.3</ele>
        <time>2021-05-19T11:18:44Z</time>
      </trkpt>
      <trkpt lat="42.0829260" lon="-8.8904710">
        <ele>31.3</ele>
        <time>2021-05-19T11:18:45Z</time>
      </trkpt>
      <trkpt lat="42.0829260" lon="-8.8904710">
        <ele>31.3</ele>
        <time>2021-05-19T11:18:46Z</time>
      </trkpt>
      <trkpt lat="42.0829260" lon="-8.8904710">
        <ele>31.3</ele>
        <time>2021-05-19T11:18:47Z</time>
      </trkpt>
      <trkpt lat="42.0829260" lon="-8.8904710">
        <ele>31.3</ele>
        <time>2021-05-19T11:18:48Z</time>
      </trkpt>
      <trkpt lat="42.0829260" lon="-8.8904710">
        <ele>31.3</ele>
        <time>2021-05-19T11:18:49Z</time>
      </trkpt>
      <trkpt lat="42.0829260" lon="-8.8904710">
        <ele>31.3</ele>
        <time>2021-05-19T11:18:50Z</time>
      </trkpt>
      <trkpt lat="42.0829270" lon="-8.8904710">
        <ele>31.3</ele>
        <time>2021-05-19T11:18:51Z</time>
      </trkpt>
      <trkpt lat="42.0829270" lon="-8.8904710">
        <ele>31.3</ele>
        <time>2021-05-19T11:18:52Z</time>
      </trkpt>
      <trkpt lat="42.0829270" lon="-8.8904710">
        <ele>31.3</ele>
        <time>2021-05-19T11:18:53Z</time>
      </trkpt>
      <trkpt lat="42.0829270" lon="-8.8904710">
        <ele>31.3</ele>
        <time>2021-05-19T11:18:54Z</time>
      </trkpt>
      <trkpt lat="42.0829270" lon="-8.8904710">
        <ele>31.3</ele>
        <time>2021-05-19T11:18:55Z</time>
      </trkpt>
      <trkpt lat="42.0829270" lon="-8.8904710">
        <ele>31.3</ele>
        <time>2021-05-19T11:18:56Z</time>
      </trkpt>
      <trkpt lat="42.0829270" lon="-8.8904710">
        <ele>31.3</ele>
        <time>2021-05-19T11:18:57Z</time>
      </trkpt>
      <trkpt lat="42.0829270" lon="-8.8904710">
        <ele>31.3</ele>
        <time>2021-05-19T11:18:58Z</time>
      </trkpt>
      <trkpt lat="42.0829270" lon="-8.8904710">
        <ele>31.3</ele>
        <time>2021-05-19T11:18:59Z</time>
      </trkpt>
      <trkpt lat="42.0829270" lon="-8.8904710">
        <ele>31.3</ele>
        <time>2021-05-19T11:19:00Z</time>
      </trkpt>
      <trkpt lat="42.0829270" lon="-8.8904710">
        <ele>31.3</ele>
        <time>2021-05-19T11:19:01Z</time>
      </trkpt>
      <trkpt lat="42.0829270" lon="-8.8904710">
        <ele>31.3</ele>
        <time>2021-05-19T11:19:02Z</time>
      </trkpt>
      <trkpt lat="42.0829270" lon="-8.8904710">
        <ele>31.3</ele>
        <time>2021-05-19T11:19:03Z</time>
      </trkpt>
      <trkpt lat="42.0829270" lon="-8.8904700">
        <ele>31.3</ele>
        <time>2021-05-19T11:19:04Z</time>
      </trkpt>
      <trkpt lat="42.0829270" lon="-8.8904700">
        <ele>31.3</ele>
        <time>2021-05-19T11:19:05Z</time>
      </trkpt>
      <trkpt lat="42.0829270" lon="-8.8904700">
        <ele>31.3</ele>
        <time>2021-05-19T11:19:06Z</time>
      </trkpt>
      <trkpt lat="42.0829270" lon="-8.8904700">
        <ele>31.3</ele>
        <time>2021-05-19T11:19:07Z</time>
      </trkpt>
      <trkpt lat="42.0829270" lon="-8.8904700">
        <ele>31.3</ele>
        <time>2021-05-19T11:19:08Z</time>
      </trkpt>
      <trkpt lat="42.0829270" lon="-8.8904700">
        <ele>31.3</ele>
        <time>2021-05-19T11:19:09Z</time>
      </trkpt>
      <trkpt lat="42.0829270" lon="-8.8904700">
        <ele>31.3</ele>
        <time>2021-05-19T11:19:10Z</time>
      </trkpt>
      <trkpt lat="42.0829270" lon="-8.8904700">
        <ele>31.3</ele>
        <time>2021-05-19T11:19:11Z</time>
      </trkpt>
      <trkpt lat="42.0829270" lon="-8.8904700">
        <ele>31.3</ele>
        <time>2021-05-19T11:19:12Z</time>
      </trkpt>
      <trkpt lat="42.0829270" lon="-8.8904700">
        <ele>31.3</ele>
        <time>2021-05-19T11:19:13Z</time>
      </trkpt>
      <trkpt lat="42.0829270" lon="-8.8904700">
        <ele>31.3</ele>
        <time>2021-05-19T11:19:14Z</time>
      </trkpt>
      <trkpt lat="42.0829270" lon="-8.8904700">
        <ele>31.3</ele>
        <time>2021-05-19T11:19:15Z</time>
      </trkpt>
      <trkpt lat="42.0829270" lon="-8.8904700">
        <ele>31.3</ele>
        <time>2021-05-19T11:19:16Z</time>
      </trkpt>
      <trkpt lat="42.0829270" lon="-8.8904700">
        <ele>31.3</ele>
        <time>2021-05-19T11:19:17Z</time>
      </trkpt>
      <trkpt lat="42.0829270" lon="-8.8904700">
        <ele>31.3</ele>
        <time>2021-05-19T11:19:18Z</time>
      </trkpt>
      <trkpt lat="42.0829270" lon="-8.8904700">
        <ele>31.3</ele>
        <time>2021-05-19T11:19:19Z</time>
      </trkpt>
      <trkpt lat="42.0829270" lon="-8.8904700">
        <ele>31.3</ele>
        <time>2021-05-19T11:19:20Z</time>
      </trkpt>
      <trkpt lat="42.0829270" lon="-8.8904700">
        <ele>31.3</ele>
        <time>2021-05-19T11:19:21Z</time>
      </trkpt>
      <trkpt lat="42.0829270" lon="-8.8904700">
        <ele>31.3</ele>
        <time>2021-05-19T11:19:22Z</time>
      </trkpt>
      <trkpt lat="42.0829270" lon="-8.8904700">
        <ele>31.3</ele>
        <time>2021-05-19T11:19:23Z</time>
      </trkpt>
      <trkpt lat="42.0829270" lon="-8.8904700">
        <ele>31.3</ele>
        <time>2021-05-19T11:19:24Z</time>
      </trkpt>
      <trkpt lat="42.0829270" lon="-8.8904700">
        <ele>31.3</ele>
        <time>2021-05-19T11:19:25Z</time>
      </trkpt>
      <trkpt lat="42.0829270" lon="-8.8904700">
        <ele>31.3</ele>
        <time>2021-05-19T11:19:26Z</time>
      </trkpt>
      <trkpt lat="42.0829270" lon="-8.8904700">
        <ele>31.3</ele>
        <time>2021-05-19T11:19:28Z</time>
      </trkpt>
      <trkpt lat="42.0829270" lon="-8.8904690">
        <ele>31.3</ele>
        <time>2021-05-19T11:19:29Z</time>
      </trkpt>
      <trkpt lat="42.0829270" lon="-8.8904690">
        <ele>31.3</ele>
        <time>2021-05-19T11:19:30Z</time>
      </trkpt>
      <trkpt lat="42.0829270" lon="-8.8904690">
        <ele>31.3</ele>
        <time>2021-05-19T11:19:31Z</time>
      </trkpt>
      <trkpt lat="42.0829270" lon="-8.8904690">
        <ele>31.3</ele>
        <time>2021-05-19T11:19:32Z</time>
      </trkpt>
      <trkpt lat="42.0829270" lon="-8.8904690">
        <ele>31.3</ele>
        <time>2021-05-19T11:19:33Z</time>
      </trkpt>
      <trkpt lat="42.0829270" lon="-8.8904690">
        <ele>31.3</ele>
        <time>2021-05-19T11:19:34Z</time>
      </trkpt>
      <trkpt lat="42.0829270" lon="-8.8904690">
        <ele>31.3</ele>
        <time>2021-05-19T11:19:35Z</time>
      </trkpt>
      <trkpt lat="42.0829270" lon="-8.8904690">
        <ele>31.3</ele>
        <time>2021-05-19T11:19:36Z</time>
      </trkpt>
      <trkpt lat="42.0829270" lon="-8.8904690">
        <ele>31.3</ele>
        <time>2021-05-19T11:19:37Z</time>
      </trkpt>
      <trkpt lat="42.0829270" lon="-8.8904690">
        <ele>31.3</ele>
        <time>2021-05-19T11:19:38Z</time>
      </trkpt>
      <trkpt lat="42.0829270" lon="-8.8904690">
        <ele>31.3</ele>
        <time>2021-05-19T11:19:39Z</time>
      </trkpt>
      <trkpt lat="42.0829270" lon="-8.8904690">
        <ele>31.3</ele>
        <time>2021-05-19T11:19:40Z</time>
      </trkpt>
      <trkpt lat="42.0829270" lon="-8.8904690">
        <ele>31.3</ele>
        <time>2021-05-19T11:19:41Z</time>
      </trkpt>
      <trkpt lat="42.0829270" lon="-8.8904690">
        <ele>31.3</ele>
        <time>2021-05-19T11:19:42Z</time>
      </trkpt>
      <trkpt lat="42.0829270" lon="-8.8904690">
        <ele>31.3</ele>
        <time>2021-05-19T11:19:43Z</time>
      </trkpt>
      <trkpt lat="42.0829270" lon="-8.8904690">
        <ele>31.3</ele>
        <time>2021-05-19T11:19:44Z</time>
      </trkpt>
      <trkpt lat="42.0829270" lon="-8.8904690">
        <ele>31.3</ele>
        <time>2021-05-19T11:19:45Z</time>
      </trkpt>
      <trkpt lat="42.0829270" lon="-8.8904690">
        <ele>31.3</ele>
        <time>2021-05-19T11:19:46Z</time>
      </trkpt>
      <trkpt lat="42.0829270" lon="-8.8904690">
        <ele>31.3</ele>
        <time>2021-05-19T11:19:47Z</time>
      </trkpt>
      <trkpt lat="42.0829270" lon="-8.8904690">
        <ele>31.3</ele>
        <time>2021-05-19T11:19:48Z</time>
      </trkpt>
      <trkpt lat="42.0829270" lon="-8.8904690">
        <ele>31.3</ele>
        <time>2021-05-19T11:19:49Z</time>
      </trkpt>
      <trkpt lat="42.0829270" lon="-8.8904690">
        <ele>31.3</ele>
        <time>2021-05-19T11:19:50Z</time>
      </trkpt>
      <trkpt lat="42.0829270" lon="-8.8904690">
        <ele>31.3</ele>
        <time>2021-05-19T11:19:51Z</time>
      </trkpt>
      <trkpt lat="42.0829270" lon="-8.8904680">
        <ele>31.3</ele>
        <time>2021-05-19T11:19:52Z</time>
      </trkpt>
      <trkpt lat="42.0829270" lon="-8.8904680">
        <ele>31.3</ele>
        <time>2021-05-19T11:19:53Z</time>
      </trkpt>
      <trkpt lat="42.0829270" lon="-8.8904680">
        <ele>31.3</ele>
        <time>2021-05-19T11:19:54Z</time>
      </trkpt>
      <trkpt lat="42.0829270" lon="-8.8904680">
        <ele>31.3</ele>
        <time>2021-05-19T11:19:55Z</time>
      </trkpt>
      <trkpt lat="42.0829280" lon="-8.8904680">
        <ele>31.3</ele>
        <time>2021-05-19T11:19:56Z</time>
      </trkpt>
      <trkpt lat="42.0829280" lon="-8.8904680">
        <ele>31.3</ele>
        <time>2021-05-19T11:19:57Z</time>
      </trkpt>
      <trkpt lat="42.0829280" lon="-8.8904680">
        <ele>31.3</ele>
        <time>2021-05-19T11:19:58Z</time>
      </trkpt>
      <trkpt lat="42.0829280" lon="-8.8904680">
        <ele>31.3</ele>
        <time>2021-05-19T11:19:59Z</time>
      </trkpt>
      <trkpt lat="42.0829280" lon="-8.8904680">
        <ele>31.3</ele>
        <time>2021-05-19T11:20:00Z</time>
      </trkpt>
      <trkpt lat="42.0829280" lon="-8.8904680">
        <ele>31.3</ele>
        <time>2021-05-19T11:20:01Z</time>
      </trkpt>
      <trkpt lat="42.0829280" lon="-8.8904680">
        <ele>31.3</ele>
        <time>2021-05-19T11:20:02Z</time>
      </trkpt>
      <trkpt lat="42.0829280" lon="-8.8904680">
        <ele>31.3</ele>
        <time>2021-05-19T11:20:03Z</time>
      </trkpt>
      <trkpt lat="42.0829280" lon="-8.8904680">
        <ele>31.3</ele>
        <time>2021-05-19T11:20:04Z</time>
      </trkpt>
      <trkpt lat="42.0829280" lon="-8.8904680">
        <ele>31.3</ele>
        <time>2021-05-19T11:20:05Z</time>
      </trkpt>
      <trkpt lat="42.0829280" lon="-8.8904680">
        <ele>31.3</ele>
        <time>2021-05-19T11:20:06Z</time>
      </trkpt>
      <trkpt lat="42.0829280" lon="-8.8904680">
        <ele>31.3</ele>
        <time>2021-05-19T11:20:07Z</time>
      </trkpt>
      <trkpt lat="42.0829280" lon="-8.8904680">
        <ele>31.3</ele>
        <time>2021-05-19T11:20:08Z</time>
      </trkpt>
      <trkpt lat="42.0829280" lon="-8.8904680">
        <ele>31.3</ele>
        <time>2021-05-19T11:20:09Z</time>
      </trkpt>
      <trkpt lat="42.0829280" lon="-8.8904680">
        <ele>31.3</ele>
        <time>2021-05-19T11:20:10Z</time>
      </trkpt>
      <trkpt lat="42.0829280" lon="-8.8904680">
        <ele>31.3</ele>
        <time>2021-05-19T11:20:11Z</time>
      </trkpt>
      <trkpt lat="42.0829280" lon="-8.8904680">
        <ele>31.3</ele>
        <time>2021-05-19T11:20:12Z</time>
      </trkpt>
      <trkpt lat="42.0829280" lon="-8.8904680">
        <ele>31.3</ele>
        <time>2021-05-19T11:20:13Z</time>
      </trkpt>
      <trkpt lat="42.0829280" lon="-8.8904680">
        <ele>31.3</ele>
        <time>2021-05-19T11:20:14Z</time>
      </trkpt>
      <trkpt lat="42.0829280" lon="-8.8904670">
        <ele>31.3</ele>
        <time>2021-05-19T11:20:15Z</time>
      </trkpt>
      <trkpt lat="42.0829280" lon="-8.8904670">
        <ele>31.3</ele>
        <time>2021-05-19T11:20:16Z</time>
      </trkpt>
      <trkpt lat="42.0829280" lon="-8.8904670">
        <ele>31.3</ele>
        <time>2021-05-19T11:20:17Z</time>
      </trkpt>
      <trkpt lat="42.0829280" lon="-8.8904670">
        <ele>31.3</ele>
        <time>2021-05-19T11:20:18Z</time>
      </trkpt>
      <trkpt lat="42.0829280" lon="-8.8904670">
        <ele>31.3</ele>
        <time>2021-05-19T11:20:19Z</time>
      </trkpt>
      <trkpt lat="42.0829280" lon="-8.8904670">
        <ele>31.3</ele>
        <time>2021-05-19T11:20:20Z</time>
      </trkpt>
      <trkpt lat="42.0829280" lon="-8.8904670">
        <ele>31.3</ele>
        <time>2021-05-19T11:20:21Z</time>
      </trkpt>
      <trkpt lat="42.0829280" lon="-8.8904670">
        <ele>31.3</ele>
        <time>2021-05-19T11:20:22Z</time>
      </trkpt>
      <trkpt lat="42.0829280" lon="-8.8904670">
        <ele>31.3</ele>
        <time>2021-05-19T11:20:23Z</time>
      </trkpt>
      <trkpt lat="42.0829280" lon="-8.8904670">
        <ele>31.3</ele>
        <time>2021-05-19T11:20:24Z</time>
      </trkpt>
      <trkpt lat="42.0829280" lon="-8.8904670">
        <ele>31.3</ele>
        <time>2021-05-19T11:20:25Z</time>
      </trkpt>
      <trkpt lat="42.0829280" lon="-8.8904670">
        <ele>31.3</ele>
        <time>2021-05-19T11:20:26Z</time>
      </trkpt>
      <trkpt lat="42.0829280" lon="-8.8904670">
        <ele>31.3</ele>
        <time>2021-05-19T11:20:27Z</time>
      </trkpt>
      <trkpt lat="42.0829280" lon="-8.8904670">
        <ele>31.3</ele>
        <time>2021-05-19T11:20:28Z</time>
      </trkpt>
      <trkpt lat="42.0829280" lon="-8.8904670">
        <ele>31.3</ele>
        <time>2021-05-19T11:20:29Z</time>
      </trkpt>
      <trkpt lat="42.0829280" lon="-8.8904670">
        <ele>31.3</ele>
        <time>2021-05-19T11:20:30Z</time>
      </trkpt>
      <trkpt lat="42.0829280" lon="-8.8904670">
        <ele>31.3</ele>
        <time>2021-05-19T11:20:31Z</time>
      </trkpt>
      <trkpt lat="42.0829280" lon="-8.8904670">
        <ele>31.3</ele>
        <time>2021-05-19T11:20:32Z</time>
      </trkpt>
      <trkpt lat="42.0829280" lon="-8.8904670">
        <ele>31.3</ele>
        <time>2021-05-19T11:20:33Z</time>
      </trkpt>
      <trkpt lat="42.0829280" lon="-8.8904670">
        <ele>31.3</ele>
        <time>2021-05-19T11:20:34Z</time>
      </trkpt>
      <trkpt lat="42.0829280" lon="-8.8904670">
        <ele>31.3</ele>
        <time>2021-05-19T11:20:35Z</time>
      </trkpt>
      <trkpt lat="42.0829280" lon="-8.8904670">
        <ele>31.3</ele>
        <time>2021-05-19T11:20:36Z</time>
      </trkpt>
      <trkpt lat="42.0829280" lon="-8.8904670">
        <ele>31.3</ele>
        <time>2021-05-19T11:20:37Z</time>
      </trkpt>
      <trkpt lat="42.0829280" lon="-8.8904660">
        <ele>31.3</ele>
        <time>2021-05-19T11:20:38Z</time>
      </trkpt>
      <trkpt lat="42.0829280" lon="-8.8904660">
        <ele>31.3</ele>
        <time>2021-05-19T11:20:39Z</time>
      </trkpt>
      <trkpt lat="42.0829280" lon="-8.8904660">
        <ele>31.3</ele>
        <time>2021-05-19T11:20:40Z</time>
      </trkpt>
      <trkpt lat="42.0829280" lon="-8.8904660">
        <ele>31.3</ele>
        <time>2021-05-19T11:20:41Z</time>
      </trkpt>
      <trkpt lat="42.0829280" lon="-8.8904660">
        <ele>31.3</ele>
        <time>2021-05-19T11:20:42Z</time>
      </trkpt>
      <trkpt lat="42.0829280" lon="-8.8904660">
        <ele>31.3</ele>
        <time>2021-05-19T11:20:43Z</time>
      </trkpt>
      <trkpt lat="42.0829280" lon="-8.8904660">
        <ele>31.3</ele>
        <time>2021-05-19T11:20:44Z</time>
      </trkpt>
      <trkpt lat="42.0829280" lon="-8.8904660">
        <ele>31.3</ele>
        <time>2021-05-19T11:20:45Z</time>
      </trkpt>
      <trkpt lat="42.0829280" lon="-8.8904660">
        <ele>31.3</ele>
        <time>2021-05-19T11:20:46Z</time>
      </trkpt>
      <trkpt lat="42.0829280" lon="-8.8904660">
        <ele>31.3</ele>
        <time>2021-05-19T11:20:47Z</time>
      </trkpt>
      <trkpt lat="42.0829280" lon="-8.8904660">
        <ele>31.3</ele>
        <time>2021-05-19T11:20:48Z</time>
      </trkpt>
      <trkpt lat="42.0829280" lon="-8.8904660">
        <ele>31.3</ele>
        <time>2021-05-19T11:20:49Z</time>
      </trkpt>
      <trkpt lat="42.0829280" lon="-8.8904660">
        <ele>31.3</ele>
        <time>2021-05-19T11:20:50Z</time>
      </trkpt>
      <trkpt lat="42.0829280" lon="-8.8904660">
        <ele>31.3</ele>
        <time>2021-05-19T11:20:51Z</time>
      </trkpt>
      <trkpt lat="42.0829280" lon="-8.8904660">
        <ele>31.3</ele>
        <time>2021-05-19T11:20:52Z</time>
      </trkpt>
      <trkpt lat="42.0829280" lon="-8.8904660">
        <ele>31.3</ele>
        <time>2021-05-19T11:20:53Z</time>
      </trkpt>
      <trkpt lat="42.0829280" lon="-8.8904660">
        <ele>31.3</ele>
        <time>2021-05-19T11:20:54Z</time>
      </trkpt>
      <trkpt lat="42.0829280" lon="-8.8904660">
        <ele>31.3</ele>
        <time>2021-05-19T11:20:55Z</time>
      </trkpt>
      <trkpt lat="42.0829280" lon="-8.8904660">
        <ele>31.3</ele>
        <time>2021-05-19T11:20:56Z</time>
      </trkpt>
      <trkpt lat="42.0829280" lon="-8.8904660">
        <ele>31.3</ele>
        <time>2021-05-19T11:20:57Z</time>
      </trkpt>
      <trkpt lat="42.0829280" lon="-8.8904660">
        <ele>31.3</ele>
        <time>2021-05-19T11:20:58Z</time>
      </trkpt>
      <trkpt lat="42.0829280" lon="-8.8904660">
        <ele>31.3</ele>
        <time>2021-05-19T11:20:59Z</time>
      </trkpt>
      <trkpt lat="42.0829290" lon="-8.8904660">
        <ele>31.3</ele>
        <time>2021-05-19T11:21:00Z</time>
      </trkpt>
      <trkpt lat="42.0829290" lon="-8.8904650">
        <ele>31.3</ele>
        <time>2021-05-19T11:21:01Z</time>
      </trkpt>
      <trkpt lat="42.0829290" lon="-8.8904650">
        <ele>31.3</ele>
        <time>2021-05-19T11:21:02Z</time>
      </trkpt>
      <trkpt lat="42.0829290" lon="-8.8904650">
        <ele>31.3</ele>
        <time>2021-05-19T11:21:03Z</time>
      </trkpt>
      <trkpt lat="42.0829290" lon="-8.8904650">
        <ele>31.3</ele>
        <time>2021-05-19T11:21:04Z</time>
      </trkpt>
      <trkpt lat="42.0829290" lon="-8.8904650">
        <ele>31.3</ele>
        <time>2021-05-19T11:21:05Z</time>
      </trkpt>
      <trkpt lat="42.0829290" lon="-8.8904650">
        <ele>31.3</ele>
        <time>2021-05-19T11:21:06Z</time>
      </trkpt>
      <trkpt lat="42.0829290" lon="-8.8904650">
        <ele>31.3</ele>
        <time>2021-05-19T11:21:07Z</time>
      </trkpt>
      <trkpt lat="42.0829290" lon="-8.8904650">
        <ele>31.3</ele>
        <time>2021-05-19T11:21:08Z</time>
      </trkpt>
      <trkpt lat="42.0829290" lon="-8.8904650">
        <ele>31.3</ele>
        <time>2021-05-19T11:21:09Z</time>
      </trkpt>
      <trkpt lat="42.0829290" lon="-8.8904650">
        <ele>31.3</ele>
        <time>2021-05-19T11:21:10Z</time>
      </trkpt>
      <trkpt lat="42.0829290" lon="-8.8904650">
        <ele>31.3</ele>
        <time>2021-05-19T11:21:11Z</time>
      </trkpt>
      <trkpt lat="42.0829290" lon="-8.8904650">
        <ele>31.3</ele>
        <time>2021-05-19T11:21:12Z</time>
      </trkpt>
      <trkpt lat="42.0829290" lon="-8.8904650">
        <ele>31.3</ele>
        <time>2021-05-19T11:21:13Z</time>
      </trkpt>
      <trkpt lat="42.0829290" lon="-8.8904650">
        <ele>31.3</ele>
        <time>2021-05-19T11:21:14Z</time>
      </trkpt>
      <trkpt lat="42.0829290" lon="-8.8904650">
        <ele>31.3</ele>
        <time>2021-05-19T11:21:15Z</time>
      </trkpt>
      <trkpt lat="42.0829290" lon="-8.8904650">
        <ele>31.3</ele>
        <time>2021-05-19T11:21:16Z</time>
      </trkpt>
      <trkpt lat="42.0829290" lon="-8.8904650">
        <ele>31.3</ele>
        <time>2021-05-19T11:21:17Z</time>
      </trkpt>
      <trkpt lat="42.0829290" lon="-8.8904650">
        <ele>31.3</ele>
        <time>2021-05-19T11:21:18Z</time>
      </trkpt>
      <trkpt lat="42.0829290" lon="-8.8904650">
        <ele>31.3</ele>
        <time>2021-05-19T11:21:19Z</time>
      </trkpt>
      <trkpt lat="42.0829290" lon="-8.8904650">
        <ele>31.3</ele>
        <time>2021-05-19T11:21:20Z</time>
      </trkpt>
      <trkpt lat="42.0829290" lon="-8.8904650">
        <ele>31.3</ele>
        <time>2021-05-19T11:21:21Z</time>
      </trkpt>
      <trkpt lat="42.0829290" lon="-8.8904650">
        <ele>31.3</ele>
        <time>2021-05-19T11:21:22Z</time>
      </trkpt>
      <trkpt lat="42.0829290" lon="-8.8904650">
        <ele>31.3</ele>
        <time>2021-05-19T11:21:23Z</time>
      </trkpt>
      <trkpt lat="42.0829290" lon="-8.8904650">
        <ele>31.3</ele>
        <time>2021-05-19T11:21:24Z</time>
      </trkpt>
      <trkpt lat="42.0829290" lon="-8.8904640">
        <ele>31.3</ele>
        <time>2021-05-19T11:21:25Z</time>
      </trkpt>
      <trkpt lat="42.0829290" lon="-8.8904640">
        <ele>31.3</ele>
        <time>2021-05-19T11:21:26Z</time>
      </trkpt>
      <trkpt lat="42.0829290" lon="-8.8904640">
        <ele>31.3</ele>
        <time>2021-05-19T11:21:27Z</time>
      </trkpt>
      <trkpt lat="42.0829290" lon="-8.8904640">
        <ele>31.3</ele>
        <time>2021-05-19T11:21:28Z</time>
      </trkpt>
      <trkpt lat="42.0829290" lon="-8.8904640">
        <ele>31.3</ele>
        <time>2021-05-19T11:21:29Z</time>
      </trkpt>
      <trkpt lat="42.0829290" lon="-8.8904640">
        <ele>31.3</ele>
        <time>2021-05-19T11:21:30Z</time>
      </trkpt>
      <trkpt lat="42.0829290" lon="-8.8904640">
        <ele>31.3</ele>
        <time>2021-05-19T11:21:31Z</time>
      </trkpt>
      <trkpt lat="42.0829290" lon="-8.8904640">
        <ele>31.3</ele>
        <time>2021-05-19T11:21:32Z</time>
      </trkpt>
      <trkpt lat="42.0829290" lon="-8.8904640">
        <ele>31.3</ele>
        <time>2021-05-19T11:21:33Z</time>
      </trkpt>
      <trkpt lat="42.0829290" lon="-8.8904640">
        <ele>31.3</ele>
        <time>2021-05-19T11:21:34Z</time>
      </trkpt>
      <trkpt lat="42.0829290" lon="-8.8904640">
        <ele>31.3</ele>
        <time>2021-05-19T11:21:35Z</time>
      </trkpt>
      <trkpt lat="42.0829290" lon="-8.8904640">
        <ele>31.3</ele>
        <time>2021-05-19T11:21:36Z</time>
      </trkpt>
      <trkpt lat="42.0829290" lon="-8.8904640">
        <ele>31.3</ele>
        <time>2021-05-19T11:21:37Z</time>
      </trkpt>
      <trkpt lat="42.0829290" lon="-8.8904640">
        <ele>31.3</ele>
        <time>2021-05-19T11:21:38Z</time>
      </trkpt>
      <trkpt lat="42.0829290" lon="-8.8904640">
        <ele>31.3</ele>
        <time>2021-05-19T11:21:39Z</time>
      </trkpt>
      <trkpt lat="42.0829290" lon="-8.8904640">
        <ele>31.3</ele>
        <time>2021-05-19T11:21:40Z</time>
      </trkpt>
      <trkpt lat="42.0829290" lon="-8.8904640">
        <ele>31.3</ele>
        <time>2021-05-19T11:21:41Z</time>
      </trkpt>
      <trkpt lat="42.0829290" lon="-8.8904640">
        <ele>31.3</ele>
        <time>2021-05-19T11:21:42Z</time>
      </trkpt>
      <trkpt lat="42.0829290" lon="-8.8904640">
        <ele>31.3</ele>
        <time>2021-05-19T11:21:43Z</time>
      </trkpt>
      <trkpt lat="42.0829290" lon="-8.8904640">
        <ele>31.3</ele>
        <time>2021-05-19T11:21:44Z</time>
      </trkpt>
      <trkpt lat="42.0829290" lon="-8.8904640">
        <ele>31.3</ele>
        <time>2021-05-19T11:21:46Z</time>
      </trkpt>
      <trkpt lat="42.0829290" lon="-8.8904640">
        <ele>31.3</ele>
        <time>2021-05-19T11:21:47Z</time>
      </trkpt>
      <trkpt lat="42.0829290" lon="-8.8904640">
        <ele>31.3</ele>
        <time>2021-05-19T11:21:48Z</time>
      </trkpt>
      <trkpt lat="42.0829290" lon="-8.8904630">
        <ele>31.3</ele>
        <time>2021-05-19T11:21:49Z</time>
      </trkpt>
      <trkpt lat="42.0829290" lon="-8.8904630">
        <ele>31.3</ele>
        <time>2021-05-19T11:21:50Z</time>
      </trkpt>
      <trkpt lat="42.0829290" lon="-8.8904630">
        <ele>31.3</ele>
        <time>2021-05-19T11:21:51Z</time>
      </trkpt>
      <trkpt lat="42.0829290" lon="-8.8904630">
        <ele>31.3</ele>
        <time>2021-05-19T11:21:52Z</time>
      </trkpt>
      <trkpt lat="42.0829290" lon="-8.8904630">
        <ele>31.3</ele>
        <time>2021-05-19T11:21:53Z</time>
      </trkpt>
      <trkpt lat="42.0829290" lon="-8.8904630">
        <ele>31.3</ele>
        <time>2021-05-19T11:21:54Z</time>
      </trkpt>
      <trkpt lat="42.0829290" lon="-8.8904630">
        <ele>31.3</ele>
        <time>2021-05-19T11:21:55Z</time>
      </trkpt>
      <trkpt lat="42.0829290" lon="-8.8904630">
        <ele>31.3</ele>
        <time>2021-05-19T11:21:56Z</time>
      </trkpt>
      <trkpt lat="42.0829290" lon="-8.8904630">
        <ele>31.3</ele>
        <time>2021-05-19T11:21:57Z</time>
      </trkpt>
      <trkpt lat="42.0829290" lon="-8.8904630">
        <ele>31.3</ele>
        <time>2021-05-19T11:21:58Z</time>
      </trkpt>
      <trkpt lat="42.0829290" lon="-8.8904630">
        <ele>31.3</ele>
        <time>2021-05-19T11:21:59Z</time>
      </trkpt>
      <trkpt lat="42.0829290" lon="-8.8904630">
        <ele>31.3</ele>
        <time>2021-05-19T11:22:00Z</time>
      </trkpt>
      <trkpt lat="42.0829290" lon="-8.8904630">
        <ele>31.3</ele>
        <time>2021-05-19T11:22:01Z</time>
      </trkpt>
      <trkpt lat="42.0829290" lon="-8.8904630">
        <ele>31.3</ele>
        <time>2021-05-19T11:22:02Z</time>
      </trkpt>
      <trkpt lat="42.0829290" lon="-8.8904630">
        <ele>31.3</ele>
        <time>2021-05-19T11:22:03Z</time>
      </trkpt>
      <trkpt lat="42.0829290" lon="-8.8904630">
        <ele>31.3</ele>
        <time>2021-05-19T11:22:04Z</time>
      </trkpt>
      <trkpt lat="42.0829300" lon="-8.8904630">
        <ele>31.3</ele>
        <time>2021-05-19T11:22:05Z</time>
      </trkpt>
      <trkpt lat="42.0829300" lon="-8.8904630">
        <ele>31.3</ele>
        <time>2021-05-19T11:22:06Z</time>
      </trkpt>
      <trkpt lat="42.0829300" lon="-8.8904630">
        <ele>31.3</ele>
        <time>2021-05-19T11:22:07Z</time>
      </trkpt>
      <trkpt lat="42.0829300" lon="-8.8904630">
        <ele>31.3</ele>
        <time>2021-05-19T11:22:08Z</time>
      </trkpt>
      <trkpt lat="42.0829300" lon="-8.8904630">
        <ele>31.3</ele>
        <time>2021-05-19T11:22:09Z</time>
      </trkpt>
      <trkpt lat="42.0829300" lon="-8.8904630">
        <ele>31.3</ele>
        <time>2021-05-19T11:22:10Z</time>
      </trkpt>
      <trkpt lat="42.0829300" lon="-8.8904630">
        <ele>31.3</ele>
        <time>2021-05-19T11:22:11Z</time>
      </trkpt>
      <trkpt lat="42.0829300" lon="-8.8904620">
        <ele>31.3</ele>
        <time>2021-05-19T11:22:12Z</time>
      </trkpt>
      <trkpt lat="42.0829300" lon="-8.8904620">
        <ele>31.3</ele>
        <time>2021-05-19T11:22:13Z</time>
      </trkpt>
      <trkpt lat="42.0829300" lon="-8.8904620">
        <ele>31.3</ele>
        <time>2021-05-19T11:22:14Z</time>
      </trkpt>
      <trkpt lat="42.0829300" lon="-8.8904620">
        <ele>31.3</ele>
        <time>2021-05-19T11:22:15Z</time>
      </trkpt>
      <trkpt lat="42.0829300" lon="-8.8904620">
        <ele>31.3</ele>
        <time>2021-05-19T11:22:16Z</time>
      </trkpt>
      <trkpt lat="42.0829300" lon="-8.8904620">
        <ele>31.3</ele>
        <time>2021-05-19T11:22:17Z</time>
      </trkpt>
      <trkpt lat="42.0829300" lon="-8.8904620">
        <ele>31.3</ele>
        <time>2021-05-19T11:22:18Z</time>
      </trkpt>
      <trkpt lat="42.0829300" lon="-8.8904620">
        <ele>31.3</ele>
        <time>2021-05-19T11:22:19Z</time>
      </trkpt>
      <trkpt lat="42.0829300" lon="-8.8904620">
        <ele>31.3</ele>
        <time>2021-05-19T11:22:20Z</time>
      </trkpt>
      <trkpt lat="42.0829300" lon="-8.8904620">
        <ele>31.3</ele>
        <time>2021-05-19T11:22:21Z</time>
      </trkpt>
      <trkpt lat="42.0829300" lon="-8.8904620">
        <ele>31.3</ele>
        <time>2021-05-19T11:22:22Z</time>
      </trkpt>
      <trkpt lat="42.0829300" lon="-8.8904620">
        <ele>31.3</ele>
        <time>2021-05-19T11:22:23Z</time>
      </trkpt>
      <trkpt lat="42.0829300" lon="-8.8904620">
        <ele>31.3</ele>
        <time>2021-05-19T11:22:24Z</time>
      </trkpt>
      <trkpt lat="42.0829300" lon="-8.8904620">
        <ele>31.3</ele>
        <time>2021-05-19T11:22:25Z</time>
      </trkpt>
      <trkpt lat="42.0829300" lon="-8.8904620">
        <ele>31.3</ele>
        <time>2021-05-19T11:22:26Z</time>
      </trkpt>
      <trkpt lat="42.0829300" lon="-8.8904620">
        <ele>31.3</ele>
        <time>2021-05-19T11:22:27Z</time>
      </trkpt>
      <trkpt lat="42.0829300" lon="-8.8904620">
        <ele>31.3</ele>
        <time>2021-05-19T11:22:28Z</time>
      </trkpt>
      <trkpt lat="42.0829300" lon="-8.8904620">
        <ele>31.3</ele>
        <time>2021-05-19T11:22:29Z</time>
      </trkpt>
      <trkpt lat="42.0829300" lon="-8.8904620">
        <ele>31.3</ele>
        <time>2021-05-19T11:22:30Z</time>
      </trkpt>
      <trkpt lat="42.0829300" lon="-8.8904620">
        <ele>31.3</ele>
        <time>2021-05-19T11:22:31Z</time>
      </trkpt>
      <trkpt lat="42.0829300" lon="-8.8904620">
        <ele>31.3</ele>
        <time>2021-05-19T11:22:32Z</time>
      </trkpt>
      <trkpt lat="42.0829300" lon="-8.8904620">
        <ele>31.3</ele>
        <time>2021-05-19T11:22:33Z</time>
      </trkpt>
      <trkpt lat="42.0829300" lon="-8.8904620">
        <ele>31.3</ele>
        <time>2021-05-19T11:22:34Z</time>
      </trkpt>
      <trkpt lat="42.0829300" lon="-8.8904610">
        <ele>31.3</ele>
        <time>2021-05-19T11:22:35Z</time>
      </trkpt>
      <trkpt lat="42.0829300" lon="-8.8904610">
        <ele>31.3</ele>
        <time>2021-05-19T11:22:36Z</time>
      </trkpt>
      <trkpt lat="42.0829300" lon="-8.8904610">
        <ele>31.3</ele>
        <time>2021-05-19T11:22:37Z</time>
      </trkpt>
      <trkpt lat="42.0829300" lon="-8.8904610">
        <ele>31.3</ele>
        <time>2021-05-19T11:22:38Z</time>
      </trkpt>
      <trkpt lat="42.0829300" lon="-8.8904610">
        <ele>31.3</ele>
        <time>2021-05-19T11:22:39Z</time>
      </trkpt>
      <trkpt lat="42.0829300" lon="-8.8904610">
        <ele>31.3</ele>
        <time>2021-05-19T11:22:40Z</time>
      </trkpt>
      <trkpt lat="42.0829300" lon="-8.8904610">
        <ele>31.3</ele>
        <time>2021-05-19T11:22:41Z</time>
      </trkpt>
      <trkpt lat="42.0829300" lon="-8.8904610">
        <ele>31.3</ele>
        <time>2021-05-19T11:22:42Z</time>
      </trkpt>
      <trkpt lat="42.0829300" lon="-8.8904610">
        <ele>31.3</ele>
        <time>2021-05-19T11:22:43Z</time>
      </trkpt>
      <trkpt lat="42.0829300" lon="-8.8904610">
        <ele>31.3</ele>
        <time>2021-05-19T11:22:44Z</time>
      </trkpt>
      <trkpt lat="42.0829300" lon="-8.8904610">
        <ele>31.3</ele>
        <time>2021-05-19T11:22:45Z</time>
      </trkpt>
      <trkpt lat="42.0829300" lon="-8.8904610">
        <ele>31.3</ele>
        <time>2021-05-19T11:22:46Z</time>
      </trkpt>
      <trkpt lat="42.0829300" lon="-8.8904610">
        <ele>31.3</ele>
        <time>2021-05-19T11:22:47Z</time>
      </trkpt>
      <trkpt lat="42.0829300" lon="-8.8904610">
        <ele>31.3</ele>
        <time>2021-05-19T11:22:48Z</time>
      </trkpt>
      <trkpt lat="42.0829300" lon="-8.8904610">
        <ele>31.3</ele>
        <time>2021-05-19T11:22:49Z</time>
      </trkpt>
      <trkpt lat="42.0829300" lon="-8.8904610">
        <ele>31.3</ele>
        <time>2021-05-19T11:22:50Z</time>
      </trkpt>
      <trkpt lat="42.0829300" lon="-8.8904610">
        <ele>31.3</ele>
        <time>2021-05-19T11:22:51Z</time>
      </trkpt>
      <trkpt lat="42.0829300" lon="-8.8904610">
        <ele>31.3</ele>
        <time>2021-05-19T11:22:52Z</time>
      </trkpt>
      <trkpt lat="42.0829300" lon="-8.8904610">
        <ele>31.3</ele>
        <time>2021-05-19T11:22:53Z</time>
      </trkpt>
      <trkpt lat="42.0829300" lon="-8.8904610">
        <ele>31.3</ele>
        <time>2021-05-19T11:22:54Z</time>
      </trkpt>
      <trkpt lat="42.0829300" lon="-8.8904610">
        <ele>31.3</ele>
        <time>2021-05-19T11:22:55Z</time>
      </trkpt>
      <trkpt lat="42.0829300" lon="-8.8904610">
        <ele>31.3</ele>
        <time>2021-05-19T11:22:56Z</time>
      </trkpt>
      <trkpt lat="42.0829300" lon="-8.8904610">
        <ele>31.3</ele>
        <time>2021-05-19T11:22:57Z</time>
      </trkpt>
      <trkpt lat="42.0829300" lon="-8.8904600">
        <ele>31.3</ele>
        <time>2021-05-19T11:22:58Z</time>
      </trkpt>
      <trkpt lat="42.0829300" lon="-8.8904600">
        <ele>31.3</ele>
        <time>2021-05-19T11:22:59Z</time>
      </trkpt>
      <trkpt lat="42.0829300" lon="-8.8904600">
        <ele>31.3</ele>
        <time>2021-05-19T11:23:00Z</time>
      </trkpt>
      <trkpt lat="42.0829300" lon="-8.8904600">
        <ele>31.3</ele>
        <time>2021-05-19T11:23:01Z</time>
      </trkpt>
      <trkpt lat="42.0829300" lon="-8.8904600">
        <ele>31.3</ele>
        <time>2021-05-19T11:23:02Z</time>
      </trkpt>
      <trkpt lat="42.0829300" lon="-8.8904600">
        <ele>31.3</ele>
        <time>2021-05-19T11:23:03Z</time>
      </trkpt>
      <trkpt lat="42.0829300" lon="-8.8904600">
        <ele>31.3</ele>
        <time>2021-05-19T11:23:04Z</time>
      </trkpt>
      <trkpt lat="42.0829300" lon="-8.8904600">
        <ele>31.3</ele>
        <time>2021-05-19T11:23:05Z</time>
      </trkpt>
      <trkpt lat="42.0829300" lon="-8.8904600">
        <ele>31.3</ele>
        <time>2021-05-19T11:23:06Z</time>
      </trkpt>
      <trkpt lat="42.0829300" lon="-8.8904600">
        <ele>31.3</ele>
        <time>2021-05-19T11:23:07Z</time>
      </trkpt>
      <trkpt lat="42.0829300" lon="-8.8904600">
        <ele>31.3</ele>
        <time>2021-05-19T11:23:08Z</time>
      </trkpt>
      <trkpt lat="42.0829310" lon="-8.8904600">
        <ele>31.3</ele>
        <time>2021-05-19T11:23:09Z</time>
      </trkpt>
      <trkpt lat="42.0829310" lon="-8.8904600">
        <ele>31.3</ele>
        <time>2021-05-19T11:23:10Z</time>
      </trkpt>
      <trkpt lat="42.0829310" lon="-8.8904600">
        <ele>31.3</ele>
        <time>2021-05-19T11:23:12Z</time>
      </trkpt>
      <trkpt lat="42.0829310" lon="-8.8904600">
        <ele>31.3</ele>
        <time>2021-05-19T11:23:13Z</time>
      </trkpt>
      <trkpt lat="42.0829310" lon="-8.8904600">
        <ele>31.3</ele>
        <time>2021-05-19T11:23:14Z</time>
      </trkpt>
      <trkpt lat="42.0829310" lon="-8.8904600">
        <ele>31.3</ele>
        <time>2021-05-19T11:23:15Z</time>
      </trkpt>
      <trkpt lat="42.0829310" lon="-8.8904600">
        <ele>31.3</ele>
        <time>2021-05-19T11:23:16Z</time>
      </trkpt>
      <trkpt lat="42.0829310" lon="-8.8904600">
        <ele>31.3</ele>
        <time>2021-05-19T11:23:17Z</time>
      </trkpt>
      <trkpt lat="42.0829310" lon="-8.8904600">
        <ele>31.3</ele>
        <time>2021-05-19T11:23:18Z</time>
      </trkpt>
      <trkpt lat="42.0829310" lon="-8.8904600">
        <ele>31.3</ele>
        <time>2021-05-19T11:23:19Z</time>
      </trkpt>
      <trkpt lat="42.0829310" lon="-8.8904600">
        <ele>31.3</ele>
        <time>2021-05-19T11:23:20Z</time>
      </trkpt>
      <trkpt lat="42.0829310" lon="-8.8904600">
        <ele>31.3</ele>
        <time>2021-05-19T11:23:21Z</time>
      </trkpt>
      <trkpt lat="42.0829310" lon="-8.8904600">
        <ele>31.3</ele>
        <time>2021-05-19T11:23:22Z</time>
      </trkpt>
      <trkpt lat="42.0829310" lon="-8.8904590">
        <ele>31.3</ele>
        <time>2021-05-19T11:23:23Z</time>
      </trkpt>
      <trkpt lat="42.0829310" lon="-8.8904590">
        <ele>31.3</ele>
        <time>2021-05-19T11:23:24Z</time>
      </trkpt>
      <trkpt lat="42.0829310" lon="-8.8904590">
        <ele>31.3</ele>
        <time>2021-05-19T11:23:25Z</time>
      </trkpt>
      <trkpt lat="42.0829310" lon="-8.8904590">
        <ele>31.3</ele>
        <time>2021-05-19T11:23:26Z</time>
      </trkpt>
      <trkpt lat="42.0829310" lon="-8.8904590">
        <ele>31.3</ele>
        <time>2021-05-19T11:23:27Z</time>
      </trkpt>
      <trkpt lat="42.0829310" lon="-8.8904590">
        <ele>31.3</ele>
        <time>2021-05-19T11:23:28Z</time>
      </trkpt>
      <trkpt lat="42.0829310" lon="-8.8904590">
        <ele>31.3</ele>
        <time>2021-05-19T11:23:29Z</time>
      </trkpt>
      <trkpt lat="42.0829310" lon="-8.8904590">
        <ele>31.3</ele>
        <time>2021-05-19T11:23:30Z</time>
      </trkpt>
      <trkpt lat="42.0829310" lon="-8.8904590">
        <ele>31.3</ele>
        <time>2021-05-19T11:23:31Z</time>
      </trkpt>
      <trkpt lat="42.0829310" lon="-8.8904590">
        <ele>31.3</ele>
        <time>2021-05-19T11:23:32Z</time>
      </trkpt>
      <trkpt lat="42.0829310" lon="-8.8904590">
        <ele>31.3</ele>
        <time>2021-05-19T11:23:33Z</time>
      </trkpt>
      <trkpt lat="42.0829310" lon="-8.8904590">
        <ele>31.3</ele>
        <time>2021-05-19T11:23:34Z</time>
      </trkpt>
      <trkpt lat="42.0829310" lon="-8.8904590">
        <ele>31.3</ele>
        <time>2021-05-19T11:23:35Z</time>
      </trkpt>
      <trkpt lat="42.0829310" lon="-8.8904590">
        <ele>31.3</ele>
        <time>2021-05-19T11:23:36Z</time>
      </trkpt>
      <trkpt lat="42.0829310" lon="-8.8904590">
        <ele>31.3</ele>
        <time>2021-05-19T11:23:37Z</time>
      </trkpt>
      <trkpt lat="42.0829310" lon="-8.8904590">
        <ele>31.3</ele>
        <time>2021-05-19T11:23:38Z</time>
      </trkpt>
      <trkpt lat="42.0829310" lon="-8.8904590">
        <ele>31.3</ele>
        <time>2021-05-19T11:23:39Z</time>
      </trkpt>
      <trkpt lat="42.0829310" lon="-8.8904590">
        <ele>31.3</ele>
        <time>2021-05-19T11:23:40Z</time>
      </trkpt>
      <trkpt lat="42.0829310" lon="-8.8904590">
        <ele>31.3</ele>
        <time>2021-05-19T11:23:41Z</time>
      </trkpt>
      <trkpt lat="42.0829310" lon="-8.8904590">
        <ele>31.3</ele>
        <time>2021-05-19T11:23:42Z</time>
      </trkpt>
      <trkpt lat="42.0829310" lon="-8.8904590">
        <ele>31.3</ele>
        <time>2021-05-19T11:23:43Z</time>
      </trkpt>
      <trkpt lat="42.0829310" lon="-8.8904590">
        <ele>31.3</ele>
        <time>2021-05-19T11:23:44Z</time>
      </trkpt>
      <trkpt lat="42.0829310" lon="-8.8904590">
        <ele>31.3</ele>
        <time>2021-05-19T11:23:45Z</time>
      </trkpt>
      <trkpt lat="42.0829310" lon="-8.8904580">
        <ele>31.3</ele>
        <time>2021-05-19T11:23:46Z</time>
      </trkpt>
      <trkpt lat="42.0829310" lon="-8.8904580">
        <ele>31.3</ele>
        <time>2021-05-19T11:23:47Z</time>
      </trkpt>
      <trkpt lat="42.0829310" lon="-8.8904580">
        <ele>31.3</ele>
        <time>2021-05-19T11:23:48Z</time>
      </trkpt>
      <trkpt lat="42.0829310" lon="-8.8904580">
        <ele>31.3</ele>
        <time>2021-05-19T11:23:49Z</time>
      </trkpt>
      <trkpt lat="42.0829310" lon="-8.8904580">
        <ele>31.3</ele>
        <time>2021-05-19T11:23:50Z</time>
      </trkpt>
      <trkpt lat="42.0829310" lon="-8.8904580">
        <ele>31.3</ele>
        <time>2021-05-19T11:23:51Z</time>
      </trkpt>
      <trkpt lat="42.0829310" lon="-8.8904580">
        <ele>31.3</ele>
        <time>2021-05-19T11:23:52Z</time>
      </trkpt>
      <trkpt lat="42.0829310" lon="-8.8904580">
        <ele>31.3</ele>
        <time>2021-05-19T11:23:53Z</time>
      </trkpt>
      <trkpt lat="42.0829310" lon="-8.8904580">
        <ele>31.3</ele>
        <time>2021-05-19T11:23:54Z</time>
      </trkpt>
      <trkpt lat="42.0829310" lon="-8.8904580">
        <ele>31.3</ele>
        <time>2021-05-19T11:23:55Z</time>
      </trkpt>
      <trkpt lat="42.0829310" lon="-8.8904580">
        <ele>31.3</ele>
        <time>2021-05-19T11:23:56Z</time>
      </trkpt>
      <trkpt lat="42.0829310" lon="-8.8904580">
        <ele>31.3</ele>
        <time>2021-05-19T11:23:57Z</time>
      </trkpt>
      <trkpt lat="42.0829310" lon="-8.8904580">
        <ele>31.3</ele>
        <time>2021-05-19T11:23:58Z</time>
      </trkpt>
      <trkpt lat="42.0829310" lon="-8.8904580">
        <ele>31.3</ele>
        <time>2021-05-19T11:23:59Z</time>
      </trkpt>
      <trkpt lat="42.0829310" lon="-8.8904580">
        <ele>31.3</ele>
        <time>2021-05-19T11:24:00Z</time>
      </trkpt>
      <trkpt lat="42.0829310" lon="-8.8904580">
        <ele>31.3</ele>
        <time>2021-05-19T11:24:01Z</time>
      </trkpt>
      <trkpt lat="42.0829310" lon="-8.8904580">
        <ele>31.3</ele>
        <time>2021-05-19T11:24:02Z</time>
      </trkpt>
      <trkpt lat="42.0829310" lon="-8.8904580">
        <ele>31.3</ele>
        <time>2021-05-19T11:24:03Z</time>
      </trkpt>
      <trkpt lat="42.0829310" lon="-8.8904580">
        <ele>31.3</ele>
        <time>2021-05-19T11:24:04Z</time>
      </trkpt>
      <trkpt lat="42.0829310" lon="-8.8904580">
        <ele>31.3</ele>
        <time>2021-05-19T11:24:05Z</time>
      </trkpt>
      <trkpt lat="42.0829310" lon="-8.8904580">
        <ele>31.3</ele>
        <time>2021-05-19T11:24:06Z</time>
      </trkpt>
      <trkpt lat="42.0829310" lon="-8.8904580">
        <ele>31.3</ele>
        <time>2021-05-19T11:24:07Z</time>
      </trkpt>
      <trkpt lat="42.0829310" lon="-8.8904580">
        <ele>31.3</ele>
        <time>2021-05-19T11:24:08Z</time>
      </trkpt>
      <trkpt lat="42.0829310" lon="-8.8904570">
        <ele>31.3</ele>
        <time>2021-05-19T11:24:09Z</time>
      </trkpt>
      <trkpt lat="42.0829310" lon="-8.8904570">
        <ele>31.3</ele>
        <time>2021-05-19T11:24:10Z</time>
      </trkpt>
      <trkpt lat="42.0829310" lon="-8.8904570">
        <ele>31.3</ele>
        <time>2021-05-19T11:24:11Z</time>
      </trkpt>
      <trkpt lat="42.0829310" lon="-8.8904570">
        <ele>31.3</ele>
        <time>2021-05-19T11:24:12Z</time>
      </trkpt>
      <trkpt lat="42.0829310" lon="-8.8904570">
        <ele>31.3</ele>
        <time>2021-05-19T11:24:13Z</time>
      </trkpt>
      <trkpt lat="42.0829320" lon="-8.8904570">
        <ele>31.3</ele>
        <time>2021-05-19T11:24:14Z</time>
      </trkpt>
      <trkpt lat="42.0829320" lon="-8.8904570">
        <ele>31.3</ele>
        <time>2021-05-19T11:24:15Z</time>
      </trkpt>
      <trkpt lat="42.0829320" lon="-8.8904570">
        <ele>31.3</ele>
        <time>2021-05-19T11:24:16Z</time>
      </trkpt>
      <trkpt lat="42.0829320" lon="-8.8904570">
        <ele>31.3</ele>
        <time>2021-05-19T11:24:17Z</time>
      </trkpt>
      <trkpt lat="42.0829320" lon="-8.8904570">
        <ele>31.3</ele>
        <time>2021-05-19T11:24:18Z</time>
      </trkpt>
      <trkpt lat="42.0829320" lon="-8.8904570">
        <ele>31.3</ele>
        <time>2021-05-19T11:24:19Z</time>
      </trkpt>
      <trkpt lat="42.0829320" lon="-8.8904570">
        <ele>31.3</ele>
        <time>2021-05-19T11:24:20Z</time>
      </trkpt>
      <trkpt lat="42.0829320" lon="-8.8904570">
        <ele>31.3</ele>
        <time>2021-05-19T11:24:21Z</time>
      </trkpt>
      <trkpt lat="42.0829320" lon="-8.8904570">
        <ele>31.3</ele>
        <time>2021-05-19T11:24:22Z</time>
      </trkpt>
      <trkpt lat="42.0829320" lon="-8.8904570">
        <ele>31.3</ele>
        <time>2021-05-19T11:24:23Z</time>
      </trkpt>
      <trkpt lat="42.0829320" lon="-8.8904570">
        <ele>31.3</ele>
        <time>2021-05-19T11:24:24Z</time>
      </trkpt>
      <trkpt lat="42.0829320" lon="-8.8904570">
        <ele>31.3</ele>
        <time>2021-05-19T11:24:25Z</time>
      </trkpt>
      <trkpt lat="42.0829320" lon="-8.8904570">
        <ele>31.3</ele>
        <time>2021-05-19T11:24:26Z</time>
      </trkpt>
      <trkpt lat="42.0829320" lon="-8.8904570">
        <ele>31.3</ele>
        <time>2021-05-19T11:24:27Z</time>
      </trkpt>
      <trkpt lat="42.0829320" lon="-8.8904570">
        <ele>31.3</ele>
        <time>2021-05-19T11:24:28Z</time>
      </trkpt>
      <trkpt lat="42.0829320" lon="-8.8904570">
        <ele>31.3</ele>
        <time>2021-05-19T11:24:29Z</time>
      </trkpt>
      <trkpt lat="42.0829320" lon="-8.8904570">
        <ele>31.3</ele>
        <time>2021-05-19T11:24:30Z</time>
      </trkpt>
      <trkpt lat="42.0829320" lon="-8.8904570">
        <ele>31.3</ele>
        <time>2021-05-19T11:24:31Z</time>
      </trkpt>
      <trkpt lat="42.0829320" lon="-8.8904560">
        <ele>31.3</ele>
        <time>2021-05-19T11:24:32Z</time>
      </trkpt>
      <trkpt lat="42.0829320" lon="-8.8904560">
        <ele>31.3</ele>
        <time>2021-05-19T11:24:33Z</time>
      </trkpt>
      <trkpt lat="42.0829320" lon="-8.8904560">
        <ele>31.3</ele>
        <time>2021-05-19T11:24:34Z</time>
      </trkpt>
      <trkpt lat="42.0829320" lon="-8.8904560">
        <ele>31.3</ele>
        <time>2021-05-19T11:24:35Z</time>
      </trkpt>
      <trkpt lat="42.0829320" lon="-8.8904560">
        <ele>31.3</ele>
        <time>2021-05-19T11:24:36Z</time>
      </trkpt>
      <trkpt lat="42.0829320" lon="-8.8904560">
        <ele>31.3</ele>
        <time>2021-05-19T11:24:37Z</time>
      </trkpt>
      <trkpt lat="42.0829320" lon="-8.8904560">
        <ele>31.3</ele>
        <time>2021-05-19T11:24:38Z</time>
      </trkpt>
      <trkpt lat="42.0829320" lon="-8.8904560">
        <ele>31.3</ele>
        <time>2021-05-19T11:24:39Z</time>
      </trkpt>
      <trkpt lat="42.0829320" lon="-8.8904560">
        <ele>31.3</ele>
        <time>2021-05-19T11:24:40Z</time>
      </trkpt>
      <trkpt lat="42.0829320" lon="-8.8904560">
        <ele>31.3</ele>
        <time>2021-05-19T11:24:41Z</time>
      </trkpt>
      <trkpt lat="42.0829320" lon="-8.8904560">
        <ele>31.3</ele>
        <time>2021-05-19T11:24:42Z</time>
      </trkpt>
      <trkpt lat="42.0829320" lon="-8.8904560">
        <ele>31.3</ele>
        <time>2021-05-19T11:24:43Z</time>
      </trkpt>
      <trkpt lat="42.0829320" lon="-8.8904560">
        <ele>31.3</ele>
        <time>2021-05-19T11:24:44Z</time>
      </trkpt>
      <trkpt lat="42.0829320" lon="-8.8904560">
        <ele>31.3</ele>
        <time>2021-05-19T11:24:45Z</time>
      </trkpt>
      <trkpt lat="42.0829320" lon="-8.8904560">
        <ele>31.3</ele>
        <time>2021-05-19T11:24:46Z</time>
      </trkpt>
      <trkpt lat="42.0829320" lon="-8.8904560">
        <ele>31.3</ele>
        <time>2021-05-19T11:24:47Z</time>
      </trkpt>
      <trkpt lat="42.0829320" lon="-8.8904560">
        <ele>31.3</ele>
        <time>2021-05-19T11:24:48Z</time>
      </trkpt>
      <trkpt lat="42.0829320" lon="-8.8904560">
        <ele>31.3</ele>
        <time>2021-05-19T11:24:49Z</time>
      </trkpt>
      <trkpt lat="42.0829320" lon="-8.8904560">
        <ele>31.3</ele>
        <time>2021-05-19T11:24:50Z</time>
      </trkpt>
      <trkpt lat="42.0829320" lon="-8.8904560">
        <ele>31.3</ele>
        <time>2021-05-19T11:24:51Z</time>
      </trkpt>
      <trkpt lat="42.0829320" lon="-8.8904560">
        <ele>31.3</ele>
        <time>2021-05-19T11:24:52Z</time>
      </trkpt>
      <trkpt lat="42.0829320" lon="-8.8904560">
        <ele>31.3</ele>
        <time>2021-05-19T11:24:53Z</time>
      </trkpt>
      <trkpt lat="42.0829320" lon="-8.8904560">
        <ele>31.3</ele>
        <time>2021-05-19T11:24:54Z</time>
      </trkpt>
      <trkpt lat="42.0829320" lon="-8.8904550">
        <ele>31.3</ele>
        <time>2021-05-19T11:24:55Z</time>
      </trkpt>
      <trkpt lat="42.0829320" lon="-8.8904550">
        <ele>31.3</ele>
        <time>2021-05-19T11:24:56Z</time>
      </trkpt>
      <trkpt lat="42.0829320" lon="-8.8904550">
        <ele>31.3</ele>
        <time>2021-05-19T11:24:57Z</time>
      </trkpt>
      <trkpt lat="42.0829320" lon="-8.8904550">
        <ele>31.3</ele>
        <time>2021-05-19T11:24:58Z</time>
      </trkpt>
      <trkpt lat="42.0829320" lon="-8.8904550">
        <ele>31.3</ele>
        <time>2021-05-19T11:24:59Z</time>
      </trkpt>
      <trkpt lat="42.0829320" lon="-8.8904550">
        <ele>31.3</ele>
        <time>2021-05-19T11:25:00Z</time>
      </trkpt>
      <trkpt lat="42.0829320" lon="-8.8904550">
        <ele>31.3</ele>
        <time>2021-05-19T11:25:01Z</time>
      </trkpt>
      <trkpt lat="42.0829320" lon="-8.8904550">
        <ele>31.3</ele>
        <time>2021-05-19T11:25:02Z</time>
      </trkpt>
      <trkpt lat="42.0829320" lon="-8.8904550">
        <ele>31.3</ele>
        <time>2021-05-19T11:25:03Z</time>
      </trkpt>
      <trkpt lat="42.0829320" lon="-8.8904550">
        <ele>31.3</ele>
        <time>2021-05-19T11:25:04Z</time>
      </trkpt>
      <trkpt lat="42.0829320" lon="-8.8904550">
        <ele>31.3</ele>
        <time>2021-05-19T11:25:05Z</time>
      </trkpt>
      <trkpt lat="42.0829320" lon="-8.8904550">
        <ele>31.3</ele>
        <time>2021-05-19T11:25:07Z</time>
      </trkpt>
      <trkpt lat="42.0829320" lon="-8.8904550">
        <ele>31.3</ele>
        <time>2021-05-19T11:25:08Z</time>
      </trkpt>
      <trkpt lat="42.0829320" lon="-8.8904550">
        <ele>31.3</ele>
        <time>2021-05-19T11:25:09Z</time>
      </trkpt>
      <trkpt lat="42.0829320" lon="-8.8904550">
        <ele>31.3</ele>
        <time>2021-05-19T11:25:10Z</time>
      </trkpt>
      <trkpt lat="42.0829320" lon="-8.8904550">
        <ele>31.3</ele>
        <time>2021-05-19T11:25:11Z</time>
      </trkpt>
      <trkpt lat="42.0829320" lon="-8.8904550">
        <ele>31.3</ele>
        <time>2021-05-19T11:25:12Z</time>
      </trkpt>
      <trkpt lat="42.0829320" lon="-8.8904550">
        <ele>31.3</ele>
        <time>2021-05-19T11:25:13Z</time>
      </trkpt>
      <trkpt lat="42.0829320" lon="-8.8904550">
        <ele>31.3</ele>
        <time>2021-05-19T11:25:14Z</time>
      </trkpt>
      <trkpt lat="42.0829320" lon="-8.8904550">
        <ele>31.3</ele>
        <time>2021-05-19T11:25:15Z</time>
      </trkpt>
      <trkpt lat="42.0829320" lon="-8.8904550">
        <ele>31.3</ele>
        <time>2021-05-19T11:25:16Z</time>
      </trkpt>
      <trkpt lat="42.0829320" lon="-8.8904550">
        <ele>31.3</ele>
        <time>2021-05-19T11:25:17Z</time>
      </trkpt>
      <trkpt lat="42.0829320" lon="-8.8904550">
        <ele>31.3</ele>
        <time>2021-05-19T11:25:18Z</time>
      </trkpt>
      <trkpt lat="42.0829330" lon="-8.8904540">
        <ele>31.3</ele>
        <time>2021-05-19T11:25:19Z</time>
      </trkpt>
      <trkpt lat="42.0829330" lon="-8.8904540">
        <ele>31.3</ele>
        <time>2021-05-19T11:25:20Z</time>
      </trkpt>
      <trkpt lat="42.0829330" lon="-8.8904540">
        <ele>31.3</ele>
        <time>2021-05-19T11:25:21Z</time>
      </trkpt>
      <trkpt lat="42.0829330" lon="-8.8904540">
        <ele>31.3</ele>
        <time>2021-05-19T11:25:22Z</time>
      </trkpt>
      <trkpt lat="42.0829330" lon="-8.8904540">
        <ele>31.3</ele>
        <time>2021-05-19T11:25:23Z</time>
      </trkpt>
      <trkpt lat="42.0829330" lon="-8.8904540">
        <ele>31.3</ele>
        <time>2021-05-19T11:25:24Z</time>
      </trkpt>
      <trkpt lat="42.0829330" lon="-8.8904540">
        <ele>31.3</ele>
        <time>2021-05-19T11:25:25Z</time>
      </trkpt>
      <trkpt lat="42.0829330" lon="-8.8904540">
        <ele>31.3</ele>
        <time>2021-05-19T11:25:26Z</time>
      </trkpt>
      <trkpt lat="42.0829330" lon="-8.8904540">
        <ele>31.3</ele>
        <time>2021-05-19T11:25:27Z</time>
      </trkpt>
      <trkpt lat="42.0829330" lon="-8.8904540">
        <ele>31.3</ele>
        <time>2021-05-19T11:25:28Z</time>
      </trkpt>
      <trkpt lat="42.0829330" lon="-8.8904540">
        <ele>31.3</ele>
        <time>2021-05-19T11:25:29Z</time>
      </trkpt>
      <trkpt lat="42.0829330" lon="-8.8904540">
        <ele>31.3</ele>
        <time>2021-05-19T11:25:30Z</time>
      </trkpt>
      <trkpt lat="42.0829330" lon="-8.8904540">
        <ele>31.3</ele>
        <time>2021-05-19T11:25:31Z</time>
      </trkpt>
      <trkpt lat="42.0829330" lon="-8.8904540">
        <ele>31.3</ele>
        <time>2021-05-19T11:25:32Z</time>
      </trkpt>
      <trkpt lat="42.0829330" lon="-8.8904540">
        <ele>31.3</ele>
        <time>2021-05-19T11:25:33Z</time>
      </trkpt>
      <trkpt lat="42.0829330" lon="-8.8904540">
        <ele>31.3</ele>
        <time>2021-05-19T11:25:34Z</time>
      </trkpt>
      <trkpt lat="42.0829330" lon="-8.8904540">
        <ele>31.3</ele>
        <time>2021-05-19T11:25:35Z</time>
      </trkpt>
      <trkpt lat="42.0829330" lon="-8.8904540">
        <ele>31.3</ele>
        <time>2021-05-19T11:25:36Z</time>
      </trkpt>
      <trkpt lat="42.0829330" lon="-8.8904540">
        <ele>31.3</ele>
        <time>2021-05-19T11:25:37Z</time>
      </trkpt>
      <trkpt lat="42.0829330" lon="-8.8904540">
        <ele>31.3</ele>
        <time>2021-05-19T11:25:38Z</time>
      </trkpt>
      <trkpt lat="42.0829330" lon="-8.8904540">
        <ele>31.3</ele>
        <time>2021-05-19T11:25:39Z</time>
      </trkpt>
      <trkpt lat="42.0829330" lon="-8.8904540">
        <ele>31.3</ele>
        <time>2021-05-19T11:25:40Z</time>
      </trkpt>
      <trkpt lat="42.0829330" lon="-8.8904540">
        <ele>31.3</ele>
        <time>2021-05-19T11:25:41Z</time>
      </trkpt>
      <trkpt lat="42.0829330" lon="-8.8904540">
        <ele>31.3</ele>
        <time>2021-05-19T11:25:42Z</time>
      </trkpt>
      <trkpt lat="42.0829330" lon="-8.8904530">
        <ele>31.3</ele>
        <time>2021-05-19T11:25:43Z</time>
      </trkpt>
      <trkpt lat="42.0829330" lon="-8.8904530">
        <ele>31.3</ele>
        <time>2021-05-19T11:25:44Z</time>
      </trkpt>
      <trkpt lat="42.0829330" lon="-8.8904530">
        <ele>31.3</ele>
        <time>2021-05-19T11:25:45Z</time>
      </trkpt>
      <trkpt lat="42.0829330" lon="-8.8904530">
        <ele>31.3</ele>
        <time>2021-05-19T11:25:46Z</time>
      </trkpt>
      <trkpt lat="42.0829330" lon="-8.8904530">
        <ele>31.3</ele>
        <time>2021-05-19T11:25:47Z</time>
      </trkpt>
      <trkpt lat="42.0829330" lon="-8.8904530">
        <ele>31.3</ele>
        <time>2021-05-19T11:25:48Z</time>
      </trkpt>
      <trkpt lat="42.0829330" lon="-8.8904530">
        <ele>31.3</ele>
        <time>2021-05-19T11:25:49Z</time>
      </trkpt>
      <trkpt lat="42.0829330" lon="-8.8904530">
        <ele>31.3</ele>
        <time>2021-05-19T11:25:50Z</time>
      </trkpt>
      <trkpt lat="42.0829330" lon="-8.8904530">
        <ele>31.3</ele>
        <time>2021-05-19T11:25:51Z</time>
      </trkpt>
      <trkpt lat="42.0829330" lon="-8.8904530">
        <ele>31.3</ele>
        <time>2021-05-19T11:25:52Z</time>
      </trkpt>
      <trkpt lat="42.0829330" lon="-8.8904530">
        <ele>31.3</ele>
        <time>2021-05-19T11:25:53Z</time>
      </trkpt>
      <trkpt lat="42.0829330" lon="-8.8904530">
        <ele>31.3</ele>
        <time>2021-05-19T11:25:54Z</time>
      </trkpt>
      <trkpt lat="42.0829330" lon="-8.8904530">
        <ele>31.3</ele>
        <time>2021-05-19T11:25:55Z</time>
      </trkpt>
      <trkpt lat="42.0829330" lon="-8.8904530">
        <ele>31.3</ele>
        <time>2021-05-19T11:25:56Z</time>
      </trkpt>
      <trkpt lat="42.0829330" lon="-8.8904530">
        <ele>31.3</ele>
        <time>2021-05-19T11:25:57Z</time>
      </trkpt>
      <trkpt lat="42.0829330" lon="-8.8904530">
        <ele>31.3</ele>
        <time>2021-05-19T11:25:58Z</time>
      </trkpt>
      <trkpt lat="42.0829330" lon="-8.8904530">
        <ele>31.3</ele>
        <time>2021-05-19T11:25:59Z</time>
      </trkpt>
      <trkpt lat="42.0829330" lon="-8.8904530">
        <ele>31.3</ele>
        <time>2021-05-19T11:26:00Z</time>
      </trkpt>
      <trkpt lat="42.0829330" lon="-8.8904530">
        <ele>31.3</ele>
        <time>2021-05-19T11:26:01Z</time>
      </trkpt>
      <trkpt lat="42.0829330" lon="-8.8904530">
        <ele>31.3</ele>
        <time>2021-05-19T11:26:02Z</time>
      </trkpt>
      <trkpt lat="42.0829330" lon="-8.8904530">
        <ele>31.3</ele>
        <time>2021-05-19T11:26:03Z</time>
      </trkpt>
      <trkpt lat="42.0829330" lon="-8.8904530">
        <ele>31.3</ele>
        <time>2021-05-19T11:26:04Z</time>
      </trkpt>
      <trkpt lat="42.0829330" lon="-8.8904530">
        <ele>31.3</ele>
        <time>2021-05-19T11:26:05Z</time>
      </trkpt>
      <trkpt lat="42.0829330" lon="-8.8904520">
        <ele>31.3</ele>
        <time>2021-05-19T11:26:06Z</time>
      </trkpt>
      <trkpt lat="42.0829330" lon="-8.8904520">
        <ele>31.3</ele>
        <time>2021-05-19T11:26:07Z</time>
      </trkpt>
      <trkpt lat="42.0829330" lon="-8.8904520">
        <ele>31.3</ele>
        <time>2021-05-19T11:26:08Z</time>
      </trkpt>
      <trkpt lat="42.0829330" lon="-8.8904520">
        <ele>31.3</ele>
        <time>2021-05-19T11:26:09Z</time>
      </trkpt>
      <trkpt lat="42.0829330" lon="-8.8904520">
        <ele>31.3</ele>
        <time>2021-05-19T11:26:10Z</time>
      </trkpt>
      <trkpt lat="42.0829330" lon="-8.8904520">
        <ele>31.3</ele>
        <time>2021-05-19T11:26:11Z</time>
      </trkpt>
      <trkpt lat="42.0829330" lon="-8.8904520">
        <ele>31.3</ele>
        <time>2021-05-19T11:26:12Z</time>
      </trkpt>
      <trkpt lat="42.0829330" lon="-8.8904520">
        <ele>31.3</ele>
        <time>2021-05-19T11:26:13Z</time>
      </trkpt>
      <trkpt lat="42.0829330" lon="-8.8904520">
        <ele>31.3</ele>
        <time>2021-05-19T11:26:14Z</time>
      </trkpt>
      <trkpt lat="42.0829330" lon="-8.8904520">
        <ele>31.3</ele>
        <time>2021-05-19T11:26:15Z</time>
      </trkpt>
      <trkpt lat="42.0829330" lon="-8.8904520">
        <ele>31.3</ele>
        <time>2021-05-19T11:26:16Z</time>
      </trkpt>
      <trkpt lat="42.0829330" lon="-8.8904520">
        <ele>31.3</ele>
        <time>2021-05-19T11:26:17Z</time>
      </trkpt>
      <trkpt lat="42.0829330" lon="-8.8904520">
        <ele>31.3</ele>
        <time>2021-05-19T11:26:18Z</time>
      </trkpt>
      <trkpt lat="42.0829330" lon="-8.8904520">
        <ele>31.3</ele>
        <time>2021-05-19T11:26:19Z</time>
      </trkpt>
      <trkpt lat="42.0829330" lon="-8.8904520">
        <ele>31.3</ele>
        <time>2021-05-19T11:26:20Z</time>
      </trkpt>
      <trkpt lat="42.0829330" lon="-8.8904520">
        <ele>31.3</ele>
        <time>2021-05-19T11:26:21Z</time>
      </trkpt>
      <trkpt lat="42.0829330" lon="-8.8904520">
        <ele>31.3</ele>
        <time>2021-05-19T11:26:22Z</time>
      </trkpt>
      <trkpt lat="42.0829340" lon="-8.8904520">
        <ele>31.3</ele>
        <time>2021-05-19T11:26:23Z</time>
      </trkpt>
      <trkpt lat="42.0829340" lon="-8.8904520">
        <ele>31.3</ele>
        <time>2021-05-19T11:26:24Z</time>
      </trkpt>
      <trkpt lat="42.0829340" lon="-8.8904520">
        <ele>31.3</ele>
        <time>2021-05-19T11:26:25Z</time>
      </trkpt>
      <trkpt lat="42.0829340" lon="-8.8904520">
        <ele>31.3</ele>
        <time>2021-05-19T11:26:26Z</time>
      </trkpt>
      <trkpt lat="42.0829340" lon="-8.8904520">
        <ele>31.3</ele>
        <time>2021-05-19T11:26:27Z</time>
      </trkpt>
      <trkpt lat="42.0829340" lon="-8.8904520">
        <ele>31.3</ele>
        <time>2021-05-19T11:26:28Z</time>
      </trkpt>
      <trkpt lat="42.0829340" lon="-8.8904510">
        <ele>31.3</ele>
        <time>2021-05-19T11:26:29Z</time>
      </trkpt>
      <trkpt lat="42.0829340" lon="-8.8904510">
        <ele>31.3</ele>
        <time>2021-05-19T11:26:30Z</time>
      </trkpt>
      <trkpt lat="42.0829340" lon="-8.8904510">
        <ele>31.3</ele>
        <time>2021-05-19T11:26:31Z</time>
      </trkpt>
      <trkpt lat="42.0829340" lon="-8.8904510">
        <ele>31.3</ele>
        <time>2021-05-19T11:26:32Z</time>
      </trkpt>
      <trkpt lat="42.0829340" lon="-8.8904510">
        <ele>31.3</ele>
        <time>2021-05-19T11:26:33Z</time>
      </trkpt>
      <trkpt lat="42.0829340" lon="-8.8904510">
        <ele>31.3</ele>
        <time>2021-05-19T11:26:34Z</time>
      </trkpt>
      <trkpt lat="42.0829340" lon="-8.8904510">
        <ele>31.3</ele>
        <time>2021-05-19T11:26:35Z</time>
      </trkpt>
      <trkpt lat="42.0829340" lon="-8.8904510">
        <ele>31.3</ele>
        <time>2021-05-19T11:26:36Z</time>
      </trkpt>
      <trkpt lat="42.0829340" lon="-8.8904510">
        <ele>31.3</ele>
        <time>2021-05-19T11:26:37Z</time>
      </trkpt>
      <trkpt lat="42.0829340" lon="-8.8904510">
        <ele>31.3</ele>
        <time>2021-05-19T11:26:38Z</time>
      </trkpt>
      <trkpt lat="42.0829340" lon="-8.8904510">
        <ele>31.3</ele>
        <time>2021-05-19T11:26:39Z</time>
      </trkpt>
      <trkpt lat="42.0829340" lon="-8.8904510">
        <ele>31.3</ele>
        <time>2021-05-19T11:26:40Z</time>
      </trkpt>
      <trkpt lat="42.0829340" lon="-8.8904510">
        <ele>31.3</ele>
        <time>2021-05-19T11:26:41Z</time>
      </trkpt>
      <trkpt lat="42.0829340" lon="-8.8904510">
        <ele>31.3</ele>
        <time>2021-05-19T11:26:42Z</time>
      </trkpt>
      <trkpt lat="42.0829340" lon="-8.8904510">
        <ele>31.3</ele>
        <time>2021-05-19T11:26:43Z</time>
      </trkpt>
      <trkpt lat="42.0829340" lon="-8.8904510">
        <ele>31.3</ele>
        <time>2021-05-19T11:26:44Z</time>
      </trkpt>
      <trkpt lat="42.0829340" lon="-8.8904510">
        <ele>31.3</ele>
        <time>2021-05-19T11:26:45Z</time>
      </trkpt>
      <trkpt lat="42.0829340" lon="-8.8904510">
        <ele>31.3</ele>
        <time>2021-05-19T11:26:46Z</time>
      </trkpt>
      <trkpt lat="42.0829340" lon="-8.8904510">
        <ele>31.3</ele>
        <time>2021-05-19T11:26:47Z</time>
      </trkpt>
      <trkpt lat="42.0829340" lon="-8.8904510">
        <ele>31.3</ele>
        <time>2021-05-19T11:26:48Z</time>
      </trkpt>
      <trkpt lat="42.0829340" lon="-8.8904510">
        <ele>31.3</ele>
        <time>2021-05-19T11:26:49Z</time>
      </trkpt>
      <trkpt lat="42.0829340" lon="-8.8904510">
        <ele>31.3</ele>
        <time>2021-05-19T11:26:50Z</time>
      </trkpt>
      <trkpt lat="42.0829340" lon="-8.8904510">
        <ele>31.3</ele>
        <time>2021-05-19T11:26:51Z</time>
      </trkpt>
      <trkpt lat="42.0829340" lon="-8.8904500">
        <ele>31.3</ele>
        <time>2021-05-19T11:26:52Z</time>
      </trkpt>
      <trkpt lat="42.0829340" lon="-8.8904500">
        <ele>31.3</ele>
        <time>2021-05-19T11:26:53Z</time>
      </trkpt>
      <trkpt lat="42.0829340" lon="-8.8904500">
        <ele>31.3</ele>
        <time>2021-05-19T11:26:54Z</time>
      </trkpt>
      <trkpt lat="42.0829340" lon="-8.8904500">
        <ele>31.3</ele>
        <time>2021-05-19T11:26:55Z</time>
      </trkpt>
      <trkpt lat="42.0829340" lon="-8.8904500">
        <ele>31.3</ele>
        <time>2021-05-19T11:26:56Z</time>
      </trkpt>
      <trkpt lat="42.0829340" lon="-8.8904500">
        <ele>31.3</ele>
        <time>2021-05-19T11:26:57Z</time>
      </trkpt>
      <trkpt lat="42.0829340" lon="-8.8904500">
        <ele>31.3</ele>
        <time>2021-05-19T11:26:58Z</time>
      </trkpt>
      <trkpt lat="42.0829340" lon="-8.8904500">
        <ele>31.3</ele>
        <time>2021-05-19T11:26:59Z</time>
      </trkpt>
      <trkpt lat="42.0829340" lon="-8.8904500">
        <ele>31.3</ele>
        <time>2021-05-19T11:27:00Z</time>
      </trkpt>
      <trkpt lat="42.0829340" lon="-8.8904500">
        <ele>31.3</ele>
        <time>2021-05-19T11:27:01Z</time>
      </trkpt>
      <trkpt lat="42.0829340" lon="-8.8904500">
        <ele>31.3</ele>
        <time>2021-05-19T11:27:02Z</time>
      </trkpt>
      <trkpt lat="42.0829340" lon="-8.8904500">
        <ele>31.3</ele>
        <time>2021-05-19T11:27:03Z</time>
      </trkpt>
      <trkpt lat="42.0829340" lon="-8.8904500">
        <ele>31.3</ele>
        <time>2021-05-19T11:27:04Z</time>
      </trkpt>
      <trkpt lat="42.0829340" lon="-8.8904500">
        <ele>31.3</ele>
        <time>2021-05-19T11:27:05Z</time>
      </trkpt>
      <trkpt lat="42.0829340" lon="-8.8904500">
        <ele>31.3</ele>
        <time>2021-05-19T11:27:06Z</time>
      </trkpt>
      <trkpt lat="42.0829340" lon="-8.8904500">
        <ele>31.3</ele>
        <time>2021-05-19T11:27:07Z</time>
      </trkpt>
      <trkpt lat="42.0829340" lon="-8.8904500">
        <ele>31.3</ele>
        <time>2021-05-19T11:27:08Z</time>
      </trkpt>
      <trkpt lat="42.0829340" lon="-8.8904500">
        <ele>31.3</ele>
        <time>2021-05-19T11:27:09Z</time>
      </trkpt>
      <trkpt lat="42.0829340" lon="-8.8904500">
        <ele>31.3</ele>
        <time>2021-05-19T11:27:10Z</time>
      </trkpt>
      <trkpt lat="42.0829340" lon="-8.8904500">
        <ele>31.3</ele>
        <time>2021-05-19T11:27:11Z</time>
      </trkpt>
      <trkpt lat="42.0829340" lon="-8.8904500">
        <ele>31.3</ele>
        <time>2021-05-19T11:27:12Z</time>
      </trkpt>
      <trkpt lat="42.0829340" lon="-8.8904500">
        <ele>31.3</ele>
        <time>2021-05-19T11:27:13Z</time>
      </trkpt>
      <trkpt lat="42.0829340" lon="-8.8904500">
        <ele>31.3</ele>
        <time>2021-05-19T11:27:14Z</time>
      </trkpt>
      <trkpt lat="42.0829340" lon="-8.8904490">
        <ele>31.3</ele>
        <time>2021-05-19T11:27:15Z</time>
      </trkpt>
      <trkpt lat="42.0829340" lon="-8.8904490">
        <ele>31.3</ele>
        <time>2021-05-19T11:27:16Z</time>
      </trkpt>
      <trkpt lat="42.0829340" lon="-8.8904490">
        <ele>31.3</ele>
        <time>2021-05-19T11:27:17Z</time>
      </trkpt>
      <trkpt lat="42.0829340" lon="-8.8904490">
        <ele>31.3</ele>
        <time>2021-05-19T11:27:18Z</time>
      </trkpt>
      <trkpt lat="42.0829340" lon="-8.8904490">
        <ele>31.3</ele>
        <time>2021-05-19T11:27:19Z</time>
      </trkpt>
      <trkpt lat="42.0829340" lon="-8.8904490">
        <ele>31.3</ele>
        <time>2021-05-19T11:27:20Z</time>
      </trkpt>
      <trkpt lat="42.0829340" lon="-8.8904490">
        <ele>31.3</ele>
        <time>2021-05-19T11:27:21Z</time>
      </trkpt>
      <trkpt lat="42.0829340" lon="-8.8904490">
        <ele>31.3</ele>
        <time>2021-05-19T11:27:22Z</time>
      </trkpt>
      <trkpt lat="42.0829340" lon="-8.8904490">
        <ele>31.3</ele>
        <time>2021-05-19T11:27:23Z</time>
      </trkpt>
      <trkpt lat="42.0829340" lon="-8.8904490">
        <ele>31.3</ele>
        <time>2021-05-19T11:27:24Z</time>
      </trkpt>
      <trkpt lat="42.0829340" lon="-8.8904490">
        <ele>31.3</ele>
        <time>2021-05-19T11:27:25Z</time>
      </trkpt>
      <trkpt lat="42.0829340" lon="-8.8904490">
        <ele>31.3</ele>
        <time>2021-05-19T11:27:26Z</time>
      </trkpt>
      <trkpt lat="42.0829350" lon="-8.8904490">
        <ele>31.3</ele>
        <time>2021-05-19T11:27:27Z</time>
      </trkpt>
      <trkpt lat="42.0829350" lon="-8.8904490">
        <ele>31.3</ele>
        <time>2021-05-19T11:27:28Z</time>
      </trkpt>
      <trkpt lat="42.0829350" lon="-8.8904490">
        <ele>31.3</ele>
        <time>2021-05-19T11:27:29Z</time>
      </trkpt>
      <trkpt lat="42.0829350" lon="-8.8904490">
        <ele>31.3</ele>
        <time>2021-05-19T11:27:30Z</time>
      </trkpt>
      <trkpt lat="42.0829350" lon="-8.8904490">
        <ele>31.3</ele>
        <time>2021-05-19T11:27:31Z</time>
      </trkpt>
      <trkpt lat="42.0829350" lon="-8.8904490">
        <ele>31.3</ele>
        <time>2021-05-19T11:27:32Z</time>
      </trkpt>
      <trkpt lat="42.0829350" lon="-8.8904490">
        <ele>31.3</ele>
        <time>2021-05-19T11:27:33Z</time>
      </trkpt>
      <trkpt lat="42.0829350" lon="-8.8904490">
        <ele>31.3</ele>
        <time>2021-05-19T11:27:34Z</time>
      </trkpt>
      <trkpt lat="42.0829350" lon="-8.8904490">
        <ele>31.3</ele>
        <time>2021-05-19T11:27:35Z</time>
      </trkpt>
      <trkpt lat="42.0829350" lon="-8.8904490">
        <ele>31.3</ele>
        <time>2021-05-19T11:27:36Z</time>
      </trkpt>
      <trkpt lat="42.0829350" lon="-8.8904490">
        <ele>31.3</ele>
        <time>2021-05-19T11:27:37Z</time>
      </trkpt>
      <trkpt lat="42.0829350" lon="-8.8904490">
        <ele>31.3</ele>
        <time>2021-05-19T11:27:38Z</time>
      </trkpt>
      <trkpt lat="42.0829350" lon="-8.8904480">
        <ele>31.3</ele>
        <time>2021-05-19T11:27:39Z</time>
      </trkpt>
      <trkpt lat="42.0829350" lon="-8.8904480">
        <ele>31.3</ele>
        <time>2021-05-19T11:27:40Z</time>
      </trkpt>
      <trkpt lat="42.0829350" lon="-8.8904480">
        <ele>31.3</ele>
        <time>2021-05-19T11:27:41Z</time>
      </trkpt>
      <trkpt lat="42.0829350" lon="-8.8904480">
        <ele>31.3</ele>
        <time>2021-05-19T11:27:42Z</time>
      </trkpt>
      <trkpt lat="42.0829350" lon="-8.8904480">
        <ele>31.3</ele>
        <time>2021-05-19T11:27:43Z</time>
      </trkpt>
      <trkpt lat="42.0829350" lon="-8.8904480">
        <ele>31.3</ele>
        <time>2021-05-19T11:27:44Z</time>
      </trkpt>
      <trkpt lat="42.0829350" lon="-8.8904480">
        <ele>31.3</ele>
        <time>2021-05-19T11:27:45Z</time>
      </trkpt>
      <trkpt lat="42.0829350" lon="-8.8904480">
        <ele>31.3</ele>
        <time>2021-05-19T11:27:46Z</time>
      </trkpt>
      <trkpt lat="42.0829350" lon="-8.8904480">
        <ele>31.3</ele>
        <time>2021-05-19T11:27:47Z</time>
      </trkpt>
      <trkpt lat="42.0829350" lon="-8.8904480">
        <ele>31.3</ele>
        <time>2021-05-19T11:27:49Z</time>
      </trkpt>
      <trkpt lat="42.0829350" lon="-8.8904480">
        <ele>31.3</ele>
        <time>2021-05-19T11:27:50Z</time>
      </trkpt>
      <trkpt lat="42.0829350" lon="-8.8904480">
        <ele>31.3</ele>
        <time>2021-05-19T11:27:51Z</time>
      </trkpt>
      <trkpt lat="42.0829350" lon="-8.8904480">
        <ele>31.3</ele>
        <time>2021-05-19T11:27:52Z</time>
      </trkpt>
      <trkpt lat="42.0829350" lon="-8.8904480">
        <ele>31.3</ele>
        <time>2021-05-19T11:27:53Z</time>
      </trkpt>
      <trkpt lat="42.0829350" lon="-8.8904480">
        <ele>31.3</ele>
        <time>2021-05-19T11:27:54Z</time>
      </trkpt>
      <trkpt lat="42.0829350" lon="-8.8904480">
        <ele>31.3</ele>
        <time>2021-05-19T11:27:55Z</time>
      </trkpt>
      <trkpt lat="42.0829350" lon="-8.8904480">
        <ele>31.3</ele>
        <time>2021-05-19T11:27:56Z</time>
      </trkpt>
      <trkpt lat="42.0829350" lon="-8.8904480">
        <ele>31.3</ele>
        <time>2021-05-19T11:27:57Z</time>
      </trkpt>
      <trkpt lat="42.0829350" lon="-8.8904480">
        <ele>31.3</ele>
        <time>2021-05-19T11:27:58Z</time>
      </trkpt>
      <trkpt lat="42.0829350" lon="-8.8904480">
        <ele>31.3</ele>
        <time>2021-05-19T11:27:59Z</time>
      </trkpt>
      <trkpt lat="42.0829350" lon="-8.8904480">
        <ele>31.3</ele>
        <time>2021-05-19T11:28:00Z</time>
      </trkpt>
      <trkpt lat="42.0829350" lon="-8.8904480">
        <ele>31.3</ele>
        <time>2021-05-19T11:28:01Z</time>
      </trkpt>
      <trkpt lat="42.0829350" lon="-8.8904480">
        <ele>31.3</ele>
        <time>2021-05-19T11:28:02Z</time>
      </trkpt>
      <trkpt lat="42.0829350" lon="-8.8904470">
        <ele>31.3</ele>
        <time>2021-05-19T11:28:03Z</time>
      </trkpt>
      <trkpt lat="42.0829350" lon="-8.8904470">
        <ele>31.3</ele>
        <time>2021-05-19T11:28:04Z</time>
      </trkpt>
      <trkpt lat="42.0829350" lon="-8.8904470">
        <ele>31.3</ele>
        <time>2021-05-19T11:28:05Z</time>
      </trkpt>
      <trkpt lat="42.0829350" lon="-8.8904470">
        <ele>31.3</ele>
        <time>2021-05-19T11:28:06Z</time>
      </trkpt>
      <trkpt lat="42.0829350" lon="-8.8904470">
        <ele>31.3</ele>
        <time>2021-05-19T11:28:07Z</time>
      </trkpt>
      <trkpt lat="42.0829350" lon="-8.8904470">
        <ele>31.3</ele>
        <time>2021-05-19T11:28:08Z</time>
      </trkpt>
      <trkpt lat="42.0829350" lon="-8.8904470">
        <ele>31.3</ele>
        <time>2021-05-19T11:28:09Z</time>
      </trkpt>
      <trkpt lat="42.0829350" lon="-8.8904470">
        <ele>31.3</ele>
        <time>2021-05-19T11:28:10Z</time>
      </trkpt>
      <trkpt lat="42.0829350" lon="-8.8904470">
        <ele>31.3</ele>
        <time>2021-05-19T11:28:11Z</time>
      </trkpt>
      <trkpt lat="42.0829350" lon="-8.8904470">
        <ele>31.3</ele>
        <time>2021-05-19T11:28:12Z</time>
      </trkpt>
      <trkpt lat="42.0829350" lon="-8.8904470">
        <ele>31.3</ele>
        <time>2021-05-19T11:28:13Z</time>
      </trkpt>
      <trkpt lat="42.0829350" lon="-8.8904470">
        <ele>31.3</ele>
        <time>2021-05-19T11:28:14Z</time>
      </trkpt>
      <trkpt lat="42.0829350" lon="-8.8904470">
        <ele>31.3</ele>
        <time>2021-05-19T11:28:15Z</time>
      </trkpt>
      <trkpt lat="42.0829350" lon="-8.8904470">
        <ele>31.3</ele>
        <time>2021-05-19T11:28:16Z</time>
      </trkpt>
      <trkpt lat="42.0829350" lon="-8.8904470">
        <ele>31.3</ele>
        <time>2021-05-19T11:28:17Z</time>
      </trkpt>
      <trkpt lat="42.0829350" lon="-8.8904470">
        <ele>31.3</ele>
        <time>2021-05-19T11:28:18Z</time>
      </trkpt>
      <trkpt lat="42.0829350" lon="-8.8904470">
        <ele>31.3</ele>
        <time>2021-05-19T11:28:19Z</time>
      </trkpt>
      <trkpt lat="42.0829350" lon="-8.8904470">
        <ele>31.3</ele>
        <time>2021-05-19T11:28:20Z</time>
      </trkpt>
      <trkpt lat="42.0829350" lon="-8.8904470">
        <ele>31.3</ele>
        <time>2021-05-19T11:28:21Z</time>
      </trkpt>
      <trkpt lat="42.0829350" lon="-8.8904470">
        <ele>31.3</ele>
        <time>2021-05-19T11:28:22Z</time>
      </trkpt>
      <trkpt lat="42.0829350" lon="-8.8904470">
        <ele>31.3</ele>
        <time>2021-05-19T11:28:23Z</time>
      </trkpt>
      <trkpt lat="42.0829350" lon="-8.8904470">
        <ele>31.3</ele>
        <time>2021-05-19T11:28:24Z</time>
      </trkpt>
      <trkpt lat="42.0829350" lon="-8.8904470">
        <ele>31.3</ele>
        <time>2021-05-19T11:28:25Z</time>
      </trkpt>
      <trkpt lat="42.0829350" lon="-8.8904460">
        <ele>31.3</ele>
        <time>2021-05-19T11:28:26Z</time>
      </trkpt>
      <trkpt lat="42.0829350" lon="-8.8904460">
        <ele>31.3</ele>
        <time>2021-05-19T11:28:27Z</time>
      </trkpt>
      <trkpt lat="42.0829350" lon="-8.8904460">
        <ele>31.3</ele>
        <time>2021-05-19T11:28:28Z</time>
      </trkpt>
      <trkpt lat="42.0829350" lon="-8.8904460">
        <ele>31.3</ele>
        <time>2021-05-19T11:28:29Z</time>
      </trkpt>
      <trkpt lat="42.0829350" lon="-8.8904460">
        <ele>31.3</ele>
        <time>2021-05-19T11:28:30Z</time>
      </trkpt>
      <trkpt lat="42.0829350" lon="-8.8904460">
        <ele>31.3</ele>
        <time>2021-05-19T11:28:31Z</time>
      </trkpt>
      <trkpt lat="42.0829360" lon="-8.8904460">
        <ele>31.5</ele>
        <time>2021-05-19T11:28:32Z</time>
      </trkpt>
      <trkpt lat="42.0829360" lon="-8.8904460">
        <ele>31.5</ele>
        <time>2021-05-19T11:28:33Z</time>
      </trkpt>
      <trkpt lat="42.0829360" lon="-8.8904460">
        <ele>31.5</ele>
        <time>2021-05-19T11:28:34Z</time>
      </trkpt>
      <trkpt lat="42.0829360" lon="-8.8904460">
        <ele>31.5</ele>
        <time>2021-05-19T11:28:35Z</time>
      </trkpt>
      <trkpt lat="42.0829360" lon="-8.8904460">
        <ele>31.5</ele>
        <time>2021-05-19T11:28:36Z</time>
      </trkpt>
      <trkpt lat="42.0829360" lon="-8.8904460">
        <ele>31.5</ele>
        <time>2021-05-19T11:28:37Z</time>
      </trkpt>
      <trkpt lat="42.0829360" lon="-8.8904460">
        <ele>31.5</ele>
        <time>2021-05-19T11:28:38Z</time>
      </trkpt>
      <trkpt lat="42.0829360" lon="-8.8904460">
        <ele>31.5</ele>
        <time>2021-05-19T11:28:39Z</time>
      </trkpt>
      <trkpt lat="42.0829360" lon="-8.8904460">
        <ele>31.5</ele>
        <time>2021-05-19T11:28:40Z</time>
      </trkpt>
      <trkpt lat="42.0829360" lon="-8.8904460">
        <ele>31.5</ele>
        <time>2021-05-19T11:28:41Z</time>
      </trkpt>
      <trkpt lat="42.0829360" lon="-8.8904460">
        <ele>31.5</ele>
        <time>2021-05-19T11:28:42Z</time>
      </trkpt>
      <trkpt lat="42.0829360" lon="-8.8904460">
        <ele>31.5</ele>
        <time>2021-05-19T11:28:43Z</time>
      </trkpt>
      <trkpt lat="42.0829360" lon="-8.8904460">
        <ele>31.5</ele>
        <time>2021-05-19T11:28:44Z</time>
      </trkpt>
      <trkpt lat="42.0829360" lon="-8.8904460">
        <ele>31.5</ele>
        <time>2021-05-19T11:28:45Z</time>
      </trkpt>
      <trkpt lat="42.0829360" lon="-8.8904460">
        <ele>31.5</ele>
        <time>2021-05-19T11:28:46Z</time>
      </trkpt>
      <trkpt lat="42.0829360" lon="-8.8904460">
        <ele>31.5</ele>
        <time>2021-05-19T11:28:47Z</time>
      </trkpt>
      <trkpt lat="42.0829360" lon="-8.8904460">
        <ele>31.5</ele>
        <time>2021-05-19T11:28:48Z</time>
      </trkpt>
      <trkpt lat="42.0829360" lon="-8.8904450">
        <ele>31.5</ele>
        <time>2021-05-19T11:28:49Z</time>
      </trkpt>
      <trkpt lat="42.0829360" lon="-8.8904450">
        <ele>31.5</ele>
        <time>2021-05-19T11:28:50Z</time>
      </trkpt>
      <trkpt lat="42.0829360" lon="-8.8904450">
        <ele>31.5</ele>
        <time>2021-05-19T11:28:51Z</time>
      </trkpt>
      <trkpt lat="42.0829360" lon="-8.8904450">
        <ele>31.5</ele>
        <time>2021-05-19T11:28:52Z</time>
      </trkpt>
      <trkpt lat="42.0829360" lon="-8.8904450">
        <ele>31.5</ele>
        <time>2021-05-19T11:28:53Z</time>
      </trkpt>
      <trkpt lat="42.0829360" lon="-8.8904450">
        <ele>31.5</ele>
        <time>2021-05-19T11:28:54Z</time>
      </trkpt>
      <trkpt lat="42.0829360" lon="-8.8904450">
        <ele>31.5</ele>
        <time>2021-05-19T11:28:55Z</time>
      </trkpt>
      <trkpt lat="42.0829360" lon="-8.8904450">
        <ele>31.5</ele>
        <time>2021-05-19T11:28:56Z</time>
      </trkpt>
      <trkpt lat="42.0829360" lon="-8.8904450">
        <ele>31.5</ele>
        <time>2021-05-19T11:28:57Z</time>
      </trkpt>
      <trkpt lat="42.0829360" lon="-8.8904450">
        <ele>31.5</ele>
        <time>2021-05-19T11:28:58Z</time>
      </trkpt>
      <trkpt lat="42.0829360" lon="-8.8904450">
        <ele>31.5</ele>
        <time>2021-05-19T11:28:59Z</time>
      </trkpt>
      <trkpt lat="42.0829360" lon="-8.8904450">
        <ele>31.5</ele>
        <time>2021-05-19T11:29:00Z</time>
      </trkpt>
      <trkpt lat="42.0829360" lon="-8.8904450">
        <ele>31.5</ele>
        <time>2021-05-19T11:29:01Z</time>
      </trkpt>
      <trkpt lat="42.0829360" lon="-8.8904450">
        <ele>31.5</ele>
        <time>2021-05-19T11:29:02Z</time>
      </trkpt>
      <trkpt lat="42.0829360" lon="-8.8904450">
        <ele>31.5</ele>
        <time>2021-05-19T11:29:03Z</time>
      </trkpt>
      <trkpt lat="42.0829360" lon="-8.8904450">
        <ele>31.5</ele>
        <time>2021-05-19T11:29:04Z</time>
      </trkpt>
      <trkpt lat="42.0829360" lon="-8.8904450">
        <ele>31.5</ele>
        <time>2021-05-19T11:29:05Z</time>
      </trkpt>
      <trkpt lat="42.0829360" lon="-8.8904450">
        <ele>31.5</ele>
        <time>2021-05-19T11:29:06Z</time>
      </trkpt>
      <trkpt lat="42.0829360" lon="-8.8904450">
        <ele>31.5</ele>
        <time>2021-05-19T11:29:07Z</time>
      </trkpt>
      <trkpt lat="42.0829360" lon="-8.8904450">
        <ele>31.5</ele>
        <time>2021-05-19T11:29:08Z</time>
      </trkpt>
      <trkpt lat="42.0829360" lon="-8.8904450">
        <ele>31.5</ele>
        <time>2021-05-19T11:29:09Z</time>
      </trkpt>
      <trkpt lat="42.0829360" lon="-8.8904450">
        <ele>31.5</ele>
        <time>2021-05-19T11:29:10Z</time>
      </trkpt>
      <trkpt lat="42.0829360" lon="-8.8904450">
        <ele>31.5</ele>
        <time>2021-05-19T11:29:11Z</time>
      </trkpt>
      <trkpt lat="42.0829360" lon="-8.8904440">
        <ele>31.5</ele>
        <time>2021-05-19T11:29:12Z</time>
      </trkpt>
      <trkpt lat="42.0829360" lon="-8.8904440">
        <ele>31.5</ele>
        <time>2021-05-19T11:29:13Z</time>
      </trkpt>
      <trkpt lat="42.0829360" lon="-8.8904440">
        <ele>31.5</ele>
        <time>2021-05-19T11:29:14Z</time>
      </trkpt>
      <trkpt lat="42.0829360" lon="-8.8904440">
        <ele>31.5</ele>
        <time>2021-05-19T11:29:15Z</time>
      </trkpt>
      <trkpt lat="42.0829360" lon="-8.8904440">
        <ele>31.5</ele>
        <time>2021-05-19T11:29:16Z</time>
      </trkpt>
      <trkpt lat="42.0829360" lon="-8.8904440">
        <ele>31.5</ele>
        <time>2021-05-19T11:29:17Z</time>
      </trkpt>
      <trkpt lat="42.0829360" lon="-8.8904440">
        <ele>31.5</ele>
        <time>2021-05-19T11:29:18Z</time>
      </trkpt>
      <trkpt lat="42.0829360" lon="-8.8904440">
        <ele>31.5</ele>
        <time>2021-05-19T11:29:19Z</time>
      </trkpt>
      <trkpt lat="42.0829360" lon="-8.8904440">
        <ele>31.5</ele>
        <time>2021-05-19T11:29:20Z</time>
      </trkpt>
      <trkpt lat="42.0829360" lon="-8.8904440">
        <ele>31.5</ele>
        <time>2021-05-19T11:29:21Z</time>
      </trkpt>
      <trkpt lat="42.0829360" lon="-8.8904440">
        <ele>31.5</ele>
        <time>2021-05-19T11:29:22Z</time>
      </trkpt>
      <trkpt lat="42.0829360" lon="-8.8904440">
        <ele>31.5</ele>
        <time>2021-05-19T11:29:23Z</time>
      </trkpt>
      <trkpt lat="42.0829360" lon="-8.8904440">
        <ele>31.5</ele>
        <time>2021-05-19T11:29:24Z</time>
      </trkpt>
      <trkpt lat="42.0829360" lon="-8.8904440">
        <ele>31.5</ele>
        <time>2021-05-19T11:29:26Z</time>
      </trkpt>
      <trkpt lat="42.0829360" lon="-8.8904440">
        <ele>31.5</ele>
        <time>2021-05-19T11:29:27Z</time>
      </trkpt>
      <trkpt lat="42.0829360" lon="-8.8904440">
        <ele>31.5</ele>
        <time>2021-05-19T11:29:29Z</time>
      </trkpt>
      <trkpt lat="42.0829360" lon="-8.8904440">
        <ele>31.5</ele>
        <time>2021-05-19T11:29:30Z</time>
      </trkpt>
      <trkpt lat="42.0829360" lon="-8.8904440">
        <ele>31.5</ele>
        <time>2021-05-19T11:29:31Z</time>
      </trkpt>
      <trkpt lat="42.0829360" lon="-8.8904440">
        <ele>31.5</ele>
        <time>2021-05-19T11:29:32Z</time>
      </trkpt>
      <trkpt lat="42.0829360" lon="-8.8904440">
        <ele>31.5</ele>
        <time>2021-05-19T11:29:33Z</time>
      </trkpt>
      <trkpt lat="42.0829360" lon="-8.8904440">
        <ele>31.5</ele>
        <time>2021-05-19T11:29:34Z</time>
      </trkpt>
      <trkpt lat="42.0829360" lon="-8.8904440">
        <ele>31.5</ele>
        <time>2021-05-19T11:29:35Z</time>
      </trkpt>
      <trkpt lat="42.0829360" lon="-8.8904440">
        <ele>31.5</ele>
        <time>2021-05-19T11:29:36Z</time>
      </trkpt>
      <trkpt lat="42.0829360" lon="-8.8904440">
        <ele>31.5</ele>
        <time>2021-05-19T11:29:37Z</time>
      </trkpt>
      <trkpt lat="42.0829370" lon="-8.8904430">
        <ele>31.5</ele>
        <time>2021-05-19T11:29:38Z</time>
      </trkpt>
      <trkpt lat="42.0829370" lon="-8.8904430">
        <ele>31.5</ele>
        <time>2021-05-19T11:29:39Z</time>
      </trkpt>
      <trkpt lat="42.0829370" lon="-8.8904430">
        <ele>31.5</ele>
        <time>2021-05-19T11:29:40Z</time>
      </trkpt>
      <trkpt lat="42.0829370" lon="-8.8904430">
        <ele>31.5</ele>
        <time>2021-05-19T11:29:41Z</time>
      </trkpt>
      <trkpt lat="42.0829370" lon="-8.8904430">
        <ele>31.5</ele>
        <time>2021-05-19T11:29:42Z</time>
      </trkpt>
      <trkpt lat="42.0829370" lon="-8.8904430">
        <ele>31.5</ele>
        <time>2021-05-19T11:29:43Z</time>
      </trkpt>
      <trkpt lat="42.0829370" lon="-8.8904430">
        <ele>31.5</ele>
        <time>2021-05-19T11:29:44Z</time>
      </trkpt>
      <trkpt lat="42.0829370" lon="-8.8904430">
        <ele>31.5</ele>
        <time>2021-05-19T11:29:45Z</time>
      </trkpt>
      <trkpt lat="42.0829370" lon="-8.8904430">
        <ele>31.5</ele>
        <time>2021-05-19T11:29:46Z</time>
      </trkpt>
      <trkpt lat="42.0829370" lon="-8.8904430">
        <ele>31.5</ele>
        <time>2021-05-19T11:29:47Z</time>
      </trkpt>
      <trkpt lat="42.0829370" lon="-8.8904430">
        <ele>31.5</ele>
        <time>2021-05-19T11:29:48Z</time>
      </trkpt>
      <trkpt lat="42.0829370" lon="-8.8904430">
        <ele>31.5</ele>
        <time>2021-05-19T11:29:49Z</time>
      </trkpt>
      <trkpt lat="42.0829370" lon="-8.8904430">
        <ele>31.5</ele>
        <time>2021-05-19T11:29:50Z</time>
      </trkpt>
      <trkpt lat="42.0829370" lon="-8.8904430">
        <ele>31.5</ele>
        <time>2021-05-19T11:29:51Z</time>
      </trkpt>
      <trkpt lat="42.0829370" lon="-8.8904430">
        <ele>31.5</ele>
        <time>2021-05-19T11:29:52Z</time>
      </trkpt>
      <trkpt lat="42.0829370" lon="-8.8904430">
        <ele>31.5</ele>
        <time>2021-05-19T11:29:53Z</time>
      </trkpt>
      <trkpt lat="42.0829370" lon="-8.8904430">
        <ele>31.5</ele>
        <time>2021-05-19T11:29:54Z</time>
      </trkpt>
      <trkpt lat="42.0829370" lon="-8.8904430">
        <ele>31.5</ele>
        <time>2021-05-19T11:29:55Z</time>
      </trkpt>
      <trkpt lat="42.0829370" lon="-8.8904430">
        <ele>31.5</ele>
        <time>2021-05-19T11:29:56Z</time>
      </trkpt>
      <trkpt lat="42.0829370" lon="-8.8904430">
        <ele>31.5</ele>
        <time>2021-05-19T11:29:57Z</time>
      </trkpt>
      <trkpt lat="42.0829370" lon="-8.8904430">
        <ele>31.5</ele>
        <time>2021-05-19T11:29:58Z</time>
      </trkpt>
      <trkpt lat="42.0829370" lon="-8.8904430">
        <ele>31.5</ele>
        <time>2021-05-19T11:29:59Z</time>
      </trkpt>
      <trkpt lat="42.0829370" lon="-8.8904430">
        <ele>31.5</ele>
        <time>2021-05-19T11:30:00Z</time>
      </trkpt>
      <trkpt lat="42.0829370" lon="-8.8904420">
        <ele>31.5</ele>
        <time>2021-05-19T11:30:01Z</time>
      </trkpt>
      <trkpt lat="42.0829370" lon="-8.8904420">
        <ele>31.5</ele>
        <time>2021-05-19T11:30:02Z</time>
      </trkpt>
      <trkpt lat="42.0829370" lon="-8.8904420">
        <ele>31.5</ele>
        <time>2021-05-19T11:30:03Z</time>
      </trkpt>
      <trkpt lat="42.0829370" lon="-8.8904420">
        <ele>31.5</ele>
        <time>2021-05-19T11:30:04Z</time>
      </trkpt>
      <trkpt lat="42.0829370" lon="-8.8904420">
        <ele>31.5</ele>
        <time>2021-05-19T11:30:05Z</time>
      </trkpt>
      <trkpt lat="42.0829370" lon="-8.8904420">
        <ele>31.5</ele>
        <time>2021-05-19T11:30:06Z</time>
      </trkpt>
      <trkpt lat="42.0829370" lon="-8.8904420">
        <ele>31.5</ele>
        <time>2021-05-19T11:30:07Z</time>
      </trkpt>
      <trkpt lat="42.0829370" lon="-8.8904420">
        <ele>31.5</ele>
        <time>2021-05-19T11:30:08Z</time>
      </trkpt>
      <trkpt lat="42.0829370" lon="-8.8904420">
        <ele>31.5</ele>
        <time>2021-05-19T11:30:09Z</time>
      </trkpt>
      <trkpt lat="42.0829370" lon="-8.8904420">
        <ele>31.5</ele>
        <time>2021-05-19T11:30:10Z</time>
      </trkpt>
      <trkpt lat="42.0829370" lon="-8.8904420">
        <ele>31.5</ele>
        <time>2021-05-19T11:30:11Z</time>
      </trkpt>
      <trkpt lat="42.0829370" lon="-8.8904420">
        <ele>31.5</ele>
        <time>2021-05-19T11:30:12Z</time>
      </trkpt>
      <trkpt lat="42.0829370" lon="-8.8904420">
        <ele>31.5</ele>
        <time>2021-05-19T11:30:13Z</time>
      </trkpt>
      <trkpt lat="42.0829370" lon="-8.8904420">
        <ele>31.5</ele>
        <time>2021-05-19T11:30:14Z</time>
      </trkpt>
      <trkpt lat="42.0829370" lon="-8.8904420">
        <ele>31.5</ele>
        <time>2021-05-19T11:30:15Z</time>
      </trkpt>
      <trkpt lat="42.0829370" lon="-8.8904420">
        <ele>31.5</ele>
        <time>2021-05-19T11:30:16Z</time>
      </trkpt>
      <trkpt lat="42.0829370" lon="-8.8904420">
        <ele>31.5</ele>
        <time>2021-05-19T11:30:17Z</time>
      </trkpt>
      <trkpt lat="42.0829370" lon="-8.8904420">
        <ele>31.5</ele>
        <time>2021-05-19T11:30:18Z</time>
      </trkpt>
      <trkpt lat="42.0829370" lon="-8.8904420">
        <ele>31.5</ele>
        <time>2021-05-19T11:30:19Z</time>
      </trkpt>
      <trkpt lat="42.0829370" lon="-8.8904420">
        <ele>31.5</ele>
        <time>2021-05-19T11:30:20Z</time>
      </trkpt>
      <trkpt lat="42.0829370" lon="-8.8904420">
        <ele>31.5</ele>
        <time>2021-05-19T11:30:21Z</time>
      </trkpt>
      <trkpt lat="42.0829370" lon="-8.8904420">
        <ele>31.5</ele>
        <time>2021-05-19T11:30:22Z</time>
      </trkpt>
      <trkpt lat="42.0829370" lon="-8.8904420">
        <ele>31.5</ele>
        <time>2021-05-19T11:30:23Z</time>
      </trkpt>
      <trkpt lat="42.0829370" lon="-8.8904410">
        <ele>31.5</ele>
        <time>2021-05-19T11:30:24Z</time>
      </trkpt>
      <trkpt lat="42.0829370" lon="-8.8904410">
        <ele>31.5</ele>
        <time>2021-05-19T11:30:25Z</time>
      </trkpt>
      <trkpt lat="42.0829370" lon="-8.8904410">
        <ele>31.5</ele>
        <time>2021-05-19T11:30:26Z</time>
      </trkpt>
      <trkpt lat="42.0829370" lon="-8.8904410">
        <ele>31.5</ele>
        <time>2021-05-19T11:30:27Z</time>
      </trkpt>
      <trkpt lat="42.0829370" lon="-8.8904410">
        <ele>31.5</ele>
        <time>2021-05-19T11:30:28Z</time>
      </trkpt>
      <trkpt lat="42.0829370" lon="-8.8904410">
        <ele>31.5</ele>
        <time>2021-05-19T11:30:29Z</time>
      </trkpt>
      <trkpt lat="42.0829370" lon="-8.8904410">
        <ele>31.5</ele>
        <time>2021-05-19T11:30:31Z</time>
      </trkpt>
      <trkpt lat="42.0829370" lon="-8.8904410">
        <ele>31.5</ele>
        <time>2021-05-19T11:30:32Z</time>
      </trkpt>
      <trkpt lat="42.0829370" lon="-8.8904410">
        <ele>31.5</ele>
        <time>2021-05-19T11:30:33Z</time>
      </trkpt>
      <trkpt lat="42.0829370" lon="-8.8904410">
        <ele>31.5</ele>
        <time>2021-05-19T11:30:34Z</time>
      </trkpt>
      <trkpt lat="42.0829370" lon="-8.8904410">
        <ele>31.5</ele>
        <time>2021-05-19T11:30:35Z</time>
      </trkpt>
      <trkpt lat="42.0829370" lon="-8.8904410">
        <ele>31.5</ele>
        <time>2021-05-19T11:30:36Z</time>
      </trkpt>
      <trkpt lat="42.0829370" lon="-8.8904410">
        <ele>31.5</ele>
        <time>2021-05-19T11:30:37Z</time>
      </trkpt>
      <trkpt lat="42.0829370" lon="-8.8904410">
        <ele>31.5</ele>
        <time>2021-05-19T11:30:38Z</time>
      </trkpt>
      <trkpt lat="42.0829370" lon="-8.8904410">
        <ele>31.5</ele>
        <time>2021-05-19T11:30:39Z</time>
      </trkpt>
      <trkpt lat="42.0829370" lon="-8.8904410">
        <ele>31.5</ele>
        <time>2021-05-19T11:30:40Z</time>
      </trkpt>
      <trkpt lat="42.0829370" lon="-8.8904410">
        <ele>31.5</ele>
        <time>2021-05-19T11:30:41Z</time>
      </trkpt>
      <trkpt lat="42.0829370" lon="-8.8904410">
        <ele>31.5</ele>
        <time>2021-05-19T11:30:42Z</time>
      </trkpt>
      <trkpt lat="42.0829380" lon="-8.8904410">
        <ele>31.5</ele>
        <time>2021-05-19T11:30:43Z</time>
      </trkpt>
      <trkpt lat="42.0829380" lon="-8.8904410">
        <ele>31.5</ele>
        <time>2021-05-19T11:30:44Z</time>
      </trkpt>
      <trkpt lat="42.0829380" lon="-8.8904410">
        <ele>31.5</ele>
        <time>2021-05-19T11:30:45Z</time>
      </trkpt>
      <trkpt lat="42.0829380" lon="-8.8904410">
        <ele>31.5</ele>
        <time>2021-05-19T11:30:46Z</time>
      </trkpt>
      <trkpt lat="42.0829380" lon="-8.8904410">
        <ele>31.5</ele>
        <time>2021-05-19T11:30:47Z</time>
      </trkpt>
      <trkpt lat="42.0829380" lon="-8.8904400">
        <ele>31.5</ele>
        <time>2021-05-19T11:30:48Z</time>
      </trkpt>
      <trkpt lat="42.0829380" lon="-8.8904400">
        <ele>31.5</ele>
        <time>2021-05-19T11:30:49Z</time>
      </trkpt>
      <trkpt lat="42.0829380" lon="-8.8904400">
        <ele>31.5</ele>
        <time>2021-05-19T11:30:50Z</time>
      </trkpt>
      <trkpt lat="42.0829380" lon="-8.8904400">
        <ele>31.5</ele>
        <time>2021-05-19T11:30:51Z</time>
      </trkpt>
      <trkpt lat="42.0829380" lon="-8.8904400">
        <ele>31.5</ele>
        <time>2021-05-19T11:30:52Z</time>
      </trkpt>
      <trkpt lat="42.0829380" lon="-8.8904400">
        <ele>31.5</ele>
        <time>2021-05-19T11:30:53Z</time>
      </trkpt>
      <trkpt lat="42.0829380" lon="-8.8904400">
        <ele>31.5</ele>
        <time>2021-05-19T11:30:54Z</time>
      </trkpt>
      <trkpt lat="42.0829380" lon="-8.8904400">
        <ele>31.5</ele>
        <time>2021-05-19T11:30:55Z</time>
      </trkpt>
      <trkpt lat="42.0829380" lon="-8.8904400">
        <ele>31.5</ele>
        <time>2021-05-19T11:30:56Z</time>
      </trkpt>
      <trkpt lat="42.0829380" lon="-8.8904400">
        <ele>31.5</ele>
        <time>2021-05-19T11:30:57Z</time>
      </trkpt>
      <trkpt lat="42.0829380" lon="-8.8904400">
        <ele>31.5</ele>
        <time>2021-05-19T11:30:58Z</time>
      </trkpt>
      <trkpt lat="42.0829380" lon="-8.8904400">
        <ele>31.5</ele>
        <time>2021-05-19T11:30:59Z</time>
      </trkpt>
      <trkpt lat="42.0829380" lon="-8.8904400">
        <ele>31.5</ele>
        <time>2021-05-19T11:31:00Z</time>
      </trkpt>
      <trkpt lat="42.0829380" lon="-8.8904400">
        <ele>31.5</ele>
        <time>2021-05-19T11:31:01Z</time>
      </trkpt>
      <trkpt lat="42.0829380" lon="-8.8904400">
        <ele>31.5</ele>
        <time>2021-05-19T11:31:02Z</time>
      </trkpt>
      <trkpt lat="42.0829380" lon="-8.8904400">
        <ele>31.5</ele>
        <time>2021-05-19T11:31:03Z</time>
      </trkpt>
      <trkpt lat="42.0829380" lon="-8.8904400">
        <ele>31.5</ele>
        <time>2021-05-19T11:31:04Z</time>
      </trkpt>
      <trkpt lat="42.0829380" lon="-8.8904400">
        <ele>31.5</ele>
        <time>2021-05-19T11:31:05Z</time>
      </trkpt>
      <trkpt lat="42.0829380" lon="-8.8904400">
        <ele>31.5</ele>
        <time>2021-05-19T11:31:06Z</time>
      </trkpt>
      <trkpt lat="42.0829380" lon="-8.8904400">
        <ele>31.5</ele>
        <time>2021-05-19T11:31:07Z</time>
      </trkpt>
      <trkpt lat="42.0829380" lon="-8.8904400">
        <ele>31.5</ele>
        <time>2021-05-19T11:31:08Z</time>
      </trkpt>
      <trkpt lat="42.0829380" lon="-8.8904400">
        <ele>31.5</ele>
        <time>2021-05-19T11:31:09Z</time>
      </trkpt>
      <trkpt lat="42.0829380" lon="-8.8904400">
        <ele>31.5</ele>
        <time>2021-05-19T11:31:10Z</time>
      </trkpt>
      <trkpt lat="42.0829380" lon="-8.8904390">
        <ele>31.5</ele>
        <time>2021-05-19T11:31:11Z</time>
      </trkpt>
      <trkpt lat="42.0829380" lon="-8.8904390">
        <ele>31.5</ele>
        <time>2021-05-19T11:31:12Z</time>
      </trkpt>
      <trkpt lat="42.0829380" lon="-8.8904390">
        <ele>31.5</ele>
        <time>2021-05-19T11:31:13Z</time>
      </trkpt>
      <trkpt lat="42.0829380" lon="-8.8904390">
        <ele>31.5</ele>
        <time>2021-05-19T11:31:14Z</time>
      </trkpt>
      <trkpt lat="42.0829380" lon="-8.8904390">
        <ele>31.5</ele>
        <time>2021-05-19T11:31:15Z</time>
      </trkpt>
      <trkpt lat="42.0829380" lon="-8.8904390">
        <ele>31.5</ele>
        <time>2021-05-19T11:31:16Z</time>
      </trkpt>
      <trkpt lat="42.0829380" lon="-8.8904390">
        <ele>31.5</ele>
        <time>2021-05-19T11:31:17Z</time>
      </trkpt>
      <trkpt lat="42.0829380" lon="-8.8904390">
        <ele>31.5</ele>
        <time>2021-05-19T11:31:18Z</time>
      </trkpt>
      <trkpt lat="42.0829380" lon="-8.8904390">
        <ele>31.5</ele>
        <time>2021-05-19T11:31:19Z</time>
      </trkpt>
      <trkpt lat="42.0829380" lon="-8.8904390">
        <ele>31.5</ele>
        <time>2021-05-19T11:31:20Z</time>
      </trkpt>
      <trkpt lat="42.0829380" lon="-8.8904390">
        <ele>31.5</ele>
        <time>2021-05-19T11:31:21Z</time>
      </trkpt>
      <trkpt lat="42.0829380" lon="-8.8904390">
        <ele>31.5</ele>
        <time>2021-05-19T11:31:22Z</time>
      </trkpt>
      <trkpt lat="42.0829380" lon="-8.8904390">
        <ele>31.5</ele>
        <time>2021-05-19T11:31:23Z</time>
      </trkpt>
      <trkpt lat="42.0829380" lon="-8.8904390">
        <ele>31.5</ele>
        <time>2021-05-19T11:31:24Z</time>
      </trkpt>
      <trkpt lat="42.0829380" lon="-8.8904390">
        <ele>31.5</ele>
        <time>2021-05-19T11:31:25Z</time>
      </trkpt>
      <trkpt lat="42.0829380" lon="-8.8904390">
        <ele>31.5</ele>
        <time>2021-05-19T11:31:26Z</time>
      </trkpt>
      <trkpt lat="42.0829380" lon="-8.8904390">
        <ele>31.5</ele>
        <time>2021-05-19T11:31:27Z</time>
      </trkpt>
      <trkpt lat="42.0829380" lon="-8.8904390">
        <ele>31.5</ele>
        <time>2021-05-19T11:31:28Z</time>
      </trkpt>
      <trkpt lat="42.0829380" lon="-8.8904390">
        <ele>31.5</ele>
        <time>2021-05-19T11:31:29Z</time>
      </trkpt>
      <trkpt lat="42.0829380" lon="-8.8904390">
        <ele>31.5</ele>
        <time>2021-05-19T11:31:30Z</time>
      </trkpt>
      <trkpt lat="42.0829380" lon="-8.8904390">
        <ele>31.5</ele>
        <time>2021-05-19T11:31:31Z</time>
      </trkpt>
      <trkpt lat="42.0829380" lon="-8.8904390">
        <ele>31.5</ele>
        <time>2021-05-19T11:31:32Z</time>
      </trkpt>
      <trkpt lat="42.0829380" lon="-8.8904390">
        <ele>31.5</ele>
        <time>2021-05-19T11:31:33Z</time>
      </trkpt>
      <trkpt lat="42.0829380" lon="-8.8904380">
        <ele>31.5</ele>
        <time>2021-05-19T11:31:34Z</time>
      </trkpt>
      <trkpt lat="42.0829380" lon="-8.8904380">
        <ele>31.5</ele>
        <time>2021-05-19T11:31:35Z</time>
      </trkpt>
      <trkpt lat="42.0829380" lon="-8.8904380">
        <ele>31.5</ele>
        <time>2021-05-19T11:31:36Z</time>
      </trkpt>
      <trkpt lat="42.0829380" lon="-8.8904380">
        <ele>31.5</ele>
        <time>2021-05-19T11:31:37Z</time>
      </trkpt>
      <trkpt lat="42.0829380" lon="-8.8904380">
        <ele>31.5</ele>
        <time>2021-05-19T11:31:38Z</time>
      </trkpt>
      <trkpt lat="42.0829380" lon="-8.8904380">
        <ele>31.5</ele>
        <time>2021-05-19T11:31:39Z</time>
      </trkpt>
      <trkpt lat="42.0829380" lon="-8.8904380">
        <ele>31.5</ele>
        <time>2021-05-19T11:31:40Z</time>
      </trkpt>
      <trkpt lat="42.0829380" lon="-8.8904380">
        <ele>31.5</ele>
        <time>2021-05-19T11:31:41Z</time>
      </trkpt>
      <trkpt lat="42.0829380" lon="-8.8904380">
        <ele>31.5</ele>
        <time>2021-05-19T11:31:42Z</time>
      </trkpt>
      <trkpt lat="42.0829380" lon="-8.8904380">
        <ele>31.5</ele>
        <time>2021-05-19T11:31:43Z</time>
      </trkpt>
      <trkpt lat="42.0829380" lon="-8.8904380">
        <ele>31.5</ele>
        <time>2021-05-19T11:31:44Z</time>
      </trkpt>
      <trkpt lat="42.0829380" lon="-8.8904380">
        <ele>31.5</ele>
        <time>2021-05-19T11:31:45Z</time>
      </trkpt>
      <trkpt lat="42.0829380" lon="-8.8904380">
        <ele>31.5</ele>
        <time>2021-05-19T11:31:46Z</time>
      </trkpt>
      <trkpt lat="42.0829390" lon="-8.8904380">
        <ele>31.5</ele>
        <time>2021-05-19T11:31:47Z</time>
      </trkpt>
      <trkpt lat="42.0829390" lon="-8.8904380">
        <ele>31.5</ele>
        <time>2021-05-19T11:31:48Z</time>
      </trkpt>
      <trkpt lat="42.0829390" lon="-8.8904380">
        <ele>31.5</ele>
        <time>2021-05-19T11:31:49Z</time>
      </trkpt>
      <trkpt lat="42.0829390" lon="-8.8904380">
        <ele>31.5</ele>
        <time>2021-05-19T11:31:50Z</time>
      </trkpt>
      <trkpt lat="42.0829390" lon="-8.8904380">
        <ele>31.5</ele>
        <time>2021-05-19T11:31:51Z</time>
      </trkpt>
      <trkpt lat="42.0829390" lon="-8.8904380">
        <ele>31.5</ele>
        <time>2021-05-19T11:31:52Z</time>
      </trkpt>
      <trkpt lat="42.0829390" lon="-8.8904380">
        <ele>31.5</ele>
        <time>2021-05-19T11:31:53Z</time>
      </trkpt>
      <trkpt lat="42.0829390" lon="-8.8904380">
        <ele>31.5</ele>
        <time>2021-05-19T11:31:54Z</time>
      </trkpt>
      <trkpt lat="42.0829390" lon="-8.8904380">
        <ele>31.5</ele>
        <time>2021-05-19T11:31:55Z</time>
      </trkpt>
      <trkpt lat="42.0829390" lon="-8.8904380">
        <ele>31.5</ele>
        <time>2021-05-19T11:31:56Z</time>
      </trkpt>
      <trkpt lat="42.0829390" lon="-8.8904380">
        <ele>31.5</ele>
        <time>2021-05-19T11:31:57Z</time>
      </trkpt>
      <trkpt lat="42.0829390" lon="-8.8904370">
        <ele>31.5</ele>
        <time>2021-05-19T11:31:58Z</time>
      </trkpt>
      <trkpt lat="42.0829390" lon="-8.8904370">
        <ele>31.5</ele>
        <time>2021-05-19T11:31:59Z</time>
      </trkpt>
      <trkpt lat="42.0829390" lon="-8.8904370">
        <ele>31.5</ele>
        <time>2021-05-19T11:32:00Z</time>
      </trkpt>
      <trkpt lat="42.0829390" lon="-8.8904370">
        <ele>31.5</ele>
        <time>2021-05-19T11:32:01Z</time>
      </trkpt>
      <trkpt lat="42.0829390" lon="-8.8904370">
        <ele>31.5</ele>
        <time>2021-05-19T11:32:02Z</time>
      </trkpt>
      <trkpt lat="42.0829390" lon="-8.8904370">
        <ele>31.5</ele>
        <time>2021-05-19T11:32:03Z</time>
      </trkpt>
      <trkpt lat="42.0829390" lon="-8.8904370">
        <ele>31.5</ele>
        <time>2021-05-19T11:32:04Z</time>
      </trkpt>
      <trkpt lat="42.0829390" lon="-8.8904370">
        <ele>31.5</ele>
        <time>2021-05-19T11:32:05Z</time>
      </trkpt>
      <trkpt lat="42.0829390" lon="-8.8904370">
        <ele>31.5</ele>
        <time>2021-05-19T11:32:06Z</time>
      </trkpt>
      <trkpt lat="42.0829390" lon="-8.8904370">
        <ele>31.5</ele>
        <time>2021-05-19T11:32:07Z</time>
      </trkpt>
      <trkpt lat="42.0829390" lon="-8.8904370">
        <ele>31.5</ele>
        <time>2021-05-19T11:32:08Z</time>
      </trkpt>
      <trkpt lat="42.0829390" lon="-8.8904370">
        <ele>31.5</ele>
        <time>2021-05-19T11:32:09Z</time>
      </trkpt>
      <trkpt lat="42.0829390" lon="-8.8904370">
        <ele>31.5</ele>
        <time>2021-05-19T11:32:10Z</time>
      </trkpt>
      <trkpt lat="42.0829390" lon="-8.8904370">
        <ele>31.5</ele>
        <time>2021-05-19T11:32:11Z</time>
      </trkpt>
      <trkpt lat="42.0829390" lon="-8.8904370">
        <ele>31.5</ele>
        <time>2021-05-19T11:32:12Z</time>
      </trkpt>
      <trkpt lat="42.0829390" lon="-8.8904370">
        <ele>31.5</ele>
        <time>2021-05-19T11:32:13Z</time>
      </trkpt>
      <trkpt lat="42.0829390" lon="-8.8904370">
        <ele>31.5</ele>
        <time>2021-05-19T11:32:14Z</time>
      </trkpt>
      <trkpt lat="42.0829390" lon="-8.8904370">
        <ele>31.5</ele>
        <time>2021-05-19T11:32:15Z</time>
      </trkpt>
      <trkpt lat="42.0829390" lon="-8.8904370">
        <ele>31.5</ele>
        <time>2021-05-19T11:32:16Z</time>
      </trkpt>
      <trkpt lat="42.0829390" lon="-8.8904370">
        <ele>31.5</ele>
        <time>2021-05-19T11:32:17Z</time>
      </trkpt>
      <trkpt lat="42.0829390" lon="-8.8904370">
        <ele>31.5</ele>
        <time>2021-05-19T11:32:18Z</time>
      </trkpt>
      <trkpt lat="42.0829390" lon="-8.8904370">
        <ele>31.5</ele>
        <time>2021-05-19T11:32:19Z</time>
      </trkpt>
      <trkpt lat="42.0829390" lon="-8.8904370">
        <ele>31.5</ele>
        <time>2021-05-19T11:32:20Z</time>
      </trkpt>
      <trkpt lat="42.0829390" lon="-8.8904360">
        <ele>31.5</ele>
        <time>2021-05-19T11:32:21Z</time>
      </trkpt>
      <trkpt lat="42.0829390" lon="-8.8904360">
        <ele>31.5</ele>
        <time>2021-05-19T11:32:22Z</time>
      </trkpt>
      <trkpt lat="42.0829390" lon="-8.8904360">
        <ele>31.5</ele>
        <time>2021-05-19T11:32:23Z</time>
      </trkpt>
      <trkpt lat="42.0829390" lon="-8.8904360">
        <ele>31.5</ele>
        <time>2021-05-19T11:32:24Z</time>
      </trkpt>
      <trkpt lat="42.0829390" lon="-8.8904360">
        <ele>31.5</ele>
        <time>2021-05-19T11:32:25Z</time>
      </trkpt>
      <trkpt lat="42.0829390" lon="-8.8904360">
        <ele>31.5</ele>
        <time>2021-05-19T11:32:26Z</time>
      </trkpt>
      <trkpt lat="42.0829390" lon="-8.8904360">
        <ele>31.5</ele>
        <time>2021-05-19T11:32:27Z</time>
      </trkpt>
      <trkpt lat="42.0829390" lon="-8.8904360">
        <ele>31.5</ele>
        <time>2021-05-19T11:32:28Z</time>
      </trkpt>
      <trkpt lat="42.0829390" lon="-8.8904360">
        <ele>31.5</ele>
        <time>2021-05-19T11:32:29Z</time>
      </trkpt>
      <trkpt lat="42.0829390" lon="-8.8904360">
        <ele>31.5</ele>
        <time>2021-05-19T11:32:30Z</time>
      </trkpt>
      <trkpt lat="42.0829390" lon="-8.8904360">
        <ele>31.5</ele>
        <time>2021-05-19T11:32:31Z</time>
      </trkpt>
      <trkpt lat="42.0829390" lon="-8.8904360">
        <ele>31.5</ele>
        <time>2021-05-19T11:32:32Z</time>
      </trkpt>
      <trkpt lat="42.0829390" lon="-8.8904360">
        <ele>31.5</ele>
        <time>2021-05-19T11:32:33Z</time>
      </trkpt>
      <trkpt lat="42.0829390" lon="-8.8904360">
        <ele>31.5</ele>
        <time>2021-05-19T11:32:34Z</time>
      </trkpt>
      <trkpt lat="42.0829390" lon="-8.8904360">
        <ele>31.5</ele>
        <time>2021-05-19T11:32:35Z</time>
      </trkpt>
      <trkpt lat="42.0829390" lon="-8.8904360">
        <ele>31.5</ele>
        <time>2021-05-19T11:32:36Z</time>
      </trkpt>
      <trkpt lat="42.0829390" lon="-8.8904360">
        <ele>31.5</ele>
        <time>2021-05-19T11:32:37Z</time>
      </trkpt>
      <trkpt lat="42.0829390" lon="-8.8904360">
        <ele>31.5</ele>
        <time>2021-05-19T11:32:38Z</time>
      </trkpt>
      <trkpt lat="42.0829390" lon="-8.8904360">
        <ele>31.5</ele>
        <time>2021-05-19T11:32:39Z</time>
      </trkpt>
      <trkpt lat="42.0829390" lon="-8.8904360">
        <ele>31.5</ele>
        <time>2021-05-19T11:32:40Z</time>
      </trkpt>
      <trkpt lat="42.0829390" lon="-8.8904360">
        <ele>31.5</ele>
        <time>2021-05-19T11:32:41Z</time>
      </trkpt>
      <trkpt lat="42.0829390" lon="-8.8904360">
        <ele>31.5</ele>
        <time>2021-05-19T11:32:42Z</time>
      </trkpt>
      <trkpt lat="42.0829390" lon="-8.8904360">
        <ele>31.5</ele>
        <time>2021-05-19T11:32:43Z</time>
      </trkpt>
      <trkpt lat="42.0829390" lon="-8.8904350">
        <ele>31.5</ele>
        <time>2021-05-19T11:32:44Z</time>
      </trkpt>
      <trkpt lat="42.0829390" lon="-8.8904350">
        <ele>31.5</ele>
        <time>2021-05-19T11:32:45Z</time>
      </trkpt>
      <trkpt lat="42.0829390" lon="-8.8904350">
        <ele>31.5</ele>
        <time>2021-05-19T11:32:46Z</time>
      </trkpt>
      <trkpt lat="42.0829390" lon="-8.8904350">
        <ele>31.5</ele>
        <time>2021-05-19T11:32:47Z</time>
      </trkpt>
      <trkpt lat="42.0829390" lon="-8.8904350">
        <ele>31.5</ele>
        <time>2021-05-19T11:32:48Z</time>
      </trkpt>
      <trkpt lat="42.0829390" lon="-8.8904350">
        <ele>31.5</ele>
        <time>2021-05-19T11:32:49Z</time>
      </trkpt>
      <trkpt lat="42.0829390" lon="-8.8904350">
        <ele>31.5</ele>
        <time>2021-05-19T11:32:50Z</time>
      </trkpt>
      <trkpt lat="42.0829400" lon="-8.8904350">
        <ele>31.5</ele>
        <time>2021-05-19T11:32:51Z</time>
      </trkpt>
      <trkpt lat="42.0829400" lon="-8.8904350">
        <ele>31.5</ele>
        <time>2021-05-19T11:32:52Z</time>
      </trkpt>
      <trkpt lat="42.0829400" lon="-8.8904350">
        <ele>31.5</ele>
        <time>2021-05-19T11:32:53Z</time>
      </trkpt>
      <trkpt lat="42.0829400" lon="-8.8904350">
        <ele>31.5</ele>
        <time>2021-05-19T11:32:54Z</time>
      </trkpt>
      <trkpt lat="42.0829400" lon="-8.8904350">
        <ele>31.5</ele>
        <time>2021-05-19T11:32:55Z</time>
      </trkpt>
      <trkpt lat="42.0829400" lon="-8.8904350">
        <ele>31.5</ele>
        <time>2021-05-19T11:32:56Z</time>
      </trkpt>
      <trkpt lat="42.0829400" lon="-8.8904350">
        <ele>31.5</ele>
        <time>2021-05-19T11:32:57Z</time>
      </trkpt>
      <trkpt lat="42.0829400" lon="-8.8904350">
        <ele>31.5</ele>
        <time>2021-05-19T11:32:58Z</time>
      </trkpt>
      <trkpt lat="42.0829400" lon="-8.8904350">
        <ele>31.5</ele>
        <time>2021-05-19T11:32:59Z</time>
      </trkpt>
      <trkpt lat="42.0829400" lon="-8.8904350">
        <ele>31.5</ele>
        <time>2021-05-19T11:33:00Z</time>
      </trkpt>
      <trkpt lat="42.0829400" lon="-8.8904350">
        <ele>31.5</ele>
        <time>2021-05-19T11:33:01Z</time>
      </trkpt>
      <trkpt lat="42.0829400" lon="-8.8904350">
        <ele>31.5</ele>
        <time>2021-05-19T11:33:02Z</time>
      </trkpt>
      <trkpt lat="42.0829400" lon="-8.8904350">
        <ele>31.5</ele>
        <time>2021-05-19T11:33:03Z</time>
      </trkpt>
      <trkpt lat="42.0829400" lon="-8.8904350">
        <ele>31.5</ele>
        <time>2021-05-19T11:33:04Z</time>
      </trkpt>
      <trkpt lat="42.0829400" lon="-8.8904350">
        <ele>31.5</ele>
        <time>2021-05-19T11:33:05Z</time>
      </trkpt>
      <trkpt lat="42.0829400" lon="-8.8904350">
        <ele>31.5</ele>
        <time>2021-05-19T11:33:06Z</time>
      </trkpt>
      <trkpt lat="42.0829400" lon="-8.8904340">
        <ele>31.5</ele>
        <time>2021-05-19T11:33:07Z</time>
      </trkpt>
      <trkpt lat="42.0829400" lon="-8.8904340">
        <ele>31.5</ele>
        <time>2021-05-19T11:33:08Z</time>
      </trkpt>
      <trkpt lat="42.0829400" lon="-8.8904340">
        <ele>31.5</ele>
        <time>2021-05-19T11:33:09Z</time>
      </trkpt>
      <trkpt lat="42.0829400" lon="-8.8904340">
        <ele>31.5</ele>
        <time>2021-05-19T11:33:10Z</time>
      </trkpt>
      <trkpt lat="42.0829400" lon="-8.8904340">
        <ele>31.5</ele>
        <time>2021-05-19T11:33:11Z</time>
      </trkpt>
      <trkpt lat="42.0829400" lon="-8.8904340">
        <ele>31.5</ele>
        <time>2021-05-19T11:33:12Z</time>
      </trkpt>
      <trkpt lat="42.0829400" lon="-8.8904340">
        <ele>31.5</ele>
        <time>2021-05-19T11:33:13Z</time>
      </trkpt>
      <trkpt lat="42.0829400" lon="-8.8904340">
        <ele>31.5</ele>
        <time>2021-05-19T11:33:14Z</time>
      </trkpt>
      <trkpt lat="42.0829400" lon="-8.8904340">
        <ele>31.5</ele>
        <time>2021-05-19T11:33:15Z</time>
      </trkpt>
      <trkpt lat="42.0829400" lon="-8.8904340">
        <ele>31.5</ele>
        <time>2021-05-19T11:33:16Z</time>
      </trkpt>
      <trkpt lat="42.0829400" lon="-8.8904340">
        <ele>31.5</ele>
        <time>2021-05-19T11:33:17Z</time>
      </trkpt>
      <trkpt lat="42.0829400" lon="-8.8904340">
        <ele>31.5</ele>
        <time>2021-05-19T11:33:18Z</time>
      </trkpt>
      <trkpt lat="42.0829400" lon="-8.8904340">
        <ele>31.5</ele>
        <time>2021-05-19T11:33:19Z</time>
      </trkpt>
      <trkpt lat="42.0829400" lon="-8.8904340">
        <ele>31.5</ele>
        <time>2021-05-19T11:33:20Z</time>
      </trkpt>
      <trkpt lat="42.0829400" lon="-8.8904340">
        <ele>31.5</ele>
        <time>2021-05-19T11:33:21Z</time>
      </trkpt>
      <trkpt lat="42.0829400" lon="-8.8904340">
        <ele>31.5</ele>
        <time>2021-05-19T11:33:22Z</time>
      </trkpt>
      <trkpt lat="42.0829400" lon="-8.8904340">
        <ele>31.5</ele>
        <time>2021-05-19T11:33:23Z</time>
      </trkpt>
      <trkpt lat="42.0829400" lon="-8.8904340">
        <ele>31.5</ele>
        <time>2021-05-19T11:33:24Z</time>
      </trkpt>
      <trkpt lat="42.0829400" lon="-8.8904340">
        <ele>31.5</ele>
        <time>2021-05-19T11:33:25Z</time>
      </trkpt>
      <trkpt lat="42.0829400" lon="-8.8904340">
        <ele>31.5</ele>
        <time>2021-05-19T11:33:26Z</time>
      </trkpt>
      <trkpt lat="42.0829400" lon="-8.8904340">
        <ele>31.5</ele>
        <time>2021-05-19T11:33:27Z</time>
      </trkpt>
      <trkpt lat="42.0829400" lon="-8.8904340">
        <ele>31.5</ele>
        <time>2021-05-19T11:33:28Z</time>
      </trkpt>
      <trkpt lat="42.0829400" lon="-8.8904340">
        <ele>31.5</ele>
        <time>2021-05-19T11:33:29Z</time>
      </trkpt>
      <trkpt lat="42.0829400" lon="-8.8904330">
        <ele>31.5</ele>
        <time>2021-05-19T11:33:30Z</time>
      </trkpt>
      <trkpt lat="42.0829400" lon="-8.8904330">
        <ele>31.5</ele>
        <time>2021-05-19T11:33:31Z</time>
      </trkpt>
      <trkpt lat="42.0829400" lon="-8.8904330">
        <ele>31.5</ele>
        <time>2021-05-19T11:33:32Z</time>
      </trkpt>
      <trkpt lat="42.0829400" lon="-8.8904330">
        <ele>31.5</ele>
        <time>2021-05-19T11:33:33Z</time>
      </trkpt>
      <trkpt lat="42.0829400" lon="-8.8904330">
        <ele>31.5</ele>
        <time>2021-05-19T11:33:34Z</time>
      </trkpt>
      <trkpt lat="42.0829400" lon="-8.8904330">
        <ele>31.5</ele>
        <time>2021-05-19T11:33:35Z</time>
      </trkpt>
      <trkpt lat="42.0829400" lon="-8.8904330">
        <ele>31.5</ele>
        <time>2021-05-19T11:33:36Z</time>
      </trkpt>
      <trkpt lat="42.0829400" lon="-8.8904330">
        <ele>31.5</ele>
        <time>2021-05-19T11:33:37Z</time>
      </trkpt>
      <trkpt lat="42.0829400" lon="-8.8904330">
        <ele>31.5</ele>
        <time>2021-05-19T11:33:38Z</time>
      </trkpt>
      <trkpt lat="42.0829400" lon="-8.8904330">
        <ele>31.5</ele>
        <time>2021-05-19T11:33:39Z</time>
      </trkpt>
      <trkpt lat="42.0829400" lon="-8.8904330">
        <ele>31.5</ele>
        <time>2021-05-19T11:33:40Z</time>
      </trkpt>
      <trkpt lat="42.0829400" lon="-8.8904330">
        <ele>31.5</ele>
        <time>2021-05-19T11:33:41Z</time>
      </trkpt>
      <trkpt lat="42.0829400" lon="-8.8904330">
        <ele>31.5</ele>
        <time>2021-05-19T11:33:42Z</time>
      </trkpt>
      <trkpt lat="42.0829400" lon="-8.8904330">
        <ele>31.5</ele>
        <time>2021-05-19T11:33:43Z</time>
      </trkpt>
      <trkpt lat="42.0829400" lon="-8.8904330">
        <ele>31.5</ele>
        <time>2021-05-19T11:33:44Z</time>
      </trkpt>
      <trkpt lat="42.0829400" lon="-8.8904330">
        <ele>31.5</ele>
        <time>2021-05-19T11:33:45Z</time>
      </trkpt>
      <trkpt lat="42.0829400" lon="-8.8904330">
        <ele>31.5</ele>
        <time>2021-05-19T11:33:46Z</time>
      </trkpt>
      <trkpt lat="42.0829400" lon="-8.8904330">
        <ele>31.5</ele>
        <time>2021-05-19T11:33:47Z</time>
      </trkpt>
      <trkpt lat="42.0829400" lon="-8.8904330">
        <ele>31.5</ele>
        <time>2021-05-19T11:33:48Z</time>
      </trkpt>
      <trkpt lat="42.0829400" lon="-8.8904330">
        <ele>31.5</ele>
        <time>2021-05-19T11:33:49Z</time>
      </trkpt>
      <trkpt lat="42.0829400" lon="-8.8904330">
        <ele>31.5</ele>
        <time>2021-05-19T11:33:50Z</time>
      </trkpt>
      <trkpt lat="42.0829400" lon="-8.8904330">
        <ele>31.5</ele>
        <time>2021-05-19T11:33:51Z</time>
      </trkpt>
      <trkpt lat="42.0829400" lon="-8.8904330">
        <ele>31.5</ele>
        <time>2021-05-19T11:33:52Z</time>
      </trkpt>
      <trkpt lat="42.0829400" lon="-8.8904330">
        <ele>31.5</ele>
        <time>2021-05-19T11:33:53Z</time>
      </trkpt>
      <trkpt lat="42.0829400" lon="-8.8904320">
        <ele>31.5</ele>
        <time>2021-05-19T11:33:54Z</time>
      </trkpt>
      <trkpt lat="42.0829410" lon="-8.8904320">
        <ele>31.5</ele>
        <time>2021-05-19T11:33:55Z</time>
      </trkpt>
      <trkpt lat="42.0829410" lon="-8.8904320">
        <ele>31.5</ele>
        <time>2021-05-19T11:33:56Z</time>
      </trkpt>
      <trkpt lat="42.0829410" lon="-8.8904320">
        <ele>31.5</ele>
        <time>2021-05-19T11:33:57Z</time>
      </trkpt>
      <trkpt lat="42.0829410" lon="-8.8904320">
        <ele>31.5</ele>
        <time>2021-05-19T11:33:58Z</time>
      </trkpt>
      <trkpt lat="42.0829410" lon="-8.8904320">
        <ele>31.5</ele>
        <time>2021-05-19T11:33:59Z</time>
      </trkpt>
      <trkpt lat="42.0829410" lon="-8.8904320">
        <ele>31.5</ele>
        <time>2021-05-19T11:34:00Z</time>
      </trkpt>
      <trkpt lat="42.0829410" lon="-8.8904320">
        <ele>31.5</ele>
        <time>2021-05-19T11:34:01Z</time>
      </trkpt>
      <trkpt lat="42.0829410" lon="-8.8904320">
        <ele>31.5</ele>
        <time>2021-05-19T11:34:02Z</time>
      </trkpt>
      <trkpt lat="42.0829410" lon="-8.8904320">
        <ele>31.5</ele>
        <time>2021-05-19T11:34:03Z</time>
      </trkpt>
      <trkpt lat="42.0829410" lon="-8.8904320">
        <ele>31.5</ele>
        <time>2021-05-19T11:34:04Z</time>
      </trkpt>
      <trkpt lat="42.0829410" lon="-8.8904320">
        <ele>31.5</ele>
        <time>2021-05-19T11:34:05Z</time>
      </trkpt>
      <trkpt lat="42.0829410" lon="-8.8904320">
        <ele>31.5</ele>
        <time>2021-05-19T11:34:06Z</time>
      </trkpt>
      <trkpt lat="42.0829410" lon="-8.8904320">
        <ele>31.5</ele>
        <time>2021-05-19T11:34:07Z</time>
      </trkpt>
      <trkpt lat="42.0829410" lon="-8.8904320">
        <ele>31.5</ele>
        <time>2021-05-19T11:34:08Z</time>
      </trkpt>
      <trkpt lat="42.0829410" lon="-8.8904320">
        <ele>31.5</ele>
        <time>2021-05-19T11:34:09Z</time>
      </trkpt>
      <trkpt lat="42.0829410" lon="-8.8904320">
        <ele>31.5</ele>
        <time>2021-05-19T11:34:10Z</time>
      </trkpt>
      <trkpt lat="42.0829410" lon="-8.8904320">
        <ele>31.5</ele>
        <time>2021-05-19T11:34:11Z</time>
      </trkpt>
      <trkpt lat="42.0829410" lon="-8.8904320">
        <ele>31.5</ele>
        <time>2021-05-19T11:34:12Z</time>
      </trkpt>
      <trkpt lat="42.0829410" lon="-8.8904320">
        <ele>31.5</ele>
        <time>2021-05-19T11:34:13Z</time>
      </trkpt>
      <trkpt lat="42.0829410" lon="-8.8904320">
        <ele>31.5</ele>
        <time>2021-05-19T11:34:14Z</time>
      </trkpt>
      <trkpt lat="42.0829410" lon="-8.8904320">
        <ele>31.5</ele>
        <time>2021-05-19T11:34:15Z</time>
      </trkpt>
      <trkpt lat="42.0829410" lon="-8.8904320">
        <ele>31.5</ele>
        <time>2021-05-19T11:34:16Z</time>
      </trkpt>
      <trkpt lat="42.0829410" lon="-8.8904310">
        <ele>31.5</ele>
        <time>2021-05-19T11:34:17Z</time>
      </trkpt>
      <trkpt lat="42.0829410" lon="-8.8904310">
        <ele>31.5</ele>
        <time>2021-05-19T11:34:18Z</time>
      </trkpt>
      <trkpt lat="42.0829410" lon="-8.8904310">
        <ele>31.5</ele>
        <time>2021-05-19T11:34:19Z</time>
      </trkpt>
      <trkpt lat="42.0829410" lon="-8.8904310">
        <ele>31.5</ele>
        <time>2021-05-19T11:34:20Z</time>
      </trkpt>
      <trkpt lat="42.0829410" lon="-8.8904310">
        <ele>31.5</ele>
        <time>2021-05-19T11:34:21Z</time>
      </trkpt>
      <trkpt lat="42.0829410" lon="-8.8904310">
        <ele>31.5</ele>
        <time>2021-05-19T11:34:22Z</time>
      </trkpt>
      <trkpt lat="42.0829410" lon="-8.8904310">
        <ele>31.5</ele>
        <time>2021-05-19T11:34:23Z</time>
      </trkpt>
      <trkpt lat="42.0829410" lon="-8.8904310">
        <ele>31.5</ele>
        <time>2021-05-19T11:34:24Z</time>
      </trkpt>
      <trkpt lat="42.0829410" lon="-8.8904310">
        <ele>31.5</ele>
        <time>2021-05-19T11:34:25Z</time>
      </trkpt>
      <trkpt lat="42.0829410" lon="-8.8904310">
        <ele>31.5</ele>
        <time>2021-05-19T11:34:26Z</time>
      </trkpt>
      <trkpt lat="42.0829410" lon="-8.8904310">
        <ele>31.5</ele>
        <time>2021-05-19T11:34:27Z</time>
      </trkpt>
      <trkpt lat="42.0829410" lon="-8.8904310">
        <ele>31.5</ele>
        <time>2021-05-19T11:34:28Z</time>
      </trkpt>
      <trkpt lat="42.0829410" lon="-8.8904310">
        <ele>31.5</ele>
        <time>2021-05-19T11:34:29Z</time>
      </trkpt>
      <trkpt lat="42.0829410" lon="-8.8904310">
        <ele>31.5</ele>
        <time>2021-05-19T11:34:30Z</time>
      </trkpt>
      <trkpt lat="42.0829410" lon="-8.8904310">
        <ele>31.5</ele>
        <time>2021-05-19T11:34:31Z</time>
      </trkpt>
      <trkpt lat="42.0829410" lon="-8.8904310">
        <ele>31.5</ele>
        <time>2021-05-19T11:34:32Z</time>
      </trkpt>
      <trkpt lat="42.0829410" lon="-8.8904310">
        <ele>31.5</ele>
        <time>2021-05-19T11:34:33Z</time>
      </trkpt>
      <trkpt lat="42.0829410" lon="-8.8904310">
        <ele>31.5</ele>
        <time>2021-05-19T11:34:34Z</time>
      </trkpt>
      <trkpt lat="42.0829410" lon="-8.8904310">
        <ele>31.5</ele>
        <time>2021-05-19T11:34:35Z</time>
      </trkpt>
      <trkpt lat="42.0829410" lon="-8.8904310">
        <ele>31.5</ele>
        <time>2021-05-19T11:34:36Z</time>
      </trkpt>
      <trkpt lat="42.0829410" lon="-8.8904310">
        <ele>31.5</ele>
        <time>2021-05-19T11:34:37Z</time>
      </trkpt>
      <trkpt lat="42.0829410" lon="-8.8904310">
        <ele>31.5</ele>
        <time>2021-05-19T11:34:38Z</time>
      </trkpt>
      <trkpt lat="42.0829410" lon="-8.8904310">
        <ele>31.5</ele>
        <time>2021-05-19T11:34:39Z</time>
      </trkpt>
      <trkpt lat="42.0829410" lon="-8.8904300">
        <ele>31.5</ele>
        <time>2021-05-19T11:34:40Z</time>
      </trkpt>
      <trkpt lat="42.0829410" lon="-8.8904300">
        <ele>31.5</ele>
        <time>2021-05-19T11:34:41Z</time>
      </trkpt>
      <trkpt lat="42.0829410" lon="-8.8904300">
        <ele>31.5</ele>
        <time>2021-05-19T11:34:42Z</time>
      </trkpt>
      <trkpt lat="42.0829410" lon="-8.8904300">
        <ele>31.5</ele>
        <time>2021-05-19T11:34:43Z</time>
      </trkpt>
      <trkpt lat="42.0829410" lon="-8.8904300">
        <ele>31.5</ele>
        <time>2021-05-19T11:34:44Z</time>
      </trkpt>
      <trkpt lat="42.0829410" lon="-8.8904300">
        <ele>31.5</ele>
        <time>2021-05-19T11:34:45Z</time>
      </trkpt>
      <trkpt lat="42.0829410" lon="-8.8904300">
        <ele>31.5</ele>
        <time>2021-05-19T11:34:46Z</time>
      </trkpt>
      <trkpt lat="42.0829410" lon="-8.8904300">
        <ele>31.5</ele>
        <time>2021-05-19T11:34:47Z</time>
      </trkpt>
      <trkpt lat="42.0829410" lon="-8.8904300">
        <ele>31.5</ele>
        <time>2021-05-19T11:34:48Z</time>
      </trkpt>
      <trkpt lat="42.0829410" lon="-8.8904300">
        <ele>31.5</ele>
        <time>2021-05-19T11:34:49Z</time>
      </trkpt>
      <trkpt lat="42.0829410" lon="-8.8904300">
        <ele>31.5</ele>
        <time>2021-05-19T11:34:50Z</time>
      </trkpt>
      <trkpt lat="42.0829410" lon="-8.8904300">
        <ele>31.5</ele>
        <time>2021-05-19T11:34:51Z</time>
      </trkpt>
      <trkpt lat="42.0829410" lon="-8.8904300">
        <ele>31.5</ele>
        <time>2021-05-19T11:34:52Z</time>
      </trkpt>
      <trkpt lat="42.0829410" lon="-8.8904300">
        <ele>31.5</ele>
        <time>2021-05-19T11:34:53Z</time>
      </trkpt>
      <trkpt lat="42.0829410" lon="-8.8904300">
        <ele>31.5</ele>
        <time>2021-05-19T11:34:54Z</time>
      </trkpt>
      <trkpt lat="42.0829410" lon="-8.8904300">
        <ele>31.5</ele>
        <time>2021-05-19T11:34:55Z</time>
      </trkpt>
      <trkpt lat="42.0829410" lon="-8.8904300">
        <ele>31.5</ele>
        <time>2021-05-19T11:34:56Z</time>
      </trkpt>
      <trkpt lat="42.0829410" lon="-8.8904300">
        <ele>31.5</ele>
        <time>2021-05-19T11:34:57Z</time>
      </trkpt>
      <trkpt lat="42.0829410" lon="-8.8904300">
        <ele>31.5</ele>
        <time>2021-05-19T11:34:58Z</time>
      </trkpt>
      <trkpt lat="42.0829420" lon="-8.8904300">
        <ele>31.5</ele>
        <time>2021-05-19T11:34:59Z</time>
      </trkpt>
      <trkpt lat="42.0829420" lon="-8.8904300">
        <ele>31.5</ele>
        <time>2021-05-19T11:35:00Z</time>
      </trkpt>
      <trkpt lat="42.0829420" lon="-8.8904300">
        <ele>31.5</ele>
        <time>2021-05-19T11:35:01Z</time>
      </trkpt>
      <trkpt lat="42.0829420" lon="-8.8904300">
        <ele>31.5</ele>
        <time>2021-05-19T11:35:02Z</time>
      </trkpt>
      <trkpt lat="42.0829420" lon="-8.8904290">
        <ele>31.5</ele>
        <time>2021-05-19T11:35:03Z</time>
      </trkpt>
      <trkpt lat="42.0829420" lon="-8.8904290">
        <ele>31.5</ele>
        <time>2021-05-19T11:35:04Z</time>
      </trkpt>
      <trkpt lat="42.0829420" lon="-8.8904290">
        <ele>31.5</ele>
        <time>2021-05-19T11:35:05Z</time>
      </trkpt>
      <trkpt lat="42.0829420" lon="-8.8904290">
        <ele>31.5</ele>
        <time>2021-05-19T11:35:06Z</time>
      </trkpt>
      <trkpt lat="42.0829420" lon="-8.8904290">
        <ele>31.5</ele>
        <time>2021-05-19T11:35:07Z</time>
      </trkpt>
      <trkpt lat="42.0829420" lon="-8.8904290">
        <ele>31.5</ele>
        <time>2021-05-19T11:35:08Z</time>
      </trkpt>
      <trkpt lat="42.0829420" lon="-8.8904290">
        <ele>31.5</ele>
        <time>2021-05-19T11:35:09Z</time>
      </trkpt>
      <trkpt lat="42.0829420" lon="-8.8904290">
        <ele>31.5</ele>
        <time>2021-05-19T11:35:10Z</time>
      </trkpt>
      <trkpt lat="42.0829420" lon="-8.8904290">
        <ele>31.5</ele>
        <time>2021-05-19T11:35:11Z</time>
      </trkpt>
      <trkpt lat="42.0829420" lon="-8.8904290">
        <ele>31.5</ele>
        <time>2021-05-19T11:35:12Z</time>
      </trkpt>
      <trkpt lat="42.0829420" lon="-8.8904290">
        <ele>31.5</ele>
        <time>2021-05-19T11:35:13Z</time>
      </trkpt>
      <trkpt lat="42.0829420" lon="-8.8904290">
        <ele>31.5</ele>
        <time>2021-05-19T11:35:14Z</time>
      </trkpt>
      <trkpt lat="42.0829420" lon="-8.8904290">
        <ele>31.5</ele>
        <time>2021-05-19T11:35:15Z</time>
      </trkpt>
      <trkpt lat="42.0829420" lon="-8.8904290">
        <ele>31.5</ele>
        <time>2021-05-19T11:35:16Z</time>
      </trkpt>
      <trkpt lat="42.0829420" lon="-8.8904290">
        <ele>31.5</ele>
        <time>2021-05-19T11:35:17Z</time>
      </trkpt>
      <trkpt lat="42.0829420" lon="-8.8904290">
        <ele>31.5</ele>
        <time>2021-05-19T11:35:18Z</time>
      </trkpt>
      <trkpt lat="42.0829420" lon="-8.8904290">
        <ele>31.5</ele>
        <time>2021-05-19T11:35:19Z</time>
      </trkpt>
      <trkpt lat="42.0829420" lon="-8.8904290">
        <ele>31.5</ele>
        <time>2021-05-19T11:35:20Z</time>
      </trkpt>
      <trkpt lat="42.0829420" lon="-8.8904290">
        <ele>31.5</ele>
        <time>2021-05-19T11:35:21Z</time>
      </trkpt>
      <trkpt lat="42.0829420" lon="-8.8904290">
        <ele>31.5</ele>
        <time>2021-05-19T11:35:22Z</time>
      </trkpt>
      <trkpt lat="42.0829420" lon="-8.8904290">
        <ele>31.5</ele>
        <time>2021-05-19T11:35:23Z</time>
      </trkpt>
      <trkpt lat="42.0829420" lon="-8.8904290">
        <ele>31.5</ele>
        <time>2021-05-19T11:35:24Z</time>
      </trkpt>
      <trkpt lat="42.0829420" lon="-8.8904290">
        <ele>31.5</ele>
        <time>2021-05-19T11:35:25Z</time>
      </trkpt>
      <trkpt lat="42.0829420" lon="-8.8904280">
        <ele>32.6</ele>
        <time>2021-05-19T11:35:26Z</time>
      </trkpt>
      <trkpt lat="42.0829420" lon="-8.8904280">
        <ele>32.6</ele>
        <time>2021-05-19T11:35:27Z</time>
      </trkpt>
      <trkpt lat="42.0829420" lon="-8.8904280">
        <ele>32.6</ele>
        <time>2021-05-19T11:35:28Z</time>
      </trkpt>
      <trkpt lat="42.0829420" lon="-8.8904280">
        <ele>32.6</ele>
        <time>2021-05-19T11:35:29Z</time>
      </trkpt>
      <trkpt lat="42.0829420" lon="-8.8904280">
        <ele>32.6</ele>
        <time>2021-05-19T11:35:30Z</time>
      </trkpt>
      <trkpt lat="42.0829420" lon="-8.8904280">
        <ele>32.6</ele>
        <time>2021-05-19T11:35:31Z</time>
      </trkpt>
      <trkpt lat="42.0829420" lon="-8.8904280">
        <ele>32.6</ele>
        <time>2021-05-19T11:35:32Z</time>
      </trkpt>
      <trkpt lat="42.0829420" lon="-8.8904280">
        <ele>32.6</ele>
        <time>2021-05-19T11:35:33Z</time>
      </trkpt>
      <trkpt lat="42.0829420" lon="-8.8904280">
        <ele>32.6</ele>
        <time>2021-05-19T11:35:34Z</time>
      </trkpt>
      <trkpt lat="42.0829420" lon="-8.8904280">
        <ele>32.6</ele>
        <time>2021-05-19T11:35:35Z</time>
      </trkpt>
      <trkpt lat="42.0829420" lon="-8.8904280">
        <ele>32.6</ele>
        <time>2021-05-19T11:35:36Z</time>
      </trkpt>
      <trkpt lat="42.0829420" lon="-8.8904280">
        <ele>32.6</ele>
        <time>2021-05-19T11:35:37Z</time>
      </trkpt>
      <trkpt lat="42.0829420" lon="-8.8904280">
        <ele>32.6</ele>
        <time>2021-05-19T11:35:38Z</time>
      </trkpt>
      <trkpt lat="42.0829420" lon="-8.8904280">
        <ele>32.6</ele>
        <time>2021-05-19T11:35:39Z</time>
      </trkpt>
      <trkpt lat="42.0829420" lon="-8.8904280">
        <ele>32.6</ele>
        <time>2021-05-19T11:35:40Z</time>
      </trkpt>
      <trkpt lat="42.0829420" lon="-8.8904280">
        <ele>32.6</ele>
        <time>2021-05-19T11:35:41Z</time>
      </trkpt>
      <trkpt lat="42.0829420" lon="-8.8904280">
        <ele>32.6</ele>
        <time>2021-05-19T11:35:42Z</time>
      </trkpt>
      <trkpt lat="42.0829420" lon="-8.8904280">
        <ele>32.6</ele>
        <time>2021-05-19T11:35:43Z</time>
      </trkpt>
      <trkpt lat="42.0829420" lon="-8.8904280">
        <ele>32.6</ele>
        <time>2021-05-19T11:35:44Z</time>
      </trkpt>
      <trkpt lat="42.0829420" lon="-8.8904280">
        <ele>32.6</ele>
        <time>2021-05-19T11:35:45Z</time>
      </trkpt>
      <trkpt lat="42.0829420" lon="-8.8904280">
        <ele>32.6</ele>
        <time>2021-05-19T11:35:46Z</time>
      </trkpt>
      <trkpt lat="42.0829420" lon="-8.8904280">
        <ele>32.6</ele>
        <time>2021-05-19T11:35:47Z</time>
      </trkpt>
      <trkpt lat="42.0829420" lon="-8.8904280">
        <ele>32.6</ele>
        <time>2021-05-19T11:35:48Z</time>
      </trkpt>
      <trkpt lat="42.0829420" lon="-8.8904280">
        <ele>32.6</ele>
        <time>2021-05-19T11:35:49Z</time>
      </trkpt>
      <trkpt lat="42.0829420" lon="-8.8904270">
        <ele>32.6</ele>
        <time>2021-05-19T11:35:50Z</time>
      </trkpt>
      <trkpt lat="42.0829420" lon="-8.8904270">
        <ele>32.6</ele>
        <time>2021-05-19T11:35:51Z</time>
      </trkpt>
      <trkpt lat="42.0829420" lon="-8.8904270">
        <ele>32.6</ele>
        <time>2021-05-19T11:35:52Z</time>
      </trkpt>
      <trkpt lat="42.0829420" lon="-8.8904270">
        <ele>32.6</ele>
        <time>2021-05-19T11:35:53Z</time>
      </trkpt>
      <trkpt lat="42.0829420" lon="-8.8904270">
        <ele>32.6</ele>
        <time>2021-05-19T11:35:54Z</time>
      </trkpt>
      <trkpt lat="42.0829420" lon="-8.8904270">
        <ele>32.6</ele>
        <time>2021-05-19T11:35:55Z</time>
      </trkpt>
      <trkpt lat="42.0829420" lon="-8.8904270">
        <ele>32.6</ele>
        <time>2021-05-19T11:35:56Z</time>
      </trkpt>
      <trkpt lat="42.0829420" lon="-8.8904270">
        <ele>32.6</ele>
        <time>2021-05-19T11:35:57Z</time>
      </trkpt>
      <trkpt lat="42.0829420" lon="-8.8904270">
        <ele>32.6</ele>
        <time>2021-05-19T11:35:58Z</time>
      </trkpt>
      <trkpt lat="42.0829420" lon="-8.8904270">
        <ele>32.6</ele>
        <time>2021-05-19T11:35:59Z</time>
      </trkpt>
      <trkpt lat="42.0829420" lon="-8.8904270">
        <ele>32.6</ele>
        <time>2021-05-19T11:36:00Z</time>
      </trkpt>
      <trkpt lat="42.0829420" lon="-8.8904270">
        <ele>32.6</ele>
        <time>2021-05-19T11:36:01Z</time>
      </trkpt>
      <trkpt lat="42.0829420" lon="-8.8904270">
        <ele>32.6</ele>
        <time>2021-05-19T11:36:02Z</time>
      </trkpt>
      <trkpt lat="42.0829430" lon="-8.8904270">
        <ele>32.6</ele>
        <time>2021-05-19T11:36:03Z</time>
      </trkpt>
      <trkpt lat="42.0829430" lon="-8.8904270">
        <ele>32.6</ele>
        <time>2021-05-19T11:36:04Z</time>
      </trkpt>
      <trkpt lat="42.0829430" lon="-8.8904270">
        <ele>32.6</ele>
        <time>2021-05-19T11:36:05Z</time>
      </trkpt>
      <trkpt lat="42.0829430" lon="-8.8904270">
        <ele>32.6</ele>
        <time>2021-05-19T11:36:06Z</time>
      </trkpt>
      <trkpt lat="42.0829430" lon="-8.8904270">
        <ele>32.6</ele>
        <time>2021-05-19T11:36:07Z</time>
      </trkpt>
      <trkpt lat="42.0829430" lon="-8.8904270">
        <ele>32.6</ele>
        <time>2021-05-19T11:36:08Z</time>
      </trkpt>
      <trkpt lat="42.0829430" lon="-8.8904270">
        <ele>32.6</ele>
        <time>2021-05-19T11:36:09Z</time>
      </trkpt>
      <trkpt lat="42.0829430" lon="-8.8904270">
        <ele>32.6</ele>
        <time>2021-05-19T11:36:10Z</time>
      </trkpt>
      <trkpt lat="42.0829430" lon="-8.8904270">
        <ele>32.6</ele>
        <time>2021-05-19T11:36:11Z</time>
      </trkpt>
      <trkpt lat="42.0829430" lon="-8.8904270">
        <ele>32.6</ele>
        <time>2021-05-19T11:36:12Z</time>
      </trkpt>
      <trkpt lat="42.0829430" lon="-8.8904260">
        <ele>32.6</ele>
        <time>2021-05-19T11:36:13Z</time>
      </trkpt>
      <trkpt lat="42.0829430" lon="-8.8904260">
        <ele>32.6</ele>
        <time>2021-05-19T11:36:14Z</time>
      </trkpt>
      <trkpt lat="42.0829430" lon="-8.8904260">
        <ele>32.6</ele>
        <time>2021-05-19T11:36:15Z</time>
      </trkpt>
      <trkpt lat="42.0829430" lon="-8.8904260">
        <ele>32.6</ele>
        <time>2021-05-19T11:36:16Z</time>
      </trkpt>
      <trkpt lat="42.0829430" lon="-8.8904260">
        <ele>32.6</ele>
        <time>2021-05-19T11:36:17Z</time>
      </trkpt>
      <trkpt lat="42.0829430" lon="-8.8904260">
        <ele>32.6</ele>
        <time>2021-05-19T11:36:18Z</time>
      </trkpt>
      <trkpt lat="42.0829430" lon="-8.8904260">
        <ele>32.6</ele>
        <time>2021-05-19T11:36:19Z</time>
      </trkpt>
      <trkpt lat="42.0829430" lon="-8.8904260">
        <ele>32.6</ele>
        <time>2021-05-19T11:36:20Z</time>
      </trkpt>
      <trkpt lat="42.0829430" lon="-8.8904260">
        <ele>32.6</ele>
        <time>2021-05-19T11:36:21Z</time>
      </trkpt>
      <trkpt lat="42.0829430" lon="-8.8904260">
        <ele>32.6</ele>
        <time>2021-05-19T11:36:22Z</time>
      </trkpt>
      <trkpt lat="42.0829430" lon="-8.8904260">
        <ele>32.6</ele>
        <time>2021-05-19T11:36:23Z</time>
      </trkpt>
      <trkpt lat="42.0829430" lon="-8.8904260">
        <ele>32.6</ele>
        <time>2021-05-19T11:36:24Z</time>
      </trkpt>
      <trkpt lat="42.0829430" lon="-8.8904260">
        <ele>32.6</ele>
        <time>2021-05-19T11:36:25Z</time>
      </trkpt>
      <trkpt lat="42.0829430" lon="-8.8904260">
        <ele>32.6</ele>
        <time>2021-05-19T11:36:26Z</time>
      </trkpt>
      <trkpt lat="42.0829430" lon="-8.8904260">
        <ele>32.6</ele>
        <time>2021-05-19T11:36:27Z</time>
      </trkpt>
      <trkpt lat="42.0829430" lon="-8.8904260">
        <ele>32.6</ele>
        <time>2021-05-19T11:36:28Z</time>
      </trkpt>
      <trkpt lat="42.0829430" lon="-8.8904260">
        <ele>32.6</ele>
        <time>2021-05-19T11:36:29Z</time>
      </trkpt>
      <trkpt lat="42.0829430" lon="-8.8904260">
        <ele>32.6</ele>
        <time>2021-05-19T11:36:30Z</time>
      </trkpt>
      <trkpt lat="42.0829430" lon="-8.8904260">
        <ele>32.6</ele>
        <time>2021-05-19T11:36:31Z</time>
      </trkpt>
      <trkpt lat="42.0829430" lon="-8.8904260">
        <ele>32.6</ele>
        <time>2021-05-19T11:36:32Z</time>
      </trkpt>
      <trkpt lat="42.0829430" lon="-8.8904260">
        <ele>32.6</ele>
        <time>2021-05-19T11:36:33Z</time>
      </trkpt>
      <trkpt lat="42.0829430" lon="-8.8904260">
        <ele>32.6</ele>
        <time>2021-05-19T11:36:34Z</time>
      </trkpt>
      <trkpt lat="42.0829430" lon="-8.8904260">
        <ele>32.6</ele>
        <time>2021-05-19T11:36:35Z</time>
      </trkpt>
      <trkpt lat="42.0829430" lon="-8.8904250">
        <ele>32.6</ele>
        <time>2021-05-19T11:36:36Z</time>
      </trkpt>
      <trkpt lat="42.0829430" lon="-8.8904250">
        <ele>32.6</ele>
        <time>2021-05-19T11:36:37Z</time>
      </trkpt>
      <trkpt lat="42.0829430" lon="-8.8904250">
        <ele>32.6</ele>
        <time>2021-05-19T11:36:38Z</time>
      </trkpt>
      <trkpt lat="42.0829430" lon="-8.8904250">
        <ele>32.6</ele>
        <time>2021-05-19T11:36:39Z</time>
      </trkpt>
      <trkpt lat="42.0829430" lon="-8.8904250">
        <ele>32.6</ele>
        <time>2021-05-19T11:36:40Z</time>
      </trkpt>
      <trkpt lat="42.0829430" lon="-8.8904250">
        <ele>32.6</ele>
        <time>2021-05-19T11:36:41Z</time>
      </trkpt>
      <trkpt lat="42.0829430" lon="-8.8904250">
        <ele>32.6</ele>
        <time>2021-05-19T11:36:42Z</time>
      </trkpt>
      <trkpt lat="42.0829430" lon="-8.8904250">
        <ele>32.6</ele>
        <time>2021-05-19T11:36:43Z</time>
      </trkpt>
      <trkpt lat="42.0829430" lon="-8.8904250">
        <ele>32.6</ele>
        <time>2021-05-19T11:36:44Z</time>
      </trkpt>
      <trkpt lat="42.0829430" lon="-8.8904250">
        <ele>32.6</ele>
        <time>2021-05-19T11:36:45Z</time>
      </trkpt>
      <trkpt lat="42.0829430" lon="-8.8904250">
        <ele>32.6</ele>
        <time>2021-05-19T11:36:46Z</time>
      </trkpt>
      <trkpt lat="42.0829430" lon="-8.8904250">
        <ele>32.6</ele>
        <time>2021-05-19T11:36:47Z</time>
      </trkpt>
      <trkpt lat="42.0829430" lon="-8.8904250">
        <ele>32.6</ele>
        <time>2021-05-19T11:36:48Z</time>
      </trkpt>
      <trkpt lat="42.0829430" lon="-8.8904250">
        <ele>32.6</ele>
        <time>2021-05-19T11:36:49Z</time>
      </trkpt>
      <trkpt lat="42.0829430" lon="-8.8904250">
        <ele>32.6</ele>
        <time>2021-05-19T11:36:50Z</time>
      </trkpt>
      <trkpt lat="42.0829430" lon="-8.8904250">
        <ele>32.6</ele>
        <time>2021-05-19T11:36:51Z</time>
      </trkpt>
      <trkpt lat="42.0829430" lon="-8.8904250">
        <ele>32.6</ele>
        <time>2021-05-19T11:36:52Z</time>
      </trkpt>
      <trkpt lat="42.0829430" lon="-8.8904250">
        <ele>32.6</ele>
        <time>2021-05-19T11:36:53Z</time>
      </trkpt>
      <trkpt lat="42.0829430" lon="-8.8904250">
        <ele>32.6</ele>
        <time>2021-05-19T11:36:54Z</time>
      </trkpt>
      <trkpt lat="42.0829430" lon="-8.8904250">
        <ele>32.6</ele>
        <time>2021-05-19T11:36:55Z</time>
      </trkpt>
      <trkpt lat="42.0829430" lon="-8.8904250">
        <ele>32.6</ele>
        <time>2021-05-19T11:36:56Z</time>
      </trkpt>
      <trkpt lat="42.0829430" lon="-8.8904250">
        <ele>32.6</ele>
        <time>2021-05-19T11:36:57Z</time>
      </trkpt>
      <trkpt lat="42.0829430" lon="-8.8904250">
        <ele>32.6</ele>
        <time>2021-05-19T11:36:58Z</time>
      </trkpt>
      <trkpt lat="42.0829430" lon="-8.8904240">
        <ele>32.6</ele>
        <time>2021-05-19T11:36:59Z</time>
      </trkpt>
      <trkpt lat="42.0829430" lon="-8.8904240">
        <ele>32.6</ele>
        <time>2021-05-19T11:37:00Z</time>
      </trkpt>
      <trkpt lat="42.0829430" lon="-8.8904240">
        <ele>32.6</ele>
        <time>2021-05-19T11:37:01Z</time>
      </trkpt>
      <trkpt lat="42.0829430" lon="-8.8904240">
        <ele>32.6</ele>
        <time>2021-05-19T11:37:02Z</time>
      </trkpt>
      <trkpt lat="42.0829430" lon="-8.8904240">
        <ele>32.6</ele>
        <time>2021-05-19T11:37:03Z</time>
      </trkpt>
      <trkpt lat="42.0829430" lon="-8.8904240">
        <ele>32.6</ele>
        <time>2021-05-19T11:37:04Z</time>
      </trkpt>
      <trkpt lat="42.0829430" lon="-8.8904240">
        <ele>32.6</ele>
        <time>2021-05-19T11:37:05Z</time>
      </trkpt>
      <trkpt lat="42.0829430" lon="-8.8904240">
        <ele>32.6</ele>
        <time>2021-05-19T11:37:06Z</time>
      </trkpt>
      <trkpt lat="42.0829440" lon="-8.8904240">
        <ele>32.6</ele>
        <time>2021-05-19T11:37:07Z</time>
      </trkpt>
      <trkpt lat="42.0829440" lon="-8.8904240">
        <ele>32.6</ele>
        <time>2021-05-19T11:37:08Z</time>
      </trkpt>
      <trkpt lat="42.0829440" lon="-8.8904240">
        <ele>32.6</ele>
        <time>2021-05-19T11:37:09Z</time>
      </trkpt>
      <trkpt lat="42.0829440" lon="-8.8904240">
        <ele>32.6</ele>
        <time>2021-05-19T11:37:10Z</time>
      </trkpt>
      <trkpt lat="42.0829440" lon="-8.8904240">
        <ele>32.6</ele>
        <time>2021-05-19T11:37:11Z</time>
      </trkpt>
      <trkpt lat="42.0829440" lon="-8.8904240">
        <ele>32.6</ele>
        <time>2021-05-19T11:37:12Z</time>
      </trkpt>
      <trkpt lat="42.0829440" lon="-8.8904240">
        <ele>32.6</ele>
        <time>2021-05-19T11:37:13Z</time>
      </trkpt>
      <trkpt lat="42.0829440" lon="-8.8904240">
        <ele>32.6</ele>
        <time>2021-05-19T11:37:14Z</time>
      </trkpt>
      <trkpt lat="42.0829440" lon="-8.8904240">
        <ele>32.6</ele>
        <time>2021-05-19T11:37:15Z</time>
      </trkpt>
      <trkpt lat="42.0829440" lon="-8.8904240">
        <ele>32.6</ele>
        <time>2021-05-19T11:37:16Z</time>
      </trkpt>
      <trkpt lat="42.0829440" lon="-8.8904240">
        <ele>32.6</ele>
        <time>2021-05-19T11:37:17Z</time>
      </trkpt>
      <trkpt lat="42.0829440" lon="-8.8904240">
        <ele>32.6</ele>
        <time>2021-05-19T11:37:18Z</time>
      </trkpt>
      <trkpt lat="42.0829440" lon="-8.8904240">
        <ele>32.6</ele>
        <time>2021-05-19T11:37:19Z</time>
      </trkpt>
      <trkpt lat="42.0829440" lon="-8.8904240">
        <ele>32.6</ele>
        <time>2021-05-19T11:37:20Z</time>
      </trkpt>
      <trkpt lat="42.0829440" lon="-8.8904240">
        <ele>32.6</ele>
        <time>2021-05-19T11:37:21Z</time>
      </trkpt>
      <trkpt lat="42.0829440" lon="-8.8904230">
        <ele>32.6</ele>
        <time>2021-05-19T11:37:22Z</time>
      </trkpt>
      <trkpt lat="42.0829440" lon="-8.8904230">
        <ele>32.6</ele>
        <time>2021-05-19T11:37:23Z</time>
      </trkpt>
      <trkpt lat="42.0829440" lon="-8.8904230">
        <ele>32.6</ele>
        <time>2021-05-19T11:37:24Z</time>
      </trkpt>
      <trkpt lat="42.0829440" lon="-8.8904230">
        <ele>32.6</ele>
        <time>2021-05-19T11:37:25Z</time>
      </trkpt>
      <trkpt lat="42.0829440" lon="-8.8904230">
        <ele>32.6</ele>
        <time>2021-05-19T11:37:26Z</time>
      </trkpt>
      <trkpt lat="42.0829440" lon="-8.8904230">
        <ele>32.6</ele>
        <time>2021-05-19T11:37:27Z</time>
      </trkpt>
      <trkpt lat="42.0829440" lon="-8.8904230">
        <ele>32.6</ele>
        <time>2021-05-19T11:37:28Z</time>
      </trkpt>
      <trkpt lat="42.0829440" lon="-8.8904230">
        <ele>32.6</ele>
        <time>2021-05-19T11:37:29Z</time>
      </trkpt>
      <trkpt lat="42.0829440" lon="-8.8904230">
        <ele>32.6</ele>
        <time>2021-05-19T11:37:30Z</time>
      </trkpt>
      <trkpt lat="42.0829440" lon="-8.8904230">
        <ele>32.6</ele>
        <time>2021-05-19T11:37:31Z</time>
      </trkpt>
      <trkpt lat="42.0829440" lon="-8.8904230">
        <ele>32.6</ele>
        <time>2021-05-19T11:37:32Z</time>
      </trkpt>
      <trkpt lat="42.0829440" lon="-8.8904230">
        <ele>32.6</ele>
        <time>2021-05-19T11:37:33Z</time>
      </trkpt>
      <trkpt lat="42.0829440" lon="-8.8904230">
        <ele>32.6</ele>
        <time>2021-05-19T11:37:34Z</time>
      </trkpt>
      <trkpt lat="42.0829440" lon="-8.8904230">
        <ele>32.6</ele>
        <time>2021-05-19T11:37:35Z</time>
      </trkpt>
      <trkpt lat="42.0829440" lon="-8.8904230">
        <ele>32.6</ele>
        <time>2021-05-19T11:37:36Z</time>
      </trkpt>
      <trkpt lat="42.0829440" lon="-8.8904230">
        <ele>32.6</ele>
        <time>2021-05-19T11:37:37Z</time>
      </trkpt>
      <trkpt lat="42.0829440" lon="-8.8904230">
        <ele>32.6</ele>
        <time>2021-05-19T11:37:38Z</time>
      </trkpt>
      <trkpt lat="42.0829440" lon="-8.8904230">
        <ele>32.6</ele>
        <time>2021-05-19T11:37:39Z</time>
      </trkpt>
      <trkpt lat="42.0829440" lon="-8.8904230">
        <ele>32.6</ele>
        <time>2021-05-19T11:37:40Z</time>
      </trkpt>
      <trkpt lat="42.0829440" lon="-8.8904230">
        <ele>32.6</ele>
        <time>2021-05-19T11:37:41Z</time>
      </trkpt>
      <trkpt lat="42.0829440" lon="-8.8904230">
        <ele>32.6</ele>
        <time>2021-05-19T11:37:42Z</time>
      </trkpt>
      <trkpt lat="42.0829440" lon="-8.8904230">
        <ele>32.6</ele>
        <time>2021-05-19T11:37:43Z</time>
      </trkpt>
      <trkpt lat="42.0829440" lon="-8.8904230">
        <ele>32.6</ele>
        <time>2021-05-19T11:37:44Z</time>
      </trkpt>
      <trkpt lat="42.0829440" lon="-8.8904230">
        <ele>32.6</ele>
        <time>2021-05-19T11:37:45Z</time>
      </trkpt>
      <trkpt lat="42.0829440" lon="-8.8904220">
        <ele>32.6</ele>
        <time>2021-05-19T11:37:46Z</time>
      </trkpt>
      <trkpt lat="42.0829440" lon="-8.8904220">
        <ele>32.6</ele>
        <time>2021-05-19T11:37:47Z</time>
      </trkpt>
      <trkpt lat="42.0829440" lon="-8.8904220">
        <ele>32.6</ele>
        <time>2021-05-19T11:37:48Z</time>
      </trkpt>
      <trkpt lat="42.0829440" lon="-8.8904220">
        <ele>32.6</ele>
        <time>2021-05-19T11:37:49Z</time>
      </trkpt>
      <trkpt lat="42.0829440" lon="-8.8904220">
        <ele>32.6</ele>
        <time>2021-05-19T11:37:50Z</time>
      </trkpt>
      <trkpt lat="42.0829440" lon="-8.8904220">
        <ele>32.6</ele>
        <time>2021-05-19T11:37:51Z</time>
      </trkpt>
      <trkpt lat="42.0829440" lon="-8.8904220">
        <ele>32.6</ele>
        <time>2021-05-19T11:37:52Z</time>
      </trkpt>
      <trkpt lat="42.0829440" lon="-8.8904220">
        <ele>32.6</ele>
        <time>2021-05-19T11:37:53Z</time>
      </trkpt>
      <trkpt lat="42.0829440" lon="-8.8904220">
        <ele>32.6</ele>
        <time>2021-05-19T11:37:54Z</time>
      </trkpt>
      <trkpt lat="42.0829440" lon="-8.8904220">
        <ele>32.6</ele>
        <time>2021-05-19T11:37:55Z</time>
      </trkpt>
      <trkpt lat="42.0829440" lon="-8.8904220">
        <ele>32.6</ele>
        <time>2021-05-19T11:37:56Z</time>
      </trkpt>
      <trkpt lat="42.0829440" lon="-8.8904220">
        <ele>32.6</ele>
        <time>2021-05-19T11:37:57Z</time>
      </trkpt>
      <trkpt lat="42.0829440" lon="-8.8904220">
        <ele>32.6</ele>
        <time>2021-05-19T11:37:58Z</time>
      </trkpt>
      <trkpt lat="42.0829440" lon="-8.8904220">
        <ele>32.6</ele>
        <time>2021-05-19T11:37:59Z</time>
      </trkpt>
      <trkpt lat="42.0829440" lon="-8.8904220">
        <ele>32.6</ele>
        <time>2021-05-19T11:38:00Z</time>
      </trkpt>
      <trkpt lat="42.0829440" lon="-8.8904220">
        <ele>32.6</ele>
        <time>2021-05-19T11:38:01Z</time>
      </trkpt>
      <trkpt lat="42.0829440" lon="-8.8904220">
        <ele>32.6</ele>
        <time>2021-05-19T11:38:02Z</time>
      </trkpt>
      <trkpt lat="42.0829440" lon="-8.8904220">
        <ele>32.6</ele>
        <time>2021-05-19T11:38:03Z</time>
      </trkpt>
      <trkpt lat="42.0829440" lon="-8.8904220">
        <ele>32.6</ele>
        <time>2021-05-19T11:38:04Z</time>
      </trkpt>
      <trkpt lat="42.0829440" lon="-8.8904220">
        <ele>32.6</ele>
        <time>2021-05-19T11:38:05Z</time>
      </trkpt>
      <trkpt lat="42.0829440" lon="-8.8904220">
        <ele>32.6</ele>
        <time>2021-05-19T11:38:06Z</time>
      </trkpt>
      <trkpt lat="42.0829440" lon="-8.8904220">
        <ele>32.6</ele>
        <time>2021-05-19T11:38:07Z</time>
      </trkpt>
      <trkpt lat="42.0829440" lon="-8.8904220">
        <ele>32.6</ele>
        <time>2021-05-19T11:38:08Z</time>
      </trkpt>
      <trkpt lat="42.0829440" lon="-8.8904210">
        <ele>32.6</ele>
        <time>2021-05-19T11:38:09Z</time>
      </trkpt>
      <trkpt lat="42.0829440" lon="-8.8904210">
        <ele>32.6</ele>
        <time>2021-05-19T11:38:10Z</time>
      </trkpt>
      <trkpt lat="42.0829450" lon="-8.8904210">
        <ele>32.6</ele>
        <time>2021-05-19T11:38:11Z</time>
      </trkpt>
      <trkpt lat="42.0829450" lon="-8.8904210">
        <ele>32.6</ele>
        <time>2021-05-19T11:38:12Z</time>
      </trkpt>
      <trkpt lat="42.0829450" lon="-8.8904210">
        <ele>32.6</ele>
        <time>2021-05-19T11:38:13Z</time>
      </trkpt>
      <trkpt lat="42.0829450" lon="-8.8904210">
        <ele>32.6</ele>
        <time>2021-05-19T11:38:14Z</time>
      </trkpt>
      <trkpt lat="42.0829450" lon="-8.8904210">
        <ele>32.6</ele>
        <time>2021-05-19T11:38:15Z</time>
      </trkpt>
      <trkpt lat="42.0829450" lon="-8.8904210">
        <ele>32.6</ele>
        <time>2021-05-19T11:38:16Z</time>
      </trkpt>
      <trkpt lat="42.0829450" lon="-8.8904210">
        <ele>32.6</ele>
        <time>2021-05-19T11:38:17Z</time>
      </trkpt>
      <trkpt lat="42.0829450" lon="-8.8904210">
        <ele>32.6</ele>
        <time>2021-05-19T11:38:18Z</time>
      </trkpt>
      <trkpt lat="42.0829450" lon="-8.8904210">
        <ele>32.6</ele>
        <time>2021-05-19T11:38:19Z</time>
      </trkpt>
      <trkpt lat="42.0829450" lon="-8.8904210">
        <ele>32.6</ele>
        <time>2021-05-19T11:38:20Z</time>
      </trkpt>
      <trkpt lat="42.0829450" lon="-8.8904210">
        <ele>32.6</ele>
        <time>2021-05-19T11:38:21Z</time>
      </trkpt>
      <trkpt lat="42.0829450" lon="-8.8904210">
        <ele>32.6</ele>
        <time>2021-05-19T11:38:22Z</time>
      </trkpt>
      <trkpt lat="42.0829450" lon="-8.8904210">
        <ele>32.6</ele>
        <time>2021-05-19T11:38:23Z</time>
      </trkpt>
      <trkpt lat="42.0829450" lon="-8.8904210">
        <ele>32.6</ele>
        <time>2021-05-19T11:38:24Z</time>
      </trkpt>
      <trkpt lat="42.0829450" lon="-8.8904210">
        <ele>32.6</ele>
        <time>2021-05-19T11:38:25Z</time>
      </trkpt>
      <trkpt lat="42.0829450" lon="-8.8904210">
        <ele>32.6</ele>
        <time>2021-05-19T11:38:26Z</time>
      </trkpt>
      <trkpt lat="42.0829450" lon="-8.8904210">
        <ele>32.6</ele>
        <time>2021-05-19T11:38:27Z</time>
      </trkpt>
      <trkpt lat="42.0829450" lon="-8.8904210">
        <ele>32.6</ele>
        <time>2021-05-19T11:38:28Z</time>
      </trkpt>
      <trkpt lat="42.0829450" lon="-8.8904210">
        <ele>32.6</ele>
        <time>2021-05-19T11:38:29Z</time>
      </trkpt>
      <trkpt lat="42.0829450" lon="-8.8904210">
        <ele>32.6</ele>
        <time>2021-05-19T11:38:30Z</time>
      </trkpt>
      <trkpt lat="42.0829450" lon="-8.8904210">
        <ele>32.6</ele>
        <time>2021-05-19T11:38:31Z</time>
      </trkpt>
      <trkpt lat="42.0829450" lon="-8.8904200">
        <ele>32.6</ele>
        <time>2021-05-19T11:38:32Z</time>
      </trkpt>
      <trkpt lat="42.0829450" lon="-8.8904200">
        <ele>32.6</ele>
        <time>2021-05-19T11:38:33Z</time>
      </trkpt>
      <trkpt lat="42.0829450" lon="-8.8904200">
        <ele>32.6</ele>
        <time>2021-05-19T11:38:34Z</time>
      </trkpt>
      <trkpt lat="42.0829450" lon="-8.8904200">
        <ele>32.6</ele>
        <time>2021-05-19T11:38:35Z</time>
      </trkpt>
      <trkpt lat="42.0829450" lon="-8.8904200">
        <ele>32.6</ele>
        <time>2021-05-19T11:38:36Z</time>
      </trkpt>
      <trkpt lat="42.0829450" lon="-8.8904200">
        <ele>32.6</ele>
        <time>2021-05-19T11:38:37Z</time>
      </trkpt>
      <trkpt lat="42.0829450" lon="-8.8904200">
        <ele>32.6</ele>
        <time>2021-05-19T11:38:38Z</time>
      </trkpt>
      <trkpt lat="42.0829450" lon="-8.8904200">
        <ele>32.6</ele>
        <time>2021-05-19T11:38:39Z</time>
      </trkpt>
      <trkpt lat="42.0829450" lon="-8.8904200">
        <ele>32.6</ele>
        <time>2021-05-19T11:38:40Z</time>
      </trkpt>
      <trkpt lat="42.0829450" lon="-8.8904200">
        <ele>32.6</ele>
        <time>2021-05-19T11:38:41Z</time>
      </trkpt>
      <trkpt lat="42.0829450" lon="-8.8904200">
        <ele>32.6</ele>
        <time>2021-05-19T11:38:42Z</time>
      </trkpt>
      <trkpt lat="42.0829450" lon="-8.8904200">
        <ele>32.6</ele>
        <time>2021-05-19T11:38:43Z</time>
      </trkpt>
      <trkpt lat="42.0829450" lon="-8.8904200">
        <ele>32.6</ele>
        <time>2021-05-19T11:38:44Z</time>
      </trkpt>
      <trkpt lat="42.0829420" lon="-8.8904230">
        <ele>32.6</ele>
        <time>2021-05-19T11:38:45Z</time>
      </trkpt>
      <trkpt lat="42.0829430" lon="-8.8904220">
        <ele>32.6</ele>
        <time>2021-05-19T11:38:46Z</time>
      </trkpt>
      <trkpt lat="42.0829440" lon="-8.8904170">
        <ele>32.6</ele>
        <time>2021-05-19T11:38:47Z</time>
      </trkpt>
      <trkpt lat="42.0829450" lon="-8.8904210">
        <ele>32.6</ele>
        <time>2021-05-19T11:38:48Z</time>
      </trkpt>
      <trkpt lat="42.0829470" lon="-8.8904220">
        <ele>32.6</ele>
        <time>2021-05-19T11:38:49Z</time>
      </trkpt>
      <trkpt lat="42.0829470" lon="-8.8904140">
        <ele>32.6</ele>
        <time>2021-05-19T11:38:50Z</time>
      </trkpt>
      <trkpt lat="42.0829490" lon="-8.8904160">
        <ele>32.6</ele>
        <time>2021-05-19T11:38:51Z</time>
      </trkpt>
      <trkpt lat="42.0829460" lon="-8.8904110">
        <ele>32.6</ele>
        <time>2021-05-19T11:38:52Z</time>
      </trkpt>
      <trkpt lat="42.0829410" lon="-8.8904090">
        <ele>32.6</ele>
        <time>2021-05-19T11:38:53Z</time>
      </trkpt>
      <trkpt lat="42.0829420" lon="-8.8904070">
        <ele>32.6</ele>
        <time>2021-05-19T11:38:54Z</time>
      </trkpt>
      <trkpt lat="42.0829420" lon="-8.8904060">
        <ele>32.6</ele>
        <time>2021-05-19T11:38:55Z</time>
      </trkpt>
      <trkpt lat="42.0829430" lon="-8.8904030">
        <ele>32.6</ele>
        <time>2021-05-19T11:38:56Z</time>
      </trkpt>
      <trkpt lat="42.0829470" lon="-8.8904070">
        <ele>32.6</ele>
        <time>2021-05-19T11:38:57Z</time>
      </trkpt>
      <trkpt lat="42.0829480" lon="-8.8904110">
        <ele>32.6</ele>
        <time>2021-05-19T11:38:58Z</time>
      </trkpt>
      <trkpt lat="42.0829470" lon="-8.8904230">
        <ele>32.6</ele>
        <time>2021-05-19T11:38:59Z</time>
      </trkpt>
      <trkpt lat="42.0829450" lon="-8.8904370">
        <ele>31.5</ele>
        <time>2021-05-19T11:39:00Z</time>
      </trkpt>
      <trkpt lat="42.0829410" lon="-8.8904380">
        <ele>31.5</ele>
        <time>2021-05-19T11:39:01Z</time>
      </trkpt>
      <trkpt lat="42.0829390" lon="-8.8904480">
        <ele>31.5</ele>
        <time>2021-05-19T11:39:02Z</time>
      </trkpt>
      <trkpt lat="42.0829310" lon="-8.8904520">
        <ele>31.3</ele>
        <time>2021-05-19T11:39:03Z</time>
      </trkpt>
      <trkpt lat="42.0829290" lon="-8.8904510">
        <ele>31.3</ele>
        <time>2021-05-19T11:39:04Z</time>
      </trkpt>
      <trkpt lat="42.0829210" lon="-8.8904530">
        <ele>31.3</ele>
        <time>2021-05-19T11:39:05Z</time>
      </trkpt>
      <trkpt lat="42.0829210" lon="-8.8904480">
        <ele>31.3</ele>
        <time>2021-05-19T11:39:06Z</time>
      </trkpt>
      <trkpt lat="42.0829230" lon="-8.8904540">
        <ele>31.3</ele>
        <time>2021-05-19T11:39:07Z</time>
      </trkpt>
      <trkpt lat="42.0829250" lon="-8.8904520">
        <ele>31.3</ele>
        <time>2021-05-19T11:39:08Z</time>
      </trkpt>
      <trkpt lat="42.0829320" lon="-8.8904460">
        <ele>31.3</ele>
        <time>2021-05-19T11:39:09Z</time>
      </trkpt>
      <trkpt lat="42.0829340" lon="-8.8904450">
        <ele>31.3</ele>
        <time>2021-05-19T11:39:10Z</time>
      </trkpt>
      <trkpt lat="42.0829350" lon="-8.8904440">
        <ele>31.3</ele>
        <time>2021-05-19T11:39:11Z</time>
      </trkpt>
      <trkpt lat="42.0829330" lon="-8.8904460">
        <ele>31.3</ele>
        <time>2021-05-19T11:39:12Z</time>
      </trkpt>
      <trkpt lat="42.0829330" lon="-8.8904460">
        <ele>31.3</ele>
        <time>2021-05-19T11:39:13Z</time>
      </trkpt>
      <trkpt lat="42.0829310" lon="-8.8904460">
        <ele>31.3</ele>
        <time>2021-05-19T11:39:14Z</time>
      </trkpt>
      <trkpt lat="42.0829290" lon="-8.8904510">
        <ele>31.3</ele>
        <time>2021-05-19T11:39:15Z</time>
      </trkpt>
      <trkpt lat="42.0829300" lon="-8.8904520">
        <ele>31.3</ele>
        <time>2021-05-19T11:39:16Z</time>
      </trkpt>
      <trkpt lat="42.0829270" lon="-8.8904480">
        <ele>31.3</ele>
        <time>2021-05-19T11:39:17Z</time>
      </trkpt>
      <trkpt lat="42.0829240" lon="-8.8904460">
        <ele>31.3</ele>
        <time>2021-05-19T11:39:18Z</time>
      </trkpt>
      <trkpt lat="42.0829230" lon="-8.8904460">
        <ele>31.3</ele>
        <time>2021-05-19T11:39:19Z</time>
      </trkpt>
      <trkpt lat="42.0829230" lon="-8.8904520">
        <ele>31.3</ele>
        <time>2021-05-19T11:39:20Z</time>
      </trkpt>
      <trkpt lat="42.0829270" lon="-8.8904580">
        <ele>31.3</ele>
        <time>2021-05-19T11:39:21Z</time>
      </trkpt>
      <trkpt lat="42.0829240" lon="-8.8904580">
        <ele>31.3</ele>
        <time>2021-05-19T11:39:22Z</time>
      </trkpt>
      <trkpt lat="42.0829210" lon="-8.8904490">
        <ele>31.3</ele>
        <time>2021-05-19T11:39:23Z</time>
      </trkpt>
      <trkpt lat="42.0829230" lon="-8.8904540">
        <ele>31.3</ele>
        <time>2021-05-19T11:39:24Z</time>
      </trkpt>
      <trkpt lat="42.0829200" lon="-8.8904660">
        <ele>31.3</ele>
        <time>2021-05-19T11:39:25Z</time>
      </trkpt>
      <trkpt lat="42.0829260" lon="-8.8904630">
        <ele>31.3</ele>
        <time>2021-05-19T11:39:26Z</time>
      </trkpt>
      <trkpt lat="42.0829270" lon="-8.8904710">
        <ele>31.3</ele>
        <time>2021-05-19T11:39:27Z</time>
      </trkpt>
      <trkpt lat="42.0829260" lon="-8.8904720">
        <ele>30.3</ele>
        <time>2021-05-19T11:39:28Z</time>
      </trkpt>
      <trkpt lat="42.0829260" lon="-8.8904720">
        <ele>30.3</ele>
        <time>2021-05-19T11:39:29Z</time>
      </trkpt>
      <trkpt lat="42.0829240" lon="-8.8904910">
        <ele>30.3</ele>
        <time>2021-05-19T11:39:30Z</time>
      </trkpt>
      <trkpt lat="42.0829240" lon="-8.8904910">
        <ele>30.3</ele>
        <time>2021-05-19T11:39:31Z</time>
      </trkpt>
      <trkpt lat="42.0829240" lon="-8.8904860">
        <ele>30.3</ele>
        <time>2021-05-19T11:39:32Z</time>
      </trkpt>
      <trkpt lat="42.0829240" lon="-8.8904860">
        <ele>30.3</ele>
        <time>2021-05-19T11:39:33Z</time>
      </trkpt>
      <trkpt lat="42.0829240" lon="-8.8904860">
        <ele>30.3</ele>
        <time>2021-05-19T11:39:34Z</time>
      </trkpt>
      <trkpt lat="42.0829240" lon="-8.8905040">
        <ele>30.3</ele>
        <time>2021-05-19T11:39:35Z</time>
      </trkpt>
      <trkpt lat="42.0829190" lon="-8.8905010">
        <ele>30.3</ele>
        <time>2021-05-19T11:39:36Z</time>
      </trkpt>
      <trkpt lat="42.0829180" lon="-8.8905000">
        <ele>30.3</ele>
        <time>2021-05-19T11:39:37Z</time>
      </trkpt>
      <trkpt lat="42.0829180" lon="-8.8904970">
        <ele>30.3</ele>
        <time>2021-05-19T11:39:38Z</time>
      </trkpt>
      <trkpt lat="42.0829170" lon="-8.8904950">
        <ele>30.3</ele>
        <time>2021-05-19T11:39:39Z</time>
      </trkpt>
      <trkpt lat="42.0829180" lon="-8.8904940">
        <ele>30.3</ele>
        <time>2021-05-19T11:39:40Z</time>
      </trkpt>
      <trkpt lat="42.0829200" lon="-8.8904950">
        <ele>30.3</ele>
        <time>2021-05-19T11:39:41Z</time>
      </trkpt>
      <trkpt lat="42.0829190" lon="-8.8904920">
        <ele>30.3</ele>
        <time>2021-05-19T11:39:42Z</time>
      </trkpt>
      <trkpt lat="42.0829160" lon="-8.8904890">
        <ele>30.3</ele>
        <time>2021-05-19T11:39:43Z</time>
      </trkpt>
      <trkpt lat="42.0829140" lon="-8.8904850">
        <ele>30.3</ele>
        <time>2021-05-19T11:39:44Z</time>
      </trkpt>
      <trkpt lat="42.0829050" lon="-8.8904840">
        <ele>30.3</ele>
        <time>2021-05-19T11:39:45Z</time>
      </trkpt>
      <trkpt lat="42.0829080" lon="-8.8904850">
        <ele>30.3</ele>
        <time>2021-05-19T11:39:46Z</time>
      </trkpt>
      <trkpt lat="42.0829120" lon="-8.8904790">
        <ele>30.3</ele>
        <time>2021-05-19T11:39:47Z</time>
      </trkpt>
      <trkpt lat="42.0829110" lon="-8.8904750">
        <ele>30.3</ele>
        <time>2021-05-19T11:39:48Z</time>
      </trkpt>
      <trkpt lat="42.0829050" lon="-8.8904730">
        <ele>30.3</ele>
        <time>2021-05-19T11:39:49Z</time>
      </trkpt>
      <trkpt lat="42.0829030" lon="-8.8904740">
        <ele>30.0</ele>
        <time>2021-05-19T11:39:50Z</time>
      </trkpt>
      <trkpt lat="42.0829040" lon="-8.8904740">
        <ele>30.0</ele>
        <time>2021-05-19T11:39:51Z</time>
      </trkpt>
      <trkpt lat="42.0829040" lon="-8.8904650">
        <ele>31.1</ele>
        <time>2021-05-19T11:39:52Z</time>
      </trkpt>
      <trkpt lat="42.0829050" lon="-8.8904650">
        <ele>31.3</ele>
        <time>2021-05-19T11:39:53Z</time>
      </trkpt>
      <trkpt lat="42.0829050" lon="-8.8904640">
        <ele>31.3</ele>
        <time>2021-05-19T11:39:54Z</time>
      </trkpt>
      <trkpt lat="42.0829070" lon="-8.8904640">
        <ele>31.3</ele>
        <time>2021-05-19T11:39:55Z</time>
      </trkpt>
      <trkpt lat="42.0829090" lon="-8.8904660">
        <ele>31.3</ele>
        <time>2021-05-19T11:39:56Z</time>
      </trkpt>
      <trkpt lat="42.0829130" lon="-8.8904630">
        <ele>31.3</ele>
        <time>2021-05-19T11:39:57Z</time>
      </trkpt>
      <trkpt lat="42.0829190" lon="-8.8904660">
        <ele>31.3</ele>
        <time>2021-05-19T11:39:58Z</time>
      </trkpt>
      <trkpt lat="42.0829190" lon="-8.8904700">
        <ele>31.3</ele>
        <time>2021-05-19T11:39:59Z</time>
      </trkpt>
      <trkpt lat="42.0829190" lon="-8.8904630">
        <ele>31.3</ele>
        <time>2021-05-19T11:40:00Z</time>
      </trkpt>
      <trkpt lat="42.0829190" lon="-8.8904630">
        <ele>31.3</ele>
        <time>2021-05-19T11:40:01Z</time>
      </trkpt>
      <trkpt lat="42.0829320" lon="-8.8904600">
        <ele>31.3</ele>
        <time>2021-05-19T11:40:02Z</time>
      </trkpt>
      <trkpt lat="42.0829340" lon="-8.8904580">
        <ele>31.3</ele>
        <time>2021-05-19T11:40:03Z</time>
      </trkpt>
      <trkpt lat="42.0829330" lon="-8.8904600">
        <ele>31.3</ele>
        <time>2021-05-19T11:40:04Z</time>
      </trkpt>
      <trkpt lat="42.0829300" lon="-8.8904600">
        <ele>31.3</ele>
        <time>2021-05-19T11:40:05Z</time>
      </trkpt>
      <trkpt lat="42.0829210" lon="-8.8904520">
        <ele>31.3</ele>
        <time>2021-05-19T11:40:06Z</time>
      </trkpt>
      <trkpt lat="42.0829210" lon="-8.8904490">
        <ele>31.3</ele>
        <time>2021-05-19T11:40:07Z</time>
      </trkpt>
      <trkpt lat="42.0829220" lon="-8.8904530">
        <ele>31.3</ele>
        <time>2021-05-19T11:40:08Z</time>
      </trkpt>
      <trkpt lat="42.0829170" lon="-8.8904530">
        <ele>31.3</ele>
        <time>2021-05-19T11:40:09Z</time>
      </trkpt>
      <trkpt lat="42.0829160" lon="-8.8904540">
        <ele>31.3</ele>
        <time>2021-05-19T11:40:10Z</time>
      </trkpt>
      <trkpt lat="42.0829080" lon="-8.8904540">
        <ele>31.3</ele>
        <time>2021-05-19T11:40:11Z</time>
      </trkpt>
      <trkpt lat="42.0829060" lon="-8.8904590">
        <ele>31.3</ele>
        <time>2021-05-19T11:40:12Z</time>
      </trkpt>
      <trkpt lat="42.0829080" lon="-8.8904610">
        <ele>31.3</ele>
        <time>2021-05-19T11:40:13Z</time>
      </trkpt>
      <trkpt lat="42.0829030" lon="-8.8904570">
        <ele>31.1</ele>
        <time>2021-05-19T11:40:14Z</time>
      </trkpt>
      <trkpt lat="42.0828950" lon="-8.8904520">
        <ele>31.1</ele>
        <time>2021-05-19T11:40:15Z</time>
      </trkpt>
      <trkpt lat="42.0828880" lon="-8.8904540">
        <ele>31.1</ele>
        <time>2021-05-19T11:40:16Z</time>
      </trkpt>
      <trkpt lat="42.0828930" lon="-8.8904590">
        <ele>31.1</ele>
        <time>2021-05-19T11:40:17Z</time>
      </trkpt>
      <trkpt lat="42.0828990" lon="-8.8904550">
        <ele>31.1</ele>
        <time>2021-05-19T11:40:18Z</time>
      </trkpt>
      <trkpt lat="42.0829000" lon="-8.8904470">
        <ele>31.1</ele>
        <time>2021-05-19T11:40:19Z</time>
      </trkpt>
      <trkpt lat="42.0829020" lon="-8.8904550">
        <ele>31.1</ele>
        <time>2021-05-19T11:40:20Z</time>
      </trkpt>
      <trkpt lat="42.0829020" lon="-8.8904550">
        <ele>31.1</ele>
        <time>2021-05-19T11:40:21Z</time>
      </trkpt>
      <trkpt lat="42.0829110" lon="-8.8904440">
        <ele>31.3</ele>
        <time>2021-05-19T11:40:22Z</time>
      </trkpt>
      <trkpt lat="42.0829150" lon="-8.8904410">
        <ele>31.3</ele>
        <time>2021-05-19T11:40:23Z</time>
      </trkpt>
      <trkpt lat="42.0829110" lon="-8.8904420">
        <ele>31.3</ele>
        <time>2021-05-19T11:40:24Z</time>
      </trkpt>
      <trkpt lat="42.0829030" lon="-8.8904390">
        <ele>31.1</ele>
        <time>2021-05-19T11:40:25Z</time>
      </trkpt>
      <trkpt lat="42.0829030" lon="-8.8904380">
        <ele>31.1</ele>
        <time>2021-05-19T11:40:26Z</time>
      </trkpt>
      <trkpt lat="42.0829010" lon="-8.8904430">
        <ele>31.1</ele>
        <time>2021-05-19T11:40:27Z</time>
      </trkpt>
      <trkpt lat="42.0828970" lon="-8.8904420">
        <ele>31.1</ele>
        <time>2021-05-19T11:40:28Z</time>
      </trkpt>
      <trkpt lat="42.0828930" lon="-8.8904460">
        <ele>31.1</ele>
        <time>2021-05-19T11:40:29Z</time>
      </trkpt>
      <trkpt lat="42.0828990" lon="-8.8904480">
        <ele>31.1</ele>
        <time>2021-05-19T11:40:30Z</time>
      </trkpt>
      <trkpt lat="42.0829050" lon="-8.8904510">
        <ele>31.3</ele>
        <time>2021-05-19T11:40:31Z</time>
      </trkpt>
      <trkpt lat="42.0829100" lon="-8.8904540">
        <ele>31.3</ele>
        <time>2021-05-19T11:40:32Z</time>
      </trkpt>
      <trkpt lat="42.0829180" lon="-8.8904580">
        <ele>31.3</ele>
        <time>2021-05-19T11:40:33Z</time>
      </trkpt>
      <trkpt lat="42.0829240" lon="-8.8904580">
        <ele>31.3</ele>
        <time>2021-05-19T11:40:34Z</time>
      </trkpt>
      <trkpt lat="42.0829290" lon="-8.8904640">
        <ele>31.3</ele>
        <time>2021-05-19T11:40:35Z</time>
      </trkpt>
      <trkpt lat="42.0829330" lon="-8.8904550">
        <ele>31.3</ele>
        <time>2021-05-19T11:40:36Z</time>
      </trkpt>
      <trkpt lat="42.0829320" lon="-8.8904510">
        <ele>31.3</ele>
        <time>2021-05-19T11:40:37Z</time>
      </trkpt>
      <trkpt lat="42.0829360" lon="-8.8904510">
        <ele>31.5</ele>
        <time>2021-05-19T11:40:38Z</time>
      </trkpt>
      <trkpt lat="42.0829240" lon="-8.8904500">
        <ele>31.3</ele>
        <time>2021-05-19T11:40:39Z</time>
      </trkpt>
      <trkpt lat="42.0829220" lon="-8.8904550">
        <ele>31.3</ele>
        <time>2021-05-19T11:40:40Z</time>
      </trkpt>
      <trkpt lat="42.0829180" lon="-8.8904530">
        <ele>31.3</ele>
        <time>2021-05-19T11:40:41Z</time>
      </trkpt>
      <trkpt lat="42.0829170" lon="-8.8904450">
        <ele>31.3</ele>
        <time>2021-05-19T11:40:42Z</time>
      </trkpt>
      <trkpt lat="42.0829130" lon="-8.8904430">
        <ele>31.3</ele>
        <time>2021-05-19T11:40:43Z</time>
      </trkpt>
      <trkpt lat="42.0829150" lon="-8.8904420">
        <ele>31.3</ele>
        <time>2021-05-19T11:40:44Z</time>
      </trkpt>
      <trkpt lat="42.0829090" lon="-8.8904470">
        <ele>31.3</ele>
        <time>2021-05-19T11:40:45Z</time>
      </trkpt>
      <trkpt lat="42.0829140" lon="-8.8904470">
        <ele>31.3</ele>
        <time>2021-05-19T11:40:46Z</time>
      </trkpt>
      <trkpt lat="42.0829190" lon="-8.8904530">
        <ele>31.3</ele>
        <time>2021-05-19T11:40:47Z</time>
      </trkpt>
      <trkpt lat="42.0829190" lon="-8.8904570">
        <ele>31.3</ele>
        <time>2021-05-19T11:40:48Z</time>
      </trkpt>
      <trkpt lat="42.0829200" lon="-8.8904570">
        <ele>31.3</ele>
        <time>2021-05-19T11:40:49Z</time>
      </trkpt>
      <trkpt lat="42.0829180" lon="-8.8904590">
        <ele>31.3</ele>
        <time>2021-05-19T11:40:50Z</time>
      </trkpt>
      <trkpt lat="42.0829180" lon="-8.8904630">
        <ele>31.3</ele>
        <time>2021-05-19T11:40:51Z</time>
      </trkpt>
      <trkpt lat="42.0829160" lon="-8.8904590">
        <ele>31.3</ele>
        <time>2021-05-19T11:40:52Z</time>
      </trkpt>
      <trkpt lat="42.0829170" lon="-8.8904520">
        <ele>31.3</ele>
        <time>2021-05-19T11:40:53Z</time>
      </trkpt>
      <trkpt lat="42.0829190" lon="-8.8904570">
        <ele>31.3</ele>
        <time>2021-05-19T11:40:54Z</time>
      </trkpt>
      <trkpt lat="42.0829200" lon="-8.8904420">
        <ele>31.3</ele>
        <time>2021-05-19T11:40:55Z</time>
      </trkpt>
      <trkpt lat="42.0829220" lon="-8.8904380">
        <ele>31.3</ele>
        <time>2021-05-19T11:40:56Z</time>
      </trkpt>
      <trkpt lat="42.0829200" lon="-8.8904390">
        <ele>31.3</ele>
        <time>2021-05-19T11:40:57Z</time>
      </trkpt>
      <trkpt lat="42.0829180" lon="-8.8904380">
        <ele>31.3</ele>
        <time>2021-05-19T11:40:58Z</time>
      </trkpt>
      <trkpt lat="42.0829180" lon="-8.8904390">
        <ele>31.3</ele>
        <time>2021-05-19T11:40:59Z</time>
      </trkpt>
      <trkpt lat="42.0829170" lon="-8.8904460">
        <ele>31.3</ele>
        <time>2021-05-19T11:41:00Z</time>
      </trkpt>
      <trkpt lat="42.0829150" lon="-8.8904460">
        <ele>31.3</ele>
        <time>2021-05-19T11:41:01Z</time>
      </trkpt>
      <trkpt lat="42.0829160" lon="-8.8904420">
        <ele>31.3</ele>
        <time>2021-05-19T11:41:02Z</time>
      </trkpt>
      <trkpt lat="42.0829160" lon="-8.8904430">
        <ele>31.3</ele>
        <time>2021-05-19T11:41:03Z</time>
      </trkpt>
      <trkpt lat="42.0829160" lon="-8.8904380">
        <ele>31.3</ele>
        <time>2021-05-19T11:41:04Z</time>
      </trkpt>
      <trkpt lat="42.0829170" lon="-8.8904410">
        <ele>31.3</ele>
        <time>2021-05-19T11:41:05Z</time>
      </trkpt>
      <trkpt lat="42.0829170" lon="-8.8904360">
        <ele>31.3</ele>
        <time>2021-05-19T11:41:06Z</time>
      </trkpt>
      <trkpt lat="42.0829150" lon="-8.8904330">
        <ele>31.3</ele>
        <time>2021-05-19T11:41:07Z</time>
      </trkpt>
      <trkpt lat="42.0829180" lon="-8.8904390">
        <ele>31.3</ele>
        <time>2021-05-19T11:41:08Z</time>
      </trkpt>
      <trkpt lat="42.0829180" lon="-8.8904360">
        <ele>31.3</ele>
        <time>2021-05-19T11:41:09Z</time>
      </trkpt>
      <trkpt lat="42.0829200" lon="-8.8904290">
        <ele>31.3</ele>
        <time>2021-05-19T11:41:10Z</time>
      </trkpt>
      <trkpt lat="42.0829180" lon="-8.8904280">
        <ele>32.3</ele>
        <time>2021-05-19T11:41:11Z</time>
      </trkpt>
      <trkpt lat="42.0829200" lon="-8.8904290">
        <ele>31.3</ele>
        <time>2021-05-19T11:41:12Z</time>
      </trkpt>
      <trkpt lat="42.0829250" lon="-8.8904280">
        <ele>32.3</ele>
        <time>2021-05-19T11:41:13Z</time>
      </trkpt>
      <trkpt lat="42.0829220" lon="-8.8904360">
        <ele>31.3</ele>
        <time>2021-05-19T11:41:14Z</time>
      </trkpt>
      <trkpt lat="42.0829270" lon="-8.8904290">
        <ele>31.3</ele>
        <time>2021-05-19T11:41:15Z</time>
      </trkpt>
      <trkpt lat="42.0829300" lon="-8.8904240">
        <ele>32.3</ele>
        <time>2021-05-19T11:41:16Z</time>
      </trkpt>
      <trkpt lat="42.0829300" lon="-8.8904190">
        <ele>32.3</ele>
        <time>2021-05-19T11:41:17Z</time>
      </trkpt>
      <trkpt lat="42.0829340" lon="-8.8904170">
        <ele>32.3</ele>
        <time>2021-05-19T11:41:18Z</time>
      </trkpt>
      <trkpt lat="42.0829330" lon="-8.8904180">
        <ele>32.3</ele>
        <time>2021-05-19T11:41:19Z</time>
      </trkpt>
      <trkpt lat="42.0829330" lon="-8.8904200">
        <ele>32.3</ele>
        <time>2021-05-19T11:41:20Z</time>
      </trkpt>
      <trkpt lat="42.0829330" lon="-8.8904230">
        <ele>32.3</ele>
        <time>2021-05-19T11:41:21Z</time>
      </trkpt>
      <trkpt lat="42.0829340" lon="-8.8904260">
        <ele>32.3</ele>
        <time>2021-05-19T11:41:22Z</time>
      </trkpt>
      <trkpt lat="42.0829360" lon="-8.8904250">
        <ele>32.6</ele>
        <time>2021-05-19T11:41:23Z</time>
      </trkpt>
      <trkpt lat="42.0829390" lon="-8.8904320">
        <ele>31.5</ele>
        <time>2021-05-19T11:41:24Z</time>
      </trkpt>
      <trkpt lat="42.0829430" lon="-8.8904330">
        <ele>31.5</ele>
        <time>2021-05-19T11:41:25Z</time>
      </trkpt>
      <trkpt lat="42.0829380" lon="-8.8904360">
        <ele>31.5</ele>
        <time>2021-05-19T11:41:26Z</time>
      </trkpt>
      <trkpt lat="42.0829350" lon="-8.8904400">
        <ele>31.3</ele>
        <time>2021-05-19T11:41:27Z</time>
      </trkpt>
      <trkpt lat="42.0829360" lon="-8.8904390">
        <ele>31.5</ele>
        <time>2021-05-19T11:41:28Z</time>
      </trkpt>
      <trkpt lat="42.0829350" lon="-8.8904390">
        <ele>31.3</ele>
        <time>2021-05-19T11:41:29Z</time>
      </trkpt>
      <trkpt lat="42.0829310" lon="-8.8904300">
        <ele>31.3</ele>
        <time>2021-05-19T11:41:30Z</time>
      </trkpt>
      <trkpt lat="42.0829290" lon="-8.8904310">
        <ele>31.3</ele>
        <time>2021-05-19T11:41:31Z</time>
      </trkpt>
      <trkpt lat="42.0829240" lon="-8.8904360">
        <ele>31.3</ele>
        <time>2021-05-19T11:41:32Z</time>
      </trkpt>
      <trkpt lat="42.0829080" lon="-8.8904420">
        <ele>31.3</ele>
        <time>2021-05-19T11:41:33Z</time>
      </trkpt>
      <trkpt lat="42.0829040" lon="-8.8904480">
        <ele>31.1</ele>
        <time>2021-05-19T11:41:34Z</time>
      </trkpt>
      <trkpt lat="42.0829040" lon="-8.8904450">
        <ele>31.1</ele>
        <time>2021-05-19T11:41:35Z</time>
      </trkpt>
      <trkpt lat="42.0829010" lon="-8.8904440">
        <ele>31.1</ele>
        <time>2021-05-19T11:41:36Z</time>
      </trkpt>
      <trkpt lat="42.0829030" lon="-8.8904430">
        <ele>31.1</ele>
        <time>2021-05-19T11:41:37Z</time>
      </trkpt>
      <trkpt lat="42.0829030" lon="-8.8904450">
        <ele>31.1</ele>
        <time>2021-05-19T11:41:38Z</time>
      </trkpt>
      <trkpt lat="42.0828980" lon="-8.8904510">
        <ele>31.1</ele>
        <time>2021-05-19T11:41:39Z</time>
      </trkpt>
      <trkpt lat="42.0828980" lon="-8.8904500">
        <ele>31.1</ele>
        <time>2021-05-19T11:41:40Z</time>
      </trkpt>
      <trkpt lat="42.0829040" lon="-8.8904430">
        <ele>31.1</ele>
        <time>2021-05-19T11:41:41Z</time>
      </trkpt>
      <trkpt lat="42.0829080" lon="-8.8904340">
        <ele>31.3</ele>
        <time>2021-05-19T11:41:42Z</time>
      </trkpt>
      <trkpt lat="42.0829080" lon="-8.8904230">
        <ele>32.3</ele>
        <time>2021-05-19T11:41:43Z</time>
      </trkpt>
      <trkpt lat="42.0829150" lon="-8.8904140">
        <ele>32.3</ele>
        <time>2021-05-19T11:41:44Z</time>
      </trkpt>
      <trkpt lat="42.0829160" lon="-8.8904140">
        <ele>32.3</ele>
        <time>2021-05-19T11:41:45Z</time>
      </trkpt>
      <trkpt lat="42.0829180" lon="-8.8904150">
        <ele>32.3</ele>
        <time>2021-05-19T11:41:46Z</time>
      </trkpt>
      <trkpt lat="42.0829230" lon="-8.8904130">
        <ele>32.3</ele>
        <time>2021-05-19T11:41:47Z</time>
      </trkpt>
      <trkpt lat="42.0829280" lon="-8.8904110">
        <ele>32.3</ele>
        <time>2021-05-19T11:41:48Z</time>
      </trkpt>
      <trkpt lat="42.0829280" lon="-8.8904110">
        <ele>32.3</ele>
        <time>2021-05-19T11:41:49Z</time>
      </trkpt>
      <trkpt lat="42.0829330" lon="-8.8904090">
        <ele>32.3</ele>
        <time>2021-05-19T11:41:50Z</time>
      </trkpt>
      <trkpt lat="42.0829360" lon="-8.8904060">
        <ele>32.6</ele>
        <time>2021-05-19T11:41:51Z</time>
      </trkpt>
      <trkpt lat="42.0829460" lon="-8.8904020">
        <ele>32.6</ele>
        <time>2021-05-19T11:41:52Z</time>
      </trkpt>
      <trkpt lat="42.0829440" lon="-8.8904030">
        <ele>32.6</ele>
        <time>2021-05-19T11:41:53Z</time>
      </trkpt>
      <trkpt lat="42.0829390" lon="-8.8904070">
        <ele>32.6</ele>
        <time>2021-05-19T11:41:54Z</time>
      </trkpt>
      <trkpt lat="42.0829290" lon="-8.8904120">
        <ele>32.3</ele>
        <time>2021-05-19T11:41:55Z</time>
      </trkpt>
      <trkpt lat="42.0829270" lon="-8.8904190">
        <ele>32.3</ele>
        <time>2021-05-19T11:41:56Z</time>
      </trkpt>
      <trkpt lat="42.0829390" lon="-8.8904100">
        <ele>32.6</ele>
        <time>2021-05-19T11:41:57Z</time>
      </trkpt>
      <trkpt lat="42.0829460" lon="-8.8904080">
        <ele>32.6</ele>
        <time>2021-05-19T11:41:58Z</time>
      </trkpt>
      <trkpt lat="42.0829480" lon="-8.8904150">
        <ele>32.6</ele>
        <time>2021-05-19T11:41:59Z</time>
      </trkpt>
      <trkpt lat="42.0829380" lon="-8.8904230">
        <ele>32.6</ele>
        <time>2021-05-19T11:42:00Z</time>
      </trkpt>
      <trkpt lat="42.0829370" lon="-8.8904240">
        <ele>32.6</ele>
        <time>2021-05-19T11:42:01Z</time>
      </trkpt>
      <trkpt lat="42.0829490" lon="-8.8904440">
        <ele>31.5</ele>
        <time>2021-05-19T11:42:02Z</time>
      </trkpt>
      <trkpt lat="42.0829560" lon="-8.8904480">
        <ele>31.5</ele>
        <time>2021-05-19T11:42:03Z</time>
      </trkpt>
      <trkpt lat="42.0829480" lon="-8.8904480">
        <ele>31.5</ele>
        <time>2021-05-19T11:42:04Z</time>
      </trkpt>
      <trkpt lat="42.0829490" lon="-8.8904520">
        <ele>31.5</ele>
        <time>2021-05-19T11:42:05Z</time>
      </trkpt>
      <trkpt lat="42.0829470" lon="-8.8904500">
        <ele>31.5</ele>
        <time>2021-05-19T11:42:06Z</time>
      </trkpt>
      <trkpt lat="42.0829450" lon="-8.8904540">
        <ele>31.5</ele>
        <time>2021-05-19T11:42:07Z</time>
      </trkpt>
      <trkpt lat="42.0829420" lon="-8.8904530">
        <ele>31.5</ele>
        <time>2021-05-19T11:42:08Z</time>
      </trkpt>
      <trkpt lat="42.0829420" lon="-8.8904500">
        <ele>31.5</ele>
        <time>2021-05-19T11:42:09Z</time>
      </trkpt>
      <trkpt lat="42.0829420" lon="-8.8904540">
        <ele>31.5</ele>
        <time>2021-05-19T11:42:10Z</time>
      </trkpt>
      <trkpt lat="42.0829360" lon="-8.8904550">
        <ele>31.5</ele>
        <time>2021-05-19T11:42:11Z</time>
      </trkpt>
      <trkpt lat="42.0829360" lon="-8.8904500">
        <ele>31.5</ele>
        <time>2021-05-19T11:42:12Z</time>
      </trkpt>
      <trkpt lat="42.0829360" lon="-8.8904480">
        <ele>31.5</ele>
        <time>2021-05-19T11:42:13Z</time>
      </trkpt>
      <trkpt lat="42.0829280" lon="-8.8904510">
        <ele>31.3</ele>
        <time>2021-05-19T11:42:14Z</time>
      </trkpt>
      <trkpt lat="42.0829310" lon="-8.8904570">
        <ele>31.3</ele>
        <time>2021-05-19T11:42:15Z</time>
      </trkpt>
      <trkpt lat="42.0829230" lon="-8.8904510">
        <ele>31.3</ele>
        <time>2021-05-19T11:42:16Z</time>
      </trkpt>
      <trkpt lat="42.0829130" lon="-8.8904510">
        <ele>31.3</ele>
        <time>2021-05-19T11:42:17Z</time>
      </trkpt>
      <trkpt lat="42.0829140" lon="-8.8904500">
        <ele>31.3</ele>
        <time>2021-05-19T11:42:18Z</time>
      </trkpt>
      <trkpt lat="42.0829170" lon="-8.8904430">
        <ele>31.3</ele>
        <time>2021-05-19T11:42:19Z</time>
      </trkpt>
      <trkpt lat="42.0829180" lon="-8.8904370">
        <ele>31.3</ele>
        <time>2021-05-19T11:42:20Z</time>
      </trkpt>
      <trkpt lat="42.0829180" lon="-8.8904340">
        <ele>31.3</ele>
        <time>2021-05-19T11:42:21Z</time>
      </trkpt>
      <trkpt lat="42.0829080" lon="-8.8904340">
        <ele>31.3</ele>
        <time>2021-05-19T11:42:22Z</time>
      </trkpt>
      <trkpt lat="42.0829060" lon="-8.8904310">
        <ele>31.3</ele>
        <time>2021-05-19T11:42:23Z</time>
      </trkpt>
      <trkpt lat="42.0829110" lon="-8.8904340">
        <ele>31.3</ele>
        <time>2021-05-19T11:42:24Z</time>
      </trkpt>
      <trkpt lat="42.0829080" lon="-8.8904350">
        <ele>31.3</ele>
        <time>2021-05-19T11:42:25Z</time>
      </trkpt>
      <trkpt lat="42.0829110" lon="-8.8904240">
        <ele>32.3</ele>
        <time>2021-05-19T11:42:26Z</time>
      </trkpt>
      <trkpt lat="42.0829060" lon="-8.8904270">
        <ele>32.3</ele>
        <time>2021-05-19T11:42:27Z</time>
      </trkpt>
      <trkpt lat="42.0829100" lon="-8.8904270">
        <ele>32.3</ele>
        <time>2021-05-19T11:42:28Z</time>
      </trkpt>
      <trkpt lat="42.0829060" lon="-8.8904250">
        <ele>32.3</ele>
        <time>2021-05-19T11:42:29Z</time>
      </trkpt>
      <trkpt lat="42.0829040" lon="-8.8904250">
        <ele>32.1</ele>
        <time>2021-05-19T11:42:30Z</time>
      </trkpt>
      <trkpt lat="42.0828950" lon="-8.8904200">
        <ele>32.1</ele>
        <time>2021-05-19T11:42:31Z</time>
      </trkpt>
      <trkpt lat="42.0828960" lon="-8.8904150">
        <ele>32.1</ele>
        <time>2021-05-19T11:42:32Z</time>
      </trkpt>
      <trkpt lat="42.0829020" lon="-8.8904120">
        <ele>32.1</ele>
        <time>2021-05-19T11:42:33Z</time>
      </trkpt>
      <trkpt lat="42.0829140" lon="-8.8904080">
        <ele>32.3</ele>
        <time>2021-05-19T11:42:34Z</time>
      </trkpt>
      <trkpt lat="42.0829060" lon="-8.8904120">
        <ele>32.3</ele>
        <time>2021-05-19T11:42:35Z</time>
      </trkpt>
      <trkpt lat="42.0829080" lon="-8.8904140">
        <ele>32.3</ele>
        <time>2021-05-19T11:42:36Z</time>
      </trkpt>
      <trkpt lat="42.0829110" lon="-8.8904180">
        <ele>32.3</ele>
        <time>2021-05-19T11:42:37Z</time>
      </trkpt>
      <trkpt lat="42.0829040" lon="-8.8904250">
        <ele>32.1</ele>
        <time>2021-05-19T11:42:38Z</time>
      </trkpt>
      <trkpt lat="42.0828990" lon="-8.8904340">
        <ele>31.1</ele>
        <time>2021-05-19T11:42:39Z</time>
      </trkpt>
      <trkpt lat="42.0828980" lon="-8.8904390">
        <ele>31.1</ele>
        <time>2021-05-19T11:42:40Z</time>
      </trkpt>
      <trkpt lat="42.0828880" lon="-8.8904360">
        <ele>31.1</ele>
        <time>2021-05-19T11:42:41Z</time>
      </trkpt>
      <trkpt lat="42.0828960" lon="-8.8904430">
        <ele>31.1</ele>
        <time>2021-05-19T11:42:42Z</time>
      </trkpt>
      <trkpt lat="42.0829020" lon="-8.8904410">
        <ele>31.1</ele>
        <time>2021-05-19T11:42:43Z</time>
      </trkpt>
      <trkpt lat="42.0828980" lon="-8.8904220">
        <ele>32.1</ele>
        <time>2021-05-19T11:42:44Z</time>
      </trkpt>
      <trkpt lat="42.0828930" lon="-8.8904190">
        <ele>32.1</ele>
        <time>2021-05-19T11:42:45Z</time>
      </trkpt>
      <trkpt lat="42.0828950" lon="-8.8904150">
        <ele>32.1</ele>
        <time>2021-05-19T11:42:46Z</time>
      </trkpt>
      <trkpt lat="42.0828970" lon="-8.8904120">
        <ele>32.1</ele>
        <time>2021-05-19T11:42:47Z</time>
      </trkpt>
      <trkpt lat="42.0829000" lon="-8.8904120">
        <ele>32.1</ele>
        <time>2021-05-19T11:42:48Z</time>
      </trkpt>
      <trkpt lat="42.0829010" lon="-8.8904160">
        <ele>32.1</ele>
        <time>2021-05-19T11:42:49Z</time>
      </trkpt>
      <trkpt lat="42.0829020" lon="-8.8904090">
        <ele>32.1</ele>
        <time>2021-05-19T11:42:50Z</time>
      </trkpt>
      <trkpt lat="42.0829070" lon="-8.8904070">
        <ele>32.3</ele>
        <time>2021-05-19T11:42:51Z</time>
      </trkpt>
      <trkpt lat="42.0829120" lon="-8.8904050">
        <ele>32.3</ele>
        <time>2021-05-19T11:42:52Z</time>
      </trkpt>
      <trkpt lat="42.0829150" lon="-8.8904010">
        <ele>32.3</ele>
        <time>2021-05-19T11:42:53Z</time>
      </trkpt>
      <trkpt lat="42.0829160" lon="-8.8904030">
        <ele>32.3</ele>
        <time>2021-05-19T11:42:54Z</time>
      </trkpt>
      <trkpt lat="42.0829120" lon="-8.8904040">
        <ele>32.3</ele>
        <time>2021-05-19T11:42:55Z</time>
      </trkpt>
      <trkpt lat="42.0829090" lon="-8.8904050">
        <ele>32.3</ele>
        <time>2021-05-19T11:42:56Z</time>
      </trkpt>
      <trkpt lat="42.0829100" lon="-8.8904050">
        <ele>32.3</ele>
        <time>2021-05-19T11:42:57Z</time>
      </trkpt>
      <trkpt lat="42.0829100" lon="-8.8904040">
        <ele>32.3</ele>
        <time>2021-05-19T11:42:58Z</time>
      </trkpt>
      <trkpt lat="42.0829090" lon="-8.8904010">
        <ele>32.3</ele>
        <time>2021-05-19T11:42:59Z</time>
      </trkpt>
      <trkpt lat="42.0829080" lon="-8.8903970">
        <ele>32.3</ele>
        <time>2021-05-19T11:43:00Z</time>
      </trkpt>
      <trkpt lat="42.0829120" lon="-8.8903940">
        <ele>32.3</ele>
        <time>2021-05-19T11:43:01Z</time>
      </trkpt>
      <trkpt lat="42.0829080" lon="-8.8903900">
        <ele>32.3</ele>
        <time>2021-05-19T11:43:02Z</time>
      </trkpt>
      <trkpt lat="42.0829080" lon="-8.8903960">
        <ele>32.3</ele>
        <time>2021-05-19T11:43:03Z</time>
      </trkpt>
      <trkpt lat="42.0829080" lon="-8.8903950">
        <ele>32.3</ele>
        <time>2021-05-19T11:43:04Z</time>
      </trkpt>
      <trkpt lat="42.0829060" lon="-8.8903970">
        <ele>32.3</ele>
        <time>2021-05-19T11:43:05Z</time>
      </trkpt>
      <trkpt lat="42.0829050" lon="-8.8903980">
        <ele>32.3</ele>
        <time>2021-05-19T11:43:06Z</time>
      </trkpt>
      <trkpt lat="42.0829090" lon="-8.8903970">
        <ele>32.3</ele>
        <time>2021-05-19T11:43:07Z</time>
      </trkpt>
      <trkpt lat="42.0829080" lon="-8.8903930">
        <ele>32.3</ele>
        <time>2021-05-19T11:43:08Z</time>
      </trkpt>
      <trkpt lat="42.0829080" lon="-8.8903890">
        <ele>32.3</ele>
        <time>2021-05-19T11:43:09Z</time>
      </trkpt>
      <trkpt lat="42.0829120" lon="-8.8903900">
        <ele>32.3</ele>
        <time>2021-05-19T11:43:10Z</time>
      </trkpt>
      <trkpt lat="42.0829120" lon="-8.8903900">
        <ele>32.3</ele>
        <time>2021-05-19T11:43:11Z</time>
      </trkpt>
      <trkpt lat="42.0829120" lon="-8.8903930">
        <ele>32.3</ele>
        <time>2021-05-19T11:43:12Z</time>
      </trkpt>
      <trkpt lat="42.0829120" lon="-8.8903950">
        <ele>32.3</ele>
        <time>2021-05-19T11:43:13Z</time>
      </trkpt>
      <trkpt lat="42.0829120" lon="-8.8903980">
        <ele>32.3</ele>
        <time>2021-05-19T11:43:14Z</time>
      </trkpt>
      <trkpt lat="42.0829120" lon="-8.8904000">
        <ele>32.3</ele>
        <time>2021-05-19T11:43:15Z</time>
      </trkpt>
      <trkpt lat="42.0829130" lon="-8.8904030">
        <ele>32.3</ele>
        <time>2021-05-19T11:43:16Z</time>
      </trkpt>
      <trkpt lat="42.0829130" lon="-8.8904050">
        <ele>32.3</ele>
        <time>2021-05-19T11:43:17Z</time>
      </trkpt>
      <trkpt lat="42.0829130" lon="-8.8904080">
        <ele>32.3</ele>
        <time>2021-05-19T11:43:18Z</time>
      </trkpt>
      <trkpt lat="42.0829130" lon="-8.8904100">
        <ele>32.3</ele>
        <time>2021-05-19T11:43:19Z</time>
      </trkpt>
      <trkpt lat="42.0829130" lon="-8.8904130">
        <ele>32.3</ele>
        <time>2021-05-19T11:43:20Z</time>
      </trkpt>
      <trkpt lat="42.0829130" lon="-8.8904150">
        <ele>32.3</ele>
        <time>2021-05-19T11:43:21Z</time>
      </trkpt>
      <trkpt lat="42.0829130" lon="-8.8904170">
        <ele>32.3</ele>
        <time>2021-05-19T11:43:22Z</time>
      </trkpt>
      <trkpt lat="42.0829130" lon="-8.8904200">
        <ele>32.3</ele>
        <time>2021-05-19T11:43:23Z</time>
      </trkpt>
      <trkpt lat="42.0829130" lon="-8.8904220">
        <ele>32.3</ele>
        <time>2021-05-19T11:43:24Z</time>
      </trkpt>
      <trkpt lat="42.0829130" lon="-8.8904250">
        <ele>32.3</ele>
        <time>2021-05-19T11:43:25Z</time>
      </trkpt>
      <trkpt lat="42.0829130" lon="-8.8904270">
        <ele>32.3</ele>
        <time>2021-05-19T11:43:26Z</time>
      </trkpt>
      <trkpt lat="42.0829140" lon="-8.8904300">
        <ele>31.3</ele>
        <time>2021-05-19T11:43:27Z</time>
      </trkpt>
      <trkpt lat="42.0829140" lon="-8.8904320">
        <ele>31.3</ele>
        <time>2021-05-19T11:43:28Z</time>
      </trkpt>
      <trkpt lat="42.0829140" lon="-8.8904350">
        <ele>31.3</ele>
        <time>2021-05-19T11:43:29Z</time>
      </trkpt>
      <trkpt lat="42.0829140" lon="-8.8904370">
        <ele>31.3</ele>
        <time>2021-05-19T11:43:30Z</time>
      </trkpt>
      <trkpt lat="42.0829140" lon="-8.8904400">
        <ele>31.3</ele>
        <time>2021-05-19T11:43:31Z</time>
      </trkpt>
      <trkpt lat="42.0829140" lon="-8.8904420">
        <ele>31.3</ele>
        <time>2021-05-19T11:43:32Z</time>
      </trkpt>
      <trkpt lat="42.0829140" lon="-8.8904440">
        <ele>31.3</ele>
        <time>2021-05-19T11:43:33Z</time>
      </trkpt>
      <trkpt lat="42.0829140" lon="-8.8904470">
        <ele>31.3</ele>
        <time>2021-05-19T11:43:34Z</time>
      </trkpt>
      <trkpt lat="42.0829140" lon="-8.8904490">
        <ele>31.3</ele>
        <time>2021-05-19T11:43:35Z</time>
      </trkpt>
      <trkpt lat="42.0829140" lon="-8.8904520">
        <ele>31.3</ele>
        <time>2021-05-19T11:43:36Z</time>
      </trkpt>
      <trkpt lat="42.0829140" lon="-8.8904540">
        <ele>31.3</ele>
        <time>2021-05-19T11:43:37Z</time>
      </trkpt>
      <trkpt lat="42.0829150" lon="-8.8904570">
        <ele>31.3</ele>
        <time>2021-05-19T11:43:38Z</time>
      </trkpt>
      <trkpt lat="42.0829150" lon="-8.8904590">
        <ele>31.3</ele>
        <time>2021-05-19T11:43:39Z</time>
      </trkpt>
      <trkpt lat="42.0829150" lon="-8.8904620">
        <ele>31.3</ele>
        <time>2021-05-19T11:43:40Z</time>
      </trkpt>
      <trkpt lat="42.0829150" lon="-8.8904640">
        <ele>31.3</ele>
        <time>2021-05-19T11:43:41Z</time>
      </trkpt>
      <trkpt lat="42.0829150" lon="-8.8904670">
        <ele>31.3</ele>
        <time>2021-05-19T11:43:42Z</time>
      </trkpt>
      <trkpt lat="42.0829150" lon="-8.8904690">
        <ele>31.3</ele>
        <time>2021-05-19T11:43:43Z</time>
      </trkpt>
      <trkpt lat="42.0829150" lon="-8.8904710">
        <ele>31.3</ele>
        <time>2021-05-19T11:43:44Z</time>
      </trkpt>
      <trkpt lat="42.0829150" lon="-8.8904740">
        <ele>30.3</ele>
        <time>2021-05-19T11:43:45Z</time>
      </trkpt>
      <trkpt lat="42.0829150" lon="-8.8904760">
        <ele>30.3</ele>
        <time>2021-05-19T11:43:46Z</time>
      </trkpt>
      <trkpt lat="42.0829150" lon="-8.8904790">
        <ele>30.3</ele>
        <time>2021-05-19T11:43:47Z</time>
      </trkpt>
      <trkpt lat="42.0829150" lon="-8.8904810">
        <ele>30.3</ele>
        <time>2021-05-19T11:43:48Z</time>
      </trkpt>
      <trkpt lat="42.0829160" lon="-8.8904840">
        <ele>30.3</ele>
        <time>2021-05-19T11:43:49Z</time>
      </trkpt>
      <trkpt lat="42.0829160" lon="-8.8904860">
        <ele>30.3</ele>
        <time>2021-05-19T11:43:50Z</time>
      </trkpt>
      <trkpt lat="42.0829160" lon="-8.8904890">
        <ele>30.3</ele>
        <time>2021-05-19T11:43:51Z</time>
      </trkpt>
      <trkpt lat="42.0829160" lon="-8.8904910">
        <ele>30.3</ele>
        <time>2021-05-19T11:43:52Z</time>
      </trkpt>
      <trkpt lat="42.0829160" lon="-8.8904940">
        <ele>30.3</ele>
        <time>2021-05-19T11:43:53Z</time>
      </trkpt>
      <trkpt lat="42.0829160" lon="-8.8904960">
        <ele>30.3</ele>
        <time>2021-05-19T11:43:54Z</time>
      </trkpt>
      <trkpt lat="42.0829160" lon="-8.8904960">
        <ele>30.3</ele>
        <time>2021-05-19T11:43:55Z</time>
      </trkpt>
      <trkpt lat="42.0829160" lon="-8.8904960">
        <ele>30.3</ele>
        <time>2021-05-19T11:43:56Z</time>
      </trkpt>
      <trkpt lat="42.0829160" lon="-8.8904960">
        <ele>30.3</ele>
        <time>2021-05-19T11:43:57Z</time>
      </trkpt>
      <trkpt lat="42.0829160" lon="-8.8904960">
        <ele>30.3</ele>
        <time>2021-05-19T11:43:58Z</time>
      </trkpt>
      <trkpt lat="42.0829160" lon="-8.8904960">
        <ele>30.3</ele>
        <time>2021-05-19T11:43:59Z</time>
      </trkpt>
      <trkpt lat="42.0829160" lon="-8.8904960">
        <ele>30.3</ele>
        <time>2021-05-19T11:44:00Z</time>
      </trkpt>
      <trkpt lat="42.0829160" lon="-8.8904960">
        <ele>30.3</ele>
        <time>2021-05-19T11:44:01Z</time>
      </trkpt>
      <trkpt lat="42.0829160" lon="-8.8904960">
        <ele>30.3</ele>
        <time>2021-05-19T11:44:02Z</time>
      </trkpt>
      <trkpt lat="42.0829160" lon="-8.8904960">
        <ele>30.3</ele>
        <time>2021-05-19T11:44:03Z</time>
      </trkpt>
      <trkpt lat="42.0829160" lon="-8.8904960">
        <ele>30.3</ele>
        <time>2021-05-19T11:44:04Z</time>
      </trkpt>
      <trkpt lat="42.0829160" lon="-8.8904960">
        <ele>30.3</ele>
        <time>2021-05-19T11:44:05Z</time>
      </trkpt>
      <trkpt lat="42.0829160" lon="-8.8904960">
        <ele>30.3</ele>
        <time>2021-05-19T11:44:06Z</time>
      </trkpt>
      <trkpt lat="42.0829160" lon="-8.8904960">
        <ele>30.3</ele>
        <time>2021-05-19T11:44:07Z</time>
      </trkpt>
      <trkpt lat="42.0829160" lon="-8.8904960">
        <ele>30.3</ele>
        <time>2021-05-19T11:44:08Z</time>
      </trkpt>
      <trkpt lat="42.0829160" lon="-8.8904960">
        <ele>30.3</ele>
        <time>2021-05-19T11:44:09Z</time>
      </trkpt>
      <trkpt lat="42.0829160" lon="-8.8904960">
        <ele>30.3</ele>
        <time>2021-05-19T11:44:10Z</time>
      </trkpt>
      <trkpt lat="42.0829160" lon="-8.8904960">
        <ele>30.3</ele>
        <time>2021-05-19T11:44:11Z</time>
      </trkpt>
      <trkpt lat="42.0829160" lon="-8.8904960">
        <ele>30.3</ele>
        <time>2021-05-19T11:44:12Z</time>
      </trkpt>
      <trkpt lat="42.0829160" lon="-8.8904960">
        <ele>30.3</ele>
        <time>2021-05-19T11:44:13Z</time>
      </trkpt>
      <trkpt lat="42.0829160" lon="-8.8904960">
        <ele>30.3</ele>
        <time>2021-05-19T11:44:14Z</time>
      </trkpt>
      <trkpt lat="42.0829160" lon="-8.8904960">
        <ele>30.3</ele>
        <time>2021-05-19T11:44:15Z</time>
      </trkpt>
      <trkpt lat="42.0829160" lon="-8.8904960">
        <ele>30.3</ele>
        <time>2021-05-19T11:44:16Z</time>
      </trkpt>
      <trkpt lat="42.0829160" lon="-8.8904960">
        <ele>30.3</ele>
        <time>2021-05-19T11:44:17Z</time>
      </trkpt>
      <trkpt lat="42.0829160" lon="-8.8904960">
        <ele>30.3</ele>
        <time>2021-05-19T11:44:18Z</time>
      </trkpt>
      <trkpt lat="42.0829160" lon="-8.8904960">
        <ele>30.3</ele>
        <time>2021-05-19T11:44:19Z</time>
      </trkpt>
      <trkpt lat="42.0829160" lon="-8.8904960">
        <ele>30.3</ele>
        <time>2021-05-19T11:44:20Z</time>
      </trkpt>
      <trkpt lat="42.0829160" lon="-8.8904960">
        <ele>30.3</ele>
        <time>2021-05-19T11:44:21Z</time>
      </trkpt>
      <trkpt lat="42.0829160" lon="-8.8904960">
        <ele>30.3</ele>
        <time>2021-05-19T11:44:22Z</time>
      </trkpt>
      <trkpt lat="42.0829160" lon="-8.8904960">
        <ele>30.3</ele>
        <time>2021-05-19T11:44:23Z</time>
      </trkpt>
      <trkpt lat="42.0829160" lon="-8.8904960">
        <ele>30.3</ele>
        <time>2021-05-19T11:44:24Z</time>
      </trkpt>
      <trkpt lat="42.0829160" lon="-8.8904960">
        <ele>30.3</ele>
        <time>2021-05-19T11:44:25Z</time>
      </trkpt>
      <trkpt lat="42.0829160" lon="-8.8904960">
        <ele>30.3</ele>
        <time>2021-05-19T11:44:26Z</time>
      </trkpt>
      <trkpt lat="42.0829160" lon="-8.8904960">
        <ele>30.3</ele>
        <time>2021-05-19T11:44:27Z</time>
      </trkpt>
      <trkpt lat="42.0829160" lon="-8.8904960">
        <ele>30.3</ele>
        <time>2021-05-19T11:44:28Z</time>
      </trkpt>
      <trkpt lat="42.0829160" lon="-8.8904960">
        <ele>30.3</ele>
        <time>2021-05-19T11:44:29Z</time>
      </trkpt>
      <trkpt lat="42.0829160" lon="-8.8904960">
        <ele>30.3</ele>
        <time>2021-05-19T11:44:30Z</time>
      </trkpt>
      <trkpt lat="42.0829110" lon="-8.8904950">
        <ele>30.3</ele>
        <time>2021-05-19T11:44:31Z</time>
      </trkpt>
      <trkpt lat="42.0829120" lon="-8.8904960">
        <ele>30.3</ele>
        <time>2021-05-19T11:44:32Z</time>
      </trkpt>
      <trkpt lat="42.0829120" lon="-8.8904960">
        <ele>30.3</ele>
        <time>2021-05-19T11:44:33Z</time>
      </trkpt>
      <trkpt lat="42.0829120" lon="-8.8904960">
        <ele>30.3</ele>
        <time>2021-05-19T11:44:34Z</time>
      </trkpt>
      <trkpt lat="42.0829120" lon="-8.8904960">
        <ele>30.3</ele>
        <time>2021-05-19T11:44:35Z</time>
      </trkpt>
      <trkpt lat="42.0829130" lon="-8.8904950">
        <ele>30.3</ele>
        <time>2021-05-19T11:44:36Z</time>
      </trkpt>
      <trkpt lat="42.0829140" lon="-8.8904960">
        <ele>30.3</ele>
        <time>2021-05-19T11:44:37Z</time>
      </trkpt>
      <trkpt lat="42.0829140" lon="-8.8904960">
        <ele>30.3</ele>
        <time>2021-05-19T11:44:38Z</time>
      </trkpt>
      <trkpt lat="42.0829140" lon="-8.8904960">
        <ele>30.3</ele>
        <time>2021-05-19T11:44:39Z</time>
      </trkpt>
      <trkpt lat="42.0829140" lon="-8.8904960">
        <ele>30.3</ele>
        <time>2021-05-19T11:44:40Z</time>
      </trkpt>
      <trkpt lat="42.0829140" lon="-8.8904960">
        <ele>30.3</ele>
        <time>2021-05-19T11:44:41Z</time>
      </trkpt>
      <trkpt lat="42.0829140" lon="-8.8904960">
        <ele>30.3</ele>
        <time>2021-05-19T11:44:42Z</time>
      </trkpt>
      <trkpt lat="42.0829140" lon="-8.8904960">
        <ele>30.3</ele>
        <time>2021-05-19T11:44:43Z</time>
      </trkpt>
      <trkpt lat="42.0829140" lon="-8.8904960">
        <ele>30.3</ele>
        <time>2021-05-19T11:44:44Z</time>
      </trkpt>
      <trkpt lat="42.0829140" lon="-8.8904960">
        <ele>30.3</ele>
        <time>2021-05-19T11:44:45Z</time>
      </trkpt>
      <trkpt lat="42.0829140" lon="-8.8904960">
        <ele>30.3</ele>
        <time>2021-05-19T11:44:46Z</time>
      </trkpt>
      <trkpt lat="42.0829140" lon="-8.8904960">
        <ele>30.3</ele>
        <time>2021-05-19T11:44:47Z</time>
      </trkpt>
      <trkpt lat="42.0829140" lon="-8.8904960">
        <ele>30.3</ele>
        <time>2021-05-19T11:44:48Z</time>
      </trkpt>
      <trkpt lat="42.0829140" lon="-8.8904960">
        <ele>30.3</ele>
        <time>2021-05-19T11:44:49Z</time>
      </trkpt>
      <trkpt lat="42.0829140" lon="-8.8904960">
        <ele>30.3</ele>
        <time>2021-05-19T11:44:50Z</time>
      </trkpt>
      <trkpt lat="42.0829140" lon="-8.8904960">
        <ele>30.3</ele>
        <time>2021-05-19T11:44:51Z</time>
      </trkpt>
      <trkpt lat="42.0829140" lon="-8.8904960">
        <ele>30.3</ele>
        <time>2021-05-19T11:44:52Z</time>
      </trkpt>
      <trkpt lat="42.0829140" lon="-8.8904960">
        <ele>30.3</ele>
        <time>2021-05-19T11:44:53Z</time>
      </trkpt>
      <trkpt lat="42.0829140" lon="-8.8904960">
        <ele>30.3</ele>
        <time>2021-05-19T11:44:54Z</time>
      </trkpt>
      <trkpt lat="42.0829140" lon="-8.8904960">
        <ele>30.3</ele>
        <time>2021-05-19T11:44:55Z</time>
      </trkpt>
      <trkpt lat="42.0829140" lon="-8.8904960">
        <ele>30.3</ele>
        <time>2021-05-19T11:44:56Z</time>
      </trkpt>
      <trkpt lat="42.0829140" lon="-8.8904960">
        <ele>30.3</ele>
        <time>2021-05-19T11:44:57Z</time>
      </trkpt>
      <trkpt lat="42.0829140" lon="-8.8904960">
        <ele>30.3</ele>
        <time>2021-05-19T11:44:58Z</time>
      </trkpt>
      <trkpt lat="42.0829140" lon="-8.8904960">
        <ele>30.3</ele>
        <time>2021-05-19T11:44:59Z</time>
      </trkpt>
      <trkpt lat="42.0829140" lon="-8.8904960">
        <ele>30.3</ele>
        <time>2021-05-19T11:45:00Z</time>
      </trkpt>
      <trkpt lat="42.0829140" lon="-8.8904960">
        <ele>30.3</ele>
        <time>2021-05-19T11:45:01Z</time>
      </trkpt>
      <trkpt lat="42.0829140" lon="-8.8904960">
        <ele>30.3</ele>
        <time>2021-05-19T11:45:02Z</time>
      </trkpt>
      <trkpt lat="42.0829140" lon="-8.8904960">
        <ele>30.3</ele>
        <time>2021-05-19T11:45:03Z</time>
      </trkpt>
      <trkpt lat="42.0829140" lon="-8.8904960">
        <ele>30.3</ele>
        <time>2021-05-19T11:45:04Z</time>
      </trkpt>
      <trkpt lat="42.0829140" lon="-8.8904960">
        <ele>30.3</ele>
        <time>2021-05-19T11:45:05Z</time>
      </trkpt>
      <trkpt lat="42.0829140" lon="-8.8904960">
        <ele>30.3</ele>
        <time>2021-05-19T11:45:06Z</time>
      </trkpt>
      <trkpt lat="42.0829140" lon="-8.8904960">
        <ele>30.3</ele>
        <time>2021-05-19T11:45:07Z</time>
      </trkpt>
      <trkpt lat="42.0829140" lon="-8.8904960">
        <ele>30.3</ele>
        <time>2021-05-19T11:45:08Z</time>
      </trkpt>
      <trkpt lat="42.0829140" lon="-8.8904960">
        <ele>30.3</ele>
        <time>2021-05-19T11:45:09Z</time>
      </trkpt>
      <trkpt lat="42.0829140" lon="-8.8904960">
        <ele>30.3</ele>
        <time>2021-05-19T11:45:10Z</time>
      </trkpt>
      <trkpt lat="42.0829140" lon="-8.8904960">
        <ele>30.3</ele>
        <time>2021-05-19T11:45:11Z</time>
      </trkpt>
      <trkpt lat="42.0829140" lon="-8.8904960">
        <ele>30.3</ele>
        <time>2021-05-19T11:45:12Z</time>
      </trkpt>
      <trkpt lat="42.0829140" lon="-8.8904960">
        <ele>30.3</ele>
        <time>2021-05-19T11:45:13Z</time>
      </trkpt>
      <trkpt lat="42.0829140" lon="-8.8904960">
        <ele>30.3</ele>
        <time>2021-05-19T11:45:14Z</time>
      </trkpt>
      <trkpt lat="42.0829140" lon="-8.8904960">
        <ele>30.3</ele>
        <time>2021-05-19T11:45:15Z</time>
      </trkpt>
      <trkpt lat="42.0829140" lon="-8.8904960">
        <ele>30.3</ele>
        <time>2021-05-19T11:45:16Z</time>
      </trkpt>
      <trkpt lat="42.0829140" lon="-8.8904960">
        <ele>30.3</ele>
        <time>2021-05-19T11:45:17Z</time>
      </trkpt>
      <trkpt lat="42.0829140" lon="-8.8904960">
        <ele>30.3</ele>
        <time>2021-05-19T11:45:18Z</time>
      </trkpt>
      <trkpt lat="42.0829140" lon="-8.8904960">
        <ele>30.3</ele>
        <time>2021-05-19T11:45:19Z</time>
      </trkpt>
      <trkpt lat="42.0829140" lon="-8.8904960">
        <ele>30.3</ele>
        <time>2021-05-19T11:45:20Z</time>
      </trkpt>
      <trkpt lat="42.0829140" lon="-8.8904960">
        <ele>30.3</ele>
        <time>2021-05-19T11:45:21Z</time>
      </trkpt>
      <trkpt lat="42.0829140" lon="-8.8904960">
        <ele>30.3</ele>
        <time>2021-05-19T11:45:22Z</time>
      </trkpt>
      <trkpt lat="42.0829140" lon="-8.8904960">
        <ele>30.3</ele>
        <time>2021-05-19T11:45:23Z</time>
      </trkpt>
      <trkpt lat="42.0829140" lon="-8.8904960">
        <ele>30.3</ele>
        <time>2021-05-19T11:45:24Z</time>
      </trkpt>
      <trkpt lat="42.0829140" lon="-8.8904960">
        <ele>30.3</ele>
        <time>2021-05-19T11:45:25Z</time>
      </trkpt>
      <trkpt lat="42.0829140" lon="-8.8904960">
        <ele>30.3</ele>
        <time>2021-05-19T11:45:26Z</time>
      </trkpt>
      <trkpt lat="42.0829140" lon="-8.8904960">
        <ele>30.3</ele>
        <time>2021-05-19T11:45:27Z</time>
      </trkpt>
      <trkpt lat="42.0829140" lon="-8.8904960">
        <ele>30.3</ele>
        <time>2021-05-19T11:45:28Z</time>
      </trkpt>
      <trkpt lat="42.0829140" lon="-8.8904960">
        <ele>30.3</ele>
        <time>2021-05-19T11:45:29Z</time>
      </trkpt>
      <trkpt lat="42.0829140" lon="-8.8904960">
        <ele>30.3</ele>
        <time>2021-05-19T11:45:30Z</time>
      </trkpt>
      <trkpt lat="42.0829140" lon="-8.8904960">
        <ele>30.3</ele>
        <time>2021-05-19T11:45:31Z</time>
      </trkpt>
      <trkpt lat="42.0829200" lon="-8.8904770">
        <ele>30.3</ele>
        <time>2021-05-19T11:45:32Z</time>
      </trkpt>
      <trkpt lat="42.0829190" lon="-8.8904750">
        <ele>30.3</ele>
        <time>2021-05-19T11:45:33Z</time>
      </trkpt>
      <trkpt lat="42.0829190" lon="-8.8904750">
        <ele>30.3</ele>
        <time>2021-05-19T11:45:34Z</time>
      </trkpt>
      <trkpt lat="42.0829190" lon="-8.8904750">
        <ele>30.3</ele>
        <time>2021-05-19T11:45:35Z</time>
      </trkpt>
      <trkpt lat="42.0829190" lon="-8.8904750">
        <ele>30.3</ele>
        <time>2021-05-19T11:45:36Z</time>
      </trkpt>
      <trkpt lat="42.0829190" lon="-8.8904750">
        <ele>30.3</ele>
        <time>2021-05-19T11:45:37Z</time>
      </trkpt>
      <trkpt lat="42.0829190" lon="-8.8904750">
        <ele>30.3</ele>
        <time>2021-05-19T11:45:38Z</time>
      </trkpt>
      <trkpt lat="42.0829190" lon="-8.8904750">
        <ele>30.4</ele>
        <time>2021-05-19T11:45:39Z</time>
      </trkpt>
      <trkpt lat="42.0829190" lon="-8.8904750">
        <ele>30.5</ele>
        <time>2021-05-19T11:45:40Z</time>
      </trkpt>
      <trkpt lat="42.0829190" lon="-8.8904750">
        <ele>30.6</ele>
        <time>2021-05-19T11:45:41Z</time>
      </trkpt>
      <trkpt lat="42.0829190" lon="-8.8904750">
        <ele>30.7</ele>
        <time>2021-05-19T11:45:42Z</time>
      </trkpt>
      <trkpt lat="42.0829190" lon="-8.8904750">
        <ele>30.8</ele>
        <time>2021-05-19T11:45:43Z</time>
      </trkpt>
      <trkpt lat="42.0829190" lon="-8.8904750">
        <ele>30.9</ele>
        <time>2021-05-19T11:45:44Z</time>
      </trkpt>
      <trkpt lat="42.0829190" lon="-8.8904750">
        <ele>31.0</ele>
        <time>2021-05-19T11:45:45Z</time>
      </trkpt>
      <trkpt lat="42.0829190" lon="-8.8904750">
        <ele>31.1</ele>
        <time>2021-05-19T11:45:46Z</time>
      </trkpt>
      <trkpt lat="42.0829190" lon="-8.8904750">
        <ele>31.2</ele>
        <time>2021-05-19T11:45:47Z</time>
      </trkpt>
      <trkpt lat="42.0829190" lon="-8.8904750">
        <ele>31.3</ele>
        <time>2021-05-19T11:45:48Z</time>
      </trkpt>
      <trkpt lat="42.0829190" lon="-8.8904750">
        <ele>31.4</ele>
        <time>2021-05-19T11:45:49Z</time>
      </trkpt>
      <trkpt lat="42.0829190" lon="-8.8904750">
        <ele>31.5</ele>
        <time>2021-05-19T11:45:50Z</time>
      </trkpt>
      <trkpt lat="42.0829190" lon="-8.8904750">
        <ele>31.6</ele>
        <time>2021-05-19T11:45:51Z</time>
      </trkpt>
      <trkpt lat="42.0829170" lon="-8.8904660">
        <ele>32.5</ele>
        <time>2021-05-19T11:45:52Z</time>
      </trkpt>
      <trkpt lat="42.0829170" lon="-8.8904660">
        <ele>32.6</ele>
        <time>2021-05-19T11:45:53Z</time>
      </trkpt>
      <trkpt lat="42.0829170" lon="-8.8904660">
        <ele>32.7</ele>
        <time>2021-05-19T11:45:54Z</time>
      </trkpt>
      <trkpt lat="42.0829170" lon="-8.8904660">
        <ele>32.8</ele>
        <time>2021-05-19T11:45:55Z</time>
      </trkpt>
      <trkpt lat="42.0829170" lon="-8.8904660">
        <ele>32.9</ele>
        <time>2021-05-19T11:45:56Z</time>
      </trkpt>
      <trkpt lat="42.0829170" lon="-8.8904660">
        <ele>33.0</ele>
        <time>2021-05-19T11:45:57Z</time>
      </trkpt>
      <trkpt lat="42.0829170" lon="-8.8904660">
        <ele>33.1</ele>
        <time>2021-05-19T11:45:58Z</time>
      </trkpt>
      <trkpt lat="42.0829170" lon="-8.8904660">
        <ele>33.2</ele>
        <time>2021-05-19T11:45:59Z</time>
      </trkpt>
      <trkpt lat="42.0829170" lon="-8.8904660">
        <ele>33.3</ele>
        <time>2021-05-19T11:46:00Z</time>
      </trkpt>
      <trkpt lat="42.0829170" lon="-8.8904660">
        <ele>33.3</ele>
        <time>2021-05-19T11:46:01Z</time>
      </trkpt>
      <trkpt lat="42.0829170" lon="-8.8904660">
        <ele>33.4</ele>
        <time>2021-05-19T11:46:02Z</time>
      </trkpt>
      <trkpt lat="42.0829170" lon="-8.8904660">
        <ele>33.5</ele>
        <time>2021-05-19T11:46:03Z</time>
      </trkpt>
      <trkpt lat="42.0829170" lon="-8.8904660">
        <ele>33.6</ele>
        <time>2021-05-19T11:46:04Z</time>
      </trkpt>
      <trkpt lat="42.0829170" lon="-8.8904660">
        <ele>33.7</ele>
        <time>2021-05-19T11:46:05Z</time>
      </trkpt>
      <trkpt lat="42.0829170" lon="-8.8904660">
        <ele>33.8</ele>
        <time>2021-05-19T11:46:06Z</time>
      </trkpt>
      <trkpt lat="42.0829170" lon="-8.8904660">
        <ele>33.9</ele>
        <time>2021-05-19T11:46:07Z</time>
      </trkpt>
      <trkpt lat="42.0829170" lon="-8.8904660">
        <ele>34.0</ele>
        <time>2021-05-19T11:46:08Z</time>
      </trkpt>
      <trkpt lat="42.0829170" lon="-8.8904660">
        <ele>34.1</ele>
        <time>2021-05-19T11:46:09Z</time>
      </trkpt>
      <trkpt lat="42.0829170" lon="-8.8904660">
        <ele>34.1</ele>
        <time>2021-05-19T11:46:10Z</time>
      </trkpt>
      <trkpt lat="42.0829170" lon="-8.8904660">
        <ele>34.2</ele>
        <time>2021-05-19T11:46:11Z</time>
      </trkpt>
      <trkpt lat="42.0829170" lon="-8.8904660">
        <ele>34.3</ele>
        <time>2021-05-19T11:46:12Z</time>
      </trkpt>
      <trkpt lat="42.0829170" lon="-8.8904660">
        <ele>34.4</ele>
        <time>2021-05-19T11:46:13Z</time>
      </trkpt>
      <trkpt lat="42.0829170" lon="-8.8904660">
        <ele>34.5</ele>
        <time>2021-05-19T11:46:14Z</time>
      </trkpt>
      <trkpt lat="42.0829170" lon="-8.8904660">
        <ele>34.6</ele>
        <time>2021-05-19T11:46:15Z</time>
      </trkpt>
      <trkpt lat="42.0829170" lon="-8.8904660">
        <ele>34.7</ele>
        <time>2021-05-19T11:46:16Z</time>
      </trkpt>
      <trkpt lat="42.0829170" lon="-8.8904660">
        <ele>34.8</ele>
        <time>2021-05-19T11:46:17Z</time>
      </trkpt>
      <trkpt lat="42.0829170" lon="-8.8904660">
        <ele>34.9</ele>
        <time>2021-05-19T11:46:18Z</time>
      </trkpt>
      <trkpt lat="42.0829280" lon="-8.8904560">
        <ele>34.9</ele>
        <time>2021-05-19T11:46:19Z</time>
      </trkpt>
      <trkpt lat="42.0829290" lon="-8.8904570">
        <ele>35.0</ele>
        <time>2021-05-19T11:46:20Z</time>
      </trkpt>
      <trkpt lat="42.0829270" lon="-8.8904600">
        <ele>35.1</ele>
        <time>2021-05-19T11:46:21Z</time>
      </trkpt>
      <trkpt lat="42.0829300" lon="-8.8904620">
        <ele>35.2</ele>
        <time>2021-05-19T11:46:22Z</time>
      </trkpt>
      <trkpt lat="42.0829320" lon="-8.8904600">
        <ele>35.3</ele>
        <time>2021-05-19T11:46:23Z</time>
      </trkpt>
      <trkpt lat="42.0829300" lon="-8.8904590">
        <ele>35.4</ele>
        <time>2021-05-19T11:46:24Z</time>
      </trkpt>
      <trkpt lat="42.0829270" lon="-8.8904620">
        <ele>35.5</ele>
        <time>2021-05-19T11:46:25Z</time>
      </trkpt>
      <trkpt lat="42.0829270" lon="-8.8904610">
        <ele>35.6</ele>
        <time>2021-05-19T11:46:26Z</time>
      </trkpt>
      <trkpt lat="42.0829290" lon="-8.8904560">
        <ele>35.7</ele>
        <time>2021-05-19T11:46:27Z</time>
      </trkpt>
      <trkpt lat="42.0829310" lon="-8.8904500">
        <ele>35.8</ele>
        <time>2021-05-19T11:46:28Z</time>
      </trkpt>
      <trkpt lat="42.0829370" lon="-8.8904520">
        <ele>35.9</ele>
        <time>2021-05-19T11:46:29Z</time>
      </trkpt>
      <trkpt lat="42.0829310" lon="-8.8904580">
        <ele>35.9</ele>
        <time>2021-05-19T11:46:30Z</time>
      </trkpt>
      <trkpt lat="42.0829300" lon="-8.8904490">
        <ele>36.0</ele>
        <time>2021-05-19T11:46:31Z</time>
      </trkpt>
      <trkpt lat="42.0829240" lon="-8.8904550">
        <ele>36.1</ele>
        <time>2021-05-19T11:46:32Z</time>
      </trkpt>
      <trkpt lat="42.0829210" lon="-8.8904620">
        <ele>36.2</ele>
        <time>2021-05-19T11:46:33Z</time>
      </trkpt>
      <trkpt lat="42.0829190" lon="-8.8904580">
        <ele>36.3</ele>
        <time>2021-05-19T11:46:34Z</time>
      </trkpt>
      <trkpt lat="42.0829190" lon="-8.8904590">
        <ele>36.4</ele>
        <time>2021-05-19T11:46:35Z</time>
      </trkpt>
      <trkpt lat="42.0829150" lon="-8.8904660">
        <ele>36.5</ele>
        <time>2021-05-19T11:46:36Z</time>
      </trkpt>
      <trkpt lat="42.0829160" lon="-8.8904610">
        <ele>36.6</ele>
        <time>2021-05-19T11:46:37Z</time>
      </trkpt>
      <trkpt lat="42.0829140" lon="-8.8904540">
        <ele>36.6</ele>
        <time>2021-05-19T11:46:38Z</time>
      </trkpt>
      <trkpt lat="42.0829140" lon="-8.8904530">
        <ele>36.7</ele>
        <time>2021-05-19T11:46:39Z</time>
      </trkpt>
      <trkpt lat="42.0829090" lon="-8.8904550">
        <ele>36.8</ele>
        <time>2021-05-19T11:46:40Z</time>
      </trkpt>
      <trkpt lat="42.0829100" lon="-8.8904560">
        <ele>36.9</ele>
        <time>2021-05-19T11:46:41Z</time>
      </trkpt>
      <trkpt lat="42.0829100" lon="-8.8904560">
        <ele>37.0</ele>
        <time>2021-05-19T11:46:42Z</time>
      </trkpt>
      <trkpt lat="42.0829100" lon="-8.8904560">
        <ele>37.1</ele>
        <time>2021-05-19T11:46:43Z</time>
      </trkpt>
      <trkpt lat="42.0829100" lon="-8.8904560">
        <ele>37.2</ele>
        <time>2021-05-19T11:46:44Z</time>
      </trkpt>
      <trkpt lat="42.0829100" lon="-8.8904560">
        <ele>37.3</ele>
        <time>2021-05-19T11:46:45Z</time>
      </trkpt>
      <trkpt lat="42.0829100" lon="-8.8904560">
        <ele>37.4</ele>
        <time>2021-05-19T11:46:46Z</time>
      </trkpt>
      <trkpt lat="42.0829080" lon="-8.8904510">
        <ele>37.4</ele>
        <time>2021-05-19T11:46:47Z</time>
      </trkpt>
      <trkpt lat="42.0829070" lon="-8.8904470">
        <ele>37.5</ele>
        <time>2021-05-19T11:46:48Z</time>
      </trkpt>
      <trkpt lat="42.0829100" lon="-8.8904430">
        <ele>37.6</ele>
        <time>2021-05-19T11:46:49Z</time>
      </trkpt>
      <trkpt lat="42.0829110" lon="-8.8904340">
        <ele>37.7</ele>
        <time>2021-05-19T11:46:50Z</time>
      </trkpt>
      <trkpt lat="42.0829130" lon="-8.8904310">
        <ele>37.8</ele>
        <time>2021-05-19T11:46:51Z</time>
      </trkpt>
      <trkpt lat="42.0829100" lon="-8.8904390">
        <ele>37.9</ele>
        <time>2021-05-19T11:46:52Z</time>
      </trkpt>
      <trkpt lat="42.0829110" lon="-8.8904420">
        <ele>38.0</ele>
        <time>2021-05-19T11:46:53Z</time>
      </trkpt>
      <trkpt lat="42.0829150" lon="-8.8904490">
        <ele>38.1</ele>
        <time>2021-05-19T11:46:54Z</time>
      </trkpt>
      <trkpt lat="42.0829140" lon="-8.8904540">
        <ele>38.2</ele>
        <time>2021-05-19T11:46:55Z</time>
      </trkpt>
      <trkpt lat="42.0829150" lon="-8.8904520">
        <ele>38.2</ele>
        <time>2021-05-19T11:46:56Z</time>
      </trkpt>
      <trkpt lat="42.0829150" lon="-8.8904450">
        <ele>38.3</ele>
        <time>2021-05-19T11:46:57Z</time>
      </trkpt>
      <trkpt lat="42.0829110" lon="-8.8904480">
        <ele>38.4</ele>
        <time>2021-05-19T11:46:58Z</time>
      </trkpt>
      <trkpt lat="42.0829100" lon="-8.8904490">
        <ele>38.5</ele>
        <time>2021-05-19T11:46:59Z</time>
      </trkpt>
      <trkpt lat="42.0829130" lon="-8.8904470">
        <ele>38.6</ele>
        <time>2021-05-19T11:47:00Z</time>
      </trkpt>
      <trkpt lat="42.0829130" lon="-8.8904470">
        <ele>38.7</ele>
        <time>2021-05-19T11:47:01Z</time>
      </trkpt>
      <trkpt lat="42.0829090" lon="-8.8904370">
        <ele>38.8</ele>
        <time>2021-05-19T11:47:02Z</time>
      </trkpt>
      <trkpt lat="42.0829080" lon="-8.8904370">
        <ele>38.9</ele>
        <time>2021-05-19T11:47:03Z</time>
      </trkpt>
      <trkpt lat="42.0829120" lon="-8.8904440">
        <ele>39.0</ele>
        <time>2021-05-19T11:47:04Z</time>
      </trkpt>
      <trkpt lat="42.0829110" lon="-8.8904580">
        <ele>39.0</ele>
        <time>2021-05-19T11:47:05Z</time>
      </trkpt>
      <trkpt lat="42.0829130" lon="-8.8904560">
        <ele>39.1</ele>
        <time>2021-05-19T11:47:06Z</time>
      </trkpt>
      <trkpt lat="42.0829160" lon="-8.8904470">
        <ele>39.2</ele>
        <time>2021-05-19T11:47:07Z</time>
      </trkpt>
      <trkpt lat="42.0829250" lon="-8.8904520">
        <ele>39.3</ele>
        <time>2021-05-19T11:47:08Z</time>
      </trkpt>
      <trkpt lat="42.0829200" lon="-8.8904600">
        <ele>39.4</ele>
        <time>2021-05-19T11:47:09Z</time>
      </trkpt>
      <trkpt lat="42.0829180" lon="-8.8904630">
        <ele>39.5</ele>
        <time>2021-05-19T11:47:10Z</time>
      </trkpt>
      <trkpt lat="42.0829190" lon="-8.8904630">
        <ele>39.6</ele>
        <time>2021-05-19T11:47:11Z</time>
      </trkpt>
      <trkpt lat="42.0829160" lon="-8.8904670">
        <ele>39.7</ele>
        <time>2021-05-19T11:47:12Z</time>
      </trkpt>
      <trkpt lat="42.0829130" lon="-8.8904680">
        <ele>39.8</ele>
        <time>2021-05-19T11:47:13Z</time>
      </trkpt>
      <trkpt lat="42.0829130" lon="-8.8904680">
        <ele>39.8</ele>
        <time>2021-05-19T11:47:14Z</time>
      </trkpt>
      <trkpt lat="42.0829120" lon="-8.8904710">
        <ele>39.9</ele>
        <time>2021-05-19T11:47:15Z</time>
      </trkpt>
      <trkpt lat="42.0829100" lon="-8.8904710">
        <ele>40.0</ele>
        <time>2021-05-19T11:47:16Z</time>
      </trkpt>
      <trkpt lat="42.0829080" lon="-8.8904800">
        <ele>40.1</ele>
        <time>2021-05-19T11:47:17Z</time>
      </trkpt>
      <trkpt lat="42.0829100" lon="-8.8904850">
        <ele>40.2</ele>
        <time>2021-05-19T11:47:18Z</time>
      </trkpt>
      <trkpt lat="42.0829110" lon="-8.8904780">
        <ele>40.2</ele>
        <time>2021-05-19T11:47:19Z</time>
      </trkpt>
      <trkpt lat="42.0829130" lon="-8.8904790">
        <ele>40.2</ele>
        <time>2021-05-19T11:47:20Z</time>
      </trkpt>
      <trkpt lat="42.0829110" lon="-8.8904690">
        <ele>40.2</ele>
        <time>2021-05-19T11:47:21Z</time>
      </trkpt>
      <trkpt lat="42.0829070" lon="-8.8904690">
        <ele>40.2</ele>
        <time>2021-05-19T11:47:22Z</time>
      </trkpt>
      <trkpt lat="42.0829070" lon="-8.8904690">
        <ele>40.2</ele>
        <time>2021-05-19T11:47:23Z</time>
      </trkpt>
      <trkpt lat="42.0829000" lon="-8.8904760">
        <ele>40.2</ele>
        <time>2021-05-19T11:47:24Z</time>
      </trkpt>
      <trkpt lat="42.0829000" lon="-8.8904770">
        <ele>40.2</ele>
        <time>2021-05-19T11:47:25Z</time>
      </trkpt>
      <trkpt lat="42.0829000" lon="-8.8904770">
        <ele>40.2</ele>
        <time>2021-05-19T11:47:26Z</time>
      </trkpt>
      <trkpt lat="42.0829010" lon="-8.8904790">
        <ele>40.2</ele>
        <time>2021-05-19T11:47:27Z</time>
      </trkpt>
      <trkpt lat="42.0829010" lon="-8.8904750">
        <ele>40.2</ele>
        <time>2021-05-19T11:47:28Z</time>
      </trkpt>
      <trkpt lat="42.0829010" lon="-8.8904750">
        <ele>40.2</ele>
        <time>2021-05-19T11:47:29Z</time>
      </trkpt>
      <trkpt lat="42.0829010" lon="-8.8904760">
        <ele>40.2</ele>
        <time>2021-05-19T11:47:30Z</time>
      </trkpt>
      <trkpt lat="42.0828960" lon="-8.8904850">
        <ele>40.2</ele>
        <time>2021-05-19T11:47:31Z</time>
      </trkpt>
      <trkpt lat="42.0828960" lon="-8.8904800">
        <ele>40.2</ele>
        <time>2021-05-19T11:47:32Z</time>
      </trkpt>
      <trkpt lat="42.0828960" lon="-8.8904690">
        <ele>40.2</ele>
        <time>2021-05-19T11:47:33Z</time>
      </trkpt>
      <trkpt lat="42.0828920" lon="-8.8904750">
        <ele>40.2</ele>
        <time>2021-05-19T11:47:34Z</time>
      </trkpt>
      <trkpt lat="42.0828850" lon="-8.8904830">
        <ele>40.2</ele>
        <time>2021-05-19T11:47:35Z</time>
      </trkpt>
      <trkpt lat="42.0828850" lon="-8.8904890">
        <ele>40.2</ele>
        <time>2021-05-19T11:47:36Z</time>
      </trkpt>
      <trkpt lat="42.0828830" lon="-8.8904940">
        <ele>40.2</ele>
        <time>2021-05-19T11:47:37Z</time>
      </trkpt>
      <trkpt lat="42.0828790" lon="-8.8904910">
        <ele>40.2</ele>
        <time>2021-05-19T11:47:38Z</time>
      </trkpt>
      <trkpt lat="42.0828790" lon="-8.8904910">
        <ele>40.2</ele>
        <time>2021-05-19T11:47:39Z</time>
      </trkpt>
      <trkpt lat="42.0828790" lon="-8.8904910">
        <ele>40.2</ele>
        <time>2021-05-19T11:47:40Z</time>
      </trkpt>
      <trkpt lat="42.0828790" lon="-8.8904910">
        <ele>40.2</ele>
        <time>2021-05-19T11:47:41Z</time>
      </trkpt>
      <trkpt lat="42.0828790" lon="-8.8904910">
        <ele>40.2</ele>
        <time>2021-05-19T11:47:42Z</time>
      </trkpt>
      <trkpt lat="42.0828790" lon="-8.8904910">
        <ele>40.2</ele>
        <time>2021-05-19T11:47:43Z</time>
      </trkpt>
      <trkpt lat="42.0828790" lon="-8.8904910">
        <ele>40.2</ele>
        <time>2021-05-19T11:47:44Z</time>
      </trkpt>
      <trkpt lat="42.0828790" lon="-8.8904910">
        <ele>40.2</ele>
        <time>2021-05-19T11:47:45Z</time>
      </trkpt>
      <trkpt lat="42.0828790" lon="-8.8904910">
        <ele>40.2</ele>
        <time>2021-05-19T11:47:46Z</time>
      </trkpt>
      <trkpt lat="42.0828800" lon="-8.8904910">
        <ele>40.2</ele>
        <time>2021-05-19T11:47:47Z</time>
      </trkpt>
      <trkpt lat="42.0828800" lon="-8.8904910">
        <ele>40.2</ele>
        <time>2021-05-19T11:47:48Z</time>
      </trkpt>
      <trkpt lat="42.0828800" lon="-8.8904910">
        <ele>40.2</ele>
        <time>2021-05-19T11:47:49Z</time>
      </trkpt>
      <trkpt lat="42.0828800" lon="-8.8904910">
        <ele>40.2</ele>
        <time>2021-05-19T11:47:50Z</time>
      </trkpt>
      <trkpt lat="42.0828800" lon="-8.8904910">
        <ele>40.2</ele>
        <time>2021-05-19T11:47:51Z</time>
      </trkpt>
      <trkpt lat="42.0828800" lon="-8.8904910">
        <ele>40.2</ele>
        <time>2021-05-19T11:47:52Z</time>
      </trkpt>
      <trkpt lat="42.0828800" lon="-8.8904910">
        <ele>40.2</ele>
        <time>2021-05-19T11:47:53Z</time>
      </trkpt>
      <trkpt lat="42.0828800" lon="-8.8904910">
        <ele>40.2</ele>
        <time>2021-05-19T11:47:54Z</time>
      </trkpt>
      <trkpt lat="42.0828800" lon="-8.8904910">
        <ele>40.2</ele>
        <time>2021-05-19T11:47:55Z</time>
      </trkpt>
      <trkpt lat="42.0828800" lon="-8.8904910">
        <ele>40.2</ele>
        <time>2021-05-19T11:47:56Z</time>
      </trkpt>
      <trkpt lat="42.0828800" lon="-8.8904910">
        <ele>40.2</ele>
        <time>2021-05-19T11:47:57Z</time>
      </trkpt>
      <trkpt lat="42.0828800" lon="-8.8904910">
        <ele>40.2</ele>
        <time>2021-05-19T11:47:58Z</time>
      </trkpt>
      <trkpt lat="42.0828800" lon="-8.8904910">
        <ele>40.2</ele>
        <time>2021-05-19T11:47:59Z</time>
      </trkpt>
      <trkpt lat="42.0828800" lon="-8.8904910">
        <ele>40.2</ele>
        <time>2021-05-19T11:48:00Z</time>
      </trkpt>
      <trkpt lat="42.0828800" lon="-8.8904910">
        <ele>40.2</ele>
        <time>2021-05-19T11:48:01Z</time>
      </trkpt>
      <trkpt lat="42.0828800" lon="-8.8904910">
        <ele>40.2</ele>
        <time>2021-05-19T11:48:02Z</time>
      </trkpt>
      <trkpt lat="42.0828800" lon="-8.8904910">
        <ele>40.2</ele>
        <time>2021-05-19T11:48:03Z</time>
      </trkpt>
      <trkpt lat="42.0828800" lon="-8.8904910">
        <ele>40.2</ele>
        <time>2021-05-19T11:48:04Z</time>
      </trkpt>
      <trkpt lat="42.0828800" lon="-8.8904910">
        <ele>40.2</ele>
        <time>2021-05-19T11:48:05Z</time>
      </trkpt>
      <trkpt lat="42.0828810" lon="-8.8904910">
        <ele>40.2</ele>
        <time>2021-05-19T11:48:06Z</time>
      </trkpt>
      <trkpt lat="42.0828810" lon="-8.8904910">
        <ele>40.2</ele>
        <time>2021-05-19T11:48:07Z</time>
      </trkpt>
      <trkpt lat="42.0828810" lon="-8.8904910">
        <ele>40.2</ele>
        <time>2021-05-19T11:48:08Z</time>
      </trkpt>
      <trkpt lat="42.0828810" lon="-8.8904910">
        <ele>40.2</ele>
        <time>2021-05-19T11:48:09Z</time>
      </trkpt>
      <trkpt lat="42.0828810" lon="-8.8904910">
        <ele>40.2</ele>
        <time>2021-05-19T11:48:10Z</time>
      </trkpt>
      <trkpt lat="42.0828810" lon="-8.8904910">
        <ele>40.2</ele>
        <time>2021-05-19T11:48:11Z</time>
      </trkpt>
      <trkpt lat="42.0828810" lon="-8.8904910">
        <ele>40.2</ele>
        <time>2021-05-19T11:48:12Z</time>
      </trkpt>
      <trkpt lat="42.0828810" lon="-8.8904910">
        <ele>40.2</ele>
        <time>2021-05-19T11:48:13Z</time>
      </trkpt>
      <trkpt lat="42.0828810" lon="-8.8904910">
        <ele>40.2</ele>
        <time>2021-05-19T11:48:14Z</time>
      </trkpt>
      <trkpt lat="42.0828810" lon="-8.8904910">
        <ele>40.2</ele>
        <time>2021-05-19T11:48:15Z</time>
      </trkpt>
      <trkpt lat="42.0828810" lon="-8.8904910">
        <ele>40.2</ele>
        <time>2021-05-19T11:48:16Z</time>
      </trkpt>
      <trkpt lat="42.0828810" lon="-8.8904910">
        <ele>40.2</ele>
        <time>2021-05-19T11:48:17Z</time>
      </trkpt>
      <trkpt lat="42.0828810" lon="-8.8904910">
        <ele>40.2</ele>
        <time>2021-05-19T11:48:18Z</time>
      </trkpt>
      <trkpt lat="42.0828810" lon="-8.8904910">
        <ele>40.2</ele>
        <time>2021-05-19T11:48:19Z</time>
      </trkpt>
      <trkpt lat="42.0828810" lon="-8.8904910">
        <ele>40.2</ele>
        <time>2021-05-19T11:48:20Z</time>
      </trkpt>
      <trkpt lat="42.0828810" lon="-8.8904910">
        <ele>40.2</ele>
        <time>2021-05-19T11:48:21Z</time>
      </trkpt>
      <trkpt lat="42.0828810" lon="-8.8904910">
        <ele>40.2</ele>
        <time>2021-05-19T11:48:22Z</time>
      </trkpt>
      <trkpt lat="42.0828810" lon="-8.8904910">
        <ele>40.2</ele>
        <time>2021-05-19T11:48:23Z</time>
      </trkpt>
      <trkpt lat="42.0828810" lon="-8.8904910">
        <ele>40.2</ele>
        <time>2021-05-19T11:48:24Z</time>
      </trkpt>
      <trkpt lat="42.0828820" lon="-8.8904910">
        <ele>40.2</ele>
        <time>2021-05-19T11:48:25Z</time>
      </trkpt>
      <trkpt lat="42.0828820" lon="-8.8904910">
        <ele>40.2</ele>
        <time>2021-05-19T11:48:26Z</time>
      </trkpt>
      <trkpt lat="42.0828820" lon="-8.8904910">
        <ele>40.2</ele>
        <time>2021-05-19T11:48:27Z</time>
      </trkpt>
      <trkpt lat="42.0828820" lon="-8.8904910">
        <ele>40.2</ele>
        <time>2021-05-19T11:48:28Z</time>
      </trkpt>
      <trkpt lat="42.0828820" lon="-8.8904910">
        <ele>40.2</ele>
        <time>2021-05-19T11:48:29Z</time>
      </trkpt>
      <trkpt lat="42.0828820" lon="-8.8904910">
        <ele>40.2</ele>
        <time>2021-05-19T11:48:30Z</time>
      </trkpt>
      <trkpt lat="42.0828820" lon="-8.8904910">
        <ele>40.2</ele>
        <time>2021-05-19T11:48:31Z</time>
      </trkpt>
      <trkpt lat="42.0828820" lon="-8.8904910">
        <ele>40.2</ele>
        <time>2021-05-19T11:48:32Z</time>
      </trkpt>
      <trkpt lat="42.0828820" lon="-8.8904910">
        <ele>40.2</ele>
        <time>2021-05-19T11:48:33Z</time>
      </trkpt>
      <trkpt lat="42.0828820" lon="-8.8904910">
        <ele>40.2</ele>
        <time>2021-05-19T11:48:34Z</time>
      </trkpt>
      <trkpt lat="42.0828820" lon="-8.8904910">
        <ele>40.2</ele>
        <time>2021-05-19T11:48:35Z</time>
      </trkpt>
      <trkpt lat="42.0828820" lon="-8.8904910">
        <ele>40.2</ele>
        <time>2021-05-19T11:48:36Z</time>
      </trkpt>
      <trkpt lat="42.0828820" lon="-8.8904910">
        <ele>40.2</ele>
        <time>2021-05-19T11:48:37Z</time>
      </trkpt>
      <trkpt lat="42.0828820" lon="-8.8904910">
        <ele>40.2</ele>
        <time>2021-05-19T11:48:38Z</time>
      </trkpt>
      <trkpt lat="42.0828820" lon="-8.8904910">
        <ele>40.2</ele>
        <time>2021-05-19T11:48:39Z</time>
      </trkpt>
      <trkpt lat="42.0828820" lon="-8.8904910">
        <ele>40.2</ele>
        <time>2021-05-19T11:48:40Z</time>
      </trkpt>
      <trkpt lat="42.0828820" lon="-8.8904910">
        <ele>40.2</ele>
        <time>2021-05-19T11:48:41Z</time>
      </trkpt>
      <trkpt lat="42.0828820" lon="-8.8904910">
        <ele>40.2</ele>
        <time>2021-05-19T11:48:42Z</time>
      </trkpt>
      <trkpt lat="42.0828820" lon="-8.8904910">
        <ele>40.2</ele>
        <time>2021-05-19T11:48:43Z</time>
      </trkpt>
      <trkpt lat="42.0828820" lon="-8.8904910">
        <ele>40.2</ele>
        <time>2021-05-19T11:48:44Z</time>
      </trkpt>
      <trkpt lat="42.0828830" lon="-8.8904910">
        <ele>40.2</ele>
        <time>2021-05-19T11:48:45Z</time>
      </trkpt>
      <trkpt lat="42.0828830" lon="-8.8904910">
        <ele>40.2</ele>
        <time>2021-05-19T11:48:46Z</time>
      </trkpt>
      <trkpt lat="42.0828830" lon="-8.8904910">
        <ele>40.2</ele>
        <time>2021-05-19T11:48:47Z</time>
      </trkpt>
      <trkpt lat="42.0828830" lon="-8.8904910">
        <ele>40.2</ele>
        <time>2021-05-19T11:48:48Z</time>
      </trkpt>
      <trkpt lat="42.0828830" lon="-8.8904910">
        <ele>40.2</ele>
        <time>2021-05-19T11:48:49Z</time>
      </trkpt>
      <trkpt lat="42.0828830" lon="-8.8904910">
        <ele>40.2</ele>
        <time>2021-05-19T11:48:50Z</time>
      </trkpt>
      <trkpt lat="42.0828830" lon="-8.8904910">
        <ele>40.2</ele>
        <time>2021-05-19T11:48:51Z</time>
      </trkpt>
      <trkpt lat="42.0828830" lon="-8.8904910">
        <ele>40.2</ele>
        <time>2021-05-19T11:48:52Z</time>
      </trkpt>
      <trkpt lat="42.0828830" lon="-8.8904910">
        <ele>40.2</ele>
        <time>2021-05-19T11:48:53Z</time>
      </trkpt>
      <trkpt lat="42.0828830" lon="-8.8904910">
        <ele>40.2</ele>
        <time>2021-05-19T11:48:54Z</time>
      </trkpt>
      <trkpt lat="42.0828830" lon="-8.8904910">
        <ele>40.2</ele>
        <time>2021-05-19T11:48:55Z</time>
      </trkpt>
      <trkpt lat="42.0828830" lon="-8.8904910">
        <ele>40.2</ele>
        <time>2021-05-19T11:48:56Z</time>
      </trkpt>
      <trkpt lat="42.0828830" lon="-8.8904910">
        <ele>40.2</ele>
        <time>2021-05-19T11:48:57Z</time>
      </trkpt>
      <trkpt lat="42.0828830" lon="-8.8904910">
        <ele>40.2</ele>
        <time>2021-05-19T11:48:58Z</time>
      </trkpt>
      <trkpt lat="42.0828830" lon="-8.8904910">
        <ele>40.2</ele>
        <time>2021-05-19T11:48:59Z</time>
      </trkpt>
      <trkpt lat="42.0828830" lon="-8.8904910">
        <ele>40.2</ele>
        <time>2021-05-19T11:49:00Z</time>
      </trkpt>
      <trkpt lat="42.0828830" lon="-8.8904910">
        <ele>40.2</ele>
        <time>2021-05-19T11:49:01Z</time>
      </trkpt>
      <trkpt lat="42.0828830" lon="-8.8904910">
        <ele>40.2</ele>
        <time>2021-05-19T11:49:02Z</time>
      </trkpt>
      <trkpt lat="42.0828830" lon="-8.8904910">
        <ele>40.2</ele>
        <time>2021-05-19T11:49:03Z</time>
      </trkpt>
      <trkpt lat="42.0828840" lon="-8.8904910">
        <ele>40.2</ele>
        <time>2021-05-19T11:49:04Z</time>
      </trkpt>
      <trkpt lat="42.0828840" lon="-8.8904910">
        <ele>40.2</ele>
        <time>2021-05-19T11:49:05Z</time>
      </trkpt>
      <trkpt lat="42.0828840" lon="-8.8904910">
        <ele>40.2</ele>
        <time>2021-05-19T11:49:06Z</time>
      </trkpt>
      <trkpt lat="42.0828840" lon="-8.8904910">
        <ele>40.2</ele>
        <time>2021-05-19T11:49:07Z</time>
      </trkpt>
      <trkpt lat="42.0828840" lon="-8.8904910">
        <ele>40.2</ele>
        <time>2021-05-19T11:49:08Z</time>
      </trkpt>
      <trkpt lat="42.0828840" lon="-8.8904910">
        <ele>40.2</ele>
        <time>2021-05-19T11:49:09Z</time>
      </trkpt>
      <trkpt lat="42.0828840" lon="-8.8904910">
        <ele>40.2</ele>
        <time>2021-05-19T11:49:10Z</time>
      </trkpt>
      <trkpt lat="42.0828840" lon="-8.8904910">
        <ele>40.2</ele>
        <time>2021-05-19T11:49:11Z</time>
      </trkpt>
      <trkpt lat="42.0828840" lon="-8.8904910">
        <ele>40.2</ele>
        <time>2021-05-19T11:49:12Z</time>
      </trkpt>
      <trkpt lat="42.0828840" lon="-8.8904910">
        <ele>40.2</ele>
        <time>2021-05-19T11:49:13Z</time>
      </trkpt>
      <trkpt lat="42.0828840" lon="-8.8904910">
        <ele>40.2</ele>
        <time>2021-05-19T11:49:14Z</time>
      </trkpt>
      <trkpt lat="42.0828840" lon="-8.8904910">
        <ele>40.2</ele>
        <time>2021-05-19T11:49:15Z</time>
      </trkpt>
      <trkpt lat="42.0828840" lon="-8.8904910">
        <ele>40.2</ele>
        <time>2021-05-19T11:49:16Z</time>
      </trkpt>
      <trkpt lat="42.0828840" lon="-8.8904910">
        <ele>40.2</ele>
        <time>2021-05-19T11:49:17Z</time>
      </trkpt>
      <trkpt lat="42.0828840" lon="-8.8904910">
        <ele>40.2</ele>
        <time>2021-05-19T11:49:18Z</time>
      </trkpt>
      <trkpt lat="42.0828840" lon="-8.8904910">
        <ele>40.2</ele>
        <time>2021-05-19T11:49:19Z</time>
      </trkpt>
      <trkpt lat="42.0828840" lon="-8.8904910">
        <ele>40.2</ele>
        <time>2021-05-19T11:49:20Z</time>
      </trkpt>
      <trkpt lat="42.0828840" lon="-8.8904910">
        <ele>40.2</ele>
        <time>2021-05-19T11:49:21Z</time>
      </trkpt>
      <trkpt lat="42.0828840" lon="-8.8904910">
        <ele>40.2</ele>
        <time>2021-05-19T11:49:22Z</time>
      </trkpt>
      <trkpt lat="42.0828850" lon="-8.8904910">
        <ele>40.2</ele>
        <time>2021-05-19T11:49:23Z</time>
      </trkpt>
      <trkpt lat="42.0828850" lon="-8.8904910">
        <ele>40.2</ele>
        <time>2021-05-19T11:49:24Z</time>
      </trkpt>
      <trkpt lat="42.0828850" lon="-8.8904910">
        <ele>40.2</ele>
        <time>2021-05-19T11:49:25Z</time>
      </trkpt>
      <trkpt lat="42.0828850" lon="-8.8904910">
        <ele>40.2</ele>
        <time>2021-05-19T11:49:26Z</time>
      </trkpt>
      <trkpt lat="42.0828850" lon="-8.8904910">
        <ele>40.2</ele>
        <time>2021-05-19T11:49:27Z</time>
      </trkpt>
      <trkpt lat="42.0828850" lon="-8.8904910">
        <ele>40.2</ele>
        <time>2021-05-19T11:49:28Z</time>
      </trkpt>
      <trkpt lat="42.0828850" lon="-8.8904910">
        <ele>40.2</ele>
        <time>2021-05-19T11:49:29Z</time>
      </trkpt>
      <trkpt lat="42.0828850" lon="-8.8904910">
        <ele>40.2</ele>
        <time>2021-05-19T11:49:30Z</time>
      </trkpt>
      <trkpt lat="42.0828850" lon="-8.8904910">
        <ele>40.2</ele>
        <time>2021-05-19T11:49:31Z</time>
      </trkpt>
      <trkpt lat="42.0828850" lon="-8.8904910">
        <ele>40.2</ele>
        <time>2021-05-19T11:49:32Z</time>
      </trkpt>
      <trkpt lat="42.0828850" lon="-8.8904910">
        <ele>40.2</ele>
        <time>2021-05-19T11:49:33Z</time>
      </trkpt>
      <trkpt lat="42.0828850" lon="-8.8904910">
        <ele>40.2</ele>
        <time>2021-05-19T11:49:34Z</time>
      </trkpt>
      <trkpt lat="42.0828850" lon="-8.8904910">
        <ele>40.2</ele>
        <time>2021-05-19T11:49:35Z</time>
      </trkpt>
      <trkpt lat="42.0828850" lon="-8.8904910">
        <ele>40.2</ele>
        <time>2021-05-19T11:49:36Z</time>
      </trkpt>
      <trkpt lat="42.0828850" lon="-8.8904910">
        <ele>40.2</ele>
        <time>2021-05-19T11:49:37Z</time>
      </trkpt>
      <trkpt lat="42.0828850" lon="-8.8904910">
        <ele>40.2</ele>
        <time>2021-05-19T11:49:38Z</time>
      </trkpt>
      <trkpt lat="42.0828850" lon="-8.8904910">
        <ele>40.2</ele>
        <time>2021-05-19T11:49:39Z</time>
      </trkpt>
      <trkpt lat="42.0828850" lon="-8.8904910">
        <ele>40.2</ele>
        <time>2021-05-19T11:49:40Z</time>
      </trkpt>
      <trkpt lat="42.0828850" lon="-8.8904910">
        <ele>40.2</ele>
        <time>2021-05-19T11:49:41Z</time>
      </trkpt>
      <trkpt lat="42.0828860" lon="-8.8904910">
        <ele>40.2</ele>
        <time>2021-05-19T11:49:42Z</time>
      </trkpt>
      <trkpt lat="42.0828860" lon="-8.8904910">
        <ele>40.2</ele>
        <time>2021-05-19T11:49:43Z</time>
      </trkpt>
      <trkpt lat="42.0828860" lon="-8.8904910">
        <ele>40.2</ele>
        <time>2021-05-19T11:49:44Z</time>
      </trkpt>
      <trkpt lat="42.0828860" lon="-8.8904910">
        <ele>40.2</ele>
        <time>2021-05-19T11:49:45Z</time>
      </trkpt>
      <trkpt lat="42.0828860" lon="-8.8904910">
        <ele>40.2</ele>
        <time>2021-05-19T11:49:46Z</time>
      </trkpt>
      <trkpt lat="42.0828860" lon="-8.8904910">
        <ele>40.2</ele>
        <time>2021-05-19T11:49:47Z</time>
      </trkpt>
      <trkpt lat="42.0828860" lon="-8.8904910">
        <ele>40.2</ele>
        <time>2021-05-19T11:49:48Z</time>
      </trkpt>
      <trkpt lat="42.0828860" lon="-8.8904910">
        <ele>40.2</ele>
        <time>2021-05-19T11:49:49Z</time>
      </trkpt>
      <trkpt lat="42.0828860" lon="-8.8904910">
        <ele>40.2</ele>
        <time>2021-05-19T11:49:50Z</time>
      </trkpt>
      <trkpt lat="42.0828860" lon="-8.8904910">
        <ele>40.2</ele>
        <time>2021-05-19T11:49:51Z</time>
      </trkpt>
      <trkpt lat="42.0828860" lon="-8.8904910">
        <ele>40.2</ele>
        <time>2021-05-19T11:49:52Z</time>
      </trkpt>
      <trkpt lat="42.0828860" lon="-8.8904910">
        <ele>40.2</ele>
        <time>2021-05-19T11:49:53Z</time>
      </trkpt>
      <trkpt lat="42.0828860" lon="-8.8904910">
        <ele>40.2</ele>
        <time>2021-05-19T11:49:54Z</time>
      </trkpt>
      <trkpt lat="42.0828860" lon="-8.8904910">
        <ele>40.2</ele>
        <time>2021-05-19T11:49:55Z</time>
      </trkpt>
      <trkpt lat="42.0828860" lon="-8.8904910">
        <ele>40.2</ele>
        <time>2021-05-19T11:49:56Z</time>
      </trkpt>
      <trkpt lat="42.0828860" lon="-8.8904910">
        <ele>40.2</ele>
        <time>2021-05-19T11:49:57Z</time>
      </trkpt>
      <trkpt lat="42.0828860" lon="-8.8904910">
        <ele>40.2</ele>
        <time>2021-05-19T11:49:58Z</time>
      </trkpt>
      <trkpt lat="42.0828860" lon="-8.8904910">
        <ele>40.2</ele>
        <time>2021-05-19T11:49:59Z</time>
      </trkpt>
      <trkpt lat="42.0828860" lon="-8.8904910">
        <ele>40.2</ele>
        <time>2021-05-19T11:50:00Z</time>
      </trkpt>
      <trkpt lat="42.0828870" lon="-8.8904910">
        <ele>40.2</ele>
        <time>2021-05-19T11:50:01Z</time>
      </trkpt>
      <trkpt lat="42.0828870" lon="-8.8904910">
        <ele>40.2</ele>
        <time>2021-05-19T11:50:02Z</time>
      </trkpt>
      <trkpt lat="42.0828870" lon="-8.8904910">
        <ele>40.2</ele>
        <time>2021-05-19T11:50:03Z</time>
      </trkpt>
      <trkpt lat="42.0828870" lon="-8.8904910">
        <ele>40.2</ele>
        <time>2021-05-19T11:50:04Z</time>
      </trkpt>
      <trkpt lat="42.0828870" lon="-8.8904910">
        <ele>40.2</ele>
        <time>2021-05-19T11:50:05Z</time>
      </trkpt>
      <trkpt lat="42.0828870" lon="-8.8904910">
        <ele>40.2</ele>
        <time>2021-05-19T11:50:06Z</time>
      </trkpt>
      <trkpt lat="42.0828870" lon="-8.8904910">
        <ele>40.2</ele>
        <time>2021-05-19T11:50:07Z</time>
      </trkpt>
      <trkpt lat="42.0828870" lon="-8.8904910">
        <ele>40.2</ele>
        <time>2021-05-19T11:50:08Z</time>
      </trkpt>
      <trkpt lat="42.0828870" lon="-8.8904910">
        <ele>40.2</ele>
        <time>2021-05-19T11:50:09Z</time>
      </trkpt>
      <trkpt lat="42.0828870" lon="-8.8904910">
        <ele>40.2</ele>
        <time>2021-05-19T11:50:10Z</time>
      </trkpt>
      <trkpt lat="42.0828870" lon="-8.8904910">
        <ele>40.2</ele>
        <time>2021-05-19T11:50:11Z</time>
      </trkpt>
      <trkpt lat="42.0828870" lon="-8.8904910">
        <ele>40.2</ele>
        <time>2021-05-19T11:50:12Z</time>
      </trkpt>
      <trkpt lat="42.0828870" lon="-8.8904910">
        <ele>40.2</ele>
        <time>2021-05-19T11:50:13Z</time>
      </trkpt>
      <trkpt lat="42.0828870" lon="-8.8904910">
        <ele>40.2</ele>
        <time>2021-05-19T11:50:14Z</time>
      </trkpt>
      <trkpt lat="42.0828870" lon="-8.8904910">
        <ele>40.2</ele>
        <time>2021-05-19T11:50:15Z</time>
      </trkpt>
      <trkpt lat="42.0828870" lon="-8.8904910">
        <ele>40.2</ele>
        <time>2021-05-19T11:50:16Z</time>
      </trkpt>
      <trkpt lat="42.0828870" lon="-8.8904910">
        <ele>40.2</ele>
        <time>2021-05-19T11:50:17Z</time>
      </trkpt>
      <trkpt lat="42.0828870" lon="-8.8904910">
        <ele>40.2</ele>
        <time>2021-05-19T11:50:18Z</time>
      </trkpt>
      <trkpt lat="42.0828870" lon="-8.8904910">
        <ele>40.2</ele>
        <time>2021-05-19T11:50:19Z</time>
      </trkpt>
      <trkpt lat="42.0828870" lon="-8.8904910">
        <ele>40.2</ele>
        <time>2021-05-19T11:50:20Z</time>
      </trkpt>
      <trkpt lat="42.0828880" lon="-8.8904910">
        <ele>40.2</ele>
        <time>2021-05-19T11:50:21Z</time>
      </trkpt>
      <trkpt lat="42.0828880" lon="-8.8904910">
        <ele>40.2</ele>
        <time>2021-05-19T11:50:22Z</time>
      </trkpt>
      <trkpt lat="42.0828880" lon="-8.8904910">
        <ele>40.2</ele>
        <time>2021-05-19T11:50:23Z</time>
      </trkpt>
      <trkpt lat="42.0828880" lon="-8.8904910">
        <ele>40.2</ele>
        <time>2021-05-19T11:50:24Z</time>
      </trkpt>
      <trkpt lat="42.0828880" lon="-8.8904910">
        <ele>40.2</ele>
        <time>2021-05-19T11:50:25Z</time>
      </trkpt>
      <trkpt lat="42.0828880" lon="-8.8904910">
        <ele>40.2</ele>
        <time>2021-05-19T11:50:26Z</time>
      </trkpt>
      <trkpt lat="42.0828880" lon="-8.8904910">
        <ele>40.2</ele>
        <time>2021-05-19T11:50:27Z</time>
      </trkpt>
      <trkpt lat="42.0828880" lon="-8.8904910">
        <ele>40.2</ele>
        <time>2021-05-19T11:50:28Z</time>
      </trkpt>
      <trkpt lat="42.0828880" lon="-8.8904910">
        <ele>40.2</ele>
        <time>2021-05-19T11:50:29Z</time>
      </trkpt>
      <trkpt lat="42.0828880" lon="-8.8904910">
        <ele>40.2</ele>
        <time>2021-05-19T11:50:30Z</time>
      </trkpt>
      <trkpt lat="42.0828880" lon="-8.8904910">
        <ele>40.2</ele>
        <time>2021-05-19T11:50:31Z</time>
      </trkpt>
      <trkpt lat="42.0828880" lon="-8.8904910">
        <ele>40.2</ele>
        <time>2021-05-19T11:50:32Z</time>
      </trkpt>
      <trkpt lat="42.0828880" lon="-8.8904910">
        <ele>40.2</ele>
        <time>2021-05-19T11:50:33Z</time>
      </trkpt>
      <trkpt lat="42.0828880" lon="-8.8904910">
        <ele>40.2</ele>
        <time>2021-05-19T11:50:34Z</time>
      </trkpt>
      <trkpt lat="42.0828880" lon="-8.8904910">
        <ele>40.2</ele>
        <time>2021-05-19T11:50:35Z</time>
      </trkpt>
      <trkpt lat="42.0828880" lon="-8.8904910">
        <ele>40.2</ele>
        <time>2021-05-19T11:50:36Z</time>
      </trkpt>
      <trkpt lat="42.0828880" lon="-8.8904910">
        <ele>40.2</ele>
        <time>2021-05-19T11:50:37Z</time>
      </trkpt>
      <trkpt lat="42.0828880" lon="-8.8904910">
        <ele>40.2</ele>
        <time>2021-05-19T11:50:38Z</time>
      </trkpt>
      <trkpt lat="42.0828880" lon="-8.8904910">
        <ele>40.2</ele>
        <time>2021-05-19T11:50:39Z</time>
      </trkpt>
      <trkpt lat="42.0828890" lon="-8.8904910">
        <ele>40.2</ele>
        <time>2021-05-19T11:50:40Z</time>
      </trkpt>
      <trkpt lat="42.0828890" lon="-8.8904910">
        <ele>40.2</ele>
        <time>2021-05-19T11:50:41Z</time>
      </trkpt>
      <trkpt lat="42.0828890" lon="-8.8904910">
        <ele>40.2</ele>
        <time>2021-05-19T11:50:42Z</time>
      </trkpt>
      <trkpt lat="42.0828890" lon="-8.8904910">
        <ele>40.2</ele>
        <time>2021-05-19T11:50:43Z</time>
      </trkpt>
      <trkpt lat="42.0828890" lon="-8.8904910">
        <ele>40.2</ele>
        <time>2021-05-19T11:50:44Z</time>
      </trkpt>
      <trkpt lat="42.0828890" lon="-8.8904910">
        <ele>40.2</ele>
        <time>2021-05-19T11:50:45Z</time>
      </trkpt>
      <trkpt lat="42.0828890" lon="-8.8904910">
        <ele>40.2</ele>
        <time>2021-05-19T11:50:46Z</time>
      </trkpt>
      <trkpt lat="42.0828890" lon="-8.8904910">
        <ele>40.2</ele>
        <time>2021-05-19T11:50:47Z</time>
      </trkpt>
      <trkpt lat="42.0828890" lon="-8.8904910">
        <ele>40.2</ele>
        <time>2021-05-19T11:50:48Z</time>
      </trkpt>
      <trkpt lat="42.0828890" lon="-8.8904910">
        <ele>40.2</ele>
        <time>2021-05-19T11:50:49Z</time>
      </trkpt>
      <trkpt lat="42.0828890" lon="-8.8904910">
        <ele>40.2</ele>
        <time>2021-05-19T11:50:50Z</time>
      </trkpt>
      <trkpt lat="42.0828890" lon="-8.8904910">
        <ele>40.2</ele>
        <time>2021-05-19T11:50:51Z</time>
      </trkpt>
      <trkpt lat="42.0828890" lon="-8.8904910">
        <ele>40.2</ele>
        <time>2021-05-19T11:50:52Z</time>
      </trkpt>
      <trkpt lat="42.0828890" lon="-8.8904910">
        <ele>40.2</ele>
        <time>2021-05-19T11:50:53Z</time>
      </trkpt>
      <trkpt lat="42.0828890" lon="-8.8904910">
        <ele>40.2</ele>
        <time>2021-05-19T11:50:54Z</time>
      </trkpt>
      <trkpt lat="42.0828890" lon="-8.8904910">
        <ele>40.2</ele>
        <time>2021-05-19T11:50:55Z</time>
      </trkpt>
      <trkpt lat="42.0828890" lon="-8.8904910">
        <ele>40.2</ele>
        <time>2021-05-19T11:50:56Z</time>
      </trkpt>
      <trkpt lat="42.0828890" lon="-8.8904910">
        <ele>40.2</ele>
        <time>2021-05-19T11:50:57Z</time>
      </trkpt>
      <trkpt lat="42.0828890" lon="-8.8904910">
        <ele>40.2</ele>
        <time>2021-05-19T11:50:58Z</time>
      </trkpt>
      <trkpt lat="42.0828900" lon="-8.8904910">
        <ele>40.2</ele>
        <time>2021-05-19T11:50:59Z</time>
      </trkpt>
      <trkpt lat="42.0828900" lon="-8.8904910">
        <ele>40.2</ele>
        <time>2021-05-19T11:51:00Z</time>
      </trkpt>
      <trkpt lat="42.0828900" lon="-8.8904910">
        <ele>40.2</ele>
        <time>2021-05-19T11:51:01Z</time>
      </trkpt>
      <trkpt lat="42.0828900" lon="-8.8904910">
        <ele>40.2</ele>
        <time>2021-05-19T11:51:02Z</time>
      </trkpt>
      <trkpt lat="42.0828900" lon="-8.8904910">
        <ele>40.2</ele>
        <time>2021-05-19T11:51:03Z</time>
      </trkpt>
      <trkpt lat="42.0828900" lon="-8.8904910">
        <ele>40.2</ele>
        <time>2021-05-19T11:51:04Z</time>
      </trkpt>
      <trkpt lat="42.0828900" lon="-8.8904910">
        <ele>40.2</ele>
        <time>2021-05-19T11:51:05Z</time>
      </trkpt>
      <trkpt lat="42.0828900" lon="-8.8904910">
        <ele>40.2</ele>
        <time>2021-05-19T11:51:06Z</time>
      </trkpt>
      <trkpt lat="42.0828900" lon="-8.8904910">
        <ele>40.2</ele>
        <time>2021-05-19T11:51:07Z</time>
      </trkpt>
      <trkpt lat="42.0828900" lon="-8.8904910">
        <ele>40.2</ele>
        <time>2021-05-19T11:51:08Z</time>
      </trkpt>
      <trkpt lat="42.0828900" lon="-8.8904910">
        <ele>40.2</ele>
        <time>2021-05-19T11:51:09Z</time>
      </trkpt>
      <trkpt lat="42.0828900" lon="-8.8904910">
        <ele>40.2</ele>
        <time>2021-05-19T11:51:10Z</time>
      </trkpt>
      <trkpt lat="42.0828900" lon="-8.8904910">
        <ele>40.2</ele>
        <time>2021-05-19T11:51:11Z</time>
      </trkpt>
      <trkpt lat="42.0828900" lon="-8.8904910">
        <ele>40.2</ele>
        <time>2021-05-19T11:51:12Z</time>
      </trkpt>
      <trkpt lat="42.0828900" lon="-8.8904910">
        <ele>40.2</ele>
        <time>2021-05-19T11:51:13Z</time>
      </trkpt>
      <trkpt lat="42.0828900" lon="-8.8904910">
        <ele>40.2</ele>
        <time>2021-05-19T11:51:14Z</time>
      </trkpt>
      <trkpt lat="42.0828900" lon="-8.8904910">
        <ele>40.2</ele>
        <time>2021-05-19T11:51:15Z</time>
      </trkpt>
      <trkpt lat="42.0828900" lon="-8.8904910">
        <ele>40.2</ele>
        <time>2021-05-19T11:51:16Z</time>
      </trkpt>
      <trkpt lat="42.0828900" lon="-8.8904910">
        <ele>40.2</ele>
        <time>2021-05-19T11:51:17Z</time>
      </trkpt>
      <trkpt lat="42.0828910" lon="-8.8904910">
        <ele>40.2</ele>
        <time>2021-05-19T11:51:18Z</time>
      </trkpt>
      <trkpt lat="42.0828910" lon="-8.8904910">
        <ele>40.2</ele>
        <time>2021-05-19T11:51:19Z</time>
      </trkpt>
      <trkpt lat="42.0828910" lon="-8.8904910">
        <ele>40.2</ele>
        <time>2021-05-19T11:51:20Z</time>
      </trkpt>
      <trkpt lat="42.0828910" lon="-8.8904910">
        <ele>40.2</ele>
        <time>2021-05-19T11:51:21Z</time>
      </trkpt>
      <trkpt lat="42.0828910" lon="-8.8904910">
        <ele>40.2</ele>
        <time>2021-05-19T11:51:22Z</time>
      </trkpt>
      <trkpt lat="42.0828910" lon="-8.8904910">
        <ele>40.2</ele>
        <time>2021-05-19T11:51:23Z</time>
      </trkpt>
      <trkpt lat="42.0828910" lon="-8.8904910">
        <ele>40.2</ele>
        <time>2021-05-19T11:51:24Z</time>
      </trkpt>
      <trkpt lat="42.0828910" lon="-8.8904910">
        <ele>40.2</ele>
        <time>2021-05-19T11:51:25Z</time>
      </trkpt>
      <trkpt lat="42.0828910" lon="-8.8904910">
        <ele>40.2</ele>
        <time>2021-05-19T11:51:26Z</time>
      </trkpt>
      <trkpt lat="42.0828910" lon="-8.8904910">
        <ele>40.2</ele>
        <time>2021-05-19T11:51:27Z</time>
      </trkpt>
      <trkpt lat="42.0828910" lon="-8.8904910">
        <ele>40.2</ele>
        <time>2021-05-19T11:51:28Z</time>
      </trkpt>
      <trkpt lat="42.0828910" lon="-8.8904910">
        <ele>40.2</ele>
        <time>2021-05-19T11:51:29Z</time>
      </trkpt>
      <trkpt lat="42.0828910" lon="-8.8904910">
        <ele>40.2</ele>
        <time>2021-05-19T11:51:30Z</time>
      </trkpt>
      <trkpt lat="42.0828910" lon="-8.8904910">
        <ele>40.2</ele>
        <time>2021-05-19T11:51:31Z</time>
      </trkpt>
      <trkpt lat="42.0828910" lon="-8.8904910">
        <ele>40.2</ele>
        <time>2021-05-19T11:51:32Z</time>
      </trkpt>
      <trkpt lat="42.0828910" lon="-8.8904910">
        <ele>40.2</ele>
        <time>2021-05-19T11:51:33Z</time>
      </trkpt>
      <trkpt lat="42.0828910" lon="-8.8904910">
        <ele>40.2</ele>
        <time>2021-05-19T11:51:34Z</time>
      </trkpt>
      <trkpt lat="42.0828910" lon="-8.8904910">
        <ele>40.2</ele>
        <time>2021-05-19T11:51:35Z</time>
      </trkpt>
      <trkpt lat="42.0828910" lon="-8.8904910">
        <ele>40.2</ele>
        <time>2021-05-19T11:51:36Z</time>
      </trkpt>
      <trkpt lat="42.0828920" lon="-8.8904910">
        <ele>40.2</ele>
        <time>2021-05-19T11:51:37Z</time>
      </trkpt>
      <trkpt lat="42.0828920" lon="-8.8904910">
        <ele>40.2</ele>
        <time>2021-05-19T11:51:38Z</time>
      </trkpt>
      <trkpt lat="42.0828920" lon="-8.8904910">
        <ele>40.2</ele>
        <time>2021-05-19T11:51:39Z</time>
      </trkpt>
      <trkpt lat="42.0828920" lon="-8.8904910">
        <ele>40.2</ele>
        <time>2021-05-19T11:51:40Z</time>
      </trkpt>
      <trkpt lat="42.0828920" lon="-8.8904910">
        <ele>40.2</ele>
        <time>2021-05-19T11:51:41Z</time>
      </trkpt>
      <trkpt lat="42.0828920" lon="-8.8904910">
        <ele>40.2</ele>
        <time>2021-05-19T11:51:42Z</time>
      </trkpt>
      <trkpt lat="42.0828920" lon="-8.8904910">
        <ele>40.2</ele>
        <time>2021-05-19T11:51:43Z</time>
      </trkpt>
      <trkpt lat="42.0828920" lon="-8.8904910">
        <ele>40.2</ele>
        <time>2021-05-19T11:51:44Z</time>
      </trkpt>
      <trkpt lat="42.0828920" lon="-8.8904910">
        <ele>40.2</ele>
        <time>2021-05-19T11:51:45Z</time>
      </trkpt>
      <trkpt lat="42.0828920" lon="-8.8904910">
        <ele>40.2</ele>
        <time>2021-05-19T11:51:46Z</time>
      </trkpt>
      <trkpt lat="42.0828920" lon="-8.8904910">
        <ele>40.2</ele>
        <time>2021-05-19T11:51:47Z</time>
      </trkpt>
      <trkpt lat="42.0828920" lon="-8.8904910">
        <ele>40.2</ele>
        <time>2021-05-19T11:51:48Z</time>
      </trkpt>
      <trkpt lat="42.0828920" lon="-8.8904910">
        <ele>40.2</ele>
        <time>2021-05-19T11:51:49Z</time>
      </trkpt>
      <trkpt lat="42.0828920" lon="-8.8904910">
        <ele>40.2</ele>
        <time>2021-05-19T11:51:50Z</time>
      </trkpt>
      <trkpt lat="42.0828920" lon="-8.8904910">
        <ele>40.2</ele>
        <time>2021-05-19T11:51:51Z</time>
      </trkpt>
      <trkpt lat="42.0828920" lon="-8.8904910">
        <ele>40.2</ele>
        <time>2021-05-19T11:51:52Z</time>
      </trkpt>
      <trkpt lat="42.0828920" lon="-8.8904910">
        <ele>40.2</ele>
        <time>2021-05-19T11:51:53Z</time>
      </trkpt>
      <trkpt lat="42.0828920" lon="-8.8904910">
        <ele>40.2</ele>
        <time>2021-05-19T11:51:54Z</time>
      </trkpt>
      <trkpt lat="42.0828920" lon="-8.8904910">
        <ele>40.2</ele>
        <time>2021-05-19T11:51:55Z</time>
      </trkpt>
      <trkpt lat="42.0828920" lon="-8.8904910">
        <ele>40.2</ele>
        <time>2021-05-19T11:51:56Z</time>
      </trkpt>
      <trkpt lat="42.0828930" lon="-8.8904910">
        <ele>40.2</ele>
        <time>2021-05-19T11:51:57Z</time>
      </trkpt>
      <trkpt lat="42.0828930" lon="-8.8904910">
        <ele>40.2</ele>
        <time>2021-05-19T11:51:58Z</time>
      </trkpt>
      <trkpt lat="42.0828930" lon="-8.8904910">
        <ele>40.2</ele>
        <time>2021-05-19T11:51:59Z</time>
      </trkpt>
      <trkpt lat="42.0828930" lon="-8.8904910">
        <ele>40.2</ele>
        <time>2021-05-19T11:52:00Z</time>
      </trkpt>
      <trkpt lat="42.0828930" lon="-8.8904910">
        <ele>40.2</ele>
        <time>2021-05-19T11:52:01Z</time>
      </trkpt>
      <trkpt lat="42.0828930" lon="-8.8904910">
        <ele>40.2</ele>
        <time>2021-05-19T11:52:02Z</time>
      </trkpt>
      <trkpt lat="42.0828930" lon="-8.8904910">
        <ele>40.2</ele>
        <time>2021-05-19T11:52:03Z</time>
      </trkpt>
      <trkpt lat="42.0828930" lon="-8.8904910">
        <ele>40.2</ele>
        <time>2021-05-19T11:52:04Z</time>
      </trkpt>
      <trkpt lat="42.0828930" lon="-8.8904910">
        <ele>40.2</ele>
        <time>2021-05-19T11:52:05Z</time>
      </trkpt>
      <trkpt lat="42.0828930" lon="-8.8904910">
        <ele>40.2</ele>
        <time>2021-05-19T11:52:06Z</time>
      </trkpt>
      <trkpt lat="42.0828930" lon="-8.8904910">
        <ele>40.2</ele>
        <time>2021-05-19T11:52:07Z</time>
      </trkpt>
      <trkpt lat="42.0828930" lon="-8.8904910">
        <ele>40.2</ele>
        <time>2021-05-19T11:52:08Z</time>
      </trkpt>
      <trkpt lat="42.0828930" lon="-8.8904910">
        <ele>40.2</ele>
        <time>2021-05-19T11:52:09Z</time>
      </trkpt>
      <trkpt lat="42.0828930" lon="-8.8904910">
        <ele>40.2</ele>
        <time>2021-05-19T11:52:10Z</time>
      </trkpt>
      <trkpt lat="42.0828930" lon="-8.8904900">
        <ele>40.2</ele>
        <time>2021-05-19T11:52:11Z</time>
      </trkpt>
      <trkpt lat="42.0828930" lon="-8.8904900">
        <ele>40.2</ele>
        <time>2021-05-19T11:52:12Z</time>
      </trkpt>
      <trkpt lat="42.0828930" lon="-8.8904900">
        <ele>40.2</ele>
        <time>2021-05-19T11:52:13Z</time>
      </trkpt>
      <trkpt lat="42.0828930" lon="-8.8904900">
        <ele>40.2</ele>
        <time>2021-05-19T11:52:14Z</time>
      </trkpt>
      <trkpt lat="42.0828930" lon="-8.8904900">
        <ele>40.2</ele>
        <time>2021-05-19T11:52:15Z</time>
      </trkpt>
      <trkpt lat="42.0828940" lon="-8.8904900">
        <ele>40.2</ele>
        <time>2021-05-19T11:52:16Z</time>
      </trkpt>
      <trkpt lat="42.0828940" lon="-8.8904900">
        <ele>40.2</ele>
        <time>2021-05-19T11:52:17Z</time>
      </trkpt>
      <trkpt lat="42.0828940" lon="-8.8904900">
        <ele>40.2</ele>
        <time>2021-05-19T11:52:18Z</time>
      </trkpt>
      <trkpt lat="42.0828940" lon="-8.8904900">
        <ele>40.2</ele>
        <time>2021-05-19T11:52:19Z</time>
      </trkpt>
      <trkpt lat="42.0828940" lon="-8.8904900">
        <ele>40.2</ele>
        <time>2021-05-19T11:52:20Z</time>
      </trkpt>
      <trkpt lat="42.0828940" lon="-8.8904900">
        <ele>40.2</ele>
        <time>2021-05-19T11:52:21Z</time>
      </trkpt>
      <trkpt lat="42.0828940" lon="-8.8904900">
        <ele>40.2</ele>
        <time>2021-05-19T11:52:22Z</time>
      </trkpt>
      <trkpt lat="42.0828940" lon="-8.8904900">
        <ele>40.2</ele>
        <time>2021-05-19T11:52:23Z</time>
      </trkpt>
      <trkpt lat="42.0828940" lon="-8.8904900">
        <ele>40.2</ele>
        <time>2021-05-19T11:52:24Z</time>
      </trkpt>
      <trkpt lat="42.0828940" lon="-8.8904900">
        <ele>40.2</ele>
        <time>2021-05-19T11:52:26Z</time>
      </trkpt>
      <trkpt lat="42.0828940" lon="-8.8904900">
        <ele>40.2</ele>
        <time>2021-05-19T11:52:27Z</time>
      </trkpt>
      <trkpt lat="42.0828940" lon="-8.8904900">
        <ele>40.2</ele>
        <time>2021-05-19T11:52:28Z</time>
      </trkpt>
      <trkpt lat="42.0828940" lon="-8.8904900">
        <ele>40.2</ele>
        <time>2021-05-19T11:52:29Z</time>
      </trkpt>
      <trkpt lat="42.0828940" lon="-8.8904900">
        <ele>40.2</ele>
        <time>2021-05-19T11:52:30Z</time>
      </trkpt>
      <trkpt lat="42.0828940" lon="-8.8904900">
        <ele>40.2</ele>
        <time>2021-05-19T11:52:31Z</time>
      </trkpt>
      <trkpt lat="42.0828940" lon="-8.8904900">
        <ele>40.2</ele>
        <time>2021-05-19T11:52:32Z</time>
      </trkpt>
      <trkpt lat="42.0828940" lon="-8.8904900">
        <ele>40.2</ele>
        <time>2021-05-19T11:52:33Z</time>
      </trkpt>
      <trkpt lat="42.0828940" lon="-8.8904900">
        <ele>40.2</ele>
        <time>2021-05-19T11:52:34Z</time>
      </trkpt>
      <trkpt lat="42.0828940" lon="-8.8904900">
        <ele>40.2</ele>
        <time>2021-05-19T11:52:35Z</time>
      </trkpt>
      <trkpt lat="42.0828950" lon="-8.8904900">
        <ele>40.2</ele>
        <time>2021-05-19T11:52:36Z</time>
      </trkpt>
      <trkpt lat="42.0828950" lon="-8.8904900">
        <ele>40.2</ele>
        <time>2021-05-19T11:52:37Z</time>
      </trkpt>
      <trkpt lat="42.0828950" lon="-8.8904900">
        <ele>40.2</ele>
        <time>2021-05-19T11:52:38Z</time>
      </trkpt>
      <trkpt lat="42.0828950" lon="-8.8904900">
        <ele>40.2</ele>
        <time>2021-05-19T11:52:39Z</time>
      </trkpt>
      <trkpt lat="42.0828950" lon="-8.8904900">
        <ele>40.2</ele>
        <time>2021-05-19T11:52:40Z</time>
      </trkpt>
      <trkpt lat="42.0828950" lon="-8.8904900">
        <ele>40.2</ele>
        <time>2021-05-19T11:52:41Z</time>
      </trkpt>
      <trkpt lat="42.0828950" lon="-8.8904900">
        <ele>40.2</ele>
        <time>2021-05-19T11:52:42Z</time>
      </trkpt>
      <trkpt lat="42.0828950" lon="-8.8904900">
        <ele>40.2</ele>
        <time>2021-05-19T11:52:43Z</time>
      </trkpt>
      <trkpt lat="42.0828950" lon="-8.8904900">
        <ele>40.2</ele>
        <time>2021-05-19T11:52:44Z</time>
      </trkpt>
      <trkpt lat="42.0828950" lon="-8.8904900">
        <ele>40.2</ele>
        <time>2021-05-19T11:52:45Z</time>
      </trkpt>
      <trkpt lat="42.0828950" lon="-8.8904900">
        <ele>40.2</ele>
        <time>2021-05-19T11:52:46Z</time>
      </trkpt>
      <trkpt lat="42.0828950" lon="-8.8904900">
        <ele>40.2</ele>
        <time>2021-05-19T11:52:47Z</time>
      </trkpt>
      <trkpt lat="42.0828950" lon="-8.8904900">
        <ele>40.2</ele>
        <time>2021-05-19T11:52:48Z</time>
      </trkpt>
      <trkpt lat="42.0828950" lon="-8.8904900">
        <ele>40.2</ele>
        <time>2021-05-19T11:52:49Z</time>
      </trkpt>
      <trkpt lat="42.0828950" lon="-8.8904900">
        <ele>40.2</ele>
        <time>2021-05-19T11:52:50Z</time>
      </trkpt>
      <trkpt lat="42.0828950" lon="-8.8904900">
        <ele>40.2</ele>
        <time>2021-05-19T11:52:51Z</time>
      </trkpt>
      <trkpt lat="42.0828950" lon="-8.8904900">
        <ele>40.2</ele>
        <time>2021-05-19T11:52:52Z</time>
      </trkpt>
      <trkpt lat="42.0828950" lon="-8.8904900">
        <ele>40.2</ele>
        <time>2021-05-19T11:52:53Z</time>
      </trkpt>
      <trkpt lat="42.0828950" lon="-8.8904900">
        <ele>40.2</ele>
        <time>2021-05-19T11:52:54Z</time>
      </trkpt>
      <trkpt lat="42.0828960" lon="-8.8904900">
        <ele>40.2</ele>
        <time>2021-05-19T11:52:55Z</time>
      </trkpt>
      <trkpt lat="42.0828960" lon="-8.8904900">
        <ele>40.2</ele>
        <time>2021-05-19T11:52:56Z</time>
      </trkpt>
      <trkpt lat="42.0828960" lon="-8.8904900">
        <ele>40.2</ele>
        <time>2021-05-19T11:52:57Z</time>
      </trkpt>
      <trkpt lat="42.0828960" lon="-8.8904900">
        <ele>40.2</ele>
        <time>2021-05-19T11:52:58Z</time>
      </trkpt>
      <trkpt lat="42.0828960" lon="-8.8904900">
        <ele>40.2</ele>
        <time>2021-05-19T11:52:59Z</time>
      </trkpt>
      <trkpt lat="42.0828960" lon="-8.8904900">
        <ele>40.2</ele>
        <time>2021-05-19T11:53:00Z</time>
      </trkpt>
      <trkpt lat="42.0828960" lon="-8.8904900">
        <ele>40.2</ele>
        <time>2021-05-19T11:53:01Z</time>
      </trkpt>
      <trkpt lat="42.0828960" lon="-8.8904900">
        <ele>40.2</ele>
        <time>2021-05-19T11:53:02Z</time>
      </trkpt>
      <trkpt lat="42.0828960" lon="-8.8904900">
        <ele>40.2</ele>
        <time>2021-05-19T11:53:03Z</time>
      </trkpt>
      <trkpt lat="42.0828960" lon="-8.8904900">
        <ele>40.2</ele>
        <time>2021-05-19T11:53:04Z</time>
      </trkpt>
      <trkpt lat="42.0828960" lon="-8.8904900">
        <ele>40.2</ele>
        <time>2021-05-19T11:53:05Z</time>
      </trkpt>
      <trkpt lat="42.0828960" lon="-8.8904900">
        <ele>40.2</ele>
        <time>2021-05-19T11:53:06Z</time>
      </trkpt>
      <trkpt lat="42.0828960" lon="-8.8904900">
        <ele>40.2</ele>
        <time>2021-05-19T11:53:07Z</time>
      </trkpt>
      <trkpt lat="42.0828960" lon="-8.8904900">
        <ele>40.2</ele>
        <time>2021-05-19T11:53:08Z</time>
      </trkpt>
      <trkpt lat="42.0828960" lon="-8.8904900">
        <ele>40.2</ele>
        <time>2021-05-19T11:53:09Z</time>
      </trkpt>
      <trkpt lat="42.0828960" lon="-8.8904900">
        <ele>40.2</ele>
        <time>2021-05-19T11:53:10Z</time>
      </trkpt>
      <trkpt lat="42.0828960" lon="-8.8904900">
        <ele>40.2</ele>
        <time>2021-05-19T11:53:11Z</time>
      </trkpt>
      <trkpt lat="42.0828960" lon="-8.8904900">
        <ele>40.2</ele>
        <time>2021-05-19T11:53:12Z</time>
      </trkpt>
      <trkpt lat="42.0828960" lon="-8.8904900">
        <ele>40.2</ele>
        <time>2021-05-19T11:53:13Z</time>
      </trkpt>
      <trkpt lat="42.0828970" lon="-8.8904900">
        <ele>40.2</ele>
        <time>2021-05-19T11:53:14Z</time>
      </trkpt>
      <trkpt lat="42.0828970" lon="-8.8904900">
        <ele>40.2</ele>
        <time>2021-05-19T11:53:15Z</time>
      </trkpt>
      <trkpt lat="42.0828970" lon="-8.8904900">
        <ele>40.2</ele>
        <time>2021-05-19T11:53:16Z</time>
      </trkpt>
      <trkpt lat="42.0828970" lon="-8.8904900">
        <ele>40.2</ele>
        <time>2021-05-19T11:53:17Z</time>
      </trkpt>
      <trkpt lat="42.0828970" lon="-8.8904900">
        <ele>40.2</ele>
        <time>2021-05-19T11:53:18Z</time>
      </trkpt>
      <trkpt lat="42.0828970" lon="-8.8904900">
        <ele>40.2</ele>
        <time>2021-05-19T11:53:19Z</time>
      </trkpt>
      <trkpt lat="42.0828970" lon="-8.8904900">
        <ele>40.2</ele>
        <time>2021-05-19T11:53:20Z</time>
      </trkpt>
      <trkpt lat="42.0828970" lon="-8.8904900">
        <ele>40.2</ele>
        <time>2021-05-19T11:53:21Z</time>
      </trkpt>
      <trkpt lat="42.0828970" lon="-8.8904900">
        <ele>40.2</ele>
        <time>2021-05-19T11:53:22Z</time>
      </trkpt>
      <trkpt lat="42.0828970" lon="-8.8904900">
        <ele>40.2</ele>
        <time>2021-05-19T11:53:23Z</time>
      </trkpt>
      <trkpt lat="42.0828970" lon="-8.8904900">
        <ele>40.2</ele>
        <time>2021-05-19T11:53:24Z</time>
      </trkpt>
      <trkpt lat="42.0828970" lon="-8.8904900">
        <ele>40.2</ele>
        <time>2021-05-19T11:53:25Z</time>
      </trkpt>
      <trkpt lat="42.0828970" lon="-8.8904900">
        <ele>40.2</ele>
        <time>2021-05-19T11:53:26Z</time>
      </trkpt>
      <trkpt lat="42.0828970" lon="-8.8904900">
        <ele>40.2</ele>
        <time>2021-05-19T11:53:27Z</time>
      </trkpt>
      <trkpt lat="42.0828970" lon="-8.8904900">
        <ele>40.2</ele>
        <time>2021-05-19T11:53:28Z</time>
      </trkpt>
      <trkpt lat="42.0828970" lon="-8.8904900">
        <ele>40.2</ele>
        <time>2021-05-19T11:53:29Z</time>
      </trkpt>
      <trkpt lat="42.0828970" lon="-8.8904900">
        <ele>40.2</ele>
        <time>2021-05-19T11:53:30Z</time>
      </trkpt>
      <trkpt lat="42.0828970" lon="-8.8904900">
        <ele>40.2</ele>
        <time>2021-05-19T11:53:31Z</time>
      </trkpt>
      <trkpt lat="42.0828970" lon="-8.8904900">
        <ele>40.2</ele>
        <time>2021-05-19T11:53:32Z</time>
      </trkpt>
      <trkpt lat="42.0828970" lon="-8.8904900">
        <ele>40.2</ele>
        <time>2021-05-19T11:53:33Z</time>
      </trkpt>
      <trkpt lat="42.0828980" lon="-8.8904900">
        <ele>40.2</ele>
        <time>2021-05-19T11:53:34Z</time>
      </trkpt>
      <trkpt lat="42.0828980" lon="-8.8904900">
        <ele>40.2</ele>
        <time>2021-05-19T11:53:35Z</time>
      </trkpt>
      <trkpt lat="42.0828980" lon="-8.8904900">
        <ele>40.2</ele>
        <time>2021-05-19T11:53:36Z</time>
      </trkpt>
      <trkpt lat="42.0828980" lon="-8.8904900">
        <ele>40.2</ele>
        <time>2021-05-19T11:53:37Z</time>
      </trkpt>
      <trkpt lat="42.0828980" lon="-8.8904900">
        <ele>40.2</ele>
        <time>2021-05-19T11:53:38Z</time>
      </trkpt>
      <trkpt lat="42.0828980" lon="-8.8904900">
        <ele>40.2</ele>
        <time>2021-05-19T11:53:39Z</time>
      </trkpt>
      <trkpt lat="42.0828980" lon="-8.8904900">
        <ele>40.2</ele>
        <time>2021-05-19T11:53:40Z</time>
      </trkpt>
      <trkpt lat="42.0828980" lon="-8.8904900">
        <ele>40.2</ele>
        <time>2021-05-19T11:53:41Z</time>
      </trkpt>
      <trkpt lat="42.0828980" lon="-8.8904900">
        <ele>40.2</ele>
        <time>2021-05-19T11:53:42Z</time>
      </trkpt>
      <trkpt lat="42.0828980" lon="-8.8904900">
        <ele>40.2</ele>
        <time>2021-05-19T11:53:43Z</time>
      </trkpt>
      <trkpt lat="42.0828980" lon="-8.8904900">
        <ele>40.2</ele>
        <time>2021-05-19T11:53:44Z</time>
      </trkpt>
      <trkpt lat="42.0828980" lon="-8.8904900">
        <ele>40.2</ele>
        <time>2021-05-19T11:53:45Z</time>
      </trkpt>
      <trkpt lat="42.0828980" lon="-8.8904900">
        <ele>40.2</ele>
        <time>2021-05-19T11:53:46Z</time>
      </trkpt>
      <trkpt lat="42.0828980" lon="-8.8904900">
        <ele>40.2</ele>
        <time>2021-05-19T11:53:47Z</time>
      </trkpt>
      <trkpt lat="42.0828980" lon="-8.8904900">
        <ele>40.2</ele>
        <time>2021-05-19T11:53:48Z</time>
      </trkpt>
      <trkpt lat="42.0828980" lon="-8.8904900">
        <ele>40.2</ele>
        <time>2021-05-19T11:53:49Z</time>
      </trkpt>
      <trkpt lat="42.0828980" lon="-8.8904900">
        <ele>40.2</ele>
        <time>2021-05-19T11:53:50Z</time>
      </trkpt>
      <trkpt lat="42.0828980" lon="-8.8904900">
        <ele>40.2</ele>
        <time>2021-05-19T11:53:51Z</time>
      </trkpt>
      <trkpt lat="42.0828980" lon="-8.8904900">
        <ele>40.2</ele>
        <time>2021-05-19T11:53:52Z</time>
      </trkpt>
      <trkpt lat="42.0828990" lon="-8.8904900">
        <ele>40.2</ele>
        <time>2021-05-19T11:53:53Z</time>
      </trkpt>
      <trkpt lat="42.0828990" lon="-8.8904900">
        <ele>40.2</ele>
        <time>2021-05-19T11:53:54Z</time>
      </trkpt>
      <trkpt lat="42.0828990" lon="-8.8904900">
        <ele>40.2</ele>
        <time>2021-05-19T11:53:55Z</time>
      </trkpt>
      <trkpt lat="42.0828990" lon="-8.8904900">
        <ele>40.2</ele>
        <time>2021-05-19T11:53:56Z</time>
      </trkpt>
      <trkpt lat="42.0828990" lon="-8.8904900">
        <ele>40.2</ele>
        <time>2021-05-19T11:53:57Z</time>
      </trkpt>
      <trkpt lat="42.0828990" lon="-8.8904900">
        <ele>40.2</ele>
        <time>2021-05-19T11:53:58Z</time>
      </trkpt>
      <trkpt lat="42.0828990" lon="-8.8904900">
        <ele>40.2</ele>
        <time>2021-05-19T11:53:59Z</time>
      </trkpt>
      <trkpt lat="42.0828990" lon="-8.8904900">
        <ele>40.2</ele>
        <time>2021-05-19T11:54:00Z</time>
      </trkpt>
      <trkpt lat="42.0828990" lon="-8.8904900">
        <ele>40.2</ele>
        <time>2021-05-19T11:54:01Z</time>
      </trkpt>
      <trkpt lat="42.0828990" lon="-8.8904900">
        <ele>40.2</ele>
        <time>2021-05-19T11:54:02Z</time>
      </trkpt>
      <trkpt lat="42.0828990" lon="-8.8904900">
        <ele>40.2</ele>
        <time>2021-05-19T11:54:03Z</time>
      </trkpt>
      <trkpt lat="42.0828990" lon="-8.8904900">
        <ele>40.2</ele>
        <time>2021-05-19T11:54:04Z</time>
      </trkpt>
      <trkpt lat="42.0828990" lon="-8.8904900">
        <ele>40.2</ele>
        <time>2021-05-19T11:54:05Z</time>
      </trkpt>
      <trkpt lat="42.0828990" lon="-8.8904900">
        <ele>40.2</ele>
        <time>2021-05-19T11:54:06Z</time>
      </trkpt>
      <trkpt lat="42.0828990" lon="-8.8904900">
        <ele>40.2</ele>
        <time>2021-05-19T11:54:07Z</time>
      </trkpt>
      <trkpt lat="42.0828990" lon="-8.8904900">
        <ele>40.2</ele>
        <time>2021-05-19T11:54:08Z</time>
      </trkpt>
      <trkpt lat="42.0828990" lon="-8.8904900">
        <ele>40.2</ele>
        <time>2021-05-19T11:54:09Z</time>
      </trkpt>
      <trkpt lat="42.0828990" lon="-8.8904900">
        <ele>40.2</ele>
        <time>2021-05-19T11:54:10Z</time>
      </trkpt>
      <trkpt lat="42.0828990" lon="-8.8904900">
        <ele>40.2</ele>
        <time>2021-05-19T11:54:11Z</time>
      </trkpt>
      <trkpt lat="42.0829000" lon="-8.8904900">
        <ele>40.2</ele>
        <time>2021-05-19T11:54:12Z</time>
      </trkpt>
      <trkpt lat="42.0829000" lon="-8.8904900">
        <ele>40.2</ele>
        <time>2021-05-19T11:54:13Z</time>
      </trkpt>
      <trkpt lat="42.0829000" lon="-8.8904900">
        <ele>40.2</ele>
        <time>2021-05-19T11:54:14Z</time>
      </trkpt>
      <trkpt lat="42.0829000" lon="-8.8904900">
        <ele>40.2</ele>
        <time>2021-05-19T11:54:15Z</time>
      </trkpt>
      <trkpt lat="42.0829000" lon="-8.8904900">
        <ele>40.2</ele>
        <time>2021-05-19T11:54:16Z</time>
      </trkpt>
      <trkpt lat="42.0829000" lon="-8.8904900">
        <ele>40.2</ele>
        <time>2021-05-19T11:54:17Z</time>
      </trkpt>
      <trkpt lat="42.0829000" lon="-8.8904900">
        <ele>40.2</ele>
        <time>2021-05-19T11:54:18Z</time>
      </trkpt>
      <trkpt lat="42.0829000" lon="-8.8904900">
        <ele>40.2</ele>
        <time>2021-05-19T11:54:19Z</time>
      </trkpt>
      <trkpt lat="42.0829000" lon="-8.8904900">
        <ele>40.2</ele>
        <time>2021-05-19T11:54:20Z</time>
      </trkpt>
      <trkpt lat="42.0829000" lon="-8.8904900">
        <ele>40.2</ele>
        <time>2021-05-19T11:54:21Z</time>
      </trkpt>
      <trkpt lat="42.0829000" lon="-8.8904900">
        <ele>40.2</ele>
        <time>2021-05-19T11:54:22Z</time>
      </trkpt>
      <trkpt lat="42.0829000" lon="-8.8904900">
        <ele>40.2</ele>
        <time>2021-05-19T11:54:23Z</time>
      </trkpt>
      <trkpt lat="42.0829000" lon="-8.8904900">
        <ele>40.2</ele>
        <time>2021-05-19T11:54:24Z</time>
      </trkpt>
      <trkpt lat="42.0829000" lon="-8.8904900">
        <ele>40.2</ele>
        <time>2021-05-19T11:54:25Z</time>
      </trkpt>
      <trkpt lat="42.0829000" lon="-8.8904900">
        <ele>40.2</ele>
        <time>2021-05-19T11:54:26Z</time>
      </trkpt>
      <trkpt lat="42.0829000" lon="-8.8904900">
        <ele>40.2</ele>
        <time>2021-05-19T11:54:27Z</time>
      </trkpt>
      <trkpt lat="42.0829000" lon="-8.8904900">
        <ele>40.2</ele>
        <time>2021-05-19T11:54:28Z</time>
      </trkpt>
      <trkpt lat="42.0829000" lon="-8.8904900">
        <ele>40.2</ele>
        <time>2021-05-19T11:54:29Z</time>
      </trkpt>
      <trkpt lat="42.0829000" lon="-8.8904900">
        <ele>40.2</ele>
        <time>2021-05-19T11:54:30Z</time>
      </trkpt>
      <trkpt lat="42.0829010" lon="-8.8904900">
        <ele>40.2</ele>
        <time>2021-05-19T11:54:31Z</time>
      </trkpt>
      <trkpt lat="42.0829010" lon="-8.8904900">
        <ele>40.2</ele>
        <time>2021-05-19T11:54:32Z</time>
      </trkpt>
      <trkpt lat="42.0829010" lon="-8.8904900">
        <ele>40.2</ele>
        <time>2021-05-19T11:54:33Z</time>
      </trkpt>
      <trkpt lat="42.0829010" lon="-8.8904900">
        <ele>40.2</ele>
        <time>2021-05-19T11:54:34Z</time>
      </trkpt>
      <trkpt lat="42.0829010" lon="-8.8904900">
        <ele>40.2</ele>
        <time>2021-05-19T11:54:35Z</time>
      </trkpt>
      <trkpt lat="42.0829010" lon="-8.8904900">
        <ele>40.2</ele>
        <time>2021-05-19T11:54:36Z</time>
      </trkpt>
      <trkpt lat="42.0829010" lon="-8.8904900">
        <ele>40.2</ele>
        <time>2021-05-19T11:54:37Z</time>
      </trkpt>
      <trkpt lat="42.0829010" lon="-8.8904900">
        <ele>40.2</ele>
        <time>2021-05-19T11:54:38Z</time>
      </trkpt>
      <trkpt lat="42.0829010" lon="-8.8904900">
        <ele>40.2</ele>
        <time>2021-05-19T11:54:39Z</time>
      </trkpt>
      <trkpt lat="42.0829010" lon="-8.8904900">
        <ele>40.2</ele>
        <time>2021-05-19T11:54:40Z</time>
      </trkpt>
      <trkpt lat="42.0829010" lon="-8.8904900">
        <ele>40.2</ele>
        <time>2021-05-19T11:54:41Z</time>
      </trkpt>
      <trkpt lat="42.0829010" lon="-8.8904900">
        <ele>40.2</ele>
        <time>2021-05-19T11:54:42Z</time>
      </trkpt>
      <trkpt lat="42.0829010" lon="-8.8904900">
        <ele>40.2</ele>
        <time>2021-05-19T11:54:43Z</time>
      </trkpt>
      <trkpt lat="42.0829010" lon="-8.8904900">
        <ele>40.2</ele>
        <time>2021-05-19T11:54:44Z</time>
      </trkpt>
      <trkpt lat="42.0829010" lon="-8.8904900">
        <ele>40.2</ele>
        <time>2021-05-19T11:54:45Z</time>
      </trkpt>
      <trkpt lat="42.0829010" lon="-8.8904900">
        <ele>40.2</ele>
        <time>2021-05-19T11:54:46Z</time>
      </trkpt>
      <trkpt lat="42.0829010" lon="-8.8904900">
        <ele>40.2</ele>
        <time>2021-05-19T11:54:47Z</time>
      </trkpt>
      <trkpt lat="42.0829010" lon="-8.8904900">
        <ele>40.2</ele>
        <time>2021-05-19T11:54:48Z</time>
      </trkpt>
      <trkpt lat="42.0829010" lon="-8.8904900">
        <ele>40.2</ele>
        <time>2021-05-19T11:54:49Z</time>
      </trkpt>
      <trkpt lat="42.0829020" lon="-8.8904900">
        <ele>40.2</ele>
        <time>2021-05-19T11:54:50Z</time>
      </trkpt>
      <trkpt lat="42.0829020" lon="-8.8904900">
        <ele>40.2</ele>
        <time>2021-05-19T11:54:51Z</time>
      </trkpt>
      <trkpt lat="42.0829020" lon="-8.8904900">
        <ele>40.2</ele>
        <time>2021-05-19T11:54:52Z</time>
      </trkpt>
      <trkpt lat="42.0829020" lon="-8.8904900">
        <ele>40.2</ele>
        <time>2021-05-19T11:54:53Z</time>
      </trkpt>
      <trkpt lat="42.0829020" lon="-8.8904900">
        <ele>40.2</ele>
        <time>2021-05-19T11:54:54Z</time>
      </trkpt>
      <trkpt lat="42.0829020" lon="-8.8904900">
        <ele>40.2</ele>
        <time>2021-05-19T11:54:55Z</time>
      </trkpt>
      <trkpt lat="42.0829020" lon="-8.8904900">
        <ele>40.2</ele>
        <time>2021-05-19T11:54:56Z</time>
      </trkpt>
      <trkpt lat="42.0829020" lon="-8.8904900">
        <ele>40.2</ele>
        <time>2021-05-19T11:54:57Z</time>
      </trkpt>
      <trkpt lat="42.0829020" lon="-8.8904900">
        <ele>40.2</ele>
        <time>2021-05-19T11:54:58Z</time>
      </trkpt>
      <trkpt lat="42.0829020" lon="-8.8904900">
        <ele>40.2</ele>
        <time>2021-05-19T11:54:59Z</time>
      </trkpt>
      <trkpt lat="42.0829020" lon="-8.8904900">
        <ele>40.2</ele>
        <time>2021-05-19T11:55:00Z</time>
      </trkpt>
      <trkpt lat="42.0829020" lon="-8.8904900">
        <ele>40.2</ele>
        <time>2021-05-19T11:55:01Z</time>
      </trkpt>
      <trkpt lat="42.0829020" lon="-8.8904900">
        <ele>40.2</ele>
        <time>2021-05-19T11:55:02Z</time>
      </trkpt>
      <trkpt lat="42.0829020" lon="-8.8904900">
        <ele>40.2</ele>
        <time>2021-05-19T11:55:03Z</time>
      </trkpt>
      <trkpt lat="42.0829020" lon="-8.8904900">
        <ele>40.2</ele>
        <time>2021-05-19T11:55:04Z</time>
      </trkpt>
      <trkpt lat="42.0829020" lon="-8.8904900">
        <ele>40.2</ele>
        <time>2021-05-19T11:55:05Z</time>
      </trkpt>
      <trkpt lat="42.0829020" lon="-8.8904900">
        <ele>40.2</ele>
        <time>2021-05-19T11:55:06Z</time>
      </trkpt>
      <trkpt lat="42.0829020" lon="-8.8904900">
        <ele>40.2</ele>
        <time>2021-05-19T11:55:07Z</time>
      </trkpt>
      <trkpt lat="42.0829020" lon="-8.8904900">
        <ele>40.2</ele>
        <time>2021-05-19T11:55:08Z</time>
      </trkpt>
      <trkpt lat="42.0829020" lon="-8.8904900">
        <ele>40.2</ele>
        <time>2021-05-19T11:55:09Z</time>
      </trkpt>
      <trkpt lat="42.0829030" lon="-8.8904900">
        <ele>40.2</ele>
        <time>2021-05-19T11:55:10Z</time>
      </trkpt>
      <trkpt lat="42.0829030" lon="-8.8904900">
        <ele>40.2</ele>
        <time>2021-05-19T11:55:11Z</time>
      </trkpt>
      <trkpt lat="42.0829030" lon="-8.8904900">
        <ele>40.2</ele>
        <time>2021-05-19T11:55:12Z</time>
      </trkpt>
      <trkpt lat="42.0829030" lon="-8.8904900">
        <ele>40.2</ele>
        <time>2021-05-19T11:55:13Z</time>
      </trkpt>
      <trkpt lat="42.0829030" lon="-8.8904900">
        <ele>40.2</ele>
        <time>2021-05-19T11:55:14Z</time>
      </trkpt>
      <trkpt lat="42.0829030" lon="-8.8904900">
        <ele>40.2</ele>
        <time>2021-05-19T11:55:15Z</time>
      </trkpt>
      <trkpt lat="42.0829030" lon="-8.8904900">
        <ele>40.2</ele>
        <time>2021-05-19T11:55:16Z</time>
      </trkpt>
      <trkpt lat="42.0829030" lon="-8.8904900">
        <ele>40.2</ele>
        <time>2021-05-19T11:55:17Z</time>
      </trkpt>
      <trkpt lat="42.0829030" lon="-8.8904900">
        <ele>40.2</ele>
        <time>2021-05-19T11:55:18Z</time>
      </trkpt>
      <trkpt lat="42.0829030" lon="-8.8904900">
        <ele>40.2</ele>
        <time>2021-05-19T11:55:19Z</time>
      </trkpt>
      <trkpt lat="42.0829030" lon="-8.8904900">
        <ele>40.2</ele>
        <time>2021-05-19T11:55:20Z</time>
      </trkpt>
      <trkpt lat="42.0829030" lon="-8.8904900">
        <ele>40.2</ele>
        <time>2021-05-19T11:55:21Z</time>
      </trkpt>
      <trkpt lat="42.0829030" lon="-8.8904900">
        <ele>40.2</ele>
        <time>2021-05-19T11:55:22Z</time>
      </trkpt>
      <trkpt lat="42.0829030" lon="-8.8904900">
        <ele>40.2</ele>
        <time>2021-05-19T11:55:23Z</time>
      </trkpt>
      <trkpt lat="42.0829030" lon="-8.8904900">
        <ele>40.2</ele>
        <time>2021-05-19T11:55:24Z</time>
      </trkpt>
      <trkpt lat="42.0829030" lon="-8.8904900">
        <ele>40.2</ele>
        <time>2021-05-19T11:55:25Z</time>
      </trkpt>
      <trkpt lat="42.0829030" lon="-8.8904900">
        <ele>40.2</ele>
        <time>2021-05-19T11:55:26Z</time>
      </trkpt>
      <trkpt lat="42.0829030" lon="-8.8904900">
        <ele>40.2</ele>
        <time>2021-05-19T11:55:27Z</time>
      </trkpt>
      <trkpt lat="42.0829030" lon="-8.8904900">
        <ele>40.2</ele>
        <time>2021-05-19T11:55:28Z</time>
      </trkpt>
      <trkpt lat="42.0829040" lon="-8.8904900">
        <ele>40.2</ele>
        <time>2021-05-19T11:55:29Z</time>
      </trkpt>
      <trkpt lat="42.0829040" lon="-8.8904900">
        <ele>40.2</ele>
        <time>2021-05-19T11:55:30Z</time>
      </trkpt>
      <trkpt lat="42.0829040" lon="-8.8904900">
        <ele>40.2</ele>
        <time>2021-05-19T11:55:31Z</time>
      </trkpt>
      <trkpt lat="42.0829040" lon="-8.8904900">
        <ele>40.2</ele>
        <time>2021-05-19T11:55:32Z</time>
      </trkpt>
      <trkpt lat="42.0829040" lon="-8.8904900">
        <ele>40.2</ele>
        <time>2021-05-19T11:55:33Z</time>
      </trkpt>
      <trkpt lat="42.0829040" lon="-8.8904900">
        <ele>40.2</ele>
        <time>2021-05-19T11:55:34Z</time>
      </trkpt>
      <trkpt lat="42.0829040" lon="-8.8904900">
        <ele>40.2</ele>
        <time>2021-05-19T11:55:35Z</time>
      </trkpt>
      <trkpt lat="42.0829040" lon="-8.8904900">
        <ele>40.2</ele>
        <time>2021-05-19T11:55:36Z</time>
      </trkpt>
      <trkpt lat="42.0829040" lon="-8.8904900">
        <ele>40.2</ele>
        <time>2021-05-19T11:55:37Z</time>
      </trkpt>
      <trkpt lat="42.0829040" lon="-8.8904900">
        <ele>40.2</ele>
        <time>2021-05-19T11:55:38Z</time>
      </trkpt>
      <trkpt lat="42.0829040" lon="-8.8904900">
        <ele>40.2</ele>
        <time>2021-05-19T11:55:39Z</time>
      </trkpt>
      <trkpt lat="42.0829040" lon="-8.8904900">
        <ele>40.2</ele>
        <time>2021-05-19T11:55:40Z</time>
      </trkpt>
      <trkpt lat="42.0829040" lon="-8.8904900">
        <ele>40.2</ele>
        <time>2021-05-19T11:55:41Z</time>
      </trkpt>
      <trkpt lat="42.0829040" lon="-8.8904900">
        <ele>40.2</ele>
        <time>2021-05-19T11:55:42Z</time>
      </trkpt>
      <trkpt lat="42.0829040" lon="-8.8904900">
        <ele>40.2</ele>
        <time>2021-05-19T11:55:43Z</time>
      </trkpt>
      <trkpt lat="42.0829040" lon="-8.8904900">
        <ele>40.2</ele>
        <time>2021-05-19T11:55:44Z</time>
      </trkpt>
      <trkpt lat="42.0829040" lon="-8.8904900">
        <ele>40.2</ele>
        <time>2021-05-19T11:55:45Z</time>
      </trkpt>
      <trkpt lat="42.0829040" lon="-8.8904900">
        <ele>40.2</ele>
        <time>2021-05-19T11:55:46Z</time>
      </trkpt>
      <trkpt lat="42.0829040" lon="-8.8904900">
        <ele>40.2</ele>
        <time>2021-05-19T11:55:47Z</time>
      </trkpt>
      <trkpt lat="42.0829050" lon="-8.8904900">
        <ele>40.2</ele>
        <time>2021-05-19T11:55:48Z</time>
      </trkpt>
      <trkpt lat="42.0829050" lon="-8.8904900">
        <ele>40.2</ele>
        <time>2021-05-19T11:55:49Z</time>
      </trkpt>
      <trkpt lat="42.0829050" lon="-8.8904900">
        <ele>40.2</ele>
        <time>2021-05-19T11:55:50Z</time>
      </trkpt>
      <trkpt lat="42.0829050" lon="-8.8904900">
        <ele>40.2</ele>
        <time>2021-05-19T11:55:51Z</time>
      </trkpt>
      <trkpt lat="42.0829050" lon="-8.8904900">
        <ele>40.2</ele>
        <time>2021-05-19T11:55:52Z</time>
      </trkpt>
      <trkpt lat="42.0829050" lon="-8.8904900">
        <ele>40.2</ele>
        <time>2021-05-19T11:55:53Z</time>
      </trkpt>
      <trkpt lat="42.0829050" lon="-8.8904900">
        <ele>40.2</ele>
        <time>2021-05-19T11:55:54Z</time>
      </trkpt>
      <trkpt lat="42.0829050" lon="-8.8904900">
        <ele>40.2</ele>
        <time>2021-05-19T11:55:55Z</time>
      </trkpt>
      <trkpt lat="42.0829050" lon="-8.8904900">
        <ele>40.2</ele>
        <time>2021-05-19T11:55:56Z</time>
      </trkpt>
      <trkpt lat="42.0829050" lon="-8.8904900">
        <ele>40.2</ele>
        <time>2021-05-19T11:55:57Z</time>
      </trkpt>
      <trkpt lat="42.0829050" lon="-8.8904900">
        <ele>40.2</ele>
        <time>2021-05-19T11:55:58Z</time>
      </trkpt>
      <trkpt lat="42.0829050" lon="-8.8904900">
        <ele>40.2</ele>
        <time>2021-05-19T11:55:59Z</time>
      </trkpt>
      <trkpt lat="42.0829050" lon="-8.8904900">
        <ele>40.2</ele>
        <time>2021-05-19T11:56:00Z</time>
      </trkpt>
      <trkpt lat="42.0829050" lon="-8.8904900">
        <ele>40.2</ele>
        <time>2021-05-19T11:56:01Z</time>
      </trkpt>
      <trkpt lat="42.0829050" lon="-8.8904900">
        <ele>40.2</ele>
        <time>2021-05-19T11:56:02Z</time>
      </trkpt>
      <trkpt lat="42.0829050" lon="-8.8904900">
        <ele>40.2</ele>
        <time>2021-05-19T11:56:03Z</time>
      </trkpt>
      <trkpt lat="42.0829050" lon="-8.8904900">
        <ele>40.2</ele>
        <time>2021-05-19T11:56:04Z</time>
      </trkpt>
      <trkpt lat="42.0829050" lon="-8.8904900">
        <ele>40.2</ele>
        <time>2021-05-19T11:56:05Z</time>
      </trkpt>
      <trkpt lat="42.0829050" lon="-8.8904900">
        <ele>40.2</ele>
        <time>2021-05-19T11:56:06Z</time>
      </trkpt>
      <trkpt lat="42.0829060" lon="-8.8904900">
        <ele>40.2</ele>
        <time>2021-05-19T11:56:07Z</time>
      </trkpt>
      <trkpt lat="42.0829060" lon="-8.8904900">
        <ele>40.2</ele>
        <time>2021-05-19T11:56:08Z</time>
      </trkpt>
      <trkpt lat="42.0829060" lon="-8.8904900">
        <ele>40.2</ele>
        <time>2021-05-19T11:56:09Z</time>
      </trkpt>
      <trkpt lat="42.0829060" lon="-8.8904900">
        <ele>40.2</ele>
        <time>2021-05-19T11:56:10Z</time>
      </trkpt>
      <trkpt lat="42.0829060" lon="-8.8904900">
        <ele>40.2</ele>
        <time>2021-05-19T11:56:11Z</time>
      </trkpt>
      <trkpt lat="42.0829060" lon="-8.8904900">
        <ele>40.2</ele>
        <time>2021-05-19T11:56:12Z</time>
      </trkpt>
      <trkpt lat="42.0829060" lon="-8.8904900">
        <ele>40.2</ele>
        <time>2021-05-19T11:56:13Z</time>
      </trkpt>
      <trkpt lat="42.0829060" lon="-8.8904900">
        <ele>40.2</ele>
        <time>2021-05-19T11:56:14Z</time>
      </trkpt>
      <trkpt lat="42.0829060" lon="-8.8904900">
        <ele>40.2</ele>
        <time>2021-05-19T11:56:15Z</time>
      </trkpt>
      <trkpt lat="42.0829060" lon="-8.8904900">
        <ele>40.2</ele>
        <time>2021-05-19T11:56:16Z</time>
      </trkpt>
      <trkpt lat="42.0829060" lon="-8.8904900">
        <ele>40.2</ele>
        <time>2021-05-19T11:56:17Z</time>
      </trkpt>
      <trkpt lat="42.0829060" lon="-8.8904900">
        <ele>40.2</ele>
        <time>2021-05-19T11:56:18Z</time>
      </trkpt>
      <trkpt lat="42.0829060" lon="-8.8904900">
        <ele>40.2</ele>
        <time>2021-05-19T11:56:19Z</time>
      </trkpt>
      <trkpt lat="42.0829060" lon="-8.8904900">
        <ele>40.2</ele>
        <time>2021-05-19T11:56:20Z</time>
      </trkpt>
      <trkpt lat="42.0829060" lon="-8.8904900">
        <ele>40.2</ele>
        <time>2021-05-19T11:56:21Z</time>
      </trkpt>
      <trkpt lat="42.0829060" lon="-8.8904900">
        <ele>40.2</ele>
        <time>2021-05-19T11:56:22Z</time>
      </trkpt>
      <trkpt lat="42.0829060" lon="-8.8904900">
        <ele>40.2</ele>
        <time>2021-05-19T11:56:23Z</time>
      </trkpt>
      <trkpt lat="42.0829060" lon="-8.8904900">
        <ele>40.2</ele>
        <time>2021-05-19T11:56:24Z</time>
      </trkpt>
      <trkpt lat="42.0829060" lon="-8.8904900">
        <ele>40.2</ele>
        <time>2021-05-19T11:56:25Z</time>
      </trkpt>
      <trkpt lat="42.0829070" lon="-8.8904900">
        <ele>40.2</ele>
        <time>2021-05-19T11:56:26Z</time>
      </trkpt>
      <trkpt lat="42.0829070" lon="-8.8904900">
        <ele>40.2</ele>
        <time>2021-05-19T11:56:27Z</time>
      </trkpt>
      <trkpt lat="42.0829070" lon="-8.8904900">
        <ele>40.2</ele>
        <time>2021-05-19T11:56:28Z</time>
      </trkpt>
      <trkpt lat="42.0829070" lon="-8.8904900">
        <ele>40.2</ele>
        <time>2021-05-19T11:56:29Z</time>
      </trkpt>
      <trkpt lat="42.0829070" lon="-8.8904900">
        <ele>40.2</ele>
        <time>2021-05-19T11:56:30Z</time>
      </trkpt>
      <trkpt lat="42.0829070" lon="-8.8904900">
        <ele>40.2</ele>
        <time>2021-05-19T11:56:31Z</time>
      </trkpt>
      <trkpt lat="42.0829070" lon="-8.8904900">
        <ele>40.2</ele>
        <time>2021-05-19T11:56:32Z</time>
      </trkpt>
      <trkpt lat="42.0829070" lon="-8.8904900">
        <ele>40.2</ele>
        <time>2021-05-19T11:56:33Z</time>
      </trkpt>
      <trkpt lat="42.0829070" lon="-8.8904900">
        <ele>40.2</ele>
        <time>2021-05-19T11:56:34Z</time>
      </trkpt>
      <trkpt lat="42.0829070" lon="-8.8904900">
        <ele>40.2</ele>
        <time>2021-05-19T11:56:35Z</time>
      </trkpt>
      <trkpt lat="42.0829070" lon="-8.8904900">
        <ele>40.2</ele>
        <time>2021-05-19T11:56:36Z</time>
      </trkpt>
      <trkpt lat="42.0829070" lon="-8.8904900">
        <ele>40.2</ele>
        <time>2021-05-19T11:56:37Z</time>
      </trkpt>
      <trkpt lat="42.0829070" lon="-8.8904900">
        <ele>40.2</ele>
        <time>2021-05-19T11:56:38Z</time>
      </trkpt>
      <trkpt lat="42.0829070" lon="-8.8904900">
        <ele>40.2</ele>
        <time>2021-05-19T11:56:39Z</time>
      </trkpt>
      <trkpt lat="42.0829070" lon="-8.8904900">
        <ele>40.2</ele>
        <time>2021-05-19T11:56:40Z</time>
      </trkpt>
      <trkpt lat="42.0829070" lon="-8.8904900">
        <ele>40.2</ele>
        <time>2021-05-19T11:56:41Z</time>
      </trkpt>
      <trkpt lat="42.0829070" lon="-8.8904900">
        <ele>40.2</ele>
        <time>2021-05-19T11:56:42Z</time>
      </trkpt>
      <trkpt lat="42.0829070" lon="-8.8904900">
        <ele>40.2</ele>
        <time>2021-05-19T11:56:43Z</time>
      </trkpt>
      <trkpt lat="42.0829070" lon="-8.8904900">
        <ele>40.2</ele>
        <time>2021-05-19T11:56:44Z</time>
      </trkpt>
      <trkpt lat="42.0829080" lon="-8.8904900">
        <ele>40.2</ele>
        <time>2021-05-19T11:56:45Z</time>
      </trkpt>
      <trkpt lat="42.0829080" lon="-8.8904900">
        <ele>40.2</ele>
        <time>2021-05-19T11:56:46Z</time>
      </trkpt>
      <trkpt lat="42.0829080" lon="-8.8904900">
        <ele>40.2</ele>
        <time>2021-05-19T11:56:47Z</time>
      </trkpt>
      <trkpt lat="42.0829080" lon="-8.8904900">
        <ele>40.2</ele>
        <time>2021-05-19T11:56:48Z</time>
      </trkpt>
      <trkpt lat="42.0829080" lon="-8.8904900">
        <ele>40.2</ele>
        <time>2021-05-19T11:56:49Z</time>
      </trkpt>
      <trkpt lat="42.0829080" lon="-8.8904900">
        <ele>40.2</ele>
        <time>2021-05-19T11:56:50Z</time>
      </trkpt>
      <trkpt lat="42.0829080" lon="-8.8904900">
        <ele>40.2</ele>
        <time>2021-05-19T11:56:51Z</time>
      </trkpt>
      <trkpt lat="42.0829080" lon="-8.8904900">
        <ele>40.2</ele>
        <time>2021-05-19T11:56:52Z</time>
      </trkpt>
      <trkpt lat="42.0829080" lon="-8.8904900">
        <ele>40.2</ele>
        <time>2021-05-19T11:56:53Z</time>
      </trkpt>
      <trkpt lat="42.0829080" lon="-8.8904900">
        <ele>40.2</ele>
        <time>2021-05-19T11:56:54Z</time>
      </trkpt>
      <trkpt lat="42.0829080" lon="-8.8904900">
        <ele>40.2</ele>
        <time>2021-05-19T11:56:55Z</time>
      </trkpt>
      <trkpt lat="42.0829080" lon="-8.8904900">
        <ele>40.2</ele>
        <time>2021-05-19T11:56:56Z</time>
      </trkpt>
      <trkpt lat="42.0829080" lon="-8.8904900">
        <ele>40.2</ele>
        <time>2021-05-19T11:56:57Z</time>
      </trkpt>
      <trkpt lat="42.0829080" lon="-8.8904900">
        <ele>40.2</ele>
        <time>2021-05-19T11:56:58Z</time>
      </trkpt>
      <trkpt lat="42.0829080" lon="-8.8904900">
        <ele>40.2</ele>
        <time>2021-05-19T11:56:59Z</time>
      </trkpt>
      <trkpt lat="42.0829080" lon="-8.8904900">
        <ele>40.2</ele>
        <time>2021-05-19T11:57:00Z</time>
      </trkpt>
      <trkpt lat="42.0829080" lon="-8.8904900">
        <ele>40.2</ele>
        <time>2021-05-19T11:57:01Z</time>
      </trkpt>
      <trkpt lat="42.0829080" lon="-8.8904900">
        <ele>40.2</ele>
        <time>2021-05-19T11:57:02Z</time>
      </trkpt>
      <trkpt lat="42.0829080" lon="-8.8904900">
        <ele>40.2</ele>
        <time>2021-05-19T11:57:03Z</time>
      </trkpt>
      <trkpt lat="42.0829080" lon="-8.8904900">
        <ele>40.2</ele>
        <time>2021-05-19T11:57:04Z</time>
      </trkpt>
      <trkpt lat="42.0829090" lon="-8.8904900">
        <ele>40.2</ele>
        <time>2021-05-19T11:57:05Z</time>
      </trkpt>
      <trkpt lat="42.0829090" lon="-8.8904900">
        <ele>40.2</ele>
        <time>2021-05-19T11:57:06Z</time>
      </trkpt>
      <trkpt lat="42.0829090" lon="-8.8904900">
        <ele>40.2</ele>
        <time>2021-05-19T11:57:07Z</time>
      </trkpt>
      <trkpt lat="42.0829090" lon="-8.8904900">
        <ele>40.2</ele>
        <time>2021-05-19T11:57:08Z</time>
      </trkpt>
      <trkpt lat="42.0829090" lon="-8.8904900">
        <ele>40.2</ele>
        <time>2021-05-19T11:57:09Z</time>
      </trkpt>
      <trkpt lat="42.0829090" lon="-8.8904900">
        <ele>40.2</ele>
        <time>2021-05-19T11:57:10Z</time>
      </trkpt>
      <trkpt lat="42.0829090" lon="-8.8904900">
        <ele>40.2</ele>
        <time>2021-05-19T11:57:11Z</time>
      </trkpt>
      <trkpt lat="42.0829090" lon="-8.8904900">
        <ele>40.2</ele>
        <time>2021-05-19T11:57:12Z</time>
      </trkpt>
      <trkpt lat="42.0829090" lon="-8.8904900">
        <ele>40.2</ele>
        <time>2021-05-19T11:57:13Z</time>
      </trkpt>
      <trkpt lat="42.0829090" lon="-8.8904900">
        <ele>40.2</ele>
        <time>2021-05-19T11:57:14Z</time>
      </trkpt>
      <trkpt lat="42.0829090" lon="-8.8904900">
        <ele>40.2</ele>
        <time>2021-05-19T11:57:15Z</time>
      </trkpt>
      <trkpt lat="42.0829090" lon="-8.8904900">
        <ele>40.2</ele>
        <time>2021-05-19T11:57:16Z</time>
      </trkpt>
      <trkpt lat="42.0829090" lon="-8.8904900">
        <ele>40.2</ele>
        <time>2021-05-19T11:57:17Z</time>
      </trkpt>
      <trkpt lat="42.0829090" lon="-8.8904900">
        <ele>40.2</ele>
        <time>2021-05-19T11:57:18Z</time>
      </trkpt>
      <trkpt lat="42.0829090" lon="-8.8904900">
        <ele>40.2</ele>
        <time>2021-05-19T11:57:19Z</time>
      </trkpt>
      <trkpt lat="42.0829090" lon="-8.8904900">
        <ele>40.2</ele>
        <time>2021-05-19T11:57:20Z</time>
      </trkpt>
      <trkpt lat="42.0829090" lon="-8.8904900">
        <ele>40.2</ele>
        <time>2021-05-19T11:57:21Z</time>
      </trkpt>
      <trkpt lat="42.0829090" lon="-8.8904900">
        <ele>40.2</ele>
        <time>2021-05-19T11:57:22Z</time>
      </trkpt>
      <trkpt lat="42.0829090" lon="-8.8904900">
        <ele>40.2</ele>
        <time>2021-05-19T11:57:23Z</time>
      </trkpt>
      <trkpt lat="42.0829100" lon="-8.8904900">
        <ele>40.2</ele>
        <time>2021-05-19T11:57:24Z</time>
      </trkpt>
      <trkpt lat="42.0829100" lon="-8.8904900">
        <ele>40.2</ele>
        <time>2021-05-19T11:57:25Z</time>
      </trkpt>
      <trkpt lat="42.0829100" lon="-8.8904900">
        <ele>40.2</ele>
        <time>2021-05-19T11:57:26Z</time>
      </trkpt>
      <trkpt lat="42.0829100" lon="-8.8904900">
        <ele>40.2</ele>
        <time>2021-05-19T11:57:27Z</time>
      </trkpt>
      <trkpt lat="42.0829100" lon="-8.8904900">
        <ele>40.2</ele>
        <time>2021-05-19T11:57:28Z</time>
      </trkpt>
      <trkpt lat="42.0829100" lon="-8.8904900">
        <ele>40.2</ele>
        <time>2021-05-19T11:57:29Z</time>
      </trkpt>
      <trkpt lat="42.0829100" lon="-8.8904900">
        <ele>40.2</ele>
        <time>2021-05-19T11:57:30Z</time>
      </trkpt>
      <trkpt lat="42.0829100" lon="-8.8904900">
        <ele>40.2</ele>
        <time>2021-05-19T11:57:31Z</time>
      </trkpt>
      <trkpt lat="42.0829100" lon="-8.8904900">
        <ele>40.2</ele>
        <time>2021-05-19T11:57:32Z</time>
      </trkpt>
      <trkpt lat="42.0829100" lon="-8.8904900">
        <ele>40.2</ele>
        <time>2021-05-19T11:57:33Z</time>
      </trkpt>
      <trkpt lat="42.0829100" lon="-8.8904900">
        <ele>40.2</ele>
        <time>2021-05-19T11:57:34Z</time>
      </trkpt>
      <trkpt lat="42.0829100" lon="-8.8904900">
        <ele>40.2</ele>
        <time>2021-05-19T11:57:35Z</time>
      </trkpt>
      <trkpt lat="42.0829100" lon="-8.8904900">
        <ele>40.2</ele>
        <time>2021-05-19T11:57:36Z</time>
      </trkpt>
      <trkpt lat="42.0829100" lon="-8.8904900">
        <ele>40.2</ele>
        <time>2021-05-19T11:57:37Z</time>
      </trkpt>
      <trkpt lat="42.0829100" lon="-8.8904900">
        <ele>40.2</ele>
        <time>2021-05-19T11:57:38Z</time>
      </trkpt>
      <trkpt lat="42.0829100" lon="-8.8904900">
        <ele>40.2</ele>
        <time>2021-05-19T11:57:39Z</time>
      </trkpt>
      <trkpt lat="42.0829100" lon="-8.8904900">
        <ele>40.2</ele>
        <time>2021-05-19T11:57:40Z</time>
      </trkpt>
      <trkpt lat="42.0829100" lon="-8.8904900">
        <ele>40.2</ele>
        <time>2021-05-19T11:57:41Z</time>
      </trkpt>
      <trkpt lat="42.0829100" lon="-8.8904900">
        <ele>40.2</ele>
        <time>2021-05-19T11:57:42Z</time>
      </trkpt>
      <trkpt lat="42.0829110" lon="-8.8904900">
        <ele>40.2</ele>
        <time>2021-05-19T11:57:43Z</time>
      </trkpt>
      <trkpt lat="42.0829110" lon="-8.8904900">
        <ele>40.2</ele>
        <time>2021-05-19T11:57:44Z</time>
      </trkpt>
      <trkpt lat="42.0829110" lon="-8.8904900">
        <ele>40.2</ele>
        <time>2021-05-19T11:57:45Z</time>
      </trkpt>
      <trkpt lat="42.0829110" lon="-8.8904900">
        <ele>40.2</ele>
        <time>2021-05-19T11:57:46Z</time>
      </trkpt>
      <trkpt lat="42.0829110" lon="-8.8904900">
        <ele>40.2</ele>
        <time>2021-05-19T11:57:47Z</time>
      </trkpt>
      <trkpt lat="42.0829110" lon="-8.8904900">
        <ele>40.2</ele>
        <time>2021-05-19T11:57:48Z</time>
      </trkpt>
      <trkpt lat="42.0829110" lon="-8.8904900">
        <ele>40.2</ele>
        <time>2021-05-19T11:57:49Z</time>
      </trkpt>
      <trkpt lat="42.0829110" lon="-8.8904900">
        <ele>40.2</ele>
        <time>2021-05-19T11:57:50Z</time>
      </trkpt>
      <trkpt lat="42.0829110" lon="-8.8904900">
        <ele>40.2</ele>
        <time>2021-05-19T11:57:51Z</time>
      </trkpt>
      <trkpt lat="42.0829110" lon="-8.8904900">
        <ele>40.2</ele>
        <time>2021-05-19T11:57:52Z</time>
      </trkpt>
      <trkpt lat="42.0829110" lon="-8.8904900">
        <ele>40.2</ele>
        <time>2021-05-19T11:57:53Z</time>
      </trkpt>
      <trkpt lat="42.0829110" lon="-8.8904900">
        <ele>40.2</ele>
        <time>2021-05-19T11:57:54Z</time>
      </trkpt>
      <trkpt lat="42.0829110" lon="-8.8904900">
        <ele>40.2</ele>
        <time>2021-05-19T11:57:55Z</time>
      </trkpt>
      <trkpt lat="42.0829110" lon="-8.8904900">
        <ele>40.2</ele>
        <time>2021-05-19T11:57:56Z</time>
      </trkpt>
      <trkpt lat="42.0829110" lon="-8.8904900">
        <ele>40.2</ele>
        <time>2021-05-19T11:57:57Z</time>
      </trkpt>
      <trkpt lat="42.0829110" lon="-8.8904900">
        <ele>40.2</ele>
        <time>2021-05-19T11:57:58Z</time>
      </trkpt>
      <trkpt lat="42.0829110" lon="-8.8904900">
        <ele>40.2</ele>
        <time>2021-05-19T11:57:59Z</time>
      </trkpt>
      <trkpt lat="42.0829110" lon="-8.8904900">
        <ele>40.2</ele>
        <time>2021-05-19T11:58:00Z</time>
      </trkpt>
      <trkpt lat="42.0829110" lon="-8.8904900">
        <ele>40.2</ele>
        <time>2021-05-19T11:58:01Z</time>
      </trkpt>
      <trkpt lat="42.0829120" lon="-8.8904900">
        <ele>40.2</ele>
        <time>2021-05-19T11:58:02Z</time>
      </trkpt>
      <trkpt lat="42.0829120" lon="-8.8904900">
        <ele>40.2</ele>
        <time>2021-05-19T11:58:03Z</time>
      </trkpt>
      <trkpt lat="42.0829120" lon="-8.8904900">
        <ele>40.2</ele>
        <time>2021-05-19T11:58:04Z</time>
      </trkpt>
      <trkpt lat="42.0829120" lon="-8.8904900">
        <ele>40.2</ele>
        <time>2021-05-19T11:58:05Z</time>
      </trkpt>
      <trkpt lat="42.0829120" lon="-8.8904900">
        <ele>40.2</ele>
        <time>2021-05-19T11:58:06Z</time>
      </trkpt>
      <trkpt lat="42.0829120" lon="-8.8904900">
        <ele>40.2</ele>
        <time>2021-05-19T11:58:07Z</time>
      </trkpt>
      <trkpt lat="42.0829120" lon="-8.8904900">
        <ele>40.2</ele>
        <time>2021-05-19T11:58:08Z</time>
      </trkpt>
      <trkpt lat="42.0829120" lon="-8.8904900">
        <ele>40.2</ele>
        <time>2021-05-19T11:58:09Z</time>
      </trkpt>
      <trkpt lat="42.0829120" lon="-8.8904900">
        <ele>40.2</ele>
        <time>2021-05-19T11:58:10Z</time>
      </trkpt>
      <trkpt lat="42.0829120" lon="-8.8904900">
        <ele>40.2</ele>
        <time>2021-05-19T11:58:11Z</time>
      </trkpt>
      <trkpt lat="42.0829120" lon="-8.8904900">
        <ele>40.2</ele>
        <time>2021-05-19T11:58:12Z</time>
      </trkpt>
      <trkpt lat="42.0829120" lon="-8.8904900">
        <ele>40.2</ele>
        <time>2021-05-19T11:58:13Z</time>
      </trkpt>
      <trkpt lat="42.0829120" lon="-8.8904900">
        <ele>40.2</ele>
        <time>2021-05-19T11:58:14Z</time>
      </trkpt>
      <trkpt lat="42.0829120" lon="-8.8904900">
        <ele>40.2</ele>
        <time>2021-05-19T11:58:15Z</time>
      </trkpt>
      <trkpt lat="42.0829120" lon="-8.8904900">
        <ele>40.2</ele>
        <time>2021-05-19T11:58:16Z</time>
      </trkpt>
      <trkpt lat="42.0829120" lon="-8.8904900">
        <ele>40.2</ele>
        <time>2021-05-19T11:58:17Z</time>
      </trkpt>
      <trkpt lat="42.0829120" lon="-8.8904900">
        <ele>40.2</ele>
        <time>2021-05-19T11:58:18Z</time>
      </trkpt>
      <trkpt lat="42.0829120" lon="-8.8904900">
        <ele>40.2</ele>
        <time>2021-05-19T11:58:19Z</time>
      </trkpt>
      <trkpt lat="42.0829120" lon="-8.8904900">
        <ele>40.2</ele>
        <time>2021-05-19T11:58:20Z</time>
      </trkpt>
      <trkpt lat="42.0829130" lon="-8.8904900">
        <ele>40.2</ele>
        <time>2021-05-19T11:58:21Z</time>
      </trkpt>
      <trkpt lat="42.0829130" lon="-8.8904900">
        <ele>40.2</ele>
        <time>2021-05-19T11:58:22Z</time>
      </trkpt>
      <trkpt lat="42.0829130" lon="-8.8904900">
        <ele>40.2</ele>
        <time>2021-05-19T11:58:23Z</time>
      </trkpt>
      <trkpt lat="42.0829130" lon="-8.8904900">
        <ele>40.2</ele>
        <time>2021-05-19T11:58:24Z</time>
      </trkpt>
      <trkpt lat="42.0829130" lon="-8.8904900">
        <ele>40.2</ele>
        <time>2021-05-19T11:58:25Z</time>
      </trkpt>
      <trkpt lat="42.0829130" lon="-8.8904900">
        <ele>40.2</ele>
        <time>2021-05-19T11:58:26Z</time>
      </trkpt>
      <trkpt lat="42.0829130" lon="-8.8904900">
        <ele>40.2</ele>
        <time>2021-05-19T11:58:27Z</time>
      </trkpt>
      <trkpt lat="42.0829130" lon="-8.8904900">
        <ele>40.2</ele>
        <time>2021-05-19T11:58:28Z</time>
      </trkpt>
      <trkpt lat="42.0829130" lon="-8.8904900">
        <ele>40.2</ele>
        <time>2021-05-19T11:58:29Z</time>
      </trkpt>
      <trkpt lat="42.0829130" lon="-8.8904900">
        <ele>40.2</ele>
        <time>2021-05-19T11:58:30Z</time>
      </trkpt>
      <trkpt lat="42.0829130" lon="-8.8904900">
        <ele>40.2</ele>
        <time>2021-05-19T11:58:31Z</time>
      </trkpt>
      <trkpt lat="42.0829130" lon="-8.8904900">
        <ele>40.2</ele>
        <time>2021-05-19T11:58:32Z</time>
      </trkpt>
      <trkpt lat="42.0829130" lon="-8.8904900">
        <ele>40.2</ele>
        <time>2021-05-19T11:58:33Z</time>
      </trkpt>
      <trkpt lat="42.0829130" lon="-8.8904900">
        <ele>40.2</ele>
        <time>2021-05-19T11:58:34Z</time>
      </trkpt>
      <trkpt lat="42.0829130" lon="-8.8904900">
        <ele>40.2</ele>
        <time>2021-05-19T11:58:35Z</time>
      </trkpt>
      <trkpt lat="42.0829130" lon="-8.8904900">
        <ele>40.2</ele>
        <time>2021-05-19T11:58:36Z</time>
      </trkpt>
      <trkpt lat="42.0829130" lon="-8.8904900">
        <ele>40.2</ele>
        <time>2021-05-19T11:58:37Z</time>
      </trkpt>
      <trkpt lat="42.0829130" lon="-8.8904900">
        <ele>40.2</ele>
        <time>2021-05-19T11:58:38Z</time>
      </trkpt>
      <trkpt lat="42.0829130" lon="-8.8904900">
        <ele>40.2</ele>
        <time>2021-05-19T11:58:39Z</time>
      </trkpt>
      <trkpt lat="42.0829130" lon="-8.8904900">
        <ele>40.2</ele>
        <time>2021-05-19T11:58:40Z</time>
      </trkpt>
      <trkpt lat="42.0829140" lon="-8.8904900">
        <ele>40.2</ele>
        <time>2021-05-19T11:58:41Z</time>
      </trkpt>
      <trkpt lat="42.0829140" lon="-8.8904900">
        <ele>40.2</ele>
        <time>2021-05-19T11:58:42Z</time>
      </trkpt>
      <trkpt lat="42.0829140" lon="-8.8904900">
        <ele>40.2</ele>
        <time>2021-05-19T11:58:43Z</time>
      </trkpt>
      <trkpt lat="42.0829140" lon="-8.8904900">
        <ele>40.2</ele>
        <time>2021-05-19T11:58:44Z</time>
      </trkpt>
      <trkpt lat="42.0829140" lon="-8.8904900">
        <ele>40.2</ele>
        <time>2021-05-19T11:58:45Z</time>
      </trkpt>
      <trkpt lat="42.0829140" lon="-8.8904900">
        <ele>40.2</ele>
        <time>2021-05-19T11:58:46Z</time>
      </trkpt>
      <trkpt lat="42.0829140" lon="-8.8904900">
        <ele>40.2</ele>
        <time>2021-05-19T11:58:47Z</time>
      </trkpt>
      <trkpt lat="42.0829140" lon="-8.8904900">
        <ele>40.2</ele>
        <time>2021-05-19T11:58:48Z</time>
      </trkpt>
      <trkpt lat="42.0829140" lon="-8.8904900">
        <ele>40.2</ele>
        <time>2021-05-19T11:58:49Z</time>
      </trkpt>
      <trkpt lat="42.0829140" lon="-8.8904900">
        <ele>40.2</ele>
        <time>2021-05-19T11:58:50Z</time>
      </trkpt>
      <trkpt lat="42.0829140" lon="-8.8904900">
        <ele>40.2</ele>
        <time>2021-05-19T11:58:51Z</time>
      </trkpt>
      <trkpt lat="42.0829140" lon="-8.8904900">
        <ele>40.2</ele>
        <time>2021-05-19T11:58:52Z</time>
      </trkpt>
      <trkpt lat="42.0829140" lon="-8.8904900">
        <ele>40.2</ele>
        <time>2021-05-19T11:58:53Z</time>
      </trkpt>
      <trkpt lat="42.0829140" lon="-8.8904900">
        <ele>40.2</ele>
        <time>2021-05-19T11:58:54Z</time>
      </trkpt>
      <trkpt lat="42.0829140" lon="-8.8904900">
        <ele>40.2</ele>
        <time>2021-05-19T11:58:55Z</time>
      </trkpt>
      <trkpt lat="42.0829140" lon="-8.8904900">
        <ele>40.2</ele>
        <time>2021-05-19T11:58:56Z</time>
      </trkpt>
      <trkpt lat="42.0829140" lon="-8.8904900">
        <ele>40.2</ele>
        <time>2021-05-19T11:58:57Z</time>
      </trkpt>
      <trkpt lat="42.0829140" lon="-8.8904900">
        <ele>40.2</ele>
        <time>2021-05-19T11:58:58Z</time>
      </trkpt>
      <trkpt lat="42.0829140" lon="-8.8904900">
        <ele>40.2</ele>
        <time>2021-05-19T11:58:59Z</time>
      </trkpt>
      <trkpt lat="42.0829150" lon="-8.8904900">
        <ele>40.2</ele>
        <time>2021-05-19T11:59:00Z</time>
      </trkpt>
      <trkpt lat="42.0829150" lon="-8.8904900">
        <ele>40.2</ele>
        <time>2021-05-19T11:59:01Z</time>
      </trkpt>
      <trkpt lat="42.0829150" lon="-8.8904900">
        <ele>40.2</ele>
        <time>2021-05-19T11:59:02Z</time>
      </trkpt>
      <trkpt lat="42.0829150" lon="-8.8904900">
        <ele>40.2</ele>
        <time>2021-05-19T11:59:03Z</time>
      </trkpt>
      <trkpt lat="42.0829150" lon="-8.8904900">
        <ele>40.2</ele>
        <time>2021-05-19T11:59:04Z</time>
      </trkpt>
      <trkpt lat="42.0829150" lon="-8.8904900">
        <ele>40.2</ele>
        <time>2021-05-19T11:59:05Z</time>
      </trkpt>
      <trkpt lat="42.0829150" lon="-8.8904900">
        <ele>40.2</ele>
        <time>2021-05-19T11:59:06Z</time>
      </trkpt>
      <trkpt lat="42.0829150" lon="-8.8904900">
        <ele>40.2</ele>
        <time>2021-05-19T11:59:07Z</time>
      </trkpt>
      <trkpt lat="42.0829150" lon="-8.8904900">
        <ele>40.2</ele>
        <time>2021-05-19T11:59:08Z</time>
      </trkpt>
      <trkpt lat="42.0829150" lon="-8.8904900">
        <ele>40.2</ele>
        <time>2021-05-19T11:59:09Z</time>
      </trkpt>
      <trkpt lat="42.0829150" lon="-8.8904900">
        <ele>40.2</ele>
        <time>2021-05-19T11:59:10Z</time>
      </trkpt>
      <trkpt lat="42.0829150" lon="-8.8904900">
        <ele>40.2</ele>
        <time>2021-05-19T11:59:11Z</time>
      </trkpt>
      <trkpt lat="42.0829150" lon="-8.8904900">
        <ele>40.2</ele>
        <time>2021-05-19T11:59:12Z</time>
      </trkpt>
      <trkpt lat="42.0829150" lon="-8.8904900">
        <ele>40.2</ele>
        <time>2021-05-19T11:59:13Z</time>
      </trkpt>
      <trkpt lat="42.0829150" lon="-8.8904900">
        <ele>40.2</ele>
        <time>2021-05-19T11:59:14Z</time>
      </trkpt>
      <trkpt lat="42.0829150" lon="-8.8904900">
        <ele>40.2</ele>
        <time>2021-05-19T11:59:15Z</time>
      </trkpt>
      <trkpt lat="42.0829150" lon="-8.8904900">
        <ele>40.2</ele>
        <time>2021-05-19T11:59:16Z</time>
      </trkpt>
      <trkpt lat="42.0829150" lon="-8.8904900">
        <ele>40.2</ele>
        <time>2021-05-19T11:59:17Z</time>
      </trkpt>
      <trkpt lat="42.0829150" lon="-8.8904900">
        <ele>40.2</ele>
        <time>2021-05-19T11:59:18Z</time>
      </trkpt>
      <trkpt lat="42.0829160" lon="-8.8904900">
        <ele>40.2</ele>
        <time>2021-05-19T11:59:19Z</time>
      </trkpt>
      <trkpt lat="42.0829160" lon="-8.8904900">
        <ele>40.2</ele>
        <time>2021-05-19T11:59:20Z</time>
      </trkpt>
      <trkpt lat="42.0829160" lon="-8.8904900">
        <ele>40.2</ele>
        <time>2021-05-19T11:59:21Z</time>
      </trkpt>
      <trkpt lat="42.0829160" lon="-8.8904900">
        <ele>40.2</ele>
        <time>2021-05-19T11:59:22Z</time>
      </trkpt>
      <trkpt lat="42.0829160" lon="-8.8904900">
        <ele>40.2</ele>
        <time>2021-05-19T11:59:23Z</time>
      </trkpt>
      <trkpt lat="42.0829160" lon="-8.8904900">
        <ele>40.2</ele>
        <time>2021-05-19T11:59:24Z</time>
      </trkpt>
      <trkpt lat="42.0829160" lon="-8.8904900">
        <ele>40.2</ele>
        <time>2021-05-19T11:59:25Z</time>
      </trkpt>
      <trkpt lat="42.0829160" lon="-8.8904900">
        <ele>40.2</ele>
        <time>2021-05-19T11:59:26Z</time>
      </trkpt>
      <trkpt lat="42.0829160" lon="-8.8904900">
        <ele>40.2</ele>
        <time>2021-05-19T11:59:27Z</time>
      </trkpt>
      <trkpt lat="42.0829160" lon="-8.8904900">
        <ele>40.2</ele>
        <time>2021-05-19T11:59:28Z</time>
      </trkpt>
      <trkpt lat="42.0829160" lon="-8.8904900">
        <ele>40.2</ele>
        <time>2021-05-19T11:59:29Z</time>
      </trkpt>
      <trkpt lat="42.0829160" lon="-8.8904900">
        <ele>40.2</ele>
        <time>2021-05-19T11:59:30Z</time>
      </trkpt>
      <trkpt lat="42.0829160" lon="-8.8904900">
        <ele>40.2</ele>
        <time>2021-05-19T11:59:31Z</time>
      </trkpt>
      <trkpt lat="42.0829160" lon="-8.8904900">
        <ele>40.2</ele>
        <time>2021-05-19T11:59:32Z</time>
      </trkpt>
      <trkpt lat="42.0829160" lon="-8.8904900">
        <ele>40.2</ele>
        <time>2021-05-19T11:59:33Z</time>
      </trkpt>
      <trkpt lat="42.0829160" lon="-8.8904900">
        <ele>40.2</ele>
        <time>2021-05-19T11:59:34Z</time>
      </trkpt>
      <trkpt lat="42.0829160" lon="-8.8904900">
        <ele>40.2</ele>
        <time>2021-05-19T11:59:35Z</time>
      </trkpt>
      <trkpt lat="42.0829160" lon="-8.8904900">
        <ele>40.2</ele>
        <time>2021-05-19T11:59:36Z</time>
      </trkpt>
      <trkpt lat="42.0829160" lon="-8.8904900">
        <ele>40.2</ele>
        <time>2021-05-19T11:59:37Z</time>
      </trkpt>
      <trkpt lat="42.0829170" lon="-8.8904900">
        <ele>40.2</ele>
        <time>2021-05-19T11:59:38Z</time>
      </trkpt>
      <trkpt lat="42.0829170" lon="-8.8904900">
        <ele>40.2</ele>
        <time>2021-05-19T11:59:39Z</time>
      </trkpt>
      <trkpt lat="42.0829170" lon="-8.8904900">
        <ele>40.2</ele>
        <time>2021-05-19T11:59:40Z</time>
      </trkpt>
      <trkpt lat="42.0829170" lon="-8.8904900">
        <ele>40.2</ele>
        <time>2021-05-19T11:59:41Z</time>
      </trkpt>
      <trkpt lat="42.0829170" lon="-8.8904900">
        <ele>40.2</ele>
        <time>2021-05-19T11:59:42Z</time>
      </trkpt>
      <trkpt lat="42.0829170" lon="-8.8904900">
        <ele>40.2</ele>
        <time>2021-05-19T11:59:43Z</time>
      </trkpt>
      <trkpt lat="42.0829170" lon="-8.8904900">
        <ele>40.2</ele>
        <time>2021-05-19T11:59:44Z</time>
      </trkpt>
      <trkpt lat="42.0829170" lon="-8.8904900">
        <ele>40.2</ele>
        <time>2021-05-19T11:59:45Z</time>
      </trkpt>
      <trkpt lat="42.0829170" lon="-8.8904900">
        <ele>40.2</ele>
        <time>2021-05-19T11:59:46Z</time>
      </trkpt>
      <trkpt lat="42.0829170" lon="-8.8904900">
        <ele>40.2</ele>
        <time>2021-05-19T11:59:47Z</time>
      </trkpt>
      <trkpt lat="42.0829170" lon="-8.8904900">
        <ele>40.2</ele>
        <time>2021-05-19T11:59:48Z</time>
      </trkpt>
      <trkpt lat="42.0829170" lon="-8.8904900">
        <ele>40.2</ele>
        <time>2021-05-19T11:59:49Z</time>
      </trkpt>
      <trkpt lat="42.0829170" lon="-8.8904900">
        <ele>40.2</ele>
        <time>2021-05-19T11:59:50Z</time>
      </trkpt>
      <trkpt lat="42.0829170" lon="-8.8904900">
        <ele>40.2</ele>
        <time>2021-05-19T11:59:51Z</time>
      </trkpt>
      <trkpt lat="42.0829170" lon="-8.8904900">
        <ele>40.2</ele>
        <time>2021-05-19T11:59:52Z</time>
      </trkpt>
      <trkpt lat="42.0829170" lon="-8.8904900">
        <ele>40.2</ele>
        <time>2021-05-19T11:59:53Z</time>
      </trkpt>
      <trkpt lat="42.0829170" lon="-8.8904900">
        <ele>40.2</ele>
        <time>2021-05-19T11:59:54Z</time>
      </trkpt>
      <trkpt lat="42.0829170" lon="-8.8904900">
        <ele>40.2</ele>
        <time>2021-05-19T11:59:55Z</time>
      </trkpt>
      <trkpt lat="42.0829170" lon="-8.8904900">
        <ele>40.2</ele>
        <time>2021-05-19T11:59:56Z</time>
      </trkpt>
      <trkpt lat="42.0829180" lon="-8.8904900">
        <ele>40.2</ele>
        <time>2021-05-19T11:59:57Z</time>
      </trkpt>
      <trkpt lat="42.0829180" lon="-8.8904900">
        <ele>40.2</ele>
        <time>2021-05-19T11:59:58Z</time>
      </trkpt>
      <trkpt lat="42.0829180" lon="-8.8904900">
        <ele>40.2</ele>
        <time>2021-05-19T11:59:59Z</time>
      </trkpt>
      <trkpt lat="42.0829180" lon="-8.8904900">
        <ele>40.2</ele>
        <time>2021-05-19T12:00:00Z</time>
      </trkpt>
      <trkpt lat="42.0829180" lon="-8.8904900">
        <ele>40.2</ele>
        <time>2021-05-19T12:00:01Z</time>
      </trkpt>
      <trkpt lat="42.0829180" lon="-8.8904900">
        <ele>40.2</ele>
        <time>2021-05-19T12:00:02Z</time>
      </trkpt>
      <trkpt lat="42.0829180" lon="-8.8904900">
        <ele>40.2</ele>
        <time>2021-05-19T12:00:03Z</time>
      </trkpt>
      <trkpt lat="42.0829180" lon="-8.8904900">
        <ele>40.2</ele>
        <time>2021-05-19T12:00:04Z</time>
      </trkpt>
      <trkpt lat="42.0829180" lon="-8.8904900">
        <ele>40.2</ele>
        <time>2021-05-19T12:00:05Z</time>
      </trkpt>
      <trkpt lat="42.0829180" lon="-8.8904900">
        <ele>40.2</ele>
        <time>2021-05-19T12:00:06Z</time>
      </trkpt>
      <trkpt lat="42.0829180" lon="-8.8904900">
        <ele>40.2</ele>
        <time>2021-05-19T12:00:07Z</time>
      </trkpt>
      <trkpt lat="42.0829180" lon="-8.8904900">
        <ele>40.2</ele>
        <time>2021-05-19T12:00:08Z</time>
      </trkpt>
      <trkpt lat="42.0829180" lon="-8.8904900">
        <ele>40.2</ele>
        <time>2021-05-19T12:00:09Z</time>
      </trkpt>
      <trkpt lat="42.0829180" lon="-8.8904900">
        <ele>40.2</ele>
        <time>2021-05-19T12:00:10Z</time>
      </trkpt>
      <trkpt lat="42.0829180" lon="-8.8904900">
        <ele>40.2</ele>
        <time>2021-05-19T12:00:11Z</time>
      </trkpt>
      <trkpt lat="42.0829180" lon="-8.8904900">
        <ele>40.2</ele>
        <time>2021-05-19T12:00:12Z</time>
      </trkpt>
      <trkpt lat="42.0829180" lon="-8.8904900">
        <ele>40.2</ele>
        <time>2021-05-19T12:00:13Z</time>
      </trkpt>
      <trkpt lat="42.0829180" lon="-8.8904900">
        <ele>40.2</ele>
        <time>2021-05-19T12:00:14Z</time>
      </trkpt>
      <trkpt lat="42.0829180" lon="-8.8904900">
        <ele>40.2</ele>
        <time>2021-05-19T12:00:15Z</time>
      </trkpt>
      <trkpt lat="42.0829180" lon="-8.8904900">
        <ele>40.2</ele>
        <time>2021-05-19T12:00:16Z</time>
      </trkpt>
      <trkpt lat="42.0829190" lon="-8.8904900">
        <ele>40.2</ele>
        <time>2021-05-19T12:00:17Z</time>
      </trkpt>
      <trkpt lat="42.0829190" lon="-8.8904900">
        <ele>40.2</ele>
        <time>2021-05-19T12:00:18Z</time>
      </trkpt>
      <trkpt lat="42.0829190" lon="-8.8904900">
        <ele>40.2</ele>
        <time>2021-05-19T12:00:19Z</time>
      </trkpt>
      <trkpt lat="42.0829190" lon="-8.8904900">
        <ele>40.2</ele>
        <time>2021-05-19T12:00:20Z</time>
      </trkpt>
      <trkpt lat="42.0829190" lon="-8.8904900">
        <ele>40.2</ele>
        <time>2021-05-19T12:00:21Z</time>
      </trkpt>
      <trkpt lat="42.0829190" lon="-8.8904900">
        <ele>40.2</ele>
        <time>2021-05-19T12:00:22Z</time>
      </trkpt>
      <trkpt lat="42.0829190" lon="-8.8904900">
        <ele>40.2</ele>
        <time>2021-05-19T12:00:23Z</time>
      </trkpt>
      <trkpt lat="42.0829190" lon="-8.8904900">
        <ele>40.2</ele>
        <time>2021-05-19T12:00:24Z</time>
      </trkpt>
      <trkpt lat="42.0829190" lon="-8.8904900">
        <ele>40.2</ele>
        <time>2021-05-19T12:00:25Z</time>
      </trkpt>
      <trkpt lat="42.0829190" lon="-8.8904900">
        <ele>40.2</ele>
        <time>2021-05-19T12:00:26Z</time>
      </trkpt>
      <trkpt lat="42.0829190" lon="-8.8904900">
        <ele>40.2</ele>
        <time>2021-05-19T12:00:27Z</time>
      </trkpt>
      <trkpt lat="42.0829190" lon="-8.8904900">
        <ele>40.2</ele>
        <time>2021-05-19T12:00:28Z</time>
      </trkpt>
      <trkpt lat="42.0829190" lon="-8.8904900">
        <ele>40.2</ele>
        <time>2021-05-19T12:00:29Z</time>
      </trkpt>
      <trkpt lat="42.0829190" lon="-8.8904900">
        <ele>40.2</ele>
        <time>2021-05-19T12:00:30Z</time>
      </trkpt>
      <trkpt lat="42.0829190" lon="-8.8904900">
        <ele>40.2</ele>
        <time>2021-05-19T12:00:31Z</time>
      </trkpt>
      <trkpt lat="42.0829190" lon="-8.8904900">
        <ele>40.2</ele>
        <time>2021-05-19T12:00:32Z</time>
      </trkpt>
      <trkpt lat="42.0829190" lon="-8.8904900">
        <ele>40.2</ele>
        <time>2021-05-19T12:00:33Z</time>
      </trkpt>
      <trkpt lat="42.0829190" lon="-8.8904900">
        <ele>40.2</ele>
        <time>2021-05-19T12:00:34Z</time>
      </trkpt>
      <trkpt lat="42.0829190" lon="-8.8904900">
        <ele>40.2</ele>
        <time>2021-05-19T12:00:35Z</time>
      </trkpt>
      <trkpt lat="42.0829200" lon="-8.8904900">
        <ele>40.2</ele>
        <time>2021-05-19T12:00:36Z</time>
      </trkpt>
      <trkpt lat="42.0829200" lon="-8.8904900">
        <ele>40.2</ele>
        <time>2021-05-19T12:00:37Z</time>
      </trkpt>
      <trkpt lat="42.0829200" lon="-8.8904900">
        <ele>40.2</ele>
        <time>2021-05-19T12:00:38Z</time>
      </trkpt>
      <trkpt lat="42.0829200" lon="-8.8904900">
        <ele>40.2</ele>
        <time>2021-05-19T12:00:39Z</time>
      </trkpt>
      <trkpt lat="42.0829200" lon="-8.8904900">
        <ele>40.2</ele>
        <time>2021-05-19T12:00:40Z</time>
      </trkpt>
      <trkpt lat="42.0829200" lon="-8.8904900">
        <ele>40.2</ele>
        <time>2021-05-19T12:00:41Z</time>
      </trkpt>
      <trkpt lat="42.0829200" lon="-8.8904900">
        <ele>40.2</ele>
        <time>2021-05-19T12:00:42Z</time>
      </trkpt>
      <trkpt lat="42.0829200" lon="-8.8904900">
        <ele>40.2</ele>
        <time>2021-05-19T12:00:43Z</time>
      </trkpt>
      <trkpt lat="42.0829200" lon="-8.8904900">
        <ele>40.2</ele>
        <time>2021-05-19T12:00:44Z</time>
      </trkpt>
      <trkpt lat="42.0829200" lon="-8.8904900">
        <ele>40.2</ele>
        <time>2021-05-19T12:00:45Z</time>
      </trkpt>
      <trkpt lat="42.0829200" lon="-8.8904900">
        <ele>40.2</ele>
        <time>2021-05-19T12:00:46Z</time>
      </trkpt>
      <trkpt lat="42.0829200" lon="-8.8904900">
        <ele>40.2</ele>
        <time>2021-05-19T12:00:47Z</time>
      </trkpt>
      <trkpt lat="42.0829200" lon="-8.8904900">
        <ele>40.2</ele>
        <time>2021-05-19T12:00:48Z</time>
      </trkpt>
      <trkpt lat="42.0829200" lon="-8.8904900">
        <ele>40.2</ele>
        <time>2021-05-19T12:00:49Z</time>
      </trkpt>
      <trkpt lat="42.0829200" lon="-8.8904900">
        <ele>40.2</ele>
        <time>2021-05-19T12:00:50Z</time>
      </trkpt>
      <trkpt lat="42.0829200" lon="-8.8904900">
        <ele>40.2</ele>
        <time>2021-05-19T12:00:51Z</time>
      </trkpt>
      <trkpt lat="42.0829200" lon="-8.8904900">
        <ele>40.2</ele>
        <time>2021-05-19T12:00:52Z</time>
      </trkpt>
      <trkpt lat="42.0829200" lon="-8.8904900">
        <ele>40.2</ele>
        <time>2021-05-19T12:00:53Z</time>
      </trkpt>
      <trkpt lat="42.0829200" lon="-8.8904900">
        <ele>40.2</ele>
        <time>2021-05-19T12:00:54Z</time>
      </trkpt>
      <trkpt lat="42.0829210" lon="-8.8904900">
        <ele>40.2</ele>
        <time>2021-05-19T12:00:55Z</time>
      </trkpt>
      <trkpt lat="42.0829210" lon="-8.8904900">
        <ele>40.2</ele>
        <time>2021-05-19T12:00:56Z</time>
      </trkpt>
      <trkpt lat="42.0829210" lon="-8.8904900">
        <ele>40.2</ele>
        <time>2021-05-19T12:00:57Z</time>
      </trkpt>
      <trkpt lat="42.0829210" lon="-8.8904900">
        <ele>40.2</ele>
        <time>2021-05-19T12:00:58Z</time>
      </trkpt>
      <trkpt lat="42.0829210" lon="-8.8904900">
        <ele>40.2</ele>
        <time>2021-05-19T12:00:59Z</time>
      </trkpt>
      <trkpt lat="42.0829210" lon="-8.8904900">
        <ele>40.2</ele>
        <time>2021-05-19T12:01:00Z</time>
      </trkpt>
      <trkpt lat="42.0829210" lon="-8.8904900">
        <ele>40.2</ele>
        <time>2021-05-19T12:01:01Z</time>
      </trkpt>
      <trkpt lat="42.0829210" lon="-8.8904900">
        <ele>40.2</ele>
        <time>2021-05-19T12:01:02Z</time>
      </trkpt>
      <trkpt lat="42.0829210" lon="-8.8904900">
        <ele>40.2</ele>
        <time>2021-05-19T12:01:03Z</time>
      </trkpt>
      <trkpt lat="42.0829210" lon="-8.8904900">
        <ele>40.2</ele>
        <time>2021-05-19T12:01:04Z</time>
      </trkpt>
      <trkpt lat="42.0829210" lon="-8.8904900">
        <ele>40.2</ele>
        <time>2021-05-19T12:01:05Z</time>
      </trkpt>
      <trkpt lat="42.0829210" lon="-8.8904900">
        <ele>40.2</ele>
        <time>2021-05-19T12:01:06Z</time>
      </trkpt>
      <trkpt lat="42.0829210" lon="-8.8904900">
        <ele>40.2</ele>
        <time>2021-05-19T12:01:07Z</time>
      </trkpt>
      <trkpt lat="42.0829210" lon="-8.8904900">
        <ele>40.2</ele>
        <time>2021-05-19T12:01:08Z</time>
      </trkpt>
      <trkpt lat="42.0829210" lon="-8.8904900">
        <ele>40.2</ele>
        <time>2021-05-19T12:01:09Z</time>
      </trkpt>
      <trkpt lat="42.0829210" lon="-8.8904900">
        <ele>40.2</ele>
        <time>2021-05-19T12:01:10Z</time>
      </trkpt>
      <trkpt lat="42.0829210" lon="-8.8904900">
        <ele>40.2</ele>
        <time>2021-05-19T12:01:11Z</time>
      </trkpt>
      <trkpt lat="42.0829210" lon="-8.8904900">
        <ele>40.2</ele>
        <time>2021-05-19T12:01:12Z</time>
      </trkpt>
      <trkpt lat="42.0829210" lon="-8.8904900">
        <ele>40.2</ele>
        <time>2021-05-19T12:01:13Z</time>
      </trkpt>
      <trkpt lat="42.0829220" lon="-8.8904900">
        <ele>40.2</ele>
        <time>2021-05-19T12:01:14Z</time>
      </trkpt>
      <trkpt lat="42.0829220" lon="-8.8904900">
        <ele>40.2</ele>
        <time>2021-05-19T12:01:15Z</time>
      </trkpt>
      <trkpt lat="42.0829220" lon="-8.8904900">
        <ele>40.2</ele>
        <time>2021-05-19T12:01:16Z</time>
      </trkpt>
      <trkpt lat="42.0829220" lon="-8.8904900">
        <ele>40.2</ele>
        <time>2021-05-19T12:01:17Z</time>
      </trkpt>
      <trkpt lat="42.0829220" lon="-8.8904900">
        <ele>40.2</ele>
        <time>2021-05-19T12:01:18Z</time>
      </trkpt>
      <trkpt lat="42.0829220" lon="-8.8904890">
        <ele>40.2</ele>
        <time>2021-05-19T12:01:19Z</time>
      </trkpt>
      <trkpt lat="42.0829220" lon="-8.8904890">
        <ele>40.2</ele>
        <time>2021-05-19T12:01:20Z</time>
      </trkpt>
      <trkpt lat="42.0829220" lon="-8.8904890">
        <ele>40.2</ele>
        <time>2021-05-19T12:01:21Z</time>
      </trkpt>
      <trkpt lat="42.0829220" lon="-8.8904890">
        <ele>40.2</ele>
        <time>2021-05-19T12:01:22Z</time>
      </trkpt>
      <trkpt lat="42.0829220" lon="-8.8904890">
        <ele>40.2</ele>
        <time>2021-05-19T12:01:23Z</time>
      </trkpt>
      <trkpt lat="42.0829220" lon="-8.8904890">
        <ele>40.2</ele>
        <time>2021-05-19T12:01:24Z</time>
      </trkpt>
      <trkpt lat="42.0829220" lon="-8.8904890">
        <ele>40.2</ele>
        <time>2021-05-19T12:01:25Z</time>
      </trkpt>
      <trkpt lat="42.0829220" lon="-8.8904890">
        <ele>40.2</ele>
        <time>2021-05-19T12:01:26Z</time>
      </trkpt>
      <trkpt lat="42.0829220" lon="-8.8904890">
        <ele>40.2</ele>
        <time>2021-05-19T12:01:27Z</time>
      </trkpt>
      <trkpt lat="42.0829220" lon="-8.8904890">
        <ele>40.2</ele>
        <time>2021-05-19T12:01:28Z</time>
      </trkpt>
      <trkpt lat="42.0829220" lon="-8.8904890">
        <ele>40.2</ele>
        <time>2021-05-19T12:01:29Z</time>
      </trkpt>
      <trkpt lat="42.0829220" lon="-8.8904890">
        <ele>40.2</ele>
        <time>2021-05-19T12:01:30Z</time>
      </trkpt>
      <trkpt lat="42.0829220" lon="-8.8904890">
        <ele>40.2</ele>
        <time>2021-05-19T12:01:31Z</time>
      </trkpt>
      <trkpt lat="42.0829220" lon="-8.8904890">
        <ele>40.2</ele>
        <time>2021-05-19T12:01:32Z</time>
      </trkpt>
      <trkpt lat="42.0829230" lon="-8.8904890">
        <ele>40.2</ele>
        <time>2021-05-19T12:01:33Z</time>
      </trkpt>
      <trkpt lat="42.0829230" lon="-8.8904890">
        <ele>40.2</ele>
        <time>2021-05-19T12:01:34Z</time>
      </trkpt>
      <trkpt lat="42.0829230" lon="-8.8904890">
        <ele>40.2</ele>
        <time>2021-05-19T12:01:35Z</time>
      </trkpt>
      <trkpt lat="42.0829230" lon="-8.8904890">
        <ele>40.2</ele>
        <time>2021-05-19T12:01:36Z</time>
      </trkpt>
      <trkpt lat="42.0829230" lon="-8.8904890">
        <ele>40.2</ele>
        <time>2021-05-19T12:01:37Z</time>
      </trkpt>
      <trkpt lat="42.0829230" lon="-8.8904890">
        <ele>40.2</ele>
        <time>2021-05-19T12:01:38Z</time>
      </trkpt>
      <trkpt lat="42.0829230" lon="-8.8904890">
        <ele>40.2</ele>
        <time>2021-05-19T12:01:39Z</time>
      </trkpt>
      <trkpt lat="42.0829230" lon="-8.8904890">
        <ele>40.2</ele>
        <time>2021-05-19T12:01:40Z</time>
      </trkpt>
      <trkpt lat="42.0829230" lon="-8.8904890">
        <ele>40.2</ele>
        <time>2021-05-19T12:01:41Z</time>
      </trkpt>
      <trkpt lat="42.0829230" lon="-8.8904890">
        <ele>40.2</ele>
        <time>2021-05-19T12:01:42Z</time>
      </trkpt>
      <trkpt lat="42.0829230" lon="-8.8904890">
        <ele>40.2</ele>
        <time>2021-05-19T12:01:43Z</time>
      </trkpt>
      <trkpt lat="42.0829230" lon="-8.8904890">
        <ele>40.2</ele>
        <time>2021-05-19T12:01:44Z</time>
      </trkpt>
      <trkpt lat="42.0829230" lon="-8.8904890">
        <ele>40.2</ele>
        <time>2021-05-19T12:01:45Z</time>
      </trkpt>
      <trkpt lat="42.0829230" lon="-8.8904890">
        <ele>40.2</ele>
        <time>2021-05-19T12:01:46Z</time>
      </trkpt>
      <trkpt lat="42.0829230" lon="-8.8904890">
        <ele>40.2</ele>
        <time>2021-05-19T12:01:47Z</time>
      </trkpt>
      <trkpt lat="42.0829230" lon="-8.8904890">
        <ele>40.2</ele>
        <time>2021-05-19T12:01:48Z</time>
      </trkpt>
      <trkpt lat="42.0829230" lon="-8.8904890">
        <ele>40.2</ele>
        <time>2021-05-19T12:01:49Z</time>
      </trkpt>
      <trkpt lat="42.0829230" lon="-8.8904890">
        <ele>40.2</ele>
        <time>2021-05-19T12:01:50Z</time>
      </trkpt>
      <trkpt lat="42.0829230" lon="-8.8904890">
        <ele>40.2</ele>
        <time>2021-05-19T12:01:51Z</time>
      </trkpt>
      <trkpt lat="42.0829230" lon="-8.8904890">
        <ele>40.2</ele>
        <time>2021-05-19T12:01:52Z</time>
      </trkpt>
      <trkpt lat="42.0829240" lon="-8.8904890">
        <ele>40.2</ele>
        <time>2021-05-19T12:01:53Z</time>
      </trkpt>
      <trkpt lat="42.0829240" lon="-8.8904890">
        <ele>40.2</ele>
        <time>2021-05-19T12:01:54Z</time>
      </trkpt>
      <trkpt lat="42.0829240" lon="-8.8904890">
        <ele>40.2</ele>
        <time>2021-05-19T12:01:55Z</time>
      </trkpt>
      <trkpt lat="42.0829240" lon="-8.8904890">
        <ele>40.2</ele>
        <time>2021-05-19T12:01:56Z</time>
      </trkpt>
      <trkpt lat="42.0829240" lon="-8.8904890">
        <ele>40.2</ele>
        <time>2021-05-19T12:01:57Z</time>
      </trkpt>
      <trkpt lat="42.0829240" lon="-8.8904890">
        <ele>40.2</ele>
        <time>2021-05-19T12:01:58Z</time>
      </trkpt>
      <trkpt lat="42.0829240" lon="-8.8904890">
        <ele>40.2</ele>
        <time>2021-05-19T12:01:59Z</time>
      </trkpt>
      <trkpt lat="42.0829240" lon="-8.8904890">
        <ele>40.2</ele>
        <time>2021-05-19T12:02:00Z</time>
      </trkpt>
      <trkpt lat="42.0829240" lon="-8.8904890">
        <ele>40.2</ele>
        <time>2021-05-19T12:02:01Z</time>
      </trkpt>
      <trkpt lat="42.0829240" lon="-8.8904890">
        <ele>40.2</ele>
        <time>2021-05-19T12:02:02Z</time>
      </trkpt>
      <trkpt lat="42.0829240" lon="-8.8904890">
        <ele>40.2</ele>
        <time>2021-05-19T12:02:03Z</time>
      </trkpt>
      <trkpt lat="42.0829240" lon="-8.8904890">
        <ele>40.2</ele>
        <time>2021-05-19T12:02:04Z</time>
      </trkpt>
      <trkpt lat="42.0829240" lon="-8.8904890">
        <ele>40.2</ele>
        <time>2021-05-19T12:02:05Z</time>
      </trkpt>
      <trkpt lat="42.0829240" lon="-8.8904890">
        <ele>40.2</ele>
        <time>2021-05-19T12:02:06Z</time>
      </trkpt>
      <trkpt lat="42.0829240" lon="-8.8904890">
        <ele>40.2</ele>
        <time>2021-05-19T12:02:07Z</time>
      </trkpt>
      <trkpt lat="42.0829240" lon="-8.8904890">
        <ele>40.2</ele>
        <time>2021-05-19T12:02:08Z</time>
      </trkpt>
      <trkpt lat="42.0829240" lon="-8.8904890">
        <ele>40.2</ele>
        <time>2021-05-19T12:02:09Z</time>
      </trkpt>
      <trkpt lat="42.0829240" lon="-8.8904890">
        <ele>40.2</ele>
        <time>2021-05-19T12:02:10Z</time>
      </trkpt>
      <trkpt lat="42.0829240" lon="-8.8904890">
        <ele>40.2</ele>
        <time>2021-05-19T12:02:11Z</time>
      </trkpt>
      <trkpt lat="42.0829250" lon="-8.8904890">
        <ele>40.2</ele>
        <time>2021-05-19T12:02:12Z</time>
      </trkpt>
      <trkpt lat="42.0829250" lon="-8.8904890">
        <ele>40.2</ele>
        <time>2021-05-19T12:02:13Z</time>
      </trkpt>
      <trkpt lat="42.0829250" lon="-8.8904890">
        <ele>40.2</ele>
        <time>2021-05-19T12:02:14Z</time>
      </trkpt>
      <trkpt lat="42.0829250" lon="-8.8904890">
        <ele>40.2</ele>
        <time>2021-05-19T12:02:15Z</time>
      </trkpt>
      <trkpt lat="42.0829250" lon="-8.8904890">
        <ele>40.2</ele>
        <time>2021-05-19T12:02:16Z</time>
      </trkpt>
      <trkpt lat="42.0829250" lon="-8.8904890">
        <ele>40.2</ele>
        <time>2021-05-19T12:02:17Z</time>
      </trkpt>
      <trkpt lat="42.0829250" lon="-8.8904890">
        <ele>40.2</ele>
        <time>2021-05-19T12:02:18Z</time>
      </trkpt>
      <trkpt lat="42.0829250" lon="-8.8904890">
        <ele>40.2</ele>
        <time>2021-05-19T12:02:19Z</time>
      </trkpt>
      <trkpt lat="42.0829250" lon="-8.8904890">
        <ele>40.2</ele>
        <time>2021-05-19T12:02:20Z</time>
      </trkpt>
      <trkpt lat="42.0829250" lon="-8.8904890">
        <ele>40.2</ele>
        <time>2021-05-19T12:02:21Z</time>
      </trkpt>
      <trkpt lat="42.0829250" lon="-8.8904890">
        <ele>40.2</ele>
        <time>2021-05-19T12:02:22Z</time>
      </trkpt>
      <trkpt lat="42.0829250" lon="-8.8904890">
        <ele>40.2</ele>
        <time>2021-05-19T12:02:23Z</time>
      </trkpt>
      <trkpt lat="42.0829250" lon="-8.8904890">
        <ele>40.2</ele>
        <time>2021-05-19T12:02:24Z</time>
      </trkpt>
      <trkpt lat="42.0829250" lon="-8.8904890">
        <ele>40.2</ele>
        <time>2021-05-19T12:02:25Z</time>
      </trkpt>
      <trkpt lat="42.0829250" lon="-8.8904890">
        <ele>40.2</ele>
        <time>2021-05-19T12:02:26Z</time>
      </trkpt>
      <trkpt lat="42.0829250" lon="-8.8904890">
        <ele>40.2</ele>
        <time>2021-05-19T12:02:27Z</time>
      </trkpt>
      <trkpt lat="42.0829250" lon="-8.8904890">
        <ele>40.2</ele>
        <time>2021-05-19T12:02:28Z</time>
      </trkpt>
      <trkpt lat="42.0829250" lon="-8.8904890">
        <ele>40.2</ele>
        <time>2021-05-19T12:02:29Z</time>
      </trkpt>
      <trkpt lat="42.0829250" lon="-8.8904890">
        <ele>40.2</ele>
        <time>2021-05-19T12:02:30Z</time>
      </trkpt>
      <trkpt lat="42.0829260" lon="-8.8904890">
        <ele>40.2</ele>
        <time>2021-05-19T12:02:31Z</time>
      </trkpt>
      <trkpt lat="42.0829260" lon="-8.8904890">
        <ele>40.2</ele>
        <time>2021-05-19T12:02:32Z</time>
      </trkpt>
      <trkpt lat="42.0829260" lon="-8.8904890">
        <ele>40.2</ele>
        <time>2021-05-19T12:02:33Z</time>
      </trkpt>
      <trkpt lat="42.0829260" lon="-8.8904890">
        <ele>40.2</ele>
        <time>2021-05-19T12:02:34Z</time>
      </trkpt>
      <trkpt lat="42.0829260" lon="-8.8904890">
        <ele>40.2</ele>
        <time>2021-05-19T12:02:35Z</time>
      </trkpt>
      <trkpt lat="42.0829260" lon="-8.8904890">
        <ele>40.2</ele>
        <time>2021-05-19T12:02:36Z</time>
      </trkpt>
      <trkpt lat="42.0829260" lon="-8.8904890">
        <ele>40.2</ele>
        <time>2021-05-19T12:02:37Z</time>
      </trkpt>
      <trkpt lat="42.0829260" lon="-8.8904890">
        <ele>40.2</ele>
        <time>2021-05-19T12:02:38Z</time>
      </trkpt>
      <trkpt lat="42.0829260" lon="-8.8904890">
        <ele>40.2</ele>
        <time>2021-05-19T12:02:39Z</time>
      </trkpt>
      <trkpt lat="42.0829260" lon="-8.8904890">
        <ele>40.2</ele>
        <time>2021-05-19T12:02:40Z</time>
      </trkpt>
      <trkpt lat="42.0829260" lon="-8.8904890">
        <ele>40.2</ele>
        <time>2021-05-19T12:02:41Z</time>
      </trkpt>
      <trkpt lat="42.0829260" lon="-8.8904890">
        <ele>40.2</ele>
        <time>2021-05-19T12:02:42Z</time>
      </trkpt>
      <trkpt lat="42.0829260" lon="-8.8904890">
        <ele>40.2</ele>
        <time>2021-05-19T12:02:43Z</time>
      </trkpt>
      <trkpt lat="42.0829260" lon="-8.8904890">
        <ele>40.2</ele>
        <time>2021-05-19T12:02:44Z</time>
      </trkpt>
      <trkpt lat="42.0829260" lon="-8.8904890">
        <ele>40.2</ele>
        <time>2021-05-19T12:02:45Z</time>
      </trkpt>
      <trkpt lat="42.0829260" lon="-8.8904890">
        <ele>40.2</ele>
        <time>2021-05-19T12:02:46Z</time>
      </trkpt>
      <trkpt lat="42.0829260" lon="-8.8904890">
        <ele>40.2</ele>
        <time>2021-05-19T12:02:47Z</time>
      </trkpt>
      <trkpt lat="42.0829260" lon="-8.8904890">
        <ele>40.2</ele>
        <time>2021-05-19T12:02:48Z</time>
      </trkpt>
      <trkpt lat="42.0829260" lon="-8.8904890">
        <ele>40.2</ele>
        <time>2021-05-19T12:02:49Z</time>
      </trkpt>
      <trkpt lat="42.0829270" lon="-8.8904890">
        <ele>40.2</ele>
        <time>2021-05-19T12:02:50Z</time>
      </trkpt>
      <trkpt lat="42.0829270" lon="-8.8904890">
        <ele>40.2</ele>
        <time>2021-05-19T12:02:51Z</time>
      </trkpt>
      <trkpt lat="42.0829270" lon="-8.8904890">
        <ele>40.2</ele>
        <time>2021-05-19T12:02:52Z</time>
      </trkpt>
      <trkpt lat="42.0829270" lon="-8.8904890">
        <ele>40.2</ele>
        <time>2021-05-19T12:02:53Z</time>
      </trkpt>
      <trkpt lat="42.0829270" lon="-8.8904890">
        <ele>40.2</ele>
        <time>2021-05-19T12:02:54Z</time>
      </trkpt>
      <trkpt lat="42.0829270" lon="-8.8904890">
        <ele>40.2</ele>
        <time>2021-05-19T12:02:55Z</time>
      </trkpt>
      <trkpt lat="42.0829270" lon="-8.8904890">
        <ele>40.2</ele>
        <time>2021-05-19T12:02:56Z</time>
      </trkpt>
      <trkpt lat="42.0829270" lon="-8.8904890">
        <ele>40.2</ele>
        <time>2021-05-19T12:02:57Z</time>
      </trkpt>
      <trkpt lat="42.0829270" lon="-8.8904890">
        <ele>40.2</ele>
        <time>2021-05-19T12:02:58Z</time>
      </trkpt>
      <trkpt lat="42.0829270" lon="-8.8904890">
        <ele>40.2</ele>
        <time>2021-05-19T12:02:59Z</time>
      </trkpt>
      <trkpt lat="42.0829270" lon="-8.8904890">
        <ele>40.2</ele>
        <time>2021-05-19T12:03:00Z</time>
      </trkpt>
      <trkpt lat="42.0829270" lon="-8.8904890">
        <ele>40.2</ele>
        <time>2021-05-19T12:03:01Z</time>
      </trkpt>
      <trkpt lat="42.0829270" lon="-8.8904890">
        <ele>40.2</ele>
        <time>2021-05-19T12:03:02Z</time>
      </trkpt>
      <trkpt lat="42.0829270" lon="-8.8904890">
        <ele>40.2</ele>
        <time>2021-05-19T12:03:03Z</time>
      </trkpt>
      <trkpt lat="42.0829270" lon="-8.8904890">
        <ele>40.2</ele>
        <time>2021-05-19T12:03:04Z</time>
      </trkpt>
      <trkpt lat="42.0829270" lon="-8.8904890">
        <ele>40.2</ele>
        <time>2021-05-19T12:03:05Z</time>
      </trkpt>
      <trkpt lat="42.0829270" lon="-8.8904890">
        <ele>40.2</ele>
        <time>2021-05-19T12:03:06Z</time>
      </trkpt>
      <trkpt lat="42.0829270" lon="-8.8904890">
        <ele>40.2</ele>
        <time>2021-05-19T12:03:07Z</time>
      </trkpt>
      <trkpt lat="42.0829270" lon="-8.8904890">
        <ele>40.2</ele>
        <time>2021-05-19T12:03:08Z</time>
      </trkpt>
      <trkpt lat="42.0829280" lon="-8.8904890">
        <ele>40.2</ele>
        <time>2021-05-19T12:03:09Z</time>
      </trkpt>
      <trkpt lat="42.0829280" lon="-8.8904890">
        <ele>40.2</ele>
        <time>2021-05-19T12:03:10Z</time>
      </trkpt>
      <trkpt lat="42.0829280" lon="-8.8904890">
        <ele>40.2</ele>
        <time>2021-05-19T12:03:11Z</time>
      </trkpt>
      <trkpt lat="42.0829280" lon="-8.8904890">
        <ele>40.2</ele>
        <time>2021-05-19T12:03:12Z</time>
      </trkpt>
      <trkpt lat="42.0829280" lon="-8.8904890">
        <ele>40.2</ele>
        <time>2021-05-19T12:03:13Z</time>
      </trkpt>
      <trkpt lat="42.0829280" lon="-8.8904890">
        <ele>40.2</ele>
        <time>2021-05-19T12:03:14Z</time>
      </trkpt>
      <trkpt lat="42.0829280" lon="-8.8904890">
        <ele>40.2</ele>
        <time>2021-05-19T12:03:15Z</time>
      </trkpt>
      <trkpt lat="42.0829280" lon="-8.8904890">
        <ele>40.2</ele>
        <time>2021-05-19T12:03:16Z</time>
      </trkpt>
      <trkpt lat="42.0829280" lon="-8.8904890">
        <ele>40.2</ele>
        <time>2021-05-19T12:03:17Z</time>
      </trkpt>
      <trkpt lat="42.0829280" lon="-8.8904890">
        <ele>40.2</ele>
        <time>2021-05-19T12:03:18Z</time>
      </trkpt>
      <trkpt lat="42.0829280" lon="-8.8904890">
        <ele>40.2</ele>
        <time>2021-05-19T12:03:19Z</time>
      </trkpt>
      <trkpt lat="42.0829280" lon="-8.8904890">
        <ele>40.2</ele>
        <time>2021-05-19T12:03:20Z</time>
      </trkpt>
      <trkpt lat="42.0829280" lon="-8.8904890">
        <ele>40.2</ele>
        <time>2021-05-19T12:03:21Z</time>
      </trkpt>
      <trkpt lat="42.0829280" lon="-8.8904890">
        <ele>40.2</ele>
        <time>2021-05-19T12:03:22Z</time>
      </trkpt>
      <trkpt lat="42.0829280" lon="-8.8904890">
        <ele>40.2</ele>
        <time>2021-05-19T12:03:23Z</time>
      </trkpt>
      <trkpt lat="42.0829280" lon="-8.8904890">
        <ele>40.2</ele>
        <time>2021-05-19T12:03:24Z</time>
      </trkpt>
      <trkpt lat="42.0829280" lon="-8.8904890">
        <ele>40.2</ele>
        <time>2021-05-19T12:03:25Z</time>
      </trkpt>
      <trkpt lat="42.0829280" lon="-8.8904890">
        <ele>40.2</ele>
        <time>2021-05-19T12:03:26Z</time>
      </trkpt>
      <trkpt lat="42.0829280" lon="-8.8904890">
        <ele>40.2</ele>
        <time>2021-05-19T12:03:27Z</time>
      </trkpt>
      <trkpt lat="42.0829280" lon="-8.8904890">
        <ele>40.2</ele>
        <time>2021-05-19T12:03:28Z</time>
      </trkpt>
      <trkpt lat="42.0829290" lon="-8.8904890">
        <ele>40.2</ele>
        <time>2021-05-19T12:03:29Z</time>
      </trkpt>
      <trkpt lat="42.0829290" lon="-8.8904890">
        <ele>40.2</ele>
        <time>2021-05-19T12:03:30Z</time>
      </trkpt>
      <trkpt lat="42.0829290" lon="-8.8904890">
        <ele>40.2</ele>
        <time>2021-05-19T12:03:31Z</time>
      </trkpt>
      <trkpt lat="42.0829290" lon="-8.8904890">
        <ele>40.2</ele>
        <time>2021-05-19T12:03:32Z</time>
      </trkpt>
      <trkpt lat="42.0829290" lon="-8.8904890">
        <ele>40.2</ele>
        <time>2021-05-19T12:03:33Z</time>
      </trkpt>
      <trkpt lat="42.0829290" lon="-8.8904890">
        <ele>40.2</ele>
        <time>2021-05-19T12:03:34Z</time>
      </trkpt>
      <trkpt lat="42.0829290" lon="-8.8904890">
        <ele>40.2</ele>
        <time>2021-05-19T12:03:35Z</time>
      </trkpt>
      <trkpt lat="42.0829290" lon="-8.8904890">
        <ele>40.2</ele>
        <time>2021-05-19T12:03:36Z</time>
      </trkpt>
      <trkpt lat="42.0829290" lon="-8.8904890">
        <ele>40.2</ele>
        <time>2021-05-19T12:03:37Z</time>
      </trkpt>
      <trkpt lat="42.0829290" lon="-8.8904890">
        <ele>40.2</ele>
        <time>2021-05-19T12:03:38Z</time>
      </trkpt>
      <trkpt lat="42.0829290" lon="-8.8904890">
        <ele>40.2</ele>
        <time>2021-05-19T12:03:39Z</time>
      </trkpt>
      <trkpt lat="42.0829290" lon="-8.8904890">
        <ele>40.2</ele>
        <time>2021-05-19T12:03:40Z</time>
      </trkpt>
      <trkpt lat="42.0829290" lon="-8.8904890">
        <ele>40.2</ele>
        <time>2021-05-19T12:03:41Z</time>
      </trkpt>
      <trkpt lat="42.0829290" lon="-8.8904890">
        <ele>40.2</ele>
        <time>2021-05-19T12:03:42Z</time>
      </trkpt>
      <trkpt lat="42.0829290" lon="-8.8904890">
        <ele>40.2</ele>
        <time>2021-05-19T12:03:43Z</time>
      </trkpt>
      <trkpt lat="42.0829290" lon="-8.8904890">
        <ele>40.2</ele>
        <time>2021-05-19T12:03:44Z</time>
      </trkpt>
      <trkpt lat="42.0829290" lon="-8.8904890">
        <ele>40.2</ele>
        <time>2021-05-19T12:03:45Z</time>
      </trkpt>
      <trkpt lat="42.0829290" lon="-8.8904890">
        <ele>40.2</ele>
        <time>2021-05-19T12:03:46Z</time>
      </trkpt>
      <trkpt lat="42.0829290" lon="-8.8904890">
        <ele>40.2</ele>
        <time>2021-05-19T12:03:47Z</time>
      </trkpt>
      <trkpt lat="42.0829300" lon="-8.8904890">
        <ele>40.2</ele>
        <time>2021-05-19T12:03:48Z</time>
      </trkpt>
      <trkpt lat="42.0829300" lon="-8.8904890">
        <ele>40.2</ele>
        <time>2021-05-19T12:03:49Z</time>
      </trkpt>
      <trkpt lat="42.0829300" lon="-8.8904890">
        <ele>40.2</ele>
        <time>2021-05-19T12:03:50Z</time>
      </trkpt>
      <trkpt lat="42.0829300" lon="-8.8904890">
        <ele>40.2</ele>
        <time>2021-05-19T12:03:51Z</time>
      </trkpt>
      <trkpt lat="42.0829300" lon="-8.8904890">
        <ele>40.2</ele>
        <time>2021-05-19T12:03:52Z</time>
      </trkpt>
      <trkpt lat="42.0829300" lon="-8.8904890">
        <ele>40.2</ele>
        <time>2021-05-19T12:03:53Z</time>
      </trkpt>
      <trkpt lat="42.0829300" lon="-8.8904890">
        <ele>40.2</ele>
        <time>2021-05-19T12:03:54Z</time>
      </trkpt>
      <trkpt lat="42.0829300" lon="-8.8904890">
        <ele>40.2</ele>
        <time>2021-05-19T12:03:55Z</time>
      </trkpt>
      <trkpt lat="42.0829300" lon="-8.8904890">
        <ele>40.2</ele>
        <time>2021-05-19T12:03:56Z</time>
      </trkpt>
      <trkpt lat="42.0829300" lon="-8.8904890">
        <ele>40.2</ele>
        <time>2021-05-19T12:03:57Z</time>
      </trkpt>
      <trkpt lat="42.0829300" lon="-8.8904890">
        <ele>40.2</ele>
        <time>2021-05-19T12:03:58Z</time>
      </trkpt>
      <trkpt lat="42.0829300" lon="-8.8904890">
        <ele>40.2</ele>
        <time>2021-05-19T12:03:59Z</time>
      </trkpt>
      <trkpt lat="42.0829300" lon="-8.8904890">
        <ele>40.2</ele>
        <time>2021-05-19T12:04:00Z</time>
      </trkpt>
      <trkpt lat="42.0829300" lon="-8.8904890">
        <ele>40.2</ele>
        <time>2021-05-19T12:04:01Z</time>
      </trkpt>
      <trkpt lat="42.0829300" lon="-8.8904890">
        <ele>40.2</ele>
        <time>2021-05-19T12:04:02Z</time>
      </trkpt>
      <trkpt lat="42.0829300" lon="-8.8904890">
        <ele>40.2</ele>
        <time>2021-05-19T12:04:03Z</time>
      </trkpt>
      <trkpt lat="42.0829300" lon="-8.8904890">
        <ele>40.2</ele>
        <time>2021-05-19T12:04:04Z</time>
      </trkpt>
      <trkpt lat="42.0829300" lon="-8.8904890">
        <ele>40.2</ele>
        <time>2021-05-19T12:04:05Z</time>
      </trkpt>
      <trkpt lat="42.0829300" lon="-8.8904890">
        <ele>40.2</ele>
        <time>2021-05-19T12:04:06Z</time>
      </trkpt>
      <trkpt lat="42.0829310" lon="-8.8904890">
        <ele>40.2</ele>
        <time>2021-05-19T12:04:07Z</time>
      </trkpt>
      <trkpt lat="42.0829310" lon="-8.8904890">
        <ele>40.2</ele>
        <time>2021-05-19T12:04:08Z</time>
      </trkpt>
      <trkpt lat="42.0829310" lon="-8.8904890">
        <ele>40.2</ele>
        <time>2021-05-19T12:04:09Z</time>
      </trkpt>
      <trkpt lat="42.0829310" lon="-8.8904890">
        <ele>40.2</ele>
        <time>2021-05-19T12:04:10Z</time>
      </trkpt>
      <trkpt lat="42.0829310" lon="-8.8904890">
        <ele>40.2</ele>
        <time>2021-05-19T12:04:11Z</time>
      </trkpt>
      <trkpt lat="42.0829310" lon="-8.8904890">
        <ele>40.2</ele>
        <time>2021-05-19T12:04:12Z</time>
      </trkpt>
      <trkpt lat="42.0829310" lon="-8.8904890">
        <ele>40.2</ele>
        <time>2021-05-19T12:04:13Z</time>
      </trkpt>
      <trkpt lat="42.0829310" lon="-8.8904890">
        <ele>40.2</ele>
        <time>2021-05-19T12:04:14Z</time>
      </trkpt>
      <trkpt lat="42.0829310" lon="-8.8904890">
        <ele>40.2</ele>
        <time>2021-05-19T12:04:15Z</time>
      </trkpt>
      <trkpt lat="42.0829310" lon="-8.8904890">
        <ele>40.2</ele>
        <time>2021-05-19T12:04:16Z</time>
      </trkpt>
      <trkpt lat="42.0829310" lon="-8.8904890">
        <ele>40.2</ele>
        <time>2021-05-19T12:04:17Z</time>
      </trkpt>
      <trkpt lat="42.0829310" lon="-8.8904890">
        <ele>40.2</ele>
        <time>2021-05-19T12:04:18Z</time>
      </trkpt>
      <trkpt lat="42.0829310" lon="-8.8904890">
        <ele>40.2</ele>
        <time>2021-05-19T12:04:19Z</time>
      </trkpt>
      <trkpt lat="42.0829310" lon="-8.8904890">
        <ele>40.2</ele>
        <time>2021-05-19T12:04:20Z</time>
      </trkpt>
      <trkpt lat="42.0829310" lon="-8.8904890">
        <ele>40.2</ele>
        <time>2021-05-19T12:04:21Z</time>
      </trkpt>
      <trkpt lat="42.0829310" lon="-8.8904890">
        <ele>40.2</ele>
        <time>2021-05-19T12:04:22Z</time>
      </trkpt>
      <trkpt lat="42.0829310" lon="-8.8904890">
        <ele>40.2</ele>
        <time>2021-05-19T12:04:23Z</time>
      </trkpt>
      <trkpt lat="42.0829310" lon="-8.8904890">
        <ele>40.2</ele>
        <time>2021-05-19T12:04:24Z</time>
      </trkpt>
      <trkpt lat="42.0829310" lon="-8.8904890">
        <ele>40.2</ele>
        <time>2021-05-19T12:04:25Z</time>
      </trkpt>
      <trkpt lat="42.0829320" lon="-8.8904890">
        <ele>40.2</ele>
        <time>2021-05-19T12:04:26Z</time>
      </trkpt>
      <trkpt lat="42.0829320" lon="-8.8904890">
        <ele>40.2</ele>
        <time>2021-05-19T12:04:27Z</time>
      </trkpt>
      <trkpt lat="42.0829320" lon="-8.8904890">
        <ele>40.2</ele>
        <time>2021-05-19T12:04:28Z</time>
      </trkpt>
      <trkpt lat="42.0829320" lon="-8.8904890">
        <ele>40.2</ele>
        <time>2021-05-19T12:04:29Z</time>
      </trkpt>
      <trkpt lat="42.0829320" lon="-8.8904890">
        <ele>40.2</ele>
        <time>2021-05-19T12:04:30Z</time>
      </trkpt>
      <trkpt lat="42.0829320" lon="-8.8904890">
        <ele>40.2</ele>
        <time>2021-05-19T12:04:31Z</time>
      </trkpt>
      <trkpt lat="42.0829320" lon="-8.8904890">
        <ele>40.2</ele>
        <time>2021-05-19T12:04:32Z</time>
      </trkpt>
      <trkpt lat="42.0829320" lon="-8.8904890">
        <ele>40.2</ele>
        <time>2021-05-19T12:04:33Z</time>
      </trkpt>
      <trkpt lat="42.0829320" lon="-8.8904890">
        <ele>40.2</ele>
        <time>2021-05-19T12:04:34Z</time>
      </trkpt>
      <trkpt lat="42.0829320" lon="-8.8904890">
        <ele>40.2</ele>
        <time>2021-05-19T12:04:35Z</time>
      </trkpt>
      <trkpt lat="42.0829320" lon="-8.8904890">
        <ele>40.2</ele>
        <time>2021-05-19T12:04:36Z</time>
      </trkpt>
      <trkpt lat="42.0829320" lon="-8.8904890">
        <ele>40.2</ele>
        <time>2021-05-19T12:04:37Z</time>
      </trkpt>
      <trkpt lat="42.0829320" lon="-8.8904890">
        <ele>40.2</ele>
        <time>2021-05-19T12:04:38Z</time>
      </trkpt>
      <trkpt lat="42.0829320" lon="-8.8904890">
        <ele>40.2</ele>
        <time>2021-05-19T12:04:39Z</time>
      </trkpt>
      <trkpt lat="42.0829320" lon="-8.8904890">
        <ele>40.2</ele>
        <time>2021-05-19T12:04:40Z</time>
      </trkpt>
      <trkpt lat="42.0829320" lon="-8.8904890">
        <ele>40.2</ele>
        <time>2021-05-19T12:04:41Z</time>
      </trkpt>
      <trkpt lat="42.0829320" lon="-8.8904890">
        <ele>40.2</ele>
        <time>2021-05-19T12:04:42Z</time>
      </trkpt>
      <trkpt lat="42.0829320" lon="-8.8904890">
        <ele>40.2</ele>
        <time>2021-05-19T12:04:43Z</time>
      </trkpt>
      <trkpt lat="42.0829320" lon="-8.8904890">
        <ele>40.2</ele>
        <time>2021-05-19T12:04:44Z</time>
      </trkpt>
      <trkpt lat="42.0829330" lon="-8.8904890">
        <ele>40.2</ele>
        <time>2021-05-19T12:04:45Z</time>
      </trkpt>
      <trkpt lat="42.0829330" lon="-8.8904890">
        <ele>40.2</ele>
        <time>2021-05-19T12:04:46Z</time>
      </trkpt>
      <trkpt lat="42.0829330" lon="-8.8904890">
        <ele>40.2</ele>
        <time>2021-05-19T12:04:47Z</time>
      </trkpt>
      <trkpt lat="42.0829330" lon="-8.8904890">
        <ele>40.2</ele>
        <time>2021-05-19T12:04:48Z</time>
      </trkpt>
      <trkpt lat="42.0829330" lon="-8.8904890">
        <ele>40.2</ele>
        <time>2021-05-19T12:04:49Z</time>
      </trkpt>
      <trkpt lat="42.0829330" lon="-8.8904890">
        <ele>40.2</ele>
        <time>2021-05-19T12:04:50Z</time>
      </trkpt>
      <trkpt lat="42.0829330" lon="-8.8904890">
        <ele>40.2</ele>
        <time>2021-05-19T12:04:51Z</time>
      </trkpt>
      <trkpt lat="42.0829330" lon="-8.8904890">
        <ele>40.2</ele>
        <time>2021-05-19T12:04:52Z</time>
      </trkpt>
      <trkpt lat="42.0829330" lon="-8.8904890">
        <ele>40.2</ele>
        <time>2021-05-19T12:04:53Z</time>
      </trkpt>
      <trkpt lat="42.0829330" lon="-8.8904890">
        <ele>40.2</ele>
        <time>2021-05-19T12:04:54Z</time>
      </trkpt>
      <trkpt lat="42.0829330" lon="-8.8904890">
        <ele>40.2</ele>
        <time>2021-05-19T12:04:55Z</time>
      </trkpt>
      <trkpt lat="42.0829330" lon="-8.8904890">
        <ele>40.2</ele>
        <time>2021-05-19T12:04:56Z</time>
      </trkpt>
      <trkpt lat="42.0829330" lon="-8.8904890">
        <ele>40.2</ele>
        <time>2021-05-19T12:04:57Z</time>
      </trkpt>
      <trkpt lat="42.0829330" lon="-8.8904890">
        <ele>40.2</ele>
        <time>2021-05-19T12:04:58Z</time>
      </trkpt>
      <trkpt lat="42.0829330" lon="-8.8904890">
        <ele>40.2</ele>
        <time>2021-05-19T12:04:59Z</time>
      </trkpt>
      <trkpt lat="42.0829330" lon="-8.8904890">
        <ele>40.2</ele>
        <time>2021-05-19T12:05:00Z</time>
      </trkpt>
      <trkpt lat="42.0829330" lon="-8.8904890">
        <ele>40.2</ele>
        <time>2021-05-19T12:05:01Z</time>
      </trkpt>
      <trkpt lat="42.0829330" lon="-8.8904890">
        <ele>40.2</ele>
        <time>2021-05-19T12:05:02Z</time>
      </trkpt>
      <trkpt lat="42.0829330" lon="-8.8904890">
        <ele>40.2</ele>
        <time>2021-05-19T12:05:03Z</time>
      </trkpt>
      <trkpt lat="42.0829330" lon="-8.8904890">
        <ele>40.2</ele>
        <time>2021-05-19T12:05:04Z</time>
      </trkpt>
      <trkpt lat="42.0829340" lon="-8.8904890">
        <ele>40.2</ele>
        <time>2021-05-19T12:05:05Z</time>
      </trkpt>
      <trkpt lat="42.0829340" lon="-8.8904890">
        <ele>40.2</ele>
        <time>2021-05-19T12:05:06Z</time>
      </trkpt>
      <trkpt lat="42.0829340" lon="-8.8904890">
        <ele>40.2</ele>
        <time>2021-05-19T12:05:07Z</time>
      </trkpt>
      <trkpt lat="42.0829340" lon="-8.8904890">
        <ele>40.2</ele>
        <time>2021-05-19T12:05:08Z</time>
      </trkpt>
      <trkpt lat="42.0829340" lon="-8.8904890">
        <ele>40.2</ele>
        <time>2021-05-19T12:05:09Z</time>
      </trkpt>
      <trkpt lat="42.0829340" lon="-8.8904890">
        <ele>40.2</ele>
        <time>2021-05-19T12:05:10Z</time>
      </trkpt>
      <trkpt lat="42.0829340" lon="-8.8904890">
        <ele>40.2</ele>
        <time>2021-05-19T12:05:11Z</time>
      </trkpt>
      <trkpt lat="42.0829340" lon="-8.8904890">
        <ele>40.2</ele>
        <time>2021-05-19T12:05:12Z</time>
      </trkpt>
      <trkpt lat="42.0829340" lon="-8.8904890">
        <ele>40.2</ele>
        <time>2021-05-19T12:05:13Z</time>
      </trkpt>
      <trkpt lat="42.0829340" lon="-8.8904890">
        <ele>40.2</ele>
        <time>2021-05-19T12:05:14Z</time>
      </trkpt>
      <trkpt lat="42.0829340" lon="-8.8904890">
        <ele>40.2</ele>
        <time>2021-05-19T12:05:15Z</time>
      </trkpt>
      <trkpt lat="42.0829340" lon="-8.8904890">
        <ele>40.2</ele>
        <time>2021-05-19T12:05:16Z</time>
      </trkpt>
      <trkpt lat="42.0829340" lon="-8.8904890">
        <ele>40.2</ele>
        <time>2021-05-19T12:05:17Z</time>
      </trkpt>
      <trkpt lat="42.0829340" lon="-8.8904890">
        <ele>40.2</ele>
        <time>2021-05-19T12:05:18Z</time>
      </trkpt>
      <trkpt lat="42.0829340" lon="-8.8904890">
        <ele>40.2</ele>
        <time>2021-05-19T12:05:19Z</time>
      </trkpt>
      <trkpt lat="42.0829340" lon="-8.8904890">
        <ele>40.2</ele>
        <time>2021-05-19T12:05:20Z</time>
      </trkpt>
      <trkpt lat="42.0829340" lon="-8.8904890">
        <ele>40.2</ele>
        <time>2021-05-19T12:05:21Z</time>
      </trkpt>
      <trkpt lat="42.0829340" lon="-8.8904890">
        <ele>40.2</ele>
        <time>2021-05-19T12:05:22Z</time>
      </trkpt>
      <trkpt lat="42.0829340" lon="-8.8904890">
        <ele>40.2</ele>
        <time>2021-05-19T12:05:23Z</time>
      </trkpt>
      <trkpt lat="42.0829350" lon="-8.8904890">
        <ele>40.2</ele>
        <time>2021-05-19T12:05:24Z</time>
      </trkpt>
      <trkpt lat="42.0829350" lon="-8.8904890">
        <ele>40.2</ele>
        <time>2021-05-19T12:05:25Z</time>
      </trkpt>
      <trkpt lat="42.0829350" lon="-8.8904890">
        <ele>40.2</ele>
        <time>2021-05-19T12:05:26Z</time>
      </trkpt>
      <trkpt lat="42.0829350" lon="-8.8904890">
        <ele>40.2</ele>
        <time>2021-05-19T12:05:27Z</time>
      </trkpt>
      <trkpt lat="42.0829350" lon="-8.8904890">
        <ele>40.2</ele>
        <time>2021-05-19T12:05:28Z</time>
      </trkpt>
      <trkpt lat="42.0829350" lon="-8.8904890">
        <ele>40.2</ele>
        <time>2021-05-19T12:05:29Z</time>
      </trkpt>
      <trkpt lat="42.0829350" lon="-8.8904890">
        <ele>40.2</ele>
        <time>2021-05-19T12:05:30Z</time>
      </trkpt>
      <trkpt lat="42.0829350" lon="-8.8904890">
        <ele>40.2</ele>
        <time>2021-05-19T12:05:31Z</time>
      </trkpt>
      <trkpt lat="42.0829350" lon="-8.8904890">
        <ele>40.2</ele>
        <time>2021-05-19T12:05:32Z</time>
      </trkpt>
      <trkpt lat="42.0829350" lon="-8.8904890">
        <ele>40.2</ele>
        <time>2021-05-19T12:05:33Z</time>
      </trkpt>
      <trkpt lat="42.0829350" lon="-8.8904890">
        <ele>40.2</ele>
        <time>2021-05-19T12:05:34Z</time>
      </trkpt>
      <trkpt lat="42.0829350" lon="-8.8904890">
        <ele>40.2</ele>
        <time>2021-05-19T12:05:35Z</time>
      </trkpt>
      <trkpt lat="42.0829350" lon="-8.8904890">
        <ele>40.2</ele>
        <time>2021-05-19T12:05:36Z</time>
      </trkpt>
      <trkpt lat="42.0829350" lon="-8.8904890">
        <ele>40.2</ele>
        <time>2021-05-19T12:05:37Z</time>
      </trkpt>
      <trkpt lat="42.0829350" lon="-8.8904890">
        <ele>40.2</ele>
        <time>2021-05-19T12:05:38Z</time>
      </trkpt>
      <trkpt lat="42.0829350" lon="-8.8904890">
        <ele>40.2</ele>
        <time>2021-05-19T12:05:39Z</time>
      </trkpt>
      <trkpt lat="42.0829350" lon="-8.8904890">
        <ele>40.2</ele>
        <time>2021-05-19T12:05:40Z</time>
      </trkpt>
      <trkpt lat="42.0829350" lon="-8.8904890">
        <ele>40.2</ele>
        <time>2021-05-19T12:05:41Z</time>
      </trkpt>
      <trkpt lat="42.0829350" lon="-8.8904890">
        <ele>40.2</ele>
        <time>2021-05-19T12:05:42Z</time>
      </trkpt>
      <trkpt lat="42.0829360" lon="-8.8904890">
        <ele>40.2</ele>
        <time>2021-05-19T12:05:43Z</time>
      </trkpt>
      <trkpt lat="42.0829360" lon="-8.8904890">
        <ele>40.2</ele>
        <time>2021-05-19T12:05:44Z</time>
      </trkpt>
      <trkpt lat="42.0829360" lon="-8.8904890">
        <ele>40.2</ele>
        <time>2021-05-19T12:05:45Z</time>
      </trkpt>
      <trkpt lat="42.0829360" lon="-8.8904890">
        <ele>40.2</ele>
        <time>2021-05-19T12:05:46Z</time>
      </trkpt>
      <trkpt lat="42.0829360" lon="-8.8904890">
        <ele>40.2</ele>
        <time>2021-05-19T12:05:47Z</time>
      </trkpt>
      <trkpt lat="42.0829360" lon="-8.8904890">
        <ele>40.2</ele>
        <time>2021-05-19T12:05:48Z</time>
      </trkpt>
      <trkpt lat="42.0829360" lon="-8.8904890">
        <ele>40.2</ele>
        <time>2021-05-19T12:05:49Z</time>
      </trkpt>
      <trkpt lat="42.0829360" lon="-8.8904890">
        <ele>40.2</ele>
        <time>2021-05-19T12:05:50Z</time>
      </trkpt>
      <trkpt lat="42.0829360" lon="-8.8904890">
        <ele>40.2</ele>
        <time>2021-05-19T12:05:51Z</time>
      </trkpt>
      <trkpt lat="42.0829360" lon="-8.8904890">
        <ele>40.2</ele>
        <time>2021-05-19T12:05:52Z</time>
      </trkpt>
      <trkpt lat="42.0829370" lon="-8.8904840">
        <ele>40.2</ele>
        <time>2021-05-19T12:05:53Z</time>
      </trkpt>
      <trkpt lat="42.0829370" lon="-8.8904840">
        <ele>40.2</ele>
        <time>2021-05-19T12:05:54Z</time>
      </trkpt>
      <trkpt lat="42.0829370" lon="-8.8904830">
        <ele>40.2</ele>
        <time>2021-05-19T12:05:55Z</time>
      </trkpt>
      <trkpt lat="42.0829370" lon="-8.8904820">
        <ele>40.2</ele>
        <time>2021-05-19T12:05:56Z</time>
      </trkpt>
      <trkpt lat="42.0829370" lon="-8.8904810">
        <ele>40.2</ele>
        <time>2021-05-19T12:05:57Z</time>
      </trkpt>
      <trkpt lat="42.0829370" lon="-8.8904810">
        <ele>40.2</ele>
        <time>2021-05-19T12:05:58Z</time>
      </trkpt>
      <trkpt lat="42.0829370" lon="-8.8904800">
        <ele>40.2</ele>
        <time>2021-05-19T12:05:59Z</time>
      </trkpt>
      <trkpt lat="42.0829360" lon="-8.8904790">
        <ele>40.2</ele>
        <time>2021-05-19T12:06:00Z</time>
      </trkpt>
      <trkpt lat="42.0829360" lon="-8.8904780">
        <ele>40.2</ele>
        <time>2021-05-19T12:06:01Z</time>
      </trkpt>
      <trkpt lat="42.0829360" lon="-8.8904780">
        <ele>40.2</ele>
        <time>2021-05-19T12:06:02Z</time>
      </trkpt>
      <trkpt lat="42.0829360" lon="-8.8904770">
        <ele>40.2</ele>
        <time>2021-05-19T12:06:03Z</time>
      </trkpt>
      <trkpt lat="42.0829360" lon="-8.8904760">
        <ele>40.2</ele>
        <time>2021-05-19T12:06:04Z</time>
      </trkpt>
      <trkpt lat="42.0829360" lon="-8.8904760">
        <ele>40.2</ele>
        <time>2021-05-19T12:06:05Z</time>
      </trkpt>
      <trkpt lat="42.0829360" lon="-8.8904750">
        <ele>40.2</ele>
        <time>2021-05-19T12:06:06Z</time>
      </trkpt>
      <trkpt lat="42.0829360" lon="-8.8904740">
        <ele>40.2</ele>
        <time>2021-05-19T12:06:07Z</time>
      </trkpt>
      <trkpt lat="42.0829360" lon="-8.8904730">
        <ele>40.2</ele>
        <time>2021-05-19T12:06:08Z</time>
      </trkpt>
      <trkpt lat="42.0829360" lon="-8.8904730">
        <ele>40.2</ele>
        <time>2021-05-19T12:06:09Z</time>
      </trkpt>
      <trkpt lat="42.0829360" lon="-8.8904720">
        <ele>40.2</ele>
        <time>2021-05-19T12:06:10Z</time>
      </trkpt>
      <trkpt lat="42.0829360" lon="-8.8904710">
        <ele>40.2</ele>
        <time>2021-05-19T12:06:11Z</time>
      </trkpt>
      <trkpt lat="42.0829360" lon="-8.8904710">
        <ele>40.2</ele>
        <time>2021-05-19T12:06:12Z</time>
      </trkpt>
      <trkpt lat="42.0829360" lon="-8.8904700">
        <ele>40.2</ele>
        <time>2021-05-19T12:06:13Z</time>
      </trkpt>
      <trkpt lat="42.0829350" lon="-8.8904690">
        <ele>40.2</ele>
        <time>2021-05-19T12:06:14Z</time>
      </trkpt>
      <trkpt lat="42.0829350" lon="-8.8904680">
        <ele>40.2</ele>
        <time>2021-05-19T12:06:15Z</time>
      </trkpt>
      <trkpt lat="42.0829350" lon="-8.8904680">
        <ele>40.2</ele>
        <time>2021-05-19T12:06:16Z</time>
      </trkpt>
      <trkpt lat="42.0829350" lon="-8.8904670">
        <ele>40.2</ele>
        <time>2021-05-19T12:06:17Z</time>
      </trkpt>
      <trkpt lat="42.0829350" lon="-8.8904660">
        <ele>40.2</ele>
        <time>2021-05-19T12:06:18Z</time>
      </trkpt>
      <trkpt lat="42.0829350" lon="-8.8904650">
        <ele>40.2</ele>
        <time>2021-05-19T12:06:19Z</time>
      </trkpt>
      <trkpt lat="42.0829350" lon="-8.8904650">
        <ele>40.2</ele>
        <time>2021-05-19T12:06:20Z</time>
      </trkpt>
      <trkpt lat="42.0829350" lon="-8.8904640">
        <ele>40.2</ele>
        <time>2021-05-19T12:06:21Z</time>
      </trkpt>
      <trkpt lat="42.0829350" lon="-8.8904630">
        <ele>40.2</ele>
        <time>2021-05-19T12:06:22Z</time>
      </trkpt>
      <trkpt lat="42.0829350" lon="-8.8904630">
        <ele>40.2</ele>
        <time>2021-05-19T12:06:23Z</time>
      </trkpt>
      <trkpt lat="42.0829350" lon="-8.8904620">
        <ele>40.2</ele>
        <time>2021-05-19T12:06:24Z</time>
      </trkpt>
      <trkpt lat="42.0829350" lon="-8.8904610">
        <ele>40.2</ele>
        <time>2021-05-19T12:06:25Z</time>
      </trkpt>
      <trkpt lat="42.0829350" lon="-8.8904600">
        <ele>40.2</ele>
        <time>2021-05-19T12:06:26Z</time>
      </trkpt>
      <trkpt lat="42.0829350" lon="-8.8904600">
        <ele>40.2</ele>
        <time>2021-05-19T12:06:27Z</time>
      </trkpt>
      <trkpt lat="42.0829350" lon="-8.8904590">
        <ele>40.2</ele>
        <time>2021-05-19T12:06:28Z</time>
      </trkpt>
      <trkpt lat="42.0829340" lon="-8.8904580">
        <ele>40.2</ele>
        <time>2021-05-19T12:06:29Z</time>
      </trkpt>
      <trkpt lat="42.0829340" lon="-8.8904580">
        <ele>40.2</ele>
        <time>2021-05-19T12:06:30Z</time>
      </trkpt>
      <trkpt lat="42.0829340" lon="-8.8904570">
        <ele>40.2</ele>
        <time>2021-05-19T12:06:31Z</time>
      </trkpt>
      <trkpt lat="42.0829340" lon="-8.8904560">
        <ele>40.2</ele>
        <time>2021-05-19T12:06:32Z</time>
      </trkpt>
      <trkpt lat="42.0829340" lon="-8.8904550">
        <ele>40.2</ele>
        <time>2021-05-19T12:06:33Z</time>
      </trkpt>
      <trkpt lat="42.0829340" lon="-8.8904550">
        <ele>40.2</ele>
        <time>2021-05-19T12:06:34Z</time>
      </trkpt>
      <trkpt lat="42.0829340" lon="-8.8904540">
        <ele>40.2</ele>
        <time>2021-05-19T12:06:35Z</time>
      </trkpt>
      <trkpt lat="42.0829340" lon="-8.8904530">
        <ele>40.2</ele>
        <time>2021-05-19T12:06:36Z</time>
      </trkpt>
      <trkpt lat="42.0829340" lon="-8.8904520">
        <ele>40.2</ele>
        <time>2021-05-19T12:06:37Z</time>
      </trkpt>
      <trkpt lat="42.0829340" lon="-8.8904520">
        <ele>40.2</ele>
        <time>2021-05-19T12:06:38Z</time>
      </trkpt>
      <trkpt lat="42.0829340" lon="-8.8904510">
        <ele>40.2</ele>
        <time>2021-05-19T12:06:39Z</time>
      </trkpt>
      <trkpt lat="42.0829340" lon="-8.8904500">
        <ele>40.2</ele>
        <time>2021-05-19T12:06:40Z</time>
      </trkpt>
      <trkpt lat="42.0829340" lon="-8.8904500">
        <ele>40.2</ele>
        <time>2021-05-19T12:06:41Z</time>
      </trkpt>
      <trkpt lat="42.0829340" lon="-8.8904490">
        <ele>40.2</ele>
        <time>2021-05-19T12:06:42Z</time>
      </trkpt>
      <trkpt lat="42.0829330" lon="-8.8904480">
        <ele>40.2</ele>
        <time>2021-05-19T12:06:43Z</time>
      </trkpt>
      <trkpt lat="42.0829330" lon="-8.8904470">
        <ele>40.2</ele>
        <time>2021-05-19T12:06:44Z</time>
      </trkpt>
      <trkpt lat="42.0829330" lon="-8.8904470">
        <ele>40.2</ele>
        <time>2021-05-19T12:06:45Z</time>
      </trkpt>
      <trkpt lat="42.0829330" lon="-8.8904460">
        <ele>40.2</ele>
        <time>2021-05-19T12:06:46Z</time>
      </trkpt>
      <trkpt lat="42.0829330" lon="-8.8904450">
        <ele>40.2</ele>
        <time>2021-05-19T12:06:47Z</time>
      </trkpt>
      <trkpt lat="42.0829330" lon="-8.8904450">
        <ele>40.2</ele>
        <time>2021-05-19T12:06:48Z</time>
      </trkpt>
      <trkpt lat="42.0829330" lon="-8.8904440">
        <ele>40.2</ele>
        <time>2021-05-19T12:06:49Z</time>
      </trkpt>
      <trkpt lat="42.0829330" lon="-8.8904430">
        <ele>40.2</ele>
        <time>2021-05-19T12:06:50Z</time>
      </trkpt>
      <trkpt lat="42.0829330" lon="-8.8904420">
        <ele>40.2</ele>
        <time>2021-05-19T12:06:51Z</time>
      </trkpt>
      <trkpt lat="42.0829330" lon="-8.8904420">
        <ele>40.2</ele>
        <time>2021-05-19T12:06:52Z</time>
      </trkpt>
      <trkpt lat="42.0829330" lon="-8.8904410">
        <ele>40.2</ele>
        <time>2021-05-19T12:06:53Z</time>
      </trkpt>
      <trkpt lat="42.0829330" lon="-8.8904400">
        <ele>40.2</ele>
        <time>2021-05-19T12:06:54Z</time>
      </trkpt>
      <trkpt lat="42.0829330" lon="-8.8904390">
        <ele>40.2</ele>
        <time>2021-05-19T12:06:55Z</time>
      </trkpt>
      <trkpt lat="42.0829330" lon="-8.8904390">
        <ele>40.2</ele>
        <time>2021-05-19T12:06:56Z</time>
      </trkpt>
      <trkpt lat="42.0829320" lon="-8.8904380">
        <ele>40.2</ele>
        <time>2021-05-19T12:06:57Z</time>
      </trkpt>
      <trkpt lat="42.0829320" lon="-8.8904370">
        <ele>40.2</ele>
        <time>2021-05-19T12:06:58Z</time>
      </trkpt>
      <trkpt lat="42.0829320" lon="-8.8904370">
        <ele>40.2</ele>
        <time>2021-05-19T12:06:59Z</time>
      </trkpt>
      <trkpt lat="42.0829320" lon="-8.8904360">
        <ele>40.2</ele>
        <time>2021-05-19T12:07:00Z</time>
      </trkpt>
      <trkpt lat="42.0829320" lon="-8.8904350">
        <ele>40.2</ele>
        <time>2021-05-19T12:07:01Z</time>
      </trkpt>
      <trkpt lat="42.0829320" lon="-8.8904340">
        <ele>40.2</ele>
        <time>2021-05-19T12:07:02Z</time>
      </trkpt>
      <trkpt lat="42.0829320" lon="-8.8904340">
        <ele>40.2</ele>
        <time>2021-05-19T12:07:03Z</time>
      </trkpt>
      <trkpt lat="42.0829320" lon="-8.8904330">
        <ele>40.2</ele>
        <time>2021-05-19T12:07:04Z</time>
      </trkpt>
      <trkpt lat="42.0829200" lon="-8.8904390">
        <ele>40.2</ele>
        <time>2021-05-19T12:07:05Z</time>
      </trkpt>
      <trkpt lat="42.0829230" lon="-8.8904490">
        <ele>40.2</ele>
        <time>2021-05-19T12:07:06Z</time>
      </trkpt>
      <trkpt lat="42.0829290" lon="-8.8904570">
        <ele>40.2</ele>
        <time>2021-05-19T12:07:07Z</time>
      </trkpt>
      <trkpt lat="42.0829410" lon="-8.8904660">
        <ele>40.1</ele>
        <time>2021-05-19T12:07:08Z</time>
      </trkpt>
      <trkpt lat="42.0829490" lon="-8.8904750">
        <ele>40.1</ele>
        <time>2021-05-19T12:07:09Z</time>
      </trkpt>
      <trkpt lat="42.0829360" lon="-8.8904950">
        <ele>40.1</ele>
        <time>2021-05-19T12:07:10Z</time>
      </trkpt>
      <trkpt lat="42.0829390" lon="-8.8904990">
        <ele>40.1</ele>
        <time>2021-05-19T12:07:11Z</time>
      </trkpt>
      <trkpt lat="42.0829340" lon="-8.8904980">
        <ele>40.1</ele>
        <time>2021-05-19T12:07:12Z</time>
      </trkpt>
      <trkpt lat="42.0829370" lon="-8.8904640">
        <ele>40.1</ele>
        <time>2021-05-19T12:07:13Z</time>
      </trkpt>
      <trkpt lat="42.0829340" lon="-8.8904580">
        <ele>40.1</ele>
        <time>2021-05-19T12:07:14Z</time>
      </trkpt>
      <trkpt lat="42.0829290" lon="-8.8904480">
        <ele>40.1</ele>
        <time>2021-05-19T12:07:15Z</time>
      </trkpt>
      <trkpt lat="42.0829290" lon="-8.8904480">
        <ele>40.1</ele>
        <time>2021-05-19T12:07:16Z</time>
      </trkpt>
      <trkpt lat="42.0829320" lon="-8.8904430">
        <ele>40.1</ele>
        <time>2021-05-19T12:07:17Z</time>
      </trkpt>
      <trkpt lat="42.0829340" lon="-8.8904380">
        <ele>40.1</ele>
        <time>2021-05-19T12:07:18Z</time>
      </trkpt>
      <trkpt lat="42.0829360" lon="-8.8904330">
        <ele>40.1</ele>
        <time>2021-05-19T12:07:19Z</time>
      </trkpt>
      <trkpt lat="42.0829390" lon="-8.8904290">
        <ele>40.1</ele>
        <time>2021-05-19T12:07:20Z</time>
      </trkpt>
      <trkpt lat="42.0829410" lon="-8.8904240">
        <ele>40.1</ele>
        <time>2021-05-19T12:07:21Z</time>
      </trkpt>
      <trkpt lat="42.0829430" lon="-8.8904190">
        <ele>40.1</ele>
        <time>2021-05-19T12:07:22Z</time>
      </trkpt>
      <trkpt lat="42.0829450" lon="-8.8904140">
        <ele>40.1</ele>
        <time>2021-05-19T12:07:23Z</time>
      </trkpt>
      <trkpt lat="42.0829480" lon="-8.8904090">
        <ele>40.1</ele>
        <time>2021-05-19T12:07:24Z</time>
      </trkpt>
      <trkpt lat="42.0829500" lon="-8.8904040">
        <ele>40.1</ele>
        <time>2021-05-19T12:07:25Z</time>
      </trkpt>
      <trkpt lat="42.0829230" lon="-8.8904270">
        <ele>40.1</ele>
        <time>2021-05-19T12:07:26Z</time>
      </trkpt>
      <trkpt lat="42.0829240" lon="-8.8904110">
        <ele>40.1</ele>
        <time>2021-05-19T12:07:27Z</time>
      </trkpt>
      <trkpt lat="42.0829220" lon="-8.8904040">
        <ele>40.1</ele>
        <time>2021-05-19T12:07:28Z</time>
      </trkpt>
      <trkpt lat="42.0829200" lon="-8.8903970">
        <ele>40.1</ele>
        <time>2021-05-19T12:07:29Z</time>
      </trkpt>
      <trkpt lat="42.0829180" lon="-8.8903900">
        <ele>40.1</ele>
        <time>2021-05-19T12:07:30Z</time>
      </trkpt>
      <trkpt lat="42.0829160" lon="-8.8903820">
        <ele>40.0</ele>
        <time>2021-05-19T12:07:31Z</time>
      </trkpt>
      <trkpt lat="42.0829140" lon="-8.8903750">
        <ele>40.0</ele>
        <time>2021-05-19T12:07:32Z</time>
      </trkpt>
      <trkpt lat="42.0829120" lon="-8.8903680">
        <ele>40.0</ele>
        <time>2021-05-19T12:07:33Z</time>
      </trkpt>
      <trkpt lat="42.0829100" lon="-8.8903610">
        <ele>40.0</ele>
        <time>2021-05-19T12:07:34Z</time>
      </trkpt>
      <trkpt lat="42.0829080" lon="-8.8903540">
        <ele>40.0</ele>
        <time>2021-05-19T12:07:35Z</time>
      </trkpt>
      <trkpt lat="42.0829050" lon="-8.8903120">
        <ele>40.0</ele>
        <time>2021-05-19T12:07:36Z</time>
      </trkpt>
      <trkpt lat="42.0828990" lon="-8.8903180">
        <ele>40.0</ele>
        <time>2021-05-19T12:07:37Z</time>
      </trkpt>
      <trkpt lat="42.0828930" lon="-8.8903260">
        <ele>40.0</ele>
        <time>2021-05-19T12:07:38Z</time>
      </trkpt>
      <trkpt lat="42.0828870" lon="-8.8903510">
        <ele>40.0</ele>
        <time>2021-05-19T12:07:39Z</time>
      </trkpt>
      <trkpt lat="42.0828990" lon="-8.8903280">
        <ele>40.0</ele>
        <time>2021-05-19T12:07:40Z</time>
      </trkpt>
      <trkpt lat="42.0828970" lon="-8.8903490">
        <ele>40.0</ele>
        <time>2021-05-19T12:07:41Z</time>
      </trkpt>
      <trkpt lat="42.0828990" lon="-8.8903580">
        <ele>40.0</ele>
        <time>2021-05-19T12:07:42Z</time>
      </trkpt>
      <trkpt lat="42.0828960" lon="-8.8903750">
        <ele>40.0</ele>
        <time>2021-05-19T12:07:43Z</time>
      </trkpt>
      <trkpt lat="42.0828910" lon="-8.8903700">
        <ele>40.0</ele>
        <time>2021-05-19T12:07:44Z</time>
      </trkpt>
      <trkpt lat="42.0828770" lon="-8.8903870">
        <ele>40.0</ele>
        <time>2021-05-19T12:07:45Z</time>
      </trkpt>
      <trkpt lat="42.0828800" lon="-8.8903930">
        <ele>40.0</ele>
        <time>2021-05-19T12:07:46Z</time>
      </trkpt>
      <trkpt lat="42.0828940" lon="-8.8904090">
        <ele>40.0</ele>
        <time>2021-05-19T12:07:47Z</time>
      </trkpt>
      <trkpt lat="42.0828960" lon="-8.8904120">
        <ele>40.0</ele>
        <time>2021-05-19T12:07:48Z</time>
      </trkpt>
      <trkpt lat="42.0829010" lon="-8.8904120">
        <ele>40.0</ele>
        <time>2021-05-19T12:07:49Z</time>
      </trkpt>
      <trkpt lat="42.0829050" lon="-8.8904040">
        <ele>40.0</ele>
        <time>2021-05-19T12:07:50Z</time>
      </trkpt>
      <trkpt lat="42.0829170" lon="-8.8903880">
        <ele>40.0</ele>
        <time>2021-05-19T12:07:51Z</time>
      </trkpt>
      <trkpt lat="42.0829260" lon="-8.8903820">
        <ele>40.0</ele>
        <time>2021-05-19T12:07:52Z</time>
      </trkpt>
      <trkpt lat="42.0829250" lon="-8.8903710">
        <ele>40.0</ele>
        <time>2021-05-19T12:07:53Z</time>
      </trkpt>
      <trkpt lat="42.0829320" lon="-8.8903560">
        <ele>40.0</ele>
        <time>2021-05-19T12:07:54Z</time>
      </trkpt>
      <trkpt lat="42.0829190" lon="-8.8903510">
        <ele>40.0</ele>
        <time>2021-05-19T12:07:55Z</time>
      </trkpt>
      <trkpt lat="42.0829200" lon="-8.8903510">
        <ele>40.0</ele>
        <time>2021-05-19T12:07:56Z</time>
      </trkpt>
      <trkpt lat="42.0829210" lon="-8.8903500">
        <ele>40.0</ele>
        <time>2021-05-19T12:07:57Z</time>
      </trkpt>
      <trkpt lat="42.0829220" lon="-8.8903460">
        <ele>40.0</ele>
        <time>2021-05-19T12:07:58Z</time>
      </trkpt>
      <trkpt lat="42.0829240" lon="-8.8903420">
        <ele>40.0</ele>
        <time>2021-05-19T12:07:59Z</time>
      </trkpt>
      <trkpt lat="42.0829210" lon="-8.8903330">
        <ele>40.0</ele>
        <time>2021-05-19T12:08:00Z</time>
      </trkpt>
      <trkpt lat="42.0829190" lon="-8.8903300">
        <ele>39.9</ele>
        <time>2021-05-19T12:08:01Z</time>
      </trkpt>
      <trkpt lat="42.0829230" lon="-8.8903250">
        <ele>39.9</ele>
        <time>2021-05-19T12:08:02Z</time>
      </trkpt>
      <trkpt lat="42.0829260" lon="-8.8903340">
        <ele>39.9</ele>
        <time>2021-05-19T12:08:03Z</time>
      </trkpt>
      <trkpt lat="42.0829320" lon="-8.8903440">
        <ele>39.9</ele>
        <time>2021-05-19T12:08:04Z</time>
      </trkpt>
      <trkpt lat="42.0829430" lon="-8.8903460">
        <ele>39.9</ele>
        <time>2021-05-19T12:08:05Z</time>
      </trkpt>
      <trkpt lat="42.0829480" lon="-8.8903440">
        <ele>39.9</ele>
        <time>2021-05-19T12:08:06Z</time>
      </trkpt>
      <trkpt lat="42.0829530" lon="-8.8903410">
        <ele>39.9</ele>
        <time>2021-05-19T12:08:07Z</time>
      </trkpt>
      <trkpt lat="42.0829580" lon="-8.8903420">
        <ele>39.9</ele>
        <time>2021-05-19T12:08:08Z</time>
      </trkpt>
      <trkpt lat="42.0829540" lon="-8.8903360">
        <ele>39.9</ele>
        <time>2021-05-19T12:08:09Z</time>
      </trkpt>
      <trkpt lat="42.0829480" lon="-8.8903330">
        <ele>39.9</ele>
        <time>2021-05-19T12:08:10Z</time>
      </trkpt>
      <trkpt lat="42.0829460" lon="-8.8903170">
        <ele>39.9</ele>
        <time>2021-05-19T12:08:11Z</time>
      </trkpt>
      <trkpt lat="42.0829480" lon="-8.8903070">
        <ele>39.9</ele>
        <time>2021-05-19T12:08:12Z</time>
      </trkpt>
      <trkpt lat="42.0829490" lon="-8.8903010">
        <ele>39.9</ele>
        <time>2021-05-19T12:08:13Z</time>
      </trkpt>
      <trkpt lat="42.0829520" lon="-8.8902630">
        <ele>39.9</ele>
        <time>2021-05-19T12:08:14Z</time>
      </trkpt>
      <trkpt lat="42.0829550" lon="-8.8902570">
        <ele>39.9</ele>
        <time>2021-05-19T12:08:15Z</time>
      </trkpt>
      <trkpt lat="42.0829570" lon="-8.8902500">
        <ele>39.9</ele>
        <time>2021-05-19T12:08:16Z</time>
      </trkpt>
      <trkpt lat="42.0829540" lon="-8.8902400">
        <ele>39.9</ele>
        <time>2021-05-19T12:08:17Z</time>
      </trkpt>
      <trkpt lat="42.0829540" lon="-8.8902250">
        <ele>39.9</ele>
        <time>2021-05-19T12:08:18Z</time>
      </trkpt>
      <trkpt lat="42.0829570" lon="-8.8902110">
        <ele>39.9</ele>
        <time>2021-05-19T12:08:19Z</time>
      </trkpt>
      <trkpt lat="42.0829550" lon="-8.8902260">
        <ele>39.9</ele>
        <time>2021-05-19T12:08:20Z</time>
      </trkpt>
      <trkpt lat="42.0829560" lon="-8.8902250">
        <ele>39.9</ele>
        <time>2021-05-19T12:08:21Z</time>
      </trkpt>
      <trkpt lat="42.0829530" lon="-8.8902220">
        <ele>39.9</ele>
        <time>2021-05-19T12:08:22Z</time>
      </trkpt>
      <trkpt lat="42.0829490" lon="-8.8902130">
        <ele>39.9</ele>
        <time>2021-05-19T12:08:23Z</time>
      </trkpt>
      <trkpt lat="42.0829440" lon="-8.8902080">
        <ele>39.9</ele>
        <time>2021-05-19T12:08:24Z</time>
      </trkpt>
      <trkpt lat="42.0829430" lon="-8.8902100">
        <ele>39.9</ele>
        <time>2021-05-19T12:08:25Z</time>
      </trkpt>
      <trkpt lat="42.0829430" lon="-8.8902240">
        <ele>39.9</ele>
        <time>2021-05-19T12:08:26Z</time>
      </trkpt>
      <trkpt lat="42.0829480" lon="-8.8902310">
        <ele>39.9</ele>
        <time>2021-05-19T12:08:27Z</time>
      </trkpt>
      <trkpt lat="42.0829700" lon="-8.8902130">
        <ele>39.9</ele>
        <time>2021-05-19T12:08:28Z</time>
      </trkpt>
      <trkpt lat="42.0829810" lon="-8.8901940">
        <ele>39.9</ele>
        <time>2021-05-19T12:08:29Z</time>
      </trkpt>
      <trkpt lat="42.0829840" lon="-8.8901900">
        <ele>39.9</ele>
        <time>2021-05-19T12:08:30Z</time>
      </trkpt>
      <trkpt lat="42.0829840" lon="-8.8901900">
        <ele>39.9</ele>
        <time>2021-05-19T12:08:31Z</time>
      </trkpt>
      <trkpt lat="42.0829890" lon="-8.8901990">
        <ele>39.9</ele>
        <time>2021-05-19T12:08:32Z</time>
      </trkpt>
      <trkpt lat="42.0829830" lon="-8.8902350">
        <ele>39.9</ele>
        <time>2021-05-19T12:08:33Z</time>
      </trkpt>
      <trkpt lat="42.0829760" lon="-8.8902650">
        <ele>39.9</ele>
        <time>2021-05-19T12:08:34Z</time>
      </trkpt>
      <trkpt lat="42.0829740" lon="-8.8902750">
        <ele>39.9</ele>
        <time>2021-05-19T12:08:35Z</time>
      </trkpt>
      <trkpt lat="42.0829710" lon="-8.8902860">
        <ele>39.9</ele>
        <time>2021-05-19T12:08:36Z</time>
      </trkpt>
      <trkpt lat="42.0829670" lon="-8.8902870">
        <ele>39.9</ele>
        <time>2021-05-19T12:08:37Z</time>
      </trkpt>
      <trkpt lat="42.0829610" lon="-8.8902900">
        <ele>39.9</ele>
        <time>2021-05-19T12:08:38Z</time>
      </trkpt>
      <trkpt lat="42.0829570" lon="-8.8902890">
        <ele>39.9</ele>
        <time>2021-05-19T12:08:39Z</time>
      </trkpt>
      <trkpt lat="42.0829590" lon="-8.8902910">
        <ele>39.9</ele>
        <time>2021-05-19T12:08:40Z</time>
      </trkpt>
      <trkpt lat="42.0829570" lon="-8.8903080">
        <ele>39.9</ele>
        <time>2021-05-19T12:08:41Z</time>
      </trkpt>
      <trkpt lat="42.0829530" lon="-8.8903000">
        <ele>39.9</ele>
        <time>2021-05-19T12:08:42Z</time>
      </trkpt>
      <trkpt lat="42.0829590" lon="-8.8902920">
        <ele>39.9</ele>
        <time>2021-05-19T12:08:43Z</time>
      </trkpt>
      <trkpt lat="42.0829580" lon="-8.8903020">
        <ele>39.9</ele>
        <time>2021-05-19T12:08:44Z</time>
      </trkpt>
      <trkpt lat="42.0829570" lon="-8.8903010">
        <ele>39.9</ele>
        <time>2021-05-19T12:08:45Z</time>
      </trkpt>
      <trkpt lat="42.0829570" lon="-8.8903010">
        <ele>39.9</ele>
        <time>2021-05-19T12:08:46Z</time>
      </trkpt>
      <trkpt lat="42.0829570" lon="-8.8903010">
        <ele>39.9</ele>
        <time>2021-05-19T12:08:47Z</time>
      </trkpt>
      <trkpt lat="42.0829570" lon="-8.8903010">
        <ele>39.9</ele>
        <time>2021-05-19T12:08:48Z</time>
      </trkpt>
      <trkpt lat="42.0829570" lon="-8.8903010">
        <ele>39.9</ele>
        <time>2021-05-19T12:08:49Z</time>
      </trkpt>
      <trkpt lat="42.0829570" lon="-8.8903010">
        <ele>39.9</ele>
        <time>2021-05-19T12:08:50Z</time>
      </trkpt>
      <trkpt lat="42.0829570" lon="-8.8903010">
        <ele>39.9</ele>
        <time>2021-05-19T12:08:52Z</time>
      </trkpt>
      <trkpt lat="42.0829570" lon="-8.8903010">
        <ele>39.9</ele>
        <time>2021-05-19T12:08:53Z</time>
      </trkpt>
      <trkpt lat="42.0829990" lon="-8.8902900">
        <ele>39.8</ele>
        <time>2021-05-19T12:08:54Z</time>
      </trkpt>
      <trkpt lat="42.0830020" lon="-8.8902910">
        <ele>39.8</ele>
        <time>2021-05-19T12:08:55Z</time>
      </trkpt>
      <trkpt lat="42.0829950" lon="-8.8902990">
        <ele>39.8</ele>
        <time>2021-05-19T12:08:56Z</time>
      </trkpt>
      <trkpt lat="42.0829910" lon="-8.8903070">
        <ele>39.8</ele>
        <time>2021-05-19T12:08:57Z</time>
      </trkpt>
      <trkpt lat="42.0829920" lon="-8.8903100">
        <ele>39.8</ele>
        <time>2021-05-19T12:08:58Z</time>
      </trkpt>
      <trkpt lat="42.0829910" lon="-8.8903110">
        <ele>39.8</ele>
        <time>2021-05-19T12:08:59Z</time>
      </trkpt>
      <trkpt lat="42.0829910" lon="-8.8903110">
        <ele>39.8</ele>
        <time>2021-05-19T12:09:00Z</time>
      </trkpt>
      <trkpt lat="42.0829910" lon="-8.8903110">
        <ele>39.8</ele>
        <time>2021-05-19T12:09:01Z</time>
      </trkpt>
      <trkpt lat="42.0829930" lon="-8.8903260">
        <ele>39.8</ele>
        <time>2021-05-19T12:09:02Z</time>
      </trkpt>
      <trkpt lat="42.0829950" lon="-8.8903100">
        <ele>39.8</ele>
        <time>2021-05-19T12:09:03Z</time>
      </trkpt>
      <trkpt lat="42.0829920" lon="-8.8903070">
        <ele>39.8</ele>
        <time>2021-05-19T12:09:04Z</time>
      </trkpt>
      <trkpt lat="42.0829890" lon="-8.8903040">
        <ele>39.8</ele>
        <time>2021-05-19T12:09:05Z</time>
      </trkpt>
      <trkpt lat="42.0829860" lon="-8.8903010">
        <ele>39.8</ele>
        <time>2021-05-19T12:09:06Z</time>
      </trkpt>
      <trkpt lat="42.0829830" lon="-8.8902970">
        <ele>39.8</ele>
        <time>2021-05-19T12:09:07Z</time>
      </trkpt>
      <trkpt lat="42.0829790" lon="-8.8902940">
        <ele>39.8</ele>
        <time>2021-05-19T12:09:08Z</time>
      </trkpt>
      <trkpt lat="42.0829760" lon="-8.8902910">
        <ele>39.8</ele>
        <time>2021-05-19T12:09:09Z</time>
      </trkpt>
      <trkpt lat="42.0829730" lon="-8.8902880">
        <ele>39.8</ele>
        <time>2021-05-19T12:09:10Z</time>
      </trkpt>
      <trkpt lat="42.0829700" lon="-8.8902850">
        <ele>39.8</ele>
        <time>2021-05-19T12:09:11Z</time>
      </trkpt>
      <trkpt lat="42.0829670" lon="-8.8902820">
        <ele>39.8</ele>
        <time>2021-05-19T12:09:12Z</time>
      </trkpt>
      <trkpt lat="42.0829710" lon="-8.8902890">
        <ele>39.8</ele>
        <time>2021-05-19T12:09:13Z</time>
      </trkpt>
      <trkpt lat="42.0829710" lon="-8.8902870">
        <ele>39.8</ele>
        <time>2021-05-19T12:09:14Z</time>
      </trkpt>
      <trkpt lat="42.0829750" lon="-8.8902910">
        <ele>39.8</ele>
        <time>2021-05-19T12:09:15Z</time>
      </trkpt>
      <trkpt lat="42.0829750" lon="-8.8902940">
        <ele>39.8</ele>
        <time>2021-05-19T12:09:16Z</time>
      </trkpt>
      <trkpt lat="42.0829800" lon="-8.8902980">
        <ele>39.8</ele>
        <time>2021-05-19T12:09:17Z</time>
      </trkpt>
      <trkpt lat="42.0829810" lon="-8.8903030">
        <ele>39.8</ele>
        <time>2021-05-19T12:09:18Z</time>
      </trkpt>
      <trkpt lat="42.0829790" lon="-8.8903020">
        <ele>39.8</ele>
        <time>2021-05-19T12:09:19Z</time>
      </trkpt>
      <trkpt lat="42.0829790" lon="-8.8903020">
        <ele>39.8</ele>
        <time>2021-05-19T12:09:20Z</time>
      </trkpt>
      <trkpt lat="42.0829790" lon="-8.8903020">
        <ele>39.8</ele>
        <time>2021-05-19T12:09:21Z</time>
      </trkpt>
      <trkpt lat="42.0829790" lon="-8.8903020">
        <ele>39.8</ele>
        <time>2021-05-19T12:09:22Z</time>
      </trkpt>
      <trkpt lat="42.0829790" lon="-8.8903020">
        <ele>39.8</ele>
        <time>2021-05-19T12:09:23Z</time>
      </trkpt>
      <trkpt lat="42.0829790" lon="-8.8903020">
        <ele>39.8</ele>
        <time>2021-05-19T12:09:24Z</time>
      </trkpt>
      <trkpt lat="42.0829790" lon="-8.8903020">
        <ele>39.8</ele>
        <time>2021-05-19T12:09:25Z</time>
      </trkpt>
      <trkpt lat="42.0829790" lon="-8.8903020">
        <ele>39.8</ele>
        <time>2021-05-19T12:09:26Z</time>
      </trkpt>
      <trkpt lat="42.0829790" lon="-8.8903020">
        <ele>39.8</ele>
        <time>2021-05-19T12:09:27Z</time>
      </trkpt>
      <trkpt lat="42.0829790" lon="-8.8903020">
        <ele>39.8</ele>
        <time>2021-05-19T12:09:28Z</time>
      </trkpt>
      <trkpt lat="42.0829790" lon="-8.8903020">
        <ele>39.8</ele>
        <time>2021-05-19T12:09:29Z</time>
      </trkpt>
      <trkpt lat="42.0829900" lon="-8.8902560">
        <ele>39.8</ele>
        <time>2021-05-19T12:09:30Z</time>
      </trkpt>
      <trkpt lat="42.0829800" lon="-8.8902650">
        <ele>39.8</ele>
        <time>2021-05-19T12:09:31Z</time>
      </trkpt>
      <trkpt lat="42.0829780" lon="-8.8902670">
        <ele>39.8</ele>
        <time>2021-05-19T12:09:32Z</time>
      </trkpt>
      <trkpt lat="42.0829770" lon="-8.8902690">
        <ele>39.8</ele>
        <time>2021-05-19T12:09:33Z</time>
      </trkpt>
      <trkpt lat="42.0829750" lon="-8.8902710">
        <ele>39.8</ele>
        <time>2021-05-19T12:09:34Z</time>
      </trkpt>
      <trkpt lat="42.0829740" lon="-8.8902730">
        <ele>39.8</ele>
        <time>2021-05-19T12:09:35Z</time>
      </trkpt>
      <trkpt lat="42.0829730" lon="-8.8902740">
        <ele>39.8</ele>
        <time>2021-05-19T12:09:36Z</time>
      </trkpt>
      <trkpt lat="42.0829710" lon="-8.8902760">
        <ele>39.8</ele>
        <time>2021-05-19T12:09:37Z</time>
      </trkpt>
      <trkpt lat="42.0829700" lon="-8.8902780">
        <ele>39.8</ele>
        <time>2021-05-19T12:09:38Z</time>
      </trkpt>
      <trkpt lat="42.0829680" lon="-8.8902800">
        <ele>39.8</ele>
        <time>2021-05-19T12:09:39Z</time>
      </trkpt>
      <trkpt lat="42.0829670" lon="-8.8902820">
        <ele>39.8</ele>
        <time>2021-05-19T12:09:40Z</time>
      </trkpt>
      <trkpt lat="42.0829660" lon="-8.8902840">
        <ele>39.8</ele>
        <time>2021-05-19T12:09:41Z</time>
      </trkpt>
      <trkpt lat="42.0829640" lon="-8.8902860">
        <ele>39.8</ele>
        <time>2021-05-19T12:09:42Z</time>
      </trkpt>
      <trkpt lat="42.0829630" lon="-8.8902880">
        <ele>39.8</ele>
        <time>2021-05-19T12:09:43Z</time>
      </trkpt>
      <trkpt lat="42.0829620" lon="-8.8902900">
        <ele>39.8</ele>
        <time>2021-05-19T12:09:45Z</time>
      </trkpt>
      <trkpt lat="42.0829600" lon="-8.8902920">
        <ele>39.8</ele>
        <time>2021-05-19T12:09:47Z</time>
      </trkpt>
      <trkpt lat="42.0829590" lon="-8.8902930">
        <ele>39.8</ele>
        <time>2021-05-19T12:09:48Z</time>
      </trkpt>
      <trkpt lat="42.0829570" lon="-8.8902950">
        <ele>39.8</ele>
        <time>2021-05-19T12:09:49Z</time>
      </trkpt>
      <trkpt lat="42.0829560" lon="-8.8902970">
        <ele>39.8</ele>
        <time>2021-05-19T12:09:50Z</time>
      </trkpt>
      <trkpt lat="42.0829550" lon="-8.8902990">
        <ele>39.8</ele>
        <time>2021-05-19T12:09:51Z</time>
      </trkpt>
      <trkpt lat="42.0829530" lon="-8.8903010">
        <ele>39.8</ele>
        <time>2021-05-19T12:09:52Z</time>
      </trkpt>
      <trkpt lat="42.0829520" lon="-8.8903030">
        <ele>39.8</ele>
        <time>2021-05-19T12:09:53Z</time>
      </trkpt>
      <trkpt lat="42.0829500" lon="-8.8903050">
        <ele>39.8</ele>
        <time>2021-05-19T12:09:54Z</time>
      </trkpt>
      <trkpt lat="42.0829490" lon="-8.8903070">
        <ele>39.8</ele>
        <time>2021-05-19T12:09:55Z</time>
      </trkpt>
      <trkpt lat="42.0829480" lon="-8.8903090">
        <ele>39.8</ele>
        <time>2021-05-19T12:09:56Z</time>
      </trkpt>
      <trkpt lat="42.0829460" lon="-8.8903110">
        <ele>39.8</ele>
        <time>2021-05-19T12:09:57Z</time>
      </trkpt>
      <trkpt lat="42.0829450" lon="-8.8903120">
        <ele>39.8</ele>
        <time>2021-05-19T12:09:58Z</time>
      </trkpt>
      <trkpt lat="42.0829430" lon="-8.8903140">
        <ele>39.8</ele>
        <time>2021-05-19T12:09:59Z</time>
      </trkpt>
      <trkpt lat="42.0829420" lon="-8.8903160">
        <ele>39.8</ele>
        <time>2021-05-19T12:10:00Z</time>
      </trkpt>
      <trkpt lat="42.0829410" lon="-8.8903180">
        <ele>39.8</ele>
        <time>2021-05-19T12:10:01Z</time>
      </trkpt>
      <trkpt lat="42.0829390" lon="-8.8903200">
        <ele>39.8</ele>
        <time>2021-05-19T12:10:02Z</time>
      </trkpt>
      <trkpt lat="42.0829380" lon="-8.8903220">
        <ele>39.8</ele>
        <time>2021-05-19T12:10:03Z</time>
      </trkpt>
      <trkpt lat="42.0829360" lon="-8.8903240">
        <ele>39.8</ele>
        <time>2021-05-19T12:10:04Z</time>
      </trkpt>
      <trkpt lat="42.0829350" lon="-8.8903260">
        <ele>39.8</ele>
        <time>2021-05-19T12:10:05Z</time>
      </trkpt>
      <trkpt lat="42.0829340" lon="-8.8903280">
        <ele>39.8</ele>
        <time>2021-05-19T12:10:06Z</time>
      </trkpt>
      <trkpt lat="42.0829320" lon="-8.8903300">
        <ele>39.8</ele>
        <time>2021-05-19T12:10:07Z</time>
      </trkpt>
      <trkpt lat="42.0829310" lon="-8.8903310">
        <ele>39.8</ele>
        <time>2021-05-19T12:10:08Z</time>
      </trkpt>
      <trkpt lat="42.0829300" lon="-8.8903330">
        <ele>39.8</ele>
        <time>2021-05-19T12:10:09Z</time>
      </trkpt>
      <trkpt lat="42.0829280" lon="-8.8903350">
        <ele>39.8</ele>
        <time>2021-05-19T12:10:10Z</time>
      </trkpt>
      <trkpt lat="42.0829270" lon="-8.8903370">
        <ele>39.8</ele>
        <time>2021-05-19T12:10:11Z</time>
      </trkpt>
      <trkpt lat="42.0829250" lon="-8.8903390">
        <ele>39.8</ele>
        <time>2021-05-19T12:10:12Z</time>
      </trkpt>
      <trkpt lat="42.0829240" lon="-8.8903410">
        <ele>39.8</ele>
        <time>2021-05-19T12:10:13Z</time>
      </trkpt>
      <trkpt lat="42.0829230" lon="-8.8903430">
        <ele>39.8</ele>
        <time>2021-05-19T12:10:14Z</time>
      </trkpt>
      <trkpt lat="42.0829210" lon="-8.8903450">
        <ele>39.8</ele>
        <time>2021-05-19T12:10:15Z</time>
      </trkpt>
      <trkpt lat="42.0829200" lon="-8.8903470">
        <ele>39.8</ele>
        <time>2021-05-19T12:10:16Z</time>
      </trkpt>
      <trkpt lat="42.0829180" lon="-8.8903490">
        <ele>39.8</ele>
        <time>2021-05-19T12:10:17Z</time>
      </trkpt>
      <trkpt lat="42.0829170" lon="-8.8903500">
        <ele>39.8</ele>
        <time>2021-05-19T12:10:18Z</time>
      </trkpt>
      <trkpt lat="42.0829160" lon="-8.8903520">
        <ele>39.8</ele>
        <time>2021-05-19T12:10:19Z</time>
      </trkpt>
      <trkpt lat="42.0829140" lon="-8.8903540">
        <ele>39.8</ele>
        <time>2021-05-19T12:10:20Z</time>
      </trkpt>
      <trkpt lat="42.0829130" lon="-8.8903560">
        <ele>39.8</ele>
        <time>2021-05-19T12:10:21Z</time>
      </trkpt>
      <trkpt lat="42.0829110" lon="-8.8903580">
        <ele>39.8</ele>
        <time>2021-05-19T12:10:22Z</time>
      </trkpt>
      <trkpt lat="42.0829100" lon="-8.8903600">
        <ele>39.8</ele>
        <time>2021-05-19T12:10:23Z</time>
      </trkpt>
      <trkpt lat="42.0829090" lon="-8.8903620">
        <ele>39.8</ele>
        <time>2021-05-19T12:10:24Z</time>
      </trkpt>
      <trkpt lat="42.0829070" lon="-8.8903640">
        <ele>39.8</ele>
        <time>2021-05-19T12:10:25Z</time>
      </trkpt>
      <trkpt lat="42.0829060" lon="-8.8903660">
        <ele>39.8</ele>
        <time>2021-05-19T12:10:26Z</time>
      </trkpt>
      <trkpt lat="42.0829050" lon="-8.8903680">
        <ele>39.8</ele>
        <time>2021-05-19T12:10:27Z</time>
      </trkpt>
      <trkpt lat="42.0829030" lon="-8.8903690">
        <ele>39.8</ele>
        <time>2021-05-19T12:10:28Z</time>
      </trkpt>
      <trkpt lat="42.0829020" lon="-8.8903710">
        <ele>39.8</ele>
        <time>2021-05-19T12:10:29Z</time>
      </trkpt>
      <trkpt lat="42.0829000" lon="-8.8903730">
        <ele>39.8</ele>
        <time>2021-05-19T12:10:30Z</time>
      </trkpt>
      <trkpt lat="42.0828990" lon="-8.8903750">
        <ele>39.8</ele>
        <time>2021-05-19T12:10:31Z</time>
      </trkpt>
      <trkpt lat="42.0828980" lon="-8.8903770">
        <ele>39.8</ele>
        <time>2021-05-19T12:10:32Z</time>
      </trkpt>
      <trkpt lat="42.0828960" lon="-8.8903790">
        <ele>39.8</ele>
        <time>2021-05-19T12:10:33Z</time>
      </trkpt>
      <trkpt lat="42.0828950" lon="-8.8903810">
        <ele>39.8</ele>
        <time>2021-05-19T12:10:35Z</time>
      </trkpt>
      <trkpt lat="42.0828930" lon="-8.8903830">
        <ele>39.8</ele>
        <time>2021-05-19T12:10:36Z</time>
      </trkpt>
      <trkpt lat="42.0828920" lon="-8.8903850">
        <ele>39.8</ele>
        <time>2021-05-19T12:10:37Z</time>
      </trkpt>
      <trkpt lat="42.0828910" lon="-8.8903870">
        <ele>39.8</ele>
        <time>2021-05-19T12:10:38Z</time>
      </trkpt>
      <trkpt lat="42.0828890" lon="-8.8903880">
        <ele>39.8</ele>
        <time>2021-05-19T12:10:39Z</time>
      </trkpt>
      <trkpt lat="42.0828880" lon="-8.8903900">
        <ele>39.8</ele>
        <time>2021-05-19T12:10:40Z</time>
      </trkpt>
      <trkpt lat="42.0828860" lon="-8.8903920">
        <ele>39.8</ele>
        <time>2021-05-19T12:10:41Z</time>
      </trkpt>
      <trkpt lat="42.0828850" lon="-8.8903940">
        <ele>39.8</ele>
        <time>2021-05-19T12:10:42Z</time>
      </trkpt>
      <trkpt lat="42.0828840" lon="-8.8903960">
        <ele>39.8</ele>
        <time>2021-05-19T12:10:43Z</time>
      </trkpt>
      <trkpt lat="42.0828820" lon="-8.8903980">
        <ele>39.8</ele>
        <time>2021-05-19T12:10:44Z</time>
      </trkpt>
      <trkpt lat="42.0828810" lon="-8.8904000">
        <ele>39.8</ele>
        <time>2021-05-19T12:10:45Z</time>
      </trkpt>
      <trkpt lat="42.0828790" lon="-8.8904020">
        <ele>39.8</ele>
        <time>2021-05-19T12:10:48Z</time>
      </trkpt>
      <trkpt lat="42.0828780" lon="-8.8904040">
        <ele>39.8</ele>
        <time>2021-05-19T12:10:49Z</time>
      </trkpt>
      <trkpt lat="42.0828770" lon="-8.8904060">
        <ele>39.8</ele>
        <time>2021-05-19T12:10:50Z</time>
      </trkpt>
      <trkpt lat="42.0828750" lon="-8.8904070">
        <ele>39.8</ele>
        <time>2021-05-19T12:10:51Z</time>
      </trkpt>
      <trkpt lat="42.0828740" lon="-8.8904090">
        <ele>39.8</ele>
        <time>2021-05-19T12:10:52Z</time>
      </trkpt>
      <trkpt lat="42.0828730" lon="-8.8904110">
        <ele>39.8</ele>
        <time>2021-05-19T12:10:53Z</time>
      </trkpt>
      <trkpt lat="42.0828710" lon="-8.8904130">
        <ele>39.8</ele>
        <time>2021-05-19T12:10:54Z</time>
      </trkpt>
      <trkpt lat="42.0828700" lon="-8.8904150">
        <ele>39.8</ele>
        <time>2021-05-19T12:10:55Z</time>
      </trkpt>
      <trkpt lat="42.0828680" lon="-8.8904170">
        <ele>39.8</ele>
        <time>2021-05-19T12:10:56Z</time>
      </trkpt>
      <trkpt lat="42.0828670" lon="-8.8904190">
        <ele>39.8</ele>
        <time>2021-05-19T12:10:57Z</time>
      </trkpt>
      <trkpt lat="42.0828660" lon="-8.8904210">
        <ele>39.8</ele>
        <time>2021-05-19T12:10:58Z</time>
      </trkpt>
      <trkpt lat="42.0828640" lon="-8.8904230">
        <ele>39.8</ele>
        <time>2021-05-19T12:10:59Z</time>
      </trkpt>
      <trkpt lat="42.0828630" lon="-8.8904250">
        <ele>39.8</ele>
        <time>2021-05-19T12:11:00Z</time>
      </trkpt>
      <trkpt lat="42.0828610" lon="-8.8904260">
        <ele>39.8</ele>
        <time>2021-05-19T12:11:01Z</time>
      </trkpt>
      <trkpt lat="42.0828600" lon="-8.8904280">
        <ele>39.8</ele>
        <time>2021-05-19T12:11:02Z</time>
      </trkpt>
      <trkpt lat="42.0828590" lon="-8.8904300">
        <ele>39.8</ele>
        <time>2021-05-19T12:11:03Z</time>
      </trkpt>
      <trkpt lat="42.0828570" lon="-8.8904320">
        <ele>39.8</ele>
        <time>2021-05-19T12:11:04Z</time>
      </trkpt>
      <trkpt lat="42.0828560" lon="-8.8904340">
        <ele>39.8</ele>
        <time>2021-05-19T12:11:05Z</time>
      </trkpt>
      <trkpt lat="42.0828540" lon="-8.8904360">
        <ele>39.8</ele>
        <time>2021-05-19T12:11:06Z</time>
      </trkpt>
      <trkpt lat="42.0828530" lon="-8.8904380">
        <ele>39.8</ele>
        <time>2021-05-19T12:11:07Z</time>
      </trkpt>
      <trkpt lat="42.0828520" lon="-8.8904400">
        <ele>39.8</ele>
        <time>2021-05-19T12:11:08Z</time>
      </trkpt>
      <trkpt lat="42.0828500" lon="-8.8904420">
        <ele>39.8</ele>
        <time>2021-05-19T12:11:09Z</time>
      </trkpt>
      <trkpt lat="42.0828490" lon="-8.8904440">
        <ele>39.8</ele>
        <time>2021-05-19T12:11:10Z</time>
      </trkpt>
      <trkpt lat="42.0828470" lon="-8.8904450">
        <ele>39.8</ele>
        <time>2021-05-19T12:11:11Z</time>
      </trkpt>
      <trkpt lat="42.0828460" lon="-8.8904470">
        <ele>39.8</ele>
        <time>2021-05-19T12:11:12Z</time>
      </trkpt>
      <trkpt lat="42.0828450" lon="-8.8904490">
        <ele>39.8</ele>
        <time>2021-05-19T12:11:13Z</time>
      </trkpt>
      <trkpt lat="42.0828430" lon="-8.8904510">
        <ele>39.8</ele>
        <time>2021-05-19T12:11:14Z</time>
      </trkpt>
      <trkpt lat="42.0828420" lon="-8.8904530">
        <ele>39.8</ele>
        <time>2021-05-19T12:11:15Z</time>
      </trkpt>
      <trkpt lat="42.0828410" lon="-8.8904550">
        <ele>39.8</ele>
        <time>2021-05-19T12:11:16Z</time>
      </trkpt>
      <trkpt lat="42.0828390" lon="-8.8904570">
        <ele>39.8</ele>
        <time>2021-05-19T12:11:17Z</time>
      </trkpt>
      <trkpt lat="42.0828380" lon="-8.8904590">
        <ele>39.8</ele>
        <time>2021-05-19T12:11:18Z</time>
      </trkpt>
      <trkpt lat="42.0828360" lon="-8.8904610">
        <ele>39.8</ele>
        <time>2021-05-19T12:11:19Z</time>
      </trkpt>
      <trkpt lat="42.0828350" lon="-8.8904630">
        <ele>39.8</ele>
        <time>2021-05-19T12:11:20Z</time>
      </trkpt>
      <trkpt lat="42.0828340" lon="-8.8904640">
        <ele>39.8</ele>
        <time>2021-05-19T12:11:21Z</time>
      </trkpt>
      <trkpt lat="42.0828320" lon="-8.8904660">
        <ele>39.8</ele>
        <time>2021-05-19T12:11:22Z</time>
      </trkpt>
      <trkpt lat="42.0828310" lon="-8.8904680">
        <ele>39.8</ele>
        <time>2021-05-19T12:11:23Z</time>
      </trkpt>
      <trkpt lat="42.0828290" lon="-8.8904700">
        <ele>39.8</ele>
        <time>2021-05-19T12:11:24Z</time>
      </trkpt>
      <trkpt lat="42.0828280" lon="-8.8904720">
        <ele>39.8</ele>
        <time>2021-05-19T12:11:25Z</time>
      </trkpt>
      <trkpt lat="42.0828570" lon="-8.8904730">
        <ele>39.8</ele>
        <time>2021-05-19T12:11:26Z</time>
      </trkpt>
      <trkpt lat="42.0828640" lon="-8.8904720">
        <ele>39.8</ele>
        <time>2021-05-19T12:11:27Z</time>
      </trkpt>
      <trkpt lat="42.0828710" lon="-8.8904700">
        <ele>39.8</ele>
        <time>2021-05-19T12:11:28Z</time>
      </trkpt>
      <trkpt lat="42.0828820" lon="-8.8904430">
        <ele>39.8</ele>
        <time>2021-05-19T12:11:29Z</time>
      </trkpt>
      <trkpt lat="42.0828810" lon="-8.8904420">
        <ele>39.8</ele>
        <time>2021-05-19T12:11:30Z</time>
      </trkpt>
      <trkpt lat="42.0828810" lon="-8.8904400">
        <ele>39.8</ele>
        <time>2021-05-19T12:11:31Z</time>
      </trkpt>
      <trkpt lat="42.0828800" lon="-8.8904380">
        <ele>39.8</ele>
        <time>2021-05-19T12:11:32Z</time>
      </trkpt>
      <trkpt lat="42.0828800" lon="-8.8904360">
        <ele>39.8</ele>
        <time>2021-05-19T12:11:33Z</time>
      </trkpt>
      <trkpt lat="42.0828790" lon="-8.8904350">
        <ele>39.8</ele>
        <time>2021-05-19T12:11:34Z</time>
      </trkpt>
      <trkpt lat="42.0828790" lon="-8.8904330">
        <ele>39.8</ele>
        <time>2021-05-19T12:11:35Z</time>
      </trkpt>
      <trkpt lat="42.0828790" lon="-8.8904310">
        <ele>39.8</ele>
        <time>2021-05-19T12:11:36Z</time>
      </trkpt>
      <trkpt lat="42.0828780" lon="-8.8904290">
        <ele>39.8</ele>
        <time>2021-05-19T12:11:37Z</time>
      </trkpt>
      <trkpt lat="42.0828780" lon="-8.8904280">
        <ele>39.8</ele>
        <time>2021-05-19T12:11:38Z</time>
      </trkpt>
      <trkpt lat="42.0828770" lon="-8.8904260">
        <ele>39.8</ele>
        <time>2021-05-19T12:11:39Z</time>
      </trkpt>
      <trkpt lat="42.0828770" lon="-8.8904240">
        <ele>39.8</ele>
        <time>2021-05-19T12:11:40Z</time>
      </trkpt>
      <trkpt lat="42.0828770" lon="-8.8904220">
        <ele>39.8</ele>
        <time>2021-05-19T12:11:41Z</time>
      </trkpt>
      <trkpt lat="42.0828760" lon="-8.8904210">
        <ele>39.8</ele>
        <time>2021-05-19T12:11:42Z</time>
      </trkpt>
      <trkpt lat="42.0828760" lon="-8.8904190">
        <ele>39.8</ele>
        <time>2021-05-19T12:11:43Z</time>
      </trkpt>
      <trkpt lat="42.0828750" lon="-8.8904170">
        <ele>39.8</ele>
        <time>2021-05-19T12:11:44Z</time>
      </trkpt>
      <trkpt lat="42.0828750" lon="-8.8904160">
        <ele>39.8</ele>
        <time>2021-05-19T12:11:45Z</time>
      </trkpt>
      <trkpt lat="42.0828740" lon="-8.8904140">
        <ele>39.8</ele>
        <time>2021-05-19T12:11:46Z</time>
      </trkpt>
      <trkpt lat="42.0828740" lon="-8.8904120">
        <ele>39.8</ele>
        <time>2021-05-19T12:11:47Z</time>
      </trkpt>
      <trkpt lat="42.0828740" lon="-8.8904100">
        <ele>39.8</ele>
        <time>2021-05-19T12:11:48Z</time>
      </trkpt>
      <trkpt lat="42.0828730" lon="-8.8904090">
        <ele>39.8</ele>
        <time>2021-05-19T12:11:49Z</time>
      </trkpt>
      <trkpt lat="42.0828730" lon="-8.8904070">
        <ele>39.8</ele>
        <time>2021-05-19T12:11:50Z</time>
      </trkpt>
      <trkpt lat="42.0828720" lon="-8.8904050">
        <ele>39.8</ele>
        <time>2021-05-19T12:11:51Z</time>
      </trkpt>
      <trkpt lat="42.0828720" lon="-8.8904030">
        <ele>39.8</ele>
        <time>2021-05-19T12:11:52Z</time>
      </trkpt>
      <trkpt lat="42.0828710" lon="-8.8904020">
        <ele>39.8</ele>
        <time>2021-05-19T12:11:53Z</time>
      </trkpt>
      <trkpt lat="42.0828710" lon="-8.8904000">
        <ele>39.8</ele>
        <time>2021-05-19T12:11:54Z</time>
      </trkpt>
      <trkpt lat="42.0828810" lon="-8.8904240">
        <ele>39.8</ele>
        <time>2021-05-19T12:11:55Z</time>
      </trkpt>
      <trkpt lat="42.0828820" lon="-8.8904230">
        <ele>39.8</ele>
        <time>2021-05-19T12:11:56Z</time>
      </trkpt>
      <trkpt lat="42.0828790" lon="-8.8904190">
        <ele>39.8</ele>
        <time>2021-05-19T12:11:57Z</time>
      </trkpt>
      <trkpt lat="42.0828650" lon="-8.8904280">
        <ele>39.7</ele>
        <time>2021-05-19T12:11:58Z</time>
      </trkpt>
      <trkpt lat="42.0828750" lon="-8.8904240">
        <ele>39.7</ele>
        <time>2021-05-19T12:11:59Z</time>
      </trkpt>
      <trkpt lat="42.0828760" lon="-8.8904170">
        <ele>39.7</ele>
        <time>2021-05-19T12:12:00Z</time>
      </trkpt>
      <trkpt lat="42.0828660" lon="-8.8904180">
        <ele>39.7</ele>
        <time>2021-05-19T12:12:01Z</time>
      </trkpt>
      <trkpt lat="42.0828690" lon="-8.8904170">
        <ele>39.7</ele>
        <time>2021-05-19T12:12:02Z</time>
      </trkpt>
      <trkpt lat="42.0828710" lon="-8.8904160">
        <ele>39.7</ele>
        <time>2021-05-19T12:12:03Z</time>
      </trkpt>
      <trkpt lat="42.0828680" lon="-8.8904190">
        <ele>39.7</ele>
        <time>2021-05-19T12:12:04Z</time>
      </trkpt>
      <trkpt lat="42.0828650" lon="-8.8903820">
        <ele>39.7</ele>
        <time>2021-05-19T12:12:05Z</time>
      </trkpt>
      <trkpt lat="42.0828670" lon="-8.8903650">
        <ele>39.7</ele>
        <time>2021-05-19T12:12:06Z</time>
      </trkpt>
      <trkpt lat="42.0828650" lon="-8.8903630">
        <ele>39.7</ele>
        <time>2021-05-19T12:12:07Z</time>
      </trkpt>
      <trkpt lat="42.0828640" lon="-8.8903690">
        <ele>39.7</ele>
        <time>2021-05-19T12:12:08Z</time>
      </trkpt>
      <trkpt lat="42.0828590" lon="-8.8903650">
        <ele>39.7</ele>
        <time>2021-05-19T12:12:09Z</time>
      </trkpt>
      <trkpt lat="42.0828580" lon="-8.8903630">
        <ele>39.7</ele>
        <time>2021-05-19T12:12:10Z</time>
      </trkpt>
      <trkpt lat="42.0828660" lon="-8.8903610">
        <ele>39.7</ele>
        <time>2021-05-19T12:12:11Z</time>
      </trkpt>
      <trkpt lat="42.0828690" lon="-8.8903570">
        <ele>39.7</ele>
        <time>2021-05-19T12:12:12Z</time>
      </trkpt>
      <trkpt lat="42.0828650" lon="-8.8903500">
        <ele>39.7</ele>
        <time>2021-05-19T12:12:13Z</time>
      </trkpt>
      <trkpt lat="42.0828650" lon="-8.8903570">
        <ele>39.7</ele>
        <time>2021-05-19T12:12:14Z</time>
      </trkpt>
      <trkpt lat="42.0828530" lon="-8.8903600">
        <ele>39.7</ele>
        <time>2021-05-19T12:12:15Z</time>
      </trkpt>
      <trkpt lat="42.0828480" lon="-8.8903590">
        <ele>39.7</ele>
        <time>2021-05-19T12:12:16Z</time>
      </trkpt>
      <trkpt lat="42.0828430" lon="-8.8903660">
        <ele>39.7</ele>
        <time>2021-05-19T12:12:17Z</time>
      </trkpt>
      <trkpt lat="42.0828430" lon="-8.8903750">
        <ele>39.7</ele>
        <time>2021-05-19T12:12:18Z</time>
      </trkpt>
      <trkpt lat="42.0828550" lon="-8.8903820">
        <ele>39.7</ele>
        <time>2021-05-19T12:12:19Z</time>
      </trkpt>
      <trkpt lat="42.0828540" lon="-8.8903950">
        <ele>39.7</ele>
        <time>2021-05-19T12:12:20Z</time>
      </trkpt>
      <trkpt lat="42.0828540" lon="-8.8904070">
        <ele>39.7</ele>
        <time>2021-05-19T12:12:21Z</time>
      </trkpt>
      <trkpt lat="42.0828520" lon="-8.8904290">
        <ele>39.7</ele>
        <time>2021-05-19T12:12:22Z</time>
      </trkpt>
      <trkpt lat="42.0828550" lon="-8.8904360">
        <ele>39.7</ele>
        <time>2021-05-19T12:12:23Z</time>
      </trkpt>
      <trkpt lat="42.0828600" lon="-8.8904360">
        <ele>39.7</ele>
        <time>2021-05-19T12:12:24Z</time>
      </trkpt>
      <trkpt lat="42.0828710" lon="-8.8904350">
        <ele>39.7</ele>
        <time>2021-05-19T12:12:25Z</time>
      </trkpt>
      <trkpt lat="42.0828700" lon="-8.8904120">
        <ele>39.7</ele>
        <time>2021-05-19T12:12:26Z</time>
      </trkpt>
      <trkpt lat="42.0828800" lon="-8.8904100">
        <ele>39.7</ele>
        <time>2021-05-19T12:12:27Z</time>
      </trkpt>
      <trkpt lat="42.0828730" lon="-8.8904020">
        <ele>39.7</ele>
        <time>2021-05-19T12:12:28Z</time>
      </trkpt>
      <trkpt lat="42.0828660" lon="-8.8904020">
        <ele>39.7</ele>
        <time>2021-05-19T12:12:29Z</time>
      </trkpt>
      <trkpt lat="42.0828660" lon="-8.8904010">
        <ele>39.7</ele>
        <time>2021-05-19T12:12:30Z</time>
      </trkpt>
      <trkpt lat="42.0828660" lon="-8.8903950">
        <ele>39.7</ele>
        <time>2021-05-19T12:12:31Z</time>
      </trkpt>
      <trkpt lat="42.0828690" lon="-8.8903870">
        <ele>39.7</ele>
        <time>2021-05-19T12:12:32Z</time>
      </trkpt>
      <trkpt lat="42.0828800" lon="-8.8903820">
        <ele>39.7</ele>
        <time>2021-05-19T12:12:33Z</time>
      </trkpt>
      <trkpt lat="42.0828860" lon="-8.8903820">
        <ele>39.7</ele>
        <time>2021-05-19T12:12:34Z</time>
      </trkpt>
      <trkpt lat="42.0828970" lon="-8.8903810">
        <ele>39.7</ele>
        <time>2021-05-19T12:12:35Z</time>
      </trkpt>
      <trkpt lat="42.0829050" lon="-8.8903830">
        <ele>39.7</ele>
        <time>2021-05-19T12:12:36Z</time>
      </trkpt>
      <trkpt lat="42.0828970" lon="-8.8903730">
        <ele>39.7</ele>
        <time>2021-05-19T12:12:37Z</time>
      </trkpt>
      <trkpt lat="42.0828940" lon="-8.8903680">
        <ele>39.7</ele>
        <time>2021-05-19T12:12:38Z</time>
      </trkpt>
      <trkpt lat="42.0828940" lon="-8.8903400">
        <ele>39.7</ele>
        <time>2021-05-19T12:12:39Z</time>
      </trkpt>
      <trkpt lat="42.0828900" lon="-8.8903340">
        <ele>39.7</ele>
        <time>2021-05-19T12:12:40Z</time>
      </trkpt>
      <trkpt lat="42.0828800" lon="-8.8903390">
        <ele>39.7</ele>
        <time>2021-05-19T12:12:41Z</time>
      </trkpt>
      <trkpt lat="42.0828840" lon="-8.8903410">
        <ele>39.7</ele>
        <time>2021-05-19T12:12:42Z</time>
      </trkpt>
      <trkpt lat="42.0828980" lon="-8.8903440">
        <ele>39.7</ele>
        <time>2021-05-19T12:12:43Z</time>
      </trkpt>
      <trkpt lat="42.0828910" lon="-8.8903540">
        <ele>39.7</ele>
        <time>2021-05-19T12:12:44Z</time>
      </trkpt>
      <trkpt lat="42.0828860" lon="-8.8903630">
        <ele>39.7</ele>
        <time>2021-05-19T12:12:45Z</time>
      </trkpt>
      <trkpt lat="42.0828820" lon="-8.8903460">
        <ele>39.7</ele>
        <time>2021-05-19T12:12:46Z</time>
      </trkpt>
      <trkpt lat="42.0828860" lon="-8.8903210">
        <ele>39.7</ele>
        <time>2021-05-19T12:12:47Z</time>
      </trkpt>
      <trkpt lat="42.0828870" lon="-8.8902930">
        <ele>39.7</ele>
        <time>2021-05-19T12:12:48Z</time>
      </trkpt>
      <trkpt lat="42.0828900" lon="-8.8902830">
        <ele>39.7</ele>
        <time>2021-05-19T12:12:49Z</time>
      </trkpt>
      <trkpt lat="42.0828770" lon="-8.8902570">
        <ele>39.7</ele>
        <time>2021-05-19T12:12:50Z</time>
      </trkpt>
      <trkpt lat="42.0828730" lon="-8.8902420">
        <ele>39.7</ele>
        <time>2021-05-19T12:12:51Z</time>
      </trkpt>
      <trkpt lat="42.0828660" lon="-8.8902280">
        <ele>39.7</ele>
        <time>2021-05-19T12:12:52Z</time>
      </trkpt>
      <trkpt lat="42.0828610" lon="-8.8902230">
        <ele>39.7</ele>
        <time>2021-05-19T12:12:53Z</time>
      </trkpt>
      <trkpt lat="42.0828560" lon="-8.8902130">
        <ele>39.7</ele>
        <time>2021-05-19T12:12:54Z</time>
      </trkpt>
      <trkpt lat="42.0828580" lon="-8.8902240">
        <ele>39.7</ele>
        <time>2021-05-19T12:12:55Z</time>
      </trkpt>
      <trkpt lat="42.0828540" lon="-8.8902280">
        <ele>39.7</ele>
        <time>2021-05-19T12:12:56Z</time>
      </trkpt>
      <trkpt lat="42.0828540" lon="-8.8902300">
        <ele>39.7</ele>
        <time>2021-05-19T12:12:57Z</time>
      </trkpt>
      <trkpt lat="42.0828540" lon="-8.8902310">
        <ele>39.7</ele>
        <time>2021-05-19T12:12:58Z</time>
      </trkpt>
      <trkpt lat="42.0828520" lon="-8.8902280">
        <ele>39.7</ele>
        <time>2021-05-19T12:12:59Z</time>
      </trkpt>
      <trkpt lat="42.0828500" lon="-8.8902260">
        <ele>39.7</ele>
        <time>2021-05-19T12:13:00Z</time>
      </trkpt>
      <trkpt lat="42.0828500" lon="-8.8902230">
        <ele>39.7</ele>
        <time>2021-05-19T12:13:01Z</time>
      </trkpt>
      <trkpt lat="42.0828470" lon="-8.8902270">
        <ele>39.7</ele>
        <time>2021-05-19T12:13:02Z</time>
      </trkpt>
      <trkpt lat="42.0828470" lon="-8.8902270">
        <ele>39.7</ele>
        <time>2021-05-19T12:13:03Z</time>
      </trkpt>
      <trkpt lat="42.0828410" lon="-8.8902300">
        <ele>39.7</ele>
        <time>2021-05-19T12:13:04Z</time>
      </trkpt>
      <trkpt lat="42.0828410" lon="-8.8902300">
        <ele>39.7</ele>
        <time>2021-05-19T12:13:05Z</time>
      </trkpt>
      <trkpt lat="42.0828390" lon="-8.8902240">
        <ele>39.7</ele>
        <time>2021-05-19T12:13:06Z</time>
      </trkpt>
      <trkpt lat="42.0828390" lon="-8.8902240">
        <ele>39.7</ele>
        <time>2021-05-19T12:13:07Z</time>
      </trkpt>
      <trkpt lat="42.0828390" lon="-8.8902240">
        <ele>39.7</ele>
        <time>2021-05-19T12:13:08Z</time>
      </trkpt>
      <trkpt lat="42.0828480" lon="-8.8901780">
        <ele>39.7</ele>
        <time>2021-05-19T12:13:09Z</time>
      </trkpt>
      <trkpt lat="42.0828490" lon="-8.8901790">
        <ele>39.7</ele>
        <time>2021-05-19T12:13:10Z</time>
      </trkpt>
      <trkpt lat="42.0828490" lon="-8.8901790">
        <ele>39.7</ele>
        <time>2021-05-19T12:13:11Z</time>
      </trkpt>
      <trkpt lat="42.0828490" lon="-8.8901790">
        <ele>39.7</ele>
        <time>2021-05-19T12:13:12Z</time>
      </trkpt>
      <trkpt lat="42.0828490" lon="-8.8901790">
        <ele>39.7</ele>
        <time>2021-05-19T12:13:13Z</time>
      </trkpt>
      <trkpt lat="42.0828490" lon="-8.8901790">
        <ele>39.7</ele>
        <time>2021-05-19T12:13:14Z</time>
      </trkpt>
      <trkpt lat="42.0828490" lon="-8.8901790">
        <ele>39.7</ele>
        <time>2021-05-19T12:13:15Z</time>
      </trkpt>
      <trkpt lat="42.0828490" lon="-8.8901790">
        <ele>39.7</ele>
        <time>2021-05-19T12:13:16Z</time>
      </trkpt>
      <trkpt lat="42.0828490" lon="-8.8901790">
        <ele>39.7</ele>
        <time>2021-05-19T12:13:17Z</time>
      </trkpt>
      <trkpt lat="42.0828570" lon="-8.8901750">
        <ele>39.7</ele>
        <time>2021-05-19T12:13:18Z</time>
      </trkpt>
      <trkpt lat="42.0828570" lon="-8.8901740">
        <ele>39.7</ele>
        <time>2021-05-19T12:13:19Z</time>
      </trkpt>
      <trkpt lat="42.0828570" lon="-8.8901740">
        <ele>39.7</ele>
        <time>2021-05-19T12:13:20Z</time>
      </trkpt>
      <trkpt lat="42.0828590" lon="-8.8901730">
        <ele>39.7</ele>
        <time>2021-05-19T12:13:21Z</time>
      </trkpt>
      <trkpt lat="42.0828600" lon="-8.8901750">
        <ele>39.7</ele>
        <time>2021-05-19T12:13:22Z</time>
      </trkpt>
      <trkpt lat="42.0828590" lon="-8.8901750">
        <ele>39.7</ele>
        <time>2021-05-19T12:13:23Z</time>
      </trkpt>
      <trkpt lat="42.0828590" lon="-8.8901750">
        <ele>39.7</ele>
        <time>2021-05-19T12:13:24Z</time>
      </trkpt>
      <trkpt lat="42.0828640" lon="-8.8901770">
        <ele>39.7</ele>
        <time>2021-05-19T12:13:25Z</time>
      </trkpt>
      <trkpt lat="42.0828640" lon="-8.8901770">
        <ele>39.7</ele>
        <time>2021-05-19T12:13:26Z</time>
      </trkpt>
      <trkpt lat="42.0828640" lon="-8.8901750">
        <ele>39.7</ele>
        <time>2021-05-19T12:13:27Z</time>
      </trkpt>
      <trkpt lat="42.0828570" lon="-8.8901720">
        <ele>39.7</ele>
        <time>2021-05-19T12:13:28Z</time>
      </trkpt>
      <trkpt lat="42.0828490" lon="-8.8901740">
        <ele>39.7</ele>
        <time>2021-05-19T12:13:29Z</time>
      </trkpt>
      <trkpt lat="42.0828510" lon="-8.8901620">
        <ele>39.7</ele>
        <time>2021-05-19T12:13:30Z</time>
      </trkpt>
      <trkpt lat="42.0828460" lon="-8.8901530">
        <ele>39.7</ele>
        <time>2021-05-19T12:13:31Z</time>
      </trkpt>
      <trkpt lat="42.0828460" lon="-8.8901410">
        <ele>39.7</ele>
        <time>2021-05-19T12:13:32Z</time>
      </trkpt>
      <trkpt lat="42.0828440" lon="-8.8901380">
        <ele>39.7</ele>
        <time>2021-05-19T12:13:33Z</time>
      </trkpt>
      <trkpt lat="42.0828440" lon="-8.8901280">
        <ele>39.7</ele>
        <time>2021-05-19T12:13:34Z</time>
      </trkpt>
      <trkpt lat="42.0828460" lon="-8.8901210">
        <ele>39.7</ele>
        <time>2021-05-19T12:13:35Z</time>
      </trkpt>
      <trkpt lat="42.0828500" lon="-8.8901180">
        <ele>39.7</ele>
        <time>2021-05-19T12:13:36Z</time>
      </trkpt>
      <trkpt lat="42.0828520" lon="-8.8901030">
        <ele>39.7</ele>
        <time>2021-05-19T12:13:37Z</time>
      </trkpt>
      <trkpt lat="42.0828520" lon="-8.8901070">
        <ele>39.7</ele>
        <time>2021-05-19T12:13:38Z</time>
      </trkpt>
      <trkpt lat="42.0828490" lon="-8.8901110">
        <ele>39.7</ele>
        <time>2021-05-19T12:13:39Z</time>
      </trkpt>
      <trkpt lat="42.0828450" lon="-8.8901110">
        <ele>39.7</ele>
        <time>2021-05-19T12:13:40Z</time>
      </trkpt>
      <trkpt lat="42.0828420" lon="-8.8901130">
        <ele>39.7</ele>
        <time>2021-05-19T12:13:41Z</time>
      </trkpt>
      <trkpt lat="42.0828410" lon="-8.8901110">
        <ele>39.7</ele>
        <time>2021-05-19T12:13:42Z</time>
      </trkpt>
      <trkpt lat="42.0828400" lon="-8.8901050">
        <ele>39.7</ele>
        <time>2021-05-19T12:13:43Z</time>
      </trkpt>
      <trkpt lat="42.0828410" lon="-8.8901040">
        <ele>39.7</ele>
        <time>2021-05-19T12:13:44Z</time>
      </trkpt>
      <trkpt lat="42.0828390" lon="-8.8901100">
        <ele>39.7</ele>
        <time>2021-05-19T12:13:45Z</time>
      </trkpt>
      <trkpt lat="42.0828380" lon="-8.8901080">
        <ele>39.7</ele>
        <time>2021-05-19T12:13:46Z</time>
      </trkpt>
      <trkpt lat="42.0828360" lon="-8.8901110">
        <ele>39.7</ele>
        <time>2021-05-19T12:13:47Z</time>
      </trkpt>
      <trkpt lat="42.0828350" lon="-8.8901180">
        <ele>39.7</ele>
        <time>2021-05-19T12:13:48Z</time>
      </trkpt>
      <trkpt lat="42.0828340" lon="-8.8901210">
        <ele>39.7</ele>
        <time>2021-05-19T12:13:49Z</time>
      </trkpt>
      <trkpt lat="42.0828320" lon="-8.8901210">
        <ele>39.7</ele>
        <time>2021-05-19T12:13:50Z</time>
      </trkpt>
      <trkpt lat="42.0828290" lon="-8.8901210">
        <ele>39.7</ele>
        <time>2021-05-19T12:13:51Z</time>
      </trkpt>
      <trkpt lat="42.0828260" lon="-8.8901230">
        <ele>39.7</ele>
        <time>2021-05-19T12:13:52Z</time>
      </trkpt>
      <trkpt lat="42.0828240" lon="-8.8901250">
        <ele>39.7</ele>
        <time>2021-05-19T12:13:53Z</time>
      </trkpt>
      <trkpt lat="42.0828240" lon="-8.8901250">
        <ele>39.7</ele>
        <time>2021-05-19T12:13:54Z</time>
      </trkpt>
      <trkpt lat="42.0828230" lon="-8.8901300">
        <ele>39.7</ele>
        <time>2021-05-19T12:13:55Z</time>
      </trkpt>
      <trkpt lat="42.0828220" lon="-8.8901330">
        <ele>39.7</ele>
        <time>2021-05-19T12:13:56Z</time>
      </trkpt>
      <trkpt lat="42.0828200" lon="-8.8901330">
        <ele>39.7</ele>
        <time>2021-05-19T12:13:57Z</time>
      </trkpt>
      <trkpt lat="42.0828200" lon="-8.8901370">
        <ele>39.7</ele>
        <time>2021-05-19T12:13:58Z</time>
      </trkpt>
      <trkpt lat="42.0828200" lon="-8.8901360">
        <ele>39.7</ele>
        <time>2021-05-19T12:13:59Z</time>
      </trkpt>
      <trkpt lat="42.0828200" lon="-8.8901370">
        <ele>39.7</ele>
        <time>2021-05-19T12:14:00Z</time>
      </trkpt>
      <trkpt lat="42.0828230" lon="-8.8901260">
        <ele>39.7</ele>
        <time>2021-05-19T12:14:01Z</time>
      </trkpt>
      <trkpt lat="42.0828230" lon="-8.8901230">
        <ele>39.7</ele>
        <time>2021-05-19T12:14:02Z</time>
      </trkpt>
      <trkpt lat="42.0828280" lon="-8.8901140">
        <ele>39.7</ele>
        <time>2021-05-19T12:14:03Z</time>
      </trkpt>
      <trkpt lat="42.0828380" lon="-8.8901130">
        <ele>39.7</ele>
        <time>2021-05-19T12:14:04Z</time>
      </trkpt>
      <trkpt lat="42.0828460" lon="-8.8901090">
        <ele>39.7</ele>
        <time>2021-05-19T12:14:05Z</time>
      </trkpt>
      <trkpt lat="42.0828570" lon="-8.8901080">
        <ele>39.7</ele>
        <time>2021-05-19T12:14:06Z</time>
      </trkpt>
      <trkpt lat="42.0828720" lon="-8.8901070">
        <ele>39.7</ele>
        <time>2021-05-19T12:14:07Z</time>
      </trkpt>
      <trkpt lat="42.0828850" lon="-8.8901090">
        <ele>39.7</ele>
        <time>2021-05-19T12:14:08Z</time>
      </trkpt>
      <trkpt lat="42.0828960" lon="-8.8901100">
        <ele>39.7</ele>
        <time>2021-05-19T12:14:09Z</time>
      </trkpt>
      <trkpt lat="42.0829020" lon="-8.8901140">
        <ele>39.7</ele>
        <time>2021-05-19T12:14:10Z</time>
      </trkpt>
      <trkpt lat="42.0829150" lon="-8.8901210">
        <ele>39.7</ele>
        <time>2021-05-19T12:14:11Z</time>
      </trkpt>
      <trkpt lat="42.0829310" lon="-8.8901240">
        <ele>39.7</ele>
        <time>2021-05-19T12:14:12Z</time>
      </trkpt>
      <trkpt lat="42.0829400" lon="-8.8901260">
        <ele>39.7</ele>
        <time>2021-05-19T12:14:13Z</time>
      </trkpt>
      <trkpt lat="42.0829500" lon="-8.8901280">
        <ele>39.7</ele>
        <time>2021-05-19T12:14:14Z</time>
      </trkpt>
      <trkpt lat="42.0829590" lon="-8.8901300">
        <ele>39.7</ele>
        <time>2021-05-19T12:14:15Z</time>
      </trkpt>
      <trkpt lat="42.0829710" lon="-8.8901340">
        <ele>39.7</ele>
        <time>2021-05-19T12:14:16Z</time>
      </trkpt>
      <trkpt lat="42.0829820" lon="-8.8901370">
        <ele>39.7</ele>
        <time>2021-05-19T12:14:17Z</time>
      </trkpt>
      <trkpt lat="42.0829950" lon="-8.8901390">
        <ele>39.7</ele>
        <time>2021-05-19T12:14:18Z</time>
      </trkpt>
      <trkpt lat="42.0830090" lon="-8.8901440">
        <ele>39.7</ele>
        <time>2021-05-19T12:14:19Z</time>
      </trkpt>
      <trkpt lat="42.0830250" lon="-8.8901430">
        <ele>39.7</ele>
        <time>2021-05-19T12:14:20Z</time>
      </trkpt>
      <trkpt lat="42.0830420" lon="-8.8901490">
        <ele>39.7</ele>
        <time>2021-05-19T12:14:21Z</time>
      </trkpt>
      <trkpt lat="42.0830500" lon="-8.8901530">
        <ele>39.7</ele>
        <time>2021-05-19T12:14:22Z</time>
      </trkpt>
      <trkpt lat="42.0830560" lon="-8.8901550">
        <ele>39.7</ele>
        <time>2021-05-19T12:14:23Z</time>
      </trkpt>
      <trkpt lat="42.0830700" lon="-8.8901600">
        <ele>39.7</ele>
        <time>2021-05-19T12:14:24Z</time>
      </trkpt>
      <trkpt lat="42.0830860" lon="-8.8901670">
        <ele>39.7</ele>
        <time>2021-05-19T12:14:25Z</time>
      </trkpt>
      <trkpt lat="42.0830860" lon="-8.8901720">
        <ele>39.7</ele>
        <time>2021-05-19T12:14:26Z</time>
      </trkpt>
      <trkpt lat="42.0830870" lon="-8.8901770">
        <ele>39.7</ele>
        <time>2021-05-19T12:14:27Z</time>
      </trkpt>
      <trkpt lat="42.0830880" lon="-8.8901780">
        <ele>39.7</ele>
        <time>2021-05-19T12:14:28Z</time>
      </trkpt>
      <trkpt lat="42.0830880" lon="-8.8901820">
        <ele>39.7</ele>
        <time>2021-05-19T12:14:29Z</time>
      </trkpt>
      <trkpt lat="42.0831020" lon="-8.8901930">
        <ele>39.6</ele>
        <time>2021-05-19T12:14:30Z</time>
      </trkpt>
      <trkpt lat="42.0831120" lon="-8.8901930">
        <ele>39.6</ele>
        <time>2021-05-19T12:14:31Z</time>
      </trkpt>
      <trkpt lat="42.0831230" lon="-8.8901900">
        <ele>39.6</ele>
        <time>2021-05-19T12:14:32Z</time>
      </trkpt>
      <trkpt lat="42.0831320" lon="-8.8901900">
        <ele>39.6</ele>
        <time>2021-05-19T12:14:33Z</time>
      </trkpt>
      <trkpt lat="42.0831430" lon="-8.8901940">
        <ele>39.6</ele>
        <time>2021-05-19T12:14:34Z</time>
      </trkpt>
      <trkpt lat="42.0831610" lon="-8.8901980">
        <ele>39.6</ele>
        <time>2021-05-19T12:14:35Z</time>
      </trkpt>
      <trkpt lat="42.0831720" lon="-8.8901980">
        <ele>39.6</ele>
        <time>2021-05-19T12:14:36Z</time>
      </trkpt>
      <trkpt lat="42.0831820" lon="-8.8901990">
        <ele>39.6</ele>
        <time>2021-05-19T12:14:37Z</time>
      </trkpt>
      <trkpt lat="42.0831930" lon="-8.8902000">
        <ele>39.6</ele>
        <time>2021-05-19T12:14:38Z</time>
      </trkpt>
      <trkpt lat="42.0832040" lon="-8.8902100">
        <ele>39.6</ele>
        <time>2021-05-19T12:14:39Z</time>
      </trkpt>
      <trkpt lat="42.0832170" lon="-8.8902100">
        <ele>39.6</ele>
        <time>2021-05-19T12:14:40Z</time>
      </trkpt>
      <trkpt lat="42.0832370" lon="-8.8902160">
        <ele>39.6</ele>
        <time>2021-05-19T12:14:41Z</time>
      </trkpt>
      <trkpt lat="42.0832470" lon="-8.8902200">
        <ele>39.6</ele>
        <time>2021-05-19T12:14:42Z</time>
      </trkpt>
      <trkpt lat="42.0832560" lon="-8.8902230">
        <ele>39.6</ele>
        <time>2021-05-19T12:14:43Z</time>
      </trkpt>
      <trkpt lat="42.0832760" lon="-8.8902320">
        <ele>39.6</ele>
        <time>2021-05-19T12:14:44Z</time>
      </trkpt>
      <trkpt lat="42.0832830" lon="-8.8902370">
        <ele>39.6</ele>
        <time>2021-05-19T12:14:45Z</time>
      </trkpt>
      <trkpt lat="42.0832910" lon="-8.8902420">
        <ele>39.5</ele>
        <time>2021-05-19T12:14:46Z</time>
      </trkpt>
      <trkpt lat="42.0832930" lon="-8.8902470">
        <ele>39.5</ele>
        <time>2021-05-19T12:14:47Z</time>
      </trkpt>
      <trkpt lat="42.0832910" lon="-8.8902480">
        <ele>39.5</ele>
        <time>2021-05-19T12:14:48Z</time>
      </trkpt>
      <trkpt lat="42.0832930" lon="-8.8902450">
        <ele>39.5</ele>
        <time>2021-05-19T12:14:49Z</time>
      </trkpt>
      <trkpt lat="42.0832930" lon="-8.8902450">
        <ele>39.5</ele>
        <time>2021-05-19T12:14:50Z</time>
      </trkpt>
      <trkpt lat="42.0832940" lon="-8.8902480">
        <ele>39.5</ele>
        <time>2021-05-19T12:14:51Z</time>
      </trkpt>
      <trkpt lat="42.0832890" lon="-8.8902390">
        <ele>39.5</ele>
        <time>2021-05-19T12:14:52Z</time>
      </trkpt>
      <trkpt lat="42.0832890" lon="-8.8902390">
        <ele>39.5</ele>
        <time>2021-05-19T12:14:53Z</time>
      </trkpt>
      <trkpt lat="42.0832890" lon="-8.8902390">
        <ele>39.5</ele>
        <time>2021-05-19T12:14:54Z</time>
      </trkpt>
      <trkpt lat="42.0832890" lon="-8.8902390">
        <ele>39.5</ele>
        <time>2021-05-19T12:14:55Z</time>
      </trkpt>
      <trkpt lat="42.0832890" lon="-8.8902390">
        <ele>39.5</ele>
        <time>2021-05-19T12:14:56Z</time>
      </trkpt>
      <trkpt lat="42.0832960" lon="-8.8902440">
        <ele>39.5</ele>
        <time>2021-05-19T12:14:57Z</time>
      </trkpt>
      <trkpt lat="42.0832970" lon="-8.8902420">
        <ele>39.5</ele>
        <time>2021-05-19T12:14:58Z</time>
      </trkpt>
      <trkpt lat="42.0832980" lon="-8.8902460">
        <ele>39.5</ele>
        <time>2021-05-19T12:14:59Z</time>
      </trkpt>
      <trkpt lat="42.0832980" lon="-8.8902480">
        <ele>39.5</ele>
        <time>2021-05-19T12:15:00Z</time>
      </trkpt>
      <trkpt lat="42.0832990" lon="-8.8902500">
        <ele>39.5</ele>
        <time>2021-05-19T12:15:01Z</time>
      </trkpt>
      <trkpt lat="42.0832990" lon="-8.8902520">
        <ele>39.5</ele>
        <time>2021-05-19T12:15:02Z</time>
      </trkpt>
      <trkpt lat="42.0832950" lon="-8.8902550">
        <ele>39.5</ele>
        <time>2021-05-19T12:15:03Z</time>
      </trkpt>
      <trkpt lat="42.0832950" lon="-8.8902560">
        <ele>39.5</ele>
        <time>2021-05-19T12:15:04Z</time>
      </trkpt>
      <trkpt lat="42.0832920" lon="-8.8902560">
        <ele>39.5</ele>
        <time>2021-05-19T12:15:05Z</time>
      </trkpt>
      <trkpt lat="42.0832900" lon="-8.8902620">
        <ele>39.5</ele>
        <time>2021-05-19T12:15:06Z</time>
      </trkpt>
      <trkpt lat="42.0832880" lon="-8.8902630">
        <ele>39.5</ele>
        <time>2021-05-19T12:15:07Z</time>
      </trkpt>
      <trkpt lat="42.0832880" lon="-8.8902640">
        <ele>39.5</ele>
        <time>2021-05-19T12:15:08Z</time>
      </trkpt>
      <trkpt lat="42.0832860" lon="-8.8902660">
        <ele>39.5</ele>
        <time>2021-05-19T12:15:09Z</time>
      </trkpt>
      <trkpt lat="42.0832850" lon="-8.8902720">
        <ele>39.5</ele>
        <time>2021-05-19T12:15:10Z</time>
      </trkpt>
      <trkpt lat="42.0832990" lon="-8.8902740">
        <ele>39.5</ele>
        <time>2021-05-19T12:15:11Z</time>
      </trkpt>
      <trkpt lat="42.0833070" lon="-8.8902740">
        <ele>39.5</ele>
        <time>2021-05-19T12:15:12Z</time>
      </trkpt>
      <trkpt lat="42.0833090" lon="-8.8902690">
        <ele>39.5</ele>
        <time>2021-05-19T12:15:13Z</time>
      </trkpt>
      <trkpt lat="42.0833220" lon="-8.8902700">
        <ele>39.5</ele>
        <time>2021-05-19T12:15:14Z</time>
      </trkpt>
      <trkpt lat="42.0833280" lon="-8.8902700">
        <ele>39.5</ele>
        <time>2021-05-19T12:15:15Z</time>
      </trkpt>
      <trkpt lat="42.0833380" lon="-8.8902760">
        <ele>39.5</ele>
        <time>2021-05-19T12:15:16Z</time>
      </trkpt>
      <trkpt lat="42.0833470" lon="-8.8902790">
        <ele>39.5</ele>
        <time>2021-05-19T12:15:17Z</time>
      </trkpt>
      <trkpt lat="42.0833540" lon="-8.8902820">
        <ele>39.5</ele>
        <time>2021-05-19T12:15:18Z</time>
      </trkpt>
      <trkpt lat="42.0833600" lon="-8.8902850">
        <ele>39.5</ele>
        <time>2021-05-19T12:15:19Z</time>
      </trkpt>
      <trkpt lat="42.0833720" lon="-8.8902880">
        <ele>39.5</ele>
        <time>2021-05-19T12:15:20Z</time>
      </trkpt>
      <trkpt lat="42.0833740" lon="-8.8902880">
        <ele>39.5</ele>
        <time>2021-05-19T12:15:21Z</time>
      </trkpt>
      <trkpt lat="42.0833670" lon="-8.8902900">
        <ele>39.5</ele>
        <time>2021-05-19T12:15:22Z</time>
      </trkpt>
      <trkpt lat="42.0833690" lon="-8.8902910">
        <ele>39.5</ele>
        <time>2021-05-19T12:15:23Z</time>
      </trkpt>
      <trkpt lat="42.0833680" lon="-8.8902900">
        <ele>39.5</ele>
        <time>2021-05-19T12:15:24Z</time>
      </trkpt>
      <trkpt lat="42.0833770" lon="-8.8902820">
        <ele>39.5</ele>
        <time>2021-05-19T12:15:25Z</time>
      </trkpt>
      <trkpt lat="42.0833900" lon="-8.8902900">
        <ele>39.4</ele>
        <time>2021-05-19T12:15:26Z</time>
      </trkpt>
      <trkpt lat="42.0834020" lon="-8.8903060">
        <ele>39.4</ele>
        <time>2021-05-19T12:15:27Z</time>
      </trkpt>
      <trkpt lat="42.0834130" lon="-8.8903240">
        <ele>39.4</ele>
        <time>2021-05-19T12:15:28Z</time>
      </trkpt>
      <trkpt lat="42.0834180" lon="-8.8903290">
        <ele>39.4</ele>
        <time>2021-05-19T12:15:29Z</time>
      </trkpt>
      <trkpt lat="42.0834230" lon="-8.8903350">
        <ele>39.4</ele>
        <time>2021-05-19T12:15:30Z</time>
      </trkpt>
      <trkpt lat="42.0834280" lon="-8.8903410">
        <ele>39.4</ele>
        <time>2021-05-19T12:15:31Z</time>
      </trkpt>
      <trkpt lat="42.0834390" lon="-8.8903520">
        <ele>39.4</ele>
        <time>2021-05-19T12:15:32Z</time>
      </trkpt>
      <trkpt lat="42.0834490" lon="-8.8903610">
        <ele>39.4</ele>
        <time>2021-05-19T12:15:33Z</time>
      </trkpt>
      <trkpt lat="42.0834520" lon="-8.8903710">
        <ele>39.4</ele>
        <time>2021-05-19T12:15:34Z</time>
      </trkpt>
      <trkpt lat="42.0834590" lon="-8.8904010">
        <ele>39.4</ele>
        <time>2021-05-19T12:15:35Z</time>
      </trkpt>
      <trkpt lat="42.0834620" lon="-8.8904120">
        <ele>39.4</ele>
        <time>2021-05-19T12:15:36Z</time>
      </trkpt>
      <trkpt lat="42.0834650" lon="-8.8904240">
        <ele>39.4</ele>
        <time>2021-05-19T12:15:37Z</time>
      </trkpt>
      <trkpt lat="42.0834740" lon="-8.8904420">
        <ele>39.4</ele>
        <time>2021-05-19T12:15:38Z</time>
      </trkpt>
      <trkpt lat="42.0834810" lon="-8.8904540">
        <ele>39.4</ele>
        <time>2021-05-19T12:15:39Z</time>
      </trkpt>
      <trkpt lat="42.0834780" lon="-8.8904720">
        <ele>39.3</ele>
        <time>2021-05-19T12:15:40Z</time>
      </trkpt>
      <trkpt lat="42.0834840" lon="-8.8904860">
        <ele>39.3</ele>
        <time>2021-05-19T12:15:41Z</time>
      </trkpt>
      <trkpt lat="42.0834930" lon="-8.8904980">
        <ele>39.3</ele>
        <time>2021-05-19T12:15:42Z</time>
      </trkpt>
      <trkpt lat="42.0835020" lon="-8.8905050">
        <ele>39.3</ele>
        <time>2021-05-19T12:15:43Z</time>
      </trkpt>
      <trkpt lat="42.0835140" lon="-8.8905180">
        <ele>39.3</ele>
        <time>2021-05-19T12:15:45Z</time>
      </trkpt>
      <trkpt lat="42.0835200" lon="-8.8905290">
        <ele>39.3</ele>
        <time>2021-05-19T12:15:46Z</time>
      </trkpt>
      <trkpt lat="42.0835270" lon="-8.8905350">
        <ele>39.3</ele>
        <time>2021-05-19T12:15:47Z</time>
      </trkpt>
      <trkpt lat="42.0835340" lon="-8.8905290">
        <ele>39.3</ele>
        <time>2021-05-19T12:15:48Z</time>
      </trkpt>
      <trkpt lat="42.0835400" lon="-8.8905280">
        <ele>39.3</ele>
        <time>2021-05-19T12:15:49Z</time>
      </trkpt>
      <trkpt lat="42.0835540" lon="-8.8905320">
        <ele>39.3</ele>
        <time>2021-05-19T12:15:50Z</time>
      </trkpt>
      <trkpt lat="42.0835660" lon="-8.8905300">
        <ele>39.3</ele>
        <time>2021-05-19T12:15:51Z</time>
      </trkpt>
      <trkpt lat="42.0835780" lon="-8.8905230">
        <ele>39.3</ele>
        <time>2021-05-19T12:15:52Z</time>
      </trkpt>
      <trkpt lat="42.0835880" lon="-8.8905160">
        <ele>39.3</ele>
        <time>2021-05-19T12:15:53Z</time>
      </trkpt>
      <trkpt lat="42.0836030" lon="-8.8905200">
        <ele>39.2</ele>
        <time>2021-05-19T12:15:54Z</time>
      </trkpt>
      <trkpt lat="42.0836120" lon="-8.8905160">
        <ele>39.2</ele>
        <time>2021-05-19T12:15:55Z</time>
      </trkpt>
      <trkpt lat="42.0836240" lon="-8.8905080">
        <ele>39.2</ele>
        <time>2021-05-19T12:15:56Z</time>
      </trkpt>
      <trkpt lat="42.0836320" lon="-8.8905030">
        <ele>39.2</ele>
        <time>2021-05-19T12:15:57Z</time>
      </trkpt>
      <trkpt lat="42.0836440" lon="-8.8904990">
        <ele>39.2</ele>
        <time>2021-05-19T12:15:59Z</time>
      </trkpt>
      <trkpt lat="42.0836520" lon="-8.8904980">
        <ele>39.2</ele>
        <time>2021-05-19T12:16:00Z</time>
      </trkpt>
      <trkpt lat="42.0836700" lon="-8.8904960">
        <ele>39.2</ele>
        <time>2021-05-19T12:16:01Z</time>
      </trkpt>
      <trkpt lat="42.0836790" lon="-8.8904970">
        <ele>39.2</ele>
        <time>2021-05-19T12:16:02Z</time>
      </trkpt>
      <trkpt lat="42.0836880" lon="-8.8904980">
        <ele>39.2</ele>
        <time>2021-05-19T12:16:03Z</time>
      </trkpt>
      <trkpt lat="42.0837080" lon="-8.8905130">
        <ele>39.2</ele>
        <time>2021-05-19T12:16:04Z</time>
      </trkpt>
      <trkpt lat="42.0837160" lon="-8.8905190">
        <ele>39.1</ele>
        <time>2021-05-19T12:16:05Z</time>
      </trkpt>
      <trkpt lat="42.0837230" lon="-8.8905250">
        <ele>39.1</ele>
        <time>2021-05-19T12:16:06Z</time>
      </trkpt>
      <trkpt lat="42.0837320" lon="-8.8905330">
        <ele>39.1</ele>
        <time>2021-05-19T12:16:07Z</time>
      </trkpt>
      <trkpt lat="42.0837410" lon="-8.8905430">
        <ele>39.1</ele>
        <time>2021-05-19T12:16:08Z</time>
      </trkpt>
      <trkpt lat="42.0837430" lon="-8.8905500">
        <ele>39.1</ele>
        <time>2021-05-19T12:16:09Z</time>
      </trkpt>
      <trkpt lat="42.0837470" lon="-8.8905570">
        <ele>39.1</ele>
        <time>2021-05-19T12:16:10Z</time>
      </trkpt>
      <trkpt lat="42.0837560" lon="-8.8905690">
        <ele>39.1</ele>
        <time>2021-05-19T12:16:11Z</time>
      </trkpt>
      <trkpt lat="42.0837670" lon="-8.8905710">
        <ele>39.1</ele>
        <time>2021-05-19T12:16:12Z</time>
      </trkpt>
      <trkpt lat="42.0837770" lon="-8.8905750">
        <ele>39.1</ele>
        <time>2021-05-19T12:16:13Z</time>
      </trkpt>
      <trkpt lat="42.0837930" lon="-8.8905870">
        <ele>39.1</ele>
        <time>2021-05-19T12:16:14Z</time>
      </trkpt>
      <trkpt lat="42.0838050" lon="-8.8906000">
        <ele>39.1</ele>
        <time>2021-05-19T12:16:15Z</time>
      </trkpt>
      <trkpt lat="42.0838150" lon="-8.8906090">
        <ele>39.0</ele>
        <time>2021-05-19T12:16:16Z</time>
      </trkpt>
      <trkpt lat="42.0838280" lon="-8.8906110">
        <ele>39.0</ele>
        <time>2021-05-19T12:16:17Z</time>
      </trkpt>
      <trkpt lat="42.0838390" lon="-8.8906120">
        <ele>39.0</ele>
        <time>2021-05-19T12:16:18Z</time>
      </trkpt>
      <trkpt lat="42.0838450" lon="-8.8906080">
        <ele>39.0</ele>
        <time>2021-05-19T12:16:19Z</time>
      </trkpt>
      <trkpt lat="42.0838560" lon="-8.8906070">
        <ele>39.0</ele>
        <time>2021-05-19T12:16:20Z</time>
      </trkpt>
      <trkpt lat="42.0838650" lon="-8.8906040">
        <ele>39.0</ele>
        <time>2021-05-19T12:16:21Z</time>
      </trkpt>
      <trkpt lat="42.0838710" lon="-8.8905950">
        <ele>39.0</ele>
        <time>2021-05-19T12:16:22Z</time>
      </trkpt>
      <trkpt lat="42.0838910" lon="-8.8905830">
        <ele>39.0</ele>
        <time>2021-05-19T12:16:23Z</time>
      </trkpt>
      <trkpt lat="42.0838990" lon="-8.8905770">
        <ele>39.0</ele>
        <time>2021-05-19T12:16:24Z</time>
      </trkpt>
      <trkpt lat="42.0839070" lon="-8.8905720">
        <ele>38.9</ele>
        <time>2021-05-19T12:16:25Z</time>
      </trkpt>
      <trkpt lat="42.0839190" lon="-8.8905620">
        <ele>38.9</ele>
        <time>2021-05-19T12:16:26Z</time>
      </trkpt>
      <trkpt lat="42.0839320" lon="-8.8905550">
        <ele>38.9</ele>
        <time>2021-05-19T12:16:27Z</time>
      </trkpt>
      <trkpt lat="42.0839420" lon="-8.8905460">
        <ele>38.9</ele>
        <time>2021-05-19T12:16:28Z</time>
      </trkpt>
      <trkpt lat="42.0839480" lon="-8.8905330">
        <ele>38.9</ele>
        <time>2021-05-19T12:16:29Z</time>
      </trkpt>
      <trkpt lat="42.0839610" lon="-8.8905330">
        <ele>38.9</ele>
        <time>2021-05-19T12:16:30Z</time>
      </trkpt>
      <trkpt lat="42.0839760" lon="-8.8905300">
        <ele>38.9</ele>
        <time>2021-05-19T12:16:31Z</time>
      </trkpt>
      <trkpt lat="42.0839880" lon="-8.8905270">
        <ele>38.9</ele>
        <time>2021-05-19T12:16:32Z</time>
      </trkpt>
      <trkpt lat="42.0840090" lon="-8.8905290">
        <ele>38.8</ele>
        <time>2021-05-19T12:16:33Z</time>
      </trkpt>
      <trkpt lat="42.0840180" lon="-8.8905280">
        <ele>38.8</ele>
        <time>2021-05-19T12:16:34Z</time>
      </trkpt>
      <trkpt lat="42.0840280" lon="-8.8905270">
        <ele>38.8</ele>
        <time>2021-05-19T12:16:35Z</time>
      </trkpt>
      <trkpt lat="42.0840500" lon="-8.8905170">
        <ele>38.8</ele>
        <time>2021-05-19T12:16:36Z</time>
      </trkpt>
      <trkpt lat="42.0840610" lon="-8.8905180">
        <ele>38.8</ele>
        <time>2021-05-19T12:16:37Z</time>
      </trkpt>
      <trkpt lat="42.0840710" lon="-8.8905180">
        <ele>38.8</ele>
        <time>2021-05-19T12:16:38Z</time>
      </trkpt>
      <trkpt lat="42.0840910" lon="-8.8905290">
        <ele>38.8</ele>
        <time>2021-05-19T12:16:39Z</time>
      </trkpt>
      <trkpt lat="42.0841000" lon="-8.8905310">
        <ele>38.7</ele>
        <time>2021-05-19T12:16:40Z</time>
      </trkpt>
      <trkpt lat="42.0841090" lon="-8.8905330">
        <ele>38.7</ele>
        <time>2021-05-19T12:16:41Z</time>
      </trkpt>
      <trkpt lat="42.0841210" lon="-8.8905350">
        <ele>38.7</ele>
        <time>2021-05-19T12:16:42Z</time>
      </trkpt>
      <trkpt lat="42.0841310" lon="-8.8905380">
        <ele>38.7</ele>
        <time>2021-05-19T12:16:43Z</time>
      </trkpt>
      <trkpt lat="42.0841430" lon="-8.8905410">
        <ele>38.7</ele>
        <time>2021-05-19T12:16:44Z</time>
      </trkpt>
      <trkpt lat="42.0841540" lon="-8.8905430">
        <ele>38.7</ele>
        <time>2021-05-19T12:16:45Z</time>
      </trkpt>
      <trkpt lat="42.0841700" lon="-8.8905470">
        <ele>38.7</ele>
        <time>2021-05-19T12:16:46Z</time>
      </trkpt>
      <trkpt lat="42.0841870" lon="-8.8905500">
        <ele>38.6</ele>
        <time>2021-05-19T12:16:47Z</time>
      </trkpt>
      <trkpt lat="42.0841970" lon="-8.8905520">
        <ele>38.6</ele>
        <time>2021-05-19T12:16:48Z</time>
      </trkpt>
      <trkpt lat="42.0842060" lon="-8.8905540">
        <ele>38.6</ele>
        <time>2021-05-19T12:16:49Z</time>
      </trkpt>
      <trkpt lat="42.0842230" lon="-8.8905560">
        <ele>38.6</ele>
        <time>2021-05-19T12:16:50Z</time>
      </trkpt>
      <trkpt lat="42.0842370" lon="-8.8905560">
        <ele>38.6</ele>
        <time>2021-05-19T12:16:51Z</time>
      </trkpt>
      <trkpt lat="42.0842470" lon="-8.8905530">
        <ele>38.6</ele>
        <time>2021-05-19T12:16:52Z</time>
      </trkpt>
      <trkpt lat="42.0842660" lon="-8.8905590">
        <ele>38.6</ele>
        <time>2021-05-19T12:16:53Z</time>
      </trkpt>
      <trkpt lat="42.0842810" lon="-8.8905650">
        <ele>38.5</ele>
        <time>2021-05-19T12:16:54Z</time>
      </trkpt>
      <trkpt lat="42.0842940" lon="-8.8905700">
        <ele>38.5</ele>
        <time>2021-05-19T12:16:55Z</time>
      </trkpt>
      <trkpt lat="42.0843020" lon="-8.8905770">
        <ele>38.5</ele>
        <time>2021-05-19T12:16:56Z</time>
      </trkpt>
      <trkpt lat="42.0843100" lon="-8.8905860">
        <ele>38.5</ele>
        <time>2021-05-19T12:16:57Z</time>
      </trkpt>
      <trkpt lat="42.0843230" lon="-8.8905910">
        <ele>38.5</ele>
        <time>2021-05-19T12:16:58Z</time>
      </trkpt>
      <trkpt lat="42.0843360" lon="-8.8905960">
        <ele>38.5</ele>
        <time>2021-05-19T12:16:59Z</time>
      </trkpt>
      <trkpt lat="42.0843520" lon="-8.8905990">
        <ele>38.4</ele>
        <time>2021-05-19T12:17:00Z</time>
      </trkpt>
      <trkpt lat="42.0843650" lon="-8.8906020">
        <ele>38.4</ele>
        <time>2021-05-19T12:17:01Z</time>
      </trkpt>
      <trkpt lat="42.0843780" lon="-8.8906000">
        <ele>38.4</ele>
        <time>2021-05-19T12:17:02Z</time>
      </trkpt>
      <trkpt lat="42.0843870" lon="-8.8906020">
        <ele>38.4</ele>
        <time>2021-05-19T12:17:03Z</time>
      </trkpt>
      <trkpt lat="42.0844020" lon="-8.8906050">
        <ele>38.4</ele>
        <time>2021-05-19T12:17:04Z</time>
      </trkpt>
      <trkpt lat="42.0844130" lon="-8.8906100">
        <ele>38.4</ele>
        <time>2021-05-19T12:17:05Z</time>
      </trkpt>
      <trkpt lat="42.0844240" lon="-8.8906080">
        <ele>38.3</ele>
        <time>2021-05-19T12:17:06Z</time>
      </trkpt>
      <trkpt lat="42.0844440" lon="-8.8906140">
        <ele>38.3</ele>
        <time>2021-05-19T12:17:07Z</time>
      </trkpt>
      <trkpt lat="42.0844530" lon="-8.8906150">
        <ele>38.3</ele>
        <time>2021-05-19T12:17:08Z</time>
      </trkpt>
      <trkpt lat="42.0844670" lon="-8.8906220">
        <ele>38.3</ele>
        <time>2021-05-19T12:17:09Z</time>
      </trkpt>
      <trkpt lat="42.0844790" lon="-8.8906230">
        <ele>38.3</ele>
        <time>2021-05-19T12:17:10Z</time>
      </trkpt>
      <trkpt lat="42.0844890" lon="-8.8906250">
        <ele>38.3</ele>
        <time>2021-05-19T12:17:11Z</time>
      </trkpt>
      <trkpt lat="42.0844990" lon="-8.8906300">
        <ele>38.2</ele>
        <time>2021-05-19T12:17:12Z</time>
      </trkpt>
      <trkpt lat="42.0845120" lon="-8.8906380">
        <ele>38.2</ele>
        <time>2021-05-19T12:17:13Z</time>
      </trkpt>
      <trkpt lat="42.0845340" lon="-8.8906440">
        <ele>38.2</ele>
        <time>2021-05-19T12:17:14Z</time>
      </trkpt>
      <trkpt lat="42.0845410" lon="-8.8906470">
        <ele>38.2</ele>
        <time>2021-05-19T12:17:15Z</time>
      </trkpt>
      <trkpt lat="42.0845490" lon="-8.8906510">
        <ele>38.2</ele>
        <time>2021-05-19T12:17:16Z</time>
      </trkpt>
      <trkpt lat="42.0845640" lon="-8.8906570">
        <ele>38.2</ele>
        <time>2021-05-19T12:17:17Z</time>
      </trkpt>
      <trkpt lat="42.0845770" lon="-8.8906580">
        <ele>38.1</ele>
        <time>2021-05-19T12:17:18Z</time>
      </trkpt>
      <trkpt lat="42.0845870" lon="-8.8906620">
        <ele>38.1</ele>
        <time>2021-05-19T12:17:19Z</time>
      </trkpt>
      <trkpt lat="42.0846080" lon="-8.8906710">
        <ele>38.1</ele>
        <time>2021-05-19T12:17:20Z</time>
      </trkpt>
      <trkpt lat="42.0846200" lon="-8.8906730">
        <ele>38.1</ele>
        <time>2021-05-19T12:17:21Z</time>
      </trkpt>
      <trkpt lat="42.0846370" lon="-8.8906820">
        <ele>38.0</ele>
        <time>2021-05-19T12:17:22Z</time>
      </trkpt>
      <trkpt lat="42.0846520" lon="-8.8906850">
        <ele>38.0</ele>
        <time>2021-05-19T12:17:23Z</time>
      </trkpt>
      <trkpt lat="42.0846640" lon="-8.8906920">
        <ele>38.0</ele>
        <time>2021-05-19T12:17:24Z</time>
      </trkpt>
      <trkpt lat="42.0846880" lon="-8.8907030">
        <ele>38.0</ele>
        <time>2021-05-19T12:17:25Z</time>
      </trkpt>
      <trkpt lat="42.0846970" lon="-8.8907070">
        <ele>37.9</ele>
        <time>2021-05-19T12:17:26Z</time>
      </trkpt>
      <trkpt lat="42.0847070" lon="-8.8907100">
        <ele>37.9</ele>
        <time>2021-05-19T12:17:27Z</time>
      </trkpt>
      <trkpt lat="42.0847210" lon="-8.8907120">
        <ele>37.9</ele>
        <time>2021-05-19T12:17:28Z</time>
      </trkpt>
      <trkpt lat="42.0847370" lon="-8.8907180">
        <ele>37.9</ele>
        <time>2021-05-19T12:17:29Z</time>
      </trkpt>
      <trkpt lat="42.0847440" lon="-8.8907230">
        <ele>37.9</ele>
        <time>2021-05-19T12:17:30Z</time>
      </trkpt>
      <trkpt lat="42.0847560" lon="-8.8907310">
        <ele>37.9</ele>
        <time>2021-05-19T12:17:31Z</time>
      </trkpt>
      <trkpt lat="42.0847650" lon="-8.8907330">
        <ele>37.8</ele>
        <time>2021-05-19T12:17:32Z</time>
      </trkpt>
      <trkpt lat="42.0847800" lon="-8.8907330">
        <ele>37.8</ele>
        <time>2021-05-19T12:17:33Z</time>
      </trkpt>
      <trkpt lat="42.0847990" lon="-8.8907460">
        <ele>37.8</ele>
        <time>2021-05-19T12:17:34Z</time>
      </trkpt>
      <trkpt lat="42.0848200" lon="-8.8907520">
        <ele>37.7</ele>
        <time>2021-05-19T12:17:35Z</time>
      </trkpt>
      <trkpt lat="42.0848280" lon="-8.8907530">
        <ele>37.7</ele>
        <time>2021-05-19T12:17:36Z</time>
      </trkpt>
      <trkpt lat="42.0848350" lon="-8.8907540">
        <ele>37.7</ele>
        <time>2021-05-19T12:17:37Z</time>
      </trkpt>
      <trkpt lat="42.0848450" lon="-8.8907700">
        <ele>37.7</ele>
        <time>2021-05-19T12:17:38Z</time>
      </trkpt>
      <trkpt lat="42.0848490" lon="-8.8907770">
        <ele>37.7</ele>
        <time>2021-05-19T12:17:39Z</time>
      </trkpt>
      <trkpt lat="42.0848520" lon="-8.8907840">
        <ele>37.7</ele>
        <time>2021-05-19T12:17:40Z</time>
      </trkpt>
      <trkpt lat="42.0848560" lon="-8.8907910">
        <ele>37.7</ele>
        <time>2021-05-19T12:17:41Z</time>
      </trkpt>
      <trkpt lat="42.0848600" lon="-8.8907980">
        <ele>37.7</ele>
        <time>2021-05-19T12:17:42Z</time>
      </trkpt>
      <trkpt lat="42.0848790" lon="-8.8907880">
        <ele>37.6</ele>
        <time>2021-05-19T12:17:43Z</time>
      </trkpt>
      <trkpt lat="42.0848920" lon="-8.8907830">
        <ele>37.6</ele>
        <time>2021-05-19T12:17:44Z</time>
      </trkpt>
      <trkpt lat="42.0848940" lon="-8.8907830">
        <ele>37.6</ele>
        <time>2021-05-19T12:17:45Z</time>
      </trkpt>
      <trkpt lat="42.0849130" lon="-8.8907930">
        <ele>37.6</ele>
        <time>2021-05-19T12:17:46Z</time>
      </trkpt>
      <trkpt lat="42.0849240" lon="-8.8907900">
        <ele>37.6</ele>
        <time>2021-05-19T12:17:47Z</time>
      </trkpt>
      <trkpt lat="42.0849390" lon="-8.8907930">
        <ele>37.6</ele>
        <time>2021-05-19T12:17:48Z</time>
      </trkpt>
      <trkpt lat="42.0849520" lon="-8.8907930">
        <ele>37.5</ele>
        <time>2021-05-19T12:17:49Z</time>
      </trkpt>
      <trkpt lat="42.0849720" lon="-8.8907960">
        <ele>37.5</ele>
        <time>2021-05-19T12:17:50Z</time>
      </trkpt>
      <trkpt lat="42.0849820" lon="-8.8907960">
        <ele>37.5</ele>
        <time>2021-05-19T12:17:51Z</time>
      </trkpt>
      <trkpt lat="42.0849910" lon="-8.8907950">
        <ele>37.5</ele>
        <time>2021-05-19T12:17:52Z</time>
      </trkpt>
      <trkpt lat="42.0850000" lon="-8.8907920">
        <ele>37.5</ele>
        <time>2021-05-19T12:17:53Z</time>
      </trkpt>
      <trkpt lat="42.0850150" lon="-8.8907920">
        <ele>37.5</ele>
        <time>2021-05-19T12:17:54Z</time>
      </trkpt>
      <trkpt lat="42.0850270" lon="-8.8908030">
        <ele>37.4</ele>
        <time>2021-05-19T12:17:55Z</time>
      </trkpt>
      <trkpt lat="42.0850400" lon="-8.8908010">
        <ele>37.4</ele>
        <time>2021-05-19T12:17:56Z</time>
      </trkpt>
      <trkpt lat="42.0850520" lon="-8.8908010">
        <ele>37.4</ele>
        <time>2021-05-19T12:17:57Z</time>
      </trkpt>
      <trkpt lat="42.0850590" lon="-8.8908050">
        <ele>37.4</ele>
        <time>2021-05-19T12:17:58Z</time>
      </trkpt>
      <trkpt lat="42.0850810" lon="-8.8908110">
        <ele>37.4</ele>
        <time>2021-05-19T12:17:59Z</time>
      </trkpt>
      <trkpt lat="42.0850880" lon="-8.8908130">
        <ele>37.4</ele>
        <time>2021-05-19T12:18:00Z</time>
      </trkpt>
      <trkpt lat="42.0850960" lon="-8.8908160">
        <ele>37.4</ele>
        <time>2021-05-19T12:18:01Z</time>
      </trkpt>
      <trkpt lat="42.0851040" lon="-8.8908200">
        <ele>37.4</ele>
        <time>2021-05-19T12:18:02Z</time>
      </trkpt>
      <trkpt lat="42.0851130" lon="-8.8908260">
        <ele>37.3</ele>
        <time>2021-05-19T12:18:04Z</time>
      </trkpt>
      <trkpt lat="42.0851290" lon="-8.8908320">
        <ele>37.3</ele>
        <time>2021-05-19T12:18:05Z</time>
      </trkpt>
      <trkpt lat="42.0851410" lon="-8.8908320">
        <ele>37.3</ele>
        <time>2021-05-19T12:18:06Z</time>
      </trkpt>
      <trkpt lat="42.0851650" lon="-8.8908380">
        <ele>37.3</ele>
        <time>2021-05-19T12:18:07Z</time>
      </trkpt>
      <trkpt lat="42.0851810" lon="-8.8908430">
        <ele>37.3</ele>
        <time>2021-05-19T12:18:08Z</time>
      </trkpt>
      <trkpt lat="42.0851970" lon="-8.8908500">
        <ele>37.2</ele>
        <time>2021-05-19T12:18:09Z</time>
      </trkpt>
      <trkpt lat="42.0852150" lon="-8.8908540">
        <ele>37.2</ele>
        <time>2021-05-19T12:18:10Z</time>
      </trkpt>
      <trkpt lat="42.0852330" lon="-8.8908550">
        <ele>37.2</ele>
        <time>2021-05-19T12:18:11Z</time>
      </trkpt>
      <trkpt lat="42.0852500" lon="-8.8908590">
        <ele>37.2</ele>
        <time>2021-05-19T12:18:12Z</time>
      </trkpt>
      <trkpt lat="42.0852630" lon="-8.8908670">
        <ele>37.2</ele>
        <time>2021-05-19T12:18:13Z</time>
      </trkpt>
      <trkpt lat="42.0852740" lon="-8.8908680">
        <ele>37.2</ele>
        <time>2021-05-19T12:18:14Z</time>
      </trkpt>
      <trkpt lat="42.0852850" lon="-8.8908710">
        <ele>37.1</ele>
        <time>2021-05-19T12:18:15Z</time>
      </trkpt>
      <trkpt lat="42.0852980" lon="-8.8908710">
        <ele>37.1</ele>
        <time>2021-05-19T12:18:16Z</time>
      </trkpt>
      <trkpt lat="42.0853100" lon="-8.8908740">
        <ele>37.1</ele>
        <time>2021-05-19T12:18:17Z</time>
      </trkpt>
      <trkpt lat="42.0853240" lon="-8.8908840">
        <ele>37.1</ele>
        <time>2021-05-19T12:18:18Z</time>
      </trkpt>
      <trkpt lat="42.0853380" lon="-8.8908870">
        <ele>37.1</ele>
        <time>2021-05-19T12:18:19Z</time>
      </trkpt>
      <trkpt lat="42.0853510" lon="-8.8908970">
        <ele>37.1</ele>
        <time>2021-05-19T12:18:20Z</time>
      </trkpt>
      <trkpt lat="42.0853590" lon="-8.8909000">
        <ele>37.0</ele>
        <time>2021-05-19T12:18:21Z</time>
      </trkpt>
      <trkpt lat="42.0853730" lon="-8.8909030">
        <ele>37.0</ele>
        <time>2021-05-19T12:18:22Z</time>
      </trkpt>
      <trkpt lat="42.0853790" lon="-8.8909080">
        <ele>37.0</ele>
        <time>2021-05-19T12:18:23Z</time>
      </trkpt>
      <trkpt lat="42.0853890" lon="-8.8909160">
        <ele>37.0</ele>
        <time>2021-05-19T12:18:24Z</time>
      </trkpt>
      <trkpt lat="42.0853940" lon="-8.8909180">
        <ele>37.0</ele>
        <time>2021-05-19T12:18:25Z</time>
      </trkpt>
      <trkpt lat="42.0854120" lon="-8.8909240">
        <ele>37.0</ele>
        <time>2021-05-19T12:18:26Z</time>
      </trkpt>
      <trkpt lat="42.0854270" lon="-8.8909280">
        <ele>36.9</ele>
        <time>2021-05-19T12:18:27Z</time>
      </trkpt>
      <trkpt lat="42.0854410" lon="-8.8909330">
        <ele>36.9</ele>
        <time>2021-05-19T12:18:28Z</time>
      </trkpt>
      <trkpt lat="42.0854490" lon="-8.8909340">
        <ele>36.9</ele>
        <time>2021-05-19T12:18:29Z</time>
      </trkpt>
      <trkpt lat="42.0854630" lon="-8.8909380">
        <ele>36.9</ele>
        <time>2021-05-19T12:18:30Z</time>
      </trkpt>
      <trkpt lat="42.0854720" lon="-8.8909480">
        <ele>36.9</ele>
        <time>2021-05-19T12:18:31Z</time>
      </trkpt>
      <trkpt lat="42.0854860" lon="-8.8909450">
        <ele>36.8</ele>
        <time>2021-05-19T12:18:32Z</time>
      </trkpt>
      <trkpt lat="42.0855010" lon="-8.8909440">
        <ele>36.8</ele>
        <time>2021-05-19T12:18:33Z</time>
      </trkpt>
      <trkpt lat="42.0855130" lon="-8.8909460">
        <ele>36.8</ele>
        <time>2021-05-19T12:18:34Z</time>
      </trkpt>
      <trkpt lat="42.0855250" lon="-8.8909510">
        <ele>36.8</ele>
        <time>2021-05-19T12:18:35Z</time>
      </trkpt>
      <trkpt lat="42.0855350" lon="-8.8909600">
        <ele>36.8</ele>
        <time>2021-05-19T12:18:36Z</time>
      </trkpt>
      <trkpt lat="42.0855500" lon="-8.8909710">
        <ele>36.7</ele>
        <time>2021-05-19T12:18:37Z</time>
      </trkpt>
      <trkpt lat="42.0855550" lon="-8.8909720">
        <ele>36.7</ele>
        <time>2021-05-19T12:18:38Z</time>
      </trkpt>
      <trkpt lat="42.0855680" lon="-8.8909800">
        <ele>36.7</ele>
        <time>2021-05-19T12:18:39Z</time>
      </trkpt>
      <trkpt lat="42.0855790" lon="-8.8909830">
        <ele>36.7</ele>
        <time>2021-05-19T12:18:40Z</time>
      </trkpt>
      <trkpt lat="42.0855840" lon="-8.8909840">
        <ele>36.6</ele>
        <time>2021-05-19T12:18:41Z</time>
      </trkpt>
      <trkpt lat="42.0855870" lon="-8.8909870">
        <ele>36.6</ele>
        <time>2021-05-19T12:18:42Z</time>
      </trkpt>
      <trkpt lat="42.0855880" lon="-8.8909840">
        <ele>36.6</ele>
        <time>2021-05-19T12:18:43Z</time>
      </trkpt>
      <trkpt lat="42.0855870" lon="-8.8909950">
        <ele>36.6</ele>
        <time>2021-05-19T12:18:44Z</time>
      </trkpt>
      <trkpt lat="42.0855930" lon="-8.8909980">
        <ele>36.6</ele>
        <time>2021-05-19T12:18:45Z</time>
      </trkpt>
      <trkpt lat="42.0855850" lon="-8.8910110">
        <ele>36.6</ele>
        <time>2021-05-19T12:18:46Z</time>
      </trkpt>
      <trkpt lat="42.0855900" lon="-8.8910160">
        <ele>36.6</ele>
        <time>2021-05-19T12:18:47Z</time>
      </trkpt>
      <trkpt lat="42.0855940" lon="-8.8910230">
        <ele>36.5</ele>
        <time>2021-05-19T12:18:48Z</time>
      </trkpt>
      <trkpt lat="42.0855930" lon="-8.8910260">
        <ele>36.5</ele>
        <time>2021-05-19T12:18:49Z</time>
      </trkpt>
      <trkpt lat="42.0856000" lon="-8.8910240">
        <ele>36.5</ele>
        <time>2021-05-19T12:18:50Z</time>
      </trkpt>
      <trkpt lat="42.0856030" lon="-8.8910220">
        <ele>36.5</ele>
        <time>2021-05-19T12:18:51Z</time>
      </trkpt>
      <trkpt lat="42.0856070" lon="-8.8910230">
        <ele>36.5</ele>
        <time>2021-05-19T12:18:52Z</time>
      </trkpt>
      <trkpt lat="42.0856090" lon="-8.8910200">
        <ele>36.5</ele>
        <time>2021-05-19T12:18:53Z</time>
      </trkpt>
      <trkpt lat="42.0856120" lon="-8.8910200">
        <ele>36.5</ele>
        <time>2021-05-19T12:18:54Z</time>
      </trkpt>
      <trkpt lat="42.0856170" lon="-8.8910190">
        <ele>36.5</ele>
        <time>2021-05-19T12:18:55Z</time>
      </trkpt>
      <trkpt lat="42.0856220" lon="-8.8910230">
        <ele>36.4</ele>
        <time>2021-05-19T12:18:56Z</time>
      </trkpt>
      <trkpt lat="42.0856280" lon="-8.8910270">
        <ele>36.4</ele>
        <time>2021-05-19T12:18:57Z</time>
      </trkpt>
      <trkpt lat="42.0856340" lon="-8.8910230">
        <ele>36.4</ele>
        <time>2021-05-19T12:18:58Z</time>
      </trkpt>
      <trkpt lat="42.0856330" lon="-8.8910210">
        <ele>36.4</ele>
        <time>2021-05-19T12:18:59Z</time>
      </trkpt>
      <trkpt lat="42.0856340" lon="-8.8910130">
        <ele>36.4</ele>
        <time>2021-05-19T12:19:00Z</time>
      </trkpt>
      <trkpt lat="42.0856300" lon="-8.8909990">
        <ele>36.3</ele>
        <time>2021-05-19T12:19:01Z</time>
      </trkpt>
      <trkpt lat="42.0856300" lon="-8.8910020">
        <ele>36.3</ele>
        <time>2021-05-19T12:19:02Z</time>
      </trkpt>
      <trkpt lat="42.0856250" lon="-8.8910220">
        <ele>36.3</ele>
        <time>2021-05-19T12:19:03Z</time>
      </trkpt>
      <trkpt lat="42.0856340" lon="-8.8910300">
        <ele>36.3</ele>
        <time>2021-05-19T12:19:04Z</time>
      </trkpt>
      <trkpt lat="42.0856400" lon="-8.8910430">
        <ele>36.2</ele>
        <time>2021-05-19T12:19:05Z</time>
      </trkpt>
      <trkpt lat="42.0856550" lon="-8.8910390">
        <ele>36.2</ele>
        <time>2021-05-19T12:19:06Z</time>
      </trkpt>
      <trkpt lat="42.0856680" lon="-8.8910310">
        <ele>36.2</ele>
        <time>2021-05-19T12:19:07Z</time>
      </trkpt>
      <trkpt lat="42.0856830" lon="-8.8910330">
        <ele>36.1</ele>
        <time>2021-05-19T12:19:08Z</time>
      </trkpt>
      <trkpt lat="42.0856930" lon="-8.8910400">
        <ele>36.1</ele>
        <time>2021-05-19T12:19:09Z</time>
      </trkpt>
      <trkpt lat="42.0856990" lon="-8.8910440">
        <ele>36.1</ele>
        <time>2021-05-19T12:19:10Z</time>
      </trkpt>
      <trkpt lat="42.0857210" lon="-8.8910600">
        <ele>36.0</ele>
        <time>2021-05-19T12:19:11Z</time>
      </trkpt>
      <trkpt lat="42.0857340" lon="-8.8910710">
        <ele>36.0</ele>
        <time>2021-05-19T12:19:13Z</time>
      </trkpt>
      <trkpt lat="42.0857440" lon="-8.8910760">
        <ele>36.0</ele>
        <time>2021-05-19T12:19:14Z</time>
      </trkpt>
      <trkpt lat="42.0857520" lon="-8.8910750">
        <ele>35.9</ele>
        <time>2021-05-19T12:19:15Z</time>
      </trkpt>
      <trkpt lat="42.0857630" lon="-8.8910810">
        <ele>35.9</ele>
        <time>2021-05-19T12:19:16Z</time>
      </trkpt>
      <trkpt lat="42.0857720" lon="-8.8910840">
        <ele>35.9</ele>
        <time>2021-05-19T12:19:17Z</time>
      </trkpt>
      <trkpt lat="42.0857800" lon="-8.8910900">
        <ele>35.9</ele>
        <time>2021-05-19T12:19:18Z</time>
      </trkpt>
      <trkpt lat="42.0857900" lon="-8.8910920">
        <ele>35.8</ele>
        <time>2021-05-19T12:19:19Z</time>
      </trkpt>
      <trkpt lat="42.0858040" lon="-8.8910990">
        <ele>35.8</ele>
        <time>2021-05-19T12:19:20Z</time>
      </trkpt>
      <trkpt lat="42.0858160" lon="-8.8911020">
        <ele>35.8</ele>
        <time>2021-05-19T12:19:21Z</time>
      </trkpt>
      <trkpt lat="42.0858280" lon="-8.8911140">
        <ele>35.7</ele>
        <time>2021-05-19T12:19:22Z</time>
      </trkpt>
      <trkpt lat="42.0858440" lon="-8.8911200">
        <ele>35.7</ele>
        <time>2021-05-19T12:19:23Z</time>
      </trkpt>
      <trkpt lat="42.0858540" lon="-8.8911290">
        <ele>35.6</ele>
        <time>2021-05-19T12:19:24Z</time>
      </trkpt>
      <trkpt lat="42.0858670" lon="-8.8911340">
        <ele>35.6</ele>
        <time>2021-05-19T12:19:25Z</time>
      </trkpt>
      <trkpt lat="42.0858740" lon="-8.8911360">
        <ele>35.6</ele>
        <time>2021-05-19T12:19:26Z</time>
      </trkpt>
      <trkpt lat="42.0858940" lon="-8.8911430">
        <ele>35.5</ele>
        <time>2021-05-19T12:19:27Z</time>
      </trkpt>
      <trkpt lat="42.0859040" lon="-8.8911410">
        <ele>35.5</ele>
        <time>2021-05-19T12:19:28Z</time>
      </trkpt>
      <trkpt lat="42.0859150" lon="-8.8911390">
        <ele>35.5</ele>
        <time>2021-05-19T12:19:29Z</time>
      </trkpt>
      <trkpt lat="42.0859270" lon="-8.8911380">
        <ele>35.4</ele>
        <time>2021-05-19T12:19:30Z</time>
      </trkpt>
      <trkpt lat="42.0859390" lon="-8.8911430">
        <ele>35.4</ele>
        <time>2021-05-19T12:19:31Z</time>
      </trkpt>
      <trkpt lat="42.0859490" lon="-8.8911460">
        <ele>35.4</ele>
        <time>2021-05-19T12:19:32Z</time>
      </trkpt>
      <trkpt lat="42.0859570" lon="-8.8911490">
        <ele>35.3</ele>
        <time>2021-05-19T12:19:33Z</time>
      </trkpt>
      <trkpt lat="42.0859620" lon="-8.8911470">
        <ele>35.3</ele>
        <time>2021-05-19T12:19:34Z</time>
      </trkpt>
      <trkpt lat="42.0859830" lon="-8.8911570">
        <ele>35.3</ele>
        <time>2021-05-19T12:19:35Z</time>
      </trkpt>
      <trkpt lat="42.0859950" lon="-8.8911520">
        <ele>35.2</ele>
        <time>2021-05-19T12:19:36Z</time>
      </trkpt>
      <trkpt lat="42.0860140" lon="-8.8911570">
        <ele>35.2</ele>
        <time>2021-05-19T12:19:37Z</time>
      </trkpt>
      <trkpt lat="42.0860290" lon="-8.8911610">
        <ele>35.1</ele>
        <time>2021-05-19T12:19:38Z</time>
      </trkpt>
      <trkpt lat="42.0860470" lon="-8.8911620">
        <ele>35.1</ele>
        <time>2021-05-19T12:19:39Z</time>
      </trkpt>
      <trkpt lat="42.0860680" lon="-8.8911600">
        <ele>35.0</ele>
        <time>2021-05-19T12:19:40Z</time>
      </trkpt>
      <trkpt lat="42.0860770" lon="-8.8911600">
        <ele>35.0</ele>
        <time>2021-05-19T12:19:41Z</time>
      </trkpt>
      <trkpt lat="42.0860850" lon="-8.8911590">
        <ele>35.0</ele>
        <time>2021-05-19T12:19:42Z</time>
      </trkpt>
      <trkpt lat="42.0861000" lon="-8.8911600">
        <ele>34.9</ele>
        <time>2021-05-19T12:19:43Z</time>
      </trkpt>
      <trkpt lat="42.0861120" lon="-8.8911680">
        <ele>34.9</ele>
        <time>2021-05-19T12:19:44Z</time>
      </trkpt>
      <trkpt lat="42.0861270" lon="-8.8911770">
        <ele>34.8</ele>
        <time>2021-05-19T12:19:45Z</time>
      </trkpt>
      <trkpt lat="42.0861410" lon="-8.8911840">
        <ele>34.8</ele>
        <time>2021-05-19T12:19:46Z</time>
      </trkpt>
      <trkpt lat="42.0861610" lon="-8.8911920">
        <ele>34.7</ele>
        <time>2021-05-19T12:19:47Z</time>
      </trkpt>
      <trkpt lat="42.0861690" lon="-8.8911920">
        <ele>34.7</ele>
        <time>2021-05-19T12:19:48Z</time>
      </trkpt>
      <trkpt lat="42.0861770" lon="-8.8911920">
        <ele>34.7</ele>
        <time>2021-05-19T12:19:49Z</time>
      </trkpt>
      <trkpt lat="42.0861980" lon="-8.8911980">
        <ele>34.6</ele>
        <time>2021-05-19T12:19:50Z</time>
      </trkpt>
      <trkpt lat="42.0862070" lon="-8.8912000">
        <ele>34.6</ele>
        <time>2021-05-19T12:19:51Z</time>
      </trkpt>
      <trkpt lat="42.0862150" lon="-8.8912020">
        <ele>34.5</ele>
        <time>2021-05-19T12:19:52Z</time>
      </trkpt>
      <trkpt lat="42.0862270" lon="-8.8912000">
        <ele>34.5</ele>
        <time>2021-05-19T12:19:53Z</time>
      </trkpt>
      <trkpt lat="42.0862430" lon="-8.8912040">
        <ele>34.4</ele>
        <time>2021-05-19T12:19:54Z</time>
      </trkpt>
      <trkpt lat="42.0862530" lon="-8.8912060">
        <ele>34.4</ele>
        <time>2021-05-19T12:19:55Z</time>
      </trkpt>
      <trkpt lat="42.0862690" lon="-8.8912090">
        <ele>34.3</ele>
        <time>2021-05-19T12:19:56Z</time>
      </trkpt>
      <trkpt lat="42.0862790" lon="-8.8912080">
        <ele>34.3</ele>
        <time>2021-05-19T12:19:57Z</time>
      </trkpt>
      <trkpt lat="42.0862930" lon="-8.8912090">
        <ele>34.3</ele>
        <time>2021-05-19T12:19:58Z</time>
      </trkpt>
      <trkpt lat="42.0862990" lon="-8.8912050">
        <ele>34.2</ele>
        <time>2021-05-19T12:20:00Z</time>
      </trkpt>
      <trkpt lat="42.0863120" lon="-8.8912090">
        <ele>34.2</ele>
        <time>2021-05-19T12:20:01Z</time>
      </trkpt>
      <trkpt lat="42.0863300" lon="-8.8912100">
        <ele>34.2</ele>
        <time>2021-05-19T12:20:02Z</time>
      </trkpt>
      <trkpt lat="42.0863440" lon="-8.8912120">
        <ele>34.2</ele>
        <time>2021-05-19T12:20:03Z</time>
      </trkpt>
      <trkpt lat="42.0863630" lon="-8.8912180">
        <ele>34.8</ele>
        <time>2021-05-19T12:20:04Z</time>
      </trkpt>
      <trkpt lat="42.0863770" lon="-8.8912150">
        <ele>34.8</ele>
        <time>2021-05-19T12:20:05Z</time>
      </trkpt>
      <trkpt lat="42.0863880" lon="-8.8912140">
        <ele>34.7</ele>
        <time>2021-05-19T12:20:06Z</time>
      </trkpt>
      <trkpt lat="42.0864000" lon="-8.8912100">
        <ele>34.7</ele>
        <time>2021-05-19T12:20:07Z</time>
      </trkpt>
      <trkpt lat="42.0864110" lon="-8.8912080">
        <ele>34.7</ele>
        <time>2021-05-19T12:20:08Z</time>
      </trkpt>
      <trkpt lat="42.0864250" lon="-8.8912120">
        <ele>34.6</ele>
        <time>2021-05-19T12:20:09Z</time>
      </trkpt>
      <trkpt lat="42.0864370" lon="-8.8912190">
        <ele>34.6</ele>
        <time>2021-05-19T12:20:10Z</time>
      </trkpt>
      <trkpt lat="42.0864570" lon="-8.8912140">
        <ele>34.5</ele>
        <time>2021-05-19T12:20:11Z</time>
      </trkpt>
      <trkpt lat="42.0864710" lon="-8.8912140">
        <ele>34.4</ele>
        <time>2021-05-19T12:20:12Z</time>
      </trkpt>
      <trkpt lat="42.0864910" lon="-8.8912170">
        <ele>34.4</ele>
        <time>2021-05-19T12:20:13Z</time>
      </trkpt>
      <trkpt lat="42.0865000" lon="-8.8912150">
        <ele>34.3</ele>
        <time>2021-05-19T12:20:14Z</time>
      </trkpt>
      <trkpt lat="42.0865090" lon="-8.8912140">
        <ele>34.3</ele>
        <time>2021-05-19T12:20:15Z</time>
      </trkpt>
      <trkpt lat="42.0865300" lon="-8.8912120">
        <ele>34.2</ele>
        <time>2021-05-19T12:20:16Z</time>
      </trkpt>
      <trkpt lat="42.0865380" lon="-8.8912110">
        <ele>34.2</ele>
        <time>2021-05-19T12:20:17Z</time>
      </trkpt>
      <trkpt lat="42.0865460" lon="-8.8912090">
        <ele>34.1</ele>
        <time>2021-05-19T12:20:18Z</time>
      </trkpt>
      <trkpt lat="42.0865700" lon="-8.8912080">
        <ele>34.0</ele>
        <time>2021-05-19T12:20:19Z</time>
      </trkpt>
      <trkpt lat="42.0865810" lon="-8.8912090">
        <ele>34.0</ele>
        <time>2021-05-19T12:20:20Z</time>
      </trkpt>
      <trkpt lat="42.0865920" lon="-8.8912110">
        <ele>34.0</ele>
        <time>2021-05-19T12:20:21Z</time>
      </trkpt>
      <trkpt lat="42.0866060" lon="-8.8912060">
        <ele>33.9</ele>
        <time>2021-05-19T12:20:22Z</time>
      </trkpt>
      <trkpt lat="42.0866240" lon="-8.8912090">
        <ele>33.8</ele>
        <time>2021-05-19T12:20:23Z</time>
      </trkpt>
      <trkpt lat="42.0866480" lon="-8.8912090">
        <ele>33.7</ele>
        <time>2021-05-19T12:20:24Z</time>
      </trkpt>
      <trkpt lat="42.0866580" lon="-8.8912070">
        <ele>33.7</ele>
        <time>2021-05-19T12:20:25Z</time>
      </trkpt>
      <trkpt lat="42.0866670" lon="-8.8912060">
        <ele>33.7</ele>
        <time>2021-05-19T12:20:26Z</time>
      </trkpt>
      <trkpt lat="42.0866980" lon="-8.8912070">
        <ele>33.5</ele>
        <time>2021-05-19T12:20:27Z</time>
      </trkpt>
      <trkpt lat="42.0867080" lon="-8.8912090">
        <ele>33.5</ele>
        <time>2021-05-19T12:20:28Z</time>
      </trkpt>
      <trkpt lat="42.0867240" lon="-8.8912150">
        <ele>33.4</ele>
        <time>2021-05-19T12:20:29Z</time>
      </trkpt>
      <trkpt lat="42.0867390" lon="-8.8912140">
        <ele>33.4</ele>
        <time>2021-05-19T12:20:30Z</time>
      </trkpt>
      <trkpt lat="42.0867590" lon="-8.8912150">
        <ele>33.3</ele>
        <time>2021-05-19T12:20:31Z</time>
      </trkpt>
      <trkpt lat="42.0867670" lon="-8.8912130">
        <ele>33.3</ele>
        <time>2021-05-19T12:20:32Z</time>
      </trkpt>
      <trkpt lat="42.0867760" lon="-8.8912100">
        <ele>33.2</ele>
        <time>2021-05-19T12:20:33Z</time>
      </trkpt>
      <trkpt lat="42.0867920" lon="-8.8912040">
        <ele>33.2</ele>
        <time>2021-05-19T12:20:34Z</time>
      </trkpt>
      <trkpt lat="42.0868030" lon="-8.8912010">
        <ele>33.1</ele>
        <time>2021-05-19T12:20:35Z</time>
      </trkpt>
      <trkpt lat="42.0868270" lon="-8.8911950">
        <ele>33.1</ele>
        <time>2021-05-19T12:20:36Z</time>
      </trkpt>
      <trkpt lat="42.0868350" lon="-8.8911940">
        <ele>33.0</ele>
        <time>2021-05-19T12:20:37Z</time>
      </trkpt>
      <trkpt lat="42.0868420" lon="-8.8911920">
        <ele>33.0</ele>
        <time>2021-05-19T12:20:38Z</time>
      </trkpt>
      <trkpt lat="42.0868620" lon="-8.8911950">
        <ele>32.9</ele>
        <time>2021-05-19T12:20:39Z</time>
      </trkpt>
      <trkpt lat="42.0868720" lon="-8.8911960">
        <ele>32.9</ele>
        <time>2021-05-19T12:20:40Z</time>
      </trkpt>
      <trkpt lat="42.0868830" lon="-8.8911880">
        <ele>32.9</ele>
        <time>2021-05-19T12:20:41Z</time>
      </trkpt>
      <trkpt lat="42.0868960" lon="-8.8911850">
        <ele>32.8</ele>
        <time>2021-05-19T12:20:42Z</time>
      </trkpt>
      <trkpt lat="42.0869050" lon="-8.8911850">
        <ele>32.8</ele>
        <time>2021-05-19T12:20:43Z</time>
      </trkpt>
      <trkpt lat="42.0869260" lon="-8.8911830">
        <ele>32.7</ele>
        <time>2021-05-19T12:20:44Z</time>
      </trkpt>
      <trkpt lat="42.0869340" lon="-8.8911810">
        <ele>32.7</ele>
        <time>2021-05-19T12:20:45Z</time>
      </trkpt>
      <trkpt lat="42.0869430" lon="-8.8911790">
        <ele>32.7</ele>
        <time>2021-05-19T12:20:46Z</time>
      </trkpt>
      <trkpt lat="42.0869650" lon="-8.8911780">
        <ele>32.6</ele>
        <time>2021-05-19T12:20:47Z</time>
      </trkpt>
      <trkpt lat="42.0869750" lon="-8.8911790">
        <ele>32.6</ele>
        <time>2021-05-19T12:20:48Z</time>
      </trkpt>
      <trkpt lat="42.0869860" lon="-8.8911790">
        <ele>32.6</ele>
        <time>2021-05-19T12:20:49Z</time>
      </trkpt>
      <trkpt lat="42.0870050" lon="-8.8911730">
        <ele>32.5</ele>
        <time>2021-05-19T12:20:50Z</time>
      </trkpt>
      <trkpt lat="42.0870190" lon="-8.8911680">
        <ele>32.5</ele>
        <time>2021-05-19T12:20:51Z</time>
      </trkpt>
      <trkpt lat="42.0870380" lon="-8.8911630">
        <ele>32.5</ele>
        <time>2021-05-19T12:20:52Z</time>
      </trkpt>
      <trkpt lat="42.0870470" lon="-8.8911590">
        <ele>32.4</ele>
        <time>2021-05-19T12:20:53Z</time>
      </trkpt>
      <trkpt lat="42.0870560" lon="-8.8911550">
        <ele>32.4</ele>
        <time>2021-05-19T12:20:54Z</time>
      </trkpt>
      <trkpt lat="42.0870730" lon="-8.8911570">
        <ele>32.4</ele>
        <time>2021-05-19T12:20:55Z</time>
      </trkpt>
      <trkpt lat="42.0870860" lon="-8.8911590">
        <ele>32.4</ele>
        <time>2021-05-19T12:20:56Z</time>
      </trkpt>
      <trkpt lat="42.0871030" lon="-8.8911670">
        <ele>32.3</ele>
        <time>2021-05-19T12:20:57Z</time>
      </trkpt>
      <trkpt lat="42.0871190" lon="-8.8911590">
        <ele>32.3</ele>
        <time>2021-05-19T12:20:58Z</time>
      </trkpt>
      <trkpt lat="42.0871330" lon="-8.8911620">
        <ele>32.3</ele>
        <time>2021-05-19T12:20:59Z</time>
      </trkpt>
      <trkpt lat="42.0871400" lon="-8.8911610">
        <ele>32.3</ele>
        <time>2021-05-19T12:21:00Z</time>
      </trkpt>
      <trkpt lat="42.0871500" lon="-8.8911600">
        <ele>32.2</ele>
        <time>2021-05-19T12:21:01Z</time>
      </trkpt>
      <trkpt lat="42.0871680" lon="-8.8911600">
        <ele>32.2</ele>
        <time>2021-05-19T12:21:02Z</time>
      </trkpt>
      <trkpt lat="42.0871770" lon="-8.8911590">
        <ele>32.2</ele>
        <time>2021-05-19T12:21:03Z</time>
      </trkpt>
      <trkpt lat="42.0871850" lon="-8.8911570">
        <ele>32.2</ele>
        <time>2021-05-19T12:21:04Z</time>
      </trkpt>
      <trkpt lat="42.0871930" lon="-8.8911560">
        <ele>32.2</ele>
        <time>2021-05-19T12:21:05Z</time>
      </trkpt>
      <trkpt lat="42.0872120" lon="-8.8911580">
        <ele>32.1</ele>
        <time>2021-05-19T12:21:06Z</time>
      </trkpt>
      <trkpt lat="42.0872240" lon="-8.8911550">
        <ele>32.1</ele>
        <time>2021-05-19T12:21:07Z</time>
      </trkpt>
      <trkpt lat="42.0872400" lon="-8.8911610">
        <ele>32.1</ele>
        <time>2021-05-19T12:21:08Z</time>
      </trkpt>
      <trkpt lat="42.0872530" lon="-8.8911590">
        <ele>32.1</ele>
        <time>2021-05-19T12:21:09Z</time>
      </trkpt>
      <trkpt lat="42.0872700" lon="-8.8911580">
        <ele>32.0</ele>
        <time>2021-05-19T12:21:10Z</time>
      </trkpt>
      <trkpt lat="42.0872810" lon="-8.8911620">
        <ele>32.0</ele>
        <time>2021-05-19T12:21:11Z</time>
      </trkpt>
      <trkpt lat="42.0872920" lon="-8.8911650">
        <ele>32.0</ele>
        <time>2021-05-19T12:21:12Z</time>
      </trkpt>
      <trkpt lat="42.0873050" lon="-8.8911660">
        <ele>32.0</ele>
        <time>2021-05-19T12:21:13Z</time>
      </trkpt>
      <trkpt lat="42.0873140" lon="-8.8911720">
        <ele>32.0</ele>
        <time>2021-05-19T12:21:14Z</time>
      </trkpt>
      <trkpt lat="42.0873280" lon="-8.8911710">
        <ele>32.0</ele>
        <time>2021-05-19T12:21:15Z</time>
      </trkpt>
      <trkpt lat="42.0873350" lon="-8.8911750">
        <ele>32.0</ele>
        <time>2021-05-19T12:21:16Z</time>
      </trkpt>
      <trkpt lat="42.0873460" lon="-8.8911830">
        <ele>32.0</ele>
        <time>2021-05-19T12:21:17Z</time>
      </trkpt>
      <trkpt lat="42.0873580" lon="-8.8911860">
        <ele>32.0</ele>
        <time>2021-05-19T12:21:18Z</time>
      </trkpt>
      <trkpt lat="42.0873760" lon="-8.8911880">
        <ele>32.0</ele>
        <time>2021-05-19T12:21:19Z</time>
      </trkpt>
      <trkpt lat="42.0873880" lon="-8.8911910">
        <ele>31.9</ele>
        <time>2021-05-19T12:21:20Z</time>
      </trkpt>
      <trkpt lat="42.0874000" lon="-8.8911950">
        <ele>31.9</ele>
        <time>2021-05-19T12:21:21Z</time>
      </trkpt>
      <trkpt lat="42.0874080" lon="-8.8912010">
        <ele>31.9</ele>
        <time>2021-05-19T12:21:22Z</time>
      </trkpt>
      <trkpt lat="42.0874300" lon="-8.8912050">
        <ele>31.9</ele>
        <time>2021-05-19T12:21:23Z</time>
      </trkpt>
      <trkpt lat="42.0874390" lon="-8.8912080">
        <ele>31.9</ele>
        <time>2021-05-19T12:21:24Z</time>
      </trkpt>
      <trkpt lat="42.0874470" lon="-8.8912110">
        <ele>31.9</ele>
        <time>2021-05-19T12:21:25Z</time>
      </trkpt>
      <trkpt lat="42.0874620" lon="-8.8912110">
        <ele>31.9</ele>
        <time>2021-05-19T12:21:26Z</time>
      </trkpt>
      <trkpt lat="42.0874760" lon="-8.8912180">
        <ele>31.9</ele>
        <time>2021-05-19T12:21:27Z</time>
      </trkpt>
      <trkpt lat="42.0874920" lon="-8.8912220">
        <ele>31.9</ele>
        <time>2021-05-19T12:21:28Z</time>
      </trkpt>
      <trkpt lat="42.0875070" lon="-8.8912280">
        <ele>31.9</ele>
        <time>2021-05-19T12:21:29Z</time>
      </trkpt>
      <trkpt lat="42.0875100" lon="-8.8912320">
        <ele>31.9</ele>
        <time>2021-05-19T12:21:30Z</time>
      </trkpt>
      <trkpt lat="42.0875220" lon="-8.8912410">
        <ele>31.8</ele>
        <time>2021-05-19T12:21:31Z</time>
      </trkpt>
      <trkpt lat="42.0875340" lon="-8.8912480">
        <ele>31.8</ele>
        <time>2021-05-19T12:21:32Z</time>
      </trkpt>
      <trkpt lat="42.0875540" lon="-8.8912550">
        <ele>31.8</ele>
        <time>2021-05-19T12:21:33Z</time>
      </trkpt>
      <trkpt lat="42.0875620" lon="-8.8912580">
        <ele>31.8</ele>
        <time>2021-05-19T12:21:34Z</time>
      </trkpt>
      <trkpt lat="42.0875690" lon="-8.8912620">
        <ele>31.8</ele>
        <time>2021-05-19T12:21:35Z</time>
      </trkpt>
      <trkpt lat="42.0875780" lon="-8.8912640">
        <ele>31.8</ele>
        <time>2021-05-19T12:21:36Z</time>
      </trkpt>
      <trkpt lat="42.0875920" lon="-8.8912700">
        <ele>31.8</ele>
        <time>2021-05-19T12:21:37Z</time>
      </trkpt>
      <trkpt lat="42.0875980" lon="-8.8912680">
        <ele>31.8</ele>
        <time>2021-05-19T12:21:38Z</time>
      </trkpt>
      <trkpt lat="42.0876150" lon="-8.8912730">
        <ele>31.8</ele>
        <time>2021-05-19T12:21:39Z</time>
      </trkpt>
      <trkpt lat="42.0876290" lon="-8.8912820">
        <ele>31.8</ele>
        <time>2021-05-19T12:21:40Z</time>
      </trkpt>
      <trkpt lat="42.0876360" lon="-8.8912820">
        <ele>31.8</ele>
        <time>2021-05-19T12:21:41Z</time>
      </trkpt>
      <trkpt lat="42.0876470" lon="-8.8912940">
        <ele>31.8</ele>
        <time>2021-05-19T12:21:42Z</time>
      </trkpt>
      <trkpt lat="42.0876580" lon="-8.8912980">
        <ele>31.7</ele>
        <time>2021-05-19T12:21:43Z</time>
      </trkpt>
      <trkpt lat="42.0876650" lon="-8.8913100">
        <ele>31.7</ele>
        <time>2021-05-19T12:21:44Z</time>
      </trkpt>
      <trkpt lat="42.0876720" lon="-8.8913150">
        <ele>31.7</ele>
        <time>2021-05-19T12:21:45Z</time>
      </trkpt>
      <trkpt lat="42.0876780" lon="-8.8913260">
        <ele>31.7</ele>
        <time>2021-05-19T12:21:46Z</time>
      </trkpt>
      <trkpt lat="42.0876960" lon="-8.8913400">
        <ele>31.7</ele>
        <time>2021-05-19T12:21:47Z</time>
      </trkpt>
      <trkpt lat="42.0877040" lon="-8.8913450">
        <ele>31.7</ele>
        <time>2021-05-19T12:21:48Z</time>
      </trkpt>
      <trkpt lat="42.0877120" lon="-8.8913500">
        <ele>31.7</ele>
        <time>2021-05-19T12:21:49Z</time>
      </trkpt>
      <trkpt lat="42.0877240" lon="-8.8913520">
        <ele>31.7</ele>
        <time>2021-05-19T12:21:50Z</time>
      </trkpt>
      <trkpt lat="42.0877320" lon="-8.8913520">
        <ele>31.7</ele>
        <time>2021-05-19T12:21:51Z</time>
      </trkpt>
      <trkpt lat="42.0877460" lon="-8.8913580">
        <ele>31.6</ele>
        <time>2021-05-19T12:21:52Z</time>
      </trkpt>
      <trkpt lat="42.0877640" lon="-8.8913620">
        <ele>31.6</ele>
        <time>2021-05-19T12:21:53Z</time>
      </trkpt>
      <trkpt lat="42.0877740" lon="-8.8913660">
        <ele>31.6</ele>
        <time>2021-05-19T12:21:54Z</time>
      </trkpt>
      <trkpt lat="42.0877930" lon="-8.8913800">
        <ele>31.6</ele>
        <time>2021-05-19T12:21:55Z</time>
      </trkpt>
      <trkpt lat="42.0878020" lon="-8.8913860">
        <ele>31.6</ele>
        <time>2021-05-19T12:21:56Z</time>
      </trkpt>
      <trkpt lat="42.0878110" lon="-8.8913930">
        <ele>31.5</ele>
        <time>2021-05-19T12:21:57Z</time>
      </trkpt>
      <trkpt lat="42.0878280" lon="-8.8914080">
        <ele>31.5</ele>
        <time>2021-05-19T12:21:58Z</time>
      </trkpt>
      <trkpt lat="42.0878360" lon="-8.8914130">
        <ele>31.5</ele>
        <time>2021-05-19T12:21:59Z</time>
      </trkpt>
      <trkpt lat="42.0878430" lon="-8.8914180">
        <ele>31.5</ele>
        <time>2021-05-19T12:22:00Z</time>
      </trkpt>
      <trkpt lat="42.0878540" lon="-8.8914280">
        <ele>31.4</ele>
        <time>2021-05-19T12:22:01Z</time>
      </trkpt>
      <trkpt lat="42.0878630" lon="-8.8914360">
        <ele>31.4</ele>
        <time>2021-05-19T12:22:02Z</time>
      </trkpt>
      <trkpt lat="42.0878720" lon="-8.8914440">
        <ele>31.4</ele>
        <time>2021-05-19T12:22:03Z</time>
      </trkpt>
      <trkpt lat="42.0878900" lon="-8.8914610">
        <ele>31.3</ele>
        <time>2021-05-19T12:22:04Z</time>
      </trkpt>
      <trkpt lat="42.0878990" lon="-8.8914650">
        <ele>31.3</ele>
        <time>2021-05-19T12:22:05Z</time>
      </trkpt>
      <trkpt lat="42.0879070" lon="-8.8914690">
        <ele>31.3</ele>
        <time>2021-05-19T12:22:06Z</time>
      </trkpt>
      <trkpt lat="42.0879190" lon="-8.8914740">
        <ele>31.3</ele>
        <time>2021-05-19T12:22:07Z</time>
      </trkpt>
      <trkpt lat="42.0879300" lon="-8.8914750">
        <ele>31.2</ele>
        <time>2021-05-19T12:22:08Z</time>
      </trkpt>
      <trkpt lat="42.0879400" lon="-8.8914870">
        <ele>31.2</ele>
        <time>2021-05-19T12:22:09Z</time>
      </trkpt>
      <trkpt lat="42.0879520" lon="-8.8914920">
        <ele>31.2</ele>
        <time>2021-05-19T12:22:10Z</time>
      </trkpt>
      <trkpt lat="42.0879650" lon="-8.8915010">
        <ele>31.1</ele>
        <time>2021-05-19T12:22:11Z</time>
      </trkpt>
      <trkpt lat="42.0879700" lon="-8.8915070">
        <ele>31.1</ele>
        <time>2021-05-19T12:22:12Z</time>
      </trkpt>
      <trkpt lat="42.0879740" lon="-8.8915070">
        <ele>31.1</ele>
        <time>2021-05-19T12:22:13Z</time>
      </trkpt>
      <trkpt lat="42.0879720" lon="-8.8915040">
        <ele>31.1</ele>
        <time>2021-05-19T12:22:14Z</time>
      </trkpt>
      <trkpt lat="42.0879770" lon="-8.8914990">
        <ele>31.1</ele>
        <time>2021-05-19T12:22:15Z</time>
      </trkpt>
      <trkpt lat="42.0879810" lon="-8.8915010">
        <ele>31.1</ele>
        <time>2021-05-19T12:22:16Z</time>
      </trkpt>
      <trkpt lat="42.0879900" lon="-8.8915050">
        <ele>31.0</ele>
        <time>2021-05-19T12:22:17Z</time>
      </trkpt>
      <trkpt lat="42.0879960" lon="-8.8915080">
        <ele>31.0</ele>
        <time>2021-05-19T12:22:18Z</time>
      </trkpt>
      <trkpt lat="42.0880080" lon="-8.8915250">
        <ele>31.0</ele>
        <time>2021-05-19T12:22:19Z</time>
      </trkpt>
      <trkpt lat="42.0880150" lon="-8.8915340">
        <ele>30.9</ele>
        <time>2021-05-19T12:22:20Z</time>
      </trkpt>
      <trkpt lat="42.0880340" lon="-8.8915380">
        <ele>30.9</ele>
        <time>2021-05-19T12:22:21Z</time>
      </trkpt>
      <trkpt lat="42.0880490" lon="-8.8915420">
        <ele>30.8</ele>
        <time>2021-05-19T12:22:22Z</time>
      </trkpt>
      <trkpt lat="42.0880650" lon="-8.8915430">
        <ele>30.8</ele>
        <time>2021-05-19T12:22:23Z</time>
      </trkpt>
      <trkpt lat="42.0880780" lon="-8.8915520">
        <ele>30.7</ele>
        <time>2021-05-19T12:22:24Z</time>
      </trkpt>
      <trkpt lat="42.0880930" lon="-8.8915640">
        <ele>30.7</ele>
        <time>2021-05-19T12:22:25Z</time>
      </trkpt>
      <trkpt lat="42.0881030" lon="-8.8915710">
        <ele>30.7</ele>
        <time>2021-05-19T12:22:26Z</time>
      </trkpt>
      <trkpt lat="42.0881130" lon="-8.8915770">
        <ele>30.6</ele>
        <time>2021-05-19T12:22:27Z</time>
      </trkpt>
      <trkpt lat="42.0881190" lon="-8.8915780">
        <ele>30.6</ele>
        <time>2021-05-19T12:22:28Z</time>
      </trkpt>
      <trkpt lat="42.0881290" lon="-8.8915830">
        <ele>30.6</ele>
        <time>2021-05-19T12:22:29Z</time>
      </trkpt>
      <trkpt lat="42.0881460" lon="-8.8915920">
        <ele>30.5</ele>
        <time>2021-05-19T12:22:30Z</time>
      </trkpt>
      <trkpt lat="42.0881580" lon="-8.8916000">
        <ele>30.5</ele>
        <time>2021-05-19T12:22:31Z</time>
      </trkpt>
      <trkpt lat="42.0881750" lon="-8.8916120">
        <ele>30.4</ele>
        <time>2021-05-19T12:22:32Z</time>
      </trkpt>
      <trkpt lat="42.0881940" lon="-8.8916280">
        <ele>30.4</ele>
        <time>2021-05-19T12:22:33Z</time>
      </trkpt>
      <trkpt lat="42.0882020" lon="-8.8916320">
        <ele>30.3</ele>
        <time>2021-05-19T12:22:34Z</time>
      </trkpt>
      <trkpt lat="42.0882110" lon="-8.8916360">
        <ele>30.3</ele>
        <time>2021-05-19T12:22:35Z</time>
      </trkpt>
      <trkpt lat="42.0882340" lon="-8.8916520">
        <ele>30.2</ele>
        <time>2021-05-19T12:22:36Z</time>
      </trkpt>
      <trkpt lat="42.0882390" lon="-8.8916570">
        <ele>30.2</ele>
        <time>2021-05-19T12:22:37Z</time>
      </trkpt>
      <trkpt lat="42.0882450" lon="-8.8916620">
        <ele>30.2</ele>
        <time>2021-05-19T12:22:38Z</time>
      </trkpt>
      <trkpt lat="42.0882520" lon="-8.8916650">
        <ele>30.2</ele>
        <time>2021-05-19T12:22:39Z</time>
      </trkpt>
      <trkpt lat="42.0882620" lon="-8.8916770">
        <ele>30.2</ele>
        <time>2021-05-19T12:22:40Z</time>
      </trkpt>
      <trkpt lat="42.0882750" lon="-8.8916800">
        <ele>30.1</ele>
        <time>2021-05-19T12:22:41Z</time>
      </trkpt>
      <trkpt lat="42.0882930" lon="-8.8916940">
        <ele>30.1</ele>
        <time>2021-05-19T12:22:42Z</time>
      </trkpt>
      <trkpt lat="42.0883010" lon="-8.8916980">
        <ele>30.0</ele>
        <time>2021-05-19T12:22:43Z</time>
      </trkpt>
      <trkpt lat="42.0883090" lon="-8.8917010">
        <ele>30.0</ele>
        <time>2021-05-19T12:22:44Z</time>
      </trkpt>
      <trkpt lat="42.0883260" lon="-8.8917100">
        <ele>30.0</ele>
        <time>2021-05-19T12:22:45Z</time>
      </trkpt>
      <trkpt lat="42.0883350" lon="-8.8917160">
        <ele>30.0</ele>
        <time>2021-05-19T12:22:46Z</time>
      </trkpt>
      <trkpt lat="42.0883450" lon="-8.8917220">
        <ele>29.9</ele>
        <time>2021-05-19T12:22:47Z</time>
      </trkpt>
      <trkpt lat="42.0883550" lon="-8.8917220">
        <ele>29.9</ele>
        <time>2021-05-19T12:22:48Z</time>
      </trkpt>
      <trkpt lat="42.0883640" lon="-8.8917320">
        <ele>29.9</ele>
        <time>2021-05-19T12:22:49Z</time>
      </trkpt>
      <trkpt lat="42.0883730" lon="-8.8917400">
        <ele>29.9</ele>
        <time>2021-05-19T12:22:50Z</time>
      </trkpt>
      <trkpt lat="42.0884030" lon="-8.8917570">
        <ele>29.8</ele>
        <time>2021-05-19T12:22:52Z</time>
      </trkpt>
      <trkpt lat="42.0884170" lon="-8.8917640">
        <ele>29.8</ele>
        <time>2021-05-19T12:22:54Z</time>
      </trkpt>
      <trkpt lat="42.0884240" lon="-8.8917690">
        <ele>29.7</ele>
        <time>2021-05-19T12:22:55Z</time>
      </trkpt>
      <trkpt lat="42.0884440" lon="-8.8917760">
        <ele>29.7</ele>
        <time>2021-05-19T12:22:56Z</time>
      </trkpt>
      <trkpt lat="42.0884670" lon="-8.8917910">
        <ele>29.6</ele>
        <time>2021-05-19T12:22:57Z</time>
      </trkpt>
      <trkpt lat="42.0884740" lon="-8.8917950">
        <ele>29.6</ele>
        <time>2021-05-19T12:22:58Z</time>
      </trkpt>
      <trkpt lat="42.0884830" lon="-8.8918000">
        <ele>29.6</ele>
        <time>2021-05-19T12:22:59Z</time>
      </trkpt>
      <trkpt lat="42.0885010" lon="-8.8918050">
        <ele>29.6</ele>
        <time>2021-05-19T12:23:00Z</time>
      </trkpt>
      <trkpt lat="42.0885120" lon="-8.8918180">
        <ele>29.5</ele>
        <time>2021-05-19T12:23:01Z</time>
      </trkpt>
      <trkpt lat="42.0885300" lon="-8.8918220">
        <ele>29.5</ele>
        <time>2021-05-19T12:23:02Z</time>
      </trkpt>
      <trkpt lat="42.0885510" lon="-8.8918350">
        <ele>29.5</ele>
        <time>2021-05-19T12:23:03Z</time>
      </trkpt>
      <trkpt lat="42.0885600" lon="-8.8918400">
        <ele>29.4</ele>
        <time>2021-05-19T12:23:04Z</time>
      </trkpt>
      <trkpt lat="42.0885690" lon="-8.8918450">
        <ele>29.4</ele>
        <time>2021-05-19T12:23:05Z</time>
      </trkpt>
      <trkpt lat="42.0885850" lon="-8.8918560">
        <ele>29.4</ele>
        <time>2021-05-19T12:23:06Z</time>
      </trkpt>
      <trkpt lat="42.0885950" lon="-8.8918630">
        <ele>29.4</ele>
        <time>2021-05-19T12:23:07Z</time>
      </trkpt>
      <trkpt lat="42.0886130" lon="-8.8918720">
        <ele>29.3</ele>
        <time>2021-05-19T12:23:08Z</time>
      </trkpt>
      <trkpt lat="42.0886220" lon="-8.8918780">
        <ele>29.3</ele>
        <time>2021-05-19T12:23:09Z</time>
      </trkpt>
      <trkpt lat="42.0886300" lon="-8.8918840">
        <ele>29.3</ele>
        <time>2021-05-19T12:23:10Z</time>
      </trkpt>
      <trkpt lat="42.0886450" lon="-8.8918850">
        <ele>29.3</ele>
        <time>2021-05-19T12:23:11Z</time>
      </trkpt>
      <trkpt lat="42.0886550" lon="-8.8918930">
        <ele>29.2</ele>
        <time>2021-05-19T12:23:12Z</time>
      </trkpt>
      <trkpt lat="42.0886630" lon="-8.8919000">
        <ele>29.2</ele>
        <time>2021-05-19T12:23:13Z</time>
      </trkpt>
      <trkpt lat="42.0886690" lon="-8.8919070">
        <ele>29.2</ele>
        <time>2021-05-19T12:23:14Z</time>
      </trkpt>
      <trkpt lat="42.0886790" lon="-8.8919110">
        <ele>29.2</ele>
        <time>2021-05-19T12:23:15Z</time>
      </trkpt>
      <trkpt lat="42.0886950" lon="-8.8919160">
        <ele>29.2</ele>
        <time>2021-05-19T12:23:16Z</time>
      </trkpt>
      <trkpt lat="42.0887040" lon="-8.8919180">
        <ele>29.1</ele>
        <time>2021-05-19T12:23:17Z</time>
      </trkpt>
      <trkpt lat="42.0887210" lon="-8.8919350">
        <ele>29.1</ele>
        <time>2021-05-19T12:23:18Z</time>
      </trkpt>
      <trkpt lat="42.0887260" lon="-8.8919350">
        <ele>29.1</ele>
        <time>2021-05-19T12:23:19Z</time>
      </trkpt>
      <trkpt lat="42.0887400" lon="-8.8919440">
        <ele>29.1</ele>
        <time>2021-05-19T12:23:20Z</time>
      </trkpt>
      <trkpt lat="42.0887520" lon="-8.8919480">
        <ele>29.0</ele>
        <time>2021-05-19T12:23:21Z</time>
      </trkpt>
      <trkpt lat="42.0887670" lon="-8.8919600">
        <ele>29.0</ele>
        <time>2021-05-19T12:23:22Z</time>
      </trkpt>
      <trkpt lat="42.0887780" lon="-8.8919670">
        <ele>29.0</ele>
        <time>2021-05-19T12:23:23Z</time>
      </trkpt>
      <trkpt lat="42.0887840" lon="-8.8919670">
        <ele>28.9</ele>
        <time>2021-05-19T12:23:24Z</time>
      </trkpt>
      <trkpt lat="42.0887970" lon="-8.8919750">
        <ele>28.9</ele>
        <time>2021-05-19T12:23:25Z</time>
      </trkpt>
      <trkpt lat="42.0888060" lon="-8.8919780">
        <ele>28.9</ele>
        <time>2021-05-19T12:23:26Z</time>
      </trkpt>
      <trkpt lat="42.0888170" lon="-8.8919870">
        <ele>28.9</ele>
        <time>2021-05-19T12:23:27Z</time>
      </trkpt>
      <trkpt lat="42.0888180" lon="-8.8919950">
        <ele>28.9</ele>
        <time>2021-05-19T12:23:28Z</time>
      </trkpt>
      <trkpt lat="42.0888290" lon="-8.8920030">
        <ele>28.8</ele>
        <time>2021-05-19T12:23:29Z</time>
      </trkpt>
      <trkpt lat="42.0888420" lon="-8.8920090">
        <ele>28.8</ele>
        <time>2021-05-19T12:23:30Z</time>
      </trkpt>
      <trkpt lat="42.0888560" lon="-8.8920120">
        <ele>28.8</ele>
        <time>2021-05-19T12:23:31Z</time>
      </trkpt>
      <trkpt lat="42.0888770" lon="-8.8920210">
        <ele>28.7</ele>
        <time>2021-05-19T12:23:32Z</time>
      </trkpt>
      <trkpt lat="42.0888830" lon="-8.8920250">
        <ele>28.7</ele>
        <time>2021-05-19T12:23:33Z</time>
      </trkpt>
      <trkpt lat="42.0888900" lon="-8.8920290">
        <ele>28.7</ele>
        <time>2021-05-19T12:23:34Z</time>
      </trkpt>
      <trkpt lat="42.0889090" lon="-8.8920400">
        <ele>28.6</ele>
        <time>2021-05-19T12:23:35Z</time>
      </trkpt>
      <trkpt lat="42.0889180" lon="-8.8920450">
        <ele>28.6</ele>
        <time>2021-05-19T12:23:36Z</time>
      </trkpt>
      <trkpt lat="42.0889410" lon="-8.8920570">
        <ele>28.6</ele>
        <time>2021-05-19T12:23:37Z</time>
      </trkpt>
      <trkpt lat="42.0889490" lon="-8.8920640">
        <ele>28.5</ele>
        <time>2021-05-19T12:23:38Z</time>
      </trkpt>
      <trkpt lat="42.0889570" lon="-8.8920700">
        <ele>28.5</ele>
        <time>2021-05-19T12:23:39Z</time>
      </trkpt>
      <trkpt lat="42.0889780" lon="-8.8920810">
        <ele>28.5</ele>
        <time>2021-05-19T12:23:40Z</time>
      </trkpt>
      <trkpt lat="42.0889850" lon="-8.8920870">
        <ele>28.5</ele>
        <time>2021-05-19T12:23:41Z</time>
      </trkpt>
      <trkpt lat="42.0889920" lon="-8.8920920">
        <ele>28.5</ele>
        <time>2021-05-19T12:23:42Z</time>
      </trkpt>
      <trkpt lat="42.0890000" lon="-8.8921030">
        <ele>28.4</ele>
        <time>2021-05-19T12:23:43Z</time>
      </trkpt>
      <trkpt lat="42.0890170" lon="-8.8921110">
        <ele>28.4</ele>
        <time>2021-05-19T12:23:44Z</time>
      </trkpt>
      <trkpt lat="42.0890270" lon="-8.8921170">
        <ele>28.4</ele>
        <time>2021-05-19T12:23:45Z</time>
      </trkpt>
      <trkpt lat="42.0890440" lon="-8.8921210">
        <ele>28.4</ele>
        <time>2021-05-19T12:23:47Z</time>
      </trkpt>
      <trkpt lat="42.0890570" lon="-8.8921280">
        <ele>28.3</ele>
        <time>2021-05-19T12:23:48Z</time>
      </trkpt>
      <trkpt lat="42.0890710" lon="-8.8921380">
        <ele>28.3</ele>
        <time>2021-05-19T12:23:49Z</time>
      </trkpt>
      <trkpt lat="42.0890900" lon="-8.8921460">
        <ele>28.3</ele>
        <time>2021-05-19T12:23:50Z</time>
      </trkpt>
      <trkpt lat="42.0890970" lon="-8.8921500">
        <ele>28.3</ele>
        <time>2021-05-19T12:23:51Z</time>
      </trkpt>
      <trkpt lat="42.0891050" lon="-8.8921550">
        <ele>28.3</ele>
        <time>2021-05-19T12:23:52Z</time>
      </trkpt>
      <trkpt lat="42.0891250" lon="-8.8921660">
        <ele>28.2</ele>
        <time>2021-05-19T12:23:53Z</time>
      </trkpt>
      <trkpt lat="42.0891330" lon="-8.8921700">
        <ele>28.2</ele>
        <time>2021-05-19T12:23:54Z</time>
      </trkpt>
      <trkpt lat="42.0891420" lon="-8.8921730">
        <ele>28.2</ele>
        <time>2021-05-19T12:23:55Z</time>
      </trkpt>
      <trkpt lat="42.0891530" lon="-8.8921750">
        <ele>28.2</ele>
        <time>2021-05-19T12:23:56Z</time>
      </trkpt>
      <trkpt lat="42.0891720" lon="-8.8921830">
        <ele>28.2</ele>
        <time>2021-05-19T12:23:57Z</time>
      </trkpt>
      <trkpt lat="42.0891880" lon="-8.8921910">
        <ele>28.2</ele>
        <time>2021-05-19T12:23:58Z</time>
      </trkpt>
      <trkpt lat="42.0891980" lon="-8.8921940">
        <ele>28.2</ele>
        <time>2021-05-19T12:23:59Z</time>
      </trkpt>
      <trkpt lat="42.0892200" lon="-8.8922070">
        <ele>28.1</ele>
        <time>2021-05-19T12:24:00Z</time>
      </trkpt>
      <trkpt lat="42.0892270" lon="-8.8922120">
        <ele>28.1</ele>
        <time>2021-05-19T12:24:01Z</time>
      </trkpt>
      <trkpt lat="42.0892350" lon="-8.8922170">
        <ele>28.1</ele>
        <time>2021-05-19T12:24:02Z</time>
      </trkpt>
      <trkpt lat="42.0892530" lon="-8.8922270">
        <ele>28.1</ele>
        <time>2021-05-19T12:24:03Z</time>
      </trkpt>
      <trkpt lat="42.0892620" lon="-8.8922330">
        <ele>28.1</ele>
        <time>2021-05-19T12:24:04Z</time>
      </trkpt>
      <trkpt lat="42.0892720" lon="-8.8922390">
        <ele>28.1</ele>
        <time>2021-05-19T12:24:05Z</time>
      </trkpt>
      <trkpt lat="42.0892810" lon="-8.8922460">
        <ele>28.0</ele>
        <time>2021-05-19T12:24:06Z</time>
      </trkpt>
      <trkpt lat="42.0892920" lon="-8.8922520">
        <ele>28.0</ele>
        <time>2021-05-19T12:24:07Z</time>
      </trkpt>
      <trkpt lat="42.0893020" lon="-8.8922630">
        <ele>28.0</ele>
        <time>2021-05-19T12:24:08Z</time>
      </trkpt>
      <trkpt lat="42.0893170" lon="-8.8922670">
        <ele>28.0</ele>
        <time>2021-05-19T12:24:09Z</time>
      </trkpt>
      <trkpt lat="42.0893310" lon="-8.8922710">
        <ele>28.0</ele>
        <time>2021-05-19T12:24:10Z</time>
      </trkpt>
      <trkpt lat="42.0893400" lon="-8.8922770">
        <ele>28.0</ele>
        <time>2021-05-19T12:24:11Z</time>
      </trkpt>
      <trkpt lat="42.0893500" lon="-8.8922850">
        <ele>27.9</ele>
        <time>2021-05-19T12:24:12Z</time>
      </trkpt>
      <trkpt lat="42.0893580" lon="-8.8922950">
        <ele>27.9</ele>
        <time>2021-05-19T12:24:13Z</time>
      </trkpt>
      <trkpt lat="42.0893720" lon="-8.8923020">
        <ele>27.9</ele>
        <time>2021-05-19T12:24:14Z</time>
      </trkpt>
      <trkpt lat="42.0893800" lon="-8.8923050">
        <ele>27.9</ele>
        <time>2021-05-19T12:24:15Z</time>
      </trkpt>
      <trkpt lat="42.0893900" lon="-8.8923130">
        <ele>27.9</ele>
        <time>2021-05-19T12:24:16Z</time>
      </trkpt>
      <trkpt lat="42.0894030" lon="-8.8923290">
        <ele>27.9</ele>
        <time>2021-05-19T12:24:17Z</time>
      </trkpt>
      <trkpt lat="42.0894140" lon="-8.8923340">
        <ele>27.9</ele>
        <time>2021-05-19T12:24:18Z</time>
      </trkpt>
      <trkpt lat="42.0894300" lon="-8.8923400">
        <ele>27.8</ele>
        <time>2021-05-19T12:24:19Z</time>
      </trkpt>
      <trkpt lat="42.0894460" lon="-8.8923510">
        <ele>27.8</ele>
        <time>2021-05-19T12:24:20Z</time>
      </trkpt>
      <trkpt lat="42.0894530" lon="-8.8923560">
        <ele>27.8</ele>
        <time>2021-05-19T12:24:21Z</time>
      </trkpt>
      <trkpt lat="42.0894610" lon="-8.8923620">
        <ele>27.8</ele>
        <time>2021-05-19T12:24:22Z</time>
      </trkpt>
      <trkpt lat="42.0894760" lon="-8.8923720">
        <ele>27.8</ele>
        <time>2021-05-19T12:24:23Z</time>
      </trkpt>
      <trkpt lat="42.0894870" lon="-8.8923800">
        <ele>27.8</ele>
        <time>2021-05-19T12:24:24Z</time>
      </trkpt>
      <trkpt lat="42.0894960" lon="-8.8923820">
        <ele>27.7</ele>
        <time>2021-05-19T12:24:25Z</time>
      </trkpt>
      <trkpt lat="42.0895080" lon="-8.8923890">
        <ele>27.7</ele>
        <time>2021-05-19T12:24:26Z</time>
      </trkpt>
      <trkpt lat="42.0895250" lon="-8.8924000">
        <ele>27.7</ele>
        <time>2021-05-19T12:24:27Z</time>
      </trkpt>
      <trkpt lat="42.0895340" lon="-8.8924070">
        <ele>27.7</ele>
        <time>2021-05-19T12:24:28Z</time>
      </trkpt>
      <trkpt lat="42.0895470" lon="-8.8924140">
        <ele>27.7</ele>
        <time>2021-05-19T12:24:29Z</time>
      </trkpt>
      <trkpt lat="42.0895600" lon="-8.8924240">
        <ele>27.7</ele>
        <time>2021-05-19T12:24:30Z</time>
      </trkpt>
      <trkpt lat="42.0895830" lon="-8.8924370">
        <ele>27.6</ele>
        <time>2021-05-19T12:24:31Z</time>
      </trkpt>
      <trkpt lat="42.0895930" lon="-8.8924410">
        <ele>27.6</ele>
        <time>2021-05-19T12:24:32Z</time>
      </trkpt>
      <trkpt lat="42.0896020" lon="-8.8924450">
        <ele>27.6</ele>
        <time>2021-05-19T12:24:33Z</time>
      </trkpt>
      <trkpt lat="42.0896100" lon="-8.8924470">
        <ele>27.6</ele>
        <time>2021-05-19T12:24:34Z</time>
      </trkpt>
      <trkpt lat="42.0896210" lon="-8.8924530">
        <ele>27.6</ele>
        <time>2021-05-19T12:24:35Z</time>
      </trkpt>
      <trkpt lat="42.0896350" lon="-8.8924580">
        <ele>27.6</ele>
        <time>2021-05-19T12:24:36Z</time>
      </trkpt>
      <trkpt lat="42.0896450" lon="-8.8924630">
        <ele>27.5</ele>
        <time>2021-05-19T12:24:37Z</time>
      </trkpt>
      <trkpt lat="42.0896510" lon="-8.8924690">
        <ele>27.5</ele>
        <time>2021-05-19T12:24:38Z</time>
      </trkpt>
      <trkpt lat="42.0896620" lon="-8.8924760">
        <ele>27.5</ele>
        <time>2021-05-19T12:24:39Z</time>
      </trkpt>
      <trkpt lat="42.0896790" lon="-8.8924830">
        <ele>27.5</ele>
        <time>2021-05-19T12:24:40Z</time>
      </trkpt>
      <trkpt lat="42.0896960" lon="-8.8924910">
        <ele>27.5</ele>
        <time>2021-05-19T12:24:41Z</time>
      </trkpt>
      <trkpt lat="42.0897070" lon="-8.8924920">
        <ele>27.5</ele>
        <time>2021-05-19T12:24:42Z</time>
      </trkpt>
      <trkpt lat="42.0897170" lon="-8.8924960">
        <ele>27.4</ele>
        <time>2021-05-19T12:24:43Z</time>
      </trkpt>
      <trkpt lat="42.0897240" lon="-8.8925000">
        <ele>27.4</ele>
        <time>2021-05-19T12:24:44Z</time>
      </trkpt>
      <trkpt lat="42.0897380" lon="-8.8925060">
        <ele>27.4</ele>
        <time>2021-05-19T12:24:45Z</time>
      </trkpt>
      <trkpt lat="42.0897530" lon="-8.8925150">
        <ele>27.4</ele>
        <time>2021-05-19T12:24:46Z</time>
      </trkpt>
      <trkpt lat="42.0897620" lon="-8.8925220">
        <ele>27.3</ele>
        <time>2021-05-19T12:24:47Z</time>
      </trkpt>
      <trkpt lat="42.0897790" lon="-8.8925290">
        <ele>27.3</ele>
        <time>2021-05-19T12:24:48Z</time>
      </trkpt>
      <trkpt lat="42.0898010" lon="-8.8925380">
        <ele>27.3</ele>
        <time>2021-05-19T12:24:49Z</time>
      </trkpt>
      <trkpt lat="42.0898080" lon="-8.8925440">
        <ele>27.3</ele>
        <time>2021-05-19T12:24:50Z</time>
      </trkpt>
      <trkpt lat="42.0898160" lon="-8.8925490">
        <ele>27.2</ele>
        <time>2021-05-19T12:24:51Z</time>
      </trkpt>
      <trkpt lat="42.0898280" lon="-8.8925510">
        <ele>27.2</ele>
        <time>2021-05-19T12:24:52Z</time>
      </trkpt>
      <trkpt lat="42.0898310" lon="-8.8925520">
        <ele>27.2</ele>
        <time>2021-05-19T12:24:53Z</time>
      </trkpt>
      <trkpt lat="42.0898440" lon="-8.8925560">
        <ele>27.2</ele>
        <time>2021-05-19T12:24:54Z</time>
      </trkpt>
      <trkpt lat="42.0898600" lon="-8.8925650">
        <ele>27.1</ele>
        <time>2021-05-19T12:24:55Z</time>
      </trkpt>
      <trkpt lat="42.0898740" lon="-8.8925720">
        <ele>27.1</ele>
        <time>2021-05-19T12:24:56Z</time>
      </trkpt>
      <trkpt lat="42.0898890" lon="-8.8925750">
        <ele>27.1</ele>
        <time>2021-05-19T12:24:57Z</time>
      </trkpt>
      <trkpt lat="42.0899070" lon="-8.8925810">
        <ele>27.0</ele>
        <time>2021-05-19T12:24:58Z</time>
      </trkpt>
      <trkpt lat="42.0899290" lon="-8.8925920">
        <ele>27.0</ele>
        <time>2021-05-19T12:24:59Z</time>
      </trkpt>
      <trkpt lat="42.0899380" lon="-8.8925970">
        <ele>27.0</ele>
        <time>2021-05-19T12:25:00Z</time>
      </trkpt>
      <trkpt lat="42.0899460" lon="-8.8926020">
        <ele>26.9</ele>
        <time>2021-05-19T12:25:01Z</time>
      </trkpt>
      <trkpt lat="42.0899690" lon="-8.8926170">
        <ele>26.9</ele>
        <time>2021-05-19T12:25:02Z</time>
      </trkpt>
      <trkpt lat="42.0899760" lon="-8.8926190">
        <ele>26.9</ele>
        <time>2021-05-19T12:25:03Z</time>
      </trkpt>
      <trkpt lat="42.0899840" lon="-8.8926220">
        <ele>26.8</ele>
        <time>2021-05-19T12:25:04Z</time>
      </trkpt>
      <trkpt lat="42.0900040" lon="-8.8926300">
        <ele>26.8</ele>
        <time>2021-05-19T12:25:05Z</time>
      </trkpt>
      <trkpt lat="42.0900150" lon="-8.8926330">
        <ele>26.8</ele>
        <time>2021-05-19T12:25:06Z</time>
      </trkpt>
      <trkpt lat="42.0900250" lon="-8.8926350">
        <ele>26.7</ele>
        <time>2021-05-19T12:25:07Z</time>
      </trkpt>
      <trkpt lat="42.0900440" lon="-8.8926420">
        <ele>26.7</ele>
        <time>2021-05-19T12:25:08Z</time>
      </trkpt>
      <trkpt lat="42.0900520" lon="-8.8926450">
        <ele>26.6</ele>
        <time>2021-05-19T12:25:09Z</time>
      </trkpt>
      <trkpt lat="42.0900590" lon="-8.8926490">
        <ele>26.6</ele>
        <time>2021-05-19T12:25:10Z</time>
      </trkpt>
      <trkpt lat="42.0900740" lon="-8.8926550">
        <ele>26.6</ele>
        <time>2021-05-19T12:25:11Z</time>
      </trkpt>
      <trkpt lat="42.0900870" lon="-8.8926610">
        <ele>26.5</ele>
        <time>2021-05-19T12:25:12Z</time>
      </trkpt>
      <trkpt lat="42.0900950" lon="-8.8926670">
        <ele>26.5</ele>
        <time>2021-05-19T12:25:13Z</time>
      </trkpt>
      <trkpt lat="42.0901190" lon="-8.8926780">
        <ele>26.4</ele>
        <time>2021-05-19T12:25:14Z</time>
      </trkpt>
      <trkpt lat="42.0901260" lon="-8.8926810">
        <ele>26.4</ele>
        <time>2021-05-19T12:25:15Z</time>
      </trkpt>
      <trkpt lat="42.0901380" lon="-8.8926840">
        <ele>26.4</ele>
        <time>2021-05-19T12:25:16Z</time>
      </trkpt>
      <trkpt lat="42.0901530" lon="-8.8926920">
        <ele>26.3</ele>
        <time>2021-05-19T12:25:17Z</time>
      </trkpt>
      <trkpt lat="42.0901700" lon="-8.8927020">
        <ele>26.3</ele>
        <time>2021-05-19T12:25:18Z</time>
      </trkpt>
      <trkpt lat="42.0901820" lon="-8.8927080">
        <ele>26.3</ele>
        <time>2021-05-19T12:25:19Z</time>
      </trkpt>
      <trkpt lat="42.0901980" lon="-8.8927100">
        <ele>26.2</ele>
        <time>2021-05-19T12:25:20Z</time>
      </trkpt>
      <trkpt lat="42.0902110" lon="-8.8927200">
        <ele>26.2</ele>
        <time>2021-05-19T12:25:21Z</time>
      </trkpt>
      <trkpt lat="42.0902310" lon="-8.8927210">
        <ele>26.1</ele>
        <time>2021-05-19T12:25:22Z</time>
      </trkpt>
      <trkpt lat="42.0902360" lon="-8.8927210">
        <ele>26.1</ele>
        <time>2021-05-19T12:25:23Z</time>
      </trkpt>
      <trkpt lat="42.0902450" lon="-8.8927270">
        <ele>26.1</ele>
        <time>2021-05-19T12:25:24Z</time>
      </trkpt>
      <trkpt lat="42.0902720" lon="-8.8927340">
        <ele>26.0</ele>
        <time>2021-05-19T12:25:25Z</time>
      </trkpt>
      <trkpt lat="42.0902810" lon="-8.8927370">
        <ele>26.0</ele>
        <time>2021-05-19T12:25:26Z</time>
      </trkpt>
      <trkpt lat="42.0902860" lon="-8.8927420">
        <ele>26.0</ele>
        <time>2021-05-19T12:25:27Z</time>
      </trkpt>
      <trkpt lat="42.0903080" lon="-8.8927500">
        <ele>25.9</ele>
        <time>2021-05-19T12:25:29Z</time>
      </trkpt>
      <trkpt lat="42.0903180" lon="-8.8927560">
        <ele>25.9</ele>
        <time>2021-05-19T12:25:30Z</time>
      </trkpt>
      <trkpt lat="42.0903340" lon="-8.8927620">
        <ele>25.8</ele>
        <time>2021-05-19T12:25:31Z</time>
      </trkpt>
      <trkpt lat="42.0903400" lon="-8.8927610">
        <ele>25.8</ele>
        <time>2021-05-19T12:25:32Z</time>
      </trkpt>
      <trkpt lat="42.0903600" lon="-8.8927660">
        <ele>25.8</ele>
        <time>2021-05-19T12:25:33Z</time>
      </trkpt>
      <trkpt lat="42.0903720" lon="-8.8927690">
        <ele>25.7</ele>
        <time>2021-05-19T12:25:34Z</time>
      </trkpt>
      <trkpt lat="42.0903940" lon="-8.8927770">
        <ele>25.7</ele>
        <time>2021-05-19T12:25:35Z</time>
      </trkpt>
      <trkpt lat="42.0904050" lon="-8.8927810">
        <ele>25.7</ele>
        <time>2021-05-19T12:25:36Z</time>
      </trkpt>
      <trkpt lat="42.0904150" lon="-8.8927840">
        <ele>25.6</ele>
        <time>2021-05-19T12:25:37Z</time>
      </trkpt>
      <trkpt lat="42.0904280" lon="-8.8927950">
        <ele>25.6</ele>
        <time>2021-05-19T12:25:38Z</time>
      </trkpt>
      <trkpt lat="42.0904420" lon="-8.8928020">
        <ele>25.6</ele>
        <time>2021-05-19T12:25:39Z</time>
      </trkpt>
      <trkpt lat="42.0904620" lon="-8.8928140">
        <ele>25.5</ele>
        <time>2021-05-19T12:25:40Z</time>
      </trkpt>
      <trkpt lat="42.0904710" lon="-8.8928180">
        <ele>25.5</ele>
        <time>2021-05-19T12:25:41Z</time>
      </trkpt>
      <trkpt lat="42.0904810" lon="-8.8928210">
        <ele>25.5</ele>
        <time>2021-05-19T12:25:42Z</time>
      </trkpt>
      <trkpt lat="42.0904890" lon="-8.8928310">
        <ele>25.5</ele>
        <time>2021-05-19T12:25:43Z</time>
      </trkpt>
      <trkpt lat="42.0905060" lon="-8.8928350">
        <ele>25.4</ele>
        <time>2021-05-19T12:25:44Z</time>
      </trkpt>
      <trkpt lat="42.0905100" lon="-8.8928360">
        <ele>25.4</ele>
        <time>2021-05-19T12:25:45Z</time>
      </trkpt>
      <trkpt lat="42.0905180" lon="-8.8928390">
        <ele>25.4</ele>
        <time>2021-05-19T12:25:46Z</time>
      </trkpt>
      <trkpt lat="42.0905390" lon="-8.8928410">
        <ele>25.3</ele>
        <time>2021-05-19T12:25:47Z</time>
      </trkpt>
      <trkpt lat="42.0905440" lon="-8.8928380">
        <ele>25.3</ele>
        <time>2021-05-19T12:25:48Z</time>
      </trkpt>
      <trkpt lat="42.0905630" lon="-8.8928470">
        <ele>25.3</ele>
        <time>2021-05-19T12:25:49Z</time>
      </trkpt>
      <trkpt lat="42.0905700" lon="-8.8928540">
        <ele>25.3</ele>
        <time>2021-05-19T12:25:50Z</time>
      </trkpt>
      <trkpt lat="42.0905780" lon="-8.8928550">
        <ele>25.2</ele>
        <time>2021-05-19T12:25:51Z</time>
      </trkpt>
      <trkpt lat="42.0905970" lon="-8.8928650">
        <ele>25.2</ele>
        <time>2021-05-19T12:25:52Z</time>
      </trkpt>
      <trkpt lat="42.0906130" lon="-8.8928700">
        <ele>25.2</ele>
        <time>2021-05-19T12:25:53Z</time>
      </trkpt>
      <trkpt lat="42.0906310" lon="-8.8928720">
        <ele>25.1</ele>
        <time>2021-05-19T12:25:54Z</time>
      </trkpt>
      <trkpt lat="42.0906510" lon="-8.8928830">
        <ele>25.1</ele>
        <time>2021-05-19T12:25:55Z</time>
      </trkpt>
      <trkpt lat="42.0906620" lon="-8.8928840">
        <ele>25.1</ele>
        <time>2021-05-19T12:25:56Z</time>
      </trkpt>
      <trkpt lat="42.0906720" lon="-8.8928850">
        <ele>25.0</ele>
        <time>2021-05-19T12:25:57Z</time>
      </trkpt>
      <trkpt lat="42.0906900" lon="-8.8928970">
        <ele>25.0</ele>
        <time>2021-05-19T12:25:58Z</time>
      </trkpt>
      <trkpt lat="42.0906990" lon="-8.8929010">
        <ele>25.0</ele>
        <time>2021-05-19T12:25:59Z</time>
      </trkpt>
      <trkpt lat="42.0907080" lon="-8.8929060">
        <ele>24.9</ele>
        <time>2021-05-19T12:26:00Z</time>
      </trkpt>
      <trkpt lat="42.0907280" lon="-8.8929150">
        <ele>24.9</ele>
        <time>2021-05-19T12:26:01Z</time>
      </trkpt>
      <trkpt lat="42.0907360" lon="-8.8929200">
        <ele>24.9</ele>
        <time>2021-05-19T12:26:02Z</time>
      </trkpt>
      <trkpt lat="42.0907440" lon="-8.8929240">
        <ele>24.9</ele>
        <time>2021-05-19T12:26:03Z</time>
      </trkpt>
      <trkpt lat="42.0907640" lon="-8.8929260">
        <ele>24.8</ele>
        <time>2021-05-19T12:26:04Z</time>
      </trkpt>
      <trkpt lat="42.0907730" lon="-8.8929280">
        <ele>24.8</ele>
        <time>2021-05-19T12:26:05Z</time>
      </trkpt>
      <trkpt lat="42.0907810" lon="-8.8929290">
        <ele>24.8</ele>
        <time>2021-05-19T12:26:06Z</time>
      </trkpt>
      <trkpt lat="42.0908030" lon="-8.8929380">
        <ele>24.7</ele>
        <time>2021-05-19T12:26:07Z</time>
      </trkpt>
      <trkpt lat="42.0908120" lon="-8.8929430">
        <ele>24.7</ele>
        <time>2021-05-19T12:26:08Z</time>
      </trkpt>
      <trkpt lat="42.0908200" lon="-8.8929470">
        <ele>24.7</ele>
        <time>2021-05-19T12:26:09Z</time>
      </trkpt>
      <trkpt lat="42.0908330" lon="-8.8929450">
        <ele>24.7</ele>
        <time>2021-05-19T12:26:10Z</time>
      </trkpt>
      <trkpt lat="42.0908480" lon="-8.8929460">
        <ele>24.6</ele>
        <time>2021-05-19T12:26:11Z</time>
      </trkpt>
      <trkpt lat="42.0908680" lon="-8.8929520">
        <ele>24.6</ele>
        <time>2021-05-19T12:26:12Z</time>
      </trkpt>
      <trkpt lat="42.0908770" lon="-8.8929540">
        <ele>24.6</ele>
        <time>2021-05-19T12:26:13Z</time>
      </trkpt>
      <trkpt lat="42.0908860" lon="-8.8929570">
        <ele>24.5</ele>
        <time>2021-05-19T12:26:14Z</time>
      </trkpt>
      <trkpt lat="42.0909010" lon="-8.8929640">
        <ele>24.5</ele>
        <time>2021-05-19T12:26:15Z</time>
      </trkpt>
      <trkpt lat="42.0909120" lon="-8.8929650">
        <ele>24.5</ele>
        <time>2021-05-19T12:26:16Z</time>
      </trkpt>
      <trkpt lat="42.0909190" lon="-8.8929680">
        <ele>24.5</ele>
        <time>2021-05-19T12:26:17Z</time>
      </trkpt>
      <trkpt lat="42.0909300" lon="-8.8929740">
        <ele>24.4</ele>
        <time>2021-05-19T12:26:18Z</time>
      </trkpt>
      <trkpt lat="42.0909300" lon="-8.8929760">
        <ele>24.4</ele>
        <time>2021-05-19T12:26:19Z</time>
      </trkpt>
      <trkpt lat="42.0909240" lon="-8.8929740">
        <ele>24.4</ele>
        <time>2021-05-19T12:26:20Z</time>
      </trkpt>
      <trkpt lat="42.0909230" lon="-8.8929730">
        <ele>24.4</ele>
        <time>2021-05-19T12:26:21Z</time>
      </trkpt>
      <trkpt lat="42.0909230" lon="-8.8929700">
        <ele>24.4</ele>
        <time>2021-05-19T12:26:22Z</time>
      </trkpt>
      <trkpt lat="42.0909270" lon="-8.8929690">
        <ele>24.4</ele>
        <time>2021-05-19T12:26:23Z</time>
      </trkpt>
      <trkpt lat="42.0909400" lon="-8.8929690">
        <ele>24.4</ele>
        <time>2021-05-19T12:26:24Z</time>
      </trkpt>
      <trkpt lat="42.0909520" lon="-8.8929760">
        <ele>24.3</ele>
        <time>2021-05-19T12:26:25Z</time>
      </trkpt>
      <trkpt lat="42.0909660" lon="-8.8929850">
        <ele>24.3</ele>
        <time>2021-05-19T12:26:26Z</time>
      </trkpt>
      <trkpt lat="42.0909710" lon="-8.8929890">
        <ele>24.3</ele>
        <time>2021-05-19T12:26:27Z</time>
      </trkpt>
      <trkpt lat="42.0909820" lon="-8.8929940">
        <ele>24.3</ele>
        <time>2021-05-19T12:26:28Z</time>
      </trkpt>
      <trkpt lat="42.0909950" lon="-8.8929920">
        <ele>24.2</ele>
        <time>2021-05-19T12:26:29Z</time>
      </trkpt>
      <trkpt lat="42.0910110" lon="-8.8929970">
        <ele>24.2</ele>
        <time>2021-05-19T12:26:30Z</time>
      </trkpt>
      <trkpt lat="42.0910200" lon="-8.8930010">
        <ele>24.2</ele>
        <time>2021-05-19T12:26:31Z</time>
      </trkpt>
      <trkpt lat="42.0910260" lon="-8.8930080">
        <ele>24.2</ele>
        <time>2021-05-19T12:26:32Z</time>
      </trkpt>
      <trkpt lat="42.0910440" lon="-8.8930160">
        <ele>24.1</ele>
        <time>2021-05-19T12:26:33Z</time>
      </trkpt>
      <trkpt lat="42.0910560" lon="-8.8930220">
        <ele>24.1</ele>
        <time>2021-05-19T12:26:34Z</time>
      </trkpt>
      <trkpt lat="42.0910710" lon="-8.8930330">
        <ele>24.0</ele>
        <time>2021-05-19T12:26:35Z</time>
      </trkpt>
      <trkpt lat="42.0910810" lon="-8.8930410">
        <ele>24.0</ele>
        <time>2021-05-19T12:26:36Z</time>
      </trkpt>
      <trkpt lat="42.0910960" lon="-8.8930480">
        <ele>24.0</ele>
        <time>2021-05-19T12:26:37Z</time>
      </trkpt>
      <trkpt lat="42.0911070" lon="-8.8930530">
        <ele>24.0</ele>
        <time>2021-05-19T12:26:38Z</time>
      </trkpt>
      <trkpt lat="42.0911190" lon="-8.8930570">
        <ele>23.9</ele>
        <time>2021-05-19T12:26:39Z</time>
      </trkpt>
      <trkpt lat="42.0911290" lon="-8.8930600">
        <ele>23.9</ele>
        <time>2021-05-19T12:26:40Z</time>
      </trkpt>
      <trkpt lat="42.0911400" lon="-8.8930560">
        <ele>23.9</ele>
        <time>2021-05-19T12:26:41Z</time>
      </trkpt>
      <trkpt lat="42.0911620" lon="-8.8930640">
        <ele>23.9</ele>
        <time>2021-05-19T12:26:42Z</time>
      </trkpt>
      <trkpt lat="42.0911690" lon="-8.8930660">
        <ele>23.8</ele>
        <time>2021-05-19T12:26:43Z</time>
      </trkpt>
      <trkpt lat="42.0911770" lon="-8.8930690">
        <ele>23.8</ele>
        <time>2021-05-19T12:26:44Z</time>
      </trkpt>
      <trkpt lat="42.0911880" lon="-8.8930760">
        <ele>23.8</ele>
        <time>2021-05-19T12:26:45Z</time>
      </trkpt>
      <trkpt lat="42.0912020" lon="-8.8930850">
        <ele>23.8</ele>
        <time>2021-05-19T12:26:46Z</time>
      </trkpt>
      <trkpt lat="42.0912170" lon="-8.8930920">
        <ele>23.7</ele>
        <time>2021-05-19T12:26:47Z</time>
      </trkpt>
      <trkpt lat="42.0912310" lon="-8.8930940">
        <ele>23.7</ele>
        <time>2021-05-19T12:26:48Z</time>
      </trkpt>
      <trkpt lat="42.0912440" lon="-8.8930980">
        <ele>23.7</ele>
        <time>2021-05-19T12:26:49Z</time>
      </trkpt>
      <trkpt lat="42.0912590" lon="-8.8931030">
        <ele>23.7</ele>
        <time>2021-05-19T12:26:50Z</time>
      </trkpt>
      <trkpt lat="42.0912780" lon="-8.8931140">
        <ele>23.6</ele>
        <time>2021-05-19T12:26:51Z</time>
      </trkpt>
      <trkpt lat="42.0912870" lon="-8.8931190">
        <ele>23.6</ele>
        <time>2021-05-19T12:26:52Z</time>
      </trkpt>
      <trkpt lat="42.0912950" lon="-8.8931230">
        <ele>23.6</ele>
        <time>2021-05-19T12:26:53Z</time>
      </trkpt>
      <trkpt lat="42.0913070" lon="-8.8931270">
        <ele>23.6</ele>
        <time>2021-05-19T12:26:54Z</time>
      </trkpt>
      <trkpt lat="42.0913170" lon="-8.8931310">
        <ele>23.6</ele>
        <time>2021-05-19T12:26:55Z</time>
      </trkpt>
      <trkpt lat="42.0913260" lon="-8.8931360">
        <ele>23.5</ele>
        <time>2021-05-19T12:26:56Z</time>
      </trkpt>
      <trkpt lat="42.0913350" lon="-8.8931400">
        <ele>23.5</ele>
        <time>2021-05-19T12:26:57Z</time>
      </trkpt>
      <trkpt lat="42.0913560" lon="-8.8931510">
        <ele>23.5</ele>
        <time>2021-05-19T12:26:58Z</time>
      </trkpt>
      <trkpt lat="42.0913670" lon="-8.8931560">
        <ele>23.5</ele>
        <time>2021-05-19T12:26:59Z</time>
      </trkpt>
      <trkpt lat="42.0913790" lon="-8.8931620">
        <ele>23.4</ele>
        <time>2021-05-19T12:27:00Z</time>
      </trkpt>
      <trkpt lat="42.0913870" lon="-8.8931590">
        <ele>23.4</ele>
        <time>2021-05-19T12:27:01Z</time>
      </trkpt>
      <trkpt lat="42.0914000" lon="-8.8931600">
        <ele>23.4</ele>
        <time>2021-05-19T12:27:02Z</time>
      </trkpt>
      <trkpt lat="42.0914070" lon="-8.8931590">
        <ele>23.4</ele>
        <time>2021-05-19T12:27:03Z</time>
      </trkpt>
      <trkpt lat="42.0914280" lon="-8.8931620">
        <ele>23.4</ele>
        <time>2021-05-19T12:27:04Z</time>
      </trkpt>
      <trkpt lat="42.0914370" lon="-8.8931630">
        <ele>23.3</ele>
        <time>2021-05-19T12:27:05Z</time>
      </trkpt>
      <trkpt lat="42.0914460" lon="-8.8931640">
        <ele>23.3</ele>
        <time>2021-05-19T12:27:06Z</time>
      </trkpt>
      <trkpt lat="42.0914550" lon="-8.8931600">
        <ele>23.3</ele>
        <time>2021-05-19T12:27:07Z</time>
      </trkpt>
      <trkpt lat="42.0914670" lon="-8.8931650">
        <ele>23.3</ele>
        <time>2021-05-19T12:27:08Z</time>
      </trkpt>
      <trkpt lat="42.0914820" lon="-8.8931700">
        <ele>23.3</ele>
        <time>2021-05-19T12:27:09Z</time>
      </trkpt>
      <trkpt lat="42.0914910" lon="-8.8931720">
        <ele>23.2</ele>
        <time>2021-05-19T12:27:10Z</time>
      </trkpt>
      <trkpt lat="42.0915110" lon="-8.8931840">
        <ele>23.2</ele>
        <time>2021-05-19T12:27:11Z</time>
      </trkpt>
      <trkpt lat="42.0915210" lon="-8.8931900">
        <ele>23.2</ele>
        <time>2021-05-19T12:27:12Z</time>
      </trkpt>
      <trkpt lat="42.0915280" lon="-8.8931910">
        <ele>23.2</ele>
        <time>2021-05-19T12:27:13Z</time>
      </trkpt>
      <trkpt lat="42.0915430" lon="-8.8931960">
        <ele>23.1</ele>
        <time>2021-05-19T12:27:14Z</time>
      </trkpt>
      <trkpt lat="42.0915590" lon="-8.8932010">
        <ele>23.1</ele>
        <time>2021-05-19T12:27:15Z</time>
      </trkpt>
      <trkpt lat="42.0915750" lon="-8.8932100">
        <ele>23.1</ele>
        <time>2021-05-19T12:27:16Z</time>
      </trkpt>
      <trkpt lat="42.0915910" lon="-8.8932150">
        <ele>23.1</ele>
        <time>2021-05-19T12:27:17Z</time>
      </trkpt>
      <trkpt lat="42.0916020" lon="-8.8932220">
        <ele>23.0</ele>
        <time>2021-05-19T12:27:18Z</time>
      </trkpt>
      <trkpt lat="42.0916100" lon="-8.8932210">
        <ele>23.0</ele>
        <time>2021-05-19T12:27:19Z</time>
      </trkpt>
      <trkpt lat="42.0916220" lon="-8.8932300">
        <ele>23.0</ele>
        <time>2021-05-19T12:27:20Z</time>
      </trkpt>
      <trkpt lat="42.0916290" lon="-8.8932290">
        <ele>23.0</ele>
        <time>2021-05-19T12:27:21Z</time>
      </trkpt>
      <trkpt lat="42.0916370" lon="-8.8932190">
        <ele>23.0</ele>
        <time>2021-05-19T12:27:22Z</time>
      </trkpt>
      <trkpt lat="42.0916500" lon="-8.8931960">
        <ele>22.9</ele>
        <time>2021-05-19T12:27:23Z</time>
      </trkpt>
      <trkpt lat="42.0916570" lon="-8.8931840">
        <ele>22.9</ele>
        <time>2021-05-19T12:27:24Z</time>
      </trkpt>
      <trkpt lat="42.0916640" lon="-8.8931730">
        <ele>22.9</ele>
        <time>2021-05-19T12:27:25Z</time>
      </trkpt>
      <trkpt lat="42.0916750" lon="-8.8931660">
        <ele>22.9</ele>
        <time>2021-05-19T12:27:26Z</time>
      </trkpt>
      <trkpt lat="42.0916900" lon="-8.8931600">
        <ele>22.8</ele>
        <time>2021-05-19T12:27:27Z</time>
      </trkpt>
      <trkpt lat="42.0917130" lon="-8.8931620">
        <ele>22.8</ele>
        <time>2021-05-19T12:27:28Z</time>
      </trkpt>
      <trkpt lat="42.0917210" lon="-8.8931630">
        <ele>22.8</ele>
        <time>2021-05-19T12:27:29Z</time>
      </trkpt>
      <trkpt lat="42.0917290" lon="-8.8931630">
        <ele>22.8</ele>
        <time>2021-05-19T12:27:30Z</time>
      </trkpt>
      <trkpt lat="42.0917440" lon="-8.8931590">
        <ele>22.8</ele>
        <time>2021-05-19T12:27:31Z</time>
      </trkpt>
      <trkpt lat="42.0917540" lon="-8.8931620">
        <ele>22.7</ele>
        <time>2021-05-19T12:27:32Z</time>
      </trkpt>
      <trkpt lat="42.0917600" lon="-8.8931580">
        <ele>22.7</ele>
        <time>2021-05-19T12:27:33Z</time>
      </trkpt>
      <trkpt lat="42.0917750" lon="-8.8931560">
        <ele>22.7</ele>
        <time>2021-05-19T12:27:34Z</time>
      </trkpt>
      <trkpt lat="42.0917880" lon="-8.8931590">
        <ele>22.7</ele>
        <time>2021-05-19T12:27:35Z</time>
      </trkpt>
      <trkpt lat="42.0918060" lon="-8.8931530">
        <ele>22.7</ele>
        <time>2021-05-19T12:27:36Z</time>
      </trkpt>
      <trkpt lat="42.0918150" lon="-8.8931520">
        <ele>22.7</ele>
        <time>2021-05-19T12:27:37Z</time>
      </trkpt>
      <trkpt lat="42.0918250" lon="-8.8931500">
        <ele>22.7</ele>
        <time>2021-05-19T12:27:38Z</time>
      </trkpt>
      <trkpt lat="42.0918390" lon="-8.8931500">
        <ele>22.7</ele>
        <time>2021-05-19T12:27:39Z</time>
      </trkpt>
      <trkpt lat="42.0918470" lon="-8.8931490">
        <ele>22.7</ele>
        <time>2021-05-19T12:27:40Z</time>
      </trkpt>
      <trkpt lat="42.0918560" lon="-8.8931470">
        <ele>22.7</ele>
        <time>2021-05-19T12:27:41Z</time>
      </trkpt>
      <trkpt lat="42.0918610" lon="-8.8931400">
        <ele>22.7</ele>
        <time>2021-05-19T12:27:42Z</time>
      </trkpt>
      <trkpt lat="42.0918730" lon="-8.8931410">
        <ele>22.7</ele>
        <time>2021-05-19T12:27:43Z</time>
      </trkpt>
      <trkpt lat="42.0918910" lon="-8.8931360">
        <ele>22.7</ele>
        <time>2021-05-19T12:27:44Z</time>
      </trkpt>
      <trkpt lat="42.0918990" lon="-8.8931370">
        <ele>22.7</ele>
        <time>2021-05-19T12:27:45Z</time>
      </trkpt>
      <trkpt lat="42.0919190" lon="-8.8931430">
        <ele>22.8</ele>
        <time>2021-05-19T12:27:46Z</time>
      </trkpt>
      <trkpt lat="42.0919340" lon="-8.8931540">
        <ele>22.8</ele>
        <time>2021-05-19T12:27:47Z</time>
      </trkpt>
      <trkpt lat="42.0919460" lon="-8.8931590">
        <ele>22.8</ele>
        <time>2021-05-19T12:27:48Z</time>
      </trkpt>
      <trkpt lat="42.0919690" lon="-8.8931620">
        <ele>22.8</ele>
        <time>2021-05-19T12:27:49Z</time>
      </trkpt>
      <trkpt lat="42.0919760" lon="-8.8931650">
        <ele>22.8</ele>
        <time>2021-05-19T12:27:50Z</time>
      </trkpt>
      <trkpt lat="42.0919840" lon="-8.8931670">
        <ele>22.8</ele>
        <time>2021-05-19T12:27:51Z</time>
      </trkpt>
      <trkpt lat="42.0920030" lon="-8.8931750">
        <ele>22.9</ele>
        <time>2021-05-19T12:27:52Z</time>
      </trkpt>
      <trkpt lat="42.0920130" lon="-8.8931770">
        <ele>22.9</ele>
        <time>2021-05-19T12:27:53Z</time>
      </trkpt>
      <trkpt lat="42.0920220" lon="-8.8931780">
        <ele>22.9</ele>
        <time>2021-05-19T12:27:54Z</time>
      </trkpt>
      <trkpt lat="42.0920430" lon="-8.8931770">
        <ele>22.9</ele>
        <time>2021-05-19T12:27:55Z</time>
      </trkpt>
      <trkpt lat="42.0920540" lon="-8.8931750">
        <ele>22.9</ele>
        <time>2021-05-19T12:27:56Z</time>
      </trkpt>
      <trkpt lat="42.0920650" lon="-8.8931740">
        <ele>22.9</ele>
        <time>2021-05-19T12:27:57Z</time>
      </trkpt>
      <trkpt lat="42.0920700" lon="-8.8931710">
        <ele>22.9</ele>
        <time>2021-05-19T12:27:58Z</time>
      </trkpt>
      <trkpt lat="42.0920830" lon="-8.8931760">
        <ele>23.0</ele>
        <time>2021-05-19T12:27:59Z</time>
      </trkpt>
      <trkpt lat="42.0921000" lon="-8.8931770">
        <ele>23.0</ele>
        <time>2021-05-19T12:28:00Z</time>
      </trkpt>
      <trkpt lat="42.0921070" lon="-8.8931740">
        <ele>23.0</ele>
        <time>2021-05-19T12:28:01Z</time>
      </trkpt>
      <trkpt lat="42.0921230" lon="-8.8931810">
        <ele>23.0</ele>
        <time>2021-05-19T12:28:02Z</time>
      </trkpt>
      <trkpt lat="42.0921310" lon="-8.8931840">
        <ele>23.0</ele>
        <time>2021-05-19T12:28:03Z</time>
      </trkpt>
      <trkpt lat="42.0921460" lon="-8.8931810">
        <ele>23.0</ele>
        <time>2021-05-19T12:28:04Z</time>
      </trkpt>
      <trkpt lat="42.0921580" lon="-8.8931820">
        <ele>23.0</ele>
        <time>2021-05-19T12:28:05Z</time>
      </trkpt>
      <trkpt lat="42.0921730" lon="-8.8931810">
        <ele>23.1</ele>
        <time>2021-05-19T12:28:06Z</time>
      </trkpt>
      <trkpt lat="42.0921830" lon="-8.8931820">
        <ele>23.1</ele>
        <time>2021-05-19T12:28:07Z</time>
      </trkpt>
      <trkpt lat="42.0921920" lon="-8.8931830">
        <ele>23.1</ele>
        <time>2021-05-19T12:28:08Z</time>
      </trkpt>
      <trkpt lat="42.0922010" lon="-8.8931840">
        <ele>23.1</ele>
        <time>2021-05-19T12:28:09Z</time>
      </trkpt>
      <trkpt lat="42.0922130" lon="-8.8931850">
        <ele>23.1</ele>
        <time>2021-05-19T12:28:10Z</time>
      </trkpt>
      <trkpt lat="42.0922250" lon="-8.8931860">
        <ele>23.1</ele>
        <time>2021-05-19T12:28:11Z</time>
      </trkpt>
      <trkpt lat="42.0922320" lon="-8.8931880">
        <ele>23.1</ele>
        <time>2021-05-19T12:28:12Z</time>
      </trkpt>
      <trkpt lat="42.0922350" lon="-8.8931840">
        <ele>23.1</ele>
        <time>2021-05-19T12:28:13Z</time>
      </trkpt>
      <trkpt lat="42.0922440" lon="-8.8931840">
        <ele>23.1</ele>
        <time>2021-05-19T12:28:14Z</time>
      </trkpt>
      <trkpt lat="42.0922610" lon="-8.8931840">
        <ele>23.2</ele>
        <time>2021-05-19T12:28:15Z</time>
      </trkpt>
      <trkpt lat="42.0922700" lon="-8.8931930">
        <ele>23.2</ele>
        <time>2021-05-19T12:28:16Z</time>
      </trkpt>
      <trkpt lat="42.0922820" lon="-8.8932010">
        <ele>23.2</ele>
        <time>2021-05-19T12:28:17Z</time>
      </trkpt>
      <trkpt lat="42.0922940" lon="-8.8932000">
        <ele>23.2</ele>
        <time>2021-05-19T12:28:18Z</time>
      </trkpt>
      <trkpt lat="42.0923100" lon="-8.8932070">
        <ele>23.3</ele>
        <time>2021-05-19T12:28:19Z</time>
      </trkpt>
      <trkpt lat="42.0923250" lon="-8.8931970">
        <ele>23.3</ele>
        <time>2021-05-19T12:28:20Z</time>
      </trkpt>
      <trkpt lat="42.0923440" lon="-8.8931950">
        <ele>23.4</ele>
        <time>2021-05-19T12:28:21Z</time>
      </trkpt>
      <trkpt lat="42.0923530" lon="-8.8931940">
        <ele>23.4</ele>
        <time>2021-05-19T12:28:22Z</time>
      </trkpt>
      <trkpt lat="42.0923630" lon="-8.8931930">
        <ele>23.4</ele>
        <time>2021-05-19T12:28:23Z</time>
      </trkpt>
      <trkpt lat="42.0923790" lon="-8.8931890">
        <ele>23.4</ele>
        <time>2021-05-19T12:28:24Z</time>
      </trkpt>
      <trkpt lat="42.0923920" lon="-8.8931860">
        <ele>23.5</ele>
        <time>2021-05-19T12:28:25Z</time>
      </trkpt>
      <trkpt lat="42.0924040" lon="-8.8931900">
        <ele>23.5</ele>
        <time>2021-05-19T12:28:26Z</time>
      </trkpt>
      <trkpt lat="42.0924140" lon="-8.8931880">
        <ele>23.5</ele>
        <time>2021-05-19T12:28:27Z</time>
      </trkpt>
      <trkpt lat="42.0924190" lon="-8.8931800">
        <ele>23.6</ele>
        <time>2021-05-19T12:28:28Z</time>
      </trkpt>
      <trkpt lat="42.0924320" lon="-8.8931740">
        <ele>23.6</ele>
        <time>2021-05-19T12:28:29Z</time>
      </trkpt>
      <trkpt lat="42.0924420" lon="-8.8931710">
        <ele>23.6</ele>
        <time>2021-05-19T12:28:30Z</time>
      </trkpt>
      <trkpt lat="42.0924520" lon="-8.8931690">
        <ele>23.6</ele>
        <time>2021-05-19T12:28:31Z</time>
      </trkpt>
      <trkpt lat="42.0924630" lon="-8.8931590">
        <ele>23.7</ele>
        <time>2021-05-19T12:28:32Z</time>
      </trkpt>
      <trkpt lat="42.0924750" lon="-8.8931640">
        <ele>23.7</ele>
        <time>2021-05-19T12:28:33Z</time>
      </trkpt>
      <trkpt lat="42.0924850" lon="-8.8931630">
        <ele>23.7</ele>
        <time>2021-05-19T12:28:34Z</time>
      </trkpt>
      <trkpt lat="42.0925000" lon="-8.8931590">
        <ele>23.8</ele>
        <time>2021-05-19T12:28:35Z</time>
      </trkpt>
      <trkpt lat="42.0925130" lon="-8.8931550">
        <ele>23.8</ele>
        <time>2021-05-19T12:28:36Z</time>
      </trkpt>
      <trkpt lat="42.0925230" lon="-8.8931510">
        <ele>23.8</ele>
        <time>2021-05-19T12:28:37Z</time>
      </trkpt>
      <trkpt lat="42.0925350" lon="-8.8931510">
        <ele>23.9</ele>
        <time>2021-05-19T12:28:38Z</time>
      </trkpt>
      <trkpt lat="42.0925420" lon="-8.8931450">
        <ele>24.0</ele>
        <time>2021-05-19T12:28:39Z</time>
      </trkpt>
      <trkpt lat="42.0925610" lon="-8.8931400">
        <ele>24.1</ele>
        <time>2021-05-19T12:28:40Z</time>
      </trkpt>
      <trkpt lat="42.0925720" lon="-8.8931380">
        <ele>24.2</ele>
        <time>2021-05-19T12:28:41Z</time>
      </trkpt>
      <trkpt lat="42.0925820" lon="-8.8931350">
        <ele>24.3</ele>
        <time>2021-05-19T12:28:42Z</time>
      </trkpt>
      <trkpt lat="42.0925940" lon="-8.8931280">
        <ele>24.4</ele>
        <time>2021-05-19T12:28:43Z</time>
      </trkpt>
      <trkpt lat="42.0926090" lon="-8.8931290">
        <ele>24.5</ele>
        <time>2021-05-19T12:28:44Z</time>
      </trkpt>
      <trkpt lat="42.0926280" lon="-8.8931210">
        <ele>24.6</ele>
        <time>2021-05-19T12:28:45Z</time>
      </trkpt>
      <trkpt lat="42.0926360" lon="-8.8931140">
        <ele>24.7</ele>
        <time>2021-05-19T12:28:46Z</time>
      </trkpt>
      <trkpt lat="42.0926450" lon="-8.8931080">
        <ele>24.7</ele>
        <time>2021-05-19T12:28:47Z</time>
      </trkpt>
      <trkpt lat="42.0926560" lon="-8.8930990">
        <ele>24.8</ele>
        <time>2021-05-19T12:28:48Z</time>
      </trkpt>
      <trkpt lat="42.0926640" lon="-8.8930940">
        <ele>24.9</ele>
        <time>2021-05-19T12:28:49Z</time>
      </trkpt>
      <trkpt lat="42.0926730" lon="-8.8930910">
        <ele>25.0</ele>
        <time>2021-05-19T12:28:50Z</time>
      </trkpt>
      <trkpt lat="42.0926820" lon="-8.8930850">
        <ele>25.0</ele>
        <time>2021-05-19T12:28:51Z</time>
      </trkpt>
      <trkpt lat="42.0926920" lon="-8.8930750">
        <ele>25.1</ele>
        <time>2021-05-19T12:28:52Z</time>
      </trkpt>
      <trkpt lat="42.0927040" lon="-8.8930660">
        <ele>25.2</ele>
        <time>2021-05-19T12:28:53Z</time>
      </trkpt>
      <trkpt lat="42.0927180" lon="-8.8930510">
        <ele>25.4</ele>
        <time>2021-05-19T12:28:54Z</time>
      </trkpt>
      <trkpt lat="42.0927340" lon="-8.8930490">
        <ele>25.5</ele>
        <time>2021-05-19T12:28:55Z</time>
      </trkpt>
      <trkpt lat="42.0927400" lon="-8.8930410">
        <ele>25.6</ele>
        <time>2021-05-19T12:28:56Z</time>
      </trkpt>
      <trkpt lat="42.0927520" lon="-8.8930360">
        <ele>25.7</ele>
        <time>2021-05-19T12:28:57Z</time>
      </trkpt>
      <trkpt lat="42.0927580" lon="-8.8930310">
        <ele>25.7</ele>
        <time>2021-05-19T12:28:58Z</time>
      </trkpt>
      <trkpt lat="42.0927650" lon="-8.8930180">
        <ele>25.8</ele>
        <time>2021-05-19T12:28:59Z</time>
      </trkpt>
      <trkpt lat="42.0927730" lon="-8.8930120">
        <ele>25.9</ele>
        <time>2021-05-19T12:29:00Z</time>
      </trkpt>
      <trkpt lat="42.0927850" lon="-8.8930090">
        <ele>26.0</ele>
        <time>2021-05-19T12:29:01Z</time>
      </trkpt>
      <trkpt lat="42.0927960" lon="-8.8930000">
        <ele>26.1</ele>
        <time>2021-05-19T12:29:02Z</time>
      </trkpt>
      <trkpt lat="42.0928060" lon="-8.8929890">
        <ele>26.2</ele>
        <time>2021-05-19T12:29:03Z</time>
      </trkpt>
      <trkpt lat="42.0928120" lon="-8.8929830">
        <ele>26.3</ele>
        <time>2021-05-19T12:29:04Z</time>
      </trkpt>
      <trkpt lat="42.0928200" lon="-8.8929750">
        <ele>26.4</ele>
        <time>2021-05-19T12:29:05Z</time>
      </trkpt>
      <trkpt lat="42.0928300" lon="-8.8929690">
        <ele>26.5</ele>
        <time>2021-05-19T12:29:06Z</time>
      </trkpt>
      <trkpt lat="42.0928380" lon="-8.8929660">
        <ele>26.6</ele>
        <time>2021-05-19T12:29:07Z</time>
      </trkpt>
      <trkpt lat="42.0928360" lon="-8.8929640">
        <ele>26.6</ele>
        <time>2021-05-19T12:29:08Z</time>
      </trkpt>
      <trkpt lat="42.0928410" lon="-8.8929630">
        <ele>26.7</ele>
        <time>2021-05-19T12:29:09Z</time>
      </trkpt>
      <trkpt lat="42.0928450" lon="-8.8929570">
        <ele>26.7</ele>
        <time>2021-05-19T12:29:10Z</time>
      </trkpt>
      <trkpt lat="42.0928540" lon="-8.8929490">
        <ele>26.8</ele>
        <time>2021-05-19T12:29:11Z</time>
      </trkpt>
      <trkpt lat="42.0928640" lon="-8.8929430">
        <ele>26.9</ele>
        <time>2021-05-19T12:29:12Z</time>
      </trkpt>
      <trkpt lat="42.0928650" lon="-8.8929430">
        <ele>26.9</ele>
        <time>2021-05-19T12:29:13Z</time>
      </trkpt>
      <trkpt lat="42.0928730" lon="-8.8929440">
        <ele>27.0</ele>
        <time>2021-05-19T12:29:14Z</time>
      </trkpt>
      <trkpt lat="42.0928800" lon="-8.8929440">
        <ele>27.1</ele>
        <time>2021-05-19T12:29:15Z</time>
      </trkpt>
      <trkpt lat="42.0928920" lon="-8.8929400">
        <ele>27.2</ele>
        <time>2021-05-19T12:29:16Z</time>
      </trkpt>
      <trkpt lat="42.0929100" lon="-8.8929440">
        <ele>27.4</ele>
        <time>2021-05-19T12:29:17Z</time>
      </trkpt>
      <trkpt lat="42.0929230" lon="-8.8929410">
        <ele>27.5</ele>
        <time>2021-05-19T12:29:18Z</time>
      </trkpt>
      <trkpt lat="42.0929370" lon="-8.8929360">
        <ele>27.7</ele>
        <time>2021-05-19T12:29:19Z</time>
      </trkpt>
      <trkpt lat="42.0929500" lon="-8.8929390">
        <ele>27.8</ele>
        <time>2021-05-19T12:29:20Z</time>
      </trkpt>
      <trkpt lat="42.0929600" lon="-8.8929300">
        <ele>27.9</ele>
        <time>2021-05-19T12:29:21Z</time>
      </trkpt>
      <trkpt lat="42.0929760" lon="-8.8929270">
        <ele>28.0</ele>
        <time>2021-05-19T12:29:22Z</time>
      </trkpt>
      <trkpt lat="42.0929980" lon="-8.8929160">
        <ele>28.1</ele>
        <time>2021-05-19T12:29:23Z</time>
      </trkpt>
      <trkpt lat="42.0930050" lon="-8.8929140">
        <ele>28.1</ele>
        <time>2021-05-19T12:29:24Z</time>
      </trkpt>
      <trkpt lat="42.0930110" lon="-8.8929130">
        <ele>28.1</ele>
        <time>2021-05-19T12:29:25Z</time>
      </trkpt>
      <trkpt lat="42.0930200" lon="-8.8929110">
        <ele>28.2</ele>
        <time>2021-05-19T12:29:26Z</time>
      </trkpt>
      <trkpt lat="42.0930290" lon="-8.8929160">
        <ele>28.2</ele>
        <time>2021-05-19T12:29:27Z</time>
      </trkpt>
      <trkpt lat="42.0930340" lon="-8.8929210">
        <ele>28.2</ele>
        <time>2021-05-19T12:29:28Z</time>
      </trkpt>
      <trkpt lat="42.0930460" lon="-8.8929140">
        <ele>28.2</ele>
        <time>2021-05-19T12:29:29Z</time>
      </trkpt>
      <trkpt lat="42.0930540" lon="-8.8929100">
        <ele>28.3</ele>
        <time>2021-05-19T12:29:30Z</time>
      </trkpt>
      <trkpt lat="42.0930660" lon="-8.8929080">
        <ele>28.3</ele>
        <time>2021-05-19T12:29:31Z</time>
      </trkpt>
      <trkpt lat="42.0930760" lon="-8.8929040">
        <ele>28.3</ele>
        <time>2021-05-19T12:29:32Z</time>
      </trkpt>
      <trkpt lat="42.0930850" lon="-8.8929020">
        <ele>28.3</ele>
        <time>2021-05-19T12:29:33Z</time>
      </trkpt>
      <trkpt lat="42.0930920" lon="-8.8929000">
        <ele>28.3</ele>
        <time>2021-05-19T12:29:34Z</time>
      </trkpt>
      <trkpt lat="42.0931040" lon="-8.8928920">
        <ele>28.4</ele>
        <time>2021-05-19T12:29:35Z</time>
      </trkpt>
      <trkpt lat="42.0931170" lon="-8.8928920">
        <ele>28.4</ele>
        <time>2021-05-19T12:29:36Z</time>
      </trkpt>
      <trkpt lat="42.0931270" lon="-8.8928840">
        <ele>28.4</ele>
        <time>2021-05-19T12:29:37Z</time>
      </trkpt>
      <trkpt lat="42.0931220" lon="-8.8928820">
        <ele>28.4</ele>
        <time>2021-05-19T12:29:38Z</time>
      </trkpt>
      <trkpt lat="42.0931310" lon="-8.8928830">
        <ele>28.4</ele>
        <time>2021-05-19T12:29:39Z</time>
      </trkpt>
      <trkpt lat="42.0931400" lon="-8.8928820">
        <ele>28.4</ele>
        <time>2021-05-19T12:29:40Z</time>
      </trkpt>
      <trkpt lat="42.0931530" lon="-8.8928800">
        <ele>28.5</ele>
        <time>2021-05-19T12:29:41Z</time>
      </trkpt>
      <trkpt lat="42.0931630" lon="-8.8928830">
        <ele>28.5</ele>
        <time>2021-05-19T12:29:42Z</time>
      </trkpt>
      <trkpt lat="42.0931760" lon="-8.8928720">
        <ele>28.6</ele>
        <time>2021-05-19T12:29:43Z</time>
      </trkpt>
      <trkpt lat="42.0931890" lon="-8.8928680">
        <ele>28.6</ele>
        <time>2021-05-19T12:29:44Z</time>
      </trkpt>
      <trkpt lat="42.0932050" lon="-8.8928690">
        <ele>28.7</ele>
        <time>2021-05-19T12:29:45Z</time>
      </trkpt>
      <trkpt lat="42.0932190" lon="-8.8928630">
        <ele>28.8</ele>
        <time>2021-05-19T12:29:46Z</time>
      </trkpt>
      <trkpt lat="42.0932300" lon="-8.8928520">
        <ele>28.8</ele>
        <time>2021-05-19T12:29:47Z</time>
      </trkpt>
      <trkpt lat="42.0932350" lon="-8.8928450">
        <ele>28.9</ele>
        <time>2021-05-19T12:29:48Z</time>
      </trkpt>
      <trkpt lat="42.0932450" lon="-8.8928480">
        <ele>28.9</ele>
        <time>2021-05-19T12:29:49Z</time>
      </trkpt>
      <trkpt lat="42.0932520" lon="-8.8928410">
        <ele>29.0</ele>
        <time>2021-05-19T12:29:50Z</time>
      </trkpt>
      <trkpt lat="42.0932620" lon="-8.8928360">
        <ele>29.1</ele>
        <time>2021-05-19T12:29:51Z</time>
      </trkpt>
      <trkpt lat="42.0932700" lon="-8.8928300">
        <ele>29.1</ele>
        <time>2021-05-19T12:29:52Z</time>
      </trkpt>
      <trkpt lat="42.0932770" lon="-8.8928270">
        <ele>29.2</ele>
        <time>2021-05-19T12:29:53Z</time>
      </trkpt>
      <trkpt lat="42.0932830" lon="-8.8928120">
        <ele>29.3</ele>
        <time>2021-05-19T12:29:54Z</time>
      </trkpt>
      <trkpt lat="42.0932950" lon="-8.8928070">
        <ele>29.4</ele>
        <time>2021-05-19T12:29:55Z</time>
      </trkpt>
      <trkpt lat="42.0933030" lon="-8.8928020">
        <ele>29.5</ele>
        <time>2021-05-19T12:29:56Z</time>
      </trkpt>
      <trkpt lat="42.0933240" lon="-8.8928000">
        <ele>29.7</ele>
        <time>2021-05-19T12:29:57Z</time>
      </trkpt>
      <trkpt lat="42.0933370" lon="-8.8927910">
        <ele>29.8</ele>
        <time>2021-05-19T12:29:58Z</time>
      </trkpt>
      <trkpt lat="42.0933440" lon="-8.8927920">
        <ele>29.9</ele>
        <time>2021-05-19T12:29:59Z</time>
      </trkpt>
      <trkpt lat="42.0933540" lon="-8.8927910">
        <ele>30.0</ele>
        <time>2021-05-19T12:30:00Z</time>
      </trkpt>
      <trkpt lat="42.0933590" lon="-8.8927870">
        <ele>30.1</ele>
        <time>2021-05-19T12:30:01Z</time>
      </trkpt>
      <trkpt lat="42.0933720" lon="-8.8927850">
        <ele>30.2</ele>
        <time>2021-05-19T12:30:02Z</time>
      </trkpt>
      <trkpt lat="42.0933750" lon="-8.8927810">
        <ele>30.2</ele>
        <time>2021-05-19T12:30:03Z</time>
      </trkpt>
      <trkpt lat="42.0933870" lon="-8.8927790">
        <ele>30.4</ele>
        <time>2021-05-19T12:30:04Z</time>
      </trkpt>
      <trkpt lat="42.0934060" lon="-8.8927840">
        <ele>30.6</ele>
        <time>2021-05-19T12:30:05Z</time>
      </trkpt>
      <trkpt lat="42.0934170" lon="-8.8927740">
        <ele>30.7</ele>
        <time>2021-05-19T12:30:06Z</time>
      </trkpt>
      <trkpt lat="42.0934260" lon="-8.8927720">
        <ele>30.8</ele>
        <time>2021-05-19T12:30:07Z</time>
      </trkpt>
      <trkpt lat="42.0934390" lon="-8.8927720">
        <ele>31.0</ele>
        <time>2021-05-19T12:30:08Z</time>
      </trkpt>
      <trkpt lat="42.0934520" lon="-8.8927690">
        <ele>31.1</ele>
        <time>2021-05-19T12:30:09Z</time>
      </trkpt>
      <trkpt lat="42.0934630" lon="-8.8927670">
        <ele>31.2</ele>
        <time>2021-05-19T12:30:10Z</time>
      </trkpt>
      <trkpt lat="42.0934690" lon="-8.8927650">
        <ele>31.3</ele>
        <time>2021-05-19T12:30:11Z</time>
      </trkpt>
      <trkpt lat="42.0934760" lon="-8.8927580">
        <ele>31.4</ele>
        <time>2021-05-19T12:30:12Z</time>
      </trkpt>
      <trkpt lat="42.0934840" lon="-8.8927530">
        <ele>31.5</ele>
        <time>2021-05-19T12:30:13Z</time>
      </trkpt>
      <trkpt lat="42.0934940" lon="-8.8927500">
        <ele>31.6</ele>
        <time>2021-05-19T12:30:14Z</time>
      </trkpt>
      <trkpt lat="42.0935040" lon="-8.8927480">
        <ele>31.7</ele>
        <time>2021-05-19T12:30:15Z</time>
      </trkpt>
      <trkpt lat="42.0935200" lon="-8.8927430">
        <ele>31.9</ele>
        <time>2021-05-19T12:30:16Z</time>
      </trkpt>
      <trkpt lat="42.0935350" lon="-8.8927330">
        <ele>32.1</ele>
        <time>2021-05-19T12:30:17Z</time>
      </trkpt>
      <trkpt lat="42.0935420" lon="-8.8927300">
        <ele>32.2</ele>
        <time>2021-05-19T12:30:18Z</time>
      </trkpt>
      <trkpt lat="42.0935480" lon="-8.8927260">
        <ele>32.2</ele>
        <time>2021-05-19T12:30:19Z</time>
      </trkpt>
      <trkpt lat="42.0935540" lon="-8.8927230">
        <ele>32.3</ele>
        <time>2021-05-19T12:30:20Z</time>
      </trkpt>
      <trkpt lat="42.0935750" lon="-8.8927190">
        <ele>32.5</ele>
        <time>2021-05-19T12:30:21Z</time>
      </trkpt>
      <trkpt lat="42.0935820" lon="-8.8927130">
        <ele>32.6</ele>
        <time>2021-05-19T12:30:22Z</time>
      </trkpt>
      <trkpt lat="42.0935940" lon="-8.8927040">
        <ele>32.8</ele>
        <time>2021-05-19T12:30:23Z</time>
      </trkpt>
      <trkpt lat="42.0936080" lon="-8.8927010">
        <ele>32.9</ele>
        <time>2021-05-19T12:30:24Z</time>
      </trkpt>
      <trkpt lat="42.0936200" lon="-8.8927100">
        <ele>33.1</ele>
        <time>2021-05-19T12:30:25Z</time>
      </trkpt>
      <trkpt lat="42.0936310" lon="-8.8927140">
        <ele>33.2</ele>
        <time>2021-05-19T12:30:26Z</time>
      </trkpt>
      <trkpt lat="42.0936400" lon="-8.8927110">
        <ele>33.3</ele>
        <time>2021-05-19T12:30:27Z</time>
      </trkpt>
      <trkpt lat="42.0936560" lon="-8.8927110">
        <ele>33.5</ele>
        <time>2021-05-19T12:30:28Z</time>
      </trkpt>
      <trkpt lat="42.0936660" lon="-8.8927100">
        <ele>33.6</ele>
        <time>2021-05-19T12:30:29Z</time>
      </trkpt>
      <trkpt lat="42.0936750" lon="-8.8927090">
        <ele>33.7</ele>
        <time>2021-05-19T12:30:30Z</time>
      </trkpt>
      <trkpt lat="42.0936840" lon="-8.8927080">
        <ele>33.8</ele>
        <time>2021-05-19T12:30:31Z</time>
      </trkpt>
      <trkpt lat="42.0936920" lon="-8.8927080">
        <ele>33.8</ele>
        <time>2021-05-19T12:30:32Z</time>
      </trkpt>
      <trkpt lat="42.0937060" lon="-8.8927110">
        <ele>34.0</ele>
        <time>2021-05-19T12:30:33Z</time>
      </trkpt>
      <trkpt lat="42.0937170" lon="-8.8927030">
        <ele>34.1</ele>
        <time>2021-05-19T12:30:34Z</time>
      </trkpt>
      <trkpt lat="42.0937210" lon="-8.8927040">
        <ele>34.1</ele>
        <time>2021-05-19T12:30:35Z</time>
      </trkpt>
      <trkpt lat="42.0937160" lon="-8.8927030">
        <ele>34.2</ele>
        <time>2021-05-19T12:30:36Z</time>
      </trkpt>
      <trkpt lat="42.0937180" lon="-8.8927080">
        <ele>34.2</ele>
        <time>2021-05-19T12:30:37Z</time>
      </trkpt>
      <trkpt lat="42.0937230" lon="-8.8927130">
        <ele>34.2</ele>
        <time>2021-05-19T12:30:38Z</time>
      </trkpt>
      <trkpt lat="42.0937340" lon="-8.8927180">
        <ele>34.3</ele>
        <time>2021-05-19T12:30:39Z</time>
      </trkpt>
      <trkpt lat="42.0937450" lon="-8.8927160">
        <ele>34.4</ele>
        <time>2021-05-19T12:30:40Z</time>
      </trkpt>
      <trkpt lat="42.0937670" lon="-8.8927130">
        <ele>34.6</ele>
        <time>2021-05-19T12:30:41Z</time>
      </trkpt>
      <trkpt lat="42.0937750" lon="-8.8927070">
        <ele>34.6</ele>
        <time>2021-05-19T12:30:42Z</time>
      </trkpt>
      <trkpt lat="42.0937840" lon="-8.8927020">
        <ele>34.7</ele>
        <time>2021-05-19T12:30:43Z</time>
      </trkpt>
      <trkpt lat="42.0938040" lon="-8.8926940">
        <ele>34.9</ele>
        <time>2021-05-19T12:30:44Z</time>
      </trkpt>
      <trkpt lat="42.0938140" lon="-8.8926890">
        <ele>34.9</ele>
        <time>2021-05-19T12:30:45Z</time>
      </trkpt>
      <trkpt lat="42.0938240" lon="-8.8926850">
        <ele>35.0</ele>
        <time>2021-05-19T12:30:46Z</time>
      </trkpt>
      <trkpt lat="42.0938320" lon="-8.8926780">
        <ele>35.1</ele>
        <time>2021-05-19T12:30:47Z</time>
      </trkpt>
      <trkpt lat="42.0938380" lon="-8.8926700">
        <ele>35.2</ele>
        <time>2021-05-19T12:30:48Z</time>
      </trkpt>
      <trkpt lat="42.0938520" lon="-8.8926620">
        <ele>35.3</ele>
        <time>2021-05-19T12:30:49Z</time>
      </trkpt>
      <trkpt lat="42.0938580" lon="-8.8926590">
        <ele>35.3</ele>
        <time>2021-05-19T12:30:50Z</time>
      </trkpt>
      <trkpt lat="42.0938680" lon="-8.8926510">
        <ele>35.4</ele>
        <time>2021-05-19T12:30:51Z</time>
      </trkpt>
      <trkpt lat="42.0938800" lon="-8.8926500">
        <ele>35.5</ele>
        <time>2021-05-19T12:30:52Z</time>
      </trkpt>
      <trkpt lat="42.0938890" lon="-8.8926480">
        <ele>35.6</ele>
        <time>2021-05-19T12:30:53Z</time>
      </trkpt>
      <trkpt lat="42.0938950" lon="-8.8926490">
        <ele>35.7</ele>
        <time>2021-05-19T12:30:54Z</time>
      </trkpt>
      <trkpt lat="42.0939010" lon="-8.8926470">
        <ele>35.7</ele>
        <time>2021-05-19T12:30:55Z</time>
      </trkpt>
      <trkpt lat="42.0938930" lon="-8.8926510">
        <ele>35.8</ele>
        <time>2021-05-19T12:30:56Z</time>
      </trkpt>
      <trkpt lat="42.0938910" lon="-8.8926480">
        <ele>35.9</ele>
        <time>2021-05-19T12:30:57Z</time>
      </trkpt>
      <trkpt lat="42.0938920" lon="-8.8926480">
        <ele>35.9</ele>
        <time>2021-05-19T12:30:58Z</time>
      </trkpt>
      <trkpt lat="42.0938990" lon="-8.8926550">
        <ele>36.0</ele>
        <time>2021-05-19T12:30:59Z</time>
      </trkpt>
      <trkpt lat="42.0939040" lon="-8.8926560">
        <ele>36.0</ele>
        <time>2021-05-19T12:31:00Z</time>
      </trkpt>
      <trkpt lat="42.0939080" lon="-8.8926550">
        <ele>36.0</ele>
        <time>2021-05-19T12:31:01Z</time>
      </trkpt>
      <trkpt lat="42.0939080" lon="-8.8926510">
        <ele>36.1</ele>
        <time>2021-05-19T12:31:02Z</time>
      </trkpt>
      <trkpt lat="42.0939090" lon="-8.8926510">
        <ele>36.1</ele>
        <time>2021-05-19T12:31:03Z</time>
      </trkpt>
      <trkpt lat="42.0939090" lon="-8.8926460">
        <ele>36.1</ele>
        <time>2021-05-19T12:31:04Z</time>
      </trkpt>
      <trkpt lat="42.0939140" lon="-8.8926390">
        <ele>36.2</ele>
        <time>2021-05-19T12:31:05Z</time>
      </trkpt>
      <trkpt lat="42.0939180" lon="-8.8926330">
        <ele>36.3</ele>
        <time>2021-05-19T12:31:06Z</time>
      </trkpt>
      <trkpt lat="42.0939240" lon="-8.8926310">
        <ele>36.4</ele>
        <time>2021-05-19T12:31:07Z</time>
      </trkpt>
      <trkpt lat="42.0939360" lon="-8.8926280">
        <ele>36.5</ele>
        <time>2021-05-19T12:31:08Z</time>
      </trkpt>
      <trkpt lat="42.0939510" lon="-8.8926190">
        <ele>36.7</ele>
        <time>2021-05-19T12:31:09Z</time>
      </trkpt>
      <trkpt lat="42.0939580" lon="-8.8926140">
        <ele>36.8</ele>
        <time>2021-05-19T12:31:10Z</time>
      </trkpt>
      <trkpt lat="42.0939650" lon="-8.8926120">
        <ele>36.9</ele>
        <time>2021-05-19T12:31:11Z</time>
      </trkpt>
      <trkpt lat="42.0939660" lon="-8.8926140">
        <ele>37.0</ele>
        <time>2021-05-19T12:31:12Z</time>
      </trkpt>
      <trkpt lat="42.0939730" lon="-8.8926010">
        <ele>37.1</ele>
        <time>2021-05-19T12:31:13Z</time>
      </trkpt>
      <trkpt lat="42.0939830" lon="-8.8926010">
        <ele>37.3</ele>
        <time>2021-05-19T12:31:14Z</time>
      </trkpt>
      <trkpt lat="42.0939930" lon="-8.8925990">
        <ele>37.4</ele>
        <time>2021-05-19T12:31:15Z</time>
      </trkpt>
      <trkpt lat="42.0940100" lon="-8.8925980">
        <ele>37.7</ele>
        <time>2021-05-19T12:31:16Z</time>
      </trkpt>
      <trkpt lat="42.0940200" lon="-8.8925940">
        <ele>37.8</ele>
        <time>2021-05-19T12:31:17Z</time>
      </trkpt>
      <trkpt lat="42.0940290" lon="-8.8925910">
        <ele>38.0</ele>
        <time>2021-05-19T12:31:18Z</time>
      </trkpt>
      <trkpt lat="42.0940410" lon="-8.8925860">
        <ele>38.1</ele>
        <time>2021-05-19T12:31:19Z</time>
      </trkpt>
      <trkpt lat="42.0940590" lon="-8.8925730">
        <ele>38.4</ele>
        <time>2021-05-19T12:31:20Z</time>
      </trkpt>
      <trkpt lat="42.0940690" lon="-8.8925620">
        <ele>38.6</ele>
        <time>2021-05-19T12:31:21Z</time>
      </trkpt>
      <trkpt lat="42.0940770" lon="-8.8925540">
        <ele>38.8</ele>
        <time>2021-05-19T12:31:22Z</time>
      </trkpt>
      <trkpt lat="42.0940870" lon="-8.8925450">
        <ele>39.0</ele>
        <time>2021-05-19T12:31:23Z</time>
      </trkpt>
      <trkpt lat="42.0940950" lon="-8.8925450">
        <ele>39.1</ele>
        <time>2021-05-19T12:31:24Z</time>
      </trkpt>
      <trkpt lat="42.0941040" lon="-8.8925360">
        <ele>39.2</ele>
        <time>2021-05-19T12:31:25Z</time>
      </trkpt>
      <trkpt lat="42.0941150" lon="-8.8925310">
        <ele>39.4</ele>
        <time>2021-05-19T12:31:26Z</time>
      </trkpt>
      <trkpt lat="42.0941200" lon="-8.8925330">
        <ele>39.5</ele>
        <time>2021-05-19T12:31:27Z</time>
      </trkpt>
      <trkpt lat="42.0941310" lon="-8.8925260">
        <ele>39.6</ele>
        <time>2021-05-19T12:31:28Z</time>
      </trkpt>
      <trkpt lat="42.0941360" lon="-8.8925220">
        <ele>39.7</ele>
        <time>2021-05-19T12:31:29Z</time>
      </trkpt>
      <trkpt lat="42.0941450" lon="-8.8925110">
        <ele>39.8</ele>
        <time>2021-05-19T12:31:30Z</time>
      </trkpt>
      <trkpt lat="42.0941530" lon="-8.8925070">
        <ele>39.9</ele>
        <time>2021-05-19T12:31:31Z</time>
      </trkpt>
      <trkpt lat="42.0941680" lon="-8.8925000">
        <ele>40.1</ele>
        <time>2021-05-19T12:31:32Z</time>
      </trkpt>
      <trkpt lat="42.0941780" lon="-8.8924980">
        <ele>40.2</ele>
        <time>2021-05-19T12:31:33Z</time>
      </trkpt>
      <trkpt lat="42.0941860" lon="-8.8924910">
        <ele>40.3</ele>
        <time>2021-05-19T12:31:34Z</time>
      </trkpt>
      <trkpt lat="42.0941990" lon="-8.8924860">
        <ele>40.5</ele>
        <time>2021-05-19T12:31:35Z</time>
      </trkpt>
      <trkpt lat="42.0942080" lon="-8.8924800">
        <ele>40.6</ele>
        <time>2021-05-19T12:31:36Z</time>
      </trkpt>
      <trkpt lat="42.0942130" lon="-8.8924720">
        <ele>40.6</ele>
        <time>2021-05-19T12:31:37Z</time>
      </trkpt>
      <trkpt lat="42.0942220" lon="-8.8924670">
        <ele>40.7</ele>
        <time>2021-05-19T12:31:38Z</time>
      </trkpt>
      <trkpt lat="42.0942300" lon="-8.8924590">
        <ele>40.8</ele>
        <time>2021-05-19T12:31:39Z</time>
      </trkpt>
      <trkpt lat="42.0942400" lon="-8.8924500">
        <ele>40.9</ele>
        <time>2021-05-19T12:31:40Z</time>
      </trkpt>
      <trkpt lat="42.0942540" lon="-8.8924410">
        <ele>41.1</ele>
        <time>2021-05-19T12:31:41Z</time>
      </trkpt>
      <trkpt lat="42.0942590" lon="-8.8924250">
        <ele>41.2</ele>
        <time>2021-05-19T12:31:42Z</time>
      </trkpt>
      <trkpt lat="42.0942680" lon="-8.8924170">
        <ele>41.3</ele>
        <time>2021-05-19T12:31:43Z</time>
      </trkpt>
      <trkpt lat="42.0942720" lon="-8.8924090">
        <ele>41.4</ele>
        <time>2021-05-19T12:31:44Z</time>
      </trkpt>
      <trkpt lat="42.0942790" lon="-8.8923950">
        <ele>41.5</ele>
        <time>2021-05-19T12:31:45Z</time>
      </trkpt>
      <trkpt lat="42.0942870" lon="-8.8923860">
        <ele>41.6</ele>
        <time>2021-05-19T12:31:46Z</time>
      </trkpt>
      <trkpt lat="42.0942940" lon="-8.8923750">
        <ele>41.7</ele>
        <time>2021-05-19T12:31:47Z</time>
      </trkpt>
      <trkpt lat="42.0943060" lon="-8.8923670">
        <ele>41.8</ele>
        <time>2021-05-19T12:31:48Z</time>
      </trkpt>
      <trkpt lat="42.0943160" lon="-8.8923580">
        <ele>42.0</ele>
        <time>2021-05-19T12:31:50Z</time>
      </trkpt>
      <trkpt lat="42.0943190" lon="-8.8923560">
        <ele>42.0</ele>
        <time>2021-05-19T12:31:51Z</time>
      </trkpt>
      <trkpt lat="42.0943300" lon="-8.8923480">
        <ele>42.1</ele>
        <time>2021-05-19T12:31:52Z</time>
      </trkpt>
      <trkpt lat="42.0943390" lon="-8.8923390">
        <ele>42.3</ele>
        <time>2021-05-19T12:31:53Z</time>
      </trkpt>
      <trkpt lat="42.0943470" lon="-8.8923330">
        <ele>42.4</ele>
        <time>2021-05-19T12:31:54Z</time>
      </trkpt>
      <trkpt lat="42.0943570" lon="-8.8923290">
        <ele>42.5</ele>
        <time>2021-05-19T12:31:55Z</time>
      </trkpt>
      <trkpt lat="42.0943660" lon="-8.8923210">
        <ele>42.6</ele>
        <time>2021-05-19T12:31:56Z</time>
      </trkpt>
      <trkpt lat="42.0943750" lon="-8.8923170">
        <ele>42.7</ele>
        <time>2021-05-19T12:31:57Z</time>
      </trkpt>
      <trkpt lat="42.0943840" lon="-8.8923120">
        <ele>42.8</ele>
        <time>2021-05-19T12:31:58Z</time>
      </trkpt>
      <trkpt lat="42.0943880" lon="-8.8923050">
        <ele>42.9</ele>
        <time>2021-05-19T12:31:59Z</time>
      </trkpt>
      <trkpt lat="42.0944010" lon="-8.8922910">
        <ele>43.1</ele>
        <time>2021-05-19T12:32:00Z</time>
      </trkpt>
      <trkpt lat="42.0944080" lon="-8.8922820">
        <ele>43.2</ele>
        <time>2021-05-19T12:32:01Z</time>
      </trkpt>
      <trkpt lat="42.0944200" lon="-8.8922740">
        <ele>43.4</ele>
        <time>2021-05-19T12:32:02Z</time>
      </trkpt>
      <trkpt lat="42.0944330" lon="-8.8922680">
        <ele>43.6</ele>
        <time>2021-05-19T12:32:03Z</time>
      </trkpt>
      <trkpt lat="42.0944350" lon="-8.8922670">
        <ele>43.6</ele>
        <time>2021-05-19T12:32:04Z</time>
      </trkpt>
      <trkpt lat="42.0944360" lon="-8.8922550">
        <ele>43.7</ele>
        <time>2021-05-19T12:32:05Z</time>
      </trkpt>
      <trkpt lat="42.0944460" lon="-8.8922450">
        <ele>43.9</ele>
        <time>2021-05-19T12:32:06Z</time>
      </trkpt>
      <trkpt lat="42.0944550" lon="-8.8922400">
        <ele>44.0</ele>
        <time>2021-05-19T12:32:07Z</time>
      </trkpt>
      <trkpt lat="42.0944670" lon="-8.8922340">
        <ele>44.2</ele>
        <time>2021-05-19T12:32:08Z</time>
      </trkpt>
      <trkpt lat="42.0944740" lon="-8.8922240">
        <ele>44.3</ele>
        <time>2021-05-19T12:32:09Z</time>
      </trkpt>
      <trkpt lat="42.0944790" lon="-8.8922180">
        <ele>44.4</ele>
        <time>2021-05-19T12:32:10Z</time>
      </trkpt>
      <trkpt lat="42.0944900" lon="-8.8922130">
        <ele>44.5</ele>
        <time>2021-05-19T12:32:11Z</time>
      </trkpt>
      <trkpt lat="42.0945010" lon="-8.8922020">
        <ele>44.7</ele>
        <time>2021-05-19T12:32:12Z</time>
      </trkpt>
      <trkpt lat="42.0945070" lon="-8.8921920">
        <ele>44.8</ele>
        <time>2021-05-19T12:32:13Z</time>
      </trkpt>
      <trkpt lat="42.0945160" lon="-8.8921790">
        <ele>45.0</ele>
        <time>2021-05-19T12:32:14Z</time>
      </trkpt>
      <trkpt lat="42.0945180" lon="-8.8921710">
        <ele>45.1</ele>
        <time>2021-05-19T12:32:15Z</time>
      </trkpt>
      <trkpt lat="42.0945240" lon="-8.8921570">
        <ele>45.2</ele>
        <time>2021-05-19T12:32:16Z</time>
      </trkpt>
      <trkpt lat="42.0945350" lon="-8.8921500">
        <ele>45.4</ele>
        <time>2021-05-19T12:32:17Z</time>
      </trkpt>
      <trkpt lat="42.0945410" lon="-8.8921390">
        <ele>45.5</ele>
        <time>2021-05-19T12:32:18Z</time>
      </trkpt>
      <trkpt lat="42.0945470" lon="-8.8921340">
        <ele>45.6</ele>
        <time>2021-05-19T12:32:19Z</time>
      </trkpt>
      <trkpt lat="42.0945500" lon="-8.8921270">
        <ele>45.7</ele>
        <time>2021-05-19T12:32:20Z</time>
      </trkpt>
      <trkpt lat="42.0945660" lon="-8.8921290">
        <ele>45.9</ele>
        <time>2021-05-19T12:32:21Z</time>
      </trkpt>
      <trkpt lat="42.0945760" lon="-8.8921200">
        <ele>46.0</ele>
        <time>2021-05-19T12:32:22Z</time>
      </trkpt>
      <trkpt lat="42.0945870" lon="-8.8921110">
        <ele>46.2</ele>
        <time>2021-05-19T12:32:23Z</time>
      </trkpt>
      <trkpt lat="42.0946000" lon="-8.8921020">
        <ele>46.4</ele>
        <time>2021-05-19T12:32:24Z</time>
      </trkpt>
      <trkpt lat="42.0945990" lon="-8.8920980">
        <ele>46.4</ele>
        <time>2021-05-19T12:32:25Z</time>
      </trkpt>
      <trkpt lat="42.0945990" lon="-8.8920970">
        <ele>46.4</ele>
        <time>2021-05-19T12:32:26Z</time>
      </trkpt>
      <trkpt lat="42.0946040" lon="-8.8920880">
        <ele>46.5</ele>
        <time>2021-05-19T12:32:27Z</time>
      </trkpt>
      <trkpt lat="42.0946190" lon="-8.8920730">
        <ele>46.7</ele>
        <time>2021-05-19T12:32:28Z</time>
      </trkpt>
      <trkpt lat="42.0946290" lon="-8.8920700">
        <ele>46.8</ele>
        <time>2021-05-19T12:32:29Z</time>
      </trkpt>
      <trkpt lat="42.0946380" lon="-8.8920610">
        <ele>47.0</ele>
        <time>2021-05-19T12:32:30Z</time>
      </trkpt>
      <trkpt lat="42.0946440" lon="-8.8920630">
        <ele>47.0</ele>
        <time>2021-05-19T12:32:31Z</time>
      </trkpt>
      <trkpt lat="42.0946490" lon="-8.8920520">
        <ele>47.1</ele>
        <time>2021-05-19T12:32:32Z</time>
      </trkpt>
      <trkpt lat="42.0946550" lon="-8.8920500">
        <ele>47.2</ele>
        <time>2021-05-19T12:32:33Z</time>
      </trkpt>
      <trkpt lat="42.0946660" lon="-8.8920330">
        <ele>47.4</ele>
        <time>2021-05-19T12:32:34Z</time>
      </trkpt>
      <trkpt lat="42.0946730" lon="-8.8920230">
        <ele>47.5</ele>
        <time>2021-05-19T12:32:35Z</time>
      </trkpt>
      <trkpt lat="42.0946850" lon="-8.8920090">
        <ele>47.7</ele>
        <time>2021-05-19T12:32:36Z</time>
      </trkpt>
      <trkpt lat="42.0946980" lon="-8.8919990">
        <ele>47.8</ele>
        <time>2021-05-19T12:32:37Z</time>
      </trkpt>
      <trkpt lat="42.0947130" lon="-8.8919880">
        <ele>48.0</ele>
        <time>2021-05-19T12:32:38Z</time>
      </trkpt>
      <trkpt lat="42.0947210" lon="-8.8919780">
        <ele>48.1</ele>
        <time>2021-05-19T12:32:39Z</time>
      </trkpt>
      <trkpt lat="42.0947280" lon="-8.8919690">
        <ele>48.2</ele>
        <time>2021-05-19T12:32:40Z</time>
      </trkpt>
      <trkpt lat="42.0947300" lon="-8.8919640">
        <ele>48.3</ele>
        <time>2021-05-19T12:32:41Z</time>
      </trkpt>
      <trkpt lat="42.0947400" lon="-8.8919530">
        <ele>48.4</ele>
        <time>2021-05-19T12:32:42Z</time>
      </trkpt>
      <trkpt lat="42.0947540" lon="-8.8919430">
        <ele>48.6</ele>
        <time>2021-05-19T12:32:43Z</time>
      </trkpt>
      <trkpt lat="42.0947640" lon="-8.8919350">
        <ele>48.7</ele>
        <time>2021-05-19T12:32:44Z</time>
      </trkpt>
      <trkpt lat="42.0947680" lon="-8.8919270">
        <ele>48.8</ele>
        <time>2021-05-19T12:32:45Z</time>
      </trkpt>
      <trkpt lat="42.0947810" lon="-8.8919160">
        <ele>48.9</ele>
        <time>2021-05-19T12:32:46Z</time>
      </trkpt>
      <trkpt lat="42.0947930" lon="-8.8919120">
        <ele>49.0</ele>
        <time>2021-05-19T12:32:47Z</time>
      </trkpt>
      <trkpt lat="42.0948080" lon="-8.8919060">
        <ele>49.2</ele>
        <time>2021-05-19T12:32:48Z</time>
      </trkpt>
      <trkpt lat="42.0948200" lon="-8.8918980">
        <ele>49.3</ele>
        <time>2021-05-19T12:32:49Z</time>
      </trkpt>
      <trkpt lat="42.0948270" lon="-8.8918900">
        <ele>49.4</ele>
        <time>2021-05-19T12:32:50Z</time>
      </trkpt>
      <trkpt lat="42.0948340" lon="-8.8918830">
        <ele>49.5</ele>
        <time>2021-05-19T12:32:51Z</time>
      </trkpt>
      <trkpt lat="42.0948410" lon="-8.8918800">
        <ele>49.6</ele>
        <time>2021-05-19T12:32:52Z</time>
      </trkpt>
      <trkpt lat="42.0948540" lon="-8.8918670">
        <ele>49.7</ele>
        <time>2021-05-19T12:32:53Z</time>
      </trkpt>
      <trkpt lat="42.0948640" lon="-8.8918620">
        <ele>49.8</ele>
        <time>2021-05-19T12:32:54Z</time>
      </trkpt>
      <trkpt lat="42.0948730" lon="-8.8918560">
        <ele>49.9</ele>
        <time>2021-05-19T12:32:55Z</time>
      </trkpt>
      <trkpt lat="42.0948820" lon="-8.8918530">
        <ele>50.0</ele>
        <time>2021-05-19T12:32:56Z</time>
      </trkpt>
      <trkpt lat="42.0948930" lon="-8.8918470">
        <ele>50.1</ele>
        <time>2021-05-19T12:32:57Z</time>
      </trkpt>
      <trkpt lat="42.0949010" lon="-8.8918420">
        <ele>50.2</ele>
        <time>2021-05-19T12:32:58Z</time>
      </trkpt>
      <trkpt lat="42.0949090" lon="-8.8918400">
        <ele>50.2</ele>
        <time>2021-05-19T12:32:59Z</time>
      </trkpt>
      <trkpt lat="42.0949180" lon="-8.8918290">
        <ele>50.3</ele>
        <time>2021-05-19T12:33:00Z</time>
      </trkpt>
      <trkpt lat="42.0949320" lon="-8.8918290">
        <ele>50.5</ele>
        <time>2021-05-19T12:33:01Z</time>
      </trkpt>
      <trkpt lat="42.0949460" lon="-8.8918260">
        <ele>50.6</ele>
        <time>2021-05-19T12:33:02Z</time>
      </trkpt>
      <trkpt lat="42.0949560" lon="-8.8918230">
        <ele>50.6</ele>
        <time>2021-05-19T12:33:03Z</time>
      </trkpt>
      <trkpt lat="42.0949680" lon="-8.8918240">
        <ele>50.7</ele>
        <time>2021-05-19T12:33:04Z</time>
      </trkpt>
      <trkpt lat="42.0949770" lon="-8.8918200">
        <ele>50.8</ele>
        <time>2021-05-19T12:33:05Z</time>
      </trkpt>
      <trkpt lat="42.0949920" lon="-8.8918220">
        <ele>50.9</ele>
        <time>2021-05-19T12:33:06Z</time>
      </trkpt>
      <trkpt lat="42.0950100" lon="-8.8918270">
        <ele>51.1</ele>
        <time>2021-05-19T12:33:07Z</time>
      </trkpt>
      <trkpt lat="42.0950320" lon="-8.8918340">
        <ele>51.2</ele>
        <time>2021-05-19T12:33:08Z</time>
      </trkpt>
      <trkpt lat="42.0950390" lon="-8.8918360">
        <ele>51.3</ele>
        <time>2021-05-19T12:33:09Z</time>
      </trkpt>
      <trkpt lat="42.0950460" lon="-8.8918390">
        <ele>51.3</ele>
        <time>2021-05-19T12:33:10Z</time>
      </trkpt>
      <trkpt lat="42.0950600" lon="-8.8918390">
        <ele>51.4</ele>
        <time>2021-05-19T12:33:11Z</time>
      </trkpt>
      <trkpt lat="42.0950700" lon="-8.8918410">
        <ele>51.5</ele>
        <time>2021-05-19T12:33:12Z</time>
      </trkpt>
      <trkpt lat="42.0950660" lon="-8.8918370">
        <ele>51.5</ele>
        <time>2021-05-19T12:33:13Z</time>
      </trkpt>
      <trkpt lat="42.0950790" lon="-8.8918330">
        <ele>51.6</ele>
        <time>2021-05-19T12:33:14Z</time>
      </trkpt>
      <trkpt lat="42.0950930" lon="-8.8918340">
        <ele>51.7</ele>
        <time>2021-05-19T12:33:15Z</time>
      </trkpt>
      <trkpt lat="42.0950950" lon="-8.8918320">
        <ele>51.7</ele>
        <time>2021-05-19T12:33:16Z</time>
      </trkpt>
      <trkpt lat="42.0951050" lon="-8.8918350">
        <ele>51.8</ele>
        <time>2021-05-19T12:33:17Z</time>
      </trkpt>
      <trkpt lat="42.0951150" lon="-8.8918360">
        <ele>51.9</ele>
        <time>2021-05-19T12:33:18Z</time>
      </trkpt>
      <trkpt lat="42.0951370" lon="-8.8918350">
        <ele>52.1</ele>
        <time>2021-05-19T12:33:19Z</time>
      </trkpt>
      <trkpt lat="42.0951460" lon="-8.8918340">
        <ele>52.2</ele>
        <time>2021-05-19T12:33:20Z</time>
      </trkpt>
      <trkpt lat="42.0951550" lon="-8.8918320">
        <ele>52.3</ele>
        <time>2021-05-19T12:33:21Z</time>
      </trkpt>
      <trkpt lat="42.0951520" lon="-8.8918350">
        <ele>52.3</ele>
        <time>2021-05-19T12:33:22Z</time>
      </trkpt>
      <trkpt lat="42.0951630" lon="-8.8918440">
        <ele>52.5</ele>
        <time>2021-05-19T12:33:23Z</time>
      </trkpt>
      <trkpt lat="42.0951780" lon="-8.8918510">
        <ele>52.6</ele>
        <time>2021-05-19T12:33:24Z</time>
      </trkpt>
      <trkpt lat="42.0951870" lon="-8.8918540">
        <ele>52.8</ele>
        <time>2021-05-19T12:33:25Z</time>
      </trkpt>
      <trkpt lat="42.0952140" lon="-8.8918340">
        <ele>53.2</ele>
        <time>2021-05-19T12:33:26Z</time>
      </trkpt>
      <trkpt lat="42.0952210" lon="-8.8918320">
        <ele>53.3</ele>
        <time>2021-05-19T12:33:27Z</time>
      </trkpt>
      <trkpt lat="42.0952320" lon="-8.8918360">
        <ele>53.4</ele>
        <time>2021-05-19T12:33:28Z</time>
      </trkpt>
      <trkpt lat="42.0952450" lon="-8.8918460">
        <ele>53.6</ele>
        <time>2021-05-19T12:33:29Z</time>
      </trkpt>
      <trkpt lat="42.0952520" lon="-8.8918500">
        <ele>53.8</ele>
        <time>2021-05-19T12:33:30Z</time>
      </trkpt>
      <trkpt lat="42.0952580" lon="-8.8918420">
        <ele>53.9</ele>
        <time>2021-05-19T12:33:31Z</time>
      </trkpt>
      <trkpt lat="42.0952660" lon="-8.8918400">
        <ele>54.0</ele>
        <time>2021-05-19T12:33:32Z</time>
      </trkpt>
      <trkpt lat="42.0952720" lon="-8.8918370">
        <ele>54.1</ele>
        <time>2021-05-19T12:33:33Z</time>
      </trkpt>
      <trkpt lat="42.0952740" lon="-8.8918380">
        <ele>54.1</ele>
        <time>2021-05-19T12:33:34Z</time>
      </trkpt>
      <trkpt lat="42.0952810" lon="-8.8918360">
        <ele>54.2</ele>
        <time>2021-05-19T12:33:35Z</time>
      </trkpt>
      <trkpt lat="42.0952930" lon="-8.8918360">
        <ele>54.4</ele>
        <time>2021-05-19T12:33:36Z</time>
      </trkpt>
      <trkpt lat="42.0953010" lon="-8.8918330">
        <ele>54.5</ele>
        <time>2021-05-19T12:33:37Z</time>
      </trkpt>
      <trkpt lat="42.0953100" lon="-8.8918300">
        <ele>54.6</ele>
        <time>2021-05-19T12:33:38Z</time>
      </trkpt>
      <trkpt lat="42.0953180" lon="-8.8918270">
        <ele>54.7</ele>
        <time>2021-05-19T12:33:39Z</time>
      </trkpt>
      <trkpt lat="42.0953280" lon="-8.8918240">
        <ele>54.9</ele>
        <time>2021-05-19T12:33:40Z</time>
      </trkpt>
      <trkpt lat="42.0953390" lon="-8.8918230">
        <ele>55.0</ele>
        <time>2021-05-19T12:33:41Z</time>
      </trkpt>
      <trkpt lat="42.0953510" lon="-8.8918210">
        <ele>55.2</ele>
        <time>2021-05-19T12:33:42Z</time>
      </trkpt>
      <trkpt lat="42.0953630" lon="-8.8918180">
        <ele>55.3</ele>
        <time>2021-05-19T12:33:43Z</time>
      </trkpt>
      <trkpt lat="42.0953720" lon="-8.8918160">
        <ele>55.4</ele>
        <time>2021-05-19T12:33:44Z</time>
      </trkpt>
      <trkpt lat="42.0953820" lon="-8.8918060">
        <ele>55.5</ele>
        <time>2021-05-19T12:33:45Z</time>
      </trkpt>
      <trkpt lat="42.0953940" lon="-8.8918020">
        <ele>55.7</ele>
        <time>2021-05-19T12:33:46Z</time>
      </trkpt>
      <trkpt lat="42.0954020" lon="-8.8917990">
        <ele>55.7</ele>
        <time>2021-05-19T12:33:47Z</time>
      </trkpt>
      <trkpt lat="42.0954120" lon="-8.8917970">
        <ele>55.8</ele>
        <time>2021-05-19T12:33:48Z</time>
      </trkpt>
      <trkpt lat="42.0954200" lon="-8.8917950">
        <ele>55.9</ele>
        <time>2021-05-19T12:33:49Z</time>
      </trkpt>
      <trkpt lat="42.0954260" lon="-8.8917920">
        <ele>56.0</ele>
        <time>2021-05-19T12:33:50Z</time>
      </trkpt>
      <trkpt lat="42.0954380" lon="-8.8917900">
        <ele>56.1</ele>
        <time>2021-05-19T12:33:51Z</time>
      </trkpt>
      <trkpt lat="42.0954520" lon="-8.8917870">
        <ele>56.2</ele>
        <time>2021-05-19T12:33:52Z</time>
      </trkpt>
      <trkpt lat="42.0954680" lon="-8.8917830">
        <ele>56.3</ele>
        <time>2021-05-19T12:33:53Z</time>
      </trkpt>
      <trkpt lat="42.0954770" lon="-8.8917800">
        <ele>56.4</ele>
        <time>2021-05-19T12:33:54Z</time>
      </trkpt>
      <trkpt lat="42.0954900" lon="-8.8917780">
        <ele>56.5</ele>
        <time>2021-05-19T12:33:55Z</time>
      </trkpt>
      <trkpt lat="42.0954990" lon="-8.8917730">
        <ele>56.5</ele>
        <time>2021-05-19T12:33:56Z</time>
      </trkpt>
      <trkpt lat="42.0955100" lon="-8.8917680">
        <ele>56.6</ele>
        <time>2021-05-19T12:33:57Z</time>
      </trkpt>
      <trkpt lat="42.0955190" lon="-8.8917600">
        <ele>56.7</ele>
        <time>2021-05-19T12:33:58Z</time>
      </trkpt>
      <trkpt lat="42.0955300" lon="-8.8917540">
        <ele>56.7</ele>
        <time>2021-05-19T12:34:00Z</time>
      </trkpt>
      <trkpt lat="42.0955410" lon="-8.8917520">
        <ele>56.8</ele>
        <time>2021-05-19T12:34:01Z</time>
      </trkpt>
      <trkpt lat="42.0955490" lon="-8.8917430">
        <ele>56.9</ele>
        <time>2021-05-19T12:34:02Z</time>
      </trkpt>
      <trkpt lat="42.0955590" lon="-8.8917270">
        <ele>57.0</ele>
        <time>2021-05-19T12:34:03Z</time>
      </trkpt>
      <trkpt lat="42.0955690" lon="-8.8917150">
        <ele>57.0</ele>
        <time>2021-05-19T12:34:04Z</time>
      </trkpt>
      <trkpt lat="42.0955780" lon="-8.8917090">
        <ele>57.1</ele>
        <time>2021-05-19T12:34:05Z</time>
      </trkpt>
      <trkpt lat="42.0955840" lon="-8.8917030">
        <ele>57.1</ele>
        <time>2021-05-19T12:34:06Z</time>
      </trkpt>
      <trkpt lat="42.0955900" lon="-8.8916970">
        <ele>57.2</ele>
        <time>2021-05-19T12:34:07Z</time>
      </trkpt>
      <trkpt lat="42.0955990" lon="-8.8916860">
        <ele>57.3</ele>
        <time>2021-05-19T12:34:08Z</time>
      </trkpt>
      <trkpt lat="42.0956100" lon="-8.8916770">
        <ele>57.3</ele>
        <time>2021-05-19T12:34:09Z</time>
      </trkpt>
      <trkpt lat="42.0956180" lon="-8.8916690">
        <ele>57.4</ele>
        <time>2021-05-19T12:34:10Z</time>
      </trkpt>
      <trkpt lat="42.0956280" lon="-8.8916630">
        <ele>57.5</ele>
        <time>2021-05-19T12:34:11Z</time>
      </trkpt>
      <trkpt lat="42.0956380" lon="-8.8916570">
        <ele>57.6</ele>
        <time>2021-05-19T12:34:12Z</time>
      </trkpt>
      <trkpt lat="42.0956460" lon="-8.8916510">
        <ele>57.7</ele>
        <time>2021-05-19T12:34:13Z</time>
      </trkpt>
      <trkpt lat="42.0956550" lon="-8.8916440">
        <ele>57.7</ele>
        <time>2021-05-19T12:34:14Z</time>
      </trkpt>
      <trkpt lat="42.0956630" lon="-8.8916380">
        <ele>57.8</ele>
        <time>2021-05-19T12:34:15Z</time>
      </trkpt>
      <trkpt lat="42.0956730" lon="-8.8916270">
        <ele>57.9</ele>
        <time>2021-05-19T12:34:16Z</time>
      </trkpt>
      <trkpt lat="42.0956810" lon="-8.8916160">
        <ele>58.0</ele>
        <time>2021-05-19T12:34:17Z</time>
      </trkpt>
      <trkpt lat="42.0956880" lon="-8.8916080">
        <ele>58.1</ele>
        <time>2021-05-19T12:34:18Z</time>
      </trkpt>
      <trkpt lat="42.0957000" lon="-8.8915960">
        <ele>58.3</ele>
        <time>2021-05-19T12:34:19Z</time>
      </trkpt>
      <trkpt lat="42.0957030" lon="-8.8915930">
        <ele>58.3</ele>
        <time>2021-05-19T12:34:20Z</time>
      </trkpt>
      <trkpt lat="42.0957100" lon="-8.8915810">
        <ele>58.4</ele>
        <time>2021-05-19T12:34:21Z</time>
      </trkpt>
      <trkpt lat="42.0957150" lon="-8.8915690">
        <ele>58.5</ele>
        <time>2021-05-19T12:34:22Z</time>
      </trkpt>
      <trkpt lat="42.0957240" lon="-8.8915630">
        <ele>58.7</ele>
        <time>2021-05-19T12:34:23Z</time>
      </trkpt>
      <trkpt lat="42.0957290" lon="-8.8915540">
        <ele>58.7</ele>
        <time>2021-05-19T12:34:24Z</time>
      </trkpt>
      <trkpt lat="42.0957380" lon="-8.8915430">
        <ele>58.9</ele>
        <time>2021-05-19T12:34:25Z</time>
      </trkpt>
      <trkpt lat="42.0957430" lon="-8.8915350">
        <ele>59.0</ele>
        <time>2021-05-19T12:34:26Z</time>
      </trkpt>
      <trkpt lat="42.0957530" lon="-8.8915240">
        <ele>59.2</ele>
        <time>2021-05-19T12:34:27Z</time>
      </trkpt>
      <trkpt lat="42.0957610" lon="-8.8915180">
        <ele>59.3</ele>
        <time>2021-05-19T12:34:28Z</time>
      </trkpt>
      <trkpt lat="42.0957690" lon="-8.8915110">
        <ele>59.4</ele>
        <time>2021-05-19T12:34:29Z</time>
      </trkpt>
      <trkpt lat="42.0957790" lon="-8.8914940">
        <ele>59.6</ele>
        <time>2021-05-19T12:34:30Z</time>
      </trkpt>
      <trkpt lat="42.0957890" lon="-8.8914840">
        <ele>59.8</ele>
        <time>2021-05-19T12:34:31Z</time>
      </trkpt>
      <trkpt lat="42.0957900" lon="-8.8914760">
        <ele>59.9</ele>
        <time>2021-05-19T12:34:32Z</time>
      </trkpt>
      <trkpt lat="42.0957970" lon="-8.8914590">
        <ele>60.1</ele>
        <time>2021-05-19T12:34:33Z</time>
      </trkpt>
      <trkpt lat="42.0958040" lon="-8.8914530">
        <ele>60.3</ele>
        <time>2021-05-19T12:34:34Z</time>
      </trkpt>
      <trkpt lat="42.0958110" lon="-8.8914400">
        <ele>60.4</ele>
        <time>2021-05-19T12:34:35Z</time>
      </trkpt>
      <trkpt lat="42.0958170" lon="-8.8914270">
        <ele>60.6</ele>
        <time>2021-05-19T12:34:36Z</time>
      </trkpt>
      <trkpt lat="42.0958240" lon="-8.8914170">
        <ele>60.8</ele>
        <time>2021-05-19T12:34:37Z</time>
      </trkpt>
      <trkpt lat="42.0958270" lon="-8.8914130">
        <ele>60.8</ele>
        <time>2021-05-19T12:34:38Z</time>
      </trkpt>
      <trkpt lat="42.0958320" lon="-8.8914030">
        <ele>60.9</ele>
        <time>2021-05-19T12:34:39Z</time>
      </trkpt>
      <trkpt lat="42.0958370" lon="-8.8913990">
        <ele>61.0</ele>
        <time>2021-05-19T12:34:40Z</time>
      </trkpt>
      <trkpt lat="42.0958390" lon="-8.8913940">
        <ele>61.1</ele>
        <time>2021-05-19T12:34:41Z</time>
      </trkpt>
      <trkpt lat="42.0958440" lon="-8.8913830">
        <ele>61.2</ele>
        <time>2021-05-19T12:34:42Z</time>
      </trkpt>
      <trkpt lat="42.0958440" lon="-8.8913850">
        <ele>61.3</ele>
        <time>2021-05-19T12:34:43Z</time>
      </trkpt>
      <trkpt lat="42.0958440" lon="-8.8913820">
        <ele>61.3</ele>
        <time>2021-05-19T12:34:44Z</time>
      </trkpt>
      <trkpt lat="42.0958500" lon="-8.8913780">
        <ele>61.4</ele>
        <time>2021-05-19T12:34:45Z</time>
      </trkpt>
      <trkpt lat="42.0958510" lon="-8.8913780">
        <ele>61.4</ele>
        <time>2021-05-19T12:34:46Z</time>
      </trkpt>
      <trkpt lat="42.0958600" lon="-8.8913870">
        <ele>61.6</ele>
        <time>2021-05-19T12:34:47Z</time>
      </trkpt>
      <trkpt lat="42.0958630" lon="-8.8913810">
        <ele>61.7</ele>
        <time>2021-05-19T12:34:48Z</time>
      </trkpt>
      <trkpt lat="42.0958620" lon="-8.8913830">
        <ele>61.7</ele>
        <time>2021-05-19T12:34:49Z</time>
      </trkpt>
      <trkpt lat="42.0958620" lon="-8.8913830">
        <ele>61.7</ele>
        <time>2021-05-19T12:34:50Z</time>
      </trkpt>
      <trkpt lat="42.0958580" lon="-8.8913870">
        <ele>61.8</ele>
        <time>2021-05-19T12:34:51Z</time>
      </trkpt>
      <trkpt lat="42.0958570" lon="-8.8913880">
        <ele>61.8</ele>
        <time>2021-05-19T12:34:52Z</time>
      </trkpt>
      <trkpt lat="42.0958600" lon="-8.8913900">
        <ele>61.8</ele>
        <time>2021-05-19T12:34:53Z</time>
      </trkpt>
      <trkpt lat="42.0958620" lon="-8.8913890">
        <ele>61.8</ele>
        <time>2021-05-19T12:34:54Z</time>
      </trkpt>
      <trkpt lat="42.0958620" lon="-8.8913890">
        <ele>61.8</ele>
        <time>2021-05-19T12:34:55Z</time>
      </trkpt>
      <trkpt lat="42.0958620" lon="-8.8913890">
        <ele>61.8</ele>
        <time>2021-05-19T12:34:56Z</time>
      </trkpt>
      <trkpt lat="42.0958620" lon="-8.8913890">
        <ele>61.8</ele>
        <time>2021-05-19T12:34:57Z</time>
      </trkpt>
      <trkpt lat="42.0958710" lon="-8.8913960">
        <ele>62.0</ele>
        <time>2021-05-19T12:34:58Z</time>
      </trkpt>
      <trkpt lat="42.0958710" lon="-8.8914000">
        <ele>62.0</ele>
        <time>2021-05-19T12:34:59Z</time>
      </trkpt>
      <trkpt lat="42.0958770" lon="-8.8914030">
        <ele>62.1</ele>
        <time>2021-05-19T12:35:00Z</time>
      </trkpt>
      <trkpt lat="42.0958770" lon="-8.8914080">
        <ele>62.2</ele>
        <time>2021-05-19T12:35:01Z</time>
      </trkpt>
      <trkpt lat="42.0958760" lon="-8.8914170">
        <ele>62.2</ele>
        <time>2021-05-19T12:35:02Z</time>
      </trkpt>
      <trkpt lat="42.0958780" lon="-8.8914140">
        <ele>62.3</ele>
        <time>2021-05-19T12:35:03Z</time>
      </trkpt>
      <trkpt lat="42.0958750" lon="-8.8914050">
        <ele>62.4</ele>
        <time>2021-05-19T12:35:04Z</time>
      </trkpt>
      <trkpt lat="42.0958720" lon="-8.8914070">
        <ele>62.4</ele>
        <time>2021-05-19T12:35:05Z</time>
      </trkpt>
      <trkpt lat="42.0958700" lon="-8.8914010">
        <ele>62.5</ele>
        <time>2021-05-19T12:35:06Z</time>
      </trkpt>
      <trkpt lat="42.0958710" lon="-8.8913960">
        <ele>62.5</ele>
        <time>2021-05-19T12:35:07Z</time>
      </trkpt>
      <trkpt lat="42.0958710" lon="-8.8913910">
        <ele>62.6</ele>
        <time>2021-05-19T12:35:08Z</time>
      </trkpt>
      <trkpt lat="42.0958700" lon="-8.8913920">
        <ele>62.6</ele>
        <time>2021-05-19T12:35:09Z</time>
      </trkpt>
      <trkpt lat="42.0958690" lon="-8.8913900">
        <ele>62.6</ele>
        <time>2021-05-19T12:35:10Z</time>
      </trkpt>
      <trkpt lat="42.0958660" lon="-8.8913860">
        <ele>62.6</ele>
        <time>2021-05-19T12:35:11Z</time>
      </trkpt>
      <trkpt lat="42.0958630" lon="-8.8913880">
        <ele>62.7</ele>
        <time>2021-05-19T12:35:12Z</time>
      </trkpt>
      <trkpt lat="42.0958620" lon="-8.8913880">
        <ele>62.7</ele>
        <time>2021-05-19T12:35:13Z</time>
      </trkpt>
      <trkpt lat="42.0958580" lon="-8.8913860">
        <ele>62.7</ele>
        <time>2021-05-19T12:35:14Z</time>
      </trkpt>
      <trkpt lat="42.0958690" lon="-8.8913890">
        <ele>62.9</ele>
        <time>2021-05-19T12:35:15Z</time>
      </trkpt>
      <trkpt lat="42.0958700" lon="-8.8913850">
        <ele>62.9</ele>
        <time>2021-05-19T12:35:16Z</time>
      </trkpt>
      <trkpt lat="42.0958750" lon="-8.8913830">
        <ele>62.9</ele>
        <time>2021-05-19T12:35:17Z</time>
      </trkpt>
      <trkpt lat="42.0958720" lon="-8.8913810">
        <ele>63.0</ele>
        <time>2021-05-19T12:35:18Z</time>
      </trkpt>
      <trkpt lat="42.0958690" lon="-8.8913750">
        <ele>63.0</ele>
        <time>2021-05-19T12:35:19Z</time>
      </trkpt>
      <trkpt lat="42.0958700" lon="-8.8913750">
        <ele>63.0</ele>
        <time>2021-05-19T12:35:20Z</time>
      </trkpt>
      <trkpt lat="42.0958700" lon="-8.8913700">
        <ele>63.1</ele>
        <time>2021-05-19T12:35:21Z</time>
      </trkpt>
      <trkpt lat="42.0958710" lon="-8.8913700">
        <ele>63.1</ele>
        <time>2021-05-19T12:35:22Z</time>
      </trkpt>
      <trkpt lat="42.0958680" lon="-8.8913490">
        <ele>63.2</ele>
        <time>2021-05-19T12:35:23Z</time>
      </trkpt>
      <trkpt lat="42.0958620" lon="-8.8913470">
        <ele>63.3</ele>
        <time>2021-05-19T12:35:24Z</time>
      </trkpt>
      <trkpt lat="42.0958690" lon="-8.8913250">
        <ele>63.4</ele>
        <time>2021-05-19T12:35:25Z</time>
      </trkpt>
      <trkpt lat="42.0958790" lon="-8.8913150">
        <ele>63.5</ele>
        <time>2021-05-19T12:35:26Z</time>
      </trkpt>
      <trkpt lat="42.0958780" lon="-8.8913150">
        <ele>63.5</ele>
        <time>2021-05-19T12:35:27Z</time>
      </trkpt>
      <trkpt lat="42.0958810" lon="-8.8913090">
        <ele>63.5</ele>
        <time>2021-05-19T12:35:28Z</time>
      </trkpt>
      <trkpt lat="42.0958850" lon="-8.8913040">
        <ele>63.6</ele>
        <time>2021-05-19T12:35:29Z</time>
      </trkpt>
      <trkpt lat="42.0958850" lon="-8.8912820">
        <ele>63.7</ele>
        <time>2021-05-19T12:35:30Z</time>
      </trkpt>
      <trkpt lat="42.0958780" lon="-8.8912720">
        <ele>63.7</ele>
        <time>2021-05-19T12:35:31Z</time>
      </trkpt>
      <trkpt lat="42.0958760" lon="-8.8912540">
        <ele>63.8</ele>
        <time>2021-05-19T12:35:32Z</time>
      </trkpt>
      <trkpt lat="42.0958780" lon="-8.8912440">
        <ele>63.8</ele>
        <time>2021-05-19T12:35:33Z</time>
      </trkpt>
      <trkpt lat="42.0958810" lon="-8.8912330">
        <ele>63.8</ele>
        <time>2021-05-19T12:35:34Z</time>
      </trkpt>
      <trkpt lat="42.0958810" lon="-8.8912230">
        <ele>63.8</ele>
        <time>2021-05-19T12:35:35Z</time>
      </trkpt>
      <trkpt lat="42.0958790" lon="-8.8912110">
        <ele>63.9</ele>
        <time>2021-05-19T12:35:36Z</time>
      </trkpt>
      <trkpt lat="42.0958780" lon="-8.8911930">
        <ele>63.9</ele>
        <time>2021-05-19T12:35:37Z</time>
      </trkpt>
      <trkpt lat="42.0958740" lon="-8.8911740">
        <ele>64.0</ele>
        <time>2021-05-19T12:35:38Z</time>
      </trkpt>
      <trkpt lat="42.0958720" lon="-8.8911620">
        <ele>64.0</ele>
        <time>2021-05-19T12:35:39Z</time>
      </trkpt>
      <trkpt lat="42.0958710" lon="-8.8911500">
        <ele>64.0</ele>
        <time>2021-05-19T12:35:40Z</time>
      </trkpt>
      <trkpt lat="42.0958690" lon="-8.8911380">
        <ele>64.1</ele>
        <time>2021-05-19T12:35:41Z</time>
      </trkpt>
      <trkpt lat="42.0958730" lon="-8.8911220">
        <ele>64.1</ele>
        <time>2021-05-19T12:35:42Z</time>
      </trkpt>
      <trkpt lat="42.0958610" lon="-8.8910940">
        <ele>64.2</ele>
        <time>2021-05-19T12:35:43Z</time>
      </trkpt>
      <trkpt lat="42.0958610" lon="-8.8910680">
        <ele>64.4</ele>
        <time>2021-05-19T12:35:44Z</time>
      </trkpt>
      <trkpt lat="42.0958660" lon="-8.8910550">
        <ele>64.4</ele>
        <time>2021-05-19T12:35:45Z</time>
      </trkpt>
      <trkpt lat="42.0958650" lon="-8.8910270">
        <ele>64.5</ele>
        <time>2021-05-19T12:35:46Z</time>
      </trkpt>
      <trkpt lat="42.0958680" lon="-8.8910150">
        <ele>64.6</ele>
        <time>2021-05-19T12:35:47Z</time>
      </trkpt>
      <trkpt lat="42.0958720" lon="-8.8910040">
        <ele>64.7</ele>
        <time>2021-05-19T12:35:48Z</time>
      </trkpt>
      <trkpt lat="42.0958760" lon="-8.8909750">
        <ele>64.8</ele>
        <time>2021-05-19T12:35:49Z</time>
      </trkpt>
      <trkpt lat="42.0958630" lon="-8.8909570">
        <ele>65.0</ele>
        <time>2021-05-19T12:35:50Z</time>
      </trkpt>
      <trkpt lat="42.0958600" lon="-8.8909460">
        <ele>65.1</ele>
        <time>2021-05-19T12:35:51Z</time>
      </trkpt>
      <trkpt lat="42.0958600" lon="-8.8909310">
        <ele>65.3</ele>
        <time>2021-05-19T12:35:52Z</time>
      </trkpt>
      <trkpt lat="42.0958620" lon="-8.8909290">
        <ele>65.3</ele>
        <time>2021-05-19T12:35:53Z</time>
      </trkpt>
      <trkpt lat="42.0958580" lon="-8.8909190">
        <ele>65.4</ele>
        <time>2021-05-19T12:35:54Z</time>
      </trkpt>
      <trkpt lat="42.0958550" lon="-8.8908990">
        <ele>65.7</ele>
        <time>2021-05-19T12:35:55Z</time>
      </trkpt>
      <trkpt lat="42.0958530" lon="-8.8908880">
        <ele>65.8</ele>
        <time>2021-05-19T12:35:56Z</time>
      </trkpt>
      <trkpt lat="42.0958560" lon="-8.8908730">
        <ele>66.0</ele>
        <time>2021-05-19T12:35:57Z</time>
      </trkpt>
      <trkpt lat="42.0958560" lon="-8.8908640">
        <ele>66.1</ele>
        <time>2021-05-19T12:35:58Z</time>
      </trkpt>
      <trkpt lat="42.0958660" lon="-8.8908680">
        <ele>66.2</ele>
        <time>2021-05-19T12:35:59Z</time>
      </trkpt>
      <trkpt lat="42.0958740" lon="-8.8908630">
        <ele>66.4</ele>
        <time>2021-05-19T12:36:00Z</time>
      </trkpt>
      <trkpt lat="42.0958840" lon="-8.8908450">
        <ele>66.6</ele>
        <time>2021-05-19T12:36:01Z</time>
      </trkpt>
      <trkpt lat="42.0958880" lon="-8.8908380">
        <ele>66.7</ele>
        <time>2021-05-19T12:36:02Z</time>
      </trkpt>
      <trkpt lat="42.0958920" lon="-8.8908330">
        <ele>66.8</ele>
        <time>2021-05-19T12:36:03Z</time>
      </trkpt>
      <trkpt lat="42.0958970" lon="-8.8908280">
        <ele>66.9</ele>
        <time>2021-05-19T12:36:04Z</time>
      </trkpt>
      <trkpt lat="42.0958990" lon="-8.8908150">
        <ele>67.1</ele>
        <time>2021-05-19T12:36:05Z</time>
      </trkpt>
      <trkpt lat="42.0959020" lon="-8.8908040">
        <ele>67.2</ele>
        <time>2021-05-19T12:36:06Z</time>
      </trkpt>
      <trkpt lat="42.0959060" lon="-8.8907830">
        <ele>67.5</ele>
        <time>2021-05-19T12:36:07Z</time>
      </trkpt>
      <trkpt lat="42.0959140" lon="-8.8907740">
        <ele>67.7</ele>
        <time>2021-05-19T12:36:08Z</time>
      </trkpt>
      <trkpt lat="42.0959230" lon="-8.8907430">
        <ele>68.1</ele>
        <time>2021-05-19T12:36:09Z</time>
      </trkpt>
      <trkpt lat="42.0959310" lon="-8.8907340">
        <ele>68.3</ele>
        <time>2021-05-19T12:36:10Z</time>
      </trkpt>
      <trkpt lat="42.0959400" lon="-8.8907240">
        <ele>68.5</ele>
        <time>2021-05-19T12:36:11Z</time>
      </trkpt>
      <trkpt lat="42.0959540" lon="-8.8907100">
        <ele>68.8</ele>
        <time>2021-05-19T12:36:12Z</time>
      </trkpt>
      <trkpt lat="42.0959630" lon="-8.8907030">
        <ele>69.0</ele>
        <time>2021-05-19T12:36:13Z</time>
      </trkpt>
      <trkpt lat="42.0959720" lon="-8.8906970">
        <ele>69.2</ele>
        <time>2021-05-19T12:36:14Z</time>
      </trkpt>
      <trkpt lat="42.0959830" lon="-8.8906820">
        <ele>69.5</ele>
        <time>2021-05-19T12:36:15Z</time>
      </trkpt>
      <trkpt lat="42.0959900" lon="-8.8906680">
        <ele>69.7</ele>
        <time>2021-05-19T12:36:16Z</time>
      </trkpt>
      <trkpt lat="42.0959980" lon="-8.8906620">
        <ele>69.9</ele>
        <time>2021-05-19T12:36:17Z</time>
      </trkpt>
      <trkpt lat="42.0960060" lon="-8.8906590">
        <ele>70.0</ele>
        <time>2021-05-19T12:36:18Z</time>
      </trkpt>
      <trkpt lat="42.0960130" lon="-8.8906560">
        <ele>70.1</ele>
        <time>2021-05-19T12:36:19Z</time>
      </trkpt>
      <trkpt lat="42.0960210" lon="-8.8906530">
        <ele>70.3</ele>
        <time>2021-05-19T12:36:20Z</time>
      </trkpt>
      <trkpt lat="42.0960280" lon="-8.8906500">
        <ele>70.4</ele>
        <time>2021-05-19T12:36:21Z</time>
      </trkpt>
      <trkpt lat="42.0960360" lon="-8.8906470">
        <ele>70.6</ele>
        <time>2021-05-19T12:36:22Z</time>
      </trkpt>
      <trkpt lat="42.0960430" lon="-8.8906450">
        <ele>70.7</ele>
        <time>2021-05-19T12:36:23Z</time>
      </trkpt>
      <trkpt lat="42.0960510" lon="-8.8906420">
        <ele>70.8</ele>
        <time>2021-05-19T12:36:24Z</time>
      </trkpt>
      <trkpt lat="42.0960580" lon="-8.8906390">
        <ele>71.0</ele>
        <time>2021-05-19T12:36:25Z</time>
      </trkpt>
      <trkpt lat="42.0960660" lon="-8.8906360">
        <ele>71.1</ele>
        <time>2021-05-19T12:36:26Z</time>
      </trkpt>
      <trkpt lat="42.0960730" lon="-8.8906330">
        <ele>71.2</ele>
        <time>2021-05-19T12:36:27Z</time>
      </trkpt>
      <trkpt lat="42.0960810" lon="-8.8906300">
        <ele>71.4</ele>
        <time>2021-05-19T12:36:28Z</time>
      </trkpt>
      <trkpt lat="42.0960880" lon="-8.8906270">
        <ele>71.5</ele>
        <time>2021-05-19T12:36:29Z</time>
      </trkpt>
      <trkpt lat="42.0961070" lon="-8.8906230">
        <ele>71.8</ele>
        <time>2021-05-19T12:36:30Z</time>
      </trkpt>
      <trkpt lat="42.0961220" lon="-8.8906250">
        <ele>72.1</ele>
        <time>2021-05-19T12:36:31Z</time>
      </trkpt>
      <trkpt lat="42.0961260" lon="-8.8906220">
        <ele>72.2</ele>
        <time>2021-05-19T12:36:32Z</time>
      </trkpt>
      <trkpt lat="42.0961370" lon="-8.8906130">
        <ele>72.4</ele>
        <time>2021-05-19T12:36:33Z</time>
      </trkpt>
      <trkpt lat="42.0961480" lon="-8.8906060">
        <ele>72.6</ele>
        <time>2021-05-19T12:36:34Z</time>
      </trkpt>
      <trkpt lat="42.0961530" lon="-8.8906070">
        <ele>72.7</ele>
        <time>2021-05-19T12:36:35Z</time>
      </trkpt>
      <trkpt lat="42.0961530" lon="-8.8906070">
        <ele>72.7</ele>
        <time>2021-05-19T12:36:36Z</time>
      </trkpt>
      <trkpt lat="42.0961630" lon="-8.8906090">
        <ele>72.8</ele>
        <time>2021-05-19T12:36:37Z</time>
      </trkpt>
      <trkpt lat="42.0961610" lon="-8.8906150">
        <ele>72.9</ele>
        <time>2021-05-19T12:36:38Z</time>
      </trkpt>
      <trkpt lat="42.0961700" lon="-8.8906170">
        <ele>73.1</ele>
        <time>2021-05-19T12:36:39Z</time>
      </trkpt>
      <trkpt lat="42.0961740" lon="-8.8906190">
        <ele>73.1</ele>
        <time>2021-05-19T12:36:40Z</time>
      </trkpt>
      <trkpt lat="42.0961840" lon="-8.8906130">
        <ele>73.3</ele>
        <time>2021-05-19T12:36:41Z</time>
      </trkpt>
      <trkpt lat="42.0961920" lon="-8.8906060">
        <ele>73.5</ele>
        <time>2021-05-19T12:36:42Z</time>
      </trkpt>
      <trkpt lat="42.0962030" lon="-8.8906000">
        <ele>73.6</ele>
        <time>2021-05-19T12:36:43Z</time>
      </trkpt>
      <trkpt lat="42.0962190" lon="-8.8906020">
        <ele>73.9</ele>
        <time>2021-05-19T12:36:44Z</time>
      </trkpt>
      <trkpt lat="42.0962220" lon="-8.8905900">
        <ele>74.1</ele>
        <time>2021-05-19T12:36:45Z</time>
      </trkpt>
      <trkpt lat="42.0962340" lon="-8.8905760">
        <ele>74.3</ele>
        <time>2021-05-19T12:36:46Z</time>
      </trkpt>
      <trkpt lat="42.0962400" lon="-8.8905860">
        <ele>74.5</ele>
        <time>2021-05-19T12:36:47Z</time>
      </trkpt>
      <trkpt lat="42.0962540" lon="-8.8905820">
        <ele>74.7</ele>
        <time>2021-05-19T12:36:48Z</time>
      </trkpt>
      <trkpt lat="42.0962630" lon="-8.8905870">
        <ele>74.9</ele>
        <time>2021-05-19T12:36:49Z</time>
      </trkpt>
      <trkpt lat="42.0962770" lon="-8.8905830">
        <ele>75.1</ele>
        <time>2021-05-19T12:36:50Z</time>
      </trkpt>
      <trkpt lat="42.0962960" lon="-8.8905790">
        <ele>75.4</ele>
        <time>2021-05-19T12:36:52Z</time>
      </trkpt>
      <trkpt lat="42.0963120" lon="-8.8905770">
        <ele>75.6</ele>
        <time>2021-05-19T12:36:54Z</time>
      </trkpt>
      <trkpt lat="42.0963220" lon="-8.8905720">
        <ele>75.8</ele>
        <time>2021-05-19T12:36:55Z</time>
      </trkpt>
      <trkpt lat="42.0963310" lon="-8.8905700">
        <ele>75.9</ele>
        <time>2021-05-19T12:36:56Z</time>
      </trkpt>
      <trkpt lat="42.0963430" lon="-8.8905620">
        <ele>76.1</ele>
        <time>2021-05-19T12:36:57Z</time>
      </trkpt>
      <trkpt lat="42.0963480" lon="-8.8905580">
        <ele>76.2</ele>
        <time>2021-05-19T12:36:58Z</time>
      </trkpt>
      <trkpt lat="42.0963540" lon="-8.8905530">
        <ele>76.3</ele>
        <time>2021-05-19T12:36:59Z</time>
      </trkpt>
      <trkpt lat="42.0963590" lon="-8.8905490">
        <ele>76.4</ele>
        <time>2021-05-19T12:37:00Z</time>
      </trkpt>
      <trkpt lat="42.0963640" lon="-8.8905450">
        <ele>76.5</ele>
        <time>2021-05-19T12:37:01Z</time>
      </trkpt>
      <trkpt lat="42.0963830" lon="-8.8905330">
        <ele>76.9</ele>
        <time>2021-05-19T12:37:02Z</time>
      </trkpt>
      <trkpt lat="42.0963900" lon="-8.8905200">
        <ele>77.0</ele>
        <time>2021-05-19T12:37:03Z</time>
      </trkpt>
      <trkpt lat="42.0963940" lon="-8.8905160">
        <ele>77.1</ele>
        <time>2021-05-19T12:37:04Z</time>
      </trkpt>
      <trkpt lat="42.0963990" lon="-8.8905060">
        <ele>77.3</ele>
        <time>2021-05-19T12:37:05Z</time>
      </trkpt>
      <trkpt lat="42.0964070" lon="-8.8904890">
        <ele>77.5</ele>
        <time>2021-05-19T12:37:06Z</time>
      </trkpt>
      <trkpt lat="42.0964110" lon="-8.8904840">
        <ele>77.6</ele>
        <time>2021-05-19T12:37:07Z</time>
      </trkpt>
      <trkpt lat="42.0964170" lon="-8.8904810">
        <ele>77.7</ele>
        <time>2021-05-19T12:37:08Z</time>
      </trkpt>
      <trkpt lat="42.0964320" lon="-8.8904720">
        <ele>77.9</ele>
        <time>2021-05-19T12:37:09Z</time>
      </trkpt>
      <trkpt lat="42.0964390" lon="-8.8904710">
        <ele>78.0</ele>
        <time>2021-05-19T12:37:10Z</time>
      </trkpt>
      <trkpt lat="42.0964530" lon="-8.8904590">
        <ele>78.3</ele>
        <time>2021-05-19T12:37:11Z</time>
      </trkpt>
      <trkpt lat="42.0964530" lon="-8.8904420">
        <ele>78.5</ele>
        <time>2021-05-19T12:37:12Z</time>
      </trkpt>
      <trkpt lat="42.0964670" lon="-8.8904390">
        <ele>78.7</ele>
        <time>2021-05-19T12:37:13Z</time>
      </trkpt>
      <trkpt lat="42.0964830" lon="-8.8904310">
        <ele>79.0</ele>
        <time>2021-05-19T12:37:14Z</time>
      </trkpt>
      <trkpt lat="42.0964990" lon="-8.8904190">
        <ele>79.2</ele>
        <time>2021-05-19T12:37:15Z</time>
      </trkpt>
      <trkpt lat="42.0965130" lon="-8.8904170">
        <ele>79.5</ele>
        <time>2021-05-19T12:37:16Z</time>
      </trkpt>
      <trkpt lat="42.0965250" lon="-8.8904090">
        <ele>79.6</ele>
        <time>2021-05-19T12:37:17Z</time>
      </trkpt>
      <trkpt lat="42.0965340" lon="-8.8904100">
        <ele>79.8</ele>
        <time>2021-05-19T12:37:18Z</time>
      </trkpt>
      <trkpt lat="42.0965450" lon="-8.8904030">
        <ele>80.0</ele>
        <time>2021-05-19T12:37:19Z</time>
      </trkpt>
      <trkpt lat="42.0965520" lon="-8.8903880">
        <ele>80.2</ele>
        <time>2021-05-19T12:37:20Z</time>
      </trkpt>
      <trkpt lat="42.0965590" lon="-8.8903820">
        <ele>80.3</ele>
        <time>2021-05-19T12:37:21Z</time>
      </trkpt>
      <trkpt lat="42.0965710" lon="-8.8903820">
        <ele>80.5</ele>
        <time>2021-05-19T12:37:22Z</time>
      </trkpt>
      <trkpt lat="42.0965830" lon="-8.8903800">
        <ele>80.6</ele>
        <time>2021-05-19T12:37:23Z</time>
      </trkpt>
      <trkpt lat="42.0965900" lon="-8.8903840">
        <ele>80.7</ele>
        <time>2021-05-19T12:37:24Z</time>
      </trkpt>
      <trkpt lat="42.0966010" lon="-8.8903720">
        <ele>80.9</ele>
        <time>2021-05-19T12:37:25Z</time>
      </trkpt>
      <trkpt lat="42.0966140" lon="-8.8903580">
        <ele>81.2</ele>
        <time>2021-05-19T12:37:26Z</time>
      </trkpt>
      <trkpt lat="42.0966170" lon="-8.8903510">
        <ele>81.3</ele>
        <time>2021-05-19T12:37:27Z</time>
      </trkpt>
      <trkpt lat="42.0966260" lon="-8.8903410">
        <ele>81.4</ele>
        <time>2021-05-19T12:37:28Z</time>
      </trkpt>
      <trkpt lat="42.0966320" lon="-8.8903250">
        <ele>81.6</ele>
        <time>2021-05-19T12:37:29Z</time>
      </trkpt>
      <trkpt lat="42.0966380" lon="-8.8903100">
        <ele>81.8</ele>
        <time>2021-05-19T12:37:30Z</time>
      </trkpt>
      <trkpt lat="42.0966330" lon="-8.8903070">
        <ele>81.9</ele>
        <time>2021-05-19T12:37:31Z</time>
      </trkpt>
      <trkpt lat="42.0966370" lon="-8.8903070">
        <ele>81.9</ele>
        <time>2021-05-19T12:37:32Z</time>
      </trkpt>
      <trkpt lat="42.0966380" lon="-8.8903000">
        <ele>82.0</ele>
        <time>2021-05-19T12:37:33Z</time>
      </trkpt>
      <trkpt lat="42.0966450" lon="-8.8902810">
        <ele>82.2</ele>
        <time>2021-05-19T12:37:34Z</time>
      </trkpt>
      <trkpt lat="42.0966500" lon="-8.8902730">
        <ele>82.3</ele>
        <time>2021-05-19T12:37:35Z</time>
      </trkpt>
      <trkpt lat="42.0966540" lon="-8.8902630">
        <ele>82.5</ele>
        <time>2021-05-19T12:37:36Z</time>
      </trkpt>
      <trkpt lat="42.0966550" lon="-8.8902500">
        <ele>82.6</ele>
        <time>2021-05-19T12:37:37Z</time>
      </trkpt>
      <trkpt lat="42.0966610" lon="-8.8902300">
        <ele>82.8</ele>
        <time>2021-05-19T12:37:38Z</time>
      </trkpt>
      <trkpt lat="42.0966680" lon="-8.8902180">
        <ele>83.0</ele>
        <time>2021-05-19T12:37:39Z</time>
      </trkpt>
      <trkpt lat="42.0966660" lon="-8.8902080">
        <ele>83.1</ele>
        <time>2021-05-19T12:37:40Z</time>
      </trkpt>
      <trkpt lat="42.0966720" lon="-8.8901990">
        <ele>83.3</ele>
        <time>2021-05-19T12:37:41Z</time>
      </trkpt>
      <trkpt lat="42.0966810" lon="-8.8901910">
        <ele>83.4</ele>
        <time>2021-05-19T12:37:42Z</time>
      </trkpt>
      <trkpt lat="42.0966860" lon="-8.8901790">
        <ele>83.6</ele>
        <time>2021-05-19T12:37:43Z</time>
      </trkpt>
      <trkpt lat="42.0966910" lon="-8.8901680">
        <ele>83.7</ele>
        <time>2021-05-19T12:37:44Z</time>
      </trkpt>
      <trkpt lat="42.0966950" lon="-8.8901670">
        <ele>83.8</ele>
        <time>2021-05-19T12:37:45Z</time>
      </trkpt>
      <trkpt lat="42.0967000" lon="-8.8901640">
        <ele>83.9</ele>
        <time>2021-05-19T12:37:46Z</time>
      </trkpt>
      <trkpt lat="42.0967130" lon="-8.8901550">
        <ele>84.1</ele>
        <time>2021-05-19T12:37:47Z</time>
      </trkpt>
      <trkpt lat="42.0967190" lon="-8.8901450">
        <ele>84.3</ele>
        <time>2021-05-19T12:37:48Z</time>
      </trkpt>
      <trkpt lat="42.0967280" lon="-8.8901340">
        <ele>84.5</ele>
        <time>2021-05-19T12:37:49Z</time>
      </trkpt>
      <trkpt lat="42.0967270" lon="-8.8901280">
        <ele>84.5</ele>
        <time>2021-05-19T12:37:50Z</time>
      </trkpt>
      <trkpt lat="42.0967300" lon="-8.8901120">
        <ele>84.7</ele>
        <time>2021-05-19T12:37:51Z</time>
      </trkpt>
      <trkpt lat="42.0967350" lon="-8.8900970">
        <ele>84.9</ele>
        <time>2021-05-19T12:37:52Z</time>
      </trkpt>
      <trkpt lat="42.0967430" lon="-8.8900870">
        <ele>85.1</ele>
        <time>2021-05-19T12:37:53Z</time>
      </trkpt>
      <trkpt lat="42.0967430" lon="-8.8900870">
        <ele>85.1</ele>
        <time>2021-05-19T12:37:54Z</time>
      </trkpt>
      <trkpt lat="42.0967460" lon="-8.8900770">
        <ele>85.3</ele>
        <time>2021-05-19T12:37:55Z</time>
      </trkpt>
      <trkpt lat="42.0967440" lon="-8.8900650">
        <ele>85.4</ele>
        <time>2021-05-19T12:37:56Z</time>
      </trkpt>
      <trkpt lat="42.0967450" lon="-8.8900450">
        <ele>85.7</ele>
        <time>2021-05-19T12:37:57Z</time>
      </trkpt>
      <trkpt lat="42.0967490" lon="-8.8900400">
        <ele>85.8</ele>
        <time>2021-05-19T12:37:58Z</time>
      </trkpt>
      <trkpt lat="42.0967620" lon="-8.8900170">
        <ele>86.2</ele>
        <time>2021-05-19T12:37:59Z</time>
      </trkpt>
      <trkpt lat="42.0967640" lon="-8.8900050">
        <ele>86.3</ele>
        <time>2021-05-19T12:38:00Z</time>
      </trkpt>
      <trkpt lat="42.0967670" lon="-8.8899930">
        <ele>86.5</ele>
        <time>2021-05-19T12:38:01Z</time>
      </trkpt>
      <trkpt lat="42.0967710" lon="-8.8899790">
        <ele>86.7</ele>
        <time>2021-05-19T12:38:02Z</time>
      </trkpt>
      <trkpt lat="42.0967760" lon="-8.8899710">
        <ele>86.9</ele>
        <time>2021-05-19T12:38:03Z</time>
      </trkpt>
      <trkpt lat="42.0967820" lon="-8.8899810">
        <ele>87.1</ele>
        <time>2021-05-19T12:38:04Z</time>
      </trkpt>
      <trkpt lat="42.0967780" lon="-8.8900080">
        <ele>87.5</ele>
        <time>2021-05-19T12:38:05Z</time>
      </trkpt>
      <trkpt lat="42.0967770" lon="-8.8900140">
        <ele>87.5</ele>
        <time>2021-05-19T12:38:06Z</time>
      </trkpt>
      <trkpt lat="42.0967710" lon="-8.8900200">
        <ele>87.7</ele>
        <time>2021-05-19T12:38:07Z</time>
      </trkpt>
      <trkpt lat="42.0967700" lon="-8.8900290">
        <ele>87.8</ele>
        <time>2021-05-19T12:38:08Z</time>
      </trkpt>
      <trkpt lat="42.0967630" lon="-8.8900380">
        <ele>88.0</ele>
        <time>2021-05-19T12:38:09Z</time>
      </trkpt>
      <trkpt lat="42.0967710" lon="-8.8900660">
        <ele>88.4</ele>
        <time>2021-05-19T12:38:10Z</time>
      </trkpt>
      <trkpt lat="42.0967790" lon="-8.8900940">
        <ele>88.9</ele>
        <time>2021-05-19T12:38:11Z</time>
      </trkpt>
      <trkpt lat="42.0967760" lon="-8.8900930">
        <ele>88.9</ele>
        <time>2021-05-19T12:38:12Z</time>
      </trkpt>
      <trkpt lat="42.0967750" lon="-8.8900910">
        <ele>88.9</ele>
        <time>2021-05-19T12:38:13Z</time>
      </trkpt>
      <trkpt lat="42.0967730" lon="-8.8900810">
        <ele>89.1</ele>
        <time>2021-05-19T12:38:14Z</time>
      </trkpt>
      <trkpt lat="42.0967730" lon="-8.8900760">
        <ele>89.2</ele>
        <time>2021-05-19T12:38:15Z</time>
      </trkpt>
      <trkpt lat="42.0967670" lon="-8.8900660">
        <ele>89.3</ele>
        <time>2021-05-19T12:38:16Z</time>
      </trkpt>
      <trkpt lat="42.0967650" lon="-8.8900660">
        <ele>89.4</ele>
        <time>2021-05-19T12:38:17Z</time>
      </trkpt>
      <trkpt lat="42.0967650" lon="-8.8900670">
        <ele>89.4</ele>
        <time>2021-05-19T12:38:18Z</time>
      </trkpt>
      <trkpt lat="42.0967640" lon="-8.8900670">
        <ele>89.4</ele>
        <time>2021-05-19T12:38:19Z</time>
      </trkpt>
      <trkpt lat="42.0967640" lon="-8.8900620">
        <ele>89.5</ele>
        <time>2021-05-19T12:38:20Z</time>
      </trkpt>
      <trkpt lat="42.0967700" lon="-8.8900570">
        <ele>89.6</ele>
        <time>2021-05-19T12:38:21Z</time>
      </trkpt>
      <trkpt lat="42.0967730" lon="-8.8900490">
        <ele>89.7</ele>
        <time>2021-05-19T12:38:22Z</time>
      </trkpt>
      <trkpt lat="42.0967760" lon="-8.8900460">
        <ele>89.8</ele>
        <time>2021-05-19T12:38:23Z</time>
      </trkpt>
      <trkpt lat="42.0967760" lon="-8.8900460">
        <ele>89.8</ele>
        <time>2021-05-19T12:38:24Z</time>
      </trkpt>
      <trkpt lat="42.0967820" lon="-8.8900300">
        <ele>90.0</ele>
        <time>2021-05-19T12:38:25Z</time>
      </trkpt>
      <trkpt lat="42.0967860" lon="-8.8900180">
        <ele>90.2</ele>
        <time>2021-05-19T12:38:26Z</time>
      </trkpt>
      <trkpt lat="42.0967880" lon="-8.8900120">
        <ele>90.3</ele>
        <time>2021-05-19T12:38:27Z</time>
      </trkpt>
      <trkpt lat="42.0967910" lon="-8.8900050">
        <ele>90.4</ele>
        <time>2021-05-19T12:38:28Z</time>
      </trkpt>
      <trkpt lat="42.0967940" lon="-8.8899980">
        <ele>90.5</ele>
        <time>2021-05-19T12:38:29Z</time>
      </trkpt>
      <trkpt lat="42.0967960" lon="-8.8899910">
        <ele>90.6</ele>
        <time>2021-05-19T12:38:30Z</time>
      </trkpt>
      <trkpt lat="42.0967990" lon="-8.8899850">
        <ele>90.7</ele>
        <time>2021-05-19T12:38:31Z</time>
      </trkpt>
      <trkpt lat="42.0968010" lon="-8.8899780">
        <ele>90.8</ele>
        <time>2021-05-19T12:38:32Z</time>
      </trkpt>
      <trkpt lat="42.0968040" lon="-8.8899710">
        <ele>90.9</ele>
        <time>2021-05-19T12:38:33Z</time>
      </trkpt>
      <trkpt lat="42.0968100" lon="-8.8899490">
        <ele>91.3</ele>
        <time>2021-05-19T12:38:34Z</time>
      </trkpt>
      <trkpt lat="42.0968120" lon="-8.8899410">
        <ele>91.4</ele>
        <time>2021-05-19T12:38:35Z</time>
      </trkpt>
      <trkpt lat="42.0968130" lon="-8.8899320">
        <ele>91.5</ele>
        <time>2021-05-19T12:38:37Z</time>
      </trkpt>
      <trkpt lat="42.0968150" lon="-8.8899240">
        <ele>91.6</ele>
        <time>2021-05-19T12:38:38Z</time>
      </trkpt>
      <trkpt lat="42.0968160" lon="-8.8899160">
        <ele>91.7</ele>
        <time>2021-05-19T12:38:39Z</time>
      </trkpt>
      <trkpt lat="42.0968170" lon="-8.8898970">
        <ele>92.0</ele>
        <time>2021-05-19T12:38:40Z</time>
      </trkpt>
      <trkpt lat="42.0968240" lon="-8.8898850">
        <ele>92.2</ele>
        <time>2021-05-19T12:38:41Z</time>
      </trkpt>
      <trkpt lat="42.0968440" lon="-8.8899010">
        <ele>92.6</ele>
        <time>2021-05-19T12:38:42Z</time>
      </trkpt>
      <trkpt lat="42.0968560" lon="-8.8899000">
        <ele>92.8</ele>
        <time>2021-05-19T12:38:43Z</time>
      </trkpt>
      <trkpt lat="42.0968650" lon="-8.8899000">
        <ele>92.9</ele>
        <time>2021-05-19T12:38:44Z</time>
      </trkpt>
      <trkpt lat="42.0968760" lon="-8.8899030">
        <ele>93.1</ele>
        <time>2021-05-19T12:38:45Z</time>
      </trkpt>
      <trkpt lat="42.0968850" lon="-8.8899020">
        <ele>93.3</ele>
        <time>2021-05-19T12:38:46Z</time>
      </trkpt>
      <trkpt lat="42.0968930" lon="-8.8899020">
        <ele>93.4</ele>
        <time>2021-05-19T12:38:47Z</time>
      </trkpt>
      <trkpt lat="42.0969050" lon="-8.8899040">
        <ele>93.6</ele>
        <time>2021-05-19T12:38:48Z</time>
      </trkpt>
      <trkpt lat="42.0969190" lon="-8.8899070">
        <ele>93.9</ele>
        <time>2021-05-19T12:38:49Z</time>
      </trkpt>
      <trkpt lat="42.0969360" lon="-8.8899050">
        <ele>94.2</ele>
        <time>2021-05-19T12:38:50Z</time>
      </trkpt>
      <trkpt lat="42.0969520" lon="-8.8899050">
        <ele>94.5</ele>
        <time>2021-05-19T12:38:51Z</time>
      </trkpt>
      <trkpt lat="42.0969630" lon="-8.8898980">
        <ele>94.7</ele>
        <time>2021-05-19T12:38:52Z</time>
      </trkpt>
      <trkpt lat="42.0969750" lon="-8.8898990">
        <ele>94.9</ele>
        <time>2021-05-19T12:38:53Z</time>
      </trkpt>
      <trkpt lat="42.0969920" lon="-8.8898800">
        <ele>95.3</ele>
        <time>2021-05-19T12:38:54Z</time>
      </trkpt>
      <trkpt lat="42.0969980" lon="-8.8898910">
        <ele>95.5</ele>
        <time>2021-05-19T12:38:55Z</time>
      </trkpt>
      <trkpt lat="42.0970080" lon="-8.8898950">
        <ele>95.7</ele>
        <time>2021-05-19T12:38:56Z</time>
      </trkpt>
      <trkpt lat="42.0970120" lon="-8.8898970">
        <ele>95.7</ele>
        <time>2021-05-19T12:38:57Z</time>
      </trkpt>
      <trkpt lat="42.0970210" lon="-8.8898990">
        <ele>95.9</ele>
        <time>2021-05-19T12:38:58Z</time>
      </trkpt>
      <trkpt lat="42.0970330" lon="-8.8898990">
        <ele>96.1</ele>
        <time>2021-05-19T12:38:59Z</time>
      </trkpt>
      <trkpt lat="42.0970520" lon="-8.8898920">
        <ele>96.4</ele>
        <time>2021-05-19T12:39:00Z</time>
      </trkpt>
      <trkpt lat="42.0970590" lon="-8.8898920">
        <ele>96.5</ele>
        <time>2021-05-19T12:39:01Z</time>
      </trkpt>
      <trkpt lat="42.0970690" lon="-8.8898870">
        <ele>96.7</ele>
        <time>2021-05-19T12:39:02Z</time>
      </trkpt>
      <trkpt lat="42.0970730" lon="-8.8899010">
        <ele>96.9</ele>
        <time>2021-05-19T12:39:03Z</time>
      </trkpt>
      <trkpt lat="42.0970820" lon="-8.8898950">
        <ele>97.1</ele>
        <time>2021-05-19T12:39:04Z</time>
      </trkpt>
      <trkpt lat="42.0970920" lon="-8.8898960">
        <ele>97.2</ele>
        <time>2021-05-19T12:39:05Z</time>
      </trkpt>
      <trkpt lat="42.0971000" lon="-8.8898940">
        <ele>97.4</ele>
        <time>2021-05-19T12:39:06Z</time>
      </trkpt>
      <trkpt lat="42.0971010" lon="-8.8898900">
        <ele>97.4</ele>
        <time>2021-05-19T12:39:07Z</time>
      </trkpt>
      <trkpt lat="42.0970980" lon="-8.8898960">
        <ele>97.5</ele>
        <time>2021-05-19T12:39:08Z</time>
      </trkpt>
      <trkpt lat="42.0971010" lon="-8.8898940">
        <ele>97.6</ele>
        <time>2021-05-19T12:39:09Z</time>
      </trkpt>
      <trkpt lat="42.0971110" lon="-8.8898950">
        <ele>97.7</ele>
        <time>2021-05-19T12:39:10Z</time>
      </trkpt>
      <trkpt lat="42.0971330" lon="-8.8898940">
        <ele>98.0</ele>
        <time>2021-05-19T12:39:11Z</time>
      </trkpt>
      <trkpt lat="42.0971400" lon="-8.8898940">
        <ele>98.1</ele>
        <time>2021-05-19T12:39:12Z</time>
      </trkpt>
      <trkpt lat="42.0971480" lon="-8.8898950">
        <ele>98.3</ele>
        <time>2021-05-19T12:39:13Z</time>
      </trkpt>
      <trkpt lat="42.0971500" lon="-8.8899020">
        <ele>98.3</ele>
        <time>2021-05-19T12:39:14Z</time>
      </trkpt>
      <trkpt lat="42.0971650" lon="-8.8899000">
        <ele>98.6</ele>
        <time>2021-05-19T12:39:15Z</time>
      </trkpt>
      <trkpt lat="42.0971620" lon="-8.8899060">
        <ele>98.6</ele>
        <time>2021-05-19T12:39:16Z</time>
      </trkpt>
      <trkpt lat="42.0971800" lon="-8.8899100">
        <ele>98.9</ele>
        <time>2021-05-19T12:39:17Z</time>
      </trkpt>
      <trkpt lat="42.0971920" lon="-8.8899210">
        <ele>99.1</ele>
        <time>2021-05-19T12:39:18Z</time>
      </trkpt>
      <trkpt lat="42.0971990" lon="-8.8899230">
        <ele>99.1</ele>
        <time>2021-05-19T12:39:19Z</time>
      </trkpt>
      <trkpt lat="42.0972110" lon="-8.8899260">
        <ele>99.3</ele>
        <time>2021-05-19T12:39:20Z</time>
      </trkpt>
      <trkpt lat="42.0972280" lon="-8.8899310">
        <ele>99.5</ele>
        <time>2021-05-19T12:39:21Z</time>
      </trkpt>
      <trkpt lat="42.0972380" lon="-8.8899330">
        <ele>99.7</ele>
        <time>2021-05-19T12:39:22Z</time>
      </trkpt>
      <trkpt lat="42.0972480" lon="-8.8899340">
        <ele>99.8</ele>
        <time>2021-05-19T12:39:23Z</time>
      </trkpt>
      <trkpt lat="42.0972530" lon="-8.8899340">
        <ele>99.8</ele>
        <time>2021-05-19T12:39:24Z</time>
      </trkpt>
      <trkpt lat="42.0972600" lon="-8.8899420">
        <ele>100.0</ele>
        <time>2021-05-19T12:39:25Z</time>
      </trkpt>
      <trkpt lat="42.0972620" lon="-8.8899420">
        <ele>100.0</ele>
        <time>2021-05-19T12:39:26Z</time>
      </trkpt>
      <trkpt lat="42.0972660" lon="-8.8899350">
        <ele>100.1</ele>
        <time>2021-05-19T12:39:27Z</time>
      </trkpt>
      <trkpt lat="42.0972750" lon="-8.8899350">
        <ele>100.2</ele>
        <time>2021-05-19T12:39:28Z</time>
      </trkpt>
      <trkpt lat="42.0972820" lon="-8.8899460">
        <ele>100.3</ele>
        <time>2021-05-19T12:39:29Z</time>
      </trkpt>
      <trkpt lat="42.0972900" lon="-8.8899540">
        <ele>100.4</ele>
        <time>2021-05-19T12:39:30Z</time>
      </trkpt>
      <trkpt lat="42.0973020" lon="-8.8899630">
        <ele>100.6</ele>
        <time>2021-05-19T12:39:31Z</time>
      </trkpt>
      <trkpt lat="42.0973070" lon="-8.8899650">
        <ele>100.6</ele>
        <time>2021-05-19T12:39:32Z</time>
      </trkpt>
      <trkpt lat="42.0973140" lon="-8.8899710">
        <ele>100.7</ele>
        <time>2021-05-19T12:39:33Z</time>
      </trkpt>
      <trkpt lat="42.0973250" lon="-8.8899700">
        <ele>100.8</ele>
        <time>2021-05-19T12:39:34Z</time>
      </trkpt>
      <trkpt lat="42.0973360" lon="-8.8899720">
        <ele>101.0</ele>
        <time>2021-05-19T12:39:35Z</time>
      </trkpt>
      <trkpt lat="42.0973400" lon="-8.8899660">
        <ele>101.0</ele>
        <time>2021-05-19T12:39:36Z</time>
      </trkpt>
      <trkpt lat="42.0973500" lon="-8.8899640">
        <ele>101.2</ele>
        <time>2021-05-19T12:39:37Z</time>
      </trkpt>
      <trkpt lat="42.0973630" lon="-8.8899630">
        <ele>101.3</ele>
        <time>2021-05-19T12:39:38Z</time>
      </trkpt>
      <trkpt lat="42.0973700" lon="-8.8899740">
        <ele>101.4</ele>
        <time>2021-05-19T12:39:39Z</time>
      </trkpt>
      <trkpt lat="42.0973800" lon="-8.8899740">
        <ele>101.6</ele>
        <time>2021-05-19T12:39:40Z</time>
      </trkpt>
      <trkpt lat="42.0973880" lon="-8.8899680">
        <ele>101.7</ele>
        <time>2021-05-19T12:39:41Z</time>
      </trkpt>
      <trkpt lat="42.0973950" lon="-8.8899690">
        <ele>101.7</ele>
        <time>2021-05-19T12:39:42Z</time>
      </trkpt>
      <trkpt lat="42.0974020" lon="-8.8899700">
        <ele>101.8</ele>
        <time>2021-05-19T12:39:43Z</time>
      </trkpt>
      <trkpt lat="42.0974210" lon="-8.8899730">
        <ele>102.0</ele>
        <time>2021-05-19T12:39:44Z</time>
      </trkpt>
      <trkpt lat="42.0974290" lon="-8.8899670">
        <ele>102.1</ele>
        <time>2021-05-19T12:39:45Z</time>
      </trkpt>
      <trkpt lat="42.0974420" lon="-8.8899670">
        <ele>102.3</ele>
        <time>2021-05-19T12:39:46Z</time>
      </trkpt>
      <trkpt lat="42.0974510" lon="-8.8899680">
        <ele>102.3</ele>
        <time>2021-05-19T12:39:47Z</time>
      </trkpt>
      <trkpt lat="42.0974640" lon="-8.8899630">
        <ele>102.5</ele>
        <time>2021-05-19T12:39:48Z</time>
      </trkpt>
      <trkpt lat="42.0974630" lon="-8.8899580">
        <ele>102.5</ele>
        <time>2021-05-19T12:39:49Z</time>
      </trkpt>
      <trkpt lat="42.0974730" lon="-8.8899560">
        <ele>102.6</ele>
        <time>2021-05-19T12:39:50Z</time>
      </trkpt>
      <trkpt lat="42.0974780" lon="-8.8899490">
        <ele>102.7</ele>
        <time>2021-05-19T12:39:51Z</time>
      </trkpt>
      <trkpt lat="42.0974860" lon="-8.8899430">
        <ele>102.8</ele>
        <time>2021-05-19T12:39:52Z</time>
      </trkpt>
      <trkpt lat="42.0974930" lon="-8.8899400">
        <ele>102.9</ele>
        <time>2021-05-19T12:39:53Z</time>
      </trkpt>
      <trkpt lat="42.0975090" lon="-8.8899360">
        <ele>102.9</ele>
        <time>2021-05-19T12:39:54Z</time>
      </trkpt>
      <trkpt lat="42.0975160" lon="-8.8899360">
        <ele>102.9</ele>
        <time>2021-05-19T12:39:55Z</time>
      </trkpt>
      <trkpt lat="42.0975230" lon="-8.8899360">
        <ele>102.9</ele>
        <time>2021-05-19T12:39:56Z</time>
      </trkpt>
      <trkpt lat="42.0975300" lon="-8.8899360">
        <ele>102.9</ele>
        <time>2021-05-19T12:39:57Z</time>
      </trkpt>
      <trkpt lat="42.0975340" lon="-8.8899420">
        <ele>102.8</ele>
        <time>2021-05-19T12:39:58Z</time>
      </trkpt>
      <trkpt lat="42.0975470" lon="-8.8899520">
        <ele>102.8</ele>
        <time>2021-05-19T12:39:59Z</time>
      </trkpt>
      <trkpt lat="42.0975620" lon="-8.8899540">
        <ele>102.8</ele>
        <time>2021-05-19T12:40:00Z</time>
      </trkpt>
      <trkpt lat="42.0975880" lon="-8.8899560">
        <ele>102.8</ele>
        <time>2021-05-19T12:40:01Z</time>
      </trkpt>
      <trkpt lat="42.0975950" lon="-8.8899600">
        <ele>102.8</ele>
        <time>2021-05-19T12:40:02Z</time>
      </trkpt>
      <trkpt lat="42.0976030" lon="-8.8899640">
        <ele>102.8</ele>
        <time>2021-05-19T12:40:03Z</time>
      </trkpt>
      <trkpt lat="42.0976100" lon="-8.8899640">
        <ele>102.7</ele>
        <time>2021-05-19T12:40:04Z</time>
      </trkpt>
      <trkpt lat="42.0976150" lon="-8.8899720">
        <ele>102.7</ele>
        <time>2021-05-19T12:40:05Z</time>
      </trkpt>
      <trkpt lat="42.0976250" lon="-8.8899740">
        <ele>102.7</ele>
        <time>2021-05-19T12:40:06Z</time>
      </trkpt>
      <trkpt lat="42.0976340" lon="-8.8899780">
        <ele>102.7</ele>
        <time>2021-05-19T12:40:07Z</time>
      </trkpt>
      <trkpt lat="42.0976580" lon="-8.8899820">
        <ele>102.7</ele>
        <time>2021-05-19T12:40:08Z</time>
      </trkpt>
      <trkpt lat="42.0976680" lon="-8.8899780">
        <ele>102.7</ele>
        <time>2021-05-19T12:40:09Z</time>
      </trkpt>
      <trkpt lat="42.0976770" lon="-8.8899740">
        <ele>102.7</ele>
        <time>2021-05-19T12:40:10Z</time>
      </trkpt>
      <trkpt lat="42.0976870" lon="-8.8899740">
        <ele>102.7</ele>
        <time>2021-05-19T12:40:11Z</time>
      </trkpt>
      <trkpt lat="42.0976990" lon="-8.8899840">
        <ele>102.7</ele>
        <time>2021-05-19T12:40:12Z</time>
      </trkpt>
      <trkpt lat="42.0977090" lon="-8.8899860">
        <ele>102.7</ele>
        <time>2021-05-19T12:40:13Z</time>
      </trkpt>
      <trkpt lat="42.0977160" lon="-8.8899930">
        <ele>102.7</ele>
        <time>2021-05-19T12:40:14Z</time>
      </trkpt>
      <trkpt lat="42.0977310" lon="-8.8899910">
        <ele>102.7</ele>
        <time>2021-05-19T12:40:15Z</time>
      </trkpt>
      <trkpt lat="42.0977440" lon="-8.8899930">
        <ele>102.7</ele>
        <time>2021-05-19T12:40:16Z</time>
      </trkpt>
      <trkpt lat="42.0977620" lon="-8.8899970">
        <ele>102.7</ele>
        <time>2021-05-19T12:40:17Z</time>
      </trkpt>
      <trkpt lat="42.0977720" lon="-8.8899990">
        <ele>102.7</ele>
        <time>2021-05-19T12:40:18Z</time>
      </trkpt>
      <trkpt lat="42.0977820" lon="-8.8899910">
        <ele>102.7</ele>
        <time>2021-05-19T12:40:19Z</time>
      </trkpt>
      <trkpt lat="42.0977930" lon="-8.8899880">
        <ele>102.7</ele>
        <time>2021-05-19T12:40:20Z</time>
      </trkpt>
      <trkpt lat="42.0978010" lon="-8.8899820">
        <ele>102.8</ele>
        <time>2021-05-19T12:40:21Z</time>
      </trkpt>
      <trkpt lat="42.0978060" lon="-8.8899820">
        <ele>102.8</ele>
        <time>2021-05-19T12:40:22Z</time>
      </trkpt>
      <trkpt lat="42.0978150" lon="-8.8899830">
        <ele>102.8</ele>
        <time>2021-05-19T12:40:23Z</time>
      </trkpt>
      <trkpt lat="42.0978230" lon="-8.8899870">
        <ele>102.8</ele>
        <time>2021-05-19T12:40:24Z</time>
      </trkpt>
      <trkpt lat="42.0978290" lon="-8.8899850">
        <ele>102.8</ele>
        <time>2021-05-19T12:40:25Z</time>
      </trkpt>
      <trkpt lat="42.0978320" lon="-8.8899830">
        <ele>102.8</ele>
        <time>2021-05-19T12:40:26Z</time>
      </trkpt>
      <trkpt lat="42.0978310" lon="-8.8899830">
        <ele>102.8</ele>
        <time>2021-05-19T12:40:27Z</time>
      </trkpt>
      <trkpt lat="42.0978300" lon="-8.8899780">
        <ele>102.8</ele>
        <time>2021-05-19T12:40:28Z</time>
      </trkpt>
      <trkpt lat="42.0978340" lon="-8.8899790">
        <ele>102.8</ele>
        <time>2021-05-19T12:40:29Z</time>
      </trkpt>
      <trkpt lat="42.0978410" lon="-8.8899760">
        <ele>102.8</ele>
        <time>2021-05-19T12:40:30Z</time>
      </trkpt>
      <trkpt lat="42.0978480" lon="-8.8899810">
        <ele>102.8</ele>
        <time>2021-05-19T12:40:32Z</time>
      </trkpt>
      <trkpt lat="42.0978440" lon="-8.8899970">
        <ele>102.9</ele>
        <time>2021-05-19T12:40:33Z</time>
      </trkpt>
      <trkpt lat="42.0978410" lon="-8.8899980">
        <ele>102.9</ele>
        <time>2021-05-19T12:40:34Z</time>
      </trkpt>
      <trkpt lat="42.0978400" lon="-8.8900050">
        <ele>102.9</ele>
        <time>2021-05-19T12:40:35Z</time>
      </trkpt>
      <trkpt lat="42.0978400" lon="-8.8900050">
        <ele>102.9</ele>
        <time>2021-05-19T12:40:36Z</time>
      </trkpt>
      <trkpt lat="42.0978270" lon="-8.8900310">
        <ele>102.9</ele>
        <time>2021-05-19T12:40:37Z</time>
      </trkpt>
      <trkpt lat="42.0978290" lon="-8.8900300">
        <ele>102.9</ele>
        <time>2021-05-19T12:40:38Z</time>
      </trkpt>
      <trkpt lat="42.0978310" lon="-8.8900330">
        <ele>102.9</ele>
        <time>2021-05-19T12:40:39Z</time>
      </trkpt>
      <trkpt lat="42.0978320" lon="-8.8900350">
        <ele>102.9</ele>
        <time>2021-05-19T12:40:40Z</time>
      </trkpt>
      <trkpt lat="42.0978330" lon="-8.8900380">
        <ele>102.9</ele>
        <time>2021-05-19T12:40:41Z</time>
      </trkpt>
      <trkpt lat="42.0978340" lon="-8.8900400">
        <ele>102.9</ele>
        <time>2021-05-19T12:40:42Z</time>
      </trkpt>
      <trkpt lat="42.0978360" lon="-8.8900430">
        <ele>102.9</ele>
        <time>2021-05-19T12:40:43Z</time>
      </trkpt>
      <trkpt lat="42.0978370" lon="-8.8900450">
        <ele>102.9</ele>
        <time>2021-05-19T12:40:44Z</time>
      </trkpt>
      <trkpt lat="42.0978380" lon="-8.8900480">
        <ele>102.9</ele>
        <time>2021-05-19T12:40:45Z</time>
      </trkpt>
      <trkpt lat="42.0978400" lon="-8.8900500">
        <ele>102.9</ele>
        <time>2021-05-19T12:40:46Z</time>
      </trkpt>
      <trkpt lat="42.0978410" lon="-8.8900530">
        <ele>102.9</ele>
        <time>2021-05-19T12:40:47Z</time>
      </trkpt>
      <trkpt lat="42.0978420" lon="-8.8900550">
        <ele>102.9</ele>
        <time>2021-05-19T12:40:48Z</time>
      </trkpt>
      <trkpt lat="42.0978440" lon="-8.8900580">
        <ele>102.9</ele>
        <time>2021-05-19T12:40:49Z</time>
      </trkpt>
      <trkpt lat="42.0978450" lon="-8.8900600">
        <ele>102.9</ele>
        <time>2021-05-19T12:40:50Z</time>
      </trkpt>
      <trkpt lat="42.0978460" lon="-8.8900630">
        <ele>102.9</ele>
        <time>2021-05-19T12:40:51Z</time>
      </trkpt>
      <trkpt lat="42.0978470" lon="-8.8900650">
        <ele>102.9</ele>
        <time>2021-05-19T12:40:52Z</time>
      </trkpt>
      <trkpt lat="42.0978490" lon="-8.8900680">
        <ele>102.9</ele>
        <time>2021-05-19T12:40:53Z</time>
      </trkpt>
      <trkpt lat="42.0978500" lon="-8.8900700">
        <ele>103.0</ele>
        <time>2021-05-19T12:40:54Z</time>
      </trkpt>
      <trkpt lat="42.0978520" lon="-8.8900700">
        <ele>103.0</ele>
        <time>2021-05-19T12:40:55Z</time>
      </trkpt>
      <trkpt lat="42.0978540" lon="-8.8900720">
        <ele>103.0</ele>
        <time>2021-05-19T12:40:56Z</time>
      </trkpt>
      <trkpt lat="42.0978560" lon="-8.8900710">
        <ele>103.0</ele>
        <time>2021-05-19T12:40:57Z</time>
      </trkpt>
      <trkpt lat="42.0978590" lon="-8.8900690">
        <ele>103.0</ele>
        <time>2021-05-19T12:40:58Z</time>
      </trkpt>
      <trkpt lat="42.0978730" lon="-8.8900510">
        <ele>103.0</ele>
        <time>2021-05-19T12:40:59Z</time>
      </trkpt>
      <trkpt lat="42.0978860" lon="-8.8900370">
        <ele>103.0</ele>
        <time>2021-05-19T12:41:00Z</time>
      </trkpt>
      <trkpt lat="42.0978930" lon="-8.8900410">
        <ele>103.0</ele>
        <time>2021-05-19T12:41:01Z</time>
      </trkpt>
      <trkpt lat="42.0979020" lon="-8.8900370">
        <ele>103.0</ele>
        <time>2021-05-19T12:41:02Z</time>
      </trkpt>
      <trkpt lat="42.0979130" lon="-8.8900230">
        <ele>103.0</ele>
        <time>2021-05-19T12:41:03Z</time>
      </trkpt>
      <trkpt lat="42.0979210" lon="-8.8900210">
        <ele>103.0</ele>
        <time>2021-05-19T12:41:04Z</time>
      </trkpt>
      <trkpt lat="42.0979280" lon="-8.8900200">
        <ele>103.0</ele>
        <time>2021-05-19T12:41:05Z</time>
      </trkpt>
      <trkpt lat="42.0979290" lon="-8.8900180">
        <ele>103.0</ele>
        <time>2021-05-19T12:41:06Z</time>
      </trkpt>
      <trkpt lat="42.0979240" lon="-8.8900280">
        <ele>103.0</ele>
        <time>2021-05-19T12:41:07Z</time>
      </trkpt>
      <trkpt lat="42.0979370" lon="-8.8900290">
        <ele>103.0</ele>
        <time>2021-05-19T12:41:08Z</time>
      </trkpt>
      <trkpt lat="42.0979560" lon="-8.8900290">
        <ele>102.9</ele>
        <time>2021-05-19T12:41:09Z</time>
      </trkpt>
      <trkpt lat="42.0979660" lon="-8.8900360">
        <ele>102.9</ele>
        <time>2021-05-19T12:41:10Z</time>
      </trkpt>
      <trkpt lat="42.0979790" lon="-8.8900310">
        <ele>102.9</ele>
        <time>2021-05-19T12:41:11Z</time>
      </trkpt>
      <trkpt lat="42.0979830" lon="-8.8900450">
        <ele>102.9</ele>
        <time>2021-05-19T12:41:12Z</time>
      </trkpt>
      <trkpt lat="42.0979790" lon="-8.8900400">
        <ele>102.9</ele>
        <time>2021-05-19T12:41:13Z</time>
      </trkpt>
      <trkpt lat="42.0979920" lon="-8.8900420">
        <ele>102.8</ele>
        <time>2021-05-19T12:41:14Z</time>
      </trkpt>
      <trkpt lat="42.0980080" lon="-8.8900380">
        <ele>102.8</ele>
        <time>2021-05-19T12:41:15Z</time>
      </trkpt>
      <trkpt lat="42.0980120" lon="-8.8900560">
        <ele>102.8</ele>
        <time>2021-05-19T12:41:16Z</time>
      </trkpt>
      <trkpt lat="42.0980310" lon="-8.8900600">
        <ele>102.7</ele>
        <time>2021-05-19T12:41:17Z</time>
      </trkpt>
      <trkpt lat="42.0980400" lon="-8.8900620">
        <ele>102.7</ele>
        <time>2021-05-19T12:41:18Z</time>
      </trkpt>
      <trkpt lat="42.0980480" lon="-8.8900630">
        <ele>102.7</ele>
        <time>2021-05-19T12:41:19Z</time>
      </trkpt>
      <trkpt lat="42.0980660" lon="-8.8900870">
        <ele>102.6</ele>
        <time>2021-05-19T12:41:20Z</time>
      </trkpt>
      <trkpt lat="42.0980720" lon="-8.8900920">
        <ele>102.6</ele>
        <time>2021-05-19T12:41:21Z</time>
      </trkpt>
      <trkpt lat="42.0980790" lon="-8.8900960">
        <ele>102.6</ele>
        <time>2021-05-19T12:41:22Z</time>
      </trkpt>
      <trkpt lat="42.0980930" lon="-8.8901040">
        <ele>102.5</ele>
        <time>2021-05-19T12:41:23Z</time>
      </trkpt>
      <trkpt lat="42.0981070" lon="-8.8901130">
        <ele>102.5</ele>
        <time>2021-05-19T12:41:24Z</time>
      </trkpt>
      <trkpt lat="42.0981180" lon="-8.8901220">
        <ele>102.5</ele>
        <time>2021-05-19T12:41:25Z</time>
      </trkpt>
      <trkpt lat="42.0981290" lon="-8.8901350">
        <ele>102.5</ele>
        <time>2021-05-19T12:41:26Z</time>
      </trkpt>
      <trkpt lat="42.0981380" lon="-8.8901430">
        <ele>102.4</ele>
        <time>2021-05-19T12:41:27Z</time>
      </trkpt>
      <trkpt lat="42.0981540" lon="-8.8901500">
        <ele>102.4</ele>
        <time>2021-05-19T12:41:28Z</time>
      </trkpt>
      <trkpt lat="42.0981630" lon="-8.8901550">
        <ele>102.4</ele>
        <time>2021-05-19T12:41:29Z</time>
      </trkpt>
      <trkpt lat="42.0981680" lon="-8.8901620">
        <ele>102.4</ele>
        <time>2021-05-19T12:41:30Z</time>
      </trkpt>
      <trkpt lat="42.0981810" lon="-8.8901590">
        <ele>102.4</ele>
        <time>2021-05-19T12:41:31Z</time>
      </trkpt>
      <trkpt lat="42.0981910" lon="-8.8901720">
        <ele>102.4</ele>
        <time>2021-05-19T12:41:32Z</time>
      </trkpt>
      <trkpt lat="42.0982040" lon="-8.8901700">
        <ele>102.4</ele>
        <time>2021-05-19T12:41:33Z</time>
      </trkpt>
      <trkpt lat="42.0982080" lon="-8.8901720">
        <ele>102.4</ele>
        <time>2021-05-19T12:41:34Z</time>
      </trkpt>
      <trkpt lat="42.0982260" lon="-8.8901700">
        <ele>102.4</ele>
        <time>2021-05-19T12:41:35Z</time>
      </trkpt>
      <trkpt lat="42.0982390" lon="-8.8901700">
        <ele>102.4</ele>
        <time>2021-05-19T12:41:36Z</time>
      </trkpt>
      <trkpt lat="42.0982520" lon="-8.8901660">
        <ele>102.5</ele>
        <time>2021-05-19T12:41:37Z</time>
      </trkpt>
      <trkpt lat="42.0982560" lon="-8.8901610">
        <ele>102.5</ele>
        <time>2021-05-19T12:41:38Z</time>
      </trkpt>
      <trkpt lat="42.0982660" lon="-8.8901680">
        <ele>102.5</ele>
        <time>2021-05-19T12:41:39Z</time>
      </trkpt>
      <trkpt lat="42.0982760" lon="-8.8901670">
        <ele>102.5</ele>
        <time>2021-05-19T12:41:40Z</time>
      </trkpt>
      <trkpt lat="42.0982900" lon="-8.8901720">
        <ele>102.5</ele>
        <time>2021-05-19T12:41:41Z</time>
      </trkpt>
      <trkpt lat="42.0983020" lon="-8.8901680">
        <ele>102.6</ele>
        <time>2021-05-19T12:41:42Z</time>
      </trkpt>
      <trkpt lat="42.0983090" lon="-8.8901670">
        <ele>102.6</ele>
        <time>2021-05-19T12:41:43Z</time>
      </trkpt>
      <trkpt lat="42.0983230" lon="-8.8901610">
        <ele>102.7</ele>
        <time>2021-05-19T12:41:44Z</time>
      </trkpt>
      <trkpt lat="42.0983360" lon="-8.8901510">
        <ele>102.7</ele>
        <time>2021-05-19T12:41:45Z</time>
      </trkpt>
      <trkpt lat="42.0983510" lon="-8.8901530">
        <ele>102.8</ele>
        <time>2021-05-19T12:41:46Z</time>
      </trkpt>
      <trkpt lat="42.0983610" lon="-8.8901540">
        <ele>102.8</ele>
        <time>2021-05-19T12:41:47Z</time>
      </trkpt>
      <trkpt lat="42.0983710" lon="-8.8901580">
        <ele>102.9</ele>
        <time>2021-05-19T12:41:48Z</time>
      </trkpt>
      <trkpt lat="42.0983820" lon="-8.8901560">
        <ele>102.9</ele>
        <time>2021-05-19T12:41:49Z</time>
      </trkpt>
      <trkpt lat="42.0984020" lon="-8.8901540">
        <ele>103.0</ele>
        <time>2021-05-19T12:41:50Z</time>
      </trkpt>
      <trkpt lat="42.0984140" lon="-8.8901450">
        <ele>103.1</ele>
        <time>2021-05-19T12:41:51Z</time>
      </trkpt>
      <trkpt lat="42.0984320" lon="-8.8901420">
        <ele>103.2</ele>
        <time>2021-05-19T12:41:52Z</time>
      </trkpt>
      <trkpt lat="42.0984360" lon="-8.8901410">
        <ele>103.2</ele>
        <time>2021-05-19T12:41:53Z</time>
      </trkpt>
      <trkpt lat="42.0984480" lon="-8.8901400">
        <ele>103.3</ele>
        <time>2021-05-19T12:41:54Z</time>
      </trkpt>
      <trkpt lat="42.0984500" lon="-8.8901480">
        <ele>103.3</ele>
        <time>2021-05-19T12:41:55Z</time>
      </trkpt>
      <trkpt lat="42.0984600" lon="-8.8901400">
        <ele>103.4</ele>
        <time>2021-05-19T12:41:56Z</time>
      </trkpt>
      <trkpt lat="42.0984730" lon="-8.8901400">
        <ele>103.5</ele>
        <time>2021-05-19T12:41:57Z</time>
      </trkpt>
      <trkpt lat="42.0984830" lon="-8.8901420">
        <ele>103.6</ele>
        <time>2021-05-19T12:41:58Z</time>
      </trkpt>
      <trkpt lat="42.0984900" lon="-8.8901440">
        <ele>103.6</ele>
        <time>2021-05-19T12:41:59Z</time>
      </trkpt>
      <trkpt lat="42.0984970" lon="-8.8901450">
        <ele>103.7</ele>
        <time>2021-05-19T12:42:00Z</time>
      </trkpt>
      <trkpt lat="42.0985060" lon="-8.8901450">
        <ele>103.7</ele>
        <time>2021-05-19T12:42:01Z</time>
      </trkpt>
      <trkpt lat="42.0985170" lon="-8.8901420">
        <ele>103.8</ele>
        <time>2021-05-19T12:42:02Z</time>
      </trkpt>
      <trkpt lat="42.0985210" lon="-8.8901480">
        <ele>103.9</ele>
        <time>2021-05-19T12:42:03Z</time>
      </trkpt>
      <trkpt lat="42.0985330" lon="-8.8901470">
        <ele>104.0</ele>
        <time>2021-05-19T12:42:04Z</time>
      </trkpt>
      <trkpt lat="42.0985380" lon="-8.8901500">
        <ele>104.0</ele>
        <time>2021-05-19T12:42:05Z</time>
      </trkpt>
      <trkpt lat="42.0985370" lon="-8.8901530">
        <ele>104.0</ele>
        <time>2021-05-19T12:42:06Z</time>
      </trkpt>
      <trkpt lat="42.0985660" lon="-8.8901600">
        <ele>104.2</ele>
        <time>2021-05-19T12:42:08Z</time>
      </trkpt>
      <trkpt lat="42.0985720" lon="-8.8901620">
        <ele>104.3</ele>
        <time>2021-05-19T12:42:10Z</time>
      </trkpt>
      <trkpt lat="42.0985920" lon="-8.8901610">
        <ele>104.4</ele>
        <time>2021-05-19T12:42:11Z</time>
      </trkpt>
      <trkpt lat="42.0986030" lon="-8.8901590">
        <ele>104.5</ele>
        <time>2021-05-19T12:42:12Z</time>
      </trkpt>
      <trkpt lat="42.0986050" lon="-8.8901580">
        <ele>104.5</ele>
        <time>2021-05-19T12:42:13Z</time>
      </trkpt>
      <trkpt lat="42.0986100" lon="-8.8901610">
        <ele>104.6</ele>
        <time>2021-05-19T12:42:14Z</time>
      </trkpt>
      <trkpt lat="42.0986250" lon="-8.8901530">
        <ele>104.7</ele>
        <time>2021-05-19T12:42:15Z</time>
      </trkpt>
      <trkpt lat="42.0986380" lon="-8.8901570">
        <ele>104.8</ele>
        <time>2021-05-19T12:42:16Z</time>
      </trkpt>
      <trkpt lat="42.0986440" lon="-8.8901550">
        <ele>104.8</ele>
        <time>2021-05-19T12:42:17Z</time>
      </trkpt>
      <trkpt lat="42.0986460" lon="-8.8901570">
        <ele>104.9</ele>
        <time>2021-05-19T12:42:18Z</time>
      </trkpt>
      <trkpt lat="42.0986430" lon="-8.8901590">
        <ele>104.9</ele>
        <time>2021-05-19T12:42:19Z</time>
      </trkpt>
      <trkpt lat="42.0986420" lon="-8.8901560">
        <ele>104.9</ele>
        <time>2021-05-19T12:42:20Z</time>
      </trkpt>
      <trkpt lat="42.0986390" lon="-8.8901520">
        <ele>104.9</ele>
        <time>2021-05-19T12:42:21Z</time>
      </trkpt>
      <trkpt lat="42.0986360" lon="-8.8901480">
        <ele>105.0</ele>
        <time>2021-05-19T12:42:22Z</time>
      </trkpt>
      <trkpt lat="42.0986370" lon="-8.8901430">
        <ele>105.0</ele>
        <time>2021-05-19T12:42:23Z</time>
      </trkpt>
      <trkpt lat="42.0986470" lon="-8.8901410">
        <ele>105.1</ele>
        <time>2021-05-19T12:42:24Z</time>
      </trkpt>
      <trkpt lat="42.0986490" lon="-8.8901350">
        <ele>105.1</ele>
        <time>2021-05-19T12:42:25Z</time>
      </trkpt>
      <trkpt lat="42.0986460" lon="-8.8901450">
        <ele>105.1</ele>
        <time>2021-05-19T12:42:26Z</time>
      </trkpt>
      <trkpt lat="42.0986430" lon="-8.8901490">
        <ele>105.2</ele>
        <time>2021-05-19T12:42:27Z</time>
      </trkpt>
      <trkpt lat="42.0986420" lon="-8.8901630">
        <ele>105.2</ele>
        <time>2021-05-19T12:42:28Z</time>
      </trkpt>
      <trkpt lat="42.0986380" lon="-8.8901700">
        <ele>105.3</ele>
        <time>2021-05-19T12:42:29Z</time>
      </trkpt>
      <trkpt lat="42.0986280" lon="-8.8901930">
        <ele>105.4</ele>
        <time>2021-05-19T12:42:30Z</time>
      </trkpt>
      <trkpt lat="42.0986280" lon="-8.8901970">
        <ele>105.4</ele>
        <time>2021-05-19T12:42:31Z</time>
      </trkpt>
      <trkpt lat="42.0986280" lon="-8.8902010">
        <ele>105.5</ele>
        <time>2021-05-19T12:42:32Z</time>
      </trkpt>
      <trkpt lat="42.0986280" lon="-8.8902040">
        <ele>105.5</ele>
        <time>2021-05-19T12:42:33Z</time>
      </trkpt>
      <trkpt lat="42.0986280" lon="-8.8902080">
        <ele>105.5</ele>
        <time>2021-05-19T12:42:34Z</time>
      </trkpt>
      <trkpt lat="42.0986280" lon="-8.8902110">
        <ele>105.5</ele>
        <time>2021-05-19T12:42:35Z</time>
      </trkpt>
      <trkpt lat="42.0986280" lon="-8.8902140">
        <ele>105.5</ele>
        <time>2021-05-19T12:42:36Z</time>
      </trkpt>
      <trkpt lat="42.0986280" lon="-8.8902180">
        <ele>105.5</ele>
        <time>2021-05-19T12:42:37Z</time>
      </trkpt>
      <trkpt lat="42.0986350" lon="-8.8902250">
        <ele>105.6</ele>
        <time>2021-05-19T12:42:38Z</time>
      </trkpt>
      <trkpt lat="42.0986450" lon="-8.8902160">
        <ele>105.7</ele>
        <time>2021-05-19T12:42:39Z</time>
      </trkpt>
      <trkpt lat="42.0986580" lon="-8.8902130">
        <ele>105.8</ele>
        <time>2021-05-19T12:42:40Z</time>
      </trkpt>
      <trkpt lat="42.0986700" lon="-8.8902120">
        <ele>105.9</ele>
        <time>2021-05-19T12:42:41Z</time>
      </trkpt>
      <trkpt lat="42.0986860" lon="-8.8902060">
        <ele>106.0</ele>
        <time>2021-05-19T12:42:42Z</time>
      </trkpt>
      <trkpt lat="42.0987090" lon="-8.8902120">
        <ele>106.2</ele>
        <time>2021-05-19T12:42:43Z</time>
      </trkpt>
      <trkpt lat="42.0987150" lon="-8.8902150">
        <ele>106.2</ele>
        <time>2021-05-19T12:42:44Z</time>
      </trkpt>
      <trkpt lat="42.0987220" lon="-8.8902180">
        <ele>106.3</ele>
        <time>2021-05-19T12:42:45Z</time>
      </trkpt>
      <trkpt lat="42.0987280" lon="-8.8902240">
        <ele>106.4</ele>
        <time>2021-05-19T12:42:46Z</time>
      </trkpt>
      <trkpt lat="42.0987310" lon="-8.8902340">
        <ele>106.4</ele>
        <time>2021-05-19T12:42:47Z</time>
      </trkpt>
      <trkpt lat="42.0987430" lon="-8.8902240">
        <ele>106.6</ele>
        <time>2021-05-19T12:42:48Z</time>
      </trkpt>
      <trkpt lat="42.0987480" lon="-8.8902270">
        <ele>106.6</ele>
        <time>2021-05-19T12:42:49Z</time>
      </trkpt>
      <trkpt lat="42.0987530" lon="-8.8902320">
        <ele>106.7</ele>
        <time>2021-05-19T12:42:50Z</time>
      </trkpt>
      <trkpt lat="42.0987620" lon="-8.8902370">
        <ele>106.8</ele>
        <time>2021-05-19T12:42:51Z</time>
      </trkpt>
      <trkpt lat="42.0987790" lon="-8.8902230">
        <ele>107.0</ele>
        <time>2021-05-19T12:42:52Z</time>
      </trkpt>
      <trkpt lat="42.0987850" lon="-8.8902150">
        <ele>107.1</ele>
        <time>2021-05-19T12:42:53Z</time>
      </trkpt>
      <trkpt lat="42.0987950" lon="-8.8902120">
        <ele>107.2</ele>
        <time>2021-05-19T12:42:54Z</time>
      </trkpt>
      <trkpt lat="42.0988020" lon="-8.8902150">
        <ele>107.3</ele>
        <time>2021-05-19T12:42:55Z</time>
      </trkpt>
      <trkpt lat="42.0988140" lon="-8.8902090">
        <ele>107.4</ele>
        <time>2021-05-19T12:42:56Z</time>
      </trkpt>
      <trkpt lat="42.0988320" lon="-8.8902060">
        <ele>107.7</ele>
        <time>2021-05-19T12:42:57Z</time>
      </trkpt>
      <trkpt lat="42.0988390" lon="-8.8902050">
        <ele>107.7</ele>
        <time>2021-05-19T12:42:58Z</time>
      </trkpt>
      <trkpt lat="42.0988450" lon="-8.8902040">
        <ele>107.8</ele>
        <time>2021-05-19T12:42:59Z</time>
      </trkpt>
      <trkpt lat="42.0988520" lon="-8.8902030">
        <ele>107.9</ele>
        <time>2021-05-19T12:43:00Z</time>
      </trkpt>
      <trkpt lat="42.0988650" lon="-8.8902010">
        <ele>108.0</ele>
        <time>2021-05-19T12:43:01Z</time>
      </trkpt>
      <trkpt lat="42.0988750" lon="-8.8902040">
        <ele>108.2</ele>
        <time>2021-05-19T12:43:02Z</time>
      </trkpt>
      <trkpt lat="42.0988800" lon="-8.8902060">
        <ele>108.2</ele>
        <time>2021-05-19T12:43:03Z</time>
      </trkpt>
      <trkpt lat="42.0988890" lon="-8.8902050">
        <ele>108.3</ele>
        <time>2021-05-19T12:43:04Z</time>
      </trkpt>
      <trkpt lat="42.0989030" lon="-8.8902010">
        <ele>108.5</ele>
        <time>2021-05-19T12:43:05Z</time>
      </trkpt>
      <trkpt lat="42.0989140" lon="-8.8902010">
        <ele>108.6</ele>
        <time>2021-05-19T12:43:06Z</time>
      </trkpt>
      <trkpt lat="42.0989220" lon="-8.8901960">
        <ele>108.7</ele>
        <time>2021-05-19T12:43:07Z</time>
      </trkpt>
      <trkpt lat="42.0989380" lon="-8.8901980">
        <ele>108.9</ele>
        <time>2021-05-19T12:43:08Z</time>
      </trkpt>
      <trkpt lat="42.0989420" lon="-8.8901990">
        <ele>109.0</ele>
        <time>2021-05-19T12:43:09Z</time>
      </trkpt>
      <trkpt lat="42.0989530" lon="-8.8901970">
        <ele>109.1</ele>
        <time>2021-05-19T12:43:10Z</time>
      </trkpt>
      <trkpt lat="42.0989640" lon="-8.8901950">
        <ele>109.2</ele>
        <time>2021-05-19T12:43:11Z</time>
      </trkpt>
      <trkpt lat="42.0989740" lon="-8.8901960">
        <ele>109.3</ele>
        <time>2021-05-19T12:43:12Z</time>
      </trkpt>
      <trkpt lat="42.0989790" lon="-8.8901900">
        <ele>109.4</ele>
        <time>2021-05-19T12:43:13Z</time>
      </trkpt>
      <trkpt lat="42.0989880" lon="-8.8901900">
        <ele>109.5</ele>
        <time>2021-05-19T12:43:14Z</time>
      </trkpt>
      <trkpt lat="42.0989920" lon="-8.8901930">
        <ele>109.6</ele>
        <time>2021-05-19T12:43:15Z</time>
      </trkpt>
      <trkpt lat="42.0990020" lon="-8.8901930">
        <ele>109.7</ele>
        <time>2021-05-19T12:43:16Z</time>
      </trkpt>
      <trkpt lat="42.0990110" lon="-8.8901930">
        <ele>109.8</ele>
        <time>2021-05-19T12:43:17Z</time>
      </trkpt>
      <trkpt lat="42.0990190" lon="-8.8901920">
        <ele>109.8</ele>
        <time>2021-05-19T12:43:18Z</time>
      </trkpt>
      <trkpt lat="42.0990280" lon="-8.8901910">
        <ele>109.9</ele>
        <time>2021-05-19T12:43:19Z</time>
      </trkpt>
      <trkpt lat="42.0990360" lon="-8.8902020">
        <ele>110.0</ele>
        <time>2021-05-19T12:43:20Z</time>
      </trkpt>
      <trkpt lat="42.0990530" lon="-8.8902090">
        <ele>110.2</ele>
        <time>2021-05-19T12:43:21Z</time>
      </trkpt>
      <trkpt lat="42.0990600" lon="-8.8902130">
        <ele>110.2</ele>
        <time>2021-05-19T12:43:22Z</time>
      </trkpt>
      <trkpt lat="42.0990660" lon="-8.8902160">
        <ele>110.3</ele>
        <time>2021-05-19T12:43:23Z</time>
      </trkpt>
      <trkpt lat="42.0990730" lon="-8.8902200">
        <ele>110.4</ele>
        <time>2021-05-19T12:43:24Z</time>
      </trkpt>
      <trkpt lat="42.0990790" lon="-8.8902290">
        <ele>110.4</ele>
        <time>2021-05-19T12:43:25Z</time>
      </trkpt>
      <trkpt lat="42.0990870" lon="-8.8902390">
        <ele>110.5</ele>
        <time>2021-05-19T12:43:26Z</time>
      </trkpt>
      <trkpt lat="42.0990980" lon="-8.8902460">
        <ele>110.6</ele>
        <time>2021-05-19T12:43:27Z</time>
      </trkpt>
      <trkpt lat="42.0990990" lon="-8.8902530">
        <ele>110.6</ele>
        <time>2021-05-19T12:43:28Z</time>
      </trkpt>
      <trkpt lat="42.0991090" lon="-8.8902670">
        <ele>110.7</ele>
        <time>2021-05-19T12:43:29Z</time>
      </trkpt>
      <trkpt lat="42.0991170" lon="-8.8902770">
        <ele>110.8</ele>
        <time>2021-05-19T12:43:30Z</time>
      </trkpt>
      <trkpt lat="42.0991190" lon="-8.8902760">
        <ele>110.8</ele>
        <time>2021-05-19T12:43:31Z</time>
      </trkpt>
      <trkpt lat="42.0991260" lon="-8.8902880">
        <ele>110.9</ele>
        <time>2021-05-19T12:43:32Z</time>
      </trkpt>
      <trkpt lat="42.0991340" lon="-8.8902950">
        <ele>110.9</ele>
        <time>2021-05-19T12:43:33Z</time>
      </trkpt>
      <trkpt lat="42.0991410" lon="-8.8903080">
        <ele>111.0</ele>
        <time>2021-05-19T12:43:34Z</time>
      </trkpt>
      <trkpt lat="42.0991660" lon="-8.8903120">
        <ele>111.1</ele>
        <time>2021-05-19T12:43:35Z</time>
      </trkpt>
      <trkpt lat="42.0991730" lon="-8.8903080">
        <ele>111.1</ele>
        <time>2021-05-19T12:43:36Z</time>
      </trkpt>
      <trkpt lat="42.0991810" lon="-8.8903050">
        <ele>111.2</ele>
        <time>2021-05-19T12:43:37Z</time>
      </trkpt>
      <trkpt lat="42.0991900" lon="-8.8903040">
        <ele>111.2</ele>
        <time>2021-05-19T12:43:38Z</time>
      </trkpt>
      <trkpt lat="42.0992050" lon="-8.8903040">
        <ele>111.3</ele>
        <time>2021-05-19T12:43:39Z</time>
      </trkpt>
      <trkpt lat="42.0992160" lon="-8.8903030">
        <ele>111.3</ele>
        <time>2021-05-19T12:43:40Z</time>
      </trkpt>
      <trkpt lat="42.0992280" lon="-8.8902970">
        <ele>111.4</ele>
        <time>2021-05-19T12:43:41Z</time>
      </trkpt>
      <trkpt lat="42.0992380" lon="-8.8903060">
        <ele>111.5</ele>
        <time>2021-05-19T12:43:42Z</time>
      </trkpt>
      <trkpt lat="42.0992520" lon="-8.8903060">
        <ele>111.5</ele>
        <time>2021-05-19T12:43:43Z</time>
      </trkpt>
      <trkpt lat="42.0992670" lon="-8.8903050">
        <ele>111.6</ele>
        <time>2021-05-19T12:43:44Z</time>
      </trkpt>
      <trkpt lat="42.0992740" lon="-8.8903060">
        <ele>111.6</ele>
        <time>2021-05-19T12:43:45Z</time>
      </trkpt>
      <trkpt lat="42.0992820" lon="-8.8903080">
        <ele>111.7</ele>
        <time>2021-05-19T12:43:46Z</time>
      </trkpt>
      <trkpt lat="42.0992890" lon="-8.8903090">
        <ele>111.7</ele>
        <time>2021-05-19T12:43:47Z</time>
      </trkpt>
      <trkpt lat="42.0993100" lon="-8.8903150">
        <ele>111.8</ele>
        <time>2021-05-19T12:43:48Z</time>
      </trkpt>
      <trkpt lat="42.0993220" lon="-8.8903120">
        <ele>111.9</ele>
        <time>2021-05-19T12:43:49Z</time>
      </trkpt>
      <trkpt lat="42.0993330" lon="-8.8903080">
        <ele>111.9</ele>
        <time>2021-05-19T12:43:50Z</time>
      </trkpt>
      <trkpt lat="42.0993530" lon="-8.8903160">
        <ele>112.1</ele>
        <time>2021-05-19T12:43:51Z</time>
      </trkpt>
      <trkpt lat="42.0993620" lon="-8.8903230">
        <ele>112.1</ele>
        <time>2021-05-19T12:43:52Z</time>
      </trkpt>
      <trkpt lat="42.0993710" lon="-8.8903310">
        <ele>112.2</ele>
        <time>2021-05-19T12:43:53Z</time>
      </trkpt>
      <trkpt lat="42.0993710" lon="-8.8903240">
        <ele>112.2</ele>
        <time>2021-05-19T12:43:54Z</time>
      </trkpt>
      <trkpt lat="42.0993720" lon="-8.8903230">
        <ele>112.3</ele>
        <time>2021-05-19T12:43:55Z</time>
      </trkpt>
      <trkpt lat="42.0993710" lon="-8.8903260">
        <ele>112.3</ele>
        <time>2021-05-19T12:43:56Z</time>
      </trkpt>
      <trkpt lat="42.0993720" lon="-8.8903320">
        <ele>112.3</ele>
        <time>2021-05-19T12:43:57Z</time>
      </trkpt>
      <trkpt lat="42.0993730" lon="-8.8903410">
        <ele>112.3</ele>
        <time>2021-05-19T12:43:58Z</time>
      </trkpt>
      <trkpt lat="42.0993740" lon="-8.8903480">
        <ele>112.4</ele>
        <time>2021-05-19T12:43:59Z</time>
      </trkpt>
      <trkpt lat="42.0993760" lon="-8.8903500">
        <ele>112.4</ele>
        <time>2021-05-19T12:44:00Z</time>
      </trkpt>
      <trkpt lat="42.0993730" lon="-8.8903520">
        <ele>112.4</ele>
        <time>2021-05-19T12:44:01Z</time>
      </trkpt>
      <trkpt lat="42.0993720" lon="-8.8903550">
        <ele>112.4</ele>
        <time>2021-05-19T12:44:02Z</time>
      </trkpt>
      <trkpt lat="42.0993720" lon="-8.8903540">
        <ele>112.4</ele>
        <time>2021-05-19T12:44:03Z</time>
      </trkpt>
      <trkpt lat="42.0993720" lon="-8.8903520">
        <ele>112.5</ele>
        <time>2021-05-19T12:44:04Z</time>
      </trkpt>
      <trkpt lat="42.0993720" lon="-8.8903510">
        <ele>112.5</ele>
        <time>2021-05-19T12:44:05Z</time>
      </trkpt>
      <trkpt lat="42.0993700" lon="-8.8903530">
        <ele>112.5</ele>
        <time>2021-05-19T12:44:06Z</time>
      </trkpt>
      <trkpt lat="42.0993700" lon="-8.8903550">
        <ele>112.5</ele>
        <time>2021-05-19T12:44:07Z</time>
      </trkpt>
      <trkpt lat="42.0993700" lon="-8.8903530">
        <ele>112.5</ele>
        <time>2021-05-19T12:44:08Z</time>
      </trkpt>
      <trkpt lat="42.0993680" lon="-8.8903510">
        <ele>112.5</ele>
        <time>2021-05-19T12:44:09Z</time>
      </trkpt>
      <trkpt lat="42.0993680" lon="-8.8903510">
        <ele>112.5</ele>
        <time>2021-05-19T12:44:10Z</time>
      </trkpt>
      <trkpt lat="42.0993680" lon="-8.8903510">
        <ele>112.5</ele>
        <time>2021-05-19T12:44:11Z</time>
      </trkpt>
      <trkpt lat="42.0993670" lon="-8.8903540">
        <ele>112.5</ele>
        <time>2021-05-19T12:44:12Z</time>
      </trkpt>
      <trkpt lat="42.0993670" lon="-8.8903540">
        <ele>112.5</ele>
        <time>2021-05-19T12:44:13Z</time>
      </trkpt>
      <trkpt lat="42.0993670" lon="-8.8903540">
        <ele>112.5</ele>
        <time>2021-05-19T12:44:14Z</time>
      </trkpt>
      <trkpt lat="42.0993670" lon="-8.8903540">
        <ele>112.5</ele>
        <time>2021-05-19T12:44:15Z</time>
      </trkpt>
      <trkpt lat="42.0993700" lon="-8.8903530">
        <ele>112.6</ele>
        <time>2021-05-19T12:44:16Z</time>
      </trkpt>
      <trkpt lat="42.0993700" lon="-8.8903530">
        <ele>112.6</ele>
        <time>2021-05-19T12:44:17Z</time>
      </trkpt>
      <trkpt lat="42.0993720" lon="-8.8903560">
        <ele>112.6</ele>
        <time>2021-05-19T12:44:18Z</time>
      </trkpt>
      <trkpt lat="42.0993730" lon="-8.8903600">
        <ele>112.6</ele>
        <time>2021-05-19T12:44:19Z</time>
      </trkpt>
      <trkpt lat="42.0993730" lon="-8.8903600">
        <ele>112.6</ele>
        <time>2021-05-19T12:44:20Z</time>
      </trkpt>
      <trkpt lat="42.0993720" lon="-8.8903560">
        <ele>112.6</ele>
        <time>2021-05-19T12:44:21Z</time>
      </trkpt>
      <trkpt lat="42.0993710" lon="-8.8903570">
        <ele>112.6</ele>
        <time>2021-05-19T12:44:22Z</time>
      </trkpt>
      <trkpt lat="42.0993720" lon="-8.8903570">
        <ele>112.6</ele>
        <time>2021-05-19T12:44:23Z</time>
      </trkpt>
      <trkpt lat="42.0993720" lon="-8.8903560">
        <ele>112.6</ele>
        <time>2021-05-19T12:44:24Z</time>
      </trkpt>
      <trkpt lat="42.0993730" lon="-8.8903530">
        <ele>112.7</ele>
        <time>2021-05-19T12:44:25Z</time>
      </trkpt>
      <trkpt lat="42.0993730" lon="-8.8903510">
        <ele>112.7</ele>
        <time>2021-05-19T12:44:26Z</time>
      </trkpt>
      <trkpt lat="42.0993760" lon="-8.8903480">
        <ele>112.7</ele>
        <time>2021-05-19T12:44:27Z</time>
      </trkpt>
      <trkpt lat="42.0993830" lon="-8.8903480">
        <ele>112.8</ele>
        <time>2021-05-19T12:44:28Z</time>
      </trkpt>
      <trkpt lat="42.0993960" lon="-8.8903290">
        <ele>112.9</ele>
        <time>2021-05-19T12:44:29Z</time>
      </trkpt>
      <trkpt lat="42.0994080" lon="-8.8903330">
        <ele>113.0</ele>
        <time>2021-05-19T12:44:30Z</time>
      </trkpt>
      <trkpt lat="42.0994170" lon="-8.8903360">
        <ele>113.0</ele>
        <time>2021-05-19T12:44:31Z</time>
      </trkpt>
      <trkpt lat="42.0994250" lon="-8.8903390">
        <ele>113.1</ele>
        <time>2021-05-19T12:44:32Z</time>
      </trkpt>
      <trkpt lat="42.0994340" lon="-8.8903400">
        <ele>113.2</ele>
        <time>2021-05-19T12:44:33Z</time>
      </trkpt>
      <trkpt lat="42.0994430" lon="-8.8903330">
        <ele>113.2</ele>
        <time>2021-05-19T12:44:34Z</time>
      </trkpt>
      <trkpt lat="42.0994500" lon="-8.8903370">
        <ele>113.3</ele>
        <time>2021-05-19T12:44:35Z</time>
      </trkpt>
      <trkpt lat="42.0994540" lon="-8.8903340">
        <ele>113.3</ele>
        <time>2021-05-19T12:44:36Z</time>
      </trkpt>
      <trkpt lat="42.0994500" lon="-8.8903350">
        <ele>113.4</ele>
        <time>2021-05-19T12:44:37Z</time>
      </trkpt>
      <trkpt lat="42.0994490" lon="-8.8903320">
        <ele>113.4</ele>
        <time>2021-05-19T12:44:38Z</time>
      </trkpt>
      <trkpt lat="42.0994480" lon="-8.8903330">
        <ele>113.4</ele>
        <time>2021-05-19T12:44:39Z</time>
      </trkpt>
      <trkpt lat="42.0994510" lon="-8.8903390">
        <ele>113.4</ele>
        <time>2021-05-19T12:44:40Z</time>
      </trkpt>
      <trkpt lat="42.0994510" lon="-8.8903390">
        <ele>113.4</ele>
        <time>2021-05-19T12:44:41Z</time>
      </trkpt>
      <trkpt lat="42.0994500" lon="-8.8903420">
        <ele>113.4</ele>
        <time>2021-05-19T12:44:42Z</time>
      </trkpt>
      <trkpt lat="42.0994520" lon="-8.8903380">
        <ele>113.5</ele>
        <time>2021-05-19T12:44:43Z</time>
      </trkpt>
      <trkpt lat="42.0994510" lon="-8.8903400">
        <ele>113.5</ele>
        <time>2021-05-19T12:44:44Z</time>
      </trkpt>
      <trkpt lat="42.0994510" lon="-8.8903380">
        <ele>113.5</ele>
        <time>2021-05-19T12:44:45Z</time>
      </trkpt>
      <trkpt lat="42.0994500" lon="-8.8903370">
        <ele>113.5</ele>
        <time>2021-05-19T12:44:46Z</time>
      </trkpt>
      <trkpt lat="42.0994500" lon="-8.8903400">
        <ele>113.5</ele>
        <time>2021-05-19T12:44:47Z</time>
      </trkpt>
      <trkpt lat="42.0994470" lon="-8.8903460">
        <ele>113.6</ele>
        <time>2021-05-19T12:44:48Z</time>
      </trkpt>
      <trkpt lat="42.0994470" lon="-8.8903460">
        <ele>113.6</ele>
        <time>2021-05-19T12:44:49Z</time>
      </trkpt>
      <trkpt lat="42.0994460" lon="-8.8903470">
        <ele>113.6</ele>
        <time>2021-05-19T12:44:50Z</time>
      </trkpt>
      <trkpt lat="42.0994440" lon="-8.8903560">
        <ele>113.6</ele>
        <time>2021-05-19T12:44:51Z</time>
      </trkpt>
      <trkpt lat="42.0994440" lon="-8.8903560">
        <ele>113.6</ele>
        <time>2021-05-19T12:44:52Z</time>
      </trkpt>
      <trkpt lat="42.0994440" lon="-8.8903560">
        <ele>113.6</ele>
        <time>2021-05-19T12:44:53Z</time>
      </trkpt>
      <trkpt lat="42.0994440" lon="-8.8903760">
        <ele>113.7</ele>
        <time>2021-05-19T12:44:54Z</time>
      </trkpt>
      <trkpt lat="42.0994440" lon="-8.8903730">
        <ele>113.7</ele>
        <time>2021-05-19T12:44:55Z</time>
      </trkpt>
      <trkpt lat="42.0994530" lon="-8.8903720">
        <ele>113.8</ele>
        <time>2021-05-19T12:44:56Z</time>
      </trkpt>
      <trkpt lat="42.0994550" lon="-8.8903680">
        <ele>113.8</ele>
        <time>2021-05-19T12:44:57Z</time>
      </trkpt>
      <trkpt lat="42.0994710" lon="-8.8903650">
        <ele>113.9</ele>
        <time>2021-05-19T12:44:58Z</time>
      </trkpt>
      <trkpt lat="42.0994860" lon="-8.8903620">
        <ele>114.0</ele>
        <time>2021-05-19T12:44:59Z</time>
      </trkpt>
      <trkpt lat="42.0994910" lon="-8.8903560">
        <ele>114.1</ele>
        <time>2021-05-19T12:45:00Z</time>
      </trkpt>
      <trkpt lat="42.0994970" lon="-8.8903480">
        <ele>114.1</ele>
        <time>2021-05-19T12:45:01Z</time>
      </trkpt>
      <trkpt lat="42.0995120" lon="-8.8903470">
        <ele>114.2</ele>
        <time>2021-05-19T12:45:02Z</time>
      </trkpt>
      <trkpt lat="42.0995230" lon="-8.8903380">
        <ele>114.3</ele>
        <time>2021-05-19T12:45:03Z</time>
      </trkpt>
      <trkpt lat="42.0995410" lon="-8.8903430">
        <ele>114.4</ele>
        <time>2021-05-19T12:45:04Z</time>
      </trkpt>
      <trkpt lat="42.0995480" lon="-8.8903430">
        <ele>114.4</ele>
        <time>2021-05-19T12:45:05Z</time>
      </trkpt>
      <trkpt lat="42.0995550" lon="-8.8903420">
        <ele>114.5</ele>
        <time>2021-05-19T12:45:06Z</time>
      </trkpt>
      <trkpt lat="42.0995620" lon="-8.8903410">
        <ele>114.5</ele>
        <time>2021-05-19T12:45:07Z</time>
      </trkpt>
      <trkpt lat="42.0995720" lon="-8.8903450">
        <ele>114.6</ele>
        <time>2021-05-19T12:45:08Z</time>
      </trkpt>
      <trkpt lat="42.0995820" lon="-8.8903410">
        <ele>114.6</ele>
        <time>2021-05-19T12:45:09Z</time>
      </trkpt>
      <trkpt lat="42.0995930" lon="-8.8903380">
        <ele>114.7</ele>
        <time>2021-05-19T12:45:10Z</time>
      </trkpt>
      <trkpt lat="42.0996050" lon="-8.8903430">
        <ele>114.7</ele>
        <time>2021-05-19T12:45:11Z</time>
      </trkpt>
      <trkpt lat="42.0996120" lon="-8.8903300">
        <ele>114.8</ele>
        <time>2021-05-19T12:45:12Z</time>
      </trkpt>
      <trkpt lat="42.0996240" lon="-8.8903280">
        <ele>114.8</ele>
        <time>2021-05-19T12:45:13Z</time>
      </trkpt>
      <trkpt lat="42.0996300" lon="-8.8903280">
        <ele>114.9</ele>
        <time>2021-05-19T12:45:14Z</time>
      </trkpt>
      <trkpt lat="42.0996340" lon="-8.8903180">
        <ele>114.9</ele>
        <time>2021-05-19T12:45:15Z</time>
      </trkpt>
      <trkpt lat="42.0996460" lon="-8.8903160">
        <ele>114.9</ele>
        <time>2021-05-19T12:45:16Z</time>
      </trkpt>
      <trkpt lat="42.0996550" lon="-8.8903140">
        <ele>115.0</ele>
        <time>2021-05-19T12:45:17Z</time>
      </trkpt>
      <trkpt lat="42.0996750" lon="-8.8903130">
        <ele>115.0</ele>
        <time>2021-05-19T12:45:18Z</time>
      </trkpt>
      <trkpt lat="42.0996830" lon="-8.8903110">
        <ele>115.0</ele>
        <time>2021-05-19T12:45:19Z</time>
      </trkpt>
      <trkpt lat="42.0996920" lon="-8.8903100">
        <ele>115.1</ele>
        <time>2021-05-19T12:45:20Z</time>
      </trkpt>
      <trkpt lat="42.0996990" lon="-8.8903110">
        <ele>115.1</ele>
        <time>2021-05-19T12:45:21Z</time>
      </trkpt>
      <trkpt lat="42.0997080" lon="-8.8903080">
        <ele>115.1</ele>
        <time>2021-05-19T12:45:22Z</time>
      </trkpt>
      <trkpt lat="42.0997200" lon="-8.8903100">
        <ele>115.1</ele>
        <time>2021-05-19T12:45:23Z</time>
      </trkpt>
      <trkpt lat="42.0997310" lon="-8.8903000">
        <ele>115.2</ele>
        <time>2021-05-19T12:45:24Z</time>
      </trkpt>
      <trkpt lat="42.0997350" lon="-8.8902920">
        <ele>115.2</ele>
        <time>2021-05-19T12:45:25Z</time>
      </trkpt>
      <trkpt lat="42.0997470" lon="-8.8902830">
        <ele>115.2</ele>
        <time>2021-05-19T12:45:26Z</time>
      </trkpt>
      <trkpt lat="42.0997500" lon="-8.8902800">
        <ele>115.2</ele>
        <time>2021-05-19T12:45:27Z</time>
      </trkpt>
      <trkpt lat="42.0997590" lon="-8.8902770">
        <ele>115.2</ele>
        <time>2021-05-19T12:45:28Z</time>
      </trkpt>
      <trkpt lat="42.0997660" lon="-8.8902750">
        <ele>115.2</ele>
        <time>2021-05-19T12:45:29Z</time>
      </trkpt>
      <trkpt lat="42.0997750" lon="-8.8902690">
        <ele>115.2</ele>
        <time>2021-05-19T12:45:30Z</time>
      </trkpt>
      <trkpt lat="42.0997890" lon="-8.8902760">
        <ele>115.2</ele>
        <time>2021-05-19T12:45:31Z</time>
      </trkpt>
      <trkpt lat="42.0997960" lon="-8.8902810">
        <ele>115.2</ele>
        <time>2021-05-19T12:45:32Z</time>
      </trkpt>
      <trkpt lat="42.0998040" lon="-8.8902860">
        <ele>115.2</ele>
        <time>2021-05-19T12:45:33Z</time>
      </trkpt>
      <trkpt lat="42.0998110" lon="-8.8902910">
        <ele>115.2</ele>
        <time>2021-05-19T12:45:34Z</time>
      </trkpt>
      <trkpt lat="42.0998220" lon="-8.8902970">
        <ele>115.2</ele>
        <time>2021-05-19T12:45:35Z</time>
      </trkpt>
      <trkpt lat="42.0998320" lon="-8.8903100">
        <ele>115.2</ele>
        <time>2021-05-19T12:45:36Z</time>
      </trkpt>
      <trkpt lat="42.0998410" lon="-8.8903150">
        <ele>115.2</ele>
        <time>2021-05-19T12:45:37Z</time>
      </trkpt>
      <trkpt lat="42.0998570" lon="-8.8903270">
        <ele>115.2</ele>
        <time>2021-05-19T12:45:38Z</time>
      </trkpt>
      <trkpt lat="42.0998650" lon="-8.8903310">
        <ele>115.1</ele>
        <time>2021-05-19T12:45:39Z</time>
      </trkpt>
      <trkpt lat="42.0998740" lon="-8.8903360">
        <ele>115.1</ele>
        <time>2021-05-19T12:45:40Z</time>
      </trkpt>
      <trkpt lat="42.0998820" lon="-8.8903420">
        <ele>115.1</ele>
        <time>2021-05-19T12:45:41Z</time>
      </trkpt>
      <trkpt lat="42.0998930" lon="-8.8903450">
        <ele>115.1</ele>
        <time>2021-05-19T12:45:42Z</time>
      </trkpt>
      <trkpt lat="42.0999010" lon="-8.8903410">
        <ele>115.1</ele>
        <time>2021-05-19T12:45:43Z</time>
      </trkpt>
      <trkpt lat="42.0999170" lon="-8.8903390">
        <ele>115.0</ele>
        <time>2021-05-19T12:45:44Z</time>
      </trkpt>
      <trkpt lat="42.0999290" lon="-8.8903420">
        <ele>115.0</ele>
        <time>2021-05-19T12:45:45Z</time>
      </trkpt>
      <trkpt lat="42.0999410" lon="-8.8903450">
        <ele>115.0</ele>
        <time>2021-05-19T12:45:46Z</time>
      </trkpt>
      <trkpt lat="42.0999510" lon="-8.8903510">
        <ele>115.0</ele>
        <time>2021-05-19T12:45:47Z</time>
      </trkpt>
      <trkpt lat="42.0999600" lon="-8.8903500">
        <ele>114.9</ele>
        <time>2021-05-19T12:45:48Z</time>
      </trkpt>
      <trkpt lat="42.0999720" lon="-8.8903490">
        <ele>114.9</ele>
        <time>2021-05-19T12:45:49Z</time>
      </trkpt>
      <trkpt lat="42.0999810" lon="-8.8903470">
        <ele>114.9</ele>
        <time>2021-05-19T12:45:50Z</time>
      </trkpt>
      <trkpt lat="42.0999950" lon="-8.8903510">
        <ele>114.8</ele>
        <time>2021-05-19T12:45:51Z</time>
      </trkpt>
      <trkpt lat="42.1000090" lon="-8.8903570">
        <ele>114.8</ele>
        <time>2021-05-19T12:45:52Z</time>
      </trkpt>
      <trkpt lat="42.1000130" lon="-8.8903610">
        <ele>114.7</ele>
        <time>2021-05-19T12:45:53Z</time>
      </trkpt>
      <trkpt lat="42.1000240" lon="-8.8903570">
        <ele>114.7</ele>
        <time>2021-05-19T12:45:54Z</time>
      </trkpt>
      <trkpt lat="42.1000350" lon="-8.8903560">
        <ele>114.6</ele>
        <time>2021-05-19T12:45:55Z</time>
      </trkpt>
      <trkpt lat="42.1000500" lon="-8.8903540">
        <ele>114.6</ele>
        <time>2021-05-19T12:45:56Z</time>
      </trkpt>
      <trkpt lat="42.1000600" lon="-8.8903520">
        <ele>114.5</ele>
        <time>2021-05-19T12:45:57Z</time>
      </trkpt>
      <trkpt lat="42.1000690" lon="-8.8903480">
        <ele>114.5</ele>
        <time>2021-05-19T12:45:58Z</time>
      </trkpt>
      <trkpt lat="42.1000790" lon="-8.8903460">
        <ele>114.4</ele>
        <time>2021-05-19T12:45:59Z</time>
      </trkpt>
      <trkpt lat="42.1000850" lon="-8.8903450">
        <ele>114.4</ele>
        <time>2021-05-19T12:46:00Z</time>
      </trkpt>
      <trkpt lat="42.1000950" lon="-8.8903390">
        <ele>114.3</ele>
        <time>2021-05-19T12:46:01Z</time>
      </trkpt>
      <trkpt lat="42.1001070" lon="-8.8903230">
        <ele>114.2</ele>
        <time>2021-05-19T12:46:02Z</time>
      </trkpt>
      <trkpt lat="42.1001140" lon="-8.8903170">
        <ele>114.1</ele>
        <time>2021-05-19T12:46:03Z</time>
      </trkpt>
      <trkpt lat="42.1001230" lon="-8.8903110">
        <ele>114.1</ele>
        <time>2021-05-19T12:46:04Z</time>
      </trkpt>
      <trkpt lat="42.1001300" lon="-8.8903030">
        <ele>114.0</ele>
        <time>2021-05-19T12:46:05Z</time>
      </trkpt>
      <trkpt lat="42.1001360" lon="-8.8902990">
        <ele>113.9</ele>
        <time>2021-05-19T12:46:06Z</time>
      </trkpt>
      <trkpt lat="42.1001360" lon="-8.8902950">
        <ele>113.9</ele>
        <time>2021-05-19T12:46:07Z</time>
      </trkpt>
      <trkpt lat="42.1001440" lon="-8.8902920">
        <ele>113.8</ele>
        <time>2021-05-19T12:46:08Z</time>
      </trkpt>
      <trkpt lat="42.1001490" lon="-8.8902870">
        <ele>113.8</ele>
        <time>2021-05-19T12:46:09Z</time>
      </trkpt>
      <trkpt lat="42.1001620" lon="-8.8902780">
        <ele>113.7</ele>
        <time>2021-05-19T12:46:10Z</time>
      </trkpt>
      <trkpt lat="42.1001740" lon="-8.8902680">
        <ele>113.5</ele>
        <time>2021-05-19T12:46:11Z</time>
      </trkpt>
      <trkpt lat="42.1001810" lon="-8.8902620">
        <ele>113.4</ele>
        <time>2021-05-19T12:46:12Z</time>
      </trkpt>
      <trkpt lat="42.1001830" lon="-8.8902600">
        <ele>113.4</ele>
        <time>2021-05-19T12:46:13Z</time>
      </trkpt>
      <trkpt lat="42.1001880" lon="-8.8902550">
        <ele>113.4</ele>
        <time>2021-05-19T12:46:14Z</time>
      </trkpt>
      <trkpt lat="42.1001950" lon="-8.8902500">
        <ele>113.3</ele>
        <time>2021-05-19T12:46:15Z</time>
      </trkpt>
      <trkpt lat="42.1001980" lon="-8.8902460">
        <ele>113.2</ele>
        <time>2021-05-19T12:46:16Z</time>
      </trkpt>
      <trkpt lat="42.1002240" lon="-8.8902400">
        <ele>113.0</ele>
        <time>2021-05-19T12:46:17Z</time>
      </trkpt>
      <trkpt lat="42.1002340" lon="-8.8902340">
        <ele>112.9</ele>
        <time>2021-05-19T12:46:18Z</time>
      </trkpt>
      <trkpt lat="42.1002410" lon="-8.8902380">
        <ele>112.8</ele>
        <time>2021-05-19T12:46:19Z</time>
      </trkpt>
      <trkpt lat="42.1002520" lon="-8.8902290">
        <ele>112.6</ele>
        <time>2021-05-19T12:46:20Z</time>
      </trkpt>
      <trkpt lat="42.1002610" lon="-8.8902280">
        <ele>112.5</ele>
        <time>2021-05-19T12:46:21Z</time>
      </trkpt>
      <trkpt lat="42.1002590" lon="-8.8902240">
        <ele>112.5</ele>
        <time>2021-05-19T12:46:22Z</time>
      </trkpt>
      <trkpt lat="42.1002660" lon="-8.8902240">
        <ele>112.4</ele>
        <time>2021-05-19T12:46:23Z</time>
      </trkpt>
      <trkpt lat="42.1002720" lon="-8.8902200">
        <ele>112.3</ele>
        <time>2021-05-19T12:46:24Z</time>
      </trkpt>
      <trkpt lat="42.1002870" lon="-8.8902090">
        <ele>112.2</ele>
        <time>2021-05-19T12:46:25Z</time>
      </trkpt>
      <trkpt lat="42.1003070" lon="-8.8902360">
        <ele>111.8</ele>
        <time>2021-05-19T12:46:26Z</time>
      </trkpt>
      <trkpt lat="42.1003160" lon="-8.8902300">
        <ele>111.7</ele>
        <time>2021-05-19T12:46:27Z</time>
      </trkpt>
      <trkpt lat="42.1003280" lon="-8.8902300">
        <ele>111.3</ele>
        <time>2021-05-19T12:46:28Z</time>
      </trkpt>
      <trkpt lat="42.1003340" lon="-8.8902300">
        <ele>111.2</ele>
        <time>2021-05-19T12:46:29Z</time>
      </trkpt>
      <trkpt lat="42.1003420" lon="-8.8902260">
        <ele>111.1</ele>
        <time>2021-05-19T12:46:30Z</time>
      </trkpt>
      <trkpt lat="42.1003540" lon="-8.8902260">
        <ele>111.0</ele>
        <time>2021-05-19T12:46:31Z</time>
      </trkpt>
      <trkpt lat="42.1003640" lon="-8.8902430">
        <ele>110.8</ele>
        <time>2021-05-19T12:46:32Z</time>
      </trkpt>
      <trkpt lat="42.1003640" lon="-8.8902590">
        <ele>110.6</ele>
        <time>2021-05-19T12:46:33Z</time>
      </trkpt>
      <trkpt lat="42.1003640" lon="-8.8902720">
        <ele>110.5</ele>
        <time>2021-05-19T12:46:34Z</time>
      </trkpt>
      <trkpt lat="42.1003650" lon="-8.8902810">
        <ele>110.4</ele>
        <time>2021-05-19T12:46:35Z</time>
      </trkpt>
      <trkpt lat="42.1003720" lon="-8.8902810">
        <ele>110.3</ele>
        <time>2021-05-19T12:46:36Z</time>
      </trkpt>
      <trkpt lat="42.1003720" lon="-8.8902970">
        <ele>110.2</ele>
        <time>2021-05-19T12:46:37Z</time>
      </trkpt>
      <trkpt lat="42.1003770" lon="-8.8903100">
        <ele>110.1</ele>
        <time>2021-05-19T12:46:38Z</time>
      </trkpt>
      <trkpt lat="42.1003850" lon="-8.8903210">
        <ele>110.0</ele>
        <time>2021-05-19T12:46:39Z</time>
      </trkpt>
      <trkpt lat="42.1003930" lon="-8.8903220">
        <ele>109.9</ele>
        <time>2021-05-19T12:46:40Z</time>
      </trkpt>
      <trkpt lat="42.1004050" lon="-8.8903190">
        <ele>109.7</ele>
        <time>2021-05-19T12:46:41Z</time>
      </trkpt>
      <trkpt lat="42.1004130" lon="-8.8903320">
        <ele>109.6</ele>
        <time>2021-05-19T12:46:42Z</time>
      </trkpt>
      <trkpt lat="42.1004240" lon="-8.8903530">
        <ele>109.4</ele>
        <time>2021-05-19T12:46:43Z</time>
      </trkpt>
      <trkpt lat="42.1004200" lon="-8.8903510">
        <ele>109.4</ele>
        <time>2021-05-19T12:46:44Z</time>
      </trkpt>
      <trkpt lat="42.1004270" lon="-8.8903670">
        <ele>109.3</ele>
        <time>2021-05-19T12:46:45Z</time>
      </trkpt>
      <trkpt lat="42.1004370" lon="-8.8903830">
        <ele>109.2</ele>
        <time>2021-05-19T12:46:46Z</time>
      </trkpt>
      <trkpt lat="42.1004430" lon="-8.8903800">
        <ele>109.1</ele>
        <time>2021-05-19T12:46:47Z</time>
      </trkpt>
      <trkpt lat="42.1004560" lon="-8.8903910">
        <ele>109.0</ele>
        <time>2021-05-19T12:46:48Z</time>
      </trkpt>
      <trkpt lat="42.1004620" lon="-8.8903940">
        <ele>108.9</ele>
        <time>2021-05-19T12:46:49Z</time>
      </trkpt>
      <trkpt lat="42.1004700" lon="-8.8904000">
        <ele>108.9</ele>
        <time>2021-05-19T12:46:50Z</time>
      </trkpt>
      <trkpt lat="42.1004730" lon="-8.8904000">
        <ele>108.9</ele>
        <time>2021-05-19T12:46:51Z</time>
      </trkpt>
      <trkpt lat="42.1004860" lon="-8.8904050">
        <ele>108.8</ele>
        <time>2021-05-19T12:46:52Z</time>
      </trkpt>
      <trkpt lat="42.1005020" lon="-8.8904100">
        <ele>108.7</ele>
        <time>2021-05-19T12:46:53Z</time>
      </trkpt>
      <trkpt lat="42.1005170" lon="-8.8904130">
        <ele>108.6</ele>
        <time>2021-05-19T12:46:54Z</time>
      </trkpt>
      <trkpt lat="42.1005390" lon="-8.8904120">
        <ele>108.4</ele>
        <time>2021-05-19T12:46:55Z</time>
      </trkpt>
      <trkpt lat="42.1005460" lon="-8.8904120">
        <ele>108.4</ele>
        <time>2021-05-19T12:46:56Z</time>
      </trkpt>
      <trkpt lat="42.1005540" lon="-8.8904110">
        <ele>108.4</ele>
        <time>2021-05-19T12:46:57Z</time>
      </trkpt>
      <trkpt lat="42.1005660" lon="-8.8904050">
        <ele>108.3</ele>
        <time>2021-05-19T12:46:58Z</time>
      </trkpt>
      <trkpt lat="42.1005810" lon="-8.8904080">
        <ele>108.2</ele>
        <time>2021-05-19T12:46:59Z</time>
      </trkpt>
      <trkpt lat="42.1005940" lon="-8.8904060">
        <ele>108.2</ele>
        <time>2021-05-19T12:47:00Z</time>
      </trkpt>
      <trkpt lat="42.1006070" lon="-8.8904030">
        <ele>108.1</ele>
        <time>2021-05-19T12:47:01Z</time>
      </trkpt>
      <trkpt lat="42.1006150" lon="-8.8904000">
        <ele>108.1</ele>
        <time>2021-05-19T12:47:02Z</time>
      </trkpt>
      <trkpt lat="42.1006280" lon="-8.8904050">
        <ele>108.0</ele>
        <time>2021-05-19T12:47:03Z</time>
      </trkpt>
      <trkpt lat="42.1006390" lon="-8.8904020">
        <ele>108.0</ele>
        <time>2021-05-19T12:47:04Z</time>
      </trkpt>
      <trkpt lat="42.1006490" lon="-8.8903980">
        <ele>108.0</ele>
        <time>2021-05-19T12:47:05Z</time>
      </trkpt>
      <trkpt lat="42.1006620" lon="-8.8903980">
        <ele>107.9</ele>
        <time>2021-05-19T12:47:06Z</time>
      </trkpt>
      <trkpt lat="42.1006770" lon="-8.8903930">
        <ele>107.9</ele>
        <time>2021-05-19T12:47:07Z</time>
      </trkpt>
      <trkpt lat="42.1007000" lon="-8.8903830">
        <ele>107.8</ele>
        <time>2021-05-19T12:47:08Z</time>
      </trkpt>
      <trkpt lat="42.1007070" lon="-8.8903790">
        <ele>107.8</ele>
        <time>2021-05-19T12:47:09Z</time>
      </trkpt>
      <trkpt lat="42.1007140" lon="-8.8903760">
        <ele>107.8</ele>
        <time>2021-05-19T12:47:10Z</time>
      </trkpt>
      <trkpt lat="42.1007350" lon="-8.8903800">
        <ele>107.8</ele>
        <time>2021-05-19T12:47:11Z</time>
      </trkpt>
      <trkpt lat="42.1007470" lon="-8.8903780">
        <ele>107.7</ele>
        <time>2021-05-19T12:47:12Z</time>
      </trkpt>
      <trkpt lat="42.1007650" lon="-8.8903710">
        <ele>107.7</ele>
        <time>2021-05-19T12:47:13Z</time>
      </trkpt>
      <trkpt lat="42.1007810" lon="-8.8903670">
        <ele>107.7</ele>
        <time>2021-05-19T12:47:14Z</time>
      </trkpt>
      <trkpt lat="42.1007990" lon="-8.8903570">
        <ele>107.7</ele>
        <time>2021-05-19T12:47:15Z</time>
      </trkpt>
      <trkpt lat="42.1008080" lon="-8.8903520">
        <ele>107.7</ele>
        <time>2021-05-19T12:47:16Z</time>
      </trkpt>
      <trkpt lat="42.1008160" lon="-8.8903470">
        <ele>107.7</ele>
        <time>2021-05-19T12:47:17Z</time>
      </trkpt>
      <trkpt lat="42.1008360" lon="-8.8903340">
        <ele>107.6</ele>
        <time>2021-05-19T12:47:18Z</time>
      </trkpt>
      <trkpt lat="42.1008450" lon="-8.8903310">
        <ele>107.6</ele>
        <time>2021-05-19T12:47:19Z</time>
      </trkpt>
      <trkpt lat="42.1008550" lon="-8.8903280">
        <ele>107.6</ele>
        <time>2021-05-19T12:47:20Z</time>
      </trkpt>
      <trkpt lat="42.1008660" lon="-8.8903180">
        <ele>107.6</ele>
        <time>2021-05-19T12:47:21Z</time>
      </trkpt>
      <trkpt lat="42.1008740" lon="-8.8903190">
        <ele>107.6</ele>
        <time>2021-05-19T12:47:22Z</time>
      </trkpt>
      <trkpt lat="42.1008860" lon="-8.8903130">
        <ele>107.6</ele>
        <time>2021-05-19T12:47:23Z</time>
      </trkpt>
      <trkpt lat="42.1008950" lon="-8.8903010">
        <ele>107.6</ele>
        <time>2021-05-19T12:47:24Z</time>
      </trkpt>
      <trkpt lat="42.1009120" lon="-8.8902960">
        <ele>107.6</ele>
        <time>2021-05-19T12:47:25Z</time>
      </trkpt>
      <trkpt lat="42.1009240" lon="-8.8902850">
        <ele>107.6</ele>
        <time>2021-05-19T12:47:26Z</time>
      </trkpt>
      <trkpt lat="42.1009320" lon="-8.8902800">
        <ele>107.5</ele>
        <time>2021-05-19T12:47:27Z</time>
      </trkpt>
      <trkpt lat="42.1009410" lon="-8.8902750">
        <ele>107.5</ele>
        <time>2021-05-19T12:47:28Z</time>
      </trkpt>
      <trkpt lat="42.1009490" lon="-8.8902700">
        <ele>107.5</ele>
        <time>2021-05-19T12:47:29Z</time>
      </trkpt>
      <trkpt lat="42.1009640" lon="-8.8902590">
        <ele>107.5</ele>
        <time>2021-05-19T12:47:30Z</time>
      </trkpt>
      <trkpt lat="42.1009680" lon="-8.8902540">
        <ele>107.5</ele>
        <time>2021-05-19T12:47:31Z</time>
      </trkpt>
      <trkpt lat="42.1009720" lon="-8.8902470">
        <ele>107.5</ele>
        <time>2021-05-19T12:47:32Z</time>
      </trkpt>
      <trkpt lat="42.1009880" lon="-8.8902350">
        <ele>107.5</ele>
        <time>2021-05-19T12:47:33Z</time>
      </trkpt>
      <trkpt lat="42.1010030" lon="-8.8902310">
        <ele>107.5</ele>
        <time>2021-05-19T12:47:34Z</time>
      </trkpt>
      <trkpt lat="42.1010170" lon="-8.8902250">
        <ele>107.5</ele>
        <time>2021-05-19T12:47:35Z</time>
      </trkpt>
      <trkpt lat="42.1010290" lon="-8.8902190">
        <ele>107.5</ele>
        <time>2021-05-19T12:47:36Z</time>
      </trkpt>
      <trkpt lat="42.1010380" lon="-8.8902100">
        <ele>107.5</ele>
        <time>2021-05-19T12:47:37Z</time>
      </trkpt>
      <trkpt lat="42.1010430" lon="-8.8901970">
        <ele>107.5</ele>
        <time>2021-05-19T12:47:38Z</time>
      </trkpt>
      <trkpt lat="42.1010520" lon="-8.8901830">
        <ele>107.5</ele>
        <time>2021-05-19T12:47:39Z</time>
      </trkpt>
      <trkpt lat="42.1010660" lon="-8.8901730">
        <ele>107.5</ele>
        <time>2021-05-19T12:47:40Z</time>
      </trkpt>
      <trkpt lat="42.1010810" lon="-8.8901660">
        <ele>107.5</ele>
        <time>2021-05-19T12:47:41Z</time>
      </trkpt>
      <trkpt lat="42.1010970" lon="-8.8901540">
        <ele>107.5</ele>
        <time>2021-05-19T12:47:42Z</time>
      </trkpt>
      <trkpt lat="42.1011060" lon="-8.8901480">
        <ele>107.5</ele>
        <time>2021-05-19T12:47:43Z</time>
      </trkpt>
      <trkpt lat="42.1011160" lon="-8.8901410">
        <ele>107.5</ele>
        <time>2021-05-19T12:47:44Z</time>
      </trkpt>
      <trkpt lat="42.1011220" lon="-8.8901310">
        <ele>107.5</ele>
        <time>2021-05-19T12:47:45Z</time>
      </trkpt>
      <trkpt lat="42.1011290" lon="-8.8901260">
        <ele>107.5</ele>
        <time>2021-05-19T12:47:46Z</time>
      </trkpt>
      <trkpt lat="42.1011440" lon="-8.8901190">
        <ele>107.5</ele>
        <time>2021-05-19T12:47:47Z</time>
      </trkpt>
      <trkpt lat="42.1011580" lon="-8.8901130">
        <ele>107.5</ele>
        <time>2021-05-19T12:47:48Z</time>
      </trkpt>
      <trkpt lat="42.1011740" lon="-8.8901040">
        <ele>107.5</ele>
        <time>2021-05-19T12:47:49Z</time>
      </trkpt>
      <trkpt lat="42.1011750" lon="-8.8900990">
        <ele>107.5</ele>
        <time>2021-05-19T12:47:50Z</time>
      </trkpt>
      <trkpt lat="42.1011850" lon="-8.8900860">
        <ele>107.5</ele>
        <time>2021-05-19T12:47:51Z</time>
      </trkpt>
      <trkpt lat="42.1011870" lon="-8.8900690">
        <ele>107.5</ele>
        <time>2021-05-19T12:47:52Z</time>
      </trkpt>
      <trkpt lat="42.1011970" lon="-8.8900580">
        <ele>107.5</ele>
        <time>2021-05-19T12:47:53Z</time>
      </trkpt>
      <trkpt lat="42.1012080" lon="-8.8900440">
        <ele>107.5</ele>
        <time>2021-05-19T12:47:54Z</time>
      </trkpt>
      <trkpt lat="42.1012190" lon="-8.8900370">
        <ele>107.5</ele>
        <time>2021-05-19T12:47:55Z</time>
      </trkpt>
      <trkpt lat="42.1012260" lon="-8.8900280">
        <ele>107.5</ele>
        <time>2021-05-19T12:47:56Z</time>
      </trkpt>
      <trkpt lat="42.1012360" lon="-8.8900170">
        <ele>107.5</ele>
        <time>2021-05-19T12:47:57Z</time>
      </trkpt>
      <trkpt lat="42.1012430" lon="-8.8900080">
        <ele>107.5</ele>
        <time>2021-05-19T12:47:58Z</time>
      </trkpt>
      <trkpt lat="42.1012450" lon="-8.8899950">
        <ele>107.5</ele>
        <time>2021-05-19T12:47:59Z</time>
      </trkpt>
      <trkpt lat="42.1012480" lon="-8.8899900">
        <ele>107.5</ele>
        <time>2021-05-19T12:48:00Z</time>
      </trkpt>
      <trkpt lat="42.1012560" lon="-8.8899890">
        <ele>107.5</ele>
        <time>2021-05-19T12:48:01Z</time>
      </trkpt>
      <trkpt lat="42.1012690" lon="-8.8899890">
        <ele>107.5</ele>
        <time>2021-05-19T12:48:02Z</time>
      </trkpt>
      <trkpt lat="42.1012760" lon="-8.8899890">
        <ele>107.5</ele>
        <time>2021-05-19T12:48:03Z</time>
      </trkpt>
      <trkpt lat="42.1012800" lon="-8.8899850">
        <ele>107.5</ele>
        <time>2021-05-19T12:48:04Z</time>
      </trkpt>
      <trkpt lat="42.1012900" lon="-8.8899810">
        <ele>107.4</ele>
        <time>2021-05-19T12:48:05Z</time>
      </trkpt>
      <trkpt lat="42.1013020" lon="-8.8899750">
        <ele>107.4</ele>
        <time>2021-05-19T12:48:06Z</time>
      </trkpt>
      <trkpt lat="42.1013130" lon="-8.8899720">
        <ele>107.4</ele>
        <time>2021-05-19T12:48:07Z</time>
      </trkpt>
      <trkpt lat="42.1013200" lon="-8.8899620">
        <ele>107.4</ele>
        <time>2021-05-19T12:48:08Z</time>
      </trkpt>
      <trkpt lat="42.1013380" lon="-8.8899440">
        <ele>107.4</ele>
        <time>2021-05-19T12:48:09Z</time>
      </trkpt>
      <trkpt lat="42.1013460" lon="-8.8899350">
        <ele>107.4</ele>
        <time>2021-05-19T12:48:10Z</time>
      </trkpt>
      <trkpt lat="42.1013540" lon="-8.8899270">
        <ele>107.4</ele>
        <time>2021-05-19T12:48:11Z</time>
      </trkpt>
      <trkpt lat="42.1013660" lon="-8.8899200">
        <ele>107.4</ele>
        <time>2021-05-19T12:48:12Z</time>
      </trkpt>
      <trkpt lat="42.1013890" lon="-8.8899280">
        <ele>107.3</ele>
        <time>2021-05-19T12:48:13Z</time>
      </trkpt>
      <trkpt lat="42.1014030" lon="-8.8899090">
        <ele>107.3</ele>
        <time>2021-05-19T12:48:14Z</time>
      </trkpt>
      <trkpt lat="42.1014130" lon="-8.8899020">
        <ele>107.3</ele>
        <time>2021-05-19T12:48:15Z</time>
      </trkpt>
      <trkpt lat="42.1014230" lon="-8.8898950">
        <ele>107.3</ele>
        <time>2021-05-19T12:48:16Z</time>
      </trkpt>
      <trkpt lat="42.1014400" lon="-8.8898810">
        <ele>107.3</ele>
        <time>2021-05-19T12:48:17Z</time>
      </trkpt>
      <trkpt lat="42.1014490" lon="-8.8898790">
        <ele>107.3</ele>
        <time>2021-05-19T12:48:18Z</time>
      </trkpt>
      <trkpt lat="42.1014580" lon="-8.8898760">
        <ele>107.3</ele>
        <time>2021-05-19T12:48:19Z</time>
      </trkpt>
      <trkpt lat="42.1014720" lon="-8.8898740">
        <ele>107.3</ele>
        <time>2021-05-19T12:48:20Z</time>
      </trkpt>
      <trkpt lat="42.1014810" lon="-8.8898640">
        <ele>107.3</ele>
        <time>2021-05-19T12:48:21Z</time>
      </trkpt>
      <trkpt lat="42.1014890" lon="-8.8898560">
        <ele>107.3</ele>
        <time>2021-05-19T12:48:22Z</time>
      </trkpt>
      <trkpt lat="42.1015000" lon="-8.8898490">
        <ele>107.3</ele>
        <time>2021-05-19T12:48:23Z</time>
      </trkpt>
      <trkpt lat="42.1015070" lon="-8.8898410">
        <ele>107.3</ele>
        <time>2021-05-19T12:48:24Z</time>
      </trkpt>
      <trkpt lat="42.1015120" lon="-8.8898330">
        <ele>107.3</ele>
        <time>2021-05-19T12:48:25Z</time>
      </trkpt>
      <trkpt lat="42.1015170" lon="-8.8898190">
        <ele>107.3</ele>
        <time>2021-05-19T12:48:26Z</time>
      </trkpt>
      <trkpt lat="42.1015280" lon="-8.8898070">
        <ele>107.3</ele>
        <time>2021-05-19T12:48:27Z</time>
      </trkpt>
      <trkpt lat="42.1015360" lon="-8.8898000">
        <ele>107.3</ele>
        <time>2021-05-19T12:48:28Z</time>
      </trkpt>
      <trkpt lat="42.1015450" lon="-8.8897890">
        <ele>107.3</ele>
        <time>2021-05-19T12:48:29Z</time>
      </trkpt>
      <trkpt lat="42.1015590" lon="-8.8897860">
        <ele>107.3</ele>
        <time>2021-05-19T12:48:30Z</time>
      </trkpt>
      <trkpt lat="42.1015680" lon="-8.8897790">
        <ele>107.3</ele>
        <time>2021-05-19T12:48:31Z</time>
      </trkpt>
      <trkpt lat="42.1015750" lon="-8.8897710">
        <ele>107.3</ele>
        <time>2021-05-19T12:48:32Z</time>
      </trkpt>
      <trkpt lat="42.1015870" lon="-8.8897670">
        <ele>107.3</ele>
        <time>2021-05-19T12:48:33Z</time>
      </trkpt>
      <trkpt lat="42.1015970" lon="-8.8897630">
        <ele>107.3</ele>
        <time>2021-05-19T12:48:34Z</time>
      </trkpt>
      <trkpt lat="42.1016060" lon="-8.8897550">
        <ele>107.3</ele>
        <time>2021-05-19T12:48:35Z</time>
      </trkpt>
      <trkpt lat="42.1016120" lon="-8.8897470">
        <ele>107.3</ele>
        <time>2021-05-19T12:48:36Z</time>
      </trkpt>
      <trkpt lat="42.1016230" lon="-8.8897400">
        <ele>107.4</ele>
        <time>2021-05-19T12:48:37Z</time>
      </trkpt>
      <trkpt lat="42.1016280" lon="-8.8897280">
        <ele>107.4</ele>
        <time>2021-05-19T12:48:38Z</time>
      </trkpt>
      <trkpt lat="42.1016360" lon="-8.8897170">
        <ele>107.4</ele>
        <time>2021-05-19T12:48:39Z</time>
      </trkpt>
      <trkpt lat="42.1016450" lon="-8.8897080">
        <ele>107.4</ele>
        <time>2021-05-19T12:48:40Z</time>
      </trkpt>
      <trkpt lat="42.1016530" lon="-8.8897010">
        <ele>107.4</ele>
        <time>2021-05-19T12:48:41Z</time>
      </trkpt>
      <trkpt lat="42.1016620" lon="-8.8896960">
        <ele>107.4</ele>
        <time>2021-05-19T12:48:42Z</time>
      </trkpt>
      <trkpt lat="42.1016720" lon="-8.8896840">
        <ele>107.4</ele>
        <time>2021-05-19T12:48:43Z</time>
      </trkpt>
      <trkpt lat="42.1016930" lon="-8.8896720">
        <ele>107.4</ele>
        <time>2021-05-19T12:48:44Z</time>
      </trkpt>
      <trkpt lat="42.1017010" lon="-8.8896640">
        <ele>107.4</ele>
        <time>2021-05-19T12:48:45Z</time>
      </trkpt>
      <trkpt lat="42.1017090" lon="-8.8896570">
        <ele>107.4</ele>
        <time>2021-05-19T12:48:46Z</time>
      </trkpt>
      <trkpt lat="42.1017210" lon="-8.8896510">
        <ele>107.4</ele>
        <time>2021-05-19T12:48:47Z</time>
      </trkpt>
      <trkpt lat="42.1017370" lon="-8.8896470">
        <ele>107.5</ele>
        <time>2021-05-19T12:48:48Z</time>
      </trkpt>
      <trkpt lat="42.1017510" lon="-8.8896390">
        <ele>107.5</ele>
        <time>2021-05-19T12:48:49Z</time>
      </trkpt>
      <trkpt lat="42.1017660" lon="-8.8896260">
        <ele>107.5</ele>
        <time>2021-05-19T12:48:50Z</time>
      </trkpt>
      <trkpt lat="42.1017740" lon="-8.8896130">
        <ele>107.5</ele>
        <time>2021-05-19T12:48:51Z</time>
      </trkpt>
      <trkpt lat="42.1017810" lon="-8.8895940">
        <ele>107.5</ele>
        <time>2021-05-19T12:48:52Z</time>
      </trkpt>
      <trkpt lat="42.1017920" lon="-8.8895720">
        <ele>107.5</ele>
        <time>2021-05-19T12:48:53Z</time>
      </trkpt>
      <trkpt lat="42.1018000" lon="-8.8895650">
        <ele>107.5</ele>
        <time>2021-05-19T12:48:54Z</time>
      </trkpt>
      <trkpt lat="42.1018070" lon="-8.8895590">
        <ele>107.5</ele>
        <time>2021-05-19T12:48:55Z</time>
      </trkpt>
      <trkpt lat="42.1018120" lon="-8.8895430">
        <ele>107.6</ele>
        <time>2021-05-19T12:48:56Z</time>
      </trkpt>
      <trkpt lat="42.1018240" lon="-8.8895270">
        <ele>107.6</ele>
        <time>2021-05-19T12:48:57Z</time>
      </trkpt>
      <trkpt lat="42.1018260" lon="-8.8895160">
        <ele>107.6</ele>
        <time>2021-05-19T12:48:58Z</time>
      </trkpt>
      <trkpt lat="42.1018340" lon="-8.8895010">
        <ele>107.6</ele>
        <time>2021-05-19T12:48:59Z</time>
      </trkpt>
      <trkpt lat="42.1018390" lon="-8.8894950">
        <ele>107.6</ele>
        <time>2021-05-19T12:49:00Z</time>
      </trkpt>
      <trkpt lat="42.1018430" lon="-8.8894760">
        <ele>107.6</ele>
        <time>2021-05-19T12:49:01Z</time>
      </trkpt>
      <trkpt lat="42.1018510" lon="-8.8894720">
        <ele>107.7</ele>
        <time>2021-05-19T12:49:02Z</time>
      </trkpt>
      <trkpt lat="42.1018590" lon="-8.8894570">
        <ele>107.7</ele>
        <time>2021-05-19T12:49:03Z</time>
      </trkpt>
      <trkpt lat="42.1018620" lon="-8.8894440">
        <ele>107.7</ele>
        <time>2021-05-19T12:49:04Z</time>
      </trkpt>
      <trkpt lat="42.1018600" lon="-8.8894250">
        <ele>107.7</ele>
        <time>2021-05-19T12:49:05Z</time>
      </trkpt>
      <trkpt lat="42.1018630" lon="-8.8894100">
        <ele>107.7</ele>
        <time>2021-05-19T12:49:06Z</time>
      </trkpt>
      <trkpt lat="42.1018710" lon="-8.8893990">
        <ele>107.7</ele>
        <time>2021-05-19T12:49:07Z</time>
      </trkpt>
      <trkpt lat="42.1018750" lon="-8.8894000">
        <ele>107.8</ele>
        <time>2021-05-19T12:49:08Z</time>
      </trkpt>
      <trkpt lat="42.1018780" lon="-8.8893870">
        <ele>107.8</ele>
        <time>2021-05-19T12:49:09Z</time>
      </trkpt>
      <trkpt lat="42.1018790" lon="-8.8893750">
        <ele>107.8</ele>
        <time>2021-05-19T12:49:10Z</time>
      </trkpt>
      <trkpt lat="42.1018810" lon="-8.8893610">
        <ele>107.8</ele>
        <time>2021-05-19T12:49:11Z</time>
      </trkpt>
      <trkpt lat="42.1018840" lon="-8.8893470">
        <ele>107.8</ele>
        <time>2021-05-19T12:49:12Z</time>
      </trkpt>
      <trkpt lat="42.1018830" lon="-8.8893300">
        <ele>107.8</ele>
        <time>2021-05-19T12:49:13Z</time>
      </trkpt>
      <trkpt lat="42.1018800" lon="-8.8893190">
        <ele>107.8</ele>
        <time>2021-05-19T12:49:14Z</time>
      </trkpt>
      <trkpt lat="42.1018790" lon="-8.8893100">
        <ele>107.8</ele>
        <time>2021-05-19T12:49:15Z</time>
      </trkpt>
      <trkpt lat="42.1018780" lon="-8.8893000">
        <ele>107.8</ele>
        <time>2021-05-19T12:49:16Z</time>
      </trkpt>
      <trkpt lat="42.1018770" lon="-8.8892910">
        <ele>107.8</ele>
        <time>2021-05-19T12:49:17Z</time>
      </trkpt>
      <trkpt lat="42.1018760" lon="-8.8892820">
        <ele>107.8</ele>
        <time>2021-05-19T12:49:18Z</time>
      </trkpt>
      <trkpt lat="42.1018730" lon="-8.8892680">
        <ele>107.8</ele>
        <time>2021-05-19T12:49:19Z</time>
      </trkpt>
      <trkpt lat="42.1018740" lon="-8.8892610">
        <ele>107.8</ele>
        <time>2021-05-19T12:49:20Z</time>
      </trkpt>
      <trkpt lat="42.1018750" lon="-8.8892570">
        <ele>107.8</ele>
        <time>2021-05-19T12:49:21Z</time>
      </trkpt>
      <trkpt lat="42.1018770" lon="-8.8892400">
        <ele>107.8</ele>
        <time>2021-05-19T12:49:22Z</time>
      </trkpt>
      <trkpt lat="42.1018800" lon="-8.8892200">
        <ele>107.8</ele>
        <time>2021-05-19T12:49:23Z</time>
      </trkpt>
      <trkpt lat="42.1018780" lon="-8.8892140">
        <ele>107.8</ele>
        <time>2021-05-19T12:49:24Z</time>
      </trkpt>
      <trkpt lat="42.1018780" lon="-8.8892000">
        <ele>107.8</ele>
        <time>2021-05-19T12:49:25Z</time>
      </trkpt>
      <trkpt lat="42.1018800" lon="-8.8891890">
        <ele>107.8</ele>
        <time>2021-05-19T12:49:26Z</time>
      </trkpt>
      <trkpt lat="42.1018840" lon="-8.8891760">
        <ele>107.8</ele>
        <time>2021-05-19T12:49:27Z</time>
      </trkpt>
      <trkpt lat="42.1018870" lon="-8.8891600">
        <ele>107.8</ele>
        <time>2021-05-19T12:49:28Z</time>
      </trkpt>
      <trkpt lat="42.1018910" lon="-8.8891490">
        <ele>107.7</ele>
        <time>2021-05-19T12:49:29Z</time>
      </trkpt>
      <trkpt lat="42.1018920" lon="-8.8891310">
        <ele>107.7</ele>
        <time>2021-05-19T12:49:30Z</time>
      </trkpt>
      <trkpt lat="42.1018940" lon="-8.8891160">
        <ele>107.7</ele>
        <time>2021-05-19T12:49:31Z</time>
      </trkpt>
      <trkpt lat="42.1018900" lon="-8.8890990">
        <ele>107.7</ele>
        <time>2021-05-19T12:49:32Z</time>
      </trkpt>
      <trkpt lat="42.1018890" lon="-8.8890830">
        <ele>107.6</ele>
        <time>2021-05-19T12:49:33Z</time>
      </trkpt>
      <trkpt lat="42.1018830" lon="-8.8890720">
        <ele>107.6</ele>
        <time>2021-05-19T12:49:34Z</time>
      </trkpt>
      <trkpt lat="42.1018860" lon="-8.8890450">
        <ele>107.5</ele>
        <time>2021-05-19T12:49:35Z</time>
      </trkpt>
      <trkpt lat="42.1018920" lon="-8.8890340">
        <ele>107.4</ele>
        <time>2021-05-19T12:49:36Z</time>
      </trkpt>
      <trkpt lat="42.1018980" lon="-8.8890240">
        <ele>107.3</ele>
        <time>2021-05-19T12:49:37Z</time>
      </trkpt>
      <trkpt lat="42.1019010" lon="-8.8890150">
        <ele>107.3</ele>
        <time>2021-05-19T12:49:38Z</time>
      </trkpt>
      <trkpt lat="42.1019060" lon="-8.8890120">
        <ele>107.3</ele>
        <time>2021-05-19T12:49:39Z</time>
      </trkpt>
      <trkpt lat="42.1019130" lon="-8.8890060">
        <ele>107.3</ele>
        <time>2021-05-19T12:49:40Z</time>
      </trkpt>
      <trkpt lat="42.1019170" lon="-8.8890050">
        <ele>107.3</ele>
        <time>2021-05-19T12:49:41Z</time>
      </trkpt>
      <trkpt lat="42.1019230" lon="-8.8889980">
        <ele>107.2</ele>
        <time>2021-05-19T12:49:42Z</time>
      </trkpt>
      <trkpt lat="42.1019320" lon="-8.8889880">
        <ele>107.2</ele>
        <time>2021-05-19T12:49:43Z</time>
      </trkpt>
      <trkpt lat="42.1019370" lon="-8.8889790">
        <ele>107.2</ele>
        <time>2021-05-19T12:49:44Z</time>
      </trkpt>
      <trkpt lat="42.1019400" lon="-8.8889740">
        <ele>107.2</ele>
        <time>2021-05-19T12:49:45Z</time>
      </trkpt>
      <trkpt lat="42.1019470" lon="-8.8889620">
        <ele>107.1</ele>
        <time>2021-05-19T12:49:46Z</time>
      </trkpt>
      <trkpt lat="42.1019550" lon="-8.8889500">
        <ele>107.1</ele>
        <time>2021-05-19T12:49:47Z</time>
      </trkpt>
      <trkpt lat="42.1019660" lon="-8.8889350">
        <ele>107.0</ele>
        <time>2021-05-19T12:49:48Z</time>
      </trkpt>
      <trkpt lat="42.1019740" lon="-8.8889220">
        <ele>107.0</ele>
        <time>2021-05-19T12:49:49Z</time>
      </trkpt>
      <trkpt lat="42.1019830" lon="-8.8889110">
        <ele>107.0</ele>
        <time>2021-05-19T12:49:50Z</time>
      </trkpt>
      <trkpt lat="42.1019840" lon="-8.8889150">
        <ele>107.0</ele>
        <time>2021-05-19T12:49:51Z</time>
      </trkpt>
      <trkpt lat="42.1019910" lon="-8.8889140">
        <ele>107.0</ele>
        <time>2021-05-19T12:49:52Z</time>
      </trkpt>
      <trkpt lat="42.1019960" lon="-8.8889200">
        <ele>107.0</ele>
        <time>2021-05-19T12:49:53Z</time>
      </trkpt>
      <trkpt lat="42.1020040" lon="-8.8889210">
        <ele>107.0</ele>
        <time>2021-05-19T12:49:54Z</time>
      </trkpt>
      <trkpt lat="42.1020140" lon="-8.8889230">
        <ele>107.0</ele>
        <time>2021-05-19T12:49:55Z</time>
      </trkpt>
      <trkpt lat="42.1020250" lon="-8.8889250">
        <ele>107.0</ele>
        <time>2021-05-19T12:49:56Z</time>
      </trkpt>
      <trkpt lat="42.1020360" lon="-8.8889340">
        <ele>106.9</ele>
        <time>2021-05-19T12:49:57Z</time>
      </trkpt>
      <trkpt lat="42.1020510" lon="-8.8889440">
        <ele>106.9</ele>
        <time>2021-05-19T12:49:58Z</time>
      </trkpt>
      <trkpt lat="42.1020630" lon="-8.8889410">
        <ele>106.9</ele>
        <time>2021-05-19T12:49:59Z</time>
      </trkpt>
      <trkpt lat="42.1020690" lon="-8.8889390">
        <ele>106.9</ele>
        <time>2021-05-19T12:50:00Z</time>
      </trkpt>
      <trkpt lat="42.1020750" lon="-8.8889360">
        <ele>106.9</ele>
        <time>2021-05-19T12:50:01Z</time>
      </trkpt>
      <trkpt lat="42.1020810" lon="-8.8889340">
        <ele>106.9</ele>
        <time>2021-05-19T12:50:02Z</time>
      </trkpt>
      <trkpt lat="42.1020870" lon="-8.8889320">
        <ele>106.9</ele>
        <time>2021-05-19T12:50:03Z</time>
      </trkpt>
      <trkpt lat="42.1021020" lon="-8.8889250">
        <ele>106.9</ele>
        <time>2021-05-19T12:50:04Z</time>
      </trkpt>
      <trkpt lat="42.1021110" lon="-8.8889110">
        <ele>106.9</ele>
        <time>2021-05-19T12:50:05Z</time>
      </trkpt>
      <trkpt lat="42.1021000" lon="-8.8889140">
        <ele>106.9</ele>
        <time>2021-05-19T12:50:06Z</time>
      </trkpt>
      <trkpt lat="42.1021010" lon="-8.8889150">
        <ele>106.9</ele>
        <time>2021-05-19T12:50:07Z</time>
      </trkpt>
      <trkpt lat="42.1021060" lon="-8.8889150">
        <ele>106.9</ele>
        <time>2021-05-19T12:50:08Z</time>
      </trkpt>
      <trkpt lat="42.1021150" lon="-8.8889200">
        <ele>106.9</ele>
        <time>2021-05-19T12:50:09Z</time>
      </trkpt>
      <trkpt lat="42.1021210" lon="-8.8889160">
        <ele>106.9</ele>
        <time>2021-05-19T12:50:10Z</time>
      </trkpt>
      <trkpt lat="42.1021330" lon="-8.8889120">
        <ele>106.9</ele>
        <time>2021-05-19T12:50:11Z</time>
      </trkpt>
      <trkpt lat="42.1021360" lon="-8.8889090">
        <ele>106.9</ele>
        <time>2021-05-19T12:50:12Z</time>
      </trkpt>
      <trkpt lat="42.1021410" lon="-8.8889020">
        <ele>106.8</ele>
        <time>2021-05-19T12:50:13Z</time>
      </trkpt>
      <trkpt lat="42.1021580" lon="-8.8888830">
        <ele>106.8</ele>
        <time>2021-05-19T12:50:14Z</time>
      </trkpt>
      <trkpt lat="42.1021640" lon="-8.8888780">
        <ele>106.8</ele>
        <time>2021-05-19T12:50:15Z</time>
      </trkpt>
      <trkpt lat="42.1021710" lon="-8.8888740">
        <ele>106.8</ele>
        <time>2021-05-19T12:50:16Z</time>
      </trkpt>
      <trkpt lat="42.1021870" lon="-8.8888620">
        <ele>106.8</ele>
        <time>2021-05-19T12:50:17Z</time>
      </trkpt>
      <trkpt lat="42.1021940" lon="-8.8888580">
        <ele>106.8</ele>
        <time>2021-05-19T12:50:18Z</time>
      </trkpt>
      <trkpt lat="42.1022000" lon="-8.8888540">
        <ele>106.8</ele>
        <time>2021-05-19T12:50:19Z</time>
      </trkpt>
      <trkpt lat="42.1022070" lon="-8.8888500">
        <ele>106.8</ele>
        <time>2021-05-19T12:50:20Z</time>
      </trkpt>
      <trkpt lat="42.1022140" lon="-8.8888450">
        <ele>106.8</ele>
        <time>2021-05-19T12:50:21Z</time>
      </trkpt>
      <trkpt lat="42.1022240" lon="-8.8888340">
        <ele>106.8</ele>
        <time>2021-05-19T12:50:22Z</time>
      </trkpt>
      <trkpt lat="42.1022320" lon="-8.8888280">
        <ele>106.7</ele>
        <time>2021-05-19T12:50:23Z</time>
      </trkpt>
      <trkpt lat="42.1022360" lon="-8.8888160">
        <ele>106.7</ele>
        <time>2021-05-19T12:50:24Z</time>
      </trkpt>
      <trkpt lat="42.1022390" lon="-8.8888080">
        <ele>106.7</ele>
        <time>2021-05-19T12:50:25Z</time>
      </trkpt>
      <trkpt lat="42.1022480" lon="-8.8888040">
        <ele>106.6</ele>
        <time>2021-05-19T12:50:26Z</time>
      </trkpt>
      <trkpt lat="42.1022560" lon="-8.8888160">
        <ele>106.6</ele>
        <time>2021-05-19T12:50:27Z</time>
      </trkpt>
      <trkpt lat="42.1022610" lon="-8.8888050">
        <ele>106.5</ele>
        <time>2021-05-19T12:50:28Z</time>
      </trkpt>
      <trkpt lat="42.1022710" lon="-8.8888010">
        <ele>106.5</ele>
        <time>2021-05-19T12:50:29Z</time>
      </trkpt>
      <trkpt lat="42.1022800" lon="-8.8887890">
        <ele>106.4</ele>
        <time>2021-05-19T12:50:30Z</time>
      </trkpt>
      <trkpt lat="42.1022870" lon="-8.8887840">
        <ele>106.4</ele>
        <time>2021-05-19T12:50:31Z</time>
      </trkpt>
      <trkpt lat="42.1022960" lon="-8.8887830">
        <ele>106.3</ele>
        <time>2021-05-19T12:50:32Z</time>
      </trkpt>
      <trkpt lat="42.1023080" lon="-8.8887710">
        <ele>106.2</ele>
        <time>2021-05-19T12:50:33Z</time>
      </trkpt>
      <trkpt lat="42.1023100" lon="-8.8887640">
        <ele>106.2</ele>
        <time>2021-05-19T12:50:34Z</time>
      </trkpt>
      <trkpt lat="42.1023180" lon="-8.8887580">
        <ele>106.1</ele>
        <time>2021-05-19T12:50:35Z</time>
      </trkpt>
      <trkpt lat="42.1023270" lon="-8.8887540">
        <ele>106.1</ele>
        <time>2021-05-19T12:50:36Z</time>
      </trkpt>
      <trkpt lat="42.1023290" lon="-8.8887510">
        <ele>106.0</ele>
        <time>2021-05-19T12:50:37Z</time>
      </trkpt>
      <trkpt lat="42.1023350" lon="-8.8887480">
        <ele>106.0</ele>
        <time>2021-05-19T12:50:38Z</time>
      </trkpt>
      <trkpt lat="42.1023400" lon="-8.8887440">
        <ele>106.0</ele>
        <time>2021-05-19T12:50:39Z</time>
      </trkpt>
      <trkpt lat="42.1023500" lon="-8.8887360">
        <ele>105.9</ele>
        <time>2021-05-19T12:50:40Z</time>
      </trkpt>
      <trkpt lat="42.1023590" lon="-8.8887330">
        <ele>105.8</ele>
        <time>2021-05-19T12:50:41Z</time>
      </trkpt>
      <trkpt lat="42.1023640" lon="-8.8887370">
        <ele>105.7</ele>
        <time>2021-05-19T12:50:42Z</time>
      </trkpt>
      <trkpt lat="42.1023750" lon="-8.8887380">
        <ele>105.7</ele>
        <time>2021-05-19T12:50:43Z</time>
      </trkpt>
      <trkpt lat="42.1023840" lon="-8.8887330">
        <ele>105.6</ele>
        <time>2021-05-19T12:50:44Z</time>
      </trkpt>
      <trkpt lat="42.1023970" lon="-8.8887240">
        <ele>105.4</ele>
        <time>2021-05-19T12:50:45Z</time>
      </trkpt>
      <trkpt lat="42.1024000" lon="-8.8887170">
        <ele>105.4</ele>
        <time>2021-05-19T12:50:46Z</time>
      </trkpt>
      <trkpt lat="42.1024100" lon="-8.8887160">
        <ele>105.3</ele>
        <time>2021-05-19T12:50:47Z</time>
      </trkpt>
      <trkpt lat="42.1024180" lon="-8.8887040">
        <ele>105.2</ele>
        <time>2021-05-19T12:50:48Z</time>
      </trkpt>
      <trkpt lat="42.1024260" lon="-8.8886980">
        <ele>105.1</ele>
        <time>2021-05-19T12:50:49Z</time>
      </trkpt>
      <trkpt lat="42.1024430" lon="-8.8886900">
        <ele>104.9</ele>
        <time>2021-05-19T12:50:50Z</time>
      </trkpt>
      <trkpt lat="42.1024540" lon="-8.8886780">
        <ele>104.7</ele>
        <time>2021-05-19T12:50:51Z</time>
      </trkpt>
      <trkpt lat="42.1024620" lon="-8.8886690">
        <ele>104.6</ele>
        <time>2021-05-19T12:50:52Z</time>
      </trkpt>
      <trkpt lat="42.1024730" lon="-8.8886510">
        <ele>104.4</ele>
        <time>2021-05-19T12:50:53Z</time>
      </trkpt>
      <trkpt lat="42.1024750" lon="-8.8886480">
        <ele>104.4</ele>
        <time>2021-05-19T12:50:54Z</time>
      </trkpt>
      <trkpt lat="42.1024850" lon="-8.8886350">
        <ele>104.3</ele>
        <time>2021-05-19T12:50:55Z</time>
      </trkpt>
      <trkpt lat="42.1024960" lon="-8.8886280">
        <ele>104.1</ele>
        <time>2021-05-19T12:50:56Z</time>
      </trkpt>
      <trkpt lat="42.1025030" lon="-8.8886220">
        <ele>104.0</ele>
        <time>2021-05-19T12:50:57Z</time>
      </trkpt>
      <trkpt lat="42.1025060" lon="-8.8886150">
        <ele>104.0</ele>
        <time>2021-05-19T12:50:58Z</time>
      </trkpt>
      <trkpt lat="42.1025200" lon="-8.8886090">
        <ele>103.8</ele>
        <time>2021-05-19T12:50:59Z</time>
      </trkpt>
      <trkpt lat="42.1025350" lon="-8.8886040">
        <ele>103.6</ele>
        <time>2021-05-19T12:51:00Z</time>
      </trkpt>
      <trkpt lat="42.1025450" lon="-8.8885990">
        <ele>103.5</ele>
        <time>2021-05-19T12:51:01Z</time>
      </trkpt>
      <trkpt lat="42.1025540" lon="-8.8885940">
        <ele>103.4</ele>
        <time>2021-05-19T12:51:02Z</time>
      </trkpt>
      <trkpt lat="42.1025770" lon="-8.8885790">
        <ele>103.2</ele>
        <time>2021-05-19T12:51:03Z</time>
      </trkpt>
      <trkpt lat="42.1025830" lon="-8.8885700">
        <ele>103.1</ele>
        <time>2021-05-19T12:51:04Z</time>
      </trkpt>
      <trkpt lat="42.1026020" lon="-8.8885570">
        <ele>102.8</ele>
        <time>2021-05-19T12:51:05Z</time>
      </trkpt>
      <trkpt lat="42.1026090" lon="-8.8885500">
        <ele>102.7</ele>
        <time>2021-05-19T12:51:06Z</time>
      </trkpt>
      <trkpt lat="42.1026160" lon="-8.8885440">
        <ele>102.6</ele>
        <time>2021-05-19T12:51:07Z</time>
      </trkpt>
      <trkpt lat="42.1026300" lon="-8.8885380">
        <ele>102.5</ele>
        <time>2021-05-19T12:51:08Z</time>
      </trkpt>
      <trkpt lat="42.1026450" lon="-8.8885300">
        <ele>102.3</ele>
        <time>2021-05-19T12:51:09Z</time>
      </trkpt>
      <trkpt lat="42.1026460" lon="-8.8885180">
        <ele>102.3</ele>
        <time>2021-05-19T12:51:10Z</time>
      </trkpt>
      <trkpt lat="42.1026510" lon="-8.8885040">
        <ele>102.1</ele>
        <time>2021-05-19T12:51:11Z</time>
      </trkpt>
      <trkpt lat="42.1026560" lon="-8.8884960">
        <ele>102.1</ele>
        <time>2021-05-19T12:51:12Z</time>
      </trkpt>
      <trkpt lat="42.1026640" lon="-8.8884730">
        <ele>101.9</ele>
        <time>2021-05-19T12:51:13Z</time>
      </trkpt>
      <trkpt lat="42.1026660" lon="-8.8884630">
        <ele>101.8</ele>
        <time>2021-05-19T12:51:14Z</time>
      </trkpt>
      <trkpt lat="42.1026690" lon="-8.8884540">
        <ele>101.7</ele>
        <time>2021-05-19T12:51:15Z</time>
      </trkpt>
      <trkpt lat="42.1026820" lon="-8.8884450">
        <ele>101.6</ele>
        <time>2021-05-19T12:51:16Z</time>
      </trkpt>
      <trkpt lat="42.1026890" lon="-8.8884390">
        <ele>101.5</ele>
        <time>2021-05-19T12:51:17Z</time>
      </trkpt>
      <trkpt lat="42.1026960" lon="-8.8884320">
        <ele>101.4</ele>
        <time>2021-05-19T12:51:18Z</time>
      </trkpt>
      <trkpt lat="42.1027030" lon="-8.8884260">
        <ele>101.3</ele>
        <time>2021-05-19T12:51:19Z</time>
      </trkpt>
      <trkpt lat="42.1027110" lon="-8.8884270">
        <ele>101.3</ele>
        <time>2021-05-19T12:51:20Z</time>
      </trkpt>
      <trkpt lat="42.1027170" lon="-8.8884240">
        <ele>101.2</ele>
        <time>2021-05-19T12:51:21Z</time>
      </trkpt>
      <trkpt lat="42.1027230" lon="-8.8884160">
        <ele>101.1</ele>
        <time>2021-05-19T12:51:22Z</time>
      </trkpt>
      <trkpt lat="42.1027320" lon="-8.8884040">
        <ele>101.0</ele>
        <time>2021-05-19T12:51:23Z</time>
      </trkpt>
      <trkpt lat="42.1027420" lon="-8.8883940">
        <ele>100.8</ele>
        <time>2021-05-19T12:51:24Z</time>
      </trkpt>
      <trkpt lat="42.1027500" lon="-8.8883940">
        <ele>100.8</ele>
        <time>2021-05-19T12:51:25Z</time>
      </trkpt>
      <trkpt lat="42.1027560" lon="-8.8883880">
        <ele>100.7</ele>
        <time>2021-05-19T12:51:26Z</time>
      </trkpt>
      <trkpt lat="42.1027720" lon="-8.8883760">
        <ele>100.5</ele>
        <time>2021-05-19T12:51:27Z</time>
      </trkpt>
      <trkpt lat="42.1027790" lon="-8.8883710">
        <ele>100.4</ele>
        <time>2021-05-19T12:51:28Z</time>
      </trkpt>
      <trkpt lat="42.1027850" lon="-8.8883650">
        <ele>100.3</ele>
        <time>2021-05-19T12:51:29Z</time>
      </trkpt>
      <trkpt lat="42.1027920" lon="-8.8883600">
        <ele>100.2</ele>
        <time>2021-05-19T12:51:30Z</time>
      </trkpt>
      <trkpt lat="42.1028060" lon="-8.8883530">
        <ele>100.1</ele>
        <time>2021-05-19T12:51:31Z</time>
      </trkpt>
      <trkpt lat="42.1028110" lon="-8.8883490">
        <ele>100.0</ele>
        <time>2021-05-19T12:51:32Z</time>
      </trkpt>
      <trkpt lat="42.1028160" lon="-8.8883350">
        <ele>99.8</ele>
        <time>2021-05-19T12:51:33Z</time>
      </trkpt>
      <trkpt lat="42.1028220" lon="-8.8883240">
        <ele>99.7</ele>
        <time>2021-05-19T12:51:34Z</time>
      </trkpt>
      <trkpt lat="42.1028270" lon="-8.8883210">
        <ele>99.7</ele>
        <time>2021-05-19T12:51:35Z</time>
      </trkpt>
      <trkpt lat="42.1028410" lon="-8.8883110">
        <ele>99.5</ele>
        <time>2021-05-19T12:51:36Z</time>
      </trkpt>
      <trkpt lat="42.1028470" lon="-8.8883040">
        <ele>99.3</ele>
        <time>2021-05-19T12:51:37Z</time>
      </trkpt>
      <trkpt lat="42.1028460" lon="-8.8882970">
        <ele>99.3</ele>
        <time>2021-05-19T12:51:38Z</time>
      </trkpt>
      <trkpt lat="42.1028540" lon="-8.8882880">
        <ele>99.1</ele>
        <time>2021-05-19T12:51:39Z</time>
      </trkpt>
      <trkpt lat="42.1028610" lon="-8.8882850">
        <ele>99.0</ele>
        <time>2021-05-19T12:51:40Z</time>
      </trkpt>
      <trkpt lat="42.1028710" lon="-8.8882690">
        <ele>98.8</ele>
        <time>2021-05-19T12:51:41Z</time>
      </trkpt>
      <trkpt lat="42.1028790" lon="-8.8882560">
        <ele>98.7</ele>
        <time>2021-05-19T12:51:42Z</time>
      </trkpt>
      <trkpt lat="42.1028880" lon="-8.8882420">
        <ele>98.5</ele>
        <time>2021-05-19T12:51:43Z</time>
      </trkpt>
      <trkpt lat="42.1028940" lon="-8.8882220">
        <ele>98.3</ele>
        <time>2021-05-19T12:51:44Z</time>
      </trkpt>
      <trkpt lat="42.1028990" lon="-8.8882140">
        <ele>98.2</ele>
        <time>2021-05-19T12:51:45Z</time>
      </trkpt>
      <trkpt lat="42.1029040" lon="-8.8882070">
        <ele>98.1</ele>
        <time>2021-05-19T12:51:46Z</time>
      </trkpt>
      <trkpt lat="42.1029090" lon="-8.8881990">
        <ele>98.0</ele>
        <time>2021-05-19T12:51:47Z</time>
      </trkpt>
      <trkpt lat="42.1029100" lon="-8.8881890">
        <ele>97.9</ele>
        <time>2021-05-19T12:51:48Z</time>
      </trkpt>
      <trkpt lat="42.1029190" lon="-8.8881790">
        <ele>97.8</ele>
        <time>2021-05-19T12:51:49Z</time>
      </trkpt>
      <trkpt lat="42.1029210" lon="-8.8881810">
        <ele>97.7</ele>
        <time>2021-05-19T12:51:50Z</time>
      </trkpt>
      <trkpt lat="42.1029230" lon="-8.8881680">
        <ele>97.6</ele>
        <time>2021-05-19T12:51:51Z</time>
      </trkpt>
      <trkpt lat="42.1029230" lon="-8.8881490">
        <ele>97.4</ele>
        <time>2021-05-19T12:51:52Z</time>
      </trkpt>
      <trkpt lat="42.1029250" lon="-8.8881470">
        <ele>97.4</ele>
        <time>2021-05-19T12:51:53Z</time>
      </trkpt>
      <trkpt lat="42.1029350" lon="-8.8881370">
        <ele>97.2</ele>
        <time>2021-05-19T12:51:54Z</time>
      </trkpt>
      <trkpt lat="42.1029410" lon="-8.8881350">
        <ele>97.2</ele>
        <time>2021-05-19T12:51:55Z</time>
      </trkpt>
      <trkpt lat="42.1029530" lon="-8.8881200">
        <ele>97.0</ele>
        <time>2021-05-19T12:51:56Z</time>
      </trkpt>
      <trkpt lat="42.1029600" lon="-8.8881170">
        <ele>96.9</ele>
        <time>2021-05-19T12:51:57Z</time>
      </trkpt>
      <trkpt lat="42.1029650" lon="-8.8881040">
        <ele>96.8</ele>
        <time>2021-05-19T12:51:58Z</time>
      </trkpt>
      <trkpt lat="42.1029810" lon="-8.8880740">
        <ele>96.5</ele>
        <time>2021-05-19T12:51:59Z</time>
      </trkpt>
      <trkpt lat="42.1029900" lon="-8.8880650">
        <ele>96.4</ele>
        <time>2021-05-19T12:52:00Z</time>
      </trkpt>
      <trkpt lat="42.1029960" lon="-8.8880630">
        <ele>96.3</ele>
        <time>2021-05-19T12:52:01Z</time>
      </trkpt>
      <trkpt lat="42.1030030" lon="-8.8880510">
        <ele>96.2</ele>
        <time>2021-05-19T12:52:02Z</time>
      </trkpt>
      <trkpt lat="42.1030030" lon="-8.8880400">
        <ele>96.1</ele>
        <time>2021-05-19T12:52:03Z</time>
      </trkpt>
      <trkpt lat="42.1030020" lon="-8.8880410">
        <ele>96.1</ele>
        <time>2021-05-19T12:52:04Z</time>
      </trkpt>
      <trkpt lat="42.1030090" lon="-8.8880250">
        <ele>95.9</ele>
        <time>2021-05-19T12:52:05Z</time>
      </trkpt>
      <trkpt lat="42.1030170" lon="-8.8880060">
        <ele>95.8</ele>
        <time>2021-05-19T12:52:06Z</time>
      </trkpt>
      <trkpt lat="42.1030230" lon="-8.8880010">
        <ele>95.7</ele>
        <time>2021-05-19T12:52:07Z</time>
      </trkpt>
      <trkpt lat="42.1030320" lon="-8.8879970">
        <ele>95.6</ele>
        <time>2021-05-19T12:52:08Z</time>
      </trkpt>
      <trkpt lat="42.1030460" lon="-8.8879830">
        <ele>95.4</ele>
        <time>2021-05-19T12:52:09Z</time>
      </trkpt>
      <trkpt lat="42.1030520" lon="-8.8879780">
        <ele>95.4</ele>
        <time>2021-05-19T12:52:10Z</time>
      </trkpt>
      <trkpt lat="42.1030580" lon="-8.8879720">
        <ele>95.3</ele>
        <time>2021-05-19T12:52:11Z</time>
      </trkpt>
      <trkpt lat="42.1030640" lon="-8.8879660">
        <ele>95.2</ele>
        <time>2021-05-19T12:52:12Z</time>
      </trkpt>
      <trkpt lat="42.1030760" lon="-8.8879560">
        <ele>95.1</ele>
        <time>2021-05-19T12:52:13Z</time>
      </trkpt>
      <trkpt lat="42.1030930" lon="-8.8879510">
        <ele>94.9</ele>
        <time>2021-05-19T12:52:14Z</time>
      </trkpt>
      <trkpt lat="42.1031190" lon="-8.8879370">
        <ele>94.6</ele>
        <time>2021-05-19T12:52:15Z</time>
      </trkpt>
      <trkpt lat="42.1031270" lon="-8.8879290">
        <ele>94.5</ele>
        <time>2021-05-19T12:52:16Z</time>
      </trkpt>
      <trkpt lat="42.1031380" lon="-8.8879210">
        <ele>94.4</ele>
        <time>2021-05-19T12:52:17Z</time>
      </trkpt>
      <trkpt lat="42.1031430" lon="-8.8879130">
        <ele>94.3</ele>
        <time>2021-05-19T12:52:18Z</time>
      </trkpt>
      <trkpt lat="42.1031510" lon="-8.8879050">
        <ele>94.2</ele>
        <time>2021-05-19T12:52:19Z</time>
      </trkpt>
      <trkpt lat="42.1031670" lon="-8.8878970">
        <ele>94.1</ele>
        <time>2021-05-19T12:52:20Z</time>
      </trkpt>
      <trkpt lat="42.1031760" lon="-8.8878930">
        <ele>94.0</ele>
        <time>2021-05-19T12:52:21Z</time>
      </trkpt>
      <trkpt lat="42.1031860" lon="-8.8878880">
        <ele>93.9</ele>
        <time>2021-05-19T12:52:22Z</time>
      </trkpt>
      <trkpt lat="42.1032010" lon="-8.8878850">
        <ele>93.7</ele>
        <time>2021-05-19T12:52:23Z</time>
      </trkpt>
      <trkpt lat="42.1032120" lon="-8.8878730">
        <ele>93.6</ele>
        <time>2021-05-19T12:52:24Z</time>
      </trkpt>
      <trkpt lat="42.1032290" lon="-8.8878590">
        <ele>93.4</ele>
        <time>2021-05-19T12:52:25Z</time>
      </trkpt>
      <trkpt lat="42.1032390" lon="-8.8878520">
        <ele>93.3</ele>
        <time>2021-05-19T12:52:26Z</time>
      </trkpt>
      <trkpt lat="42.1032530" lon="-8.8878370">
        <ele>93.1</ele>
        <time>2021-05-19T12:52:27Z</time>
      </trkpt>
      <trkpt lat="42.1032590" lon="-8.8878310">
        <ele>93.0</ele>
        <time>2021-05-19T12:52:28Z</time>
      </trkpt>
      <trkpt lat="42.1032650" lon="-8.8878240">
        <ele>93.0</ele>
        <time>2021-05-19T12:52:29Z</time>
      </trkpt>
      <trkpt lat="42.1032710" lon="-8.8878170">
        <ele>92.9</ele>
        <time>2021-05-19T12:52:30Z</time>
      </trkpt>
      <trkpt lat="42.1032820" lon="-8.8878020">
        <ele>92.7</ele>
        <time>2021-05-19T12:52:31Z</time>
      </trkpt>
      <trkpt lat="42.1032890" lon="-8.8877920">
        <ele>92.6</ele>
        <time>2021-05-19T12:52:32Z</time>
      </trkpt>
      <trkpt lat="42.1032950" lon="-8.8877830">
        <ele>92.6</ele>
        <time>2021-05-19T12:52:33Z</time>
      </trkpt>
      <trkpt lat="42.1033060" lon="-8.8877750">
        <ele>92.4</ele>
        <time>2021-05-19T12:52:34Z</time>
      </trkpt>
      <trkpt lat="42.1033130" lon="-8.8877670">
        <ele>92.4</ele>
        <time>2021-05-19T12:52:35Z</time>
      </trkpt>
      <trkpt lat="42.1033190" lon="-8.8877600">
        <ele>92.3</ele>
        <time>2021-05-19T12:52:36Z</time>
      </trkpt>
      <trkpt lat="42.1033260" lon="-8.8877520">
        <ele>92.2</ele>
        <time>2021-05-19T12:52:37Z</time>
      </trkpt>
      <trkpt lat="42.1033250" lon="-8.8877510">
        <ele>92.2</ele>
        <time>2021-05-19T12:52:38Z</time>
      </trkpt>
      <trkpt lat="42.1033230" lon="-8.8877410">
        <ele>92.1</ele>
        <time>2021-05-19T12:52:39Z</time>
      </trkpt>
      <trkpt lat="42.1033300" lon="-8.8877250">
        <ele>92.0</ele>
        <time>2021-05-19T12:52:40Z</time>
      </trkpt>
      <trkpt lat="42.1033330" lon="-8.8877110">
        <ele>91.9</ele>
        <time>2021-05-19T12:52:41Z</time>
      </trkpt>
      <trkpt lat="42.1033430" lon="-8.8877040">
        <ele>91.9</ele>
        <time>2021-05-19T12:52:42Z</time>
      </trkpt>
      <trkpt lat="42.1033510" lon="-8.8876900">
        <ele>91.8</ele>
        <time>2021-05-19T12:52:43Z</time>
      </trkpt>
      <trkpt lat="42.1033570" lon="-8.8876910">
        <ele>91.7</ele>
        <time>2021-05-19T12:52:44Z</time>
      </trkpt>
      <trkpt lat="42.1033660" lon="-8.8876720">
        <ele>91.6</ele>
        <time>2021-05-19T12:52:45Z</time>
      </trkpt>
      <trkpt lat="42.1033680" lon="-8.8876510">
        <ele>91.5</ele>
        <time>2021-05-19T12:52:46Z</time>
      </trkpt>
      <trkpt lat="42.1033720" lon="-8.8876410">
        <ele>91.4</ele>
        <time>2021-05-19T12:52:47Z</time>
      </trkpt>
      <trkpt lat="42.1033720" lon="-8.8876300">
        <ele>91.4</ele>
        <time>2021-05-19T12:52:48Z</time>
      </trkpt>
      <trkpt lat="42.1033820" lon="-8.8876210">
        <ele>91.3</ele>
        <time>2021-05-19T12:52:49Z</time>
      </trkpt>
      <trkpt lat="42.1033900" lon="-8.8876150">
        <ele>91.3</ele>
        <time>2021-05-19T12:52:50Z</time>
      </trkpt>
      <trkpt lat="42.1034000" lon="-8.8876000">
        <ele>91.2</ele>
        <time>2021-05-19T12:52:51Z</time>
      </trkpt>
      <trkpt lat="42.1034050" lon="-8.8875910">
        <ele>91.1</ele>
        <time>2021-05-19T12:52:52Z</time>
      </trkpt>
      <trkpt lat="42.1034090" lon="-8.8875820">
        <ele>91.1</ele>
        <time>2021-05-19T12:52:53Z</time>
      </trkpt>
      <trkpt lat="42.1034140" lon="-8.8875730">
        <ele>91.0</ele>
        <time>2021-05-19T12:52:54Z</time>
      </trkpt>
      <trkpt lat="42.1034180" lon="-8.8875690">
        <ele>91.0</ele>
        <time>2021-05-19T12:52:55Z</time>
      </trkpt>
      <trkpt lat="42.1034190" lon="-8.8875630">
        <ele>91.0</ele>
        <time>2021-05-19T12:52:56Z</time>
      </trkpt>
      <trkpt lat="42.1034170" lon="-8.8875600">
        <ele>91.0</ele>
        <time>2021-05-19T12:52:57Z</time>
      </trkpt>
      <trkpt lat="42.1034170" lon="-8.8875600">
        <ele>91.0</ele>
        <time>2021-05-19T12:52:58Z</time>
      </trkpt>
      <trkpt lat="42.1034070" lon="-8.8875350">
        <ele>90.9</ele>
        <time>2021-05-19T12:52:59Z</time>
      </trkpt>
      <trkpt lat="42.1034070" lon="-8.8875350">
        <ele>90.9</ele>
        <time>2021-05-19T12:53:00Z</time>
      </trkpt>
      <trkpt lat="42.1034130" lon="-8.8875200">
        <ele>90.8</ele>
        <time>2021-05-19T12:53:01Z</time>
      </trkpt>
      <trkpt lat="42.1034110" lon="-8.8875170">
        <ele>90.8</ele>
        <time>2021-05-19T12:53:02Z</time>
      </trkpt>
      <trkpt lat="42.1034140" lon="-8.8875120">
        <ele>90.8</ele>
        <time>2021-05-19T12:53:03Z</time>
      </trkpt>
      <trkpt lat="42.1034170" lon="-8.8875190">
        <ele>90.7</ele>
        <time>2021-05-19T12:53:04Z</time>
      </trkpt>
      <trkpt lat="42.1034200" lon="-8.8875220">
        <ele>90.7</ele>
        <time>2021-05-19T12:53:05Z</time>
      </trkpt>
      <trkpt lat="42.1034200" lon="-8.8875240">
        <ele>90.7</ele>
        <time>2021-05-19T12:53:06Z</time>
      </trkpt>
      <trkpt lat="42.1034220" lon="-8.8875220">
        <ele>90.7</ele>
        <time>2021-05-19T12:53:07Z</time>
      </trkpt>
      <trkpt lat="42.1034230" lon="-8.8875270">
        <ele>90.7</ele>
        <time>2021-05-19T12:53:08Z</time>
      </trkpt>
      <trkpt lat="42.1034190" lon="-8.8875260">
        <ele>90.7</ele>
        <time>2021-05-19T12:53:09Z</time>
      </trkpt>
      <trkpt lat="42.1034170" lon="-8.8875160">
        <ele>90.6</ele>
        <time>2021-05-19T12:53:10Z</time>
      </trkpt>
      <trkpt lat="42.1034220" lon="-8.8875100">
        <ele>90.6</ele>
        <time>2021-05-19T12:53:11Z</time>
      </trkpt>
      <trkpt lat="42.1034340" lon="-8.8875120">
        <ele>90.6</ele>
        <time>2021-05-19T12:53:12Z</time>
      </trkpt>
      <trkpt lat="42.1034400" lon="-8.8875280">
        <ele>90.5</ele>
        <time>2021-05-19T12:53:13Z</time>
      </trkpt>
      <trkpt lat="42.1034390" lon="-8.8875380">
        <ele>90.5</ele>
        <time>2021-05-19T12:53:14Z</time>
      </trkpt>
      <trkpt lat="42.1034430" lon="-8.8875380">
        <ele>90.5</ele>
        <time>2021-05-19T12:53:15Z</time>
      </trkpt>
      <trkpt lat="42.1034500" lon="-8.8875220">
        <ele>90.4</ele>
        <time>2021-05-19T12:53:16Z</time>
      </trkpt>
      <trkpt lat="42.1034540" lon="-8.8875110">
        <ele>90.4</ele>
        <time>2021-05-19T12:53:17Z</time>
      </trkpt>
      <trkpt lat="42.1034560" lon="-8.8875040">
        <ele>90.4</ele>
        <time>2021-05-19T12:53:18Z</time>
      </trkpt>
      <trkpt lat="42.1034570" lon="-8.8874880">
        <ele>90.3</ele>
        <time>2021-05-19T12:53:19Z</time>
      </trkpt>
      <trkpt lat="42.1034670" lon="-8.8874770">
        <ele>90.3</ele>
        <time>2021-05-19T12:53:20Z</time>
      </trkpt>
      <trkpt lat="42.1034770" lon="-8.8874680">
        <ele>90.3</ele>
        <time>2021-05-19T12:53:21Z</time>
      </trkpt>
      <trkpt lat="42.1034840" lon="-8.8874550">
        <ele>90.2</ele>
        <time>2021-05-19T12:53:22Z</time>
      </trkpt>
      <trkpt lat="42.1034900" lon="-8.8874480">
        <ele>90.2</ele>
        <time>2021-05-19T12:53:23Z</time>
      </trkpt>
      <trkpt lat="42.1034930" lon="-8.8874490">
        <ele>90.2</ele>
        <time>2021-05-19T12:53:24Z</time>
      </trkpt>
      <trkpt lat="42.1035020" lon="-8.8874390">
        <ele>90.1</ele>
        <time>2021-05-19T12:53:25Z</time>
      </trkpt>
      <trkpt lat="42.1035090" lon="-8.8874330">
        <ele>90.1</ele>
        <time>2021-05-19T12:53:26Z</time>
      </trkpt>
      <trkpt lat="42.1035220" lon="-8.8874130">
        <ele>90.1</ele>
        <time>2021-05-19T12:53:27Z</time>
      </trkpt>
      <trkpt lat="42.1035230" lon="-8.8874060">
        <ele>90.1</ele>
        <time>2021-05-19T12:53:28Z</time>
      </trkpt>
      <trkpt lat="42.1035250" lon="-8.8874000">
        <ele>90.1</ele>
        <time>2021-05-19T12:53:29Z</time>
      </trkpt>
      <trkpt lat="42.1035260" lon="-8.8873930">
        <ele>90.0</ele>
        <time>2021-05-19T12:53:30Z</time>
      </trkpt>
      <trkpt lat="42.1035270" lon="-8.8873870">
        <ele>90.0</ele>
        <time>2021-05-19T12:53:31Z</time>
      </trkpt>
      <trkpt lat="42.1035350" lon="-8.8873760">
        <ele>90.0</ele>
        <time>2021-05-19T12:53:32Z</time>
      </trkpt>
      <trkpt lat="42.1035400" lon="-8.8873630">
        <ele>90.0</ele>
        <time>2021-05-19T12:53:33Z</time>
      </trkpt>
      <trkpt lat="42.1035450" lon="-8.8873510">
        <ele>90.0</ele>
        <time>2021-05-19T12:53:34Z</time>
      </trkpt>
      <trkpt lat="42.1035540" lon="-8.8873390">
        <ele>89.9</ele>
        <time>2021-05-19T12:53:35Z</time>
      </trkpt>
      <trkpt lat="42.1035630" lon="-8.8873360">
        <ele>89.9</ele>
        <time>2021-05-19T12:53:36Z</time>
      </trkpt>
      <trkpt lat="42.1035750" lon="-8.8873240">
        <ele>89.9</ele>
        <time>2021-05-19T12:53:37Z</time>
      </trkpt>
      <trkpt lat="42.1035840" lon="-8.8873080">
        <ele>89.8</ele>
        <time>2021-05-19T12:53:38Z</time>
      </trkpt>
      <trkpt lat="42.1035890" lon="-8.8873010">
        <ele>89.8</ele>
        <time>2021-05-19T12:53:39Z</time>
      </trkpt>
      <trkpt lat="42.1035940" lon="-8.8872940">
        <ele>89.8</ele>
        <time>2021-05-19T12:53:40Z</time>
      </trkpt>
      <trkpt lat="42.1035990" lon="-8.8872870">
        <ele>89.8</ele>
        <time>2021-05-19T12:53:41Z</time>
      </trkpt>
      <trkpt lat="42.1036120" lon="-8.8872710">
        <ele>89.8</ele>
        <time>2021-05-19T12:53:42Z</time>
      </trkpt>
      <trkpt lat="42.1036200" lon="-8.8872620">
        <ele>89.7</ele>
        <time>2021-05-19T12:53:43Z</time>
      </trkpt>
      <trkpt lat="42.1036280" lon="-8.8872540">
        <ele>89.7</ele>
        <time>2021-05-19T12:53:44Z</time>
      </trkpt>
      <trkpt lat="42.1036450" lon="-8.8872350">
        <ele>89.7</ele>
        <time>2021-05-19T12:53:45Z</time>
      </trkpt>
      <trkpt lat="42.1036510" lon="-8.8872270">
        <ele>89.6</ele>
        <time>2021-05-19T12:53:46Z</time>
      </trkpt>
      <trkpt lat="42.1036560" lon="-8.8872180">
        <ele>89.6</ele>
        <time>2021-05-19T12:53:47Z</time>
      </trkpt>
      <trkpt lat="42.1036700" lon="-8.8872000">
        <ele>89.6</ele>
        <time>2021-05-19T12:53:48Z</time>
      </trkpt>
      <trkpt lat="42.1036750" lon="-8.8871940">
        <ele>89.6</ele>
        <time>2021-05-19T12:53:49Z</time>
      </trkpt>
      <trkpt lat="42.1036810" lon="-8.8871880">
        <ele>89.5</ele>
        <time>2021-05-19T12:53:50Z</time>
      </trkpt>
      <trkpt lat="42.1036860" lon="-8.8871820">
        <ele>89.5</ele>
        <time>2021-05-19T12:53:51Z</time>
      </trkpt>
      <trkpt lat="42.1036900" lon="-8.8871680">
        <ele>89.5</ele>
        <time>2021-05-19T12:53:52Z</time>
      </trkpt>
      <trkpt lat="42.1036930" lon="-8.8871640">
        <ele>89.5</ele>
        <time>2021-05-19T12:53:53Z</time>
      </trkpt>
      <trkpt lat="42.1036960" lon="-8.8871630">
        <ele>89.5</ele>
        <time>2021-05-19T12:53:54Z</time>
      </trkpt>
      <trkpt lat="42.1037020" lon="-8.8871540">
        <ele>89.5</ele>
        <time>2021-05-19T12:53:55Z</time>
      </trkpt>
      <trkpt lat="42.1037230" lon="-8.8871390">
        <ele>89.4</ele>
        <time>2021-05-19T12:53:56Z</time>
      </trkpt>
      <trkpt lat="42.1037270" lon="-8.8871310">
        <ele>89.4</ele>
        <time>2021-05-19T12:53:57Z</time>
      </trkpt>
      <trkpt lat="42.1037430" lon="-8.8871160">
        <ele>89.3</ele>
        <time>2021-05-19T12:53:58Z</time>
      </trkpt>
      <trkpt lat="42.1037530" lon="-8.8871080">
        <ele>89.3</ele>
        <time>2021-05-19T12:53:59Z</time>
      </trkpt>
      <trkpt lat="42.1037630" lon="-8.8870990">
        <ele>89.2</ele>
        <time>2021-05-19T12:54:00Z</time>
      </trkpt>
      <trkpt lat="42.1037720" lon="-8.8870880">
        <ele>89.2</ele>
        <time>2021-05-19T12:54:01Z</time>
      </trkpt>
      <trkpt lat="42.1037820" lon="-8.8870730">
        <ele>89.1</ele>
        <time>2021-05-19T12:54:02Z</time>
      </trkpt>
      <trkpt lat="42.1038010" lon="-8.8870620">
        <ele>89.1</ele>
        <time>2021-05-19T12:54:03Z</time>
      </trkpt>
      <trkpt lat="42.1038080" lon="-8.8870550">
        <ele>89.0</ele>
        <time>2021-05-19T12:54:04Z</time>
      </trkpt>
      <trkpt lat="42.1038160" lon="-8.8870490">
        <ele>89.0</ele>
        <time>2021-05-19T12:54:05Z</time>
      </trkpt>
      <trkpt lat="42.1038380" lon="-8.8870210">
        <ele>88.9</ele>
        <time>2021-05-19T12:54:06Z</time>
      </trkpt>
      <trkpt lat="42.1038430" lon="-8.8870080">
        <ele>88.8</ele>
        <time>2021-05-19T12:54:07Z</time>
      </trkpt>
      <trkpt lat="42.1038480" lon="-8.8869880">
        <ele>88.7</ele>
        <time>2021-05-19T12:54:08Z</time>
      </trkpt>
      <trkpt lat="42.1038550" lon="-8.8869760">
        <ele>88.7</ele>
        <time>2021-05-19T12:54:09Z</time>
      </trkpt>
      <trkpt lat="42.1038620" lon="-8.8869710">
        <ele>88.7</ele>
        <time>2021-05-19T12:54:10Z</time>
      </trkpt>
      <trkpt lat="42.1038700" lon="-8.8869590">
        <ele>88.6</ele>
        <time>2021-05-19T12:54:11Z</time>
      </trkpt>
      <trkpt lat="42.1038700" lon="-8.8869450">
        <ele>88.6</ele>
        <time>2021-05-19T12:54:12Z</time>
      </trkpt>
      <trkpt lat="42.1038730" lon="-8.8869310">
        <ele>88.5</ele>
        <time>2021-05-19T12:54:13Z</time>
      </trkpt>
      <trkpt lat="42.1038790" lon="-8.8869160">
        <ele>88.5</ele>
        <time>2021-05-19T12:54:14Z</time>
      </trkpt>
      <trkpt lat="42.1038830" lon="-8.8869060">
        <ele>88.4</ele>
        <time>2021-05-19T12:54:15Z</time>
      </trkpt>
      <trkpt lat="42.1038820" lon="-8.8868970">
        <ele>88.4</ele>
        <time>2021-05-19T12:54:16Z</time>
      </trkpt>
      <trkpt lat="42.1038820" lon="-8.8868840">
        <ele>88.3</ele>
        <time>2021-05-19T12:54:17Z</time>
      </trkpt>
      <trkpt lat="42.1038950" lon="-8.8868470">
        <ele>88.2</ele>
        <time>2021-05-19T12:54:18Z</time>
      </trkpt>
      <trkpt lat="42.1039000" lon="-8.8868330">
        <ele>88.1</ele>
        <time>2021-05-19T12:54:19Z</time>
      </trkpt>
      <trkpt lat="42.1039040" lon="-8.8868270">
        <ele>88.1</ele>
        <time>2021-05-19T12:54:20Z</time>
      </trkpt>
      <trkpt lat="42.1039110" lon="-8.8868100">
        <ele>88.1</ele>
        <time>2021-05-19T12:54:21Z</time>
      </trkpt>
      <trkpt lat="42.1039200" lon="-8.8867950">
        <ele>88.0</ele>
        <time>2021-05-19T12:54:22Z</time>
      </trkpt>
      <trkpt lat="42.1039260" lon="-8.8867760">
        <ele>87.9</ele>
        <time>2021-05-19T12:54:23Z</time>
      </trkpt>
      <trkpt lat="42.1039300" lon="-8.8867690">
        <ele>87.9</ele>
        <time>2021-05-19T12:54:24Z</time>
      </trkpt>
      <trkpt lat="42.1039360" lon="-8.8867540">
        <ele>87.8</ele>
        <time>2021-05-19T12:54:25Z</time>
      </trkpt>
      <trkpt lat="42.1039400" lon="-8.8867460">
        <ele>87.8</ele>
        <time>2021-05-19T12:54:26Z</time>
      </trkpt>
      <trkpt lat="42.1039570" lon="-8.8867290">
        <ele>87.7</ele>
        <time>2021-05-19T12:54:27Z</time>
      </trkpt>
      <trkpt lat="42.1039630" lon="-8.8867160">
        <ele>87.6</ele>
        <time>2021-05-19T12:54:28Z</time>
      </trkpt>
      <trkpt lat="42.1039690" lon="-8.8867100">
        <ele>87.6</ele>
        <time>2021-05-19T12:54:29Z</time>
      </trkpt>
      <trkpt lat="42.1039740" lon="-8.8866970">
        <ele>87.5</ele>
        <time>2021-05-19T12:54:30Z</time>
      </trkpt>
      <trkpt lat="42.1039800" lon="-8.8866860">
        <ele>87.5</ele>
        <time>2021-05-19T12:54:31Z</time>
      </trkpt>
      <trkpt lat="42.1039820" lon="-8.8866770">
        <ele>87.4</ele>
        <time>2021-05-19T12:54:32Z</time>
      </trkpt>
      <trkpt lat="42.1039920" lon="-8.8866610">
        <ele>87.3</ele>
        <time>2021-05-19T12:54:33Z</time>
      </trkpt>
      <trkpt lat="42.1039970" lon="-8.8866460">
        <ele>87.3</ele>
        <time>2021-05-19T12:54:34Z</time>
      </trkpt>
      <trkpt lat="42.1040010" lon="-8.8866380">
        <ele>87.2</ele>
        <time>2021-05-19T12:54:35Z</time>
      </trkpt>
      <trkpt lat="42.1040050" lon="-8.8866310">
        <ele>87.2</ele>
        <time>2021-05-19T12:54:36Z</time>
      </trkpt>
      <trkpt lat="42.1040090" lon="-8.8866230">
        <ele>87.1</ele>
        <time>2021-05-19T12:54:37Z</time>
      </trkpt>
      <trkpt lat="42.1040130" lon="-8.8866150">
        <ele>87.1</ele>
        <time>2021-05-19T12:54:38Z</time>
      </trkpt>
      <trkpt lat="42.1040190" lon="-8.8866080">
        <ele>87.0</ele>
        <time>2021-05-19T12:54:39Z</time>
      </trkpt>
      <trkpt lat="42.1040280" lon="-8.8865970">
        <ele>86.9</ele>
        <time>2021-05-19T12:54:40Z</time>
      </trkpt>
      <trkpt lat="42.1040360" lon="-8.8865860">
        <ele>86.9</ele>
        <time>2021-05-19T12:54:41Z</time>
      </trkpt>
      <trkpt lat="42.1040480" lon="-8.8865890">
        <ele>86.8</ele>
        <time>2021-05-19T12:54:42Z</time>
      </trkpt>
      <trkpt lat="42.1040540" lon="-8.8865840">
        <ele>86.7</ele>
        <time>2021-05-19T12:54:43Z</time>
      </trkpt>
      <trkpt lat="42.1040600" lon="-8.8865690">
        <ele>86.7</ele>
        <time>2021-05-19T12:54:44Z</time>
      </trkpt>
      <trkpt lat="42.1040670" lon="-8.8865430">
        <ele>86.5</ele>
        <time>2021-05-19T12:54:45Z</time>
      </trkpt>
      <trkpt lat="42.1040750" lon="-8.8865330">
        <ele>86.5</ele>
        <time>2021-05-19T12:54:46Z</time>
      </trkpt>
      <trkpt lat="42.1040780" lon="-8.8865270">
        <ele>86.4</ele>
        <time>2021-05-19T12:54:47Z</time>
      </trkpt>
      <trkpt lat="42.1040860" lon="-8.8865170">
        <ele>86.3</ele>
        <time>2021-05-19T12:54:48Z</time>
      </trkpt>
      <trkpt lat="42.1040940" lon="-8.8864990">
        <ele>86.2</ele>
        <time>2021-05-19T12:54:49Z</time>
      </trkpt>
      <trkpt lat="42.1041110" lon="-8.8864780">
        <ele>86.1</ele>
        <time>2021-05-19T12:54:50Z</time>
      </trkpt>
      <trkpt lat="42.1041150" lon="-8.8864700">
        <ele>86.0</ele>
        <time>2021-05-19T12:54:51Z</time>
      </trkpt>
      <trkpt lat="42.1041200" lon="-8.8864610">
        <ele>86.0</ele>
        <time>2021-05-19T12:54:52Z</time>
      </trkpt>
      <trkpt lat="42.1041350" lon="-8.8864540">
        <ele>85.9</ele>
        <time>2021-05-19T12:54:53Z</time>
      </trkpt>
      <trkpt lat="42.1041490" lon="-8.8864480">
        <ele>85.8</ele>
        <time>2021-05-19T12:54:54Z</time>
      </trkpt>
      <trkpt lat="42.1041570" lon="-8.8864310">
        <ele>85.7</ele>
        <time>2021-05-19T12:54:55Z</time>
      </trkpt>
      <trkpt lat="42.1041680" lon="-8.8864200">
        <ele>85.6</ele>
        <time>2021-05-19T12:54:56Z</time>
      </trkpt>
      <trkpt lat="42.1041790" lon="-8.8864130">
        <ele>85.6</ele>
        <time>2021-05-19T12:54:57Z</time>
      </trkpt>
      <trkpt lat="42.1041830" lon="-8.8864020">
        <ele>85.5</ele>
        <time>2021-05-19T12:54:58Z</time>
      </trkpt>
      <trkpt lat="42.1041890" lon="-8.8863860">
        <ele>85.5</ele>
        <time>2021-05-19T12:54:59Z</time>
      </trkpt>
      <trkpt lat="42.1042020" lon="-8.8863770">
        <ele>85.4</ele>
        <time>2021-05-19T12:55:00Z</time>
      </trkpt>
      <trkpt lat="42.1042130" lon="-8.8863600">
        <ele>85.3</ele>
        <time>2021-05-19T12:55:01Z</time>
      </trkpt>
      <trkpt lat="42.1042240" lon="-8.8863430">
        <ele>85.2</ele>
        <time>2021-05-19T12:55:02Z</time>
      </trkpt>
      <trkpt lat="42.1042340" lon="-8.8863340">
        <ele>85.2</ele>
        <time>2021-05-19T12:55:03Z</time>
      </trkpt>
      <trkpt lat="42.1042410" lon="-8.8863180">
        <ele>85.1</ele>
        <time>2021-05-19T12:55:04Z</time>
      </trkpt>
      <trkpt lat="42.1042590" lon="-8.8863170">
        <ele>85.0</ele>
        <time>2021-05-19T12:55:05Z</time>
      </trkpt>
      <trkpt lat="42.1042700" lon="-8.8863140">
        <ele>85.0</ele>
        <time>2021-05-19T12:55:06Z</time>
      </trkpt>
      <trkpt lat="42.1042770" lon="-8.8863120">
        <ele>85.0</ele>
        <time>2021-05-19T12:55:07Z</time>
      </trkpt>
      <trkpt lat="42.1042820" lon="-8.8862970">
        <ele>84.9</ele>
        <time>2021-05-19T12:55:08Z</time>
      </trkpt>
      <trkpt lat="42.1042850" lon="-8.8862860">
        <ele>84.9</ele>
        <time>2021-05-19T12:55:09Z</time>
      </trkpt>
      <trkpt lat="42.1043020" lon="-8.8862820">
        <ele>84.8</ele>
        <time>2021-05-19T12:55:10Z</time>
      </trkpt>
      <trkpt lat="42.1043120" lon="-8.8862730">
        <ele>84.8</ele>
        <time>2021-05-19T12:55:11Z</time>
      </trkpt>
      <trkpt lat="42.1043130" lon="-8.8862670">
        <ele>84.8</ele>
        <time>2021-05-19T12:55:12Z</time>
      </trkpt>
      <trkpt lat="42.1043220" lon="-8.8862630">
        <ele>84.7</ele>
        <time>2021-05-19T12:55:13Z</time>
      </trkpt>
      <trkpt lat="42.1043320" lon="-8.8862560">
        <ele>84.7</ele>
        <time>2021-05-19T12:55:14Z</time>
      </trkpt>
      <trkpt lat="42.1043400" lon="-8.8862510">
        <ele>84.6</ele>
        <time>2021-05-19T12:55:15Z</time>
      </trkpt>
      <trkpt lat="42.1043440" lon="-8.8862480">
        <ele>84.6</ele>
        <time>2021-05-19T12:55:16Z</time>
      </trkpt>
      <trkpt lat="42.1043530" lon="-8.8862390">
        <ele>84.6</ele>
        <time>2021-05-19T12:55:17Z</time>
      </trkpt>
      <trkpt lat="42.1043620" lon="-8.8862230">
        <ele>84.5</ele>
        <time>2021-05-19T12:55:18Z</time>
      </trkpt>
      <trkpt lat="42.1043710" lon="-8.8862270">
        <ele>84.5</ele>
        <time>2021-05-19T12:55:19Z</time>
      </trkpt>
      <trkpt lat="42.1043760" lon="-8.8862210">
        <ele>84.4</ele>
        <time>2021-05-19T12:55:20Z</time>
      </trkpt>
      <trkpt lat="42.1043890" lon="-8.8862120">
        <ele>84.4</ele>
        <time>2021-05-19T12:55:21Z</time>
      </trkpt>
      <trkpt lat="42.1044000" lon="-8.8862090">
        <ele>84.3</ele>
        <time>2021-05-19T12:55:22Z</time>
      </trkpt>
      <trkpt lat="42.1044100" lon="-8.8862000">
        <ele>84.3</ele>
        <time>2021-05-19T12:55:23Z</time>
      </trkpt>
      <trkpt lat="42.1044130" lon="-8.8861940">
        <ele>84.3</ele>
        <time>2021-05-19T12:55:24Z</time>
      </trkpt>
      <trkpt lat="42.1044260" lon="-8.8861870">
        <ele>84.2</ele>
        <time>2021-05-19T12:55:25Z</time>
      </trkpt>
      <trkpt lat="42.1044320" lon="-8.8861780">
        <ele>84.2</ele>
        <time>2021-05-19T12:55:26Z</time>
      </trkpt>
      <trkpt lat="42.1044420" lon="-8.8861680">
        <ele>84.1</ele>
        <time>2021-05-19T12:55:27Z</time>
      </trkpt>
      <trkpt lat="42.1044540" lon="-8.8861480">
        <ele>84.1</ele>
        <time>2021-05-19T12:55:28Z</time>
      </trkpt>
      <trkpt lat="42.1044610" lon="-8.8861390">
        <ele>84.0</ele>
        <time>2021-05-19T12:55:29Z</time>
      </trkpt>
      <trkpt lat="42.1044690" lon="-8.8861260">
        <ele>84.0</ele>
        <time>2021-05-19T12:55:30Z</time>
      </trkpt>
      <trkpt lat="42.1044730" lon="-8.8861140">
        <ele>83.9</ele>
        <time>2021-05-19T12:55:31Z</time>
      </trkpt>
      <trkpt lat="42.1044810" lon="-8.8861020">
        <ele>83.9</ele>
        <time>2021-05-19T12:55:32Z</time>
      </trkpt>
      <trkpt lat="42.1044900" lon="-8.8860900">
        <ele>83.8</ele>
        <time>2021-05-19T12:55:33Z</time>
      </trkpt>
      <trkpt lat="42.1045030" lon="-8.8860850">
        <ele>83.8</ele>
        <time>2021-05-19T12:55:34Z</time>
      </trkpt>
      <trkpt lat="42.1045100" lon="-8.8860750">
        <ele>83.7</ele>
        <time>2021-05-19T12:55:35Z</time>
      </trkpt>
      <trkpt lat="42.1045290" lon="-8.8860660">
        <ele>83.6</ele>
        <time>2021-05-19T12:55:36Z</time>
      </trkpt>
      <trkpt lat="42.1045360" lon="-8.8860610">
        <ele>83.6</ele>
        <time>2021-05-19T12:55:37Z</time>
      </trkpt>
      <trkpt lat="42.1045440" lon="-8.8860550">
        <ele>83.6</ele>
        <time>2021-05-19T12:55:38Z</time>
      </trkpt>
      <trkpt lat="42.1045560" lon="-8.8860430">
        <ele>83.5</ele>
        <time>2021-05-19T12:55:39Z</time>
      </trkpt>
      <trkpt lat="42.1045640" lon="-8.8860330">
        <ele>83.4</ele>
        <time>2021-05-19T12:55:40Z</time>
      </trkpt>
      <trkpt lat="42.1045730" lon="-8.8860240">
        <ele>83.4</ele>
        <time>2021-05-19T12:55:41Z</time>
      </trkpt>
      <trkpt lat="42.1045880" lon="-8.8860100">
        <ele>83.3</ele>
        <time>2021-05-19T12:55:42Z</time>
      </trkpt>
      <trkpt lat="42.1045960" lon="-8.8860010">
        <ele>83.3</ele>
        <time>2021-05-19T12:55:43Z</time>
      </trkpt>
      <trkpt lat="42.1046050" lon="-8.8859930">
        <ele>83.2</ele>
        <time>2021-05-19T12:55:44Z</time>
      </trkpt>
      <trkpt lat="42.1046130" lon="-8.8859890">
        <ele>83.2</ele>
        <time>2021-05-19T12:55:45Z</time>
      </trkpt>
      <trkpt lat="42.1046150" lon="-8.8859800">
        <ele>83.1</ele>
        <time>2021-05-19T12:55:46Z</time>
      </trkpt>
      <trkpt lat="42.1046240" lon="-8.8859730">
        <ele>83.1</ele>
        <time>2021-05-19T12:55:47Z</time>
      </trkpt>
      <trkpt lat="42.1046320" lon="-8.8859670">
        <ele>83.0</ele>
        <time>2021-05-19T12:55:48Z</time>
      </trkpt>
      <trkpt lat="42.1046430" lon="-8.8859630">
        <ele>83.0</ele>
        <time>2021-05-19T12:55:49Z</time>
      </trkpt>
      <trkpt lat="42.1046510" lon="-8.8859520">
        <ele>82.9</ele>
        <time>2021-05-19T12:55:50Z</time>
      </trkpt>
      <trkpt lat="42.1046600" lon="-8.8859490">
        <ele>82.8</ele>
        <time>2021-05-19T12:55:51Z</time>
      </trkpt>
      <trkpt lat="42.1046660" lon="-8.8859470">
        <ele>82.8</ele>
        <time>2021-05-19T12:55:52Z</time>
      </trkpt>
      <trkpt lat="42.1046710" lon="-8.8859460">
        <ele>82.8</ele>
        <time>2021-05-19T12:55:53Z</time>
      </trkpt>
      <trkpt lat="42.1046740" lon="-8.8859400">
        <ele>82.7</ele>
        <time>2021-05-19T12:55:54Z</time>
      </trkpt>
      <trkpt lat="42.1046880" lon="-8.8859280">
        <ele>82.7</ele>
        <time>2021-05-19T12:55:55Z</time>
      </trkpt>
      <trkpt lat="42.1046990" lon="-8.8859240">
        <ele>82.6</ele>
        <time>2021-05-19T12:55:56Z</time>
      </trkpt>
      <trkpt lat="42.1047120" lon="-8.8859100">
        <ele>82.6</ele>
        <time>2021-05-19T12:55:57Z</time>
      </trkpt>
      <trkpt lat="42.1047180" lon="-8.8859000">
        <ele>82.6</ele>
        <time>2021-05-19T12:55:58Z</time>
      </trkpt>
      <trkpt lat="42.1047270" lon="-8.8858990">
        <ele>82.6</ele>
        <time>2021-05-19T12:55:59Z</time>
      </trkpt>
      <trkpt lat="42.1047380" lon="-8.8858900">
        <ele>82.6</ele>
        <time>2021-05-19T12:56:00Z</time>
      </trkpt>
      <trkpt lat="42.1047550" lon="-8.8858780">
        <ele>82.5</ele>
        <time>2021-05-19T12:56:01Z</time>
      </trkpt>
      <trkpt lat="42.1047650" lon="-8.8858720">
        <ele>82.5</ele>
        <time>2021-05-19T12:56:02Z</time>
      </trkpt>
      <trkpt lat="42.1047740" lon="-8.8858650">
        <ele>82.5</ele>
        <time>2021-05-19T12:56:03Z</time>
      </trkpt>
      <trkpt lat="42.1047900" lon="-8.8858550">
        <ele>82.5</ele>
        <time>2021-05-19T12:56:04Z</time>
      </trkpt>
      <trkpt lat="42.1048000" lon="-8.8858530">
        <ele>82.4</ele>
        <time>2021-05-19T12:56:05Z</time>
      </trkpt>
      <trkpt lat="42.1048180" lon="-8.8858420">
        <ele>82.4</ele>
        <time>2021-05-19T12:56:06Z</time>
      </trkpt>
      <trkpt lat="42.1048260" lon="-8.8858360">
        <ele>82.4</ele>
        <time>2021-05-19T12:56:07Z</time>
      </trkpt>
      <trkpt lat="42.1048330" lon="-8.8858290">
        <ele>82.4</ele>
        <time>2021-05-19T12:56:08Z</time>
      </trkpt>
      <trkpt lat="42.1048530" lon="-8.8858270">
        <ele>82.3</ele>
        <time>2021-05-19T12:56:09Z</time>
      </trkpt>
      <trkpt lat="42.1048620" lon="-8.8858190">
        <ele>82.3</ele>
        <time>2021-05-19T12:56:10Z</time>
      </trkpt>
      <trkpt lat="42.1048760" lon="-8.8858020">
        <ele>82.2</ele>
        <time>2021-05-19T12:56:11Z</time>
      </trkpt>
      <trkpt lat="42.1048830" lon="-8.8857940">
        <ele>82.2</ele>
        <time>2021-05-19T12:56:12Z</time>
      </trkpt>
      <trkpt lat="42.1048890" lon="-8.8857870">
        <ele>82.2</ele>
        <time>2021-05-19T12:56:13Z</time>
      </trkpt>
      <trkpt lat="42.1048960" lon="-8.8857780">
        <ele>82.2</ele>
        <time>2021-05-19T12:56:14Z</time>
      </trkpt>
      <trkpt lat="42.1048980" lon="-8.8857680">
        <ele>82.2</ele>
        <time>2021-05-19T12:56:15Z</time>
      </trkpt>
      <trkpt lat="42.1048990" lon="-8.8857590">
        <ele>82.2</ele>
        <time>2021-05-19T12:56:16Z</time>
      </trkpt>
      <trkpt lat="42.1049100" lon="-8.8857500">
        <ele>82.1</ele>
        <time>2021-05-19T12:56:17Z</time>
      </trkpt>
      <trkpt lat="42.1049190" lon="-8.8857380">
        <ele>82.1</ele>
        <time>2021-05-19T12:56:18Z</time>
      </trkpt>
      <trkpt lat="42.1049300" lon="-8.8857290">
        <ele>82.1</ele>
        <time>2021-05-19T12:56:19Z</time>
      </trkpt>
      <trkpt lat="42.1049350" lon="-8.8857200">
        <ele>82.1</ele>
        <time>2021-05-19T12:56:20Z</time>
      </trkpt>
      <trkpt lat="42.1049450" lon="-8.8857110">
        <ele>82.1</ele>
        <time>2021-05-19T12:56:21Z</time>
      </trkpt>
      <trkpt lat="42.1049550" lon="-8.8856970">
        <ele>82.0</ele>
        <time>2021-05-19T12:56:22Z</time>
      </trkpt>
      <trkpt lat="42.1049600" lon="-8.8856850">
        <ele>82.0</ele>
        <time>2021-05-19T12:56:23Z</time>
      </trkpt>
      <trkpt lat="42.1049750" lon="-8.8856650">
        <ele>82.0</ele>
        <time>2021-05-19T12:56:24Z</time>
      </trkpt>
      <trkpt lat="42.1049800" lon="-8.8856560">
        <ele>82.0</ele>
        <time>2021-05-19T12:56:25Z</time>
      </trkpt>
      <trkpt lat="42.1049850" lon="-8.8856480">
        <ele>82.0</ele>
        <time>2021-05-19T12:56:26Z</time>
      </trkpt>
      <trkpt lat="42.1050040" lon="-8.8856350">
        <ele>81.9</ele>
        <time>2021-05-19T12:56:27Z</time>
      </trkpt>
      <trkpt lat="42.1050100" lon="-8.8856280">
        <ele>81.9</ele>
        <time>2021-05-19T12:56:28Z</time>
      </trkpt>
      <trkpt lat="42.1050170" lon="-8.8856220">
        <ele>81.9</ele>
        <time>2021-05-19T12:56:29Z</time>
      </trkpt>
      <trkpt lat="42.1050350" lon="-8.8856070">
        <ele>81.9</ele>
        <time>2021-05-19T12:56:30Z</time>
      </trkpt>
      <trkpt lat="42.1050420" lon="-8.8855970">
        <ele>81.9</ele>
        <time>2021-05-19T12:56:31Z</time>
      </trkpt>
      <trkpt lat="42.1050500" lon="-8.8855880">
        <ele>81.8</ele>
        <time>2021-05-19T12:56:32Z</time>
      </trkpt>
      <trkpt lat="42.1050620" lon="-8.8855800">
        <ele>81.8</ele>
        <time>2021-05-19T12:56:33Z</time>
      </trkpt>
      <trkpt lat="42.1050720" lon="-8.8855800">
        <ele>81.8</ele>
        <time>2021-05-19T12:56:34Z</time>
      </trkpt>
      <trkpt lat="42.1050750" lon="-8.8855740">
        <ele>81.8</ele>
        <time>2021-05-19T12:56:35Z</time>
      </trkpt>
      <trkpt lat="42.1050920" lon="-8.8855550">
        <ele>81.8</ele>
        <time>2021-05-19T12:56:36Z</time>
      </trkpt>
      <trkpt lat="42.1050980" lon="-8.8855470">
        <ele>81.7</ele>
        <time>2021-05-19T12:56:37Z</time>
      </trkpt>
      <trkpt lat="42.1051050" lon="-8.8855400">
        <ele>81.7</ele>
        <time>2021-05-19T12:56:38Z</time>
      </trkpt>
      <trkpt lat="42.1051120" lon="-8.8855290">
        <ele>81.7</ele>
        <time>2021-05-19T12:56:39Z</time>
      </trkpt>
      <trkpt lat="42.1051210" lon="-8.8855140">
        <ele>81.7</ele>
        <time>2021-05-19T12:56:40Z</time>
      </trkpt>
      <trkpt lat="42.1051250" lon="-8.8855000">
        <ele>81.6</ele>
        <time>2021-05-19T12:56:41Z</time>
      </trkpt>
      <trkpt lat="42.1051360" lon="-8.8854940">
        <ele>81.6</ele>
        <time>2021-05-19T12:56:42Z</time>
      </trkpt>
      <trkpt lat="42.1051530" lon="-8.8854690">
        <ele>81.5</ele>
        <time>2021-05-19T12:56:43Z</time>
      </trkpt>
      <trkpt lat="42.1051610" lon="-8.8854570">
        <ele>81.5</ele>
        <time>2021-05-19T12:56:44Z</time>
      </trkpt>
      <trkpt lat="42.1051710" lon="-8.8854420">
        <ele>81.5</ele>
        <time>2021-05-19T12:56:45Z</time>
      </trkpt>
      <trkpt lat="42.1051800" lon="-8.8854250">
        <ele>81.4</ele>
        <time>2021-05-19T12:56:46Z</time>
      </trkpt>
      <trkpt lat="42.1051880" lon="-8.8854090">
        <ele>81.4</ele>
        <time>2021-05-19T12:56:47Z</time>
      </trkpt>
      <trkpt lat="42.1051990" lon="-8.8853940">
        <ele>81.3</ele>
        <time>2021-05-19T12:56:48Z</time>
      </trkpt>
      <trkpt lat="42.1052050" lon="-8.8853740">
        <ele>81.2</ele>
        <time>2021-05-19T12:56:49Z</time>
      </trkpt>
      <trkpt lat="42.1052110" lon="-8.8853580">
        <ele>81.2</ele>
        <time>2021-05-19T12:56:50Z</time>
      </trkpt>
      <trkpt lat="42.1052130" lon="-8.8853390">
        <ele>81.1</ele>
        <time>2021-05-19T12:56:51Z</time>
      </trkpt>
      <trkpt lat="42.1052140" lon="-8.8853260">
        <ele>81.1</ele>
        <time>2021-05-19T12:56:52Z</time>
      </trkpt>
      <trkpt lat="42.1052200" lon="-8.8853170">
        <ele>81.0</ele>
        <time>2021-05-19T12:56:53Z</time>
      </trkpt>
      <trkpt lat="42.1052300" lon="-8.8853080">
        <ele>81.0</ele>
        <time>2021-05-19T12:56:54Z</time>
      </trkpt>
      <trkpt lat="42.1052440" lon="-8.8852870">
        <ele>80.9</ele>
        <time>2021-05-19T12:56:55Z</time>
      </trkpt>
      <trkpt lat="42.1052500" lon="-8.8852800">
        <ele>80.9</ele>
        <time>2021-05-19T12:56:56Z</time>
      </trkpt>
      <trkpt lat="42.1052570" lon="-8.8852740">
        <ele>80.8</ele>
        <time>2021-05-19T12:56:57Z</time>
      </trkpt>
      <trkpt lat="42.1052620" lon="-8.8852640">
        <ele>80.8</ele>
        <time>2021-05-19T12:56:58Z</time>
      </trkpt>
      <trkpt lat="42.1052770" lon="-8.8852530">
        <ele>80.7</ele>
        <time>2021-05-19T12:56:59Z</time>
      </trkpt>
      <trkpt lat="42.1052830" lon="-8.8852420">
        <ele>80.7</ele>
        <time>2021-05-19T12:57:00Z</time>
      </trkpt>
      <trkpt lat="42.1052920" lon="-8.8852310">
        <ele>80.6</ele>
        <time>2021-05-19T12:57:01Z</time>
      </trkpt>
      <trkpt lat="42.1052980" lon="-8.8852230">
        <ele>80.6</ele>
        <time>2021-05-19T12:57:02Z</time>
      </trkpt>
      <trkpt lat="42.1053020" lon="-8.8852030">
        <ele>80.5</ele>
        <time>2021-05-19T12:57:03Z</time>
      </trkpt>
      <trkpt lat="42.1053130" lon="-8.8851900">
        <ele>80.4</ele>
        <time>2021-05-19T12:57:04Z</time>
      </trkpt>
      <trkpt lat="42.1053140" lon="-8.8851870">
        <ele>80.4</ele>
        <time>2021-05-19T12:57:05Z</time>
      </trkpt>
      <trkpt lat="42.1053100" lon="-8.8851890">
        <ele>80.4</ele>
        <time>2021-05-19T12:57:06Z</time>
      </trkpt>
      <trkpt lat="42.1053120" lon="-8.8851880">
        <ele>80.4</ele>
        <time>2021-05-19T12:57:07Z</time>
      </trkpt>
      <trkpt lat="42.1053150" lon="-8.8851790">
        <ele>80.3</ele>
        <time>2021-05-19T12:57:08Z</time>
      </trkpt>
      <trkpt lat="42.1053240" lon="-8.8851650">
        <ele>80.3</ele>
        <time>2021-05-19T12:57:09Z</time>
      </trkpt>
      <trkpt lat="42.1053400" lon="-8.8851520">
        <ele>80.2</ele>
        <time>2021-05-19T12:57:10Z</time>
      </trkpt>
      <trkpt lat="42.1053480" lon="-8.8851450">
        <ele>80.2</ele>
        <time>2021-05-19T12:57:11Z</time>
      </trkpt>
      <trkpt lat="42.1053560" lon="-8.8851390">
        <ele>80.1</ele>
        <time>2021-05-19T12:57:12Z</time>
      </trkpt>
      <trkpt lat="42.1053630" lon="-8.8851270">
        <ele>80.1</ele>
        <time>2021-05-19T12:57:13Z</time>
      </trkpt>
      <trkpt lat="42.1053780" lon="-8.8851090">
        <ele>80.0</ele>
        <time>2021-05-19T12:57:14Z</time>
      </trkpt>
      <trkpt lat="42.1053870" lon="-8.8850890">
        <ele>79.9</ele>
        <time>2021-05-19T12:57:15Z</time>
      </trkpt>
      <trkpt lat="42.1054010" lon="-8.8850810">
        <ele>79.9</ele>
        <time>2021-05-19T12:57:16Z</time>
      </trkpt>
      <trkpt lat="42.1054110" lon="-8.8850580">
        <ele>79.8</ele>
        <time>2021-05-19T12:57:17Z</time>
      </trkpt>
      <trkpt lat="42.1054170" lon="-8.8850500">
        <ele>79.8</ele>
        <time>2021-05-19T12:57:18Z</time>
      </trkpt>
      <trkpt lat="42.1054230" lon="-8.8850410">
        <ele>79.7</ele>
        <time>2021-05-19T12:57:19Z</time>
      </trkpt>
      <trkpt lat="42.1054330" lon="-8.8850160">
        <ele>79.7</ele>
        <time>2021-05-19T12:57:20Z</time>
      </trkpt>
      <trkpt lat="42.1054370" lon="-8.8850060">
        <ele>79.7</ele>
        <time>2021-05-19T12:57:21Z</time>
      </trkpt>
      <trkpt lat="42.1054420" lon="-8.8849960">
        <ele>79.6</ele>
        <time>2021-05-19T12:57:22Z</time>
      </trkpt>
      <trkpt lat="42.1054520" lon="-8.8849830">
        <ele>79.6</ele>
        <time>2021-05-19T12:57:23Z</time>
      </trkpt>
      <trkpt lat="42.1054630" lon="-8.8849690">
        <ele>79.5</ele>
        <time>2021-05-19T12:57:24Z</time>
      </trkpt>
      <trkpt lat="42.1054760" lon="-8.8849460">
        <ele>79.5</ele>
        <time>2021-05-19T12:57:25Z</time>
      </trkpt>
      <trkpt lat="42.1054810" lon="-8.8849380">
        <ele>79.5</ele>
        <time>2021-05-19T12:57:26Z</time>
      </trkpt>
      <trkpt lat="42.1054870" lon="-8.8849300">
        <ele>79.4</ele>
        <time>2021-05-19T12:57:27Z</time>
      </trkpt>
      <trkpt lat="42.1054920" lon="-8.8849090">
        <ele>79.4</ele>
        <time>2021-05-19T12:57:28Z</time>
      </trkpt>
      <trkpt lat="42.1054990" lon="-8.8848920">
        <ele>79.4</ele>
        <time>2021-05-19T12:57:29Z</time>
      </trkpt>
      <trkpt lat="42.1055070" lon="-8.8848790">
        <ele>79.3</ele>
        <time>2021-05-19T12:57:30Z</time>
      </trkpt>
      <trkpt lat="42.1055060" lon="-8.8848680">
        <ele>79.3</ele>
        <time>2021-05-19T12:57:31Z</time>
      </trkpt>
      <trkpt lat="42.1055140" lon="-8.8848490">
        <ele>79.3</ele>
        <time>2021-05-19T12:57:32Z</time>
      </trkpt>
      <trkpt lat="42.1055210" lon="-8.8848230">
        <ele>79.2</ele>
        <time>2021-05-19T12:57:33Z</time>
      </trkpt>
      <trkpt lat="42.1055240" lon="-8.8848100">
        <ele>79.2</ele>
        <time>2021-05-19T12:57:34Z</time>
      </trkpt>
      <trkpt lat="42.1055270" lon="-8.8847970">
        <ele>79.2</ele>
        <time>2021-05-19T12:57:35Z</time>
      </trkpt>
      <trkpt lat="42.1055310" lon="-8.8847810">
        <ele>79.2</ele>
        <time>2021-05-19T12:57:36Z</time>
      </trkpt>
      <trkpt lat="42.1055370" lon="-8.8847710">
        <ele>79.2</ele>
        <time>2021-05-19T12:57:37Z</time>
      </trkpt>
      <trkpt lat="42.1055480" lon="-8.8847600">
        <ele>79.2</ele>
        <time>2021-05-19T12:57:38Z</time>
      </trkpt>
      <trkpt lat="42.1055530" lon="-8.8847430">
        <ele>79.2</ele>
        <time>2021-05-19T12:57:39Z</time>
      </trkpt>
      <trkpt lat="42.1055640" lon="-8.8847280">
        <ele>79.1</ele>
        <time>2021-05-19T12:57:40Z</time>
      </trkpt>
      <trkpt lat="42.1055770" lon="-8.8847190">
        <ele>79.1</ele>
        <time>2021-05-19T12:57:41Z</time>
      </trkpt>
      <trkpt lat="42.1055800" lon="-8.8847140">
        <ele>79.1</ele>
        <time>2021-05-19T12:57:42Z</time>
      </trkpt>
      <trkpt lat="42.1055870" lon="-8.8846930">
        <ele>79.1</ele>
        <time>2021-05-19T12:57:43Z</time>
      </trkpt>
      <trkpt lat="42.1055960" lon="-8.8846700">
        <ele>79.1</ele>
        <time>2021-05-19T12:57:44Z</time>
      </trkpt>
      <trkpt lat="42.1056000" lon="-8.8846580">
        <ele>79.1</ele>
        <time>2021-05-19T12:57:45Z</time>
      </trkpt>
      <trkpt lat="42.1056030" lon="-8.8846470">
        <ele>79.0</ele>
        <time>2021-05-19T12:57:46Z</time>
      </trkpt>
      <trkpt lat="42.1056070" lon="-8.8846320">
        <ele>79.0</ele>
        <time>2021-05-19T12:57:47Z</time>
      </trkpt>
      <trkpt lat="42.1056200" lon="-8.8846050">
        <ele>79.0</ele>
        <time>2021-05-19T12:57:48Z</time>
      </trkpt>
      <trkpt lat="42.1056260" lon="-8.8845860">
        <ele>78.9</ele>
        <time>2021-05-19T12:57:49Z</time>
      </trkpt>
      <trkpt lat="42.1056310" lon="-8.8845660">
        <ele>78.9</ele>
        <time>2021-05-19T12:57:50Z</time>
      </trkpt>
      <trkpt lat="42.1056300" lon="-8.8845440">
        <ele>78.8</ele>
        <time>2021-05-19T12:57:51Z</time>
      </trkpt>
      <trkpt lat="42.1056370" lon="-8.8845240">
        <ele>78.8</ele>
        <time>2021-05-19T12:57:52Z</time>
      </trkpt>
      <trkpt lat="42.1056450" lon="-8.8845050">
        <ele>78.8</ele>
        <time>2021-05-19T12:57:53Z</time>
      </trkpt>
      <trkpt lat="42.1056480" lon="-8.8844840">
        <ele>78.7</ele>
        <time>2021-05-19T12:57:54Z</time>
      </trkpt>
      <trkpt lat="42.1056550" lon="-8.8844650">
        <ele>78.7</ele>
        <time>2021-05-19T12:57:55Z</time>
      </trkpt>
      <trkpt lat="42.1056570" lon="-8.8844440">
        <ele>78.7</ele>
        <time>2021-05-19T12:57:56Z</time>
      </trkpt>
      <trkpt lat="42.1056640" lon="-8.8844270">
        <ele>78.6</ele>
        <time>2021-05-19T12:57:57Z</time>
      </trkpt>
      <trkpt lat="42.1056610" lon="-8.8844030">
        <ele>78.6</ele>
        <time>2021-05-19T12:57:58Z</time>
      </trkpt>
      <trkpt lat="42.1056650" lon="-8.8843840">
        <ele>78.6</ele>
        <time>2021-05-19T12:57:59Z</time>
      </trkpt>
      <trkpt lat="42.1056700" lon="-8.8843660">
        <ele>78.5</ele>
        <time>2021-05-19T12:58:00Z</time>
      </trkpt>
      <trkpt lat="42.1056780" lon="-8.8843490">
        <ele>78.5</ele>
        <time>2021-05-19T12:58:01Z</time>
      </trkpt>
      <trkpt lat="42.1056810" lon="-8.8843310">
        <ele>78.5</ele>
        <time>2021-05-19T12:58:02Z</time>
      </trkpt>
      <trkpt lat="42.1056830" lon="-8.8843110">
        <ele>78.4</ele>
        <time>2021-05-19T12:58:03Z</time>
      </trkpt>
      <trkpt lat="42.1056870" lon="-8.8842940">
        <ele>78.4</ele>
        <time>2021-05-19T12:58:04Z</time>
      </trkpt>
      <trkpt lat="42.1056900" lon="-8.8842760">
        <ele>78.4</ele>
        <time>2021-05-19T12:58:05Z</time>
      </trkpt>
      <trkpt lat="42.1056940" lon="-8.8842590">
        <ele>78.3</ele>
        <time>2021-05-19T12:58:06Z</time>
      </trkpt>
      <trkpt lat="42.1056970" lon="-8.8842400">
        <ele>78.3</ele>
        <time>2021-05-19T12:58:07Z</time>
      </trkpt>
      <trkpt lat="42.1057030" lon="-8.8842210">
        <ele>78.3</ele>
        <time>2021-05-19T12:58:08Z</time>
      </trkpt>
      <trkpt lat="42.1057100" lon="-8.8841930">
        <ele>78.2</ele>
        <time>2021-05-19T12:58:09Z</time>
      </trkpt>
      <trkpt lat="42.1057120" lon="-8.8841820">
        <ele>78.2</ele>
        <time>2021-05-19T12:58:10Z</time>
      </trkpt>
      <trkpt lat="42.1057150" lon="-8.8841700">
        <ele>78.2</ele>
        <time>2021-05-19T12:58:11Z</time>
      </trkpt>
      <trkpt lat="42.1057220" lon="-8.8841410">
        <ele>78.1</ele>
        <time>2021-05-19T12:58:12Z</time>
      </trkpt>
      <trkpt lat="42.1057250" lon="-8.8841310">
        <ele>78.1</ele>
        <time>2021-05-19T12:58:13Z</time>
      </trkpt>
      <trkpt lat="42.1057270" lon="-8.8841200">
        <ele>78.1</ele>
        <time>2021-05-19T12:58:14Z</time>
      </trkpt>
      <trkpt lat="42.1057280" lon="-8.8841010">
        <ele>78.1</ele>
        <time>2021-05-19T12:58:15Z</time>
      </trkpt>
      <trkpt lat="42.1057370" lon="-8.8840840">
        <ele>78.0</ele>
        <time>2021-05-19T12:58:16Z</time>
      </trkpt>
      <trkpt lat="42.1057430" lon="-8.8840650">
        <ele>78.0</ele>
        <time>2021-05-19T12:58:17Z</time>
      </trkpt>
      <trkpt lat="42.1057480" lon="-8.8840480">
        <ele>78.0</ele>
        <time>2021-05-19T12:58:18Z</time>
      </trkpt>
      <trkpt lat="42.1057490" lon="-8.8840280">
        <ele>77.9</ele>
        <time>2021-05-19T12:58:19Z</time>
      </trkpt>
      <trkpt lat="42.1057490" lon="-8.8840070">
        <ele>77.9</ele>
        <time>2021-05-19T12:58:20Z</time>
      </trkpt>
      <trkpt lat="42.1057470" lon="-8.8839880">
        <ele>77.9</ele>
        <time>2021-05-19T12:58:21Z</time>
      </trkpt>
      <trkpt lat="42.1057500" lon="-8.8839700">
        <ele>77.8</ele>
        <time>2021-05-19T12:58:22Z</time>
      </trkpt>
      <trkpt lat="42.1057520" lon="-8.8839400">
        <ele>77.8</ele>
        <time>2021-05-19T12:58:23Z</time>
      </trkpt>
      <trkpt lat="42.1057550" lon="-8.8839280">
        <ele>77.8</ele>
        <time>2021-05-19T12:58:24Z</time>
      </trkpt>
      <trkpt lat="42.1057590" lon="-8.8839150">
        <ele>77.7</ele>
        <time>2021-05-19T12:58:25Z</time>
      </trkpt>
      <trkpt lat="42.1057640" lon="-8.8838970">
        <ele>77.7</ele>
        <time>2021-05-19T12:58:26Z</time>
      </trkpt>
      <trkpt lat="42.1057720" lon="-8.8838810">
        <ele>77.7</ele>
        <time>2021-05-19T12:58:27Z</time>
      </trkpt>
      <trkpt lat="42.1057760" lon="-8.8838530">
        <ele>77.6</ele>
        <time>2021-05-19T12:58:28Z</time>
      </trkpt>
      <trkpt lat="42.1057790" lon="-8.8838410">
        <ele>77.6</ele>
        <time>2021-05-19T12:58:29Z</time>
      </trkpt>
      <trkpt lat="42.1057810" lon="-8.8838300">
        <ele>77.6</ele>
        <time>2021-05-19T12:58:30Z</time>
      </trkpt>
      <trkpt lat="42.1057840" lon="-8.8838160">
        <ele>77.6</ele>
        <time>2021-05-19T12:58:31Z</time>
      </trkpt>
      <trkpt lat="42.1057880" lon="-8.8837960">
        <ele>77.5</ele>
        <time>2021-05-19T12:58:32Z</time>
      </trkpt>
      <trkpt lat="42.1057920" lon="-8.8837830">
        <ele>77.5</ele>
        <time>2021-05-19T12:58:33Z</time>
      </trkpt>
      <trkpt lat="42.1057960" lon="-8.8837530">
        <ele>77.5</ele>
        <time>2021-05-19T12:58:34Z</time>
      </trkpt>
      <trkpt lat="42.1057990" lon="-8.8837420">
        <ele>77.4</ele>
        <time>2021-05-19T12:58:35Z</time>
      </trkpt>
      <trkpt lat="42.1058010" lon="-8.8837310">
        <ele>77.4</ele>
        <time>2021-05-19T12:58:36Z</time>
      </trkpt>
      <trkpt lat="42.1058100" lon="-8.8837160">
        <ele>77.4</ele>
        <time>2021-05-19T12:58:37Z</time>
      </trkpt>
      <trkpt lat="42.1058090" lon="-8.8837000">
        <ele>77.4</ele>
        <time>2021-05-19T12:58:38Z</time>
      </trkpt>
      <trkpt lat="42.1058130" lon="-8.8836880">
        <ele>77.4</ele>
        <time>2021-05-19T12:58:39Z</time>
      </trkpt>
      <trkpt lat="42.1058170" lon="-8.8836850">
        <ele>77.4</ele>
        <time>2021-05-19T12:58:40Z</time>
      </trkpt>
      <trkpt lat="42.1058190" lon="-8.8836730">
        <ele>77.3</ele>
        <time>2021-05-19T12:58:41Z</time>
      </trkpt>
      <trkpt lat="42.1058250" lon="-8.8836710">
        <ele>77.3</ele>
        <time>2021-05-19T12:58:42Z</time>
      </trkpt>
      <trkpt lat="42.1058260" lon="-8.8836650">
        <ele>77.3</ele>
        <time>2021-05-19T12:58:43Z</time>
      </trkpt>
      <trkpt lat="42.1058260" lon="-8.8836590">
        <ele>77.3</ele>
        <time>2021-05-19T12:58:44Z</time>
      </trkpt>
      <trkpt lat="42.1058290" lon="-8.8836560">
        <ele>77.3</ele>
        <time>2021-05-19T12:58:45Z</time>
      </trkpt>
      <trkpt lat="42.1058290" lon="-8.8836640">
        <ele>77.3</ele>
        <time>2021-05-19T12:58:46Z</time>
      </trkpt>
      <trkpt lat="42.1058290" lon="-8.8836630">
        <ele>77.3</ele>
        <time>2021-05-19T12:58:47Z</time>
      </trkpt>
      <trkpt lat="42.1058290" lon="-8.8836630">
        <ele>77.3</ele>
        <time>2021-05-19T12:58:48Z</time>
      </trkpt>
      <trkpt lat="42.1058290" lon="-8.8836630">
        <ele>77.3</ele>
        <time>2021-05-19T12:58:49Z</time>
      </trkpt>
      <trkpt lat="42.1058290" lon="-8.8836630">
        <ele>77.3</ele>
        <time>2021-05-19T12:58:50Z</time>
      </trkpt>
      <trkpt lat="42.1058280" lon="-8.8836800">
        <ele>77.3</ele>
        <time>2021-05-19T12:58:51Z</time>
      </trkpt>
      <trkpt lat="42.1058280" lon="-8.8836820">
        <ele>77.3</ele>
        <time>2021-05-19T12:58:52Z</time>
      </trkpt>
      <trkpt lat="42.1058300" lon="-8.8836810">
        <ele>77.3</ele>
        <time>2021-05-19T12:58:53Z</time>
      </trkpt>
      <trkpt lat="42.1058300" lon="-8.8836850">
        <ele>77.3</ele>
        <time>2021-05-19T12:58:54Z</time>
      </trkpt>
      <trkpt lat="42.1058300" lon="-8.8836850">
        <ele>77.3</ele>
        <time>2021-05-19T12:58:55Z</time>
      </trkpt>
      <trkpt lat="42.1058290" lon="-8.8836910">
        <ele>77.2</ele>
        <time>2021-05-19T12:58:56Z</time>
      </trkpt>
      <trkpt lat="42.1058310" lon="-8.8836950">
        <ele>77.2</ele>
        <time>2021-05-19T12:58:57Z</time>
      </trkpt>
      <trkpt lat="42.1058310" lon="-8.8836960">
        <ele>77.2</ele>
        <time>2021-05-19T12:58:58Z</time>
      </trkpt>
      <trkpt lat="42.1058310" lon="-8.8836950">
        <ele>77.2</ele>
        <time>2021-05-19T12:58:59Z</time>
      </trkpt>
      <trkpt lat="42.1058310" lon="-8.8836960">
        <ele>77.2</ele>
        <time>2021-05-19T12:59:00Z</time>
      </trkpt>
      <trkpt lat="42.1058300" lon="-8.8836900">
        <ele>77.2</ele>
        <time>2021-05-19T12:59:01Z</time>
      </trkpt>
      <trkpt lat="42.1058270" lon="-8.8836800">
        <ele>77.2</ele>
        <time>2021-05-19T12:59:02Z</time>
      </trkpt>
      <trkpt lat="42.1058260" lon="-8.8836660">
        <ele>77.2</ele>
        <time>2021-05-19T12:59:03Z</time>
      </trkpt>
      <trkpt lat="42.1058330" lon="-8.8836610">
        <ele>77.2</ele>
        <time>2021-05-19T12:59:04Z</time>
      </trkpt>
      <trkpt lat="42.1058390" lon="-8.8836520">
        <ele>77.2</ele>
        <time>2021-05-19T12:59:05Z</time>
      </trkpt>
      <trkpt lat="42.1058460" lon="-8.8836410">
        <ele>77.1</ele>
        <time>2021-05-19T12:59:06Z</time>
      </trkpt>
      <trkpt lat="42.1058520" lon="-8.8836290">
        <ele>77.1</ele>
        <time>2021-05-19T12:59:07Z</time>
      </trkpt>
      <trkpt lat="42.1058600" lon="-8.8836180">
        <ele>77.1</ele>
        <time>2021-05-19T12:59:08Z</time>
      </trkpt>
      <trkpt lat="42.1058670" lon="-8.8836100">
        <ele>77.1</ele>
        <time>2021-05-19T12:59:09Z</time>
      </trkpt>
      <trkpt lat="42.1058730" lon="-8.8836000">
        <ele>77.1</ele>
        <time>2021-05-19T12:59:10Z</time>
      </trkpt>
      <trkpt lat="42.1058830" lon="-8.8835830">
        <ele>77.0</ele>
        <time>2021-05-19T12:59:11Z</time>
      </trkpt>
      <trkpt lat="42.1058960" lon="-8.8835690">
        <ele>77.0</ele>
        <time>2021-05-19T12:59:12Z</time>
      </trkpt>
      <trkpt lat="42.1059050" lon="-8.8835550">
        <ele>77.0</ele>
        <time>2021-05-19T12:59:13Z</time>
      </trkpt>
      <trkpt lat="42.1059170" lon="-8.8835550">
        <ele>76.9</ele>
        <time>2021-05-19T12:59:14Z</time>
      </trkpt>
      <trkpt lat="42.1059200" lon="-8.8835540">
        <ele>76.9</ele>
        <time>2021-05-19T12:59:15Z</time>
      </trkpt>
      <trkpt lat="42.1059320" lon="-8.8835410">
        <ele>76.9</ele>
        <time>2021-05-19T12:59:16Z</time>
      </trkpt>
      <trkpt lat="42.1059380" lon="-8.8835280">
        <ele>76.9</ele>
        <time>2021-05-19T12:59:17Z</time>
      </trkpt>
      <trkpt lat="42.1059500" lon="-8.8835220">
        <ele>76.8</ele>
        <time>2021-05-19T12:59:18Z</time>
      </trkpt>
      <trkpt lat="42.1059600" lon="-8.8835100">
        <ele>76.8</ele>
        <time>2021-05-19T12:59:19Z</time>
      </trkpt>
      <trkpt lat="42.1059660" lon="-8.8834980">
        <ele>76.8</ele>
        <time>2021-05-19T12:59:20Z</time>
      </trkpt>
      <trkpt lat="42.1059780" lon="-8.8834900">
        <ele>76.7</ele>
        <time>2021-05-19T12:59:21Z</time>
      </trkpt>
      <trkpt lat="42.1059870" lon="-8.8834800">
        <ele>76.7</ele>
        <time>2021-05-19T12:59:22Z</time>
      </trkpt>
      <trkpt lat="42.1060070" lon="-8.8834600">
        <ele>76.6</ele>
        <time>2021-05-19T12:59:23Z</time>
      </trkpt>
      <trkpt lat="42.1060130" lon="-8.8834550">
        <ele>76.6</ele>
        <time>2021-05-19T12:59:24Z</time>
      </trkpt>
      <trkpt lat="42.1060200" lon="-8.8834500">
        <ele>76.6</ele>
        <time>2021-05-19T12:59:25Z</time>
      </trkpt>
      <trkpt lat="42.1060230" lon="-8.8834390">
        <ele>76.6</ele>
        <time>2021-05-19T12:59:26Z</time>
      </trkpt>
      <trkpt lat="42.1060410" lon="-8.8834270">
        <ele>76.5</ele>
        <time>2021-05-19T12:59:27Z</time>
      </trkpt>
      <trkpt lat="42.1060480" lon="-8.8834210">
        <ele>76.5</ele>
        <time>2021-05-19T12:59:28Z</time>
      </trkpt>
      <trkpt lat="42.1060640" lon="-8.8834080">
        <ele>76.4</ele>
        <time>2021-05-19T12:59:29Z</time>
      </trkpt>
      <trkpt lat="42.1060690" lon="-8.8834020">
        <ele>76.4</ele>
        <time>2021-05-19T12:59:30Z</time>
      </trkpt>
      <trkpt lat="42.1060780" lon="-8.8833930">
        <ele>76.4</ele>
        <time>2021-05-19T12:59:31Z</time>
      </trkpt>
      <trkpt lat="42.1060840" lon="-8.8833830">
        <ele>76.4</ele>
        <time>2021-05-19T12:59:32Z</time>
      </trkpt>
      <trkpt lat="42.1060960" lon="-8.8833750">
        <ele>76.4</ele>
        <time>2021-05-19T12:59:33Z</time>
      </trkpt>
      <trkpt lat="42.1061090" lon="-8.8833620">
        <ele>76.3</ele>
        <time>2021-05-19T12:59:34Z</time>
      </trkpt>
      <trkpt lat="42.1061180" lon="-8.8833530">
        <ele>76.3</ele>
        <time>2021-05-19T12:59:35Z</time>
      </trkpt>
      <trkpt lat="42.1061330" lon="-8.8833430">
        <ele>76.2</ele>
        <time>2021-05-19T12:59:36Z</time>
      </trkpt>
      <trkpt lat="42.1061420" lon="-8.8833280">
        <ele>76.2</ele>
        <time>2021-05-19T12:59:37Z</time>
      </trkpt>
      <trkpt lat="42.1061510" lon="-8.8833150">
        <ele>76.2</ele>
        <time>2021-05-19T12:59:38Z</time>
      </trkpt>
      <trkpt lat="42.1061620" lon="-8.8833120">
        <ele>76.2</ele>
        <time>2021-05-19T12:59:39Z</time>
      </trkpt>
      <trkpt lat="42.1061680" lon="-8.8833040">
        <ele>76.1</ele>
        <time>2021-05-19T12:59:40Z</time>
      </trkpt>
      <trkpt lat="42.1061790" lon="-8.8832880">
        <ele>76.1</ele>
        <time>2021-05-19T12:59:41Z</time>
      </trkpt>
      <trkpt lat="42.1061890" lon="-8.8832800">
        <ele>76.1</ele>
        <time>2021-05-19T12:59:42Z</time>
      </trkpt>
      <trkpt lat="42.1062020" lon="-8.8832760">
        <ele>76.0</ele>
        <time>2021-05-19T12:59:43Z</time>
      </trkpt>
      <trkpt lat="42.1062150" lon="-8.8832680">
        <ele>76.0</ele>
        <time>2021-05-19T12:59:44Z</time>
      </trkpt>
      <trkpt lat="42.1062270" lon="-8.8832580">
        <ele>76.0</ele>
        <time>2021-05-19T12:59:45Z</time>
      </trkpt>
      <trkpt lat="42.1062280" lon="-8.8832440">
        <ele>75.9</ele>
        <time>2021-05-19T12:59:46Z</time>
      </trkpt>
      <trkpt lat="42.1062380" lon="-8.8832330">
        <ele>75.9</ele>
        <time>2021-05-19T12:59:47Z</time>
      </trkpt>
      <trkpt lat="42.1062560" lon="-8.8832050">
        <ele>75.8</ele>
        <time>2021-05-19T12:59:48Z</time>
      </trkpt>
      <trkpt lat="42.1062630" lon="-8.8831950">
        <ele>75.8</ele>
        <time>2021-05-19T12:59:49Z</time>
      </trkpt>
      <trkpt lat="42.1062700" lon="-8.8831730">
        <ele>75.8</ele>
        <time>2021-05-19T12:59:50Z</time>
      </trkpt>
      <trkpt lat="42.1062750" lon="-8.8831620">
        <ele>75.7</ele>
        <time>2021-05-19T12:59:51Z</time>
      </trkpt>
      <trkpt lat="42.1062900" lon="-8.8831340">
        <ele>75.6</ele>
        <time>2021-05-19T12:59:52Z</time>
      </trkpt>
      <trkpt lat="42.1062950" lon="-8.8831290">
        <ele>75.6</ele>
        <time>2021-05-19T12:59:53Z</time>
      </trkpt>
      <trkpt lat="42.1062990" lon="-8.8831230">
        <ele>75.6</ele>
        <time>2021-05-19T12:59:54Z</time>
      </trkpt>
      <trkpt lat="42.1063150" lon="-8.8831010">
        <ele>75.5</ele>
        <time>2021-05-19T12:59:55Z</time>
      </trkpt>
      <trkpt lat="42.1063210" lon="-8.8830920">
        <ele>75.5</ele>
        <time>2021-05-19T12:59:56Z</time>
      </trkpt>
      <trkpt lat="42.1063280" lon="-8.8830820">
        <ele>75.4</ele>
        <time>2021-05-19T12:59:57Z</time>
      </trkpt>
      <trkpt lat="42.1063360" lon="-8.8830660">
        <ele>75.4</ele>
        <time>2021-05-19T12:59:58Z</time>
      </trkpt>
      <trkpt lat="42.1063480" lon="-8.8830490">
        <ele>75.3</ele>
        <time>2021-05-19T12:59:59Z</time>
      </trkpt>
      <trkpt lat="42.1063540" lon="-8.8830340">
        <ele>75.3</ele>
        <time>2021-05-19T13:00:00Z</time>
      </trkpt>
      <trkpt lat="42.1063560" lon="-8.8830160">
        <ele>75.2</ele>
        <time>2021-05-19T13:00:01Z</time>
      </trkpt>
      <trkpt lat="42.1063610" lon="-8.8830060">
        <ele>75.2</ele>
        <time>2021-05-19T13:00:02Z</time>
      </trkpt>
      <trkpt lat="42.1063710" lon="-8.8829870">
        <ele>75.1</ele>
        <time>2021-05-19T13:00:03Z</time>
      </trkpt>
      <trkpt lat="42.1063770" lon="-8.8829760">
        <ele>75.1</ele>
        <time>2021-05-19T13:00:04Z</time>
      </trkpt>
      <trkpt lat="42.1063910" lon="-8.8829570">
        <ele>75.0</ele>
        <time>2021-05-19T13:00:05Z</time>
      </trkpt>
      <trkpt lat="42.1064000" lon="-8.8829470">
        <ele>75.0</ele>
        <time>2021-05-19T13:00:06Z</time>
      </trkpt>
      <trkpt lat="42.1064060" lon="-8.8829340">
        <ele>75.0</ele>
        <time>2021-05-19T13:00:07Z</time>
      </trkpt>
      <trkpt lat="42.1064190" lon="-8.8829180">
        <ele>74.9</ele>
        <time>2021-05-19T13:00:08Z</time>
      </trkpt>
      <trkpt lat="42.1064240" lon="-8.8829090">
        <ele>74.9</ele>
        <time>2021-05-19T13:00:09Z</time>
      </trkpt>
      <trkpt lat="42.1064270" lon="-8.8828970">
        <ele>74.8</ele>
        <time>2021-05-19T13:00:10Z</time>
      </trkpt>
      <trkpt lat="42.1064300" lon="-8.8828880">
        <ele>74.8</ele>
        <time>2021-05-19T13:00:11Z</time>
      </trkpt>
      <trkpt lat="42.1064370" lon="-8.8828870">
        <ele>74.8</ele>
        <time>2021-05-19T13:00:12Z</time>
      </trkpt>
      <trkpt lat="42.1064450" lon="-8.8828700">
        <ele>74.7</ele>
        <time>2021-05-19T13:00:13Z</time>
      </trkpt>
      <trkpt lat="42.1064580" lon="-8.8828540">
        <ele>74.7</ele>
        <time>2021-05-19T13:00:14Z</time>
      </trkpt>
      <trkpt lat="42.1064690" lon="-8.8828350">
        <ele>74.6</ele>
        <time>2021-05-19T13:00:15Z</time>
      </trkpt>
      <trkpt lat="42.1064770" lon="-8.8828260">
        <ele>74.5</ele>
        <time>2021-05-19T13:00:16Z</time>
      </trkpt>
      <trkpt lat="42.1064840" lon="-8.8828170">
        <ele>74.5</ele>
        <time>2021-05-19T13:00:17Z</time>
      </trkpt>
      <trkpt lat="42.1064940" lon="-8.8828040">
        <ele>74.5</ele>
        <time>2021-05-19T13:00:18Z</time>
      </trkpt>
      <trkpt lat="42.1065000" lon="-8.8827990">
        <ele>74.4</ele>
        <time>2021-05-19T13:00:19Z</time>
      </trkpt>
      <trkpt lat="42.1065070" lon="-8.8827840">
        <ele>74.4</ele>
        <time>2021-05-19T13:00:20Z</time>
      </trkpt>
      <trkpt lat="42.1065150" lon="-8.8827690">
        <ele>74.3</ele>
        <time>2021-05-19T13:00:21Z</time>
      </trkpt>
      <trkpt lat="42.1065210" lon="-8.8827620">
        <ele>74.3</ele>
        <time>2021-05-19T13:00:22Z</time>
      </trkpt>
      <trkpt lat="42.1065270" lon="-8.8827540">
        <ele>74.2</ele>
        <time>2021-05-19T13:00:23Z</time>
      </trkpt>
      <trkpt lat="42.1065330" lon="-8.8827470">
        <ele>74.2</ele>
        <time>2021-05-19T13:00:24Z</time>
      </trkpt>
      <trkpt lat="42.1065420" lon="-8.8827330">
        <ele>74.1</ele>
        <time>2021-05-19T13:00:25Z</time>
      </trkpt>
      <trkpt lat="42.1065530" lon="-8.8827170">
        <ele>74.0</ele>
        <time>2021-05-19T13:00:26Z</time>
      </trkpt>
      <trkpt lat="42.1065650" lon="-8.8826930">
        <ele>73.9</ele>
        <time>2021-05-19T13:00:27Z</time>
      </trkpt>
      <trkpt lat="42.1065690" lon="-8.8826840">
        <ele>73.9</ele>
        <time>2021-05-19T13:00:28Z</time>
      </trkpt>
      <trkpt lat="42.1065740" lon="-8.8826760">
        <ele>73.8</ele>
        <time>2021-05-19T13:00:29Z</time>
      </trkpt>
      <trkpt lat="42.1065820" lon="-8.8826660">
        <ele>73.8</ele>
        <time>2021-05-19T13:00:30Z</time>
      </trkpt>
      <trkpt lat="42.1065910" lon="-8.8826520">
        <ele>73.7</ele>
        <time>2021-05-19T13:00:31Z</time>
      </trkpt>
      <trkpt lat="42.1066000" lon="-8.8826430">
        <ele>73.6</ele>
        <time>2021-05-19T13:00:32Z</time>
      </trkpt>
      <trkpt lat="42.1066120" lon="-8.8826270">
        <ele>73.5</ele>
        <time>2021-05-19T13:00:33Z</time>
      </trkpt>
      <trkpt lat="42.1066200" lon="-8.8826150">
        <ele>73.4</ele>
        <time>2021-05-19T13:00:34Z</time>
      </trkpt>
      <trkpt lat="42.1066280" lon="-8.8826020">
        <ele>73.4</ele>
        <time>2021-05-19T13:00:35Z</time>
      </trkpt>
      <trkpt lat="42.1066400" lon="-8.8825890">
        <ele>73.3</ele>
        <time>2021-05-19T13:00:36Z</time>
      </trkpt>
      <trkpt lat="42.1066490" lon="-8.8825860">
        <ele>73.2</ele>
        <time>2021-05-19T13:00:37Z</time>
      </trkpt>
      <trkpt lat="42.1066560" lon="-8.8825750">
        <ele>73.1</ele>
        <time>2021-05-19T13:00:38Z</time>
      </trkpt>
      <trkpt lat="42.1066640" lon="-8.8825630">
        <ele>73.1</ele>
        <time>2021-05-19T13:00:39Z</time>
      </trkpt>
      <trkpt lat="42.1066750" lon="-8.8825460">
        <ele>72.9</ele>
        <time>2021-05-19T13:00:40Z</time>
      </trkpt>
      <trkpt lat="42.1066890" lon="-8.8825300">
        <ele>72.8</ele>
        <time>2021-05-19T13:00:41Z</time>
      </trkpt>
      <trkpt lat="42.1067020" lon="-8.8825110">
        <ele>72.7</ele>
        <time>2021-05-19T13:00:42Z</time>
      </trkpt>
      <trkpt lat="42.1067060" lon="-8.8825010">
        <ele>72.6</ele>
        <time>2021-05-19T13:00:43Z</time>
      </trkpt>
      <trkpt lat="42.1067110" lon="-8.8824900">
        <ele>72.6</ele>
        <time>2021-05-19T13:00:44Z</time>
      </trkpt>
      <trkpt lat="42.1067190" lon="-8.8824760">
        <ele>72.5</ele>
        <time>2021-05-19T13:00:45Z</time>
      </trkpt>
      <trkpt lat="42.1067260" lon="-8.8824600">
        <ele>72.4</ele>
        <time>2021-05-19T13:00:46Z</time>
      </trkpt>
      <trkpt lat="42.1067400" lon="-8.8824410">
        <ele>72.2</ele>
        <time>2021-05-19T13:00:47Z</time>
      </trkpt>
      <trkpt lat="42.1067460" lon="-8.8824220">
        <ele>72.1</ele>
        <time>2021-05-19T13:00:48Z</time>
      </trkpt>
      <trkpt lat="42.1067580" lon="-8.8823940">
        <ele>71.9</ele>
        <time>2021-05-19T13:00:49Z</time>
      </trkpt>
      <trkpt lat="42.1067610" lon="-8.8823860">
        <ele>71.9</ele>
        <time>2021-05-19T13:00:50Z</time>
      </trkpt>
      <trkpt lat="42.1067630" lon="-8.8823770">
        <ele>71.8</ele>
        <time>2021-05-19T13:00:51Z</time>
      </trkpt>
      <trkpt lat="42.1067690" lon="-8.8823550">
        <ele>71.7</ele>
        <time>2021-05-19T13:00:52Z</time>
      </trkpt>
      <trkpt lat="42.1067770" lon="-8.8823350">
        <ele>71.5</ele>
        <time>2021-05-19T13:00:53Z</time>
      </trkpt>
      <trkpt lat="42.1067810" lon="-8.8823070">
        <ele>71.4</ele>
        <time>2021-05-19T13:00:54Z</time>
      </trkpt>
      <trkpt lat="42.1067840" lon="-8.8822940">
        <ele>71.3</ele>
        <time>2021-05-19T13:00:55Z</time>
      </trkpt>
      <trkpt lat="42.1067880" lon="-8.8822810">
        <ele>71.2</ele>
        <time>2021-05-19T13:00:56Z</time>
      </trkpt>
      <trkpt lat="42.1067950" lon="-8.8822510">
        <ele>71.0</ele>
        <time>2021-05-19T13:00:57Z</time>
      </trkpt>
      <trkpt lat="42.1067950" lon="-8.8822410">
        <ele>70.9</ele>
        <time>2021-05-19T13:00:58Z</time>
      </trkpt>
      <trkpt lat="42.1067960" lon="-8.8822300">
        <ele>70.9</ele>
        <time>2021-05-19T13:00:59Z</time>
      </trkpt>
      <trkpt lat="42.1067990" lon="-8.8822080">
        <ele>70.7</ele>
        <time>2021-05-19T13:01:00Z</time>
      </trkpt>
      <trkpt lat="42.1067970" lon="-8.8821830">
        <ele>70.6</ele>
        <time>2021-05-19T13:01:01Z</time>
      </trkpt>
      <trkpt lat="42.1067950" lon="-8.8821630">
        <ele>70.4</ele>
        <time>2021-05-19T13:01:02Z</time>
      </trkpt>
      <trkpt lat="42.1067930" lon="-8.8821380">
        <ele>70.3</ele>
        <time>2021-05-19T13:01:03Z</time>
      </trkpt>
      <trkpt lat="42.1067930" lon="-8.8821180">
        <ele>70.2</ele>
        <time>2021-05-19T13:01:04Z</time>
      </trkpt>
      <trkpt lat="42.1067930" lon="-8.8820950">
        <ele>70.0</ele>
        <time>2021-05-19T13:01:05Z</time>
      </trkpt>
      <trkpt lat="42.1067930" lon="-8.8820720">
        <ele>69.9</ele>
        <time>2021-05-19T13:01:06Z</time>
      </trkpt>
      <trkpt lat="42.1067920" lon="-8.8820480">
        <ele>69.8</ele>
        <time>2021-05-19T13:01:07Z</time>
      </trkpt>
      <trkpt lat="42.1067910" lon="-8.8820240">
        <ele>69.6</ele>
        <time>2021-05-19T13:01:08Z</time>
      </trkpt>
      <trkpt lat="42.1067860" lon="-8.8820020">
        <ele>69.5</ele>
        <time>2021-05-19T13:01:09Z</time>
      </trkpt>
      <trkpt lat="42.1067830" lon="-8.8819820">
        <ele>69.4</ele>
        <time>2021-05-19T13:01:10Z</time>
      </trkpt>
      <trkpt lat="42.1067830" lon="-8.8819620">
        <ele>69.3</ele>
        <time>2021-05-19T13:01:11Z</time>
      </trkpt>
      <trkpt lat="42.1067800" lon="-8.8819410">
        <ele>69.1</ele>
        <time>2021-05-19T13:01:12Z</time>
      </trkpt>
      <trkpt lat="42.1067750" lon="-8.8819200">
        <ele>69.0</ele>
        <time>2021-05-19T13:01:13Z</time>
      </trkpt>
      <trkpt lat="42.1067770" lon="-8.8818980">
        <ele>68.9</ele>
        <time>2021-05-19T13:01:14Z</time>
      </trkpt>
      <trkpt lat="42.1067760" lon="-8.8818760">
        <ele>68.8</ele>
        <time>2021-05-19T13:01:15Z</time>
      </trkpt>
      <trkpt lat="42.1067740" lon="-8.8818550">
        <ele>68.7</ele>
        <time>2021-05-19T13:01:16Z</time>
      </trkpt>
      <trkpt lat="42.1067720" lon="-8.8818320">
        <ele>68.6</ele>
        <time>2021-05-19T13:01:17Z</time>
      </trkpt>
      <trkpt lat="42.1067730" lon="-8.8818130">
        <ele>68.5</ele>
        <time>2021-05-19T13:01:18Z</time>
      </trkpt>
      <trkpt lat="42.1067710" lon="-8.8817950">
        <ele>68.4</ele>
        <time>2021-05-19T13:01:19Z</time>
      </trkpt>
      <trkpt lat="42.1067690" lon="-8.8817740">
        <ele>68.3</ele>
        <time>2021-05-19T13:01:20Z</time>
      </trkpt>
      <trkpt lat="42.1067720" lon="-8.8817540">
        <ele>68.2</ele>
        <time>2021-05-19T13:01:21Z</time>
      </trkpt>
      <trkpt lat="42.1067700" lon="-8.8817340">
        <ele>68.1</ele>
        <time>2021-05-19T13:01:22Z</time>
      </trkpt>
      <trkpt lat="42.1067720" lon="-8.8817130">
        <ele>68.0</ele>
        <time>2021-05-19T13:01:23Z</time>
      </trkpt>
      <trkpt lat="42.1067680" lon="-8.8816940">
        <ele>67.9</ele>
        <time>2021-05-19T13:01:24Z</time>
      </trkpt>
      <trkpt lat="42.1067700" lon="-8.8816720">
        <ele>67.8</ele>
        <time>2021-05-19T13:01:25Z</time>
      </trkpt>
      <trkpt lat="42.1067640" lon="-8.8816440">
        <ele>67.7</ele>
        <time>2021-05-19T13:01:26Z</time>
      </trkpt>
      <trkpt lat="42.1067630" lon="-8.8816320">
        <ele>67.6</ele>
        <time>2021-05-19T13:01:27Z</time>
      </trkpt>
      <trkpt lat="42.1067630" lon="-8.8816210">
        <ele>67.6</ele>
        <time>2021-05-19T13:01:28Z</time>
      </trkpt>
      <trkpt lat="42.1067680" lon="-8.8816020">
        <ele>67.5</ele>
        <time>2021-05-19T13:01:29Z</time>
      </trkpt>
      <trkpt lat="42.1067680" lon="-8.8815850">
        <ele>67.5</ele>
        <time>2021-05-19T13:01:30Z</time>
      </trkpt>
      <trkpt lat="42.1067820" lon="-8.8815690">
        <ele>67.4</ele>
        <time>2021-05-19T13:01:31Z</time>
      </trkpt>
      <trkpt lat="42.1067830" lon="-8.8815520">
        <ele>67.3</ele>
        <time>2021-05-19T13:01:32Z</time>
      </trkpt>
      <trkpt lat="42.1067940" lon="-8.8815410">
        <ele>67.3</ele>
        <time>2021-05-19T13:01:33Z</time>
      </trkpt>
      <trkpt lat="42.1067960" lon="-8.8815200">
        <ele>67.2</ele>
        <time>2021-05-19T13:01:34Z</time>
      </trkpt>
      <trkpt lat="42.1068040" lon="-8.8815040">
        <ele>67.2</ele>
        <time>2021-05-19T13:01:35Z</time>
      </trkpt>
      <trkpt lat="42.1068050" lon="-8.8814840">
        <ele>67.1</ele>
        <time>2021-05-19T13:01:36Z</time>
      </trkpt>
      <trkpt lat="42.1068120" lon="-8.8814570">
        <ele>67.0</ele>
        <time>2021-05-19T13:01:37Z</time>
      </trkpt>
      <trkpt lat="42.1068180" lon="-8.8814470">
        <ele>67.0</ele>
        <time>2021-05-19T13:01:38Z</time>
      </trkpt>
      <trkpt lat="42.1068230" lon="-8.8814370">
        <ele>67.0</ele>
        <time>2021-05-19T13:01:39Z</time>
      </trkpt>
      <trkpt lat="42.1068250" lon="-8.8814220">
        <ele>66.9</ele>
        <time>2021-05-19T13:01:40Z</time>
      </trkpt>
      <trkpt lat="42.1068310" lon="-8.8814100">
        <ele>66.9</ele>
        <time>2021-05-19T13:01:41Z</time>
      </trkpt>
      <trkpt lat="42.1068340" lon="-8.8813950">
        <ele>66.8</ele>
        <time>2021-05-19T13:01:42Z</time>
      </trkpt>
      <trkpt lat="42.1068350" lon="-8.8813840">
        <ele>66.8</ele>
        <time>2021-05-19T13:01:43Z</time>
      </trkpt>
      <trkpt lat="42.1068360" lon="-8.8813960">
        <ele>66.8</ele>
        <time>2021-05-19T13:01:44Z</time>
      </trkpt>
      <trkpt lat="42.1068350" lon="-8.8813990">
        <ele>66.8</ele>
        <time>2021-05-19T13:01:45Z</time>
      </trkpt>
      <trkpt lat="42.1068350" lon="-8.8813980">
        <ele>66.8</ele>
        <time>2021-05-19T13:01:46Z</time>
      </trkpt>
      <trkpt lat="42.1068380" lon="-8.8813850">
        <ele>66.7</ele>
        <time>2021-05-19T13:01:47Z</time>
      </trkpt>
      <trkpt lat="42.1068490" lon="-8.8813630">
        <ele>66.7</ele>
        <time>2021-05-19T13:01:48Z</time>
      </trkpt>
      <trkpt lat="42.1068500" lon="-8.8813540">
        <ele>66.6</ele>
        <time>2021-05-19T13:01:49Z</time>
      </trkpt>
      <trkpt lat="42.1068590" lon="-8.8813360">
        <ele>66.6</ele>
        <time>2021-05-19T13:01:50Z</time>
      </trkpt>
      <trkpt lat="42.1068530" lon="-8.8813250">
        <ele>66.5</ele>
        <time>2021-05-19T13:01:51Z</time>
      </trkpt>
      <trkpt lat="42.1068640" lon="-8.8813010">
        <ele>66.5</ele>
        <time>2021-05-19T13:01:52Z</time>
      </trkpt>
      <trkpt lat="42.1068680" lon="-8.8812890">
        <ele>66.4</ele>
        <time>2021-05-19T13:01:53Z</time>
      </trkpt>
      <trkpt lat="42.1068720" lon="-8.8812780">
        <ele>66.4</ele>
        <time>2021-05-19T13:01:54Z</time>
      </trkpt>
      <trkpt lat="42.1068820" lon="-8.8812550">
        <ele>66.3</ele>
        <time>2021-05-19T13:01:55Z</time>
      </trkpt>
      <trkpt lat="42.1068860" lon="-8.8812450">
        <ele>66.3</ele>
        <time>2021-05-19T13:01:56Z</time>
      </trkpt>
      <trkpt lat="42.1068910" lon="-8.8812340">
        <ele>66.2</ele>
        <time>2021-05-19T13:01:57Z</time>
      </trkpt>
      <trkpt lat="42.1068950" lon="-8.8812230">
        <ele>66.2</ele>
        <time>2021-05-19T13:01:58Z</time>
      </trkpt>
      <trkpt lat="42.1068960" lon="-8.8812000">
        <ele>66.1</ele>
        <time>2021-05-19T13:01:59Z</time>
      </trkpt>
      <trkpt lat="42.1069030" lon="-8.8811920">
        <ele>66.1</ele>
        <time>2021-05-19T13:02:00Z</time>
      </trkpt>
      <trkpt lat="42.1069060" lon="-8.8811700">
        <ele>66.1</ele>
        <time>2021-05-19T13:02:01Z</time>
      </trkpt>
      <trkpt lat="42.1069070" lon="-8.8811500">
        <ele>66.0</ele>
        <time>2021-05-19T13:02:02Z</time>
      </trkpt>
      <trkpt lat="42.1069100" lon="-8.8811370">
        <ele>66.0</ele>
        <time>2021-05-19T13:02:03Z</time>
      </trkpt>
      <trkpt lat="42.1069170" lon="-8.8811190">
        <ele>65.9</ele>
        <time>2021-05-19T13:02:04Z</time>
      </trkpt>
      <trkpt lat="42.1069220" lon="-8.8811080">
        <ele>65.9</ele>
        <time>2021-05-19T13:02:05Z</time>
      </trkpt>
      <trkpt lat="42.1069300" lon="-8.8810960">
        <ele>65.9</ele>
        <time>2021-05-19T13:02:06Z</time>
      </trkpt>
      <trkpt lat="42.1069350" lon="-8.8810730">
        <ele>65.8</ele>
        <time>2021-05-19T13:02:07Z</time>
      </trkpt>
      <trkpt lat="42.1069360" lon="-8.8810550">
        <ele>65.8</ele>
        <time>2021-05-19T13:02:08Z</time>
      </trkpt>
      <trkpt lat="42.1069360" lon="-8.8810500">
        <ele>65.8</ele>
        <time>2021-05-19T13:02:09Z</time>
      </trkpt>
      <trkpt lat="42.1069390" lon="-8.8810270">
        <ele>65.7</ele>
        <time>2021-05-19T13:02:10Z</time>
      </trkpt>
      <trkpt lat="42.1069460" lon="-8.8810030">
        <ele>65.7</ele>
        <time>2021-05-19T13:02:11Z</time>
      </trkpt>
      <trkpt lat="42.1069490" lon="-8.8809900">
        <ele>65.6</ele>
        <time>2021-05-19T13:02:12Z</time>
      </trkpt>
      <trkpt lat="42.1069510" lon="-8.8809780">
        <ele>65.6</ele>
        <time>2021-05-19T13:02:13Z</time>
      </trkpt>
      <trkpt lat="42.1069600" lon="-8.8809530">
        <ele>65.6</ele>
        <time>2021-05-19T13:02:14Z</time>
      </trkpt>
      <trkpt lat="42.1069640" lon="-8.8809400">
        <ele>65.5</ele>
        <time>2021-05-19T13:02:15Z</time>
      </trkpt>
      <trkpt lat="42.1069680" lon="-8.8809260">
        <ele>65.5</ele>
        <time>2021-05-19T13:02:16Z</time>
      </trkpt>
      <trkpt lat="42.1069700" lon="-8.8808970">
        <ele>65.5</ele>
        <time>2021-05-19T13:02:17Z</time>
      </trkpt>
      <trkpt lat="42.1069710" lon="-8.8808860">
        <ele>65.5</ele>
        <time>2021-05-19T13:02:18Z</time>
      </trkpt>
      <trkpt lat="42.1069710" lon="-8.8808740">
        <ele>65.4</ele>
        <time>2021-05-19T13:02:19Z</time>
      </trkpt>
      <trkpt lat="42.1069740" lon="-8.8808470">
        <ele>65.4</ele>
        <time>2021-05-19T13:02:20Z</time>
      </trkpt>
      <trkpt lat="42.1069760" lon="-8.8808360">
        <ele>65.4</ele>
        <time>2021-05-19T13:02:21Z</time>
      </trkpt>
      <trkpt lat="42.1069780" lon="-8.8808250">
        <ele>65.4</ele>
        <time>2021-05-19T13:02:22Z</time>
      </trkpt>
      <trkpt lat="42.1069830" lon="-8.8808140">
        <ele>65.3</ele>
        <time>2021-05-19T13:02:23Z</time>
      </trkpt>
      <trkpt lat="42.1069890" lon="-8.8808000">
        <ele>65.3</ele>
        <time>2021-05-19T13:02:24Z</time>
      </trkpt>
      <trkpt lat="42.1069980" lon="-8.8807930">
        <ele>65.3</ele>
        <time>2021-05-19T13:02:25Z</time>
      </trkpt>
      <trkpt lat="42.1070010" lon="-8.8807720">
        <ele>65.3</ele>
        <time>2021-05-19T13:02:26Z</time>
      </trkpt>
      <trkpt lat="42.1070070" lon="-8.8807630">
        <ele>65.3</ele>
        <time>2021-05-19T13:02:27Z</time>
      </trkpt>
      <trkpt lat="42.1070100" lon="-8.8807510">
        <ele>65.2</ele>
        <time>2021-05-19T13:02:28Z</time>
      </trkpt>
      <trkpt lat="42.1070110" lon="-8.8807350">
        <ele>65.2</ele>
        <time>2021-05-19T13:02:29Z</time>
      </trkpt>
      <trkpt lat="42.1070130" lon="-8.8807200">
        <ele>65.2</ele>
        <time>2021-05-19T13:02:30Z</time>
      </trkpt>
      <trkpt lat="42.1070150" lon="-8.8807080">
        <ele>65.2</ele>
        <time>2021-05-19T13:02:31Z</time>
      </trkpt>
      <trkpt lat="42.1070200" lon="-8.8806950">
        <ele>65.2</ele>
        <time>2021-05-19T13:02:32Z</time>
      </trkpt>
      <trkpt lat="42.1070310" lon="-8.8806740">
        <ele>65.1</ele>
        <time>2021-05-19T13:02:33Z</time>
      </trkpt>
      <trkpt lat="42.1070350" lon="-8.8806600">
        <ele>65.1</ele>
        <time>2021-05-19T13:02:34Z</time>
      </trkpt>
      <trkpt lat="42.1070380" lon="-8.8806510">
        <ele>65.1</ele>
        <time>2021-05-19T13:02:35Z</time>
      </trkpt>
      <trkpt lat="42.1070430" lon="-8.8806340">
        <ele>65.1</ele>
        <time>2021-05-19T13:02:36Z</time>
      </trkpt>
      <trkpt lat="42.1070580" lon="-8.8806250">
        <ele>65.0</ele>
        <time>2021-05-19T13:02:37Z</time>
      </trkpt>
      <trkpt lat="42.1070670" lon="-8.8806160">
        <ele>65.0</ele>
        <time>2021-05-19T13:02:38Z</time>
      </trkpt>
      <trkpt lat="42.1070830" lon="-8.8806000">
        <ele>64.9</ele>
        <time>2021-05-19T13:02:39Z</time>
      </trkpt>
      <trkpt lat="42.1070910" lon="-8.8805920">
        <ele>64.9</ele>
        <time>2021-05-19T13:02:40Z</time>
      </trkpt>
      <trkpt lat="42.1070990" lon="-8.8805840">
        <ele>64.9</ele>
        <time>2021-05-19T13:02:41Z</time>
      </trkpt>
      <trkpt lat="42.1071060" lon="-8.8805700">
        <ele>64.9</ele>
        <time>2021-05-19T13:02:42Z</time>
      </trkpt>
      <trkpt lat="42.1071190" lon="-8.8805620">
        <ele>64.9</ele>
        <time>2021-05-19T13:02:43Z</time>
      </trkpt>
      <trkpt lat="42.1071260" lon="-8.8805520">
        <ele>64.9</ele>
        <time>2021-05-19T13:02:44Z</time>
      </trkpt>
      <trkpt lat="42.1071380" lon="-8.8805450">
        <ele>64.9</ele>
        <time>2021-05-19T13:02:45Z</time>
      </trkpt>
      <trkpt lat="42.1071530" lon="-8.8805320">
        <ele>64.9</ele>
        <time>2021-05-19T13:02:46Z</time>
      </trkpt>
      <trkpt lat="42.1071770" lon="-8.8805250">
        <ele>64.9</ele>
        <time>2021-05-19T13:02:47Z</time>
      </trkpt>
      <trkpt lat="42.1071840" lon="-8.8805210">
        <ele>64.9</ele>
        <time>2021-05-19T13:02:48Z</time>
      </trkpt>
      <trkpt lat="42.1071920" lon="-8.8805170">
        <ele>65.0</ele>
        <time>2021-05-19T13:02:49Z</time>
      </trkpt>
      <trkpt lat="42.1072000" lon="-8.8805050">
        <ele>65.0</ele>
        <time>2021-05-19T13:02:50Z</time>
      </trkpt>
      <trkpt lat="42.1072200" lon="-8.8805010">
        <ele>65.0</ele>
        <time>2021-05-19T13:02:51Z</time>
      </trkpt>
      <trkpt lat="42.1072330" lon="-8.8804950">
        <ele>65.0</ele>
        <time>2021-05-19T13:02:52Z</time>
      </trkpt>
      <trkpt lat="42.1072450" lon="-8.8804870">
        <ele>65.0</ele>
        <time>2021-05-19T13:02:53Z</time>
      </trkpt>
      <trkpt lat="42.1072630" lon="-8.8804770">
        <ele>65.1</ele>
        <time>2021-05-19T13:02:54Z</time>
      </trkpt>
      <trkpt lat="42.1072720" lon="-8.8804730">
        <ele>65.1</ele>
        <time>2021-05-19T13:02:55Z</time>
      </trkpt>
      <trkpt lat="42.1072800" lon="-8.8804680">
        <ele>65.1</ele>
        <time>2021-05-19T13:02:56Z</time>
      </trkpt>
      <trkpt lat="42.1072860" lon="-8.8804520">
        <ele>65.1</ele>
        <time>2021-05-19T13:02:57Z</time>
      </trkpt>
      <trkpt lat="42.1072990" lon="-8.8804460">
        <ele>65.1</ele>
        <time>2021-05-19T13:02:58Z</time>
      </trkpt>
      <trkpt lat="42.1073030" lon="-8.8804380">
        <ele>65.2</ele>
        <time>2021-05-19T13:02:59Z</time>
      </trkpt>
      <trkpt lat="42.1073190" lon="-8.8804330">
        <ele>65.2</ele>
        <time>2021-05-19T13:03:00Z</time>
      </trkpt>
      <trkpt lat="42.1073310" lon="-8.8804230">
        <ele>65.3</ele>
        <time>2021-05-19T13:03:01Z</time>
      </trkpt>
      <trkpt lat="42.1073430" lon="-8.8804110">
        <ele>65.3</ele>
        <time>2021-05-19T13:03:02Z</time>
      </trkpt>
      <trkpt lat="42.1073560" lon="-8.8803990">
        <ele>65.4</ele>
        <time>2021-05-19T13:03:03Z</time>
      </trkpt>
      <trkpt lat="42.1073740" lon="-8.8803840">
        <ele>65.5</ele>
        <time>2021-05-19T13:03:04Z</time>
      </trkpt>
      <trkpt lat="42.1073810" lon="-8.8803780">
        <ele>65.5</ele>
        <time>2021-05-19T13:03:05Z</time>
      </trkpt>
      <trkpt lat="42.1073890" lon="-8.8803710">
        <ele>65.5</ele>
        <time>2021-05-19T13:03:06Z</time>
      </trkpt>
      <trkpt lat="42.1074010" lon="-8.8803500">
        <ele>65.6</ele>
        <time>2021-05-19T13:03:07Z</time>
      </trkpt>
      <trkpt lat="42.1074070" lon="-8.8803410">
        <ele>65.6</ele>
        <time>2021-05-19T13:03:08Z</time>
      </trkpt>
      <trkpt lat="42.1074140" lon="-8.8803320">
        <ele>65.6</ele>
        <time>2021-05-19T13:03:09Z</time>
      </trkpt>
      <trkpt lat="42.1074200" lon="-8.8803160">
        <ele>65.6</ele>
        <time>2021-05-19T13:03:10Z</time>
      </trkpt>
      <trkpt lat="42.1074250" lon="-8.8803060">
        <ele>65.7</ele>
        <time>2021-05-19T13:03:11Z</time>
      </trkpt>
      <trkpt lat="42.1074310" lon="-8.8802920">
        <ele>65.7</ele>
        <time>2021-05-19T13:03:12Z</time>
      </trkpt>
      <trkpt lat="42.1074460" lon="-8.8802780">
        <ele>65.7</ele>
        <time>2021-05-19T13:03:13Z</time>
      </trkpt>
      <trkpt lat="42.1074530" lon="-8.8802660">
        <ele>65.7</ele>
        <time>2021-05-19T13:03:14Z</time>
      </trkpt>
      <trkpt lat="42.1074640" lon="-8.8802530">
        <ele>65.7</ele>
        <time>2021-05-19T13:03:15Z</time>
      </trkpt>
      <trkpt lat="42.1074750" lon="-8.8802460">
        <ele>65.7</ele>
        <time>2021-05-19T13:03:16Z</time>
      </trkpt>
      <trkpt lat="42.1074780" lon="-8.8802320">
        <ele>65.7</ele>
        <time>2021-05-19T13:03:17Z</time>
      </trkpt>
      <trkpt lat="42.1074910" lon="-8.8802120">
        <ele>65.6</ele>
        <time>2021-05-19T13:03:18Z</time>
      </trkpt>
      <trkpt lat="42.1074960" lon="-8.8802000">
        <ele>65.6</ele>
        <time>2021-05-19T13:03:19Z</time>
      </trkpt>
      <trkpt lat="42.1075010" lon="-8.8801880">
        <ele>65.6</ele>
        <time>2021-05-19T13:03:20Z</time>
      </trkpt>
      <trkpt lat="42.1075130" lon="-8.8801770">
        <ele>65.6</ele>
        <time>2021-05-19T13:03:21Z</time>
      </trkpt>
      <trkpt lat="42.1075180" lon="-8.8801600">
        <ele>65.5</ele>
        <time>2021-05-19T13:03:22Z</time>
      </trkpt>
      <trkpt lat="42.1075230" lon="-8.8801560">
        <ele>65.5</ele>
        <time>2021-05-19T13:03:23Z</time>
      </trkpt>
      <trkpt lat="42.1075350" lon="-8.8801300">
        <ele>65.4</ele>
        <time>2021-05-19T13:03:24Z</time>
      </trkpt>
      <trkpt lat="42.1075370" lon="-8.8801200">
        <ele>65.4</ele>
        <time>2021-05-19T13:03:25Z</time>
      </trkpt>
      <trkpt lat="42.1075400" lon="-8.8801090">
        <ele>65.4</ele>
        <time>2021-05-19T13:03:26Z</time>
      </trkpt>
      <trkpt lat="42.1075430" lon="-8.8801090">
        <ele>65.4</ele>
        <time>2021-05-19T13:03:27Z</time>
      </trkpt>
      <trkpt lat="42.1075490" lon="-8.8800880">
        <ele>65.3</ele>
        <time>2021-05-19T13:03:28Z</time>
      </trkpt>
      <trkpt lat="42.1075580" lon="-8.8800750">
        <ele>65.2</ele>
        <time>2021-05-19T13:03:29Z</time>
      </trkpt>
      <trkpt lat="42.1075650" lon="-8.8800470">
        <ele>65.1</ele>
        <time>2021-05-19T13:03:30Z</time>
      </trkpt>
      <trkpt lat="42.1075700" lon="-8.8800370">
        <ele>65.1</ele>
        <time>2021-05-19T13:03:31Z</time>
      </trkpt>
      <trkpt lat="42.1075760" lon="-8.8800270">
        <ele>65.0</ele>
        <time>2021-05-19T13:03:32Z</time>
      </trkpt>
      <trkpt lat="42.1075790" lon="-8.8800090">
        <ele>65.0</ele>
        <time>2021-05-19T13:03:33Z</time>
      </trkpt>
      <trkpt lat="42.1075790" lon="-8.8800000">
        <ele>64.9</ele>
        <time>2021-05-19T13:03:34Z</time>
      </trkpt>
      <trkpt lat="42.1075830" lon="-8.8799850">
        <ele>64.9</ele>
        <time>2021-05-19T13:03:35Z</time>
      </trkpt>
      <trkpt lat="42.1075880" lon="-8.8799690">
        <ele>64.8</ele>
        <time>2021-05-19T13:03:36Z</time>
      </trkpt>
      <trkpt lat="42.1075950" lon="-8.8799500">
        <ele>64.7</ele>
        <time>2021-05-19T13:03:37Z</time>
      </trkpt>
      <trkpt lat="42.1076000" lon="-8.8799320">
        <ele>64.6</ele>
        <time>2021-05-19T13:03:38Z</time>
      </trkpt>
      <trkpt lat="42.1076020" lon="-8.8799230">
        <ele>64.6</ele>
        <time>2021-05-19T13:03:39Z</time>
      </trkpt>
      <trkpt lat="42.1076070" lon="-8.8799080">
        <ele>64.5</ele>
        <time>2021-05-19T13:03:40Z</time>
      </trkpt>
      <trkpt lat="42.1076150" lon="-8.8798960">
        <ele>64.4</ele>
        <time>2021-05-19T13:03:41Z</time>
      </trkpt>
      <trkpt lat="42.1076210" lon="-8.8798870">
        <ele>64.4</ele>
        <time>2021-05-19T13:03:42Z</time>
      </trkpt>
      <trkpt lat="42.1076280" lon="-8.8798770">
        <ele>64.3</ele>
        <time>2021-05-19T13:03:43Z</time>
      </trkpt>
      <trkpt lat="42.1076290" lon="-8.8798560">
        <ele>64.2</ele>
        <time>2021-05-19T13:03:44Z</time>
      </trkpt>
      <trkpt lat="42.1076370" lon="-8.8798410">
        <ele>64.1</ele>
        <time>2021-05-19T13:03:45Z</time>
      </trkpt>
      <trkpt lat="42.1076430" lon="-8.8798220">
        <ele>64.0</ele>
        <time>2021-05-19T13:03:46Z</time>
      </trkpt>
      <trkpt lat="42.1076520" lon="-8.8798150">
        <ele>63.9</ele>
        <time>2021-05-19T13:03:47Z</time>
      </trkpt>
      <trkpt lat="42.1076540" lon="-8.8798010">
        <ele>63.8</ele>
        <time>2021-05-19T13:03:48Z</time>
      </trkpt>
      <trkpt lat="42.1076640" lon="-8.8797660">
        <ele>63.6</ele>
        <time>2021-05-19T13:03:49Z</time>
      </trkpt>
      <trkpt lat="42.1076670" lon="-8.8797550">
        <ele>63.5</ele>
        <time>2021-05-19T13:03:50Z</time>
      </trkpt>
      <trkpt lat="42.1076710" lon="-8.8797380">
        <ele>63.4</ele>
        <time>2021-05-19T13:03:51Z</time>
      </trkpt>
      <trkpt lat="42.1076730" lon="-8.8797240">
        <ele>63.3</ele>
        <time>2021-05-19T13:03:52Z</time>
      </trkpt>
      <trkpt lat="42.1076710" lon="-8.8797130">
        <ele>63.2</ele>
        <time>2021-05-19T13:03:53Z</time>
      </trkpt>
      <trkpt lat="42.1076730" lon="-8.8796840">
        <ele>63.0</ele>
        <time>2021-05-19T13:03:54Z</time>
      </trkpt>
      <trkpt lat="42.1076720" lon="-8.8796690">
        <ele>62.9</ele>
        <time>2021-05-19T13:03:55Z</time>
      </trkpt>
      <trkpt lat="42.1076720" lon="-8.8796550">
        <ele>62.8</ele>
        <time>2021-05-19T13:03:56Z</time>
      </trkpt>
      <trkpt lat="42.1076790" lon="-8.8796430">
        <ele>62.7</ele>
        <time>2021-05-19T13:03:57Z</time>
      </trkpt>
      <trkpt lat="42.1076770" lon="-8.8796190">
        <ele>62.5</ele>
        <time>2021-05-19T13:03:58Z</time>
      </trkpt>
      <trkpt lat="42.1076810" lon="-8.8796080">
        <ele>62.4</ele>
        <time>2021-05-19T13:03:59Z</time>
      </trkpt>
      <trkpt lat="42.1076860" lon="-8.8795890">
        <ele>62.3</ele>
        <time>2021-05-19T13:04:00Z</time>
      </trkpt>
      <trkpt lat="42.1076870" lon="-8.8795740">
        <ele>62.2</ele>
        <time>2021-05-19T13:04:01Z</time>
      </trkpt>
      <trkpt lat="42.1076890" lon="-8.8795600">
        <ele>62.1</ele>
        <time>2021-05-19T13:04:02Z</time>
      </trkpt>
      <trkpt lat="42.1076890" lon="-8.8795380">
        <ele>61.9</ele>
        <time>2021-05-19T13:04:03Z</time>
      </trkpt>
      <trkpt lat="42.1076910" lon="-8.8795340">
        <ele>61.9</ele>
        <time>2021-05-19T13:04:04Z</time>
      </trkpt>
      <trkpt lat="42.1076920" lon="-8.8795070">
        <ele>61.7</ele>
        <time>2021-05-19T13:04:05Z</time>
      </trkpt>
      <trkpt lat="42.1076950" lon="-8.8794950">
        <ele>61.6</ele>
        <time>2021-05-19T13:04:06Z</time>
      </trkpt>
      <trkpt lat="42.1076960" lon="-8.8794680">
        <ele>61.4</ele>
        <time>2021-05-19T13:04:07Z</time>
      </trkpt>
      <trkpt lat="42.1076970" lon="-8.8794530">
        <ele>61.3</ele>
        <time>2021-05-19T13:04:08Z</time>
      </trkpt>
      <trkpt lat="42.1076970" lon="-8.8794330">
        <ele>61.2</ele>
        <time>2021-05-19T13:04:09Z</time>
      </trkpt>
      <trkpt lat="42.1076970" lon="-8.8794160">
        <ele>61.0</ele>
        <time>2021-05-19T13:04:10Z</time>
      </trkpt>
      <trkpt lat="42.1076980" lon="-8.8793970">
        <ele>60.9</ele>
        <time>2021-05-19T13:04:11Z</time>
      </trkpt>
      <trkpt lat="42.1077040" lon="-8.8793860">
        <ele>60.8</ele>
        <time>2021-05-19T13:04:12Z</time>
      </trkpt>
      <trkpt lat="42.1077060" lon="-8.8793710">
        <ele>60.7</ele>
        <time>2021-05-19T13:04:13Z</time>
      </trkpt>
      <trkpt lat="42.1077090" lon="-8.8793550">
        <ele>60.6</ele>
        <time>2021-05-19T13:04:14Z</time>
      </trkpt>
      <trkpt lat="42.1077070" lon="-8.8793480">
        <ele>60.5</ele>
        <time>2021-05-19T13:04:15Z</time>
      </trkpt>
      <trkpt lat="42.1077080" lon="-8.8793300">
        <ele>60.4</ele>
        <time>2021-05-19T13:04:16Z</time>
      </trkpt>
      <trkpt lat="42.1077100" lon="-8.8793160">
        <ele>60.2</ele>
        <time>2021-05-19T13:04:17Z</time>
      </trkpt>
      <trkpt lat="42.1077110" lon="-8.8793020">
        <ele>60.1</ele>
        <time>2021-05-19T13:04:18Z</time>
      </trkpt>
      <trkpt lat="42.1077150" lon="-8.8792840">
        <ele>60.0</ele>
        <time>2021-05-19T13:04:19Z</time>
      </trkpt>
      <trkpt lat="42.1077140" lon="-8.8792590">
        <ele>59.8</ele>
        <time>2021-05-19T13:04:20Z</time>
      </trkpt>
      <trkpt lat="42.1077170" lon="-8.8792400">
        <ele>59.6</ele>
        <time>2021-05-19T13:04:21Z</time>
      </trkpt>
      <trkpt lat="42.1077220" lon="-8.8792000">
        <ele>59.3</ele>
        <time>2021-05-19T13:04:22Z</time>
      </trkpt>
      <trkpt lat="42.1077230" lon="-8.8791910">
        <ele>59.2</ele>
        <time>2021-05-19T13:04:23Z</time>
      </trkpt>
      <trkpt lat="42.1077240" lon="-8.8791670">
        <ele>59.1</ele>
        <time>2021-05-19T13:04:24Z</time>
      </trkpt>
      <trkpt lat="42.1077330" lon="-8.8791480">
        <ele>58.9</ele>
        <time>2021-05-19T13:04:25Z</time>
      </trkpt>
      <trkpt lat="42.1077350" lon="-8.8791260">
        <ele>58.7</ele>
        <time>2021-05-19T13:04:26Z</time>
      </trkpt>
      <trkpt lat="42.1077440" lon="-8.8791040">
        <ele>58.6</ele>
        <time>2021-05-19T13:04:27Z</time>
      </trkpt>
      <trkpt lat="42.1077440" lon="-8.8790820">
        <ele>58.4</ele>
        <time>2021-05-19T13:04:28Z</time>
      </trkpt>
      <trkpt lat="42.1077550" lon="-8.8790660">
        <ele>58.2</ele>
        <time>2021-05-19T13:04:29Z</time>
      </trkpt>
      <trkpt lat="42.1077470" lon="-8.8790440">
        <ele>58.1</ele>
        <time>2021-05-19T13:04:30Z</time>
      </trkpt>
      <trkpt lat="42.1077530" lon="-8.8790280">
        <ele>58.0</ele>
        <time>2021-05-19T13:04:31Z</time>
      </trkpt>
      <trkpt lat="42.1077610" lon="-8.8789980">
        <ele>57.7</ele>
        <time>2021-05-19T13:04:32Z</time>
      </trkpt>
      <trkpt lat="42.1077630" lon="-8.8789880">
        <ele>57.7</ele>
        <time>2021-05-19T13:04:33Z</time>
      </trkpt>
      <trkpt lat="42.1077660" lon="-8.8789790">
        <ele>57.6</ele>
        <time>2021-05-19T13:04:34Z</time>
      </trkpt>
      <trkpt lat="42.1077700" lon="-8.8789590">
        <ele>57.5</ele>
        <time>2021-05-19T13:04:35Z</time>
      </trkpt>
      <trkpt lat="42.1077710" lon="-8.8789470">
        <ele>57.4</ele>
        <time>2021-05-19T13:04:36Z</time>
      </trkpt>
      <trkpt lat="42.1077730" lon="-8.8789360">
        <ele>57.3</ele>
        <time>2021-05-19T13:04:37Z</time>
      </trkpt>
      <trkpt lat="42.1077740" lon="-8.8789240">
        <ele>57.2</ele>
        <time>2021-05-19T13:04:38Z</time>
      </trkpt>
      <trkpt lat="42.1077750" lon="-8.8789110">
        <ele>57.2</ele>
        <time>2021-05-19T13:04:39Z</time>
      </trkpt>
      <trkpt lat="42.1077750" lon="-8.8789040">
        <ele>57.1</ele>
        <time>2021-05-19T13:04:40Z</time>
      </trkpt>
      <trkpt lat="42.1077760" lon="-8.8788840">
        <ele>57.0</ele>
        <time>2021-05-19T13:04:41Z</time>
      </trkpt>
      <trkpt lat="42.1077770" lon="-8.8788690">
        <ele>56.9</ele>
        <time>2021-05-19T13:04:42Z</time>
      </trkpt>
      <trkpt lat="42.1077800" lon="-8.8788540">
        <ele>56.8</ele>
        <time>2021-05-19T13:04:43Z</time>
      </trkpt>
      <trkpt lat="42.1077870" lon="-8.8788410">
        <ele>56.8</ele>
        <time>2021-05-19T13:04:44Z</time>
      </trkpt>
      <trkpt lat="42.1077850" lon="-8.8788360">
        <ele>56.7</ele>
        <time>2021-05-19T13:04:45Z</time>
      </trkpt>
      <trkpt lat="42.1077870" lon="-8.8788210">
        <ele>56.7</ele>
        <time>2021-05-19T13:04:46Z</time>
      </trkpt>
      <trkpt lat="42.1077910" lon="-8.8788010">
        <ele>56.6</ele>
        <time>2021-05-19T13:04:47Z</time>
      </trkpt>
      <trkpt lat="42.1078000" lon="-8.8787720">
        <ele>56.4</ele>
        <time>2021-05-19T13:04:48Z</time>
      </trkpt>
      <trkpt lat="42.1078020" lon="-8.8787610">
        <ele>56.4</ele>
        <time>2021-05-19T13:04:49Z</time>
      </trkpt>
      <trkpt lat="42.1078050" lon="-8.8787490">
        <ele>56.3</ele>
        <time>2021-05-19T13:04:50Z</time>
      </trkpt>
      <trkpt lat="42.1078120" lon="-8.8787360">
        <ele>56.2</ele>
        <time>2021-05-19T13:04:51Z</time>
      </trkpt>
      <trkpt lat="42.1078140" lon="-8.8787210">
        <ele>56.2</ele>
        <time>2021-05-19T13:04:52Z</time>
      </trkpt>
      <trkpt lat="42.1078140" lon="-8.8787070">
        <ele>56.1</ele>
        <time>2021-05-19T13:04:53Z</time>
      </trkpt>
      <trkpt lat="42.1078200" lon="-8.8786750">
        <ele>55.9</ele>
        <time>2021-05-19T13:04:54Z</time>
      </trkpt>
      <trkpt lat="42.1078230" lon="-8.8786560">
        <ele>55.9</ele>
        <time>2021-05-19T13:04:55Z</time>
      </trkpt>
      <trkpt lat="42.1078270" lon="-8.8786380">
        <ele>55.8</ele>
        <time>2021-05-19T13:04:56Z</time>
      </trkpt>
      <trkpt lat="42.1078290" lon="-8.8786190">
        <ele>55.7</ele>
        <time>2021-05-19T13:04:57Z</time>
      </trkpt>
      <trkpt lat="42.1078260" lon="-8.8785910">
        <ele>55.5</ele>
        <time>2021-05-19T13:04:58Z</time>
      </trkpt>
      <trkpt lat="42.1078290" lon="-8.8785800">
        <ele>55.5</ele>
        <time>2021-05-19T13:04:59Z</time>
      </trkpt>
      <trkpt lat="42.1078320" lon="-8.8785680">
        <ele>55.4</ele>
        <time>2021-05-19T13:05:00Z</time>
      </trkpt>
      <trkpt lat="42.1078310" lon="-8.8785570">
        <ele>55.4</ele>
        <time>2021-05-19T13:05:01Z</time>
      </trkpt>
      <trkpt lat="42.1078310" lon="-8.8785440">
        <ele>55.3</ele>
        <time>2021-05-19T13:05:02Z</time>
      </trkpt>
      <trkpt lat="42.1078330" lon="-8.8785270">
        <ele>55.2</ele>
        <time>2021-05-19T13:05:03Z</time>
      </trkpt>
      <trkpt lat="42.1078360" lon="-8.8784940">
        <ele>55.0</ele>
        <time>2021-05-19T13:05:04Z</time>
      </trkpt>
      <trkpt lat="42.1078340" lon="-8.8784840">
        <ele>55.0</ele>
        <time>2021-05-19T13:05:05Z</time>
      </trkpt>
      <trkpt lat="42.1078330" lon="-8.8784730">
        <ele>54.9</ele>
        <time>2021-05-19T13:05:06Z</time>
      </trkpt>
      <trkpt lat="42.1078300" lon="-8.8784510">
        <ele>54.8</ele>
        <time>2021-05-19T13:05:07Z</time>
      </trkpt>
      <trkpt lat="42.1078310" lon="-8.8784310">
        <ele>54.7</ele>
        <time>2021-05-19T13:05:08Z</time>
      </trkpt>
      <trkpt lat="42.1078340" lon="-8.8783970">
        <ele>54.5</ele>
        <time>2021-05-19T13:05:09Z</time>
      </trkpt>
      <trkpt lat="42.1078360" lon="-8.8783850">
        <ele>54.4</ele>
        <time>2021-05-19T13:05:10Z</time>
      </trkpt>
      <trkpt lat="42.1078370" lon="-8.8783740">
        <ele>54.3</ele>
        <time>2021-05-19T13:05:11Z</time>
      </trkpt>
      <trkpt lat="42.1078360" lon="-8.8783430">
        <ele>54.1</ele>
        <time>2021-05-19T13:05:12Z</time>
      </trkpt>
      <trkpt lat="42.1078360" lon="-8.8783340">
        <ele>54.1</ele>
        <time>2021-05-19T13:05:13Z</time>
      </trkpt>
      <trkpt lat="42.1078360" lon="-8.8783240">
        <ele>54.0</ele>
        <time>2021-05-19T13:05:14Z</time>
      </trkpt>
      <trkpt lat="42.1078320" lon="-8.8783060">
        <ele>53.9</ele>
        <time>2021-05-19T13:05:15Z</time>
      </trkpt>
      <trkpt lat="42.1078280" lon="-8.8782880">
        <ele>53.8</ele>
        <time>2021-05-19T13:05:16Z</time>
      </trkpt>
      <trkpt lat="42.1078310" lon="-8.8782830">
        <ele>53.7</ele>
        <time>2021-05-19T13:05:17Z</time>
      </trkpt>
      <trkpt lat="42.1078320" lon="-8.8782660">
        <ele>53.6</ele>
        <time>2021-05-19T13:05:18Z</time>
      </trkpt>
      <trkpt lat="42.1078270" lon="-8.8782420">
        <ele>53.4</ele>
        <time>2021-05-19T13:05:19Z</time>
      </trkpt>
      <trkpt lat="42.1078290" lon="-8.8782260">
        <ele>53.3</ele>
        <time>2021-05-19T13:05:21Z</time>
      </trkpt>
      <trkpt lat="42.1078290" lon="-8.8781970">
        <ele>53.1</ele>
        <time>2021-05-19T13:05:22Z</time>
      </trkpt>
      <trkpt lat="42.1078260" lon="-8.8781800">
        <ele>52.9</ele>
        <time>2021-05-19T13:05:23Z</time>
      </trkpt>
      <trkpt lat="42.1078270" lon="-8.8781570">
        <ele>52.8</ele>
        <time>2021-05-19T13:05:24Z</time>
      </trkpt>
      <trkpt lat="42.1078300" lon="-8.8781360">
        <ele>52.6</ele>
        <time>2021-05-19T13:05:25Z</time>
      </trkpt>
      <trkpt lat="42.1078250" lon="-8.8781170">
        <ele>52.4</ele>
        <time>2021-05-19T13:05:26Z</time>
      </trkpt>
      <trkpt lat="42.1078220" lon="-8.8780790">
        <ele>52.1</ele>
        <time>2021-05-19T13:05:27Z</time>
      </trkpt>
      <trkpt lat="42.1078190" lon="-8.8780670">
        <ele>52.0</ele>
        <time>2021-05-19T13:05:28Z</time>
      </trkpt>
      <trkpt lat="42.1078200" lon="-8.8780440">
        <ele>51.8</ele>
        <time>2021-05-19T13:05:29Z</time>
      </trkpt>
      <trkpt lat="42.1078200" lon="-8.8780240">
        <ele>51.6</ele>
        <time>2021-05-19T13:05:30Z</time>
      </trkpt>
      <trkpt lat="42.1078220" lon="-8.8780010">
        <ele>51.4</ele>
        <time>2021-05-19T13:05:31Z</time>
      </trkpt>
      <trkpt lat="42.1078230" lon="-8.8779830">
        <ele>51.2</ele>
        <time>2021-05-19T13:05:32Z</time>
      </trkpt>
      <trkpt lat="42.1078260" lon="-8.8779640">
        <ele>51.0</ele>
        <time>2021-05-19T13:05:33Z</time>
      </trkpt>
      <trkpt lat="42.1078260" lon="-8.8779440">
        <ele>50.8</ele>
        <time>2021-05-19T13:05:34Z</time>
      </trkpt>
      <trkpt lat="42.1078360" lon="-8.8779160">
        <ele>50.6</ele>
        <time>2021-05-19T13:05:35Z</time>
      </trkpt>
      <trkpt lat="42.1078380" lon="-8.8779070">
        <ele>50.5</ele>
        <time>2021-05-19T13:05:36Z</time>
      </trkpt>
      <trkpt lat="42.1078400" lon="-8.8778970">
        <ele>50.4</ele>
        <time>2021-05-19T13:05:37Z</time>
      </trkpt>
      <trkpt lat="42.1078450" lon="-8.8778670">
        <ele>50.1</ele>
        <time>2021-05-19T13:05:38Z</time>
      </trkpt>
      <trkpt lat="42.1078460" lon="-8.8778580">
        <ele>50.0</ele>
        <time>2021-05-19T13:05:39Z</time>
      </trkpt>
      <trkpt lat="42.1078460" lon="-8.8778480">
        <ele>49.9</ele>
        <time>2021-05-19T13:05:40Z</time>
      </trkpt>
      <trkpt lat="42.1078490" lon="-8.8778290">
        <ele>49.7</ele>
        <time>2021-05-19T13:05:41Z</time>
      </trkpt>
      <trkpt lat="42.1078490" lon="-8.8778150">
        <ele>49.6</ele>
        <time>2021-05-19T13:05:42Z</time>
      </trkpt>
      <trkpt lat="42.1078510" lon="-8.8778050">
        <ele>49.5</ele>
        <time>2021-05-19T13:05:43Z</time>
      </trkpt>
      <trkpt lat="42.1078640" lon="-8.8777800">
        <ele>49.2</ele>
        <time>2021-05-19T13:05:44Z</time>
      </trkpt>
      <trkpt lat="42.1078660" lon="-8.8777660">
        <ele>49.1</ele>
        <time>2021-05-19T13:05:45Z</time>
      </trkpt>
      <trkpt lat="42.1078690" lon="-8.8777520">
        <ele>49.0</ele>
        <time>2021-05-19T13:05:46Z</time>
      </trkpt>
      <trkpt lat="42.1078730" lon="-8.8777350">
        <ele>48.9</ele>
        <time>2021-05-19T13:05:47Z</time>
      </trkpt>
      <trkpt lat="42.1078790" lon="-8.8777240">
        <ele>48.7</ele>
        <time>2021-05-19T13:05:48Z</time>
      </trkpt>
      <trkpt lat="42.1078790" lon="-8.8777050">
        <ele>48.6</ele>
        <time>2021-05-19T13:05:49Z</time>
      </trkpt>
      <trkpt lat="42.1078910" lon="-8.8776760">
        <ele>48.3</ele>
        <time>2021-05-19T13:05:50Z</time>
      </trkpt>
      <trkpt lat="42.1078940" lon="-8.8776610">
        <ele>48.2</ele>
        <time>2021-05-19T13:05:51Z</time>
      </trkpt>
      <trkpt lat="42.1078980" lon="-8.8776470">
        <ele>48.1</ele>
        <time>2021-05-19T13:05:52Z</time>
      </trkpt>
      <trkpt lat="42.1078990" lon="-8.8776340">
        <ele>48.0</ele>
        <time>2021-05-19T13:05:53Z</time>
      </trkpt>
      <trkpt lat="42.1078960" lon="-8.8776260">
        <ele>48.0</ele>
        <time>2021-05-19T13:05:54Z</time>
      </trkpt>
      <trkpt lat="42.1079120" lon="-8.8776070">
        <ele>47.8</ele>
        <time>2021-05-19T13:05:55Z</time>
      </trkpt>
      <trkpt lat="42.1079180" lon="-8.8775780">
        <ele>47.6</ele>
        <time>2021-05-19T13:05:56Z</time>
      </trkpt>
      <trkpt lat="42.1079220" lon="-8.8775640">
        <ele>47.5</ele>
        <time>2021-05-19T13:05:57Z</time>
      </trkpt>
      <trkpt lat="42.1079250" lon="-8.8775490">
        <ele>47.4</ele>
        <time>2021-05-19T13:05:58Z</time>
      </trkpt>
      <trkpt lat="42.1079240" lon="-8.8775410">
        <ele>47.4</ele>
        <time>2021-05-19T13:05:59Z</time>
      </trkpt>
      <trkpt lat="42.1079370" lon="-8.8775240">
        <ele>47.2</ele>
        <time>2021-05-19T13:06:00Z</time>
      </trkpt>
      <trkpt lat="42.1079390" lon="-8.8775080">
        <ele>47.1</ele>
        <time>2021-05-19T13:06:01Z</time>
      </trkpt>
      <trkpt lat="42.1079500" lon="-8.8774840">
        <ele>47.0</ele>
        <time>2021-05-19T13:06:02Z</time>
      </trkpt>
      <trkpt lat="42.1079480" lon="-8.8774730">
        <ele>46.9</ele>
        <time>2021-05-19T13:06:03Z</time>
      </trkpt>
      <trkpt lat="42.1079500" lon="-8.8774570">
        <ele>46.9</ele>
        <time>2021-05-19T13:06:04Z</time>
      </trkpt>
      <trkpt lat="42.1079510" lon="-8.8774500">
        <ele>46.8</ele>
        <time>2021-05-19T13:06:05Z</time>
      </trkpt>
      <trkpt lat="42.1079530" lon="-8.8774290">
        <ele>46.7</ele>
        <time>2021-05-19T13:06:06Z</time>
      </trkpt>
      <trkpt lat="42.1079560" lon="-8.8773990">
        <ele>46.6</ele>
        <time>2021-05-19T13:06:07Z</time>
      </trkpt>
      <trkpt lat="42.1079570" lon="-8.8773880">
        <ele>46.5</ele>
        <time>2021-05-19T13:06:08Z</time>
      </trkpt>
      <trkpt lat="42.1079580" lon="-8.8773780">
        <ele>46.5</ele>
        <time>2021-05-19T13:06:09Z</time>
      </trkpt>
      <trkpt lat="42.1079520" lon="-8.8773640">
        <ele>46.4</ele>
        <time>2021-05-19T13:06:10Z</time>
      </trkpt>
      <trkpt lat="42.1079520" lon="-8.8773400">
        <ele>46.3</ele>
        <time>2021-05-19T13:06:11Z</time>
      </trkpt>
      <trkpt lat="42.1079530" lon="-8.8773260">
        <ele>46.3</ele>
        <time>2021-05-19T13:06:12Z</time>
      </trkpt>
      <trkpt lat="42.1079540" lon="-8.8772980">
        <ele>46.2</ele>
        <time>2021-05-19T13:06:13Z</time>
      </trkpt>
      <trkpt lat="42.1079450" lon="-8.8772910">
        <ele>46.1</ele>
        <time>2021-05-19T13:06:14Z</time>
      </trkpt>
      <trkpt lat="42.1079450" lon="-8.8772660">
        <ele>46.0</ele>
        <time>2021-05-19T13:06:15Z</time>
      </trkpt>
      <trkpt lat="42.1079430" lon="-8.8772540">
        <ele>46.0</ele>
        <time>2021-05-19T13:06:16Z</time>
      </trkpt>
      <trkpt lat="42.1079450" lon="-8.8772430">
        <ele>45.9</ele>
        <time>2021-05-19T13:06:17Z</time>
      </trkpt>
      <trkpt lat="42.1079480" lon="-8.8772250">
        <ele>45.8</ele>
        <time>2021-05-19T13:06:18Z</time>
      </trkpt>
      <trkpt lat="42.1079470" lon="-8.8772120">
        <ele>45.8</ele>
        <time>2021-05-19T13:06:19Z</time>
      </trkpt>
      <trkpt lat="42.1079430" lon="-8.8771830">
        <ele>45.7</ele>
        <time>2021-05-19T13:06:20Z</time>
      </trkpt>
      <trkpt lat="42.1079400" lon="-8.8771680">
        <ele>45.6</ele>
        <time>2021-05-19T13:06:21Z</time>
      </trkpt>
      <trkpt lat="42.1079380" lon="-8.8771530">
        <ele>45.2</ele>
        <time>2021-05-19T13:06:22Z</time>
      </trkpt>
      <trkpt lat="42.1079350" lon="-8.8771240">
        <ele>45.0</ele>
        <time>2021-05-19T13:06:23Z</time>
      </trkpt>
      <trkpt lat="42.1079330" lon="-8.8771120">
        <ele>44.9</ele>
        <time>2021-05-19T13:06:24Z</time>
      </trkpt>
      <trkpt lat="42.1079320" lon="-8.8770990">
        <ele>44.8</ele>
        <time>2021-05-19T13:06:25Z</time>
      </trkpt>
      <trkpt lat="42.1079360" lon="-8.8770840">
        <ele>44.7</ele>
        <time>2021-05-19T13:06:26Z</time>
      </trkpt>
      <trkpt lat="42.1079290" lon="-8.8770730">
        <ele>44.7</ele>
        <time>2021-05-19T13:06:27Z</time>
      </trkpt>
      <trkpt lat="42.1079300" lon="-8.8770580">
        <ele>44.6</ele>
        <time>2021-05-19T13:06:28Z</time>
      </trkpt>
      <trkpt lat="42.1079330" lon="-8.8770480">
        <ele>44.5</ele>
        <time>2021-05-19T13:06:29Z</time>
      </trkpt>
      <trkpt lat="42.1079320" lon="-8.8770380">
        <ele>44.5</ele>
        <time>2021-05-19T13:06:30Z</time>
      </trkpt>
      <trkpt lat="42.1079370" lon="-8.8770210">
        <ele>44.4</ele>
        <time>2021-05-19T13:06:31Z</time>
      </trkpt>
      <trkpt lat="42.1079410" lon="-8.8770080">
        <ele>44.3</ele>
        <time>2021-05-19T13:06:32Z</time>
      </trkpt>
      <trkpt lat="42.1079490" lon="-8.8769850">
        <ele>44.2</ele>
        <time>2021-05-19T13:06:33Z</time>
      </trkpt>
      <trkpt lat="42.1079590" lon="-8.8769700">
        <ele>44.0</ele>
        <time>2021-05-19T13:06:34Z</time>
      </trkpt>
      <trkpt lat="42.1079620" lon="-8.8769620">
        <ele>44.0</ele>
        <time>2021-05-19T13:06:35Z</time>
      </trkpt>
      <trkpt lat="42.1079640" lon="-8.8769440">
        <ele>43.9</ele>
        <time>2021-05-19T13:06:36Z</time>
      </trkpt>
      <trkpt lat="42.1079680" lon="-8.8769270">
        <ele>43.9</ele>
        <time>2021-05-19T13:06:37Z</time>
      </trkpt>
      <trkpt lat="42.1079710" lon="-8.8769150">
        <ele>43.8</ele>
        <time>2021-05-19T13:06:38Z</time>
      </trkpt>
      <trkpt lat="42.1079770" lon="-8.8769030">
        <ele>43.7</ele>
        <time>2021-05-19T13:06:39Z</time>
      </trkpt>
      <trkpt lat="42.1079840" lon="-8.8768860">
        <ele>43.7</ele>
        <time>2021-05-19T13:06:40Z</time>
      </trkpt>
      <trkpt lat="42.1079910" lon="-8.8768660">
        <ele>43.6</ele>
        <time>2021-05-19T13:06:41Z</time>
      </trkpt>
      <trkpt lat="42.1079960" lon="-8.8768600">
        <ele>43.6</ele>
        <time>2021-05-19T13:06:42Z</time>
      </trkpt>
      <trkpt lat="42.1079960" lon="-8.8768450">
        <ele>43.5</ele>
        <time>2021-05-19T13:06:43Z</time>
      </trkpt>
      <trkpt lat="42.1080030" lon="-8.8768320">
        <ele>43.4</ele>
        <time>2021-05-19T13:06:44Z</time>
      </trkpt>
      <trkpt lat="42.1080030" lon="-8.8768220">
        <ele>43.4</ele>
        <time>2021-05-19T13:06:45Z</time>
      </trkpt>
      <trkpt lat="42.1080110" lon="-8.8767960">
        <ele>43.3</ele>
        <time>2021-05-19T13:06:46Z</time>
      </trkpt>
      <trkpt lat="42.1080220" lon="-8.8767690">
        <ele>43.2</ele>
        <time>2021-05-19T13:06:47Z</time>
      </trkpt>
      <trkpt lat="42.1080260" lon="-8.8767580">
        <ele>43.2</ele>
        <time>2021-05-19T13:06:48Z</time>
      </trkpt>
      <trkpt lat="42.1080290" lon="-8.8767470">
        <ele>43.1</ele>
        <time>2021-05-19T13:06:49Z</time>
      </trkpt>
      <trkpt lat="42.1080370" lon="-8.8767350">
        <ele>43.1</ele>
        <time>2021-05-19T13:06:50Z</time>
      </trkpt>
      <trkpt lat="42.1080410" lon="-8.8767230">
        <ele>43.0</ele>
        <time>2021-05-19T13:06:51Z</time>
      </trkpt>
      <trkpt lat="42.1080480" lon="-8.8767100">
        <ele>42.9</ele>
        <time>2021-05-19T13:06:52Z</time>
      </trkpt>
      <trkpt lat="42.1080600" lon="-8.8766970">
        <ele>42.9</ele>
        <time>2021-05-19T13:06:53Z</time>
      </trkpt>
      <trkpt lat="42.1080680" lon="-8.8766770">
        <ele>42.8</ele>
        <time>2021-05-19T13:06:54Z</time>
      </trkpt>
      <trkpt lat="42.1080820" lon="-8.8766530">
        <ele>42.6</ele>
        <time>2021-05-19T13:06:55Z</time>
      </trkpt>
      <trkpt lat="42.1080860" lon="-8.8766430">
        <ele>42.6</ele>
        <time>2021-05-19T13:06:56Z</time>
      </trkpt>
      <trkpt lat="42.1080910" lon="-8.8766320">
        <ele>42.5</ele>
        <time>2021-05-19T13:06:57Z</time>
      </trkpt>
      <trkpt lat="42.1080910" lon="-8.8766270">
        <ele>42.5</ele>
        <time>2021-05-19T13:06:58Z</time>
      </trkpt>
      <trkpt lat="42.1080990" lon="-8.8766110">
        <ele>42.4</ele>
        <time>2021-05-19T13:06:59Z</time>
      </trkpt>
      <trkpt lat="42.1081060" lon="-8.8765950">
        <ele>42.3</ele>
        <time>2021-05-19T13:07:00Z</time>
      </trkpt>
      <trkpt lat="42.1081090" lon="-8.8765770">
        <ele>42.2</ele>
        <time>2021-05-19T13:07:01Z</time>
      </trkpt>
      <trkpt lat="42.1081280" lon="-8.8765450">
        <ele>42.0</ele>
        <time>2021-05-19T13:07:02Z</time>
      </trkpt>
      <trkpt lat="42.1081410" lon="-8.8765340">
        <ele>41.9</ele>
        <time>2021-05-19T13:07:03Z</time>
      </trkpt>
      <trkpt lat="42.1081460" lon="-8.8765300">
        <ele>41.9</ele>
        <time>2021-05-19T13:07:04Z</time>
      </trkpt>
      <trkpt lat="42.1081540" lon="-8.8765150">
        <ele>41.8</ele>
        <time>2021-05-19T13:07:05Z</time>
      </trkpt>
      <trkpt lat="42.1081630" lon="-8.8765020">
        <ele>41.7</ele>
        <time>2021-05-19T13:07:06Z</time>
      </trkpt>
      <trkpt lat="42.1081660" lon="-8.8764900">
        <ele>41.6</ele>
        <time>2021-05-19T13:07:07Z</time>
      </trkpt>
      <trkpt lat="42.1081760" lon="-8.8764580">
        <ele>41.4</ele>
        <time>2021-05-19T13:07:08Z</time>
      </trkpt>
      <trkpt lat="42.1081790" lon="-8.8764430">
        <ele>41.4</ele>
        <time>2021-05-19T13:07:09Z</time>
      </trkpt>
      <trkpt lat="42.1081830" lon="-8.8764280">
        <ele>41.3</ele>
        <time>2021-05-19T13:07:10Z</time>
      </trkpt>
      <trkpt lat="42.1081880" lon="-8.8764120">
        <ele>41.2</ele>
        <time>2021-05-19T13:07:11Z</time>
      </trkpt>
      <trkpt lat="42.1081990" lon="-8.8764040">
        <ele>41.1</ele>
        <time>2021-05-19T13:07:12Z</time>
      </trkpt>
      <trkpt lat="42.1081980" lon="-8.8763870">
        <ele>41.0</ele>
        <time>2021-05-19T13:07:13Z</time>
      </trkpt>
      <trkpt lat="42.1082100" lon="-8.8763640">
        <ele>40.8</ele>
        <time>2021-05-19T13:07:14Z</time>
      </trkpt>
      <trkpt lat="42.1082140" lon="-8.8763530">
        <ele>40.8</ele>
        <time>2021-05-19T13:07:15Z</time>
      </trkpt>
      <trkpt lat="42.1082190" lon="-8.8763430">
        <ele>40.7</ele>
        <time>2021-05-19T13:07:16Z</time>
      </trkpt>
      <trkpt lat="42.1082310" lon="-8.8763240">
        <ele>40.5</ele>
        <time>2021-05-19T13:07:17Z</time>
      </trkpt>
      <trkpt lat="42.1082360" lon="-8.8763080">
        <ele>40.4</ele>
        <time>2021-05-19T13:07:18Z</time>
      </trkpt>
      <trkpt lat="42.1082490" lon="-8.8762870">
        <ele>40.3</ele>
        <time>2021-05-19T13:07:19Z</time>
      </trkpt>
      <trkpt lat="42.1082540" lon="-8.8762740">
        <ele>40.2</ele>
        <time>2021-05-19T13:07:20Z</time>
      </trkpt>
      <trkpt lat="42.1082590" lon="-8.8762600">
        <ele>40.1</ele>
        <time>2021-05-19T13:07:21Z</time>
      </trkpt>
      <trkpt lat="42.1082730" lon="-8.8762360">
        <ele>39.9</ele>
        <time>2021-05-19T13:07:22Z</time>
      </trkpt>
      <trkpt lat="42.1082770" lon="-8.8762270">
        <ele>39.8</ele>
        <time>2021-05-19T13:07:23Z</time>
      </trkpt>
      <trkpt lat="42.1082820" lon="-8.8762180">
        <ele>39.8</ele>
        <time>2021-05-19T13:07:24Z</time>
      </trkpt>
      <trkpt lat="42.1082920" lon="-8.8761910">
        <ele>39.6</ele>
        <time>2021-05-19T13:07:25Z</time>
      </trkpt>
      <trkpt lat="42.1082940" lon="-8.8761800">
        <ele>39.5</ele>
        <time>2021-05-19T13:07:26Z</time>
      </trkpt>
      <trkpt lat="42.1082960" lon="-8.8761680">
        <ele>39.4</ele>
        <time>2021-05-19T13:07:27Z</time>
      </trkpt>
      <trkpt lat="42.1083110" lon="-8.8761380">
        <ele>39.2</ele>
        <time>2021-05-19T13:07:28Z</time>
      </trkpt>
      <trkpt lat="42.1083150" lon="-8.8761250">
        <ele>39.1</ele>
        <time>2021-05-19T13:07:29Z</time>
      </trkpt>
      <trkpt lat="42.1083190" lon="-8.8761110">
        <ele>39.0</ele>
        <time>2021-05-19T13:07:30Z</time>
      </trkpt>
      <trkpt lat="42.1083210" lon="-8.8760960">
        <ele>38.9</ele>
        <time>2021-05-19T13:07:31Z</time>
      </trkpt>
      <trkpt lat="42.1083230" lon="-8.8760840">
        <ele>38.8</ele>
        <time>2021-05-19T13:07:33Z</time>
      </trkpt>
      <trkpt lat="42.1083310" lon="-8.8760730">
        <ele>38.7</ele>
        <time>2021-05-19T13:07:34Z</time>
      </trkpt>
      <trkpt lat="42.1083370" lon="-8.8760550">
        <ele>38.6</ele>
        <time>2021-05-19T13:07:35Z</time>
      </trkpt>
      <trkpt lat="42.1083420" lon="-8.8760380">
        <ele>38.4</ele>
        <time>2021-05-19T13:07:36Z</time>
      </trkpt>
      <trkpt lat="42.1083480" lon="-8.8760220">
        <ele>38.3</ele>
        <time>2021-05-19T13:07:37Z</time>
      </trkpt>
      <trkpt lat="42.1083530" lon="-8.8760060">
        <ele>38.2</ele>
        <time>2021-05-19T13:07:38Z</time>
      </trkpt>
      <trkpt lat="42.1083600" lon="-8.8759970">
        <ele>38.1</ele>
        <time>2021-05-19T13:07:39Z</time>
      </trkpt>
      <trkpt lat="42.1083650" lon="-8.8759840">
        <ele>38.0</ele>
        <time>2021-05-19T13:07:40Z</time>
      </trkpt>
      <trkpt lat="42.1083700" lon="-8.8759720">
        <ele>37.8</ele>
        <time>2021-05-19T13:07:41Z</time>
      </trkpt>
      <trkpt lat="42.1083700" lon="-8.8759580">
        <ele>37.7</ele>
        <time>2021-05-19T13:07:42Z</time>
      </trkpt>
      <trkpt lat="42.1083780" lon="-8.8759430">
        <ele>37.6</ele>
        <time>2021-05-19T13:07:43Z</time>
      </trkpt>
      <trkpt lat="42.1083810" lon="-8.8759220">
        <ele>37.4</ele>
        <time>2021-05-19T13:07:44Z</time>
      </trkpt>
      <trkpt lat="42.1083870" lon="-8.8759110">
        <ele>37.3</ele>
        <time>2021-05-19T13:07:45Z</time>
      </trkpt>
      <trkpt lat="42.1083880" lon="-8.8758930">
        <ele>37.2</ele>
        <time>2021-05-19T13:07:46Z</time>
      </trkpt>
      <trkpt lat="42.1083950" lon="-8.8758780">
        <ele>37.0</ele>
        <time>2021-05-19T13:07:47Z</time>
      </trkpt>
      <trkpt lat="42.1084000" lon="-8.8758540">
        <ele>36.8</ele>
        <time>2021-05-19T13:07:48Z</time>
      </trkpt>
      <trkpt lat="42.1084030" lon="-8.8758410">
        <ele>36.7</ele>
        <time>2021-05-19T13:07:49Z</time>
      </trkpt>
      <trkpt lat="42.1084050" lon="-8.8758290">
        <ele>36.6</ele>
        <time>2021-05-19T13:07:50Z</time>
      </trkpt>
      <trkpt lat="42.1084100" lon="-8.8758180">
        <ele>36.5</ele>
        <time>2021-05-19T13:07:51Z</time>
      </trkpt>
      <trkpt lat="42.1084120" lon="-8.8758110">
        <ele>36.5</ele>
        <time>2021-05-19T13:07:52Z</time>
      </trkpt>
      <trkpt lat="42.1084210" lon="-8.8757910">
        <ele>36.3</ele>
        <time>2021-05-19T13:07:53Z</time>
      </trkpt>
      <trkpt lat="42.1084290" lon="-8.8757790">
        <ele>36.1</ele>
        <time>2021-05-19T13:07:54Z</time>
      </trkpt>
      <trkpt lat="42.1084330" lon="-8.8757510">
        <ele>35.9</ele>
        <time>2021-05-19T13:07:55Z</time>
      </trkpt>
      <trkpt lat="42.1084410" lon="-8.8757330">
        <ele>35.7</ele>
        <time>2021-05-19T13:07:56Z</time>
      </trkpt>
      <trkpt lat="42.1084520" lon="-8.8757130">
        <ele>35.6</ele>
        <time>2021-05-19T13:07:57Z</time>
      </trkpt>
      <trkpt lat="42.1084560" lon="-8.8756920">
        <ele>35.4</ele>
        <time>2021-05-19T13:07:58Z</time>
      </trkpt>
      <trkpt lat="42.1084560" lon="-8.8756720">
        <ele>35.3</ele>
        <time>2021-05-19T13:07:59Z</time>
      </trkpt>
      <trkpt lat="42.1084640" lon="-8.8756520">
        <ele>35.1</ele>
        <time>2021-05-19T13:08:00Z</time>
      </trkpt>
      <trkpt lat="42.1084730" lon="-8.8756450">
        <ele>35.0</ele>
        <time>2021-05-19T13:08:01Z</time>
      </trkpt>
      <trkpt lat="42.1084780" lon="-8.8756340">
        <ele>34.9</ele>
        <time>2021-05-19T13:08:02Z</time>
      </trkpt>
      <trkpt lat="42.1084900" lon="-8.8756190">
        <ele>34.8</ele>
        <time>2021-05-19T13:08:03Z</time>
      </trkpt>
      <trkpt lat="42.1084990" lon="-8.8756070">
        <ele>34.7</ele>
        <time>2021-05-19T13:08:04Z</time>
      </trkpt>
      <trkpt lat="42.1085180" lon="-8.8755890">
        <ele>34.5</ele>
        <time>2021-05-19T13:08:05Z</time>
      </trkpt>
      <trkpt lat="42.1085220" lon="-8.8755790">
        <ele>34.4</ele>
        <time>2021-05-19T13:08:06Z</time>
      </trkpt>
      <trkpt lat="42.1085250" lon="-8.8755680">
        <ele>34.3</ele>
        <time>2021-05-19T13:08:07Z</time>
      </trkpt>
      <trkpt lat="42.1085260" lon="-8.8755570">
        <ele>34.3</ele>
        <time>2021-05-19T13:08:08Z</time>
      </trkpt>
      <trkpt lat="42.1085340" lon="-8.8755480">
        <ele>34.2</ele>
        <time>2021-05-19T13:08:09Z</time>
      </trkpt>
      <trkpt lat="42.1085410" lon="-8.8755320">
        <ele>34.1</ele>
        <time>2021-05-19T13:08:10Z</time>
      </trkpt>
      <trkpt lat="42.1085530" lon="-8.8755040">
        <ele>33.9</ele>
        <time>2021-05-19T13:08:11Z</time>
      </trkpt>
      <trkpt lat="42.1085570" lon="-8.8754940">
        <ele>33.8</ele>
        <time>2021-05-19T13:08:12Z</time>
      </trkpt>
      <trkpt lat="42.1085610" lon="-8.8754840">
        <ele>33.8</ele>
        <time>2021-05-19T13:08:13Z</time>
      </trkpt>
      <trkpt lat="42.1085690" lon="-8.8754630">
        <ele>33.7</ele>
        <time>2021-05-19T13:08:14Z</time>
      </trkpt>
      <trkpt lat="42.1085760" lon="-8.8754530">
        <ele>33.6</ele>
        <time>2021-05-19T13:08:15Z</time>
      </trkpt>
      <trkpt lat="42.1085820" lon="-8.8754420">
        <ele>33.5</ele>
        <time>2021-05-19T13:08:16Z</time>
      </trkpt>
      <trkpt lat="42.1085860" lon="-8.8754270">
        <ele>33.4</ele>
        <time>2021-05-19T13:08:17Z</time>
      </trkpt>
      <trkpt lat="42.1085920" lon="-8.8754130">
        <ele>33.4</ele>
        <time>2021-05-19T13:08:18Z</time>
      </trkpt>
      <trkpt lat="42.1086000" lon="-8.8753990">
        <ele>33.3</ele>
        <time>2021-05-19T13:08:19Z</time>
      </trkpt>
      <trkpt lat="42.1085980" lon="-8.8753760">
        <ele>33.1</ele>
        <time>2021-05-19T13:08:20Z</time>
      </trkpt>
      <trkpt lat="42.1086050" lon="-8.8753560">
        <ele>33.0</ele>
        <time>2021-05-19T13:08:21Z</time>
      </trkpt>
      <trkpt lat="42.1086140" lon="-8.8753430">
        <ele>32.9</ele>
        <time>2021-05-19T13:08:22Z</time>
      </trkpt>
      <trkpt lat="42.1086170" lon="-8.8753310">
        <ele>32.9</ele>
        <time>2021-05-19T13:08:23Z</time>
      </trkpt>
      <trkpt lat="42.1086210" lon="-8.8753230">
        <ele>32.8</ele>
        <time>2021-05-19T13:08:24Z</time>
      </trkpt>
      <trkpt lat="42.1086340" lon="-8.8752960">
        <ele>32.7</ele>
        <time>2021-05-19T13:08:25Z</time>
      </trkpt>
      <trkpt lat="42.1086390" lon="-8.8752890">
        <ele>32.6</ele>
        <time>2021-05-19T13:08:26Z</time>
      </trkpt>
      <trkpt lat="42.1086440" lon="-8.8752810">
        <ele>32.6</ele>
        <time>2021-05-19T13:08:27Z</time>
      </trkpt>
      <trkpt lat="42.1086450" lon="-8.8752670">
        <ele>32.5</ele>
        <time>2021-05-19T13:08:28Z</time>
      </trkpt>
      <trkpt lat="42.1086540" lon="-8.8752510">
        <ele>32.4</ele>
        <time>2021-05-19T13:08:29Z</time>
      </trkpt>
      <trkpt lat="42.1086640" lon="-8.8752410">
        <ele>32.3</ele>
        <time>2021-05-19T13:08:30Z</time>
      </trkpt>
      <trkpt lat="42.1086710" lon="-8.8752280">
        <ele>32.2</ele>
        <time>2021-05-19T13:08:31Z</time>
      </trkpt>
      <trkpt lat="42.1086780" lon="-8.8752150">
        <ele>32.1</ele>
        <time>2021-05-19T13:08:32Z</time>
      </trkpt>
      <trkpt lat="42.1086810" lon="-8.8752000">
        <ele>32.1</ele>
        <time>2021-05-19T13:08:33Z</time>
      </trkpt>
      <trkpt lat="42.1086920" lon="-8.8751770">
        <ele>31.9</ele>
        <time>2021-05-19T13:08:34Z</time>
      </trkpt>
      <trkpt lat="42.1086990" lon="-8.8751680">
        <ele>31.9</ele>
        <time>2021-05-19T13:08:35Z</time>
      </trkpt>
      <trkpt lat="42.1087050" lon="-8.8751580">
        <ele>31.8</ele>
        <time>2021-05-19T13:08:36Z</time>
      </trkpt>
      <trkpt lat="42.1087120" lon="-8.8751470">
        <ele>31.8</ele>
        <time>2021-05-19T13:08:37Z</time>
      </trkpt>
      <trkpt lat="42.1087210" lon="-8.8751350">
        <ele>31.7</ele>
        <time>2021-05-19T13:08:38Z</time>
      </trkpt>
      <trkpt lat="42.1087290" lon="-8.8751210">
        <ele>31.6</ele>
        <time>2021-05-19T13:08:39Z</time>
      </trkpt>
      <trkpt lat="42.1087450" lon="-8.8751010">
        <ele>31.5</ele>
        <time>2021-05-19T13:08:40Z</time>
      </trkpt>
      <trkpt lat="42.1087510" lon="-8.8750930">
        <ele>31.5</ele>
        <time>2021-05-19T13:08:41Z</time>
      </trkpt>
      <trkpt lat="42.1087580" lon="-8.8750850">
        <ele>31.4</ele>
        <time>2021-05-19T13:08:42Z</time>
      </trkpt>
      <trkpt lat="42.1087640" lon="-8.8750700">
        <ele>31.4</ele>
        <time>2021-05-19T13:08:43Z</time>
      </trkpt>
      <trkpt lat="42.1087720" lon="-8.8750640">
        <ele>31.3</ele>
        <time>2021-05-19T13:08:44Z</time>
      </trkpt>
      <trkpt lat="42.1087790" lon="-8.8750540">
        <ele>31.3</ele>
        <time>2021-05-19T13:08:45Z</time>
      </trkpt>
      <trkpt lat="42.1087870" lon="-8.8750440">
        <ele>31.2</ele>
        <time>2021-05-19T13:08:46Z</time>
      </trkpt>
      <trkpt lat="42.1088040" lon="-8.8750360">
        <ele>31.1</ele>
        <time>2021-05-19T13:08:47Z</time>
      </trkpt>
      <trkpt lat="42.1088250" lon="-8.8750120">
        <ele>31.0</ele>
        <time>2021-05-19T13:08:48Z</time>
      </trkpt>
      <trkpt lat="42.1088330" lon="-8.8750020">
        <ele>31.0</ele>
        <time>2021-05-19T13:08:49Z</time>
      </trkpt>
      <trkpt lat="42.1088440" lon="-8.8749880">
        <ele>30.9</ele>
        <time>2021-05-19T13:08:50Z</time>
      </trkpt>
      <trkpt lat="42.1088610" lon="-8.8749780">
        <ele>30.8</ele>
        <time>2021-05-19T13:08:51Z</time>
      </trkpt>
      <trkpt lat="42.1088760" lon="-8.8749670">
        <ele>30.7</ele>
        <time>2021-05-19T13:08:52Z</time>
      </trkpt>
      <trkpt lat="42.1088910" lon="-8.8749570">
        <ele>30.6</ele>
        <time>2021-05-19T13:08:53Z</time>
      </trkpt>
      <trkpt lat="42.1089050" lon="-8.8749450">
        <ele>30.5</ele>
        <time>2021-05-19T13:08:54Z</time>
      </trkpt>
      <trkpt lat="42.1089150" lon="-8.8749320">
        <ele>30.5</ele>
        <time>2021-05-19T13:08:55Z</time>
      </trkpt>
      <trkpt lat="42.1089240" lon="-8.8749180">
        <ele>30.4</ele>
        <time>2021-05-19T13:08:56Z</time>
      </trkpt>
      <trkpt lat="42.1089280" lon="-8.8749030">
        <ele>30.3</ele>
        <time>2021-05-19T13:08:57Z</time>
      </trkpt>
      <trkpt lat="42.1089360" lon="-8.8748940">
        <ele>30.2</ele>
        <time>2021-05-19T13:08:58Z</time>
      </trkpt>
      <trkpt lat="42.1089530" lon="-8.8748780">
        <ele>30.1</ele>
        <time>2021-05-19T13:08:59Z</time>
      </trkpt>
      <trkpt lat="42.1089560" lon="-8.8748640">
        <ele>30.1</ele>
        <time>2021-05-19T13:09:00Z</time>
      </trkpt>
      <trkpt lat="42.1089630" lon="-8.8748530">
        <ele>30.2</ele>
        <time>2021-05-19T13:09:01Z</time>
      </trkpt>
      <trkpt lat="42.1089660" lon="-8.8748420">
        <ele>30.3</ele>
        <time>2021-05-19T13:09:02Z</time>
      </trkpt>
      <trkpt lat="42.1089730" lon="-8.8748270">
        <ele>30.5</ele>
        <time>2021-05-19T13:09:03Z</time>
      </trkpt>
      <trkpt lat="42.1089810" lon="-8.8747980">
        <ele>30.8</ele>
        <time>2021-05-19T13:09:04Z</time>
      </trkpt>
      <trkpt lat="42.1089850" lon="-8.8747870">
        <ele>30.8</ele>
        <time>2021-05-19T13:09:05Z</time>
      </trkpt>
      <trkpt lat="42.1089880" lon="-8.8747750">
        <ele>30.7</ele>
        <time>2021-05-19T13:09:06Z</time>
      </trkpt>
      <trkpt lat="42.1089880" lon="-8.8747600">
        <ele>30.5</ele>
        <time>2021-05-19T13:09:07Z</time>
      </trkpt>
      <trkpt lat="42.1089940" lon="-8.8747430">
        <ele>30.3</ele>
        <time>2021-05-19T13:09:08Z</time>
      </trkpt>
      <trkpt lat="42.1089900" lon="-8.8747270">
        <ele>30.1</ele>
        <time>2021-05-19T13:09:09Z</time>
      </trkpt>
      <trkpt lat="42.1089910" lon="-8.8747110">
        <ele>29.9</ele>
        <time>2021-05-19T13:09:10Z</time>
      </trkpt>
      <trkpt lat="42.1089960" lon="-8.8746960">
        <ele>29.7</ele>
        <time>2021-05-19T13:09:11Z</time>
      </trkpt>
      <trkpt lat="42.1090020" lon="-8.8746820">
        <ele>29.5</ele>
        <time>2021-05-19T13:09:12Z</time>
      </trkpt>
      <trkpt lat="42.1090090" lon="-8.8746590">
        <ele>29.2</ele>
        <time>2021-05-19T13:09:13Z</time>
      </trkpt>
      <trkpt lat="42.1090120" lon="-8.8746480">
        <ele>29.1</ele>
        <time>2021-05-19T13:09:14Z</time>
      </trkpt>
      <trkpt lat="42.1090160" lon="-8.8746360">
        <ele>28.9</ele>
        <time>2021-05-19T13:09:15Z</time>
      </trkpt>
      <trkpt lat="42.1090230" lon="-8.8746300">
        <ele>28.8</ele>
        <time>2021-05-19T13:09:16Z</time>
      </trkpt>
      <trkpt lat="42.1090260" lon="-8.8746150">
        <ele>28.6</ele>
        <time>2021-05-19T13:09:17Z</time>
      </trkpt>
      <trkpt lat="42.1090370" lon="-8.8746020">
        <ele>28.4</ele>
        <time>2021-05-19T13:09:18Z</time>
      </trkpt>
      <trkpt lat="42.1090490" lon="-8.8745890">
        <ele>28.1</ele>
        <time>2021-05-19T13:09:19Z</time>
      </trkpt>
      <trkpt lat="42.1090590" lon="-8.8745760">
        <ele>28.0</ele>
        <time>2021-05-19T13:09:20Z</time>
      </trkpt>
      <trkpt lat="42.1090660" lon="-8.8745520">
        <ele>27.9</ele>
        <time>2021-05-19T13:09:21Z</time>
      </trkpt>
      <trkpt lat="42.1090710" lon="-8.8745420">
        <ele>27.9</ele>
        <time>2021-05-19T13:09:22Z</time>
      </trkpt>
      <trkpt lat="42.1090750" lon="-8.8745320">
        <ele>27.9</ele>
        <time>2021-05-19T13:09:23Z</time>
      </trkpt>
      <trkpt lat="42.1090780" lon="-8.8745080">
        <ele>27.9</ele>
        <time>2021-05-19T13:09:24Z</time>
      </trkpt>
      <trkpt lat="42.1090800" lon="-8.8744950">
        <ele>27.9</ele>
        <time>2021-05-19T13:09:25Z</time>
      </trkpt>
      <trkpt lat="42.1090820" lon="-8.8744820">
        <ele>27.7</ele>
        <time>2021-05-19T13:09:26Z</time>
      </trkpt>
      <trkpt lat="42.1090840" lon="-8.8744580">
        <ele>27.5</ele>
        <time>2021-05-19T13:09:28Z</time>
      </trkpt>
      <trkpt lat="42.1090810" lon="-8.8744460">
        <ele>27.4</ele>
        <time>2021-05-19T13:09:29Z</time>
      </trkpt>
      <trkpt lat="42.1090790" lon="-8.8744330">
        <ele>27.2</ele>
        <time>2021-05-19T13:09:30Z</time>
      </trkpt>
      <trkpt lat="42.1090760" lon="-8.8744210">
        <ele>27.1</ele>
        <time>2021-05-19T13:09:31Z</time>
      </trkpt>
      <trkpt lat="42.1090780" lon="-8.8744060">
        <ele>26.9</ele>
        <time>2021-05-19T13:09:32Z</time>
      </trkpt>
      <trkpt lat="42.1090720" lon="-8.8743780">
        <ele>26.6</ele>
        <time>2021-05-19T13:09:33Z</time>
      </trkpt>
      <trkpt lat="42.1090810" lon="-8.8743680">
        <ele>26.5</ele>
        <time>2021-05-19T13:09:34Z</time>
      </trkpt>
      <trkpt lat="42.1090850" lon="-8.8743510">
        <ele>26.3</ele>
        <time>2021-05-19T13:09:35Z</time>
      </trkpt>
      <trkpt lat="42.1090850" lon="-8.8743340">
        <ele>26.1</ele>
        <time>2021-05-19T13:09:36Z</time>
      </trkpt>
      <trkpt lat="42.1090830" lon="-8.8743010">
        <ele>25.8</ele>
        <time>2021-05-19T13:09:37Z</time>
      </trkpt>
      <trkpt lat="42.1090810" lon="-8.8742860">
        <ele>25.7</ele>
        <time>2021-05-19T13:09:38Z</time>
      </trkpt>
      <trkpt lat="42.1090790" lon="-8.8742720">
        <ele>25.6</ele>
        <time>2021-05-19T13:09:39Z</time>
      </trkpt>
      <trkpt lat="42.1090780" lon="-8.8742550">
        <ele>25.4</ele>
        <time>2021-05-19T13:09:40Z</time>
      </trkpt>
      <trkpt lat="42.1090770" lon="-8.8742330">
        <ele>25.2</ele>
        <time>2021-05-19T13:09:41Z</time>
      </trkpt>
      <trkpt lat="42.1090740" lon="-8.8742220">
        <ele>25.1</ele>
        <time>2021-05-19T13:09:42Z</time>
      </trkpt>
      <trkpt lat="42.1090700" lon="-8.8742040">
        <ele>25.0</ele>
        <time>2021-05-19T13:09:43Z</time>
      </trkpt>
      <trkpt lat="42.1090710" lon="-8.8741870">
        <ele>24.8</ele>
        <time>2021-05-19T13:09:44Z</time>
      </trkpt>
      <trkpt lat="42.1090660" lon="-8.8741560">
        <ele>24.6</ele>
        <time>2021-05-19T13:09:45Z</time>
      </trkpt>
      <trkpt lat="42.1090660" lon="-8.8741440">
        <ele>24.5</ele>
        <time>2021-05-19T13:09:46Z</time>
      </trkpt>
      <trkpt lat="42.1090660" lon="-8.8741330">
        <ele>24.4</ele>
        <time>2021-05-19T13:09:47Z</time>
      </trkpt>
      <trkpt lat="42.1090630" lon="-8.8740990">
        <ele>24.2</ele>
        <time>2021-05-19T13:09:48Z</time>
      </trkpt>
      <trkpt lat="42.1090600" lon="-8.8740840">
        <ele>24.0</ele>
        <time>2021-05-19T13:09:49Z</time>
      </trkpt>
      <trkpt lat="42.1090600" lon="-8.8740620">
        <ele>23.9</ele>
        <time>2021-05-19T13:09:50Z</time>
      </trkpt>
      <trkpt lat="42.1090580" lon="-8.8740470">
        <ele>23.8</ele>
        <time>2021-05-19T13:09:51Z</time>
      </trkpt>
      <trkpt lat="42.1090570" lon="-8.8740330">
        <ele>23.7</ele>
        <time>2021-05-19T13:09:52Z</time>
      </trkpt>
      <trkpt lat="42.1090480" lon="-8.8740130">
        <ele>23.6</ele>
        <time>2021-05-19T13:09:53Z</time>
      </trkpt>
      <trkpt lat="42.1090460" lon="-8.8739870">
        <ele>23.4</ele>
        <time>2021-05-19T13:09:54Z</time>
      </trkpt>
      <trkpt lat="42.1090450" lon="-8.8739460">
        <ele>23.2</ele>
        <time>2021-05-19T13:09:55Z</time>
      </trkpt>
      <trkpt lat="42.1090450" lon="-8.8739350">
        <ele>23.2</ele>
        <time>2021-05-19T13:09:56Z</time>
      </trkpt>
      <trkpt lat="42.1090420" lon="-8.8739120">
        <ele>23.1</ele>
        <time>2021-05-19T13:09:57Z</time>
      </trkpt>
      <trkpt lat="42.1090410" lon="-8.8738930">
        <ele>23.0</ele>
        <time>2021-05-19T13:09:58Z</time>
      </trkpt>
      <trkpt lat="42.1090390" lon="-8.8738720">
        <ele>22.9</ele>
        <time>2021-05-19T13:09:59Z</time>
      </trkpt>
      <trkpt lat="42.1090380" lon="-8.8738530">
        <ele>22.8</ele>
        <time>2021-05-19T13:10:00Z</time>
      </trkpt>
      <trkpt lat="42.1090450" lon="-8.8738340">
        <ele>22.7</ele>
        <time>2021-05-19T13:10:01Z</time>
      </trkpt>
      <trkpt lat="42.1090480" lon="-8.8738110">
        <ele>22.7</ele>
        <time>2021-05-19T13:10:02Z</time>
      </trkpt>
      <trkpt lat="42.1090410" lon="-8.8737890">
        <ele>22.6</ele>
        <time>2021-05-19T13:10:03Z</time>
      </trkpt>
      <trkpt lat="42.1090430" lon="-8.8737680">
        <ele>22.5</ele>
        <time>2021-05-19T13:10:04Z</time>
      </trkpt>
      <trkpt lat="42.1090420" lon="-8.8737530">
        <ele>22.5</ele>
        <time>2021-05-19T13:10:05Z</time>
      </trkpt>
      <trkpt lat="42.1090420" lon="-8.8737470">
        <ele>22.4</ele>
        <time>2021-05-19T13:10:06Z</time>
      </trkpt>
      <trkpt lat="42.1090420" lon="-8.8737290">
        <ele>22.4</ele>
        <time>2021-05-19T13:10:07Z</time>
      </trkpt>
      <trkpt lat="42.1090360" lon="-8.8737170">
        <ele>22.3</ele>
        <time>2021-05-19T13:10:08Z</time>
      </trkpt>
      <trkpt lat="42.1090360" lon="-8.8737040">
        <ele>22.3</ele>
        <time>2021-05-19T13:10:09Z</time>
      </trkpt>
      <trkpt lat="42.1090350" lon="-8.8736920">
        <ele>22.3</ele>
        <time>2021-05-19T13:10:10Z</time>
      </trkpt>
      <trkpt lat="42.1090340" lon="-8.8736800">
        <ele>22.2</ele>
        <time>2021-05-19T13:10:11Z</time>
      </trkpt>
      <trkpt lat="42.1090330" lon="-8.8736540">
        <ele>22.1</ele>
        <time>2021-05-19T13:10:12Z</time>
      </trkpt>
      <trkpt lat="42.1090340" lon="-8.8736460">
        <ele>22.1</ele>
        <time>2021-05-19T13:10:13Z</time>
      </trkpt>
      <trkpt lat="42.1090340" lon="-8.8736370">
        <ele>22.1</ele>
        <time>2021-05-19T13:10:14Z</time>
      </trkpt>
      <trkpt lat="42.1090350" lon="-8.8736280">
        <ele>22.1</ele>
        <time>2021-05-19T13:10:15Z</time>
      </trkpt>
      <trkpt lat="42.1090430" lon="-8.8736140">
        <ele>22.1</ele>
        <time>2021-05-19T13:10:16Z</time>
      </trkpt>
      <trkpt lat="42.1090450" lon="-8.8736060">
        <ele>22.1</ele>
        <time>2021-05-19T13:10:17Z</time>
      </trkpt>
      <trkpt lat="42.1090490" lon="-8.8735960">
        <ele>22.1</ele>
        <time>2021-05-19T13:10:18Z</time>
      </trkpt>
      <trkpt lat="42.1090550" lon="-8.8735870">
        <ele>22.1</ele>
        <time>2021-05-19T13:10:19Z</time>
      </trkpt>
      <trkpt lat="42.1090620" lon="-8.8735770">
        <ele>22.1</ele>
        <time>2021-05-19T13:10:20Z</time>
      </trkpt>
      <trkpt lat="42.1090700" lon="-8.8735600">
        <ele>22.1</ele>
        <time>2021-05-19T13:10:21Z</time>
      </trkpt>
      <trkpt lat="42.1090740" lon="-8.8735440">
        <ele>22.1</ele>
        <time>2021-05-19T13:10:22Z</time>
      </trkpt>
      <trkpt lat="42.1090830" lon="-8.8735320">
        <ele>22.1</ele>
        <time>2021-05-19T13:10:23Z</time>
      </trkpt>
      <trkpt lat="42.1090930" lon="-8.8735210">
        <ele>22.1</ele>
        <time>2021-05-19T13:10:24Z</time>
      </trkpt>
      <trkpt lat="42.1091030" lon="-8.8735050">
        <ele>22.1</ele>
        <time>2021-05-19T13:10:25Z</time>
      </trkpt>
      <trkpt lat="42.1091110" lon="-8.8734980">
        <ele>22.1</ele>
        <time>2021-05-19T13:10:26Z</time>
      </trkpt>
      <trkpt lat="42.1091180" lon="-8.8734910">
        <ele>22.1</ele>
        <time>2021-05-19T13:10:27Z</time>
      </trkpt>
      <trkpt lat="42.1091260" lon="-8.8734840">
        <ele>22.1</ele>
        <time>2021-05-19T13:10:28Z</time>
      </trkpt>
      <trkpt lat="42.1091400" lon="-8.8734740">
        <ele>22.0</ele>
        <time>2021-05-19T13:10:29Z</time>
      </trkpt>
      <trkpt lat="42.1091510" lon="-8.8734650">
        <ele>22.0</ele>
        <time>2021-05-19T13:10:30Z</time>
      </trkpt>
      <trkpt lat="42.1091630" lon="-8.8734550">
        <ele>22.0</ele>
        <time>2021-05-19T13:10:31Z</time>
      </trkpt>
      <trkpt lat="42.1091710" lon="-8.8734520">
        <ele>22.0</ele>
        <time>2021-05-19T13:10:32Z</time>
      </trkpt>
      <trkpt lat="42.1091780" lon="-8.8734460">
        <ele>22.0</ele>
        <time>2021-05-19T13:10:33Z</time>
      </trkpt>
      <trkpt lat="42.1091940" lon="-8.8734320">
        <ele>22.0</ele>
        <time>2021-05-19T13:10:34Z</time>
      </trkpt>
      <trkpt lat="42.1092000" lon="-8.8734200">
        <ele>22.0</ele>
        <time>2021-05-19T13:10:35Z</time>
      </trkpt>
      <trkpt lat="42.1092150" lon="-8.8734100">
        <ele>22.0</ele>
        <time>2021-05-19T13:10:36Z</time>
      </trkpt>
      <trkpt lat="42.1092250" lon="-8.8734010">
        <ele>22.0</ele>
        <time>2021-05-19T13:10:37Z</time>
      </trkpt>
      <trkpt lat="42.1092350" lon="-8.8733910">
        <ele>21.9</ele>
        <time>2021-05-19T13:10:38Z</time>
      </trkpt>
      <trkpt lat="42.1092490" lon="-8.8733800">
        <ele>21.9</ele>
        <time>2021-05-19T13:10:39Z</time>
      </trkpt>
      <trkpt lat="42.1092600" lon="-8.8733750">
        <ele>21.9</ele>
        <time>2021-05-19T13:10:40Z</time>
      </trkpt>
      <trkpt lat="42.1092680" lon="-8.8733670">
        <ele>21.9</ele>
        <time>2021-05-19T13:10:41Z</time>
      </trkpt>
      <trkpt lat="42.1092740" lon="-8.8733660">
        <ele>21.9</ele>
        <time>2021-05-19T13:10:42Z</time>
      </trkpt>
      <trkpt lat="42.1092870" lon="-8.8733610">
        <ele>21.9</ele>
        <time>2021-05-19T13:10:43Z</time>
      </trkpt>
      <trkpt lat="42.1092960" lon="-8.8733570">
        <ele>21.9</ele>
        <time>2021-05-19T13:10:44Z</time>
      </trkpt>
      <trkpt lat="42.1093050" lon="-8.8733520">
        <ele>22.0</ele>
        <time>2021-05-19T13:10:45Z</time>
      </trkpt>
      <trkpt lat="42.1093160" lon="-8.8733490">
        <ele>22.0</ele>
        <time>2021-05-19T13:10:46Z</time>
      </trkpt>
      <trkpt lat="42.1093250" lon="-8.8733390">
        <ele>22.0</ele>
        <time>2021-05-19T13:10:47Z</time>
      </trkpt>
      <trkpt lat="42.1093290" lon="-8.8733330">
        <ele>22.0</ele>
        <time>2021-05-19T13:10:48Z</time>
      </trkpt>
      <trkpt lat="42.1093400" lon="-8.8733290">
        <ele>22.0</ele>
        <time>2021-05-19T13:10:49Z</time>
      </trkpt>
      <trkpt lat="42.1093520" lon="-8.8733250">
        <ele>22.0</ele>
        <time>2021-05-19T13:10:50Z</time>
      </trkpt>
      <trkpt lat="42.1093630" lon="-8.8733220">
        <ele>22.0</ele>
        <time>2021-05-19T13:10:51Z</time>
      </trkpt>
      <trkpt lat="42.1093740" lon="-8.8733170">
        <ele>22.0</ele>
        <time>2021-05-19T13:10:52Z</time>
      </trkpt>
      <trkpt lat="42.1093830" lon="-8.8733090">
        <ele>22.0</ele>
        <time>2021-05-19T13:10:53Z</time>
      </trkpt>
      <trkpt lat="42.1093950" lon="-8.8732990">
        <ele>22.1</ele>
        <time>2021-05-19T13:10:54Z</time>
      </trkpt>
      <trkpt lat="42.1094050" lon="-8.8732900">
        <ele>22.1</ele>
        <time>2021-05-19T13:10:55Z</time>
      </trkpt>
      <trkpt lat="42.1094160" lon="-8.8732830">
        <ele>22.1</ele>
        <time>2021-05-19T13:10:56Z</time>
      </trkpt>
      <trkpt lat="42.1094220" lon="-8.8732780">
        <ele>22.1</ele>
        <time>2021-05-19T13:10:57Z</time>
      </trkpt>
      <trkpt lat="42.1094440" lon="-8.8732790">
        <ele>22.2</ele>
        <time>2021-05-19T13:10:58Z</time>
      </trkpt>
      <trkpt lat="42.1094540" lon="-8.8732780">
        <ele>22.2</ele>
        <time>2021-05-19T13:10:59Z</time>
      </trkpt>
      <trkpt lat="42.1094640" lon="-8.8732770">
        <ele>22.2</ele>
        <time>2021-05-19T13:11:00Z</time>
      </trkpt>
      <trkpt lat="42.1094750" lon="-8.8732760">
        <ele>22.3</ele>
        <time>2021-05-19T13:11:01Z</time>
      </trkpt>
      <trkpt lat="42.1094850" lon="-8.8732680">
        <ele>22.3</ele>
        <time>2021-05-19T13:11:02Z</time>
      </trkpt>
      <trkpt lat="42.1094930" lon="-8.8732670">
        <ele>22.3</ele>
        <time>2021-05-19T13:11:03Z</time>
      </trkpt>
      <trkpt lat="42.1095060" lon="-8.8732620">
        <ele>22.4</ele>
        <time>2021-05-19T13:11:04Z</time>
      </trkpt>
      <trkpt lat="42.1095120" lon="-8.8732570">
        <ele>22.4</ele>
        <time>2021-05-19T13:11:05Z</time>
      </trkpt>
      <trkpt lat="42.1095260" lon="-8.8732490">
        <ele>22.5</ele>
        <time>2021-05-19T13:11:06Z</time>
      </trkpt>
      <trkpt lat="42.1095420" lon="-8.8732490">
        <ele>22.5</ele>
        <time>2021-05-19T13:11:07Z</time>
      </trkpt>
      <trkpt lat="42.1095560" lon="-8.8732440">
        <ele>22.6</ele>
        <time>2021-05-19T13:11:08Z</time>
      </trkpt>
      <trkpt lat="42.1095700" lon="-8.8732430">
        <ele>22.7</ele>
        <time>2021-05-19T13:11:09Z</time>
      </trkpt>
      <trkpt lat="42.1095860" lon="-8.8732440">
        <ele>22.8</ele>
        <time>2021-05-19T13:11:10Z</time>
      </trkpt>
      <trkpt lat="42.1095970" lon="-8.8732450">
        <ele>22.8</ele>
        <time>2021-05-19T13:11:11Z</time>
      </trkpt>
      <trkpt lat="42.1096160" lon="-8.8732480">
        <ele>22.9</ele>
        <time>2021-05-19T13:11:12Z</time>
      </trkpt>
      <trkpt lat="42.1096350" lon="-8.8732470">
        <ele>23.0</ele>
        <time>2021-05-19T13:11:13Z</time>
      </trkpt>
      <trkpt lat="42.1096440" lon="-8.8732480">
        <ele>23.0</ele>
        <time>2021-05-19T13:11:14Z</time>
      </trkpt>
      <trkpt lat="42.1096530" lon="-8.8732480">
        <ele>23.1</ele>
        <time>2021-05-19T13:11:15Z</time>
      </trkpt>
      <trkpt lat="42.1096750" lon="-8.8732450">
        <ele>23.2</ele>
        <time>2021-05-19T13:11:16Z</time>
      </trkpt>
      <trkpt lat="42.1096840" lon="-8.8732420">
        <ele>23.2</ele>
        <time>2021-05-19T13:11:17Z</time>
      </trkpt>
      <trkpt lat="42.1096940" lon="-8.8732380">
        <ele>23.3</ele>
        <time>2021-05-19T13:11:18Z</time>
      </trkpt>
      <trkpt lat="42.1097080" lon="-8.8732320">
        <ele>23.4</ele>
        <time>2021-05-19T13:11:19Z</time>
      </trkpt>
      <trkpt lat="42.1097220" lon="-8.8732180">
        <ele>23.4</ele>
        <time>2021-05-19T13:11:20Z</time>
      </trkpt>
      <trkpt lat="42.1097320" lon="-8.8732100">
        <ele>23.5</ele>
        <time>2021-05-19T13:11:21Z</time>
      </trkpt>
      <trkpt lat="42.1097450" lon="-8.8732050">
        <ele>23.6</ele>
        <time>2021-05-19T13:11:22Z</time>
      </trkpt>
      <trkpt lat="42.1097550" lon="-8.8731970">
        <ele>23.6</ele>
        <time>2021-05-19T13:11:23Z</time>
      </trkpt>
      <trkpt lat="42.1097610" lon="-8.8731800">
        <ele>23.7</ele>
        <time>2021-05-19T13:11:24Z</time>
      </trkpt>
      <trkpt lat="42.1097670" lon="-8.8731720">
        <ele>23.7</ele>
        <time>2021-05-19T13:11:25Z</time>
      </trkpt>
      <trkpt lat="42.1097760" lon="-8.8731600">
        <ele>23.8</ele>
        <time>2021-05-19T13:11:26Z</time>
      </trkpt>
      <trkpt lat="42.1097890" lon="-8.8731350">
        <ele>23.9</ele>
        <time>2021-05-19T13:11:27Z</time>
      </trkpt>
      <trkpt lat="42.1097930" lon="-8.8731260">
        <ele>24.0</ele>
        <time>2021-05-19T13:11:28Z</time>
      </trkpt>
      <trkpt lat="42.1097970" lon="-8.8731160">
        <ele>24.0</ele>
        <time>2021-05-19T13:11:29Z</time>
      </trkpt>
      <trkpt lat="42.1098140" lon="-8.8730960">
        <ele>24.2</ele>
        <time>2021-05-19T13:11:30Z</time>
      </trkpt>
      <trkpt lat="42.1098150" lon="-8.8730860">
        <ele>24.2</ele>
        <time>2021-05-19T13:11:31Z</time>
      </trkpt>
      <trkpt lat="42.1098310" lon="-8.8730690">
        <ele>24.3</ele>
        <time>2021-05-19T13:11:32Z</time>
      </trkpt>
      <trkpt lat="42.1098350" lon="-8.8730590">
        <ele>24.4</ele>
        <time>2021-05-19T13:11:33Z</time>
      </trkpt>
      <trkpt lat="42.1098480" lon="-8.8730510">
        <ele>24.5</ele>
        <time>2021-05-19T13:11:34Z</time>
      </trkpt>
      <trkpt lat="42.1098570" lon="-8.8730420">
        <ele>24.5</ele>
        <time>2021-05-19T13:11:35Z</time>
      </trkpt>
      <trkpt lat="42.1098670" lon="-8.8730420">
        <ele>24.6</ele>
        <time>2021-05-19T13:11:36Z</time>
      </trkpt>
      <trkpt lat="42.1098800" lon="-8.8730190">
        <ele>24.7</ele>
        <time>2021-05-19T13:11:37Z</time>
      </trkpt>
      <trkpt lat="42.1098830" lon="-8.8730100">
        <ele>24.7</ele>
        <time>2021-05-19T13:11:38Z</time>
      </trkpt>
      <trkpt lat="42.1098870" lon="-8.8730000">
        <ele>24.8</ele>
        <time>2021-05-19T13:11:39Z</time>
      </trkpt>
      <trkpt lat="42.1098960" lon="-8.8729780">
        <ele>24.9</ele>
        <time>2021-05-19T13:11:40Z</time>
      </trkpt>
      <trkpt lat="42.1099020" lon="-8.8729680">
        <ele>24.9</ele>
        <time>2021-05-19T13:11:41Z</time>
      </trkpt>
      <trkpt lat="42.1099070" lon="-8.8729590">
        <ele>25.0</ele>
        <time>2021-05-19T13:11:42Z</time>
      </trkpt>
      <trkpt lat="42.1099110" lon="-8.8729330">
        <ele>25.1</ele>
        <time>2021-05-19T13:11:43Z</time>
      </trkpt>
      <trkpt lat="42.1099110" lon="-8.8729200">
        <ele>25.1</ele>
        <time>2021-05-19T13:11:44Z</time>
      </trkpt>
      <trkpt lat="42.1099120" lon="-8.8729080">
        <ele>25.2</ele>
        <time>2021-05-19T13:11:45Z</time>
      </trkpt>
      <trkpt lat="42.1099190" lon="-8.8728830">
        <ele>25.2</ele>
        <time>2021-05-19T13:11:46Z</time>
      </trkpt>
      <trkpt lat="42.1099220" lon="-8.8728720">
        <ele>25.3</ele>
        <time>2021-05-19T13:11:47Z</time>
      </trkpt>
      <trkpt lat="42.1099240" lon="-8.8728610">
        <ele>25.3</ele>
        <time>2021-05-19T13:11:48Z</time>
      </trkpt>
      <trkpt lat="42.1099310" lon="-8.8728470">
        <ele>25.3</ele>
        <time>2021-05-19T13:11:49Z</time>
      </trkpt>
      <trkpt lat="42.1099430" lon="-8.8728310">
        <ele>25.4</ele>
        <time>2021-05-19T13:11:50Z</time>
      </trkpt>
      <trkpt lat="42.1099510" lon="-8.8727990">
        <ele>25.5</ele>
        <time>2021-05-19T13:11:51Z</time>
      </trkpt>
      <trkpt lat="42.1099560" lon="-8.8727890">
        <ele>25.5</ele>
        <time>2021-05-19T13:11:52Z</time>
      </trkpt>
      <trkpt lat="42.1099610" lon="-8.8727780">
        <ele>25.6</ele>
        <time>2021-05-19T13:11:53Z</time>
      </trkpt>
      <trkpt lat="42.1099660" lon="-8.8727490">
        <ele>25.6</ele>
        <time>2021-05-19T13:11:54Z</time>
      </trkpt>
      <trkpt lat="42.1099660" lon="-8.8727360">
        <ele>25.7</ele>
        <time>2021-05-19T13:11:55Z</time>
      </trkpt>
      <trkpt lat="42.1099670" lon="-8.8727240">
        <ele>25.7</ele>
        <time>2021-05-19T13:11:56Z</time>
      </trkpt>
      <trkpt lat="42.1099770" lon="-8.8726940">
        <ele>25.8</ele>
        <time>2021-05-19T13:11:57Z</time>
      </trkpt>
      <trkpt lat="42.1099830" lon="-8.8726830">
        <ele>25.8</ele>
        <time>2021-05-19T13:11:58Z</time>
      </trkpt>
      <trkpt lat="42.1099880" lon="-8.8726730">
        <ele>25.8</ele>
        <time>2021-05-19T13:11:59Z</time>
      </trkpt>
      <trkpt lat="42.1099930" lon="-8.8726620">
        <ele>25.8</ele>
        <time>2021-05-19T13:12:00Z</time>
      </trkpt>
      <trkpt lat="42.1099980" lon="-8.8726450">
        <ele>25.8</ele>
        <time>2021-05-19T13:12:01Z</time>
      </trkpt>
      <trkpt lat="42.1100030" lon="-8.8726340">
        <ele>25.9</ele>
        <time>2021-05-19T13:12:02Z</time>
      </trkpt>
      <trkpt lat="42.1100100" lon="-8.8726200">
        <ele>25.9</ele>
        <time>2021-05-19T13:12:03Z</time>
      </trkpt>
      <trkpt lat="42.1100110" lon="-8.8726010">
        <ele>25.9</ele>
        <time>2021-05-19T13:12:04Z</time>
      </trkpt>
      <trkpt lat="42.1100160" lon="-8.8725890">
        <ele>25.9</ele>
        <time>2021-05-19T13:12:05Z</time>
      </trkpt>
      <trkpt lat="42.1100160" lon="-8.8725770">
        <ele>26.0</ele>
        <time>2021-05-19T13:12:06Z</time>
      </trkpt>
      <trkpt lat="42.1100200" lon="-8.8725580">
        <ele>26.1</ele>
        <time>2021-05-19T13:12:07Z</time>
      </trkpt>
      <trkpt lat="42.1100230" lon="-8.8725410">
        <ele>26.1</ele>
        <time>2021-05-19T13:12:08Z</time>
      </trkpt>
      <trkpt lat="42.1100260" lon="-8.8725250">
        <ele>26.2</ele>
        <time>2021-05-19T13:12:09Z</time>
      </trkpt>
      <trkpt lat="42.1100250" lon="-8.8725180">
        <ele>26.2</ele>
        <time>2021-05-19T13:12:10Z</time>
      </trkpt>
      <trkpt lat="42.1100260" lon="-8.8725030">
        <ele>26.3</ele>
        <time>2021-05-19T13:12:11Z</time>
      </trkpt>
      <trkpt lat="42.1100230" lon="-8.8724940">
        <ele>26.3</ele>
        <time>2021-05-19T13:12:12Z</time>
      </trkpt>
      <trkpt lat="42.1100260" lon="-8.8724740">
        <ele>26.4</ele>
        <time>2021-05-19T13:12:13Z</time>
      </trkpt>
      <trkpt lat="42.1100270" lon="-8.8724630">
        <ele>26.4</ele>
        <time>2021-05-19T13:12:14Z</time>
      </trkpt>
      <trkpt lat="42.1100250" lon="-8.8724510">
        <ele>26.5</ele>
        <time>2021-05-19T13:12:15Z</time>
      </trkpt>
      <trkpt lat="42.1100280" lon="-8.8724340">
        <ele>26.5</ele>
        <time>2021-05-19T13:12:16Z</time>
      </trkpt>
      <trkpt lat="42.1100260" lon="-8.8724260">
        <ele>26.6</ele>
        <time>2021-05-19T13:12:17Z</time>
      </trkpt>
      <trkpt lat="42.1100260" lon="-8.8724060">
        <ele>26.7</ele>
        <time>2021-05-19T13:12:18Z</time>
      </trkpt>
      <trkpt lat="42.1100260" lon="-8.8723980">
        <ele>26.7</ele>
        <time>2021-05-19T13:12:19Z</time>
      </trkpt>
      <trkpt lat="42.1100280" lon="-8.8723780">
        <ele>26.8</ele>
        <time>2021-05-19T13:12:20Z</time>
      </trkpt>
      <trkpt lat="42.1100280" lon="-8.8723570">
        <ele>26.9</ele>
        <time>2021-05-19T13:12:21Z</time>
      </trkpt>
      <trkpt lat="42.1100310" lon="-8.8723420">
        <ele>27.0</ele>
        <time>2021-05-19T13:12:22Z</time>
      </trkpt>
      <trkpt lat="42.1100360" lon="-8.8723120">
        <ele>27.1</ele>
        <time>2021-05-19T13:12:23Z</time>
      </trkpt>
      <trkpt lat="42.1100370" lon="-8.8723000">
        <ele>27.2</ele>
        <time>2021-05-19T13:12:24Z</time>
      </trkpt>
      <trkpt lat="42.1100390" lon="-8.8722890">
        <ele>27.3</ele>
        <time>2021-05-19T13:12:25Z</time>
      </trkpt>
      <trkpt lat="42.1100400" lon="-8.8722620">
        <ele>27.4</ele>
        <time>2021-05-19T13:12:26Z</time>
      </trkpt>
      <trkpt lat="42.1100380" lon="-8.8722480">
        <ele>27.5</ele>
        <time>2021-05-19T13:12:27Z</time>
      </trkpt>
      <trkpt lat="42.1100360" lon="-8.8722350">
        <ele>27.6</ele>
        <time>2021-05-19T13:12:28Z</time>
      </trkpt>
      <trkpt lat="42.1100340" lon="-8.8722220">
        <ele>27.7</ele>
        <time>2021-05-19T13:12:29Z</time>
      </trkpt>
      <trkpt lat="42.1100240" lon="-8.8722140">
        <ele>27.8</ele>
        <time>2021-05-19T13:12:30Z</time>
      </trkpt>
      <trkpt lat="42.1100160" lon="-8.8721880">
        <ele>27.9</ele>
        <time>2021-05-19T13:12:31Z</time>
      </trkpt>
      <trkpt lat="42.1100100" lon="-8.8721780">
        <ele>28.0</ele>
        <time>2021-05-19T13:12:32Z</time>
      </trkpt>
      <trkpt lat="42.1099990" lon="-8.8721500">
        <ele>28.2</ele>
        <time>2021-05-19T13:12:33Z</time>
      </trkpt>
      <trkpt lat="42.1099910" lon="-8.8721420">
        <ele>28.3</ele>
        <time>2021-05-19T13:12:34Z</time>
      </trkpt>
      <trkpt lat="42.1099850" lon="-8.8721280">
        <ele>28.4</ele>
        <time>2021-05-19T13:12:35Z</time>
      </trkpt>
      <trkpt lat="42.1099810" lon="-8.8721140">
        <ele>28.5</ele>
        <time>2021-05-19T13:12:36Z</time>
      </trkpt>
      <trkpt lat="42.1099800" lon="-8.8720960">
        <ele>28.6</ele>
        <time>2021-05-19T13:12:37Z</time>
      </trkpt>
      <trkpt lat="42.1099780" lon="-8.8720660">
        <ele>28.8</ele>
        <time>2021-05-19T13:12:38Z</time>
      </trkpt>
      <trkpt lat="42.1099810" lon="-8.8720500">
        <ele>28.9</ele>
        <time>2021-05-19T13:12:39Z</time>
      </trkpt>
      <trkpt lat="42.1099810" lon="-8.8720310">
        <ele>29.0</ele>
        <time>2021-05-19T13:12:40Z</time>
      </trkpt>
      <trkpt lat="42.1099850" lon="-8.8720200">
        <ele>29.0</ele>
        <time>2021-05-19T13:12:41Z</time>
      </trkpt>
      <trkpt lat="42.1099930" lon="-8.8720110">
        <ele>29.3</ele>
        <time>2021-05-19T13:12:42Z</time>
      </trkpt>
      <trkpt lat="42.1099940" lon="-8.8719960">
        <ele>29.6</ele>
        <time>2021-05-19T13:12:43Z</time>
      </trkpt>
      <trkpt lat="42.1099970" lon="-8.8719830">
        <ele>29.9</ele>
        <time>2021-05-19T13:12:44Z</time>
      </trkpt>
      <trkpt lat="42.1099970" lon="-8.8719680">
        <ele>30.2</ele>
        <time>2021-05-19T13:12:45Z</time>
      </trkpt>
      <trkpt lat="42.1100050" lon="-8.8719460">
        <ele>30.7</ele>
        <time>2021-05-19T13:12:46Z</time>
      </trkpt>
      <trkpt lat="42.1100130" lon="-8.8719250">
        <ele>31.1</ele>
        <time>2021-05-19T13:12:47Z</time>
      </trkpt>
      <trkpt lat="42.1100210" lon="-8.8719150">
        <ele>31.4</ele>
        <time>2021-05-19T13:12:48Z</time>
      </trkpt>
      <trkpt lat="42.1100280" lon="-8.8719050">
        <ele>31.7</ele>
        <time>2021-05-19T13:12:49Z</time>
      </trkpt>
      <trkpt lat="42.1100260" lon="-8.8718960">
        <ele>31.9</ele>
        <time>2021-05-19T13:12:50Z</time>
      </trkpt>
      <trkpt lat="42.1100300" lon="-8.8718830">
        <ele>32.1</ele>
        <time>2021-05-19T13:12:51Z</time>
      </trkpt>
      <trkpt lat="42.1100370" lon="-8.8718710">
        <ele>32.4</ele>
        <time>2021-05-19T13:12:52Z</time>
      </trkpt>
      <trkpt lat="42.1100460" lon="-8.8718700">
        <ele>32.7</ele>
        <time>2021-05-19T13:12:53Z</time>
      </trkpt>
      <trkpt lat="42.1100570" lon="-8.8718640">
        <ele>33.0</ele>
        <time>2021-05-19T13:12:54Z</time>
      </trkpt>
      <trkpt lat="42.1100650" lon="-8.8718550">
        <ele>33.3</ele>
        <time>2021-05-19T13:12:55Z</time>
      </trkpt>
      <trkpt lat="42.1100720" lon="-8.8718440">
        <ele>33.6</ele>
        <time>2021-05-19T13:12:56Z</time>
      </trkpt>
      <trkpt lat="42.1100780" lon="-8.8718420">
        <ele>33.7</ele>
        <time>2021-05-19T13:12:57Z</time>
      </trkpt>
      <trkpt lat="42.1100880" lon="-8.8718290">
        <ele>34.5</ele>
        <time>2021-05-19T13:12:58Z</time>
      </trkpt>
      <trkpt lat="42.1101000" lon="-8.8718210">
        <ele>34.5</ele>
        <time>2021-05-19T13:12:59Z</time>
      </trkpt>
      <trkpt lat="42.1101070" lon="-8.8718150">
        <ele>34.5</ele>
        <time>2021-05-19T13:13:00Z</time>
      </trkpt>
      <trkpt lat="42.1101130" lon="-8.8718040">
        <ele>34.5</ele>
        <time>2021-05-19T13:13:01Z</time>
      </trkpt>
      <trkpt lat="42.1101270" lon="-8.8717920">
        <ele>34.5</ele>
        <time>2021-05-19T13:13:02Z</time>
      </trkpt>
      <trkpt lat="42.1101380" lon="-8.8717850">
        <ele>34.5</ele>
        <time>2021-05-19T13:13:03Z</time>
      </trkpt>
      <trkpt lat="42.1101490" lon="-8.8717790">
        <ele>34.5</ele>
        <time>2021-05-19T13:13:04Z</time>
      </trkpt>
      <trkpt lat="42.1101650" lon="-8.8717710">
        <ele>34.5</ele>
        <time>2021-05-19T13:13:05Z</time>
      </trkpt>
      <trkpt lat="42.1101790" lon="-8.8717580">
        <ele>34.5</ele>
        <time>2021-05-19T13:13:06Z</time>
      </trkpt>
      <trkpt lat="42.1101940" lon="-8.8717440">
        <ele>34.6</ele>
        <time>2021-05-19T13:13:07Z</time>
      </trkpt>
      <trkpt lat="42.1102060" lon="-8.8717340">
        <ele>34.6</ele>
        <time>2021-05-19T13:13:08Z</time>
      </trkpt>
      <trkpt lat="42.1102180" lon="-8.8717150">
        <ele>34.6</ele>
        <time>2021-05-19T13:13:09Z</time>
      </trkpt>
      <trkpt lat="42.1102280" lon="-8.8717090">
        <ele>34.6</ele>
        <time>2021-05-19T13:13:10Z</time>
      </trkpt>
      <trkpt lat="42.1102420" lon="-8.8716990">
        <ele>34.6</ele>
        <time>2021-05-19T13:13:11Z</time>
      </trkpt>
      <trkpt lat="42.1102510" lon="-8.8716890">
        <ele>34.6</ele>
        <time>2021-05-19T13:13:12Z</time>
      </trkpt>
      <trkpt lat="42.1102650" lon="-8.8716820">
        <ele>34.6</ele>
        <time>2021-05-19T13:13:13Z</time>
      </trkpt>
      <trkpt lat="42.1102790" lon="-8.8716730">
        <ele>34.7</ele>
        <time>2021-05-19T13:13:14Z</time>
      </trkpt>
      <trkpt lat="42.1102850" lon="-8.8716630">
        <ele>34.7</ele>
        <time>2021-05-19T13:13:15Z</time>
      </trkpt>
      <trkpt lat="42.1102910" lon="-8.8716560">
        <ele>34.7</ele>
        <time>2021-05-19T13:13:16Z</time>
      </trkpt>
      <trkpt lat="42.1103020" lon="-8.8716450">
        <ele>34.7</ele>
        <time>2021-05-19T13:13:17Z</time>
      </trkpt>
      <trkpt lat="42.1103140" lon="-8.8716360">
        <ele>34.7</ele>
        <time>2021-05-19T13:13:18Z</time>
      </trkpt>
      <trkpt lat="42.1103240" lon="-8.8716140">
        <ele>34.7</ele>
        <time>2021-05-19T13:13:19Z</time>
      </trkpt>
      <trkpt lat="42.1103360" lon="-8.8716060">
        <ele>34.7</ele>
        <time>2021-05-19T13:13:20Z</time>
      </trkpt>
      <trkpt lat="42.1103410" lon="-8.8715920">
        <ele>34.7</ele>
        <time>2021-05-19T13:13:21Z</time>
      </trkpt>
      <trkpt lat="42.1103450" lon="-8.8715810">
        <ele>34.7</ele>
        <time>2021-05-19T13:13:22Z</time>
      </trkpt>
      <trkpt lat="42.1103660" lon="-8.8715700">
        <ele>34.7</ele>
        <time>2021-05-19T13:13:23Z</time>
      </trkpt>
      <trkpt lat="42.1103750" lon="-8.8715650">
        <ele>34.7</ele>
        <time>2021-05-19T13:13:24Z</time>
      </trkpt>
      <trkpt lat="42.1103850" lon="-8.8715610">
        <ele>34.7</ele>
        <time>2021-05-19T13:13:25Z</time>
      </trkpt>
      <trkpt lat="42.1104010" lon="-8.8715530">
        <ele>34.7</ele>
        <time>2021-05-19T13:13:26Z</time>
      </trkpt>
      <trkpt lat="42.1104170" lon="-8.8715440">
        <ele>34.7</ele>
        <time>2021-05-19T13:13:27Z</time>
      </trkpt>
      <trkpt lat="42.1104470" lon="-8.8715270">
        <ele>34.8</ele>
        <time>2021-05-19T13:13:28Z</time>
      </trkpt>
      <trkpt lat="42.1104550" lon="-8.8715240">
        <ele>34.8</ele>
        <time>2021-05-19T13:13:29Z</time>
      </trkpt>
      <trkpt lat="42.1104730" lon="-8.8715250">
        <ele>34.8</ele>
        <time>2021-05-19T13:13:30Z</time>
      </trkpt>
      <trkpt lat="42.1104900" lon="-8.8715190">
        <ele>34.8</ele>
        <time>2021-05-19T13:13:31Z</time>
      </trkpt>
      <trkpt lat="42.1105050" lon="-8.8715110">
        <ele>34.8</ele>
        <time>2021-05-19T13:13:32Z</time>
      </trkpt>
      <trkpt lat="42.1105170" lon="-8.8715050">
        <ele>34.8</ele>
        <time>2021-05-19T13:13:33Z</time>
      </trkpt>
      <trkpt lat="42.1105300" lon="-8.8715020">
        <ele>34.8</ele>
        <time>2021-05-19T13:13:34Z</time>
      </trkpt>
      <trkpt lat="42.1105390" lon="-8.8715010">
        <ele>34.8</ele>
        <time>2021-05-19T13:13:35Z</time>
      </trkpt>
      <trkpt lat="42.1105450" lon="-8.8714980">
        <ele>34.8</ele>
        <time>2021-05-19T13:13:36Z</time>
      </trkpt>
      <trkpt lat="42.1105550" lon="-8.8714890">
        <ele>34.8</ele>
        <time>2021-05-19T13:13:37Z</time>
      </trkpt>
      <trkpt lat="42.1105660" lon="-8.8714860">
        <ele>34.8</ele>
        <time>2021-05-19T13:13:38Z</time>
      </trkpt>
      <trkpt lat="42.1105790" lon="-8.8714810">
        <ele>34.9</ele>
        <time>2021-05-19T13:13:39Z</time>
      </trkpt>
      <trkpt lat="42.1105900" lon="-8.8714790">
        <ele>34.9</ele>
        <time>2021-05-19T13:13:40Z</time>
      </trkpt>
      <trkpt lat="42.1106050" lon="-8.8714740">
        <ele>34.9</ele>
        <time>2021-05-19T13:13:41Z</time>
      </trkpt>
      <trkpt lat="42.1106090" lon="-8.8714690">
        <ele>34.9</ele>
        <time>2021-05-19T13:13:42Z</time>
      </trkpt>
      <trkpt lat="42.1106230" lon="-8.8714600">
        <ele>34.9</ele>
        <time>2021-05-19T13:13:43Z</time>
      </trkpt>
      <trkpt lat="42.1106290" lon="-8.8714540">
        <ele>34.9</ele>
        <time>2021-05-19T13:13:44Z</time>
      </trkpt>
      <trkpt lat="42.1106350" lon="-8.8714490">
        <ele>34.9</ele>
        <time>2021-05-19T13:13:45Z</time>
      </trkpt>
      <trkpt lat="42.1106410" lon="-8.8714430">
        <ele>34.9</ele>
        <time>2021-05-19T13:13:46Z</time>
      </trkpt>
      <trkpt lat="42.1106520" lon="-8.8714390">
        <ele>34.9</ele>
        <time>2021-05-19T13:13:47Z</time>
      </trkpt>
      <trkpt lat="42.1106580" lon="-8.8714300">
        <ele>34.9</ele>
        <time>2021-05-19T13:13:48Z</time>
      </trkpt>
      <trkpt lat="42.1106690" lon="-8.8714220">
        <ele>34.9</ele>
        <time>2021-05-19T13:13:49Z</time>
      </trkpt>
      <trkpt lat="42.1106800" lon="-8.8714160">
        <ele>34.9</ele>
        <time>2021-05-19T13:13:50Z</time>
      </trkpt>
      <trkpt lat="42.1106850" lon="-8.8714070">
        <ele>35.0</ele>
        <time>2021-05-19T13:13:51Z</time>
      </trkpt>
      <trkpt lat="42.1106950" lon="-8.8713990">
        <ele>35.0</ele>
        <time>2021-05-19T13:13:52Z</time>
      </trkpt>
      <trkpt lat="42.1107010" lon="-8.8713960">
        <ele>35.0</ele>
        <time>2021-05-19T13:13:53Z</time>
      </trkpt>
      <trkpt lat="42.1107080" lon="-8.8713880">
        <ele>35.0</ele>
        <time>2021-05-19T13:13:54Z</time>
      </trkpt>
      <trkpt lat="42.1107170" lon="-8.8713810">
        <ele>35.0</ele>
        <time>2021-05-19T13:13:55Z</time>
      </trkpt>
      <trkpt lat="42.1107230" lon="-8.8713710">
        <ele>35.0</ele>
        <time>2021-05-19T13:13:56Z</time>
      </trkpt>
      <trkpt lat="42.1107320" lon="-8.8713600">
        <ele>35.0</ele>
        <time>2021-05-19T13:13:57Z</time>
      </trkpt>
      <trkpt lat="42.1107390" lon="-8.8713530">
        <ele>35.0</ele>
        <time>2021-05-19T13:13:58Z</time>
      </trkpt>
      <trkpt lat="42.1107470" lon="-8.8713470">
        <ele>35.0</ele>
        <time>2021-05-19T13:13:59Z</time>
      </trkpt>
      <trkpt lat="42.1107540" lon="-8.8713400">
        <ele>35.0</ele>
        <time>2021-05-19T13:14:00Z</time>
      </trkpt>
      <trkpt lat="42.1107630" lon="-8.8713330">
        <ele>35.0</ele>
        <time>2021-05-19T13:14:01Z</time>
      </trkpt>
      <trkpt lat="42.1107730" lon="-8.8713250">
        <ele>35.0</ele>
        <time>2021-05-19T13:14:02Z</time>
      </trkpt>
      <trkpt lat="42.1107790" lon="-8.8713120">
        <ele>35.0</ele>
        <time>2021-05-19T13:14:03Z</time>
      </trkpt>
      <trkpt lat="42.1107810" lon="-8.8712970">
        <ele>35.0</ele>
        <time>2021-05-19T13:14:04Z</time>
      </trkpt>
      <trkpt lat="42.1107930" lon="-8.8712880">
        <ele>35.0</ele>
        <time>2021-05-19T13:14:05Z</time>
      </trkpt>
      <trkpt lat="42.1108000" lon="-8.8712740">
        <ele>35.0</ele>
        <time>2021-05-19T13:14:06Z</time>
      </trkpt>
      <trkpt lat="42.1108070" lon="-8.8712610">
        <ele>35.1</ele>
        <time>2021-05-19T13:14:07Z</time>
      </trkpt>
      <trkpt lat="42.1108060" lon="-8.8712550">
        <ele>35.1</ele>
        <time>2021-05-19T13:14:08Z</time>
      </trkpt>
      <trkpt lat="42.1108080" lon="-8.8712350">
        <ele>35.1</ele>
        <time>2021-05-19T13:14:09Z</time>
      </trkpt>
      <trkpt lat="42.1108110" lon="-8.8712240">
        <ele>35.1</ele>
        <time>2021-05-19T13:14:10Z</time>
      </trkpt>
      <trkpt lat="42.1108180" lon="-8.8711980">
        <ele>35.1</ele>
        <time>2021-05-19T13:14:11Z</time>
      </trkpt>
      <trkpt lat="42.1108270" lon="-8.8711780">
        <ele>35.0</ele>
        <time>2021-05-19T13:14:12Z</time>
      </trkpt>
      <trkpt lat="42.1108340" lon="-8.8711680">
        <ele>35.0</ele>
        <time>2021-05-19T13:14:13Z</time>
      </trkpt>
      <trkpt lat="42.1108400" lon="-8.8711580">
        <ele>35.0</ele>
        <time>2021-05-19T13:14:14Z</time>
      </trkpt>
      <trkpt lat="42.1108560" lon="-8.8711390">
        <ele>35.0</ele>
        <time>2021-05-19T13:14:15Z</time>
      </trkpt>
      <trkpt lat="42.1108600" lon="-8.8711240">
        <ele>35.0</ele>
        <time>2021-05-19T13:14:16Z</time>
      </trkpt>
      <trkpt lat="42.1108630" lon="-8.8711090">
        <ele>35.0</ele>
        <time>2021-05-19T13:14:17Z</time>
      </trkpt>
      <trkpt lat="42.1108750" lon="-8.8710920">
        <ele>35.0</ele>
        <time>2021-05-19T13:14:18Z</time>
      </trkpt>
      <trkpt lat="42.1108870" lon="-8.8710770">
        <ele>35.0</ele>
        <time>2021-05-19T13:14:19Z</time>
      </trkpt>
      <trkpt lat="42.1108930" lon="-8.8710590">
        <ele>34.9</ele>
        <time>2021-05-19T13:14:20Z</time>
      </trkpt>
      <trkpt lat="42.1109030" lon="-8.8710510">
        <ele>34.9</ele>
        <time>2021-05-19T13:14:21Z</time>
      </trkpt>
      <trkpt lat="42.1109140" lon="-8.8710360">
        <ele>34.9</ele>
        <time>2021-05-19T13:14:22Z</time>
      </trkpt>
      <trkpt lat="42.1109240" lon="-8.8710230">
        <ele>34.9</ele>
        <time>2021-05-19T13:14:23Z</time>
      </trkpt>
      <trkpt lat="42.1109320" lon="-8.8710010">
        <ele>34.8</ele>
        <time>2021-05-19T13:14:24Z</time>
      </trkpt>
      <trkpt lat="42.1109370" lon="-8.8709900">
        <ele>34.8</ele>
        <time>2021-05-19T13:14:25Z</time>
      </trkpt>
      <trkpt lat="42.1109420" lon="-8.8709780">
        <ele>34.8</ele>
        <time>2021-05-19T13:14:26Z</time>
      </trkpt>
      <trkpt lat="42.1109480" lon="-8.8709670">
        <ele>34.8</ele>
        <time>2021-05-19T13:14:27Z</time>
      </trkpt>
      <trkpt lat="42.1109620" lon="-8.8709440">
        <ele>34.7</ele>
        <time>2021-05-19T13:14:28Z</time>
      </trkpt>
      <trkpt lat="42.1109660" lon="-8.8709350">
        <ele>34.7</ele>
        <time>2021-05-19T13:14:29Z</time>
      </trkpt>
      <trkpt lat="42.1109700" lon="-8.8709260">
        <ele>34.7</ele>
        <time>2021-05-19T13:14:30Z</time>
      </trkpt>
      <trkpt lat="42.1109810" lon="-8.8709030">
        <ele>34.6</ele>
        <time>2021-05-19T13:14:31Z</time>
      </trkpt>
      <trkpt lat="42.1109850" lon="-8.8708930">
        <ele>34.6</ele>
        <time>2021-05-19T13:14:32Z</time>
      </trkpt>
      <trkpt lat="42.1109890" lon="-8.8708830">
        <ele>34.6</ele>
        <time>2021-05-19T13:14:33Z</time>
      </trkpt>
      <trkpt lat="42.1110030" lon="-8.8708610">
        <ele>34.5</ele>
        <time>2021-05-19T13:14:34Z</time>
      </trkpt>
      <trkpt lat="42.1110070" lon="-8.8708520">
        <ele>34.5</ele>
        <time>2021-05-19T13:14:35Z</time>
      </trkpt>
      <trkpt lat="42.1110110" lon="-8.8708430">
        <ele>34.5</ele>
        <time>2021-05-19T13:14:36Z</time>
      </trkpt>
      <trkpt lat="42.1110190" lon="-8.8708300">
        <ele>34.4</ele>
        <time>2021-05-19T13:14:37Z</time>
      </trkpt>
      <trkpt lat="42.1110220" lon="-8.8708190">
        <ele>34.4</ele>
        <time>2021-05-19T13:14:38Z</time>
      </trkpt>
      <trkpt lat="42.1110300" lon="-8.8708110">
        <ele>34.4</ele>
        <time>2021-05-19T13:14:39Z</time>
      </trkpt>
      <trkpt lat="42.1110430" lon="-8.8707920">
        <ele>34.5</ele>
        <time>2021-05-19T13:14:40Z</time>
      </trkpt>
      <trkpt lat="42.1110500" lon="-8.8707850">
        <ele>34.5</ele>
        <time>2021-05-19T13:14:41Z</time>
      </trkpt>
      <trkpt lat="42.1110570" lon="-8.8707770">
        <ele>34.5</ele>
        <time>2021-05-19T13:14:42Z</time>
      </trkpt>
      <trkpt lat="42.1110620" lon="-8.8707610">
        <ele>34.5</ele>
        <time>2021-05-19T13:14:43Z</time>
      </trkpt>
      <trkpt lat="42.1110650" lon="-8.8707520">
        <ele>34.5</ele>
        <time>2021-05-19T13:14:44Z</time>
      </trkpt>
      <trkpt lat="42.1110670" lon="-8.8707360">
        <ele>34.5</ele>
        <time>2021-05-19T13:14:45Z</time>
      </trkpt>
      <trkpt lat="42.1110730" lon="-8.8707250">
        <ele>34.5</ele>
        <time>2021-05-19T13:14:46Z</time>
      </trkpt>
      <trkpt lat="42.1110870" lon="-8.8707090">
        <ele>34.5</ele>
        <time>2021-05-19T13:14:47Z</time>
      </trkpt>
      <trkpt lat="42.1110860" lon="-8.8706970">
        <ele>34.5</ele>
        <time>2021-05-19T13:14:48Z</time>
      </trkpt>
      <trkpt lat="42.1110920" lon="-8.8706860">
        <ele>34.6</ele>
        <time>2021-05-19T13:14:49Z</time>
      </trkpt>
      <trkpt lat="42.1110940" lon="-8.8706700">
        <ele>34.6</ele>
        <time>2021-05-19T13:14:50Z</time>
      </trkpt>
      <trkpt lat="42.1110930" lon="-8.8706680">
        <ele>34.6</ele>
        <time>2021-05-19T13:14:51Z</time>
      </trkpt>
      <trkpt lat="42.1110970" lon="-8.8706560">
        <ele>34.6</ele>
        <time>2021-05-19T13:14:52Z</time>
      </trkpt>
      <trkpt lat="42.1111010" lon="-8.8706450">
        <ele>34.6</ele>
        <time>2021-05-19T13:14:53Z</time>
      </trkpt>
      <trkpt lat="42.1111090" lon="-8.8706320">
        <ele>34.6</ele>
        <time>2021-05-19T13:14:54Z</time>
      </trkpt>
      <trkpt lat="42.1111140" lon="-8.8706180">
        <ele>34.6</ele>
        <time>2021-05-19T13:14:55Z</time>
      </trkpt>
      <trkpt lat="42.1111160" lon="-8.8706090">
        <ele>34.6</ele>
        <time>2021-05-19T13:14:56Z</time>
      </trkpt>
      <trkpt lat="42.1111240" lon="-8.8705950">
        <ele>34.6</ele>
        <time>2021-05-19T13:14:57Z</time>
      </trkpt>
      <trkpt lat="42.1111310" lon="-8.8705800">
        <ele>34.6</ele>
        <time>2021-05-19T13:14:58Z</time>
      </trkpt>
      <trkpt lat="42.1111350" lon="-8.8705720">
        <ele>34.6</ele>
        <time>2021-05-19T13:14:59Z</time>
      </trkpt>
      <trkpt lat="42.1111400" lon="-8.8705630">
        <ele>34.6</ele>
        <time>2021-05-19T13:15:00Z</time>
      </trkpt>
      <trkpt lat="42.1111440" lon="-8.8705540">
        <ele>34.6</ele>
        <time>2021-05-19T13:15:01Z</time>
      </trkpt>
      <trkpt lat="42.1111460" lon="-8.8705400">
        <ele>34.6</ele>
        <time>2021-05-19T13:15:02Z</time>
      </trkpt>
      <trkpt lat="42.1111490" lon="-8.8705240">
        <ele>34.6</ele>
        <time>2021-05-19T13:15:03Z</time>
      </trkpt>
      <trkpt lat="42.1111570" lon="-8.8705100">
        <ele>34.6</ele>
        <time>2021-05-19T13:15:04Z</time>
      </trkpt>
      <trkpt lat="42.1111600" lon="-8.8704920">
        <ele>34.6</ele>
        <time>2021-05-19T13:15:05Z</time>
      </trkpt>
      <trkpt lat="42.1111640" lon="-8.8704720">
        <ele>34.6</ele>
        <time>2021-05-19T13:15:06Z</time>
      </trkpt>
      <trkpt lat="42.1111700" lon="-8.8704440">
        <ele>34.6</ele>
        <time>2021-05-19T13:15:07Z</time>
      </trkpt>
      <trkpt lat="42.1111720" lon="-8.8704330">
        <ele>34.6</ele>
        <time>2021-05-19T13:15:08Z</time>
      </trkpt>
      <trkpt lat="42.1111740" lon="-8.8704210">
        <ele>34.6</ele>
        <time>2021-05-19T13:15:09Z</time>
      </trkpt>
      <trkpt lat="42.1111770" lon="-8.8703940">
        <ele>34.6</ele>
        <time>2021-05-19T13:15:10Z</time>
      </trkpt>
      <trkpt lat="42.1111810" lon="-8.8703800">
        <ele>34.5</ele>
        <time>2021-05-19T13:15:11Z</time>
      </trkpt>
      <trkpt lat="42.1111840" lon="-8.8703670">
        <ele>34.5</ele>
        <time>2021-05-19T13:15:12Z</time>
      </trkpt>
      <trkpt lat="42.1111970" lon="-8.8703520">
        <ele>34.5</ele>
        <time>2021-05-19T13:15:13Z</time>
      </trkpt>
      <trkpt lat="42.1112060" lon="-8.8703430">
        <ele>34.5</ele>
        <time>2021-05-19T13:15:14Z</time>
      </trkpt>
      <trkpt lat="42.1112200" lon="-8.8703360">
        <ele>34.5</ele>
        <time>2021-05-19T13:15:15Z</time>
      </trkpt>
      <trkpt lat="42.1112230" lon="-8.8703260">
        <ele>34.5</ele>
        <time>2021-05-19T13:15:16Z</time>
      </trkpt>
      <trkpt lat="42.1112240" lon="-8.8703080">
        <ele>34.4</ele>
        <time>2021-05-19T13:15:17Z</time>
      </trkpt>
      <trkpt lat="42.1112330" lon="-8.8702760">
        <ele>34.4</ele>
        <time>2021-05-19T13:15:18Z</time>
      </trkpt>
      <trkpt lat="42.1112410" lon="-8.8702690">
        <ele>34.4</ele>
        <time>2021-05-19T13:15:19Z</time>
      </trkpt>
      <trkpt lat="42.1112420" lon="-8.8702570">
        <ele>34.4</ele>
        <time>2021-05-19T13:15:20Z</time>
      </trkpt>
      <trkpt lat="42.1112570" lon="-8.8702480">
        <ele>34.3</ele>
        <time>2021-05-19T13:15:21Z</time>
      </trkpt>
      <trkpt lat="42.1112660" lon="-8.8702430">
        <ele>34.3</ele>
        <time>2021-05-19T13:15:22Z</time>
      </trkpt>
      <trkpt lat="42.1112770" lon="-8.8702230">
        <ele>34.3</ele>
        <time>2021-05-19T13:15:23Z</time>
      </trkpt>
      <trkpt lat="42.1112820" lon="-8.8702130">
        <ele>34.2</ele>
        <time>2021-05-19T13:15:24Z</time>
      </trkpt>
      <trkpt lat="42.1112880" lon="-8.8702020">
        <ele>34.2</ele>
        <time>2021-05-19T13:15:25Z</time>
      </trkpt>
      <trkpt lat="42.1112910" lon="-8.8701870">
        <ele>34.2</ele>
        <time>2021-05-19T13:15:26Z</time>
      </trkpt>
      <trkpt lat="42.1113000" lon="-8.8701790">
        <ele>34.2</ele>
        <time>2021-05-19T13:15:27Z</time>
      </trkpt>
      <trkpt lat="42.1113090" lon="-8.8701640">
        <ele>34.1</ele>
        <time>2021-05-19T13:15:28Z</time>
      </trkpt>
      <trkpt lat="42.1113130" lon="-8.8701530">
        <ele>34.1</ele>
        <time>2021-05-19T13:15:29Z</time>
      </trkpt>
      <trkpt lat="42.1113250" lon="-8.8701460">
        <ele>34.1</ele>
        <time>2021-05-19T13:15:30Z</time>
      </trkpt>
      <trkpt lat="42.1113350" lon="-8.8701290">
        <ele>34.0</ele>
        <time>2021-05-19T13:15:31Z</time>
      </trkpt>
      <trkpt lat="42.1113390" lon="-8.8701040">
        <ele>33.9</ele>
        <time>2021-05-19T13:15:32Z</time>
      </trkpt>
      <trkpt lat="42.1113410" lon="-8.8700880">
        <ele>33.9</ele>
        <time>2021-05-19T13:15:33Z</time>
      </trkpt>
      <trkpt lat="42.1113460" lon="-8.8700790">
        <ele>33.8</ele>
        <time>2021-05-19T13:15:34Z</time>
      </trkpt>
      <trkpt lat="42.1113470" lon="-8.8700750">
        <ele>33.8</ele>
        <time>2021-05-19T13:15:35Z</time>
      </trkpt>
      <trkpt lat="42.1113460" lon="-8.8700680">
        <ele>33.8</ele>
        <time>2021-05-19T13:15:36Z</time>
      </trkpt>
      <trkpt lat="42.1113550" lon="-8.8700530">
        <ele>33.7</ele>
        <time>2021-05-19T13:15:37Z</time>
      </trkpt>
      <trkpt lat="42.1113670" lon="-8.8700180">
        <ele>33.6</ele>
        <time>2021-05-19T13:15:38Z</time>
      </trkpt>
      <trkpt lat="42.1113710" lon="-8.8700070">
        <ele>33.5</ele>
        <time>2021-05-19T13:15:39Z</time>
      </trkpt>
      <trkpt lat="42.1113750" lon="-8.8699900">
        <ele>33.5</ele>
        <time>2021-05-19T13:15:40Z</time>
      </trkpt>
      <trkpt lat="42.1113750" lon="-8.8699700">
        <ele>33.4</ele>
        <time>2021-05-19T13:15:41Z</time>
      </trkpt>
      <trkpt lat="42.1113740" lon="-8.8699550">
        <ele>33.3</ele>
        <time>2021-05-19T13:15:42Z</time>
      </trkpt>
      <trkpt lat="42.1113720" lon="-8.8699360">
        <ele>33.2</ele>
        <time>2021-05-19T13:15:43Z</time>
      </trkpt>
      <trkpt lat="42.1113710" lon="-8.8699240">
        <ele>33.1</ele>
        <time>2021-05-19T13:15:44Z</time>
      </trkpt>
      <trkpt lat="42.1113710" lon="-8.8699110">
        <ele>33.1</ele>
        <time>2021-05-19T13:15:45Z</time>
      </trkpt>
      <trkpt lat="42.1113730" lon="-8.8698950">
        <ele>33.0</ele>
        <time>2021-05-19T13:15:46Z</time>
      </trkpt>
      <trkpt lat="42.1113760" lon="-8.8698800">
        <ele>32.9</ele>
        <time>2021-05-19T13:15:47Z</time>
      </trkpt>
      <trkpt lat="42.1113780" lon="-8.8698520">
        <ele>32.7</ele>
        <time>2021-05-19T13:15:48Z</time>
      </trkpt>
      <trkpt lat="42.1113780" lon="-8.8698400">
        <ele>32.7</ele>
        <time>2021-05-19T13:15:49Z</time>
      </trkpt>
      <trkpt lat="42.1113770" lon="-8.8698280">
        <ele>32.6</ele>
        <time>2021-05-19T13:15:50Z</time>
      </trkpt>
      <trkpt lat="42.1113780" lon="-8.8698090">
        <ele>32.5</ele>
        <time>2021-05-19T13:15:51Z</time>
      </trkpt>
      <trkpt lat="42.1113800" lon="-8.8698020">
        <ele>32.5</ele>
        <time>2021-05-19T13:15:52Z</time>
      </trkpt>
      <trkpt lat="42.1113820" lon="-8.8697970">
        <ele>32.4</ele>
        <time>2021-05-19T13:15:53Z</time>
      </trkpt>
      <trkpt lat="42.1113810" lon="-8.8697960">
        <ele>32.4</ele>
        <time>2021-05-19T13:15:54Z</time>
      </trkpt>
      <trkpt lat="42.1113830" lon="-8.8697940">
        <ele>32.4</ele>
        <time>2021-05-19T13:15:55Z</time>
      </trkpt>
      <trkpt lat="42.1113810" lon="-8.8697980">
        <ele>32.4</ele>
        <time>2021-05-19T13:15:56Z</time>
      </trkpt>
      <trkpt lat="42.1113750" lon="-8.8697930">
        <ele>32.3</ele>
        <time>2021-05-19T13:15:57Z</time>
      </trkpt>
      <trkpt lat="42.1113700" lon="-8.8697810">
        <ele>32.2</ele>
        <time>2021-05-19T13:15:58Z</time>
      </trkpt>
      <trkpt lat="42.1113660" lon="-8.8697640">
        <ele>32.1</ele>
        <time>2021-05-19T13:15:59Z</time>
      </trkpt>
      <trkpt lat="42.1113640" lon="-8.8697480">
        <ele>32.0</ele>
        <time>2021-05-19T13:16:00Z</time>
      </trkpt>
      <trkpt lat="42.1113580" lon="-8.8697460">
        <ele>32.0</ele>
        <time>2021-05-19T13:16:01Z</time>
      </trkpt>
      <trkpt lat="42.1113560" lon="-8.8697390">
        <ele>31.9</ele>
        <time>2021-05-19T13:16:02Z</time>
      </trkpt>
      <trkpt lat="42.1113500" lon="-8.8697270">
        <ele>31.8</ele>
        <time>2021-05-19T13:16:03Z</time>
      </trkpt>
      <trkpt lat="42.1113420" lon="-8.8697110">
        <ele>31.7</ele>
        <time>2021-05-19T13:16:04Z</time>
      </trkpt>
      <trkpt lat="42.1113370" lon="-8.8696960">
        <ele>31.6</ele>
        <time>2021-05-19T13:16:05Z</time>
      </trkpt>
      <trkpt lat="42.1113310" lon="-8.8696740">
        <ele>31.5</ele>
        <time>2021-05-19T13:16:06Z</time>
      </trkpt>
      <trkpt lat="42.1113140" lon="-8.8696570">
        <ele>31.3</ele>
        <time>2021-05-19T13:16:07Z</time>
      </trkpt>
      <trkpt lat="42.1113070" lon="-8.8696430">
        <ele>31.2</ele>
        <time>2021-05-19T13:16:08Z</time>
      </trkpt>
      <trkpt lat="42.1113000" lon="-8.8696300">
        <ele>31.1</ele>
        <time>2021-05-19T13:16:09Z</time>
      </trkpt>
      <trkpt lat="42.1112940" lon="-8.8696080">
        <ele>30.9</ele>
        <time>2021-05-19T13:16:10Z</time>
      </trkpt>
      <trkpt lat="42.1112900" lon="-8.8695960">
        <ele>30.9</ele>
        <time>2021-05-19T13:16:11Z</time>
      </trkpt>
      <trkpt lat="42.1112850" lon="-8.8695850">
        <ele>30.8</ele>
        <time>2021-05-19T13:16:12Z</time>
      </trkpt>
      <trkpt lat="42.1112810" lon="-8.8695740">
        <ele>30.7</ele>
        <time>2021-05-19T13:16:13Z</time>
      </trkpt>
      <trkpt lat="42.1112810" lon="-8.8695660">
        <ele>30.6</ele>
        <time>2021-05-19T13:16:14Z</time>
      </trkpt>
      <trkpt lat="42.1112800" lon="-8.8695560">
        <ele>30.6</ele>
        <time>2021-05-19T13:16:15Z</time>
      </trkpt>
      <trkpt lat="42.1112780" lon="-8.8695450">
        <ele>30.5</ele>
        <time>2021-05-19T13:16:16Z</time>
      </trkpt>
      <trkpt lat="42.1112770" lon="-8.8695350">
        <ele>30.5</ele>
        <time>2021-05-19T13:16:17Z</time>
      </trkpt>
      <trkpt lat="42.1112750" lon="-8.8695250">
        <ele>30.4</ele>
        <time>2021-05-19T13:16:18Z</time>
      </trkpt>
      <trkpt lat="42.1112760" lon="-8.8695090">
        <ele>30.3</ele>
        <time>2021-05-19T13:16:19Z</time>
      </trkpt>
      <trkpt lat="42.1112760" lon="-8.8694840">
        <ele>30.2</ele>
        <time>2021-05-19T13:16:20Z</time>
      </trkpt>
      <trkpt lat="42.1112760" lon="-8.8694610">
        <ele>30.1</ele>
        <time>2021-05-19T13:16:21Z</time>
      </trkpt>
      <trkpt lat="42.1112760" lon="-8.8694440">
        <ele>30.0</ele>
        <time>2021-05-19T13:16:22Z</time>
      </trkpt>
      <trkpt lat="42.1112730" lon="-8.8694260">
        <ele>29.9</ele>
        <time>2021-05-19T13:16:23Z</time>
      </trkpt>
      <trkpt lat="42.1112800" lon="-8.8694220">
        <ele>29.8</ele>
        <time>2021-05-19T13:16:24Z</time>
      </trkpt>
      <trkpt lat="42.1112770" lon="-8.8694010">
        <ele>29.7</ele>
        <time>2021-05-19T13:16:25Z</time>
      </trkpt>
      <trkpt lat="42.1112810" lon="-8.8693940">
        <ele>29.7</ele>
        <time>2021-05-19T13:16:26Z</time>
      </trkpt>
      <trkpt lat="42.1112760" lon="-8.8693730">
        <ele>29.6</ele>
        <time>2021-05-19T13:16:27Z</time>
      </trkpt>
      <trkpt lat="42.1112830" lon="-8.8693560">
        <ele>29.5</ele>
        <time>2021-05-19T13:16:28Z</time>
      </trkpt>
      <trkpt lat="42.1112890" lon="-8.8693290">
        <ele>29.4</ele>
        <time>2021-05-19T13:16:29Z</time>
      </trkpt>
      <trkpt lat="42.1112930" lon="-8.8693180">
        <ele>29.4</ele>
        <time>2021-05-19T13:16:30Z</time>
      </trkpt>
      <trkpt lat="42.1112960" lon="-8.8693070">
        <ele>29.4</ele>
        <time>2021-05-19T13:16:31Z</time>
      </trkpt>
      <trkpt lat="42.1113040" lon="-8.8692840">
        <ele>29.3</ele>
        <time>2021-05-19T13:16:32Z</time>
      </trkpt>
      <trkpt lat="42.1113080" lon="-8.8692710">
        <ele>29.2</ele>
        <time>2021-05-19T13:16:33Z</time>
      </trkpt>
      <trkpt lat="42.1113150" lon="-8.8692590">
        <ele>29.2</ele>
        <time>2021-05-19T13:16:34Z</time>
      </trkpt>
      <trkpt lat="42.1113140" lon="-8.8692400">
        <ele>29.1</ele>
        <time>2021-05-19T13:16:35Z</time>
      </trkpt>
      <trkpt lat="42.1113190" lon="-8.8692290">
        <ele>29.1</ele>
        <time>2021-05-19T13:16:36Z</time>
      </trkpt>
      <trkpt lat="42.1113240" lon="-8.8692210">
        <ele>29.1</ele>
        <time>2021-05-19T13:16:37Z</time>
      </trkpt>
      <trkpt lat="42.1113320" lon="-8.8692070">
        <ele>29.0</ele>
        <time>2021-05-19T13:16:38Z</time>
      </trkpt>
      <trkpt lat="42.1113400" lon="-8.8691900">
        <ele>29.0</ele>
        <time>2021-05-19T13:16:39Z</time>
      </trkpt>
      <trkpt lat="42.1113450" lon="-8.8691810">
        <ele>29.0</ele>
        <time>2021-05-19T13:16:40Z</time>
      </trkpt>
      <trkpt lat="42.1113510" lon="-8.8691680">
        <ele>29.0</ele>
        <time>2021-05-19T13:16:41Z</time>
      </trkpt>
      <trkpt lat="42.1113590" lon="-8.8691520">
        <ele>28.9</ele>
        <time>2021-05-19T13:16:42Z</time>
      </trkpt>
      <trkpt lat="42.1113720" lon="-8.8691410">
        <ele>28.9</ele>
        <time>2021-05-19T13:16:43Z</time>
      </trkpt>
      <trkpt lat="42.1113880" lon="-8.8691290">
        <ele>28.8</ele>
        <time>2021-05-19T13:16:44Z</time>
      </trkpt>
      <trkpt lat="42.1113880" lon="-8.8691150">
        <ele>28.8</ele>
        <time>2021-05-19T13:16:45Z</time>
      </trkpt>
      <trkpt lat="42.1113940" lon="-8.8690960">
        <ele>28.8</ele>
        <time>2021-05-19T13:16:46Z</time>
      </trkpt>
      <trkpt lat="42.1113990" lon="-8.8690840">
        <ele>28.8</ele>
        <time>2021-05-19T13:16:47Z</time>
      </trkpt>
      <trkpt lat="42.1114170" lon="-8.8690650">
        <ele>28.7</ele>
        <time>2021-05-19T13:16:48Z</time>
      </trkpt>
      <trkpt lat="42.1114260" lon="-8.8690580">
        <ele>28.7</ele>
        <time>2021-05-19T13:16:49Z</time>
      </trkpt>
      <trkpt lat="42.1114340" lon="-8.8690510">
        <ele>28.7</ele>
        <time>2021-05-19T13:16:50Z</time>
      </trkpt>
      <trkpt lat="42.1114440" lon="-8.8690410">
        <ele>28.7</ele>
        <time>2021-05-19T13:16:51Z</time>
      </trkpt>
      <trkpt lat="42.1114550" lon="-8.8690270">
        <ele>28.6</ele>
        <time>2021-05-19T13:16:52Z</time>
      </trkpt>
      <trkpt lat="42.1114670" lon="-8.8690100">
        <ele>28.6</ele>
        <time>2021-05-19T13:16:53Z</time>
      </trkpt>
      <trkpt lat="42.1114730" lon="-8.8690050">
        <ele>28.6</ele>
        <time>2021-05-19T13:16:54Z</time>
      </trkpt>
      <trkpt lat="42.1114780" lon="-8.8689990">
        <ele>28.6</ele>
        <time>2021-05-19T13:16:55Z</time>
      </trkpt>
      <trkpt lat="42.1114830" lon="-8.8689940">
        <ele>28.6</ele>
        <time>2021-05-19T13:16:56Z</time>
      </trkpt>
      <trkpt lat="42.1114920" lon="-8.8689830">
        <ele>28.5</ele>
        <time>2021-05-19T13:16:57Z</time>
      </trkpt>
      <trkpt lat="42.1115090" lon="-8.8689680">
        <ele>28.5</ele>
        <time>2021-05-19T13:16:58Z</time>
      </trkpt>
      <trkpt lat="42.1115200" lon="-8.8689560">
        <ele>28.5</ele>
        <time>2021-05-19T13:16:59Z</time>
      </trkpt>
      <trkpt lat="42.1115350" lon="-8.8689460">
        <ele>28.5</ele>
        <time>2021-05-19T13:17:00Z</time>
      </trkpt>
      <trkpt lat="42.1115470" lon="-8.8689340">
        <ele>28.4</ele>
        <time>2021-05-19T13:17:01Z</time>
      </trkpt>
      <trkpt lat="42.1115600" lon="-8.8689240">
        <ele>28.4</ele>
        <time>2021-05-19T13:17:02Z</time>
      </trkpt>
      <trkpt lat="42.1115740" lon="-8.8689120">
        <ele>28.4</ele>
        <time>2021-05-19T13:17:03Z</time>
      </trkpt>
      <trkpt lat="42.1115890" lon="-8.8689040">
        <ele>28.4</ele>
        <time>2021-05-19T13:17:04Z</time>
      </trkpt>
      <trkpt lat="42.1116000" lon="-8.8688960">
        <ele>28.4</ele>
        <time>2021-05-19T13:17:05Z</time>
      </trkpt>
      <trkpt lat="42.1116060" lon="-8.8688940">
        <ele>28.4</ele>
        <time>2021-05-19T13:17:06Z</time>
      </trkpt>
      <trkpt lat="42.1116150" lon="-8.8688870">
        <ele>28.4</ele>
        <time>2021-05-19T13:17:07Z</time>
      </trkpt>
      <trkpt lat="42.1116380" lon="-8.8688820">
        <ele>28.4</ele>
        <time>2021-05-19T13:17:08Z</time>
      </trkpt>
      <trkpt lat="42.1116440" lon="-8.8688770">
        <ele>28.4</ele>
        <time>2021-05-19T13:17:09Z</time>
      </trkpt>
      <trkpt lat="42.1116510" lon="-8.8688710">
        <ele>28.4</ele>
        <time>2021-05-19T13:17:10Z</time>
      </trkpt>
      <trkpt lat="42.1116640" lon="-8.8688690">
        <ele>28.4</ele>
        <time>2021-05-19T13:17:11Z</time>
      </trkpt>
      <trkpt lat="42.1116800" lon="-8.8688650">
        <ele>28.4</ele>
        <time>2021-05-19T13:17:12Z</time>
      </trkpt>
      <trkpt lat="42.1116900" lon="-8.8688530">
        <ele>28.4</ele>
        <time>2021-05-19T13:17:13Z</time>
      </trkpt>
      <trkpt lat="42.1117030" lon="-8.8688450">
        <ele>28.4</ele>
        <time>2021-05-19T13:17:14Z</time>
      </trkpt>
      <trkpt lat="42.1117160" lon="-8.8688410">
        <ele>28.4</ele>
        <time>2021-05-19T13:17:15Z</time>
      </trkpt>
      <trkpt lat="42.1117300" lon="-8.8688360">
        <ele>28.4</ele>
        <time>2021-05-19T13:17:16Z</time>
      </trkpt>
      <trkpt lat="42.1117490" lon="-8.8688290">
        <ele>28.4</ele>
        <time>2021-05-19T13:17:17Z</time>
      </trkpt>
      <trkpt lat="42.1117580" lon="-8.8688260">
        <ele>28.5</ele>
        <time>2021-05-19T13:17:18Z</time>
      </trkpt>
      <trkpt lat="42.1117660" lon="-8.8688220">
        <ele>28.5</ele>
        <time>2021-05-19T13:17:19Z</time>
      </trkpt>
      <trkpt lat="42.1117780" lon="-8.8688140">
        <ele>28.5</ele>
        <time>2021-05-19T13:17:20Z</time>
      </trkpt>
      <trkpt lat="42.1117890" lon="-8.8688110">
        <ele>28.5</ele>
        <time>2021-05-19T13:17:21Z</time>
      </trkpt>
      <trkpt lat="42.1117960" lon="-8.8688060">
        <ele>28.5</ele>
        <time>2021-05-19T13:17:22Z</time>
      </trkpt>
      <trkpt lat="42.1118040" lon="-8.8687990">
        <ele>28.5</ele>
        <time>2021-05-19T13:17:23Z</time>
      </trkpt>
      <trkpt lat="42.1118130" lon="-8.8687930">
        <ele>28.5</ele>
        <time>2021-05-19T13:17:24Z</time>
      </trkpt>
      <trkpt lat="42.1118240" lon="-8.8687870">
        <ele>28.6</ele>
        <time>2021-05-19T13:17:25Z</time>
      </trkpt>
      <trkpt lat="42.1118370" lon="-8.8687770">
        <ele>28.6</ele>
        <time>2021-05-19T13:17:26Z</time>
      </trkpt>
      <trkpt lat="42.1118530" lon="-8.8687660">
        <ele>28.6</ele>
        <time>2021-05-19T13:17:27Z</time>
      </trkpt>
      <trkpt lat="42.1118620" lon="-8.8687590">
        <ele>28.6</ele>
        <time>2021-05-19T13:17:28Z</time>
      </trkpt>
      <trkpt lat="42.1118750" lon="-8.8687520">
        <ele>28.7</ele>
        <time>2021-05-19T13:17:29Z</time>
      </trkpt>
      <trkpt lat="42.1118830" lon="-8.8687450">
        <ele>28.7</ele>
        <time>2021-05-19T13:17:30Z</time>
      </trkpt>
      <trkpt lat="42.1118910" lon="-8.8687410">
        <ele>28.7</ele>
        <time>2021-05-19T13:17:31Z</time>
      </trkpt>
      <trkpt lat="42.1119010" lon="-8.8687330">
        <ele>28.7</ele>
        <time>2021-05-19T13:17:32Z</time>
      </trkpt>
      <trkpt lat="42.1119090" lon="-8.8687250">
        <ele>28.8</ele>
        <time>2021-05-19T13:17:33Z</time>
      </trkpt>
      <trkpt lat="42.1119180" lon="-8.8687120">
        <ele>28.8</ele>
        <time>2021-05-19T13:17:34Z</time>
      </trkpt>
      <trkpt lat="42.1119270" lon="-8.8687080">
        <ele>28.8</ele>
        <time>2021-05-19T13:17:35Z</time>
      </trkpt>
      <trkpt lat="42.1119320" lon="-8.8687010">
        <ele>28.8</ele>
        <time>2021-05-19T13:17:36Z</time>
      </trkpt>
      <trkpt lat="42.1119430" lon="-8.8686810">
        <ele>28.9</ele>
        <time>2021-05-19T13:17:37Z</time>
      </trkpt>
      <trkpt lat="42.1119500" lon="-8.8686720">
        <ele>28.9</ele>
        <time>2021-05-19T13:17:38Z</time>
      </trkpt>
      <trkpt lat="42.1119570" lon="-8.8686630">
        <ele>28.9</ele>
        <time>2021-05-19T13:17:39Z</time>
      </trkpt>
      <trkpt lat="42.1119610" lon="-8.8686500">
        <ele>28.9</ele>
        <time>2021-05-19T13:17:40Z</time>
      </trkpt>
      <trkpt lat="42.1119670" lon="-8.8686350">
        <ele>29.0</ele>
        <time>2021-05-19T13:17:41Z</time>
      </trkpt>
      <trkpt lat="42.1119710" lon="-8.8686290">
        <ele>29.0</ele>
        <time>2021-05-19T13:17:42Z</time>
      </trkpt>
      <trkpt lat="42.1119800" lon="-8.8686060">
        <ele>29.1</ele>
        <time>2021-05-19T13:17:43Z</time>
      </trkpt>
      <trkpt lat="42.1119860" lon="-8.8685960">
        <ele>29.1</ele>
        <time>2021-05-19T13:17:44Z</time>
      </trkpt>
      <trkpt lat="42.1119910" lon="-8.8685870">
        <ele>29.1</ele>
        <time>2021-05-19T13:17:45Z</time>
      </trkpt>
      <trkpt lat="42.1119950" lon="-8.8685650">
        <ele>29.2</ele>
        <time>2021-05-19T13:17:46Z</time>
      </trkpt>
      <trkpt lat="42.1119990" lon="-8.8685530">
        <ele>29.2</ele>
        <time>2021-05-19T13:17:47Z</time>
      </trkpt>
      <trkpt lat="42.1120030" lon="-8.8685410">
        <ele>29.2</ele>
        <time>2021-05-19T13:17:48Z</time>
      </trkpt>
      <trkpt lat="42.1120080" lon="-8.8685260">
        <ele>29.3</ele>
        <time>2021-05-19T13:17:49Z</time>
      </trkpt>
      <trkpt lat="42.1120090" lon="-8.8685160">
        <ele>29.3</ele>
        <time>2021-05-19T13:17:50Z</time>
      </trkpt>
      <trkpt lat="42.1120130" lon="-8.8684990">
        <ele>29.3</ele>
        <time>2021-05-19T13:17:51Z</time>
      </trkpt>
      <trkpt lat="42.1120170" lon="-8.8684870">
        <ele>29.4</ele>
        <time>2021-05-19T13:17:52Z</time>
      </trkpt>
      <trkpt lat="42.1120220" lon="-8.8684670">
        <ele>29.4</ele>
        <time>2021-05-19T13:17:53Z</time>
      </trkpt>
      <trkpt lat="42.1120290" lon="-8.8684560">
        <ele>29.5</ele>
        <time>2021-05-19T13:17:54Z</time>
      </trkpt>
      <trkpt lat="42.1120300" lon="-8.8684430">
        <ele>29.5</ele>
        <time>2021-05-19T13:17:55Z</time>
      </trkpt>
      <trkpt lat="42.1120310" lon="-8.8684310">
        <ele>29.5</ele>
        <time>2021-05-19T13:17:56Z</time>
      </trkpt>
      <trkpt lat="42.1120340" lon="-8.8684130">
        <ele>29.6</ele>
        <time>2021-05-19T13:17:57Z</time>
      </trkpt>
      <trkpt lat="42.1120390" lon="-8.8683950">
        <ele>29.6</ele>
        <time>2021-05-19T13:17:58Z</time>
      </trkpt>
      <trkpt lat="42.1120400" lon="-8.8683760">
        <ele>29.7</ele>
        <time>2021-05-19T13:17:59Z</time>
      </trkpt>
      <trkpt lat="42.1120460" lon="-8.8683640">
        <ele>29.7</ele>
        <time>2021-05-19T13:18:00Z</time>
      </trkpt>
      <trkpt lat="42.1120480" lon="-8.8683560">
        <ele>29.7</ele>
        <time>2021-05-19T13:18:01Z</time>
      </trkpt>
      <trkpt lat="42.1120490" lon="-8.8683490">
        <ele>29.8</ele>
        <time>2021-05-19T13:18:02Z</time>
      </trkpt>
      <trkpt lat="42.1120500" lon="-8.8683520">
        <ele>29.8</ele>
        <time>2021-05-19T13:18:03Z</time>
      </trkpt>
      <trkpt lat="42.1120530" lon="-8.8683480">
        <ele>29.8</ele>
        <time>2021-05-19T13:18:04Z</time>
      </trkpt>
      <trkpt lat="42.1120560" lon="-8.8683460">
        <ele>29.8</ele>
        <time>2021-05-19T13:18:05Z</time>
      </trkpt>
      <trkpt lat="42.1120560" lon="-8.8683460">
        <ele>29.8</ele>
        <time>2021-05-19T13:18:06Z</time>
      </trkpt>
      <trkpt lat="42.1120670" lon="-8.8683460">
        <ele>29.8</ele>
        <time>2021-05-19T13:18:07Z</time>
      </trkpt>
      <trkpt lat="42.1120700" lon="-8.8683400">
        <ele>29.8</ele>
        <time>2021-05-19T13:18:08Z</time>
      </trkpt>
      <trkpt lat="42.1120860" lon="-8.8683300">
        <ele>29.9</ele>
        <time>2021-05-19T13:18:09Z</time>
      </trkpt>
      <trkpt lat="42.1120950" lon="-8.8683130">
        <ele>30.0</ele>
        <time>2021-05-19T13:18:10Z</time>
      </trkpt>
      <trkpt lat="42.1120970" lon="-8.8683040">
        <ele>30.0</ele>
        <time>2021-05-19T13:18:11Z</time>
      </trkpt>
      <trkpt lat="42.1121000" lon="-8.8682940">
        <ele>30.0</ele>
        <time>2021-05-19T13:18:12Z</time>
      </trkpt>
      <trkpt lat="42.1121020" lon="-8.8682840">
        <ele>30.0</ele>
        <time>2021-05-19T13:18:13Z</time>
      </trkpt>
      <trkpt lat="42.1121050" lon="-8.8682700">
        <ele>30.1</ele>
        <time>2021-05-19T13:18:14Z</time>
      </trkpt>
      <trkpt lat="42.1121080" lon="-8.8682480">
        <ele>30.1</ele>
        <time>2021-05-19T13:18:15Z</time>
      </trkpt>
      <trkpt lat="42.1121140" lon="-8.8682410">
        <ele>30.1</ele>
        <time>2021-05-19T13:18:16Z</time>
      </trkpt>
      <trkpt lat="42.1121180" lon="-8.8682200">
        <ele>30.2</ele>
        <time>2021-05-19T13:18:17Z</time>
      </trkpt>
      <trkpt lat="42.1121280" lon="-8.8682180">
        <ele>30.2</ele>
        <time>2021-05-19T13:18:18Z</time>
      </trkpt>
      <trkpt lat="42.1121350" lon="-8.8681990">
        <ele>30.3</ele>
        <time>2021-05-19T13:18:19Z</time>
      </trkpt>
      <trkpt lat="42.1121340" lon="-8.8681920">
        <ele>30.3</ele>
        <time>2021-05-19T13:18:20Z</time>
      </trkpt>
      <trkpt lat="42.1121390" lon="-8.8681800">
        <ele>30.3</ele>
        <time>2021-05-19T13:18:21Z</time>
      </trkpt>
      <trkpt lat="42.1121380" lon="-8.8681690">
        <ele>30.3</ele>
        <time>2021-05-19T13:18:22Z</time>
      </trkpt>
      <trkpt lat="42.1121410" lon="-8.8681540">
        <ele>30.4</ele>
        <time>2021-05-19T13:18:23Z</time>
      </trkpt>
      <trkpt lat="42.1121520" lon="-8.8681450">
        <ele>30.4</ele>
        <time>2021-05-19T13:18:24Z</time>
      </trkpt>
      <trkpt lat="42.1121650" lon="-8.8681220">
        <ele>30.5</ele>
        <time>2021-05-19T13:18:25Z</time>
      </trkpt>
      <trkpt lat="42.1121690" lon="-8.8681120">
        <ele>30.5</ele>
        <time>2021-05-19T13:18:26Z</time>
      </trkpt>
      <trkpt lat="42.1121730" lon="-8.8681030">
        <ele>30.6</ele>
        <time>2021-05-19T13:18:27Z</time>
      </trkpt>
      <trkpt lat="42.1121820" lon="-8.8680990">
        <ele>30.6</ele>
        <time>2021-05-19T13:18:28Z</time>
      </trkpt>
      <trkpt lat="42.1121920" lon="-8.8680900">
        <ele>30.6</ele>
        <time>2021-05-19T13:18:29Z</time>
      </trkpt>
      <trkpt lat="42.1122000" lon="-8.8680780">
        <ele>30.7</ele>
        <time>2021-05-19T13:18:30Z</time>
      </trkpt>
      <trkpt lat="42.1122030" lon="-8.8680670">
        <ele>30.7</ele>
        <time>2021-05-19T13:18:31Z</time>
      </trkpt>
      <trkpt lat="42.1122050" lon="-8.8680600">
        <ele>30.7</ele>
        <time>2021-05-19T13:18:32Z</time>
      </trkpt>
      <trkpt lat="42.1122070" lon="-8.8680560">
        <ele>30.8</ele>
        <time>2021-05-19T13:18:33Z</time>
      </trkpt>
      <trkpt lat="42.1122130" lon="-8.8680440">
        <ele>30.8</ele>
        <time>2021-05-19T13:18:34Z</time>
      </trkpt>
      <trkpt lat="42.1122200" lon="-8.8680300">
        <ele>30.9</ele>
        <time>2021-05-19T13:18:35Z</time>
      </trkpt>
      <trkpt lat="42.1122250" lon="-8.8680200">
        <ele>30.9</ele>
        <time>2021-05-19T13:18:36Z</time>
      </trkpt>
      <trkpt lat="42.1122310" lon="-8.8680060">
        <ele>30.9</ele>
        <time>2021-05-19T13:18:37Z</time>
      </trkpt>
      <trkpt lat="42.1122250" lon="-8.8680010">
        <ele>31.0</ele>
        <time>2021-05-19T13:18:38Z</time>
      </trkpt>
      <trkpt lat="42.1122310" lon="-8.8679910">
        <ele>31.0</ele>
        <time>2021-05-19T13:18:39Z</time>
      </trkpt>
      <trkpt lat="42.1122370" lon="-8.8679760">
        <ele>31.1</ele>
        <time>2021-05-19T13:18:40Z</time>
      </trkpt>
      <trkpt lat="42.1122360" lon="-8.8679690">
        <ele>31.1</ele>
        <time>2021-05-19T13:18:41Z</time>
      </trkpt>
      <trkpt lat="42.1122390" lon="-8.8679530">
        <ele>31.2</ele>
        <time>2021-05-19T13:18:42Z</time>
      </trkpt>
      <trkpt lat="42.1122460" lon="-8.8679310">
        <ele>31.3</ele>
        <time>2021-05-19T13:18:43Z</time>
      </trkpt>
      <trkpt lat="42.1122450" lon="-8.8679110">
        <ele>31.4</ele>
        <time>2021-05-19T13:18:44Z</time>
      </trkpt>
      <trkpt lat="42.1122530" lon="-8.8678910">
        <ele>31.5</ele>
        <time>2021-05-19T13:18:45Z</time>
      </trkpt>
      <trkpt lat="42.1122540" lon="-8.8678790">
        <ele>31.5</ele>
        <time>2021-05-19T13:18:46Z</time>
      </trkpt>
      <trkpt lat="42.1122590" lon="-8.8678620">
        <ele>31.6</ele>
        <time>2021-05-19T13:18:47Z</time>
      </trkpt>
      <trkpt lat="42.1122620" lon="-8.8678460">
        <ele>31.7</ele>
        <time>2021-05-19T13:18:48Z</time>
      </trkpt>
      <trkpt lat="42.1122660" lon="-8.8678270">
        <ele>31.8</ele>
        <time>2021-05-19T13:18:49Z</time>
      </trkpt>
      <trkpt lat="42.1122630" lon="-8.8678110">
        <ele>31.8</ele>
        <time>2021-05-19T13:18:50Z</time>
      </trkpt>
      <trkpt lat="42.1122670" lon="-8.8678010">
        <ele>31.9</ele>
        <time>2021-05-19T13:18:51Z</time>
      </trkpt>
      <trkpt lat="42.1122730" lon="-8.8677880">
        <ele>32.0</ele>
        <time>2021-05-19T13:18:52Z</time>
      </trkpt>
      <trkpt lat="42.1122760" lon="-8.8677710">
        <ele>32.0</ele>
        <time>2021-05-19T13:18:53Z</time>
      </trkpt>
      <trkpt lat="42.1122760" lon="-8.8677560">
        <ele>32.1</ele>
        <time>2021-05-19T13:18:54Z</time>
      </trkpt>
      <trkpt lat="42.1122770" lon="-8.8677450">
        <ele>32.2</ele>
        <time>2021-05-19T13:18:55Z</time>
      </trkpt>
      <trkpt lat="42.1122820" lon="-8.8677320">
        <ele>32.2</ele>
        <time>2021-05-19T13:18:56Z</time>
      </trkpt>
      <trkpt lat="42.1122850" lon="-8.8677230">
        <ele>32.3</ele>
        <time>2021-05-19T13:18:57Z</time>
      </trkpt>
      <trkpt lat="42.1122850" lon="-8.8677120">
        <ele>32.3</ele>
        <time>2021-05-19T13:18:58Z</time>
      </trkpt>
      <trkpt lat="42.1122960" lon="-8.8676830">
        <ele>32.5</ele>
        <time>2021-05-19T13:18:59Z</time>
      </trkpt>
      <trkpt lat="42.1123010" lon="-8.8676710">
        <ele>32.5</ele>
        <time>2021-05-19T13:19:00Z</time>
      </trkpt>
      <trkpt lat="42.1123070" lon="-8.8676600">
        <ele>32.6</ele>
        <time>2021-05-19T13:19:01Z</time>
      </trkpt>
      <trkpt lat="42.1123060" lon="-8.8676480">
        <ele>32.7</ele>
        <time>2021-05-19T13:19:02Z</time>
      </trkpt>
      <trkpt lat="42.1123050" lon="-8.8676370">
        <ele>32.7</ele>
        <time>2021-05-19T13:19:03Z</time>
      </trkpt>
      <trkpt lat="42.1123090" lon="-8.8676220">
        <ele>32.8</ele>
        <time>2021-05-19T13:19:04Z</time>
      </trkpt>
      <trkpt lat="42.1123120" lon="-8.8676010">
        <ele>32.9</ele>
        <time>2021-05-19T13:19:05Z</time>
      </trkpt>
      <trkpt lat="42.1123160" lon="-8.8675860">
        <ele>32.9</ele>
        <time>2021-05-19T13:19:06Z</time>
      </trkpt>
      <trkpt lat="42.1123220" lon="-8.8675540">
        <ele>33.1</ele>
        <time>2021-05-19T13:19:07Z</time>
      </trkpt>
      <trkpt lat="42.1123240" lon="-8.8675460">
        <ele>33.1</ele>
        <time>2021-05-19T13:19:08Z</time>
      </trkpt>
      <trkpt lat="42.1123250" lon="-8.8675380">
        <ele>33.2</ele>
        <time>2021-05-19T13:19:09Z</time>
      </trkpt>
      <trkpt lat="42.1123290" lon="-8.8675310">
        <ele>33.2</ele>
        <time>2021-05-19T13:19:10Z</time>
      </trkpt>
      <trkpt lat="42.1123350" lon="-8.8675200">
        <ele>33.3</ele>
        <time>2021-05-19T13:19:11Z</time>
      </trkpt>
      <trkpt lat="42.1123320" lon="-8.8675130">
        <ele>33.3</ele>
        <time>2021-05-19T13:19:12Z</time>
      </trkpt>
      <trkpt lat="42.1123320" lon="-8.8675130">
        <ele>33.3</ele>
        <time>2021-05-19T13:19:13Z</time>
      </trkpt>
      <trkpt lat="42.1123310" lon="-8.8675120">
        <ele>33.3</ele>
        <time>2021-05-19T13:19:14Z</time>
      </trkpt>
      <trkpt lat="42.1123310" lon="-8.8675150">
        <ele>33.3</ele>
        <time>2021-05-19T13:19:15Z</time>
      </trkpt>
      <trkpt lat="42.1123270" lon="-8.8675120">
        <ele>33.3</ele>
        <time>2021-05-19T13:19:16Z</time>
      </trkpt>
      <trkpt lat="42.1123310" lon="-8.8675140">
        <ele>33.4</ele>
        <time>2021-05-19T13:19:17Z</time>
      </trkpt>
      <trkpt lat="42.1123330" lon="-8.8675210">
        <ele>33.4</ele>
        <time>2021-05-19T13:19:18Z</time>
      </trkpt>
      <trkpt lat="42.1123300" lon="-8.8675210">
        <ele>33.4</ele>
        <time>2021-05-19T13:19:19Z</time>
      </trkpt>
      <trkpt lat="42.1123300" lon="-8.8675190">
        <ele>33.4</ele>
        <time>2021-05-19T13:19:20Z</time>
      </trkpt>
      <trkpt lat="42.1123300" lon="-8.8675180">
        <ele>33.4</ele>
        <time>2021-05-19T13:19:21Z</time>
      </trkpt>
      <trkpt lat="42.1123300" lon="-8.8675150">
        <ele>33.4</ele>
        <time>2021-05-19T13:19:22Z</time>
      </trkpt>
      <trkpt lat="42.1123250" lon="-8.8675130">
        <ele>33.5</ele>
        <time>2021-05-19T13:19:23Z</time>
      </trkpt>
      <trkpt lat="42.1123250" lon="-8.8675110">
        <ele>33.5</ele>
        <time>2021-05-19T13:19:24Z</time>
      </trkpt>
      <trkpt lat="42.1123250" lon="-8.8675040">
        <ele>33.5</ele>
        <time>2021-05-19T13:19:25Z</time>
      </trkpt>
      <trkpt lat="42.1123250" lon="-8.8675000">
        <ele>33.5</ele>
        <time>2021-05-19T13:19:26Z</time>
      </trkpt>
      <trkpt lat="42.1123260" lon="-8.8674970">
        <ele>33.5</ele>
        <time>2021-05-19T13:19:27Z</time>
      </trkpt>
      <trkpt lat="42.1123280" lon="-8.8674950">
        <ele>33.6</ele>
        <time>2021-05-19T13:19:28Z</time>
      </trkpt>
      <trkpt lat="42.1123260" lon="-8.8674960">
        <ele>33.6</ele>
        <time>2021-05-19T13:19:29Z</time>
      </trkpt>
      <trkpt lat="42.1123270" lon="-8.8674980">
        <ele>33.6</ele>
        <time>2021-05-19T13:19:30Z</time>
      </trkpt>
      <trkpt lat="42.1123270" lon="-8.8674990">
        <ele>33.6</ele>
        <time>2021-05-19T13:19:31Z</time>
      </trkpt>
      <trkpt lat="42.1123310" lon="-8.8675010">
        <ele>33.6</ele>
        <time>2021-05-19T13:19:32Z</time>
      </trkpt>
      <trkpt lat="42.1123340" lon="-8.8675020">
        <ele>33.6</ele>
        <time>2021-05-19T13:19:33Z</time>
      </trkpt>
      <trkpt lat="42.1123360" lon="-8.8674990">
        <ele>33.6</ele>
        <time>2021-05-19T13:19:34Z</time>
      </trkpt>
      <trkpt lat="42.1123400" lon="-8.8674980">
        <ele>33.7</ele>
        <time>2021-05-19T13:19:35Z</time>
      </trkpt>
      <trkpt lat="42.1123420" lon="-8.8674950">
        <ele>33.7</ele>
        <time>2021-05-19T13:19:36Z</time>
      </trkpt>
      <trkpt lat="42.1123430" lon="-8.8674980">
        <ele>33.7</ele>
        <time>2021-05-19T13:19:37Z</time>
      </trkpt>
      <trkpt lat="42.1123420" lon="-8.8675000">
        <ele>33.7</ele>
        <time>2021-05-19T13:19:38Z</time>
      </trkpt>
      <trkpt lat="42.1123440" lon="-8.8675050">
        <ele>33.7</ele>
        <time>2021-05-19T13:19:39Z</time>
      </trkpt>
      <trkpt lat="42.1123450" lon="-8.8675100">
        <ele>33.8</ele>
        <time>2021-05-19T13:19:40Z</time>
      </trkpt>
      <trkpt lat="42.1123440" lon="-8.8675130">
        <ele>33.8</ele>
        <time>2021-05-19T13:19:41Z</time>
      </trkpt>
      <trkpt lat="42.1123450" lon="-8.8675150">
        <ele>33.8</ele>
        <time>2021-05-19T13:19:42Z</time>
      </trkpt>
      <trkpt lat="42.1123470" lon="-8.8675160">
        <ele>33.8</ele>
        <time>2021-05-19T13:19:43Z</time>
      </trkpt>
      <trkpt lat="42.1123490" lon="-8.8675260">
        <ele>33.9</ele>
        <time>2021-05-19T13:19:44Z</time>
      </trkpt>
      <trkpt lat="42.1123530" lon="-8.8675230">
        <ele>33.9</ele>
        <time>2021-05-19T13:19:45Z</time>
      </trkpt>
      <trkpt lat="42.1123490" lon="-8.8675230">
        <ele>33.9</ele>
        <time>2021-05-19T13:19:46Z</time>
      </trkpt>
      <trkpt lat="42.1123490" lon="-8.8675180">
        <ele>33.9</ele>
        <time>2021-05-19T13:19:47Z</time>
      </trkpt>
      <trkpt lat="42.1123470" lon="-8.8675190">
        <ele>33.9</ele>
        <time>2021-05-19T13:19:48Z</time>
      </trkpt>
      <trkpt lat="42.1123480" lon="-8.8675170">
        <ele>34.0</ele>
        <time>2021-05-19T13:19:49Z</time>
      </trkpt>
      <trkpt lat="42.1123480" lon="-8.8675170">
        <ele>34.0</ele>
        <time>2021-05-19T13:19:50Z</time>
      </trkpt>
      <trkpt lat="42.1123480" lon="-8.8675170">
        <ele>34.0</ele>
        <time>2021-05-19T13:19:51Z</time>
      </trkpt>
      <trkpt lat="42.1123480" lon="-8.8675170">
        <ele>34.0</ele>
        <time>2021-05-19T13:19:52Z</time>
      </trkpt>
      <trkpt lat="42.1123480" lon="-8.8675170">
        <ele>34.0</ele>
        <time>2021-05-19T13:19:53Z</time>
      </trkpt>
      <trkpt lat="42.1123460" lon="-8.8675170">
        <ele>34.0</ele>
        <time>2021-05-19T13:19:54Z</time>
      </trkpt>
      <trkpt lat="42.1123440" lon="-8.8675140">
        <ele>34.0</ele>
        <time>2021-05-19T13:19:55Z</time>
      </trkpt>
      <trkpt lat="42.1123460" lon="-8.8675110">
        <ele>34.0</ele>
        <time>2021-05-19T13:19:56Z</time>
      </trkpt>
      <trkpt lat="42.1123450" lon="-8.8675100">
        <ele>34.0</ele>
        <time>2021-05-19T13:19:57Z</time>
      </trkpt>
      <trkpt lat="42.1123460" lon="-8.8675100">
        <ele>34.0</ele>
        <time>2021-05-19T13:19:58Z</time>
      </trkpt>
      <trkpt lat="42.1123500" lon="-8.8675080">
        <ele>34.1</ele>
        <time>2021-05-19T13:19:59Z</time>
      </trkpt>
      <trkpt lat="42.1123510" lon="-8.8675110">
        <ele>34.1</ele>
        <time>2021-05-19T13:20:00Z</time>
      </trkpt>
      <trkpt lat="42.1123520" lon="-8.8675110">
        <ele>34.1</ele>
        <time>2021-05-19T13:20:01Z</time>
      </trkpt>
      <trkpt lat="42.1123560" lon="-8.8675070">
        <ele>34.1</ele>
        <time>2021-05-19T13:20:02Z</time>
      </trkpt>
      <trkpt lat="42.1123560" lon="-8.8675060">
        <ele>34.1</ele>
        <time>2021-05-19T13:20:03Z</time>
      </trkpt>
      <trkpt lat="42.1123540" lon="-8.8675000">
        <ele>34.2</ele>
        <time>2021-05-19T13:20:04Z</time>
      </trkpt>
      <trkpt lat="42.1123490" lon="-8.8674960">
        <ele>34.2</ele>
        <time>2021-05-19T13:20:05Z</time>
      </trkpt>
      <trkpt lat="42.1123430" lon="-8.8674980">
        <ele>34.2</ele>
        <time>2021-05-19T13:20:06Z</time>
      </trkpt>
      <trkpt lat="42.1123430" lon="-8.8675010">
        <ele>34.3</ele>
        <time>2021-05-19T13:20:07Z</time>
      </trkpt>
      <trkpt lat="42.1123490" lon="-8.8675050">
        <ele>34.3</ele>
        <time>2021-05-19T13:20:08Z</time>
      </trkpt>
      <trkpt lat="42.1123480" lon="-8.8675070">
        <ele>34.3</ele>
        <time>2021-05-19T13:20:09Z</time>
      </trkpt>
      <trkpt lat="42.1123390" lon="-8.8675050">
        <ele>34.4</ele>
        <time>2021-05-19T13:20:10Z</time>
      </trkpt>
      <trkpt lat="42.1123330" lon="-8.8675040">
        <ele>34.4</ele>
        <time>2021-05-19T13:20:11Z</time>
      </trkpt>
      <trkpt lat="42.1123400" lon="-8.8675070">
        <ele>34.5</ele>
        <time>2021-05-19T13:20:12Z</time>
      </trkpt>
      <trkpt lat="42.1123410" lon="-8.8675070">
        <ele>34.5</ele>
        <time>2021-05-19T13:20:13Z</time>
      </trkpt>
      <trkpt lat="42.1123440" lon="-8.8675040">
        <ele>34.5</ele>
        <time>2021-05-19T13:20:14Z</time>
      </trkpt>
      <trkpt lat="42.1123460" lon="-8.8675030">
        <ele>34.5</ele>
        <time>2021-05-19T13:20:15Z</time>
      </trkpt>
      <trkpt lat="42.1123440" lon="-8.8675050">
        <ele>34.6</ele>
        <time>2021-05-19T13:20:16Z</time>
      </trkpt>
      <trkpt lat="42.1123430" lon="-8.8675050">
        <ele>34.6</ele>
        <time>2021-05-19T13:20:17Z</time>
      </trkpt>
      <trkpt lat="42.1123480" lon="-8.8675040">
        <ele>34.6</ele>
        <time>2021-05-19T13:20:18Z</time>
      </trkpt>
      <trkpt lat="42.1123500" lon="-8.8675030">
        <ele>34.6</ele>
        <time>2021-05-19T13:20:19Z</time>
      </trkpt>
      <trkpt lat="42.1123470" lon="-8.8674980">
        <ele>34.7</ele>
        <time>2021-05-19T13:20:20Z</time>
      </trkpt>
      <trkpt lat="42.1123480" lon="-8.8674960">
        <ele>34.7</ele>
        <time>2021-05-19T13:20:21Z</time>
      </trkpt>
      <trkpt lat="42.1123480" lon="-8.8674990">
        <ele>34.7</ele>
        <time>2021-05-19T13:20:22Z</time>
      </trkpt>
      <trkpt lat="42.1123450" lon="-8.8674990">
        <ele>34.7</ele>
        <time>2021-05-19T13:20:23Z</time>
      </trkpt>
      <trkpt lat="42.1123400" lon="-8.8674990">
        <ele>34.8</ele>
        <time>2021-05-19T13:20:24Z</time>
      </trkpt>
      <trkpt lat="42.1123340" lon="-8.8674980">
        <ele>34.8</ele>
        <time>2021-05-19T13:20:25Z</time>
      </trkpt>
      <trkpt lat="42.1123330" lon="-8.8674980">
        <ele>34.8</ele>
        <time>2021-05-19T13:20:26Z</time>
      </trkpt>
      <trkpt lat="42.1123340" lon="-8.8675000">
        <ele>34.8</ele>
        <time>2021-05-19T13:20:27Z</time>
      </trkpt>
      <trkpt lat="42.1123350" lon="-8.8675020">
        <ele>34.9</ele>
        <time>2021-05-19T13:20:28Z</time>
      </trkpt>
      <trkpt lat="42.1123350" lon="-8.8675030">
        <ele>34.9</ele>
        <time>2021-05-19T13:20:29Z</time>
      </trkpt>
      <trkpt lat="42.1123340" lon="-8.8675060">
        <ele>34.9</ele>
        <time>2021-05-19T13:20:30Z</time>
      </trkpt>
      <trkpt lat="42.1123330" lon="-8.8675080">
        <ele>34.9</ele>
        <time>2021-05-19T13:20:31Z</time>
      </trkpt>
      <trkpt lat="42.1123270" lon="-8.8675050">
        <ele>35.0</ele>
        <time>2021-05-19T13:20:32Z</time>
      </trkpt>
      <trkpt lat="42.1123260" lon="-8.8675020">
        <ele>35.0</ele>
        <time>2021-05-19T13:20:33Z</time>
      </trkpt>
      <trkpt lat="42.1123260" lon="-8.8675010">
        <ele>35.0</ele>
        <time>2021-05-19T13:20:34Z</time>
      </trkpt>
      <trkpt lat="42.1123270" lon="-8.8674990">
        <ele>35.0</ele>
        <time>2021-05-19T13:20:35Z</time>
      </trkpt>
      <trkpt lat="42.1123280" lon="-8.8674980">
        <ele>35.0</ele>
        <time>2021-05-19T13:20:36Z</time>
      </trkpt>
      <trkpt lat="42.1123280" lon="-8.8674970">
        <ele>35.0</ele>
        <time>2021-05-19T13:20:37Z</time>
      </trkpt>
      <trkpt lat="42.1123290" lon="-8.8674960">
        <ele>35.0</ele>
        <time>2021-05-19T13:20:38Z</time>
      </trkpt>
      <trkpt lat="42.1123300" lon="-8.8674940">
        <ele>35.0</ele>
        <time>2021-05-19T13:20:39Z</time>
      </trkpt>
      <trkpt lat="42.1123310" lon="-8.8674930">
        <ele>35.1</ele>
        <time>2021-05-19T13:20:40Z</time>
      </trkpt>
      <trkpt lat="42.1123310" lon="-8.8674920">
        <ele>35.1</ele>
        <time>2021-05-19T13:20:41Z</time>
      </trkpt>
      <trkpt lat="42.1123320" lon="-8.8674910">
        <ele>35.1</ele>
        <time>2021-05-19T13:20:42Z</time>
      </trkpt>
      <trkpt lat="42.1123330" lon="-8.8674890">
        <ele>35.1</ele>
        <time>2021-05-19T13:20:43Z</time>
      </trkpt>
      <trkpt lat="42.1123330" lon="-8.8674880">
        <ele>35.1</ele>
        <time>2021-05-19T13:20:44Z</time>
      </trkpt>
      <trkpt lat="42.1123340" lon="-8.8674870">
        <ele>35.1</ele>
        <time>2021-05-19T13:20:45Z</time>
      </trkpt>
      <trkpt lat="42.1123350" lon="-8.8674860">
        <ele>35.1</ele>
        <time>2021-05-19T13:20:46Z</time>
      </trkpt>
      <trkpt lat="42.1123350" lon="-8.8674840">
        <ele>35.1</ele>
        <time>2021-05-19T13:20:47Z</time>
      </trkpt>
      <trkpt lat="42.1123360" lon="-8.8674830">
        <ele>35.1</ele>
        <time>2021-05-19T13:20:48Z</time>
      </trkpt>
      <trkpt lat="42.1123370" lon="-8.8674820">
        <ele>35.2</ele>
        <time>2021-05-19T13:20:49Z</time>
      </trkpt>
      <trkpt lat="42.1123370" lon="-8.8674810">
        <ele>35.2</ele>
        <time>2021-05-19T13:20:50Z</time>
      </trkpt>
      <trkpt lat="42.1123380" lon="-8.8674790">
        <ele>35.2</ele>
        <time>2021-05-19T13:20:51Z</time>
      </trkpt>
      <trkpt lat="42.1123390" lon="-8.8674780">
        <ele>35.2</ele>
        <time>2021-05-19T13:20:52Z</time>
      </trkpt>
      <trkpt lat="42.1123390" lon="-8.8674770">
        <ele>35.2</ele>
        <time>2021-05-19T13:20:53Z</time>
      </trkpt>
      <trkpt lat="42.1123400" lon="-8.8674760">
        <ele>35.2</ele>
        <time>2021-05-19T13:20:54Z</time>
      </trkpt>
      <trkpt lat="42.1123410" lon="-8.8674740">
        <ele>35.2</ele>
        <time>2021-05-19T13:20:55Z</time>
      </trkpt>
      <trkpt lat="42.1123420" lon="-8.8674730">
        <ele>35.2</ele>
        <time>2021-05-19T13:20:56Z</time>
      </trkpt>
      <trkpt lat="42.1123420" lon="-8.8674720">
        <ele>35.2</ele>
        <time>2021-05-19T13:20:57Z</time>
      </trkpt>
      <trkpt lat="42.1123430" lon="-8.8674710">
        <ele>35.3</ele>
        <time>2021-05-19T13:20:58Z</time>
      </trkpt>
      <trkpt lat="42.1123440" lon="-8.8674690">
        <ele>35.3</ele>
        <time>2021-05-19T13:20:59Z</time>
      </trkpt>
      <trkpt lat="42.1123440" lon="-8.8674680">
        <ele>35.3</ele>
        <time>2021-05-19T13:21:00Z</time>
      </trkpt>
      <trkpt lat="42.1123450" lon="-8.8674670">
        <ele>35.3</ele>
        <time>2021-05-19T13:21:01Z</time>
      </trkpt>
      <trkpt lat="42.1123460" lon="-8.8674660">
        <ele>35.3</ele>
        <time>2021-05-19T13:21:02Z</time>
      </trkpt>
      <trkpt lat="42.1123460" lon="-8.8674640">
        <ele>35.3</ele>
        <time>2021-05-19T13:21:03Z</time>
      </trkpt>
      <trkpt lat="42.1123470" lon="-8.8674630">
        <ele>35.3</ele>
        <time>2021-05-19T13:21:04Z</time>
      </trkpt>
      <trkpt lat="42.1123380" lon="-8.8674550">
        <ele>35.4</ele>
        <time>2021-05-19T13:21:05Z</time>
      </trkpt>
      <trkpt lat="42.1123320" lon="-8.8674410">
        <ele>35.5</ele>
        <time>2021-05-19T13:21:06Z</time>
      </trkpt>
      <trkpt lat="42.1123270" lon="-8.8674350">
        <ele>35.6</ele>
        <time>2021-05-19T13:21:07Z</time>
      </trkpt>
      <trkpt lat="42.1123190" lon="-8.8674230">
        <ele>35.7</ele>
        <time>2021-05-19T13:21:08Z</time>
      </trkpt>
      <trkpt lat="42.1123130" lon="-8.8674140">
        <ele>36.3</ele>
        <time>2021-05-19T13:21:09Z</time>
      </trkpt>
      <trkpt lat="42.1123050" lon="-8.8674050">
        <ele>36.4</ele>
        <time>2021-05-19T13:21:10Z</time>
      </trkpt>
      <trkpt lat="42.1122990" lon="-8.8674040">
        <ele>36.5</ele>
        <time>2021-05-19T13:21:11Z</time>
      </trkpt>
      <trkpt lat="42.1122870" lon="-8.8673960">
        <ele>36.7</ele>
        <time>2021-05-19T13:21:12Z</time>
      </trkpt>
      <trkpt lat="42.1122730" lon="-8.8673940">
        <ele>36.8</ele>
        <time>2021-05-19T13:21:13Z</time>
      </trkpt>
      <trkpt lat="42.1122660" lon="-8.8673780">
        <ele>37.0</ele>
        <time>2021-05-19T13:21:14Z</time>
      </trkpt>
      <trkpt lat="42.1122590" lon="-8.8673800">
        <ele>37.1</ele>
        <time>2021-05-19T13:21:15Z</time>
      </trkpt>
      <trkpt lat="42.1122480" lon="-8.8673790">
        <ele>37.2</ele>
        <time>2021-05-19T13:21:16Z</time>
      </trkpt>
      <trkpt lat="42.1122400" lon="-8.8673760">
        <ele>37.4</ele>
        <time>2021-05-19T13:21:17Z</time>
      </trkpt>
      <trkpt lat="42.1122280" lon="-8.8673790">
        <ele>37.5</ele>
        <time>2021-05-19T13:21:18Z</time>
      </trkpt>
      <trkpt lat="42.1122170" lon="-8.8673900">
        <ele>37.7</ele>
        <time>2021-05-19T13:21:19Z</time>
      </trkpt>
      <trkpt lat="42.1122080" lon="-8.8673940">
        <ele>37.8</ele>
        <time>2021-05-19T13:21:20Z</time>
      </trkpt>
      <trkpt lat="42.1121970" lon="-8.8674050">
        <ele>37.9</ele>
        <time>2021-05-19T13:21:21Z</time>
      </trkpt>
      <trkpt lat="42.1121890" lon="-8.8674180">
        <ele>38.0</ele>
        <time>2021-05-19T13:21:22Z</time>
      </trkpt>
      <trkpt lat="42.1121800" lon="-8.8674310">
        <ele>38.2</ele>
        <time>2021-05-19T13:21:23Z</time>
      </trkpt>
      <trkpt lat="42.1121710" lon="-8.8674340">
        <ele>38.3</ele>
        <time>2021-05-19T13:21:24Z</time>
      </trkpt>
      <trkpt lat="42.1121650" lon="-8.8674450">
        <ele>38.4</ele>
        <time>2021-05-19T13:21:25Z</time>
      </trkpt>
      <trkpt lat="42.1121490" lon="-8.8674660">
        <ele>38.5</ele>
        <time>2021-05-19T13:21:26Z</time>
      </trkpt>
      <trkpt lat="42.1121420" lon="-8.8674720">
        <ele>38.6</ele>
        <time>2021-05-19T13:21:27Z</time>
      </trkpt>
      <trkpt lat="42.1121360" lon="-8.8674790">
        <ele>38.7</ele>
        <time>2021-05-19T13:21:28Z</time>
      </trkpt>
      <trkpt lat="42.1121220" lon="-8.8675000">
        <ele>38.8</ele>
        <time>2021-05-19T13:21:29Z</time>
      </trkpt>
      <trkpt lat="42.1121130" lon="-8.8675090">
        <ele>38.9</ele>
        <time>2021-05-19T13:21:30Z</time>
      </trkpt>
      <trkpt lat="42.1121040" lon="-8.8675170">
        <ele>39.0</ele>
        <time>2021-05-19T13:21:31Z</time>
      </trkpt>
      <trkpt lat="42.1121000" lon="-8.8675200">
        <ele>39.0</ele>
        <time>2021-05-19T13:21:32Z</time>
      </trkpt>
      <trkpt lat="42.1120900" lon="-8.8675310">
        <ele>39.1</ele>
        <time>2021-05-19T13:21:33Z</time>
      </trkpt>
      <trkpt lat="42.1120770" lon="-8.8675390">
        <ele>39.2</ele>
        <time>2021-05-19T13:21:34Z</time>
      </trkpt>
      <trkpt lat="42.1120720" lon="-8.8675450">
        <ele>39.3</ele>
        <time>2021-05-19T13:21:35Z</time>
      </trkpt>
      <trkpt lat="42.1120620" lon="-8.8675580">
        <ele>39.4</ele>
        <time>2021-05-19T13:21:36Z</time>
      </trkpt>
      <trkpt lat="42.1120540" lon="-8.8675700">
        <ele>39.4</ele>
        <time>2021-05-19T13:21:37Z</time>
      </trkpt>
      <trkpt lat="42.1120470" lon="-8.8675780">
        <ele>39.5</ele>
        <time>2021-05-19T13:21:38Z</time>
      </trkpt>
      <trkpt lat="42.1120410" lon="-8.8675850">
        <ele>39.6</ele>
        <time>2021-05-19T13:21:39Z</time>
      </trkpt>
      <trkpt lat="42.1120310" lon="-8.8675970">
        <ele>39.6</ele>
        <time>2021-05-19T13:21:40Z</time>
      </trkpt>
      <trkpt lat="42.1120200" lon="-8.8676090">
        <ele>39.7</ele>
        <time>2021-05-19T13:21:41Z</time>
      </trkpt>
      <trkpt lat="42.1120010" lon="-8.8676200">
        <ele>39.9</ele>
        <time>2021-05-19T13:21:42Z</time>
      </trkpt>
      <trkpt lat="42.1119910" lon="-8.8676280">
        <ele>40.0</ele>
        <time>2021-05-19T13:21:43Z</time>
      </trkpt>
      <trkpt lat="42.1119740" lon="-8.8676440">
        <ele>40.1</ele>
        <time>2021-05-19T13:21:44Z</time>
      </trkpt>
      <trkpt lat="42.1119690" lon="-8.8676540">
        <ele>40.2</ele>
        <time>2021-05-19T13:21:45Z</time>
      </trkpt>
      <trkpt lat="42.1119670" lon="-8.8676570">
        <ele>40.2</ele>
        <time>2021-05-19T13:21:46Z</time>
      </trkpt>
      <trkpt lat="42.1119540" lon="-8.8676690">
        <ele>40.3</ele>
        <time>2021-05-19T13:21:47Z</time>
      </trkpt>
      <trkpt lat="42.1119470" lon="-8.8676710">
        <ele>40.4</ele>
        <time>2021-05-19T13:21:48Z</time>
      </trkpt>
      <trkpt lat="42.1119410" lon="-8.8676820">
        <ele>40.5</ele>
        <time>2021-05-19T13:21:49Z</time>
      </trkpt>
      <trkpt lat="42.1119290" lon="-8.8676960">
        <ele>40.6</ele>
        <time>2021-05-19T13:21:50Z</time>
      </trkpt>
      <trkpt lat="42.1119200" lon="-8.8677060">
        <ele>40.7</ele>
        <time>2021-05-19T13:21:51Z</time>
      </trkpt>
      <trkpt lat="42.1119150" lon="-8.8677130">
        <ele>40.8</ele>
        <time>2021-05-19T13:21:52Z</time>
      </trkpt>
      <trkpt lat="42.1119060" lon="-8.8677220">
        <ele>40.9</ele>
        <time>2021-05-19T13:21:53Z</time>
      </trkpt>
      <trkpt lat="42.1118940" lon="-8.8677300">
        <ele>41.0</ele>
        <time>2021-05-19T13:21:54Z</time>
      </trkpt>
      <trkpt lat="42.1118850" lon="-8.8677350">
        <ele>41.0</ele>
        <time>2021-05-19T13:21:55Z</time>
      </trkpt>
      <trkpt lat="42.1118730" lon="-8.8677430">
        <ele>41.2</ele>
        <time>2021-05-19T13:21:56Z</time>
      </trkpt>
      <trkpt lat="42.1118670" lon="-8.8677490">
        <ele>41.2</ele>
        <time>2021-05-19T13:21:57Z</time>
      </trkpt>
      <trkpt lat="42.1118630" lon="-8.8677620">
        <ele>41.3</ele>
        <time>2021-05-19T13:21:58Z</time>
      </trkpt>
      <trkpt lat="42.1118520" lon="-8.8677740">
        <ele>41.4</ele>
        <time>2021-05-19T13:21:59Z</time>
      </trkpt>
      <trkpt lat="42.1118400" lon="-8.8677840">
        <ele>41.5</ele>
        <time>2021-05-19T13:22:00Z</time>
      </trkpt>
      <trkpt lat="42.1118320" lon="-8.8677890">
        <ele>41.5</ele>
        <time>2021-05-19T13:22:01Z</time>
      </trkpt>
      <trkpt lat="42.1118280" lon="-8.8677990">
        <ele>41.6</ele>
        <time>2021-05-19T13:22:02Z</time>
      </trkpt>
      <trkpt lat="42.1118200" lon="-8.8678080">
        <ele>41.7</ele>
        <time>2021-05-19T13:22:03Z</time>
      </trkpt>
      <trkpt lat="42.1118190" lon="-8.8678220">
        <ele>41.7</ele>
        <time>2021-05-19T13:22:04Z</time>
      </trkpt>
      <trkpt lat="42.1118070" lon="-8.8678330">
        <ele>41.8</ele>
        <time>2021-05-19T13:22:05Z</time>
      </trkpt>
      <trkpt lat="42.1118010" lon="-8.8678430">
        <ele>41.9</ele>
        <time>2021-05-19T13:22:07Z</time>
      </trkpt>
      <trkpt lat="42.1117880" lon="-8.8678540">
        <ele>42.0</ele>
        <time>2021-05-19T13:22:08Z</time>
      </trkpt>
      <trkpt lat="42.1117820" lon="-8.8678620">
        <ele>42.0</ele>
        <time>2021-05-19T13:22:09Z</time>
      </trkpt>
      <trkpt lat="42.1117660" lon="-8.8678690">
        <ele>42.1</ele>
        <time>2021-05-19T13:22:10Z</time>
      </trkpt>
      <trkpt lat="42.1117540" lon="-8.8678780">
        <ele>42.2</ele>
        <time>2021-05-19T13:22:11Z</time>
      </trkpt>
      <trkpt lat="42.1117380" lon="-8.8678930">
        <ele>42.3</ele>
        <time>2021-05-19T13:22:12Z</time>
      </trkpt>
      <trkpt lat="42.1117300" lon="-8.8678980">
        <ele>42.4</ele>
        <time>2021-05-19T13:22:13Z</time>
      </trkpt>
      <trkpt lat="42.1117220" lon="-8.8679030">
        <ele>42.4</ele>
        <time>2021-05-19T13:22:14Z</time>
      </trkpt>
      <trkpt lat="42.1117200" lon="-8.8679130">
        <ele>42.4</ele>
        <time>2021-05-19T13:22:15Z</time>
      </trkpt>
      <trkpt lat="42.1117100" lon="-8.8679210">
        <ele>42.5</ele>
        <time>2021-05-19T13:22:16Z</time>
      </trkpt>
      <trkpt lat="42.1117030" lon="-8.8679330">
        <ele>42.6</ele>
        <time>2021-05-19T13:22:17Z</time>
      </trkpt>
      <trkpt lat="42.1116920" lon="-8.8679390">
        <ele>42.7</ele>
        <time>2021-05-19T13:22:18Z</time>
      </trkpt>
      <trkpt lat="42.1116840" lon="-8.8679410">
        <ele>42.8</ele>
        <time>2021-05-19T13:22:19Z</time>
      </trkpt>
      <trkpt lat="42.1116690" lon="-8.8679450">
        <ele>42.9</ele>
        <time>2021-05-19T13:22:20Z</time>
      </trkpt>
      <trkpt lat="42.1116540" lon="-8.8679490">
        <ele>43.0</ele>
        <time>2021-05-19T13:22:21Z</time>
      </trkpt>
      <trkpt lat="42.1116470" lon="-8.8679510">
        <ele>43.1</ele>
        <time>2021-05-19T13:22:22Z</time>
      </trkpt>
      <trkpt lat="42.1116390" lon="-8.8679520">
        <ele>43.1</ele>
        <time>2021-05-19T13:22:23Z</time>
      </trkpt>
      <trkpt lat="42.1116310" lon="-8.8679530">
        <ele>43.2</ele>
        <time>2021-05-19T13:22:24Z</time>
      </trkpt>
      <trkpt lat="42.1116190" lon="-8.8679540">
        <ele>43.3</ele>
        <time>2021-05-19T13:22:25Z</time>
      </trkpt>
      <trkpt lat="42.1116080" lon="-8.8679550">
        <ele>43.4</ele>
        <time>2021-05-19T13:22:26Z</time>
      </trkpt>
      <trkpt lat="42.1115980" lon="-8.8679560">
        <ele>43.5</ele>
        <time>2021-05-19T13:22:27Z</time>
      </trkpt>
      <trkpt lat="42.1115940" lon="-8.8679630">
        <ele>43.5</ele>
        <time>2021-05-19T13:22:28Z</time>
      </trkpt>
      <trkpt lat="42.1115910" lon="-8.8679600">
        <ele>43.6</ele>
        <time>2021-05-19T13:22:29Z</time>
      </trkpt>
      <trkpt lat="42.1115770" lon="-8.8679660">
        <ele>43.7</ele>
        <time>2021-05-19T13:22:30Z</time>
      </trkpt>
      <trkpt lat="42.1115680" lon="-8.8679670">
        <ele>43.8</ele>
        <time>2021-05-19T13:22:31Z</time>
      </trkpt>
      <trkpt lat="42.1115580" lon="-8.8679690">
        <ele>43.9</ele>
        <time>2021-05-19T13:22:32Z</time>
      </trkpt>
      <trkpt lat="42.1115500" lon="-8.8679680">
        <ele>44.0</ele>
        <time>2021-05-19T13:22:33Z</time>
      </trkpt>
      <trkpt lat="42.1115450" lon="-8.8679660">
        <ele>44.0</ele>
        <time>2021-05-19T13:22:34Z</time>
      </trkpt>
      <trkpt lat="42.1115350" lon="-8.8679580">
        <ele>44.2</ele>
        <time>2021-05-19T13:22:35Z</time>
      </trkpt>
      <trkpt lat="42.1115280" lon="-8.8679600">
        <ele>44.2</ele>
        <time>2021-05-19T13:22:36Z</time>
      </trkpt>
      <trkpt lat="42.1115200" lon="-8.8679620">
        <ele>44.3</ele>
        <time>2021-05-19T13:22:37Z</time>
      </trkpt>
      <trkpt lat="42.1115140" lon="-8.8679610">
        <ele>44.4</ele>
        <time>2021-05-19T13:22:38Z</time>
      </trkpt>
      <trkpt lat="42.1115070" lon="-8.8679510">
        <ele>44.5</ele>
        <time>2021-05-19T13:22:39Z</time>
      </trkpt>
      <trkpt lat="42.1114950" lon="-8.8679480">
        <ele>44.6</ele>
        <time>2021-05-19T13:22:40Z</time>
      </trkpt>
      <trkpt lat="42.1114890" lon="-8.8679460">
        <ele>44.7</ele>
        <time>2021-05-19T13:22:41Z</time>
      </trkpt>
      <trkpt lat="42.1114780" lon="-8.8679440">
        <ele>44.8</ele>
        <time>2021-05-19T13:22:42Z</time>
      </trkpt>
      <trkpt lat="42.1114670" lon="-8.8679410">
        <ele>44.9</ele>
        <time>2021-05-19T13:22:43Z</time>
      </trkpt>
      <trkpt lat="42.1114560" lon="-8.8679350">
        <ele>45.0</ele>
        <time>2021-05-19T13:22:44Z</time>
      </trkpt>
      <trkpt lat="42.1114450" lon="-8.8679290">
        <ele>45.1</ele>
        <time>2021-05-19T13:22:45Z</time>
      </trkpt>
      <trkpt lat="42.1114330" lon="-8.8679240">
        <ele>45.2</ele>
        <time>2021-05-19T13:22:46Z</time>
      </trkpt>
      <trkpt lat="42.1114260" lon="-8.8679180">
        <ele>45.3</ele>
        <time>2021-05-19T13:22:47Z</time>
      </trkpt>
      <trkpt lat="42.1114190" lon="-8.8679120">
        <ele>45.3</ele>
        <time>2021-05-19T13:22:48Z</time>
      </trkpt>
      <trkpt lat="42.1114120" lon="-8.8679060">
        <ele>45.4</ele>
        <time>2021-05-19T13:22:49Z</time>
      </trkpt>
      <trkpt lat="42.1114030" lon="-8.8678950">
        <ele>45.5</ele>
        <time>2021-05-19T13:22:50Z</time>
      </trkpt>
      <trkpt lat="42.1113880" lon="-8.8678840">
        <ele>45.7</ele>
        <time>2021-05-19T13:22:51Z</time>
      </trkpt>
      <trkpt lat="42.1113790" lon="-8.8678750">
        <ele>45.8</ele>
        <time>2021-05-19T13:22:52Z</time>
      </trkpt>
      <trkpt lat="42.1113690" lon="-8.8678660">
        <ele>45.9</ele>
        <time>2021-05-19T13:22:53Z</time>
      </trkpt>
      <trkpt lat="42.1113590" lon="-8.8678600">
        <ele>46.0</ele>
        <time>2021-05-19T13:22:54Z</time>
      </trkpt>
      <trkpt lat="42.1113470" lon="-8.8678520">
        <ele>46.1</ele>
        <time>2021-05-19T13:22:55Z</time>
      </trkpt>
      <trkpt lat="42.1113380" lon="-8.8678460">
        <ele>46.1</ele>
        <time>2021-05-19T13:22:56Z</time>
      </trkpt>
      <trkpt lat="42.1113290" lon="-8.8678400">
        <ele>46.2</ele>
        <time>2021-05-19T13:22:57Z</time>
      </trkpt>
      <trkpt lat="42.1113170" lon="-8.8678340">
        <ele>46.3</ele>
        <time>2021-05-19T13:22:58Z</time>
      </trkpt>
      <trkpt lat="42.1113070" lon="-8.8678260">
        <ele>46.4</ele>
        <time>2021-05-19T13:22:59Z</time>
      </trkpt>
      <trkpt lat="42.1113000" lon="-8.8678270">
        <ele>46.5</ele>
        <time>2021-05-19T13:23:00Z</time>
      </trkpt>
      <trkpt lat="42.1112860" lon="-8.8678200">
        <ele>46.6</ele>
        <time>2021-05-19T13:23:01Z</time>
      </trkpt>
      <trkpt lat="42.1112780" lon="-8.8678210">
        <ele>46.7</ele>
        <time>2021-05-19T13:23:02Z</time>
      </trkpt>
      <trkpt lat="42.1112650" lon="-8.8678160">
        <ele>46.7</ele>
        <time>2021-05-19T13:23:03Z</time>
      </trkpt>
      <trkpt lat="42.1112550" lon="-8.8678090">
        <ele>46.8</ele>
        <time>2021-05-19T13:23:04Z</time>
      </trkpt>
      <trkpt lat="42.1112450" lon="-8.8678040">
        <ele>46.9</ele>
        <time>2021-05-19T13:23:05Z</time>
      </trkpt>
      <trkpt lat="42.1112340" lon="-8.8677980">
        <ele>47.0</ele>
        <time>2021-05-19T13:23:06Z</time>
      </trkpt>
      <trkpt lat="42.1112240" lon="-8.8677960">
        <ele>47.1</ele>
        <time>2021-05-19T13:23:07Z</time>
      </trkpt>
      <trkpt lat="42.1112130" lon="-8.8677920">
        <ele>47.2</ele>
        <time>2021-05-19T13:23:08Z</time>
      </trkpt>
      <trkpt lat="42.1112060" lon="-8.8677840">
        <ele>47.2</ele>
        <time>2021-05-19T13:23:09Z</time>
      </trkpt>
      <trkpt lat="42.1111940" lon="-8.8677780">
        <ele>47.3</ele>
        <time>2021-05-19T13:23:10Z</time>
      </trkpt>
      <trkpt lat="42.1111860" lon="-8.8677720">
        <ele>47.4</ele>
        <time>2021-05-19T13:23:11Z</time>
      </trkpt>
      <trkpt lat="42.1111710" lon="-8.8677700">
        <ele>47.5</ele>
        <time>2021-05-19T13:23:12Z</time>
      </trkpt>
      <trkpt lat="42.1111600" lon="-8.8677650">
        <ele>47.6</ele>
        <time>2021-05-19T13:23:13Z</time>
      </trkpt>
      <trkpt lat="42.1111520" lon="-8.8677610">
        <ele>47.7</ele>
        <time>2021-05-19T13:23:14Z</time>
      </trkpt>
      <trkpt lat="42.1111370" lon="-8.8677560">
        <ele>47.8</ele>
        <time>2021-05-19T13:23:15Z</time>
      </trkpt>
      <trkpt lat="42.1111270" lon="-8.8677450">
        <ele>47.9</ele>
        <time>2021-05-19T13:23:16Z</time>
      </trkpt>
      <trkpt lat="42.1111180" lon="-8.8677390">
        <ele>47.9</ele>
        <time>2021-05-19T13:23:17Z</time>
      </trkpt>
      <trkpt lat="42.1111060" lon="-8.8677320">
        <ele>48.0</ele>
        <time>2021-05-19T13:23:18Z</time>
      </trkpt>
      <trkpt lat="42.1110900" lon="-8.8677210">
        <ele>48.1</ele>
        <time>2021-05-19T13:23:19Z</time>
      </trkpt>
      <trkpt lat="42.1110850" lon="-8.8677170">
        <ele>48.2</ele>
        <time>2021-05-19T13:23:20Z</time>
      </trkpt>
      <trkpt lat="42.1110790" lon="-8.8677140">
        <ele>48.2</ele>
        <time>2021-05-19T13:23:21Z</time>
      </trkpt>
      <trkpt lat="42.1110730" lon="-8.8677100">
        <ele>48.3</ele>
        <time>2021-05-19T13:23:22Z</time>
      </trkpt>
      <trkpt lat="42.1110520" lon="-8.8677020">
        <ele>48.4</ele>
        <time>2021-05-19T13:23:23Z</time>
      </trkpt>
      <trkpt lat="42.1110420" lon="-8.8676980">
        <ele>48.5</ele>
        <time>2021-05-19T13:23:24Z</time>
      </trkpt>
      <trkpt lat="42.1110330" lon="-8.8676950">
        <ele>48.5</ele>
        <time>2021-05-19T13:23:25Z</time>
      </trkpt>
      <trkpt lat="42.1110230" lon="-8.8676910">
        <ele>48.6</ele>
        <time>2021-05-19T13:23:26Z</time>
      </trkpt>
      <trkpt lat="42.1110120" lon="-8.8676890">
        <ele>48.6</ele>
        <time>2021-05-19T13:23:27Z</time>
      </trkpt>
      <trkpt lat="42.1110020" lon="-8.8676960">
        <ele>48.7</ele>
        <time>2021-05-19T13:23:28Z</time>
      </trkpt>
      <trkpt lat="42.1109920" lon="-8.8676850">
        <ele>48.8</ele>
        <time>2021-05-19T13:23:29Z</time>
      </trkpt>
      <trkpt lat="42.1109690" lon="-8.8676740">
        <ele>48.9</ele>
        <time>2021-05-19T13:23:30Z</time>
      </trkpt>
      <trkpt lat="42.1109600" lon="-8.8676700">
        <ele>49.0</ele>
        <time>2021-05-19T13:23:31Z</time>
      </trkpt>
      <trkpt lat="42.1109510" lon="-8.8676650">
        <ele>49.1</ele>
        <time>2021-05-19T13:23:32Z</time>
      </trkpt>
      <trkpt lat="42.1109410" lon="-8.8676600">
        <ele>49.1</ele>
        <time>2021-05-19T13:23:33Z</time>
      </trkpt>
      <trkpt lat="42.1109280" lon="-8.8676550">
        <ele>49.2</ele>
        <time>2021-05-19T13:23:34Z</time>
      </trkpt>
      <trkpt lat="42.1109190" lon="-8.8676520">
        <ele>49.3</ele>
        <time>2021-05-19T13:23:35Z</time>
      </trkpt>
      <trkpt lat="42.1108980" lon="-8.8676390">
        <ele>49.4</ele>
        <time>2021-05-19T13:23:36Z</time>
      </trkpt>
      <trkpt lat="42.1108880" lon="-8.8676320">
        <ele>49.5</ele>
        <time>2021-05-19T13:23:37Z</time>
      </trkpt>
      <trkpt lat="42.1108770" lon="-8.8676250">
        <ele>49.5</ele>
        <time>2021-05-19T13:23:38Z</time>
      </trkpt>
      <trkpt lat="42.1108700" lon="-8.8676210">
        <ele>49.6</ele>
        <time>2021-05-19T13:23:39Z</time>
      </trkpt>
      <trkpt lat="42.1108580" lon="-8.8676160">
        <ele>49.7</ele>
        <time>2021-05-19T13:23:40Z</time>
      </trkpt>
      <trkpt lat="42.1108450" lon="-8.8676150">
        <ele>49.8</ele>
        <time>2021-05-19T13:23:41Z</time>
      </trkpt>
      <trkpt lat="42.1108340" lon="-8.8676060">
        <ele>49.8</ele>
        <time>2021-05-19T13:23:42Z</time>
      </trkpt>
      <trkpt lat="42.1108280" lon="-8.8676040">
        <ele>49.9</ele>
        <time>2021-05-19T13:23:43Z</time>
      </trkpt>
      <trkpt lat="42.1108180" lon="-8.8675980">
        <ele>49.9</ele>
        <time>2021-05-19T13:23:44Z</time>
      </trkpt>
      <trkpt lat="42.1108040" lon="-8.8675900">
        <ele>50.0</ele>
        <time>2021-05-19T13:23:45Z</time>
      </trkpt>
      <trkpt lat="42.1107930" lon="-8.8675840">
        <ele>50.1</ele>
        <time>2021-05-19T13:23:46Z</time>
      </trkpt>
      <trkpt lat="42.1107800" lon="-8.8675740">
        <ele>50.2</ele>
        <time>2021-05-19T13:23:47Z</time>
      </trkpt>
      <trkpt lat="42.1107730" lon="-8.8675730">
        <ele>50.3</ele>
        <time>2021-05-19T13:23:48Z</time>
      </trkpt>
      <trkpt lat="42.1107650" lon="-8.8675600">
        <ele>50.4</ele>
        <time>2021-05-19T13:23:49Z</time>
      </trkpt>
      <trkpt lat="42.1107560" lon="-8.8675460">
        <ele>50.5</ele>
        <time>2021-05-19T13:23:50Z</time>
      </trkpt>
      <trkpt lat="42.1107450" lon="-8.8675360">
        <ele>50.6</ele>
        <time>2021-05-19T13:23:51Z</time>
      </trkpt>
      <trkpt lat="42.1107360" lon="-8.8675310">
        <ele>50.6</ele>
        <time>2021-05-19T13:23:52Z</time>
      </trkpt>
      <trkpt lat="42.1107270" lon="-8.8675200">
        <ele>50.7</ele>
        <time>2021-05-19T13:23:53Z</time>
      </trkpt>
      <trkpt lat="42.1107160" lon="-8.8675100">
        <ele>50.8</ele>
        <time>2021-05-19T13:23:54Z</time>
      </trkpt>
      <trkpt lat="42.1107000" lon="-8.8674970">
        <ele>51.0</ele>
        <time>2021-05-19T13:23:55Z</time>
      </trkpt>
      <trkpt lat="42.1106900" lon="-8.8674910">
        <ele>51.1</ele>
        <time>2021-05-19T13:23:56Z</time>
      </trkpt>
      <trkpt lat="42.1106810" lon="-8.8674860">
        <ele>51.2</ele>
        <time>2021-05-19T13:23:57Z</time>
      </trkpt>
      <trkpt lat="42.1106720" lon="-8.8674800">
        <ele>51.3</ele>
        <time>2021-05-19T13:23:58Z</time>
      </trkpt>
      <trkpt lat="42.1106630" lon="-8.8674780">
        <ele>51.4</ele>
        <time>2021-05-19T13:23:59Z</time>
      </trkpt>
      <trkpt lat="42.1106500" lon="-8.8674750">
        <ele>51.5</ele>
        <time>2021-05-19T13:24:00Z</time>
      </trkpt>
      <trkpt lat="42.1106350" lon="-8.8674710">
        <ele>51.6</ele>
        <time>2021-05-19T13:24:01Z</time>
      </trkpt>
      <trkpt lat="42.1106190" lon="-8.8674630">
        <ele>51.8</ele>
        <time>2021-05-19T13:24:02Z</time>
      </trkpt>
      <trkpt lat="42.1106080" lon="-8.8674570">
        <ele>51.9</ele>
        <time>2021-05-19T13:24:03Z</time>
      </trkpt>
      <trkpt lat="42.1105990" lon="-8.8674460">
        <ele>52.0</ele>
        <time>2021-05-19T13:24:04Z</time>
      </trkpt>
      <trkpt lat="42.1105890" lon="-8.8674410">
        <ele>52.1</ele>
        <time>2021-05-19T13:24:05Z</time>
      </trkpt>
      <trkpt lat="42.1105690" lon="-8.8674320">
        <ele>52.4</ele>
        <time>2021-05-19T13:24:06Z</time>
      </trkpt>
      <trkpt lat="42.1105620" lon="-8.8674250">
        <ele>52.5</ele>
        <time>2021-05-19T13:24:07Z</time>
      </trkpt>
      <trkpt lat="42.1105540" lon="-8.8674190">
        <ele>52.6</ele>
        <time>2021-05-19T13:24:08Z</time>
      </trkpt>
      <trkpt lat="42.1105320" lon="-8.8674090">
        <ele>52.8</ele>
        <time>2021-05-19T13:24:09Z</time>
      </trkpt>
      <trkpt lat="42.1105240" lon="-8.8674040">
        <ele>52.9</ele>
        <time>2021-05-19T13:24:10Z</time>
      </trkpt>
      <trkpt lat="42.1105150" lon="-8.8673990">
        <ele>53.0</ele>
        <time>2021-05-19T13:24:11Z</time>
      </trkpt>
      <trkpt lat="42.1105040" lon="-8.8673870">
        <ele>53.2</ele>
        <time>2021-05-19T13:24:12Z</time>
      </trkpt>
      <trkpt lat="42.1104960" lon="-8.8673770">
        <ele>53.3</ele>
        <time>2021-05-19T13:24:13Z</time>
      </trkpt>
      <trkpt lat="42.1104870" lon="-8.8673700">
        <ele>53.4</ele>
        <time>2021-05-19T13:24:14Z</time>
      </trkpt>
      <trkpt lat="42.1104760" lon="-8.8673620">
        <ele>53.5</ele>
        <time>2021-05-19T13:24:15Z</time>
      </trkpt>
      <trkpt lat="42.1104670" lon="-8.8673550">
        <ele>53.7</ele>
        <time>2021-05-19T13:24:16Z</time>
      </trkpt>
      <trkpt lat="42.1104610" lon="-8.8673470">
        <ele>53.8</ele>
        <time>2021-05-19T13:24:17Z</time>
      </trkpt>
      <trkpt lat="42.1104410" lon="-8.8673420">
        <ele>54.0</ele>
        <time>2021-05-19T13:24:18Z</time>
      </trkpt>
      <trkpt lat="42.1104280" lon="-8.8673380">
        <ele>54.1</ele>
        <time>2021-05-19T13:24:19Z</time>
      </trkpt>
      <trkpt lat="42.1104150" lon="-8.8673330">
        <ele>54.3</ele>
        <time>2021-05-19T13:24:20Z</time>
      </trkpt>
      <trkpt lat="42.1104040" lon="-8.8673290">
        <ele>54.4</ele>
        <time>2021-05-19T13:24:21Z</time>
      </trkpt>
      <trkpt lat="42.1103810" lon="-8.8673190">
        <ele>54.7</ele>
        <time>2021-05-19T13:24:22Z</time>
      </trkpt>
      <trkpt lat="42.1103720" lon="-8.8673120">
        <ele>54.8</ele>
        <time>2021-05-19T13:24:23Z</time>
      </trkpt>
      <trkpt lat="42.1103680" lon="-8.8673050">
        <ele>54.9</ele>
        <time>2021-05-19T13:24:24Z</time>
      </trkpt>
      <trkpt lat="42.1103590" lon="-8.8672960">
        <ele>55.0</ele>
        <time>2021-05-19T13:24:25Z</time>
      </trkpt>
      <trkpt lat="42.1103470" lon="-8.8672730">
        <ele>55.3</ele>
        <time>2021-05-19T13:24:26Z</time>
      </trkpt>
      <trkpt lat="42.1103400" lon="-8.8672670">
        <ele>55.4</ele>
        <time>2021-05-19T13:24:27Z</time>
      </trkpt>
      <trkpt lat="42.1103320" lon="-8.8672600">
        <ele>55.5</ele>
        <time>2021-05-19T13:24:28Z</time>
      </trkpt>
      <trkpt lat="42.1103110" lon="-8.8672530">
        <ele>55.7</ele>
        <time>2021-05-19T13:24:29Z</time>
      </trkpt>
      <trkpt lat="42.1103040" lon="-8.8672480">
        <ele>55.8</ele>
        <time>2021-05-19T13:24:30Z</time>
      </trkpt>
      <trkpt lat="42.1102960" lon="-8.8672430">
        <ele>55.9</ele>
        <time>2021-05-19T13:24:31Z</time>
      </trkpt>
      <trkpt lat="42.1102890" lon="-8.8672450">
        <ele>56.0</ele>
        <time>2021-05-19T13:24:32Z</time>
      </trkpt>
      <trkpt lat="42.1102750" lon="-8.8672390">
        <ele>56.2</ele>
        <time>2021-05-19T13:24:33Z</time>
      </trkpt>
      <trkpt lat="42.1102640" lon="-8.8672370">
        <ele>56.3</ele>
        <time>2021-05-19T13:24:34Z</time>
      </trkpt>
      <trkpt lat="42.1102500" lon="-8.8672330">
        <ele>56.5</ele>
        <time>2021-05-19T13:24:35Z</time>
      </trkpt>
      <trkpt lat="42.1102370" lon="-8.8672320">
        <ele>56.6</ele>
        <time>2021-05-19T13:24:36Z</time>
      </trkpt>
      <trkpt lat="42.1102130" lon="-8.8672280">
        <ele>56.9</ele>
        <time>2021-05-19T13:24:37Z</time>
      </trkpt>
      <trkpt lat="42.1102040" lon="-8.8672280">
        <ele>57.0</ele>
        <time>2021-05-19T13:24:38Z</time>
      </trkpt>
      <trkpt lat="42.1101960" lon="-8.8672280">
        <ele>57.1</ele>
        <time>2021-05-19T13:24:39Z</time>
      </trkpt>
      <trkpt lat="42.1101740" lon="-8.8672260">
        <ele>57.3</ele>
        <time>2021-05-19T13:24:40Z</time>
      </trkpt>
      <trkpt lat="42.1101660" lon="-8.8672250">
        <ele>57.4</ele>
        <time>2021-05-19T13:24:41Z</time>
      </trkpt>
      <trkpt lat="42.1101580" lon="-8.8672250">
        <ele>57.5</ele>
        <time>2021-05-19T13:24:42Z</time>
      </trkpt>
      <trkpt lat="42.1101450" lon="-8.8672240">
        <ele>57.6</ele>
        <time>2021-05-19T13:24:43Z</time>
      </trkpt>
      <trkpt lat="42.1101380" lon="-8.8672210">
        <ele>57.7</ele>
        <time>2021-05-19T13:24:44Z</time>
      </trkpt>
      <trkpt lat="42.1101300" lon="-8.8672210">
        <ele>57.7</ele>
        <time>2021-05-19T13:24:45Z</time>
      </trkpt>
      <trkpt lat="42.1101210" lon="-8.8672200">
        <ele>57.8</ele>
        <time>2021-05-19T13:24:46Z</time>
      </trkpt>
      <trkpt lat="42.1101070" lon="-8.8672190">
        <ele>57.9</ele>
        <time>2021-05-19T13:24:47Z</time>
      </trkpt>
      <trkpt lat="42.1100950" lon="-8.8672180">
        <ele>58.1</ele>
        <time>2021-05-19T13:24:48Z</time>
      </trkpt>
      <trkpt lat="42.1100830" lon="-8.8672180">
        <ele>58.2</ele>
        <time>2021-05-19T13:24:49Z</time>
      </trkpt>
      <trkpt lat="42.1100750" lon="-8.8672190">
        <ele>58.2</ele>
        <time>2021-05-19T13:24:50Z</time>
      </trkpt>
      <trkpt lat="42.1100640" lon="-8.8672200">
        <ele>58.3</ele>
        <time>2021-05-19T13:24:51Z</time>
      </trkpt>
      <trkpt lat="42.1100560" lon="-8.8672210">
        <ele>58.4</ele>
        <time>2021-05-19T13:24:52Z</time>
      </trkpt>
      <trkpt lat="42.1100440" lon="-8.8672210">
        <ele>58.5</ele>
        <time>2021-05-19T13:24:53Z</time>
      </trkpt>
      <trkpt lat="42.1100350" lon="-8.8672240">
        <ele>58.6</ele>
        <time>2021-05-19T13:24:54Z</time>
      </trkpt>
      <trkpt lat="42.1100200" lon="-8.8672300">
        <ele>58.7</ele>
        <time>2021-05-19T13:24:55Z</time>
      </trkpt>
      <trkpt lat="42.1100040" lon="-8.8672330">
        <ele>58.8</ele>
        <time>2021-05-19T13:24:56Z</time>
      </trkpt>
      <trkpt lat="42.1099940" lon="-8.8672280">
        <ele>58.9</ele>
        <time>2021-05-19T13:24:57Z</time>
      </trkpt>
      <trkpt lat="42.1099860" lon="-8.8672280">
        <ele>59.0</ele>
        <time>2021-05-19T13:24:58Z</time>
      </trkpt>
      <trkpt lat="42.1099750" lon="-8.8672310">
        <ele>59.1</ele>
        <time>2021-05-19T13:24:59Z</time>
      </trkpt>
      <trkpt lat="42.1099610" lon="-8.8672350">
        <ele>59.2</ele>
        <time>2021-05-19T13:25:00Z</time>
      </trkpt>
      <trkpt lat="42.1099450" lon="-8.8672350">
        <ele>59.3</ele>
        <time>2021-05-19T13:25:01Z</time>
      </trkpt>
      <trkpt lat="42.1099260" lon="-8.8672340">
        <ele>59.5</ele>
        <time>2021-05-19T13:25:02Z</time>
      </trkpt>
      <trkpt lat="42.1099140" lon="-8.8672290">
        <ele>59.6</ele>
        <time>2021-05-19T13:25:03Z</time>
      </trkpt>
      <trkpt lat="42.1099030" lon="-8.8672250">
        <ele>59.7</ele>
        <time>2021-05-19T13:25:04Z</time>
      </trkpt>
      <trkpt lat="42.1098820" lon="-8.8672270">
        <ele>59.8</ele>
        <time>2021-05-19T13:25:05Z</time>
      </trkpt>
      <trkpt lat="42.1098820" lon="-8.8672220">
        <ele>59.9</ele>
        <time>2021-05-19T13:25:06Z</time>
      </trkpt>
      <trkpt lat="42.1098750" lon="-8.8672210">
        <ele>59.9</ele>
        <time>2021-05-19T13:25:07Z</time>
      </trkpt>
      <trkpt lat="42.1098650" lon="-8.8672270">
        <ele>60.0</ele>
        <time>2021-05-19T13:25:08Z</time>
      </trkpt>
      <trkpt lat="42.1098540" lon="-8.8672310">
        <ele>60.1</ele>
        <time>2021-05-19T13:25:09Z</time>
      </trkpt>
      <trkpt lat="42.1098460" lon="-8.8672330">
        <ele>60.2</ele>
        <time>2021-05-19T13:25:10Z</time>
      </trkpt>
      <trkpt lat="42.1098400" lon="-8.8672310">
        <ele>60.2</ele>
        <time>2021-05-19T13:25:11Z</time>
      </trkpt>
      <trkpt lat="42.1098260" lon="-8.8672320">
        <ele>60.3</ele>
        <time>2021-05-19T13:25:12Z</time>
      </trkpt>
      <trkpt lat="42.1098110" lon="-8.8672310">
        <ele>60.4</ele>
        <time>2021-05-19T13:25:13Z</time>
      </trkpt>
      <trkpt lat="42.1098060" lon="-8.8672300">
        <ele>60.5</ele>
        <time>2021-05-19T13:25:14Z</time>
      </trkpt>
      <trkpt lat="42.1097980" lon="-8.8672300">
        <ele>60.5</ele>
        <time>2021-05-19T13:25:15Z</time>
      </trkpt>
      <trkpt lat="42.1097840" lon="-8.8672290">
        <ele>60.6</ele>
        <time>2021-05-19T13:25:16Z</time>
      </trkpt>
      <trkpt lat="42.1097780" lon="-8.8672260">
        <ele>60.7</ele>
        <time>2021-05-19T13:25:17Z</time>
      </trkpt>
      <trkpt lat="42.1097640" lon="-8.8672250">
        <ele>60.8</ele>
        <time>2021-05-19T13:25:18Z</time>
      </trkpt>
      <trkpt lat="42.1097590" lon="-8.8672270">
        <ele>60.9</ele>
        <time>2021-05-19T13:25:19Z</time>
      </trkpt>
      <trkpt lat="42.1097550" lon="-8.8672290">
        <ele>61.0</ele>
        <time>2021-05-19T13:25:20Z</time>
      </trkpt>
      <trkpt lat="42.1097500" lon="-8.8672300">
        <ele>61.1</ele>
        <time>2021-05-19T13:25:21Z</time>
      </trkpt>
      <trkpt lat="42.1097460" lon="-8.8672320">
        <ele>61.8</ele>
        <time>2021-05-19T13:25:22Z</time>
      </trkpt>
      <trkpt lat="42.1097410" lon="-8.8672340">
        <ele>61.9</ele>
        <time>2021-05-19T13:25:23Z</time>
      </trkpt>
      <trkpt lat="42.1097400" lon="-8.8672370">
        <ele>62.0</ele>
        <time>2021-05-19T13:25:24Z</time>
      </trkpt>
      <trkpt lat="42.1097320" lon="-8.8672350">
        <ele>62.0</ele>
        <time>2021-05-19T13:25:25Z</time>
      </trkpt>
      <trkpt lat="42.1097270" lon="-8.8672350">
        <ele>62.1</ele>
        <time>2021-05-19T13:25:26Z</time>
      </trkpt>
      <trkpt lat="42.1097190" lon="-8.8672400">
        <ele>62.2</ele>
        <time>2021-05-19T13:25:27Z</time>
      </trkpt>
      <trkpt lat="42.1097190" lon="-8.8672410">
        <ele>62.3</ele>
        <time>2021-05-19T13:25:28Z</time>
      </trkpt>
      <trkpt lat="42.1097160" lon="-8.8672530">
        <ele>63.0</ele>
        <time>2021-05-19T13:25:29Z</time>
      </trkpt>
      <trkpt lat="42.1097080" lon="-8.8672520">
        <ele>63.1</ele>
        <time>2021-05-19T13:25:30Z</time>
      </trkpt>
      <trkpt lat="42.1097070" lon="-8.8672470">
        <ele>63.2</ele>
        <time>2021-05-19T13:25:31Z</time>
      </trkpt>
      <trkpt lat="42.1096950" lon="-8.8672520">
        <ele>63.3</ele>
        <time>2021-05-19T13:25:32Z</time>
      </trkpt>
      <trkpt lat="42.1096800" lon="-8.8672500">
        <ele>64.0</ele>
        <time>2021-05-19T13:25:33Z</time>
      </trkpt>
      <trkpt lat="42.1096740" lon="-8.8672450">
        <ele>64.1</ele>
        <time>2021-05-19T13:25:34Z</time>
      </trkpt>
      <trkpt lat="42.1096610" lon="-8.8672400">
        <ele>64.2</ele>
        <time>2021-05-19T13:25:35Z</time>
      </trkpt>
      <trkpt lat="42.1096600" lon="-8.8672470">
        <ele>64.3</ele>
        <time>2021-05-19T13:25:36Z</time>
      </trkpt>
      <trkpt lat="42.1096570" lon="-8.8672410">
        <ele>64.4</ele>
        <time>2021-05-19T13:25:37Z</time>
      </trkpt>
      <trkpt lat="42.1096560" lon="-8.8672350">
        <ele>64.5</ele>
        <time>2021-05-19T13:25:38Z</time>
      </trkpt>
      <trkpt lat="42.1096540" lon="-8.8672330">
        <ele>64.6</ele>
        <time>2021-05-19T13:25:39Z</time>
      </trkpt>
      <trkpt lat="42.1096530" lon="-8.8672260">
        <ele>65.3</ele>
        <time>2021-05-19T13:25:40Z</time>
      </trkpt>
      <trkpt lat="42.1096570" lon="-8.8672290">
        <ele>64.7</ele>
        <time>2021-05-19T13:25:41Z</time>
      </trkpt>
      <trkpt lat="42.1096540" lon="-8.8672260">
        <ele>64.8</ele>
        <time>2021-05-19T13:25:42Z</time>
      </trkpt>
      <trkpt lat="42.1096470" lon="-8.8672210">
        <ele>65.5</ele>
        <time>2021-05-19T13:25:43Z</time>
      </trkpt>
      <trkpt lat="42.1096390" lon="-8.8672170">
        <ele>65.6</ele>
        <time>2021-05-19T13:25:44Z</time>
      </trkpt>
      <trkpt lat="42.1096270" lon="-8.8672150">
        <ele>65.7</ele>
        <time>2021-05-19T13:25:45Z</time>
      </trkpt>
      <trkpt lat="42.1096290" lon="-8.8672160">
        <ele>65.8</ele>
        <time>2021-05-19T13:25:46Z</time>
      </trkpt>
      <trkpt lat="42.1096290" lon="-8.8672080">
        <ele>66.3</ele>
        <time>2021-05-19T13:25:47Z</time>
      </trkpt>
      <trkpt lat="42.1096310" lon="-8.8672210">
        <ele>66.0</ele>
        <time>2021-05-19T13:25:48Z</time>
      </trkpt>
      <trkpt lat="42.1096280" lon="-8.8672220">
        <ele>66.1</ele>
        <time>2021-05-19T13:25:49Z</time>
      </trkpt>
      <trkpt lat="42.1096260" lon="-8.8672280">
        <ele>66.2</ele>
        <time>2021-05-19T13:25:50Z</time>
      </trkpt>
      <trkpt lat="42.1096270" lon="-8.8672330">
        <ele>66.2</ele>
        <time>2021-05-19T13:25:51Z</time>
      </trkpt>
      <trkpt lat="42.1096270" lon="-8.8672310">
        <ele>66.3</ele>
        <time>2021-05-19T13:25:52Z</time>
      </trkpt>
      <trkpt lat="42.1096270" lon="-8.8672340">
        <ele>66.4</ele>
        <time>2021-05-19T13:25:53Z</time>
      </trkpt>
      <trkpt lat="42.1096240" lon="-8.8672370">
        <ele>66.5</ele>
        <time>2021-05-19T13:25:54Z</time>
      </trkpt>
      <trkpt lat="42.1096240" lon="-8.8672350">
        <ele>66.6</ele>
        <time>2021-05-19T13:25:55Z</time>
      </trkpt>
      <trkpt lat="42.1096240" lon="-8.8672310">
        <ele>66.7</ele>
        <time>2021-05-19T13:25:56Z</time>
      </trkpt>
      <trkpt lat="42.1096260" lon="-8.8672300">
        <ele>66.8</ele>
        <time>2021-05-19T13:25:57Z</time>
      </trkpt>
      <trkpt lat="42.1096240" lon="-8.8672300">
        <ele>66.9</ele>
        <time>2021-05-19T13:25:58Z</time>
      </trkpt>
      <trkpt lat="42.1096230" lon="-8.8672310">
        <ele>67.0</ele>
        <time>2021-05-19T13:25:59Z</time>
      </trkpt>
      <trkpt lat="42.1096250" lon="-8.8672330">
        <ele>67.0</ele>
        <time>2021-05-19T13:26:00Z</time>
      </trkpt>
      <trkpt lat="42.1096280" lon="-8.8672350">
        <ele>67.1</ele>
        <time>2021-05-19T13:26:01Z</time>
      </trkpt>
      <trkpt lat="42.1096290" lon="-8.8672390">
        <ele>67.2</ele>
        <time>2021-05-19T13:26:02Z</time>
      </trkpt>
      <trkpt lat="42.1096300" lon="-8.8672390">
        <ele>67.3</ele>
        <time>2021-05-19T13:26:03Z</time>
      </trkpt>
      <trkpt lat="42.1096310" lon="-8.8672440">
        <ele>67.4</ele>
        <time>2021-05-19T13:26:04Z</time>
      </trkpt>
      <trkpt lat="42.1096350" lon="-8.8672490">
        <ele>67.5</ele>
        <time>2021-05-19T13:26:05Z</time>
      </trkpt>
      <trkpt lat="42.1096370" lon="-8.8672550">
        <ele>67.2</ele>
        <time>2021-05-19T13:26:06Z</time>
      </trkpt>
      <trkpt lat="42.1096380" lon="-8.8672610">
        <ele>67.3</ele>
        <time>2021-05-19T13:26:07Z</time>
      </trkpt>
      <trkpt lat="42.1096380" lon="-8.8672630">
        <ele>67.4</ele>
        <time>2021-05-19T13:26:08Z</time>
      </trkpt>
      <trkpt lat="42.1096380" lon="-8.8672620">
        <ele>67.5</ele>
        <time>2021-05-19T13:26:09Z</time>
      </trkpt>
      <trkpt lat="42.1096410" lon="-8.8672630">
        <ele>67.6</ele>
        <time>2021-05-19T13:26:10Z</time>
      </trkpt>
      <trkpt lat="42.1096390" lon="-8.8672620">
        <ele>67.7</ele>
        <time>2021-05-19T13:26:11Z</time>
      </trkpt>
      <trkpt lat="42.1096370" lon="-8.8672630">
        <ele>67.7</ele>
        <time>2021-05-19T13:26:12Z</time>
      </trkpt>
      <trkpt lat="42.1096340" lon="-8.8672670">
        <ele>67.8</ele>
        <time>2021-05-19T13:26:13Z</time>
      </trkpt>
      <trkpt lat="42.1096310" lon="-8.8672730">
        <ele>67.9</ele>
        <time>2021-05-19T13:26:14Z</time>
      </trkpt>
      <trkpt lat="42.1096290" lon="-8.8672640">
        <ele>68.0</ele>
        <time>2021-05-19T13:26:15Z</time>
      </trkpt>
      <trkpt lat="42.1096350" lon="-8.8672550">
        <ele>68.1</ele>
        <time>2021-05-19T13:26:16Z</time>
      </trkpt>
      <trkpt lat="42.1096410" lon="-8.8672450">
        <ele>68.6</ele>
        <time>2021-05-19T13:26:17Z</time>
      </trkpt>
      <trkpt lat="42.1096460" lon="-8.8672340">
        <ele>68.7</ele>
        <time>2021-05-19T13:26:18Z</time>
      </trkpt>
      <trkpt lat="42.1096530" lon="-8.8672210">
        <ele>68.7</ele>
        <time>2021-05-19T13:26:19Z</time>
      </trkpt>
      <trkpt lat="42.1096630" lon="-8.8672080">
        <ele>68.7</ele>
        <time>2021-05-19T13:26:20Z</time>
      </trkpt>
      <trkpt lat="42.1096700" lon="-8.8671960">
        <ele>68.7</ele>
        <time>2021-05-19T13:26:21Z</time>
      </trkpt>
      <trkpt lat="42.1096810" lon="-8.8671900">
        <ele>68.8</ele>
        <time>2021-05-19T13:26:22Z</time>
      </trkpt>
      <trkpt lat="42.1096900" lon="-8.8671840">
        <ele>68.3</ele>
        <time>2021-05-19T13:26:23Z</time>
      </trkpt>
      <trkpt lat="42.1096940" lon="-8.8671730">
        <ele>68.4</ele>
        <time>2021-05-19T13:26:24Z</time>
      </trkpt>
      <trkpt lat="42.1097120" lon="-8.8671680">
        <ele>69.0</ele>
        <time>2021-05-19T13:26:25Z</time>
      </trkpt>
      <trkpt lat="42.1097250" lon="-8.8671540">
        <ele>68.5</ele>
        <time>2021-05-19T13:26:26Z</time>
      </trkpt>
      <trkpt lat="42.1097320" lon="-8.8671480">
        <ele>68.6</ele>
        <time>2021-05-19T13:26:27Z</time>
      </trkpt>
      <trkpt lat="42.1097360" lon="-8.8671370">
        <ele>68.7</ele>
        <time>2021-05-19T13:26:28Z</time>
      </trkpt>
      <trkpt lat="42.1097540" lon="-8.8671300">
        <ele>68.8</ele>
        <time>2021-05-19T13:26:29Z</time>
      </trkpt>
      <trkpt lat="42.1097640" lon="-8.8671240">
        <ele>68.8</ele>
        <time>2021-05-19T13:26:30Z</time>
      </trkpt>
      <trkpt lat="42.1097780" lon="-8.8671190">
        <ele>68.9</ele>
        <time>2021-05-19T13:26:31Z</time>
      </trkpt>
      <trkpt lat="42.1097910" lon="-8.8671080">
        <ele>69.0</ele>
        <time>2021-05-19T13:26:32Z</time>
      </trkpt>
      <trkpt lat="42.1097950" lon="-8.8670980">
        <ele>69.1</ele>
        <time>2021-05-19T13:26:33Z</time>
      </trkpt>
      <trkpt lat="42.1098020" lon="-8.8670890">
        <ele>69.1</ele>
        <time>2021-05-19T13:26:34Z</time>
      </trkpt>
      <trkpt lat="42.1098120" lon="-8.8670830">
        <ele>69.2</ele>
        <time>2021-05-19T13:26:35Z</time>
      </trkpt>
      <trkpt lat="42.1098260" lon="-8.8670700">
        <ele>69.3</ele>
        <time>2021-05-19T13:26:36Z</time>
      </trkpt>
      <trkpt lat="42.1098310" lon="-8.8670620">
        <ele>69.3</ele>
        <time>2021-05-19T13:26:37Z</time>
      </trkpt>
      <trkpt lat="42.1098350" lon="-8.8670530">
        <ele>69.4</ele>
        <time>2021-05-19T13:26:38Z</time>
      </trkpt>
      <trkpt lat="42.1098390" lon="-8.8670450">
        <ele>69.4</ele>
        <time>2021-05-19T13:26:39Z</time>
      </trkpt>
      <trkpt lat="42.1098490" lon="-8.8670420">
        <ele>69.5</ele>
        <time>2021-05-19T13:26:40Z</time>
      </trkpt>
      <trkpt lat="42.1098580" lon="-8.8670370">
        <ele>69.5</ele>
        <time>2021-05-19T13:26:41Z</time>
      </trkpt>
      <trkpt lat="42.1098690" lon="-8.8670290">
        <ele>69.6</ele>
        <time>2021-05-19T13:26:42Z</time>
      </trkpt>
      <trkpt lat="42.1098880" lon="-8.8670260">
        <ele>69.8</ele>
        <time>2021-05-19T13:26:43Z</time>
      </trkpt>
      <trkpt lat="42.1099010" lon="-8.8670160">
        <ele>69.9</ele>
        <time>2021-05-19T13:26:44Z</time>
      </trkpt>
      <trkpt lat="42.1099110" lon="-8.8670100">
        <ele>69.9</ele>
        <time>2021-05-19T13:26:45Z</time>
      </trkpt>
      <trkpt lat="42.1099190" lon="-8.8670020">
        <ele>70.0</ele>
        <time>2021-05-19T13:26:46Z</time>
      </trkpt>
      <trkpt lat="42.1099330" lon="-8.8669950">
        <ele>70.1</ele>
        <time>2021-05-19T13:26:47Z</time>
      </trkpt>
      <trkpt lat="42.1099420" lon="-8.8669840">
        <ele>70.2</ele>
        <time>2021-05-19T13:26:48Z</time>
      </trkpt>
      <trkpt lat="42.1099510" lon="-8.8669770">
        <ele>70.2</ele>
        <time>2021-05-19T13:26:49Z</time>
      </trkpt>
      <trkpt lat="42.1099610" lon="-8.8669680">
        <ele>70.3</ele>
        <time>2021-05-19T13:26:50Z</time>
      </trkpt>
      <trkpt lat="42.1099700" lon="-8.8669620">
        <ele>70.4</ele>
        <time>2021-05-19T13:26:51Z</time>
      </trkpt>
      <trkpt lat="42.1099820" lon="-8.8669560">
        <ele>70.5</ele>
        <time>2021-05-19T13:26:52Z</time>
      </trkpt>
      <trkpt lat="42.1099950" lon="-8.8669580">
        <ele>70.6</ele>
        <time>2021-05-19T13:26:53Z</time>
      </trkpt>
      <trkpt lat="42.1100120" lon="-8.8669430">
        <ele>70.7</ele>
        <time>2021-05-19T13:26:54Z</time>
      </trkpt>
      <trkpt lat="42.1100210" lon="-8.8669390">
        <ele>70.8</ele>
        <time>2021-05-19T13:26:55Z</time>
      </trkpt>
      <trkpt lat="42.1100300" lon="-8.8669340">
        <ele>70.9</ele>
        <time>2021-05-19T13:26:56Z</time>
      </trkpt>
      <trkpt lat="42.1100360" lon="-8.8669240">
        <ele>70.9</ele>
        <time>2021-05-19T13:26:57Z</time>
      </trkpt>
      <trkpt lat="42.1100480" lon="-8.8669180">
        <ele>71.0</ele>
        <time>2021-05-19T13:26:58Z</time>
      </trkpt>
      <trkpt lat="42.1100610" lon="-8.8669080">
        <ele>71.1</ele>
        <time>2021-05-19T13:26:59Z</time>
      </trkpt>
      <trkpt lat="42.1100730" lon="-8.8669050">
        <ele>71.2</ele>
        <time>2021-05-19T13:27:00Z</time>
      </trkpt>
      <trkpt lat="42.1100820" lon="-8.8668980">
        <ele>71.3</ele>
        <time>2021-05-19T13:27:01Z</time>
      </trkpt>
      <trkpt lat="42.1100860" lon="-8.8668870">
        <ele>71.4</ele>
        <time>2021-05-19T13:27:02Z</time>
      </trkpt>
      <trkpt lat="42.1101050" lon="-8.8668740">
        <ele>71.5</ele>
        <time>2021-05-19T13:27:03Z</time>
      </trkpt>
      <trkpt lat="42.1101130" lon="-8.8668670">
        <ele>71.6</ele>
        <time>2021-05-19T13:27:04Z</time>
      </trkpt>
      <trkpt lat="42.1101200" lon="-8.8668610">
        <ele>71.7</ele>
        <time>2021-05-19T13:27:05Z</time>
      </trkpt>
      <trkpt lat="42.1101300" lon="-8.8668550">
        <ele>71.7</ele>
        <time>2021-05-19T13:27:06Z</time>
      </trkpt>
      <trkpt lat="42.1101380" lon="-8.8668500">
        <ele>71.8</ele>
        <time>2021-05-19T13:27:07Z</time>
      </trkpt>
      <trkpt lat="42.1101490" lon="-8.8668440">
        <ele>71.9</ele>
        <time>2021-05-19T13:27:08Z</time>
      </trkpt>
      <trkpt lat="42.1101610" lon="-8.8668350">
        <ele>72.0</ele>
        <time>2021-05-19T13:27:09Z</time>
      </trkpt>
      <trkpt lat="42.1101700" lon="-8.8668310">
        <ele>72.1</ele>
        <time>2021-05-19T13:27:10Z</time>
      </trkpt>
      <trkpt lat="42.1101810" lon="-8.8668290">
        <ele>72.2</ele>
        <time>2021-05-19T13:27:11Z</time>
      </trkpt>
      <trkpt lat="42.1102000" lon="-8.8668220">
        <ele>72.3</ele>
        <time>2021-05-19T13:27:12Z</time>
      </trkpt>
      <trkpt lat="42.1102090" lon="-8.8668200">
        <ele>72.4</ele>
        <time>2021-05-19T13:27:13Z</time>
      </trkpt>
      <trkpt lat="42.1102180" lon="-8.8668180">
        <ele>72.4</ele>
        <time>2021-05-19T13:27:14Z</time>
      </trkpt>
      <trkpt lat="42.1102360" lon="-8.8668090">
        <ele>72.6</ele>
        <time>2021-05-19T13:27:15Z</time>
      </trkpt>
      <trkpt lat="42.1102450" lon="-8.8668060">
        <ele>72.7</ele>
        <time>2021-05-19T13:27:16Z</time>
      </trkpt>
      <trkpt lat="42.1102540" lon="-8.8668020">
        <ele>72.7</ele>
        <time>2021-05-19T13:27:17Z</time>
      </trkpt>
      <trkpt lat="42.1102620" lon="-8.8667940">
        <ele>72.8</ele>
        <time>2021-05-19T13:27:18Z</time>
      </trkpt>
      <trkpt lat="42.1102730" lon="-8.8667860">
        <ele>72.9</ele>
        <time>2021-05-19T13:27:19Z</time>
      </trkpt>
      <trkpt lat="42.1102830" lon="-8.8667750">
        <ele>73.0</ele>
        <time>2021-05-19T13:27:20Z</time>
      </trkpt>
      <trkpt lat="42.1102940" lon="-8.8667620">
        <ele>73.1</ele>
        <time>2021-05-19T13:27:21Z</time>
      </trkpt>
      <trkpt lat="42.1103100" lon="-8.8667550">
        <ele>73.2</ele>
        <time>2021-05-19T13:27:22Z</time>
      </trkpt>
      <trkpt lat="42.1103310" lon="-8.8667520">
        <ele>73.4</ele>
        <time>2021-05-19T13:27:23Z</time>
      </trkpt>
      <trkpt lat="42.1103390" lon="-8.8667480">
        <ele>73.4</ele>
        <time>2021-05-19T13:27:24Z</time>
      </trkpt>
      <trkpt lat="42.1103460" lon="-8.8667430">
        <ele>73.5</ele>
        <time>2021-05-19T13:27:25Z</time>
      </trkpt>
      <trkpt lat="42.1103610" lon="-8.8667410">
        <ele>73.6</ele>
        <time>2021-05-19T13:27:26Z</time>
      </trkpt>
      <trkpt lat="42.1103710" lon="-8.8667390">
        <ele>73.7</ele>
        <time>2021-05-19T13:27:27Z</time>
      </trkpt>
      <trkpt lat="42.1103810" lon="-8.8667400">
        <ele>73.7</ele>
        <time>2021-05-19T13:27:28Z</time>
      </trkpt>
      <trkpt lat="42.1103980" lon="-8.8667340">
        <ele>73.9</ele>
        <time>2021-05-19T13:27:29Z</time>
      </trkpt>
      <trkpt lat="42.1104080" lon="-8.8667290">
        <ele>73.9</ele>
        <time>2021-05-19T13:27:30Z</time>
      </trkpt>
      <trkpt lat="42.1104170" lon="-8.8667240">
        <ele>74.0</ele>
        <time>2021-05-19T13:27:31Z</time>
      </trkpt>
      <trkpt lat="42.1104270" lon="-8.8667190">
        <ele>74.1</ele>
        <time>2021-05-19T13:27:32Z</time>
      </trkpt>
      <trkpt lat="42.1104370" lon="-8.8667100">
        <ele>74.2</ele>
        <time>2021-05-19T13:27:33Z</time>
      </trkpt>
      <trkpt lat="42.1104460" lon="-8.8667050">
        <ele>74.2</ele>
        <time>2021-05-19T13:27:34Z</time>
      </trkpt>
      <trkpt lat="42.1104590" lon="-8.8666990">
        <ele>74.3</ele>
        <time>2021-05-19T13:27:35Z</time>
      </trkpt>
      <trkpt lat="42.1104660" lon="-8.8666950">
        <ele>74.4</ele>
        <time>2021-05-19T13:27:36Z</time>
      </trkpt>
      <trkpt lat="42.1104780" lon="-8.8666870">
        <ele>74.5</ele>
        <time>2021-05-19T13:27:37Z</time>
      </trkpt>
      <trkpt lat="42.1104880" lon="-8.8666820">
        <ele>74.5</ele>
        <time>2021-05-19T13:27:38Z</time>
      </trkpt>
      <trkpt lat="42.1105000" lon="-8.8666770">
        <ele>74.6</ele>
        <time>2021-05-19T13:27:39Z</time>
      </trkpt>
      <trkpt lat="42.1105110" lon="-8.8666700">
        <ele>74.7</ele>
        <time>2021-05-19T13:27:40Z</time>
      </trkpt>
      <trkpt lat="42.1105230" lon="-8.8666560">
        <ele>74.8</ele>
        <time>2021-05-19T13:27:41Z</time>
      </trkpt>
      <trkpt lat="42.1105300" lon="-8.8666520">
        <ele>74.8</ele>
        <time>2021-05-19T13:27:42Z</time>
      </trkpt>
      <trkpt lat="42.1105370" lon="-8.8666480">
        <ele>74.9</ele>
        <time>2021-05-19T13:27:43Z</time>
      </trkpt>
      <trkpt lat="42.1105440" lon="-8.8666440">
        <ele>74.9</ele>
        <time>2021-05-19T13:27:44Z</time>
      </trkpt>
      <trkpt lat="42.1105590" lon="-8.8666340">
        <ele>75.0</ele>
        <time>2021-05-19T13:27:45Z</time>
      </trkpt>
      <trkpt lat="42.1105650" lon="-8.8666340">
        <ele>75.1</ele>
        <time>2021-05-19T13:27:46Z</time>
      </trkpt>
      <trkpt lat="42.1105760" lon="-8.8666310">
        <ele>75.2</ele>
        <time>2021-05-19T13:27:47Z</time>
      </trkpt>
      <trkpt lat="42.1105860" lon="-8.8666290">
        <ele>75.2</ele>
        <time>2021-05-19T13:27:48Z</time>
      </trkpt>
      <trkpt lat="42.1105990" lon="-8.8666230">
        <ele>75.3</ele>
        <time>2021-05-19T13:27:49Z</time>
      </trkpt>
      <trkpt lat="42.1106110" lon="-8.8666200">
        <ele>75.4</ele>
        <time>2021-05-19T13:27:50Z</time>
      </trkpt>
      <trkpt lat="42.1106200" lon="-8.8666120">
        <ele>75.4</ele>
        <time>2021-05-19T13:27:51Z</time>
      </trkpt>
      <trkpt lat="42.1106290" lon="-8.8666100">
        <ele>75.5</ele>
        <time>2021-05-19T13:27:52Z</time>
      </trkpt>
      <trkpt lat="42.1106400" lon="-8.8665980">
        <ele>75.6</ele>
        <time>2021-05-19T13:27:53Z</time>
      </trkpt>
      <trkpt lat="42.1106470" lon="-8.8665970">
        <ele>75.6</ele>
        <time>2021-05-19T13:27:54Z</time>
      </trkpt>
      <trkpt lat="42.1106580" lon="-8.8665880">
        <ele>75.7</ele>
        <time>2021-05-19T13:27:55Z</time>
      </trkpt>
      <trkpt lat="42.1106670" lon="-8.8665820">
        <ele>75.7</ele>
        <time>2021-05-19T13:27:56Z</time>
      </trkpt>
      <trkpt lat="42.1106880" lon="-8.8665730">
        <ele>75.9</ele>
        <time>2021-05-19T13:27:57Z</time>
      </trkpt>
      <trkpt lat="42.1106950" lon="-8.8665710">
        <ele>75.9</ele>
        <time>2021-05-19T13:27:58Z</time>
      </trkpt>
      <trkpt lat="42.1107030" lon="-8.8665690">
        <ele>75.9</ele>
        <time>2021-05-19T13:27:59Z</time>
      </trkpt>
      <trkpt lat="42.1107120" lon="-8.8665660">
        <ele>76.0</ele>
        <time>2021-05-19T13:28:00Z</time>
      </trkpt>
      <trkpt lat="42.1107200" lon="-8.8665660">
        <ele>76.0</ele>
        <time>2021-05-19T13:28:01Z</time>
      </trkpt>
      <trkpt lat="42.1107310" lon="-8.8665570">
        <ele>76.1</ele>
        <time>2021-05-19T13:28:02Z</time>
      </trkpt>
      <trkpt lat="42.1107440" lon="-8.8665500">
        <ele>76.2</ele>
        <time>2021-05-19T13:28:03Z</time>
      </trkpt>
      <trkpt lat="42.1107600" lon="-8.8665510">
        <ele>76.3</ele>
        <time>2021-05-19T13:28:04Z</time>
      </trkpt>
      <trkpt lat="42.1107710" lon="-8.8665480">
        <ele>76.4</ele>
        <time>2021-05-19T13:28:05Z</time>
      </trkpt>
      <trkpt lat="42.1107900" lon="-8.8665440">
        <ele>76.5</ele>
        <time>2021-05-19T13:28:06Z</time>
      </trkpt>
      <trkpt lat="42.1107950" lon="-8.8665410">
        <ele>76.5</ele>
        <time>2021-05-19T13:28:07Z</time>
      </trkpt>
      <trkpt lat="42.1108120" lon="-8.8665360">
        <ele>76.6</ele>
        <time>2021-05-19T13:28:08Z</time>
      </trkpt>
      <trkpt lat="42.1108210" lon="-8.8665380">
        <ele>76.7</ele>
        <time>2021-05-19T13:28:09Z</time>
      </trkpt>
      <trkpt lat="42.1108280" lon="-8.8665370">
        <ele>76.7</ele>
        <time>2021-05-19T13:28:10Z</time>
      </trkpt>
      <trkpt lat="42.1108430" lon="-8.8665420">
        <ele>76.8</ele>
        <time>2021-05-19T13:28:11Z</time>
      </trkpt>
      <trkpt lat="42.1108510" lon="-8.8665410">
        <ele>76.8</ele>
        <time>2021-05-19T13:28:12Z</time>
      </trkpt>
      <trkpt lat="42.1108730" lon="-8.8665400">
        <ele>77.0</ele>
        <time>2021-05-19T13:28:13Z</time>
      </trkpt>
      <trkpt lat="42.1108810" lon="-8.8665390">
        <ele>77.0</ele>
        <time>2021-05-19T13:28:14Z</time>
      </trkpt>
      <trkpt lat="42.1108900" lon="-8.8665370">
        <ele>77.1</ele>
        <time>2021-05-19T13:28:15Z</time>
      </trkpt>
      <trkpt lat="42.1109040" lon="-8.8665360">
        <ele>77.1</ele>
        <time>2021-05-19T13:28:16Z</time>
      </trkpt>
      <trkpt lat="42.1109160" lon="-8.8665380">
        <ele>77.2</ele>
        <time>2021-05-19T13:28:17Z</time>
      </trkpt>
      <trkpt lat="42.1109230" lon="-8.8665370">
        <ele>77.3</ele>
        <time>2021-05-19T13:28:18Z</time>
      </trkpt>
      <trkpt lat="42.1109400" lon="-8.8665440">
        <ele>77.4</ele>
        <time>2021-05-19T13:28:19Z</time>
      </trkpt>
      <trkpt lat="42.1109480" lon="-8.8665460">
        <ele>77.4</ele>
        <time>2021-05-19T13:28:20Z</time>
      </trkpt>
      <trkpt lat="42.1109560" lon="-8.8665490">
        <ele>77.4</ele>
        <time>2021-05-19T13:28:21Z</time>
      </trkpt>
      <trkpt lat="42.1109640" lon="-8.8665520">
        <ele>77.5</ele>
        <time>2021-05-19T13:28:22Z</time>
      </trkpt>
      <trkpt lat="42.1109760" lon="-8.8665510">
        <ele>77.6</ele>
        <time>2021-05-19T13:28:23Z</time>
      </trkpt>
      <trkpt lat="42.1109890" lon="-8.8665500">
        <ele>77.6</ele>
        <time>2021-05-19T13:28:24Z</time>
      </trkpt>
      <trkpt lat="42.1110000" lon="-8.8665580">
        <ele>77.7</ele>
        <time>2021-05-19T13:28:25Z</time>
      </trkpt>
      <trkpt lat="42.1110230" lon="-8.8665620">
        <ele>77.8</ele>
        <time>2021-05-19T13:28:26Z</time>
      </trkpt>
      <trkpt lat="42.1110320" lon="-8.8665650">
        <ele>77.9</ele>
        <time>2021-05-19T13:28:27Z</time>
      </trkpt>
      <trkpt lat="42.1110410" lon="-8.8665680">
        <ele>77.9</ele>
        <time>2021-05-19T13:28:28Z</time>
      </trkpt>
      <trkpt lat="42.1110470" lon="-8.8665690">
        <ele>77.9</ele>
        <time>2021-05-19T13:28:29Z</time>
      </trkpt>
      <trkpt lat="42.1110590" lon="-8.8665750">
        <ele>78.0</ele>
        <time>2021-05-19T13:28:30Z</time>
      </trkpt>
      <trkpt lat="42.1110710" lon="-8.8665790">
        <ele>78.1</ele>
        <time>2021-05-19T13:28:31Z</time>
      </trkpt>
      <trkpt lat="42.1110930" lon="-8.8665900">
        <ele>78.2</ele>
        <time>2021-05-19T13:28:32Z</time>
      </trkpt>
      <trkpt lat="42.1111010" lon="-8.8665940">
        <ele>78.3</ele>
        <time>2021-05-19T13:28:33Z</time>
      </trkpt>
      <trkpt lat="42.1111090" lon="-8.8665970">
        <ele>78.3</ele>
        <time>2021-05-19T13:28:34Z</time>
      </trkpt>
      <trkpt lat="42.1111160" lon="-8.8665970">
        <ele>78.3</ele>
        <time>2021-05-19T13:28:35Z</time>
      </trkpt>
      <trkpt lat="42.1111260" lon="-8.8666000">
        <ele>78.4</ele>
        <time>2021-05-19T13:28:36Z</time>
      </trkpt>
      <trkpt lat="42.1111370" lon="-8.8666020">
        <ele>78.4</ele>
        <time>2021-05-19T13:28:37Z</time>
      </trkpt>
      <trkpt lat="42.1111450" lon="-8.8666130">
        <ele>78.5</ele>
        <time>2021-05-19T13:28:38Z</time>
      </trkpt>
      <trkpt lat="42.1111520" lon="-8.8666130">
        <ele>78.5</ele>
        <time>2021-05-19T13:28:39Z</time>
      </trkpt>
      <trkpt lat="42.1111680" lon="-8.8666220">
        <ele>78.6</ele>
        <time>2021-05-19T13:28:40Z</time>
      </trkpt>
      <trkpt lat="42.1111770" lon="-8.8666200">
        <ele>78.7</ele>
        <time>2021-05-19T13:28:41Z</time>
      </trkpt>
      <trkpt lat="42.1111910" lon="-8.8666250">
        <ele>78.8</ele>
        <time>2021-05-19T13:28:42Z</time>
      </trkpt>
      <trkpt lat="42.1112000" lon="-8.8666240">
        <ele>78.8</ele>
        <time>2021-05-19T13:28:43Z</time>
      </trkpt>
      <trkpt lat="42.1112160" lon="-8.8666360">
        <ele>78.9</ele>
        <time>2021-05-19T13:28:44Z</time>
      </trkpt>
      <trkpt lat="42.1112260" lon="-8.8666380">
        <ele>78.9</ele>
        <time>2021-05-19T13:28:45Z</time>
      </trkpt>
      <trkpt lat="42.1112360" lon="-8.8666410">
        <ele>79.0</ele>
        <time>2021-05-19T13:28:46Z</time>
      </trkpt>
      <trkpt lat="42.1112490" lon="-8.8666470">
        <ele>79.1</ele>
        <time>2021-05-19T13:28:47Z</time>
      </trkpt>
      <trkpt lat="42.1112610" lon="-8.8666470">
        <ele>79.1</ele>
        <time>2021-05-19T13:28:48Z</time>
      </trkpt>
      <trkpt lat="42.1112710" lon="-8.8666470">
        <ele>79.2</ele>
        <time>2021-05-19T13:28:49Z</time>
      </trkpt>
      <trkpt lat="42.1112830" lon="-8.8666460">
        <ele>79.2</ele>
        <time>2021-05-19T13:28:50Z</time>
      </trkpt>
      <trkpt lat="42.1112920" lon="-8.8666490">
        <ele>79.2</ele>
        <time>2021-05-19T13:28:51Z</time>
      </trkpt>
      <trkpt lat="42.1113030" lon="-8.8666520">
        <ele>79.3</ele>
        <time>2021-05-19T13:28:52Z</time>
      </trkpt>
      <trkpt lat="42.1113120" lon="-8.8666460">
        <ele>79.3</ele>
        <time>2021-05-19T13:28:53Z</time>
      </trkpt>
      <trkpt lat="42.1113180" lon="-8.8666440">
        <ele>79.3</ele>
        <time>2021-05-19T13:28:54Z</time>
      </trkpt>
      <trkpt lat="42.1113300" lon="-8.8666420">
        <ele>79.4</ele>
        <time>2021-05-19T13:28:55Z</time>
      </trkpt>
      <trkpt lat="42.1113370" lon="-8.8666320">
        <ele>79.4</ele>
        <time>2021-05-19T13:28:56Z</time>
      </trkpt>
      <trkpt lat="42.1113460" lon="-8.8666280">
        <ele>79.5</ele>
        <time>2021-05-19T13:28:57Z</time>
      </trkpt>
      <trkpt lat="42.1113540" lon="-8.8666220">
        <ele>79.5</ele>
        <time>2021-05-19T13:28:58Z</time>
      </trkpt>
      <trkpt lat="42.1113690" lon="-8.8666180">
        <ele>79.6</ele>
        <time>2021-05-19T13:28:59Z</time>
      </trkpt>
      <trkpt lat="42.1113760" lon="-8.8666140">
        <ele>79.6</ele>
        <time>2021-05-19T13:29:00Z</time>
      </trkpt>
      <trkpt lat="42.1113880" lon="-8.8666110">
        <ele>79.6</ele>
        <time>2021-05-19T13:29:01Z</time>
      </trkpt>
      <trkpt lat="42.1113950" lon="-8.8666030">
        <ele>79.7</ele>
        <time>2021-05-19T13:29:02Z</time>
      </trkpt>
      <trkpt lat="42.1114040" lon="-8.8665980">
        <ele>79.7</ele>
        <time>2021-05-19T13:29:03Z</time>
      </trkpt>
      <trkpt lat="42.1114030" lon="-8.8665980">
        <ele>79.7</ele>
        <time>2021-05-19T13:29:04Z</time>
      </trkpt>
      <trkpt lat="42.1113990" lon="-8.8666010">
        <ele>79.7</ele>
        <time>2021-05-19T13:29:05Z</time>
      </trkpt>
      <trkpt lat="42.1113980" lon="-8.8665990">
        <ele>79.7</ele>
        <time>2021-05-19T13:29:06Z</time>
      </trkpt>
      <trkpt lat="42.1114010" lon="-8.8665990">
        <ele>79.7</ele>
        <time>2021-05-19T13:29:07Z</time>
      </trkpt>
      <trkpt lat="42.1114050" lon="-8.8666010">
        <ele>79.8</ele>
        <time>2021-05-19T13:29:08Z</time>
      </trkpt>
      <trkpt lat="42.1114040" lon="-8.8666010">
        <ele>79.8</ele>
        <time>2021-05-19T13:29:09Z</time>
      </trkpt>
      <trkpt lat="42.1114030" lon="-8.8666010">
        <ele>79.8</ele>
        <time>2021-05-19T13:29:10Z</time>
      </trkpt>
      <trkpt lat="42.1114030" lon="-8.8666030">
        <ele>79.8</ele>
        <time>2021-05-19T13:29:11Z</time>
      </trkpt>
      <trkpt lat="42.1114030" lon="-8.8666050">
        <ele>79.8</ele>
        <time>2021-05-19T13:29:12Z</time>
      </trkpt>
      <trkpt lat="42.1114020" lon="-8.8666070">
        <ele>79.8</ele>
        <time>2021-05-19T13:29:13Z</time>
      </trkpt>
      <trkpt lat="42.1114020" lon="-8.8666080">
        <ele>79.9</ele>
        <time>2021-05-19T13:29:14Z</time>
      </trkpt>
      <trkpt lat="42.1114040" lon="-8.8666080">
        <ele>79.9</ele>
        <time>2021-05-19T13:29:15Z</time>
      </trkpt>
      <trkpt lat="42.1114040" lon="-8.8666080">
        <ele>79.9</ele>
        <time>2021-05-19T13:29:16Z</time>
      </trkpt>
      <trkpt lat="42.1114160" lon="-8.8666070">
        <ele>79.9</ele>
        <time>2021-05-19T13:29:17Z</time>
      </trkpt>
      <trkpt lat="42.1114160" lon="-8.8666070">
        <ele>79.9</ele>
        <time>2021-05-19T13:29:18Z</time>
      </trkpt>
      <trkpt lat="42.1114220" lon="-8.8666100">
        <ele>79.9</ele>
        <time>2021-05-19T13:29:19Z</time>
      </trkpt>
      <trkpt lat="42.1114230" lon="-8.8666130">
        <ele>80.0</ele>
        <time>2021-05-19T13:29:20Z</time>
      </trkpt>
      <trkpt lat="42.1114250" lon="-8.8666130">
        <ele>80.0</ele>
        <time>2021-05-19T13:29:21Z</time>
      </trkpt>
      <trkpt lat="42.1114260" lon="-8.8666080">
        <ele>80.0</ele>
        <time>2021-05-19T13:29:22Z</time>
      </trkpt>
      <trkpt lat="42.1114300" lon="-8.8666040">
        <ele>80.0</ele>
        <time>2021-05-19T13:29:23Z</time>
      </trkpt>
      <trkpt lat="42.1114370" lon="-8.8665970">
        <ele>80.0</ele>
        <time>2021-05-19T13:29:24Z</time>
      </trkpt>
      <trkpt lat="42.1114420" lon="-8.8665870">
        <ele>80.0</ele>
        <time>2021-05-19T13:29:25Z</time>
      </trkpt>
      <trkpt lat="42.1114510" lon="-8.8665810">
        <ele>80.1</ele>
        <time>2021-05-19T13:29:26Z</time>
      </trkpt>
      <trkpt lat="42.1114580" lon="-8.8665790">
        <ele>80.1</ele>
        <time>2021-05-19T13:29:27Z</time>
      </trkpt>
      <trkpt lat="42.1114600" lon="-8.8665800">
        <ele>80.1</ele>
        <time>2021-05-19T13:29:28Z</time>
      </trkpt>
      <trkpt lat="42.1114640" lon="-8.8665760">
        <ele>80.1</ele>
        <time>2021-05-19T13:29:29Z</time>
      </trkpt>
      <trkpt lat="42.1114620" lon="-8.8665740">
        <ele>80.1</ele>
        <time>2021-05-19T13:29:30Z</time>
      </trkpt>
      <trkpt lat="42.1114640" lon="-8.8665740">
        <ele>80.1</ele>
        <time>2021-05-19T13:29:31Z</time>
      </trkpt>
      <trkpt lat="42.1114630" lon="-8.8665740">
        <ele>80.1</ele>
        <time>2021-05-19T13:29:32Z</time>
      </trkpt>
      <trkpt lat="42.1114630" lon="-8.8665750">
        <ele>80.1</ele>
        <time>2021-05-19T13:29:33Z</time>
      </trkpt>
      <trkpt lat="42.1114630" lon="-8.8665730">
        <ele>80.1</ele>
        <time>2021-05-19T13:29:34Z</time>
      </trkpt>
      <trkpt lat="42.1114650" lon="-8.8665730">
        <ele>80.1</ele>
        <time>2021-05-19T13:29:35Z</time>
      </trkpt>
      <trkpt lat="42.1114640" lon="-8.8665730">
        <ele>80.1</ele>
        <time>2021-05-19T13:29:36Z</time>
      </trkpt>
      <trkpt lat="42.1114640" lon="-8.8665730">
        <ele>80.1</ele>
        <time>2021-05-19T13:29:37Z</time>
      </trkpt>
      <trkpt lat="42.1114620" lon="-8.8665800">
        <ele>80.1</ele>
        <time>2021-05-19T13:29:38Z</time>
      </trkpt>
      <trkpt lat="42.1114620" lon="-8.8665800">
        <ele>80.1</ele>
        <time>2021-05-19T13:29:39Z</time>
      </trkpt>
      <trkpt lat="42.1114620" lon="-8.8665800">
        <ele>80.1</ele>
        <time>2021-05-19T13:29:40Z</time>
      </trkpt>
      <trkpt lat="42.1114570" lon="-8.8665810">
        <ele>80.1</ele>
        <time>2021-05-19T13:29:41Z</time>
      </trkpt>
      <trkpt lat="42.1114600" lon="-8.8665790">
        <ele>80.1</ele>
        <time>2021-05-19T13:29:42Z</time>
      </trkpt>
      <trkpt lat="42.1114680" lon="-8.8665750">
        <ele>80.1</ele>
        <time>2021-05-19T13:29:43Z</time>
      </trkpt>
      <trkpt lat="42.1114740" lon="-8.8665670">
        <ele>80.1</ele>
        <time>2021-05-19T13:29:44Z</time>
      </trkpt>
      <trkpt lat="42.1114800" lon="-8.8665570">
        <ele>80.1</ele>
        <time>2021-05-19T13:29:45Z</time>
      </trkpt>
      <trkpt lat="42.1114920" lon="-8.8665480">
        <ele>80.1</ele>
        <time>2021-05-19T13:29:46Z</time>
      </trkpt>
      <trkpt lat="42.1115000" lon="-8.8665410">
        <ele>80.1</ele>
        <time>2021-05-19T13:29:47Z</time>
      </trkpt>
      <trkpt lat="42.1115120" lon="-8.8665410">
        <ele>80.2</ele>
        <time>2021-05-19T13:29:48Z</time>
      </trkpt>
      <trkpt lat="42.1115060" lon="-8.8665430">
        <ele>80.2</ele>
        <time>2021-05-19T13:29:49Z</time>
      </trkpt>
      <trkpt lat="42.1115010" lon="-8.8665510">
        <ele>80.2</ele>
        <time>2021-05-19T13:29:50Z</time>
      </trkpt>
      <trkpt lat="42.1115020" lon="-8.8665540">
        <ele>80.2</ele>
        <time>2021-05-19T13:29:51Z</time>
      </trkpt>
      <trkpt lat="42.1115040" lon="-8.8665570">
        <ele>80.2</ele>
        <time>2021-05-19T13:29:52Z</time>
      </trkpt>
      <trkpt lat="42.1115080" lon="-8.8665590">
        <ele>80.2</ele>
        <time>2021-05-19T13:29:53Z</time>
      </trkpt>
      <trkpt lat="42.1115100" lon="-8.8665590">
        <ele>80.2</ele>
        <time>2021-05-19T13:29:54Z</time>
      </trkpt>
      <trkpt lat="42.1115140" lon="-8.8665590">
        <ele>80.2</ele>
        <time>2021-05-19T13:29:55Z</time>
      </trkpt>
      <trkpt lat="42.1115150" lon="-8.8665570">
        <ele>80.2</ele>
        <time>2021-05-19T13:29:56Z</time>
      </trkpt>
      <trkpt lat="42.1115160" lon="-8.8665570">
        <ele>80.2</ele>
        <time>2021-05-19T13:29:57Z</time>
      </trkpt>
      <trkpt lat="42.1115250" lon="-8.8665530">
        <ele>80.2</ele>
        <time>2021-05-19T13:29:58Z</time>
      </trkpt>
      <trkpt lat="42.1115230" lon="-8.8665540">
        <ele>80.2</ele>
        <time>2021-05-19T13:29:59Z</time>
      </trkpt>
      <trkpt lat="42.1115210" lon="-8.8665560">
        <ele>80.2</ele>
        <time>2021-05-19T13:30:00Z</time>
      </trkpt>
      <trkpt lat="42.1115210" lon="-8.8665560">
        <ele>80.2</ele>
        <time>2021-05-19T13:30:01Z</time>
      </trkpt>
      <trkpt lat="42.1115220" lon="-8.8665580">
        <ele>80.2</ele>
        <time>2021-05-19T13:30:02Z</time>
      </trkpt>
      <trkpt lat="42.1115220" lon="-8.8665580">
        <ele>80.2</ele>
        <time>2021-05-19T13:30:03Z</time>
      </trkpt>
      <trkpt lat="42.1115240" lon="-8.8665610">
        <ele>80.2</ele>
        <time>2021-05-19T13:30:04Z</time>
      </trkpt>
      <trkpt lat="42.1115200" lon="-8.8665600">
        <ele>80.2</ele>
        <time>2021-05-19T13:30:05Z</time>
      </trkpt>
      <trkpt lat="42.1115200" lon="-8.8665610">
        <ele>80.2</ele>
        <time>2021-05-19T13:30:06Z</time>
      </trkpt>
      <trkpt lat="42.1115190" lon="-8.8665620">
        <ele>80.1</ele>
        <time>2021-05-19T13:30:07Z</time>
      </trkpt>
      <trkpt lat="42.1115170" lon="-8.8665650">
        <ele>80.1</ele>
        <time>2021-05-19T13:30:08Z</time>
      </trkpt>
      <trkpt lat="42.1115150" lon="-8.8665650">
        <ele>80.1</ele>
        <time>2021-05-19T13:30:09Z</time>
      </trkpt>
      <trkpt lat="42.1115150" lon="-8.8665680">
        <ele>80.1</ele>
        <time>2021-05-19T13:30:10Z</time>
      </trkpt>
      <trkpt lat="42.1115150" lon="-8.8665670">
        <ele>80.1</ele>
        <time>2021-05-19T13:30:11Z</time>
      </trkpt>
      <trkpt lat="42.1115120" lon="-8.8665690">
        <ele>80.1</ele>
        <time>2021-05-19T13:30:12Z</time>
      </trkpt>
      <trkpt lat="42.1115110" lon="-8.8665670">
        <ele>80.1</ele>
        <time>2021-05-19T13:30:13Z</time>
      </trkpt>
      <trkpt lat="42.1115060" lon="-8.8665660">
        <ele>80.1</ele>
        <time>2021-05-19T13:30:14Z</time>
      </trkpt>
      <trkpt lat="42.1115040" lon="-8.8665660">
        <ele>80.1</ele>
        <time>2021-05-19T13:30:15Z</time>
      </trkpt>
      <trkpt lat="42.1115030" lon="-8.8665650">
        <ele>80.1</ele>
        <time>2021-05-19T13:30:16Z</time>
      </trkpt>
      <trkpt lat="42.1115020" lon="-8.8665660">
        <ele>80.1</ele>
        <time>2021-05-19T13:30:17Z</time>
      </trkpt>
      <trkpt lat="42.1115020" lon="-8.8665630">
        <ele>80.1</ele>
        <time>2021-05-19T13:30:18Z</time>
      </trkpt>
      <trkpt lat="42.1115030" lon="-8.8665580">
        <ele>80.1</ele>
        <time>2021-05-19T13:30:19Z</time>
      </trkpt>
      <trkpt lat="42.1115030" lon="-8.8665610">
        <ele>80.1</ele>
        <time>2021-05-19T13:30:20Z</time>
      </trkpt>
      <trkpt lat="42.1115030" lon="-8.8665610">
        <ele>80.1</ele>
        <time>2021-05-19T13:30:21Z</time>
      </trkpt>
      <trkpt lat="42.1115040" lon="-8.8665590">
        <ele>80.1</ele>
        <time>2021-05-19T13:30:22Z</time>
      </trkpt>
      <trkpt lat="42.1115060" lon="-8.8665590">
        <ele>80.1</ele>
        <time>2021-05-19T13:30:23Z</time>
      </trkpt>
      <trkpt lat="42.1115080" lon="-8.8665580">
        <ele>80.1</ele>
        <time>2021-05-19T13:30:24Z</time>
      </trkpt>
      <trkpt lat="42.1115090" lon="-8.8665580">
        <ele>80.1</ele>
        <time>2021-05-19T13:30:25Z</time>
      </trkpt>
      <trkpt lat="42.1115100" lon="-8.8665550">
        <ele>80.1</ele>
        <time>2021-05-19T13:30:26Z</time>
      </trkpt>
      <trkpt lat="42.1115110" lon="-8.8665560">
        <ele>80.1</ele>
        <time>2021-05-19T13:30:27Z</time>
      </trkpt>
      <trkpt lat="42.1115100" lon="-8.8665540">
        <ele>80.1</ele>
        <time>2021-05-19T13:30:28Z</time>
      </trkpt>
      <trkpt lat="42.1115100" lon="-8.8665530">
        <ele>80.1</ele>
        <time>2021-05-19T13:30:29Z</time>
      </trkpt>
      <trkpt lat="42.1115090" lon="-8.8665490">
        <ele>80.1</ele>
        <time>2021-05-19T13:30:30Z</time>
      </trkpt>
      <trkpt lat="42.1115080" lon="-8.8665460">
        <ele>80.1</ele>
        <time>2021-05-19T13:30:31Z</time>
      </trkpt>
      <trkpt lat="42.1115060" lon="-8.8665520">
        <ele>80.1</ele>
        <time>2021-05-19T13:30:32Z</time>
      </trkpt>
      <trkpt lat="42.1115050" lon="-8.8665510">
        <ele>80.1</ele>
        <time>2021-05-19T13:30:33Z</time>
      </trkpt>
      <trkpt lat="42.1115000" lon="-8.8665450">
        <ele>80.1</ele>
        <time>2021-05-19T13:30:34Z</time>
      </trkpt>
      <trkpt lat="42.1115020" lon="-8.8665450">
        <ele>80.1</ele>
        <time>2021-05-19T13:30:35Z</time>
      </trkpt>
      <trkpt lat="42.1115020" lon="-8.8665380">
        <ele>80.1</ele>
        <time>2021-05-19T13:30:36Z</time>
      </trkpt>
      <trkpt lat="42.1114970" lon="-8.8665330">
        <ele>80.0</ele>
        <time>2021-05-19T13:30:37Z</time>
      </trkpt>
      <trkpt lat="42.1114910" lon="-8.8665290">
        <ele>80.0</ele>
        <time>2021-05-19T13:30:38Z</time>
      </trkpt>
      <trkpt lat="42.1114920" lon="-8.8665200">
        <ele>80.0</ele>
        <time>2021-05-19T13:30:39Z</time>
      </trkpt>
      <trkpt lat="42.1114870" lon="-8.8665100">
        <ele>80.0</ele>
        <time>2021-05-19T13:30:40Z</time>
      </trkpt>
      <trkpt lat="42.1114810" lon="-8.8665130">
        <ele>80.0</ele>
        <time>2021-05-19T13:30:41Z</time>
      </trkpt>
      <trkpt lat="42.1114830" lon="-8.8665130">
        <ele>80.0</ele>
        <time>2021-05-19T13:30:42Z</time>
      </trkpt>
      <trkpt lat="42.1114830" lon="-8.8665140">
        <ele>80.0</ele>
        <time>2021-05-19T13:30:43Z</time>
      </trkpt>
      <trkpt lat="42.1114820" lon="-8.8665150">
        <ele>80.0</ele>
        <time>2021-05-19T13:30:44Z</time>
      </trkpt>
      <trkpt lat="42.1114820" lon="-8.8665160">
        <ele>80.0</ele>
        <time>2021-05-19T13:30:45Z</time>
      </trkpt>
      <trkpt lat="42.1114820" lon="-8.8665160">
        <ele>80.0</ele>
        <time>2021-05-19T13:30:46Z</time>
      </trkpt>
      <trkpt lat="42.1114830" lon="-8.8665170">
        <ele>80.0</ele>
        <time>2021-05-19T13:30:47Z</time>
      </trkpt>
      <trkpt lat="42.1114860" lon="-8.8665160">
        <ele>80.0</ele>
        <time>2021-05-19T13:30:48Z</time>
      </trkpt>
      <trkpt lat="42.1114860" lon="-8.8665160">
        <ele>80.0</ele>
        <time>2021-05-19T13:30:49Z</time>
      </trkpt>
      <trkpt lat="42.1114880" lon="-8.8665150">
        <ele>80.0</ele>
        <time>2021-05-19T13:30:50Z</time>
      </trkpt>
      <trkpt lat="42.1114890" lon="-8.8665090">
        <ele>80.0</ele>
        <time>2021-05-19T13:30:51Z</time>
      </trkpt>
      <trkpt lat="42.1114970" lon="-8.8664980">
        <ele>80.0</ele>
        <time>2021-05-19T13:30:52Z</time>
      </trkpt>
      <trkpt lat="42.1114990" lon="-8.8664970">
        <ele>80.0</ele>
        <time>2021-05-19T13:30:53Z</time>
      </trkpt>
      <trkpt lat="42.1115070" lon="-8.8665030">
        <ele>80.0</ele>
        <time>2021-05-19T13:30:54Z</time>
      </trkpt>
      <trkpt lat="42.1115110" lon="-8.8665040">
        <ele>80.0</ele>
        <time>2021-05-19T13:30:55Z</time>
      </trkpt>
      <trkpt lat="42.1115160" lon="-8.8665060">
        <ele>79.9</ele>
        <time>2021-05-19T13:30:56Z</time>
      </trkpt>
      <trkpt lat="42.1115200" lon="-8.8665070">
        <ele>79.9</ele>
        <time>2021-05-19T13:30:57Z</time>
      </trkpt>
      <trkpt lat="42.1115250" lon="-8.8665090">
        <ele>79.9</ele>
        <time>2021-05-19T13:30:58Z</time>
      </trkpt>
      <trkpt lat="42.1115290" lon="-8.8665110">
        <ele>79.9</ele>
        <time>2021-05-19T13:30:59Z</time>
      </trkpt>
      <trkpt lat="42.1115340" lon="-8.8665120">
        <ele>79.9</ele>
        <time>2021-05-19T13:31:00Z</time>
      </trkpt>
      <trkpt lat="42.1115380" lon="-8.8665140">
        <ele>79.9</ele>
        <time>2021-05-19T13:31:01Z</time>
      </trkpt>
      <trkpt lat="42.1115500" lon="-8.8665070">
        <ele>79.9</ele>
        <time>2021-05-19T13:31:02Z</time>
      </trkpt>
      <trkpt lat="42.1115650" lon="-8.8664990">
        <ele>79.9</ele>
        <time>2021-05-19T13:31:03Z</time>
      </trkpt>
      <trkpt lat="42.1115800" lon="-8.8664880">
        <ele>79.9</ele>
        <time>2021-05-19T13:31:04Z</time>
      </trkpt>
      <trkpt lat="42.1115880" lon="-8.8664790">
        <ele>79.9</ele>
        <time>2021-05-19T13:31:05Z</time>
      </trkpt>
      <trkpt lat="42.1115960" lon="-8.8664720">
        <ele>79.8</ele>
        <time>2021-05-19T13:31:06Z</time>
      </trkpt>
      <trkpt lat="42.1116050" lon="-8.8664660">
        <ele>79.8</ele>
        <time>2021-05-19T13:31:07Z</time>
      </trkpt>
      <trkpt lat="42.1116130" lon="-8.8664610">
        <ele>79.8</ele>
        <time>2021-05-19T13:31:08Z</time>
      </trkpt>
      <trkpt lat="42.1116250" lon="-8.8664530">
        <ele>79.8</ele>
        <time>2021-05-19T13:31:09Z</time>
      </trkpt>
      <trkpt lat="42.1116330" lon="-8.8664420">
        <ele>79.8</ele>
        <time>2021-05-19T13:31:10Z</time>
      </trkpt>
      <trkpt lat="42.1116410" lon="-8.8664340">
        <ele>79.8</ele>
        <time>2021-05-19T13:31:11Z</time>
      </trkpt>
      <trkpt lat="42.1116510" lon="-8.8664240">
        <ele>79.8</ele>
        <time>2021-05-19T13:31:12Z</time>
      </trkpt>
      <trkpt lat="42.1116560" lon="-8.8664130">
        <ele>79.8</ele>
        <time>2021-05-19T13:31:13Z</time>
      </trkpt>
      <trkpt lat="42.1116670" lon="-8.8664030">
        <ele>79.8</ele>
        <time>2021-05-19T13:31:14Z</time>
      </trkpt>
      <trkpt lat="42.1116740" lon="-8.8663950">
        <ele>79.7</ele>
        <time>2021-05-19T13:31:15Z</time>
      </trkpt>
      <trkpt lat="42.1116790" lon="-8.8663890">
        <ele>79.7</ele>
        <time>2021-05-19T13:31:16Z</time>
      </trkpt>
      <trkpt lat="42.1116890" lon="-8.8663760">
        <ele>79.7</ele>
        <time>2021-05-19T13:31:17Z</time>
      </trkpt>
      <trkpt lat="42.1116930" lon="-8.8663660">
        <ele>79.7</ele>
        <time>2021-05-19T13:31:18Z</time>
      </trkpt>
      <trkpt lat="42.1117070" lon="-8.8663510">
        <ele>79.7</ele>
        <time>2021-05-19T13:31:19Z</time>
      </trkpt>
      <trkpt lat="42.1117130" lon="-8.8663480">
        <ele>79.7</ele>
        <time>2021-05-19T13:31:20Z</time>
      </trkpt>
      <trkpt lat="42.1117210" lon="-8.8663330">
        <ele>79.7</ele>
        <time>2021-05-19T13:31:21Z</time>
      </trkpt>
      <trkpt lat="42.1117300" lon="-8.8663210">
        <ele>79.7</ele>
        <time>2021-05-19T13:31:22Z</time>
      </trkpt>
      <trkpt lat="42.1117340" lon="-8.8663100">
        <ele>79.7</ele>
        <time>2021-05-19T13:31:23Z</time>
      </trkpt>
      <trkpt lat="42.1117410" lon="-8.8663030">
        <ele>79.7</ele>
        <time>2021-05-19T13:31:24Z</time>
      </trkpt>
      <trkpt lat="42.1117500" lon="-8.8662950">
        <ele>79.7</ele>
        <time>2021-05-19T13:31:25Z</time>
      </trkpt>
      <trkpt lat="42.1117560" lon="-8.8662780">
        <ele>79.7</ele>
        <time>2021-05-19T13:31:26Z</time>
      </trkpt>
      <trkpt lat="42.1117650" lon="-8.8662550">
        <ele>79.7</ele>
        <time>2021-05-19T13:31:27Z</time>
      </trkpt>
      <trkpt lat="42.1117720" lon="-8.8662460">
        <ele>79.7</ele>
        <time>2021-05-19T13:31:28Z</time>
      </trkpt>
      <trkpt lat="42.1117780" lon="-8.8662380">
        <ele>79.7</ele>
        <time>2021-05-19T13:31:29Z</time>
      </trkpt>
      <trkpt lat="42.1117880" lon="-8.8662260">
        <ele>79.7</ele>
        <time>2021-05-19T13:31:30Z</time>
      </trkpt>
      <trkpt lat="42.1117960" lon="-8.8662140">
        <ele>79.7</ele>
        <time>2021-05-19T13:31:31Z</time>
      </trkpt>
      <trkpt lat="42.1118020" lon="-8.8662040">
        <ele>79.7</ele>
        <time>2021-05-19T13:31:32Z</time>
      </trkpt>
      <trkpt lat="42.1118150" lon="-8.8661900">
        <ele>79.7</ele>
        <time>2021-05-19T13:31:33Z</time>
      </trkpt>
      <trkpt lat="42.1118220" lon="-8.8661860">
        <ele>79.8</ele>
        <time>2021-05-19T13:31:34Z</time>
      </trkpt>
      <trkpt lat="42.1118240" lon="-8.8661800">
        <ele>79.8</ele>
        <time>2021-05-19T13:31:35Z</time>
      </trkpt>
      <trkpt lat="42.1118380" lon="-8.8661610">
        <ele>79.8</ele>
        <time>2021-05-19T13:31:36Z</time>
      </trkpt>
      <trkpt lat="42.1118440" lon="-8.8661520">
        <ele>79.8</ele>
        <time>2021-05-19T13:31:37Z</time>
      </trkpt>
      <trkpt lat="42.1118490" lon="-8.8661440">
        <ele>79.8</ele>
        <time>2021-05-19T13:31:38Z</time>
      </trkpt>
      <trkpt lat="42.1118610" lon="-8.8661220">
        <ele>79.8</ele>
        <time>2021-05-19T13:31:39Z</time>
      </trkpt>
      <trkpt lat="42.1118670" lon="-8.8661130">
        <ele>79.8</ele>
        <time>2021-05-19T13:31:40Z</time>
      </trkpt>
      <trkpt lat="42.1118730" lon="-8.8661030">
        <ele>79.8</ele>
        <time>2021-05-19T13:31:41Z</time>
      </trkpt>
      <trkpt lat="42.1118960" lon="-8.8660910">
        <ele>79.8</ele>
        <time>2021-05-19T13:31:42Z</time>
      </trkpt>
      <trkpt lat="42.1119040" lon="-8.8660850">
        <ele>79.9</ele>
        <time>2021-05-19T13:31:43Z</time>
      </trkpt>
      <trkpt lat="42.1119120" lon="-8.8660790">
        <ele>79.9</ele>
        <time>2021-05-19T13:31:44Z</time>
      </trkpt>
      <trkpt lat="42.1119170" lon="-8.8660690">
        <ele>79.9</ele>
        <time>2021-05-19T13:31:45Z</time>
      </trkpt>
      <trkpt lat="42.1119250" lon="-8.8660580">
        <ele>79.9</ele>
        <time>2021-05-19T13:31:46Z</time>
      </trkpt>
      <trkpt lat="42.1119320" lon="-8.8660440">
        <ele>79.9</ele>
        <time>2021-05-19T13:31:47Z</time>
      </trkpt>
      <trkpt lat="42.1119380" lon="-8.8660290">
        <ele>79.9</ele>
        <time>2021-05-19T13:31:48Z</time>
      </trkpt>
      <trkpt lat="42.1119500" lon="-8.8660220">
        <ele>79.9</ele>
        <time>2021-05-19T13:31:49Z</time>
      </trkpt>
      <trkpt lat="42.1119580" lon="-8.8660130">
        <ele>79.9</ele>
        <time>2021-05-19T13:31:50Z</time>
      </trkpt>
      <trkpt lat="42.1119760" lon="-8.8660020">
        <ele>79.9</ele>
        <time>2021-05-19T13:31:51Z</time>
      </trkpt>
      <trkpt lat="42.1119840" lon="-8.8659970">
        <ele>80.0</ele>
        <time>2021-05-19T13:31:52Z</time>
      </trkpt>
      <trkpt lat="42.1119970" lon="-8.8659880">
        <ele>80.0</ele>
        <time>2021-05-19T13:31:53Z</time>
      </trkpt>
      <trkpt lat="42.1120020" lon="-8.8659820">
        <ele>80.0</ele>
        <time>2021-05-19T13:31:54Z</time>
      </trkpt>
      <trkpt lat="42.1120100" lon="-8.8659740">
        <ele>80.0</ele>
        <time>2021-05-19T13:31:55Z</time>
      </trkpt>
      <trkpt lat="42.1120180" lon="-8.8659650">
        <ele>80.0</ele>
        <time>2021-05-19T13:31:56Z</time>
      </trkpt>
      <trkpt lat="42.1120280" lon="-8.8659480">
        <ele>80.0</ele>
        <time>2021-05-19T13:31:57Z</time>
      </trkpt>
      <trkpt lat="42.1120370" lon="-8.8659420">
        <ele>80.0</ele>
        <time>2021-05-19T13:31:58Z</time>
      </trkpt>
      <trkpt lat="42.1120440" lon="-8.8659320">
        <ele>80.0</ele>
        <time>2021-05-19T13:31:59Z</time>
      </trkpt>
      <trkpt lat="42.1120550" lon="-8.8659270">
        <ele>80.0</ele>
        <time>2021-05-19T13:32:00Z</time>
      </trkpt>
      <trkpt lat="42.1120660" lon="-8.8659210">
        <ele>80.1</ele>
        <time>2021-05-19T13:32:01Z</time>
      </trkpt>
      <trkpt lat="42.1120780" lon="-8.8659060">
        <ele>80.1</ele>
        <time>2021-05-19T13:32:02Z</time>
      </trkpt>
      <trkpt lat="42.1120870" lon="-8.8658910">
        <ele>80.1</ele>
        <time>2021-05-19T13:32:03Z</time>
      </trkpt>
      <trkpt lat="42.1121000" lon="-8.8658720">
        <ele>80.1</ele>
        <time>2021-05-19T13:32:04Z</time>
      </trkpt>
      <trkpt lat="42.1121060" lon="-8.8658630">
        <ele>80.1</ele>
        <time>2021-05-19T13:32:05Z</time>
      </trkpt>
      <trkpt lat="42.1121110" lon="-8.8658530">
        <ele>80.1</ele>
        <time>2021-05-19T13:32:06Z</time>
      </trkpt>
      <trkpt lat="42.1121190" lon="-8.8658400">
        <ele>80.2</ele>
        <time>2021-05-19T13:32:07Z</time>
      </trkpt>
      <trkpt lat="42.1121280" lon="-8.8658320">
        <ele>80.2</ele>
        <time>2021-05-19T13:32:08Z</time>
      </trkpt>
      <trkpt lat="42.1121370" lon="-8.8658210">
        <ele>80.2</ele>
        <time>2021-05-19T13:32:09Z</time>
      </trkpt>
      <trkpt lat="42.1121480" lon="-8.8658090">
        <ele>80.2</ele>
        <time>2021-05-19T13:32:10Z</time>
      </trkpt>
      <trkpt lat="42.1121580" lon="-8.8657970">
        <ele>80.2</ele>
        <time>2021-05-19T13:32:11Z</time>
      </trkpt>
      <trkpt lat="42.1121700" lon="-8.8657910">
        <ele>80.3</ele>
        <time>2021-05-19T13:32:12Z</time>
      </trkpt>
      <trkpt lat="42.1121730" lon="-8.8657820">
        <ele>80.3</ele>
        <time>2021-05-19T13:32:13Z</time>
      </trkpt>
      <trkpt lat="42.1121950" lon="-8.8657710">
        <ele>80.3</ele>
        <time>2021-05-19T13:32:14Z</time>
      </trkpt>
      <trkpt lat="42.1121980" lon="-8.8657610">
        <ele>80.3</ele>
        <time>2021-05-19T13:32:15Z</time>
      </trkpt>
      <trkpt lat="42.1122110" lon="-8.8657470">
        <ele>80.4</ele>
        <time>2021-05-19T13:32:16Z</time>
      </trkpt>
      <trkpt lat="42.1122240" lon="-8.8657410">
        <ele>80.4</ele>
        <time>2021-05-19T13:32:17Z</time>
      </trkpt>
      <trkpt lat="42.1122380" lon="-8.8657270">
        <ele>80.4</ele>
        <time>2021-05-19T13:32:18Z</time>
      </trkpt>
      <trkpt lat="42.1122490" lon="-8.8657100">
        <ele>80.5</ele>
        <time>2021-05-19T13:32:19Z</time>
      </trkpt>
      <trkpt lat="42.1122600" lon="-8.8656980">
        <ele>80.5</ele>
        <time>2021-05-19T13:32:20Z</time>
      </trkpt>
      <trkpt lat="42.1122690" lon="-8.8656840">
        <ele>80.5</ele>
        <time>2021-05-19T13:32:21Z</time>
      </trkpt>
      <trkpt lat="42.1122840" lon="-8.8656770">
        <ele>80.6</ele>
        <time>2021-05-19T13:32:22Z</time>
      </trkpt>
      <trkpt lat="42.1122980" lon="-8.8656580">
        <ele>80.6</ele>
        <time>2021-05-19T13:32:23Z</time>
      </trkpt>
      <trkpt lat="42.1123070" lon="-8.8656530">
        <ele>80.7</ele>
        <time>2021-05-19T13:32:24Z</time>
      </trkpt>
      <trkpt lat="42.1123150" lon="-8.8656470">
        <ele>80.7</ele>
        <time>2021-05-19T13:32:25Z</time>
      </trkpt>
      <trkpt lat="42.1123300" lon="-8.8656270">
        <ele>80.8</ele>
        <time>2021-05-19T13:32:26Z</time>
      </trkpt>
      <trkpt lat="42.1123350" lon="-8.8656190">
        <ele>80.8</ele>
        <time>2021-05-19T13:32:27Z</time>
      </trkpt>
      <trkpt lat="42.1123400" lon="-8.8656100">
        <ele>80.8</ele>
        <time>2021-05-19T13:32:28Z</time>
      </trkpt>
      <trkpt lat="42.1123730" lon="-8.8655800">
        <ele>81.0</ele>
        <time>2021-05-19T13:32:30Z</time>
      </trkpt>
      <trkpt lat="42.1123830" lon="-8.8655730">
        <ele>81.0</ele>
        <time>2021-05-19T13:32:32Z</time>
      </trkpt>
      <trkpt lat="42.1123930" lon="-8.8655650">
        <ele>81.1</ele>
        <time>2021-05-19T13:32:33Z</time>
      </trkpt>
      <trkpt lat="42.1124030" lon="-8.8655570">
        <ele>81.1</ele>
        <time>2021-05-19T13:32:34Z</time>
      </trkpt>
      <trkpt lat="42.1124120" lon="-8.8655430">
        <ele>81.2</ele>
        <time>2021-05-19T13:32:35Z</time>
      </trkpt>
      <trkpt lat="42.1124250" lon="-8.8655320">
        <ele>81.2</ele>
        <time>2021-05-19T13:32:36Z</time>
      </trkpt>
      <trkpt lat="42.1124410" lon="-8.8655270">
        <ele>81.3</ele>
        <time>2021-05-19T13:32:37Z</time>
      </trkpt>
      <trkpt lat="42.1124530" lon="-8.8655180">
        <ele>81.4</ele>
        <time>2021-05-19T13:32:38Z</time>
      </trkpt>
      <trkpt lat="42.1124640" lon="-8.8655040">
        <ele>81.4</ele>
        <time>2021-05-19T13:32:39Z</time>
      </trkpt>
      <trkpt lat="42.1124770" lon="-8.8654980">
        <ele>81.5</ele>
        <time>2021-05-19T13:32:40Z</time>
      </trkpt>
      <trkpt lat="42.1124970" lon="-8.8654830">
        <ele>81.6</ele>
        <time>2021-05-19T13:32:41Z</time>
      </trkpt>
      <trkpt lat="42.1125050" lon="-8.8654770">
        <ele>81.6</ele>
        <time>2021-05-19T13:32:42Z</time>
      </trkpt>
      <trkpt lat="42.1125130" lon="-8.8654720">
        <ele>81.7</ele>
        <time>2021-05-19T13:32:43Z</time>
      </trkpt>
      <trkpt lat="42.1125240" lon="-8.8654570">
        <ele>81.7</ele>
        <time>2021-05-19T13:32:44Z</time>
      </trkpt>
      <trkpt lat="42.1125400" lon="-8.8654560">
        <ele>81.8</ele>
        <time>2021-05-19T13:32:45Z</time>
      </trkpt>
      <trkpt lat="42.1125510" lon="-8.8654430">
        <ele>81.9</ele>
        <time>2021-05-19T13:32:46Z</time>
      </trkpt>
      <trkpt lat="42.1125660" lon="-8.8654360">
        <ele>81.9</ele>
        <time>2021-05-19T13:32:47Z</time>
      </trkpt>
      <trkpt lat="42.1125760" lon="-8.8654260">
        <ele>82.0</ele>
        <time>2021-05-19T13:32:48Z</time>
      </trkpt>
      <trkpt lat="42.1125900" lon="-8.8654190">
        <ele>82.1</ele>
        <time>2021-05-19T13:32:49Z</time>
      </trkpt>
      <trkpt lat="42.1126090" lon="-8.8654040">
        <ele>82.2</ele>
        <time>2021-05-19T13:32:50Z</time>
      </trkpt>
      <trkpt lat="42.1126170" lon="-8.8653980">
        <ele>82.2</ele>
        <time>2021-05-19T13:32:51Z</time>
      </trkpt>
      <trkpt lat="42.1126240" lon="-8.8653910">
        <ele>82.2</ele>
        <time>2021-05-19T13:32:52Z</time>
      </trkpt>
      <trkpt lat="42.1126360" lon="-8.8653810">
        <ele>82.3</ele>
        <time>2021-05-19T13:32:53Z</time>
      </trkpt>
      <trkpt lat="42.1126480" lon="-8.8653710">
        <ele>82.4</ele>
        <time>2021-05-19T13:32:54Z</time>
      </trkpt>
      <trkpt lat="42.1126680" lon="-8.8653620">
        <ele>82.5</ele>
        <time>2021-05-19T13:32:55Z</time>
      </trkpt>
      <trkpt lat="42.1126760" lon="-8.8653560">
        <ele>82.5</ele>
        <time>2021-05-19T13:32:56Z</time>
      </trkpt>
      <trkpt lat="42.1126840" lon="-8.8653510">
        <ele>82.5</ele>
        <time>2021-05-19T13:32:57Z</time>
      </trkpt>
      <trkpt lat="42.1127040" lon="-8.8653370">
        <ele>82.7</ele>
        <time>2021-05-19T13:32:58Z</time>
      </trkpt>
      <trkpt lat="42.1127100" lon="-8.8653330">
        <ele>82.7</ele>
        <time>2021-05-19T13:32:59Z</time>
      </trkpt>
      <trkpt lat="42.1127170" lon="-8.8653280">
        <ele>82.7</ele>
        <time>2021-05-19T13:33:00Z</time>
      </trkpt>
      <trkpt lat="42.1127270" lon="-8.8653110">
        <ele>82.8</ele>
        <time>2021-05-19T13:33:01Z</time>
      </trkpt>
      <trkpt lat="42.1127390" lon="-8.8653030">
        <ele>82.9</ele>
        <time>2021-05-19T13:33:02Z</time>
      </trkpt>
      <trkpt lat="42.1127490" lon="-8.8652910">
        <ele>82.9</ele>
        <time>2021-05-19T13:33:03Z</time>
      </trkpt>
      <trkpt lat="42.1127590" lon="-8.8652760">
        <ele>83.0</ele>
        <time>2021-05-19T13:33:04Z</time>
      </trkpt>
      <trkpt lat="42.1127700" lon="-8.8652670">
        <ele>83.0</ele>
        <time>2021-05-19T13:33:05Z</time>
      </trkpt>
      <trkpt lat="42.1127690" lon="-8.8652650">
        <ele>83.0</ele>
        <time>2021-05-19T13:33:06Z</time>
      </trkpt>
      <trkpt lat="42.1127760" lon="-8.8652530">
        <ele>83.1</ele>
        <time>2021-05-19T13:33:07Z</time>
      </trkpt>
      <trkpt lat="42.1127790" lon="-8.8652490">
        <ele>83.1</ele>
        <time>2021-05-19T13:33:08Z</time>
      </trkpt>
      <trkpt lat="42.1127900" lon="-8.8652330">
        <ele>83.2</ele>
        <time>2021-05-19T13:33:09Z</time>
      </trkpt>
      <trkpt lat="42.1127900" lon="-8.8652310">
        <ele>83.2</ele>
        <time>2021-05-19T13:33:10Z</time>
      </trkpt>
      <trkpt lat="42.1127980" lon="-8.8652160">
        <ele>83.3</ele>
        <time>2021-05-19T13:33:11Z</time>
      </trkpt>
      <trkpt lat="42.1128040" lon="-8.8652080">
        <ele>83.3</ele>
        <time>2021-05-19T13:33:12Z</time>
      </trkpt>
      <trkpt lat="42.1128160" lon="-8.8651980">
        <ele>83.4</ele>
        <time>2021-05-19T13:33:13Z</time>
      </trkpt>
      <trkpt lat="42.1128260" lon="-8.8651940">
        <ele>83.4</ele>
        <time>2021-05-19T13:33:14Z</time>
      </trkpt>
      <trkpt lat="42.1128320" lon="-8.8651870">
        <ele>83.4</ele>
        <time>2021-05-19T13:33:15Z</time>
      </trkpt>
      <trkpt lat="42.1128400" lon="-8.8651760">
        <ele>83.5</ele>
        <time>2021-05-19T13:33:16Z</time>
      </trkpt>
      <trkpt lat="42.1128480" lon="-8.8651660">
        <ele>83.5</ele>
        <time>2021-05-19T13:33:17Z</time>
      </trkpt>
      <trkpt lat="42.1128560" lon="-8.8651640">
        <ele>83.6</ele>
        <time>2021-05-19T13:33:18Z</time>
      </trkpt>
      <trkpt lat="42.1128650" lon="-8.8651530">
        <ele>83.6</ele>
        <time>2021-05-19T13:33:19Z</time>
      </trkpt>
      <trkpt lat="42.1128720" lon="-8.8651450">
        <ele>83.7</ele>
        <time>2021-05-19T13:33:20Z</time>
      </trkpt>
      <trkpt lat="42.1128830" lon="-8.8651340">
        <ele>83.7</ele>
        <time>2021-05-19T13:33:21Z</time>
      </trkpt>
      <trkpt lat="42.1128950" lon="-8.8651250">
        <ele>83.8</ele>
        <time>2021-05-19T13:33:22Z</time>
      </trkpt>
      <trkpt lat="42.1129030" lon="-8.8651210">
        <ele>83.8</ele>
        <time>2021-05-19T13:33:23Z</time>
      </trkpt>
      <trkpt lat="42.1129080" lon="-8.8651100">
        <ele>83.9</ele>
        <time>2021-05-19T13:33:24Z</time>
      </trkpt>
      <trkpt lat="42.1129140" lon="-8.8651030">
        <ele>83.9</ele>
        <time>2021-05-19T13:33:25Z</time>
      </trkpt>
      <trkpt lat="42.1129220" lon="-8.8650910">
        <ele>84.0</ele>
        <time>2021-05-19T13:33:26Z</time>
      </trkpt>
      <trkpt lat="42.1129310" lon="-8.8650770">
        <ele>84.0</ele>
        <time>2021-05-19T13:33:27Z</time>
      </trkpt>
      <trkpt lat="42.1129380" lon="-8.8650680">
        <ele>84.0</ele>
        <time>2021-05-19T13:33:28Z</time>
      </trkpt>
      <trkpt lat="42.1129440" lon="-8.8650590">
        <ele>84.1</ele>
        <time>2021-05-19T13:33:29Z</time>
      </trkpt>
      <trkpt lat="42.1129500" lon="-8.8650500">
        <ele>84.1</ele>
        <time>2021-05-19T13:33:30Z</time>
      </trkpt>
      <trkpt lat="42.1129580" lon="-8.8650410">
        <ele>84.1</ele>
        <time>2021-05-19T13:33:31Z</time>
      </trkpt>
      <trkpt lat="42.1129680" lon="-8.8650300">
        <ele>84.2</ele>
        <time>2021-05-19T13:33:32Z</time>
      </trkpt>
      <trkpt lat="42.1129750" lon="-8.8650220">
        <ele>84.2</ele>
        <time>2021-05-19T13:33:33Z</time>
      </trkpt>
      <trkpt lat="42.1129820" lon="-8.8650140">
        <ele>84.2</ele>
        <time>2021-05-19T13:33:34Z</time>
      </trkpt>
      <trkpt lat="42.1129880" lon="-8.8650060">
        <ele>84.2</ele>
        <time>2021-05-19T13:33:35Z</time>
      </trkpt>
      <trkpt lat="42.1129930" lon="-8.8649940">
        <ele>84.3</ele>
        <time>2021-05-19T13:33:36Z</time>
      </trkpt>
      <trkpt lat="42.1130060" lon="-8.8649850">
        <ele>84.3</ele>
        <time>2021-05-19T13:33:37Z</time>
      </trkpt>
      <trkpt lat="42.1130160" lon="-8.8649670">
        <ele>84.3</ele>
        <time>2021-05-19T13:33:38Z</time>
      </trkpt>
      <trkpt lat="42.1130280" lon="-8.8649550">
        <ele>84.4</ele>
        <time>2021-05-19T13:33:39Z</time>
      </trkpt>
      <trkpt lat="42.1130350" lon="-8.8649480">
        <ele>84.4</ele>
        <time>2021-05-19T13:33:40Z</time>
      </trkpt>
      <trkpt lat="42.1130430" lon="-8.8649380">
        <ele>84.4</ele>
        <time>2021-05-19T13:33:41Z</time>
      </trkpt>
      <trkpt lat="42.1130550" lon="-8.8649150">
        <ele>84.5</ele>
        <time>2021-05-19T13:33:42Z</time>
      </trkpt>
      <trkpt lat="42.1130610" lon="-8.8649070">
        <ele>84.5</ele>
        <time>2021-05-19T13:33:43Z</time>
      </trkpt>
      <trkpt lat="42.1130660" lon="-8.8648990">
        <ele>84.5</ele>
        <time>2021-05-19T13:33:44Z</time>
      </trkpt>
      <trkpt lat="42.1130840" lon="-8.8648870">
        <ele>84.5</ele>
        <time>2021-05-19T13:33:45Z</time>
      </trkpt>
      <trkpt lat="42.1130910" lon="-8.8648790">
        <ele>84.5</ele>
        <time>2021-05-19T13:33:46Z</time>
      </trkpt>
      <trkpt lat="42.1130990" lon="-8.8648720">
        <ele>84.5</ele>
        <time>2021-05-19T13:33:47Z</time>
      </trkpt>
      <trkpt lat="42.1131040" lon="-8.8648610">
        <ele>84.5</ele>
        <time>2021-05-19T13:33:48Z</time>
      </trkpt>
      <trkpt lat="42.1131150" lon="-8.8648480">
        <ele>84.5</ele>
        <time>2021-05-19T13:33:49Z</time>
      </trkpt>
      <trkpt lat="42.1131170" lon="-8.8648380">
        <ele>84.5</ele>
        <time>2021-05-19T13:33:50Z</time>
      </trkpt>
      <trkpt lat="42.1131260" lon="-8.8648270">
        <ele>84.6</ele>
        <time>2021-05-19T13:33:51Z</time>
      </trkpt>
      <trkpt lat="42.1131330" lon="-8.8648170">
        <ele>84.6</ele>
        <time>2021-05-19T13:33:52Z</time>
      </trkpt>
      <trkpt lat="42.1131400" lon="-8.8648070">
        <ele>84.6</ele>
        <time>2021-05-19T13:33:53Z</time>
      </trkpt>
      <trkpt lat="42.1131550" lon="-8.8647900">
        <ele>84.6</ele>
        <time>2021-05-19T13:33:54Z</time>
      </trkpt>
      <trkpt lat="42.1131630" lon="-8.8647780">
        <ele>84.6</ele>
        <time>2021-05-19T13:33:55Z</time>
      </trkpt>
      <trkpt lat="42.1131750" lon="-8.8647520">
        <ele>84.6</ele>
        <time>2021-05-19T13:33:56Z</time>
      </trkpt>
      <trkpt lat="42.1131800" lon="-8.8647420">
        <ele>84.6</ele>
        <time>2021-05-19T13:33:57Z</time>
      </trkpt>
      <trkpt lat="42.1131840" lon="-8.8647320">
        <ele>84.6</ele>
        <time>2021-05-19T13:33:58Z</time>
      </trkpt>
      <trkpt lat="42.1132030" lon="-8.8647110">
        <ele>84.6</ele>
        <time>2021-05-19T13:33:59Z</time>
      </trkpt>
      <trkpt lat="42.1132090" lon="-8.8647040">
        <ele>84.6</ele>
        <time>2021-05-19T13:34:00Z</time>
      </trkpt>
      <trkpt lat="42.1132160" lon="-8.8646960">
        <ele>84.6</ele>
        <time>2021-05-19T13:34:01Z</time>
      </trkpt>
      <trkpt lat="42.1132270" lon="-8.8646850">
        <ele>84.6</ele>
        <time>2021-05-19T13:34:02Z</time>
      </trkpt>
      <trkpt lat="42.1132350" lon="-8.8646700">
        <ele>84.6</ele>
        <time>2021-05-19T13:34:03Z</time>
      </trkpt>
      <trkpt lat="42.1132490" lon="-8.8646710">
        <ele>84.7</ele>
        <time>2021-05-19T13:34:04Z</time>
      </trkpt>
      <trkpt lat="42.1132540" lon="-8.8646590">
        <ele>84.7</ele>
        <time>2021-05-19T13:34:05Z</time>
      </trkpt>
      <trkpt lat="42.1132570" lon="-8.8646480">
        <ele>84.7</ele>
        <time>2021-05-19T13:34:06Z</time>
      </trkpt>
      <trkpt lat="42.1132650" lon="-8.8646400">
        <ele>84.7</ele>
        <time>2021-05-19T13:34:07Z</time>
      </trkpt>
      <trkpt lat="42.1132780" lon="-8.8646240">
        <ele>84.7</ele>
        <time>2021-05-19T13:34:08Z</time>
      </trkpt>
      <trkpt lat="42.1132960" lon="-8.8645990">
        <ele>84.7</ele>
        <time>2021-05-19T13:34:09Z</time>
      </trkpt>
      <trkpt lat="42.1133030" lon="-8.8645900">
        <ele>84.7</ele>
        <time>2021-05-19T13:34:10Z</time>
      </trkpt>
      <trkpt lat="42.1133110" lon="-8.8645810">
        <ele>84.7</ele>
        <time>2021-05-19T13:34:11Z</time>
      </trkpt>
      <trkpt lat="42.1133210" lon="-8.8645670">
        <ele>84.7</ele>
        <time>2021-05-19T13:34:12Z</time>
      </trkpt>
      <trkpt lat="42.1133340" lon="-8.8645550">
        <ele>84.7</ele>
        <time>2021-05-19T13:34:13Z</time>
      </trkpt>
      <trkpt lat="42.1133460" lon="-8.8645440">
        <ele>84.7</ele>
        <time>2021-05-19T13:34:14Z</time>
      </trkpt>
      <trkpt lat="42.1133580" lon="-8.8645330">
        <ele>84.7</ele>
        <time>2021-05-19T13:34:15Z</time>
      </trkpt>
      <trkpt lat="42.1133730" lon="-8.8645270">
        <ele>84.8</ele>
        <time>2021-05-19T13:34:16Z</time>
      </trkpt>
      <trkpt lat="42.1133830" lon="-8.8645110">
        <ele>84.8</ele>
        <time>2021-05-19T13:34:17Z</time>
      </trkpt>
      <trkpt lat="42.1133970" lon="-8.8645000">
        <ele>84.8</ele>
        <time>2021-05-19T13:34:18Z</time>
      </trkpt>
      <trkpt lat="42.1134090" lon="-8.8644880">
        <ele>84.8</ele>
        <time>2021-05-19T13:34:19Z</time>
      </trkpt>
      <trkpt lat="42.1134210" lon="-8.8644770">
        <ele>84.8</ele>
        <time>2021-05-19T13:34:20Z</time>
      </trkpt>
      <trkpt lat="42.1134310" lon="-8.8644670">
        <ele>84.8</ele>
        <time>2021-05-19T13:34:21Z</time>
      </trkpt>
      <trkpt lat="42.1134450" lon="-8.8644540">
        <ele>84.8</ele>
        <time>2021-05-19T13:34:22Z</time>
      </trkpt>
      <trkpt lat="42.1134510" lon="-8.8644460">
        <ele>84.8</ele>
        <time>2021-05-19T13:34:23Z</time>
      </trkpt>
      <trkpt lat="42.1134570" lon="-8.8644380">
        <ele>84.8</ele>
        <time>2021-05-19T13:34:24Z</time>
      </trkpt>
      <trkpt lat="42.1134630" lon="-8.8644300">
        <ele>84.9</ele>
        <time>2021-05-19T13:34:25Z</time>
      </trkpt>
      <trkpt lat="42.1134710" lon="-8.8644130">
        <ele>84.9</ele>
        <time>2021-05-19T13:34:26Z</time>
      </trkpt>
      <trkpt lat="42.1134830" lon="-8.8644060">
        <ele>84.9</ele>
        <time>2021-05-19T13:34:27Z</time>
      </trkpt>
      <trkpt lat="42.1134880" lon="-8.8643950">
        <ele>84.9</ele>
        <time>2021-05-19T13:34:28Z</time>
      </trkpt>
      <trkpt lat="42.1134930" lon="-8.8643830">
        <ele>84.9</ele>
        <time>2021-05-19T13:34:29Z</time>
      </trkpt>
      <trkpt lat="42.1134990" lon="-8.8643680">
        <ele>84.9</ele>
        <time>2021-05-19T13:34:30Z</time>
      </trkpt>
      <trkpt lat="42.1135060" lon="-8.8643620">
        <ele>84.9</ele>
        <time>2021-05-19T13:34:31Z</time>
      </trkpt>
      <trkpt lat="42.1135160" lon="-8.8643440">
        <ele>84.9</ele>
        <time>2021-05-19T13:34:32Z</time>
      </trkpt>
      <trkpt lat="42.1135220" lon="-8.8643300">
        <ele>84.9</ele>
        <time>2021-05-19T13:34:33Z</time>
      </trkpt>
      <trkpt lat="42.1135360" lon="-8.8643100">
        <ele>84.9</ele>
        <time>2021-05-19T13:34:34Z</time>
      </trkpt>
      <trkpt lat="42.1135430" lon="-8.8643040">
        <ele>84.9</ele>
        <time>2021-05-19T13:34:35Z</time>
      </trkpt>
      <trkpt lat="42.1135500" lon="-8.8642970">
        <ele>85.0</ele>
        <time>2021-05-19T13:34:36Z</time>
      </trkpt>
      <trkpt lat="42.1135620" lon="-8.8642910">
        <ele>85.0</ele>
        <time>2021-05-19T13:34:37Z</time>
      </trkpt>
      <trkpt lat="42.1135640" lon="-8.8642760">
        <ele>85.0</ele>
        <time>2021-05-19T13:34:38Z</time>
      </trkpt>
      <trkpt lat="42.1135730" lon="-8.8642640">
        <ele>85.0</ele>
        <time>2021-05-19T13:34:39Z</time>
      </trkpt>
      <trkpt lat="42.1135780" lon="-8.8642530">
        <ele>85.0</ele>
        <time>2021-05-19T13:34:40Z</time>
      </trkpt>
      <trkpt lat="42.1135820" lon="-8.8642390">
        <ele>85.0</ele>
        <time>2021-05-19T13:34:41Z</time>
      </trkpt>
      <trkpt lat="42.1135940" lon="-8.8642270">
        <ele>85.0</ele>
        <time>2021-05-19T13:34:42Z</time>
      </trkpt>
      <trkpt lat="42.1136030" lon="-8.8642200">
        <ele>85.0</ele>
        <time>2021-05-19T13:34:43Z</time>
      </trkpt>
      <trkpt lat="42.1136050" lon="-8.8642030">
        <ele>85.0</ele>
        <time>2021-05-19T13:34:44Z</time>
      </trkpt>
      <trkpt lat="42.1136140" lon="-8.8641910">
        <ele>85.0</ele>
        <time>2021-05-19T13:34:45Z</time>
      </trkpt>
      <trkpt lat="42.1136310" lon="-8.8641690">
        <ele>85.0</ele>
        <time>2021-05-19T13:34:46Z</time>
      </trkpt>
      <trkpt lat="42.1136360" lon="-8.8641600">
        <ele>85.1</ele>
        <time>2021-05-19T13:34:47Z</time>
      </trkpt>
      <trkpt lat="42.1136410" lon="-8.8641520">
        <ele>85.1</ele>
        <time>2021-05-19T13:34:48Z</time>
      </trkpt>
      <trkpt lat="42.1136510" lon="-8.8641380">
        <ele>85.1</ele>
        <time>2021-05-19T13:34:49Z</time>
      </trkpt>
      <trkpt lat="42.1136610" lon="-8.8641200">
        <ele>85.1</ele>
        <time>2021-05-19T13:34:50Z</time>
      </trkpt>
      <trkpt lat="42.1136740" lon="-8.8641000">
        <ele>85.1</ele>
        <time>2021-05-19T13:34:51Z</time>
      </trkpt>
      <trkpt lat="42.1136820" lon="-8.8640930">
        <ele>85.1</ele>
        <time>2021-05-19T13:34:52Z</time>
      </trkpt>
      <trkpt lat="42.1136890" lon="-8.8640850">
        <ele>85.1</ele>
        <time>2021-05-19T13:34:53Z</time>
      </trkpt>
      <trkpt lat="42.1136930" lon="-8.8640730">
        <ele>85.2</ele>
        <time>2021-05-19T13:34:54Z</time>
      </trkpt>
      <trkpt lat="42.1137030" lon="-8.8640620">
        <ele>85.2</ele>
        <time>2021-05-19T13:34:55Z</time>
      </trkpt>
      <trkpt lat="42.1137090" lon="-8.8640530">
        <ele>85.2</ele>
        <time>2021-05-19T13:34:56Z</time>
      </trkpt>
      <trkpt lat="42.1137230" lon="-8.8640400">
        <ele>85.2</ele>
        <time>2021-05-19T13:34:57Z</time>
      </trkpt>
      <trkpt lat="42.1137320" lon="-8.8640310">
        <ele>85.2</ele>
        <time>2021-05-19T13:34:58Z</time>
      </trkpt>
      <trkpt lat="42.1137420" lon="-8.8640120">
        <ele>85.2</ele>
        <time>2021-05-19T13:34:59Z</time>
      </trkpt>
      <trkpt lat="42.1137510" lon="-8.8640010">
        <ele>85.3</ele>
        <time>2021-05-19T13:35:00Z</time>
      </trkpt>
      <trkpt lat="42.1137610" lon="-8.8639890">
        <ele>85.3</ele>
        <time>2021-05-19T13:35:01Z</time>
      </trkpt>
      <trkpt lat="42.1137640" lon="-8.8639820">
        <ele>85.3</ele>
        <time>2021-05-19T13:35:02Z</time>
      </trkpt>
      <trkpt lat="42.1137740" lon="-8.8639780">
        <ele>85.3</ele>
        <time>2021-05-19T13:35:03Z</time>
      </trkpt>
      <trkpt lat="42.1137900" lon="-8.8639620">
        <ele>85.3</ele>
        <time>2021-05-19T13:35:04Z</time>
      </trkpt>
      <trkpt lat="42.1137980" lon="-8.8639530">
        <ele>85.4</ele>
        <time>2021-05-19T13:35:05Z</time>
      </trkpt>
      <trkpt lat="42.1138060" lon="-8.8639440">
        <ele>85.4</ele>
        <time>2021-05-19T13:35:06Z</time>
      </trkpt>
      <trkpt lat="42.1138150" lon="-8.8639330">
        <ele>85.4</ele>
        <time>2021-05-19T13:35:07Z</time>
      </trkpt>
      <trkpt lat="42.1138210" lon="-8.8639210">
        <ele>85.4</ele>
        <time>2021-05-19T13:35:08Z</time>
      </trkpt>
      <trkpt lat="42.1138240" lon="-8.8639120">
        <ele>85.4</ele>
        <time>2021-05-19T13:35:09Z</time>
      </trkpt>
      <trkpt lat="42.1138370" lon="-8.8639000">
        <ele>85.5</ele>
        <time>2021-05-19T13:35:10Z</time>
      </trkpt>
      <trkpt lat="42.1138460" lon="-8.8638890">
        <ele>85.5</ele>
        <time>2021-05-19T13:35:11Z</time>
      </trkpt>
      <trkpt lat="42.1138580" lon="-8.8638770">
        <ele>85.5</ele>
        <time>2021-05-19T13:35:12Z</time>
      </trkpt>
      <trkpt lat="42.1138620" lon="-8.8638720">
        <ele>85.5</ele>
        <time>2021-05-19T13:35:13Z</time>
      </trkpt>
      <trkpt lat="42.1138710" lon="-8.8638560">
        <ele>85.6</ele>
        <time>2021-05-19T13:35:14Z</time>
      </trkpt>
      <trkpt lat="42.1138790" lon="-8.8638440">
        <ele>85.6</ele>
        <time>2021-05-19T13:35:15Z</time>
      </trkpt>
      <trkpt lat="42.1138890" lon="-8.8638280">
        <ele>85.6</ele>
        <time>2021-05-19T13:35:16Z</time>
      </trkpt>
      <trkpt lat="42.1139040" lon="-8.8638030">
        <ele>85.7</ele>
        <time>2021-05-19T13:35:17Z</time>
      </trkpt>
      <trkpt lat="42.1139090" lon="-8.8637960">
        <ele>85.7</ele>
        <time>2021-05-19T13:35:18Z</time>
      </trkpt>
      <trkpt lat="42.1139130" lon="-8.8637890">
        <ele>85.7</ele>
        <time>2021-05-19T13:35:19Z</time>
      </trkpt>
      <trkpt lat="42.1139220" lon="-8.8637800">
        <ele>85.7</ele>
        <time>2021-05-19T13:35:20Z</time>
      </trkpt>
      <trkpt lat="42.1139340" lon="-8.8637640">
        <ele>85.8</ele>
        <time>2021-05-19T13:35:21Z</time>
      </trkpt>
      <trkpt lat="42.1139480" lon="-8.8637520">
        <ele>85.8</ele>
        <time>2021-05-19T13:35:22Z</time>
      </trkpt>
      <trkpt lat="42.1139570" lon="-8.8637420">
        <ele>85.8</ele>
        <time>2021-05-19T13:35:23Z</time>
      </trkpt>
      <trkpt lat="42.1139660" lon="-8.8637240">
        <ele>85.8</ele>
        <time>2021-05-19T13:35:24Z</time>
      </trkpt>
      <trkpt lat="42.1139760" lon="-8.8637140">
        <ele>85.9</ele>
        <time>2021-05-19T13:35:25Z</time>
      </trkpt>
      <trkpt lat="42.1139860" lon="-8.8637060">
        <ele>85.9</ele>
        <time>2021-05-19T13:35:26Z</time>
      </trkpt>
      <trkpt lat="42.1139900" lon="-8.8637000">
        <ele>85.9</ele>
        <time>2021-05-19T13:35:27Z</time>
      </trkpt>
      <trkpt lat="42.1139880" lon="-8.8636800">
        <ele>85.9</ele>
        <time>2021-05-19T13:35:28Z</time>
      </trkpt>
      <trkpt lat="42.1139980" lon="-8.8636690">
        <ele>86.0</ele>
        <time>2021-05-19T13:35:29Z</time>
      </trkpt>
      <trkpt lat="42.1140010" lon="-8.8636520">
        <ele>86.0</ele>
        <time>2021-05-19T13:35:30Z</time>
      </trkpt>
      <trkpt lat="42.1140090" lon="-8.8636430">
        <ele>86.0</ele>
        <time>2021-05-19T13:35:31Z</time>
      </trkpt>
      <trkpt lat="42.1140160" lon="-8.8636310">
        <ele>86.0</ele>
        <time>2021-05-19T13:35:32Z</time>
      </trkpt>
      <trkpt lat="42.1140240" lon="-8.8636220">
        <ele>86.1</ele>
        <time>2021-05-19T13:35:33Z</time>
      </trkpt>
      <trkpt lat="42.1140340" lon="-8.8636110">
        <ele>86.1</ele>
        <time>2021-05-19T13:35:34Z</time>
      </trkpt>
      <trkpt lat="42.1140440" lon="-8.8636010">
        <ele>86.1</ele>
        <time>2021-05-19T13:35:35Z</time>
      </trkpt>
      <trkpt lat="42.1140550" lon="-8.8635870">
        <ele>86.1</ele>
        <time>2021-05-19T13:35:36Z</time>
      </trkpt>
      <trkpt lat="42.1140630" lon="-8.8635760">
        <ele>86.2</ele>
        <time>2021-05-19T13:35:37Z</time>
      </trkpt>
      <trkpt lat="42.1140700" lon="-8.8635560">
        <ele>86.2</ele>
        <time>2021-05-19T13:35:38Z</time>
      </trkpt>
      <trkpt lat="42.1140790" lon="-8.8635450">
        <ele>86.2</ele>
        <time>2021-05-19T13:35:39Z</time>
      </trkpt>
      <trkpt lat="42.1140810" lon="-8.8635360">
        <ele>86.3</ele>
        <time>2021-05-19T13:35:40Z</time>
      </trkpt>
      <trkpt lat="42.1140940" lon="-8.8635260">
        <ele>86.3</ele>
        <time>2021-05-19T13:35:41Z</time>
      </trkpt>
      <trkpt lat="42.1141070" lon="-8.8635190">
        <ele>86.3</ele>
        <time>2021-05-19T13:35:42Z</time>
      </trkpt>
      <trkpt lat="42.1141170" lon="-8.8635080">
        <ele>86.4</ele>
        <time>2021-05-19T13:35:43Z</time>
      </trkpt>
      <trkpt lat="42.1141220" lon="-8.8634950">
        <ele>86.4</ele>
        <time>2021-05-19T13:35:44Z</time>
      </trkpt>
      <trkpt lat="42.1141310" lon="-8.8634780">
        <ele>86.4</ele>
        <time>2021-05-19T13:35:45Z</time>
      </trkpt>
      <trkpt lat="42.1141370" lon="-8.8634620">
        <ele>86.5</ele>
        <time>2021-05-19T13:35:46Z</time>
      </trkpt>
      <trkpt lat="42.1141470" lon="-8.8634430">
        <ele>86.5</ele>
        <time>2021-05-19T13:35:47Z</time>
      </trkpt>
      <trkpt lat="42.1141570" lon="-8.8634300">
        <ele>86.6</ele>
        <time>2021-05-19T13:35:48Z</time>
      </trkpt>
      <trkpt lat="42.1141690" lon="-8.8634130">
        <ele>86.7</ele>
        <time>2021-05-19T13:35:49Z</time>
      </trkpt>
      <trkpt lat="42.1141730" lon="-8.8633980">
        <ele>86.7</ele>
        <time>2021-05-19T13:35:50Z</time>
      </trkpt>
      <trkpt lat="42.1141750" lon="-8.8633840">
        <ele>86.7</ele>
        <time>2021-05-19T13:35:51Z</time>
      </trkpt>
      <trkpt lat="42.1141830" lon="-8.8633720">
        <ele>86.8</ele>
        <time>2021-05-19T13:35:52Z</time>
      </trkpt>
      <trkpt lat="42.1141890" lon="-8.8633530">
        <ele>86.9</ele>
        <time>2021-05-19T13:35:53Z</time>
      </trkpt>
      <trkpt lat="42.1141860" lon="-8.8633380">
        <ele>86.9</ele>
        <time>2021-05-19T13:35:54Z</time>
      </trkpt>
      <trkpt lat="42.1141920" lon="-8.8633250">
        <ele>87.0</ele>
        <time>2021-05-19T13:35:55Z</time>
      </trkpt>
      <trkpt lat="42.1141930" lon="-8.8633120">
        <ele>87.0</ele>
        <time>2021-05-19T13:35:56Z</time>
      </trkpt>
      <trkpt lat="42.1141980" lon="-8.8632840">
        <ele>87.1</ele>
        <time>2021-05-19T13:35:57Z</time>
      </trkpt>
      <trkpt lat="42.1142000" lon="-8.8632710">
        <ele>87.1</ele>
        <time>2021-05-19T13:35:58Z</time>
      </trkpt>
      <trkpt lat="42.1142020" lon="-8.8632590">
        <ele>87.2</ele>
        <time>2021-05-19T13:35:59Z</time>
      </trkpt>
      <trkpt lat="42.1142030" lon="-8.8632370">
        <ele>87.3</ele>
        <time>2021-05-19T13:36:00Z</time>
      </trkpt>
      <trkpt lat="42.1141980" lon="-8.8632260">
        <ele>87.3</ele>
        <time>2021-05-19T13:36:01Z</time>
      </trkpt>
      <trkpt lat="42.1142000" lon="-8.8632140">
        <ele>87.4</ele>
        <time>2021-05-19T13:36:02Z</time>
      </trkpt>
      <trkpt lat="42.1141950" lon="-8.8631970">
        <ele>87.5</ele>
        <time>2021-05-19T13:36:03Z</time>
      </trkpt>
      <trkpt lat="42.1141990" lon="-8.8631820">
        <ele>87.5</ele>
        <time>2021-05-19T13:36:04Z</time>
      </trkpt>
      <trkpt lat="42.1141970" lon="-8.8631690">
        <ele>87.6</ele>
        <time>2021-05-19T13:36:05Z</time>
      </trkpt>
      <trkpt lat="42.1141920" lon="-8.8631520">
        <ele>87.6</ele>
        <time>2021-05-19T13:36:06Z</time>
      </trkpt>
      <trkpt lat="42.1141910" lon="-8.8631330">
        <ele>87.7</ele>
        <time>2021-05-19T13:36:07Z</time>
      </trkpt>
      <trkpt lat="42.1141830" lon="-8.8631110">
        <ele>87.8</ele>
        <time>2021-05-19T13:36:08Z</time>
      </trkpt>
      <trkpt lat="42.1141770" lon="-8.8630940">
        <ele>87.9</ele>
        <time>2021-05-19T13:36:09Z</time>
      </trkpt>
      <trkpt lat="42.1141720" lon="-8.8630720">
        <ele>88.0</ele>
        <time>2021-05-19T13:36:10Z</time>
      </trkpt>
      <trkpt lat="42.1141680" lon="-8.8630620">
        <ele>88.1</ele>
        <time>2021-05-19T13:36:11Z</time>
      </trkpt>
      <trkpt lat="42.1141640" lon="-8.8630530">
        <ele>88.1</ele>
        <time>2021-05-19T13:36:12Z</time>
      </trkpt>
      <trkpt lat="42.1141600" lon="-8.8630440">
        <ele>88.2</ele>
        <time>2021-05-19T13:36:13Z</time>
      </trkpt>
      <trkpt lat="42.1141580" lon="-8.8630210">
        <ele>88.3</ele>
        <time>2021-05-19T13:36:14Z</time>
      </trkpt>
      <trkpt lat="42.1141540" lon="-8.8630090">
        <ele>88.3</ele>
        <time>2021-05-19T13:36:15Z</time>
      </trkpt>
      <trkpt lat="42.1141510" lon="-8.8629970">
        <ele>88.4</ele>
        <time>2021-05-19T13:36:16Z</time>
      </trkpt>
      <trkpt lat="42.1141500" lon="-8.8629910">
        <ele>88.4</ele>
        <time>2021-05-19T13:36:17Z</time>
      </trkpt>
      <trkpt lat="42.1141420" lon="-8.8629840">
        <ele>88.5</ele>
        <time>2021-05-19T13:36:18Z</time>
      </trkpt>
      <trkpt lat="42.1141370" lon="-8.8629770">
        <ele>88.5</ele>
        <time>2021-05-19T13:36:19Z</time>
      </trkpt>
      <trkpt lat="42.1141310" lon="-8.8629610">
        <ele>88.6</ele>
        <time>2021-05-19T13:36:20Z</time>
      </trkpt>
      <trkpt lat="42.1141270" lon="-8.8629520">
        <ele>88.6</ele>
        <time>2021-05-19T13:36:21Z</time>
      </trkpt>
      <trkpt lat="42.1141210" lon="-8.8629360">
        <ele>88.7</ele>
        <time>2021-05-19T13:36:22Z</time>
      </trkpt>
      <trkpt lat="42.1141140" lon="-8.8629220">
        <ele>88.8</ele>
        <time>2021-05-19T13:36:23Z</time>
      </trkpt>
      <trkpt lat="42.1141160" lon="-8.8629100">
        <ele>88.8</ele>
        <time>2021-05-19T13:36:24Z</time>
      </trkpt>
      <trkpt lat="42.1141260" lon="-8.8629080">
        <ele>88.9</ele>
        <time>2021-05-19T13:36:25Z</time>
      </trkpt>
      <trkpt lat="42.1141220" lon="-8.8628980">
        <ele>88.9</ele>
        <time>2021-05-19T13:36:26Z</time>
      </trkpt>
      <trkpt lat="42.1141240" lon="-8.8628800">
        <ele>89.0</ele>
        <time>2021-05-19T13:36:27Z</time>
      </trkpt>
      <trkpt lat="42.1141240" lon="-8.8628810">
        <ele>89.2</ele>
        <time>2021-05-19T13:36:28Z</time>
      </trkpt>
      <trkpt lat="42.1141330" lon="-8.8628600">
        <ele>89.2</ele>
        <time>2021-05-19T13:36:29Z</time>
      </trkpt>
      <trkpt lat="42.1141430" lon="-8.8628430">
        <ele>89.2</ele>
        <time>2021-05-19T13:36:30Z</time>
      </trkpt>
      <trkpt lat="42.1141490" lon="-8.8628410">
        <ele>89.2</ele>
        <time>2021-05-19T13:36:31Z</time>
      </trkpt>
      <trkpt lat="42.1141570" lon="-8.8628360">
        <ele>89.2</ele>
        <time>2021-05-19T13:36:32Z</time>
      </trkpt>
      <trkpt lat="42.1141620" lon="-8.8628320">
        <ele>89.2</ele>
        <time>2021-05-19T13:36:33Z</time>
      </trkpt>
      <trkpt lat="42.1141650" lon="-8.8628270">
        <ele>89.2</ele>
        <time>2021-05-19T13:36:34Z</time>
      </trkpt>
      <trkpt lat="42.1141610" lon="-8.8628270">
        <ele>89.2</ele>
        <time>2021-05-19T13:36:35Z</time>
      </trkpt>
      <trkpt lat="42.1141690" lon="-8.8628200">
        <ele>89.2</ele>
        <time>2021-05-19T13:36:36Z</time>
      </trkpt>
      <trkpt lat="42.1141760" lon="-8.8628150">
        <ele>89.2</ele>
        <time>2021-05-19T13:36:37Z</time>
      </trkpt>
      <trkpt lat="42.1141880" lon="-8.8627980">
        <ele>89.2</ele>
        <time>2021-05-19T13:36:38Z</time>
      </trkpt>
      <trkpt lat="42.1141910" lon="-8.8627910">
        <ele>89.2</ele>
        <time>2021-05-19T13:36:39Z</time>
      </trkpt>
      <trkpt lat="42.1142010" lon="-8.8627730">
        <ele>88.9</ele>
        <time>2021-05-19T13:36:40Z</time>
      </trkpt>
      <trkpt lat="42.1142040" lon="-8.8627650">
        <ele>88.9</ele>
        <time>2021-05-19T13:36:41Z</time>
      </trkpt>
      <trkpt lat="42.1142060" lon="-8.8627560">
        <ele>88.9</ele>
        <time>2021-05-19T13:36:42Z</time>
      </trkpt>
      <trkpt lat="42.1142090" lon="-8.8627480">
        <ele>88.9</ele>
        <time>2021-05-19T13:36:43Z</time>
      </trkpt>
      <trkpt lat="42.1142170" lon="-8.8627450">
        <ele>88.8</ele>
        <time>2021-05-19T13:36:44Z</time>
      </trkpt>
      <trkpt lat="42.1142270" lon="-8.8627390">
        <ele>88.8</ele>
        <time>2021-05-19T13:36:45Z</time>
      </trkpt>
      <trkpt lat="42.1142370" lon="-8.8627350">
        <ele>88.8</ele>
        <time>2021-05-19T13:36:46Z</time>
      </trkpt>
      <trkpt lat="42.1142460" lon="-8.8627220">
        <ele>88.7</ele>
        <time>2021-05-19T13:36:47Z</time>
      </trkpt>
      <trkpt lat="42.1142540" lon="-8.8627090">
        <ele>88.7</ele>
        <time>2021-05-19T13:36:48Z</time>
      </trkpt>
      <trkpt lat="42.1142600" lon="-8.8626980">
        <ele>88.6</ele>
        <time>2021-05-19T13:36:49Z</time>
      </trkpt>
      <trkpt lat="42.1142710" lon="-8.8626910">
        <ele>88.6</ele>
        <time>2021-05-19T13:36:50Z</time>
      </trkpt>
      <trkpt lat="42.1142880" lon="-8.8626780">
        <ele>88.5</ele>
        <time>2021-05-19T13:36:51Z</time>
      </trkpt>
      <trkpt lat="42.1142950" lon="-8.8626720">
        <ele>88.5</ele>
        <time>2021-05-19T13:36:52Z</time>
      </trkpt>
      <trkpt lat="42.1143030" lon="-8.8626600">
        <ele>88.5</ele>
        <time>2021-05-19T13:36:53Z</time>
      </trkpt>
      <trkpt lat="42.1143120" lon="-8.8626490">
        <ele>88.4</ele>
        <time>2021-05-19T13:36:54Z</time>
      </trkpt>
      <trkpt lat="42.1143270" lon="-8.8626350">
        <ele>88.4</ele>
        <time>2021-05-19T13:36:55Z</time>
      </trkpt>
      <trkpt lat="42.1143290" lon="-8.8626270">
        <ele>88.4</ele>
        <time>2021-05-19T13:36:56Z</time>
      </trkpt>
      <trkpt lat="42.1143400" lon="-8.8626200">
        <ele>88.3</ele>
        <time>2021-05-19T13:36:57Z</time>
      </trkpt>
      <trkpt lat="42.1143560" lon="-8.8626070">
        <ele>88.3</ele>
        <time>2021-05-19T13:36:58Z</time>
      </trkpt>
      <trkpt lat="42.1143690" lon="-8.8625990">
        <ele>88.2</ele>
        <time>2021-05-19T13:36:59Z</time>
      </trkpt>
      <trkpt lat="42.1143770" lon="-8.8625890">
        <ele>88.2</ele>
        <time>2021-05-19T13:37:00Z</time>
      </trkpt>
      <trkpt lat="42.1143870" lon="-8.8625790">
        <ele>88.2</ele>
        <time>2021-05-19T13:37:01Z</time>
      </trkpt>
      <trkpt lat="42.1143870" lon="-8.8625680">
        <ele>88.1</ele>
        <time>2021-05-19T13:37:02Z</time>
      </trkpt>
      <trkpt lat="42.1144000" lon="-8.8625570">
        <ele>88.1</ele>
        <time>2021-05-19T13:37:03Z</time>
      </trkpt>
      <trkpt lat="42.1144120" lon="-8.8625440">
        <ele>88.0</ele>
        <time>2021-05-19T13:37:04Z</time>
      </trkpt>
      <trkpt lat="42.1144240" lon="-8.8625330">
        <ele>88.0</ele>
        <time>2021-05-19T13:37:05Z</time>
      </trkpt>
      <trkpt lat="42.1144300" lon="-8.8625250">
        <ele>88.0</ele>
        <time>2021-05-19T13:37:06Z</time>
      </trkpt>
      <trkpt lat="42.1144320" lon="-8.8625120">
        <ele>88.0</ele>
        <time>2021-05-19T13:37:07Z</time>
      </trkpt>
      <trkpt lat="42.1144410" lon="-8.8625050">
        <ele>87.9</ele>
        <time>2021-05-19T13:37:08Z</time>
      </trkpt>
      <trkpt lat="42.1144540" lon="-8.8624970">
        <ele>87.9</ele>
        <time>2021-05-19T13:37:09Z</time>
      </trkpt>
      <trkpt lat="42.1144600" lon="-8.8624840">
        <ele>87.9</ele>
        <time>2021-05-19T13:37:10Z</time>
      </trkpt>
      <trkpt lat="42.1144770" lon="-8.8624680">
        <ele>87.8</ele>
        <time>2021-05-19T13:37:11Z</time>
      </trkpt>
      <trkpt lat="42.1144890" lon="-8.8624590">
        <ele>87.8</ele>
        <time>2021-05-19T13:37:12Z</time>
      </trkpt>
      <trkpt lat="42.1144980" lon="-8.8624540">
        <ele>87.7</ele>
        <time>2021-05-19T13:37:13Z</time>
      </trkpt>
      <trkpt lat="42.1145190" lon="-8.8624390">
        <ele>87.7</ele>
        <time>2021-05-19T13:37:14Z</time>
      </trkpt>
      <trkpt lat="42.1145330" lon="-8.8624240">
        <ele>87.7</ele>
        <time>2021-05-19T13:37:15Z</time>
      </trkpt>
      <trkpt lat="42.1145480" lon="-8.8624110">
        <ele>87.6</ele>
        <time>2021-05-19T13:37:16Z</time>
      </trkpt>
      <trkpt lat="42.1145610" lon="-8.8623990">
        <ele>87.6</ele>
        <time>2021-05-19T13:37:17Z</time>
      </trkpt>
      <trkpt lat="42.1145640" lon="-8.8623800">
        <ele>87.5</ele>
        <time>2021-05-19T13:37:18Z</time>
      </trkpt>
      <trkpt lat="42.1145830" lon="-8.8623630">
        <ele>87.5</ele>
        <time>2021-05-19T13:37:19Z</time>
      </trkpt>
      <trkpt lat="42.1145910" lon="-8.8623580">
        <ele>87.5</ele>
        <time>2021-05-19T13:37:20Z</time>
      </trkpt>
      <trkpt lat="42.1145990" lon="-8.8623520">
        <ele>87.4</ele>
        <time>2021-05-19T13:37:21Z</time>
      </trkpt>
      <trkpt lat="42.1146120" lon="-8.8623440">
        <ele>87.4</ele>
        <time>2021-05-19T13:37:22Z</time>
      </trkpt>
      <trkpt lat="42.1146280" lon="-8.8623320">
        <ele>87.4</ele>
        <time>2021-05-19T13:37:23Z</time>
      </trkpt>
      <trkpt lat="42.1146480" lon="-8.8623130">
        <ele>87.3</ele>
        <time>2021-05-19T13:37:24Z</time>
      </trkpt>
      <trkpt lat="42.1146540" lon="-8.8623060">
        <ele>87.3</ele>
        <time>2021-05-19T13:37:25Z</time>
      </trkpt>
      <trkpt lat="42.1146610" lon="-8.8622980">
        <ele>87.3</ele>
        <time>2021-05-19T13:37:26Z</time>
      </trkpt>
      <trkpt lat="42.1146750" lon="-8.8622850">
        <ele>87.2</ele>
        <time>2021-05-19T13:37:27Z</time>
      </trkpt>
      <trkpt lat="42.1146890" lon="-8.8622800">
        <ele>87.2</ele>
        <time>2021-05-19T13:37:28Z</time>
      </trkpt>
      <trkpt lat="42.1146990" lon="-8.8622720">
        <ele>87.2</ele>
        <time>2021-05-19T13:37:29Z</time>
      </trkpt>
      <trkpt lat="42.1147120" lon="-8.8622540">
        <ele>87.1</ele>
        <time>2021-05-19T13:37:30Z</time>
      </trkpt>
      <trkpt lat="42.1147230" lon="-8.8622430">
        <ele>87.1</ele>
        <time>2021-05-19T13:37:31Z</time>
      </trkpt>
      <trkpt lat="42.1147340" lon="-8.8622270">
        <ele>87.1</ele>
        <time>2021-05-19T13:37:32Z</time>
      </trkpt>
      <trkpt lat="42.1147450" lon="-8.8622150">
        <ele>87.1</ele>
        <time>2021-05-19T13:37:33Z</time>
      </trkpt>
      <trkpt lat="42.1147530" lon="-8.8621970">
        <ele>87.0</ele>
        <time>2021-05-19T13:37:34Z</time>
      </trkpt>
      <trkpt lat="42.1147620" lon="-8.8621830">
        <ele>87.0</ele>
        <time>2021-05-19T13:37:35Z</time>
      </trkpt>
      <trkpt lat="42.1147670" lon="-8.8621650">
        <ele>87.0</ele>
        <time>2021-05-19T13:37:36Z</time>
      </trkpt>
      <trkpt lat="42.1147690" lon="-8.8621560">
        <ele>87.0</ele>
        <time>2021-05-19T13:37:37Z</time>
      </trkpt>
      <trkpt lat="42.1147750" lon="-8.8621500">
        <ele>86.9</ele>
        <time>2021-05-19T13:37:38Z</time>
      </trkpt>
      <trkpt lat="42.1147880" lon="-8.8621350">
        <ele>86.9</ele>
        <time>2021-05-19T13:37:39Z</time>
      </trkpt>
      <trkpt lat="42.1148070" lon="-8.8621200">
        <ele>86.9</ele>
        <time>2021-05-19T13:37:40Z</time>
      </trkpt>
      <trkpt lat="42.1148120" lon="-8.8621140">
        <ele>86.9</ele>
        <time>2021-05-19T13:37:41Z</time>
      </trkpt>
      <trkpt lat="42.1148180" lon="-8.8621080">
        <ele>86.9</ele>
        <time>2021-05-19T13:37:42Z</time>
      </trkpt>
      <trkpt lat="42.1148390" lon="-8.8621020">
        <ele>86.8</ele>
        <time>2021-05-19T13:37:43Z</time>
      </trkpt>
      <trkpt lat="42.1148470" lon="-8.8621010">
        <ele>86.8</ele>
        <time>2021-05-19T13:37:44Z</time>
      </trkpt>
      <trkpt lat="42.1148550" lon="-8.8621000">
        <ele>86.8</ele>
        <time>2021-05-19T13:37:45Z</time>
      </trkpt>
      <trkpt lat="42.1148620" lon="-8.8620980">
        <ele>86.8</ele>
        <time>2021-05-19T13:37:46Z</time>
      </trkpt>
      <trkpt lat="42.1148660" lon="-8.8620950">
        <ele>86.8</ele>
        <time>2021-05-19T13:37:47Z</time>
      </trkpt>
      <trkpt lat="42.1148790" lon="-8.8620840">
        <ele>86.8</ele>
        <time>2021-05-19T13:37:48Z</time>
      </trkpt>
      <trkpt lat="42.1148840" lon="-8.8620720">
        <ele>86.8</ele>
        <time>2021-05-19T13:37:49Z</time>
      </trkpt>
      <trkpt lat="42.1148930" lon="-8.8620630">
        <ele>86.8</ele>
        <time>2021-05-19T13:37:50Z</time>
      </trkpt>
      <trkpt lat="42.1149010" lon="-8.8620500">
        <ele>86.4</ele>
        <time>2021-05-19T13:37:51Z</time>
      </trkpt>
      <trkpt lat="42.1149080" lon="-8.8620440">
        <ele>86.3</ele>
        <time>2021-05-19T13:37:52Z</time>
      </trkpt>
      <trkpt lat="42.1149260" lon="-8.8620250">
        <ele>86.2</ele>
        <time>2021-05-19T13:37:53Z</time>
      </trkpt>
      <trkpt lat="42.1149330" lon="-8.8620180">
        <ele>86.1</ele>
        <time>2021-05-19T13:37:54Z</time>
      </trkpt>
      <trkpt lat="42.1149390" lon="-8.8620110">
        <ele>86.0</ele>
        <time>2021-05-19T13:37:55Z</time>
      </trkpt>
      <trkpt lat="42.1149440" lon="-8.8619980">
        <ele>86.0</ele>
        <time>2021-05-19T13:37:56Z</time>
      </trkpt>
      <trkpt lat="42.1149460" lon="-8.8619850">
        <ele>85.9</ele>
        <time>2021-05-19T13:37:57Z</time>
      </trkpt>
      <trkpt lat="42.1149510" lon="-8.8619710">
        <ele>85.8</ele>
        <time>2021-05-19T13:37:58Z</time>
      </trkpt>
      <trkpt lat="42.1149530" lon="-8.8619580">
        <ele>85.7</ele>
        <time>2021-05-19T13:37:59Z</time>
      </trkpt>
      <trkpt lat="42.1149560" lon="-8.8619470">
        <ele>85.7</ele>
        <time>2021-05-19T13:38:00Z</time>
      </trkpt>
      <trkpt lat="42.1149650" lon="-8.8619340">
        <ele>85.6</ele>
        <time>2021-05-19T13:38:01Z</time>
      </trkpt>
      <trkpt lat="42.1149670" lon="-8.8619250">
        <ele>85.5</ele>
        <time>2021-05-19T13:38:02Z</time>
      </trkpt>
      <trkpt lat="42.1149710" lon="-8.8619060">
        <ele>85.4</ele>
        <time>2021-05-19T13:38:03Z</time>
      </trkpt>
      <trkpt lat="42.1149740" lon="-8.8618910">
        <ele>85.3</ele>
        <time>2021-05-19T13:38:04Z</time>
      </trkpt>
      <trkpt lat="42.1149810" lon="-8.8618690">
        <ele>85.2</ele>
        <time>2021-05-19T13:38:05Z</time>
      </trkpt>
      <trkpt lat="42.1149860" lon="-8.8618580">
        <ele>85.1</ele>
        <time>2021-05-19T13:38:06Z</time>
      </trkpt>
      <trkpt lat="42.1149920" lon="-8.8618480">
        <ele>85.1</ele>
        <time>2021-05-19T13:38:07Z</time>
      </trkpt>
      <trkpt lat="42.1149990" lon="-8.8618390">
        <ele>85.0</ele>
        <time>2021-05-19T13:38:08Z</time>
      </trkpt>
      <trkpt lat="42.1150020" lon="-8.8618310">
        <ele>85.0</ele>
        <time>2021-05-19T13:38:09Z</time>
      </trkpt>
      <trkpt lat="42.1150110" lon="-8.8618140">
        <ele>84.9</ele>
        <time>2021-05-19T13:38:10Z</time>
      </trkpt>
      <trkpt lat="42.1150110" lon="-8.8618050">
        <ele>84.8</ele>
        <time>2021-05-19T13:38:11Z</time>
      </trkpt>
      <trkpt lat="42.1150140" lon="-8.8618030">
        <ele>84.8</ele>
        <time>2021-05-19T13:38:12Z</time>
      </trkpt>
      <trkpt lat="42.1150210" lon="-8.8617950">
        <ele>84.8</ele>
        <time>2021-05-19T13:38:13Z</time>
      </trkpt>
      <trkpt lat="42.1150250" lon="-8.8617810">
        <ele>84.7</ele>
        <time>2021-05-19T13:38:14Z</time>
      </trkpt>
      <trkpt lat="42.1150310" lon="-8.8617690">
        <ele>84.6</ele>
        <time>2021-05-19T13:38:15Z</time>
      </trkpt>
      <trkpt lat="42.1150420" lon="-8.8617500">
        <ele>84.5</ele>
        <time>2021-05-19T13:38:16Z</time>
      </trkpt>
      <trkpt lat="42.1150490" lon="-8.8617270">
        <ele>84.4</ele>
        <time>2021-05-19T13:38:17Z</time>
      </trkpt>
      <trkpt lat="42.1150540" lon="-8.8617150">
        <ele>84.4</ele>
        <time>2021-05-19T13:38:18Z</time>
      </trkpt>
      <trkpt lat="42.1150590" lon="-8.8617040">
        <ele>84.3</ele>
        <time>2021-05-19T13:38:19Z</time>
      </trkpt>
      <trkpt lat="42.1150640" lon="-8.8616750">
        <ele>84.2</ele>
        <time>2021-05-19T13:38:20Z</time>
      </trkpt>
      <trkpt lat="42.1150680" lon="-8.8616640">
        <ele>84.2</ele>
        <time>2021-05-19T13:38:21Z</time>
      </trkpt>
      <trkpt lat="42.1150710" lon="-8.8616530">
        <ele>84.1</ele>
        <time>2021-05-19T13:38:22Z</time>
      </trkpt>
      <trkpt lat="42.1150720" lon="-8.8616380">
        <ele>84.1</ele>
        <time>2021-05-19T13:38:23Z</time>
      </trkpt>
      <trkpt lat="42.1150780" lon="-8.8616270">
        <ele>84.0</ele>
        <time>2021-05-19T13:38:24Z</time>
      </trkpt>
      <trkpt lat="42.1150870" lon="-8.8616100">
        <ele>84.0</ele>
        <time>2021-05-19T13:38:25Z</time>
      </trkpt>
      <trkpt lat="42.1150950" lon="-8.8615860">
        <ele>83.9</ele>
        <time>2021-05-19T13:38:26Z</time>
      </trkpt>
      <trkpt lat="42.1150990" lon="-8.8615730">
        <ele>83.8</ele>
        <time>2021-05-19T13:38:27Z</time>
      </trkpt>
      <trkpt lat="42.1151040" lon="-8.8615610">
        <ele>83.8</ele>
        <time>2021-05-19T13:38:28Z</time>
      </trkpt>
      <trkpt lat="42.1151090" lon="-8.8615490">
        <ele>83.7</ele>
        <time>2021-05-19T13:38:29Z</time>
      </trkpt>
      <trkpt lat="42.1151140" lon="-8.8615390">
        <ele>83.7</ele>
        <time>2021-05-19T13:38:30Z</time>
      </trkpt>
      <trkpt lat="42.1151160" lon="-8.8615190">
        <ele>83.7</ele>
        <time>2021-05-19T13:38:31Z</time>
      </trkpt>
      <trkpt lat="42.1151220" lon="-8.8615010">
        <ele>83.7</ele>
        <time>2021-05-19T13:38:32Z</time>
      </trkpt>
      <trkpt lat="42.1151250" lon="-8.8614850">
        <ele>83.7</ele>
        <time>2021-05-19T13:38:33Z</time>
      </trkpt>
      <trkpt lat="42.1151260" lon="-8.8614700">
        <ele>83.6</ele>
        <time>2021-05-19T13:38:34Z</time>
      </trkpt>
      <trkpt lat="42.1151330" lon="-8.8614600">
        <ele>83.6</ele>
        <time>2021-05-19T13:38:35Z</time>
      </trkpt>
      <trkpt lat="42.1151270" lon="-8.8614370">
        <ele>83.6</ele>
        <time>2021-05-19T13:38:36Z</time>
      </trkpt>
      <trkpt lat="42.1151270" lon="-8.8614310">
        <ele>83.6</ele>
        <time>2021-05-19T13:38:37Z</time>
      </trkpt>
      <trkpt lat="42.1151350" lon="-8.8614110">
        <ele>83.6</ele>
        <time>2021-05-19T13:38:38Z</time>
      </trkpt>
      <trkpt lat="42.1151410" lon="-8.8613950">
        <ele>83.5</ele>
        <time>2021-05-19T13:38:39Z</time>
      </trkpt>
      <trkpt lat="42.1151460" lon="-8.8613830">
        <ele>83.5</ele>
        <time>2021-05-19T13:38:40Z</time>
      </trkpt>
      <trkpt lat="42.1151520" lon="-8.8613620">
        <ele>83.5</ele>
        <time>2021-05-19T13:38:41Z</time>
      </trkpt>
      <trkpt lat="42.1151660" lon="-8.8613370">
        <ele>83.5</ele>
        <time>2021-05-19T13:38:42Z</time>
      </trkpt>
      <trkpt lat="42.1151690" lon="-8.8613250">
        <ele>83.5</ele>
        <time>2021-05-19T13:38:43Z</time>
      </trkpt>
      <trkpt lat="42.1151730" lon="-8.8613120">
        <ele>83.5</ele>
        <time>2021-05-19T13:38:44Z</time>
      </trkpt>
      <trkpt lat="42.1151760" lon="-8.8612980">
        <ele>83.5</ele>
        <time>2021-05-19T13:38:45Z</time>
      </trkpt>
      <trkpt lat="42.1151860" lon="-8.8612840">
        <ele>83.5</ele>
        <time>2021-05-19T13:38:46Z</time>
      </trkpt>
      <trkpt lat="42.1151910" lon="-8.8612730">
        <ele>83.5</ele>
        <time>2021-05-19T13:38:47Z</time>
      </trkpt>
      <trkpt lat="42.1151940" lon="-8.8612620">
        <ele>83.5</ele>
        <time>2021-05-19T13:38:48Z</time>
      </trkpt>
      <trkpt lat="42.1151970" lon="-8.8612580">
        <ele>83.5</ele>
        <time>2021-05-19T13:38:49Z</time>
      </trkpt>
      <trkpt lat="42.1152130" lon="-8.8612490">
        <ele>83.5</ele>
        <time>2021-05-19T13:38:50Z</time>
      </trkpt>
      <trkpt lat="42.1152150" lon="-8.8612270">
        <ele>83.5</ele>
        <time>2021-05-19T13:38:51Z</time>
      </trkpt>
      <trkpt lat="42.1152150" lon="-8.8612090">
        <ele>83.5</ele>
        <time>2021-05-19T13:38:52Z</time>
      </trkpt>
      <trkpt lat="42.1152230" lon="-8.8611880">
        <ele>83.5</ele>
        <time>2021-05-19T13:38:53Z</time>
      </trkpt>
      <trkpt lat="42.1152250" lon="-8.8611710">
        <ele>83.5</ele>
        <time>2021-05-19T13:38:54Z</time>
      </trkpt>
      <trkpt lat="42.1152260" lon="-8.8611560">
        <ele>83.6</ele>
        <time>2021-05-19T13:38:55Z</time>
      </trkpt>
      <trkpt lat="42.1152290" lon="-8.8611440">
        <ele>83.6</ele>
        <time>2021-05-19T13:38:56Z</time>
      </trkpt>
      <trkpt lat="42.1152350" lon="-8.8611280">
        <ele>83.6</ele>
        <time>2021-05-19T13:38:57Z</time>
      </trkpt>
      <trkpt lat="42.1152380" lon="-8.8611160">
        <ele>83.6</ele>
        <time>2021-05-19T13:38:58Z</time>
      </trkpt>
      <trkpt lat="42.1152420" lon="-8.8611010">
        <ele>83.6</ele>
        <time>2021-05-19T13:38:59Z</time>
      </trkpt>
      <trkpt lat="42.1152400" lon="-8.8610940">
        <ele>83.6</ele>
        <time>2021-05-19T13:39:00Z</time>
      </trkpt>
      <trkpt lat="42.1152410" lon="-8.8610810">
        <ele>83.6</ele>
        <time>2021-05-19T13:39:01Z</time>
      </trkpt>
      <trkpt lat="42.1152450" lon="-8.8610620">
        <ele>83.7</ele>
        <time>2021-05-19T13:39:02Z</time>
      </trkpt>
      <trkpt lat="42.1152480" lon="-8.8610430">
        <ele>83.7</ele>
        <time>2021-05-19T13:39:03Z</time>
      </trkpt>
      <trkpt lat="42.1152500" lon="-8.8610300">
        <ele>83.7</ele>
        <time>2021-05-19T13:39:04Z</time>
      </trkpt>
      <trkpt lat="42.1152480" lon="-8.8610190">
        <ele>83.7</ele>
        <time>2021-05-19T13:39:05Z</time>
      </trkpt>
      <trkpt lat="42.1152480" lon="-8.8609990">
        <ele>83.8</ele>
        <time>2021-05-19T13:39:06Z</time>
      </trkpt>
      <trkpt lat="42.1152500" lon="-8.8609770">
        <ele>83.8</ele>
        <time>2021-05-19T13:39:07Z</time>
      </trkpt>
      <trkpt lat="42.1152520" lon="-8.8609670">
        <ele>83.8</ele>
        <time>2021-05-19T13:39:08Z</time>
      </trkpt>
      <trkpt lat="42.1152540" lon="-8.8609560">
        <ele>83.8</ele>
        <time>2021-05-19T13:39:09Z</time>
      </trkpt>
      <trkpt lat="42.1152560" lon="-8.8609450">
        <ele>83.9</ele>
        <time>2021-05-19T13:39:10Z</time>
      </trkpt>
      <trkpt lat="42.1152520" lon="-8.8609150">
        <ele>83.9</ele>
        <time>2021-05-19T13:39:11Z</time>
      </trkpt>
      <trkpt lat="42.1152500" lon="-8.8609030">
        <ele>83.9</ele>
        <time>2021-05-19T13:39:12Z</time>
      </trkpt>
      <trkpt lat="42.1152480" lon="-8.8608920">
        <ele>84.0</ele>
        <time>2021-05-19T13:39:13Z</time>
      </trkpt>
      <trkpt lat="42.1152530" lon="-8.8608880">
        <ele>84.0</ele>
        <time>2021-05-19T13:39:14Z</time>
      </trkpt>
      <trkpt lat="42.1152510" lon="-8.8608710">
        <ele>84.0</ele>
        <time>2021-05-19T13:39:15Z</time>
      </trkpt>
      <trkpt lat="42.1152510" lon="-8.8608540">
        <ele>84.0</ele>
        <time>2021-05-19T13:39:16Z</time>
      </trkpt>
      <trkpt lat="42.1152480" lon="-8.8608380">
        <ele>84.1</ele>
        <time>2021-05-19T13:39:17Z</time>
      </trkpt>
      <trkpt lat="42.1152480" lon="-8.8608130">
        <ele>84.1</ele>
        <time>2021-05-19T13:39:18Z</time>
      </trkpt>
      <trkpt lat="42.1152470" lon="-8.8607920">
        <ele>84.2</ele>
        <time>2021-05-19T13:39:19Z</time>
      </trkpt>
      <trkpt lat="42.1152460" lon="-8.8607820">
        <ele>84.2</ele>
        <time>2021-05-19T13:39:20Z</time>
      </trkpt>
      <trkpt lat="42.1152440" lon="-8.8607720">
        <ele>84.2</ele>
        <time>2021-05-19T13:39:21Z</time>
      </trkpt>
      <trkpt lat="42.1152430" lon="-8.8607620">
        <ele>84.2</ele>
        <time>2021-05-19T13:39:22Z</time>
      </trkpt>
      <trkpt lat="42.1152410" lon="-8.8607480">
        <ele>84.3</ele>
        <time>2021-05-19T13:39:23Z</time>
      </trkpt>
      <trkpt lat="42.1152360" lon="-8.8607290">
        <ele>84.3</ele>
        <time>2021-05-19T13:39:24Z</time>
      </trkpt>
      <trkpt lat="42.1152310" lon="-8.8607230">
        <ele>84.3</ele>
        <time>2021-05-19T13:39:25Z</time>
      </trkpt>
      <trkpt lat="42.1152290" lon="-8.8607080">
        <ele>84.4</ele>
        <time>2021-05-19T13:39:26Z</time>
      </trkpt>
      <trkpt lat="42.1152230" lon="-8.8606960">
        <ele>84.4</ele>
        <time>2021-05-19T13:39:27Z</time>
      </trkpt>
      <trkpt lat="42.1152170" lon="-8.8606790">
        <ele>84.5</ele>
        <time>2021-05-19T13:39:28Z</time>
      </trkpt>
      <trkpt lat="42.1152080" lon="-8.8606640">
        <ele>84.5</ele>
        <time>2021-05-19T13:39:29Z</time>
      </trkpt>
      <trkpt lat="42.1151950" lon="-8.8606530">
        <ele>84.5</ele>
        <time>2021-05-19T13:39:30Z</time>
      </trkpt>
      <trkpt lat="42.1151840" lon="-8.8606450">
        <ele>84.6</ele>
        <time>2021-05-19T13:39:31Z</time>
      </trkpt>
      <trkpt lat="42.1151780" lon="-8.8606350">
        <ele>84.6</ele>
        <time>2021-05-19T13:39:32Z</time>
      </trkpt>
      <trkpt lat="42.1151700" lon="-8.8606280">
        <ele>84.6</ele>
        <time>2021-05-19T13:39:33Z</time>
      </trkpt>
      <trkpt lat="42.1151650" lon="-8.8606210">
        <ele>84.7</ele>
        <time>2021-05-19T13:39:34Z</time>
      </trkpt>
      <trkpt lat="42.1151590" lon="-8.8606160">
        <ele>84.7</ele>
        <time>2021-05-19T13:39:35Z</time>
      </trkpt>
      <trkpt lat="42.1151510" lon="-8.8606070">
        <ele>84.7</ele>
        <time>2021-05-19T13:39:36Z</time>
      </trkpt>
      <trkpt lat="42.1151490" lon="-8.8605930">
        <ele>84.8</ele>
        <time>2021-05-19T13:39:37Z</time>
      </trkpt>
      <trkpt lat="42.1151520" lon="-8.8606040">
        <ele>84.8</ele>
        <time>2021-05-19T13:39:38Z</time>
      </trkpt>
      <trkpt lat="42.1151550" lon="-8.8606070">
        <ele>84.8</ele>
        <time>2021-05-19T13:39:39Z</time>
      </trkpt>
      <trkpt lat="42.1151580" lon="-8.8606050">
        <ele>84.8</ele>
        <time>2021-05-19T13:39:40Z</time>
      </trkpt>
      <trkpt lat="42.1151600" lon="-8.8606040">
        <ele>84.8</ele>
        <time>2021-05-19T13:39:41Z</time>
      </trkpt>
      <trkpt lat="42.1151610" lon="-8.8606040">
        <ele>84.8</ele>
        <time>2021-05-19T13:39:42Z</time>
      </trkpt>
      <trkpt lat="42.1151620" lon="-8.8606020">
        <ele>84.8</ele>
        <time>2021-05-19T13:39:43Z</time>
      </trkpt>
      <trkpt lat="42.1151630" lon="-8.8606040">
        <ele>84.8</ele>
        <time>2021-05-19T13:39:44Z</time>
      </trkpt>
      <trkpt lat="42.1151630" lon="-8.8606030">
        <ele>84.8</ele>
        <time>2021-05-19T13:39:45Z</time>
      </trkpt>
      <trkpt lat="42.1151620" lon="-8.8606030">
        <ele>84.8</ele>
        <time>2021-05-19T13:39:46Z</time>
      </trkpt>
      <trkpt lat="42.1151610" lon="-8.8606030">
        <ele>84.9</ele>
        <time>2021-05-19T13:39:47Z</time>
      </trkpt>
      <trkpt lat="42.1151620" lon="-8.8606040">
        <ele>84.9</ele>
        <time>2021-05-19T13:39:48Z</time>
      </trkpt>
      <trkpt lat="42.1151640" lon="-8.8606040">
        <ele>84.9</ele>
        <time>2021-05-19T13:39:49Z</time>
      </trkpt>
      <trkpt lat="42.1151640" lon="-8.8606030">
        <ele>84.9</ele>
        <time>2021-05-19T13:39:50Z</time>
      </trkpt>
      <trkpt lat="42.1151650" lon="-8.8606040">
        <ele>84.9</ele>
        <time>2021-05-19T13:39:51Z</time>
      </trkpt>
      <trkpt lat="42.1151650" lon="-8.8605980">
        <ele>84.9</ele>
        <time>2021-05-19T13:39:52Z</time>
      </trkpt>
      <trkpt lat="42.1151630" lon="-8.8605920">
        <ele>84.9</ele>
        <time>2021-05-19T13:39:53Z</time>
      </trkpt>
      <trkpt lat="42.1151650" lon="-8.8605910">
        <ele>84.9</ele>
        <time>2021-05-19T13:39:54Z</time>
      </trkpt>
      <trkpt lat="42.1151650" lon="-8.8605900">
        <ele>84.9</ele>
        <time>2021-05-19T13:39:55Z</time>
      </trkpt>
      <trkpt lat="42.1151590" lon="-8.8605930">
        <ele>84.9</ele>
        <time>2021-05-19T13:39:56Z</time>
      </trkpt>
      <trkpt lat="42.1151600" lon="-8.8605930">
        <ele>84.9</ele>
        <time>2021-05-19T13:39:57Z</time>
      </trkpt>
      <trkpt lat="42.1151580" lon="-8.8605960">
        <ele>84.9</ele>
        <time>2021-05-19T13:39:58Z</time>
      </trkpt>
      <trkpt lat="42.1151590" lon="-8.8605980">
        <ele>85.0</ele>
        <time>2021-05-19T13:39:59Z</time>
      </trkpt>
      <trkpt lat="42.1151610" lon="-8.8605980">
        <ele>85.0</ele>
        <time>2021-05-19T13:40:00Z</time>
      </trkpt>
      <trkpt lat="42.1151650" lon="-8.8605960">
        <ele>85.0</ele>
        <time>2021-05-19T13:40:01Z</time>
      </trkpt>
      <trkpt lat="42.1151680" lon="-8.8605940">
        <ele>85.0</ele>
        <time>2021-05-19T13:40:02Z</time>
      </trkpt>
      <trkpt lat="42.1151700" lon="-8.8605920">
        <ele>85.0</ele>
        <time>2021-05-19T13:40:03Z</time>
      </trkpt>
      <trkpt lat="42.1151700" lon="-8.8605920">
        <ele>85.0</ele>
        <time>2021-05-19T13:40:04Z</time>
      </trkpt>
      <trkpt lat="42.1151700" lon="-8.8605920">
        <ele>85.0</ele>
        <time>2021-05-19T13:40:05Z</time>
      </trkpt>
      <trkpt lat="42.1151660" lon="-8.8605930">
        <ele>85.0</ele>
        <time>2021-05-19T13:40:06Z</time>
      </trkpt>
      <trkpt lat="42.1151660" lon="-8.8605910">
        <ele>85.0</ele>
        <time>2021-05-19T13:40:07Z</time>
      </trkpt>
      <trkpt lat="42.1151680" lon="-8.8605910">
        <ele>85.0</ele>
        <time>2021-05-19T13:40:08Z</time>
      </trkpt>
      <trkpt lat="42.1151700" lon="-8.8605910">
        <ele>85.0</ele>
        <time>2021-05-19T13:40:09Z</time>
      </trkpt>
      <trkpt lat="42.1151710" lon="-8.8605920">
        <ele>85.0</ele>
        <time>2021-05-19T13:40:10Z</time>
      </trkpt>
      <trkpt lat="42.1151700" lon="-8.8605950">
        <ele>85.0</ele>
        <time>2021-05-19T13:40:11Z</time>
      </trkpt>
      <trkpt lat="42.1151700" lon="-8.8605970">
        <ele>85.0</ele>
        <time>2021-05-19T13:40:12Z</time>
      </trkpt>
      <trkpt lat="42.1151690" lon="-8.8606010">
        <ele>85.1</ele>
        <time>2021-05-19T13:40:13Z</time>
      </trkpt>
      <trkpt lat="42.1151700" lon="-8.8606010">
        <ele>85.1</ele>
        <time>2021-05-19T13:40:14Z</time>
      </trkpt>
      <trkpt lat="42.1151700" lon="-8.8606030">
        <ele>85.1</ele>
        <time>2021-05-19T13:40:15Z</time>
      </trkpt>
      <trkpt lat="42.1151710" lon="-8.8606040">
        <ele>85.1</ele>
        <time>2021-05-19T13:40:16Z</time>
      </trkpt>
      <trkpt lat="42.1151730" lon="-8.8606030">
        <ele>85.1</ele>
        <time>2021-05-19T13:40:17Z</time>
      </trkpt>
      <trkpt lat="42.1151750" lon="-8.8606020">
        <ele>85.1</ele>
        <time>2021-05-19T13:40:18Z</time>
      </trkpt>
      <trkpt lat="42.1151750" lon="-8.8606010">
        <ele>85.1</ele>
        <time>2021-05-19T13:40:19Z</time>
      </trkpt>
      <trkpt lat="42.1151740" lon="-8.8606000">
        <ele>85.1</ele>
        <time>2021-05-19T13:40:20Z</time>
      </trkpt>
      <trkpt lat="42.1151740" lon="-8.8605980">
        <ele>85.1</ele>
        <time>2021-05-19T13:40:21Z</time>
      </trkpt>
      <trkpt lat="42.1151740" lon="-8.8605970">
        <ele>85.1</ele>
        <time>2021-05-19T13:40:22Z</time>
      </trkpt>
      <trkpt lat="42.1151730" lon="-8.8605960">
        <ele>85.1</ele>
        <time>2021-05-19T13:40:23Z</time>
      </trkpt>
      <trkpt lat="42.1151730" lon="-8.8605950">
        <ele>85.1</ele>
        <time>2021-05-19T13:40:24Z</time>
      </trkpt>
      <trkpt lat="42.1151720" lon="-8.8605940">
        <ele>85.1</ele>
        <time>2021-05-19T13:40:25Z</time>
      </trkpt>
      <trkpt lat="42.1151720" lon="-8.8605930">
        <ele>85.1</ele>
        <time>2021-05-19T13:40:26Z</time>
      </trkpt>
      <trkpt lat="42.1151720" lon="-8.8605910">
        <ele>85.1</ele>
        <time>2021-05-19T13:40:27Z</time>
      </trkpt>
      <trkpt lat="42.1151710" lon="-8.8605900">
        <ele>85.1</ele>
        <time>2021-05-19T13:40:28Z</time>
      </trkpt>
      <trkpt lat="42.1151710" lon="-8.8605890">
        <ele>85.1</ele>
        <time>2021-05-19T13:40:29Z</time>
      </trkpt>
      <trkpt lat="42.1151710" lon="-8.8605880">
        <ele>85.1</ele>
        <time>2021-05-19T13:40:30Z</time>
      </trkpt>
      <trkpt lat="42.1151700" lon="-8.8605870">
        <ele>85.1</ele>
        <time>2021-05-19T13:40:31Z</time>
      </trkpt>
      <trkpt lat="42.1151700" lon="-8.8605860">
        <ele>85.1</ele>
        <time>2021-05-19T13:40:32Z</time>
      </trkpt>
      <trkpt lat="42.1151690" lon="-8.8605840">
        <ele>85.1</ele>
        <time>2021-05-19T13:40:33Z</time>
      </trkpt>
      <trkpt lat="42.1151690" lon="-8.8605830">
        <ele>85.1</ele>
        <time>2021-05-19T13:40:34Z</time>
      </trkpt>
      <trkpt lat="42.1151690" lon="-8.8605820">
        <ele>85.2</ele>
        <time>2021-05-19T13:40:35Z</time>
      </trkpt>
      <trkpt lat="42.1151680" lon="-8.8605810">
        <ele>85.2</ele>
        <time>2021-05-19T13:40:36Z</time>
      </trkpt>
      <trkpt lat="42.1151680" lon="-8.8605800">
        <ele>85.2</ele>
        <time>2021-05-19T13:40:37Z</time>
      </trkpt>
      <trkpt lat="42.1151680" lon="-8.8605780">
        <ele>85.2</ele>
        <time>2021-05-19T13:40:38Z</time>
      </trkpt>
      <trkpt lat="42.1151670" lon="-8.8605770">
        <ele>85.2</ele>
        <time>2021-05-19T13:40:39Z</time>
      </trkpt>
      <trkpt lat="42.1151670" lon="-8.8605760">
        <ele>85.2</ele>
        <time>2021-05-19T13:40:40Z</time>
      </trkpt>
      <trkpt lat="42.1151660" lon="-8.8605750">
        <ele>85.2</ele>
        <time>2021-05-19T13:40:41Z</time>
      </trkpt>
      <trkpt lat="42.1151660" lon="-8.8605740">
        <ele>85.2</ele>
        <time>2021-05-19T13:40:42Z</time>
      </trkpt>
      <trkpt lat="42.1151660" lon="-8.8605730">
        <ele>85.2</ele>
        <time>2021-05-19T13:40:43Z</time>
      </trkpt>
      <trkpt lat="42.1151650" lon="-8.8605710">
        <ele>85.2</ele>
        <time>2021-05-19T13:40:44Z</time>
      </trkpt>
      <trkpt lat="42.1151650" lon="-8.8605700">
        <ele>85.2</ele>
        <time>2021-05-19T13:40:45Z</time>
      </trkpt>
      <trkpt lat="42.1151650" lon="-8.8605690">
        <ele>85.2</ele>
        <time>2021-05-19T13:40:46Z</time>
      </trkpt>
      <trkpt lat="42.1151640" lon="-8.8605680">
        <ele>85.2</ele>
        <time>2021-05-19T13:40:47Z</time>
      </trkpt>
      <trkpt lat="42.1151640" lon="-8.8605670">
        <ele>85.2</ele>
        <time>2021-05-19T13:40:48Z</time>
      </trkpt>
      <trkpt lat="42.1151630" lon="-8.8605660">
        <ele>85.2</ele>
        <time>2021-05-19T13:40:49Z</time>
      </trkpt>
      <trkpt lat="42.1151630" lon="-8.8605640">
        <ele>85.2</ele>
        <time>2021-05-19T13:40:50Z</time>
      </trkpt>
      <trkpt lat="42.1151630" lon="-8.8605630">
        <ele>85.2</ele>
        <time>2021-05-19T13:40:51Z</time>
      </trkpt>
      <trkpt lat="42.1151620" lon="-8.8605620">
        <ele>85.2</ele>
        <time>2021-05-19T13:40:52Z</time>
      </trkpt>
      <trkpt lat="42.1151620" lon="-8.8605610">
        <ele>85.2</ele>
        <time>2021-05-19T13:40:53Z</time>
      </trkpt>
      <trkpt lat="42.1151620" lon="-8.8605600">
        <ele>85.2</ele>
        <time>2021-05-19T13:40:54Z</time>
      </trkpt>
      <trkpt lat="42.1151610" lon="-8.8605590">
        <ele>85.2</ele>
        <time>2021-05-19T13:40:55Z</time>
      </trkpt>
      <trkpt lat="42.1151610" lon="-8.8605570">
        <ele>85.2</ele>
        <time>2021-05-19T13:40:56Z</time>
      </trkpt>
      <trkpt lat="42.1151600" lon="-8.8605560">
        <ele>85.2</ele>
        <time>2021-05-19T13:40:57Z</time>
      </trkpt>
      <trkpt lat="42.1151600" lon="-8.8605550">
        <ele>85.2</ele>
        <time>2021-05-19T13:40:58Z</time>
      </trkpt>
      <trkpt lat="42.1151600" lon="-8.8605410">
        <ele>85.3</ele>
        <time>2021-05-19T13:40:59Z</time>
      </trkpt>
      <trkpt lat="42.1151590" lon="-8.8605270">
        <ele>85.3</ele>
        <time>2021-05-19T13:41:00Z</time>
      </trkpt>
      <trkpt lat="42.1151560" lon="-8.8605170">
        <ele>85.3</ele>
        <time>2021-05-19T13:41:01Z</time>
      </trkpt>
      <trkpt lat="42.1151520" lon="-8.8605090">
        <ele>85.4</ele>
        <time>2021-05-19T13:41:02Z</time>
      </trkpt>
      <trkpt lat="42.1151480" lon="-8.8605020">
        <ele>85.4</ele>
        <time>2021-05-19T13:41:03Z</time>
      </trkpt>
      <trkpt lat="42.1151440" lon="-8.8604990">
        <ele>85.4</ele>
        <time>2021-05-19T13:41:05Z</time>
      </trkpt>
      <trkpt lat="42.1151410" lon="-8.8604920">
        <ele>85.4</ele>
        <time>2021-05-19T13:41:06Z</time>
      </trkpt>
      <trkpt lat="42.1151360" lon="-8.8604920">
        <ele>85.4</ele>
        <time>2021-05-19T13:41:07Z</time>
      </trkpt>
      <trkpt lat="42.1151350" lon="-8.8604900">
        <ele>85.4</ele>
        <time>2021-05-19T13:41:08Z</time>
      </trkpt>
      <trkpt lat="42.1151340" lon="-8.8604870">
        <ele>85.5</ele>
        <time>2021-05-19T13:41:09Z</time>
      </trkpt>
      <trkpt lat="42.1151330" lon="-8.8604840">
        <ele>85.5</ele>
        <time>2021-05-19T13:41:10Z</time>
      </trkpt>
      <trkpt lat="42.1151300" lon="-8.8604790">
        <ele>85.5</ele>
        <time>2021-05-19T13:41:11Z</time>
      </trkpt>
      <trkpt lat="42.1151220" lon="-8.8604750">
        <ele>85.5</ele>
        <time>2021-05-19T13:41:12Z</time>
      </trkpt>
      <trkpt lat="42.1151130" lon="-8.8604640">
        <ele>85.6</ele>
        <time>2021-05-19T13:41:13Z</time>
      </trkpt>
      <trkpt lat="42.1151050" lon="-8.8604490">
        <ele>85.6</ele>
        <time>2021-05-19T13:41:14Z</time>
      </trkpt>
      <trkpt lat="42.1150950" lon="-8.8604320">
        <ele>85.7</ele>
        <time>2021-05-19T13:41:15Z</time>
      </trkpt>
      <trkpt lat="42.1150810" lon="-8.8604190">
        <ele>85.7</ele>
        <time>2021-05-19T13:41:16Z</time>
      </trkpt>
      <trkpt lat="42.1150740" lon="-8.8604100">
        <ele>85.8</ele>
        <time>2021-05-19T13:41:17Z</time>
      </trkpt>
      <trkpt lat="42.1150680" lon="-8.8604000">
        <ele>85.8</ele>
        <time>2021-05-19T13:41:18Z</time>
      </trkpt>
      <trkpt lat="42.1150630" lon="-8.8603830">
        <ele>85.8</ele>
        <time>2021-05-19T13:41:19Z</time>
      </trkpt>
      <trkpt lat="42.1150560" lon="-8.8603700">
        <ele>85.9</ele>
        <time>2021-05-19T13:41:20Z</time>
      </trkpt>
      <trkpt lat="42.1150520" lon="-8.8603580">
        <ele>85.9</ele>
        <time>2021-05-19T13:41:21Z</time>
      </trkpt>
      <trkpt lat="42.1150430" lon="-8.8603430">
        <ele>86.0</ele>
        <time>2021-05-19T13:41:22Z</time>
      </trkpt>
      <trkpt lat="42.1150320" lon="-8.8603310">
        <ele>86.0</ele>
        <time>2021-05-19T13:41:23Z</time>
      </trkpt>
      <trkpt lat="42.1150230" lon="-8.8603200">
        <ele>86.1</ele>
        <time>2021-05-19T13:41:24Z</time>
      </trkpt>
      <trkpt lat="42.1150130" lon="-8.8603100">
        <ele>86.1</ele>
        <time>2021-05-19T13:41:25Z</time>
      </trkpt>
      <trkpt lat="42.1150020" lon="-8.8603050">
        <ele>86.2</ele>
        <time>2021-05-19T13:41:26Z</time>
      </trkpt>
      <trkpt lat="42.1149920" lon="-8.8602950">
        <ele>86.3</ele>
        <time>2021-05-19T13:41:27Z</time>
      </trkpt>
      <trkpt lat="42.1149790" lon="-8.8602860">
        <ele>86.3</ele>
        <time>2021-05-19T13:41:28Z</time>
      </trkpt>
      <trkpt lat="42.1149610" lon="-8.8602830">
        <ele>86.4</ele>
        <time>2021-05-19T13:41:29Z</time>
      </trkpt>
      <trkpt lat="42.1149520" lon="-8.8602760">
        <ele>86.5</ele>
        <time>2021-05-19T13:41:30Z</time>
      </trkpt>
      <trkpt lat="42.1149440" lon="-8.8602700">
        <ele>86.6</ele>
        <time>2021-05-19T13:41:31Z</time>
      </trkpt>
      <trkpt lat="42.1149360" lon="-8.8602600">
        <ele>86.6</ele>
        <time>2021-05-19T13:41:32Z</time>
      </trkpt>
      <trkpt lat="42.1149260" lon="-8.8602550">
        <ele>86.7</ele>
        <time>2021-05-19T13:41:33Z</time>
      </trkpt>
      <trkpt lat="42.1149170" lon="-8.8602480">
        <ele>86.7</ele>
        <time>2021-05-19T13:41:34Z</time>
      </trkpt>
      <trkpt lat="42.1149050" lon="-8.8602420">
        <ele>86.8</ele>
        <time>2021-05-19T13:41:35Z</time>
      </trkpt>
      <trkpt lat="42.1148980" lon="-8.8602300">
        <ele>86.8</ele>
        <time>2021-05-19T13:41:36Z</time>
      </trkpt>
      <trkpt lat="42.1148880" lon="-8.8602230">
        <ele>86.9</ele>
        <time>2021-05-19T13:41:37Z</time>
      </trkpt>
      <trkpt lat="42.1148800" lon="-8.8602150">
        <ele>86.9</ele>
        <time>2021-05-19T13:41:38Z</time>
      </trkpt>
      <trkpt lat="42.1148700" lon="-8.8602070">
        <ele>86.9</ele>
        <time>2021-05-19T13:41:39Z</time>
      </trkpt>
      <trkpt lat="42.1148620" lon="-8.8601940">
        <ele>87.0</ele>
        <time>2021-05-19T13:41:40Z</time>
      </trkpt>
      <trkpt lat="42.1148520" lon="-8.8601860">
        <ele>87.0</ele>
        <time>2021-05-19T13:41:41Z</time>
      </trkpt>
      <trkpt lat="42.1148420" lon="-8.8601780">
        <ele>87.0</ele>
        <time>2021-05-19T13:41:42Z</time>
      </trkpt>
      <trkpt lat="42.1148320" lon="-8.8601700">
        <ele>87.0</ele>
        <time>2021-05-19T13:41:43Z</time>
      </trkpt>
      <trkpt lat="42.1148230" lon="-8.8601650">
        <ele>87.0</ele>
        <time>2021-05-19T13:41:44Z</time>
      </trkpt>
      <trkpt lat="42.1148130" lon="-8.8601570">
        <ele>87.0</ele>
        <time>2021-05-19T13:41:45Z</time>
      </trkpt>
      <trkpt lat="42.1148070" lon="-8.8601480">
        <ele>87.0</ele>
        <time>2021-05-19T13:41:46Z</time>
      </trkpt>
      <trkpt lat="42.1147890" lon="-8.8601280">
        <ele>86.9</ele>
        <time>2021-05-19T13:41:47Z</time>
      </trkpt>
      <trkpt lat="42.1147830" lon="-8.8601230">
        <ele>86.9</ele>
        <time>2021-05-19T13:41:48Z</time>
      </trkpt>
      <trkpt lat="42.1147760" lon="-8.8601180">
        <ele>86.9</ele>
        <time>2021-05-19T13:41:49Z</time>
      </trkpt>
      <trkpt lat="42.1147640" lon="-8.8600960">
        <ele>86.8</ele>
        <time>2021-05-19T13:41:50Z</time>
      </trkpt>
      <trkpt lat="42.1147580" lon="-8.8600880">
        <ele>86.8</ele>
        <time>2021-05-19T13:41:51Z</time>
      </trkpt>
      <trkpt lat="42.1147530" lon="-8.8600790">
        <ele>86.8</ele>
        <time>2021-05-19T13:41:52Z</time>
      </trkpt>
      <trkpt lat="42.1147360" lon="-8.8600640">
        <ele>86.6</ele>
        <time>2021-05-19T13:41:53Z</time>
      </trkpt>
      <trkpt lat="42.1147290" lon="-8.8600580">
        <ele>86.6</ele>
        <time>2021-05-19T13:41:54Z</time>
      </trkpt>
      <trkpt lat="42.1147220" lon="-8.8600530">
        <ele>86.6</ele>
        <time>2021-05-19T13:41:55Z</time>
      </trkpt>
      <trkpt lat="42.1147140" lon="-8.8600470">
        <ele>86.5</ele>
        <time>2021-05-19T13:41:56Z</time>
      </trkpt>
      <trkpt lat="42.1147080" lon="-8.8600420">
        <ele>86.5</ele>
        <time>2021-05-19T13:41:57Z</time>
      </trkpt>
      <trkpt lat="42.1147020" lon="-8.8600310">
        <ele>86.4</ele>
        <time>2021-05-19T13:41:58Z</time>
      </trkpt>
      <trkpt lat="42.1146960" lon="-8.8600250">
        <ele>86.3</ele>
        <time>2021-05-19T13:41:59Z</time>
      </trkpt>
      <trkpt lat="42.1146800" lon="-8.8600030">
        <ele>86.2</ele>
        <time>2021-05-19T13:42:00Z</time>
      </trkpt>
      <trkpt lat="42.1146700" lon="-8.8599970">
        <ele>86.1</ele>
        <time>2021-05-19T13:42:01Z</time>
      </trkpt>
      <trkpt lat="42.1146640" lon="-8.8599920">
        <ele>86.0</ele>
        <time>2021-05-19T13:42:02Z</time>
      </trkpt>
      <trkpt lat="42.1146530" lon="-8.8599910">
        <ele>85.9</ele>
        <time>2021-05-19T13:42:03Z</time>
      </trkpt>
      <trkpt lat="42.1146400" lon="-8.8599890">
        <ele>85.8</ele>
        <time>2021-05-19T13:42:04Z</time>
      </trkpt>
      <trkpt lat="42.1146260" lon="-8.8599810">
        <ele>85.7</ele>
        <time>2021-05-19T13:42:05Z</time>
      </trkpt>
      <trkpt lat="42.1146160" lon="-8.8599750">
        <ele>85.6</ele>
        <time>2021-05-19T13:42:06Z</time>
      </trkpt>
      <trkpt lat="42.1146060" lon="-8.8599700">
        <ele>85.5</ele>
        <time>2021-05-19T13:42:07Z</time>
      </trkpt>
      <trkpt lat="42.1145970" lon="-8.8599610">
        <ele>85.4</ele>
        <time>2021-05-19T13:42:08Z</time>
      </trkpt>
      <trkpt lat="42.1145890" lon="-8.8599560">
        <ele>85.3</ele>
        <time>2021-05-19T13:42:09Z</time>
      </trkpt>
      <trkpt lat="42.1145760" lon="-8.8599540">
        <ele>85.2</ele>
        <time>2021-05-19T13:42:10Z</time>
      </trkpt>
      <trkpt lat="42.1145620" lon="-8.8599420">
        <ele>85.1</ele>
        <time>2021-05-19T13:42:11Z</time>
      </trkpt>
      <trkpt lat="42.1145530" lon="-8.8599350">
        <ele>85.0</ele>
        <time>2021-05-19T13:42:12Z</time>
      </trkpt>
      <trkpt lat="42.1145450" lon="-8.8599270">
        <ele>84.9</ele>
        <time>2021-05-19T13:42:13Z</time>
      </trkpt>
      <trkpt lat="42.1145330" lon="-8.8599280">
        <ele>84.8</ele>
        <time>2021-05-19T13:42:14Z</time>
      </trkpt>
      <trkpt lat="42.1145220" lon="-8.8599210">
        <ele>84.7</ele>
        <time>2021-05-19T13:42:15Z</time>
      </trkpt>
      <trkpt lat="42.1145180" lon="-8.8599080">
        <ele>84.6</ele>
        <time>2021-05-19T13:42:16Z</time>
      </trkpt>
      <trkpt lat="42.1144990" lon="-8.8598880">
        <ele>84.4</ele>
        <time>2021-05-19T13:42:17Z</time>
      </trkpt>
      <trkpt lat="42.1144940" lon="-8.8598840">
        <ele>84.4</ele>
        <time>2021-05-19T13:42:18Z</time>
      </trkpt>
      <trkpt lat="42.1144880" lon="-8.8598810">
        <ele>84.3</ele>
        <time>2021-05-19T13:42:19Z</time>
      </trkpt>
      <trkpt lat="42.1144820" lon="-8.8598780">
        <ele>84.3</ele>
        <time>2021-05-19T13:42:20Z</time>
      </trkpt>
      <trkpt lat="42.1144710" lon="-8.8598720">
        <ele>84.2</ele>
        <time>2021-05-19T13:42:21Z</time>
      </trkpt>
      <trkpt lat="42.1144620" lon="-8.8598620">
        <ele>84.1</ele>
        <time>2021-05-19T13:42:22Z</time>
      </trkpt>
      <trkpt lat="42.1144610" lon="-8.8598500">
        <ele>84.0</ele>
        <time>2021-05-19T13:42:23Z</time>
      </trkpt>
      <trkpt lat="42.1144590" lon="-8.8598430">
        <ele>84.0</ele>
        <time>2021-05-19T13:42:24Z</time>
      </trkpt>
      <trkpt lat="42.1144530" lon="-8.8598320">
        <ele>83.9</ele>
        <time>2021-05-19T13:42:25Z</time>
      </trkpt>
      <trkpt lat="42.1144420" lon="-8.8598230">
        <ele>83.8</ele>
        <time>2021-05-19T13:42:26Z</time>
      </trkpt>
      <trkpt lat="42.1144300" lon="-8.8598130">
        <ele>83.7</ele>
        <time>2021-05-19T13:42:27Z</time>
      </trkpt>
      <trkpt lat="42.1144220" lon="-8.8598040">
        <ele>83.7</ele>
        <time>2021-05-19T13:42:28Z</time>
      </trkpt>
      <trkpt lat="42.1144170" lon="-8.8598020">
        <ele>83.6</ele>
        <time>2021-05-19T13:42:29Z</time>
      </trkpt>
      <trkpt lat="42.1144150" lon="-8.8597950">
        <ele>83.6</ele>
        <time>2021-05-19T13:42:30Z</time>
      </trkpt>
      <trkpt lat="42.1144110" lon="-8.8597870">
        <ele>83.5</ele>
        <time>2021-05-19T13:42:31Z</time>
      </trkpt>
      <trkpt lat="42.1144010" lon="-8.8597790">
        <ele>83.5</ele>
        <time>2021-05-19T13:42:32Z</time>
      </trkpt>
      <trkpt lat="42.1143950" lon="-8.8597770">
        <ele>83.4</ele>
        <time>2021-05-19T13:42:33Z</time>
      </trkpt>
      <trkpt lat="42.1143860" lon="-8.8597680">
        <ele>83.4</ele>
        <time>2021-05-19T13:42:34Z</time>
      </trkpt>
      <trkpt lat="42.1143710" lon="-8.8597560">
        <ele>83.3</ele>
        <time>2021-05-19T13:42:35Z</time>
      </trkpt>
      <trkpt lat="42.1143590" lon="-8.8597490">
        <ele>83.2</ele>
        <time>2021-05-19T13:42:36Z</time>
      </trkpt>
      <trkpt lat="42.1143420" lon="-8.8597460">
        <ele>83.2</ele>
        <time>2021-05-19T13:42:37Z</time>
      </trkpt>
      <trkpt lat="42.1143370" lon="-8.8597460">
        <ele>83.1</ele>
        <time>2021-05-19T13:42:38Z</time>
      </trkpt>
      <trkpt lat="42.1143250" lon="-8.8597460">
        <ele>83.1</ele>
        <time>2021-05-19T13:42:39Z</time>
      </trkpt>
      <trkpt lat="42.1143180" lon="-8.8597400">
        <ele>83.0</ele>
        <time>2021-05-19T13:42:40Z</time>
      </trkpt>
      <trkpt lat="42.1143100" lon="-8.8597320">
        <ele>83.0</ele>
        <time>2021-05-19T13:42:41Z</time>
      </trkpt>
      <trkpt lat="42.1142900" lon="-8.8597250">
        <ele>82.9</ele>
        <time>2021-05-19T13:42:42Z</time>
      </trkpt>
      <trkpt lat="42.1142820" lon="-8.8597200">
        <ele>82.9</ele>
        <time>2021-05-19T13:42:43Z</time>
      </trkpt>
      <trkpt lat="42.1142530" lon="-8.8597050">
        <ele>82.7</ele>
        <time>2021-05-19T13:42:44Z</time>
      </trkpt>
      <trkpt lat="42.1142390" lon="-8.8597010">
        <ele>82.7</ele>
        <time>2021-05-19T13:42:45Z</time>
      </trkpt>
      <trkpt lat="42.1142350" lon="-8.8597000">
        <ele>82.7</ele>
        <time>2021-05-19T13:42:46Z</time>
      </trkpt>
      <trkpt lat="42.1142220" lon="-8.8596930">
        <ele>82.6</ele>
        <time>2021-05-19T13:42:47Z</time>
      </trkpt>
      <trkpt lat="42.1142020" lon="-8.8596890">
        <ele>82.5</ele>
        <time>2021-05-19T13:42:48Z</time>
      </trkpt>
      <trkpt lat="42.1141930" lon="-8.8596880">
        <ele>82.5</ele>
        <time>2021-05-19T13:42:49Z</time>
      </trkpt>
      <trkpt lat="42.1141830" lon="-8.8596870">
        <ele>82.4</ele>
        <time>2021-05-19T13:42:50Z</time>
      </trkpt>
      <trkpt lat="42.1141630" lon="-8.8596800">
        <ele>82.3</ele>
        <time>2021-05-19T13:42:51Z</time>
      </trkpt>
      <trkpt lat="42.1141550" lon="-8.8596750">
        <ele>82.3</ele>
        <time>2021-05-19T13:42:52Z</time>
      </trkpt>
      <trkpt lat="42.1141460" lon="-8.8596700">
        <ele>82.2</ele>
        <time>2021-05-19T13:42:53Z</time>
      </trkpt>
      <trkpt lat="42.1141350" lon="-8.8596500">
        <ele>82.1</ele>
        <time>2021-05-19T13:42:54Z</time>
      </trkpt>
      <trkpt lat="42.1141310" lon="-8.8596380">
        <ele>82.1</ele>
        <time>2021-05-19T13:42:55Z</time>
      </trkpt>
      <trkpt lat="42.1141260" lon="-8.8596260">
        <ele>82.0</ele>
        <time>2021-05-19T13:42:56Z</time>
      </trkpt>
      <trkpt lat="42.1141160" lon="-8.8596150">
        <ele>81.9</ele>
        <time>2021-05-19T13:42:57Z</time>
      </trkpt>
      <trkpt lat="42.1141080" lon="-8.8596120">
        <ele>81.9</ele>
        <time>2021-05-19T13:42:58Z</time>
      </trkpt>
      <trkpt lat="42.1141040" lon="-8.8595970">
        <ele>81.8</ele>
        <time>2021-05-19T13:42:59Z</time>
      </trkpt>
      <trkpt lat="42.1140860" lon="-8.8595790">
        <ele>81.7</ele>
        <time>2021-05-19T13:43:00Z</time>
      </trkpt>
      <trkpt lat="42.1140770" lon="-8.8595740">
        <ele>81.6</ele>
        <time>2021-05-19T13:43:01Z</time>
      </trkpt>
      <trkpt lat="42.1140680" lon="-8.8595680">
        <ele>81.6</ele>
        <time>2021-05-19T13:43:02Z</time>
      </trkpt>
      <trkpt lat="42.1140560" lon="-8.8595470">
        <ele>81.4</ele>
        <time>2021-05-19T13:43:03Z</time>
      </trkpt>
      <trkpt lat="42.1140450" lon="-8.8595420">
        <ele>81.3</ele>
        <time>2021-05-19T13:43:04Z</time>
      </trkpt>
      <trkpt lat="42.1140350" lon="-8.8595380">
        <ele>81.3</ele>
        <time>2021-05-19T13:43:05Z</time>
      </trkpt>
      <trkpt lat="42.1140250" lon="-8.8595290">
        <ele>81.2</ele>
        <time>2021-05-19T13:43:06Z</time>
      </trkpt>
      <trkpt lat="42.1140210" lon="-8.8595210">
        <ele>81.1</ele>
        <time>2021-05-19T13:43:07Z</time>
      </trkpt>
      <trkpt lat="42.1140120" lon="-8.8595050">
        <ele>81.0</ele>
        <time>2021-05-19T13:43:08Z</time>
      </trkpt>
      <trkpt lat="42.1140090" lon="-8.8594960">
        <ele>81.0</ele>
        <time>2021-05-19T13:43:09Z</time>
      </trkpt>
      <trkpt lat="42.1140000" lon="-8.8594830">
        <ele>80.9</ele>
        <time>2021-05-19T13:43:10Z</time>
      </trkpt>
      <trkpt lat="42.1139890" lon="-8.8594740">
        <ele>80.8</ele>
        <time>2021-05-19T13:43:11Z</time>
      </trkpt>
      <trkpt lat="42.1139740" lon="-8.8594620">
        <ele>80.6</ele>
        <time>2021-05-19T13:43:12Z</time>
      </trkpt>
      <trkpt lat="42.1139600" lon="-8.8594490">
        <ele>80.5</ele>
        <time>2021-05-19T13:43:13Z</time>
      </trkpt>
      <trkpt lat="42.1139510" lon="-8.8594410">
        <ele>80.4</ele>
        <time>2021-05-19T13:43:14Z</time>
      </trkpt>
      <trkpt lat="42.1139390" lon="-8.8594330">
        <ele>80.3</ele>
        <time>2021-05-19T13:43:15Z</time>
      </trkpt>
      <trkpt lat="42.1139320" lon="-8.8594240">
        <ele>80.3</ele>
        <time>2021-05-19T13:43:16Z</time>
      </trkpt>
      <trkpt lat="42.1139240" lon="-8.8594160">
        <ele>80.2</ele>
        <time>2021-05-19T13:43:17Z</time>
      </trkpt>
      <trkpt lat="42.1139140" lon="-8.8594020">
        <ele>80.1</ele>
        <time>2021-05-19T13:43:18Z</time>
      </trkpt>
      <trkpt lat="42.1138990" lon="-8.8593870">
        <ele>79.9</ele>
        <time>2021-05-19T13:43:19Z</time>
      </trkpt>
      <trkpt lat="42.1138900" lon="-8.8593730">
        <ele>79.8</ele>
        <time>2021-05-19T13:43:20Z</time>
      </trkpt>
      <trkpt lat="42.1138800" lon="-8.8593600">
        <ele>79.7</ele>
        <time>2021-05-19T13:43:21Z</time>
      </trkpt>
      <trkpt lat="42.1138620" lon="-8.8593450">
        <ele>79.5</ele>
        <time>2021-05-19T13:43:22Z</time>
      </trkpt>
      <trkpt lat="42.1138560" lon="-8.8593360">
        <ele>79.4</ele>
        <time>2021-05-19T13:43:23Z</time>
      </trkpt>
      <trkpt lat="42.1138510" lon="-8.8593280">
        <ele>79.4</ele>
        <time>2021-05-19T13:43:24Z</time>
      </trkpt>
      <trkpt lat="42.1138410" lon="-8.8593170">
        <ele>79.3</ele>
        <time>2021-05-19T13:43:25Z</time>
      </trkpt>
      <trkpt lat="42.1138310" lon="-8.8593060">
        <ele>79.1</ele>
        <time>2021-05-19T13:43:26Z</time>
      </trkpt>
      <trkpt lat="42.1138220" lon="-8.8592960">
        <ele>79.1</ele>
        <time>2021-05-19T13:43:27Z</time>
      </trkpt>
      <trkpt lat="42.1138110" lon="-8.8592930">
        <ele>79.0</ele>
        <time>2021-05-19T13:43:28Z</time>
      </trkpt>
      <trkpt lat="42.1138020" lon="-8.8592700">
        <ele>78.8</ele>
        <time>2021-05-19T13:43:29Z</time>
      </trkpt>
      <trkpt lat="42.1137900" lon="-8.8592560">
        <ele>78.7</ele>
        <time>2021-05-19T13:43:30Z</time>
      </trkpt>
      <trkpt lat="42.1137810" lon="-8.8592400">
        <ele>78.5</ele>
        <time>2021-05-19T13:43:31Z</time>
      </trkpt>
      <trkpt lat="42.1137750" lon="-8.8592220">
        <ele>78.4</ele>
        <time>2021-05-19T13:43:32Z</time>
      </trkpt>
      <trkpt lat="42.1137610" lon="-8.8592060">
        <ele>78.3</ele>
        <time>2021-05-19T13:43:33Z</time>
      </trkpt>
      <trkpt lat="42.1137500" lon="-8.8591850">
        <ele>78.1</ele>
        <time>2021-05-19T13:43:34Z</time>
      </trkpt>
      <trkpt lat="42.1137390" lon="-8.8591760">
        <ele>78.0</ele>
        <time>2021-05-19T13:43:35Z</time>
      </trkpt>
      <trkpt lat="42.1137320" lon="-8.8591740">
        <ele>78.0</ele>
        <time>2021-05-19T13:43:36Z</time>
      </trkpt>
      <trkpt lat="42.1137290" lon="-8.8591700">
        <ele>77.9</ele>
        <time>2021-05-19T13:43:37Z</time>
      </trkpt>
      <trkpt lat="42.1137200" lon="-8.8591680">
        <ele>77.9</ele>
        <time>2021-05-19T13:43:38Z</time>
      </trkpt>
      <trkpt lat="42.1137120" lon="-8.8591590">
        <ele>77.8</ele>
        <time>2021-05-19T13:43:39Z</time>
      </trkpt>
      <trkpt lat="42.1137010" lon="-8.8591510">
        <ele>77.7</ele>
        <time>2021-05-19T13:43:40Z</time>
      </trkpt>
      <trkpt lat="42.1136930" lon="-8.8591440">
        <ele>77.6</ele>
        <time>2021-05-19T13:43:41Z</time>
      </trkpt>
      <trkpt lat="42.1136860" lon="-8.8591380">
        <ele>77.5</ele>
        <time>2021-05-19T13:43:42Z</time>
      </trkpt>
      <trkpt lat="42.1136780" lon="-8.8591310">
        <ele>77.4</ele>
        <time>2021-05-19T13:43:43Z</time>
      </trkpt>
      <trkpt lat="42.1136640" lon="-8.8591260">
        <ele>77.3</ele>
        <time>2021-05-19T13:43:44Z</time>
      </trkpt>
      <trkpt lat="42.1136580" lon="-8.8591200">
        <ele>77.3</ele>
        <time>2021-05-19T13:43:46Z</time>
      </trkpt>
      <trkpt lat="42.1136550" lon="-8.8591240">
        <ele>77.2</ele>
        <time>2021-05-19T13:43:47Z</time>
      </trkpt>
      <trkpt lat="42.1136510" lon="-8.8591250">
        <ele>77.2</ele>
        <time>2021-05-19T13:43:48Z</time>
      </trkpt>
      <trkpt lat="42.1136480" lon="-8.8591200">
        <ele>77.2</ele>
        <time>2021-05-19T13:43:49Z</time>
      </trkpt>
      <trkpt lat="42.1136350" lon="-8.8591120">
        <ele>77.0</ele>
        <time>2021-05-19T13:43:50Z</time>
      </trkpt>
      <trkpt lat="42.1136270" lon="-8.8591030">
        <ele>77.0</ele>
        <time>2021-05-19T13:43:51Z</time>
      </trkpt>
      <trkpt lat="42.1136180" lon="-8.8590980">
        <ele>76.7</ele>
        <time>2021-05-19T13:43:52Z</time>
      </trkpt>
      <trkpt lat="42.1136050" lon="-8.8590940">
        <ele>76.6</ele>
        <time>2021-05-19T13:43:53Z</time>
      </trkpt>
      <trkpt lat="42.1136010" lon="-8.8590950">
        <ele>76.5</ele>
        <time>2021-05-19T13:43:54Z</time>
      </trkpt>
      <trkpt lat="42.1135990" lon="-8.8590890">
        <ele>76.5</ele>
        <time>2021-05-19T13:43:55Z</time>
      </trkpt>
      <trkpt lat="42.1135900" lon="-8.8590660">
        <ele>76.3</ele>
        <time>2021-05-19T13:43:56Z</time>
      </trkpt>
      <trkpt lat="42.1135860" lon="-8.8590560">
        <ele>76.2</ele>
        <time>2021-05-19T13:43:57Z</time>
      </trkpt>
      <trkpt lat="42.1135820" lon="-8.8590470">
        <ele>76.1</ele>
        <time>2021-05-19T13:43:58Z</time>
      </trkpt>
      <trkpt lat="42.1135780" lon="-8.8590370">
        <ele>76.0</ele>
        <time>2021-05-19T13:43:59Z</time>
      </trkpt>
      <trkpt lat="42.1135640" lon="-8.8590070">
        <ele>75.7</ele>
        <time>2021-05-19T13:44:00Z</time>
      </trkpt>
      <trkpt lat="42.1135630" lon="-8.8589990">
        <ele>75.6</ele>
        <time>2021-05-19T13:44:01Z</time>
      </trkpt>
      <trkpt lat="42.1135620" lon="-8.8589900">
        <ele>75.6</ele>
        <time>2021-05-19T13:44:02Z</time>
      </trkpt>
      <trkpt lat="42.1135610" lon="-8.8589700">
        <ele>75.4</ele>
        <time>2021-05-19T13:44:03Z</time>
      </trkpt>
      <trkpt lat="42.1135640" lon="-8.8589530">
        <ele>75.2</ele>
        <time>2021-05-19T13:44:04Z</time>
      </trkpt>
      <trkpt lat="42.1135680" lon="-8.8589370">
        <ele>75.1</ele>
        <time>2021-05-19T13:44:05Z</time>
      </trkpt>
      <trkpt lat="42.1135680" lon="-8.8589200">
        <ele>75.0</ele>
        <time>2021-05-19T13:44:06Z</time>
      </trkpt>
      <trkpt lat="42.1135700" lon="-8.8589120">
        <ele>74.9</ele>
        <time>2021-05-19T13:44:07Z</time>
      </trkpt>
      <trkpt lat="42.1135650" lon="-8.8588960">
        <ele>74.7</ele>
        <time>2021-05-19T13:44:08Z</time>
      </trkpt>
      <trkpt lat="42.1135650" lon="-8.8588880">
        <ele>74.6</ele>
        <time>2021-05-19T13:44:09Z</time>
      </trkpt>
      <trkpt lat="42.1135630" lon="-8.8588750">
        <ele>74.5</ele>
        <time>2021-05-19T13:44:10Z</time>
      </trkpt>
      <trkpt lat="42.1135620" lon="-8.8588620">
        <ele>74.4</ele>
        <time>2021-05-19T13:44:11Z</time>
      </trkpt>
      <trkpt lat="42.1135590" lon="-8.8588440">
        <ele>74.2</ele>
        <time>2021-05-19T13:44:12Z</time>
      </trkpt>
      <trkpt lat="42.1135600" lon="-8.8588290">
        <ele>74.1</ele>
        <time>2021-05-19T13:44:13Z</time>
      </trkpt>
      <trkpt lat="42.1135610" lon="-8.8588170">
        <ele>74.0</ele>
        <time>2021-05-19T13:44:14Z</time>
      </trkpt>
      <trkpt lat="42.1135640" lon="-8.8588060">
        <ele>73.7</ele>
        <time>2021-05-19T13:44:15Z</time>
      </trkpt>
      <trkpt lat="42.1135690" lon="-8.8587970">
        <ele>73.6</ele>
        <time>2021-05-19T13:44:16Z</time>
      </trkpt>
      <trkpt lat="42.1135710" lon="-8.8587860">
        <ele>73.5</ele>
        <time>2021-05-19T13:44:17Z</time>
      </trkpt>
      <trkpt lat="42.1135810" lon="-8.8587670">
        <ele>73.3</ele>
        <time>2021-05-19T13:44:18Z</time>
      </trkpt>
      <trkpt lat="42.1135900" lon="-8.8587580">
        <ele>73.1</ele>
        <time>2021-05-19T13:44:19Z</time>
      </trkpt>
      <trkpt lat="42.1136000" lon="-8.8587580">
        <ele>73.0</ele>
        <time>2021-05-19T13:44:20Z</time>
      </trkpt>
      <trkpt lat="42.1136110" lon="-8.8587610">
        <ele>72.9</ele>
        <time>2021-05-19T13:44:21Z</time>
      </trkpt>
      <trkpt lat="42.1136190" lon="-8.8587610">
        <ele>72.8</ele>
        <time>2021-05-19T13:44:22Z</time>
      </trkpt>
      <trkpt lat="42.1136270" lon="-8.8587610">
        <ele>72.7</ele>
        <time>2021-05-19T13:44:23Z</time>
      </trkpt>
      <trkpt lat="42.1136260" lon="-8.8587650">
        <ele>72.6</ele>
        <time>2021-05-19T13:44:24Z</time>
      </trkpt>
      <trkpt lat="42.1136210" lon="-8.8587720">
        <ele>72.6</ele>
        <time>2021-05-19T13:44:25Z</time>
      </trkpt>
      <trkpt lat="42.1136240" lon="-8.8587700">
        <ele>72.5</ele>
        <time>2021-05-19T13:44:26Z</time>
      </trkpt>
      <trkpt lat="42.1136280" lon="-8.8587550">
        <ele>72.4</ele>
        <time>2021-05-19T13:44:27Z</time>
      </trkpt>
      <trkpt lat="42.1136310" lon="-8.8587570">
        <ele>72.3</ele>
        <time>2021-05-19T13:44:28Z</time>
      </trkpt>
      <trkpt lat="42.1136320" lon="-8.8587620">
        <ele>72.3</ele>
        <time>2021-05-19T13:44:29Z</time>
      </trkpt>
      <trkpt lat="42.1136300" lon="-8.8587680">
        <ele>72.2</ele>
        <time>2021-05-19T13:44:30Z</time>
      </trkpt>
      <trkpt lat="42.1136290" lon="-8.8587700">
        <ele>72.2</ele>
        <time>2021-05-19T13:44:31Z</time>
      </trkpt>
      <trkpt lat="42.1136310" lon="-8.8587720">
        <ele>72.2</ele>
        <time>2021-05-19T13:44:32Z</time>
      </trkpt>
      <trkpt lat="42.1136370" lon="-8.8587690">
        <ele>72.1</ele>
        <time>2021-05-19T13:44:33Z</time>
      </trkpt>
      <trkpt lat="42.1136360" lon="-8.8587690">
        <ele>72.1</ele>
        <time>2021-05-19T13:44:34Z</time>
      </trkpt>
      <trkpt lat="42.1136370" lon="-8.8587560">
        <ele>72.0</ele>
        <time>2021-05-19T13:44:35Z</time>
      </trkpt>
      <trkpt lat="42.1136360" lon="-8.8587580">
        <ele>72.0</ele>
        <time>2021-05-19T13:44:36Z</time>
      </trkpt>
      <trkpt lat="42.1136360" lon="-8.8587600">
        <ele>72.0</ele>
        <time>2021-05-19T13:44:37Z</time>
      </trkpt>
      <trkpt lat="42.1136360" lon="-8.8587620">
        <ele>72.0</ele>
        <time>2021-05-19T13:44:38Z</time>
      </trkpt>
      <trkpt lat="42.1136370" lon="-8.8587640">
        <ele>71.9</ele>
        <time>2021-05-19T13:44:39Z</time>
      </trkpt>
      <trkpt lat="42.1136380" lon="-8.8587670">
        <ele>71.9</ele>
        <time>2021-05-19T13:44:40Z</time>
      </trkpt>
      <trkpt lat="42.1136420" lon="-8.8587690">
        <ele>71.9</ele>
        <time>2021-05-19T13:44:41Z</time>
      </trkpt>
      <trkpt lat="42.1136470" lon="-8.8587640">
        <ele>71.8</ele>
        <time>2021-05-19T13:44:42Z</time>
      </trkpt>
      <trkpt lat="42.1136480" lon="-8.8587650">
        <ele>71.8</ele>
        <time>2021-05-19T13:44:43Z</time>
      </trkpt>
      <trkpt lat="42.1136490" lon="-8.8587740">
        <ele>71.7</ele>
        <time>2021-05-19T13:44:44Z</time>
      </trkpt>
      <trkpt lat="42.1136500" lon="-8.8587760">
        <ele>71.7</ele>
        <time>2021-05-19T13:44:45Z</time>
      </trkpt>
      <trkpt lat="42.1136520" lon="-8.8587720">
        <ele>71.7</ele>
        <time>2021-05-19T13:44:46Z</time>
      </trkpt>
      <trkpt lat="42.1136540" lon="-8.8587730">
        <ele>71.6</ele>
        <time>2021-05-19T13:44:47Z</time>
      </trkpt>
      <trkpt lat="42.1136470" lon="-8.8587700">
        <ele>71.6</ele>
        <time>2021-05-19T13:44:48Z</time>
      </trkpt>
      <trkpt lat="42.1136520" lon="-8.8587720">
        <ele>71.5</ele>
        <time>2021-05-19T13:44:49Z</time>
      </trkpt>
      <trkpt lat="42.1136530" lon="-8.8587700">
        <ele>71.5</ele>
        <time>2021-05-19T13:44:50Z</time>
      </trkpt>
      <trkpt lat="42.1136530" lon="-8.8587740">
        <ele>71.5</ele>
        <time>2021-05-19T13:44:51Z</time>
      </trkpt>
      <trkpt lat="42.1136490" lon="-8.8587790">
        <ele>71.4</ele>
        <time>2021-05-19T13:44:52Z</time>
      </trkpt>
      <trkpt lat="42.1136480" lon="-8.8587810">
        <ele>71.4</ele>
        <time>2021-05-19T13:44:53Z</time>
      </trkpt>
      <trkpt lat="42.1136430" lon="-8.8587830">
        <ele>71.4</ele>
        <time>2021-05-19T13:44:54Z</time>
      </trkpt>
      <trkpt lat="42.1136430" lon="-8.8587840">
        <ele>71.4</ele>
        <time>2021-05-19T13:44:55Z</time>
      </trkpt>
      <trkpt lat="42.1136420" lon="-8.8587920">
        <ele>71.3</ele>
        <time>2021-05-19T13:44:56Z</time>
      </trkpt>
      <trkpt lat="42.1136400" lon="-8.8587910">
        <ele>71.3</ele>
        <time>2021-05-19T13:44:57Z</time>
      </trkpt>
      <trkpt lat="42.1136410" lon="-8.8587860">
        <ele>71.2</ele>
        <time>2021-05-19T13:44:58Z</time>
      </trkpt>
      <trkpt lat="42.1136420" lon="-8.8587860">
        <ele>71.2</ele>
        <time>2021-05-19T13:44:59Z</time>
      </trkpt>
      <trkpt lat="42.1136440" lon="-8.8587910">
        <ele>71.2</ele>
        <time>2021-05-19T13:45:00Z</time>
      </trkpt>
      <trkpt lat="42.1136460" lon="-8.8587900">
        <ele>71.2</ele>
        <time>2021-05-19T13:45:01Z</time>
      </trkpt>
      <trkpt lat="42.1136450" lon="-8.8587860">
        <ele>71.2</ele>
        <time>2021-05-19T13:45:02Z</time>
      </trkpt>
      <trkpt lat="42.1136430" lon="-8.8587800">
        <ele>71.1</ele>
        <time>2021-05-19T13:45:03Z</time>
      </trkpt>
      <trkpt lat="42.1136450" lon="-8.8587800">
        <ele>71.1</ele>
        <time>2021-05-19T13:45:04Z</time>
      </trkpt>
      <trkpt lat="42.1136450" lon="-8.8587830">
        <ele>71.1</ele>
        <time>2021-05-19T13:45:05Z</time>
      </trkpt>
      <trkpt lat="42.1136460" lon="-8.8587740">
        <ele>71.0</ele>
        <time>2021-05-19T13:45:06Z</time>
      </trkpt>
      <trkpt lat="42.1136440" lon="-8.8587770">
        <ele>71.0</ele>
        <time>2021-05-19T13:45:07Z</time>
      </trkpt>
      <trkpt lat="42.1136450" lon="-8.8587700">
        <ele>70.9</ele>
        <time>2021-05-19T13:45:08Z</time>
      </trkpt>
      <trkpt lat="42.1136540" lon="-8.8587660">
        <ele>70.9</ele>
        <time>2021-05-19T13:45:09Z</time>
      </trkpt>
      <trkpt lat="42.1136540" lon="-8.8587660">
        <ele>70.9</ele>
        <time>2021-05-19T13:45:10Z</time>
      </trkpt>
      <trkpt lat="42.1136500" lon="-8.8587630">
        <ele>70.8</ele>
        <time>2021-05-19T13:45:11Z</time>
      </trkpt>
      <trkpt lat="42.1136500" lon="-8.8587630">
        <ele>70.8</ele>
        <time>2021-05-19T13:45:12Z</time>
      </trkpt>
      <trkpt lat="42.1136540" lon="-8.8587640">
        <ele>70.8</ele>
        <time>2021-05-19T13:45:13Z</time>
      </trkpt>
      <trkpt lat="42.1136540" lon="-8.8587660">
        <ele>70.8</ele>
        <time>2021-05-19T13:45:14Z</time>
      </trkpt>
      <trkpt lat="42.1136540" lon="-8.8587660">
        <ele>70.8</ele>
        <time>2021-05-19T13:45:15Z</time>
      </trkpt>
      <trkpt lat="42.1136510" lon="-8.8587550">
        <ele>70.7</ele>
        <time>2021-05-19T13:45:16Z</time>
      </trkpt>
      <trkpt lat="42.1136520" lon="-8.8587530">
        <ele>70.7</ele>
        <time>2021-05-19T13:45:17Z</time>
      </trkpt>
      <trkpt lat="42.1136520" lon="-8.8587530">
        <ele>70.7</ele>
        <time>2021-05-19T13:45:18Z</time>
      </trkpt>
      <trkpt lat="42.1136520" lon="-8.8587530">
        <ele>70.7</ele>
        <time>2021-05-19T13:45:19Z</time>
      </trkpt>
      <trkpt lat="42.1136510" lon="-8.8587490">
        <ele>70.7</ele>
        <time>2021-05-19T13:45:20Z</time>
      </trkpt>
      <trkpt lat="42.1136560" lon="-8.8587550">
        <ele>70.6</ele>
        <time>2021-05-19T13:45:21Z</time>
      </trkpt>
      <trkpt lat="42.1136560" lon="-8.8587550">
        <ele>70.6</ele>
        <time>2021-05-19T13:45:22Z</time>
      </trkpt>
      <trkpt lat="42.1136560" lon="-8.8587550">
        <ele>70.6</ele>
        <time>2021-05-19T13:45:23Z</time>
      </trkpt>
      <trkpt lat="42.1136540" lon="-8.8587580">
        <ele>70.6</ele>
        <time>2021-05-19T13:45:25Z</time>
      </trkpt>
      <trkpt lat="42.1136550" lon="-8.8587560">
        <ele>70.6</ele>
        <time>2021-05-19T13:45:26Z</time>
      </trkpt>
      <trkpt lat="42.1136530" lon="-8.8587560">
        <ele>70.6</ele>
        <time>2021-05-19T13:45:27Z</time>
      </trkpt>
      <trkpt lat="42.1136490" lon="-8.8587540">
        <ele>70.5</ele>
        <time>2021-05-19T13:45:28Z</time>
      </trkpt>
      <trkpt lat="42.1136470" lon="-8.8587540">
        <ele>70.5</ele>
        <time>2021-05-19T13:45:29Z</time>
      </trkpt>
      <trkpt lat="42.1136470" lon="-8.8587540">
        <ele>70.5</ele>
        <time>2021-05-19T13:45:30Z</time>
      </trkpt>
      <trkpt lat="42.1136440" lon="-8.8587520">
        <ele>70.5</ele>
        <time>2021-05-19T13:45:31Z</time>
      </trkpt>
      <trkpt lat="42.1136440" lon="-8.8587460">
        <ele>70.5</ele>
        <time>2021-05-19T13:45:32Z</time>
      </trkpt>
      <trkpt lat="42.1136440" lon="-8.8587480">
        <ele>70.5</ele>
        <time>2021-05-19T13:45:33Z</time>
      </trkpt>
      <trkpt lat="42.1136460" lon="-8.8587560">
        <ele>70.4</ele>
        <time>2021-05-19T13:45:34Z</time>
      </trkpt>
      <trkpt lat="42.1136500" lon="-8.8587490">
        <ele>70.4</ele>
        <time>2021-05-19T13:45:35Z</time>
      </trkpt>
      <trkpt lat="42.1136500" lon="-8.8587470">
        <ele>70.4</ele>
        <time>2021-05-19T13:45:36Z</time>
      </trkpt>
      <trkpt lat="42.1136510" lon="-8.8587460">
        <ele>70.3</ele>
        <time>2021-05-19T13:45:37Z</time>
      </trkpt>
      <trkpt lat="42.1136620" lon="-8.8587470">
        <ele>70.3</ele>
        <time>2021-05-19T13:45:38Z</time>
      </trkpt>
      <trkpt lat="42.1136670" lon="-8.8587430">
        <ele>70.2</ele>
        <time>2021-05-19T13:45:39Z</time>
      </trkpt>
      <trkpt lat="42.1136710" lon="-8.8587450">
        <ele>70.2</ele>
        <time>2021-05-19T13:45:40Z</time>
      </trkpt>
      <trkpt lat="42.1136890" lon="-8.8587420">
        <ele>70.1</ele>
        <time>2021-05-19T13:45:41Z</time>
      </trkpt>
      <trkpt lat="42.1136950" lon="-8.8587410">
        <ele>70.0</ele>
        <time>2021-05-19T13:45:42Z</time>
      </trkpt>
      <trkpt lat="42.1137020" lon="-8.8587390">
        <ele>70.0</ele>
        <time>2021-05-19T13:45:43Z</time>
      </trkpt>
      <trkpt lat="42.1137080" lon="-8.8587370">
        <ele>69.9</ele>
        <time>2021-05-19T13:45:44Z</time>
      </trkpt>
      <trkpt lat="42.1137240" lon="-8.8587350">
        <ele>69.8</ele>
        <time>2021-05-19T13:45:45Z</time>
      </trkpt>
      <trkpt lat="42.1137380" lon="-8.8587330">
        <ele>69.7</ele>
        <time>2021-05-19T13:45:46Z</time>
      </trkpt>
      <trkpt lat="42.1137580" lon="-8.8587350">
        <ele>69.6</ele>
        <time>2021-05-19T13:45:47Z</time>
      </trkpt>
      <trkpt lat="42.1137650" lon="-8.8587330">
        <ele>69.5</ele>
        <time>2021-05-19T13:45:48Z</time>
      </trkpt>
      <trkpt lat="42.1137710" lon="-8.8587300">
        <ele>69.5</ele>
        <time>2021-05-19T13:45:49Z</time>
      </trkpt>
      <trkpt lat="42.1137780" lon="-8.8587280">
        <ele>69.5</ele>
        <time>2021-05-19T13:45:50Z</time>
      </trkpt>
      <trkpt lat="42.1137860" lon="-8.8587250">
        <ele>69.4</ele>
        <time>2021-05-19T13:45:51Z</time>
      </trkpt>
      <trkpt lat="42.1138010" lon="-8.8587320">
        <ele>69.3</ele>
        <time>2021-05-19T13:45:52Z</time>
      </trkpt>
      <trkpt lat="42.1138070" lon="-8.8587270">
        <ele>69.3</ele>
        <time>2021-05-19T13:45:53Z</time>
      </trkpt>
      <trkpt lat="42.1138170" lon="-8.8587290">
        <ele>69.2</ele>
        <time>2021-05-19T13:45:54Z</time>
      </trkpt>
      <trkpt lat="42.1138220" lon="-8.8587360">
        <ele>69.1</ele>
        <time>2021-05-19T13:45:55Z</time>
      </trkpt>
      <trkpt lat="42.1138270" lon="-8.8587290">
        <ele>69.1</ele>
        <time>2021-05-19T13:45:56Z</time>
      </trkpt>
      <trkpt lat="42.1138420" lon="-8.8587180">
        <ele>69.0</ele>
        <time>2021-05-19T13:45:57Z</time>
      </trkpt>
      <trkpt lat="42.1138500" lon="-8.8587200">
        <ele>68.9</ele>
        <time>2021-05-19T13:45:58Z</time>
      </trkpt>
      <trkpt lat="42.1138650" lon="-8.8587050">
        <ele>68.8</ele>
        <time>2021-05-19T13:45:59Z</time>
      </trkpt>
      <trkpt lat="42.1138690" lon="-8.8587080">
        <ele>68.8</ele>
        <time>2021-05-19T13:46:00Z</time>
      </trkpt>
      <trkpt lat="42.1138670" lon="-8.8587070">
        <ele>68.8</ele>
        <time>2021-05-19T13:46:01Z</time>
      </trkpt>
      <trkpt lat="42.1138690" lon="-8.8587160">
        <ele>68.7</ele>
        <time>2021-05-19T13:46:02Z</time>
      </trkpt>
      <trkpt lat="42.1138730" lon="-8.8587150">
        <ele>68.7</ele>
        <time>2021-05-19T13:46:03Z</time>
      </trkpt>
      <trkpt lat="42.1138700" lon="-8.8587130">
        <ele>68.7</ele>
        <time>2021-05-19T13:46:04Z</time>
      </trkpt>
      <trkpt lat="42.1138670" lon="-8.8587130">
        <ele>68.7</ele>
        <time>2021-05-19T13:46:05Z</time>
      </trkpt>
      <trkpt lat="42.1138730" lon="-8.8587130">
        <ele>68.6</ele>
        <time>2021-05-19T13:46:06Z</time>
      </trkpt>
      <trkpt lat="42.1138710" lon="-8.8587110">
        <ele>68.6</ele>
        <time>2021-05-19T13:46:07Z</time>
      </trkpt>
      <trkpt lat="42.1138690" lon="-8.8587130">
        <ele>68.6</ele>
        <time>2021-05-19T13:46:08Z</time>
      </trkpt>
      <trkpt lat="42.1138660" lon="-8.8587150">
        <ele>68.6</ele>
        <time>2021-05-19T13:46:09Z</time>
      </trkpt>
      <trkpt lat="42.1138690" lon="-8.8587110">
        <ele>68.6</ele>
        <time>2021-05-19T13:46:10Z</time>
      </trkpt>
      <trkpt lat="42.1138690" lon="-8.8587100">
        <ele>68.6</ele>
        <time>2021-05-19T13:46:11Z</time>
      </trkpt>
      <trkpt lat="42.1138660" lon="-8.8587110">
        <ele>68.5</ele>
        <time>2021-05-19T13:46:12Z</time>
      </trkpt>
      <trkpt lat="42.1138670" lon="-8.8587110">
        <ele>68.5</ele>
        <time>2021-05-19T13:46:13Z</time>
      </trkpt>
      <trkpt lat="42.1138710" lon="-8.8587080">
        <ele>68.5</ele>
        <time>2021-05-19T13:46:14Z</time>
      </trkpt>
      <trkpt lat="42.1138770" lon="-8.8587100">
        <ele>68.5</ele>
        <time>2021-05-19T13:46:15Z</time>
      </trkpt>
      <trkpt lat="42.1138800" lon="-8.8587070">
        <ele>68.5</ele>
        <time>2021-05-19T13:46:16Z</time>
      </trkpt>
      <trkpt lat="42.1138810" lon="-8.8587080">
        <ele>68.4</ele>
        <time>2021-05-19T13:46:17Z</time>
      </trkpt>
      <trkpt lat="42.1138780" lon="-8.8587050">
        <ele>68.4</ele>
        <time>2021-05-19T13:46:18Z</time>
      </trkpt>
      <trkpt lat="42.1138810" lon="-8.8587050">
        <ele>68.4</ele>
        <time>2021-05-19T13:46:19Z</time>
      </trkpt>
      <trkpt lat="42.1138850" lon="-8.8587040">
        <ele>68.4</ele>
        <time>2021-05-19T13:46:20Z</time>
      </trkpt>
      <trkpt lat="42.1138950" lon="-8.8587030">
        <ele>68.3</ele>
        <time>2021-05-19T13:46:21Z</time>
      </trkpt>
      <trkpt lat="42.1139030" lon="-8.8586940">
        <ele>68.3</ele>
        <time>2021-05-19T13:46:22Z</time>
      </trkpt>
      <trkpt lat="42.1139050" lon="-8.8586880">
        <ele>68.2</ele>
        <time>2021-05-19T13:46:23Z</time>
      </trkpt>
      <trkpt lat="42.1139130" lon="-8.8586840">
        <ele>68.2</ele>
        <time>2021-05-19T13:46:24Z</time>
      </trkpt>
      <trkpt lat="42.1139220" lon="-8.8586770">
        <ele>68.1</ele>
        <time>2021-05-19T13:46:25Z</time>
      </trkpt>
      <trkpt lat="42.1139330" lon="-8.8586670">
        <ele>68.1</ele>
        <time>2021-05-19T13:46:26Z</time>
      </trkpt>
      <trkpt lat="42.1139480" lon="-8.8586610">
        <ele>68.0</ele>
        <time>2021-05-19T13:46:27Z</time>
      </trkpt>
      <trkpt lat="42.1139570" lon="-8.8586560">
        <ele>67.9</ele>
        <time>2021-05-19T13:46:28Z</time>
      </trkpt>
      <trkpt lat="42.1139650" lon="-8.8586520">
        <ele>67.9</ele>
        <time>2021-05-19T13:46:29Z</time>
      </trkpt>
      <trkpt lat="42.1139730" lon="-8.8586470">
        <ele>67.8</ele>
        <time>2021-05-19T13:46:30Z</time>
      </trkpt>
      <trkpt lat="42.1139820" lon="-8.8586500">
        <ele>67.8</ele>
        <time>2021-05-19T13:46:31Z</time>
      </trkpt>
      <trkpt lat="42.1139900" lon="-8.8586480">
        <ele>67.7</ele>
        <time>2021-05-19T13:46:32Z</time>
      </trkpt>
      <trkpt lat="42.1139970" lon="-8.8586390">
        <ele>67.7</ele>
        <time>2021-05-19T13:46:33Z</time>
      </trkpt>
      <trkpt lat="42.1140050" lon="-8.8586320">
        <ele>67.6</ele>
        <time>2021-05-19T13:46:34Z</time>
      </trkpt>
      <trkpt lat="42.1140250" lon="-8.8586310">
        <ele>67.5</ele>
        <time>2021-05-19T13:46:35Z</time>
      </trkpt>
      <trkpt lat="42.1140340" lon="-8.8586230">
        <ele>67.5</ele>
        <time>2021-05-19T13:46:36Z</time>
      </trkpt>
      <trkpt lat="42.1140490" lon="-8.8586160">
        <ele>67.4</ele>
        <time>2021-05-19T13:46:37Z</time>
      </trkpt>
      <trkpt lat="42.1140610" lon="-8.8586050">
        <ele>67.3</ele>
        <time>2021-05-19T13:46:38Z</time>
      </trkpt>
      <trkpt lat="42.1140770" lon="-8.8585990">
        <ele>67.2</ele>
        <time>2021-05-19T13:46:39Z</time>
      </trkpt>
      <trkpt lat="42.1140880" lon="-8.8585910">
        <ele>67.1</ele>
        <time>2021-05-19T13:46:40Z</time>
      </trkpt>
      <trkpt lat="42.1140930" lon="-8.8585870">
        <ele>67.1</ele>
        <time>2021-05-19T13:46:41Z</time>
      </trkpt>
      <trkpt lat="42.1141020" lon="-8.8585740">
        <ele>67.0</ele>
        <time>2021-05-19T13:46:42Z</time>
      </trkpt>
      <trkpt lat="42.1141120" lon="-8.8585650">
        <ele>66.9</ele>
        <time>2021-05-19T13:46:43Z</time>
      </trkpt>
      <trkpt lat="42.1141180" lon="-8.8585560">
        <ele>66.8</ele>
        <time>2021-05-19T13:46:44Z</time>
      </trkpt>
      <trkpt lat="42.1141260" lon="-8.8585510">
        <ele>66.8</ele>
        <time>2021-05-19T13:46:45Z</time>
      </trkpt>
      <trkpt lat="42.1141350" lon="-8.8585370">
        <ele>66.7</ele>
        <time>2021-05-19T13:46:46Z</time>
      </trkpt>
      <trkpt lat="42.1141410" lon="-8.8585340">
        <ele>66.6</ele>
        <time>2021-05-19T13:46:47Z</time>
      </trkpt>
      <trkpt lat="42.1141500" lon="-8.8585230">
        <ele>66.6</ele>
        <time>2021-05-19T13:46:48Z</time>
      </trkpt>
      <trkpt lat="42.1141570" lon="-8.8585110">
        <ele>66.5</ele>
        <time>2021-05-19T13:46:49Z</time>
      </trkpt>
      <trkpt lat="42.1141560" lon="-8.8584970">
        <ele>66.4</ele>
        <time>2021-05-19T13:46:50Z</time>
      </trkpt>
      <trkpt lat="42.1141540" lon="-8.8584830">
        <ele>66.3</ele>
        <time>2021-05-19T13:46:51Z</time>
      </trkpt>
      <trkpt lat="42.1141580" lon="-8.8584740">
        <ele>66.2</ele>
        <time>2021-05-19T13:46:52Z</time>
      </trkpt>
      <trkpt lat="42.1141570" lon="-8.8584710">
        <ele>66.2</ele>
        <time>2021-05-19T13:46:53Z</time>
      </trkpt>
      <trkpt lat="42.1141570" lon="-8.8584520">
        <ele>66.1</ele>
        <time>2021-05-19T13:46:54Z</time>
      </trkpt>
      <trkpt lat="42.1141580" lon="-8.8584270">
        <ele>66.0</ele>
        <time>2021-05-19T13:46:55Z</time>
      </trkpt>
      <trkpt lat="42.1141710" lon="-8.8584300">
        <ele>65.8</ele>
        <time>2021-05-19T13:46:56Z</time>
      </trkpt>
      <trkpt lat="42.1141730" lon="-8.8584070">
        <ele>65.7</ele>
        <time>2021-05-19T13:46:57Z</time>
      </trkpt>
      <trkpt lat="42.1141760" lon="-8.8583910">
        <ele>65.6</ele>
        <time>2021-05-19T13:46:58Z</time>
      </trkpt>
      <trkpt lat="42.1141760" lon="-8.8583780">
        <ele>65.5</ele>
        <time>2021-05-19T13:46:59Z</time>
      </trkpt>
      <trkpt lat="42.1141760" lon="-8.8583670">
        <ele>65.4</ele>
        <time>2021-05-19T13:47:00Z</time>
      </trkpt>
      <trkpt lat="42.1141700" lon="-8.8583600">
        <ele>65.3</ele>
        <time>2021-05-19T13:47:01Z</time>
      </trkpt>
      <trkpt lat="42.1141690" lon="-8.8583470">
        <ele>65.3</ele>
        <time>2021-05-19T13:47:02Z</time>
      </trkpt>
      <trkpt lat="42.1141680" lon="-8.8583260">
        <ele>65.1</ele>
        <time>2021-05-19T13:47:03Z</time>
      </trkpt>
      <trkpt lat="42.1141640" lon="-8.8583160">
        <ele>65.0</ele>
        <time>2021-05-19T13:47:04Z</time>
      </trkpt>
      <trkpt lat="42.1141630" lon="-8.8583040">
        <ele>65.0</ele>
        <time>2021-05-19T13:47:05Z</time>
      </trkpt>
      <trkpt lat="42.1141600" lon="-8.8582960">
        <ele>64.9</ele>
        <time>2021-05-19T13:47:06Z</time>
      </trkpt>
      <trkpt lat="42.1141630" lon="-8.8582890">
        <ele>64.8</ele>
        <time>2021-05-19T13:47:07Z</time>
      </trkpt>
      <trkpt lat="42.1141650" lon="-8.8582770">
        <ele>64.8</ele>
        <time>2021-05-19T13:47:08Z</time>
      </trkpt>
      <trkpt lat="42.1141610" lon="-8.8582650">
        <ele>64.7</ele>
        <time>2021-05-19T13:47:09Z</time>
      </trkpt>
      <trkpt lat="42.1141630" lon="-8.8582590">
        <ele>64.6</ele>
        <time>2021-05-19T13:47:10Z</time>
      </trkpt>
      <trkpt lat="42.1141690" lon="-8.8582500">
        <ele>64.5</ele>
        <time>2021-05-19T13:47:11Z</time>
      </trkpt>
      <trkpt lat="42.1141750" lon="-8.8582360">
        <ele>64.4</ele>
        <time>2021-05-19T13:47:12Z</time>
      </trkpt>
      <trkpt lat="42.1141720" lon="-8.8582220">
        <ele>64.3</ele>
        <time>2021-05-19T13:47:13Z</time>
      </trkpt>
      <trkpt lat="42.1141720" lon="-8.8582120">
        <ele>64.3</ele>
        <time>2021-05-19T13:47:14Z</time>
      </trkpt>
      <trkpt lat="42.1141730" lon="-8.8582010">
        <ele>64.2</ele>
        <time>2021-05-19T13:47:15Z</time>
      </trkpt>
      <trkpt lat="42.1141720" lon="-8.8581820">
        <ele>64.1</ele>
        <time>2021-05-19T13:47:16Z</time>
      </trkpt>
      <trkpt lat="42.1141760" lon="-8.8581620">
        <ele>63.9</ele>
        <time>2021-05-19T13:47:17Z</time>
      </trkpt>
      <trkpt lat="42.1141760" lon="-8.8581560">
        <ele>63.9</ele>
        <time>2021-05-19T13:47:18Z</time>
      </trkpt>
      <trkpt lat="42.1141760" lon="-8.8581450">
        <ele>63.8</ele>
        <time>2021-05-19T13:47:19Z</time>
      </trkpt>
      <trkpt lat="42.1141790" lon="-8.8581270">
        <ele>63.7</ele>
        <time>2021-05-19T13:47:20Z</time>
      </trkpt>
      <trkpt lat="42.1141830" lon="-8.8581120">
        <ele>63.6</ele>
        <time>2021-05-19T13:47:21Z</time>
      </trkpt>
      <trkpt lat="42.1141860" lon="-8.8581000">
        <ele>63.5</ele>
        <time>2021-05-19T13:47:22Z</time>
      </trkpt>
      <trkpt lat="42.1142000" lon="-8.8580870">
        <ele>63.4</ele>
        <time>2021-05-19T13:47:23Z</time>
      </trkpt>
      <trkpt lat="42.1142090" lon="-8.8580810">
        <ele>63.3</ele>
        <time>2021-05-19T13:47:24Z</time>
      </trkpt>
      <trkpt lat="42.1142170" lon="-8.8580740">
        <ele>63.2</ele>
        <time>2021-05-19T13:47:25Z</time>
      </trkpt>
      <trkpt lat="42.1142210" lon="-8.8580750">
        <ele>63.2</ele>
        <time>2021-05-19T13:47:26Z</time>
      </trkpt>
      <trkpt lat="42.1142330" lon="-8.8580720">
        <ele>63.1</ele>
        <time>2021-05-19T13:47:27Z</time>
      </trkpt>
      <trkpt lat="42.1142390" lon="-8.8580710">
        <ele>63.1</ele>
        <time>2021-05-19T13:47:28Z</time>
      </trkpt>
      <trkpt lat="42.1142440" lon="-8.8580690">
        <ele>63.0</ele>
        <time>2021-05-19T13:47:29Z</time>
      </trkpt>
      <trkpt lat="42.1142640" lon="-8.8580660">
        <ele>62.9</ele>
        <time>2021-05-19T13:47:30Z</time>
      </trkpt>
      <trkpt lat="42.1142740" lon="-8.8580660">
        <ele>62.8</ele>
        <time>2021-05-19T13:47:31Z</time>
      </trkpt>
      <trkpt lat="42.1142830" lon="-8.8580670">
        <ele>62.8</ele>
        <time>2021-05-19T13:47:32Z</time>
      </trkpt>
      <trkpt lat="42.1143010" lon="-8.8580700">
        <ele>62.7</ele>
        <time>2021-05-19T13:47:33Z</time>
      </trkpt>
      <trkpt lat="42.1143090" lon="-8.8580710">
        <ele>62.6</ele>
        <time>2021-05-19T13:47:34Z</time>
      </trkpt>
      <trkpt lat="42.1143160" lon="-8.8580710">
        <ele>62.6</ele>
        <time>2021-05-19T13:47:35Z</time>
      </trkpt>
      <trkpt lat="42.1143240" lon="-8.8580720">
        <ele>62.5</ele>
        <time>2021-05-19T13:47:36Z</time>
      </trkpt>
      <trkpt lat="42.1143340" lon="-8.8580730">
        <ele>62.5</ele>
        <time>2021-05-19T13:47:37Z</time>
      </trkpt>
      <trkpt lat="42.1143460" lon="-8.8580750">
        <ele>62.4</ele>
        <time>2021-05-19T13:47:38Z</time>
      </trkpt>
      <trkpt lat="42.1143580" lon="-8.8580770">
        <ele>62.4</ele>
        <time>2021-05-19T13:47:39Z</time>
      </trkpt>
      <trkpt lat="42.1143690" lon="-8.8580790">
        <ele>62.3</ele>
        <time>2021-05-19T13:47:40Z</time>
      </trkpt>
      <trkpt lat="42.1143780" lon="-8.8580780">
        <ele>62.3</ele>
        <time>2021-05-19T13:47:41Z</time>
      </trkpt>
      <trkpt lat="42.1143860" lon="-8.8580770">
        <ele>62.2</ele>
        <time>2021-05-19T13:47:42Z</time>
      </trkpt>
      <trkpt lat="42.1143940" lon="-8.8580760">
        <ele>62.2</ele>
        <time>2021-05-19T13:47:43Z</time>
      </trkpt>
      <trkpt lat="42.1144020" lon="-8.8580740">
        <ele>62.2</ele>
        <time>2021-05-19T13:47:44Z</time>
      </trkpt>
      <trkpt lat="42.1144150" lon="-8.8580730">
        <ele>62.1</ele>
        <time>2021-05-19T13:47:45Z</time>
      </trkpt>
      <trkpt lat="42.1144280" lon="-8.8580700">
        <ele>62.0</ele>
        <time>2021-05-19T13:47:46Z</time>
      </trkpt>
      <trkpt lat="42.1144400" lon="-8.8580640">
        <ele>62.0</ele>
        <time>2021-05-19T13:47:47Z</time>
      </trkpt>
      <trkpt lat="42.1144480" lon="-8.8580640">
        <ele>62.0</ele>
        <time>2021-05-19T13:47:48Z</time>
      </trkpt>
      <trkpt lat="42.1144510" lon="-8.8580610">
        <ele>61.9</ele>
        <time>2021-05-19T13:47:49Z</time>
      </trkpt>
      <trkpt lat="42.1144600" lon="-8.8580610">
        <ele>61.9</ele>
        <time>2021-05-19T13:47:50Z</time>
      </trkpt>
      <trkpt lat="42.1144790" lon="-8.8580620">
        <ele>61.8</ele>
        <time>2021-05-19T13:47:51Z</time>
      </trkpt>
      <trkpt lat="42.1144880" lon="-8.8580590">
        <ele>61.8</ele>
        <time>2021-05-19T13:47:52Z</time>
      </trkpt>
      <trkpt lat="42.1144970" lon="-8.8580570">
        <ele>61.8</ele>
        <time>2021-05-19T13:47:53Z</time>
      </trkpt>
      <trkpt lat="42.1145090" lon="-8.8580520">
        <ele>61.7</ele>
        <time>2021-05-19T13:47:54Z</time>
      </trkpt>
      <trkpt lat="42.1145150" lon="-8.8580560">
        <ele>61.7</ele>
        <time>2021-05-19T13:47:55Z</time>
      </trkpt>
      <trkpt lat="42.1145210" lon="-8.8580530">
        <ele>61.6</ele>
        <time>2021-05-19T13:47:56Z</time>
      </trkpt>
      <trkpt lat="42.1145330" lon="-8.8580570">
        <ele>61.6</ele>
        <time>2021-05-19T13:47:57Z</time>
      </trkpt>
      <trkpt lat="42.1145410" lon="-8.8580570">
        <ele>61.6</ele>
        <time>2021-05-19T13:47:58Z</time>
      </trkpt>
      <trkpt lat="42.1145600" lon="-8.8580470">
        <ele>61.5</ele>
        <time>2021-05-19T13:47:59Z</time>
      </trkpt>
      <trkpt lat="42.1145670" lon="-8.8580450">
        <ele>61.4</ele>
        <time>2021-05-19T13:48:00Z</time>
      </trkpt>
      <trkpt lat="42.1145770" lon="-8.8580470">
        <ele>61.4</ele>
        <time>2021-05-19T13:48:01Z</time>
      </trkpt>
      <trkpt lat="42.1145870" lon="-8.8580440">
        <ele>61.3</ele>
        <time>2021-05-19T13:48:02Z</time>
      </trkpt>
      <trkpt lat="42.1145980" lon="-8.8580400">
        <ele>61.3</ele>
        <time>2021-05-19T13:48:03Z</time>
      </trkpt>
      <trkpt lat="42.1146040" lon="-8.8580340">
        <ele>61.3</ele>
        <time>2021-05-19T13:48:04Z</time>
      </trkpt>
      <trkpt lat="42.1146120" lon="-8.8580190">
        <ele>61.2</ele>
        <time>2021-05-19T13:48:05Z</time>
      </trkpt>
      <trkpt lat="42.1146220" lon="-8.8580120">
        <ele>61.1</ele>
        <time>2021-05-19T13:48:06Z</time>
      </trkpt>
      <trkpt lat="42.1146240" lon="-8.8579970">
        <ele>61.1</ele>
        <time>2021-05-19T13:48:07Z</time>
      </trkpt>
      <trkpt lat="42.1146300" lon="-8.8579810">
        <ele>61.0</ele>
        <time>2021-05-19T13:48:08Z</time>
      </trkpt>
      <trkpt lat="42.1146350" lon="-8.8579630">
        <ele>61.0</ele>
        <time>2021-05-19T13:48:09Z</time>
      </trkpt>
      <trkpt lat="42.1146280" lon="-8.8579630">
        <ele>60.9</ele>
        <time>2021-05-19T13:48:10Z</time>
      </trkpt>
      <trkpt lat="42.1146250" lon="-8.8579660">
        <ele>60.9</ele>
        <time>2021-05-19T13:48:11Z</time>
      </trkpt>
      <trkpt lat="42.1146240" lon="-8.8579610">
        <ele>60.9</ele>
        <time>2021-05-19T13:48:12Z</time>
      </trkpt>
      <trkpt lat="42.1146270" lon="-8.8579550">
        <ele>60.9</ele>
        <time>2021-05-19T13:48:13Z</time>
      </trkpt>
      <trkpt lat="42.1146240" lon="-8.8579480">
        <ele>60.9</ele>
        <time>2021-05-19T13:48:14Z</time>
      </trkpt>
      <trkpt lat="42.1146240" lon="-8.8579480">
        <ele>60.9</ele>
        <time>2021-05-19T13:48:15Z</time>
      </trkpt>
      <trkpt lat="42.1146240" lon="-8.8579440">
        <ele>60.8</ele>
        <time>2021-05-19T13:48:16Z</time>
      </trkpt>
      <trkpt lat="42.1146250" lon="-8.8579430">
        <ele>60.8</ele>
        <time>2021-05-19T13:48:17Z</time>
      </trkpt>
      <trkpt lat="42.1146260" lon="-8.8579430">
        <ele>60.8</ele>
        <time>2021-05-19T13:48:18Z</time>
      </trkpt>
      <trkpt lat="42.1146250" lon="-8.8579430">
        <ele>60.8</ele>
        <time>2021-05-19T13:48:19Z</time>
      </trkpt>
      <trkpt lat="42.1146250" lon="-8.8579380">
        <ele>60.8</ele>
        <time>2021-05-19T13:48:20Z</time>
      </trkpt>
      <trkpt lat="42.1146250" lon="-8.8579290">
        <ele>60.8</ele>
        <time>2021-05-19T13:48:21Z</time>
      </trkpt>
      <trkpt lat="42.1146240" lon="-8.8579160">
        <ele>60.7</ele>
        <time>2021-05-19T13:48:22Z</time>
      </trkpt>
      <trkpt lat="42.1146200" lon="-8.8579060">
        <ele>60.7</ele>
        <time>2021-05-19T13:48:23Z</time>
      </trkpt>
      <trkpt lat="42.1146300" lon="-8.8578840">
        <ele>60.6</ele>
        <time>2021-05-19T13:48:24Z</time>
      </trkpt>
      <trkpt lat="42.1146330" lon="-8.8578720">
        <ele>60.6</ele>
        <time>2021-05-19T13:48:25Z</time>
      </trkpt>
      <trkpt lat="42.1146370" lon="-8.8578610">
        <ele>60.6</ele>
        <time>2021-05-19T13:48:26Z</time>
      </trkpt>
      <trkpt lat="42.1146360" lon="-8.8578380">
        <ele>60.5</ele>
        <time>2021-05-19T13:48:27Z</time>
      </trkpt>
      <trkpt lat="42.1146370" lon="-8.8578300">
        <ele>60.5</ele>
        <time>2021-05-19T13:48:28Z</time>
      </trkpt>
      <trkpt lat="42.1146380" lon="-8.8578210">
        <ele>60.5</ele>
        <time>2021-05-19T13:48:29Z</time>
      </trkpt>
      <trkpt lat="42.1146390" lon="-8.8578130">
        <ele>60.4</ele>
        <time>2021-05-19T13:48:30Z</time>
      </trkpt>
      <trkpt lat="42.1146400" lon="-8.8578050">
        <ele>60.4</ele>
        <time>2021-05-19T13:48:31Z</time>
      </trkpt>
      <trkpt lat="42.1146390" lon="-8.8577880">
        <ele>60.4</ele>
        <time>2021-05-19T13:48:32Z</time>
      </trkpt>
      <trkpt lat="42.1146420" lon="-8.8577790">
        <ele>60.4</ele>
        <time>2021-05-19T13:48:33Z</time>
      </trkpt>
      <trkpt lat="42.1146480" lon="-8.8577680">
        <ele>60.3</ele>
        <time>2021-05-19T13:48:34Z</time>
      </trkpt>
      <trkpt lat="42.1146510" lon="-8.8577480">
        <ele>60.3</ele>
        <time>2021-05-19T13:48:35Z</time>
      </trkpt>
      <trkpt lat="42.1146540" lon="-8.8577290">
        <ele>60.2</ele>
        <time>2021-05-19T13:48:36Z</time>
      </trkpt>
      <trkpt lat="42.1146590" lon="-8.8577130">
        <ele>60.2</ele>
        <time>2021-05-19T13:48:37Z</time>
      </trkpt>
      <trkpt lat="42.1146580" lon="-8.8577000">
        <ele>60.2</ele>
        <time>2021-05-19T13:48:38Z</time>
      </trkpt>
      <trkpt lat="42.1146560" lon="-8.8576820">
        <ele>60.1</ele>
        <time>2021-05-19T13:48:39Z</time>
      </trkpt>
      <trkpt lat="42.1146610" lon="-8.8576770">
        <ele>60.1</ele>
        <time>2021-05-19T13:48:40Z</time>
      </trkpt>
      <trkpt lat="42.1146570" lon="-8.8576500">
        <ele>60.1</ele>
        <time>2021-05-19T13:48:41Z</time>
      </trkpt>
      <trkpt lat="42.1146540" lon="-8.8576350">
        <ele>60.0</ele>
        <time>2021-05-19T13:48:42Z</time>
      </trkpt>
      <trkpt lat="42.1146590" lon="-8.8576050">
        <ele>60.0</ele>
        <time>2021-05-19T13:48:43Z</time>
      </trkpt>
      <trkpt lat="42.1146610" lon="-8.8575920">
        <ele>60.0</ele>
        <time>2021-05-19T13:48:44Z</time>
      </trkpt>
      <trkpt lat="42.1146620" lon="-8.8575800">
        <ele>59.9</ele>
        <time>2021-05-19T13:48:45Z</time>
      </trkpt>
      <trkpt lat="42.1146650" lon="-8.8575660">
        <ele>59.9</ele>
        <time>2021-05-19T13:48:46Z</time>
      </trkpt>
      <trkpt lat="42.1146650" lon="-8.8575560">
        <ele>59.9</ele>
        <time>2021-05-19T13:48:47Z</time>
      </trkpt>
      <trkpt lat="42.1146700" lon="-8.8575420">
        <ele>59.9</ele>
        <time>2021-05-19T13:48:48Z</time>
      </trkpt>
      <trkpt lat="42.1146680" lon="-8.8575360">
        <ele>59.9</ele>
        <time>2021-05-19T13:48:49Z</time>
      </trkpt>
      <trkpt lat="42.1146720" lon="-8.8575200">
        <ele>59.8</ele>
        <time>2021-05-19T13:48:50Z</time>
      </trkpt>
      <trkpt lat="42.1146690" lon="-8.8575050">
        <ele>59.8</ele>
        <time>2021-05-19T13:48:51Z</time>
      </trkpt>
      <trkpt lat="42.1146790" lon="-8.8574850">
        <ele>59.8</ele>
        <time>2021-05-19T13:48:52Z</time>
      </trkpt>
      <trkpt lat="42.1146810" lon="-8.8574720">
        <ele>59.7</ele>
        <time>2021-05-19T13:48:53Z</time>
      </trkpt>
      <trkpt lat="42.1146820" lon="-8.8574580">
        <ele>59.7</ele>
        <time>2021-05-19T13:48:54Z</time>
      </trkpt>
      <trkpt lat="42.1146840" lon="-8.8574440">
        <ele>59.7</ele>
        <time>2021-05-19T13:48:55Z</time>
      </trkpt>
      <trkpt lat="42.1146820" lon="-8.8574210">
        <ele>59.7</ele>
        <time>2021-05-19T13:48:56Z</time>
      </trkpt>
      <trkpt lat="42.1146870" lon="-8.8574040">
        <ele>59.6</ele>
        <time>2021-05-19T13:48:57Z</time>
      </trkpt>
      <trkpt lat="42.1146880" lon="-8.8573850">
        <ele>59.6</ele>
        <time>2021-05-19T13:48:58Z</time>
      </trkpt>
      <trkpt lat="42.1146940" lon="-8.8573750">
        <ele>59.6</ele>
        <time>2021-05-19T13:48:59Z</time>
      </trkpt>
      <trkpt lat="42.1146990" lon="-8.8573620">
        <ele>59.6</ele>
        <time>2021-05-19T13:49:00Z</time>
      </trkpt>
      <trkpt lat="42.1147060" lon="-8.8573520">
        <ele>59.6</ele>
        <time>2021-05-19T13:49:01Z</time>
      </trkpt>
      <trkpt lat="42.1147140" lon="-8.8573390">
        <ele>59.5</ele>
        <time>2021-05-19T13:49:02Z</time>
      </trkpt>
      <trkpt lat="42.1147220" lon="-8.8573270">
        <ele>59.5</ele>
        <time>2021-05-19T13:49:03Z</time>
      </trkpt>
      <trkpt lat="42.1147340" lon="-8.8573120">
        <ele>59.5</ele>
        <time>2021-05-19T13:49:04Z</time>
      </trkpt>
      <trkpt lat="42.1147460" lon="-8.8572980">
        <ele>59.5</ele>
        <time>2021-05-19T13:49:05Z</time>
      </trkpt>
      <trkpt lat="42.1147610" lon="-8.8572870">
        <ele>59.5</ele>
        <time>2021-05-19T13:49:06Z</time>
      </trkpt>
      <trkpt lat="42.1147660" lon="-8.8572810">
        <ele>59.5</ele>
        <time>2021-05-19T13:49:07Z</time>
      </trkpt>
      <trkpt lat="42.1147710" lon="-8.8572740">
        <ele>59.4</ele>
        <time>2021-05-19T13:49:08Z</time>
      </trkpt>
      <trkpt lat="42.1147760" lon="-8.8572680">
        <ele>59.4</ele>
        <time>2021-05-19T13:49:09Z</time>
      </trkpt>
      <trkpt lat="42.1147810" lon="-8.8572610">
        <ele>59.4</ele>
        <time>2021-05-19T13:49:10Z</time>
      </trkpt>
      <trkpt lat="42.1147850" lon="-8.8572530">
        <ele>59.4</ele>
        <time>2021-05-19T13:49:11Z</time>
      </trkpt>
      <trkpt lat="42.1147980" lon="-8.8572400">
        <ele>59.4</ele>
        <time>2021-05-19T13:49:12Z</time>
      </trkpt>
      <trkpt lat="42.1148020" lon="-8.8572320">
        <ele>59.4</ele>
        <time>2021-05-19T13:49:13Z</time>
      </trkpt>
      <trkpt lat="42.1148100" lon="-8.8572220">
        <ele>59.4</ele>
        <time>2021-05-19T13:49:14Z</time>
      </trkpt>
      <trkpt lat="42.1148130" lon="-8.8572230">
        <ele>59.4</ele>
        <time>2021-05-19T13:49:15Z</time>
      </trkpt>
      <trkpt lat="42.1148320" lon="-8.8572130">
        <ele>59.3</ele>
        <time>2021-05-19T13:49:16Z</time>
      </trkpt>
      <trkpt lat="42.1148410" lon="-8.8572070">
        <ele>59.3</ele>
        <time>2021-05-19T13:49:17Z</time>
      </trkpt>
      <trkpt lat="42.1148510" lon="-8.8572040">
        <ele>59.3</ele>
        <time>2021-05-19T13:49:18Z</time>
      </trkpt>
      <trkpt lat="42.1148600" lon="-8.8571930">
        <ele>59.3</ele>
        <time>2021-05-19T13:49:19Z</time>
      </trkpt>
      <trkpt lat="42.1148700" lon="-8.8571800">
        <ele>59.3</ele>
        <time>2021-05-19T13:49:20Z</time>
      </trkpt>
      <trkpt lat="42.1148780" lon="-8.8571760">
        <ele>59.3</ele>
        <time>2021-05-19T13:49:21Z</time>
      </trkpt>
      <trkpt lat="42.1148880" lon="-8.8571690">
        <ele>59.3</ele>
        <time>2021-05-19T13:49:22Z</time>
      </trkpt>
      <trkpt lat="42.1148990" lon="-8.8571590">
        <ele>59.2</ele>
        <time>2021-05-19T13:49:23Z</time>
      </trkpt>
      <trkpt lat="42.1149020" lon="-8.8571510">
        <ele>59.2</ele>
        <time>2021-05-19T13:49:24Z</time>
      </trkpt>
      <trkpt lat="42.1149080" lon="-8.8571410">
        <ele>59.2</ele>
        <time>2021-05-19T13:49:25Z</time>
      </trkpt>
      <trkpt lat="42.1149220" lon="-8.8571220">
        <ele>59.2</ele>
        <time>2021-05-19T13:49:26Z</time>
      </trkpt>
      <trkpt lat="42.1149280" lon="-8.8571150">
        <ele>59.2</ele>
        <time>2021-05-19T13:49:27Z</time>
      </trkpt>
      <trkpt lat="42.1149350" lon="-8.8571090">
        <ele>59.2</ele>
        <time>2021-05-19T13:49:28Z</time>
      </trkpt>
      <trkpt lat="42.1149420" lon="-8.8570970">
        <ele>59.2</ele>
        <time>2021-05-19T13:49:29Z</time>
      </trkpt>
      <trkpt lat="42.1149500" lon="-8.8570820">
        <ele>59.1</ele>
        <time>2021-05-19T13:49:30Z</time>
      </trkpt>
      <trkpt lat="42.1149600" lon="-8.8570750">
        <ele>59.1</ele>
        <time>2021-05-19T13:49:31Z</time>
      </trkpt>
      <trkpt lat="42.1149730" lon="-8.8570690">
        <ele>59.0</ele>
        <time>2021-05-19T13:49:32Z</time>
      </trkpt>
      <trkpt lat="42.1149820" lon="-8.8570650">
        <ele>59.0</ele>
        <time>2021-05-19T13:49:33Z</time>
      </trkpt>
      <trkpt lat="42.1149900" lon="-8.8570620">
        <ele>58.9</ele>
        <time>2021-05-19T13:49:34Z</time>
      </trkpt>
      <trkpt lat="42.1149990" lon="-8.8570580">
        <ele>58.9</ele>
        <time>2021-05-19T13:49:35Z</time>
      </trkpt>
      <trkpt lat="42.1150070" lon="-8.8570550">
        <ele>58.8</ele>
        <time>2021-05-19T13:49:36Z</time>
      </trkpt>
      <trkpt lat="42.1150110" lon="-8.8570550">
        <ele>58.8</ele>
        <time>2021-05-19T13:49:37Z</time>
      </trkpt>
      <trkpt lat="42.1150250" lon="-8.8570440">
        <ele>58.7</ele>
        <time>2021-05-19T13:49:38Z</time>
      </trkpt>
      <trkpt lat="42.1150430" lon="-8.8570340">
        <ele>58.6</ele>
        <time>2021-05-19T13:49:39Z</time>
      </trkpt>
      <trkpt lat="42.1150520" lon="-8.8570320">
        <ele>58.6</ele>
        <time>2021-05-19T13:49:40Z</time>
      </trkpt>
      <trkpt lat="42.1150600" lon="-8.8570300">
        <ele>58.5</ele>
        <time>2021-05-19T13:49:41Z</time>
      </trkpt>
      <trkpt lat="42.1150730" lon="-8.8570270">
        <ele>58.5</ele>
        <time>2021-05-19T13:49:42Z</time>
      </trkpt>
      <trkpt lat="42.1150870" lon="-8.8570230">
        <ele>58.4</ele>
        <time>2021-05-19T13:49:43Z</time>
      </trkpt>
      <trkpt lat="42.1151110" lon="-8.8570230">
        <ele>58.2</ele>
        <time>2021-05-19T13:49:44Z</time>
      </trkpt>
      <trkpt lat="42.1151190" lon="-8.8570240">
        <ele>58.2</ele>
        <time>2021-05-19T13:49:45Z</time>
      </trkpt>
      <trkpt lat="42.1151270" lon="-8.8570240">
        <ele>58.1</ele>
        <time>2021-05-19T13:49:46Z</time>
      </trkpt>
      <trkpt lat="42.1151450" lon="-8.8570120">
        <ele>58.0</ele>
        <time>2021-05-19T13:49:47Z</time>
      </trkpt>
      <trkpt lat="42.1151510" lon="-8.8570050">
        <ele>57.9</ele>
        <time>2021-05-19T13:49:48Z</time>
      </trkpt>
      <trkpt lat="42.1151570" lon="-8.8569970">
        <ele>57.8</ele>
        <time>2021-05-19T13:49:49Z</time>
      </trkpt>
      <trkpt lat="42.1151650" lon="-8.8569900">
        <ele>57.8</ele>
        <time>2021-05-19T13:49:50Z</time>
      </trkpt>
      <trkpt lat="42.1151720" lon="-8.8569800">
        <ele>57.7</ele>
        <time>2021-05-19T13:49:51Z</time>
      </trkpt>
      <trkpt lat="42.1151780" lon="-8.8569740">
        <ele>57.6</ele>
        <time>2021-05-19T13:49:52Z</time>
      </trkpt>
      <trkpt lat="42.1151860" lon="-8.8569730">
        <ele>57.6</ele>
        <time>2021-05-19T13:49:53Z</time>
      </trkpt>
      <trkpt lat="42.1151900" lon="-8.8569750">
        <ele>57.6</ele>
        <time>2021-05-19T13:49:54Z</time>
      </trkpt>
      <trkpt lat="42.1152030" lon="-8.8569750">
        <ele>57.5</ele>
        <time>2021-05-19T13:49:55Z</time>
      </trkpt>
      <trkpt lat="42.1152160" lon="-8.8569730">
        <ele>57.4</ele>
        <time>2021-05-19T13:49:56Z</time>
      </trkpt>
      <trkpt lat="42.1152230" lon="-8.8569670">
        <ele>57.3</ele>
        <time>2021-05-19T13:49:57Z</time>
      </trkpt>
      <trkpt lat="42.1152300" lon="-8.8569630">
        <ele>57.3</ele>
        <time>2021-05-19T13:49:58Z</time>
      </trkpt>
      <trkpt lat="42.1152440" lon="-8.8569530">
        <ele>57.1</ele>
        <time>2021-05-19T13:49:59Z</time>
      </trkpt>
      <trkpt lat="42.1152720" lon="-8.8569420">
        <ele>56.9</ele>
        <time>2021-05-19T13:50:00Z</time>
      </trkpt>
      <trkpt lat="42.1152860" lon="-8.8569380">
        <ele>56.8</ele>
        <time>2021-05-19T13:50:01Z</time>
      </trkpt>
      <trkpt lat="42.1153030" lon="-8.8569300">
        <ele>56.7</ele>
        <time>2021-05-19T13:50:02Z</time>
      </trkpt>
      <trkpt lat="42.1153200" lon="-8.8569250">
        <ele>56.6</ele>
        <time>2021-05-19T13:50:03Z</time>
      </trkpt>
      <trkpt lat="42.1153390" lon="-8.8569230">
        <ele>56.5</ele>
        <time>2021-05-19T13:50:04Z</time>
      </trkpt>
      <trkpt lat="42.1153530" lon="-8.8569180">
        <ele>56.4</ele>
        <time>2021-05-19T13:50:05Z</time>
      </trkpt>
      <trkpt lat="42.1153690" lon="-8.8569120">
        <ele>56.3</ele>
        <time>2021-05-19T13:50:06Z</time>
      </trkpt>
      <trkpt lat="42.1153860" lon="-8.8568970">
        <ele>56.1</ele>
        <time>2021-05-19T13:50:07Z</time>
      </trkpt>
      <trkpt lat="42.1153930" lon="-8.8568890">
        <ele>56.1</ele>
        <time>2021-05-19T13:50:08Z</time>
      </trkpt>
      <trkpt lat="42.1154010" lon="-8.8568800">
        <ele>56.0</ele>
        <time>2021-05-19T13:50:09Z</time>
      </trkpt>
      <trkpt lat="42.1154110" lon="-8.8568610">
        <ele>56.0</ele>
        <time>2021-05-19T13:50:10Z</time>
      </trkpt>
      <trkpt lat="42.1154200" lon="-8.8568520">
        <ele>55.9</ele>
        <time>2021-05-19T13:50:11Z</time>
      </trkpt>
      <trkpt lat="42.1154280" lon="-8.8568430">
        <ele>55.9</ele>
        <time>2021-05-19T13:50:12Z</time>
      </trkpt>
      <trkpt lat="42.1154350" lon="-8.8568350">
        <ele>55.9</ele>
        <time>2021-05-19T13:50:13Z</time>
      </trkpt>
      <trkpt lat="42.1154320" lon="-8.8568260">
        <ele>55.8</ele>
        <time>2021-05-19T13:50:14Z</time>
      </trkpt>
      <trkpt lat="42.1154450" lon="-8.8568220">
        <ele>55.8</ele>
        <time>2021-05-19T13:50:15Z</time>
      </trkpt>
      <trkpt lat="42.1154480" lon="-8.8568080">
        <ele>55.8</ele>
        <time>2021-05-19T13:50:16Z</time>
      </trkpt>
      <trkpt lat="42.1154580" lon="-8.8567920">
        <ele>55.8</ele>
        <time>2021-05-19T13:50:17Z</time>
      </trkpt>
      <trkpt lat="42.1154600" lon="-8.8567860">
        <ele>55.7</ele>
        <time>2021-05-19T13:50:18Z</time>
      </trkpt>
      <trkpt lat="42.1154710" lon="-8.8567710">
        <ele>55.7</ele>
        <time>2021-05-19T13:50:19Z</time>
      </trkpt>
      <trkpt lat="42.1154690" lon="-8.8567640">
        <ele>55.7</ele>
        <time>2021-05-19T13:50:20Z</time>
      </trkpt>
      <trkpt lat="42.1154840" lon="-8.8567450">
        <ele>55.7</ele>
        <time>2021-05-19T13:50:21Z</time>
      </trkpt>
      <trkpt lat="42.1154880" lon="-8.8567370">
        <ele>55.7</ele>
        <time>2021-05-19T13:50:22Z</time>
      </trkpt>
      <trkpt lat="42.1154980" lon="-8.8567240">
        <ele>55.7</ele>
        <time>2021-05-19T13:50:23Z</time>
      </trkpt>
      <trkpt lat="42.1155040" lon="-8.8567190">
        <ele>55.7</ele>
        <time>2021-05-19T13:50:24Z</time>
      </trkpt>
      <trkpt lat="42.1154990" lon="-8.8567080">
        <ele>55.7</ele>
        <time>2021-05-19T13:50:25Z</time>
      </trkpt>
      <trkpt lat="42.1154980" lon="-8.8566990">
        <ele>55.7</ele>
        <time>2021-05-19T13:50:26Z</time>
      </trkpt>
      <trkpt lat="42.1155050" lon="-8.8566810">
        <ele>55.7</ele>
        <time>2021-05-19T13:50:27Z</time>
      </trkpt>
      <trkpt lat="42.1155060" lon="-8.8566700">
        <ele>55.7</ele>
        <time>2021-05-19T13:50:28Z</time>
      </trkpt>
      <trkpt lat="42.1155110" lon="-8.8566550">
        <ele>55.7</ele>
        <time>2021-05-19T13:50:29Z</time>
      </trkpt>
      <trkpt lat="42.1155160" lon="-8.8566450">
        <ele>55.7</ele>
        <time>2021-05-19T13:50:30Z</time>
      </trkpt>
      <trkpt lat="42.1155210" lon="-8.8566300">
        <ele>55.7</ele>
        <time>2021-05-19T13:50:31Z</time>
      </trkpt>
      <trkpt lat="42.1155250" lon="-8.8566170">
        <ele>55.7</ele>
        <time>2021-05-19T13:50:32Z</time>
      </trkpt>
      <trkpt lat="42.1155340" lon="-8.8565940">
        <ele>55.7</ele>
        <time>2021-05-19T13:50:33Z</time>
      </trkpt>
      <trkpt lat="42.1155350" lon="-8.8565860">
        <ele>55.7</ele>
        <time>2021-05-19T13:50:34Z</time>
      </trkpt>
      <trkpt lat="42.1155360" lon="-8.8565770">
        <ele>55.7</ele>
        <time>2021-05-19T13:50:35Z</time>
      </trkpt>
      <trkpt lat="42.1155370" lon="-8.8565680">
        <ele>55.8</ele>
        <time>2021-05-19T13:50:36Z</time>
      </trkpt>
      <trkpt lat="42.1155420" lon="-8.8565500">
        <ele>55.8</ele>
        <time>2021-05-19T13:50:37Z</time>
      </trkpt>
      <trkpt lat="42.1155430" lon="-8.8565420">
        <ele>55.8</ele>
        <time>2021-05-19T13:50:38Z</time>
      </trkpt>
      <trkpt lat="42.1155470" lon="-8.8565310">
        <ele>55.8</ele>
        <time>2021-05-19T13:50:39Z</time>
      </trkpt>
      <trkpt lat="42.1155590" lon="-8.8565050">
        <ele>55.8</ele>
        <time>2021-05-19T13:50:40Z</time>
      </trkpt>
      <trkpt lat="42.1155650" lon="-8.8564940">
        <ele>55.8</ele>
        <time>2021-05-19T13:50:41Z</time>
      </trkpt>
      <trkpt lat="42.1155710" lon="-8.8564830">
        <ele>55.8</ele>
        <time>2021-05-19T13:50:42Z</time>
      </trkpt>
      <trkpt lat="42.1155790" lon="-8.8564760">
        <ele>55.8</ele>
        <time>2021-05-19T13:50:43Z</time>
      </trkpt>
      <trkpt lat="42.1155910" lon="-8.8564560">
        <ele>55.8</ele>
        <time>2021-05-19T13:50:44Z</time>
      </trkpt>
      <trkpt lat="42.1156020" lon="-8.8564430">
        <ele>55.7</ele>
        <time>2021-05-19T13:50:45Z</time>
      </trkpt>
      <trkpt lat="42.1156090" lon="-8.8564350">
        <ele>55.7</ele>
        <time>2021-05-19T13:50:46Z</time>
      </trkpt>
      <trkpt lat="42.1156110" lon="-8.8564180">
        <ele>55.7</ele>
        <time>2021-05-19T13:50:47Z</time>
      </trkpt>
      <trkpt lat="42.1156170" lon="-8.8563910">
        <ele>55.6</ele>
        <time>2021-05-19T13:50:48Z</time>
      </trkpt>
      <trkpt lat="42.1156200" lon="-8.8563810">
        <ele>55.6</ele>
        <time>2021-05-19T13:50:49Z</time>
      </trkpt>
      <trkpt lat="42.1156230" lon="-8.8563710">
        <ele>55.6</ele>
        <time>2021-05-19T13:50:50Z</time>
      </trkpt>
      <trkpt lat="42.1156280" lon="-8.8563610">
        <ele>55.5</ele>
        <time>2021-05-19T13:50:51Z</time>
      </trkpt>
      <trkpt lat="42.1156330" lon="-8.8563470">
        <ele>55.5</ele>
        <time>2021-05-19T13:50:52Z</time>
      </trkpt>
      <trkpt lat="42.1156350" lon="-8.8563300">
        <ele>55.4</ele>
        <time>2021-05-19T13:50:53Z</time>
      </trkpt>
      <trkpt lat="42.1156430" lon="-8.8563180">
        <ele>55.3</ele>
        <time>2021-05-19T13:50:54Z</time>
      </trkpt>
      <trkpt lat="42.1156460" lon="-8.8563000">
        <ele>55.2</ele>
        <time>2021-05-19T13:50:55Z</time>
      </trkpt>
      <trkpt lat="42.1156500" lon="-8.8562910">
        <ele>55.2</ele>
        <time>2021-05-19T13:50:56Z</time>
      </trkpt>
      <trkpt lat="42.1156630" lon="-8.8562630">
        <ele>55.0</ele>
        <time>2021-05-19T13:50:57Z</time>
      </trkpt>
      <trkpt lat="42.1156670" lon="-8.8562520">
        <ele>54.9</ele>
        <time>2021-05-19T13:50:58Z</time>
      </trkpt>
      <trkpt lat="42.1156710" lon="-8.8562410">
        <ele>54.9</ele>
        <time>2021-05-19T13:50:59Z</time>
      </trkpt>
      <trkpt lat="42.1156770" lon="-8.8562260">
        <ele>54.8</ele>
        <time>2021-05-19T13:51:00Z</time>
      </trkpt>
      <trkpt lat="42.1156810" lon="-8.8562180">
        <ele>54.7</ele>
        <time>2021-05-19T13:51:01Z</time>
      </trkpt>
      <trkpt lat="42.1156910" lon="-8.8562110">
        <ele>54.6</ele>
        <time>2021-05-19T13:51:02Z</time>
      </trkpt>
      <trkpt lat="42.1156970" lon="-8.8561830">
        <ele>54.4</ele>
        <time>2021-05-19T13:51:03Z</time>
      </trkpt>
      <trkpt lat="42.1157020" lon="-8.8561730">
        <ele>54.3</ele>
        <time>2021-05-19T13:51:04Z</time>
      </trkpt>
      <trkpt lat="42.1157060" lon="-8.8561620">
        <ele>54.2</ele>
        <time>2021-05-19T13:51:05Z</time>
      </trkpt>
      <trkpt lat="42.1157100" lon="-8.8561530">
        <ele>54.2</ele>
        <time>2021-05-19T13:51:06Z</time>
      </trkpt>
      <trkpt lat="42.1157150" lon="-8.8561430">
        <ele>54.1</ele>
        <time>2021-05-19T13:51:07Z</time>
      </trkpt>
      <trkpt lat="42.1157220" lon="-8.8561300">
        <ele>54.0</ele>
        <time>2021-05-19T13:51:08Z</time>
      </trkpt>
      <trkpt lat="42.1157230" lon="-8.8561160">
        <ele>53.9</ele>
        <time>2021-05-19T13:51:09Z</time>
      </trkpt>
      <trkpt lat="42.1157330" lon="-8.8561020">
        <ele>53.7</ele>
        <time>2021-05-19T13:51:10Z</time>
      </trkpt>
      <trkpt lat="42.1157370" lon="-8.8560910">
        <ele>53.7</ele>
        <time>2021-05-19T13:51:11Z</time>
      </trkpt>
      <trkpt lat="42.1157350" lon="-8.8560760">
        <ele>53.6</ele>
        <time>2021-05-19T13:51:12Z</time>
      </trkpt>
      <trkpt lat="42.1157420" lon="-8.8560720">
        <ele>53.5</ele>
        <time>2021-05-19T13:51:13Z</time>
      </trkpt>
      <trkpt lat="42.1157430" lon="-8.8560650">
        <ele>53.4</ele>
        <time>2021-05-19T13:51:14Z</time>
      </trkpt>
      <trkpt lat="42.1157440" lon="-8.8560500">
        <ele>53.3</ele>
        <time>2021-05-19T13:51:15Z</time>
      </trkpt>
      <trkpt lat="42.1157480" lon="-8.8560320">
        <ele>53.2</ele>
        <time>2021-05-19T13:51:16Z</time>
      </trkpt>
      <trkpt lat="42.1157590" lon="-8.8560220">
        <ele>53.1</ele>
        <time>2021-05-19T13:51:17Z</time>
      </trkpt>
      <trkpt lat="42.1157610" lon="-8.8560080">
        <ele>53.0</ele>
        <time>2021-05-19T13:51:18Z</time>
      </trkpt>
      <trkpt lat="42.1157680" lon="-8.8559960">
        <ele>52.9</ele>
        <time>2021-05-19T13:51:19Z</time>
      </trkpt>
      <trkpt lat="42.1157760" lon="-8.8559750">
        <ele>52.7</ele>
        <time>2021-05-19T13:51:20Z</time>
      </trkpt>
      <trkpt lat="42.1157840" lon="-8.8559690">
        <ele>52.6</ele>
        <time>2021-05-19T13:51:21Z</time>
      </trkpt>
      <trkpt lat="42.1157890" lon="-8.8559600">
        <ele>52.5</ele>
        <time>2021-05-19T13:51:22Z</time>
      </trkpt>
      <trkpt lat="42.1157980" lon="-8.8559480">
        <ele>52.4</ele>
        <time>2021-05-19T13:51:23Z</time>
      </trkpt>
      <trkpt lat="42.1158050" lon="-8.8559340">
        <ele>52.3</ele>
        <time>2021-05-19T13:51:24Z</time>
      </trkpt>
      <trkpt lat="42.1158080" lon="-8.8559140">
        <ele>52.1</ele>
        <time>2021-05-19T13:51:25Z</time>
      </trkpt>
      <trkpt lat="42.1158140" lon="-8.8559060">
        <ele>52.1</ele>
        <time>2021-05-19T13:51:26Z</time>
      </trkpt>
      <trkpt lat="42.1158190" lon="-8.8558990">
        <ele>52.0</ele>
        <time>2021-05-19T13:51:27Z</time>
      </trkpt>
      <trkpt lat="42.1158250" lon="-8.8558830">
        <ele>51.9</ele>
        <time>2021-05-19T13:51:28Z</time>
      </trkpt>
      <trkpt lat="42.1158320" lon="-8.8558760">
        <ele>51.8</ele>
        <time>2021-05-19T13:51:29Z</time>
      </trkpt>
      <trkpt lat="42.1158360" lon="-8.8558660">
        <ele>51.7</ele>
        <time>2021-05-19T13:51:30Z</time>
      </trkpt>
      <trkpt lat="42.1158400" lon="-8.8558500">
        <ele>51.6</ele>
        <time>2021-05-19T13:51:31Z</time>
      </trkpt>
      <trkpt lat="42.1158460" lon="-8.8558380">
        <ele>51.5</ele>
        <time>2021-05-19T13:51:32Z</time>
      </trkpt>
      <trkpt lat="42.1158560" lon="-8.8558220">
        <ele>51.4</ele>
        <time>2021-05-19T13:51:33Z</time>
      </trkpt>
      <trkpt lat="42.1158610" lon="-8.8558160">
        <ele>51.3</ele>
        <time>2021-05-19T13:51:34Z</time>
      </trkpt>
      <trkpt lat="42.1158630" lon="-8.8557990">
        <ele>51.2</ele>
        <time>2021-05-19T13:51:35Z</time>
      </trkpt>
      <trkpt lat="42.1158740" lon="-8.8557930">
        <ele>51.1</ele>
        <time>2021-05-19T13:51:36Z</time>
      </trkpt>
      <trkpt lat="42.1158790" lon="-8.8557730">
        <ele>51.0</ele>
        <time>2021-05-19T13:51:37Z</time>
      </trkpt>
      <trkpt lat="42.1158830" lon="-8.8557640">
        <ele>51.0</ele>
        <time>2021-05-19T13:51:38Z</time>
      </trkpt>
      <trkpt lat="42.1158910" lon="-8.8557460">
        <ele>50.8</ele>
        <time>2021-05-19T13:51:39Z</time>
      </trkpt>
      <trkpt lat="42.1158970" lon="-8.8557340">
        <ele>50.7</ele>
        <time>2021-05-19T13:51:40Z</time>
      </trkpt>
      <trkpt lat="42.1159000" lon="-8.8557200">
        <ele>50.6</ele>
        <time>2021-05-19T13:51:41Z</time>
      </trkpt>
      <trkpt lat="42.1158990" lon="-8.8557000">
        <ele>50.5</ele>
        <time>2021-05-19T13:51:42Z</time>
      </trkpt>
      <trkpt lat="42.1159000" lon="-8.8556890">
        <ele>50.5</ele>
        <time>2021-05-19T13:51:43Z</time>
      </trkpt>
      <trkpt lat="42.1159040" lon="-8.8556590">
        <ele>50.3</ele>
        <time>2021-05-19T13:51:44Z</time>
      </trkpt>
      <trkpt lat="42.1159070" lon="-8.8556500">
        <ele>50.2</ele>
        <time>2021-05-19T13:51:45Z</time>
      </trkpt>
      <trkpt lat="42.1159090" lon="-8.8556410">
        <ele>50.2</ele>
        <time>2021-05-19T13:51:46Z</time>
      </trkpt>
      <trkpt lat="42.1159070" lon="-8.8556170">
        <ele>50.0</ele>
        <time>2021-05-19T13:51:47Z</time>
      </trkpt>
      <trkpt lat="42.1159040" lon="-8.8556040">
        <ele>50.0</ele>
        <time>2021-05-19T13:51:48Z</time>
      </trkpt>
      <trkpt lat="42.1159070" lon="-8.8555890">
        <ele>49.9</ele>
        <time>2021-05-19T13:51:49Z</time>
      </trkpt>
      <trkpt lat="42.1159060" lon="-8.8555720">
        <ele>49.8</ele>
        <time>2021-05-19T13:51:50Z</time>
      </trkpt>
      <trkpt lat="42.1158970" lon="-8.8555600">
        <ele>49.8</ele>
        <time>2021-05-19T13:51:51Z</time>
      </trkpt>
      <trkpt lat="42.1158920" lon="-8.8555430">
        <ele>49.7</ele>
        <time>2021-05-19T13:51:52Z</time>
      </trkpt>
      <trkpt lat="42.1158930" lon="-8.8555370">
        <ele>49.7</ele>
        <time>2021-05-19T13:51:53Z</time>
      </trkpt>
      <trkpt lat="42.1158900" lon="-8.8555170">
        <ele>49.6</ele>
        <time>2021-05-19T13:51:54Z</time>
      </trkpt>
      <trkpt lat="42.1158890" lon="-8.8554900">
        <ele>49.5</ele>
        <time>2021-05-19T13:51:55Z</time>
      </trkpt>
      <trkpt lat="42.1158860" lon="-8.8554750">
        <ele>49.4</ele>
        <time>2021-05-19T13:51:56Z</time>
      </trkpt>
      <trkpt lat="42.1158830" lon="-8.8554610">
        <ele>49.4</ele>
        <time>2021-05-19T13:51:57Z</time>
      </trkpt>
      <trkpt lat="42.1158780" lon="-8.8554520">
        <ele>49.3</ele>
        <time>2021-05-19T13:51:58Z</time>
      </trkpt>
      <trkpt lat="42.1158740" lon="-8.8554510">
        <ele>49.3</ele>
        <time>2021-05-19T13:51:59Z</time>
      </trkpt>
      <trkpt lat="42.1158680" lon="-8.8554270">
        <ele>49.2</ele>
        <time>2021-05-19T13:52:00Z</time>
      </trkpt>
      <trkpt lat="42.1158660" lon="-8.8554210">
        <ele>49.2</ele>
        <time>2021-05-19T13:52:01Z</time>
      </trkpt>
      <trkpt lat="42.1158640" lon="-8.8554070">
        <ele>49.2</ele>
        <time>2021-05-19T13:52:02Z</time>
      </trkpt>
      <trkpt lat="42.1158610" lon="-8.8553890">
        <ele>49.1</ele>
        <time>2021-05-19T13:52:03Z</time>
      </trkpt>
      <trkpt lat="42.1158580" lon="-8.8553700">
        <ele>49.1</ele>
        <time>2021-05-19T13:52:04Z</time>
      </trkpt>
      <trkpt lat="42.1158490" lon="-8.8553630">
        <ele>49.0</ele>
        <time>2021-05-19T13:52:05Z</time>
      </trkpt>
      <trkpt lat="42.1158400" lon="-8.8553540">
        <ele>49.0</ele>
        <time>2021-05-19T13:52:06Z</time>
      </trkpt>
      <trkpt lat="42.1158240" lon="-8.8553310">
        <ele>48.9</ele>
        <time>2021-05-19T13:52:07Z</time>
      </trkpt>
      <trkpt lat="42.1158170" lon="-8.8553240">
        <ele>48.9</ele>
        <time>2021-05-19T13:52:08Z</time>
      </trkpt>
      <trkpt lat="42.1158090" lon="-8.8553160">
        <ele>48.8</ele>
        <time>2021-05-19T13:52:09Z</time>
      </trkpt>
      <trkpt lat="42.1157930" lon="-8.8552980">
        <ele>48.7</ele>
        <time>2021-05-19T13:52:10Z</time>
      </trkpt>
      <trkpt lat="42.1157870" lon="-8.8552790">
        <ele>48.7</ele>
        <time>2021-05-19T13:52:11Z</time>
      </trkpt>
      <trkpt lat="42.1157750" lon="-8.8552570">
        <ele>48.6</ele>
        <time>2021-05-19T13:52:12Z</time>
      </trkpt>
      <trkpt lat="42.1157690" lon="-8.8552460">
        <ele>48.5</ele>
        <time>2021-05-19T13:52:13Z</time>
      </trkpt>
      <trkpt lat="42.1157630" lon="-8.8552350">
        <ele>48.5</ele>
        <time>2021-05-19T13:52:14Z</time>
      </trkpt>
      <trkpt lat="42.1157640" lon="-8.8552210">
        <ele>48.4</ele>
        <time>2021-05-19T13:52:15Z</time>
      </trkpt>
      <trkpt lat="42.1157610" lon="-8.8552090">
        <ele>48.4</ele>
        <time>2021-05-19T13:52:16Z</time>
      </trkpt>
      <trkpt lat="42.1157580" lon="-8.8551970">
        <ele>48.3</ele>
        <time>2021-05-19T13:52:17Z</time>
      </trkpt>
      <trkpt lat="42.1157550" lon="-8.8551850">
        <ele>48.3</ele>
        <time>2021-05-19T13:52:18Z</time>
      </trkpt>
      <trkpt lat="42.1157510" lon="-8.8551750">
        <ele>48.3</ele>
        <time>2021-05-19T13:52:19Z</time>
      </trkpt>
      <trkpt lat="42.1157460" lon="-8.8551550">
        <ele>48.2</ele>
        <time>2021-05-19T13:52:20Z</time>
      </trkpt>
      <trkpt lat="42.1157530" lon="-8.8551550">
        <ele>48.1</ele>
        <time>2021-05-19T13:52:21Z</time>
      </trkpt>
      <trkpt lat="42.1157480" lon="-8.8551460">
        <ele>48.1</ele>
        <time>2021-05-19T13:52:22Z</time>
      </trkpt>
      <trkpt lat="42.1157460" lon="-8.8551410">
        <ele>48.1</ele>
        <time>2021-05-19T13:52:23Z</time>
      </trkpt>
      <trkpt lat="42.1157410" lon="-8.8551400">
        <ele>48.0</ele>
        <time>2021-05-19T13:52:24Z</time>
      </trkpt>
      <trkpt lat="42.1157340" lon="-8.8551360">
        <ele>48.0</ele>
        <time>2021-05-19T13:52:25Z</time>
      </trkpt>
      <trkpt lat="42.1157340" lon="-8.8551300">
        <ele>48.0</ele>
        <time>2021-05-19T13:52:26Z</time>
      </trkpt>
      <trkpt lat="42.1157290" lon="-8.8551270">
        <ele>47.9</ele>
        <time>2021-05-19T13:52:27Z</time>
      </trkpt>
      <trkpt lat="42.1157260" lon="-8.8551210">
        <ele>47.9</ele>
        <time>2021-05-19T13:52:28Z</time>
      </trkpt>
      <trkpt lat="42.1157170" lon="-8.8551140">
        <ele>47.8</ele>
        <time>2021-05-19T13:52:29Z</time>
      </trkpt>
      <trkpt lat="42.1157130" lon="-8.8551070">
        <ele>47.8</ele>
        <time>2021-05-19T13:52:30Z</time>
      </trkpt>
      <trkpt lat="42.1157090" lon="-8.8550910">
        <ele>47.7</ele>
        <time>2021-05-19T13:52:31Z</time>
      </trkpt>
      <trkpt lat="42.1157010" lon="-8.8550830">
        <ele>47.6</ele>
        <time>2021-05-19T13:52:32Z</time>
      </trkpt>
      <trkpt lat="42.1156980" lon="-8.8550700">
        <ele>47.6</ele>
        <time>2021-05-19T13:52:33Z</time>
      </trkpt>
      <trkpt lat="42.1156920" lon="-8.8550490">
        <ele>47.4</ele>
        <time>2021-05-19T13:52:34Z</time>
      </trkpt>
      <trkpt lat="42.1156800" lon="-8.8550260">
        <ele>47.3</ele>
        <time>2021-05-19T13:52:35Z</time>
      </trkpt>
      <trkpt lat="42.1156760" lon="-8.8550200">
        <ele>47.3</ele>
        <time>2021-05-19T13:52:36Z</time>
      </trkpt>
      <trkpt lat="42.1156710" lon="-8.8550150">
        <ele>47.2</ele>
        <time>2021-05-19T13:52:37Z</time>
      </trkpt>
      <trkpt lat="42.1156670" lon="-8.8550090">
        <ele>47.2</ele>
        <time>2021-05-19T13:52:38Z</time>
      </trkpt>
      <trkpt lat="42.1156630" lon="-8.8550040">
        <ele>47.1</ele>
        <time>2021-05-19T13:52:39Z</time>
      </trkpt>
      <trkpt lat="42.1156560" lon="-8.8549910">
        <ele>47.0</ele>
        <time>2021-05-19T13:52:40Z</time>
      </trkpt>
      <trkpt lat="42.1156500" lon="-8.8549760">
        <ele>46.9</ele>
        <time>2021-05-19T13:52:41Z</time>
      </trkpt>
      <trkpt lat="42.1156480" lon="-8.8549450">
        <ele>46.7</ele>
        <time>2021-05-19T13:52:42Z</time>
      </trkpt>
      <trkpt lat="42.1156440" lon="-8.8549300">
        <ele>46.6</ele>
        <time>2021-05-19T13:52:43Z</time>
      </trkpt>
      <trkpt lat="42.1156400" lon="-8.8549150">
        <ele>46.5</ele>
        <time>2021-05-19T13:52:44Z</time>
      </trkpt>
      <trkpt lat="42.1156340" lon="-8.8549030">
        <ele>46.4</ele>
        <time>2021-05-19T13:52:45Z</time>
      </trkpt>
      <trkpt lat="42.1156290" lon="-8.8548880">
        <ele>46.3</ele>
        <time>2021-05-19T13:52:46Z</time>
      </trkpt>
      <trkpt lat="42.1156250" lon="-8.8548800">
        <ele>46.2</ele>
        <time>2021-05-19T13:52:47Z</time>
      </trkpt>
      <trkpt lat="42.1156190" lon="-8.8548630">
        <ele>46.1</ele>
        <time>2021-05-19T13:52:48Z</time>
      </trkpt>
      <trkpt lat="42.1156160" lon="-8.8548530">
        <ele>46.0</ele>
        <time>2021-05-19T13:52:49Z</time>
      </trkpt>
      <trkpt lat="42.1156120" lon="-8.8548440">
        <ele>46.0</ele>
        <time>2021-05-19T13:52:50Z</time>
      </trkpt>
      <trkpt lat="42.1156080" lon="-8.8548350">
        <ele>45.9</ele>
        <time>2021-05-19T13:52:51Z</time>
      </trkpt>
      <trkpt lat="42.1155970" lon="-8.8548050">
        <ele>45.6</ele>
        <time>2021-05-19T13:52:52Z</time>
      </trkpt>
      <trkpt lat="42.1155880" lon="-8.8547990">
        <ele>45.5</ele>
        <time>2021-05-19T13:52:53Z</time>
      </trkpt>
      <trkpt lat="42.1155900" lon="-8.8547920">
        <ele>45.5</ele>
        <time>2021-05-19T13:52:54Z</time>
      </trkpt>
      <trkpt lat="42.1155780" lon="-8.8547790">
        <ele>45.3</ele>
        <time>2021-05-19T13:52:55Z</time>
      </trkpt>
      <trkpt lat="42.1155780" lon="-8.8547690">
        <ele>45.2</ele>
        <time>2021-05-19T13:52:56Z</time>
      </trkpt>
      <trkpt lat="42.1155730" lon="-8.8547610">
        <ele>45.1</ele>
        <time>2021-05-19T13:52:57Z</time>
      </trkpt>
      <trkpt lat="42.1155690" lon="-8.8547460">
        <ele>45.0</ele>
        <time>2021-05-19T13:52:58Z</time>
      </trkpt>
      <trkpt lat="42.1155660" lon="-8.8547330">
        <ele>44.9</ele>
        <time>2021-05-19T13:52:59Z</time>
      </trkpt>
      <trkpt lat="42.1155600" lon="-8.8547170">
        <ele>44.7</ele>
        <time>2021-05-19T13:53:00Z</time>
      </trkpt>
      <trkpt lat="42.1155570" lon="-8.8547000">
        <ele>44.6</ele>
        <time>2021-05-19T13:53:01Z</time>
      </trkpt>
      <trkpt lat="42.1155540" lon="-8.8546800">
        <ele>44.4</ele>
        <time>2021-05-19T13:53:02Z</time>
      </trkpt>
      <trkpt lat="42.1155510" lon="-8.8546720">
        <ele>44.3</ele>
        <time>2021-05-19T13:53:03Z</time>
      </trkpt>
      <trkpt lat="42.1155450" lon="-8.8546680">
        <ele>44.2</ele>
        <time>2021-05-19T13:53:04Z</time>
      </trkpt>
      <trkpt lat="42.1155320" lon="-8.8546560">
        <ele>44.0</ele>
        <time>2021-05-19T13:53:05Z</time>
      </trkpt>
      <trkpt lat="42.1155190" lon="-8.8546300">
        <ele>43.7</ele>
        <time>2021-05-19T13:53:06Z</time>
      </trkpt>
      <trkpt lat="42.1155140" lon="-8.8546230">
        <ele>43.6</ele>
        <time>2021-05-19T13:53:07Z</time>
      </trkpt>
      <trkpt lat="42.1155100" lon="-8.8546160">
        <ele>43.5</ele>
        <time>2021-05-19T13:53:08Z</time>
      </trkpt>
      <trkpt lat="42.1155010" lon="-8.8546110">
        <ele>43.4</ele>
        <time>2021-05-19T13:53:09Z</time>
      </trkpt>
      <trkpt lat="42.1154920" lon="-8.8546000">
        <ele>43.2</ele>
        <time>2021-05-19T13:53:10Z</time>
      </trkpt>
      <trkpt lat="42.1154890" lon="-8.8545880">
        <ele>43.1</ele>
        <time>2021-05-19T13:53:11Z</time>
      </trkpt>
      <trkpt lat="42.1154840" lon="-8.8545660">
        <ele>42.8</ele>
        <time>2021-05-19T13:53:12Z</time>
      </trkpt>
      <trkpt lat="42.1154830" lon="-8.8545500">
        <ele>42.7</ele>
        <time>2021-05-19T13:53:13Z</time>
      </trkpt>
      <trkpt lat="42.1154800" lon="-8.8545350">
        <ele>42.5</ele>
        <time>2021-05-19T13:53:14Z</time>
      </trkpt>
      <trkpt lat="42.1154750" lon="-8.8545160">
        <ele>42.3</ele>
        <time>2021-05-19T13:53:15Z</time>
      </trkpt>
      <trkpt lat="42.1154690" lon="-8.8545070">
        <ele>42.2</ele>
        <time>2021-05-19T13:53:16Z</time>
      </trkpt>
      <trkpt lat="42.1154750" lon="-8.8544770">
        <ele>41.9</ele>
        <time>2021-05-19T13:53:17Z</time>
      </trkpt>
      <trkpt lat="42.1154780" lon="-8.8544710">
        <ele>41.9</ele>
        <time>2021-05-19T13:53:18Z</time>
      </trkpt>
      <trkpt lat="42.1154840" lon="-8.8544580">
        <ele>41.7</ele>
        <time>2021-05-19T13:53:19Z</time>
      </trkpt>
      <trkpt lat="42.1154880" lon="-8.8544510">
        <ele>41.7</ele>
        <time>2021-05-19T13:53:20Z</time>
      </trkpt>
      <trkpt lat="42.1155070" lon="-8.8544460">
        <ele>41.5</ele>
        <time>2021-05-19T13:53:21Z</time>
      </trkpt>
      <trkpt lat="42.1155130" lon="-8.8544320">
        <ele>41.1</ele>
        <time>2021-05-19T13:53:22Z</time>
      </trkpt>
      <trkpt lat="42.1155250" lon="-8.8544360">
        <ele>40.9</ele>
        <time>2021-05-19T13:53:23Z</time>
      </trkpt>
      <trkpt lat="42.1155360" lon="-8.8544320">
        <ele>40.8</ele>
        <time>2021-05-19T13:53:24Z</time>
      </trkpt>
      <trkpt lat="42.1155360" lon="-8.8544220">
        <ele>40.7</ele>
        <time>2021-05-19T13:53:25Z</time>
      </trkpt>
      <trkpt lat="42.1155420" lon="-8.8544300">
        <ele>40.5</ele>
        <time>2021-05-19T13:53:26Z</time>
      </trkpt>
      <trkpt lat="42.1155540" lon="-8.8544270">
        <ele>40.3</ele>
        <time>2021-05-19T13:53:27Z</time>
      </trkpt>
      <trkpt lat="42.1155630" lon="-8.8544280">
        <ele>40.2</ele>
        <time>2021-05-19T13:53:28Z</time>
      </trkpt>
      <trkpt lat="42.1155690" lon="-8.8544240">
        <ele>40.1</ele>
        <time>2021-05-19T13:53:29Z</time>
      </trkpt>
      <trkpt lat="42.1155800" lon="-8.8544260">
        <ele>39.9</ele>
        <time>2021-05-19T13:53:30Z</time>
      </trkpt>
      <trkpt lat="42.1155920" lon="-8.8544230">
        <ele>39.8</ele>
        <time>2021-05-19T13:53:31Z</time>
      </trkpt>
      <trkpt lat="42.1156090" lon="-8.8544240">
        <ele>39.5</ele>
        <time>2021-05-19T13:53:32Z</time>
      </trkpt>
      <trkpt lat="42.1156150" lon="-8.8544190">
        <ele>39.4</ele>
        <time>2021-05-19T13:53:33Z</time>
      </trkpt>
      <trkpt lat="42.1156210" lon="-8.8544160">
        <ele>39.3</ele>
        <time>2021-05-19T13:53:34Z</time>
      </trkpt>
      <trkpt lat="42.1156360" lon="-8.8544180">
        <ele>39.1</ele>
        <time>2021-05-19T13:53:35Z</time>
      </trkpt>
      <trkpt lat="42.1156480" lon="-8.8544250">
        <ele>39.0</ele>
        <time>2021-05-19T13:53:36Z</time>
      </trkpt>
      <trkpt lat="42.1156560" lon="-8.8544270">
        <ele>38.9</ele>
        <time>2021-05-19T13:53:37Z</time>
      </trkpt>
      <trkpt lat="42.1156730" lon="-8.8544440">
        <ele>38.6</ele>
        <time>2021-05-19T13:53:38Z</time>
      </trkpt>
      <trkpt lat="42.1156840" lon="-8.8544500">
        <ele>38.5</ele>
        <time>2021-05-19T13:53:39Z</time>
      </trkpt>
      <trkpt lat="42.1156940" lon="-8.8544570">
        <ele>38.4</ele>
        <time>2021-05-19T13:53:40Z</time>
      </trkpt>
      <trkpt lat="42.1157030" lon="-8.8544670">
        <ele>38.2</ele>
        <time>2021-05-19T13:53:41Z</time>
      </trkpt>
      <trkpt lat="42.1157100" lon="-8.8544670">
        <ele>38.1</ele>
        <time>2021-05-19T13:53:42Z</time>
      </trkpt>
      <trkpt lat="42.1157200" lon="-8.8544730">
        <ele>38.0</ele>
        <time>2021-05-19T13:53:43Z</time>
      </trkpt>
      <trkpt lat="42.1157350" lon="-8.8544820">
        <ele>37.9</ele>
        <time>2021-05-19T13:53:44Z</time>
      </trkpt>
      <trkpt lat="42.1157430" lon="-8.8544780">
        <ele>37.8</ele>
        <time>2021-05-19T13:53:45Z</time>
      </trkpt>
      <trkpt lat="42.1157520" lon="-8.8544780">
        <ele>37.7</ele>
        <time>2021-05-19T13:53:46Z</time>
      </trkpt>
      <trkpt lat="42.1157610" lon="-8.8544800">
        <ele>37.6</ele>
        <time>2021-05-19T13:53:47Z</time>
      </trkpt>
      <trkpt lat="42.1157710" lon="-8.8544870">
        <ele>37.5</ele>
        <time>2021-05-19T13:53:48Z</time>
      </trkpt>
      <trkpt lat="42.1157880" lon="-8.8544970">
        <ele>37.3</ele>
        <time>2021-05-19T13:53:49Z</time>
      </trkpt>
      <trkpt lat="42.1157980" lon="-8.8544980">
        <ele>37.2</ele>
        <time>2021-05-19T13:53:50Z</time>
      </trkpt>
      <trkpt lat="42.1158080" lon="-8.8545000">
        <ele>37.2</ele>
        <time>2021-05-19T13:53:51Z</time>
      </trkpt>
      <trkpt lat="42.1158210" lon="-8.8545040">
        <ele>37.0</ele>
        <time>2021-05-19T13:53:52Z</time>
      </trkpt>
      <trkpt lat="42.1158360" lon="-8.8545120">
        <ele>36.9</ele>
        <time>2021-05-19T13:53:53Z</time>
      </trkpt>
      <trkpt lat="42.1158560" lon="-8.8545170">
        <ele>36.8</ele>
        <time>2021-05-19T13:53:54Z</time>
      </trkpt>
      <trkpt lat="42.1158660" lon="-8.8545180">
        <ele>36.7</ele>
        <time>2021-05-19T13:53:55Z</time>
      </trkpt>
      <trkpt lat="42.1158750" lon="-8.8545200">
        <ele>36.6</ele>
        <time>2021-05-19T13:53:56Z</time>
      </trkpt>
      <trkpt lat="42.1158830" lon="-8.8545280">
        <ele>36.5</ele>
        <time>2021-05-19T13:53:57Z</time>
      </trkpt>
      <trkpt lat="42.1158950" lon="-8.8545390">
        <ele>36.4</ele>
        <time>2021-05-19T13:53:58Z</time>
      </trkpt>
      <trkpt lat="42.1158990" lon="-8.8545370">
        <ele>36.4</ele>
        <time>2021-05-19T13:53:59Z</time>
      </trkpt>
      <trkpt lat="42.1159070" lon="-8.8545440">
        <ele>36.3</ele>
        <time>2021-05-19T13:54:00Z</time>
      </trkpt>
      <trkpt lat="42.1159240" lon="-8.8545450">
        <ele>36.2</ele>
        <time>2021-05-19T13:54:01Z</time>
      </trkpt>
      <trkpt lat="42.1159320" lon="-8.8545500">
        <ele>36.2</ele>
        <time>2021-05-19T13:54:02Z</time>
      </trkpt>
      <trkpt lat="42.1159470" lon="-8.8545690">
        <ele>36.0</ele>
        <time>2021-05-19T13:54:03Z</time>
      </trkpt>
      <trkpt lat="42.1159550" lon="-8.8545750">
        <ele>35.9</ele>
        <time>2021-05-19T13:54:04Z</time>
      </trkpt>
      <trkpt lat="42.1159630" lon="-8.8545820">
        <ele>35.9</ele>
        <time>2021-05-19T13:54:05Z</time>
      </trkpt>
      <trkpt lat="42.1159680" lon="-8.8545910">
        <ele>35.8</ele>
        <time>2021-05-19T13:54:06Z</time>
      </trkpt>
      <trkpt lat="42.1159760" lon="-8.8546020">
        <ele>35.7</ele>
        <time>2021-05-19T13:54:07Z</time>
      </trkpt>
      <trkpt lat="42.1159830" lon="-8.8546110">
        <ele>35.7</ele>
        <time>2021-05-19T13:54:08Z</time>
      </trkpt>
      <trkpt lat="42.1159910" lon="-8.8546210">
        <ele>35.6</ele>
        <time>2021-05-19T13:54:09Z</time>
      </trkpt>
      <trkpt lat="42.1160010" lon="-8.8546270">
        <ele>35.5</ele>
        <time>2021-05-19T13:54:10Z</time>
      </trkpt>
      <trkpt lat="42.1160070" lon="-8.8546440">
        <ele>35.4</ele>
        <time>2021-05-19T13:54:11Z</time>
      </trkpt>
      <trkpt lat="42.1160110" lon="-8.8546510">
        <ele>35.4</ele>
        <time>2021-05-19T13:54:12Z</time>
      </trkpt>
      <trkpt lat="42.1160150" lon="-8.8546590">
        <ele>35.3</ele>
        <time>2021-05-19T13:54:13Z</time>
      </trkpt>
      <trkpt lat="42.1160200" lon="-8.8546670">
        <ele>35.3</ele>
        <time>2021-05-19T13:54:14Z</time>
      </trkpt>
      <trkpt lat="42.1160250" lon="-8.8546760">
        <ele>35.2</ele>
        <time>2021-05-19T13:54:15Z</time>
      </trkpt>
      <trkpt lat="42.1160290" lon="-8.8546840">
        <ele>35.2</ele>
        <time>2021-05-19T13:54:16Z</time>
      </trkpt>
      <trkpt lat="42.1160340" lon="-8.8546920">
        <ele>35.1</ele>
        <time>2021-05-19T13:54:17Z</time>
      </trkpt>
      <trkpt lat="42.1160560" lon="-8.8547050">
        <ele>35.0</ele>
        <time>2021-05-19T13:54:18Z</time>
      </trkpt>
      <trkpt lat="42.1160630" lon="-8.8547110">
        <ele>34.9</ele>
        <time>2021-05-19T13:54:19Z</time>
      </trkpt>
      <trkpt lat="42.1160700" lon="-8.8547180">
        <ele>34.8</ele>
        <time>2021-05-19T13:54:20Z</time>
      </trkpt>
      <trkpt lat="42.1160850" lon="-8.8547230">
        <ele>34.7</ele>
        <time>2021-05-19T13:54:21Z</time>
      </trkpt>
      <trkpt lat="42.1160890" lon="-8.8547270">
        <ele>34.7</ele>
        <time>2021-05-19T13:54:22Z</time>
      </trkpt>
      <trkpt lat="42.1160990" lon="-8.8547340">
        <ele>34.6</ele>
        <time>2021-05-19T13:54:23Z</time>
      </trkpt>
      <trkpt lat="42.1161200" lon="-8.8547380">
        <ele>34.5</ele>
        <time>2021-05-19T13:54:24Z</time>
      </trkpt>
      <trkpt lat="42.1161270" lon="-8.8547410">
        <ele>34.4</ele>
        <time>2021-05-19T13:54:25Z</time>
      </trkpt>
      <trkpt lat="42.1161350" lon="-8.8547440">
        <ele>34.3</ele>
        <time>2021-05-19T13:54:26Z</time>
      </trkpt>
      <trkpt lat="42.1161490" lon="-8.8547430">
        <ele>34.2</ele>
        <time>2021-05-19T13:54:27Z</time>
      </trkpt>
      <trkpt lat="42.1161650" lon="-8.8547450">
        <ele>34.1</ele>
        <time>2021-05-19T13:54:28Z</time>
      </trkpt>
      <trkpt lat="42.1161830" lon="-8.8547480">
        <ele>34.0</ele>
        <time>2021-05-19T13:54:29Z</time>
      </trkpt>
      <trkpt lat="42.1161930" lon="-8.8547550">
        <ele>33.9</ele>
        <time>2021-05-19T13:54:30Z</time>
      </trkpt>
      <trkpt lat="42.1162000" lon="-8.8547540">
        <ele>33.9</ele>
        <time>2021-05-19T13:54:31Z</time>
      </trkpt>
      <trkpt lat="42.1162010" lon="-8.8547540">
        <ele>33.9</ele>
        <time>2021-05-19T13:54:32Z</time>
      </trkpt>
      <trkpt lat="42.1162100" lon="-8.8547610">
        <ele>33.8</ele>
        <time>2021-05-19T13:54:33Z</time>
      </trkpt>
      <trkpt lat="42.1162270" lon="-8.8547560">
        <ele>33.6</ele>
        <time>2021-05-19T13:54:34Z</time>
      </trkpt>
      <trkpt lat="42.1162420" lon="-8.8547580">
        <ele>33.5</ele>
        <time>2021-05-19T13:54:35Z</time>
      </trkpt>
      <trkpt lat="42.1162540" lon="-8.8547680">
        <ele>33.4</ele>
        <time>2021-05-19T13:54:36Z</time>
      </trkpt>
      <trkpt lat="42.1162760" lon="-8.8547750">
        <ele>33.3</ele>
        <time>2021-05-19T13:54:37Z</time>
      </trkpt>
      <trkpt lat="42.1162860" lon="-8.8547800">
        <ele>33.2</ele>
        <time>2021-05-19T13:54:38Z</time>
      </trkpt>
      <trkpt lat="42.1162950" lon="-8.8547850">
        <ele>33.1</ele>
        <time>2021-05-19T13:54:39Z</time>
      </trkpt>
      <trkpt lat="42.1163200" lon="-8.8547990">
        <ele>32.9</ele>
        <time>2021-05-19T13:54:40Z</time>
      </trkpt>
      <trkpt lat="42.1163290" lon="-8.8548020">
        <ele>32.9</ele>
        <time>2021-05-19T13:54:41Z</time>
      </trkpt>
      <trkpt lat="42.1163530" lon="-8.8548090">
        <ele>32.7</ele>
        <time>2021-05-19T13:54:42Z</time>
      </trkpt>
      <trkpt lat="42.1163630" lon="-8.8548030">
        <ele>32.6</ele>
        <time>2021-05-19T13:54:43Z</time>
      </trkpt>
      <trkpt lat="42.1163630" lon="-8.8548180">
        <ele>32.5</ele>
        <time>2021-05-19T13:54:44Z</time>
      </trkpt>
      <trkpt lat="42.1163700" lon="-8.8548210">
        <ele>32.5</ele>
        <time>2021-05-19T13:54:45Z</time>
      </trkpt>
      <trkpt lat="42.1163850" lon="-8.8548290">
        <ele>32.4</ele>
        <time>2021-05-19T13:54:46Z</time>
      </trkpt>
      <trkpt lat="42.1163990" lon="-8.8548250">
        <ele>32.3</ele>
        <time>2021-05-19T13:54:47Z</time>
      </trkpt>
      <trkpt lat="42.1164030" lon="-8.8548160">
        <ele>32.2</ele>
        <time>2021-05-19T13:54:48Z</time>
      </trkpt>
      <trkpt lat="42.1164100" lon="-8.8548110">
        <ele>32.1</ele>
        <time>2021-05-19T13:54:49Z</time>
      </trkpt>
      <trkpt lat="42.1164240" lon="-8.8548010">
        <ele>32.0</ele>
        <time>2021-05-19T13:54:50Z</time>
      </trkpt>
      <trkpt lat="42.1164340" lon="-8.8547900">
        <ele>31.9</ele>
        <time>2021-05-19T13:54:51Z</time>
      </trkpt>
      <trkpt lat="42.1164400" lon="-8.8547890">
        <ele>31.8</ele>
        <time>2021-05-19T13:54:52Z</time>
      </trkpt>
      <trkpt lat="42.1164450" lon="-8.8547810">
        <ele>31.7</ele>
        <time>2021-05-19T13:54:53Z</time>
      </trkpt>
      <trkpt lat="42.1164510" lon="-8.8547700">
        <ele>31.6</ele>
        <time>2021-05-19T13:54:54Z</time>
      </trkpt>
      <trkpt lat="42.1164600" lon="-8.8547610">
        <ele>31.5</ele>
        <time>2021-05-19T13:54:55Z</time>
      </trkpt>
      <trkpt lat="42.1164730" lon="-8.8547520">
        <ele>31.4</ele>
        <time>2021-05-19T13:54:56Z</time>
      </trkpt>
      <trkpt lat="42.1164870" lon="-8.8547540">
        <ele>31.2</ele>
        <time>2021-05-19T13:54:57Z</time>
      </trkpt>
      <trkpt lat="42.1165010" lon="-8.8547430">
        <ele>31.0</ele>
        <time>2021-05-19T13:54:58Z</time>
      </trkpt>
      <trkpt lat="42.1165170" lon="-8.8547410">
        <ele>30.9</ele>
        <time>2021-05-19T13:54:59Z</time>
      </trkpt>
      <trkpt lat="42.1165340" lon="-8.8547240">
        <ele>30.7</ele>
        <time>2021-05-19T13:55:00Z</time>
      </trkpt>
      <trkpt lat="42.1165410" lon="-8.8547190">
        <ele>30.6</ele>
        <time>2021-05-19T13:55:01Z</time>
      </trkpt>
      <trkpt lat="42.1165480" lon="-8.8547140">
        <ele>30.5</ele>
        <time>2021-05-19T13:55:02Z</time>
      </trkpt>
      <trkpt lat="42.1165600" lon="-8.8547050">
        <ele>30.3</ele>
        <time>2021-05-19T13:55:03Z</time>
      </trkpt>
      <trkpt lat="42.1165680" lon="-8.8546980">
        <ele>30.2</ele>
        <time>2021-05-19T13:55:04Z</time>
      </trkpt>
      <trkpt lat="42.1165750" lon="-8.8546910">
        <ele>30.1</ele>
        <time>2021-05-19T13:55:05Z</time>
      </trkpt>
      <trkpt lat="42.1165820" lon="-8.8546840">
        <ele>30.0</ele>
        <time>2021-05-19T13:55:06Z</time>
      </trkpt>
      <trkpt lat="42.1166010" lon="-8.8546710">
        <ele>29.8</ele>
        <time>2021-05-19T13:55:07Z</time>
      </trkpt>
      <trkpt lat="42.1166080" lon="-8.8546620">
        <ele>29.7</ele>
        <time>2021-05-19T13:55:08Z</time>
      </trkpt>
      <trkpt lat="42.1166190" lon="-8.8546550">
        <ele>29.6</ele>
        <time>2021-05-19T13:55:09Z</time>
      </trkpt>
      <trkpt lat="42.1166340" lon="-8.8546480">
        <ele>29.4</ele>
        <time>2021-05-19T13:55:10Z</time>
      </trkpt>
      <trkpt lat="42.1166320" lon="-8.8546380">
        <ele>29.3</ele>
        <time>2021-05-19T13:55:11Z</time>
      </trkpt>
      <trkpt lat="42.1166450" lon="-8.8546320">
        <ele>29.1</ele>
        <time>2021-05-19T13:55:12Z</time>
      </trkpt>
      <trkpt lat="42.1166460" lon="-8.8546270">
        <ele>29.1</ele>
        <time>2021-05-19T13:55:13Z</time>
      </trkpt>
      <trkpt lat="42.1166560" lon="-8.8546190">
        <ele>29.0</ele>
        <time>2021-05-19T13:55:14Z</time>
      </trkpt>
      <trkpt lat="42.1166720" lon="-8.8546100">
        <ele>28.8</ele>
        <time>2021-05-19T13:55:15Z</time>
      </trkpt>
      <trkpt lat="42.1166830" lon="-8.8546040">
        <ele>28.6</ele>
        <time>2021-05-19T13:55:16Z</time>
      </trkpt>
      <trkpt lat="42.1166980" lon="-8.8545890">
        <ele>28.4</ele>
        <time>2021-05-19T13:55:17Z</time>
      </trkpt>
      <trkpt lat="42.1167020" lon="-8.8545830">
        <ele>28.3</ele>
        <time>2021-05-19T13:55:18Z</time>
      </trkpt>
      <trkpt lat="42.1167050" lon="-8.8545760">
        <ele>28.3</ele>
        <time>2021-05-19T13:55:19Z</time>
      </trkpt>
      <trkpt lat="42.1167090" lon="-8.8545700">
        <ele>28.2</ele>
        <time>2021-05-19T13:55:20Z</time>
      </trkpt>
      <trkpt lat="42.1167150" lon="-8.8545660">
        <ele>28.1</ele>
        <time>2021-05-19T13:55:21Z</time>
      </trkpt>
      <trkpt lat="42.1167280" lon="-8.8545550">
        <ele>28.0</ele>
        <time>2021-05-19T13:55:22Z</time>
      </trkpt>
      <trkpt lat="42.1167350" lon="-8.8545420">
        <ele>27.8</ele>
        <time>2021-05-19T13:55:23Z</time>
      </trkpt>
      <trkpt lat="42.1167380" lon="-8.8545350">
        <ele>27.7</ele>
        <time>2021-05-19T13:55:24Z</time>
      </trkpt>
      <trkpt lat="42.1167520" lon="-8.8545240">
        <ele>27.6</ele>
        <time>2021-05-19T13:55:25Z</time>
      </trkpt>
      <trkpt lat="42.1167600" lon="-8.8545170">
        <ele>27.4</ele>
        <time>2021-05-19T13:55:26Z</time>
      </trkpt>
      <trkpt lat="42.1167800" lon="-8.8544990">
        <ele>27.2</ele>
        <time>2021-05-19T13:55:27Z</time>
      </trkpt>
      <trkpt lat="42.1167890" lon="-8.8544930">
        <ele>27.1</ele>
        <time>2021-05-19T13:55:28Z</time>
      </trkpt>
      <trkpt lat="42.1167980" lon="-8.8544860">
        <ele>26.9</ele>
        <time>2021-05-19T13:55:29Z</time>
      </trkpt>
      <trkpt lat="42.1168110" lon="-8.8544800">
        <ele>26.8</ele>
        <time>2021-05-19T13:55:30Z</time>
      </trkpt>
      <trkpt lat="42.1168280" lon="-8.8544710">
        <ele>26.6</ele>
        <time>2021-05-19T13:55:31Z</time>
      </trkpt>
      <trkpt lat="42.1168450" lon="-8.8544670">
        <ele>26.4</ele>
        <time>2021-05-19T13:55:32Z</time>
      </trkpt>
      <trkpt lat="42.1168530" lon="-8.8544630">
        <ele>26.3</ele>
        <time>2021-05-19T13:55:33Z</time>
      </trkpt>
      <trkpt lat="42.1168600" lon="-8.8544580">
        <ele>26.2</ele>
        <time>2021-05-19T13:55:34Z</time>
      </trkpt>
      <trkpt lat="42.1168670" lon="-8.8544530">
        <ele>26.2</ele>
        <time>2021-05-19T13:55:35Z</time>
      </trkpt>
      <trkpt lat="42.1168820" lon="-8.8544380">
        <ele>26.0</ele>
        <time>2021-05-19T13:55:36Z</time>
      </trkpt>
      <trkpt lat="42.1168930" lon="-8.8544320">
        <ele>25.9</ele>
        <time>2021-05-19T13:55:37Z</time>
      </trkpt>
      <trkpt lat="42.1169030" lon="-8.8544250">
        <ele>25.8</ele>
        <time>2021-05-19T13:55:38Z</time>
      </trkpt>
      <trkpt lat="42.1169110" lon="-8.8544150">
        <ele>25.6</ele>
        <time>2021-05-19T13:55:39Z</time>
      </trkpt>
      <trkpt lat="42.1169280" lon="-8.8544040">
        <ele>25.5</ele>
        <time>2021-05-19T13:55:40Z</time>
      </trkpt>
      <trkpt lat="42.1169410" lon="-8.8543920">
        <ele>25.3</ele>
        <time>2021-05-19T13:55:41Z</time>
      </trkpt>
      <trkpt lat="42.1169490" lon="-8.8543870">
        <ele>25.3</ele>
        <time>2021-05-19T13:55:42Z</time>
      </trkpt>
      <trkpt lat="42.1169560" lon="-8.8543830">
        <ele>25.2</ele>
        <time>2021-05-19T13:55:43Z</time>
      </trkpt>
      <trkpt lat="42.1169630" lon="-8.8543780">
        <ele>25.1</ele>
        <time>2021-05-19T13:55:44Z</time>
      </trkpt>
      <trkpt lat="42.1169720" lon="-8.8543670">
        <ele>25.0</ele>
        <time>2021-05-19T13:55:45Z</time>
      </trkpt>
      <trkpt lat="42.1169820" lon="-8.8543610">
        <ele>24.9</ele>
        <time>2021-05-19T13:55:46Z</time>
      </trkpt>
      <trkpt lat="42.1169830" lon="-8.8543530">
        <ele>24.9</ele>
        <time>2021-05-19T13:55:47Z</time>
      </trkpt>
      <trkpt lat="42.1170000" lon="-8.8543440">
        <ele>24.7</ele>
        <time>2021-05-19T13:55:48Z</time>
      </trkpt>
      <trkpt lat="42.1170120" lon="-8.8543380">
        <ele>24.6</ele>
        <time>2021-05-19T13:55:49Z</time>
      </trkpt>
      <trkpt lat="42.1170170" lon="-8.8543330">
        <ele>24.6</ele>
        <time>2021-05-19T13:55:50Z</time>
      </trkpt>
      <trkpt lat="42.1170260" lon="-8.8543120">
        <ele>24.4</ele>
        <time>2021-05-19T13:55:51Z</time>
      </trkpt>
      <trkpt lat="42.1170390" lon="-8.8543060">
        <ele>24.3</ele>
        <time>2021-05-19T13:55:52Z</time>
      </trkpt>
      <trkpt lat="42.1170530" lon="-8.8542940">
        <ele>24.2</ele>
        <time>2021-05-19T13:55:53Z</time>
      </trkpt>
      <trkpt lat="42.1170620" lon="-8.8542870">
        <ele>24.1</ele>
        <time>2021-05-19T13:55:54Z</time>
      </trkpt>
      <trkpt lat="42.1170700" lon="-8.8542800">
        <ele>24.1</ele>
        <time>2021-05-19T13:55:55Z</time>
      </trkpt>
      <trkpt lat="42.1170830" lon="-8.8542740">
        <ele>24.0</ele>
        <time>2021-05-19T13:55:56Z</time>
      </trkpt>
      <trkpt lat="42.1170900" lon="-8.8542740">
        <ele>24.0</ele>
        <time>2021-05-19T13:55:57Z</time>
      </trkpt>
      <trkpt lat="42.1170980" lon="-8.8542660">
        <ele>23.9</ele>
        <time>2021-05-19T13:55:58Z</time>
      </trkpt>
      <trkpt lat="42.1171070" lon="-8.8542620">
        <ele>23.8</ele>
        <time>2021-05-19T13:55:59Z</time>
      </trkpt>
      <trkpt lat="42.1171180" lon="-8.8542570">
        <ele>23.8</ele>
        <time>2021-05-19T13:56:00Z</time>
      </trkpt>
      <trkpt lat="42.1171280" lon="-8.8542530">
        <ele>23.7</ele>
        <time>2021-05-19T13:56:01Z</time>
      </trkpt>
      <trkpt lat="42.1171480" lon="-8.8542470">
        <ele>23.6</ele>
        <time>2021-05-19T13:56:02Z</time>
      </trkpt>
      <trkpt lat="42.1171570" lon="-8.8542500">
        <ele>23.5</ele>
        <time>2021-05-19T13:56:03Z</time>
      </trkpt>
      <trkpt lat="42.1171740" lon="-8.8542500">
        <ele>23.4</ele>
        <time>2021-05-19T13:56:04Z</time>
      </trkpt>
      <trkpt lat="42.1171830" lon="-8.8542490">
        <ele>23.4</ele>
        <time>2021-05-19T13:56:05Z</time>
      </trkpt>
      <trkpt lat="42.1171920" lon="-8.8542480">
        <ele>23.3</ele>
        <time>2021-05-19T13:56:06Z</time>
      </trkpt>
      <trkpt lat="42.1172010" lon="-8.8542470">
        <ele>23.3</ele>
        <time>2021-05-19T13:56:07Z</time>
      </trkpt>
      <trkpt lat="42.1172210" lon="-8.8542440">
        <ele>23.2</ele>
        <time>2021-05-19T13:56:08Z</time>
      </trkpt>
      <trkpt lat="42.1172320" lon="-8.8542460">
        <ele>23.1</ele>
        <time>2021-05-19T13:56:09Z</time>
      </trkpt>
      <trkpt lat="42.1172430" lon="-8.8542470">
        <ele>23.1</ele>
        <time>2021-05-19T13:56:10Z</time>
      </trkpt>
      <trkpt lat="42.1172520" lon="-8.8542330">
        <ele>23.0</ele>
        <time>2021-05-19T13:56:11Z</time>
      </trkpt>
      <trkpt lat="42.1172650" lon="-8.8542340">
        <ele>23.0</ele>
        <time>2021-05-19T13:56:12Z</time>
      </trkpt>
      <trkpt lat="42.1172740" lon="-8.8542310">
        <ele>22.9</ele>
        <time>2021-05-19T13:56:13Z</time>
      </trkpt>
      <trkpt lat="42.1172930" lon="-8.8542200">
        <ele>22.8</ele>
        <time>2021-05-19T13:56:14Z</time>
      </trkpt>
      <trkpt lat="42.1173000" lon="-8.8542130">
        <ele>22.8</ele>
        <time>2021-05-19T13:56:15Z</time>
      </trkpt>
      <trkpt lat="42.1173060" lon="-8.8542070">
        <ele>22.7</ele>
        <time>2021-05-19T13:56:16Z</time>
      </trkpt>
      <trkpt lat="42.1173210" lon="-8.8542070">
        <ele>22.7</ele>
        <time>2021-05-19T13:56:17Z</time>
      </trkpt>
      <trkpt lat="42.1173290" lon="-8.8542050">
        <ele>22.6</ele>
        <time>2021-05-19T13:56:18Z</time>
      </trkpt>
      <trkpt lat="42.1173290" lon="-8.8542000">
        <ele>22.6</ele>
        <time>2021-05-19T13:56:19Z</time>
      </trkpt>
      <trkpt lat="42.1173420" lon="-8.8541980">
        <ele>22.6</ele>
        <time>2021-05-19T13:56:20Z</time>
      </trkpt>
      <trkpt lat="42.1173590" lon="-8.8541980">
        <ele>22.5</ele>
        <time>2021-05-19T13:56:21Z</time>
      </trkpt>
      <trkpt lat="42.1173620" lon="-8.8541980">
        <ele>22.5</ele>
        <time>2021-05-19T13:56:22Z</time>
      </trkpt>
      <trkpt lat="42.1173730" lon="-8.8541950">
        <ele>22.4</ele>
        <time>2021-05-19T13:56:23Z</time>
      </trkpt>
      <trkpt lat="42.1173820" lon="-8.8541970">
        <ele>22.4</ele>
        <time>2021-05-19T13:56:24Z</time>
      </trkpt>
      <trkpt lat="42.1173920" lon="-8.8541900">
        <ele>22.3</ele>
        <time>2021-05-19T13:56:25Z</time>
      </trkpt>
      <trkpt lat="42.1174040" lon="-8.8541920">
        <ele>22.3</ele>
        <time>2021-05-19T13:56:26Z</time>
      </trkpt>
      <trkpt lat="42.1174170" lon="-8.8541970">
        <ele>22.2</ele>
        <time>2021-05-19T13:56:27Z</time>
      </trkpt>
      <trkpt lat="42.1174230" lon="-8.8542030">
        <ele>22.2</ele>
        <time>2021-05-19T13:56:28Z</time>
      </trkpt>
      <trkpt lat="42.1174210" lon="-8.8542120">
        <ele>22.2</ele>
        <time>2021-05-19T13:56:29Z</time>
      </trkpt>
      <trkpt lat="42.1174330" lon="-8.8542160">
        <ele>22.1</ele>
        <time>2021-05-19T13:56:30Z</time>
      </trkpt>
      <trkpt lat="42.1174460" lon="-8.8542130">
        <ele>22.1</ele>
        <time>2021-05-19T13:56:31Z</time>
      </trkpt>
      <trkpt lat="42.1174580" lon="-8.8542120">
        <ele>22.0</ele>
        <time>2021-05-19T13:56:32Z</time>
      </trkpt>
      <trkpt lat="42.1174670" lon="-8.8542060">
        <ele>22.0</ele>
        <time>2021-05-19T13:56:33Z</time>
      </trkpt>
      <trkpt lat="42.1174840" lon="-8.8541980">
        <ele>21.9</ele>
        <time>2021-05-19T13:56:34Z</time>
      </trkpt>
      <trkpt lat="42.1174910" lon="-8.8541850">
        <ele>21.8</ele>
        <time>2021-05-19T13:56:35Z</time>
      </trkpt>
      <trkpt lat="42.1175010" lon="-8.8541720">
        <ele>21.8</ele>
        <time>2021-05-19T13:56:36Z</time>
      </trkpt>
      <trkpt lat="42.1175190" lon="-8.8541670">
        <ele>21.7</ele>
        <time>2021-05-19T13:56:37Z</time>
      </trkpt>
      <trkpt lat="42.1175320" lon="-8.8541640">
        <ele>21.6</ele>
        <time>2021-05-19T13:56:38Z</time>
      </trkpt>
      <trkpt lat="42.1175460" lon="-8.8541630">
        <ele>21.6</ele>
        <time>2021-05-19T13:56:39Z</time>
      </trkpt>
      <trkpt lat="42.1175520" lon="-8.8541510">
        <ele>21.5</ele>
        <time>2021-05-19T13:56:40Z</time>
      </trkpt>
      <trkpt lat="42.1175570" lon="-8.8541460">
        <ele>21.5</ele>
        <time>2021-05-19T13:56:41Z</time>
      </trkpt>
      <trkpt lat="42.1175730" lon="-8.8541430">
        <ele>21.4</ele>
        <time>2021-05-19T13:56:42Z</time>
      </trkpt>
      <trkpt lat="42.1175890" lon="-8.8541400">
        <ele>21.3</ele>
        <time>2021-05-19T13:56:43Z</time>
      </trkpt>
      <trkpt lat="42.1176000" lon="-8.8541390">
        <ele>21.3</ele>
        <time>2021-05-19T13:56:44Z</time>
      </trkpt>
      <trkpt lat="42.1176200" lon="-8.8541390">
        <ele>21.1</ele>
        <time>2021-05-19T13:56:45Z</time>
      </trkpt>
      <trkpt lat="42.1176290" lon="-8.8541380">
        <ele>21.1</ele>
        <time>2021-05-19T13:56:46Z</time>
      </trkpt>
      <trkpt lat="42.1176370" lon="-8.8541380">
        <ele>21.1</ele>
        <time>2021-05-19T13:56:47Z</time>
      </trkpt>
      <trkpt lat="42.1176510" lon="-8.8541470">
        <ele>21.0</ele>
        <time>2021-05-19T13:56:48Z</time>
      </trkpt>
      <trkpt lat="42.1176660" lon="-8.8541470">
        <ele>20.9</ele>
        <time>2021-05-19T13:56:49Z</time>
      </trkpt>
      <trkpt lat="42.1176770" lon="-8.8541480">
        <ele>20.8</ele>
        <time>2021-05-19T13:56:50Z</time>
      </trkpt>
      <trkpt lat="42.1176900" lon="-8.8541480">
        <ele>20.7</ele>
        <time>2021-05-19T13:56:51Z</time>
      </trkpt>
      <trkpt lat="42.1177020" lon="-8.8541500">
        <ele>20.6</ele>
        <time>2021-05-19T13:56:52Z</time>
      </trkpt>
      <trkpt lat="42.1177170" lon="-8.8541540">
        <ele>20.6</ele>
        <time>2021-05-19T13:56:53Z</time>
      </trkpt>
      <trkpt lat="42.1177250" lon="-8.8541560">
        <ele>20.5</ele>
        <time>2021-05-19T13:56:54Z</time>
      </trkpt>
      <trkpt lat="42.1177320" lon="-8.8541590">
        <ele>20.5</ele>
        <time>2021-05-19T13:56:55Z</time>
      </trkpt>
      <trkpt lat="42.1177400" lon="-8.8541610">
        <ele>20.4</ele>
        <time>2021-05-19T13:56:56Z</time>
      </trkpt>
      <trkpt lat="42.1177550" lon="-8.8541710">
        <ele>20.3</ele>
        <time>2021-05-19T13:56:57Z</time>
      </trkpt>
      <trkpt lat="42.1177680" lon="-8.8541710">
        <ele>20.2</ele>
        <time>2021-05-19T13:56:58Z</time>
      </trkpt>
      <trkpt lat="42.1177780" lon="-8.8541780">
        <ele>20.1</ele>
        <time>2021-05-19T13:56:59Z</time>
      </trkpt>
      <trkpt lat="42.1177890" lon="-8.8541820">
        <ele>20.1</ele>
        <time>2021-05-19T13:57:00Z</time>
      </trkpt>
      <trkpt lat="42.1177940" lon="-8.8541860">
        <ele>20.0</ele>
        <time>2021-05-19T13:57:01Z</time>
      </trkpt>
      <trkpt lat="42.1178100" lon="-8.8541890">
        <ele>19.9</ele>
        <time>2021-05-19T13:57:02Z</time>
      </trkpt>
      <trkpt lat="42.1178240" lon="-8.8541830">
        <ele>19.8</ele>
        <time>2021-05-19T13:57:03Z</time>
      </trkpt>
      <trkpt lat="42.1178440" lon="-8.8541790">
        <ele>19.7</ele>
        <time>2021-05-19T13:57:04Z</time>
      </trkpt>
      <trkpt lat="42.1178520" lon="-8.8541760">
        <ele>19.6</ele>
        <time>2021-05-19T13:57:05Z</time>
      </trkpt>
      <trkpt lat="42.1178610" lon="-8.8541740">
        <ele>19.6</ele>
        <time>2021-05-19T13:57:06Z</time>
      </trkpt>
      <trkpt lat="42.1178830" lon="-8.8541670">
        <ele>19.4</ele>
        <time>2021-05-19T13:57:07Z</time>
      </trkpt>
      <trkpt lat="42.1178960" lon="-8.8541640">
        <ele>19.3</ele>
        <time>2021-05-19T13:57:08Z</time>
      </trkpt>
      <trkpt lat="42.1179090" lon="-8.8541600">
        <ele>19.3</ele>
        <time>2021-05-19T13:57:09Z</time>
      </trkpt>
      <trkpt lat="42.1179300" lon="-8.8541580">
        <ele>19.1</ele>
        <time>2021-05-19T13:57:10Z</time>
      </trkpt>
      <trkpt lat="42.1179390" lon="-8.8541570">
        <ele>19.1</ele>
        <time>2021-05-19T13:57:11Z</time>
      </trkpt>
      <trkpt lat="42.1179480" lon="-8.8541560">
        <ele>19.0</ele>
        <time>2021-05-19T13:57:12Z</time>
      </trkpt>
      <trkpt lat="42.1179630" lon="-8.8541450">
        <ele>18.9</ele>
        <time>2021-05-19T13:57:13Z</time>
      </trkpt>
      <trkpt lat="42.1179670" lon="-8.8541390">
        <ele>18.8</ele>
        <time>2021-05-19T13:57:14Z</time>
      </trkpt>
      <trkpt lat="42.1179750" lon="-8.8541340">
        <ele>18.8</ele>
        <time>2021-05-19T13:57:15Z</time>
      </trkpt>
      <trkpt lat="42.1179840" lon="-8.8541350">
        <ele>18.7</ele>
        <time>2021-05-19T13:57:16Z</time>
      </trkpt>
      <trkpt lat="42.1180000" lon="-8.8541350">
        <ele>18.6</ele>
        <time>2021-05-19T13:57:17Z</time>
      </trkpt>
      <trkpt lat="42.1180090" lon="-8.8541370">
        <ele>18.5</ele>
        <time>2021-05-19T13:57:18Z</time>
      </trkpt>
      <trkpt lat="42.1180250" lon="-8.8541440">
        <ele>18.4</ele>
        <time>2021-05-19T13:57:19Z</time>
      </trkpt>
      <trkpt lat="42.1180350" lon="-8.8541480">
        <ele>18.3</ele>
        <time>2021-05-19T13:57:20Z</time>
      </trkpt>
      <trkpt lat="42.1180450" lon="-8.8541510">
        <ele>18.3</ele>
        <time>2021-05-19T13:57:21Z</time>
      </trkpt>
      <trkpt lat="42.1180490" lon="-8.8541540">
        <ele>18.2</ele>
        <time>2021-05-19T13:57:22Z</time>
      </trkpt>
      <trkpt lat="42.1180540" lon="-8.8541540">
        <ele>18.2</ele>
        <time>2021-05-19T13:57:23Z</time>
      </trkpt>
      <trkpt lat="42.1180650" lon="-8.8541550">
        <ele>18.1</ele>
        <time>2021-05-19T13:57:24Z</time>
      </trkpt>
      <trkpt lat="42.1180800" lon="-8.8541580">
        <ele>18.0</ele>
        <time>2021-05-19T13:57:25Z</time>
      </trkpt>
      <trkpt lat="42.1180920" lon="-8.8541590">
        <ele>17.9</ele>
        <time>2021-05-19T13:57:26Z</time>
      </trkpt>
      <trkpt lat="42.1181030" lon="-8.8541630">
        <ele>17.8</ele>
        <time>2021-05-19T13:57:27Z</time>
      </trkpt>
      <trkpt lat="42.1181070" lon="-8.8541630">
        <ele>17.7</ele>
        <time>2021-05-19T13:57:28Z</time>
      </trkpt>
      <trkpt lat="42.1181160" lon="-8.8541690">
        <ele>17.7</ele>
        <time>2021-05-19T13:57:29Z</time>
      </trkpt>
      <trkpt lat="42.1181250" lon="-8.8541690">
        <ele>17.6</ele>
        <time>2021-05-19T13:57:30Z</time>
      </trkpt>
      <trkpt lat="42.1181360" lon="-8.8541740">
        <ele>17.5</ele>
        <time>2021-05-19T13:57:31Z</time>
      </trkpt>
      <trkpt lat="42.1181560" lon="-8.8541730">
        <ele>17.3</ele>
        <time>2021-05-19T13:57:32Z</time>
      </trkpt>
      <trkpt lat="42.1181650" lon="-8.8541690">
        <ele>17.3</ele>
        <time>2021-05-19T13:57:33Z</time>
      </trkpt>
      <trkpt lat="42.1181730" lon="-8.8541660">
        <ele>17.2</ele>
        <time>2021-05-19T13:57:34Z</time>
      </trkpt>
      <trkpt lat="42.1181790" lon="-8.8541600">
        <ele>17.1</ele>
        <time>2021-05-19T13:57:35Z</time>
      </trkpt>
      <trkpt lat="42.1181870" lon="-8.8541440">
        <ele>17.0</ele>
        <time>2021-05-19T13:57:36Z</time>
      </trkpt>
      <trkpt lat="42.1181870" lon="-8.8541320">
        <ele>16.7</ele>
        <time>2021-05-19T13:57:37Z</time>
      </trkpt>
      <trkpt lat="42.1182030" lon="-8.8541150">
        <ele>16.6</ele>
        <time>2021-05-19T13:57:38Z</time>
      </trkpt>
      <trkpt lat="42.1182100" lon="-8.8541080">
        <ele>16.6</ele>
        <time>2021-05-19T13:57:39Z</time>
      </trkpt>
      <trkpt lat="42.1182170" lon="-8.8541010">
        <ele>16.6</ele>
        <time>2021-05-19T13:57:40Z</time>
      </trkpt>
      <trkpt lat="42.1182340" lon="-8.8540810">
        <ele>16.6</ele>
        <time>2021-05-19T13:57:41Z</time>
      </trkpt>
      <trkpt lat="42.1182390" lon="-8.8540740">
        <ele>16.6</ele>
        <time>2021-05-19T13:57:42Z</time>
      </trkpt>
      <trkpt lat="42.1182450" lon="-8.8540660">
        <ele>16.6</ele>
        <time>2021-05-19T13:57:43Z</time>
      </trkpt>
      <trkpt lat="42.1182520" lon="-8.8540570">
        <ele>16.6</ele>
        <time>2021-05-19T13:57:44Z</time>
      </trkpt>
      <trkpt lat="42.1182610" lon="-8.8540430">
        <ele>16.6</ele>
        <time>2021-05-19T13:57:45Z</time>
      </trkpt>
      <trkpt lat="42.1182610" lon="-8.8540340">
        <ele>16.6</ele>
        <time>2021-05-19T13:57:46Z</time>
      </trkpt>
      <trkpt lat="42.1182660" lon="-8.8540270">
        <ele>16.6</ele>
        <time>2021-05-19T13:57:47Z</time>
      </trkpt>
      <trkpt lat="42.1182700" lon="-8.8540260">
        <ele>16.6</ele>
        <time>2021-05-19T13:57:48Z</time>
      </trkpt>
      <trkpt lat="42.1182750" lon="-8.8540250">
        <ele>16.6</ele>
        <time>2021-05-19T13:57:49Z</time>
      </trkpt>
      <trkpt lat="42.1182800" lon="-8.8540270">
        <ele>16.6</ele>
        <time>2021-05-19T13:57:50Z</time>
      </trkpt>
      <trkpt lat="42.1182840" lon="-8.8540270">
        <ele>16.6</ele>
        <time>2021-05-19T13:57:51Z</time>
      </trkpt>
      <trkpt lat="42.1182880" lon="-8.8540280">
        <ele>16.6</ele>
        <time>2021-05-19T13:57:52Z</time>
      </trkpt>
      <trkpt lat="42.1182940" lon="-8.8540260">
        <ele>16.6</ele>
        <time>2021-05-19T13:57:53Z</time>
      </trkpt>
      <trkpt lat="42.1182960" lon="-8.8540260">
        <ele>16.6</ele>
        <time>2021-05-19T13:57:54Z</time>
      </trkpt>
      <trkpt lat="42.1182980" lon="-8.8540260">
        <ele>16.6</ele>
        <time>2021-05-19T13:57:55Z</time>
      </trkpt>
      <trkpt lat="42.1183000" lon="-8.8540280">
        <ele>16.6</ele>
        <time>2021-05-19T13:57:56Z</time>
      </trkpt>
      <trkpt lat="42.1183020" lon="-8.8540310">
        <ele>16.6</ele>
        <time>2021-05-19T13:57:57Z</time>
      </trkpt>
      <trkpt lat="42.1183030" lon="-8.8540360">
        <ele>16.6</ele>
        <time>2021-05-19T13:57:58Z</time>
      </trkpt>
      <trkpt lat="42.1183010" lon="-8.8540330">
        <ele>16.6</ele>
        <time>2021-05-19T13:57:59Z</time>
      </trkpt>
      <trkpt lat="42.1183010" lon="-8.8540300">
        <ele>16.6</ele>
        <time>2021-05-19T13:58:00Z</time>
      </trkpt>
      <trkpt lat="42.1183050" lon="-8.8540340">
        <ele>16.6</ele>
        <time>2021-05-19T13:58:01Z</time>
      </trkpt>
      <trkpt lat="42.1183050" lon="-8.8540370">
        <ele>16.6</ele>
        <time>2021-05-19T13:58:02Z</time>
      </trkpt>
      <trkpt lat="42.1183010" lon="-8.8540310">
        <ele>16.6</ele>
        <time>2021-05-19T13:58:03Z</time>
      </trkpt>
      <trkpt lat="42.1183000" lon="-8.8540290">
        <ele>16.6</ele>
        <time>2021-05-19T13:58:04Z</time>
      </trkpt>
      <trkpt lat="42.1183000" lon="-8.8540260">
        <ele>16.6</ele>
        <time>2021-05-19T13:58:05Z</time>
      </trkpt>
      <trkpt lat="42.1183010" lon="-8.8540240">
        <ele>16.6</ele>
        <time>2021-05-19T13:58:06Z</time>
      </trkpt>
      <trkpt lat="42.1183030" lon="-8.8540270">
        <ele>16.6</ele>
        <time>2021-05-19T13:58:07Z</time>
      </trkpt>
      <trkpt lat="42.1183060" lon="-8.8540270">
        <ele>16.6</ele>
        <time>2021-05-19T13:58:08Z</time>
      </trkpt>
      <trkpt lat="42.1183070" lon="-8.8540290">
        <ele>16.6</ele>
        <time>2021-05-19T13:58:09Z</time>
      </trkpt>
      <trkpt lat="42.1183040" lon="-8.8540300">
        <ele>16.6</ele>
        <time>2021-05-19T13:58:10Z</time>
      </trkpt>
      <trkpt lat="42.1183000" lon="-8.8540290">
        <ele>16.6</ele>
        <time>2021-05-19T13:58:11Z</time>
      </trkpt>
      <trkpt lat="42.1183000" lon="-8.8540290">
        <ele>16.6</ele>
        <time>2021-05-19T13:58:12Z</time>
      </trkpt>
      <trkpt lat="42.1182910" lon="-8.8540270">
        <ele>16.6</ele>
        <time>2021-05-19T13:58:13Z</time>
      </trkpt>
      <trkpt lat="42.1182900" lon="-8.8540250">
        <ele>16.6</ele>
        <time>2021-05-19T13:58:14Z</time>
      </trkpt>
      <trkpt lat="42.1182910" lon="-8.8540240">
        <ele>16.6</ele>
        <time>2021-05-19T13:58:15Z</time>
      </trkpt>
      <trkpt lat="42.1182920" lon="-8.8540230">
        <ele>16.6</ele>
        <time>2021-05-19T13:58:16Z</time>
      </trkpt>
      <trkpt lat="42.1182910" lon="-8.8540200">
        <ele>16.6</ele>
        <time>2021-05-19T13:58:17Z</time>
      </trkpt>
      <trkpt lat="42.1182890" lon="-8.8540210">
        <ele>16.6</ele>
        <time>2021-05-19T13:58:18Z</time>
      </trkpt>
      <trkpt lat="42.1182890" lon="-8.8540180">
        <ele>16.6</ele>
        <time>2021-05-19T13:58:19Z</time>
      </trkpt>
      <trkpt lat="42.1182930" lon="-8.8540170">
        <ele>16.6</ele>
        <time>2021-05-19T13:58:20Z</time>
      </trkpt>
      <trkpt lat="42.1182930" lon="-8.8540170">
        <ele>16.6</ele>
        <time>2021-05-19T13:58:21Z</time>
      </trkpt>
      <trkpt lat="42.1182920" lon="-8.8540160">
        <ele>16.6</ele>
        <time>2021-05-19T13:58:22Z</time>
      </trkpt>
      <trkpt lat="42.1182860" lon="-8.8540130">
        <ele>16.6</ele>
        <time>2021-05-19T13:58:23Z</time>
      </trkpt>
      <trkpt lat="42.1182820" lon="-8.8540130">
        <ele>16.6</ele>
        <time>2021-05-19T13:58:24Z</time>
      </trkpt>
      <trkpt lat="42.1182820" lon="-8.8540150">
        <ele>16.6</ele>
        <time>2021-05-19T13:58:25Z</time>
      </trkpt>
      <trkpt lat="42.1182850" lon="-8.8540160">
        <ele>16.6</ele>
        <time>2021-05-19T13:58:26Z</time>
      </trkpt>
      <trkpt lat="42.1182850" lon="-8.8540180">
        <ele>16.6</ele>
        <time>2021-05-19T13:58:27Z</time>
      </trkpt>
      <trkpt lat="42.1182870" lon="-8.8540180">
        <ele>16.6</ele>
        <time>2021-05-19T13:58:28Z</time>
      </trkpt>
      <trkpt lat="42.1182910" lon="-8.8540200">
        <ele>16.6</ele>
        <time>2021-05-19T13:58:29Z</time>
      </trkpt>
      <trkpt lat="42.1182930" lon="-8.8540200">
        <ele>16.6</ele>
        <time>2021-05-19T13:58:30Z</time>
      </trkpt>
      <trkpt lat="42.1182970" lon="-8.8540180">
        <ele>16.6</ele>
        <time>2021-05-19T13:58:31Z</time>
      </trkpt>
      <trkpt lat="42.1182970" lon="-8.8540180">
        <ele>16.6</ele>
        <time>2021-05-19T13:58:32Z</time>
      </trkpt>
      <trkpt lat="42.1183010" lon="-8.8540180">
        <ele>16.6</ele>
        <time>2021-05-19T13:58:33Z</time>
      </trkpt>
      <trkpt lat="42.1183020" lon="-8.8540190">
        <ele>16.6</ele>
        <time>2021-05-19T13:58:34Z</time>
      </trkpt>
      <trkpt lat="42.1183020" lon="-8.8540180">
        <ele>16.5</ele>
        <time>2021-05-19T13:58:35Z</time>
      </trkpt>
      <trkpt lat="42.1183020" lon="-8.8540160">
        <ele>16.5</ele>
        <time>2021-05-19T13:58:36Z</time>
      </trkpt>
      <trkpt lat="42.1183020" lon="-8.8540130">
        <ele>16.5</ele>
        <time>2021-05-19T13:58:37Z</time>
      </trkpt>
      <trkpt lat="42.1183160" lon="-8.8540050">
        <ele>16.2</ele>
        <time>2021-05-19T13:58:38Z</time>
      </trkpt>
      <trkpt lat="42.1183180" lon="-8.8540010">
        <ele>16.2</ele>
        <time>2021-05-19T13:58:39Z</time>
      </trkpt>
      <trkpt lat="42.1183230" lon="-8.8539970">
        <ele>16.2</ele>
        <time>2021-05-19T13:58:40Z</time>
      </trkpt>
      <trkpt lat="42.1183270" lon="-8.8539970">
        <ele>16.2</ele>
        <time>2021-05-19T13:58:41Z</time>
      </trkpt>
      <trkpt lat="42.1183340" lon="-8.8539940">
        <ele>16.2</ele>
        <time>2021-05-19T13:58:42Z</time>
      </trkpt>
      <trkpt lat="42.1183400" lon="-8.8539940">
        <ele>16.2</ele>
        <time>2021-05-19T13:58:43Z</time>
      </trkpt>
      <trkpt lat="42.1183450" lon="-8.8539970">
        <ele>16.1</ele>
        <time>2021-05-19T13:58:44Z</time>
      </trkpt>
      <trkpt lat="42.1183510" lon="-8.8539930">
        <ele>16.1</ele>
        <time>2021-05-19T13:58:45Z</time>
      </trkpt>
      <trkpt lat="42.1183560" lon="-8.8539910">
        <ele>16.1</ele>
        <time>2021-05-19T13:58:46Z</time>
      </trkpt>
      <trkpt lat="42.1183610" lon="-8.8539900">
        <ele>16.1</ele>
        <time>2021-05-19T13:58:47Z</time>
      </trkpt>
      <trkpt lat="42.1183660" lon="-8.8539880">
        <ele>16.1</ele>
        <time>2021-05-19T13:58:48Z</time>
      </trkpt>
      <trkpt lat="42.1183710" lon="-8.8539870">
        <ele>16.0</ele>
        <time>2021-05-19T13:58:49Z</time>
      </trkpt>
      <trkpt lat="42.1183760" lon="-8.8539850">
        <ele>16.0</ele>
        <time>2021-05-19T13:58:50Z</time>
      </trkpt>
      <trkpt lat="42.1183810" lon="-8.8539840">
        <ele>16.0</ele>
        <time>2021-05-19T13:58:51Z</time>
      </trkpt>
      <trkpt lat="42.1183910" lon="-8.8539740">
        <ele>16.0</ele>
        <time>2021-05-19T13:58:52Z</time>
      </trkpt>
      <trkpt lat="42.1183980" lon="-8.8539650">
        <ele>15.9</ele>
        <time>2021-05-19T13:58:53Z</time>
      </trkpt>
      <trkpt lat="42.1184070" lon="-8.8539570">
        <ele>15.9</ele>
        <time>2021-05-19T13:58:54Z</time>
      </trkpt>
      <trkpt lat="42.1184170" lon="-8.8539480">
        <ele>15.9</ele>
        <time>2021-05-19T13:58:55Z</time>
      </trkpt>
      <trkpt lat="42.1184230" lon="-8.8539400">
        <ele>15.8</ele>
        <time>2021-05-19T13:58:56Z</time>
      </trkpt>
      <trkpt lat="42.1184260" lon="-8.8539340">
        <ele>15.8</ele>
        <time>2021-05-19T13:58:57Z</time>
      </trkpt>
      <trkpt lat="42.1184280" lon="-8.8539250">
        <ele>15.8</ele>
        <time>2021-05-19T13:58:58Z</time>
      </trkpt>
      <trkpt lat="42.1184310" lon="-8.8539120">
        <ele>15.8</ele>
        <time>2021-05-19T13:58:59Z</time>
      </trkpt>
      <trkpt lat="42.1184390" lon="-8.8539050">
        <ele>15.7</ele>
        <time>2021-05-19T13:59:00Z</time>
      </trkpt>
      <trkpt lat="42.1184440" lon="-8.8538940">
        <ele>15.7</ele>
        <time>2021-05-19T13:59:01Z</time>
      </trkpt>
      <trkpt lat="42.1184530" lon="-8.8538760">
        <ele>15.6</ele>
        <time>2021-05-19T13:59:02Z</time>
      </trkpt>
      <trkpt lat="42.1184570" lon="-8.8538680">
        <ele>15.6</ele>
        <time>2021-05-19T13:59:03Z</time>
      </trkpt>
      <trkpt lat="42.1184670" lon="-8.8538640">
        <ele>15.6</ele>
        <time>2021-05-19T13:59:04Z</time>
      </trkpt>
      <trkpt lat="42.1184730" lon="-8.8538490">
        <ele>15.5</ele>
        <time>2021-05-19T13:59:05Z</time>
      </trkpt>
      <trkpt lat="42.1184750" lon="-8.8538250">
        <ele>15.5</ele>
        <time>2021-05-19T13:59:06Z</time>
      </trkpt>
      <trkpt lat="42.1184760" lon="-8.8538130">
        <ele>15.4</ele>
        <time>2021-05-19T13:59:07Z</time>
      </trkpt>
      <trkpt lat="42.1184840" lon="-8.8537980">
        <ele>15.4</ele>
        <time>2021-05-19T13:59:08Z</time>
      </trkpt>
      <trkpt lat="42.1184900" lon="-8.8537930">
        <ele>15.4</ele>
        <time>2021-05-19T13:59:09Z</time>
      </trkpt>
      <trkpt lat="42.1185000" lon="-8.8537810">
        <ele>15.3</ele>
        <time>2021-05-19T13:59:10Z</time>
      </trkpt>
      <trkpt lat="42.1185090" lon="-8.8537670">
        <ele>15.3</ele>
        <time>2021-05-19T13:59:11Z</time>
      </trkpt>
      <trkpt lat="42.1185110" lon="-8.8537570">
        <ele>15.2</ele>
        <time>2021-05-19T13:59:12Z</time>
      </trkpt>
      <trkpt lat="42.1185180" lon="-8.8537400">
        <ele>15.2</ele>
        <time>2021-05-19T13:59:13Z</time>
      </trkpt>
      <trkpt lat="42.1185230" lon="-8.8537210">
        <ele>15.1</ele>
        <time>2021-05-19T13:59:14Z</time>
      </trkpt>
      <trkpt lat="42.1185340" lon="-8.8536940">
        <ele>15.0</ele>
        <time>2021-05-19T13:59:15Z</time>
      </trkpt>
      <trkpt lat="42.1185390" lon="-8.8536850">
        <ele>15.0</ele>
        <time>2021-05-19T13:59:16Z</time>
      </trkpt>
      <trkpt lat="42.1185440" lon="-8.8536760">
        <ele>15.0</ele>
        <time>2021-05-19T13:59:17Z</time>
      </trkpt>
      <trkpt lat="42.1185480" lon="-8.8536670">
        <ele>15.0</ele>
        <time>2021-05-19T13:59:18Z</time>
      </trkpt>
      <trkpt lat="42.1185580" lon="-8.8536490">
        <ele>14.9</ele>
        <time>2021-05-19T13:59:19Z</time>
      </trkpt>
      <trkpt lat="42.1185670" lon="-8.8536460">
        <ele>14.9</ele>
        <time>2021-05-19T13:59:20Z</time>
      </trkpt>
      <trkpt lat="42.1185750" lon="-8.8536370">
        <ele>14.8</ele>
        <time>2021-05-19T13:59:21Z</time>
      </trkpt>
      <trkpt lat="42.1185860" lon="-8.8536230">
        <ele>14.8</ele>
        <time>2021-05-19T13:59:22Z</time>
      </trkpt>
      <trkpt lat="42.1185900" lon="-8.8536130">
        <ele>14.7</ele>
        <time>2021-05-19T13:59:23Z</time>
      </trkpt>
      <trkpt lat="42.1186030" lon="-8.8536060">
        <ele>14.7</ele>
        <time>2021-05-19T13:59:24Z</time>
      </trkpt>
      <trkpt lat="42.1186110" lon="-8.8535890">
        <ele>14.6</ele>
        <time>2021-05-19T13:59:25Z</time>
      </trkpt>
      <trkpt lat="42.1186120" lon="-8.8535640">
        <ele>14.6</ele>
        <time>2021-05-19T13:59:26Z</time>
      </trkpt>
      <trkpt lat="42.1186180" lon="-8.8535480">
        <ele>14.5</ele>
        <time>2021-05-19T13:59:27Z</time>
      </trkpt>
      <trkpt lat="42.1186250" lon="-8.8535270">
        <ele>14.4</ele>
        <time>2021-05-19T13:59:28Z</time>
      </trkpt>
      <trkpt lat="42.1186260" lon="-8.8535110">
        <ele>14.4</ele>
        <time>2021-05-19T13:59:29Z</time>
      </trkpt>
      <trkpt lat="42.1186310" lon="-8.8535000">
        <ele>14.4</ele>
        <time>2021-05-19T13:59:30Z</time>
      </trkpt>
      <trkpt lat="42.1186370" lon="-8.8534850">
        <ele>14.3</ele>
        <time>2021-05-19T13:59:31Z</time>
      </trkpt>
      <trkpt lat="42.1186460" lon="-8.8534710">
        <ele>14.3</ele>
        <time>2021-05-19T13:59:32Z</time>
      </trkpt>
      <trkpt lat="42.1186570" lon="-8.8534590">
        <ele>14.2</ele>
        <time>2021-05-19T13:59:33Z</time>
      </trkpt>
      <trkpt lat="42.1186650" lon="-8.8534510">
        <ele>14.2</ele>
        <time>2021-05-19T13:59:34Z</time>
      </trkpt>
      <trkpt lat="42.1186710" lon="-8.8534380">
        <ele>14.1</ele>
        <time>2021-05-19T13:59:35Z</time>
      </trkpt>
      <trkpt lat="42.1186770" lon="-8.8534270">
        <ele>14.1</ele>
        <time>2021-05-19T13:59:36Z</time>
      </trkpt>
      <trkpt lat="42.1186790" lon="-8.8534170">
        <ele>14.1</ele>
        <time>2021-05-19T13:59:37Z</time>
      </trkpt>
      <trkpt lat="42.1186830" lon="-8.8534010">
        <ele>14.0</ele>
        <time>2021-05-19T13:59:38Z</time>
      </trkpt>
      <trkpt lat="42.1186910" lon="-8.8533870">
        <ele>14.0</ele>
        <time>2021-05-19T13:59:39Z</time>
      </trkpt>
      <trkpt lat="42.1187010" lon="-8.8533700">
        <ele>13.9</ele>
        <time>2021-05-19T13:59:40Z</time>
      </trkpt>
      <trkpt lat="42.1187060" lon="-8.8533570">
        <ele>13.9</ele>
        <time>2021-05-19T13:59:41Z</time>
      </trkpt>
      <trkpt lat="42.1187140" lon="-8.8533360">
        <ele>13.8</ele>
        <time>2021-05-19T13:59:42Z</time>
      </trkpt>
      <trkpt lat="42.1187140" lon="-8.8533170">
        <ele>13.7</ele>
        <time>2021-05-19T13:59:43Z</time>
      </trkpt>
      <trkpt lat="42.1187170" lon="-8.8532990">
        <ele>13.7</ele>
        <time>2021-05-19T13:59:44Z</time>
      </trkpt>
      <trkpt lat="42.1187210" lon="-8.8532810">
        <ele>13.6</ele>
        <time>2021-05-19T13:59:45Z</time>
      </trkpt>
      <trkpt lat="42.1187320" lon="-8.8532600">
        <ele>13.6</ele>
        <time>2021-05-19T13:59:46Z</time>
      </trkpt>
      <trkpt lat="42.1187360" lon="-8.8532480">
        <ele>13.5</ele>
        <time>2021-05-19T13:59:47Z</time>
      </trkpt>
      <trkpt lat="42.1187440" lon="-8.8532410">
        <ele>13.5</ele>
        <time>2021-05-19T13:59:48Z</time>
      </trkpt>
      <trkpt lat="42.1187470" lon="-8.8532190">
        <ele>13.4</ele>
        <time>2021-05-19T13:59:49Z</time>
      </trkpt>
      <trkpt lat="42.1187500" lon="-8.8532080">
        <ele>13.4</ele>
        <time>2021-05-19T13:59:50Z</time>
      </trkpt>
      <trkpt lat="42.1187580" lon="-8.8531840">
        <ele>13.3</ele>
        <time>2021-05-19T13:59:51Z</time>
      </trkpt>
      <trkpt lat="42.1187660" lon="-8.8531610">
        <ele>13.3</ele>
        <time>2021-05-19T13:59:52Z</time>
      </trkpt>
      <trkpt lat="42.1187690" lon="-8.8531490">
        <ele>13.2</ele>
        <time>2021-05-19T13:59:53Z</time>
      </trkpt>
      <trkpt lat="42.1187720" lon="-8.8531360">
        <ele>13.2</ele>
        <time>2021-05-19T13:59:54Z</time>
      </trkpt>
      <trkpt lat="42.1187780" lon="-8.8531110">
        <ele>13.1</ele>
        <time>2021-05-19T13:59:55Z</time>
      </trkpt>
      <trkpt lat="42.1187820" lon="-8.8531010">
        <ele>13.1</ele>
        <time>2021-05-19T13:59:56Z</time>
      </trkpt>
      <trkpt lat="42.1187860" lon="-8.8530910">
        <ele>13.0</ele>
        <time>2021-05-19T13:59:57Z</time>
      </trkpt>
      <trkpt lat="42.1187940" lon="-8.8530650">
        <ele>12.9</ele>
        <time>2021-05-19T13:59:58Z</time>
      </trkpt>
      <trkpt lat="42.1187970" lon="-8.8530540">
        <ele>12.9</ele>
        <time>2021-05-19T13:59:59Z</time>
      </trkpt>
      <trkpt lat="42.1187990" lon="-8.8530440">
        <ele>12.9</ele>
        <time>2021-05-19T14:00:00Z</time>
      </trkpt>
      <trkpt lat="42.1188080" lon="-8.8530330">
        <ele>12.8</ele>
        <time>2021-05-19T14:00:01Z</time>
      </trkpt>
      <trkpt lat="42.1188140" lon="-8.8530120">
        <ele>12.7</ele>
        <time>2021-05-19T14:00:02Z</time>
      </trkpt>
      <trkpt lat="42.1188270" lon="-8.8529910">
        <ele>12.6</ele>
        <time>2021-05-19T14:00:03Z</time>
      </trkpt>
      <trkpt lat="42.1188330" lon="-8.8529780">
        <ele>12.6</ele>
        <time>2021-05-19T14:00:04Z</time>
      </trkpt>
      <trkpt lat="42.1188390" lon="-8.8529650">
        <ele>12.5</ele>
        <time>2021-05-19T14:00:05Z</time>
      </trkpt>
      <trkpt lat="42.1188440" lon="-8.8529520">
        <ele>12.5</ele>
        <time>2021-05-19T14:00:06Z</time>
      </trkpt>
      <trkpt lat="42.1188520" lon="-8.8529430">
        <ele>12.5</ele>
        <time>2021-05-19T14:00:07Z</time>
      </trkpt>
      <trkpt lat="42.1188610" lon="-8.8529410">
        <ele>12.4</ele>
        <time>2021-05-19T14:00:08Z</time>
      </trkpt>
      <trkpt lat="42.1188670" lon="-8.8529170">
        <ele>12.3</ele>
        <time>2021-05-19T14:00:09Z</time>
      </trkpt>
      <trkpt lat="42.1188750" lon="-8.8529000">
        <ele>12.3</ele>
        <time>2021-05-19T14:00:10Z</time>
      </trkpt>
      <trkpt lat="42.1188850" lon="-8.8528900">
        <ele>12.2</ele>
        <time>2021-05-19T14:00:11Z</time>
      </trkpt>
      <trkpt lat="42.1188890" lon="-8.8528650">
        <ele>12.1</ele>
        <time>2021-05-19T14:00:12Z</time>
      </trkpt>
      <trkpt lat="42.1188900" lon="-8.8528400">
        <ele>12.1</ele>
        <time>2021-05-19T14:00:13Z</time>
      </trkpt>
      <trkpt lat="42.1188930" lon="-8.8528320">
        <ele>12.1</ele>
        <time>2021-05-19T14:00:14Z</time>
      </trkpt>
      <trkpt lat="42.1188970" lon="-8.8528240">
        <ele>12.1</ele>
        <time>2021-05-19T14:00:15Z</time>
      </trkpt>
      <trkpt lat="42.1189000" lon="-8.8528160">
        <ele>12.1</ele>
        <time>2021-05-19T14:00:16Z</time>
      </trkpt>
      <trkpt lat="42.1189040" lon="-8.8527820">
        <ele>12.0</ele>
        <time>2021-05-19T14:00:17Z</time>
      </trkpt>
      <trkpt lat="42.1189060" lon="-8.8527720">
        <ele>12.0</ele>
        <time>2021-05-19T14:00:18Z</time>
      </trkpt>
      <trkpt lat="42.1189070" lon="-8.8527630">
        <ele>12.0</ele>
        <time>2021-05-19T14:00:19Z</time>
      </trkpt>
      <trkpt lat="42.1189090" lon="-8.8527440">
        <ele>12.0</ele>
        <time>2021-05-19T14:00:20Z</time>
      </trkpt>
      <trkpt lat="42.1189110" lon="-8.8527220">
        <ele>12.0</ele>
        <time>2021-05-19T14:00:21Z</time>
      </trkpt>
      <trkpt lat="42.1189120" lon="-8.8527110">
        <ele>11.9</ele>
        <time>2021-05-19T14:00:22Z</time>
      </trkpt>
      <trkpt lat="42.1189170" lon="-8.8526950">
        <ele>11.9</ele>
        <time>2021-05-19T14:00:23Z</time>
      </trkpt>
      <trkpt lat="42.1189160" lon="-8.8526780">
        <ele>11.9</ele>
        <time>2021-05-19T14:00:24Z</time>
      </trkpt>
      <trkpt lat="42.1189070" lon="-8.8526600">
        <ele>11.9</ele>
        <time>2021-05-19T14:00:25Z</time>
      </trkpt>
      <trkpt lat="42.1189150" lon="-8.8526500">
        <ele>11.9</ele>
        <time>2021-05-19T14:00:26Z</time>
      </trkpt>
      <trkpt lat="42.1189170" lon="-8.8526350">
        <ele>11.8</ele>
        <time>2021-05-19T14:00:27Z</time>
      </trkpt>
      <trkpt lat="42.1189260" lon="-8.8526210">
        <ele>11.8</ele>
        <time>2021-05-19T14:00:28Z</time>
      </trkpt>
      <trkpt lat="42.1189280" lon="-8.8526110">
        <ele>11.8</ele>
        <time>2021-05-19T14:00:29Z</time>
      </trkpt>
      <trkpt lat="42.1189340" lon="-8.8525980">
        <ele>11.8</ele>
        <time>2021-05-19T14:00:30Z</time>
      </trkpt>
      <trkpt lat="42.1189300" lon="-8.8525780">
        <ele>11.8</ele>
        <time>2021-05-19T14:00:31Z</time>
      </trkpt>
      <trkpt lat="42.1189340" lon="-8.8525580">
        <ele>11.7</ele>
        <time>2021-05-19T14:00:32Z</time>
      </trkpt>
      <trkpt lat="42.1189300" lon="-8.8525370">
        <ele>11.7</ele>
        <time>2021-05-19T14:00:33Z</time>
      </trkpt>
      <trkpt lat="42.1189360" lon="-8.8525210">
        <ele>11.7</ele>
        <time>2021-05-19T14:00:34Z</time>
      </trkpt>
      <trkpt lat="42.1189420" lon="-8.8525060">
        <ele>11.7</ele>
        <time>2021-05-19T14:00:35Z</time>
      </trkpt>
      <trkpt lat="42.1189400" lon="-8.8524910">
        <ele>11.6</ele>
        <time>2021-05-19T14:00:36Z</time>
      </trkpt>
      <trkpt lat="42.1189410" lon="-8.8524740">
        <ele>11.6</ele>
        <time>2021-05-19T14:00:37Z</time>
      </trkpt>
      <trkpt lat="42.1189400" lon="-8.8524540">
        <ele>11.6</ele>
        <time>2021-05-19T14:00:38Z</time>
      </trkpt>
      <trkpt lat="42.1189380" lon="-8.8524380">
        <ele>11.6</ele>
        <time>2021-05-19T14:00:39Z</time>
      </trkpt>
      <trkpt lat="42.1189390" lon="-8.8524060">
        <ele>11.6</ele>
        <time>2021-05-19T14:00:40Z</time>
      </trkpt>
      <trkpt lat="42.1189400" lon="-8.8523960">
        <ele>11.6</ele>
        <time>2021-05-19T14:00:41Z</time>
      </trkpt>
      <trkpt lat="42.1189420" lon="-8.8523870">
        <ele>11.6</ele>
        <time>2021-05-19T14:00:42Z</time>
      </trkpt>
      <trkpt lat="42.1189480" lon="-8.8523740">
        <ele>11.6</ele>
        <time>2021-05-19T14:00:43Z</time>
      </trkpt>
      <trkpt lat="42.1189470" lon="-8.8523590">
        <ele>11.6</ele>
        <time>2021-05-19T14:00:44Z</time>
      </trkpt>
      <trkpt lat="42.1189510" lon="-8.8523470">
        <ele>11.6</ele>
        <time>2021-05-19T14:00:45Z</time>
      </trkpt>
      <trkpt lat="42.1189520" lon="-8.8523320">
        <ele>11.6</ele>
        <time>2021-05-19T14:00:46Z</time>
      </trkpt>
      <trkpt lat="42.1189560" lon="-8.8523180">
        <ele>11.6</ele>
        <time>2021-05-19T14:00:47Z</time>
      </trkpt>
      <trkpt lat="42.1189560" lon="-8.8523020">
        <ele>11.6</ele>
        <time>2021-05-19T14:00:48Z</time>
      </trkpt>
      <trkpt lat="42.1189620" lon="-8.8522870">
        <ele>11.6</ele>
        <time>2021-05-19T14:00:49Z</time>
      </trkpt>
      <trkpt lat="42.1189630" lon="-8.8522660">
        <ele>11.6</ele>
        <time>2021-05-19T14:00:50Z</time>
      </trkpt>
      <trkpt lat="42.1189690" lon="-8.8522530">
        <ele>11.6</ele>
        <time>2021-05-19T14:00:51Z</time>
      </trkpt>
      <trkpt lat="42.1189670" lon="-8.8522420">
        <ele>11.6</ele>
        <time>2021-05-19T14:00:52Z</time>
      </trkpt>
      <trkpt lat="42.1189750" lon="-8.8522340">
        <ele>11.6</ele>
        <time>2021-05-19T14:00:53Z</time>
      </trkpt>
      <trkpt lat="42.1189810" lon="-8.8522240">
        <ele>11.6</ele>
        <time>2021-05-19T14:00:54Z</time>
      </trkpt>
      <trkpt lat="42.1189760" lon="-8.8522160">
        <ele>11.6</ele>
        <time>2021-05-19T14:00:55Z</time>
      </trkpt>
      <trkpt lat="42.1189710" lon="-8.8521950">
        <ele>11.7</ele>
        <time>2021-05-19T14:00:56Z</time>
      </trkpt>
      <trkpt lat="42.1189660" lon="-8.8521840">
        <ele>11.7</ele>
        <time>2021-05-19T14:00:57Z</time>
      </trkpt>
      <trkpt lat="42.1189550" lon="-8.8521740">
        <ele>11.7</ele>
        <time>2021-05-19T14:00:58Z</time>
      </trkpt>
      <trkpt lat="42.1189510" lon="-8.8521530">
        <ele>11.7</ele>
        <time>2021-05-19T14:00:59Z</time>
      </trkpt>
      <trkpt lat="42.1189400" lon="-8.8521420">
        <ele>11.8</ele>
        <time>2021-05-19T14:01:00Z</time>
      </trkpt>
      <trkpt lat="42.1189350" lon="-8.8521350">
        <ele>11.8</ele>
        <time>2021-05-19T14:01:01Z</time>
      </trkpt>
      <trkpt lat="42.1189320" lon="-8.8521290">
        <ele>11.8</ele>
        <time>2021-05-19T14:01:02Z</time>
      </trkpt>
      <trkpt lat="42.1189330" lon="-8.8521190">
        <ele>11.8</ele>
        <time>2021-05-19T14:01:03Z</time>
      </trkpt>
      <trkpt lat="42.1189460" lon="-8.8521010">
        <ele>11.8</ele>
        <time>2021-05-19T14:01:04Z</time>
      </trkpt>
      <trkpt lat="42.1189530" lon="-8.8520900">
        <ele>11.8</ele>
        <time>2021-05-19T14:01:05Z</time>
      </trkpt>
      <trkpt lat="42.1189570" lon="-8.8520760">
        <ele>11.8</ele>
        <time>2021-05-19T14:01:06Z</time>
      </trkpt>
      <trkpt lat="42.1189620" lon="-8.8520620">
        <ele>11.8</ele>
        <time>2021-05-19T14:01:07Z</time>
      </trkpt>
      <trkpt lat="42.1189620" lon="-8.8520510">
        <ele>11.8</ele>
        <time>2021-05-19T14:01:08Z</time>
      </trkpt>
      <trkpt lat="42.1189660" lon="-8.8520330">
        <ele>11.8</ele>
        <time>2021-05-19T14:01:09Z</time>
      </trkpt>
      <trkpt lat="42.1189710" lon="-8.8520170">
        <ele>11.8</ele>
        <time>2021-05-19T14:01:10Z</time>
      </trkpt>
      <trkpt lat="42.1189750" lon="-8.8519990">
        <ele>11.8</ele>
        <time>2021-05-19T14:01:11Z</time>
      </trkpt>
      <trkpt lat="42.1189780" lon="-8.8519800">
        <ele>11.8</ele>
        <time>2021-05-19T14:01:12Z</time>
      </trkpt>
      <trkpt lat="42.1189770" lon="-8.8519640">
        <ele>11.8</ele>
        <time>2021-05-19T14:01:13Z</time>
      </trkpt>
      <trkpt lat="42.1189820" lon="-8.8519450">
        <ele>11.9</ele>
        <time>2021-05-19T14:01:14Z</time>
      </trkpt>
      <trkpt lat="42.1189780" lon="-8.8519360">
        <ele>11.9</ele>
        <time>2021-05-19T14:01:15Z</time>
      </trkpt>
      <trkpt lat="42.1189720" lon="-8.8519140">
        <ele>11.9</ele>
        <time>2021-05-19T14:01:16Z</time>
      </trkpt>
      <trkpt lat="42.1189760" lon="-8.8519010">
        <ele>11.9</ele>
        <time>2021-05-19T14:01:17Z</time>
      </trkpt>
      <trkpt lat="42.1189790" lon="-8.8518870">
        <ele>11.9</ele>
        <time>2021-05-19T14:01:18Z</time>
      </trkpt>
      <trkpt lat="42.1189810" lon="-8.8518760">
        <ele>11.9</ele>
        <time>2021-05-19T14:01:19Z</time>
      </trkpt>
      <trkpt lat="42.1189780" lon="-8.8518480">
        <ele>11.9</ele>
        <time>2021-05-19T14:01:20Z</time>
      </trkpt>
      <trkpt lat="42.1189810" lon="-8.8518300">
        <ele>11.9</ele>
        <time>2021-05-19T14:01:21Z</time>
      </trkpt>
      <trkpt lat="42.1189790" lon="-8.8518080">
        <ele>11.9</ele>
        <time>2021-05-19T14:01:22Z</time>
      </trkpt>
      <trkpt lat="42.1189740" lon="-8.8517800">
        <ele>12.0</ele>
        <time>2021-05-19T14:01:23Z</time>
      </trkpt>
      <trkpt lat="42.1189650" lon="-8.8517670">
        <ele>12.0</ele>
        <time>2021-05-19T14:01:24Z</time>
      </trkpt>
      <trkpt lat="42.1189660" lon="-8.8517540">
        <ele>12.0</ele>
        <time>2021-05-19T14:01:25Z</time>
      </trkpt>
      <trkpt lat="42.1189760" lon="-8.8517420">
        <ele>12.0</ele>
        <time>2021-05-19T14:01:26Z</time>
      </trkpt>
      <trkpt lat="42.1189840" lon="-8.8517310">
        <ele>12.0</ele>
        <time>2021-05-19T14:01:27Z</time>
      </trkpt>
      <trkpt lat="42.1189850" lon="-8.8517220">
        <ele>12.0</ele>
        <time>2021-05-19T14:01:28Z</time>
      </trkpt>
      <trkpt lat="42.1189790" lon="-8.8517160">
        <ele>12.0</ele>
        <time>2021-05-19T14:01:29Z</time>
      </trkpt>
      <trkpt lat="42.1189650" lon="-8.8516960">
        <ele>12.1</ele>
        <time>2021-05-19T14:01:30Z</time>
      </trkpt>
      <trkpt lat="42.1189510" lon="-8.8516830">
        <ele>12.1</ele>
        <time>2021-05-19T14:01:31Z</time>
      </trkpt>
      <trkpt lat="42.1189420" lon="-8.8516790">
        <ele>12.1</ele>
        <time>2021-05-19T14:01:32Z</time>
      </trkpt>
      <trkpt lat="42.1189460" lon="-8.8516650">
        <ele>12.1</ele>
        <time>2021-05-19T14:01:33Z</time>
      </trkpt>
      <trkpt lat="42.1189460" lon="-8.8516490">
        <ele>12.1</ele>
        <time>2021-05-19T14:01:34Z</time>
      </trkpt>
      <trkpt lat="42.1189350" lon="-8.8516400">
        <ele>12.1</ele>
        <time>2021-05-19T14:01:35Z</time>
      </trkpt>
      <trkpt lat="42.1189380" lon="-8.8516190">
        <ele>12.1</ele>
        <time>2021-05-19T14:01:36Z</time>
      </trkpt>
      <trkpt lat="42.1189480" lon="-8.8515830">
        <ele>12.2</ele>
        <time>2021-05-19T14:01:37Z</time>
      </trkpt>
      <trkpt lat="42.1189570" lon="-8.8515670">
        <ele>12.2</ele>
        <time>2021-05-19T14:01:38Z</time>
      </trkpt>
      <trkpt lat="42.1189620" lon="-8.8515600">
        <ele>12.2</ele>
        <time>2021-05-19T14:01:39Z</time>
      </trkpt>
      <trkpt lat="42.1189650" lon="-8.8515440">
        <ele>12.2</ele>
        <time>2021-05-19T14:01:40Z</time>
      </trkpt>
      <trkpt lat="42.1189650" lon="-8.8515030">
        <ele>12.2</ele>
        <time>2021-05-19T14:01:41Z</time>
      </trkpt>
      <trkpt lat="42.1189640" lon="-8.8514890">
        <ele>12.2</ele>
        <time>2021-05-19T14:01:42Z</time>
      </trkpt>
      <trkpt lat="42.1189690" lon="-8.8514700">
        <ele>12.2</ele>
        <time>2021-05-19T14:01:43Z</time>
      </trkpt>
      <trkpt lat="42.1189710" lon="-8.8514530">
        <ele>12.2</ele>
        <time>2021-05-19T14:01:44Z</time>
      </trkpt>
      <trkpt lat="42.1189610" lon="-8.8514370">
        <ele>12.1</ele>
        <time>2021-05-19T14:01:45Z</time>
      </trkpt>
      <trkpt lat="42.1189530" lon="-8.8514280">
        <ele>12.1</ele>
        <time>2021-05-19T14:01:46Z</time>
      </trkpt>
      <trkpt lat="42.1189500" lon="-8.8514230">
        <ele>12.1</ele>
        <time>2021-05-19T14:01:47Z</time>
      </trkpt>
      <trkpt lat="42.1189520" lon="-8.8513960">
        <ele>12.0</ele>
        <time>2021-05-19T14:01:48Z</time>
      </trkpt>
      <trkpt lat="42.1189560" lon="-8.8513830">
        <ele>12.0</ele>
        <time>2021-05-19T14:01:49Z</time>
      </trkpt>
      <trkpt lat="42.1189590" lon="-8.8513710">
        <ele>12.0</ele>
        <time>2021-05-19T14:01:50Z</time>
      </trkpt>
      <trkpt lat="42.1189670" lon="-8.8513500">
        <ele>11.9</ele>
        <time>2021-05-19T14:01:51Z</time>
      </trkpt>
      <trkpt lat="42.1189790" lon="-8.8513380">
        <ele>11.9</ele>
        <time>2021-05-19T14:01:52Z</time>
      </trkpt>
      <trkpt lat="42.1189900" lon="-8.8513250">
        <ele>11.8</ele>
        <time>2021-05-19T14:01:53Z</time>
      </trkpt>
      <trkpt lat="42.1190080" lon="-8.8513000">
        <ele>11.7</ele>
        <time>2021-05-19T14:01:54Z</time>
      </trkpt>
      <trkpt lat="42.1190130" lon="-8.8512910">
        <ele>11.7</ele>
        <time>2021-05-19T14:01:55Z</time>
      </trkpt>
      <trkpt lat="42.1190190" lon="-8.8512820">
        <ele>11.6</ele>
        <time>2021-05-19T14:01:56Z</time>
      </trkpt>
      <trkpt lat="42.1190390" lon="-8.8512530">
        <ele>11.5</ele>
        <time>2021-05-19T14:01:57Z</time>
      </trkpt>
      <trkpt lat="42.1190410" lon="-8.8512430">
        <ele>11.5</ele>
        <time>2021-05-19T14:01:58Z</time>
      </trkpt>
      <trkpt lat="42.1190420" lon="-8.8512310">
        <ele>11.4</ele>
        <time>2021-05-19T14:01:59Z</time>
      </trkpt>
      <trkpt lat="42.1190460" lon="-8.8512300">
        <ele>11.4</ele>
        <time>2021-05-19T14:02:00Z</time>
      </trkpt>
      <trkpt lat="42.1190440" lon="-8.8512170">
        <ele>11.4</ele>
        <time>2021-05-19T14:02:01Z</time>
      </trkpt>
      <trkpt lat="42.1190440" lon="-8.8512060">
        <ele>11.4</ele>
        <time>2021-05-19T14:02:02Z</time>
      </trkpt>
      <trkpt lat="42.1190530" lon="-8.8511870">
        <ele>11.3</ele>
        <time>2021-05-19T14:02:03Z</time>
      </trkpt>
      <trkpt lat="42.1190600" lon="-8.8511790">
        <ele>11.2</ele>
        <time>2021-05-19T14:02:04Z</time>
      </trkpt>
      <trkpt lat="42.1190680" lon="-8.8511740">
        <ele>11.2</ele>
        <time>2021-05-19T14:02:05Z</time>
      </trkpt>
      <trkpt lat="42.1190690" lon="-8.8511680">
        <ele>11.2</ele>
        <time>2021-05-19T14:02:06Z</time>
      </trkpt>
      <trkpt lat="42.1190730" lon="-8.8511570">
        <ele>11.1</ele>
        <time>2021-05-19T14:02:07Z</time>
      </trkpt>
      <trkpt lat="42.1190730" lon="-8.8511450">
        <ele>11.1</ele>
        <time>2021-05-19T14:02:08Z</time>
      </trkpt>
      <trkpt lat="42.1190650" lon="-8.8511260">
        <ele>11.0</ele>
        <time>2021-05-19T14:02:09Z</time>
      </trkpt>
      <trkpt lat="42.1190680" lon="-8.8511120">
        <ele>11.0</ele>
        <time>2021-05-19T14:02:10Z</time>
      </trkpt>
      <trkpt lat="42.1190620" lon="-8.8510970">
        <ele>10.9</ele>
        <time>2021-05-19T14:02:11Z</time>
      </trkpt>
      <trkpt lat="42.1190680" lon="-8.8510880">
        <ele>10.9</ele>
        <time>2021-05-19T14:02:12Z</time>
      </trkpt>
      <trkpt lat="42.1190690" lon="-8.8510670">
        <ele>10.8</ele>
        <time>2021-05-19T14:02:13Z</time>
      </trkpt>
      <trkpt lat="42.1190710" lon="-8.8510510">
        <ele>10.7</ele>
        <time>2021-05-19T14:02:14Z</time>
      </trkpt>
      <trkpt lat="42.1190800" lon="-8.8510090">
        <ele>10.6</ele>
        <time>2021-05-19T14:02:15Z</time>
      </trkpt>
      <trkpt lat="42.1190860" lon="-8.8509900">
        <ele>10.5</ele>
        <time>2021-05-19T14:02:16Z</time>
      </trkpt>
      <trkpt lat="42.1190880" lon="-8.8509730">
        <ele>10.4</ele>
        <time>2021-05-19T14:02:17Z</time>
      </trkpt>
      <trkpt lat="42.1190970" lon="-8.8509650">
        <ele>10.4</ele>
        <time>2021-05-19T14:02:18Z</time>
      </trkpt>
      <trkpt lat="42.1191040" lon="-8.8509520">
        <ele>10.3</ele>
        <time>2021-05-19T14:02:19Z</time>
      </trkpt>
      <trkpt lat="42.1191090" lon="-8.8509440">
        <ele>10.3</ele>
        <time>2021-05-19T14:02:20Z</time>
      </trkpt>
      <trkpt lat="42.1191190" lon="-8.8509210">
        <ele>10.2</ele>
        <time>2021-05-19T14:02:21Z</time>
      </trkpt>
      <trkpt lat="42.1191220" lon="-8.8509090">
        <ele>10.1</ele>
        <time>2021-05-19T14:02:22Z</time>
      </trkpt>
      <trkpt lat="42.1191260" lon="-8.8508970">
        <ele>10.1</ele>
        <time>2021-05-19T14:02:23Z</time>
      </trkpt>
      <trkpt lat="42.1191300" lon="-8.8508780">
        <ele>10.0</ele>
        <time>2021-05-19T14:02:24Z</time>
      </trkpt>
      <trkpt lat="42.1191350" lon="-8.8508620">
        <ele>9.9</ele>
        <time>2021-05-19T14:02:25Z</time>
      </trkpt>
      <trkpt lat="42.1191320" lon="-8.8508320">
        <ele>9.8</ele>
        <time>2021-05-19T14:02:26Z</time>
      </trkpt>
      <trkpt lat="42.1191280" lon="-8.8508140">
        <ele>9.8</ele>
        <time>2021-05-19T14:02:27Z</time>
      </trkpt>
      <trkpt lat="42.1191220" lon="-8.8507990">
        <ele>9.7</ele>
        <time>2021-05-19T14:02:28Z</time>
      </trkpt>
      <trkpt lat="42.1191220" lon="-8.8507770">
        <ele>9.6</ele>
        <time>2021-05-19T14:02:29Z</time>
      </trkpt>
      <trkpt lat="42.1191220" lon="-8.8507530">
        <ele>9.6</ele>
        <time>2021-05-19T14:02:30Z</time>
      </trkpt>
      <trkpt lat="42.1191340" lon="-8.8507350">
        <ele>9.5</ele>
        <time>2021-05-19T14:02:31Z</time>
      </trkpt>
      <trkpt lat="42.1191510" lon="-8.8507150">
        <ele>9.4</ele>
        <time>2021-05-19T14:02:32Z</time>
      </trkpt>
      <trkpt lat="42.1191550" lon="-8.8507030">
        <ele>9.3</ele>
        <time>2021-05-19T14:02:33Z</time>
      </trkpt>
      <trkpt lat="42.1191600" lon="-8.8506920">
        <ele>9.3</ele>
        <time>2021-05-19T14:02:34Z</time>
      </trkpt>
      <trkpt lat="42.1191600" lon="-8.8506700">
        <ele>9.2</ele>
        <time>2021-05-19T14:02:35Z</time>
      </trkpt>
      <trkpt lat="42.1191640" lon="-8.8506520">
        <ele>9.2</ele>
        <time>2021-05-19T14:02:36Z</time>
      </trkpt>
      <trkpt lat="42.1191700" lon="-8.8506260">
        <ele>9.1</ele>
        <time>2021-05-19T14:02:37Z</time>
      </trkpt>
      <trkpt lat="42.1191690" lon="-8.8506130">
        <ele>9.1</ele>
        <time>2021-05-19T14:02:38Z</time>
      </trkpt>
      <trkpt lat="42.1191690" lon="-8.8505990">
        <ele>9.0</ele>
        <time>2021-05-19T14:02:39Z</time>
      </trkpt>
      <trkpt lat="42.1191820" lon="-8.8505850">
        <ele>8.9</ele>
        <time>2021-05-19T14:02:40Z</time>
      </trkpt>
      <trkpt lat="42.1191890" lon="-8.8505740">
        <ele>8.9</ele>
        <time>2021-05-19T14:02:41Z</time>
      </trkpt>
      <trkpt lat="42.1192010" lon="-8.8505630">
        <ele>8.9</ele>
        <time>2021-05-19T14:02:42Z</time>
      </trkpt>
      <trkpt lat="42.1192030" lon="-8.8505550">
        <ele>8.8</ele>
        <time>2021-05-19T14:02:43Z</time>
      </trkpt>
      <trkpt lat="42.1192080" lon="-8.8505360">
        <ele>8.8</ele>
        <time>2021-05-19T14:02:44Z</time>
      </trkpt>
      <trkpt lat="42.1192180" lon="-8.8505220">
        <ele>8.7</ele>
        <time>2021-05-19T14:02:45Z</time>
      </trkpt>
      <trkpt lat="42.1192290" lon="-8.8505150">
        <ele>8.7</ele>
        <time>2021-05-19T14:02:46Z</time>
      </trkpt>
      <trkpt lat="42.1192300" lon="-8.8505010">
        <ele>8.6</ele>
        <time>2021-05-19T14:02:47Z</time>
      </trkpt>
      <trkpt lat="42.1192400" lon="-8.8504880">
        <ele>8.6</ele>
        <time>2021-05-19T14:02:48Z</time>
      </trkpt>
      <trkpt lat="42.1192570" lon="-8.8504690">
        <ele>8.5</ele>
        <time>2021-05-19T14:02:49Z</time>
      </trkpt>
      <trkpt lat="42.1192660" lon="-8.8504510">
        <ele>8.5</ele>
        <time>2021-05-19T14:02:50Z</time>
      </trkpt>
      <trkpt lat="42.1192770" lon="-8.8504430">
        <ele>8.4</ele>
        <time>2021-05-19T14:02:51Z</time>
      </trkpt>
      <trkpt lat="42.1192890" lon="-8.8504200">
        <ele>8.3</ele>
        <time>2021-05-19T14:02:52Z</time>
      </trkpt>
      <trkpt lat="42.1192900" lon="-8.8504020">
        <ele>8.3</ele>
        <time>2021-05-19T14:02:53Z</time>
      </trkpt>
      <trkpt lat="42.1192820" lon="-8.8503640">
        <ele>8.2</ele>
        <time>2021-05-19T14:02:54Z</time>
      </trkpt>
      <trkpt lat="42.1192800" lon="-8.8503500">
        <ele>8.1</ele>
        <time>2021-05-19T14:02:55Z</time>
      </trkpt>
      <trkpt lat="42.1192780" lon="-8.8503320">
        <ele>8.1</ele>
        <time>2021-05-19T14:02:56Z</time>
      </trkpt>
      <trkpt lat="42.1192750" lon="-8.8503210">
        <ele>8.1</ele>
        <time>2021-05-19T14:02:57Z</time>
      </trkpt>
      <trkpt lat="42.1192730" lon="-8.8503170">
        <ele>8.0</ele>
        <time>2021-05-19T14:02:58Z</time>
      </trkpt>
      <trkpt lat="42.1192760" lon="-8.8503090">
        <ele>8.0</ele>
        <time>2021-05-19T14:02:59Z</time>
      </trkpt>
      <trkpt lat="42.1192780" lon="-8.8503020">
        <ele>8.0</ele>
        <time>2021-05-19T14:03:00Z</time>
      </trkpt>
      <trkpt lat="42.1192830" lon="-8.8502840">
        <ele>7.9</ele>
        <time>2021-05-19T14:03:01Z</time>
      </trkpt>
      <trkpt lat="42.1192890" lon="-8.8502730">
        <ele>7.9</ele>
        <time>2021-05-19T14:03:02Z</time>
      </trkpt>
      <trkpt lat="42.1192980" lon="-8.8502640">
        <ele>7.8</ele>
        <time>2021-05-19T14:03:03Z</time>
      </trkpt>
      <trkpt lat="42.1193060" lon="-8.8502550">
        <ele>7.8</ele>
        <time>2021-05-19T14:03:04Z</time>
      </trkpt>
      <trkpt lat="42.1193120" lon="-8.8502520">
        <ele>7.8</ele>
        <time>2021-05-19T14:03:05Z</time>
      </trkpt>
      <trkpt lat="42.1193180" lon="-8.8502470">
        <ele>7.8</ele>
        <time>2021-05-19T14:03:06Z</time>
      </trkpt>
      <trkpt lat="42.1193130" lon="-8.8502360">
        <ele>7.7</ele>
        <time>2021-05-19T14:03:07Z</time>
      </trkpt>
      <trkpt lat="42.1193100" lon="-8.8502220">
        <ele>7.7</ele>
        <time>2021-05-19T14:03:08Z</time>
      </trkpt>
      <trkpt lat="42.1193150" lon="-8.8502130">
        <ele>7.7</ele>
        <time>2021-05-19T14:03:09Z</time>
      </trkpt>
      <trkpt lat="42.1193200" lon="-8.8502160">
        <ele>7.6</ele>
        <time>2021-05-19T14:03:10Z</time>
      </trkpt>
      <trkpt lat="42.1193320" lon="-8.8502010">
        <ele>7.6</ele>
        <time>2021-05-19T14:03:11Z</time>
      </trkpt>
      <trkpt lat="42.1193400" lon="-8.8501960">
        <ele>7.6</ele>
        <time>2021-05-19T14:03:12Z</time>
      </trkpt>
      <trkpt lat="42.1193560" lon="-8.8501830">
        <ele>7.6</ele>
        <time>2021-05-19T14:03:13Z</time>
      </trkpt>
      <trkpt lat="42.1193700" lon="-8.8501760">
        <ele>7.5</ele>
        <time>2021-05-19T14:03:14Z</time>
      </trkpt>
      <trkpt lat="42.1193890" lon="-8.8501520">
        <ele>7.5</ele>
        <time>2021-05-19T14:03:15Z</time>
      </trkpt>
      <trkpt lat="42.1193950" lon="-8.8501440">
        <ele>7.5</ele>
        <time>2021-05-19T14:03:16Z</time>
      </trkpt>
      <trkpt lat="42.1194020" lon="-8.8501360">
        <ele>7.5</ele>
        <time>2021-05-19T14:03:17Z</time>
      </trkpt>
      <trkpt lat="42.1194050" lon="-8.8501260">
        <ele>7.4</ele>
        <time>2021-05-19T14:03:18Z</time>
      </trkpt>
      <trkpt lat="42.1194150" lon="-8.8501130">
        <ele>7.4</ele>
        <time>2021-05-19T14:03:19Z</time>
      </trkpt>
      <trkpt lat="42.1194180" lon="-8.8501060">
        <ele>7.4</ele>
        <time>2021-05-19T14:03:20Z</time>
      </trkpt>
      <trkpt lat="42.1194300" lon="-8.8500930">
        <ele>7.4</ele>
        <time>2021-05-19T14:03:21Z</time>
      </trkpt>
      <trkpt lat="42.1194420" lon="-8.8500750">
        <ele>7.3</ele>
        <time>2021-05-19T14:03:22Z</time>
      </trkpt>
      <trkpt lat="42.1194630" lon="-8.8500630">
        <ele>7.3</ele>
        <time>2021-05-19T14:03:23Z</time>
      </trkpt>
      <trkpt lat="42.1194700" lon="-8.8500590">
        <ele>7.3</ele>
        <time>2021-05-19T14:03:24Z</time>
      </trkpt>
      <trkpt lat="42.1194760" lon="-8.8500540">
        <ele>7.3</ele>
        <time>2021-05-19T14:03:25Z</time>
      </trkpt>
      <trkpt lat="42.1194910" lon="-8.8500360">
        <ele>7.3</ele>
        <time>2021-05-19T14:03:26Z</time>
      </trkpt>
      <trkpt lat="42.1194980" lon="-8.8500250">
        <ele>7.3</ele>
        <time>2021-05-19T14:03:27Z</time>
      </trkpt>
      <trkpt lat="42.1195050" lon="-8.8500140">
        <ele>7.2</ele>
        <time>2021-05-19T14:03:28Z</time>
      </trkpt>
      <trkpt lat="42.1195110" lon="-8.8500040">
        <ele>7.2</ele>
        <time>2021-05-19T14:03:29Z</time>
      </trkpt>
      <trkpt lat="42.1195260" lon="-8.8499840">
        <ele>7.2</ele>
        <time>2021-05-19T14:03:30Z</time>
      </trkpt>
      <trkpt lat="42.1195400" lon="-8.8499700">
        <ele>7.2</ele>
        <time>2021-05-19T14:03:31Z</time>
      </trkpt>
      <trkpt lat="42.1195390" lon="-8.8499570">
        <ele>7.2</ele>
        <time>2021-05-19T14:03:32Z</time>
      </trkpt>
      <trkpt lat="42.1195440" lon="-8.8499470">
        <ele>7.2</ele>
        <time>2021-05-19T14:03:33Z</time>
      </trkpt>
      <trkpt lat="42.1195500" lon="-8.8499410">
        <ele>7.2</ele>
        <time>2021-05-19T14:03:34Z</time>
      </trkpt>
      <trkpt lat="42.1195600" lon="-8.8499320">
        <ele>7.2</ele>
        <time>2021-05-19T14:03:35Z</time>
      </trkpt>
      <trkpt lat="42.1195720" lon="-8.8499240">
        <ele>7.2</ele>
        <time>2021-05-19T14:03:36Z</time>
      </trkpt>
      <trkpt lat="42.1195740" lon="-8.8499180">
        <ele>7.1</ele>
        <time>2021-05-19T14:03:37Z</time>
      </trkpt>
      <trkpt lat="42.1195860" lon="-8.8499030">
        <ele>7.1</ele>
        <time>2021-05-19T14:03:38Z</time>
      </trkpt>
      <trkpt lat="42.1195970" lon="-8.8498940">
        <ele>7.1</ele>
        <time>2021-05-19T14:03:39Z</time>
      </trkpt>
      <trkpt lat="42.1196110" lon="-8.8498780">
        <ele>7.1</ele>
        <time>2021-05-19T14:03:40Z</time>
      </trkpt>
      <trkpt lat="42.1196190" lon="-8.8498680">
        <ele>7.1</ele>
        <time>2021-05-19T14:03:41Z</time>
      </trkpt>
      <trkpt lat="42.1196260" lon="-8.8498590">
        <ele>7.1</ele>
        <time>2021-05-19T14:03:42Z</time>
      </trkpt>
      <trkpt lat="42.1196330" lon="-8.8498410">
        <ele>7.1</ele>
        <time>2021-05-19T14:03:43Z</time>
      </trkpt>
      <trkpt lat="42.1196360" lon="-8.8498290">
        <ele>7.1</ele>
        <time>2021-05-19T14:03:44Z</time>
      </trkpt>
      <trkpt lat="42.1196380" lon="-8.8498140">
        <ele>7.1</ele>
        <time>2021-05-19T14:03:45Z</time>
      </trkpt>
      <trkpt lat="42.1196420" lon="-8.8498010">
        <ele>7.1</ele>
        <time>2021-05-19T14:03:46Z</time>
      </trkpt>
      <trkpt lat="42.1196450" lon="-8.8497950">
        <ele>7.1</ele>
        <time>2021-05-19T14:03:47Z</time>
      </trkpt>
      <trkpt lat="42.1196530" lon="-8.8497800">
        <ele>7.1</ele>
        <time>2021-05-19T14:03:48Z</time>
      </trkpt>
      <trkpt lat="42.1196490" lon="-8.8497590">
        <ele>7.1</ele>
        <time>2021-05-19T14:03:49Z</time>
      </trkpt>
      <trkpt lat="42.1196510" lon="-8.8497510">
        <ele>7.1</ele>
        <time>2021-05-19T14:03:50Z</time>
      </trkpt>
      <trkpt lat="42.1196570" lon="-8.8497410">
        <ele>7.0</ele>
        <time>2021-05-19T14:03:51Z</time>
      </trkpt>
      <trkpt lat="42.1196660" lon="-8.8497320">
        <ele>7.0</ele>
        <time>2021-05-19T14:03:52Z</time>
      </trkpt>
      <trkpt lat="42.1196680" lon="-8.8497240">
        <ele>7.0</ele>
        <time>2021-05-19T14:03:53Z</time>
      </trkpt>
      <trkpt lat="42.1196720" lon="-8.8497090">
        <ele>7.0</ele>
        <time>2021-05-19T14:03:54Z</time>
      </trkpt>
      <trkpt lat="42.1196800" lon="-8.8496990">
        <ele>7.0</ele>
        <time>2021-05-19T14:03:55Z</time>
      </trkpt>
      <trkpt lat="42.1196990" lon="-8.8496790">
        <ele>7.0</ele>
        <time>2021-05-19T14:03:56Z</time>
      </trkpt>
      <trkpt lat="42.1197190" lon="-8.8496700">
        <ele>7.0</ele>
        <time>2021-05-19T14:03:57Z</time>
      </trkpt>
      <trkpt lat="42.1197280" lon="-8.8496660">
        <ele>7.0</ele>
        <time>2021-05-19T14:03:58Z</time>
      </trkpt>
      <trkpt lat="42.1197380" lon="-8.8496630">
        <ele>6.9</ele>
        <time>2021-05-19T14:03:59Z</time>
      </trkpt>
      <trkpt lat="42.1197500" lon="-8.8496560">
        <ele>6.9</ele>
        <time>2021-05-19T14:04:00Z</time>
      </trkpt>
      <trkpt lat="42.1197600" lon="-8.8496480">
        <ele>6.9</ele>
        <time>2021-05-19T14:04:01Z</time>
      </trkpt>
      <trkpt lat="42.1197690" lon="-8.8496430">
        <ele>6.9</ele>
        <time>2021-05-19T14:04:02Z</time>
      </trkpt>
      <trkpt lat="42.1197780" lon="-8.8496430">
        <ele>6.9</ele>
        <time>2021-05-19T14:04:03Z</time>
      </trkpt>
      <trkpt lat="42.1197830" lon="-8.8496340">
        <ele>6.9</ele>
        <time>2021-05-19T14:04:04Z</time>
      </trkpt>
      <trkpt lat="42.1197910" lon="-8.8496120">
        <ele>6.9</ele>
        <time>2021-05-19T14:04:05Z</time>
      </trkpt>
      <trkpt lat="42.1197940" lon="-8.8495670">
        <ele>6.9</ele>
        <time>2021-05-19T14:04:06Z</time>
      </trkpt>
      <trkpt lat="42.1197990" lon="-8.8495560">
        <ele>6.8</ele>
        <time>2021-05-19T14:04:07Z</time>
      </trkpt>
      <trkpt lat="42.1198100" lon="-8.8495480">
        <ele>6.8</ele>
        <time>2021-05-19T14:04:08Z</time>
      </trkpt>
      <trkpt lat="42.1198270" lon="-8.8495350">
        <ele>6.8</ele>
        <time>2021-05-19T14:04:09Z</time>
      </trkpt>
      <trkpt lat="42.1198490" lon="-8.8495200">
        <ele>6.8</ele>
        <time>2021-05-19T14:04:10Z</time>
      </trkpt>
      <trkpt lat="42.1198550" lon="-8.8495140">
        <ele>6.8</ele>
        <time>2021-05-19T14:04:11Z</time>
      </trkpt>
      <trkpt lat="42.1198620" lon="-8.8495090">
        <ele>6.8</ele>
        <time>2021-05-19T14:04:12Z</time>
      </trkpt>
      <trkpt lat="42.1198750" lon="-8.8495110">
        <ele>6.8</ele>
        <time>2021-05-19T14:04:13Z</time>
      </trkpt>
      <trkpt lat="42.1198800" lon="-8.8495120">
        <ele>6.8</ele>
        <time>2021-05-19T14:04:14Z</time>
      </trkpt>
      <trkpt lat="42.1198860" lon="-8.8495120">
        <ele>6.8</ele>
        <time>2021-05-19T14:04:15Z</time>
      </trkpt>
      <trkpt lat="42.1198910" lon="-8.8495130">
        <ele>6.8</ele>
        <time>2021-05-19T14:04:16Z</time>
      </trkpt>
      <trkpt lat="42.1198970" lon="-8.8495140">
        <ele>6.7</ele>
        <time>2021-05-19T14:04:17Z</time>
      </trkpt>
      <trkpt lat="42.1199020" lon="-8.8495150">
        <ele>6.7</ele>
        <time>2021-05-19T14:04:18Z</time>
      </trkpt>
      <trkpt lat="42.1199330" lon="-8.8494890">
        <ele>6.7</ele>
        <time>2021-05-19T14:04:19Z</time>
      </trkpt>
      <trkpt lat="42.1199410" lon="-8.8494790">
        <ele>6.7</ele>
        <time>2021-05-19T14:04:20Z</time>
      </trkpt>
      <trkpt lat="42.1199680" lon="-8.8494570">
        <ele>6.7</ele>
        <time>2021-05-19T14:04:21Z</time>
      </trkpt>
      <trkpt lat="42.1199780" lon="-8.8494500">
        <ele>6.7</ele>
        <time>2021-05-19T14:04:22Z</time>
      </trkpt>
      <trkpt lat="42.1199830" lon="-8.8494410">
        <ele>6.6</ele>
        <time>2021-05-19T14:04:23Z</time>
      </trkpt>
      <trkpt lat="42.1199880" lon="-8.8494340">
        <ele>6.6</ele>
        <time>2021-05-19T14:04:24Z</time>
      </trkpt>
      <trkpt lat="42.1199930" lon="-8.8494270">
        <ele>6.6</ele>
        <time>2021-05-19T14:04:25Z</time>
      </trkpt>
      <trkpt lat="42.1199980" lon="-8.8494200">
        <ele>6.6</ele>
        <time>2021-05-19T14:04:26Z</time>
      </trkpt>
      <trkpt lat="42.1200030" lon="-8.8494130">
        <ele>6.6</ele>
        <time>2021-05-19T14:04:27Z</time>
      </trkpt>
      <trkpt lat="42.1200140" lon="-8.8493970">
        <ele>6.6</ele>
        <time>2021-05-19T14:04:28Z</time>
      </trkpt>
      <trkpt lat="42.1200120" lon="-8.8493910">
        <ele>6.6</ele>
        <time>2021-05-19T14:04:29Z</time>
      </trkpt>
      <trkpt lat="42.1200140" lon="-8.8493930">
        <ele>6.5</ele>
        <time>2021-05-19T14:04:30Z</time>
      </trkpt>
      <trkpt lat="42.1200230" lon="-8.8493830">
        <ele>6.5</ele>
        <time>2021-05-19T14:04:31Z</time>
      </trkpt>
      <trkpt lat="42.1200330" lon="-8.8493790">
        <ele>6.5</ele>
        <time>2021-05-19T14:04:32Z</time>
      </trkpt>
      <trkpt lat="42.1200530" lon="-8.8493730">
        <ele>6.5</ele>
        <time>2021-05-19T14:04:33Z</time>
      </trkpt>
      <trkpt lat="42.1200740" lon="-8.8493420">
        <ele>6.4</ele>
        <time>2021-05-19T14:04:34Z</time>
      </trkpt>
      <trkpt lat="42.1200760" lon="-8.8493330">
        <ele>6.4</ele>
        <time>2021-05-19T14:04:35Z</time>
      </trkpt>
      <trkpt lat="42.1200850" lon="-8.8493200">
        <ele>6.4</ele>
        <time>2021-05-19T14:04:36Z</time>
      </trkpt>
      <trkpt lat="42.1200960" lon="-8.8493020">
        <ele>6.3</ele>
        <time>2021-05-19T14:04:37Z</time>
      </trkpt>
      <trkpt lat="42.1201170" lon="-8.8493030">
        <ele>6.3</ele>
        <time>2021-05-19T14:04:38Z</time>
      </trkpt>
      <trkpt lat="42.1201280" lon="-8.8492960">
        <ele>6.3</ele>
        <time>2021-05-19T14:04:39Z</time>
      </trkpt>
      <trkpt lat="42.1201640" lon="-8.8493050">
        <ele>6.2</ele>
        <time>2021-05-19T14:04:40Z</time>
      </trkpt>
      <trkpt lat="42.1201650" lon="-8.8492750">
        <ele>6.2</ele>
        <time>2021-05-19T14:04:41Z</time>
      </trkpt>
      <trkpt lat="42.1201650" lon="-8.8492510">
        <ele>6.1</ele>
        <time>2021-05-19T14:04:42Z</time>
      </trkpt>
      <trkpt lat="42.1201690" lon="-8.8492270">
        <ele>6.1</ele>
        <time>2021-05-19T14:04:43Z</time>
      </trkpt>
      <trkpt lat="42.1201580" lon="-8.8492030">
        <ele>6.1</ele>
        <time>2021-05-19T14:04:44Z</time>
      </trkpt>
      <trkpt lat="42.1201520" lon="-8.8491750">
        <ele>6.0</ele>
        <time>2021-05-19T14:04:45Z</time>
      </trkpt>
      <trkpt lat="42.1201580" lon="-8.8491590">
        <ele>6.0</ele>
        <time>2021-05-19T14:04:46Z</time>
      </trkpt>
      <trkpt lat="42.1201630" lon="-8.8491420">
        <ele>6.0</ele>
        <time>2021-05-19T14:04:47Z</time>
      </trkpt>
      <trkpt lat="42.1201620" lon="-8.8491210">
        <ele>5.9</ele>
        <time>2021-05-19T14:04:48Z</time>
      </trkpt>
      <trkpt lat="42.1201620" lon="-8.8491130">
        <ele>5.9</ele>
        <time>2021-05-19T14:04:49Z</time>
      </trkpt>
      <trkpt lat="42.1201540" lon="-8.8491170">
        <ele>5.9</ele>
        <time>2021-05-19T14:04:50Z</time>
      </trkpt>
      <trkpt lat="42.1201530" lon="-8.8491130">
        <ele>5.9</ele>
        <time>2021-05-19T14:04:51Z</time>
      </trkpt>
      <trkpt lat="42.1201560" lon="-8.8491070">
        <ele>5.9</ele>
        <time>2021-05-19T14:04:52Z</time>
      </trkpt>
      <trkpt lat="42.1201590" lon="-8.8490960">
        <ele>5.9</ele>
        <time>2021-05-19T14:04:53Z</time>
      </trkpt>
      <trkpt lat="42.1201580" lon="-8.8490970">
        <ele>5.9</ele>
        <time>2021-05-19T14:04:54Z</time>
      </trkpt>
      <trkpt lat="42.1201550" lon="-8.8490940">
        <ele>5.9</ele>
        <time>2021-05-19T14:04:55Z</time>
      </trkpt>
      <trkpt lat="42.1201530" lon="-8.8490980">
        <ele>5.9</ele>
        <time>2021-05-19T14:04:56Z</time>
      </trkpt>
      <trkpt lat="42.1201520" lon="-8.8490990">
        <ele>5.9</ele>
        <time>2021-05-19T14:04:57Z</time>
      </trkpt>
      <trkpt lat="42.1201490" lon="-8.8490950">
        <ele>5.9</ele>
        <time>2021-05-19T14:04:58Z</time>
      </trkpt>
      <trkpt lat="42.1201460" lon="-8.8490910">
        <ele>5.8</ele>
        <time>2021-05-19T14:04:59Z</time>
      </trkpt>
      <trkpt lat="42.1201430" lon="-8.8490920">
        <ele>5.8</ele>
        <time>2021-05-19T14:05:00Z</time>
      </trkpt>
      <trkpt lat="42.1201400" lon="-8.8490890">
        <ele>5.8</ele>
        <time>2021-05-19T14:05:01Z</time>
      </trkpt>
      <trkpt lat="42.1201360" lon="-8.8490880">
        <ele>5.8</ele>
        <time>2021-05-19T14:05:02Z</time>
      </trkpt>
      <trkpt lat="42.1201350" lon="-8.8490880">
        <ele>5.8</ele>
        <time>2021-05-19T14:05:03Z</time>
      </trkpt>
      <trkpt lat="42.1201340" lon="-8.8490920">
        <ele>5.8</ele>
        <time>2021-05-19T14:05:04Z</time>
      </trkpt>
      <trkpt lat="42.1201330" lon="-8.8490930">
        <ele>5.8</ele>
        <time>2021-05-19T14:05:05Z</time>
      </trkpt>
      <trkpt lat="42.1201320" lon="-8.8490850">
        <ele>5.8</ele>
        <time>2021-05-19T14:05:06Z</time>
      </trkpt>
      <trkpt lat="42.1201330" lon="-8.8490890">
        <ele>5.8</ele>
        <time>2021-05-19T14:05:07Z</time>
      </trkpt>
      <trkpt lat="42.1201330" lon="-8.8490900">
        <ele>5.8</ele>
        <time>2021-05-19T14:05:08Z</time>
      </trkpt>
      <trkpt lat="42.1201300" lon="-8.8490950">
        <ele>5.8</ele>
        <time>2021-05-19T14:05:09Z</time>
      </trkpt>
      <trkpt lat="42.1201300" lon="-8.8490970">
        <ele>5.8</ele>
        <time>2021-05-19T14:05:10Z</time>
      </trkpt>
      <trkpt lat="42.1201280" lon="-8.8490950">
        <ele>5.8</ele>
        <time>2021-05-19T14:05:11Z</time>
      </trkpt>
      <trkpt lat="42.1201260" lon="-8.8490890">
        <ele>5.8</ele>
        <time>2021-05-19T14:05:12Z</time>
      </trkpt>
      <trkpt lat="42.1201190" lon="-8.8490850">
        <ele>5.7</ele>
        <time>2021-05-19T14:05:13Z</time>
      </trkpt>
      <trkpt lat="42.1201270" lon="-8.8490950">
        <ele>5.7</ele>
        <time>2021-05-19T14:05:14Z</time>
      </trkpt>
      <trkpt lat="42.1201310" lon="-8.8490970">
        <ele>5.7</ele>
        <time>2021-05-19T14:05:15Z</time>
      </trkpt>
      <trkpt lat="42.1201330" lon="-8.8490960">
        <ele>5.7</ele>
        <time>2021-05-19T14:05:16Z</time>
      </trkpt>
      <trkpt lat="42.1201340" lon="-8.8490900">
        <ele>5.7</ele>
        <time>2021-05-19T14:05:17Z</time>
      </trkpt>
      <trkpt lat="42.1201340" lon="-8.8490890">
        <ele>5.7</ele>
        <time>2021-05-19T14:05:18Z</time>
      </trkpt>
      <trkpt lat="42.1201370" lon="-8.8490910">
        <ele>5.7</ele>
        <time>2021-05-19T14:05:19Z</time>
      </trkpt>
      <trkpt lat="42.1201430" lon="-8.8490920">
        <ele>5.7</ele>
        <time>2021-05-19T14:05:20Z</time>
      </trkpt>
      <trkpt lat="42.1201430" lon="-8.8490930">
        <ele>5.7</ele>
        <time>2021-05-19T14:05:21Z</time>
      </trkpt>
      <trkpt lat="42.1201420" lon="-8.8490920">
        <ele>5.7</ele>
        <time>2021-05-19T14:05:22Z</time>
      </trkpt>
      <trkpt lat="42.1201400" lon="-8.8490890">
        <ele>5.7</ele>
        <time>2021-05-19T14:05:23Z</time>
      </trkpt>
      <trkpt lat="42.1201410" lon="-8.8490890">
        <ele>5.7</ele>
        <time>2021-05-19T14:05:24Z</time>
      </trkpt>
      <trkpt lat="42.1201400" lon="-8.8490890">
        <ele>5.7</ele>
        <time>2021-05-19T14:05:25Z</time>
      </trkpt>
      <trkpt lat="42.1201370" lon="-8.8490900">
        <ele>5.7</ele>
        <time>2021-05-19T14:05:26Z</time>
      </trkpt>
      <trkpt lat="42.1201370" lon="-8.8490860">
        <ele>5.6</ele>
        <time>2021-05-19T14:05:27Z</time>
      </trkpt>
      <trkpt lat="42.1201370" lon="-8.8490840">
        <ele>5.6</ele>
        <time>2021-05-19T14:05:28Z</time>
      </trkpt>
      <trkpt lat="42.1201360" lon="-8.8490780">
        <ele>5.6</ele>
        <time>2021-05-19T14:05:29Z</time>
      </trkpt>
      <trkpt lat="42.1201360" lon="-8.8490730">
        <ele>5.6</ele>
        <time>2021-05-19T14:05:30Z</time>
      </trkpt>
      <trkpt lat="42.1201370" lon="-8.8490720">
        <ele>5.6</ele>
        <time>2021-05-19T14:05:31Z</time>
      </trkpt>
      <trkpt lat="42.1201400" lon="-8.8490740">
        <ele>5.6</ele>
        <time>2021-05-19T14:05:32Z</time>
      </trkpt>
      <trkpt lat="42.1201410" lon="-8.8490770">
        <ele>5.6</ele>
        <time>2021-05-19T14:05:33Z</time>
      </trkpt>
      <trkpt lat="42.1201410" lon="-8.8490730">
        <ele>5.6</ele>
        <time>2021-05-19T14:05:34Z</time>
      </trkpt>
      <trkpt lat="42.1201380" lon="-8.8490670">
        <ele>5.5</ele>
        <time>2021-05-19T14:05:35Z</time>
      </trkpt>
      <trkpt lat="42.1201380" lon="-8.8490670">
        <ele>5.5</ele>
        <time>2021-05-19T14:05:36Z</time>
      </trkpt>
      <trkpt lat="42.1201380" lon="-8.8490670">
        <ele>5.5</ele>
        <time>2021-05-19T14:05:37Z</time>
      </trkpt>
      <trkpt lat="42.1201380" lon="-8.8490670">
        <ele>5.5</ele>
        <time>2021-05-19T14:05:38Z</time>
      </trkpt>
      <trkpt lat="42.1201380" lon="-8.8490670">
        <ele>5.5</ele>
        <time>2021-05-19T14:05:39Z</time>
      </trkpt>
      <trkpt lat="42.1201380" lon="-8.8490670">
        <ele>5.5</ele>
        <time>2021-05-19T14:05:40Z</time>
      </trkpt>
      <trkpt lat="42.1201380" lon="-8.8490670">
        <ele>5.5</ele>
        <time>2021-05-19T14:05:41Z</time>
      </trkpt>
      <trkpt lat="42.1201380" lon="-8.8490670">
        <ele>5.5</ele>
        <time>2021-05-19T14:05:42Z</time>
      </trkpt>
      <trkpt lat="42.1201380" lon="-8.8490670">
        <ele>5.5</ele>
        <time>2021-05-19T14:05:43Z</time>
      </trkpt>
      <trkpt lat="42.1201380" lon="-8.8490670">
        <ele>5.5</ele>
        <time>2021-05-19T14:05:44Z</time>
      </trkpt>
      <trkpt lat="42.1201380" lon="-8.8490670">
        <ele>5.5</ele>
        <time>2021-05-19T14:05:45Z</time>
      </trkpt>
      <trkpt lat="42.1201380" lon="-8.8490670">
        <ele>5.5</ele>
        <time>2021-05-19T14:05:46Z</time>
      </trkpt>
      <trkpt lat="42.1201380" lon="-8.8490670">
        <ele>5.5</ele>
        <time>2021-05-19T14:05:47Z</time>
      </trkpt>
      <trkpt lat="42.1201380" lon="-8.8490670">
        <ele>5.5</ele>
        <time>2021-05-19T14:05:48Z</time>
      </trkpt>
      <trkpt lat="42.1201380" lon="-8.8490670">
        <ele>5.5</ele>
        <time>2021-05-19T14:05:49Z</time>
      </trkpt>
      <trkpt lat="42.1201380" lon="-8.8490670">
        <ele>5.5</ele>
        <time>2021-05-19T14:05:50Z</time>
      </trkpt>
      <trkpt lat="42.1201380" lon="-8.8490670">
        <ele>5.5</ele>
        <time>2021-05-19T14:05:51Z</time>
      </trkpt>
      <trkpt lat="42.1201380" lon="-8.8490670">
        <ele>5.5</ele>
        <time>2021-05-19T14:05:52Z</time>
      </trkpt>
      <trkpt lat="42.1201620" lon="-8.8490790">
        <ele>5.5</ele>
        <time>2021-05-19T14:05:53Z</time>
      </trkpt>
      <trkpt lat="42.1201620" lon="-8.8490810">
        <ele>5.5</ele>
        <time>2021-05-19T14:05:54Z</time>
      </trkpt>
      <trkpt lat="42.1201590" lon="-8.8490840">
        <ele>5.5</ele>
        <time>2021-05-19T14:05:55Z</time>
      </trkpt>
      <trkpt lat="42.1201570" lon="-8.8490850">
        <ele>5.5</ele>
        <time>2021-05-19T14:05:56Z</time>
      </trkpt>
      <trkpt lat="42.1201500" lon="-8.8490900">
        <ele>5.5</ele>
        <time>2021-05-19T14:05:57Z</time>
      </trkpt>
      <trkpt lat="42.1201470" lon="-8.8490910">
        <ele>5.5</ele>
        <time>2021-05-19T14:05:58Z</time>
      </trkpt>
      <trkpt lat="42.1201460" lon="-8.8490890">
        <ele>5.5</ele>
        <time>2021-05-19T14:05:59Z</time>
      </trkpt>
      <trkpt lat="42.1201450" lon="-8.8490860">
        <ele>5.5</ele>
        <time>2021-05-19T14:06:00Z</time>
      </trkpt>
      <trkpt lat="42.1201450" lon="-8.8490830">
        <ele>5.5</ele>
        <time>2021-05-19T14:06:01Z</time>
      </trkpt>
      <trkpt lat="42.1201440" lon="-8.8490820">
        <ele>5.5</ele>
        <time>2021-05-19T14:06:02Z</time>
      </trkpt>
      <trkpt lat="42.1201450" lon="-8.8490810">
        <ele>5.5</ele>
        <time>2021-05-19T14:06:03Z</time>
      </trkpt>
      <trkpt lat="42.1201460" lon="-8.8490790">
        <ele>5.5</ele>
        <time>2021-05-19T14:06:04Z</time>
      </trkpt>
      <trkpt lat="42.1201480" lon="-8.8490790">
        <ele>5.5</ele>
        <time>2021-05-19T14:06:05Z</time>
      </trkpt>
      <trkpt lat="42.1201490" lon="-8.8490810">
        <ele>5.5</ele>
        <time>2021-05-19T14:06:06Z</time>
      </trkpt>
      <trkpt lat="42.1201520" lon="-8.8490720">
        <ele>5.5</ele>
        <time>2021-05-19T14:06:07Z</time>
      </trkpt>
      <trkpt lat="42.1201530" lon="-8.8490630">
        <ele>5.5</ele>
        <time>2021-05-19T14:06:08Z</time>
      </trkpt>
      <trkpt lat="42.1201540" lon="-8.8490580">
        <ele>5.5</ele>
        <time>2021-05-19T14:06:09Z</time>
      </trkpt>
      <trkpt lat="42.1201520" lon="-8.8490560">
        <ele>5.5</ele>
        <time>2021-05-19T14:06:10Z</time>
      </trkpt>
      <trkpt lat="42.1201480" lon="-8.8490580">
        <ele>5.5</ele>
        <time>2021-05-19T14:06:11Z</time>
      </trkpt>
      <trkpt lat="42.1201500" lon="-8.8490590">
        <ele>5.4</ele>
        <time>2021-05-19T14:06:12Z</time>
      </trkpt>
      <trkpt lat="42.1201540" lon="-8.8490560">
        <ele>5.4</ele>
        <time>2021-05-19T14:06:13Z</time>
      </trkpt>
      <trkpt lat="42.1201530" lon="-8.8490540">
        <ele>5.4</ele>
        <time>2021-05-19T14:06:14Z</time>
      </trkpt>
      <trkpt lat="42.1201470" lon="-8.8490500">
        <ele>5.4</ele>
        <time>2021-05-19T14:06:15Z</time>
      </trkpt>
      <trkpt lat="42.1201420" lon="-8.8490450">
        <ele>5.4</ele>
        <time>2021-05-19T14:06:16Z</time>
      </trkpt>
      <trkpt lat="42.1201340" lon="-8.8490380">
        <ele>5.4</ele>
        <time>2021-05-19T14:06:17Z</time>
      </trkpt>
      <trkpt lat="42.1201270" lon="-8.8490360">
        <ele>5.4</ele>
        <time>2021-05-19T14:06:18Z</time>
      </trkpt>
      <trkpt lat="42.1201120" lon="-8.8490370">
        <ele>5.4</ele>
        <time>2021-05-19T14:06:19Z</time>
      </trkpt>
      <trkpt lat="42.1201070" lon="-8.8490370">
        <ele>5.4</ele>
        <time>2021-05-19T14:06:20Z</time>
      </trkpt>
      <trkpt lat="42.1201000" lon="-8.8490280">
        <ele>5.4</ele>
        <time>2021-05-19T14:06:21Z</time>
      </trkpt>
      <trkpt lat="42.1201030" lon="-8.8490280">
        <ele>5.4</ele>
        <time>2021-05-19T14:06:22Z</time>
      </trkpt>
      <trkpt lat="42.1200980" lon="-8.8490310">
        <ele>5.4</ele>
        <time>2021-05-19T14:06:23Z</time>
      </trkpt>
      <trkpt lat="42.1200990" lon="-8.8490290">
        <ele>5.4</ele>
        <time>2021-05-19T14:06:24Z</time>
      </trkpt>
      <trkpt lat="42.1200970" lon="-8.8490260">
        <ele>5.4</ele>
        <time>2021-05-19T14:06:25Z</time>
      </trkpt>
      <trkpt lat="42.1200850" lon="-8.8490290">
        <ele>5.4</ele>
        <time>2021-05-19T14:06:26Z</time>
      </trkpt>
      <trkpt lat="42.1200750" lon="-8.8490280">
        <ele>5.4</ele>
        <time>2021-05-19T14:06:27Z</time>
      </trkpt>
      <trkpt lat="42.1200750" lon="-8.8490160">
        <ele>5.4</ele>
        <time>2021-05-19T14:06:28Z</time>
      </trkpt>
      <trkpt lat="42.1200700" lon="-8.8490080">
        <ele>5.4</ele>
        <time>2021-05-19T14:06:29Z</time>
      </trkpt>
      <trkpt lat="42.1200650" lon="-8.8490050">
        <ele>5.4</ele>
        <time>2021-05-19T14:06:30Z</time>
      </trkpt>
      <trkpt lat="42.1200590" lon="-8.8489960">
        <ele>5.4</ele>
        <time>2021-05-19T14:06:31Z</time>
      </trkpt>
      <trkpt lat="42.1200570" lon="-8.8489950">
        <ele>5.4</ele>
        <time>2021-05-19T14:06:32Z</time>
      </trkpt>
      <trkpt lat="42.1200520" lon="-8.8489880">
        <ele>5.4</ele>
        <time>2021-05-19T14:06:33Z</time>
      </trkpt>
      <trkpt lat="42.1200410" lon="-8.8489860">
        <ele>5.4</ele>
        <time>2021-05-19T14:06:34Z</time>
      </trkpt>
      <trkpt lat="42.1200320" lon="-8.8489850">
        <ele>5.4</ele>
        <time>2021-05-19T14:06:35Z</time>
      </trkpt>
      <trkpt lat="42.1200300" lon="-8.8489860">
        <ele>5.4</ele>
        <time>2021-05-19T14:06:36Z</time>
      </trkpt>
      <trkpt lat="42.1200240" lon="-8.8489770">
        <ele>5.4</ele>
        <time>2021-05-19T14:06:37Z</time>
      </trkpt>
      <trkpt lat="42.1200160" lon="-8.8489630">
        <ele>5.4</ele>
        <time>2021-05-19T14:06:38Z</time>
      </trkpt>
      <trkpt lat="42.1200060" lon="-8.8489610">
        <ele>5.4</ele>
        <time>2021-05-19T14:06:39Z</time>
      </trkpt>
      <trkpt lat="42.1200000" lon="-8.8489520">
        <ele>5.4</ele>
        <time>2021-05-19T14:06:40Z</time>
      </trkpt>
      <trkpt lat="42.1199930" lon="-8.8489520">
        <ele>5.4</ele>
        <time>2021-05-19T14:06:41Z</time>
      </trkpt>
      <trkpt lat="42.1199970" lon="-8.8489420">
        <ele>5.4</ele>
        <time>2021-05-19T14:06:42Z</time>
      </trkpt>
      <trkpt lat="42.1199850" lon="-8.8489350">
        <ele>5.4</ele>
        <time>2021-05-19T14:06:43Z</time>
      </trkpt>
      <trkpt lat="42.1199740" lon="-8.8489260">
        <ele>5.4</ele>
        <time>2021-05-19T14:06:44Z</time>
      </trkpt>
      <trkpt lat="42.1199670" lon="-8.8489140">
        <ele>5.4</ele>
        <time>2021-05-19T14:06:45Z</time>
      </trkpt>
      <trkpt lat="42.1199600" lon="-8.8489070">
        <ele>5.4</ele>
        <time>2021-05-19T14:06:46Z</time>
      </trkpt>
      <trkpt lat="42.1199490" lon="-8.8489030">
        <ele>5.4</ele>
        <time>2021-05-19T14:06:47Z</time>
      </trkpt>
      <trkpt lat="42.1199430" lon="-8.8488910">
        <ele>5.4</ele>
        <time>2021-05-19T14:06:48Z</time>
      </trkpt>
      <trkpt lat="42.1199310" lon="-8.8488830">
        <ele>5.4</ele>
        <time>2021-05-19T14:06:49Z</time>
      </trkpt>
      <trkpt lat="42.1199260" lon="-8.8488720">
        <ele>5.4</ele>
        <time>2021-05-19T14:06:50Z</time>
      </trkpt>
      <trkpt lat="42.1199210" lon="-8.8488630">
        <ele>5.4</ele>
        <time>2021-05-19T14:06:51Z</time>
      </trkpt>
      <trkpt lat="42.1199100" lon="-8.8488550">
        <ele>5.4</ele>
        <time>2021-05-19T14:06:52Z</time>
      </trkpt>
      <trkpt lat="42.1199030" lon="-8.8488420">
        <ele>5.4</ele>
        <time>2021-05-19T14:06:53Z</time>
      </trkpt>
      <trkpt lat="42.1198960" lon="-8.8488320">
        <ele>5.4</ele>
        <time>2021-05-19T14:06:54Z</time>
      </trkpt>
      <trkpt lat="42.1198900" lon="-8.8488240">
        <ele>5.4</ele>
        <time>2021-05-19T14:06:55Z</time>
      </trkpt>
      <trkpt lat="42.1198800" lon="-8.8488160">
        <ele>5.4</ele>
        <time>2021-05-19T14:06:56Z</time>
      </trkpt>
      <trkpt lat="42.1198750" lon="-8.8488050">
        <ele>5.4</ele>
        <time>2021-05-19T14:06:57Z</time>
      </trkpt>
      <trkpt lat="42.1198740" lon="-8.8487920">
        <ele>5.4</ele>
        <time>2021-05-19T14:06:58Z</time>
      </trkpt>
      <trkpt lat="42.1198690" lon="-8.8487840">
        <ele>5.4</ele>
        <time>2021-05-19T14:06:59Z</time>
      </trkpt>
      <trkpt lat="42.1198630" lon="-8.8487680">
        <ele>5.4</ele>
        <time>2021-05-19T14:07:00Z</time>
      </trkpt>
      <trkpt lat="42.1198490" lon="-8.8487600">
        <ele>5.4</ele>
        <time>2021-05-19T14:07:01Z</time>
      </trkpt>
      <trkpt lat="42.1198380" lon="-8.8487510">
        <ele>5.4</ele>
        <time>2021-05-19T14:07:02Z</time>
      </trkpt>
      <trkpt lat="42.1198310" lon="-8.8487440">
        <ele>5.4</ele>
        <time>2021-05-19T14:07:03Z</time>
      </trkpt>
      <trkpt lat="42.1198190" lon="-8.8487360">
        <ele>5.4</ele>
        <time>2021-05-19T14:07:04Z</time>
      </trkpt>
      <trkpt lat="42.1198010" lon="-8.8487150">
        <ele>5.4</ele>
        <time>2021-05-19T14:07:05Z</time>
      </trkpt>
      <trkpt lat="42.1197930" lon="-8.8486980">
        <ele>5.4</ele>
        <time>2021-05-19T14:07:06Z</time>
      </trkpt>
      <trkpt lat="42.1197860" lon="-8.8486810">
        <ele>5.4</ele>
        <time>2021-05-19T14:07:07Z</time>
      </trkpt>
      <trkpt lat="42.1197780" lon="-8.8486810">
        <ele>5.4</ele>
        <time>2021-05-19T14:07:08Z</time>
      </trkpt>
      <trkpt lat="42.1197680" lon="-8.8486710">
        <ele>5.4</ele>
        <time>2021-05-19T14:07:09Z</time>
      </trkpt>
      <trkpt lat="42.1197620" lon="-8.8486630">
        <ele>5.4</ele>
        <time>2021-05-19T14:07:10Z</time>
      </trkpt>
      <trkpt lat="42.1197550" lon="-8.8486490">
        <ele>5.4</ele>
        <time>2021-05-19T14:07:11Z</time>
      </trkpt>
      <trkpt lat="42.1197480" lon="-8.8486370">
        <ele>5.4</ele>
        <time>2021-05-19T14:07:12Z</time>
      </trkpt>
      <trkpt lat="42.1197390" lon="-8.8486310">
        <ele>5.4</ele>
        <time>2021-05-19T14:07:13Z</time>
      </trkpt>
      <trkpt lat="42.1197370" lon="-8.8486270">
        <ele>5.4</ele>
        <time>2021-05-19T14:07:14Z</time>
      </trkpt>
      <trkpt lat="42.1197380" lon="-8.8486210">
        <ele>5.4</ele>
        <time>2021-05-19T14:07:15Z</time>
      </trkpt>
      <trkpt lat="42.1197260" lon="-8.8486130">
        <ele>5.4</ele>
        <time>2021-05-19T14:07:16Z</time>
      </trkpt>
      <trkpt lat="42.1197140" lon="-8.8486030">
        <ele>5.4</ele>
        <time>2021-05-19T14:07:17Z</time>
      </trkpt>
      <trkpt lat="42.1197020" lon="-8.8485790">
        <ele>5.4</ele>
        <time>2021-05-19T14:07:18Z</time>
      </trkpt>
      <trkpt lat="42.1196860" lon="-8.8485750">
        <ele>5.4</ele>
        <time>2021-05-19T14:07:19Z</time>
      </trkpt>
      <trkpt lat="42.1196690" lon="-8.8485550">
        <ele>5.4</ele>
        <time>2021-05-19T14:07:20Z</time>
      </trkpt>
      <trkpt lat="42.1196640" lon="-8.8485470">
        <ele>5.4</ele>
        <time>2021-05-19T14:07:21Z</time>
      </trkpt>
      <trkpt lat="42.1196590" lon="-8.8485410">
        <ele>5.4</ele>
        <time>2021-05-19T14:07:22Z</time>
      </trkpt>
      <trkpt lat="42.1196450" lon="-8.8485250">
        <ele>5.4</ele>
        <time>2021-05-19T14:07:23Z</time>
      </trkpt>
      <trkpt lat="42.1196440" lon="-8.8485210">
        <ele>5.4</ele>
        <time>2021-05-19T14:07:24Z</time>
      </trkpt>
      <trkpt lat="42.1196370" lon="-8.8485060">
        <ele>5.4</ele>
        <time>2021-05-19T14:07:25Z</time>
      </trkpt>
      <trkpt lat="42.1196310" lon="-8.8484970">
        <ele>5.4</ele>
        <time>2021-05-19T14:07:26Z</time>
      </trkpt>
      <trkpt lat="42.1196200" lon="-8.8484850">
        <ele>5.4</ele>
        <time>2021-05-19T14:07:27Z</time>
      </trkpt>
      <trkpt lat="42.1196090" lon="-8.8484830">
        <ele>5.4</ele>
        <time>2021-05-19T14:07:28Z</time>
      </trkpt>
      <trkpt lat="42.1195990" lon="-8.8484750">
        <ele>5.4</ele>
        <time>2021-05-19T14:07:29Z</time>
      </trkpt>
      <trkpt lat="42.1195970" lon="-8.8484580">
        <ele>5.4</ele>
        <time>2021-05-19T14:07:30Z</time>
      </trkpt>
      <trkpt lat="42.1195790" lon="-8.8484430">
        <ele>5.4</ele>
        <time>2021-05-19T14:07:31Z</time>
      </trkpt>
      <trkpt lat="42.1195730" lon="-8.8484350">
        <ele>5.4</ele>
        <time>2021-05-19T14:07:32Z</time>
      </trkpt>
      <trkpt lat="42.1195680" lon="-8.8484270">
        <ele>5.4</ele>
        <time>2021-05-19T14:07:33Z</time>
      </trkpt>
      <trkpt lat="42.1195660" lon="-8.8484180">
        <ele>5.4</ele>
        <time>2021-05-19T14:07:34Z</time>
      </trkpt>
      <trkpt lat="42.1195580" lon="-8.8484050">
        <ele>5.4</ele>
        <time>2021-05-19T14:07:35Z</time>
      </trkpt>
      <trkpt lat="42.1195530" lon="-8.8483980">
        <ele>5.4</ele>
        <time>2021-05-19T14:07:36Z</time>
      </trkpt>
      <trkpt lat="42.1195490" lon="-8.8483900">
        <ele>5.4</ele>
        <time>2021-05-19T14:07:37Z</time>
      </trkpt>
      <trkpt lat="42.1195450" lon="-8.8483790">
        <ele>5.4</ele>
        <time>2021-05-19T14:07:38Z</time>
      </trkpt>
      <trkpt lat="42.1195350" lon="-8.8483640">
        <ele>5.4</ele>
        <time>2021-05-19T14:07:39Z</time>
      </trkpt>
      <trkpt lat="42.1195300" lon="-8.8483500">
        <ele>5.4</ele>
        <time>2021-05-19T14:07:40Z</time>
      </trkpt>
      <trkpt lat="42.1195160" lon="-8.8483420">
        <ele>5.4</ele>
        <time>2021-05-19T14:07:41Z</time>
      </trkpt>
      <trkpt lat="42.1195040" lon="-8.8483280">
        <ele>5.4</ele>
        <time>2021-05-19T14:07:42Z</time>
      </trkpt>
      <trkpt lat="42.1194980" lon="-8.8483220">
        <ele>5.4</ele>
        <time>2021-05-19T14:07:43Z</time>
      </trkpt>
      <trkpt lat="42.1194970" lon="-8.8483020">
        <ele>5.4</ele>
        <time>2021-05-19T14:07:44Z</time>
      </trkpt>
      <trkpt lat="42.1194920" lon="-8.8483040">
        <ele>5.4</ele>
        <time>2021-05-19T14:07:45Z</time>
      </trkpt>
      <trkpt lat="42.1194830" lon="-8.8483040">
        <ele>5.4</ele>
        <time>2021-05-19T14:07:46Z</time>
      </trkpt>
      <trkpt lat="42.1194660" lon="-8.8482870">
        <ele>5.4</ele>
        <time>2021-05-19T14:07:47Z</time>
      </trkpt>
      <trkpt lat="42.1194570" lon="-8.8482750">
        <ele>5.4</ele>
        <time>2021-05-19T14:07:48Z</time>
      </trkpt>
      <trkpt lat="42.1194490" lon="-8.8482640">
        <ele>5.4</ele>
        <time>2021-05-19T14:07:49Z</time>
      </trkpt>
      <trkpt lat="42.1194370" lon="-8.8482360">
        <ele>5.4</ele>
        <time>2021-05-19T14:07:50Z</time>
      </trkpt>
      <trkpt lat="42.1194300" lon="-8.8482200">
        <ele>5.4</ele>
        <time>2021-05-19T14:07:51Z</time>
      </trkpt>
      <trkpt lat="42.1194300" lon="-8.8482130">
        <ele>5.4</ele>
        <time>2021-05-19T14:07:52Z</time>
      </trkpt>
      <trkpt lat="42.1194210" lon="-8.8481910">
        <ele>5.4</ele>
        <time>2021-05-19T14:07:53Z</time>
      </trkpt>
      <trkpt lat="42.1194130" lon="-8.8481810">
        <ele>5.4</ele>
        <time>2021-05-19T14:07:54Z</time>
      </trkpt>
      <trkpt lat="42.1194060" lon="-8.8481700">
        <ele>5.4</ele>
        <time>2021-05-19T14:07:55Z</time>
      </trkpt>
      <trkpt lat="42.1194010" lon="-8.8481690">
        <ele>5.4</ele>
        <time>2021-05-19T14:07:56Z</time>
      </trkpt>
      <trkpt lat="42.1193880" lon="-8.8481670">
        <ele>5.4</ele>
        <time>2021-05-19T14:07:57Z</time>
      </trkpt>
      <trkpt lat="42.1193770" lon="-8.8481580">
        <ele>5.4</ele>
        <time>2021-05-19T14:07:58Z</time>
      </trkpt>
      <trkpt lat="42.1193700" lon="-8.8481500">
        <ele>5.4</ele>
        <time>2021-05-19T14:07:59Z</time>
      </trkpt>
      <trkpt lat="42.1193670" lon="-8.8481350">
        <ele>5.4</ele>
        <time>2021-05-19T14:08:00Z</time>
      </trkpt>
      <trkpt lat="42.1193640" lon="-8.8481340">
        <ele>5.4</ele>
        <time>2021-05-19T14:08:01Z</time>
      </trkpt>
      <trkpt lat="42.1193530" lon="-8.8481120">
        <ele>5.5</ele>
        <time>2021-05-19T14:08:02Z</time>
      </trkpt>
      <trkpt lat="42.1193500" lon="-8.8481120">
        <ele>5.5</ele>
        <time>2021-05-19T14:08:03Z</time>
      </trkpt>
      <trkpt lat="42.1193470" lon="-8.8481080">
        <ele>5.5</ele>
        <time>2021-05-19T14:08:04Z</time>
      </trkpt>
      <trkpt lat="42.1193360" lon="-8.8480940">
        <ele>5.5</ele>
        <time>2021-05-19T14:08:05Z</time>
      </trkpt>
      <trkpt lat="42.1193270" lon="-8.8480740">
        <ele>5.5</ele>
        <time>2021-05-19T14:08:06Z</time>
      </trkpt>
      <trkpt lat="42.1193110" lon="-8.8480640">
        <ele>5.5</ele>
        <time>2021-05-19T14:08:07Z</time>
      </trkpt>
      <trkpt lat="42.1193020" lon="-8.8480510">
        <ele>5.5</ele>
        <time>2021-05-19T14:08:08Z</time>
      </trkpt>
      <trkpt lat="42.1192970" lon="-8.8480440">
        <ele>5.5</ele>
        <time>2021-05-19T14:08:09Z</time>
      </trkpt>
      <trkpt lat="42.1192850" lon="-8.8480340">
        <ele>5.5</ele>
        <time>2021-05-19T14:08:10Z</time>
      </trkpt>
      <trkpt lat="42.1192750" lon="-8.8480250">
        <ele>5.5</ele>
        <time>2021-05-19T14:08:11Z</time>
      </trkpt>
      <trkpt lat="42.1192630" lon="-8.8480130">
        <ele>5.5</ele>
        <time>2021-05-19T14:08:12Z</time>
      </trkpt>
      <trkpt lat="42.1192530" lon="-8.8479980">
        <ele>5.5</ele>
        <time>2021-05-19T14:08:13Z</time>
      </trkpt>
      <trkpt lat="42.1192490" lon="-8.8479840">
        <ele>5.5</ele>
        <time>2021-05-19T14:08:14Z</time>
      </trkpt>
      <trkpt lat="42.1192350" lon="-8.8479670">
        <ele>5.5</ele>
        <time>2021-05-19T14:08:15Z</time>
      </trkpt>
      <trkpt lat="42.1192310" lon="-8.8479600">
        <ele>5.5</ele>
        <time>2021-05-19T14:08:16Z</time>
      </trkpt>
      <trkpt lat="42.1192170" lon="-8.8479410">
        <ele>5.5</ele>
        <time>2021-05-19T14:08:17Z</time>
      </trkpt>
      <trkpt lat="42.1192160" lon="-8.8479360">
        <ele>5.5</ele>
        <time>2021-05-19T14:08:18Z</time>
      </trkpt>
      <trkpt lat="42.1192040" lon="-8.8479170">
        <ele>5.5</ele>
        <time>2021-05-19T14:08:19Z</time>
      </trkpt>
      <trkpt lat="42.1191960" lon="-8.8479060">
        <ele>5.5</ele>
        <time>2021-05-19T14:08:20Z</time>
      </trkpt>
      <trkpt lat="42.1191890" lon="-8.8478960">
        <ele>5.5</ele>
        <time>2021-05-19T14:08:21Z</time>
      </trkpt>
      <trkpt lat="42.1191810" lon="-8.8478860">
        <ele>5.5</ele>
        <time>2021-05-19T14:08:22Z</time>
      </trkpt>
      <trkpt lat="42.1191730" lon="-8.8478750">
        <ele>5.5</ele>
        <time>2021-05-19T14:08:23Z</time>
      </trkpt>
      <trkpt lat="42.1191650" lon="-8.8478650">
        <ele>5.5</ele>
        <time>2021-05-19T14:08:24Z</time>
      </trkpt>
      <trkpt lat="42.1191580" lon="-8.8478550">
        <ele>5.5</ele>
        <time>2021-05-19T14:08:25Z</time>
      </trkpt>
      <trkpt lat="42.1191500" lon="-8.8478440">
        <ele>5.5</ele>
        <time>2021-05-19T14:08:26Z</time>
      </trkpt>
      <trkpt lat="42.1191420" lon="-8.8478340">
        <ele>5.5</ele>
        <time>2021-05-19T14:08:27Z</time>
      </trkpt>
      <trkpt lat="42.1191300" lon="-8.8478150">
        <ele>5.5</ele>
        <time>2021-05-19T14:08:28Z</time>
      </trkpt>
      <trkpt lat="42.1191170" lon="-8.8478010">
        <ele>5.5</ele>
        <time>2021-05-19T14:08:29Z</time>
      </trkpt>
      <trkpt lat="42.1191120" lon="-8.8477910">
        <ele>5.5</ele>
        <time>2021-05-19T14:08:30Z</time>
      </trkpt>
      <trkpt lat="42.1191050" lon="-8.8477870">
        <ele>5.5</ele>
        <time>2021-05-19T14:08:31Z</time>
      </trkpt>
      <trkpt lat="42.1190940" lon="-8.8477750">
        <ele>5.5</ele>
        <time>2021-05-19T14:08:32Z</time>
      </trkpt>
      <trkpt lat="42.1190840" lon="-8.8477630">
        <ele>5.5</ele>
        <time>2021-05-19T14:08:33Z</time>
      </trkpt>
      <trkpt lat="42.1190740" lon="-8.8477460">
        <ele>5.6</ele>
        <time>2021-05-19T14:08:34Z</time>
      </trkpt>
      <trkpt lat="42.1190670" lon="-8.8477380">
        <ele>5.6</ele>
        <time>2021-05-19T14:08:35Z</time>
      </trkpt>
      <trkpt lat="42.1190590" lon="-8.8477360">
        <ele>5.6</ele>
        <time>2021-05-19T14:08:36Z</time>
      </trkpt>
      <trkpt lat="42.1190500" lon="-8.8477240">
        <ele>5.6</ele>
        <time>2021-05-19T14:08:37Z</time>
      </trkpt>
      <trkpt lat="42.1190430" lon="-8.8477120">
        <ele>5.6</ele>
        <time>2021-05-19T14:08:38Z</time>
      </trkpt>
      <trkpt lat="42.1190360" lon="-8.8477020">
        <ele>5.6</ele>
        <time>2021-05-19T14:08:39Z</time>
      </trkpt>
      <trkpt lat="42.1190260" lon="-8.8476920">
        <ele>5.6</ele>
        <time>2021-05-19T14:08:40Z</time>
      </trkpt>
      <trkpt lat="42.1190180" lon="-8.8476820">
        <ele>5.6</ele>
        <time>2021-05-19T14:08:41Z</time>
      </trkpt>
      <trkpt lat="42.1190080" lon="-8.8476670">
        <ele>5.6</ele>
        <time>2021-05-19T14:08:42Z</time>
      </trkpt>
      <trkpt lat="42.1190050" lon="-8.8476630">
        <ele>5.6</ele>
        <time>2021-05-19T14:08:43Z</time>
      </trkpt>
      <trkpt lat="42.1190030" lon="-8.8476580">
        <ele>5.6</ele>
        <time>2021-05-19T14:08:44Z</time>
      </trkpt>
      <trkpt lat="42.1189930" lon="-8.8476410">
        <ele>5.6</ele>
        <time>2021-05-19T14:08:45Z</time>
      </trkpt>
      <trkpt lat="42.1189860" lon="-8.8476270">
        <ele>5.6</ele>
        <time>2021-05-19T14:08:46Z</time>
      </trkpt>
      <trkpt lat="42.1189690" lon="-8.8476010">
        <ele>5.6</ele>
        <time>2021-05-19T14:08:47Z</time>
      </trkpt>
      <trkpt lat="42.1189640" lon="-8.8475890">
        <ele>5.6</ele>
        <time>2021-05-19T14:08:48Z</time>
      </trkpt>
      <trkpt lat="42.1189600" lon="-8.8475800">
        <ele>5.6</ele>
        <time>2021-05-19T14:08:49Z</time>
      </trkpt>
      <trkpt lat="42.1189520" lon="-8.8475760">
        <ele>5.6</ele>
        <time>2021-05-19T14:08:50Z</time>
      </trkpt>
      <trkpt lat="42.1189480" lon="-8.8475660">
        <ele>5.6</ele>
        <time>2021-05-19T14:08:51Z</time>
      </trkpt>
      <trkpt lat="42.1189410" lon="-8.8475610">
        <ele>5.6</ele>
        <time>2021-05-19T14:08:52Z</time>
      </trkpt>
      <trkpt lat="42.1189410" lon="-8.8475580">
        <ele>5.6</ele>
        <time>2021-05-19T14:08:53Z</time>
      </trkpt>
      <trkpt lat="42.1189400" lon="-8.8475520">
        <ele>5.6</ele>
        <time>2021-05-19T14:08:54Z</time>
      </trkpt>
      <trkpt lat="42.1189290" lon="-8.8475400">
        <ele>5.6</ele>
        <time>2021-05-19T14:08:55Z</time>
      </trkpt>
      <trkpt lat="42.1189200" lon="-8.8475260">
        <ele>5.6</ele>
        <time>2021-05-19T14:08:56Z</time>
      </trkpt>
      <trkpt lat="42.1189100" lon="-8.8475210">
        <ele>5.7</ele>
        <time>2021-05-19T14:08:57Z</time>
      </trkpt>
      <trkpt lat="42.1188950" lon="-8.8475140">
        <ele>5.7</ele>
        <time>2021-05-19T14:08:58Z</time>
      </trkpt>
      <trkpt lat="42.1188870" lon="-8.8475120">
        <ele>5.7</ele>
        <time>2021-05-19T14:08:59Z</time>
      </trkpt>
      <trkpt lat="42.1188740" lon="-8.8474970">
        <ele>5.7</ele>
        <time>2021-05-19T14:09:00Z</time>
      </trkpt>
      <trkpt lat="42.1188660" lon="-8.8474910">
        <ele>5.7</ele>
        <time>2021-05-19T14:09:01Z</time>
      </trkpt>
      <trkpt lat="42.1188590" lon="-8.8474840">
        <ele>5.7</ele>
        <time>2021-05-19T14:09:02Z</time>
      </trkpt>
      <trkpt lat="42.1188510" lon="-8.8474780">
        <ele>5.7</ele>
        <time>2021-05-19T14:09:03Z</time>
      </trkpt>
      <trkpt lat="42.1188350" lon="-8.8474580">
        <ele>5.7</ele>
        <time>2021-05-19T14:09:04Z</time>
      </trkpt>
      <trkpt lat="42.1188290" lon="-8.8474520">
        <ele>5.7</ele>
        <time>2021-05-19T14:09:05Z</time>
      </trkpt>
      <trkpt lat="42.1188180" lon="-8.8474420">
        <ele>5.7</ele>
        <time>2021-05-19T14:09:06Z</time>
      </trkpt>
      <trkpt lat="42.1188110" lon="-8.8474360">
        <ele>5.7</ele>
        <time>2021-05-19T14:09:07Z</time>
      </trkpt>
      <trkpt lat="42.1188020" lon="-8.8474200">
        <ele>5.7</ele>
        <time>2021-05-19T14:09:08Z</time>
      </trkpt>
      <trkpt lat="42.1187970" lon="-8.8474120">
        <ele>5.7</ele>
        <time>2021-05-19T14:09:09Z</time>
      </trkpt>
      <trkpt lat="42.1187890" lon="-8.8474070">
        <ele>5.7</ele>
        <time>2021-05-19T14:09:10Z</time>
      </trkpt>
      <trkpt lat="42.1187780" lon="-8.8474030">
        <ele>5.7</ele>
        <time>2021-05-19T14:09:11Z</time>
      </trkpt>
      <trkpt lat="42.1187590" lon="-8.8473900">
        <ele>5.7</ele>
        <time>2021-05-19T14:09:12Z</time>
      </trkpt>
      <trkpt lat="42.1187480" lon="-8.8473800">
        <ele>5.7</ele>
        <time>2021-05-19T14:09:13Z</time>
      </trkpt>
      <trkpt lat="42.1187340" lon="-8.8473660">
        <ele>5.7</ele>
        <time>2021-05-19T14:09:14Z</time>
      </trkpt>
      <trkpt lat="42.1187280" lon="-8.8473630">
        <ele>5.7</ele>
        <time>2021-05-19T14:09:15Z</time>
      </trkpt>
      <trkpt lat="42.1187210" lon="-8.8473590">
        <ele>5.7</ele>
        <time>2021-05-19T14:09:16Z</time>
      </trkpt>
      <trkpt lat="42.1187140" lon="-8.8473560">
        <ele>5.7</ele>
        <time>2021-05-19T14:09:17Z</time>
      </trkpt>
      <trkpt lat="42.1187080" lon="-8.8473410">
        <ele>5.7</ele>
        <time>2021-05-19T14:09:18Z</time>
      </trkpt>
      <trkpt lat="42.1187050" lon="-8.8473360">
        <ele>5.7</ele>
        <time>2021-05-19T14:09:19Z</time>
      </trkpt>
      <trkpt lat="42.1186950" lon="-8.8473250">
        <ele>5.7</ele>
        <time>2021-05-19T14:09:20Z</time>
      </trkpt>
      <trkpt lat="42.1186840" lon="-8.8473060">
        <ele>5.7</ele>
        <time>2021-05-19T14:09:21Z</time>
      </trkpt>
      <trkpt lat="42.1186760" lon="-8.8472960">
        <ele>5.7</ele>
        <time>2021-05-19T14:09:22Z</time>
      </trkpt>
      <trkpt lat="42.1186690" lon="-8.8472870">
        <ele>5.7</ele>
        <time>2021-05-19T14:09:23Z</time>
      </trkpt>
      <trkpt lat="42.1186630" lon="-8.8472800">
        <ele>5.7</ele>
        <time>2021-05-19T14:09:24Z</time>
      </trkpt>
      <trkpt lat="42.1186500" lon="-8.8472650">
        <ele>5.7</ele>
        <time>2021-05-19T14:09:25Z</time>
      </trkpt>
      <trkpt lat="42.1186470" lon="-8.8472570">
        <ele>5.7</ele>
        <time>2021-05-19T14:09:26Z</time>
      </trkpt>
      <trkpt lat="42.1186310" lon="-8.8472520">
        <ele>5.7</ele>
        <time>2021-05-19T14:09:27Z</time>
      </trkpt>
      <trkpt lat="42.1186280" lon="-8.8472430">
        <ele>5.7</ele>
        <time>2021-05-19T14:09:28Z</time>
      </trkpt>
      <trkpt lat="42.1186230" lon="-8.8472400">
        <ele>5.7</ele>
        <time>2021-05-19T14:09:29Z</time>
      </trkpt>
      <trkpt lat="42.1186130" lon="-8.8472280">
        <ele>5.7</ele>
        <time>2021-05-19T14:09:30Z</time>
      </trkpt>
      <trkpt lat="42.1186010" lon="-8.8472200">
        <ele>5.7</ele>
        <time>2021-05-19T14:09:31Z</time>
      </trkpt>
      <trkpt lat="42.1185950" lon="-8.8472150">
        <ele>5.7</ele>
        <time>2021-05-19T14:09:32Z</time>
      </trkpt>
      <trkpt lat="42.1185780" lon="-8.8471890">
        <ele>5.7</ele>
        <time>2021-05-19T14:09:33Z</time>
      </trkpt>
      <trkpt lat="42.1185750" lon="-8.8471820">
        <ele>5.7</ele>
        <time>2021-05-19T14:09:34Z</time>
      </trkpt>
      <trkpt lat="42.1185720" lon="-8.8471740">
        <ele>5.8</ele>
        <time>2021-05-19T14:09:35Z</time>
      </trkpt>
      <trkpt lat="42.1185690" lon="-8.8471630">
        <ele>5.8</ele>
        <time>2021-05-19T14:09:36Z</time>
      </trkpt>
      <trkpt lat="42.1185550" lon="-8.8471470">
        <ele>5.8</ele>
        <time>2021-05-19T14:09:37Z</time>
      </trkpt>
      <trkpt lat="42.1185490" lon="-8.8471420">
        <ele>5.8</ele>
        <time>2021-05-19T14:09:38Z</time>
      </trkpt>
      <trkpt lat="42.1185400" lon="-8.8471310">
        <ele>5.8</ele>
        <time>2021-05-19T14:09:39Z</time>
      </trkpt>
      <trkpt lat="42.1185360" lon="-8.8471180">
        <ele>5.8</ele>
        <time>2021-05-19T14:09:40Z</time>
      </trkpt>
      <trkpt lat="42.1185250" lon="-8.8471150">
        <ele>5.8</ele>
        <time>2021-05-19T14:09:41Z</time>
      </trkpt>
      <trkpt lat="42.1185300" lon="-8.8471080">
        <ele>5.8</ele>
        <time>2021-05-19T14:09:42Z</time>
      </trkpt>
      <trkpt lat="42.1185210" lon="-8.8470960">
        <ele>5.8</ele>
        <time>2021-05-19T14:09:43Z</time>
      </trkpt>
      <trkpt lat="42.1185070" lon="-8.8470920">
        <ele>5.8</ele>
        <time>2021-05-19T14:09:44Z</time>
      </trkpt>
      <trkpt lat="42.1185090" lon="-8.8470880">
        <ele>5.8</ele>
        <time>2021-05-19T14:09:45Z</time>
      </trkpt>
      <trkpt lat="42.1185120" lon="-8.8470910">
        <ele>5.8</ele>
        <time>2021-05-19T14:09:46Z</time>
      </trkpt>
      <trkpt lat="42.1185130" lon="-8.8470830">
        <ele>5.8</ele>
        <time>2021-05-19T14:09:47Z</time>
      </trkpt>
      <trkpt lat="42.1185160" lon="-8.8470770">
        <ele>5.8</ele>
        <time>2021-05-19T14:09:48Z</time>
      </trkpt>
      <trkpt lat="42.1185200" lon="-8.8470780">
        <ele>5.8</ele>
        <time>2021-05-19T14:09:49Z</time>
      </trkpt>
      <trkpt lat="42.1185170" lon="-8.8470770">
        <ele>5.8</ele>
        <time>2021-05-19T14:09:50Z</time>
      </trkpt>
      <trkpt lat="42.1185180" lon="-8.8470760">
        <ele>5.8</ele>
        <time>2021-05-19T14:09:51Z</time>
      </trkpt>
      <trkpt lat="42.1185170" lon="-8.8470700">
        <ele>5.8</ele>
        <time>2021-05-19T14:09:52Z</time>
      </trkpt>
      <trkpt lat="42.1185200" lon="-8.8470680">
        <ele>5.8</ele>
        <time>2021-05-19T14:09:53Z</time>
      </trkpt>
      <trkpt lat="42.1185200" lon="-8.8470680">
        <ele>5.8</ele>
        <time>2021-05-19T14:09:54Z</time>
      </trkpt>
      <trkpt lat="42.1185230" lon="-8.8470550">
        <ele>5.8</ele>
        <time>2021-05-19T14:09:55Z</time>
      </trkpt>
      <trkpt lat="42.1185220" lon="-8.8470530">
        <ele>5.8</ele>
        <time>2021-05-19T14:09:56Z</time>
      </trkpt>
      <trkpt lat="42.1185220" lon="-8.8470520">
        <ele>5.8</ele>
        <time>2021-05-19T14:09:57Z</time>
      </trkpt>
      <trkpt lat="42.1185180" lon="-8.8470500">
        <ele>5.8</ele>
        <time>2021-05-19T14:09:58Z</time>
      </trkpt>
      <trkpt lat="42.1185140" lon="-8.8470450">
        <ele>5.8</ele>
        <time>2021-05-19T14:09:59Z</time>
      </trkpt>
      <trkpt lat="42.1185210" lon="-8.8470370">
        <ele>5.8</ele>
        <time>2021-05-19T14:10:00Z</time>
      </trkpt>
      <trkpt lat="42.1185160" lon="-8.8470310">
        <ele>5.8</ele>
        <time>2021-05-19T14:10:01Z</time>
      </trkpt>
      <trkpt lat="42.1185110" lon="-8.8470290">
        <ele>5.8</ele>
        <time>2021-05-19T14:10:02Z</time>
      </trkpt>
      <trkpt lat="42.1185020" lon="-8.8470230">
        <ele>5.8</ele>
        <time>2021-05-19T14:10:03Z</time>
      </trkpt>
      <trkpt lat="42.1184990" lon="-8.8470240">
        <ele>5.8</ele>
        <time>2021-05-19T14:10:04Z</time>
      </trkpt>
      <trkpt lat="42.1185040" lon="-8.8470180">
        <ele>5.8</ele>
        <time>2021-05-19T14:10:05Z</time>
      </trkpt>
      <trkpt lat="42.1185030" lon="-8.8470060">
        <ele>5.8</ele>
        <time>2021-05-19T14:10:06Z</time>
      </trkpt>
      <trkpt lat="42.1185030" lon="-8.8470060">
        <ele>5.8</ele>
        <time>2021-05-19T14:10:07Z</time>
      </trkpt>
      <trkpt lat="42.1185120" lon="-8.8470000">
        <ele>5.8</ele>
        <time>2021-05-19T14:10:08Z</time>
      </trkpt>
      <trkpt lat="42.1185120" lon="-8.8469880">
        <ele>5.8</ele>
        <time>2021-05-19T14:10:09Z</time>
      </trkpt>
      <trkpt lat="42.1185070" lon="-8.8469810">
        <ele>5.8</ele>
        <time>2021-05-19T14:10:10Z</time>
      </trkpt>
      <trkpt lat="42.1184970" lon="-8.8469750">
        <ele>5.8</ele>
        <time>2021-05-19T14:10:11Z</time>
      </trkpt>
      <trkpt lat="42.1184830" lon="-8.8469750">
        <ele>5.8</ele>
        <time>2021-05-19T14:10:12Z</time>
      </trkpt>
      <trkpt lat="42.1184780" lon="-8.8469660">
        <ele>5.8</ele>
        <time>2021-05-19T14:10:13Z</time>
      </trkpt>
      <trkpt lat="42.1184660" lon="-8.8469560">
        <ele>5.8</ele>
        <time>2021-05-19T14:10:14Z</time>
      </trkpt>
      <trkpt lat="42.1184550" lon="-8.8469470">
        <ele>5.8</ele>
        <time>2021-05-19T14:10:15Z</time>
      </trkpt>
      <trkpt lat="42.1184470" lon="-8.8469420">
        <ele>5.8</ele>
        <time>2021-05-19T14:10:16Z</time>
      </trkpt>
      <trkpt lat="42.1184440" lon="-8.8469300">
        <ele>5.8</ele>
        <time>2021-05-19T14:10:17Z</time>
      </trkpt>
      <trkpt lat="42.1184410" lon="-8.8469250">
        <ele>5.8</ele>
        <time>2021-05-19T14:10:18Z</time>
      </trkpt>
      <trkpt lat="42.1184320" lon="-8.8469200">
        <ele>5.8</ele>
        <time>2021-05-19T14:10:19Z</time>
      </trkpt>
      <trkpt lat="42.1184210" lon="-8.8469130">
        <ele>5.8</ele>
        <time>2021-05-19T14:10:20Z</time>
      </trkpt>
      <trkpt lat="42.1184070" lon="-8.8469060">
        <ele>5.8</ele>
        <time>2021-05-19T14:10:21Z</time>
      </trkpt>
      <trkpt lat="42.1184100" lon="-8.8469040">
        <ele>5.8</ele>
        <time>2021-05-19T14:10:22Z</time>
      </trkpt>
      <trkpt lat="42.1184040" lon="-8.8468990">
        <ele>5.8</ele>
        <time>2021-05-19T14:10:23Z</time>
      </trkpt>
      <trkpt lat="42.1183860" lon="-8.8468900">
        <ele>5.8</ele>
        <time>2021-05-19T14:10:24Z</time>
      </trkpt>
      <trkpt lat="42.1183810" lon="-8.8468860">
        <ele>5.8</ele>
        <time>2021-05-19T14:10:25Z</time>
      </trkpt>
      <trkpt lat="42.1183760" lon="-8.8468810">
        <ele>5.8</ele>
        <time>2021-05-19T14:10:26Z</time>
      </trkpt>
      <trkpt lat="42.1183710" lon="-8.8468770">
        <ele>5.8</ele>
        <time>2021-05-19T14:10:27Z</time>
      </trkpt>
      <trkpt lat="42.1183650" lon="-8.8468640">
        <ele>5.8</ele>
        <time>2021-05-19T14:10:28Z</time>
      </trkpt>
      <trkpt lat="42.1183610" lon="-8.8468530">
        <ele>5.8</ele>
        <time>2021-05-19T14:10:29Z</time>
      </trkpt>
      <trkpt lat="42.1183550" lon="-8.8468380">
        <ele>5.8</ele>
        <time>2021-05-19T14:10:30Z</time>
      </trkpt>
      <trkpt lat="42.1183520" lon="-8.8468430">
        <ele>5.8</ele>
        <time>2021-05-19T14:10:31Z</time>
      </trkpt>
      <trkpt lat="42.1183450" lon="-8.8468360">
        <ele>5.8</ele>
        <time>2021-05-19T14:10:32Z</time>
      </trkpt>
      <trkpt lat="42.1183280" lon="-8.8468210">
        <ele>5.8</ele>
        <time>2021-05-19T14:10:33Z</time>
      </trkpt>
      <trkpt lat="42.1183260" lon="-8.8468100">
        <ele>5.8</ele>
        <time>2021-05-19T14:10:34Z</time>
      </trkpt>
      <trkpt lat="42.1183260" lon="-8.8467970">
        <ele>5.8</ele>
        <time>2021-05-19T14:10:35Z</time>
      </trkpt>
      <trkpt lat="42.1183180" lon="-8.8467870">
        <ele>5.8</ele>
        <time>2021-05-19T14:10:36Z</time>
      </trkpt>
      <trkpt lat="42.1183150" lon="-8.8467720">
        <ele>5.8</ele>
        <time>2021-05-19T14:10:37Z</time>
      </trkpt>
      <trkpt lat="42.1183090" lon="-8.8467500">
        <ele>5.8</ele>
        <time>2021-05-19T14:10:38Z</time>
      </trkpt>
      <trkpt lat="42.1183000" lon="-8.8467330">
        <ele>5.8</ele>
        <time>2021-05-19T14:10:39Z</time>
      </trkpt>
      <trkpt lat="42.1182930" lon="-8.8467260">
        <ele>5.8</ele>
        <time>2021-05-19T14:10:40Z</time>
      </trkpt>
      <trkpt lat="42.1182920" lon="-8.8467110">
        <ele>5.8</ele>
        <time>2021-05-19T14:10:41Z</time>
      </trkpt>
      <trkpt lat="42.1182830" lon="-8.8466820">
        <ele>5.8</ele>
        <time>2021-05-19T14:10:42Z</time>
      </trkpt>
      <trkpt lat="42.1182780" lon="-8.8466720">
        <ele>5.8</ele>
        <time>2021-05-19T14:10:43Z</time>
      </trkpt>
      <trkpt lat="42.1182740" lon="-8.8466620">
        <ele>5.8</ele>
        <time>2021-05-19T14:10:44Z</time>
      </trkpt>
      <trkpt lat="42.1182670" lon="-8.8466500">
        <ele>5.8</ele>
        <time>2021-05-19T14:10:45Z</time>
      </trkpt>
      <trkpt lat="42.1182650" lon="-8.8466390">
        <ele>5.8</ele>
        <time>2021-05-19T14:10:46Z</time>
      </trkpt>
      <trkpt lat="42.1182600" lon="-8.8466290">
        <ele>5.8</ele>
        <time>2021-05-19T14:10:47Z</time>
      </trkpt>
      <trkpt lat="42.1182550" lon="-8.8466170">
        <ele>5.8</ele>
        <time>2021-05-19T14:10:48Z</time>
      </trkpt>
      <trkpt lat="42.1182570" lon="-8.8466070">
        <ele>5.8</ele>
        <time>2021-05-19T14:10:49Z</time>
      </trkpt>
      <trkpt lat="42.1182480" lon="-8.8466000">
        <ele>5.8</ele>
        <time>2021-05-19T14:10:50Z</time>
      </trkpt>
      <trkpt lat="42.1182420" lon="-8.8465870">
        <ele>5.8</ele>
        <time>2021-05-19T14:10:51Z</time>
      </trkpt>
      <trkpt lat="42.1182370" lon="-8.8465760">
        <ele>5.8</ele>
        <time>2021-05-19T14:10:52Z</time>
      </trkpt>
      <trkpt lat="42.1182290" lon="-8.8465660">
        <ele>5.8</ele>
        <time>2021-05-19T14:10:53Z</time>
      </trkpt>
      <trkpt lat="42.1182180" lon="-8.8465590">
        <ele>5.8</ele>
        <time>2021-05-19T14:10:54Z</time>
      </trkpt>
      <trkpt lat="42.1182100" lon="-8.8465360">
        <ele>5.8</ele>
        <time>2021-05-19T14:10:55Z</time>
      </trkpt>
      <trkpt lat="42.1182050" lon="-8.8465250">
        <ele>5.8</ele>
        <time>2021-05-19T14:10:56Z</time>
      </trkpt>
      <trkpt lat="42.1182000" lon="-8.8465130">
        <ele>5.8</ele>
        <time>2021-05-19T14:10:57Z</time>
      </trkpt>
      <trkpt lat="42.1181990" lon="-8.8465040">
        <ele>5.8</ele>
        <time>2021-05-19T14:10:58Z</time>
      </trkpt>
      <trkpt lat="42.1181900" lon="-8.8464970">
        <ele>5.8</ele>
        <time>2021-05-19T14:10:59Z</time>
      </trkpt>
      <trkpt lat="42.1181800" lon="-8.8464850">
        <ele>5.8</ele>
        <time>2021-05-19T14:11:00Z</time>
      </trkpt>
      <trkpt lat="42.1181630" lon="-8.8464630">
        <ele>5.8</ele>
        <time>2021-05-19T14:11:01Z</time>
      </trkpt>
      <trkpt lat="42.1181610" lon="-8.8464510">
        <ele>5.8</ele>
        <time>2021-05-19T14:11:02Z</time>
      </trkpt>
      <trkpt lat="42.1181460" lon="-8.8464080">
        <ele>5.8</ele>
        <time>2021-05-19T14:11:03Z</time>
      </trkpt>
      <trkpt lat="42.1181460" lon="-8.8463940">
        <ele>5.8</ele>
        <time>2021-05-19T14:11:04Z</time>
      </trkpt>
      <trkpt lat="42.1181410" lon="-8.8463730">
        <ele>5.8</ele>
        <time>2021-05-19T14:11:05Z</time>
      </trkpt>
      <trkpt lat="42.1181320" lon="-8.8463600">
        <ele>5.8</ele>
        <time>2021-05-19T14:11:06Z</time>
      </trkpt>
      <trkpt lat="42.1181140" lon="-8.8463440">
        <ele>5.8</ele>
        <time>2021-05-19T14:11:07Z</time>
      </trkpt>
      <trkpt lat="42.1181090" lon="-8.8463350">
        <ele>5.8</ele>
        <time>2021-05-19T14:11:08Z</time>
      </trkpt>
      <trkpt lat="42.1181070" lon="-8.8463030">
        <ele>5.8</ele>
        <time>2021-05-19T14:11:09Z</time>
      </trkpt>
      <trkpt lat="42.1181040" lon="-8.8462910">
        <ele>5.8</ele>
        <time>2021-05-19T14:11:10Z</time>
      </trkpt>
      <trkpt lat="42.1181020" lon="-8.8462780">
        <ele>5.7</ele>
        <time>2021-05-19T14:11:11Z</time>
      </trkpt>
      <trkpt lat="42.1180840" lon="-8.8462490">
        <ele>5.7</ele>
        <time>2021-05-19T14:11:12Z</time>
      </trkpt>
      <trkpt lat="42.1180760" lon="-8.8462400">
        <ele>5.7</ele>
        <time>2021-05-19T14:11:13Z</time>
      </trkpt>
      <trkpt lat="42.1180680" lon="-8.8462300">
        <ele>5.7</ele>
        <time>2021-05-19T14:11:14Z</time>
      </trkpt>
      <trkpt lat="42.1180700" lon="-8.8462160">
        <ele>5.7</ele>
        <time>2021-05-19T14:11:15Z</time>
      </trkpt>
      <trkpt lat="42.1180740" lon="-8.8462130">
        <ele>5.7</ele>
        <time>2021-05-19T14:11:16Z</time>
      </trkpt>
      <trkpt lat="42.1180670" lon="-8.8462030">
        <ele>5.7</ele>
        <time>2021-05-19T14:11:17Z</time>
      </trkpt>
      <trkpt lat="42.1180600" lon="-8.8461940">
        <ele>5.7</ele>
        <time>2021-05-19T14:11:18Z</time>
      </trkpt>
      <trkpt lat="42.1180570" lon="-8.8461770">
        <ele>5.7</ele>
        <time>2021-05-19T14:11:19Z</time>
      </trkpt>
      <trkpt lat="42.1180600" lon="-8.8461690">
        <ele>5.7</ele>
        <time>2021-05-19T14:11:20Z</time>
      </trkpt>
      <trkpt lat="42.1180510" lon="-8.8461520">
        <ele>5.7</ele>
        <time>2021-05-19T14:11:21Z</time>
      </trkpt>
      <trkpt lat="42.1180390" lon="-8.8461370">
        <ele>5.7</ele>
        <time>2021-05-19T14:11:22Z</time>
      </trkpt>
      <trkpt lat="42.1180360" lon="-8.8461280">
        <ele>5.7</ele>
        <time>2021-05-19T14:11:23Z</time>
      </trkpt>
      <trkpt lat="42.1180330" lon="-8.8461180">
        <ele>5.7</ele>
        <time>2021-05-19T14:11:24Z</time>
      </trkpt>
      <trkpt lat="42.1180300" lon="-8.8461090">
        <ele>5.7</ele>
        <time>2021-05-19T14:11:25Z</time>
      </trkpt>
      <trkpt lat="42.1180200" lon="-8.8460890">
        <ele>5.7</ele>
        <time>2021-05-19T14:11:26Z</time>
      </trkpt>
      <trkpt lat="42.1180150" lon="-8.8460780">
        <ele>5.7</ele>
        <time>2021-05-19T14:11:27Z</time>
      </trkpt>
      <trkpt lat="42.1180100" lon="-8.8460670">
        <ele>5.8</ele>
        <time>2021-05-19T14:11:28Z</time>
      </trkpt>
      <trkpt lat="42.1180110" lon="-8.8460600">
        <ele>5.8</ele>
        <time>2021-05-19T14:11:29Z</time>
      </trkpt>
      <trkpt lat="42.1180040" lon="-8.8460530">
        <ele>5.8</ele>
        <time>2021-05-19T14:11:30Z</time>
      </trkpt>
      <trkpt lat="42.1179920" lon="-8.8460450">
        <ele>5.8</ele>
        <time>2021-05-19T14:11:31Z</time>
      </trkpt>
      <trkpt lat="42.1179860" lon="-8.8460420">
        <ele>5.8</ele>
        <time>2021-05-19T14:11:32Z</time>
      </trkpt>
      <trkpt lat="42.1179820" lon="-8.8460320">
        <ele>5.8</ele>
        <time>2021-05-19T14:11:33Z</time>
      </trkpt>
      <trkpt lat="42.1179680" lon="-8.8460210">
        <ele>5.8</ele>
        <time>2021-05-19T14:11:34Z</time>
      </trkpt>
      <trkpt lat="42.1179600" lon="-8.8460110">
        <ele>5.8</ele>
        <time>2021-05-19T14:11:35Z</time>
      </trkpt>
      <trkpt lat="42.1179480" lon="-8.8460050">
        <ele>5.8</ele>
        <time>2021-05-19T14:11:36Z</time>
      </trkpt>
      <trkpt lat="42.1179450" lon="-8.8459990">
        <ele>5.8</ele>
        <time>2021-05-19T14:11:37Z</time>
      </trkpt>
      <trkpt lat="42.1179400" lon="-8.8459860">
        <ele>5.8</ele>
        <time>2021-05-19T14:11:38Z</time>
      </trkpt>
      <trkpt lat="42.1179350" lon="-8.8459760">
        <ele>5.8</ele>
        <time>2021-05-19T14:11:39Z</time>
      </trkpt>
      <trkpt lat="42.1179270" lon="-8.8459530">
        <ele>5.8</ele>
        <time>2021-05-19T14:11:40Z</time>
      </trkpt>
      <trkpt lat="42.1179130" lon="-8.8459260">
        <ele>5.8</ele>
        <time>2021-05-19T14:11:41Z</time>
      </trkpt>
      <trkpt lat="42.1179100" lon="-8.8459160">
        <ele>5.8</ele>
        <time>2021-05-19T14:11:42Z</time>
      </trkpt>
      <trkpt lat="42.1179070" lon="-8.8459060">
        <ele>5.8</ele>
        <time>2021-05-19T14:11:43Z</time>
      </trkpt>
      <trkpt lat="42.1178910" lon="-8.8458780">
        <ele>5.8</ele>
        <time>2021-05-19T14:11:44Z</time>
      </trkpt>
      <trkpt lat="42.1178850" lon="-8.8458680">
        <ele>5.8</ele>
        <time>2021-05-19T14:11:45Z</time>
      </trkpt>
      <trkpt lat="42.1178820" lon="-8.8458570">
        <ele>5.8</ele>
        <time>2021-05-19T14:11:46Z</time>
      </trkpt>
      <trkpt lat="42.1178750" lon="-8.8458380">
        <ele>5.8</ele>
        <time>2021-05-19T14:11:47Z</time>
      </trkpt>
      <trkpt lat="42.1178760" lon="-8.8458260">
        <ele>5.8</ele>
        <time>2021-05-19T14:11:48Z</time>
      </trkpt>
      <trkpt lat="42.1178690" lon="-8.8458100">
        <ele>5.8</ele>
        <time>2021-05-19T14:11:49Z</time>
      </trkpt>
      <trkpt lat="42.1178690" lon="-8.8457900">
        <ele>5.8</ele>
        <time>2021-05-19T14:11:50Z</time>
      </trkpt>
      <trkpt lat="42.1178570" lon="-8.8457540">
        <ele>5.8</ele>
        <time>2021-05-19T14:11:51Z</time>
      </trkpt>
      <trkpt lat="42.1178530" lon="-8.8457420">
        <ele>5.8</ele>
        <time>2021-05-19T14:11:52Z</time>
      </trkpt>
      <trkpt lat="42.1178430" lon="-8.8457310">
        <ele>5.8</ele>
        <time>2021-05-19T14:11:53Z</time>
      </trkpt>
      <trkpt lat="42.1178480" lon="-8.8457250">
        <ele>5.8</ele>
        <time>2021-05-19T14:11:54Z</time>
      </trkpt>
      <trkpt lat="42.1178380" lon="-8.8457060">
        <ele>5.8</ele>
        <time>2021-05-19T14:11:55Z</time>
      </trkpt>
      <trkpt lat="42.1178350" lon="-8.8456900">
        <ele>5.8</ele>
        <time>2021-05-19T14:11:56Z</time>
      </trkpt>
      <trkpt lat="42.1178310" lon="-8.8456700">
        <ele>5.8</ele>
        <time>2021-05-19T14:11:57Z</time>
      </trkpt>
      <trkpt lat="42.1178230" lon="-8.8456590">
        <ele>5.8</ele>
        <time>2021-05-19T14:11:58Z</time>
      </trkpt>
      <trkpt lat="42.1178190" lon="-8.8456410">
        <ele>5.8</ele>
        <time>2021-05-19T14:11:59Z</time>
      </trkpt>
      <trkpt lat="42.1178190" lon="-8.8456250">
        <ele>5.8</ele>
        <time>2021-05-19T14:12:00Z</time>
      </trkpt>
      <trkpt lat="42.1178070" lon="-8.8456040">
        <ele>5.8</ele>
        <time>2021-05-19T14:12:01Z</time>
      </trkpt>
      <trkpt lat="42.1178010" lon="-8.8455890">
        <ele>5.8</ele>
        <time>2021-05-19T14:12:02Z</time>
      </trkpt>
      <trkpt lat="42.1177920" lon="-8.8455670">
        <ele>5.8</ele>
        <time>2021-05-19T14:12:03Z</time>
      </trkpt>
      <trkpt lat="42.1177860" lon="-8.8455530">
        <ele>5.8</ele>
        <time>2021-05-19T14:12:04Z</time>
      </trkpt>
      <trkpt lat="42.1177810" lon="-8.8455390">
        <ele>5.8</ele>
        <time>2021-05-19T14:12:05Z</time>
      </trkpt>
      <trkpt lat="42.1177710" lon="-8.8455290">
        <ele>5.8</ele>
        <time>2021-05-19T14:12:06Z</time>
      </trkpt>
      <trkpt lat="42.1177690" lon="-8.8455230">
        <ele>5.8</ele>
        <time>2021-05-19T14:12:07Z</time>
      </trkpt>
      <trkpt lat="42.1177570" lon="-8.8455180">
        <ele>5.8</ele>
        <time>2021-05-19T14:12:08Z</time>
      </trkpt>
      <trkpt lat="42.1177480" lon="-8.8455090">
        <ele>5.8</ele>
        <time>2021-05-19T14:12:09Z</time>
      </trkpt>
      <trkpt lat="42.1177370" lon="-8.8454920">
        <ele>5.8</ele>
        <time>2021-05-19T14:12:10Z</time>
      </trkpt>
      <trkpt lat="42.1177310" lon="-8.8454800">
        <ele>5.9</ele>
        <time>2021-05-19T14:12:11Z</time>
      </trkpt>
      <trkpt lat="42.1177270" lon="-8.8454700">
        <ele>5.9</ele>
        <time>2021-05-19T14:12:12Z</time>
      </trkpt>
      <trkpt lat="42.1177210" lon="-8.8454660">
        <ele>5.9</ele>
        <time>2021-05-19T14:12:13Z</time>
      </trkpt>
      <trkpt lat="42.1177200" lon="-8.8454540">
        <ele>5.9</ele>
        <time>2021-05-19T14:12:14Z</time>
      </trkpt>
      <trkpt lat="42.1176990" lon="-8.8454260">
        <ele>5.9</ele>
        <time>2021-05-19T14:12:15Z</time>
      </trkpt>
      <trkpt lat="42.1176960" lon="-8.8454130">
        <ele>5.9</ele>
        <time>2021-05-19T14:12:16Z</time>
      </trkpt>
      <trkpt lat="42.1176940" lon="-8.8453950">
        <ele>5.9</ele>
        <time>2021-05-19T14:12:17Z</time>
      </trkpt>
      <trkpt lat="42.1176910" lon="-8.8453810">
        <ele>5.9</ele>
        <time>2021-05-19T14:12:18Z</time>
      </trkpt>
      <trkpt lat="42.1176780" lon="-8.8453690">
        <ele>5.9</ele>
        <time>2021-05-19T14:12:19Z</time>
      </trkpt>
      <trkpt lat="42.1176800" lon="-8.8453510">
        <ele>5.9</ele>
        <time>2021-05-19T14:12:20Z</time>
      </trkpt>
      <trkpt lat="42.1176750" lon="-8.8453390">
        <ele>5.9</ele>
        <time>2021-05-19T14:12:21Z</time>
      </trkpt>
      <trkpt lat="42.1176700" lon="-8.8453250">
        <ele>5.9</ele>
        <time>2021-05-19T14:12:22Z</time>
      </trkpt>
      <trkpt lat="42.1176650" lon="-8.8453140">
        <ele>5.9</ele>
        <time>2021-05-19T14:12:23Z</time>
      </trkpt>
      <trkpt lat="42.1176580" lon="-8.8452990">
        <ele>5.9</ele>
        <time>2021-05-19T14:12:24Z</time>
      </trkpt>
      <trkpt lat="42.1176490" lon="-8.8452930">
        <ele>5.9</ele>
        <time>2021-05-19T14:12:25Z</time>
      </trkpt>
      <trkpt lat="42.1176490" lon="-8.8452910">
        <ele>5.9</ele>
        <time>2021-05-19T14:12:26Z</time>
      </trkpt>
      <trkpt lat="42.1176480" lon="-8.8452890">
        <ele>5.9</ele>
        <time>2021-05-19T14:12:27Z</time>
      </trkpt>
      <trkpt lat="42.1176390" lon="-8.8452580">
        <ele>5.9</ele>
        <time>2021-05-19T14:12:28Z</time>
      </trkpt>
      <trkpt lat="42.1176280" lon="-8.8452500">
        <ele>5.9</ele>
        <time>2021-05-19T14:12:29Z</time>
      </trkpt>
      <trkpt lat="42.1176190" lon="-8.8452400">
        <ele>5.9</ele>
        <time>2021-05-19T14:12:30Z</time>
      </trkpt>
      <trkpt lat="42.1176090" lon="-8.8452290">
        <ele>5.9</ele>
        <time>2021-05-19T14:12:31Z</time>
      </trkpt>
      <trkpt lat="42.1175990" lon="-8.8452190">
        <ele>5.9</ele>
        <time>2021-05-19T14:12:32Z</time>
      </trkpt>
      <trkpt lat="42.1176030" lon="-8.8452050">
        <ele>5.9</ele>
        <time>2021-05-19T14:12:33Z</time>
      </trkpt>
      <trkpt lat="42.1175840" lon="-8.8451950">
        <ele>5.9</ele>
        <time>2021-05-19T14:12:34Z</time>
      </trkpt>
      <trkpt lat="42.1175800" lon="-8.8451890">
        <ele>5.9</ele>
        <time>2021-05-19T14:12:35Z</time>
      </trkpt>
      <trkpt lat="42.1175730" lon="-8.8451600">
        <ele>5.9</ele>
        <time>2021-05-19T14:12:36Z</time>
      </trkpt>
      <trkpt lat="42.1175670" lon="-8.8451490">
        <ele>5.9</ele>
        <time>2021-05-19T14:12:37Z</time>
      </trkpt>
      <trkpt lat="42.1175610" lon="-8.8451390">
        <ele>5.9</ele>
        <time>2021-05-19T14:12:38Z</time>
      </trkpt>
      <trkpt lat="42.1175440" lon="-8.8451460">
        <ele>5.9</ele>
        <time>2021-05-19T14:12:39Z</time>
      </trkpt>
      <trkpt lat="42.1175480" lon="-8.8451340">
        <ele>5.9</ele>
        <time>2021-05-19T14:12:40Z</time>
      </trkpt>
      <trkpt lat="42.1175470" lon="-8.8451210">
        <ele>5.9</ele>
        <time>2021-05-19T14:12:41Z</time>
      </trkpt>
      <trkpt lat="42.1175480" lon="-8.8451090">
        <ele>5.9</ele>
        <time>2021-05-19T14:12:42Z</time>
      </trkpt>
      <trkpt lat="42.1175460" lon="-8.8450990">
        <ele>5.9</ele>
        <time>2021-05-19T14:12:43Z</time>
      </trkpt>
      <trkpt lat="42.1175420" lon="-8.8450910">
        <ele>5.9</ele>
        <time>2021-05-19T14:12:44Z</time>
      </trkpt>
      <trkpt lat="42.1175380" lon="-8.8450780">
        <ele>5.9</ele>
        <time>2021-05-19T14:12:45Z</time>
      </trkpt>
      <trkpt lat="42.1175360" lon="-8.8450660">
        <ele>5.9</ele>
        <time>2021-05-19T14:12:46Z</time>
      </trkpt>
      <trkpt lat="42.1175350" lon="-8.8450530">
        <ele>5.9</ele>
        <time>2021-05-19T14:12:47Z</time>
      </trkpt>
      <trkpt lat="42.1175200" lon="-8.8450290">
        <ele>5.9</ele>
        <time>2021-05-19T14:12:48Z</time>
      </trkpt>
      <trkpt lat="42.1175190" lon="-8.8450140">
        <ele>5.9</ele>
        <time>2021-05-19T14:12:49Z</time>
      </trkpt>
      <trkpt lat="42.1175190" lon="-8.8449980">
        <ele>5.9</ele>
        <time>2021-05-19T14:12:50Z</time>
      </trkpt>
      <trkpt lat="42.1174990" lon="-8.8449850">
        <ele>5.9</ele>
        <time>2021-05-19T14:12:51Z</time>
      </trkpt>
      <trkpt lat="42.1174990" lon="-8.8449710">
        <ele>5.9</ele>
        <time>2021-05-19T14:12:52Z</time>
      </trkpt>
      <trkpt lat="42.1174920" lon="-8.8449550">
        <ele>5.9</ele>
        <time>2021-05-19T14:12:53Z</time>
      </trkpt>
      <trkpt lat="42.1174930" lon="-8.8449340">
        <ele>5.9</ele>
        <time>2021-05-19T14:12:54Z</time>
      </trkpt>
      <trkpt lat="42.1174840" lon="-8.8449200">
        <ele>5.9</ele>
        <time>2021-05-19T14:12:55Z</time>
      </trkpt>
      <trkpt lat="42.1174920" lon="-8.8449170">
        <ele>5.9</ele>
        <time>2021-05-19T14:12:56Z</time>
      </trkpt>
      <trkpt lat="42.1174910" lon="-8.8449090">
        <ele>5.9</ele>
        <time>2021-05-19T14:12:57Z</time>
      </trkpt>
      <trkpt lat="42.1174890" lon="-8.8448940">
        <ele>5.9</ele>
        <time>2021-05-19T14:12:58Z</time>
      </trkpt>
      <trkpt lat="42.1174870" lon="-8.8448840">
        <ele>5.9</ele>
        <time>2021-05-19T14:12:59Z</time>
      </trkpt>
      <trkpt lat="42.1174670" lon="-8.8448720">
        <ele>5.9</ele>
        <time>2021-05-19T14:13:00Z</time>
      </trkpt>
      <trkpt lat="42.1174690" lon="-8.8448560">
        <ele>5.9</ele>
        <time>2021-05-19T14:13:01Z</time>
      </trkpt>
      <trkpt lat="42.1174620" lon="-8.8448360">
        <ele>5.9</ele>
        <time>2021-05-19T14:13:02Z</time>
      </trkpt>
      <trkpt lat="42.1174540" lon="-8.8448240">
        <ele>5.9</ele>
        <time>2021-05-19T14:13:03Z</time>
      </trkpt>
      <trkpt lat="42.1174460" lon="-8.8448080">
        <ele>5.9</ele>
        <time>2021-05-19T14:13:04Z</time>
      </trkpt>
      <trkpt lat="42.1174400" lon="-8.8447980">
        <ele>5.9</ele>
        <time>2021-05-19T14:13:05Z</time>
      </trkpt>
      <trkpt lat="42.1174190" lon="-8.8447820">
        <ele>5.9</ele>
        <time>2021-05-19T14:13:06Z</time>
      </trkpt>
      <trkpt lat="42.1174120" lon="-8.8447750">
        <ele>5.9</ele>
        <time>2021-05-19T14:13:07Z</time>
      </trkpt>
      <trkpt lat="42.1174000" lon="-8.8447490">
        <ele>5.9</ele>
        <time>2021-05-19T14:13:08Z</time>
      </trkpt>
      <trkpt lat="42.1173980" lon="-8.8447380">
        <ele>5.9</ele>
        <time>2021-05-19T14:13:09Z</time>
      </trkpt>
      <trkpt lat="42.1173970" lon="-8.8447270">
        <ele>5.9</ele>
        <time>2021-05-19T14:13:10Z</time>
      </trkpt>
      <trkpt lat="42.1173950" lon="-8.8447160">
        <ele>5.9</ele>
        <time>2021-05-19T14:13:11Z</time>
      </trkpt>
      <trkpt lat="42.1173860" lon="-8.8447050">
        <ele>5.9</ele>
        <time>2021-05-19T14:13:12Z</time>
      </trkpt>
      <trkpt lat="42.1173870" lon="-8.8446890">
        <ele>5.9</ele>
        <time>2021-05-19T14:13:13Z</time>
      </trkpt>
      <trkpt lat="42.1173780" lon="-8.8446740">
        <ele>5.9</ele>
        <time>2021-05-19T14:13:14Z</time>
      </trkpt>
      <trkpt lat="42.1173720" lon="-8.8446580">
        <ele>5.9</ele>
        <time>2021-05-19T14:13:15Z</time>
      </trkpt>
      <trkpt lat="42.1173680" lon="-8.8446490">
        <ele>5.9</ele>
        <time>2021-05-19T14:13:16Z</time>
      </trkpt>
      <trkpt lat="42.1173580" lon="-8.8446370">
        <ele>5.9</ele>
        <time>2021-05-19T14:13:17Z</time>
      </trkpt>
      <trkpt lat="42.1173570" lon="-8.8446190">
        <ele>5.9</ele>
        <time>2021-05-19T14:13:18Z</time>
      </trkpt>
      <trkpt lat="42.1173550" lon="-8.8446140">
        <ele>5.9</ele>
        <time>2021-05-19T14:13:19Z</time>
      </trkpt>
      <trkpt lat="42.1173440" lon="-8.8446080">
        <ele>5.9</ele>
        <time>2021-05-19T14:13:20Z</time>
      </trkpt>
      <trkpt lat="42.1173330" lon="-8.8445890">
        <ele>5.9</ele>
        <time>2021-05-19T14:13:21Z</time>
      </trkpt>
      <trkpt lat="42.1173150" lon="-8.8445860">
        <ele>5.9</ele>
        <time>2021-05-19T14:13:22Z</time>
      </trkpt>
      <trkpt lat="42.1173090" lon="-8.8445830">
        <ele>5.9</ele>
        <time>2021-05-19T14:13:23Z</time>
      </trkpt>
      <trkpt lat="42.1173000" lon="-8.8445750">
        <ele>5.9</ele>
        <time>2021-05-19T14:13:24Z</time>
      </trkpt>
      <trkpt lat="42.1172910" lon="-8.8445620">
        <ele>5.9</ele>
        <time>2021-05-19T14:13:25Z</time>
      </trkpt>
      <trkpt lat="42.1172850" lon="-8.8445520">
        <ele>5.9</ele>
        <time>2021-05-19T14:13:26Z</time>
      </trkpt>
      <trkpt lat="42.1172850" lon="-8.8445330">
        <ele>5.9</ele>
        <time>2021-05-19T14:13:27Z</time>
      </trkpt>
      <trkpt lat="42.1172760" lon="-8.8445210">
        <ele>5.9</ele>
        <time>2021-05-19T14:13:28Z</time>
      </trkpt>
      <trkpt lat="42.1172740" lon="-8.8445080">
        <ele>5.9</ele>
        <time>2021-05-19T14:13:29Z</time>
      </trkpt>
      <trkpt lat="42.1172630" lon="-8.8445040">
        <ele>5.9</ele>
        <time>2021-05-19T14:13:30Z</time>
      </trkpt>
      <trkpt lat="42.1172500" lon="-8.8444890">
        <ele>5.9</ele>
        <time>2021-05-19T14:13:31Z</time>
      </trkpt>
      <trkpt lat="42.1172390" lon="-8.8444800">
        <ele>5.9</ele>
        <time>2021-05-19T14:13:32Z</time>
      </trkpt>
      <trkpt lat="42.1172290" lon="-8.8444710">
        <ele>5.9</ele>
        <time>2021-05-19T14:13:33Z</time>
      </trkpt>
      <trkpt lat="42.1172160" lon="-8.8444510">
        <ele>5.9</ele>
        <time>2021-05-19T14:13:34Z</time>
      </trkpt>
      <trkpt lat="42.1172040" lon="-8.8444430">
        <ele>5.9</ele>
        <time>2021-05-19T14:13:35Z</time>
      </trkpt>
      <trkpt lat="42.1172000" lon="-8.8444380">
        <ele>5.9</ele>
        <time>2021-05-19T14:13:36Z</time>
      </trkpt>
      <trkpt lat="42.1171910" lon="-8.8444270">
        <ele>5.9</ele>
        <time>2021-05-19T14:13:37Z</time>
      </trkpt>
      <trkpt lat="42.1171870" lon="-8.8444170">
        <ele>5.9</ele>
        <time>2021-05-19T14:13:38Z</time>
      </trkpt>
      <trkpt lat="42.1171840" lon="-8.8444100">
        <ele>5.9</ele>
        <time>2021-05-19T14:13:39Z</time>
      </trkpt>
      <trkpt lat="42.1171630" lon="-8.8443930">
        <ele>5.9</ele>
        <time>2021-05-19T14:13:40Z</time>
      </trkpt>
      <trkpt lat="42.1171500" lon="-8.8443840">
        <ele>5.9</ele>
        <time>2021-05-19T14:13:41Z</time>
      </trkpt>
      <trkpt lat="42.1171350" lon="-8.8443480">
        <ele>5.9</ele>
        <time>2021-05-19T14:13:42Z</time>
      </trkpt>
      <trkpt lat="42.1171300" lon="-8.8443410">
        <ele>5.9</ele>
        <time>2021-05-19T14:13:43Z</time>
      </trkpt>
      <trkpt lat="42.1171200" lon="-8.8443320">
        <ele>5.9</ele>
        <time>2021-05-19T14:13:44Z</time>
      </trkpt>
      <trkpt lat="42.1171120" lon="-8.8443220">
        <ele>5.9</ele>
        <time>2021-05-19T14:13:45Z</time>
      </trkpt>
      <trkpt lat="42.1171070" lon="-8.8443160">
        <ele>5.9</ele>
        <time>2021-05-19T14:13:46Z</time>
      </trkpt>
      <trkpt lat="42.1171040" lon="-8.8443080">
        <ele>5.9</ele>
        <time>2021-05-19T14:13:47Z</time>
      </trkpt>
      <trkpt lat="42.1170890" lon="-8.8442870">
        <ele>5.9</ele>
        <time>2021-05-19T14:13:48Z</time>
      </trkpt>
      <trkpt lat="42.1170620" lon="-8.8442740">
        <ele>5.9</ele>
        <time>2021-05-19T14:13:49Z</time>
      </trkpt>
      <trkpt lat="42.1170730" lon="-8.8442600">
        <ele>5.9</ele>
        <time>2021-05-19T14:13:50Z</time>
      </trkpt>
      <trkpt lat="42.1170670" lon="-8.8442530">
        <ele>5.9</ele>
        <time>2021-05-19T14:13:51Z</time>
      </trkpt>
      <trkpt lat="42.1170750" lon="-8.8442370">
        <ele>5.9</ele>
        <time>2021-05-19T14:13:52Z</time>
      </trkpt>
      <trkpt lat="42.1170780" lon="-8.8442310">
        <ele>5.9</ele>
        <time>2021-05-19T14:13:53Z</time>
      </trkpt>
      <trkpt lat="42.1170780" lon="-8.8442320">
        <ele>5.9</ele>
        <time>2021-05-19T14:13:54Z</time>
      </trkpt>
      <trkpt lat="42.1170780" lon="-8.8442300">
        <ele>5.9</ele>
        <time>2021-05-19T14:13:55Z</time>
      </trkpt>
      <trkpt lat="42.1170810" lon="-8.8442210">
        <ele>5.9</ele>
        <time>2021-05-19T14:13:56Z</time>
      </trkpt>
      <trkpt lat="42.1170810" lon="-8.8442120">
        <ele>5.9</ele>
        <time>2021-05-19T14:13:57Z</time>
      </trkpt>
      <trkpt lat="42.1170690" lon="-8.8442010">
        <ele>5.9</ele>
        <time>2021-05-19T14:13:58Z</time>
      </trkpt>
      <trkpt lat="42.1170620" lon="-8.8441990">
        <ele>5.9</ele>
        <time>2021-05-19T14:13:59Z</time>
      </trkpt>
      <trkpt lat="42.1170570" lon="-8.8441860">
        <ele>5.9</ele>
        <time>2021-05-19T14:14:00Z</time>
      </trkpt>
      <trkpt lat="42.1170470" lon="-8.8441790">
        <ele>5.9</ele>
        <time>2021-05-19T14:14:01Z</time>
      </trkpt>
      <trkpt lat="42.1170420" lon="-8.8441690">
        <ele>5.9</ele>
        <time>2021-05-19T14:14:02Z</time>
      </trkpt>
      <trkpt lat="42.1170410" lon="-8.8441530">
        <ele>5.9</ele>
        <time>2021-05-19T14:14:03Z</time>
      </trkpt>
      <trkpt lat="42.1170210" lon="-8.8441460">
        <ele>5.9</ele>
        <time>2021-05-19T14:14:04Z</time>
      </trkpt>
      <trkpt lat="42.1170030" lon="-8.8441440">
        <ele>5.9</ele>
        <time>2021-05-19T14:14:05Z</time>
      </trkpt>
      <trkpt lat="42.1169980" lon="-8.8441380">
        <ele>5.9</ele>
        <time>2021-05-19T14:14:06Z</time>
      </trkpt>
      <trkpt lat="42.1169960" lon="-8.8441320">
        <ele>5.9</ele>
        <time>2021-05-19T14:14:07Z</time>
      </trkpt>
      <trkpt lat="42.1169890" lon="-8.8441040">
        <ele>5.9</ele>
        <time>2021-05-19T14:14:08Z</time>
      </trkpt>
      <trkpt lat="42.1169810" lon="-8.8440960">
        <ele>5.9</ele>
        <time>2021-05-19T14:14:09Z</time>
      </trkpt>
      <trkpt lat="42.1169730" lon="-8.8440880">
        <ele>5.9</ele>
        <time>2021-05-19T14:14:10Z</time>
      </trkpt>
      <trkpt lat="42.1169590" lon="-8.8440760">
        <ele>5.9</ele>
        <time>2021-05-19T14:14:11Z</time>
      </trkpt>
      <trkpt lat="42.1169490" lon="-8.8440560">
        <ele>5.9</ele>
        <time>2021-05-19T14:14:12Z</time>
      </trkpt>
      <trkpt lat="42.1169420" lon="-8.8440430">
        <ele>5.8</ele>
        <time>2021-05-19T14:14:13Z</time>
      </trkpt>
      <trkpt lat="42.1169360" lon="-8.8440420">
        <ele>5.8</ele>
        <time>2021-05-19T14:14:14Z</time>
      </trkpt>
      <trkpt lat="42.1169310" lon="-8.8440250">
        <ele>5.8</ele>
        <time>2021-05-19T14:14:15Z</time>
      </trkpt>
      <trkpt lat="42.1169340" lon="-8.8439980">
        <ele>5.8</ele>
        <time>2021-05-19T14:14:16Z</time>
      </trkpt>
      <trkpt lat="42.1169420" lon="-8.8439750">
        <ele>5.8</ele>
        <time>2021-05-19T14:14:17Z</time>
      </trkpt>
      <trkpt lat="42.1169360" lon="-8.8439360">
        <ele>5.8</ele>
        <time>2021-05-19T14:14:18Z</time>
      </trkpt>
      <trkpt lat="42.1169330" lon="-8.8439250">
        <ele>5.8</ele>
        <time>2021-05-19T14:14:19Z</time>
      </trkpt>
      <trkpt lat="42.1169240" lon="-8.8439070">
        <ele>5.8</ele>
        <time>2021-05-19T14:14:20Z</time>
      </trkpt>
      <trkpt lat="42.1169140" lon="-8.8438890">
        <ele>5.8</ele>
        <time>2021-05-19T14:14:21Z</time>
      </trkpt>
      <trkpt lat="42.1169090" lon="-8.8438800">
        <ele>5.8</ele>
        <time>2021-05-19T14:14:22Z</time>
      </trkpt>
      <trkpt lat="42.1169040" lon="-8.8438760">
        <ele>5.8</ele>
        <time>2021-05-19T14:14:23Z</time>
      </trkpt>
      <trkpt lat="42.1168990" lon="-8.8438710">
        <ele>5.8</ele>
        <time>2021-05-19T14:14:24Z</time>
      </trkpt>
      <trkpt lat="42.1168930" lon="-8.8438670">
        <ele>5.8</ele>
        <time>2021-05-19T14:14:25Z</time>
      </trkpt>
      <trkpt lat="42.1168880" lon="-8.8438620">
        <ele>5.8</ele>
        <time>2021-05-19T14:14:26Z</time>
      </trkpt>
      <trkpt lat="42.1168830" lon="-8.8438580">
        <ele>5.7</ele>
        <time>2021-05-19T14:14:27Z</time>
      </trkpt>
      <trkpt lat="42.1168700" lon="-8.8438500">
        <ele>5.7</ele>
        <time>2021-05-19T14:14:28Z</time>
      </trkpt>
      <trkpt lat="42.1168570" lon="-8.8438390">
        <ele>5.7</ele>
        <time>2021-05-19T14:14:29Z</time>
      </trkpt>
      <trkpt lat="42.1168410" lon="-8.8438340">
        <ele>5.7</ele>
        <time>2021-05-19T14:14:30Z</time>
      </trkpt>
      <trkpt lat="42.1168300" lon="-8.8438330">
        <ele>5.7</ele>
        <time>2021-05-19T14:14:31Z</time>
      </trkpt>
      <trkpt lat="42.1168150" lon="-8.8438350">
        <ele>5.7</ele>
        <time>2021-05-19T14:14:32Z</time>
      </trkpt>
      <trkpt lat="42.1168000" lon="-8.8438210">
        <ele>5.7</ele>
        <time>2021-05-19T14:14:33Z</time>
      </trkpt>
      <trkpt lat="42.1167930" lon="-8.8438170">
        <ele>5.7</ele>
        <time>2021-05-19T14:14:34Z</time>
      </trkpt>
      <trkpt lat="42.1167720" lon="-8.8438160">
        <ele>5.7</ele>
        <time>2021-05-19T14:14:35Z</time>
      </trkpt>
      <trkpt lat="42.1167690" lon="-8.8438140">
        <ele>5.7</ele>
        <time>2021-05-19T14:14:36Z</time>
      </trkpt>
      <trkpt lat="42.1167610" lon="-8.8438120">
        <ele>5.7</ele>
        <time>2021-05-19T14:14:37Z</time>
      </trkpt>
      <trkpt lat="42.1167440" lon="-8.8438120">
        <ele>5.7</ele>
        <time>2021-05-19T14:14:38Z</time>
      </trkpt>
      <trkpt lat="42.1167420" lon="-8.8438170">
        <ele>5.7</ele>
        <time>2021-05-19T14:14:39Z</time>
      </trkpt>
      <trkpt lat="42.1167220" lon="-8.8438160">
        <ele>5.7</ele>
        <time>2021-05-19T14:14:40Z</time>
      </trkpt>
      <trkpt lat="42.1167100" lon="-8.8438170">
        <ele>5.7</ele>
        <time>2021-05-19T14:14:41Z</time>
      </trkpt>
      <trkpt lat="42.1167330" lon="-8.8437150">
        <ele>5.7</ele>
        <time>2021-05-19T14:14:42Z</time>
      </trkpt>
      <trkpt lat="42.1167320" lon="-8.8436760">
        <ele>5.7</ele>
        <time>2021-05-19T14:14:43Z</time>
      </trkpt>
      <trkpt lat="42.1167320" lon="-8.8436650">
        <ele>5.7</ele>
        <time>2021-05-19T14:14:44Z</time>
      </trkpt>
      <trkpt lat="42.1167220" lon="-8.8436490">
        <ele>5.7</ele>
        <time>2021-05-19T14:14:45Z</time>
      </trkpt>
      <trkpt lat="42.1167120" lon="-8.8436310">
        <ele>5.7</ele>
        <time>2021-05-19T14:14:46Z</time>
      </trkpt>
      <trkpt lat="42.1167020" lon="-8.8436160">
        <ele>5.7</ele>
        <time>2021-05-19T14:14:47Z</time>
      </trkpt>
      <trkpt lat="42.1166960" lon="-8.8436050">
        <ele>5.7</ele>
        <time>2021-05-19T14:14:48Z</time>
      </trkpt>
      <trkpt lat="42.1166920" lon="-8.8436000">
        <ele>5.7</ele>
        <time>2021-05-19T14:14:49Z</time>
      </trkpt>
      <trkpt lat="42.1166790" lon="-8.8435870">
        <ele>5.7</ele>
        <time>2021-05-19T14:14:50Z</time>
      </trkpt>
      <trkpt lat="42.1166690" lon="-8.8435760">
        <ele>5.7</ele>
        <time>2021-05-19T14:14:51Z</time>
      </trkpt>
      <trkpt lat="42.1166600" lon="-8.8435650">
        <ele>5.7</ele>
        <time>2021-05-19T14:14:52Z</time>
      </trkpt>
      <trkpt lat="42.1166440" lon="-8.8435420">
        <ele>5.7</ele>
        <time>2021-05-19T14:14:53Z</time>
      </trkpt>
      <trkpt lat="42.1166370" lon="-8.8435320">
        <ele>5.7</ele>
        <time>2021-05-19T14:14:54Z</time>
      </trkpt>
      <trkpt lat="42.1166290" lon="-8.8435230">
        <ele>5.7</ele>
        <time>2021-05-19T14:14:55Z</time>
      </trkpt>
      <trkpt lat="42.1166130" lon="-8.8435020">
        <ele>5.7</ele>
        <time>2021-05-19T14:14:56Z</time>
      </trkpt>
      <trkpt lat="42.1166080" lon="-8.8434970">
        <ele>5.7</ele>
        <time>2021-05-19T14:14:57Z</time>
      </trkpt>
      <trkpt lat="42.1166040" lon="-8.8434910">
        <ele>5.7</ele>
        <time>2021-05-19T14:14:58Z</time>
      </trkpt>
      <trkpt lat="42.1165990" lon="-8.8434860">
        <ele>5.7</ele>
        <time>2021-05-19T14:14:59Z</time>
      </trkpt>
      <trkpt lat="42.1165850" lon="-8.8434700">
        <ele>5.7</ele>
        <time>2021-05-19T14:15:00Z</time>
      </trkpt>
      <trkpt lat="42.1165780" lon="-8.8434610">
        <ele>5.7</ele>
        <time>2021-05-19T14:15:01Z</time>
      </trkpt>
      <trkpt lat="42.1165630" lon="-8.8434430">
        <ele>5.7</ele>
        <time>2021-05-19T14:15:02Z</time>
      </trkpt>
      <trkpt lat="42.1165540" lon="-8.8434340">
        <ele>5.7</ele>
        <time>2021-05-19T14:15:03Z</time>
      </trkpt>
      <trkpt lat="42.1165460" lon="-8.8434240">
        <ele>5.7</ele>
        <time>2021-05-19T14:15:04Z</time>
      </trkpt>
      <trkpt lat="42.1165330" lon="-8.8434060">
        <ele>5.7</ele>
        <time>2021-05-19T14:15:05Z</time>
      </trkpt>
      <trkpt lat="42.1165210" lon="-8.8433920">
        <ele>5.7</ele>
        <time>2021-05-19T14:15:06Z</time>
      </trkpt>
      <trkpt lat="42.1165080" lon="-8.8433760">
        <ele>5.7</ele>
        <time>2021-05-19T14:15:07Z</time>
      </trkpt>
      <trkpt lat="42.1165010" lon="-8.8433670">
        <ele>5.7</ele>
        <time>2021-05-19T14:15:08Z</time>
      </trkpt>
      <trkpt lat="42.1164930" lon="-8.8433580">
        <ele>5.7</ele>
        <time>2021-05-19T14:15:09Z</time>
      </trkpt>
      <trkpt lat="42.1164770" lon="-8.8433420">
        <ele>5.7</ele>
        <time>2021-05-19T14:15:10Z</time>
      </trkpt>
      <trkpt lat="42.1164730" lon="-8.8433360">
        <ele>5.7</ele>
        <time>2021-05-19T14:15:11Z</time>
      </trkpt>
      <trkpt lat="42.1164670" lon="-8.8433310">
        <ele>5.7</ele>
        <time>2021-05-19T14:15:12Z</time>
      </trkpt>
      <trkpt lat="42.1164600" lon="-8.8433240">
        <ele>5.7</ele>
        <time>2021-05-19T14:15:13Z</time>
      </trkpt>
      <trkpt lat="42.1164570" lon="-8.8433220">
        <ele>5.7</ele>
        <time>2021-05-19T14:15:14Z</time>
      </trkpt>
      <trkpt lat="42.1164430" lon="-8.8433080">
        <ele>5.7</ele>
        <time>2021-05-19T14:15:15Z</time>
      </trkpt>
      <trkpt lat="42.1164400" lon="-8.8433030">
        <ele>5.7</ele>
        <time>2021-05-19T14:15:16Z</time>
      </trkpt>
      <trkpt lat="42.1164240" lon="-8.8432840">
        <ele>5.7</ele>
        <time>2021-05-19T14:15:17Z</time>
      </trkpt>
      <trkpt lat="42.1164170" lon="-8.8432780">
        <ele>5.7</ele>
        <time>2021-05-19T14:15:18Z</time>
      </trkpt>
      <trkpt lat="42.1164010" lon="-8.8432600">
        <ele>5.7</ele>
        <time>2021-05-19T14:15:19Z</time>
      </trkpt>
      <trkpt lat="42.1163940" lon="-8.8432530">
        <ele>5.7</ele>
        <time>2021-05-19T14:15:20Z</time>
      </trkpt>
      <trkpt lat="42.1163880" lon="-8.8432460">
        <ele>5.7</ele>
        <time>2021-05-19T14:15:21Z</time>
      </trkpt>
      <trkpt lat="42.1163740" lon="-8.8432290">
        <ele>5.7</ele>
        <time>2021-05-19T14:15:22Z</time>
      </trkpt>
      <trkpt lat="42.1163650" lon="-8.8432180">
        <ele>5.7</ele>
        <time>2021-05-19T14:15:23Z</time>
      </trkpt>
      <trkpt lat="42.1163470" lon="-8.8431940">
        <ele>5.7</ele>
        <time>2021-05-19T14:15:24Z</time>
      </trkpt>
      <trkpt lat="42.1163380" lon="-8.8431830">
        <ele>5.7</ele>
        <time>2021-05-19T14:15:25Z</time>
      </trkpt>
      <trkpt lat="42.1163300" lon="-8.8431730">
        <ele>5.7</ele>
        <time>2021-05-19T14:15:26Z</time>
      </trkpt>
      <trkpt lat="42.1163250" lon="-8.8431660">
        <ele>5.7</ele>
        <time>2021-05-19T14:15:27Z</time>
      </trkpt>
      <trkpt lat="42.1163170" lon="-8.8431550">
        <ele>5.7</ele>
        <time>2021-05-19T14:15:28Z</time>
      </trkpt>
      <trkpt lat="42.1163030" lon="-8.8431370">
        <ele>5.7</ele>
        <time>2021-05-19T14:15:29Z</time>
      </trkpt>
      <trkpt lat="42.1162990" lon="-8.8431310">
        <ele>5.7</ele>
        <time>2021-05-19T14:15:30Z</time>
      </trkpt>
      <trkpt lat="42.1162940" lon="-8.8431240">
        <ele>5.7</ele>
        <time>2021-05-19T14:15:31Z</time>
      </trkpt>
      <trkpt lat="42.1162890" lon="-8.8431180">
        <ele>5.7</ele>
        <time>2021-05-19T14:15:32Z</time>
      </trkpt>
      <trkpt lat="42.1162810" lon="-8.8431080">
        <ele>5.7</ele>
        <time>2021-05-19T14:15:33Z</time>
      </trkpt>
      <trkpt lat="42.1162680" lon="-8.8430940">
        <ele>5.7</ele>
        <time>2021-05-19T14:15:34Z</time>
      </trkpt>
      <trkpt lat="42.1162550" lon="-8.8430770">
        <ele>5.7</ele>
        <time>2021-05-19T14:15:35Z</time>
      </trkpt>
      <trkpt lat="42.1162470" lon="-8.8430680">
        <ele>5.7</ele>
        <time>2021-05-19T14:15:36Z</time>
      </trkpt>
      <trkpt lat="42.1162400" lon="-8.8430590">
        <ele>5.7</ele>
        <time>2021-05-19T14:15:37Z</time>
      </trkpt>
      <trkpt lat="42.1162220" lon="-8.8430380">
        <ele>5.7</ele>
        <time>2021-05-19T14:15:38Z</time>
      </trkpt>
      <trkpt lat="42.1162160" lon="-8.8430300">
        <ele>5.7</ele>
        <time>2021-05-19T14:15:39Z</time>
      </trkpt>
      <trkpt lat="42.1162100" lon="-8.8430230">
        <ele>5.7</ele>
        <time>2021-05-19T14:15:40Z</time>
      </trkpt>
      <trkpt lat="42.1161930" lon="-8.8430030">
        <ele>5.7</ele>
        <time>2021-05-19T14:15:41Z</time>
      </trkpt>
      <trkpt lat="42.1161870" lon="-8.8429960">
        <ele>5.7</ele>
        <time>2021-05-19T14:15:42Z</time>
      </trkpt>
      <trkpt lat="42.1161810" lon="-8.8429890">
        <ele>5.7</ele>
        <time>2021-05-19T14:15:43Z</time>
      </trkpt>
      <trkpt lat="42.1161700" lon="-8.8429760">
        <ele>5.7</ele>
        <time>2021-05-19T14:15:44Z</time>
      </trkpt>
      <trkpt lat="42.1161590" lon="-8.8429640">
        <ele>5.7</ele>
        <time>2021-05-19T14:15:45Z</time>
      </trkpt>
      <trkpt lat="42.1161380" lon="-8.8429390">
        <ele>5.7</ele>
        <time>2021-05-19T14:15:46Z</time>
      </trkpt>
      <trkpt lat="42.1161310" lon="-8.8429310">
        <ele>5.7</ele>
        <time>2021-05-19T14:15:47Z</time>
      </trkpt>
      <trkpt lat="42.1161130" lon="-8.8429100">
        <ele>5.7</ele>
        <time>2021-05-19T14:15:48Z</time>
      </trkpt>
      <trkpt lat="42.1161040" lon="-8.8429010">
        <ele>5.7</ele>
        <time>2021-05-19T14:15:49Z</time>
      </trkpt>
      <trkpt lat="42.1160960" lon="-8.8428910">
        <ele>5.7</ele>
        <time>2021-05-19T14:15:50Z</time>
      </trkpt>
      <trkpt lat="42.1160850" lon="-8.8428790">
        <ele>5.7</ele>
        <time>2021-05-19T14:15:51Z</time>
      </trkpt>
      <trkpt lat="42.1160750" lon="-8.8428660">
        <ele>5.7</ele>
        <time>2021-05-19T14:15:52Z</time>
      </trkpt>
      <trkpt lat="42.1160610" lon="-8.8428510">
        <ele>5.7</ele>
        <time>2021-05-19T14:15:53Z</time>
      </trkpt>
      <trkpt lat="42.1160580" lon="-8.8428470">
        <ele>5.7</ele>
        <time>2021-05-19T14:15:54Z</time>
      </trkpt>
      <trkpt lat="42.1160490" lon="-8.8428370">
        <ele>5.7</ele>
        <time>2021-05-19T14:15:55Z</time>
      </trkpt>
      <trkpt lat="42.1160470" lon="-8.8428340">
        <ele>5.7</ele>
        <time>2021-05-19T14:15:56Z</time>
      </trkpt>
      <trkpt lat="42.1160360" lon="-8.8428210">
        <ele>5.7</ele>
        <time>2021-05-19T14:15:57Z</time>
      </trkpt>
      <trkpt lat="42.1160270" lon="-8.8428100">
        <ele>5.7</ele>
        <time>2021-05-19T14:15:58Z</time>
      </trkpt>
      <trkpt lat="42.1160100" lon="-8.8427920">
        <ele>5.7</ele>
        <time>2021-05-19T14:15:59Z</time>
      </trkpt>
      <trkpt lat="42.1160050" lon="-8.8427860">
        <ele>5.7</ele>
        <time>2021-05-19T14:16:00Z</time>
      </trkpt>
      <trkpt lat="42.1160010" lon="-8.8427810">
        <ele>5.7</ele>
        <time>2021-05-19T14:16:01Z</time>
      </trkpt>
      <trkpt lat="42.1159960" lon="-8.8427760">
        <ele>5.7</ele>
        <time>2021-05-19T14:16:02Z</time>
      </trkpt>
      <trkpt lat="42.1159920" lon="-8.8427710">
        <ele>5.7</ele>
        <time>2021-05-19T14:16:03Z</time>
      </trkpt>
      <trkpt lat="42.1159760" lon="-8.8427530">
        <ele>5.7</ele>
        <time>2021-05-19T14:16:04Z</time>
      </trkpt>
      <trkpt lat="42.1159750" lon="-8.8427520">
        <ele>5.7</ele>
        <time>2021-05-19T14:16:05Z</time>
      </trkpt>
      <trkpt lat="42.1159600" lon="-8.8427380">
        <ele>5.7</ele>
        <time>2021-05-19T14:16:06Z</time>
      </trkpt>
      <trkpt lat="42.1159550" lon="-8.8427320">
        <ele>5.7</ele>
        <time>2021-05-19T14:16:07Z</time>
      </trkpt>
      <trkpt lat="42.1159500" lon="-8.8427270">
        <ele>5.7</ele>
        <time>2021-05-19T14:16:08Z</time>
      </trkpt>
      <trkpt lat="42.1159450" lon="-8.8427220">
        <ele>5.7</ele>
        <time>2021-05-19T14:16:09Z</time>
      </trkpt>
      <trkpt lat="42.1159290" lon="-8.8427040">
        <ele>5.7</ele>
        <time>2021-05-19T14:16:10Z</time>
      </trkpt>
      <trkpt lat="42.1159210" lon="-8.8426960">
        <ele>5.7</ele>
        <time>2021-05-19T14:16:11Z</time>
      </trkpt>
      <trkpt lat="42.1159120" lon="-8.8426850">
        <ele>5.7</ele>
        <time>2021-05-19T14:16:12Z</time>
      </trkpt>
      <trkpt lat="42.1159050" lon="-8.8426750">
        <ele>5.7</ele>
        <time>2021-05-19T14:16:13Z</time>
      </trkpt>
      <trkpt lat="42.1159000" lon="-8.8426690">
        <ele>5.7</ele>
        <time>2021-05-19T14:16:14Z</time>
      </trkpt>
      <trkpt lat="42.1158950" lon="-8.8426620">
        <ele>5.7</ele>
        <time>2021-05-19T14:16:15Z</time>
      </trkpt>
      <trkpt lat="42.1158930" lon="-8.8426600">
        <ele>5.7</ele>
        <time>2021-05-19T14:16:16Z</time>
      </trkpt>
      <trkpt lat="42.1158890" lon="-8.8426550">
        <ele>5.7</ele>
        <time>2021-05-19T14:16:17Z</time>
      </trkpt>
      <trkpt lat="42.1158870" lon="-8.8426510">
        <ele>5.7</ele>
        <time>2021-05-19T14:16:18Z</time>
      </trkpt>
      <trkpt lat="42.1158770" lon="-8.8426390">
        <ele>5.7</ele>
        <time>2021-05-19T14:16:19Z</time>
      </trkpt>
      <trkpt lat="42.1158610" lon="-8.8426210">
        <ele>5.8</ele>
        <time>2021-05-19T14:16:20Z</time>
      </trkpt>
      <trkpt lat="42.1158570" lon="-8.8426160">
        <ele>5.8</ele>
        <time>2021-05-19T14:16:21Z</time>
      </trkpt>
      <trkpt lat="42.1158520" lon="-8.8426120">
        <ele>5.8</ele>
        <time>2021-05-19T14:16:22Z</time>
      </trkpt>
      <trkpt lat="42.1158480" lon="-8.8426070">
        <ele>5.8</ele>
        <time>2021-05-19T14:16:23Z</time>
      </trkpt>
      <trkpt lat="42.1158400" lon="-8.8425990">
        <ele>5.8</ele>
        <time>2021-05-19T14:16:24Z</time>
      </trkpt>
      <trkpt lat="42.1158300" lon="-8.8425900">
        <ele>5.8</ele>
        <time>2021-05-19T14:16:25Z</time>
      </trkpt>
      <trkpt lat="42.1158250" lon="-8.8425830">
        <ele>5.8</ele>
        <time>2021-05-19T14:16:26Z</time>
      </trkpt>
      <trkpt lat="42.1158070" lon="-8.8425660">
        <ele>5.8</ele>
        <time>2021-05-19T14:16:27Z</time>
      </trkpt>
      <trkpt lat="42.1158000" lon="-8.8425580">
        <ele>5.8</ele>
        <time>2021-05-19T14:16:28Z</time>
      </trkpt>
      <trkpt lat="42.1157940" lon="-8.8425510">
        <ele>5.8</ele>
        <time>2021-05-19T14:16:29Z</time>
      </trkpt>
      <trkpt lat="42.1157870" lon="-8.8425430">
        <ele>5.8</ele>
        <time>2021-05-19T14:16:30Z</time>
      </trkpt>
      <trkpt lat="42.1157820" lon="-8.8425370">
        <ele>5.8</ele>
        <time>2021-05-19T14:16:31Z</time>
      </trkpt>
      <trkpt lat="42.1157750" lon="-8.8425300">
        <ele>5.8</ele>
        <time>2021-05-19T14:16:32Z</time>
      </trkpt>
      <trkpt lat="42.1157650" lon="-8.8425180">
        <ele>5.8</ele>
        <time>2021-05-19T14:16:33Z</time>
      </trkpt>
      <trkpt lat="42.1157630" lon="-8.8425180">
        <ele>5.8</ele>
        <time>2021-05-19T14:16:34Z</time>
      </trkpt>
      <trkpt lat="42.1157520" lon="-8.8425110">
        <ele>5.8</ele>
        <time>2021-05-19T14:16:35Z</time>
      </trkpt>
      <trkpt lat="42.1157410" lon="-8.8424980">
        <ele>5.8</ele>
        <time>2021-05-19T14:16:36Z</time>
      </trkpt>
      <trkpt lat="42.1157330" lon="-8.8424850">
        <ele>5.8</ele>
        <time>2021-05-19T14:16:37Z</time>
      </trkpt>
      <trkpt lat="42.1157270" lon="-8.8424770">
        <ele>5.8</ele>
        <time>2021-05-19T14:16:38Z</time>
      </trkpt>
      <trkpt lat="42.1157160" lon="-8.8424640">
        <ele>5.8</ele>
        <time>2021-05-19T14:16:39Z</time>
      </trkpt>
      <trkpt lat="42.1157100" lon="-8.8424540">
        <ele>5.8</ele>
        <time>2021-05-19T14:16:40Z</time>
      </trkpt>
      <trkpt lat="42.1156920" lon="-8.8424340">
        <ele>5.8</ele>
        <time>2021-05-19T14:16:41Z</time>
      </trkpt>
      <trkpt lat="42.1156790" lon="-8.8424200">
        <ele>5.8</ele>
        <time>2021-05-19T14:16:42Z</time>
      </trkpt>
      <trkpt lat="42.1156760" lon="-8.8424150">
        <ele>5.8</ele>
        <time>2021-05-19T14:16:43Z</time>
      </trkpt>
      <trkpt lat="42.1156670" lon="-8.8424070">
        <ele>5.8</ele>
        <time>2021-05-19T14:16:44Z</time>
      </trkpt>
      <trkpt lat="42.1156610" lon="-8.8424010">
        <ele>5.8</ele>
        <time>2021-05-19T14:16:45Z</time>
      </trkpt>
      <trkpt lat="42.1156510" lon="-8.8423950">
        <ele>5.8</ele>
        <time>2021-05-19T14:16:46Z</time>
      </trkpt>
      <trkpt lat="42.1156390" lon="-8.8423820">
        <ele>5.8</ele>
        <time>2021-05-19T14:16:47Z</time>
      </trkpt>
      <trkpt lat="42.1156280" lon="-8.8423690">
        <ele>5.8</ele>
        <time>2021-05-19T14:16:48Z</time>
      </trkpt>
      <trkpt lat="42.1156210" lon="-8.8423590">
        <ele>5.8</ele>
        <time>2021-05-19T14:16:49Z</time>
      </trkpt>
      <trkpt lat="42.1156170" lon="-8.8423530">
        <ele>5.8</ele>
        <time>2021-05-19T14:16:50Z</time>
      </trkpt>
      <trkpt lat="42.1156090" lon="-8.8423440">
        <ele>5.8</ele>
        <time>2021-05-19T14:16:51Z</time>
      </trkpt>
      <trkpt lat="42.1155960" lon="-8.8423280">
        <ele>5.8</ele>
        <time>2021-05-19T14:16:52Z</time>
      </trkpt>
      <trkpt lat="42.1155820" lon="-8.8423100">
        <ele>5.8</ele>
        <time>2021-05-19T14:16:53Z</time>
      </trkpt>
      <trkpt lat="42.1155760" lon="-8.8423020">
        <ele>5.7</ele>
        <time>2021-05-19T14:16:54Z</time>
      </trkpt>
      <trkpt lat="42.1155690" lon="-8.8422950">
        <ele>5.7</ele>
        <time>2021-05-19T14:16:55Z</time>
      </trkpt>
      <trkpt lat="42.1155620" lon="-8.8422870">
        <ele>5.7</ele>
        <time>2021-05-19T14:16:56Z</time>
      </trkpt>
      <trkpt lat="42.1155570" lon="-8.8422810">
        <ele>5.7</ele>
        <time>2021-05-19T14:16:57Z</time>
      </trkpt>
      <trkpt lat="42.1155470" lon="-8.8422730">
        <ele>5.7</ele>
        <time>2021-05-19T14:16:58Z</time>
      </trkpt>
      <trkpt lat="42.1155380" lon="-8.8422630">
        <ele>5.7</ele>
        <time>2021-05-19T14:16:59Z</time>
      </trkpt>
      <trkpt lat="42.1155200" lon="-8.8422460">
        <ele>5.7</ele>
        <time>2021-05-19T14:17:00Z</time>
      </trkpt>
      <trkpt lat="42.1155150" lon="-8.8422370">
        <ele>5.7</ele>
        <time>2021-05-19T14:17:01Z</time>
      </trkpt>
      <trkpt lat="42.1155100" lon="-8.8422290">
        <ele>5.7</ele>
        <time>2021-05-19T14:17:02Z</time>
      </trkpt>
      <trkpt lat="42.1154920" lon="-8.8422140">
        <ele>5.7</ele>
        <time>2021-05-19T14:17:03Z</time>
      </trkpt>
      <trkpt lat="42.1154830" lon="-8.8422110">
        <ele>5.7</ele>
        <time>2021-05-19T14:17:04Z</time>
      </trkpt>
      <trkpt lat="42.1154730" lon="-8.8422090">
        <ele>5.7</ele>
        <time>2021-05-19T14:17:05Z</time>
      </trkpt>
      <trkpt lat="42.1154640" lon="-8.8422070">
        <ele>5.7</ele>
        <time>2021-05-19T14:17:06Z</time>
      </trkpt>
      <trkpt lat="42.1154530" lon="-8.8422020">
        <ele>5.7</ele>
        <time>2021-05-19T14:17:07Z</time>
      </trkpt>
      <trkpt lat="42.1154380" lon="-8.8421990">
        <ele>5.7</ele>
        <time>2021-05-19T14:17:08Z</time>
      </trkpt>
      <trkpt lat="42.1154300" lon="-8.8421850">
        <ele>5.7</ele>
        <time>2021-05-19T14:17:09Z</time>
      </trkpt>
      <trkpt lat="42.1154160" lon="-8.8421840">
        <ele>5.7</ele>
        <time>2021-05-19T14:17:10Z</time>
      </trkpt>
      <trkpt lat="42.1154040" lon="-8.8421880">
        <ele>5.7</ele>
        <time>2021-05-19T14:17:11Z</time>
      </trkpt>
      <trkpt lat="42.1153990" lon="-8.8421670">
        <ele>5.7</ele>
        <time>2021-05-19T14:17:12Z</time>
      </trkpt>
      <trkpt lat="42.1153890" lon="-8.8421660">
        <ele>5.7</ele>
        <time>2021-05-19T14:17:13Z</time>
      </trkpt>
      <trkpt lat="42.1153790" lon="-8.8421660">
        <ele>5.7</ele>
        <time>2021-05-19T14:17:14Z</time>
      </trkpt>
      <trkpt lat="42.1153700" lon="-8.8421660">
        <ele>5.7</ele>
        <time>2021-05-19T14:17:15Z</time>
      </trkpt>
      <trkpt lat="42.1153460" lon="-8.8421610">
        <ele>5.7</ele>
        <time>2021-05-19T14:17:16Z</time>
      </trkpt>
      <trkpt lat="42.1153360" lon="-8.8421570">
        <ele>5.7</ele>
        <time>2021-05-19T14:17:17Z</time>
      </trkpt>
      <trkpt lat="42.1153250" lon="-8.8421540">
        <ele>5.7</ele>
        <time>2021-05-19T14:17:18Z</time>
      </trkpt>
      <trkpt lat="42.1153410" lon="-8.8420880">
        <ele>5.7</ele>
        <time>2021-05-19T14:17:19Z</time>
      </trkpt>
      <trkpt lat="42.1153330" lon="-8.8420500">
        <ele>5.7</ele>
        <time>2021-05-19T14:17:20Z</time>
      </trkpt>
      <trkpt lat="42.1153290" lon="-8.8420400">
        <ele>5.7</ele>
        <time>2021-05-19T14:17:21Z</time>
      </trkpt>
      <trkpt lat="42.1153290" lon="-8.8420300">
        <ele>5.7</ele>
        <time>2021-05-19T14:17:22Z</time>
      </trkpt>
      <trkpt lat="42.1153180" lon="-8.8420130">
        <ele>5.7</ele>
        <time>2021-05-19T14:17:23Z</time>
      </trkpt>
      <trkpt lat="42.1153110" lon="-8.8420010">
        <ele>5.7</ele>
        <time>2021-05-19T14:17:24Z</time>
      </trkpt>
      <trkpt lat="42.1152980" lon="-8.8419840">
        <ele>5.7</ele>
        <time>2021-05-19T14:17:25Z</time>
      </trkpt>
      <trkpt lat="42.1152890" lon="-8.8419710">
        <ele>5.7</ele>
        <time>2021-05-19T14:17:26Z</time>
      </trkpt>
      <trkpt lat="42.1152750" lon="-8.8419540">
        <ele>5.7</ele>
        <time>2021-05-19T14:17:27Z</time>
      </trkpt>
      <trkpt lat="42.1152690" lon="-8.8419440">
        <ele>5.7</ele>
        <time>2021-05-19T14:17:28Z</time>
      </trkpt>
      <trkpt lat="42.1152600" lon="-8.8419310">
        <ele>5.7</ele>
        <time>2021-05-19T14:17:29Z</time>
      </trkpt>
      <trkpt lat="42.1152510" lon="-8.8419180">
        <ele>5.7</ele>
        <time>2021-05-19T14:17:30Z</time>
      </trkpt>
      <trkpt lat="42.1152470" lon="-8.8419110">
        <ele>5.7</ele>
        <time>2021-05-19T14:17:31Z</time>
      </trkpt>
      <trkpt lat="42.1152350" lon="-8.8418980">
        <ele>5.7</ele>
        <time>2021-05-19T14:17:32Z</time>
      </trkpt>
      <trkpt lat="42.1152190" lon="-8.8418800">
        <ele>5.7</ele>
        <time>2021-05-19T14:17:33Z</time>
      </trkpt>
      <trkpt lat="42.1152070" lon="-8.8418680">
        <ele>5.7</ele>
        <time>2021-05-19T14:17:34Z</time>
      </trkpt>
      <trkpt lat="42.1151900" lon="-8.8418550">
        <ele>5.7</ele>
        <time>2021-05-19T14:17:35Z</time>
      </trkpt>
      <trkpt lat="42.1151770" lon="-8.8418420">
        <ele>5.7</ele>
        <time>2021-05-19T14:17:36Z</time>
      </trkpt>
      <trkpt lat="42.1151600" lon="-8.8418370">
        <ele>5.7</ele>
        <time>2021-05-19T14:17:37Z</time>
      </trkpt>
      <trkpt lat="42.1151550" lon="-8.8418300">
        <ele>5.7</ele>
        <time>2021-05-19T14:17:38Z</time>
      </trkpt>
      <trkpt lat="42.1151370" lon="-8.8418160">
        <ele>5.7</ele>
        <time>2021-05-19T14:17:39Z</time>
      </trkpt>
      <trkpt lat="42.1151180" lon="-8.8418070">
        <ele>5.7</ele>
        <time>2021-05-19T14:17:40Z</time>
      </trkpt>
      <trkpt lat="42.1151100" lon="-8.8418030">
        <ele>5.7</ele>
        <time>2021-05-19T14:17:41Z</time>
      </trkpt>
      <trkpt lat="42.1151010" lon="-8.8417990">
        <ele>5.7</ele>
        <time>2021-05-19T14:17:42Z</time>
      </trkpt>
      <trkpt lat="42.1150820" lon="-8.8417800">
        <ele>5.7</ele>
        <time>2021-05-19T14:17:43Z</time>
      </trkpt>
      <trkpt lat="42.1150740" lon="-8.8417710">
        <ele>5.7</ele>
        <time>2021-05-19T14:17:44Z</time>
      </trkpt>
      <trkpt lat="42.1150660" lon="-8.8417610">
        <ele>5.7</ele>
        <time>2021-05-19T14:17:45Z</time>
      </trkpt>
      <trkpt lat="42.1150590" lon="-8.8417590">
        <ele>5.7</ele>
        <time>2021-05-19T14:17:46Z</time>
      </trkpt>
      <trkpt lat="42.1150460" lon="-8.8417500">
        <ele>5.7</ele>
        <time>2021-05-19T14:17:47Z</time>
      </trkpt>
      <trkpt lat="42.1150430" lon="-8.8417360">
        <ele>5.7</ele>
        <time>2021-05-19T14:17:48Z</time>
      </trkpt>
      <trkpt lat="42.1150250" lon="-8.8417410">
        <ele>5.7</ele>
        <time>2021-05-19T14:17:49Z</time>
      </trkpt>
      <trkpt lat="42.1150110" lon="-8.8417380">
        <ele>5.7</ele>
        <time>2021-05-19T14:17:50Z</time>
      </trkpt>
      <trkpt lat="42.1149890" lon="-8.8417460">
        <ele>5.7</ele>
        <time>2021-05-19T14:17:51Z</time>
      </trkpt>
      <trkpt lat="42.1149810" lon="-8.8417440">
        <ele>5.7</ele>
        <time>2021-05-19T14:17:52Z</time>
      </trkpt>
      <trkpt lat="42.1149740" lon="-8.8417410">
        <ele>5.7</ele>
        <time>2021-05-19T14:17:53Z</time>
      </trkpt>
      <trkpt lat="42.1149700" lon="-8.8417430">
        <ele>5.7</ele>
        <time>2021-05-19T14:17:54Z</time>
      </trkpt>
      <trkpt lat="42.1149560" lon="-8.8417120">
        <ele>5.7</ele>
        <time>2021-05-19T14:17:55Z</time>
      </trkpt>
      <trkpt lat="42.1149420" lon="-8.8417000">
        <ele>5.7</ele>
        <time>2021-05-19T14:17:56Z</time>
      </trkpt>
      <trkpt lat="42.1149330" lon="-8.8416940">
        <ele>5.7</ele>
        <time>2021-05-19T14:17:57Z</time>
      </trkpt>
      <trkpt lat="42.1149230" lon="-8.8416890">
        <ele>5.7</ele>
        <time>2021-05-19T14:17:58Z</time>
      </trkpt>
      <trkpt lat="42.1149130" lon="-8.8416750">
        <ele>5.7</ele>
        <time>2021-05-19T14:17:59Z</time>
      </trkpt>
      <trkpt lat="42.1149060" lon="-8.8416670">
        <ele>5.8</ele>
        <time>2021-05-19T14:18:00Z</time>
      </trkpt>
      <trkpt lat="42.1148980" lon="-8.8416660">
        <ele>5.8</ele>
        <time>2021-05-19T14:18:01Z</time>
      </trkpt>
      <trkpt lat="42.1148860" lon="-8.8416550">
        <ele>5.8</ele>
        <time>2021-05-19T14:18:02Z</time>
      </trkpt>
      <trkpt lat="42.1148770" lon="-8.8416440">
        <ele>5.8</ele>
        <time>2021-05-19T14:18:03Z</time>
      </trkpt>
      <trkpt lat="42.1148750" lon="-8.8416360">
        <ele>5.8</ele>
        <time>2021-05-19T14:18:04Z</time>
      </trkpt>
      <trkpt lat="42.1148660" lon="-8.8416270">
        <ele>5.8</ele>
        <time>2021-05-19T14:18:05Z</time>
      </trkpt>
      <trkpt lat="42.1148610" lon="-8.8416120">
        <ele>5.8</ele>
        <time>2021-05-19T14:18:06Z</time>
      </trkpt>
      <trkpt lat="42.1148500" lon="-8.8416050">
        <ele>5.8</ele>
        <time>2021-05-19T14:18:07Z</time>
      </trkpt>
      <trkpt lat="42.1148480" lon="-8.8415890">
        <ele>5.8</ele>
        <time>2021-05-19T14:18:08Z</time>
      </trkpt>
      <trkpt lat="42.1148450" lon="-8.8415770">
        <ele>5.8</ele>
        <time>2021-05-19T14:18:09Z</time>
      </trkpt>
      <trkpt lat="42.1148410" lon="-8.8415660">
        <ele>5.8</ele>
        <time>2021-05-19T14:18:10Z</time>
      </trkpt>
      <trkpt lat="42.1148370" lon="-8.8415550">
        <ele>5.8</ele>
        <time>2021-05-19T14:18:11Z</time>
      </trkpt>
      <trkpt lat="42.1148230" lon="-8.8415490">
        <ele>5.8</ele>
        <time>2021-05-19T14:18:12Z</time>
      </trkpt>
      <trkpt lat="42.1148120" lon="-8.8415350">
        <ele>5.8</ele>
        <time>2021-05-19T14:18:13Z</time>
      </trkpt>
      <trkpt lat="42.1147960" lon="-8.8415360">
        <ele>5.8</ele>
        <time>2021-05-19T14:18:14Z</time>
      </trkpt>
      <trkpt lat="42.1147790" lon="-8.8415370">
        <ele>5.8</ele>
        <time>2021-05-19T14:18:15Z</time>
      </trkpt>
      <trkpt lat="42.1147630" lon="-8.8415390">
        <ele>5.8</ele>
        <time>2021-05-19T14:18:16Z</time>
      </trkpt>
      <trkpt lat="42.1147510" lon="-8.8415150">
        <ele>5.8</ele>
        <time>2021-05-19T14:18:17Z</time>
      </trkpt>
      <trkpt lat="42.1147460" lon="-8.8415080">
        <ele>5.8</ele>
        <time>2021-05-19T14:18:18Z</time>
      </trkpt>
      <trkpt lat="42.1147400" lon="-8.8415000">
        <ele>5.8</ele>
        <time>2021-05-19T14:18:19Z</time>
      </trkpt>
      <trkpt lat="42.1147310" lon="-8.8414910">
        <ele>5.9</ele>
        <time>2021-05-19T14:18:20Z</time>
      </trkpt>
      <trkpt lat="42.1147290" lon="-8.8414790">
        <ele>5.9</ele>
        <time>2021-05-19T14:18:21Z</time>
      </trkpt>
      <trkpt lat="42.1147210" lon="-8.8414710">
        <ele>5.9</ele>
        <time>2021-05-19T14:18:22Z</time>
      </trkpt>
      <trkpt lat="42.1147050" lon="-8.8414570">
        <ele>5.9</ele>
        <time>2021-05-19T14:18:23Z</time>
      </trkpt>
      <trkpt lat="42.1146940" lon="-8.8414390">
        <ele>5.9</ele>
        <time>2021-05-19T14:18:24Z</time>
      </trkpt>
      <trkpt lat="42.1146830" lon="-8.8414140">
        <ele>5.9</ele>
        <time>2021-05-19T14:18:25Z</time>
      </trkpt>
      <trkpt lat="42.1146780" lon="-8.8414040">
        <ele>5.9</ele>
        <time>2021-05-19T14:18:26Z</time>
      </trkpt>
      <trkpt lat="42.1146730" lon="-8.8413950">
        <ele>5.9</ele>
        <time>2021-05-19T14:18:27Z</time>
      </trkpt>
      <trkpt lat="42.1146680" lon="-8.8413810">
        <ele>5.9</ele>
        <time>2021-05-19T14:18:28Z</time>
      </trkpt>
      <trkpt lat="42.1146510" lon="-8.8413680">
        <ele>5.9</ele>
        <time>2021-05-19T14:18:29Z</time>
      </trkpt>
      <trkpt lat="42.1146420" lon="-8.8413610">
        <ele>5.9</ele>
        <time>2021-05-19T14:18:30Z</time>
      </trkpt>
      <trkpt lat="42.1146410" lon="-8.8413550">
        <ele>5.9</ele>
        <time>2021-05-19T14:18:31Z</time>
      </trkpt>
      <trkpt lat="42.1146360" lon="-8.8413470">
        <ele>5.9</ele>
        <time>2021-05-19T14:18:32Z</time>
      </trkpt>
      <trkpt lat="42.1146350" lon="-8.8413410">
        <ele>5.9</ele>
        <time>2021-05-19T14:18:33Z</time>
      </trkpt>
      <trkpt lat="42.1146320" lon="-8.8413310">
        <ele>5.9</ele>
        <time>2021-05-19T14:18:34Z</time>
      </trkpt>
      <trkpt lat="42.1146280" lon="-8.8413270">
        <ele>5.9</ele>
        <time>2021-05-19T14:18:35Z</time>
      </trkpt>
      <trkpt lat="42.1146230" lon="-8.8413210">
        <ele>5.9</ele>
        <time>2021-05-19T14:18:36Z</time>
      </trkpt>
      <trkpt lat="42.1146130" lon="-8.8413150">
        <ele>5.9</ele>
        <time>2021-05-19T14:18:37Z</time>
      </trkpt>
      <trkpt lat="42.1146130" lon="-8.8413200">
        <ele>5.9</ele>
        <time>2021-05-19T14:18:38Z</time>
      </trkpt>
      <trkpt lat="42.1146060" lon="-8.8413270">
        <ele>5.9</ele>
        <time>2021-05-19T14:18:39Z</time>
      </trkpt>
      <trkpt lat="42.1146000" lon="-8.8413250">
        <ele>5.9</ele>
        <time>2021-05-19T14:18:40Z</time>
      </trkpt>
      <trkpt lat="42.1145900" lon="-8.8413140">
        <ele>5.9</ele>
        <time>2021-05-19T14:18:41Z</time>
      </trkpt>
      <trkpt lat="42.1145790" lon="-8.8413070">
        <ele>5.9</ele>
        <time>2021-05-19T14:18:42Z</time>
      </trkpt>
      <trkpt lat="42.1145720" lon="-8.8412940">
        <ele>5.9</ele>
        <time>2021-05-19T14:18:43Z</time>
      </trkpt>
      <trkpt lat="42.1145530" lon="-8.8412830">
        <ele>6.0</ele>
        <time>2021-05-19T14:18:44Z</time>
      </trkpt>
      <trkpt lat="42.1145450" lon="-8.8412750">
        <ele>6.0</ele>
        <time>2021-05-19T14:18:45Z</time>
      </trkpt>
      <trkpt lat="42.1145380" lon="-8.8412680">
        <ele>6.0</ele>
        <time>2021-05-19T14:18:46Z</time>
      </trkpt>
      <trkpt lat="42.1145270" lon="-8.8412490">
        <ele>6.0</ele>
        <time>2021-05-19T14:18:47Z</time>
      </trkpt>
      <trkpt lat="42.1145220" lon="-8.8412380">
        <ele>6.0</ele>
        <time>2021-05-19T14:18:48Z</time>
      </trkpt>
      <trkpt lat="42.1145170" lon="-8.8412260">
        <ele>6.0</ele>
        <time>2021-05-19T14:18:49Z</time>
      </trkpt>
      <trkpt lat="42.1145100" lon="-8.8412100">
        <ele>6.0</ele>
        <time>2021-05-19T14:18:50Z</time>
      </trkpt>
      <trkpt lat="42.1145030" lon="-8.8412000">
        <ele>6.0</ele>
        <time>2021-05-19T14:18:51Z</time>
      </trkpt>
      <trkpt lat="42.1144970" lon="-8.8411910">
        <ele>6.0</ele>
        <time>2021-05-19T14:18:52Z</time>
      </trkpt>
      <trkpt lat="42.1144900" lon="-8.8411810">
        <ele>6.0</ele>
        <time>2021-05-19T14:18:53Z</time>
      </trkpt>
      <trkpt lat="42.1144900" lon="-8.8411740">
        <ele>6.0</ele>
        <time>2021-05-19T14:18:54Z</time>
      </trkpt>
      <trkpt lat="42.1144810" lon="-8.8411680">
        <ele>6.1</ele>
        <time>2021-05-19T14:18:55Z</time>
      </trkpt>
      <trkpt lat="42.1144730" lon="-8.8411580">
        <ele>6.1</ele>
        <time>2021-05-19T14:18:56Z</time>
      </trkpt>
      <trkpt lat="42.1144640" lon="-8.8411650">
        <ele>6.1</ele>
        <time>2021-05-19T14:18:57Z</time>
      </trkpt>
      <trkpt lat="42.1144500" lon="-8.8411500">
        <ele>6.1</ele>
        <time>2021-05-19T14:18:58Z</time>
      </trkpt>
      <trkpt lat="42.1144380" lon="-8.8411440">
        <ele>6.1</ele>
        <time>2021-05-19T14:18:59Z</time>
      </trkpt>
      <trkpt lat="42.1144320" lon="-8.8411260">
        <ele>6.1</ele>
        <time>2021-05-19T14:19:00Z</time>
      </trkpt>
      <trkpt lat="42.1144200" lon="-8.8411150">
        <ele>6.2</ele>
        <time>2021-05-19T14:19:01Z</time>
      </trkpt>
      <trkpt lat="42.1143950" lon="-8.8410760">
        <ele>6.2</ele>
        <time>2021-05-19T14:19:02Z</time>
      </trkpt>
      <trkpt lat="42.1143810" lon="-8.8410610">
        <ele>6.2</ele>
        <time>2021-05-19T14:19:03Z</time>
      </trkpt>
      <trkpt lat="42.1143580" lon="-8.8410400">
        <ele>6.4</ele>
        <time>2021-05-19T14:19:04Z</time>
      </trkpt>
      <trkpt lat="42.1143520" lon="-8.8410300">
        <ele>6.4</ele>
        <time>2021-05-19T14:19:05Z</time>
      </trkpt>
      <trkpt lat="42.1143230" lon="-8.8410080">
        <ele>6.4</ele>
        <time>2021-05-19T14:19:06Z</time>
      </trkpt>
      <trkpt lat="42.1143060" lon="-8.8409970">
        <ele>6.4</ele>
        <time>2021-05-19T14:19:07Z</time>
      </trkpt>
      <trkpt lat="42.1142960" lon="-8.8409920">
        <ele>6.4</ele>
        <time>2021-05-19T14:19:08Z</time>
      </trkpt>
      <trkpt lat="42.1142680" lon="-8.8409950">
        <ele>6.4</ele>
        <time>2021-05-19T14:19:09Z</time>
      </trkpt>
      <trkpt lat="42.1142590" lon="-8.8409940">
        <ele>6.4</ele>
        <time>2021-05-19T14:19:10Z</time>
      </trkpt>
      <trkpt lat="42.1142490" lon="-8.8409940">
        <ele>6.4</ele>
        <time>2021-05-19T14:19:11Z</time>
      </trkpt>
      <trkpt lat="42.1142250" lon="-8.8409880">
        <ele>6.4</ele>
        <time>2021-05-19T14:19:12Z</time>
      </trkpt>
      <trkpt lat="42.1142190" lon="-8.8409840">
        <ele>6.4</ele>
        <time>2021-05-19T14:19:13Z</time>
      </trkpt>
      <trkpt lat="42.1142130" lon="-8.8409800">
        <ele>6.5</ele>
        <time>2021-05-19T14:19:14Z</time>
      </trkpt>
      <trkpt lat="42.1141970" lon="-8.8409630">
        <ele>6.4</ele>
        <time>2021-05-19T14:19:15Z</time>
      </trkpt>
      <trkpt lat="42.1141920" lon="-8.8409600">
        <ele>6.4</ele>
        <time>2021-05-19T14:19:16Z</time>
      </trkpt>
      <trkpt lat="42.1141860" lon="-8.8409560">
        <ele>6.4</ele>
        <time>2021-05-19T14:19:17Z</time>
      </trkpt>
      <trkpt lat="42.1141800" lon="-8.8409530">
        <ele>6.4</ele>
        <time>2021-05-19T14:19:18Z</time>
      </trkpt>
      <trkpt lat="42.1141770" lon="-8.8409560">
        <ele>6.4</ele>
        <time>2021-05-19T14:19:19Z</time>
      </trkpt>
      <trkpt lat="42.1141740" lon="-8.8409460">
        <ele>6.4</ele>
        <time>2021-05-19T14:19:20Z</time>
      </trkpt>
      <trkpt lat="42.1141570" lon="-8.8409420">
        <ele>6.4</ele>
        <time>2021-05-19T14:19:21Z</time>
      </trkpt>
      <trkpt lat="42.1141540" lon="-8.8409320">
        <ele>6.4</ele>
        <time>2021-05-19T14:19:22Z</time>
      </trkpt>
      <trkpt lat="42.1141550" lon="-8.8409220">
        <ele>6.4</ele>
        <time>2021-05-19T14:19:23Z</time>
      </trkpt>
      <trkpt lat="42.1141540" lon="-8.8409140">
        <ele>6.4</ele>
        <time>2021-05-19T14:19:24Z</time>
      </trkpt>
      <trkpt lat="42.1141490" lon="-8.8409090">
        <ele>6.4</ele>
        <time>2021-05-19T14:19:25Z</time>
      </trkpt>
      <trkpt lat="42.1141430" lon="-8.8408900">
        <ele>6.4</ele>
        <time>2021-05-19T14:19:26Z</time>
      </trkpt>
      <trkpt lat="42.1141490" lon="-8.8408690">
        <ele>6.4</ele>
        <time>2021-05-19T14:19:27Z</time>
      </trkpt>
      <trkpt lat="42.1141540" lon="-8.8408540">
        <ele>6.4</ele>
        <time>2021-05-19T14:19:28Z</time>
      </trkpt>
      <trkpt lat="42.1141500" lon="-8.8408270">
        <ele>6.4</ele>
        <time>2021-05-19T14:19:29Z</time>
      </trkpt>
      <trkpt lat="42.1141500" lon="-8.8408130">
        <ele>6.4</ele>
        <time>2021-05-19T14:19:30Z</time>
      </trkpt>
      <trkpt lat="42.1141490" lon="-8.8408000">
        <ele>6.4</ele>
        <time>2021-05-19T14:19:31Z</time>
      </trkpt>
      <trkpt lat="42.1141520" lon="-8.8407770">
        <ele>6.4</ele>
        <time>2021-05-19T14:19:32Z</time>
      </trkpt>
      <trkpt lat="42.1141550" lon="-8.8407650">
        <ele>6.4</ele>
        <time>2021-05-19T14:19:33Z</time>
      </trkpt>
      <trkpt lat="42.1141580" lon="-8.8407540">
        <ele>6.3</ele>
        <time>2021-05-19T14:19:34Z</time>
      </trkpt>
      <trkpt lat="42.1141610" lon="-8.8407420">
        <ele>6.3</ele>
        <time>2021-05-19T14:19:35Z</time>
      </trkpt>
      <trkpt lat="42.1141660" lon="-8.8407270">
        <ele>6.3</ele>
        <time>2021-05-19T14:19:36Z</time>
      </trkpt>
      <trkpt lat="42.1141740" lon="-8.8407110">
        <ele>6.3</ele>
        <time>2021-05-19T14:19:37Z</time>
      </trkpt>
      <trkpt lat="42.1141900" lon="-8.8406790">
        <ele>6.3</ele>
        <time>2021-05-19T14:19:38Z</time>
      </trkpt>
      <trkpt lat="42.1142000" lon="-8.8406710">
        <ele>6.3</ele>
        <time>2021-05-19T14:19:39Z</time>
      </trkpt>
      <trkpt lat="42.1142140" lon="-8.8406590">
        <ele>6.3</ele>
        <time>2021-05-19T14:19:40Z</time>
      </trkpt>
      <trkpt lat="42.1142260" lon="-8.8406490">
        <ele>6.3</ele>
        <time>2021-05-19T14:19:41Z</time>
      </trkpt>
      <trkpt lat="42.1142340" lon="-8.8406290">
        <ele>6.3</ele>
        <time>2021-05-19T14:19:42Z</time>
      </trkpt>
      <trkpt lat="42.1142410" lon="-8.8406200">
        <ele>6.3</ele>
        <time>2021-05-19T14:19:43Z</time>
      </trkpt>
      <trkpt lat="42.1142490" lon="-8.8406100">
        <ele>6.2</ele>
        <time>2021-05-19T14:19:44Z</time>
      </trkpt>
      <trkpt lat="42.1142670" lon="-8.8405750">
        <ele>6.2</ele>
        <time>2021-05-19T14:19:45Z</time>
      </trkpt>
      <trkpt lat="42.1142720" lon="-8.8405660">
        <ele>6.2</ele>
        <time>2021-05-19T14:19:46Z</time>
      </trkpt>
      <trkpt lat="42.1142750" lon="-8.8405500">
        <ele>6.2</ele>
        <time>2021-05-19T14:19:47Z</time>
      </trkpt>
      <trkpt lat="42.1142760" lon="-8.8405410">
        <ele>6.2</ele>
        <time>2021-05-19T14:19:48Z</time>
      </trkpt>
      <trkpt lat="42.1142720" lon="-8.8405200">
        <ele>6.2</ele>
        <time>2021-05-19T14:19:49Z</time>
      </trkpt>
      <trkpt lat="42.1142720" lon="-8.8405050">
        <ele>6.2</ele>
        <time>2021-05-19T14:19:50Z</time>
      </trkpt>
      <trkpt lat="42.1142710" lon="-8.8404940">
        <ele>6.2</ele>
        <time>2021-05-19T14:19:51Z</time>
      </trkpt>
      <trkpt lat="42.1142670" lon="-8.8404820">
        <ele>6.2</ele>
        <time>2021-05-19T14:19:52Z</time>
      </trkpt>
      <trkpt lat="42.1142590" lon="-8.8404640">
        <ele>6.2</ele>
        <time>2021-05-19T14:19:53Z</time>
      </trkpt>
      <trkpt lat="42.1142600" lon="-8.8404460">
        <ele>6.2</ele>
        <time>2021-05-19T14:19:54Z</time>
      </trkpt>
      <trkpt lat="42.1142580" lon="-8.8404310">
        <ele>6.2</ele>
        <time>2021-05-19T14:19:55Z</time>
      </trkpt>
      <trkpt lat="42.1142540" lon="-8.8404260">
        <ele>6.2</ele>
        <time>2021-05-19T14:19:56Z</time>
      </trkpt>
      <trkpt lat="42.1142520" lon="-8.8404080">
        <ele>6.1</ele>
        <time>2021-05-19T14:19:57Z</time>
      </trkpt>
      <trkpt lat="42.1142510" lon="-8.8403900">
        <ele>6.1</ele>
        <time>2021-05-19T14:19:58Z</time>
      </trkpt>
      <trkpt lat="42.1142440" lon="-8.8403700">
        <ele>6.1</ele>
        <time>2021-05-19T14:19:59Z</time>
      </trkpt>
      <trkpt lat="42.1142380" lon="-8.8403540">
        <ele>6.1</ele>
        <time>2021-05-19T14:20:00Z</time>
      </trkpt>
      <trkpt lat="42.1142300" lon="-8.8403260">
        <ele>6.1</ele>
        <time>2021-05-19T14:20:01Z</time>
      </trkpt>
      <trkpt lat="42.1142240" lon="-8.8403090">
        <ele>6.1</ele>
        <time>2021-05-19T14:20:02Z</time>
      </trkpt>
      <trkpt lat="42.1142210" lon="-8.8402950">
        <ele>6.1</ele>
        <time>2021-05-19T14:20:03Z</time>
      </trkpt>
      <trkpt lat="42.1142160" lon="-8.8402810">
        <ele>6.1</ele>
        <time>2021-05-19T14:20:04Z</time>
      </trkpt>
      <trkpt lat="42.1142120" lon="-8.8402670">
        <ele>6.1</ele>
        <time>2021-05-19T14:20:05Z</time>
      </trkpt>
      <trkpt lat="42.1142040" lon="-8.8402590">
        <ele>6.1</ele>
        <time>2021-05-19T14:20:06Z</time>
      </trkpt>
      <trkpt lat="42.1142000" lon="-8.8402500">
        <ele>6.1</ele>
        <time>2021-05-19T14:20:07Z</time>
      </trkpt>
      <trkpt lat="42.1142000" lon="-8.8402440">
        <ele>6.1</ele>
        <time>2021-05-19T14:20:08Z</time>
      </trkpt>
      <trkpt lat="42.1141920" lon="-8.8402250">
        <ele>6.1</ele>
        <time>2021-05-19T14:20:09Z</time>
      </trkpt>
      <trkpt lat="42.1141860" lon="-8.8402090">
        <ele>6.1</ele>
        <time>2021-05-19T14:20:10Z</time>
      </trkpt>
      <trkpt lat="42.1141830" lon="-8.8401930">
        <ele>6.1</ele>
        <time>2021-05-19T14:20:11Z</time>
      </trkpt>
      <trkpt lat="42.1141740" lon="-8.8401660">
        <ele>6.1</ele>
        <time>2021-05-19T14:20:12Z</time>
      </trkpt>
      <trkpt lat="42.1141750" lon="-8.8401560">
        <ele>6.1</ele>
        <time>2021-05-19T14:20:13Z</time>
      </trkpt>
      <trkpt lat="42.1141710" lon="-8.8401310">
        <ele>6.0</ele>
        <time>2021-05-19T14:20:14Z</time>
      </trkpt>
      <trkpt lat="42.1141670" lon="-8.8401210">
        <ele>6.0</ele>
        <time>2021-05-19T14:20:15Z</time>
      </trkpt>
      <trkpt lat="42.1141620" lon="-8.8400940">
        <ele>6.0</ele>
        <time>2021-05-19T14:20:16Z</time>
      </trkpt>
      <trkpt lat="42.1141580" lon="-8.8400830">
        <ele>6.0</ele>
        <time>2021-05-19T14:20:17Z</time>
      </trkpt>
      <trkpt lat="42.1141540" lon="-8.8400710">
        <ele>6.0</ele>
        <time>2021-05-19T14:20:18Z</time>
      </trkpt>
      <trkpt lat="42.1141430" lon="-8.8400430">
        <ele>6.0</ele>
        <time>2021-05-19T14:20:19Z</time>
      </trkpt>
      <trkpt lat="42.1141410" lon="-8.8400330">
        <ele>6.0</ele>
        <time>2021-05-19T14:20:20Z</time>
      </trkpt>
      <trkpt lat="42.1141380" lon="-8.8400230">
        <ele>6.0</ele>
        <time>2021-05-19T14:20:21Z</time>
      </trkpt>
      <trkpt lat="42.1141320" lon="-8.8400060">
        <ele>6.0</ele>
        <time>2021-05-19T14:20:22Z</time>
      </trkpt>
      <trkpt lat="42.1141290" lon="-8.8399870">
        <ele>6.0</ele>
        <time>2021-05-19T14:20:23Z</time>
      </trkpt>
      <trkpt lat="42.1141230" lon="-8.8399710">
        <ele>6.0</ele>
        <time>2021-05-19T14:20:24Z</time>
      </trkpt>
      <trkpt lat="42.1141190" lon="-8.8399530">
        <ele>6.0</ele>
        <time>2021-05-19T14:20:25Z</time>
      </trkpt>
      <trkpt lat="42.1141140" lon="-8.8399380">
        <ele>6.0</ele>
        <time>2021-05-19T14:20:26Z</time>
      </trkpt>
      <trkpt lat="42.1141090" lon="-8.8399170">
        <ele>6.0</ele>
        <time>2021-05-19T14:20:27Z</time>
      </trkpt>
      <trkpt lat="42.1141080" lon="-8.8399050">
        <ele>6.0</ele>
        <time>2021-05-19T14:20:28Z</time>
      </trkpt>
      <trkpt lat="42.1141050" lon="-8.8398870">
        <ele>6.0</ele>
        <time>2021-05-19T14:20:29Z</time>
      </trkpt>
      <trkpt lat="42.1141010" lon="-8.8398750">
        <ele>6.0</ele>
        <time>2021-05-19T14:20:30Z</time>
      </trkpt>
      <trkpt lat="42.1141030" lon="-8.8398650">
        <ele>6.0</ele>
        <time>2021-05-19T14:20:31Z</time>
      </trkpt>
      <trkpt lat="42.1141030" lon="-8.8398540">
        <ele>6.0</ele>
        <time>2021-05-19T14:20:32Z</time>
      </trkpt>
      <trkpt lat="42.1140990" lon="-8.8398360">
        <ele>6.0</ele>
        <time>2021-05-19T14:20:33Z</time>
      </trkpt>
      <trkpt lat="42.1140990" lon="-8.8398160">
        <ele>6.0</ele>
        <time>2021-05-19T14:20:34Z</time>
      </trkpt>
      <trkpt lat="42.1140940" lon="-8.8398090">
        <ele>6.0</ele>
        <time>2021-05-19T14:20:35Z</time>
      </trkpt>
      <trkpt lat="42.1140930" lon="-8.8397950">
        <ele>6.0</ele>
        <time>2021-05-19T14:20:36Z</time>
      </trkpt>
      <trkpt lat="42.1140970" lon="-8.8397640">
        <ele>6.0</ele>
        <time>2021-05-19T14:20:37Z</time>
      </trkpt>
      <trkpt lat="42.1140960" lon="-8.8397510">
        <ele>6.0</ele>
        <time>2021-05-19T14:20:38Z</time>
      </trkpt>
      <trkpt lat="42.1140950" lon="-8.8397390">
        <ele>6.0</ele>
        <time>2021-05-19T14:20:39Z</time>
      </trkpt>
      <trkpt lat="42.1140930" lon="-8.8397280">
        <ele>6.0</ele>
        <time>2021-05-19T14:20:40Z</time>
      </trkpt>
      <trkpt lat="42.1140890" lon="-8.8397200">
        <ele>6.0</ele>
        <time>2021-05-19T14:20:41Z</time>
      </trkpt>
      <trkpt lat="42.1140860" lon="-8.8397040">
        <ele>6.0</ele>
        <time>2021-05-19T14:20:42Z</time>
      </trkpt>
      <trkpt lat="42.1140890" lon="-8.8396910">
        <ele>6.0</ele>
        <time>2021-05-19T14:20:43Z</time>
      </trkpt>
      <trkpt lat="42.1140860" lon="-8.8396810">
        <ele>6.0</ele>
        <time>2021-05-19T14:20:44Z</time>
      </trkpt>
      <trkpt lat="42.1140870" lon="-8.8396730">
        <ele>6.0</ele>
        <time>2021-05-19T14:20:45Z</time>
      </trkpt>
      <trkpt lat="42.1140870" lon="-8.8396630">
        <ele>6.0</ele>
        <time>2021-05-19T14:20:46Z</time>
      </trkpt>
      <trkpt lat="42.1140830" lon="-8.8396560">
        <ele>6.0</ele>
        <time>2021-05-19T14:20:47Z</time>
      </trkpt>
      <trkpt lat="42.1140810" lon="-8.8396500">
        <ele>6.0</ele>
        <time>2021-05-19T14:20:48Z</time>
      </trkpt>
      <trkpt lat="42.1140750" lon="-8.8396270">
        <ele>6.0</ele>
        <time>2021-05-19T14:20:49Z</time>
      </trkpt>
      <trkpt lat="42.1140760" lon="-8.8396190">
        <ele>6.0</ele>
        <time>2021-05-19T14:20:50Z</time>
      </trkpt>
      <trkpt lat="42.1140680" lon="-8.8395950">
        <ele>6.0</ele>
        <time>2021-05-19T14:20:51Z</time>
      </trkpt>
      <trkpt lat="42.1140620" lon="-8.8395820">
        <ele>6.0</ele>
        <time>2021-05-19T14:20:52Z</time>
      </trkpt>
      <trkpt lat="42.1140530" lon="-8.8395500">
        <ele>6.0</ele>
        <time>2021-05-19T14:20:53Z</time>
      </trkpt>
      <trkpt lat="42.1140500" lon="-8.8395420">
        <ele>6.0</ele>
        <time>2021-05-19T14:20:54Z</time>
      </trkpt>
      <trkpt lat="42.1140460" lon="-8.8395340">
        <ele>6.0</ele>
        <time>2021-05-19T14:20:55Z</time>
      </trkpt>
      <trkpt lat="42.1140430" lon="-8.8395160">
        <ele>6.0</ele>
        <time>2021-05-19T14:20:56Z</time>
      </trkpt>
      <trkpt lat="42.1140410" lon="-8.8395030">
        <ele>6.0</ele>
        <time>2021-05-19T14:20:57Z</time>
      </trkpt>
      <trkpt lat="42.1140380" lon="-8.8394890">
        <ele>6.0</ele>
        <time>2021-05-19T14:20:58Z</time>
      </trkpt>
      <trkpt lat="42.1140360" lon="-8.8394760">
        <ele>6.0</ele>
        <time>2021-05-19T14:20:59Z</time>
      </trkpt>
      <trkpt lat="42.1140220" lon="-8.8394560">
        <ele>6.0</ele>
        <time>2021-05-19T14:21:00Z</time>
      </trkpt>
      <trkpt lat="42.1140170" lon="-8.8394440">
        <ele>6.0</ele>
        <time>2021-05-19T14:21:01Z</time>
      </trkpt>
      <trkpt lat="42.1140110" lon="-8.8394330">
        <ele>6.0</ele>
        <time>2021-05-19T14:21:02Z</time>
      </trkpt>
      <trkpt lat="42.1140050" lon="-8.8394170">
        <ele>6.0</ele>
        <time>2021-05-19T14:21:03Z</time>
      </trkpt>
      <trkpt lat="42.1140020" lon="-8.8393990">
        <ele>6.0</ele>
        <time>2021-05-19T14:21:04Z</time>
      </trkpt>
      <trkpt lat="42.1139960" lon="-8.8393730">
        <ele>6.0</ele>
        <time>2021-05-19T14:21:05Z</time>
      </trkpt>
      <trkpt lat="42.1139950" lon="-8.8393610">
        <ele>6.0</ele>
        <time>2021-05-19T14:21:06Z</time>
      </trkpt>
      <trkpt lat="42.1139950" lon="-8.8393500">
        <ele>6.0</ele>
        <time>2021-05-19T14:21:07Z</time>
      </trkpt>
      <trkpt lat="42.1139940" lon="-8.8393340">
        <ele>6.0</ele>
        <time>2021-05-19T14:21:08Z</time>
      </trkpt>
      <trkpt lat="42.1139910" lon="-8.8393130">
        <ele>6.0</ele>
        <time>2021-05-19T14:21:09Z</time>
      </trkpt>
      <trkpt lat="42.1139900" lon="-8.8393010">
        <ele>6.0</ele>
        <time>2021-05-19T14:21:10Z</time>
      </trkpt>
      <trkpt lat="42.1139830" lon="-8.8392780">
        <ele>6.0</ele>
        <time>2021-05-19T14:21:11Z</time>
      </trkpt>
      <trkpt lat="42.1139790" lon="-8.8392650">
        <ele>6.0</ele>
        <time>2021-05-19T14:21:12Z</time>
      </trkpt>
      <trkpt lat="42.1139780" lon="-8.8392510">
        <ele>6.0</ele>
        <time>2021-05-19T14:21:13Z</time>
      </trkpt>
      <trkpt lat="42.1139770" lon="-8.8392420">
        <ele>6.0</ele>
        <time>2021-05-19T14:21:14Z</time>
      </trkpt>
      <trkpt lat="42.1139740" lon="-8.8392250">
        <ele>6.0</ele>
        <time>2021-05-19T14:21:15Z</time>
      </trkpt>
      <trkpt lat="42.1139710" lon="-8.8392180">
        <ele>6.0</ele>
        <time>2021-05-19T14:21:16Z</time>
      </trkpt>
      <trkpt lat="42.1139670" lon="-8.8392040">
        <ele>6.0</ele>
        <time>2021-05-19T14:21:17Z</time>
      </trkpt>
      <trkpt lat="42.1139610" lon="-8.8391850">
        <ele>6.0</ele>
        <time>2021-05-19T14:21:18Z</time>
      </trkpt>
      <trkpt lat="42.1139540" lon="-8.8391670">
        <ele>6.0</ele>
        <time>2021-05-19T14:21:19Z</time>
      </trkpt>
      <trkpt lat="42.1139500" lon="-8.8391520">
        <ele>6.0</ele>
        <time>2021-05-19T14:21:20Z</time>
      </trkpt>
      <trkpt lat="42.1139410" lon="-8.8391330">
        <ele>6.0</ele>
        <time>2021-05-19T14:21:21Z</time>
      </trkpt>
      <trkpt lat="42.1139420" lon="-8.8391180">
        <ele>6.0</ele>
        <time>2021-05-19T14:21:22Z</time>
      </trkpt>
      <trkpt lat="42.1139310" lon="-8.8391040">
        <ele>6.0</ele>
        <time>2021-05-19T14:21:23Z</time>
      </trkpt>
      <trkpt lat="42.1139250" lon="-8.8390910">
        <ele>6.0</ele>
        <time>2021-05-19T14:21:24Z</time>
      </trkpt>
      <trkpt lat="42.1139220" lon="-8.8390710">
        <ele>6.0</ele>
        <time>2021-05-19T14:21:25Z</time>
      </trkpt>
      <trkpt lat="42.1139200" lon="-8.8390620">
        <ele>6.0</ele>
        <time>2021-05-19T14:21:26Z</time>
      </trkpt>
      <trkpt lat="42.1139170" lon="-8.8390530">
        <ele>6.0</ele>
        <time>2021-05-19T14:21:27Z</time>
      </trkpt>
      <trkpt lat="42.1139150" lon="-8.8390440">
        <ele>6.0</ele>
        <time>2021-05-19T14:21:28Z</time>
      </trkpt>
      <trkpt lat="42.1139100" lon="-8.8390210">
        <ele>6.0</ele>
        <time>2021-05-19T14:21:29Z</time>
      </trkpt>
      <trkpt lat="42.1139060" lon="-8.8390080">
        <ele>6.0</ele>
        <time>2021-05-19T14:21:30Z</time>
      </trkpt>
      <trkpt lat="42.1139020" lon="-8.8389920">
        <ele>6.0</ele>
        <time>2021-05-19T14:21:31Z</time>
      </trkpt>
      <trkpt lat="42.1138960" lon="-8.8389870">
        <ele>6.0</ele>
        <time>2021-05-19T14:21:32Z</time>
      </trkpt>
      <trkpt lat="42.1138940" lon="-8.8389660">
        <ele>6.0</ele>
        <time>2021-05-19T14:21:33Z</time>
      </trkpt>
      <trkpt lat="42.1138930" lon="-8.8389600">
        <ele>6.0</ele>
        <time>2021-05-19T14:21:34Z</time>
      </trkpt>
      <trkpt lat="42.1138920" lon="-8.8389380">
        <ele>6.0</ele>
        <time>2021-05-19T14:21:35Z</time>
      </trkpt>
      <trkpt lat="42.1138900" lon="-8.8389290">
        <ele>6.0</ele>
        <time>2021-05-19T14:21:36Z</time>
      </trkpt>
      <trkpt lat="42.1138830" lon="-8.8388990">
        <ele>6.0</ele>
        <time>2021-05-19T14:21:37Z</time>
      </trkpt>
      <trkpt lat="42.1138790" lon="-8.8388900">
        <ele>6.0</ele>
        <time>2021-05-19T14:21:38Z</time>
      </trkpt>
      <trkpt lat="42.1138760" lon="-8.8388810">
        <ele>6.0</ele>
        <time>2021-05-19T14:21:39Z</time>
      </trkpt>
      <trkpt lat="42.1138700" lon="-8.8388610">
        <ele>6.0</ele>
        <time>2021-05-19T14:21:40Z</time>
      </trkpt>
      <trkpt lat="42.1138640" lon="-8.8388470">
        <ele>6.0</ele>
        <time>2021-05-19T14:21:41Z</time>
      </trkpt>
      <trkpt lat="42.1138610" lon="-8.8388410">
        <ele>6.0</ele>
        <time>2021-05-19T14:21:42Z</time>
      </trkpt>
      <trkpt lat="42.1138580" lon="-8.8388180">
        <ele>6.1</ele>
        <time>2021-05-19T14:21:43Z</time>
      </trkpt>
      <trkpt lat="42.1138530" lon="-8.8388010">
        <ele>6.1</ele>
        <time>2021-05-19T14:21:44Z</time>
      </trkpt>
      <trkpt lat="42.1138470" lon="-8.8387870">
        <ele>6.1</ele>
        <time>2021-05-19T14:21:45Z</time>
      </trkpt>
      <trkpt lat="42.1138410" lon="-8.8387770">
        <ele>6.1</ele>
        <time>2021-05-19T14:21:46Z</time>
      </trkpt>
      <trkpt lat="42.1138350" lon="-8.8387650">
        <ele>6.1</ele>
        <time>2021-05-19T14:21:47Z</time>
      </trkpt>
      <trkpt lat="42.1138280" lon="-8.8387490">
        <ele>6.1</ele>
        <time>2021-05-19T14:21:48Z</time>
      </trkpt>
      <trkpt lat="42.1138200" lon="-8.8387340">
        <ele>6.1</ele>
        <time>2021-05-19T14:21:49Z</time>
      </trkpt>
      <trkpt lat="42.1138150" lon="-8.8387260">
        <ele>6.1</ele>
        <time>2021-05-19T14:21:50Z</time>
      </trkpt>
      <trkpt lat="42.1138050" lon="-8.8387180">
        <ele>6.1</ele>
        <time>2021-05-19T14:21:51Z</time>
      </trkpt>
      <trkpt lat="42.1138000" lon="-8.8387090">
        <ele>6.1</ele>
        <time>2021-05-19T14:21:52Z</time>
      </trkpt>
      <trkpt lat="42.1137900" lon="-8.8386980">
        <ele>6.1</ele>
        <time>2021-05-19T14:21:53Z</time>
      </trkpt>
      <trkpt lat="42.1137800" lon="-8.8386810">
        <ele>6.1</ele>
        <time>2021-05-19T14:21:54Z</time>
      </trkpt>
      <trkpt lat="42.1137680" lon="-8.8386610">
        <ele>6.1</ele>
        <time>2021-05-19T14:21:55Z</time>
      </trkpt>
      <trkpt lat="42.1137630" lon="-8.8386500">
        <ele>6.1</ele>
        <time>2021-05-19T14:21:56Z</time>
      </trkpt>
      <trkpt lat="42.1137570" lon="-8.8386400">
        <ele>6.1</ele>
        <time>2021-05-19T14:21:57Z</time>
      </trkpt>
      <trkpt lat="42.1137460" lon="-8.8386240">
        <ele>6.1</ele>
        <time>2021-05-19T14:21:58Z</time>
      </trkpt>
      <trkpt lat="42.1137400" lon="-8.8386220">
        <ele>6.1</ele>
        <time>2021-05-19T14:21:59Z</time>
      </trkpt>
      <trkpt lat="42.1137350" lon="-8.8386190">
        <ele>6.1</ele>
        <time>2021-05-19T14:22:00Z</time>
      </trkpt>
      <trkpt lat="42.1137290" lon="-8.8386170">
        <ele>6.1</ele>
        <time>2021-05-19T14:22:01Z</time>
      </trkpt>
      <trkpt lat="42.1137240" lon="-8.8386150">
        <ele>6.4</ele>
        <time>2021-05-19T14:22:02Z</time>
      </trkpt>
      <trkpt lat="42.1137030" lon="-8.8386180">
        <ele>6.4</ele>
        <time>2021-05-19T14:22:03Z</time>
      </trkpt>
      <trkpt lat="42.1136930" lon="-8.8386230">
        <ele>6.7</ele>
        <time>2021-05-19T14:22:04Z</time>
      </trkpt>
      <trkpt lat="42.1136840" lon="-8.8386290">
        <ele>6.7</ele>
        <time>2021-05-19T14:22:05Z</time>
      </trkpt>
      <trkpt lat="42.1136750" lon="-8.8386320">
        <ele>6.6</ele>
        <time>2021-05-19T14:22:06Z</time>
      </trkpt>
      <trkpt lat="42.1136580" lon="-8.8386470">
        <ele>6.9</ele>
        <time>2021-05-19T14:22:07Z</time>
      </trkpt>
      <trkpt lat="42.1136470" lon="-8.8386520">
        <ele>6.9</ele>
        <time>2021-05-19T14:22:08Z</time>
      </trkpt>
      <trkpt lat="42.1136320" lon="-8.8386640">
        <ele>7.3</ele>
        <time>2021-05-19T14:22:09Z</time>
      </trkpt>
      <trkpt lat="42.1136200" lon="-8.8386840">
        <ele>7.2</ele>
        <time>2021-05-19T14:22:10Z</time>
      </trkpt>
      <trkpt lat="42.1136070" lon="-8.8386960">
        <ele>7.2</ele>
        <time>2021-05-19T14:22:11Z</time>
      </trkpt>
      <trkpt lat="42.1135940" lon="-8.8387150">
        <ele>7.5</ele>
        <time>2021-05-19T14:22:12Z</time>
      </trkpt>
      <trkpt lat="42.1135880" lon="-8.8387240">
        <ele>7.4</ele>
        <time>2021-05-19T14:22:13Z</time>
      </trkpt>
      <trkpt lat="42.1135820" lon="-8.8387340">
        <ele>7.4</ele>
        <time>2021-05-19T14:22:14Z</time>
      </trkpt>
      <trkpt lat="42.1135650" lon="-8.8387580">
        <ele>7.7</ele>
        <time>2021-05-19T14:22:15Z</time>
      </trkpt>
      <trkpt lat="42.1135580" lon="-8.8387700">
        <ele>7.6</ele>
        <time>2021-05-19T14:22:16Z</time>
      </trkpt>
      <trkpt lat="42.1135580" lon="-8.8387890">
        <ele>7.6</ele>
        <time>2021-05-19T14:22:17Z</time>
      </trkpt>
      <trkpt lat="42.1135500" lon="-8.8388090">
        <ele>7.5</ele>
        <time>2021-05-19T14:22:18Z</time>
      </trkpt>
      <trkpt lat="42.1135430" lon="-8.8388230">
        <ele>7.5</ele>
        <time>2021-05-19T14:22:19Z</time>
      </trkpt>
      <trkpt lat="42.1135350" lon="-8.8388460">
        <ele>7.7</ele>
        <time>2021-05-19T14:22:20Z</time>
      </trkpt>
      <trkpt lat="42.1135310" lon="-8.8388600">
        <ele>7.7</ele>
        <time>2021-05-19T14:22:21Z</time>
      </trkpt>
      <trkpt lat="42.1135150" lon="-8.8388650">
        <ele>7.7</ele>
        <time>2021-05-19T14:22:22Z</time>
      </trkpt>
      <trkpt lat="42.1135090" lon="-8.8388580">
        <ele>7.7</ele>
        <time>2021-05-19T14:22:23Z</time>
      </trkpt>
      <trkpt lat="42.1135070" lon="-8.8388600">
        <ele>7.7</ele>
        <time>2021-05-19T14:22:24Z</time>
      </trkpt>
      <trkpt lat="42.1135140" lon="-8.8388610">
        <ele>7.7</ele>
        <time>2021-05-19T14:22:25Z</time>
      </trkpt>
      <trkpt lat="42.1135080" lon="-8.8388620">
        <ele>7.7</ele>
        <time>2021-05-19T14:22:26Z</time>
      </trkpt>
      <trkpt lat="42.1135060" lon="-8.8388570">
        <ele>7.7</ele>
        <time>2021-05-19T14:22:27Z</time>
      </trkpt>
      <trkpt lat="42.1134990" lon="-8.8388560">
        <ele>8.0</ele>
        <time>2021-05-19T14:22:28Z</time>
      </trkpt>
      <trkpt lat="42.1135030" lon="-8.8388540">
        <ele>8.0</ele>
        <time>2021-05-19T14:22:29Z</time>
      </trkpt>
      <trkpt lat="42.1135020" lon="-8.8388370">
        <ele>8.1</ele>
        <time>2021-05-19T14:22:30Z</time>
      </trkpt>
      <trkpt lat="42.1135000" lon="-8.8388290">
        <ele>8.1</ele>
        <time>2021-05-19T14:22:31Z</time>
      </trkpt>
      <trkpt lat="42.1134990" lon="-8.8388260">
        <ele>8.1</ele>
        <time>2021-05-19T14:22:32Z</time>
      </trkpt>
      <trkpt lat="42.1134970" lon="-8.8388180">
        <ele>8.1</ele>
        <time>2021-05-19T14:22:33Z</time>
      </trkpt>
      <trkpt lat="42.1134920" lon="-8.8388130">
        <ele>8.1</ele>
        <time>2021-05-19T14:22:34Z</time>
      </trkpt>
      <trkpt lat="42.1134910" lon="-8.8388140">
        <ele>8.1</ele>
        <time>2021-05-19T14:22:35Z</time>
      </trkpt>
      <trkpt lat="42.1134890" lon="-8.8388140">
        <ele>8.1</ele>
        <time>2021-05-19T14:22:36Z</time>
      </trkpt>
      <trkpt lat="42.1134880" lon="-8.8388150">
        <ele>8.1</ele>
        <time>2021-05-19T14:22:37Z</time>
      </trkpt>
      <trkpt lat="42.1134870" lon="-8.8388160">
        <ele>8.1</ele>
        <time>2021-05-19T14:22:38Z</time>
      </trkpt>
      <trkpt lat="42.1134860" lon="-8.8388170">
        <ele>8.1</ele>
        <time>2021-05-19T14:22:39Z</time>
      </trkpt>
      <trkpt lat="42.1134850" lon="-8.8388170">
        <ele>8.1</ele>
        <time>2021-05-19T14:22:40Z</time>
      </trkpt>
      <trkpt lat="42.1134830" lon="-8.8388180">
        <ele>8.1</ele>
        <time>2021-05-19T14:22:41Z</time>
      </trkpt>
      <trkpt lat="42.1134820" lon="-8.8388190">
        <ele>8.1</ele>
        <time>2021-05-19T14:22:42Z</time>
      </trkpt>
      <trkpt lat="42.1134810" lon="-8.8388200">
        <ele>8.1</ele>
        <time>2021-05-19T14:22:43Z</time>
      </trkpt>
      <trkpt lat="42.1134800" lon="-8.8388200">
        <ele>8.1</ele>
        <time>2021-05-19T14:22:44Z</time>
      </trkpt>
      <trkpt lat="42.1134790" lon="-8.8388210">
        <ele>8.1</ele>
        <time>2021-05-19T14:22:45Z</time>
      </trkpt>
      <trkpt lat="42.1134780" lon="-8.8388220">
        <ele>8.1</ele>
        <time>2021-05-19T14:22:46Z</time>
      </trkpt>
      <trkpt lat="42.1134760" lon="-8.8388230">
        <ele>8.1</ele>
        <time>2021-05-19T14:22:47Z</time>
      </trkpt>
      <trkpt lat="42.1134750" lon="-8.8388240">
        <ele>8.1</ele>
        <time>2021-05-19T14:22:48Z</time>
      </trkpt>
      <trkpt lat="42.1134740" lon="-8.8388240">
        <ele>8.1</ele>
        <time>2021-05-19T14:22:49Z</time>
      </trkpt>
      <trkpt lat="42.1134730" lon="-8.8388250">
        <ele>8.4</ele>
        <time>2021-05-19T14:22:50Z</time>
      </trkpt>
      <trkpt lat="42.1134720" lon="-8.8388260">
        <ele>8.4</ele>
        <time>2021-05-19T14:22:51Z</time>
      </trkpt>
      <trkpt lat="42.1134700" lon="-8.8388270">
        <ele>8.4</ele>
        <time>2021-05-19T14:22:52Z</time>
      </trkpt>
      <trkpt lat="42.1134690" lon="-8.8388270">
        <ele>8.4</ele>
        <time>2021-05-19T14:22:53Z</time>
      </trkpt>
      <trkpt lat="42.1134680" lon="-8.8388280">
        <ele>8.4</ele>
        <time>2021-05-19T14:22:54Z</time>
      </trkpt>
      <trkpt lat="42.1134670" lon="-8.8388290">
        <ele>8.4</ele>
        <time>2021-05-19T14:22:55Z</time>
      </trkpt>
      <trkpt lat="42.1134660" lon="-8.8388300">
        <ele>8.4</ele>
        <time>2021-05-19T14:22:56Z</time>
      </trkpt>
      <trkpt lat="42.1134640" lon="-8.8388300">
        <ele>8.4</ele>
        <time>2021-05-19T14:22:57Z</time>
      </trkpt>
      <trkpt lat="42.1134630" lon="-8.8388310">
        <ele>8.4</ele>
        <time>2021-05-19T14:22:58Z</time>
      </trkpt>
      <trkpt lat="42.1134620" lon="-8.8388320">
        <ele>8.4</ele>
        <time>2021-05-19T14:22:59Z</time>
      </trkpt>
      <trkpt lat="42.1134610" lon="-8.8388150">
        <ele>8.4</ele>
        <time>2021-05-19T14:23:00Z</time>
      </trkpt>
      <trkpt lat="42.1134590" lon="-8.8388060">
        <ele>8.4</ele>
        <time>2021-05-19T14:23:01Z</time>
      </trkpt>
      <trkpt lat="42.1134580" lon="-8.8387960">
        <ele>8.5</ele>
        <time>2021-05-19T14:23:02Z</time>
      </trkpt>
      <trkpt lat="42.1134560" lon="-8.8387870">
        <ele>8.5</ele>
        <time>2021-05-19T14:23:03Z</time>
      </trkpt>
      <trkpt lat="42.1134540" lon="-8.8387770">
        <ele>8.5</ele>
        <time>2021-05-19T14:23:04Z</time>
      </trkpt>
      <trkpt lat="42.1134460" lon="-8.8387860">
        <ele>8.5</ele>
        <time>2021-05-19T14:23:05Z</time>
      </trkpt>
      <trkpt lat="42.1134410" lon="-8.8387670">
        <ele>8.8</ele>
        <time>2021-05-19T14:23:06Z</time>
      </trkpt>
      <trkpt lat="42.1134360" lon="-8.8387610">
        <ele>8.8</ele>
        <time>2021-05-19T14:23:07Z</time>
      </trkpt>
      <trkpt lat="42.1134350" lon="-8.8387600">
        <ele>8.8</ele>
        <time>2021-05-19T14:23:08Z</time>
      </trkpt>
      <trkpt lat="42.1134310" lon="-8.8387640">
        <ele>8.8</ele>
        <time>2021-05-19T14:23:09Z</time>
      </trkpt>
      <trkpt lat="42.1134250" lon="-8.8387720">
        <ele>8.8</ele>
        <time>2021-05-19T14:23:10Z</time>
      </trkpt>
      <trkpt lat="42.1134200" lon="-8.8387810">
        <ele>8.8</ele>
        <time>2021-05-19T14:23:11Z</time>
      </trkpt>
      <trkpt lat="42.1134170" lon="-8.8387820">
        <ele>8.8</ele>
        <time>2021-05-19T14:23:12Z</time>
      </trkpt>
      <trkpt lat="42.1134170" lon="-8.8387750">
        <ele>8.8</ele>
        <time>2021-05-19T14:23:13Z</time>
      </trkpt>
      <trkpt lat="42.1134140" lon="-8.8387770">
        <ele>8.8</ele>
        <time>2021-05-19T14:23:14Z</time>
      </trkpt>
      <trkpt lat="42.1134100" lon="-8.8387840">
        <ele>8.8</ele>
        <time>2021-05-19T14:23:15Z</time>
      </trkpt>
      <trkpt lat="42.1134070" lon="-8.8387860">
        <ele>9.0</ele>
        <time>2021-05-19T14:23:16Z</time>
      </trkpt>
      <trkpt lat="42.1134050" lon="-8.8387870">
        <ele>9.0</ele>
        <time>2021-05-19T14:23:17Z</time>
      </trkpt>
      <trkpt lat="42.1134020" lon="-8.8387890">
        <ele>9.0</ele>
        <time>2021-05-19T14:23:18Z</time>
      </trkpt>
      <trkpt lat="42.1133980" lon="-8.8387930">
        <ele>9.0</ele>
        <time>2021-05-19T14:23:19Z</time>
      </trkpt>
      <trkpt lat="42.1134000" lon="-8.8387870">
        <ele>9.0</ele>
        <time>2021-05-19T14:23:20Z</time>
      </trkpt>
      <trkpt lat="42.1134020" lon="-8.8387810">
        <ele>9.0</ele>
        <time>2021-05-19T14:23:21Z</time>
      </trkpt>
      <trkpt lat="42.1133880" lon="-8.8387960">
        <ele>9.0</ele>
        <time>2021-05-19T14:23:22Z</time>
      </trkpt>
      <trkpt lat="42.1133690" lon="-8.8388100">
        <ele>9.2</ele>
        <time>2021-05-19T14:23:23Z</time>
      </trkpt>
      <trkpt lat="42.1133710" lon="-8.8388220">
        <ele>9.2</ele>
        <time>2021-05-19T14:23:24Z</time>
      </trkpt>
      <trkpt lat="42.1133710" lon="-8.8388270">
        <ele>9.2</ele>
        <time>2021-05-19T14:23:25Z</time>
      </trkpt>
      <trkpt lat="42.1133690" lon="-8.8388100">
        <ele>9.2</ele>
        <time>2021-05-19T14:23:26Z</time>
      </trkpt>
      <trkpt lat="42.1133680" lon="-8.8388090">
        <ele>9.2</ele>
        <time>2021-05-19T14:23:27Z</time>
      </trkpt>
      <trkpt lat="42.1133660" lon="-8.8388150">
        <ele>9.2</ele>
        <time>2021-05-19T14:23:28Z</time>
      </trkpt>
      <trkpt lat="42.1133850" lon="-8.8388040">
        <ele>8.9</ele>
        <time>2021-05-19T14:23:29Z</time>
      </trkpt>
      <trkpt lat="42.1133960" lon="-8.8387940">
        <ele>9.0</ele>
        <time>2021-05-19T14:23:30Z</time>
      </trkpt>
      <trkpt lat="42.1133960" lon="-8.8387780">
        <ele>9.0</ele>
        <time>2021-05-19T14:23:31Z</time>
      </trkpt>
      <trkpt lat="42.1133920" lon="-8.8387660">
        <ele>9.0</ele>
        <time>2021-05-19T14:23:32Z</time>
      </trkpt>
      <trkpt lat="42.1133920" lon="-8.8387770">
        <ele>9.0</ele>
        <time>2021-05-19T14:23:33Z</time>
      </trkpt>
      <trkpt lat="42.1134010" lon="-8.8387800">
        <ele>9.0</ele>
        <time>2021-05-19T14:23:34Z</time>
      </trkpt>
      <trkpt lat="42.1134020" lon="-8.8387860">
        <ele>9.0</ele>
        <time>2021-05-19T14:23:35Z</time>
      </trkpt>
      <trkpt lat="42.1134100" lon="-8.8387770">
        <ele>8.8</ele>
        <time>2021-05-19T14:23:36Z</time>
      </trkpt>
      <trkpt lat="42.1134150" lon="-8.8387700">
        <ele>8.8</ele>
        <time>2021-05-19T14:23:37Z</time>
      </trkpt>
      <trkpt lat="42.1134450" lon="-8.8388000">
        <ele>8.5</ele>
        <time>2021-05-19T14:23:38Z</time>
      </trkpt>
      <trkpt lat="42.1134440" lon="-8.8387870">
        <ele>8.5</ele>
        <time>2021-05-19T14:23:39Z</time>
      </trkpt>
      <trkpt lat="42.1134410" lon="-8.8387750">
        <ele>8.8</ele>
        <time>2021-05-19T14:23:40Z</time>
      </trkpt>
      <trkpt lat="42.1134390" lon="-8.8387640">
        <ele>8.8</ele>
        <time>2021-05-19T14:23:41Z</time>
      </trkpt>
      <trkpt lat="42.1134360" lon="-8.8387530">
        <ele>8.9</ele>
        <time>2021-05-19T14:23:42Z</time>
      </trkpt>
      <trkpt lat="42.1134340" lon="-8.8387420">
        <ele>8.9</ele>
        <time>2021-05-19T14:23:43Z</time>
      </trkpt>
      <trkpt lat="42.1134310" lon="-8.8387300">
        <ele>8.9</ele>
        <time>2021-05-19T14:23:44Z</time>
      </trkpt>
      <trkpt lat="42.1134290" lon="-8.8387190">
        <ele>8.9</ele>
        <time>2021-05-19T14:23:45Z</time>
      </trkpt>
      <trkpt lat="42.1134090" lon="-8.8386930">
        <ele>9.3</ele>
        <time>2021-05-19T14:23:46Z</time>
      </trkpt>
      <trkpt lat="42.1134090" lon="-8.8386930">
        <ele>9.3</ele>
        <time>2021-05-19T14:23:47Z</time>
      </trkpt>
      <trkpt lat="42.1133820" lon="-8.8386990">
        <ele>9.3</ele>
        <time>2021-05-19T14:23:48Z</time>
      </trkpt>
      <trkpt lat="42.1133820" lon="-8.8386990">
        <ele>9.3</ele>
        <time>2021-05-19T14:23:49Z</time>
      </trkpt>
      <trkpt lat="42.1133820" lon="-8.8386990">
        <ele>9.3</ele>
        <time>2021-05-19T14:23:50Z</time>
      </trkpt>
      <trkpt lat="42.1133820" lon="-8.8386990">
        <ele>9.3</ele>
        <time>2021-05-19T14:23:51Z</time>
      </trkpt>
      <trkpt lat="42.1133820" lon="-8.8386990">
        <ele>9.3</ele>
        <time>2021-05-19T14:23:52Z</time>
      </trkpt>
      <trkpt lat="42.1133820" lon="-8.8386990">
        <ele>9.3</ele>
        <time>2021-05-19T14:23:53Z</time>
      </trkpt>
      <trkpt lat="42.1133820" lon="-8.8386990">
        <ele>9.3</ele>
        <time>2021-05-19T14:23:54Z</time>
      </trkpt>
      <trkpt lat="42.1133820" lon="-8.8386990">
        <ele>9.3</ele>
        <time>2021-05-19T14:23:55Z</time>
      </trkpt>
      <trkpt lat="42.1133820" lon="-8.8386990">
        <ele>9.3</ele>
        <time>2021-05-19T14:23:56Z</time>
      </trkpt>
      <trkpt lat="42.1133820" lon="-8.8386990">
        <ele>9.3</ele>
        <time>2021-05-19T14:23:57Z</time>
      </trkpt>
      <trkpt lat="42.1133820" lon="-8.8386990">
        <ele>9.3</ele>
        <time>2021-05-19T14:23:58Z</time>
      </trkpt>
      <trkpt lat="42.1133720" lon="-8.8387120">
        <ele>9.6</ele>
        <time>2021-05-19T14:23:59Z</time>
      </trkpt>
      <trkpt lat="42.1133710" lon="-8.8386960">
        <ele>9.6</ele>
        <time>2021-05-19T14:24:00Z</time>
      </trkpt>
      <trkpt lat="42.1133740" lon="-8.8386970">
        <ele>9.6</ele>
        <time>2021-05-19T14:24:01Z</time>
      </trkpt>
      <trkpt lat="42.1133770" lon="-8.8386980">
        <ele>9.6</ele>
        <time>2021-05-19T14:24:02Z</time>
      </trkpt>
      <trkpt lat="42.1133790" lon="-8.8387000">
        <ele>9.3</ele>
        <time>2021-05-19T14:24:03Z</time>
      </trkpt>
      <trkpt lat="42.1133820" lon="-8.8386970">
        <ele>9.3</ele>
        <time>2021-05-19T14:24:04Z</time>
      </trkpt>
      <trkpt lat="42.1133880" lon="-8.8386970">
        <ele>9.3</ele>
        <time>2021-05-19T14:24:05Z</time>
      </trkpt>
      <trkpt lat="42.1133920" lon="-8.8386980">
        <ele>9.3</ele>
        <time>2021-05-19T14:24:06Z</time>
      </trkpt>
      <trkpt lat="42.1133910" lon="-8.8386920">
        <ele>9.3</ele>
        <time>2021-05-19T14:24:07Z</time>
      </trkpt>
      <trkpt lat="42.1133920" lon="-8.8386900">
        <ele>9.3</ele>
        <time>2021-05-19T14:24:08Z</time>
      </trkpt>
      <trkpt lat="42.1133990" lon="-8.8386650">
        <ele>9.5</ele>
        <time>2021-05-19T14:24:09Z</time>
      </trkpt>
      <trkpt lat="42.1134050" lon="-8.8386430">
        <ele>9.5</ele>
        <time>2021-05-19T14:24:10Z</time>
      </trkpt>
      <trkpt lat="42.1134160" lon="-8.8386410">
        <ele>9.1</ele>
        <time>2021-05-19T14:24:11Z</time>
      </trkpt>
      <trkpt lat="42.1134260" lon="-8.8386390">
        <ele>9.1</ele>
        <time>2021-05-19T14:24:12Z</time>
      </trkpt>
      <trkpt lat="42.1134370" lon="-8.8386370">
        <ele>9.1</ele>
        <time>2021-05-19T14:24:13Z</time>
      </trkpt>
      <trkpt lat="42.1134480" lon="-8.8386350">
        <ele>8.8</ele>
        <time>2021-05-19T14:24:14Z</time>
      </trkpt>
      <trkpt lat="42.1134590" lon="-8.8386330">
        <ele>8.8</ele>
        <time>2021-05-19T14:24:15Z</time>
      </trkpt>
      <trkpt lat="42.1134690" lon="-8.8386310">
        <ele>8.8</ele>
        <time>2021-05-19T14:24:16Z</time>
      </trkpt>
      <trkpt lat="42.1134800" lon="-8.8386290">
        <ele>8.7</ele>
        <time>2021-05-19T14:24:17Z</time>
      </trkpt>
      <trkpt lat="42.1134910" lon="-8.8386270">
        <ele>8.7</ele>
        <time>2021-05-19T14:24:18Z</time>
      </trkpt>
      <trkpt lat="42.1134950" lon="-8.8385040">
        <ele>9.0</ele>
        <time>2021-05-19T14:24:19Z</time>
      </trkpt>
      <trkpt lat="42.1135080" lon="-8.8384600">
        <ele>8.8</ele>
        <time>2021-05-19T14:24:20Z</time>
      </trkpt>
      <trkpt lat="42.1135180" lon="-8.8383820">
        <ele>9.0</ele>
        <time>2021-05-19T14:24:21Z</time>
      </trkpt>
      <trkpt lat="42.1135290" lon="-8.8383460">
        <ele>9.1</ele>
        <time>2021-05-19T14:24:22Z</time>
      </trkpt>
      <trkpt lat="42.1135060" lon="-8.8383910">
        <ele>9.0</ele>
        <time>2021-05-19T14:24:23Z</time>
      </trkpt>
      <trkpt lat="42.1134810" lon="-8.8384360">
        <ele>9.2</ele>
        <time>2021-05-19T14:24:24Z</time>
      </trkpt>
      <trkpt lat="42.1134850" lon="-8.8385070">
        <ele>9.0</ele>
        <time>2021-05-19T14:24:25Z</time>
      </trkpt>
      <trkpt lat="42.1134840" lon="-8.8385580">
        <ele>8.8</ele>
        <time>2021-05-19T14:24:26Z</time>
      </trkpt>
      <trkpt lat="42.1134730" lon="-8.8385980">
        <ele>9.0</ele>
        <time>2021-05-19T14:24:27Z</time>
      </trkpt>
      <trkpt lat="42.1134640" lon="-8.8385220">
        <ele>9.3</ele>
        <time>2021-05-19T14:24:28Z</time>
      </trkpt>
      <trkpt lat="42.1134610" lon="-8.8384940">
        <ele>9.4</ele>
        <time>2021-05-19T14:24:29Z</time>
      </trkpt>
      <trkpt lat="42.1134600" lon="-8.8384840">
        <ele>9.4</ele>
        <time>2021-05-19T14:24:30Z</time>
      </trkpt>
      <trkpt lat="42.1134580" lon="-8.8384730">
        <ele>9.4</ele>
        <time>2021-05-19T14:24:31Z</time>
      </trkpt>
      <trkpt lat="42.1134610" lon="-8.8384940">
        <ele>9.4</ele>
        <time>2021-05-19T14:24:32Z</time>
      </trkpt>
      <trkpt lat="42.1134670" lon="-8.8384890">
        <ele>9.4</ele>
        <time>2021-05-19T14:24:33Z</time>
      </trkpt>
      <trkpt lat="42.1134680" lon="-8.8384500">
        <ele>9.5</ele>
        <time>2021-05-19T14:24:34Z</time>
      </trkpt>
      <trkpt lat="42.1134730" lon="-8.8384330">
        <ele>9.5</ele>
        <time>2021-05-19T14:24:35Z</time>
      </trkpt>
      <trkpt lat="42.1134720" lon="-8.8383860">
        <ele>9.6</ele>
        <time>2021-05-19T14:24:36Z</time>
      </trkpt>
      <trkpt lat="42.1134700" lon="-8.8383950">
        <ele>9.6</ele>
        <time>2021-05-19T14:24:37Z</time>
      </trkpt>
      <trkpt lat="42.1134650" lon="-8.8384020">
        <ele>9.6</ele>
        <time>2021-05-19T14:24:38Z</time>
      </trkpt>
      <trkpt lat="42.1134610" lon="-8.8384090">
        <ele>9.6</ele>
        <time>2021-05-19T14:24:39Z</time>
      </trkpt>
      <trkpt lat="42.1134570" lon="-8.8384160">
        <ele>9.5</ele>
        <time>2021-05-19T14:24:40Z</time>
      </trkpt>
      <trkpt lat="42.1134520" lon="-8.8384230">
        <ele>9.5</ele>
        <time>2021-05-19T14:24:41Z</time>
      </trkpt>
      <trkpt lat="42.1134480" lon="-8.8384300">
        <ele>9.5</ele>
        <time>2021-05-19T14:24:42Z</time>
      </trkpt>
      <trkpt lat="42.1134320" lon="-8.8383620">
        <ele>10.0</ele>
        <time>2021-05-19T14:24:43Z</time>
      </trkpt>
      <trkpt lat="42.1134330" lon="-8.8383060">
        <ele>10.1</ele>
        <time>2021-05-19T14:24:44Z</time>
      </trkpt>
      <trkpt lat="42.1134380" lon="-8.8382650">
        <ele>10.1</ele>
        <time>2021-05-19T14:24:45Z</time>
      </trkpt>
      <trkpt lat="42.1134400" lon="-8.8382250">
        <ele>10.2</ele>
        <time>2021-05-19T14:24:46Z</time>
      </trkpt>
      <trkpt lat="42.1134440" lon="-8.8381980">
        <ele>10.0</ele>
        <time>2021-05-19T14:24:47Z</time>
      </trkpt>
      <trkpt lat="42.1134600" lon="-8.8381190">
        <ele>10.0</ele>
        <time>2021-05-19T14:24:48Z</time>
      </trkpt>
      <trkpt lat="42.1134600" lon="-8.8381030">
        <ele>10.0</ele>
        <time>2021-05-19T14:24:49Z</time>
      </trkpt>
      <trkpt lat="42.1134300" lon="-8.8381400">
        <ele>10.2</ele>
        <time>2021-05-19T14:24:50Z</time>
      </trkpt>
      <trkpt lat="42.1134140" lon="-8.8381850">
        <ele>10.2</ele>
        <time>2021-05-19T14:24:51Z</time>
      </trkpt>
      <trkpt lat="42.1134190" lon="-8.8381440">
        <ele>10.2</ele>
        <time>2021-05-19T14:24:52Z</time>
      </trkpt>
      <trkpt lat="42.1134160" lon="-8.8381380">
        <ele>10.2</ele>
        <time>2021-05-19T14:24:53Z</time>
      </trkpt>
      <trkpt lat="42.1134200" lon="-8.8381290">
        <ele>10.2</ele>
        <time>2021-05-19T14:24:54Z</time>
      </trkpt>
      <trkpt lat="42.1134240" lon="-8.8381200">
        <ele>10.2</ele>
        <time>2021-05-19T14:24:55Z</time>
      </trkpt>
      <trkpt lat="42.1134280" lon="-8.8381110">
        <ele>10.2</ele>
        <time>2021-05-19T14:24:56Z</time>
      </trkpt>
      <trkpt lat="42.1134320" lon="-8.8381020">
        <ele>10.2</ele>
        <time>2021-05-19T14:24:57Z</time>
      </trkpt>
      <trkpt lat="42.1134360" lon="-8.8380930">
        <ele>10.2</ele>
        <time>2021-05-19T14:24:58Z</time>
      </trkpt>
      <trkpt lat="42.1134400" lon="-8.8380840">
        <ele>10.2</ele>
        <time>2021-05-19T14:24:59Z</time>
      </trkpt>
      <trkpt lat="42.1134380" lon="-8.8381030">
        <ele>10.2</ele>
        <time>2021-05-19T14:25:00Z</time>
      </trkpt>
      <trkpt lat="42.1134500" lon="-8.8380980">
        <ele>10.0</ele>
        <time>2021-05-19T14:25:01Z</time>
      </trkpt>
      <trkpt lat="42.1134710" lon="-8.8380790">
        <ele>10.0</ele>
        <time>2021-05-19T14:25:02Z</time>
      </trkpt>
      <trkpt lat="42.1134730" lon="-8.8380840">
        <ele>10.0</ele>
        <time>2021-05-19T14:25:03Z</time>
      </trkpt>
      <trkpt lat="42.1134570" lon="-8.8381140">
        <ele>10.0</ele>
        <time>2021-05-19T14:25:04Z</time>
      </trkpt>
      <trkpt lat="42.1134490" lon="-8.8381620">
        <ele>10.0</ele>
        <time>2021-05-19T14:25:05Z</time>
      </trkpt>
      <trkpt lat="42.1134450" lon="-8.8381810">
        <ele>10.0</ele>
        <time>2021-05-19T14:25:06Z</time>
      </trkpt>
      <trkpt lat="42.1134720" lon="-8.8381860">
        <ele>10.0</ele>
        <time>2021-05-19T14:25:07Z</time>
      </trkpt>
      <trkpt lat="42.1134680" lon="-8.8382230">
        <ele>9.9</ele>
        <time>2021-05-19T14:25:08Z</time>
      </trkpt>
      <trkpt lat="42.1134620" lon="-8.8382480">
        <ele>9.9</ele>
        <time>2021-05-19T14:25:09Z</time>
      </trkpt>
      <trkpt lat="42.1134480" lon="-8.8382670">
        <ele>9.9</ele>
        <time>2021-05-19T14:25:10Z</time>
      </trkpt>
      <trkpt lat="42.1134400" lon="-8.8382770">
        <ele>10.1</ele>
        <time>2021-05-19T14:25:11Z</time>
      </trkpt>
      <trkpt lat="42.1134330" lon="-8.8382870">
        <ele>10.1</ele>
        <time>2021-05-19T14:25:12Z</time>
      </trkpt>
      <trkpt lat="42.1134250" lon="-8.8382970">
        <ele>10.1</ele>
        <time>2021-05-19T14:25:13Z</time>
      </trkpt>
      <trkpt lat="42.1134180" lon="-8.8383070">
        <ele>10.1</ele>
        <time>2021-05-19T14:25:14Z</time>
      </trkpt>
      <trkpt lat="42.1134070" lon="-8.8383420">
        <ele>10.3</ele>
        <time>2021-05-19T14:25:15Z</time>
      </trkpt>
      <trkpt lat="42.1134050" lon="-8.8382980">
        <ele>10.4</ele>
        <time>2021-05-19T14:25:16Z</time>
      </trkpt>
      <trkpt lat="42.1134060" lon="-8.8382810">
        <ele>10.4</ele>
        <time>2021-05-19T14:25:17Z</time>
      </trkpt>
      <trkpt lat="42.1134050" lon="-8.8382760">
        <ele>10.4</ele>
        <time>2021-05-19T14:25:18Z</time>
      </trkpt>
      <trkpt lat="42.1134120" lon="-8.8382610">
        <ele>10.1</ele>
        <time>2021-05-19T14:25:19Z</time>
      </trkpt>
      <trkpt lat="42.1134140" lon="-8.8382280">
        <ele>10.2</ele>
        <time>2021-05-19T14:25:20Z</time>
      </trkpt>
      <trkpt lat="42.1134160" lon="-8.8382170">
        <ele>10.2</ele>
        <time>2021-05-19T14:25:21Z</time>
      </trkpt>
      <trkpt lat="42.1134100" lon="-8.8382260">
        <ele>10.2</ele>
        <time>2021-05-19T14:25:22Z</time>
      </trkpt>
      <trkpt lat="42.1133960" lon="-8.8382420">
        <ele>10.5</ele>
        <time>2021-05-19T14:25:23Z</time>
      </trkpt>
      <trkpt lat="42.1133830" lon="-8.8382570">
        <ele>10.4</ele>
        <time>2021-05-19T14:25:24Z</time>
      </trkpt>
      <trkpt lat="42.1133690" lon="-8.8382730">
        <ele>10.7</ele>
        <time>2021-05-19T14:25:25Z</time>
      </trkpt>
      <trkpt lat="42.1133000" lon="-8.8383870">
        <ele>11.0</ele>
        <time>2021-05-19T14:25:26Z</time>
      </trkpt>
      <trkpt lat="42.1132670" lon="-8.8384900">
        <ele>11.1</ele>
        <time>2021-05-19T14:25:27Z</time>
      </trkpt>
      <trkpt lat="42.1132600" lon="-8.8385040">
        <ele>11.0</ele>
        <time>2021-05-19T14:25:28Z</time>
      </trkpt>
      <trkpt lat="42.1132760" lon="-8.8384870">
        <ele>11.1</ele>
        <time>2021-05-19T14:25:29Z</time>
      </trkpt>
      <trkpt lat="42.1132920" lon="-8.8384750">
        <ele>10.8</ele>
        <time>2021-05-19T14:25:30Z</time>
      </trkpt>
      <trkpt lat="42.1132890" lon="-8.8384560">
        <ele>10.9</ele>
        <time>2021-05-19T14:25:31Z</time>
      </trkpt>
      <trkpt lat="42.1132820" lon="-8.8384610">
        <ele>11.1</ele>
        <time>2021-05-19T14:25:32Z</time>
      </trkpt>
      <trkpt lat="42.1132710" lon="-8.8384720">
        <ele>11.1</ele>
        <time>2021-05-19T14:25:33Z</time>
      </trkpt>
      <trkpt lat="42.1132670" lon="-8.8384830">
        <ele>11.1</ele>
        <time>2021-05-19T14:25:34Z</time>
      </trkpt>
      <trkpt lat="42.1132630" lon="-8.8384570">
        <ele>11.2</ele>
        <time>2021-05-19T14:25:35Z</time>
      </trkpt>
      <trkpt lat="42.1132620" lon="-8.8384330">
        <ele>11.2</ele>
        <time>2021-05-19T14:25:36Z</time>
      </trkpt>
      <trkpt lat="42.1132620" lon="-8.8384160">
        <ele>11.2</ele>
        <time>2021-05-19T14:25:37Z</time>
      </trkpt>
      <trkpt lat="42.1132610" lon="-8.8384020">
        <ele>11.3</ele>
        <time>2021-05-19T14:25:38Z</time>
      </trkpt>
      <trkpt lat="42.1132580" lon="-8.8383990">
        <ele>11.3</ele>
        <time>2021-05-19T14:25:39Z</time>
      </trkpt>
      <trkpt lat="42.1132570" lon="-8.8383910">
        <ele>11.3</ele>
        <time>2021-05-19T14:25:40Z</time>
      </trkpt>
      <trkpt lat="42.1132520" lon="-8.8383890">
        <ele>11.3</ele>
        <time>2021-05-19T14:25:41Z</time>
      </trkpt>
      <trkpt lat="42.1132510" lon="-8.8383870">
        <ele>11.3</ele>
        <time>2021-05-19T14:25:42Z</time>
      </trkpt>
      <trkpt lat="42.1132480" lon="-8.8383860">
        <ele>11.5</ele>
        <time>2021-05-19T14:25:43Z</time>
      </trkpt>
      <trkpt lat="42.1132420" lon="-8.8384000">
        <ele>11.5</ele>
        <time>2021-05-19T14:25:44Z</time>
      </trkpt>
      <trkpt lat="42.1132460" lon="-8.8384040">
        <ele>11.5</ele>
        <time>2021-05-19T14:25:45Z</time>
      </trkpt>
      <trkpt lat="42.1132510" lon="-8.8383890">
        <ele>11.3</ele>
        <time>2021-05-19T14:25:46Z</time>
      </trkpt>
      <trkpt lat="42.1132270" lon="-8.8384150">
        <ele>11.5</ele>
        <time>2021-05-19T14:25:47Z</time>
      </trkpt>
      <trkpt lat="42.1132170" lon="-8.8384550">
        <ele>11.6</ele>
        <time>2021-05-19T14:25:48Z</time>
      </trkpt>
      <trkpt lat="42.1132140" lon="-8.8384870">
        <ele>11.5</ele>
        <time>2021-05-19T14:25:49Z</time>
      </trkpt>
      <trkpt lat="42.1132460" lon="-8.8384760">
        <ele>11.3</ele>
        <time>2021-05-19T14:25:50Z</time>
      </trkpt>
      <trkpt lat="42.1132950" lon="-8.8384650">
        <ele>10.8</ele>
        <time>2021-05-19T14:25:51Z</time>
      </trkpt>
      <trkpt lat="42.1133080" lon="-8.8384800">
        <ele>10.8</ele>
        <time>2021-05-19T14:25:52Z</time>
      </trkpt>
      <trkpt lat="42.1133050" lon="-8.8384930">
        <ele>10.8</ele>
        <time>2021-05-19T14:25:53Z</time>
      </trkpt>
      <trkpt lat="42.1133030" lon="-8.8385050">
        <ele>10.7</ele>
        <time>2021-05-19T14:25:54Z</time>
      </trkpt>
      <trkpt lat="42.1133000" lon="-8.8385170">
        <ele>10.7</ele>
        <time>2021-05-19T14:25:55Z</time>
      </trkpt>
      <trkpt lat="42.1132880" lon="-8.8385770">
        <ele>10.6</ele>
        <time>2021-05-19T14:25:57Z</time>
      </trkpt>
      <trkpt lat="42.1132920" lon="-8.8386200">
        <ele>10.5</ele>
        <time>2021-05-19T14:25:58Z</time>
      </trkpt>
      <trkpt lat="42.1133410" lon="-8.8385760">
        <ele>10.3</ele>
        <time>2021-05-19T14:25:59Z</time>
      </trkpt>
      <trkpt lat="42.1133700" lon="-8.8385480">
        <ele>10.0</ele>
        <time>2021-05-19T14:26:00Z</time>
      </trkpt>
      <trkpt lat="42.1133710" lon="-8.8385810">
        <ele>10.0</ele>
        <time>2021-05-19T14:26:01Z</time>
      </trkpt>
      <trkpt lat="42.1133810" lon="-8.8385970">
        <ele>9.6</ele>
        <time>2021-05-19T14:26:02Z</time>
      </trkpt>
      <trkpt lat="42.1133870" lon="-8.8386180">
        <ele>9.6</ele>
        <time>2021-05-19T14:26:03Z</time>
      </trkpt>
      <trkpt lat="42.1133890" lon="-8.8386260">
        <ele>9.6</ele>
        <time>2021-05-19T14:26:04Z</time>
      </trkpt>
      <trkpt lat="42.1133820" lon="-8.8386210">
        <ele>9.6</ele>
        <time>2021-05-19T14:26:05Z</time>
      </trkpt>
      <trkpt lat="42.1133870" lon="-8.8386210">
        <ele>9.6</ele>
        <time>2021-05-19T14:26:06Z</time>
      </trkpt>
      <trkpt lat="42.1137360" lon="-8.8383290">
        <ele>6.9</ele>
        <time>2021-05-19T14:26:20Z</time>
      </trkpt>
      <trkpt lat="42.1136180" lon="-8.8384290">
        <ele>7.8</ele>
        <time>2021-05-19T14:26:21Z</time>
      </trkpt>
      <trkpt lat="42.1136140" lon="-8.8384310">
        <ele>7.8</ele>
        <time>2021-05-19T14:26:22Z</time>
      </trkpt>
      <trkpt lat="42.1136140" lon="-8.8384340">
        <ele>7.8</ele>
        <time>2021-05-19T14:26:23Z</time>
      </trkpt>
      <trkpt lat="42.1136000" lon="-8.8384260">
        <ele>8.2</ele>
        <time>2021-05-19T14:26:24Z</time>
      </trkpt>
      <trkpt lat="42.1135890" lon="-8.8384360">
        <ele>8.2</ele>
        <time>2021-05-19T14:26:25Z</time>
      </trkpt>
      <trkpt lat="42.1135920" lon="-8.8384290">
        <ele>8.2</ele>
        <time>2021-05-19T14:26:26Z</time>
      </trkpt>
      <trkpt lat="42.1135910" lon="-8.8384360">
        <ele>8.2</ele>
        <time>2021-05-19T14:26:27Z</time>
      </trkpt>
      <trkpt lat="42.1135870" lon="-8.8384470">
        <ele>8.2</ele>
        <time>2021-05-19T14:26:28Z</time>
      </trkpt>
      <trkpt lat="42.1135690" lon="-8.8384780">
        <ele>8.1</ele>
        <time>2021-05-19T14:26:29Z</time>
      </trkpt>
      <trkpt lat="42.1135350" lon="-8.8385310">
        <ele>8.6</ele>
        <time>2021-05-19T14:26:30Z</time>
      </trkpt>
      <trkpt lat="42.1135060" lon="-8.8385640">
        <ele>8.5</ele>
        <time>2021-05-19T14:26:31Z</time>
      </trkpt>
      <trkpt lat="42.1134940" lon="-8.8385710">
        <ele>8.8</ele>
        <time>2021-05-19T14:26:32Z</time>
      </trkpt>
      <trkpt lat="42.1134600" lon="-8.8385970">
        <ele>9.0</ele>
        <time>2021-05-19T14:26:33Z</time>
      </trkpt>
      <trkpt lat="42.1134460" lon="-8.8386240">
        <ele>9.0</ele>
        <time>2021-05-19T14:26:34Z</time>
      </trkpt>
      <trkpt lat="42.1134320" lon="-8.8386400">
        <ele>9.1</ele>
        <time>2021-05-19T14:26:35Z</time>
      </trkpt>
      <trkpt lat="42.1133920" lon="-8.8386860">
        <ele>9.3</ele>
        <time>2021-05-19T14:26:36Z</time>
      </trkpt>
      <trkpt lat="42.1134640" lon="-8.8386620">
        <ele>8.8</ele>
        <time>2021-05-19T14:26:37Z</time>
      </trkpt>
      <trkpt lat="42.1134660" lon="-8.8386620">
        <ele>8.8</ele>
        <time>2021-05-19T14:26:38Z</time>
      </trkpt>
      <trkpt lat="42.1134680" lon="-8.8386630">
        <ele>8.8</ele>
        <time>2021-05-19T14:26:39Z</time>
      </trkpt>
      <trkpt lat="42.1134700" lon="-8.8386630">
        <ele>8.8</ele>
        <time>2021-05-19T14:26:40Z</time>
      </trkpt>
      <trkpt lat="42.1134710" lon="-8.8386640">
        <ele>8.8</ele>
        <time>2021-05-19T14:26:41Z</time>
      </trkpt>
      <trkpt lat="42.1134730" lon="-8.8386640">
        <ele>8.8</ele>
        <time>2021-05-19T14:26:42Z</time>
      </trkpt>
      <trkpt lat="42.1134750" lon="-8.8386640">
        <ele>8.5</ele>
        <time>2021-05-19T14:26:43Z</time>
      </trkpt>
      <trkpt lat="42.1134770" lon="-8.8386650">
        <ele>8.5</ele>
        <time>2021-05-19T14:26:44Z</time>
      </trkpt>
      <trkpt lat="42.1134790" lon="-8.8386650">
        <ele>8.5</ele>
        <time>2021-05-19T14:26:45Z</time>
      </trkpt>
      <trkpt lat="42.1134810" lon="-8.8386650">
        <ele>8.5</ele>
        <time>2021-05-19T14:26:46Z</time>
      </trkpt>
      <trkpt lat="42.1134830" lon="-8.8386660">
        <ele>8.5</ele>
        <time>2021-05-19T14:26:47Z</time>
      </trkpt>
      <trkpt lat="42.1134840" lon="-8.8386660">
        <ele>8.5</ele>
        <time>2021-05-19T14:26:48Z</time>
      </trkpt>
      <trkpt lat="42.1134860" lon="-8.8386670">
        <ele>8.5</ele>
        <time>2021-05-19T14:26:49Z</time>
      </trkpt>
      <trkpt lat="42.1134880" lon="-8.8386670">
        <ele>8.5</ele>
        <time>2021-05-19T14:26:50Z</time>
      </trkpt>
      <trkpt lat="42.1134900" lon="-8.8386670">
        <ele>8.5</ele>
        <time>2021-05-19T14:26:51Z</time>
      </trkpt>
      <trkpt lat="42.1134920" lon="-8.8386680">
        <ele>8.5</ele>
        <time>2021-05-19T14:26:52Z</time>
      </trkpt>
      <trkpt lat="42.1134940" lon="-8.8386680">
        <ele>8.5</ele>
        <time>2021-05-19T14:26:53Z</time>
      </trkpt>
      <trkpt lat="42.1134960" lon="-8.8386680">
        <ele>8.5</ele>
        <time>2021-05-19T14:26:54Z</time>
      </trkpt>
      <trkpt lat="42.1134970" lon="-8.8386690">
        <ele>8.5</ele>
        <time>2021-05-19T14:26:55Z</time>
      </trkpt>
      <trkpt lat="42.1134990" lon="-8.8386690">
        <ele>8.5</ele>
        <time>2021-05-19T14:26:56Z</time>
      </trkpt>
      <trkpt lat="42.1135010" lon="-8.8386700">
        <ele>8.5</ele>
        <time>2021-05-19T14:26:57Z</time>
      </trkpt>
      <trkpt lat="42.1135030" lon="-8.8386700">
        <ele>8.5</ele>
        <time>2021-05-19T14:26:58Z</time>
      </trkpt>
      <trkpt lat="42.1134990" lon="-8.8386730">
        <ele>8.4</ele>
        <time>2021-05-19T14:26:59Z</time>
      </trkpt>
      <trkpt lat="42.1134990" lon="-8.8386730">
        <ele>8.4</ele>
        <time>2021-05-19T14:27:00Z</time>
      </trkpt>
      <trkpt lat="42.1134990" lon="-8.8386730">
        <ele>8.4</ele>
        <time>2021-05-19T14:27:01Z</time>
      </trkpt>
      <trkpt lat="42.1134990" lon="-8.8386730">
        <ele>8.4</ele>
        <time>2021-05-19T14:27:02Z</time>
      </trkpt>
      <trkpt lat="42.1134990" lon="-8.8386730">
        <ele>8.4</ele>
        <time>2021-05-19T14:27:03Z</time>
      </trkpt>
      <trkpt lat="42.1134990" lon="-8.8386730">
        <ele>8.4</ele>
        <time>2021-05-19T14:27:04Z</time>
      </trkpt>
      <trkpt lat="42.1134990" lon="-8.8386730">
        <ele>8.4</ele>
        <time>2021-05-19T14:27:05Z</time>
      </trkpt>
      <trkpt lat="42.1134990" lon="-8.8386730">
        <ele>8.4</ele>
        <time>2021-05-19T14:27:06Z</time>
      </trkpt>
      <trkpt lat="42.1134990" lon="-8.8386730">
        <ele>8.4</ele>
        <time>2021-05-19T14:27:07Z</time>
      </trkpt>
      <trkpt lat="42.1134990" lon="-8.8386730">
        <ele>8.4</ele>
        <time>2021-05-19T14:27:08Z</time>
      </trkpt>
      <trkpt lat="42.1134990" lon="-8.8386730">
        <ele>8.4</ele>
        <time>2021-05-19T14:27:09Z</time>
      </trkpt>
      <trkpt lat="42.1134990" lon="-8.8386730">
        <ele>8.4</ele>
        <time>2021-05-19T14:27:10Z</time>
      </trkpt>
      <trkpt lat="42.1134990" lon="-8.8386730">
        <ele>8.4</ele>
        <time>2021-05-19T14:27:11Z</time>
      </trkpt>
      <trkpt lat="42.1134990" lon="-8.8386730">
        <ele>8.4</ele>
        <time>2021-05-19T14:27:12Z</time>
      </trkpt>
      <trkpt lat="42.1134990" lon="-8.8386730">
        <ele>8.4</ele>
        <time>2021-05-19T14:27:13Z</time>
      </trkpt>
      <trkpt lat="42.1134990" lon="-8.8386730">
        <ele>8.4</ele>
        <time>2021-05-19T14:27:14Z</time>
      </trkpt>
      <trkpt lat="42.1134990" lon="-8.8386730">
        <ele>8.4</ele>
        <time>2021-05-19T14:27:15Z</time>
      </trkpt>
      <trkpt lat="42.1134990" lon="-8.8386730">
        <ele>8.4</ele>
        <time>2021-05-19T14:27:16Z</time>
      </trkpt>
      <trkpt lat="42.1134990" lon="-8.8386730">
        <ele>8.4</ele>
        <time>2021-05-19T14:27:17Z</time>
      </trkpt>
      <trkpt lat="42.1134990" lon="-8.8386730">
        <ele>8.4</ele>
        <time>2021-05-19T14:27:18Z</time>
      </trkpt>
      <trkpt lat="42.1134990" lon="-8.8386730">
        <ele>8.4</ele>
        <time>2021-05-19T14:27:19Z</time>
      </trkpt>
      <trkpt lat="42.1134990" lon="-8.8386730">
        <ele>8.4</ele>
        <time>2021-05-19T14:27:20Z</time>
      </trkpt>
      <trkpt lat="42.1134990" lon="-8.8386730">
        <ele>8.4</ele>
        <time>2021-05-19T14:27:21Z</time>
      </trkpt>
      <trkpt lat="42.1134990" lon="-8.8386730">
        <ele>8.4</ele>
        <time>2021-05-19T14:27:22Z</time>
      </trkpt>
      <trkpt lat="42.1134990" lon="-8.8386730">
        <ele>8.4</ele>
        <time>2021-05-19T14:27:23Z</time>
      </trkpt>
      <trkpt lat="42.1134990" lon="-8.8386730">
        <ele>8.4</ele>
        <time>2021-05-19T14:27:24Z</time>
      </trkpt>
      <trkpt lat="42.1134990" lon="-8.8386730">
        <ele>8.4</ele>
        <time>2021-05-19T14:27:25Z</time>
      </trkpt>
      <trkpt lat="42.1134990" lon="-8.8386730">
        <ele>8.4</ele>
        <time>2021-05-19T14:27:26Z</time>
      </trkpt>
      <trkpt lat="42.1134990" lon="-8.8386730">
        <ele>8.4</ele>
        <time>2021-05-19T14:27:27Z</time>
      </trkpt>
      <trkpt lat="42.1134990" lon="-8.8386730">
        <ele>8.4</ele>
        <time>2021-05-19T14:27:28Z</time>
      </trkpt>
      <trkpt lat="42.1134990" lon="-8.8386730">
        <ele>8.4</ele>
        <time>2021-05-19T14:27:29Z</time>
      </trkpt>
      <trkpt lat="42.1134990" lon="-8.8386730">
        <ele>8.4</ele>
        <time>2021-05-19T14:27:30Z</time>
      </trkpt>
      <trkpt lat="42.1134990" lon="-8.8386730">
        <ele>8.4</ele>
        <time>2021-05-19T14:27:31Z</time>
      </trkpt>
      <trkpt lat="42.1134990" lon="-8.8386730">
        <ele>8.4</ele>
        <time>2021-05-19T14:27:32Z</time>
      </trkpt>
      <trkpt lat="42.1134990" lon="-8.8386730">
        <ele>8.4</ele>
        <time>2021-05-19T14:27:33Z</time>
      </trkpt>
      <trkpt lat="42.1134990" lon="-8.8386730">
        <ele>8.4</ele>
        <time>2021-05-19T14:27:34Z</time>
      </trkpt>
      <trkpt lat="42.1134990" lon="-8.8386730">
        <ele>8.4</ele>
        <time>2021-05-19T14:27:35Z</time>
      </trkpt>
      <trkpt lat="42.1134990" lon="-8.8386730">
        <ele>8.4</ele>
        <time>2021-05-19T14:27:36Z</time>
      </trkpt>
      <trkpt lat="42.1134990" lon="-8.8386730">
        <ele>8.4</ele>
        <time>2021-05-19T14:27:37Z</time>
      </trkpt>
      <trkpt lat="42.1134990" lon="-8.8386730">
        <ele>8.4</ele>
        <time>2021-05-19T14:27:38Z</time>
      </trkpt>
      <trkpt lat="42.1134990" lon="-8.8386730">
        <ele>8.4</ele>
        <time>2021-05-19T14:27:39Z</time>
      </trkpt>
      <trkpt lat="42.1134990" lon="-8.8386730">
        <ele>8.4</ele>
        <time>2021-05-19T14:27:40Z</time>
      </trkpt>
      <trkpt lat="42.1134990" lon="-8.8386730">
        <ele>8.4</ele>
        <time>2021-05-19T14:27:41Z</time>
      </trkpt>
      <trkpt lat="42.1134990" lon="-8.8386730">
        <ele>8.4</ele>
        <time>2021-05-19T14:27:42Z</time>
      </trkpt>
      <trkpt lat="42.1134990" lon="-8.8386730">
        <ele>8.4</ele>
        <time>2021-05-19T14:27:43Z</time>
      </trkpt>
      <trkpt lat="42.1134990" lon="-8.8386730">
        <ele>8.4</ele>
        <time>2021-05-19T14:27:44Z</time>
      </trkpt>
      <trkpt lat="42.1134990" lon="-8.8386730">
        <ele>8.4</ele>
        <time>2021-05-19T14:27:45Z</time>
      </trkpt>
      <trkpt lat="42.1134990" lon="-8.8386730">
        <ele>8.4</ele>
        <time>2021-05-19T14:27:46Z</time>
      </trkpt>
      <trkpt lat="42.1134990" lon="-8.8386730">
        <ele>8.4</ele>
        <time>2021-05-19T14:27:47Z</time>
      </trkpt>
      <trkpt lat="42.1134990" lon="-8.8386730">
        <ele>8.4</ele>
        <time>2021-05-19T14:27:48Z</time>
      </trkpt>
      <trkpt lat="42.1134990" lon="-8.8386730">
        <ele>8.4</ele>
        <time>2021-05-19T14:27:49Z</time>
      </trkpt>
      <trkpt lat="42.1134990" lon="-8.8386730">
        <ele>8.4</ele>
        <time>2021-05-19T14:27:50Z</time>
      </trkpt>
      <trkpt lat="42.1134990" lon="-8.8386730">
        <ele>8.4</ele>
        <time>2021-05-19T14:27:51Z</time>
      </trkpt>
      <trkpt lat="42.1134990" lon="-8.8386730">
        <ele>8.4</ele>
        <time>2021-05-19T14:27:52Z</time>
      </trkpt>
      <trkpt lat="42.1134990" lon="-8.8386730">
        <ele>8.4</ele>
        <time>2021-05-19T14:27:53Z</time>
      </trkpt>
      <trkpt lat="42.1134990" lon="-8.8386730">
        <ele>8.4</ele>
        <time>2021-05-19T14:27:54Z</time>
      </trkpt>
      <trkpt lat="42.1134990" lon="-8.8386730">
        <ele>8.4</ele>
        <time>2021-05-19T14:27:55Z</time>
      </trkpt>
      <trkpt lat="42.1134990" lon="-8.8386730">
        <ele>8.4</ele>
        <time>2021-05-19T14:27:56Z</time>
      </trkpt>
      <trkpt lat="42.1134990" lon="-8.8386730">
        <ele>8.4</ele>
        <time>2021-05-19T14:27:57Z</time>
      </trkpt>
      <trkpt lat="42.1134990" lon="-8.8386730">
        <ele>8.4</ele>
        <time>2021-05-19T14:27:58Z</time>
      </trkpt>
      <trkpt lat="42.1134990" lon="-8.8386730">
        <ele>8.4</ele>
        <time>2021-05-19T14:27:59Z</time>
      </trkpt>
      <trkpt lat="42.1134990" lon="-8.8386730">
        <ele>8.4</ele>
        <time>2021-05-19T14:28:00Z</time>
      </trkpt>
      <trkpt lat="42.1134990" lon="-8.8386730">
        <ele>8.4</ele>
        <time>2021-05-19T14:28:01Z</time>
      </trkpt>
      <trkpt lat="42.1134990" lon="-8.8386730">
        <ele>8.4</ele>
        <time>2021-05-19T14:28:02Z</time>
      </trkpt>
      <trkpt lat="42.1134990" lon="-8.8386730">
        <ele>8.4</ele>
        <time>2021-05-19T14:28:03Z</time>
      </trkpt>
      <trkpt lat="42.1134990" lon="-8.8386730">
        <ele>8.4</ele>
        <time>2021-05-19T14:28:04Z</time>
      </trkpt>
      <trkpt lat="42.1134990" lon="-8.8386730">
        <ele>8.4</ele>
        <time>2021-05-19T14:28:05Z</time>
      </trkpt>
      <trkpt lat="42.1134990" lon="-8.8386730">
        <ele>8.4</ele>
        <time>2021-05-19T14:28:06Z</time>
      </trkpt>
      <trkpt lat="42.1134990" lon="-8.8386730">
        <ele>8.4</ele>
        <time>2021-05-19T14:28:07Z</time>
      </trkpt>
      <trkpt lat="42.1134990" lon="-8.8386730">
        <ele>8.4</ele>
        <time>2021-05-19T14:28:08Z</time>
      </trkpt>
      <trkpt lat="42.1134990" lon="-8.8386730">
        <ele>8.4</ele>
        <time>2021-05-19T14:28:09Z</time>
      </trkpt>
      <trkpt lat="42.1134990" lon="-8.8386730">
        <ele>8.4</ele>
        <time>2021-05-19T14:28:10Z</time>
      </trkpt>
      <trkpt lat="42.1134990" lon="-8.8386730">
        <ele>8.4</ele>
        <time>2021-05-19T14:28:11Z</time>
      </trkpt>
      <trkpt lat="42.1134990" lon="-8.8386730">
        <ele>8.4</ele>
        <time>2021-05-19T14:28:12Z</time>
      </trkpt>
      <trkpt lat="42.1134990" lon="-8.8386730">
        <ele>8.4</ele>
        <time>2021-05-19T14:28:13Z</time>
      </trkpt>
      <trkpt lat="42.1134990" lon="-8.8386730">
        <ele>8.4</ele>
        <time>2021-05-19T14:28:14Z</time>
      </trkpt>
      <trkpt lat="42.1134990" lon="-8.8386730">
        <ele>8.4</ele>
        <time>2021-05-19T14:28:15Z</time>
      </trkpt>
      <trkpt lat="42.1134810" lon="-8.8386500">
        <ele>8.5</ele>
        <time>2021-05-19T14:28:16Z</time>
      </trkpt>
      <trkpt lat="42.1134910" lon="-8.8386440">
        <ele>8.5</ele>
        <time>2021-05-19T14:28:17Z</time>
      </trkpt>
      <trkpt lat="42.1134920" lon="-8.8386430">
        <ele>8.5</ele>
        <time>2021-05-19T14:28:18Z</time>
      </trkpt>
      <trkpt lat="42.1134940" lon="-8.8386430">
        <ele>8.5</ele>
        <time>2021-05-19T14:28:19Z</time>
      </trkpt>
      <trkpt lat="42.1134960" lon="-8.8386420">
        <ele>8.5</ele>
        <time>2021-05-19T14:28:20Z</time>
      </trkpt>
      <trkpt lat="42.1134970" lon="-8.8386410">
        <ele>8.5</ele>
        <time>2021-05-19T14:28:21Z</time>
      </trkpt>
      <trkpt lat="42.1134990" lon="-8.8386400">
        <ele>8.5</ele>
        <time>2021-05-19T14:28:22Z</time>
      </trkpt>
      <trkpt lat="42.1135010" lon="-8.8386400">
        <ele>8.5</ele>
        <time>2021-05-19T14:28:23Z</time>
      </trkpt>
      <trkpt lat="42.1135020" lon="-8.8386390">
        <ele>8.5</ele>
        <time>2021-05-19T14:28:24Z</time>
      </trkpt>
      <trkpt lat="42.1135040" lon="-8.8386380">
        <ele>8.5</ele>
        <time>2021-05-19T14:28:25Z</time>
      </trkpt>
      <trkpt lat="42.1135050" lon="-8.8386370">
        <ele>8.5</ele>
        <time>2021-05-19T14:28:26Z</time>
      </trkpt>
      <trkpt lat="42.1135070" lon="-8.8386370">
        <ele>8.3</ele>
        <time>2021-05-19T14:28:27Z</time>
      </trkpt>
      <trkpt lat="42.1135090" lon="-8.8386360">
        <ele>8.3</ele>
        <time>2021-05-19T14:28:28Z</time>
      </trkpt>
      <trkpt lat="42.1135100" lon="-8.8386350">
        <ele>8.3</ele>
        <time>2021-05-19T14:28:29Z</time>
      </trkpt>
      <trkpt lat="42.1135120" lon="-8.8386340">
        <ele>8.3</ele>
        <time>2021-05-19T14:28:30Z</time>
      </trkpt>
      <trkpt lat="42.1135140" lon="-8.8386340">
        <ele>8.3</ele>
        <time>2021-05-19T14:28:31Z</time>
      </trkpt>
      <trkpt lat="42.1135150" lon="-8.8386330">
        <ele>8.3</ele>
        <time>2021-05-19T14:28:32Z</time>
      </trkpt>
      <trkpt lat="42.1135170" lon="-8.8386320">
        <ele>8.3</ele>
        <time>2021-05-19T14:28:33Z</time>
      </trkpt>
      <trkpt lat="42.1135190" lon="-8.8386310">
        <ele>8.3</ele>
        <time>2021-05-19T14:28:34Z</time>
      </trkpt>
      <trkpt lat="42.1135200" lon="-8.8386310">
        <ele>8.3</ele>
        <time>2021-05-19T14:28:35Z</time>
      </trkpt>
      <trkpt lat="42.1135220" lon="-8.8386300">
        <ele>8.3</ele>
        <time>2021-05-19T14:28:36Z</time>
      </trkpt>
      <trkpt lat="42.1135240" lon="-8.8386290">
        <ele>8.4</ele>
        <time>2021-05-19T14:28:37Z</time>
      </trkpt>
      <trkpt lat="42.1135250" lon="-8.8386280">
        <ele>8.4</ele>
        <time>2021-05-19T14:28:38Z</time>
      </trkpt>
      <trkpt lat="42.1135270" lon="-8.8386280">
        <ele>8.4</ele>
        <time>2021-05-19T14:28:39Z</time>
      </trkpt>
      <trkpt lat="42.1135290" lon="-8.8386270">
        <ele>8.4</ele>
        <time>2021-05-19T14:28:40Z</time>
      </trkpt>
      <trkpt lat="42.1135300" lon="-8.8386260">
        <ele>8.4</ele>
        <time>2021-05-19T14:28:41Z</time>
      </trkpt>
      <trkpt lat="42.1135320" lon="-8.8386250">
        <ele>8.4</ele>
        <time>2021-05-19T14:28:42Z</time>
      </trkpt>
      <trkpt lat="42.1135340" lon="-8.8386250">
        <ele>8.4</ele>
        <time>2021-05-19T14:28:43Z</time>
      </trkpt>
      <trkpt lat="42.1135350" lon="-8.8386240">
        <ele>8.4</ele>
        <time>2021-05-19T14:28:44Z</time>
      </trkpt>
      <trkpt lat="42.1135370" lon="-8.8386230">
        <ele>8.4</ele>
        <time>2021-05-19T14:28:45Z</time>
      </trkpt>
      <trkpt lat="42.1135380" lon="-8.8386220">
        <ele>8.1</ele>
        <time>2021-05-19T14:28:46Z</time>
      </trkpt>
      <trkpt lat="42.1135400" lon="-8.8386220">
        <ele>8.1</ele>
        <time>2021-05-19T14:28:47Z</time>
      </trkpt>
      <trkpt lat="42.1135420" lon="-8.8386210">
        <ele>8.1</ele>
        <time>2021-05-19T14:28:48Z</time>
      </trkpt>
      <trkpt lat="42.1135430" lon="-8.8386200">
        <ele>8.1</ele>
        <time>2021-05-19T14:28:49Z</time>
      </trkpt>
      <trkpt lat="42.1135450" lon="-8.8386190">
        <ele>8.1</ele>
        <time>2021-05-19T14:28:50Z</time>
      </trkpt>
      <trkpt lat="42.1135470" lon="-8.8386190">
        <ele>8.1</ele>
        <time>2021-05-19T14:28:51Z</time>
      </trkpt>
      <trkpt lat="42.1135480" lon="-8.8386180">
        <ele>8.1</ele>
        <time>2021-05-19T14:28:52Z</time>
      </trkpt>
      <trkpt lat="42.1135500" lon="-8.8386170">
        <ele>8.1</ele>
        <time>2021-05-19T14:28:53Z</time>
      </trkpt>
      <trkpt lat="42.1135590" lon="-8.8386270">
        <ele>8.1</ele>
        <time>2021-05-19T14:28:54Z</time>
      </trkpt>
      <trkpt lat="42.1135580" lon="-8.8386240">
        <ele>8.1</ele>
        <time>2021-05-19T14:28:55Z</time>
      </trkpt>
      <trkpt lat="42.1135550" lon="-8.8386220">
        <ele>8.1</ele>
        <time>2021-05-19T14:28:56Z</time>
      </trkpt>
      <trkpt lat="42.1135540" lon="-8.8386170">
        <ele>8.1</ele>
        <time>2021-05-19T14:28:57Z</time>
      </trkpt>
      <trkpt lat="42.1135500" lon="-8.8386180">
        <ele>8.1</ele>
        <time>2021-05-19T14:28:58Z</time>
      </trkpt>
      <trkpt lat="42.1135490" lon="-8.8386180">
        <ele>8.1</ele>
        <time>2021-05-19T14:28:59Z</time>
      </trkpt>
      <trkpt lat="42.1135530" lon="-8.8386110">
        <ele>8.1</ele>
        <time>2021-05-19T14:29:00Z</time>
      </trkpt>
      <trkpt lat="42.1135460" lon="-8.8386100">
        <ele>8.1</ele>
        <time>2021-05-19T14:29:01Z</time>
      </trkpt>
      <trkpt lat="42.1135400" lon="-8.8386110">
        <ele>8.1</ele>
        <time>2021-05-19T14:29:02Z</time>
      </trkpt>
      <trkpt lat="42.1135470" lon="-8.8386140">
        <ele>8.1</ele>
        <time>2021-05-19T14:29:03Z</time>
      </trkpt>
      <trkpt lat="42.1135440" lon="-8.8386180">
        <ele>8.1</ele>
        <time>2021-05-19T14:29:04Z</time>
      </trkpt>
      <trkpt lat="42.1135440" lon="-8.8386240">
        <ele>8.1</ele>
        <time>2021-05-19T14:29:05Z</time>
      </trkpt>
      <trkpt lat="42.1135440" lon="-8.8386240">
        <ele>8.1</ele>
        <time>2021-05-19T14:29:06Z</time>
      </trkpt>
      <trkpt lat="42.1135440" lon="-8.8386240">
        <ele>8.1</ele>
        <time>2021-05-19T14:29:07Z</time>
      </trkpt>
      <trkpt lat="42.1135440" lon="-8.8386240">
        <ele>8.1</ele>
        <time>2021-05-19T14:29:08Z</time>
      </trkpt>
      <trkpt lat="42.1135440" lon="-8.8386240">
        <ele>8.1</ele>
        <time>2021-05-19T14:29:09Z</time>
      </trkpt>
      <trkpt lat="42.1135440" lon="-8.8386240">
        <ele>8.1</ele>
        <time>2021-05-19T14:29:10Z</time>
      </trkpt>
      <trkpt lat="42.1135440" lon="-8.8386240">
        <ele>8.1</ele>
        <time>2021-05-19T14:29:11Z</time>
      </trkpt>
      <trkpt lat="42.1135440" lon="-8.8386240">
        <ele>8.1</ele>
        <time>2021-05-19T14:29:12Z</time>
      </trkpt>
      <trkpt lat="42.1135440" lon="-8.8386240">
        <ele>8.1</ele>
        <time>2021-05-19T14:29:13Z</time>
      </trkpt>
      <trkpt lat="42.1135440" lon="-8.8386240">
        <ele>8.1</ele>
        <time>2021-05-19T14:29:14Z</time>
      </trkpt>
      <trkpt lat="42.1135440" lon="-8.8386240">
        <ele>8.1</ele>
        <time>2021-05-19T14:29:15Z</time>
      </trkpt>
      <trkpt lat="42.1135440" lon="-8.8386240">
        <ele>8.1</ele>
        <time>2021-05-19T14:29:16Z</time>
      </trkpt>
      <trkpt lat="42.1135440" lon="-8.8386240">
        <ele>8.1</ele>
        <time>2021-05-19T14:29:17Z</time>
      </trkpt>
      <trkpt lat="42.1135440" lon="-8.8386240">
        <ele>8.1</ele>
        <time>2021-05-19T14:29:18Z</time>
      </trkpt>
      <trkpt lat="42.1135440" lon="-8.8386240">
        <ele>8.1</ele>
        <time>2021-05-19T14:29:19Z</time>
      </trkpt>
      <trkpt lat="42.1135440" lon="-8.8386240">
        <ele>8.1</ele>
        <time>2021-05-19T14:29:20Z</time>
      </trkpt>
      <trkpt lat="42.1135440" lon="-8.8386240">
        <ele>8.1</ele>
        <time>2021-05-19T14:29:21Z</time>
      </trkpt>
      <trkpt lat="42.1135440" lon="-8.8386240">
        <ele>8.1</ele>
        <time>2021-05-19T14:29:22Z</time>
      </trkpt>
      <trkpt lat="42.1135440" lon="-8.8386240">
        <ele>8.1</ele>
        <time>2021-05-19T14:29:23Z</time>
      </trkpt>
      <trkpt lat="42.1135440" lon="-8.8386240">
        <ele>8.1</ele>
        <time>2021-05-19T14:29:24Z</time>
      </trkpt>
      <trkpt lat="42.1135440" lon="-8.8386240">
        <ele>8.1</ele>
        <time>2021-05-19T14:29:25Z</time>
      </trkpt>
      <trkpt lat="42.1135440" lon="-8.8386240">
        <ele>8.1</ele>
        <time>2021-05-19T14:29:26Z</time>
      </trkpt>
      <trkpt lat="42.1135440" lon="-8.8386240">
        <ele>8.1</ele>
        <time>2021-05-19T14:29:27Z</time>
      </trkpt>
      <trkpt lat="42.1135440" lon="-8.8386240">
        <ele>8.1</ele>
        <time>2021-05-19T14:29:28Z</time>
      </trkpt>
      <trkpt lat="42.1135440" lon="-8.8386240">
        <ele>8.1</ele>
        <time>2021-05-19T14:29:29Z</time>
      </trkpt>
      <trkpt lat="42.1135440" lon="-8.8386240">
        <ele>8.1</ele>
        <time>2021-05-19T14:29:30Z</time>
      </trkpt>
      <trkpt lat="42.1135440" lon="-8.8386240">
        <ele>8.1</ele>
        <time>2021-05-19T14:29:31Z</time>
      </trkpt>
      <trkpt lat="42.1135440" lon="-8.8386240">
        <ele>8.1</ele>
        <time>2021-05-19T14:29:32Z</time>
      </trkpt>
      <trkpt lat="42.1135440" lon="-8.8386240">
        <ele>8.1</ele>
        <time>2021-05-19T14:29:33Z</time>
      </trkpt>
      <trkpt lat="42.1135440" lon="-8.8386240">
        <ele>8.1</ele>
        <time>2021-05-19T14:29:34Z</time>
      </trkpt>
      <trkpt lat="42.1135440" lon="-8.8386240">
        <ele>8.1</ele>
        <time>2021-05-19T14:29:35Z</time>
      </trkpt>
      <trkpt lat="42.1135440" lon="-8.8386240">
        <ele>8.1</ele>
        <time>2021-05-19T14:29:36Z</time>
      </trkpt>
      <trkpt lat="42.1135440" lon="-8.8386240">
        <ele>8.1</ele>
        <time>2021-05-19T14:29:37Z</time>
      </trkpt>
      <trkpt lat="42.1135440" lon="-8.8386240">
        <ele>8.1</ele>
        <time>2021-05-19T14:29:38Z</time>
      </trkpt>
      <trkpt lat="42.1135440" lon="-8.8386240">
        <ele>8.1</ele>
        <time>2021-05-19T14:29:39Z</time>
      </trkpt>
      <trkpt lat="42.1135440" lon="-8.8386240">
        <ele>8.1</ele>
        <time>2021-05-19T14:29:40Z</time>
      </trkpt>
      <trkpt lat="42.1135440" lon="-8.8386240">
        <ele>8.1</ele>
        <time>2021-05-19T14:29:41Z</time>
      </trkpt>
      <trkpt lat="42.1135440" lon="-8.8386240">
        <ele>8.1</ele>
        <time>2021-05-19T14:29:42Z</time>
      </trkpt>
      <trkpt lat="42.1135440" lon="-8.8386240">
        <ele>8.1</ele>
        <time>2021-05-19T14:29:43Z</time>
      </trkpt>
      <trkpt lat="42.1135440" lon="-8.8386240">
        <ele>8.1</ele>
        <time>2021-05-19T14:29:44Z</time>
      </trkpt>
      <trkpt lat="42.1135440" lon="-8.8386240">
        <ele>8.1</ele>
        <time>2021-05-19T14:29:45Z</time>
      </trkpt>
      <trkpt lat="42.1135440" lon="-8.8386240">
        <ele>8.1</ele>
        <time>2021-05-19T14:29:46Z</time>
      </trkpt>
      <trkpt lat="42.1135440" lon="-8.8386240">
        <ele>8.1</ele>
        <time>2021-05-19T14:29:47Z</time>
      </trkpt>
      <trkpt lat="42.1135440" lon="-8.8386240">
        <ele>8.1</ele>
        <time>2021-05-19T14:29:48Z</time>
      </trkpt>
      <trkpt lat="42.1135440" lon="-8.8386240">
        <ele>8.1</ele>
        <time>2021-05-19T14:29:49Z</time>
      </trkpt>
      <trkpt lat="42.1135440" lon="-8.8386240">
        <ele>8.1</ele>
        <time>2021-05-19T14:29:50Z</time>
      </trkpt>
      <trkpt lat="42.1135440" lon="-8.8386240">
        <ele>8.1</ele>
        <time>2021-05-19T14:29:51Z</time>
      </trkpt>
      <trkpt lat="42.1135440" lon="-8.8386240">
        <ele>8.1</ele>
        <time>2021-05-19T14:29:52Z</time>
      </trkpt>
      <trkpt lat="42.1135440" lon="-8.8386240">
        <ele>8.1</ele>
        <time>2021-05-19T14:29:53Z</time>
      </trkpt>
      <trkpt lat="42.1135440" lon="-8.8386240">
        <ele>8.1</ele>
        <time>2021-05-19T14:29:54Z</time>
      </trkpt>
      <trkpt lat="42.1135440" lon="-8.8386240">
        <ele>8.1</ele>
        <time>2021-05-19T14:29:55Z</time>
      </trkpt>
      <trkpt lat="42.1135440" lon="-8.8386240">
        <ele>8.1</ele>
        <time>2021-05-19T14:29:56Z</time>
      </trkpt>
      <trkpt lat="42.1135440" lon="-8.8386240">
        <ele>8.1</ele>
        <time>2021-05-19T14:29:57Z</time>
      </trkpt>
      <trkpt lat="42.1135440" lon="-8.8386240">
        <ele>8.1</ele>
        <time>2021-05-19T14:29:58Z</time>
      </trkpt>
      <trkpt lat="42.1135440" lon="-8.8386240">
        <ele>8.1</ele>
        <time>2021-05-19T14:29:59Z</time>
      </trkpt>
      <trkpt lat="42.1135440" lon="-8.8386240">
        <ele>8.1</ele>
        <time>2021-05-19T14:30:00Z</time>
      </trkpt>
      <trkpt lat="42.1135440" lon="-8.8386240">
        <ele>8.1</ele>
        <time>2021-05-19T14:30:01Z</time>
      </trkpt>
      <trkpt lat="42.1135440" lon="-8.8386240">
        <ele>8.1</ele>
        <time>2021-05-19T14:30:02Z</time>
      </trkpt>
      <trkpt lat="42.1135440" lon="-8.8386240">
        <ele>8.1</ele>
        <time>2021-05-19T14:30:03Z</time>
      </trkpt>
      <trkpt lat="42.1135440" lon="-8.8386240">
        <ele>8.1</ele>
        <time>2021-05-19T14:30:04Z</time>
      </trkpt>
      <trkpt lat="42.1135440" lon="-8.8386240">
        <ele>8.1</ele>
        <time>2021-05-19T14:30:05Z</time>
      </trkpt>
      <trkpt lat="42.1135440" lon="-8.8386240">
        <ele>8.1</ele>
        <time>2021-05-19T14:30:06Z</time>
      </trkpt>
      <trkpt lat="42.1135440" lon="-8.8386240">
        <ele>8.1</ele>
        <time>2021-05-19T14:30:07Z</time>
      </trkpt>
      <trkpt lat="42.1135440" lon="-8.8386240">
        <ele>8.1</ele>
        <time>2021-05-19T14:30:08Z</time>
      </trkpt>
      <trkpt lat="42.1135440" lon="-8.8386240">
        <ele>8.1</ele>
        <time>2021-05-19T14:30:09Z</time>
      </trkpt>
      <trkpt lat="42.1135440" lon="-8.8386240">
        <ele>8.1</ele>
        <time>2021-05-19T14:30:10Z</time>
      </trkpt>
      <trkpt lat="42.1135440" lon="-8.8386240">
        <ele>8.1</ele>
        <time>2021-05-19T14:30:11Z</time>
      </trkpt>
      <trkpt lat="42.1135440" lon="-8.8386240">
        <ele>8.1</ele>
        <time>2021-05-19T14:30:12Z</time>
      </trkpt>
      <trkpt lat="42.1135440" lon="-8.8386240">
        <ele>8.1</ele>
        <time>2021-05-19T14:30:13Z</time>
      </trkpt>
      <trkpt lat="42.1135440" lon="-8.8386240">
        <ele>8.1</ele>
        <time>2021-05-19T14:30:14Z</time>
      </trkpt>
      <trkpt lat="42.1135440" lon="-8.8386240">
        <ele>8.1</ele>
        <time>2021-05-19T14:30:15Z</time>
      </trkpt>
      <trkpt lat="42.1135440" lon="-8.8386240">
        <ele>8.1</ele>
        <time>2021-05-19T14:30:16Z</time>
      </trkpt>
      <trkpt lat="42.1135440" lon="-8.8386240">
        <ele>8.1</ele>
        <time>2021-05-19T14:30:17Z</time>
      </trkpt>
      <trkpt lat="42.1135440" lon="-8.8386240">
        <ele>8.1</ele>
        <time>2021-05-19T14:30:18Z</time>
      </trkpt>
      <trkpt lat="42.1135440" lon="-8.8386240">
        <ele>8.1</ele>
        <time>2021-05-19T14:30:19Z</time>
      </trkpt>
      <trkpt lat="42.1135440" lon="-8.8386240">
        <ele>8.1</ele>
        <time>2021-05-19T14:30:20Z</time>
      </trkpt>
      <trkpt lat="42.1135440" lon="-8.8386240">
        <ele>8.1</ele>
        <time>2021-05-19T14:30:21Z</time>
      </trkpt>
      <trkpt lat="42.1135440" lon="-8.8386240">
        <ele>8.1</ele>
        <time>2021-05-19T14:30:22Z</time>
      </trkpt>
      <trkpt lat="42.1135440" lon="-8.8386240">
        <ele>8.1</ele>
        <time>2021-05-19T14:30:23Z</time>
      </trkpt>
      <trkpt lat="42.1135440" lon="-8.8386240">
        <ele>8.1</ele>
        <time>2021-05-19T14:30:24Z</time>
      </trkpt>
      <trkpt lat="42.1135440" lon="-8.8386240">
        <ele>8.1</ele>
        <time>2021-05-19T14:30:25Z</time>
      </trkpt>
      <trkpt lat="42.1135440" lon="-8.8386240">
        <ele>8.1</ele>
        <time>2021-05-19T14:30:26Z</time>
      </trkpt>
      <trkpt lat="42.1135440" lon="-8.8386240">
        <ele>8.1</ele>
        <time>2021-05-19T14:30:27Z</time>
      </trkpt>
      <trkpt lat="42.1135440" lon="-8.8386240">
        <ele>8.1</ele>
        <time>2021-05-19T14:30:28Z</time>
      </trkpt>
      <trkpt lat="42.1135440" lon="-8.8386240">
        <ele>8.1</ele>
        <time>2021-05-19T14:30:29Z</time>
      </trkpt>
      <trkpt lat="42.1135440" lon="-8.8386240">
        <ele>8.1</ele>
        <time>2021-05-19T14:30:30Z</time>
      </trkpt>
      <trkpt lat="42.1135440" lon="-8.8386240">
        <ele>8.1</ele>
        <time>2021-05-19T14:30:31Z</time>
      </trkpt>
      <trkpt lat="42.1135440" lon="-8.8386240">
        <ele>8.1</ele>
        <time>2021-05-19T14:30:32Z</time>
      </trkpt>
      <trkpt lat="42.1135440" lon="-8.8386240">
        <ele>8.1</ele>
        <time>2021-05-19T14:30:33Z</time>
      </trkpt>
      <trkpt lat="42.1135440" lon="-8.8386240">
        <ele>8.1</ele>
        <time>2021-05-19T14:30:34Z</time>
      </trkpt>
      <trkpt lat="42.1135440" lon="-8.8386240">
        <ele>8.1</ele>
        <time>2021-05-19T14:30:35Z</time>
      </trkpt>
      <trkpt lat="42.1135440" lon="-8.8386240">
        <ele>8.1</ele>
        <time>2021-05-19T14:30:36Z</time>
      </trkpt>
      <trkpt lat="42.1135440" lon="-8.8386240">
        <ele>8.1</ele>
        <time>2021-05-19T14:30:37Z</time>
      </trkpt>
      <trkpt lat="42.1135440" lon="-8.8386240">
        <ele>8.1</ele>
        <time>2021-05-19T14:30:38Z</time>
      </trkpt>
      <trkpt lat="42.1135440" lon="-8.8386240">
        <ele>8.1</ele>
        <time>2021-05-19T14:30:39Z</time>
      </trkpt>
      <trkpt lat="42.1135440" lon="-8.8386240">
        <ele>8.1</ele>
        <time>2021-05-19T14:30:40Z</time>
      </trkpt>
      <trkpt lat="42.1135440" lon="-8.8386240">
        <ele>8.1</ele>
        <time>2021-05-19T14:30:41Z</time>
      </trkpt>
      <trkpt lat="42.1135440" lon="-8.8386240">
        <ele>8.1</ele>
        <time>2021-05-19T14:30:42Z</time>
      </trkpt>
      <trkpt lat="42.1135440" lon="-8.8386240">
        <ele>8.1</ele>
        <time>2021-05-19T14:30:43Z</time>
      </trkpt>
      <trkpt lat="42.1135440" lon="-8.8386240">
        <ele>8.1</ele>
        <time>2021-05-19T14:30:44Z</time>
      </trkpt>
      <trkpt lat="42.1135440" lon="-8.8386240">
        <ele>8.1</ele>
        <time>2021-05-19T14:30:45Z</time>
      </trkpt>
      <trkpt lat="42.1135440" lon="-8.8386240">
        <ele>8.1</ele>
        <time>2021-05-19T14:30:46Z</time>
      </trkpt>
      <trkpt lat="42.1135440" lon="-8.8386240">
        <ele>8.1</ele>
        <time>2021-05-19T14:30:47Z</time>
      </trkpt>
      <trkpt lat="42.1135440" lon="-8.8386240">
        <ele>8.1</ele>
        <time>2021-05-19T14:30:48Z</time>
      </trkpt>
      <trkpt lat="42.1135440" lon="-8.8386240">
        <ele>8.1</ele>
        <time>2021-05-19T14:30:49Z</time>
      </trkpt>
      <trkpt lat="42.1135440" lon="-8.8386240">
        <ele>8.1</ele>
        <time>2021-05-19T14:30:50Z</time>
      </trkpt>
      <trkpt lat="42.1135440" lon="-8.8386240">
        <ele>8.1</ele>
        <time>2021-05-19T14:30:51Z</time>
      </trkpt>
      <trkpt lat="42.1135440" lon="-8.8386240">
        <ele>8.1</ele>
        <time>2021-05-19T14:30:52Z</time>
      </trkpt>
      <trkpt lat="42.1135440" lon="-8.8386240">
        <ele>8.1</ele>
        <time>2021-05-19T14:30:53Z</time>
      </trkpt>
      <trkpt lat="42.1135440" lon="-8.8386240">
        <ele>8.1</ele>
        <time>2021-05-19T14:30:54Z</time>
      </trkpt>
      <trkpt lat="42.1135440" lon="-8.8386240">
        <ele>8.1</ele>
        <time>2021-05-19T14:30:55Z</time>
      </trkpt>
      <trkpt lat="42.1135440" lon="-8.8386240">
        <ele>8.1</ele>
        <time>2021-05-19T14:30:56Z</time>
      </trkpt>
      <trkpt lat="42.1135440" lon="-8.8386240">
        <ele>8.1</ele>
        <time>2021-05-19T14:30:57Z</time>
      </trkpt>
      <trkpt lat="42.1135440" lon="-8.8386240">
        <ele>8.1</ele>
        <time>2021-05-19T14:30:58Z</time>
      </trkpt>
      <trkpt lat="42.1135440" lon="-8.8386240">
        <ele>8.1</ele>
        <time>2021-05-19T14:30:59Z</time>
      </trkpt>
      <trkpt lat="42.1135440" lon="-8.8386240">
        <ele>8.1</ele>
        <time>2021-05-19T14:31:00Z</time>
      </trkpt>
      <trkpt lat="42.1135440" lon="-8.8386240">
        <ele>8.1</ele>
        <time>2021-05-19T14:31:01Z</time>
      </trkpt>
      <trkpt lat="42.1135440" lon="-8.8386240">
        <ele>8.1</ele>
        <time>2021-05-19T14:31:02Z</time>
      </trkpt>
      <trkpt lat="42.1135440" lon="-8.8386240">
        <ele>8.1</ele>
        <time>2021-05-19T14:31:03Z</time>
      </trkpt>
      <trkpt lat="42.1135440" lon="-8.8386240">
        <ele>8.1</ele>
        <time>2021-05-19T14:31:04Z</time>
      </trkpt>
      <trkpt lat="42.1135440" lon="-8.8386240">
        <ele>8.1</ele>
        <time>2021-05-19T14:31:05Z</time>
      </trkpt>
      <trkpt lat="42.1135440" lon="-8.8386240">
        <ele>8.1</ele>
        <time>2021-05-19T14:31:06Z</time>
      </trkpt>
      <trkpt lat="42.1135440" lon="-8.8386240">
        <ele>8.1</ele>
        <time>2021-05-19T14:31:07Z</time>
      </trkpt>
      <trkpt lat="42.1135470" lon="-8.8386310">
        <ele>8.0</ele>
        <time>2021-05-19T14:31:08Z</time>
      </trkpt>
      <trkpt lat="42.1135430" lon="-8.8386280">
        <ele>8.1</ele>
        <time>2021-05-19T14:31:09Z</time>
      </trkpt>
      <trkpt lat="42.1135390" lon="-8.8386290">
        <ele>8.1</ele>
        <time>2021-05-19T14:31:10Z</time>
      </trkpt>
      <trkpt lat="42.1135350" lon="-8.8386310">
        <ele>8.3</ele>
        <time>2021-05-19T14:31:11Z</time>
      </trkpt>
      <trkpt lat="42.1135320" lon="-8.8386340">
        <ele>8.3</ele>
        <time>2021-05-19T14:31:12Z</time>
      </trkpt>
      <trkpt lat="42.1135340" lon="-8.8386310">
        <ele>8.3</ele>
        <time>2021-05-19T14:31:13Z</time>
      </trkpt>
      <trkpt lat="42.1135330" lon="-8.8386310">
        <ele>8.3</ele>
        <time>2021-05-19T14:31:14Z</time>
      </trkpt>
      <trkpt lat="42.1135300" lon="-8.8386330">
        <ele>8.3</ele>
        <time>2021-05-19T14:31:15Z</time>
      </trkpt>
      <trkpt lat="42.1135330" lon="-8.8386300">
        <ele>8.3</ele>
        <time>2021-05-19T14:31:16Z</time>
      </trkpt>
      <trkpt lat="42.1135370" lon="-8.8386290">
        <ele>8.4</ele>
        <time>2021-05-19T14:31:17Z</time>
      </trkpt>
      <trkpt lat="42.1135540" lon="-8.8386860">
        <ele>6.1</ele>
        <time>2021-05-20T04:50:26Z</time>
      </trkpt>
      <trkpt lat="42.1135580" lon="-8.8386740">
        <ele>6.1</ele>
        <time>2021-05-20T04:50:27Z</time>
      </trkpt>
      <trkpt lat="42.1135420" lon="-8.8386550">
        <ele>6.1</ele>
        <time>2021-05-20T04:50:28Z</time>
      </trkpt>
      <trkpt lat="42.1135340" lon="-8.8386430">
        <ele>6.1</ele>
        <time>2021-05-20T04:50:29Z</time>
      </trkpt>
      <trkpt lat="42.1135160" lon="-8.8386220">
        <ele>6.1</ele>
        <time>2021-05-20T04:50:30Z</time>
      </trkpt>
      <trkpt lat="42.1135040" lon="-8.8386200">
        <ele>6.1</ele>
        <time>2021-05-20T04:50:31Z</time>
      </trkpt>
      <trkpt lat="42.1134930" lon="-8.8386180">
        <ele>6.1</ele>
        <time>2021-05-20T04:50:32Z</time>
      </trkpt>
      <trkpt lat="42.1134870" lon="-8.8386250">
        <ele>6.1</ele>
        <time>2021-05-20T04:50:33Z</time>
      </trkpt>
      <trkpt lat="42.1134810" lon="-8.8386400">
        <ele>6.1</ele>
        <time>2021-05-20T04:50:34Z</time>
      </trkpt>
      <trkpt lat="42.1134700" lon="-8.8386460">
        <ele>6.1</ele>
        <time>2021-05-20T04:50:35Z</time>
      </trkpt>
      <trkpt lat="42.1134670" lon="-8.8386730">
        <ele>6.1</ele>
        <time>2021-05-20T04:50:36Z</time>
      </trkpt>
      <trkpt lat="42.1134680" lon="-8.8386890">
        <ele>6.1</ele>
        <time>2021-05-20T04:50:37Z</time>
      </trkpt>
      <trkpt lat="42.1134700" lon="-8.8387050">
        <ele>6.1</ele>
        <time>2021-05-20T04:50:38Z</time>
      </trkpt>
      <trkpt lat="42.1134710" lon="-8.8387220">
        <ele>6.1</ele>
        <time>2021-05-20T04:50:39Z</time>
      </trkpt>
      <trkpt lat="42.1134720" lon="-8.8387380">
        <ele>6.1</ele>
        <time>2021-05-20T04:50:40Z</time>
      </trkpt>
      <trkpt lat="42.1134730" lon="-8.8387540">
        <ele>6.1</ele>
        <time>2021-05-20T04:50:41Z</time>
      </trkpt>
      <trkpt lat="42.1134780" lon="-8.8387650">
        <ele>6.1</ele>
        <time>2021-05-20T04:50:42Z</time>
      </trkpt>
      <trkpt lat="42.1134830" lon="-8.8387700">
        <ele>6.1</ele>
        <time>2021-05-20T04:50:43Z</time>
      </trkpt>
      <trkpt lat="42.1134890" lon="-8.8387660">
        <ele>6.1</ele>
        <time>2021-05-20T04:50:44Z</time>
      </trkpt>
      <trkpt lat="42.1134960" lon="-8.8387640">
        <ele>6.1</ele>
        <time>2021-05-20T04:50:45Z</time>
      </trkpt>
      <trkpt lat="42.1134960" lon="-8.8387630">
        <ele>6.1</ele>
        <time>2021-05-20T04:50:46Z</time>
      </trkpt>
      <trkpt lat="42.1135060" lon="-8.8387670">
        <ele>6.1</ele>
        <time>2021-05-20T04:50:47Z</time>
      </trkpt>
      <trkpt lat="42.1135140" lon="-8.8387650">
        <ele>6.1</ele>
        <time>2021-05-20T04:50:48Z</time>
      </trkpt>
      <trkpt lat="42.1135270" lon="-8.8387730">
        <ele>6.1</ele>
        <time>2021-05-20T04:50:49Z</time>
      </trkpt>
      <trkpt lat="42.1135390" lon="-8.8387790">
        <ele>6.1</ele>
        <time>2021-05-20T04:50:50Z</time>
      </trkpt>
      <trkpt lat="42.1135410" lon="-8.8387840">
        <ele>6.1</ele>
        <time>2021-05-20T04:50:51Z</time>
      </trkpt>
      <trkpt lat="42.1135380" lon="-8.8387870">
        <ele>6.1</ele>
        <time>2021-05-20T04:50:52Z</time>
      </trkpt>
      <trkpt lat="42.1135360" lon="-8.8387900">
        <ele>6.1</ele>
        <time>2021-05-20T04:50:53Z</time>
      </trkpt>
      <trkpt lat="42.1135330" lon="-8.8387930">
        <ele>6.1</ele>
        <time>2021-05-20T04:50:54Z</time>
      </trkpt>
      <trkpt lat="42.1135310" lon="-8.8387960">
        <ele>6.1</ele>
        <time>2021-05-20T04:50:55Z</time>
      </trkpt>
      <trkpt lat="42.1135290" lon="-8.8388000">
        <ele>6.1</ele>
        <time>2021-05-20T04:50:56Z</time>
      </trkpt>
      <trkpt lat="42.1135260" lon="-8.8388030">
        <ele>6.1</ele>
        <time>2021-05-20T04:50:57Z</time>
      </trkpt>
      <trkpt lat="42.1135240" lon="-8.8388060">
        <ele>6.1</ele>
        <time>2021-05-20T04:50:58Z</time>
      </trkpt>
      <trkpt lat="42.1135210" lon="-8.8388090">
        <ele>6.1</ele>
        <time>2021-05-20T04:50:59Z</time>
      </trkpt>
      <trkpt lat="42.1135190" lon="-8.8388120">
        <ele>6.1</ele>
        <time>2021-05-20T04:51:00Z</time>
      </trkpt>
      <trkpt lat="42.1135160" lon="-8.8388150">
        <ele>6.1</ele>
        <time>2021-05-20T04:51:01Z</time>
      </trkpt>
      <trkpt lat="42.1135140" lon="-8.8388180">
        <ele>6.1</ele>
        <time>2021-05-20T04:51:02Z</time>
      </trkpt>
      <trkpt lat="42.1135320" lon="-8.8388120">
        <ele>6.1</ele>
        <time>2021-05-20T04:51:03Z</time>
      </trkpt>
      <trkpt lat="42.1135460" lon="-8.8388010">
        <ele>6.1</ele>
        <time>2021-05-20T04:51:04Z</time>
      </trkpt>
      <trkpt lat="42.1135470" lon="-8.8387790">
        <ele>6.1</ele>
        <time>2021-05-20T04:51:05Z</time>
      </trkpt>
      <trkpt lat="42.1135540" lon="-8.8387710">
        <ele>6.1</ele>
        <time>2021-05-20T04:51:06Z</time>
      </trkpt>
      <trkpt lat="42.1135610" lon="-8.8387660">
        <ele>6.1</ele>
        <time>2021-05-20T04:51:07Z</time>
      </trkpt>
      <trkpt lat="42.1135650" lon="-8.8387550">
        <ele>6.1</ele>
        <time>2021-05-20T04:51:08Z</time>
      </trkpt>
      <trkpt lat="42.1135740" lon="-8.8387410">
        <ele>6.1</ele>
        <time>2021-05-20T04:51:09Z</time>
      </trkpt>
      <trkpt lat="42.1135800" lon="-8.8387300">
        <ele>6.2</ele>
        <time>2021-05-20T04:51:10Z</time>
      </trkpt>
      <trkpt lat="42.1136020" lon="-8.8387080">
        <ele>6.2</ele>
        <time>2021-05-20T04:51:11Z</time>
      </trkpt>
      <trkpt lat="42.1136100" lon="-8.8387000">
        <ele>6.2</ele>
        <time>2021-05-20T04:51:12Z</time>
      </trkpt>
      <trkpt lat="42.1136340" lon="-8.8386870">
        <ele>6.2</ele>
        <time>2021-05-20T04:51:13Z</time>
      </trkpt>
      <trkpt lat="42.1136400" lon="-8.8386760">
        <ele>6.2</ele>
        <time>2021-05-20T04:51:14Z</time>
      </trkpt>
      <trkpt lat="42.1136460" lon="-8.8386660">
        <ele>6.2</ele>
        <time>2021-05-20T04:51:15Z</time>
      </trkpt>
      <trkpt lat="42.1136630" lon="-8.8386500">
        <ele>6.2</ele>
        <time>2021-05-20T04:51:16Z</time>
      </trkpt>
      <trkpt lat="42.1136760" lon="-8.8386520">
        <ele>6.2</ele>
        <time>2021-05-20T04:51:17Z</time>
      </trkpt>
      <trkpt lat="42.1136890" lon="-8.8386340">
        <ele>6.2</ele>
        <time>2021-05-20T04:51:18Z</time>
      </trkpt>
      <trkpt lat="42.1136990" lon="-8.8386330">
        <ele>6.2</ele>
        <time>2021-05-20T04:51:19Z</time>
      </trkpt>
      <trkpt lat="42.1137040" lon="-8.8386310">
        <ele>6.2</ele>
        <time>2021-05-20T04:51:20Z</time>
      </trkpt>
      <trkpt lat="42.1137120" lon="-8.8386260">
        <ele>6.2</ele>
        <time>2021-05-20T04:51:21Z</time>
      </trkpt>
      <trkpt lat="42.1137360" lon="-8.8386220">
        <ele>6.2</ele>
        <time>2021-05-20T04:51:22Z</time>
      </trkpt>
      <trkpt lat="42.1137540" lon="-8.8386250">
        <ele>6.2</ele>
        <time>2021-05-20T04:51:23Z</time>
      </trkpt>
      <trkpt lat="42.1137590" lon="-8.8386260">
        <ele>6.2</ele>
        <time>2021-05-20T04:51:24Z</time>
      </trkpt>
      <trkpt lat="42.1137700" lon="-8.8386150">
        <ele>6.2</ele>
        <time>2021-05-20T04:51:25Z</time>
      </trkpt>
      <trkpt lat="42.1137790" lon="-8.8385890">
        <ele>6.2</ele>
        <time>2021-05-20T04:51:26Z</time>
      </trkpt>
      <trkpt lat="42.1137850" lon="-8.8385730">
        <ele>6.2</ele>
        <time>2021-05-20T04:51:27Z</time>
      </trkpt>
      <trkpt lat="42.1137820" lon="-8.8385560">
        <ele>6.2</ele>
        <time>2021-05-20T04:51:28Z</time>
      </trkpt>
      <trkpt lat="42.1137730" lon="-8.8385320">
        <ele>6.2</ele>
        <time>2021-05-20T04:51:29Z</time>
      </trkpt>
      <trkpt lat="42.1137610" lon="-8.8385100">
        <ele>6.2</ele>
        <time>2021-05-20T04:51:30Z</time>
      </trkpt>
      <trkpt lat="42.1137560" lon="-8.8384910">
        <ele>6.2</ele>
        <time>2021-05-20T04:51:31Z</time>
      </trkpt>
      <trkpt lat="42.1137560" lon="-8.8384760">
        <ele>6.2</ele>
        <time>2021-05-20T04:51:32Z</time>
      </trkpt>
      <trkpt lat="42.1137530" lon="-8.8384650">
        <ele>6.2</ele>
        <time>2021-05-20T04:51:33Z</time>
      </trkpt>
      <trkpt lat="42.1137550" lon="-8.8384560">
        <ele>6.2</ele>
        <time>2021-05-20T04:51:34Z</time>
      </trkpt>
      <trkpt lat="42.1137530" lon="-8.8384490">
        <ele>6.2</ele>
        <time>2021-05-20T04:51:35Z</time>
      </trkpt>
      <trkpt lat="42.1137520" lon="-8.8384260">
        <ele>6.2</ele>
        <time>2021-05-20T04:51:36Z</time>
      </trkpt>
      <trkpt lat="42.1137490" lon="-8.8384120">
        <ele>6.2</ele>
        <time>2021-05-20T04:51:37Z</time>
      </trkpt>
      <trkpt lat="42.1137490" lon="-8.8383860">
        <ele>6.2</ele>
        <time>2021-05-20T04:51:38Z</time>
      </trkpt>
      <trkpt lat="42.1137500" lon="-8.8383740">
        <ele>6.2</ele>
        <time>2021-05-20T04:51:39Z</time>
      </trkpt>
      <trkpt lat="42.1137510" lon="-8.8383620">
        <ele>6.2</ele>
        <time>2021-05-20T04:51:40Z</time>
      </trkpt>
      <trkpt lat="42.1137540" lon="-8.8383480">
        <ele>6.2</ele>
        <time>2021-05-20T04:51:41Z</time>
      </trkpt>
      <trkpt lat="42.1137540" lon="-8.8383420">
        <ele>6.2</ele>
        <time>2021-05-20T04:51:42Z</time>
      </trkpt>
      <trkpt lat="42.1137540" lon="-8.8383370">
        <ele>6.2</ele>
        <time>2021-05-20T04:51:43Z</time>
      </trkpt>
      <trkpt lat="42.1137550" lon="-8.8383320">
        <ele>6.2</ele>
        <time>2021-05-20T04:51:44Z</time>
      </trkpt>
      <trkpt lat="42.1137550" lon="-8.8383260">
        <ele>6.2</ele>
        <time>2021-05-20T04:51:45Z</time>
      </trkpt>
      <trkpt lat="42.1137550" lon="-8.8383210">
        <ele>6.2</ele>
        <time>2021-05-20T04:51:46Z</time>
      </trkpt>
      <trkpt lat="42.1137550" lon="-8.8383150">
        <ele>6.2</ele>
        <time>2021-05-20T04:51:47Z</time>
      </trkpt>
      <trkpt lat="42.1137550" lon="-8.8383100">
        <ele>6.2</ele>
        <time>2021-05-20T04:51:48Z</time>
      </trkpt>
      <trkpt lat="42.1137580" lon="-8.8382960">
        <ele>6.2</ele>
        <time>2021-05-20T04:51:49Z</time>
      </trkpt>
      <trkpt lat="42.1137550" lon="-8.8382900">
        <ele>6.2</ele>
        <time>2021-05-20T04:51:50Z</time>
      </trkpt>
      <trkpt lat="42.1137510" lon="-8.8382830">
        <ele>6.3</ele>
        <time>2021-05-20T04:51:51Z</time>
      </trkpt>
      <trkpt lat="42.1137470" lon="-8.8382760">
        <ele>6.3</ele>
        <time>2021-05-20T04:51:52Z</time>
      </trkpt>
      <trkpt lat="42.1137440" lon="-8.8382700">
        <ele>6.3</ele>
        <time>2021-05-20T04:51:53Z</time>
      </trkpt>
      <trkpt lat="42.1137400" lon="-8.8382630">
        <ele>6.3</ele>
        <time>2021-05-20T04:51:54Z</time>
      </trkpt>
      <trkpt lat="42.1137220" lon="-8.8382390">
        <ele>6.3</ele>
        <time>2021-05-20T04:51:55Z</time>
      </trkpt>
      <trkpt lat="42.1137140" lon="-8.8382340">
        <ele>6.3</ele>
        <time>2021-05-20T04:51:56Z</time>
      </trkpt>
      <trkpt lat="42.1137050" lon="-8.8382280">
        <ele>6.3</ele>
        <time>2021-05-20T04:51:57Z</time>
      </trkpt>
      <trkpt lat="42.1136970" lon="-8.8382220">
        <ele>6.3</ele>
        <time>2021-05-20T04:51:58Z</time>
      </trkpt>
      <trkpt lat="42.1136980" lon="-8.8382050">
        <ele>6.3</ele>
        <time>2021-05-20T04:51:59Z</time>
      </trkpt>
      <trkpt lat="42.1136940" lon="-8.8381920">
        <ele>6.3</ele>
        <time>2021-05-20T04:52:00Z</time>
      </trkpt>
      <trkpt lat="42.1136910" lon="-8.8381820">
        <ele>6.3</ele>
        <time>2021-05-20T04:52:01Z</time>
      </trkpt>
      <trkpt lat="42.1136880" lon="-8.8381660">
        <ele>6.3</ele>
        <time>2021-05-20T04:52:02Z</time>
      </trkpt>
      <trkpt lat="42.1136890" lon="-8.8381540">
        <ele>6.3</ele>
        <time>2021-05-20T04:52:03Z</time>
      </trkpt>
      <trkpt lat="42.1136830" lon="-8.8381320">
        <ele>6.3</ele>
        <time>2021-05-20T04:52:04Z</time>
      </trkpt>
      <trkpt lat="42.1136850" lon="-8.8381180">
        <ele>6.3</ele>
        <time>2021-05-20T04:52:05Z</time>
      </trkpt>
      <trkpt lat="42.1136750" lon="-8.8381110">
        <ele>6.3</ele>
        <time>2021-05-20T04:52:06Z</time>
      </trkpt>
      <trkpt lat="42.1136600" lon="-8.8381050">
        <ele>6.3</ele>
        <time>2021-05-20T04:52:07Z</time>
      </trkpt>
      <trkpt lat="42.1136380" lon="-8.8380950">
        <ele>6.3</ele>
        <time>2021-05-20T04:52:08Z</time>
      </trkpt>
      <trkpt lat="42.1136290" lon="-8.8380910">
        <ele>6.4</ele>
        <time>2021-05-20T04:52:09Z</time>
      </trkpt>
      <trkpt lat="42.1136190" lon="-8.8380880">
        <ele>6.4</ele>
        <time>2021-05-20T04:52:10Z</time>
      </trkpt>
      <trkpt lat="42.1136150" lon="-8.8380870">
        <ele>6.4</ele>
        <time>2021-05-20T04:52:11Z</time>
      </trkpt>
      <trkpt lat="42.1136130" lon="-8.8380990">
        <ele>6.4</ele>
        <time>2021-05-20T04:52:12Z</time>
      </trkpt>
      <trkpt lat="42.1136110" lon="-8.8380940">
        <ele>6.4</ele>
        <time>2021-05-20T04:52:13Z</time>
      </trkpt>
      <trkpt lat="42.1135990" lon="-8.8380860">
        <ele>6.4</ele>
        <time>2021-05-20T04:52:14Z</time>
      </trkpt>
      <trkpt lat="42.1135890" lon="-8.8380720">
        <ele>6.4</ele>
        <time>2021-05-20T04:52:15Z</time>
      </trkpt>
      <trkpt lat="42.1135830" lon="-8.8380650">
        <ele>6.4</ele>
        <time>2021-05-20T04:52:16Z</time>
      </trkpt>
      <trkpt lat="42.1135840" lon="-8.8380580">
        <ele>6.4</ele>
        <time>2021-05-20T04:52:17Z</time>
      </trkpt>
      <trkpt lat="42.1135800" lon="-8.8380590">
        <ele>6.4</ele>
        <time>2021-05-20T04:52:18Z</time>
      </trkpt>
      <trkpt lat="42.1135800" lon="-8.8380600">
        <ele>6.4</ele>
        <time>2021-05-20T04:52:19Z</time>
      </trkpt>
      <trkpt lat="42.1135740" lon="-8.8380700">
        <ele>6.4</ele>
        <time>2021-05-20T04:52:20Z</time>
      </trkpt>
      <trkpt lat="42.1135730" lon="-8.8380750">
        <ele>6.4</ele>
        <time>2021-05-20T04:52:21Z</time>
      </trkpt>
      <trkpt lat="42.1135670" lon="-8.8380680">
        <ele>6.4</ele>
        <time>2021-05-20T04:52:22Z</time>
      </trkpt>
      <trkpt lat="42.1135700" lon="-8.8380590">
        <ele>6.4</ele>
        <time>2021-05-20T04:52:23Z</time>
      </trkpt>
      <trkpt lat="42.1135630" lon="-8.8380450">
        <ele>6.4</ele>
        <time>2021-05-20T04:52:24Z</time>
      </trkpt>
      <trkpt lat="42.1135590" lon="-8.8380400">
        <ele>6.4</ele>
        <time>2021-05-20T04:52:25Z</time>
      </trkpt>
      <trkpt lat="42.1135530" lon="-8.8380340">
        <ele>6.4</ele>
        <time>2021-05-20T04:52:26Z</time>
      </trkpt>
      <trkpt lat="42.1135440" lon="-8.8380160">
        <ele>6.4</ele>
        <time>2021-05-20T04:52:27Z</time>
      </trkpt>
      <trkpt lat="42.1135390" lon="-8.8379980">
        <ele>6.4</ele>
        <time>2021-05-20T04:52:28Z</time>
      </trkpt>
      <trkpt lat="42.1135400" lon="-8.8379790">
        <ele>6.4</ele>
        <time>2021-05-20T04:52:29Z</time>
      </trkpt>
      <trkpt lat="42.1135310" lon="-8.8379570">
        <ele>6.4</ele>
        <time>2021-05-20T04:52:30Z</time>
      </trkpt>
      <trkpt lat="42.1135230" lon="-8.8379370">
        <ele>6.4</ele>
        <time>2021-05-20T04:52:31Z</time>
      </trkpt>
      <trkpt lat="42.1135200" lon="-8.8379230">
        <ele>6.5</ele>
        <time>2021-05-20T04:52:32Z</time>
      </trkpt>
      <trkpt lat="42.1135200" lon="-8.8379110">
        <ele>6.5</ele>
        <time>2021-05-20T04:52:33Z</time>
      </trkpt>
      <trkpt lat="42.1135160" lon="-8.8378960">
        <ele>6.5</ele>
        <time>2021-05-20T04:52:34Z</time>
      </trkpt>
      <trkpt lat="42.1135080" lon="-8.8378850">
        <ele>6.5</ele>
        <time>2021-05-20T04:52:35Z</time>
      </trkpt>
      <trkpt lat="42.1135040" lon="-8.8378670">
        <ele>6.5</ele>
        <time>2021-05-20T04:52:36Z</time>
      </trkpt>
      <trkpt lat="42.1134980" lon="-8.8378540">
        <ele>6.5</ele>
        <time>2021-05-20T04:52:37Z</time>
      </trkpt>
      <trkpt lat="42.1134940" lon="-8.8378430">
        <ele>6.5</ele>
        <time>2021-05-20T04:52:38Z</time>
      </trkpt>
      <trkpt lat="42.1134910" lon="-8.8378250">
        <ele>6.5</ele>
        <time>2021-05-20T04:52:39Z</time>
      </trkpt>
      <trkpt lat="42.1134860" lon="-8.8378200">
        <ele>6.5</ele>
        <time>2021-05-20T04:52:40Z</time>
      </trkpt>
      <trkpt lat="42.1134740" lon="-8.8377950">
        <ele>6.5</ele>
        <time>2021-05-20T04:52:41Z</time>
      </trkpt>
      <trkpt lat="42.1134670" lon="-8.8377840">
        <ele>6.5</ele>
        <time>2021-05-20T04:52:42Z</time>
      </trkpt>
      <trkpt lat="42.1134600" lon="-8.8377720">
        <ele>6.5</ele>
        <time>2021-05-20T04:52:43Z</time>
      </trkpt>
      <trkpt lat="42.1134600" lon="-8.8377590">
        <ele>6.5</ele>
        <time>2021-05-20T04:52:44Z</time>
      </trkpt>
      <trkpt lat="42.1134630" lon="-8.8377500">
        <ele>6.5</ele>
        <time>2021-05-20T04:52:45Z</time>
      </trkpt>
      <trkpt lat="42.1134620" lon="-8.8377350">
        <ele>6.5</ele>
        <time>2021-05-20T04:52:46Z</time>
      </trkpt>
      <trkpt lat="42.1134580" lon="-8.8377270">
        <ele>6.5</ele>
        <time>2021-05-20T04:52:47Z</time>
      </trkpt>
      <trkpt lat="42.1134570" lon="-8.8377190">
        <ele>6.5</ele>
        <time>2021-05-20T04:52:48Z</time>
      </trkpt>
      <trkpt lat="42.1134540" lon="-8.8376990">
        <ele>6.5</ele>
        <time>2021-05-20T04:52:49Z</time>
      </trkpt>
      <trkpt lat="42.1134520" lon="-8.8376920">
        <ele>6.5</ele>
        <time>2021-05-20T04:52:50Z</time>
      </trkpt>
      <trkpt lat="42.1134530" lon="-8.8376670">
        <ele>6.5</ele>
        <time>2021-05-20T04:52:51Z</time>
      </trkpt>
      <trkpt lat="42.1134470" lon="-8.8376520">
        <ele>6.5</ele>
        <time>2021-05-20T04:52:52Z</time>
      </trkpt>
      <trkpt lat="42.1134410" lon="-8.8376390">
        <ele>6.5</ele>
        <time>2021-05-20T04:52:53Z</time>
      </trkpt>
      <trkpt lat="42.1134340" lon="-8.8376230">
        <ele>6.5</ele>
        <time>2021-05-20T04:52:54Z</time>
      </trkpt>
      <trkpt lat="42.1134330" lon="-8.8376160">
        <ele>6.5</ele>
        <time>2021-05-20T04:52:55Z</time>
      </trkpt>
      <trkpt lat="42.1134300" lon="-8.8375870">
        <ele>6.6</ele>
        <time>2021-05-20T04:52:56Z</time>
      </trkpt>
      <trkpt lat="42.1134270" lon="-8.8375760">
        <ele>6.6</ele>
        <time>2021-05-20T04:52:57Z</time>
      </trkpt>
      <trkpt lat="42.1134240" lon="-8.8375640">
        <ele>6.6</ele>
        <time>2021-05-20T04:52:58Z</time>
      </trkpt>
      <trkpt lat="42.1134180" lon="-8.8375490">
        <ele>6.6</ele>
        <time>2021-05-20T04:52:59Z</time>
      </trkpt>
      <trkpt lat="42.1134160" lon="-8.8375400">
        <ele>6.6</ele>
        <time>2021-05-20T04:53:00Z</time>
      </trkpt>
      <trkpt lat="42.1134160" lon="-8.8375270">
        <ele>6.6</ele>
        <time>2021-05-20T04:53:01Z</time>
      </trkpt>
      <trkpt lat="42.1134150" lon="-8.8375180">
        <ele>6.6</ele>
        <time>2021-05-20T04:53:02Z</time>
      </trkpt>
      <trkpt lat="42.1134100" lon="-8.8375050">
        <ele>6.6</ele>
        <time>2021-05-20T04:53:03Z</time>
      </trkpt>
      <trkpt lat="42.1134040" lon="-8.8374880">
        <ele>6.6</ele>
        <time>2021-05-20T04:53:04Z</time>
      </trkpt>
      <trkpt lat="42.1133970" lon="-8.8374800">
        <ele>6.6</ele>
        <time>2021-05-20T04:53:05Z</time>
      </trkpt>
      <trkpt lat="42.1133920" lon="-8.8374650">
        <ele>6.6</ele>
        <time>2021-05-20T04:53:06Z</time>
      </trkpt>
      <trkpt lat="42.1133880" lon="-8.8374500">
        <ele>6.6</ele>
        <time>2021-05-20T04:53:07Z</time>
      </trkpt>
      <trkpt lat="42.1133870" lon="-8.8374410">
        <ele>6.6</ele>
        <time>2021-05-20T04:53:08Z</time>
      </trkpt>
      <trkpt lat="42.1133880" lon="-8.8374250">
        <ele>6.6</ele>
        <time>2021-05-20T04:53:09Z</time>
      </trkpt>
      <trkpt lat="42.1133800" lon="-8.8374040">
        <ele>6.6</ele>
        <time>2021-05-20T04:53:10Z</time>
      </trkpt>
      <trkpt lat="42.1133750" lon="-8.8373950">
        <ele>6.6</ele>
        <time>2021-05-20T04:53:11Z</time>
      </trkpt>
      <trkpt lat="42.1133750" lon="-8.8373910">
        <ele>6.6</ele>
        <time>2021-05-20T04:53:12Z</time>
      </trkpt>
      <trkpt lat="42.1133740" lon="-8.8373880">
        <ele>6.6</ele>
        <time>2021-05-20T04:53:13Z</time>
      </trkpt>
      <trkpt lat="42.1133730" lon="-8.8373840">
        <ele>6.6</ele>
        <time>2021-05-20T04:53:14Z</time>
      </trkpt>
      <trkpt lat="42.1133720" lon="-8.8373810">
        <ele>6.6</ele>
        <time>2021-05-20T04:53:15Z</time>
      </trkpt>
      <trkpt lat="42.1133720" lon="-8.8373770">
        <ele>6.6</ele>
        <time>2021-05-20T04:53:16Z</time>
      </trkpt>
      <trkpt lat="42.1133710" lon="-8.8373740">
        <ele>6.6</ele>
        <time>2021-05-20T04:53:17Z</time>
      </trkpt>
      <trkpt lat="42.1133700" lon="-8.8373710">
        <ele>6.6</ele>
        <time>2021-05-20T04:53:18Z</time>
      </trkpt>
      <trkpt lat="42.1133700" lon="-8.8373670">
        <ele>6.6</ele>
        <time>2021-05-20T04:53:19Z</time>
      </trkpt>
      <trkpt lat="42.1133690" lon="-8.8373640">
        <ele>6.6</ele>
        <time>2021-05-20T04:53:20Z</time>
      </trkpt>
      <trkpt lat="42.1133680" lon="-8.8373600">
        <ele>6.6</ele>
        <time>2021-05-20T04:53:21Z</time>
      </trkpt>
      <trkpt lat="42.1133670" lon="-8.8373570">
        <ele>6.6</ele>
        <time>2021-05-20T04:53:22Z</time>
      </trkpt>
      <trkpt lat="42.1133670" lon="-8.8373530">
        <ele>6.6</ele>
        <time>2021-05-20T04:53:23Z</time>
      </trkpt>
      <trkpt lat="42.1133660" lon="-8.8373500">
        <ele>6.6</ele>
        <time>2021-05-20T04:53:24Z</time>
      </trkpt>
      <trkpt lat="42.1133650" lon="-8.8373470">
        <ele>6.6</ele>
        <time>2021-05-20T04:53:25Z</time>
      </trkpt>
      <trkpt lat="42.1133650" lon="-8.8373430">
        <ele>6.6</ele>
        <time>2021-05-20T04:53:26Z</time>
      </trkpt>
      <trkpt lat="42.1133640" lon="-8.8373400">
        <ele>6.6</ele>
        <time>2021-05-20T04:53:27Z</time>
      </trkpt>
      <trkpt lat="42.1133630" lon="-8.8373360">
        <ele>6.6</ele>
        <time>2021-05-20T04:53:28Z</time>
      </trkpt>
      <trkpt lat="42.1133620" lon="-8.8373330">
        <ele>6.6</ele>
        <time>2021-05-20T04:53:29Z</time>
      </trkpt>
      <trkpt lat="42.1133620" lon="-8.8373290">
        <ele>6.6</ele>
        <time>2021-05-20T04:53:30Z</time>
      </trkpt>
      <trkpt lat="42.1133610" lon="-8.8373260">
        <ele>6.6</ele>
        <time>2021-05-20T04:53:31Z</time>
      </trkpt>
      <trkpt lat="42.1133330" lon="-8.8373080">
        <ele>6.6</ele>
        <time>2021-05-20T04:53:32Z</time>
      </trkpt>
      <trkpt lat="42.1133270" lon="-8.8373050">
        <ele>6.6</ele>
        <time>2021-05-20T04:53:33Z</time>
      </trkpt>
      <trkpt lat="42.1133180" lon="-8.8372820">
        <ele>6.6</ele>
        <time>2021-05-20T04:53:34Z</time>
      </trkpt>
      <trkpt lat="42.1133150" lon="-8.8372700">
        <ele>6.6</ele>
        <time>2021-05-20T04:53:35Z</time>
      </trkpt>
      <trkpt lat="42.1133130" lon="-8.8372570">
        <ele>6.6</ele>
        <time>2021-05-20T04:53:36Z</time>
      </trkpt>
      <trkpt lat="42.1133020" lon="-8.8372340">
        <ele>6.7</ele>
        <time>2021-05-20T04:53:37Z</time>
      </trkpt>
      <trkpt lat="42.1133010" lon="-8.8372190">
        <ele>6.7</ele>
        <time>2021-05-20T04:53:38Z</time>
      </trkpt>
      <trkpt lat="42.1132990" lon="-8.8372050">
        <ele>6.7</ele>
        <time>2021-05-20T04:53:39Z</time>
      </trkpt>
      <trkpt lat="42.1132970" lon="-8.8371890">
        <ele>6.7</ele>
        <time>2021-05-20T04:53:40Z</time>
      </trkpt>
      <trkpt lat="42.1132880" lon="-8.8371780">
        <ele>6.7</ele>
        <time>2021-05-20T04:53:41Z</time>
      </trkpt>
      <trkpt lat="42.1132820" lon="-8.8371700">
        <ele>6.7</ele>
        <time>2021-05-20T04:53:42Z</time>
      </trkpt>
      <trkpt lat="42.1132760" lon="-8.8371530">
        <ele>6.7</ele>
        <time>2021-05-20T04:53:43Z</time>
      </trkpt>
      <trkpt lat="42.1132780" lon="-8.8371480">
        <ele>6.7</ele>
        <time>2021-05-20T04:53:44Z</time>
      </trkpt>
      <trkpt lat="42.1132660" lon="-8.8371350">
        <ele>6.7</ele>
        <time>2021-05-20T04:53:45Z</time>
      </trkpt>
      <trkpt lat="42.1132630" lon="-8.8371230">
        <ele>6.7</ele>
        <time>2021-05-20T04:53:46Z</time>
      </trkpt>
      <trkpt lat="42.1132580" lon="-8.8371120">
        <ele>6.7</ele>
        <time>2021-05-20T04:53:47Z</time>
      </trkpt>
      <trkpt lat="42.1132490" lon="-8.8371020">
        <ele>6.7</ele>
        <time>2021-05-20T04:53:48Z</time>
      </trkpt>
      <trkpt lat="42.1132390" lon="-8.8370740">
        <ele>6.7</ele>
        <time>2021-05-20T04:53:49Z</time>
      </trkpt>
      <trkpt lat="42.1132350" lon="-8.8370630">
        <ele>6.7</ele>
        <time>2021-05-20T04:53:50Z</time>
      </trkpt>
      <trkpt lat="42.1132310" lon="-8.8370520">
        <ele>6.7</ele>
        <time>2021-05-20T04:53:51Z</time>
      </trkpt>
      <trkpt lat="42.1132250" lon="-8.8370410">
        <ele>6.7</ele>
        <time>2021-05-20T04:53:52Z</time>
      </trkpt>
      <trkpt lat="42.1132190" lon="-8.8370290">
        <ele>6.7</ele>
        <time>2021-05-20T04:53:53Z</time>
      </trkpt>
      <trkpt lat="42.1132160" lon="-8.8370130">
        <ele>6.7</ele>
        <time>2021-05-20T04:53:54Z</time>
      </trkpt>
      <trkpt lat="42.1132080" lon="-8.8369920">
        <ele>6.7</ele>
        <time>2021-05-20T04:53:55Z</time>
      </trkpt>
      <trkpt lat="42.1132020" lon="-8.8369860">
        <ele>6.7</ele>
        <time>2021-05-20T04:53:56Z</time>
      </trkpt>
      <trkpt lat="42.1132040" lon="-8.8369800">
        <ele>6.7</ele>
        <time>2021-05-20T04:53:57Z</time>
      </trkpt>
      <trkpt lat="42.1132030" lon="-8.8369690">
        <ele>6.7</ele>
        <time>2021-05-20T04:53:58Z</time>
      </trkpt>
      <trkpt lat="42.1132090" lon="-8.8369570">
        <ele>6.7</ele>
        <time>2021-05-20T04:53:59Z</time>
      </trkpt>
      <trkpt lat="42.1132150" lon="-8.8369450">
        <ele>6.7</ele>
        <time>2021-05-20T04:54:00Z</time>
      </trkpt>
      <trkpt lat="42.1132160" lon="-8.8369290">
        <ele>6.7</ele>
        <time>2021-05-20T04:54:01Z</time>
      </trkpt>
      <trkpt lat="42.1132190" lon="-8.8369090">
        <ele>6.7</ele>
        <time>2021-05-20T04:54:02Z</time>
      </trkpt>
      <trkpt lat="42.1132210" lon="-8.8368920">
        <ele>6.7</ele>
        <time>2021-05-20T04:54:03Z</time>
      </trkpt>
      <trkpt lat="42.1132310" lon="-8.8368690">
        <ele>6.6</ele>
        <time>2021-05-20T04:54:04Z</time>
      </trkpt>
      <trkpt lat="42.1132260" lon="-8.8368580">
        <ele>6.6</ele>
        <time>2021-05-20T04:54:05Z</time>
      </trkpt>
      <trkpt lat="42.1132260" lon="-8.8368430">
        <ele>6.6</ele>
        <time>2021-05-20T04:54:06Z</time>
      </trkpt>
      <trkpt lat="42.1132290" lon="-8.8368250">
        <ele>6.6</ele>
        <time>2021-05-20T04:54:07Z</time>
      </trkpt>
      <trkpt lat="42.1132280" lon="-8.8368040">
        <ele>6.6</ele>
        <time>2021-05-20T04:54:08Z</time>
      </trkpt>
      <trkpt lat="42.1132220" lon="-8.8367890">
        <ele>6.6</ele>
        <time>2021-05-20T04:54:09Z</time>
      </trkpt>
      <trkpt lat="42.1132150" lon="-8.8367700">
        <ele>6.6</ele>
        <time>2021-05-20T04:54:10Z</time>
      </trkpt>
      <trkpt lat="42.1132050" lon="-8.8367540">
        <ele>6.6</ele>
        <time>2021-05-20T04:54:11Z</time>
      </trkpt>
      <trkpt lat="42.1131980" lon="-8.8367420">
        <ele>6.6</ele>
        <time>2021-05-20T04:54:12Z</time>
      </trkpt>
      <trkpt lat="42.1131920" lon="-8.8367340">
        <ele>6.6</ele>
        <time>2021-05-20T04:54:13Z</time>
      </trkpt>
      <trkpt lat="42.1131830" lon="-8.8367230">
        <ele>6.6</ele>
        <time>2021-05-20T04:54:14Z</time>
      </trkpt>
      <trkpt lat="42.1131740" lon="-8.8367100">
        <ele>6.6</ele>
        <time>2021-05-20T04:54:15Z</time>
      </trkpt>
      <trkpt lat="42.1131700" lon="-8.8366900">
        <ele>6.6</ele>
        <time>2021-05-20T04:54:16Z</time>
      </trkpt>
      <trkpt lat="42.1131590" lon="-8.8366740">
        <ele>6.6</ele>
        <time>2021-05-20T04:54:17Z</time>
      </trkpt>
      <trkpt lat="42.1131500" lon="-8.8366610">
        <ele>6.5</ele>
        <time>2021-05-20T04:54:18Z</time>
      </trkpt>
      <trkpt lat="42.1131400" lon="-8.8366540">
        <ele>6.5</ele>
        <time>2021-05-20T04:54:19Z</time>
      </trkpt>
      <trkpt lat="42.1131320" lon="-8.8366400">
        <ele>6.5</ele>
        <time>2021-05-20T04:54:20Z</time>
      </trkpt>
      <trkpt lat="42.1131210" lon="-8.8366310">
        <ele>6.5</ele>
        <time>2021-05-20T04:54:21Z</time>
      </trkpt>
      <trkpt lat="42.1131100" lon="-8.8366150">
        <ele>6.5</ele>
        <time>2021-05-20T04:54:22Z</time>
      </trkpt>
      <trkpt lat="42.1131040" lon="-8.8366120">
        <ele>6.5</ele>
        <time>2021-05-20T04:54:23Z</time>
      </trkpt>
      <trkpt lat="42.1130970" lon="-8.8365970">
        <ele>6.5</ele>
        <time>2021-05-20T04:54:24Z</time>
      </trkpt>
      <trkpt lat="42.1130870" lon="-8.8365710">
        <ele>6.5</ele>
        <time>2021-05-20T04:54:25Z</time>
      </trkpt>
      <trkpt lat="42.1130820" lon="-8.8365620">
        <ele>6.5</ele>
        <time>2021-05-20T04:54:26Z</time>
      </trkpt>
      <trkpt lat="42.1130780" lon="-8.8365540">
        <ele>6.5</ele>
        <time>2021-05-20T04:54:27Z</time>
      </trkpt>
      <trkpt lat="42.1130610" lon="-8.8365360">
        <ele>6.5</ele>
        <time>2021-05-20T04:54:28Z</time>
      </trkpt>
      <trkpt lat="42.1130540" lon="-8.8365280">
        <ele>6.5</ele>
        <time>2021-05-20T04:54:29Z</time>
      </trkpt>
      <trkpt lat="42.1130460" lon="-8.8365190">
        <ele>6.5</ele>
        <time>2021-05-20T04:54:30Z</time>
      </trkpt>
      <trkpt lat="42.1130360" lon="-8.8365130">
        <ele>6.5</ele>
        <time>2021-05-20T04:54:31Z</time>
      </trkpt>
      <trkpt lat="42.1130290" lon="-8.8364960">
        <ele>6.4</ele>
        <time>2021-05-20T04:54:32Z</time>
      </trkpt>
      <trkpt lat="42.1130210" lon="-8.8364850">
        <ele>6.4</ele>
        <time>2021-05-20T04:54:33Z</time>
      </trkpt>
      <trkpt lat="42.1130190" lon="-8.8364870">
        <ele>6.4</ele>
        <time>2021-05-20T04:54:34Z</time>
      </trkpt>
      <trkpt lat="42.1130160" lon="-8.8364860">
        <ele>6.4</ele>
        <time>2021-05-20T04:54:35Z</time>
      </trkpt>
      <trkpt lat="42.1130130" lon="-8.8364840">
        <ele>6.4</ele>
        <time>2021-05-20T04:54:36Z</time>
      </trkpt>
      <trkpt lat="42.1130100" lon="-8.8364820">
        <ele>6.4</ele>
        <time>2021-05-20T04:54:37Z</time>
      </trkpt>
      <trkpt lat="42.1130070" lon="-8.8364810">
        <ele>6.4</ele>
        <time>2021-05-20T04:54:38Z</time>
      </trkpt>
      <trkpt lat="42.1130040" lon="-8.8364790">
        <ele>6.4</ele>
        <time>2021-05-20T04:54:39Z</time>
      </trkpt>
      <trkpt lat="42.1130000" lon="-8.8364770">
        <ele>6.4</ele>
        <time>2021-05-20T04:54:40Z</time>
      </trkpt>
      <trkpt lat="42.1129970" lon="-8.8364760">
        <ele>6.4</ele>
        <time>2021-05-20T04:54:41Z</time>
      </trkpt>
      <trkpt lat="42.1129940" lon="-8.8364740">
        <ele>6.4</ele>
        <time>2021-05-20T04:54:42Z</time>
      </trkpt>
      <trkpt lat="42.1129910" lon="-8.8364720">
        <ele>6.4</ele>
        <time>2021-05-20T04:54:43Z</time>
      </trkpt>
      <trkpt lat="42.1129880" lon="-8.8364710">
        <ele>6.4</ele>
        <time>2021-05-20T04:54:44Z</time>
      </trkpt>
      <trkpt lat="42.1129850" lon="-8.8364690">
        <ele>6.4</ele>
        <time>2021-05-20T04:54:45Z</time>
      </trkpt>
      <trkpt lat="42.1129830" lon="-8.8364690">
        <ele>6.4</ele>
        <time>2021-05-20T04:54:46Z</time>
      </trkpt>
      <trkpt lat="42.1129730" lon="-8.8364590">
        <ele>6.4</ele>
        <time>2021-05-20T04:54:47Z</time>
      </trkpt>
      <trkpt lat="42.1129620" lon="-8.8364560">
        <ele>6.4</ele>
        <time>2021-05-20T04:54:48Z</time>
      </trkpt>
      <trkpt lat="42.1129550" lon="-8.8364540">
        <ele>6.4</ele>
        <time>2021-05-20T04:54:49Z</time>
      </trkpt>
      <trkpt lat="42.1129420" lon="-8.8364460">
        <ele>6.4</ele>
        <time>2021-05-20T04:54:50Z</time>
      </trkpt>
      <trkpt lat="42.1129350" lon="-8.8364370">
        <ele>6.4</ele>
        <time>2021-05-20T04:54:51Z</time>
      </trkpt>
      <trkpt lat="42.1129260" lon="-8.8364300">
        <ele>6.4</ele>
        <time>2021-05-20T04:54:52Z</time>
      </trkpt>
      <trkpt lat="42.1129120" lon="-8.8364240">
        <ele>6.4</ele>
        <time>2021-05-20T04:54:53Z</time>
      </trkpt>
      <trkpt lat="42.1129110" lon="-8.8364190">
        <ele>6.4</ele>
        <time>2021-05-20T04:54:54Z</time>
      </trkpt>
      <trkpt lat="42.1128950" lon="-8.8364100">
        <ele>6.4</ele>
        <time>2021-05-20T04:54:55Z</time>
      </trkpt>
      <trkpt lat="42.1128800" lon="-8.8363950">
        <ele>6.4</ele>
        <time>2021-05-20T04:54:56Z</time>
      </trkpt>
      <trkpt lat="42.1128720" lon="-8.8363880">
        <ele>6.4</ele>
        <time>2021-05-20T04:54:57Z</time>
      </trkpt>
      <trkpt lat="42.1128650" lon="-8.8363820">
        <ele>6.4</ele>
        <time>2021-05-20T04:54:58Z</time>
      </trkpt>
      <trkpt lat="42.1128530" lon="-8.8363760">
        <ele>6.4</ele>
        <time>2021-05-20T04:54:59Z</time>
      </trkpt>
      <trkpt lat="42.1128460" lon="-8.8363710">
        <ele>6.4</ele>
        <time>2021-05-20T04:55:00Z</time>
      </trkpt>
      <trkpt lat="42.1128330" lon="-8.8363610">
        <ele>6.4</ele>
        <time>2021-05-20T04:55:01Z</time>
      </trkpt>
      <trkpt lat="42.1128170" lon="-8.8363450">
        <ele>6.4</ele>
        <time>2021-05-20T04:55:02Z</time>
      </trkpt>
      <trkpt lat="42.1128110" lon="-8.8363380">
        <ele>6.4</ele>
        <time>2021-05-20T04:55:03Z</time>
      </trkpt>
      <trkpt lat="42.1128040" lon="-8.8363300">
        <ele>6.4</ele>
        <time>2021-05-20T04:55:04Z</time>
      </trkpt>
      <trkpt lat="42.1127930" lon="-8.8363220">
        <ele>6.4</ele>
        <time>2021-05-20T04:55:05Z</time>
      </trkpt>
      <trkpt lat="42.1127840" lon="-8.8363180">
        <ele>6.4</ele>
        <time>2021-05-20T04:55:06Z</time>
      </trkpt>
      <trkpt lat="42.1127740" lon="-8.8363040">
        <ele>6.4</ele>
        <time>2021-05-20T04:55:07Z</time>
      </trkpt>
      <trkpt lat="42.1127690" lon="-8.8362970">
        <ele>6.4</ele>
        <time>2021-05-20T04:55:08Z</time>
      </trkpt>
      <trkpt lat="42.1127590" lon="-8.8362830">
        <ele>6.4</ele>
        <time>2021-05-20T04:55:09Z</time>
      </trkpt>
      <trkpt lat="42.1127510" lon="-8.8362720">
        <ele>6.4</ele>
        <time>2021-05-20T04:55:10Z</time>
      </trkpt>
      <trkpt lat="42.1127290" lon="-8.8362600">
        <ele>6.4</ele>
        <time>2021-05-20T04:55:11Z</time>
      </trkpt>
      <trkpt lat="42.1127190" lon="-8.8362520">
        <ele>6.4</ele>
        <time>2021-05-20T04:55:12Z</time>
      </trkpt>
      <trkpt lat="42.1127090" lon="-8.8362450">
        <ele>6.4</ele>
        <time>2021-05-20T04:55:13Z</time>
      </trkpt>
      <trkpt lat="42.1126960" lon="-8.8362340">
        <ele>6.4</ele>
        <time>2021-05-20T04:55:14Z</time>
      </trkpt>
      <trkpt lat="42.1126830" lon="-8.8362280">
        <ele>6.4</ele>
        <time>2021-05-20T04:55:15Z</time>
      </trkpt>
      <trkpt lat="42.1126720" lon="-8.8362160">
        <ele>6.4</ele>
        <time>2021-05-20T04:55:16Z</time>
      </trkpt>
      <trkpt lat="42.1126660" lon="-8.8362110">
        <ele>6.4</ele>
        <time>2021-05-20T04:55:17Z</time>
      </trkpt>
      <trkpt lat="42.1126600" lon="-8.8361990">
        <ele>6.4</ele>
        <time>2021-05-20T04:55:18Z</time>
      </trkpt>
      <trkpt lat="42.1126520" lon="-8.8361900">
        <ele>6.4</ele>
        <time>2021-05-20T04:55:19Z</time>
      </trkpt>
      <trkpt lat="42.1126390" lon="-8.8361750">
        <ele>6.4</ele>
        <time>2021-05-20T04:55:20Z</time>
      </trkpt>
      <trkpt lat="42.1126140" lon="-8.8361590">
        <ele>6.4</ele>
        <time>2021-05-20T04:55:21Z</time>
      </trkpt>
      <trkpt lat="42.1126050" lon="-8.8361530">
        <ele>6.4</ele>
        <time>2021-05-20T04:55:22Z</time>
      </trkpt>
      <trkpt lat="42.1125960" lon="-8.8361470">
        <ele>6.4</ele>
        <time>2021-05-20T04:55:23Z</time>
      </trkpt>
      <trkpt lat="42.1125740" lon="-8.8361340">
        <ele>6.4</ele>
        <time>2021-05-20T04:55:24Z</time>
      </trkpt>
      <trkpt lat="42.1125690" lon="-8.8361290">
        <ele>6.4</ele>
        <time>2021-05-20T04:55:25Z</time>
      </trkpt>
      <trkpt lat="42.1125640" lon="-8.8361230">
        <ele>6.4</ele>
        <time>2021-05-20T04:55:26Z</time>
      </trkpt>
      <trkpt lat="42.1125530" lon="-8.8361140">
        <ele>6.4</ele>
        <time>2021-05-20T04:55:27Z</time>
      </trkpt>
      <trkpt lat="42.1125360" lon="-8.8361020">
        <ele>6.4</ele>
        <time>2021-05-20T04:55:28Z</time>
      </trkpt>
      <trkpt lat="42.1125260" lon="-8.8360970">
        <ele>6.4</ele>
        <time>2021-05-20T04:55:29Z</time>
      </trkpt>
      <trkpt lat="42.1125180" lon="-8.8360940">
        <ele>6.4</ele>
        <time>2021-05-20T04:55:30Z</time>
      </trkpt>
      <trkpt lat="42.1125090" lon="-8.8360900">
        <ele>6.4</ele>
        <time>2021-05-20T04:55:31Z</time>
      </trkpt>
      <trkpt lat="42.1125010" lon="-8.8360870">
        <ele>6.4</ele>
        <time>2021-05-20T04:55:32Z</time>
      </trkpt>
      <trkpt lat="42.1124820" lon="-8.8360770">
        <ele>6.4</ele>
        <time>2021-05-20T04:55:33Z</time>
      </trkpt>
      <trkpt lat="42.1124720" lon="-8.8360650">
        <ele>6.4</ele>
        <time>2021-05-20T04:55:34Z</time>
      </trkpt>
      <trkpt lat="42.1124510" lon="-8.8360440">
        <ele>6.4</ele>
        <time>2021-05-20T04:55:35Z</time>
      </trkpt>
      <trkpt lat="42.1124380" lon="-8.8360360">
        <ele>6.4</ele>
        <time>2021-05-20T04:55:36Z</time>
      </trkpt>
      <trkpt lat="42.1124170" lon="-8.8360080">
        <ele>6.4</ele>
        <time>2021-05-20T04:55:37Z</time>
      </trkpt>
      <trkpt lat="42.1124120" lon="-8.8360000">
        <ele>6.4</ele>
        <time>2021-05-20T04:55:38Z</time>
      </trkpt>
      <trkpt lat="42.1124010" lon="-8.8359940">
        <ele>6.4</ele>
        <time>2021-05-20T04:55:39Z</time>
      </trkpt>
      <trkpt lat="42.1123860" lon="-8.8359870">
        <ele>6.4</ele>
        <time>2021-05-20T04:55:40Z</time>
      </trkpt>
      <trkpt lat="42.1123710" lon="-8.8359870">
        <ele>6.4</ele>
        <time>2021-05-20T04:55:41Z</time>
      </trkpt>
      <trkpt lat="42.1123600" lon="-8.8360030">
        <ele>6.4</ele>
        <time>2021-05-20T04:55:42Z</time>
      </trkpt>
      <trkpt lat="42.1123540" lon="-8.8360160">
        <ele>6.4</ele>
        <time>2021-05-20T04:55:43Z</time>
      </trkpt>
      <trkpt lat="42.1123450" lon="-8.8360260">
        <ele>6.4</ele>
        <time>2021-05-20T04:55:44Z</time>
      </trkpt>
      <trkpt lat="42.1123400" lon="-8.8360310">
        <ele>6.4</ele>
        <time>2021-05-20T04:55:45Z</time>
      </trkpt>
      <trkpt lat="42.1123350" lon="-8.8360380">
        <ele>6.4</ele>
        <time>2021-05-20T04:55:46Z</time>
      </trkpt>
      <trkpt lat="42.1123310" lon="-8.8360450">
        <ele>6.4</ele>
        <time>2021-05-20T04:55:47Z</time>
      </trkpt>
      <trkpt lat="42.1123290" lon="-8.8360530">
        <ele>6.4</ele>
        <time>2021-05-20T04:55:48Z</time>
      </trkpt>
      <trkpt lat="42.1123290" lon="-8.8360500">
        <ele>6.4</ele>
        <time>2021-05-20T04:55:49Z</time>
      </trkpt>
      <trkpt lat="42.1123270" lon="-8.8360440">
        <ele>6.4</ele>
        <time>2021-05-20T04:55:50Z</time>
      </trkpt>
      <trkpt lat="42.1123220" lon="-8.8360390">
        <ele>6.4</ele>
        <time>2021-05-20T04:55:51Z</time>
      </trkpt>
      <trkpt lat="42.1123180" lon="-8.8360320">
        <ele>6.4</ele>
        <time>2021-05-20T04:55:52Z</time>
      </trkpt>
      <trkpt lat="42.1123110" lon="-8.8360190">
        <ele>6.4</ele>
        <time>2021-05-20T04:55:53Z</time>
      </trkpt>
      <trkpt lat="42.1122980" lon="-8.8359980">
        <ele>6.4</ele>
        <time>2021-05-20T04:55:54Z</time>
      </trkpt>
      <trkpt lat="42.1122920" lon="-8.8359880">
        <ele>6.4</ele>
        <time>2021-05-20T04:55:55Z</time>
      </trkpt>
      <trkpt lat="42.1122870" lon="-8.8359780">
        <ele>6.4</ele>
        <time>2021-05-20T04:55:56Z</time>
      </trkpt>
      <trkpt lat="42.1122800" lon="-8.8359680">
        <ele>6.4</ele>
        <time>2021-05-20T04:55:57Z</time>
      </trkpt>
      <trkpt lat="42.1122730" lon="-8.8359510">
        <ele>6.4</ele>
        <time>2021-05-20T04:55:58Z</time>
      </trkpt>
      <trkpt lat="42.1122680" lon="-8.8359370">
        <ele>6.4</ele>
        <time>2021-05-20T04:55:59Z</time>
      </trkpt>
      <trkpt lat="42.1122710" lon="-8.8359280">
        <ele>6.4</ele>
        <time>2021-05-20T04:56:00Z</time>
      </trkpt>
      <trkpt lat="42.1122720" lon="-8.8359240">
        <ele>6.4</ele>
        <time>2021-05-20T04:56:01Z</time>
      </trkpt>
      <trkpt lat="42.1122730" lon="-8.8359290">
        <ele>6.4</ele>
        <time>2021-05-20T04:56:02Z</time>
      </trkpt>
      <trkpt lat="42.1122730" lon="-8.8359300">
        <ele>6.4</ele>
        <time>2021-05-20T04:56:03Z</time>
      </trkpt>
      <trkpt lat="42.1122750" lon="-8.8359300">
        <ele>6.4</ele>
        <time>2021-05-20T04:56:04Z</time>
      </trkpt>
      <trkpt lat="42.1122790" lon="-8.8359270">
        <ele>6.4</ele>
        <time>2021-05-20T04:56:05Z</time>
      </trkpt>
      <trkpt lat="42.1122820" lon="-8.8359220">
        <ele>6.4</ele>
        <time>2021-05-20T04:56:06Z</time>
      </trkpt>
      <trkpt lat="42.1122840" lon="-8.8359190">
        <ele>6.4</ele>
        <time>2021-05-20T04:56:07Z</time>
      </trkpt>
      <trkpt lat="42.1122850" lon="-8.8359180">
        <ele>6.4</ele>
        <time>2021-05-20T04:56:08Z</time>
      </trkpt>
      <trkpt lat="42.1122870" lon="-8.8359200">
        <ele>6.4</ele>
        <time>2021-05-20T04:56:09Z</time>
      </trkpt>
      <trkpt lat="42.1122880" lon="-8.8359220">
        <ele>6.4</ele>
        <time>2021-05-20T04:56:10Z</time>
      </trkpt>
      <trkpt lat="42.1122890" lon="-8.8359240">
        <ele>6.4</ele>
        <time>2021-05-20T04:56:11Z</time>
      </trkpt>
      <trkpt lat="42.1122900" lon="-8.8359250">
        <ele>6.4</ele>
        <time>2021-05-20T04:56:12Z</time>
      </trkpt>
      <trkpt lat="42.1122900" lon="-8.8359260">
        <ele>6.4</ele>
        <time>2021-05-20T04:56:13Z</time>
      </trkpt>
      <trkpt lat="42.1122920" lon="-8.8359290">
        <ele>6.4</ele>
        <time>2021-05-20T04:56:14Z</time>
      </trkpt>
      <trkpt lat="42.1122930" lon="-8.8359300">
        <ele>6.4</ele>
        <time>2021-05-20T04:56:15Z</time>
      </trkpt>
      <trkpt lat="42.1122960" lon="-8.8359310">
        <ele>6.4</ele>
        <time>2021-05-20T04:56:16Z</time>
      </trkpt>
      <trkpt lat="42.1122980" lon="-8.8359320">
        <ele>6.4</ele>
        <time>2021-05-20T04:56:17Z</time>
      </trkpt>
      <trkpt lat="42.1122990" lon="-8.8359310">
        <ele>6.4</ele>
        <time>2021-05-20T04:56:18Z</time>
      </trkpt>
      <trkpt lat="42.1123020" lon="-8.8359330">
        <ele>6.4</ele>
        <time>2021-05-20T04:56:19Z</time>
      </trkpt>
      <trkpt lat="42.1123070" lon="-8.8359350">
        <ele>6.4</ele>
        <time>2021-05-20T04:56:20Z</time>
      </trkpt>
      <trkpt lat="42.1123100" lon="-8.8359380">
        <ele>6.4</ele>
        <time>2021-05-20T04:56:21Z</time>
      </trkpt>
      <trkpt lat="42.1123120" lon="-8.8359400">
        <ele>6.4</ele>
        <time>2021-05-20T04:56:22Z</time>
      </trkpt>
      <trkpt lat="42.1123150" lon="-8.8359470">
        <ele>6.4</ele>
        <time>2021-05-20T04:56:23Z</time>
      </trkpt>
      <trkpt lat="42.1123180" lon="-8.8359550">
        <ele>6.4</ele>
        <time>2021-05-20T04:56:24Z</time>
      </trkpt>
      <trkpt lat="42.1123140" lon="-8.8359640">
        <ele>6.4</ele>
        <time>2021-05-20T04:56:25Z</time>
      </trkpt>
      <trkpt lat="42.1123170" lon="-8.8359680">
        <ele>6.4</ele>
        <time>2021-05-20T04:56:26Z</time>
      </trkpt>
      <trkpt lat="42.1123230" lon="-8.8359750">
        <ele>6.4</ele>
        <time>2021-05-20T04:56:27Z</time>
      </trkpt>
      <trkpt lat="42.1123290" lon="-8.8359560">
        <ele>6.4</ele>
        <time>2021-05-20T04:56:28Z</time>
      </trkpt>
      <trkpt lat="42.1123330" lon="-8.8359530">
        <ele>6.4</ele>
        <time>2021-05-20T04:56:29Z</time>
      </trkpt>
      <trkpt lat="42.1123310" lon="-8.8359540">
        <ele>6.4</ele>
        <time>2021-05-20T04:56:30Z</time>
      </trkpt>
      <trkpt lat="42.1123270" lon="-8.8359530">
        <ele>6.4</ele>
        <time>2021-05-20T04:56:31Z</time>
      </trkpt>
      <trkpt lat="42.1123260" lon="-8.8359570">
        <ele>6.4</ele>
        <time>2021-05-20T04:56:32Z</time>
      </trkpt>
      <trkpt lat="42.1123270" lon="-8.8359650">
        <ele>6.4</ele>
        <time>2021-05-20T04:56:33Z</time>
      </trkpt>
      <trkpt lat="42.1123180" lon="-8.8359710">
        <ele>6.4</ele>
        <time>2021-05-20T04:56:34Z</time>
      </trkpt>
      <trkpt lat="42.1123160" lon="-8.8359730">
        <ele>6.4</ele>
        <time>2021-05-20T04:56:35Z</time>
      </trkpt>
      <trkpt lat="42.1123120" lon="-8.8359760">
        <ele>6.4</ele>
        <time>2021-05-20T04:56:36Z</time>
      </trkpt>
      <trkpt lat="42.1123100" lon="-8.8359790">
        <ele>6.4</ele>
        <time>2021-05-20T04:56:37Z</time>
      </trkpt>
      <trkpt lat="42.1123090" lon="-8.8359790">
        <ele>6.4</ele>
        <time>2021-05-20T04:56:38Z</time>
      </trkpt>
      <trkpt lat="42.1123090" lon="-8.8359840">
        <ele>6.4</ele>
        <time>2021-05-20T04:56:39Z</time>
      </trkpt>
      <trkpt lat="42.1123060" lon="-8.8359880">
        <ele>6.4</ele>
        <time>2021-05-20T04:56:40Z</time>
      </trkpt>
      <trkpt lat="42.1123090" lon="-8.8359800">
        <ele>6.4</ele>
        <time>2021-05-20T04:56:41Z</time>
      </trkpt>
      <trkpt lat="42.1123070" lon="-8.8359820">
        <ele>6.4</ele>
        <time>2021-05-20T04:56:42Z</time>
      </trkpt>
      <trkpt lat="42.1123090" lon="-8.8359780">
        <ele>6.4</ele>
        <time>2021-05-20T04:56:43Z</time>
      </trkpt>
      <trkpt lat="42.1123060" lon="-8.8359720">
        <ele>6.4</ele>
        <time>2021-05-20T04:56:44Z</time>
      </trkpt>
      <trkpt lat="42.1123010" lon="-8.8359630">
        <ele>6.4</ele>
        <time>2021-05-20T04:56:45Z</time>
      </trkpt>
      <trkpt lat="42.1122970" lon="-8.8359610">
        <ele>6.4</ele>
        <time>2021-05-20T04:56:46Z</time>
      </trkpt>
      <trkpt lat="42.1122930" lon="-8.8359580">
        <ele>6.4</ele>
        <time>2021-05-20T04:56:47Z</time>
      </trkpt>
      <trkpt lat="42.1122910" lon="-8.8359590">
        <ele>6.4</ele>
        <time>2021-05-20T04:56:48Z</time>
      </trkpt>
      <trkpt lat="42.1122870" lon="-8.8359480">
        <ele>6.4</ele>
        <time>2021-05-20T04:56:49Z</time>
      </trkpt>
      <trkpt lat="42.1122890" lon="-8.8359600">
        <ele>6.4</ele>
        <time>2021-05-20T04:56:50Z</time>
      </trkpt>
      <trkpt lat="42.1122880" lon="-8.8359690">
        <ele>6.4</ele>
        <time>2021-05-20T04:56:51Z</time>
      </trkpt>
      <trkpt lat="42.1122880" lon="-8.8359770">
        <ele>6.4</ele>
        <time>2021-05-20T04:56:52Z</time>
      </trkpt>
      <trkpt lat="42.1122880" lon="-8.8359850">
        <ele>6.4</ele>
        <time>2021-05-20T04:56:53Z</time>
      </trkpt>
      <trkpt lat="42.1122870" lon="-8.8359940">
        <ele>6.4</ele>
        <time>2021-05-20T04:56:54Z</time>
      </trkpt>
      <trkpt lat="42.1122870" lon="-8.8360020">
        <ele>6.4</ele>
        <time>2021-05-20T04:56:55Z</time>
      </trkpt>
      <trkpt lat="42.1122840" lon="-8.8360110">
        <ele>6.4</ele>
        <time>2021-05-20T04:56:56Z</time>
      </trkpt>
      <trkpt lat="42.1122730" lon="-8.8360150">
        <ele>6.4</ele>
        <time>2021-05-20T04:56:57Z</time>
      </trkpt>
      <trkpt lat="42.1122620" lon="-8.8360190">
        <ele>6.4</ele>
        <time>2021-05-20T04:56:58Z</time>
      </trkpt>
      <trkpt lat="42.1122530" lon="-8.8360200">
        <ele>6.4</ele>
        <time>2021-05-20T04:56:59Z</time>
      </trkpt>
      <trkpt lat="42.1122420" lon="-8.8360270">
        <ele>6.4</ele>
        <time>2021-05-20T04:57:00Z</time>
      </trkpt>
      <trkpt lat="42.1122290" lon="-8.8360270">
        <ele>6.4</ele>
        <time>2021-05-20T04:57:01Z</time>
      </trkpt>
      <trkpt lat="42.1122160" lon="-8.8360260">
        <ele>6.4</ele>
        <time>2021-05-20T04:57:02Z</time>
      </trkpt>
      <trkpt lat="42.1122000" lon="-8.8360270">
        <ele>6.4</ele>
        <time>2021-05-20T04:57:03Z</time>
      </trkpt>
      <trkpt lat="42.1121870" lon="-8.8360240">
        <ele>6.4</ele>
        <time>2021-05-20T04:57:04Z</time>
      </trkpt>
      <trkpt lat="42.1121820" lon="-8.8360210">
        <ele>6.4</ele>
        <time>2021-05-20T04:57:05Z</time>
      </trkpt>
      <trkpt lat="42.1121720" lon="-8.8360160">
        <ele>6.4</ele>
        <time>2021-05-20T04:57:06Z</time>
      </trkpt>
      <trkpt lat="42.1121510" lon="-8.8360100">
        <ele>6.4</ele>
        <time>2021-05-20T04:57:07Z</time>
      </trkpt>
      <trkpt lat="42.1121410" lon="-8.8360060">
        <ele>6.3</ele>
        <time>2021-05-20T04:57:08Z</time>
      </trkpt>
      <trkpt lat="42.1121230" lon="-8.8359960">
        <ele>6.3</ele>
        <time>2021-05-20T04:57:09Z</time>
      </trkpt>
      <trkpt lat="42.1121120" lon="-8.8359980">
        <ele>6.3</ele>
        <time>2021-05-20T04:57:10Z</time>
      </trkpt>
      <trkpt lat="42.1121000" lon="-8.8359800">
        <ele>6.3</ele>
        <time>2021-05-20T04:57:11Z</time>
      </trkpt>
      <trkpt lat="42.1120880" lon="-8.8359700">
        <ele>6.3</ele>
        <time>2021-05-20T04:57:12Z</time>
      </trkpt>
      <trkpt lat="42.1120780" lon="-8.8359640">
        <ele>6.3</ele>
        <time>2021-05-20T04:57:13Z</time>
      </trkpt>
      <trkpt lat="42.1120640" lon="-8.8359520">
        <ele>6.3</ele>
        <time>2021-05-20T04:57:14Z</time>
      </trkpt>
      <trkpt lat="42.1120420" lon="-8.8359270">
        <ele>6.3</ele>
        <time>2021-05-20T04:57:15Z</time>
      </trkpt>
      <trkpt lat="42.1120340" lon="-8.8359200">
        <ele>6.3</ele>
        <time>2021-05-20T04:57:16Z</time>
      </trkpt>
      <trkpt lat="42.1120210" lon="-8.8359160">
        <ele>6.3</ele>
        <time>2021-05-20T04:57:17Z</time>
      </trkpt>
      <trkpt lat="42.1120080" lon="-8.8359010">
        <ele>6.3</ele>
        <time>2021-05-20T04:57:18Z</time>
      </trkpt>
      <trkpt lat="42.1119940" lon="-8.8358910">
        <ele>6.3</ele>
        <time>2021-05-20T04:57:19Z</time>
      </trkpt>
      <trkpt lat="42.1119790" lon="-8.8358840">
        <ele>6.3</ele>
        <time>2021-05-20T04:57:20Z</time>
      </trkpt>
      <trkpt lat="42.1119670" lon="-8.8358720">
        <ele>6.3</ele>
        <time>2021-05-20T04:57:21Z</time>
      </trkpt>
      <trkpt lat="42.1119640" lon="-8.8358760">
        <ele>6.3</ele>
        <time>2021-05-20T04:57:22Z</time>
      </trkpt>
      <trkpt lat="42.1119530" lon="-8.8358530">
        <ele>6.3</ele>
        <time>2021-05-20T04:57:23Z</time>
      </trkpt>
      <trkpt lat="42.1119330" lon="-8.8358400">
        <ele>6.3</ele>
        <time>2021-05-20T04:57:24Z</time>
      </trkpt>
      <trkpt lat="42.1119260" lon="-8.8358390">
        <ele>6.3</ele>
        <time>2021-05-20T04:57:25Z</time>
      </trkpt>
      <trkpt lat="42.1119180" lon="-8.8358370">
        <ele>6.3</ele>
        <time>2021-05-20T04:57:26Z</time>
      </trkpt>
      <trkpt lat="42.1119020" lon="-8.8358260">
        <ele>6.3</ele>
        <time>2021-05-20T04:57:27Z</time>
      </trkpt>
      <trkpt lat="42.1118900" lon="-8.8358170">
        <ele>6.3</ele>
        <time>2021-05-20T04:57:28Z</time>
      </trkpt>
      <trkpt lat="42.1118740" lon="-8.8358020">
        <ele>6.3</ele>
        <time>2021-05-20T04:57:29Z</time>
      </trkpt>
      <trkpt lat="42.1118660" lon="-8.8357930">
        <ele>6.3</ele>
        <time>2021-05-20T04:57:30Z</time>
      </trkpt>
      <trkpt lat="42.1118590" lon="-8.8357850">
        <ele>6.3</ele>
        <time>2021-05-20T04:57:31Z</time>
      </trkpt>
      <trkpt lat="42.1118490" lon="-8.8357760">
        <ele>6.3</ele>
        <time>2021-05-20T04:57:32Z</time>
      </trkpt>
      <trkpt lat="42.1118440" lon="-8.8357670">
        <ele>6.3</ele>
        <time>2021-05-20T04:57:33Z</time>
      </trkpt>
      <trkpt lat="42.1118330" lon="-8.8357550">
        <ele>6.3</ele>
        <time>2021-05-20T04:57:34Z</time>
      </trkpt>
      <trkpt lat="42.1118230" lon="-8.8357460">
        <ele>6.3</ele>
        <time>2021-05-20T04:57:35Z</time>
      </trkpt>
      <trkpt lat="42.1118080" lon="-8.8357300">
        <ele>6.3</ele>
        <time>2021-05-20T04:57:36Z</time>
      </trkpt>
      <trkpt lat="42.1118070" lon="-8.8357230">
        <ele>6.3</ele>
        <time>2021-05-20T04:57:37Z</time>
      </trkpt>
      <trkpt lat="42.1117910" lon="-8.8357070">
        <ele>6.3</ele>
        <time>2021-05-20T04:57:38Z</time>
      </trkpt>
      <trkpt lat="42.1117820" lon="-8.8357070">
        <ele>6.3</ele>
        <time>2021-05-20T04:57:39Z</time>
      </trkpt>
      <trkpt lat="42.1117720" lon="-8.8357050">
        <ele>6.3</ele>
        <time>2021-05-20T04:57:40Z</time>
      </trkpt>
      <trkpt lat="42.1117710" lon="-8.8357060">
        <ele>6.3</ele>
        <time>2021-05-20T04:57:41Z</time>
      </trkpt>
      <trkpt lat="42.1117520" lon="-8.8356980">
        <ele>6.3</ele>
        <time>2021-05-20T04:57:42Z</time>
      </trkpt>
      <trkpt lat="42.1117460" lon="-8.8356940">
        <ele>6.3</ele>
        <time>2021-05-20T04:57:43Z</time>
      </trkpt>
      <trkpt lat="42.1117360" lon="-8.8356870">
        <ele>6.4</ele>
        <time>2021-05-20T04:57:44Z</time>
      </trkpt>
      <trkpt lat="42.1117230" lon="-8.8356820">
        <ele>6.4</ele>
        <time>2021-05-20T04:57:45Z</time>
      </trkpt>
      <trkpt lat="42.1117060" lon="-8.8356740">
        <ele>6.4</ele>
        <time>2021-05-20T04:57:46Z</time>
      </trkpt>
      <trkpt lat="42.1116960" lon="-8.8356650">
        <ele>6.4</ele>
        <time>2021-05-20T04:57:47Z</time>
      </trkpt>
      <trkpt lat="42.1116870" lon="-8.8356570">
        <ele>6.4</ele>
        <time>2021-05-20T04:57:48Z</time>
      </trkpt>
      <trkpt lat="42.1116800" lon="-8.8356500">
        <ele>6.4</ele>
        <time>2021-05-20T04:57:49Z</time>
      </trkpt>
      <trkpt lat="42.1116620" lon="-8.8356300">
        <ele>6.4</ele>
        <time>2021-05-20T04:57:50Z</time>
      </trkpt>
      <trkpt lat="42.1116530" lon="-8.8356200">
        <ele>6.4</ele>
        <time>2021-05-20T04:57:51Z</time>
      </trkpt>
      <trkpt lat="42.1116360" lon="-8.8356030">
        <ele>6.4</ele>
        <time>2021-05-20T04:57:52Z</time>
      </trkpt>
      <trkpt lat="42.1116240" lon="-8.8355880">
        <ele>6.4</ele>
        <time>2021-05-20T04:57:53Z</time>
      </trkpt>
      <trkpt lat="42.1116140" lon="-8.8355770">
        <ele>6.4</ele>
        <time>2021-05-20T04:57:54Z</time>
      </trkpt>
      <trkpt lat="42.1115870" lon="-8.8355620">
        <ele>6.4</ele>
        <time>2021-05-20T04:57:55Z</time>
      </trkpt>
      <trkpt lat="42.1115790" lon="-8.8355560">
        <ele>6.4</ele>
        <time>2021-05-20T04:57:56Z</time>
      </trkpt>
      <trkpt lat="42.1115740" lon="-8.8355590">
        <ele>6.4</ele>
        <time>2021-05-20T04:57:57Z</time>
      </trkpt>
      <trkpt lat="42.1115600" lon="-8.8355470">
        <ele>6.4</ele>
        <time>2021-05-20T04:57:58Z</time>
      </trkpt>
      <trkpt lat="42.1115510" lon="-8.8355490">
        <ele>6.4</ele>
        <time>2021-05-20T04:57:59Z</time>
      </trkpt>
      <trkpt lat="42.1115400" lon="-8.8355450">
        <ele>6.4</ele>
        <time>2021-05-20T04:58:00Z</time>
      </trkpt>
      <trkpt lat="42.1115320" lon="-8.8355380">
        <ele>6.4</ele>
        <time>2021-05-20T04:58:01Z</time>
      </trkpt>
      <trkpt lat="42.1115230" lon="-8.8355260">
        <ele>6.4</ele>
        <time>2021-05-20T04:58:02Z</time>
      </trkpt>
      <trkpt lat="42.1115050" lon="-8.8355120">
        <ele>6.4</ele>
        <time>2021-05-20T04:58:03Z</time>
      </trkpt>
      <trkpt lat="42.1114920" lon="-8.8355050">
        <ele>6.4</ele>
        <time>2021-05-20T04:58:04Z</time>
      </trkpt>
      <trkpt lat="42.1114810" lon="-8.8355070">
        <ele>6.4</ele>
        <time>2021-05-20T04:58:05Z</time>
      </trkpt>
      <trkpt lat="42.1114720" lon="-8.8354970">
        <ele>6.4</ele>
        <time>2021-05-20T04:58:06Z</time>
      </trkpt>
      <trkpt lat="42.1114590" lon="-8.8354970">
        <ele>6.4</ele>
        <time>2021-05-20T04:58:07Z</time>
      </trkpt>
      <trkpt lat="42.1114490" lon="-8.8354870">
        <ele>6.4</ele>
        <time>2021-05-20T04:58:08Z</time>
      </trkpt>
      <trkpt lat="42.1114340" lon="-8.8354800">
        <ele>6.4</ele>
        <time>2021-05-20T04:58:09Z</time>
      </trkpt>
      <trkpt lat="42.1114320" lon="-8.8354760">
        <ele>6.4</ele>
        <time>2021-05-20T04:58:10Z</time>
      </trkpt>
      <trkpt lat="42.1114190" lon="-8.8354690">
        <ele>6.5</ele>
        <time>2021-05-20T04:58:11Z</time>
      </trkpt>
      <trkpt lat="42.1114180" lon="-8.8354630">
        <ele>6.5</ele>
        <time>2021-05-20T04:58:12Z</time>
      </trkpt>
      <trkpt lat="42.1114030" lon="-8.8354580">
        <ele>6.5</ele>
        <time>2021-05-20T04:58:13Z</time>
      </trkpt>
      <trkpt lat="42.1113890" lon="-8.8354410">
        <ele>6.5</ele>
        <time>2021-05-20T04:58:14Z</time>
      </trkpt>
      <trkpt lat="42.1113750" lon="-8.8354330">
        <ele>6.5</ele>
        <time>2021-05-20T04:58:15Z</time>
      </trkpt>
      <trkpt lat="42.1113590" lon="-8.8354220">
        <ele>6.5</ele>
        <time>2021-05-20T04:58:16Z</time>
      </trkpt>
      <trkpt lat="42.1113500" lon="-8.8354160">
        <ele>6.5</ele>
        <time>2021-05-20T04:58:17Z</time>
      </trkpt>
      <trkpt lat="42.1113420" lon="-8.8354110">
        <ele>6.5</ele>
        <time>2021-05-20T04:58:18Z</time>
      </trkpt>
      <trkpt lat="42.1113280" lon="-8.8353940">
        <ele>6.5</ele>
        <time>2021-05-20T04:58:19Z</time>
      </trkpt>
      <trkpt lat="42.1113150" lon="-8.8353790">
        <ele>6.5</ele>
        <time>2021-05-20T04:58:20Z</time>
      </trkpt>
      <trkpt lat="42.1112970" lon="-8.8353670">
        <ele>6.5</ele>
        <time>2021-05-20T04:58:21Z</time>
      </trkpt>
      <trkpt lat="42.1112910" lon="-8.8353640">
        <ele>6.5</ele>
        <time>2021-05-20T04:58:22Z</time>
      </trkpt>
      <trkpt lat="42.1112860" lon="-8.8353600">
        <ele>6.5</ele>
        <time>2021-05-20T04:58:23Z</time>
      </trkpt>
      <trkpt lat="42.1112800" lon="-8.8353570">
        <ele>6.5</ele>
        <time>2021-05-20T04:58:24Z</time>
      </trkpt>
      <trkpt lat="42.1112630" lon="-8.8353430">
        <ele>6.5</ele>
        <time>2021-05-20T04:58:25Z</time>
      </trkpt>
      <trkpt lat="42.1112540" lon="-8.8353400">
        <ele>6.5</ele>
        <time>2021-05-20T04:58:26Z</time>
      </trkpt>
      <trkpt lat="42.1112460" lon="-8.8353370">
        <ele>6.5</ele>
        <time>2021-05-20T04:58:27Z</time>
      </trkpt>
      <trkpt lat="42.1112270" lon="-8.8353250">
        <ele>6.5</ele>
        <time>2021-05-20T04:58:28Z</time>
      </trkpt>
      <trkpt lat="42.1112180" lon="-8.8353210">
        <ele>6.5</ele>
        <time>2021-05-20T04:58:29Z</time>
      </trkpt>
      <trkpt lat="42.1112090" lon="-8.8353170">
        <ele>6.6</ele>
        <time>2021-05-20T04:58:30Z</time>
      </trkpt>
      <trkpt lat="42.1111950" lon="-8.8353090">
        <ele>6.6</ele>
        <time>2021-05-20T04:58:31Z</time>
      </trkpt>
      <trkpt lat="42.1111840" lon="-8.8353010">
        <ele>6.6</ele>
        <time>2021-05-20T04:58:32Z</time>
      </trkpt>
      <trkpt lat="42.1111750" lon="-8.8352960">
        <ele>6.6</ele>
        <time>2021-05-20T04:58:33Z</time>
      </trkpt>
      <trkpt lat="42.1111680" lon="-8.8352870">
        <ele>6.6</ele>
        <time>2021-05-20T04:58:34Z</time>
      </trkpt>
      <trkpt lat="42.1111580" lon="-8.8352750">
        <ele>6.6</ele>
        <time>2021-05-20T04:58:35Z</time>
      </trkpt>
      <trkpt lat="42.1111450" lon="-8.8352580">
        <ele>6.6</ele>
        <time>2021-05-20T04:58:36Z</time>
      </trkpt>
      <trkpt lat="42.1111380" lon="-8.8352460">
        <ele>6.6</ele>
        <time>2021-05-20T04:58:37Z</time>
      </trkpt>
      <trkpt lat="42.1111270" lon="-8.8352350">
        <ele>6.6</ele>
        <time>2021-05-20T04:58:38Z</time>
      </trkpt>
      <trkpt lat="42.1111110" lon="-8.8352200">
        <ele>6.6</ele>
        <time>2021-05-20T04:58:39Z</time>
      </trkpt>
      <trkpt lat="42.1111030" lon="-8.8352110">
        <ele>6.6</ele>
        <time>2021-05-20T04:58:40Z</time>
      </trkpt>
      <trkpt lat="42.1110860" lon="-8.8352060">
        <ele>6.6</ele>
        <time>2021-05-20T04:58:41Z</time>
      </trkpt>
      <trkpt lat="42.1110710" lon="-8.8351960">
        <ele>6.6</ele>
        <time>2021-05-20T04:58:42Z</time>
      </trkpt>
      <trkpt lat="42.1110550" lon="-8.8351860">
        <ele>6.6</ele>
        <time>2021-05-20T04:58:43Z</time>
      </trkpt>
      <trkpt lat="42.1110390" lon="-8.8351830">
        <ele>6.6</ele>
        <time>2021-05-20T04:58:44Z</time>
      </trkpt>
      <trkpt lat="42.1110260" lon="-8.8351730">
        <ele>6.6</ele>
        <time>2021-05-20T04:58:45Z</time>
      </trkpt>
      <trkpt lat="42.1110060" lon="-8.8351500">
        <ele>6.6</ele>
        <time>2021-05-20T04:58:46Z</time>
      </trkpt>
      <trkpt lat="42.1109980" lon="-8.8351450">
        <ele>6.6</ele>
        <time>2021-05-20T04:58:47Z</time>
      </trkpt>
      <trkpt lat="42.1109890" lon="-8.8351400">
        <ele>6.6</ele>
        <time>2021-05-20T04:58:48Z</time>
      </trkpt>
      <trkpt lat="42.1109800" lon="-8.8351300">
        <ele>6.6</ele>
        <time>2021-05-20T04:58:49Z</time>
      </trkpt>
      <trkpt lat="42.1109640" lon="-8.8351190">
        <ele>6.6</ele>
        <time>2021-05-20T04:58:50Z</time>
      </trkpt>
      <trkpt lat="42.1109520" lon="-8.8351060">
        <ele>6.7</ele>
        <time>2021-05-20T04:58:51Z</time>
      </trkpt>
      <trkpt lat="42.1109350" lon="-8.8350960">
        <ele>6.7</ele>
        <time>2021-05-20T04:58:52Z</time>
      </trkpt>
      <trkpt lat="42.1109280" lon="-8.8350910">
        <ele>6.7</ele>
        <time>2021-05-20T04:58:53Z</time>
      </trkpt>
      <trkpt lat="42.1109200" lon="-8.8350780">
        <ele>6.7</ele>
        <time>2021-05-20T04:58:54Z</time>
      </trkpt>
      <trkpt lat="42.1109110" lon="-8.8350750">
        <ele>6.7</ele>
        <time>2021-05-20T04:58:55Z</time>
      </trkpt>
      <trkpt lat="42.1108990" lon="-8.8350530">
        <ele>6.7</ele>
        <time>2021-05-20T04:58:56Z</time>
      </trkpt>
      <trkpt lat="42.1108890" lon="-8.8350510">
        <ele>6.7</ele>
        <time>2021-05-20T04:58:57Z</time>
      </trkpt>
      <trkpt lat="42.1108800" lon="-8.8350440">
        <ele>6.7</ele>
        <time>2021-05-20T04:58:58Z</time>
      </trkpt>
      <trkpt lat="42.1108650" lon="-8.8350290">
        <ele>6.7</ele>
        <time>2021-05-20T04:58:59Z</time>
      </trkpt>
      <trkpt lat="42.1108530" lon="-8.8350060">
        <ele>6.7</ele>
        <time>2021-05-20T04:59:00Z</time>
      </trkpt>
      <trkpt lat="42.1108430" lon="-8.8349900">
        <ele>6.7</ele>
        <time>2021-05-20T04:59:01Z</time>
      </trkpt>
      <trkpt lat="42.1108250" lon="-8.8349600">
        <ele>6.7</ele>
        <time>2021-05-20T04:59:02Z</time>
      </trkpt>
      <trkpt lat="42.1108190" lon="-8.8349510">
        <ele>6.7</ele>
        <time>2021-05-20T04:59:03Z</time>
      </trkpt>
      <trkpt lat="42.1108110" lon="-8.8349340">
        <ele>6.7</ele>
        <time>2021-05-20T04:59:04Z</time>
      </trkpt>
      <trkpt lat="42.1108060" lon="-8.8349140">
        <ele>6.7</ele>
        <time>2021-05-20T04:59:05Z</time>
      </trkpt>
      <trkpt lat="42.1107950" lon="-8.8348870">
        <ele>6.7</ele>
        <time>2021-05-20T04:59:06Z</time>
      </trkpt>
      <trkpt lat="42.1107900" lon="-8.8348790">
        <ele>6.7</ele>
        <time>2021-05-20T04:59:07Z</time>
      </trkpt>
      <trkpt lat="42.1107840" lon="-8.8348700">
        <ele>6.7</ele>
        <time>2021-05-20T04:59:08Z</time>
      </trkpt>
      <trkpt lat="42.1107850" lon="-8.8348640">
        <ele>6.7</ele>
        <time>2021-05-20T04:59:09Z</time>
      </trkpt>
      <trkpt lat="42.1107720" lon="-8.8348570">
        <ele>6.7</ele>
        <time>2021-05-20T04:59:10Z</time>
      </trkpt>
      <trkpt lat="42.1107730" lon="-8.8348480">
        <ele>6.7</ele>
        <time>2021-05-20T04:59:11Z</time>
      </trkpt>
      <trkpt lat="42.1107670" lon="-8.8348300">
        <ele>6.7</ele>
        <time>2021-05-20T04:59:12Z</time>
      </trkpt>
      <trkpt lat="42.1107710" lon="-8.8348370">
        <ele>6.7</ele>
        <time>2021-05-20T04:59:13Z</time>
      </trkpt>
      <trkpt lat="42.1107610" lon="-8.8348130">
        <ele>6.7</ele>
        <time>2021-05-20T04:59:14Z</time>
      </trkpt>
      <trkpt lat="42.1107590" lon="-8.8348100">
        <ele>6.7</ele>
        <time>2021-05-20T04:59:15Z</time>
      </trkpt>
      <trkpt lat="42.1107560" lon="-8.8347890">
        <ele>6.7</ele>
        <time>2021-05-20T04:59:16Z</time>
      </trkpt>
      <trkpt lat="42.1107490" lon="-8.8347780">
        <ele>6.7</ele>
        <time>2021-05-20T04:59:17Z</time>
      </trkpt>
      <trkpt lat="42.1107340" lon="-8.8347580">
        <ele>6.7</ele>
        <time>2021-05-20T04:59:18Z</time>
      </trkpt>
      <trkpt lat="42.1107250" lon="-8.8347340">
        <ele>6.7</ele>
        <time>2021-05-20T04:59:19Z</time>
      </trkpt>
      <trkpt lat="42.1107220" lon="-8.8347260">
        <ele>6.7</ele>
        <time>2021-05-20T04:59:20Z</time>
      </trkpt>
      <trkpt lat="42.1107190" lon="-8.8347170">
        <ele>6.7</ele>
        <time>2021-05-20T04:59:21Z</time>
      </trkpt>
      <trkpt lat="42.1107160" lon="-8.8347090">
        <ele>6.7</ele>
        <time>2021-05-20T04:59:22Z</time>
      </trkpt>
      <trkpt lat="42.1107080" lon="-8.8346970">
        <ele>6.7</ele>
        <time>2021-05-20T04:59:23Z</time>
      </trkpt>
      <trkpt lat="42.1107010" lon="-8.8346680">
        <ele>6.7</ele>
        <time>2021-05-20T04:59:24Z</time>
      </trkpt>
      <trkpt lat="42.1106950" lon="-8.8346570">
        <ele>6.7</ele>
        <time>2021-05-20T04:59:25Z</time>
      </trkpt>
      <trkpt lat="42.1106960" lon="-8.8346540">
        <ele>6.7</ele>
        <time>2021-05-20T04:59:26Z</time>
      </trkpt>
      <trkpt lat="42.1106790" lon="-8.8346350">
        <ele>6.7</ele>
        <time>2021-05-20T04:59:27Z</time>
      </trkpt>
      <trkpt lat="42.1106770" lon="-8.8346190">
        <ele>6.7</ele>
        <time>2021-05-20T04:59:28Z</time>
      </trkpt>
      <trkpt lat="42.1106820" lon="-8.8346080">
        <ele>6.7</ele>
        <time>2021-05-20T04:59:29Z</time>
      </trkpt>
      <trkpt lat="42.1106720" lon="-8.8345890">
        <ele>6.7</ele>
        <time>2021-05-20T04:59:30Z</time>
      </trkpt>
      <trkpt lat="42.1106670" lon="-8.8345530">
        <ele>6.8</ele>
        <time>2021-05-20T04:59:31Z</time>
      </trkpt>
      <trkpt lat="42.1106670" lon="-8.8345440">
        <ele>6.8</ele>
        <time>2021-05-20T04:59:32Z</time>
      </trkpt>
      <trkpt lat="42.1106660" lon="-8.8345340">
        <ele>6.8</ele>
        <time>2021-05-20T04:59:33Z</time>
      </trkpt>
      <trkpt lat="42.1106630" lon="-8.8345370">
        <ele>6.8</ele>
        <time>2021-05-20T04:59:34Z</time>
      </trkpt>
      <trkpt lat="42.1106560" lon="-8.8345060">
        <ele>6.8</ele>
        <time>2021-05-20T04:59:35Z</time>
      </trkpt>
      <trkpt lat="42.1106630" lon="-8.8344930">
        <ele>6.8</ele>
        <time>2021-05-20T04:59:36Z</time>
      </trkpt>
      <trkpt lat="42.1106520" lon="-8.8344710">
        <ele>6.8</ele>
        <time>2021-05-20T04:59:37Z</time>
      </trkpt>
      <trkpt lat="42.1106580" lon="-8.8344570">
        <ele>6.8</ele>
        <time>2021-05-20T04:59:38Z</time>
      </trkpt>
      <trkpt lat="42.1106530" lon="-8.8344280">
        <ele>6.8</ele>
        <time>2021-05-20T04:59:39Z</time>
      </trkpt>
      <trkpt lat="42.1106500" lon="-8.8344180">
        <ele>6.8</ele>
        <time>2021-05-20T04:59:40Z</time>
      </trkpt>
      <trkpt lat="42.1106480" lon="-8.8344070">
        <ele>6.8</ele>
        <time>2021-05-20T04:59:41Z</time>
      </trkpt>
      <trkpt lat="42.1106480" lon="-8.8343960">
        <ele>6.8</ele>
        <time>2021-05-20T04:59:42Z</time>
      </trkpt>
      <trkpt lat="42.1106420" lon="-8.8343760">
        <ele>6.8</ele>
        <time>2021-05-20T04:59:43Z</time>
      </trkpt>
      <trkpt lat="42.1106380" lon="-8.8343770">
        <ele>6.8</ele>
        <time>2021-05-20T04:59:44Z</time>
      </trkpt>
      <trkpt lat="42.1106500" lon="-8.8343620">
        <ele>6.8</ele>
        <time>2021-05-20T04:59:45Z</time>
      </trkpt>
      <trkpt lat="42.1106500" lon="-8.8343600">
        <ele>6.8</ele>
        <time>2021-05-20T04:59:46Z</time>
      </trkpt>
      <trkpt lat="42.1106470" lon="-8.8343450">
        <ele>6.8</ele>
        <time>2021-05-20T04:59:47Z</time>
      </trkpt>
      <trkpt lat="42.1106540" lon="-8.8343220">
        <ele>6.8</ele>
        <time>2021-05-20T04:59:48Z</time>
      </trkpt>
      <trkpt lat="42.1106470" lon="-8.8343010">
        <ele>6.8</ele>
        <time>2021-05-20T04:59:49Z</time>
      </trkpt>
      <trkpt lat="42.1106430" lon="-8.8342820">
        <ele>6.8</ele>
        <time>2021-05-20T04:59:50Z</time>
      </trkpt>
      <trkpt lat="42.1106350" lon="-8.8342610">
        <ele>6.8</ele>
        <time>2021-05-20T04:59:51Z</time>
      </trkpt>
      <trkpt lat="42.1106340" lon="-8.8342460">
        <ele>6.8</ele>
        <time>2021-05-20T04:59:52Z</time>
      </trkpt>
      <trkpt lat="42.1106320" lon="-8.8342320">
        <ele>6.8</ele>
        <time>2021-05-20T04:59:53Z</time>
      </trkpt>
      <trkpt lat="42.1106320" lon="-8.8342010">
        <ele>6.8</ele>
        <time>2021-05-20T04:59:54Z</time>
      </trkpt>
      <trkpt lat="42.1106320" lon="-8.8341860">
        <ele>6.8</ele>
        <time>2021-05-20T04:59:55Z</time>
      </trkpt>
      <trkpt lat="42.1106330" lon="-8.8341710">
        <ele>6.8</ele>
        <time>2021-05-20T04:59:56Z</time>
      </trkpt>
      <trkpt lat="42.1106390" lon="-8.8341680">
        <ele>6.8</ele>
        <time>2021-05-20T04:59:57Z</time>
      </trkpt>
      <trkpt lat="42.1106350" lon="-8.8341570">
        <ele>6.8</ele>
        <time>2021-05-20T04:59:58Z</time>
      </trkpt>
      <trkpt lat="42.1106370" lon="-8.8341330">
        <ele>6.8</ele>
        <time>2021-05-20T04:59:59Z</time>
      </trkpt>
      <trkpt lat="42.1106330" lon="-8.8341280">
        <ele>6.8</ele>
        <time>2021-05-20T05:00:00Z</time>
      </trkpt>
      <trkpt lat="42.1106340" lon="-8.8341010">
        <ele>6.8</ele>
        <time>2021-05-20T05:00:01Z</time>
      </trkpt>
      <trkpt lat="42.1106300" lon="-8.8340890">
        <ele>6.9</ele>
        <time>2021-05-20T05:00:02Z</time>
      </trkpt>
      <trkpt lat="42.1106270" lon="-8.8340740">
        <ele>6.9</ele>
        <time>2021-05-20T05:00:03Z</time>
      </trkpt>
      <trkpt lat="42.1106300" lon="-8.8340520">
        <ele>6.9</ele>
        <time>2021-05-20T05:00:04Z</time>
      </trkpt>
      <trkpt lat="42.1106340" lon="-8.8340290">
        <ele>6.9</ele>
        <time>2021-05-20T05:00:05Z</time>
      </trkpt>
      <trkpt lat="42.1106340" lon="-8.8340190">
        <ele>6.9</ele>
        <time>2021-05-20T05:00:06Z</time>
      </trkpt>
      <trkpt lat="42.1106260" lon="-8.8340060">
        <ele>6.9</ele>
        <time>2021-05-20T05:00:07Z</time>
      </trkpt>
      <trkpt lat="42.1106260" lon="-8.8339900">
        <ele>6.9</ele>
        <time>2021-05-20T05:00:08Z</time>
      </trkpt>
      <trkpt lat="42.1106260" lon="-8.8339780">
        <ele>6.9</ele>
        <time>2021-05-20T05:00:09Z</time>
      </trkpt>
      <trkpt lat="42.1106270" lon="-8.8339650">
        <ele>6.9</ele>
        <time>2021-05-20T05:00:10Z</time>
      </trkpt>
      <trkpt lat="42.1106270" lon="-8.8339460">
        <ele>6.9</ele>
        <time>2021-05-20T05:00:11Z</time>
      </trkpt>
      <trkpt lat="42.1106240" lon="-8.8339190">
        <ele>6.9</ele>
        <time>2021-05-20T05:00:12Z</time>
      </trkpt>
      <trkpt lat="42.1106160" lon="-8.8339110">
        <ele>6.9</ele>
        <time>2021-05-20T05:00:13Z</time>
      </trkpt>
      <trkpt lat="42.1106060" lon="-8.8339010">
        <ele>6.9</ele>
        <time>2021-05-20T05:00:14Z</time>
      </trkpt>
      <trkpt lat="42.1106050" lon="-8.8338830">
        <ele>7.0</ele>
        <time>2021-05-20T05:00:15Z</time>
      </trkpt>
      <trkpt lat="42.1106070" lon="-8.8338570">
        <ele>7.0</ele>
        <time>2021-05-20T05:00:16Z</time>
      </trkpt>
      <trkpt lat="42.1106020" lon="-8.8338440">
        <ele>7.0</ele>
        <time>2021-05-20T05:00:17Z</time>
      </trkpt>
      <trkpt lat="42.1106020" lon="-8.8338330">
        <ele>7.0</ele>
        <time>2021-05-20T05:00:18Z</time>
      </trkpt>
      <trkpt lat="42.1105990" lon="-8.8338000">
        <ele>7.0</ele>
        <time>2021-05-20T05:00:19Z</time>
      </trkpt>
      <trkpt lat="42.1105920" lon="-8.8337720">
        <ele>7.0</ele>
        <time>2021-05-20T05:00:20Z</time>
      </trkpt>
      <trkpt lat="42.1105940" lon="-8.8337570">
        <ele>7.0</ele>
        <time>2021-05-20T05:00:21Z</time>
      </trkpt>
      <trkpt lat="42.1105870" lon="-8.8337380">
        <ele>7.0</ele>
        <time>2021-05-20T05:00:22Z</time>
      </trkpt>
      <trkpt lat="42.1105870" lon="-8.8337130">
        <ele>7.0</ele>
        <time>2021-05-20T05:00:23Z</time>
      </trkpt>
      <trkpt lat="42.1105810" lon="-8.8336870">
        <ele>7.0</ele>
        <time>2021-05-20T05:00:24Z</time>
      </trkpt>
      <trkpt lat="42.1105780" lon="-8.8336760">
        <ele>7.0</ele>
        <time>2021-05-20T05:00:25Z</time>
      </trkpt>
      <trkpt lat="42.1105740" lon="-8.8336500">
        <ele>7.0</ele>
        <time>2021-05-20T05:00:26Z</time>
      </trkpt>
      <trkpt lat="42.1105790" lon="-8.8336330">
        <ele>7.0</ele>
        <time>2021-05-20T05:00:27Z</time>
      </trkpt>
      <trkpt lat="42.1105760" lon="-8.8336050">
        <ele>7.0</ele>
        <time>2021-05-20T05:00:28Z</time>
      </trkpt>
      <trkpt lat="42.1105730" lon="-8.8335890">
        <ele>7.0</ele>
        <time>2021-05-20T05:00:29Z</time>
      </trkpt>
      <trkpt lat="42.1105710" lon="-8.8335630">
        <ele>7.0</ele>
        <time>2021-05-20T05:00:30Z</time>
      </trkpt>
      <trkpt lat="42.1105640" lon="-8.8335480">
        <ele>7.1</ele>
        <time>2021-05-20T05:00:31Z</time>
      </trkpt>
      <trkpt lat="42.1105580" lon="-8.8335350">
        <ele>7.1</ele>
        <time>2021-05-20T05:00:32Z</time>
      </trkpt>
      <trkpt lat="42.1105570" lon="-8.8335130">
        <ele>7.1</ele>
        <time>2021-05-20T05:00:33Z</time>
      </trkpt>
      <trkpt lat="42.1105510" lon="-8.8335020">
        <ele>7.1</ele>
        <time>2021-05-20T05:00:34Z</time>
      </trkpt>
      <trkpt lat="42.1105480" lon="-8.8334770">
        <ele>7.1</ele>
        <time>2021-05-20T05:00:35Z</time>
      </trkpt>
      <trkpt lat="42.1105510" lon="-8.8334620">
        <ele>7.1</ele>
        <time>2021-05-20T05:00:36Z</time>
      </trkpt>
      <trkpt lat="42.1105510" lon="-8.8334500">
        <ele>7.1</ele>
        <time>2021-05-20T05:00:37Z</time>
      </trkpt>
      <trkpt lat="42.1105440" lon="-8.8334300">
        <ele>7.1</ele>
        <time>2021-05-20T05:00:38Z</time>
      </trkpt>
      <trkpt lat="42.1105430" lon="-8.8334150">
        <ele>7.1</ele>
        <time>2021-05-20T05:00:39Z</time>
      </trkpt>
      <trkpt lat="42.1105390" lon="-8.8333980">
        <ele>7.1</ele>
        <time>2021-05-20T05:00:40Z</time>
      </trkpt>
      <trkpt lat="42.1105390" lon="-8.8333830">
        <ele>7.1</ele>
        <time>2021-05-20T05:00:41Z</time>
      </trkpt>
      <trkpt lat="42.1105330" lon="-8.8333540">
        <ele>7.1</ele>
        <time>2021-05-20T05:00:42Z</time>
      </trkpt>
      <trkpt lat="42.1105370" lon="-8.8333390">
        <ele>7.1</ele>
        <time>2021-05-20T05:00:43Z</time>
      </trkpt>
      <trkpt lat="42.1105330" lon="-8.8333120">
        <ele>7.1</ele>
        <time>2021-05-20T05:00:44Z</time>
      </trkpt>
      <trkpt lat="42.1105300" lon="-8.8332980">
        <ele>7.1</ele>
        <time>2021-05-20T05:00:45Z</time>
      </trkpt>
      <trkpt lat="42.1105280" lon="-8.8332830">
        <ele>7.2</ele>
        <time>2021-05-20T05:00:46Z</time>
      </trkpt>
      <trkpt lat="42.1105260" lon="-8.8332680">
        <ele>7.2</ele>
        <time>2021-05-20T05:00:47Z</time>
      </trkpt>
      <trkpt lat="42.1105260" lon="-8.8332440">
        <ele>7.2</ele>
        <time>2021-05-20T05:00:48Z</time>
      </trkpt>
      <trkpt lat="42.1105250" lon="-8.8332260">
        <ele>7.2</ele>
        <time>2021-05-20T05:00:49Z</time>
      </trkpt>
      <trkpt lat="42.1105230" lon="-8.8332130">
        <ele>7.2</ele>
        <time>2021-05-20T05:00:50Z</time>
      </trkpt>
      <trkpt lat="42.1105230" lon="-8.8332020">
        <ele>7.2</ele>
        <time>2021-05-20T05:00:51Z</time>
      </trkpt>
      <trkpt lat="42.1105170" lon="-8.8331760">
        <ele>7.2</ele>
        <time>2021-05-20T05:00:52Z</time>
      </trkpt>
      <trkpt lat="42.1105150" lon="-8.8331640">
        <ele>7.2</ele>
        <time>2021-05-20T05:00:53Z</time>
      </trkpt>
      <trkpt lat="42.1105130" lon="-8.8331520">
        <ele>7.2</ele>
        <time>2021-05-20T05:00:54Z</time>
      </trkpt>
      <trkpt lat="42.1105100" lon="-8.8331330">
        <ele>7.2</ele>
        <time>2021-05-20T05:00:55Z</time>
      </trkpt>
      <trkpt lat="42.1105060" lon="-8.8331130">
        <ele>7.2</ele>
        <time>2021-05-20T05:00:56Z</time>
      </trkpt>
      <trkpt lat="42.1105010" lon="-8.8330930">
        <ele>7.2</ele>
        <time>2021-05-20T05:00:57Z</time>
      </trkpt>
      <trkpt lat="42.1104970" lon="-8.8330760">
        <ele>7.2</ele>
        <time>2021-05-20T05:00:58Z</time>
      </trkpt>
      <trkpt lat="42.1104970" lon="-8.8330600">
        <ele>7.2</ele>
        <time>2021-05-20T05:00:59Z</time>
      </trkpt>
      <trkpt lat="42.1104930" lon="-8.8330500">
        <ele>7.2</ele>
        <time>2021-05-20T05:01:00Z</time>
      </trkpt>
      <trkpt lat="42.1104890" lon="-8.8330350">
        <ele>7.2</ele>
        <time>2021-05-20T05:01:01Z</time>
      </trkpt>
      <trkpt lat="42.1104870" lon="-8.8330260">
        <ele>7.2</ele>
        <time>2021-05-20T05:01:02Z</time>
      </trkpt>
      <trkpt lat="42.1104870" lon="-8.8330120">
        <ele>7.2</ele>
        <time>2021-05-20T05:01:03Z</time>
      </trkpt>
      <trkpt lat="42.1104810" lon="-8.8329940">
        <ele>7.2</ele>
        <time>2021-05-20T05:01:04Z</time>
      </trkpt>
      <trkpt lat="42.1104760" lon="-8.8329590">
        <ele>7.2</ele>
        <time>2021-05-20T05:01:05Z</time>
      </trkpt>
      <trkpt lat="42.1104750" lon="-8.8329460">
        <ele>7.3</ele>
        <time>2021-05-20T05:01:06Z</time>
      </trkpt>
      <trkpt lat="42.1104740" lon="-8.8329330">
        <ele>7.3</ele>
        <time>2021-05-20T05:01:07Z</time>
      </trkpt>
      <trkpt lat="42.1104690" lon="-8.8329110">
        <ele>7.3</ele>
        <time>2021-05-20T05:01:08Z</time>
      </trkpt>
      <trkpt lat="42.1104670" lon="-8.8328990">
        <ele>7.3</ele>
        <time>2021-05-20T05:01:09Z</time>
      </trkpt>
      <trkpt lat="42.1104670" lon="-8.8328900">
        <ele>7.3</ele>
        <time>2021-05-20T05:01:10Z</time>
      </trkpt>
      <trkpt lat="42.1104640" lon="-8.8328700">
        <ele>7.3</ele>
        <time>2021-05-20T05:01:11Z</time>
      </trkpt>
      <trkpt lat="42.1104650" lon="-8.8328450">
        <ele>7.3</ele>
        <time>2021-05-20T05:01:12Z</time>
      </trkpt>
      <trkpt lat="42.1104660" lon="-8.8328330">
        <ele>7.3</ele>
        <time>2021-05-20T05:01:13Z</time>
      </trkpt>
      <trkpt lat="42.1104650" lon="-8.8328080">
        <ele>7.3</ele>
        <time>2021-05-20T05:01:14Z</time>
      </trkpt>
      <trkpt lat="42.1104580" lon="-8.8327680">
        <ele>7.3</ele>
        <time>2021-05-20T05:01:15Z</time>
      </trkpt>
      <trkpt lat="42.1104530" lon="-8.8327580">
        <ele>7.3</ele>
        <time>2021-05-20T05:01:16Z</time>
      </trkpt>
      <trkpt lat="42.1104530" lon="-8.8327380">
        <ele>7.3</ele>
        <time>2021-05-20T05:01:17Z</time>
      </trkpt>
      <trkpt lat="42.1104500" lon="-8.8327260">
        <ele>7.3</ele>
        <time>2021-05-20T05:01:18Z</time>
      </trkpt>
      <trkpt lat="42.1104420" lon="-8.8327160">
        <ele>7.3</ele>
        <time>2021-05-20T05:01:19Z</time>
      </trkpt>
      <trkpt lat="42.1104360" lon="-8.8326790">
        <ele>7.3</ele>
        <time>2021-05-20T05:01:20Z</time>
      </trkpt>
      <trkpt lat="42.1104300" lon="-8.8326670">
        <ele>7.3</ele>
        <time>2021-05-20T05:01:21Z</time>
      </trkpt>
      <trkpt lat="42.1104310" lon="-8.8326460">
        <ele>7.3</ele>
        <time>2021-05-20T05:01:22Z</time>
      </trkpt>
      <trkpt lat="42.1104300" lon="-8.8326290">
        <ele>7.3</ele>
        <time>2021-05-20T05:01:23Z</time>
      </trkpt>
      <trkpt lat="42.1104300" lon="-8.8326130">
        <ele>7.3</ele>
        <time>2021-05-20T05:01:24Z</time>
      </trkpt>
      <trkpt lat="42.1104310" lon="-8.8325810">
        <ele>7.3</ele>
        <time>2021-05-20T05:01:25Z</time>
      </trkpt>
      <trkpt lat="42.1104320" lon="-8.8325650">
        <ele>7.3</ele>
        <time>2021-05-20T05:01:26Z</time>
      </trkpt>
      <trkpt lat="42.1104330" lon="-8.8325480">
        <ele>7.3</ele>
        <time>2021-05-20T05:01:27Z</time>
      </trkpt>
      <trkpt lat="42.1104300" lon="-8.8325260">
        <ele>7.3</ele>
        <time>2021-05-20T05:01:28Z</time>
      </trkpt>
      <trkpt lat="42.1104280" lon="-8.8325090">
        <ele>7.3</ele>
        <time>2021-05-20T05:01:29Z</time>
      </trkpt>
      <trkpt lat="42.1104200" lon="-8.8324940">
        <ele>7.3</ele>
        <time>2021-05-20T05:01:30Z</time>
      </trkpt>
      <trkpt lat="42.1104170" lon="-8.8324750">
        <ele>7.3</ele>
        <time>2021-05-20T05:01:31Z</time>
      </trkpt>
      <trkpt lat="42.1104120" lon="-8.8324290">
        <ele>7.3</ele>
        <time>2021-05-20T05:01:32Z</time>
      </trkpt>
      <trkpt lat="42.1104090" lon="-8.8324170">
        <ele>7.3</ele>
        <time>2021-05-20T05:01:33Z</time>
      </trkpt>
      <trkpt lat="42.1104060" lon="-8.8323920">
        <ele>7.3</ele>
        <time>2021-05-20T05:01:34Z</time>
      </trkpt>
      <trkpt lat="42.1104050" lon="-8.8323690">
        <ele>7.3</ele>
        <time>2021-05-20T05:01:35Z</time>
      </trkpt>
      <trkpt lat="42.1104010" lon="-8.8323500">
        <ele>7.3</ele>
        <time>2021-05-20T05:01:36Z</time>
      </trkpt>
      <trkpt lat="42.1104000" lon="-8.8323280">
        <ele>7.3</ele>
        <time>2021-05-20T05:01:37Z</time>
      </trkpt>
      <trkpt lat="42.1103950" lon="-8.8323080">
        <ele>7.3</ele>
        <time>2021-05-20T05:01:38Z</time>
      </trkpt>
      <trkpt lat="42.1103920" lon="-8.8322880">
        <ele>7.3</ele>
        <time>2021-05-20T05:01:39Z</time>
      </trkpt>
      <trkpt lat="42.1103910" lon="-8.8322740">
        <ele>7.3</ele>
        <time>2021-05-20T05:01:40Z</time>
      </trkpt>
      <trkpt lat="42.1103810" lon="-8.8322590">
        <ele>7.3</ele>
        <time>2021-05-20T05:01:41Z</time>
      </trkpt>
      <trkpt lat="42.1103800" lon="-8.8322490">
        <ele>7.3</ele>
        <time>2021-05-20T05:01:42Z</time>
      </trkpt>
      <trkpt lat="42.1103800" lon="-8.8322480">
        <ele>7.3</ele>
        <time>2021-05-20T05:01:43Z</time>
      </trkpt>
      <trkpt lat="42.1103720" lon="-8.8322350">
        <ele>7.3</ele>
        <time>2021-05-20T05:01:44Z</time>
      </trkpt>
      <trkpt lat="42.1103610" lon="-8.8322120">
        <ele>7.3</ele>
        <time>2021-05-20T05:01:45Z</time>
      </trkpt>
      <trkpt lat="42.1103610" lon="-8.8321930">
        <ele>7.3</ele>
        <time>2021-05-20T05:01:46Z</time>
      </trkpt>
      <trkpt lat="42.1103640" lon="-8.8321830">
        <ele>7.3</ele>
        <time>2021-05-20T05:01:47Z</time>
      </trkpt>
      <trkpt lat="42.1103600" lon="-8.8321650">
        <ele>7.3</ele>
        <time>2021-05-20T05:01:48Z</time>
      </trkpt>
      <trkpt lat="42.1103570" lon="-8.8321460">
        <ele>7.3</ele>
        <time>2021-05-20T05:01:49Z</time>
      </trkpt>
      <trkpt lat="42.1103580" lon="-8.8321240">
        <ele>7.3</ele>
        <time>2021-05-20T05:01:50Z</time>
      </trkpt>
      <trkpt lat="42.1103550" lon="-8.8321060">
        <ele>7.3</ele>
        <time>2021-05-20T05:01:51Z</time>
      </trkpt>
      <trkpt lat="42.1103540" lon="-8.8321000">
        <ele>7.3</ele>
        <time>2021-05-20T05:01:52Z</time>
      </trkpt>
      <trkpt lat="42.1103580" lon="-8.8320870">
        <ele>7.3</ele>
        <time>2021-05-20T05:01:53Z</time>
      </trkpt>
      <trkpt lat="42.1103510" lon="-8.8320610">
        <ele>7.3</ele>
        <time>2021-05-20T05:01:54Z</time>
      </trkpt>
      <trkpt lat="42.1103510" lon="-8.8320490">
        <ele>7.3</ele>
        <time>2021-05-20T05:01:55Z</time>
      </trkpt>
      <trkpt lat="42.1103430" lon="-8.8320080">
        <ele>7.3</ele>
        <time>2021-05-20T05:01:56Z</time>
      </trkpt>
      <trkpt lat="42.1103390" lon="-8.8319990">
        <ele>7.3</ele>
        <time>2021-05-20T05:01:57Z</time>
      </trkpt>
      <trkpt lat="42.1103320" lon="-8.8319790">
        <ele>7.3</ele>
        <time>2021-05-20T05:01:58Z</time>
      </trkpt>
      <trkpt lat="42.1103280" lon="-8.8319550">
        <ele>7.3</ele>
        <time>2021-05-20T05:01:59Z</time>
      </trkpt>
      <trkpt lat="42.1103320" lon="-8.8319320">
        <ele>7.3</ele>
        <time>2021-05-20T05:02:00Z</time>
      </trkpt>
      <trkpt lat="42.1103350" lon="-8.8319100">
        <ele>7.3</ele>
        <time>2021-05-20T05:02:01Z</time>
      </trkpt>
      <trkpt lat="42.1103350" lon="-8.8318890">
        <ele>7.3</ele>
        <time>2021-05-20T05:02:02Z</time>
      </trkpt>
      <trkpt lat="42.1103340" lon="-8.8318710">
        <ele>7.3</ele>
        <time>2021-05-20T05:02:03Z</time>
      </trkpt>
      <trkpt lat="42.1103250" lon="-8.8318420">
        <ele>7.2</ele>
        <time>2021-05-20T05:02:04Z</time>
      </trkpt>
      <trkpt lat="42.1103240" lon="-8.8318320">
        <ele>7.2</ele>
        <time>2021-05-20T05:02:05Z</time>
      </trkpt>
      <trkpt lat="42.1103240" lon="-8.8318230">
        <ele>7.2</ele>
        <time>2021-05-20T05:02:06Z</time>
      </trkpt>
      <trkpt lat="42.1103260" lon="-8.8318150">
        <ele>7.2</ele>
        <time>2021-05-20T05:02:07Z</time>
      </trkpt>
      <trkpt lat="42.1103260" lon="-8.8318040">
        <ele>7.2</ele>
        <time>2021-05-20T05:02:08Z</time>
      </trkpt>
      <trkpt lat="42.1103270" lon="-8.8317930">
        <ele>7.2</ele>
        <time>2021-05-20T05:02:09Z</time>
      </trkpt>
      <trkpt lat="42.1103270" lon="-8.8317820">
        <ele>7.2</ele>
        <time>2021-05-20T05:02:10Z</time>
      </trkpt>
      <trkpt lat="42.1103270" lon="-8.8317710">
        <ele>7.2</ele>
        <time>2021-05-20T05:02:11Z</time>
      </trkpt>
      <trkpt lat="42.1103270" lon="-8.8317600">
        <ele>7.2</ele>
        <time>2021-05-20T05:02:12Z</time>
      </trkpt>
      <trkpt lat="42.1103290" lon="-8.8317290">
        <ele>7.2</ele>
        <time>2021-05-20T05:02:13Z</time>
      </trkpt>
      <trkpt lat="42.1103260" lon="-8.8317130">
        <ele>7.2</ele>
        <time>2021-05-20T05:02:14Z</time>
      </trkpt>
      <trkpt lat="42.1103290" lon="-8.8316910">
        <ele>7.2</ele>
        <time>2021-05-20T05:02:15Z</time>
      </trkpt>
      <trkpt lat="42.1103270" lon="-8.8316660">
        <ele>7.2</ele>
        <time>2021-05-20T05:02:16Z</time>
      </trkpt>
      <trkpt lat="42.1103240" lon="-8.8316460">
        <ele>7.2</ele>
        <time>2021-05-20T05:02:17Z</time>
      </trkpt>
      <trkpt lat="42.1103230" lon="-8.8316410">
        <ele>7.2</ele>
        <time>2021-05-20T05:02:18Z</time>
      </trkpt>
      <trkpt lat="42.1103260" lon="-8.8316310">
        <ele>7.2</ele>
        <time>2021-05-20T05:02:19Z</time>
      </trkpt>
      <trkpt lat="42.1103260" lon="-8.8316430">
        <ele>7.2</ele>
        <time>2021-05-20T05:02:20Z</time>
      </trkpt>
      <trkpt lat="42.1103300" lon="-8.8316290">
        <ele>7.2</ele>
        <time>2021-05-20T05:02:21Z</time>
      </trkpt>
      <trkpt lat="42.1103320" lon="-8.8316250">
        <ele>7.1</ele>
        <time>2021-05-20T05:02:22Z</time>
      </trkpt>
      <trkpt lat="42.1103320" lon="-8.8316200">
        <ele>7.1</ele>
        <time>2021-05-20T05:02:23Z</time>
      </trkpt>
      <trkpt lat="42.1103320" lon="-8.8316040">
        <ele>7.1</ele>
        <time>2021-05-20T05:02:24Z</time>
      </trkpt>
      <trkpt lat="42.1103230" lon="-8.8315660">
        <ele>7.1</ele>
        <time>2021-05-20T05:02:25Z</time>
      </trkpt>
      <trkpt lat="42.1103230" lon="-8.8315550">
        <ele>7.1</ele>
        <time>2021-05-20T05:02:26Z</time>
      </trkpt>
      <trkpt lat="42.1103080" lon="-8.8315460">
        <ele>7.1</ele>
        <time>2021-05-20T05:02:27Z</time>
      </trkpt>
      <trkpt lat="42.1103030" lon="-8.8315270">
        <ele>7.1</ele>
        <time>2021-05-20T05:02:28Z</time>
      </trkpt>
      <trkpt lat="42.1103000" lon="-8.8314960">
        <ele>7.1</ele>
        <time>2021-05-20T05:02:29Z</time>
      </trkpt>
      <trkpt lat="42.1102980" lon="-8.8314850">
        <ele>7.1</ele>
        <time>2021-05-20T05:02:30Z</time>
      </trkpt>
      <trkpt lat="42.1102970" lon="-8.8314750">
        <ele>7.1</ele>
        <time>2021-05-20T05:02:31Z</time>
      </trkpt>
      <trkpt lat="42.1103060" lon="-8.8314580">
        <ele>7.1</ele>
        <time>2021-05-20T05:02:32Z</time>
      </trkpt>
      <trkpt lat="42.1103030" lon="-8.8314340">
        <ele>7.1</ele>
        <time>2021-05-20T05:02:33Z</time>
      </trkpt>
      <trkpt lat="42.1103030" lon="-8.8314170">
        <ele>7.1</ele>
        <time>2021-05-20T05:02:34Z</time>
      </trkpt>
      <trkpt lat="42.1102970" lon="-8.8314010">
        <ele>7.1</ele>
        <time>2021-05-20T05:02:35Z</time>
      </trkpt>
      <trkpt lat="42.1102930" lon="-8.8313910">
        <ele>7.1</ele>
        <time>2021-05-20T05:02:36Z</time>
      </trkpt>
      <trkpt lat="42.1102940" lon="-8.8313620">
        <ele>7.1</ele>
        <time>2021-05-20T05:02:37Z</time>
      </trkpt>
      <trkpt lat="42.1102880" lon="-8.8313440">
        <ele>7.1</ele>
        <time>2021-05-20T05:02:38Z</time>
      </trkpt>
      <trkpt lat="42.1102860" lon="-8.8313190">
        <ele>7.1</ele>
        <time>2021-05-20T05:02:39Z</time>
      </trkpt>
      <trkpt lat="42.1102850" lon="-8.8313070">
        <ele>7.1</ele>
        <time>2021-05-20T05:02:40Z</time>
      </trkpt>
      <trkpt lat="42.1102830" lon="-8.8312950">
        <ele>7.1</ele>
        <time>2021-05-20T05:02:41Z</time>
      </trkpt>
      <trkpt lat="42.1102820" lon="-8.8312790">
        <ele>7.1</ele>
        <time>2021-05-20T05:02:42Z</time>
      </trkpt>
      <trkpt lat="42.1102820" lon="-8.8312600">
        <ele>7.1</ele>
        <time>2021-05-20T05:02:43Z</time>
      </trkpt>
      <trkpt lat="42.1102800" lon="-8.8312470">
        <ele>7.1</ele>
        <time>2021-05-20T05:02:44Z</time>
      </trkpt>
      <trkpt lat="42.1102780" lon="-8.8312300">
        <ele>7.1</ele>
        <time>2021-05-20T05:02:45Z</time>
      </trkpt>
      <trkpt lat="42.1102810" lon="-8.8312170">
        <ele>7.1</ele>
        <time>2021-05-20T05:02:46Z</time>
      </trkpt>
      <trkpt lat="42.1102850" lon="-8.8312030">
        <ele>7.1</ele>
        <time>2021-05-20T05:02:47Z</time>
      </trkpt>
      <trkpt lat="42.1102820" lon="-8.8311900">
        <ele>7.1</ele>
        <time>2021-05-20T05:02:48Z</time>
      </trkpt>
      <trkpt lat="42.1102800" lon="-8.8311770">
        <ele>7.1</ele>
        <time>2021-05-20T05:02:49Z</time>
      </trkpt>
      <trkpt lat="42.1102770" lon="-8.8311650">
        <ele>7.0</ele>
        <time>2021-05-20T05:02:50Z</time>
      </trkpt>
      <trkpt lat="42.1102750" lon="-8.8311530">
        <ele>7.0</ele>
        <time>2021-05-20T05:02:51Z</time>
      </trkpt>
      <trkpt lat="42.1102740" lon="-8.8311430">
        <ele>7.0</ele>
        <time>2021-05-20T05:02:52Z</time>
      </trkpt>
      <trkpt lat="42.1102740" lon="-8.8311290">
        <ele>7.0</ele>
        <time>2021-05-20T05:02:53Z</time>
      </trkpt>
      <trkpt lat="42.1102640" lon="-8.8311090">
        <ele>7.0</ele>
        <time>2021-05-20T05:02:54Z</time>
      </trkpt>
      <trkpt lat="42.1102580" lon="-8.8310960">
        <ele>7.0</ele>
        <time>2021-05-20T05:02:55Z</time>
      </trkpt>
      <trkpt lat="42.1102560" lon="-8.8310640">
        <ele>7.0</ele>
        <time>2021-05-20T05:02:56Z</time>
      </trkpt>
      <trkpt lat="42.1102510" lon="-8.8310510">
        <ele>7.0</ele>
        <time>2021-05-20T05:02:57Z</time>
      </trkpt>
      <trkpt lat="42.1102530" lon="-8.8310380">
        <ele>7.0</ele>
        <time>2021-05-20T05:02:58Z</time>
      </trkpt>
      <trkpt lat="42.1102460" lon="-8.8310190">
        <ele>7.0</ele>
        <time>2021-05-20T05:02:59Z</time>
      </trkpt>
      <trkpt lat="42.1102390" lon="-8.8310030">
        <ele>7.0</ele>
        <time>2021-05-20T05:03:00Z</time>
      </trkpt>
      <trkpt lat="42.1102420" lon="-8.8309800">
        <ele>7.0</ele>
        <time>2021-05-20T05:03:01Z</time>
      </trkpt>
      <trkpt lat="42.1102320" lon="-8.8309640">
        <ele>7.0</ele>
        <time>2021-05-20T05:03:02Z</time>
      </trkpt>
      <trkpt lat="42.1102320" lon="-8.8309550">
        <ele>7.0</ele>
        <time>2021-05-20T05:03:03Z</time>
      </trkpt>
      <trkpt lat="42.1102250" lon="-8.8309410">
        <ele>7.0</ele>
        <time>2021-05-20T05:03:04Z</time>
      </trkpt>
      <trkpt lat="42.1102170" lon="-8.8309180">
        <ele>7.0</ele>
        <time>2021-05-20T05:03:05Z</time>
      </trkpt>
      <trkpt lat="42.1102130" lon="-8.8309010">
        <ele>7.0</ele>
        <time>2021-05-20T05:03:06Z</time>
      </trkpt>
      <trkpt lat="42.1102110" lon="-8.8308820">
        <ele>7.0</ele>
        <time>2021-05-20T05:03:07Z</time>
      </trkpt>
      <trkpt lat="42.1102000" lon="-8.8308650">
        <ele>7.0</ele>
        <time>2021-05-20T05:03:08Z</time>
      </trkpt>
      <trkpt lat="42.1102070" lon="-8.8308480">
        <ele>7.0</ele>
        <time>2021-05-20T05:03:09Z</time>
      </trkpt>
      <trkpt lat="42.1102040" lon="-8.8308220">
        <ele>6.9</ele>
        <time>2021-05-20T05:03:10Z</time>
      </trkpt>
      <trkpt lat="42.1102060" lon="-8.8308160">
        <ele>6.9</ele>
        <time>2021-05-20T05:03:11Z</time>
      </trkpt>
      <trkpt lat="42.1102040" lon="-8.8308000">
        <ele>6.9</ele>
        <time>2021-05-20T05:03:12Z</time>
      </trkpt>
      <trkpt lat="42.1102020" lon="-8.8307790">
        <ele>6.9</ele>
        <time>2021-05-20T05:03:13Z</time>
      </trkpt>
      <trkpt lat="42.1102020" lon="-8.8307500">
        <ele>6.9</ele>
        <time>2021-05-20T05:03:14Z</time>
      </trkpt>
      <trkpt lat="42.1102010" lon="-8.8307390">
        <ele>6.9</ele>
        <time>2021-05-20T05:03:15Z</time>
      </trkpt>
      <trkpt lat="42.1101990" lon="-8.8307270">
        <ele>6.9</ele>
        <time>2021-05-20T05:03:16Z</time>
      </trkpt>
      <trkpt lat="42.1102030" lon="-8.8307020">
        <ele>6.9</ele>
        <time>2021-05-20T05:03:17Z</time>
      </trkpt>
      <trkpt lat="42.1102020" lon="-8.8306870">
        <ele>6.9</ele>
        <time>2021-05-20T05:03:18Z</time>
      </trkpt>
      <trkpt lat="42.1102000" lon="-8.8306730">
        <ele>6.9</ele>
        <time>2021-05-20T05:03:19Z</time>
      </trkpt>
      <trkpt lat="42.1101960" lon="-8.8306420">
        <ele>6.9</ele>
        <time>2021-05-20T05:03:20Z</time>
      </trkpt>
      <trkpt lat="42.1102010" lon="-8.8306260">
        <ele>6.9</ele>
        <time>2021-05-20T05:03:21Z</time>
      </trkpt>
      <trkpt lat="42.1101960" lon="-8.8305910">
        <ele>6.9</ele>
        <time>2021-05-20T05:03:22Z</time>
      </trkpt>
      <trkpt lat="42.1102000" lon="-8.8305770">
        <ele>6.9</ele>
        <time>2021-05-20T05:03:23Z</time>
      </trkpt>
      <trkpt lat="42.1102060" lon="-8.8305530">
        <ele>6.9</ele>
        <time>2021-05-20T05:03:24Z</time>
      </trkpt>
      <trkpt lat="42.1102030" lon="-8.8305370">
        <ele>6.9</ele>
        <time>2021-05-20T05:03:25Z</time>
      </trkpt>
      <trkpt lat="42.1101980" lon="-8.8305170">
        <ele>6.9</ele>
        <time>2021-05-20T05:03:26Z</time>
      </trkpt>
      <trkpt lat="42.1101970" lon="-8.8304990">
        <ele>6.8</ele>
        <time>2021-05-20T05:03:27Z</time>
      </trkpt>
      <trkpt lat="42.1101880" lon="-8.8304720">
        <ele>6.8</ele>
        <time>2021-05-20T05:03:28Z</time>
      </trkpt>
      <trkpt lat="42.1101850" lon="-8.8304540">
        <ele>6.8</ele>
        <time>2021-05-20T05:03:29Z</time>
      </trkpt>
      <trkpt lat="42.1101840" lon="-8.8304380">
        <ele>6.8</ele>
        <time>2021-05-20T05:03:30Z</time>
      </trkpt>
      <trkpt lat="42.1101830" lon="-8.8304170">
        <ele>6.8</ele>
        <time>2021-05-20T05:03:31Z</time>
      </trkpt>
      <trkpt lat="42.1101790" lon="-8.8303920">
        <ele>6.8</ele>
        <time>2021-05-20T05:03:32Z</time>
      </trkpt>
      <trkpt lat="42.1101840" lon="-8.8303720">
        <ele>6.8</ele>
        <time>2021-05-20T05:03:33Z</time>
      </trkpt>
      <trkpt lat="42.1101850" lon="-8.8303540">
        <ele>6.8</ele>
        <time>2021-05-20T05:03:34Z</time>
      </trkpt>
      <trkpt lat="42.1101800" lon="-8.8303350">
        <ele>6.8</ele>
        <time>2021-05-20T05:03:35Z</time>
      </trkpt>
      <trkpt lat="42.1101760" lon="-8.8303200">
        <ele>6.8</ele>
        <time>2021-05-20T05:03:36Z</time>
      </trkpt>
      <trkpt lat="42.1101670" lon="-8.8302940">
        <ele>6.8</ele>
        <time>2021-05-20T05:03:37Z</time>
      </trkpt>
      <trkpt lat="42.1101630" lon="-8.8302700">
        <ele>6.8</ele>
        <time>2021-05-20T05:03:38Z</time>
      </trkpt>
      <trkpt lat="42.1101580" lon="-8.8302490">
        <ele>6.8</ele>
        <time>2021-05-20T05:03:39Z</time>
      </trkpt>
      <trkpt lat="42.1101490" lon="-8.8302180">
        <ele>6.8</ele>
        <time>2021-05-20T05:03:40Z</time>
      </trkpt>
      <trkpt lat="42.1101470" lon="-8.8301990">
        <ele>6.8</ele>
        <time>2021-05-20T05:03:41Z</time>
      </trkpt>
      <trkpt lat="42.1101460" lon="-8.8301810">
        <ele>6.8</ele>
        <time>2021-05-20T05:03:42Z</time>
      </trkpt>
      <trkpt lat="42.1101370" lon="-8.8301660">
        <ele>6.8</ele>
        <time>2021-05-20T05:03:43Z</time>
      </trkpt>
      <trkpt lat="42.1101310" lon="-8.8301420">
        <ele>6.8</ele>
        <time>2021-05-20T05:03:44Z</time>
      </trkpt>
      <trkpt lat="42.1101290" lon="-8.8301040">
        <ele>6.8</ele>
        <time>2021-05-20T05:03:45Z</time>
      </trkpt>
      <trkpt lat="42.1101270" lon="-8.8300920">
        <ele>6.8</ele>
        <time>2021-05-20T05:03:46Z</time>
      </trkpt>
      <trkpt lat="42.1101300" lon="-8.8300530">
        <ele>6.8</ele>
        <time>2021-05-20T05:03:47Z</time>
      </trkpt>
      <trkpt lat="42.1101300" lon="-8.8300410">
        <ele>6.8</ele>
        <time>2021-05-20T05:03:48Z</time>
      </trkpt>
      <trkpt lat="42.1101280" lon="-8.8300190">
        <ele>6.8</ele>
        <time>2021-05-20T05:03:49Z</time>
      </trkpt>
      <trkpt lat="42.1101230" lon="-8.8299990">
        <ele>6.8</ele>
        <time>2021-05-20T05:03:50Z</time>
      </trkpt>
      <trkpt lat="42.1101210" lon="-8.8299790">
        <ele>6.8</ele>
        <time>2021-05-20T05:03:51Z</time>
      </trkpt>
      <trkpt lat="42.1101200" lon="-8.8299590">
        <ele>6.8</ele>
        <time>2021-05-20T05:03:52Z</time>
      </trkpt>
      <trkpt lat="42.1101180" lon="-8.8299370">
        <ele>6.8</ele>
        <time>2021-05-20T05:03:53Z</time>
      </trkpt>
      <trkpt lat="42.1101100" lon="-8.8299200">
        <ele>6.8</ele>
        <time>2021-05-20T05:03:54Z</time>
      </trkpt>
      <trkpt lat="42.1101080" lon="-8.8299000">
        <ele>6.8</ele>
        <time>2021-05-20T05:03:55Z</time>
      </trkpt>
      <trkpt lat="42.1101030" lon="-8.8298820">
        <ele>6.7</ele>
        <time>2021-05-20T05:03:56Z</time>
      </trkpt>
      <trkpt lat="42.1101020" lon="-8.8298640">
        <ele>6.7</ele>
        <time>2021-05-20T05:03:57Z</time>
      </trkpt>
      <trkpt lat="42.1101010" lon="-8.8298510">
        <ele>6.7</ele>
        <time>2021-05-20T05:03:58Z</time>
      </trkpt>
      <trkpt lat="42.1101000" lon="-8.8298390">
        <ele>6.7</ele>
        <time>2021-05-20T05:03:59Z</time>
      </trkpt>
      <trkpt lat="42.1100990" lon="-8.8298330">
        <ele>6.7</ele>
        <time>2021-05-20T05:04:00Z</time>
      </trkpt>
      <trkpt lat="42.1100960" lon="-8.8298110">
        <ele>6.7</ele>
        <time>2021-05-20T05:04:01Z</time>
      </trkpt>
      <trkpt lat="42.1101000" lon="-8.8297970">
        <ele>6.7</ele>
        <time>2021-05-20T05:04:02Z</time>
      </trkpt>
      <trkpt lat="42.1101010" lon="-8.8297820">
        <ele>6.7</ele>
        <time>2021-05-20T05:04:03Z</time>
      </trkpt>
      <trkpt lat="42.1101020" lon="-8.8297650">
        <ele>6.7</ele>
        <time>2021-05-20T05:04:04Z</time>
      </trkpt>
      <trkpt lat="42.1101040" lon="-8.8297490">
        <ele>6.7</ele>
        <time>2021-05-20T05:04:05Z</time>
      </trkpt>
      <trkpt lat="42.1101050" lon="-8.8297450">
        <ele>6.7</ele>
        <time>2021-05-20T05:04:06Z</time>
      </trkpt>
      <trkpt lat="42.1101080" lon="-8.8297320">
        <ele>6.7</ele>
        <time>2021-05-20T05:04:07Z</time>
      </trkpt>
      <trkpt lat="42.1101100" lon="-8.8297110">
        <ele>6.7</ele>
        <time>2021-05-20T05:04:08Z</time>
      </trkpt>
      <trkpt lat="42.1101080" lon="-8.8296920">
        <ele>6.7</ele>
        <time>2021-05-20T05:04:09Z</time>
      </trkpt>
      <trkpt lat="42.1101020" lon="-8.8296750">
        <ele>6.7</ele>
        <time>2021-05-20T05:04:10Z</time>
      </trkpt>
      <trkpt lat="42.1100970" lon="-8.8296550">
        <ele>6.7</ele>
        <time>2021-05-20T05:04:11Z</time>
      </trkpt>
      <trkpt lat="42.1100930" lon="-8.8296290">
        <ele>6.7</ele>
        <time>2021-05-20T05:04:12Z</time>
      </trkpt>
      <trkpt lat="42.1100920" lon="-8.8296170">
        <ele>6.7</ele>
        <time>2021-05-20T05:04:13Z</time>
      </trkpt>
      <trkpt lat="42.1100910" lon="-8.8296000">
        <ele>6.7</ele>
        <time>2021-05-20T05:04:14Z</time>
      </trkpt>
      <trkpt lat="42.1100830" lon="-8.8295870">
        <ele>6.7</ele>
        <time>2021-05-20T05:04:15Z</time>
      </trkpt>
      <trkpt lat="42.1100900" lon="-8.8295700">
        <ele>6.7</ele>
        <time>2021-05-20T05:04:16Z</time>
      </trkpt>
      <trkpt lat="42.1100880" lon="-8.8295500">
        <ele>6.7</ele>
        <time>2021-05-20T05:04:17Z</time>
      </trkpt>
      <trkpt lat="42.1100910" lon="-8.8295320">
        <ele>6.7</ele>
        <time>2021-05-20T05:04:18Z</time>
      </trkpt>
      <trkpt lat="42.1100900" lon="-8.8295200">
        <ele>6.7</ele>
        <time>2021-05-20T05:04:19Z</time>
      </trkpt>
      <trkpt lat="42.1100900" lon="-8.8295070">
        <ele>6.7</ele>
        <time>2021-05-20T05:04:20Z</time>
      </trkpt>
      <trkpt lat="42.1100890" lon="-8.8294950">
        <ele>6.7</ele>
        <time>2021-05-20T05:04:21Z</time>
      </trkpt>
      <trkpt lat="42.1100960" lon="-8.8294780">
        <ele>6.7</ele>
        <time>2021-05-20T05:04:22Z</time>
      </trkpt>
      <trkpt lat="42.1100970" lon="-8.8294650">
        <ele>6.7</ele>
        <time>2021-05-20T05:04:23Z</time>
      </trkpt>
      <trkpt lat="42.1100970" lon="-8.8294530">
        <ele>6.7</ele>
        <time>2021-05-20T05:04:24Z</time>
      </trkpt>
      <trkpt lat="42.1100980" lon="-8.8294400">
        <ele>6.7</ele>
        <time>2021-05-20T05:04:25Z</time>
      </trkpt>
      <trkpt lat="42.1100930" lon="-8.8294180">
        <ele>6.7</ele>
        <time>2021-05-20T05:04:26Z</time>
      </trkpt>
      <trkpt lat="42.1100880" lon="-8.8294020">
        <ele>6.7</ele>
        <time>2021-05-20T05:04:27Z</time>
      </trkpt>
      <trkpt lat="42.1100900" lon="-8.8293820">
        <ele>6.7</ele>
        <time>2021-05-20T05:04:28Z</time>
      </trkpt>
      <trkpt lat="42.1100900" lon="-8.8293620">
        <ele>6.8</ele>
        <time>2021-05-20T05:04:29Z</time>
      </trkpt>
      <trkpt lat="42.1101070" lon="-8.8293390">
        <ele>6.8</ele>
        <time>2021-05-20T05:04:30Z</time>
      </trkpt>
      <trkpt lat="42.1101190" lon="-8.8293280">
        <ele>6.8</ele>
        <time>2021-05-20T05:04:31Z</time>
      </trkpt>
      <trkpt lat="42.1101310" lon="-8.8293060">
        <ele>6.8</ele>
        <time>2021-05-20T05:04:32Z</time>
      </trkpt>
      <trkpt lat="42.1101320" lon="-8.8292850">
        <ele>6.8</ele>
        <time>2021-05-20T05:04:33Z</time>
      </trkpt>
      <trkpt lat="42.1101420" lon="-8.8292430">
        <ele>6.8</ele>
        <time>2021-05-20T05:04:34Z</time>
      </trkpt>
      <trkpt lat="42.1101360" lon="-8.8292280">
        <ele>6.8</ele>
        <time>2021-05-20T05:04:35Z</time>
      </trkpt>
      <trkpt lat="42.1101150" lon="-8.8292110">
        <ele>6.8</ele>
        <time>2021-05-20T05:04:36Z</time>
      </trkpt>
      <trkpt lat="42.1101090" lon="-8.8292050">
        <ele>6.8</ele>
        <time>2021-05-20T05:04:37Z</time>
      </trkpt>
      <trkpt lat="42.1100910" lon="-8.8291780">
        <ele>5.9</ele>
        <time>2021-05-20T05:04:38Z</time>
      </trkpt>
      <trkpt lat="42.1100680" lon="-8.8291500">
        <ele>6.0</ele>
        <time>2021-05-20T05:04:39Z</time>
      </trkpt>
      <trkpt lat="42.1100640" lon="-8.8291400">
        <ele>6.0</ele>
        <time>2021-05-20T05:04:40Z</time>
      </trkpt>
      <trkpt lat="42.1100530" lon="-8.8291230">
        <ele>6.0</ele>
        <time>2021-05-20T05:04:41Z</time>
      </trkpt>
      <trkpt lat="42.1100470" lon="-8.8291020">
        <ele>6.0</ele>
        <time>2021-05-20T05:04:42Z</time>
      </trkpt>
      <trkpt lat="42.1100380" lon="-8.8290820">
        <ele>6.0</ele>
        <time>2021-05-20T05:04:43Z</time>
      </trkpt>
      <trkpt lat="42.1100290" lon="-8.8290640">
        <ele>6.0</ele>
        <time>2021-05-20T05:04:44Z</time>
      </trkpt>
      <trkpt lat="42.1100160" lon="-8.8290510">
        <ele>6.0</ele>
        <time>2021-05-20T05:04:45Z</time>
      </trkpt>
      <trkpt lat="42.1100030" lon="-8.8290370">
        <ele>6.0</ele>
        <time>2021-05-20T05:04:46Z</time>
      </trkpt>
      <trkpt lat="42.1100070" lon="-8.8290530">
        <ele>6.0</ele>
        <time>2021-05-20T05:04:47Z</time>
      </trkpt>
      <trkpt lat="42.1100160" lon="-8.8290680">
        <ele>6.0</ele>
        <time>2021-05-20T05:04:48Z</time>
      </trkpt>
      <trkpt lat="42.1100260" lon="-8.8290830">
        <ele>6.0</ele>
        <time>2021-05-20T05:04:49Z</time>
      </trkpt>
      <trkpt lat="42.1100510" lon="-8.8291130">
        <ele>6.0</ele>
        <time>2021-05-20T05:04:50Z</time>
      </trkpt>
      <trkpt lat="42.1100600" lon="-8.8291170">
        <ele>6.0</ele>
        <time>2021-05-20T05:04:51Z</time>
      </trkpt>
      <trkpt lat="42.1100670" lon="-8.8291290">
        <ele>6.0</ele>
        <time>2021-05-20T05:04:52Z</time>
      </trkpt>
      <trkpt lat="42.1100690" lon="-8.8291410">
        <ele>6.0</ele>
        <time>2021-05-20T05:04:53Z</time>
      </trkpt>
      <trkpt lat="42.1100760" lon="-8.8291590">
        <ele>6.0</ele>
        <time>2021-05-20T05:04:54Z</time>
      </trkpt>
      <trkpt lat="42.1100980" lon="-8.8291770">
        <ele>6.8</ele>
        <time>2021-05-20T05:04:55Z</time>
      </trkpt>
      <trkpt lat="42.1101040" lon="-8.8291820">
        <ele>6.8</ele>
        <time>2021-05-20T05:04:56Z</time>
      </trkpt>
      <trkpt lat="42.1101110" lon="-8.8291870">
        <ele>6.8</ele>
        <time>2021-05-20T05:04:57Z</time>
      </trkpt>
      <trkpt lat="42.1101280" lon="-8.8291890">
        <ele>6.8</ele>
        <time>2021-05-20T05:04:58Z</time>
      </trkpt>
      <trkpt lat="42.1101460" lon="-8.8291920">
        <ele>6.8</ele>
        <time>2021-05-20T05:04:59Z</time>
      </trkpt>
      <trkpt lat="42.1101590" lon="-8.8291830">
        <ele>6.8</ele>
        <time>2021-05-20T05:05:00Z</time>
      </trkpt>
      <trkpt lat="42.1101680" lon="-8.8291790">
        <ele>6.8</ele>
        <time>2021-05-20T05:05:01Z</time>
      </trkpt>
      <trkpt lat="42.1101790" lon="-8.8291740">
        <ele>6.8</ele>
        <time>2021-05-20T05:05:02Z</time>
      </trkpt>
      <trkpt lat="42.1101930" lon="-8.8291620">
        <ele>6.8</ele>
        <time>2021-05-20T05:05:03Z</time>
      </trkpt>
      <trkpt lat="42.1102020" lon="-8.8291540">
        <ele>6.8</ele>
        <time>2021-05-20T05:05:04Z</time>
      </trkpt>
      <trkpt lat="42.1102100" lon="-8.8291470">
        <ele>6.8</ele>
        <time>2021-05-20T05:05:05Z</time>
      </trkpt>
      <trkpt lat="42.1102140" lon="-8.8291280">
        <ele>6.8</ele>
        <time>2021-05-20T05:05:06Z</time>
      </trkpt>
      <trkpt lat="42.1102180" lon="-8.8291200">
        <ele>6.8</ele>
        <time>2021-05-20T05:05:07Z</time>
      </trkpt>
      <trkpt lat="42.1102220" lon="-8.8291020">
        <ele>6.8</ele>
        <time>2021-05-20T05:05:08Z</time>
      </trkpt>
      <trkpt lat="42.1102080" lon="-8.8290750">
        <ele>6.8</ele>
        <time>2021-05-20T05:05:09Z</time>
      </trkpt>
      <trkpt lat="42.1102020" lon="-8.8290590">
        <ele>6.8</ele>
        <time>2021-05-20T05:05:10Z</time>
      </trkpt>
      <trkpt lat="42.1101950" lon="-8.8290430">
        <ele>6.8</ele>
        <time>2021-05-20T05:05:11Z</time>
      </trkpt>
      <trkpt lat="42.1101800" lon="-8.8290130">
        <ele>6.8</ele>
        <time>2021-05-20T05:05:12Z</time>
      </trkpt>
      <trkpt lat="42.1101790" lon="-8.8289990">
        <ele>6.8</ele>
        <time>2021-05-20T05:05:13Z</time>
      </trkpt>
      <trkpt lat="42.1101780" lon="-8.8289840">
        <ele>6.8</ele>
        <time>2021-05-20T05:05:14Z</time>
      </trkpt>
      <trkpt lat="42.1101630" lon="-8.8289510">
        <ele>6.8</ele>
        <time>2021-05-20T05:05:15Z</time>
      </trkpt>
      <trkpt lat="42.1101600" lon="-8.8289400">
        <ele>6.8</ele>
        <time>2021-05-20T05:05:16Z</time>
      </trkpt>
      <trkpt lat="42.1101500" lon="-8.8289080">
        <ele>6.8</ele>
        <time>2021-05-20T05:05:17Z</time>
      </trkpt>
      <trkpt lat="42.1101490" lon="-8.8288970">
        <ele>6.8</ele>
        <time>2021-05-20T05:05:18Z</time>
      </trkpt>
      <trkpt lat="42.1101480" lon="-8.8288850">
        <ele>6.8</ele>
        <time>2021-05-20T05:05:19Z</time>
      </trkpt>
      <trkpt lat="42.1101450" lon="-8.8288680">
        <ele>6.8</ele>
        <time>2021-05-20T05:05:20Z</time>
      </trkpt>
      <trkpt lat="42.1101510" lon="-8.8288380">
        <ele>6.8</ele>
        <time>2021-05-20T05:05:21Z</time>
      </trkpt>
      <trkpt lat="42.1101570" lon="-8.8288310">
        <ele>6.8</ele>
        <time>2021-05-20T05:05:22Z</time>
      </trkpt>
      <trkpt lat="42.1101640" lon="-8.8288110">
        <ele>6.8</ele>
        <time>2021-05-20T05:05:23Z</time>
      </trkpt>
      <trkpt lat="42.1101670" lon="-8.8287990">
        <ele>6.8</ele>
        <time>2021-05-20T05:05:24Z</time>
      </trkpt>
      <trkpt lat="42.1101770" lon="-8.8287810">
        <ele>6.8</ele>
        <time>2021-05-20T05:05:25Z</time>
      </trkpt>
      <trkpt lat="42.1101810" lon="-8.8287730">
        <ele>6.8</ele>
        <time>2021-05-20T05:05:26Z</time>
      </trkpt>
      <trkpt lat="42.1101850" lon="-8.8287590">
        <ele>6.9</ele>
        <time>2021-05-20T05:05:27Z</time>
      </trkpt>
      <trkpt lat="42.1101960" lon="-8.8287320">
        <ele>6.9</ele>
        <time>2021-05-20T05:05:28Z</time>
      </trkpt>
      <trkpt lat="42.1101930" lon="-8.8287210">
        <ele>6.9</ele>
        <time>2021-05-20T05:05:29Z</time>
      </trkpt>
      <trkpt lat="42.1102020" lon="-8.8287060">
        <ele>6.9</ele>
        <time>2021-05-20T05:05:30Z</time>
      </trkpt>
      <trkpt lat="42.1102100" lon="-8.8286980">
        <ele>6.9</ele>
        <time>2021-05-20T05:05:31Z</time>
      </trkpt>
      <trkpt lat="42.1102040" lon="-8.8286780">
        <ele>6.9</ele>
        <time>2021-05-20T05:05:32Z</time>
      </trkpt>
      <trkpt lat="42.1101980" lon="-8.8286410">
        <ele>6.9</ele>
        <time>2021-05-20T05:05:33Z</time>
      </trkpt>
      <trkpt lat="42.1101960" lon="-8.8286240">
        <ele>6.9</ele>
        <time>2021-05-20T05:05:34Z</time>
      </trkpt>
      <trkpt lat="42.1102000" lon="-8.8285990">
        <ele>6.9</ele>
        <time>2021-05-20T05:05:35Z</time>
      </trkpt>
      <trkpt lat="42.1101930" lon="-8.8285610">
        <ele>6.9</ele>
        <time>2021-05-20T05:05:36Z</time>
      </trkpt>
      <trkpt lat="42.1101880" lon="-8.8285510">
        <ele>6.9</ele>
        <time>2021-05-20T05:05:37Z</time>
      </trkpt>
      <trkpt lat="42.1101840" lon="-8.8285410">
        <ele>6.9</ele>
        <time>2021-05-20T05:05:38Z</time>
      </trkpt>
      <trkpt lat="42.1101860" lon="-8.8285240">
        <ele>6.9</ele>
        <time>2021-05-20T05:05:39Z</time>
      </trkpt>
      <trkpt lat="42.1101790" lon="-8.8285050">
        <ele>6.9</ele>
        <time>2021-05-20T05:05:40Z</time>
      </trkpt>
      <trkpt lat="42.1101530" lon="-8.8284840">
        <ele>6.9</ele>
        <time>2021-05-20T05:05:41Z</time>
      </trkpt>
      <trkpt lat="42.1101450" lon="-8.8284730">
        <ele>6.9</ele>
        <time>2021-05-20T05:05:42Z</time>
      </trkpt>
      <trkpt lat="42.1101320" lon="-8.8284270">
        <ele>6.9</ele>
        <time>2021-05-20T05:05:43Z</time>
      </trkpt>
      <trkpt lat="42.1101280" lon="-8.8284160">
        <ele>6.9</ele>
        <time>2021-05-20T05:05:44Z</time>
      </trkpt>
      <trkpt lat="42.1101190" lon="-8.8283930">
        <ele>6.9</ele>
        <time>2021-05-20T05:05:45Z</time>
      </trkpt>
      <trkpt lat="42.1101080" lon="-8.8283780">
        <ele>6.9</ele>
        <time>2021-05-20T05:05:46Z</time>
      </trkpt>
      <trkpt lat="42.1101010" lon="-8.8283680">
        <ele>6.9</ele>
        <time>2021-05-20T05:05:47Z</time>
      </trkpt>
      <trkpt lat="42.1100950" lon="-8.8283610">
        <ele>6.9</ele>
        <time>2021-05-20T05:05:48Z</time>
      </trkpt>
      <trkpt lat="42.1100860" lon="-8.8283460">
        <ele>6.9</ele>
        <time>2021-05-20T05:05:49Z</time>
      </trkpt>
      <trkpt lat="42.1100890" lon="-8.8283350">
        <ele>6.9</ele>
        <time>2021-05-20T05:05:50Z</time>
      </trkpt>
      <trkpt lat="42.1100920" lon="-8.8283210">
        <ele>6.9</ele>
        <time>2021-05-20T05:05:51Z</time>
      </trkpt>
      <trkpt lat="42.1100850" lon="-8.8283040">
        <ele>6.9</ele>
        <time>2021-05-20T05:05:52Z</time>
      </trkpt>
      <trkpt lat="42.1100730" lon="-8.8282870">
        <ele>6.9</ele>
        <time>2021-05-20T05:05:53Z</time>
      </trkpt>
      <trkpt lat="42.1100730" lon="-8.8282750">
        <ele>6.9</ele>
        <time>2021-05-20T05:05:54Z</time>
      </trkpt>
      <trkpt lat="42.1100710" lon="-8.8282620">
        <ele>6.9</ele>
        <time>2021-05-20T05:05:55Z</time>
      </trkpt>
      <trkpt lat="42.1100660" lon="-8.8282470">
        <ele>6.9</ele>
        <time>2021-05-20T05:05:56Z</time>
      </trkpt>
      <trkpt lat="42.1100630" lon="-8.8282340">
        <ele>6.9</ele>
        <time>2021-05-20T05:05:57Z</time>
      </trkpt>
      <trkpt lat="42.1100630" lon="-8.8282270">
        <ele>6.9</ele>
        <time>2021-05-20T05:05:58Z</time>
      </trkpt>
      <trkpt lat="42.1100580" lon="-8.8281980">
        <ele>6.9</ele>
        <time>2021-05-20T05:05:59Z</time>
      </trkpt>
      <trkpt lat="42.1100580" lon="-8.8281850">
        <ele>6.9</ele>
        <time>2021-05-20T05:06:00Z</time>
      </trkpt>
      <trkpt lat="42.1100580" lon="-8.8281730">
        <ele>6.9</ele>
        <time>2021-05-20T05:06:01Z</time>
      </trkpt>
      <trkpt lat="42.1100550" lon="-8.8281650">
        <ele>6.9</ele>
        <time>2021-05-20T05:06:02Z</time>
      </trkpt>
      <trkpt lat="42.1100480" lon="-8.8281440">
        <ele>6.9</ele>
        <time>2021-05-20T05:06:03Z</time>
      </trkpt>
      <trkpt lat="42.1100460" lon="-8.8281280">
        <ele>6.9</ele>
        <time>2021-05-20T05:06:04Z</time>
      </trkpt>
      <trkpt lat="42.1100390" lon="-8.8280970">
        <ele>7.0</ele>
        <time>2021-05-20T05:06:05Z</time>
      </trkpt>
      <trkpt lat="42.1100350" lon="-8.8280850">
        <ele>7.0</ele>
        <time>2021-05-20T05:06:06Z</time>
      </trkpt>
      <trkpt lat="42.1100300" lon="-8.8280740">
        <ele>7.0</ele>
        <time>2021-05-20T05:06:07Z</time>
      </trkpt>
      <trkpt lat="42.1100270" lon="-8.8280550">
        <ele>7.0</ele>
        <time>2021-05-20T05:06:08Z</time>
      </trkpt>
      <trkpt lat="42.1100210" lon="-8.8280280">
        <ele>7.0</ele>
        <time>2021-05-20T05:06:09Z</time>
      </trkpt>
      <trkpt lat="42.1100170" lon="-8.8280130">
        <ele>7.0</ele>
        <time>2021-05-20T05:06:10Z</time>
      </trkpt>
      <trkpt lat="42.1100190" lon="-8.8279840">
        <ele>7.0</ele>
        <time>2021-05-20T05:06:11Z</time>
      </trkpt>
      <trkpt lat="42.1100230" lon="-8.8279590">
        <ele>7.0</ele>
        <time>2021-05-20T05:06:12Z</time>
      </trkpt>
      <trkpt lat="42.1100300" lon="-8.8279400">
        <ele>7.0</ele>
        <time>2021-05-20T05:06:13Z</time>
      </trkpt>
      <trkpt lat="42.1100270" lon="-8.8279290">
        <ele>7.0</ele>
        <time>2021-05-20T05:06:14Z</time>
      </trkpt>
      <trkpt lat="42.1100310" lon="-8.8279280">
        <ele>7.0</ele>
        <time>2021-05-20T05:06:15Z</time>
      </trkpt>
      <trkpt lat="42.1100320" lon="-8.8279050">
        <ele>7.0</ele>
        <time>2021-05-20T05:06:16Z</time>
      </trkpt>
      <trkpt lat="42.1100350" lon="-8.8278940">
        <ele>7.0</ele>
        <time>2021-05-20T05:06:17Z</time>
      </trkpt>
      <trkpt lat="42.1100410" lon="-8.8278780">
        <ele>7.0</ele>
        <time>2021-05-20T05:06:18Z</time>
      </trkpt>
      <trkpt lat="42.1100420" lon="-8.8278560">
        <ele>7.0</ele>
        <time>2021-05-20T05:06:19Z</time>
      </trkpt>
      <trkpt lat="42.1100510" lon="-8.8278310">
        <ele>7.0</ele>
        <time>2021-05-20T05:06:20Z</time>
      </trkpt>
      <trkpt lat="42.1100520" lon="-8.8278190">
        <ele>7.0</ele>
        <time>2021-05-20T05:06:21Z</time>
      </trkpt>
      <trkpt lat="42.1100540" lon="-8.8278060">
        <ele>7.0</ele>
        <time>2021-05-20T05:06:22Z</time>
      </trkpt>
      <trkpt lat="42.1100540" lon="-8.8277810">
        <ele>7.0</ele>
        <time>2021-05-20T05:06:23Z</time>
      </trkpt>
      <trkpt lat="42.1100550" lon="-8.8277690">
        <ele>7.0</ele>
        <time>2021-05-20T05:06:24Z</time>
      </trkpt>
      <trkpt lat="42.1100570" lon="-8.8277450">
        <ele>7.0</ele>
        <time>2021-05-20T05:06:25Z</time>
      </trkpt>
      <trkpt lat="42.1100610" lon="-8.8277330">
        <ele>7.0</ele>
        <time>2021-05-20T05:06:26Z</time>
      </trkpt>
      <trkpt lat="42.1100640" lon="-8.8277070">
        <ele>7.0</ele>
        <time>2021-05-20T05:06:27Z</time>
      </trkpt>
      <trkpt lat="42.1100620" lon="-8.8276950">
        <ele>7.0</ele>
        <time>2021-05-20T05:06:28Z</time>
      </trkpt>
      <trkpt lat="42.1100610" lon="-8.8276820">
        <ele>7.0</ele>
        <time>2021-05-20T05:06:29Z</time>
      </trkpt>
      <trkpt lat="42.1100570" lon="-8.8276680">
        <ele>7.0</ele>
        <time>2021-05-20T05:06:30Z</time>
      </trkpt>
      <trkpt lat="42.1100660" lon="-8.8276520">
        <ele>7.0</ele>
        <time>2021-05-20T05:06:31Z</time>
      </trkpt>
      <trkpt lat="42.1100620" lon="-8.8276380">
        <ele>7.0</ele>
        <time>2021-05-20T05:06:32Z</time>
      </trkpt>
      <trkpt lat="42.1100720" lon="-8.8276100">
        <ele>7.0</ele>
        <time>2021-05-20T05:06:33Z</time>
      </trkpt>
      <trkpt lat="42.1100740" lon="-8.8275970">
        <ele>7.0</ele>
        <time>2021-05-20T05:06:34Z</time>
      </trkpt>
      <trkpt lat="42.1100760" lon="-8.8275830">
        <ele>7.0</ele>
        <time>2021-05-20T05:06:35Z</time>
      </trkpt>
      <trkpt lat="42.1100790" lon="-8.8275600">
        <ele>7.0</ele>
        <time>2021-05-20T05:06:36Z</time>
      </trkpt>
      <trkpt lat="42.1100790" lon="-8.8275470">
        <ele>7.0</ele>
        <time>2021-05-20T05:06:37Z</time>
      </trkpt>
      <trkpt lat="42.1100820" lon="-8.8275410">
        <ele>7.0</ele>
        <time>2021-05-20T05:06:38Z</time>
      </trkpt>
      <trkpt lat="42.1100730" lon="-8.8275320">
        <ele>7.0</ele>
        <time>2021-05-20T05:06:39Z</time>
      </trkpt>
      <trkpt lat="42.1100770" lon="-8.8275150">
        <ele>7.0</ele>
        <time>2021-05-20T05:06:40Z</time>
      </trkpt>
      <trkpt lat="42.1100780" lon="-8.8275010">
        <ele>7.0</ele>
        <time>2021-05-20T05:06:41Z</time>
      </trkpt>
      <trkpt lat="42.1100820" lon="-8.8274880">
        <ele>7.0</ele>
        <time>2021-05-20T05:06:42Z</time>
      </trkpt>
      <trkpt lat="42.1100850" lon="-8.8274780">
        <ele>7.0</ele>
        <time>2021-05-20T05:06:43Z</time>
      </trkpt>
      <trkpt lat="42.1100900" lon="-8.8274640">
        <ele>7.0</ele>
        <time>2021-05-20T05:06:44Z</time>
      </trkpt>
      <trkpt lat="42.1100910" lon="-8.8274370">
        <ele>7.0</ele>
        <time>2021-05-20T05:06:45Z</time>
      </trkpt>
      <trkpt lat="42.1100960" lon="-8.8274180">
        <ele>7.0</ele>
        <time>2021-05-20T05:06:46Z</time>
      </trkpt>
      <trkpt lat="42.1100840" lon="-8.8273990">
        <ele>7.0</ele>
        <time>2021-05-20T05:06:47Z</time>
      </trkpt>
      <trkpt lat="42.1100810" lon="-8.8273870">
        <ele>7.0</ele>
        <time>2021-05-20T05:06:48Z</time>
      </trkpt>
      <trkpt lat="42.1100790" lon="-8.8273740">
        <ele>7.0</ele>
        <time>2021-05-20T05:06:49Z</time>
      </trkpt>
      <trkpt lat="42.1100830" lon="-8.8273500">
        <ele>7.0</ele>
        <time>2021-05-20T05:06:50Z</time>
      </trkpt>
      <trkpt lat="42.1100820" lon="-8.8273390">
        <ele>7.0</ele>
        <time>2021-05-20T05:06:51Z</time>
      </trkpt>
      <trkpt lat="42.1100810" lon="-8.8273290">
        <ele>7.0</ele>
        <time>2021-05-20T05:06:52Z</time>
      </trkpt>
      <trkpt lat="42.1100800" lon="-8.8273180">
        <ele>7.0</ele>
        <time>2021-05-20T05:06:53Z</time>
      </trkpt>
      <trkpt lat="42.1100820" lon="-8.8272980">
        <ele>7.0</ele>
        <time>2021-05-20T05:06:54Z</time>
      </trkpt>
      <trkpt lat="42.1100790" lon="-8.8272770">
        <ele>7.0</ele>
        <time>2021-05-20T05:06:55Z</time>
      </trkpt>
      <trkpt lat="42.1100820" lon="-8.8272480">
        <ele>7.0</ele>
        <time>2021-05-20T05:06:56Z</time>
      </trkpt>
      <trkpt lat="42.1100850" lon="-8.8272300">
        <ele>7.0</ele>
        <time>2021-05-20T05:06:57Z</time>
      </trkpt>
      <trkpt lat="42.1100870" lon="-8.8272130">
        <ele>7.0</ele>
        <time>2021-05-20T05:06:58Z</time>
      </trkpt>
      <trkpt lat="42.1100900" lon="-8.8271980">
        <ele>7.0</ele>
        <time>2021-05-20T05:06:59Z</time>
      </trkpt>
      <trkpt lat="42.1101010" lon="-8.8271800">
        <ele>7.0</ele>
        <time>2021-05-20T05:07:00Z</time>
      </trkpt>
      <trkpt lat="42.1101070" lon="-8.8271550">
        <ele>7.0</ele>
        <time>2021-05-20T05:07:01Z</time>
      </trkpt>
      <trkpt lat="42.1101130" lon="-8.8271470">
        <ele>6.9</ele>
        <time>2021-05-20T05:07:02Z</time>
      </trkpt>
      <trkpt lat="42.1101090" lon="-8.8271190">
        <ele>6.9</ele>
        <time>2021-05-20T05:07:03Z</time>
      </trkpt>
      <trkpt lat="42.1101160" lon="-8.8270990">
        <ele>6.9</ele>
        <time>2021-05-20T05:07:04Z</time>
      </trkpt>
      <trkpt lat="42.1101140" lon="-8.8270810">
        <ele>6.9</ele>
        <time>2021-05-20T05:07:05Z</time>
      </trkpt>
      <trkpt lat="42.1101170" lon="-8.8270550">
        <ele>6.9</ele>
        <time>2021-05-20T05:07:06Z</time>
      </trkpt>
      <trkpt lat="42.1101130" lon="-8.8270130">
        <ele>6.9</ele>
        <time>2021-05-20T05:07:07Z</time>
      </trkpt>
      <trkpt lat="42.1101110" lon="-8.8270010">
        <ele>6.9</ele>
        <time>2021-05-20T05:07:08Z</time>
      </trkpt>
      <trkpt lat="42.1101010" lon="-8.8269750">
        <ele>6.8</ele>
        <time>2021-05-20T05:07:09Z</time>
      </trkpt>
      <trkpt lat="42.1100990" lon="-8.8269620">
        <ele>6.8</ele>
        <time>2021-05-20T05:07:10Z</time>
      </trkpt>
      <trkpt lat="42.1100980" lon="-8.8269480">
        <ele>6.8</ele>
        <time>2021-05-20T05:07:11Z</time>
      </trkpt>
      <trkpt lat="42.1100990" lon="-8.8269300">
        <ele>6.8</ele>
        <time>2021-05-20T05:07:12Z</time>
      </trkpt>
      <trkpt lat="42.1100970" lon="-8.8269090">
        <ele>6.8</ele>
        <time>2021-05-20T05:07:13Z</time>
      </trkpt>
      <trkpt lat="42.1100940" lon="-8.8268780">
        <ele>6.8</ele>
        <time>2021-05-20T05:07:14Z</time>
      </trkpt>
      <trkpt lat="42.1100910" lon="-8.8268680">
        <ele>6.8</ele>
        <time>2021-05-20T05:07:15Z</time>
      </trkpt>
      <trkpt lat="42.1100890" lon="-8.8268580">
        <ele>6.8</ele>
        <time>2021-05-20T05:07:16Z</time>
      </trkpt>
      <trkpt lat="42.1100870" lon="-8.8268420">
        <ele>6.8</ele>
        <time>2021-05-20T05:07:17Z</time>
      </trkpt>
      <trkpt lat="42.1100810" lon="-8.8268230">
        <ele>6.7</ele>
        <time>2021-05-20T05:07:18Z</time>
      </trkpt>
      <trkpt lat="42.1100760" lon="-8.8267980">
        <ele>6.7</ele>
        <time>2021-05-20T05:07:19Z</time>
      </trkpt>
      <trkpt lat="42.1100800" lon="-8.8267790">
        <ele>6.7</ele>
        <time>2021-05-20T05:07:20Z</time>
      </trkpt>
      <trkpt lat="42.1100790" lon="-8.8267560">
        <ele>6.7</ele>
        <time>2021-05-20T05:07:21Z</time>
      </trkpt>
      <trkpt lat="42.1100810" lon="-8.8267310">
        <ele>6.7</ele>
        <time>2021-05-20T05:07:22Z</time>
      </trkpt>
      <trkpt lat="42.1100750" lon="-8.8267110">
        <ele>6.7</ele>
        <time>2021-05-20T05:07:23Z</time>
      </trkpt>
      <trkpt lat="42.1100700" lon="-8.8266860">
        <ele>6.7</ele>
        <time>2021-05-20T05:07:24Z</time>
      </trkpt>
      <trkpt lat="42.1100710" lon="-8.8266610">
        <ele>6.7</ele>
        <time>2021-05-20T05:07:25Z</time>
      </trkpt>
      <trkpt lat="42.1100680" lon="-8.8266390">
        <ele>6.7</ele>
        <time>2021-05-20T05:07:26Z</time>
      </trkpt>
      <trkpt lat="42.1100740" lon="-8.8266150">
        <ele>6.7</ele>
        <time>2021-05-20T05:07:27Z</time>
      </trkpt>
      <trkpt lat="42.1100720" lon="-8.8266020">
        <ele>6.7</ele>
        <time>2021-05-20T05:07:28Z</time>
      </trkpt>
      <trkpt lat="42.1100670" lon="-8.8265910">
        <ele>6.7</ele>
        <time>2021-05-20T05:07:29Z</time>
      </trkpt>
      <trkpt lat="42.1100680" lon="-8.8265660">
        <ele>6.7</ele>
        <time>2021-05-20T05:07:30Z</time>
      </trkpt>
      <trkpt lat="42.1100720" lon="-8.8265380">
        <ele>6.7</ele>
        <time>2021-05-20T05:07:31Z</time>
      </trkpt>
      <trkpt lat="42.1100780" lon="-8.8265270">
        <ele>6.7</ele>
        <time>2021-05-20T05:07:32Z</time>
      </trkpt>
      <trkpt lat="42.1100830" lon="-8.8265160">
        <ele>6.6</ele>
        <time>2021-05-20T05:07:33Z</time>
      </trkpt>
      <trkpt lat="42.1100870" lon="-8.8264960">
        <ele>6.6</ele>
        <time>2021-05-20T05:07:34Z</time>
      </trkpt>
      <trkpt lat="42.1100860" lon="-8.8264760">
        <ele>6.6</ele>
        <time>2021-05-20T05:07:35Z</time>
      </trkpt>
      <trkpt lat="42.1101000" lon="-8.8264550">
        <ele>6.6</ele>
        <time>2021-05-20T05:07:36Z</time>
      </trkpt>
      <trkpt lat="42.1101050" lon="-8.8264430">
        <ele>6.6</ele>
        <time>2021-05-20T05:07:37Z</time>
      </trkpt>
      <trkpt lat="42.1101100" lon="-8.8264320">
        <ele>6.6</ele>
        <time>2021-05-20T05:07:38Z</time>
      </trkpt>
      <trkpt lat="42.1101110" lon="-8.8264030">
        <ele>6.5</ele>
        <time>2021-05-20T05:07:39Z</time>
      </trkpt>
      <trkpt lat="42.1101120" lon="-8.8263930">
        <ele>6.5</ele>
        <time>2021-05-20T05:07:40Z</time>
      </trkpt>
      <trkpt lat="42.1101110" lon="-8.8263790">
        <ele>6.5</ele>
        <time>2021-05-20T05:07:41Z</time>
      </trkpt>
      <trkpt lat="42.1101120" lon="-8.8263590">
        <ele>6.5</ele>
        <time>2021-05-20T05:07:42Z</time>
      </trkpt>
      <trkpt lat="42.1101230" lon="-8.8263490">
        <ele>6.5</ele>
        <time>2021-05-20T05:07:43Z</time>
      </trkpt>
      <trkpt lat="42.1101320" lon="-8.8263270">
        <ele>6.4</ele>
        <time>2021-05-20T05:07:44Z</time>
      </trkpt>
      <trkpt lat="42.1101340" lon="-8.8263080">
        <ele>6.4</ele>
        <time>2021-05-20T05:07:45Z</time>
      </trkpt>
      <trkpt lat="42.1101440" lon="-8.8262870">
        <ele>6.4</ele>
        <time>2021-05-20T05:07:46Z</time>
      </trkpt>
      <trkpt lat="42.1101510" lon="-8.8262780">
        <ele>6.4</ele>
        <time>2021-05-20T05:07:47Z</time>
      </trkpt>
      <trkpt lat="42.1101560" lon="-8.8262710">
        <ele>6.4</ele>
        <time>2021-05-20T05:07:48Z</time>
      </trkpt>
      <trkpt lat="42.1101680" lon="-8.8262650">
        <ele>6.4</ele>
        <time>2021-05-20T05:07:49Z</time>
      </trkpt>
      <trkpt lat="42.1101790" lon="-8.8262530">
        <ele>6.2</ele>
        <time>2021-05-20T05:07:50Z</time>
      </trkpt>
      <trkpt lat="42.1102000" lon="-8.8262300">
        <ele>6.2</ele>
        <time>2021-05-20T05:07:51Z</time>
      </trkpt>
      <trkpt lat="42.1102080" lon="-8.8262200">
        <ele>6.2</ele>
        <time>2021-05-20T05:07:52Z</time>
      </trkpt>
      <trkpt lat="42.1102150" lon="-8.8262110">
        <ele>6.2</ele>
        <time>2021-05-20T05:07:53Z</time>
      </trkpt>
      <trkpt lat="42.1102190" lon="-8.8261910">
        <ele>6.2</ele>
        <time>2021-05-20T05:07:54Z</time>
      </trkpt>
      <trkpt lat="42.1102220" lon="-8.8261720">
        <ele>6.2</ele>
        <time>2021-05-20T05:07:55Z</time>
      </trkpt>
      <trkpt lat="42.1102270" lon="-8.8261670">
        <ele>6.2</ele>
        <time>2021-05-20T05:07:56Z</time>
      </trkpt>
      <trkpt lat="42.1102330" lon="-8.8261570">
        <ele>6.2</ele>
        <time>2021-05-20T05:07:57Z</time>
      </trkpt>
      <trkpt lat="42.1102400" lon="-8.8261410">
        <ele>6.2</ele>
        <time>2021-05-20T05:07:58Z</time>
      </trkpt>
      <trkpt lat="42.1102430" lon="-8.8261360">
        <ele>6.2</ele>
        <time>2021-05-20T05:07:59Z</time>
      </trkpt>
      <trkpt lat="42.1102480" lon="-8.8261170">
        <ele>6.2</ele>
        <time>2021-05-20T05:08:00Z</time>
      </trkpt>
      <trkpt lat="42.1102540" lon="-8.8260960">
        <ele>6.1</ele>
        <time>2021-05-20T05:08:01Z</time>
      </trkpt>
      <trkpt lat="42.1102580" lon="-8.8260780">
        <ele>6.1</ele>
        <time>2021-05-20T05:08:02Z</time>
      </trkpt>
      <trkpt lat="42.1102640" lon="-8.8260580">
        <ele>6.1</ele>
        <time>2021-05-20T05:08:03Z</time>
      </trkpt>
      <trkpt lat="42.1102730" lon="-8.8260380">
        <ele>6.1</ele>
        <time>2021-05-20T05:08:04Z</time>
      </trkpt>
      <trkpt lat="42.1102790" lon="-8.8260230">
        <ele>6.1</ele>
        <time>2021-05-20T05:08:05Z</time>
      </trkpt>
      <trkpt lat="42.1102850" lon="-8.8260080">
        <ele>6.1</ele>
        <time>2021-05-20T05:08:06Z</time>
      </trkpt>
      <trkpt lat="42.1102870" lon="-8.8259880">
        <ele>6.1</ele>
        <time>2021-05-20T05:08:07Z</time>
      </trkpt>
      <trkpt lat="42.1102920" lon="-8.8259620">
        <ele>6.0</ele>
        <time>2021-05-20T05:08:08Z</time>
      </trkpt>
      <trkpt lat="42.1102940" lon="-8.8259490">
        <ele>6.0</ele>
        <time>2021-05-20T05:08:09Z</time>
      </trkpt>
      <trkpt lat="42.1102970" lon="-8.8259210">
        <ele>5.9</ele>
        <time>2021-05-20T05:08:10Z</time>
      </trkpt>
      <trkpt lat="42.1103030" lon="-8.8259090">
        <ele>5.8</ele>
        <time>2021-05-20T05:08:11Z</time>
      </trkpt>
      <trkpt lat="42.1103040" lon="-8.8258800">
        <ele>5.6</ele>
        <time>2021-05-20T05:08:12Z</time>
      </trkpt>
      <trkpt lat="42.1103100" lon="-8.8258700">
        <ele>5.5</ele>
        <time>2021-05-20T05:08:13Z</time>
      </trkpt>
      <trkpt lat="42.1103100" lon="-8.8258600">
        <ele>5.5</ele>
        <time>2021-05-20T05:08:14Z</time>
      </trkpt>
      <trkpt lat="42.1103040" lon="-8.8258410">
        <ele>5.4</ele>
        <time>2021-05-20T05:08:15Z</time>
      </trkpt>
      <trkpt lat="42.1103080" lon="-8.8258270">
        <ele>5.3</ele>
        <time>2021-05-20T05:08:16Z</time>
      </trkpt>
      <trkpt lat="42.1103080" lon="-8.8258170">
        <ele>5.3</ele>
        <time>2021-05-20T05:08:17Z</time>
      </trkpt>
      <trkpt lat="42.1103090" lon="-8.8258110">
        <ele>5.2</ele>
        <time>2021-05-20T05:08:18Z</time>
      </trkpt>
      <trkpt lat="42.1103090" lon="-8.8258080">
        <ele>5.2</ele>
        <time>2021-05-20T05:08:19Z</time>
      </trkpt>
      <trkpt lat="42.1103020" lon="-8.8257810">
        <ele>5.2</ele>
        <time>2021-05-20T05:08:20Z</time>
      </trkpt>
      <trkpt lat="42.1103040" lon="-8.8257600">
        <ele>5.2</ele>
        <time>2021-05-20T05:08:21Z</time>
      </trkpt>
      <trkpt lat="42.1103060" lon="-8.8257510">
        <ele>5.2</ele>
        <time>2021-05-20T05:08:22Z</time>
      </trkpt>
      <trkpt lat="42.1103070" lon="-8.8257430">
        <ele>5.1</ele>
        <time>2021-05-20T05:08:23Z</time>
      </trkpt>
      <trkpt lat="42.1103090" lon="-8.8257340">
        <ele>5.1</ele>
        <time>2021-05-20T05:08:24Z</time>
      </trkpt>
      <trkpt lat="42.1103100" lon="-8.8257260">
        <ele>5.1</ele>
        <time>2021-05-20T05:08:25Z</time>
      </trkpt>
      <trkpt lat="42.1103060" lon="-8.8256980">
        <ele>5.1</ele>
        <time>2021-05-20T05:08:26Z</time>
      </trkpt>
      <trkpt lat="42.1103010" lon="-8.8256920">
        <ele>5.1</ele>
        <time>2021-05-20T05:08:27Z</time>
      </trkpt>
      <trkpt lat="42.1102990" lon="-8.8256700">
        <ele>5.0</ele>
        <time>2021-05-20T05:08:28Z</time>
      </trkpt>
      <trkpt lat="42.1103000" lon="-8.8256490">
        <ele>5.0</ele>
        <time>2021-05-20T05:08:29Z</time>
      </trkpt>
      <trkpt lat="42.1102930" lon="-8.8256200">
        <ele>5.0</ele>
        <time>2021-05-20T05:08:30Z</time>
      </trkpt>
      <trkpt lat="42.1102890" lon="-8.8256100">
        <ele>5.3</ele>
        <time>2021-05-20T05:08:31Z</time>
      </trkpt>
      <trkpt lat="42.1102850" lon="-8.8255990">
        <ele>5.3</ele>
        <time>2021-05-20T05:08:32Z</time>
      </trkpt>
      <trkpt lat="42.1102820" lon="-8.8255880">
        <ele>5.3</ele>
        <time>2021-05-20T05:08:33Z</time>
      </trkpt>
      <trkpt lat="42.1102760" lon="-8.8255650">
        <ele>5.4</ele>
        <time>2021-05-20T05:08:34Z</time>
      </trkpt>
      <trkpt lat="42.1102690" lon="-8.8255560">
        <ele>5.4</ele>
        <time>2021-05-20T05:08:35Z</time>
      </trkpt>
      <trkpt lat="42.1102670" lon="-8.8255530">
        <ele>5.4</ele>
        <time>2021-05-20T05:08:36Z</time>
      </trkpt>
      <trkpt lat="42.1102640" lon="-8.8255420">
        <ele>5.4</ele>
        <time>2021-05-20T05:08:37Z</time>
      </trkpt>
      <trkpt lat="42.1102620" lon="-8.8255300">
        <ele>5.4</ele>
        <time>2021-05-20T05:08:38Z</time>
      </trkpt>
      <trkpt lat="42.1102560" lon="-8.8255220">
        <ele>5.4</ele>
        <time>2021-05-20T05:08:39Z</time>
      </trkpt>
      <trkpt lat="42.1102520" lon="-8.8255050">
        <ele>5.5</ele>
        <time>2021-05-20T05:08:40Z</time>
      </trkpt>
      <trkpt lat="42.1102510" lon="-8.8255050">
        <ele>5.5</ele>
        <time>2021-05-20T05:08:41Z</time>
      </trkpt>
      <trkpt lat="42.1102520" lon="-8.8255110">
        <ele>5.5</ele>
        <time>2021-05-20T05:08:42Z</time>
      </trkpt>
      <trkpt lat="42.1102460" lon="-8.8255040">
        <ele>5.5</ele>
        <time>2021-05-20T05:08:43Z</time>
      </trkpt>
      <trkpt lat="42.1102450" lon="-8.8254970">
        <ele>5.5</ele>
        <time>2021-05-20T05:08:44Z</time>
      </trkpt>
      <trkpt lat="42.1102420" lon="-8.8254920">
        <ele>5.5</ele>
        <time>2021-05-20T05:08:45Z</time>
      </trkpt>
      <trkpt lat="42.1102440" lon="-8.8254880">
        <ele>5.5</ele>
        <time>2021-05-20T05:08:46Z</time>
      </trkpt>
      <trkpt lat="42.1102460" lon="-8.8254870">
        <ele>5.5</ele>
        <time>2021-05-20T05:08:47Z</time>
      </trkpt>
      <trkpt lat="42.1102440" lon="-8.8254860">
        <ele>5.5</ele>
        <time>2021-05-20T05:08:48Z</time>
      </trkpt>
      <trkpt lat="42.1102450" lon="-8.8254830">
        <ele>5.5</ele>
        <time>2021-05-20T05:08:49Z</time>
      </trkpt>
      <trkpt lat="42.1102440" lon="-8.8254830">
        <ele>5.5</ele>
        <time>2021-05-20T05:08:50Z</time>
      </trkpt>
      <trkpt lat="42.1102430" lon="-8.8254820">
        <ele>5.5</ele>
        <time>2021-05-20T05:08:51Z</time>
      </trkpt>
      <trkpt lat="42.1102430" lon="-8.8254790">
        <ele>5.5</ele>
        <time>2021-05-20T05:08:52Z</time>
      </trkpt>
      <trkpt lat="42.1102440" lon="-8.8254790">
        <ele>5.5</ele>
        <time>2021-05-20T05:08:53Z</time>
      </trkpt>
      <trkpt lat="42.1102470" lon="-8.8254790">
        <ele>5.6</ele>
        <time>2021-05-20T05:08:54Z</time>
      </trkpt>
      <trkpt lat="42.1102460" lon="-8.8254780">
        <ele>5.6</ele>
        <time>2021-05-20T05:08:55Z</time>
      </trkpt>
      <trkpt lat="42.1102480" lon="-8.8254830">
        <ele>5.6</ele>
        <time>2021-05-20T05:08:56Z</time>
      </trkpt>
      <trkpt lat="42.1102450" lon="-8.8254860">
        <ele>5.6</ele>
        <time>2021-05-20T05:08:57Z</time>
      </trkpt>
      <trkpt lat="42.1102430" lon="-8.8254860">
        <ele>5.6</ele>
        <time>2021-05-20T05:08:58Z</time>
      </trkpt>
      <trkpt lat="42.1102380" lon="-8.8254870">
        <ele>5.6</ele>
        <time>2021-05-20T05:08:59Z</time>
      </trkpt>
      <trkpt lat="42.1102350" lon="-8.8254830">
        <ele>5.6</ele>
        <time>2021-05-20T05:09:00Z</time>
      </trkpt>
      <trkpt lat="42.1102330" lon="-8.8254830">
        <ele>5.6</ele>
        <time>2021-05-20T05:09:01Z</time>
      </trkpt>
      <trkpt lat="42.1102290" lon="-8.8254840">
        <ele>5.6</ele>
        <time>2021-05-20T05:09:02Z</time>
      </trkpt>
      <trkpt lat="42.1102250" lon="-8.8254830">
        <ele>5.6</ele>
        <time>2021-05-20T05:09:03Z</time>
      </trkpt>
      <trkpt lat="42.1102210" lon="-8.8254830">
        <ele>5.6</ele>
        <time>2021-05-20T05:09:04Z</time>
      </trkpt>
      <trkpt lat="42.1102210" lon="-8.8254840">
        <ele>5.6</ele>
        <time>2021-05-20T05:09:05Z</time>
      </trkpt>
      <trkpt lat="42.1102180" lon="-8.8254830">
        <ele>5.6</ele>
        <time>2021-05-20T05:09:06Z</time>
      </trkpt>
      <trkpt lat="42.1102190" lon="-8.8254830">
        <ele>5.6</ele>
        <time>2021-05-20T05:09:07Z</time>
      </trkpt>
      <trkpt lat="42.1102210" lon="-8.8254840">
        <ele>5.6</ele>
        <time>2021-05-20T05:09:08Z</time>
      </trkpt>
      <trkpt lat="42.1102210" lon="-8.8254850">
        <ele>5.6</ele>
        <time>2021-05-20T05:09:09Z</time>
      </trkpt>
      <trkpt lat="42.1102230" lon="-8.8254810">
        <ele>5.6</ele>
        <time>2021-05-20T05:09:10Z</time>
      </trkpt>
      <trkpt lat="42.1102230" lon="-8.8254810">
        <ele>5.6</ele>
        <time>2021-05-20T05:09:11Z</time>
      </trkpt>
      <trkpt lat="42.1102230" lon="-8.8254800">
        <ele>5.6</ele>
        <time>2021-05-20T05:09:12Z</time>
      </trkpt>
      <trkpt lat="42.1102240" lon="-8.8254790">
        <ele>5.6</ele>
        <time>2021-05-20T05:09:13Z</time>
      </trkpt>
      <trkpt lat="42.1102220" lon="-8.8254780">
        <ele>5.6</ele>
        <time>2021-05-20T05:09:14Z</time>
      </trkpt>
      <trkpt lat="42.1102220" lon="-8.8254770">
        <ele>5.6</ele>
        <time>2021-05-20T05:09:15Z</time>
      </trkpt>
      <trkpt lat="42.1102220" lon="-8.8254860">
        <ele>5.7</ele>
        <time>2021-05-20T05:09:16Z</time>
      </trkpt>
      <trkpt lat="42.1102240" lon="-8.8254780">
        <ele>5.7</ele>
        <time>2021-05-20T05:09:17Z</time>
      </trkpt>
      <trkpt lat="42.1102320" lon="-8.8254930">
        <ele>5.7</ele>
        <time>2021-05-20T05:09:18Z</time>
      </trkpt>
      <trkpt lat="42.1102370" lon="-8.8255020">
        <ele>5.7</ele>
        <time>2021-05-20T05:09:19Z</time>
      </trkpt>
      <trkpt lat="42.1102420" lon="-8.8255120">
        <ele>5.7</ele>
        <time>2021-05-20T05:09:20Z</time>
      </trkpt>
      <trkpt lat="42.1102520" lon="-8.8255400">
        <ele>5.8</ele>
        <time>2021-05-20T05:09:21Z</time>
      </trkpt>
      <trkpt lat="42.1102630" lon="-8.8255520">
        <ele>5.8</ele>
        <time>2021-05-20T05:09:22Z</time>
      </trkpt>
      <trkpt lat="42.1102710" lon="-8.8255700">
        <ele>5.8</ele>
        <time>2021-05-20T05:09:23Z</time>
      </trkpt>
      <trkpt lat="42.1102790" lon="-8.8255890">
        <ele>5.9</ele>
        <time>2021-05-20T05:09:24Z</time>
      </trkpt>
      <trkpt lat="42.1102920" lon="-8.8256010">
        <ele>5.9</ele>
        <time>2021-05-20T05:09:25Z</time>
      </trkpt>
      <trkpt lat="42.1103020" lon="-8.8256140">
        <ele>5.9</ele>
        <time>2021-05-20T05:09:26Z</time>
      </trkpt>
      <trkpt lat="42.1103190" lon="-8.8256220">
        <ele>5.9</ele>
        <time>2021-05-20T05:09:27Z</time>
      </trkpt>
      <trkpt lat="42.1103360" lon="-8.8256250">
        <ele>6.0</ele>
        <time>2021-05-20T05:09:28Z</time>
      </trkpt>
      <trkpt lat="42.1103520" lon="-8.8256390">
        <ele>6.0</ele>
        <time>2021-05-20T05:09:29Z</time>
      </trkpt>
      <trkpt lat="42.1103600" lon="-8.8256400">
        <ele>6.0</ele>
        <time>2021-05-20T05:09:30Z</time>
      </trkpt>
      <trkpt lat="42.1103700" lon="-8.8256370">
        <ele>6.0</ele>
        <time>2021-05-20T05:09:31Z</time>
      </trkpt>
      <trkpt lat="42.1103800" lon="-8.8256390">
        <ele>6.1</ele>
        <time>2021-05-20T05:09:32Z</time>
      </trkpt>
      <trkpt lat="42.1103790" lon="-8.8256290">
        <ele>6.1</ele>
        <time>2021-05-20T05:09:33Z</time>
      </trkpt>
      <trkpt lat="42.1103820" lon="-8.8256310">
        <ele>6.1</ele>
        <time>2021-05-20T05:09:34Z</time>
      </trkpt>
      <trkpt lat="42.1103820" lon="-8.8256190">
        <ele>6.1</ele>
        <time>2021-05-20T05:09:35Z</time>
      </trkpt>
      <trkpt lat="42.1103940" lon="-8.8256080">
        <ele>6.1</ele>
        <time>2021-05-20T05:09:36Z</time>
      </trkpt>
      <trkpt lat="42.1104010" lon="-8.8256160">
        <ele>6.1</ele>
        <time>2021-05-20T05:09:37Z</time>
      </trkpt>
      <trkpt lat="42.1104100" lon="-8.8256240">
        <ele>6.2</ele>
        <time>2021-05-20T05:09:38Z</time>
      </trkpt>
      <trkpt lat="42.1104190" lon="-8.8256280">
        <ele>6.2</ele>
        <time>2021-05-20T05:09:39Z</time>
      </trkpt>
      <trkpt lat="42.1104260" lon="-8.8256210">
        <ele>6.2</ele>
        <time>2021-05-20T05:09:40Z</time>
      </trkpt>
      <trkpt lat="42.1104390" lon="-8.8256180">
        <ele>6.2</ele>
        <time>2021-05-20T05:09:41Z</time>
      </trkpt>
      <trkpt lat="42.1104450" lon="-8.8256190">
        <ele>6.2</ele>
        <time>2021-05-20T05:09:42Z</time>
      </trkpt>
      <trkpt lat="42.1104590" lon="-8.8256150">
        <ele>6.2</ele>
        <time>2021-05-20T05:09:43Z</time>
      </trkpt>
      <trkpt lat="42.1104670" lon="-8.8256140">
        <ele>6.2</ele>
        <time>2021-05-20T05:09:44Z</time>
      </trkpt>
      <trkpt lat="42.1104700" lon="-8.8256110">
        <ele>6.2</ele>
        <time>2021-05-20T05:09:45Z</time>
      </trkpt>
      <trkpt lat="42.1104760" lon="-8.8256120">
        <ele>6.2</ele>
        <time>2021-05-20T05:09:46Z</time>
      </trkpt>
      <trkpt lat="42.1104960" lon="-8.8255990">
        <ele>6.2</ele>
        <time>2021-05-20T05:09:47Z</time>
      </trkpt>
      <trkpt lat="42.1105050" lon="-8.8255930">
        <ele>6.2</ele>
        <time>2021-05-20T05:09:48Z</time>
      </trkpt>
      <trkpt lat="42.1105140" lon="-8.8255880">
        <ele>6.2</ele>
        <time>2021-05-20T05:09:49Z</time>
      </trkpt>
      <trkpt lat="42.1105290" lon="-8.8255900">
        <ele>6.2</ele>
        <time>2021-05-20T05:09:50Z</time>
      </trkpt>
      <trkpt lat="42.1105400" lon="-8.8255840">
        <ele>6.2</ele>
        <time>2021-05-20T05:09:51Z</time>
      </trkpt>
      <trkpt lat="42.1105500" lon="-8.8255800">
        <ele>6.2</ele>
        <time>2021-05-20T05:09:52Z</time>
      </trkpt>
      <trkpt lat="42.1105690" lon="-8.8255720">
        <ele>6.2</ele>
        <time>2021-05-20T05:09:53Z</time>
      </trkpt>
      <trkpt lat="42.1105770" lon="-8.8255650">
        <ele>6.2</ele>
        <time>2021-05-20T05:09:54Z</time>
      </trkpt>
      <trkpt lat="42.1105850" lon="-8.8255590">
        <ele>6.2</ele>
        <time>2021-05-20T05:09:55Z</time>
      </trkpt>
      <trkpt lat="42.1105930" lon="-8.8255500">
        <ele>6.2</ele>
        <time>2021-05-20T05:09:56Z</time>
      </trkpt>
      <trkpt lat="42.1106020" lon="-8.8255470">
        <ele>6.2</ele>
        <time>2021-05-20T05:09:57Z</time>
      </trkpt>
      <trkpt lat="42.1106110" lon="-8.8255380">
        <ele>6.2</ele>
        <time>2021-05-20T05:09:58Z</time>
      </trkpt>
      <trkpt lat="42.1106260" lon="-8.8255310">
        <ele>6.1</ele>
        <time>2021-05-20T05:09:59Z</time>
      </trkpt>
      <trkpt lat="42.1106380" lon="-8.8255240">
        <ele>6.1</ele>
        <time>2021-05-20T05:10:00Z</time>
      </trkpt>
      <trkpt lat="42.1106560" lon="-8.8255220">
        <ele>6.1</ele>
        <time>2021-05-20T05:10:01Z</time>
      </trkpt>
      <trkpt lat="42.1106670" lon="-8.8255180">
        <ele>6.1</ele>
        <time>2021-05-20T05:10:02Z</time>
      </trkpt>
      <trkpt lat="42.1106780" lon="-8.8255140">
        <ele>6.1</ele>
        <time>2021-05-20T05:10:03Z</time>
      </trkpt>
      <trkpt lat="42.1106950" lon="-8.8255010">
        <ele>6.1</ele>
        <time>2021-05-20T05:10:04Z</time>
      </trkpt>
      <trkpt lat="42.1107030" lon="-8.8254970">
        <ele>6.1</ele>
        <time>2021-05-20T05:10:05Z</time>
      </trkpt>
      <trkpt lat="42.1107120" lon="-8.8254920">
        <ele>6.1</ele>
        <time>2021-05-20T05:10:06Z</time>
      </trkpt>
      <trkpt lat="42.1107250" lon="-8.8254820">
        <ele>6.1</ele>
        <time>2021-05-20T05:10:07Z</time>
      </trkpt>
      <trkpt lat="42.1107400" lon="-8.8254810">
        <ele>6.1</ele>
        <time>2021-05-20T05:10:08Z</time>
      </trkpt>
      <trkpt lat="42.1107500" lon="-8.8254740">
        <ele>6.1</ele>
        <time>2021-05-20T05:10:09Z</time>
      </trkpt>
      <trkpt lat="42.1107580" lon="-8.8254680">
        <ele>6.1</ele>
        <time>2021-05-20T05:10:10Z</time>
      </trkpt>
      <trkpt lat="42.1107700" lon="-8.8254670">
        <ele>6.1</ele>
        <time>2021-05-20T05:10:11Z</time>
      </trkpt>
      <trkpt lat="42.1107810" lon="-8.8254550">
        <ele>6.1</ele>
        <time>2021-05-20T05:10:12Z</time>
      </trkpt>
      <trkpt lat="42.1107920" lon="-8.8254450">
        <ele>6.1</ele>
        <time>2021-05-20T05:10:13Z</time>
      </trkpt>
      <trkpt lat="42.1108040" lon="-8.8254410">
        <ele>6.1</ele>
        <time>2021-05-20T05:10:14Z</time>
      </trkpt>
      <trkpt lat="42.1108210" lon="-8.8254340">
        <ele>6.1</ele>
        <time>2021-05-20T05:10:15Z</time>
      </trkpt>
      <trkpt lat="42.1108430" lon="-8.8254190">
        <ele>6.1</ele>
        <time>2021-05-20T05:10:16Z</time>
      </trkpt>
      <trkpt lat="42.1108500" lon="-8.8254160">
        <ele>6.1</ele>
        <time>2021-05-20T05:10:17Z</time>
      </trkpt>
      <trkpt lat="42.1108580" lon="-8.8254120">
        <ele>6.1</ele>
        <time>2021-05-20T05:10:18Z</time>
      </trkpt>
      <trkpt lat="42.1108660" lon="-8.8254040">
        <ele>6.1</ele>
        <time>2021-05-20T05:10:19Z</time>
      </trkpt>
      <trkpt lat="42.1108800" lon="-8.8254030">
        <ele>6.1</ele>
        <time>2021-05-20T05:10:20Z</time>
      </trkpt>
      <trkpt lat="42.1108910" lon="-8.8254050">
        <ele>6.1</ele>
        <time>2021-05-20T05:10:21Z</time>
      </trkpt>
      <trkpt lat="42.1109060" lon="-8.8254070">
        <ele>6.1</ele>
        <time>2021-05-20T05:10:22Z</time>
      </trkpt>
      <trkpt lat="42.1109220" lon="-8.8254020">
        <ele>6.1</ele>
        <time>2021-05-20T05:10:23Z</time>
      </trkpt>
      <trkpt lat="42.1109360" lon="-8.8253930">
        <ele>6.1</ele>
        <time>2021-05-20T05:10:24Z</time>
      </trkpt>
      <trkpt lat="42.1109490" lon="-8.8253780">
        <ele>6.1</ele>
        <time>2021-05-20T05:10:25Z</time>
      </trkpt>
      <trkpt lat="42.1109580" lon="-8.8253720">
        <ele>6.1</ele>
        <time>2021-05-20T05:10:26Z</time>
      </trkpt>
      <trkpt lat="42.1109740" lon="-8.8253660">
        <ele>6.1</ele>
        <time>2021-05-20T05:10:27Z</time>
      </trkpt>
      <trkpt lat="42.1109910" lon="-8.8253600">
        <ele>6.1</ele>
        <time>2021-05-20T05:10:28Z</time>
      </trkpt>
      <trkpt lat="42.1110020" lon="-8.8253560">
        <ele>6.1</ele>
        <time>2021-05-20T05:10:29Z</time>
      </trkpt>
      <trkpt lat="42.1110140" lon="-8.8253490">
        <ele>6.1</ele>
        <time>2021-05-20T05:10:30Z</time>
      </trkpt>
      <trkpt lat="42.1110250" lon="-8.8253390">
        <ele>6.1</ele>
        <time>2021-05-20T05:10:31Z</time>
      </trkpt>
      <trkpt lat="42.1110350" lon="-8.8253340">
        <ele>6.1</ele>
        <time>2021-05-20T05:10:32Z</time>
      </trkpt>
      <trkpt lat="42.1110560" lon="-8.8253150">
        <ele>6.1</ele>
        <time>2021-05-20T05:10:33Z</time>
      </trkpt>
      <trkpt lat="42.1110650" lon="-8.8253050">
        <ele>6.0</ele>
        <time>2021-05-20T05:10:34Z</time>
      </trkpt>
      <trkpt lat="42.1110850" lon="-8.8252950">
        <ele>6.0</ele>
        <time>2021-05-20T05:10:35Z</time>
      </trkpt>
      <trkpt lat="42.1110940" lon="-8.8252920">
        <ele>6.0</ele>
        <time>2021-05-20T05:10:36Z</time>
      </trkpt>
      <trkpt lat="42.1111040" lon="-8.8252890">
        <ele>6.0</ele>
        <time>2021-05-20T05:10:37Z</time>
      </trkpt>
      <trkpt lat="42.1111170" lon="-8.8252820">
        <ele>6.0</ele>
        <time>2021-05-20T05:10:38Z</time>
      </trkpt>
      <trkpt lat="42.1111340" lon="-8.8252780">
        <ele>6.0</ele>
        <time>2021-05-20T05:10:39Z</time>
      </trkpt>
      <trkpt lat="42.1111460" lon="-8.8252730">
        <ele>6.0</ele>
        <time>2021-05-20T05:10:40Z</time>
      </trkpt>
      <trkpt lat="42.1111540" lon="-8.8252620">
        <ele>6.0</ele>
        <time>2021-05-20T05:10:41Z</time>
      </trkpt>
      <trkpt lat="42.1111640" lon="-8.8252530">
        <ele>6.0</ele>
        <time>2021-05-20T05:10:42Z</time>
      </trkpt>
      <trkpt lat="42.1111760" lon="-8.8252420">
        <ele>6.0</ele>
        <time>2021-05-20T05:10:43Z</time>
      </trkpt>
      <trkpt lat="42.1111940" lon="-8.8252350">
        <ele>6.0</ele>
        <time>2021-05-20T05:10:44Z</time>
      </trkpt>
      <trkpt lat="42.1112040" lon="-8.8252310">
        <ele>6.0</ele>
        <time>2021-05-20T05:10:45Z</time>
      </trkpt>
      <trkpt lat="42.1112210" lon="-8.8252210">
        <ele>6.0</ele>
        <time>2021-05-20T05:10:46Z</time>
      </trkpt>
      <trkpt lat="42.1112300" lon="-8.8252170">
        <ele>6.0</ele>
        <time>2021-05-20T05:10:47Z</time>
      </trkpt>
      <trkpt lat="42.1112400" lon="-8.8252080">
        <ele>6.0</ele>
        <time>2021-05-20T05:10:48Z</time>
      </trkpt>
      <trkpt lat="42.1112510" lon="-8.8252040">
        <ele>6.0</ele>
        <time>2021-05-20T05:10:49Z</time>
      </trkpt>
      <trkpt lat="42.1112690" lon="-8.8251940">
        <ele>6.0</ele>
        <time>2021-05-20T05:10:50Z</time>
      </trkpt>
      <trkpt lat="42.1112740" lon="-8.8251900">
        <ele>6.0</ele>
        <time>2021-05-20T05:10:51Z</time>
      </trkpt>
      <trkpt lat="42.1112760" lon="-8.8251840">
        <ele>6.0</ele>
        <time>2021-05-20T05:10:52Z</time>
      </trkpt>
      <trkpt lat="42.1112860" lon="-8.8251750">
        <ele>6.0</ele>
        <time>2021-05-20T05:10:53Z</time>
      </trkpt>
      <trkpt lat="42.1113050" lon="-8.8251720">
        <ele>6.0</ele>
        <time>2021-05-20T05:10:54Z</time>
      </trkpt>
      <trkpt lat="42.1113180" lon="-8.8251570">
        <ele>6.0</ele>
        <time>2021-05-20T05:10:55Z</time>
      </trkpt>
      <trkpt lat="42.1113370" lon="-8.8251550">
        <ele>6.0</ele>
        <time>2021-05-20T05:10:56Z</time>
      </trkpt>
      <trkpt lat="42.1113530" lon="-8.8251520">
        <ele>5.9</ele>
        <time>2021-05-20T05:10:57Z</time>
      </trkpt>
      <trkpt lat="42.1113650" lon="-8.8251460">
        <ele>5.9</ele>
        <time>2021-05-20T05:10:58Z</time>
      </trkpt>
      <trkpt lat="42.1113850" lon="-8.8251360">
        <ele>5.9</ele>
        <time>2021-05-20T05:10:59Z</time>
      </trkpt>
      <trkpt lat="42.1113980" lon="-8.8251350">
        <ele>5.9</ele>
        <time>2021-05-20T05:11:00Z</time>
      </trkpt>
      <trkpt lat="42.1114260" lon="-8.8251210">
        <ele>5.9</ele>
        <time>2021-05-20T05:11:01Z</time>
      </trkpt>
      <trkpt lat="42.1114350" lon="-8.8251160">
        <ele>5.9</ele>
        <time>2021-05-20T05:11:02Z</time>
      </trkpt>
      <trkpt lat="42.1114460" lon="-8.8251010">
        <ele>5.9</ele>
        <time>2021-05-20T05:11:03Z</time>
      </trkpt>
      <trkpt lat="42.1114570" lon="-8.8250900">
        <ele>5.9</ele>
        <time>2021-05-20T05:11:04Z</time>
      </trkpt>
      <trkpt lat="42.1114780" lon="-8.8250780">
        <ele>5.9</ele>
        <time>2021-05-20T05:11:05Z</time>
      </trkpt>
      <trkpt lat="42.1114850" lon="-8.8250740">
        <ele>5.9</ele>
        <time>2021-05-20T05:11:06Z</time>
      </trkpt>
      <trkpt lat="42.1114920" lon="-8.8250700">
        <ele>5.9</ele>
        <time>2021-05-20T05:11:07Z</time>
      </trkpt>
      <trkpt lat="42.1115070" lon="-8.8250550">
        <ele>5.9</ele>
        <time>2021-05-20T05:11:08Z</time>
      </trkpt>
      <trkpt lat="42.1115180" lon="-8.8250500">
        <ele>5.9</ele>
        <time>2021-05-20T05:11:09Z</time>
      </trkpt>
      <trkpt lat="42.1115290" lon="-8.8250390">
        <ele>5.9</ele>
        <time>2021-05-20T05:11:10Z</time>
      </trkpt>
      <trkpt lat="42.1115410" lon="-8.8250320">
        <ele>5.9</ele>
        <time>2021-05-20T05:11:11Z</time>
      </trkpt>
      <trkpt lat="42.1115600" lon="-8.8250240">
        <ele>5.9</ele>
        <time>2021-05-20T05:11:12Z</time>
      </trkpt>
      <trkpt lat="42.1115650" lon="-8.8250070">
        <ele>5.9</ele>
        <time>2021-05-20T05:11:13Z</time>
      </trkpt>
      <trkpt lat="42.1115820" lon="-8.8249900">
        <ele>5.9</ele>
        <time>2021-05-20T05:11:14Z</time>
      </trkpt>
      <trkpt lat="42.1115880" lon="-8.8249820">
        <ele>5.9</ele>
        <time>2021-05-20T05:11:15Z</time>
      </trkpt>
      <trkpt lat="42.1115930" lon="-8.8249730">
        <ele>5.9</ele>
        <time>2021-05-20T05:11:16Z</time>
      </trkpt>
      <trkpt lat="42.1116090" lon="-8.8249540">
        <ele>5.9</ele>
        <time>2021-05-20T05:11:17Z</time>
      </trkpt>
      <trkpt lat="42.1116180" lon="-8.8249490">
        <ele>5.9</ele>
        <time>2021-05-20T05:11:18Z</time>
      </trkpt>
      <trkpt lat="42.1116270" lon="-8.8249450">
        <ele>5.8</ele>
        <time>2021-05-20T05:11:19Z</time>
      </trkpt>
      <trkpt lat="42.1116350" lon="-8.8249370">
        <ele>5.8</ele>
        <time>2021-05-20T05:11:20Z</time>
      </trkpt>
      <trkpt lat="42.1116510" lon="-8.8249190">
        <ele>5.8</ele>
        <time>2021-05-20T05:11:21Z</time>
      </trkpt>
      <trkpt lat="42.1116630" lon="-8.8248970">
        <ele>5.8</ele>
        <time>2021-05-20T05:11:22Z</time>
      </trkpt>
      <trkpt lat="42.1116680" lon="-8.8248870">
        <ele>5.8</ele>
        <time>2021-05-20T05:11:23Z</time>
      </trkpt>
      <trkpt lat="42.1116740" lon="-8.8248770">
        <ele>5.8</ele>
        <time>2021-05-20T05:11:24Z</time>
      </trkpt>
      <trkpt lat="42.1116850" lon="-8.8248640">
        <ele>5.8</ele>
        <time>2021-05-20T05:11:25Z</time>
      </trkpt>
      <trkpt lat="42.1116890" lon="-8.8248460">
        <ele>5.8</ele>
        <time>2021-05-20T05:11:26Z</time>
      </trkpt>
      <trkpt lat="42.1116950" lon="-8.8248320">
        <ele>5.8</ele>
        <time>2021-05-20T05:11:27Z</time>
      </trkpt>
      <trkpt lat="42.1117060" lon="-8.8248160">
        <ele>5.8</ele>
        <time>2021-05-20T05:11:28Z</time>
      </trkpt>
      <trkpt lat="42.1117130" lon="-8.8247970">
        <ele>5.8</ele>
        <time>2021-05-20T05:11:29Z</time>
      </trkpt>
      <trkpt lat="42.1117200" lon="-8.8247830">
        <ele>5.8</ele>
        <time>2021-05-20T05:11:30Z</time>
      </trkpt>
      <trkpt lat="42.1117240" lon="-8.8247540">
        <ele>5.8</ele>
        <time>2021-05-20T05:11:31Z</time>
      </trkpt>
      <trkpt lat="42.1117270" lon="-8.8247420">
        <ele>5.8</ele>
        <time>2021-05-20T05:11:32Z</time>
      </trkpt>
      <trkpt lat="42.1117290" lon="-8.8247290">
        <ele>5.8</ele>
        <time>2021-05-20T05:11:33Z</time>
      </trkpt>
      <trkpt lat="42.1117320" lon="-8.8247290">
        <ele>5.8</ele>
        <time>2021-05-20T05:11:34Z</time>
      </trkpt>
      <trkpt lat="42.1117360" lon="-8.8247170">
        <ele>5.8</ele>
        <time>2021-05-20T05:11:35Z</time>
      </trkpt>
      <trkpt lat="42.1117450" lon="-8.8246970">
        <ele>5.9</ele>
        <time>2021-05-20T05:11:36Z</time>
      </trkpt>
      <trkpt lat="42.1117560" lon="-8.8246790">
        <ele>5.9</ele>
        <time>2021-05-20T05:11:37Z</time>
      </trkpt>
      <trkpt lat="42.1117610" lon="-8.8246560">
        <ele>5.9</ele>
        <time>2021-05-20T05:11:38Z</time>
      </trkpt>
      <trkpt lat="42.1117660" lon="-8.8246460">
        <ele>5.9</ele>
        <time>2021-05-20T05:11:39Z</time>
      </trkpt>
      <trkpt lat="42.1117690" lon="-8.8246320">
        <ele>5.9</ele>
        <time>2021-05-20T05:11:40Z</time>
      </trkpt>
      <trkpt lat="42.1117750" lon="-8.8246230">
        <ele>5.9</ele>
        <time>2021-05-20T05:11:41Z</time>
      </trkpt>
      <trkpt lat="42.1117770" lon="-8.8246110">
        <ele>5.9</ele>
        <time>2021-05-20T05:11:42Z</time>
      </trkpt>
      <trkpt lat="42.1117810" lon="-8.8245890">
        <ele>5.9</ele>
        <time>2021-05-20T05:11:43Z</time>
      </trkpt>
      <trkpt lat="42.1117840" lon="-8.8245750">
        <ele>5.9</ele>
        <time>2021-05-20T05:11:44Z</time>
      </trkpt>
      <trkpt lat="42.1117840" lon="-8.8245530">
        <ele>5.9</ele>
        <time>2021-05-20T05:11:45Z</time>
      </trkpt>
      <trkpt lat="42.1117900" lon="-8.8245320">
        <ele>5.9</ele>
        <time>2021-05-20T05:11:46Z</time>
      </trkpt>
      <trkpt lat="42.1117980" lon="-8.8244990">
        <ele>5.9</ele>
        <time>2021-05-20T05:11:47Z</time>
      </trkpt>
      <trkpt lat="42.1118010" lon="-8.8244890">
        <ele>5.9</ele>
        <time>2021-05-20T05:11:48Z</time>
      </trkpt>
      <trkpt lat="42.1118050" lon="-8.8244800">
        <ele>5.9</ele>
        <time>2021-05-20T05:11:49Z</time>
      </trkpt>
      <trkpt lat="42.1118120" lon="-8.8244550">
        <ele>5.9</ele>
        <time>2021-05-20T05:11:50Z</time>
      </trkpt>
      <trkpt lat="42.1118140" lon="-8.8244430">
        <ele>5.9</ele>
        <time>2021-05-20T05:11:51Z</time>
      </trkpt>
      <trkpt lat="42.1118160" lon="-8.8244320">
        <ele>5.9</ele>
        <time>2021-05-20T05:11:52Z</time>
      </trkpt>
      <trkpt lat="42.1118170" lon="-8.8244010">
        <ele>5.9</ele>
        <time>2021-05-20T05:11:53Z</time>
      </trkpt>
      <trkpt lat="42.1118170" lon="-8.8243890">
        <ele>5.9</ele>
        <time>2021-05-20T05:11:54Z</time>
      </trkpt>
      <trkpt lat="42.1118180" lon="-8.8243760">
        <ele>5.9</ele>
        <time>2021-05-20T05:11:55Z</time>
      </trkpt>
      <trkpt lat="42.1118220" lon="-8.8243600">
        <ele>5.9</ele>
        <time>2021-05-20T05:11:56Z</time>
      </trkpt>
      <trkpt lat="42.1118220" lon="-8.8243470">
        <ele>5.9</ele>
        <time>2021-05-20T05:11:57Z</time>
      </trkpt>
      <trkpt lat="42.1118200" lon="-8.8243390">
        <ele>5.9</ele>
        <time>2021-05-20T05:11:58Z</time>
      </trkpt>
      <trkpt lat="42.1118210" lon="-8.8243140">
        <ele>5.9</ele>
        <time>2021-05-20T05:11:59Z</time>
      </trkpt>
      <trkpt lat="42.1118250" lon="-8.8243020">
        <ele>5.9</ele>
        <time>2021-05-20T05:12:00Z</time>
      </trkpt>
      <trkpt lat="42.1118280" lon="-8.8242910">
        <ele>5.9</ele>
        <time>2021-05-20T05:12:01Z</time>
      </trkpt>
      <trkpt lat="42.1118370" lon="-8.8242630">
        <ele>5.9</ele>
        <time>2021-05-20T05:12:02Z</time>
      </trkpt>
      <trkpt lat="42.1118400" lon="-8.8242510">
        <ele>5.9</ele>
        <time>2021-05-20T05:12:03Z</time>
      </trkpt>
      <trkpt lat="42.1118440" lon="-8.8242390">
        <ele>5.9</ele>
        <time>2021-05-20T05:12:04Z</time>
      </trkpt>
      <trkpt lat="42.1118490" lon="-8.8242140">
        <ele>5.9</ele>
        <time>2021-05-20T05:12:05Z</time>
      </trkpt>
      <trkpt lat="42.1118460" lon="-8.8242010">
        <ele>5.9</ele>
        <time>2021-05-20T05:12:06Z</time>
      </trkpt>
      <trkpt lat="42.1118530" lon="-8.8241700">
        <ele>6.0</ele>
        <time>2021-05-20T05:12:07Z</time>
      </trkpt>
      <trkpt lat="42.1118550" lon="-8.8241590">
        <ele>6.0</ele>
        <time>2021-05-20T05:12:08Z</time>
      </trkpt>
      <trkpt lat="42.1118560" lon="-8.8241470">
        <ele>6.0</ele>
        <time>2021-05-20T05:12:09Z</time>
      </trkpt>
      <trkpt lat="42.1118580" lon="-8.8241260">
        <ele>6.0</ele>
        <time>2021-05-20T05:12:10Z</time>
      </trkpt>
      <trkpt lat="42.1118660" lon="-8.8241110">
        <ele>6.0</ele>
        <time>2021-05-20T05:12:11Z</time>
      </trkpt>
      <trkpt lat="42.1118660" lon="-8.8240840">
        <ele>6.0</ele>
        <time>2021-05-20T05:12:12Z</time>
      </trkpt>
      <trkpt lat="42.1118650" lon="-8.8240720">
        <ele>6.0</ele>
        <time>2021-05-20T05:12:13Z</time>
      </trkpt>
      <trkpt lat="42.1118650" lon="-8.8240610">
        <ele>6.0</ele>
        <time>2021-05-20T05:12:14Z</time>
      </trkpt>
      <trkpt lat="42.1118640" lon="-8.8240430">
        <ele>6.0</ele>
        <time>2021-05-20T05:12:15Z</time>
      </trkpt>
      <trkpt lat="42.1118650" lon="-8.8240250">
        <ele>6.0</ele>
        <time>2021-05-20T05:12:16Z</time>
      </trkpt>
      <trkpt lat="42.1118680" lon="-8.8240140">
        <ele>6.0</ele>
        <time>2021-05-20T05:12:17Z</time>
      </trkpt>
      <trkpt lat="42.1118670" lon="-8.8240040">
        <ele>6.0</ele>
        <time>2021-05-20T05:12:18Z</time>
      </trkpt>
      <trkpt lat="42.1118720" lon="-8.8239870">
        <ele>6.0</ele>
        <time>2021-05-20T05:12:19Z</time>
      </trkpt>
      <trkpt lat="42.1118770" lon="-8.8239680">
        <ele>6.0</ele>
        <time>2021-05-20T05:12:20Z</time>
      </trkpt>
      <trkpt lat="42.1118790" lon="-8.8239510">
        <ele>6.0</ele>
        <time>2021-05-20T05:12:21Z</time>
      </trkpt>
      <trkpt lat="42.1118840" lon="-8.8239310">
        <ele>6.0</ele>
        <time>2021-05-20T05:12:22Z</time>
      </trkpt>
      <trkpt lat="42.1118820" lon="-8.8239040">
        <ele>6.0</ele>
        <time>2021-05-20T05:12:23Z</time>
      </trkpt>
      <trkpt lat="42.1118810" lon="-8.8238920">
        <ele>6.0</ele>
        <time>2021-05-20T05:12:24Z</time>
      </trkpt>
      <trkpt lat="42.1118790" lon="-8.8238790">
        <ele>6.0</ele>
        <time>2021-05-20T05:12:25Z</time>
      </trkpt>
      <trkpt lat="42.1118800" lon="-8.8238550">
        <ele>6.0</ele>
        <time>2021-05-20T05:12:26Z</time>
      </trkpt>
      <trkpt lat="42.1118740" lon="-8.8238330">
        <ele>6.0</ele>
        <time>2021-05-20T05:12:27Z</time>
      </trkpt>
      <trkpt lat="42.1118830" lon="-8.8238060">
        <ele>6.0</ele>
        <time>2021-05-20T05:12:28Z</time>
      </trkpt>
      <trkpt lat="42.1118850" lon="-8.8237960">
        <ele>6.0</ele>
        <time>2021-05-20T05:12:29Z</time>
      </trkpt>
      <trkpt lat="42.1118870" lon="-8.8237860">
        <ele>6.0</ele>
        <time>2021-05-20T05:12:30Z</time>
      </trkpt>
      <trkpt lat="42.1118860" lon="-8.8237640">
        <ele>6.0</ele>
        <time>2021-05-20T05:12:31Z</time>
      </trkpt>
      <trkpt lat="42.1118870" lon="-8.8237460">
        <ele>6.0</ele>
        <time>2021-05-20T05:12:32Z</time>
      </trkpt>
      <trkpt lat="42.1118900" lon="-8.8237230">
        <ele>6.0</ele>
        <time>2021-05-20T05:12:33Z</time>
      </trkpt>
      <trkpt lat="42.1118940" lon="-8.8236990">
        <ele>6.0</ele>
        <time>2021-05-20T05:12:34Z</time>
      </trkpt>
      <trkpt lat="42.1118970" lon="-8.8236780">
        <ele>6.0</ele>
        <time>2021-05-20T05:12:35Z</time>
      </trkpt>
      <trkpt lat="42.1118990" lon="-8.8236590">
        <ele>6.0</ele>
        <time>2021-05-20T05:12:36Z</time>
      </trkpt>
      <trkpt lat="42.1118990" lon="-8.8236470">
        <ele>6.0</ele>
        <time>2021-05-20T05:12:37Z</time>
      </trkpt>
      <trkpt lat="42.1118930" lon="-8.8236340">
        <ele>6.0</ele>
        <time>2021-05-20T05:12:38Z</time>
      </trkpt>
      <trkpt lat="42.1118960" lon="-8.8236160">
        <ele>6.0</ele>
        <time>2021-05-20T05:12:39Z</time>
      </trkpt>
      <trkpt lat="42.1118970" lon="-8.8235810">
        <ele>6.0</ele>
        <time>2021-05-20T05:12:40Z</time>
      </trkpt>
      <trkpt lat="42.1118990" lon="-8.8235720">
        <ele>6.0</ele>
        <time>2021-05-20T05:12:41Z</time>
      </trkpt>
      <trkpt lat="42.1119000" lon="-8.8235620">
        <ele>6.0</ele>
        <time>2021-05-20T05:12:42Z</time>
      </trkpt>
      <trkpt lat="42.1119010" lon="-8.8235470">
        <ele>6.0</ele>
        <time>2021-05-20T05:12:43Z</time>
      </trkpt>
      <trkpt lat="42.1119030" lon="-8.8235310">
        <ele>6.0</ele>
        <time>2021-05-20T05:12:44Z</time>
      </trkpt>
      <trkpt lat="42.1119050" lon="-8.8235160">
        <ele>6.0</ele>
        <time>2021-05-20T05:12:45Z</time>
      </trkpt>
      <trkpt lat="42.1119060" lon="-8.8234890">
        <ele>6.0</ele>
        <time>2021-05-20T05:12:46Z</time>
      </trkpt>
      <trkpt lat="42.1119080" lon="-8.8234780">
        <ele>6.0</ele>
        <time>2021-05-20T05:12:47Z</time>
      </trkpt>
      <trkpt lat="42.1119100" lon="-8.8234670">
        <ele>6.0</ele>
        <time>2021-05-20T05:12:48Z</time>
      </trkpt>
      <trkpt lat="42.1119120" lon="-8.8234510">
        <ele>6.0</ele>
        <time>2021-05-20T05:12:49Z</time>
      </trkpt>
      <trkpt lat="42.1119130" lon="-8.8234430">
        <ele>6.0</ele>
        <time>2021-05-20T05:12:50Z</time>
      </trkpt>
      <trkpt lat="42.1119130" lon="-8.8234340">
        <ele>6.0</ele>
        <time>2021-05-20T05:12:51Z</time>
      </trkpt>
      <trkpt lat="42.1119130" lon="-8.8234250">
        <ele>6.0</ele>
        <time>2021-05-20T05:12:52Z</time>
      </trkpt>
      <trkpt lat="42.1119140" lon="-8.8234170">
        <ele>6.0</ele>
        <time>2021-05-20T05:12:53Z</time>
      </trkpt>
      <trkpt lat="42.1119140" lon="-8.8234080">
        <ele>6.0</ele>
        <time>2021-05-20T05:12:54Z</time>
      </trkpt>
      <trkpt lat="42.1119140" lon="-8.8233800">
        <ele>6.0</ele>
        <time>2021-05-20T05:12:55Z</time>
      </trkpt>
      <trkpt lat="42.1119130" lon="-8.8233690">
        <ele>6.0</ele>
        <time>2021-05-20T05:12:56Z</time>
      </trkpt>
      <trkpt lat="42.1119120" lon="-8.8233580">
        <ele>6.0</ele>
        <time>2021-05-20T05:12:57Z</time>
      </trkpt>
      <trkpt lat="42.1119160" lon="-8.8233340">
        <ele>6.0</ele>
        <time>2021-05-20T05:12:58Z</time>
      </trkpt>
      <trkpt lat="42.1119190" lon="-8.8233220">
        <ele>6.0</ele>
        <time>2021-05-20T05:12:59Z</time>
      </trkpt>
      <trkpt lat="42.1119220" lon="-8.8233090">
        <ele>6.0</ele>
        <time>2021-05-20T05:13:00Z</time>
      </trkpt>
      <trkpt lat="42.1119250" lon="-8.8232870">
        <ele>6.0</ele>
        <time>2021-05-20T05:13:01Z</time>
      </trkpt>
      <trkpt lat="42.1119300" lon="-8.8232650">
        <ele>6.0</ele>
        <time>2021-05-20T05:13:02Z</time>
      </trkpt>
      <trkpt lat="42.1119360" lon="-8.8232370">
        <ele>6.0</ele>
        <time>2021-05-20T05:13:03Z</time>
      </trkpt>
      <trkpt lat="42.1119360" lon="-8.8232230">
        <ele>6.0</ele>
        <time>2021-05-20T05:13:04Z</time>
      </trkpt>
      <trkpt lat="42.1119360" lon="-8.8232090">
        <ele>6.0</ele>
        <time>2021-05-20T05:13:05Z</time>
      </trkpt>
      <trkpt lat="42.1119370" lon="-8.8231870">
        <ele>6.0</ele>
        <time>2021-05-20T05:13:06Z</time>
      </trkpt>
      <trkpt lat="42.1119370" lon="-8.8231720">
        <ele>6.0</ele>
        <time>2021-05-20T05:13:07Z</time>
      </trkpt>
      <trkpt lat="42.1119430" lon="-8.8231490">
        <ele>6.1</ele>
        <time>2021-05-20T05:13:08Z</time>
      </trkpt>
      <trkpt lat="42.1119450" lon="-8.8231330">
        <ele>6.1</ele>
        <time>2021-05-20T05:13:09Z</time>
      </trkpt>
      <trkpt lat="42.1119410" lon="-8.8231080">
        <ele>6.1</ele>
        <time>2021-05-20T05:13:10Z</time>
      </trkpt>
      <trkpt lat="42.1119420" lon="-8.8230960">
        <ele>6.1</ele>
        <time>2021-05-20T05:13:11Z</time>
      </trkpt>
      <trkpt lat="42.1119440" lon="-8.8230830">
        <ele>6.1</ele>
        <time>2021-05-20T05:13:12Z</time>
      </trkpt>
      <trkpt lat="42.1119440" lon="-8.8230710">
        <ele>6.1</ele>
        <time>2021-05-20T05:13:13Z</time>
      </trkpt>
      <trkpt lat="42.1119430" lon="-8.8230560">
        <ele>6.1</ele>
        <time>2021-05-20T05:13:14Z</time>
      </trkpt>
      <trkpt lat="42.1119480" lon="-8.8230350">
        <ele>6.1</ele>
        <time>2021-05-20T05:13:15Z</time>
      </trkpt>
      <trkpt lat="42.1119520" lon="-8.8230100">
        <ele>6.1</ele>
        <time>2021-05-20T05:13:16Z</time>
      </trkpt>
      <trkpt lat="42.1119560" lon="-8.8229910">
        <ele>6.1</ele>
        <time>2021-05-20T05:13:17Z</time>
      </trkpt>
      <trkpt lat="42.1119590" lon="-8.8229720">
        <ele>6.1</ele>
        <time>2021-05-20T05:13:18Z</time>
      </trkpt>
      <trkpt lat="42.1119630" lon="-8.8229530">
        <ele>6.1</ele>
        <time>2021-05-20T05:13:19Z</time>
      </trkpt>
      <trkpt lat="42.1119650" lon="-8.8229380">
        <ele>6.1</ele>
        <time>2021-05-20T05:13:20Z</time>
      </trkpt>
      <trkpt lat="42.1119690" lon="-8.8229200">
        <ele>6.1</ele>
        <time>2021-05-20T05:13:21Z</time>
      </trkpt>
      <trkpt lat="42.1119670" lon="-8.8229080">
        <ele>6.1</ele>
        <time>2021-05-20T05:13:22Z</time>
      </trkpt>
      <trkpt lat="42.1119730" lon="-8.8228710">
        <ele>6.1</ele>
        <time>2021-05-20T05:13:23Z</time>
      </trkpt>
      <trkpt lat="42.1119730" lon="-8.8228550">
        <ele>6.1</ele>
        <time>2021-05-20T05:13:24Z</time>
      </trkpt>
      <trkpt lat="42.1119760" lon="-8.8228450">
        <ele>6.1</ele>
        <time>2021-05-20T05:13:25Z</time>
      </trkpt>
      <trkpt lat="42.1119730" lon="-8.8228230">
        <ele>6.1</ele>
        <time>2021-05-20T05:13:26Z</time>
      </trkpt>
      <trkpt lat="42.1119730" lon="-8.8228090">
        <ele>6.1</ele>
        <time>2021-05-20T05:13:27Z</time>
      </trkpt>
      <trkpt lat="42.1119790" lon="-8.8227840">
        <ele>6.1</ele>
        <time>2021-05-20T05:13:28Z</time>
      </trkpt>
      <trkpt lat="42.1119810" lon="-8.8227720">
        <ele>6.1</ele>
        <time>2021-05-20T05:13:29Z</time>
      </trkpt>
      <trkpt lat="42.1119840" lon="-8.8227610">
        <ele>6.1</ele>
        <time>2021-05-20T05:13:30Z</time>
      </trkpt>
      <trkpt lat="42.1119920" lon="-8.8227460">
        <ele>6.1</ele>
        <time>2021-05-20T05:13:31Z</time>
      </trkpt>
      <trkpt lat="42.1119940" lon="-8.8227340">
        <ele>6.1</ele>
        <time>2021-05-20T05:13:32Z</time>
      </trkpt>
      <trkpt lat="42.1119950" lon="-8.8227230">
        <ele>6.1</ele>
        <time>2021-05-20T05:13:33Z</time>
      </trkpt>
      <trkpt lat="42.1119970" lon="-8.8227110">
        <ele>6.1</ele>
        <time>2021-05-20T05:13:34Z</time>
      </trkpt>
      <trkpt lat="42.1119980" lon="-8.8226910">
        <ele>6.1</ele>
        <time>2021-05-20T05:13:35Z</time>
      </trkpt>
      <trkpt lat="42.1120060" lon="-8.8226720">
        <ele>6.1</ele>
        <time>2021-05-20T05:13:36Z</time>
      </trkpt>
      <trkpt lat="42.1120170" lon="-8.8226660">
        <ele>6.1</ele>
        <time>2021-05-20T05:13:37Z</time>
      </trkpt>
      <trkpt lat="42.1120250" lon="-8.8226460">
        <ele>6.1</ele>
        <time>2021-05-20T05:13:38Z</time>
      </trkpt>
      <trkpt lat="42.1120310" lon="-8.8226260">
        <ele>6.1</ele>
        <time>2021-05-20T05:13:39Z</time>
      </trkpt>
      <trkpt lat="42.1120360" lon="-8.8226120">
        <ele>6.1</ele>
        <time>2021-05-20T05:13:40Z</time>
      </trkpt>
      <trkpt lat="42.1120450" lon="-8.8225900">
        <ele>6.1</ele>
        <time>2021-05-20T05:13:41Z</time>
      </trkpt>
      <trkpt lat="42.1120520" lon="-8.8225720">
        <ele>6.1</ele>
        <time>2021-05-20T05:13:42Z</time>
      </trkpt>
      <trkpt lat="42.1120540" lon="-8.8225540">
        <ele>6.1</ele>
        <time>2021-05-20T05:13:43Z</time>
      </trkpt>
      <trkpt lat="42.1120590" lon="-8.8225450">
        <ele>6.1</ele>
        <time>2021-05-20T05:13:44Z</time>
      </trkpt>
      <trkpt lat="42.1120620" lon="-8.8225270">
        <ele>6.1</ele>
        <time>2021-05-20T05:13:45Z</time>
      </trkpt>
      <trkpt lat="42.1120630" lon="-8.8224980">
        <ele>6.1</ele>
        <time>2021-05-20T05:13:46Z</time>
      </trkpt>
      <trkpt lat="42.1120620" lon="-8.8224840">
        <ele>6.1</ele>
        <time>2021-05-20T05:13:47Z</time>
      </trkpt>
      <trkpt lat="42.1120630" lon="-8.8224700">
        <ele>6.1</ele>
        <time>2021-05-20T05:13:48Z</time>
      </trkpt>
      <trkpt lat="42.1120630" lon="-8.8224530">
        <ele>6.2</ele>
        <time>2021-05-20T05:13:49Z</time>
      </trkpt>
      <trkpt lat="42.1120670" lon="-8.8224400">
        <ele>6.2</ele>
        <time>2021-05-20T05:13:50Z</time>
      </trkpt>
      <trkpt lat="42.1120660" lon="-8.8224100">
        <ele>6.2</ele>
        <time>2021-05-20T05:13:51Z</time>
      </trkpt>
      <trkpt lat="42.1120640" lon="-8.8223990">
        <ele>6.2</ele>
        <time>2021-05-20T05:13:52Z</time>
      </trkpt>
      <trkpt lat="42.1120620" lon="-8.8223870">
        <ele>6.2</ele>
        <time>2021-05-20T05:13:53Z</time>
      </trkpt>
      <trkpt lat="42.1120620" lon="-8.8223750">
        <ele>6.2</ele>
        <time>2021-05-20T05:13:54Z</time>
      </trkpt>
      <trkpt lat="42.1120660" lon="-8.8223600">
        <ele>6.2</ele>
        <time>2021-05-20T05:13:55Z</time>
      </trkpt>
      <trkpt lat="42.1120660" lon="-8.8223410">
        <ele>6.2</ele>
        <time>2021-05-20T05:13:56Z</time>
      </trkpt>
      <trkpt lat="42.1120700" lon="-8.8223300">
        <ele>6.2</ele>
        <time>2021-05-20T05:13:57Z</time>
      </trkpt>
      <trkpt lat="42.1120730" lon="-8.8223140">
        <ele>6.2</ele>
        <time>2021-05-20T05:13:58Z</time>
      </trkpt>
      <trkpt lat="42.1120780" lon="-8.8223000">
        <ele>6.2</ele>
        <time>2021-05-20T05:13:59Z</time>
      </trkpt>
      <trkpt lat="42.1120820" lon="-8.8222720">
        <ele>6.2</ele>
        <time>2021-05-20T05:14:00Z</time>
      </trkpt>
      <trkpt lat="42.1120830" lon="-8.8222610">
        <ele>6.2</ele>
        <time>2021-05-20T05:14:01Z</time>
      </trkpt>
      <trkpt lat="42.1120830" lon="-8.8222500">
        <ele>6.2</ele>
        <time>2021-05-20T05:14:02Z</time>
      </trkpt>
      <trkpt lat="42.1120820" lon="-8.8222300">
        <ele>6.2</ele>
        <time>2021-05-20T05:14:03Z</time>
      </trkpt>
      <trkpt lat="42.1120770" lon="-8.8222080">
        <ele>6.2</ele>
        <time>2021-05-20T05:14:04Z</time>
      </trkpt>
      <trkpt lat="42.1120700" lon="-8.8221780">
        <ele>6.2</ele>
        <time>2021-05-20T05:14:05Z</time>
      </trkpt>
      <trkpt lat="42.1120660" lon="-8.8221650">
        <ele>6.2</ele>
        <time>2021-05-20T05:14:06Z</time>
      </trkpt>
      <trkpt lat="42.1120620" lon="-8.8221520">
        <ele>6.2</ele>
        <time>2021-05-20T05:14:07Z</time>
      </trkpt>
      <trkpt lat="42.1120500" lon="-8.8221290">
        <ele>6.2</ele>
        <time>2021-05-20T05:14:08Z</time>
      </trkpt>
      <trkpt lat="42.1120450" lon="-8.8221190">
        <ele>6.2</ele>
        <time>2021-05-20T05:14:09Z</time>
      </trkpt>
      <trkpt lat="42.1120410" lon="-8.8221100">
        <ele>6.2</ele>
        <time>2021-05-20T05:14:10Z</time>
      </trkpt>
      <trkpt lat="42.1120430" lon="-8.8220850">
        <ele>6.2</ele>
        <time>2021-05-20T05:14:11Z</time>
      </trkpt>
      <trkpt lat="42.1120470" lon="-8.8220710">
        <ele>6.2</ele>
        <time>2021-05-20T05:14:12Z</time>
      </trkpt>
      <trkpt lat="42.1120500" lon="-8.8220580">
        <ele>6.2</ele>
        <time>2021-05-20T05:14:13Z</time>
      </trkpt>
      <trkpt lat="42.1120500" lon="-8.8220340">
        <ele>6.2</ele>
        <time>2021-05-20T05:14:14Z</time>
      </trkpt>
      <trkpt lat="42.1120480" lon="-8.8220170">
        <ele>6.2</ele>
        <time>2021-05-20T05:14:15Z</time>
      </trkpt>
      <trkpt lat="42.1120500" lon="-8.8220020">
        <ele>6.2</ele>
        <time>2021-05-20T05:14:16Z</time>
      </trkpt>
      <trkpt lat="42.1120520" lon="-8.8219740">
        <ele>6.2</ele>
        <time>2021-05-20T05:14:17Z</time>
      </trkpt>
      <trkpt lat="42.1120630" lon="-8.8219480">
        <ele>6.2</ele>
        <time>2021-05-20T05:14:18Z</time>
      </trkpt>
      <trkpt lat="42.1120660" lon="-8.8219370">
        <ele>6.2</ele>
        <time>2021-05-20T05:14:19Z</time>
      </trkpt>
      <trkpt lat="42.1120680" lon="-8.8219270">
        <ele>6.2</ele>
        <time>2021-05-20T05:14:20Z</time>
      </trkpt>
      <trkpt lat="42.1120690" lon="-8.8219100">
        <ele>6.1</ele>
        <time>2021-05-20T05:14:21Z</time>
      </trkpt>
      <trkpt lat="42.1120740" lon="-8.8218940">
        <ele>6.1</ele>
        <time>2021-05-20T05:14:22Z</time>
      </trkpt>
      <trkpt lat="42.1120740" lon="-8.8218810">
        <ele>6.1</ele>
        <time>2021-05-20T05:14:23Z</time>
      </trkpt>
      <trkpt lat="42.1120840" lon="-8.8218590">
        <ele>6.1</ele>
        <time>2021-05-20T05:14:24Z</time>
      </trkpt>
      <trkpt lat="42.1120900" lon="-8.8218460">
        <ele>6.1</ele>
        <time>2021-05-20T05:14:25Z</time>
      </trkpt>
      <trkpt lat="42.1120960" lon="-8.8218330">
        <ele>6.1</ele>
        <time>2021-05-20T05:14:26Z</time>
      </trkpt>
      <trkpt lat="42.1121090" lon="-8.8218190">
        <ele>6.1</ele>
        <time>2021-05-20T05:14:27Z</time>
      </trkpt>
      <trkpt lat="42.1121230" lon="-8.8218110">
        <ele>6.1</ele>
        <time>2021-05-20T05:14:28Z</time>
      </trkpt>
      <trkpt lat="42.1121350" lon="-8.8217990">
        <ele>6.1</ele>
        <time>2021-05-20T05:14:29Z</time>
      </trkpt>
      <trkpt lat="42.1121480" lon="-8.8217880">
        <ele>6.1</ele>
        <time>2021-05-20T05:14:30Z</time>
      </trkpt>
      <trkpt lat="42.1121610" lon="-8.8217750">
        <ele>6.1</ele>
        <time>2021-05-20T05:14:31Z</time>
      </trkpt>
      <trkpt lat="42.1121710" lon="-8.8217650">
        <ele>6.1</ele>
        <time>2021-05-20T05:14:32Z</time>
      </trkpt>
      <trkpt lat="42.1121840" lon="-8.8217450">
        <ele>6.1</ele>
        <time>2021-05-20T05:14:33Z</time>
      </trkpt>
      <trkpt lat="42.1121940" lon="-8.8217370">
        <ele>6.1</ele>
        <time>2021-05-20T05:14:34Z</time>
      </trkpt>
      <trkpt lat="42.1122100" lon="-8.8217170">
        <ele>6.1</ele>
        <time>2021-05-20T05:14:35Z</time>
      </trkpt>
      <trkpt lat="42.1122160" lon="-8.8217090">
        <ele>6.1</ele>
        <time>2021-05-20T05:14:36Z</time>
      </trkpt>
      <trkpt lat="42.1122230" lon="-8.8217000">
        <ele>6.1</ele>
        <time>2021-05-20T05:14:37Z</time>
      </trkpt>
      <trkpt lat="42.1122390" lon="-8.8216840">
        <ele>6.1</ele>
        <time>2021-05-20T05:14:38Z</time>
      </trkpt>
      <trkpt lat="42.1122480" lon="-8.8216680">
        <ele>6.1</ele>
        <time>2021-05-20T05:14:39Z</time>
      </trkpt>
      <trkpt lat="42.1122650" lon="-8.8216550">
        <ele>6.1</ele>
        <time>2021-05-20T05:14:40Z</time>
      </trkpt>
      <trkpt lat="42.1122690" lon="-8.8216400">
        <ele>6.1</ele>
        <time>2021-05-20T05:14:41Z</time>
      </trkpt>
      <trkpt lat="42.1122810" lon="-8.8216310">
        <ele>6.0</ele>
        <time>2021-05-20T05:14:42Z</time>
      </trkpt>
      <trkpt lat="42.1122860" lon="-8.8216050">
        <ele>6.0</ele>
        <time>2021-05-20T05:14:43Z</time>
      </trkpt>
      <trkpt lat="42.1123030" lon="-8.8215920">
        <ele>6.0</ele>
        <time>2021-05-20T05:14:44Z</time>
      </trkpt>
      <trkpt lat="42.1123080" lon="-8.8215730">
        <ele>6.0</ele>
        <time>2021-05-20T05:14:45Z</time>
      </trkpt>
      <trkpt lat="42.1123190" lon="-8.8215510">
        <ele>6.0</ele>
        <time>2021-05-20T05:14:46Z</time>
      </trkpt>
      <trkpt lat="42.1123230" lon="-8.8215390">
        <ele>6.0</ele>
        <time>2021-05-20T05:14:47Z</time>
      </trkpt>
      <trkpt lat="42.1123260" lon="-8.8215270">
        <ele>6.0</ele>
        <time>2021-05-20T05:14:48Z</time>
      </trkpt>
      <trkpt lat="42.1123250" lon="-8.8215090">
        <ele>6.0</ele>
        <time>2021-05-20T05:14:49Z</time>
      </trkpt>
      <trkpt lat="42.1123280" lon="-8.8214890">
        <ele>6.0</ele>
        <time>2021-05-20T05:14:50Z</time>
      </trkpt>
      <trkpt lat="42.1123330" lon="-8.8214720">
        <ele>6.0</ele>
        <time>2021-05-20T05:14:51Z</time>
      </trkpt>
      <trkpt lat="42.1123370" lon="-8.8214620">
        <ele>5.9</ele>
        <time>2021-05-20T05:14:52Z</time>
      </trkpt>
      <trkpt lat="42.1123410" lon="-8.8214520">
        <ele>5.9</ele>
        <time>2021-05-20T05:14:53Z</time>
      </trkpt>
      <trkpt lat="42.1123450" lon="-8.8214420">
        <ele>5.9</ele>
        <time>2021-05-20T05:14:54Z</time>
      </trkpt>
      <trkpt lat="42.1123540" lon="-8.8214180">
        <ele>5.9</ele>
        <time>2021-05-20T05:14:55Z</time>
      </trkpt>
      <trkpt lat="42.1123550" lon="-8.8213960">
        <ele>5.9</ele>
        <time>2021-05-20T05:14:56Z</time>
      </trkpt>
      <trkpt lat="42.1123580" lon="-8.8213810">
        <ele>5.9</ele>
        <time>2021-05-20T05:14:57Z</time>
      </trkpt>
      <trkpt lat="42.1123700" lon="-8.8213650">
        <ele>5.9</ele>
        <time>2021-05-20T05:14:58Z</time>
      </trkpt>
      <trkpt lat="42.1123780" lon="-8.8213430">
        <ele>5.9</ele>
        <time>2021-05-20T05:14:59Z</time>
      </trkpt>
      <trkpt lat="42.1123810" lon="-8.8213250">
        <ele>5.9</ele>
        <time>2021-05-20T05:15:00Z</time>
      </trkpt>
      <trkpt lat="42.1123870" lon="-8.8213200">
        <ele>5.9</ele>
        <time>2021-05-20T05:15:01Z</time>
      </trkpt>
      <trkpt lat="42.1123910" lon="-8.8213110">
        <ele>5.9</ele>
        <time>2021-05-20T05:15:02Z</time>
      </trkpt>
      <trkpt lat="42.1123960" lon="-8.8212940">
        <ele>5.9</ele>
        <time>2021-05-20T05:15:03Z</time>
      </trkpt>
      <trkpt lat="42.1124060" lon="-8.8212700">
        <ele>5.9</ele>
        <time>2021-05-20T05:15:04Z</time>
      </trkpt>
      <trkpt lat="42.1124120" lon="-8.8212580">
        <ele>5.9</ele>
        <time>2021-05-20T05:15:05Z</time>
      </trkpt>
      <trkpt lat="42.1124170" lon="-8.8212470">
        <ele>5.9</ele>
        <time>2021-05-20T05:15:06Z</time>
      </trkpt>
      <trkpt lat="42.1124240" lon="-8.8212360">
        <ele>5.9</ele>
        <time>2021-05-20T05:15:07Z</time>
      </trkpt>
      <trkpt lat="42.1124330" lon="-8.8212170">
        <ele>5.8</ele>
        <time>2021-05-20T05:15:08Z</time>
      </trkpt>
      <trkpt lat="42.1124390" lon="-8.8211920">
        <ele>5.8</ele>
        <time>2021-05-20T05:15:09Z</time>
      </trkpt>
      <trkpt lat="42.1124440" lon="-8.8211820">
        <ele>5.8</ele>
        <time>2021-05-20T05:15:10Z</time>
      </trkpt>
      <trkpt lat="42.1124490" lon="-8.8211720">
        <ele>5.8</ele>
        <time>2021-05-20T05:15:11Z</time>
      </trkpt>
      <trkpt lat="42.1124570" lon="-8.8211580">
        <ele>5.8</ele>
        <time>2021-05-20T05:15:12Z</time>
      </trkpt>
      <trkpt lat="42.1124680" lon="-8.8211370">
        <ele>5.8</ele>
        <time>2021-05-20T05:15:13Z</time>
      </trkpt>
      <trkpt lat="42.1124710" lon="-8.8211170">
        <ele>5.8</ele>
        <time>2021-05-20T05:15:14Z</time>
      </trkpt>
      <trkpt lat="42.1124730" lon="-8.8211090">
        <ele>5.8</ele>
        <time>2021-05-20T05:15:15Z</time>
      </trkpt>
      <trkpt lat="42.1124760" lon="-8.8210910">
        <ele>5.8</ele>
        <time>2021-05-20T05:15:16Z</time>
      </trkpt>
      <trkpt lat="42.1124820" lon="-8.8210690">
        <ele>5.8</ele>
        <time>2021-05-20T05:15:17Z</time>
      </trkpt>
      <trkpt lat="42.1124900" lon="-8.8210550">
        <ele>5.8</ele>
        <time>2021-05-20T05:15:18Z</time>
      </trkpt>
      <trkpt lat="42.1124990" lon="-8.8210340">
        <ele>5.8</ele>
        <time>2021-05-20T05:15:19Z</time>
      </trkpt>
      <trkpt lat="42.1125030" lon="-8.8210200">
        <ele>5.8</ele>
        <time>2021-05-20T05:15:20Z</time>
      </trkpt>
      <trkpt lat="42.1125070" lon="-8.8210050">
        <ele>5.8</ele>
        <time>2021-05-20T05:15:21Z</time>
      </trkpt>
      <trkpt lat="42.1125150" lon="-8.8210000">
        <ele>5.8</ele>
        <time>2021-05-20T05:15:22Z</time>
      </trkpt>
      <trkpt lat="42.1125220" lon="-8.8209820">
        <ele>5.8</ele>
        <time>2021-05-20T05:15:23Z</time>
      </trkpt>
      <trkpt lat="42.1125230" lon="-8.8209700">
        <ele>5.8</ele>
        <time>2021-05-20T05:15:24Z</time>
      </trkpt>
      <trkpt lat="42.1125230" lon="-8.8209370">
        <ele>5.7</ele>
        <time>2021-05-20T05:15:25Z</time>
      </trkpt>
      <trkpt lat="42.1125220" lon="-8.8209240">
        <ele>5.7</ele>
        <time>2021-05-20T05:15:26Z</time>
      </trkpt>
      <trkpt lat="42.1125220" lon="-8.8209100">
        <ele>5.7</ele>
        <time>2021-05-20T05:15:27Z</time>
      </trkpt>
      <trkpt lat="42.1125250" lon="-8.8208930">
        <ele>5.7</ele>
        <time>2021-05-20T05:15:28Z</time>
      </trkpt>
      <trkpt lat="42.1125280" lon="-8.8208710">
        <ele>5.7</ele>
        <time>2021-05-20T05:15:29Z</time>
      </trkpt>
      <trkpt lat="42.1125310" lon="-8.8208520">
        <ele>5.7</ele>
        <time>2021-05-20T05:15:30Z</time>
      </trkpt>
      <trkpt lat="42.1125290" lon="-8.8208400">
        <ele>5.7</ele>
        <time>2021-05-20T05:15:31Z</time>
      </trkpt>
      <trkpt lat="42.1125370" lon="-8.8208240">
        <ele>5.7</ele>
        <time>2021-05-20T05:15:32Z</time>
      </trkpt>
      <trkpt lat="42.1125390" lon="-8.8208070">
        <ele>5.7</ele>
        <time>2021-05-20T05:15:33Z</time>
      </trkpt>
      <trkpt lat="42.1125410" lon="-8.8207870">
        <ele>5.7</ele>
        <time>2021-05-20T05:15:34Z</time>
      </trkpt>
      <trkpt lat="42.1125510" lon="-8.8207630">
        <ele>5.7</ele>
        <time>2021-05-20T05:15:35Z</time>
      </trkpt>
      <trkpt lat="42.1125550" lon="-8.8207520">
        <ele>5.7</ele>
        <time>2021-05-20T05:15:36Z</time>
      </trkpt>
      <trkpt lat="42.1125590" lon="-8.8207400">
        <ele>5.7</ele>
        <time>2021-05-20T05:15:37Z</time>
      </trkpt>
      <trkpt lat="42.1125720" lon="-8.8207240">
        <ele>5.7</ele>
        <time>2021-05-20T05:15:38Z</time>
      </trkpt>
      <trkpt lat="42.1125700" lon="-8.8207090">
        <ele>5.7</ele>
        <time>2021-05-20T05:15:39Z</time>
      </trkpt>
      <trkpt lat="42.1125660" lon="-8.8206970">
        <ele>5.7</ele>
        <time>2021-05-20T05:15:40Z</time>
      </trkpt>
      <trkpt lat="42.1125760" lon="-8.8206730">
        <ele>5.7</ele>
        <time>2021-05-20T05:15:41Z</time>
      </trkpt>
      <trkpt lat="42.1125820" lon="-8.8206640">
        <ele>5.7</ele>
        <time>2021-05-20T05:15:42Z</time>
      </trkpt>
      <trkpt lat="42.1125870" lon="-8.8206560">
        <ele>5.7</ele>
        <time>2021-05-20T05:15:43Z</time>
      </trkpt>
      <trkpt lat="42.1125980" lon="-8.8206210">
        <ele>5.6</ele>
        <time>2021-05-20T05:15:44Z</time>
      </trkpt>
      <trkpt lat="42.1126010" lon="-8.8206070">
        <ele>5.6</ele>
        <time>2021-05-20T05:15:45Z</time>
      </trkpt>
      <trkpt lat="42.1126010" lon="-8.8205920">
        <ele>5.6</ele>
        <time>2021-05-20T05:15:46Z</time>
      </trkpt>
      <trkpt lat="42.1125980" lon="-8.8205800">
        <ele>5.6</ele>
        <time>2021-05-20T05:15:47Z</time>
      </trkpt>
      <trkpt lat="42.1126030" lon="-8.8205680">
        <ele>5.6</ele>
        <time>2021-05-20T05:15:48Z</time>
      </trkpt>
      <trkpt lat="42.1126110" lon="-8.8205430">
        <ele>5.6</ele>
        <time>2021-05-20T05:15:49Z</time>
      </trkpt>
      <trkpt lat="42.1126160" lon="-8.8205300">
        <ele>5.6</ele>
        <time>2021-05-20T05:15:50Z</time>
      </trkpt>
      <trkpt lat="42.1126200" lon="-8.8205170">
        <ele>5.6</ele>
        <time>2021-05-20T05:15:51Z</time>
      </trkpt>
      <trkpt lat="42.1126230" lon="-8.8204990">
        <ele>5.6</ele>
        <time>2021-05-20T05:15:52Z</time>
      </trkpt>
      <trkpt lat="42.1126290" lon="-8.8204820">
        <ele>5.6</ele>
        <time>2021-05-20T05:15:53Z</time>
      </trkpt>
      <trkpt lat="42.1126430" lon="-8.8204560">
        <ele>5.6</ele>
        <time>2021-05-20T05:15:54Z</time>
      </trkpt>
      <trkpt lat="42.1126460" lon="-8.8204460">
        <ele>5.6</ele>
        <time>2021-05-20T05:15:55Z</time>
      </trkpt>
      <trkpt lat="42.1126500" lon="-8.8204360">
        <ele>5.6</ele>
        <time>2021-05-20T05:15:56Z</time>
      </trkpt>
      <trkpt lat="42.1126550" lon="-8.8204090">
        <ele>5.6</ele>
        <time>2021-05-20T05:15:57Z</time>
      </trkpt>
      <trkpt lat="42.1126580" lon="-8.8203980">
        <ele>5.6</ele>
        <time>2021-05-20T05:15:58Z</time>
      </trkpt>
      <trkpt lat="42.1126620" lon="-8.8203870">
        <ele>5.6</ele>
        <time>2021-05-20T05:15:59Z</time>
      </trkpt>
      <trkpt lat="42.1126670" lon="-8.8203610">
        <ele>5.6</ele>
        <time>2021-05-20T05:16:00Z</time>
      </trkpt>
      <trkpt lat="42.1126710" lon="-8.8203520">
        <ele>5.6</ele>
        <time>2021-05-20T05:16:01Z</time>
      </trkpt>
      <trkpt lat="42.1126770" lon="-8.8203310">
        <ele>5.6</ele>
        <time>2021-05-20T05:16:02Z</time>
      </trkpt>
      <trkpt lat="42.1126840" lon="-8.8203160">
        <ele>5.6</ele>
        <time>2021-05-20T05:16:03Z</time>
      </trkpt>
      <trkpt lat="42.1126880" lon="-8.8202990">
        <ele>5.6</ele>
        <time>2021-05-20T05:16:04Z</time>
      </trkpt>
      <trkpt lat="42.1126860" lon="-8.8202780">
        <ele>5.6</ele>
        <time>2021-05-20T05:16:05Z</time>
      </trkpt>
      <trkpt lat="42.1126930" lon="-8.8202510">
        <ele>5.6</ele>
        <time>2021-05-20T05:16:06Z</time>
      </trkpt>
      <trkpt lat="42.1126970" lon="-8.8202420">
        <ele>5.6</ele>
        <time>2021-05-20T05:16:07Z</time>
      </trkpt>
      <trkpt lat="42.1127010" lon="-8.8202330">
        <ele>5.5</ele>
        <time>2021-05-20T05:16:08Z</time>
      </trkpt>
      <trkpt lat="42.1127110" lon="-8.8202080">
        <ele>5.5</ele>
        <time>2021-05-20T05:16:09Z</time>
      </trkpt>
      <trkpt lat="42.1127160" lon="-8.8201980">
        <ele>5.5</ele>
        <time>2021-05-20T05:16:10Z</time>
      </trkpt>
      <trkpt lat="42.1127200" lon="-8.8201880">
        <ele>5.5</ele>
        <time>2021-05-20T05:16:11Z</time>
      </trkpt>
      <trkpt lat="42.1127240" lon="-8.8201660">
        <ele>5.5</ele>
        <time>2021-05-20T05:16:12Z</time>
      </trkpt>
      <trkpt lat="42.1127310" lon="-8.8201490">
        <ele>5.5</ele>
        <time>2021-05-20T05:16:13Z</time>
      </trkpt>
      <trkpt lat="42.1127370" lon="-8.8201370">
        <ele>5.5</ele>
        <time>2021-05-20T05:16:14Z</time>
      </trkpt>
      <trkpt lat="42.1127450" lon="-8.8201240">
        <ele>5.5</ele>
        <time>2021-05-20T05:16:15Z</time>
      </trkpt>
      <trkpt lat="42.1127480" lon="-8.8201120">
        <ele>5.5</ele>
        <time>2021-05-20T05:16:16Z</time>
      </trkpt>
      <trkpt lat="42.1127570" lon="-8.8200860">
        <ele>5.5</ele>
        <time>2021-05-20T05:16:17Z</time>
      </trkpt>
      <trkpt lat="42.1127610" lon="-8.8200750">
        <ele>5.5</ele>
        <time>2021-05-20T05:16:18Z</time>
      </trkpt>
      <trkpt lat="42.1127640" lon="-8.8200640">
        <ele>5.5</ele>
        <time>2021-05-20T05:16:19Z</time>
      </trkpt>
      <trkpt lat="42.1127740" lon="-8.8200500">
        <ele>5.5</ele>
        <time>2021-05-20T05:16:20Z</time>
      </trkpt>
      <trkpt lat="42.1127780" lon="-8.8200320">
        <ele>5.5</ele>
        <time>2021-05-20T05:16:21Z</time>
      </trkpt>
      <trkpt lat="42.1127860" lon="-8.8200100">
        <ele>5.5</ele>
        <time>2021-05-20T05:16:22Z</time>
      </trkpt>
      <trkpt lat="42.1127850" lon="-8.8199910">
        <ele>5.5</ele>
        <time>2021-05-20T05:16:23Z</time>
      </trkpt>
      <trkpt lat="42.1127890" lon="-8.8199610">
        <ele>5.5</ele>
        <time>2021-05-20T05:16:24Z</time>
      </trkpt>
      <trkpt lat="42.1127940" lon="-8.8199500">
        <ele>5.5</ele>
        <time>2021-05-20T05:16:25Z</time>
      </trkpt>
      <trkpt lat="42.1127980" lon="-8.8199390">
        <ele>5.5</ele>
        <time>2021-05-20T05:16:26Z</time>
      </trkpt>
      <trkpt lat="42.1128030" lon="-8.8199180">
        <ele>5.5</ele>
        <time>2021-05-20T05:16:27Z</time>
      </trkpt>
      <trkpt lat="42.1128090" lon="-8.8199110">
        <ele>5.5</ele>
        <time>2021-05-20T05:16:28Z</time>
      </trkpt>
      <trkpt lat="42.1128190" lon="-8.8198990">
        <ele>5.5</ele>
        <time>2021-05-20T05:16:29Z</time>
      </trkpt>
      <trkpt lat="42.1128250" lon="-8.8198840">
        <ele>5.4</ele>
        <time>2021-05-20T05:16:30Z</time>
      </trkpt>
      <trkpt lat="42.1128300" lon="-8.8198690">
        <ele>5.4</ele>
        <time>2021-05-20T05:16:31Z</time>
      </trkpt>
      <trkpt lat="42.1128310" lon="-8.8198580">
        <ele>5.4</ele>
        <time>2021-05-20T05:16:32Z</time>
      </trkpt>
      <trkpt lat="42.1128340" lon="-8.8198340">
        <ele>5.4</ele>
        <time>2021-05-20T05:16:33Z</time>
      </trkpt>
      <trkpt lat="42.1128340" lon="-8.8198140">
        <ele>5.4</ele>
        <time>2021-05-20T05:16:34Z</time>
      </trkpt>
      <trkpt lat="42.1128350" lon="-8.8197960">
        <ele>5.4</ele>
        <time>2021-05-20T05:16:35Z</time>
      </trkpt>
      <trkpt lat="42.1128440" lon="-8.8197750">
        <ele>5.4</ele>
        <time>2021-05-20T05:16:36Z</time>
      </trkpt>
      <trkpt lat="42.1128490" lon="-8.8197480">
        <ele>5.4</ele>
        <time>2021-05-20T05:16:37Z</time>
      </trkpt>
      <trkpt lat="42.1128550" lon="-8.8197380">
        <ele>5.4</ele>
        <time>2021-05-20T05:16:38Z</time>
      </trkpt>
      <trkpt lat="42.1128620" lon="-8.8197270">
        <ele>5.4</ele>
        <time>2021-05-20T05:16:39Z</time>
      </trkpt>
      <trkpt lat="42.1128710" lon="-8.8197010">
        <ele>5.4</ele>
        <time>2021-05-20T05:16:40Z</time>
      </trkpt>
      <trkpt lat="42.1128740" lon="-8.8196890">
        <ele>5.4</ele>
        <time>2021-05-20T05:16:41Z</time>
      </trkpt>
      <trkpt lat="42.1128760" lon="-8.8196770">
        <ele>5.4</ele>
        <time>2021-05-20T05:16:42Z</time>
      </trkpt>
      <trkpt lat="42.1128840" lon="-8.8196610">
        <ele>5.4</ele>
        <time>2021-05-20T05:16:43Z</time>
      </trkpt>
      <trkpt lat="42.1128870" lon="-8.8196460">
        <ele>5.4</ele>
        <time>2021-05-20T05:16:44Z</time>
      </trkpt>
      <trkpt lat="42.1128950" lon="-8.8196370">
        <ele>5.4</ele>
        <time>2021-05-20T05:16:45Z</time>
      </trkpt>
      <trkpt lat="42.1128940" lon="-8.8196210">
        <ele>5.4</ele>
        <time>2021-05-20T05:16:46Z</time>
      </trkpt>
      <trkpt lat="42.1129020" lon="-8.8196050">
        <ele>5.4</ele>
        <time>2021-05-20T05:16:47Z</time>
      </trkpt>
      <trkpt lat="42.1129060" lon="-8.8195920">
        <ele>5.4</ele>
        <time>2021-05-20T05:16:48Z</time>
      </trkpt>
      <trkpt lat="42.1129170" lon="-8.8195730">
        <ele>5.4</ele>
        <time>2021-05-20T05:16:49Z</time>
      </trkpt>
      <trkpt lat="42.1129230" lon="-8.8195550">
        <ele>5.4</ele>
        <time>2021-05-20T05:16:50Z</time>
      </trkpt>
      <trkpt lat="42.1129270" lon="-8.8195370">
        <ele>5.4</ele>
        <time>2021-05-20T05:16:51Z</time>
      </trkpt>
      <trkpt lat="42.1129350" lon="-8.8195130">
        <ele>5.4</ele>
        <time>2021-05-20T05:16:52Z</time>
      </trkpt>
      <trkpt lat="42.1129400" lon="-8.8195000">
        <ele>5.4</ele>
        <time>2021-05-20T05:16:53Z</time>
      </trkpt>
      <trkpt lat="42.1129470" lon="-8.8194880">
        <ele>5.4</ele>
        <time>2021-05-20T05:16:54Z</time>
      </trkpt>
      <trkpt lat="42.1129530" lon="-8.8194730">
        <ele>5.4</ele>
        <time>2021-05-20T05:16:55Z</time>
      </trkpt>
      <trkpt lat="42.1129560" lon="-8.8194510">
        <ele>5.4</ele>
        <time>2021-05-20T05:16:56Z</time>
      </trkpt>
      <trkpt lat="42.1129600" lon="-8.8194330">
        <ele>5.4</ele>
        <time>2021-05-20T05:16:57Z</time>
      </trkpt>
      <trkpt lat="42.1129660" lon="-8.8194140">
        <ele>5.4</ele>
        <time>2021-05-20T05:16:58Z</time>
      </trkpt>
      <trkpt lat="42.1129690" lon="-8.8193980">
        <ele>5.4</ele>
        <time>2021-05-20T05:16:59Z</time>
      </trkpt>
      <trkpt lat="42.1129730" lon="-8.8193740">
        <ele>5.4</ele>
        <time>2021-05-20T05:17:00Z</time>
      </trkpt>
      <trkpt lat="42.1129780" lon="-8.8193620">
        <ele>5.4</ele>
        <time>2021-05-20T05:17:01Z</time>
      </trkpt>
      <trkpt lat="42.1129880" lon="-8.8193350">
        <ele>5.4</ele>
        <time>2021-05-20T05:17:02Z</time>
      </trkpt>
      <trkpt lat="42.1129920" lon="-8.8193240">
        <ele>5.4</ele>
        <time>2021-05-20T05:17:03Z</time>
      </trkpt>
      <trkpt lat="42.1129950" lon="-8.8193120">
        <ele>5.4</ele>
        <time>2021-05-20T05:17:04Z</time>
      </trkpt>
      <trkpt lat="42.1130040" lon="-8.8192980">
        <ele>5.4</ele>
        <time>2021-05-20T05:17:05Z</time>
      </trkpt>
      <trkpt lat="42.1130060" lon="-8.8192860">
        <ele>5.4</ele>
        <time>2021-05-20T05:17:06Z</time>
      </trkpt>
      <trkpt lat="42.1130060" lon="-8.8192710">
        <ele>5.4</ele>
        <time>2021-05-20T05:17:07Z</time>
      </trkpt>
      <trkpt lat="42.1130140" lon="-8.8192440">
        <ele>5.3</ele>
        <time>2021-05-20T05:17:08Z</time>
      </trkpt>
      <trkpt lat="42.1130170" lon="-8.8192330">
        <ele>5.3</ele>
        <time>2021-05-20T05:17:09Z</time>
      </trkpt>
      <trkpt lat="42.1130210" lon="-8.8192210">
        <ele>5.3</ele>
        <time>2021-05-20T05:17:10Z</time>
      </trkpt>
      <trkpt lat="42.1130240" lon="-8.8191990">
        <ele>5.3</ele>
        <time>2021-05-20T05:17:11Z</time>
      </trkpt>
      <trkpt lat="42.1130320" lon="-8.8191810">
        <ele>5.3</ele>
        <time>2021-05-20T05:17:12Z</time>
      </trkpt>
      <trkpt lat="42.1130370" lon="-8.8191570">
        <ele>5.3</ele>
        <time>2021-05-20T05:17:13Z</time>
      </trkpt>
      <trkpt lat="42.1130430" lon="-8.8191400">
        <ele>5.3</ele>
        <time>2021-05-20T05:17:14Z</time>
      </trkpt>
      <trkpt lat="42.1130500" lon="-8.8191230">
        <ele>5.3</ele>
        <time>2021-05-20T05:17:15Z</time>
      </trkpt>
      <trkpt lat="42.1130600" lon="-8.8191030">
        <ele>5.3</ele>
        <time>2021-05-20T05:17:16Z</time>
      </trkpt>
      <trkpt lat="42.1130680" lon="-8.8190900">
        <ele>5.3</ele>
        <time>2021-05-20T05:17:17Z</time>
      </trkpt>
      <trkpt lat="42.1130760" lon="-8.8190710">
        <ele>5.3</ele>
        <time>2021-05-20T05:17:18Z</time>
      </trkpt>
      <trkpt lat="42.1130830" lon="-8.8190510">
        <ele>5.3</ele>
        <time>2021-05-20T05:17:19Z</time>
      </trkpt>
      <trkpt lat="42.1130930" lon="-8.8190430">
        <ele>5.3</ele>
        <time>2021-05-20T05:17:20Z</time>
      </trkpt>
      <trkpt lat="42.1131040" lon="-8.8190170">
        <ele>5.3</ele>
        <time>2021-05-20T05:17:21Z</time>
      </trkpt>
      <trkpt lat="42.1131090" lon="-8.8190060">
        <ele>5.3</ele>
        <time>2021-05-20T05:17:22Z</time>
      </trkpt>
      <trkpt lat="42.1131140" lon="-8.8189940">
        <ele>5.3</ele>
        <time>2021-05-20T05:17:23Z</time>
      </trkpt>
      <trkpt lat="42.1131190" lon="-8.8189770">
        <ele>5.3</ele>
        <time>2021-05-20T05:17:24Z</time>
      </trkpt>
      <trkpt lat="42.1131270" lon="-8.8189600">
        <ele>5.3</ele>
        <time>2021-05-20T05:17:25Z</time>
      </trkpt>
      <trkpt lat="42.1131360" lon="-8.8189430">
        <ele>5.3</ele>
        <time>2021-05-20T05:17:26Z</time>
      </trkpt>
      <trkpt lat="42.1131460" lon="-8.8189240">
        <ele>5.3</ele>
        <time>2021-05-20T05:17:27Z</time>
      </trkpt>
      <trkpt lat="42.1131530" lon="-8.8189060">
        <ele>5.3</ele>
        <time>2021-05-20T05:17:28Z</time>
      </trkpt>
      <trkpt lat="42.1131600" lon="-8.8188900">
        <ele>5.3</ele>
        <time>2021-05-20T05:17:29Z</time>
      </trkpt>
      <trkpt lat="42.1131650" lon="-8.8188600">
        <ele>5.3</ele>
        <time>2021-05-20T05:17:30Z</time>
      </trkpt>
      <trkpt lat="42.1131670" lon="-8.8188490">
        <ele>5.3</ele>
        <time>2021-05-20T05:17:31Z</time>
      </trkpt>
      <trkpt lat="42.1131690" lon="-8.8188370">
        <ele>5.3</ele>
        <time>2021-05-20T05:17:32Z</time>
      </trkpt>
      <trkpt lat="42.1131780" lon="-8.8188230">
        <ele>5.4</ele>
        <time>2021-05-20T05:17:33Z</time>
      </trkpt>
      <trkpt lat="42.1131850" lon="-8.8188060">
        <ele>5.4</ele>
        <time>2021-05-20T05:17:34Z</time>
      </trkpt>
      <trkpt lat="42.1131910" lon="-8.8187880">
        <ele>5.4</ele>
        <time>2021-05-20T05:17:35Z</time>
      </trkpt>
      <trkpt lat="42.1132000" lon="-8.8187730">
        <ele>5.4</ele>
        <time>2021-05-20T05:17:36Z</time>
      </trkpt>
      <trkpt lat="42.1132110" lon="-8.8187610">
        <ele>5.4</ele>
        <time>2021-05-20T05:17:37Z</time>
      </trkpt>
      <trkpt lat="42.1132190" lon="-8.8187450">
        <ele>5.4</ele>
        <time>2021-05-20T05:17:38Z</time>
      </trkpt>
      <trkpt lat="42.1132300" lon="-8.8187210">
        <ele>5.4</ele>
        <time>2021-05-20T05:17:39Z</time>
      </trkpt>
      <trkpt lat="42.1132330" lon="-8.8187110">
        <ele>5.4</ele>
        <time>2021-05-20T05:17:40Z</time>
      </trkpt>
      <trkpt lat="42.1132370" lon="-8.8187020">
        <ele>5.4</ele>
        <time>2021-05-20T05:17:41Z</time>
      </trkpt>
      <trkpt lat="42.1132420" lon="-8.8186920">
        <ele>5.4</ele>
        <time>2021-05-20T05:17:42Z</time>
      </trkpt>
      <trkpt lat="42.1132490" lon="-8.8186770">
        <ele>5.4</ele>
        <time>2021-05-20T05:17:43Z</time>
      </trkpt>
      <trkpt lat="42.1132500" lon="-8.8186630">
        <ele>5.4</ele>
        <time>2021-05-20T05:17:44Z</time>
      </trkpt>
      <trkpt lat="42.1132520" lon="-8.8186510">
        <ele>5.4</ele>
        <time>2021-05-20T05:17:45Z</time>
      </trkpt>
      <trkpt lat="42.1132520" lon="-8.8186390">
        <ele>5.4</ele>
        <time>2021-05-20T05:17:46Z</time>
      </trkpt>
      <trkpt lat="42.1132560" lon="-8.8186240">
        <ele>5.4</ele>
        <time>2021-05-20T05:17:47Z</time>
      </trkpt>
      <trkpt lat="42.1132630" lon="-8.8186090">
        <ele>5.4</ele>
        <time>2021-05-20T05:17:48Z</time>
      </trkpt>
      <trkpt lat="42.1132640" lon="-8.8185990">
        <ele>5.4</ele>
        <time>2021-05-20T05:17:49Z</time>
      </trkpt>
      <trkpt lat="42.1132630" lon="-8.8185930">
        <ele>5.4</ele>
        <time>2021-05-20T05:17:50Z</time>
      </trkpt>
      <trkpt lat="42.1132660" lon="-8.8185800">
        <ele>5.4</ele>
        <time>2021-05-20T05:17:51Z</time>
      </trkpt>
      <trkpt lat="42.1132650" lon="-8.8185670">
        <ele>5.4</ele>
        <time>2021-05-20T05:17:52Z</time>
      </trkpt>
      <trkpt lat="42.1132770" lon="-8.8185540">
        <ele>5.5</ele>
        <time>2021-05-20T05:17:53Z</time>
      </trkpt>
      <trkpt lat="42.1132760" lon="-8.8185330">
        <ele>5.5</ele>
        <time>2021-05-20T05:17:54Z</time>
      </trkpt>
      <trkpt lat="42.1132780" lon="-8.8185160">
        <ele>5.5</ele>
        <time>2021-05-20T05:17:55Z</time>
      </trkpt>
      <trkpt lat="42.1132770" lon="-8.8184860">
        <ele>5.5</ele>
        <time>2021-05-20T05:17:56Z</time>
      </trkpt>
      <trkpt lat="42.1132900" lon="-8.8184630">
        <ele>5.5</ele>
        <time>2021-05-20T05:17:57Z</time>
      </trkpt>
      <trkpt lat="42.1132960" lon="-8.8184530">
        <ele>5.5</ele>
        <time>2021-05-20T05:17:58Z</time>
      </trkpt>
      <trkpt lat="42.1133020" lon="-8.8184440">
        <ele>5.5</ele>
        <time>2021-05-20T05:17:59Z</time>
      </trkpt>
      <trkpt lat="42.1133080" lon="-8.8184370">
        <ele>5.5</ele>
        <time>2021-05-20T05:18:00Z</time>
      </trkpt>
      <trkpt lat="42.1133110" lon="-8.8184210">
        <ele>5.5</ele>
        <time>2021-05-20T05:18:01Z</time>
      </trkpt>
      <trkpt lat="42.1133180" lon="-8.8184080">
        <ele>5.5</ele>
        <time>2021-05-20T05:18:02Z</time>
      </trkpt>
      <trkpt lat="42.1133290" lon="-8.8183880">
        <ele>5.5</ele>
        <time>2021-05-20T05:18:03Z</time>
      </trkpt>
      <trkpt lat="42.1133330" lon="-8.8183730">
        <ele>5.5</ele>
        <time>2021-05-20T05:18:04Z</time>
      </trkpt>
      <trkpt lat="42.1133350" lon="-8.8183450">
        <ele>5.5</ele>
        <time>2021-05-20T05:18:05Z</time>
      </trkpt>
      <trkpt lat="42.1133380" lon="-8.8183340">
        <ele>5.4</ele>
        <time>2021-05-20T05:18:06Z</time>
      </trkpt>
      <trkpt lat="42.1133420" lon="-8.8183220">
        <ele>5.4</ele>
        <time>2021-05-20T05:18:07Z</time>
      </trkpt>
      <trkpt lat="42.1133450" lon="-8.8183090">
        <ele>5.4</ele>
        <time>2021-05-20T05:18:08Z</time>
      </trkpt>
      <trkpt lat="42.1133510" lon="-8.8182940">
        <ele>5.3</ele>
        <time>2021-05-20T05:18:09Z</time>
      </trkpt>
      <trkpt lat="42.1133560" lon="-8.8182840">
        <ele>5.3</ele>
        <time>2021-05-20T05:18:10Z</time>
      </trkpt>
      <trkpt lat="42.1133610" lon="-8.8182650">
        <ele>5.3</ele>
        <time>2021-05-20T05:18:11Z</time>
      </trkpt>
      <trkpt lat="42.1133560" lon="-8.8182570">
        <ele>5.3</ele>
        <time>2021-05-20T05:18:12Z</time>
      </trkpt>
      <trkpt lat="42.1133620" lon="-8.8182370">
        <ele>5.3</ele>
        <time>2021-05-20T05:18:13Z</time>
      </trkpt>
      <trkpt lat="42.1133700" lon="-8.8182120">
        <ele>5.3</ele>
        <time>2021-05-20T05:18:14Z</time>
      </trkpt>
      <trkpt lat="42.1133760" lon="-8.8182030">
        <ele>5.3</ele>
        <time>2021-05-20T05:18:15Z</time>
      </trkpt>
      <trkpt lat="42.1133810" lon="-8.8181950">
        <ele>5.3</ele>
        <time>2021-05-20T05:18:16Z</time>
      </trkpt>
      <trkpt lat="42.1133900" lon="-8.8181740">
        <ele>5.3</ele>
        <time>2021-05-20T05:18:17Z</time>
      </trkpt>
      <trkpt lat="42.1133970" lon="-8.8181610">
        <ele>5.3</ele>
        <time>2021-05-20T05:18:18Z</time>
      </trkpt>
      <trkpt lat="42.1134000" lon="-8.8181350">
        <ele>5.3</ele>
        <time>2021-05-20T05:18:19Z</time>
      </trkpt>
      <trkpt lat="42.1134040" lon="-8.8181320">
        <ele>5.3</ele>
        <time>2021-05-20T05:18:20Z</time>
      </trkpt>
      <trkpt lat="42.1134070" lon="-8.8181210">
        <ele>5.3</ele>
        <time>2021-05-20T05:18:21Z</time>
      </trkpt>
      <trkpt lat="42.1134140" lon="-8.8180980">
        <ele>5.3</ele>
        <time>2021-05-20T05:18:22Z</time>
      </trkpt>
      <trkpt lat="42.1134210" lon="-8.8180820">
        <ele>5.3</ele>
        <time>2021-05-20T05:18:23Z</time>
      </trkpt>
      <trkpt lat="42.1134210" lon="-8.8180710">
        <ele>5.3</ele>
        <time>2021-05-20T05:18:24Z</time>
      </trkpt>
      <trkpt lat="42.1134330" lon="-8.8180590">
        <ele>5.3</ele>
        <time>2021-05-20T05:18:25Z</time>
      </trkpt>
      <trkpt lat="42.1134350" lon="-8.8180390">
        <ele>5.3</ele>
        <time>2021-05-20T05:18:26Z</time>
      </trkpt>
      <trkpt lat="42.1134460" lon="-8.8180220">
        <ele>5.3</ele>
        <time>2021-05-20T05:18:27Z</time>
      </trkpt>
      <trkpt lat="42.1134510" lon="-8.8180090">
        <ele>5.3</ele>
        <time>2021-05-20T05:18:28Z</time>
      </trkpt>
      <trkpt lat="42.1134550" lon="-8.8179940">
        <ele>5.3</ele>
        <time>2021-05-20T05:18:29Z</time>
      </trkpt>
      <trkpt lat="42.1134610" lon="-8.8179830">
        <ele>5.4</ele>
        <time>2021-05-20T05:18:30Z</time>
      </trkpt>
      <trkpt lat="42.1134640" lon="-8.8179640">
        <ele>5.4</ele>
        <time>2021-05-20T05:18:31Z</time>
      </trkpt>
      <trkpt lat="42.1134810" lon="-8.8179520">
        <ele>5.4</ele>
        <time>2021-05-20T05:18:32Z</time>
      </trkpt>
      <trkpt lat="42.1134920" lon="-8.8179350">
        <ele>5.4</ele>
        <time>2021-05-20T05:18:33Z</time>
      </trkpt>
      <trkpt lat="42.1134890" lon="-8.8179140">
        <ele>5.4</ele>
        <time>2021-05-20T05:18:34Z</time>
      </trkpt>
      <trkpt lat="42.1134880" lon="-8.8178970">
        <ele>5.4</ele>
        <time>2021-05-20T05:18:35Z</time>
      </trkpt>
      <trkpt lat="42.1134970" lon="-8.8178590">
        <ele>5.4</ele>
        <time>2021-05-20T05:18:36Z</time>
      </trkpt>
      <trkpt lat="42.1134970" lon="-8.8178490">
        <ele>5.4</ele>
        <time>2021-05-20T05:18:37Z</time>
      </trkpt>
      <trkpt lat="42.1135090" lon="-8.8178260">
        <ele>5.4</ele>
        <time>2021-05-20T05:18:38Z</time>
      </trkpt>
      <trkpt lat="42.1135150" lon="-8.8178170">
        <ele>5.4</ele>
        <time>2021-05-20T05:18:39Z</time>
      </trkpt>
      <trkpt lat="42.1135220" lon="-8.8178080">
        <ele>5.4</ele>
        <time>2021-05-20T05:18:40Z</time>
      </trkpt>
      <trkpt lat="42.1135250" lon="-8.8177870">
        <ele>5.4</ele>
        <time>2021-05-20T05:18:41Z</time>
      </trkpt>
      <trkpt lat="42.1135310" lon="-8.8177790">
        <ele>5.4</ele>
        <time>2021-05-20T05:18:42Z</time>
      </trkpt>
      <trkpt lat="42.1135290" lon="-8.8177720">
        <ele>5.4</ele>
        <time>2021-05-20T05:18:43Z</time>
      </trkpt>
      <trkpt lat="42.1135210" lon="-8.8177560">
        <ele>5.4</ele>
        <time>2021-05-20T05:18:44Z</time>
      </trkpt>
      <trkpt lat="42.1135150" lon="-8.8177420">
        <ele>5.4</ele>
        <time>2021-05-20T05:18:45Z</time>
      </trkpt>
      <trkpt lat="42.1135260" lon="-8.8177300">
        <ele>5.4</ele>
        <time>2021-05-20T05:18:46Z</time>
      </trkpt>
      <trkpt lat="42.1135360" lon="-8.8177080">
        <ele>5.4</ele>
        <time>2021-05-20T05:18:47Z</time>
      </trkpt>
      <trkpt lat="42.1135420" lon="-8.8177020">
        <ele>5.4</ele>
        <time>2021-05-20T05:18:48Z</time>
      </trkpt>
      <trkpt lat="42.1135470" lon="-8.8176960">
        <ele>5.4</ele>
        <time>2021-05-20T05:18:49Z</time>
      </trkpt>
      <trkpt lat="42.1135530" lon="-8.8176900">
        <ele>5.4</ele>
        <time>2021-05-20T05:18:50Z</time>
      </trkpt>
      <trkpt lat="42.1135650" lon="-8.8176800">
        <ele>5.4</ele>
        <time>2021-05-20T05:18:51Z</time>
      </trkpt>
      <trkpt lat="42.1135770" lon="-8.8176690">
        <ele>5.4</ele>
        <time>2021-05-20T05:18:52Z</time>
      </trkpt>
      <trkpt lat="42.1135910" lon="-8.8176490">
        <ele>5.4</ele>
        <time>2021-05-20T05:18:53Z</time>
      </trkpt>
      <trkpt lat="42.1135970" lon="-8.8176410">
        <ele>5.4</ele>
        <time>2021-05-20T05:18:54Z</time>
      </trkpt>
      <trkpt lat="42.1136030" lon="-8.8176320">
        <ele>5.4</ele>
        <time>2021-05-20T05:18:55Z</time>
      </trkpt>
      <trkpt lat="42.1136120" lon="-8.8176220">
        <ele>5.4</ele>
        <time>2021-05-20T05:18:56Z</time>
      </trkpt>
      <trkpt lat="42.1136180" lon="-8.8176070">
        <ele>5.4</ele>
        <time>2021-05-20T05:18:57Z</time>
      </trkpt>
      <trkpt lat="42.1136220" lon="-8.8176030">
        <ele>5.4</ele>
        <time>2021-05-20T05:18:58Z</time>
      </trkpt>
      <trkpt lat="42.1136370" lon="-8.8175860">
        <ele>5.4</ele>
        <time>2021-05-20T05:18:59Z</time>
      </trkpt>
      <trkpt lat="42.1136440" lon="-8.8175770">
        <ele>5.4</ele>
        <time>2021-05-20T05:19:00Z</time>
      </trkpt>
      <trkpt lat="42.1136500" lon="-8.8175680">
        <ele>5.4</ele>
        <time>2021-05-20T05:19:01Z</time>
      </trkpt>
      <trkpt lat="42.1136620" lon="-8.8175520">
        <ele>5.4</ele>
        <time>2021-05-20T05:19:02Z</time>
      </trkpt>
      <trkpt lat="42.1136700" lon="-8.8175420">
        <ele>5.4</ele>
        <time>2021-05-20T05:19:03Z</time>
      </trkpt>
      <trkpt lat="42.1136770" lon="-8.8175330">
        <ele>5.4</ele>
        <time>2021-05-20T05:19:04Z</time>
      </trkpt>
      <trkpt lat="42.1136910" lon="-8.8175170">
        <ele>5.3</ele>
        <time>2021-05-20T05:19:05Z</time>
      </trkpt>
      <trkpt lat="42.1136970" lon="-8.8175080">
        <ele>5.3</ele>
        <time>2021-05-20T05:19:06Z</time>
      </trkpt>
      <trkpt lat="42.1137040" lon="-8.8174990">
        <ele>5.3</ele>
        <time>2021-05-20T05:19:07Z</time>
      </trkpt>
      <trkpt lat="42.1137220" lon="-8.8174760">
        <ele>5.3</ele>
        <time>2021-05-20T05:19:08Z</time>
      </trkpt>
      <trkpt lat="42.1137300" lon="-8.8174670">
        <ele>5.3</ele>
        <time>2021-05-20T05:19:09Z</time>
      </trkpt>
      <trkpt lat="42.1137380" lon="-8.8174580">
        <ele>5.3</ele>
        <time>2021-05-20T05:19:10Z</time>
      </trkpt>
      <trkpt lat="42.1137440" lon="-8.8174420">
        <ele>5.3</ele>
        <time>2021-05-20T05:19:11Z</time>
      </trkpt>
      <trkpt lat="42.1137560" lon="-8.8174210">
        <ele>5.3</ele>
        <time>2021-05-20T05:19:12Z</time>
      </trkpt>
      <trkpt lat="42.1137720" lon="-8.8174050">
        <ele>5.3</ele>
        <time>2021-05-20T05:19:13Z</time>
      </trkpt>
      <trkpt lat="42.1137790" lon="-8.8173960">
        <ele>5.3</ele>
        <time>2021-05-20T05:19:14Z</time>
      </trkpt>
      <trkpt lat="42.1137850" lon="-8.8173860">
        <ele>5.3</ele>
        <time>2021-05-20T05:19:15Z</time>
      </trkpt>
      <trkpt lat="42.1138020" lon="-8.8173650">
        <ele>5.3</ele>
        <time>2021-05-20T05:19:16Z</time>
      </trkpt>
      <trkpt lat="42.1138070" lon="-8.8173550">
        <ele>5.3</ele>
        <time>2021-05-20T05:19:17Z</time>
      </trkpt>
      <trkpt lat="42.1138130" lon="-8.8173460">
        <ele>5.3</ele>
        <time>2021-05-20T05:19:18Z</time>
      </trkpt>
      <trkpt lat="42.1138200" lon="-8.8173270">
        <ele>5.3</ele>
        <time>2021-05-20T05:19:19Z</time>
      </trkpt>
      <trkpt lat="42.1138330" lon="-8.8173110">
        <ele>5.3</ele>
        <time>2021-05-20T05:19:20Z</time>
      </trkpt>
      <trkpt lat="42.1138490" lon="-8.8172930">
        <ele>5.3</ele>
        <time>2021-05-20T05:19:21Z</time>
      </trkpt>
      <trkpt lat="42.1138550" lon="-8.8172830">
        <ele>5.2</ele>
        <time>2021-05-20T05:19:22Z</time>
      </trkpt>
      <trkpt lat="42.1138620" lon="-8.8172730">
        <ele>5.2</ele>
        <time>2021-05-20T05:19:23Z</time>
      </trkpt>
      <trkpt lat="42.1138750" lon="-8.8172570">
        <ele>5.2</ele>
        <time>2021-05-20T05:19:24Z</time>
      </trkpt>
      <trkpt lat="42.1138820" lon="-8.8172430">
        <ele>5.2</ele>
        <time>2021-05-20T05:19:25Z</time>
      </trkpt>
      <trkpt lat="42.1138940" lon="-8.8172210">
        <ele>5.2</ele>
        <time>2021-05-20T05:19:26Z</time>
      </trkpt>
      <trkpt lat="42.1138990" lon="-8.8172110">
        <ele>5.2</ele>
        <time>2021-05-20T05:19:27Z</time>
      </trkpt>
      <trkpt lat="42.1139040" lon="-8.8172020">
        <ele>5.2</ele>
        <time>2021-05-20T05:19:28Z</time>
      </trkpt>
      <trkpt lat="42.1139150" lon="-8.8171930">
        <ele>5.2</ele>
        <time>2021-05-20T05:19:29Z</time>
      </trkpt>
      <trkpt lat="42.1139250" lon="-8.8171780">
        <ele>5.2</ele>
        <time>2021-05-20T05:19:30Z</time>
      </trkpt>
      <trkpt lat="42.1139390" lon="-8.8171670">
        <ele>5.2</ele>
        <time>2021-05-20T05:19:31Z</time>
      </trkpt>
      <trkpt lat="42.1139520" lon="-8.8171520">
        <ele>5.2</ele>
        <time>2021-05-20T05:19:32Z</time>
      </trkpt>
      <trkpt lat="42.1139620" lon="-8.8171360">
        <ele>5.2</ele>
        <time>2021-05-20T05:19:33Z</time>
      </trkpt>
      <trkpt lat="42.1139760" lon="-8.8171220">
        <ele>5.2</ele>
        <time>2021-05-20T05:19:34Z</time>
      </trkpt>
      <trkpt lat="42.1139830" lon="-8.8171220">
        <ele>5.2</ele>
        <time>2021-05-20T05:19:35Z</time>
      </trkpt>
      <trkpt lat="42.1139970" lon="-8.8171150">
        <ele>5.2</ele>
        <time>2021-05-20T05:19:36Z</time>
      </trkpt>
      <trkpt lat="42.1140050" lon="-8.8171030">
        <ele>5.2</ele>
        <time>2021-05-20T05:19:37Z</time>
      </trkpt>
      <trkpt lat="42.1140100" lon="-8.8171020">
        <ele>5.2</ele>
        <time>2021-05-20T05:19:38Z</time>
      </trkpt>
      <trkpt lat="42.1140130" lon="-8.8170940">
        <ele>5.2</ele>
        <time>2021-05-20T05:19:39Z</time>
      </trkpt>
      <trkpt lat="42.1140160" lon="-8.8170800">
        <ele>5.3</ele>
        <time>2021-05-20T05:19:40Z</time>
      </trkpt>
      <trkpt lat="42.1140270" lon="-8.8170640">
        <ele>5.3</ele>
        <time>2021-05-20T05:19:41Z</time>
      </trkpt>
      <trkpt lat="42.1140380" lon="-8.8170560">
        <ele>5.3</ele>
        <time>2021-05-20T05:19:42Z</time>
      </trkpt>
      <trkpt lat="42.1140480" lon="-8.8170450">
        <ele>5.3</ele>
        <time>2021-05-20T05:19:43Z</time>
      </trkpt>
      <trkpt lat="42.1140490" lon="-8.8170390">
        <ele>5.3</ele>
        <time>2021-05-20T05:19:44Z</time>
      </trkpt>
      <trkpt lat="42.1140610" lon="-8.8170240">
        <ele>5.3</ele>
        <time>2021-05-20T05:19:45Z</time>
      </trkpt>
      <trkpt lat="42.1140650" lon="-8.8170160">
        <ele>5.3</ele>
        <time>2021-05-20T05:19:46Z</time>
      </trkpt>
      <trkpt lat="42.1140730" lon="-8.8170120">
        <ele>5.3</ele>
        <time>2021-05-20T05:19:47Z</time>
      </trkpt>
      <trkpt lat="42.1140790" lon="-8.8169930">
        <ele>5.3</ele>
        <time>2021-05-20T05:19:48Z</time>
      </trkpt>
      <trkpt lat="42.1140820" lon="-8.8169800">
        <ele>5.3</ele>
        <time>2021-05-20T05:19:49Z</time>
      </trkpt>
      <trkpt lat="42.1140860" lon="-8.8169750">
        <ele>5.3</ele>
        <time>2021-05-20T05:19:50Z</time>
      </trkpt>
      <trkpt lat="42.1141030" lon="-8.8169540">
        <ele>5.3</ele>
        <time>2021-05-20T05:19:51Z</time>
      </trkpt>
      <trkpt lat="42.1141080" lon="-8.8169480">
        <ele>5.3</ele>
        <time>2021-05-20T05:19:52Z</time>
      </trkpt>
      <trkpt lat="42.1141140" lon="-8.8169410">
        <ele>5.3</ele>
        <time>2021-05-20T05:19:53Z</time>
      </trkpt>
      <trkpt lat="42.1141180" lon="-8.8169260">
        <ele>5.3</ele>
        <time>2021-05-20T05:19:54Z</time>
      </trkpt>
      <trkpt lat="42.1141220" lon="-8.8169160">
        <ele>5.4</ele>
        <time>2021-05-20T05:19:55Z</time>
      </trkpt>
      <trkpt lat="42.1141290" lon="-8.8169070">
        <ele>5.4</ele>
        <time>2021-05-20T05:19:56Z</time>
      </trkpt>
      <trkpt lat="42.1141370" lon="-8.8168900">
        <ele>5.4</ele>
        <time>2021-05-20T05:19:57Z</time>
      </trkpt>
      <trkpt lat="42.1141470" lon="-8.8168810">
        <ele>5.3</ele>
        <time>2021-05-20T05:19:58Z</time>
      </trkpt>
      <trkpt lat="42.1141560" lon="-8.8168710">
        <ele>5.3</ele>
        <time>2021-05-20T05:19:59Z</time>
      </trkpt>
      <trkpt lat="42.1141720" lon="-8.8168510">
        <ele>5.3</ele>
        <time>2021-05-20T05:20:00Z</time>
      </trkpt>
      <trkpt lat="42.1141800" lon="-8.8168400">
        <ele>5.3</ele>
        <time>2021-05-20T05:20:01Z</time>
      </trkpt>
      <trkpt lat="42.1141880" lon="-8.8168300">
        <ele>5.3</ele>
        <time>2021-05-20T05:20:02Z</time>
      </trkpt>
      <trkpt lat="42.1141990" lon="-8.8168140">
        <ele>5.3</ele>
        <time>2021-05-20T05:20:03Z</time>
      </trkpt>
      <trkpt lat="42.1142120" lon="-8.8168010">
        <ele>5.3</ele>
        <time>2021-05-20T05:20:04Z</time>
      </trkpt>
      <trkpt lat="42.1142210" lon="-8.8167930">
        <ele>5.3</ele>
        <time>2021-05-20T05:20:05Z</time>
      </trkpt>
      <trkpt lat="42.1142380" lon="-8.8167900">
        <ele>5.3</ele>
        <time>2021-05-20T05:20:06Z</time>
      </trkpt>
      <trkpt lat="42.1142520" lon="-8.8167710">
        <ele>5.3</ele>
        <time>2021-05-20T05:20:07Z</time>
      </trkpt>
      <trkpt lat="42.1142570" lon="-8.8167620">
        <ele>5.3</ele>
        <time>2021-05-20T05:20:08Z</time>
      </trkpt>
      <trkpt lat="42.1142630" lon="-8.8167540">
        <ele>5.3</ele>
        <time>2021-05-20T05:20:09Z</time>
      </trkpt>
      <trkpt lat="42.1142720" lon="-8.8167460">
        <ele>5.3</ele>
        <time>2021-05-20T05:20:10Z</time>
      </trkpt>
      <trkpt lat="42.1142830" lon="-8.8167380">
        <ele>5.3</ele>
        <time>2021-05-20T05:20:11Z</time>
      </trkpt>
      <trkpt lat="42.1142880" lon="-8.8167290">
        <ele>5.3</ele>
        <time>2021-05-20T05:20:12Z</time>
      </trkpt>
      <trkpt lat="42.1142990" lon="-8.8167100">
        <ele>5.3</ele>
        <time>2021-05-20T05:20:13Z</time>
      </trkpt>
      <trkpt lat="42.1143120" lon="-8.8166950">
        <ele>5.3</ele>
        <time>2021-05-20T05:20:14Z</time>
      </trkpt>
      <trkpt lat="42.1143230" lon="-8.8166840">
        <ele>5.3</ele>
        <time>2021-05-20T05:20:15Z</time>
      </trkpt>
      <trkpt lat="42.1143340" lon="-8.8166690">
        <ele>5.3</ele>
        <time>2021-05-20T05:20:16Z</time>
      </trkpt>
      <trkpt lat="42.1143410" lon="-8.8166580">
        <ele>5.3</ele>
        <time>2021-05-20T05:20:17Z</time>
      </trkpt>
      <trkpt lat="42.1143470" lon="-8.8166450">
        <ele>5.3</ele>
        <time>2021-05-20T05:20:18Z</time>
      </trkpt>
      <trkpt lat="42.1143530" lon="-8.8166350">
        <ele>5.3</ele>
        <time>2021-05-20T05:20:19Z</time>
      </trkpt>
      <trkpt lat="42.1143640" lon="-8.8166220">
        <ele>5.3</ele>
        <time>2021-05-20T05:20:20Z</time>
      </trkpt>
      <trkpt lat="42.1143710" lon="-8.8166180">
        <ele>5.3</ele>
        <time>2021-05-20T05:20:21Z</time>
      </trkpt>
      <trkpt lat="42.1143780" lon="-8.8166040">
        <ele>5.3</ele>
        <time>2021-05-20T05:20:22Z</time>
      </trkpt>
      <trkpt lat="42.1143900" lon="-8.8165940">
        <ele>5.3</ele>
        <time>2021-05-20T05:20:23Z</time>
      </trkpt>
      <trkpt lat="42.1144030" lon="-8.8165770">
        <ele>5.3</ele>
        <time>2021-05-20T05:20:24Z</time>
      </trkpt>
      <trkpt lat="42.1144230" lon="-8.8165500">
        <ele>5.3</ele>
        <time>2021-05-20T05:20:25Z</time>
      </trkpt>
      <trkpt lat="42.1144300" lon="-8.8165400">
        <ele>5.3</ele>
        <time>2021-05-20T05:20:26Z</time>
      </trkpt>
      <trkpt lat="42.1144400" lon="-8.8165400">
        <ele>5.3</ele>
        <time>2021-05-20T05:20:27Z</time>
      </trkpt>
      <trkpt lat="42.1144500" lon="-8.8165340">
        <ele>5.3</ele>
        <time>2021-05-20T05:20:28Z</time>
      </trkpt>
      <trkpt lat="42.1144620" lon="-8.8165240">
        <ele>5.3</ele>
        <time>2021-05-20T05:20:29Z</time>
      </trkpt>
      <trkpt lat="42.1144670" lon="-8.8165090">
        <ele>5.3</ele>
        <time>2021-05-20T05:20:30Z</time>
      </trkpt>
      <trkpt lat="42.1144820" lon="-8.8164970">
        <ele>5.3</ele>
        <time>2021-05-20T05:20:31Z</time>
      </trkpt>
      <trkpt lat="42.1144940" lon="-8.8164810">
        <ele>5.3</ele>
        <time>2021-05-20T05:20:32Z</time>
      </trkpt>
      <trkpt lat="42.1145050" lon="-8.8164710">
        <ele>5.3</ele>
        <time>2021-05-20T05:20:33Z</time>
      </trkpt>
      <trkpt lat="42.1145190" lon="-8.8164570">
        <ele>5.3</ele>
        <time>2021-05-20T05:20:34Z</time>
      </trkpt>
      <trkpt lat="42.1145320" lon="-8.8164480">
        <ele>5.3</ele>
        <time>2021-05-20T05:20:35Z</time>
      </trkpt>
      <trkpt lat="42.1145440" lon="-8.8164410">
        <ele>5.3</ele>
        <time>2021-05-20T05:20:36Z</time>
      </trkpt>
      <trkpt lat="42.1145490" lon="-8.8164280">
        <ele>5.3</ele>
        <time>2021-05-20T05:20:37Z</time>
      </trkpt>
      <trkpt lat="42.1145600" lon="-8.8164170">
        <ele>5.3</ele>
        <time>2021-05-20T05:20:38Z</time>
      </trkpt>
      <trkpt lat="42.1145730" lon="-8.8163950">
        <ele>5.3</ele>
        <time>2021-05-20T05:20:39Z</time>
      </trkpt>
      <trkpt lat="42.1145770" lon="-8.8163850">
        <ele>5.3</ele>
        <time>2021-05-20T05:20:40Z</time>
      </trkpt>
      <trkpt lat="42.1145820" lon="-8.8163750">
        <ele>5.4</ele>
        <time>2021-05-20T05:20:41Z</time>
      </trkpt>
      <trkpt lat="42.1145970" lon="-8.8163590">
        <ele>5.4</ele>
        <time>2021-05-20T05:20:42Z</time>
      </trkpt>
      <trkpt lat="42.1146050" lon="-8.8163550">
        <ele>5.4</ele>
        <time>2021-05-20T05:20:43Z</time>
      </trkpt>
      <trkpt lat="42.1146140" lon="-8.8163510">
        <ele>5.4</ele>
        <time>2021-05-20T05:20:44Z</time>
      </trkpt>
      <trkpt lat="42.1146300" lon="-8.8163420">
        <ele>5.4</ele>
        <time>2021-05-20T05:20:45Z</time>
      </trkpt>
      <trkpt lat="42.1146410" lon="-8.8163380">
        <ele>5.4</ele>
        <time>2021-05-20T05:20:46Z</time>
      </trkpt>
      <trkpt lat="42.1146510" lon="-8.8163290">
        <ele>5.4</ele>
        <time>2021-05-20T05:20:47Z</time>
      </trkpt>
      <trkpt lat="42.1146590" lon="-8.8163220">
        <ele>5.4</ele>
        <time>2021-05-20T05:20:48Z</time>
      </trkpt>
      <trkpt lat="42.1146710" lon="-8.8163170">
        <ele>5.4</ele>
        <time>2021-05-20T05:20:49Z</time>
      </trkpt>
      <trkpt lat="42.1146940" lon="-8.8162940">
        <ele>5.4</ele>
        <time>2021-05-20T05:20:50Z</time>
      </trkpt>
      <trkpt lat="42.1147020" lon="-8.8162870">
        <ele>5.4</ele>
        <time>2021-05-20T05:20:51Z</time>
      </trkpt>
      <trkpt lat="42.1147210" lon="-8.8162800">
        <ele>5.5</ele>
        <time>2021-05-20T05:20:52Z</time>
      </trkpt>
      <trkpt lat="42.1147280" lon="-8.8162690">
        <ele>5.5</ele>
        <time>2021-05-20T05:20:53Z</time>
      </trkpt>
      <trkpt lat="42.1147320" lon="-8.8162530">
        <ele>5.5</ele>
        <time>2021-05-20T05:20:54Z</time>
      </trkpt>
      <trkpt lat="42.1147370" lon="-8.8162300">
        <ele>5.5</ele>
        <time>2021-05-20T05:20:55Z</time>
      </trkpt>
      <trkpt lat="42.1147510" lon="-8.8162160">
        <ele>5.5</ele>
        <time>2021-05-20T05:20:56Z</time>
      </trkpt>
      <trkpt lat="42.1147600" lon="-8.8162070">
        <ele>5.5</ele>
        <time>2021-05-20T05:20:57Z</time>
      </trkpt>
      <trkpt lat="42.1147680" lon="-8.8161980">
        <ele>5.5</ele>
        <time>2021-05-20T05:20:58Z</time>
      </trkpt>
      <trkpt lat="42.1147790" lon="-8.8161720">
        <ele>5.5</ele>
        <time>2021-05-20T05:20:59Z</time>
      </trkpt>
      <trkpt lat="42.1147830" lon="-8.8161640">
        <ele>5.5</ele>
        <time>2021-05-20T05:21:00Z</time>
      </trkpt>
      <trkpt lat="42.1147870" lon="-8.8161550">
        <ele>5.5</ele>
        <time>2021-05-20T05:21:01Z</time>
      </trkpt>
      <trkpt lat="42.1148040" lon="-8.8161370">
        <ele>5.5</ele>
        <time>2021-05-20T05:21:02Z</time>
      </trkpt>
      <trkpt lat="42.1148120" lon="-8.8161290">
        <ele>5.5</ele>
        <time>2021-05-20T05:21:03Z</time>
      </trkpt>
      <trkpt lat="42.1148190" lon="-8.8161220">
        <ele>5.5</ele>
        <time>2021-05-20T05:21:04Z</time>
      </trkpt>
      <trkpt lat="42.1148270" lon="-8.8161060">
        <ele>5.5</ele>
        <time>2021-05-20T05:21:05Z</time>
      </trkpt>
      <trkpt lat="42.1148270" lon="-8.8160890">
        <ele>5.5</ele>
        <time>2021-05-20T05:21:06Z</time>
      </trkpt>
      <trkpt lat="42.1148310" lon="-8.8160770">
        <ele>5.5</ele>
        <time>2021-05-20T05:21:07Z</time>
      </trkpt>
      <trkpt lat="42.1148560" lon="-8.8160540">
        <ele>5.5</ele>
        <time>2021-05-20T05:21:08Z</time>
      </trkpt>
      <trkpt lat="42.1148620" lon="-8.8160470">
        <ele>5.5</ele>
        <time>2021-05-20T05:21:09Z</time>
      </trkpt>
      <trkpt lat="42.1148730" lon="-8.8160310">
        <ele>5.5</ele>
        <time>2021-05-20T05:21:10Z</time>
      </trkpt>
      <trkpt lat="42.1148800" lon="-8.8160190">
        <ele>5.5</ele>
        <time>2021-05-20T05:21:11Z</time>
      </trkpt>
      <trkpt lat="42.1148820" lon="-8.8160000">
        <ele>5.5</ele>
        <time>2021-05-20T05:21:12Z</time>
      </trkpt>
      <trkpt lat="42.1148850" lon="-8.8159860">
        <ele>5.5</ele>
        <time>2021-05-20T05:21:13Z</time>
      </trkpt>
      <trkpt lat="42.1148920" lon="-8.8159730">
        <ele>5.5</ele>
        <time>2021-05-20T05:21:14Z</time>
      </trkpt>
      <trkpt lat="42.1149020" lon="-8.8159530">
        <ele>5.5</ele>
        <time>2021-05-20T05:21:15Z</time>
      </trkpt>
      <trkpt lat="42.1149120" lon="-8.8159400">
        <ele>5.5</ele>
        <time>2021-05-20T05:21:16Z</time>
      </trkpt>
      <trkpt lat="42.1149260" lon="-8.8159170">
        <ele>5.5</ele>
        <time>2021-05-20T05:21:17Z</time>
      </trkpt>
      <trkpt lat="42.1149320" lon="-8.8159110">
        <ele>5.4</ele>
        <time>2021-05-20T05:21:18Z</time>
      </trkpt>
      <trkpt lat="42.1149370" lon="-8.8159040">
        <ele>5.4</ele>
        <time>2021-05-20T05:21:19Z</time>
      </trkpt>
      <trkpt lat="42.1149490" lon="-8.8158890">
        <ele>5.4</ele>
        <time>2021-05-20T05:21:20Z</time>
      </trkpt>
      <trkpt lat="42.1149460" lon="-8.8158810">
        <ele>5.4</ele>
        <time>2021-05-20T05:21:21Z</time>
      </trkpt>
      <trkpt lat="42.1149520" lon="-8.8158650">
        <ele>5.4</ele>
        <time>2021-05-20T05:21:22Z</time>
      </trkpt>
      <trkpt lat="42.1149610" lon="-8.8158560">
        <ele>5.4</ele>
        <time>2021-05-20T05:21:23Z</time>
      </trkpt>
      <trkpt lat="42.1149680" lon="-8.8158380">
        <ele>5.4</ele>
        <time>2021-05-20T05:21:24Z</time>
      </trkpt>
      <trkpt lat="42.1149720" lon="-8.8158250">
        <ele>5.4</ele>
        <time>2021-05-20T05:21:25Z</time>
      </trkpt>
      <trkpt lat="42.1149760" lon="-8.8158060">
        <ele>5.4</ele>
        <time>2021-05-20T05:21:26Z</time>
      </trkpt>
      <trkpt lat="42.1149820" lon="-8.8157790">
        <ele>5.4</ele>
        <time>2021-05-20T05:21:27Z</time>
      </trkpt>
      <trkpt lat="42.1149900" lon="-8.8157570">
        <ele>5.4</ele>
        <time>2021-05-20T05:21:28Z</time>
      </trkpt>
      <trkpt lat="42.1149880" lon="-8.8157330">
        <ele>5.4</ele>
        <time>2021-05-20T05:21:29Z</time>
      </trkpt>
      <trkpt lat="42.1149970" lon="-8.8157150">
        <ele>5.4</ele>
        <time>2021-05-20T05:21:30Z</time>
      </trkpt>
      <trkpt lat="42.1150030" lon="-8.8157020">
        <ele>5.4</ele>
        <time>2021-05-20T05:21:31Z</time>
      </trkpt>
      <trkpt lat="42.1150050" lon="-8.8156860">
        <ele>5.4</ele>
        <time>2021-05-20T05:21:32Z</time>
      </trkpt>
      <trkpt lat="42.1150100" lon="-8.8156660">
        <ele>5.4</ele>
        <time>2021-05-20T05:21:33Z</time>
      </trkpt>
      <trkpt lat="42.1150200" lon="-8.8156410">
        <ele>5.4</ele>
        <time>2021-05-20T05:21:34Z</time>
      </trkpt>
      <trkpt lat="42.1150230" lon="-8.8156310">
        <ele>5.4</ele>
        <time>2021-05-20T05:21:35Z</time>
      </trkpt>
      <trkpt lat="42.1150260" lon="-8.8156210">
        <ele>5.4</ele>
        <time>2021-05-20T05:21:36Z</time>
      </trkpt>
      <trkpt lat="42.1150350" lon="-8.8156110">
        <ele>5.4</ele>
        <time>2021-05-20T05:21:37Z</time>
      </trkpt>
      <trkpt lat="42.1150410" lon="-8.8155900">
        <ele>5.4</ele>
        <time>2021-05-20T05:21:38Z</time>
      </trkpt>
      <trkpt lat="42.1150450" lon="-8.8155810">
        <ele>5.4</ele>
        <time>2021-05-20T05:21:39Z</time>
      </trkpt>
      <trkpt lat="42.1150530" lon="-8.8155600">
        <ele>5.4</ele>
        <time>2021-05-20T05:21:40Z</time>
      </trkpt>
      <trkpt lat="42.1150570" lon="-8.8155540">
        <ele>5.4</ele>
        <time>2021-05-20T05:21:41Z</time>
      </trkpt>
      <trkpt lat="42.1150540" lon="-8.8155340">
        <ele>5.3</ele>
        <time>2021-05-20T05:21:42Z</time>
      </trkpt>
      <trkpt lat="42.1150550" lon="-8.8155140">
        <ele>5.3</ele>
        <time>2021-05-20T05:21:43Z</time>
      </trkpt>
      <trkpt lat="42.1150590" lon="-8.8154960">
        <ele>5.3</ele>
        <time>2021-05-20T05:21:44Z</time>
      </trkpt>
      <trkpt lat="42.1150630" lon="-8.8154720">
        <ele>5.3</ele>
        <time>2021-05-20T05:21:45Z</time>
      </trkpt>
      <trkpt lat="42.1150700" lon="-8.8154550">
        <ele>5.3</ele>
        <time>2021-05-20T05:21:46Z</time>
      </trkpt>
      <trkpt lat="42.1150750" lon="-8.8154390">
        <ele>5.3</ele>
        <time>2021-05-20T05:21:47Z</time>
      </trkpt>
      <trkpt lat="42.1150770" lon="-8.8154180">
        <ele>5.3</ele>
        <time>2021-05-20T05:21:48Z</time>
      </trkpt>
      <trkpt lat="42.1150780" lon="-8.8153930">
        <ele>5.3</ele>
        <time>2021-05-20T05:21:49Z</time>
      </trkpt>
      <trkpt lat="42.1150780" lon="-8.8153700">
        <ele>5.3</ele>
        <time>2021-05-20T05:21:50Z</time>
      </trkpt>
      <trkpt lat="42.1150810" lon="-8.8153550">
        <ele>5.3</ele>
        <time>2021-05-20T05:21:51Z</time>
      </trkpt>
      <trkpt lat="42.1150830" lon="-8.8153320">
        <ele>5.3</ele>
        <time>2021-05-20T05:21:52Z</time>
      </trkpt>
      <trkpt lat="42.1150840" lon="-8.8153170">
        <ele>5.3</ele>
        <time>2021-05-20T05:21:53Z</time>
      </trkpt>
      <trkpt lat="42.1150880" lon="-8.8152860">
        <ele>5.4</ele>
        <time>2021-05-20T05:21:54Z</time>
      </trkpt>
      <trkpt lat="42.1150880" lon="-8.8152760">
        <ele>5.4</ele>
        <time>2021-05-20T05:21:55Z</time>
      </trkpt>
      <trkpt lat="42.1150890" lon="-8.8152670">
        <ele>5.4</ele>
        <time>2021-05-20T05:21:56Z</time>
      </trkpt>
      <trkpt lat="42.1150900" lon="-8.8152500">
        <ele>5.4</ele>
        <time>2021-05-20T05:21:57Z</time>
      </trkpt>
      <trkpt lat="42.1150880" lon="-8.8152260">
        <ele>5.4</ele>
        <time>2021-05-20T05:21:58Z</time>
      </trkpt>
      <trkpt lat="42.1150830" lon="-8.8151970">
        <ele>5.4</ele>
        <time>2021-05-20T05:21:59Z</time>
      </trkpt>
      <trkpt lat="42.1150780" lon="-8.8151830">
        <ele>5.6</ele>
        <time>2021-05-20T05:22:00Z</time>
      </trkpt>
      <trkpt lat="42.1150740" lon="-8.8151700">
        <ele>5.6</ele>
        <time>2021-05-20T05:22:01Z</time>
      </trkpt>
      <trkpt lat="42.1150700" lon="-8.8151540">
        <ele>5.6</ele>
        <time>2021-05-20T05:22:02Z</time>
      </trkpt>
      <trkpt lat="42.1150630" lon="-8.8151310">
        <ele>5.6</ele>
        <time>2021-05-20T05:22:03Z</time>
      </trkpt>
      <trkpt lat="42.1150600" lon="-8.8151170">
        <ele>5.6</ele>
        <time>2021-05-20T05:22:04Z</time>
      </trkpt>
      <trkpt lat="42.1150480" lon="-8.8150950">
        <ele>5.6</ele>
        <time>2021-05-20T05:22:05Z</time>
      </trkpt>
      <trkpt lat="42.1150460" lon="-8.8150760">
        <ele>5.6</ele>
        <time>2021-05-20T05:22:06Z</time>
      </trkpt>
      <trkpt lat="42.1150310" lon="-8.8150600">
        <ele>5.7</ele>
        <time>2021-05-20T05:22:07Z</time>
      </trkpt>
      <trkpt lat="42.1150200" lon="-8.8150460">
        <ele>5.7</ele>
        <time>2021-05-20T05:22:08Z</time>
      </trkpt>
      <trkpt lat="42.1150100" lon="-8.8150330">
        <ele>5.7</ele>
        <time>2021-05-20T05:22:09Z</time>
      </trkpt>
      <trkpt lat="42.1150020" lon="-8.8150170">
        <ele>5.7</ele>
        <time>2021-05-20T05:22:10Z</time>
      </trkpt>
      <trkpt lat="42.1149940" lon="-8.8150040">
        <ele>5.7</ele>
        <time>2021-05-20T05:22:11Z</time>
      </trkpt>
      <trkpt lat="42.1149960" lon="-8.8149990">
        <ele>5.7</ele>
        <time>2021-05-20T05:22:12Z</time>
      </trkpt>
      <trkpt lat="42.1149850" lon="-8.8149570">
        <ele>5.7</ele>
        <time>2021-05-20T05:22:13Z</time>
      </trkpt>
      <trkpt lat="42.1149840" lon="-8.8149480">
        <ele>5.7</ele>
        <time>2021-05-20T05:22:14Z</time>
      </trkpt>
      <trkpt lat="42.1149790" lon="-8.8149400">
        <ele>5.7</ele>
        <time>2021-05-20T05:22:15Z</time>
      </trkpt>
      <trkpt lat="42.1149760" lon="-8.8149290">
        <ele>5.7</ele>
        <time>2021-05-20T05:22:16Z</time>
      </trkpt>
      <trkpt lat="42.1149670" lon="-8.8149140">
        <ele>5.7</ele>
        <time>2021-05-20T05:22:17Z</time>
      </trkpt>
      <trkpt lat="42.1149660" lon="-8.8149020">
        <ele>5.7</ele>
        <time>2021-05-20T05:22:18Z</time>
      </trkpt>
      <trkpt lat="42.1149640" lon="-8.8148910">
        <ele>5.7</ele>
        <time>2021-05-20T05:22:19Z</time>
      </trkpt>
      <trkpt lat="42.1149570" lon="-8.8148700">
        <ele>5.7</ele>
        <time>2021-05-20T05:22:20Z</time>
      </trkpt>
      <trkpt lat="42.1149510" lon="-8.8148450">
        <ele>5.7</ele>
        <time>2021-05-20T05:22:21Z</time>
      </trkpt>
      <trkpt lat="42.1149480" lon="-8.8148320">
        <ele>5.7</ele>
        <time>2021-05-20T05:22:22Z</time>
      </trkpt>
      <trkpt lat="42.1149450" lon="-8.8148200">
        <ele>5.7</ele>
        <time>2021-05-20T05:22:23Z</time>
      </trkpt>
      <trkpt lat="42.1149400" lon="-8.8148020">
        <ele>5.7</ele>
        <time>2021-05-20T05:22:24Z</time>
      </trkpt>
      <trkpt lat="42.1149370" lon="-8.8147850">
        <ele>5.7</ele>
        <time>2021-05-20T05:22:25Z</time>
      </trkpt>
      <trkpt lat="42.1149360" lon="-8.8147700">
        <ele>5.7</ele>
        <time>2021-05-20T05:22:26Z</time>
      </trkpt>
      <trkpt lat="42.1149340" lon="-8.8147640">
        <ele>5.7</ele>
        <time>2021-05-20T05:22:27Z</time>
      </trkpt>
      <trkpt lat="42.1149320" lon="-8.8147420">
        <ele>5.7</ele>
        <time>2021-05-20T05:22:28Z</time>
      </trkpt>
      <trkpt lat="42.1149290" lon="-8.8147190">
        <ele>5.7</ele>
        <time>2021-05-20T05:22:29Z</time>
      </trkpt>
      <trkpt lat="42.1149270" lon="-8.8146970">
        <ele>5.7</ele>
        <time>2021-05-20T05:22:30Z</time>
      </trkpt>
      <trkpt lat="42.1149290" lon="-8.8146790">
        <ele>5.7</ele>
        <time>2021-05-20T05:22:31Z</time>
      </trkpt>
      <trkpt lat="42.1149270" lon="-8.8146670">
        <ele>5.7</ele>
        <time>2021-05-20T05:22:32Z</time>
      </trkpt>
      <trkpt lat="42.1149260" lon="-8.8146540">
        <ele>5.7</ele>
        <time>2021-05-20T05:22:33Z</time>
      </trkpt>
      <trkpt lat="42.1149240" lon="-8.8146420">
        <ele>5.8</ele>
        <time>2021-05-20T05:22:34Z</time>
      </trkpt>
      <trkpt lat="42.1149220" lon="-8.8146130">
        <ele>5.8</ele>
        <time>2021-05-20T05:22:35Z</time>
      </trkpt>
      <trkpt lat="42.1149230" lon="-8.8145990">
        <ele>5.8</ele>
        <time>2021-05-20T05:22:36Z</time>
      </trkpt>
      <trkpt lat="42.1149230" lon="-8.8145860">
        <ele>5.8</ele>
        <time>2021-05-20T05:22:37Z</time>
      </trkpt>
      <trkpt lat="42.1149240" lon="-8.8145610">
        <ele>5.8</ele>
        <time>2021-05-20T05:22:38Z</time>
      </trkpt>
      <trkpt lat="42.1149250" lon="-8.8145480">
        <ele>5.8</ele>
        <time>2021-05-20T05:22:39Z</time>
      </trkpt>
      <trkpt lat="42.1149260" lon="-8.8145360">
        <ele>5.8</ele>
        <time>2021-05-20T05:22:40Z</time>
      </trkpt>
      <trkpt lat="42.1149310" lon="-8.8145220">
        <ele>5.8</ele>
        <time>2021-05-20T05:22:41Z</time>
      </trkpt>
      <trkpt lat="42.1149350" lon="-8.8145070">
        <ele>5.8</ele>
        <time>2021-05-20T05:22:42Z</time>
      </trkpt>
      <trkpt lat="42.1149420" lon="-8.8144940">
        <ele>5.8</ele>
        <time>2021-05-20T05:22:43Z</time>
      </trkpt>
      <trkpt lat="42.1149460" lon="-8.8144970">
        <ele>5.8</ele>
        <time>2021-05-20T05:22:44Z</time>
      </trkpt>
      <trkpt lat="42.1149540" lon="-8.8144800">
        <ele>5.8</ele>
        <time>2021-05-20T05:22:45Z</time>
      </trkpt>
      <trkpt lat="42.1149630" lon="-8.8144700">
        <ele>5.8</ele>
        <time>2021-05-20T05:22:46Z</time>
      </trkpt>
      <trkpt lat="42.1149660" lon="-8.8144550">
        <ele>5.8</ele>
        <time>2021-05-20T05:22:47Z</time>
      </trkpt>
      <trkpt lat="42.1149700" lon="-8.8144460">
        <ele>5.8</ele>
        <time>2021-05-20T05:22:48Z</time>
      </trkpt>
      <trkpt lat="42.1149720" lon="-8.8144270">
        <ele>5.8</ele>
        <time>2021-05-20T05:22:49Z</time>
      </trkpt>
      <trkpt lat="42.1149760" lon="-8.8144040">
        <ele>5.8</ele>
        <time>2021-05-20T05:22:50Z</time>
      </trkpt>
      <trkpt lat="42.1149750" lon="-8.8143830">
        <ele>5.8</ele>
        <time>2021-05-20T05:22:51Z</time>
      </trkpt>
      <trkpt lat="42.1149890" lon="-8.8143620">
        <ele>5.8</ele>
        <time>2021-05-20T05:22:52Z</time>
      </trkpt>
      <trkpt lat="42.1149880" lon="-8.8143510">
        <ele>5.8</ele>
        <time>2021-05-20T05:22:53Z</time>
      </trkpt>
      <trkpt lat="42.1149870" lon="-8.8143390">
        <ele>5.8</ele>
        <time>2021-05-20T05:22:54Z</time>
      </trkpt>
      <trkpt lat="42.1149920" lon="-8.8143020">
        <ele>5.8</ele>
        <time>2021-05-20T05:22:55Z</time>
      </trkpt>
      <trkpt lat="42.1149960" lon="-8.8142890">
        <ele>5.8</ele>
        <time>2021-05-20T05:22:56Z</time>
      </trkpt>
      <trkpt lat="42.1150000" lon="-8.8142730">
        <ele>5.8</ele>
        <time>2021-05-20T05:22:57Z</time>
      </trkpt>
      <trkpt lat="42.1150080" lon="-8.8142640">
        <ele>5.8</ele>
        <time>2021-05-20T05:22:58Z</time>
      </trkpt>
      <trkpt lat="42.1150110" lon="-8.8142440">
        <ele>5.8</ele>
        <time>2021-05-20T05:22:59Z</time>
      </trkpt>
      <trkpt lat="42.1150160" lon="-8.8142300">
        <ele>5.8</ele>
        <time>2021-05-20T05:23:00Z</time>
      </trkpt>
      <trkpt lat="42.1150300" lon="-8.8142170">
        <ele>5.8</ele>
        <time>2021-05-20T05:23:01Z</time>
      </trkpt>
      <trkpt lat="42.1150290" lon="-8.8141980">
        <ele>5.8</ele>
        <time>2021-05-20T05:23:02Z</time>
      </trkpt>
      <trkpt lat="42.1150370" lon="-8.8141810">
        <ele>5.8</ele>
        <time>2021-05-20T05:23:03Z</time>
      </trkpt>
      <trkpt lat="42.1150320" lon="-8.8141650">
        <ele>5.8</ele>
        <time>2021-05-20T05:23:04Z</time>
      </trkpt>
      <trkpt lat="42.1150230" lon="-8.8141480">
        <ele>5.8</ele>
        <time>2021-05-20T05:23:05Z</time>
      </trkpt>
      <trkpt lat="42.1150170" lon="-8.8141210">
        <ele>5.8</ele>
        <time>2021-05-20T05:23:06Z</time>
      </trkpt>
      <trkpt lat="42.1150210" lon="-8.8141000">
        <ele>5.8</ele>
        <time>2021-05-20T05:23:07Z</time>
      </trkpt>
      <trkpt lat="42.1150160" lon="-8.8140860">
        <ele>5.8</ele>
        <time>2021-05-20T05:23:08Z</time>
      </trkpt>
      <trkpt lat="42.1150220" lon="-8.8140730">
        <ele>5.8</ele>
        <time>2021-05-20T05:23:09Z</time>
      </trkpt>
      <trkpt lat="42.1150230" lon="-8.8140540">
        <ele>5.8</ele>
        <time>2021-05-20T05:23:10Z</time>
      </trkpt>
      <trkpt lat="42.1150290" lon="-8.8140320">
        <ele>5.8</ele>
        <time>2021-05-20T05:23:11Z</time>
      </trkpt>
      <trkpt lat="42.1150330" lon="-8.8140230">
        <ele>5.8</ele>
        <time>2021-05-20T05:23:12Z</time>
      </trkpt>
      <trkpt lat="42.1150360" lon="-8.8140100">
        <ele>5.8</ele>
        <time>2021-05-20T05:23:13Z</time>
      </trkpt>
      <trkpt lat="42.1150450" lon="-8.8139970">
        <ele>5.8</ele>
        <time>2021-05-20T05:23:14Z</time>
      </trkpt>
      <trkpt lat="42.1150460" lon="-8.8139880">
        <ele>5.8</ele>
        <time>2021-05-20T05:23:15Z</time>
      </trkpt>
      <trkpt lat="42.1150520" lon="-8.8139780">
        <ele>5.8</ele>
        <time>2021-05-20T05:23:16Z</time>
      </trkpt>
      <trkpt lat="42.1150550" lon="-8.8139510">
        <ele>5.8</ele>
        <time>2021-05-20T05:23:17Z</time>
      </trkpt>
      <trkpt lat="42.1150590" lon="-8.8139350">
        <ele>5.9</ele>
        <time>2021-05-20T05:23:18Z</time>
      </trkpt>
      <trkpt lat="42.1150650" lon="-8.8139110">
        <ele>5.9</ele>
        <time>2021-05-20T05:23:19Z</time>
      </trkpt>
      <trkpt lat="42.1150690" lon="-8.8139000">
        <ele>5.9</ele>
        <time>2021-05-20T05:23:20Z</time>
      </trkpt>
      <trkpt lat="42.1150730" lon="-8.8138890">
        <ele>5.9</ele>
        <time>2021-05-20T05:23:21Z</time>
      </trkpt>
      <trkpt lat="42.1150690" lon="-8.8138600">
        <ele>5.9</ele>
        <time>2021-05-20T05:23:22Z</time>
      </trkpt>
      <trkpt lat="42.1150730" lon="-8.8138490">
        <ele>5.9</ele>
        <time>2021-05-20T05:23:23Z</time>
      </trkpt>
      <trkpt lat="42.1150760" lon="-8.8138390">
        <ele>5.9</ele>
        <time>2021-05-20T05:23:24Z</time>
      </trkpt>
      <trkpt lat="42.1150760" lon="-8.8138300">
        <ele>5.9</ele>
        <time>2021-05-20T05:23:25Z</time>
      </trkpt>
      <trkpt lat="42.1150690" lon="-8.8138100">
        <ele>5.9</ele>
        <time>2021-05-20T05:23:26Z</time>
      </trkpt>
      <trkpt lat="42.1150710" lon="-8.8137920">
        <ele>5.9</ele>
        <time>2021-05-20T05:23:27Z</time>
      </trkpt>
      <trkpt lat="42.1150780" lon="-8.8137750">
        <ele>5.9</ele>
        <time>2021-05-20T05:23:28Z</time>
      </trkpt>
      <trkpt lat="42.1150750" lon="-8.8137680">
        <ele>5.9</ele>
        <time>2021-05-20T05:23:29Z</time>
      </trkpt>
      <trkpt lat="42.1150800" lon="-8.8137610">
        <ele>5.9</ele>
        <time>2021-05-20T05:23:30Z</time>
      </trkpt>
      <trkpt lat="42.1150750" lon="-8.8137450">
        <ele>5.9</ele>
        <time>2021-05-20T05:23:31Z</time>
      </trkpt>
      <trkpt lat="42.1150900" lon="-8.8137340">
        <ele>5.9</ele>
        <time>2021-05-20T05:23:32Z</time>
      </trkpt>
      <trkpt lat="42.1150830" lon="-8.8137210">
        <ele>5.9</ele>
        <time>2021-05-20T05:23:33Z</time>
      </trkpt>
      <trkpt lat="42.1150810" lon="-8.8137020">
        <ele>5.9</ele>
        <time>2021-05-20T05:23:34Z</time>
      </trkpt>
      <trkpt lat="42.1150930" lon="-8.8136680">
        <ele>5.9</ele>
        <time>2021-05-20T05:23:35Z</time>
      </trkpt>
      <trkpt lat="42.1150950" lon="-8.8136550">
        <ele>5.9</ele>
        <time>2021-05-20T05:23:36Z</time>
      </trkpt>
      <trkpt lat="42.1150940" lon="-8.8136250">
        <ele>6.0</ele>
        <time>2021-05-20T05:23:37Z</time>
      </trkpt>
      <trkpt lat="42.1150920" lon="-8.8136140">
        <ele>6.0</ele>
        <time>2021-05-20T05:23:38Z</time>
      </trkpt>
      <trkpt lat="42.1150910" lon="-8.8136040">
        <ele>6.0</ele>
        <time>2021-05-20T05:23:39Z</time>
      </trkpt>
      <trkpt lat="42.1150840" lon="-8.8135870">
        <ele>6.0</ele>
        <time>2021-05-20T05:23:40Z</time>
      </trkpt>
      <trkpt lat="42.1150860" lon="-8.8135680">
        <ele>6.0</ele>
        <time>2021-05-20T05:23:41Z</time>
      </trkpt>
      <trkpt lat="42.1150900" lon="-8.8135420">
        <ele>6.0</ele>
        <time>2021-05-20T05:23:42Z</time>
      </trkpt>
      <trkpt lat="42.1150900" lon="-8.8135300">
        <ele>6.0</ele>
        <time>2021-05-20T05:23:43Z</time>
      </trkpt>
      <trkpt lat="42.1150900" lon="-8.8135170">
        <ele>6.0</ele>
        <time>2021-05-20T05:23:44Z</time>
      </trkpt>
      <trkpt lat="42.1150990" lon="-8.8134920">
        <ele>6.1</ele>
        <time>2021-05-20T05:23:45Z</time>
      </trkpt>
      <trkpt lat="42.1150990" lon="-8.8134760">
        <ele>6.1</ele>
        <time>2021-05-20T05:23:46Z</time>
      </trkpt>
      <trkpt lat="42.1150990" lon="-8.8134600">
        <ele>6.1</ele>
        <time>2021-05-20T05:23:47Z</time>
      </trkpt>
      <trkpt lat="42.1151050" lon="-8.8134260">
        <ele>6.1</ele>
        <time>2021-05-20T05:23:48Z</time>
      </trkpt>
      <trkpt lat="42.1151070" lon="-8.8134130">
        <ele>6.1</ele>
        <time>2021-05-20T05:23:49Z</time>
      </trkpt>
      <trkpt lat="42.1151100" lon="-8.8134000">
        <ele>6.1</ele>
        <time>2021-05-20T05:23:50Z</time>
      </trkpt>
      <trkpt lat="42.1151150" lon="-8.8133760">
        <ele>6.1</ele>
        <time>2021-05-20T05:23:51Z</time>
      </trkpt>
      <trkpt lat="42.1151190" lon="-8.8133570">
        <ele>6.2</ele>
        <time>2021-05-20T05:23:52Z</time>
      </trkpt>
      <trkpt lat="42.1151280" lon="-8.8133390">
        <ele>6.2</ele>
        <time>2021-05-20T05:23:53Z</time>
      </trkpt>
      <trkpt lat="42.1151330" lon="-8.8133220">
        <ele>6.2</ele>
        <time>2021-05-20T05:23:54Z</time>
      </trkpt>
      <trkpt lat="42.1151370" lon="-8.8133060">
        <ele>6.2</ele>
        <time>2021-05-20T05:23:55Z</time>
      </trkpt>
      <trkpt lat="42.1151440" lon="-8.8132920">
        <ele>6.2</ele>
        <time>2021-05-20T05:23:56Z</time>
      </trkpt>
      <trkpt lat="42.1151440" lon="-8.8132830">
        <ele>6.2</ele>
        <time>2021-05-20T05:23:57Z</time>
      </trkpt>
      <trkpt lat="42.1151530" lon="-8.8132570">
        <ele>6.3</ele>
        <time>2021-05-20T05:23:58Z</time>
      </trkpt>
      <trkpt lat="42.1151570" lon="-8.8132480">
        <ele>6.3</ele>
        <time>2021-05-20T05:23:59Z</time>
      </trkpt>
      <trkpt lat="42.1151610" lon="-8.8132380">
        <ele>6.3</ele>
        <time>2021-05-20T05:24:00Z</time>
      </trkpt>
      <trkpt lat="42.1151690" lon="-8.8132180">
        <ele>6.3</ele>
        <time>2021-05-20T05:24:01Z</time>
      </trkpt>
      <trkpt lat="42.1151760" lon="-8.8132030">
        <ele>6.3</ele>
        <time>2021-05-20T05:24:02Z</time>
      </trkpt>
      <trkpt lat="42.1151830" lon="-8.8131870">
        <ele>6.3</ele>
        <time>2021-05-20T05:24:03Z</time>
      </trkpt>
      <trkpt lat="42.1151870" lon="-8.8131740">
        <ele>6.3</ele>
        <time>2021-05-20T05:24:04Z</time>
      </trkpt>
      <trkpt lat="42.1152050" lon="-8.8131590">
        <ele>6.4</ele>
        <time>2021-05-20T05:24:05Z</time>
      </trkpt>
      <trkpt lat="42.1152120" lon="-8.8131440">
        <ele>6.4</ele>
        <time>2021-05-20T05:24:06Z</time>
      </trkpt>
      <trkpt lat="42.1152100" lon="-8.8131460">
        <ele>6.4</ele>
        <time>2021-05-20T05:24:07Z</time>
      </trkpt>
      <trkpt lat="42.1152110" lon="-8.8131350">
        <ele>6.4</ele>
        <time>2021-05-20T05:24:08Z</time>
      </trkpt>
      <trkpt lat="42.1152130" lon="-8.8131290">
        <ele>6.4</ele>
        <time>2021-05-20T05:24:09Z</time>
      </trkpt>
      <trkpt lat="42.1152070" lon="-8.8131280">
        <ele>6.4</ele>
        <time>2021-05-20T05:24:10Z</time>
      </trkpt>
      <trkpt lat="42.1152080" lon="-8.8131170">
        <ele>6.4</ele>
        <time>2021-05-20T05:24:11Z</time>
      </trkpt>
      <trkpt lat="42.1152110" lon="-8.8131040">
        <ele>6.4</ele>
        <time>2021-05-20T05:24:12Z</time>
      </trkpt>
      <trkpt lat="42.1152130" lon="-8.8130770">
        <ele>6.4</ele>
        <time>2021-05-20T05:24:13Z</time>
      </trkpt>
      <trkpt lat="42.1152130" lon="-8.8130710">
        <ele>6.4</ele>
        <time>2021-05-20T05:24:14Z</time>
      </trkpt>
      <trkpt lat="42.1152140" lon="-8.8130730">
        <ele>6.4</ele>
        <time>2021-05-20T05:24:15Z</time>
      </trkpt>
      <trkpt lat="42.1152130" lon="-8.8130820">
        <ele>6.4</ele>
        <time>2021-05-20T05:24:16Z</time>
      </trkpt>
      <trkpt lat="42.1152140" lon="-8.8130890">
        <ele>6.4</ele>
        <time>2021-05-20T05:24:17Z</time>
      </trkpt>
      <trkpt lat="42.1152130" lon="-8.8130850">
        <ele>6.4</ele>
        <time>2021-05-20T05:24:18Z</time>
      </trkpt>
      <trkpt lat="42.1152220" lon="-8.8130730">
        <ele>6.4</ele>
        <time>2021-05-20T05:24:19Z</time>
      </trkpt>
      <trkpt lat="42.1152180" lon="-8.8130740">
        <ele>6.4</ele>
        <time>2021-05-20T05:24:20Z</time>
      </trkpt>
      <trkpt lat="42.1152190" lon="-8.8130800">
        <ele>6.4</ele>
        <time>2021-05-20T05:24:21Z</time>
      </trkpt>
      <trkpt lat="42.1152160" lon="-8.8130850">
        <ele>6.4</ele>
        <time>2021-05-20T05:24:22Z</time>
      </trkpt>
      <trkpt lat="42.1152190" lon="-8.8130760">
        <ele>6.4</ele>
        <time>2021-05-20T05:24:23Z</time>
      </trkpt>
      <trkpt lat="42.1152180" lon="-8.8130760">
        <ele>6.4</ele>
        <time>2021-05-20T05:24:24Z</time>
      </trkpt>
      <trkpt lat="42.1152170" lon="-8.8130770">
        <ele>6.4</ele>
        <time>2021-05-20T05:24:25Z</time>
      </trkpt>
      <trkpt lat="42.1152150" lon="-8.8130770">
        <ele>6.4</ele>
        <time>2021-05-20T05:24:26Z</time>
      </trkpt>
      <trkpt lat="42.1152120" lon="-8.8130770">
        <ele>6.4</ele>
        <time>2021-05-20T05:24:27Z</time>
      </trkpt>
      <trkpt lat="42.1152070" lon="-8.8130730">
        <ele>6.4</ele>
        <time>2021-05-20T05:24:28Z</time>
      </trkpt>
      <trkpt lat="42.1152030" lon="-8.8130700">
        <ele>6.4</ele>
        <time>2021-05-20T05:24:29Z</time>
      </trkpt>
      <trkpt lat="42.1152010" lon="-8.8130660">
        <ele>6.4</ele>
        <time>2021-05-20T05:24:30Z</time>
      </trkpt>
      <trkpt lat="42.1151970" lon="-8.8130620">
        <ele>6.4</ele>
        <time>2021-05-20T05:24:31Z</time>
      </trkpt>
      <trkpt lat="42.1151910" lon="-8.8130640">
        <ele>6.4</ele>
        <time>2021-05-20T05:24:32Z</time>
      </trkpt>
      <trkpt lat="42.1151940" lon="-8.8130750">
        <ele>6.4</ele>
        <time>2021-05-20T05:24:33Z</time>
      </trkpt>
      <trkpt lat="42.1151990" lon="-8.8130750">
        <ele>6.4</ele>
        <time>2021-05-20T05:24:34Z</time>
      </trkpt>
      <trkpt lat="42.1152030" lon="-8.8130770">
        <ele>6.4</ele>
        <time>2021-05-20T05:24:35Z</time>
      </trkpt>
      <trkpt lat="42.1152040" lon="-8.8130820">
        <ele>6.4</ele>
        <time>2021-05-20T05:24:36Z</time>
      </trkpt>
      <trkpt lat="42.1152150" lon="-8.8130900">
        <ele>6.4</ele>
        <time>2021-05-20T05:24:37Z</time>
      </trkpt>
      <trkpt lat="42.1152260" lon="-8.8130960">
        <ele>6.4</ele>
        <time>2021-05-20T05:24:38Z</time>
      </trkpt>
      <trkpt lat="42.1152380" lon="-8.8131040">
        <ele>6.5</ele>
        <time>2021-05-20T05:24:39Z</time>
      </trkpt>
      <trkpt lat="42.1152470" lon="-8.8131050">
        <ele>6.5</ele>
        <time>2021-05-20T05:24:40Z</time>
      </trkpt>
      <trkpt lat="42.1152580" lon="-8.8131100">
        <ele>6.5</ele>
        <time>2021-05-20T05:24:41Z</time>
      </trkpt>
      <trkpt lat="42.1152720" lon="-8.8131070">
        <ele>6.5</ele>
        <time>2021-05-20T05:24:42Z</time>
      </trkpt>
      <trkpt lat="42.1152830" lon="-8.8131050">
        <ele>6.5</ele>
        <time>2021-05-20T05:24:43Z</time>
      </trkpt>
      <trkpt lat="42.1152870" lon="-8.8131050">
        <ele>6.5</ele>
        <time>2021-05-20T05:24:44Z</time>
      </trkpt>
      <trkpt lat="42.1152870" lon="-8.8131080">
        <ele>6.5</ele>
        <time>2021-05-20T05:24:45Z</time>
      </trkpt>
      <trkpt lat="42.1152880" lon="-8.8131040">
        <ele>6.5</ele>
        <time>2021-05-20T05:24:46Z</time>
      </trkpt>
      <trkpt lat="42.1152920" lon="-8.8130970">
        <ele>6.5</ele>
        <time>2021-05-20T05:24:47Z</time>
      </trkpt>
      <trkpt lat="42.1152950" lon="-8.8130820">
        <ele>6.5</ele>
        <time>2021-05-20T05:24:48Z</time>
      </trkpt>
      <trkpt lat="42.1153130" lon="-8.8130870">
        <ele>6.5</ele>
        <time>2021-05-20T05:24:49Z</time>
      </trkpt>
      <trkpt lat="42.1153280" lon="-8.8130850">
        <ele>6.5</ele>
        <time>2021-05-20T05:24:50Z</time>
      </trkpt>
      <trkpt lat="42.1153320" lon="-8.8130840">
        <ele>6.5</ele>
        <time>2021-05-20T05:24:51Z</time>
      </trkpt>
      <trkpt lat="42.1153440" lon="-8.8130770">
        <ele>6.5</ele>
        <time>2021-05-20T05:24:52Z</time>
      </trkpt>
      <trkpt lat="42.1153570" lon="-8.8130750">
        <ele>6.5</ele>
        <time>2021-05-20T05:24:53Z</time>
      </trkpt>
      <trkpt lat="42.1153720" lon="-8.8130730">
        <ele>6.5</ele>
        <time>2021-05-20T05:24:54Z</time>
      </trkpt>
      <trkpt lat="42.1153820" lon="-8.8130690">
        <ele>6.5</ele>
        <time>2021-05-20T05:24:55Z</time>
      </trkpt>
      <trkpt lat="42.1153900" lon="-8.8130660">
        <ele>6.5</ele>
        <time>2021-05-20T05:24:56Z</time>
      </trkpt>
      <trkpt lat="42.1153960" lon="-8.8130630">
        <ele>6.5</ele>
        <time>2021-05-20T05:24:57Z</time>
      </trkpt>
      <trkpt lat="42.1154040" lon="-8.8130610">
        <ele>6.5</ele>
        <time>2021-05-20T05:24:58Z</time>
      </trkpt>
      <trkpt lat="42.1154160" lon="-8.8130550">
        <ele>6.5</ele>
        <time>2021-05-20T05:24:59Z</time>
      </trkpt>
      <trkpt lat="42.1154280" lon="-8.8130520">
        <ele>6.6</ele>
        <time>2021-05-20T05:25:00Z</time>
      </trkpt>
      <trkpt lat="42.1154380" lon="-8.8130490">
        <ele>6.6</ele>
        <time>2021-05-20T05:25:01Z</time>
      </trkpt>
      <trkpt lat="42.1154500" lon="-8.8130430">
        <ele>6.6</ele>
        <time>2021-05-20T05:25:02Z</time>
      </trkpt>
      <trkpt lat="42.1154610" lon="-8.8130370">
        <ele>6.6</ele>
        <time>2021-05-20T05:25:03Z</time>
      </trkpt>
      <trkpt lat="42.1154690" lon="-8.8130320">
        <ele>6.6</ele>
        <time>2021-05-20T05:25:04Z</time>
      </trkpt>
      <trkpt lat="42.1154720" lon="-8.8130300">
        <ele>6.6</ele>
        <time>2021-05-20T05:25:05Z</time>
      </trkpt>
      <trkpt lat="42.1154850" lon="-8.8130270">
        <ele>6.6</ele>
        <time>2021-05-20T05:25:06Z</time>
      </trkpt>
      <trkpt lat="42.1154940" lon="-8.8130240">
        <ele>6.6</ele>
        <time>2021-05-20T05:25:07Z</time>
      </trkpt>
      <trkpt lat="42.1154980" lon="-8.8130130">
        <ele>6.6</ele>
        <time>2021-05-20T05:25:08Z</time>
      </trkpt>
      <trkpt lat="42.1155060" lon="-8.8129970">
        <ele>6.6</ele>
        <time>2021-05-20T05:25:09Z</time>
      </trkpt>
      <trkpt lat="42.1155190" lon="-8.8129920">
        <ele>6.6</ele>
        <time>2021-05-20T05:25:10Z</time>
      </trkpt>
      <trkpt lat="42.1155220" lon="-8.8129950">
        <ele>6.6</ele>
        <time>2021-05-20T05:25:11Z</time>
      </trkpt>
      <trkpt lat="42.1155270" lon="-8.8130020">
        <ele>6.6</ele>
        <time>2021-05-20T05:25:12Z</time>
      </trkpt>
      <trkpt lat="42.1155280" lon="-8.8130050">
        <ele>6.6</ele>
        <time>2021-05-20T05:25:13Z</time>
      </trkpt>
      <trkpt lat="42.1155280" lon="-8.8129990">
        <ele>6.6</ele>
        <time>2021-05-20T05:25:14Z</time>
      </trkpt>
      <trkpt lat="42.1155280" lon="-8.8129930">
        <ele>6.6</ele>
        <time>2021-05-20T05:25:15Z</time>
      </trkpt>
      <trkpt lat="42.1155240" lon="-8.8129880">
        <ele>6.6</ele>
        <time>2021-05-20T05:25:16Z</time>
      </trkpt>
      <trkpt lat="42.1155240" lon="-8.8129820">
        <ele>6.6</ele>
        <time>2021-05-20T05:25:17Z</time>
      </trkpt>
      <trkpt lat="42.1155250" lon="-8.8129760">
        <ele>6.6</ele>
        <time>2021-05-20T05:25:18Z</time>
      </trkpt>
      <trkpt lat="42.1155250" lon="-8.8129760">
        <ele>6.6</ele>
        <time>2021-05-20T05:25:19Z</time>
      </trkpt>
      <trkpt lat="42.1155270" lon="-8.8129780">
        <ele>6.6</ele>
        <time>2021-05-20T05:25:20Z</time>
      </trkpt>
      <trkpt lat="42.1155260" lon="-8.8129770">
        <ele>6.6</ele>
        <time>2021-05-20T05:25:21Z</time>
      </trkpt>
      <trkpt lat="42.1155210" lon="-8.8129720">
        <ele>6.6</ele>
        <time>2021-05-20T05:25:22Z</time>
      </trkpt>
      <trkpt lat="42.1155230" lon="-8.8129690">
        <ele>6.6</ele>
        <time>2021-05-20T05:25:23Z</time>
      </trkpt>
      <trkpt lat="42.1155230" lon="-8.8129710">
        <ele>6.7</ele>
        <time>2021-05-20T05:25:24Z</time>
      </trkpt>
      <trkpt lat="42.1155260" lon="-8.8129710">
        <ele>6.7</ele>
        <time>2021-05-20T05:25:25Z</time>
      </trkpt>
      <trkpt lat="42.1155250" lon="-8.8129730">
        <ele>6.7</ele>
        <time>2021-05-20T05:25:26Z</time>
      </trkpt>
      <trkpt lat="42.1155250" lon="-8.8129660">
        <ele>6.7</ele>
        <time>2021-05-20T05:25:27Z</time>
      </trkpt>
      <trkpt lat="42.1155250" lon="-8.8129610">
        <ele>6.7</ele>
        <time>2021-05-20T05:25:28Z</time>
      </trkpt>
      <trkpt lat="42.1155270" lon="-8.8129610">
        <ele>6.7</ele>
        <time>2021-05-20T05:25:29Z</time>
      </trkpt>
      <trkpt lat="42.1155280" lon="-8.8129570">
        <ele>6.7</ele>
        <time>2021-05-20T05:25:30Z</time>
      </trkpt>
      <trkpt lat="42.1155320" lon="-8.8129570">
        <ele>6.7</ele>
        <time>2021-05-20T05:25:31Z</time>
      </trkpt>
      <trkpt lat="42.1155320" lon="-8.8129580">
        <ele>6.7</ele>
        <time>2021-05-20T05:25:32Z</time>
      </trkpt>
      <trkpt lat="42.1155420" lon="-8.8129460">
        <ele>6.7</ele>
        <time>2021-05-20T05:25:33Z</time>
      </trkpt>
      <trkpt lat="42.1155430" lon="-8.8129450">
        <ele>6.7</ele>
        <time>2021-05-20T05:25:34Z</time>
      </trkpt>
      <trkpt lat="42.1155430" lon="-8.8129450">
        <ele>6.7</ele>
        <time>2021-05-20T05:25:35Z</time>
      </trkpt>
      <trkpt lat="42.1155440" lon="-8.8129430">
        <ele>6.7</ele>
        <time>2021-05-20T05:25:36Z</time>
      </trkpt>
      <trkpt lat="42.1155440" lon="-8.8129420">
        <ele>6.7</ele>
        <time>2021-05-20T05:25:37Z</time>
      </trkpt>
      <trkpt lat="42.1155410" lon="-8.8129410">
        <ele>6.7</ele>
        <time>2021-05-20T05:25:38Z</time>
      </trkpt>
      <trkpt lat="42.1155400" lon="-8.8129420">
        <ele>6.7</ele>
        <time>2021-05-20T05:25:39Z</time>
      </trkpt>
      <trkpt lat="42.1155400" lon="-8.8129420">
        <ele>6.7</ele>
        <time>2021-05-20T05:25:40Z</time>
      </trkpt>
      <trkpt lat="42.1155410" lon="-8.8129360">
        <ele>6.7</ele>
        <time>2021-05-20T05:25:41Z</time>
      </trkpt>
      <trkpt lat="42.1155410" lon="-8.8129360">
        <ele>6.7</ele>
        <time>2021-05-20T05:25:42Z</time>
      </trkpt>
      <trkpt lat="42.1155470" lon="-8.8129340">
        <ele>6.7</ele>
        <time>2021-05-20T05:25:43Z</time>
      </trkpt>
      <trkpt lat="42.1155470" lon="-8.8129350">
        <ele>6.7</ele>
        <time>2021-05-20T05:25:44Z</time>
      </trkpt>
      <trkpt lat="42.1155450" lon="-8.8129360">
        <ele>6.7</ele>
        <time>2021-05-20T05:25:45Z</time>
      </trkpt>
      <trkpt lat="42.1155430" lon="-8.8129350">
        <ele>6.7</ele>
        <time>2021-05-20T05:25:46Z</time>
      </trkpt>
      <trkpt lat="42.1155420" lon="-8.8129360">
        <ele>6.7</ele>
        <time>2021-05-20T05:25:47Z</time>
      </trkpt>
      <trkpt lat="42.1155410" lon="-8.8129390">
        <ele>6.7</ele>
        <time>2021-05-20T05:25:48Z</time>
      </trkpt>
      <trkpt lat="42.1155390" lon="-8.8129380">
        <ele>6.7</ele>
        <time>2021-05-20T05:25:49Z</time>
      </trkpt>
      <trkpt lat="42.1155380" lon="-8.8129360">
        <ele>6.7</ele>
        <time>2021-05-20T05:25:50Z</time>
      </trkpt>
      <trkpt lat="42.1155370" lon="-8.8129340">
        <ele>6.7</ele>
        <time>2021-05-20T05:25:51Z</time>
      </trkpt>
      <trkpt lat="42.1155370" lon="-8.8129310">
        <ele>6.7</ele>
        <time>2021-05-20T05:25:52Z</time>
      </trkpt>
      <trkpt lat="42.1155390" lon="-8.8129280">
        <ele>6.7</ele>
        <time>2021-05-20T05:25:53Z</time>
      </trkpt>
      <trkpt lat="42.1155400" lon="-8.8129290">
        <ele>6.7</ele>
        <time>2021-05-20T05:25:54Z</time>
      </trkpt>
      <trkpt lat="42.1155410" lon="-8.8129270">
        <ele>6.7</ele>
        <time>2021-05-20T05:25:55Z</time>
      </trkpt>
      <trkpt lat="42.1155430" lon="-8.8129260">
        <ele>6.7</ele>
        <time>2021-05-20T05:25:56Z</time>
      </trkpt>
      <trkpt lat="42.1155440" lon="-8.8129280">
        <ele>6.7</ele>
        <time>2021-05-20T05:25:57Z</time>
      </trkpt>
      <trkpt lat="42.1155580" lon="-8.8129280">
        <ele>6.7</ele>
        <time>2021-05-20T05:25:58Z</time>
      </trkpt>
      <trkpt lat="42.1155660" lon="-8.8129270">
        <ele>6.7</ele>
        <time>2021-05-20T05:25:59Z</time>
      </trkpt>
      <trkpt lat="42.1155760" lon="-8.8129310">
        <ele>6.7</ele>
        <time>2021-05-20T05:26:00Z</time>
      </trkpt>
      <trkpt lat="42.1155880" lon="-8.8129340">
        <ele>6.7</ele>
        <time>2021-05-20T05:26:01Z</time>
      </trkpt>
      <trkpt lat="42.1155960" lon="-8.8129340">
        <ele>6.8</ele>
        <time>2021-05-20T05:26:02Z</time>
      </trkpt>
      <trkpt lat="42.1156060" lon="-8.8129300">
        <ele>6.8</ele>
        <time>2021-05-20T05:26:03Z</time>
      </trkpt>
      <trkpt lat="42.1156320" lon="-8.8129220">
        <ele>6.8</ele>
        <time>2021-05-20T05:26:04Z</time>
      </trkpt>
      <trkpt lat="42.1156420" lon="-8.8129180">
        <ele>6.8</ele>
        <time>2021-05-20T05:26:05Z</time>
      </trkpt>
      <trkpt lat="42.1156510" lon="-8.8129170">
        <ele>6.8</ele>
        <time>2021-05-20T05:26:06Z</time>
      </trkpt>
      <trkpt lat="42.1156630" lon="-8.8129120">
        <ele>6.8</ele>
        <time>2021-05-20T05:26:07Z</time>
      </trkpt>
      <trkpt lat="42.1156690" lon="-8.8129040">
        <ele>6.8</ele>
        <time>2021-05-20T05:26:08Z</time>
      </trkpt>
      <trkpt lat="42.1156740" lon="-8.8129040">
        <ele>6.8</ele>
        <time>2021-05-20T05:26:09Z</time>
      </trkpt>
      <trkpt lat="42.1156820" lon="-8.8129010">
        <ele>6.8</ele>
        <time>2021-05-20T05:26:10Z</time>
      </trkpt>
      <trkpt lat="42.1156970" lon="-8.8129010">
        <ele>6.8</ele>
        <time>2021-05-20T05:26:11Z</time>
      </trkpt>
      <trkpt lat="42.1156950" lon="-8.8129010">
        <ele>6.8</ele>
        <time>2021-05-20T05:26:12Z</time>
      </trkpt>
      <trkpt lat="42.1156850" lon="-8.8128920">
        <ele>6.8</ele>
        <time>2021-05-20T05:26:13Z</time>
      </trkpt>
      <trkpt lat="42.1156710" lon="-8.8128810">
        <ele>6.9</ele>
        <time>2021-05-20T05:26:14Z</time>
      </trkpt>
      <trkpt lat="42.1156670" lon="-8.8128810">
        <ele>6.9</ele>
        <time>2021-05-20T05:26:15Z</time>
      </trkpt>
      <trkpt lat="42.1156690" lon="-8.8128830">
        <ele>6.9</ele>
        <time>2021-05-20T05:26:16Z</time>
      </trkpt>
      <trkpt lat="42.1156890" lon="-8.8128750">
        <ele>6.9</ele>
        <time>2021-05-20T05:26:17Z</time>
      </trkpt>
      <trkpt lat="42.1156980" lon="-8.8128740">
        <ele>6.9</ele>
        <time>2021-05-20T05:26:18Z</time>
      </trkpt>
      <trkpt lat="42.1157080" lon="-8.8128660">
        <ele>6.9</ele>
        <time>2021-05-20T05:26:19Z</time>
      </trkpt>
      <trkpt lat="42.1157200" lon="-8.8128600">
        <ele>6.9</ele>
        <time>2021-05-20T05:26:20Z</time>
      </trkpt>
      <trkpt lat="42.1157330" lon="-8.8128580">
        <ele>6.9</ele>
        <time>2021-05-20T05:26:21Z</time>
      </trkpt>
      <trkpt lat="42.1157460" lon="-8.8128580">
        <ele>6.9</ele>
        <time>2021-05-20T05:26:22Z</time>
      </trkpt>
      <trkpt lat="42.1157590" lon="-8.8128600">
        <ele>6.9</ele>
        <time>2021-05-20T05:26:23Z</time>
      </trkpt>
      <trkpt lat="42.1157580" lon="-8.8128640">
        <ele>6.9</ele>
        <time>2021-05-20T05:26:24Z</time>
      </trkpt>
      <trkpt lat="42.1157620" lon="-8.8128620">
        <ele>6.9</ele>
        <time>2021-05-20T05:26:25Z</time>
      </trkpt>
      <trkpt lat="42.1157730" lon="-8.8128600">
        <ele>7.0</ele>
        <time>2021-05-20T05:26:26Z</time>
      </trkpt>
      <trkpt lat="42.1157780" lon="-8.8128570">
        <ele>7.0</ele>
        <time>2021-05-20T05:26:27Z</time>
      </trkpt>
      <trkpt lat="42.1157820" lon="-8.8128580">
        <ele>7.0</ele>
        <time>2021-05-20T05:26:28Z</time>
      </trkpt>
      <trkpt lat="42.1157910" lon="-8.8128650">
        <ele>7.0</ele>
        <time>2021-05-20T05:26:29Z</time>
      </trkpt>
      <trkpt lat="42.1158000" lon="-8.8128610">
        <ele>7.0</ele>
        <time>2021-05-20T05:26:30Z</time>
      </trkpt>
      <trkpt lat="42.1158060" lon="-8.8128630">
        <ele>7.0</ele>
        <time>2021-05-20T05:26:31Z</time>
      </trkpt>
      <trkpt lat="42.1158150" lon="-8.8128570">
        <ele>7.0</ele>
        <time>2021-05-20T05:26:32Z</time>
      </trkpt>
      <trkpt lat="42.1158220" lon="-8.8128540">
        <ele>7.0</ele>
        <time>2021-05-20T05:26:33Z</time>
      </trkpt>
      <trkpt lat="42.1158300" lon="-8.8128510">
        <ele>7.0</ele>
        <time>2021-05-20T05:26:34Z</time>
      </trkpt>
      <trkpt lat="42.1158470" lon="-8.8128460">
        <ele>7.0</ele>
        <time>2021-05-20T05:26:35Z</time>
      </trkpt>
      <trkpt lat="42.1158540" lon="-8.8128440">
        <ele>7.0</ele>
        <time>2021-05-20T05:26:36Z</time>
      </trkpt>
      <trkpt lat="42.1158680" lon="-8.8128370">
        <ele>7.1</ele>
        <time>2021-05-20T05:26:37Z</time>
      </trkpt>
      <trkpt lat="42.1158790" lon="-8.8128300">
        <ele>7.1</ele>
        <time>2021-05-20T05:26:38Z</time>
      </trkpt>
      <trkpt lat="42.1158910" lon="-8.8128240">
        <ele>7.1</ele>
        <time>2021-05-20T05:26:39Z</time>
      </trkpt>
      <trkpt lat="42.1159020" lon="-8.8128170">
        <ele>7.1</ele>
        <time>2021-05-20T05:26:40Z</time>
      </trkpt>
      <trkpt lat="42.1159340" lon="-8.8128020">
        <ele>7.1</ele>
        <time>2021-05-20T05:26:41Z</time>
      </trkpt>
      <trkpt lat="42.1159440" lon="-8.8127880">
        <ele>7.1</ele>
        <time>2021-05-20T05:26:42Z</time>
      </trkpt>
      <trkpt lat="42.1159720" lon="-8.8127640">
        <ele>7.2</ele>
        <time>2021-05-20T05:26:43Z</time>
      </trkpt>
      <trkpt lat="42.1159830" lon="-8.8127590">
        <ele>7.2</ele>
        <time>2021-05-20T05:26:44Z</time>
      </trkpt>
      <trkpt lat="42.1159900" lon="-8.8127620">
        <ele>7.2</ele>
        <time>2021-05-20T05:26:45Z</time>
      </trkpt>
      <trkpt lat="42.1160000" lon="-8.8127530">
        <ele>7.2</ele>
        <time>2021-05-20T05:26:46Z</time>
      </trkpt>
      <trkpt lat="42.1160220" lon="-8.8127420">
        <ele>7.2</ele>
        <time>2021-05-20T05:26:47Z</time>
      </trkpt>
      <trkpt lat="42.1160320" lon="-8.8127400">
        <ele>7.2</ele>
        <time>2021-05-20T05:26:48Z</time>
      </trkpt>
      <trkpt lat="42.1160420" lon="-8.8127380">
        <ele>7.2</ele>
        <time>2021-05-20T05:26:49Z</time>
      </trkpt>
      <trkpt lat="42.1160490" lon="-8.8127450">
        <ele>7.2</ele>
        <time>2021-05-20T05:26:50Z</time>
      </trkpt>
      <trkpt lat="42.1160570" lon="-8.8127470">
        <ele>7.2</ele>
        <time>2021-05-20T05:26:51Z</time>
      </trkpt>
      <trkpt lat="42.1160640" lon="-8.8127520">
        <ele>7.3</ele>
        <time>2021-05-20T05:26:52Z</time>
      </trkpt>
      <trkpt lat="42.1160740" lon="-8.8127380">
        <ele>7.3</ele>
        <time>2021-05-20T05:26:53Z</time>
      </trkpt>
      <trkpt lat="42.1160880" lon="-8.8127390">
        <ele>7.3</ele>
        <time>2021-05-20T05:26:54Z</time>
      </trkpt>
      <trkpt lat="42.1160870" lon="-8.8127460">
        <ele>7.3</ele>
        <time>2021-05-20T05:26:55Z</time>
      </trkpt>
      <trkpt lat="42.1160850" lon="-8.8127570">
        <ele>7.3</ele>
        <time>2021-05-20T05:26:56Z</time>
      </trkpt>
      <trkpt lat="42.1160850" lon="-8.8127580">
        <ele>7.3</ele>
        <time>2021-05-20T05:26:57Z</time>
      </trkpt>
      <trkpt lat="42.1160880" lon="-8.8127670">
        <ele>7.3</ele>
        <time>2021-05-20T05:26:58Z</time>
      </trkpt>
      <trkpt lat="42.1160890" lon="-8.8127810">
        <ele>7.3</ele>
        <time>2021-05-20T05:26:59Z</time>
      </trkpt>
      <trkpt lat="42.1160900" lon="-8.8127850">
        <ele>7.3</ele>
        <time>2021-05-20T05:27:00Z</time>
      </trkpt>
      <trkpt lat="42.1160910" lon="-8.8127900">
        <ele>7.3</ele>
        <time>2021-05-20T05:27:01Z</time>
      </trkpt>
      <trkpt lat="42.1160920" lon="-8.8128030">
        <ele>7.3</ele>
        <time>2021-05-20T05:27:02Z</time>
      </trkpt>
      <trkpt lat="42.1160890" lon="-8.8128090">
        <ele>7.3</ele>
        <time>2021-05-20T05:27:03Z</time>
      </trkpt>
      <trkpt lat="42.1160880" lon="-8.8128070">
        <ele>7.3</ele>
        <time>2021-05-20T05:27:04Z</time>
      </trkpt>
      <trkpt lat="42.1160870" lon="-8.8128010">
        <ele>7.3</ele>
        <time>2021-05-20T05:27:05Z</time>
      </trkpt>
      <trkpt lat="42.1160850" lon="-8.8128080">
        <ele>7.3</ele>
        <time>2021-05-20T05:27:06Z</time>
      </trkpt>
      <trkpt lat="42.1160860" lon="-8.8128080">
        <ele>7.3</ele>
        <time>2021-05-20T05:27:07Z</time>
      </trkpt>
      <trkpt lat="42.1160840" lon="-8.8128110">
        <ele>7.3</ele>
        <time>2021-05-20T05:27:08Z</time>
      </trkpt>
      <trkpt lat="42.1160840" lon="-8.8128130">
        <ele>7.3</ele>
        <time>2021-05-20T05:27:09Z</time>
      </trkpt>
      <trkpt lat="42.1160860" lon="-8.8128160">
        <ele>7.3</ele>
        <time>2021-05-20T05:27:10Z</time>
      </trkpt>
      <trkpt lat="42.1160890" lon="-8.8128180">
        <ele>7.3</ele>
        <time>2021-05-20T05:27:11Z</time>
      </trkpt>
      <trkpt lat="42.1160920" lon="-8.8128110">
        <ele>7.3</ele>
        <time>2021-05-20T05:27:12Z</time>
      </trkpt>
      <trkpt lat="42.1161000" lon="-8.8128220">
        <ele>7.3</ele>
        <time>2021-05-20T05:27:13Z</time>
      </trkpt>
      <trkpt lat="42.1161060" lon="-8.8128200">
        <ele>7.3</ele>
        <time>2021-05-20T05:27:14Z</time>
      </trkpt>
      <trkpt lat="42.1161090" lon="-8.8128230">
        <ele>7.3</ele>
        <time>2021-05-20T05:27:15Z</time>
      </trkpt>
      <trkpt lat="42.1161120" lon="-8.8128190">
        <ele>7.3</ele>
        <time>2021-05-20T05:27:16Z</time>
      </trkpt>
      <trkpt lat="42.1161160" lon="-8.8128090">
        <ele>7.3</ele>
        <time>2021-05-20T05:27:17Z</time>
      </trkpt>
      <trkpt lat="42.1161160" lon="-8.8128000">
        <ele>7.4</ele>
        <time>2021-05-20T05:27:18Z</time>
      </trkpt>
      <trkpt lat="42.1161210" lon="-8.8128030">
        <ele>7.4</ele>
        <time>2021-05-20T05:27:19Z</time>
      </trkpt>
      <trkpt lat="42.1161240" lon="-8.8128010">
        <ele>7.4</ele>
        <time>2021-05-20T05:27:20Z</time>
      </trkpt>
      <trkpt lat="42.1161280" lon="-8.8128010">
        <ele>7.4</ele>
        <time>2021-05-20T05:27:21Z</time>
      </trkpt>
      <trkpt lat="42.1161240" lon="-8.8127860">
        <ele>7.4</ele>
        <time>2021-05-20T05:27:22Z</time>
      </trkpt>
      <trkpt lat="42.1161260" lon="-8.8127940">
        <ele>7.4</ele>
        <time>2021-05-20T05:27:23Z</time>
      </trkpt>
      <trkpt lat="42.1161230" lon="-8.8127890">
        <ele>7.4</ele>
        <time>2021-05-20T05:27:24Z</time>
      </trkpt>
      <trkpt lat="42.1161190" lon="-8.8127940">
        <ele>7.4</ele>
        <time>2021-05-20T05:27:25Z</time>
      </trkpt>
      <trkpt lat="42.1161150" lon="-8.8127970">
        <ele>7.4</ele>
        <time>2021-05-20T05:27:26Z</time>
      </trkpt>
      <trkpt lat="42.1161110" lon="-8.8127960">
        <ele>7.4</ele>
        <time>2021-05-20T05:27:27Z</time>
      </trkpt>
      <trkpt lat="42.1161120" lon="-8.8127920">
        <ele>7.4</ele>
        <time>2021-05-20T05:27:28Z</time>
      </trkpt>
      <trkpt lat="42.1161110" lon="-8.8127900">
        <ele>7.4</ele>
        <time>2021-05-20T05:27:29Z</time>
      </trkpt>
      <trkpt lat="42.1161100" lon="-8.8127850">
        <ele>7.4</ele>
        <time>2021-05-20T05:27:30Z</time>
      </trkpt>
      <trkpt lat="42.1161080" lon="-8.8127770">
        <ele>7.4</ele>
        <time>2021-05-20T05:27:31Z</time>
      </trkpt>
      <trkpt lat="42.1161070" lon="-8.8127670">
        <ele>7.4</ele>
        <time>2021-05-20T05:27:32Z</time>
      </trkpt>
      <trkpt lat="42.1161060" lon="-8.8127580">
        <ele>7.4</ele>
        <time>2021-05-20T05:27:33Z</time>
      </trkpt>
      <trkpt lat="42.1161040" lon="-8.8127640">
        <ele>7.4</ele>
        <time>2021-05-20T05:27:34Z</time>
      </trkpt>
      <trkpt lat="42.1161050" lon="-8.8127540">
        <ele>7.4</ele>
        <time>2021-05-20T05:27:35Z</time>
      </trkpt>
      <trkpt lat="42.1161020" lon="-8.8127460">
        <ele>7.4</ele>
        <time>2021-05-20T05:27:36Z</time>
      </trkpt>
      <trkpt lat="42.1161060" lon="-8.8127550">
        <ele>7.4</ele>
        <time>2021-05-20T05:27:37Z</time>
      </trkpt>
      <trkpt lat="42.1161040" lon="-8.8127440">
        <ele>7.4</ele>
        <time>2021-05-20T05:27:38Z</time>
      </trkpt>
      <trkpt lat="42.1161050" lon="-8.8127410">
        <ele>7.4</ele>
        <time>2021-05-20T05:27:39Z</time>
      </trkpt>
      <trkpt lat="42.1161070" lon="-8.8127400">
        <ele>7.4</ele>
        <time>2021-05-20T05:27:40Z</time>
      </trkpt>
      <trkpt lat="42.1161180" lon="-8.8127350">
        <ele>7.4</ele>
        <time>2021-05-20T05:27:41Z</time>
      </trkpt>
      <trkpt lat="42.1161220" lon="-8.8127390">
        <ele>7.4</ele>
        <time>2021-05-20T05:27:42Z</time>
      </trkpt>
      <trkpt lat="42.1161290" lon="-8.8127420">
        <ele>7.4</ele>
        <time>2021-05-20T05:27:43Z</time>
      </trkpt>
      <trkpt lat="42.1161380" lon="-8.8127280">
        <ele>7.5</ele>
        <time>2021-05-20T05:27:44Z</time>
      </trkpt>
      <trkpt lat="42.1161440" lon="-8.8127250">
        <ele>7.5</ele>
        <time>2021-05-20T05:27:45Z</time>
      </trkpt>
      <trkpt lat="42.1161500" lon="-8.8127210">
        <ele>7.5</ele>
        <time>2021-05-20T05:27:46Z</time>
      </trkpt>
      <trkpt lat="42.1161560" lon="-8.8127170">
        <ele>7.5</ele>
        <time>2021-05-20T05:27:47Z</time>
      </trkpt>
      <trkpt lat="42.1161630" lon="-8.8127140">
        <ele>7.5</ele>
        <time>2021-05-20T05:27:48Z</time>
      </trkpt>
      <trkpt lat="42.1161690" lon="-8.8127100">
        <ele>7.5</ele>
        <time>2021-05-20T05:27:49Z</time>
      </trkpt>
      <trkpt lat="42.1161750" lon="-8.8127060">
        <ele>7.5</ele>
        <time>2021-05-20T05:27:50Z</time>
      </trkpt>
      <trkpt lat="42.1161810" lon="-8.8127030">
        <ele>7.5</ele>
        <time>2021-05-20T05:27:51Z</time>
      </trkpt>
      <trkpt lat="42.1161870" lon="-8.8126990">
        <ele>7.5</ele>
        <time>2021-05-20T05:27:52Z</time>
      </trkpt>
      <trkpt lat="42.1162040" lon="-8.8126870">
        <ele>7.5</ele>
        <time>2021-05-20T05:27:53Z</time>
      </trkpt>
      <trkpt lat="42.1162130" lon="-8.8126820">
        <ele>7.5</ele>
        <time>2021-05-20T05:27:54Z</time>
      </trkpt>
      <trkpt lat="42.1162220" lon="-8.8126780">
        <ele>7.5</ele>
        <time>2021-05-20T05:27:55Z</time>
      </trkpt>
      <trkpt lat="42.1162290" lon="-8.8126600">
        <ele>7.5</ele>
        <time>2021-05-20T05:27:56Z</time>
      </trkpt>
      <trkpt lat="42.1162290" lon="-8.8126440">
        <ele>7.5</ele>
        <time>2021-05-20T05:27:57Z</time>
      </trkpt>
      <trkpt lat="42.1162280" lon="-8.8126280">
        <ele>7.5</ele>
        <time>2021-05-20T05:27:58Z</time>
      </trkpt>
      <trkpt lat="42.1162270" lon="-8.8126120">
        <ele>7.6</ele>
        <time>2021-05-20T05:27:59Z</time>
      </trkpt>
      <trkpt lat="42.1162290" lon="-8.8126030">
        <ele>7.6</ele>
        <time>2021-05-20T05:28:00Z</time>
      </trkpt>
      <trkpt lat="42.1162340" lon="-8.8125780">
        <ele>7.6</ele>
        <time>2021-05-20T05:28:01Z</time>
      </trkpt>
      <trkpt lat="42.1162420" lon="-8.8125710">
        <ele>7.6</ele>
        <time>2021-05-20T05:28:02Z</time>
      </trkpt>
      <trkpt lat="42.1162480" lon="-8.8125480">
        <ele>7.6</ele>
        <time>2021-05-20T05:28:03Z</time>
      </trkpt>
      <trkpt lat="42.1162440" lon="-8.8125390">
        <ele>7.6</ele>
        <time>2021-05-20T05:28:04Z</time>
      </trkpt>
      <trkpt lat="42.1162460" lon="-8.8125220">
        <ele>7.6</ele>
        <time>2021-05-20T05:28:05Z</time>
      </trkpt>
      <trkpt lat="42.1162520" lon="-8.8125060">
        <ele>7.6</ele>
        <time>2021-05-20T05:28:06Z</time>
      </trkpt>
      <trkpt lat="42.1162450" lon="-8.8125110">
        <ele>7.6</ele>
        <time>2021-05-20T05:28:07Z</time>
      </trkpt>
      <trkpt lat="42.1162520" lon="-8.8124960">
        <ele>7.6</ele>
        <time>2021-05-20T05:28:08Z</time>
      </trkpt>
      <trkpt lat="42.1162610" lon="-8.8124930">
        <ele>7.6</ele>
        <time>2021-05-20T05:28:09Z</time>
      </trkpt>
      <trkpt lat="42.1162730" lon="-8.8125020">
        <ele>7.6</ele>
        <time>2021-05-20T05:28:10Z</time>
      </trkpt>
      <trkpt lat="42.1162760" lon="-8.8125070">
        <ele>7.6</ele>
        <time>2021-05-20T05:28:11Z</time>
      </trkpt>
      <trkpt lat="42.1162780" lon="-8.8125060">
        <ele>7.6</ele>
        <time>2021-05-20T05:28:12Z</time>
      </trkpt>
      <trkpt lat="42.1162800" lon="-8.8125050">
        <ele>7.6</ele>
        <time>2021-05-20T05:28:13Z</time>
      </trkpt>
      <trkpt lat="42.1162860" lon="-8.8125130">
        <ele>7.6</ele>
        <time>2021-05-20T05:28:14Z</time>
      </trkpt>
      <trkpt lat="42.1162960" lon="-8.8125230">
        <ele>7.6</ele>
        <time>2021-05-20T05:28:15Z</time>
      </trkpt>
      <trkpt lat="42.1162900" lon="-8.8125140">
        <ele>7.6</ele>
        <time>2021-05-20T05:28:16Z</time>
      </trkpt>
      <trkpt lat="42.1162880" lon="-8.8125140">
        <ele>7.6</ele>
        <time>2021-05-20T05:28:17Z</time>
      </trkpt>
      <trkpt lat="42.1162890" lon="-8.8124950">
        <ele>7.6</ele>
        <time>2021-05-20T05:28:18Z</time>
      </trkpt>
      <trkpt lat="42.1162790" lon="-8.8124810">
        <ele>7.6</ele>
        <time>2021-05-20T05:28:19Z</time>
      </trkpt>
      <trkpt lat="42.1162710" lon="-8.8124640">
        <ele>7.6</ele>
        <time>2021-05-20T05:28:20Z</time>
      </trkpt>
      <trkpt lat="42.1162700" lon="-8.8124540">
        <ele>7.6</ele>
        <time>2021-05-20T05:28:21Z</time>
      </trkpt>
      <trkpt lat="42.1162710" lon="-8.8124520">
        <ele>7.6</ele>
        <time>2021-05-20T05:28:22Z</time>
      </trkpt>
      <trkpt lat="42.1162740" lon="-8.8124430">
        <ele>7.6</ele>
        <time>2021-05-20T05:28:23Z</time>
      </trkpt>
      <trkpt lat="42.1162760" lon="-8.8124450">
        <ele>7.6</ele>
        <time>2021-05-20T05:28:24Z</time>
      </trkpt>
      <trkpt lat="42.1162800" lon="-8.8124470">
        <ele>7.6</ele>
        <time>2021-05-20T05:28:25Z</time>
      </trkpt>
      <trkpt lat="42.1162860" lon="-8.8124460">
        <ele>7.6</ele>
        <time>2021-05-20T05:28:26Z</time>
      </trkpt>
      <trkpt lat="42.1162900" lon="-8.8124590">
        <ele>7.6</ele>
        <time>2021-05-20T05:28:27Z</time>
      </trkpt>
      <trkpt lat="42.1162960" lon="-8.8124660">
        <ele>7.6</ele>
        <time>2021-05-20T05:28:28Z</time>
      </trkpt>
      <trkpt lat="42.1162970" lon="-8.8124660">
        <ele>7.6</ele>
        <time>2021-05-20T05:28:29Z</time>
      </trkpt>
      <trkpt lat="42.1162930" lon="-8.8124700">
        <ele>7.6</ele>
        <time>2021-05-20T05:28:30Z</time>
      </trkpt>
      <trkpt lat="42.1162940" lon="-8.8124720">
        <ele>7.6</ele>
        <time>2021-05-20T05:28:31Z</time>
      </trkpt>
      <trkpt lat="42.1163020" lon="-8.8124900">
        <ele>7.6</ele>
        <time>2021-05-20T05:28:32Z</time>
      </trkpt>
      <trkpt lat="42.1163120" lon="-8.8124910">
        <ele>7.6</ele>
        <time>2021-05-20T05:28:33Z</time>
      </trkpt>
      <trkpt lat="42.1163160" lon="-8.8125050">
        <ele>7.6</ele>
        <time>2021-05-20T05:28:34Z</time>
      </trkpt>
      <trkpt lat="42.1163290" lon="-8.8125190">
        <ele>7.6</ele>
        <time>2021-05-20T05:28:35Z</time>
      </trkpt>
      <trkpt lat="42.1163330" lon="-8.8125220">
        <ele>7.6</ele>
        <time>2021-05-20T05:28:36Z</time>
      </trkpt>
      <trkpt lat="42.1163370" lon="-8.8125260">
        <ele>7.6</ele>
        <time>2021-05-20T05:28:37Z</time>
      </trkpt>
      <trkpt lat="42.1163400" lon="-8.8125300">
        <ele>7.6</ele>
        <time>2021-05-20T05:28:38Z</time>
      </trkpt>
      <trkpt lat="42.1163440" lon="-8.8125330">
        <ele>7.6</ele>
        <time>2021-05-20T05:28:39Z</time>
      </trkpt>
      <trkpt lat="42.1163480" lon="-8.8125370">
        <ele>7.6</ele>
        <time>2021-05-20T05:28:40Z</time>
      </trkpt>
      <trkpt lat="42.1163590" lon="-8.8125380">
        <ele>7.6</ele>
        <time>2021-05-20T05:28:41Z</time>
      </trkpt>
      <trkpt lat="42.1163700" lon="-8.8125360">
        <ele>7.6</ele>
        <time>2021-05-20T05:28:42Z</time>
      </trkpt>
      <trkpt lat="42.1163790" lon="-8.8125460">
        <ele>7.6</ele>
        <time>2021-05-20T05:28:43Z</time>
      </trkpt>
      <trkpt lat="42.1163900" lon="-8.8125520">
        <ele>7.6</ele>
        <time>2021-05-20T05:28:44Z</time>
      </trkpt>
      <trkpt lat="42.1164060" lon="-8.8125740">
        <ele>7.6</ele>
        <time>2021-05-20T05:28:45Z</time>
      </trkpt>
      <trkpt lat="42.1164120" lon="-8.8125850">
        <ele>7.6</ele>
        <time>2021-05-20T05:28:46Z</time>
      </trkpt>
      <trkpt lat="42.1164160" lon="-8.8125940">
        <ele>7.6</ele>
        <time>2021-05-20T05:28:47Z</time>
      </trkpt>
      <trkpt lat="42.1164270" lon="-8.8126020">
        <ele>7.6</ele>
        <time>2021-05-20T05:28:48Z</time>
      </trkpt>
      <trkpt lat="42.1164350" lon="-8.8126120">
        <ele>7.6</ele>
        <time>2021-05-20T05:28:49Z</time>
      </trkpt>
      <trkpt lat="42.1164440" lon="-8.8126140">
        <ele>7.6</ele>
        <time>2021-05-20T05:28:50Z</time>
      </trkpt>
      <trkpt lat="42.1164590" lon="-8.8126230">
        <ele>7.6</ele>
        <time>2021-05-20T05:28:51Z</time>
      </trkpt>
      <trkpt lat="42.1164730" lon="-8.8126300">
        <ele>7.6</ele>
        <time>2021-05-20T05:28:52Z</time>
      </trkpt>
      <trkpt lat="42.1164850" lon="-8.8126330">
        <ele>7.6</ele>
        <time>2021-05-20T05:28:53Z</time>
      </trkpt>
      <trkpt lat="42.1164970" lon="-8.8126430">
        <ele>7.6</ele>
        <time>2021-05-20T05:28:54Z</time>
      </trkpt>
      <trkpt lat="42.1165070" lon="-8.8126530">
        <ele>7.6</ele>
        <time>2021-05-20T05:28:55Z</time>
      </trkpt>
      <trkpt lat="42.1165100" lon="-8.8126540">
        <ele>7.6</ele>
        <time>2021-05-20T05:28:56Z</time>
      </trkpt>
      <trkpt lat="42.1165250" lon="-8.8126590">
        <ele>7.6</ele>
        <time>2021-05-20T05:28:57Z</time>
      </trkpt>
      <trkpt lat="42.1165340" lon="-8.8126570">
        <ele>7.6</ele>
        <time>2021-05-20T05:28:58Z</time>
      </trkpt>
      <trkpt lat="42.1165460" lon="-8.8126590">
        <ele>7.6</ele>
        <time>2021-05-20T05:28:59Z</time>
      </trkpt>
      <trkpt lat="42.1165620" lon="-8.8126640">
        <ele>7.6</ele>
        <time>2021-05-20T05:29:00Z</time>
      </trkpt>
      <trkpt lat="42.1165800" lon="-8.8126700">
        <ele>7.6</ele>
        <time>2021-05-20T05:29:01Z</time>
      </trkpt>
      <trkpt lat="42.1166010" lon="-8.8126800">
        <ele>7.6</ele>
        <time>2021-05-20T05:29:02Z</time>
      </trkpt>
      <trkpt lat="42.1166080" lon="-8.8126830">
        <ele>7.6</ele>
        <time>2021-05-20T05:29:03Z</time>
      </trkpt>
      <trkpt lat="42.1166160" lon="-8.8126850">
        <ele>7.6</ele>
        <time>2021-05-20T05:29:04Z</time>
      </trkpt>
      <trkpt lat="42.1166340" lon="-8.8126990">
        <ele>7.7</ele>
        <time>2021-05-20T05:29:05Z</time>
      </trkpt>
      <trkpt lat="42.1166430" lon="-8.8127060">
        <ele>7.7</ele>
        <time>2021-05-20T05:29:06Z</time>
      </trkpt>
      <trkpt lat="42.1166540" lon="-8.8127160">
        <ele>7.7</ele>
        <time>2021-05-20T05:29:07Z</time>
      </trkpt>
      <trkpt lat="42.1166580" lon="-8.8127200">
        <ele>7.7</ele>
        <time>2021-05-20T05:29:08Z</time>
      </trkpt>
      <trkpt lat="42.1166680" lon="-8.8127240">
        <ele>7.8</ele>
        <time>2021-05-20T05:29:09Z</time>
      </trkpt>
      <trkpt lat="42.1166840" lon="-8.8127280">
        <ele>7.8</ele>
        <time>2021-05-20T05:29:10Z</time>
      </trkpt>
      <trkpt lat="42.1166980" lon="-8.8127260">
        <ele>7.8</ele>
        <time>2021-05-20T05:29:11Z</time>
      </trkpt>
      <trkpt lat="42.1167190" lon="-8.8127250">
        <ele>7.9</ele>
        <time>2021-05-20T05:29:12Z</time>
      </trkpt>
      <trkpt lat="42.1167290" lon="-8.8127280">
        <ele>7.9</ele>
        <time>2021-05-20T05:29:13Z</time>
      </trkpt>
      <trkpt lat="42.1167380" lon="-8.8127300">
        <ele>7.9</ele>
        <time>2021-05-20T05:29:14Z</time>
      </trkpt>
      <trkpt lat="42.1167530" lon="-8.8127340">
        <ele>7.9</ele>
        <time>2021-05-20T05:29:15Z</time>
      </trkpt>
      <trkpt lat="42.1167670" lon="-8.8127420">
        <ele>8.0</ele>
        <time>2021-05-20T05:29:16Z</time>
      </trkpt>
      <trkpt lat="42.1167840" lon="-8.8127440">
        <ele>8.0</ele>
        <time>2021-05-20T05:29:17Z</time>
      </trkpt>
      <trkpt lat="42.1168000" lon="-8.8127390">
        <ele>8.1</ele>
        <time>2021-05-20T05:29:18Z</time>
      </trkpt>
      <trkpt lat="42.1168150" lon="-8.8127400">
        <ele>8.1</ele>
        <time>2021-05-20T05:29:19Z</time>
      </trkpt>
      <trkpt lat="42.1168280" lon="-8.8127360">
        <ele>8.1</ele>
        <time>2021-05-20T05:29:20Z</time>
      </trkpt>
      <trkpt lat="42.1168440" lon="-8.8127290">
        <ele>8.2</ele>
        <time>2021-05-20T05:29:21Z</time>
      </trkpt>
      <trkpt lat="42.1168590" lon="-8.8127300">
        <ele>8.2</ele>
        <time>2021-05-20T05:29:23Z</time>
      </trkpt>
      <trkpt lat="42.1168730" lon="-8.8127310">
        <ele>8.3</ele>
        <time>2021-05-20T05:29:24Z</time>
      </trkpt>
      <trkpt lat="42.1168920" lon="-8.8127390">
        <ele>8.3</ele>
        <time>2021-05-20T05:29:25Z</time>
      </trkpt>
      <trkpt lat="42.1169110" lon="-8.8127450">
        <ele>8.4</ele>
        <time>2021-05-20T05:29:26Z</time>
      </trkpt>
      <trkpt lat="42.1169280" lon="-8.8127400">
        <ele>8.5</ele>
        <time>2021-05-20T05:29:27Z</time>
      </trkpt>
      <trkpt lat="42.1169490" lon="-8.8127500">
        <ele>8.6</ele>
        <time>2021-05-20T05:29:28Z</time>
      </trkpt>
      <trkpt lat="42.1169580" lon="-8.8127570">
        <ele>8.6</ele>
        <time>2021-05-20T05:29:29Z</time>
      </trkpt>
      <trkpt lat="42.1169690" lon="-8.8127600">
        <ele>8.6</ele>
        <time>2021-05-20T05:29:30Z</time>
      </trkpt>
      <trkpt lat="42.1169850" lon="-8.8127620">
        <ele>8.7</ele>
        <time>2021-05-20T05:29:31Z</time>
      </trkpt>
      <trkpt lat="42.1169980" lon="-8.8127730">
        <ele>8.7</ele>
        <time>2021-05-20T05:29:32Z</time>
      </trkpt>
      <trkpt lat="42.1170150" lon="-8.8127880">
        <ele>8.8</ele>
        <time>2021-05-20T05:29:33Z</time>
      </trkpt>
      <trkpt lat="42.1170240" lon="-8.8127920">
        <ele>8.9</ele>
        <time>2021-05-20T05:29:34Z</time>
      </trkpt>
      <trkpt lat="42.1170340" lon="-8.8127880">
        <ele>8.9</ele>
        <time>2021-05-20T05:29:35Z</time>
      </trkpt>
      <trkpt lat="42.1170440" lon="-8.8127850">
        <ele>9.0</ele>
        <time>2021-05-20T05:29:36Z</time>
      </trkpt>
      <trkpt lat="42.1170550" lon="-8.8127900">
        <ele>9.0</ele>
        <time>2021-05-20T05:29:37Z</time>
      </trkpt>
      <trkpt lat="42.1170620" lon="-8.8127970">
        <ele>9.0</ele>
        <time>2021-05-20T05:29:38Z</time>
      </trkpt>
      <trkpt lat="42.1170790" lon="-8.8127990">
        <ele>9.1</ele>
        <time>2021-05-20T05:29:39Z</time>
      </trkpt>
      <trkpt lat="42.1171080" lon="-8.8128010">
        <ele>9.2</ele>
        <time>2021-05-20T05:29:40Z</time>
      </trkpt>
      <trkpt lat="42.1171260" lon="-8.8128030">
        <ele>9.3</ele>
        <time>2021-05-20T05:29:41Z</time>
      </trkpt>
      <trkpt lat="42.1171400" lon="-8.8128160">
        <ele>9.4</ele>
        <time>2021-05-20T05:29:42Z</time>
      </trkpt>
      <trkpt lat="42.1171540" lon="-8.8128320">
        <ele>9.5</ele>
        <time>2021-05-20T05:29:43Z</time>
      </trkpt>
      <trkpt lat="42.1171640" lon="-8.8128410">
        <ele>9.6</ele>
        <time>2021-05-20T05:29:44Z</time>
      </trkpt>
      <trkpt lat="42.1171760" lon="-8.8128540">
        <ele>9.6</ele>
        <time>2021-05-20T05:29:45Z</time>
      </trkpt>
      <trkpt lat="42.1171830" lon="-8.8128570">
        <ele>9.7</ele>
        <time>2021-05-20T05:29:46Z</time>
      </trkpt>
      <trkpt lat="42.1171950" lon="-8.8128540">
        <ele>9.7</ele>
        <time>2021-05-20T05:29:47Z</time>
      </trkpt>
      <trkpt lat="42.1172030" lon="-8.8128570">
        <ele>9.8</ele>
        <time>2021-05-20T05:29:48Z</time>
      </trkpt>
      <trkpt lat="42.1172110" lon="-8.8128630">
        <ele>9.8</ele>
        <time>2021-05-20T05:29:49Z</time>
      </trkpt>
      <trkpt lat="42.1172210" lon="-8.8128640">
        <ele>9.9</ele>
        <time>2021-05-20T05:29:50Z</time>
      </trkpt>
      <trkpt lat="42.1172320" lon="-8.8128650">
        <ele>9.9</ele>
        <time>2021-05-20T05:29:51Z</time>
      </trkpt>
      <trkpt lat="42.1172480" lon="-8.8128700">
        <ele>10.0</ele>
        <time>2021-05-20T05:29:52Z</time>
      </trkpt>
      <trkpt lat="42.1172650" lon="-8.8128750">
        <ele>10.2</ele>
        <time>2021-05-20T05:29:53Z</time>
      </trkpt>
      <trkpt lat="42.1172780" lon="-8.8128820">
        <ele>10.2</ele>
        <time>2021-05-20T05:29:54Z</time>
      </trkpt>
      <trkpt lat="42.1172890" lon="-8.8128780">
        <ele>10.3</ele>
        <time>2021-05-20T05:29:55Z</time>
      </trkpt>
      <trkpt lat="42.1172950" lon="-8.8128830">
        <ele>10.4</ele>
        <time>2021-05-20T05:29:56Z</time>
      </trkpt>
      <trkpt lat="42.1173050" lon="-8.8128790">
        <ele>10.4</ele>
        <time>2021-05-20T05:29:57Z</time>
      </trkpt>
      <trkpt lat="42.1173130" lon="-8.8128740">
        <ele>10.5</ele>
        <time>2021-05-20T05:29:58Z</time>
      </trkpt>
      <trkpt lat="42.1173360" lon="-8.8128810">
        <ele>10.6</ele>
        <time>2021-05-20T05:29:59Z</time>
      </trkpt>
      <trkpt lat="42.1173430" lon="-8.8128820">
        <ele>10.7</ele>
        <time>2021-05-20T05:30:00Z</time>
      </trkpt>
      <trkpt lat="42.1173510" lon="-8.8128840">
        <ele>10.7</ele>
        <time>2021-05-20T05:30:01Z</time>
      </trkpt>
      <trkpt lat="42.1173680" lon="-8.8128950">
        <ele>10.9</ele>
        <time>2021-05-20T05:30:02Z</time>
      </trkpt>
      <trkpt lat="42.1173830" lon="-8.8128990">
        <ele>11.0</ele>
        <time>2021-05-20T05:30:03Z</time>
      </trkpt>
      <trkpt lat="42.1173860" lon="-8.8129050">
        <ele>11.0</ele>
        <time>2021-05-20T05:30:04Z</time>
      </trkpt>
      <trkpt lat="42.1173900" lon="-8.8129050">
        <ele>11.0</ele>
        <time>2021-05-20T05:30:05Z</time>
      </trkpt>
      <trkpt lat="42.1173930" lon="-8.8129080">
        <ele>11.1</ele>
        <time>2021-05-20T05:30:06Z</time>
      </trkpt>
      <trkpt lat="42.1173980" lon="-8.8129090">
        <ele>11.1</ele>
        <time>2021-05-20T05:30:07Z</time>
      </trkpt>
      <trkpt lat="42.1174140" lon="-8.8129160">
        <ele>11.2</ele>
        <time>2021-05-20T05:30:08Z</time>
      </trkpt>
      <trkpt lat="42.1174270" lon="-8.8129180">
        <ele>11.3</ele>
        <time>2021-05-20T05:30:09Z</time>
      </trkpt>
      <trkpt lat="42.1174340" lon="-8.8129220">
        <ele>11.4</ele>
        <time>2021-05-20T05:30:10Z</time>
      </trkpt>
      <trkpt lat="42.1174430" lon="-8.8129200">
        <ele>11.4</ele>
        <time>2021-05-20T05:30:11Z</time>
      </trkpt>
      <trkpt lat="42.1174510" lon="-8.8129180">
        <ele>11.5</ele>
        <time>2021-05-20T05:30:12Z</time>
      </trkpt>
      <trkpt lat="42.1174550" lon="-8.8129240">
        <ele>11.5</ele>
        <time>2021-05-20T05:30:13Z</time>
      </trkpt>
      <trkpt lat="42.1174690" lon="-8.8129240">
        <ele>11.6</ele>
        <time>2021-05-20T05:30:14Z</time>
      </trkpt>
      <trkpt lat="42.1174730" lon="-8.8129350">
        <ele>11.7</ele>
        <time>2021-05-20T05:30:15Z</time>
      </trkpt>
      <trkpt lat="42.1174870" lon="-8.8129380">
        <ele>11.8</ele>
        <time>2021-05-20T05:30:16Z</time>
      </trkpt>
      <trkpt lat="42.1175010" lon="-8.8129460">
        <ele>11.9</ele>
        <time>2021-05-20T05:30:17Z</time>
      </trkpt>
      <trkpt lat="42.1175120" lon="-8.8129420">
        <ele>12.0</ele>
        <time>2021-05-20T05:30:18Z</time>
      </trkpt>
      <trkpt lat="42.1175320" lon="-8.8129390">
        <ele>12.1</ele>
        <time>2021-05-20T05:30:19Z</time>
      </trkpt>
      <trkpt lat="42.1175430" lon="-8.8129300">
        <ele>12.2</ele>
        <time>2021-05-20T05:30:20Z</time>
      </trkpt>
      <trkpt lat="42.1175590" lon="-8.8129270">
        <ele>12.3</ele>
        <time>2021-05-20T05:30:21Z</time>
      </trkpt>
      <trkpt lat="42.1175820" lon="-8.8129250">
        <ele>12.5</ele>
        <time>2021-05-20T05:30:22Z</time>
      </trkpt>
      <trkpt lat="42.1175890" lon="-8.8129260">
        <ele>12.5</ele>
        <time>2021-05-20T05:30:23Z</time>
      </trkpt>
      <trkpt lat="42.1175950" lon="-8.8129260">
        <ele>12.5</ele>
        <time>2021-05-20T05:30:24Z</time>
      </trkpt>
      <trkpt lat="42.1176010" lon="-8.8129250">
        <ele>12.6</ele>
        <time>2021-05-20T05:30:25Z</time>
      </trkpt>
      <trkpt lat="42.1176040" lon="-8.8129200">
        <ele>12.6</ele>
        <time>2021-05-20T05:30:26Z</time>
      </trkpt>
      <trkpt lat="42.1176100" lon="-8.8129240">
        <ele>12.6</ele>
        <time>2021-05-20T05:30:27Z</time>
      </trkpt>
      <trkpt lat="42.1176240" lon="-8.8129210">
        <ele>12.7</ele>
        <time>2021-05-20T05:30:28Z</time>
      </trkpt>
      <trkpt lat="42.1176560" lon="-8.8129070">
        <ele>12.9</ele>
        <time>2021-05-20T05:30:29Z</time>
      </trkpt>
      <trkpt lat="42.1176640" lon="-8.8129020">
        <ele>13.0</ele>
        <time>2021-05-20T05:30:30Z</time>
      </trkpt>
      <trkpt lat="42.1176770" lon="-8.8128980">
        <ele>13.1</ele>
        <time>2021-05-20T05:30:31Z</time>
      </trkpt>
      <trkpt lat="42.1176940" lon="-8.8128820">
        <ele>13.2</ele>
        <time>2021-05-20T05:30:32Z</time>
      </trkpt>
      <trkpt lat="42.1177020" lon="-8.8128650">
        <ele>13.3</ele>
        <time>2021-05-20T05:30:33Z</time>
      </trkpt>
      <trkpt lat="42.1177170" lon="-8.8128590">
        <ele>13.5</ele>
        <time>2021-05-20T05:30:34Z</time>
      </trkpt>
      <trkpt lat="42.1177480" lon="-8.8128490">
        <ele>13.7</ele>
        <time>2021-05-20T05:30:35Z</time>
      </trkpt>
      <trkpt lat="42.1177580" lon="-8.8128480">
        <ele>13.7</ele>
        <time>2021-05-20T05:30:36Z</time>
      </trkpt>
      <trkpt lat="42.1177710" lon="-8.8128530">
        <ele>13.8</ele>
        <time>2021-05-20T05:30:37Z</time>
      </trkpt>
      <trkpt lat="42.1177870" lon="-8.8128670">
        <ele>14.0</ele>
        <time>2021-05-20T05:30:38Z</time>
      </trkpt>
      <trkpt lat="42.1178030" lon="-8.8128850">
        <ele>14.1</ele>
        <time>2021-05-20T05:30:39Z</time>
      </trkpt>
      <trkpt lat="42.1178100" lon="-8.8128910">
        <ele>14.2</ele>
        <time>2021-05-20T05:30:40Z</time>
      </trkpt>
      <trkpt lat="42.1178160" lon="-8.8128980">
        <ele>14.2</ele>
        <time>2021-05-20T05:30:41Z</time>
      </trkpt>
      <trkpt lat="42.1178180" lon="-8.8128990">
        <ele>14.2</ele>
        <time>2021-05-20T05:30:42Z</time>
      </trkpt>
      <trkpt lat="42.1178270" lon="-8.8129140">
        <ele>14.3</ele>
        <time>2021-05-20T05:30:43Z</time>
      </trkpt>
      <trkpt lat="42.1178260" lon="-8.8129140">
        <ele>14.3</ele>
        <time>2021-05-20T05:30:44Z</time>
      </trkpt>
      <trkpt lat="42.1178340" lon="-8.8129300">
        <ele>14.4</ele>
        <time>2021-05-20T05:30:45Z</time>
      </trkpt>
      <trkpt lat="42.1178410" lon="-8.8129420">
        <ele>14.5</ele>
        <time>2021-05-20T05:30:46Z</time>
      </trkpt>
      <trkpt lat="42.1178500" lon="-8.8129610">
        <ele>14.6</ele>
        <time>2021-05-20T05:30:47Z</time>
      </trkpt>
      <trkpt lat="42.1178630" lon="-8.8129760">
        <ele>14.7</ele>
        <time>2021-05-20T05:30:48Z</time>
      </trkpt>
      <trkpt lat="42.1178700" lon="-8.8129730">
        <ele>14.8</ele>
        <time>2021-05-20T05:30:49Z</time>
      </trkpt>
      <trkpt lat="42.1178830" lon="-8.8129730">
        <ele>14.9</ele>
        <time>2021-05-20T05:30:50Z</time>
      </trkpt>
      <trkpt lat="42.1178960" lon="-8.8129770">
        <ele>15.0</ele>
        <time>2021-05-20T05:30:51Z</time>
      </trkpt>
      <trkpt lat="42.1179120" lon="-8.8129820">
        <ele>15.1</ele>
        <time>2021-05-20T05:30:52Z</time>
      </trkpt>
      <trkpt lat="42.1179280" lon="-8.8129880">
        <ele>15.2</ele>
        <time>2021-05-20T05:30:53Z</time>
      </trkpt>
      <trkpt lat="42.1179410" lon="-8.8129880">
        <ele>15.3</ele>
        <time>2021-05-20T05:30:54Z</time>
      </trkpt>
      <trkpt lat="42.1179530" lon="-8.8129950">
        <ele>15.4</ele>
        <time>2021-05-20T05:30:55Z</time>
      </trkpt>
      <trkpt lat="42.1179630" lon="-8.8129960">
        <ele>15.4</ele>
        <time>2021-05-20T05:30:56Z</time>
      </trkpt>
      <trkpt lat="42.1179770" lon="-8.8129940">
        <ele>15.5</ele>
        <time>2021-05-20T05:30:57Z</time>
      </trkpt>
      <trkpt lat="42.1179980" lon="-8.8129940">
        <ele>15.7</ele>
        <time>2021-05-20T05:30:58Z</time>
      </trkpt>
      <trkpt lat="42.1180080" lon="-8.8129940">
        <ele>15.8</ele>
        <time>2021-05-20T05:30:59Z</time>
      </trkpt>
      <trkpt lat="42.1180180" lon="-8.8129940">
        <ele>15.8</ele>
        <time>2021-05-20T05:31:00Z</time>
      </trkpt>
      <trkpt lat="42.1180260" lon="-8.8130060">
        <ele>15.9</ele>
        <time>2021-05-20T05:31:01Z</time>
      </trkpt>
      <trkpt lat="42.1180370" lon="-8.8130170">
        <ele>16.0</ele>
        <time>2021-05-20T05:31:02Z</time>
      </trkpt>
      <trkpt lat="42.1180470" lon="-8.8130130">
        <ele>16.1</ele>
        <time>2021-05-20T05:31:03Z</time>
      </trkpt>
      <trkpt lat="42.1180610" lon="-8.8130280">
        <ele>16.2</ele>
        <time>2021-05-20T05:31:04Z</time>
      </trkpt>
      <trkpt lat="42.1180740" lon="-8.8130260">
        <ele>16.3</ele>
        <time>2021-05-20T05:31:05Z</time>
      </trkpt>
      <trkpt lat="42.1180820" lon="-8.8130300">
        <ele>16.3</ele>
        <time>2021-05-20T05:31:06Z</time>
      </trkpt>
      <trkpt lat="42.1180910" lon="-8.8130330">
        <ele>16.4</ele>
        <time>2021-05-20T05:31:07Z</time>
      </trkpt>
      <trkpt lat="42.1181000" lon="-8.8130390">
        <ele>16.5</ele>
        <time>2021-05-20T05:31:08Z</time>
      </trkpt>
      <trkpt lat="42.1181120" lon="-8.8130400">
        <ele>16.6</ele>
        <time>2021-05-20T05:31:09Z</time>
      </trkpt>
      <trkpt lat="42.1181120" lon="-8.8130480">
        <ele>16.6</ele>
        <time>2021-05-20T05:31:10Z</time>
      </trkpt>
      <trkpt lat="42.1181150" lon="-8.8130460">
        <ele>16.6</ele>
        <time>2021-05-20T05:31:11Z</time>
      </trkpt>
      <trkpt lat="42.1181350" lon="-8.8130510">
        <ele>16.8</ele>
        <time>2021-05-20T05:31:12Z</time>
      </trkpt>
      <trkpt lat="42.1181490" lon="-8.8130550">
        <ele>16.9</ele>
        <time>2021-05-20T05:31:13Z</time>
      </trkpt>
      <trkpt lat="42.1181690" lon="-8.8130630">
        <ele>17.0</ele>
        <time>2021-05-20T05:31:14Z</time>
      </trkpt>
      <trkpt lat="42.1181850" lon="-8.8130660">
        <ele>17.1</ele>
        <time>2021-05-20T05:31:15Z</time>
      </trkpt>
      <trkpt lat="42.1181970" lon="-8.8130710">
        <ele>17.2</ele>
        <time>2021-05-20T05:31:16Z</time>
      </trkpt>
      <trkpt lat="42.1182140" lon="-8.8130730">
        <ele>17.4</ele>
        <time>2021-05-20T05:31:17Z</time>
      </trkpt>
      <trkpt lat="42.1182320" lon="-8.8130780">
        <ele>17.5</ele>
        <time>2021-05-20T05:31:18Z</time>
      </trkpt>
      <trkpt lat="42.1182500" lon="-8.8130770">
        <ele>17.6</ele>
        <time>2021-05-20T05:31:19Z</time>
      </trkpt>
      <trkpt lat="42.1182600" lon="-8.8130770">
        <ele>17.7</ele>
        <time>2021-05-20T05:31:20Z</time>
      </trkpt>
      <trkpt lat="42.1182690" lon="-8.8130760">
        <ele>17.8</ele>
        <time>2021-05-20T05:31:21Z</time>
      </trkpt>
      <trkpt lat="42.1182910" lon="-8.8130800">
        <ele>18.0</ele>
        <time>2021-05-20T05:31:22Z</time>
      </trkpt>
      <trkpt lat="42.1182980" lon="-8.8130830">
        <ele>18.0</ele>
        <time>2021-05-20T05:31:23Z</time>
      </trkpt>
      <trkpt lat="42.1183050" lon="-8.8130850">
        <ele>18.1</ele>
        <time>2021-05-20T05:31:24Z</time>
      </trkpt>
      <trkpt lat="42.1183170" lon="-8.8130870">
        <ele>18.2</ele>
        <time>2021-05-20T05:31:25Z</time>
      </trkpt>
      <trkpt lat="42.1183300" lon="-8.8130760">
        <ele>18.3</ele>
        <time>2021-05-20T05:31:26Z</time>
      </trkpt>
      <trkpt lat="42.1183400" lon="-8.8130790">
        <ele>18.3</ele>
        <time>2021-05-20T05:31:27Z</time>
      </trkpt>
      <trkpt lat="42.1183580" lon="-8.8130680">
        <ele>18.5</ele>
        <time>2021-05-20T05:31:28Z</time>
      </trkpt>
      <trkpt lat="42.1183660" lon="-8.8130630">
        <ele>18.5</ele>
        <time>2021-05-20T05:31:29Z</time>
      </trkpt>
      <trkpt lat="42.1183740" lon="-8.8130570">
        <ele>18.6</ele>
        <time>2021-05-20T05:31:30Z</time>
      </trkpt>
      <trkpt lat="42.1183960" lon="-8.8130510">
        <ele>18.8</ele>
        <time>2021-05-20T05:31:31Z</time>
      </trkpt>
      <trkpt lat="42.1184040" lon="-8.8130490">
        <ele>18.8</ele>
        <time>2021-05-20T05:31:32Z</time>
      </trkpt>
      <trkpt lat="42.1184110" lon="-8.8130470">
        <ele>18.9</ele>
        <time>2021-05-20T05:31:33Z</time>
      </trkpt>
      <trkpt lat="42.1184260" lon="-8.8130390">
        <ele>19.0</ele>
        <time>2021-05-20T05:31:34Z</time>
      </trkpt>
      <trkpt lat="42.1184430" lon="-8.8130380">
        <ele>19.1</ele>
        <time>2021-05-20T05:31:35Z</time>
      </trkpt>
      <trkpt lat="42.1184650" lon="-8.8130170">
        <ele>19.3</ele>
        <time>2021-05-20T05:31:36Z</time>
      </trkpt>
      <trkpt lat="42.1184720" lon="-8.8130110">
        <ele>19.4</ele>
        <time>2021-05-20T05:31:37Z</time>
      </trkpt>
      <trkpt lat="42.1184790" lon="-8.8130040">
        <ele>19.4</ele>
        <time>2021-05-20T05:31:38Z</time>
      </trkpt>
      <trkpt lat="42.1184910" lon="-8.8129910">
        <ele>19.5</ele>
        <time>2021-05-20T05:31:39Z</time>
      </trkpt>
      <trkpt lat="42.1185010" lon="-8.8129780">
        <ele>19.6</ele>
        <time>2021-05-20T05:31:40Z</time>
      </trkpt>
      <trkpt lat="42.1185130" lon="-8.8129640">
        <ele>19.7</ele>
        <time>2021-05-20T05:31:41Z</time>
      </trkpt>
      <trkpt lat="42.1185280" lon="-8.8129520">
        <ele>19.9</ele>
        <time>2021-05-20T05:31:42Z</time>
      </trkpt>
      <trkpt lat="42.1185300" lon="-8.8129450">
        <ele>19.9</ele>
        <time>2021-05-20T05:31:43Z</time>
      </trkpt>
      <trkpt lat="42.1185330" lon="-8.8129250">
        <ele>20.0</ele>
        <time>2021-05-20T05:31:44Z</time>
      </trkpt>
      <trkpt lat="42.1185430" lon="-8.8129120">
        <ele>20.1</ele>
        <time>2021-05-20T05:31:45Z</time>
      </trkpt>
      <trkpt lat="42.1185670" lon="-8.8128980">
        <ele>20.3</ele>
        <time>2021-05-20T05:31:46Z</time>
      </trkpt>
      <trkpt lat="42.1185770" lon="-8.8128980">
        <ele>20.4</ele>
        <time>2021-05-20T05:31:47Z</time>
      </trkpt>
      <trkpt lat="42.1185880" lon="-8.8128980">
        <ele>20.4</ele>
        <time>2021-05-20T05:31:48Z</time>
      </trkpt>
      <trkpt lat="42.1185990" lon="-8.8128880">
        <ele>20.5</ele>
        <time>2021-05-20T05:31:49Z</time>
      </trkpt>
      <trkpt lat="42.1186160" lon="-8.8128830">
        <ele>20.6</ele>
        <time>2021-05-20T05:31:50Z</time>
      </trkpt>
      <trkpt lat="42.1186380" lon="-8.8128790">
        <ele>20.8</ele>
        <time>2021-05-20T05:31:51Z</time>
      </trkpt>
      <trkpt lat="42.1186500" lon="-8.8128710">
        <ele>20.9</ele>
        <time>2021-05-20T05:31:52Z</time>
      </trkpt>
      <trkpt lat="42.1186570" lon="-8.8128600">
        <ele>21.0</ele>
        <time>2021-05-20T05:31:53Z</time>
      </trkpt>
      <trkpt lat="42.1186760" lon="-8.8128560">
        <ele>21.1</ele>
        <time>2021-05-20T05:31:54Z</time>
      </trkpt>
      <trkpt lat="42.1186880" lon="-8.8128480">
        <ele>21.2</ele>
        <time>2021-05-20T05:31:55Z</time>
      </trkpt>
      <trkpt lat="42.1186960" lon="-8.8128420">
        <ele>21.2</ele>
        <time>2021-05-20T05:31:56Z</time>
      </trkpt>
      <trkpt lat="42.1187080" lon="-8.8128360">
        <ele>21.2</ele>
        <time>2021-05-20T05:31:57Z</time>
      </trkpt>
      <trkpt lat="42.1187180" lon="-8.8128330">
        <ele>21.3</ele>
        <time>2021-05-20T05:31:58Z</time>
      </trkpt>
      <trkpt lat="42.1187260" lon="-8.8128190">
        <ele>21.3</ele>
        <time>2021-05-20T05:31:59Z</time>
      </trkpt>
      <trkpt lat="42.1187360" lon="-8.8128170">
        <ele>21.4</ele>
        <time>2021-05-20T05:32:00Z</time>
      </trkpt>
      <trkpt lat="42.1187510" lon="-8.8128190">
        <ele>21.4</ele>
        <time>2021-05-20T05:32:01Z</time>
      </trkpt>
      <trkpt lat="42.1187630" lon="-8.8128170">
        <ele>21.5</ele>
        <time>2021-05-20T05:32:02Z</time>
      </trkpt>
      <trkpt lat="42.1187710" lon="-8.8128150">
        <ele>21.5</ele>
        <time>2021-05-20T05:32:03Z</time>
      </trkpt>
      <trkpt lat="42.1187990" lon="-8.8128130">
        <ele>21.6</ele>
        <time>2021-05-20T05:32:04Z</time>
      </trkpt>
      <trkpt lat="42.1188080" lon="-8.8128140">
        <ele>21.6</ele>
        <time>2021-05-20T05:32:05Z</time>
      </trkpt>
      <trkpt lat="42.1188220" lon="-8.8128120">
        <ele>21.7</ele>
        <time>2021-05-20T05:32:06Z</time>
      </trkpt>
      <trkpt lat="42.1188320" lon="-8.8128110">
        <ele>21.7</ele>
        <time>2021-05-20T05:32:07Z</time>
      </trkpt>
      <trkpt lat="42.1188380" lon="-8.8128100">
        <ele>21.8</ele>
        <time>2021-05-20T05:32:08Z</time>
      </trkpt>
      <trkpt lat="42.1188610" lon="-8.8128120">
        <ele>21.8</ele>
        <time>2021-05-20T05:32:09Z</time>
      </trkpt>
      <trkpt lat="42.1188690" lon="-8.8128100">
        <ele>21.9</ele>
        <time>2021-05-20T05:32:10Z</time>
      </trkpt>
      <trkpt lat="42.1188780" lon="-8.8128080">
        <ele>21.9</ele>
        <time>2021-05-20T05:32:11Z</time>
      </trkpt>
      <trkpt lat="42.1188930" lon="-8.8128000">
        <ele>21.9</ele>
        <time>2021-05-20T05:32:12Z</time>
      </trkpt>
      <trkpt lat="42.1189030" lon="-8.8127940">
        <ele>22.0</ele>
        <time>2021-05-20T05:32:13Z</time>
      </trkpt>
      <trkpt lat="42.1189120" lon="-8.8127890">
        <ele>22.1</ele>
        <time>2021-05-20T05:32:14Z</time>
      </trkpt>
      <trkpt lat="42.1189060" lon="-8.8127900">
        <ele>22.1</ele>
        <time>2021-05-20T05:32:15Z</time>
      </trkpt>
      <trkpt lat="42.1189100" lon="-8.8127800">
        <ele>22.1</ele>
        <time>2021-05-20T05:32:16Z</time>
      </trkpt>
      <trkpt lat="42.1189230" lon="-8.8127750">
        <ele>22.2</ele>
        <time>2021-05-20T05:32:17Z</time>
      </trkpt>
      <trkpt lat="42.1189350" lon="-8.8127670">
        <ele>22.3</ele>
        <time>2021-05-20T05:32:18Z</time>
      </trkpt>
      <trkpt lat="42.1189450" lon="-8.8127610">
        <ele>22.4</ele>
        <time>2021-05-20T05:32:19Z</time>
      </trkpt>
      <trkpt lat="42.1189570" lon="-8.8127560">
        <ele>22.4</ele>
        <time>2021-05-20T05:32:20Z</time>
      </trkpt>
      <trkpt lat="42.1189660" lon="-8.8127450">
        <ele>22.5</ele>
        <time>2021-05-20T05:32:21Z</time>
      </trkpt>
      <trkpt lat="42.1189860" lon="-8.8127370">
        <ele>22.6</ele>
        <time>2021-05-20T05:32:22Z</time>
      </trkpt>
      <trkpt lat="42.1189940" lon="-8.8127350">
        <ele>22.7</ele>
        <time>2021-05-20T05:32:23Z</time>
      </trkpt>
      <trkpt lat="42.1190030" lon="-8.8127340">
        <ele>22.7</ele>
        <time>2021-05-20T05:32:24Z</time>
      </trkpt>
      <trkpt lat="42.1190180" lon="-8.8127330">
        <ele>22.8</ele>
        <time>2021-05-20T05:32:25Z</time>
      </trkpt>
      <trkpt lat="42.1190240" lon="-8.8127240">
        <ele>22.8</ele>
        <time>2021-05-20T05:32:26Z</time>
      </trkpt>
      <trkpt lat="42.1190350" lon="-8.8127190">
        <ele>22.9</ele>
        <time>2021-05-20T05:32:27Z</time>
      </trkpt>
      <trkpt lat="42.1190470" lon="-8.8127110">
        <ele>23.0</ele>
        <time>2021-05-20T05:32:28Z</time>
      </trkpt>
      <trkpt lat="42.1190520" lon="-8.8127090">
        <ele>23.0</ele>
        <time>2021-05-20T05:32:29Z</time>
      </trkpt>
      <trkpt lat="42.1190610" lon="-8.8127070">
        <ele>23.1</ele>
        <time>2021-05-20T05:32:30Z</time>
      </trkpt>
      <trkpt lat="42.1190670" lon="-8.8127030">
        <ele>23.1</ele>
        <time>2021-05-20T05:32:31Z</time>
      </trkpt>
      <trkpt lat="42.1190820" lon="-8.8126960">
        <ele>23.2</ele>
        <time>2021-05-20T05:32:32Z</time>
      </trkpt>
      <trkpt lat="42.1190920" lon="-8.8126910">
        <ele>23.2</ele>
        <time>2021-05-20T05:32:33Z</time>
      </trkpt>
      <trkpt lat="42.1190970" lon="-8.8126870">
        <ele>23.3</ele>
        <time>2021-05-20T05:32:34Z</time>
      </trkpt>
      <trkpt lat="42.1191010" lon="-8.8126770">
        <ele>23.3</ele>
        <time>2021-05-20T05:32:35Z</time>
      </trkpt>
      <trkpt lat="42.1191120" lon="-8.8126690">
        <ele>23.4</ele>
        <time>2021-05-20T05:32:36Z</time>
      </trkpt>
      <trkpt lat="42.1191240" lon="-8.8126670">
        <ele>23.4</ele>
        <time>2021-05-20T05:32:37Z</time>
      </trkpt>
      <trkpt lat="42.1191350" lon="-8.8126610">
        <ele>23.5</ele>
        <time>2021-05-20T05:32:38Z</time>
      </trkpt>
      <trkpt lat="42.1191430" lon="-8.8126600">
        <ele>23.5</ele>
        <time>2021-05-20T05:32:39Z</time>
      </trkpt>
      <trkpt lat="42.1191510" lon="-8.8126580">
        <ele>23.6</ele>
        <time>2021-05-20T05:32:40Z</time>
      </trkpt>
      <trkpt lat="42.1191590" lon="-8.8126570">
        <ele>23.6</ele>
        <time>2021-05-20T05:32:41Z</time>
      </trkpt>
      <trkpt lat="42.1191720" lon="-8.8126570">
        <ele>23.7</ele>
        <time>2021-05-20T05:32:42Z</time>
      </trkpt>
      <trkpt lat="42.1191880" lon="-8.8126640">
        <ele>23.8</ele>
        <time>2021-05-20T05:32:43Z</time>
      </trkpt>
      <trkpt lat="42.1191950" lon="-8.8126640">
        <ele>23.8</ele>
        <time>2021-05-20T05:32:44Z</time>
      </trkpt>
      <trkpt lat="42.1192050" lon="-8.8126590">
        <ele>23.8</ele>
        <time>2021-05-20T05:32:45Z</time>
      </trkpt>
      <trkpt lat="42.1192160" lon="-8.8126520">
        <ele>23.9</ele>
        <time>2021-05-20T05:32:46Z</time>
      </trkpt>
      <trkpt lat="42.1192350" lon="-8.8126450">
        <ele>24.0</ele>
        <time>2021-05-20T05:32:47Z</time>
      </trkpt>
      <trkpt lat="42.1192460" lon="-8.8126400">
        <ele>24.0</ele>
        <time>2021-05-20T05:32:48Z</time>
      </trkpt>
      <trkpt lat="42.1192640" lon="-8.8126260">
        <ele>24.1</ele>
        <time>2021-05-20T05:32:49Z</time>
      </trkpt>
      <trkpt lat="42.1192750" lon="-8.8126190">
        <ele>24.2</ele>
        <time>2021-05-20T05:32:50Z</time>
      </trkpt>
      <trkpt lat="42.1192850" lon="-8.8126130">
        <ele>24.2</ele>
        <time>2021-05-20T05:32:51Z</time>
      </trkpt>
      <trkpt lat="42.1192990" lon="-8.8125940">
        <ele>24.3</ele>
        <time>2021-05-20T05:32:52Z</time>
      </trkpt>
      <trkpt lat="42.1193080" lon="-8.8125870">
        <ele>24.3</ele>
        <time>2021-05-20T05:32:53Z</time>
      </trkpt>
      <trkpt lat="42.1193160" lon="-8.8125820">
        <ele>24.4</ele>
        <time>2021-05-20T05:32:54Z</time>
      </trkpt>
      <trkpt lat="42.1193320" lon="-8.8125690">
        <ele>24.5</ele>
        <time>2021-05-20T05:32:55Z</time>
      </trkpt>
      <trkpt lat="42.1193450" lon="-8.8125580">
        <ele>24.5</ele>
        <time>2021-05-20T05:32:56Z</time>
      </trkpt>
      <trkpt lat="42.1193590" lon="-8.8125570">
        <ele>24.6</ele>
        <time>2021-05-20T05:32:57Z</time>
      </trkpt>
      <trkpt lat="42.1193750" lon="-8.8125460">
        <ele>24.7</ele>
        <time>2021-05-20T05:32:58Z</time>
      </trkpt>
      <trkpt lat="42.1193840" lon="-8.8125400">
        <ele>24.7</ele>
        <time>2021-05-20T05:32:59Z</time>
      </trkpt>
      <trkpt lat="42.1193930" lon="-8.8125350">
        <ele>24.7</ele>
        <time>2021-05-20T05:33:00Z</time>
      </trkpt>
      <trkpt lat="42.1194140" lon="-8.8125340">
        <ele>24.8</ele>
        <time>2021-05-20T05:33:01Z</time>
      </trkpt>
      <trkpt lat="42.1194260" lon="-8.8125260">
        <ele>24.9</ele>
        <time>2021-05-20T05:33:02Z</time>
      </trkpt>
      <trkpt lat="42.1194420" lon="-8.8125250">
        <ele>24.9</ele>
        <time>2021-05-20T05:33:03Z</time>
      </trkpt>
      <trkpt lat="42.1194570" lon="-8.8125180">
        <ele>25.0</ele>
        <time>2021-05-20T05:33:04Z</time>
      </trkpt>
      <trkpt lat="42.1194630" lon="-8.8125140">
        <ele>25.0</ele>
        <time>2021-05-20T05:33:05Z</time>
      </trkpt>
      <trkpt lat="42.1194720" lon="-8.8125100">
        <ele>25.1</ele>
        <time>2021-05-20T05:33:06Z</time>
      </trkpt>
      <trkpt lat="42.1194820" lon="-8.8125050">
        <ele>25.1</ele>
        <time>2021-05-20T05:33:07Z</time>
      </trkpt>
      <trkpt lat="42.1194930" lon="-8.8124990">
        <ele>25.2</ele>
        <time>2021-05-20T05:33:08Z</time>
      </trkpt>
      <trkpt lat="42.1195020" lon="-8.8124920">
        <ele>25.2</ele>
        <time>2021-05-20T05:33:09Z</time>
      </trkpt>
      <trkpt lat="42.1195130" lon="-8.8124850">
        <ele>25.3</ele>
        <time>2021-05-20T05:33:10Z</time>
      </trkpt>
      <trkpt lat="42.1195180" lon="-8.8124840">
        <ele>25.3</ele>
        <time>2021-05-20T05:33:11Z</time>
      </trkpt>
      <trkpt lat="42.1195370" lon="-8.8124830">
        <ele>25.4</ele>
        <time>2021-05-20T05:33:12Z</time>
      </trkpt>
      <trkpt lat="42.1195480" lon="-8.8124740">
        <ele>25.4</ele>
        <time>2021-05-20T05:33:13Z</time>
      </trkpt>
      <trkpt lat="42.1195580" lon="-8.8124700">
        <ele>25.4</ele>
        <time>2021-05-20T05:33:14Z</time>
      </trkpt>
      <trkpt lat="42.1195770" lon="-8.8124620">
        <ele>25.5</ele>
        <time>2021-05-20T05:33:15Z</time>
      </trkpt>
      <trkpt lat="42.1195920" lon="-8.8124570">
        <ele>25.6</ele>
        <time>2021-05-20T05:33:16Z</time>
      </trkpt>
      <trkpt lat="42.1196050" lon="-8.8124400">
        <ele>25.7</ele>
        <time>2021-05-20T05:33:17Z</time>
      </trkpt>
      <trkpt lat="42.1196210" lon="-8.8124340">
        <ele>25.7</ele>
        <time>2021-05-20T05:33:18Z</time>
      </trkpt>
      <trkpt lat="42.1196290" lon="-8.8124320">
        <ele>25.8</ele>
        <time>2021-05-20T05:33:19Z</time>
      </trkpt>
      <trkpt lat="42.1196360" lon="-8.8124300">
        <ele>25.8</ele>
        <time>2021-05-20T05:33:20Z</time>
      </trkpt>
      <trkpt lat="42.1196430" lon="-8.8124280">
        <ele>25.8</ele>
        <time>2021-05-20T05:33:21Z</time>
      </trkpt>
      <trkpt lat="42.1196690" lon="-8.8124140">
        <ele>25.9</ele>
        <time>2021-05-20T05:33:22Z</time>
      </trkpt>
      <trkpt lat="42.1196780" lon="-8.8124090">
        <ele>26.0</ele>
        <time>2021-05-20T05:33:23Z</time>
      </trkpt>
      <trkpt lat="42.1196960" lon="-8.8123990">
        <ele>26.0</ele>
        <time>2021-05-20T05:33:24Z</time>
      </trkpt>
      <trkpt lat="42.1197050" lon="-8.8123950">
        <ele>26.1</ele>
        <time>2021-05-20T05:33:25Z</time>
      </trkpt>
      <trkpt lat="42.1197140" lon="-8.8123920">
        <ele>26.1</ele>
        <time>2021-05-20T05:33:26Z</time>
      </trkpt>
      <trkpt lat="42.1197400" lon="-8.8123720">
        <ele>26.2</ele>
        <time>2021-05-20T05:33:27Z</time>
      </trkpt>
      <trkpt lat="42.1197490" lon="-8.8123670">
        <ele>26.3</ele>
        <time>2021-05-20T05:33:28Z</time>
      </trkpt>
      <trkpt lat="42.1197610" lon="-8.8123700">
        <ele>26.3</ele>
        <time>2021-05-20T05:33:29Z</time>
      </trkpt>
      <trkpt lat="42.1197700" lon="-8.8123610">
        <ele>26.4</ele>
        <time>2021-05-20T05:33:30Z</time>
      </trkpt>
      <trkpt lat="42.1197850" lon="-8.8123560">
        <ele>26.4</ele>
        <time>2021-05-20T05:33:31Z</time>
      </trkpt>
      <trkpt lat="42.1197920" lon="-8.8123460">
        <ele>26.5</ele>
        <time>2021-05-20T05:33:32Z</time>
      </trkpt>
      <trkpt lat="42.1198100" lon="-8.8123350">
        <ele>26.6</ele>
        <time>2021-05-20T05:33:33Z</time>
      </trkpt>
      <trkpt lat="42.1198210" lon="-8.8123300">
        <ele>26.6</ele>
        <time>2021-05-20T05:33:34Z</time>
      </trkpt>
      <trkpt lat="42.1198290" lon="-8.8123220">
        <ele>26.6</ele>
        <time>2021-05-20T05:33:35Z</time>
      </trkpt>
      <trkpt lat="42.1198400" lon="-8.8123140">
        <ele>26.7</ele>
        <time>2021-05-20T05:33:36Z</time>
      </trkpt>
      <trkpt lat="42.1198670" lon="-8.8122990">
        <ele>26.8</ele>
        <time>2021-05-20T05:33:37Z</time>
      </trkpt>
      <trkpt lat="42.1198870" lon="-8.8122940">
        <ele>26.9</ele>
        <time>2021-05-20T05:33:38Z</time>
      </trkpt>
      <trkpt lat="42.1199000" lon="-8.8122980">
        <ele>27.0</ele>
        <time>2021-05-20T05:33:39Z</time>
      </trkpt>
      <trkpt lat="42.1199130" lon="-8.8122880">
        <ele>27.0</ele>
        <time>2021-05-20T05:33:40Z</time>
      </trkpt>
      <trkpt lat="42.1199170" lon="-8.8122730">
        <ele>27.1</ele>
        <time>2021-05-20T05:33:41Z</time>
      </trkpt>
      <trkpt lat="42.1199190" lon="-8.8122660">
        <ele>27.1</ele>
        <time>2021-05-20T05:33:42Z</time>
      </trkpt>
      <trkpt lat="42.1199380" lon="-8.8122630">
        <ele>27.2</ele>
        <time>2021-05-20T05:33:43Z</time>
      </trkpt>
      <trkpt lat="42.1199510" lon="-8.8122540">
        <ele>27.2</ele>
        <time>2021-05-20T05:33:44Z</time>
      </trkpt>
      <trkpt lat="42.1199610" lon="-8.8122640">
        <ele>27.3</ele>
        <time>2021-05-20T05:33:45Z</time>
      </trkpt>
      <trkpt lat="42.1199790" lon="-8.8122700">
        <ele>27.4</ele>
        <time>2021-05-20T05:33:46Z</time>
      </trkpt>
      <trkpt lat="42.1199950" lon="-8.8122680">
        <ele>27.4</ele>
        <time>2021-05-20T05:33:47Z</time>
      </trkpt>
      <trkpt lat="42.1200110" lon="-8.8122600">
        <ele>27.5</ele>
        <time>2021-05-20T05:33:48Z</time>
      </trkpt>
      <trkpt lat="42.1200300" lon="-8.8122560">
        <ele>27.6</ele>
        <time>2021-05-20T05:33:49Z</time>
      </trkpt>
      <trkpt lat="42.1200400" lon="-8.8122450">
        <ele>27.6</ele>
        <time>2021-05-20T05:33:50Z</time>
      </trkpt>
      <trkpt lat="42.1200470" lon="-8.8122370">
        <ele>27.7</ele>
        <time>2021-05-20T05:33:51Z</time>
      </trkpt>
      <trkpt lat="42.1200610" lon="-8.8122300">
        <ele>27.7</ele>
        <time>2021-05-20T05:33:52Z</time>
      </trkpt>
      <trkpt lat="42.1200740" lon="-8.8122230">
        <ele>27.8</ele>
        <time>2021-05-20T05:33:53Z</time>
      </trkpt>
      <trkpt lat="42.1200940" lon="-8.8122100">
        <ele>27.9</ele>
        <time>2021-05-20T05:33:54Z</time>
      </trkpt>
      <trkpt lat="42.1201010" lon="-8.8122040">
        <ele>27.9</ele>
        <time>2021-05-20T05:33:55Z</time>
      </trkpt>
      <trkpt lat="42.1201090" lon="-8.8121990">
        <ele>28.0</ele>
        <time>2021-05-20T05:33:56Z</time>
      </trkpt>
      <trkpt lat="42.1201160" lon="-8.8122030">
        <ele>28.0</ele>
        <time>2021-05-20T05:33:57Z</time>
      </trkpt>
      <trkpt lat="42.1201380" lon="-8.8122020">
        <ele>28.1</ele>
        <time>2021-05-20T05:33:58Z</time>
      </trkpt>
      <trkpt lat="42.1201580" lon="-8.8121970">
        <ele>28.2</ele>
        <time>2021-05-20T05:33:59Z</time>
      </trkpt>
      <trkpt lat="42.1201680" lon="-8.8121960">
        <ele>28.2</ele>
        <time>2021-05-20T05:34:00Z</time>
      </trkpt>
      <trkpt lat="42.1201770" lon="-8.8121950">
        <ele>28.3</ele>
        <time>2021-05-20T05:34:01Z</time>
      </trkpt>
      <trkpt lat="42.1201850" lon="-8.8121880">
        <ele>28.3</ele>
        <time>2021-05-20T05:34:02Z</time>
      </trkpt>
      <trkpt lat="42.1202020" lon="-8.8121840">
        <ele>28.4</ele>
        <time>2021-05-20T05:34:03Z</time>
      </trkpt>
      <trkpt lat="42.1202090" lon="-8.8121760">
        <ele>28.4</ele>
        <time>2021-05-20T05:34:04Z</time>
      </trkpt>
      <trkpt lat="42.1202210" lon="-8.8121740">
        <ele>28.4</ele>
        <time>2021-05-20T05:34:05Z</time>
      </trkpt>
      <trkpt lat="42.1202240" lon="-8.8121680">
        <ele>28.4</ele>
        <time>2021-05-20T05:34:06Z</time>
      </trkpt>
      <trkpt lat="42.1202380" lon="-8.8121640">
        <ele>28.4</ele>
        <time>2021-05-20T05:34:07Z</time>
      </trkpt>
      <trkpt lat="42.1202570" lon="-8.8121610">
        <ele>28.4</ele>
        <time>2021-05-20T05:34:08Z</time>
      </trkpt>
      <trkpt lat="42.1202680" lon="-8.8121600">
        <ele>28.4</ele>
        <time>2021-05-20T05:34:09Z</time>
      </trkpt>
      <trkpt lat="42.1202820" lon="-8.8121540">
        <ele>28.4</ele>
        <time>2021-05-20T05:34:10Z</time>
      </trkpt>
      <trkpt lat="42.1202890" lon="-8.8121460">
        <ele>28.5</ele>
        <time>2021-05-20T05:34:11Z</time>
      </trkpt>
      <trkpt lat="42.1203020" lon="-8.8121480">
        <ele>28.5</ele>
        <time>2021-05-20T05:34:12Z</time>
      </trkpt>
      <trkpt lat="42.1203180" lon="-8.8121460">
        <ele>28.6</ele>
        <time>2021-05-20T05:34:13Z</time>
      </trkpt>
      <trkpt lat="42.1203310" lon="-8.8121450">
        <ele>28.6</ele>
        <time>2021-05-20T05:34:14Z</time>
      </trkpt>
      <trkpt lat="42.1203440" lon="-8.8121330">
        <ele>28.7</ele>
        <time>2021-05-20T05:34:15Z</time>
      </trkpt>
      <trkpt lat="42.1203580" lon="-8.8121380">
        <ele>28.8</ele>
        <time>2021-05-20T05:34:16Z</time>
      </trkpt>
      <trkpt lat="42.1203730" lon="-8.8121310">
        <ele>28.8</ele>
        <time>2021-05-20T05:34:17Z</time>
      </trkpt>
      <trkpt lat="42.1203850" lon="-8.8121240">
        <ele>28.9</ele>
        <time>2021-05-20T05:34:18Z</time>
      </trkpt>
      <trkpt lat="42.1204010" lon="-8.8121090">
        <ele>28.9</ele>
        <time>2021-05-20T05:34:19Z</time>
      </trkpt>
      <trkpt lat="42.1204090" lon="-8.8121040">
        <ele>29.0</ele>
        <time>2021-05-20T05:34:20Z</time>
      </trkpt>
      <trkpt lat="42.1204170" lon="-8.8120980">
        <ele>29.0</ele>
        <time>2021-05-20T05:34:21Z</time>
      </trkpt>
      <trkpt lat="42.1204230" lon="-8.8120960">
        <ele>29.0</ele>
        <time>2021-05-20T05:34:22Z</time>
      </trkpt>
      <trkpt lat="42.1204340" lon="-8.8120920">
        <ele>29.1</ele>
        <time>2021-05-20T05:34:23Z</time>
      </trkpt>
      <trkpt lat="42.1204370" lon="-8.8120870">
        <ele>29.1</ele>
        <time>2021-05-20T05:34:24Z</time>
      </trkpt>
      <trkpt lat="42.1204300" lon="-8.8120840">
        <ele>29.1</ele>
        <time>2021-05-20T05:34:25Z</time>
      </trkpt>
      <trkpt lat="42.1204400" lon="-8.8120840">
        <ele>29.2</ele>
        <time>2021-05-20T05:34:26Z</time>
      </trkpt>
      <trkpt lat="42.1204480" lon="-8.8120780">
        <ele>29.2</ele>
        <time>2021-05-20T05:34:27Z</time>
      </trkpt>
      <trkpt lat="42.1204600" lon="-8.8120680">
        <ele>29.2</ele>
        <time>2021-05-20T05:34:28Z</time>
      </trkpt>
      <trkpt lat="42.1204650" lon="-8.8120600">
        <ele>29.3</ele>
        <time>2021-05-20T05:34:29Z</time>
      </trkpt>
      <trkpt lat="42.1204760" lon="-8.8120550">
        <ele>29.3</ele>
        <time>2021-05-20T05:34:30Z</time>
      </trkpt>
      <trkpt lat="42.1204950" lon="-8.8120390">
        <ele>29.4</ele>
        <time>2021-05-20T05:34:31Z</time>
      </trkpt>
      <trkpt lat="42.1205020" lon="-8.8120340">
        <ele>29.4</ele>
        <time>2021-05-20T05:34:32Z</time>
      </trkpt>
      <trkpt lat="42.1205090" lon="-8.8120290">
        <ele>29.4</ele>
        <time>2021-05-20T05:34:33Z</time>
      </trkpt>
      <trkpt lat="42.1205230" lon="-8.8120180">
        <ele>29.5</ele>
        <time>2021-05-20T05:34:34Z</time>
      </trkpt>
      <trkpt lat="42.1205350" lon="-8.8120110">
        <ele>29.5</ele>
        <time>2021-05-20T05:34:35Z</time>
      </trkpt>
      <trkpt lat="42.1205560" lon="-8.8119960">
        <ele>29.6</ele>
        <time>2021-05-20T05:34:36Z</time>
      </trkpt>
      <trkpt lat="42.1205620" lon="-8.8119920">
        <ele>29.6</ele>
        <time>2021-05-20T05:34:37Z</time>
      </trkpt>
      <trkpt lat="42.1205680" lon="-8.8119870">
        <ele>29.6</ele>
        <time>2021-05-20T05:34:38Z</time>
      </trkpt>
      <trkpt lat="42.1205840" lon="-8.8119700">
        <ele>29.7</ele>
        <time>2021-05-20T05:34:39Z</time>
      </trkpt>
      <trkpt lat="42.1205910" lon="-8.8119610">
        <ele>29.7</ele>
        <time>2021-05-20T05:34:40Z</time>
      </trkpt>
      <trkpt lat="42.1205980" lon="-8.8119530">
        <ele>29.8</ele>
        <time>2021-05-20T05:34:41Z</time>
      </trkpt>
      <trkpt lat="42.1206100" lon="-8.8119470">
        <ele>29.9</ele>
        <time>2021-05-20T05:34:42Z</time>
      </trkpt>
      <trkpt lat="42.1206200" lon="-8.8119320">
        <ele>30.0</ele>
        <time>2021-05-20T05:34:43Z</time>
      </trkpt>
      <trkpt lat="42.1206370" lon="-8.8119220">
        <ele>30.2</ele>
        <time>2021-05-20T05:34:44Z</time>
      </trkpt>
      <trkpt lat="42.1206460" lon="-8.8119180">
        <ele>30.3</ele>
        <time>2021-05-20T05:34:45Z</time>
      </trkpt>
      <trkpt lat="42.1206550" lon="-8.8119130">
        <ele>30.3</ele>
        <time>2021-05-20T05:34:46Z</time>
      </trkpt>
      <trkpt lat="42.1206620" lon="-8.8119050">
        <ele>30.4</ele>
        <time>2021-05-20T05:34:47Z</time>
      </trkpt>
      <trkpt lat="42.1206880" lon="-8.8118980">
        <ele>30.6</ele>
        <time>2021-05-20T05:34:48Z</time>
      </trkpt>
      <trkpt lat="42.1206880" lon="-8.8118950">
        <ele>30.6</ele>
        <time>2021-05-20T05:34:49Z</time>
      </trkpt>
      <trkpt lat="42.1206940" lon="-8.8118850">
        <ele>30.7</ele>
        <time>2021-05-20T05:34:50Z</time>
      </trkpt>
      <trkpt lat="42.1207020" lon="-8.8118800">
        <ele>30.8</ele>
        <time>2021-05-20T05:34:51Z</time>
      </trkpt>
      <trkpt lat="42.1207090" lon="-8.8118720">
        <ele>30.8</ele>
        <time>2021-05-20T05:34:52Z</time>
      </trkpt>
      <trkpt lat="42.1207180" lon="-8.8118660">
        <ele>30.9</ele>
        <time>2021-05-20T05:34:53Z</time>
      </trkpt>
      <trkpt lat="42.1207340" lon="-8.8118560">
        <ele>31.0</ele>
        <time>2021-05-20T05:34:54Z</time>
      </trkpt>
      <trkpt lat="42.1207540" lon="-8.8118390">
        <ele>31.2</ele>
        <time>2021-05-20T05:34:55Z</time>
      </trkpt>
      <trkpt lat="42.1207600" lon="-8.8118330">
        <ele>31.3</ele>
        <time>2021-05-20T05:34:56Z</time>
      </trkpt>
      <trkpt lat="42.1207660" lon="-8.8118280">
        <ele>31.3</ele>
        <time>2021-05-20T05:34:57Z</time>
      </trkpt>
      <trkpt lat="42.1207830" lon="-8.8118140">
        <ele>31.5</ele>
        <time>2021-05-20T05:34:58Z</time>
      </trkpt>
      <trkpt lat="42.1207930" lon="-8.8118050">
        <ele>31.6</ele>
        <time>2021-05-20T05:34:59Z</time>
      </trkpt>
      <trkpt lat="42.1208190" lon="-8.8117870">
        <ele>31.8</ele>
        <time>2021-05-20T05:35:00Z</time>
      </trkpt>
      <trkpt lat="42.1208260" lon="-8.8117810">
        <ele>31.9</ele>
        <time>2021-05-20T05:35:01Z</time>
      </trkpt>
      <trkpt lat="42.1208330" lon="-8.8117730">
        <ele>31.9</ele>
        <time>2021-05-20T05:35:02Z</time>
      </trkpt>
      <trkpt lat="42.1208390" lon="-8.8117630">
        <ele>32.0</ele>
        <time>2021-05-20T05:35:03Z</time>
      </trkpt>
      <trkpt lat="42.1208480" lon="-8.8117480">
        <ele>32.1</ele>
        <time>2021-05-20T05:35:04Z</time>
      </trkpt>
      <trkpt lat="42.1208510" lon="-8.8117370">
        <ele>32.2</ele>
        <time>2021-05-20T05:35:05Z</time>
      </trkpt>
      <trkpt lat="42.1208610" lon="-8.8117250">
        <ele>32.3</ele>
        <time>2021-05-20T05:35:06Z</time>
      </trkpt>
      <trkpt lat="42.1208730" lon="-8.8117180">
        <ele>32.4</ele>
        <time>2021-05-20T05:35:07Z</time>
      </trkpt>
      <trkpt lat="42.1208860" lon="-8.8117160">
        <ele>32.5</ele>
        <time>2021-05-20T05:35:08Z</time>
      </trkpt>
      <trkpt lat="42.1209010" lon="-8.8117070">
        <ele>32.6</ele>
        <time>2021-05-20T05:35:09Z</time>
      </trkpt>
      <trkpt lat="42.1209190" lon="-8.8116890">
        <ele>32.8</ele>
        <time>2021-05-20T05:35:10Z</time>
      </trkpt>
      <trkpt lat="42.1209270" lon="-8.8116830">
        <ele>32.9</ele>
        <time>2021-05-20T05:35:11Z</time>
      </trkpt>
      <trkpt lat="42.1209340" lon="-8.8116760">
        <ele>32.9</ele>
        <time>2021-05-20T05:35:12Z</time>
      </trkpt>
      <trkpt lat="42.1209400" lon="-8.8116620">
        <ele>33.0</ele>
        <time>2021-05-20T05:35:13Z</time>
      </trkpt>
      <trkpt lat="42.1209500" lon="-8.8116580">
        <ele>33.1</ele>
        <time>2021-05-20T05:35:14Z</time>
      </trkpt>
      <trkpt lat="42.1209600" lon="-8.8116490">
        <ele>33.2</ele>
        <time>2021-05-20T05:35:15Z</time>
      </trkpt>
      <trkpt lat="42.1209690" lon="-8.8116360">
        <ele>33.3</ele>
        <time>2021-05-20T05:35:16Z</time>
      </trkpt>
      <trkpt lat="42.1209780" lon="-8.8116210">
        <ele>33.5</ele>
        <time>2021-05-20T05:35:17Z</time>
      </trkpt>
      <trkpt lat="42.1209840" lon="-8.8116080">
        <ele>33.6</ele>
        <time>2021-05-20T05:35:18Z</time>
      </trkpt>
      <trkpt lat="42.1210020" lon="-8.8116030">
        <ele>33.7</ele>
        <time>2021-05-20T05:35:19Z</time>
      </trkpt>
      <trkpt lat="42.1210190" lon="-8.8115870">
        <ele>33.9</ele>
        <time>2021-05-20T05:35:20Z</time>
      </trkpt>
      <trkpt lat="42.1210260" lon="-8.8115790">
        <ele>34.0</ele>
        <time>2021-05-20T05:35:21Z</time>
      </trkpt>
      <trkpt lat="42.1210340" lon="-8.8115720">
        <ele>34.0</ele>
        <time>2021-05-20T05:35:22Z</time>
      </trkpt>
      <trkpt lat="42.1210390" lon="-8.8115580">
        <ele>34.1</ele>
        <time>2021-05-20T05:35:23Z</time>
      </trkpt>
      <trkpt lat="42.1210480" lon="-8.8115440">
        <ele>34.2</ele>
        <time>2021-05-20T05:35:24Z</time>
      </trkpt>
      <trkpt lat="42.1210460" lon="-8.8115370">
        <ele>34.3</ele>
        <time>2021-05-20T05:35:25Z</time>
      </trkpt>
      <trkpt lat="42.1210580" lon="-8.8115310">
        <ele>34.4</ele>
        <time>2021-05-20T05:35:26Z</time>
      </trkpt>
      <trkpt lat="42.1210650" lon="-8.8115200">
        <ele>34.5</ele>
        <time>2021-05-20T05:35:27Z</time>
      </trkpt>
      <trkpt lat="42.1210730" lon="-8.8115060">
        <ele>34.6</ele>
        <time>2021-05-20T05:35:28Z</time>
      </trkpt>
      <trkpt lat="42.1210900" lon="-8.8114930">
        <ele>34.8</ele>
        <time>2021-05-20T05:35:29Z</time>
      </trkpt>
      <trkpt lat="42.1210980" lon="-8.8114880">
        <ele>34.9</ele>
        <time>2021-05-20T05:35:30Z</time>
      </trkpt>
      <trkpt lat="42.1211070" lon="-8.8114840">
        <ele>34.9</ele>
        <time>2021-05-20T05:35:31Z</time>
      </trkpt>
      <trkpt lat="42.1211100" lon="-8.8114690">
        <ele>35.0</ele>
        <time>2021-05-20T05:35:32Z</time>
      </trkpt>
      <trkpt lat="42.1211190" lon="-8.8114570">
        <ele>35.1</ele>
        <time>2021-05-20T05:35:33Z</time>
      </trkpt>
      <trkpt lat="42.1211260" lon="-8.8114460">
        <ele>35.2</ele>
        <time>2021-05-20T05:35:34Z</time>
      </trkpt>
      <trkpt lat="42.1211340" lon="-8.8114390">
        <ele>35.3</ele>
        <time>2021-05-20T05:35:35Z</time>
      </trkpt>
      <trkpt lat="42.1211440" lon="-8.8114400">
        <ele>35.4</ele>
        <time>2021-05-20T05:35:36Z</time>
      </trkpt>
      <trkpt lat="42.1211510" lon="-8.8114260">
        <ele>35.5</ele>
        <time>2021-05-20T05:35:37Z</time>
      </trkpt>
      <trkpt lat="42.1211720" lon="-8.8114010">
        <ele>35.7</ele>
        <time>2021-05-20T05:35:38Z</time>
      </trkpt>
      <trkpt lat="42.1211810" lon="-8.8113950">
        <ele>35.8</ele>
        <time>2021-05-20T05:35:39Z</time>
      </trkpt>
      <trkpt lat="42.1211820" lon="-8.8113880">
        <ele>35.9</ele>
        <time>2021-05-20T05:35:40Z</time>
      </trkpt>
      <trkpt lat="42.1211910" lon="-8.8113790">
        <ele>36.0</ele>
        <time>2021-05-20T05:35:41Z</time>
      </trkpt>
      <trkpt lat="42.1212010" lon="-8.8113680">
        <ele>36.1</ele>
        <time>2021-05-20T05:35:42Z</time>
      </trkpt>
      <trkpt lat="42.1212220" lon="-8.8113570">
        <ele>36.3</ele>
        <time>2021-05-20T05:35:43Z</time>
      </trkpt>
      <trkpt lat="42.1212300" lon="-8.8113530">
        <ele>36.3</ele>
        <time>2021-05-20T05:35:44Z</time>
      </trkpt>
      <trkpt lat="42.1212370" lon="-8.8113490">
        <ele>36.4</ele>
        <time>2021-05-20T05:35:45Z</time>
      </trkpt>
      <trkpt lat="42.1212510" lon="-8.8113280">
        <ele>36.6</ele>
        <time>2021-05-20T05:35:46Z</time>
      </trkpt>
      <trkpt lat="42.1212560" lon="-8.8113180">
        <ele>36.6</ele>
        <time>2021-05-20T05:35:47Z</time>
      </trkpt>
      <trkpt lat="42.1212610" lon="-8.8113080">
        <ele>36.7</ele>
        <time>2021-05-20T05:35:48Z</time>
      </trkpt>
      <trkpt lat="42.1212700" lon="-8.8112920">
        <ele>36.8</ele>
        <time>2021-05-20T05:35:49Z</time>
      </trkpt>
      <trkpt lat="42.1212750" lon="-8.8112820">
        <ele>36.9</ele>
        <time>2021-05-20T05:35:50Z</time>
      </trkpt>
      <trkpt lat="42.1212830" lon="-8.8112730">
        <ele>37.0</ele>
        <time>2021-05-20T05:35:51Z</time>
      </trkpt>
      <trkpt lat="42.1213000" lon="-8.8112530">
        <ele>37.2</ele>
        <time>2021-05-20T05:35:52Z</time>
      </trkpt>
      <trkpt lat="42.1213050" lon="-8.8112440">
        <ele>37.3</ele>
        <time>2021-05-20T05:35:53Z</time>
      </trkpt>
      <trkpt lat="42.1213110" lon="-8.8112360">
        <ele>37.3</ele>
        <time>2021-05-20T05:35:54Z</time>
      </trkpt>
      <trkpt lat="42.1213160" lon="-8.8112230">
        <ele>37.4</ele>
        <time>2021-05-20T05:35:55Z</time>
      </trkpt>
      <trkpt lat="42.1213220" lon="-8.8112180">
        <ele>37.5</ele>
        <time>2021-05-20T05:35:56Z</time>
      </trkpt>
      <trkpt lat="42.1213310" lon="-8.8112090">
        <ele>37.6</ele>
        <time>2021-05-20T05:35:57Z</time>
      </trkpt>
      <trkpt lat="42.1213410" lon="-8.8111970">
        <ele>37.7</ele>
        <time>2021-05-20T05:35:58Z</time>
      </trkpt>
      <trkpt lat="42.1213440" lon="-8.8111890">
        <ele>37.7</ele>
        <time>2021-05-20T05:35:59Z</time>
      </trkpt>
      <trkpt lat="42.1213560" lon="-8.8111740">
        <ele>37.9</ele>
        <time>2021-05-20T05:36:00Z</time>
      </trkpt>
      <trkpt lat="42.1213770" lon="-8.8111630">
        <ele>38.1</ele>
        <time>2021-05-20T05:36:01Z</time>
      </trkpt>
      <trkpt lat="42.1213830" lon="-8.8111550">
        <ele>38.1</ele>
        <time>2021-05-20T05:36:02Z</time>
      </trkpt>
      <trkpt lat="42.1213880" lon="-8.8111480">
        <ele>38.2</ele>
        <time>2021-05-20T05:36:03Z</time>
      </trkpt>
      <trkpt lat="42.1213980" lon="-8.8111370">
        <ele>38.3</ele>
        <time>2021-05-20T05:36:04Z</time>
      </trkpt>
      <trkpt lat="42.1214160" lon="-8.8111290">
        <ele>38.5</ele>
        <time>2021-05-20T05:36:05Z</time>
      </trkpt>
      <trkpt lat="42.1214270" lon="-8.8111230">
        <ele>38.5</ele>
        <time>2021-05-20T05:36:06Z</time>
      </trkpt>
      <trkpt lat="42.1214380" lon="-8.8111180">
        <ele>38.6</ele>
        <time>2021-05-20T05:36:07Z</time>
      </trkpt>
      <trkpt lat="42.1214480" lon="-8.8111100">
        <ele>38.7</ele>
        <time>2021-05-20T05:36:08Z</time>
      </trkpt>
      <trkpt lat="42.1214540" lon="-8.8111000">
        <ele>38.8</ele>
        <time>2021-05-20T05:36:09Z</time>
      </trkpt>
      <trkpt lat="42.1214620" lon="-8.8110940">
        <ele>38.9</ele>
        <time>2021-05-20T05:36:10Z</time>
      </trkpt>
      <trkpt lat="42.1214690" lon="-8.8110860">
        <ele>39.0</ele>
        <time>2021-05-20T05:36:11Z</time>
      </trkpt>
      <trkpt lat="42.1214870" lon="-8.8110760">
        <ele>39.1</ele>
        <time>2021-05-20T05:36:12Z</time>
      </trkpt>
      <trkpt lat="42.1214990" lon="-8.8110730">
        <ele>39.2</ele>
        <time>2021-05-20T05:36:13Z</time>
      </trkpt>
      <trkpt lat="42.1215110" lon="-8.8110700">
        <ele>39.3</ele>
        <time>2021-05-20T05:36:14Z</time>
      </trkpt>
      <trkpt lat="42.1215160" lon="-8.8110650">
        <ele>39.4</ele>
        <time>2021-05-20T05:36:15Z</time>
      </trkpt>
      <trkpt lat="42.1215220" lon="-8.8110540">
        <ele>39.4</ele>
        <time>2021-05-20T05:36:16Z</time>
      </trkpt>
      <trkpt lat="42.1215250" lon="-8.8110530">
        <ele>39.5</ele>
        <time>2021-05-20T05:36:17Z</time>
      </trkpt>
      <trkpt lat="42.1215330" lon="-8.8110490">
        <ele>39.5</ele>
        <time>2021-05-20T05:36:18Z</time>
      </trkpt>
      <trkpt lat="42.1215440" lon="-8.8110460">
        <ele>39.6</ele>
        <time>2021-05-20T05:36:19Z</time>
      </trkpt>
      <trkpt lat="42.1215550" lon="-8.8110440">
        <ele>39.7</ele>
        <time>2021-05-20T05:36:20Z</time>
      </trkpt>
      <trkpt lat="42.1215650" lon="-8.8110380">
        <ele>39.8</ele>
        <time>2021-05-20T05:36:21Z</time>
      </trkpt>
      <trkpt lat="42.1215770" lon="-8.8110350">
        <ele>39.9</ele>
        <time>2021-05-20T05:36:22Z</time>
      </trkpt>
      <trkpt lat="42.1215930" lon="-8.8110320">
        <ele>40.0</ele>
        <time>2021-05-20T05:36:23Z</time>
      </trkpt>
      <trkpt lat="42.1216080" lon="-8.8110300">
        <ele>40.1</ele>
        <time>2021-05-20T05:36:24Z</time>
      </trkpt>
      <trkpt lat="42.1216210" lon="-8.8110240">
        <ele>40.2</ele>
        <time>2021-05-20T05:36:25Z</time>
      </trkpt>
      <trkpt lat="42.1216410" lon="-8.8110220">
        <ele>40.4</ele>
        <time>2021-05-20T05:36:26Z</time>
      </trkpt>
      <trkpt lat="42.1216560" lon="-8.8110210">
        <ele>40.5</ele>
        <time>2021-05-20T05:36:27Z</time>
      </trkpt>
      <trkpt lat="42.1216730" lon="-8.8110150">
        <ele>40.6</ele>
        <time>2021-05-20T05:36:28Z</time>
      </trkpt>
      <trkpt lat="42.1216860" lon="-8.8110140">
        <ele>40.7</ele>
        <time>2021-05-20T05:36:29Z</time>
      </trkpt>
      <trkpt lat="42.1217070" lon="-8.8110070">
        <ele>40.9</ele>
        <time>2021-05-20T05:36:30Z</time>
      </trkpt>
      <trkpt lat="42.1217160" lon="-8.8110050">
        <ele>41.0</ele>
        <time>2021-05-20T05:36:31Z</time>
      </trkpt>
      <trkpt lat="42.1217240" lon="-8.8110020">
        <ele>41.0</ele>
        <time>2021-05-20T05:36:32Z</time>
      </trkpt>
      <trkpt lat="42.1217410" lon="-8.8109990">
        <ele>41.2</ele>
        <time>2021-05-20T05:36:33Z</time>
      </trkpt>
      <trkpt lat="42.1217490" lon="-8.8109980">
        <ele>41.2</ele>
        <time>2021-05-20T05:36:34Z</time>
      </trkpt>
      <trkpt lat="42.1217560" lon="-8.8109980">
        <ele>41.3</ele>
        <time>2021-05-20T05:36:35Z</time>
      </trkpt>
      <trkpt lat="42.1217630" lon="-8.8109970">
        <ele>41.3</ele>
        <time>2021-05-20T05:36:36Z</time>
      </trkpt>
      <trkpt lat="42.1217660" lon="-8.8109950">
        <ele>41.4</ele>
        <time>2021-05-20T05:36:37Z</time>
      </trkpt>
      <trkpt lat="42.1217720" lon="-8.8109950">
        <ele>41.4</ele>
        <time>2021-05-20T05:36:38Z</time>
      </trkpt>
      <trkpt lat="42.1217810" lon="-8.8109950">
        <ele>41.5</ele>
        <time>2021-05-20T05:36:39Z</time>
      </trkpt>
      <trkpt lat="42.1217890" lon="-8.8109860">
        <ele>41.6</ele>
        <time>2021-05-20T05:36:40Z</time>
      </trkpt>
      <trkpt lat="42.1217960" lon="-8.8109890">
        <ele>41.6</ele>
        <time>2021-05-20T05:36:41Z</time>
      </trkpt>
      <trkpt lat="42.1218090" lon="-8.8109840">
        <ele>41.7</ele>
        <time>2021-05-20T05:36:42Z</time>
      </trkpt>
      <trkpt lat="42.1218160" lon="-8.8109860">
        <ele>41.8</ele>
        <time>2021-05-20T05:36:43Z</time>
      </trkpt>
      <trkpt lat="42.1218340" lon="-8.8109900">
        <ele>41.9</ele>
        <time>2021-05-20T05:36:44Z</time>
      </trkpt>
      <trkpt lat="42.1218460" lon="-8.8109930">
        <ele>42.0</ele>
        <time>2021-05-20T05:36:45Z</time>
      </trkpt>
      <trkpt lat="42.1218580" lon="-8.8109900">
        <ele>42.1</ele>
        <time>2021-05-20T05:36:46Z</time>
      </trkpt>
      <trkpt lat="42.1218750" lon="-8.8109810">
        <ele>42.2</ele>
        <time>2021-05-20T05:36:47Z</time>
      </trkpt>
      <trkpt lat="42.1218980" lon="-8.8109790">
        <ele>42.4</ele>
        <time>2021-05-20T05:36:48Z</time>
      </trkpt>
      <trkpt lat="42.1219080" lon="-8.8109790">
        <ele>42.5</ele>
        <time>2021-05-20T05:36:49Z</time>
      </trkpt>
      <trkpt lat="42.1219170" lon="-8.8109780">
        <ele>42.5</ele>
        <time>2021-05-20T05:36:50Z</time>
      </trkpt>
      <trkpt lat="42.1219480" lon="-8.8109740">
        <ele>42.7</ele>
        <time>2021-05-20T05:36:51Z</time>
      </trkpt>
      <trkpt lat="42.1219620" lon="-8.8109720">
        <ele>42.8</ele>
        <time>2021-05-20T05:36:52Z</time>
      </trkpt>
      <trkpt lat="42.1219770" lon="-8.8109620">
        <ele>43.0</ele>
        <time>2021-05-20T05:36:53Z</time>
      </trkpt>
      <trkpt lat="42.1219910" lon="-8.8109640">
        <ele>43.1</ele>
        <time>2021-05-20T05:36:54Z</time>
      </trkpt>
      <trkpt lat="42.1220010" lon="-8.8109610">
        <ele>43.1</ele>
        <time>2021-05-20T05:36:55Z</time>
      </trkpt>
      <trkpt lat="42.1220110" lon="-8.8109570">
        <ele>43.2</ele>
        <time>2021-05-20T05:36:56Z</time>
      </trkpt>
      <trkpt lat="42.1220230" lon="-8.8109540">
        <ele>43.3</ele>
        <time>2021-05-20T05:36:57Z</time>
      </trkpt>
      <trkpt lat="42.1220330" lon="-8.8109490">
        <ele>43.4</ele>
        <time>2021-05-20T05:36:58Z</time>
      </trkpt>
      <trkpt lat="42.1220420" lon="-8.8109420">
        <ele>43.4</ele>
        <time>2021-05-20T05:36:59Z</time>
      </trkpt>
      <trkpt lat="42.1220480" lon="-8.8109410">
        <ele>43.5</ele>
        <time>2021-05-20T05:37:00Z</time>
      </trkpt>
      <trkpt lat="42.1220490" lon="-8.8109370">
        <ele>43.5</ele>
        <time>2021-05-20T05:37:01Z</time>
      </trkpt>
      <trkpt lat="42.1220580" lon="-8.8109330">
        <ele>43.5</ele>
        <time>2021-05-20T05:37:02Z</time>
      </trkpt>
      <trkpt lat="42.1220700" lon="-8.8109290">
        <ele>43.6</ele>
        <time>2021-05-20T05:37:03Z</time>
      </trkpt>
      <trkpt lat="42.1220770" lon="-8.8109290">
        <ele>43.7</ele>
        <time>2021-05-20T05:37:04Z</time>
      </trkpt>
      <trkpt lat="42.1220920" lon="-8.8109340">
        <ele>43.8</ele>
        <time>2021-05-20T05:37:05Z</time>
      </trkpt>
      <trkpt lat="42.1221040" lon="-8.8109360">
        <ele>43.9</ele>
        <time>2021-05-20T05:37:06Z</time>
      </trkpt>
      <trkpt lat="42.1221270" lon="-8.8109260">
        <ele>44.0</ele>
        <time>2021-05-20T05:37:07Z</time>
      </trkpt>
      <trkpt lat="42.1221360" lon="-8.8109190">
        <ele>44.1</ele>
        <time>2021-05-20T05:37:08Z</time>
      </trkpt>
      <trkpt lat="42.1221450" lon="-8.8109120">
        <ele>44.1</ele>
        <time>2021-05-20T05:37:09Z</time>
      </trkpt>
      <trkpt lat="42.1221600" lon="-8.8109000">
        <ele>44.2</ele>
        <time>2021-05-20T05:37:10Z</time>
      </trkpt>
      <trkpt lat="42.1221720" lon="-8.8108840">
        <ele>44.2</ele>
        <time>2021-05-20T05:37:11Z</time>
      </trkpt>
      <trkpt lat="42.1221820" lon="-8.8108770">
        <ele>44.2</ele>
        <time>2021-05-20T05:37:12Z</time>
      </trkpt>
      <trkpt lat="42.1221960" lon="-8.8108620">
        <ele>44.2</ele>
        <time>2021-05-20T05:37:13Z</time>
      </trkpt>
      <trkpt lat="42.1222130" lon="-8.8108500">
        <ele>44.3</ele>
        <time>2021-05-20T05:37:14Z</time>
      </trkpt>
      <trkpt lat="42.1222220" lon="-8.8108460">
        <ele>44.3</ele>
        <time>2021-05-20T05:37:15Z</time>
      </trkpt>
      <trkpt lat="42.1222300" lon="-8.8108410">
        <ele>44.3</ele>
        <time>2021-05-20T05:37:16Z</time>
      </trkpt>
      <trkpt lat="42.1222420" lon="-8.8108340">
        <ele>44.3</ele>
        <time>2021-05-20T05:37:17Z</time>
      </trkpt>
      <trkpt lat="42.1222510" lon="-8.8108290">
        <ele>44.4</ele>
        <time>2021-05-20T05:37:18Z</time>
      </trkpt>
      <trkpt lat="42.1222630" lon="-8.8108250">
        <ele>44.4</ele>
        <time>2021-05-20T05:37:19Z</time>
      </trkpt>
      <trkpt lat="42.1222770" lon="-8.8108220">
        <ele>44.5</ele>
        <time>2021-05-20T05:37:20Z</time>
      </trkpt>
      <trkpt lat="42.1222830" lon="-8.8108170">
        <ele>44.5</ele>
        <time>2021-05-20T05:37:21Z</time>
      </trkpt>
      <trkpt lat="42.1222750" lon="-8.8108070">
        <ele>44.6</ele>
        <time>2021-05-20T05:37:22Z</time>
      </trkpt>
      <trkpt lat="42.1222780" lon="-8.8108010">
        <ele>44.6</ele>
        <time>2021-05-20T05:37:23Z</time>
      </trkpt>
      <trkpt lat="42.1222800" lon="-8.8108020">
        <ele>44.6</ele>
        <time>2021-05-20T05:37:24Z</time>
      </trkpt>
      <trkpt lat="42.1222820" lon="-8.8108050">
        <ele>44.6</ele>
        <time>2021-05-20T05:37:25Z</time>
      </trkpt>
      <trkpt lat="42.1222830" lon="-8.8108070">
        <ele>44.7</ele>
        <time>2021-05-20T05:37:26Z</time>
      </trkpt>
      <trkpt lat="42.1222840" lon="-8.8108050">
        <ele>44.7</ele>
        <time>2021-05-20T05:37:27Z</time>
      </trkpt>
      <trkpt lat="42.1222900" lon="-8.8107990">
        <ele>44.7</ele>
        <time>2021-05-20T05:37:28Z</time>
      </trkpt>
      <trkpt lat="42.1223040" lon="-8.8107890">
        <ele>44.8</ele>
        <time>2021-05-20T05:37:29Z</time>
      </trkpt>
      <trkpt lat="42.1223100" lon="-8.8107880">
        <ele>44.8</ele>
        <time>2021-05-20T05:37:30Z</time>
      </trkpt>
      <trkpt lat="42.1223150" lon="-8.8107880">
        <ele>44.8</ele>
        <time>2021-05-20T05:37:31Z</time>
      </trkpt>
      <trkpt lat="42.1223200" lon="-8.8107870">
        <ele>44.9</ele>
        <time>2021-05-20T05:37:32Z</time>
      </trkpt>
      <trkpt lat="42.1223260" lon="-8.8107860">
        <ele>44.9</ele>
        <time>2021-05-20T05:37:33Z</time>
      </trkpt>
      <trkpt lat="42.1223310" lon="-8.8107850">
        <ele>44.9</ele>
        <time>2021-05-20T05:37:34Z</time>
      </trkpt>
      <trkpt lat="42.1223460" lon="-8.8107820">
        <ele>45.0</ele>
        <time>2021-05-20T05:37:35Z</time>
      </trkpt>
      <trkpt lat="42.1223510" lon="-8.8107850">
        <ele>45.0</ele>
        <time>2021-05-20T05:37:36Z</time>
      </trkpt>
      <trkpt lat="42.1223600" lon="-8.8107860">
        <ele>45.1</ele>
        <time>2021-05-20T05:37:37Z</time>
      </trkpt>
      <trkpt lat="42.1223780" lon="-8.8107890">
        <ele>45.2</ele>
        <time>2021-05-20T05:37:38Z</time>
      </trkpt>
      <trkpt lat="42.1223840" lon="-8.8107890">
        <ele>45.2</ele>
        <time>2021-05-20T05:37:39Z</time>
      </trkpt>
      <trkpt lat="42.1223910" lon="-8.8107890">
        <ele>45.2</ele>
        <time>2021-05-20T05:37:40Z</time>
      </trkpt>
      <trkpt lat="42.1223980" lon="-8.8107890">
        <ele>45.3</ele>
        <time>2021-05-20T05:37:41Z</time>
      </trkpt>
      <trkpt lat="42.1224200" lon="-8.8107830">
        <ele>45.4</ele>
        <time>2021-05-20T05:37:42Z</time>
      </trkpt>
      <trkpt lat="42.1224290" lon="-8.8107820">
        <ele>45.4</ele>
        <time>2021-05-20T05:37:43Z</time>
      </trkpt>
      <trkpt lat="42.1224390" lon="-8.8107800">
        <ele>45.5</ele>
        <time>2021-05-20T05:37:44Z</time>
      </trkpt>
      <trkpt lat="42.1224490" lon="-8.8107780">
        <ele>45.5</ele>
        <time>2021-05-20T05:37:45Z</time>
      </trkpt>
      <trkpt lat="42.1224630" lon="-8.8107780">
        <ele>45.6</ele>
        <time>2021-05-20T05:37:46Z</time>
      </trkpt>
      <trkpt lat="42.1224700" lon="-8.8107760">
        <ele>45.7</ele>
        <time>2021-05-20T05:37:47Z</time>
      </trkpt>
      <trkpt lat="42.1224790" lon="-8.8107710">
        <ele>45.7</ele>
        <time>2021-05-20T05:37:48Z</time>
      </trkpt>
      <trkpt lat="42.1224870" lon="-8.8107750">
        <ele>45.7</ele>
        <time>2021-05-20T05:37:49Z</time>
      </trkpt>
      <trkpt lat="42.1224890" lon="-8.8107760">
        <ele>45.8</ele>
        <time>2021-05-20T05:37:50Z</time>
      </trkpt>
      <trkpt lat="42.1224970" lon="-8.8107660">
        <ele>45.8</ele>
        <time>2021-05-20T05:37:51Z</time>
      </trkpt>
      <trkpt lat="42.1225080" lon="-8.8107610">
        <ele>45.9</ele>
        <time>2021-05-20T05:37:52Z</time>
      </trkpt>
      <trkpt lat="42.1225150" lon="-8.8107630">
        <ele>45.9</ele>
        <time>2021-05-20T05:37:53Z</time>
      </trkpt>
      <trkpt lat="42.1225290" lon="-8.8107580">
        <ele>46.0</ele>
        <time>2021-05-20T05:37:54Z</time>
      </trkpt>
      <trkpt lat="42.1225440" lon="-8.8107590">
        <ele>46.0</ele>
        <time>2021-05-20T05:37:55Z</time>
      </trkpt>
      <trkpt lat="42.1225630" lon="-8.8107550">
        <ele>46.1</ele>
        <time>2021-05-20T05:37:56Z</time>
      </trkpt>
      <trkpt lat="42.1225830" lon="-8.8107530">
        <ele>46.2</ele>
        <time>2021-05-20T05:37:57Z</time>
      </trkpt>
      <trkpt lat="42.1225930" lon="-8.8107520">
        <ele>46.2</ele>
        <time>2021-05-20T05:37:58Z</time>
      </trkpt>
      <trkpt lat="42.1226030" lon="-8.8107510">
        <ele>46.3</ele>
        <time>2021-05-20T05:37:59Z</time>
      </trkpt>
      <trkpt lat="42.1226260" lon="-8.8107460">
        <ele>46.4</ele>
        <time>2021-05-20T05:38:00Z</time>
      </trkpt>
      <trkpt lat="42.1226380" lon="-8.8107410">
        <ele>46.4</ele>
        <time>2021-05-20T05:38:01Z</time>
      </trkpt>
      <trkpt lat="42.1226540" lon="-8.8107260">
        <ele>46.5</ele>
        <time>2021-05-20T05:38:02Z</time>
      </trkpt>
      <trkpt lat="42.1226700" lon="-8.8107190">
        <ele>46.6</ele>
        <time>2021-05-20T05:38:03Z</time>
      </trkpt>
      <trkpt lat="42.1226920" lon="-8.8107140">
        <ele>46.6</ele>
        <time>2021-05-20T05:38:04Z</time>
      </trkpt>
      <trkpt lat="42.1227050" lon="-8.8107110">
        <ele>46.7</ele>
        <time>2021-05-20T05:38:05Z</time>
      </trkpt>
      <trkpt lat="42.1227330" lon="-8.8106980">
        <ele>46.8</ele>
        <time>2021-05-20T05:38:06Z</time>
      </trkpt>
      <trkpt lat="42.1227400" lon="-8.8106940">
        <ele>46.8</ele>
        <time>2021-05-20T05:38:07Z</time>
      </trkpt>
      <trkpt lat="42.1227530" lon="-8.8106850">
        <ele>46.8</ele>
        <time>2021-05-20T05:38:08Z</time>
      </trkpt>
      <trkpt lat="42.1227700" lon="-8.8106860">
        <ele>46.9</ele>
        <time>2021-05-20T05:38:09Z</time>
      </trkpt>
      <trkpt lat="42.1227870" lon="-8.8106790">
        <ele>46.9</ele>
        <time>2021-05-20T05:38:10Z</time>
      </trkpt>
      <trkpt lat="42.1228050" lon="-8.8106760">
        <ele>47.0</ele>
        <time>2021-05-20T05:38:11Z</time>
      </trkpt>
      <trkpt lat="42.1228140" lon="-8.8106740">
        <ele>47.0</ele>
        <time>2021-05-20T05:38:12Z</time>
      </trkpt>
      <trkpt lat="42.1228250" lon="-8.8106730">
        <ele>47.1</ele>
        <time>2021-05-20T05:38:13Z</time>
      </trkpt>
      <trkpt lat="42.1228370" lon="-8.8106620">
        <ele>47.1</ele>
        <time>2021-05-20T05:38:14Z</time>
      </trkpt>
      <trkpt lat="42.1228320" lon="-8.8106550">
        <ele>47.1</ele>
        <time>2021-05-20T05:38:15Z</time>
      </trkpt>
      <trkpt lat="42.1228270" lon="-8.8106530">
        <ele>47.1</ele>
        <time>2021-05-20T05:38:16Z</time>
      </trkpt>
      <trkpt lat="42.1228220" lon="-8.8106500">
        <ele>47.2</ele>
        <time>2021-05-20T05:38:17Z</time>
      </trkpt>
      <trkpt lat="42.1228200" lon="-8.8106500">
        <ele>47.2</ele>
        <time>2021-05-20T05:38:18Z</time>
      </trkpt>
      <trkpt lat="42.1228180" lon="-8.8106460">
        <ele>47.2</ele>
        <time>2021-05-20T05:38:19Z</time>
      </trkpt>
      <trkpt lat="42.1228140" lon="-8.8106400">
        <ele>47.2</ele>
        <time>2021-05-20T05:38:20Z</time>
      </trkpt>
      <trkpt lat="42.1228100" lon="-8.8106380">
        <ele>47.2</ele>
        <time>2021-05-20T05:38:21Z</time>
      </trkpt>
      <trkpt lat="42.1228070" lon="-8.8106370">
        <ele>47.2</ele>
        <time>2021-05-20T05:38:22Z</time>
      </trkpt>
      <trkpt lat="42.1228100" lon="-8.8106340">
        <ele>47.2</ele>
        <time>2021-05-20T05:38:23Z</time>
      </trkpt>
      <trkpt lat="42.1228190" lon="-8.8106270">
        <ele>47.3</ele>
        <time>2021-05-20T05:38:24Z</time>
      </trkpt>
      <trkpt lat="42.1228300" lon="-8.8106250">
        <ele>47.3</ele>
        <time>2021-05-20T05:38:25Z</time>
      </trkpt>
      <trkpt lat="42.1228410" lon="-8.8106210">
        <ele>47.3</ele>
        <time>2021-05-20T05:38:26Z</time>
      </trkpt>
      <trkpt lat="42.1228440" lon="-8.8106210">
        <ele>47.3</ele>
        <time>2021-05-20T05:38:27Z</time>
      </trkpt>
      <trkpt lat="42.1228610" lon="-8.8106210">
        <ele>47.4</ele>
        <time>2021-05-20T05:38:28Z</time>
      </trkpt>
      <trkpt lat="42.1228690" lon="-8.8106120">
        <ele>47.4</ele>
        <time>2021-05-20T05:38:29Z</time>
      </trkpt>
      <trkpt lat="42.1228770" lon="-8.8106120">
        <ele>47.4</ele>
        <time>2021-05-20T05:38:30Z</time>
      </trkpt>
      <trkpt lat="42.1228880" lon="-8.8106090">
        <ele>47.5</ele>
        <time>2021-05-20T05:38:31Z</time>
      </trkpt>
      <trkpt lat="42.1229000" lon="-8.8106060">
        <ele>47.5</ele>
        <time>2021-05-20T05:38:32Z</time>
      </trkpt>
      <trkpt lat="42.1229140" lon="-8.8106050">
        <ele>47.5</ele>
        <time>2021-05-20T05:38:33Z</time>
      </trkpt>
      <trkpt lat="42.1229240" lon="-8.8106040">
        <ele>47.6</ele>
        <time>2021-05-20T05:38:34Z</time>
      </trkpt>
      <trkpt lat="42.1229350" lon="-8.8105990">
        <ele>47.6</ele>
        <time>2021-05-20T05:38:35Z</time>
      </trkpt>
      <trkpt lat="42.1229540" lon="-8.8105860">
        <ele>47.7</ele>
        <time>2021-05-20T05:38:36Z</time>
      </trkpt>
      <trkpt lat="42.1229660" lon="-8.8105830">
        <ele>47.7</ele>
        <time>2021-05-20T05:38:37Z</time>
      </trkpt>
      <trkpt lat="42.1229780" lon="-8.8105790">
        <ele>47.7</ele>
        <time>2021-05-20T05:38:38Z</time>
      </trkpt>
      <trkpt lat="42.1229950" lon="-8.8105720">
        <ele>47.8</ele>
        <time>2021-05-20T05:38:39Z</time>
      </trkpt>
      <trkpt lat="42.1230100" lon="-8.8105670">
        <ele>47.8</ele>
        <time>2021-05-20T05:38:40Z</time>
      </trkpt>
      <trkpt lat="42.1230190" lon="-8.8105700">
        <ele>47.8</ele>
        <time>2021-05-20T05:38:41Z</time>
      </trkpt>
      <trkpt lat="42.1230280" lon="-8.8105660">
        <ele>47.8</ele>
        <time>2021-05-20T05:38:42Z</time>
      </trkpt>
      <trkpt lat="42.1230370" lon="-8.8105710">
        <ele>47.8</ele>
        <time>2021-05-20T05:38:43Z</time>
      </trkpt>
      <trkpt lat="42.1230580" lon="-8.8105750">
        <ele>47.9</ele>
        <time>2021-05-20T05:38:44Z</time>
      </trkpt>
      <trkpt lat="42.1230720" lon="-8.8105730">
        <ele>47.9</ele>
        <time>2021-05-20T05:38:45Z</time>
      </trkpt>
      <trkpt lat="42.1230940" lon="-8.8105730">
        <ele>47.9</ele>
        <time>2021-05-20T05:38:46Z</time>
      </trkpt>
      <trkpt lat="42.1231030" lon="-8.8105730">
        <ele>48.0</ele>
        <time>2021-05-20T05:38:47Z</time>
      </trkpt>
      <trkpt lat="42.1231120" lon="-8.8105740">
        <ele>48.0</ele>
        <time>2021-05-20T05:38:48Z</time>
      </trkpt>
      <trkpt lat="42.1231150" lon="-8.8105700">
        <ele>48.0</ele>
        <time>2021-05-20T05:38:49Z</time>
      </trkpt>
      <trkpt lat="42.1231280" lon="-8.8105660">
        <ele>48.0</ele>
        <time>2021-05-20T05:38:50Z</time>
      </trkpt>
      <trkpt lat="42.1231410" lon="-8.8105670">
        <ele>48.0</ele>
        <time>2021-05-20T05:38:51Z</time>
      </trkpt>
      <trkpt lat="42.1231620" lon="-8.8105620">
        <ele>48.1</ele>
        <time>2021-05-20T05:38:52Z</time>
      </trkpt>
      <trkpt lat="42.1231690" lon="-8.8105590">
        <ele>48.1</ele>
        <time>2021-05-20T05:38:53Z</time>
      </trkpt>
      <trkpt lat="42.1231770" lon="-8.8105570">
        <ele>48.1</ele>
        <time>2021-05-20T05:38:54Z</time>
      </trkpt>
      <trkpt lat="42.1231930" lon="-8.8105540">
        <ele>48.1</ele>
        <time>2021-05-20T05:38:55Z</time>
      </trkpt>
      <trkpt lat="42.1232040" lon="-8.8105530">
        <ele>48.1</ele>
        <time>2021-05-20T05:38:56Z</time>
      </trkpt>
      <trkpt lat="42.1232110" lon="-8.8105540">
        <ele>48.1</ele>
        <time>2021-05-20T05:38:57Z</time>
      </trkpt>
      <trkpt lat="42.1232200" lon="-8.8105420">
        <ele>48.1</ele>
        <time>2021-05-20T05:38:58Z</time>
      </trkpt>
      <trkpt lat="42.1232320" lon="-8.8105430">
        <ele>48.1</ele>
        <time>2021-05-20T05:38:59Z</time>
      </trkpt>
      <trkpt lat="42.1232440" lon="-8.8105420">
        <ele>48.1</ele>
        <time>2021-05-20T05:39:00Z</time>
      </trkpt>
      <trkpt lat="42.1232590" lon="-8.8105320">
        <ele>48.1</ele>
        <time>2021-05-20T05:39:01Z</time>
      </trkpt>
      <trkpt lat="42.1232740" lon="-8.8105270">
        <ele>48.1</ele>
        <time>2021-05-20T05:39:02Z</time>
      </trkpt>
      <trkpt lat="42.1232850" lon="-8.8105220">
        <ele>48.1</ele>
        <time>2021-05-20T05:39:03Z</time>
      </trkpt>
      <trkpt lat="42.1233020" lon="-8.8105210">
        <ele>48.1</ele>
        <time>2021-05-20T05:39:04Z</time>
      </trkpt>
      <trkpt lat="42.1233180" lon="-8.8105180">
        <ele>48.1</ele>
        <time>2021-05-20T05:39:05Z</time>
      </trkpt>
      <trkpt lat="42.1233240" lon="-8.8105130">
        <ele>48.1</ele>
        <time>2021-05-20T05:39:06Z</time>
      </trkpt>
      <trkpt lat="42.1233370" lon="-8.8105150">
        <ele>48.1</ele>
        <time>2021-05-20T05:39:07Z</time>
      </trkpt>
      <trkpt lat="42.1233520" lon="-8.8105110">
        <ele>48.1</ele>
        <time>2021-05-20T05:39:08Z</time>
      </trkpt>
      <trkpt lat="42.1233660" lon="-8.8105050">
        <ele>48.1</ele>
        <time>2021-05-20T05:39:09Z</time>
      </trkpt>
      <trkpt lat="42.1233910" lon="-8.8105010">
        <ele>48.1</ele>
        <time>2021-05-20T05:39:10Z</time>
      </trkpt>
      <trkpt lat="42.1234010" lon="-8.8104990">
        <ele>48.1</ele>
        <time>2021-05-20T05:39:11Z</time>
      </trkpt>
      <trkpt lat="42.1234110" lon="-8.8104980">
        <ele>48.1</ele>
        <time>2021-05-20T05:39:12Z</time>
      </trkpt>
      <trkpt lat="42.1234350" lon="-8.8104950">
        <ele>48.1</ele>
        <time>2021-05-20T05:39:13Z</time>
      </trkpt>
      <trkpt lat="42.1234450" lon="-8.8104940">
        <ele>48.1</ele>
        <time>2021-05-20T05:39:14Z</time>
      </trkpt>
      <trkpt lat="42.1234550" lon="-8.8104920">
        <ele>48.1</ele>
        <time>2021-05-20T05:39:15Z</time>
      </trkpt>
      <trkpt lat="42.1234750" lon="-8.8104880">
        <ele>48.0</ele>
        <time>2021-05-20T05:39:16Z</time>
      </trkpt>
      <trkpt lat="42.1234840" lon="-8.8104890">
        <ele>48.0</ele>
        <time>2021-05-20T05:39:17Z</time>
      </trkpt>
      <trkpt lat="42.1234920" lon="-8.8104890">
        <ele>48.0</ele>
        <time>2021-05-20T05:39:18Z</time>
      </trkpt>
      <trkpt lat="42.1235010" lon="-8.8104900">
        <ele>48.0</ele>
        <time>2021-05-20T05:39:19Z</time>
      </trkpt>
      <trkpt lat="42.1235200" lon="-8.8104900">
        <ele>48.0</ele>
        <time>2021-05-20T05:39:20Z</time>
      </trkpt>
      <trkpt lat="42.1235260" lon="-8.8104880">
        <ele>47.9</ele>
        <time>2021-05-20T05:39:21Z</time>
      </trkpt>
      <trkpt lat="42.1235340" lon="-8.8104840">
        <ele>47.9</ele>
        <time>2021-05-20T05:39:22Z</time>
      </trkpt>
      <trkpt lat="42.1235480" lon="-8.8104780">
        <ele>47.9</ele>
        <time>2021-05-20T05:39:23Z</time>
      </trkpt>
      <trkpt lat="42.1235630" lon="-8.8104740">
        <ele>47.9</ele>
        <time>2021-05-20T05:39:24Z</time>
      </trkpt>
      <trkpt lat="42.1235760" lon="-8.8104690">
        <ele>47.8</ele>
        <time>2021-05-20T05:39:25Z</time>
      </trkpt>
      <trkpt lat="42.1235890" lon="-8.8104700">
        <ele>47.8</ele>
        <time>2021-05-20T05:39:26Z</time>
      </trkpt>
      <trkpt lat="42.1235930" lon="-8.8104700">
        <ele>47.8</ele>
        <time>2021-05-20T05:39:27Z</time>
      </trkpt>
      <trkpt lat="42.1235950" lon="-8.8104720">
        <ele>47.8</ele>
        <time>2021-05-20T05:39:28Z</time>
      </trkpt>
      <trkpt lat="42.1235940" lon="-8.8104690">
        <ele>47.8</ele>
        <time>2021-05-20T05:39:29Z</time>
      </trkpt>
      <trkpt lat="42.1236110" lon="-8.8104600">
        <ele>47.8</ele>
        <time>2021-05-20T05:39:30Z</time>
      </trkpt>
      <trkpt lat="42.1236100" lon="-8.8104540">
        <ele>47.7</ele>
        <time>2021-05-20T05:39:31Z</time>
      </trkpt>
      <trkpt lat="42.1236070" lon="-8.8104570">
        <ele>47.7</ele>
        <time>2021-05-20T05:39:32Z</time>
      </trkpt>
      <trkpt lat="42.1236090" lon="-8.8104590">
        <ele>47.7</ele>
        <time>2021-05-20T05:39:33Z</time>
      </trkpt>
      <trkpt lat="42.1236110" lon="-8.8104610">
        <ele>47.7</ele>
        <time>2021-05-20T05:39:34Z</time>
      </trkpt>
      <trkpt lat="42.1236130" lon="-8.8104630">
        <ele>47.7</ele>
        <time>2021-05-20T05:39:35Z</time>
      </trkpt>
      <trkpt lat="42.1236130" lon="-8.8104650">
        <ele>47.7</ele>
        <time>2021-05-20T05:39:36Z</time>
      </trkpt>
      <trkpt lat="42.1236160" lon="-8.8104640">
        <ele>47.7</ele>
        <time>2021-05-20T05:39:37Z</time>
      </trkpt>
      <trkpt lat="42.1236150" lon="-8.8104660">
        <ele>47.7</ele>
        <time>2021-05-20T05:39:38Z</time>
      </trkpt>
      <trkpt lat="42.1236160" lon="-8.8104660">
        <ele>47.7</ele>
        <time>2021-05-20T05:39:39Z</time>
      </trkpt>
      <trkpt lat="42.1236170" lon="-8.8104710">
        <ele>47.7</ele>
        <time>2021-05-20T05:39:40Z</time>
      </trkpt>
      <trkpt lat="42.1236170" lon="-8.8104740">
        <ele>47.7</ele>
        <time>2021-05-20T05:39:41Z</time>
      </trkpt>
      <trkpt lat="42.1236150" lon="-8.8104640">
        <ele>47.7</ele>
        <time>2021-05-20T05:39:42Z</time>
      </trkpt>
      <trkpt lat="42.1236160" lon="-8.8104620">
        <ele>47.7</ele>
        <time>2021-05-20T05:39:43Z</time>
      </trkpt>
      <trkpt lat="42.1236180" lon="-8.8104600">
        <ele>47.7</ele>
        <time>2021-05-20T05:39:44Z</time>
      </trkpt>
      <trkpt lat="42.1236180" lon="-8.8104610">
        <ele>47.7</ele>
        <time>2021-05-20T05:39:45Z</time>
      </trkpt>
      <trkpt lat="42.1236240" lon="-8.8104680">
        <ele>47.6</ele>
        <time>2021-05-20T05:39:46Z</time>
      </trkpt>
      <trkpt lat="42.1236420" lon="-8.8104580">
        <ele>47.6</ele>
        <time>2021-05-20T05:39:47Z</time>
      </trkpt>
      <trkpt lat="42.1236540" lon="-8.8104590">
        <ele>47.6</ele>
        <time>2021-05-20T05:39:48Z</time>
      </trkpt>
      <trkpt lat="42.1236670" lon="-8.8104630">
        <ele>47.5</ele>
        <time>2021-05-20T05:39:49Z</time>
      </trkpt>
      <trkpt lat="42.1236750" lon="-8.8104570">
        <ele>47.5</ele>
        <time>2021-05-20T05:39:50Z</time>
      </trkpt>
      <trkpt lat="42.1236870" lon="-8.8104540">
        <ele>47.5</ele>
        <time>2021-05-20T05:39:51Z</time>
      </trkpt>
      <trkpt lat="42.1236940" lon="-8.8104460">
        <ele>47.4</ele>
        <time>2021-05-20T05:39:52Z</time>
      </trkpt>
      <trkpt lat="42.1236950" lon="-8.8104450">
        <ele>47.4</ele>
        <time>2021-05-20T05:39:53Z</time>
      </trkpt>
      <trkpt lat="42.1237040" lon="-8.8104410">
        <ele>47.4</ele>
        <time>2021-05-20T05:39:54Z</time>
      </trkpt>
      <trkpt lat="42.1237070" lon="-8.8104370">
        <ele>47.4</ele>
        <time>2021-05-20T05:39:55Z</time>
      </trkpt>
      <trkpt lat="42.1237170" lon="-8.8104310">
        <ele>47.4</ele>
        <time>2021-05-20T05:39:56Z</time>
      </trkpt>
      <trkpt lat="42.1237190" lon="-8.8104330">
        <ele>47.4</ele>
        <time>2021-05-20T05:39:57Z</time>
      </trkpt>
      <trkpt lat="42.1237310" lon="-8.8104250">
        <ele>47.3</ele>
        <time>2021-05-20T05:39:58Z</time>
      </trkpt>
      <trkpt lat="42.1237460" lon="-8.8104210">
        <ele>47.3</ele>
        <time>2021-05-20T05:39:59Z</time>
      </trkpt>
      <trkpt lat="42.1237510" lon="-8.8104120">
        <ele>47.3</ele>
        <time>2021-05-20T05:40:00Z</time>
      </trkpt>
      <trkpt lat="42.1237590" lon="-8.8104090">
        <ele>47.2</ele>
        <time>2021-05-20T05:40:01Z</time>
      </trkpt>
      <trkpt lat="42.1237720" lon="-8.8103920">
        <ele>47.2</ele>
        <time>2021-05-20T05:40:02Z</time>
      </trkpt>
      <trkpt lat="42.1237920" lon="-8.8103830">
        <ele>47.1</ele>
        <time>2021-05-20T05:40:03Z</time>
      </trkpt>
      <trkpt lat="42.1238000" lon="-8.8103820">
        <ele>47.1</ele>
        <time>2021-05-20T05:40:04Z</time>
      </trkpt>
      <trkpt lat="42.1238080" lon="-8.8103810">
        <ele>47.1</ele>
        <time>2021-05-20T05:40:05Z</time>
      </trkpt>
      <trkpt lat="42.1238330" lon="-8.8103830">
        <ele>47.0</ele>
        <time>2021-05-20T05:40:06Z</time>
      </trkpt>
      <trkpt lat="42.1238450" lon="-8.8103840">
        <ele>47.0</ele>
        <time>2021-05-20T05:40:07Z</time>
      </trkpt>
      <trkpt lat="42.1238580" lon="-8.8103850">
        <ele>46.9</ele>
        <time>2021-05-20T05:40:08Z</time>
      </trkpt>
      <trkpt lat="42.1238650" lon="-8.8103860">
        <ele>46.9</ele>
        <time>2021-05-20T05:40:09Z</time>
      </trkpt>
      <trkpt lat="42.1238740" lon="-8.8103850">
        <ele>46.9</ele>
        <time>2021-05-20T05:40:10Z</time>
      </trkpt>
      <trkpt lat="42.1238810" lon="-8.8103870">
        <ele>46.9</ele>
        <time>2021-05-20T05:40:11Z</time>
      </trkpt>
      <trkpt lat="42.1238950" lon="-8.8103850">
        <ele>46.8</ele>
        <time>2021-05-20T05:40:12Z</time>
      </trkpt>
      <trkpt lat="42.1239010" lon="-8.8103770">
        <ele>46.8</ele>
        <time>2021-05-20T05:40:13Z</time>
      </trkpt>
      <trkpt lat="42.1239140" lon="-8.8103610">
        <ele>46.7</ele>
        <time>2021-05-20T05:40:14Z</time>
      </trkpt>
      <trkpt lat="42.1239230" lon="-8.8103540">
        <ele>46.7</ele>
        <time>2021-05-20T05:40:15Z</time>
      </trkpt>
      <trkpt lat="42.1239350" lon="-8.8103500">
        <ele>46.6</ele>
        <time>2021-05-20T05:40:16Z</time>
      </trkpt>
      <trkpt lat="42.1239540" lon="-8.8103460">
        <ele>46.6</ele>
        <time>2021-05-20T05:40:17Z</time>
      </trkpt>
      <trkpt lat="42.1239540" lon="-8.8103480">
        <ele>46.6</ele>
        <time>2021-05-20T05:40:18Z</time>
      </trkpt>
      <trkpt lat="42.1239620" lon="-8.8103460">
        <ele>46.5</ele>
        <time>2021-05-20T05:40:19Z</time>
      </trkpt>
      <trkpt lat="42.1239750" lon="-8.8103320">
        <ele>46.5</ele>
        <time>2021-05-20T05:40:20Z</time>
      </trkpt>
      <trkpt lat="42.1239880" lon="-8.8103270">
        <ele>46.4</ele>
        <time>2021-05-20T05:40:21Z</time>
      </trkpt>
      <trkpt lat="42.1240200" lon="-8.8103220">
        <ele>46.3</ele>
        <time>2021-05-20T05:40:22Z</time>
      </trkpt>
      <trkpt lat="42.1240320" lon="-8.8103210">
        <ele>46.3</ele>
        <time>2021-05-20T05:40:23Z</time>
      </trkpt>
      <trkpt lat="42.1240470" lon="-8.8103120">
        <ele>46.2</ele>
        <time>2021-05-20T05:40:24Z</time>
      </trkpt>
      <trkpt lat="42.1240620" lon="-8.8103080">
        <ele>46.2</ele>
        <time>2021-05-20T05:40:25Z</time>
      </trkpt>
      <trkpt lat="42.1240730" lon="-8.8103100">
        <ele>46.2</ele>
        <time>2021-05-20T05:40:26Z</time>
      </trkpt>
      <trkpt lat="42.1240790" lon="-8.8103030">
        <ele>46.1</ele>
        <time>2021-05-20T05:40:27Z</time>
      </trkpt>
      <trkpt lat="42.1240940" lon="-8.8102910">
        <ele>46.1</ele>
        <time>2021-05-20T05:40:28Z</time>
      </trkpt>
      <trkpt lat="42.1241090" lon="-8.8102900">
        <ele>46.0</ele>
        <time>2021-05-20T05:40:29Z</time>
      </trkpt>
      <trkpt lat="42.1241220" lon="-8.8102820">
        <ele>46.0</ele>
        <time>2021-05-20T05:40:30Z</time>
      </trkpt>
      <trkpt lat="42.1241380" lon="-8.8102820">
        <ele>45.9</ele>
        <time>2021-05-20T05:40:31Z</time>
      </trkpt>
      <trkpt lat="42.1241510" lon="-8.8102800">
        <ele>45.9</ele>
        <time>2021-05-20T05:40:32Z</time>
      </trkpt>
      <trkpt lat="42.1241700" lon="-8.8102690">
        <ele>45.8</ele>
        <time>2021-05-20T05:40:33Z</time>
      </trkpt>
      <trkpt lat="42.1241800" lon="-8.8102670">
        <ele>45.8</ele>
        <time>2021-05-20T05:40:34Z</time>
      </trkpt>
      <trkpt lat="42.1241910" lon="-8.8102650">
        <ele>45.7</ele>
        <time>2021-05-20T05:40:35Z</time>
      </trkpt>
      <trkpt lat="42.1242130" lon="-8.8102600">
        <ele>45.7</ele>
        <time>2021-05-20T05:40:36Z</time>
      </trkpt>
      <trkpt lat="42.1242190" lon="-8.8102590">
        <ele>45.6</ele>
        <time>2021-05-20T05:40:37Z</time>
      </trkpt>
      <trkpt lat="42.1242260" lon="-8.8102570">
        <ele>45.6</ele>
        <time>2021-05-20T05:40:38Z</time>
      </trkpt>
      <trkpt lat="42.1242320" lon="-8.8102560">
        <ele>45.6</ele>
        <time>2021-05-20T05:40:39Z</time>
      </trkpt>
      <trkpt lat="42.1242630" lon="-8.8102530">
        <ele>45.5</ele>
        <time>2021-05-20T05:40:40Z</time>
      </trkpt>
      <trkpt lat="42.1242710" lon="-8.8102530">
        <ele>45.4</ele>
        <time>2021-05-20T05:40:41Z</time>
      </trkpt>
      <trkpt lat="42.1242870" lon="-8.8102500">
        <ele>45.4</ele>
        <time>2021-05-20T05:40:42Z</time>
      </trkpt>
      <trkpt lat="42.1243000" lon="-8.8102470">
        <ele>45.3</ele>
        <time>2021-05-20T05:40:43Z</time>
      </trkpt>
      <trkpt lat="42.1243090" lon="-8.8102490">
        <ele>45.3</ele>
        <time>2021-05-20T05:40:44Z</time>
      </trkpt>
      <trkpt lat="42.1243290" lon="-8.8102540">
        <ele>45.2</ele>
        <time>2021-05-20T05:40:45Z</time>
      </trkpt>
      <trkpt lat="42.1243360" lon="-8.8102420">
        <ele>45.1</ele>
        <time>2021-05-20T05:40:46Z</time>
      </trkpt>
      <trkpt lat="42.1243520" lon="-8.8102350">
        <ele>45.1</ele>
        <time>2021-05-20T05:40:47Z</time>
      </trkpt>
      <trkpt lat="42.1243730" lon="-8.8102290">
        <ele>45.0</ele>
        <time>2021-05-20T05:40:48Z</time>
      </trkpt>
      <trkpt lat="42.1243820" lon="-8.8102290">
        <ele>44.9</ele>
        <time>2021-05-20T05:40:49Z</time>
      </trkpt>
      <trkpt lat="42.1243910" lon="-8.8102290">
        <ele>44.9</ele>
        <time>2021-05-20T05:40:50Z</time>
      </trkpt>
      <trkpt lat="42.1244090" lon="-8.8102260">
        <ele>44.8</ele>
        <time>2021-05-20T05:40:51Z</time>
      </trkpt>
      <trkpt lat="42.1244270" lon="-8.8102220">
        <ele>44.7</ele>
        <time>2021-05-20T05:40:52Z</time>
      </trkpt>
      <trkpt lat="42.1244490" lon="-8.8102140">
        <ele>44.6</ele>
        <time>2021-05-20T05:40:53Z</time>
      </trkpt>
      <trkpt lat="42.1244570" lon="-8.8102130">
        <ele>44.6</ele>
        <time>2021-05-20T05:40:54Z</time>
      </trkpt>
      <trkpt lat="42.1244640" lon="-8.8102130">
        <ele>44.5</ele>
        <time>2021-05-20T05:40:55Z</time>
      </trkpt>
      <trkpt lat="42.1244770" lon="-8.8102000">
        <ele>44.5</ele>
        <time>2021-05-20T05:40:56Z</time>
      </trkpt>
      <trkpt lat="42.1244850" lon="-8.8101950">
        <ele>44.4</ele>
        <time>2021-05-20T05:40:57Z</time>
      </trkpt>
      <trkpt lat="42.1244920" lon="-8.8101900">
        <ele>44.4</ele>
        <time>2021-05-20T05:40:58Z</time>
      </trkpt>
      <trkpt lat="42.1244990" lon="-8.8101850">
        <ele>44.3</ele>
        <time>2021-05-20T05:40:59Z</time>
      </trkpt>
      <trkpt lat="42.1245120" lon="-8.8101860">
        <ele>44.3</ele>
        <time>2021-05-20T05:41:00Z</time>
      </trkpt>
      <trkpt lat="42.1245280" lon="-8.8101870">
        <ele>44.2</ele>
        <time>2021-05-20T05:41:01Z</time>
      </trkpt>
      <trkpt lat="42.1245410" lon="-8.8101880">
        <ele>44.1</ele>
        <time>2021-05-20T05:41:02Z</time>
      </trkpt>
      <trkpt lat="42.1245580" lon="-8.8101840">
        <ele>44.1</ele>
        <time>2021-05-20T05:41:03Z</time>
      </trkpt>
      <trkpt lat="42.1245570" lon="-8.8101770">
        <ele>44.0</ele>
        <time>2021-05-20T05:41:04Z</time>
      </trkpt>
      <trkpt lat="42.1245680" lon="-8.8101790">
        <ele>44.0</ele>
        <time>2021-05-20T05:41:05Z</time>
      </trkpt>
      <trkpt lat="42.1245800" lon="-8.8101790">
        <ele>43.9</ele>
        <time>2021-05-20T05:41:06Z</time>
      </trkpt>
      <trkpt lat="42.1245880" lon="-8.8101780">
        <ele>43.9</ele>
        <time>2021-05-20T05:41:07Z</time>
      </trkpt>
      <trkpt lat="42.1246010" lon="-8.8101750">
        <ele>43.8</ele>
        <time>2021-05-20T05:41:08Z</time>
      </trkpt>
      <trkpt lat="42.1246130" lon="-8.8101680">
        <ele>43.7</ele>
        <time>2021-05-20T05:41:09Z</time>
      </trkpt>
      <trkpt lat="42.1246180" lon="-8.8101640">
        <ele>43.7</ele>
        <time>2021-05-20T05:41:10Z</time>
      </trkpt>
      <trkpt lat="42.1246380" lon="-8.8101540">
        <ele>43.6</ele>
        <time>2021-05-20T05:41:11Z</time>
      </trkpt>
      <trkpt lat="42.1246510" lon="-8.8101510">
        <ele>43.5</ele>
        <time>2021-05-20T05:41:12Z</time>
      </trkpt>
      <trkpt lat="42.1246600" lon="-8.8101530">
        <ele>43.5</ele>
        <time>2021-05-20T05:41:13Z</time>
      </trkpt>
      <trkpt lat="42.1246790" lon="-8.8101490">
        <ele>43.4</ele>
        <time>2021-05-20T05:41:14Z</time>
      </trkpt>
      <trkpt lat="42.1246900" lon="-8.8101450">
        <ele>43.3</ele>
        <time>2021-05-20T05:41:15Z</time>
      </trkpt>
      <trkpt lat="42.1247100" lon="-8.8101340">
        <ele>43.2</ele>
        <time>2021-05-20T05:41:16Z</time>
      </trkpt>
      <trkpt lat="42.1247230" lon="-8.8101310">
        <ele>43.2</ele>
        <time>2021-05-20T05:41:17Z</time>
      </trkpt>
      <trkpt lat="42.1247400" lon="-8.8101270">
        <ele>43.1</ele>
        <time>2021-05-20T05:41:18Z</time>
      </trkpt>
      <trkpt lat="42.1247530" lon="-8.8101150">
        <ele>43.0</ele>
        <time>2021-05-20T05:41:19Z</time>
      </trkpt>
      <trkpt lat="42.1247670" lon="-8.8101120">
        <ele>42.9</ele>
        <time>2021-05-20T05:41:20Z</time>
      </trkpt>
      <trkpt lat="42.1247790" lon="-8.8101080">
        <ele>42.8</ele>
        <time>2021-05-20T05:41:21Z</time>
      </trkpt>
      <trkpt lat="42.1247830" lon="-8.8101030">
        <ele>42.8</ele>
        <time>2021-05-20T05:41:22Z</time>
      </trkpt>
      <trkpt lat="42.1247960" lon="-8.8101010">
        <ele>42.7</ele>
        <time>2021-05-20T05:41:23Z</time>
      </trkpt>
      <trkpt lat="42.1248080" lon="-8.8100950">
        <ele>42.7</ele>
        <time>2021-05-20T05:41:24Z</time>
      </trkpt>
      <trkpt lat="42.1248210" lon="-8.8100900">
        <ele>42.6</ele>
        <time>2021-05-20T05:41:25Z</time>
      </trkpt>
      <trkpt lat="42.1248270" lon="-8.8100890">
        <ele>42.6</ele>
        <time>2021-05-20T05:41:26Z</time>
      </trkpt>
      <trkpt lat="42.1248340" lon="-8.8100860">
        <ele>42.5</ele>
        <time>2021-05-20T05:41:27Z</time>
      </trkpt>
      <trkpt lat="42.1248430" lon="-8.8100810">
        <ele>42.5</ele>
        <time>2021-05-20T05:41:28Z</time>
      </trkpt>
      <trkpt lat="42.1248580" lon="-8.8100780">
        <ele>42.4</ele>
        <time>2021-05-20T05:41:29Z</time>
      </trkpt>
      <trkpt lat="42.1248680" lon="-8.8100830">
        <ele>42.3</ele>
        <time>2021-05-20T05:41:30Z</time>
      </trkpt>
      <trkpt lat="42.1248770" lon="-8.8100860">
        <ele>42.3</ele>
        <time>2021-05-20T05:41:31Z</time>
      </trkpt>
      <trkpt lat="42.1248900" lon="-8.8100880">
        <ele>42.2</ele>
        <time>2021-05-20T05:41:32Z</time>
      </trkpt>
      <trkpt lat="42.1249110" lon="-8.8100870">
        <ele>42.1</ele>
        <time>2021-05-20T05:41:33Z</time>
      </trkpt>
      <trkpt lat="42.1249190" lon="-8.8100840">
        <ele>42.1</ele>
        <time>2021-05-20T05:41:34Z</time>
      </trkpt>
      <trkpt lat="42.1249280" lon="-8.8100810">
        <ele>42.0</ele>
        <time>2021-05-20T05:41:35Z</time>
      </trkpt>
      <trkpt lat="42.1249440" lon="-8.8100740">
        <ele>41.9</ele>
        <time>2021-05-20T05:41:36Z</time>
      </trkpt>
      <trkpt lat="42.1249570" lon="-8.8100700">
        <ele>41.9</ele>
        <time>2021-05-20T05:41:37Z</time>
      </trkpt>
      <trkpt lat="42.1249760" lon="-8.8100600">
        <ele>41.8</ele>
        <time>2021-05-20T05:41:38Z</time>
      </trkpt>
      <trkpt lat="42.1249890" lon="-8.8100560">
        <ele>41.7</ele>
        <time>2021-05-20T05:41:39Z</time>
      </trkpt>
      <trkpt lat="42.1250010" lon="-8.8100520">
        <ele>41.6</ele>
        <time>2021-05-20T05:41:40Z</time>
      </trkpt>
      <trkpt lat="42.1250130" lon="-8.8100500">
        <ele>41.6</ele>
        <time>2021-05-20T05:41:41Z</time>
      </trkpt>
      <trkpt lat="42.1250230" lon="-8.8100430">
        <ele>41.5</ele>
        <time>2021-05-20T05:41:42Z</time>
      </trkpt>
      <trkpt lat="42.1250500" lon="-8.8100410">
        <ele>41.4</ele>
        <time>2021-05-20T05:41:43Z</time>
      </trkpt>
      <trkpt lat="42.1250590" lon="-8.8100400">
        <ele>41.3</ele>
        <time>2021-05-20T05:41:44Z</time>
      </trkpt>
      <trkpt lat="42.1250740" lon="-8.8100310">
        <ele>41.2</ele>
        <time>2021-05-20T05:41:45Z</time>
      </trkpt>
      <trkpt lat="42.1250820" lon="-8.8100270">
        <ele>41.2</ele>
        <time>2021-05-20T05:41:46Z</time>
      </trkpt>
      <trkpt lat="42.1250900" lon="-8.8100230">
        <ele>41.2</ele>
        <time>2021-05-20T05:41:47Z</time>
      </trkpt>
      <trkpt lat="42.1251200" lon="-8.8100150">
        <ele>41.0</ele>
        <time>2021-05-20T05:41:48Z</time>
      </trkpt>
      <trkpt lat="42.1251320" lon="-8.8100100">
        <ele>40.9</ele>
        <time>2021-05-20T05:41:49Z</time>
      </trkpt>
      <trkpt lat="42.1251630" lon="-8.8100070">
        <ele>40.8</ele>
        <time>2021-05-20T05:41:50Z</time>
      </trkpt>
      <trkpt lat="42.1251720" lon="-8.8100050">
        <ele>40.7</ele>
        <time>2021-05-20T05:41:51Z</time>
      </trkpt>
      <trkpt lat="42.1251900" lon="-8.8100100">
        <ele>40.6</ele>
        <time>2021-05-20T05:41:52Z</time>
      </trkpt>
      <trkpt lat="42.1252080" lon="-8.8100090">
        <ele>40.5</ele>
        <time>2021-05-20T05:41:53Z</time>
      </trkpt>
      <trkpt lat="42.1252230" lon="-8.8100090">
        <ele>40.5</ele>
        <time>2021-05-20T05:41:54Z</time>
      </trkpt>
      <trkpt lat="42.1252390" lon="-8.8100010">
        <ele>40.4</ele>
        <time>2021-05-20T05:41:55Z</time>
      </trkpt>
      <trkpt lat="42.1252490" lon="-8.8100000">
        <ele>40.3</ele>
        <time>2021-05-20T05:41:56Z</time>
      </trkpt>
      <trkpt lat="42.1252610" lon="-8.8099950">
        <ele>40.3</ele>
        <time>2021-05-20T05:41:57Z</time>
      </trkpt>
      <trkpt lat="42.1252730" lon="-8.8099870">
        <ele>40.2</ele>
        <time>2021-05-20T05:41:58Z</time>
      </trkpt>
      <trkpt lat="42.1252940" lon="-8.8099780">
        <ele>40.1</ele>
        <time>2021-05-20T05:41:59Z</time>
      </trkpt>
      <trkpt lat="42.1253020" lon="-8.8099730">
        <ele>40.0</ele>
        <time>2021-05-20T05:42:00Z</time>
      </trkpt>
      <trkpt lat="42.1253090" lon="-8.8099690">
        <ele>40.0</ele>
        <time>2021-05-20T05:42:01Z</time>
      </trkpt>
      <trkpt lat="42.1253170" lon="-8.8099690">
        <ele>39.9</ele>
        <time>2021-05-20T05:42:02Z</time>
      </trkpt>
      <trkpt lat="42.1253240" lon="-8.8099610">
        <ele>39.9</ele>
        <time>2021-05-20T05:42:03Z</time>
      </trkpt>
      <trkpt lat="42.1253360" lon="-8.8099510">
        <ele>39.8</ele>
        <time>2021-05-20T05:42:04Z</time>
      </trkpt>
      <trkpt lat="42.1253490" lon="-8.8099470">
        <ele>39.7</ele>
        <time>2021-05-20T05:42:05Z</time>
      </trkpt>
      <trkpt lat="42.1253540" lon="-8.8099460">
        <ele>39.7</ele>
        <time>2021-05-20T05:42:06Z</time>
      </trkpt>
      <trkpt lat="42.1253600" lon="-8.8099460">
        <ele>39.6</ele>
        <time>2021-05-20T05:42:07Z</time>
      </trkpt>
      <trkpt lat="42.1253650" lon="-8.8099460">
        <ele>39.6</ele>
        <time>2021-05-20T05:42:08Z</time>
      </trkpt>
      <trkpt lat="42.1253700" lon="-8.8099450">
        <ele>39.6</ele>
        <time>2021-05-20T05:42:09Z</time>
      </trkpt>
      <trkpt lat="42.1253750" lon="-8.8099450">
        <ele>39.6</ele>
        <time>2021-05-20T05:42:10Z</time>
      </trkpt>
      <trkpt lat="42.1253940" lon="-8.8099330">
        <ele>39.4</ele>
        <time>2021-05-20T05:42:11Z</time>
      </trkpt>
      <trkpt lat="42.1254030" lon="-8.8099320">
        <ele>39.4</ele>
        <time>2021-05-20T05:42:12Z</time>
      </trkpt>
      <trkpt lat="42.1254130" lon="-8.8099310">
        <ele>39.3</ele>
        <time>2021-05-20T05:42:13Z</time>
      </trkpt>
      <trkpt lat="42.1254340" lon="-8.8099250">
        <ele>39.2</ele>
        <time>2021-05-20T05:42:14Z</time>
      </trkpt>
      <trkpt lat="42.1254400" lon="-8.8099240">
        <ele>39.2</ele>
        <time>2021-05-20T05:42:15Z</time>
      </trkpt>
      <trkpt lat="42.1254490" lon="-8.8099120">
        <ele>39.1</ele>
        <time>2021-05-20T05:42:16Z</time>
      </trkpt>
      <trkpt lat="42.1254540" lon="-8.8099070">
        <ele>39.1</ele>
        <time>2021-05-20T05:42:17Z</time>
      </trkpt>
      <trkpt lat="42.1254670" lon="-8.8098980">
        <ele>39.0</ele>
        <time>2021-05-20T05:42:18Z</time>
      </trkpt>
      <trkpt lat="42.1254770" lon="-8.8098870">
        <ele>38.9</ele>
        <time>2021-05-20T05:42:19Z</time>
      </trkpt>
      <trkpt lat="42.1254900" lon="-8.8098850">
        <ele>38.8</ele>
        <time>2021-05-20T05:42:20Z</time>
      </trkpt>
      <trkpt lat="42.1255000" lon="-8.8098770">
        <ele>38.8</ele>
        <time>2021-05-20T05:42:21Z</time>
      </trkpt>
      <trkpt lat="42.1255220" lon="-8.8098730">
        <ele>38.7</ele>
        <time>2021-05-20T05:42:22Z</time>
      </trkpt>
      <trkpt lat="42.1255340" lon="-8.8098700">
        <ele>38.6</ele>
        <time>2021-05-20T05:42:23Z</time>
      </trkpt>
      <trkpt lat="42.1255470" lon="-8.8098670">
        <ele>38.5</ele>
        <time>2021-05-20T05:42:24Z</time>
      </trkpt>
      <trkpt lat="42.1255640" lon="-8.8098690">
        <ele>38.4</ele>
        <time>2021-05-20T05:42:25Z</time>
      </trkpt>
      <trkpt lat="42.1255770" lon="-8.8098670">
        <ele>38.3</ele>
        <time>2021-05-20T05:42:26Z</time>
      </trkpt>
      <trkpt lat="42.1255890" lon="-8.8098640">
        <ele>38.3</ele>
        <time>2021-05-20T05:42:27Z</time>
      </trkpt>
      <trkpt lat="42.1256040" lon="-8.8098620">
        <ele>38.2</ele>
        <time>2021-05-20T05:42:28Z</time>
      </trkpt>
      <trkpt lat="42.1256190" lon="-8.8098610">
        <ele>38.1</ele>
        <time>2021-05-20T05:42:29Z</time>
      </trkpt>
      <trkpt lat="42.1256270" lon="-8.8098580">
        <ele>38.1</ele>
        <time>2021-05-20T05:42:30Z</time>
      </trkpt>
      <trkpt lat="42.1256340" lon="-8.8098590">
        <ele>38.0</ele>
        <time>2021-05-20T05:42:31Z</time>
      </trkpt>
      <trkpt lat="42.1256470" lon="-8.8098620">
        <ele>38.0</ele>
        <time>2021-05-20T05:42:32Z</time>
      </trkpt>
      <trkpt lat="42.1256620" lon="-8.8098620">
        <ele>37.9</ele>
        <time>2021-05-20T05:42:33Z</time>
      </trkpt>
      <trkpt lat="42.1256820" lon="-8.8098600">
        <ele>37.8</ele>
        <time>2021-05-20T05:42:34Z</time>
      </trkpt>
      <trkpt lat="42.1256920" lon="-8.8098600">
        <ele>37.7</ele>
        <time>2021-05-20T05:42:35Z</time>
      </trkpt>
      <trkpt lat="42.1257020" lon="-8.8098600">
        <ele>37.7</ele>
        <time>2021-05-20T05:42:36Z</time>
      </trkpt>
      <trkpt lat="42.1257120" lon="-8.8098540">
        <ele>37.6</ele>
        <time>2021-05-20T05:42:37Z</time>
      </trkpt>
      <trkpt lat="42.1257290" lon="-8.8098540">
        <ele>37.5</ele>
        <time>2021-05-20T05:42:38Z</time>
      </trkpt>
      <trkpt lat="42.1257360" lon="-8.8098590">
        <ele>37.5</ele>
        <time>2021-05-20T05:42:39Z</time>
      </trkpt>
      <trkpt lat="42.1257460" lon="-8.8098620">
        <ele>37.4</ele>
        <time>2021-05-20T05:42:40Z</time>
      </trkpt>
      <trkpt lat="42.1257590" lon="-8.8098550">
        <ele>37.3</ele>
        <time>2021-05-20T05:42:41Z</time>
      </trkpt>
      <trkpt lat="42.1257720" lon="-8.8098510">
        <ele>37.3</ele>
        <time>2021-05-20T05:42:42Z</time>
      </trkpt>
      <trkpt lat="42.1257920" lon="-8.8098470">
        <ele>37.2</ele>
        <time>2021-05-20T05:42:43Z</time>
      </trkpt>
      <trkpt lat="42.1258170" lon="-8.8098440">
        <ele>37.0</ele>
        <time>2021-05-20T05:42:44Z</time>
      </trkpt>
      <trkpt lat="42.1258230" lon="-8.8098460">
        <ele>37.0</ele>
        <time>2021-05-20T05:42:45Z</time>
      </trkpt>
      <trkpt lat="42.1258290" lon="-8.8098480">
        <ele>37.0</ele>
        <time>2021-05-20T05:42:46Z</time>
      </trkpt>
      <trkpt lat="42.1258350" lon="-8.8098500">
        <ele>37.0</ele>
        <time>2021-05-20T05:42:47Z</time>
      </trkpt>
      <trkpt lat="42.1258500" lon="-8.8098460">
        <ele>36.9</ele>
        <time>2021-05-20T05:42:48Z</time>
      </trkpt>
      <trkpt lat="42.1258630" lon="-8.8098400">
        <ele>36.8</ele>
        <time>2021-05-20T05:42:49Z</time>
      </trkpt>
      <trkpt lat="42.1258780" lon="-8.8098390">
        <ele>36.7</ele>
        <time>2021-05-20T05:42:50Z</time>
      </trkpt>
      <trkpt lat="42.1258920" lon="-8.8098260">
        <ele>36.7</ele>
        <time>2021-05-20T05:42:51Z</time>
      </trkpt>
      <trkpt lat="42.1259000" lon="-8.8098270">
        <ele>36.6</ele>
        <time>2021-05-20T05:42:52Z</time>
      </trkpt>
      <trkpt lat="42.1259230" lon="-8.8098220">
        <ele>36.5</ele>
        <time>2021-05-20T05:42:53Z</time>
      </trkpt>
      <trkpt lat="42.1259550" lon="-8.8098210">
        <ele>36.4</ele>
        <time>2021-05-20T05:42:54Z</time>
      </trkpt>
      <trkpt lat="42.1259600" lon="-8.8098240">
        <ele>36.3</ele>
        <time>2021-05-20T05:42:55Z</time>
      </trkpt>
      <trkpt lat="42.1259750" lon="-8.8098240">
        <ele>36.3</ele>
        <time>2021-05-20T05:42:56Z</time>
      </trkpt>
      <trkpt lat="42.1259850" lon="-8.8098230">
        <ele>36.2</ele>
        <time>2021-05-20T05:42:57Z</time>
      </trkpt>
      <trkpt lat="42.1259950" lon="-8.8098160">
        <ele>36.2</ele>
        <time>2021-05-20T05:42:58Z</time>
      </trkpt>
      <trkpt lat="42.1260130" lon="-8.8098220">
        <ele>36.1</ele>
        <time>2021-05-20T05:42:59Z</time>
      </trkpt>
      <trkpt lat="42.1260270" lon="-8.8098090">
        <ele>36.0</ele>
        <time>2021-05-20T05:43:00Z</time>
      </trkpt>
      <trkpt lat="42.1260430" lon="-8.8098040">
        <ele>35.9</ele>
        <time>2021-05-20T05:43:01Z</time>
      </trkpt>
      <trkpt lat="42.1260590" lon="-8.8097970">
        <ele>35.9</ele>
        <time>2021-05-20T05:43:02Z</time>
      </trkpt>
      <trkpt lat="42.1260690" lon="-8.8097860">
        <ele>35.8</ele>
        <time>2021-05-20T05:43:03Z</time>
      </trkpt>
      <trkpt lat="42.1260790" lon="-8.8097860">
        <ele>35.8</ele>
        <time>2021-05-20T05:43:04Z</time>
      </trkpt>
      <trkpt lat="42.1260930" lon="-8.8097820">
        <ele>35.7</ele>
        <time>2021-05-20T05:43:05Z</time>
      </trkpt>
      <trkpt lat="42.1261160" lon="-8.8097740">
        <ele>35.6</ele>
        <time>2021-05-20T05:43:06Z</time>
      </trkpt>
      <trkpt lat="42.1261260" lon="-8.8097750">
        <ele>35.5</ele>
        <time>2021-05-20T05:43:07Z</time>
      </trkpt>
      <trkpt lat="42.1261360" lon="-8.8097760">
        <ele>35.5</ele>
        <time>2021-05-20T05:43:08Z</time>
      </trkpt>
      <trkpt lat="42.1261450" lon="-8.8097690">
        <ele>35.5</ele>
        <time>2021-05-20T05:43:09Z</time>
      </trkpt>
      <trkpt lat="42.1261540" lon="-8.8097680">
        <ele>35.4</ele>
        <time>2021-05-20T05:43:10Z</time>
      </trkpt>
      <trkpt lat="42.1261630" lon="-8.8097720">
        <ele>35.4</ele>
        <time>2021-05-20T05:43:11Z</time>
      </trkpt>
      <trkpt lat="42.1261800" lon="-8.8097720">
        <ele>35.3</ele>
        <time>2021-05-20T05:43:12Z</time>
      </trkpt>
      <trkpt lat="42.1261920" lon="-8.8097660">
        <ele>35.2</ele>
        <time>2021-05-20T05:43:13Z</time>
      </trkpt>
      <trkpt lat="42.1262030" lon="-8.8097650">
        <ele>35.2</ele>
        <time>2021-05-20T05:43:14Z</time>
      </trkpt>
      <trkpt lat="42.1262090" lon="-8.8097640">
        <ele>35.2</ele>
        <time>2021-05-20T05:43:15Z</time>
      </trkpt>
      <trkpt lat="42.1262280" lon="-8.8097640">
        <ele>35.1</ele>
        <time>2021-05-20T05:43:16Z</time>
      </trkpt>
      <trkpt lat="42.1262460" lon="-8.8097540">
        <ele>35.0</ele>
        <time>2021-05-20T05:43:17Z</time>
      </trkpt>
      <trkpt lat="42.1262560" lon="-8.8097550">
        <ele>35.0</ele>
        <time>2021-05-20T05:43:18Z</time>
      </trkpt>
      <trkpt lat="42.1262650" lon="-8.8097550">
        <ele>34.9</ele>
        <time>2021-05-20T05:43:19Z</time>
      </trkpt>
      <trkpt lat="42.1262800" lon="-8.8097550">
        <ele>34.9</ele>
        <time>2021-05-20T05:43:20Z</time>
      </trkpt>
      <trkpt lat="42.1262930" lon="-8.8097600">
        <ele>34.8</ele>
        <time>2021-05-20T05:43:21Z</time>
      </trkpt>
      <trkpt lat="42.1263160" lon="-8.8097600">
        <ele>34.8</ele>
        <time>2021-05-20T05:43:22Z</time>
      </trkpt>
      <trkpt lat="42.1263290" lon="-8.8097600">
        <ele>34.7</ele>
        <time>2021-05-20T05:43:23Z</time>
      </trkpt>
      <trkpt lat="42.1263420" lon="-8.8097570">
        <ele>34.7</ele>
        <time>2021-05-20T05:43:24Z</time>
      </trkpt>
      <trkpt lat="42.1263510" lon="-8.8097580">
        <ele>34.6</ele>
        <time>2021-05-20T05:43:25Z</time>
      </trkpt>
      <trkpt lat="42.1263640" lon="-8.8097630">
        <ele>34.6</ele>
        <time>2021-05-20T05:43:26Z</time>
      </trkpt>
      <trkpt lat="42.1263770" lon="-8.8097580">
        <ele>34.5</ele>
        <time>2021-05-20T05:43:27Z</time>
      </trkpt>
      <trkpt lat="42.1263840" lon="-8.8097550">
        <ele>34.5</ele>
        <time>2021-05-20T05:43:28Z</time>
      </trkpt>
      <trkpt lat="42.1263950" lon="-8.8097540">
        <ele>34.5</ele>
        <time>2021-05-20T05:43:29Z</time>
      </trkpt>
      <trkpt lat="42.1264050" lon="-8.8097530">
        <ele>34.5</ele>
        <time>2021-05-20T05:43:30Z</time>
      </trkpt>
      <trkpt lat="42.1264120" lon="-8.8097550">
        <ele>34.4</ele>
        <time>2021-05-20T05:43:31Z</time>
      </trkpt>
      <trkpt lat="42.1264240" lon="-8.8097570">
        <ele>34.4</ele>
        <time>2021-05-20T05:43:32Z</time>
      </trkpt>
      <trkpt lat="42.1264420" lon="-8.8097600">
        <ele>34.3</ele>
        <time>2021-05-20T05:43:33Z</time>
      </trkpt>
      <trkpt lat="42.1264540" lon="-8.8097530">
        <ele>34.3</ele>
        <time>2021-05-20T05:43:34Z</time>
      </trkpt>
      <trkpt lat="42.1264690" lon="-8.8097530">
        <ele>34.2</ele>
        <time>2021-05-20T05:43:35Z</time>
      </trkpt>
      <trkpt lat="42.1264790" lon="-8.8097500">
        <ele>34.2</ele>
        <time>2021-05-20T05:43:36Z</time>
      </trkpt>
      <trkpt lat="42.1264900" lon="-8.8097480">
        <ele>34.2</ele>
        <time>2021-05-20T05:43:37Z</time>
      </trkpt>
      <trkpt lat="42.1265100" lon="-8.8097380">
        <ele>34.1</ele>
        <time>2021-05-20T05:43:38Z</time>
      </trkpt>
      <trkpt lat="42.1265190" lon="-8.8097350">
        <ele>34.1</ele>
        <time>2021-05-20T05:43:39Z</time>
      </trkpt>
      <trkpt lat="42.1265280" lon="-8.8097320">
        <ele>34.0</ele>
        <time>2021-05-20T05:43:40Z</time>
      </trkpt>
      <trkpt lat="42.1265520" lon="-8.8097230">
        <ele>33.9</ele>
        <time>2021-05-20T05:43:41Z</time>
      </trkpt>
      <trkpt lat="42.1265610" lon="-8.8097200">
        <ele>33.9</ele>
        <time>2021-05-20T05:43:42Z</time>
      </trkpt>
      <trkpt lat="42.1265700" lon="-8.8097160">
        <ele>33.9</ele>
        <time>2021-05-20T05:43:43Z</time>
      </trkpt>
      <trkpt lat="42.1266050" lon="-8.8097160">
        <ele>33.8</ele>
        <time>2021-05-20T05:43:44Z</time>
      </trkpt>
      <trkpt lat="42.1266170" lon="-8.8097190">
        <ele>33.7</ele>
        <time>2021-05-20T05:43:45Z</time>
      </trkpt>
      <trkpt lat="42.1266340" lon="-8.8097190">
        <ele>33.7</ele>
        <time>2021-05-20T05:43:46Z</time>
      </trkpt>
      <trkpt lat="42.1266480" lon="-8.8097230">
        <ele>33.6</ele>
        <time>2021-05-20T05:43:47Z</time>
      </trkpt>
      <trkpt lat="42.1266620" lon="-8.8097190">
        <ele>33.6</ele>
        <time>2021-05-20T05:43:48Z</time>
      </trkpt>
      <trkpt lat="42.1266720" lon="-8.8097170">
        <ele>33.6</ele>
        <time>2021-05-20T05:43:49Z</time>
      </trkpt>
      <trkpt lat="42.1266780" lon="-8.8097160">
        <ele>33.5</ele>
        <time>2021-05-20T05:43:50Z</time>
      </trkpt>
      <trkpt lat="42.1266860" lon="-8.8097120">
        <ele>33.5</ele>
        <time>2021-05-20T05:43:51Z</time>
      </trkpt>
      <trkpt lat="42.1267060" lon="-8.8097110">
        <ele>33.5</ele>
        <time>2021-05-20T05:43:52Z</time>
      </trkpt>
      <trkpt lat="42.1267170" lon="-8.8097150">
        <ele>33.4</ele>
        <time>2021-05-20T05:43:53Z</time>
      </trkpt>
      <trkpt lat="42.1267380" lon="-8.8097120">
        <ele>33.4</ele>
        <time>2021-05-20T05:43:54Z</time>
      </trkpt>
      <trkpt lat="42.1267540" lon="-8.8097160">
        <ele>33.3</ele>
        <time>2021-05-20T05:43:55Z</time>
      </trkpt>
      <trkpt lat="42.1267630" lon="-8.8097180">
        <ele>33.3</ele>
        <time>2021-05-20T05:43:56Z</time>
      </trkpt>
      <trkpt lat="42.1267690" lon="-8.8097210">
        <ele>33.3</ele>
        <time>2021-05-20T05:43:57Z</time>
      </trkpt>
      <trkpt lat="42.1267820" lon="-8.8097220">
        <ele>33.2</ele>
        <time>2021-05-20T05:43:58Z</time>
      </trkpt>
      <trkpt lat="42.1267910" lon="-8.8097250">
        <ele>33.2</ele>
        <time>2021-05-20T05:43:59Z</time>
      </trkpt>
      <trkpt lat="42.1267990" lon="-8.8097160">
        <ele>33.2</ele>
        <time>2021-05-20T05:44:00Z</time>
      </trkpt>
      <trkpt lat="42.1268150" lon="-8.8097170">
        <ele>33.1</ele>
        <time>2021-05-20T05:44:01Z</time>
      </trkpt>
      <trkpt lat="42.1268260" lon="-8.8097150">
        <ele>33.1</ele>
        <time>2021-05-20T05:44:02Z</time>
      </trkpt>
      <trkpt lat="42.1268360" lon="-8.8097140">
        <ele>33.1</ele>
        <time>2021-05-20T05:44:03Z</time>
      </trkpt>
      <trkpt lat="42.1268500" lon="-8.8097150">
        <ele>33.0</ele>
        <time>2021-05-20T05:44:04Z</time>
      </trkpt>
      <trkpt lat="42.1268640" lon="-8.8097180">
        <ele>33.0</ele>
        <time>2021-05-20T05:44:05Z</time>
      </trkpt>
      <trkpt lat="42.1268750" lon="-8.8097160">
        <ele>33.0</ele>
        <time>2021-05-20T05:44:06Z</time>
      </trkpt>
      <trkpt lat="42.1268890" lon="-8.8097180">
        <ele>32.9</ele>
        <time>2021-05-20T05:44:07Z</time>
      </trkpt>
      <trkpt lat="42.1268980" lon="-8.8097160">
        <ele>32.9</ele>
        <time>2021-05-20T05:44:08Z</time>
      </trkpt>
      <trkpt lat="42.1269150" lon="-8.8097110">
        <ele>32.9</ele>
        <time>2021-05-20T05:44:09Z</time>
      </trkpt>
      <trkpt lat="42.1269280" lon="-8.8097090">
        <ele>32.8</ele>
        <time>2021-05-20T05:44:10Z</time>
      </trkpt>
      <trkpt lat="42.1269420" lon="-8.8097040">
        <ele>32.8</ele>
        <time>2021-05-20T05:44:11Z</time>
      </trkpt>
      <trkpt lat="42.1269550" lon="-8.8097000">
        <ele>32.8</ele>
        <time>2021-05-20T05:44:12Z</time>
      </trkpt>
      <trkpt lat="42.1269710" lon="-8.8096980">
        <ele>32.7</ele>
        <time>2021-05-20T05:44:13Z</time>
      </trkpt>
      <trkpt lat="42.1269890" lon="-8.8097000">
        <ele>32.7</ele>
        <time>2021-05-20T05:44:14Z</time>
      </trkpt>
      <trkpt lat="42.1270020" lon="-8.8097010">
        <ele>32.7</ele>
        <time>2021-05-20T05:44:15Z</time>
      </trkpt>
      <trkpt lat="42.1270210" lon="-8.8097100">
        <ele>32.6</ele>
        <time>2021-05-20T05:44:16Z</time>
      </trkpt>
      <trkpt lat="42.1270500" lon="-8.8097260">
        <ele>32.5</ele>
        <time>2021-05-20T05:44:17Z</time>
      </trkpt>
      <trkpt lat="42.1270610" lon="-8.8097250">
        <ele>32.5</ele>
        <time>2021-05-20T05:44:18Z</time>
      </trkpt>
      <trkpt lat="42.1270720" lon="-8.8097250">
        <ele>32.5</ele>
        <time>2021-05-20T05:44:19Z</time>
      </trkpt>
      <trkpt lat="42.1270850" lon="-8.8097200">
        <ele>32.4</ele>
        <time>2021-05-20T05:44:20Z</time>
      </trkpt>
      <trkpt lat="42.1270900" lon="-8.8097210">
        <ele>32.4</ele>
        <time>2021-05-20T05:44:21Z</time>
      </trkpt>
      <trkpt lat="42.1271050" lon="-8.8097230">
        <ele>32.4</ele>
        <time>2021-05-20T05:44:22Z</time>
      </trkpt>
      <trkpt lat="42.1271170" lon="-8.8097270">
        <ele>32.4</ele>
        <time>2021-05-20T05:44:23Z</time>
      </trkpt>
      <trkpt lat="42.1271360" lon="-8.8097310">
        <ele>32.3</ele>
        <time>2021-05-20T05:44:24Z</time>
      </trkpt>
      <trkpt lat="42.1271440" lon="-8.8097340">
        <ele>32.3</ele>
        <time>2021-05-20T05:44:25Z</time>
      </trkpt>
      <trkpt lat="42.1271520" lon="-8.8097320">
        <ele>32.3</ele>
        <time>2021-05-20T05:44:26Z</time>
      </trkpt>
      <trkpt lat="42.1271660" lon="-8.8097290">
        <ele>32.3</ele>
        <time>2021-05-20T05:44:27Z</time>
      </trkpt>
      <trkpt lat="42.1271880" lon="-8.8097270">
        <ele>32.2</ele>
        <time>2021-05-20T05:44:28Z</time>
      </trkpt>
      <trkpt lat="42.1271990" lon="-8.8097250">
        <ele>32.2</ele>
        <time>2021-05-20T05:44:29Z</time>
      </trkpt>
      <trkpt lat="42.1272090" lon="-8.8097240">
        <ele>32.2</ele>
        <time>2021-05-20T05:44:30Z</time>
      </trkpt>
      <trkpt lat="42.1272260" lon="-8.8097160">
        <ele>32.1</ele>
        <time>2021-05-20T05:44:31Z</time>
      </trkpt>
      <trkpt lat="42.1272400" lon="-8.8097110">
        <ele>32.1</ele>
        <time>2021-05-20T05:44:32Z</time>
      </trkpt>
      <trkpt lat="42.1272710" lon="-8.8097090">
        <ele>32.0</ele>
        <time>2021-05-20T05:44:33Z</time>
      </trkpt>
      <trkpt lat="42.1272980" lon="-8.8097050">
        <ele>32.0</ele>
        <time>2021-05-20T05:44:34Z</time>
      </trkpt>
      <trkpt lat="42.1273080" lon="-8.8097070">
        <ele>32.0</ele>
        <time>2021-05-20T05:44:35Z</time>
      </trkpt>
      <trkpt lat="42.1273250" lon="-8.8097110">
        <ele>31.9</ele>
        <time>2021-05-20T05:44:36Z</time>
      </trkpt>
      <trkpt lat="42.1273420" lon="-8.8097130">
        <ele>31.9</ele>
        <time>2021-05-20T05:44:37Z</time>
      </trkpt>
      <trkpt lat="42.1273640" lon="-8.8097110">
        <ele>31.8</ele>
        <time>2021-05-20T05:44:38Z</time>
      </trkpt>
      <trkpt lat="42.1273700" lon="-8.8097120">
        <ele>31.8</ele>
        <time>2021-05-20T05:44:39Z</time>
      </trkpt>
      <trkpt lat="42.1273770" lon="-8.8097130">
        <ele>31.8</ele>
        <time>2021-05-20T05:44:40Z</time>
      </trkpt>
      <trkpt lat="42.1273830" lon="-8.8097140">
        <ele>31.8</ele>
        <time>2021-05-20T05:44:41Z</time>
      </trkpt>
      <trkpt lat="42.1273940" lon="-8.8097130">
        <ele>31.8</ele>
        <time>2021-05-20T05:44:42Z</time>
      </trkpt>
      <trkpt lat="42.1274110" lon="-8.8097040">
        <ele>31.7</ele>
        <time>2021-05-20T05:44:43Z</time>
      </trkpt>
      <trkpt lat="42.1274280" lon="-8.8097020">
        <ele>31.7</ele>
        <time>2021-05-20T05:44:44Z</time>
      </trkpt>
      <trkpt lat="42.1274390" lon="-8.8097010">
        <ele>31.7</ele>
        <time>2021-05-20T05:44:45Z</time>
      </trkpt>
      <trkpt lat="42.1274530" lon="-8.8096980">
        <ele>31.6</ele>
        <time>2021-05-20T05:44:46Z</time>
      </trkpt>
      <trkpt lat="42.1274660" lon="-8.8096980">
        <ele>31.6</ele>
        <time>2021-05-20T05:44:47Z</time>
      </trkpt>
      <trkpt lat="42.1274950" lon="-8.8097010">
        <ele>31.6</ele>
        <time>2021-05-20T05:44:48Z</time>
      </trkpt>
      <trkpt lat="42.1275040" lon="-8.8097000">
        <ele>31.5</ele>
        <time>2021-05-20T05:44:49Z</time>
      </trkpt>
      <trkpt lat="42.1275220" lon="-8.8096920">
        <ele>31.5</ele>
        <time>2021-05-20T05:44:50Z</time>
      </trkpt>
      <trkpt lat="42.1275330" lon="-8.8096830">
        <ele>31.5</ele>
        <time>2021-05-20T05:44:51Z</time>
      </trkpt>
      <trkpt lat="42.1275480" lon="-8.8096820">
        <ele>31.4</ele>
        <time>2021-05-20T05:44:52Z</time>
      </trkpt>
      <trkpt lat="42.1275630" lon="-8.8096810">
        <ele>31.4</ele>
        <time>2021-05-20T05:44:53Z</time>
      </trkpt>
      <trkpt lat="42.1275760" lon="-8.8096770">
        <ele>31.4</ele>
        <time>2021-05-20T05:44:54Z</time>
      </trkpt>
      <trkpt lat="42.1275890" lon="-8.8096810">
        <ele>31.3</ele>
        <time>2021-05-20T05:44:55Z</time>
      </trkpt>
      <trkpt lat="42.1275980" lon="-8.8096810">
        <ele>31.3</ele>
        <time>2021-05-20T05:44:56Z</time>
      </trkpt>
      <trkpt lat="42.1276170" lon="-8.8096780">
        <ele>31.3</ele>
        <time>2021-05-20T05:44:57Z</time>
      </trkpt>
      <trkpt lat="42.1276290" lon="-8.8096750">
        <ele>31.2</ele>
        <time>2021-05-20T05:44:58Z</time>
      </trkpt>
      <trkpt lat="42.1276370" lon="-8.8096710">
        <ele>31.2</ele>
        <time>2021-05-20T05:44:59Z</time>
      </trkpt>
      <trkpt lat="42.1276530" lon="-8.8096710">
        <ele>31.2</ele>
        <time>2021-05-20T05:45:00Z</time>
      </trkpt>
      <trkpt lat="42.1276650" lon="-8.8096670">
        <ele>31.2</ele>
        <time>2021-05-20T05:45:01Z</time>
      </trkpt>
      <trkpt lat="42.1276750" lon="-8.8096650">
        <ele>31.1</ele>
        <time>2021-05-20T05:45:02Z</time>
      </trkpt>
      <trkpt lat="42.1276900" lon="-8.8096670">
        <ele>31.1</ele>
        <time>2021-05-20T05:45:03Z</time>
      </trkpt>
      <trkpt lat="42.1277010" lon="-8.8096670">
        <ele>31.1</ele>
        <time>2021-05-20T05:45:04Z</time>
      </trkpt>
      <trkpt lat="42.1277140" lon="-8.8096710">
        <ele>31.0</ele>
        <time>2021-05-20T05:45:05Z</time>
      </trkpt>
      <trkpt lat="42.1277220" lon="-8.8096650">
        <ele>31.0</ele>
        <time>2021-05-20T05:45:06Z</time>
      </trkpt>
      <trkpt lat="42.1277350" lon="-8.8096670">
        <ele>31.0</ele>
        <time>2021-05-20T05:45:07Z</time>
      </trkpt>
      <trkpt lat="42.1277500" lon="-8.8096760">
        <ele>31.0</ele>
        <time>2021-05-20T05:45:08Z</time>
      </trkpt>
      <trkpt lat="42.1277640" lon="-8.8096740">
        <ele>30.9</ele>
        <time>2021-05-20T05:45:09Z</time>
      </trkpt>
      <trkpt lat="42.1277750" lon="-8.8096790">
        <ele>30.9</ele>
        <time>2021-05-20T05:45:10Z</time>
      </trkpt>
      <trkpt lat="42.1277910" lon="-8.8096850">
        <ele>30.9</ele>
        <time>2021-05-20T05:45:11Z</time>
      </trkpt>
      <trkpt lat="42.1277980" lon="-8.8096800">
        <ele>30.8</ele>
        <time>2021-05-20T05:45:12Z</time>
      </trkpt>
      <trkpt lat="42.1278130" lon="-8.8096780">
        <ele>30.8</ele>
        <time>2021-05-20T05:45:13Z</time>
      </trkpt>
      <trkpt lat="42.1278170" lon="-8.8096750">
        <ele>30.8</ele>
        <time>2021-05-20T05:45:14Z</time>
      </trkpt>
      <trkpt lat="42.1278420" lon="-8.8096800">
        <ele>30.7</ele>
        <time>2021-05-20T05:45:15Z</time>
      </trkpt>
      <trkpt lat="42.1278500" lon="-8.8096820">
        <ele>30.7</ele>
        <time>2021-05-20T05:45:16Z</time>
      </trkpt>
      <trkpt lat="42.1278590" lon="-8.8096840">
        <ele>30.7</ele>
        <time>2021-05-20T05:45:17Z</time>
      </trkpt>
      <trkpt lat="42.1278770" lon="-8.8096830">
        <ele>30.7</ele>
        <time>2021-05-20T05:45:18Z</time>
      </trkpt>
      <trkpt lat="42.1278870" lon="-8.8096830">
        <ele>30.6</ele>
        <time>2021-05-20T05:45:19Z</time>
      </trkpt>
      <trkpt lat="42.1278960" lon="-8.8096840">
        <ele>30.6</ele>
        <time>2021-05-20T05:45:20Z</time>
      </trkpt>
      <trkpt lat="42.1279100" lon="-8.8096870">
        <ele>30.6</ele>
        <time>2021-05-20T05:45:21Z</time>
      </trkpt>
      <trkpt lat="42.1279250" lon="-8.8096820">
        <ele>30.6</ele>
        <time>2021-05-20T05:45:22Z</time>
      </trkpt>
      <trkpt lat="42.1279380" lon="-8.8096780">
        <ele>30.5</ele>
        <time>2021-05-20T05:45:23Z</time>
      </trkpt>
      <trkpt lat="42.1279530" lon="-8.8096760">
        <ele>30.5</ele>
        <time>2021-05-20T05:45:24Z</time>
      </trkpt>
      <trkpt lat="42.1279640" lon="-8.8096780">
        <ele>30.5</ele>
        <time>2021-05-20T05:45:25Z</time>
      </trkpt>
      <trkpt lat="42.1279740" lon="-8.8096750">
        <ele>30.5</ele>
        <time>2021-05-20T05:45:26Z</time>
      </trkpt>
      <trkpt lat="42.1279880" lon="-8.8096710">
        <ele>30.4</ele>
        <time>2021-05-20T05:45:27Z</time>
      </trkpt>
      <trkpt lat="42.1280030" lon="-8.8096700">
        <ele>30.4</ele>
        <time>2021-05-20T05:45:28Z</time>
      </trkpt>
      <trkpt lat="42.1280200" lon="-8.8096720">
        <ele>30.4</ele>
        <time>2021-05-20T05:45:29Z</time>
      </trkpt>
      <trkpt lat="42.1280280" lon="-8.8096710">
        <ele>30.3</ele>
        <time>2021-05-20T05:45:30Z</time>
      </trkpt>
      <trkpt lat="42.1280460" lon="-8.8096680">
        <ele>30.3</ele>
        <time>2021-05-20T05:45:31Z</time>
      </trkpt>
      <trkpt lat="42.1280530" lon="-8.8096650">
        <ele>30.3</ele>
        <time>2021-05-20T05:45:32Z</time>
      </trkpt>
      <trkpt lat="42.1280660" lon="-8.8096640">
        <ele>30.3</ele>
        <time>2021-05-20T05:45:33Z</time>
      </trkpt>
      <trkpt lat="42.1280810" lon="-8.8096650">
        <ele>30.2</ele>
        <time>2021-05-20T05:45:34Z</time>
      </trkpt>
      <trkpt lat="42.1280910" lon="-8.8096570">
        <ele>30.2</ele>
        <time>2021-05-20T05:45:35Z</time>
      </trkpt>
      <trkpt lat="42.1281040" lon="-8.8096490">
        <ele>30.2</ele>
        <time>2021-05-20T05:45:36Z</time>
      </trkpt>
      <trkpt lat="42.1281140" lon="-8.8096480">
        <ele>30.2</ele>
        <time>2021-05-20T05:45:37Z</time>
      </trkpt>
      <trkpt lat="42.1281310" lon="-8.8096450">
        <ele>30.1</ele>
        <time>2021-05-20T05:45:38Z</time>
      </trkpt>
      <trkpt lat="42.1281460" lon="-8.8096460">
        <ele>30.1</ele>
        <time>2021-05-20T05:45:39Z</time>
      </trkpt>
      <trkpt lat="42.1281780" lon="-8.8096550">
        <ele>30.0</ele>
        <time>2021-05-20T05:45:40Z</time>
      </trkpt>
      <trkpt lat="42.1281860" lon="-8.8096580">
        <ele>30.0</ele>
        <time>2021-05-20T05:45:41Z</time>
      </trkpt>
      <trkpt lat="42.1282040" lon="-8.8096590">
        <ele>30.0</ele>
        <time>2021-05-20T05:45:42Z</time>
      </trkpt>
      <trkpt lat="42.1282200" lon="-8.8096550">
        <ele>30.0</ele>
        <time>2021-05-20T05:45:43Z</time>
      </trkpt>
      <trkpt lat="42.1282320" lon="-8.8096610">
        <ele>29.9</ele>
        <time>2021-05-20T05:45:44Z</time>
      </trkpt>
      <trkpt lat="42.1282450" lon="-8.8096690">
        <ele>29.9</ele>
        <time>2021-05-20T05:45:45Z</time>
      </trkpt>
      <trkpt lat="42.1282670" lon="-8.8096690">
        <ele>29.9</ele>
        <time>2021-05-20T05:45:46Z</time>
      </trkpt>
      <trkpt lat="42.1282750" lon="-8.8096680">
        <ele>29.8</ele>
        <time>2021-05-20T05:45:47Z</time>
      </trkpt>
      <trkpt lat="42.1282820" lon="-8.8096680">
        <ele>29.8</ele>
        <time>2021-05-20T05:45:48Z</time>
      </trkpt>
      <trkpt lat="42.1282960" lon="-8.8096560">
        <ele>29.8</ele>
        <time>2021-05-20T05:45:49Z</time>
      </trkpt>
      <trkpt lat="42.1283090" lon="-8.8096580">
        <ele>29.8</ele>
        <time>2021-05-20T05:45:50Z</time>
      </trkpt>
      <trkpt lat="42.1283200" lon="-8.8096580">
        <ele>29.8</ele>
        <time>2021-05-20T05:45:51Z</time>
      </trkpt>
      <trkpt lat="42.1283320" lon="-8.8096550">
        <ele>29.7</ele>
        <time>2021-05-20T05:45:52Z</time>
      </trkpt>
      <trkpt lat="42.1283400" lon="-8.8096460">
        <ele>29.7</ele>
        <time>2021-05-20T05:45:53Z</time>
      </trkpt>
      <trkpt lat="42.1283610" lon="-8.8096380">
        <ele>29.7</ele>
        <time>2021-05-20T05:45:54Z</time>
      </trkpt>
      <trkpt lat="42.1283700" lon="-8.8096330">
        <ele>29.7</ele>
        <time>2021-05-20T05:45:55Z</time>
      </trkpt>
      <trkpt lat="42.1283790" lon="-8.8096290">
        <ele>29.6</ele>
        <time>2021-05-20T05:45:56Z</time>
      </trkpt>
      <trkpt lat="42.1283890" lon="-8.8096240">
        <ele>29.6</ele>
        <time>2021-05-20T05:45:57Z</time>
      </trkpt>
      <trkpt lat="42.1283890" lon="-8.8096210">
        <ele>29.6</ele>
        <time>2021-05-20T05:45:58Z</time>
      </trkpt>
      <trkpt lat="42.1283970" lon="-8.8096270">
        <ele>29.6</ele>
        <time>2021-05-20T05:45:59Z</time>
      </trkpt>
      <trkpt lat="42.1284130" lon="-8.8096250">
        <ele>29.6</ele>
        <time>2021-05-20T05:46:00Z</time>
      </trkpt>
      <trkpt lat="42.1284280" lon="-8.8096290">
        <ele>29.5</ele>
        <time>2021-05-20T05:46:01Z</time>
      </trkpt>
      <trkpt lat="42.1284380" lon="-8.8096320">
        <ele>29.5</ele>
        <time>2021-05-20T05:46:02Z</time>
      </trkpt>
      <trkpt lat="42.1284440" lon="-8.8096340">
        <ele>29.5</ele>
        <time>2021-05-20T05:46:03Z</time>
      </trkpt>
      <trkpt lat="42.1284590" lon="-8.8096350">
        <ele>29.5</ele>
        <time>2021-05-20T05:46:04Z</time>
      </trkpt>
      <trkpt lat="42.1284750" lon="-8.8096360">
        <ele>29.5</ele>
        <time>2021-05-20T05:46:05Z</time>
      </trkpt>
      <trkpt lat="42.1285020" lon="-8.8096430">
        <ele>29.4</ele>
        <time>2021-05-20T05:46:06Z</time>
      </trkpt>
      <trkpt lat="42.1285120" lon="-8.8096440">
        <ele>29.4</ele>
        <time>2021-05-20T05:46:07Z</time>
      </trkpt>
      <trkpt lat="42.1285210" lon="-8.8096450">
        <ele>29.4</ele>
        <time>2021-05-20T05:46:08Z</time>
      </trkpt>
      <trkpt lat="42.1285400" lon="-8.8096480">
        <ele>29.4</ele>
        <time>2021-05-20T05:46:09Z</time>
      </trkpt>
      <trkpt lat="42.1285420" lon="-8.8096520">
        <ele>29.3</ele>
        <time>2021-05-20T05:46:10Z</time>
      </trkpt>
      <trkpt lat="42.1285540" lon="-8.8096550">
        <ele>29.3</ele>
        <time>2021-05-20T05:46:11Z</time>
      </trkpt>
      <trkpt lat="42.1285720" lon="-8.8096590">
        <ele>29.3</ele>
        <time>2021-05-20T05:46:12Z</time>
      </trkpt>
      <trkpt lat="42.1285750" lon="-8.8096590">
        <ele>29.3</ele>
        <time>2021-05-20T05:46:13Z</time>
      </trkpt>
      <trkpt lat="42.1285880" lon="-8.8096510">
        <ele>29.2</ele>
        <time>2021-05-20T05:46:14Z</time>
      </trkpt>
      <trkpt lat="42.1286070" lon="-8.8096480">
        <ele>29.2</ele>
        <time>2021-05-20T05:46:15Z</time>
      </trkpt>
      <trkpt lat="42.1286200" lon="-8.8096450">
        <ele>29.2</ele>
        <time>2021-05-20T05:46:16Z</time>
      </trkpt>
      <trkpt lat="42.1286480" lon="-8.8096470">
        <ele>29.1</ele>
        <time>2021-05-20T05:46:17Z</time>
      </trkpt>
      <trkpt lat="42.1286560" lon="-8.8096470">
        <ele>29.1</ele>
        <time>2021-05-20T05:46:18Z</time>
      </trkpt>
      <trkpt lat="42.1286700" lon="-8.8096440">
        <ele>29.1</ele>
        <time>2021-05-20T05:46:19Z</time>
      </trkpt>
      <trkpt lat="42.1286760" lon="-8.8096420">
        <ele>29.1</ele>
        <time>2021-05-20T05:46:20Z</time>
      </trkpt>
      <trkpt lat="42.1286870" lon="-8.8096440">
        <ele>29.0</ele>
        <time>2021-05-20T05:46:21Z</time>
      </trkpt>
      <trkpt lat="42.1287100" lon="-8.8096340">
        <ele>29.0</ele>
        <time>2021-05-20T05:46:22Z</time>
      </trkpt>
      <trkpt lat="42.1287170" lon="-8.8096310">
        <ele>29.0</ele>
        <time>2021-05-20T05:46:23Z</time>
      </trkpt>
      <trkpt lat="42.1287240" lon="-8.8096270">
        <ele>28.9</ele>
        <time>2021-05-20T05:46:24Z</time>
      </trkpt>
      <trkpt lat="42.1287380" lon="-8.8096240">
        <ele>28.9</ele>
        <time>2021-05-20T05:46:25Z</time>
      </trkpt>
      <trkpt lat="42.1287550" lon="-8.8096220">
        <ele>28.9</ele>
        <time>2021-05-20T05:46:26Z</time>
      </trkpt>
      <trkpt lat="42.1287710" lon="-8.8096190">
        <ele>28.8</ele>
        <time>2021-05-20T05:46:27Z</time>
      </trkpt>
      <trkpt lat="42.1287820" lon="-8.8096190">
        <ele>28.8</ele>
        <time>2021-05-20T05:46:28Z</time>
      </trkpt>
      <trkpt lat="42.1287930" lon="-8.8096190">
        <ele>28.8</ele>
        <time>2021-05-20T05:46:29Z</time>
      </trkpt>
      <trkpt lat="42.1288110" lon="-8.8096210">
        <ele>28.7</ele>
        <time>2021-05-20T05:46:30Z</time>
      </trkpt>
      <trkpt lat="42.1288270" lon="-8.8096160">
        <ele>28.7</ele>
        <time>2021-05-20T05:46:31Z</time>
      </trkpt>
      <trkpt lat="42.1288550" lon="-8.8096180">
        <ele>28.6</ele>
        <time>2021-05-20T05:46:32Z</time>
      </trkpt>
      <trkpt lat="42.1288660" lon="-8.8096170">
        <ele>28.6</ele>
        <time>2021-05-20T05:46:33Z</time>
      </trkpt>
      <trkpt lat="42.1288790" lon="-8.8096180">
        <ele>28.6</ele>
        <time>2021-05-20T05:46:34Z</time>
      </trkpt>
      <trkpt lat="42.1288880" lon="-8.8096120">
        <ele>28.5</ele>
        <time>2021-05-20T05:46:35Z</time>
      </trkpt>
      <trkpt lat="42.1289000" lon="-8.8096080">
        <ele>28.5</ele>
        <time>2021-05-20T05:46:36Z</time>
      </trkpt>
      <trkpt lat="42.1289200" lon="-8.8096030">
        <ele>28.5</ele>
        <time>2021-05-20T05:46:37Z</time>
      </trkpt>
      <trkpt lat="42.1289280" lon="-8.8096020">
        <ele>28.4</ele>
        <time>2021-05-20T05:46:38Z</time>
      </trkpt>
      <trkpt lat="42.1289370" lon="-8.8096000">
        <ele>28.4</ele>
        <time>2021-05-20T05:46:39Z</time>
      </trkpt>
      <trkpt lat="42.1289590" lon="-8.8095990">
        <ele>28.4</ele>
        <time>2021-05-20T05:46:40Z</time>
      </trkpt>
      <trkpt lat="42.1289660" lon="-8.8095980">
        <ele>28.3</ele>
        <time>2021-05-20T05:46:41Z</time>
      </trkpt>
      <trkpt lat="42.1289730" lon="-8.8095970">
        <ele>28.3</ele>
        <time>2021-05-20T05:46:42Z</time>
      </trkpt>
      <trkpt lat="42.1290040" lon="-8.8095990">
        <ele>28.2</ele>
        <time>2021-05-20T05:46:43Z</time>
      </trkpt>
      <trkpt lat="42.1290140" lon="-8.8095990">
        <ele>28.2</ele>
        <time>2021-05-20T05:46:44Z</time>
      </trkpt>
      <trkpt lat="42.1290340" lon="-8.8096030">
        <ele>28.2</ele>
        <time>2021-05-20T05:46:45Z</time>
      </trkpt>
      <trkpt lat="42.1290440" lon="-8.8095930">
        <ele>28.1</ele>
        <time>2021-05-20T05:46:46Z</time>
      </trkpt>
      <trkpt lat="42.1290670" lon="-8.8095900">
        <ele>28.1</ele>
        <time>2021-05-20T05:46:47Z</time>
      </trkpt>
      <trkpt lat="42.1290750" lon="-8.8095880">
        <ele>28.0</ele>
        <time>2021-05-20T05:46:48Z</time>
      </trkpt>
      <trkpt lat="42.1290820" lon="-8.8095870">
        <ele>28.0</ele>
        <time>2021-05-20T05:46:49Z</time>
      </trkpt>
      <trkpt lat="42.1290930" lon="-8.8095890">
        <ele>28.0</ele>
        <time>2021-05-20T05:46:50Z</time>
      </trkpt>
      <trkpt lat="42.1291090" lon="-8.8095880">
        <ele>28.0</ele>
        <time>2021-05-20T05:46:51Z</time>
      </trkpt>
      <trkpt lat="42.1291230" lon="-8.8095910">
        <ele>27.9</ele>
        <time>2021-05-20T05:46:52Z</time>
      </trkpt>
      <trkpt lat="42.1291380" lon="-8.8095880">
        <ele>27.9</ele>
        <time>2021-05-20T05:46:53Z</time>
      </trkpt>
      <trkpt lat="42.1291490" lon="-8.8095870">
        <ele>27.8</ele>
        <time>2021-05-20T05:46:54Z</time>
      </trkpt>
      <trkpt lat="42.1291640" lon="-8.8095850">
        <ele>27.8</ele>
        <time>2021-05-20T05:46:55Z</time>
      </trkpt>
      <trkpt lat="42.1291720" lon="-8.8095810">
        <ele>27.8</ele>
        <time>2021-05-20T05:46:56Z</time>
      </trkpt>
      <trkpt lat="42.1291940" lon="-8.8095780">
        <ele>27.7</ele>
        <time>2021-05-20T05:46:57Z</time>
      </trkpt>
      <trkpt lat="42.1292040" lon="-8.8095760">
        <ele>27.7</ele>
        <time>2021-05-20T05:46:58Z</time>
      </trkpt>
      <trkpt lat="42.1292130" lon="-8.8095750">
        <ele>27.6</ele>
        <time>2021-05-20T05:46:59Z</time>
      </trkpt>
      <trkpt lat="42.1292330" lon="-8.8095710">
        <ele>27.6</ele>
        <time>2021-05-20T05:47:00Z</time>
      </trkpt>
      <trkpt lat="42.1292420" lon="-8.8095700">
        <ele>27.5</ele>
        <time>2021-05-20T05:47:01Z</time>
      </trkpt>
      <trkpt lat="42.1292510" lon="-8.8095700">
        <ele>27.5</ele>
        <time>2021-05-20T05:47:02Z</time>
      </trkpt>
      <trkpt lat="42.1292540" lon="-8.8095740">
        <ele>27.5</ele>
        <time>2021-05-20T05:47:03Z</time>
      </trkpt>
      <trkpt lat="42.1292730" lon="-8.8095750">
        <ele>27.4</ele>
        <time>2021-05-20T05:47:04Z</time>
      </trkpt>
      <trkpt lat="42.1292840" lon="-8.8095740">
        <ele>27.4</ele>
        <time>2021-05-20T05:47:05Z</time>
      </trkpt>
      <trkpt lat="42.1293040" lon="-8.8095750">
        <ele>27.3</ele>
        <time>2021-05-20T05:47:06Z</time>
      </trkpt>
      <trkpt lat="42.1293190" lon="-8.8095740">
        <ele>27.2</ele>
        <time>2021-05-20T05:47:07Z</time>
      </trkpt>
      <trkpt lat="42.1293310" lon="-8.8095760">
        <ele>27.2</ele>
        <time>2021-05-20T05:47:08Z</time>
      </trkpt>
      <trkpt lat="42.1293390" lon="-8.8095750">
        <ele>27.1</ele>
        <time>2021-05-20T05:47:09Z</time>
      </trkpt>
      <trkpt lat="42.1293530" lon="-8.8095700">
        <ele>27.1</ele>
        <time>2021-05-20T05:47:10Z</time>
      </trkpt>
      <trkpt lat="42.1293640" lon="-8.8095710">
        <ele>27.0</ele>
        <time>2021-05-20T05:47:11Z</time>
      </trkpt>
      <trkpt lat="42.1293740" lon="-8.8095750">
        <ele>27.0</ele>
        <time>2021-05-20T05:47:12Z</time>
      </trkpt>
      <trkpt lat="42.1293850" lon="-8.8095710">
        <ele>27.0</ele>
        <time>2021-05-20T05:47:13Z</time>
      </trkpt>
      <trkpt lat="42.1293950" lon="-8.8095660">
        <ele>26.9</ele>
        <time>2021-05-20T05:47:14Z</time>
      </trkpt>
      <trkpt lat="42.1294110" lon="-8.8095680">
        <ele>26.9</ele>
        <time>2021-05-20T05:47:15Z</time>
      </trkpt>
      <trkpt lat="42.1294170" lon="-8.8095620">
        <ele>26.8</ele>
        <time>2021-05-20T05:47:16Z</time>
      </trkpt>
      <trkpt lat="42.1294420" lon="-8.8095640">
        <ele>26.7</ele>
        <time>2021-05-20T05:47:17Z</time>
      </trkpt>
      <trkpt lat="42.1294520" lon="-8.8095670">
        <ele>26.7</ele>
        <time>2021-05-20T05:47:18Z</time>
      </trkpt>
      <trkpt lat="42.1294610" lon="-8.8095690">
        <ele>26.6</ele>
        <time>2021-05-20T05:47:19Z</time>
      </trkpt>
      <trkpt lat="42.1294780" lon="-8.8095660">
        <ele>26.5</ele>
        <time>2021-05-20T05:47:20Z</time>
      </trkpt>
      <trkpt lat="42.1294880" lon="-8.8095680">
        <ele>26.5</ele>
        <time>2021-05-20T05:47:21Z</time>
      </trkpt>
      <trkpt lat="42.1294990" lon="-8.8095690">
        <ele>26.4</ele>
        <time>2021-05-20T05:47:22Z</time>
      </trkpt>
      <trkpt lat="42.1295290" lon="-8.8095630">
        <ele>26.3</ele>
        <time>2021-05-20T05:47:23Z</time>
      </trkpt>
      <trkpt lat="42.1295370" lon="-8.8095610">
        <ele>26.2</ele>
        <time>2021-05-20T05:47:24Z</time>
      </trkpt>
      <trkpt lat="42.1295530" lon="-8.8095550">
        <ele>26.1</ele>
        <time>2021-05-20T05:47:25Z</time>
      </trkpt>
      <trkpt lat="42.1295690" lon="-8.8095540">
        <ele>26.0</ele>
        <time>2021-05-20T05:47:26Z</time>
      </trkpt>
      <trkpt lat="42.1295810" lon="-8.8095440">
        <ele>26.0</ele>
        <time>2021-05-20T05:47:27Z</time>
      </trkpt>
      <trkpt lat="42.1295880" lon="-8.8095420">
        <ele>25.9</ele>
        <time>2021-05-20T05:47:28Z</time>
      </trkpt>
      <trkpt lat="42.1295970" lon="-8.8095380">
        <ele>25.9</ele>
        <time>2021-05-20T05:47:29Z</time>
      </trkpt>
      <trkpt lat="42.1296070" lon="-8.8095430">
        <ele>25.8</ele>
        <time>2021-05-20T05:47:30Z</time>
      </trkpt>
      <trkpt lat="42.1296190" lon="-8.8095470">
        <ele>25.8</ele>
        <time>2021-05-20T05:47:31Z</time>
      </trkpt>
      <trkpt lat="42.1296260" lon="-8.8095420">
        <ele>25.7</ele>
        <time>2021-05-20T05:47:32Z</time>
      </trkpt>
      <trkpt lat="42.1296420" lon="-8.8095400">
        <ele>25.6</ele>
        <time>2021-05-20T05:47:33Z</time>
      </trkpt>
      <trkpt lat="42.1296620" lon="-8.8095420">
        <ele>25.5</ele>
        <time>2021-05-20T05:47:34Z</time>
      </trkpt>
      <trkpt lat="42.1296740" lon="-8.8095420">
        <ele>25.4</ele>
        <time>2021-05-20T05:47:35Z</time>
      </trkpt>
      <trkpt lat="42.1296940" lon="-8.8095430">
        <ele>25.3</ele>
        <time>2021-05-20T05:47:36Z</time>
      </trkpt>
      <trkpt lat="42.1297090" lon="-8.8095450">
        <ele>25.2</ele>
        <time>2021-05-20T05:47:37Z</time>
      </trkpt>
      <trkpt lat="42.1297240" lon="-8.8095370">
        <ele>25.1</ele>
        <time>2021-05-20T05:47:38Z</time>
      </trkpt>
      <trkpt lat="42.1297360" lon="-8.8095420">
        <ele>25.0</ele>
        <time>2021-05-20T05:47:39Z</time>
      </trkpt>
      <trkpt lat="42.1297440" lon="-8.8095400">
        <ele>25.0</ele>
        <time>2021-05-20T05:47:40Z</time>
      </trkpt>
      <trkpt lat="42.1297520" lon="-8.8095400">
        <ele>24.9</ele>
        <time>2021-05-20T05:47:41Z</time>
      </trkpt>
      <trkpt lat="42.1297760" lon="-8.8095400">
        <ele>24.8</ele>
        <time>2021-05-20T05:47:42Z</time>
      </trkpt>
      <trkpt lat="42.1297860" lon="-8.8095380">
        <ele>24.7</ele>
        <time>2021-05-20T05:47:43Z</time>
      </trkpt>
      <trkpt lat="42.1297960" lon="-8.8095370">
        <ele>24.7</ele>
        <time>2021-05-20T05:47:44Z</time>
      </trkpt>
      <trkpt lat="42.1298070" lon="-8.8095370">
        <ele>24.6</ele>
        <time>2021-05-20T05:47:45Z</time>
      </trkpt>
      <trkpt lat="42.1298260" lon="-8.8095360">
        <ele>24.5</ele>
        <time>2021-05-20T05:47:46Z</time>
      </trkpt>
      <trkpt lat="42.1298490" lon="-8.8095430">
        <ele>24.3</ele>
        <time>2021-05-20T05:47:47Z</time>
      </trkpt>
      <trkpt lat="42.1298590" lon="-8.8095480">
        <ele>24.2</ele>
        <time>2021-05-20T05:47:48Z</time>
      </trkpt>
      <trkpt lat="42.1298700" lon="-8.8095530">
        <ele>24.2</ele>
        <time>2021-05-20T05:47:49Z</time>
      </trkpt>
      <trkpt lat="42.1298740" lon="-8.8095520">
        <ele>24.1</ele>
        <time>2021-05-20T05:47:50Z</time>
      </trkpt>
      <trkpt lat="42.1298770" lon="-8.8095500">
        <ele>24.1</ele>
        <time>2021-05-20T05:47:51Z</time>
      </trkpt>
      <trkpt lat="42.1298820" lon="-8.8095420">
        <ele>24.1</ele>
        <time>2021-05-20T05:47:52Z</time>
      </trkpt>
      <trkpt lat="42.1298830" lon="-8.8095420">
        <ele>24.1</ele>
        <time>2021-05-20T05:47:53Z</time>
      </trkpt>
      <trkpt lat="42.1299040" lon="-8.8095420">
        <ele>23.9</ele>
        <time>2021-05-20T05:47:54Z</time>
      </trkpt>
      <trkpt lat="42.1299310" lon="-8.8095470">
        <ele>23.7</ele>
        <time>2021-05-20T05:47:55Z</time>
      </trkpt>
      <trkpt lat="42.1299410" lon="-8.8095480">
        <ele>23.7</ele>
        <time>2021-05-20T05:47:56Z</time>
      </trkpt>
      <trkpt lat="42.1299650" lon="-8.8095640">
        <ele>23.5</ele>
        <time>2021-05-20T05:47:57Z</time>
      </trkpt>
      <trkpt lat="42.1299750" lon="-8.8095670">
        <ele>23.4</ele>
        <time>2021-05-20T05:47:58Z</time>
      </trkpt>
      <trkpt lat="42.1300100" lon="-8.8095740">
        <ele>23.2</ele>
        <time>2021-05-20T05:47:59Z</time>
      </trkpt>
      <trkpt lat="42.1300180" lon="-8.8095730">
        <ele>23.1</ele>
        <time>2021-05-20T05:48:00Z</time>
      </trkpt>
      <trkpt lat="42.1300330" lon="-8.8095640">
        <ele>23.0</ele>
        <time>2021-05-20T05:48:01Z</time>
      </trkpt>
      <trkpt lat="42.1300430" lon="-8.8095620">
        <ele>22.9</ele>
        <time>2021-05-20T05:48:02Z</time>
      </trkpt>
      <trkpt lat="42.1300530" lon="-8.8095590">
        <ele>22.8</ele>
        <time>2021-05-20T05:48:03Z</time>
      </trkpt>
      <trkpt lat="42.1300750" lon="-8.8095540">
        <ele>22.7</ele>
        <time>2021-05-20T05:48:04Z</time>
      </trkpt>
      <trkpt lat="42.1300810" lon="-8.8095520">
        <ele>22.6</ele>
        <time>2021-05-20T05:48:05Z</time>
      </trkpt>
      <trkpt lat="42.1300880" lon="-8.8095490">
        <ele>22.6</ele>
        <time>2021-05-20T05:48:06Z</time>
      </trkpt>
      <trkpt lat="42.1300940" lon="-8.8095470">
        <ele>22.5</ele>
        <time>2021-05-20T05:48:07Z</time>
      </trkpt>
      <trkpt lat="42.1301150" lon="-8.8095450">
        <ele>22.4</ele>
        <time>2021-05-20T05:48:08Z</time>
      </trkpt>
      <trkpt lat="42.1301240" lon="-8.8095440">
        <ele>22.3</ele>
        <time>2021-05-20T05:48:09Z</time>
      </trkpt>
      <trkpt lat="42.1301330" lon="-8.8095440">
        <ele>22.3</ele>
        <time>2021-05-20T05:48:10Z</time>
      </trkpt>
      <trkpt lat="42.1301440" lon="-8.8095450">
        <ele>22.2</ele>
        <time>2021-05-20T05:48:11Z</time>
      </trkpt>
      <trkpt lat="42.1301480" lon="-8.8095440">
        <ele>22.1</ele>
        <time>2021-05-20T05:48:12Z</time>
      </trkpt>
      <trkpt lat="42.1301670" lon="-8.8095410">
        <ele>22.0</ele>
        <time>2021-05-20T05:48:13Z</time>
      </trkpt>
      <trkpt lat="42.1301710" lon="-8.8095370">
        <ele>22.0</ele>
        <time>2021-05-20T05:48:14Z</time>
      </trkpt>
      <trkpt lat="42.1301700" lon="-8.8095380">
        <ele>22.0</ele>
        <time>2021-05-20T05:48:15Z</time>
      </trkpt>
      <trkpt lat="42.1301740" lon="-8.8095290">
        <ele>21.9</ele>
        <time>2021-05-20T05:48:16Z</time>
      </trkpt>
      <trkpt lat="42.1301910" lon="-8.8095260">
        <ele>21.8</ele>
        <time>2021-05-20T05:48:17Z</time>
      </trkpt>
      <trkpt lat="42.1302000" lon="-8.8095230">
        <ele>21.7</ele>
        <time>2021-05-20T05:48:18Z</time>
      </trkpt>
      <trkpt lat="42.1302080" lon="-8.8095160">
        <ele>21.6</ele>
        <time>2021-05-20T05:48:19Z</time>
      </trkpt>
      <trkpt lat="42.1302150" lon="-8.8095160">
        <ele>21.6</ele>
        <time>2021-05-20T05:48:20Z</time>
      </trkpt>
      <trkpt lat="42.1302220" lon="-8.8095210">
        <ele>21.5</ele>
        <time>2021-05-20T05:48:21Z</time>
      </trkpt>
      <trkpt lat="42.1302290" lon="-8.8095270">
        <ele>21.5</ele>
        <time>2021-05-20T05:48:22Z</time>
      </trkpt>
      <trkpt lat="42.1302270" lon="-8.8095300">
        <ele>21.4</ele>
        <time>2021-05-20T05:48:23Z</time>
      </trkpt>
      <trkpt lat="42.1302410" lon="-8.8095360">
        <ele>21.3</ele>
        <time>2021-05-20T05:48:24Z</time>
      </trkpt>
      <trkpt lat="42.1302570" lon="-8.8095350">
        <ele>21.2</ele>
        <time>2021-05-20T05:48:25Z</time>
      </trkpt>
      <trkpt lat="42.1302850" lon="-8.8095260">
        <ele>21.0</ele>
        <time>2021-05-20T05:48:26Z</time>
      </trkpt>
      <trkpt lat="42.1302940" lon="-8.8095230">
        <ele>20.9</ele>
        <time>2021-05-20T05:48:27Z</time>
      </trkpt>
      <trkpt lat="42.1303280" lon="-8.8095190">
        <ele>20.7</ele>
        <time>2021-05-20T05:48:28Z</time>
      </trkpt>
      <trkpt lat="42.1303390" lon="-8.8095200">
        <ele>20.6</ele>
        <time>2021-05-20T05:48:29Z</time>
      </trkpt>
      <trkpt lat="42.1303560" lon="-8.8095180">
        <ele>20.5</ele>
        <time>2021-05-20T05:48:30Z</time>
      </trkpt>
      <trkpt lat="42.1303700" lon="-8.8095200">
        <ele>20.4</ele>
        <time>2021-05-20T05:48:31Z</time>
      </trkpt>
      <trkpt lat="42.1303850" lon="-8.8095230">
        <ele>20.3</ele>
        <time>2021-05-20T05:48:32Z</time>
      </trkpt>
      <trkpt lat="42.1304050" lon="-8.8095160">
        <ele>20.2</ele>
        <time>2021-05-20T05:48:33Z</time>
      </trkpt>
      <trkpt lat="42.1304190" lon="-8.8095190">
        <ele>20.1</ele>
        <time>2021-05-20T05:48:34Z</time>
      </trkpt>
      <trkpt lat="42.1304370" lon="-8.8095270">
        <ele>19.9</ele>
        <time>2021-05-20T05:48:35Z</time>
      </trkpt>
      <trkpt lat="42.1304570" lon="-8.8095230">
        <ele>19.8</ele>
        <time>2021-05-20T05:48:36Z</time>
      </trkpt>
      <trkpt lat="42.1304730" lon="-8.8095170">
        <ele>19.7</ele>
        <time>2021-05-20T05:48:37Z</time>
      </trkpt>
      <trkpt lat="42.1304930" lon="-8.8095130">
        <ele>19.6</ele>
        <time>2021-05-20T05:48:38Z</time>
      </trkpt>
      <trkpt lat="42.1305020" lon="-8.8095090">
        <ele>19.5</ele>
        <time>2021-05-20T05:48:39Z</time>
      </trkpt>
      <trkpt lat="42.1305110" lon="-8.8095040">
        <ele>19.4</ele>
        <time>2021-05-20T05:48:40Z</time>
      </trkpt>
      <trkpt lat="42.1305250" lon="-8.8094970">
        <ele>19.3</ele>
        <time>2021-05-20T05:48:41Z</time>
      </trkpt>
      <trkpt lat="42.1305410" lon="-8.8094920">
        <ele>19.2</ele>
        <time>2021-05-20T05:48:42Z</time>
      </trkpt>
      <trkpt lat="42.1305510" lon="-8.8094900">
        <ele>19.2</ele>
        <time>2021-05-20T05:48:43Z</time>
      </trkpt>
      <trkpt lat="42.1305710" lon="-8.8094880">
        <ele>19.0</ele>
        <time>2021-05-20T05:48:44Z</time>
      </trkpt>
      <trkpt lat="42.1305960" lon="-8.8094670">
        <ele>18.8</ele>
        <time>2021-05-20T05:48:45Z</time>
      </trkpt>
      <trkpt lat="42.1306080" lon="-8.8094600">
        <ele>18.8</ele>
        <time>2021-05-20T05:48:46Z</time>
      </trkpt>
      <trkpt lat="42.1306230" lon="-8.8094490">
        <ele>18.7</ele>
        <time>2021-05-20T05:48:47Z</time>
      </trkpt>
      <trkpt lat="42.1306380" lon="-8.8094480">
        <ele>18.6</ele>
        <time>2021-05-20T05:48:48Z</time>
      </trkpt>
      <trkpt lat="42.1306560" lon="-8.8094360">
        <ele>18.4</ele>
        <time>2021-05-20T05:48:49Z</time>
      </trkpt>
      <trkpt lat="42.1306650" lon="-8.8094290">
        <ele>18.4</ele>
        <time>2021-05-20T05:48:50Z</time>
      </trkpt>
      <trkpt lat="42.1306730" lon="-8.8094210">
        <ele>18.3</ele>
        <time>2021-05-20T05:48:51Z</time>
      </trkpt>
      <trkpt lat="42.1306820" lon="-8.8094060">
        <ele>18.2</ele>
        <time>2021-05-20T05:48:52Z</time>
      </trkpt>
      <trkpt lat="42.1306990" lon="-8.8093980">
        <ele>18.1</ele>
        <time>2021-05-20T05:48:53Z</time>
      </trkpt>
      <trkpt lat="42.1307160" lon="-8.8093950">
        <ele>18.0</ele>
        <time>2021-05-20T05:48:54Z</time>
      </trkpt>
      <trkpt lat="42.1307320" lon="-8.8093860">
        <ele>17.9</ele>
        <time>2021-05-20T05:48:55Z</time>
      </trkpt>
      <trkpt lat="42.1307450" lon="-8.8093850">
        <ele>17.8</ele>
        <time>2021-05-20T05:48:56Z</time>
      </trkpt>
      <trkpt lat="42.1307610" lon="-8.8093860">
        <ele>17.7</ele>
        <time>2021-05-20T05:48:57Z</time>
      </trkpt>
      <trkpt lat="42.1307730" lon="-8.8093880">
        <ele>17.7</ele>
        <time>2021-05-20T05:48:58Z</time>
      </trkpt>
      <trkpt lat="42.1307900" lon="-8.8093980">
        <ele>17.5</ele>
        <time>2021-05-20T05:48:59Z</time>
      </trkpt>
      <trkpt lat="42.1308040" lon="-8.8094030">
        <ele>17.5</ele>
        <time>2021-05-20T05:49:00Z</time>
      </trkpt>
      <trkpt lat="42.1308060" lon="-8.8094090">
        <ele>17.4</ele>
        <time>2021-05-20T05:49:01Z</time>
      </trkpt>
      <trkpt lat="42.1308140" lon="-8.8094100">
        <ele>17.4</ele>
        <time>2021-05-20T05:49:02Z</time>
      </trkpt>
      <trkpt lat="42.1308250" lon="-8.8094110">
        <ele>17.3</ele>
        <time>2021-05-20T05:49:03Z</time>
      </trkpt>
      <trkpt lat="42.1308400" lon="-8.8094150">
        <ele>17.2</ele>
        <time>2021-05-20T05:49:04Z</time>
      </trkpt>
      <trkpt lat="42.1308520" lon="-8.8094280">
        <ele>17.1</ele>
        <time>2021-05-20T05:49:05Z</time>
      </trkpt>
      <trkpt lat="42.1308730" lon="-8.8094300">
        <ele>17.0</ele>
        <time>2021-05-20T05:49:06Z</time>
      </trkpt>
      <trkpt lat="42.1308820" lon="-8.8094320">
        <ele>16.9</ele>
        <time>2021-05-20T05:49:07Z</time>
      </trkpt>
      <trkpt lat="42.1308910" lon="-8.8094330">
        <ele>16.9</ele>
        <time>2021-05-20T05:49:08Z</time>
      </trkpt>
      <trkpt lat="42.1309140" lon="-8.8094340">
        <ele>16.8</ele>
        <time>2021-05-20T05:49:09Z</time>
      </trkpt>
      <trkpt lat="42.1309230" lon="-8.8094360">
        <ele>16.7</ele>
        <time>2021-05-20T05:49:10Z</time>
      </trkpt>
      <trkpt lat="42.1309310" lon="-8.8094380">
        <ele>16.6</ele>
        <time>2021-05-20T05:49:11Z</time>
      </trkpt>
      <trkpt lat="42.1309450" lon="-8.8094370">
        <ele>16.6</ele>
        <time>2021-05-20T05:49:12Z</time>
      </trkpt>
      <trkpt lat="42.1309540" lon="-8.8094390">
        <ele>16.5</ele>
        <time>2021-05-20T05:49:13Z</time>
      </trkpt>
      <trkpt lat="42.1309630" lon="-8.8094330">
        <ele>16.4</ele>
        <time>2021-05-20T05:49:14Z</time>
      </trkpt>
      <trkpt lat="42.1309940" lon="-8.8094330">
        <ele>16.3</ele>
        <time>2021-05-20T05:49:15Z</time>
      </trkpt>
      <trkpt lat="42.1310030" lon="-8.8094340">
        <ele>16.2</ele>
        <time>2021-05-20T05:49:16Z</time>
      </trkpt>
      <trkpt lat="42.1310210" lon="-8.8094330">
        <ele>16.1</ele>
        <time>2021-05-20T05:49:17Z</time>
      </trkpt>
      <trkpt lat="42.1310330" lon="-8.8094310">
        <ele>16.1</ele>
        <time>2021-05-20T05:49:18Z</time>
      </trkpt>
      <trkpt lat="42.1310460" lon="-8.8094220">
        <ele>16.0</ele>
        <time>2021-05-20T05:49:19Z</time>
      </trkpt>
      <trkpt lat="42.1310560" lon="-8.8094200">
        <ele>15.9</ele>
        <time>2021-05-20T05:49:20Z</time>
      </trkpt>
      <trkpt lat="42.1310630" lon="-8.8094320">
        <ele>15.9</ele>
        <time>2021-05-20T05:49:21Z</time>
      </trkpt>
      <trkpt lat="42.1310760" lon="-8.8094240">
        <ele>15.8</ele>
        <time>2021-05-20T05:49:22Z</time>
      </trkpt>
      <trkpt lat="42.1310820" lon="-8.8094210">
        <ele>15.8</ele>
        <time>2021-05-20T05:49:23Z</time>
      </trkpt>
      <trkpt lat="42.1310980" lon="-8.8094210">
        <ele>15.7</ele>
        <time>2021-05-20T05:49:24Z</time>
      </trkpt>
      <trkpt lat="42.1311170" lon="-8.8094230">
        <ele>15.6</ele>
        <time>2021-05-20T05:49:25Z</time>
      </trkpt>
      <trkpt lat="42.1311270" lon="-8.8094230">
        <ele>15.5</ele>
        <time>2021-05-20T05:49:26Z</time>
      </trkpt>
      <trkpt lat="42.1311480" lon="-8.8094180">
        <ele>15.4</ele>
        <time>2021-05-20T05:49:27Z</time>
      </trkpt>
      <trkpt lat="42.1311560" lon="-8.8094170">
        <ele>15.4</ele>
        <time>2021-05-20T05:49:28Z</time>
      </trkpt>
      <trkpt lat="42.1311650" lon="-8.8094150">
        <ele>15.3</ele>
        <time>2021-05-20T05:49:29Z</time>
      </trkpt>
      <trkpt lat="42.1311770" lon="-8.8094150">
        <ele>15.3</ele>
        <time>2021-05-20T05:49:30Z</time>
      </trkpt>
      <trkpt lat="42.1311950" lon="-8.8094110">
        <ele>15.2</ele>
        <time>2021-05-20T05:49:31Z</time>
      </trkpt>
      <trkpt lat="42.1312090" lon="-8.8093940">
        <ele>15.1</ele>
        <time>2021-05-20T05:49:32Z</time>
      </trkpt>
      <trkpt lat="42.1312280" lon="-8.8093910">
        <ele>15.0</ele>
        <time>2021-05-20T05:49:33Z</time>
      </trkpt>
      <trkpt lat="42.1312470" lon="-8.8093890">
        <ele>14.9</ele>
        <time>2021-05-20T05:49:34Z</time>
      </trkpt>
      <trkpt lat="42.1312570" lon="-8.8093890">
        <ele>14.9</ele>
        <time>2021-05-20T05:49:35Z</time>
      </trkpt>
      <trkpt lat="42.1312680" lon="-8.8093950">
        <ele>14.8</ele>
        <time>2021-05-20T05:49:36Z</time>
      </trkpt>
      <trkpt lat="42.1312850" lon="-8.8093910">
        <ele>14.8</ele>
        <time>2021-05-20T05:49:37Z</time>
      </trkpt>
      <trkpt lat="42.1313020" lon="-8.8093920">
        <ele>14.7</ele>
        <time>2021-05-20T05:49:38Z</time>
      </trkpt>
      <trkpt lat="42.1313120" lon="-8.8093870">
        <ele>14.7</ele>
        <time>2021-05-20T05:49:39Z</time>
      </trkpt>
      <trkpt lat="42.1313240" lon="-8.8093890">
        <ele>14.6</ele>
        <time>2021-05-20T05:49:40Z</time>
      </trkpt>
      <trkpt lat="42.1313310" lon="-8.8093800">
        <ele>14.6</ele>
        <time>2021-05-20T05:49:41Z</time>
      </trkpt>
      <trkpt lat="42.1313420" lon="-8.8093830">
        <ele>14.5</ele>
        <time>2021-05-20T05:49:42Z</time>
      </trkpt>
      <trkpt lat="42.1313600" lon="-8.8093800">
        <ele>14.5</ele>
        <time>2021-05-20T05:49:43Z</time>
      </trkpt>
      <trkpt lat="42.1313690" lon="-8.8093840">
        <ele>14.4</ele>
        <time>2021-05-20T05:49:44Z</time>
      </trkpt>
      <trkpt lat="42.1313710" lon="-8.8093890">
        <ele>14.4</ele>
        <time>2021-05-20T05:49:45Z</time>
      </trkpt>
      <trkpt lat="42.1313940" lon="-8.8094170">
        <ele>14.3</ele>
        <time>2021-05-20T05:49:46Z</time>
      </trkpt>
      <trkpt lat="42.1314010" lon="-8.8094290">
        <ele>14.3</ele>
        <time>2021-05-20T05:49:47Z</time>
      </trkpt>
      <trkpt lat="42.1314110" lon="-8.8094430">
        <ele>14.2</ele>
        <time>2021-05-20T05:49:48Z</time>
      </trkpt>
      <trkpt lat="42.1314190" lon="-8.8094660">
        <ele>14.1</ele>
        <time>2021-05-20T05:49:49Z</time>
      </trkpt>
      <trkpt lat="42.1314300" lon="-8.8094710">
        <ele>14.1</ele>
        <time>2021-05-20T05:49:50Z</time>
      </trkpt>
      <trkpt lat="42.1314420" lon="-8.8094770">
        <ele>14.0</ele>
        <time>2021-05-20T05:49:51Z</time>
      </trkpt>
      <trkpt lat="42.1314540" lon="-8.8094790">
        <ele>14.0</ele>
        <time>2021-05-20T05:49:52Z</time>
      </trkpt>
      <trkpt lat="42.1314650" lon="-8.8094800">
        <ele>14.0</ele>
        <time>2021-05-20T05:49:53Z</time>
      </trkpt>
      <trkpt lat="42.1314820" lon="-8.8094810">
        <ele>13.9</ele>
        <time>2021-05-20T05:49:54Z</time>
      </trkpt>
      <trkpt lat="42.1314860" lon="-8.8094750">
        <ele>13.9</ele>
        <time>2021-05-20T05:49:55Z</time>
      </trkpt>
      <trkpt lat="42.1315000" lon="-8.8094670">
        <ele>13.8</ele>
        <time>2021-05-20T05:49:56Z</time>
      </trkpt>
      <trkpt lat="42.1315100" lon="-8.8094670">
        <ele>13.8</ele>
        <time>2021-05-20T05:49:57Z</time>
      </trkpt>
      <trkpt lat="42.1315160" lon="-8.8094710">
        <ele>13.8</ele>
        <time>2021-05-20T05:49:58Z</time>
      </trkpt>
      <trkpt lat="42.1315280" lon="-8.8094680">
        <ele>13.7</ele>
        <time>2021-05-20T05:49:59Z</time>
      </trkpt>
      <trkpt lat="42.1315370" lon="-8.8094620">
        <ele>13.7</ele>
        <time>2021-05-20T05:50:00Z</time>
      </trkpt>
      <trkpt lat="42.1315630" lon="-8.8094550">
        <ele>13.6</ele>
        <time>2021-05-20T05:50:01Z</time>
      </trkpt>
      <trkpt lat="42.1315730" lon="-8.8094500">
        <ele>13.5</ele>
        <time>2021-05-20T05:50:02Z</time>
      </trkpt>
      <trkpt lat="42.1315930" lon="-8.8094530">
        <ele>13.5</ele>
        <time>2021-05-20T05:50:03Z</time>
      </trkpt>
      <trkpt lat="42.1316090" lon="-8.8094430">
        <ele>13.4</ele>
        <time>2021-05-20T05:50:04Z</time>
      </trkpt>
      <trkpt lat="42.1316240" lon="-8.8094360">
        <ele>13.3</ele>
        <time>2021-05-20T05:50:05Z</time>
      </trkpt>
      <trkpt lat="42.1316400" lon="-8.8094290">
        <ele>13.3</ele>
        <time>2021-05-20T05:50:06Z</time>
      </trkpt>
      <trkpt lat="42.1316580" lon="-8.8094240">
        <ele>13.2</ele>
        <time>2021-05-20T05:50:07Z</time>
      </trkpt>
      <trkpt lat="42.1316700" lon="-8.8094230">
        <ele>13.2</ele>
        <time>2021-05-20T05:50:08Z</time>
      </trkpt>
      <trkpt lat="42.1316870" lon="-8.8094100">
        <ele>13.1</ele>
        <time>2021-05-20T05:50:09Z</time>
      </trkpt>
      <trkpt lat="42.1316990" lon="-8.8094030">
        <ele>13.0</ele>
        <time>2021-05-20T05:50:10Z</time>
      </trkpt>
      <trkpt lat="42.1317090" lon="-8.8093940">
        <ele>13.0</ele>
        <time>2021-05-20T05:50:11Z</time>
      </trkpt>
      <trkpt lat="42.1317230" lon="-8.8093840">
        <ele>12.9</ele>
        <time>2021-05-20T05:50:12Z</time>
      </trkpt>
      <trkpt lat="42.1317330" lon="-8.8093750">
        <ele>12.9</ele>
        <time>2021-05-20T05:50:13Z</time>
      </trkpt>
      <trkpt lat="42.1317490" lon="-8.8093660">
        <ele>12.8</ele>
        <time>2021-05-20T05:50:14Z</time>
      </trkpt>
      <trkpt lat="42.1317580" lon="-8.8093610">
        <ele>12.7</ele>
        <time>2021-05-20T05:50:15Z</time>
      </trkpt>
      <trkpt lat="42.1317750" lon="-8.8093520">
        <ele>12.7</ele>
        <time>2021-05-20T05:50:16Z</time>
      </trkpt>
      <trkpt lat="42.1317800" lon="-8.8093460">
        <ele>12.6</ele>
        <time>2021-05-20T05:50:17Z</time>
      </trkpt>
      <trkpt lat="42.1317940" lon="-8.8093410">
        <ele>12.6</ele>
        <time>2021-05-20T05:50:18Z</time>
      </trkpt>
      <trkpt lat="42.1318060" lon="-8.8093380">
        <ele>12.5</ele>
        <time>2021-05-20T05:50:19Z</time>
      </trkpt>
      <trkpt lat="42.1318180" lon="-8.8093330">
        <ele>12.5</ele>
        <time>2021-05-20T05:50:20Z</time>
      </trkpt>
      <trkpt lat="42.1318340" lon="-8.8093330">
        <ele>12.4</ele>
        <time>2021-05-20T05:50:21Z</time>
      </trkpt>
      <trkpt lat="42.1318530" lon="-8.8093270">
        <ele>12.3</ele>
        <time>2021-05-20T05:50:22Z</time>
      </trkpt>
      <trkpt lat="42.1318650" lon="-8.8093240">
        <ele>12.2</ele>
        <time>2021-05-20T05:50:23Z</time>
      </trkpt>
      <trkpt lat="42.1318770" lon="-8.8093190">
        <ele>12.2</ele>
        <time>2021-05-20T05:50:24Z</time>
      </trkpt>
      <trkpt lat="42.1318920" lon="-8.8093140">
        <ele>12.1</ele>
        <time>2021-05-20T05:50:25Z</time>
      </trkpt>
      <trkpt lat="42.1319130" lon="-8.8093020">
        <ele>12.0</ele>
        <time>2021-05-20T05:50:26Z</time>
      </trkpt>
      <trkpt lat="42.1319230" lon="-8.8092980">
        <ele>11.9</ele>
        <time>2021-05-20T05:50:27Z</time>
      </trkpt>
      <trkpt lat="42.1319320" lon="-8.8092950">
        <ele>11.9</ele>
        <time>2021-05-20T05:50:28Z</time>
      </trkpt>
      <trkpt lat="42.1319500" lon="-8.8092810">
        <ele>11.8</ele>
        <time>2021-05-20T05:50:29Z</time>
      </trkpt>
      <trkpt lat="42.1319570" lon="-8.8092760">
        <ele>11.8</ele>
        <time>2021-05-20T05:50:30Z</time>
      </trkpt>
      <trkpt lat="42.1319650" lon="-8.8092720">
        <ele>11.7</ele>
        <time>2021-05-20T05:50:31Z</time>
      </trkpt>
      <trkpt lat="42.1319720" lon="-8.8092580">
        <ele>11.7</ele>
        <time>2021-05-20T05:50:32Z</time>
      </trkpt>
      <trkpt lat="42.1319870" lon="-8.8092530">
        <ele>11.6</ele>
        <time>2021-05-20T05:50:33Z</time>
      </trkpt>
      <trkpt lat="42.1319940" lon="-8.8092430">
        <ele>11.5</ele>
        <time>2021-05-20T05:50:34Z</time>
      </trkpt>
      <trkpt lat="42.1320000" lon="-8.8092360">
        <ele>11.5</ele>
        <time>2021-05-20T05:50:35Z</time>
      </trkpt>
      <trkpt lat="42.1320030" lon="-8.8092260">
        <ele>11.5</ele>
        <time>2021-05-20T05:50:36Z</time>
      </trkpt>
      <trkpt lat="42.1320190" lon="-8.8092190">
        <ele>11.4</ele>
        <time>2021-05-20T05:50:37Z</time>
      </trkpt>
      <trkpt lat="42.1320310" lon="-8.8092100">
        <ele>11.3</ele>
        <time>2021-05-20T05:50:38Z</time>
      </trkpt>
      <trkpt lat="42.1320500" lon="-8.8091990">
        <ele>11.2</ele>
        <time>2021-05-20T05:50:39Z</time>
      </trkpt>
      <trkpt lat="42.1320700" lon="-8.8091880">
        <ele>11.1</ele>
        <time>2021-05-20T05:50:40Z</time>
      </trkpt>
      <trkpt lat="42.1320770" lon="-8.8091810">
        <ele>11.1</ele>
        <time>2021-05-20T05:50:41Z</time>
      </trkpt>
      <trkpt lat="42.1320840" lon="-8.8091750">
        <ele>11.1</ele>
        <time>2021-05-20T05:50:42Z</time>
      </trkpt>
      <trkpt lat="42.1321040" lon="-8.8091650">
        <ele>11.0</ele>
        <time>2021-05-20T05:50:43Z</time>
      </trkpt>
      <trkpt lat="42.1321130" lon="-8.8091620">
        <ele>10.9</ele>
        <time>2021-05-20T05:50:44Z</time>
      </trkpt>
      <trkpt lat="42.1321230" lon="-8.8091590">
        <ele>10.9</ele>
        <time>2021-05-20T05:50:45Z</time>
      </trkpt>
      <trkpt lat="42.1321400" lon="-8.8091490">
        <ele>10.8</ele>
        <time>2021-05-20T05:50:46Z</time>
      </trkpt>
      <trkpt lat="42.1321490" lon="-8.8091460">
        <ele>10.7</ele>
        <time>2021-05-20T05:50:47Z</time>
      </trkpt>
      <trkpt lat="42.1321570" lon="-8.8091430">
        <ele>10.7</ele>
        <time>2021-05-20T05:50:48Z</time>
      </trkpt>
      <trkpt lat="42.1321690" lon="-8.8091340">
        <ele>10.6</ele>
        <time>2021-05-20T05:50:49Z</time>
      </trkpt>
      <trkpt lat="42.1321830" lon="-8.8091290">
        <ele>10.6</ele>
        <time>2021-05-20T05:50:50Z</time>
      </trkpt>
      <trkpt lat="42.1321970" lon="-8.8091170">
        <ele>10.5</ele>
        <time>2021-05-20T05:50:51Z</time>
      </trkpt>
      <trkpt lat="42.1322070" lon="-8.8091140">
        <ele>10.4</ele>
        <time>2021-05-20T05:50:52Z</time>
      </trkpt>
      <trkpt lat="42.1322170" lon="-8.8091100">
        <ele>10.4</ele>
        <time>2021-05-20T05:50:53Z</time>
      </trkpt>
      <trkpt lat="42.1322290" lon="-8.8091080">
        <ele>10.3</ele>
        <time>2021-05-20T05:50:54Z</time>
      </trkpt>
      <trkpt lat="42.1322460" lon="-8.8090960">
        <ele>10.3</ele>
        <time>2021-05-20T05:50:55Z</time>
      </trkpt>
      <trkpt lat="42.1322680" lon="-8.8090860">
        <ele>10.2</ele>
        <time>2021-05-20T05:50:56Z</time>
      </trkpt>
      <trkpt lat="42.1322760" lon="-8.8090850">
        <ele>10.1</ele>
        <time>2021-05-20T05:50:57Z</time>
      </trkpt>
      <trkpt lat="42.1322830" lon="-8.8090840">
        <ele>10.1</ele>
        <time>2021-05-20T05:50:58Z</time>
      </trkpt>
      <trkpt lat="42.1322910" lon="-8.8090750">
        <ele>10.1</ele>
        <time>2021-05-20T05:50:59Z</time>
      </trkpt>
      <trkpt lat="42.1323130" lon="-8.8090650">
        <ele>10.0</ele>
        <time>2021-05-20T05:51:00Z</time>
      </trkpt>
      <trkpt lat="42.1323260" lon="-8.8090590">
        <ele>9.9</ele>
        <time>2021-05-20T05:51:01Z</time>
      </trkpt>
      <trkpt lat="42.1323410" lon="-8.8090470">
        <ele>9.8</ele>
        <time>2021-05-20T05:51:02Z</time>
      </trkpt>
      <trkpt lat="42.1323560" lon="-8.8090360">
        <ele>9.8</ele>
        <time>2021-05-20T05:51:03Z</time>
      </trkpt>
      <trkpt lat="42.1323670" lon="-8.8090240">
        <ele>9.7</ele>
        <time>2021-05-20T05:51:04Z</time>
      </trkpt>
      <trkpt lat="42.1323900" lon="-8.8090270">
        <ele>9.7</ele>
        <time>2021-05-20T05:51:05Z</time>
      </trkpt>
      <trkpt lat="42.1324000" lon="-8.8090220">
        <ele>9.7</ele>
        <time>2021-05-20T05:51:06Z</time>
      </trkpt>
      <trkpt lat="42.1324210" lon="-8.8090290">
        <ele>9.6</ele>
        <time>2021-05-20T05:51:07Z</time>
      </trkpt>
      <trkpt lat="42.1324320" lon="-8.8090160">
        <ele>9.6</ele>
        <time>2021-05-20T05:51:08Z</time>
      </trkpt>
      <trkpt lat="42.1324500" lon="-8.8090160">
        <ele>9.5</ele>
        <time>2021-05-20T05:51:09Z</time>
      </trkpt>
      <trkpt lat="42.1324630" lon="-8.8090120">
        <ele>9.5</ele>
        <time>2021-05-20T05:51:10Z</time>
      </trkpt>
      <trkpt lat="42.1324760" lon="-8.8090140">
        <ele>9.5</ele>
        <time>2021-05-20T05:51:11Z</time>
      </trkpt>
      <trkpt lat="42.1324850" lon="-8.8090030">
        <ele>9.4</ele>
        <time>2021-05-20T05:51:12Z</time>
      </trkpt>
      <trkpt lat="42.1324940" lon="-8.8089980">
        <ele>9.4</ele>
        <time>2021-05-20T05:51:13Z</time>
      </trkpt>
      <trkpt lat="42.1325030" lon="-8.8089910">
        <ele>9.4</ele>
        <time>2021-05-20T05:51:14Z</time>
      </trkpt>
      <trkpt lat="42.1325180" lon="-8.8089890">
        <ele>9.4</ele>
        <time>2021-05-20T05:51:15Z</time>
      </trkpt>
      <trkpt lat="42.1325250" lon="-8.8089720">
        <ele>9.3</ele>
        <time>2021-05-20T05:51:16Z</time>
      </trkpt>
      <trkpt lat="42.1325400" lon="-8.8089660">
        <ele>9.3</ele>
        <time>2021-05-20T05:51:17Z</time>
      </trkpt>
      <trkpt lat="42.1325590" lon="-8.8089620">
        <ele>9.3</ele>
        <time>2021-05-20T05:51:18Z</time>
      </trkpt>
      <trkpt lat="42.1325740" lon="-8.8089510">
        <ele>9.2</ele>
        <time>2021-05-20T05:51:19Z</time>
      </trkpt>
      <trkpt lat="42.1325910" lon="-8.8089400">
        <ele>9.2</ele>
        <time>2021-05-20T05:51:20Z</time>
      </trkpt>
      <trkpt lat="42.1326090" lon="-8.8089320">
        <ele>9.2</ele>
        <time>2021-05-20T05:51:21Z</time>
      </trkpt>
      <trkpt lat="42.1326200" lon="-8.8089240">
        <ele>9.1</ele>
        <time>2021-05-20T05:51:22Z</time>
      </trkpt>
      <trkpt lat="42.1326250" lon="-8.8089130">
        <ele>9.1</ele>
        <time>2021-05-20T05:51:23Z</time>
      </trkpt>
      <trkpt lat="42.1326360" lon="-8.8089060">
        <ele>9.1</ele>
        <time>2021-05-20T05:51:24Z</time>
      </trkpt>
      <trkpt lat="42.1326440" lon="-8.8089040">
        <ele>9.1</ele>
        <time>2021-05-20T05:51:25Z</time>
      </trkpt>
      <trkpt lat="42.1326460" lon="-8.8088990">
        <ele>9.1</ele>
        <time>2021-05-20T05:51:26Z</time>
      </trkpt>
      <trkpt lat="42.1326470" lon="-8.8088970">
        <ele>9.1</ele>
        <time>2021-05-20T05:51:27Z</time>
      </trkpt>
      <trkpt lat="42.1326560" lon="-8.8088930">
        <ele>9.1</ele>
        <time>2021-05-20T05:51:28Z</time>
      </trkpt>
      <trkpt lat="42.1326580" lon="-8.8088880">
        <ele>9.1</ele>
        <time>2021-05-20T05:51:29Z</time>
      </trkpt>
      <trkpt lat="42.1326570" lon="-8.8088870">
        <ele>9.1</ele>
        <time>2021-05-20T05:51:30Z</time>
      </trkpt>
      <trkpt lat="42.1326610" lon="-8.8088900">
        <ele>9.1</ele>
        <time>2021-05-20T05:51:31Z</time>
      </trkpt>
      <trkpt lat="42.1326760" lon="-8.8088940">
        <ele>9.0</ele>
        <time>2021-05-20T05:51:32Z</time>
      </trkpt>
      <trkpt lat="42.1326890" lon="-8.8088920">
        <ele>9.0</ele>
        <time>2021-05-20T05:51:33Z</time>
      </trkpt>
      <trkpt lat="42.1326980" lon="-8.8088810">
        <ele>9.0</ele>
        <time>2021-05-20T05:51:34Z</time>
      </trkpt>
      <trkpt lat="42.1327010" lon="-8.8088710">
        <ele>9.0</ele>
        <time>2021-05-20T05:51:35Z</time>
      </trkpt>
      <trkpt lat="42.1327150" lon="-8.8088630">
        <ele>9.0</ele>
        <time>2021-05-20T05:51:36Z</time>
      </trkpt>
      <trkpt lat="42.1327300" lon="-8.8088560">
        <ele>8.9</ele>
        <time>2021-05-20T05:51:37Z</time>
      </trkpt>
      <trkpt lat="42.1327390" lon="-8.8088490">
        <ele>8.9</ele>
        <time>2021-05-20T05:51:38Z</time>
      </trkpt>
      <trkpt lat="42.1327540" lon="-8.8088520">
        <ele>8.9</ele>
        <time>2021-05-20T05:51:39Z</time>
      </trkpt>
      <trkpt lat="42.1327600" lon="-8.8088410">
        <ele>8.9</ele>
        <time>2021-05-20T05:51:40Z</time>
      </trkpt>
      <trkpt lat="42.1327610" lon="-8.8088330">
        <ele>8.9</ele>
        <time>2021-05-20T05:51:41Z</time>
      </trkpt>
      <trkpt lat="42.1327640" lon="-8.8088310">
        <ele>8.8</ele>
        <time>2021-05-20T05:51:42Z</time>
      </trkpt>
      <trkpt lat="42.1327680" lon="-8.8088290">
        <ele>8.8</ele>
        <time>2021-05-20T05:51:43Z</time>
      </trkpt>
      <trkpt lat="42.1327710" lon="-8.8088270">
        <ele>8.8</ele>
        <time>2021-05-20T05:51:44Z</time>
      </trkpt>
      <trkpt lat="42.1327740" lon="-8.8088250">
        <ele>8.8</ele>
        <time>2021-05-20T05:51:45Z</time>
      </trkpt>
      <trkpt lat="42.1327770" lon="-8.8088230">
        <ele>8.8</ele>
        <time>2021-05-20T05:51:46Z</time>
      </trkpt>
      <trkpt lat="42.1327800" lon="-8.8088210">
        <ele>8.8</ele>
        <time>2021-05-20T05:51:47Z</time>
      </trkpt>
      <trkpt lat="42.1327830" lon="-8.8088190">
        <ele>8.8</ele>
        <time>2021-05-20T05:51:48Z</time>
      </trkpt>
      <trkpt lat="42.1327870" lon="-8.8088170">
        <ele>8.8</ele>
        <time>2021-05-20T05:51:49Z</time>
      </trkpt>
      <trkpt lat="42.1327900" lon="-8.8088150">
        <ele>8.8</ele>
        <time>2021-05-20T05:51:50Z</time>
      </trkpt>
      <trkpt lat="42.1327930" lon="-8.8088130">
        <ele>8.8</ele>
        <time>2021-05-20T05:51:51Z</time>
      </trkpt>
      <trkpt lat="42.1328140" lon="-8.8088040">
        <ele>8.7</ele>
        <time>2021-05-20T05:51:52Z</time>
      </trkpt>
      <trkpt lat="42.1328280" lon="-8.8088080">
        <ele>8.7</ele>
        <time>2021-05-20T05:51:53Z</time>
      </trkpt>
      <trkpt lat="42.1328390" lon="-8.8088020">
        <ele>8.6</ele>
        <time>2021-05-20T05:51:54Z</time>
      </trkpt>
      <trkpt lat="42.1328440" lon="-8.8088000">
        <ele>8.6</ele>
        <time>2021-05-20T05:51:55Z</time>
      </trkpt>
      <trkpt lat="42.1328590" lon="-8.8087940">
        <ele>8.6</ele>
        <time>2021-05-20T05:51:56Z</time>
      </trkpt>
      <trkpt lat="42.1328610" lon="-8.8087830">
        <ele>8.5</ele>
        <time>2021-05-20T05:51:57Z</time>
      </trkpt>
      <trkpt lat="42.1328730" lon="-8.8087840">
        <ele>8.5</ele>
        <time>2021-05-20T05:51:58Z</time>
      </trkpt>
      <trkpt lat="42.1328840" lon="-8.8087800">
        <ele>8.5</ele>
        <time>2021-05-20T05:51:59Z</time>
      </trkpt>
      <trkpt lat="42.1328880" lon="-8.8087740">
        <ele>8.4</ele>
        <time>2021-05-20T05:52:00Z</time>
      </trkpt>
      <trkpt lat="42.1329030" lon="-8.8087700">
        <ele>8.4</ele>
        <time>2021-05-20T05:52:01Z</time>
      </trkpt>
      <trkpt lat="42.1329080" lon="-8.8087610">
        <ele>8.4</ele>
        <time>2021-05-20T05:52:02Z</time>
      </trkpt>
      <trkpt lat="42.1329210" lon="-8.8087610">
        <ele>8.3</ele>
        <time>2021-05-20T05:52:03Z</time>
      </trkpt>
      <trkpt lat="42.1329330" lon="-8.8087600">
        <ele>8.3</ele>
        <time>2021-05-20T05:52:04Z</time>
      </trkpt>
      <trkpt lat="42.1329550" lon="-8.8087540">
        <ele>8.3</ele>
        <time>2021-05-20T05:52:05Z</time>
      </trkpt>
      <trkpt lat="42.1329720" lon="-8.8087460">
        <ele>8.2</ele>
        <time>2021-05-20T05:52:06Z</time>
      </trkpt>
      <trkpt lat="42.1329790" lon="-8.8087370">
        <ele>8.2</ele>
        <time>2021-05-20T05:52:07Z</time>
      </trkpt>
      <trkpt lat="42.1329870" lon="-8.8087290">
        <ele>8.2</ele>
        <time>2021-05-20T05:52:08Z</time>
      </trkpt>
      <trkpt lat="42.1330000" lon="-8.8087240">
        <ele>8.1</ele>
        <time>2021-05-20T05:52:09Z</time>
      </trkpt>
      <trkpt lat="42.1330090" lon="-8.8087200">
        <ele>8.1</ele>
        <time>2021-05-20T05:52:10Z</time>
      </trkpt>
      <trkpt lat="42.1330190" lon="-8.8087190">
        <ele>8.1</ele>
        <time>2021-05-20T05:52:11Z</time>
      </trkpt>
      <trkpt lat="42.1330280" lon="-8.8087180">
        <ele>8.1</ele>
        <time>2021-05-20T05:52:12Z</time>
      </trkpt>
      <trkpt lat="42.1330430" lon="-8.8087260">
        <ele>8.0</ele>
        <time>2021-05-20T05:52:13Z</time>
      </trkpt>
      <trkpt lat="42.1330610" lon="-8.8087200">
        <ele>8.0</ele>
        <time>2021-05-20T05:52:14Z</time>
      </trkpt>
      <trkpt lat="42.1330760" lon="-8.8087160">
        <ele>8.0</ele>
        <time>2021-05-20T05:52:15Z</time>
      </trkpt>
      <trkpt lat="42.1330900" lon="-8.8087120">
        <ele>8.0</ele>
        <time>2021-05-20T05:52:16Z</time>
      </trkpt>
      <trkpt lat="42.1331030" lon="-8.8087120">
        <ele>7.9</ele>
        <time>2021-05-20T05:52:17Z</time>
      </trkpt>
      <trkpt lat="42.1331170" lon="-8.8087070">
        <ele>7.9</ele>
        <time>2021-05-20T05:52:18Z</time>
      </trkpt>
      <trkpt lat="42.1331320" lon="-8.8087080">
        <ele>7.9</ele>
        <time>2021-05-20T05:52:19Z</time>
      </trkpt>
      <trkpt lat="42.1331540" lon="-8.8087100">
        <ele>7.8</ele>
        <time>2021-05-20T05:52:20Z</time>
      </trkpt>
      <trkpt lat="42.1331620" lon="-8.8087130">
        <ele>7.8</ele>
        <time>2021-05-20T05:52:21Z</time>
      </trkpt>
      <trkpt lat="42.1331710" lon="-8.8087150">
        <ele>7.8</ele>
        <time>2021-05-20T05:52:22Z</time>
      </trkpt>
      <trkpt lat="42.1331940" lon="-8.8087170">
        <ele>7.8</ele>
        <time>2021-05-20T05:52:23Z</time>
      </trkpt>
      <trkpt lat="42.1332040" lon="-8.8087180">
        <ele>7.7</ele>
        <time>2021-05-20T05:52:24Z</time>
      </trkpt>
      <trkpt lat="42.1332150" lon="-8.8087180">
        <ele>7.7</ele>
        <time>2021-05-20T05:52:25Z</time>
      </trkpt>
      <trkpt lat="42.1332240" lon="-8.8087190">
        <ele>7.7</ele>
        <time>2021-05-20T05:52:26Z</time>
      </trkpt>
      <trkpt lat="42.1332340" lon="-8.8087160">
        <ele>7.6</ele>
        <time>2021-05-20T05:52:27Z</time>
      </trkpt>
      <trkpt lat="42.1332420" lon="-8.8087140">
        <ele>7.6</ele>
        <time>2021-05-20T05:52:28Z</time>
      </trkpt>
      <trkpt lat="42.1332480" lon="-8.8087140">
        <ele>7.6</ele>
        <time>2021-05-20T05:52:29Z</time>
      </trkpt>
      <trkpt lat="42.1332490" lon="-8.8087150">
        <ele>7.6</ele>
        <time>2021-05-20T05:52:30Z</time>
      </trkpt>
      <trkpt lat="42.1332450" lon="-8.8087140">
        <ele>7.6</ele>
        <time>2021-05-20T05:52:31Z</time>
      </trkpt>
      <trkpt lat="42.1332430" lon="-8.8087120">
        <ele>7.6</ele>
        <time>2021-05-20T05:52:32Z</time>
      </trkpt>
      <trkpt lat="42.1332400" lon="-8.8087090">
        <ele>7.6</ele>
        <time>2021-05-20T05:52:33Z</time>
      </trkpt>
      <trkpt lat="42.1332390" lon="-8.8087090">
        <ele>7.6</ele>
        <time>2021-05-20T05:52:34Z</time>
      </trkpt>
      <trkpt lat="42.1332400" lon="-8.8087090">
        <ele>7.6</ele>
        <time>2021-05-20T05:52:35Z</time>
      </trkpt>
      <trkpt lat="42.1332370" lon="-8.8087070">
        <ele>7.6</ele>
        <time>2021-05-20T05:52:36Z</time>
      </trkpt>
      <trkpt lat="42.1332360" lon="-8.8087090">
        <ele>7.6</ele>
        <time>2021-05-20T05:52:37Z</time>
      </trkpt>
      <trkpt lat="42.1332370" lon="-8.8087100">
        <ele>7.6</ele>
        <time>2021-05-20T05:52:38Z</time>
      </trkpt>
      <trkpt lat="42.1332360" lon="-8.8087090">
        <ele>7.6</ele>
        <time>2021-05-20T05:52:39Z</time>
      </trkpt>
      <trkpt lat="42.1332350" lon="-8.8087080">
        <ele>7.6</ele>
        <time>2021-05-20T05:52:40Z</time>
      </trkpt>
      <trkpt lat="42.1332340" lon="-8.8087080">
        <ele>7.6</ele>
        <time>2021-05-20T05:52:41Z</time>
      </trkpt>
      <trkpt lat="42.1332360" lon="-8.8087070">
        <ele>7.6</ele>
        <time>2021-05-20T05:52:42Z</time>
      </trkpt>
      <trkpt lat="42.1332340" lon="-8.8087060">
        <ele>7.6</ele>
        <time>2021-05-20T05:52:43Z</time>
      </trkpt>
      <trkpt lat="42.1332340" lon="-8.8087050">
        <ele>7.6</ele>
        <time>2021-05-20T05:52:44Z</time>
      </trkpt>
      <trkpt lat="42.1332330" lon="-8.8087060">
        <ele>7.6</ele>
        <time>2021-05-20T05:52:45Z</time>
      </trkpt>
      <trkpt lat="42.1332330" lon="-8.8087050">
        <ele>7.6</ele>
        <time>2021-05-20T05:52:46Z</time>
      </trkpt>
      <trkpt lat="42.1332320" lon="-8.8087050">
        <ele>7.6</ele>
        <time>2021-05-20T05:52:47Z</time>
      </trkpt>
      <trkpt lat="42.1332310" lon="-8.8087060">
        <ele>7.6</ele>
        <time>2021-05-20T05:52:48Z</time>
      </trkpt>
      <trkpt lat="42.1332300" lon="-8.8087050">
        <ele>7.6</ele>
        <time>2021-05-20T05:52:49Z</time>
      </trkpt>
      <trkpt lat="42.1332300" lon="-8.8087040">
        <ele>7.6</ele>
        <time>2021-05-20T05:52:50Z</time>
      </trkpt>
      <trkpt lat="42.1332290" lon="-8.8087030">
        <ele>7.6</ele>
        <time>2021-05-20T05:52:51Z</time>
      </trkpt>
      <trkpt lat="42.1332280" lon="-8.8087040">
        <ele>7.6</ele>
        <time>2021-05-20T05:52:52Z</time>
      </trkpt>
      <trkpt lat="42.1332320" lon="-8.8087020">
        <ele>7.6</ele>
        <time>2021-05-20T05:52:53Z</time>
      </trkpt>
      <trkpt lat="42.1332410" lon="-8.8086990">
        <ele>7.6</ele>
        <time>2021-05-20T05:52:54Z</time>
      </trkpt>
      <trkpt lat="42.1332470" lon="-8.8087030">
        <ele>7.6</ele>
        <time>2021-05-20T05:52:55Z</time>
      </trkpt>
      <trkpt lat="42.1332630" lon="-8.8087070">
        <ele>7.6</ele>
        <time>2021-05-20T05:52:56Z</time>
      </trkpt>
      <trkpt lat="42.1332740" lon="-8.8087100">
        <ele>7.6</ele>
        <time>2021-05-20T05:52:57Z</time>
      </trkpt>
      <trkpt lat="42.1332880" lon="-8.8087170">
        <ele>7.6</ele>
        <time>2021-05-20T05:52:58Z</time>
      </trkpt>
      <trkpt lat="42.1333020" lon="-8.8087200">
        <ele>7.6</ele>
        <time>2021-05-20T05:52:59Z</time>
      </trkpt>
      <trkpt lat="42.1333130" lon="-8.8087290">
        <ele>7.6</ele>
        <time>2021-05-20T05:53:00Z</time>
      </trkpt>
      <trkpt lat="42.1333240" lon="-8.8087380">
        <ele>7.6</ele>
        <time>2021-05-20T05:53:01Z</time>
      </trkpt>
      <trkpt lat="42.1333330" lon="-8.8087450">
        <ele>7.6</ele>
        <time>2021-05-20T05:53:02Z</time>
      </trkpt>
      <trkpt lat="42.1333480" lon="-8.8087600">
        <ele>7.6</ele>
        <time>2021-05-20T05:53:03Z</time>
      </trkpt>
      <trkpt lat="42.1333610" lon="-8.8087720">
        <ele>7.6</ele>
        <time>2021-05-20T05:53:04Z</time>
      </trkpt>
      <trkpt lat="42.1333650" lon="-8.8087780">
        <ele>7.6</ele>
        <time>2021-05-20T05:53:05Z</time>
      </trkpt>
      <trkpt lat="42.1333740" lon="-8.8087900">
        <ele>7.6</ele>
        <time>2021-05-20T05:53:06Z</time>
      </trkpt>
      <trkpt lat="42.1333840" lon="-8.8087960">
        <ele>7.6</ele>
        <time>2021-05-20T05:53:07Z</time>
      </trkpt>
      <trkpt lat="42.1333940" lon="-8.8088070">
        <ele>7.6</ele>
        <time>2021-05-20T05:53:08Z</time>
      </trkpt>
      <trkpt lat="42.1334040" lon="-8.8088130">
        <ele>7.6</ele>
        <time>2021-05-20T05:53:09Z</time>
      </trkpt>
      <trkpt lat="42.1334130" lon="-8.8088180">
        <ele>7.6</ele>
        <time>2021-05-20T05:53:10Z</time>
      </trkpt>
      <trkpt lat="42.1334230" lon="-8.8088240">
        <ele>7.6</ele>
        <time>2021-05-20T05:53:11Z</time>
      </trkpt>
      <trkpt lat="42.1334310" lon="-8.8088350">
        <ele>7.6</ele>
        <time>2021-05-20T05:53:12Z</time>
      </trkpt>
      <trkpt lat="42.1334390" lon="-8.8088460">
        <ele>7.6</ele>
        <time>2021-05-20T05:53:13Z</time>
      </trkpt>
      <trkpt lat="42.1334520" lon="-8.8088560">
        <ele>7.6</ele>
        <time>2021-05-20T05:53:14Z</time>
      </trkpt>
      <trkpt lat="42.1334560" lon="-8.8088640">
        <ele>7.6</ele>
        <time>2021-05-20T05:53:15Z</time>
      </trkpt>
      <trkpt lat="42.1334610" lon="-8.8088730">
        <ele>7.6</ele>
        <time>2021-05-20T05:53:16Z</time>
      </trkpt>
      <trkpt lat="42.1334650" lon="-8.8088810">
        <ele>7.6</ele>
        <time>2021-05-20T05:53:17Z</time>
      </trkpt>
      <trkpt lat="42.1334720" lon="-8.8089030">
        <ele>7.6</ele>
        <time>2021-05-20T05:53:18Z</time>
      </trkpt>
      <trkpt lat="42.1334790" lon="-8.8089190">
        <ele>7.6</ele>
        <time>2021-05-20T05:53:19Z</time>
      </trkpt>
      <trkpt lat="42.1334860" lon="-8.8089340">
        <ele>7.6</ele>
        <time>2021-05-20T05:53:20Z</time>
      </trkpt>
      <trkpt lat="42.1334900" lon="-8.8089390">
        <ele>7.6</ele>
        <time>2021-05-20T05:53:21Z</time>
      </trkpt>
      <trkpt lat="42.1334990" lon="-8.8089550">
        <ele>7.6</ele>
        <time>2021-05-20T05:53:22Z</time>
      </trkpt>
      <trkpt lat="42.1335070" lon="-8.8089660">
        <ele>7.6</ele>
        <time>2021-05-20T05:53:23Z</time>
      </trkpt>
      <trkpt lat="42.1335130" lon="-8.8089840">
        <ele>7.6</ele>
        <time>2021-05-20T05:53:24Z</time>
      </trkpt>
      <trkpt lat="42.1335200" lon="-8.8089940">
        <ele>7.6</ele>
        <time>2021-05-20T05:53:25Z</time>
      </trkpt>
      <trkpt lat="42.1335330" lon="-8.8089980">
        <ele>7.6</ele>
        <time>2021-05-20T05:53:26Z</time>
      </trkpt>
      <trkpt lat="42.1335470" lon="-8.8090070">
        <ele>7.6</ele>
        <time>2021-05-20T05:53:27Z</time>
      </trkpt>
      <trkpt lat="42.1335630" lon="-8.8090100">
        <ele>7.6</ele>
        <time>2021-05-20T05:53:28Z</time>
      </trkpt>
      <trkpt lat="42.1335800" lon="-8.8090150">
        <ele>7.6</ele>
        <time>2021-05-20T05:53:29Z</time>
      </trkpt>
      <trkpt lat="42.1335930" lon="-8.8090140">
        <ele>7.6</ele>
        <time>2021-05-20T05:53:30Z</time>
      </trkpt>
      <trkpt lat="42.1336090" lon="-8.8090190">
        <ele>7.6</ele>
        <time>2021-05-20T05:53:31Z</time>
      </trkpt>
      <trkpt lat="42.1336240" lon="-8.8090190">
        <ele>7.6</ele>
        <time>2021-05-20T05:53:32Z</time>
      </trkpt>
      <trkpt lat="42.1336420" lon="-8.8090160">
        <ele>7.5</ele>
        <time>2021-05-20T05:53:33Z</time>
      </trkpt>
      <trkpt lat="42.1336580" lon="-8.8090100">
        <ele>7.5</ele>
        <time>2021-05-20T05:53:34Z</time>
      </trkpt>
      <trkpt lat="42.1336780" lon="-8.8090020">
        <ele>7.4</ele>
        <time>2021-05-20T05:53:35Z</time>
      </trkpt>
      <trkpt lat="42.1336870" lon="-8.8089990">
        <ele>7.4</ele>
        <time>2021-05-20T05:53:36Z</time>
      </trkpt>
      <trkpt lat="42.1336970" lon="-8.8089960">
        <ele>7.4</ele>
        <time>2021-05-20T05:53:37Z</time>
      </trkpt>
      <trkpt lat="42.1337110" lon="-8.8089850">
        <ele>7.3</ele>
        <time>2021-05-20T05:53:38Z</time>
      </trkpt>
      <trkpt lat="42.1337270" lon="-8.8089810">
        <ele>7.3</ele>
        <time>2021-05-20T05:53:39Z</time>
      </trkpt>
      <trkpt lat="42.1337420" lon="-8.8089720">
        <ele>7.3</ele>
        <time>2021-05-20T05:53:40Z</time>
      </trkpt>
      <trkpt lat="42.1337540" lon="-8.8089620">
        <ele>7.3</ele>
        <time>2021-05-20T05:53:41Z</time>
      </trkpt>
      <trkpt lat="42.1337640" lon="-8.8089550">
        <ele>7.4</ele>
        <time>2021-05-20T05:53:42Z</time>
      </trkpt>
      <trkpt lat="42.1337720" lon="-8.8089390">
        <ele>7.4</ele>
        <time>2021-05-20T05:53:43Z</time>
      </trkpt>
      <trkpt lat="42.1337780" lon="-8.8089260">
        <ele>7.4</ele>
        <time>2021-05-20T05:53:44Z</time>
      </trkpt>
      <trkpt lat="42.1337810" lon="-8.8089050">
        <ele>7.4</ele>
        <time>2021-05-20T05:53:45Z</time>
      </trkpt>
      <trkpt lat="42.1337790" lon="-8.8088850">
        <ele>7.4</ele>
        <time>2021-05-20T05:53:46Z</time>
      </trkpt>
      <trkpt lat="42.1337710" lon="-8.8088640">
        <ele>7.4</ele>
        <time>2021-05-20T05:53:47Z</time>
      </trkpt>
      <trkpt lat="42.1337630" lon="-8.8088510">
        <ele>7.4</ele>
        <time>2021-05-20T05:53:48Z</time>
      </trkpt>
      <trkpt lat="42.1337570" lon="-8.8088250">
        <ele>7.5</ele>
        <time>2021-05-20T05:53:49Z</time>
      </trkpt>
      <trkpt lat="42.1337550" lon="-8.8088150">
        <ele>7.5</ele>
        <time>2021-05-20T05:53:50Z</time>
      </trkpt>
      <trkpt lat="42.1337520" lon="-8.8088040">
        <ele>7.5</ele>
        <time>2021-05-20T05:53:51Z</time>
      </trkpt>
      <trkpt lat="42.1337480" lon="-8.8087820">
        <ele>7.5</ele>
        <time>2021-05-20T05:53:52Z</time>
      </trkpt>
      <trkpt lat="42.1337490" lon="-8.8087620">
        <ele>7.5</ele>
        <time>2021-05-20T05:53:53Z</time>
      </trkpt>
      <trkpt lat="42.1337500" lon="-8.8087440">
        <ele>7.5</ele>
        <time>2021-05-20T05:53:54Z</time>
      </trkpt>
      <trkpt lat="42.1337520" lon="-8.8087200">
        <ele>7.5</ele>
        <time>2021-05-20T05:53:55Z</time>
      </trkpt>
      <trkpt lat="42.1337540" lon="-8.8087070">
        <ele>7.5</ele>
        <time>2021-05-20T05:53:56Z</time>
      </trkpt>
      <trkpt lat="42.1337540" lon="-8.8086990">
        <ele>7.6</ele>
        <time>2021-05-20T05:53:57Z</time>
      </trkpt>
      <trkpt lat="42.1337560" lon="-8.8086820">
        <ele>7.6</ele>
        <time>2021-05-20T05:53:58Z</time>
      </trkpt>
      <trkpt lat="42.1337620" lon="-8.8086600">
        <ele>7.6</ele>
        <time>2021-05-20T05:53:59Z</time>
      </trkpt>
      <trkpt lat="42.1337670" lon="-8.8086400">
        <ele>7.6</ele>
        <time>2021-05-20T05:54:00Z</time>
      </trkpt>
      <trkpt lat="42.1337750" lon="-8.8086120">
        <ele>7.6</ele>
        <time>2021-05-20T05:54:01Z</time>
      </trkpt>
      <trkpt lat="42.1337800" lon="-8.8086010">
        <ele>7.6</ele>
        <time>2021-05-20T05:54:02Z</time>
      </trkpt>
      <trkpt lat="42.1337840" lon="-8.8085890">
        <ele>7.7</ele>
        <time>2021-05-20T05:54:03Z</time>
      </trkpt>
      <trkpt lat="42.1338010" lon="-8.8085700">
        <ele>7.7</ele>
        <time>2021-05-20T05:54:04Z</time>
      </trkpt>
      <trkpt lat="42.1338060" lon="-8.8085610">
        <ele>7.7</ele>
        <time>2021-05-20T05:54:05Z</time>
      </trkpt>
      <trkpt lat="42.1338120" lon="-8.8085520">
        <ele>7.7</ele>
        <time>2021-05-20T05:54:06Z</time>
      </trkpt>
      <trkpt lat="42.1338230" lon="-8.8085360">
        <ele>7.7</ele>
        <time>2021-05-20T05:54:07Z</time>
      </trkpt>
      <trkpt lat="42.1338370" lon="-8.8085170">
        <ele>7.7</ele>
        <time>2021-05-20T05:54:08Z</time>
      </trkpt>
      <trkpt lat="42.1338460" lon="-8.8084930">
        <ele>7.8</ele>
        <time>2021-05-20T05:54:09Z</time>
      </trkpt>
      <trkpt lat="42.1338520" lon="-8.8084820">
        <ele>7.8</ele>
        <time>2021-05-20T05:54:10Z</time>
      </trkpt>
      <trkpt lat="42.1338580" lon="-8.8084710">
        <ele>7.8</ele>
        <time>2021-05-20T05:54:11Z</time>
      </trkpt>
      <trkpt lat="42.1338710" lon="-8.8084460">
        <ele>7.8</ele>
        <time>2021-05-20T05:54:12Z</time>
      </trkpt>
      <trkpt lat="42.1338750" lon="-8.8084350">
        <ele>7.8</ele>
        <time>2021-05-20T05:54:13Z</time>
      </trkpt>
      <trkpt lat="42.1338780" lon="-8.8084250">
        <ele>7.8</ele>
        <time>2021-05-20T05:54:14Z</time>
      </trkpt>
      <trkpt lat="42.1338840" lon="-8.8084150">
        <ele>7.8</ele>
        <time>2021-05-20T05:54:15Z</time>
      </trkpt>
      <trkpt lat="42.1338880" lon="-8.8084010">
        <ele>7.9</ele>
        <time>2021-05-20T05:54:16Z</time>
      </trkpt>
      <trkpt lat="42.1338990" lon="-8.8083890">
        <ele>7.9</ele>
        <time>2021-05-20T05:54:17Z</time>
      </trkpt>
      <trkpt lat="42.1339070" lon="-8.8083750">
        <ele>7.9</ele>
        <time>2021-05-20T05:54:18Z</time>
      </trkpt>
      <trkpt lat="42.1339110" lon="-8.8083720">
        <ele>7.9</ele>
        <time>2021-05-20T05:54:19Z</time>
      </trkpt>
      <trkpt lat="42.1339190" lon="-8.8083530">
        <ele>7.9</ele>
        <time>2021-05-20T05:54:20Z</time>
      </trkpt>
      <trkpt lat="42.1339310" lon="-8.8083450">
        <ele>7.9</ele>
        <time>2021-05-20T05:54:21Z</time>
      </trkpt>
      <trkpt lat="42.1339450" lon="-8.8083280">
        <ele>7.9</ele>
        <time>2021-05-20T05:54:22Z</time>
      </trkpt>
      <trkpt lat="42.1339630" lon="-8.8083230">
        <ele>7.9</ele>
        <time>2021-05-20T05:54:23Z</time>
      </trkpt>
      <trkpt lat="42.1339720" lon="-8.8083150">
        <ele>7.9</ele>
        <time>2021-05-20T05:54:24Z</time>
      </trkpt>
      <trkpt lat="42.1339910" lon="-8.8083070">
        <ele>7.9</ele>
        <time>2021-05-20T05:54:25Z</time>
      </trkpt>
      <trkpt lat="42.1340010" lon="-8.8083020">
        <ele>7.9</ele>
        <time>2021-05-20T05:54:26Z</time>
      </trkpt>
      <trkpt lat="42.1340110" lon="-8.8082960">
        <ele>7.9</ele>
        <time>2021-05-20T05:54:27Z</time>
      </trkpt>
      <trkpt lat="42.1340240" lon="-8.8082890">
        <ele>7.9</ele>
        <time>2021-05-20T05:54:28Z</time>
      </trkpt>
      <trkpt lat="42.1340380" lon="-8.8082800">
        <ele>7.9</ele>
        <time>2021-05-20T05:54:29Z</time>
      </trkpt>
      <trkpt lat="42.1340550" lon="-8.8082800">
        <ele>8.0</ele>
        <time>2021-05-20T05:54:30Z</time>
      </trkpt>
      <trkpt lat="42.1340660" lon="-8.8082790">
        <ele>8.0</ele>
        <time>2021-05-20T05:54:31Z</time>
      </trkpt>
      <trkpt lat="42.1340760" lon="-8.8082780">
        <ele>8.0</ele>
        <time>2021-05-20T05:54:32Z</time>
      </trkpt>
      <trkpt lat="42.1340900" lon="-8.8082780">
        <ele>8.0</ele>
        <time>2021-05-20T05:54:33Z</time>
      </trkpt>
      <trkpt lat="42.1341040" lon="-8.8082690">
        <ele>8.0</ele>
        <time>2021-05-20T05:54:34Z</time>
      </trkpt>
      <trkpt lat="42.1341090" lon="-8.8082640">
        <ele>8.0</ele>
        <time>2021-05-20T05:54:35Z</time>
      </trkpt>
      <trkpt lat="42.1341220" lon="-8.8082620">
        <ele>8.0</ele>
        <time>2021-05-20T05:54:36Z</time>
      </trkpt>
      <trkpt lat="42.1341340" lon="-8.8082470">
        <ele>8.0</ele>
        <time>2021-05-20T05:54:37Z</time>
      </trkpt>
      <trkpt lat="42.1341400" lon="-8.8082240">
        <ele>8.0</ele>
        <time>2021-05-20T05:54:38Z</time>
      </trkpt>
      <trkpt lat="42.1341500" lon="-8.8082050">
        <ele>8.0</ele>
        <time>2021-05-20T05:54:39Z</time>
      </trkpt>
      <trkpt lat="42.1341580" lon="-8.8081900">
        <ele>8.0</ele>
        <time>2021-05-20T05:54:40Z</time>
      </trkpt>
      <trkpt lat="42.1341670" lon="-8.8081740">
        <ele>8.0</ele>
        <time>2021-05-20T05:54:41Z</time>
      </trkpt>
      <trkpt lat="42.1341860" lon="-8.8081580">
        <ele>8.0</ele>
        <time>2021-05-20T05:54:42Z</time>
      </trkpt>
      <trkpt lat="42.1341960" lon="-8.8081550">
        <ele>8.0</ele>
        <time>2021-05-20T05:54:43Z</time>
      </trkpt>
      <trkpt lat="42.1342060" lon="-8.8081510">
        <ele>8.0</ele>
        <time>2021-05-20T05:54:44Z</time>
      </trkpt>
      <trkpt lat="42.1342200" lon="-8.8081400">
        <ele>8.0</ele>
        <time>2021-05-20T05:54:45Z</time>
      </trkpt>
      <trkpt lat="42.1342320" lon="-8.8081390">
        <ele>8.1</ele>
        <time>2021-05-20T05:54:46Z</time>
      </trkpt>
      <trkpt lat="42.1342570" lon="-8.8081360">
        <ele>8.1</ele>
        <time>2021-05-20T05:54:47Z</time>
      </trkpt>
      <trkpt lat="42.1342670" lon="-8.8081320">
        <ele>8.1</ele>
        <time>2021-05-20T05:54:48Z</time>
      </trkpt>
      <trkpt lat="42.1342760" lon="-8.8081290">
        <ele>8.1</ele>
        <time>2021-05-20T05:54:49Z</time>
      </trkpt>
      <trkpt lat="42.1342990" lon="-8.8081290">
        <ele>8.2</ele>
        <time>2021-05-20T05:54:50Z</time>
      </trkpt>
      <trkpt lat="42.1343100" lon="-8.8081280">
        <ele>8.2</ele>
        <time>2021-05-20T05:54:51Z</time>
      </trkpt>
      <trkpt lat="42.1343200" lon="-8.8081280">
        <ele>8.2</ele>
        <time>2021-05-20T05:54:52Z</time>
      </trkpt>
      <trkpt lat="42.1343410" lon="-8.8081300">
        <ele>8.3</ele>
        <time>2021-05-20T05:54:53Z</time>
      </trkpt>
      <trkpt lat="42.1343500" lon="-8.8081310">
        <ele>8.3</ele>
        <time>2021-05-20T05:54:54Z</time>
      </trkpt>
      <trkpt lat="42.1343600" lon="-8.8081320">
        <ele>8.3</ele>
        <time>2021-05-20T05:54:55Z</time>
      </trkpt>
      <trkpt lat="42.1343820" lon="-8.8081240">
        <ele>8.3</ele>
        <time>2021-05-20T05:54:56Z</time>
      </trkpt>
      <trkpt lat="42.1343920" lon="-8.8081220">
        <ele>8.4</ele>
        <time>2021-05-20T05:54:57Z</time>
      </trkpt>
      <trkpt lat="42.1344010" lon="-8.8081210">
        <ele>8.4</ele>
        <time>2021-05-20T05:54:58Z</time>
      </trkpt>
      <trkpt lat="42.1344000" lon="-8.8081190">
        <ele>8.4</ele>
        <time>2021-05-20T05:54:59Z</time>
      </trkpt>
      <trkpt lat="42.1344090" lon="-8.8081160">
        <ele>8.4</ele>
        <time>2021-05-20T05:55:00Z</time>
      </trkpt>
      <trkpt lat="42.1344180" lon="-8.8081130">
        <ele>8.4</ele>
        <time>2021-05-20T05:55:01Z</time>
      </trkpt>
      <trkpt lat="42.1344340" lon="-8.8081170">
        <ele>8.4</ele>
        <time>2021-05-20T05:55:02Z</time>
      </trkpt>
      <trkpt lat="42.1344450" lon="-8.8081100">
        <ele>8.5</ele>
        <time>2021-05-20T05:55:03Z</time>
      </trkpt>
      <trkpt lat="42.1344590" lon="-8.8081060">
        <ele>8.5</ele>
        <time>2021-05-20T05:55:04Z</time>
      </trkpt>
      <trkpt lat="42.1344680" lon="-8.8081040">
        <ele>8.5</ele>
        <time>2021-05-20T05:55:05Z</time>
      </trkpt>
      <trkpt lat="42.1344800" lon="-8.8081030">
        <ele>8.5</ele>
        <time>2021-05-20T05:55:06Z</time>
      </trkpt>
      <trkpt lat="42.1344940" lon="-8.8080980">
        <ele>8.5</ele>
        <time>2021-05-20T05:55:07Z</time>
      </trkpt>
      <trkpt lat="42.1344950" lon="-8.8080930">
        <ele>8.6</ele>
        <time>2021-05-20T05:55:08Z</time>
      </trkpt>
      <trkpt lat="42.1345130" lon="-8.8080910">
        <ele>8.6</ele>
        <time>2021-05-20T05:55:09Z</time>
      </trkpt>
      <trkpt lat="42.1345250" lon="-8.8080930">
        <ele>8.6</ele>
        <time>2021-05-20T05:55:10Z</time>
      </trkpt>
      <trkpt lat="42.1345370" lon="-8.8080920">
        <ele>8.6</ele>
        <time>2021-05-20T05:55:11Z</time>
      </trkpt>
      <trkpt lat="42.1345530" lon="-8.8080880">
        <ele>8.7</ele>
        <time>2021-05-20T05:55:12Z</time>
      </trkpt>
      <trkpt lat="42.1345700" lon="-8.8080810">
        <ele>8.7</ele>
        <time>2021-05-20T05:55:13Z</time>
      </trkpt>
      <trkpt lat="42.1345750" lon="-8.8080810">
        <ele>8.7</ele>
        <time>2021-05-20T05:55:14Z</time>
      </trkpt>
      <trkpt lat="42.1345810" lon="-8.8080820">
        <ele>8.7</ele>
        <time>2021-05-20T05:55:15Z</time>
      </trkpt>
      <trkpt lat="42.1345860" lon="-8.8080820">
        <ele>8.7</ele>
        <time>2021-05-20T05:55:16Z</time>
      </trkpt>
      <trkpt lat="42.1345920" lon="-8.8080820">
        <ele>8.8</ele>
        <time>2021-05-20T05:55:17Z</time>
      </trkpt>
      <trkpt lat="42.1346210" lon="-8.8080800">
        <ele>8.8</ele>
        <time>2021-05-20T05:55:18Z</time>
      </trkpt>
      <trkpt lat="42.1346320" lon="-8.8080790">
        <ele>8.8</ele>
        <time>2021-05-20T05:55:19Z</time>
      </trkpt>
      <trkpt lat="42.1346610" lon="-8.8080810">
        <ele>8.9</ele>
        <time>2021-05-20T05:55:20Z</time>
      </trkpt>
      <trkpt lat="42.1346680" lon="-8.8080790">
        <ele>8.9</ele>
        <time>2021-05-20T05:55:21Z</time>
      </trkpt>
      <trkpt lat="42.1346830" lon="-8.8080740">
        <ele>9.0</ele>
        <time>2021-05-20T05:55:22Z</time>
      </trkpt>
      <trkpt lat="42.1346980" lon="-8.8080760">
        <ele>9.0</ele>
        <time>2021-05-20T05:55:23Z</time>
      </trkpt>
      <trkpt lat="42.1347080" lon="-8.8080840">
        <ele>9.0</ele>
        <time>2021-05-20T05:55:24Z</time>
      </trkpt>
      <trkpt lat="42.1347130" lon="-8.8080810">
        <ele>9.1</ele>
        <time>2021-05-20T05:55:25Z</time>
      </trkpt>
      <trkpt lat="42.1347260" lon="-8.8080790">
        <ele>9.1</ele>
        <time>2021-05-20T05:55:26Z</time>
      </trkpt>
      <trkpt lat="42.1347450" lon="-8.8080770">
        <ele>9.1</ele>
        <time>2021-05-20T05:55:27Z</time>
      </trkpt>
      <trkpt lat="42.1347560" lon="-8.8080750">
        <ele>9.2</ele>
        <time>2021-05-20T05:55:28Z</time>
      </trkpt>
      <trkpt lat="42.1347660" lon="-8.8080730">
        <ele>9.2</ele>
        <time>2021-05-20T05:55:29Z</time>
      </trkpt>
      <trkpt lat="42.1347750" lon="-8.8080760">
        <ele>9.2</ele>
        <time>2021-05-20T05:55:30Z</time>
      </trkpt>
      <trkpt lat="42.1347840" lon="-8.8080730">
        <ele>9.2</ele>
        <time>2021-05-20T05:55:31Z</time>
      </trkpt>
      <trkpt lat="42.1347970" lon="-8.8080770">
        <ele>9.3</ele>
        <time>2021-05-20T05:55:32Z</time>
      </trkpt>
      <trkpt lat="42.1348060" lon="-8.8080720">
        <ele>9.3</ele>
        <time>2021-05-20T05:55:33Z</time>
      </trkpt>
      <trkpt lat="42.1348260" lon="-8.8080690">
        <ele>9.4</ele>
        <time>2021-05-20T05:55:34Z</time>
      </trkpt>
      <trkpt lat="42.1348360" lon="-8.8080820">
        <ele>9.4</ele>
        <time>2021-05-20T05:55:35Z</time>
      </trkpt>
      <trkpt lat="42.1348500" lon="-8.8080690">
        <ele>9.5</ele>
        <time>2021-05-20T05:55:36Z</time>
      </trkpt>
      <trkpt lat="42.1348610" lon="-8.8080720">
        <ele>9.5</ele>
        <time>2021-05-20T05:55:37Z</time>
      </trkpt>
      <trkpt lat="42.1348720" lon="-8.8080800">
        <ele>9.5</ele>
        <time>2021-05-20T05:55:38Z</time>
      </trkpt>
      <trkpt lat="42.1348880" lon="-8.8080740">
        <ele>9.6</ele>
        <time>2021-05-20T05:55:39Z</time>
      </trkpt>
      <trkpt lat="42.1349060" lon="-8.8080740">
        <ele>9.6</ele>
        <time>2021-05-20T05:55:40Z</time>
      </trkpt>
      <trkpt lat="42.1349230" lon="-8.8080760">
        <ele>9.7</ele>
        <time>2021-05-20T05:55:41Z</time>
      </trkpt>
      <trkpt lat="42.1349450" lon="-8.8080740">
        <ele>9.8</ele>
        <time>2021-05-20T05:55:42Z</time>
      </trkpt>
      <trkpt lat="42.1349520" lon="-8.8080750">
        <ele>9.8</ele>
        <time>2021-05-20T05:55:43Z</time>
      </trkpt>
      <trkpt lat="42.1349590" lon="-8.8080750">
        <ele>9.8</ele>
        <time>2021-05-20T05:55:44Z</time>
      </trkpt>
      <trkpt lat="42.1349850" lon="-8.8080730">
        <ele>9.9</ele>
        <time>2021-05-20T05:55:45Z</time>
      </trkpt>
      <trkpt lat="42.1349930" lon="-8.8080740">
        <ele>9.9</ele>
        <time>2021-05-20T05:55:46Z</time>
      </trkpt>
      <trkpt lat="42.1350020" lon="-8.8080740">
        <ele>10.0</ele>
        <time>2021-05-20T05:55:47Z</time>
      </trkpt>
      <trkpt lat="42.1350180" lon="-8.8080740">
        <ele>10.0</ele>
        <time>2021-05-20T05:55:48Z</time>
      </trkpt>
      <trkpt lat="42.1350310" lon="-8.8080730">
        <ele>10.1</ele>
        <time>2021-05-20T05:55:49Z</time>
      </trkpt>
      <trkpt lat="42.1350530" lon="-8.8080720">
        <ele>10.1</ele>
        <time>2021-05-20T05:55:50Z</time>
      </trkpt>
      <trkpt lat="42.1350620" lon="-8.8080710">
        <ele>10.2</ele>
        <time>2021-05-20T05:55:51Z</time>
      </trkpt>
      <trkpt lat="42.1350710" lon="-8.8080710">
        <ele>10.2</ele>
        <time>2021-05-20T05:55:52Z</time>
      </trkpt>
      <trkpt lat="42.1350870" lon="-8.8080790">
        <ele>10.2</ele>
        <time>2021-05-20T05:55:53Z</time>
      </trkpt>
      <trkpt lat="42.1351020" lon="-8.8080780">
        <ele>10.3</ele>
        <time>2021-05-20T05:55:54Z</time>
      </trkpt>
      <trkpt lat="42.1351160" lon="-8.8080690">
        <ele>10.3</ele>
        <time>2021-05-20T05:55:55Z</time>
      </trkpt>
      <trkpt lat="42.1351320" lon="-8.8080620">
        <ele>10.4</ele>
        <time>2021-05-20T05:55:56Z</time>
      </trkpt>
      <trkpt lat="42.1351400" lon="-8.8080590">
        <ele>10.4</ele>
        <time>2021-05-20T05:55:57Z</time>
      </trkpt>
      <trkpt lat="42.1351500" lon="-8.8080580">
        <ele>10.5</ele>
        <time>2021-05-20T05:55:58Z</time>
      </trkpt>
      <trkpt lat="42.1351640" lon="-8.8080580">
        <ele>10.5</ele>
        <time>2021-05-20T05:55:59Z</time>
      </trkpt>
      <trkpt lat="42.1351940" lon="-8.8080590">
        <ele>10.6</ele>
        <time>2021-05-20T05:56:00Z</time>
      </trkpt>
      <trkpt lat="42.1352020" lon="-8.8080580">
        <ele>10.6</ele>
        <time>2021-05-20T05:56:01Z</time>
      </trkpt>
      <trkpt lat="42.1352200" lon="-8.8080570">
        <ele>10.7</ele>
        <time>2021-05-20T05:56:02Z</time>
      </trkpt>
      <trkpt lat="42.1352350" lon="-8.8080530">
        <ele>10.7</ele>
        <time>2021-05-20T05:56:03Z</time>
      </trkpt>
      <trkpt lat="42.1352510" lon="-8.8080560">
        <ele>10.8</ele>
        <time>2021-05-20T05:56:04Z</time>
      </trkpt>
      <trkpt lat="42.1352660" lon="-8.8080510">
        <ele>10.9</ele>
        <time>2021-05-20T05:56:05Z</time>
      </trkpt>
      <trkpt lat="42.1352820" lon="-8.8080520">
        <ele>10.9</ele>
        <time>2021-05-20T05:56:06Z</time>
      </trkpt>
      <trkpt lat="42.1352980" lon="-8.8080510">
        <ele>11.0</ele>
        <time>2021-05-20T05:56:07Z</time>
      </trkpt>
      <trkpt lat="42.1353140" lon="-8.8080470">
        <ele>11.1</ele>
        <time>2021-05-20T05:56:08Z</time>
      </trkpt>
      <trkpt lat="42.1353280" lon="-8.8080440">
        <ele>11.1</ele>
        <time>2021-05-20T05:56:09Z</time>
      </trkpt>
      <trkpt lat="42.1353420" lon="-8.8080430">
        <ele>11.2</ele>
        <time>2021-05-20T05:56:10Z</time>
      </trkpt>
      <trkpt lat="42.1353570" lon="-8.8080390">
        <ele>11.3</ele>
        <time>2021-05-20T05:56:11Z</time>
      </trkpt>
      <trkpt lat="42.1353720" lon="-8.8080330">
        <ele>11.3</ele>
        <time>2021-05-20T05:56:12Z</time>
      </trkpt>
      <trkpt lat="42.1353880" lon="-8.8080320">
        <ele>11.4</ele>
        <time>2021-05-20T05:56:13Z</time>
      </trkpt>
      <trkpt lat="42.1354030" lon="-8.8080340">
        <ele>11.5</ele>
        <time>2021-05-20T05:56:14Z</time>
      </trkpt>
      <trkpt lat="42.1354170" lon="-8.8080320">
        <ele>11.5</ele>
        <time>2021-05-20T05:56:15Z</time>
      </trkpt>
      <trkpt lat="42.1354320" lon="-8.8080290">
        <ele>11.6</ele>
        <time>2021-05-20T05:56:16Z</time>
      </trkpt>
      <trkpt lat="42.1354470" lon="-8.8080240">
        <ele>11.6</ele>
        <time>2021-05-20T05:56:17Z</time>
      </trkpt>
      <trkpt lat="42.1354620" lon="-8.8080250">
        <ele>11.7</ele>
        <time>2021-05-20T05:56:18Z</time>
      </trkpt>
      <trkpt lat="42.1354750" lon="-8.8080300">
        <ele>11.8</ele>
        <time>2021-05-20T05:56:19Z</time>
      </trkpt>
      <trkpt lat="42.1354900" lon="-8.8080280">
        <ele>11.8</ele>
        <time>2021-05-20T05:56:20Z</time>
      </trkpt>
      <trkpt lat="42.1355040" lon="-8.8080300">
        <ele>11.9</ele>
        <time>2021-05-20T05:56:21Z</time>
      </trkpt>
      <trkpt lat="42.1355180" lon="-8.8080280">
        <ele>11.9</ele>
        <time>2021-05-20T05:56:22Z</time>
      </trkpt>
      <trkpt lat="42.1355320" lon="-8.8080280">
        <ele>12.0</ele>
        <time>2021-05-20T05:56:23Z</time>
      </trkpt>
      <trkpt lat="42.1355540" lon="-8.8080250">
        <ele>12.1</ele>
        <time>2021-05-20T05:56:24Z</time>
      </trkpt>
      <trkpt lat="42.1355610" lon="-8.8080230">
        <ele>12.1</ele>
        <time>2021-05-20T05:56:25Z</time>
      </trkpt>
      <trkpt lat="42.1355690" lon="-8.8080200">
        <ele>12.2</ele>
        <time>2021-05-20T05:56:26Z</time>
      </trkpt>
      <trkpt lat="42.1355770" lon="-8.8080190">
        <ele>12.2</ele>
        <time>2021-05-20T05:56:27Z</time>
      </trkpt>
      <trkpt lat="42.1355860" lon="-8.8080170">
        <ele>12.2</ele>
        <time>2021-05-20T05:56:28Z</time>
      </trkpt>
      <trkpt lat="42.1355990" lon="-8.8080140">
        <ele>12.3</ele>
        <time>2021-05-20T05:56:29Z</time>
      </trkpt>
      <trkpt lat="42.1356060" lon="-8.8080110">
        <ele>12.3</ele>
        <time>2021-05-20T05:56:30Z</time>
      </trkpt>
      <trkpt lat="42.1356210" lon="-8.8080170">
        <ele>12.4</ele>
        <time>2021-05-20T05:56:31Z</time>
      </trkpt>
      <trkpt lat="42.1356340" lon="-8.8080170">
        <ele>12.5</ele>
        <time>2021-05-20T05:56:32Z</time>
      </trkpt>
      <trkpt lat="42.1356560" lon="-8.8080120">
        <ele>12.6</ele>
        <time>2021-05-20T05:56:33Z</time>
      </trkpt>
      <trkpt lat="42.1356640" lon="-8.8080110">
        <ele>12.6</ele>
        <time>2021-05-20T05:56:34Z</time>
      </trkpt>
      <trkpt lat="42.1356710" lon="-8.8080100">
        <ele>12.6</ele>
        <time>2021-05-20T05:56:35Z</time>
      </trkpt>
      <trkpt lat="42.1356790" lon="-8.8080090">
        <ele>12.7</ele>
        <time>2021-05-20T05:56:36Z</time>
      </trkpt>
      <trkpt lat="42.1356940" lon="-8.8080120">
        <ele>12.7</ele>
        <time>2021-05-20T05:56:37Z</time>
      </trkpt>
      <trkpt lat="42.1357040" lon="-8.8080090">
        <ele>12.8</ele>
        <time>2021-05-20T05:56:38Z</time>
      </trkpt>
      <trkpt lat="42.1357200" lon="-8.8080070">
        <ele>12.9</ele>
        <time>2021-05-20T05:56:39Z</time>
      </trkpt>
      <trkpt lat="42.1357280" lon="-8.8080040">
        <ele>12.9</ele>
        <time>2021-05-20T05:56:40Z</time>
      </trkpt>
      <trkpt lat="42.1357410" lon="-8.8080020">
        <ele>13.0</ele>
        <time>2021-05-20T05:56:41Z</time>
      </trkpt>
      <trkpt lat="42.1357610" lon="-8.8080020">
        <ele>13.1</ele>
        <time>2021-05-20T05:56:42Z</time>
      </trkpt>
      <trkpt lat="42.1357690" lon="-8.8080020">
        <ele>13.1</ele>
        <time>2021-05-20T05:56:43Z</time>
      </trkpt>
      <trkpt lat="42.1357780" lon="-8.8080020">
        <ele>13.1</ele>
        <time>2021-05-20T05:56:44Z</time>
      </trkpt>
      <trkpt lat="42.1357900" lon="-8.8080050">
        <ele>13.2</ele>
        <time>2021-05-20T05:56:45Z</time>
      </trkpt>
      <trkpt lat="42.1358040" lon="-8.8080040">
        <ele>13.3</ele>
        <time>2021-05-20T05:56:46Z</time>
      </trkpt>
      <trkpt lat="42.1358120" lon="-8.8080040">
        <ele>13.3</ele>
        <time>2021-05-20T05:56:47Z</time>
      </trkpt>
      <trkpt lat="42.1358250" lon="-8.8080040">
        <ele>13.3</ele>
        <time>2021-05-20T05:56:48Z</time>
      </trkpt>
      <trkpt lat="42.1358340" lon="-8.8080020">
        <ele>13.4</ele>
        <time>2021-05-20T05:56:49Z</time>
      </trkpt>
      <trkpt lat="42.1358480" lon="-8.8080030">
        <ele>13.5</ele>
        <time>2021-05-20T05:56:50Z</time>
      </trkpt>
      <trkpt lat="42.1358690" lon="-8.8080040">
        <ele>13.5</ele>
        <time>2021-05-20T05:56:51Z</time>
      </trkpt>
      <trkpt lat="42.1358760" lon="-8.8080050">
        <ele>13.6</ele>
        <time>2021-05-20T05:56:52Z</time>
      </trkpt>
      <trkpt lat="42.1358840" lon="-8.8080070">
        <ele>13.6</ele>
        <time>2021-05-20T05:56:53Z</time>
      </trkpt>
      <trkpt lat="42.1358950" lon="-8.8080120">
        <ele>13.7</ele>
        <time>2021-05-20T05:56:54Z</time>
      </trkpt>
      <trkpt lat="42.1359070" lon="-8.8080060">
        <ele>13.7</ele>
        <time>2021-05-20T05:56:55Z</time>
      </trkpt>
      <trkpt lat="42.1359200" lon="-8.8080030">
        <ele>13.8</ele>
        <time>2021-05-20T05:56:56Z</time>
      </trkpt>
      <trkpt lat="42.1359310" lon="-8.8080030">
        <ele>13.8</ele>
        <time>2021-05-20T05:56:57Z</time>
      </trkpt>
      <trkpt lat="42.1359400" lon="-8.8079980">
        <ele>13.9</ele>
        <time>2021-05-20T05:56:58Z</time>
      </trkpt>
      <trkpt lat="42.1359540" lon="-8.8079910">
        <ele>13.9</ele>
        <time>2021-05-20T05:56:59Z</time>
      </trkpt>
      <trkpt lat="42.1359680" lon="-8.8079900">
        <ele>14.0</ele>
        <time>2021-05-20T05:57:00Z</time>
      </trkpt>
      <trkpt lat="42.1359870" lon="-8.8079870">
        <ele>14.1</ele>
        <time>2021-05-20T05:57:01Z</time>
      </trkpt>
      <trkpt lat="42.1360010" lon="-8.8079840">
        <ele>14.1</ele>
        <time>2021-05-20T05:57:02Z</time>
      </trkpt>
      <trkpt lat="42.1360110" lon="-8.8079820">
        <ele>14.2</ele>
        <time>2021-05-20T05:57:03Z</time>
      </trkpt>
      <trkpt lat="42.1360190" lon="-8.8079750">
        <ele>14.2</ele>
        <time>2021-05-20T05:57:04Z</time>
      </trkpt>
      <trkpt lat="42.1360350" lon="-8.8079710">
        <ele>14.3</ele>
        <time>2021-05-20T05:57:05Z</time>
      </trkpt>
      <trkpt lat="42.1360530" lon="-8.8079680">
        <ele>14.3</ele>
        <time>2021-05-20T05:57:06Z</time>
      </trkpt>
      <trkpt lat="42.1360710" lon="-8.8079650">
        <ele>14.4</ele>
        <time>2021-05-20T05:57:07Z</time>
      </trkpt>
      <trkpt lat="42.1360790" lon="-8.8079670">
        <ele>14.5</ele>
        <time>2021-05-20T05:57:08Z</time>
      </trkpt>
      <trkpt lat="42.1360860" lon="-8.8079700">
        <ele>14.5</ele>
        <time>2021-05-20T05:57:09Z</time>
      </trkpt>
      <trkpt lat="42.1360930" lon="-8.8079730">
        <ele>14.5</ele>
        <time>2021-05-20T05:57:10Z</time>
      </trkpt>
      <trkpt lat="42.1361200" lon="-8.8079720">
        <ele>14.6</ele>
        <time>2021-05-20T05:57:11Z</time>
      </trkpt>
      <trkpt lat="42.1361300" lon="-8.8079730">
        <ele>14.7</ele>
        <time>2021-05-20T05:57:12Z</time>
      </trkpt>
      <trkpt lat="42.1361410" lon="-8.8079790">
        <ele>14.7</ele>
        <time>2021-05-20T05:57:13Z</time>
      </trkpt>
      <trkpt lat="42.1361580" lon="-8.8079770">
        <ele>14.8</ele>
        <time>2021-05-20T05:57:14Z</time>
      </trkpt>
      <trkpt lat="42.1361810" lon="-8.8079790">
        <ele>14.9</ele>
        <time>2021-05-20T05:57:15Z</time>
      </trkpt>
      <trkpt lat="42.1361890" lon="-8.8079790">
        <ele>15.0</ele>
        <time>2021-05-20T05:57:16Z</time>
      </trkpt>
      <trkpt lat="42.1361960" lon="-8.8079790">
        <ele>15.0</ele>
        <time>2021-05-20T05:57:17Z</time>
      </trkpt>
      <trkpt lat="42.1362080" lon="-8.8079810">
        <ele>15.0</ele>
        <time>2021-05-20T05:57:18Z</time>
      </trkpt>
      <trkpt lat="42.1362200" lon="-8.8079770">
        <ele>15.1</ele>
        <time>2021-05-20T05:57:19Z</time>
      </trkpt>
      <trkpt lat="42.1362320" lon="-8.8079800">
        <ele>15.1</ele>
        <time>2021-05-20T05:57:20Z</time>
      </trkpt>
      <trkpt lat="42.1362520" lon="-8.8079810">
        <ele>15.2</ele>
        <time>2021-05-20T05:57:21Z</time>
      </trkpt>
      <trkpt lat="42.1362650" lon="-8.8079820">
        <ele>15.3</ele>
        <time>2021-05-20T05:57:22Z</time>
      </trkpt>
      <trkpt lat="42.1362860" lon="-8.8079790">
        <ele>15.4</ele>
        <time>2021-05-20T05:57:23Z</time>
      </trkpt>
      <trkpt lat="42.1362950" lon="-8.8079780">
        <ele>15.4</ele>
        <time>2021-05-20T05:57:24Z</time>
      </trkpt>
      <trkpt lat="42.1363050" lon="-8.8079770">
        <ele>15.4</ele>
        <time>2021-05-20T05:57:25Z</time>
      </trkpt>
      <trkpt lat="42.1363350" lon="-8.8079730">
        <ele>15.6</ele>
        <time>2021-05-20T05:57:26Z</time>
      </trkpt>
      <trkpt lat="42.1363490" lon="-8.8079770">
        <ele>15.6</ele>
        <time>2021-05-20T05:57:27Z</time>
      </trkpt>
      <trkpt lat="42.1363630" lon="-8.8079860">
        <ele>15.7</ele>
        <time>2021-05-20T05:57:28Z</time>
      </trkpt>
      <trkpt lat="42.1363810" lon="-8.8079760">
        <ele>15.7</ele>
        <time>2021-05-20T05:57:29Z</time>
      </trkpt>
      <trkpt lat="42.1363960" lon="-8.8079760">
        <ele>15.8</ele>
        <time>2021-05-20T05:57:30Z</time>
      </trkpt>
      <trkpt lat="42.1364120" lon="-8.8079690">
        <ele>15.9</ele>
        <time>2021-05-20T05:57:31Z</time>
      </trkpt>
      <trkpt lat="42.1364270" lon="-8.8079610">
        <ele>15.9</ele>
        <time>2021-05-20T05:57:32Z</time>
      </trkpt>
      <trkpt lat="42.1364430" lon="-8.8079660">
        <ele>16.0</ele>
        <time>2021-05-20T05:57:33Z</time>
      </trkpt>
      <trkpt lat="42.1364570" lon="-8.8079680">
        <ele>16.0</ele>
        <time>2021-05-20T05:57:34Z</time>
      </trkpt>
      <trkpt lat="42.1364680" lon="-8.8079620">
        <ele>16.1</ele>
        <time>2021-05-20T05:57:35Z</time>
      </trkpt>
      <trkpt lat="42.1364790" lon="-8.8079580">
        <ele>16.1</ele>
        <time>2021-05-20T05:57:36Z</time>
      </trkpt>
      <trkpt lat="42.1364900" lon="-8.8079510">
        <ele>16.2</ele>
        <time>2021-05-20T05:57:37Z</time>
      </trkpt>
      <trkpt lat="42.1365090" lon="-8.8079610">
        <ele>16.2</ele>
        <time>2021-05-20T05:57:38Z</time>
      </trkpt>
      <trkpt lat="42.1365210" lon="-8.8079600">
        <ele>16.3</ele>
        <time>2021-05-20T05:57:39Z</time>
      </trkpt>
      <trkpt lat="42.1365330" lon="-8.8079580">
        <ele>16.3</ele>
        <time>2021-05-20T05:57:40Z</time>
      </trkpt>
      <trkpt lat="42.1365500" lon="-8.8079660">
        <ele>16.4</ele>
        <time>2021-05-20T05:57:41Z</time>
      </trkpt>
      <trkpt lat="42.1365660" lon="-8.8079580">
        <ele>16.4</ele>
        <time>2021-05-20T05:57:42Z</time>
      </trkpt>
      <trkpt lat="42.1365790" lon="-8.8079550">
        <ele>16.5</ele>
        <time>2021-05-20T05:57:43Z</time>
      </trkpt>
      <trkpt lat="42.1365860" lon="-8.8079560">
        <ele>16.5</ele>
        <time>2021-05-20T05:57:44Z</time>
      </trkpt>
      <trkpt lat="42.1366110" lon="-8.8079510">
        <ele>16.6</ele>
        <time>2021-05-20T05:57:45Z</time>
      </trkpt>
      <trkpt lat="42.1366380" lon="-8.8079500">
        <ele>16.6</ele>
        <time>2021-05-20T05:57:46Z</time>
      </trkpt>
      <trkpt lat="42.1366500" lon="-8.8079490">
        <ele>16.7</ele>
        <time>2021-05-20T05:57:47Z</time>
      </trkpt>
      <trkpt lat="42.1366800" lon="-8.8079430">
        <ele>16.8</ele>
        <time>2021-05-20T05:57:48Z</time>
      </trkpt>
      <trkpt lat="42.1366880" lon="-8.8079450">
        <ele>16.8</ele>
        <time>2021-05-20T05:57:49Z</time>
      </trkpt>
      <trkpt lat="42.1367040" lon="-8.8079380">
        <ele>16.8</ele>
        <time>2021-05-20T05:57:50Z</time>
      </trkpt>
      <trkpt lat="42.1367210" lon="-8.8079360">
        <ele>16.9</ele>
        <time>2021-05-20T05:57:51Z</time>
      </trkpt>
      <trkpt lat="42.1367390" lon="-8.8079340">
        <ele>16.9</ele>
        <time>2021-05-20T05:57:52Z</time>
      </trkpt>
      <trkpt lat="42.1367550" lon="-8.8079300">
        <ele>17.0</ele>
        <time>2021-05-20T05:57:53Z</time>
      </trkpt>
      <trkpt lat="42.1367710" lon="-8.8079260">
        <ele>17.0</ele>
        <time>2021-05-20T05:57:54Z</time>
      </trkpt>
      <trkpt lat="42.1367860" lon="-8.8079210">
        <ele>17.0</ele>
        <time>2021-05-20T05:57:55Z</time>
      </trkpt>
      <trkpt lat="42.1368000" lon="-8.8079210">
        <ele>17.1</ele>
        <time>2021-05-20T05:57:56Z</time>
      </trkpt>
      <trkpt lat="42.1368170" lon="-8.8079220">
        <ele>17.1</ele>
        <time>2021-05-20T05:57:57Z</time>
      </trkpt>
      <trkpt lat="42.1368310" lon="-8.8079190">
        <ele>17.2</ele>
        <time>2021-05-20T05:57:58Z</time>
      </trkpt>
      <trkpt lat="42.1368460" lon="-8.8079140">
        <ele>17.2</ele>
        <time>2021-05-20T05:57:59Z</time>
      </trkpt>
      <trkpt lat="42.1368580" lon="-8.8079050">
        <ele>17.2</ele>
        <time>2021-05-20T05:58:00Z</time>
      </trkpt>
      <trkpt lat="42.1368730" lon="-8.8079080">
        <ele>17.3</ele>
        <time>2021-05-20T05:58:01Z</time>
      </trkpt>
      <trkpt lat="42.1368840" lon="-8.8079030">
        <ele>17.3</ele>
        <time>2021-05-20T05:58:02Z</time>
      </trkpt>
      <trkpt lat="42.1369000" lon="-8.8079010">
        <ele>17.3</ele>
        <time>2021-05-20T05:58:03Z</time>
      </trkpt>
      <trkpt lat="42.1369090" lon="-8.8078970">
        <ele>17.4</ele>
        <time>2021-05-20T05:58:04Z</time>
      </trkpt>
      <trkpt lat="42.1369200" lon="-8.8078940">
        <ele>17.4</ele>
        <time>2021-05-20T05:58:05Z</time>
      </trkpt>
      <trkpt lat="42.1369290" lon="-8.8078850">
        <ele>17.4</ele>
        <time>2021-05-20T05:58:06Z</time>
      </trkpt>
      <trkpt lat="42.1369480" lon="-8.8078830">
        <ele>17.4</ele>
        <time>2021-05-20T05:58:07Z</time>
      </trkpt>
      <trkpt lat="42.1369630" lon="-8.8078740">
        <ele>17.5</ele>
        <time>2021-05-20T05:58:08Z</time>
      </trkpt>
      <trkpt lat="42.1369760" lon="-8.8078650">
        <ele>17.5</ele>
        <time>2021-05-20T05:58:09Z</time>
      </trkpt>
      <trkpt lat="42.1369930" lon="-8.8078660">
        <ele>17.5</ele>
        <time>2021-05-20T05:58:10Z</time>
      </trkpt>
      <trkpt lat="42.1370090" lon="-8.8078650">
        <ele>17.6</ele>
        <time>2021-05-20T05:58:11Z</time>
      </trkpt>
      <trkpt lat="42.1370240" lon="-8.8078600">
        <ele>17.6</ele>
        <time>2021-05-20T05:58:12Z</time>
      </trkpt>
      <trkpt lat="42.1370460" lon="-8.8078550">
        <ele>17.7</ele>
        <time>2021-05-20T05:58:13Z</time>
      </trkpt>
      <trkpt lat="42.1370550" lon="-8.8078510">
        <ele>17.7</ele>
        <time>2021-05-20T05:58:14Z</time>
      </trkpt>
      <trkpt lat="42.1370640" lon="-8.8078480">
        <ele>17.7</ele>
        <time>2021-05-20T05:58:15Z</time>
      </trkpt>
      <trkpt lat="42.1370790" lon="-8.8078430">
        <ele>17.7</ele>
        <time>2021-05-20T05:58:16Z</time>
      </trkpt>
      <trkpt lat="42.1370920" lon="-8.8078400">
        <ele>17.8</ele>
        <time>2021-05-20T05:58:17Z</time>
      </trkpt>
      <trkpt lat="42.1371060" lon="-8.8078300">
        <ele>17.8</ele>
        <time>2021-05-20T05:58:18Z</time>
      </trkpt>
      <trkpt lat="42.1371200" lon="-8.8078280">
        <ele>17.9</ele>
        <time>2021-05-20T05:58:19Z</time>
      </trkpt>
      <trkpt lat="42.1371350" lon="-8.8078240">
        <ele>17.9</ele>
        <time>2021-05-20T05:58:20Z</time>
      </trkpt>
      <trkpt lat="42.1371470" lon="-8.8078180">
        <ele>17.9</ele>
        <time>2021-05-20T05:58:21Z</time>
      </trkpt>
      <trkpt lat="42.1371620" lon="-8.8078190">
        <ele>18.0</ele>
        <time>2021-05-20T05:58:22Z</time>
      </trkpt>
      <trkpt lat="42.1371750" lon="-8.8078100">
        <ele>18.0</ele>
        <time>2021-05-20T05:58:23Z</time>
      </trkpt>
      <trkpt lat="42.1371870" lon="-8.8078060">
        <ele>18.0</ele>
        <time>2021-05-20T05:58:24Z</time>
      </trkpt>
      <trkpt lat="42.1372020" lon="-8.8077990">
        <ele>18.1</ele>
        <time>2021-05-20T05:58:25Z</time>
      </trkpt>
      <trkpt lat="42.1372160" lon="-8.8077910">
        <ele>18.1</ele>
        <time>2021-05-20T05:58:26Z</time>
      </trkpt>
      <trkpt lat="42.1372290" lon="-8.8077800">
        <ele>18.2</ele>
        <time>2021-05-20T05:58:27Z</time>
      </trkpt>
      <trkpt lat="42.1372430" lon="-8.8077800">
        <ele>18.2</ele>
        <time>2021-05-20T05:58:28Z</time>
      </trkpt>
      <trkpt lat="42.1372560" lon="-8.8077780">
        <ele>18.3</ele>
        <time>2021-05-20T05:58:29Z</time>
      </trkpt>
      <trkpt lat="42.1372710" lon="-8.8077780">
        <ele>18.3</ele>
        <time>2021-05-20T05:58:30Z</time>
      </trkpt>
      <trkpt lat="42.1372860" lon="-8.8077730">
        <ele>18.4</ele>
        <time>2021-05-20T05:58:31Z</time>
      </trkpt>
      <trkpt lat="42.1373000" lon="-8.8077720">
        <ele>18.4</ele>
        <time>2021-05-20T05:58:32Z</time>
      </trkpt>
      <trkpt lat="42.1373150" lon="-8.8077660">
        <ele>18.5</ele>
        <time>2021-05-20T05:58:33Z</time>
      </trkpt>
      <trkpt lat="42.1373280" lon="-8.8077590">
        <ele>18.5</ele>
        <time>2021-05-20T05:58:34Z</time>
      </trkpt>
      <trkpt lat="42.1373430" lon="-8.8077510">
        <ele>18.5</ele>
        <time>2021-05-20T05:58:35Z</time>
      </trkpt>
      <trkpt lat="42.1373570" lon="-8.8077410">
        <ele>18.6</ele>
        <time>2021-05-20T05:58:36Z</time>
      </trkpt>
      <trkpt lat="42.1373680" lon="-8.8077290">
        <ele>18.6</ele>
        <time>2021-05-20T05:58:37Z</time>
      </trkpt>
      <trkpt lat="42.1373880" lon="-8.8077170">
        <ele>18.7</ele>
        <time>2021-05-20T05:58:38Z</time>
      </trkpt>
      <trkpt lat="42.1373960" lon="-8.8077160">
        <ele>18.7</ele>
        <time>2021-05-20T05:58:39Z</time>
      </trkpt>
      <trkpt lat="42.1374040" lon="-8.8077150">
        <ele>18.8</ele>
        <time>2021-05-20T05:58:40Z</time>
      </trkpt>
      <trkpt lat="42.1374110" lon="-8.8077140">
        <ele>18.8</ele>
        <time>2021-05-20T05:58:41Z</time>
      </trkpt>
      <trkpt lat="42.1374100" lon="-8.8077120">
        <ele>18.8</ele>
        <time>2021-05-20T05:58:42Z</time>
      </trkpt>
      <trkpt lat="42.1374010" lon="-8.8077070">
        <ele>18.8</ele>
        <time>2021-05-20T05:58:43Z</time>
      </trkpt>
      <trkpt lat="42.1373920" lon="-8.8077050">
        <ele>18.9</ele>
        <time>2021-05-20T05:58:44Z</time>
      </trkpt>
      <trkpt lat="42.1373890" lon="-8.8077060">
        <ele>18.9</ele>
        <time>2021-05-20T05:58:45Z</time>
      </trkpt>
      <trkpt lat="42.1373960" lon="-8.8076970">
        <ele>18.9</ele>
        <time>2021-05-20T05:58:46Z</time>
      </trkpt>
      <trkpt lat="42.1373940" lon="-8.8076910">
        <ele>18.9</ele>
        <time>2021-05-20T05:58:47Z</time>
      </trkpt>
      <trkpt lat="42.1373970" lon="-8.8076830">
        <ele>19.0</ele>
        <time>2021-05-20T05:58:48Z</time>
      </trkpt>
      <trkpt lat="42.1374040" lon="-8.8076760">
        <ele>19.0</ele>
        <time>2021-05-20T05:58:49Z</time>
      </trkpt>
      <trkpt lat="42.1374070" lon="-8.8076690">
        <ele>19.0</ele>
        <time>2021-05-20T05:58:50Z</time>
      </trkpt>
      <trkpt lat="42.1374110" lon="-8.8076630">
        <ele>19.0</ele>
        <time>2021-05-20T05:58:51Z</time>
      </trkpt>
      <trkpt lat="42.1374180" lon="-8.8076660">
        <ele>19.1</ele>
        <time>2021-05-20T05:58:52Z</time>
      </trkpt>
      <trkpt lat="42.1374230" lon="-8.8076620">
        <ele>19.1</ele>
        <time>2021-05-20T05:58:53Z</time>
      </trkpt>
      <trkpt lat="42.1374350" lon="-8.8076580">
        <ele>19.1</ele>
        <time>2021-05-20T05:58:54Z</time>
      </trkpt>
      <trkpt lat="42.1374500" lon="-8.8076450">
        <ele>19.2</ele>
        <time>2021-05-20T05:58:55Z</time>
      </trkpt>
      <trkpt lat="42.1374550" lon="-8.8076420">
        <ele>19.2</ele>
        <time>2021-05-20T05:58:56Z</time>
      </trkpt>
      <trkpt lat="42.1374620" lon="-8.8076320">
        <ele>19.2</ele>
        <time>2021-05-20T05:58:57Z</time>
      </trkpt>
      <trkpt lat="42.1374730" lon="-8.8076280">
        <ele>19.3</ele>
        <time>2021-05-20T05:58:58Z</time>
      </trkpt>
      <trkpt lat="42.1374810" lon="-8.8076200">
        <ele>19.3</ele>
        <time>2021-05-20T05:58:59Z</time>
      </trkpt>
      <trkpt lat="42.1374900" lon="-8.8076170">
        <ele>19.3</ele>
        <time>2021-05-20T05:59:00Z</time>
      </trkpt>
      <trkpt lat="42.1374980" lon="-8.8076120">
        <ele>19.4</ele>
        <time>2021-05-20T05:59:01Z</time>
      </trkpt>
      <trkpt lat="42.1375090" lon="-8.8076040">
        <ele>19.4</ele>
        <time>2021-05-20T05:59:02Z</time>
      </trkpt>
      <trkpt lat="42.1375200" lon="-8.8075990">
        <ele>19.5</ele>
        <time>2021-05-20T05:59:03Z</time>
      </trkpt>
      <trkpt lat="42.1375410" lon="-8.8075890">
        <ele>19.5</ele>
        <time>2021-05-20T05:59:04Z</time>
      </trkpt>
      <trkpt lat="42.1375490" lon="-8.8075860">
        <ele>19.6</ele>
        <time>2021-05-20T05:59:05Z</time>
      </trkpt>
      <trkpt lat="42.1375570" lon="-8.8075840">
        <ele>19.6</ele>
        <time>2021-05-20T05:59:06Z</time>
      </trkpt>
      <trkpt lat="42.1375670" lon="-8.8075830">
        <ele>19.6</ele>
        <time>2021-05-20T05:59:07Z</time>
      </trkpt>
      <trkpt lat="42.1375720" lon="-8.8075760">
        <ele>19.7</ele>
        <time>2021-05-20T05:59:08Z</time>
      </trkpt>
      <trkpt lat="42.1375840" lon="-8.8075680">
        <ele>19.7</ele>
        <time>2021-05-20T05:59:09Z</time>
      </trkpt>
      <trkpt lat="42.1376010" lon="-8.8075640">
        <ele>19.8</ele>
        <time>2021-05-20T05:59:10Z</time>
      </trkpt>
      <trkpt lat="42.1376150" lon="-8.8075640">
        <ele>19.8</ele>
        <time>2021-05-20T05:59:11Z</time>
      </trkpt>
      <trkpt lat="42.1376260" lon="-8.8075620">
        <ele>19.9</ele>
        <time>2021-05-20T05:59:12Z</time>
      </trkpt>
      <trkpt lat="42.1376360" lon="-8.8075580">
        <ele>19.9</ele>
        <time>2021-05-20T05:59:13Z</time>
      </trkpt>
      <trkpt lat="42.1376480" lon="-8.8075550">
        <ele>20.0</ele>
        <time>2021-05-20T05:59:14Z</time>
      </trkpt>
      <trkpt lat="42.1376660" lon="-8.8075570">
        <ele>20.1</ele>
        <time>2021-05-20T05:59:15Z</time>
      </trkpt>
      <trkpt lat="42.1376780" lon="-8.8075490">
        <ele>20.1</ele>
        <time>2021-05-20T05:59:16Z</time>
      </trkpt>
      <trkpt lat="42.1376900" lon="-8.8075320">
        <ele>20.2</ele>
        <time>2021-05-20T05:59:17Z</time>
      </trkpt>
      <trkpt lat="42.1377060" lon="-8.8075260">
        <ele>20.3</ele>
        <time>2021-05-20T05:59:18Z</time>
      </trkpt>
      <trkpt lat="42.1377130" lon="-8.8075250">
        <ele>20.3</ele>
        <time>2021-05-20T05:59:19Z</time>
      </trkpt>
      <trkpt lat="42.1377270" lon="-8.8075230">
        <ele>20.4</ele>
        <time>2021-05-20T05:59:20Z</time>
      </trkpt>
      <trkpt lat="42.1377390" lon="-8.8075220">
        <ele>20.4</ele>
        <time>2021-05-20T05:59:21Z</time>
      </trkpt>
      <trkpt lat="42.1377620" lon="-8.8075160">
        <ele>20.5</ele>
        <time>2021-05-20T05:59:22Z</time>
      </trkpt>
      <trkpt lat="42.1377700" lon="-8.8075130">
        <ele>20.6</ele>
        <time>2021-05-20T05:59:23Z</time>
      </trkpt>
      <trkpt lat="42.1377790" lon="-8.8075090">
        <ele>20.6</ele>
        <time>2021-05-20T05:59:24Z</time>
      </trkpt>
      <trkpt lat="42.1377940" lon="-8.8075040">
        <ele>20.7</ele>
        <time>2021-05-20T05:59:25Z</time>
      </trkpt>
      <trkpt lat="42.1378110" lon="-8.8075100">
        <ele>20.8</ele>
        <time>2021-05-20T05:59:26Z</time>
      </trkpt>
      <trkpt lat="42.1378370" lon="-8.8075000">
        <ele>20.9</ele>
        <time>2021-05-20T05:59:27Z</time>
      </trkpt>
      <trkpt lat="42.1378470" lon="-8.8074990">
        <ele>20.9</ele>
        <time>2021-05-20T05:59:28Z</time>
      </trkpt>
      <trkpt lat="42.1378560" lon="-8.8074970">
        <ele>21.0</ele>
        <time>2021-05-20T05:59:29Z</time>
      </trkpt>
      <trkpt lat="42.1378690" lon="-8.8074980">
        <ele>21.0</ele>
        <time>2021-05-20T05:59:30Z</time>
      </trkpt>
      <trkpt lat="42.1378870" lon="-8.8075010">
        <ele>21.1</ele>
        <time>2021-05-20T05:59:31Z</time>
      </trkpt>
      <trkpt lat="42.1378920" lon="-8.8074970">
        <ele>21.1</ele>
        <time>2021-05-20T05:59:32Z</time>
      </trkpt>
      <trkpt lat="42.1378980" lon="-8.8074970">
        <ele>21.2</ele>
        <time>2021-05-20T05:59:33Z</time>
      </trkpt>
      <trkpt lat="42.1379070" lon="-8.8074880">
        <ele>21.2</ele>
        <time>2021-05-20T05:59:34Z</time>
      </trkpt>
      <trkpt lat="42.1379160" lon="-8.8074830">
        <ele>21.3</ele>
        <time>2021-05-20T05:59:35Z</time>
      </trkpt>
      <trkpt lat="42.1379240" lon="-8.8074750">
        <ele>21.3</ele>
        <time>2021-05-20T05:59:36Z</time>
      </trkpt>
      <trkpt lat="42.1379390" lon="-8.8074710">
        <ele>21.4</ele>
        <time>2021-05-20T05:59:37Z</time>
      </trkpt>
      <trkpt lat="42.1379450" lon="-8.8074620">
        <ele>21.4</ele>
        <time>2021-05-20T05:59:38Z</time>
      </trkpt>
      <trkpt lat="42.1379580" lon="-8.8074570">
        <ele>21.5</ele>
        <time>2021-05-20T05:59:39Z</time>
      </trkpt>
      <trkpt lat="42.1379760" lon="-8.8074520">
        <ele>21.6</ele>
        <time>2021-05-20T05:59:40Z</time>
      </trkpt>
      <trkpt lat="42.1379840" lon="-8.8074500">
        <ele>21.6</ele>
        <time>2021-05-20T05:59:41Z</time>
      </trkpt>
      <trkpt lat="42.1379910" lon="-8.8074440">
        <ele>21.7</ele>
        <time>2021-05-20T05:59:42Z</time>
      </trkpt>
      <trkpt lat="42.1380070" lon="-8.8074400">
        <ele>21.7</ele>
        <time>2021-05-20T05:59:43Z</time>
      </trkpt>
      <trkpt lat="42.1380230" lon="-8.8074290">
        <ele>21.8</ele>
        <time>2021-05-20T05:59:44Z</time>
      </trkpt>
      <trkpt lat="42.1380320" lon="-8.8074210">
        <ele>21.9</ele>
        <time>2021-05-20T05:59:45Z</time>
      </trkpt>
      <trkpt lat="42.1380440" lon="-8.8074150">
        <ele>21.9</ele>
        <time>2021-05-20T05:59:46Z</time>
      </trkpt>
      <trkpt lat="42.1380540" lon="-8.8074080">
        <ele>22.0</ele>
        <time>2021-05-20T05:59:47Z</time>
      </trkpt>
      <trkpt lat="42.1380600" lon="-8.8074030">
        <ele>22.0</ele>
        <time>2021-05-20T05:59:48Z</time>
      </trkpt>
      <trkpt lat="42.1380520" lon="-8.8074040">
        <ele>22.1</ele>
        <time>2021-05-20T05:59:49Z</time>
      </trkpt>
      <trkpt lat="42.1380480" lon="-8.8074060">
        <ele>22.1</ele>
        <time>2021-05-20T05:59:50Z</time>
      </trkpt>
      <trkpt lat="42.1380540" lon="-8.8073950">
        <ele>22.1</ele>
        <time>2021-05-20T05:59:51Z</time>
      </trkpt>
      <trkpt lat="42.1380680" lon="-8.8073910">
        <ele>22.2</ele>
        <time>2021-05-20T05:59:52Z</time>
      </trkpt>
      <trkpt lat="42.1380700" lon="-8.8073950">
        <ele>22.2</ele>
        <time>2021-05-20T05:59:53Z</time>
      </trkpt>
      <trkpt lat="42.1380710" lon="-8.8073970">
        <ele>22.2</ele>
        <time>2021-05-20T05:59:54Z</time>
      </trkpt>
      <trkpt lat="42.1380720" lon="-8.8074010">
        <ele>22.3</ele>
        <time>2021-05-20T05:59:55Z</time>
      </trkpt>
      <trkpt lat="42.1380780" lon="-8.8074070">
        <ele>22.3</ele>
        <time>2021-05-20T05:59:56Z</time>
      </trkpt>
      <trkpt lat="42.1380720" lon="-8.8074010">
        <ele>22.3</ele>
        <time>2021-05-20T05:59:57Z</time>
      </trkpt>
      <trkpt lat="42.1380610" lon="-8.8073920">
        <ele>22.4</ele>
        <time>2021-05-20T05:59:58Z</time>
      </trkpt>
      <trkpt lat="42.1380580" lon="-8.8073890">
        <ele>22.4</ele>
        <time>2021-05-20T05:59:59Z</time>
      </trkpt>
      <trkpt lat="42.1380520" lon="-8.8073860">
        <ele>22.4</ele>
        <time>2021-05-20T06:00:00Z</time>
      </trkpt>
      <trkpt lat="42.1380480" lon="-8.8073840">
        <ele>22.5</ele>
        <time>2021-05-20T06:00:01Z</time>
      </trkpt>
      <trkpt lat="42.1380460" lon="-8.8073840">
        <ele>22.5</ele>
        <time>2021-05-20T06:00:02Z</time>
      </trkpt>
      <trkpt lat="42.1380590" lon="-8.8073860">
        <ele>22.5</ele>
        <time>2021-05-20T06:00:03Z</time>
      </trkpt>
      <trkpt lat="42.1380640" lon="-8.8073850">
        <ele>22.6</ele>
        <time>2021-05-20T06:00:04Z</time>
      </trkpt>
      <trkpt lat="42.1380730" lon="-8.8073740">
        <ele>22.6</ele>
        <time>2021-05-20T06:00:05Z</time>
      </trkpt>
      <trkpt lat="42.1380860" lon="-8.8073760">
        <ele>22.7</ele>
        <time>2021-05-20T06:00:06Z</time>
      </trkpt>
      <trkpt lat="42.1381150" lon="-8.8073680">
        <ele>22.8</ele>
        <time>2021-05-20T06:00:07Z</time>
      </trkpt>
      <trkpt lat="42.1381220" lon="-8.8073650">
        <ele>22.9</ele>
        <time>2021-05-20T06:00:08Z</time>
      </trkpt>
      <trkpt lat="42.1381480" lon="-8.8073510">
        <ele>23.0</ele>
        <time>2021-05-20T06:00:09Z</time>
      </trkpt>
      <trkpt lat="42.1381640" lon="-8.8073490">
        <ele>23.1</ele>
        <time>2021-05-20T06:00:10Z</time>
      </trkpt>
      <trkpt lat="42.1381760" lon="-8.8073410">
        <ele>23.1</ele>
        <time>2021-05-20T06:00:11Z</time>
      </trkpt>
      <trkpt lat="42.1381930" lon="-8.8073290">
        <ele>23.2</ele>
        <time>2021-05-20T06:00:12Z</time>
      </trkpt>
      <trkpt lat="42.1382030" lon="-8.8073240">
        <ele>23.3</ele>
        <time>2021-05-20T06:00:13Z</time>
      </trkpt>
      <trkpt lat="42.1382130" lon="-8.8073180">
        <ele>23.3</ele>
        <time>2021-05-20T06:00:14Z</time>
      </trkpt>
      <trkpt lat="42.1382250" lon="-8.8073090">
        <ele>23.4</ele>
        <time>2021-05-20T06:00:15Z</time>
      </trkpt>
      <trkpt lat="42.1382410" lon="-8.8073030">
        <ele>23.5</ele>
        <time>2021-05-20T06:00:16Z</time>
      </trkpt>
      <trkpt lat="42.1382680" lon="-8.8073010">
        <ele>23.6</ele>
        <time>2021-05-20T06:00:17Z</time>
      </trkpt>
      <trkpt lat="42.1382790" lon="-8.8072990">
        <ele>23.6</ele>
        <time>2021-05-20T06:00:18Z</time>
      </trkpt>
      <trkpt lat="42.1383080" lon="-8.8073030">
        <ele>23.8</ele>
        <time>2021-05-20T06:00:19Z</time>
      </trkpt>
      <trkpt lat="42.1383150" lon="-8.8073040">
        <ele>23.8</ele>
        <time>2021-05-20T06:00:20Z</time>
      </trkpt>
      <trkpt lat="42.1383330" lon="-8.8073020">
        <ele>23.9</ele>
        <time>2021-05-20T06:00:21Z</time>
      </trkpt>
      <trkpt lat="42.1383470" lon="-8.8073050">
        <ele>23.9</ele>
        <time>2021-05-20T06:00:22Z</time>
      </trkpt>
      <trkpt lat="42.1383640" lon="-8.8072980">
        <ele>24.0</ele>
        <time>2021-05-20T06:00:23Z</time>
      </trkpt>
      <trkpt lat="42.1383740" lon="-8.8072950">
        <ele>24.0</ele>
        <time>2021-05-20T06:00:24Z</time>
      </trkpt>
      <trkpt lat="42.1383910" lon="-8.8072970">
        <ele>24.1</ele>
        <time>2021-05-20T06:00:25Z</time>
      </trkpt>
      <trkpt lat="42.1384050" lon="-8.8072910">
        <ele>24.2</ele>
        <time>2021-05-20T06:00:26Z</time>
      </trkpt>
      <trkpt lat="42.1384230" lon="-8.8072830">
        <ele>24.3</ele>
        <time>2021-05-20T06:00:27Z</time>
      </trkpt>
      <trkpt lat="42.1384350" lon="-8.8072800">
        <ele>24.3</ele>
        <time>2021-05-20T06:00:28Z</time>
      </trkpt>
      <trkpt lat="42.1384480" lon="-8.8072760">
        <ele>24.4</ele>
        <time>2021-05-20T06:00:29Z</time>
      </trkpt>
      <trkpt lat="42.1384830" lon="-8.8072620">
        <ele>24.5</ele>
        <time>2021-05-20T06:00:30Z</time>
      </trkpt>
      <trkpt lat="42.1384950" lon="-8.8072590">
        <ele>24.6</ele>
        <time>2021-05-20T06:00:31Z</time>
      </trkpt>
      <trkpt lat="42.1385230" lon="-8.8072500">
        <ele>24.7</ele>
        <time>2021-05-20T06:00:32Z</time>
      </trkpt>
      <trkpt lat="42.1385550" lon="-8.8072370">
        <ele>24.8</ele>
        <time>2021-05-20T06:00:33Z</time>
      </trkpt>
      <trkpt lat="42.1385650" lon="-8.8072320">
        <ele>24.9</ele>
        <time>2021-05-20T06:00:34Z</time>
      </trkpt>
      <trkpt lat="42.1385890" lon="-8.8072090">
        <ele>25.0</ele>
        <time>2021-05-20T06:00:35Z</time>
      </trkpt>
      <trkpt lat="42.1385970" lon="-8.8072030">
        <ele>25.0</ele>
        <time>2021-05-20T06:00:36Z</time>
      </trkpt>
      <trkpt lat="42.1386140" lon="-8.8071840">
        <ele>25.1</ele>
        <time>2021-05-20T06:00:37Z</time>
      </trkpt>
      <trkpt lat="42.1386210" lon="-8.8071780">
        <ele>25.2</ele>
        <time>2021-05-20T06:00:38Z</time>
      </trkpt>
      <trkpt lat="42.1386270" lon="-8.8071720">
        <ele>25.2</ele>
        <time>2021-05-20T06:00:39Z</time>
      </trkpt>
      <trkpt lat="42.1386440" lon="-8.8071600">
        <ele>25.3</ele>
        <time>2021-05-20T06:00:40Z</time>
      </trkpt>
      <trkpt lat="42.1386530" lon="-8.8071450">
        <ele>25.3</ele>
        <time>2021-05-20T06:00:41Z</time>
      </trkpt>
      <trkpt lat="42.1386600" lon="-8.8071320">
        <ele>25.4</ele>
        <time>2021-05-20T06:00:42Z</time>
      </trkpt>
      <trkpt lat="42.1386700" lon="-8.8071250">
        <ele>25.4</ele>
        <time>2021-05-20T06:00:43Z</time>
      </trkpt>
      <trkpt lat="42.1386790" lon="-8.8071220">
        <ele>25.5</ele>
        <time>2021-05-20T06:00:44Z</time>
      </trkpt>
      <trkpt lat="42.1386870" lon="-8.8071190">
        <ele>25.5</ele>
        <time>2021-05-20T06:00:45Z</time>
      </trkpt>
      <trkpt lat="42.1386940" lon="-8.8071150">
        <ele>25.5</ele>
        <time>2021-05-20T06:00:46Z</time>
      </trkpt>
      <trkpt lat="42.1387090" lon="-8.8071100">
        <ele>25.5</ele>
        <time>2021-05-20T06:00:47Z</time>
      </trkpt>
      <trkpt lat="42.1387180" lon="-8.8071070">
        <ele>25.5</ele>
        <time>2021-05-20T06:00:48Z</time>
      </trkpt>
      <trkpt lat="42.1387270" lon="-8.8070950">
        <ele>25.6</ele>
        <time>2021-05-20T06:00:49Z</time>
      </trkpt>
      <trkpt lat="42.1387280" lon="-8.8070820">
        <ele>25.6</ele>
        <time>2021-05-20T06:00:50Z</time>
      </trkpt>
      <trkpt lat="42.1387370" lon="-8.8070690">
        <ele>25.6</ele>
        <time>2021-05-20T06:00:51Z</time>
      </trkpt>
      <trkpt lat="42.1387440" lon="-8.8070610">
        <ele>25.6</ele>
        <time>2021-05-20T06:00:52Z</time>
      </trkpt>
      <trkpt lat="42.1387520" lon="-8.8070550">
        <ele>25.6</ele>
        <time>2021-05-20T06:00:53Z</time>
      </trkpt>
      <trkpt lat="42.1387560" lon="-8.8070490">
        <ele>25.6</ele>
        <time>2021-05-20T06:00:54Z</time>
      </trkpt>
      <trkpt lat="42.1387590" lon="-8.8070420">
        <ele>25.6</ele>
        <time>2021-05-20T06:00:55Z</time>
      </trkpt>
      <trkpt lat="42.1387650" lon="-8.8070410">
        <ele>25.7</ele>
        <time>2021-05-20T06:00:56Z</time>
      </trkpt>
      <trkpt lat="42.1387710" lon="-8.8070360">
        <ele>25.7</ele>
        <time>2021-05-20T06:00:57Z</time>
      </trkpt>
      <trkpt lat="42.1387820" lon="-8.8070350">
        <ele>25.7</ele>
        <time>2021-05-20T06:00:58Z</time>
      </trkpt>
      <trkpt lat="42.1387910" lon="-8.8070310">
        <ele>25.7</ele>
        <time>2021-05-20T06:00:59Z</time>
      </trkpt>
      <trkpt lat="42.1388010" lon="-8.8070310">
        <ele>25.7</ele>
        <time>2021-05-20T06:01:00Z</time>
      </trkpt>
      <trkpt lat="42.1388140" lon="-8.8070290">
        <ele>25.8</ele>
        <time>2021-05-20T06:01:01Z</time>
      </trkpt>
      <trkpt lat="42.1388310" lon="-8.8070270">
        <ele>25.9</ele>
        <time>2021-05-20T06:01:02Z</time>
      </trkpt>
      <trkpt lat="42.1388440" lon="-8.8070270">
        <ele>25.9</ele>
        <time>2021-05-20T06:01:03Z</time>
      </trkpt>
      <trkpt lat="42.1388640" lon="-8.8070330">
        <ele>26.0</ele>
        <time>2021-05-20T06:01:04Z</time>
      </trkpt>
      <trkpt lat="42.1388800" lon="-8.8070320">
        <ele>26.0</ele>
        <time>2021-05-20T06:01:05Z</time>
      </trkpt>
      <trkpt lat="42.1388990" lon="-8.8070280">
        <ele>26.1</ele>
        <time>2021-05-20T06:01:06Z</time>
      </trkpt>
      <trkpt lat="42.1389140" lon="-8.8070360">
        <ele>26.2</ele>
        <time>2021-05-20T06:01:07Z</time>
      </trkpt>
      <trkpt lat="42.1389340" lon="-8.8070410">
        <ele>26.3</ele>
        <time>2021-05-20T06:01:08Z</time>
      </trkpt>
      <trkpt lat="42.1389440" lon="-8.8070430">
        <ele>26.3</ele>
        <time>2021-05-20T06:01:09Z</time>
      </trkpt>
      <trkpt lat="42.1389550" lon="-8.8070460">
        <ele>26.3</ele>
        <time>2021-05-20T06:01:10Z</time>
      </trkpt>
      <trkpt lat="42.1389790" lon="-8.8070440">
        <ele>26.4</ele>
        <time>2021-05-20T06:01:11Z</time>
      </trkpt>
      <trkpt lat="42.1389850" lon="-8.8070400">
        <ele>26.5</ele>
        <time>2021-05-20T06:01:12Z</time>
      </trkpt>
      <trkpt lat="42.1389920" lon="-8.8070370">
        <ele>26.5</ele>
        <time>2021-05-20T06:01:13Z</time>
      </trkpt>
      <trkpt lat="42.1390010" lon="-8.8070280">
        <ele>26.6</ele>
        <time>2021-05-20T06:01:14Z</time>
      </trkpt>
      <trkpt lat="42.1390060" lon="-8.8070260">
        <ele>26.6</ele>
        <time>2021-05-20T06:01:15Z</time>
      </trkpt>
      <trkpt lat="42.1390230" lon="-8.8070280">
        <ele>26.7</ele>
        <time>2021-05-20T06:01:16Z</time>
      </trkpt>
      <trkpt lat="42.1390410" lon="-8.8070310">
        <ele>26.7</ele>
        <time>2021-05-20T06:01:17Z</time>
      </trkpt>
      <trkpt lat="42.1390530" lon="-8.8070240">
        <ele>26.8</ele>
        <time>2021-05-20T06:01:18Z</time>
      </trkpt>
      <trkpt lat="42.1390630" lon="-8.8070220">
        <ele>26.8</ele>
        <time>2021-05-20T06:01:19Z</time>
      </trkpt>
      <trkpt lat="42.1390780" lon="-8.8070080">
        <ele>26.9</ele>
        <time>2021-05-20T06:01:20Z</time>
      </trkpt>
      <trkpt lat="42.1390880" lon="-8.8069940">
        <ele>27.0</ele>
        <time>2021-05-20T06:01:21Z</time>
      </trkpt>
      <trkpt lat="42.1391050" lon="-8.8069790">
        <ele>27.1</ele>
        <time>2021-05-20T06:01:22Z</time>
      </trkpt>
      <trkpt lat="42.1391150" lon="-8.8069700">
        <ele>27.1</ele>
        <time>2021-05-20T06:01:23Z</time>
      </trkpt>
      <trkpt lat="42.1391270" lon="-8.8069450">
        <ele>27.2</ele>
        <time>2021-05-20T06:01:24Z</time>
      </trkpt>
      <trkpt lat="42.1391510" lon="-8.8069250">
        <ele>27.3</ele>
        <time>2021-05-20T06:01:25Z</time>
      </trkpt>
      <trkpt lat="42.1391580" lon="-8.8069180">
        <ele>27.4</ele>
        <time>2021-05-20T06:01:26Z</time>
      </trkpt>
      <trkpt lat="42.1391740" lon="-8.8068990">
        <ele>27.5</ele>
        <time>2021-05-20T06:01:27Z</time>
      </trkpt>
      <trkpt lat="42.1391810" lon="-8.8068850">
        <ele>27.5</ele>
        <time>2021-05-20T06:01:28Z</time>
      </trkpt>
      <trkpt lat="42.1391920" lon="-8.8068770">
        <ele>27.6</ele>
        <time>2021-05-20T06:01:29Z</time>
      </trkpt>
      <trkpt lat="42.1392080" lon="-8.8068750">
        <ele>27.6</ele>
        <time>2021-05-20T06:01:30Z</time>
      </trkpt>
      <trkpt lat="42.1392260" lon="-8.8068720">
        <ele>27.7</ele>
        <time>2021-05-20T06:01:31Z</time>
      </trkpt>
      <trkpt lat="42.1392380" lon="-8.8068630">
        <ele>27.8</ele>
        <time>2021-05-20T06:01:32Z</time>
      </trkpt>
      <trkpt lat="42.1392480" lon="-8.8068560">
        <ele>27.8</ele>
        <time>2021-05-20T06:01:33Z</time>
      </trkpt>
      <trkpt lat="42.1392610" lon="-8.8068430">
        <ele>27.9</ele>
        <time>2021-05-20T06:01:34Z</time>
      </trkpt>
      <trkpt lat="42.1392630" lon="-8.8068380">
        <ele>27.9</ele>
        <time>2021-05-20T06:01:35Z</time>
      </trkpt>
      <trkpt lat="42.1392740" lon="-8.8068230">
        <ele>28.0</ele>
        <time>2021-05-20T06:01:36Z</time>
      </trkpt>
      <trkpt lat="42.1392760" lon="-8.8068110">
        <ele>28.0</ele>
        <time>2021-05-20T06:01:37Z</time>
      </trkpt>
      <trkpt lat="42.1392910" lon="-8.8068060">
        <ele>28.1</ele>
        <time>2021-05-20T06:01:38Z</time>
      </trkpt>
      <trkpt lat="42.1393050" lon="-8.8068050">
        <ele>28.2</ele>
        <time>2021-05-20T06:01:39Z</time>
      </trkpt>
      <trkpt lat="42.1393320" lon="-8.8067950">
        <ele>28.3</ele>
        <time>2021-05-20T06:01:40Z</time>
      </trkpt>
      <trkpt lat="42.1393440" lon="-8.8067930">
        <ele>28.4</ele>
        <time>2021-05-20T06:01:41Z</time>
      </trkpt>
      <trkpt lat="42.1393640" lon="-8.8067860">
        <ele>28.5</ele>
        <time>2021-05-20T06:01:42Z</time>
      </trkpt>
      <trkpt lat="42.1393760" lon="-8.8067810">
        <ele>28.5</ele>
        <time>2021-05-20T06:01:43Z</time>
      </trkpt>
      <trkpt lat="42.1393850" lon="-8.8067790">
        <ele>28.6</ele>
        <time>2021-05-20T06:01:44Z</time>
      </trkpt>
      <trkpt lat="42.1393920" lon="-8.8067750">
        <ele>28.6</ele>
        <time>2021-05-20T06:01:45Z</time>
      </trkpt>
      <trkpt lat="42.1394100" lon="-8.8067700">
        <ele>28.7</ele>
        <time>2021-05-20T06:01:46Z</time>
      </trkpt>
      <trkpt lat="42.1394290" lon="-8.8067640">
        <ele>28.8</ele>
        <time>2021-05-20T06:01:47Z</time>
      </trkpt>
      <trkpt lat="42.1394390" lon="-8.8067610">
        <ele>28.9</ele>
        <time>2021-05-20T06:01:48Z</time>
      </trkpt>
      <trkpt lat="42.1394480" lon="-8.8067580">
        <ele>28.9</ele>
        <time>2021-05-20T06:01:49Z</time>
      </trkpt>
      <trkpt lat="42.1394600" lon="-8.8067580">
        <ele>29.0</ele>
        <time>2021-05-20T06:01:50Z</time>
      </trkpt>
      <trkpt lat="42.1394770" lon="-8.8067650">
        <ele>29.1</ele>
        <time>2021-05-20T06:01:51Z</time>
      </trkpt>
      <trkpt lat="42.1394880" lon="-8.8067690">
        <ele>29.1</ele>
        <time>2021-05-20T06:01:52Z</time>
      </trkpt>
      <trkpt lat="42.1395030" lon="-8.8067670">
        <ele>29.2</ele>
        <time>2021-05-20T06:01:53Z</time>
      </trkpt>
      <trkpt lat="42.1395120" lon="-8.8067600">
        <ele>29.3</ele>
        <time>2021-05-20T06:01:54Z</time>
      </trkpt>
      <trkpt lat="42.1395280" lon="-8.8067520">
        <ele>29.4</ele>
        <time>2021-05-20T06:01:55Z</time>
      </trkpt>
      <trkpt lat="42.1395360" lon="-8.8067470">
        <ele>29.4</ele>
        <time>2021-05-20T06:01:56Z</time>
      </trkpt>
      <trkpt lat="42.1395450" lon="-8.8067420">
        <ele>29.5</ele>
        <time>2021-05-20T06:01:57Z</time>
      </trkpt>
      <trkpt lat="42.1395570" lon="-8.8067320">
        <ele>29.5</ele>
        <time>2021-05-20T06:01:58Z</time>
      </trkpt>
      <trkpt lat="42.1395710" lon="-8.8067270">
        <ele>29.6</ele>
        <time>2021-05-20T06:01:59Z</time>
      </trkpt>
      <trkpt lat="42.1395850" lon="-8.8067210">
        <ele>29.7</ele>
        <time>2021-05-20T06:02:00Z</time>
      </trkpt>
      <trkpt lat="42.1395870" lon="-8.8067200">
        <ele>29.7</ele>
        <time>2021-05-20T06:02:01Z</time>
      </trkpt>
      <trkpt lat="42.1395990" lon="-8.8067080">
        <ele>29.8</ele>
        <time>2021-05-20T06:02:02Z</time>
      </trkpt>
      <trkpt lat="42.1396060" lon="-8.8067020">
        <ele>29.8</ele>
        <time>2021-05-20T06:02:03Z</time>
      </trkpt>
      <trkpt lat="42.1396150" lon="-8.8067020">
        <ele>29.9</ele>
        <time>2021-05-20T06:02:04Z</time>
      </trkpt>
      <trkpt lat="42.1396220" lon="-8.8067020">
        <ele>29.9</ele>
        <time>2021-05-20T06:02:05Z</time>
      </trkpt>
      <trkpt lat="42.1396290" lon="-8.8066980">
        <ele>30.0</ele>
        <time>2021-05-20T06:02:06Z</time>
      </trkpt>
      <trkpt lat="42.1396380" lon="-8.8066940">
        <ele>30.0</ele>
        <time>2021-05-20T06:02:07Z</time>
      </trkpt>
      <trkpt lat="42.1396500" lon="-8.8066930">
        <ele>30.1</ele>
        <time>2021-05-20T06:02:08Z</time>
      </trkpt>
      <trkpt lat="42.1396600" lon="-8.8066840">
        <ele>30.1</ele>
        <time>2021-05-20T06:02:09Z</time>
      </trkpt>
      <trkpt lat="42.1396720" lon="-8.8066800">
        <ele>30.2</ele>
        <time>2021-05-20T06:02:10Z</time>
      </trkpt>
      <trkpt lat="42.1396870" lon="-8.8066760">
        <ele>30.3</ele>
        <time>2021-05-20T06:02:11Z</time>
      </trkpt>
      <trkpt lat="42.1397010" lon="-8.8066740">
        <ele>30.3</ele>
        <time>2021-05-20T06:02:12Z</time>
      </trkpt>
      <trkpt lat="42.1397020" lon="-8.8066710">
        <ele>30.4</ele>
        <time>2021-05-20T06:02:13Z</time>
      </trkpt>
      <trkpt lat="42.1396980" lon="-8.8066740">
        <ele>30.4</ele>
        <time>2021-05-20T06:02:14Z</time>
      </trkpt>
      <trkpt lat="42.1397060" lon="-8.8066700">
        <ele>30.4</ele>
        <time>2021-05-20T06:02:15Z</time>
      </trkpt>
      <trkpt lat="42.1397030" lon="-8.8066590">
        <ele>30.5</ele>
        <time>2021-05-20T06:02:16Z</time>
      </trkpt>
      <trkpt lat="42.1397110" lon="-8.8066650">
        <ele>30.5</ele>
        <time>2021-05-20T06:02:17Z</time>
      </trkpt>
      <trkpt lat="42.1397180" lon="-8.8066670">
        <ele>30.6</ele>
        <time>2021-05-20T06:02:18Z</time>
      </trkpt>
      <trkpt lat="42.1397280" lon="-8.8066870">
        <ele>30.6</ele>
        <time>2021-05-20T06:02:19Z</time>
      </trkpt>
      <trkpt lat="42.1397270" lon="-8.8066950">
        <ele>30.7</ele>
        <time>2021-05-20T06:02:20Z</time>
      </trkpt>
      <trkpt lat="42.1397200" lon="-8.8067050">
        <ele>30.7</ele>
        <time>2021-05-20T06:02:21Z</time>
      </trkpt>
      <trkpt lat="42.1397180" lon="-8.8067070">
        <ele>30.7</ele>
        <time>2021-05-20T06:02:22Z</time>
      </trkpt>
      <trkpt lat="42.1397220" lon="-8.8067060">
        <ele>30.8</ele>
        <time>2021-05-20T06:02:23Z</time>
      </trkpt>
      <trkpt lat="42.1397260" lon="-8.8067040">
        <ele>30.8</ele>
        <time>2021-05-20T06:02:24Z</time>
      </trkpt>
      <trkpt lat="42.1397300" lon="-8.8067020">
        <ele>30.8</ele>
        <time>2021-05-20T06:02:25Z</time>
      </trkpt>
      <trkpt lat="42.1397350" lon="-8.8067010">
        <ele>30.8</ele>
        <time>2021-05-20T06:02:26Z</time>
      </trkpt>
      <trkpt lat="42.1397390" lon="-8.8066990">
        <ele>30.9</ele>
        <time>2021-05-20T06:02:27Z</time>
      </trkpt>
      <trkpt lat="42.1397430" lon="-8.8066970">
        <ele>30.9</ele>
        <time>2021-05-20T06:02:28Z</time>
      </trkpt>
      <trkpt lat="42.1397470" lon="-8.8066950">
        <ele>30.9</ele>
        <time>2021-05-20T06:02:29Z</time>
      </trkpt>
      <trkpt lat="42.1397510" lon="-8.8066940">
        <ele>30.9</ele>
        <time>2021-05-20T06:02:30Z</time>
      </trkpt>
      <trkpt lat="42.1397550" lon="-8.8066920">
        <ele>30.9</ele>
        <time>2021-05-20T06:02:31Z</time>
      </trkpt>
      <trkpt lat="42.1397740" lon="-8.8066600">
        <ele>31.1</ele>
        <time>2021-05-20T06:02:32Z</time>
      </trkpt>
      <trkpt lat="42.1397910" lon="-8.8066430">
        <ele>31.2</ele>
        <time>2021-05-20T06:02:33Z</time>
      </trkpt>
      <trkpt lat="42.1397970" lon="-8.8066420">
        <ele>31.2</ele>
        <time>2021-05-20T06:02:34Z</time>
      </trkpt>
      <trkpt lat="42.1398040" lon="-8.8066420">
        <ele>31.3</ele>
        <time>2021-05-20T06:02:35Z</time>
      </trkpt>
      <trkpt lat="42.1398100" lon="-8.8066410">
        <ele>31.3</ele>
        <time>2021-05-20T06:02:36Z</time>
      </trkpt>
      <trkpt lat="42.1398260" lon="-8.8066380">
        <ele>31.4</ele>
        <time>2021-05-20T06:02:37Z</time>
      </trkpt>
      <trkpt lat="42.1398400" lon="-8.8066330">
        <ele>31.5</ele>
        <time>2021-05-20T06:02:38Z</time>
      </trkpt>
      <trkpt lat="42.1398530" lon="-8.8066320">
        <ele>31.6</ele>
        <time>2021-05-20T06:02:39Z</time>
      </trkpt>
      <trkpt lat="42.1398700" lon="-8.8066260">
        <ele>31.7</ele>
        <time>2021-05-20T06:02:40Z</time>
      </trkpt>
      <trkpt lat="42.1398850" lon="-8.8066280">
        <ele>31.8</ele>
        <time>2021-05-20T06:02:41Z</time>
      </trkpt>
      <trkpt lat="42.1398990" lon="-8.8066220">
        <ele>31.8</ele>
        <time>2021-05-20T06:02:42Z</time>
      </trkpt>
      <trkpt lat="42.1399220" lon="-8.8066180">
        <ele>32.0</ele>
        <time>2021-05-20T06:02:43Z</time>
      </trkpt>
      <trkpt lat="42.1399330" lon="-8.8066150">
        <ele>32.0</ele>
        <time>2021-05-20T06:02:44Z</time>
      </trkpt>
      <trkpt lat="42.1399440" lon="-8.8066110">
        <ele>32.1</ele>
        <time>2021-05-20T06:02:45Z</time>
      </trkpt>
      <trkpt lat="42.1399750" lon="-8.8066080">
        <ele>32.3</ele>
        <time>2021-05-20T06:02:46Z</time>
      </trkpt>
      <trkpt lat="42.1399840" lon="-8.8066090">
        <ele>32.4</ele>
        <time>2021-05-20T06:02:47Z</time>
      </trkpt>
      <trkpt lat="42.1399970" lon="-8.8066060">
        <ele>32.4</ele>
        <time>2021-05-20T06:02:48Z</time>
      </trkpt>
      <trkpt lat="42.1400200" lon="-8.8066050">
        <ele>32.6</ele>
        <time>2021-05-20T06:02:49Z</time>
      </trkpt>
      <trkpt lat="42.1400370" lon="-8.8066010">
        <ele>32.7</ele>
        <time>2021-05-20T06:02:50Z</time>
      </trkpt>
      <trkpt lat="42.1400530" lon="-8.8065950">
        <ele>32.8</ele>
        <time>2021-05-20T06:02:51Z</time>
      </trkpt>
      <trkpt lat="42.1400670" lon="-8.8065900">
        <ele>32.9</ele>
        <time>2021-05-20T06:02:52Z</time>
      </trkpt>
      <trkpt lat="42.1400800" lon="-8.8065820">
        <ele>33.0</ele>
        <time>2021-05-20T06:02:53Z</time>
      </trkpt>
      <trkpt lat="42.1400940" lon="-8.8065700">
        <ele>33.1</ele>
        <time>2021-05-20T06:02:54Z</time>
      </trkpt>
      <trkpt lat="42.1401080" lon="-8.8065690">
        <ele>33.1</ele>
        <time>2021-05-20T06:02:55Z</time>
      </trkpt>
      <trkpt lat="42.1401240" lon="-8.8065580">
        <ele>33.3</ele>
        <time>2021-05-20T06:02:56Z</time>
      </trkpt>
      <trkpt lat="42.1401400" lon="-8.8065470">
        <ele>33.4</ele>
        <time>2021-05-20T06:02:57Z</time>
      </trkpt>
      <trkpt lat="42.1401640" lon="-8.8065370">
        <ele>33.5</ele>
        <time>2021-05-20T06:02:58Z</time>
      </trkpt>
      <trkpt lat="42.1401760" lon="-8.8065360">
        <ele>33.6</ele>
        <time>2021-05-20T06:02:59Z</time>
      </trkpt>
      <trkpt lat="42.1402070" lon="-8.8065360">
        <ele>33.8</ele>
        <time>2021-05-20T06:03:00Z</time>
      </trkpt>
      <trkpt lat="42.1402160" lon="-8.8065360">
        <ele>33.9</ele>
        <time>2021-05-20T06:03:01Z</time>
      </trkpt>
      <trkpt lat="42.1402480" lon="-8.8065380">
        <ele>34.1</ele>
        <time>2021-05-20T06:03:02Z</time>
      </trkpt>
      <trkpt lat="42.1402590" lon="-8.8065350">
        <ele>34.1</ele>
        <time>2021-05-20T06:03:03Z</time>
      </trkpt>
      <trkpt lat="42.1402750" lon="-8.8065300">
        <ele>34.2</ele>
        <time>2021-05-20T06:03:04Z</time>
      </trkpt>
      <trkpt lat="42.1402790" lon="-8.8065210">
        <ele>34.3</ele>
        <time>2021-05-20T06:03:05Z</time>
      </trkpt>
      <trkpt lat="42.1402890" lon="-8.8065100">
        <ele>34.4</ele>
        <time>2021-05-20T06:03:06Z</time>
      </trkpt>
      <trkpt lat="42.1403000" lon="-8.8065010">
        <ele>34.4</ele>
        <time>2021-05-20T06:03:07Z</time>
      </trkpt>
      <trkpt lat="42.1403050" lon="-8.8064970">
        <ele>34.5</ele>
        <time>2021-05-20T06:03:08Z</time>
      </trkpt>
      <trkpt lat="42.1403110" lon="-8.8064940">
        <ele>34.5</ele>
        <time>2021-05-20T06:03:09Z</time>
      </trkpt>
      <trkpt lat="42.1403160" lon="-8.8064900">
        <ele>34.5</ele>
        <time>2021-05-20T06:03:10Z</time>
      </trkpt>
      <trkpt lat="42.1403220" lon="-8.8064870">
        <ele>34.6</ele>
        <time>2021-05-20T06:03:11Z</time>
      </trkpt>
      <trkpt lat="42.1403450" lon="-8.8064840">
        <ele>34.7</ele>
        <time>2021-05-20T06:03:12Z</time>
      </trkpt>
      <trkpt lat="42.1403520" lon="-8.8064850">
        <ele>34.8</ele>
        <time>2021-05-20T06:03:13Z</time>
      </trkpt>
      <trkpt lat="42.1403610" lon="-8.8064840">
        <ele>34.8</ele>
        <time>2021-05-20T06:03:14Z</time>
      </trkpt>
      <trkpt lat="42.1403670" lon="-8.8064850">
        <ele>34.8</ele>
        <time>2021-05-20T06:03:15Z</time>
      </trkpt>
      <trkpt lat="42.1403820" lon="-8.8064780">
        <ele>34.9</ele>
        <time>2021-05-20T06:03:16Z</time>
      </trkpt>
      <trkpt lat="42.1404040" lon="-8.8064710">
        <ele>35.0</ele>
        <time>2021-05-20T06:03:17Z</time>
      </trkpt>
      <trkpt lat="42.1404130" lon="-8.8064650">
        <ele>35.1</ele>
        <time>2021-05-20T06:03:18Z</time>
      </trkpt>
      <trkpt lat="42.1404230" lon="-8.8064590">
        <ele>35.1</ele>
        <time>2021-05-20T06:03:19Z</time>
      </trkpt>
      <trkpt lat="42.1404360" lon="-8.8064470">
        <ele>35.2</ele>
        <time>2021-05-20T06:03:20Z</time>
      </trkpt>
      <trkpt lat="42.1404430" lon="-8.8064320">
        <ele>35.2</ele>
        <time>2021-05-20T06:03:21Z</time>
      </trkpt>
      <trkpt lat="42.1404520" lon="-8.8064180">
        <ele>35.3</ele>
        <time>2021-05-20T06:03:22Z</time>
      </trkpt>
      <trkpt lat="42.1404680" lon="-8.8064210">
        <ele>35.4</ele>
        <time>2021-05-20T06:03:23Z</time>
      </trkpt>
      <trkpt lat="42.1404760" lon="-8.8064170">
        <ele>35.4</ele>
        <time>2021-05-20T06:03:24Z</time>
      </trkpt>
      <trkpt lat="42.1405030" lon="-8.8064210">
        <ele>35.5</ele>
        <time>2021-05-20T06:03:25Z</time>
      </trkpt>
      <trkpt lat="42.1405250" lon="-8.8064200">
        <ele>35.6</ele>
        <time>2021-05-20T06:03:26Z</time>
      </trkpt>
      <trkpt lat="42.1405360" lon="-8.8064220">
        <ele>35.6</ele>
        <time>2021-05-20T06:03:27Z</time>
      </trkpt>
      <trkpt lat="42.1405460" lon="-8.8064230">
        <ele>35.7</ele>
        <time>2021-05-20T06:03:28Z</time>
      </trkpt>
      <trkpt lat="42.1405590" lon="-8.8064220">
        <ele>35.7</ele>
        <time>2021-05-20T06:03:29Z</time>
      </trkpt>
      <trkpt lat="42.1405620" lon="-8.8064250">
        <ele>35.7</ele>
        <time>2021-05-20T06:03:30Z</time>
      </trkpt>
      <trkpt lat="42.1405740" lon="-8.8064220">
        <ele>35.8</ele>
        <time>2021-05-20T06:03:31Z</time>
      </trkpt>
      <trkpt lat="42.1405900" lon="-8.8064160">
        <ele>35.8</ele>
        <time>2021-05-20T06:03:32Z</time>
      </trkpt>
      <trkpt lat="42.1406060" lon="-8.8064160">
        <ele>35.9</ele>
        <time>2021-05-20T06:03:33Z</time>
      </trkpt>
      <trkpt lat="42.1406140" lon="-8.8064080">
        <ele>35.9</ele>
        <time>2021-05-20T06:03:34Z</time>
      </trkpt>
      <trkpt lat="42.1406230" lon="-8.8064020">
        <ele>35.9</ele>
        <time>2021-05-20T06:03:35Z</time>
      </trkpt>
      <trkpt lat="42.1406290" lon="-8.8064030">
        <ele>36.0</ele>
        <time>2021-05-20T06:03:36Z</time>
      </trkpt>
      <trkpt lat="42.1406380" lon="-8.8064020">
        <ele>36.1</ele>
        <time>2021-05-20T06:03:37Z</time>
      </trkpt>
      <trkpt lat="42.1406540" lon="-8.8064120">
        <ele>36.2</ele>
        <time>2021-05-20T06:03:38Z</time>
      </trkpt>
      <trkpt lat="42.1406650" lon="-8.8064220">
        <ele>36.2</ele>
        <time>2021-05-20T06:03:39Z</time>
      </trkpt>
      <trkpt lat="42.1406800" lon="-8.8064220">
        <ele>36.3</ele>
        <time>2021-05-20T06:03:40Z</time>
      </trkpt>
      <trkpt lat="42.1406970" lon="-8.8064250">
        <ele>36.4</ele>
        <time>2021-05-20T06:03:41Z</time>
      </trkpt>
      <trkpt lat="42.1407040" lon="-8.8064270">
        <ele>36.4</ele>
        <time>2021-05-20T06:03:42Z</time>
      </trkpt>
      <trkpt lat="42.1407100" lon="-8.8064250">
        <ele>36.5</ele>
        <time>2021-05-20T06:03:43Z</time>
      </trkpt>
      <trkpt lat="42.1407180" lon="-8.8064300">
        <ele>36.5</ele>
        <time>2021-05-20T06:03:44Z</time>
      </trkpt>
      <trkpt lat="42.1407220" lon="-8.8064330">
        <ele>36.5</ele>
        <time>2021-05-20T06:03:45Z</time>
      </trkpt>
      <trkpt lat="42.1407270" lon="-8.8064320">
        <ele>36.6</ele>
        <time>2021-05-20T06:03:46Z</time>
      </trkpt>
      <trkpt lat="42.1407450" lon="-8.8064300">
        <ele>36.7</ele>
        <time>2021-05-20T06:03:47Z</time>
      </trkpt>
      <trkpt lat="42.1407480" lon="-8.8064150">
        <ele>36.7</ele>
        <time>2021-05-20T06:03:48Z</time>
      </trkpt>
      <trkpt lat="42.1407580" lon="-8.8064130">
        <ele>36.8</ele>
        <time>2021-05-20T06:03:49Z</time>
      </trkpt>
      <trkpt lat="42.1407830" lon="-8.8064040">
        <ele>36.9</ele>
        <time>2021-05-20T06:03:50Z</time>
      </trkpt>
      <trkpt lat="42.1407940" lon="-8.8064010">
        <ele>37.0</ele>
        <time>2021-05-20T06:03:51Z</time>
      </trkpt>
      <trkpt lat="42.1408040" lon="-8.8063980">
        <ele>37.0</ele>
        <time>2021-05-20T06:03:52Z</time>
      </trkpt>
      <trkpt lat="42.1408290" lon="-8.8063710">
        <ele>37.2</ele>
        <time>2021-05-20T06:03:53Z</time>
      </trkpt>
      <trkpt lat="42.1408360" lon="-8.8063600">
        <ele>37.2</ele>
        <time>2021-05-20T06:03:54Z</time>
      </trkpt>
      <trkpt lat="42.1408660" lon="-8.8063270">
        <ele>37.4</ele>
        <time>2021-05-20T06:03:55Z</time>
      </trkpt>
      <trkpt lat="42.1408770" lon="-8.8063180">
        <ele>37.5</ele>
        <time>2021-05-20T06:03:56Z</time>
      </trkpt>
      <trkpt lat="42.1408880" lon="-8.8062770">
        <ele>37.6</ele>
        <time>2021-05-20T06:03:57Z</time>
      </trkpt>
      <trkpt lat="42.1409140" lon="-8.8062580">
        <ele>37.8</ele>
        <time>2021-05-20T06:03:58Z</time>
      </trkpt>
      <trkpt lat="42.1409200" lon="-8.8062510">
        <ele>37.8</ele>
        <time>2021-05-20T06:03:59Z</time>
      </trkpt>
      <trkpt lat="42.1409490" lon="-8.8062350">
        <ele>37.9</ele>
        <time>2021-05-20T06:04:00Z</time>
      </trkpt>
      <trkpt lat="42.1409550" lon="-8.8062280">
        <ele>38.0</ele>
        <time>2021-05-20T06:04:01Z</time>
      </trkpt>
      <trkpt lat="42.1409710" lon="-8.8062210">
        <ele>38.0</ele>
        <time>2021-05-20T06:04:02Z</time>
      </trkpt>
      <trkpt lat="42.1409820" lon="-8.8062200">
        <ele>38.1</ele>
        <time>2021-05-20T06:04:03Z</time>
      </trkpt>
      <trkpt lat="42.1410010" lon="-8.8062190">
        <ele>38.2</ele>
        <time>2021-05-20T06:04:04Z</time>
      </trkpt>
      <trkpt lat="42.1410110" lon="-8.8062180">
        <ele>38.2</ele>
        <time>2021-05-20T06:04:05Z</time>
      </trkpt>
      <trkpt lat="42.1410200" lon="-8.8062160">
        <ele>38.3</ele>
        <time>2021-05-20T06:04:06Z</time>
      </trkpt>
      <trkpt lat="42.1410250" lon="-8.8062160">
        <ele>38.3</ele>
        <time>2021-05-20T06:04:07Z</time>
      </trkpt>
      <trkpt lat="42.1410380" lon="-8.8062140">
        <ele>38.3</ele>
        <time>2021-05-20T06:04:08Z</time>
      </trkpt>
      <trkpt lat="42.1410500" lon="-8.8062110">
        <ele>38.4</ele>
        <time>2021-05-20T06:04:09Z</time>
      </trkpt>
      <trkpt lat="42.1410670" lon="-8.8062140">
        <ele>38.5</ele>
        <time>2021-05-20T06:04:10Z</time>
      </trkpt>
      <trkpt lat="42.1410850" lon="-8.8062180">
        <ele>38.5</ele>
        <time>2021-05-20T06:04:11Z</time>
      </trkpt>
      <trkpt lat="42.1411070" lon="-8.8062110">
        <ele>38.6</ele>
        <time>2021-05-20T06:04:12Z</time>
      </trkpt>
      <trkpt lat="42.1411120" lon="-8.8062030">
        <ele>38.7</ele>
        <time>2021-05-20T06:04:13Z</time>
      </trkpt>
      <trkpt lat="42.1411180" lon="-8.8061960">
        <ele>38.7</ele>
        <time>2021-05-20T06:04:14Z</time>
      </trkpt>
      <trkpt lat="42.1411380" lon="-8.8062010">
        <ele>38.8</ele>
        <time>2021-05-20T06:04:15Z</time>
      </trkpt>
      <trkpt lat="42.1411460" lon="-8.8061930">
        <ele>38.8</ele>
        <time>2021-05-20T06:04:16Z</time>
      </trkpt>
      <trkpt lat="42.1411590" lon="-8.8061910">
        <ele>38.9</ele>
        <time>2021-05-20T06:04:17Z</time>
      </trkpt>
      <trkpt lat="42.1411740" lon="-8.8061860">
        <ele>38.9</ele>
        <time>2021-05-20T06:04:18Z</time>
      </trkpt>
      <trkpt lat="42.1411990" lon="-8.8061890">
        <ele>39.0</ele>
        <time>2021-05-20T06:04:19Z</time>
      </trkpt>
      <trkpt lat="42.1412120" lon="-8.8061940">
        <ele>39.0</ele>
        <time>2021-05-20T06:04:20Z</time>
      </trkpt>
      <trkpt lat="42.1412400" lon="-8.8062080">
        <ele>39.0</ele>
        <time>2021-05-20T06:04:21Z</time>
      </trkpt>
      <trkpt lat="42.1412580" lon="-8.8062090">
        <ele>39.1</ele>
        <time>2021-05-20T06:04:22Z</time>
      </trkpt>
      <trkpt lat="42.1412750" lon="-8.8062120">
        <ele>39.1</ele>
        <time>2021-05-20T06:04:23Z</time>
      </trkpt>
      <trkpt lat="42.1412940" lon="-8.8062130">
        <ele>39.1</ele>
        <time>2021-05-20T06:04:24Z</time>
      </trkpt>
      <trkpt lat="42.1413100" lon="-8.8062130">
        <ele>39.2</ele>
        <time>2021-05-20T06:04:25Z</time>
      </trkpt>
      <trkpt lat="42.1413270" lon="-8.8062130">
        <ele>39.2</ele>
        <time>2021-05-20T06:04:26Z</time>
      </trkpt>
      <trkpt lat="42.1413440" lon="-8.8062260">
        <ele>39.2</ele>
        <time>2021-05-20T06:04:27Z</time>
      </trkpt>
      <trkpt lat="42.1413570" lon="-8.8062300">
        <ele>39.3</ele>
        <time>2021-05-20T06:04:28Z</time>
      </trkpt>
      <trkpt lat="42.1413780" lon="-8.8062270">
        <ele>39.3</ele>
        <time>2021-05-20T06:04:29Z</time>
      </trkpt>
      <trkpt lat="42.1413910" lon="-8.8062270">
        <ele>39.4</ele>
        <time>2021-05-20T06:04:30Z</time>
      </trkpt>
      <trkpt lat="42.1414090" lon="-8.8062300">
        <ele>39.4</ele>
        <time>2021-05-20T06:04:31Z</time>
      </trkpt>
      <trkpt lat="42.1414130" lon="-8.8062290">
        <ele>39.4</ele>
        <time>2021-05-20T06:04:32Z</time>
      </trkpt>
      <trkpt lat="42.1414190" lon="-8.8062220">
        <ele>39.4</ele>
        <time>2021-05-20T06:04:33Z</time>
      </trkpt>
      <trkpt lat="42.1414360" lon="-8.8062260">
        <ele>39.5</ele>
        <time>2021-05-20T06:04:34Z</time>
      </trkpt>
      <trkpt lat="42.1414570" lon="-8.8062280">
        <ele>39.6</ele>
        <time>2021-05-20T06:04:35Z</time>
      </trkpt>
      <trkpt lat="42.1414690" lon="-8.8062300">
        <ele>39.6</ele>
        <time>2021-05-20T06:04:36Z</time>
      </trkpt>
      <trkpt lat="42.1414800" lon="-8.8062330">
        <ele>39.6</ele>
        <time>2021-05-20T06:04:37Z</time>
      </trkpt>
      <trkpt lat="42.1414920" lon="-8.8062360">
        <ele>39.7</ele>
        <time>2021-05-20T06:04:38Z</time>
      </trkpt>
      <trkpt lat="42.1415050" lon="-8.8062440">
        <ele>39.7</ele>
        <time>2021-05-20T06:04:39Z</time>
      </trkpt>
      <trkpt lat="42.1415190" lon="-8.8062510">
        <ele>39.7</ele>
        <time>2021-05-20T06:04:40Z</time>
      </trkpt>
      <trkpt lat="42.1415530" lon="-8.8062580">
        <ele>39.9</ele>
        <time>2021-05-20T06:04:41Z</time>
      </trkpt>
      <trkpt lat="42.1415620" lon="-8.8062570">
        <ele>39.9</ele>
        <time>2021-05-20T06:04:42Z</time>
      </trkpt>
      <trkpt lat="42.1415750" lon="-8.8062600">
        <ele>39.9</ele>
        <time>2021-05-20T06:04:43Z</time>
      </trkpt>
      <trkpt lat="42.1415890" lon="-8.8062670">
        <ele>40.0</ele>
        <time>2021-05-20T06:04:44Z</time>
      </trkpt>
      <trkpt lat="42.1416000" lon="-8.8062720">
        <ele>40.0</ele>
        <time>2021-05-20T06:04:45Z</time>
      </trkpt>
      <trkpt lat="42.1416150" lon="-8.8062680">
        <ele>40.1</ele>
        <time>2021-05-20T06:04:46Z</time>
      </trkpt>
      <trkpt lat="42.1416250" lon="-8.8062680">
        <ele>40.1</ele>
        <time>2021-05-20T06:04:47Z</time>
      </trkpt>
      <trkpt lat="42.1416330" lon="-8.8062710">
        <ele>40.1</ele>
        <time>2021-05-20T06:04:48Z</time>
      </trkpt>
      <trkpt lat="42.1416390" lon="-8.8062720">
        <ele>40.2</ele>
        <time>2021-05-20T06:04:49Z</time>
      </trkpt>
      <trkpt lat="42.1416600" lon="-8.8062710">
        <ele>40.2</ele>
        <time>2021-05-20T06:04:50Z</time>
      </trkpt>
      <trkpt lat="42.1416850" lon="-8.8062720">
        <ele>40.3</ele>
        <time>2021-05-20T06:04:51Z</time>
      </trkpt>
      <trkpt lat="42.1416920" lon="-8.8062720">
        <ele>40.3</ele>
        <time>2021-05-20T06:04:52Z</time>
      </trkpt>
      <trkpt lat="42.1417000" lon="-8.8062730">
        <ele>40.4</ele>
        <time>2021-05-20T06:04:53Z</time>
      </trkpt>
      <trkpt lat="42.1417140" lon="-8.8062790">
        <ele>40.4</ele>
        <time>2021-05-20T06:04:54Z</time>
      </trkpt>
      <trkpt lat="42.1417210" lon="-8.8062800">
        <ele>40.5</ele>
        <time>2021-05-20T06:04:55Z</time>
      </trkpt>
      <trkpt lat="42.1417320" lon="-8.8062830">
        <ele>40.5</ele>
        <time>2021-05-20T06:04:56Z</time>
      </trkpt>
      <trkpt lat="42.1417540" lon="-8.8062930">
        <ele>40.6</ele>
        <time>2021-05-20T06:04:57Z</time>
      </trkpt>
      <trkpt lat="42.1417610" lon="-8.8062970">
        <ele>40.7</ele>
        <time>2021-05-20T06:04:58Z</time>
      </trkpt>
      <trkpt lat="42.1417680" lon="-8.8063020">
        <ele>40.7</ele>
        <time>2021-05-20T06:04:59Z</time>
      </trkpt>
      <trkpt lat="42.1417830" lon="-8.8063080">
        <ele>40.8</ele>
        <time>2021-05-20T06:05:00Z</time>
      </trkpt>
      <trkpt lat="42.1417940" lon="-8.8063180">
        <ele>40.8</ele>
        <time>2021-05-20T06:05:01Z</time>
      </trkpt>
      <trkpt lat="42.1418110" lon="-8.8063240">
        <ele>40.9</ele>
        <time>2021-05-20T06:05:02Z</time>
      </trkpt>
      <trkpt lat="42.1418210" lon="-8.8063370">
        <ele>41.0</ele>
        <time>2021-05-20T06:05:03Z</time>
      </trkpt>
      <trkpt lat="42.1418310" lon="-8.8063470">
        <ele>41.0</ele>
        <time>2021-05-20T06:05:04Z</time>
      </trkpt>
      <trkpt lat="42.1418390" lon="-8.8063540">
        <ele>41.1</ele>
        <time>2021-05-20T06:05:05Z</time>
      </trkpt>
      <trkpt lat="42.1418490" lon="-8.8063570">
        <ele>41.1</ele>
        <time>2021-05-20T06:05:06Z</time>
      </trkpt>
      <trkpt lat="42.1418580" lon="-8.8063590">
        <ele>41.2</ele>
        <time>2021-05-20T06:05:07Z</time>
      </trkpt>
      <trkpt lat="42.1418700" lon="-8.8063670">
        <ele>41.2</ele>
        <time>2021-05-20T06:05:08Z</time>
      </trkpt>
      <trkpt lat="42.1418800" lon="-8.8063690">
        <ele>41.3</ele>
        <time>2021-05-20T06:05:09Z</time>
      </trkpt>
      <trkpt lat="42.1418860" lon="-8.8063660">
        <ele>41.3</ele>
        <time>2021-05-20T06:05:10Z</time>
      </trkpt>
      <trkpt lat="42.1418900" lon="-8.8063570">
        <ele>41.3</ele>
        <time>2021-05-20T06:05:11Z</time>
      </trkpt>
      <trkpt lat="42.1418940" lon="-8.8063520">
        <ele>41.4</ele>
        <time>2021-05-20T06:05:12Z</time>
      </trkpt>
      <trkpt lat="42.1418920" lon="-8.8063510">
        <ele>41.4</ele>
        <time>2021-05-20T06:05:13Z</time>
      </trkpt>
      <trkpt lat="42.1419060" lon="-8.8063500">
        <ele>41.4</ele>
        <time>2021-05-20T06:05:14Z</time>
      </trkpt>
      <trkpt lat="42.1419110" lon="-8.8063610">
        <ele>41.5</ele>
        <time>2021-05-20T06:05:15Z</time>
      </trkpt>
      <trkpt lat="42.1419170" lon="-8.8063710">
        <ele>41.5</ele>
        <time>2021-05-20T06:05:16Z</time>
      </trkpt>
      <trkpt lat="42.1419310" lon="-8.8063820">
        <ele>41.6</ele>
        <time>2021-05-20T06:05:17Z</time>
      </trkpt>
      <trkpt lat="42.1419290" lon="-8.8063810">
        <ele>41.6</ele>
        <time>2021-05-20T06:05:18Z</time>
      </trkpt>
      <trkpt lat="42.1419360" lon="-8.8063880">
        <ele>41.7</ele>
        <time>2021-05-20T06:05:19Z</time>
      </trkpt>
      <trkpt lat="42.1419460" lon="-8.8063970">
        <ele>41.7</ele>
        <time>2021-05-20T06:05:20Z</time>
      </trkpt>
      <trkpt lat="42.1419600" lon="-8.8064080">
        <ele>41.8</ele>
        <time>2021-05-20T06:05:21Z</time>
      </trkpt>
      <trkpt lat="42.1419810" lon="-8.8064360">
        <ele>41.9</ele>
        <time>2021-05-20T06:05:22Z</time>
      </trkpt>
      <trkpt lat="42.1419900" lon="-8.8064520">
        <ele>42.0</ele>
        <time>2021-05-20T06:05:23Z</time>
      </trkpt>
      <trkpt lat="42.1420080" lon="-8.8064740">
        <ele>42.1</ele>
        <time>2021-05-20T06:05:24Z</time>
      </trkpt>
      <trkpt lat="42.1420130" lon="-8.8064820">
        <ele>42.2</ele>
        <time>2021-05-20T06:05:25Z</time>
      </trkpt>
      <trkpt lat="42.1420190" lon="-8.8064890">
        <ele>42.2</ele>
        <time>2021-05-20T06:05:26Z</time>
      </trkpt>
      <trkpt lat="42.1420350" lon="-8.8065040">
        <ele>42.3</ele>
        <time>2021-05-20T06:05:27Z</time>
      </trkpt>
      <trkpt lat="42.1420460" lon="-8.8065110">
        <ele>42.4</ele>
        <time>2021-05-20T06:05:28Z</time>
      </trkpt>
      <trkpt lat="42.1420560" lon="-8.8065180">
        <ele>42.4</ele>
        <time>2021-05-20T06:05:29Z</time>
      </trkpt>
      <trkpt lat="42.1420730" lon="-8.8065250">
        <ele>42.5</ele>
        <time>2021-05-20T06:05:30Z</time>
      </trkpt>
      <trkpt lat="42.1420810" lon="-8.8065320">
        <ele>42.5</ele>
        <time>2021-05-20T06:05:31Z</time>
      </trkpt>
      <trkpt lat="42.1420860" lon="-8.8065370">
        <ele>42.6</ele>
        <time>2021-05-20T06:05:32Z</time>
      </trkpt>
      <trkpt lat="42.1420940" lon="-8.8065420">
        <ele>42.6</ele>
        <time>2021-05-20T06:05:33Z</time>
      </trkpt>
      <trkpt lat="42.1421050" lon="-8.8065560">
        <ele>42.7</ele>
        <time>2021-05-20T06:05:34Z</time>
      </trkpt>
      <trkpt lat="42.1421260" lon="-8.8065750">
        <ele>42.8</ele>
        <time>2021-05-20T06:05:35Z</time>
      </trkpt>
      <trkpt lat="42.1421340" lon="-8.8065850">
        <ele>42.9</ele>
        <time>2021-05-20T06:05:36Z</time>
      </trkpt>
      <trkpt lat="42.1421530" lon="-8.8065820">
        <ele>43.0</ele>
        <time>2021-05-20T06:05:37Z</time>
      </trkpt>
      <trkpt lat="42.1421620" lon="-8.8065750">
        <ele>43.0</ele>
        <time>2021-05-20T06:05:38Z</time>
      </trkpt>
      <trkpt lat="42.1421700" lon="-8.8065690">
        <ele>43.1</ele>
        <time>2021-05-20T06:05:39Z</time>
      </trkpt>
      <trkpt lat="42.1421830" lon="-8.8065710">
        <ele>43.1</ele>
        <time>2021-05-20T06:05:40Z</time>
      </trkpt>
      <trkpt lat="42.1421970" lon="-8.8065680">
        <ele>43.2</ele>
        <time>2021-05-20T06:05:41Z</time>
      </trkpt>
      <trkpt lat="42.1422200" lon="-8.8065790">
        <ele>43.3</ele>
        <time>2021-05-20T06:05:42Z</time>
      </trkpt>
      <trkpt lat="42.1422310" lon="-8.8065880">
        <ele>43.4</ele>
        <time>2021-05-20T06:05:43Z</time>
      </trkpt>
      <trkpt lat="42.1422420" lon="-8.8065960">
        <ele>43.4</ele>
        <time>2021-05-20T06:05:44Z</time>
      </trkpt>
      <trkpt lat="42.1422540" lon="-8.8065920">
        <ele>43.5</ele>
        <time>2021-05-20T06:05:45Z</time>
      </trkpt>
      <trkpt lat="42.1422620" lon="-8.8065920">
        <ele>43.5</ele>
        <time>2021-05-20T06:05:46Z</time>
      </trkpt>
      <trkpt lat="42.1422710" lon="-8.8065910">
        <ele>43.6</ele>
        <time>2021-05-20T06:05:47Z</time>
      </trkpt>
      <trkpt lat="42.1422790" lon="-8.8065910">
        <ele>43.6</ele>
        <time>2021-05-20T06:05:48Z</time>
      </trkpt>
      <trkpt lat="42.1422910" lon="-8.8065860">
        <ele>43.7</ele>
        <time>2021-05-20T06:05:49Z</time>
      </trkpt>
      <trkpt lat="42.1422970" lon="-8.8065960">
        <ele>43.7</ele>
        <time>2021-05-20T06:05:50Z</time>
      </trkpt>
      <trkpt lat="42.1423110" lon="-8.8065960">
        <ele>43.8</ele>
        <time>2021-05-20T06:05:51Z</time>
      </trkpt>
      <trkpt lat="42.1423250" lon="-8.8065910">
        <ele>43.9</ele>
        <time>2021-05-20T06:05:52Z</time>
      </trkpt>
      <trkpt lat="42.1423390" lon="-8.8065920">
        <ele>43.9</ele>
        <time>2021-05-20T06:05:53Z</time>
      </trkpt>
      <trkpt lat="42.1423460" lon="-8.8065900">
        <ele>44.0</ele>
        <time>2021-05-20T06:05:54Z</time>
      </trkpt>
      <trkpt lat="42.1423580" lon="-8.8065900">
        <ele>44.0</ele>
        <time>2021-05-20T06:05:55Z</time>
      </trkpt>
      <trkpt lat="42.1423670" lon="-8.8065930">
        <ele>44.1</ele>
        <time>2021-05-20T06:05:56Z</time>
      </trkpt>
      <trkpt lat="42.1423880" lon="-8.8065950">
        <ele>44.2</ele>
        <time>2021-05-20T06:05:57Z</time>
      </trkpt>
      <trkpt lat="42.1423970" lon="-8.8065910">
        <ele>44.2</ele>
        <time>2021-05-20T06:05:58Z</time>
      </trkpt>
      <trkpt lat="42.1424070" lon="-8.8065870">
        <ele>44.3</ele>
        <time>2021-05-20T06:05:59Z</time>
      </trkpt>
      <trkpt lat="42.1424240" lon="-8.8065750">
        <ele>44.4</ele>
        <time>2021-05-20T06:06:00Z</time>
      </trkpt>
      <trkpt lat="42.1424320" lon="-8.8065640">
        <ele>44.4</ele>
        <time>2021-05-20T06:06:01Z</time>
      </trkpt>
      <trkpt lat="42.1424500" lon="-8.8065630">
        <ele>44.5</ele>
        <time>2021-05-20T06:06:02Z</time>
      </trkpt>
      <trkpt lat="42.1424620" lon="-8.8065640">
        <ele>44.6</ele>
        <time>2021-05-20T06:06:03Z</time>
      </trkpt>
      <trkpt lat="42.1424760" lon="-8.8065540">
        <ele>44.6</ele>
        <time>2021-05-20T06:06:04Z</time>
      </trkpt>
      <trkpt lat="42.1424950" lon="-8.8065590">
        <ele>44.7</ele>
        <time>2021-05-20T06:06:05Z</time>
      </trkpt>
      <trkpt lat="42.1425320" lon="-8.8065690">
        <ele>44.9</ele>
        <time>2021-05-20T06:06:06Z</time>
      </trkpt>
      <trkpt lat="42.1425420" lon="-8.8065740">
        <ele>44.9</ele>
        <time>2021-05-20T06:06:07Z</time>
      </trkpt>
      <trkpt lat="42.1425690" lon="-8.8065820">
        <ele>45.0</ele>
        <time>2021-05-20T06:06:08Z</time>
      </trkpt>
      <trkpt lat="42.1425790" lon="-8.8065850">
        <ele>45.1</ele>
        <time>2021-05-20T06:06:09Z</time>
      </trkpt>
      <trkpt lat="42.1426000" lon="-8.8065950">
        <ele>45.2</ele>
        <time>2021-05-20T06:06:10Z</time>
      </trkpt>
      <trkpt lat="42.1426090" lon="-8.8065930">
        <ele>45.2</ele>
        <time>2021-05-20T06:06:11Z</time>
      </trkpt>
      <trkpt lat="42.1426380" lon="-8.8065940">
        <ele>45.3</ele>
        <time>2021-05-20T06:06:12Z</time>
      </trkpt>
      <trkpt lat="42.1426470" lon="-8.8065910">
        <ele>45.3</ele>
        <time>2021-05-20T06:06:13Z</time>
      </trkpt>
      <trkpt lat="42.1426590" lon="-8.8065840">
        <ele>45.4</ele>
        <time>2021-05-20T06:06:14Z</time>
      </trkpt>
      <trkpt lat="42.1426780" lon="-8.8065840">
        <ele>45.4</ele>
        <time>2021-05-20T06:06:15Z</time>
      </trkpt>
      <trkpt lat="42.1426980" lon="-8.8065900">
        <ele>45.5</ele>
        <time>2021-05-20T06:06:16Z</time>
      </trkpt>
      <trkpt lat="42.1427090" lon="-8.8065950">
        <ele>45.6</ele>
        <time>2021-05-20T06:06:17Z</time>
      </trkpt>
      <trkpt lat="42.1427300" lon="-8.8065970">
        <ele>45.6</ele>
        <time>2021-05-20T06:06:18Z</time>
      </trkpt>
      <trkpt lat="42.1427380" lon="-8.8065970">
        <ele>45.7</ele>
        <time>2021-05-20T06:06:19Z</time>
      </trkpt>
      <trkpt lat="42.1427470" lon="-8.8065960">
        <ele>45.7</ele>
        <time>2021-05-20T06:06:20Z</time>
      </trkpt>
      <trkpt lat="42.1427560" lon="-8.8065980">
        <ele>45.7</ele>
        <time>2021-05-20T06:06:21Z</time>
      </trkpt>
      <trkpt lat="42.1427590" lon="-8.8066010">
        <ele>45.7</ele>
        <time>2021-05-20T06:06:22Z</time>
      </trkpt>
      <trkpt lat="42.1427630" lon="-8.8066030">
        <ele>45.7</ele>
        <time>2021-05-20T06:06:23Z</time>
      </trkpt>
      <trkpt lat="42.1427670" lon="-8.8066060">
        <ele>45.8</ele>
        <time>2021-05-20T06:06:24Z</time>
      </trkpt>
      <trkpt lat="42.1427700" lon="-8.8066080">
        <ele>45.8</ele>
        <time>2021-05-20T06:06:25Z</time>
      </trkpt>
      <trkpt lat="42.1427740" lon="-8.8066110">
        <ele>45.8</ele>
        <time>2021-05-20T06:06:26Z</time>
      </trkpt>
      <trkpt lat="42.1427770" lon="-8.8066130">
        <ele>45.8</ele>
        <time>2021-05-20T06:06:27Z</time>
      </trkpt>
      <trkpt lat="42.1427810" lon="-8.8066160">
        <ele>45.8</ele>
        <time>2021-05-20T06:06:28Z</time>
      </trkpt>
      <trkpt lat="42.1427900" lon="-8.8066120">
        <ele>45.8</ele>
        <time>2021-05-20T06:06:29Z</time>
      </trkpt>
      <trkpt lat="42.1427960" lon="-8.8066150">
        <ele>45.9</ele>
        <time>2021-05-20T06:06:30Z</time>
      </trkpt>
      <trkpt lat="42.1428140" lon="-8.8066180">
        <ele>45.9</ele>
        <time>2021-05-20T06:06:31Z</time>
      </trkpt>
      <trkpt lat="42.1428200" lon="-8.8066230">
        <ele>46.0</ele>
        <time>2021-05-20T06:06:32Z</time>
      </trkpt>
      <trkpt lat="42.1428310" lon="-8.8066190">
        <ele>46.0</ele>
        <time>2021-05-20T06:06:33Z</time>
      </trkpt>
      <trkpt lat="42.1428450" lon="-8.8066120">
        <ele>46.1</ele>
        <time>2021-05-20T06:06:34Z</time>
      </trkpt>
      <trkpt lat="42.1428600" lon="-8.8066190">
        <ele>46.1</ele>
        <time>2021-05-20T06:06:35Z</time>
      </trkpt>
      <trkpt lat="42.1428680" lon="-8.8066220">
        <ele>46.2</ele>
        <time>2021-05-20T06:06:36Z</time>
      </trkpt>
      <trkpt lat="42.1428750" lon="-8.8066250">
        <ele>46.2</ele>
        <time>2021-05-20T06:06:37Z</time>
      </trkpt>
      <trkpt lat="42.1428820" lon="-8.8066280">
        <ele>46.2</ele>
        <time>2021-05-20T06:06:38Z</time>
      </trkpt>
      <trkpt lat="42.1428920" lon="-8.8066290">
        <ele>46.3</ele>
        <time>2021-05-20T06:06:39Z</time>
      </trkpt>
      <trkpt lat="42.1428990" lon="-8.8066260">
        <ele>46.3</ele>
        <time>2021-05-20T06:06:40Z</time>
      </trkpt>
      <trkpt lat="42.1429040" lon="-8.8066220">
        <ele>46.3</ele>
        <time>2021-05-20T06:06:41Z</time>
      </trkpt>
      <trkpt lat="42.1429090" lon="-8.8066140">
        <ele>46.3</ele>
        <time>2021-05-20T06:06:42Z</time>
      </trkpt>
      <trkpt lat="42.1429150" lon="-8.8066110">
        <ele>46.4</ele>
        <time>2021-05-20T06:06:43Z</time>
      </trkpt>
      <trkpt lat="42.1429220" lon="-8.8066090">
        <ele>46.4</ele>
        <time>2021-05-20T06:06:44Z</time>
      </trkpt>
      <trkpt lat="42.1429260" lon="-8.8066070">
        <ele>46.4</ele>
        <time>2021-05-20T06:06:45Z</time>
      </trkpt>
      <trkpt lat="42.1429310" lon="-8.8066010">
        <ele>46.4</ele>
        <time>2021-05-20T06:06:46Z</time>
      </trkpt>
      <trkpt lat="42.1429350" lon="-8.8065970">
        <ele>46.4</ele>
        <time>2021-05-20T06:06:47Z</time>
      </trkpt>
      <trkpt lat="42.1429370" lon="-8.8065920">
        <ele>46.5</ele>
        <time>2021-05-20T06:06:48Z</time>
      </trkpt>
      <trkpt lat="42.1429400" lon="-8.8065870">
        <ele>46.5</ele>
        <time>2021-05-20T06:06:49Z</time>
      </trkpt>
      <trkpt lat="42.1429470" lon="-8.8065840">
        <ele>46.5</ele>
        <time>2021-05-20T06:06:50Z</time>
      </trkpt>
      <trkpt lat="42.1429560" lon="-8.8065910">
        <ele>46.5</ele>
        <time>2021-05-20T06:06:51Z</time>
      </trkpt>
      <trkpt lat="42.1429590" lon="-8.8065950">
        <ele>46.6</ele>
        <time>2021-05-20T06:06:52Z</time>
      </trkpt>
      <trkpt lat="42.1429560" lon="-8.8065950">
        <ele>46.6</ele>
        <time>2021-05-20T06:06:53Z</time>
      </trkpt>
      <trkpt lat="42.1429550" lon="-8.8065930">
        <ele>46.6</ele>
        <time>2021-05-20T06:06:54Z</time>
      </trkpt>
      <trkpt lat="42.1429540" lon="-8.8065950">
        <ele>46.6</ele>
        <time>2021-05-20T06:06:55Z</time>
      </trkpt>
      <trkpt lat="42.1429500" lon="-8.8065880">
        <ele>46.6</ele>
        <time>2021-05-20T06:06:56Z</time>
      </trkpt>
      <trkpt lat="42.1429510" lon="-8.8065880">
        <ele>46.6</ele>
        <time>2021-05-20T06:06:57Z</time>
      </trkpt>
      <trkpt lat="42.1429500" lon="-8.8065900">
        <ele>46.6</ele>
        <time>2021-05-20T06:06:58Z</time>
      </trkpt>
      <trkpt lat="42.1429510" lon="-8.8065910">
        <ele>46.6</ele>
        <time>2021-05-20T06:06:59Z</time>
      </trkpt>
      <trkpt lat="42.1429510" lon="-8.8065910">
        <ele>46.6</ele>
        <time>2021-05-20T06:07:00Z</time>
      </trkpt>
      <trkpt lat="42.1429500" lon="-8.8065910">
        <ele>46.6</ele>
        <time>2021-05-20T06:07:01Z</time>
      </trkpt>
      <trkpt lat="42.1429370" lon="-8.8065880">
        <ele>46.7</ele>
        <time>2021-05-20T06:07:02Z</time>
      </trkpt>
      <trkpt lat="42.1429310" lon="-8.8065930">
        <ele>46.7</ele>
        <time>2021-05-20T06:07:03Z</time>
      </trkpt>
      <trkpt lat="42.1429320" lon="-8.8065940">
        <ele>46.7</ele>
        <time>2021-05-20T06:07:04Z</time>
      </trkpt>
      <trkpt lat="42.1429280" lon="-8.8065910">
        <ele>46.7</ele>
        <time>2021-05-20T06:07:05Z</time>
      </trkpt>
      <trkpt lat="42.1429280" lon="-8.8065850">
        <ele>46.7</ele>
        <time>2021-05-20T06:07:06Z</time>
      </trkpt>
      <trkpt lat="42.1429270" lon="-8.8065830">
        <ele>46.7</ele>
        <time>2021-05-20T06:07:07Z</time>
      </trkpt>
      <trkpt lat="42.1429320" lon="-8.8065930">
        <ele>46.8</ele>
        <time>2021-05-20T06:07:08Z</time>
      </trkpt>
      <trkpt lat="42.1429410" lon="-8.8066010">
        <ele>46.8</ele>
        <time>2021-05-20T06:07:09Z</time>
      </trkpt>
      <trkpt lat="42.1429420" lon="-8.8066040">
        <ele>46.8</ele>
        <time>2021-05-20T06:07:10Z</time>
      </trkpt>
      <trkpt lat="42.1429450" lon="-8.8066070">
        <ele>46.8</ele>
        <time>2021-05-20T06:07:11Z</time>
      </trkpt>
      <trkpt lat="42.1429460" lon="-8.8066070">
        <ele>46.8</ele>
        <time>2021-05-20T06:07:12Z</time>
      </trkpt>
      <trkpt lat="42.1429460" lon="-8.8066100">
        <ele>46.8</ele>
        <time>2021-05-20T06:07:13Z</time>
      </trkpt>
      <trkpt lat="42.1429470" lon="-8.8066130">
        <ele>46.9</ele>
        <time>2021-05-20T06:07:14Z</time>
      </trkpt>
      <trkpt lat="42.1429480" lon="-8.8066120">
        <ele>46.9</ele>
        <time>2021-05-20T06:07:15Z</time>
      </trkpt>
      <trkpt lat="42.1429500" lon="-8.8066120">
        <ele>46.9</ele>
        <time>2021-05-20T06:07:16Z</time>
      </trkpt>
      <trkpt lat="42.1429510" lon="-8.8066130">
        <ele>46.9</ele>
        <time>2021-05-20T06:07:17Z</time>
      </trkpt>
      <trkpt lat="42.1429530" lon="-8.8066130">
        <ele>46.9</ele>
        <time>2021-05-20T06:07:18Z</time>
      </trkpt>
      <trkpt lat="42.1429460" lon="-8.8066040">
        <ele>46.9</ele>
        <time>2021-05-20T06:07:19Z</time>
      </trkpt>
      <trkpt lat="42.1429480" lon="-8.8066040">
        <ele>46.9</ele>
        <time>2021-05-20T06:07:20Z</time>
      </trkpt>
      <trkpt lat="42.1429490" lon="-8.8066010">
        <ele>46.9</ele>
        <time>2021-05-20T06:07:21Z</time>
      </trkpt>
      <trkpt lat="42.1429530" lon="-8.8066080">
        <ele>47.0</ele>
        <time>2021-05-20T06:07:22Z</time>
      </trkpt>
      <trkpt lat="42.1429520" lon="-8.8066120">
        <ele>47.0</ele>
        <time>2021-05-20T06:07:23Z</time>
      </trkpt>
      <trkpt lat="42.1429530" lon="-8.8066100">
        <ele>47.0</ele>
        <time>2021-05-20T06:07:24Z</time>
      </trkpt>
      <trkpt lat="42.1429520" lon="-8.8066070">
        <ele>47.0</ele>
        <time>2021-05-20T06:07:25Z</time>
      </trkpt>
      <trkpt lat="42.1429530" lon="-8.8066070">
        <ele>47.0</ele>
        <time>2021-05-20T06:07:26Z</time>
      </trkpt>
      <trkpt lat="42.1429540" lon="-8.8066090">
        <ele>47.0</ele>
        <time>2021-05-20T06:07:27Z</time>
      </trkpt>
      <trkpt lat="42.1429550" lon="-8.8066140">
        <ele>47.0</ele>
        <time>2021-05-20T06:07:28Z</time>
      </trkpt>
      <trkpt lat="42.1429560" lon="-8.8066170">
        <ele>47.0</ele>
        <time>2021-05-20T06:07:29Z</time>
      </trkpt>
      <trkpt lat="42.1429560" lon="-8.8066170">
        <ele>47.0</ele>
        <time>2021-05-20T06:07:30Z</time>
      </trkpt>
      <trkpt lat="42.1429580" lon="-8.8066190">
        <ele>47.0</ele>
        <time>2021-05-20T06:07:31Z</time>
      </trkpt>
      <trkpt lat="42.1429600" lon="-8.8066200">
        <ele>47.0</ele>
        <time>2021-05-20T06:07:32Z</time>
      </trkpt>
      <trkpt lat="42.1429640" lon="-8.8066130">
        <ele>47.1</ele>
        <time>2021-05-20T06:07:33Z</time>
      </trkpt>
      <trkpt lat="42.1429680" lon="-8.8066110">
        <ele>47.1</ele>
        <time>2021-05-20T06:07:34Z</time>
      </trkpt>
      <trkpt lat="42.1429690" lon="-8.8066200">
        <ele>47.1</ele>
        <time>2021-05-20T06:07:35Z</time>
      </trkpt>
      <trkpt lat="42.1429740" lon="-8.8066180">
        <ele>47.1</ele>
        <time>2021-05-20T06:07:36Z</time>
      </trkpt>
      <trkpt lat="42.1429810" lon="-8.8066180">
        <ele>47.2</ele>
        <time>2021-05-20T06:07:37Z</time>
      </trkpt>
      <trkpt lat="42.1429870" lon="-8.8066080">
        <ele>47.2</ele>
        <time>2021-05-20T06:07:38Z</time>
      </trkpt>
      <trkpt lat="42.1429880" lon="-8.8065920">
        <ele>47.2</ele>
        <time>2021-05-20T06:07:39Z</time>
      </trkpt>
      <trkpt lat="42.1429940" lon="-8.8065880">
        <ele>47.3</ele>
        <time>2021-05-20T06:07:40Z</time>
      </trkpt>
      <trkpt lat="42.1430030" lon="-8.8065770">
        <ele>47.3</ele>
        <time>2021-05-20T06:07:41Z</time>
      </trkpt>
      <trkpt lat="42.1430130" lon="-8.8065760">
        <ele>47.3</ele>
        <time>2021-05-20T06:07:42Z</time>
      </trkpt>
      <trkpt lat="42.1430240" lon="-8.8065680">
        <ele>47.4</ele>
        <time>2021-05-20T06:07:43Z</time>
      </trkpt>
      <trkpt lat="42.1430470" lon="-8.8065620">
        <ele>47.5</ele>
        <time>2021-05-20T06:07:44Z</time>
      </trkpt>
      <trkpt lat="42.1430560" lon="-8.8065620">
        <ele>47.5</ele>
        <time>2021-05-20T06:07:45Z</time>
      </trkpt>
      <trkpt lat="42.1430660" lon="-8.8065620">
        <ele>47.6</ele>
        <time>2021-05-20T06:07:46Z</time>
      </trkpt>
      <trkpt lat="42.1430720" lon="-8.8065600">
        <ele>47.6</ele>
        <time>2021-05-20T06:07:47Z</time>
      </trkpt>
      <trkpt lat="42.1430800" lon="-8.8065570">
        <ele>47.6</ele>
        <time>2021-05-20T06:07:48Z</time>
      </trkpt>
      <trkpt lat="42.1430960" lon="-8.8065480">
        <ele>47.7</ele>
        <time>2021-05-20T06:07:49Z</time>
      </trkpt>
      <trkpt lat="42.1431050" lon="-8.8065350">
        <ele>47.7</ele>
        <time>2021-05-20T06:07:50Z</time>
      </trkpt>
      <trkpt lat="42.1431130" lon="-8.8065100">
        <ele>47.8</ele>
        <time>2021-05-20T06:07:51Z</time>
      </trkpt>
      <trkpt lat="42.1431170" lon="-8.8064990">
        <ele>47.9</ele>
        <time>2021-05-20T06:07:52Z</time>
      </trkpt>
      <trkpt lat="42.1431210" lon="-8.8064880">
        <ele>47.9</ele>
        <time>2021-05-20T06:07:53Z</time>
      </trkpt>
      <trkpt lat="42.1431420" lon="-8.8064630">
        <ele>48.0</ele>
        <time>2021-05-20T06:07:54Z</time>
      </trkpt>
      <trkpt lat="42.1431570" lon="-8.8064530">
        <ele>48.1</ele>
        <time>2021-05-20T06:07:55Z</time>
      </trkpt>
      <trkpt lat="42.1431650" lon="-8.8064420">
        <ele>48.2</ele>
        <time>2021-05-20T06:07:56Z</time>
      </trkpt>
      <trkpt lat="42.1431680" lon="-8.8064290">
        <ele>48.2</ele>
        <time>2021-05-20T06:07:57Z</time>
      </trkpt>
      <trkpt lat="42.1431780" lon="-8.8064330">
        <ele>48.3</ele>
        <time>2021-05-20T06:07:58Z</time>
      </trkpt>
      <trkpt lat="42.1431860" lon="-8.8064310">
        <ele>48.3</ele>
        <time>2021-05-20T06:07:59Z</time>
      </trkpt>
      <trkpt lat="42.1432080" lon="-8.8064350">
        <ele>48.4</ele>
        <time>2021-05-20T06:08:00Z</time>
      </trkpt>
      <trkpt lat="42.1432170" lon="-8.8064460">
        <ele>48.5</ele>
        <time>2021-05-20T06:08:01Z</time>
      </trkpt>
      <trkpt lat="42.1432300" lon="-8.8064500">
        <ele>48.5</ele>
        <time>2021-05-20T06:08:02Z</time>
      </trkpt>
      <trkpt lat="42.1432510" lon="-8.8064620">
        <ele>48.6</ele>
        <time>2021-05-20T06:08:03Z</time>
      </trkpt>
      <trkpt lat="42.1432610" lon="-8.8064640">
        <ele>48.7</ele>
        <time>2021-05-20T06:08:04Z</time>
      </trkpt>
      <trkpt lat="42.1432740" lon="-8.8064670">
        <ele>48.7</ele>
        <time>2021-05-20T06:08:05Z</time>
      </trkpt>
      <trkpt lat="42.1432800" lon="-8.8064630">
        <ele>48.8</ele>
        <time>2021-05-20T06:08:06Z</time>
      </trkpt>
      <trkpt lat="42.1432980" lon="-8.8064740">
        <ele>48.9</ele>
        <time>2021-05-20T06:08:07Z</time>
      </trkpt>
      <trkpt lat="42.1433000" lon="-8.8064740">
        <ele>48.9</ele>
        <time>2021-05-20T06:08:08Z</time>
      </trkpt>
      <trkpt lat="42.1433120" lon="-8.8064760">
        <ele>48.9</ele>
        <time>2021-05-20T06:08:09Z</time>
      </trkpt>
      <trkpt lat="42.1433220" lon="-8.8064720">
        <ele>49.0</ele>
        <time>2021-05-20T06:08:10Z</time>
      </trkpt>
      <trkpt lat="42.1433290" lon="-8.8064700">
        <ele>49.0</ele>
        <time>2021-05-20T06:08:11Z</time>
      </trkpt>
      <trkpt lat="42.1433360" lon="-8.8064680">
        <ele>49.1</ele>
        <time>2021-05-20T06:08:12Z</time>
      </trkpt>
      <trkpt lat="42.1433440" lon="-8.8064650">
        <ele>49.1</ele>
        <time>2021-05-20T06:08:13Z</time>
      </trkpt>
      <trkpt lat="42.1433510" lon="-8.8064630">
        <ele>49.1</ele>
        <time>2021-05-20T06:08:14Z</time>
      </trkpt>
      <trkpt lat="42.1433580" lon="-8.8064610">
        <ele>49.2</ele>
        <time>2021-05-20T06:08:15Z</time>
      </trkpt>
      <trkpt lat="42.1433650" lon="-8.8064590">
        <ele>49.2</ele>
        <time>2021-05-20T06:08:16Z</time>
      </trkpt>
      <trkpt lat="42.1433800" lon="-8.8064600">
        <ele>49.3</ele>
        <time>2021-05-20T06:08:17Z</time>
      </trkpt>
      <trkpt lat="42.1433970" lon="-8.8064630">
        <ele>49.4</ele>
        <time>2021-05-20T06:08:18Z</time>
      </trkpt>
      <trkpt lat="42.1434130" lon="-8.8064590">
        <ele>49.5</ele>
        <time>2021-05-20T06:08:19Z</time>
      </trkpt>
      <trkpt lat="42.1434230" lon="-8.8064530">
        <ele>49.5</ele>
        <time>2021-05-20T06:08:20Z</time>
      </trkpt>
      <trkpt lat="42.1434320" lon="-8.8064480">
        <ele>49.6</ele>
        <time>2021-05-20T06:08:21Z</time>
      </trkpt>
      <trkpt lat="42.1434430" lon="-8.8064500">
        <ele>49.6</ele>
        <time>2021-05-20T06:08:22Z</time>
      </trkpt>
      <trkpt lat="42.1434510" lon="-8.8064580">
        <ele>49.7</ele>
        <time>2021-05-20T06:08:23Z</time>
      </trkpt>
      <trkpt lat="42.1434670" lon="-8.8064490">
        <ele>49.8</ele>
        <time>2021-05-20T06:08:24Z</time>
      </trkpt>
      <trkpt lat="42.1434750" lon="-8.8064450">
        <ele>49.8</ele>
        <time>2021-05-20T06:08:25Z</time>
      </trkpt>
      <trkpt lat="42.1434830" lon="-8.8064400">
        <ele>49.9</ele>
        <time>2021-05-20T06:08:26Z</time>
      </trkpt>
      <trkpt lat="42.1434910" lon="-8.8064360">
        <ele>49.9</ele>
        <time>2021-05-20T06:08:27Z</time>
      </trkpt>
      <trkpt lat="42.1435020" lon="-8.8064370">
        <ele>50.0</ele>
        <time>2021-05-20T06:08:28Z</time>
      </trkpt>
      <trkpt lat="42.1435130" lon="-8.8064370">
        <ele>50.0</ele>
        <time>2021-05-20T06:08:29Z</time>
      </trkpt>
      <trkpt lat="42.1435180" lon="-8.8064450">
        <ele>50.1</ele>
        <time>2021-05-20T06:08:30Z</time>
      </trkpt>
      <trkpt lat="42.1435350" lon="-8.8064310">
        <ele>50.2</ele>
        <time>2021-05-20T06:08:31Z</time>
      </trkpt>
      <trkpt lat="42.1435470" lon="-8.8064250">
        <ele>50.2</ele>
        <time>2021-05-20T06:08:32Z</time>
      </trkpt>
      <trkpt lat="42.1435610" lon="-8.8064250">
        <ele>50.3</ele>
        <time>2021-05-20T06:08:33Z</time>
      </trkpt>
      <trkpt lat="42.1435750" lon="-8.8064400">
        <ele>50.4</ele>
        <time>2021-05-20T06:08:34Z</time>
      </trkpt>
      <trkpt lat="42.1435860" lon="-8.8064460">
        <ele>50.4</ele>
        <time>2021-05-20T06:08:35Z</time>
      </trkpt>
      <trkpt lat="42.1436070" lon="-8.8064410">
        <ele>50.6</ele>
        <time>2021-05-20T06:08:36Z</time>
      </trkpt>
      <trkpt lat="42.1436340" lon="-8.8064470">
        <ele>50.7</ele>
        <time>2021-05-20T06:08:37Z</time>
      </trkpt>
      <trkpt lat="42.1436440" lon="-8.8064550">
        <ele>50.8</ele>
        <time>2021-05-20T06:08:38Z</time>
      </trkpt>
      <trkpt lat="42.1436510" lon="-8.8064610">
        <ele>50.8</ele>
        <time>2021-05-20T06:08:39Z</time>
      </trkpt>
      <trkpt lat="42.1436610" lon="-8.8064610">
        <ele>50.9</ele>
        <time>2021-05-20T06:08:40Z</time>
      </trkpt>
      <trkpt lat="42.1436750" lon="-8.8064600">
        <ele>50.9</ele>
        <time>2021-05-20T06:08:41Z</time>
      </trkpt>
      <trkpt lat="42.1436780" lon="-8.8064660">
        <ele>51.0</ele>
        <time>2021-05-20T06:08:42Z</time>
      </trkpt>
      <trkpt lat="42.1436920" lon="-8.8064610">
        <ele>51.0</ele>
        <time>2021-05-20T06:08:43Z</time>
      </trkpt>
      <trkpt lat="42.1437100" lon="-8.8064630">
        <ele>51.1</ele>
        <time>2021-05-20T06:08:44Z</time>
      </trkpt>
      <trkpt lat="42.1437380" lon="-8.8064590">
        <ele>51.3</ele>
        <time>2021-05-20T06:08:45Z</time>
      </trkpt>
      <trkpt lat="42.1437470" lon="-8.8064560">
        <ele>51.3</ele>
        <time>2021-05-20T06:08:46Z</time>
      </trkpt>
      <trkpt lat="42.1437690" lon="-8.8064530">
        <ele>51.4</ele>
        <time>2021-05-20T06:08:47Z</time>
      </trkpt>
      <trkpt lat="42.1437810" lon="-8.8064510">
        <ele>51.5</ele>
        <time>2021-05-20T06:08:48Z</time>
      </trkpt>
      <trkpt lat="42.1437920" lon="-8.8064480">
        <ele>51.6</ele>
        <time>2021-05-20T06:08:49Z</time>
      </trkpt>
      <trkpt lat="42.1437940" lon="-8.8064480">
        <ele>51.6</ele>
        <time>2021-05-20T06:08:50Z</time>
      </trkpt>
      <trkpt lat="42.1438090" lon="-8.8064470">
        <ele>51.7</ele>
        <time>2021-05-20T06:08:51Z</time>
      </trkpt>
      <trkpt lat="42.1438230" lon="-8.8064430">
        <ele>51.8</ele>
        <time>2021-05-20T06:08:52Z</time>
      </trkpt>
      <trkpt lat="42.1438310" lon="-8.8064360">
        <ele>51.8</ele>
        <time>2021-05-20T06:08:53Z</time>
      </trkpt>
      <trkpt lat="42.1438520" lon="-8.8064440">
        <ele>51.9</ele>
        <time>2021-05-20T06:08:54Z</time>
      </trkpt>
      <trkpt lat="42.1438660" lon="-8.8064470">
        <ele>52.0</ele>
        <time>2021-05-20T06:08:55Z</time>
      </trkpt>
      <trkpt lat="42.1438840" lon="-8.8064440">
        <ele>52.1</ele>
        <time>2021-05-20T06:08:56Z</time>
      </trkpt>
      <trkpt lat="42.1438890" lon="-8.8064390">
        <ele>52.2</ele>
        <time>2021-05-20T06:08:57Z</time>
      </trkpt>
      <trkpt lat="42.1438960" lon="-8.8064370">
        <ele>52.2</ele>
        <time>2021-05-20T06:08:58Z</time>
      </trkpt>
      <trkpt lat="42.1439130" lon="-8.8064320">
        <ele>52.3</ele>
        <time>2021-05-20T06:08:59Z</time>
      </trkpt>
      <trkpt lat="42.1439240" lon="-8.8064330">
        <ele>52.4</ele>
        <time>2021-05-20T06:09:00Z</time>
      </trkpt>
      <trkpt lat="42.1439320" lon="-8.8064230">
        <ele>52.4</ele>
        <time>2021-05-20T06:09:01Z</time>
      </trkpt>
      <trkpt lat="42.1439460" lon="-8.8064140">
        <ele>52.5</ele>
        <time>2021-05-20T06:09:02Z</time>
      </trkpt>
      <trkpt lat="42.1439540" lon="-8.8064130">
        <ele>52.6</ele>
        <time>2021-05-20T06:09:03Z</time>
      </trkpt>
      <trkpt lat="42.1439770" lon="-8.8064160">
        <ele>52.7</ele>
        <time>2021-05-20T06:09:04Z</time>
      </trkpt>
      <trkpt lat="42.1439860" lon="-8.8064190">
        <ele>52.7</ele>
        <time>2021-05-20T06:09:05Z</time>
      </trkpt>
      <trkpt lat="42.1439990" lon="-8.8064140">
        <ele>52.8</ele>
        <time>2021-05-20T06:09:06Z</time>
      </trkpt>
      <trkpt lat="42.1440100" lon="-8.8064120">
        <ele>52.9</ele>
        <time>2021-05-20T06:09:07Z</time>
      </trkpt>
      <trkpt lat="42.1440220" lon="-8.8064130">
        <ele>53.0</ele>
        <time>2021-05-20T06:09:08Z</time>
      </trkpt>
      <trkpt lat="42.1440400" lon="-8.8064130">
        <ele>53.1</ele>
        <time>2021-05-20T06:09:09Z</time>
      </trkpt>
      <trkpt lat="42.1440520" lon="-8.8064050">
        <ele>53.1</ele>
        <time>2021-05-20T06:09:10Z</time>
      </trkpt>
      <trkpt lat="42.1440630" lon="-8.8064000">
        <ele>53.2</ele>
        <time>2021-05-20T06:09:11Z</time>
      </trkpt>
      <trkpt lat="42.1440730" lon="-8.8063950">
        <ele>53.3</ele>
        <time>2021-05-20T06:09:12Z</time>
      </trkpt>
      <trkpt lat="42.1440890" lon="-8.8063970">
        <ele>53.4</ele>
        <time>2021-05-20T06:09:13Z</time>
      </trkpt>
      <trkpt lat="42.1441070" lon="-8.8063970">
        <ele>53.5</ele>
        <time>2021-05-20T06:09:14Z</time>
      </trkpt>
      <trkpt lat="42.1441320" lon="-8.8063980">
        <ele>53.6</ele>
        <time>2021-05-20T06:09:15Z</time>
      </trkpt>
      <trkpt lat="42.1441390" lon="-8.8063960">
        <ele>53.7</ele>
        <time>2021-05-20T06:09:16Z</time>
      </trkpt>
      <trkpt lat="42.1441450" lon="-8.8063940">
        <ele>53.7</ele>
        <time>2021-05-20T06:09:17Z</time>
      </trkpt>
      <trkpt lat="42.1441660" lon="-8.8063850">
        <ele>53.8</ele>
        <time>2021-05-20T06:09:18Z</time>
      </trkpt>
      <trkpt lat="42.1441750" lon="-8.8063830">
        <ele>53.9</ele>
        <time>2021-05-20T06:09:19Z</time>
      </trkpt>
      <trkpt lat="42.1441830" lon="-8.8063810">
        <ele>53.9</ele>
        <time>2021-05-20T06:09:20Z</time>
      </trkpt>
      <trkpt lat="42.1442010" lon="-8.8063770">
        <ele>54.1</ele>
        <time>2021-05-20T06:09:21Z</time>
      </trkpt>
      <trkpt lat="42.1442100" lon="-8.8063750">
        <ele>54.1</ele>
        <time>2021-05-20T06:09:22Z</time>
      </trkpt>
      <trkpt lat="42.1442190" lon="-8.8063740">
        <ele>54.2</ele>
        <time>2021-05-20T06:09:23Z</time>
      </trkpt>
      <trkpt lat="42.1442280" lon="-8.8063710">
        <ele>54.2</ele>
        <time>2021-05-20T06:09:24Z</time>
      </trkpt>
      <trkpt lat="42.1442380" lon="-8.8063670">
        <ele>54.3</ele>
        <time>2021-05-20T06:09:25Z</time>
      </trkpt>
      <trkpt lat="42.1442480" lon="-8.8063610">
        <ele>54.4</ele>
        <time>2021-05-20T06:09:26Z</time>
      </trkpt>
      <trkpt lat="42.1442730" lon="-8.8063530">
        <ele>54.5</ele>
        <time>2021-05-20T06:09:27Z</time>
      </trkpt>
      <trkpt lat="42.1442790" lon="-8.8063510">
        <ele>54.5</ele>
        <time>2021-05-20T06:09:28Z</time>
      </trkpt>
      <trkpt lat="42.1442860" lon="-8.8063480">
        <ele>54.6</ele>
        <time>2021-05-20T06:09:29Z</time>
      </trkpt>
      <trkpt lat="42.1443070" lon="-8.8063460">
        <ele>54.7</ele>
        <time>2021-05-20T06:09:30Z</time>
      </trkpt>
      <trkpt lat="42.1443150" lon="-8.8063460">
        <ele>54.8</ele>
        <time>2021-05-20T06:09:31Z</time>
      </trkpt>
      <trkpt lat="42.1443230" lon="-8.8063460">
        <ele>54.8</ele>
        <time>2021-05-20T06:09:32Z</time>
      </trkpt>
      <trkpt lat="42.1443350" lon="-8.8063420">
        <ele>54.9</ele>
        <time>2021-05-20T06:09:33Z</time>
      </trkpt>
      <trkpt lat="42.1443480" lon="-8.8063470">
        <ele>55.0</ele>
        <time>2021-05-20T06:09:34Z</time>
      </trkpt>
      <trkpt lat="42.1443570" lon="-8.8063440">
        <ele>55.0</ele>
        <time>2021-05-20T06:09:35Z</time>
      </trkpt>
      <trkpt lat="42.1443800" lon="-8.8063390">
        <ele>55.2</ele>
        <time>2021-05-20T06:09:36Z</time>
      </trkpt>
      <trkpt lat="42.1443870" lon="-8.8063370">
        <ele>55.2</ele>
        <time>2021-05-20T06:09:37Z</time>
      </trkpt>
      <trkpt lat="42.1443950" lon="-8.8063360">
        <ele>55.3</ele>
        <time>2021-05-20T06:09:38Z</time>
      </trkpt>
      <trkpt lat="42.1444110" lon="-8.8063240">
        <ele>55.4</ele>
        <time>2021-05-20T06:09:39Z</time>
      </trkpt>
      <trkpt lat="42.1444200" lon="-8.8063210">
        <ele>55.5</ele>
        <time>2021-05-20T06:09:40Z</time>
      </trkpt>
      <trkpt lat="42.1444420" lon="-8.8063150">
        <ele>55.6</ele>
        <time>2021-05-20T06:09:41Z</time>
      </trkpt>
      <trkpt lat="42.1444520" lon="-8.8063150">
        <ele>55.7</ele>
        <time>2021-05-20T06:09:42Z</time>
      </trkpt>
      <trkpt lat="42.1444610" lon="-8.8063150">
        <ele>55.7</ele>
        <time>2021-05-20T06:09:43Z</time>
      </trkpt>
      <trkpt lat="42.1444720" lon="-8.8063030">
        <ele>55.8</ele>
        <time>2021-05-20T06:09:44Z</time>
      </trkpt>
      <trkpt lat="42.1444950" lon="-8.8063030">
        <ele>56.0</ele>
        <time>2021-05-20T06:09:45Z</time>
      </trkpt>
      <trkpt lat="42.1445030" lon="-8.8063000">
        <ele>56.0</ele>
        <time>2021-05-20T06:09:46Z</time>
      </trkpt>
      <trkpt lat="42.1445110" lon="-8.8063000">
        <ele>56.1</ele>
        <time>2021-05-20T06:09:47Z</time>
      </trkpt>
      <trkpt lat="42.1445220" lon="-8.8062980">
        <ele>56.2</ele>
        <time>2021-05-20T06:09:48Z</time>
      </trkpt>
      <trkpt lat="42.1445310" lon="-8.8062970">
        <ele>56.2</ele>
        <time>2021-05-20T06:09:49Z</time>
      </trkpt>
      <trkpt lat="42.1445420" lon="-8.8062950">
        <ele>56.3</ele>
        <time>2021-05-20T06:09:50Z</time>
      </trkpt>
      <trkpt lat="42.1445560" lon="-8.8062960">
        <ele>56.4</ele>
        <time>2021-05-20T06:09:51Z</time>
      </trkpt>
      <trkpt lat="42.1445690" lon="-8.8062970">
        <ele>56.5</ele>
        <time>2021-05-20T06:09:52Z</time>
      </trkpt>
      <trkpt lat="42.1445790" lon="-8.8062970">
        <ele>56.5</ele>
        <time>2021-05-20T06:09:53Z</time>
      </trkpt>
      <trkpt lat="42.1445920" lon="-8.8062990">
        <ele>56.6</ele>
        <time>2021-05-20T06:09:54Z</time>
      </trkpt>
      <trkpt lat="42.1446120" lon="-8.8062990">
        <ele>56.8</ele>
        <time>2021-05-20T06:09:55Z</time>
      </trkpt>
      <trkpt lat="42.1446230" lon="-8.8062990">
        <ele>56.8</ele>
        <time>2021-05-20T06:09:56Z</time>
      </trkpt>
      <trkpt lat="42.1446330" lon="-8.8062980">
        <ele>56.9</ele>
        <time>2021-05-20T06:09:57Z</time>
      </trkpt>
      <trkpt lat="42.1446580" lon="-8.8062950">
        <ele>57.1</ele>
        <time>2021-05-20T06:09:58Z</time>
      </trkpt>
      <trkpt lat="42.1446660" lon="-8.8062920">
        <ele>57.1</ele>
        <time>2021-05-20T06:09:59Z</time>
      </trkpt>
      <trkpt lat="42.1446750" lon="-8.8062900">
        <ele>57.2</ele>
        <time>2021-05-20T06:10:00Z</time>
      </trkpt>
      <trkpt lat="42.1446750" lon="-8.8062740">
        <ele>57.3</ele>
        <time>2021-05-20T06:10:01Z</time>
      </trkpt>
      <trkpt lat="42.1446930" lon="-8.8062760">
        <ele>57.4</ele>
        <time>2021-05-20T06:10:02Z</time>
      </trkpt>
      <trkpt lat="42.1447000" lon="-8.8062720">
        <ele>57.4</ele>
        <time>2021-05-20T06:10:03Z</time>
      </trkpt>
      <trkpt lat="42.1447160" lon="-8.8062740">
        <ele>57.5</ele>
        <time>2021-05-20T06:10:04Z</time>
      </trkpt>
      <trkpt lat="42.1447300" lon="-8.8062710">
        <ele>57.6</ele>
        <time>2021-05-20T06:10:05Z</time>
      </trkpt>
      <trkpt lat="42.1447440" lon="-8.8062670">
        <ele>57.7</ele>
        <time>2021-05-20T06:10:06Z</time>
      </trkpt>
      <trkpt lat="42.1447480" lon="-8.8062610">
        <ele>57.8</ele>
        <time>2021-05-20T06:10:07Z</time>
      </trkpt>
      <trkpt lat="42.1447610" lon="-8.8062570">
        <ele>57.9</ele>
        <time>2021-05-20T06:10:08Z</time>
      </trkpt>
      <trkpt lat="42.1447800" lon="-8.8062600">
        <ele>58.0</ele>
        <time>2021-05-20T06:10:09Z</time>
      </trkpt>
      <trkpt lat="42.1447900" lon="-8.8062640">
        <ele>58.1</ele>
        <time>2021-05-20T06:10:10Z</time>
      </trkpt>
      <trkpt lat="42.1447990" lon="-8.8062670">
        <ele>58.1</ele>
        <time>2021-05-20T06:10:11Z</time>
      </trkpt>
      <trkpt lat="42.1448100" lon="-8.8062680">
        <ele>58.2</ele>
        <time>2021-05-20T06:10:12Z</time>
      </trkpt>
      <trkpt lat="42.1448190" lon="-8.8062660">
        <ele>58.2</ele>
        <time>2021-05-20T06:10:13Z</time>
      </trkpt>
      <trkpt lat="42.1448330" lon="-8.8062650">
        <ele>58.3</ele>
        <time>2021-05-20T06:10:14Z</time>
      </trkpt>
      <trkpt lat="42.1448470" lon="-8.8062680">
        <ele>58.4</ele>
        <time>2021-05-20T06:10:15Z</time>
      </trkpt>
      <trkpt lat="42.1448620" lon="-8.8062680">
        <ele>58.5</ele>
        <time>2021-05-20T06:10:16Z</time>
      </trkpt>
      <trkpt lat="42.1448680" lon="-8.8062580">
        <ele>58.6</ele>
        <time>2021-05-20T06:10:17Z</time>
      </trkpt>
      <trkpt lat="42.1448790" lon="-8.8062540">
        <ele>58.7</ele>
        <time>2021-05-20T06:10:18Z</time>
      </trkpt>
      <trkpt lat="42.1448880" lon="-8.8062500">
        <ele>58.7</ele>
        <time>2021-05-20T06:10:19Z</time>
      </trkpt>
      <trkpt lat="42.1449010" lon="-8.8062460">
        <ele>58.8</ele>
        <time>2021-05-20T06:10:20Z</time>
      </trkpt>
      <trkpt lat="42.1449080" lon="-8.8062400">
        <ele>58.9</ele>
        <time>2021-05-20T06:10:21Z</time>
      </trkpt>
      <trkpt lat="42.1449220" lon="-8.8062380">
        <ele>59.0</ele>
        <time>2021-05-20T06:10:22Z</time>
      </trkpt>
      <trkpt lat="42.1449370" lon="-8.8062380">
        <ele>59.1</ele>
        <time>2021-05-20T06:10:23Z</time>
      </trkpt>
      <trkpt lat="42.1449490" lon="-8.8062350">
        <ele>59.2</ele>
        <time>2021-05-20T06:10:24Z</time>
      </trkpt>
      <trkpt lat="42.1449620" lon="-8.8062350">
        <ele>59.2</ele>
        <time>2021-05-20T06:10:25Z</time>
      </trkpt>
      <trkpt lat="42.1449730" lon="-8.8062350">
        <ele>59.3</ele>
        <time>2021-05-20T06:10:26Z</time>
      </trkpt>
      <trkpt lat="42.1449850" lon="-8.8062380">
        <ele>59.4</ele>
        <time>2021-05-20T06:10:27Z</time>
      </trkpt>
      <trkpt lat="42.1450010" lon="-8.8062320">
        <ele>59.5</ele>
        <time>2021-05-20T06:10:28Z</time>
      </trkpt>
      <trkpt lat="42.1450120" lon="-8.8062310">
        <ele>59.6</ele>
        <time>2021-05-20T06:10:29Z</time>
      </trkpt>
      <trkpt lat="42.1450220" lon="-8.8062290">
        <ele>59.7</ele>
        <time>2021-05-20T06:10:30Z</time>
      </trkpt>
      <trkpt lat="42.1450250" lon="-8.8062220">
        <ele>59.7</ele>
        <time>2021-05-20T06:10:31Z</time>
      </trkpt>
      <trkpt lat="42.1450400" lon="-8.8062190">
        <ele>59.8</ele>
        <time>2021-05-20T06:10:32Z</time>
      </trkpt>
      <trkpt lat="42.1450500" lon="-8.8062170">
        <ele>59.9</ele>
        <time>2021-05-20T06:10:33Z</time>
      </trkpt>
      <trkpt lat="42.1450540" lon="-8.8062180">
        <ele>59.9</ele>
        <time>2021-05-20T06:10:34Z</time>
      </trkpt>
      <trkpt lat="42.1450600" lon="-8.8062130">
        <ele>59.9</ele>
        <time>2021-05-20T06:10:35Z</time>
      </trkpt>
      <trkpt lat="42.1450770" lon="-8.8062090">
        <ele>60.1</ele>
        <time>2021-05-20T06:10:36Z</time>
      </trkpt>
      <trkpt lat="42.1450970" lon="-8.8062140">
        <ele>60.2</ele>
        <time>2021-05-20T06:10:37Z</time>
      </trkpt>
      <trkpt lat="42.1451070" lon="-8.8062130">
        <ele>60.3</ele>
        <time>2021-05-20T06:10:38Z</time>
      </trkpt>
      <trkpt lat="42.1451310" lon="-8.8062120">
        <ele>60.4</ele>
        <time>2021-05-20T06:10:39Z</time>
      </trkpt>
      <trkpt lat="42.1451320" lon="-8.8062050">
        <ele>60.5</ele>
        <time>2021-05-20T06:10:40Z</time>
      </trkpt>
      <trkpt lat="42.1451370" lon="-8.8061940">
        <ele>60.5</ele>
        <time>2021-05-20T06:10:41Z</time>
      </trkpt>
      <trkpt lat="42.1451440" lon="-8.8061870">
        <ele>60.6</ele>
        <time>2021-05-20T06:10:42Z</time>
      </trkpt>
      <trkpt lat="42.1451550" lon="-8.8061850">
        <ele>60.6</ele>
        <time>2021-05-20T06:10:43Z</time>
      </trkpt>
      <trkpt lat="42.1451680" lon="-8.8061830">
        <ele>60.7</ele>
        <time>2021-05-20T06:10:44Z</time>
      </trkpt>
      <trkpt lat="42.1451750" lon="-8.8061800">
        <ele>60.8</ele>
        <time>2021-05-20T06:10:45Z</time>
      </trkpt>
      <trkpt lat="42.1451890" lon="-8.8061840">
        <ele>60.9</ele>
        <time>2021-05-20T06:10:46Z</time>
      </trkpt>
      <trkpt lat="42.1451980" lon="-8.8061780">
        <ele>60.9</ele>
        <time>2021-05-20T06:10:47Z</time>
      </trkpt>
      <trkpt lat="42.1452120" lon="-8.8061710">
        <ele>61.0</ele>
        <time>2021-05-20T06:10:48Z</time>
      </trkpt>
      <trkpt lat="42.1452220" lon="-8.8061660">
        <ele>61.1</ele>
        <time>2021-05-20T06:10:49Z</time>
      </trkpt>
      <trkpt lat="42.1452320" lon="-8.8061640">
        <ele>61.2</ele>
        <time>2021-05-20T06:10:50Z</time>
      </trkpt>
      <trkpt lat="42.1452550" lon="-8.8061590">
        <ele>61.3</ele>
        <time>2021-05-20T06:10:51Z</time>
      </trkpt>
      <trkpt lat="42.1452620" lon="-8.8061550">
        <ele>61.3</ele>
        <time>2021-05-20T06:10:52Z</time>
      </trkpt>
      <trkpt lat="42.1452680" lon="-8.8061510">
        <ele>61.4</ele>
        <time>2021-05-20T06:10:53Z</time>
      </trkpt>
      <trkpt lat="42.1452840" lon="-8.8061410">
        <ele>61.5</ele>
        <time>2021-05-20T06:10:54Z</time>
      </trkpt>
      <trkpt lat="42.1452940" lon="-8.8061360">
        <ele>61.6</ele>
        <time>2021-05-20T06:10:55Z</time>
      </trkpt>
      <trkpt lat="42.1453030" lon="-8.8061320">
        <ele>61.6</ele>
        <time>2021-05-20T06:10:56Z</time>
      </trkpt>
      <trkpt lat="42.1453130" lon="-8.8061270">
        <ele>61.7</ele>
        <time>2021-05-20T06:10:57Z</time>
      </trkpt>
      <trkpt lat="42.1453230" lon="-8.8061210">
        <ele>61.8</ele>
        <time>2021-05-20T06:10:58Z</time>
      </trkpt>
      <trkpt lat="42.1453320" lon="-8.8061230">
        <ele>61.8</ele>
        <time>2021-05-20T06:10:59Z</time>
      </trkpt>
      <trkpt lat="42.1453530" lon="-8.8061140">
        <ele>62.0</ele>
        <time>2021-05-20T06:11:00Z</time>
      </trkpt>
      <trkpt lat="42.1453600" lon="-8.8061090">
        <ele>62.0</ele>
        <time>2021-05-20T06:11:01Z</time>
      </trkpt>
      <trkpt lat="42.1453670" lon="-8.8061050">
        <ele>62.1</ele>
        <time>2021-05-20T06:11:02Z</time>
      </trkpt>
      <trkpt lat="42.1453820" lon="-8.8061000">
        <ele>62.2</ele>
        <time>2021-05-20T06:11:03Z</time>
      </trkpt>
      <trkpt lat="42.1453910" lon="-8.8060970">
        <ele>62.2</ele>
        <time>2021-05-20T06:11:04Z</time>
      </trkpt>
      <trkpt lat="42.1453990" lon="-8.8060930">
        <ele>62.3</ele>
        <time>2021-05-20T06:11:05Z</time>
      </trkpt>
      <trkpt lat="42.1454070" lon="-8.8060900">
        <ele>62.3</ele>
        <time>2021-05-20T06:11:06Z</time>
      </trkpt>
      <trkpt lat="42.1454270" lon="-8.8060790">
        <ele>62.5</ele>
        <time>2021-05-20T06:11:07Z</time>
      </trkpt>
      <trkpt lat="42.1454370" lon="-8.8060700">
        <ele>62.6</ele>
        <time>2021-05-20T06:11:08Z</time>
      </trkpt>
      <trkpt lat="42.1454520" lon="-8.8060520">
        <ele>62.7</ele>
        <time>2021-05-20T06:11:09Z</time>
      </trkpt>
      <trkpt lat="42.1454610" lon="-8.8060490">
        <ele>62.8</ele>
        <time>2021-05-20T06:11:10Z</time>
      </trkpt>
      <trkpt lat="42.1454760" lon="-8.8060620">
        <ele>62.9</ele>
        <time>2021-05-20T06:11:11Z</time>
      </trkpt>
      <trkpt lat="42.1454850" lon="-8.8060670">
        <ele>62.9</ele>
        <time>2021-05-20T06:11:12Z</time>
      </trkpt>
      <trkpt lat="42.1454930" lon="-8.8060720">
        <ele>63.0</ele>
        <time>2021-05-20T06:11:13Z</time>
      </trkpt>
      <trkpt lat="42.1455220" lon="-8.8060810">
        <ele>63.2</ele>
        <time>2021-05-20T06:11:14Z</time>
      </trkpt>
      <trkpt lat="42.1455310" lon="-8.8060840">
        <ele>63.3</ele>
        <time>2021-05-20T06:11:15Z</time>
      </trkpt>
      <trkpt lat="42.1455350" lon="-8.8060780">
        <ele>63.3</ele>
        <time>2021-05-20T06:11:16Z</time>
      </trkpt>
      <trkpt lat="42.1455480" lon="-8.8060760">
        <ele>63.4</ele>
        <time>2021-05-20T06:11:17Z</time>
      </trkpt>
      <trkpt lat="42.1455540" lon="-8.8060740">
        <ele>63.4</ele>
        <time>2021-05-20T06:11:18Z</time>
      </trkpt>
      <trkpt lat="42.1455650" lon="-8.8060760">
        <ele>63.5</ele>
        <time>2021-05-20T06:11:19Z</time>
      </trkpt>
      <trkpt lat="42.1455700" lon="-8.8060850">
        <ele>63.5</ele>
        <time>2021-05-20T06:11:20Z</time>
      </trkpt>
      <trkpt lat="42.1455900" lon="-8.8060860">
        <ele>63.7</ele>
        <time>2021-05-20T06:11:21Z</time>
      </trkpt>
      <trkpt lat="42.1455980" lon="-8.8060840">
        <ele>63.7</ele>
        <time>2021-05-20T06:11:22Z</time>
      </trkpt>
      <trkpt lat="42.1456050" lon="-8.8060840">
        <ele>63.8</ele>
        <time>2021-05-20T06:11:23Z</time>
      </trkpt>
      <trkpt lat="42.1456140" lon="-8.8060830">
        <ele>63.8</ele>
        <time>2021-05-20T06:11:24Z</time>
      </trkpt>
      <trkpt lat="42.1456270" lon="-8.8060850">
        <ele>63.9</ele>
        <time>2021-05-20T06:11:25Z</time>
      </trkpt>
      <trkpt lat="42.1456410" lon="-8.8060760">
        <ele>64.0</ele>
        <time>2021-05-20T06:11:26Z</time>
      </trkpt>
      <trkpt lat="42.1456510" lon="-8.8060650">
        <ele>64.1</ele>
        <time>2021-05-20T06:11:27Z</time>
      </trkpt>
      <trkpt lat="42.1456640" lon="-8.8060230">
        <ele>64.3</ele>
        <time>2021-05-20T06:11:28Z</time>
      </trkpt>
      <trkpt lat="42.1456670" lon="-8.8060120">
        <ele>64.4</ele>
        <time>2021-05-20T06:11:29Z</time>
      </trkpt>
      <trkpt lat="42.1456760" lon="-8.8059910">
        <ele>64.5</ele>
        <time>2021-05-20T06:11:30Z</time>
      </trkpt>
      <trkpt lat="42.1456800" lon="-8.8059740">
        <ele>64.6</ele>
        <time>2021-05-20T06:11:31Z</time>
      </trkpt>
      <trkpt lat="42.1456860" lon="-8.8059640">
        <ele>64.6</ele>
        <time>2021-05-20T06:11:32Z</time>
      </trkpt>
      <trkpt lat="42.1456920" lon="-8.8059540">
        <ele>64.7</ele>
        <time>2021-05-20T06:11:33Z</time>
      </trkpt>
      <trkpt lat="42.1456950" lon="-8.8059480">
        <ele>64.7</ele>
        <time>2021-05-20T06:11:34Z</time>
      </trkpt>
      <trkpt lat="42.1457010" lon="-8.8059400">
        <ele>64.8</ele>
        <time>2021-05-20T06:11:35Z</time>
      </trkpt>
      <trkpt lat="42.1457090" lon="-8.8059440">
        <ele>64.8</ele>
        <time>2021-05-20T06:11:36Z</time>
      </trkpt>
      <trkpt lat="42.1457130" lon="-8.8059470">
        <ele>64.9</ele>
        <time>2021-05-20T06:11:37Z</time>
      </trkpt>
      <trkpt lat="42.1457160" lon="-8.8059490">
        <ele>64.9</ele>
        <time>2021-05-20T06:11:38Z</time>
      </trkpt>
      <trkpt lat="42.1457190" lon="-8.8059510">
        <ele>64.9</ele>
        <time>2021-05-20T06:11:39Z</time>
      </trkpt>
      <trkpt lat="42.1457230" lon="-8.8059530">
        <ele>64.9</ele>
        <time>2021-05-20T06:11:40Z</time>
      </trkpt>
      <trkpt lat="42.1457260" lon="-8.8059560">
        <ele>64.9</ele>
        <time>2021-05-20T06:11:41Z</time>
      </trkpt>
      <trkpt lat="42.1457290" lon="-8.8059580">
        <ele>65.0</ele>
        <time>2021-05-20T06:11:42Z</time>
      </trkpt>
      <trkpt lat="42.1457320" lon="-8.8059600">
        <ele>65.0</ele>
        <time>2021-05-20T06:11:43Z</time>
      </trkpt>
      <trkpt lat="42.1457360" lon="-8.8059630">
        <ele>65.0</ele>
        <time>2021-05-20T06:11:44Z</time>
      </trkpt>
      <trkpt lat="42.1457390" lon="-8.8059650">
        <ele>65.0</ele>
        <time>2021-05-20T06:11:45Z</time>
      </trkpt>
      <trkpt lat="42.1457450" lon="-8.8059700">
        <ele>65.1</ele>
        <time>2021-05-20T06:11:46Z</time>
      </trkpt>
      <trkpt lat="42.1457450" lon="-8.8059700">
        <ele>65.1</ele>
        <time>2021-05-20T06:11:47Z</time>
      </trkpt>
      <trkpt lat="42.1457510" lon="-8.8059800">
        <ele>65.1</ele>
        <time>2021-05-20T06:11:48Z</time>
      </trkpt>
      <trkpt lat="42.1457520" lon="-8.8059810">
        <ele>65.1</ele>
        <time>2021-05-20T06:11:49Z</time>
      </trkpt>
      <trkpt lat="42.1457530" lon="-8.8059810">
        <ele>65.1</ele>
        <time>2021-05-20T06:11:50Z</time>
      </trkpt>
      <trkpt lat="42.1457550" lon="-8.8059830">
        <ele>65.1</ele>
        <time>2021-05-20T06:11:51Z</time>
      </trkpt>
      <trkpt lat="42.1457530" lon="-8.8059840">
        <ele>65.1</ele>
        <time>2021-05-20T06:11:52Z</time>
      </trkpt>
      <trkpt lat="42.1457550" lon="-8.8059830">
        <ele>65.2</ele>
        <time>2021-05-20T06:11:53Z</time>
      </trkpt>
      <trkpt lat="42.1457520" lon="-8.8059810">
        <ele>65.2</ele>
        <time>2021-05-20T06:11:54Z</time>
      </trkpt>
      <trkpt lat="42.1457520" lon="-8.8059820">
        <ele>65.2</ele>
        <time>2021-05-20T06:11:55Z</time>
      </trkpt>
      <trkpt lat="42.1457540" lon="-8.8059820">
        <ele>65.2</ele>
        <time>2021-05-20T06:11:56Z</time>
      </trkpt>
      <trkpt lat="42.1457520" lon="-8.8059780">
        <ele>65.2</ele>
        <time>2021-05-20T06:11:57Z</time>
      </trkpt>
      <trkpt lat="42.1457520" lon="-8.8059780">
        <ele>65.2</ele>
        <time>2021-05-20T06:11:58Z</time>
      </trkpt>
      <trkpt lat="42.1457520" lon="-8.8059780">
        <ele>65.2</ele>
        <time>2021-05-20T06:11:59Z</time>
      </trkpt>
      <trkpt lat="42.1457520" lon="-8.8059780">
        <ele>65.2</ele>
        <time>2021-05-20T06:12:00Z</time>
      </trkpt>
      <trkpt lat="42.1457520" lon="-8.8059780">
        <ele>65.2</ele>
        <time>2021-05-20T06:12:01Z</time>
      </trkpt>
      <trkpt lat="42.1457520" lon="-8.8059780">
        <ele>65.2</ele>
        <time>2021-05-20T06:12:02Z</time>
      </trkpt>
      <trkpt lat="42.1457520" lon="-8.8059780">
        <ele>65.2</ele>
        <time>2021-05-20T06:12:03Z</time>
      </trkpt>
      <trkpt lat="42.1457520" lon="-8.8059780">
        <ele>65.2</ele>
        <time>2021-05-20T06:12:04Z</time>
      </trkpt>
      <trkpt lat="42.1457520" lon="-8.8059780">
        <ele>65.2</ele>
        <time>2021-05-20T06:12:05Z</time>
      </trkpt>
      <trkpt lat="42.1457370" lon="-8.8059500">
        <ele>65.4</ele>
        <time>2021-05-20T06:12:06Z</time>
      </trkpt>
      <trkpt lat="42.1457410" lon="-8.8059520">
        <ele>65.4</ele>
        <time>2021-05-20T06:12:07Z</time>
      </trkpt>
      <trkpt lat="42.1457540" lon="-8.8059480">
        <ele>65.4</ele>
        <time>2021-05-20T06:12:08Z</time>
      </trkpt>
      <trkpt lat="42.1457700" lon="-8.8059420">
        <ele>65.5</ele>
        <time>2021-05-20T06:12:09Z</time>
      </trkpt>
      <trkpt lat="42.1457880" lon="-8.8059590">
        <ele>65.6</ele>
        <time>2021-05-20T06:12:10Z</time>
      </trkpt>
      <trkpt lat="42.1457950" lon="-8.8059640">
        <ele>65.7</ele>
        <time>2021-05-20T06:12:11Z</time>
      </trkpt>
      <trkpt lat="42.1458010" lon="-8.8059700">
        <ele>65.7</ele>
        <time>2021-05-20T06:12:12Z</time>
      </trkpt>
      <trkpt lat="42.1458170" lon="-8.8059730">
        <ele>65.7</ele>
        <time>2021-05-20T06:12:13Z</time>
      </trkpt>
      <trkpt lat="42.1458250" lon="-8.8059760">
        <ele>65.8</ele>
        <time>2021-05-20T06:12:14Z</time>
      </trkpt>
      <trkpt lat="42.1458330" lon="-8.8059790">
        <ele>65.8</ele>
        <time>2021-05-20T06:12:15Z</time>
      </trkpt>
      <trkpt lat="42.1458400" lon="-8.8059820">
        <ele>65.8</ele>
        <time>2021-05-20T06:12:16Z</time>
      </trkpt>
      <trkpt lat="42.1458480" lon="-8.8059850">
        <ele>65.9</ele>
        <time>2021-05-20T06:12:17Z</time>
      </trkpt>
      <trkpt lat="42.1458560" lon="-8.8059880">
        <ele>65.9</ele>
        <time>2021-05-20T06:12:18Z</time>
      </trkpt>
      <trkpt lat="42.1458670" lon="-8.8059890">
        <ele>65.9</ele>
        <time>2021-05-20T06:12:19Z</time>
      </trkpt>
      <trkpt lat="42.1458890" lon="-8.8060000">
        <ele>66.0</ele>
        <time>2021-05-20T06:12:20Z</time>
      </trkpt>
      <trkpt lat="42.1459040" lon="-8.8060190">
        <ele>66.1</ele>
        <time>2021-05-20T06:12:21Z</time>
      </trkpt>
      <trkpt lat="42.1459110" lon="-8.8060290">
        <ele>66.2</ele>
        <time>2021-05-20T06:12:22Z</time>
      </trkpt>
      <trkpt lat="42.1459180" lon="-8.8060380">
        <ele>66.2</ele>
        <time>2021-05-20T06:12:23Z</time>
      </trkpt>
      <trkpt lat="42.1459250" lon="-8.8060400">
        <ele>66.2</ele>
        <time>2021-05-20T06:12:24Z</time>
      </trkpt>
      <trkpt lat="42.1459420" lon="-8.8060450">
        <ele>66.3</ele>
        <time>2021-05-20T06:12:25Z</time>
      </trkpt>
      <trkpt lat="42.1459490" lon="-8.8060470">
        <ele>66.3</ele>
        <time>2021-05-20T06:12:26Z</time>
      </trkpt>
      <trkpt lat="42.1459680" lon="-8.8060540">
        <ele>66.4</ele>
        <time>2021-05-20T06:12:27Z</time>
      </trkpt>
      <trkpt lat="42.1459760" lon="-8.8060570">
        <ele>66.5</ele>
        <time>2021-05-20T06:12:28Z</time>
      </trkpt>
      <trkpt lat="42.1459840" lon="-8.8060610">
        <ele>66.5</ele>
        <time>2021-05-20T06:12:29Z</time>
      </trkpt>
      <trkpt lat="42.1459910" lon="-8.8060570">
        <ele>66.5</ele>
        <time>2021-05-20T06:12:30Z</time>
      </trkpt>
      <trkpt lat="42.1460070" lon="-8.8060460">
        <ele>66.6</ele>
        <time>2021-05-20T06:12:31Z</time>
      </trkpt>
      <trkpt lat="42.1460120" lon="-8.8060460">
        <ele>66.6</ele>
        <time>2021-05-20T06:12:32Z</time>
      </trkpt>
      <trkpt lat="42.1460260" lon="-8.8060400">
        <ele>66.7</ele>
        <time>2021-05-20T06:12:33Z</time>
      </trkpt>
      <trkpt lat="42.1460340" lon="-8.8060390">
        <ele>66.7</ele>
        <time>2021-05-20T06:12:34Z</time>
      </trkpt>
      <trkpt lat="42.1460420" lon="-8.8060370">
        <ele>66.8</ele>
        <time>2021-05-20T06:12:35Z</time>
      </trkpt>
      <trkpt lat="42.1460500" lon="-8.8060350">
        <ele>66.8</ele>
        <time>2021-05-20T06:12:36Z</time>
      </trkpt>
      <trkpt lat="42.1460650" lon="-8.8060110">
        <ele>66.9</ele>
        <time>2021-05-20T06:12:37Z</time>
      </trkpt>
      <trkpt lat="42.1460730" lon="-8.8060010">
        <ele>67.0</ele>
        <time>2021-05-20T06:12:38Z</time>
      </trkpt>
      <trkpt lat="42.1460880" lon="-8.8059870">
        <ele>67.1</ele>
        <time>2021-05-20T06:12:39Z</time>
      </trkpt>
      <trkpt lat="42.1461030" lon="-8.8059830">
        <ele>67.1</ele>
        <time>2021-05-20T06:12:40Z</time>
      </trkpt>
      <trkpt lat="42.1461110" lon="-8.8059890">
        <ele>67.2</ele>
        <time>2021-05-20T06:12:41Z</time>
      </trkpt>
      <trkpt lat="42.1461220" lon="-8.8059880">
        <ele>67.2</ele>
        <time>2021-05-20T06:12:42Z</time>
      </trkpt>
      <trkpt lat="42.1461330" lon="-8.8059950">
        <ele>67.3</ele>
        <time>2021-05-20T06:12:43Z</time>
      </trkpt>
      <trkpt lat="42.1461390" lon="-8.8060000">
        <ele>67.3</ele>
        <time>2021-05-20T06:12:44Z</time>
      </trkpt>
      <trkpt lat="42.1461470" lon="-8.8060000">
        <ele>67.3</ele>
        <time>2021-05-20T06:12:45Z</time>
      </trkpt>
      <trkpt lat="42.1461640" lon="-8.8060010">
        <ele>67.4</ele>
        <time>2021-05-20T06:12:46Z</time>
      </trkpt>
      <trkpt lat="42.1461910" lon="-8.8060000">
        <ele>67.5</ele>
        <time>2021-05-20T06:12:47Z</time>
      </trkpt>
      <trkpt lat="42.1462030" lon="-8.8060020">
        <ele>67.6</ele>
        <time>2021-05-20T06:12:48Z</time>
      </trkpt>
      <trkpt lat="42.1462210" lon="-8.8060050">
        <ele>67.7</ele>
        <time>2021-05-20T06:12:49Z</time>
      </trkpt>
      <trkpt lat="42.1462270" lon="-8.8060080">
        <ele>67.7</ele>
        <time>2021-05-20T06:12:50Z</time>
      </trkpt>
      <trkpt lat="42.1462340" lon="-8.8060120">
        <ele>67.7</ele>
        <time>2021-05-20T06:12:51Z</time>
      </trkpt>
      <trkpt lat="42.1462400" lon="-8.8060150">
        <ele>67.8</ele>
        <time>2021-05-20T06:12:52Z</time>
      </trkpt>
      <trkpt lat="42.1462630" lon="-8.8060130">
        <ele>67.9</ele>
        <time>2021-05-20T06:12:53Z</time>
      </trkpt>
      <trkpt lat="42.1462710" lon="-8.8060130">
        <ele>67.9</ele>
        <time>2021-05-20T06:12:54Z</time>
      </trkpt>
      <trkpt lat="42.1462790" lon="-8.8060140">
        <ele>67.9</ele>
        <time>2021-05-20T06:12:55Z</time>
      </trkpt>
      <trkpt lat="42.1462990" lon="-8.8060230">
        <ele>68.0</ele>
        <time>2021-05-20T06:12:56Z</time>
      </trkpt>
      <trkpt lat="42.1463130" lon="-8.8060270">
        <ele>68.1</ele>
        <time>2021-05-20T06:12:57Z</time>
      </trkpt>
      <trkpt lat="42.1463360" lon="-8.8060330">
        <ele>68.2</ele>
        <time>2021-05-20T06:12:58Z</time>
      </trkpt>
      <trkpt lat="42.1463450" lon="-8.8060420">
        <ele>68.2</ele>
        <time>2021-05-20T06:12:59Z</time>
      </trkpt>
      <trkpt lat="42.1463590" lon="-8.8060510">
        <ele>68.3</ele>
        <time>2021-05-20T06:13:00Z</time>
      </trkpt>
      <trkpt lat="42.1463720" lon="-8.8060500">
        <ele>68.4</ele>
        <time>2021-05-20T06:13:01Z</time>
      </trkpt>
      <trkpt lat="42.1463820" lon="-8.8060110">
        <ele>68.5</ele>
        <time>2021-05-20T06:13:02Z</time>
      </trkpt>
      <trkpt lat="42.1464030" lon="-8.8060070">
        <ele>68.6</ele>
        <time>2021-05-20T06:13:03Z</time>
      </trkpt>
      <trkpt lat="42.1464090" lon="-8.8060090">
        <ele>68.6</ele>
        <time>2021-05-20T06:13:04Z</time>
      </trkpt>
      <trkpt lat="42.1464150" lon="-8.8060110">
        <ele>68.6</ele>
        <time>2021-05-20T06:13:05Z</time>
      </trkpt>
      <trkpt lat="42.1464210" lon="-8.8060130">
        <ele>68.7</ele>
        <time>2021-05-20T06:13:06Z</time>
      </trkpt>
      <trkpt lat="42.1464270" lon="-8.8060110">
        <ele>68.7</ele>
        <time>2021-05-20T06:13:07Z</time>
      </trkpt>
      <trkpt lat="42.1464340" lon="-8.8060150">
        <ele>68.7</ele>
        <time>2021-05-20T06:13:08Z</time>
      </trkpt>
      <trkpt lat="42.1464500" lon="-8.8060160">
        <ele>68.8</ele>
        <time>2021-05-20T06:13:09Z</time>
      </trkpt>
      <trkpt lat="42.1464660" lon="-8.8060150">
        <ele>68.8</ele>
        <time>2021-05-20T06:13:10Z</time>
      </trkpt>
      <trkpt lat="42.1464810" lon="-8.8060090">
        <ele>68.9</ele>
        <time>2021-05-20T06:13:11Z</time>
      </trkpt>
      <trkpt lat="42.1464940" lon="-8.8060050">
        <ele>69.0</ele>
        <time>2021-05-20T06:13:12Z</time>
      </trkpt>
      <trkpt lat="42.1464990" lon="-8.8060030">
        <ele>69.0</ele>
        <time>2021-05-20T06:13:13Z</time>
      </trkpt>
      <trkpt lat="42.1465080" lon="-8.8060010">
        <ele>69.0</ele>
        <time>2021-05-20T06:13:14Z</time>
      </trkpt>
      <trkpt lat="42.1465280" lon="-8.8059960">
        <ele>69.1</ele>
        <time>2021-05-20T06:13:15Z</time>
      </trkpt>
      <trkpt lat="42.1465360" lon="-8.8059960">
        <ele>69.2</ele>
        <time>2021-05-20T06:13:16Z</time>
      </trkpt>
      <trkpt lat="42.1465510" lon="-8.8059990">
        <ele>69.2</ele>
        <time>2021-05-20T06:13:17Z</time>
      </trkpt>
      <trkpt lat="42.1465610" lon="-8.8060010">
        <ele>69.3</ele>
        <time>2021-05-20T06:13:18Z</time>
      </trkpt>
      <trkpt lat="42.1465690" lon="-8.8059980">
        <ele>69.3</ele>
        <time>2021-05-20T06:13:19Z</time>
      </trkpt>
      <trkpt lat="42.1465830" lon="-8.8060040">
        <ele>69.4</ele>
        <time>2021-05-20T06:13:20Z</time>
      </trkpt>
      <trkpt lat="42.1466020" lon="-8.8060010">
        <ele>69.5</ele>
        <time>2021-05-20T06:13:21Z</time>
      </trkpt>
      <trkpt lat="42.1466170" lon="-8.8060010">
        <ele>69.5</ele>
        <time>2021-05-20T06:13:22Z</time>
      </trkpt>
      <trkpt lat="42.1466230" lon="-8.8060020">
        <ele>69.6</ele>
        <time>2021-05-20T06:13:23Z</time>
      </trkpt>
      <trkpt lat="42.1466370" lon="-8.8060010">
        <ele>69.6</ele>
        <time>2021-05-20T06:13:24Z</time>
      </trkpt>
      <trkpt lat="42.1466480" lon="-8.8060000">
        <ele>69.7</ele>
        <time>2021-05-20T06:13:25Z</time>
      </trkpt>
      <trkpt lat="42.1466650" lon="-8.8060030">
        <ele>69.8</ele>
        <time>2021-05-20T06:13:26Z</time>
      </trkpt>
      <trkpt lat="42.1466800" lon="-8.8060070">
        <ele>69.8</ele>
        <time>2021-05-20T06:13:27Z</time>
      </trkpt>
      <trkpt lat="42.1466950" lon="-8.8060060">
        <ele>69.9</ele>
        <time>2021-05-20T06:13:28Z</time>
      </trkpt>
      <trkpt lat="42.1467120" lon="-8.8060120">
        <ele>70.0</ele>
        <time>2021-05-20T06:13:29Z</time>
      </trkpt>
      <trkpt lat="42.1467300" lon="-8.8060090">
        <ele>70.1</ele>
        <time>2021-05-20T06:13:30Z</time>
      </trkpt>
      <trkpt lat="42.1467520" lon="-8.8060060">
        <ele>70.2</ele>
        <time>2021-05-20T06:13:31Z</time>
      </trkpt>
      <trkpt lat="42.1467600" lon="-8.8060020">
        <ele>70.2</ele>
        <time>2021-05-20T06:13:32Z</time>
      </trkpt>
      <trkpt lat="42.1467690" lon="-8.8059990">
        <ele>70.2</ele>
        <time>2021-05-20T06:13:33Z</time>
      </trkpt>
      <trkpt lat="42.1467780" lon="-8.8059990">
        <ele>70.3</ele>
        <time>2021-05-20T06:13:34Z</time>
      </trkpt>
      <trkpt lat="42.1467880" lon="-8.8059890">
        <ele>70.3</ele>
        <time>2021-05-20T06:13:35Z</time>
      </trkpt>
      <trkpt lat="42.1467990" lon="-8.8059870">
        <ele>70.4</ele>
        <time>2021-05-20T06:13:36Z</time>
      </trkpt>
      <trkpt lat="42.1468020" lon="-8.8059710">
        <ele>70.5</ele>
        <time>2021-05-20T06:13:37Z</time>
      </trkpt>
      <trkpt lat="42.1468070" lon="-8.8059630">
        <ele>70.5</ele>
        <time>2021-05-20T06:13:38Z</time>
      </trkpt>
      <trkpt lat="42.1468130" lon="-8.8059540">
        <ele>70.5</ele>
        <time>2021-05-20T06:13:39Z</time>
      </trkpt>
      <trkpt lat="42.1468180" lon="-8.8059450">
        <ele>70.6</ele>
        <time>2021-05-20T06:13:40Z</time>
      </trkpt>
      <trkpt lat="42.1468390" lon="-8.8059470">
        <ele>70.7</ele>
        <time>2021-05-20T06:13:41Z</time>
      </trkpt>
      <trkpt lat="42.1468470" lon="-8.8059510">
        <ele>70.7</ele>
        <time>2021-05-20T06:13:42Z</time>
      </trkpt>
      <trkpt lat="42.1468550" lon="-8.8059550">
        <ele>70.8</ele>
        <time>2021-05-20T06:13:43Z</time>
      </trkpt>
      <trkpt lat="42.1468680" lon="-8.8059600">
        <ele>70.8</ele>
        <time>2021-05-20T06:13:44Z</time>
      </trkpt>
      <trkpt lat="42.1468770" lon="-8.8059680">
        <ele>70.9</ele>
        <time>2021-05-20T06:13:45Z</time>
      </trkpt>
      <trkpt lat="42.1468890" lon="-8.8059720">
        <ele>71.0</ele>
        <time>2021-05-20T06:13:46Z</time>
      </trkpt>
      <trkpt lat="42.1469030" lon="-8.8059700">
        <ele>71.1</ele>
        <time>2021-05-20T06:13:47Z</time>
      </trkpt>
      <trkpt lat="42.1469200" lon="-8.8059720">
        <ele>71.1</ele>
        <time>2021-05-20T06:13:48Z</time>
      </trkpt>
      <trkpt lat="42.1469290" lon="-8.8059680">
        <ele>71.2</ele>
        <time>2021-05-20T06:13:49Z</time>
      </trkpt>
      <trkpt lat="42.1469380" lon="-8.8059640">
        <ele>71.2</ele>
        <time>2021-05-20T06:13:50Z</time>
      </trkpt>
      <trkpt lat="42.1469400" lon="-8.8059640">
        <ele>71.2</ele>
        <time>2021-05-20T06:13:51Z</time>
      </trkpt>
      <trkpt lat="42.1469480" lon="-8.8059700">
        <ele>71.3</ele>
        <time>2021-05-20T06:13:52Z</time>
      </trkpt>
      <trkpt lat="42.1469570" lon="-8.8059710">
        <ele>71.3</ele>
        <time>2021-05-20T06:13:53Z</time>
      </trkpt>
      <trkpt lat="42.1469800" lon="-8.8059660">
        <ele>71.4</ele>
        <time>2021-05-20T06:13:54Z</time>
      </trkpt>
      <trkpt lat="42.1469880" lon="-8.8059670">
        <ele>71.5</ele>
        <time>2021-05-20T06:13:55Z</time>
      </trkpt>
      <trkpt lat="42.1469980" lon="-8.8059710">
        <ele>71.5</ele>
        <time>2021-05-20T06:13:56Z</time>
      </trkpt>
      <trkpt lat="42.1470010" lon="-8.8059730">
        <ele>71.5</ele>
        <time>2021-05-20T06:13:57Z</time>
      </trkpt>
      <trkpt lat="42.1470100" lon="-8.8059780">
        <ele>71.6</ele>
        <time>2021-05-20T06:13:58Z</time>
      </trkpt>
      <trkpt lat="42.1470290" lon="-8.8059710">
        <ele>71.7</ele>
        <time>2021-05-20T06:13:59Z</time>
      </trkpt>
      <trkpt lat="42.1470370" lon="-8.8059670">
        <ele>71.7</ele>
        <time>2021-05-20T06:14:00Z</time>
      </trkpt>
      <trkpt lat="42.1470460" lon="-8.8059640">
        <ele>71.7</ele>
        <time>2021-05-20T06:14:01Z</time>
      </trkpt>
      <trkpt lat="42.1470520" lon="-8.8059580">
        <ele>71.8</ele>
        <time>2021-05-20T06:14:02Z</time>
      </trkpt>
      <trkpt lat="42.1470630" lon="-8.8059510">
        <ele>71.8</ele>
        <time>2021-05-20T06:14:03Z</time>
      </trkpt>
      <trkpt lat="42.1470800" lon="-8.8059480">
        <ele>71.9</ele>
        <time>2021-05-20T06:14:04Z</time>
      </trkpt>
      <trkpt lat="42.1471020" lon="-8.8059170">
        <ele>72.1</ele>
        <time>2021-05-20T06:14:05Z</time>
      </trkpt>
      <trkpt lat="42.1471070" lon="-8.8059070">
        <ele>72.1</ele>
        <time>2021-05-20T06:14:06Z</time>
      </trkpt>
      <trkpt lat="42.1471200" lon="-8.8058910">
        <ele>72.2</ele>
        <time>2021-05-20T06:14:07Z</time>
      </trkpt>
      <trkpt lat="42.1471310" lon="-8.8058720">
        <ele>72.3</ele>
        <time>2021-05-20T06:14:08Z</time>
      </trkpt>
      <trkpt lat="42.1471570" lon="-8.8058460">
        <ele>72.4</ele>
        <time>2021-05-20T06:14:09Z</time>
      </trkpt>
      <trkpt lat="42.1471630" lon="-8.8058360">
        <ele>72.5</ele>
        <time>2021-05-20T06:14:10Z</time>
      </trkpt>
      <trkpt lat="42.1471720" lon="-8.8058240">
        <ele>72.5</ele>
        <time>2021-05-20T06:14:11Z</time>
      </trkpt>
      <trkpt lat="42.1471770" lon="-8.8058150">
        <ele>72.6</ele>
        <time>2021-05-20T06:14:12Z</time>
      </trkpt>
      <trkpt lat="42.1471900" lon="-8.8058080">
        <ele>72.6</ele>
        <time>2021-05-20T06:14:13Z</time>
      </trkpt>
      <trkpt lat="42.1472060" lon="-8.8057950">
        <ele>72.7</ele>
        <time>2021-05-20T06:14:14Z</time>
      </trkpt>
      <trkpt lat="42.1472150" lon="-8.8057920">
        <ele>72.8</ele>
        <time>2021-05-20T06:14:15Z</time>
      </trkpt>
      <trkpt lat="42.1472240" lon="-8.8057890">
        <ele>72.8</ele>
        <time>2021-05-20T06:14:16Z</time>
      </trkpt>
      <trkpt lat="42.1472420" lon="-8.8057810">
        <ele>72.9</ele>
        <time>2021-05-20T06:14:17Z</time>
      </trkpt>
      <trkpt lat="42.1472500" lon="-8.8057770">
        <ele>72.9</ele>
        <time>2021-05-20T06:14:18Z</time>
      </trkpt>
      <trkpt lat="42.1472590" lon="-8.8057730">
        <ele>73.0</ele>
        <time>2021-05-20T06:14:19Z</time>
      </trkpt>
      <trkpt lat="42.1472680" lon="-8.8057660">
        <ele>73.0</ele>
        <time>2021-05-20T06:14:20Z</time>
      </trkpt>
      <trkpt lat="42.1472830" lon="-8.8057580">
        <ele>73.1</ele>
        <time>2021-05-20T06:14:21Z</time>
      </trkpt>
      <trkpt lat="42.1472930" lon="-8.8057590">
        <ele>73.2</ele>
        <time>2021-05-20T06:14:22Z</time>
      </trkpt>
      <trkpt lat="42.1473080" lon="-8.8057520">
        <ele>73.2</ele>
        <time>2021-05-20T06:14:23Z</time>
      </trkpt>
      <trkpt lat="42.1473200" lon="-8.8057490">
        <ele>73.3</ele>
        <time>2021-05-20T06:14:24Z</time>
      </trkpt>
      <trkpt lat="42.1473440" lon="-8.8057480">
        <ele>73.4</ele>
        <time>2021-05-20T06:14:25Z</time>
      </trkpt>
      <trkpt lat="42.1473540" lon="-8.8057440">
        <ele>73.5</ele>
        <time>2021-05-20T06:14:26Z</time>
      </trkpt>
      <trkpt lat="42.1473640" lon="-8.8057410">
        <ele>73.5</ele>
        <time>2021-05-20T06:14:27Z</time>
      </trkpt>
      <trkpt lat="42.1473820" lon="-8.8057340">
        <ele>73.6</ele>
        <time>2021-05-20T06:14:28Z</time>
      </trkpt>
      <trkpt lat="42.1473970" lon="-8.8057340">
        <ele>73.7</ele>
        <time>2021-05-20T06:14:29Z</time>
      </trkpt>
      <trkpt lat="42.1474110" lon="-8.8057250">
        <ele>73.8</ele>
        <time>2021-05-20T06:14:30Z</time>
      </trkpt>
      <trkpt lat="42.1474280" lon="-8.8057340">
        <ele>73.9</ele>
        <time>2021-05-20T06:14:31Z</time>
      </trkpt>
      <trkpt lat="42.1474460" lon="-8.8057500">
        <ele>74.0</ele>
        <time>2021-05-20T06:14:32Z</time>
      </trkpt>
      <trkpt lat="42.1474520" lon="-8.8057590">
        <ele>74.0</ele>
        <time>2021-05-20T06:14:33Z</time>
      </trkpt>
      <trkpt lat="42.1474570" lon="-8.8057690">
        <ele>74.1</ele>
        <time>2021-05-20T06:14:34Z</time>
      </trkpt>
      <trkpt lat="42.1474680" lon="-8.8057810">
        <ele>74.1</ele>
        <time>2021-05-20T06:14:35Z</time>
      </trkpt>
      <trkpt lat="42.1474720" lon="-8.8057840">
        <ele>74.2</ele>
        <time>2021-05-20T06:14:36Z</time>
      </trkpt>
      <trkpt lat="42.1474890" lon="-8.8057850">
        <ele>74.2</ele>
        <time>2021-05-20T06:14:37Z</time>
      </trkpt>
      <trkpt lat="42.1475100" lon="-8.8057790">
        <ele>74.4</ele>
        <time>2021-05-20T06:14:38Z</time>
      </trkpt>
      <trkpt lat="42.1475190" lon="-8.8057790">
        <ele>74.4</ele>
        <time>2021-05-20T06:14:39Z</time>
      </trkpt>
      <trkpt lat="42.1475290" lon="-8.8057780">
        <ele>74.5</ele>
        <time>2021-05-20T06:14:40Z</time>
      </trkpt>
      <trkpt lat="42.1475480" lon="-8.8057800">
        <ele>74.6</ele>
        <time>2021-05-20T06:14:41Z</time>
      </trkpt>
      <trkpt lat="42.1475640" lon="-8.8057800">
        <ele>74.7</ele>
        <time>2021-05-20T06:14:42Z</time>
      </trkpt>
      <trkpt lat="42.1475700" lon="-8.8057750">
        <ele>74.7</ele>
        <time>2021-05-20T06:14:43Z</time>
      </trkpt>
      <trkpt lat="42.1475780" lon="-8.8057750">
        <ele>74.8</ele>
        <time>2021-05-20T06:14:44Z</time>
      </trkpt>
      <trkpt lat="42.1475930" lon="-8.8057790">
        <ele>74.8</ele>
        <time>2021-05-20T06:14:45Z</time>
      </trkpt>
      <trkpt lat="42.1476090" lon="-8.8057750">
        <ele>74.9</ele>
        <time>2021-05-20T06:14:46Z</time>
      </trkpt>
      <trkpt lat="42.1476240" lon="-8.8057720">
        <ele>75.0</ele>
        <time>2021-05-20T06:14:47Z</time>
      </trkpt>
      <trkpt lat="42.1476360" lon="-8.8057720">
        <ele>75.1</ele>
        <time>2021-05-20T06:14:48Z</time>
      </trkpt>
      <trkpt lat="42.1476560" lon="-8.8057710">
        <ele>75.2</ele>
        <time>2021-05-20T06:14:49Z</time>
      </trkpt>
      <trkpt lat="42.1476760" lon="-8.8057690">
        <ele>75.3</ele>
        <time>2021-05-20T06:14:50Z</time>
      </trkpt>
      <trkpt lat="42.1476860" lon="-8.8057670">
        <ele>75.4</ele>
        <time>2021-05-20T06:14:51Z</time>
      </trkpt>
      <trkpt lat="42.1476970" lon="-8.8057650">
        <ele>75.4</ele>
        <time>2021-05-20T06:14:52Z</time>
      </trkpt>
      <trkpt lat="42.1477100" lon="-8.8057660">
        <ele>75.5</ele>
        <time>2021-05-20T06:14:53Z</time>
      </trkpt>
      <trkpt lat="42.1477270" lon="-8.8057660">
        <ele>75.6</ele>
        <time>2021-05-20T06:14:54Z</time>
      </trkpt>
      <trkpt lat="42.1477480" lon="-8.8057760">
        <ele>75.7</ele>
        <time>2021-05-20T06:14:55Z</time>
      </trkpt>
      <trkpt lat="42.1477500" lon="-8.8057700">
        <ele>75.8</ele>
        <time>2021-05-20T06:14:56Z</time>
      </trkpt>
      <trkpt lat="42.1477630" lon="-8.8057730">
        <ele>75.8</ele>
        <time>2021-05-20T06:14:57Z</time>
      </trkpt>
      <trkpt lat="42.1477800" lon="-8.8057670">
        <ele>75.9</ele>
        <time>2021-05-20T06:14:58Z</time>
      </trkpt>
      <trkpt lat="42.1477920" lon="-8.8057650">
        <ele>76.0</ele>
        <time>2021-05-20T06:14:59Z</time>
      </trkpt>
      <trkpt lat="42.1478110" lon="-8.8057550">
        <ele>76.1</ele>
        <time>2021-05-20T06:15:00Z</time>
      </trkpt>
      <trkpt lat="42.1478260" lon="-8.8057530">
        <ele>76.2</ele>
        <time>2021-05-20T06:15:01Z</time>
      </trkpt>
      <trkpt lat="42.1478400" lon="-8.8057520">
        <ele>76.3</ele>
        <time>2021-05-20T06:15:02Z</time>
      </trkpt>
      <trkpt lat="42.1478590" lon="-8.8057530">
        <ele>76.4</ele>
        <time>2021-05-20T06:15:03Z</time>
      </trkpt>
      <trkpt lat="42.1478710" lon="-8.8057470">
        <ele>76.5</ele>
        <time>2021-05-20T06:15:04Z</time>
      </trkpt>
      <trkpt lat="42.1478870" lon="-8.8057600">
        <ele>76.6</ele>
        <time>2021-05-20T06:15:05Z</time>
      </trkpt>
      <trkpt lat="42.1479040" lon="-8.8057620">
        <ele>76.7</ele>
        <time>2021-05-20T06:15:06Z</time>
      </trkpt>
      <trkpt lat="42.1479200" lon="-8.8057570">
        <ele>76.8</ele>
        <time>2021-05-20T06:15:07Z</time>
      </trkpt>
      <trkpt lat="42.1479260" lon="-8.8057560">
        <ele>76.9</ele>
        <time>2021-05-20T06:15:08Z</time>
      </trkpt>
      <trkpt lat="42.1479360" lon="-8.8057500">
        <ele>76.9</ele>
        <time>2021-05-20T06:15:09Z</time>
      </trkpt>
      <trkpt lat="42.1479490" lon="-8.8057480">
        <ele>77.0</ele>
        <time>2021-05-20T06:15:10Z</time>
      </trkpt>
      <trkpt lat="42.1479590" lon="-8.8057450">
        <ele>77.1</ele>
        <time>2021-05-20T06:15:11Z</time>
      </trkpt>
      <trkpt lat="42.1479700" lon="-8.8057420">
        <ele>77.1</ele>
        <time>2021-05-20T06:15:12Z</time>
      </trkpt>
      <trkpt lat="42.1479830" lon="-8.8057370">
        <ele>77.2</ele>
        <time>2021-05-20T06:15:13Z</time>
      </trkpt>
      <trkpt lat="42.1479930" lon="-8.8057330">
        <ele>77.3</ele>
        <time>2021-05-20T06:15:14Z</time>
      </trkpt>
      <trkpt lat="42.1480040" lon="-8.8057280">
        <ele>77.3</ele>
        <time>2021-05-20T06:15:15Z</time>
      </trkpt>
      <trkpt lat="42.1480230" lon="-8.8057320">
        <ele>77.4</ele>
        <time>2021-05-20T06:15:16Z</time>
      </trkpt>
      <trkpt lat="42.1480320" lon="-8.8057320">
        <ele>77.5</ele>
        <time>2021-05-20T06:15:17Z</time>
      </trkpt>
      <trkpt lat="42.1480420" lon="-8.8057320">
        <ele>77.6</ele>
        <time>2021-05-20T06:15:18Z</time>
      </trkpt>
      <trkpt lat="42.1480580" lon="-8.8057270">
        <ele>77.6</ele>
        <time>2021-05-20T06:15:19Z</time>
      </trkpt>
      <trkpt lat="42.1480710" lon="-8.8057240">
        <ele>77.7</ele>
        <time>2021-05-20T06:15:20Z</time>
      </trkpt>
      <trkpt lat="42.1480830" lon="-8.8057140">
        <ele>77.8</ele>
        <time>2021-05-20T06:15:21Z</time>
      </trkpt>
      <trkpt lat="42.1480880" lon="-8.8057120">
        <ele>77.8</ele>
        <time>2021-05-20T06:15:22Z</time>
      </trkpt>
      <trkpt lat="42.1481040" lon="-8.8057100">
        <ele>77.9</ele>
        <time>2021-05-20T06:15:23Z</time>
      </trkpt>
      <trkpt lat="42.1481260" lon="-8.8057070">
        <ele>78.0</ele>
        <time>2021-05-20T06:15:24Z</time>
      </trkpt>
      <trkpt lat="42.1481340" lon="-8.8057040">
        <ele>78.1</ele>
        <time>2021-05-20T06:15:25Z</time>
      </trkpt>
      <trkpt lat="42.1481410" lon="-8.8057000">
        <ele>78.1</ele>
        <time>2021-05-20T06:15:26Z</time>
      </trkpt>
      <trkpt lat="42.1481530" lon="-8.8056960">
        <ele>78.2</ele>
        <time>2021-05-20T06:15:27Z</time>
      </trkpt>
      <trkpt lat="42.1481710" lon="-8.8056920">
        <ele>78.3</ele>
        <time>2021-05-20T06:15:28Z</time>
      </trkpt>
      <trkpt lat="42.1481830" lon="-8.8056850">
        <ele>78.3</ele>
        <time>2021-05-20T06:15:29Z</time>
      </trkpt>
      <trkpt lat="42.1481990" lon="-8.8056810">
        <ele>78.4</ele>
        <time>2021-05-20T06:15:30Z</time>
      </trkpt>
      <trkpt lat="42.1482140" lon="-8.8056820">
        <ele>78.5</ele>
        <time>2021-05-20T06:15:31Z</time>
      </trkpt>
      <trkpt lat="42.1482250" lon="-8.8056780">
        <ele>78.6</ele>
        <time>2021-05-20T06:15:32Z</time>
      </trkpt>
      <trkpt lat="42.1482430" lon="-8.8056710">
        <ele>78.7</ele>
        <time>2021-05-20T06:15:33Z</time>
      </trkpt>
      <trkpt lat="42.1482540" lon="-8.8056620">
        <ele>78.7</ele>
        <time>2021-05-20T06:15:34Z</time>
      </trkpt>
      <trkpt lat="42.1482750" lon="-8.8056530">
        <ele>78.9</ele>
        <time>2021-05-20T06:15:35Z</time>
      </trkpt>
      <trkpt lat="42.1482820" lon="-8.8056490">
        <ele>78.9</ele>
        <time>2021-05-20T06:15:36Z</time>
      </trkpt>
      <trkpt lat="42.1482900" lon="-8.8056460">
        <ele>78.9</ele>
        <time>2021-05-20T06:15:37Z</time>
      </trkpt>
      <trkpt lat="42.1482990" lon="-8.8056440">
        <ele>79.0</ele>
        <time>2021-05-20T06:15:38Z</time>
      </trkpt>
      <trkpt lat="42.1483130" lon="-8.8056410">
        <ele>79.1</ele>
        <time>2021-05-20T06:15:39Z</time>
      </trkpt>
      <trkpt lat="42.1483250" lon="-8.8056320">
        <ele>79.1</ele>
        <time>2021-05-20T06:15:40Z</time>
      </trkpt>
      <trkpt lat="42.1483470" lon="-8.8056270">
        <ele>79.3</ele>
        <time>2021-05-20T06:15:41Z</time>
      </trkpt>
      <trkpt lat="42.1483540" lon="-8.8056250">
        <ele>79.3</ele>
        <time>2021-05-20T06:15:42Z</time>
      </trkpt>
      <trkpt lat="42.1483620" lon="-8.8056220">
        <ele>79.3</ele>
        <time>2021-05-20T06:15:43Z</time>
      </trkpt>
      <trkpt lat="42.1483790" lon="-8.8056140">
        <ele>79.4</ele>
        <time>2021-05-20T06:15:44Z</time>
      </trkpt>
      <trkpt lat="42.1483930" lon="-8.8056090">
        <ele>79.5</ele>
        <time>2021-05-20T06:15:45Z</time>
      </trkpt>
      <trkpt lat="42.1484110" lon="-8.8055960">
        <ele>79.6</ele>
        <time>2021-05-20T06:15:46Z</time>
      </trkpt>
      <trkpt lat="42.1484200" lon="-8.8055930">
        <ele>79.7</ele>
        <time>2021-05-20T06:15:47Z</time>
      </trkpt>
      <trkpt lat="42.1484290" lon="-8.8055890">
        <ele>79.7</ele>
        <time>2021-05-20T06:15:48Z</time>
      </trkpt>
      <trkpt lat="42.1484380" lon="-8.8055790">
        <ele>79.8</ele>
        <time>2021-05-20T06:15:49Z</time>
      </trkpt>
      <trkpt lat="42.1484510" lon="-8.8055720">
        <ele>79.9</ele>
        <time>2021-05-20T06:15:50Z</time>
      </trkpt>
      <trkpt lat="42.1484580" lon="-8.8055650">
        <ele>79.9</ele>
        <time>2021-05-20T06:15:51Z</time>
      </trkpt>
      <trkpt lat="42.1484740" lon="-8.8055500">
        <ele>80.0</ele>
        <time>2021-05-20T06:15:52Z</time>
      </trkpt>
      <trkpt lat="42.1484810" lon="-8.8055420">
        <ele>80.1</ele>
        <time>2021-05-20T06:15:53Z</time>
      </trkpt>
      <trkpt lat="42.1484870" lon="-8.8055350">
        <ele>80.1</ele>
        <time>2021-05-20T06:15:54Z</time>
      </trkpt>
      <trkpt lat="42.1484930" lon="-8.8055270">
        <ele>80.1</ele>
        <time>2021-05-20T06:15:55Z</time>
      </trkpt>
      <trkpt lat="42.1484940" lon="-8.8055260">
        <ele>80.2</ele>
        <time>2021-05-20T06:15:56Z</time>
      </trkpt>
      <trkpt lat="42.1484940" lon="-8.8055250">
        <ele>80.2</ele>
        <time>2021-05-20T06:15:57Z</time>
      </trkpt>
      <trkpt lat="42.1484940" lon="-8.8055240">
        <ele>80.2</ele>
        <time>2021-05-20T06:15:58Z</time>
      </trkpt>
      <trkpt lat="42.1484950" lon="-8.8055230">
        <ele>80.2</ele>
        <time>2021-05-20T06:15:59Z</time>
      </trkpt>
      <trkpt lat="42.1484950" lon="-8.8055220">
        <ele>80.2</ele>
        <time>2021-05-20T06:16:00Z</time>
      </trkpt>
      <trkpt lat="42.1484950" lon="-8.8055210">
        <ele>80.2</ele>
        <time>2021-05-20T06:16:01Z</time>
      </trkpt>
      <trkpt lat="42.1484960" lon="-8.8055200">
        <ele>80.2</ele>
        <time>2021-05-20T06:16:02Z</time>
      </trkpt>
      <trkpt lat="42.1484960" lon="-8.8055180">
        <ele>80.2</ele>
        <time>2021-05-20T06:16:03Z</time>
      </trkpt>
      <trkpt lat="42.1484960" lon="-8.8055170">
        <ele>80.2</ele>
        <time>2021-05-20T06:16:04Z</time>
      </trkpt>
      <trkpt lat="42.1484960" lon="-8.8055160">
        <ele>80.2</ele>
        <time>2021-05-20T06:16:05Z</time>
      </trkpt>
      <trkpt lat="42.1484970" lon="-8.8055150">
        <ele>80.2</ele>
        <time>2021-05-20T06:16:06Z</time>
      </trkpt>
      <trkpt lat="42.1484970" lon="-8.8055140">
        <ele>80.2</ele>
        <time>2021-05-20T06:16:07Z</time>
      </trkpt>
      <trkpt lat="42.1484970" lon="-8.8055130">
        <ele>80.2</ele>
        <time>2021-05-20T06:16:08Z</time>
      </trkpt>
      <trkpt lat="42.1484980" lon="-8.8055120">
        <ele>80.2</ele>
        <time>2021-05-20T06:16:09Z</time>
      </trkpt>
      <trkpt lat="42.1484980" lon="-8.8055110">
        <ele>80.2</ele>
        <time>2021-05-20T06:16:10Z</time>
      </trkpt>
      <trkpt lat="42.1484980" lon="-8.8055100">
        <ele>80.2</ele>
        <time>2021-05-20T06:16:11Z</time>
      </trkpt>
      <trkpt lat="42.1484990" lon="-8.8055090">
        <ele>80.2</ele>
        <time>2021-05-20T06:16:12Z</time>
      </trkpt>
      <trkpt lat="42.1484990" lon="-8.8055080">
        <ele>80.2</ele>
        <time>2021-05-20T06:16:13Z</time>
      </trkpt>
      <trkpt lat="42.1484990" lon="-8.8055070">
        <ele>80.2</ele>
        <time>2021-05-20T06:16:14Z</time>
      </trkpt>
      <trkpt lat="42.1485000" lon="-8.8055060">
        <ele>80.3</ele>
        <time>2021-05-20T06:16:15Z</time>
      </trkpt>
      <trkpt lat="42.1485000" lon="-8.8055050">
        <ele>80.3</ele>
        <time>2021-05-20T06:16:16Z</time>
      </trkpt>
      <trkpt lat="42.1485000" lon="-8.8055040">
        <ele>80.3</ele>
        <time>2021-05-20T06:16:17Z</time>
      </trkpt>
      <trkpt lat="42.1485010" lon="-8.8055030">
        <ele>80.3</ele>
        <time>2021-05-20T06:16:18Z</time>
      </trkpt>
      <trkpt lat="42.1485010" lon="-8.8055010">
        <ele>80.3</ele>
        <time>2021-05-20T06:16:19Z</time>
      </trkpt>
      <trkpt lat="42.1485010" lon="-8.8055000">
        <ele>80.3</ele>
        <time>2021-05-20T06:16:20Z</time>
      </trkpt>
      <trkpt lat="42.1485010" lon="-8.8054990">
        <ele>80.3</ele>
        <time>2021-05-20T06:16:21Z</time>
      </trkpt>
      <trkpt lat="42.1485020" lon="-8.8054980">
        <ele>80.3</ele>
        <time>2021-05-20T06:16:22Z</time>
      </trkpt>
      <trkpt lat="42.1485020" lon="-8.8054970">
        <ele>80.3</ele>
        <time>2021-05-20T06:16:23Z</time>
      </trkpt>
      <trkpt lat="42.1485020" lon="-8.8054960">
        <ele>80.3</ele>
        <time>2021-05-20T06:16:24Z</time>
      </trkpt>
      <trkpt lat="42.1485030" lon="-8.8054950">
        <ele>80.3</ele>
        <time>2021-05-20T06:16:25Z</time>
      </trkpt>
      <trkpt lat="42.1485030" lon="-8.8054940">
        <ele>80.3</ele>
        <time>2021-05-20T06:16:26Z</time>
      </trkpt>
      <trkpt lat="42.1485030" lon="-8.8054930">
        <ele>80.3</ele>
        <time>2021-05-20T06:16:27Z</time>
      </trkpt>
      <trkpt lat="42.1485040" lon="-8.8054920">
        <ele>80.3</ele>
        <time>2021-05-20T06:16:28Z</time>
      </trkpt>
      <trkpt lat="42.1485040" lon="-8.8054910">
        <ele>80.3</ele>
        <time>2021-05-20T06:16:29Z</time>
      </trkpt>
      <trkpt lat="42.1485040" lon="-8.8054900">
        <ele>80.3</ele>
        <time>2021-05-20T06:16:30Z</time>
      </trkpt>
      <trkpt lat="42.1485050" lon="-8.8054890">
        <ele>80.3</ele>
        <time>2021-05-20T06:16:31Z</time>
      </trkpt>
      <trkpt lat="42.1485050" lon="-8.8054880">
        <ele>80.3</ele>
        <time>2021-05-20T06:16:32Z</time>
      </trkpt>
      <trkpt lat="42.1485050" lon="-8.8054870">
        <ele>80.3</ele>
        <time>2021-05-20T06:16:33Z</time>
      </trkpt>
      <trkpt lat="42.1485060" lon="-8.8054860">
        <ele>80.3</ele>
        <time>2021-05-20T06:16:34Z</time>
      </trkpt>
      <trkpt lat="42.1485060" lon="-8.8054840">
        <ele>80.4</ele>
        <time>2021-05-20T06:16:35Z</time>
      </trkpt>
      <trkpt lat="42.1485060" lon="-8.8054830">
        <ele>80.4</ele>
        <time>2021-05-20T06:16:36Z</time>
      </trkpt>
      <trkpt lat="42.1485060" lon="-8.8054820">
        <ele>80.4</ele>
        <time>2021-05-20T06:16:37Z</time>
      </trkpt>
      <trkpt lat="42.1485070" lon="-8.8054810">
        <ele>80.4</ele>
        <time>2021-05-20T06:16:38Z</time>
      </trkpt>
      <trkpt lat="42.1485070" lon="-8.8054800">
        <ele>80.4</ele>
        <time>2021-05-20T06:16:39Z</time>
      </trkpt>
      <trkpt lat="42.1485070" lon="-8.8054790">
        <ele>80.4</ele>
        <time>2021-05-20T06:16:40Z</time>
      </trkpt>
      <trkpt lat="42.1485080" lon="-8.8054780">
        <ele>80.4</ele>
        <time>2021-05-20T06:16:41Z</time>
      </trkpt>
      <trkpt lat="42.1485080" lon="-8.8054770">
        <ele>80.4</ele>
        <time>2021-05-20T06:16:42Z</time>
      </trkpt>
      <trkpt lat="42.1485300" lon="-8.8054690">
        <ele>80.5</ele>
        <time>2021-05-20T06:16:43Z</time>
      </trkpt>
      <trkpt lat="42.1485400" lon="-8.8054640">
        <ele>80.6</ele>
        <time>2021-05-20T06:16:44Z</time>
      </trkpt>
      <trkpt lat="42.1485490" lon="-8.8054590">
        <ele>80.6</ele>
        <time>2021-05-20T06:16:45Z</time>
      </trkpt>
      <trkpt lat="42.1485650" lon="-8.8054440">
        <ele>80.7</ele>
        <time>2021-05-20T06:16:46Z</time>
      </trkpt>
      <trkpt lat="42.1485720" lon="-8.8054360">
        <ele>80.8</ele>
        <time>2021-05-20T06:16:47Z</time>
      </trkpt>
      <trkpt lat="42.1485790" lon="-8.8054290">
        <ele>80.8</ele>
        <time>2021-05-20T06:16:48Z</time>
      </trkpt>
      <trkpt lat="42.1485930" lon="-8.8054220">
        <ele>80.9</ele>
        <time>2021-05-20T06:16:49Z</time>
      </trkpt>
      <trkpt lat="42.1486070" lon="-8.8054100">
        <ele>81.0</ele>
        <time>2021-05-20T06:16:50Z</time>
      </trkpt>
      <trkpt lat="42.1486290" lon="-8.8054020">
        <ele>81.1</ele>
        <time>2021-05-20T06:16:51Z</time>
      </trkpt>
      <trkpt lat="42.1486370" lon="-8.8053970">
        <ele>81.2</ele>
        <time>2021-05-20T06:16:52Z</time>
      </trkpt>
      <trkpt lat="42.1486460" lon="-8.8053930">
        <ele>81.2</ele>
        <time>2021-05-20T06:16:53Z</time>
      </trkpt>
      <trkpt lat="42.1486630" lon="-8.8053820">
        <ele>81.3</ele>
        <time>2021-05-20T06:16:54Z</time>
      </trkpt>
      <trkpt lat="42.1486720" lon="-8.8053740">
        <ele>81.4</ele>
        <time>2021-05-20T06:16:55Z</time>
      </trkpt>
      <trkpt lat="42.1486840" lon="-8.8053680">
        <ele>81.4</ele>
        <time>2021-05-20T06:16:56Z</time>
      </trkpt>
      <trkpt lat="42.1486970" lon="-8.8053560">
        <ele>81.5</ele>
        <time>2021-05-20T06:16:57Z</time>
      </trkpt>
      <trkpt lat="42.1487100" lon="-8.8053440">
        <ele>81.6</ele>
        <time>2021-05-20T06:16:58Z</time>
      </trkpt>
      <trkpt lat="42.1487150" lon="-8.8053360">
        <ele>81.7</ele>
        <time>2021-05-20T06:16:59Z</time>
      </trkpt>
      <trkpt lat="42.1487200" lon="-8.8053220">
        <ele>81.7</ele>
        <time>2021-05-20T06:17:00Z</time>
      </trkpt>
      <trkpt lat="42.1487320" lon="-8.8053110">
        <ele>81.8</ele>
        <time>2021-05-20T06:17:01Z</time>
      </trkpt>
      <trkpt lat="42.1487440" lon="-8.8053050">
        <ele>81.9</ele>
        <time>2021-05-20T06:17:02Z</time>
      </trkpt>
      <trkpt lat="42.1487640" lon="-8.8052910">
        <ele>82.0</ele>
        <time>2021-05-20T06:17:03Z</time>
      </trkpt>
      <trkpt lat="42.1487730" lon="-8.8052850">
        <ele>82.1</ele>
        <time>2021-05-20T06:17:04Z</time>
      </trkpt>
      <trkpt lat="42.1487830" lon="-8.8052790">
        <ele>82.1</ele>
        <time>2021-05-20T06:17:05Z</time>
      </trkpt>
      <trkpt lat="42.1487980" lon="-8.8052570">
        <ele>82.3</ele>
        <time>2021-05-20T06:17:06Z</time>
      </trkpt>
      <trkpt lat="42.1488040" lon="-8.8052480">
        <ele>82.3</ele>
        <time>2021-05-20T06:17:07Z</time>
      </trkpt>
      <trkpt lat="42.1488110" lon="-8.8052390">
        <ele>82.4</ele>
        <time>2021-05-20T06:17:08Z</time>
      </trkpt>
      <trkpt lat="42.1488210" lon="-8.8052310">
        <ele>82.5</ele>
        <time>2021-05-20T06:17:09Z</time>
      </trkpt>
      <trkpt lat="42.1488310" lon="-8.8052150">
        <ele>82.5</ele>
        <time>2021-05-20T06:17:10Z</time>
      </trkpt>
      <trkpt lat="42.1488490" lon="-8.8052030">
        <ele>82.7</ele>
        <time>2021-05-20T06:17:11Z</time>
      </trkpt>
      <trkpt lat="42.1488570" lon="-8.8051970">
        <ele>82.7</ele>
        <time>2021-05-20T06:17:12Z</time>
      </trkpt>
      <trkpt lat="42.1488650" lon="-8.8051900">
        <ele>82.8</ele>
        <time>2021-05-20T06:17:13Z</time>
      </trkpt>
      <trkpt lat="42.1488790" lon="-8.8051830">
        <ele>82.9</ele>
        <time>2021-05-20T06:17:14Z</time>
      </trkpt>
      <trkpt lat="42.1488880" lon="-8.8051700">
        <ele>83.0</ele>
        <time>2021-05-20T06:17:15Z</time>
      </trkpt>
      <trkpt lat="42.1488950" lon="-8.8051610">
        <ele>83.0</ele>
        <time>2021-05-20T06:17:16Z</time>
      </trkpt>
      <trkpt lat="42.1489020" lon="-8.8051490">
        <ele>83.1</ele>
        <time>2021-05-20T06:17:17Z</time>
      </trkpt>
      <trkpt lat="42.1489080" lon="-8.8051400">
        <ele>83.2</ele>
        <time>2021-05-20T06:17:18Z</time>
      </trkpt>
      <trkpt lat="42.1489170" lon="-8.8051260">
        <ele>83.3</ele>
        <time>2021-05-20T06:17:19Z</time>
      </trkpt>
      <trkpt lat="42.1489230" lon="-8.8051160">
        <ele>83.3</ele>
        <time>2021-05-20T06:17:20Z</time>
      </trkpt>
      <trkpt lat="42.1489310" lon="-8.8051040">
        <ele>83.4</ele>
        <time>2021-05-20T06:17:21Z</time>
      </trkpt>
      <trkpt lat="42.1489430" lon="-8.8050820">
        <ele>83.5</ele>
        <time>2021-05-20T06:17:22Z</time>
      </trkpt>
      <trkpt lat="42.1489470" lon="-8.8050720">
        <ele>83.6</ele>
        <time>2021-05-20T06:17:23Z</time>
      </trkpt>
      <trkpt lat="42.1489510" lon="-8.8050620">
        <ele>83.6</ele>
        <time>2021-05-20T06:17:24Z</time>
      </trkpt>
      <trkpt lat="42.1489610" lon="-8.8050490">
        <ele>83.7</ele>
        <time>2021-05-20T06:17:25Z</time>
      </trkpt>
      <trkpt lat="42.1489670" lon="-8.8050340">
        <ele>83.8</ele>
        <time>2021-05-20T06:17:26Z</time>
      </trkpt>
      <trkpt lat="42.1489680" lon="-8.8050220">
        <ele>83.9</ele>
        <time>2021-05-20T06:17:27Z</time>
      </trkpt>
      <trkpt lat="42.1489770" lon="-8.8050070">
        <ele>84.0</ele>
        <time>2021-05-20T06:17:28Z</time>
      </trkpt>
      <trkpt lat="42.1489830" lon="-8.8049910">
        <ele>84.1</ele>
        <time>2021-05-20T06:17:29Z</time>
      </trkpt>
      <trkpt lat="42.1489910" lon="-8.8049780">
        <ele>84.2</ele>
        <time>2021-05-20T06:17:30Z</time>
      </trkpt>
      <trkpt lat="42.1489970" lon="-8.8049630">
        <ele>84.2</ele>
        <time>2021-05-20T06:17:31Z</time>
      </trkpt>
      <trkpt lat="42.1490050" lon="-8.8049570">
        <ele>84.3</ele>
        <time>2021-05-20T06:17:32Z</time>
      </trkpt>
      <trkpt lat="42.1490200" lon="-8.8049460">
        <ele>84.4</ele>
        <time>2021-05-20T06:17:33Z</time>
      </trkpt>
      <trkpt lat="42.1490260" lon="-8.8049300">
        <ele>84.5</ele>
        <time>2021-05-20T06:17:34Z</time>
      </trkpt>
      <trkpt lat="42.1490380" lon="-8.8049100">
        <ele>84.7</ele>
        <time>2021-05-20T06:17:35Z</time>
      </trkpt>
      <trkpt lat="42.1490460" lon="-8.8049000">
        <ele>84.7</ele>
        <time>2021-05-20T06:17:36Z</time>
      </trkpt>
      <trkpt lat="42.1490550" lon="-8.8048910">
        <ele>84.8</ele>
        <time>2021-05-20T06:17:37Z</time>
      </trkpt>
      <trkpt lat="42.1490640" lon="-8.8048800">
        <ele>84.9</ele>
        <time>2021-05-20T06:17:38Z</time>
      </trkpt>
      <trkpt lat="42.1490850" lon="-8.8048650">
        <ele>85.1</ele>
        <time>2021-05-20T06:17:39Z</time>
      </trkpt>
      <trkpt lat="42.1490910" lon="-8.8048570">
        <ele>85.1</ele>
        <time>2021-05-20T06:17:40Z</time>
      </trkpt>
      <trkpt lat="42.1491000" lon="-8.8048490">
        <ele>85.2</ele>
        <time>2021-05-20T06:17:41Z</time>
      </trkpt>
      <trkpt lat="42.1491090" lon="-8.8048350">
        <ele>85.3</ele>
        <time>2021-05-20T06:17:42Z</time>
      </trkpt>
      <trkpt lat="42.1491140" lon="-8.8048170">
        <ele>85.4</ele>
        <time>2021-05-20T06:17:43Z</time>
      </trkpt>
      <trkpt lat="42.1491210" lon="-8.8048020">
        <ele>85.5</ele>
        <time>2021-05-20T06:17:44Z</time>
      </trkpt>
      <trkpt lat="42.1491310" lon="-8.8048030">
        <ele>85.6</ele>
        <time>2021-05-20T06:17:45Z</time>
      </trkpt>
      <trkpt lat="42.1491480" lon="-8.8047900">
        <ele>85.7</ele>
        <time>2021-05-20T06:17:46Z</time>
      </trkpt>
      <trkpt lat="42.1491560" lon="-8.8047810">
        <ele>85.8</ele>
        <time>2021-05-20T06:17:47Z</time>
      </trkpt>
      <trkpt lat="42.1491640" lon="-8.8047680">
        <ele>85.9</ele>
        <time>2021-05-20T06:17:48Z</time>
      </trkpt>
      <trkpt lat="42.1491710" lon="-8.8047610">
        <ele>86.0</ele>
        <time>2021-05-20T06:17:49Z</time>
      </trkpt>
      <trkpt lat="42.1491820" lon="-8.8047370">
        <ele>86.1</ele>
        <time>2021-05-20T06:17:50Z</time>
      </trkpt>
      <trkpt lat="42.1491860" lon="-8.8047280">
        <ele>86.2</ele>
        <time>2021-05-20T06:17:51Z</time>
      </trkpt>
      <trkpt lat="42.1491910" lon="-8.8047180">
        <ele>86.3</ele>
        <time>2021-05-20T06:17:52Z</time>
      </trkpt>
      <trkpt lat="42.1491980" lon="-8.8047040">
        <ele>86.3</ele>
        <time>2021-05-20T06:17:53Z</time>
      </trkpt>
      <trkpt lat="42.1492120" lon="-8.8046920">
        <ele>86.5</ele>
        <time>2021-05-20T06:17:54Z</time>
      </trkpt>
      <trkpt lat="42.1492140" lon="-8.8046770">
        <ele>86.6</ele>
        <time>2021-05-20T06:17:55Z</time>
      </trkpt>
      <trkpt lat="42.1492210" lon="-8.8046700">
        <ele>86.6</ele>
        <time>2021-05-20T06:17:56Z</time>
      </trkpt>
      <trkpt lat="42.1492320" lon="-8.8046600">
        <ele>86.7</ele>
        <time>2021-05-20T06:17:57Z</time>
      </trkpt>
      <trkpt lat="42.1492360" lon="-8.8046490">
        <ele>86.8</ele>
        <time>2021-05-20T06:17:58Z</time>
      </trkpt>
      <trkpt lat="42.1492420" lon="-8.8046370">
        <ele>86.9</ele>
        <time>2021-05-20T06:17:59Z</time>
      </trkpt>
      <trkpt lat="42.1492550" lon="-8.8046320">
        <ele>87.0</ele>
        <time>2021-05-20T06:18:00Z</time>
      </trkpt>
      <trkpt lat="42.1492570" lon="-8.8046200">
        <ele>87.0</ele>
        <time>2021-05-20T06:18:01Z</time>
      </trkpt>
      <trkpt lat="42.1492620" lon="-8.8046070">
        <ele>87.1</ele>
        <time>2021-05-20T06:18:02Z</time>
      </trkpt>
      <trkpt lat="42.1492690" lon="-8.8045960">
        <ele>87.2</ele>
        <time>2021-05-20T06:18:03Z</time>
      </trkpt>
      <trkpt lat="42.1492820" lon="-8.8045760">
        <ele>87.3</ele>
        <time>2021-05-20T06:18:04Z</time>
      </trkpt>
      <trkpt lat="42.1492870" lon="-8.8045670">
        <ele>87.4</ele>
        <time>2021-05-20T06:18:05Z</time>
      </trkpt>
      <trkpt lat="42.1492930" lon="-8.8045570">
        <ele>87.5</ele>
        <time>2021-05-20T06:18:06Z</time>
      </trkpt>
      <trkpt lat="42.1493020" lon="-8.8045460">
        <ele>87.6</ele>
        <time>2021-05-20T06:18:07Z</time>
      </trkpt>
      <trkpt lat="42.1493030" lon="-8.8045410">
        <ele>87.6</ele>
        <time>2021-05-20T06:18:08Z</time>
      </trkpt>
      <trkpt lat="42.1493130" lon="-8.8045370">
        <ele>87.7</ele>
        <time>2021-05-20T06:18:09Z</time>
      </trkpt>
      <trkpt lat="42.1493120" lon="-8.8045250">
        <ele>87.7</ele>
        <time>2021-05-20T06:18:10Z</time>
      </trkpt>
      <trkpt lat="42.1493190" lon="-8.8045170">
        <ele>87.8</ele>
        <time>2021-05-20T06:18:11Z</time>
      </trkpt>
      <trkpt lat="42.1493250" lon="-8.8045130">
        <ele>87.8</ele>
        <time>2021-05-20T06:18:12Z</time>
      </trkpt>
      <trkpt lat="42.1493340" lon="-8.8045030">
        <ele>87.9</ele>
        <time>2021-05-20T06:18:13Z</time>
      </trkpt>
      <trkpt lat="42.1493390" lon="-8.8044940">
        <ele>88.0</ele>
        <time>2021-05-20T06:18:14Z</time>
      </trkpt>
      <trkpt lat="42.1493560" lon="-8.8044890">
        <ele>88.1</ele>
        <time>2021-05-20T06:18:15Z</time>
      </trkpt>
      <trkpt lat="42.1493620" lon="-8.8044830">
        <ele>88.2</ele>
        <time>2021-05-20T06:18:16Z</time>
      </trkpt>
      <trkpt lat="42.1493740" lon="-8.8044790">
        <ele>88.3</ele>
        <time>2021-05-20T06:18:17Z</time>
      </trkpt>
      <trkpt lat="42.1493730" lon="-8.8044810">
        <ele>88.3</ele>
        <time>2021-05-20T06:18:18Z</time>
      </trkpt>
      <trkpt lat="42.1493730" lon="-8.8044820">
        <ele>88.3</ele>
        <time>2021-05-20T06:18:19Z</time>
      </trkpt>
      <trkpt lat="42.1493710" lon="-8.8044830">
        <ele>88.3</ele>
        <time>2021-05-20T06:18:20Z</time>
      </trkpt>
      <trkpt lat="42.1493720" lon="-8.8044810">
        <ele>88.3</ele>
        <time>2021-05-20T06:18:21Z</time>
      </trkpt>
      <trkpt lat="42.1493700" lon="-8.8044830">
        <ele>88.3</ele>
        <time>2021-05-20T06:18:22Z</time>
      </trkpt>
      <trkpt lat="42.1493730" lon="-8.8044870">
        <ele>88.4</ele>
        <time>2021-05-20T06:18:23Z</time>
      </trkpt>
      <trkpt lat="42.1493720" lon="-8.8044920">
        <ele>88.4</ele>
        <time>2021-05-20T06:18:24Z</time>
      </trkpt>
      <trkpt lat="42.1493720" lon="-8.8044920">
        <ele>88.4</ele>
        <time>2021-05-20T06:18:25Z</time>
      </trkpt>
      <trkpt lat="42.1493720" lon="-8.8044920">
        <ele>88.4</ele>
        <time>2021-05-20T06:18:26Z</time>
      </trkpt>
      <trkpt lat="42.1493720" lon="-8.8045040">
        <ele>88.4</ele>
        <time>2021-05-20T06:18:27Z</time>
      </trkpt>
      <trkpt lat="42.1493710" lon="-8.8045060">
        <ele>88.4</ele>
        <time>2021-05-20T06:18:28Z</time>
      </trkpt>
      <trkpt lat="42.1493700" lon="-8.8045090">
        <ele>88.5</ele>
        <time>2021-05-20T06:18:29Z</time>
      </trkpt>
      <trkpt lat="42.1493680" lon="-8.8045100">
        <ele>88.5</ele>
        <time>2021-05-20T06:18:30Z</time>
      </trkpt>
      <trkpt lat="42.1493650" lon="-8.8045180">
        <ele>88.5</ele>
        <time>2021-05-20T06:18:31Z</time>
      </trkpt>
      <trkpt lat="42.1493660" lon="-8.8045220">
        <ele>88.5</ele>
        <time>2021-05-20T06:18:32Z</time>
      </trkpt>
      <trkpt lat="42.1493660" lon="-8.8045240">
        <ele>88.5</ele>
        <time>2021-05-20T06:18:33Z</time>
      </trkpt>
      <trkpt lat="42.1493660" lon="-8.8045240">
        <ele>88.5</ele>
        <time>2021-05-20T06:18:34Z</time>
      </trkpt>
      <trkpt lat="42.1493580" lon="-8.8045270">
        <ele>88.6</ele>
        <time>2021-05-20T06:18:35Z</time>
      </trkpt>
      <trkpt lat="42.1493560" lon="-8.8045260">
        <ele>88.6</ele>
        <time>2021-05-20T06:18:36Z</time>
      </trkpt>
      <trkpt lat="42.1493560" lon="-8.8045270">
        <ele>88.6</ele>
        <time>2021-05-20T06:18:37Z</time>
      </trkpt>
      <trkpt lat="42.1493560" lon="-8.8045290">
        <ele>88.6</ele>
        <time>2021-05-20T06:18:38Z</time>
      </trkpt>
      <trkpt lat="42.1493550" lon="-8.8045260">
        <ele>88.6</ele>
        <time>2021-05-20T06:18:39Z</time>
      </trkpt>
      <trkpt lat="42.1493540" lon="-8.8045210">
        <ele>88.7</ele>
        <time>2021-05-20T06:18:40Z</time>
      </trkpt>
      <trkpt lat="42.1493530" lon="-8.8045190">
        <ele>88.7</ele>
        <time>2021-05-20T06:18:41Z</time>
      </trkpt>
      <trkpt lat="42.1493540" lon="-8.8045170">
        <ele>88.7</ele>
        <time>2021-05-20T06:18:42Z</time>
      </trkpt>
      <trkpt lat="42.1493520" lon="-8.8045160">
        <ele>88.7</ele>
        <time>2021-05-20T06:18:43Z</time>
      </trkpt>
      <trkpt lat="42.1493520" lon="-8.8045170">
        <ele>88.7</ele>
        <time>2021-05-20T06:18:44Z</time>
      </trkpt>
      <trkpt lat="42.1493530" lon="-8.8045200">
        <ele>88.7</ele>
        <time>2021-05-20T06:18:45Z</time>
      </trkpt>
      <trkpt lat="42.1493550" lon="-8.8045210">
        <ele>88.7</ele>
        <time>2021-05-20T06:18:46Z</time>
      </trkpt>
      <trkpt lat="42.1493540" lon="-8.8045200">
        <ele>88.7</ele>
        <time>2021-05-20T06:18:47Z</time>
      </trkpt>
      <trkpt lat="42.1493540" lon="-8.8045140">
        <ele>88.8</ele>
        <time>2021-05-20T06:18:48Z</time>
      </trkpt>
      <trkpt lat="42.1493560" lon="-8.8045160">
        <ele>88.8</ele>
        <time>2021-05-20T06:18:49Z</time>
      </trkpt>
      <trkpt lat="42.1493630" lon="-8.8045190">
        <ele>88.8</ele>
        <time>2021-05-20T06:18:50Z</time>
      </trkpt>
      <trkpt lat="42.1493760" lon="-8.8045280">
        <ele>88.9</ele>
        <time>2021-05-20T06:18:51Z</time>
      </trkpt>
      <trkpt lat="42.1493770" lon="-8.8045270">
        <ele>88.9</ele>
        <time>2021-05-20T06:18:52Z</time>
      </trkpt>
      <trkpt lat="42.1493940" lon="-8.8045380">
        <ele>89.1</ele>
        <time>2021-05-20T06:18:53Z</time>
      </trkpt>
      <trkpt lat="42.1494060" lon="-8.8045400">
        <ele>89.1</ele>
        <time>2021-05-20T06:18:54Z</time>
      </trkpt>
      <trkpt lat="42.1494130" lon="-8.8045410">
        <ele>89.2</ele>
        <time>2021-05-20T06:18:55Z</time>
      </trkpt>
      <trkpt lat="42.1494270" lon="-8.8045420">
        <ele>89.3</ele>
        <time>2021-05-20T06:18:56Z</time>
      </trkpt>
      <trkpt lat="42.1494360" lon="-8.8045430">
        <ele>89.3</ele>
        <time>2021-05-20T06:18:57Z</time>
      </trkpt>
      <trkpt lat="42.1494530" lon="-8.8045490">
        <ele>89.4</ele>
        <time>2021-05-20T06:18:58Z</time>
      </trkpt>
      <trkpt lat="42.1494630" lon="-8.8045420">
        <ele>89.5</ele>
        <time>2021-05-20T06:18:59Z</time>
      </trkpt>
      <trkpt lat="42.1494710" lon="-8.8045380">
        <ele>89.6</ele>
        <time>2021-05-20T06:19:00Z</time>
      </trkpt>
      <trkpt lat="42.1494820" lon="-8.8045330">
        <ele>89.7</ele>
        <time>2021-05-20T06:19:01Z</time>
      </trkpt>
      <trkpt lat="42.1494940" lon="-8.8045280">
        <ele>89.7</ele>
        <time>2021-05-20T06:19:02Z</time>
      </trkpt>
      <trkpt lat="42.1495010" lon="-8.8045300">
        <ele>89.8</ele>
        <time>2021-05-20T06:19:03Z</time>
      </trkpt>
      <trkpt lat="42.1495130" lon="-8.8045300">
        <ele>89.9</ele>
        <time>2021-05-20T06:19:04Z</time>
      </trkpt>
      <trkpt lat="42.1495330" lon="-8.8045270">
        <ele>90.0</ele>
        <time>2021-05-20T06:19:05Z</time>
      </trkpt>
      <trkpt lat="42.1495400" lon="-8.8045240">
        <ele>90.1</ele>
        <time>2021-05-20T06:19:06Z</time>
      </trkpt>
      <trkpt lat="42.1495460" lon="-8.8045200">
        <ele>90.1</ele>
        <time>2021-05-20T06:19:07Z</time>
      </trkpt>
      <trkpt lat="42.1495530" lon="-8.8045170">
        <ele>90.1</ele>
        <time>2021-05-20T06:19:08Z</time>
      </trkpt>
      <trkpt lat="42.1495680" lon="-8.8045100">
        <ele>90.3</ele>
        <time>2021-05-20T06:19:09Z</time>
      </trkpt>
      <trkpt lat="42.1495720" lon="-8.8045090">
        <ele>90.3</ele>
        <time>2021-05-20T06:19:10Z</time>
      </trkpt>
      <trkpt lat="42.1495840" lon="-8.8045020">
        <ele>90.4</ele>
        <time>2021-05-20T06:19:11Z</time>
      </trkpt>
      <trkpt lat="42.1495940" lon="-8.8044930">
        <ele>90.4</ele>
        <time>2021-05-20T06:19:12Z</time>
      </trkpt>
      <trkpt lat="42.1496090" lon="-8.8044810">
        <ele>90.6</ele>
        <time>2021-05-20T06:19:13Z</time>
      </trkpt>
      <trkpt lat="42.1496350" lon="-8.8044770">
        <ele>90.7</ele>
        <time>2021-05-20T06:19:14Z</time>
      </trkpt>
      <trkpt lat="42.1496440" lon="-8.8044760">
        <ele>90.8</ele>
        <time>2021-05-20T06:19:15Z</time>
      </trkpt>
      <trkpt lat="42.1496530" lon="-8.8044740">
        <ele>90.9</ele>
        <time>2021-05-20T06:19:16Z</time>
      </trkpt>
      <trkpt lat="42.1496730" lon="-8.8044700">
        <ele>91.0</ele>
        <time>2021-05-20T06:19:17Z</time>
      </trkpt>
      <trkpt lat="42.1496820" lon="-8.8044670">
        <ele>91.1</ele>
        <time>2021-05-20T06:19:18Z</time>
      </trkpt>
      <trkpt lat="42.1496900" lon="-8.8044650">
        <ele>91.1</ele>
        <time>2021-05-20T06:19:19Z</time>
      </trkpt>
      <trkpt lat="42.1496990" lon="-8.8044630">
        <ele>91.2</ele>
        <time>2021-05-20T06:19:20Z</time>
      </trkpt>
      <trkpt lat="42.1497120" lon="-8.8044600">
        <ele>91.3</ele>
        <time>2021-05-20T06:19:21Z</time>
      </trkpt>
      <trkpt lat="42.1497210" lon="-8.8044590">
        <ele>91.3</ele>
        <time>2021-05-20T06:19:22Z</time>
      </trkpt>
      <trkpt lat="42.1497390" lon="-8.8044590">
        <ele>91.4</ele>
        <time>2021-05-20T06:19:23Z</time>
      </trkpt>
      <trkpt lat="42.1497480" lon="-8.8044590">
        <ele>91.5</ele>
        <time>2021-05-20T06:19:24Z</time>
      </trkpt>
      <trkpt lat="42.1497580" lon="-8.8044580">
        <ele>91.6</ele>
        <time>2021-05-20T06:19:25Z</time>
      </trkpt>
      <trkpt lat="42.1497690" lon="-8.8044600">
        <ele>91.6</ele>
        <time>2021-05-20T06:19:26Z</time>
      </trkpt>
      <trkpt lat="42.1497850" lon="-8.8044670">
        <ele>91.8</ele>
        <time>2021-05-20T06:19:27Z</time>
      </trkpt>
      <trkpt lat="42.1497880" lon="-8.8044650">
        <ele>91.8</ele>
        <time>2021-05-20T06:19:28Z</time>
      </trkpt>
      <trkpt lat="42.1497990" lon="-8.8044680">
        <ele>91.9</ele>
        <time>2021-05-20T06:19:29Z</time>
      </trkpt>
      <trkpt lat="42.1498040" lon="-8.8044730">
        <ele>91.9</ele>
        <time>2021-05-20T06:19:30Z</time>
      </trkpt>
      <trkpt lat="42.1498170" lon="-8.8044720">
        <ele>92.0</ele>
        <time>2021-05-20T06:19:31Z</time>
      </trkpt>
      <trkpt lat="42.1498190" lon="-8.8044610">
        <ele>92.0</ele>
        <time>2021-05-20T06:19:32Z</time>
      </trkpt>
      <trkpt lat="42.1498310" lon="-8.8044600">
        <ele>92.1</ele>
        <time>2021-05-20T06:19:33Z</time>
      </trkpt>
      <trkpt lat="42.1498440" lon="-8.8044610">
        <ele>92.2</ele>
        <time>2021-05-20T06:19:34Z</time>
      </trkpt>
      <trkpt lat="42.1498660" lon="-8.8044570">
        <ele>92.4</ele>
        <time>2021-05-20T06:19:35Z</time>
      </trkpt>
      <trkpt lat="42.1498750" lon="-8.8044530">
        <ele>92.4</ele>
        <time>2021-05-20T06:19:36Z</time>
      </trkpt>
      <trkpt lat="42.1498840" lon="-8.8044480">
        <ele>92.5</ele>
        <time>2021-05-20T06:19:37Z</time>
      </trkpt>
      <trkpt lat="42.1498960" lon="-8.8044480">
        <ele>92.6</ele>
        <time>2021-05-20T06:19:38Z</time>
      </trkpt>
      <trkpt lat="42.1499120" lon="-8.8044440">
        <ele>92.7</ele>
        <time>2021-05-20T06:19:39Z</time>
      </trkpt>
      <trkpt lat="42.1499240" lon="-8.8044390">
        <ele>92.8</ele>
        <time>2021-05-20T06:19:40Z</time>
      </trkpt>
      <trkpt lat="42.1499330" lon="-8.8044370">
        <ele>92.8</ele>
        <time>2021-05-20T06:19:41Z</time>
      </trkpt>
      <trkpt lat="42.1499470" lon="-8.8044350">
        <ele>92.9</ele>
        <time>2021-05-20T06:19:42Z</time>
      </trkpt>
      <trkpt lat="42.1499570" lon="-8.8044310">
        <ele>93.0</ele>
        <time>2021-05-20T06:19:43Z</time>
      </trkpt>
      <trkpt lat="42.1499670" lon="-8.8044290">
        <ele>93.1</ele>
        <time>2021-05-20T06:19:44Z</time>
      </trkpt>
      <trkpt lat="42.1499740" lon="-8.8044260">
        <ele>93.1</ele>
        <time>2021-05-20T06:19:45Z</time>
      </trkpt>
      <trkpt lat="42.1499820" lon="-8.8044160">
        <ele>93.2</ele>
        <time>2021-05-20T06:19:46Z</time>
      </trkpt>
      <trkpt lat="42.1499960" lon="-8.8044140">
        <ele>93.3</ele>
        <time>2021-05-20T06:19:47Z</time>
      </trkpt>
      <trkpt lat="42.1500060" lon="-8.8044090">
        <ele>93.3</ele>
        <time>2021-05-20T06:19:48Z</time>
      </trkpt>
      <trkpt lat="42.1500090" lon="-8.8044030">
        <ele>93.4</ele>
        <time>2021-05-20T06:19:49Z</time>
      </trkpt>
      <trkpt lat="42.1500150" lon="-8.8043970">
        <ele>93.4</ele>
        <time>2021-05-20T06:19:50Z</time>
      </trkpt>
      <trkpt lat="42.1500300" lon="-8.8043900">
        <ele>93.5</ele>
        <time>2021-05-20T06:19:51Z</time>
      </trkpt>
      <trkpt lat="42.1500410" lon="-8.8043830">
        <ele>93.6</ele>
        <time>2021-05-20T06:19:52Z</time>
      </trkpt>
      <trkpt lat="42.1500590" lon="-8.8043740">
        <ele>93.7</ele>
        <time>2021-05-20T06:19:53Z</time>
      </trkpt>
      <trkpt lat="42.1500710" lon="-8.8043680">
        <ele>93.8</ele>
        <time>2021-05-20T06:19:54Z</time>
      </trkpt>
      <trkpt lat="42.1500880" lon="-8.8043700">
        <ele>93.9</ele>
        <time>2021-05-20T06:19:55Z</time>
      </trkpt>
      <trkpt lat="42.1501010" lon="-8.8043760">
        <ele>94.0</ele>
        <time>2021-05-20T06:19:56Z</time>
      </trkpt>
      <trkpt lat="42.1501050" lon="-8.8043830">
        <ele>94.1</ele>
        <time>2021-05-20T06:19:57Z</time>
      </trkpt>
      <trkpt lat="42.1501160" lon="-8.8043840">
        <ele>94.1</ele>
        <time>2021-05-20T06:19:58Z</time>
      </trkpt>
      <trkpt lat="42.1501300" lon="-8.8043850">
        <ele>94.2</ele>
        <time>2021-05-20T06:19:59Z</time>
      </trkpt>
      <trkpt lat="42.1501370" lon="-8.8043790">
        <ele>94.3</ele>
        <time>2021-05-20T06:20:00Z</time>
      </trkpt>
      <trkpt lat="42.1501440" lon="-8.8043770">
        <ele>94.3</ele>
        <time>2021-05-20T06:20:01Z</time>
      </trkpt>
      <trkpt lat="42.1501700" lon="-8.8043830">
        <ele>94.5</ele>
        <time>2021-05-20T06:20:02Z</time>
      </trkpt>
      <trkpt lat="42.1501810" lon="-8.8043870">
        <ele>94.6</ele>
        <time>2021-05-20T06:20:03Z</time>
      </trkpt>
      <trkpt lat="42.1501910" lon="-8.8043750">
        <ele>94.7</ele>
        <time>2021-05-20T06:20:04Z</time>
      </trkpt>
      <trkpt lat="42.1501940" lon="-8.8043460">
        <ele>94.8</ele>
        <time>2021-05-20T06:20:05Z</time>
      </trkpt>
      <trkpt lat="42.1502120" lon="-8.8043290">
        <ele>94.9</ele>
        <time>2021-05-20T06:20:06Z</time>
      </trkpt>
      <trkpt lat="42.1502190" lon="-8.8043210">
        <ele>95.0</ele>
        <time>2021-05-20T06:20:07Z</time>
      </trkpt>
      <trkpt lat="42.1502250" lon="-8.8043130">
        <ele>95.0</ele>
        <time>2021-05-20T06:20:08Z</time>
      </trkpt>
      <trkpt lat="42.1502480" lon="-8.8043070">
        <ele>95.2</ele>
        <time>2021-05-20T06:20:09Z</time>
      </trkpt>
      <trkpt lat="42.1502540" lon="-8.8043050">
        <ele>95.2</ele>
        <time>2021-05-20T06:20:10Z</time>
      </trkpt>
      <trkpt lat="42.1502610" lon="-8.8043020">
        <ele>95.3</ele>
        <time>2021-05-20T06:20:11Z</time>
      </trkpt>
      <trkpt lat="42.1502800" lon="-8.8042980">
        <ele>95.4</ele>
        <time>2021-05-20T06:20:12Z</time>
      </trkpt>
      <trkpt lat="42.1502960" lon="-8.8043060">
        <ele>95.5</ele>
        <time>2021-05-20T06:20:13Z</time>
      </trkpt>
      <trkpt lat="42.1503070" lon="-8.8043020">
        <ele>95.5</ele>
        <time>2021-05-20T06:20:14Z</time>
      </trkpt>
      <trkpt lat="42.1503210" lon="-8.8042930">
        <ele>95.6</ele>
        <time>2021-05-20T06:20:15Z</time>
      </trkpt>
      <trkpt lat="42.1503320" lon="-8.8042840">
        <ele>95.7</ele>
        <time>2021-05-20T06:20:16Z</time>
      </trkpt>
      <trkpt lat="42.1503370" lon="-8.8042810">
        <ele>95.7</ele>
        <time>2021-05-20T06:20:17Z</time>
      </trkpt>
      <trkpt lat="42.1503490" lon="-8.8042890">
        <ele>95.8</ele>
        <time>2021-05-20T06:20:18Z</time>
      </trkpt>
      <trkpt lat="42.1503630" lon="-8.8043240">
        <ele>96.0</ele>
        <time>2021-05-20T06:20:19Z</time>
      </trkpt>
      <trkpt lat="42.1503710" lon="-8.8043660">
        <ele>96.1</ele>
        <time>2021-05-20T06:20:20Z</time>
      </trkpt>
      <trkpt lat="42.1503740" lon="-8.8043810">
        <ele>96.2</ele>
        <time>2021-05-20T06:20:21Z</time>
      </trkpt>
      <trkpt lat="42.1503960" lon="-8.8044050">
        <ele>96.3</ele>
        <time>2021-05-20T06:20:22Z</time>
      </trkpt>
      <trkpt lat="42.1504130" lon="-8.8044110">
        <ele>96.4</ele>
        <time>2021-05-20T06:20:23Z</time>
      </trkpt>
      <trkpt lat="42.1504260" lon="-8.8044130">
        <ele>96.5</ele>
        <time>2021-05-20T06:20:24Z</time>
      </trkpt>
      <trkpt lat="42.1504430" lon="-8.8044260">
        <ele>96.6</ele>
        <time>2021-05-20T06:20:25Z</time>
      </trkpt>
      <trkpt lat="42.1504520" lon="-8.8044270">
        <ele>96.6</ele>
        <time>2021-05-20T06:20:26Z</time>
      </trkpt>
      <trkpt lat="42.1504760" lon="-8.8044280">
        <ele>96.8</ele>
        <time>2021-05-20T06:20:27Z</time>
      </trkpt>
      <trkpt lat="42.1504860" lon="-8.8044310">
        <ele>96.8</ele>
        <time>2021-05-20T06:20:28Z</time>
      </trkpt>
      <trkpt lat="42.1504960" lon="-8.8044340">
        <ele>96.8</ele>
        <time>2021-05-20T06:20:29Z</time>
      </trkpt>
      <trkpt lat="42.1505160" lon="-8.8044440">
        <ele>96.9</ele>
        <time>2021-05-20T06:20:30Z</time>
      </trkpt>
      <trkpt lat="42.1505300" lon="-8.8044470">
        <ele>97.0</ele>
        <time>2021-05-20T06:20:31Z</time>
      </trkpt>
      <trkpt lat="42.1505480" lon="-8.8044570">
        <ele>97.1</ele>
        <time>2021-05-20T06:20:32Z</time>
      </trkpt>
      <trkpt lat="42.1505610" lon="-8.8044650">
        <ele>97.2</ele>
        <time>2021-05-20T06:20:33Z</time>
      </trkpt>
      <trkpt lat="42.1505750" lon="-8.8044750">
        <ele>97.2</ele>
        <time>2021-05-20T06:20:34Z</time>
      </trkpt>
      <trkpt lat="42.1505900" lon="-8.8044730">
        <ele>97.3</ele>
        <time>2021-05-20T06:20:35Z</time>
      </trkpt>
      <trkpt lat="42.1506000" lon="-8.8044780">
        <ele>97.3</ele>
        <time>2021-05-20T06:20:36Z</time>
      </trkpt>
      <trkpt lat="42.1506110" lon="-8.8044770">
        <ele>97.4</ele>
        <time>2021-05-20T06:20:37Z</time>
      </trkpt>
      <trkpt lat="42.1506260" lon="-8.8044820">
        <ele>97.5</ele>
        <time>2021-05-20T06:20:38Z</time>
      </trkpt>
      <trkpt lat="42.1506350" lon="-8.8044970">
        <ele>97.5</ele>
        <time>2021-05-20T06:20:39Z</time>
      </trkpt>
      <trkpt lat="42.1506450" lon="-8.8044980">
        <ele>97.6</ele>
        <time>2021-05-20T06:20:40Z</time>
      </trkpt>
      <trkpt lat="42.1506550" lon="-8.8045030">
        <ele>97.6</ele>
        <time>2021-05-20T06:20:41Z</time>
      </trkpt>
      <trkpt lat="42.1506670" lon="-8.8045040">
        <ele>97.7</ele>
        <time>2021-05-20T06:20:42Z</time>
      </trkpt>
      <trkpt lat="42.1506770" lon="-8.8045010">
        <ele>97.7</ele>
        <time>2021-05-20T06:20:43Z</time>
      </trkpt>
      <trkpt lat="42.1506850" lon="-8.8044980">
        <ele>97.8</ele>
        <time>2021-05-20T06:20:44Z</time>
      </trkpt>
      <trkpt lat="42.1507160" lon="-8.8045080">
        <ele>97.9</ele>
        <time>2021-05-20T06:20:45Z</time>
      </trkpt>
      <trkpt lat="42.1507270" lon="-8.8045110">
        <ele>97.9</ele>
        <time>2021-05-20T06:20:46Z</time>
      </trkpt>
      <trkpt lat="42.1507420" lon="-8.8045110">
        <ele>98.0</ele>
        <time>2021-05-20T06:20:47Z</time>
      </trkpt>
      <trkpt lat="42.1507490" lon="-8.8045070">
        <ele>98.0</ele>
        <time>2021-05-20T06:20:48Z</time>
      </trkpt>
      <trkpt lat="42.1507580" lon="-8.8045110">
        <ele>98.1</ele>
        <time>2021-05-20T06:20:49Z</time>
      </trkpt>
      <trkpt lat="42.1507860" lon="-8.8045180">
        <ele>98.2</ele>
        <time>2021-05-20T06:20:50Z</time>
      </trkpt>
      <trkpt lat="42.1507950" lon="-8.8045210">
        <ele>98.3</ele>
        <time>2021-05-20T06:20:51Z</time>
      </trkpt>
      <trkpt lat="42.1508150" lon="-8.8045270">
        <ele>98.4</ele>
        <time>2021-05-20T06:20:52Z</time>
      </trkpt>
      <trkpt lat="42.1508270" lon="-8.8045290">
        <ele>98.4</ele>
        <time>2021-05-20T06:20:53Z</time>
      </trkpt>
      <trkpt lat="42.1508500" lon="-8.8045310">
        <ele>98.5</ele>
        <time>2021-05-20T06:20:54Z</time>
      </trkpt>
      <trkpt lat="42.1508580" lon="-8.8045310">
        <ele>98.6</ele>
        <time>2021-05-20T06:20:55Z</time>
      </trkpt>
      <trkpt lat="42.1508670" lon="-8.8045320">
        <ele>98.6</ele>
        <time>2021-05-20T06:20:56Z</time>
      </trkpt>
      <trkpt lat="42.1508890" lon="-8.8045420">
        <ele>98.7</ele>
        <time>2021-05-20T06:20:57Z</time>
      </trkpt>
      <trkpt lat="42.1509010" lon="-8.8045430">
        <ele>98.8</ele>
        <time>2021-05-20T06:20:58Z</time>
      </trkpt>
      <trkpt lat="42.1509200" lon="-8.8045410">
        <ele>98.8</ele>
        <time>2021-05-20T06:20:59Z</time>
      </trkpt>
      <trkpt lat="42.1509290" lon="-8.8045420">
        <ele>98.9</ele>
        <time>2021-05-20T06:21:00Z</time>
      </trkpt>
      <trkpt lat="42.1509390" lon="-8.8045440">
        <ele>98.9</ele>
        <time>2021-05-20T06:21:01Z</time>
      </trkpt>
      <trkpt lat="42.1509610" lon="-8.8045480">
        <ele>99.1</ele>
        <time>2021-05-20T06:21:02Z</time>
      </trkpt>
      <trkpt lat="42.1509690" lon="-8.8045490">
        <ele>99.1</ele>
        <time>2021-05-20T06:21:03Z</time>
      </trkpt>
      <trkpt lat="42.1509780" lon="-8.8045490">
        <ele>99.1</ele>
        <time>2021-05-20T06:21:04Z</time>
      </trkpt>
      <trkpt lat="42.1509960" lon="-8.8045480">
        <ele>99.2</ele>
        <time>2021-05-20T06:21:05Z</time>
      </trkpt>
      <trkpt lat="42.1509990" lon="-8.8045460">
        <ele>99.2</ele>
        <time>2021-05-20T06:21:06Z</time>
      </trkpt>
      <trkpt lat="42.1510130" lon="-8.8045450">
        <ele>99.3</ele>
        <time>2021-05-20T06:21:07Z</time>
      </trkpt>
      <trkpt lat="42.1510300" lon="-8.8045470">
        <ele>99.4</ele>
        <time>2021-05-20T06:21:08Z</time>
      </trkpt>
      <trkpt lat="42.1510400" lon="-8.8045420">
        <ele>99.5</ele>
        <time>2021-05-20T06:21:09Z</time>
      </trkpt>
      <trkpt lat="42.1510600" lon="-8.8045390">
        <ele>99.6</ele>
        <time>2021-05-20T06:21:10Z</time>
      </trkpt>
      <trkpt lat="42.1510680" lon="-8.8045390">
        <ele>99.6</ele>
        <time>2021-05-20T06:21:11Z</time>
      </trkpt>
      <trkpt lat="42.1510750" lon="-8.8045380">
        <ele>99.6</ele>
        <time>2021-05-20T06:21:12Z</time>
      </trkpt>
      <trkpt lat="42.1510830" lon="-8.8045380">
        <ele>99.7</ele>
        <time>2021-05-20T06:21:13Z</time>
      </trkpt>
      <trkpt lat="42.1510990" lon="-8.8045410">
        <ele>99.8</ele>
        <time>2021-05-20T06:21:14Z</time>
      </trkpt>
      <trkpt lat="42.1511040" lon="-8.8045390">
        <ele>99.8</ele>
        <time>2021-05-20T06:21:15Z</time>
      </trkpt>
      <trkpt lat="42.1511130" lon="-8.8045400">
        <ele>99.8</ele>
        <time>2021-05-20T06:21:16Z</time>
      </trkpt>
      <trkpt lat="42.1511480" lon="-8.8045560">
        <ele>100.0</ele>
        <time>2021-05-20T06:21:17Z</time>
      </trkpt>
      <trkpt lat="42.1511590" lon="-8.8045600">
        <ele>100.1</ele>
        <time>2021-05-20T06:21:18Z</time>
      </trkpt>
      <trkpt lat="42.1511560" lon="-8.8045490">
        <ele>100.1</ele>
        <time>2021-05-20T06:21:19Z</time>
      </trkpt>
      <trkpt lat="42.1511650" lon="-8.8045490">
        <ele>100.2</ele>
        <time>2021-05-20T06:21:20Z</time>
      </trkpt>
      <trkpt lat="42.1511740" lon="-8.8045470">
        <ele>100.2</ele>
        <time>2021-05-20T06:21:21Z</time>
      </trkpt>
      <trkpt lat="42.1511890" lon="-8.8045500">
        <ele>100.3</ele>
        <time>2021-05-20T06:21:22Z</time>
      </trkpt>
      <trkpt lat="42.1511940" lon="-8.8045490">
        <ele>100.3</ele>
        <time>2021-05-20T06:21:23Z</time>
      </trkpt>
      <trkpt lat="42.1512110" lon="-8.8045440">
        <ele>100.4</ele>
        <time>2021-05-20T06:21:24Z</time>
      </trkpt>
      <trkpt lat="42.1512220" lon="-8.8045400">
        <ele>100.5</ele>
        <time>2021-05-20T06:21:25Z</time>
      </trkpt>
      <trkpt lat="42.1512440" lon="-8.8045310">
        <ele>100.6</ele>
        <time>2021-05-20T06:21:26Z</time>
      </trkpt>
      <trkpt lat="42.1512530" lon="-8.8045290">
        <ele>100.7</ele>
        <time>2021-05-20T06:21:27Z</time>
      </trkpt>
      <trkpt lat="42.1512620" lon="-8.8045280">
        <ele>100.7</ele>
        <time>2021-05-20T06:21:28Z</time>
      </trkpt>
      <trkpt lat="42.1512750" lon="-8.8045280">
        <ele>100.8</ele>
        <time>2021-05-20T06:21:29Z</time>
      </trkpt>
      <trkpt lat="42.1512770" lon="-8.8045250">
        <ele>100.8</ele>
        <time>2021-05-20T06:21:30Z</time>
      </trkpt>
      <trkpt lat="42.1512900" lon="-8.8045170">
        <ele>100.9</ele>
        <time>2021-05-20T06:21:31Z</time>
      </trkpt>
      <trkpt lat="42.1513180" lon="-8.8045290">
        <ele>101.1</ele>
        <time>2021-05-20T06:21:32Z</time>
      </trkpt>
      <trkpt lat="42.1513270" lon="-8.8045390">
        <ele>101.1</ele>
        <time>2021-05-20T06:21:33Z</time>
      </trkpt>
      <trkpt lat="42.1513500" lon="-8.8045490">
        <ele>101.3</ele>
        <time>2021-05-20T06:21:34Z</time>
      </trkpt>
      <trkpt lat="42.1513570" lon="-8.8045530">
        <ele>101.3</ele>
        <time>2021-05-20T06:21:35Z</time>
      </trkpt>
      <trkpt lat="42.1513640" lon="-8.8045570">
        <ele>101.4</ele>
        <time>2021-05-20T06:21:36Z</time>
      </trkpt>
      <trkpt lat="42.1513860" lon="-8.8045560">
        <ele>101.5</ele>
        <time>2021-05-20T06:21:37Z</time>
      </trkpt>
      <trkpt lat="42.1513960" lon="-8.8045570">
        <ele>101.5</ele>
        <time>2021-05-20T06:21:38Z</time>
      </trkpt>
      <trkpt lat="42.1514050" lon="-8.8045570">
        <ele>101.6</ele>
        <time>2021-05-20T06:21:39Z</time>
      </trkpt>
      <trkpt lat="42.1514130" lon="-8.8045570">
        <ele>101.6</ele>
        <time>2021-05-20T06:21:40Z</time>
      </trkpt>
      <trkpt lat="42.1514210" lon="-8.8045560">
        <ele>101.7</ele>
        <time>2021-05-20T06:21:41Z</time>
      </trkpt>
      <trkpt lat="42.1514330" lon="-8.8045550">
        <ele>101.7</ele>
        <time>2021-05-20T06:21:42Z</time>
      </trkpt>
      <trkpt lat="42.1514480" lon="-8.8045500">
        <ele>101.8</ele>
        <time>2021-05-20T06:21:43Z</time>
      </trkpt>
      <trkpt lat="42.1514590" lon="-8.8045490">
        <ele>101.9</ele>
        <time>2021-05-20T06:21:44Z</time>
      </trkpt>
      <trkpt lat="42.1514690" lon="-8.8045470">
        <ele>101.9</ele>
        <time>2021-05-20T06:21:45Z</time>
      </trkpt>
      <trkpt lat="42.1514830" lon="-8.8045460">
        <ele>102.0</ele>
        <time>2021-05-20T06:21:46Z</time>
      </trkpt>
      <trkpt lat="42.1514920" lon="-8.8045420">
        <ele>102.1</ele>
        <time>2021-05-20T06:21:47Z</time>
      </trkpt>
      <trkpt lat="42.1515040" lon="-8.8045350">
        <ele>102.1</ele>
        <time>2021-05-20T06:21:48Z</time>
      </trkpt>
      <trkpt lat="42.1515180" lon="-8.8045330">
        <ele>102.2</ele>
        <time>2021-05-20T06:21:49Z</time>
      </trkpt>
      <trkpt lat="42.1515260" lon="-8.8045340">
        <ele>102.3</ele>
        <time>2021-05-20T06:21:50Z</time>
      </trkpt>
      <trkpt lat="42.1515340" lon="-8.8045350">
        <ele>102.3</ele>
        <time>2021-05-20T06:21:51Z</time>
      </trkpt>
      <trkpt lat="42.1515420" lon="-8.8045360">
        <ele>102.4</ele>
        <time>2021-05-20T06:21:52Z</time>
      </trkpt>
      <trkpt lat="42.1515560" lon="-8.8045440">
        <ele>102.4</ele>
        <time>2021-05-20T06:21:53Z</time>
      </trkpt>
      <trkpt lat="42.1515630" lon="-8.8045470">
        <ele>102.5</ele>
        <time>2021-05-20T06:21:54Z</time>
      </trkpt>
      <trkpt lat="42.1515710" lon="-8.8045510">
        <ele>102.5</ele>
        <time>2021-05-20T06:21:55Z</time>
      </trkpt>
      <trkpt lat="42.1515780" lon="-8.8045550">
        <ele>102.6</ele>
        <time>2021-05-20T06:21:56Z</time>
      </trkpt>
      <trkpt lat="42.1515960" lon="-8.8045570">
        <ele>102.7</ele>
        <time>2021-05-20T06:21:57Z</time>
      </trkpt>
      <trkpt lat="42.1516100" lon="-8.8045690">
        <ele>102.8</ele>
        <time>2021-05-20T06:21:58Z</time>
      </trkpt>
      <trkpt lat="42.1516250" lon="-8.8045740">
        <ele>102.9</ele>
        <time>2021-05-20T06:21:59Z</time>
      </trkpt>
      <trkpt lat="42.1516310" lon="-8.8045680">
        <ele>102.9</ele>
        <time>2021-05-20T06:22:00Z</time>
      </trkpt>
      <trkpt lat="42.1516430" lon="-8.8045620">
        <ele>103.0</ele>
        <time>2021-05-20T06:22:01Z</time>
      </trkpt>
      <trkpt lat="42.1516600" lon="-8.8045550">
        <ele>103.1</ele>
        <time>2021-05-20T06:22:02Z</time>
      </trkpt>
      <trkpt lat="42.1516740" lon="-8.8045580">
        <ele>103.2</ele>
        <time>2021-05-20T06:22:03Z</time>
      </trkpt>
      <trkpt lat="42.1516830" lon="-8.8045500">
        <ele>103.2</ele>
        <time>2021-05-20T06:22:04Z</time>
      </trkpt>
      <trkpt lat="42.1516890" lon="-8.8045410">
        <ele>103.3</ele>
        <time>2021-05-20T06:22:05Z</time>
      </trkpt>
      <trkpt lat="42.1516990" lon="-8.8045360">
        <ele>103.3</ele>
        <time>2021-05-20T06:22:06Z</time>
      </trkpt>
      <trkpt lat="42.1517080" lon="-8.8045370">
        <ele>103.4</ele>
        <time>2021-05-20T06:22:07Z</time>
      </trkpt>
      <trkpt lat="42.1517200" lon="-8.8045370">
        <ele>103.5</ele>
        <time>2021-05-20T06:22:08Z</time>
      </trkpt>
      <trkpt lat="42.1517320" lon="-8.8045250">
        <ele>103.6</ele>
        <time>2021-05-20T06:22:09Z</time>
      </trkpt>
      <trkpt lat="42.1517480" lon="-8.8045190">
        <ele>103.7</ele>
        <time>2021-05-20T06:22:10Z</time>
      </trkpt>
      <trkpt lat="42.1517620" lon="-8.8045170">
        <ele>103.8</ele>
        <time>2021-05-20T06:22:11Z</time>
      </trkpt>
      <trkpt lat="42.1517680" lon="-8.8045100">
        <ele>103.8</ele>
        <time>2021-05-20T06:22:12Z</time>
      </trkpt>
      <trkpt lat="42.1517810" lon="-8.8045020">
        <ele>103.9</ele>
        <time>2021-05-20T06:22:13Z</time>
      </trkpt>
      <trkpt lat="42.1517940" lon="-8.8044970">
        <ele>104.0</ele>
        <time>2021-05-20T06:22:14Z</time>
      </trkpt>
      <trkpt lat="42.1518190" lon="-8.8044940">
        <ele>104.2</ele>
        <time>2021-05-20T06:22:15Z</time>
      </trkpt>
      <trkpt lat="42.1518300" lon="-8.8044950">
        <ele>104.2</ele>
        <time>2021-05-20T06:22:16Z</time>
      </trkpt>
      <trkpt lat="42.1518410" lon="-8.8044970">
        <ele>104.3</ele>
        <time>2021-05-20T06:22:17Z</time>
      </trkpt>
      <trkpt lat="42.1518510" lon="-8.8044850">
        <ele>104.4</ele>
        <time>2021-05-20T06:22:18Z</time>
      </trkpt>
      <trkpt lat="42.1518740" lon="-8.8045030">
        <ele>104.6</ele>
        <time>2021-05-20T06:22:19Z</time>
      </trkpt>
      <trkpt lat="42.1518930" lon="-8.8044910">
        <ele>104.7</ele>
        <time>2021-05-20T06:22:20Z</time>
      </trkpt>
      <trkpt lat="42.1519040" lon="-8.8044920">
        <ele>104.8</ele>
        <time>2021-05-20T06:22:21Z</time>
      </trkpt>
      <trkpt lat="42.1519150" lon="-8.8044920">
        <ele>104.9</ele>
        <time>2021-05-20T06:22:22Z</time>
      </trkpt>
      <trkpt lat="42.1519350" lon="-8.8044900">
        <ele>105.0</ele>
        <time>2021-05-20T06:22:23Z</time>
      </trkpt>
      <trkpt lat="42.1519450" lon="-8.8044870">
        <ele>105.1</ele>
        <time>2021-05-20T06:22:24Z</time>
      </trkpt>
      <trkpt lat="42.1519520" lon="-8.8044890">
        <ele>105.2</ele>
        <time>2021-05-20T06:22:25Z</time>
      </trkpt>
      <trkpt lat="42.1519640" lon="-8.8044840">
        <ele>105.2</ele>
        <time>2021-05-20T06:22:26Z</time>
      </trkpt>
      <trkpt lat="42.1519710" lon="-8.8044840">
        <ele>105.3</ele>
        <time>2021-05-20T06:22:27Z</time>
      </trkpt>
      <trkpt lat="42.1519720" lon="-8.8044640">
        <ele>105.4</ele>
        <time>2021-05-20T06:22:28Z</time>
      </trkpt>
      <trkpt lat="42.1519790" lon="-8.8044590">
        <ele>105.5</ele>
        <time>2021-05-20T06:22:29Z</time>
      </trkpt>
      <trkpt lat="42.1519890" lon="-8.8044580">
        <ele>105.5</ele>
        <time>2021-05-20T06:22:30Z</time>
      </trkpt>
      <trkpt lat="42.1520030" lon="-8.8044670">
        <ele>105.6</ele>
        <time>2021-05-20T06:22:31Z</time>
      </trkpt>
      <trkpt lat="42.1520160" lon="-8.8044560">
        <ele>105.8</ele>
        <time>2021-05-20T06:22:32Z</time>
      </trkpt>
      <trkpt lat="42.1520300" lon="-8.8044460">
        <ele>105.9</ele>
        <time>2021-05-20T06:22:33Z</time>
      </trkpt>
      <trkpt lat="42.1520490" lon="-8.8044420">
        <ele>106.0</ele>
        <time>2021-05-20T06:22:34Z</time>
      </trkpt>
      <trkpt lat="42.1520570" lon="-8.8044320">
        <ele>106.1</ele>
        <time>2021-05-20T06:22:35Z</time>
      </trkpt>
      <trkpt lat="42.1520790" lon="-8.8044200">
        <ele>106.3</ele>
        <time>2021-05-20T06:22:36Z</time>
      </trkpt>
      <trkpt lat="42.1520850" lon="-8.8044170">
        <ele>106.3</ele>
        <time>2021-05-20T06:22:37Z</time>
      </trkpt>
      <trkpt lat="42.1520920" lon="-8.8044150">
        <ele>106.4</ele>
        <time>2021-05-20T06:22:38Z</time>
      </trkpt>
      <trkpt lat="42.1521060" lon="-8.8044200">
        <ele>106.5</ele>
        <time>2021-05-20T06:22:39Z</time>
      </trkpt>
      <trkpt lat="42.1521250" lon="-8.8044240">
        <ele>106.6</ele>
        <time>2021-05-20T06:22:40Z</time>
      </trkpt>
      <trkpt lat="42.1521370" lon="-8.8044320">
        <ele>106.7</ele>
        <time>2021-05-20T06:22:41Z</time>
      </trkpt>
      <trkpt lat="42.1521500" lon="-8.8044400">
        <ele>106.9</ele>
        <time>2021-05-20T06:22:42Z</time>
      </trkpt>
      <trkpt lat="42.1521620" lon="-8.8044530">
        <ele>107.0</ele>
        <time>2021-05-20T06:22:43Z</time>
      </trkpt>
      <trkpt lat="42.1521750" lon="-8.8044660">
        <ele>107.1</ele>
        <time>2021-05-20T06:22:44Z</time>
      </trkpt>
      <trkpt lat="42.1521960" lon="-8.8044840">
        <ele>107.3</ele>
        <time>2021-05-20T06:22:45Z</time>
      </trkpt>
      <trkpt lat="42.1522040" lon="-8.8044930">
        <ele>107.4</ele>
        <time>2021-05-20T06:22:46Z</time>
      </trkpt>
      <trkpt lat="42.1522130" lon="-8.8045020">
        <ele>107.4</ele>
        <time>2021-05-20T06:22:47Z</time>
      </trkpt>
      <trkpt lat="42.1522410" lon="-8.8045230">
        <ele>107.7</ele>
        <time>2021-05-20T06:22:48Z</time>
      </trkpt>
      <trkpt lat="42.1522530" lon="-8.8045340">
        <ele>107.8</ele>
        <time>2021-05-20T06:22:49Z</time>
      </trkpt>
      <trkpt lat="42.1522690" lon="-8.8045430">
        <ele>107.9</ele>
        <time>2021-05-20T06:22:50Z</time>
      </trkpt>
      <trkpt lat="42.1522820" lon="-8.8045470">
        <ele>108.0</ele>
        <time>2021-05-20T06:22:51Z</time>
      </trkpt>
      <trkpt lat="42.1522960" lon="-8.8045540">
        <ele>108.1</ele>
        <time>2021-05-20T06:22:52Z</time>
      </trkpt>
      <trkpt lat="42.1523100" lon="-8.8045580">
        <ele>108.2</ele>
        <time>2021-05-20T06:22:53Z</time>
      </trkpt>
      <trkpt lat="42.1523230" lon="-8.8045650">
        <ele>108.3</ele>
        <time>2021-05-20T06:22:54Z</time>
      </trkpt>
      <trkpt lat="42.1523350" lon="-8.8045760">
        <ele>108.4</ele>
        <time>2021-05-20T06:22:55Z</time>
      </trkpt>
      <trkpt lat="42.1523480" lon="-8.8045860">
        <ele>108.5</ele>
        <time>2021-05-20T06:22:56Z</time>
      </trkpt>
      <trkpt lat="42.1523670" lon="-8.8045930">
        <ele>108.7</ele>
        <time>2021-05-20T06:22:57Z</time>
      </trkpt>
      <trkpt lat="42.1523730" lon="-8.8046000">
        <ele>108.7</ele>
        <time>2021-05-20T06:22:58Z</time>
      </trkpt>
      <trkpt lat="42.1523820" lon="-8.8046070">
        <ele>108.8</ele>
        <time>2021-05-20T06:22:59Z</time>
      </trkpt>
      <trkpt lat="42.1523960" lon="-8.8046180">
        <ele>108.9</ele>
        <time>2021-05-20T06:23:00Z</time>
      </trkpt>
      <trkpt lat="42.1524080" lon="-8.8046310">
        <ele>109.0</ele>
        <time>2021-05-20T06:23:01Z</time>
      </trkpt>
      <trkpt lat="42.1524210" lon="-8.8046470">
        <ele>109.1</ele>
        <time>2021-05-20T06:23:02Z</time>
      </trkpt>
      <trkpt lat="42.1524310" lon="-8.8046480">
        <ele>109.2</ele>
        <time>2021-05-20T06:23:03Z</time>
      </trkpt>
      <trkpt lat="42.1524480" lon="-8.8046670">
        <ele>109.3</ele>
        <time>2021-05-20T06:23:04Z</time>
      </trkpt>
      <trkpt lat="42.1524670" lon="-8.8046850">
        <ele>109.5</ele>
        <time>2021-05-20T06:23:05Z</time>
      </trkpt>
      <trkpt lat="42.1524750" lon="-8.8046900">
        <ele>109.6</ele>
        <time>2021-05-20T06:23:06Z</time>
      </trkpt>
      <trkpt lat="42.1524820" lon="-8.8046940">
        <ele>109.6</ele>
        <time>2021-05-20T06:23:07Z</time>
      </trkpt>
      <trkpt lat="42.1524990" lon="-8.8047040">
        <ele>109.7</ele>
        <time>2021-05-20T06:23:08Z</time>
      </trkpt>
      <trkpt lat="42.1525080" lon="-8.8047170">
        <ele>109.8</ele>
        <time>2021-05-20T06:23:09Z</time>
      </trkpt>
      <trkpt lat="42.1525180" lon="-8.8047250">
        <ele>109.9</ele>
        <time>2021-05-20T06:23:10Z</time>
      </trkpt>
      <trkpt lat="42.1525310" lon="-8.8047410">
        <ele>110.0</ele>
        <time>2021-05-20T06:23:11Z</time>
      </trkpt>
      <trkpt lat="42.1525350" lon="-8.8047460">
        <ele>110.0</ele>
        <time>2021-05-20T06:23:12Z</time>
      </trkpt>
      <trkpt lat="42.1525450" lon="-8.8047490">
        <ele>110.1</ele>
        <time>2021-05-20T06:23:13Z</time>
      </trkpt>
      <trkpt lat="42.1525590" lon="-8.8047570">
        <ele>110.2</ele>
        <time>2021-05-20T06:23:14Z</time>
      </trkpt>
      <trkpt lat="42.1525700" lon="-8.8047730">
        <ele>110.3</ele>
        <time>2021-05-20T06:23:15Z</time>
      </trkpt>
      <trkpt lat="42.1525800" lon="-8.8047830">
        <ele>110.4</ele>
        <time>2021-05-20T06:23:16Z</time>
      </trkpt>
      <trkpt lat="42.1525980" lon="-8.8047980">
        <ele>110.5</ele>
        <time>2021-05-20T06:23:17Z</time>
      </trkpt>
      <trkpt lat="42.1526070" lon="-8.8048000">
        <ele>110.6</ele>
        <time>2021-05-20T06:23:18Z</time>
      </trkpt>
      <trkpt lat="42.1526170" lon="-8.8048030">
        <ele>110.6</ele>
        <time>2021-05-20T06:23:19Z</time>
      </trkpt>
      <trkpt lat="42.1526370" lon="-8.8048120">
        <ele>110.8</ele>
        <time>2021-05-20T06:23:20Z</time>
      </trkpt>
      <trkpt lat="42.1526440" lon="-8.8048190">
        <ele>110.8</ele>
        <time>2021-05-20T06:23:21Z</time>
      </trkpt>
      <trkpt lat="42.1526550" lon="-8.8048230">
        <ele>110.9</ele>
        <time>2021-05-20T06:23:22Z</time>
      </trkpt>
      <trkpt lat="42.1526560" lon="-8.8048120">
        <ele>110.9</ele>
        <time>2021-05-20T06:23:23Z</time>
      </trkpt>
      <trkpt lat="42.1526520" lon="-8.8048060">
        <ele>111.0</ele>
        <time>2021-05-20T06:23:24Z</time>
      </trkpt>
      <trkpt lat="42.1526600" lon="-8.8048120">
        <ele>111.0</ele>
        <time>2021-05-20T06:23:25Z</time>
      </trkpt>
      <trkpt lat="42.1526780" lon="-8.8048230">
        <ele>111.1</ele>
        <time>2021-05-20T06:23:26Z</time>
      </trkpt>
      <trkpt lat="42.1526960" lon="-8.8048330">
        <ele>111.3</ele>
        <time>2021-05-20T06:23:27Z</time>
      </trkpt>
      <trkpt lat="42.1527110" lon="-8.8048400">
        <ele>111.4</ele>
        <time>2021-05-20T06:23:28Z</time>
      </trkpt>
      <trkpt lat="42.1527190" lon="-8.8048650">
        <ele>111.5</ele>
        <time>2021-05-20T06:23:29Z</time>
      </trkpt>
      <trkpt lat="42.1527280" lon="-8.8048770">
        <ele>111.6</ele>
        <time>2021-05-20T06:23:30Z</time>
      </trkpt>
      <trkpt lat="42.1527370" lon="-8.8048900">
        <ele>111.6</ele>
        <time>2021-05-20T06:23:31Z</time>
      </trkpt>
      <trkpt lat="42.1527430" lon="-8.8049000">
        <ele>111.7</ele>
        <time>2021-05-20T06:23:32Z</time>
      </trkpt>
      <trkpt lat="42.1527500" lon="-8.8049150">
        <ele>111.8</ele>
        <time>2021-05-20T06:23:33Z</time>
      </trkpt>
      <trkpt lat="42.1527470" lon="-8.8049100">
        <ele>111.8</ele>
        <time>2021-05-20T06:23:34Z</time>
      </trkpt>
      <trkpt lat="42.1527560" lon="-8.8049210">
        <ele>111.9</ele>
        <time>2021-05-20T06:23:35Z</time>
      </trkpt>
      <trkpt lat="42.1527700" lon="-8.8049370">
        <ele>112.0</ele>
        <time>2021-05-20T06:23:36Z</time>
      </trkpt>
      <trkpt lat="42.1527810" lon="-8.8049520">
        <ele>112.1</ele>
        <time>2021-05-20T06:23:37Z</time>
      </trkpt>
      <trkpt lat="42.1527900" lon="-8.8049650">
        <ele>112.2</ele>
        <time>2021-05-20T06:23:38Z</time>
      </trkpt>
      <trkpt lat="42.1528050" lon="-8.8049800">
        <ele>112.3</ele>
        <time>2021-05-20T06:23:39Z</time>
      </trkpt>
      <trkpt lat="42.1528150" lon="-8.8049940">
        <ele>112.3</ele>
        <time>2021-05-20T06:23:40Z</time>
      </trkpt>
      <trkpt lat="42.1528300" lon="-8.8050000">
        <ele>112.4</ele>
        <time>2021-05-20T06:23:41Z</time>
      </trkpt>
      <trkpt lat="42.1528340" lon="-8.8050010">
        <ele>112.5</ele>
        <time>2021-05-20T06:23:42Z</time>
      </trkpt>
      <trkpt lat="42.1528470" lon="-8.8050010">
        <ele>112.5</ele>
        <time>2021-05-20T06:23:43Z</time>
      </trkpt>
      <trkpt lat="42.1528580" lon="-8.8050110">
        <ele>112.6</ele>
        <time>2021-05-20T06:23:44Z</time>
      </trkpt>
      <trkpt lat="42.1528770" lon="-8.8050340">
        <ele>112.8</ele>
        <time>2021-05-20T06:23:45Z</time>
      </trkpt>
      <trkpt lat="42.1528850" lon="-8.8050510">
        <ele>113.0</ele>
        <time>2021-05-20T06:23:46Z</time>
      </trkpt>
      <trkpt lat="42.1529000" lon="-8.8050570">
        <ele>113.1</ele>
        <time>2021-05-20T06:23:47Z</time>
      </trkpt>
      <trkpt lat="42.1529170" lon="-8.8050620">
        <ele>113.2</ele>
        <time>2021-05-20T06:23:48Z</time>
      </trkpt>
      <trkpt lat="42.1529320" lon="-8.8050700">
        <ele>113.3</ele>
        <time>2021-05-20T06:23:49Z</time>
      </trkpt>
      <trkpt lat="42.1529460" lon="-8.8050780">
        <ele>113.4</ele>
        <time>2021-05-20T06:23:50Z</time>
      </trkpt>
      <trkpt lat="42.1529670" lon="-8.8050870">
        <ele>113.6</ele>
        <time>2021-05-20T06:23:51Z</time>
      </trkpt>
      <trkpt lat="42.1529740" lon="-8.8050910">
        <ele>113.6</ele>
        <time>2021-05-20T06:23:52Z</time>
      </trkpt>
      <trkpt lat="42.1529810" lon="-8.8050940">
        <ele>113.7</ele>
        <time>2021-05-20T06:23:53Z</time>
      </trkpt>
      <trkpt lat="42.1529970" lon="-8.8051000">
        <ele>113.8</ele>
        <time>2021-05-20T06:23:54Z</time>
      </trkpt>
      <trkpt lat="42.1530070" lon="-8.8051070">
        <ele>113.9</ele>
        <time>2021-05-20T06:23:55Z</time>
      </trkpt>
      <trkpt lat="42.1530170" lon="-8.8051040">
        <ele>113.9</ele>
        <time>2021-05-20T06:23:56Z</time>
      </trkpt>
      <trkpt lat="42.1530230" lon="-8.8051010">
        <ele>114.0</ele>
        <time>2021-05-20T06:23:57Z</time>
      </trkpt>
      <trkpt lat="42.1530330" lon="-8.8050990">
        <ele>114.0</ele>
        <time>2021-05-20T06:23:58Z</time>
      </trkpt>
      <trkpt lat="42.1530350" lon="-8.8050940">
        <ele>114.1</ele>
        <time>2021-05-20T06:23:59Z</time>
      </trkpt>
      <trkpt lat="42.1530470" lon="-8.8050930">
        <ele>114.1</ele>
        <time>2021-05-20T06:24:00Z</time>
      </trkpt>
      <trkpt lat="42.1530500" lon="-8.8050880">
        <ele>114.2</ele>
        <time>2021-05-20T06:24:01Z</time>
      </trkpt>
      <trkpt lat="42.1530620" lon="-8.8050870">
        <ele>114.2</ele>
        <time>2021-05-20T06:24:02Z</time>
      </trkpt>
      <trkpt lat="42.1530700" lon="-8.8050790">
        <ele>114.3</ele>
        <time>2021-05-20T06:24:03Z</time>
      </trkpt>
      <trkpt lat="42.1530820" lon="-8.8050700">
        <ele>114.4</ele>
        <time>2021-05-20T06:24:04Z</time>
      </trkpt>
      <trkpt lat="42.1530910" lon="-8.8050660">
        <ele>114.5</ele>
        <time>2021-05-20T06:24:05Z</time>
      </trkpt>
      <trkpt lat="42.1530990" lon="-8.8050640">
        <ele>114.5</ele>
        <time>2021-05-20T06:24:06Z</time>
      </trkpt>
      <trkpt lat="42.1531050" lon="-8.8050640">
        <ele>114.6</ele>
        <time>2021-05-20T06:24:07Z</time>
      </trkpt>
      <trkpt lat="42.1531180" lon="-8.8050620">
        <ele>114.7</ele>
        <time>2021-05-20T06:24:08Z</time>
      </trkpt>
      <trkpt lat="42.1531290" lon="-8.8050610">
        <ele>114.7</ele>
        <time>2021-05-20T06:24:09Z</time>
      </trkpt>
      <trkpt lat="42.1531430" lon="-8.8050640">
        <ele>114.8</ele>
        <time>2021-05-20T06:24:10Z</time>
      </trkpt>
      <trkpt lat="42.1531480" lon="-8.8050590">
        <ele>114.9</ele>
        <time>2021-05-20T06:24:11Z</time>
      </trkpt>
      <trkpt lat="42.1531470" lon="-8.8050580">
        <ele>114.9</ele>
        <time>2021-05-20T06:24:12Z</time>
      </trkpt>
      <trkpt lat="42.1531500" lon="-8.8050540">
        <ele>114.9</ele>
        <time>2021-05-20T06:24:13Z</time>
      </trkpt>
      <trkpt lat="42.1531560" lon="-8.8050530">
        <ele>115.0</ele>
        <time>2021-05-20T06:24:14Z</time>
      </trkpt>
      <trkpt lat="42.1531650" lon="-8.8050530">
        <ele>115.0</ele>
        <time>2021-05-20T06:24:15Z</time>
      </trkpt>
      <trkpt lat="42.1531790" lon="-8.8050570">
        <ele>115.1</ele>
        <time>2021-05-20T06:24:16Z</time>
      </trkpt>
      <trkpt lat="42.1531920" lon="-8.8050580">
        <ele>115.2</ele>
        <time>2021-05-20T06:24:17Z</time>
      </trkpt>
      <trkpt lat="42.1532100" lon="-8.8050640">
        <ele>115.4</ele>
        <time>2021-05-20T06:24:18Z</time>
      </trkpt>
      <trkpt lat="42.1532180" lon="-8.8050630">
        <ele>115.4</ele>
        <time>2021-05-20T06:24:19Z</time>
      </trkpt>
      <trkpt lat="42.1532270" lon="-8.8050620">
        <ele>115.5</ele>
        <time>2021-05-20T06:24:20Z</time>
      </trkpt>
      <trkpt lat="42.1532380" lon="-8.8050590">
        <ele>115.6</ele>
        <time>2021-05-20T06:24:21Z</time>
      </trkpt>
      <trkpt lat="42.1532530" lon="-8.8050650">
        <ele>115.7</ele>
        <time>2021-05-20T06:24:22Z</time>
      </trkpt>
      <trkpt lat="42.1532580" lon="-8.8050600">
        <ele>115.7</ele>
        <time>2021-05-20T06:24:23Z</time>
      </trkpt>
      <trkpt lat="42.1532660" lon="-8.8050560">
        <ele>115.8</ele>
        <time>2021-05-20T06:24:24Z</time>
      </trkpt>
      <trkpt lat="42.1532750" lon="-8.8050540">
        <ele>115.9</ele>
        <time>2021-05-20T06:24:25Z</time>
      </trkpt>
      <trkpt lat="42.1532870" lon="-8.8050560">
        <ele>115.9</ele>
        <time>2021-05-20T06:24:26Z</time>
      </trkpt>
      <trkpt lat="42.1532990" lon="-8.8050530">
        <ele>116.0</ele>
        <time>2021-05-20T06:24:27Z</time>
      </trkpt>
      <trkpt lat="42.1533080" lon="-8.8050540">
        <ele>116.1</ele>
        <time>2021-05-20T06:24:28Z</time>
      </trkpt>
      <trkpt lat="42.1533170" lon="-8.8050560">
        <ele>116.2</ele>
        <time>2021-05-20T06:24:29Z</time>
      </trkpt>
      <trkpt lat="42.1533260" lon="-8.8050570">
        <ele>116.2</ele>
        <time>2021-05-20T06:24:30Z</time>
      </trkpt>
      <trkpt lat="42.1533510" lon="-8.8050490">
        <ele>116.4</ele>
        <time>2021-05-20T06:24:31Z</time>
      </trkpt>
      <trkpt lat="42.1533590" lon="-8.8050470">
        <ele>116.5</ele>
        <time>2021-05-20T06:24:32Z</time>
      </trkpt>
      <trkpt lat="42.1533660" lon="-8.8050450">
        <ele>116.5</ele>
        <time>2021-05-20T06:24:33Z</time>
      </trkpt>
      <trkpt lat="42.1533790" lon="-8.8050420">
        <ele>116.6</ele>
        <time>2021-05-20T06:24:34Z</time>
      </trkpt>
      <trkpt lat="42.1533970" lon="-8.8050430">
        <ele>116.8</ele>
        <time>2021-05-20T06:24:35Z</time>
      </trkpt>
      <trkpt lat="42.1534090" lon="-8.8050440">
        <ele>116.8</ele>
        <time>2021-05-20T06:24:36Z</time>
      </trkpt>
      <trkpt lat="42.1534240" lon="-8.8050470">
        <ele>117.0</ele>
        <time>2021-05-20T06:24:37Z</time>
      </trkpt>
      <trkpt lat="42.1534330" lon="-8.8050420">
        <ele>117.0</ele>
        <time>2021-05-20T06:24:38Z</time>
      </trkpt>
      <trkpt lat="42.1534390" lon="-8.8050420">
        <ele>117.1</ele>
        <time>2021-05-20T06:24:39Z</time>
      </trkpt>
      <trkpt lat="42.1534460" lon="-8.8050410">
        <ele>117.1</ele>
        <time>2021-05-20T06:24:40Z</time>
      </trkpt>
      <trkpt lat="42.1534490" lon="-8.8050380">
        <ele>117.1</ele>
        <time>2021-05-20T06:24:41Z</time>
      </trkpt>
      <trkpt lat="42.1534430" lon="-8.8050390">
        <ele>117.2</ele>
        <time>2021-05-20T06:24:42Z</time>
      </trkpt>
      <trkpt lat="42.1534550" lon="-8.8050350">
        <ele>117.3</ele>
        <time>2021-05-20T06:24:43Z</time>
      </trkpt>
      <trkpt lat="42.1534710" lon="-8.8050370">
        <ele>117.4</ele>
        <time>2021-05-20T06:24:44Z</time>
      </trkpt>
      <trkpt lat="42.1534820" lon="-8.8050350">
        <ele>117.5</ele>
        <time>2021-05-20T06:24:45Z</time>
      </trkpt>
      <trkpt lat="42.1534930" lon="-8.8050350">
        <ele>117.5</ele>
        <time>2021-05-20T06:24:46Z</time>
      </trkpt>
      <trkpt lat="42.1534990" lon="-8.8050300">
        <ele>117.6</ele>
        <time>2021-05-20T06:24:47Z</time>
      </trkpt>
      <trkpt lat="42.1535120" lon="-8.8050240">
        <ele>117.7</ele>
        <time>2021-05-20T06:24:48Z</time>
      </trkpt>
      <trkpt lat="42.1535310" lon="-8.8050230">
        <ele>117.8</ele>
        <time>2021-05-20T06:24:49Z</time>
      </trkpt>
      <trkpt lat="42.1535410" lon="-8.8050220">
        <ele>117.9</ele>
        <time>2021-05-20T06:24:50Z</time>
      </trkpt>
      <trkpt lat="42.1535500" lon="-8.8050210">
        <ele>117.9</ele>
        <time>2021-05-20T06:24:51Z</time>
      </trkpt>
      <trkpt lat="42.1535640" lon="-8.8050210">
        <ele>118.0</ele>
        <time>2021-05-20T06:24:52Z</time>
      </trkpt>
      <trkpt lat="42.1535770" lon="-8.8050130">
        <ele>118.1</ele>
        <time>2021-05-20T06:24:53Z</time>
      </trkpt>
      <trkpt lat="42.1535930" lon="-8.8050130">
        <ele>118.2</ele>
        <time>2021-05-20T06:24:54Z</time>
      </trkpt>
      <trkpt lat="42.1536000" lon="-8.8050180">
        <ele>118.3</ele>
        <time>2021-05-20T06:24:55Z</time>
      </trkpt>
      <trkpt lat="42.1536100" lon="-8.8050070">
        <ele>118.4</ele>
        <time>2021-05-20T06:24:56Z</time>
      </trkpt>
      <trkpt lat="42.1536270" lon="-8.8050060">
        <ele>118.5</ele>
        <time>2021-05-20T06:24:57Z</time>
      </trkpt>
      <trkpt lat="42.1536370" lon="-8.8050000">
        <ele>118.6</ele>
        <time>2021-05-20T06:24:58Z</time>
      </trkpt>
      <trkpt lat="42.1536430" lon="-8.8049950">
        <ele>118.6</ele>
        <time>2021-05-20T06:24:59Z</time>
      </trkpt>
      <trkpt lat="42.1536560" lon="-8.8049920">
        <ele>118.7</ele>
        <time>2021-05-20T06:25:00Z</time>
      </trkpt>
      <trkpt lat="42.1536700" lon="-8.8049910">
        <ele>118.8</ele>
        <time>2021-05-20T06:25:01Z</time>
      </trkpt>
      <trkpt lat="42.1536860" lon="-8.8049920">
        <ele>118.9</ele>
        <time>2021-05-20T06:25:02Z</time>
      </trkpt>
      <trkpt lat="42.1536930" lon="-8.8049900">
        <ele>118.9</ele>
        <time>2021-05-20T06:25:03Z</time>
      </trkpt>
      <trkpt lat="42.1537060" lon="-8.8049840">
        <ele>119.0</ele>
        <time>2021-05-20T06:25:04Z</time>
      </trkpt>
      <trkpt lat="42.1537250" lon="-8.8049830">
        <ele>119.1</ele>
        <time>2021-05-20T06:25:05Z</time>
      </trkpt>
      <trkpt lat="42.1537330" lon="-8.8049820">
        <ele>119.2</ele>
        <time>2021-05-20T06:25:06Z</time>
      </trkpt>
      <trkpt lat="42.1537420" lon="-8.8049810">
        <ele>119.2</ele>
        <time>2021-05-20T06:25:07Z</time>
      </trkpt>
      <trkpt lat="42.1537490" lon="-8.8049790">
        <ele>119.3</ele>
        <time>2021-05-20T06:25:08Z</time>
      </trkpt>
      <trkpt lat="42.1537590" lon="-8.8049790">
        <ele>119.3</ele>
        <time>2021-05-20T06:25:09Z</time>
      </trkpt>
      <trkpt lat="42.1537710" lon="-8.8049760">
        <ele>119.4</ele>
        <time>2021-05-20T06:25:10Z</time>
      </trkpt>
      <trkpt lat="42.1537850" lon="-8.8049700">
        <ele>119.5</ele>
        <time>2021-05-20T06:25:11Z</time>
      </trkpt>
      <trkpt lat="42.1537990" lon="-8.8049670">
        <ele>119.6</ele>
        <time>2021-05-20T06:25:12Z</time>
      </trkpt>
      <trkpt lat="42.1538230" lon="-8.8049650">
        <ele>119.7</ele>
        <time>2021-05-20T06:25:13Z</time>
      </trkpt>
      <trkpt lat="42.1538310" lon="-8.8049620">
        <ele>119.8</ele>
        <time>2021-05-20T06:25:14Z</time>
      </trkpt>
      <trkpt lat="42.1538490" lon="-8.8049600">
        <ele>119.9</ele>
        <time>2021-05-20T06:25:15Z</time>
      </trkpt>
      <trkpt lat="42.1538630" lon="-8.8049590">
        <ele>120.0</ele>
        <time>2021-05-20T06:25:16Z</time>
      </trkpt>
      <trkpt lat="42.1538780" lon="-8.8049510">
        <ele>120.1</ele>
        <time>2021-05-20T06:25:17Z</time>
      </trkpt>
      <trkpt lat="42.1538870" lon="-8.8049480">
        <ele>120.1</ele>
        <time>2021-05-20T06:25:18Z</time>
      </trkpt>
      <trkpt lat="42.1538950" lon="-8.8049450">
        <ele>120.2</ele>
        <time>2021-05-20T06:25:19Z</time>
      </trkpt>
      <trkpt lat="42.1539040" lon="-8.8049420">
        <ele>120.2</ele>
        <time>2021-05-20T06:25:20Z</time>
      </trkpt>
      <trkpt lat="42.1539220" lon="-8.8049370">
        <ele>120.3</ele>
        <time>2021-05-20T06:25:21Z</time>
      </trkpt>
      <trkpt lat="42.1539350" lon="-8.8049360">
        <ele>120.4</ele>
        <time>2021-05-20T06:25:22Z</time>
      </trkpt>
      <trkpt lat="42.1539570" lon="-8.8049350">
        <ele>120.6</ele>
        <time>2021-05-20T06:25:23Z</time>
      </trkpt>
      <trkpt lat="42.1539650" lon="-8.8049340">
        <ele>120.6</ele>
        <time>2021-05-20T06:25:24Z</time>
      </trkpt>
      <trkpt lat="42.1539740" lon="-8.8049330">
        <ele>120.7</ele>
        <time>2021-05-20T06:25:25Z</time>
      </trkpt>
      <trkpt lat="42.1539840" lon="-8.8049310">
        <ele>120.7</ele>
        <time>2021-05-20T06:25:26Z</time>
      </trkpt>
      <trkpt lat="42.1539950" lon="-8.8049280">
        <ele>120.8</ele>
        <time>2021-05-20T06:25:27Z</time>
      </trkpt>
      <trkpt lat="42.1540090" lon="-8.8049250">
        <ele>120.9</ele>
        <time>2021-05-20T06:25:28Z</time>
      </trkpt>
      <trkpt lat="42.1540320" lon="-8.8049220">
        <ele>121.0</ele>
        <time>2021-05-20T06:25:29Z</time>
      </trkpt>
      <trkpt lat="42.1540420" lon="-8.8049190">
        <ele>121.1</ele>
        <time>2021-05-20T06:25:30Z</time>
      </trkpt>
      <trkpt lat="42.1540530" lon="-8.8049170">
        <ele>121.1</ele>
        <time>2021-05-20T06:25:31Z</time>
      </trkpt>
      <trkpt lat="42.1540650" lon="-8.8049150">
        <ele>121.2</ele>
        <time>2021-05-20T06:25:32Z</time>
      </trkpt>
      <trkpt lat="42.1540840" lon="-8.8049160">
        <ele>121.3</ele>
        <time>2021-05-20T06:25:33Z</time>
      </trkpt>
      <trkpt lat="42.1540870" lon="-8.8049100">
        <ele>121.3</ele>
        <time>2021-05-20T06:25:34Z</time>
      </trkpt>
      <trkpt lat="42.1541020" lon="-8.8049070">
        <ele>121.4</ele>
        <time>2021-05-20T06:25:35Z</time>
      </trkpt>
      <trkpt lat="42.1541170" lon="-8.8048990">
        <ele>121.5</ele>
        <time>2021-05-20T06:25:36Z</time>
      </trkpt>
      <trkpt lat="42.1541350" lon="-8.8048810">
        <ele>121.7</ele>
        <time>2021-05-20T06:25:37Z</time>
      </trkpt>
      <trkpt lat="42.1541420" lon="-8.8048740">
        <ele>121.7</ele>
        <time>2021-05-20T06:25:38Z</time>
      </trkpt>
      <trkpt lat="42.1541480" lon="-8.8048680">
        <ele>121.8</ele>
        <time>2021-05-20T06:25:39Z</time>
      </trkpt>
      <trkpt lat="42.1541670" lon="-8.8048520">
        <ele>121.9</ele>
        <time>2021-05-20T06:25:40Z</time>
      </trkpt>
      <trkpt lat="42.1541740" lon="-8.8048500">
        <ele>121.9</ele>
        <time>2021-05-20T06:25:41Z</time>
      </trkpt>
      <trkpt lat="42.1541810" lon="-8.8048470">
        <ele>122.0</ele>
        <time>2021-05-20T06:25:42Z</time>
      </trkpt>
      <trkpt lat="42.1541990" lon="-8.8048340">
        <ele>122.1</ele>
        <time>2021-05-20T06:25:43Z</time>
      </trkpt>
      <trkpt lat="42.1542090" lon="-8.8048330">
        <ele>122.1</ele>
        <time>2021-05-20T06:25:44Z</time>
      </trkpt>
      <trkpt lat="42.1542180" lon="-8.8048310">
        <ele>122.2</ele>
        <time>2021-05-20T06:25:45Z</time>
      </trkpt>
      <trkpt lat="42.1542270" lon="-8.8048340">
        <ele>122.3</ele>
        <time>2021-05-20T06:25:46Z</time>
      </trkpt>
      <trkpt lat="42.1542390" lon="-8.8048340">
        <ele>122.3</ele>
        <time>2021-05-20T06:25:47Z</time>
      </trkpt>
      <trkpt lat="42.1542500" lon="-8.8048240">
        <ele>122.4</ele>
        <time>2021-05-20T06:25:48Z</time>
      </trkpt>
      <trkpt lat="42.1542700" lon="-8.8048090">
        <ele>122.5</ele>
        <time>2021-05-20T06:25:49Z</time>
      </trkpt>
      <trkpt lat="42.1542750" lon="-8.8048010">
        <ele>122.6</ele>
        <time>2021-05-20T06:25:50Z</time>
      </trkpt>
      <trkpt lat="42.1542810" lon="-8.8047940">
        <ele>122.6</ele>
        <time>2021-05-20T06:25:51Z</time>
      </trkpt>
      <trkpt lat="42.1542980" lon="-8.8047810">
        <ele>122.8</ele>
        <time>2021-05-20T06:25:52Z</time>
      </trkpt>
      <trkpt lat="42.1543080" lon="-8.8047770">
        <ele>122.8</ele>
        <time>2021-05-20T06:25:53Z</time>
      </trkpt>
      <trkpt lat="42.1543170" lon="-8.8047720">
        <ele>122.9</ele>
        <time>2021-05-20T06:25:54Z</time>
      </trkpt>
      <trkpt lat="42.1543380" lon="-8.8047720">
        <ele>123.0</ele>
        <time>2021-05-20T06:25:55Z</time>
      </trkpt>
      <trkpt lat="42.1543480" lon="-8.8047690">
        <ele>123.1</ele>
        <time>2021-05-20T06:25:56Z</time>
      </trkpt>
      <trkpt lat="42.1543580" lon="-8.8047670">
        <ele>123.1</ele>
        <time>2021-05-20T06:25:57Z</time>
      </trkpt>
      <trkpt lat="42.1543720" lon="-8.8047630">
        <ele>123.2</ele>
        <time>2021-05-20T06:25:58Z</time>
      </trkpt>
      <trkpt lat="42.1543790" lon="-8.8047550">
        <ele>123.3</ele>
        <time>2021-05-20T06:25:59Z</time>
      </trkpt>
      <trkpt lat="42.1543900" lon="-8.8047540">
        <ele>123.3</ele>
        <time>2021-05-20T06:26:00Z</time>
      </trkpt>
      <trkpt lat="42.1544110" lon="-8.8047530">
        <ele>123.5</ele>
        <time>2021-05-20T06:26:01Z</time>
      </trkpt>
      <trkpt lat="42.1544240" lon="-8.8047490">
        <ele>123.6</ele>
        <time>2021-05-20T06:26:02Z</time>
      </trkpt>
      <trkpt lat="42.1544450" lon="-8.8047390">
        <ele>123.7</ele>
        <time>2021-05-20T06:26:03Z</time>
      </trkpt>
      <trkpt lat="42.1544530" lon="-8.8047370">
        <ele>123.8</ele>
        <time>2021-05-20T06:26:04Z</time>
      </trkpt>
      <trkpt lat="42.1544610" lon="-8.8047340">
        <ele>123.8</ele>
        <time>2021-05-20T06:26:05Z</time>
      </trkpt>
      <trkpt lat="42.1544790" lon="-8.8047170">
        <ele>123.9</ele>
        <time>2021-05-20T06:26:06Z</time>
      </trkpt>
      <trkpt lat="42.1544860" lon="-8.8047120">
        <ele>124.0</ele>
        <time>2021-05-20T06:26:07Z</time>
      </trkpt>
      <trkpt lat="42.1544920" lon="-8.8047070">
        <ele>124.0</ele>
        <time>2021-05-20T06:26:08Z</time>
      </trkpt>
      <trkpt lat="42.1545060" lon="-8.8046890">
        <ele>124.2</ele>
        <time>2021-05-20T06:26:09Z</time>
      </trkpt>
      <trkpt lat="42.1545170" lon="-8.8046840">
        <ele>124.3</ele>
        <time>2021-05-20T06:26:10Z</time>
      </trkpt>
      <trkpt lat="42.1545250" lon="-8.8046860">
        <ele>124.3</ele>
        <time>2021-05-20T06:26:11Z</time>
      </trkpt>
      <trkpt lat="42.1545400" lon="-8.8046810">
        <ele>124.4</ele>
        <time>2021-05-20T06:26:12Z</time>
      </trkpt>
      <trkpt lat="42.1545490" lon="-8.8046800">
        <ele>124.5</ele>
        <time>2021-05-20T06:26:13Z</time>
      </trkpt>
      <trkpt lat="42.1545720" lon="-8.8046720">
        <ele>124.6</ele>
        <time>2021-05-20T06:26:14Z</time>
      </trkpt>
      <trkpt lat="42.1545820" lon="-8.8046670">
        <ele>124.7</ele>
        <time>2021-05-20T06:26:15Z</time>
      </trkpt>
      <trkpt lat="42.1545910" lon="-8.8046610">
        <ele>124.8</ele>
        <time>2021-05-20T06:26:16Z</time>
      </trkpt>
      <trkpt lat="42.1546010" lon="-8.8046490">
        <ele>124.8</ele>
        <time>2021-05-20T06:26:17Z</time>
      </trkpt>
      <trkpt lat="42.1546120" lon="-8.8046380">
        <ele>124.9</ele>
        <time>2021-05-20T06:26:18Z</time>
      </trkpt>
      <trkpt lat="42.1546240" lon="-8.8046330">
        <ele>125.0</ele>
        <time>2021-05-20T06:26:19Z</time>
      </trkpt>
      <trkpt lat="42.1546330" lon="-8.8046270">
        <ele>125.1</ele>
        <time>2021-05-20T06:26:20Z</time>
      </trkpt>
      <trkpt lat="42.1546380" lon="-8.8046190">
        <ele>125.1</ele>
        <time>2021-05-20T06:26:21Z</time>
      </trkpt>
      <trkpt lat="42.1546520" lon="-8.8046090">
        <ele>125.2</ele>
        <time>2021-05-20T06:26:22Z</time>
      </trkpt>
      <trkpt lat="42.1546660" lon="-8.8045970">
        <ele>125.3</ele>
        <time>2021-05-20T06:26:23Z</time>
      </trkpt>
      <trkpt lat="42.1546800" lon="-8.8045910">
        <ele>125.4</ele>
        <time>2021-05-20T06:26:24Z</time>
      </trkpt>
      <trkpt lat="42.1546880" lon="-8.8045900">
        <ele>125.5</ele>
        <time>2021-05-20T06:26:25Z</time>
      </trkpt>
      <trkpt lat="42.1546960" lon="-8.8045860">
        <ele>125.5</ele>
        <time>2021-05-20T06:26:26Z</time>
      </trkpt>
      <trkpt lat="42.1547110" lon="-8.8045640">
        <ele>125.7</ele>
        <time>2021-05-20T06:26:27Z</time>
      </trkpt>
      <trkpt lat="42.1547180" lon="-8.8045540">
        <ele>125.8</ele>
        <time>2021-05-20T06:26:28Z</time>
      </trkpt>
      <trkpt lat="42.1547240" lon="-8.8045450">
        <ele>125.8</ele>
        <time>2021-05-20T06:26:29Z</time>
      </trkpt>
      <trkpt lat="42.1547430" lon="-8.8045330">
        <ele>126.0</ele>
        <time>2021-05-20T06:26:30Z</time>
      </trkpt>
      <trkpt lat="42.1547510" lon="-8.8045250">
        <ele>126.0</ele>
        <time>2021-05-20T06:26:31Z</time>
      </trkpt>
      <trkpt lat="42.1547580" lon="-8.8045160">
        <ele>126.1</ele>
        <time>2021-05-20T06:26:32Z</time>
      </trkpt>
      <trkpt lat="42.1547720" lon="-8.8045120">
        <ele>126.2</ele>
        <time>2021-05-20T06:26:33Z</time>
      </trkpt>
      <trkpt lat="42.1547820" lon="-8.8045000">
        <ele>126.3</ele>
        <time>2021-05-20T06:26:34Z</time>
      </trkpt>
      <trkpt lat="42.1547920" lon="-8.8044900">
        <ele>126.4</ele>
        <time>2021-05-20T06:26:35Z</time>
      </trkpt>
      <trkpt lat="42.1547990" lon="-8.8044840">
        <ele>126.4</ele>
        <time>2021-05-20T06:26:36Z</time>
      </trkpt>
      <trkpt lat="42.1548120" lon="-8.8044750">
        <ele>126.5</ele>
        <time>2021-05-20T06:26:37Z</time>
      </trkpt>
      <trkpt lat="42.1548300" lon="-8.8044640">
        <ele>126.7</ele>
        <time>2021-05-20T06:26:38Z</time>
      </trkpt>
      <trkpt lat="42.1548380" lon="-8.8044590">
        <ele>126.7</ele>
        <time>2021-05-20T06:26:39Z</time>
      </trkpt>
      <trkpt lat="42.1548450" lon="-8.8044530">
        <ele>126.8</ele>
        <time>2021-05-20T06:26:40Z</time>
      </trkpt>
      <trkpt lat="42.1548640" lon="-8.8044510">
        <ele>126.9</ele>
        <time>2021-05-20T06:26:41Z</time>
      </trkpt>
      <trkpt lat="42.1548790" lon="-8.8044460">
        <ele>127.0</ele>
        <time>2021-05-20T06:26:42Z</time>
      </trkpt>
      <trkpt lat="42.1548990" lon="-8.8044350">
        <ele>127.2</ele>
        <time>2021-05-20T06:26:43Z</time>
      </trkpt>
      <trkpt lat="42.1549080" lon="-8.8044290">
        <ele>127.2</ele>
        <time>2021-05-20T06:26:44Z</time>
      </trkpt>
      <trkpt lat="42.1549170" lon="-8.8044230">
        <ele>127.3</ele>
        <time>2021-05-20T06:26:45Z</time>
      </trkpt>
      <trkpt lat="42.1549240" lon="-8.8044180">
        <ele>127.3</ele>
        <time>2021-05-20T06:26:46Z</time>
      </trkpt>
      <trkpt lat="42.1549360" lon="-8.8044090">
        <ele>127.4</ele>
        <time>2021-05-20T06:26:47Z</time>
      </trkpt>
      <trkpt lat="42.1549500" lon="-8.8044040">
        <ele>127.5</ele>
        <time>2021-05-20T06:26:48Z</time>
      </trkpt>
      <trkpt lat="42.1549670" lon="-8.8044040">
        <ele>127.6</ele>
        <time>2021-05-20T06:26:49Z</time>
      </trkpt>
      <trkpt lat="42.1549800" lon="-8.8043930">
        <ele>127.7</ele>
        <time>2021-05-20T06:26:50Z</time>
      </trkpt>
      <trkpt lat="42.1549890" lon="-8.8043810">
        <ele>127.8</ele>
        <time>2021-05-20T06:26:51Z</time>
      </trkpt>
      <trkpt lat="42.1550010" lon="-8.8043800">
        <ele>127.9</ele>
        <time>2021-05-20T06:26:52Z</time>
      </trkpt>
      <trkpt lat="42.1550120" lon="-8.8043730">
        <ele>128.0</ele>
        <time>2021-05-20T06:26:53Z</time>
      </trkpt>
      <trkpt lat="42.1550160" lon="-8.8043700">
        <ele>128.0</ele>
        <time>2021-05-20T06:26:54Z</time>
      </trkpt>
      <trkpt lat="42.1550310" lon="-8.8043620">
        <ele>128.1</ele>
        <time>2021-05-20T06:26:55Z</time>
      </trkpt>
      <trkpt lat="42.1550450" lon="-8.8043580">
        <ele>128.2</ele>
        <time>2021-05-20T06:26:56Z</time>
      </trkpt>
      <trkpt lat="42.1550530" lon="-8.8043620">
        <ele>128.3</ele>
        <time>2021-05-20T06:26:57Z</time>
      </trkpt>
      <trkpt lat="42.1550660" lon="-8.8043540">
        <ele>128.4</ele>
        <time>2021-05-20T06:26:58Z</time>
      </trkpt>
      <trkpt lat="42.1550760" lon="-8.8043470">
        <ele>128.4</ele>
        <time>2021-05-20T06:26:59Z</time>
      </trkpt>
      <trkpt lat="42.1550930" lon="-8.8043310">
        <ele>128.6</ele>
        <time>2021-05-20T06:27:00Z</time>
      </trkpt>
      <trkpt lat="42.1551010" lon="-8.8043260">
        <ele>128.6</ele>
        <time>2021-05-20T06:27:01Z</time>
      </trkpt>
      <trkpt lat="42.1551090" lon="-8.8043200">
        <ele>128.7</ele>
        <time>2021-05-20T06:27:02Z</time>
      </trkpt>
      <trkpt lat="42.1551290" lon="-8.8043120">
        <ele>128.8</ele>
        <time>2021-05-20T06:27:03Z</time>
      </trkpt>
      <trkpt lat="42.1551390" lon="-8.8043110">
        <ele>128.9</ele>
        <time>2021-05-20T06:27:04Z</time>
      </trkpt>
      <trkpt lat="42.1551490" lon="-8.8043090">
        <ele>128.9</ele>
        <time>2021-05-20T06:27:05Z</time>
      </trkpt>
      <trkpt lat="42.1551570" lon="-8.8043010">
        <ele>129.0</ele>
        <time>2021-05-20T06:27:06Z</time>
      </trkpt>
      <trkpt lat="42.1551720" lon="-8.8043030">
        <ele>129.1</ele>
        <time>2021-05-20T06:27:07Z</time>
      </trkpt>
      <trkpt lat="42.1551810" lon="-8.8043000">
        <ele>129.2</ele>
        <time>2021-05-20T06:27:08Z</time>
      </trkpt>
      <trkpt lat="42.1551930" lon="-8.8042910">
        <ele>129.3</ele>
        <time>2021-05-20T06:27:09Z</time>
      </trkpt>
      <trkpt lat="42.1552050" lon="-8.8042820">
        <ele>129.3</ele>
        <time>2021-05-20T06:27:10Z</time>
      </trkpt>
      <trkpt lat="42.1552140" lon="-8.8042750">
        <ele>129.4</ele>
        <time>2021-05-20T06:27:11Z</time>
      </trkpt>
      <trkpt lat="42.1552310" lon="-8.8042740">
        <ele>129.5</ele>
        <time>2021-05-20T06:27:12Z</time>
      </trkpt>
      <trkpt lat="42.1552520" lon="-8.8042710">
        <ele>129.7</ele>
        <time>2021-05-20T06:27:13Z</time>
      </trkpt>
      <trkpt lat="42.1552620" lon="-8.8042660">
        <ele>129.7</ele>
        <time>2021-05-20T06:27:14Z</time>
      </trkpt>
      <trkpt lat="42.1552720" lon="-8.8042620">
        <ele>129.8</ele>
        <time>2021-05-20T06:27:15Z</time>
      </trkpt>
      <trkpt lat="42.1552820" lon="-8.8042600">
        <ele>129.9</ele>
        <time>2021-05-20T06:27:16Z</time>
      </trkpt>
      <trkpt lat="42.1552930" lon="-8.8042570">
        <ele>129.9</ele>
        <time>2021-05-20T06:27:17Z</time>
      </trkpt>
      <trkpt lat="42.1553040" lon="-8.8042470">
        <ele>130.0</ele>
        <time>2021-05-20T06:27:18Z</time>
      </trkpt>
      <trkpt lat="42.1553230" lon="-8.8042440">
        <ele>130.2</ele>
        <time>2021-05-20T06:27:19Z</time>
      </trkpt>
      <trkpt lat="42.1553310" lon="-8.8042470">
        <ele>130.2</ele>
        <time>2021-05-20T06:27:20Z</time>
      </trkpt>
      <trkpt lat="42.1553400" lon="-8.8042490">
        <ele>130.3</ele>
        <time>2021-05-20T06:27:21Z</time>
      </trkpt>
      <trkpt lat="42.1553500" lon="-8.8042400">
        <ele>130.3</ele>
        <time>2021-05-20T06:27:22Z</time>
      </trkpt>
      <trkpt lat="42.1553590" lon="-8.8042400">
        <ele>130.4</ele>
        <time>2021-05-20T06:27:23Z</time>
      </trkpt>
      <trkpt lat="42.1553760" lon="-8.8042470">
        <ele>130.5</ele>
        <time>2021-05-20T06:27:24Z</time>
      </trkpt>
      <trkpt lat="42.1553910" lon="-8.8042340">
        <ele>130.6</ele>
        <time>2021-05-20T06:27:25Z</time>
      </trkpt>
      <trkpt lat="42.1553990" lon="-8.8042380">
        <ele>130.7</ele>
        <time>2021-05-20T06:27:26Z</time>
      </trkpt>
      <trkpt lat="42.1554040" lon="-8.8042330">
        <ele>130.7</ele>
        <time>2021-05-20T06:27:27Z</time>
      </trkpt>
      <trkpt lat="42.1554260" lon="-8.8042330">
        <ele>130.9</ele>
        <time>2021-05-20T06:27:28Z</time>
      </trkpt>
      <trkpt lat="42.1554340" lon="-8.8042340">
        <ele>130.9</ele>
        <time>2021-05-20T06:27:29Z</time>
      </trkpt>
      <trkpt lat="42.1554420" lon="-8.8042340">
        <ele>131.0</ele>
        <time>2021-05-20T06:27:30Z</time>
      </trkpt>
      <trkpt lat="42.1554550" lon="-8.8042310">
        <ele>131.1</ele>
        <time>2021-05-20T06:27:31Z</time>
      </trkpt>
      <trkpt lat="42.1554610" lon="-8.8042290">
        <ele>131.1</ele>
        <time>2021-05-20T06:27:32Z</time>
      </trkpt>
      <trkpt lat="42.1554730" lon="-8.8042320">
        <ele>131.2</ele>
        <time>2021-05-20T06:27:33Z</time>
      </trkpt>
      <trkpt lat="42.1554800" lon="-8.8042380">
        <ele>131.2</ele>
        <time>2021-05-20T06:27:34Z</time>
      </trkpt>
      <trkpt lat="42.1554880" lon="-8.8042300">
        <ele>131.3</ele>
        <time>2021-05-20T06:27:35Z</time>
      </trkpt>
      <trkpt lat="42.1554950" lon="-8.8042300">
        <ele>131.3</ele>
        <time>2021-05-20T06:27:36Z</time>
      </trkpt>
      <trkpt lat="42.1555080" lon="-8.8042280">
        <ele>131.4</ele>
        <time>2021-05-20T06:27:37Z</time>
      </trkpt>
      <trkpt lat="42.1555180" lon="-8.8042380">
        <ele>131.5</ele>
        <time>2021-05-20T06:27:38Z</time>
      </trkpt>
      <trkpt lat="42.1555320" lon="-8.8042430">
        <ele>131.6</ele>
        <time>2021-05-20T06:27:39Z</time>
      </trkpt>
      <trkpt lat="42.1555390" lon="-8.8042460">
        <ele>131.6</ele>
        <time>2021-05-20T06:27:40Z</time>
      </trkpt>
      <trkpt lat="42.1555500" lon="-8.8042470">
        <ele>131.7</ele>
        <time>2021-05-20T06:27:41Z</time>
      </trkpt>
      <trkpt lat="42.1555630" lon="-8.8042510">
        <ele>131.7</ele>
        <time>2021-05-20T06:27:42Z</time>
      </trkpt>
      <trkpt lat="42.1555700" lon="-8.8042440">
        <ele>131.8</ele>
        <time>2021-05-20T06:27:43Z</time>
      </trkpt>
      <trkpt lat="42.1555930" lon="-8.8042390">
        <ele>131.9</ele>
        <time>2021-05-20T06:27:44Z</time>
      </trkpt>
      <trkpt lat="42.1556010" lon="-8.8042390">
        <ele>131.9</ele>
        <time>2021-05-20T06:27:45Z</time>
      </trkpt>
      <trkpt lat="42.1556080" lon="-8.8042390">
        <ele>132.0</ele>
        <time>2021-05-20T06:27:46Z</time>
      </trkpt>
      <trkpt lat="42.1556210" lon="-8.8042350">
        <ele>132.0</ele>
        <time>2021-05-20T06:27:47Z</time>
      </trkpt>
      <trkpt lat="42.1556390" lon="-8.8042540">
        <ele>132.2</ele>
        <time>2021-05-20T06:27:48Z</time>
      </trkpt>
      <trkpt lat="42.1556590" lon="-8.8042670">
        <ele>132.3</ele>
        <time>2021-05-20T06:27:49Z</time>
      </trkpt>
      <trkpt lat="42.1556660" lon="-8.8042720">
        <ele>132.3</ele>
        <time>2021-05-20T06:27:50Z</time>
      </trkpt>
      <trkpt lat="42.1556730" lon="-8.8042760">
        <ele>132.4</ele>
        <time>2021-05-20T06:27:51Z</time>
      </trkpt>
      <trkpt lat="42.1556920" lon="-8.8042800">
        <ele>132.5</ele>
        <time>2021-05-20T06:27:52Z</time>
      </trkpt>
      <trkpt lat="42.1557070" lon="-8.8042900">
        <ele>132.6</ele>
        <time>2021-05-20T06:27:53Z</time>
      </trkpt>
      <trkpt lat="42.1557290" lon="-8.8043200">
        <ele>132.7</ele>
        <time>2021-05-20T06:27:54Z</time>
      </trkpt>
      <trkpt lat="42.1557360" lon="-8.8043250">
        <ele>132.8</ele>
        <time>2021-05-20T06:27:55Z</time>
      </trkpt>
      <trkpt lat="42.1557570" lon="-8.8043310">
        <ele>132.9</ele>
        <time>2021-05-20T06:27:56Z</time>
      </trkpt>
      <trkpt lat="42.1557660" lon="-8.8043340">
        <ele>132.9</ele>
        <time>2021-05-20T06:27:57Z</time>
      </trkpt>
      <trkpt lat="42.1557750" lon="-8.8043360">
        <ele>133.0</ele>
        <time>2021-05-20T06:27:58Z</time>
      </trkpt>
      <trkpt lat="42.1557870" lon="-8.8043390">
        <ele>133.0</ele>
        <time>2021-05-20T06:27:59Z</time>
      </trkpt>
      <trkpt lat="42.1558040" lon="-8.8043460">
        <ele>133.1</ele>
        <time>2021-05-20T06:28:00Z</time>
      </trkpt>
      <trkpt lat="42.1558190" lon="-8.8043430">
        <ele>133.2</ele>
        <time>2021-05-20T06:28:01Z</time>
      </trkpt>
      <trkpt lat="42.1558280" lon="-8.8043450">
        <ele>133.2</ele>
        <time>2021-05-20T06:28:02Z</time>
      </trkpt>
      <trkpt lat="42.1558360" lon="-8.8043460">
        <ele>133.3</ele>
        <time>2021-05-20T06:28:03Z</time>
      </trkpt>
      <trkpt lat="42.1558440" lon="-8.8043480">
        <ele>133.3</ele>
        <time>2021-05-20T06:28:04Z</time>
      </trkpt>
      <trkpt lat="42.1558520" lon="-8.8043520">
        <ele>133.4</ele>
        <time>2021-05-20T06:28:05Z</time>
      </trkpt>
      <trkpt lat="42.1558630" lon="-8.8043560">
        <ele>133.4</ele>
        <time>2021-05-20T06:28:06Z</time>
      </trkpt>
      <trkpt lat="42.1558730" lon="-8.8043610">
        <ele>133.5</ele>
        <time>2021-05-20T06:28:07Z</time>
      </trkpt>
      <trkpt lat="42.1558790" lon="-8.8043620">
        <ele>133.5</ele>
        <time>2021-05-20T06:28:08Z</time>
      </trkpt>
      <trkpt lat="42.1558950" lon="-8.8043680">
        <ele>133.6</ele>
        <time>2021-05-20T06:28:09Z</time>
      </trkpt>
      <trkpt lat="42.1559040" lon="-8.8043690">
        <ele>133.7</ele>
        <time>2021-05-20T06:28:10Z</time>
      </trkpt>
      <trkpt lat="42.1559300" lon="-8.8043820">
        <ele>133.8</ele>
        <time>2021-05-20T06:28:11Z</time>
      </trkpt>
      <trkpt lat="42.1559390" lon="-8.8043890">
        <ele>133.9</ele>
        <time>2021-05-20T06:28:12Z</time>
      </trkpt>
      <trkpt lat="42.1559610" lon="-8.8044010">
        <ele>134.0</ele>
        <time>2021-05-20T06:28:13Z</time>
      </trkpt>
      <trkpt lat="42.1559680" lon="-8.8044010">
        <ele>134.0</ele>
        <time>2021-05-20T06:28:14Z</time>
      </trkpt>
      <trkpt lat="42.1559760" lon="-8.8044010">
        <ele>134.1</ele>
        <time>2021-05-20T06:28:15Z</time>
      </trkpt>
      <trkpt lat="42.1560060" lon="-8.8044100">
        <ele>134.2</ele>
        <time>2021-05-20T06:28:16Z</time>
      </trkpt>
      <trkpt lat="42.1560120" lon="-8.8044160">
        <ele>134.3</ele>
        <time>2021-05-20T06:28:17Z</time>
      </trkpt>
      <trkpt lat="42.1560210" lon="-8.8044130">
        <ele>134.3</ele>
        <time>2021-05-20T06:28:18Z</time>
      </trkpt>
      <trkpt lat="42.1560330" lon="-8.8044270">
        <ele>134.4</ele>
        <time>2021-05-20T06:28:19Z</time>
      </trkpt>
      <trkpt lat="42.1560450" lon="-8.8044300">
        <ele>134.4</ele>
        <time>2021-05-20T06:28:20Z</time>
      </trkpt>
      <trkpt lat="42.1560570" lon="-8.8044350">
        <ele>134.5</ele>
        <time>2021-05-20T06:28:21Z</time>
      </trkpt>
      <trkpt lat="42.1560650" lon="-8.8044390">
        <ele>134.6</ele>
        <time>2021-05-20T06:28:22Z</time>
      </trkpt>
      <trkpt lat="42.1560760" lon="-8.8044460">
        <ele>134.6</ele>
        <time>2021-05-20T06:28:23Z</time>
      </trkpt>
      <trkpt lat="42.1560850" lon="-8.8044450">
        <ele>134.7</ele>
        <time>2021-05-20T06:28:24Z</time>
      </trkpt>
      <trkpt lat="42.1560920" lon="-8.8044470">
        <ele>134.7</ele>
        <time>2021-05-20T06:28:25Z</time>
      </trkpt>
      <trkpt lat="42.1561060" lon="-8.8044470">
        <ele>134.8</ele>
        <time>2021-05-20T06:28:26Z</time>
      </trkpt>
      <trkpt lat="42.1561260" lon="-8.8044490">
        <ele>134.9</ele>
        <time>2021-05-20T06:28:27Z</time>
      </trkpt>
      <trkpt lat="42.1561350" lon="-8.8044480">
        <ele>134.9</ele>
        <time>2021-05-20T06:28:28Z</time>
      </trkpt>
      <trkpt lat="42.1561440" lon="-8.8044480">
        <ele>135.0</ele>
        <time>2021-05-20T06:28:29Z</time>
      </trkpt>
      <trkpt lat="42.1561540" lon="-8.8044460">
        <ele>135.0</ele>
        <time>2021-05-20T06:28:30Z</time>
      </trkpt>
      <trkpt lat="42.1561670" lon="-8.8044530">
        <ele>135.1</ele>
        <time>2021-05-20T06:28:31Z</time>
      </trkpt>
      <trkpt lat="42.1561750" lon="-8.8044550">
        <ele>135.1</ele>
        <time>2021-05-20T06:28:32Z</time>
      </trkpt>
      <trkpt lat="42.1561850" lon="-8.8044610">
        <ele>135.2</ele>
        <time>2021-05-20T06:28:33Z</time>
      </trkpt>
      <trkpt lat="42.1561930" lon="-8.8044640">
        <ele>135.2</ele>
        <time>2021-05-20T06:28:34Z</time>
      </trkpt>
      <trkpt lat="42.1562020" lon="-8.8044600">
        <ele>135.3</ele>
        <time>2021-05-20T06:28:35Z</time>
      </trkpt>
      <trkpt lat="42.1562090" lon="-8.8044590">
        <ele>135.3</ele>
        <time>2021-05-20T06:28:36Z</time>
      </trkpt>
      <trkpt lat="42.1562170" lon="-8.8044590">
        <ele>135.3</ele>
        <time>2021-05-20T06:28:37Z</time>
      </trkpt>
      <trkpt lat="42.1562350" lon="-8.8044600">
        <ele>135.4</ele>
        <time>2021-05-20T06:28:38Z</time>
      </trkpt>
      <trkpt lat="42.1562420" lon="-8.8044550">
        <ele>135.5</ele>
        <time>2021-05-20T06:28:39Z</time>
      </trkpt>
      <trkpt lat="42.1562540" lon="-8.8044630">
        <ele>135.5</ele>
        <time>2021-05-20T06:28:40Z</time>
      </trkpt>
      <trkpt lat="42.1562690" lon="-8.8044690">
        <ele>135.6</ele>
        <time>2021-05-20T06:28:41Z</time>
      </trkpt>
      <trkpt lat="42.1562890" lon="-8.8044670">
        <ele>135.7</ele>
        <time>2021-05-20T06:28:42Z</time>
      </trkpt>
      <trkpt lat="42.1563000" lon="-8.8044660">
        <ele>135.8</ele>
        <time>2021-05-20T06:28:43Z</time>
      </trkpt>
      <trkpt lat="42.1563140" lon="-8.8044600">
        <ele>135.9</ele>
        <time>2021-05-20T06:28:44Z</time>
      </trkpt>
      <trkpt lat="42.1563320" lon="-8.8044530">
        <ele>136.0</ele>
        <time>2021-05-20T06:28:45Z</time>
      </trkpt>
      <trkpt lat="42.1563520" lon="-8.8044530">
        <ele>136.1</ele>
        <time>2021-05-20T06:28:46Z</time>
      </trkpt>
      <trkpt lat="42.1563600" lon="-8.8044490">
        <ele>136.1</ele>
        <time>2021-05-20T06:28:47Z</time>
      </trkpt>
      <trkpt lat="42.1563680" lon="-8.8044460">
        <ele>136.2</ele>
        <time>2021-05-20T06:28:48Z</time>
      </trkpt>
      <trkpt lat="42.1563780" lon="-8.8044460">
        <ele>136.2</ele>
        <time>2021-05-20T06:28:49Z</time>
      </trkpt>
      <trkpt lat="42.1563850" lon="-8.8044420">
        <ele>136.3</ele>
        <time>2021-05-20T06:28:50Z</time>
      </trkpt>
      <trkpt lat="42.1563950" lon="-8.8044390">
        <ele>136.3</ele>
        <time>2021-05-20T06:28:51Z</time>
      </trkpt>
      <trkpt lat="42.1564100" lon="-8.8044400">
        <ele>136.4</ele>
        <time>2021-05-20T06:28:52Z</time>
      </trkpt>
      <trkpt lat="42.1564240" lon="-8.8044380">
        <ele>136.5</ele>
        <time>2021-05-20T06:28:53Z</time>
      </trkpt>
      <trkpt lat="42.1564450" lon="-8.8044340">
        <ele>136.6</ele>
        <time>2021-05-20T06:28:54Z</time>
      </trkpt>
      <trkpt lat="42.1564540" lon="-8.8044350">
        <ele>136.7</ele>
        <time>2021-05-20T06:28:55Z</time>
      </trkpt>
      <trkpt lat="42.1564640" lon="-8.8044370">
        <ele>136.7</ele>
        <time>2021-05-20T06:28:56Z</time>
      </trkpt>
      <trkpt lat="42.1564720" lon="-8.8044340">
        <ele>136.8</ele>
        <time>2021-05-20T06:28:57Z</time>
      </trkpt>
      <trkpt lat="42.1564830" lon="-8.8044370">
        <ele>136.8</ele>
        <time>2021-05-20T06:28:58Z</time>
      </trkpt>
      <trkpt lat="42.1564930" lon="-8.8044420">
        <ele>136.9</ele>
        <time>2021-05-20T06:28:59Z</time>
      </trkpt>
      <trkpt lat="42.1565050" lon="-8.8044350">
        <ele>137.0</ele>
        <time>2021-05-20T06:29:00Z</time>
      </trkpt>
      <trkpt lat="42.1565090" lon="-8.8044320">
        <ele>137.0</ele>
        <time>2021-05-20T06:29:01Z</time>
      </trkpt>
      <trkpt lat="42.1565120" lon="-8.8044280">
        <ele>137.0</ele>
        <time>2021-05-20T06:29:02Z</time>
      </trkpt>
      <trkpt lat="42.1565160" lon="-8.8044240">
        <ele>137.1</ele>
        <time>2021-05-20T06:29:03Z</time>
      </trkpt>
      <trkpt lat="42.1565190" lon="-8.8044200">
        <ele>137.1</ele>
        <time>2021-05-20T06:29:04Z</time>
      </trkpt>
      <trkpt lat="42.1565230" lon="-8.8044170">
        <ele>137.1</ele>
        <time>2021-05-20T06:29:05Z</time>
      </trkpt>
      <trkpt lat="42.1565260" lon="-8.8044130">
        <ele>137.1</ele>
        <time>2021-05-20T06:29:06Z</time>
      </trkpt>
      <trkpt lat="42.1565340" lon="-8.8044050">
        <ele>137.2</ele>
        <time>2021-05-20T06:29:07Z</time>
      </trkpt>
      <trkpt lat="42.1565390" lon="-8.8043880">
        <ele>137.3</ele>
        <time>2021-05-20T06:29:08Z</time>
      </trkpt>
      <trkpt lat="42.1565460" lon="-8.8043810">
        <ele>137.3</ele>
        <time>2021-05-20T06:29:09Z</time>
      </trkpt>
      <trkpt lat="42.1565540" lon="-8.8043830">
        <ele>137.4</ele>
        <time>2021-05-20T06:29:10Z</time>
      </trkpt>
      <trkpt lat="42.1565580" lon="-8.8043820">
        <ele>137.4</ele>
        <time>2021-05-20T06:29:11Z</time>
      </trkpt>
      <trkpt lat="42.1565620" lon="-8.8043800">
        <ele>137.4</ele>
        <time>2021-05-20T06:29:12Z</time>
      </trkpt>
      <trkpt lat="42.1565670" lon="-8.8043780">
        <ele>137.5</ele>
        <time>2021-05-20T06:29:13Z</time>
      </trkpt>
      <trkpt lat="42.1565710" lon="-8.8043760">
        <ele>137.5</ele>
        <time>2021-05-20T06:29:14Z</time>
      </trkpt>
      <trkpt lat="42.1565750" lon="-8.8043750">
        <ele>137.5</ele>
        <time>2021-05-20T06:29:15Z</time>
      </trkpt>
      <trkpt lat="42.1565790" lon="-8.8043730">
        <ele>137.6</ele>
        <time>2021-05-20T06:29:16Z</time>
      </trkpt>
      <trkpt lat="42.1565830" lon="-8.8043710">
        <ele>137.6</ele>
        <time>2021-05-20T06:29:17Z</time>
      </trkpt>
      <trkpt lat="42.1565870" lon="-8.8043660">
        <ele>137.6</ele>
        <time>2021-05-20T06:29:18Z</time>
      </trkpt>
      <trkpt lat="42.1565980" lon="-8.8043560">
        <ele>137.7</ele>
        <time>2021-05-20T06:29:19Z</time>
      </trkpt>
      <trkpt lat="42.1566040" lon="-8.8043460">
        <ele>137.8</ele>
        <time>2021-05-20T06:29:20Z</time>
      </trkpt>
      <trkpt lat="42.1566090" lon="-8.8043420">
        <ele>137.8</ele>
        <time>2021-05-20T06:29:21Z</time>
      </trkpt>
      <trkpt lat="42.1566170" lon="-8.8043350">
        <ele>137.9</ele>
        <time>2021-05-20T06:29:22Z</time>
      </trkpt>
      <trkpt lat="42.1566240" lon="-8.8043260">
        <ele>137.9</ele>
        <time>2021-05-20T06:29:23Z</time>
      </trkpt>
      <trkpt lat="42.1566280" lon="-8.8043260">
        <ele>137.9</ele>
        <time>2021-05-20T06:29:24Z</time>
      </trkpt>
      <trkpt lat="42.1566370" lon="-8.8043270">
        <ele>138.0</ele>
        <time>2021-05-20T06:29:25Z</time>
      </trkpt>
      <trkpt lat="42.1566490" lon="-8.8043240">
        <ele>138.1</ele>
        <time>2021-05-20T06:29:26Z</time>
      </trkpt>
      <trkpt lat="42.1566590" lon="-8.8043200">
        <ele>138.1</ele>
        <time>2021-05-20T06:29:27Z</time>
      </trkpt>
      <trkpt lat="42.1566680" lon="-8.8043140">
        <ele>138.2</ele>
        <time>2021-05-20T06:29:28Z</time>
      </trkpt>
      <trkpt lat="42.1566800" lon="-8.8043070">
        <ele>138.2</ele>
        <time>2021-05-20T06:29:29Z</time>
      </trkpt>
      <trkpt lat="42.1566900" lon="-8.8043060">
        <ele>138.3</ele>
        <time>2021-05-20T06:29:30Z</time>
      </trkpt>
      <trkpt lat="42.1566950" lon="-8.8042990">
        <ele>138.3</ele>
        <time>2021-05-20T06:29:31Z</time>
      </trkpt>
      <trkpt lat="42.1567010" lon="-8.8043000">
        <ele>138.3</ele>
        <time>2021-05-20T06:29:32Z</time>
      </trkpt>
      <trkpt lat="42.1567040" lon="-8.8042930">
        <ele>138.3</ele>
        <time>2021-05-20T06:29:33Z</time>
      </trkpt>
      <trkpt lat="42.1567130" lon="-8.8042790">
        <ele>138.4</ele>
        <time>2021-05-20T06:29:34Z</time>
      </trkpt>
      <trkpt lat="42.1567330" lon="-8.8042680">
        <ele>138.5</ele>
        <time>2021-05-20T06:29:35Z</time>
      </trkpt>
      <trkpt lat="42.1567400" lon="-8.8042630">
        <ele>138.6</ele>
        <time>2021-05-20T06:29:36Z</time>
      </trkpt>
      <trkpt lat="42.1567470" lon="-8.8042590">
        <ele>138.6</ele>
        <time>2021-05-20T06:29:37Z</time>
      </trkpt>
      <trkpt lat="42.1567610" lon="-8.8042480">
        <ele>138.7</ele>
        <time>2021-05-20T06:29:38Z</time>
      </trkpt>
      <trkpt lat="42.1567760" lon="-8.8042360">
        <ele>138.8</ele>
        <time>2021-05-20T06:29:39Z</time>
      </trkpt>
      <trkpt lat="42.1567940" lon="-8.8042250">
        <ele>138.9</ele>
        <time>2021-05-20T06:29:40Z</time>
      </trkpt>
      <trkpt lat="42.1568030" lon="-8.8042210">
        <ele>138.9</ele>
        <time>2021-05-20T06:29:41Z</time>
      </trkpt>
      <trkpt lat="42.1568120" lon="-8.8042160">
        <ele>139.0</ele>
        <time>2021-05-20T06:29:42Z</time>
      </trkpt>
      <trkpt lat="42.1568290" lon="-8.8041940">
        <ele>139.1</ele>
        <time>2021-05-20T06:29:43Z</time>
      </trkpt>
      <trkpt lat="42.1568350" lon="-8.8041870">
        <ele>139.1</ele>
        <time>2021-05-20T06:29:44Z</time>
      </trkpt>
      <trkpt lat="42.1568410" lon="-8.8041790">
        <ele>139.1</ele>
        <time>2021-05-20T06:29:45Z</time>
      </trkpt>
      <trkpt lat="42.1568470" lon="-8.8041730">
        <ele>139.2</ele>
        <time>2021-05-20T06:29:46Z</time>
      </trkpt>
      <trkpt lat="42.1568600" lon="-8.8041650">
        <ele>139.2</ele>
        <time>2021-05-20T06:29:47Z</time>
      </trkpt>
      <trkpt lat="42.1568710" lon="-8.8041590">
        <ele>139.3</ele>
        <time>2021-05-20T06:29:48Z</time>
      </trkpt>
      <trkpt lat="42.1568830" lon="-8.8041550">
        <ele>139.4</ele>
        <time>2021-05-20T06:29:49Z</time>
      </trkpt>
      <trkpt lat="42.1568870" lon="-8.8041440">
        <ele>139.4</ele>
        <time>2021-05-20T06:29:50Z</time>
      </trkpt>
      <trkpt lat="42.1568970" lon="-8.8041370">
        <ele>139.4</ele>
        <time>2021-05-20T06:29:51Z</time>
      </trkpt>
      <trkpt lat="42.1569080" lon="-8.8041350">
        <ele>139.5</ele>
        <time>2021-05-20T06:29:52Z</time>
      </trkpt>
      <trkpt lat="42.1569180" lon="-8.8041310">
        <ele>139.5</ele>
        <time>2021-05-20T06:29:53Z</time>
      </trkpt>
      <trkpt lat="42.1569280" lon="-8.8041250">
        <ele>139.6</ele>
        <time>2021-05-20T06:29:54Z</time>
      </trkpt>
      <trkpt lat="42.1569380" lon="-8.8041260">
        <ele>139.6</ele>
        <time>2021-05-20T06:29:55Z</time>
      </trkpt>
      <trkpt lat="42.1569400" lon="-8.8041150">
        <ele>139.7</ele>
        <time>2021-05-20T06:29:56Z</time>
      </trkpt>
      <trkpt lat="42.1569510" lon="-8.8041000">
        <ele>139.7</ele>
        <time>2021-05-20T06:29:57Z</time>
      </trkpt>
      <trkpt lat="42.1569660" lon="-8.8040860">
        <ele>139.8</ele>
        <time>2021-05-20T06:29:58Z</time>
      </trkpt>
      <trkpt lat="42.1569750" lon="-8.8040810">
        <ele>139.9</ele>
        <time>2021-05-20T06:29:59Z</time>
      </trkpt>
      <trkpt lat="42.1569840" lon="-8.8040760">
        <ele>139.9</ele>
        <time>2021-05-20T06:30:00Z</time>
      </trkpt>
      <trkpt lat="42.1569870" lon="-8.8040700">
        <ele>139.9</ele>
        <time>2021-05-20T06:30:01Z</time>
      </trkpt>
      <trkpt lat="42.1570000" lon="-8.8040650">
        <ele>140.0</ele>
        <time>2021-05-20T06:30:02Z</time>
      </trkpt>
      <trkpt lat="42.1570110" lon="-8.8040510">
        <ele>140.0</ele>
        <time>2021-05-20T06:30:03Z</time>
      </trkpt>
      <trkpt lat="42.1570270" lon="-8.8040320">
        <ele>140.1</ele>
        <time>2021-05-20T06:30:04Z</time>
      </trkpt>
      <trkpt lat="42.1570350" lon="-8.8040270">
        <ele>140.2</ele>
        <time>2021-05-20T06:30:05Z</time>
      </trkpt>
      <trkpt lat="42.1570420" lon="-8.8040210">
        <ele>140.2</ele>
        <time>2021-05-20T06:30:06Z</time>
      </trkpt>
      <trkpt lat="42.1570580" lon="-8.8040140">
        <ele>140.3</ele>
        <time>2021-05-20T06:30:07Z</time>
      </trkpt>
      <trkpt lat="42.1570680" lon="-8.8040060">
        <ele>140.3</ele>
        <time>2021-05-20T06:30:08Z</time>
      </trkpt>
      <trkpt lat="42.1570740" lon="-8.8039950">
        <ele>140.3</ele>
        <time>2021-05-20T06:30:09Z</time>
      </trkpt>
      <trkpt lat="42.1570820" lon="-8.8039840">
        <ele>140.4</ele>
        <time>2021-05-20T06:30:10Z</time>
      </trkpt>
      <trkpt lat="42.1570880" lon="-8.8039760">
        <ele>140.4</ele>
        <time>2021-05-20T06:30:11Z</time>
      </trkpt>
      <trkpt lat="42.1570920" lon="-8.8039680">
        <ele>140.5</ele>
        <time>2021-05-20T06:30:12Z</time>
      </trkpt>
      <trkpt lat="42.1571060" lon="-8.8039560">
        <ele>140.5</ele>
        <time>2021-05-20T06:30:13Z</time>
      </trkpt>
      <trkpt lat="42.1571160" lon="-8.8039460">
        <ele>140.6</ele>
        <time>2021-05-20T06:30:14Z</time>
      </trkpt>
      <trkpt lat="42.1571260" lon="-8.8039430">
        <ele>140.6</ele>
        <time>2021-05-20T06:30:15Z</time>
      </trkpt>
      <trkpt lat="42.1571340" lon="-8.8039330">
        <ele>140.7</ele>
        <time>2021-05-20T06:30:16Z</time>
      </trkpt>
      <trkpt lat="42.1571410" lon="-8.8039300">
        <ele>140.7</ele>
        <time>2021-05-20T06:30:17Z</time>
      </trkpt>
      <trkpt lat="42.1571540" lon="-8.8039260">
        <ele>140.7</ele>
        <time>2021-05-20T06:30:18Z</time>
      </trkpt>
      <trkpt lat="42.1571700" lon="-8.8039190">
        <ele>140.8</ele>
        <time>2021-05-20T06:30:19Z</time>
      </trkpt>
      <trkpt lat="42.1571810" lon="-8.8039070">
        <ele>140.8</ele>
        <time>2021-05-20T06:30:20Z</time>
      </trkpt>
      <trkpt lat="42.1571950" lon="-8.8038980">
        <ele>140.9</ele>
        <time>2021-05-20T06:30:21Z</time>
      </trkpt>
      <trkpt lat="42.1572040" lon="-8.8038930">
        <ele>140.9</ele>
        <time>2021-05-20T06:30:22Z</time>
      </trkpt>
      <trkpt lat="42.1572100" lon="-8.8038790">
        <ele>141.0</ele>
        <time>2021-05-20T06:30:23Z</time>
      </trkpt>
      <trkpt lat="42.1572180" lon="-8.8038690">
        <ele>141.0</ele>
        <time>2021-05-20T06:30:24Z</time>
      </trkpt>
      <trkpt lat="42.1572280" lon="-8.8038640">
        <ele>141.1</ele>
        <time>2021-05-20T06:30:25Z</time>
      </trkpt>
      <trkpt lat="42.1572350" lon="-8.8038550">
        <ele>141.1</ele>
        <time>2021-05-20T06:30:26Z</time>
      </trkpt>
      <trkpt lat="42.1572440" lon="-8.8038470">
        <ele>141.1</ele>
        <time>2021-05-20T06:30:27Z</time>
      </trkpt>
      <trkpt lat="42.1572510" lon="-8.8038370">
        <ele>141.2</ele>
        <time>2021-05-20T06:30:28Z</time>
      </trkpt>
      <trkpt lat="42.1572620" lon="-8.8038250">
        <ele>141.2</ele>
        <time>2021-05-20T06:30:29Z</time>
      </trkpt>
      <trkpt lat="42.1572710" lon="-8.8038140">
        <ele>141.2</ele>
        <time>2021-05-20T06:30:30Z</time>
      </trkpt>
      <trkpt lat="42.1572860" lon="-8.8038170">
        <ele>141.3</ele>
        <time>2021-05-20T06:30:31Z</time>
      </trkpt>
      <trkpt lat="42.1572990" lon="-8.8038120">
        <ele>141.3</ele>
        <time>2021-05-20T06:30:32Z</time>
      </trkpt>
      <trkpt lat="42.1573080" lon="-8.8038140">
        <ele>141.4</ele>
        <time>2021-05-20T06:30:33Z</time>
      </trkpt>
      <trkpt lat="42.1573130" lon="-8.8037870">
        <ele>141.4</ele>
        <time>2021-05-20T06:30:34Z</time>
      </trkpt>
      <trkpt lat="42.1573230" lon="-8.8037820">
        <ele>141.5</ele>
        <time>2021-05-20T06:30:35Z</time>
      </trkpt>
      <trkpt lat="42.1573410" lon="-8.8037630">
        <ele>141.5</ele>
        <time>2021-05-20T06:30:36Z</time>
      </trkpt>
      <trkpt lat="42.1573460" lon="-8.8037560">
        <ele>141.5</ele>
        <time>2021-05-20T06:30:37Z</time>
      </trkpt>
      <trkpt lat="42.1573520" lon="-8.8037490">
        <ele>141.6</ele>
        <time>2021-05-20T06:30:38Z</time>
      </trkpt>
      <trkpt lat="42.1573560" lon="-8.8037380">
        <ele>141.6</ele>
        <time>2021-05-20T06:30:39Z</time>
      </trkpt>
      <trkpt lat="42.1573670" lon="-8.8037230">
        <ele>141.6</ele>
        <time>2021-05-20T06:30:40Z</time>
      </trkpt>
      <trkpt lat="42.1573760" lon="-8.8037130">
        <ele>141.7</ele>
        <time>2021-05-20T06:30:41Z</time>
      </trkpt>
      <trkpt lat="42.1573910" lon="-8.8037040">
        <ele>141.7</ele>
        <time>2021-05-20T06:30:42Z</time>
      </trkpt>
      <trkpt lat="42.1573970" lon="-8.8036890">
        <ele>141.7</ele>
        <time>2021-05-20T06:30:43Z</time>
      </trkpt>
      <trkpt lat="42.1574040" lon="-8.8036840">
        <ele>141.8</ele>
        <time>2021-05-20T06:30:44Z</time>
      </trkpt>
      <trkpt lat="42.1574180" lon="-8.8036820">
        <ele>141.8</ele>
        <time>2021-05-20T06:30:45Z</time>
      </trkpt>
      <trkpt lat="42.1574240" lon="-8.8036720">
        <ele>141.8</ele>
        <time>2021-05-20T06:30:46Z</time>
      </trkpt>
      <trkpt lat="42.1574300" lon="-8.8036600">
        <ele>141.9</ele>
        <time>2021-05-20T06:30:47Z</time>
      </trkpt>
      <trkpt lat="42.1574460" lon="-8.8036510">
        <ele>141.9</ele>
        <time>2021-05-20T06:30:48Z</time>
      </trkpt>
      <trkpt lat="42.1574610" lon="-8.8036380">
        <ele>141.9</ele>
        <time>2021-05-20T06:30:49Z</time>
      </trkpt>
      <trkpt lat="42.1574710" lon="-8.8036290">
        <ele>142.0</ele>
        <time>2021-05-20T06:30:50Z</time>
      </trkpt>
      <trkpt lat="42.1574800" lon="-8.8036210">
        <ele>142.0</ele>
        <time>2021-05-20T06:30:51Z</time>
      </trkpt>
      <trkpt lat="42.1574910" lon="-8.8036070">
        <ele>142.0</ele>
        <time>2021-05-20T06:30:52Z</time>
      </trkpt>
      <trkpt lat="42.1575060" lon="-8.8036000">
        <ele>142.1</ele>
        <time>2021-05-20T06:30:53Z</time>
      </trkpt>
      <trkpt lat="42.1575260" lon="-8.8035850">
        <ele>142.1</ele>
        <time>2021-05-20T06:30:54Z</time>
      </trkpt>
      <trkpt lat="42.1575330" lon="-8.8035830">
        <ele>142.1</ele>
        <time>2021-05-20T06:30:55Z</time>
      </trkpt>
      <trkpt lat="42.1575410" lon="-8.8035810">
        <ele>142.1</ele>
        <time>2021-05-20T06:30:56Z</time>
      </trkpt>
      <trkpt lat="42.1575550" lon="-8.8035780">
        <ele>142.2</ele>
        <time>2021-05-20T06:30:57Z</time>
      </trkpt>
      <trkpt lat="42.1575620" lon="-8.8035730">
        <ele>142.2</ele>
        <time>2021-05-20T06:30:58Z</time>
      </trkpt>
      <trkpt lat="42.1575670" lon="-8.8035640">
        <ele>142.2</ele>
        <time>2021-05-20T06:30:59Z</time>
      </trkpt>
      <trkpt lat="42.1575770" lon="-8.8035580">
        <ele>142.2</ele>
        <time>2021-05-20T06:31:00Z</time>
      </trkpt>
      <trkpt lat="42.1575830" lon="-8.8035500">
        <ele>142.2</ele>
        <time>2021-05-20T06:31:01Z</time>
      </trkpt>
      <trkpt lat="42.1575920" lon="-8.8035380">
        <ele>142.2</ele>
        <time>2021-05-20T06:31:02Z</time>
      </trkpt>
      <trkpt lat="42.1576100" lon="-8.8035260">
        <ele>142.2</ele>
        <time>2021-05-20T06:31:03Z</time>
      </trkpt>
      <trkpt lat="42.1576160" lon="-8.8035160">
        <ele>142.2</ele>
        <time>2021-05-20T06:31:04Z</time>
      </trkpt>
      <trkpt lat="42.1576280" lon="-8.8035050">
        <ele>142.2</ele>
        <time>2021-05-20T06:31:05Z</time>
      </trkpt>
      <trkpt lat="42.1576330" lon="-8.8035000">
        <ele>142.3</ele>
        <time>2021-05-20T06:31:06Z</time>
      </trkpt>
      <trkpt lat="42.1576360" lon="-8.8034840">
        <ele>142.3</ele>
        <time>2021-05-20T06:31:07Z</time>
      </trkpt>
      <trkpt lat="42.1576480" lon="-8.8034770">
        <ele>142.3</ele>
        <time>2021-05-20T06:31:08Z</time>
      </trkpt>
      <trkpt lat="42.1576550" lon="-8.8034680">
        <ele>142.3</ele>
        <time>2021-05-20T06:31:09Z</time>
      </trkpt>
      <trkpt lat="42.1576620" lon="-8.8034590">
        <ele>142.3</ele>
        <time>2021-05-20T06:31:10Z</time>
      </trkpt>
      <trkpt lat="42.1576690" lon="-8.8034500">
        <ele>142.3</ele>
        <time>2021-05-20T06:31:11Z</time>
      </trkpt>
      <trkpt lat="42.1576860" lon="-8.8034370">
        <ele>142.3</ele>
        <time>2021-05-20T06:31:12Z</time>
      </trkpt>
      <trkpt lat="42.1576920" lon="-8.8034270">
        <ele>142.3</ele>
        <time>2021-05-20T06:31:13Z</time>
      </trkpt>
      <trkpt lat="42.1576980" lon="-8.8034180">
        <ele>142.3</ele>
        <time>2021-05-20T06:31:14Z</time>
      </trkpt>
      <trkpt lat="42.1577170" lon="-8.8034020">
        <ele>142.3</ele>
        <time>2021-05-20T06:31:15Z</time>
      </trkpt>
      <trkpt lat="42.1577240" lon="-8.8033990">
        <ele>142.3</ele>
        <time>2021-05-20T06:31:16Z</time>
      </trkpt>
      <trkpt lat="42.1577310" lon="-8.8033970">
        <ele>142.3</ele>
        <time>2021-05-20T06:31:17Z</time>
      </trkpt>
      <trkpt lat="42.1577490" lon="-8.8033900">
        <ele>142.3</ele>
        <time>2021-05-20T06:31:18Z</time>
      </trkpt>
      <trkpt lat="42.1577580" lon="-8.8033850">
        <ele>142.3</ele>
        <time>2021-05-20T06:31:19Z</time>
      </trkpt>
      <trkpt lat="42.1577670" lon="-8.8033790">
        <ele>142.3</ele>
        <time>2021-05-20T06:31:20Z</time>
      </trkpt>
      <trkpt lat="42.1577840" lon="-8.8033780">
        <ele>142.3</ele>
        <time>2021-05-20T06:31:21Z</time>
      </trkpt>
      <trkpt lat="42.1577950" lon="-8.8033780">
        <ele>142.3</ele>
        <time>2021-05-20T06:31:22Z</time>
      </trkpt>
      <trkpt lat="42.1578110" lon="-8.8033570">
        <ele>142.3</ele>
        <time>2021-05-20T06:31:23Z</time>
      </trkpt>
      <trkpt lat="42.1578190" lon="-8.8033520">
        <ele>142.3</ele>
        <time>2021-05-20T06:31:24Z</time>
      </trkpt>
      <trkpt lat="42.1578260" lon="-8.8033480">
        <ele>142.3</ele>
        <time>2021-05-20T06:31:25Z</time>
      </trkpt>
      <trkpt lat="42.1578450" lon="-8.8033300">
        <ele>142.3</ele>
        <time>2021-05-20T06:31:26Z</time>
      </trkpt>
      <trkpt lat="42.1578530" lon="-8.8033270">
        <ele>142.3</ele>
        <time>2021-05-20T06:31:27Z</time>
      </trkpt>
      <trkpt lat="42.1578610" lon="-8.8033250">
        <ele>142.3</ele>
        <time>2021-05-20T06:31:28Z</time>
      </trkpt>
      <trkpt lat="42.1578730" lon="-8.8033190">
        <ele>142.3</ele>
        <time>2021-05-20T06:31:29Z</time>
      </trkpt>
      <trkpt lat="42.1578880" lon="-8.8033170">
        <ele>142.3</ele>
        <time>2021-05-20T06:31:30Z</time>
      </trkpt>
      <trkpt lat="42.1579000" lon="-8.8033030">
        <ele>142.2</ele>
        <time>2021-05-20T06:31:31Z</time>
      </trkpt>
      <trkpt lat="42.1579060" lon="-8.8033000">
        <ele>142.2</ele>
        <time>2021-05-20T06:31:32Z</time>
      </trkpt>
      <trkpt lat="42.1579130" lon="-8.8032960">
        <ele>142.2</ele>
        <time>2021-05-20T06:31:33Z</time>
      </trkpt>
      <trkpt lat="42.1579190" lon="-8.8032920">
        <ele>142.2</ele>
        <time>2021-05-20T06:31:34Z</time>
      </trkpt>
      <trkpt lat="42.1579220" lon="-8.8032940">
        <ele>142.2</ele>
        <time>2021-05-20T06:31:35Z</time>
      </trkpt>
      <trkpt lat="42.1579150" lon="-8.8032910">
        <ele>142.2</ele>
        <time>2021-05-20T06:31:36Z</time>
      </trkpt>
      <trkpt lat="42.1579190" lon="-8.8032900">
        <ele>142.2</ele>
        <time>2021-05-20T06:31:37Z</time>
      </trkpt>
      <trkpt lat="42.1579230" lon="-8.8032920">
        <ele>142.2</ele>
        <time>2021-05-20T06:31:38Z</time>
      </trkpt>
      <trkpt lat="42.1579240" lon="-8.8032910">
        <ele>142.2</ele>
        <time>2021-05-20T06:31:39Z</time>
      </trkpt>
      <trkpt lat="42.1579260" lon="-8.8032870">
        <ele>142.2</ele>
        <time>2021-05-20T06:31:40Z</time>
      </trkpt>
      <trkpt lat="42.1579310" lon="-8.8032860">
        <ele>142.2</ele>
        <time>2021-05-20T06:31:41Z</time>
      </trkpt>
      <trkpt lat="42.1579290" lon="-8.8032830">
        <ele>142.2</ele>
        <time>2021-05-20T06:31:42Z</time>
      </trkpt>
      <trkpt lat="42.1579300" lon="-8.8032830">
        <ele>142.2</ele>
        <time>2021-05-20T06:31:43Z</time>
      </trkpt>
      <trkpt lat="42.1579300" lon="-8.8032840">
        <ele>142.2</ele>
        <time>2021-05-20T06:31:44Z</time>
      </trkpt>
      <trkpt lat="42.1579310" lon="-8.8032750">
        <ele>142.1</ele>
        <time>2021-05-20T06:31:45Z</time>
      </trkpt>
      <trkpt lat="42.1579310" lon="-8.8032720">
        <ele>142.1</ele>
        <time>2021-05-20T06:31:46Z</time>
      </trkpt>
      <trkpt lat="42.1579300" lon="-8.8032700">
        <ele>142.1</ele>
        <time>2021-05-20T06:31:47Z</time>
      </trkpt>
      <trkpt lat="42.1579300" lon="-8.8032700">
        <ele>142.1</ele>
        <time>2021-05-20T06:31:48Z</time>
      </trkpt>
      <trkpt lat="42.1579260" lon="-8.8032650">
        <ele>142.1</ele>
        <time>2021-05-20T06:31:49Z</time>
      </trkpt>
      <trkpt lat="42.1579270" lon="-8.8032630">
        <ele>142.1</ele>
        <time>2021-05-20T06:31:50Z</time>
      </trkpt>
      <trkpt lat="42.1579210" lon="-8.8032460">
        <ele>142.1</ele>
        <time>2021-05-20T06:31:51Z</time>
      </trkpt>
      <trkpt lat="42.1579200" lon="-8.8032410">
        <ele>142.1</ele>
        <time>2021-05-20T06:31:52Z</time>
      </trkpt>
      <trkpt lat="42.1579250" lon="-8.8032380">
        <ele>142.1</ele>
        <time>2021-05-20T06:31:53Z</time>
      </trkpt>
      <trkpt lat="42.1579380" lon="-8.8032340">
        <ele>142.1</ele>
        <time>2021-05-20T06:31:54Z</time>
      </trkpt>
      <trkpt lat="42.1579380" lon="-8.8032260">
        <ele>142.1</ele>
        <time>2021-05-20T06:31:55Z</time>
      </trkpt>
      <trkpt lat="42.1579370" lon="-8.8032320">
        <ele>142.1</ele>
        <time>2021-05-20T06:31:56Z</time>
      </trkpt>
      <trkpt lat="42.1579410" lon="-8.8032340">
        <ele>142.0</ele>
        <time>2021-05-20T06:31:57Z</time>
      </trkpt>
      <trkpt lat="42.1579530" lon="-8.8032260">
        <ele>142.0</ele>
        <time>2021-05-20T06:31:58Z</time>
      </trkpt>
      <trkpt lat="42.1579630" lon="-8.8032150">
        <ele>142.0</ele>
        <time>2021-05-20T06:31:59Z</time>
      </trkpt>
      <trkpt lat="42.1579700" lon="-8.8031990">
        <ele>142.0</ele>
        <time>2021-05-20T06:32:00Z</time>
      </trkpt>
      <trkpt lat="42.1579760" lon="-8.8032020">
        <ele>142.0</ele>
        <time>2021-05-20T06:32:01Z</time>
      </trkpt>
      <trkpt lat="42.1579880" lon="-8.8031970">
        <ele>142.0</ele>
        <time>2021-05-20T06:32:02Z</time>
      </trkpt>
      <trkpt lat="42.1579950" lon="-8.8031900">
        <ele>141.9</ele>
        <time>2021-05-20T06:32:03Z</time>
      </trkpt>
      <trkpt lat="42.1579990" lon="-8.8031710">
        <ele>141.9</ele>
        <time>2021-05-20T06:32:04Z</time>
      </trkpt>
      <trkpt lat="42.1580100" lon="-8.8031430">
        <ele>141.9</ele>
        <time>2021-05-20T06:32:05Z</time>
      </trkpt>
      <trkpt lat="42.1580130" lon="-8.8031330">
        <ele>141.9</ele>
        <time>2021-05-20T06:32:06Z</time>
      </trkpt>
      <trkpt lat="42.1580150" lon="-8.8031240">
        <ele>141.9</ele>
        <time>2021-05-20T06:32:07Z</time>
      </trkpt>
      <trkpt lat="42.1580360" lon="-8.8031090">
        <ele>141.8</ele>
        <time>2021-05-20T06:32:08Z</time>
      </trkpt>
      <trkpt lat="42.1580430" lon="-8.8031050">
        <ele>141.8</ele>
        <time>2021-05-20T06:32:09Z</time>
      </trkpt>
      <trkpt lat="42.1580500" lon="-8.8031020">
        <ele>141.8</ele>
        <time>2021-05-20T06:32:10Z</time>
      </trkpt>
      <trkpt lat="42.1580610" lon="-8.8031000">
        <ele>141.8</ele>
        <time>2021-05-20T06:32:11Z</time>
      </trkpt>
      <trkpt lat="42.1580710" lon="-8.8030940">
        <ele>141.7</ele>
        <time>2021-05-20T06:32:12Z</time>
      </trkpt>
      <trkpt lat="42.1580800" lon="-8.8030850">
        <ele>141.7</ele>
        <time>2021-05-20T06:32:13Z</time>
      </trkpt>
      <trkpt lat="42.1580850" lon="-8.8030770">
        <ele>141.7</ele>
        <time>2021-05-20T06:32:14Z</time>
      </trkpt>
      <trkpt lat="42.1580900" lon="-8.8030700">
        <ele>141.7</ele>
        <time>2021-05-20T06:32:15Z</time>
      </trkpt>
      <trkpt lat="42.1580980" lon="-8.8030640">
        <ele>141.7</ele>
        <time>2021-05-20T06:32:16Z</time>
      </trkpt>
      <trkpt lat="42.1581020" lon="-8.8030590">
        <ele>141.7</ele>
        <time>2021-05-20T06:32:17Z</time>
      </trkpt>
      <trkpt lat="42.1581070" lon="-8.8030510">
        <ele>141.6</ele>
        <time>2021-05-20T06:32:18Z</time>
      </trkpt>
      <trkpt lat="42.1581170" lon="-8.8030400">
        <ele>141.6</ele>
        <time>2021-05-20T06:32:19Z</time>
      </trkpt>
      <trkpt lat="42.1581230" lon="-8.8030240">
        <ele>141.6</ele>
        <time>2021-05-20T06:32:20Z</time>
      </trkpt>
      <trkpt lat="42.1581330" lon="-8.8030180">
        <ele>141.6</ele>
        <time>2021-05-20T06:32:21Z</time>
      </trkpt>
      <trkpt lat="42.1581370" lon="-8.8030070">
        <ele>141.6</ele>
        <time>2021-05-20T06:32:22Z</time>
      </trkpt>
      <trkpt lat="42.1581490" lon="-8.8030060">
        <ele>141.5</ele>
        <time>2021-05-20T06:32:23Z</time>
      </trkpt>
      <trkpt lat="42.1581590" lon="-8.8030020">
        <ele>141.5</ele>
        <time>2021-05-20T06:32:24Z</time>
      </trkpt>
      <trkpt lat="42.1581670" lon="-8.8030000">
        <ele>141.5</ele>
        <time>2021-05-20T06:32:25Z</time>
      </trkpt>
      <trkpt lat="42.1581760" lon="-8.8029940">
        <ele>141.5</ele>
        <time>2021-05-20T06:32:26Z</time>
      </trkpt>
      <trkpt lat="42.1581890" lon="-8.8029840">
        <ele>141.4</ele>
        <time>2021-05-20T06:32:27Z</time>
      </trkpt>
      <trkpt lat="42.1581950" lon="-8.8029790">
        <ele>141.4</ele>
        <time>2021-05-20T06:32:28Z</time>
      </trkpt>
      <trkpt lat="42.1582020" lon="-8.8029750">
        <ele>141.4</ele>
        <time>2021-05-20T06:32:29Z</time>
      </trkpt>
      <trkpt lat="42.1582080" lon="-8.8029700">
        <ele>141.4</ele>
        <time>2021-05-20T06:32:30Z</time>
      </trkpt>
      <trkpt lat="42.1582160" lon="-8.8029570">
        <ele>141.4</ele>
        <time>2021-05-20T06:32:31Z</time>
      </trkpt>
      <trkpt lat="42.1582260" lon="-8.8029440">
        <ele>141.3</ele>
        <time>2021-05-20T06:32:32Z</time>
      </trkpt>
      <trkpt lat="42.1582320" lon="-8.8029340">
        <ele>141.3</ele>
        <time>2021-05-20T06:32:33Z</time>
      </trkpt>
      <trkpt lat="42.1582390" lon="-8.8029270">
        <ele>141.3</ele>
        <time>2021-05-20T06:32:34Z</time>
      </trkpt>
      <trkpt lat="42.1582470" lon="-8.8029150">
        <ele>141.3</ele>
        <time>2021-05-20T06:32:35Z</time>
      </trkpt>
      <trkpt lat="42.1582540" lon="-8.8029100">
        <ele>141.3</ele>
        <time>2021-05-20T06:32:36Z</time>
      </trkpt>
      <trkpt lat="42.1582610" lon="-8.8029080">
        <ele>141.3</ele>
        <time>2021-05-20T06:32:37Z</time>
      </trkpt>
      <trkpt lat="42.1582660" lon="-8.8029010">
        <ele>141.3</ele>
        <time>2021-05-20T06:32:38Z</time>
      </trkpt>
      <trkpt lat="42.1582750" lon="-8.8028920">
        <ele>141.2</ele>
        <time>2021-05-20T06:32:39Z</time>
      </trkpt>
      <trkpt lat="42.1582820" lon="-8.8028840">
        <ele>141.2</ele>
        <time>2021-05-20T06:32:40Z</time>
      </trkpt>
      <trkpt lat="42.1582880" lon="-8.8028720">
        <ele>141.2</ele>
        <time>2021-05-20T06:32:41Z</time>
      </trkpt>
      <trkpt lat="42.1582950" lon="-8.8028590">
        <ele>141.2</ele>
        <time>2021-05-20T06:32:42Z</time>
      </trkpt>
      <trkpt lat="42.1583000" lon="-8.8028500">
        <ele>141.2</ele>
        <time>2021-05-20T06:32:43Z</time>
      </trkpt>
      <trkpt lat="42.1583040" lon="-8.8028360">
        <ele>141.1</ele>
        <time>2021-05-20T06:32:44Z</time>
      </trkpt>
      <trkpt lat="42.1583030" lon="-8.8028350">
        <ele>141.1</ele>
        <time>2021-05-20T06:32:45Z</time>
      </trkpt>
      <trkpt lat="42.1583070" lon="-8.8028240">
        <ele>141.1</ele>
        <time>2021-05-20T06:32:46Z</time>
      </trkpt>
      <trkpt lat="42.1583140" lon="-8.8028180">
        <ele>141.1</ele>
        <time>2021-05-20T06:32:47Z</time>
      </trkpt>
      <trkpt lat="42.1583200" lon="-8.8028050">
        <ele>141.1</ele>
        <time>2021-05-20T06:32:48Z</time>
      </trkpt>
      <trkpt lat="42.1583230" lon="-8.8027990">
        <ele>141.1</ele>
        <time>2021-05-20T06:32:49Z</time>
      </trkpt>
      <trkpt lat="42.1583260" lon="-8.8027930">
        <ele>141.1</ele>
        <time>2021-05-20T06:32:50Z</time>
      </trkpt>
      <trkpt lat="42.1583280" lon="-8.8027870">
        <ele>141.1</ele>
        <time>2021-05-20T06:32:51Z</time>
      </trkpt>
      <trkpt lat="42.1583310" lon="-8.8027810">
        <ele>141.1</ele>
        <time>2021-05-20T06:32:52Z</time>
      </trkpt>
      <trkpt lat="42.1583340" lon="-8.8027750">
        <ele>141.1</ele>
        <time>2021-05-20T06:32:53Z</time>
      </trkpt>
      <trkpt lat="42.1583410" lon="-8.8027600">
        <ele>141.0</ele>
        <time>2021-05-20T06:32:54Z</time>
      </trkpt>
      <trkpt lat="42.1583510" lon="-8.8027500">
        <ele>141.0</ele>
        <time>2021-05-20T06:32:55Z</time>
      </trkpt>
      <trkpt lat="42.1583600" lon="-8.8027420">
        <ele>141.0</ele>
        <time>2021-05-20T06:32:56Z</time>
      </trkpt>
      <trkpt lat="42.1583710" lon="-8.8027340">
        <ele>141.0</ele>
        <time>2021-05-20T06:32:57Z</time>
      </trkpt>
      <trkpt lat="42.1583770" lon="-8.8027240">
        <ele>141.0</ele>
        <time>2021-05-20T06:32:58Z</time>
      </trkpt>
      <trkpt lat="42.1583880" lon="-8.8027130">
        <ele>141.0</ele>
        <time>2021-05-20T06:32:59Z</time>
      </trkpt>
      <trkpt lat="42.1583980" lon="-8.8027010">
        <ele>140.9</ele>
        <time>2021-05-20T06:33:00Z</time>
      </trkpt>
      <trkpt lat="42.1584070" lon="-8.8026890">
        <ele>140.9</ele>
        <time>2021-05-20T06:33:01Z</time>
      </trkpt>
      <trkpt lat="42.1584080" lon="-8.8026780">
        <ele>140.9</ele>
        <time>2021-05-20T06:33:02Z</time>
      </trkpt>
      <trkpt lat="42.1584230" lon="-8.8026570">
        <ele>140.9</ele>
        <time>2021-05-20T06:33:03Z</time>
      </trkpt>
      <trkpt lat="42.1584300" lon="-8.8026500">
        <ele>140.9</ele>
        <time>2021-05-20T06:33:04Z</time>
      </trkpt>
      <trkpt lat="42.1584360" lon="-8.8026420">
        <ele>140.9</ele>
        <time>2021-05-20T06:33:05Z</time>
      </trkpt>
      <trkpt lat="42.1584430" lon="-8.8026310">
        <ele>140.8</ele>
        <time>2021-05-20T06:33:06Z</time>
      </trkpt>
      <trkpt lat="42.1584500" lon="-8.8026180">
        <ele>140.8</ele>
        <time>2021-05-20T06:33:07Z</time>
      </trkpt>
      <trkpt lat="42.1584510" lon="-8.8026020">
        <ele>140.8</ele>
        <time>2021-05-20T06:33:08Z</time>
      </trkpt>
      <trkpt lat="42.1584530" lon="-8.8025890">
        <ele>140.8</ele>
        <time>2021-05-20T06:33:09Z</time>
      </trkpt>
      <trkpt lat="42.1584610" lon="-8.8025790">
        <ele>140.8</ele>
        <time>2021-05-20T06:33:10Z</time>
      </trkpt>
      <trkpt lat="42.1584700" lon="-8.8025660">
        <ele>140.8</ele>
        <time>2021-05-20T06:33:11Z</time>
      </trkpt>
      <trkpt lat="42.1584770" lon="-8.8025530">
        <ele>140.7</ele>
        <time>2021-05-20T06:33:12Z</time>
      </trkpt>
      <trkpt lat="42.1584830" lon="-8.8025450">
        <ele>140.7</ele>
        <time>2021-05-20T06:33:13Z</time>
      </trkpt>
      <trkpt lat="42.1584930" lon="-8.8025340">
        <ele>140.7</ele>
        <time>2021-05-20T06:33:14Z</time>
      </trkpt>
      <trkpt lat="42.1585020" lon="-8.8025230">
        <ele>140.7</ele>
        <time>2021-05-20T06:33:15Z</time>
      </trkpt>
      <trkpt lat="42.1585090" lon="-8.8025140">
        <ele>140.7</ele>
        <time>2021-05-20T06:33:16Z</time>
      </trkpt>
      <trkpt lat="42.1585190" lon="-8.8025020">
        <ele>140.7</ele>
        <time>2021-05-20T06:33:17Z</time>
      </trkpt>
      <trkpt lat="42.1585350" lon="-8.8024830">
        <ele>140.6</ele>
        <time>2021-05-20T06:33:18Z</time>
      </trkpt>
      <trkpt lat="42.1585410" lon="-8.8024740">
        <ele>140.6</ele>
        <time>2021-05-20T06:33:19Z</time>
      </trkpt>
      <trkpt lat="42.1585480" lon="-8.8024660">
        <ele>140.6</ele>
        <time>2021-05-20T06:33:20Z</time>
      </trkpt>
      <trkpt lat="42.1585540" lon="-8.8024570">
        <ele>140.6</ele>
        <time>2021-05-20T06:33:21Z</time>
      </trkpt>
      <trkpt lat="42.1585570" lon="-8.8024450">
        <ele>140.6</ele>
        <time>2021-05-20T06:33:22Z</time>
      </trkpt>
      <trkpt lat="42.1585600" lon="-8.8024380">
        <ele>140.6</ele>
        <time>2021-05-20T06:33:23Z</time>
      </trkpt>
      <trkpt lat="42.1585610" lon="-8.8024280">
        <ele>140.6</ele>
        <time>2021-05-20T06:33:24Z</time>
      </trkpt>
      <trkpt lat="42.1585580" lon="-8.8024030">
        <ele>140.5</ele>
        <time>2021-05-20T06:33:25Z</time>
      </trkpt>
      <trkpt lat="42.1585660" lon="-8.8023900">
        <ele>140.5</ele>
        <time>2021-05-20T06:33:26Z</time>
      </trkpt>
      <trkpt lat="42.1585750" lon="-8.8023750">
        <ele>140.5</ele>
        <time>2021-05-20T06:33:27Z</time>
      </trkpt>
      <trkpt lat="42.1585860" lon="-8.8023560">
        <ele>140.5</ele>
        <time>2021-05-20T06:33:28Z</time>
      </trkpt>
      <trkpt lat="42.1585960" lon="-8.8023430">
        <ele>140.5</ele>
        <time>2021-05-20T06:33:29Z</time>
      </trkpt>
      <trkpt lat="42.1586040" lon="-8.8023360">
        <ele>140.5</ele>
        <time>2021-05-20T06:33:30Z</time>
      </trkpt>
      <trkpt lat="42.1586070" lon="-8.8023320">
        <ele>140.5</ele>
        <time>2021-05-20T06:33:31Z</time>
      </trkpt>
      <trkpt lat="42.1586120" lon="-8.8023120">
        <ele>140.5</ele>
        <time>2021-05-20T06:33:32Z</time>
      </trkpt>
      <trkpt lat="42.1586150" lon="-8.8023010">
        <ele>140.4</ele>
        <time>2021-05-20T06:33:33Z</time>
      </trkpt>
      <trkpt lat="42.1586190" lon="-8.8022910">
        <ele>140.4</ele>
        <time>2021-05-20T06:33:34Z</time>
      </trkpt>
      <trkpt lat="42.1586210" lon="-8.8022750">
        <ele>140.4</ele>
        <time>2021-05-20T06:33:35Z</time>
      </trkpt>
      <trkpt lat="42.1586280" lon="-8.8022660">
        <ele>140.4</ele>
        <time>2021-05-20T06:33:36Z</time>
      </trkpt>
      <trkpt lat="42.1586410" lon="-8.8022560">
        <ele>140.4</ele>
        <time>2021-05-20T06:33:37Z</time>
      </trkpt>
      <trkpt lat="42.1586470" lon="-8.8022300">
        <ele>140.4</ele>
        <time>2021-05-20T06:33:38Z</time>
      </trkpt>
      <trkpt lat="42.1586630" lon="-8.8022280">
        <ele>140.4</ele>
        <time>2021-05-20T06:33:39Z</time>
      </trkpt>
      <trkpt lat="42.1586810" lon="-8.8022290">
        <ele>140.3</ele>
        <time>2021-05-20T06:33:40Z</time>
      </trkpt>
      <trkpt lat="42.1586950" lon="-8.8022220">
        <ele>140.3</ele>
        <time>2021-05-20T06:33:41Z</time>
      </trkpt>
      <trkpt lat="42.1587120" lon="-8.8022010">
        <ele>140.3</ele>
        <time>2021-05-20T06:33:42Z</time>
      </trkpt>
      <trkpt lat="42.1587190" lon="-8.8021920">
        <ele>140.3</ele>
        <time>2021-05-20T06:33:43Z</time>
      </trkpt>
      <trkpt lat="42.1587260" lon="-8.8021830">
        <ele>140.3</ele>
        <time>2021-05-20T06:33:44Z</time>
      </trkpt>
      <trkpt lat="42.1587340" lon="-8.8021560">
        <ele>140.3</ele>
        <time>2021-05-20T06:33:45Z</time>
      </trkpt>
      <trkpt lat="42.1587440" lon="-8.8021520">
        <ele>140.3</ele>
        <time>2021-05-20T06:33:46Z</time>
      </trkpt>
      <trkpt lat="42.1587630" lon="-8.8021330">
        <ele>140.2</ele>
        <time>2021-05-20T06:33:47Z</time>
      </trkpt>
      <trkpt lat="42.1587660" lon="-8.8021230">
        <ele>140.2</ele>
        <time>2021-05-20T06:33:48Z</time>
      </trkpt>
      <trkpt lat="42.1587690" lon="-8.8021130">
        <ele>140.2</ele>
        <time>2021-05-20T06:33:49Z</time>
      </trkpt>
      <trkpt lat="42.1587790" lon="-8.8020740">
        <ele>140.2</ele>
        <time>2021-05-20T06:33:50Z</time>
      </trkpt>
      <trkpt lat="42.1587780" lon="-8.8020630">
        <ele>140.2</ele>
        <time>2021-05-20T06:33:51Z</time>
      </trkpt>
      <trkpt lat="42.1587880" lon="-8.8020520">
        <ele>140.2</ele>
        <time>2021-05-20T06:33:52Z</time>
      </trkpt>
      <trkpt lat="42.1588030" lon="-8.8020280">
        <ele>140.1</ele>
        <time>2021-05-20T06:33:53Z</time>
      </trkpt>
      <trkpt lat="42.1588100" lon="-8.8020260">
        <ele>140.1</ele>
        <time>2021-05-20T06:33:54Z</time>
      </trkpt>
      <trkpt lat="42.1588210" lon="-8.8020170">
        <ele>140.1</ele>
        <time>2021-05-20T06:33:55Z</time>
      </trkpt>
      <trkpt lat="42.1588350" lon="-8.8020100">
        <ele>140.1</ele>
        <time>2021-05-20T06:33:56Z</time>
      </trkpt>
      <trkpt lat="42.1588450" lon="-8.8019830">
        <ele>140.0</ele>
        <time>2021-05-20T06:33:57Z</time>
      </trkpt>
      <trkpt lat="42.1588470" lon="-8.8019740">
        <ele>140.0</ele>
        <time>2021-05-20T06:33:58Z</time>
      </trkpt>
      <trkpt lat="42.1588500" lon="-8.8019660">
        <ele>140.0</ele>
        <time>2021-05-20T06:33:59Z</time>
      </trkpt>
      <trkpt lat="42.1588750" lon="-8.8019540">
        <ele>140.0</ele>
        <time>2021-05-20T06:34:00Z</time>
      </trkpt>
      <trkpt lat="42.1588820" lon="-8.8019520">
        <ele>140.0</ele>
        <time>2021-05-20T06:34:01Z</time>
      </trkpt>
      <trkpt lat="42.1588900" lon="-8.8019490">
        <ele>139.9</ele>
        <time>2021-05-20T06:34:02Z</time>
      </trkpt>
      <trkpt lat="42.1588970" lon="-8.8019500">
        <ele>139.9</ele>
        <time>2021-05-20T06:34:03Z</time>
      </trkpt>
      <trkpt lat="42.1589080" lon="-8.8019360">
        <ele>139.9</ele>
        <time>2021-05-20T06:34:04Z</time>
      </trkpt>
      <trkpt lat="42.1589210" lon="-8.8019380">
        <ele>139.9</ele>
        <time>2021-05-20T06:34:05Z</time>
      </trkpt>
      <trkpt lat="42.1589320" lon="-8.8019230">
        <ele>139.9</ele>
        <time>2021-05-20T06:34:06Z</time>
      </trkpt>
      <trkpt lat="42.1589400" lon="-8.8019100">
        <ele>139.8</ele>
        <time>2021-05-20T06:34:07Z</time>
      </trkpt>
      <trkpt lat="42.1589450" lon="-8.8018800">
        <ele>139.8</ele>
        <time>2021-05-20T06:34:08Z</time>
      </trkpt>
      <trkpt lat="42.1589480" lon="-8.8018710">
        <ele>139.8</ele>
        <time>2021-05-20T06:34:09Z</time>
      </trkpt>
      <trkpt lat="42.1589510" lon="-8.8018610">
        <ele>139.8</ele>
        <time>2021-05-20T06:34:10Z</time>
      </trkpt>
      <trkpt lat="42.1589550" lon="-8.8018530">
        <ele>139.8</ele>
        <time>2021-05-20T06:34:11Z</time>
      </trkpt>
      <trkpt lat="42.1589610" lon="-8.8018380">
        <ele>139.8</ele>
        <time>2021-05-20T06:34:12Z</time>
      </trkpt>
      <trkpt lat="42.1589720" lon="-8.8018290">
        <ele>139.7</ele>
        <time>2021-05-20T06:34:13Z</time>
      </trkpt>
      <trkpt lat="42.1589810" lon="-8.8018100">
        <ele>139.7</ele>
        <time>2021-05-20T06:34:14Z</time>
      </trkpt>
      <trkpt lat="42.1589860" lon="-8.8018030">
        <ele>139.7</ele>
        <time>2021-05-20T06:34:15Z</time>
      </trkpt>
      <trkpt lat="42.1589910" lon="-8.8017970">
        <ele>139.7</ele>
        <time>2021-05-20T06:34:16Z</time>
      </trkpt>
      <trkpt lat="42.1589960" lon="-8.8017900">
        <ele>139.7</ele>
        <time>2021-05-20T06:34:17Z</time>
      </trkpt>
      <trkpt lat="42.1590110" lon="-8.8017710">
        <ele>139.7</ele>
        <time>2021-05-20T06:34:18Z</time>
      </trkpt>
      <trkpt lat="42.1590170" lon="-8.8017640">
        <ele>139.6</ele>
        <time>2021-05-20T06:34:19Z</time>
      </trkpt>
      <trkpt lat="42.1590240" lon="-8.8017560">
        <ele>139.6</ele>
        <time>2021-05-20T06:34:20Z</time>
      </trkpt>
      <trkpt lat="42.1590360" lon="-8.8017490">
        <ele>139.6</ele>
        <time>2021-05-20T06:34:21Z</time>
      </trkpt>
      <trkpt lat="42.1590440" lon="-8.8017360">
        <ele>139.5</ele>
        <time>2021-05-20T06:34:22Z</time>
      </trkpt>
      <trkpt lat="42.1590520" lon="-8.8017250">
        <ele>139.5</ele>
        <time>2021-05-20T06:34:23Z</time>
      </trkpt>
      <trkpt lat="42.1590620" lon="-8.8017040">
        <ele>139.4</ele>
        <time>2021-05-20T06:34:24Z</time>
      </trkpt>
      <trkpt lat="42.1590660" lon="-8.8016950">
        <ele>139.4</ele>
        <time>2021-05-20T06:34:25Z</time>
      </trkpt>
      <trkpt lat="42.1590690" lon="-8.8016860">
        <ele>139.4</ele>
        <time>2021-05-20T06:34:26Z</time>
      </trkpt>
      <trkpt lat="42.1590720" lon="-8.8016770">
        <ele>139.4</ele>
        <time>2021-05-20T06:34:27Z</time>
      </trkpt>
      <trkpt lat="42.1590810" lon="-8.8016660">
        <ele>139.3</ele>
        <time>2021-05-20T06:34:28Z</time>
      </trkpt>
      <trkpt lat="42.1590880" lon="-8.8016570">
        <ele>139.3</ele>
        <time>2021-05-20T06:34:29Z</time>
      </trkpt>
      <trkpt lat="42.1590940" lon="-8.8016430">
        <ele>139.3</ele>
        <time>2021-05-20T06:34:30Z</time>
      </trkpt>
      <trkpt lat="42.1591100" lon="-8.8016190">
        <ele>139.2</ele>
        <time>2021-05-20T06:34:31Z</time>
      </trkpt>
      <trkpt lat="42.1591150" lon="-8.8016110">
        <ele>139.2</ele>
        <time>2021-05-20T06:34:32Z</time>
      </trkpt>
      <trkpt lat="42.1591190" lon="-8.8016020">
        <ele>139.2</ele>
        <time>2021-05-20T06:34:33Z</time>
      </trkpt>
      <trkpt lat="42.1591310" lon="-8.8015830">
        <ele>139.1</ele>
        <time>2021-05-20T06:34:34Z</time>
      </trkpt>
      <trkpt lat="42.1591380" lon="-8.8015750">
        <ele>139.1</ele>
        <time>2021-05-20T06:34:35Z</time>
      </trkpt>
      <trkpt lat="42.1591530" lon="-8.8015580">
        <ele>139.1</ele>
        <time>2021-05-20T06:34:36Z</time>
      </trkpt>
      <trkpt lat="42.1591580" lon="-8.8015480">
        <ele>139.0</ele>
        <time>2021-05-20T06:34:37Z</time>
      </trkpt>
      <trkpt lat="42.1591620" lon="-8.8015380">
        <ele>139.0</ele>
        <time>2021-05-20T06:34:38Z</time>
      </trkpt>
      <trkpt lat="42.1591730" lon="-8.8015250">
        <ele>139.0</ele>
        <time>2021-05-20T06:34:39Z</time>
      </trkpt>
      <trkpt lat="42.1591820" lon="-8.8015160">
        <ele>138.9</ele>
        <time>2021-05-20T06:34:40Z</time>
      </trkpt>
      <trkpt lat="42.1591850" lon="-8.8015010">
        <ele>138.9</ele>
        <time>2021-05-20T06:34:41Z</time>
      </trkpt>
      <trkpt lat="42.1592010" lon="-8.8014840">
        <ele>138.8</ele>
        <time>2021-05-20T06:34:42Z</time>
      </trkpt>
      <trkpt lat="42.1592030" lon="-8.8014840">
        <ele>138.8</ele>
        <time>2021-05-20T06:34:43Z</time>
      </trkpt>
      <trkpt lat="42.1592100" lon="-8.8014690">
        <ele>138.8</ele>
        <time>2021-05-20T06:34:44Z</time>
      </trkpt>
      <trkpt lat="42.1592240" lon="-8.8014410">
        <ele>138.7</ele>
        <time>2021-05-20T06:34:45Z</time>
      </trkpt>
      <trkpt lat="42.1592300" lon="-8.8014320">
        <ele>138.7</ele>
        <time>2021-05-20T06:34:46Z</time>
      </trkpt>
      <trkpt lat="42.1592350" lon="-8.8014220">
        <ele>138.7</ele>
        <time>2021-05-20T06:34:47Z</time>
      </trkpt>
      <trkpt lat="42.1592470" lon="-8.8014040">
        <ele>138.6</ele>
        <time>2021-05-20T06:34:48Z</time>
      </trkpt>
      <trkpt lat="42.1592560" lon="-8.8013970">
        <ele>138.6</ele>
        <time>2021-05-20T06:34:49Z</time>
      </trkpt>
      <trkpt lat="42.1592630" lon="-8.8013870">
        <ele>138.5</ele>
        <time>2021-05-20T06:34:50Z</time>
      </trkpt>
      <trkpt lat="42.1592710" lon="-8.8013720">
        <ele>138.5</ele>
        <time>2021-05-20T06:34:51Z</time>
      </trkpt>
      <trkpt lat="42.1592820" lon="-8.8013700">
        <ele>138.5</ele>
        <time>2021-05-20T06:34:52Z</time>
      </trkpt>
      <trkpt lat="42.1592970" lon="-8.8013620">
        <ele>138.4</ele>
        <time>2021-05-20T06:34:53Z</time>
      </trkpt>
      <trkpt lat="42.1593060" lon="-8.8013520">
        <ele>138.4</ele>
        <time>2021-05-20T06:34:54Z</time>
      </trkpt>
      <trkpt lat="42.1593180" lon="-8.8013440">
        <ele>138.3</ele>
        <time>2021-05-20T06:34:55Z</time>
      </trkpt>
      <trkpt lat="42.1593320" lon="-8.8013370">
        <ele>138.3</ele>
        <time>2021-05-20T06:34:56Z</time>
      </trkpt>
      <trkpt lat="42.1593340" lon="-8.8013260">
        <ele>138.3</ele>
        <time>2021-05-20T06:34:57Z</time>
      </trkpt>
      <trkpt lat="42.1593450" lon="-8.8013130">
        <ele>138.2</ele>
        <time>2021-05-20T06:34:58Z</time>
      </trkpt>
      <trkpt lat="42.1593530" lon="-8.8013020">
        <ele>138.2</ele>
        <time>2021-05-20T06:34:59Z</time>
      </trkpt>
      <trkpt lat="42.1593640" lon="-8.8012790">
        <ele>138.1</ele>
        <time>2021-05-20T06:35:00Z</time>
      </trkpt>
      <trkpt lat="42.1593680" lon="-8.8012710">
        <ele>138.1</ele>
        <time>2021-05-20T06:35:01Z</time>
      </trkpt>
      <trkpt lat="42.1593720" lon="-8.8012620">
        <ele>138.1</ele>
        <time>2021-05-20T06:35:02Z</time>
      </trkpt>
      <trkpt lat="42.1593760" lon="-8.8012540">
        <ele>138.0</ele>
        <time>2021-05-20T06:35:03Z</time>
      </trkpt>
      <trkpt lat="42.1593870" lon="-8.8012440">
        <ele>138.0</ele>
        <time>2021-05-20T06:35:04Z</time>
      </trkpt>
      <trkpt lat="42.1593950" lon="-8.8012240">
        <ele>137.9</ele>
        <time>2021-05-20T06:35:05Z</time>
      </trkpt>
      <trkpt lat="42.1594090" lon="-8.8012230">
        <ele>137.9</ele>
        <time>2021-05-20T06:35:06Z</time>
      </trkpt>
      <trkpt lat="42.1594170" lon="-8.8012040">
        <ele>137.8</ele>
        <time>2021-05-20T06:35:07Z</time>
      </trkpt>
      <trkpt lat="42.1594190" lon="-8.8011910">
        <ele>137.8</ele>
        <time>2021-05-20T06:35:08Z</time>
      </trkpt>
      <trkpt lat="42.1594260" lon="-8.8011630">
        <ele>137.7</ele>
        <time>2021-05-20T06:35:09Z</time>
      </trkpt>
      <trkpt lat="42.1594300" lon="-8.8011510">
        <ele>137.7</ele>
        <time>2021-05-20T06:35:10Z</time>
      </trkpt>
      <trkpt lat="42.1594330" lon="-8.8011400">
        <ele>137.7</ele>
        <time>2021-05-20T06:35:11Z</time>
      </trkpt>
      <trkpt lat="42.1594440" lon="-8.8011230">
        <ele>137.6</ele>
        <time>2021-05-20T06:35:12Z</time>
      </trkpt>
      <trkpt lat="42.1594530" lon="-8.8011120">
        <ele>137.6</ele>
        <time>2021-05-20T06:35:13Z</time>
      </trkpt>
      <trkpt lat="42.1594580" lon="-8.8011040">
        <ele>137.6</ele>
        <time>2021-05-20T06:35:14Z</time>
      </trkpt>
      <trkpt lat="42.1594740" lon="-8.8010830">
        <ele>137.5</ele>
        <time>2021-05-20T06:35:15Z</time>
      </trkpt>
      <trkpt lat="42.1594840" lon="-8.8010690">
        <ele>137.5</ele>
        <time>2021-05-20T06:35:16Z</time>
      </trkpt>
      <trkpt lat="42.1594900" lon="-8.8010620">
        <ele>135.3</ele>
        <time>2021-05-20T06:35:17Z</time>
      </trkpt>
      <trkpt lat="42.1594910" lon="-8.8010560">
        <ele>135.5</ele>
        <time>2021-05-20T06:35:18Z</time>
      </trkpt>
      <trkpt lat="42.1594940" lon="-8.8010430">
        <ele>133.8</ele>
        <time>2021-05-20T06:35:19Z</time>
      </trkpt>
      <trkpt lat="42.1595060" lon="-8.8010210">
        <ele>133.8</ele>
        <time>2021-05-20T06:35:20Z</time>
      </trkpt>
      <trkpt lat="42.1595150" lon="-8.8010120">
        <ele>133.7</ele>
        <time>2021-05-20T06:35:21Z</time>
      </trkpt>
      <trkpt lat="42.1595230" lon="-8.8010040">
        <ele>133.7</ele>
        <time>2021-05-20T06:35:22Z</time>
      </trkpt>
      <trkpt lat="42.1595370" lon="-8.8009840">
        <ele>133.7</ele>
        <time>2021-05-20T06:35:23Z</time>
      </trkpt>
      <trkpt lat="42.1595460" lon="-8.8009770">
        <ele>133.7</ele>
        <time>2021-05-20T06:35:24Z</time>
      </trkpt>
      <trkpt lat="42.1595580" lon="-8.8009680">
        <ele>133.6</ele>
        <time>2021-05-20T06:35:25Z</time>
      </trkpt>
      <trkpt lat="42.1595630" lon="-8.8009650">
        <ele>133.6</ele>
        <time>2021-05-20T06:35:26Z</time>
      </trkpt>
      <trkpt lat="42.1595730" lon="-8.8009540">
        <ele>133.6</ele>
        <time>2021-05-20T06:35:27Z</time>
      </trkpt>
      <trkpt lat="42.1595920" lon="-8.8009430">
        <ele>133.6</ele>
        <time>2021-05-20T06:35:28Z</time>
      </trkpt>
      <trkpt lat="42.1595990" lon="-8.8009360">
        <ele>133.6</ele>
        <time>2021-05-20T06:35:29Z</time>
      </trkpt>
      <trkpt lat="42.1596070" lon="-8.8009290">
        <ele>133.5</ele>
        <time>2021-05-20T06:35:30Z</time>
      </trkpt>
      <trkpt lat="42.1596180" lon="-8.8009180">
        <ele>133.5</ele>
        <time>2021-05-20T06:35:31Z</time>
      </trkpt>
      <trkpt lat="42.1596320" lon="-8.8009120">
        <ele>133.5</ele>
        <time>2021-05-20T06:35:32Z</time>
      </trkpt>
      <trkpt lat="42.1596410" lon="-8.8009100">
        <ele>133.5</ele>
        <time>2021-05-20T06:35:33Z</time>
      </trkpt>
      <trkpt lat="42.1596590" lon="-8.8009110">
        <ele>133.5</ele>
        <time>2021-05-20T06:35:34Z</time>
      </trkpt>
      <trkpt lat="42.1596660" lon="-8.8008990">
        <ele>133.4</ele>
        <time>2021-05-20T06:35:35Z</time>
      </trkpt>
      <trkpt lat="42.1596780" lon="-8.8008930">
        <ele>133.4</ele>
        <time>2021-05-20T06:35:36Z</time>
      </trkpt>
      <trkpt lat="42.1596900" lon="-8.8008860">
        <ele>133.4</ele>
        <time>2021-05-20T06:35:37Z</time>
      </trkpt>
      <trkpt lat="42.1596950" lon="-8.8008810">
        <ele>133.4</ele>
        <time>2021-05-20T06:35:38Z</time>
      </trkpt>
      <trkpt lat="42.1597110" lon="-8.8008740">
        <ele>133.4</ele>
        <time>2021-05-20T06:35:39Z</time>
      </trkpt>
      <trkpt lat="42.1597190" lon="-8.8008660">
        <ele>133.4</ele>
        <time>2021-05-20T06:35:40Z</time>
      </trkpt>
      <trkpt lat="42.1597370" lon="-8.8008610">
        <ele>133.4</ele>
        <time>2021-05-20T06:35:41Z</time>
      </trkpt>
      <trkpt lat="42.1597480" lon="-8.8008510">
        <ele>133.3</ele>
        <time>2021-05-20T06:35:42Z</time>
      </trkpt>
      <trkpt lat="42.1597590" lon="-8.8008510">
        <ele>133.3</ele>
        <time>2021-05-20T06:35:43Z</time>
      </trkpt>
      <trkpt lat="42.1597750" lon="-8.8008390">
        <ele>133.3</ele>
        <time>2021-05-20T06:35:44Z</time>
      </trkpt>
      <trkpt lat="42.1597850" lon="-8.8008340">
        <ele>133.3</ele>
        <time>2021-05-20T06:35:45Z</time>
      </trkpt>
      <trkpt lat="42.1598060" lon="-8.8008190">
        <ele>133.3</ele>
        <time>2021-05-20T06:35:46Z</time>
      </trkpt>
      <trkpt lat="42.1598200" lon="-8.8008160">
        <ele>133.3</ele>
        <time>2021-05-20T06:35:47Z</time>
      </trkpt>
      <trkpt lat="42.1598350" lon="-8.8008160">
        <ele>133.3</ele>
        <time>2021-05-20T06:35:48Z</time>
      </trkpt>
      <trkpt lat="42.1598490" lon="-8.8008090">
        <ele>133.3</ele>
        <time>2021-05-20T06:35:49Z</time>
      </trkpt>
      <trkpt lat="42.1598570" lon="-8.8008060">
        <ele>133.3</ele>
        <time>2021-05-20T06:35:50Z</time>
      </trkpt>
      <trkpt lat="42.1598650" lon="-8.8008030">
        <ele>133.2</ele>
        <time>2021-05-20T06:35:51Z</time>
      </trkpt>
      <trkpt lat="42.1598730" lon="-8.8008000">
        <ele>133.2</ele>
        <time>2021-05-20T06:35:52Z</time>
      </trkpt>
      <trkpt lat="42.1598860" lon="-8.8007990">
        <ele>133.2</ele>
        <time>2021-05-20T06:35:53Z</time>
      </trkpt>
      <trkpt lat="42.1599020" lon="-8.8007990">
        <ele>133.2</ele>
        <time>2021-05-20T06:35:54Z</time>
      </trkpt>
      <trkpt lat="42.1599250" lon="-8.8007950">
        <ele>133.2</ele>
        <time>2021-05-20T06:35:55Z</time>
      </trkpt>
      <trkpt lat="42.1599330" lon="-8.8007930">
        <ele>133.2</ele>
        <time>2021-05-20T06:35:56Z</time>
      </trkpt>
      <trkpt lat="42.1599420" lon="-8.8007910">
        <ele>133.2</ele>
        <time>2021-05-20T06:35:57Z</time>
      </trkpt>
      <trkpt lat="42.1599620" lon="-8.8007830">
        <ele>133.2</ele>
        <time>2021-05-20T06:35:58Z</time>
      </trkpt>
      <trkpt lat="42.1599720" lon="-8.8007800">
        <ele>133.2</ele>
        <time>2021-05-20T06:35:59Z</time>
      </trkpt>
      <trkpt lat="42.1599810" lon="-8.8007760">
        <ele>133.2</ele>
        <time>2021-05-20T06:36:00Z</time>
      </trkpt>
      <trkpt lat="42.1599910" lon="-8.8007690">
        <ele>133.2</ele>
        <time>2021-05-20T06:36:01Z</time>
      </trkpt>
      <trkpt lat="42.1600040" lon="-8.8007650">
        <ele>133.2</ele>
        <time>2021-05-20T06:36:02Z</time>
      </trkpt>
      <trkpt lat="42.1600100" lon="-8.8007630">
        <ele>133.2</ele>
        <time>2021-05-20T06:36:03Z</time>
      </trkpt>
      <trkpt lat="42.1600260" lon="-8.8007540">
        <ele>133.2</ele>
        <time>2021-05-20T06:36:04Z</time>
      </trkpt>
      <trkpt lat="42.1600330" lon="-8.8007510">
        <ele>133.2</ele>
        <time>2021-05-20T06:36:05Z</time>
      </trkpt>
      <trkpt lat="42.1600450" lon="-8.8007530">
        <ele>133.2</ele>
        <time>2021-05-20T06:36:06Z</time>
      </trkpt>
      <trkpt lat="42.1600670" lon="-8.8007480">
        <ele>133.2</ele>
        <time>2021-05-20T06:36:07Z</time>
      </trkpt>
      <trkpt lat="42.1600750" lon="-8.8007480">
        <ele>133.2</ele>
        <time>2021-05-20T06:36:08Z</time>
      </trkpt>
      <trkpt lat="42.1600840" lon="-8.8007470">
        <ele>133.2</ele>
        <time>2021-05-20T06:36:09Z</time>
      </trkpt>
      <trkpt lat="42.1601070" lon="-8.8007390">
        <ele>133.2</ele>
        <time>2021-05-20T06:36:10Z</time>
      </trkpt>
      <trkpt lat="42.1601160" lon="-8.8007380">
        <ele>133.2</ele>
        <time>2021-05-20T06:36:11Z</time>
      </trkpt>
      <trkpt lat="42.1601260" lon="-8.8007360">
        <ele>133.2</ele>
        <time>2021-05-20T06:36:12Z</time>
      </trkpt>
      <trkpt lat="42.1601470" lon="-8.8007320">
        <ele>133.2</ele>
        <time>2021-05-20T06:36:13Z</time>
      </trkpt>
      <trkpt lat="42.1601560" lon="-8.8007330">
        <ele>133.2</ele>
        <time>2021-05-20T06:36:14Z</time>
      </trkpt>
      <trkpt lat="42.1601650" lon="-8.8007330">
        <ele>133.2</ele>
        <time>2021-05-20T06:36:15Z</time>
      </trkpt>
      <trkpt lat="42.1601770" lon="-8.8007300">
        <ele>133.2</ele>
        <time>2021-05-20T06:36:16Z</time>
      </trkpt>
      <trkpt lat="42.1601940" lon="-8.8007250">
        <ele>133.2</ele>
        <time>2021-05-20T06:36:17Z</time>
      </trkpt>
      <trkpt lat="42.1602040" lon="-8.8007230">
        <ele>133.2</ele>
        <time>2021-05-20T06:36:18Z</time>
      </trkpt>
      <trkpt lat="42.1602150" lon="-8.8007190">
        <ele>133.2</ele>
        <time>2021-05-20T06:36:19Z</time>
      </trkpt>
      <trkpt lat="42.1602150" lon="-8.8007250">
        <ele>133.2</ele>
        <time>2021-05-20T06:36:20Z</time>
      </trkpt>
      <trkpt lat="42.1602250" lon="-8.8007260">
        <ele>133.2</ele>
        <time>2021-05-20T06:36:21Z</time>
      </trkpt>
      <trkpt lat="42.1602440" lon="-8.8007430">
        <ele>133.2</ele>
        <time>2021-05-20T06:36:22Z</time>
      </trkpt>
      <trkpt lat="42.1602530" lon="-8.8007510">
        <ele>133.2</ele>
        <time>2021-05-20T06:36:23Z</time>
      </trkpt>
      <trkpt lat="42.1602630" lon="-8.8007590">
        <ele>133.2</ele>
        <time>2021-05-20T06:36:24Z</time>
      </trkpt>
      <trkpt lat="42.1602700" lon="-8.8007670">
        <ele>133.2</ele>
        <time>2021-05-20T06:36:25Z</time>
      </trkpt>
      <trkpt lat="42.1602710" lon="-8.8007730">
        <ele>133.2</ele>
        <time>2021-05-20T06:36:26Z</time>
      </trkpt>
      <trkpt lat="42.1602650" lon="-8.8007660">
        <ele>133.2</ele>
        <time>2021-05-20T06:36:27Z</time>
      </trkpt>
      <trkpt lat="42.1602670" lon="-8.8007740">
        <ele>133.2</ele>
        <time>2021-05-20T06:36:28Z</time>
      </trkpt>
      <trkpt lat="42.1602700" lon="-8.8007820">
        <ele>133.2</ele>
        <time>2021-05-20T06:36:29Z</time>
      </trkpt>
      <trkpt lat="42.1602780" lon="-8.8007970">
        <ele>133.2</ele>
        <time>2021-05-20T06:36:30Z</time>
      </trkpt>
      <trkpt lat="42.1602800" lon="-8.8008030">
        <ele>133.2</ele>
        <time>2021-05-20T06:36:31Z</time>
      </trkpt>
      <trkpt lat="42.1602770" lon="-8.8007850">
        <ele>133.2</ele>
        <time>2021-05-20T06:36:32Z</time>
      </trkpt>
      <trkpt lat="42.1602630" lon="-8.8007760">
        <ele>133.2</ele>
        <time>2021-05-20T06:36:33Z</time>
      </trkpt>
      <trkpt lat="42.1602550" lon="-8.8007610">
        <ele>133.2</ele>
        <time>2021-05-20T06:36:34Z</time>
      </trkpt>
      <trkpt lat="42.1602470" lon="-8.8007480">
        <ele>133.2</ele>
        <time>2021-05-20T06:36:35Z</time>
      </trkpt>
      <trkpt lat="42.1602430" lon="-8.8007410">
        <ele>133.2</ele>
        <time>2021-05-20T06:36:36Z</time>
      </trkpt>
      <trkpt lat="42.1602380" lon="-8.8007340">
        <ele>133.2</ele>
        <time>2021-05-20T06:36:37Z</time>
      </trkpt>
      <trkpt lat="42.1602340" lon="-8.8007270">
        <ele>133.2</ele>
        <time>2021-05-20T06:36:38Z</time>
      </trkpt>
      <trkpt lat="42.1602300" lon="-8.8007200">
        <ele>133.2</ele>
        <time>2021-05-20T06:36:39Z</time>
      </trkpt>
      <trkpt lat="42.1602240" lon="-8.8007130">
        <ele>133.2</ele>
        <time>2021-05-20T06:36:40Z</time>
      </trkpt>
      <trkpt lat="42.1602280" lon="-8.8007040">
        <ele>133.2</ele>
        <time>2021-05-20T06:36:41Z</time>
      </trkpt>
      <trkpt lat="42.1602290" lon="-8.8006960">
        <ele>133.2</ele>
        <time>2021-05-20T06:36:42Z</time>
      </trkpt>
      <trkpt lat="42.1602250" lon="-8.8006940">
        <ele>133.2</ele>
        <time>2021-05-20T06:36:43Z</time>
      </trkpt>
      <trkpt lat="42.1602270" lon="-8.8007040">
        <ele>133.2</ele>
        <time>2021-05-20T06:36:44Z</time>
      </trkpt>
      <trkpt lat="42.1602390" lon="-8.8007320">
        <ele>133.2</ele>
        <time>2021-05-20T06:36:45Z</time>
      </trkpt>
      <trkpt lat="42.1602430" lon="-8.8007400">
        <ele>133.2</ele>
        <time>2021-05-20T06:36:46Z</time>
      </trkpt>
      <trkpt lat="42.1602440" lon="-8.8007400">
        <ele>133.2</ele>
        <time>2021-05-20T06:36:47Z</time>
      </trkpt>
      <trkpt lat="42.1602390" lon="-8.8007270">
        <ele>133.2</ele>
        <time>2021-05-20T06:36:48Z</time>
      </trkpt>
      <trkpt lat="42.1602330" lon="-8.8007190">
        <ele>133.2</ele>
        <time>2021-05-20T06:36:49Z</time>
      </trkpt>
      <trkpt lat="42.1602280" lon="-8.8007010">
        <ele>133.2</ele>
        <time>2021-05-20T06:36:50Z</time>
      </trkpt>
      <trkpt lat="42.1602270" lon="-8.8006940">
        <ele>133.2</ele>
        <time>2021-05-20T06:36:51Z</time>
      </trkpt>
      <trkpt lat="42.1602220" lon="-8.8006900">
        <ele>133.2</ele>
        <time>2021-05-20T06:36:52Z</time>
      </trkpt>
      <trkpt lat="42.1602160" lon="-8.8006860">
        <ele>133.2</ele>
        <time>2021-05-20T06:36:53Z</time>
      </trkpt>
      <trkpt lat="42.1602080" lon="-8.8006770">
        <ele>133.2</ele>
        <time>2021-05-20T06:36:54Z</time>
      </trkpt>
      <trkpt lat="42.1602000" lon="-8.8006690">
        <ele>133.2</ele>
        <time>2021-05-20T06:36:55Z</time>
      </trkpt>
      <trkpt lat="42.1601960" lon="-8.8006530">
        <ele>133.2</ele>
        <time>2021-05-20T06:36:56Z</time>
      </trkpt>
      <trkpt lat="42.1602020" lon="-8.8006420">
        <ele>133.2</ele>
        <time>2021-05-20T06:36:57Z</time>
      </trkpt>
      <trkpt lat="42.1602010" lon="-8.8006440">
        <ele>133.2</ele>
        <time>2021-05-20T06:36:58Z</time>
      </trkpt>
      <trkpt lat="42.1602050" lon="-8.8006480">
        <ele>133.2</ele>
        <time>2021-05-20T06:36:59Z</time>
      </trkpt>
      <trkpt lat="42.1602070" lon="-8.8006490">
        <ele>133.2</ele>
        <time>2021-05-20T06:37:00Z</time>
      </trkpt>
      <trkpt lat="42.1602070" lon="-8.8006550">
        <ele>133.2</ele>
        <time>2021-05-20T06:37:01Z</time>
      </trkpt>
      <trkpt lat="42.1602090" lon="-8.8006540">
        <ele>133.2</ele>
        <time>2021-05-20T06:37:02Z</time>
      </trkpt>
      <trkpt lat="42.1602100" lon="-8.8006500">
        <ele>133.2</ele>
        <time>2021-05-20T06:37:03Z</time>
      </trkpt>
      <trkpt lat="42.1602080" lon="-8.8006590">
        <ele>133.2</ele>
        <time>2021-05-20T06:37:04Z</time>
      </trkpt>
      <trkpt lat="42.1602150" lon="-8.8006750">
        <ele>133.2</ele>
        <time>2021-05-20T06:37:05Z</time>
      </trkpt>
      <trkpt lat="42.1602110" lon="-8.8006610">
        <ele>133.2</ele>
        <time>2021-05-20T06:37:06Z</time>
      </trkpt>
      <trkpt lat="42.1602060" lon="-8.8006530">
        <ele>133.2</ele>
        <time>2021-05-20T06:37:07Z</time>
      </trkpt>
      <trkpt lat="42.1602040" lon="-8.8006470">
        <ele>133.2</ele>
        <time>2021-05-20T06:37:08Z</time>
      </trkpt>
      <trkpt lat="42.1602030" lon="-8.8006510">
        <ele>133.2</ele>
        <time>2021-05-20T06:37:09Z</time>
      </trkpt>
      <trkpt lat="42.1601960" lon="-8.8006480">
        <ele>133.2</ele>
        <time>2021-05-20T06:37:10Z</time>
      </trkpt>
      <trkpt lat="42.1601960" lon="-8.8006420">
        <ele>133.2</ele>
        <time>2021-05-20T06:37:11Z</time>
      </trkpt>
      <trkpt lat="42.1601940" lon="-8.8006300">
        <ele>133.2</ele>
        <time>2021-05-20T06:37:12Z</time>
      </trkpt>
      <trkpt lat="42.1601950" lon="-8.8006330">
        <ele>133.2</ele>
        <time>2021-05-20T06:37:13Z</time>
      </trkpt>
      <trkpt lat="42.1602020" lon="-8.8006390">
        <ele>133.2</ele>
        <time>2021-05-20T06:37:14Z</time>
      </trkpt>
      <trkpt lat="42.1602010" lon="-8.8006430">
        <ele>133.2</ele>
        <time>2021-05-20T06:37:15Z</time>
      </trkpt>
      <trkpt lat="42.1602040" lon="-8.8006520">
        <ele>133.2</ele>
        <time>2021-05-20T06:37:16Z</time>
      </trkpt>
      <trkpt lat="42.1602040" lon="-8.8006520">
        <ele>133.2</ele>
        <time>2021-05-20T06:37:17Z</time>
      </trkpt>
      <trkpt lat="42.1602210" lon="-8.8006860">
        <ele>133.2</ele>
        <time>2021-05-20T06:37:18Z</time>
      </trkpt>
      <trkpt lat="42.1602250" lon="-8.8006940">
        <ele>133.2</ele>
        <time>2021-05-20T06:37:19Z</time>
      </trkpt>
      <trkpt lat="42.1602290" lon="-8.8007040">
        <ele>133.2</ele>
        <time>2021-05-20T06:37:20Z</time>
      </trkpt>
      <trkpt lat="42.1602270" lon="-8.8007150">
        <ele>133.2</ele>
        <time>2021-05-20T06:37:21Z</time>
      </trkpt>
      <trkpt lat="42.1602270" lon="-8.8007150">
        <ele>133.2</ele>
        <time>2021-05-20T06:37:22Z</time>
      </trkpt>
      <trkpt lat="42.1602270" lon="-8.8007150">
        <ele>133.2</ele>
        <time>2021-05-20T06:37:23Z</time>
      </trkpt>
      <trkpt lat="42.1602270" lon="-8.8007150">
        <ele>133.2</ele>
        <time>2021-05-20T06:37:24Z</time>
      </trkpt>
      <trkpt lat="42.1602270" lon="-8.8007150">
        <ele>133.2</ele>
        <time>2021-05-20T06:37:25Z</time>
      </trkpt>
      <trkpt lat="42.1602270" lon="-8.8007150">
        <ele>133.2</ele>
        <time>2021-05-20T06:37:26Z</time>
      </trkpt>
      <trkpt lat="42.1602270" lon="-8.8007150">
        <ele>133.2</ele>
        <time>2021-05-20T06:37:27Z</time>
      </trkpt>
      <trkpt lat="42.1602270" lon="-8.8007150">
        <ele>133.2</ele>
        <time>2021-05-20T06:37:28Z</time>
      </trkpt>
      <trkpt lat="42.1602270" lon="-8.8007150">
        <ele>133.2</ele>
        <time>2021-05-20T06:37:29Z</time>
      </trkpt>
      <trkpt lat="42.1602060" lon="-8.8007090">
        <ele>133.2</ele>
        <time>2021-05-20T06:37:30Z</time>
      </trkpt>
      <trkpt lat="42.1602050" lon="-8.8007090">
        <ele>133.2</ele>
        <time>2021-05-20T06:37:31Z</time>
      </trkpt>
      <trkpt lat="42.1602070" lon="-8.8007050">
        <ele>133.2</ele>
        <time>2021-05-20T06:37:32Z</time>
      </trkpt>
      <trkpt lat="42.1602020" lon="-8.8006970">
        <ele>133.2</ele>
        <time>2021-05-20T06:37:33Z</time>
      </trkpt>
      <trkpt lat="42.1602010" lon="-8.8006850">
        <ele>133.2</ele>
        <time>2021-05-20T06:37:34Z</time>
      </trkpt>
      <trkpt lat="42.1602100" lon="-8.8006930">
        <ele>133.2</ele>
        <time>2021-05-20T06:37:35Z</time>
      </trkpt>
      <trkpt lat="42.1602110" lon="-8.8006760">
        <ele>133.2</ele>
        <time>2021-05-20T06:37:36Z</time>
      </trkpt>
      <trkpt lat="42.1602130" lon="-8.8006430">
        <ele>133.2</ele>
        <time>2021-05-20T06:37:37Z</time>
      </trkpt>
      <trkpt lat="42.1602160" lon="-8.8006340">
        <ele>133.2</ele>
        <time>2021-05-20T06:37:38Z</time>
      </trkpt>
      <trkpt lat="42.1602170" lon="-8.8006300">
        <ele>133.2</ele>
        <time>2021-05-20T06:37:39Z</time>
      </trkpt>
      <trkpt lat="42.1602200" lon="-8.8006320">
        <ele>133.2</ele>
        <time>2021-05-20T06:37:40Z</time>
      </trkpt>
      <trkpt lat="42.1602220" lon="-8.8006360">
        <ele>133.2</ele>
        <time>2021-05-20T06:37:41Z</time>
      </trkpt>
      <trkpt lat="42.1602240" lon="-8.8006380">
        <ele>133.2</ele>
        <time>2021-05-20T06:37:42Z</time>
      </trkpt>
      <trkpt lat="42.1602250" lon="-8.8006300">
        <ele>133.2</ele>
        <time>2021-05-20T06:37:43Z</time>
      </trkpt>
      <trkpt lat="42.1602280" lon="-8.8006270">
        <ele>133.2</ele>
        <time>2021-05-20T06:37:44Z</time>
      </trkpt>
      <trkpt lat="42.1602320" lon="-8.8006210">
        <ele>133.2</ele>
        <time>2021-05-20T06:37:45Z</time>
      </trkpt>
      <trkpt lat="42.1602370" lon="-8.8006190">
        <ele>133.2</ele>
        <time>2021-05-20T06:37:46Z</time>
      </trkpt>
      <trkpt lat="42.1602460" lon="-8.8006200">
        <ele>133.2</ele>
        <time>2021-05-20T06:37:47Z</time>
      </trkpt>
      <trkpt lat="42.1602510" lon="-8.8006190">
        <ele>133.2</ele>
        <time>2021-05-20T06:37:48Z</time>
      </trkpt>
      <trkpt lat="42.1602490" lon="-8.8006100">
        <ele>133.2</ele>
        <time>2021-05-20T06:37:49Z</time>
      </trkpt>
      <trkpt lat="42.1602470" lon="-8.8006070">
        <ele>133.2</ele>
        <time>2021-05-20T06:37:50Z</time>
      </trkpt>
      <trkpt lat="42.1602470" lon="-8.8005970">
        <ele>133.2</ele>
        <time>2021-05-20T06:37:51Z</time>
      </trkpt>
      <trkpt lat="42.1602470" lon="-8.8005940">
        <ele>133.2</ele>
        <time>2021-05-20T06:37:52Z</time>
      </trkpt>
      <trkpt lat="42.1602450" lon="-8.8005910">
        <ele>133.2</ele>
        <time>2021-05-20T06:37:53Z</time>
      </trkpt>
      <trkpt lat="42.1602470" lon="-8.8005940">
        <ele>133.2</ele>
        <time>2021-05-20T06:37:54Z</time>
      </trkpt>
      <trkpt lat="42.1602460" lon="-8.8005900">
        <ele>133.2</ele>
        <time>2021-05-20T06:37:55Z</time>
      </trkpt>
      <trkpt lat="42.1602430" lon="-8.8005910">
        <ele>133.2</ele>
        <time>2021-05-20T06:37:56Z</time>
      </trkpt>
      <trkpt lat="42.1602440" lon="-8.8005970">
        <ele>133.2</ele>
        <time>2021-05-20T06:37:57Z</time>
      </trkpt>
      <trkpt lat="42.1602530" lon="-8.8006020">
        <ele>133.2</ele>
        <time>2021-05-20T06:37:58Z</time>
      </trkpt>
      <trkpt lat="42.1602550" lon="-8.8006140">
        <ele>133.2</ele>
        <time>2021-05-20T06:37:59Z</time>
      </trkpt>
      <trkpt lat="42.1602550" lon="-8.8006080">
        <ele>133.2</ele>
        <time>2021-05-20T06:38:00Z</time>
      </trkpt>
      <trkpt lat="42.1602490" lon="-8.8006140">
        <ele>133.2</ele>
        <time>2021-05-20T06:38:01Z</time>
      </trkpt>
      <trkpt lat="42.1602370" lon="-8.8006180">
        <ele>133.2</ele>
        <time>2021-05-20T06:38:02Z</time>
      </trkpt>
      <trkpt lat="42.1602390" lon="-8.8006170">
        <ele>133.2</ele>
        <time>2021-05-20T06:38:03Z</time>
      </trkpt>
      <trkpt lat="42.1602330" lon="-8.8006070">
        <ele>133.2</ele>
        <time>2021-05-20T06:38:04Z</time>
      </trkpt>
      <trkpt lat="42.1602500" lon="-8.8006230">
        <ele>133.2</ele>
        <time>2021-05-20T06:38:05Z</time>
      </trkpt>
      <trkpt lat="42.1602600" lon="-8.8006370">
        <ele>133.2</ele>
        <time>2021-05-20T06:38:06Z</time>
      </trkpt>
      <trkpt lat="42.1602590" lon="-8.8006460">
        <ele>133.2</ele>
        <time>2021-05-20T06:38:07Z</time>
      </trkpt>
      <trkpt lat="42.1602580" lon="-8.8006530">
        <ele>133.2</ele>
        <time>2021-05-20T06:38:08Z</time>
      </trkpt>
      <trkpt lat="42.1602330" lon="-8.8006500">
        <ele>133.2</ele>
        <time>2021-05-20T06:38:09Z</time>
      </trkpt>
      <trkpt lat="42.1602430" lon="-8.8006560">
        <ele>133.2</ele>
        <time>2021-05-20T06:38:10Z</time>
      </trkpt>
      <trkpt lat="42.1602400" lon="-8.8006620">
        <ele>133.2</ele>
        <time>2021-05-20T06:38:11Z</time>
      </trkpt>
      <trkpt lat="42.1602390" lon="-8.8006600">
        <ele>133.2</ele>
        <time>2021-05-20T06:38:12Z</time>
      </trkpt>
      <trkpt lat="42.1602620" lon="-8.8006930">
        <ele>133.2</ele>
        <time>2021-05-20T06:38:13Z</time>
      </trkpt>
      <trkpt lat="42.1602600" lon="-8.8006840">
        <ele>133.2</ele>
        <time>2021-05-20T06:38:14Z</time>
      </trkpt>
      <trkpt lat="42.1602560" lon="-8.8006870">
        <ele>133.2</ele>
        <time>2021-05-20T06:38:15Z</time>
      </trkpt>
      <trkpt lat="42.1602570" lon="-8.8006950">
        <ele>133.2</ele>
        <time>2021-05-20T06:38:16Z</time>
      </trkpt>
      <trkpt lat="42.1602570" lon="-8.8006920">
        <ele>133.2</ele>
        <time>2021-05-20T06:38:17Z</time>
      </trkpt>
      <trkpt lat="42.1602550" lon="-8.8006830">
        <ele>133.2</ele>
        <time>2021-05-20T06:38:18Z</time>
      </trkpt>
      <trkpt lat="42.1602530" lon="-8.8006700">
        <ele>133.2</ele>
        <time>2021-05-20T06:38:19Z</time>
      </trkpt>
      <trkpt lat="42.1602470" lon="-8.8006530">
        <ele>133.2</ele>
        <time>2021-05-20T06:38:20Z</time>
      </trkpt>
      <trkpt lat="42.1602430" lon="-8.8006400">
        <ele>133.2</ele>
        <time>2021-05-20T06:38:21Z</time>
      </trkpt>
      <trkpt lat="42.1602360" lon="-8.8006260">
        <ele>133.2</ele>
        <time>2021-05-20T06:38:22Z</time>
      </trkpt>
      <trkpt lat="42.1602320" lon="-8.8006190">
        <ele>133.2</ele>
        <time>2021-05-20T06:38:23Z</time>
      </trkpt>
      <trkpt lat="42.1602090" lon="-8.8006230">
        <ele>133.2</ele>
        <time>2021-05-20T06:38:24Z</time>
      </trkpt>
      <trkpt lat="42.1601860" lon="-8.8006270">
        <ele>133.2</ele>
        <time>2021-05-20T06:38:25Z</time>
      </trkpt>
      <trkpt lat="42.1601780" lon="-8.8006240">
        <ele>133.2</ele>
        <time>2021-05-20T06:38:26Z</time>
      </trkpt>
      <trkpt lat="42.1601790" lon="-8.8006160">
        <ele>133.2</ele>
        <time>2021-05-20T06:38:27Z</time>
      </trkpt>
      <trkpt lat="42.1601880" lon="-8.8006480">
        <ele>133.2</ele>
        <time>2021-05-20T06:38:28Z</time>
      </trkpt>
      <trkpt lat="42.1601900" lon="-8.8006720">
        <ele>133.2</ele>
        <time>2021-05-20T06:38:29Z</time>
      </trkpt>
      <trkpt lat="42.1601920" lon="-8.8006910">
        <ele>133.2</ele>
        <time>2021-05-20T06:38:30Z</time>
      </trkpt>
      <trkpt lat="42.1601950" lon="-8.8007070">
        <ele>133.2</ele>
        <time>2021-05-20T06:38:31Z</time>
      </trkpt>
      <trkpt lat="42.1601990" lon="-8.8007230">
        <ele>133.2</ele>
        <time>2021-05-20T06:38:32Z</time>
      </trkpt>
      <trkpt lat="42.1602020" lon="-8.8007400">
        <ele>133.2</ele>
        <time>2021-05-20T06:38:33Z</time>
      </trkpt>
      <trkpt lat="42.1602060" lon="-8.8007560">
        <ele>133.2</ele>
        <time>2021-05-20T06:38:34Z</time>
      </trkpt>
      <trkpt lat="42.1602090" lon="-8.8007720">
        <ele>133.2</ele>
        <time>2021-05-20T06:38:35Z</time>
      </trkpt>
      <trkpt lat="42.1602210" lon="-8.8008150">
        <ele>133.2</ele>
        <time>2021-05-20T06:38:36Z</time>
      </trkpt>
      <trkpt lat="42.1602280" lon="-8.8008400">
        <ele>133.2</ele>
        <time>2021-05-20T06:38:37Z</time>
      </trkpt>
      <trkpt lat="42.1602340" lon="-8.8008650">
        <ele>133.2</ele>
        <time>2021-05-20T06:38:38Z</time>
      </trkpt>
      <trkpt lat="42.1602410" lon="-8.8008900">
        <ele>133.2</ele>
        <time>2021-05-20T06:38:39Z</time>
      </trkpt>
      <trkpt lat="42.1602320" lon="-8.8008880">
        <ele>133.2</ele>
        <time>2021-05-20T06:38:40Z</time>
      </trkpt>
      <trkpt lat="42.1602240" lon="-8.8008890">
        <ele>133.2</ele>
        <time>2021-05-20T06:38:41Z</time>
      </trkpt>
      <trkpt lat="42.1602160" lon="-8.8008890">
        <ele>133.2</ele>
        <time>2021-05-20T06:38:42Z</time>
      </trkpt>
      <trkpt lat="42.1602070" lon="-8.8008890">
        <ele>133.2</ele>
        <time>2021-05-20T06:38:43Z</time>
      </trkpt>
      <trkpt lat="42.1601990" lon="-8.8008900">
        <ele>133.2</ele>
        <time>2021-05-20T06:38:44Z</time>
      </trkpt>
      <trkpt lat="42.1601910" lon="-8.8008900">
        <ele>133.2</ele>
        <time>2021-05-20T06:38:45Z</time>
      </trkpt>
      <trkpt lat="42.1602330" lon="-8.8010390">
        <ele>133.1</ele>
        <time>2021-05-20T06:38:46Z</time>
      </trkpt>
      <trkpt lat="42.1602320" lon="-8.8009910">
        <ele>133.1</ele>
        <time>2021-05-20T06:38:47Z</time>
      </trkpt>
      <trkpt lat="42.1602300" lon="-8.8009440">
        <ele>133.1</ele>
        <time>2021-05-20T06:38:48Z</time>
      </trkpt>
      <trkpt lat="42.1602290" lon="-8.8008960">
        <ele>133.1</ele>
        <time>2021-05-20T06:38:49Z</time>
      </trkpt>
      <trkpt lat="42.1602270" lon="-8.8008480">
        <ele>133.1</ele>
        <time>2021-05-20T06:38:50Z</time>
      </trkpt>
      <trkpt lat="42.1602390" lon="-8.8008500">
        <ele>133.1</ele>
        <time>2021-05-20T06:38:51Z</time>
      </trkpt>
      <trkpt lat="42.1602490" lon="-8.8008530">
        <ele>133.1</ele>
        <time>2021-05-20T06:38:52Z</time>
      </trkpt>
      <trkpt lat="42.1602590" lon="-8.8008570">
        <ele>133.1</ele>
        <time>2021-05-20T06:38:53Z</time>
      </trkpt>
      <trkpt lat="42.1602690" lon="-8.8008600">
        <ele>133.1</ele>
        <time>2021-05-20T06:38:54Z</time>
      </trkpt>
      <trkpt lat="42.1602620" lon="-8.8008530">
        <ele>133.1</ele>
        <time>2021-05-20T06:38:55Z</time>
      </trkpt>
      <trkpt lat="42.1602470" lon="-8.8008290">
        <ele>133.1</ele>
        <time>2021-05-20T06:38:56Z</time>
      </trkpt>
      <trkpt lat="42.1602150" lon="-8.8008090">
        <ele>133.1</ele>
        <time>2021-05-20T06:38:57Z</time>
      </trkpt>
      <trkpt lat="42.1602020" lon="-8.8007920">
        <ele>133.1</ele>
        <time>2021-05-20T06:38:58Z</time>
      </trkpt>
      <trkpt lat="42.1602250" lon="-8.8007880">
        <ele>133.1</ele>
        <time>2021-05-20T06:38:59Z</time>
      </trkpt>
      <trkpt lat="42.1602300" lon="-8.8007780">
        <ele>133.1</ele>
        <time>2021-05-20T06:39:00Z</time>
      </trkpt>
      <trkpt lat="42.1602390" lon="-8.8007470">
        <ele>133.1</ele>
        <time>2021-05-20T06:39:01Z</time>
      </trkpt>
      <trkpt lat="42.1602380" lon="-8.8007230">
        <ele>133.1</ele>
        <time>2021-05-20T06:39:02Z</time>
      </trkpt>
      <trkpt lat="42.1602370" lon="-8.8006980">
        <ele>133.1</ele>
        <time>2021-05-20T06:39:03Z</time>
      </trkpt>
      <trkpt lat="42.1602340" lon="-8.8006500">
        <ele>133.1</ele>
        <time>2021-05-20T06:39:04Z</time>
      </trkpt>
      <trkpt lat="42.1602170" lon="-8.8006320">
        <ele>133.1</ele>
        <time>2021-05-20T06:39:05Z</time>
      </trkpt>
      <trkpt lat="42.1602090" lon="-8.8006270">
        <ele>133.1</ele>
        <time>2021-05-20T06:39:06Z</time>
      </trkpt>
      <trkpt lat="42.1602020" lon="-8.8006220">
        <ele>133.1</ele>
        <time>2021-05-20T06:39:07Z</time>
      </trkpt>
      <trkpt lat="42.1601970" lon="-8.8006240">
        <ele>133.1</ele>
        <time>2021-05-20T06:39:08Z</time>
      </trkpt>
      <trkpt lat="42.1601970" lon="-8.8006220">
        <ele>133.1</ele>
        <time>2021-05-20T06:39:09Z</time>
      </trkpt>
      <trkpt lat="42.1601960" lon="-8.8006210">
        <ele>133.1</ele>
        <time>2021-05-20T06:39:10Z</time>
      </trkpt>
      <trkpt lat="42.1601960" lon="-8.8006200">
        <ele>133.1</ele>
        <time>2021-05-20T06:39:11Z</time>
      </trkpt>
      <trkpt lat="42.1601950" lon="-8.8006190">
        <ele>133.1</ele>
        <time>2021-05-20T06:39:12Z</time>
      </trkpt>
      <trkpt lat="42.1601950" lon="-8.8006170">
        <ele>133.1</ele>
        <time>2021-05-20T06:39:13Z</time>
      </trkpt>
      <trkpt lat="42.1601940" lon="-8.8006160">
        <ele>133.1</ele>
        <time>2021-05-20T06:39:14Z</time>
      </trkpt>
      <trkpt lat="42.1601940" lon="-8.8006150">
        <ele>133.1</ele>
        <time>2021-05-20T06:39:15Z</time>
      </trkpt>
      <trkpt lat="42.1601930" lon="-8.8006140">
        <ele>133.1</ele>
        <time>2021-05-20T06:39:16Z</time>
      </trkpt>
      <trkpt lat="42.1601930" lon="-8.8006120">
        <ele>133.1</ele>
        <time>2021-05-20T06:39:17Z</time>
      </trkpt>
      <trkpt lat="42.1601920" lon="-8.8006110">
        <ele>133.1</ele>
        <time>2021-05-20T06:39:18Z</time>
      </trkpt>
      <trkpt lat="42.1601920" lon="-8.8006100">
        <ele>133.1</ele>
        <time>2021-05-20T06:39:19Z</time>
      </trkpt>
      <trkpt lat="42.1601910" lon="-8.8006090">
        <ele>133.1</ele>
        <time>2021-05-20T06:39:20Z</time>
      </trkpt>
      <trkpt lat="42.1601910" lon="-8.8006070">
        <ele>133.1</ele>
        <time>2021-05-20T06:39:21Z</time>
      </trkpt>
      <trkpt lat="42.1601900" lon="-8.8006060">
        <ele>133.1</ele>
        <time>2021-05-20T06:39:22Z</time>
      </trkpt>
      <trkpt lat="42.1601900" lon="-8.8006050">
        <ele>133.1</ele>
        <time>2021-05-20T06:39:23Z</time>
      </trkpt>
      <trkpt lat="42.1601890" lon="-8.8006030">
        <ele>133.1</ele>
        <time>2021-05-20T06:39:24Z</time>
      </trkpt>
      <trkpt lat="42.1601890" lon="-8.8006020">
        <ele>133.1</ele>
        <time>2021-05-20T06:39:25Z</time>
      </trkpt>
      <trkpt lat="42.1601880" lon="-8.8006010">
        <ele>133.1</ele>
        <time>2021-05-20T06:39:26Z</time>
      </trkpt>
      <trkpt lat="42.1601880" lon="-8.8006000">
        <ele>133.1</ele>
        <time>2021-05-20T06:39:27Z</time>
      </trkpt>
      <trkpt lat="42.1601870" lon="-8.8005980">
        <ele>133.1</ele>
        <time>2021-05-20T06:39:28Z</time>
      </trkpt>
      <trkpt lat="42.1601870" lon="-8.8005970">
        <ele>133.1</ele>
        <time>2021-05-20T06:39:29Z</time>
      </trkpt>
      <trkpt lat="42.1601860" lon="-8.8005960">
        <ele>133.1</ele>
        <time>2021-05-20T06:39:30Z</time>
      </trkpt>
      <trkpt lat="42.1601860" lon="-8.8005950">
        <ele>133.1</ele>
        <time>2021-05-20T06:39:31Z</time>
      </trkpt>
      <trkpt lat="42.1601850" lon="-8.8005930">
        <ele>133.1</ele>
        <time>2021-05-20T06:39:32Z</time>
      </trkpt>
      <trkpt lat="42.1601850" lon="-8.8005920">
        <ele>133.1</ele>
        <time>2021-05-20T06:39:33Z</time>
      </trkpt>
      <trkpt lat="42.1601840" lon="-8.8005910">
        <ele>133.1</ele>
        <time>2021-05-20T06:39:34Z</time>
      </trkpt>
      <trkpt lat="42.1601840" lon="-8.8005900">
        <ele>133.1</ele>
        <time>2021-05-20T06:39:35Z</time>
      </trkpt>
      <trkpt lat="42.1601830" lon="-8.8005880">
        <ele>133.1</ele>
        <time>2021-05-20T06:39:36Z</time>
      </trkpt>
      <trkpt lat="42.1601830" lon="-8.8005870">
        <ele>133.1</ele>
        <time>2021-05-20T06:39:37Z</time>
      </trkpt>
      <trkpt lat="42.1601820" lon="-8.8005860">
        <ele>133.1</ele>
        <time>2021-05-20T06:39:38Z</time>
      </trkpt>
      <trkpt lat="42.1601810" lon="-8.8005840">
        <ele>133.1</ele>
        <time>2021-05-20T06:39:39Z</time>
      </trkpt>
      <trkpt lat="42.1601810" lon="-8.8005830">
        <ele>133.1</ele>
        <time>2021-05-20T06:39:40Z</time>
      </trkpt>
      <trkpt lat="42.1601800" lon="-8.8005820">
        <ele>133.1</ele>
        <time>2021-05-20T06:39:41Z</time>
      </trkpt>
      <trkpt lat="42.1601800" lon="-8.8005810">
        <ele>133.1</ele>
        <time>2021-05-20T06:39:42Z</time>
      </trkpt>
      <trkpt lat="42.1601790" lon="-8.8005790">
        <ele>133.1</ele>
        <time>2021-05-20T06:39:43Z</time>
      </trkpt>
      <trkpt lat="42.1601790" lon="-8.8005780">
        <ele>133.1</ele>
        <time>2021-05-20T06:39:44Z</time>
      </trkpt>
      <trkpt lat="42.1601780" lon="-8.8005770">
        <ele>133.1</ele>
        <time>2021-05-20T06:39:45Z</time>
      </trkpt>
      <trkpt lat="42.1601780" lon="-8.8005760">
        <ele>133.1</ele>
        <time>2021-05-20T06:39:46Z</time>
      </trkpt>
      <trkpt lat="42.1601770" lon="-8.8005740">
        <ele>133.1</ele>
        <time>2021-05-20T06:39:47Z</time>
      </trkpt>
      <trkpt lat="42.1601770" lon="-8.8005730">
        <ele>133.1</ele>
        <time>2021-05-20T06:39:48Z</time>
      </trkpt>
      <trkpt lat="42.1601760" lon="-8.8005720">
        <ele>133.1</ele>
        <time>2021-05-20T06:39:49Z</time>
      </trkpt>
      <trkpt lat="42.1601760" lon="-8.8005710">
        <ele>133.1</ele>
        <time>2021-05-20T06:39:50Z</time>
      </trkpt>
      <trkpt lat="42.1601750" lon="-8.8005690">
        <ele>133.1</ele>
        <time>2021-05-20T06:39:51Z</time>
      </trkpt>
      <trkpt lat="42.1601750" lon="-8.8005680">
        <ele>133.1</ele>
        <time>2021-05-20T06:39:52Z</time>
      </trkpt>
      <trkpt lat="42.1601740" lon="-8.8005670">
        <ele>133.1</ele>
        <time>2021-05-20T06:39:53Z</time>
      </trkpt>
      <trkpt lat="42.1601740" lon="-8.8005650">
        <ele>133.1</ele>
        <time>2021-05-20T06:39:54Z</time>
      </trkpt>
      <trkpt lat="42.1601730" lon="-8.8005640">
        <ele>133.1</ele>
        <time>2021-05-20T06:39:55Z</time>
      </trkpt>
      <trkpt lat="42.1601730" lon="-8.8005630">
        <ele>133.1</ele>
        <time>2021-05-20T06:39:56Z</time>
      </trkpt>
      <trkpt lat="42.1601720" lon="-8.8005620">
        <ele>133.1</ele>
        <time>2021-05-20T06:39:57Z</time>
      </trkpt>
      <trkpt lat="42.1601720" lon="-8.8005600">
        <ele>133.1</ele>
        <time>2021-05-20T06:39:58Z</time>
      </trkpt>
      <trkpt lat="42.1601710" lon="-8.8005590">
        <ele>133.1</ele>
        <time>2021-05-20T06:39:59Z</time>
      </trkpt>
      <trkpt lat="42.1601710" lon="-8.8005580">
        <ele>133.1</ele>
        <time>2021-05-20T06:40:00Z</time>
      </trkpt>
      <trkpt lat="42.1601700" lon="-8.8005570">
        <ele>133.1</ele>
        <time>2021-05-20T06:40:01Z</time>
      </trkpt>
      <trkpt lat="42.1601700" lon="-8.8005550">
        <ele>133.1</ele>
        <time>2021-05-20T06:40:02Z</time>
      </trkpt>
      <trkpt lat="42.1601690" lon="-8.8005540">
        <ele>133.1</ele>
        <time>2021-05-20T06:40:03Z</time>
      </trkpt>
      <trkpt lat="42.1601690" lon="-8.8005530">
        <ele>133.1</ele>
        <time>2021-05-20T06:40:04Z</time>
      </trkpt>
      <trkpt lat="42.1601680" lon="-8.8005520">
        <ele>133.1</ele>
        <time>2021-05-20T06:40:05Z</time>
      </trkpt>
      <trkpt lat="42.1601680" lon="-8.8005500">
        <ele>133.1</ele>
        <time>2021-05-20T06:40:06Z</time>
      </trkpt>
      <trkpt lat="42.1601670" lon="-8.8005490">
        <ele>133.1</ele>
        <time>2021-05-20T06:40:07Z</time>
      </trkpt>
      <trkpt lat="42.1601740" lon="-8.8005480">
        <ele>133.1</ele>
        <time>2021-05-20T06:40:08Z</time>
      </trkpt>
      <trkpt lat="42.1601790" lon="-8.8005470">
        <ele>133.1</ele>
        <time>2021-05-20T06:40:09Z</time>
      </trkpt>
      <trkpt lat="42.1601760" lon="-8.8005340">
        <ele>133.1</ele>
        <time>2021-05-20T06:40:10Z</time>
      </trkpt>
      <trkpt lat="42.1601740" lon="-8.8005210">
        <ele>133.1</ele>
        <time>2021-05-20T06:40:11Z</time>
      </trkpt>
      <trkpt lat="42.1601740" lon="-8.8005130">
        <ele>133.1</ele>
        <time>2021-05-20T06:40:12Z</time>
      </trkpt>
      <trkpt lat="42.1601700" lon="-8.8005100">
        <ele>133.1</ele>
        <time>2021-05-20T06:40:13Z</time>
      </trkpt>
      <trkpt lat="42.1601690" lon="-8.8005060">
        <ele>133.1</ele>
        <time>2021-05-20T06:40:14Z</time>
      </trkpt>
      <trkpt lat="42.1601690" lon="-8.8005050">
        <ele>133.1</ele>
        <time>2021-05-20T06:40:15Z</time>
      </trkpt>
      <trkpt lat="42.1601690" lon="-8.8005030">
        <ele>133.1</ele>
        <time>2021-05-20T06:40:16Z</time>
      </trkpt>
      <trkpt lat="42.1601710" lon="-8.8005040">
        <ele>133.1</ele>
        <time>2021-05-20T06:40:17Z</time>
      </trkpt>
      <trkpt lat="42.1601710" lon="-8.8005040">
        <ele>133.1</ele>
        <time>2021-05-20T06:40:18Z</time>
      </trkpt>
      <trkpt lat="42.1601780" lon="-8.8005030">
        <ele>133.1</ele>
        <time>2021-05-20T06:40:19Z</time>
      </trkpt>
      <trkpt lat="42.1601790" lon="-8.8005020">
        <ele>133.1</ele>
        <time>2021-05-20T06:40:20Z</time>
      </trkpt>
      <trkpt lat="42.1601810" lon="-8.8005030">
        <ele>133.1</ele>
        <time>2021-05-20T06:40:21Z</time>
      </trkpt>
      <trkpt lat="42.1601840" lon="-8.8005040">
        <ele>133.1</ele>
        <time>2021-05-20T06:40:22Z</time>
      </trkpt>
      <trkpt lat="42.1601850" lon="-8.8005020">
        <ele>133.1</ele>
        <time>2021-05-20T06:40:23Z</time>
      </trkpt>
      <trkpt lat="42.1601870" lon="-8.8005000">
        <ele>133.1</ele>
        <time>2021-05-20T06:40:24Z</time>
      </trkpt>
      <trkpt lat="42.1601870" lon="-8.8004970">
        <ele>133.1</ele>
        <time>2021-05-20T06:40:25Z</time>
      </trkpt>
      <trkpt lat="42.1601870" lon="-8.8004970">
        <ele>133.1</ele>
        <time>2021-05-20T06:40:26Z</time>
      </trkpt>
      <trkpt lat="42.1601880" lon="-8.8004910">
        <ele>133.1</ele>
        <time>2021-05-20T06:40:27Z</time>
      </trkpt>
      <trkpt lat="42.1601860" lon="-8.8004880">
        <ele>133.1</ele>
        <time>2021-05-20T06:40:28Z</time>
      </trkpt>
      <trkpt lat="42.1601830" lon="-8.8004850">
        <ele>133.1</ele>
        <time>2021-05-20T06:40:29Z</time>
      </trkpt>
      <trkpt lat="42.1601810" lon="-8.8004820">
        <ele>133.1</ele>
        <time>2021-05-20T06:40:30Z</time>
      </trkpt>
      <trkpt lat="42.1601810" lon="-8.8004820">
        <ele>133.1</ele>
        <time>2021-05-20T06:40:31Z</time>
      </trkpt>
      <trkpt lat="42.1601810" lon="-8.8004800">
        <ele>133.1</ele>
        <time>2021-05-20T06:40:32Z</time>
      </trkpt>
      <trkpt lat="42.1601820" lon="-8.8004820">
        <ele>133.1</ele>
        <time>2021-05-20T06:40:33Z</time>
      </trkpt>
      <trkpt lat="42.1601820" lon="-8.8004820">
        <ele>133.1</ele>
        <time>2021-05-20T06:40:34Z</time>
      </trkpt>
      <trkpt lat="42.1601840" lon="-8.8004800">
        <ele>133.1</ele>
        <time>2021-05-20T06:40:35Z</time>
      </trkpt>
      <trkpt lat="42.1601850" lon="-8.8004770">
        <ele>133.1</ele>
        <time>2021-05-20T06:40:36Z</time>
      </trkpt>
      <trkpt lat="42.1601850" lon="-8.8004750">
        <ele>133.1</ele>
        <time>2021-05-20T06:40:37Z</time>
      </trkpt>
      <trkpt lat="42.1601870" lon="-8.8004760">
        <ele>133.1</ele>
        <time>2021-05-20T06:40:38Z</time>
      </trkpt>
      <trkpt lat="42.1601870" lon="-8.8004740">
        <ele>133.1</ele>
        <time>2021-05-20T06:40:39Z</time>
      </trkpt>
      <trkpt lat="42.1601880" lon="-8.8004740">
        <ele>133.1</ele>
        <time>2021-05-20T06:40:40Z</time>
      </trkpt>
      <trkpt lat="42.1601890" lon="-8.8004710">
        <ele>133.1</ele>
        <time>2021-05-20T06:40:41Z</time>
      </trkpt>
      <trkpt lat="42.1601890" lon="-8.8004710">
        <ele>133.1</ele>
        <time>2021-05-20T06:40:42Z</time>
      </trkpt>
      <trkpt lat="42.1601890" lon="-8.8004710">
        <ele>133.1</ele>
        <time>2021-05-20T06:40:43Z</time>
      </trkpt>
      <trkpt lat="42.1601900" lon="-8.8004710">
        <ele>133.1</ele>
        <time>2021-05-20T06:40:44Z</time>
      </trkpt>
      <trkpt lat="42.1601910" lon="-8.8004730">
        <ele>133.1</ele>
        <time>2021-05-20T06:40:45Z</time>
      </trkpt>
      <trkpt lat="42.1601910" lon="-8.8004740">
        <ele>133.1</ele>
        <time>2021-05-20T06:40:46Z</time>
      </trkpt>
      <trkpt lat="42.1601910" lon="-8.8004760">
        <ele>133.1</ele>
        <time>2021-05-20T06:40:47Z</time>
      </trkpt>
      <trkpt lat="42.1601910" lon="-8.8004760">
        <ele>133.1</ele>
        <time>2021-05-20T06:40:48Z</time>
      </trkpt>
      <trkpt lat="42.1601930" lon="-8.8004800">
        <ele>133.1</ele>
        <time>2021-05-20T06:40:49Z</time>
      </trkpt>
      <trkpt lat="42.1601940" lon="-8.8004820">
        <ele>133.1</ele>
        <time>2021-05-20T06:40:50Z</time>
      </trkpt>
      <trkpt lat="42.1601930" lon="-8.8004840">
        <ele>133.1</ele>
        <time>2021-05-20T06:40:51Z</time>
      </trkpt>
      <trkpt lat="42.1601950" lon="-8.8004860">
        <ele>133.1</ele>
        <time>2021-05-20T06:40:52Z</time>
      </trkpt>
      <trkpt lat="42.1601950" lon="-8.8004860">
        <ele>133.1</ele>
        <time>2021-05-20T06:40:53Z</time>
      </trkpt>
      <trkpt lat="42.1601920" lon="-8.8004840">
        <ele>133.1</ele>
        <time>2021-05-20T06:40:54Z</time>
      </trkpt>
      <trkpt lat="42.1601930" lon="-8.8004820">
        <ele>133.1</ele>
        <time>2021-05-20T06:40:55Z</time>
      </trkpt>
      <trkpt lat="42.1601920" lon="-8.8004780">
        <ele>133.1</ele>
        <time>2021-05-20T06:40:56Z</time>
      </trkpt>
      <trkpt lat="42.1601910" lon="-8.8004740">
        <ele>133.1</ele>
        <time>2021-05-20T06:40:57Z</time>
      </trkpt>
      <trkpt lat="42.1601930" lon="-8.8004700">
        <ele>133.1</ele>
        <time>2021-05-20T06:40:58Z</time>
      </trkpt>
      <trkpt lat="42.1601930" lon="-8.8004650">
        <ele>133.1</ele>
        <time>2021-05-20T06:40:59Z</time>
      </trkpt>
      <trkpt lat="42.1601920" lon="-8.8004660">
        <ele>133.1</ele>
        <time>2021-05-20T06:41:00Z</time>
      </trkpt>
      <trkpt lat="42.1601900" lon="-8.8004680">
        <ele>133.1</ele>
        <time>2021-05-20T06:41:01Z</time>
      </trkpt>
      <trkpt lat="42.1601900" lon="-8.8004680">
        <ele>133.1</ele>
        <time>2021-05-20T06:41:02Z</time>
      </trkpt>
      <trkpt lat="42.1601900" lon="-8.8004680">
        <ele>133.1</ele>
        <time>2021-05-20T06:41:03Z</time>
      </trkpt>
      <trkpt lat="42.1601900" lon="-8.8004680">
        <ele>133.1</ele>
        <time>2021-05-20T06:41:04Z</time>
      </trkpt>
      <trkpt lat="42.1601900" lon="-8.8004680">
        <ele>133.1</ele>
        <time>2021-05-20T06:41:05Z</time>
      </trkpt>
      <trkpt lat="42.1601900" lon="-8.8004680">
        <ele>133.1</ele>
        <time>2021-05-20T06:41:06Z</time>
      </trkpt>
      <trkpt lat="42.1601900" lon="-8.8004680">
        <ele>133.1</ele>
        <time>2021-05-20T06:41:07Z</time>
      </trkpt>
      <trkpt lat="42.1601900" lon="-8.8004680">
        <ele>133.1</ele>
        <time>2021-05-20T06:41:08Z</time>
      </trkpt>
      <trkpt lat="42.1601900" lon="-8.8004680">
        <ele>133.1</ele>
        <time>2021-05-20T06:41:09Z</time>
      </trkpt>
      <trkpt lat="42.1601900" lon="-8.8004680">
        <ele>133.1</ele>
        <time>2021-05-20T06:41:10Z</time>
      </trkpt>
      <trkpt lat="42.1601900" lon="-8.8004680">
        <ele>133.1</ele>
        <time>2021-05-20T06:41:11Z</time>
      </trkpt>
      <trkpt lat="42.1601900" lon="-8.8004680">
        <ele>133.1</ele>
        <time>2021-05-20T06:41:12Z</time>
      </trkpt>
      <trkpt lat="42.1601900" lon="-8.8004680">
        <ele>133.1</ele>
        <time>2021-05-20T06:41:13Z</time>
      </trkpt>
      <trkpt lat="42.1601900" lon="-8.8004680">
        <ele>133.1</ele>
        <time>2021-05-20T06:41:14Z</time>
      </trkpt>
      <trkpt lat="42.1601900" lon="-8.8004680">
        <ele>133.1</ele>
        <time>2021-05-20T06:41:15Z</time>
      </trkpt>
      <trkpt lat="42.1601900" lon="-8.8004680">
        <ele>133.1</ele>
        <time>2021-05-20T06:41:16Z</time>
      </trkpt>
      <trkpt lat="42.1601900" lon="-8.8004680">
        <ele>133.1</ele>
        <time>2021-05-20T06:41:17Z</time>
      </trkpt>
      <trkpt lat="42.1601900" lon="-8.8004680">
        <ele>133.1</ele>
        <time>2021-05-20T06:41:18Z</time>
      </trkpt>
      <trkpt lat="42.1601900" lon="-8.8004680">
        <ele>133.1</ele>
        <time>2021-05-20T06:41:19Z</time>
      </trkpt>
      <trkpt lat="42.1601900" lon="-8.8004680">
        <ele>133.1</ele>
        <time>2021-05-20T06:41:20Z</time>
      </trkpt>
      <trkpt lat="42.1601900" lon="-8.8004680">
        <ele>133.1</ele>
        <time>2021-05-20T06:41:21Z</time>
      </trkpt>
      <trkpt lat="42.1601900" lon="-8.8004680">
        <ele>133.1</ele>
        <time>2021-05-20T06:41:22Z</time>
      </trkpt>
      <trkpt lat="42.1601900" lon="-8.8004680">
        <ele>133.1</ele>
        <time>2021-05-20T06:41:23Z</time>
      </trkpt>
      <trkpt lat="42.1601900" lon="-8.8004680">
        <ele>133.1</ele>
        <time>2021-05-20T06:41:24Z</time>
      </trkpt>
      <trkpt lat="42.1601900" lon="-8.8004680">
        <ele>133.1</ele>
        <time>2021-05-20T06:41:25Z</time>
      </trkpt>
      <trkpt lat="42.1601900" lon="-8.8004680">
        <ele>133.1</ele>
        <time>2021-05-20T06:41:26Z</time>
      </trkpt>
      <trkpt lat="42.1601900" lon="-8.8004680">
        <ele>133.1</ele>
        <time>2021-05-20T06:41:27Z</time>
      </trkpt>
      <trkpt lat="42.1601900" lon="-8.8004680">
        <ele>133.1</ele>
        <time>2021-05-20T06:41:28Z</time>
      </trkpt>
      <trkpt lat="42.1601900" lon="-8.8004680">
        <ele>133.1</ele>
        <time>2021-05-20T06:41:29Z</time>
      </trkpt>
      <trkpt lat="42.1601900" lon="-8.8004680">
        <ele>133.1</ele>
        <time>2021-05-20T06:41:30Z</time>
      </trkpt>
      <trkpt lat="42.1601900" lon="-8.8004680">
        <ele>133.1</ele>
        <time>2021-05-20T06:41:31Z</time>
      </trkpt>
      <trkpt lat="42.1601720" lon="-8.8005190">
        <ele>133.1</ele>
        <time>2021-05-20T06:41:32Z</time>
      </trkpt>
      <trkpt lat="42.1601710" lon="-8.8005210">
        <ele>133.1</ele>
        <time>2021-05-20T06:41:33Z</time>
      </trkpt>
      <trkpt lat="42.1601710" lon="-8.8005210">
        <ele>133.1</ele>
        <time>2021-05-20T06:41:34Z</time>
      </trkpt>
      <trkpt lat="42.1601730" lon="-8.8005180">
        <ele>133.1</ele>
        <time>2021-05-20T06:41:35Z</time>
      </trkpt>
      <trkpt lat="42.1601750" lon="-8.8005160">
        <ele>133.1</ele>
        <time>2021-05-20T06:41:36Z</time>
      </trkpt>
      <trkpt lat="42.1601740" lon="-8.8005170">
        <ele>133.1</ele>
        <time>2021-05-20T06:41:37Z</time>
      </trkpt>
      <trkpt lat="42.1601750" lon="-8.8005160">
        <ele>133.1</ele>
        <time>2021-05-20T06:41:38Z</time>
      </trkpt>
      <trkpt lat="42.1601760" lon="-8.8005170">
        <ele>133.1</ele>
        <time>2021-05-20T06:41:39Z</time>
      </trkpt>
      <trkpt lat="42.1601770" lon="-8.8005150">
        <ele>133.1</ele>
        <time>2021-05-20T06:41:40Z</time>
      </trkpt>
      <trkpt lat="42.1601780" lon="-8.8005150">
        <ele>133.1</ele>
        <time>2021-05-20T06:41:41Z</time>
      </trkpt>
      <trkpt lat="42.1601800" lon="-8.8005180">
        <ele>133.1</ele>
        <time>2021-05-20T06:41:42Z</time>
      </trkpt>
      <trkpt lat="42.1601820" lon="-8.8005210">
        <ele>133.1</ele>
        <time>2021-05-20T06:41:43Z</time>
      </trkpt>
      <trkpt lat="42.1601820" lon="-8.8005220">
        <ele>133.1</ele>
        <time>2021-05-20T06:41:44Z</time>
      </trkpt>
      <trkpt lat="42.1601820" lon="-8.8005240">
        <ele>133.1</ele>
        <time>2021-05-20T06:41:45Z</time>
      </trkpt>
      <trkpt lat="42.1601830" lon="-8.8005270">
        <ele>133.1</ele>
        <time>2021-05-20T06:41:46Z</time>
      </trkpt>
      <trkpt lat="42.1601830" lon="-8.8005280">
        <ele>133.1</ele>
        <time>2021-05-20T06:41:47Z</time>
      </trkpt>
      <trkpt lat="42.1601820" lon="-8.8005280">
        <ele>133.1</ele>
        <time>2021-05-20T06:41:48Z</time>
      </trkpt>
      <trkpt lat="42.1601790" lon="-8.8005250">
        <ele>133.1</ele>
        <time>2021-05-20T06:41:49Z</time>
      </trkpt>
      <trkpt lat="42.1601780" lon="-8.8005210">
        <ele>133.1</ele>
        <time>2021-05-20T06:41:50Z</time>
      </trkpt>
      <trkpt lat="42.1601750" lon="-8.8005140">
        <ele>133.1</ele>
        <time>2021-05-20T06:41:51Z</time>
      </trkpt>
      <trkpt lat="42.1601720" lon="-8.8005170">
        <ele>133.1</ele>
        <time>2021-05-20T06:41:53Z</time>
      </trkpt>
      <trkpt lat="42.1601690" lon="-8.8005160">
        <ele>133.1</ele>
        <time>2021-05-20T06:41:54Z</time>
      </trkpt>
      <trkpt lat="42.1601680" lon="-8.8005170">
        <ele>133.1</ele>
        <time>2021-05-20T06:41:55Z</time>
      </trkpt>
      <trkpt lat="42.1601670" lon="-8.8005190">
        <ele>133.1</ele>
        <time>2021-05-20T06:41:56Z</time>
      </trkpt>
      <trkpt lat="42.1601660" lon="-8.8005210">
        <ele>133.1</ele>
        <time>2021-05-20T06:41:57Z</time>
      </trkpt>
      <trkpt lat="42.1601670" lon="-8.8005250">
        <ele>133.1</ele>
        <time>2021-05-20T06:41:58Z</time>
      </trkpt>
      <trkpt lat="42.1601670" lon="-8.8005270">
        <ele>133.1</ele>
        <time>2021-05-20T06:41:59Z</time>
      </trkpt>
      <trkpt lat="42.1601670" lon="-8.8005290">
        <ele>133.1</ele>
        <time>2021-05-20T06:42:00Z</time>
      </trkpt>
      <trkpt lat="42.1601660" lon="-8.8005330">
        <ele>133.1</ele>
        <time>2021-05-20T06:42:01Z</time>
      </trkpt>
      <trkpt lat="42.1601660" lon="-8.8005330">
        <ele>133.1</ele>
        <time>2021-05-20T06:42:02Z</time>
      </trkpt>
      <trkpt lat="42.1601660" lon="-8.8005340">
        <ele>133.1</ele>
        <time>2021-05-20T06:42:03Z</time>
      </trkpt>
      <trkpt lat="42.1601670" lon="-8.8005350">
        <ele>133.1</ele>
        <time>2021-05-20T06:42:04Z</time>
      </trkpt>
      <trkpt lat="42.1601670" lon="-8.8005310">
        <ele>133.1</ele>
        <time>2021-05-20T06:42:05Z</time>
      </trkpt>
      <trkpt lat="42.1601660" lon="-8.8005250">
        <ele>133.1</ele>
        <time>2021-05-20T06:42:06Z</time>
      </trkpt>
      <trkpt lat="42.1601660" lon="-8.8005240">
        <ele>133.1</ele>
        <time>2021-05-20T06:42:07Z</time>
      </trkpt>
      <trkpt lat="42.1601660" lon="-8.8005240">
        <ele>133.1</ele>
        <time>2021-05-20T06:42:08Z</time>
      </trkpt>
      <trkpt lat="42.1601660" lon="-8.8005190">
        <ele>133.1</ele>
        <time>2021-05-20T06:42:09Z</time>
      </trkpt>
      <trkpt lat="42.1601710" lon="-8.8005160">
        <ele>133.1</ele>
        <time>2021-05-20T06:42:10Z</time>
      </trkpt>
      <trkpt lat="42.1601690" lon="-8.8005190">
        <ele>133.1</ele>
        <time>2021-05-20T06:42:11Z</time>
      </trkpt>
      <trkpt lat="42.1601690" lon="-8.8005130">
        <ele>133.1</ele>
        <time>2021-05-20T06:42:12Z</time>
      </trkpt>
      <trkpt lat="42.1601700" lon="-8.8005170">
        <ele>133.1</ele>
        <time>2021-05-20T06:42:13Z</time>
      </trkpt>
      <trkpt lat="42.1601730" lon="-8.8005220">
        <ele>133.1</ele>
        <time>2021-05-20T06:42:14Z</time>
      </trkpt>
      <trkpt lat="42.1601760" lon="-8.8005260">
        <ele>133.1</ele>
        <time>2021-05-20T06:42:15Z</time>
      </trkpt>
      <trkpt lat="42.1601800" lon="-8.8005330">
        <ele>133.1</ele>
        <time>2021-05-20T06:42:16Z</time>
      </trkpt>
      <trkpt lat="42.1601830" lon="-8.8005370">
        <ele>133.1</ele>
        <time>2021-05-20T06:42:17Z</time>
      </trkpt>
      <trkpt lat="42.1601840" lon="-8.8005370">
        <ele>133.1</ele>
        <time>2021-05-20T06:42:18Z</time>
      </trkpt>
      <trkpt lat="42.1601870" lon="-8.8005450">
        <ele>133.1</ele>
        <time>2021-05-20T06:42:19Z</time>
      </trkpt>
      <trkpt lat="42.1601870" lon="-8.8005500">
        <ele>133.1</ele>
        <time>2021-05-20T06:42:20Z</time>
      </trkpt>
      <trkpt lat="42.1601870" lon="-8.8005490">
        <ele>133.1</ele>
        <time>2021-05-20T06:42:21Z</time>
      </trkpt>
      <trkpt lat="42.1601890" lon="-8.8005540">
        <ele>133.1</ele>
        <time>2021-05-20T06:42:22Z</time>
      </trkpt>
      <trkpt lat="42.1601910" lon="-8.8005530">
        <ele>133.1</ele>
        <time>2021-05-20T06:42:23Z</time>
      </trkpt>
      <trkpt lat="42.1601930" lon="-8.8005500">
        <ele>133.1</ele>
        <time>2021-05-20T06:42:24Z</time>
      </trkpt>
      <trkpt lat="42.1601920" lon="-8.8005490">
        <ele>133.1</ele>
        <time>2021-05-20T06:42:25Z</time>
      </trkpt>
      <trkpt lat="42.1601950" lon="-8.8005480">
        <ele>133.1</ele>
        <time>2021-05-20T06:42:26Z</time>
      </trkpt>
      <trkpt lat="42.1601960" lon="-8.8005440">
        <ele>133.1</ele>
        <time>2021-05-20T06:42:27Z</time>
      </trkpt>
      <trkpt lat="42.1601970" lon="-8.8005440">
        <ele>133.1</ele>
        <time>2021-05-20T06:42:28Z</time>
      </trkpt>
      <trkpt lat="42.1601960" lon="-8.8005390">
        <ele>133.1</ele>
        <time>2021-05-20T06:42:29Z</time>
      </trkpt>
      <trkpt lat="42.1601960" lon="-8.8005390">
        <ele>133.1</ele>
        <time>2021-05-20T06:42:30Z</time>
      </trkpt>
      <trkpt lat="42.1601960" lon="-8.8005380">
        <ele>133.1</ele>
        <time>2021-05-20T06:42:31Z</time>
      </trkpt>
      <trkpt lat="42.1601940" lon="-8.8005280">
        <ele>133.1</ele>
        <time>2021-05-20T06:42:32Z</time>
      </trkpt>
      <trkpt lat="42.1601920" lon="-8.8005270">
        <ele>133.1</ele>
        <time>2021-05-20T06:42:33Z</time>
      </trkpt>
      <trkpt lat="42.1601900" lon="-8.8005230">
        <ele>133.1</ele>
        <time>2021-05-20T06:42:34Z</time>
      </trkpt>
      <trkpt lat="42.1601890" lon="-8.8005200">
        <ele>133.1</ele>
        <time>2021-05-20T06:42:35Z</time>
      </trkpt>
      <trkpt lat="42.1601890" lon="-8.8005200">
        <ele>133.1</ele>
        <time>2021-05-20T06:42:36Z</time>
      </trkpt>
      <trkpt lat="42.1601890" lon="-8.8005130">
        <ele>133.1</ele>
        <time>2021-05-20T06:42:37Z</time>
      </trkpt>
      <trkpt lat="42.1601870" lon="-8.8005050">
        <ele>133.1</ele>
        <time>2021-05-20T06:42:38Z</time>
      </trkpt>
      <trkpt lat="42.1601880" lon="-8.8005050">
        <ele>133.1</ele>
        <time>2021-05-20T06:42:39Z</time>
      </trkpt>
      <trkpt lat="42.1601880" lon="-8.8005060">
        <ele>133.1</ele>
        <time>2021-05-20T06:42:40Z</time>
      </trkpt>
      <trkpt lat="42.1601880" lon="-8.8005070">
        <ele>133.1</ele>
        <time>2021-05-20T06:42:41Z</time>
      </trkpt>
      <trkpt lat="42.1601890" lon="-8.8005070">
        <ele>133.1</ele>
        <time>2021-05-20T06:42:42Z</time>
      </trkpt>
      <trkpt lat="42.1601890" lon="-8.8005080">
        <ele>133.1</ele>
        <time>2021-05-20T06:42:43Z</time>
      </trkpt>
      <trkpt lat="42.1601890" lon="-8.8005080">
        <ele>133.1</ele>
        <time>2021-05-20T06:42:44Z</time>
      </trkpt>
      <trkpt lat="42.1601900" lon="-8.8005090">
        <ele>133.1</ele>
        <time>2021-05-20T06:42:45Z</time>
      </trkpt>
      <trkpt lat="42.1601900" lon="-8.8005100">
        <ele>133.1</ele>
        <time>2021-05-20T06:42:46Z</time>
      </trkpt>
      <trkpt lat="42.1601910" lon="-8.8005100">
        <ele>133.1</ele>
        <time>2021-05-20T06:42:47Z</time>
      </trkpt>
      <trkpt lat="42.1601910" lon="-8.8005110">
        <ele>133.1</ele>
        <time>2021-05-20T06:42:48Z</time>
      </trkpt>
      <trkpt lat="42.1601910" lon="-8.8005120">
        <ele>133.1</ele>
        <time>2021-05-20T06:42:49Z</time>
      </trkpt>
      <trkpt lat="42.1601920" lon="-8.8005120">
        <ele>133.1</ele>
        <time>2021-05-20T06:42:50Z</time>
      </trkpt>
      <trkpt lat="42.1601920" lon="-8.8005130">
        <ele>133.1</ele>
        <time>2021-05-20T06:42:51Z</time>
      </trkpt>
      <trkpt lat="42.1601920" lon="-8.8005130">
        <ele>133.1</ele>
        <time>2021-05-20T06:42:52Z</time>
      </trkpt>
      <trkpt lat="42.1601930" lon="-8.8005140">
        <ele>133.1</ele>
        <time>2021-05-20T06:42:53Z</time>
      </trkpt>
      <trkpt lat="42.1601930" lon="-8.8005150">
        <ele>133.1</ele>
        <time>2021-05-20T06:42:54Z</time>
      </trkpt>
      <trkpt lat="42.1601930" lon="-8.8005150">
        <ele>133.1</ele>
        <time>2021-05-20T06:42:55Z</time>
      </trkpt>
      <trkpt lat="42.1601940" lon="-8.8005160">
        <ele>133.1</ele>
        <time>2021-05-20T06:42:56Z</time>
      </trkpt>
      <trkpt lat="42.1601940" lon="-8.8005170">
        <ele>133.1</ele>
        <time>2021-05-20T06:42:57Z</time>
      </trkpt>
      <trkpt lat="42.1601940" lon="-8.8005170">
        <ele>133.1</ele>
        <time>2021-05-20T06:42:58Z</time>
      </trkpt>
      <trkpt lat="42.1601950" lon="-8.8005180">
        <ele>133.1</ele>
        <time>2021-05-20T06:42:59Z</time>
      </trkpt>
      <trkpt lat="42.1601950" lon="-8.8005190">
        <ele>133.1</ele>
        <time>2021-05-20T06:43:00Z</time>
      </trkpt>
      <trkpt lat="42.1601960" lon="-8.8005190">
        <ele>133.1</ele>
        <time>2021-05-20T06:43:01Z</time>
      </trkpt>
      <trkpt lat="42.1601960" lon="-8.8005200">
        <ele>133.1</ele>
        <time>2021-05-20T06:43:02Z</time>
      </trkpt>
      <trkpt lat="42.1601960" lon="-8.8005200">
        <ele>133.1</ele>
        <time>2021-05-20T06:43:03Z</time>
      </trkpt>
      <trkpt lat="42.1601970" lon="-8.8005210">
        <ele>133.1</ele>
        <time>2021-05-20T06:43:04Z</time>
      </trkpt>
      <trkpt lat="42.1601970" lon="-8.8005220">
        <ele>133.1</ele>
        <time>2021-05-20T06:43:05Z</time>
      </trkpt>
      <trkpt lat="42.1601970" lon="-8.8005220">
        <ele>133.1</ele>
        <time>2021-05-20T06:43:06Z</time>
      </trkpt>
      <trkpt lat="42.1601980" lon="-8.8005230">
        <ele>133.1</ele>
        <time>2021-05-20T06:43:07Z</time>
      </trkpt>
      <trkpt lat="42.1601980" lon="-8.8005240">
        <ele>133.1</ele>
        <time>2021-05-20T06:43:08Z</time>
      </trkpt>
      <trkpt lat="42.1601980" lon="-8.8005240">
        <ele>133.1</ele>
        <time>2021-05-20T06:43:09Z</time>
      </trkpt>
      <trkpt lat="42.1601990" lon="-8.8005250">
        <ele>133.1</ele>
        <time>2021-05-20T06:43:10Z</time>
      </trkpt>
      <trkpt lat="42.1601990" lon="-8.8005260">
        <ele>133.1</ele>
        <time>2021-05-20T06:43:11Z</time>
      </trkpt>
      <trkpt lat="42.1601990" lon="-8.8005260">
        <ele>133.1</ele>
        <time>2021-05-20T06:43:12Z</time>
      </trkpt>
      <trkpt lat="42.1602000" lon="-8.8005270">
        <ele>133.1</ele>
        <time>2021-05-20T06:43:13Z</time>
      </trkpt>
      <trkpt lat="42.1602000" lon="-8.8005270">
        <ele>133.1</ele>
        <time>2021-05-20T06:43:14Z</time>
      </trkpt>
      <trkpt lat="42.1602000" lon="-8.8005280">
        <ele>133.1</ele>
        <time>2021-05-20T06:43:15Z</time>
      </trkpt>
      <trkpt lat="42.1602010" lon="-8.8005290">
        <ele>133.1</ele>
        <time>2021-05-20T06:43:16Z</time>
      </trkpt>
      <trkpt lat="42.1602010" lon="-8.8005290">
        <ele>133.1</ele>
        <time>2021-05-20T06:43:17Z</time>
      </trkpt>
      <trkpt lat="42.1602020" lon="-8.8005300">
        <ele>133.1</ele>
        <time>2021-05-20T06:43:18Z</time>
      </trkpt>
      <trkpt lat="42.1602020" lon="-8.8005310">
        <ele>133.1</ele>
        <time>2021-05-20T06:43:19Z</time>
      </trkpt>
      <trkpt lat="42.1602020" lon="-8.8005310">
        <ele>133.1</ele>
        <time>2021-05-20T06:43:20Z</time>
      </trkpt>
      <trkpt lat="42.1602030" lon="-8.8005320">
        <ele>133.1</ele>
        <time>2021-05-20T06:43:21Z</time>
      </trkpt>
      <trkpt lat="42.1602030" lon="-8.8005320">
        <ele>133.1</ele>
        <time>2021-05-20T06:43:22Z</time>
      </trkpt>
      <trkpt lat="42.1602030" lon="-8.8005330">
        <ele>133.1</ele>
        <time>2021-05-20T06:43:23Z</time>
      </trkpt>
      <trkpt lat="42.1602040" lon="-8.8005340">
        <ele>133.1</ele>
        <time>2021-05-20T06:43:24Z</time>
      </trkpt>
      <trkpt lat="42.1602040" lon="-8.8005340">
        <ele>133.1</ele>
        <time>2021-05-20T06:43:25Z</time>
      </trkpt>
      <trkpt lat="42.1602040" lon="-8.8005350">
        <ele>133.1</ele>
        <time>2021-05-20T06:43:26Z</time>
      </trkpt>
      <trkpt lat="42.1602050" lon="-8.8005360">
        <ele>133.1</ele>
        <time>2021-05-20T06:43:27Z</time>
      </trkpt>
      <trkpt lat="42.1602050" lon="-8.8005360">
        <ele>133.1</ele>
        <time>2021-05-20T06:43:28Z</time>
      </trkpt>
      <trkpt lat="42.1602050" lon="-8.8005370">
        <ele>133.1</ele>
        <time>2021-05-20T06:43:29Z</time>
      </trkpt>
      <trkpt lat="42.1602060" lon="-8.8005380">
        <ele>133.1</ele>
        <time>2021-05-20T06:43:30Z</time>
      </trkpt>
      <trkpt lat="42.1602060" lon="-8.8005380">
        <ele>133.1</ele>
        <time>2021-05-20T06:43:31Z</time>
      </trkpt>
      <trkpt lat="42.1602060" lon="-8.8005390">
        <ele>133.1</ele>
        <time>2021-05-20T06:43:32Z</time>
      </trkpt>
      <trkpt lat="42.1602070" lon="-8.8005390">
        <ele>133.1</ele>
        <time>2021-05-20T06:43:33Z</time>
      </trkpt>
      <trkpt lat="42.1602070" lon="-8.8005400">
        <ele>133.1</ele>
        <time>2021-05-20T06:43:34Z</time>
      </trkpt>
      <trkpt lat="42.1602080" lon="-8.8005410">
        <ele>133.1</ele>
        <time>2021-05-20T06:43:35Z</time>
      </trkpt>
      <trkpt lat="42.1602080" lon="-8.8005410">
        <ele>133.1</ele>
        <time>2021-05-20T06:43:36Z</time>
      </trkpt>
      <trkpt lat="42.1602080" lon="-8.8005420">
        <ele>133.1</ele>
        <time>2021-05-20T06:43:37Z</time>
      </trkpt>
      <trkpt lat="42.1602090" lon="-8.8005430">
        <ele>133.1</ele>
        <time>2021-05-20T06:43:38Z</time>
      </trkpt>
      <trkpt lat="42.1602090" lon="-8.8005430">
        <ele>133.1</ele>
        <time>2021-05-20T06:43:39Z</time>
      </trkpt>
      <trkpt lat="42.1602090" lon="-8.8005440">
        <ele>133.1</ele>
        <time>2021-05-20T06:43:40Z</time>
      </trkpt>
      <trkpt lat="42.1602100" lon="-8.8005450">
        <ele>133.1</ele>
        <time>2021-05-20T06:43:41Z</time>
      </trkpt>
      <trkpt lat="42.1602100" lon="-8.8005450">
        <ele>133.1</ele>
        <time>2021-05-20T06:43:42Z</time>
      </trkpt>
      <trkpt lat="42.1602100" lon="-8.8005460">
        <ele>133.1</ele>
        <time>2021-05-20T06:43:43Z</time>
      </trkpt>
      <trkpt lat="42.1602110" lon="-8.8005460">
        <ele>133.1</ele>
        <time>2021-05-20T06:43:44Z</time>
      </trkpt>
      <trkpt lat="42.1602110" lon="-8.8005470">
        <ele>133.1</ele>
        <time>2021-05-20T06:43:45Z</time>
      </trkpt>
      <trkpt lat="42.1602110" lon="-8.8005480">
        <ele>133.1</ele>
        <time>2021-05-20T06:43:46Z</time>
      </trkpt>
      <trkpt lat="42.1602120" lon="-8.8005480">
        <ele>133.1</ele>
        <time>2021-05-20T06:43:47Z</time>
      </trkpt>
      <trkpt lat="42.1602120" lon="-8.8005490">
        <ele>133.1</ele>
        <time>2021-05-20T06:43:48Z</time>
      </trkpt>
      <trkpt lat="42.1602130" lon="-8.8005500">
        <ele>133.1</ele>
        <time>2021-05-20T06:43:49Z</time>
      </trkpt>
      <trkpt lat="42.1602130" lon="-8.8005500">
        <ele>133.1</ele>
        <time>2021-05-20T06:43:50Z</time>
      </trkpt>
      <trkpt lat="42.1602130" lon="-8.8005510">
        <ele>133.1</ele>
        <time>2021-05-20T06:43:51Z</time>
      </trkpt>
      <trkpt lat="42.1602140" lon="-8.8005510">
        <ele>133.1</ele>
        <time>2021-05-20T06:43:52Z</time>
      </trkpt>
      <trkpt lat="42.1602140" lon="-8.8005520">
        <ele>133.1</ele>
        <time>2021-05-20T06:43:53Z</time>
      </trkpt>
      <trkpt lat="42.1602140" lon="-8.8005530">
        <ele>133.1</ele>
        <time>2021-05-20T06:43:54Z</time>
      </trkpt>
      <trkpt lat="42.1602150" lon="-8.8005530">
        <ele>133.1</ele>
        <time>2021-05-20T06:43:55Z</time>
      </trkpt>
      <trkpt lat="42.1602150" lon="-8.8005540">
        <ele>133.1</ele>
        <time>2021-05-20T06:43:56Z</time>
      </trkpt>
      <trkpt lat="42.1602140" lon="-8.8005560">
        <ele>133.1</ele>
        <time>2021-05-20T06:43:57Z</time>
      </trkpt>
      <trkpt lat="42.1602140" lon="-8.8005560">
        <ele>133.1</ele>
        <time>2021-05-20T06:43:58Z</time>
      </trkpt>
      <trkpt lat="42.1602130" lon="-8.8005560">
        <ele>133.1</ele>
        <time>2021-05-20T06:43:59Z</time>
      </trkpt>
      <trkpt lat="42.1602130" lon="-8.8005550">
        <ele>133.1</ele>
        <time>2021-05-20T06:44:00Z</time>
      </trkpt>
      <trkpt lat="42.1602150" lon="-8.8005380">
        <ele>133.1</ele>
        <time>2021-05-20T06:44:01Z</time>
      </trkpt>
      <trkpt lat="42.1602140" lon="-8.8005370">
        <ele>133.1</ele>
        <time>2021-05-20T06:44:02Z</time>
      </trkpt>
      <trkpt lat="42.1602140" lon="-8.8005320">
        <ele>133.1</ele>
        <time>2021-05-20T06:44:03Z</time>
      </trkpt>
      <trkpt lat="42.1602140" lon="-8.8005250">
        <ele>133.1</ele>
        <time>2021-05-20T06:44:04Z</time>
      </trkpt>
      <trkpt lat="42.1602160" lon="-8.8005210">
        <ele>133.1</ele>
        <time>2021-05-20T06:44:05Z</time>
      </trkpt>
      <trkpt lat="42.1602150" lon="-8.8005190">
        <ele>133.1</ele>
        <time>2021-05-20T06:44:06Z</time>
      </trkpt>
      <trkpt lat="42.1602150" lon="-8.8005180">
        <ele>133.1</ele>
        <time>2021-05-20T06:44:07Z</time>
      </trkpt>
      <trkpt lat="42.1602130" lon="-8.8005190">
        <ele>133.1</ele>
        <time>2021-05-20T06:44:08Z</time>
      </trkpt>
      <trkpt lat="42.1602130" lon="-8.8005190">
        <ele>133.1</ele>
        <time>2021-05-20T06:44:09Z</time>
      </trkpt>
      <trkpt lat="42.1602130" lon="-8.8005200">
        <ele>133.1</ele>
        <time>2021-05-20T06:44:10Z</time>
      </trkpt>
      <trkpt lat="42.1602130" lon="-8.8005270">
        <ele>133.1</ele>
        <time>2021-05-20T06:44:11Z</time>
      </trkpt>
      <trkpt lat="42.1602140" lon="-8.8005290">
        <ele>133.1</ele>
        <time>2021-05-20T06:44:12Z</time>
      </trkpt>
      <trkpt lat="42.1602150" lon="-8.8005290">
        <ele>133.1</ele>
        <time>2021-05-20T06:44:13Z</time>
      </trkpt>
      <trkpt lat="42.1602140" lon="-8.8005250">
        <ele>133.1</ele>
        <time>2021-05-20T06:44:14Z</time>
      </trkpt>
      <trkpt lat="42.1602150" lon="-8.8005200">
        <ele>133.1</ele>
        <time>2021-05-20T06:44:15Z</time>
      </trkpt>
      <trkpt lat="42.1602170" lon="-8.8005160">
        <ele>133.1</ele>
        <time>2021-05-20T06:44:16Z</time>
      </trkpt>
      <trkpt lat="42.1602170" lon="-8.8005210">
        <ele>133.1</ele>
        <time>2021-05-20T06:44:17Z</time>
      </trkpt>
      <trkpt lat="42.1602170" lon="-8.8005280">
        <ele>133.1</ele>
        <time>2021-05-20T06:44:18Z</time>
      </trkpt>
      <trkpt lat="42.1602190" lon="-8.8005290">
        <ele>133.1</ele>
        <time>2021-05-20T06:44:19Z</time>
      </trkpt>
      <trkpt lat="42.1602190" lon="-8.8005300">
        <ele>133.1</ele>
        <time>2021-05-20T06:44:20Z</time>
      </trkpt>
      <trkpt lat="42.1602190" lon="-8.8005280">
        <ele>133.1</ele>
        <time>2021-05-20T06:44:21Z</time>
      </trkpt>
      <trkpt lat="42.1602190" lon="-8.8005270">
        <ele>133.1</ele>
        <time>2021-05-20T06:44:22Z</time>
      </trkpt>
      <trkpt lat="42.1602200" lon="-8.8005270">
        <ele>133.1</ele>
        <time>2021-05-20T06:44:23Z</time>
      </trkpt>
      <trkpt lat="42.1602210" lon="-8.8005270">
        <ele>133.1</ele>
        <time>2021-05-20T06:44:24Z</time>
      </trkpt>
      <trkpt lat="42.1602190" lon="-8.8005240">
        <ele>133.1</ele>
        <time>2021-05-20T06:44:25Z</time>
      </trkpt>
      <trkpt lat="42.1602200" lon="-8.8005220">
        <ele>133.1</ele>
        <time>2021-05-20T06:44:26Z</time>
      </trkpt>
      <trkpt lat="42.1602180" lon="-8.8005190">
        <ele>133.1</ele>
        <time>2021-05-20T06:44:27Z</time>
      </trkpt>
      <trkpt lat="42.1602170" lon="-8.8005120">
        <ele>133.1</ele>
        <time>2021-05-20T06:44:28Z</time>
      </trkpt>
      <trkpt lat="42.1602150" lon="-8.8005000">
        <ele>133.1</ele>
        <time>2021-05-20T06:44:29Z</time>
      </trkpt>
      <trkpt lat="42.1602110" lon="-8.8004940">
        <ele>133.1</ele>
        <time>2021-05-20T06:44:30Z</time>
      </trkpt>
      <trkpt lat="42.1602100" lon="-8.8004890">
        <ele>133.1</ele>
        <time>2021-05-20T06:44:31Z</time>
      </trkpt>
      <trkpt lat="42.1602080" lon="-8.8004790">
        <ele>133.1</ele>
        <time>2021-05-20T06:44:32Z</time>
      </trkpt>
      <trkpt lat="42.1602060" lon="-8.8004690">
        <ele>133.1</ele>
        <time>2021-05-20T06:44:33Z</time>
      </trkpt>
      <trkpt lat="42.1602060" lon="-8.8004650">
        <ele>133.1</ele>
        <time>2021-05-20T06:44:34Z</time>
      </trkpt>
      <trkpt lat="42.1602050" lon="-8.8004590">
        <ele>133.1</ele>
        <time>2021-05-20T06:44:35Z</time>
      </trkpt>
      <trkpt lat="42.1602050" lon="-8.8004560">
        <ele>133.1</ele>
        <time>2021-05-20T06:44:36Z</time>
      </trkpt>
      <trkpt lat="42.1602050" lon="-8.8004540">
        <ele>133.1</ele>
        <time>2021-05-20T06:44:37Z</time>
      </trkpt>
      <trkpt lat="42.1602050" lon="-8.8004520">
        <ele>133.1</ele>
        <time>2021-05-20T06:44:38Z</time>
      </trkpt>
      <trkpt lat="42.1602050" lon="-8.8004470">
        <ele>133.1</ele>
        <time>2021-05-20T06:44:39Z</time>
      </trkpt>
      <trkpt lat="42.1602060" lon="-8.8004450">
        <ele>133.1</ele>
        <time>2021-05-20T06:44:40Z</time>
      </trkpt>
      <trkpt lat="42.1602070" lon="-8.8004410">
        <ele>133.1</ele>
        <time>2021-05-20T06:44:41Z</time>
      </trkpt>
      <trkpt lat="42.1602070" lon="-8.8004410">
        <ele>133.1</ele>
        <time>2021-05-20T06:44:43Z</time>
      </trkpt>
      <trkpt lat="42.1602080" lon="-8.8004430">
        <ele>133.1</ele>
        <time>2021-05-20T06:44:44Z</time>
      </trkpt>
      <trkpt lat="42.1602080" lon="-8.8004440">
        <ele>133.1</ele>
        <time>2021-05-20T06:44:45Z</time>
      </trkpt>
      <trkpt lat="42.1602090" lon="-8.8004460">
        <ele>133.1</ele>
        <time>2021-05-20T06:44:46Z</time>
      </trkpt>
      <trkpt lat="42.1602090" lon="-8.8004470">
        <ele>133.1</ele>
        <time>2021-05-20T06:44:47Z</time>
      </trkpt>
      <trkpt lat="42.1602100" lon="-8.8004480">
        <ele>133.1</ele>
        <time>2021-05-20T06:44:48Z</time>
      </trkpt>
      <trkpt lat="42.1602100" lon="-8.8004500">
        <ele>133.1</ele>
        <time>2021-05-20T06:44:49Z</time>
      </trkpt>
      <trkpt lat="42.1602100" lon="-8.8004510">
        <ele>133.1</ele>
        <time>2021-05-20T06:44:50Z</time>
      </trkpt>
      <trkpt lat="42.1602110" lon="-8.8004520">
        <ele>133.1</ele>
        <time>2021-05-20T06:44:51Z</time>
      </trkpt>
      <trkpt lat="42.1602110" lon="-8.8004540">
        <ele>133.1</ele>
        <time>2021-05-20T06:44:52Z</time>
      </trkpt>
      <trkpt lat="42.1602120" lon="-8.8004550">
        <ele>133.1</ele>
        <time>2021-05-20T06:44:53Z</time>
      </trkpt>
      <trkpt lat="42.1602120" lon="-8.8004570">
        <ele>133.1</ele>
        <time>2021-05-20T06:44:54Z</time>
      </trkpt>
      <trkpt lat="42.1602130" lon="-8.8004580">
        <ele>133.1</ele>
        <time>2021-05-20T06:44:55Z</time>
      </trkpt>
      <trkpt lat="42.1602130" lon="-8.8004590">
        <ele>133.1</ele>
        <time>2021-05-20T06:44:56Z</time>
      </trkpt>
      <trkpt lat="42.1602130" lon="-8.8004610">
        <ele>133.1</ele>
        <time>2021-05-20T06:44:57Z</time>
      </trkpt>
      <trkpt lat="42.1602140" lon="-8.8004620">
        <ele>133.1</ele>
        <time>2021-05-20T06:44:58Z</time>
      </trkpt>
      <trkpt lat="42.1602140" lon="-8.8004630">
        <ele>133.1</ele>
        <time>2021-05-20T06:44:59Z</time>
      </trkpt>
      <trkpt lat="42.1602150" lon="-8.8004650">
        <ele>133.1</ele>
        <time>2021-05-20T06:45:00Z</time>
      </trkpt>
      <trkpt lat="42.1602150" lon="-8.8004660">
        <ele>133.1</ele>
        <time>2021-05-20T06:45:01Z</time>
      </trkpt>
      <trkpt lat="42.1602160" lon="-8.8004680">
        <ele>133.1</ele>
        <time>2021-05-20T06:45:02Z</time>
      </trkpt>
      <trkpt lat="42.1602160" lon="-8.8004690">
        <ele>133.1</ele>
        <time>2021-05-20T06:45:03Z</time>
      </trkpt>
      <trkpt lat="42.1602160" lon="-8.8004700">
        <ele>133.1</ele>
        <time>2021-05-20T06:45:04Z</time>
      </trkpt>
      <trkpt lat="42.1602170" lon="-8.8004720">
        <ele>133.1</ele>
        <time>2021-05-20T06:45:05Z</time>
      </trkpt>
      <trkpt lat="42.1602170" lon="-8.8004730">
        <ele>133.1</ele>
        <time>2021-05-20T06:45:06Z</time>
      </trkpt>
      <trkpt lat="42.1602180" lon="-8.8004740">
        <ele>133.1</ele>
        <time>2021-05-20T06:45:07Z</time>
      </trkpt>
      <trkpt lat="42.1602180" lon="-8.8004760">
        <ele>133.1</ele>
        <time>2021-05-20T06:45:08Z</time>
      </trkpt>
      <trkpt lat="42.1602190" lon="-8.8004770">
        <ele>133.1</ele>
        <time>2021-05-20T06:45:09Z</time>
      </trkpt>
      <trkpt lat="42.1602190" lon="-8.8004790">
        <ele>133.1</ele>
        <time>2021-05-20T06:45:10Z</time>
      </trkpt>
      <trkpt lat="42.1602190" lon="-8.8004800">
        <ele>133.1</ele>
        <time>2021-05-20T06:45:11Z</time>
      </trkpt>
      <trkpt lat="42.1602200" lon="-8.8004810">
        <ele>133.1</ele>
        <time>2021-05-20T06:45:12Z</time>
      </trkpt>
      <trkpt lat="42.1602200" lon="-8.8004830">
        <ele>133.1</ele>
        <time>2021-05-20T06:45:13Z</time>
      </trkpt>
      <trkpt lat="42.1602210" lon="-8.8004840">
        <ele>133.1</ele>
        <time>2021-05-20T06:45:14Z</time>
      </trkpt>
      <trkpt lat="42.1602210" lon="-8.8004860">
        <ele>133.1</ele>
        <time>2021-05-20T06:45:15Z</time>
      </trkpt>
      <trkpt lat="42.1602220" lon="-8.8004870">
        <ele>133.1</ele>
        <time>2021-05-20T06:45:16Z</time>
      </trkpt>
      <trkpt lat="42.1602220" lon="-8.8004880">
        <ele>133.1</ele>
        <time>2021-05-20T06:45:17Z</time>
      </trkpt>
      <trkpt lat="42.1602220" lon="-8.8004900">
        <ele>133.1</ele>
        <time>2021-05-20T06:45:18Z</time>
      </trkpt>
      <trkpt lat="42.1602230" lon="-8.8004910">
        <ele>133.1</ele>
        <time>2021-05-20T06:45:19Z</time>
      </trkpt>
      <trkpt lat="42.1602230" lon="-8.8004920">
        <ele>133.1</ele>
        <time>2021-05-20T06:45:20Z</time>
      </trkpt>
      <trkpt lat="42.1602240" lon="-8.8004940">
        <ele>133.1</ele>
        <time>2021-05-20T06:45:21Z</time>
      </trkpt>
      <trkpt lat="42.1602240" lon="-8.8004950">
        <ele>133.1</ele>
        <time>2021-05-20T06:45:22Z</time>
      </trkpt>
      <trkpt lat="42.1602250" lon="-8.8004970">
        <ele>133.1</ele>
        <time>2021-05-20T06:45:23Z</time>
      </trkpt>
      <trkpt lat="42.1602250" lon="-8.8004980">
        <ele>133.1</ele>
        <time>2021-05-20T06:45:24Z</time>
      </trkpt>
      <trkpt lat="42.1602260" lon="-8.8004990">
        <ele>133.1</ele>
        <time>2021-05-20T06:45:25Z</time>
      </trkpt>
      <trkpt lat="42.1602260" lon="-8.8005010">
        <ele>133.1</ele>
        <time>2021-05-20T06:45:26Z</time>
      </trkpt>
      <trkpt lat="42.1602260" lon="-8.8005020">
        <ele>133.1</ele>
        <time>2021-05-20T06:45:27Z</time>
      </trkpt>
      <trkpt lat="42.1602270" lon="-8.8005030">
        <ele>133.1</ele>
        <time>2021-05-20T06:45:28Z</time>
      </trkpt>
      <trkpt lat="42.1602270" lon="-8.8005050">
        <ele>133.1</ele>
        <time>2021-05-20T06:45:29Z</time>
      </trkpt>
      <trkpt lat="42.1602280" lon="-8.8005060">
        <ele>133.1</ele>
        <time>2021-05-20T06:45:30Z</time>
      </trkpt>
      <trkpt lat="42.1602280" lon="-8.8005080">
        <ele>133.1</ele>
        <time>2021-05-20T06:45:31Z</time>
      </trkpt>
      <trkpt lat="42.1602290" lon="-8.8005090">
        <ele>133.1</ele>
        <time>2021-05-20T06:45:32Z</time>
      </trkpt>
      <trkpt lat="42.1602290" lon="-8.8005100">
        <ele>133.1</ele>
        <time>2021-05-20T06:45:33Z</time>
      </trkpt>
      <trkpt lat="42.1602290" lon="-8.8005120">
        <ele>133.1</ele>
        <time>2021-05-20T06:45:34Z</time>
      </trkpt>
      <trkpt lat="42.1602300" lon="-8.8005130">
        <ele>133.1</ele>
        <time>2021-05-20T06:45:35Z</time>
      </trkpt>
      <trkpt lat="42.1602300" lon="-8.8005150">
        <ele>133.1</ele>
        <time>2021-05-20T06:45:36Z</time>
      </trkpt>
      <trkpt lat="42.1602310" lon="-8.8005160">
        <ele>133.1</ele>
        <time>2021-05-20T06:45:37Z</time>
      </trkpt>
      <trkpt lat="42.1602310" lon="-8.8005170">
        <ele>133.1</ele>
        <time>2021-05-20T06:45:38Z</time>
      </trkpt>
      <trkpt lat="42.1602320" lon="-8.8005190">
        <ele>133.1</ele>
        <time>2021-05-20T06:45:39Z</time>
      </trkpt>
      <trkpt lat="42.1602320" lon="-8.8005200">
        <ele>133.1</ele>
        <time>2021-05-20T06:45:40Z</time>
      </trkpt>
      <trkpt lat="42.1602320" lon="-8.8005210">
        <ele>133.1</ele>
        <time>2021-05-20T06:45:41Z</time>
      </trkpt>
      <trkpt lat="42.1602330" lon="-8.8005230">
        <ele>133.1</ele>
        <time>2021-05-20T06:45:42Z</time>
      </trkpt>
      <trkpt lat="42.1602330" lon="-8.8005240">
        <ele>133.1</ele>
        <time>2021-05-20T06:45:43Z</time>
      </trkpt>
      <trkpt lat="42.1602340" lon="-8.8005260">
        <ele>133.1</ele>
        <time>2021-05-20T06:45:44Z</time>
      </trkpt>
      <trkpt lat="42.1602340" lon="-8.8005270">
        <ele>133.1</ele>
        <time>2021-05-20T06:45:45Z</time>
      </trkpt>
      <trkpt lat="42.1602350" lon="-8.8005280">
        <ele>133.1</ele>
        <time>2021-05-20T06:45:46Z</time>
      </trkpt>
      <trkpt lat="42.1602350" lon="-8.8005300">
        <ele>133.1</ele>
        <time>2021-05-20T06:45:47Z</time>
      </trkpt>
      <trkpt lat="42.1602350" lon="-8.8005310">
        <ele>133.1</ele>
        <time>2021-05-20T06:45:48Z</time>
      </trkpt>
      <trkpt lat="42.1602360" lon="-8.8005320">
        <ele>133.1</ele>
        <time>2021-05-20T06:45:49Z</time>
      </trkpt>
      <trkpt lat="42.1602360" lon="-8.8005340">
        <ele>133.1</ele>
        <time>2021-05-20T06:45:50Z</time>
      </trkpt>
      <trkpt lat="42.1602370" lon="-8.8005350">
        <ele>133.1</ele>
        <time>2021-05-20T06:45:51Z</time>
      </trkpt>
      <trkpt lat="42.1602370" lon="-8.8005370">
        <ele>133.1</ele>
        <time>2021-05-20T06:45:52Z</time>
      </trkpt>
      <trkpt lat="42.1602380" lon="-8.8005380">
        <ele>133.1</ele>
        <time>2021-05-20T06:45:53Z</time>
      </trkpt>
      <trkpt lat="42.1602380" lon="-8.8005390">
        <ele>133.1</ele>
        <time>2021-05-20T06:45:54Z</time>
      </trkpt>
      <trkpt lat="42.1602380" lon="-8.8005410">
        <ele>133.1</ele>
        <time>2021-05-20T06:45:55Z</time>
      </trkpt>
      <trkpt lat="42.1602390" lon="-8.8005420">
        <ele>133.1</ele>
        <time>2021-05-20T06:45:56Z</time>
      </trkpt>
      <trkpt lat="42.1602390" lon="-8.8005430">
        <ele>133.1</ele>
        <time>2021-05-20T06:45:57Z</time>
      </trkpt>
      <trkpt lat="42.1602400" lon="-8.8005450">
        <ele>133.1</ele>
        <time>2021-05-20T06:45:58Z</time>
      </trkpt>
      <trkpt lat="42.1602400" lon="-8.8005460">
        <ele>133.1</ele>
        <time>2021-05-20T06:45:59Z</time>
      </trkpt>
      <trkpt lat="42.1602410" lon="-8.8005480">
        <ele>133.1</ele>
        <time>2021-05-20T06:46:00Z</time>
      </trkpt>
      <trkpt lat="42.1602410" lon="-8.8005490">
        <ele>133.1</ele>
        <time>2021-05-20T06:46:01Z</time>
      </trkpt>
      <trkpt lat="42.1602410" lon="-8.8005520">
        <ele>133.1</ele>
        <time>2021-05-20T06:46:02Z</time>
      </trkpt>
      <trkpt lat="42.1602360" lon="-8.8005580">
        <ele>133.1</ele>
        <time>2021-05-20T06:46:03Z</time>
      </trkpt>
      <trkpt lat="42.1602340" lon="-8.8005580">
        <ele>133.1</ele>
        <time>2021-05-20T06:46:04Z</time>
      </trkpt>
      <trkpt lat="42.1602310" lon="-8.8005570">
        <ele>133.1</ele>
        <time>2021-05-20T06:46:05Z</time>
      </trkpt>
      <trkpt lat="42.1602300" lon="-8.8005580">
        <ele>133.1</ele>
        <time>2021-05-20T06:46:06Z</time>
      </trkpt>
      <trkpt lat="42.1602280" lon="-8.8005550">
        <ele>133.1</ele>
        <time>2021-05-20T06:46:07Z</time>
      </trkpt>
      <trkpt lat="42.1602270" lon="-8.8005560">
        <ele>133.1</ele>
        <time>2021-05-20T06:46:08Z</time>
      </trkpt>
      <trkpt lat="42.1602280" lon="-8.8005570">
        <ele>133.1</ele>
        <time>2021-05-20T06:46:09Z</time>
      </trkpt>
      <trkpt lat="42.1602270" lon="-8.8005550">
        <ele>133.1</ele>
        <time>2021-05-20T06:46:10Z</time>
      </trkpt>
      <trkpt lat="42.1602260" lon="-8.8005530">
        <ele>133.1</ele>
        <time>2021-05-20T06:46:11Z</time>
      </trkpt>
      <trkpt lat="42.1602250" lon="-8.8005530">
        <ele>133.1</ele>
        <time>2021-05-20T06:46:12Z</time>
      </trkpt>
      <trkpt lat="42.1602260" lon="-8.8005550">
        <ele>133.1</ele>
        <time>2021-05-20T06:46:13Z</time>
      </trkpt>
      <trkpt lat="42.1602250" lon="-8.8005580">
        <ele>133.1</ele>
        <time>2021-05-20T06:46:14Z</time>
      </trkpt>
      <trkpt lat="42.1602260" lon="-8.8005590">
        <ele>133.1</ele>
        <time>2021-05-20T06:46:15Z</time>
      </trkpt>
      <trkpt lat="42.1602250" lon="-8.8005590">
        <ele>133.1</ele>
        <time>2021-05-20T06:46:16Z</time>
      </trkpt>
      <trkpt lat="42.1602240" lon="-8.8005640">
        <ele>133.1</ele>
        <time>2021-05-20T06:46:17Z</time>
      </trkpt>
      <trkpt lat="42.1602250" lon="-8.8005740">
        <ele>133.1</ele>
        <time>2021-05-20T06:46:18Z</time>
      </trkpt>
      <trkpt lat="42.1602250" lon="-8.8005840">
        <ele>133.1</ele>
        <time>2021-05-20T06:46:19Z</time>
      </trkpt>
      <trkpt lat="42.1602230" lon="-8.8005920">
        <ele>133.1</ele>
        <time>2021-05-20T06:46:20Z</time>
      </trkpt>
      <trkpt lat="42.1602200" lon="-8.8005970">
        <ele>133.1</ele>
        <time>2021-05-20T06:46:21Z</time>
      </trkpt>
      <trkpt lat="42.1602200" lon="-8.8006050">
        <ele>133.1</ele>
        <time>2021-05-20T06:46:22Z</time>
      </trkpt>
      <trkpt lat="42.1602190" lon="-8.8006100">
        <ele>133.1</ele>
        <time>2021-05-20T06:46:23Z</time>
      </trkpt>
      <trkpt lat="42.1602180" lon="-8.8006120">
        <ele>133.1</ele>
        <time>2021-05-20T06:46:24Z</time>
      </trkpt>
      <trkpt lat="42.1602140" lon="-8.8006070">
        <ele>133.1</ele>
        <time>2021-05-20T06:46:25Z</time>
      </trkpt>
      <trkpt lat="42.1602140" lon="-8.8006080">
        <ele>133.1</ele>
        <time>2021-05-20T06:46:26Z</time>
      </trkpt>
      <trkpt lat="42.1602140" lon="-8.8006130">
        <ele>133.1</ele>
        <time>2021-05-20T06:46:27Z</time>
      </trkpt>
      <trkpt lat="42.1602140" lon="-8.8006160">
        <ele>133.1</ele>
        <time>2021-05-20T06:46:28Z</time>
      </trkpt>
      <trkpt lat="42.1602150" lon="-8.8006200">
        <ele>133.1</ele>
        <time>2021-05-20T06:46:29Z</time>
      </trkpt>
      <trkpt lat="42.1602170" lon="-8.8006120">
        <ele>133.1</ele>
        <time>2021-05-20T06:46:30Z</time>
      </trkpt>
      <trkpt lat="42.1602170" lon="-8.8006070">
        <ele>133.1</ele>
        <time>2021-05-20T06:46:31Z</time>
      </trkpt>
      <trkpt lat="42.1602180" lon="-8.8006020">
        <ele>133.1</ele>
        <time>2021-05-20T06:46:32Z</time>
      </trkpt>
      <trkpt lat="42.1602180" lon="-8.8005970">
        <ele>133.1</ele>
        <time>2021-05-20T06:46:33Z</time>
      </trkpt>
      <trkpt lat="42.1602180" lon="-8.8005910">
        <ele>133.1</ele>
        <time>2021-05-20T06:46:34Z</time>
      </trkpt>
      <trkpt lat="42.1602180" lon="-8.8005860">
        <ele>133.1</ele>
        <time>2021-05-20T06:46:35Z</time>
      </trkpt>
      <trkpt lat="42.1602190" lon="-8.8005810">
        <ele>133.1</ele>
        <time>2021-05-20T06:46:36Z</time>
      </trkpt>
      <trkpt lat="42.1602190" lon="-8.8005760">
        <ele>133.1</ele>
        <time>2021-05-20T06:46:37Z</time>
      </trkpt>
      <trkpt lat="42.1602190" lon="-8.8005710">
        <ele>133.1</ele>
        <time>2021-05-20T06:46:38Z</time>
      </trkpt>
      <trkpt lat="42.1602200" lon="-8.8005610">
        <ele>133.1</ele>
        <time>2021-05-20T06:46:39Z</time>
      </trkpt>
      <trkpt lat="42.1602180" lon="-8.8005560">
        <ele>133.1</ele>
        <time>2021-05-20T06:46:40Z</time>
      </trkpt>
      <trkpt lat="42.1602140" lon="-8.8005420">
        <ele>133.1</ele>
        <time>2021-05-20T06:46:41Z</time>
      </trkpt>
      <trkpt lat="42.1602120" lon="-8.8005380">
        <ele>133.1</ele>
        <time>2021-05-20T06:46:42Z</time>
      </trkpt>
      <trkpt lat="42.1602100" lon="-8.8005350">
        <ele>133.1</ele>
        <time>2021-05-20T06:46:43Z</time>
      </trkpt>
      <trkpt lat="42.1602070" lon="-8.8005300">
        <ele>133.1</ele>
        <time>2021-05-20T06:46:44Z</time>
      </trkpt>
      <trkpt lat="42.1602070" lon="-8.8005300">
        <ele>133.1</ele>
        <time>2021-05-20T06:46:45Z</time>
      </trkpt>
      <trkpt lat="42.1602070" lon="-8.8005310">
        <ele>133.1</ele>
        <time>2021-05-20T06:46:46Z</time>
      </trkpt>
      <trkpt lat="42.1602070" lon="-8.8005310">
        <ele>133.1</ele>
        <time>2021-05-20T06:46:47Z</time>
      </trkpt>
      <trkpt lat="42.1602070" lon="-8.8005310">
        <ele>133.1</ele>
        <time>2021-05-20T06:46:49Z</time>
      </trkpt>
      <trkpt lat="42.1602070" lon="-8.8005310">
        <ele>133.1</ele>
        <time>2021-05-20T06:46:50Z</time>
      </trkpt>
      <trkpt lat="42.1602070" lon="-8.8005320">
        <ele>133.1</ele>
        <time>2021-05-20T06:46:51Z</time>
      </trkpt>
      <trkpt lat="42.1602070" lon="-8.8005320">
        <ele>133.1</ele>
        <time>2021-05-20T06:46:52Z</time>
      </trkpt>
      <trkpt lat="42.1602070" lon="-8.8005320">
        <ele>133.1</ele>
        <time>2021-05-20T06:46:53Z</time>
      </trkpt>
      <trkpt lat="42.1602070" lon="-8.8005320">
        <ele>133.1</ele>
        <time>2021-05-20T06:46:54Z</time>
      </trkpt>
      <trkpt lat="42.1602070" lon="-8.8005330">
        <ele>133.1</ele>
        <time>2021-05-20T06:46:55Z</time>
      </trkpt>
      <trkpt lat="42.1602070" lon="-8.8005330">
        <ele>133.1</ele>
        <time>2021-05-20T06:46:56Z</time>
      </trkpt>
      <trkpt lat="42.1602070" lon="-8.8005330">
        <ele>133.1</ele>
        <time>2021-05-20T06:46:57Z</time>
      </trkpt>
      <trkpt lat="42.1602070" lon="-8.8005330">
        <ele>133.1</ele>
        <time>2021-05-20T06:46:58Z</time>
      </trkpt>
      <trkpt lat="42.1602070" lon="-8.8005340">
        <ele>133.1</ele>
        <time>2021-05-20T06:46:59Z</time>
      </trkpt>
      <trkpt lat="42.1602070" lon="-8.8005340">
        <ele>133.1</ele>
        <time>2021-05-20T06:47:00Z</time>
      </trkpt>
      <trkpt lat="42.1602070" lon="-8.8005340">
        <ele>133.1</ele>
        <time>2021-05-20T06:47:01Z</time>
      </trkpt>
      <trkpt lat="42.1602070" lon="-8.8005340">
        <ele>133.1</ele>
        <time>2021-05-20T06:47:02Z</time>
      </trkpt>
      <trkpt lat="42.1602070" lon="-8.8005350">
        <ele>133.1</ele>
        <time>2021-05-20T06:47:03Z</time>
      </trkpt>
      <trkpt lat="42.1602070" lon="-8.8005350">
        <ele>133.1</ele>
        <time>2021-05-20T06:47:04Z</time>
      </trkpt>
      <trkpt lat="42.1602070" lon="-8.8005350">
        <ele>133.1</ele>
        <time>2021-05-20T06:47:05Z</time>
      </trkpt>
      <trkpt lat="42.1602070" lon="-8.8005350">
        <ele>133.1</ele>
        <time>2021-05-20T06:47:06Z</time>
      </trkpt>
      <trkpt lat="42.1602070" lon="-8.8005360">
        <ele>133.1</ele>
        <time>2021-05-20T06:47:07Z</time>
      </trkpt>
      <trkpt lat="42.1602070" lon="-8.8005360">
        <ele>133.1</ele>
        <time>2021-05-20T06:47:08Z</time>
      </trkpt>
      <trkpt lat="42.1602070" lon="-8.8005360">
        <ele>133.1</ele>
        <time>2021-05-20T06:47:09Z</time>
      </trkpt>
      <trkpt lat="42.1602070" lon="-8.8005360">
        <ele>133.1</ele>
        <time>2021-05-20T06:47:10Z</time>
      </trkpt>
      <trkpt lat="42.1602070" lon="-8.8005370">
        <ele>133.1</ele>
        <time>2021-05-20T06:47:11Z</time>
      </trkpt>
      <trkpt lat="42.1602070" lon="-8.8005370">
        <ele>133.1</ele>
        <time>2021-05-20T06:47:12Z</time>
      </trkpt>
      <trkpt lat="42.1602070" lon="-8.8005370">
        <ele>133.1</ele>
        <time>2021-05-20T06:47:13Z</time>
      </trkpt>
      <trkpt lat="42.1602070" lon="-8.8005370">
        <ele>133.1</ele>
        <time>2021-05-20T06:47:14Z</time>
      </trkpt>
      <trkpt lat="42.1602070" lon="-8.8005380">
        <ele>133.1</ele>
        <time>2021-05-20T06:47:15Z</time>
      </trkpt>
      <trkpt lat="42.1602070" lon="-8.8005380">
        <ele>133.1</ele>
        <time>2021-05-20T06:47:16Z</time>
      </trkpt>
      <trkpt lat="42.1602070" lon="-8.8005380">
        <ele>133.1</ele>
        <time>2021-05-20T06:47:17Z</time>
      </trkpt>
      <trkpt lat="42.1602070" lon="-8.8005380">
        <ele>133.1</ele>
        <time>2021-05-20T06:47:18Z</time>
      </trkpt>
      <trkpt lat="42.1602070" lon="-8.8005390">
        <ele>133.1</ele>
        <time>2021-05-20T06:47:19Z</time>
      </trkpt>
      <trkpt lat="42.1602070" lon="-8.8005390">
        <ele>133.1</ele>
        <time>2021-05-20T06:47:20Z</time>
      </trkpt>
      <trkpt lat="42.1602070" lon="-8.8005390">
        <ele>133.1</ele>
        <time>2021-05-20T06:47:21Z</time>
      </trkpt>
      <trkpt lat="42.1602070" lon="-8.8005390">
        <ele>133.1</ele>
        <time>2021-05-20T06:47:22Z</time>
      </trkpt>
      <trkpt lat="42.1602070" lon="-8.8005400">
        <ele>133.1</ele>
        <time>2021-05-20T06:47:23Z</time>
      </trkpt>
      <trkpt lat="42.1602070" lon="-8.8005400">
        <ele>133.1</ele>
        <time>2021-05-20T06:47:24Z</time>
      </trkpt>
      <trkpt lat="42.1602070" lon="-8.8005400">
        <ele>133.1</ele>
        <time>2021-05-20T06:47:25Z</time>
      </trkpt>
      <trkpt lat="42.1602070" lon="-8.8005400">
        <ele>133.1</ele>
        <time>2021-05-20T06:47:26Z</time>
      </trkpt>
      <trkpt lat="42.1602070" lon="-8.8005410">
        <ele>133.1</ele>
        <time>2021-05-20T06:47:27Z</time>
      </trkpt>
      <trkpt lat="42.1602070" lon="-8.8005410">
        <ele>133.1</ele>
        <time>2021-05-20T06:47:28Z</time>
      </trkpt>
      <trkpt lat="42.1602070" lon="-8.8005410">
        <ele>133.1</ele>
        <time>2021-05-20T06:47:29Z</time>
      </trkpt>
      <trkpt lat="42.1602070" lon="-8.8005410">
        <ele>133.1</ele>
        <time>2021-05-20T06:47:30Z</time>
      </trkpt>
      <trkpt lat="42.1602070" lon="-8.8005420">
        <ele>133.1</ele>
        <time>2021-05-20T06:47:31Z</time>
      </trkpt>
      <trkpt lat="42.1602070" lon="-8.8005420">
        <ele>133.1</ele>
        <time>2021-05-20T06:47:32Z</time>
      </trkpt>
      <trkpt lat="42.1602070" lon="-8.8005420">
        <ele>133.1</ele>
        <time>2021-05-20T06:47:33Z</time>
      </trkpt>
      <trkpt lat="42.1602070" lon="-8.8005420">
        <ele>133.1</ele>
        <time>2021-05-20T06:47:34Z</time>
      </trkpt>
      <trkpt lat="42.1602080" lon="-8.8005430">
        <ele>133.1</ele>
        <time>2021-05-20T06:47:35Z</time>
      </trkpt>
      <trkpt lat="42.1602080" lon="-8.8005430">
        <ele>133.1</ele>
        <time>2021-05-20T06:47:36Z</time>
      </trkpt>
      <trkpt lat="42.1602080" lon="-8.8005430">
        <ele>133.1</ele>
        <time>2021-05-20T06:47:37Z</time>
      </trkpt>
      <trkpt lat="42.1602080" lon="-8.8005430">
        <ele>133.1</ele>
        <time>2021-05-20T06:47:38Z</time>
      </trkpt>
      <trkpt lat="42.1602080" lon="-8.8005440">
        <ele>133.1</ele>
        <time>2021-05-20T06:47:39Z</time>
      </trkpt>
      <trkpt lat="42.1602080" lon="-8.8005440">
        <ele>133.1</ele>
        <time>2021-05-20T06:47:40Z</time>
      </trkpt>
      <trkpt lat="42.1602080" lon="-8.8005440">
        <ele>133.1</ele>
        <time>2021-05-20T06:47:41Z</time>
      </trkpt>
      <trkpt lat="42.1602080" lon="-8.8005440">
        <ele>133.1</ele>
        <time>2021-05-20T06:47:42Z</time>
      </trkpt>
      <trkpt lat="42.1602080" lon="-8.8005450">
        <ele>133.1</ele>
        <time>2021-05-20T06:47:43Z</time>
      </trkpt>
      <trkpt lat="42.1602080" lon="-8.8005450">
        <ele>133.1</ele>
        <time>2021-05-20T06:47:44Z</time>
      </trkpt>
      <trkpt lat="42.1602080" lon="-8.8005450">
        <ele>133.1</ele>
        <time>2021-05-20T06:47:45Z</time>
      </trkpt>
      <trkpt lat="42.1602080" lon="-8.8005450">
        <ele>133.1</ele>
        <time>2021-05-20T06:47:46Z</time>
      </trkpt>
      <trkpt lat="42.1602080" lon="-8.8005460">
        <ele>133.1</ele>
        <time>2021-05-20T06:47:47Z</time>
      </trkpt>
      <trkpt lat="42.1602080" lon="-8.8005460">
        <ele>133.1</ele>
        <time>2021-05-20T06:47:48Z</time>
      </trkpt>
      <trkpt lat="42.1602080" lon="-8.8005460">
        <ele>133.1</ele>
        <time>2021-05-20T06:47:49Z</time>
      </trkpt>
      <trkpt lat="42.1602080" lon="-8.8005460">
        <ele>133.1</ele>
        <time>2021-05-20T06:47:50Z</time>
      </trkpt>
      <trkpt lat="42.1602080" lon="-8.8005460">
        <ele>133.1</ele>
        <time>2021-05-20T06:47:51Z</time>
      </trkpt>
      <trkpt lat="42.1602080" lon="-8.8005470">
        <ele>133.1</ele>
        <time>2021-05-20T06:47:52Z</time>
      </trkpt>
      <trkpt lat="42.1602080" lon="-8.8005470">
        <ele>133.1</ele>
        <time>2021-05-20T06:47:53Z</time>
      </trkpt>
      <trkpt lat="42.1602080" lon="-8.8005470">
        <ele>133.1</ele>
        <time>2021-05-20T06:47:54Z</time>
      </trkpt>
      <trkpt lat="42.1602080" lon="-8.8005470">
        <ele>133.1</ele>
        <time>2021-05-20T06:47:55Z</time>
      </trkpt>
      <trkpt lat="42.1602080" lon="-8.8005480">
        <ele>133.1</ele>
        <time>2021-05-20T06:47:56Z</time>
      </trkpt>
      <trkpt lat="42.1602080" lon="-8.8005480">
        <ele>133.1</ele>
        <time>2021-05-20T06:47:57Z</time>
      </trkpt>
      <trkpt lat="42.1602080" lon="-8.8005480">
        <ele>133.1</ele>
        <time>2021-05-20T06:47:58Z</time>
      </trkpt>
      <trkpt lat="42.1602080" lon="-8.8005480">
        <ele>133.1</ele>
        <time>2021-05-20T06:47:59Z</time>
      </trkpt>
      <trkpt lat="42.1602080" lon="-8.8005490">
        <ele>133.1</ele>
        <time>2021-05-20T06:48:00Z</time>
      </trkpt>
      <trkpt lat="42.1602080" lon="-8.8005490">
        <ele>133.1</ele>
        <time>2021-05-20T06:48:01Z</time>
      </trkpt>
      <trkpt lat="42.1602080" lon="-8.8005490">
        <ele>133.1</ele>
        <time>2021-05-20T06:48:02Z</time>
      </trkpt>
      <trkpt lat="42.1602080" lon="-8.8005490">
        <ele>133.1</ele>
        <time>2021-05-20T06:48:03Z</time>
      </trkpt>
      <trkpt lat="42.1602080" lon="-8.8005500">
        <ele>133.1</ele>
        <time>2021-05-20T06:48:04Z</time>
      </trkpt>
      <trkpt lat="42.1602080" lon="-8.8005500">
        <ele>133.1</ele>
        <time>2021-05-20T06:48:05Z</time>
      </trkpt>
      <trkpt lat="42.1602080" lon="-8.8005500">
        <ele>133.1</ele>
        <time>2021-05-20T06:48:06Z</time>
      </trkpt>
      <trkpt lat="42.1602080" lon="-8.8005500">
        <ele>133.1</ele>
        <time>2021-05-20T06:48:07Z</time>
      </trkpt>
      <trkpt lat="42.1602080" lon="-8.8005510">
        <ele>133.1</ele>
        <time>2021-05-20T06:48:08Z</time>
      </trkpt>
      <trkpt lat="42.1602080" lon="-8.8005510">
        <ele>133.1</ele>
        <time>2021-05-20T06:48:09Z</time>
      </trkpt>
      <trkpt lat="42.1602080" lon="-8.8005510">
        <ele>133.1</ele>
        <time>2021-05-20T06:48:10Z</time>
      </trkpt>
      <trkpt lat="42.1602080" lon="-8.8005510">
        <ele>133.1</ele>
        <time>2021-05-20T06:48:11Z</time>
      </trkpt>
      <trkpt lat="42.1602080" lon="-8.8005520">
        <ele>133.1</ele>
        <time>2021-05-20T06:48:12Z</time>
      </trkpt>
      <trkpt lat="42.1602080" lon="-8.8005520">
        <ele>133.1</ele>
        <time>2021-05-20T06:48:13Z</time>
      </trkpt>
      <trkpt lat="42.1602080" lon="-8.8005520">
        <ele>133.1</ele>
        <time>2021-05-20T06:48:14Z</time>
      </trkpt>
      <trkpt lat="42.1602080" lon="-8.8005520">
        <ele>133.1</ele>
        <time>2021-05-20T06:48:15Z</time>
      </trkpt>
      <trkpt lat="42.1602080" lon="-8.8005530">
        <ele>133.1</ele>
        <time>2021-05-20T06:48:16Z</time>
      </trkpt>
      <trkpt lat="42.1602080" lon="-8.8005530">
        <ele>133.1</ele>
        <time>2021-05-20T06:48:17Z</time>
      </trkpt>
      <trkpt lat="42.1602080" lon="-8.8005530">
        <ele>133.1</ele>
        <time>2021-05-20T06:48:18Z</time>
      </trkpt>
      <trkpt lat="42.1602080" lon="-8.8005530">
        <ele>133.1</ele>
        <time>2021-05-20T06:48:19Z</time>
      </trkpt>
      <trkpt lat="42.1602080" lon="-8.8005540">
        <ele>133.1</ele>
        <time>2021-05-20T06:48:20Z</time>
      </trkpt>
      <trkpt lat="42.1602080" lon="-8.8005540">
        <ele>133.1</ele>
        <time>2021-05-20T06:48:21Z</time>
      </trkpt>
      <trkpt lat="42.1602080" lon="-8.8005540">
        <ele>133.1</ele>
        <time>2021-05-20T06:48:22Z</time>
      </trkpt>
      <trkpt lat="42.1602080" lon="-8.8005540">
        <ele>133.1</ele>
        <time>2021-05-20T06:48:23Z</time>
      </trkpt>
      <trkpt lat="42.1602080" lon="-8.8005550">
        <ele>133.1</ele>
        <time>2021-05-20T06:48:24Z</time>
      </trkpt>
      <trkpt lat="42.1602080" lon="-8.8005550">
        <ele>133.1</ele>
        <time>2021-05-20T06:48:25Z</time>
      </trkpt>
      <trkpt lat="42.1602080" lon="-8.8005550">
        <ele>133.1</ele>
        <time>2021-05-20T06:48:26Z</time>
      </trkpt>
      <trkpt lat="42.1602080" lon="-8.8005550">
        <ele>133.1</ele>
        <time>2021-05-20T06:48:27Z</time>
      </trkpt>
      <trkpt lat="42.1602080" lon="-8.8005560">
        <ele>133.1</ele>
        <time>2021-05-20T06:48:29Z</time>
      </trkpt>
      <trkpt lat="42.1602080" lon="-8.8005560">
        <ele>133.1</ele>
        <time>2021-05-20T06:48:30Z</time>
      </trkpt>
      <trkpt lat="42.1602080" lon="-8.8005560">
        <ele>133.1</ele>
        <time>2021-05-20T06:48:31Z</time>
      </trkpt>
      <trkpt lat="42.1602080" lon="-8.8005560">
        <ele>133.1</ele>
        <time>2021-05-20T06:48:32Z</time>
      </trkpt>
      <trkpt lat="42.1602080" lon="-8.8005570">
        <ele>133.1</ele>
        <time>2021-05-20T06:48:33Z</time>
      </trkpt>
      <trkpt lat="42.1602080" lon="-8.8005570">
        <ele>133.1</ele>
        <time>2021-05-20T06:48:34Z</time>
      </trkpt>
      <trkpt lat="42.1602080" lon="-8.8005570">
        <ele>133.1</ele>
        <time>2021-05-20T06:48:35Z</time>
      </trkpt>
      <trkpt lat="42.1602080" lon="-8.8005570">
        <ele>133.1</ele>
        <time>2021-05-20T06:48:36Z</time>
      </trkpt>
      <trkpt lat="42.1602080" lon="-8.8005580">
        <ele>133.1</ele>
        <time>2021-05-20T06:48:37Z</time>
      </trkpt>
      <trkpt lat="42.1602080" lon="-8.8005580">
        <ele>133.1</ele>
        <time>2021-05-20T06:48:38Z</time>
      </trkpt>
      <trkpt lat="42.1602080" lon="-8.8005580">
        <ele>133.1</ele>
        <time>2021-05-20T06:48:39Z</time>
      </trkpt>
      <trkpt lat="42.1602080" lon="-8.8005580">
        <ele>133.1</ele>
        <time>2021-05-20T06:48:40Z</time>
      </trkpt>
      <trkpt lat="42.1602080" lon="-8.8005590">
        <ele>133.1</ele>
        <time>2021-05-20T06:48:41Z</time>
      </trkpt>
      <trkpt lat="42.1602080" lon="-8.8005590">
        <ele>133.1</ele>
        <time>2021-05-20T06:48:42Z</time>
      </trkpt>
      <trkpt lat="42.1602080" lon="-8.8005590">
        <ele>133.1</ele>
        <time>2021-05-20T06:48:43Z</time>
      </trkpt>
      <trkpt lat="42.1602080" lon="-8.8005590">
        <ele>133.1</ele>
        <time>2021-05-20T06:48:44Z</time>
      </trkpt>
      <trkpt lat="42.1602080" lon="-8.8005600">
        <ele>133.1</ele>
        <time>2021-05-20T06:48:45Z</time>
      </trkpt>
      <trkpt lat="42.1602080" lon="-8.8005600">
        <ele>133.1</ele>
        <time>2021-05-20T06:48:46Z</time>
      </trkpt>
      <trkpt lat="42.1602080" lon="-8.8005600">
        <ele>133.1</ele>
        <time>2021-05-20T06:48:47Z</time>
      </trkpt>
      <trkpt lat="42.1602080" lon="-8.8005600">
        <ele>133.1</ele>
        <time>2021-05-20T06:48:48Z</time>
      </trkpt>
      <trkpt lat="42.1602080" lon="-8.8005610">
        <ele>133.1</ele>
        <time>2021-05-20T06:48:49Z</time>
      </trkpt>
      <trkpt lat="42.1602080" lon="-8.8005610">
        <ele>133.1</ele>
        <time>2021-05-20T06:48:50Z</time>
      </trkpt>
      <trkpt lat="42.1602080" lon="-8.8005610">
        <ele>133.1</ele>
        <time>2021-05-20T06:48:51Z</time>
      </trkpt>
      <trkpt lat="42.1602080" lon="-8.8005610">
        <ele>133.1</ele>
        <time>2021-05-20T06:48:52Z</time>
      </trkpt>
      <trkpt lat="42.1602080" lon="-8.8005620">
        <ele>133.1</ele>
        <time>2021-05-20T06:48:53Z</time>
      </trkpt>
      <trkpt lat="42.1602080" lon="-8.8005620">
        <ele>133.1</ele>
        <time>2021-05-20T06:48:54Z</time>
      </trkpt>
      <trkpt lat="42.1602080" lon="-8.8005620">
        <ele>133.1</ele>
        <time>2021-05-20T06:48:55Z</time>
      </trkpt>
      <trkpt lat="42.1602080" lon="-8.8005620">
        <ele>133.1</ele>
        <time>2021-05-20T06:48:56Z</time>
      </trkpt>
      <trkpt lat="42.1602080" lon="-8.8005630">
        <ele>133.1</ele>
        <time>2021-05-20T06:48:57Z</time>
      </trkpt>
      <trkpt lat="42.1602080" lon="-8.8005630">
        <ele>133.1</ele>
        <time>2021-05-20T06:48:58Z</time>
      </trkpt>
      <trkpt lat="42.1602080" lon="-8.8005630">
        <ele>133.1</ele>
        <time>2021-05-20T06:48:59Z</time>
      </trkpt>
      <trkpt lat="42.1602080" lon="-8.8005630">
        <ele>133.1</ele>
        <time>2021-05-20T06:49:00Z</time>
      </trkpt>
      <trkpt lat="42.1602080" lon="-8.8005630">
        <ele>133.1</ele>
        <time>2021-05-20T06:49:01Z</time>
      </trkpt>
      <trkpt lat="42.1602080" lon="-8.8005640">
        <ele>133.1</ele>
        <time>2021-05-20T06:49:02Z</time>
      </trkpt>
      <trkpt lat="42.1602080" lon="-8.8005640">
        <ele>133.1</ele>
        <time>2021-05-20T06:49:03Z</time>
      </trkpt>
      <trkpt lat="42.1602080" lon="-8.8005640">
        <ele>133.1</ele>
        <time>2021-05-20T06:49:04Z</time>
      </trkpt>
      <trkpt lat="42.1602080" lon="-8.8005640">
        <ele>133.1</ele>
        <time>2021-05-20T06:49:05Z</time>
      </trkpt>
      <trkpt lat="42.1602080" lon="-8.8005650">
        <ele>133.1</ele>
        <time>2021-05-20T06:49:06Z</time>
      </trkpt>
      <trkpt lat="42.1602080" lon="-8.8005650">
        <ele>133.1</ele>
        <time>2021-05-20T06:49:07Z</time>
      </trkpt>
      <trkpt lat="42.1602080" lon="-8.8005650">
        <ele>133.1</ele>
        <time>2021-05-20T06:49:08Z</time>
      </trkpt>
      <trkpt lat="42.1602080" lon="-8.8005650">
        <ele>133.1</ele>
        <time>2021-05-20T06:49:09Z</time>
      </trkpt>
      <trkpt lat="42.1602080" lon="-8.8005660">
        <ele>133.1</ele>
        <time>2021-05-20T06:49:10Z</time>
      </trkpt>
      <trkpt lat="42.1602080" lon="-8.8005660">
        <ele>133.1</ele>
        <time>2021-05-20T06:49:11Z</time>
      </trkpt>
      <trkpt lat="42.1602080" lon="-8.8005660">
        <ele>133.1</ele>
        <time>2021-05-20T06:49:12Z</time>
      </trkpt>
      <trkpt lat="42.1602080" lon="-8.8005660">
        <ele>133.1</ele>
        <time>2021-05-20T06:49:13Z</time>
      </trkpt>
      <trkpt lat="42.1602080" lon="-8.8005670">
        <ele>133.1</ele>
        <time>2021-05-20T06:49:14Z</time>
      </trkpt>
      <trkpt lat="42.1602080" lon="-8.8005670">
        <ele>133.1</ele>
        <time>2021-05-20T06:49:15Z</time>
      </trkpt>
      <trkpt lat="42.1602090" lon="-8.8005670">
        <ele>133.1</ele>
        <time>2021-05-20T06:49:16Z</time>
      </trkpt>
      <trkpt lat="42.1602090" lon="-8.8005670">
        <ele>133.1</ele>
        <time>2021-05-20T06:49:17Z</time>
      </trkpt>
      <trkpt lat="42.1602090" lon="-8.8005680">
        <ele>133.1</ele>
        <time>2021-05-20T06:49:18Z</time>
      </trkpt>
      <trkpt lat="42.1602090" lon="-8.8005680">
        <ele>133.1</ele>
        <time>2021-05-20T06:49:19Z</time>
      </trkpt>
      <trkpt lat="42.1602090" lon="-8.8005680">
        <ele>133.1</ele>
        <time>2021-05-20T06:49:20Z</time>
      </trkpt>
      <trkpt lat="42.1602090" lon="-8.8005680">
        <ele>133.1</ele>
        <time>2021-05-20T06:49:21Z</time>
      </trkpt>
      <trkpt lat="42.1602090" lon="-8.8005690">
        <ele>133.1</ele>
        <time>2021-05-20T06:49:22Z</time>
      </trkpt>
      <trkpt lat="42.1602090" lon="-8.8005690">
        <ele>133.1</ele>
        <time>2021-05-20T06:49:23Z</time>
      </trkpt>
      <trkpt lat="42.1602090" lon="-8.8005690">
        <ele>133.1</ele>
        <time>2021-05-20T06:49:24Z</time>
      </trkpt>
      <trkpt lat="42.1602090" lon="-8.8005690">
        <ele>133.1</ele>
        <time>2021-05-20T06:49:25Z</time>
      </trkpt>
      <trkpt lat="42.1602090" lon="-8.8005700">
        <ele>133.1</ele>
        <time>2021-05-20T06:49:26Z</time>
      </trkpt>
      <trkpt lat="42.1602090" lon="-8.8005700">
        <ele>133.1</ele>
        <time>2021-05-20T06:49:27Z</time>
      </trkpt>
      <trkpt lat="42.1602090" lon="-8.8005700">
        <ele>133.1</ele>
        <time>2021-05-20T06:49:28Z</time>
      </trkpt>
      <trkpt lat="42.1602090" lon="-8.8005700">
        <ele>133.1</ele>
        <time>2021-05-20T06:49:29Z</time>
      </trkpt>
      <trkpt lat="42.1602090" lon="-8.8005710">
        <ele>133.1</ele>
        <time>2021-05-20T06:49:30Z</time>
      </trkpt>
      <trkpt lat="42.1602090" lon="-8.8005710">
        <ele>133.1</ele>
        <time>2021-05-20T06:49:31Z</time>
      </trkpt>
      <trkpt lat="42.1602090" lon="-8.8005710">
        <ele>133.1</ele>
        <time>2021-05-20T06:49:32Z</time>
      </trkpt>
      <trkpt lat="42.1602090" lon="-8.8005710">
        <ele>133.1</ele>
        <time>2021-05-20T06:49:33Z</time>
      </trkpt>
      <trkpt lat="42.1602090" lon="-8.8005720">
        <ele>133.1</ele>
        <time>2021-05-20T06:49:34Z</time>
      </trkpt>
      <trkpt lat="42.1602090" lon="-8.8005720">
        <ele>133.1</ele>
        <time>2021-05-20T06:49:35Z</time>
      </trkpt>
      <trkpt lat="42.1602090" lon="-8.8005720">
        <ele>133.1</ele>
        <time>2021-05-20T06:49:36Z</time>
      </trkpt>
      <trkpt lat="42.1602090" lon="-8.8005720">
        <ele>133.1</ele>
        <time>2021-05-20T06:49:37Z</time>
      </trkpt>
      <trkpt lat="42.1602090" lon="-8.8005730">
        <ele>133.1</ele>
        <time>2021-05-20T06:49:38Z</time>
      </trkpt>
      <trkpt lat="42.1602090" lon="-8.8005730">
        <ele>133.1</ele>
        <time>2021-05-20T06:49:39Z</time>
      </trkpt>
      <trkpt lat="42.1602090" lon="-8.8005730">
        <ele>133.1</ele>
        <time>2021-05-20T06:49:40Z</time>
      </trkpt>
      <trkpt lat="42.1602090" lon="-8.8005730">
        <ele>133.1</ele>
        <time>2021-05-20T06:49:41Z</time>
      </trkpt>
      <trkpt lat="42.1602090" lon="-8.8005740">
        <ele>133.1</ele>
        <time>2021-05-20T06:49:42Z</time>
      </trkpt>
      <trkpt lat="42.1602090" lon="-8.8005740">
        <ele>133.1</ele>
        <time>2021-05-20T06:49:43Z</time>
      </trkpt>
      <trkpt lat="42.1602090" lon="-8.8005740">
        <ele>133.1</ele>
        <time>2021-05-20T06:49:44Z</time>
      </trkpt>
      <trkpt lat="42.1602090" lon="-8.8005740">
        <ele>133.1</ele>
        <time>2021-05-20T06:49:45Z</time>
      </trkpt>
      <trkpt lat="42.1602090" lon="-8.8005750">
        <ele>133.1</ele>
        <time>2021-05-20T06:49:46Z</time>
      </trkpt>
      <trkpt lat="42.1602090" lon="-8.8005750">
        <ele>133.1</ele>
        <time>2021-05-20T06:49:47Z</time>
      </trkpt>
      <trkpt lat="42.1602090" lon="-8.8005750">
        <ele>133.1</ele>
        <time>2021-05-20T06:49:48Z</time>
      </trkpt>
      <trkpt lat="42.1602090" lon="-8.8005750">
        <ele>133.1</ele>
        <time>2021-05-20T06:49:49Z</time>
      </trkpt>
      <trkpt lat="42.1602090" lon="-8.8005760">
        <ele>133.1</ele>
        <time>2021-05-20T06:49:50Z</time>
      </trkpt>
      <trkpt lat="42.1602090" lon="-8.8005760">
        <ele>133.1</ele>
        <time>2021-05-20T06:49:51Z</time>
      </trkpt>
      <trkpt lat="42.1602090" lon="-8.8005760">
        <ele>133.1</ele>
        <time>2021-05-20T06:49:52Z</time>
      </trkpt>
      <trkpt lat="42.1602090" lon="-8.8005760">
        <ele>133.1</ele>
        <time>2021-05-20T06:49:53Z</time>
      </trkpt>
      <trkpt lat="42.1602090" lon="-8.8005770">
        <ele>133.1</ele>
        <time>2021-05-20T06:49:54Z</time>
      </trkpt>
      <trkpt lat="42.1602090" lon="-8.8005770">
        <ele>133.1</ele>
        <time>2021-05-20T06:49:55Z</time>
      </trkpt>
      <trkpt lat="42.1602090" lon="-8.8005770">
        <ele>133.1</ele>
        <time>2021-05-20T06:49:56Z</time>
      </trkpt>
      <trkpt lat="42.1602090" lon="-8.8005770">
        <ele>133.1</ele>
        <time>2021-05-20T06:49:57Z</time>
      </trkpt>
      <trkpt lat="42.1602090" lon="-8.8005780">
        <ele>133.1</ele>
        <time>2021-05-20T06:49:58Z</time>
      </trkpt>
      <trkpt lat="42.1602090" lon="-8.8005780">
        <ele>133.1</ele>
        <time>2021-05-20T06:49:59Z</time>
      </trkpt>
      <trkpt lat="42.1602090" lon="-8.8005780">
        <ele>133.1</ele>
        <time>2021-05-20T06:50:00Z</time>
      </trkpt>
      <trkpt lat="42.1602090" lon="-8.8005780">
        <ele>133.1</ele>
        <time>2021-05-20T06:50:01Z</time>
      </trkpt>
      <trkpt lat="42.1602090" lon="-8.8005790">
        <ele>133.1</ele>
        <time>2021-05-20T06:50:02Z</time>
      </trkpt>
      <trkpt lat="42.1602090" lon="-8.8005790">
        <ele>133.1</ele>
        <time>2021-05-20T06:50:03Z</time>
      </trkpt>
      <trkpt lat="42.1602090" lon="-8.8005790">
        <ele>133.1</ele>
        <time>2021-05-20T06:50:04Z</time>
      </trkpt>
      <trkpt lat="42.1602090" lon="-8.8005790">
        <ele>133.1</ele>
        <time>2021-05-20T06:50:05Z</time>
      </trkpt>
      <trkpt lat="42.1602090" lon="-8.8005790">
        <ele>133.1</ele>
        <time>2021-05-20T06:50:06Z</time>
      </trkpt>
      <trkpt lat="42.1602090" lon="-8.8005800">
        <ele>133.1</ele>
        <time>2021-05-20T06:50:07Z</time>
      </trkpt>
      <trkpt lat="42.1602090" lon="-8.8005800">
        <ele>133.1</ele>
        <time>2021-05-20T06:50:08Z</time>
      </trkpt>
      <trkpt lat="42.1602090" lon="-8.8005800">
        <ele>133.1</ele>
        <time>2021-05-20T06:50:09Z</time>
      </trkpt>
      <trkpt lat="42.1602090" lon="-8.8005800">
        <ele>133.1</ele>
        <time>2021-05-20T06:50:10Z</time>
      </trkpt>
      <trkpt lat="42.1602090" lon="-8.8005810">
        <ele>133.1</ele>
        <time>2021-05-20T06:50:11Z</time>
      </trkpt>
      <trkpt lat="42.1602090" lon="-8.8005810">
        <ele>133.1</ele>
        <time>2021-05-20T06:50:12Z</time>
      </trkpt>
      <trkpt lat="42.1602090" lon="-8.8005810">
        <ele>133.1</ele>
        <time>2021-05-20T06:50:13Z</time>
      </trkpt>
      <trkpt lat="42.1602090" lon="-8.8005810">
        <ele>133.1</ele>
        <time>2021-05-20T06:50:14Z</time>
      </trkpt>
      <trkpt lat="42.1602090" lon="-8.8005820">
        <ele>133.1</ele>
        <time>2021-05-20T06:50:15Z</time>
      </trkpt>
      <trkpt lat="42.1602090" lon="-8.8005820">
        <ele>133.1</ele>
        <time>2021-05-20T06:50:16Z</time>
      </trkpt>
      <trkpt lat="42.1602090" lon="-8.8005820">
        <ele>133.1</ele>
        <time>2021-05-20T06:50:17Z</time>
      </trkpt>
      <trkpt lat="42.1602090" lon="-8.8005820">
        <ele>133.1</ele>
        <time>2021-05-20T06:50:18Z</time>
      </trkpt>
      <trkpt lat="42.1602090" lon="-8.8005830">
        <ele>133.1</ele>
        <time>2021-05-20T06:50:19Z</time>
      </trkpt>
      <trkpt lat="42.1602090" lon="-8.8005830">
        <ele>133.1</ele>
        <time>2021-05-20T06:50:20Z</time>
      </trkpt>
      <trkpt lat="42.1602090" lon="-8.8005830">
        <ele>133.1</ele>
        <time>2021-05-20T06:50:21Z</time>
      </trkpt>
      <trkpt lat="42.1602090" lon="-8.8005830">
        <ele>133.1</ele>
        <time>2021-05-20T06:50:22Z</time>
      </trkpt>
      <trkpt lat="42.1602090" lon="-8.8005840">
        <ele>133.1</ele>
        <time>2021-05-20T06:50:23Z</time>
      </trkpt>
      <trkpt lat="42.1602090" lon="-8.8005840">
        <ele>133.1</ele>
        <time>2021-05-20T06:50:24Z</time>
      </trkpt>
      <trkpt lat="42.1602090" lon="-8.8005840">
        <ele>133.1</ele>
        <time>2021-05-20T06:50:25Z</time>
      </trkpt>
      <trkpt lat="42.1602090" lon="-8.8005840">
        <ele>133.1</ele>
        <time>2021-05-20T06:50:26Z</time>
      </trkpt>
      <trkpt lat="42.1602090" lon="-8.8005850">
        <ele>133.1</ele>
        <time>2021-05-20T06:50:27Z</time>
      </trkpt>
      <trkpt lat="42.1602090" lon="-8.8005850">
        <ele>133.1</ele>
        <time>2021-05-20T06:50:28Z</time>
      </trkpt>
      <trkpt lat="42.1602090" lon="-8.8005850">
        <ele>133.1</ele>
        <time>2021-05-20T06:50:29Z</time>
      </trkpt>
      <trkpt lat="42.1602090" lon="-8.8005850">
        <ele>133.1</ele>
        <time>2021-05-20T06:50:30Z</time>
      </trkpt>
      <trkpt lat="42.1602090" lon="-8.8005860">
        <ele>133.1</ele>
        <time>2021-05-20T06:50:31Z</time>
      </trkpt>
      <trkpt lat="42.1602090" lon="-8.8005860">
        <ele>133.1</ele>
        <time>2021-05-20T06:50:32Z</time>
      </trkpt>
      <trkpt lat="42.1602090" lon="-8.8005860">
        <ele>133.1</ele>
        <time>2021-05-20T06:50:33Z</time>
      </trkpt>
      <trkpt lat="42.1602090" lon="-8.8005860">
        <ele>133.1</ele>
        <time>2021-05-20T06:50:34Z</time>
      </trkpt>
      <trkpt lat="42.1602090" lon="-8.8005870">
        <ele>133.1</ele>
        <time>2021-05-20T06:50:35Z</time>
      </trkpt>
      <trkpt lat="42.1602090" lon="-8.8005870">
        <ele>133.1</ele>
        <time>2021-05-20T06:50:36Z</time>
      </trkpt>
      <trkpt lat="42.1602090" lon="-8.8005870">
        <ele>133.1</ele>
        <time>2021-05-20T06:50:37Z</time>
      </trkpt>
      <trkpt lat="42.1602090" lon="-8.8005870">
        <ele>133.1</ele>
        <time>2021-05-20T06:50:38Z</time>
      </trkpt>
      <trkpt lat="42.1602090" lon="-8.8005880">
        <ele>133.1</ele>
        <time>2021-05-20T06:50:39Z</time>
      </trkpt>
      <trkpt lat="42.1602090" lon="-8.8005880">
        <ele>133.1</ele>
        <time>2021-05-20T06:50:40Z</time>
      </trkpt>
      <trkpt lat="42.1602090" lon="-8.8005880">
        <ele>133.1</ele>
        <time>2021-05-20T06:50:41Z</time>
      </trkpt>
      <trkpt lat="42.1602090" lon="-8.8005880">
        <ele>133.1</ele>
        <time>2021-05-20T06:50:42Z</time>
      </trkpt>
      <trkpt lat="42.1602090" lon="-8.8005890">
        <ele>133.1</ele>
        <time>2021-05-20T06:50:43Z</time>
      </trkpt>
      <trkpt lat="42.1602090" lon="-8.8005890">
        <ele>133.1</ele>
        <time>2021-05-20T06:50:44Z</time>
      </trkpt>
      <trkpt lat="42.1602090" lon="-8.8005890">
        <ele>133.1</ele>
        <time>2021-05-20T06:50:45Z</time>
      </trkpt>
      <trkpt lat="42.1602090" lon="-8.8005890">
        <ele>133.1</ele>
        <time>2021-05-20T06:50:46Z</time>
      </trkpt>
      <trkpt lat="42.1602090" lon="-8.8005900">
        <ele>133.1</ele>
        <time>2021-05-20T06:50:47Z</time>
      </trkpt>
      <trkpt lat="42.1602090" lon="-8.8005900">
        <ele>133.1</ele>
        <time>2021-05-20T06:50:48Z</time>
      </trkpt>
      <trkpt lat="42.1602090" lon="-8.8005900">
        <ele>133.1</ele>
        <time>2021-05-20T06:50:49Z</time>
      </trkpt>
      <trkpt lat="42.1602090" lon="-8.8005900">
        <ele>133.1</ele>
        <time>2021-05-20T06:50:50Z</time>
      </trkpt>
      <trkpt lat="42.1602090" lon="-8.8005910">
        <ele>133.1</ele>
        <time>2021-05-20T06:50:51Z</time>
      </trkpt>
      <trkpt lat="42.1602090" lon="-8.8005910">
        <ele>133.1</ele>
        <time>2021-05-20T06:50:52Z</time>
      </trkpt>
      <trkpt lat="42.1602090" lon="-8.8005910">
        <ele>133.1</ele>
        <time>2021-05-20T06:50:53Z</time>
      </trkpt>
      <trkpt lat="42.1602090" lon="-8.8005910">
        <ele>133.1</ele>
        <time>2021-05-20T06:50:54Z</time>
      </trkpt>
      <trkpt lat="42.1602090" lon="-8.8005920">
        <ele>133.1</ele>
        <time>2021-05-20T06:50:55Z</time>
      </trkpt>
      <trkpt lat="42.1602100" lon="-8.8005920">
        <ele>133.1</ele>
        <time>2021-05-20T06:50:56Z</time>
      </trkpt>
      <trkpt lat="42.1602100" lon="-8.8005920">
        <ele>133.1</ele>
        <time>2021-05-20T06:50:57Z</time>
      </trkpt>
      <trkpt lat="42.1602100" lon="-8.8005920">
        <ele>133.1</ele>
        <time>2021-05-20T06:50:58Z</time>
      </trkpt>
      <trkpt lat="42.1602100" lon="-8.8005930">
        <ele>133.1</ele>
        <time>2021-05-20T06:50:59Z</time>
      </trkpt>
      <trkpt lat="42.1602100" lon="-8.8005930">
        <ele>133.1</ele>
        <time>2021-05-20T06:51:00Z</time>
      </trkpt>
      <trkpt lat="42.1602100" lon="-8.8005930">
        <ele>133.1</ele>
        <time>2021-05-20T06:51:01Z</time>
      </trkpt>
      <trkpt lat="42.1602100" lon="-8.8005930">
        <ele>133.1</ele>
        <time>2021-05-20T06:51:02Z</time>
      </trkpt>
      <trkpt lat="42.1602100" lon="-8.8005940">
        <ele>133.1</ele>
        <time>2021-05-20T06:51:03Z</time>
      </trkpt>
      <trkpt lat="42.1602100" lon="-8.8005940">
        <ele>133.1</ele>
        <time>2021-05-20T06:51:04Z</time>
      </trkpt>
      <trkpt lat="42.1602100" lon="-8.8005940">
        <ele>133.1</ele>
        <time>2021-05-20T06:51:05Z</time>
      </trkpt>
      <trkpt lat="42.1602100" lon="-8.8005940">
        <ele>133.1</ele>
        <time>2021-05-20T06:51:06Z</time>
      </trkpt>
      <trkpt lat="42.1602100" lon="-8.8005950">
        <ele>133.1</ele>
        <time>2021-05-20T06:51:07Z</time>
      </trkpt>
      <trkpt lat="42.1602100" lon="-8.8005950">
        <ele>133.1</ele>
        <time>2021-05-20T06:51:08Z</time>
      </trkpt>
      <trkpt lat="42.1602100" lon="-8.8005950">
        <ele>133.1</ele>
        <time>2021-05-20T06:51:09Z</time>
      </trkpt>
      <trkpt lat="42.1602100" lon="-8.8005950">
        <ele>133.1</ele>
        <time>2021-05-20T06:51:10Z</time>
      </trkpt>
      <trkpt lat="42.1602100" lon="-8.8005960">
        <ele>133.1</ele>
        <time>2021-05-20T06:51:11Z</time>
      </trkpt>
      <trkpt lat="42.1602100" lon="-8.8005960">
        <ele>133.1</ele>
        <time>2021-05-20T06:51:12Z</time>
      </trkpt>
      <trkpt lat="42.1602100" lon="-8.8005960">
        <ele>133.1</ele>
        <time>2021-05-20T06:51:13Z</time>
      </trkpt>
      <trkpt lat="42.1602100" lon="-8.8005960">
        <ele>133.1</ele>
        <time>2021-05-20T06:51:14Z</time>
      </trkpt>
      <trkpt lat="42.1602100" lon="-8.8005960">
        <ele>133.1</ele>
        <time>2021-05-20T06:51:15Z</time>
      </trkpt>
      <trkpt lat="42.1602100" lon="-8.8005970">
        <ele>133.1</ele>
        <time>2021-05-20T06:51:16Z</time>
      </trkpt>
      <trkpt lat="42.1602100" lon="-8.8005970">
        <ele>133.1</ele>
        <time>2021-05-20T06:51:17Z</time>
      </trkpt>
      <trkpt lat="42.1602100" lon="-8.8005970">
        <ele>133.1</ele>
        <time>2021-05-20T06:51:18Z</time>
      </trkpt>
      <trkpt lat="42.1602100" lon="-8.8005970">
        <ele>133.1</ele>
        <time>2021-05-20T06:51:19Z</time>
      </trkpt>
      <trkpt lat="42.1602100" lon="-8.8005980">
        <ele>133.1</ele>
        <time>2021-05-20T06:51:20Z</time>
      </trkpt>
      <trkpt lat="42.1602100" lon="-8.8005980">
        <ele>133.1</ele>
        <time>2021-05-20T06:51:21Z</time>
      </trkpt>
      <trkpt lat="42.1602100" lon="-8.8005980">
        <ele>133.1</ele>
        <time>2021-05-20T06:51:22Z</time>
      </trkpt>
      <trkpt lat="42.1602100" lon="-8.8005980">
        <ele>133.1</ele>
        <time>2021-05-20T06:51:23Z</time>
      </trkpt>
      <trkpt lat="42.1602100" lon="-8.8005990">
        <ele>133.1</ele>
        <time>2021-05-20T06:51:24Z</time>
      </trkpt>
      <trkpt lat="42.1602100" lon="-8.8005990">
        <ele>133.1</ele>
        <time>2021-05-20T06:51:25Z</time>
      </trkpt>
      <trkpt lat="42.1602100" lon="-8.8005990">
        <ele>133.1</ele>
        <time>2021-05-20T06:51:26Z</time>
      </trkpt>
      <trkpt lat="42.1602100" lon="-8.8005990">
        <ele>133.1</ele>
        <time>2021-05-20T06:51:27Z</time>
      </trkpt>
      <trkpt lat="42.1602100" lon="-8.8006000">
        <ele>133.1</ele>
        <time>2021-05-20T06:51:28Z</time>
      </trkpt>
      <trkpt lat="42.1602100" lon="-8.8006000">
        <ele>133.1</ele>
        <time>2021-05-20T06:51:29Z</time>
      </trkpt>
      <trkpt lat="42.1602100" lon="-8.8006000">
        <ele>133.1</ele>
        <time>2021-05-20T06:51:30Z</time>
      </trkpt>
      <trkpt lat="42.1602100" lon="-8.8006000">
        <ele>133.1</ele>
        <time>2021-05-20T06:51:31Z</time>
      </trkpt>
      <trkpt lat="42.1602100" lon="-8.8006010">
        <ele>133.1</ele>
        <time>2021-05-20T06:51:32Z</time>
      </trkpt>
      <trkpt lat="42.1602100" lon="-8.8006010">
        <ele>133.1</ele>
        <time>2021-05-20T06:51:33Z</time>
      </trkpt>
      <trkpt lat="42.1602100" lon="-8.8006010">
        <ele>133.1</ele>
        <time>2021-05-20T06:51:34Z</time>
      </trkpt>
      <trkpt lat="42.1602100" lon="-8.8006010">
        <ele>133.1</ele>
        <time>2021-05-20T06:51:35Z</time>
      </trkpt>
      <trkpt lat="42.1602100" lon="-8.8006020">
        <ele>133.1</ele>
        <time>2021-05-20T06:51:36Z</time>
      </trkpt>
      <trkpt lat="42.1602100" lon="-8.8006020">
        <ele>133.1</ele>
        <time>2021-05-20T06:51:37Z</time>
      </trkpt>
      <trkpt lat="42.1602100" lon="-8.8006020">
        <ele>133.1</ele>
        <time>2021-05-20T06:51:38Z</time>
      </trkpt>
      <trkpt lat="42.1602100" lon="-8.8006020">
        <ele>133.1</ele>
        <time>2021-05-20T06:51:39Z</time>
      </trkpt>
      <trkpt lat="42.1602100" lon="-8.8006030">
        <ele>133.1</ele>
        <time>2021-05-20T06:51:40Z</time>
      </trkpt>
      <trkpt lat="42.1602100" lon="-8.8006030">
        <ele>133.1</ele>
        <time>2021-05-20T06:51:41Z</time>
      </trkpt>
      <trkpt lat="42.1602100" lon="-8.8006030">
        <ele>133.1</ele>
        <time>2021-05-20T06:51:42Z</time>
      </trkpt>
      <trkpt lat="42.1602100" lon="-8.8006030">
        <ele>133.1</ele>
        <time>2021-05-20T06:51:43Z</time>
      </trkpt>
      <trkpt lat="42.1602100" lon="-8.8006040">
        <ele>133.1</ele>
        <time>2021-05-20T06:51:44Z</time>
      </trkpt>
      <trkpt lat="42.1602100" lon="-8.8006040">
        <ele>133.1</ele>
        <time>2021-05-20T06:51:45Z</time>
      </trkpt>
      <trkpt lat="42.1602100" lon="-8.8006040">
        <ele>133.1</ele>
        <time>2021-05-20T06:51:46Z</time>
      </trkpt>
      <trkpt lat="42.1602100" lon="-8.8006040">
        <ele>133.1</ele>
        <time>2021-05-20T06:51:47Z</time>
      </trkpt>
      <trkpt lat="42.1602100" lon="-8.8006050">
        <ele>133.1</ele>
        <time>2021-05-20T06:51:48Z</time>
      </trkpt>
      <trkpt lat="42.1602100" lon="-8.8006050">
        <ele>133.1</ele>
        <time>2021-05-20T06:51:49Z</time>
      </trkpt>
      <trkpt lat="42.1602100" lon="-8.8006050">
        <ele>133.1</ele>
        <time>2021-05-20T06:51:50Z</time>
      </trkpt>
      <trkpt lat="42.1602100" lon="-8.8006050">
        <ele>133.1</ele>
        <time>2021-05-20T06:51:51Z</time>
      </trkpt>
      <trkpt lat="42.1602100" lon="-8.8006060">
        <ele>133.1</ele>
        <time>2021-05-20T06:51:52Z</time>
      </trkpt>
      <trkpt lat="42.1602100" lon="-8.8006060">
        <ele>133.1</ele>
        <time>2021-05-20T06:51:53Z</time>
      </trkpt>
      <trkpt lat="42.1602100" lon="-8.8006060">
        <ele>133.1</ele>
        <time>2021-05-20T06:51:54Z</time>
      </trkpt>
      <trkpt lat="42.1602100" lon="-8.8006060">
        <ele>133.1</ele>
        <time>2021-05-20T06:51:55Z</time>
      </trkpt>
      <trkpt lat="42.1602100" lon="-8.8006070">
        <ele>133.1</ele>
        <time>2021-05-20T06:51:56Z</time>
      </trkpt>
      <trkpt lat="42.1602100" lon="-8.8006070">
        <ele>133.1</ele>
        <time>2021-05-20T06:51:57Z</time>
      </trkpt>
      <trkpt lat="42.1602100" lon="-8.8006070">
        <ele>133.1</ele>
        <time>2021-05-20T06:51:58Z</time>
      </trkpt>
      <trkpt lat="42.1602100" lon="-8.8006070">
        <ele>133.1</ele>
        <time>2021-05-20T06:51:59Z</time>
      </trkpt>
      <trkpt lat="42.1602100" lon="-8.8006080">
        <ele>133.1</ele>
        <time>2021-05-20T06:52:00Z</time>
      </trkpt>
      <trkpt lat="42.1602100" lon="-8.8006080">
        <ele>133.1</ele>
        <time>2021-05-20T06:52:01Z</time>
      </trkpt>
      <trkpt lat="42.1602100" lon="-8.8006080">
        <ele>133.1</ele>
        <time>2021-05-20T06:52:02Z</time>
      </trkpt>
      <trkpt lat="42.1602100" lon="-8.8006080">
        <ele>133.1</ele>
        <time>2021-05-20T06:52:03Z</time>
      </trkpt>
      <trkpt lat="42.1602100" lon="-8.8006090">
        <ele>133.1</ele>
        <time>2021-05-20T06:52:04Z</time>
      </trkpt>
      <trkpt lat="42.1602100" lon="-8.8006090">
        <ele>133.1</ele>
        <time>2021-05-20T06:52:05Z</time>
      </trkpt>
      <trkpt lat="42.1602100" lon="-8.8006090">
        <ele>133.1</ele>
        <time>2021-05-20T06:52:06Z</time>
      </trkpt>
      <trkpt lat="42.1602100" lon="-8.8006090">
        <ele>133.1</ele>
        <time>2021-05-20T06:52:07Z</time>
      </trkpt>
      <trkpt lat="42.1602100" lon="-8.8006100">
        <ele>133.1</ele>
        <time>2021-05-20T06:52:08Z</time>
      </trkpt>
      <trkpt lat="42.1602100" lon="-8.8006100">
        <ele>133.1</ele>
        <time>2021-05-20T06:52:09Z</time>
      </trkpt>
      <trkpt lat="42.1602100" lon="-8.8006100">
        <ele>133.1</ele>
        <time>2021-05-20T06:52:10Z</time>
      </trkpt>
      <trkpt lat="42.1602100" lon="-8.8006100">
        <ele>133.1</ele>
        <time>2021-05-20T06:52:11Z</time>
      </trkpt>
      <trkpt lat="42.1602100" lon="-8.8006110">
        <ele>133.1</ele>
        <time>2021-05-20T06:52:12Z</time>
      </trkpt>
      <trkpt lat="42.1602100" lon="-8.8006110">
        <ele>133.1</ele>
        <time>2021-05-20T06:52:13Z</time>
      </trkpt>
      <trkpt lat="42.1602100" lon="-8.8006110">
        <ele>133.1</ele>
        <time>2021-05-20T06:52:14Z</time>
      </trkpt>
      <trkpt lat="42.1602100" lon="-8.8006110">
        <ele>133.1</ele>
        <time>2021-05-20T06:52:15Z</time>
      </trkpt>
      <trkpt lat="42.1602100" lon="-8.8006120">
        <ele>133.1</ele>
        <time>2021-05-20T06:52:16Z</time>
      </trkpt>
      <trkpt lat="42.1602100" lon="-8.8006120">
        <ele>133.1</ele>
        <time>2021-05-20T06:52:17Z</time>
      </trkpt>
      <trkpt lat="42.1602100" lon="-8.8006120">
        <ele>133.1</ele>
        <time>2021-05-20T06:52:18Z</time>
      </trkpt>
      <trkpt lat="42.1602100" lon="-8.8006120">
        <ele>133.1</ele>
        <time>2021-05-20T06:52:19Z</time>
      </trkpt>
      <trkpt lat="42.1602100" lon="-8.8006120">
        <ele>133.1</ele>
        <time>2021-05-20T06:52:20Z</time>
      </trkpt>
      <trkpt lat="42.1602100" lon="-8.8006130">
        <ele>133.1</ele>
        <time>2021-05-20T06:52:21Z</time>
      </trkpt>
      <trkpt lat="42.1602100" lon="-8.8006130">
        <ele>133.1</ele>
        <time>2021-05-20T06:52:22Z</time>
      </trkpt>
      <trkpt lat="42.1602100" lon="-8.8006130">
        <ele>133.1</ele>
        <time>2021-05-20T06:52:23Z</time>
      </trkpt>
      <trkpt lat="42.1602100" lon="-8.8006130">
        <ele>133.1</ele>
        <time>2021-05-20T06:52:24Z</time>
      </trkpt>
      <trkpt lat="42.1602100" lon="-8.8006140">
        <ele>133.1</ele>
        <time>2021-05-20T06:52:25Z</time>
      </trkpt>
      <trkpt lat="42.1602100" lon="-8.8006140">
        <ele>133.1</ele>
        <time>2021-05-20T06:52:26Z</time>
      </trkpt>
      <trkpt lat="42.1602100" lon="-8.8006140">
        <ele>133.1</ele>
        <time>2021-05-20T06:52:27Z</time>
      </trkpt>
      <trkpt lat="42.1602100" lon="-8.8006140">
        <ele>133.1</ele>
        <time>2021-05-20T06:52:28Z</time>
      </trkpt>
      <trkpt lat="42.1602100" lon="-8.8006150">
        <ele>133.1</ele>
        <time>2021-05-20T06:52:29Z</time>
      </trkpt>
      <trkpt lat="42.1602100" lon="-8.8006150">
        <ele>133.1</ele>
        <time>2021-05-20T06:52:30Z</time>
      </trkpt>
      <trkpt lat="42.1602100" lon="-8.8006150">
        <ele>133.1</ele>
        <time>2021-05-20T06:52:31Z</time>
      </trkpt>
      <trkpt lat="42.1602100" lon="-8.8006150">
        <ele>133.1</ele>
        <time>2021-05-20T06:52:32Z</time>
      </trkpt>
      <trkpt lat="42.1602100" lon="-8.8006160">
        <ele>133.1</ele>
        <time>2021-05-20T06:52:33Z</time>
      </trkpt>
      <trkpt lat="42.1602100" lon="-8.8006160">
        <ele>133.1</ele>
        <time>2021-05-20T06:52:34Z</time>
      </trkpt>
      <trkpt lat="42.1602100" lon="-8.8006160">
        <ele>133.1</ele>
        <time>2021-05-20T06:52:35Z</time>
      </trkpt>
      <trkpt lat="42.1602110" lon="-8.8006160">
        <ele>133.1</ele>
        <time>2021-05-20T06:52:36Z</time>
      </trkpt>
      <trkpt lat="42.1602110" lon="-8.8006170">
        <ele>133.1</ele>
        <time>2021-05-20T06:52:37Z</time>
      </trkpt>
      <trkpt lat="42.1602110" lon="-8.8006170">
        <ele>133.1</ele>
        <time>2021-05-20T06:52:38Z</time>
      </trkpt>
      <trkpt lat="42.1602110" lon="-8.8006170">
        <ele>133.1</ele>
        <time>2021-05-20T06:52:39Z</time>
      </trkpt>
      <trkpt lat="42.1602110" lon="-8.8006170">
        <ele>133.1</ele>
        <time>2021-05-20T06:52:40Z</time>
      </trkpt>
      <trkpt lat="42.1602110" lon="-8.8006180">
        <ele>133.1</ele>
        <time>2021-05-20T06:52:41Z</time>
      </trkpt>
      <trkpt lat="42.1602110" lon="-8.8006180">
        <ele>133.1</ele>
        <time>2021-05-20T06:52:42Z</time>
      </trkpt>
      <trkpt lat="42.1602110" lon="-8.8006180">
        <ele>133.1</ele>
        <time>2021-05-20T06:52:43Z</time>
      </trkpt>
      <trkpt lat="42.1602110" lon="-8.8006180">
        <ele>133.1</ele>
        <time>2021-05-20T06:52:44Z</time>
      </trkpt>
      <trkpt lat="42.1602110" lon="-8.8006190">
        <ele>133.1</ele>
        <time>2021-05-20T06:52:45Z</time>
      </trkpt>
      <trkpt lat="42.1602110" lon="-8.8006190">
        <ele>133.1</ele>
        <time>2021-05-20T06:52:46Z</time>
      </trkpt>
      <trkpt lat="42.1602110" lon="-8.8006190">
        <ele>133.1</ele>
        <time>2021-05-20T06:52:47Z</time>
      </trkpt>
      <trkpt lat="42.1602110" lon="-8.8006190">
        <ele>133.1</ele>
        <time>2021-05-20T06:52:48Z</time>
      </trkpt>
      <trkpt lat="42.1602110" lon="-8.8006200">
        <ele>133.1</ele>
        <time>2021-05-20T06:52:49Z</time>
      </trkpt>
      <trkpt lat="42.1602110" lon="-8.8006200">
        <ele>133.1</ele>
        <time>2021-05-20T06:52:50Z</time>
      </trkpt>
      <trkpt lat="42.1602110" lon="-8.8006200">
        <ele>133.1</ele>
        <time>2021-05-20T06:52:51Z</time>
      </trkpt>
      <trkpt lat="42.1602110" lon="-8.8006200">
        <ele>133.1</ele>
        <time>2021-05-20T06:52:52Z</time>
      </trkpt>
      <trkpt lat="42.1602110" lon="-8.8006210">
        <ele>133.1</ele>
        <time>2021-05-20T06:52:53Z</time>
      </trkpt>
      <trkpt lat="42.1602110" lon="-8.8006210">
        <ele>133.1</ele>
        <time>2021-05-20T06:52:54Z</time>
      </trkpt>
      <trkpt lat="42.1602110" lon="-8.8006210">
        <ele>133.1</ele>
        <time>2021-05-20T06:52:55Z</time>
      </trkpt>
      <trkpt lat="42.1602110" lon="-8.8006210">
        <ele>133.1</ele>
        <time>2021-05-20T06:52:56Z</time>
      </trkpt>
      <trkpt lat="42.1602110" lon="-8.8006220">
        <ele>133.1</ele>
        <time>2021-05-20T06:52:57Z</time>
      </trkpt>
      <trkpt lat="42.1602110" lon="-8.8006220">
        <ele>133.1</ele>
        <time>2021-05-20T06:52:58Z</time>
      </trkpt>
      <trkpt lat="42.1602110" lon="-8.8006220">
        <ele>133.1</ele>
        <time>2021-05-20T06:52:59Z</time>
      </trkpt>
      <trkpt lat="42.1602110" lon="-8.8006220">
        <ele>133.1</ele>
        <time>2021-05-20T06:53:00Z</time>
      </trkpt>
      <trkpt lat="42.1602110" lon="-8.8006230">
        <ele>133.1</ele>
        <time>2021-05-20T06:53:01Z</time>
      </trkpt>
      <trkpt lat="42.1602110" lon="-8.8006230">
        <ele>133.1</ele>
        <time>2021-05-20T06:53:02Z</time>
      </trkpt>
      <trkpt lat="42.1602110" lon="-8.8006230">
        <ele>133.1</ele>
        <time>2021-05-20T06:53:03Z</time>
      </trkpt>
      <trkpt lat="42.1602110" lon="-8.8006230">
        <ele>133.1</ele>
        <time>2021-05-20T06:53:04Z</time>
      </trkpt>
      <trkpt lat="42.1602110" lon="-8.8006240">
        <ele>133.1</ele>
        <time>2021-05-20T06:53:05Z</time>
      </trkpt>
      <trkpt lat="42.1602110" lon="-8.8006240">
        <ele>133.1</ele>
        <time>2021-05-20T06:53:06Z</time>
      </trkpt>
      <trkpt lat="42.1602110" lon="-8.8006240">
        <ele>133.1</ele>
        <time>2021-05-20T06:53:07Z</time>
      </trkpt>
      <trkpt lat="42.1602110" lon="-8.8006240">
        <ele>133.1</ele>
        <time>2021-05-20T06:53:08Z</time>
      </trkpt>
      <trkpt lat="42.1602110" lon="-8.8006250">
        <ele>133.1</ele>
        <time>2021-05-20T06:53:09Z</time>
      </trkpt>
      <trkpt lat="42.1602110" lon="-8.8006250">
        <ele>133.1</ele>
        <time>2021-05-20T06:53:10Z</time>
      </trkpt>
      <trkpt lat="42.1602110" lon="-8.8006250">
        <ele>133.1</ele>
        <time>2021-05-20T06:53:11Z</time>
      </trkpt>
      <trkpt lat="42.1602110" lon="-8.8006250">
        <ele>133.1</ele>
        <time>2021-05-20T06:53:12Z</time>
      </trkpt>
      <trkpt lat="42.1602110" lon="-8.8006260">
        <ele>133.1</ele>
        <time>2021-05-20T06:53:13Z</time>
      </trkpt>
      <trkpt lat="42.1602110" lon="-8.8006260">
        <ele>133.1</ele>
        <time>2021-05-20T06:53:14Z</time>
      </trkpt>
      <trkpt lat="42.1602110" lon="-8.8006260">
        <ele>133.1</ele>
        <time>2021-05-20T06:53:15Z</time>
      </trkpt>
      <trkpt lat="42.1602110" lon="-8.8006260">
        <ele>133.1</ele>
        <time>2021-05-20T06:53:16Z</time>
      </trkpt>
      <trkpt lat="42.1602110" lon="-8.8006270">
        <ele>133.1</ele>
        <time>2021-05-20T06:53:17Z</time>
      </trkpt>
      <trkpt lat="42.1602110" lon="-8.8006270">
        <ele>133.1</ele>
        <time>2021-05-20T06:53:18Z</time>
      </trkpt>
      <trkpt lat="42.1602110" lon="-8.8006270">
        <ele>133.1</ele>
        <time>2021-05-20T06:53:19Z</time>
      </trkpt>
      <trkpt lat="42.1602110" lon="-8.8006270">
        <ele>133.1</ele>
        <time>2021-05-20T06:53:20Z</time>
      </trkpt>
      <trkpt lat="42.1602110" lon="-8.8006280">
        <ele>133.1</ele>
        <time>2021-05-20T06:53:21Z</time>
      </trkpt>
      <trkpt lat="42.1602110" lon="-8.8006280">
        <ele>133.1</ele>
        <time>2021-05-20T06:53:22Z</time>
      </trkpt>
      <trkpt lat="42.1602110" lon="-8.8006280">
        <ele>133.1</ele>
        <time>2021-05-20T06:53:23Z</time>
      </trkpt>
      <trkpt lat="42.1602110" lon="-8.8006280">
        <ele>133.1</ele>
        <time>2021-05-20T06:53:24Z</time>
      </trkpt>
      <trkpt lat="42.1602110" lon="-8.8006290">
        <ele>133.1</ele>
        <time>2021-05-20T06:53:25Z</time>
      </trkpt>
      <trkpt lat="42.1602110" lon="-8.8006290">
        <ele>133.1</ele>
        <time>2021-05-20T06:53:26Z</time>
      </trkpt>
      <trkpt lat="42.1602110" lon="-8.8006290">
        <ele>133.1</ele>
        <time>2021-05-20T06:53:27Z</time>
      </trkpt>
      <trkpt lat="42.1602110" lon="-8.8006290">
        <ele>133.1</ele>
        <time>2021-05-20T06:53:28Z</time>
      </trkpt>
      <trkpt lat="42.1602110" lon="-8.8006290">
        <ele>133.1</ele>
        <time>2021-05-20T06:53:29Z</time>
      </trkpt>
      <trkpt lat="42.1602110" lon="-8.8006300">
        <ele>133.1</ele>
        <time>2021-05-20T06:53:30Z</time>
      </trkpt>
      <trkpt lat="42.1602110" lon="-8.8006300">
        <ele>133.1</ele>
        <time>2021-05-20T06:53:31Z</time>
      </trkpt>
      <trkpt lat="42.1602110" lon="-8.8006300">
        <ele>133.1</ele>
        <time>2021-05-20T06:53:32Z</time>
      </trkpt>
      <trkpt lat="42.1602110" lon="-8.8006300">
        <ele>133.1</ele>
        <time>2021-05-20T06:53:33Z</time>
      </trkpt>
      <trkpt lat="42.1602110" lon="-8.8006310">
        <ele>133.1</ele>
        <time>2021-05-20T06:53:34Z</time>
      </trkpt>
      <trkpt lat="42.1602110" lon="-8.8006310">
        <ele>133.1</ele>
        <time>2021-05-20T06:53:35Z</time>
      </trkpt>
      <trkpt lat="42.1602110" lon="-8.8006310">
        <ele>133.1</ele>
        <time>2021-05-20T06:53:36Z</time>
      </trkpt>
      <trkpt lat="42.1602110" lon="-8.8006310">
        <ele>133.1</ele>
        <time>2021-05-20T06:53:37Z</time>
      </trkpt>
      <trkpt lat="42.1602110" lon="-8.8006320">
        <ele>133.1</ele>
        <time>2021-05-20T06:53:38Z</time>
      </trkpt>
      <trkpt lat="42.1602110" lon="-8.8006320">
        <ele>133.1</ele>
        <time>2021-05-20T06:53:39Z</time>
      </trkpt>
      <trkpt lat="42.1602110" lon="-8.8006320">
        <ele>133.1</ele>
        <time>2021-05-20T06:53:40Z</time>
      </trkpt>
      <trkpt lat="42.1602110" lon="-8.8006320">
        <ele>133.1</ele>
        <time>2021-05-20T06:53:41Z</time>
      </trkpt>
      <trkpt lat="42.1602110" lon="-8.8006330">
        <ele>133.1</ele>
        <time>2021-05-20T06:53:42Z</time>
      </trkpt>
      <trkpt lat="42.1602110" lon="-8.8006330">
        <ele>133.1</ele>
        <time>2021-05-20T06:53:43Z</time>
      </trkpt>
      <trkpt lat="42.1602110" lon="-8.8006330">
        <ele>133.1</ele>
        <time>2021-05-20T06:53:44Z</time>
      </trkpt>
      <trkpt lat="42.1602110" lon="-8.8006330">
        <ele>133.1</ele>
        <time>2021-05-20T06:53:45Z</time>
      </trkpt>
      <trkpt lat="42.1602110" lon="-8.8006340">
        <ele>133.1</ele>
        <time>2021-05-20T06:53:46Z</time>
      </trkpt>
      <trkpt lat="42.1602110" lon="-8.8006340">
        <ele>133.1</ele>
        <time>2021-05-20T06:53:47Z</time>
      </trkpt>
      <trkpt lat="42.1602110" lon="-8.8006340">
        <ele>133.1</ele>
        <time>2021-05-20T06:53:48Z</time>
      </trkpt>
      <trkpt lat="42.1602110" lon="-8.8006340">
        <ele>133.1</ele>
        <time>2021-05-20T06:53:49Z</time>
      </trkpt>
      <trkpt lat="42.1602110" lon="-8.8006350">
        <ele>133.1</ele>
        <time>2021-05-20T06:53:50Z</time>
      </trkpt>
      <trkpt lat="42.1602110" lon="-8.8006350">
        <ele>133.1</ele>
        <time>2021-05-20T06:53:51Z</time>
      </trkpt>
      <trkpt lat="42.1602110" lon="-8.8006350">
        <ele>133.1</ele>
        <time>2021-05-20T06:53:52Z</time>
      </trkpt>
      <trkpt lat="42.1602110" lon="-8.8006350">
        <ele>133.1</ele>
        <time>2021-05-20T06:53:53Z</time>
      </trkpt>
      <trkpt lat="42.1602110" lon="-8.8006360">
        <ele>133.1</ele>
        <time>2021-05-20T06:53:54Z</time>
      </trkpt>
      <trkpt lat="42.1602110" lon="-8.8006360">
        <ele>133.1</ele>
        <time>2021-05-20T06:53:55Z</time>
      </trkpt>
      <trkpt lat="42.1602110" lon="-8.8006360">
        <ele>133.1</ele>
        <time>2021-05-20T06:53:56Z</time>
      </trkpt>
      <trkpt lat="42.1602110" lon="-8.8006360">
        <ele>133.1</ele>
        <time>2021-05-20T06:53:57Z</time>
      </trkpt>
      <trkpt lat="42.1602110" lon="-8.8006370">
        <ele>133.1</ele>
        <time>2021-05-20T06:53:58Z</time>
      </trkpt>
      <trkpt lat="42.1602110" lon="-8.8006370">
        <ele>133.1</ele>
        <time>2021-05-20T06:53:59Z</time>
      </trkpt>
      <trkpt lat="42.1602110" lon="-8.8006370">
        <ele>133.1</ele>
        <time>2021-05-20T06:54:00Z</time>
      </trkpt>
      <trkpt lat="42.1602110" lon="-8.8006370">
        <ele>133.1</ele>
        <time>2021-05-20T06:54:01Z</time>
      </trkpt>
      <trkpt lat="42.1602110" lon="-8.8006380">
        <ele>133.1</ele>
        <time>2021-05-20T06:54:02Z</time>
      </trkpt>
      <trkpt lat="42.1602110" lon="-8.8006380">
        <ele>133.1</ele>
        <time>2021-05-20T06:54:03Z</time>
      </trkpt>
      <trkpt lat="42.1602110" lon="-8.8006380">
        <ele>133.1</ele>
        <time>2021-05-20T06:54:04Z</time>
      </trkpt>
      <trkpt lat="42.1602110" lon="-8.8006380">
        <ele>133.1</ele>
        <time>2021-05-20T06:54:05Z</time>
      </trkpt>
      <trkpt lat="42.1602110" lon="-8.8006390">
        <ele>133.1</ele>
        <time>2021-05-20T06:54:06Z</time>
      </trkpt>
      <trkpt lat="42.1602110" lon="-8.8006390">
        <ele>133.1</ele>
        <time>2021-05-20T06:54:07Z</time>
      </trkpt>
      <trkpt lat="42.1602110" lon="-8.8006390">
        <ele>133.1</ele>
        <time>2021-05-20T06:54:08Z</time>
      </trkpt>
      <trkpt lat="42.1602110" lon="-8.8006390">
        <ele>133.1</ele>
        <time>2021-05-20T06:54:09Z</time>
      </trkpt>
      <trkpt lat="42.1602110" lon="-8.8006400">
        <ele>133.1</ele>
        <time>2021-05-20T06:54:10Z</time>
      </trkpt>
      <trkpt lat="42.1602110" lon="-8.8006400">
        <ele>133.1</ele>
        <time>2021-05-20T06:54:11Z</time>
      </trkpt>
      <trkpt lat="42.1602110" lon="-8.8006400">
        <ele>133.1</ele>
        <time>2021-05-20T06:54:12Z</time>
      </trkpt>
      <trkpt lat="42.1602110" lon="-8.8006400">
        <ele>133.1</ele>
        <time>2021-05-20T06:54:13Z</time>
      </trkpt>
      <trkpt lat="42.1602110" lon="-8.8006410">
        <ele>133.2</ele>
        <time>2021-05-20T06:54:14Z</time>
      </trkpt>
      <trkpt lat="42.1602110" lon="-8.8006410">
        <ele>133.2</ele>
        <time>2021-05-20T06:54:15Z</time>
      </trkpt>
      <trkpt lat="42.1602120" lon="-8.8006410">
        <ele>133.3</ele>
        <time>2021-05-20T06:54:16Z</time>
      </trkpt>
      <trkpt lat="42.1602120" lon="-8.8006410">
        <ele>133.3</ele>
        <time>2021-05-20T06:54:17Z</time>
      </trkpt>
      <trkpt lat="42.1602120" lon="-8.8006420">
        <ele>133.4</ele>
        <time>2021-05-20T06:54:18Z</time>
      </trkpt>
      <trkpt lat="42.1602120" lon="-8.8006420">
        <ele>133.5</ele>
        <time>2021-05-20T06:54:19Z</time>
      </trkpt>
      <trkpt lat="42.1602120" lon="-8.8006420">
        <ele>133.5</ele>
        <time>2021-05-20T06:54:20Z</time>
      </trkpt>
      <trkpt lat="42.1602120" lon="-8.8006420">
        <ele>133.6</ele>
        <time>2021-05-20T06:54:21Z</time>
      </trkpt>
      <trkpt lat="42.1602120" lon="-8.8006430">
        <ele>133.6</ele>
        <time>2021-05-20T06:54:22Z</time>
      </trkpt>
      <trkpt lat="42.1602120" lon="-8.8006430">
        <ele>133.7</ele>
        <time>2021-05-20T06:54:23Z</time>
      </trkpt>
      <trkpt lat="42.1602120" lon="-8.8006430">
        <ele>133.8</ele>
        <time>2021-05-20T06:54:24Z</time>
      </trkpt>
      <trkpt lat="42.1602120" lon="-8.8006430">
        <ele>133.8</ele>
        <time>2021-05-20T06:54:25Z</time>
      </trkpt>
      <trkpt lat="42.1602120" lon="-8.8006440">
        <ele>133.9</ele>
        <time>2021-05-20T06:54:26Z</time>
      </trkpt>
      <trkpt lat="42.1602120" lon="-8.8006440">
        <ele>133.9</ele>
        <time>2021-05-20T06:54:27Z</time>
      </trkpt>
      <trkpt lat="42.1602120" lon="-8.8006440">
        <ele>134.0</ele>
        <time>2021-05-20T06:54:28Z</time>
      </trkpt>
      <trkpt lat="42.1602120" lon="-8.8006440">
        <ele>134.1</ele>
        <time>2021-05-20T06:54:29Z</time>
      </trkpt>
      <trkpt lat="42.1602120" lon="-8.8006450">
        <ele>134.1</ele>
        <time>2021-05-20T06:54:30Z</time>
      </trkpt>
      <trkpt lat="42.1602120" lon="-8.8006450">
        <ele>134.2</ele>
        <time>2021-05-20T06:54:31Z</time>
      </trkpt>
      <trkpt lat="42.1602120" lon="-8.8006450">
        <ele>134.2</ele>
        <time>2021-05-20T06:54:32Z</time>
      </trkpt>
      <trkpt lat="42.1602120" lon="-8.8006450">
        <ele>134.3</ele>
        <time>2021-05-20T06:54:33Z</time>
      </trkpt>
      <trkpt lat="42.1602120" lon="-8.8006450">
        <ele>134.4</ele>
        <time>2021-05-20T06:54:34Z</time>
      </trkpt>
      <trkpt lat="42.1602120" lon="-8.8006460">
        <ele>134.4</ele>
        <time>2021-05-20T06:54:35Z</time>
      </trkpt>
      <trkpt lat="42.1602120" lon="-8.8006460">
        <ele>134.5</ele>
        <time>2021-05-20T06:54:36Z</time>
      </trkpt>
      <trkpt lat="42.1602120" lon="-8.8006460">
        <ele>134.5</ele>
        <time>2021-05-20T06:54:37Z</time>
      </trkpt>
      <trkpt lat="42.1602120" lon="-8.8006460">
        <ele>134.6</ele>
        <time>2021-05-20T06:54:38Z</time>
      </trkpt>
      <trkpt lat="42.1602120" lon="-8.8006470">
        <ele>134.7</ele>
        <time>2021-05-20T06:54:39Z</time>
      </trkpt>
      <trkpt lat="42.1602120" lon="-8.8006470">
        <ele>134.7</ele>
        <time>2021-05-20T06:54:40Z</time>
      </trkpt>
      <trkpt lat="42.1602120" lon="-8.8006470">
        <ele>134.8</ele>
        <time>2021-05-20T06:54:41Z</time>
      </trkpt>
      <trkpt lat="42.1602120" lon="-8.8006470">
        <ele>134.8</ele>
        <time>2021-05-20T06:54:42Z</time>
      </trkpt>
      <trkpt lat="42.1602120" lon="-8.8006480">
        <ele>134.9</ele>
        <time>2021-05-20T06:54:43Z</time>
      </trkpt>
      <trkpt lat="42.1602120" lon="-8.8006480">
        <ele>135.0</ele>
        <time>2021-05-20T06:54:44Z</time>
      </trkpt>
      <trkpt lat="42.1602120" lon="-8.8006480">
        <ele>135.0</ele>
        <time>2021-05-20T06:54:45Z</time>
      </trkpt>
      <trkpt lat="42.1602120" lon="-8.8006480">
        <ele>135.1</ele>
        <time>2021-05-20T06:54:46Z</time>
      </trkpt>
      <trkpt lat="42.1602120" lon="-8.8006490">
        <ele>135.1</ele>
        <time>2021-05-20T06:54:47Z</time>
      </trkpt>
      <trkpt lat="42.1602120" lon="-8.8006490">
        <ele>135.2</ele>
        <time>2021-05-20T06:54:48Z</time>
      </trkpt>
      <trkpt lat="42.1602120" lon="-8.8006490">
        <ele>135.3</ele>
        <time>2021-05-20T06:54:49Z</time>
      </trkpt>
      <trkpt lat="42.1602120" lon="-8.8006490">
        <ele>135.3</ele>
        <time>2021-05-20T06:54:50Z</time>
      </trkpt>
      <trkpt lat="42.1602120" lon="-8.8006500">
        <ele>135.4</ele>
        <time>2021-05-20T06:54:51Z</time>
      </trkpt>
      <trkpt lat="42.1602120" lon="-8.8006500">
        <ele>135.4</ele>
        <time>2021-05-20T06:54:52Z</time>
      </trkpt>
      <trkpt lat="42.1602120" lon="-8.8006500">
        <ele>135.5</ele>
        <time>2021-05-20T06:54:53Z</time>
      </trkpt>
      <trkpt lat="42.1602120" lon="-8.8006500">
        <ele>135.6</ele>
        <time>2021-05-20T06:54:54Z</time>
      </trkpt>
      <trkpt lat="42.1602120" lon="-8.8006510">
        <ele>135.6</ele>
        <time>2021-05-20T06:54:55Z</time>
      </trkpt>
      <trkpt lat="42.1602120" lon="-8.8006510">
        <ele>135.7</ele>
        <time>2021-05-20T06:54:56Z</time>
      </trkpt>
      <trkpt lat="42.1602120" lon="-8.8006510">
        <ele>135.7</ele>
        <time>2021-05-20T06:54:57Z</time>
      </trkpt>
      <trkpt lat="42.1602120" lon="-8.8006510">
        <ele>135.8</ele>
        <time>2021-05-20T06:54:58Z</time>
      </trkpt>
      <trkpt lat="42.1602120" lon="-8.8006520">
        <ele>135.9</ele>
        <time>2021-05-20T06:54:59Z</time>
      </trkpt>
      <trkpt lat="42.1602120" lon="-8.8006520">
        <ele>135.9</ele>
        <time>2021-05-20T06:55:00Z</time>
      </trkpt>
      <trkpt lat="42.1602120" lon="-8.8006520">
        <ele>136.0</ele>
        <time>2021-05-20T06:55:01Z</time>
      </trkpt>
      <trkpt lat="42.1602120" lon="-8.8006520">
        <ele>136.0</ele>
        <time>2021-05-20T06:55:02Z</time>
      </trkpt>
      <trkpt lat="42.1602120" lon="-8.8006530">
        <ele>136.1</ele>
        <time>2021-05-20T06:55:03Z</time>
      </trkpt>
      <trkpt lat="42.1602120" lon="-8.8006530">
        <ele>136.2</ele>
        <time>2021-05-20T06:55:04Z</time>
      </trkpt>
      <trkpt lat="42.1602120" lon="-8.8006530">
        <ele>136.2</ele>
        <time>2021-05-20T06:55:05Z</time>
      </trkpt>
      <trkpt lat="42.1602120" lon="-8.8006530">
        <ele>136.3</ele>
        <time>2021-05-20T06:55:06Z</time>
      </trkpt>
      <trkpt lat="42.1602120" lon="-8.8006540">
        <ele>136.3</ele>
        <time>2021-05-20T06:55:07Z</time>
      </trkpt>
      <trkpt lat="42.1602120" lon="-8.8006540">
        <ele>136.4</ele>
        <time>2021-05-20T06:55:08Z</time>
      </trkpt>
      <trkpt lat="42.1602120" lon="-8.8006540">
        <ele>136.5</ele>
        <time>2021-05-20T06:55:09Z</time>
      </trkpt>
      <trkpt lat="42.1602120" lon="-8.8006540">
        <ele>136.5</ele>
        <time>2021-05-20T06:55:10Z</time>
      </trkpt>
      <trkpt lat="42.1602120" lon="-8.8006550">
        <ele>136.6</ele>
        <time>2021-05-20T06:55:11Z</time>
      </trkpt>
      <trkpt lat="42.1602120" lon="-8.8006550">
        <ele>136.6</ele>
        <time>2021-05-20T06:55:12Z</time>
      </trkpt>
      <trkpt lat="42.1602120" lon="-8.8006550">
        <ele>136.7</ele>
        <time>2021-05-20T06:55:13Z</time>
      </trkpt>
      <trkpt lat="42.1602120" lon="-8.8006550">
        <ele>136.8</ele>
        <time>2021-05-20T06:55:14Z</time>
      </trkpt>
      <trkpt lat="42.1602120" lon="-8.8006560">
        <ele>136.8</ele>
        <time>2021-05-20T06:55:15Z</time>
      </trkpt>
      <trkpt lat="42.1602120" lon="-8.8006560">
        <ele>136.9</ele>
        <time>2021-05-20T06:55:16Z</time>
      </trkpt>
      <trkpt lat="42.1602120" lon="-8.8006560">
        <ele>136.9</ele>
        <time>2021-05-20T06:55:17Z</time>
      </trkpt>
      <trkpt lat="42.1602120" lon="-8.8006560">
        <ele>137.0</ele>
        <time>2021-05-20T06:55:18Z</time>
      </trkpt>
      <trkpt lat="42.1602120" lon="-8.8006570">
        <ele>137.1</ele>
        <time>2021-05-20T06:55:19Z</time>
      </trkpt>
      <trkpt lat="42.1602120" lon="-8.8006570">
        <ele>137.1</ele>
        <time>2021-05-20T06:55:20Z</time>
      </trkpt>
      <trkpt lat="42.1602120" lon="-8.8006570">
        <ele>137.2</ele>
        <time>2021-05-20T06:55:21Z</time>
      </trkpt>
      <trkpt lat="42.1602120" lon="-8.8006570">
        <ele>137.2</ele>
        <time>2021-05-20T06:55:22Z</time>
      </trkpt>
      <trkpt lat="42.1602120" lon="-8.8006580">
        <ele>137.3</ele>
        <time>2021-05-20T06:55:23Z</time>
      </trkpt>
      <trkpt lat="42.1602120" lon="-8.8006580">
        <ele>137.4</ele>
        <time>2021-05-20T06:55:24Z</time>
      </trkpt>
      <trkpt lat="42.1602120" lon="-8.8006580">
        <ele>137.4</ele>
        <time>2021-05-20T06:55:25Z</time>
      </trkpt>
      <trkpt lat="42.1602120" lon="-8.8006580">
        <ele>137.5</ele>
        <time>2021-05-20T06:55:26Z</time>
      </trkpt>
      <trkpt lat="42.1602120" lon="-8.8006590">
        <ele>137.5</ele>
        <time>2021-05-20T06:55:27Z</time>
      </trkpt>
      <trkpt lat="42.1602120" lon="-8.8006590">
        <ele>137.6</ele>
        <time>2021-05-20T06:55:28Z</time>
      </trkpt>
      <trkpt lat="42.1602120" lon="-8.8006590">
        <ele>137.7</ele>
        <time>2021-05-20T06:55:29Z</time>
      </trkpt>
      <trkpt lat="42.1602120" lon="-8.8006590">
        <ele>137.7</ele>
        <time>2021-05-20T06:55:30Z</time>
      </trkpt>
      <trkpt lat="42.1602120" lon="-8.8006600">
        <ele>137.8</ele>
        <time>2021-05-20T06:55:31Z</time>
      </trkpt>
      <trkpt lat="42.1602120" lon="-8.8006600">
        <ele>137.8</ele>
        <time>2021-05-20T06:55:32Z</time>
      </trkpt>
      <trkpt lat="42.1602120" lon="-8.8006600">
        <ele>137.9</ele>
        <time>2021-05-20T06:55:33Z</time>
      </trkpt>
      <trkpt lat="42.1602120" lon="-8.8006600">
        <ele>138.0</ele>
        <time>2021-05-20T06:55:34Z</time>
      </trkpt>
      <trkpt lat="42.1602120" lon="-8.8006610">
        <ele>138.0</ele>
        <time>2021-05-20T06:55:35Z</time>
      </trkpt>
      <trkpt lat="42.1602120" lon="-8.8006610">
        <ele>138.1</ele>
        <time>2021-05-20T06:55:36Z</time>
      </trkpt>
      <trkpt lat="42.1602120" lon="-8.8006610">
        <ele>138.1</ele>
        <time>2021-05-20T06:55:37Z</time>
      </trkpt>
      <trkpt lat="42.1602120" lon="-8.8006610">
        <ele>138.2</ele>
        <time>2021-05-20T06:55:38Z</time>
      </trkpt>
      <trkpt lat="42.1602120" lon="-8.8006620">
        <ele>138.3</ele>
        <time>2021-05-20T06:55:39Z</time>
      </trkpt>
      <trkpt lat="42.1602120" lon="-8.8006620">
        <ele>138.3</ele>
        <time>2021-05-20T06:55:40Z</time>
      </trkpt>
      <trkpt lat="42.1602120" lon="-8.8006620">
        <ele>138.4</ele>
        <time>2021-05-20T06:55:41Z</time>
      </trkpt>
      <trkpt lat="42.1602120" lon="-8.8006620">
        <ele>138.4</ele>
        <time>2021-05-20T06:55:42Z</time>
      </trkpt>
      <trkpt lat="42.1602120" lon="-8.8006620">
        <ele>138.5</ele>
        <time>2021-05-20T06:55:43Z</time>
      </trkpt>
      <trkpt lat="42.1602120" lon="-8.8006630">
        <ele>138.6</ele>
        <time>2021-05-20T06:55:44Z</time>
      </trkpt>
      <trkpt lat="42.1602120" lon="-8.8006630">
        <ele>138.6</ele>
        <time>2021-05-20T06:55:45Z</time>
      </trkpt>
      <trkpt lat="42.1602120" lon="-8.8006630">
        <ele>138.7</ele>
        <time>2021-05-20T06:55:46Z</time>
      </trkpt>
      <trkpt lat="42.1602120" lon="-8.8006630">
        <ele>138.7</ele>
        <time>2021-05-20T06:55:47Z</time>
      </trkpt>
      <trkpt lat="42.1602120" lon="-8.8006640">
        <ele>138.8</ele>
        <time>2021-05-20T06:55:48Z</time>
      </trkpt>
      <trkpt lat="42.1602120" lon="-8.8006640">
        <ele>138.9</ele>
        <time>2021-05-20T06:55:49Z</time>
      </trkpt>
      <trkpt lat="42.1602120" lon="-8.8006640">
        <ele>138.9</ele>
        <time>2021-05-20T06:55:50Z</time>
      </trkpt>
      <trkpt lat="42.1602120" lon="-8.8006640">
        <ele>139.0</ele>
        <time>2021-05-20T06:55:51Z</time>
      </trkpt>
      <trkpt lat="42.1602120" lon="-8.8006650">
        <ele>139.0</ele>
        <time>2021-05-20T06:55:52Z</time>
      </trkpt>
      <trkpt lat="42.1602120" lon="-8.8006650">
        <ele>139.1</ele>
        <time>2021-05-20T06:55:53Z</time>
      </trkpt>
      <trkpt lat="42.1602120" lon="-8.8006650">
        <ele>139.1</ele>
        <time>2021-05-20T06:55:54Z</time>
      </trkpt>
      <trkpt lat="42.1602120" lon="-8.8006650">
        <ele>139.1</ele>
        <time>2021-05-20T06:55:55Z</time>
      </trkpt>
      <trkpt lat="42.1602130" lon="-8.8006660">
        <ele>139.1</ele>
        <time>2021-05-20T06:55:56Z</time>
      </trkpt>
      <trkpt lat="42.1602130" lon="-8.8006660">
        <ele>139.1</ele>
        <time>2021-05-20T06:55:57Z</time>
      </trkpt>
      <trkpt lat="42.1602130" lon="-8.8006660">
        <ele>139.1</ele>
        <time>2021-05-20T06:55:58Z</time>
      </trkpt>
      <trkpt lat="42.1602130" lon="-8.8006660">
        <ele>139.1</ele>
        <time>2021-05-20T06:55:59Z</time>
      </trkpt>
      <trkpt lat="42.1602130" lon="-8.8006670">
        <ele>139.1</ele>
        <time>2021-05-20T06:56:00Z</time>
      </trkpt>
      <trkpt lat="42.1602130" lon="-8.8006670">
        <ele>139.1</ele>
        <time>2021-05-20T06:56:01Z</time>
      </trkpt>
      <trkpt lat="42.1602130" lon="-8.8006670">
        <ele>139.1</ele>
        <time>2021-05-20T06:56:02Z</time>
      </trkpt>
      <trkpt lat="42.1602130" lon="-8.8006670">
        <ele>139.1</ele>
        <time>2021-05-20T06:56:03Z</time>
      </trkpt>
      <trkpt lat="42.1602130" lon="-8.8006680">
        <ele>139.1</ele>
        <time>2021-05-20T06:56:04Z</time>
      </trkpt>
      <trkpt lat="42.1602130" lon="-8.8006680">
        <ele>139.1</ele>
        <time>2021-05-20T06:56:05Z</time>
      </trkpt>
      <trkpt lat="42.1602130" lon="-8.8006680">
        <ele>139.1</ele>
        <time>2021-05-20T06:56:06Z</time>
      </trkpt>
      <trkpt lat="42.1602130" lon="-8.8006680">
        <ele>139.1</ele>
        <time>2021-05-20T06:56:07Z</time>
      </trkpt>
      <trkpt lat="42.1602130" lon="-8.8006690">
        <ele>139.1</ele>
        <time>2021-05-20T06:56:08Z</time>
      </trkpt>
      <trkpt lat="42.1602130" lon="-8.8006690">
        <ele>139.1</ele>
        <time>2021-05-20T06:56:09Z</time>
      </trkpt>
      <trkpt lat="42.1602130" lon="-8.8006690">
        <ele>139.1</ele>
        <time>2021-05-20T06:56:10Z</time>
      </trkpt>
      <trkpt lat="42.1602130" lon="-8.8006690">
        <ele>139.1</ele>
        <time>2021-05-20T06:56:11Z</time>
      </trkpt>
      <trkpt lat="42.1602130" lon="-8.8006700">
        <ele>139.1</ele>
        <time>2021-05-20T06:56:12Z</time>
      </trkpt>
      <trkpt lat="42.1602130" lon="-8.8006700">
        <ele>139.1</ele>
        <time>2021-05-20T06:56:13Z</time>
      </trkpt>
      <trkpt lat="42.1602130" lon="-8.8006700">
        <ele>139.1</ele>
        <time>2021-05-20T06:56:14Z</time>
      </trkpt>
      <trkpt lat="42.1602130" lon="-8.8006700">
        <ele>139.1</ele>
        <time>2021-05-20T06:56:15Z</time>
      </trkpt>
      <trkpt lat="42.1602130" lon="-8.8006710">
        <ele>139.1</ele>
        <time>2021-05-20T06:56:16Z</time>
      </trkpt>
      <trkpt lat="42.1602130" lon="-8.8006710">
        <ele>139.1</ele>
        <time>2021-05-20T06:56:17Z</time>
      </trkpt>
      <trkpt lat="42.1602130" lon="-8.8006710">
        <ele>139.1</ele>
        <time>2021-05-20T06:56:18Z</time>
      </trkpt>
      <trkpt lat="42.1602130" lon="-8.8006710">
        <ele>139.1</ele>
        <time>2021-05-20T06:56:19Z</time>
      </trkpt>
      <trkpt lat="42.1602130" lon="-8.8006720">
        <ele>139.1</ele>
        <time>2021-05-20T06:56:20Z</time>
      </trkpt>
      <trkpt lat="42.1602130" lon="-8.8006720">
        <ele>139.1</ele>
        <time>2021-05-20T06:56:21Z</time>
      </trkpt>
      <trkpt lat="42.1602130" lon="-8.8006720">
        <ele>139.1</ele>
        <time>2021-05-20T06:56:22Z</time>
      </trkpt>
      <trkpt lat="42.1602130" lon="-8.8006720">
        <ele>139.1</ele>
        <time>2021-05-20T06:56:23Z</time>
      </trkpt>
      <trkpt lat="42.1602130" lon="-8.8006730">
        <ele>139.1</ele>
        <time>2021-05-20T06:56:24Z</time>
      </trkpt>
      <trkpt lat="42.1602130" lon="-8.8006730">
        <ele>139.1</ele>
        <time>2021-05-20T06:56:25Z</time>
      </trkpt>
      <trkpt lat="42.1602130" lon="-8.8006730">
        <ele>139.1</ele>
        <time>2021-05-20T06:56:26Z</time>
      </trkpt>
      <trkpt lat="42.1602130" lon="-8.8006730">
        <ele>139.1</ele>
        <time>2021-05-20T06:56:27Z</time>
      </trkpt>
      <trkpt lat="42.1602130" lon="-8.8006740">
        <ele>139.1</ele>
        <time>2021-05-20T06:56:28Z</time>
      </trkpt>
      <trkpt lat="42.1602130" lon="-8.8006740">
        <ele>139.1</ele>
        <time>2021-05-20T06:56:29Z</time>
      </trkpt>
      <trkpt lat="42.1602130" lon="-8.8006740">
        <ele>139.1</ele>
        <time>2021-05-20T06:56:30Z</time>
      </trkpt>
      <trkpt lat="42.1602130" lon="-8.8006740">
        <ele>139.1</ele>
        <time>2021-05-20T06:56:31Z</time>
      </trkpt>
      <trkpt lat="42.1602130" lon="-8.8006750">
        <ele>139.1</ele>
        <time>2021-05-20T06:56:32Z</time>
      </trkpt>
      <trkpt lat="42.1602130" lon="-8.8006750">
        <ele>139.1</ele>
        <time>2021-05-20T06:56:33Z</time>
      </trkpt>
      <trkpt lat="42.1602130" lon="-8.8006750">
        <ele>139.1</ele>
        <time>2021-05-20T06:56:34Z</time>
      </trkpt>
      <trkpt lat="42.1602130" lon="-8.8006750">
        <ele>139.1</ele>
        <time>2021-05-20T06:56:35Z</time>
      </trkpt>
      <trkpt lat="42.1602130" lon="-8.8006760">
        <ele>139.1</ele>
        <time>2021-05-20T06:56:36Z</time>
      </trkpt>
      <trkpt lat="42.1602130" lon="-8.8006760">
        <ele>139.1</ele>
        <time>2021-05-20T06:56:37Z</time>
      </trkpt>
      <trkpt lat="42.1602130" lon="-8.8006760">
        <ele>139.1</ele>
        <time>2021-05-20T06:56:38Z</time>
      </trkpt>
      <trkpt lat="42.1602130" lon="-8.8006760">
        <ele>139.1</ele>
        <time>2021-05-20T06:56:39Z</time>
      </trkpt>
      <trkpt lat="42.1602130" lon="-8.8006770">
        <ele>139.1</ele>
        <time>2021-05-20T06:56:40Z</time>
      </trkpt>
      <trkpt lat="42.1602130" lon="-8.8006770">
        <ele>139.1</ele>
        <time>2021-05-20T06:56:41Z</time>
      </trkpt>
      <trkpt lat="42.1602130" lon="-8.8006770">
        <ele>139.1</ele>
        <time>2021-05-20T06:56:42Z</time>
      </trkpt>
      <trkpt lat="42.1602130" lon="-8.8006770">
        <ele>139.1</ele>
        <time>2021-05-20T06:56:43Z</time>
      </trkpt>
      <trkpt lat="42.1602130" lon="-8.8006780">
        <ele>139.1</ele>
        <time>2021-05-20T06:56:44Z</time>
      </trkpt>
      <trkpt lat="42.1602130" lon="-8.8006780">
        <ele>139.1</ele>
        <time>2021-05-20T06:56:45Z</time>
      </trkpt>
      <trkpt lat="42.1602130" lon="-8.8006780">
        <ele>139.1</ele>
        <time>2021-05-20T06:56:46Z</time>
      </trkpt>
      <trkpt lat="42.1602130" lon="-8.8006790">
        <ele>139.1</ele>
        <time>2021-05-20T06:56:47Z</time>
      </trkpt>
      <trkpt lat="42.1602130" lon="-8.8006780">
        <ele>139.1</ele>
        <time>2021-05-20T06:56:48Z</time>
      </trkpt>
      <trkpt lat="42.1602170" lon="-8.8006690">
        <ele>139.1</ele>
        <time>2021-05-20T06:56:49Z</time>
      </trkpt>
      <trkpt lat="42.1602150" lon="-8.8006690">
        <ele>139.1</ele>
        <time>2021-05-20T06:56:50Z</time>
      </trkpt>
      <trkpt lat="42.1602150" lon="-8.8006670">
        <ele>139.1</ele>
        <time>2021-05-20T06:56:51Z</time>
      </trkpt>
      <trkpt lat="42.1602170" lon="-8.8006640">
        <ele>139.1</ele>
        <time>2021-05-20T06:56:52Z</time>
      </trkpt>
      <trkpt lat="42.1602180" lon="-8.8006720">
        <ele>139.1</ele>
        <time>2021-05-20T06:56:53Z</time>
      </trkpt>
      <trkpt lat="42.1602160" lon="-8.8006610">
        <ele>139.2</ele>
        <time>2021-05-20T06:56:54Z</time>
      </trkpt>
      <trkpt lat="42.1602170" lon="-8.8006560">
        <ele>139.2</ele>
        <time>2021-05-20T06:56:55Z</time>
      </trkpt>
      <trkpt lat="42.1602160" lon="-8.8006490">
        <ele>139.2</ele>
        <time>2021-05-20T06:56:56Z</time>
      </trkpt>
      <trkpt lat="42.1602110" lon="-8.8006390">
        <ele>139.2</ele>
        <time>2021-05-20T06:56:57Z</time>
      </trkpt>
      <trkpt lat="42.1602110" lon="-8.8006360">
        <ele>139.2</ele>
        <time>2021-05-20T06:56:58Z</time>
      </trkpt>
      <trkpt lat="42.1602120" lon="-8.8006390">
        <ele>139.2</ele>
        <time>2021-05-20T06:56:59Z</time>
      </trkpt>
      <trkpt lat="42.1602110" lon="-8.8006330">
        <ele>139.2</ele>
        <time>2021-05-20T06:57:00Z</time>
      </trkpt>
      <trkpt lat="42.1602110" lon="-8.8006260">
        <ele>139.2</ele>
        <time>2021-05-20T06:57:01Z</time>
      </trkpt>
      <trkpt lat="42.1602120" lon="-8.8006180">
        <ele>139.2</ele>
        <time>2021-05-20T06:57:02Z</time>
      </trkpt>
      <trkpt lat="42.1602140" lon="-8.8006210">
        <ele>139.2</ele>
        <time>2021-05-20T06:57:03Z</time>
      </trkpt>
      <trkpt lat="42.1602160" lon="-8.8006240">
        <ele>139.2</ele>
        <time>2021-05-20T06:57:04Z</time>
      </trkpt>
      <trkpt lat="42.1602160" lon="-8.8006210">
        <ele>139.2</ele>
        <time>2021-05-20T06:57:05Z</time>
      </trkpt>
      <trkpt lat="42.1602180" lon="-8.8006230">
        <ele>139.2</ele>
        <time>2021-05-20T06:57:06Z</time>
      </trkpt>
      <trkpt lat="42.1602170" lon="-8.8006150">
        <ele>139.3</ele>
        <time>2021-05-20T06:57:07Z</time>
      </trkpt>
      <trkpt lat="42.1602180" lon="-8.8006070">
        <ele>139.3</ele>
        <time>2021-05-20T06:57:08Z</time>
      </trkpt>
      <trkpt lat="42.1602140" lon="-8.8006070">
        <ele>139.3</ele>
        <time>2021-05-20T06:57:09Z</time>
      </trkpt>
      <trkpt lat="42.1602170" lon="-8.8005960">
        <ele>139.3</ele>
        <time>2021-05-20T06:57:10Z</time>
      </trkpt>
      <trkpt lat="42.1602180" lon="-8.8005870">
        <ele>139.3</ele>
        <time>2021-05-20T06:57:11Z</time>
      </trkpt>
      <trkpt lat="42.1602200" lon="-8.8005780">
        <ele>139.3</ele>
        <time>2021-05-20T06:57:12Z</time>
      </trkpt>
      <trkpt lat="42.1602220" lon="-8.8005740">
        <ele>139.3</ele>
        <time>2021-05-20T06:57:13Z</time>
      </trkpt>
      <trkpt lat="42.1602240" lon="-8.8005700">
        <ele>139.3</ele>
        <time>2021-05-20T06:57:14Z</time>
      </trkpt>
      <trkpt lat="42.1602240" lon="-8.8005530">
        <ele>139.3</ele>
        <time>2021-05-20T06:57:15Z</time>
      </trkpt>
      <trkpt lat="42.1602240" lon="-8.8005390">
        <ele>139.4</ele>
        <time>2021-05-20T06:57:16Z</time>
      </trkpt>
      <trkpt lat="42.1602230" lon="-8.8005230">
        <ele>139.4</ele>
        <time>2021-05-20T06:57:17Z</time>
      </trkpt>
      <trkpt lat="42.1602240" lon="-8.8005160">
        <ele>139.4</ele>
        <time>2021-05-20T06:57:18Z</time>
      </trkpt>
      <trkpt lat="42.1602260" lon="-8.8005150">
        <ele>139.4</ele>
        <time>2021-05-20T06:57:19Z</time>
      </trkpt>
      <trkpt lat="42.1602250" lon="-8.8005080">
        <ele>139.4</ele>
        <time>2021-05-20T06:57:20Z</time>
      </trkpt>
      <trkpt lat="42.1602180" lon="-8.8005070">
        <ele>139.4</ele>
        <time>2021-05-20T06:57:21Z</time>
      </trkpt>
      <trkpt lat="42.1602120" lon="-8.8005130">
        <ele>139.4</ele>
        <time>2021-05-20T06:57:22Z</time>
      </trkpt>
      <trkpt lat="42.1602100" lon="-8.8005110">
        <ele>139.4</ele>
        <time>2021-05-20T06:57:23Z</time>
      </trkpt>
      <trkpt lat="42.1602120" lon="-8.8005140">
        <ele>139.4</ele>
        <time>2021-05-20T06:57:24Z</time>
      </trkpt>
      <trkpt lat="42.1602150" lon="-8.8005140">
        <ele>139.5</ele>
        <time>2021-05-20T06:57:25Z</time>
      </trkpt>
      <trkpt lat="42.1602170" lon="-8.8005120">
        <ele>139.5</ele>
        <time>2021-05-20T06:57:26Z</time>
      </trkpt>
      <trkpt lat="42.1602170" lon="-8.8005120">
        <ele>139.5</ele>
        <time>2021-05-20T06:57:27Z</time>
      </trkpt>
      <trkpt lat="42.1602200" lon="-8.8005040">
        <ele>139.5</ele>
        <time>2021-05-20T06:57:28Z</time>
      </trkpt>
      <trkpt lat="42.1602210" lon="-8.8005060">
        <ele>139.5</ele>
        <time>2021-05-20T06:57:29Z</time>
      </trkpt>
      <trkpt lat="42.1602210" lon="-8.8005060">
        <ele>139.5</ele>
        <time>2021-05-20T06:57:30Z</time>
      </trkpt>
      <trkpt lat="42.1602230" lon="-8.8004930">
        <ele>139.5</ele>
        <time>2021-05-20T06:57:31Z</time>
      </trkpt>
      <trkpt lat="42.1602230" lon="-8.8004930">
        <ele>139.5</ele>
        <time>2021-05-20T06:57:32Z</time>
      </trkpt>
      <trkpt lat="42.1602230" lon="-8.8004850">
        <ele>139.5</ele>
        <time>2021-05-20T06:57:33Z</time>
      </trkpt>
      <trkpt lat="42.1602230" lon="-8.8004880">
        <ele>139.5</ele>
        <time>2021-05-20T06:57:34Z</time>
      </trkpt>
      <trkpt lat="42.1602240" lon="-8.8004890">
        <ele>139.5</ele>
        <time>2021-05-20T06:57:35Z</time>
      </trkpt>
      <trkpt lat="42.1602220" lon="-8.8004980">
        <ele>139.5</ele>
        <time>2021-05-20T06:57:36Z</time>
      </trkpt>
      <trkpt lat="42.1602210" lon="-8.8005000">
        <ele>139.5</ele>
        <time>2021-05-20T06:57:37Z</time>
      </trkpt>
      <trkpt lat="42.1602160" lon="-8.8005070">
        <ele>139.5</ele>
        <time>2021-05-20T06:57:38Z</time>
      </trkpt>
      <trkpt lat="42.1602130" lon="-8.8005160">
        <ele>139.6</ele>
        <time>2021-05-20T06:57:39Z</time>
      </trkpt>
      <trkpt lat="42.1602050" lon="-8.8005200">
        <ele>139.6</ele>
        <time>2021-05-20T06:57:40Z</time>
      </trkpt>
      <trkpt lat="42.1602100" lon="-8.8005200">
        <ele>139.6</ele>
        <time>2021-05-20T06:57:41Z</time>
      </trkpt>
      <trkpt lat="42.1602060" lon="-8.8005190">
        <ele>139.6</ele>
        <time>2021-05-20T06:57:42Z</time>
      </trkpt>
      <trkpt lat="42.1602030" lon="-8.8005260">
        <ele>139.6</ele>
        <time>2021-05-20T06:57:43Z</time>
      </trkpt>
      <trkpt lat="42.1602040" lon="-8.8005330">
        <ele>139.6</ele>
        <time>2021-05-20T06:57:44Z</time>
      </trkpt>
      <trkpt lat="42.1602040" lon="-8.8005440">
        <ele>139.6</ele>
        <time>2021-05-20T06:57:45Z</time>
      </trkpt>
      <trkpt lat="42.1602020" lon="-8.8005560">
        <ele>139.6</ele>
        <time>2021-05-20T06:57:46Z</time>
      </trkpt>
      <trkpt lat="42.1602020" lon="-8.8005560">
        <ele>139.6</ele>
        <time>2021-05-20T06:57:47Z</time>
      </trkpt>
      <trkpt lat="42.1602030" lon="-8.8005570">
        <ele>139.6</ele>
        <time>2021-05-20T06:57:48Z</time>
      </trkpt>
      <trkpt lat="42.1602040" lon="-8.8005570">
        <ele>139.6</ele>
        <time>2021-05-20T06:57:49Z</time>
      </trkpt>
      <trkpt lat="42.1602050" lon="-8.8005580">
        <ele>139.6</ele>
        <time>2021-05-20T06:57:50Z</time>
      </trkpt>
      <trkpt lat="42.1602050" lon="-8.8005590">
        <ele>139.6</ele>
        <time>2021-05-20T06:57:51Z</time>
      </trkpt>
      <trkpt lat="42.1602060" lon="-8.8005590">
        <ele>139.6</ele>
        <time>2021-05-20T06:57:52Z</time>
      </trkpt>
      <trkpt lat="42.1602070" lon="-8.8005600">
        <ele>139.7</ele>
        <time>2021-05-20T06:57:53Z</time>
      </trkpt>
      <trkpt lat="42.1602080" lon="-8.8005600">
        <ele>139.7</ele>
        <time>2021-05-20T06:57:54Z</time>
      </trkpt>
      <trkpt lat="42.1602080" lon="-8.8005610">
        <ele>139.7</ele>
        <time>2021-05-20T06:57:55Z</time>
      </trkpt>
      <trkpt lat="42.1602090" lon="-8.8005620">
        <ele>139.7</ele>
        <time>2021-05-20T06:57:56Z</time>
      </trkpt>
      <trkpt lat="42.1602100" lon="-8.8005620">
        <ele>139.7</ele>
        <time>2021-05-20T06:57:57Z</time>
      </trkpt>
      <trkpt lat="42.1602110" lon="-8.8005630">
        <ele>139.7</ele>
        <time>2021-05-20T06:57:58Z</time>
      </trkpt>
      <trkpt lat="42.1602110" lon="-8.8005630">
        <ele>139.7</ele>
        <time>2021-05-20T06:57:59Z</time>
      </trkpt>
      <trkpt lat="42.1602120" lon="-8.8005640">
        <ele>139.7</ele>
        <time>2021-05-20T06:58:00Z</time>
      </trkpt>
      <trkpt lat="42.1602130" lon="-8.8005650">
        <ele>139.7</ele>
        <time>2021-05-20T06:58:01Z</time>
      </trkpt>
      <trkpt lat="42.1602130" lon="-8.8005650">
        <ele>139.7</ele>
        <time>2021-05-20T06:58:02Z</time>
      </trkpt>
      <trkpt lat="42.1602140" lon="-8.8005660">
        <ele>139.7</ele>
        <time>2021-05-20T06:58:03Z</time>
      </trkpt>
      <trkpt lat="42.1602150" lon="-8.8005670">
        <ele>139.7</ele>
        <time>2021-05-20T06:58:04Z</time>
      </trkpt>
      <trkpt lat="42.1602160" lon="-8.8005670">
        <ele>139.7</ele>
        <time>2021-05-20T06:58:05Z</time>
      </trkpt>
      <trkpt lat="42.1602160" lon="-8.8005680">
        <ele>139.7</ele>
        <time>2021-05-20T06:58:06Z</time>
      </trkpt>
      <trkpt lat="42.1602170" lon="-8.8005680">
        <ele>139.7</ele>
        <time>2021-05-20T06:58:07Z</time>
      </trkpt>
      <trkpt lat="42.1602180" lon="-8.8005690">
        <ele>139.7</ele>
        <time>2021-05-20T06:58:08Z</time>
      </trkpt>
      <trkpt lat="42.1602190" lon="-8.8005700">
        <ele>139.7</ele>
        <time>2021-05-20T06:58:09Z</time>
      </trkpt>
      <trkpt lat="42.1602190" lon="-8.8005700">
        <ele>139.7</ele>
        <time>2021-05-20T06:58:10Z</time>
      </trkpt>
      <trkpt lat="42.1602200" lon="-8.8005710">
        <ele>139.7</ele>
        <time>2021-05-20T06:58:11Z</time>
      </trkpt>
      <trkpt lat="42.1602210" lon="-8.8005710">
        <ele>139.7</ele>
        <time>2021-05-20T06:58:12Z</time>
      </trkpt>
      <trkpt lat="42.1602220" lon="-8.8005720">
        <ele>139.7</ele>
        <time>2021-05-20T06:58:13Z</time>
      </trkpt>
      <trkpt lat="42.1602220" lon="-8.8005730">
        <ele>139.7</ele>
        <time>2021-05-20T06:58:14Z</time>
      </trkpt>
      <trkpt lat="42.1602230" lon="-8.8005730">
        <ele>139.7</ele>
        <time>2021-05-20T06:58:15Z</time>
      </trkpt>
      <trkpt lat="42.1602240" lon="-8.8005740">
        <ele>139.7</ele>
        <time>2021-05-20T06:58:16Z</time>
      </trkpt>
      <trkpt lat="42.1602240" lon="-8.8005740">
        <ele>139.7</ele>
        <time>2021-05-20T06:58:17Z</time>
      </trkpt>
      <trkpt lat="42.1602250" lon="-8.8005750">
        <ele>139.7</ele>
        <time>2021-05-20T06:58:18Z</time>
      </trkpt>
      <trkpt lat="42.1602260" lon="-8.8005760">
        <ele>139.7</ele>
        <time>2021-05-20T06:58:19Z</time>
      </trkpt>
      <trkpt lat="42.1602270" lon="-8.8005760">
        <ele>139.7</ele>
        <time>2021-05-20T06:58:20Z</time>
      </trkpt>
      <trkpt lat="42.1602270" lon="-8.8005770">
        <ele>139.7</ele>
        <time>2021-05-20T06:58:21Z</time>
      </trkpt>
      <trkpt lat="42.1602280" lon="-8.8005770">
        <ele>139.7</ele>
        <time>2021-05-20T06:58:22Z</time>
      </trkpt>
      <trkpt lat="42.1602290" lon="-8.8005780">
        <ele>139.7</ele>
        <time>2021-05-20T06:58:23Z</time>
      </trkpt>
      <trkpt lat="42.1602300" lon="-8.8005790">
        <ele>139.7</ele>
        <time>2021-05-20T06:58:24Z</time>
      </trkpt>
      <trkpt lat="42.1602300" lon="-8.8005790">
        <ele>139.7</ele>
        <time>2021-05-20T06:58:25Z</time>
      </trkpt>
      <trkpt lat="42.1602310" lon="-8.8005800">
        <ele>139.7</ele>
        <time>2021-05-20T06:58:26Z</time>
      </trkpt>
      <trkpt lat="42.1602320" lon="-8.8005800">
        <ele>139.7</ele>
        <time>2021-05-20T06:58:27Z</time>
      </trkpt>
      <trkpt lat="42.1602320" lon="-8.8005810">
        <ele>139.7</ele>
        <time>2021-05-20T06:58:28Z</time>
      </trkpt>
      <trkpt lat="42.1602330" lon="-8.8005820">
        <ele>139.7</ele>
        <time>2021-05-20T06:58:29Z</time>
      </trkpt>
      <trkpt lat="42.1602340" lon="-8.8005820">
        <ele>139.7</ele>
        <time>2021-05-20T06:58:30Z</time>
      </trkpt>
      <trkpt lat="42.1602350" lon="-8.8005830">
        <ele>139.7</ele>
        <time>2021-05-20T06:58:31Z</time>
      </trkpt>
      <trkpt lat="42.1602350" lon="-8.8005840">
        <ele>139.7</ele>
        <time>2021-05-20T06:58:32Z</time>
      </trkpt>
      <trkpt lat="42.1602360" lon="-8.8005840">
        <ele>139.7</ele>
        <time>2021-05-20T06:58:33Z</time>
      </trkpt>
      <trkpt lat="42.1602370" lon="-8.8005850">
        <ele>139.7</ele>
        <time>2021-05-20T06:58:34Z</time>
      </trkpt>
      <trkpt lat="42.1602380" lon="-8.8005850">
        <ele>139.7</ele>
        <time>2021-05-20T06:58:35Z</time>
      </trkpt>
      <trkpt lat="42.1602380" lon="-8.8005860">
        <ele>139.7</ele>
        <time>2021-05-20T06:58:36Z</time>
      </trkpt>
      <trkpt lat="42.1602390" lon="-8.8005870">
        <ele>139.7</ele>
        <time>2021-05-20T06:58:37Z</time>
      </trkpt>
      <trkpt lat="42.1602400" lon="-8.8005870">
        <ele>139.7</ele>
        <time>2021-05-20T06:58:38Z</time>
      </trkpt>
      <trkpt lat="42.1602410" lon="-8.8005880">
        <ele>139.7</ele>
        <time>2021-05-20T06:58:39Z</time>
      </trkpt>
      <trkpt lat="42.1602410" lon="-8.8005880">
        <ele>139.7</ele>
        <time>2021-05-20T06:58:40Z</time>
      </trkpt>
      <trkpt lat="42.1602420" lon="-8.8005890">
        <ele>139.7</ele>
        <time>2021-05-20T06:58:41Z</time>
      </trkpt>
      <trkpt lat="42.1602400" lon="-8.8005910">
        <ele>139.7</ele>
        <time>2021-05-20T06:58:42Z</time>
      </trkpt>
      <trkpt lat="42.1602380" lon="-8.8005940">
        <ele>139.7</ele>
        <time>2021-05-20T06:58:43Z</time>
      </trkpt>
      <trkpt lat="42.1602350" lon="-8.8005970">
        <ele>139.8</ele>
        <time>2021-05-20T06:58:44Z</time>
      </trkpt>
      <trkpt lat="42.1602330" lon="-8.8006000">
        <ele>139.8</ele>
        <time>2021-05-20T06:58:45Z</time>
      </trkpt>
      <trkpt lat="42.1602300" lon="-8.8006030">
        <ele>139.8</ele>
        <time>2021-05-20T06:58:46Z</time>
      </trkpt>
      <trkpt lat="42.1602280" lon="-8.8006060">
        <ele>139.8</ele>
        <time>2021-05-20T06:58:47Z</time>
      </trkpt>
      <trkpt lat="42.1602250" lon="-8.8006080">
        <ele>139.8</ele>
        <time>2021-05-20T06:58:48Z</time>
      </trkpt>
      <trkpt lat="42.1602220" lon="-8.8006110">
        <ele>139.8</ele>
        <time>2021-05-20T06:58:49Z</time>
      </trkpt>
      <trkpt lat="42.1602200" lon="-8.8006140">
        <ele>139.8</ele>
        <time>2021-05-20T06:58:50Z</time>
      </trkpt>
      <trkpt lat="42.1602170" lon="-8.8006170">
        <ele>139.8</ele>
        <time>2021-05-20T06:58:51Z</time>
      </trkpt>
      <trkpt lat="42.1602150" lon="-8.8006200">
        <ele>139.8</ele>
        <time>2021-05-20T06:58:52Z</time>
      </trkpt>
      <trkpt lat="42.1602120" lon="-8.8006230">
        <ele>139.8</ele>
        <time>2021-05-20T06:58:53Z</time>
      </trkpt>
      <trkpt lat="42.1601990" lon="-8.8006150">
        <ele>139.8</ele>
        <time>2021-05-20T06:58:54Z</time>
      </trkpt>
      <trkpt lat="42.1601930" lon="-8.8006010">
        <ele>139.9</ele>
        <time>2021-05-20T06:58:55Z</time>
      </trkpt>
      <trkpt lat="42.1601960" lon="-8.8006060">
        <ele>139.9</ele>
        <time>2021-05-20T06:58:56Z</time>
      </trkpt>
      <trkpt lat="42.1601980" lon="-8.8005960">
        <ele>139.9</ele>
        <time>2021-05-20T06:58:57Z</time>
      </trkpt>
      <trkpt lat="42.1601970" lon="-8.8005920">
        <ele>139.9</ele>
        <time>2021-05-20T06:58:58Z</time>
      </trkpt>
      <trkpt lat="42.1601890" lon="-8.8005890">
        <ele>139.9</ele>
        <time>2021-05-20T06:58:59Z</time>
      </trkpt>
      <trkpt lat="42.1601860" lon="-8.8005850">
        <ele>139.9</ele>
        <time>2021-05-20T06:59:00Z</time>
      </trkpt>
      <trkpt lat="42.1601830" lon="-8.8005820">
        <ele>139.9</ele>
        <time>2021-05-20T06:59:01Z</time>
      </trkpt>
      <trkpt lat="42.1601800" lon="-8.8005790">
        <ele>139.9</ele>
        <time>2021-05-20T06:59:02Z</time>
      </trkpt>
      <trkpt lat="42.1601770" lon="-8.8005760">
        <ele>139.9</ele>
        <time>2021-05-20T06:59:03Z</time>
      </trkpt>
      <trkpt lat="42.1601750" lon="-8.8005720">
        <ele>139.9</ele>
        <time>2021-05-20T06:59:04Z</time>
      </trkpt>
      <trkpt lat="42.1601720" lon="-8.8005690">
        <ele>140.0</ele>
        <time>2021-05-20T06:59:05Z</time>
      </trkpt>
      <trkpt lat="42.1601690" lon="-8.8005660">
        <ele>140.0</ele>
        <time>2021-05-20T06:59:06Z</time>
      </trkpt>
      <trkpt lat="42.1601660" lon="-8.8005630">
        <ele>140.0</ele>
        <time>2021-05-20T06:59:07Z</time>
      </trkpt>
      <trkpt lat="42.1601630" lon="-8.8005590">
        <ele>140.0</ele>
        <time>2021-05-20T06:59:08Z</time>
      </trkpt>
      <trkpt lat="42.1601600" lon="-8.8005560">
        <ele>140.0</ele>
        <time>2021-05-20T06:59:09Z</time>
      </trkpt>
      <trkpt lat="42.1601390" lon="-8.8005630">
        <ele>140.0</ele>
        <time>2021-05-20T06:59:10Z</time>
      </trkpt>
      <trkpt lat="42.1601310" lon="-8.8005640">
        <ele>140.0</ele>
        <time>2021-05-20T06:59:11Z</time>
      </trkpt>
      <trkpt lat="42.1601230" lon="-8.8005640">
        <ele>140.1</ele>
        <time>2021-05-20T06:59:12Z</time>
      </trkpt>
      <trkpt lat="42.1601110" lon="-8.8005640">
        <ele>140.1</ele>
        <time>2021-05-20T06:59:13Z</time>
      </trkpt>
      <trkpt lat="42.1600950" lon="-8.8005710">
        <ele>140.1</ele>
        <time>2021-05-20T06:59:14Z</time>
      </trkpt>
      <trkpt lat="42.1600860" lon="-8.8005740">
        <ele>140.1</ele>
        <time>2021-05-20T06:59:15Z</time>
      </trkpt>
      <trkpt lat="42.1600770" lon="-8.8005710">
        <ele>140.1</ele>
        <time>2021-05-20T06:59:16Z</time>
      </trkpt>
      <trkpt lat="42.1600610" lon="-8.8005770">
        <ele>140.2</ele>
        <time>2021-05-20T06:59:17Z</time>
      </trkpt>
      <trkpt lat="42.1600470" lon="-8.8005750">
        <ele>140.2</ele>
        <time>2021-05-20T06:59:18Z</time>
      </trkpt>
      <trkpt lat="42.1600450" lon="-8.8005620">
        <ele>140.2</ele>
        <time>2021-05-20T06:59:19Z</time>
      </trkpt>
      <trkpt lat="42.1600350" lon="-8.8005540">
        <ele>140.2</ele>
        <time>2021-05-20T06:59:20Z</time>
      </trkpt>
      <trkpt lat="42.1600200" lon="-8.8005580">
        <ele>140.3</ele>
        <time>2021-05-20T06:59:21Z</time>
      </trkpt>
      <trkpt lat="42.1600090" lon="-8.8005650">
        <ele>140.3</ele>
        <time>2021-05-20T06:59:22Z</time>
      </trkpt>
      <trkpt lat="42.1600070" lon="-8.8005640">
        <ele>140.3</ele>
        <time>2021-05-20T06:59:23Z</time>
      </trkpt>
      <trkpt lat="42.1600030" lon="-8.8005650">
        <ele>140.3</ele>
        <time>2021-05-20T06:59:24Z</time>
      </trkpt>
      <trkpt lat="42.1599990" lon="-8.8005670">
        <ele>140.3</ele>
        <time>2021-05-20T06:59:25Z</time>
      </trkpt>
      <trkpt lat="42.1599960" lon="-8.8005650">
        <ele>140.3</ele>
        <time>2021-05-20T06:59:26Z</time>
      </trkpt>
      <trkpt lat="42.1599850" lon="-8.8005610">
        <ele>140.3</ele>
        <time>2021-05-20T06:59:27Z</time>
      </trkpt>
      <trkpt lat="42.1599800" lon="-8.8005660">
        <ele>140.4</ele>
        <time>2021-05-20T06:59:28Z</time>
      </trkpt>
      <trkpt lat="42.1599800" lon="-8.8005700">
        <ele>140.4</ele>
        <time>2021-05-20T06:59:29Z</time>
      </trkpt>
      <trkpt lat="42.1599940" lon="-8.8005700">
        <ele>140.4</ele>
        <time>2021-05-20T06:59:30Z</time>
      </trkpt>
      <trkpt lat="42.1600020" lon="-8.8005670">
        <ele>140.4</ele>
        <time>2021-05-20T06:59:31Z</time>
      </trkpt>
      <trkpt lat="42.1599910" lon="-8.8005610">
        <ele>140.4</ele>
        <time>2021-05-20T06:59:32Z</time>
      </trkpt>
      <trkpt lat="42.1599920" lon="-8.8005610">
        <ele>140.4</ele>
        <time>2021-05-20T06:59:33Z</time>
      </trkpt>
      <trkpt lat="42.1599900" lon="-8.8005370">
        <ele>140.5</ele>
        <time>2021-05-20T06:59:34Z</time>
      </trkpt>
      <trkpt lat="42.1599860" lon="-8.8005300">
        <ele>140.5</ele>
        <time>2021-05-20T06:59:35Z</time>
      </trkpt>
      <trkpt lat="42.1599760" lon="-8.8005240">
        <ele>140.5</ele>
        <time>2021-05-20T06:59:36Z</time>
      </trkpt>
      <trkpt lat="42.1599720" lon="-8.8005190">
        <ele>140.5</ele>
        <time>2021-05-20T06:59:37Z</time>
      </trkpt>
      <trkpt lat="42.1599680" lon="-8.8005240">
        <ele>140.5</ele>
        <time>2021-05-20T06:59:38Z</time>
      </trkpt>
      <trkpt lat="42.1599670" lon="-8.8005270">
        <ele>140.5</ele>
        <time>2021-05-20T06:59:39Z</time>
      </trkpt>
      <trkpt lat="42.1599680" lon="-8.8005230">
        <ele>140.5</ele>
        <time>2021-05-20T06:59:40Z</time>
      </trkpt>
      <trkpt lat="42.1599660" lon="-8.8005100">
        <ele>140.5</ele>
        <time>2021-05-20T06:59:41Z</time>
      </trkpt>
      <trkpt lat="42.1599640" lon="-8.8005030">
        <ele>140.6</ele>
        <time>2021-05-20T06:59:42Z</time>
      </trkpt>
      <trkpt lat="42.1599700" lon="-8.8005100">
        <ele>140.6</ele>
        <time>2021-05-20T06:59:43Z</time>
      </trkpt>
      <trkpt lat="42.1599720" lon="-8.8005090">
        <ele>140.6</ele>
        <time>2021-05-20T06:59:44Z</time>
      </trkpt>
      <trkpt lat="42.1599680" lon="-8.8004900">
        <ele>140.6</ele>
        <time>2021-05-20T06:59:45Z</time>
      </trkpt>
      <trkpt lat="42.1599690" lon="-8.8004650">
        <ele>140.6</ele>
        <time>2021-05-20T06:59:46Z</time>
      </trkpt>
      <trkpt lat="42.1599710" lon="-8.8004510">
        <ele>140.7</ele>
        <time>2021-05-20T06:59:47Z</time>
      </trkpt>
      <trkpt lat="42.1599710" lon="-8.8004470">
        <ele>140.7</ele>
        <time>2021-05-20T06:59:48Z</time>
      </trkpt>
      <trkpt lat="42.1599750" lon="-8.8004400">
        <ele>140.7</ele>
        <time>2021-05-20T06:59:49Z</time>
      </trkpt>
      <trkpt lat="42.1599840" lon="-8.8004260">
        <ele>140.7</ele>
        <time>2021-05-20T06:59:50Z</time>
      </trkpt>
      <trkpt lat="42.1599700" lon="-8.8004000">
        <ele>140.7</ele>
        <time>2021-05-20T06:59:51Z</time>
      </trkpt>
      <trkpt lat="42.1599650" lon="-8.8003910">
        <ele>140.8</ele>
        <time>2021-05-20T06:59:52Z</time>
      </trkpt>
      <trkpt lat="42.1599610" lon="-8.8003820">
        <ele>140.8</ele>
        <time>2021-05-20T06:59:53Z</time>
      </trkpt>
      <trkpt lat="42.1599650" lon="-8.8003750">
        <ele>140.8</ele>
        <time>2021-05-20T06:59:54Z</time>
      </trkpt>
      <trkpt lat="42.1599690" lon="-8.8003710">
        <ele>140.8</ele>
        <time>2021-05-20T06:59:55Z</time>
      </trkpt>
      <trkpt lat="42.1599730" lon="-8.8003670">
        <ele>140.8</ele>
        <time>2021-05-20T06:59:56Z</time>
      </trkpt>
      <trkpt lat="42.1599780" lon="-8.8003630">
        <ele>140.8</ele>
        <time>2021-05-20T06:59:57Z</time>
      </trkpt>
      <trkpt lat="42.1599820" lon="-8.8003590">
        <ele>140.8</ele>
        <time>2021-05-20T06:59:58Z</time>
      </trkpt>
      <trkpt lat="42.1599860" lon="-8.8003550">
        <ele>140.8</ele>
        <time>2021-05-20T06:59:59Z</time>
      </trkpt>
      <trkpt lat="42.1599900" lon="-8.8003510">
        <ele>140.8</ele>
        <time>2021-05-20T07:00:00Z</time>
      </trkpt>
      <trkpt lat="42.1599930" lon="-8.8003430">
        <ele>140.9</ele>
        <time>2021-05-20T07:00:01Z</time>
      </trkpt>
      <trkpt lat="42.1599990" lon="-8.8003360">
        <ele>140.9</ele>
        <time>2021-05-20T07:00:02Z</time>
      </trkpt>
      <trkpt lat="42.1600040" lon="-8.8003290">
        <ele>140.9</ele>
        <time>2021-05-20T07:00:03Z</time>
      </trkpt>
      <trkpt lat="42.1600140" lon="-8.8003250">
        <ele>140.9</ele>
        <time>2021-05-20T07:00:04Z</time>
      </trkpt>
      <trkpt lat="42.1600250" lon="-8.8003240">
        <ele>140.9</ele>
        <time>2021-05-20T07:00:05Z</time>
      </trkpt>
      <trkpt lat="42.1600300" lon="-8.8003160">
        <ele>140.9</ele>
        <time>2021-05-20T07:00:06Z</time>
      </trkpt>
      <trkpt lat="42.1600340" lon="-8.8003180">
        <ele>140.9</ele>
        <time>2021-05-20T07:00:07Z</time>
      </trkpt>
      <trkpt lat="42.1600420" lon="-8.8003100">
        <ele>141.0</ele>
        <time>2021-05-20T07:00:08Z</time>
      </trkpt>
      <trkpt lat="42.1600510" lon="-8.8002990">
        <ele>141.0</ele>
        <time>2021-05-20T07:00:09Z</time>
      </trkpt>
      <trkpt lat="42.1600600" lon="-8.8002840">
        <ele>141.0</ele>
        <time>2021-05-20T07:00:10Z</time>
      </trkpt>
      <trkpt lat="42.1600610" lon="-8.8002730">
        <ele>141.0</ele>
        <time>2021-05-20T07:00:11Z</time>
      </trkpt>
      <trkpt lat="42.1600710" lon="-8.8002600">
        <ele>141.1</ele>
        <time>2021-05-20T07:00:12Z</time>
      </trkpt>
      <trkpt lat="42.1600790" lon="-8.8002550">
        <ele>141.1</ele>
        <time>2021-05-20T07:00:13Z</time>
      </trkpt>
      <trkpt lat="42.1600900" lon="-8.8002430">
        <ele>141.1</ele>
        <time>2021-05-20T07:00:14Z</time>
      </trkpt>
      <trkpt lat="42.1601030" lon="-8.8002370">
        <ele>141.1</ele>
        <time>2021-05-20T07:00:15Z</time>
      </trkpt>
      <trkpt lat="42.1601140" lon="-8.8002190">
        <ele>141.2</ele>
        <time>2021-05-20T07:00:16Z</time>
      </trkpt>
      <trkpt lat="42.1601300" lon="-8.8002070">
        <ele>141.2</ele>
        <time>2021-05-20T07:00:17Z</time>
      </trkpt>
      <trkpt lat="42.1601470" lon="-8.8002120">
        <ele>141.2</ele>
        <time>2021-05-20T07:00:18Z</time>
      </trkpt>
      <trkpt lat="42.1601660" lon="-8.8002090">
        <ele>141.3</ele>
        <time>2021-05-20T07:00:19Z</time>
      </trkpt>
      <trkpt lat="42.1601730" lon="-8.8002050">
        <ele>141.3</ele>
        <time>2021-05-20T07:00:20Z</time>
      </trkpt>
      <trkpt lat="42.1601810" lon="-8.8002020">
        <ele>141.3</ele>
        <time>2021-05-20T07:00:21Z</time>
      </trkpt>
      <trkpt lat="42.1601880" lon="-8.8001980">
        <ele>141.3</ele>
        <time>2021-05-20T07:00:22Z</time>
      </trkpt>
      <trkpt lat="42.1601990" lon="-8.8001930">
        <ele>141.3</ele>
        <time>2021-05-20T07:00:23Z</time>
      </trkpt>
      <trkpt lat="42.1602090" lon="-8.8001940">
        <ele>141.3</ele>
        <time>2021-05-20T07:00:24Z</time>
      </trkpt>
      <trkpt lat="42.1602150" lon="-8.8001870">
        <ele>141.3</ele>
        <time>2021-05-20T07:00:25Z</time>
      </trkpt>
      <trkpt lat="42.1602290" lon="-8.8001750">
        <ele>141.4</ele>
        <time>2021-05-20T07:00:26Z</time>
      </trkpt>
      <trkpt lat="42.1602390" lon="-8.8001690">
        <ele>141.4</ele>
        <time>2021-05-20T07:00:27Z</time>
      </trkpt>
      <trkpt lat="42.1602550" lon="-8.8001630">
        <ele>141.4</ele>
        <time>2021-05-20T07:00:28Z</time>
      </trkpt>
      <trkpt lat="42.1602670" lon="-8.8001610">
        <ele>141.5</ele>
        <time>2021-05-20T07:00:29Z</time>
      </trkpt>
      <trkpt lat="42.1602780" lon="-8.8001580">
        <ele>141.5</ele>
        <time>2021-05-20T07:00:30Z</time>
      </trkpt>
      <trkpt lat="42.1603030" lon="-8.8001520">
        <ele>141.5</ele>
        <time>2021-05-20T07:00:31Z</time>
      </trkpt>
      <trkpt lat="42.1603090" lon="-8.8001480">
        <ele>141.5</ele>
        <time>2021-05-20T07:00:32Z</time>
      </trkpt>
      <trkpt lat="42.1603160" lon="-8.8001450">
        <ele>141.5</ele>
        <time>2021-05-20T07:00:33Z</time>
      </trkpt>
      <trkpt lat="42.1603360" lon="-8.8001380">
        <ele>141.6</ele>
        <time>2021-05-20T07:00:34Z</time>
      </trkpt>
      <trkpt lat="42.1603450" lon="-8.8001350">
        <ele>141.6</ele>
        <time>2021-05-20T07:00:35Z</time>
      </trkpt>
      <trkpt lat="42.1603530" lon="-8.8001320">
        <ele>141.6</ele>
        <time>2021-05-20T07:00:36Z</time>
      </trkpt>
      <trkpt lat="42.1603610" lon="-8.8001240">
        <ele>141.6</ele>
        <time>2021-05-20T07:00:37Z</time>
      </trkpt>
      <trkpt lat="42.1603810" lon="-8.8001160">
        <ele>141.7</ele>
        <time>2021-05-20T07:00:38Z</time>
      </trkpt>
      <trkpt lat="42.1603970" lon="-8.8001080">
        <ele>141.7</ele>
        <time>2021-05-20T07:00:39Z</time>
      </trkpt>
      <trkpt lat="42.1604110" lon="-8.8001080">
        <ele>141.7</ele>
        <time>2021-05-20T07:00:40Z</time>
      </trkpt>
      <trkpt lat="42.1604310" lon="-8.8000990">
        <ele>141.8</ele>
        <time>2021-05-20T07:00:41Z</time>
      </trkpt>
      <trkpt lat="42.1604400" lon="-8.8000950">
        <ele>141.8</ele>
        <time>2021-05-20T07:00:42Z</time>
      </trkpt>
      <trkpt lat="42.1604500" lon="-8.8000920">
        <ele>141.8</ele>
        <time>2021-05-20T07:00:43Z</time>
      </trkpt>
      <trkpt lat="42.1604640" lon="-8.8000850">
        <ele>141.8</ele>
        <time>2021-05-20T07:00:44Z</time>
      </trkpt>
      <trkpt lat="42.1604780" lon="-8.8000790">
        <ele>141.9</ele>
        <time>2021-05-20T07:00:45Z</time>
      </trkpt>
      <trkpt lat="42.1604860" lon="-8.8000750">
        <ele>141.9</ele>
        <time>2021-05-20T07:00:46Z</time>
      </trkpt>
      <trkpt lat="42.1605000" lon="-8.8000730">
        <ele>141.9</ele>
        <time>2021-05-20T07:00:47Z</time>
      </trkpt>
      <trkpt lat="42.1605080" lon="-8.8000740">
        <ele>141.9</ele>
        <time>2021-05-20T07:00:48Z</time>
      </trkpt>
      <trkpt lat="42.1605210" lon="-8.8000700">
        <ele>141.9</ele>
        <time>2021-05-20T07:00:49Z</time>
      </trkpt>
      <trkpt lat="42.1605320" lon="-8.8000710">
        <ele>142.0</ele>
        <time>2021-05-20T07:00:50Z</time>
      </trkpt>
      <trkpt lat="42.1605420" lon="-8.8000640">
        <ele>142.0</ele>
        <time>2021-05-20T07:00:51Z</time>
      </trkpt>
      <trkpt lat="42.1605500" lon="-8.8000630">
        <ele>142.0</ele>
        <time>2021-05-20T07:00:52Z</time>
      </trkpt>
      <trkpt lat="42.1605600" lon="-8.8000650">
        <ele>142.0</ele>
        <time>2021-05-20T07:00:53Z</time>
      </trkpt>
      <trkpt lat="42.1605640" lon="-8.8000760">
        <ele>142.0</ele>
        <time>2021-05-20T07:00:54Z</time>
      </trkpt>
      <trkpt lat="42.1605730" lon="-8.8000770">
        <ele>142.0</ele>
        <time>2021-05-20T07:00:55Z</time>
      </trkpt>
      <trkpt lat="42.1605930" lon="-8.8000830">
        <ele>142.1</ele>
        <time>2021-05-20T07:00:56Z</time>
      </trkpt>
      <trkpt lat="42.1606020" lon="-8.8000850">
        <ele>142.1</ele>
        <time>2021-05-20T07:00:57Z</time>
      </trkpt>
      <trkpt lat="42.1606120" lon="-8.8000870">
        <ele>142.1</ele>
        <time>2021-05-20T07:00:58Z</time>
      </trkpt>
      <trkpt lat="42.1606320" lon="-8.8000890">
        <ele>142.1</ele>
        <time>2021-05-20T07:00:59Z</time>
      </trkpt>
      <trkpt lat="42.1606400" lon="-8.8000920">
        <ele>142.2</ele>
        <time>2021-05-20T07:01:00Z</time>
      </trkpt>
      <trkpt lat="42.1606490" lon="-8.8000950">
        <ele>142.2</ele>
        <time>2021-05-20T07:01:01Z</time>
      </trkpt>
      <trkpt lat="42.1606690" lon="-8.8000970">
        <ele>142.2</ele>
        <time>2021-05-20T07:01:02Z</time>
      </trkpt>
      <trkpt lat="42.1606810" lon="-8.8000950">
        <ele>142.2</ele>
        <time>2021-05-20T07:01:03Z</time>
      </trkpt>
      <trkpt lat="42.1606920" lon="-8.8000940">
        <ele>142.2</ele>
        <time>2021-05-20T07:01:04Z</time>
      </trkpt>
      <trkpt lat="42.1607020" lon="-8.8000840">
        <ele>142.3</ele>
        <time>2021-05-20T07:01:05Z</time>
      </trkpt>
      <trkpt lat="42.1607140" lon="-8.8000850">
        <ele>142.3</ele>
        <time>2021-05-20T07:01:06Z</time>
      </trkpt>
      <trkpt lat="42.1607250" lon="-8.8000810">
        <ele>142.3</ele>
        <time>2021-05-20T07:01:07Z</time>
      </trkpt>
      <trkpt lat="42.1607430" lon="-8.8000800">
        <ele>142.3</ele>
        <time>2021-05-20T07:01:08Z</time>
      </trkpt>
      <trkpt lat="42.1607520" lon="-8.8000780">
        <ele>142.4</ele>
        <time>2021-05-20T07:01:09Z</time>
      </trkpt>
      <trkpt lat="42.1607610" lon="-8.8000760">
        <ele>142.5</ele>
        <time>2021-05-20T07:01:10Z</time>
      </trkpt>
      <trkpt lat="42.1607700" lon="-8.8000810">
        <ele>142.5</ele>
        <time>2021-05-20T07:01:11Z</time>
      </trkpt>
      <trkpt lat="42.1607860" lon="-8.8000890">
        <ele>142.6</ele>
        <time>2021-05-20T07:01:12Z</time>
      </trkpt>
      <trkpt lat="42.1607880" lon="-8.8000910">
        <ele>142.6</ele>
        <time>2021-05-20T07:01:13Z</time>
      </trkpt>
      <trkpt lat="42.1607970" lon="-8.8000880">
        <ele>142.6</ele>
        <time>2021-05-20T07:01:14Z</time>
      </trkpt>
      <trkpt lat="42.1608070" lon="-8.8000860">
        <ele>142.7</ele>
        <time>2021-05-20T07:01:15Z</time>
      </trkpt>
      <trkpt lat="42.1608190" lon="-8.8000900">
        <ele>142.7</ele>
        <time>2021-05-20T07:01:16Z</time>
      </trkpt>
      <trkpt lat="42.1608280" lon="-8.8000910">
        <ele>142.8</ele>
        <time>2021-05-20T07:01:17Z</time>
      </trkpt>
      <trkpt lat="42.1608400" lon="-8.8000900">
        <ele>142.8</ele>
        <time>2021-05-20T07:01:18Z</time>
      </trkpt>
      <trkpt lat="42.1608500" lon="-8.8000910">
        <ele>142.8</ele>
        <time>2021-05-20T07:01:19Z</time>
      </trkpt>
      <trkpt lat="42.1608630" lon="-8.8000900">
        <ele>142.9</ele>
        <time>2021-05-20T07:01:20Z</time>
      </trkpt>
      <trkpt lat="42.1608780" lon="-8.8000910">
        <ele>142.9</ele>
        <time>2021-05-20T07:01:21Z</time>
      </trkpt>
      <trkpt lat="42.1609000" lon="-8.8000900">
        <ele>143.0</ele>
        <time>2021-05-20T07:01:22Z</time>
      </trkpt>
      <trkpt lat="42.1609100" lon="-8.8000920">
        <ele>143.0</ele>
        <time>2021-05-20T07:01:23Z</time>
      </trkpt>
      <trkpt lat="42.1609200" lon="-8.8000930">
        <ele>143.0</ele>
        <time>2021-05-20T07:01:24Z</time>
      </trkpt>
      <trkpt lat="42.1609320" lon="-8.8000930">
        <ele>143.0</ele>
        <time>2021-05-20T07:01:25Z</time>
      </trkpt>
      <trkpt lat="42.1609420" lon="-8.8000930">
        <ele>143.1</ele>
        <time>2021-05-20T07:01:26Z</time>
      </trkpt>
      <trkpt lat="42.1609530" lon="-8.8000930">
        <ele>143.1</ele>
        <time>2021-05-20T07:01:27Z</time>
      </trkpt>
      <trkpt lat="42.1609630" lon="-8.8001010">
        <ele>143.1</ele>
        <time>2021-05-20T07:01:28Z</time>
      </trkpt>
      <trkpt lat="42.1609740" lon="-8.8001020">
        <ele>143.1</ele>
        <time>2021-05-20T07:01:29Z</time>
      </trkpt>
      <trkpt lat="42.1609840" lon="-8.8001050">
        <ele>143.1</ele>
        <time>2021-05-20T07:01:30Z</time>
      </trkpt>
      <trkpt lat="42.1609970" lon="-8.8001170">
        <ele>143.1</ele>
        <time>2021-05-20T07:01:31Z</time>
      </trkpt>
      <trkpt lat="42.1610120" lon="-8.8001140">
        <ele>143.2</ele>
        <time>2021-05-20T07:01:32Z</time>
      </trkpt>
      <trkpt lat="42.1610160" lon="-8.8001170">
        <ele>143.2</ele>
        <time>2021-05-20T07:01:33Z</time>
      </trkpt>
      <trkpt lat="42.1610270" lon="-8.8001250">
        <ele>143.2</ele>
        <time>2021-05-20T07:01:34Z</time>
      </trkpt>
      <trkpt lat="42.1610380" lon="-8.8001330">
        <ele>143.2</ele>
        <time>2021-05-20T07:01:35Z</time>
      </trkpt>
      <trkpt lat="42.1610470" lon="-8.8001380">
        <ele>143.2</ele>
        <time>2021-05-20T07:01:36Z</time>
      </trkpt>
      <trkpt lat="42.1610570" lon="-8.8001380">
        <ele>143.2</ele>
        <time>2021-05-20T07:01:37Z</time>
      </trkpt>
      <trkpt lat="42.1610710" lon="-8.8001540">
        <ele>143.2</ele>
        <time>2021-05-20T07:01:38Z</time>
      </trkpt>
      <trkpt lat="42.1610920" lon="-8.8001580">
        <ele>143.2</ele>
        <time>2021-05-20T07:01:39Z</time>
      </trkpt>
      <trkpt lat="42.1611010" lon="-8.8001610">
        <ele>143.2</ele>
        <time>2021-05-20T07:01:40Z</time>
      </trkpt>
      <trkpt lat="42.1611110" lon="-8.8001630">
        <ele>143.2</ele>
        <time>2021-05-20T07:01:41Z</time>
      </trkpt>
      <trkpt lat="42.1611260" lon="-8.8001760">
        <ele>143.2</ele>
        <time>2021-05-20T07:01:42Z</time>
      </trkpt>
      <trkpt lat="42.1611310" lon="-8.8001790">
        <ele>143.2</ele>
        <time>2021-05-20T07:01:43Z</time>
      </trkpt>
      <trkpt lat="42.1611430" lon="-8.8001810">
        <ele>143.2</ele>
        <time>2021-05-20T07:01:44Z</time>
      </trkpt>
      <trkpt lat="42.1611550" lon="-8.8001890">
        <ele>143.2</ele>
        <time>2021-05-20T07:01:45Z</time>
      </trkpt>
      <trkpt lat="42.1611660" lon="-8.8001970">
        <ele>143.2</ele>
        <time>2021-05-20T07:01:46Z</time>
      </trkpt>
      <trkpt lat="42.1611700" lon="-8.8002030">
        <ele>143.2</ele>
        <time>2021-05-20T07:01:47Z</time>
      </trkpt>
      <trkpt lat="42.1611820" lon="-8.8002070">
        <ele>143.2</ele>
        <time>2021-05-20T07:01:48Z</time>
      </trkpt>
      <trkpt lat="42.1611890" lon="-8.8002210">
        <ele>143.2</ele>
        <time>2021-05-20T07:01:49Z</time>
      </trkpt>
      <trkpt lat="42.1612010" lon="-8.8002270">
        <ele>143.2</ele>
        <time>2021-05-20T07:01:50Z</time>
      </trkpt>
      <trkpt lat="42.1612140" lon="-8.8002370">
        <ele>143.2</ele>
        <time>2021-05-20T07:01:51Z</time>
      </trkpt>
      <trkpt lat="42.1612280" lon="-8.8002440">
        <ele>143.2</ele>
        <time>2021-05-20T07:01:52Z</time>
      </trkpt>
      <trkpt lat="42.1612490" lon="-8.8002430">
        <ele>143.1</ele>
        <time>2021-05-20T07:01:53Z</time>
      </trkpt>
      <trkpt lat="42.1612580" lon="-8.8002440">
        <ele>143.1</ele>
        <time>2021-05-20T07:01:54Z</time>
      </trkpt>
      <trkpt lat="42.1612670" lon="-8.8002450">
        <ele>143.1</ele>
        <time>2021-05-20T07:01:55Z</time>
      </trkpt>
      <trkpt lat="42.1612820" lon="-8.8002540">
        <ele>143.1</ele>
        <time>2021-05-20T07:01:56Z</time>
      </trkpt>
      <trkpt lat="42.1612920" lon="-8.8002580">
        <ele>143.1</ele>
        <time>2021-05-20T07:01:57Z</time>
      </trkpt>
      <trkpt lat="42.1613000" lon="-8.8002560">
        <ele>143.1</ele>
        <time>2021-05-20T07:01:58Z</time>
      </trkpt>
      <trkpt lat="42.1613090" lon="-8.8002710">
        <ele>143.1</ele>
        <time>2021-05-20T07:01:59Z</time>
      </trkpt>
      <trkpt lat="42.1613200" lon="-8.8002800">
        <ele>143.1</ele>
        <time>2021-05-20T07:02:00Z</time>
      </trkpt>
      <trkpt lat="42.1613350" lon="-8.8002860">
        <ele>143.1</ele>
        <time>2021-05-20T07:02:01Z</time>
      </trkpt>
      <trkpt lat="42.1613420" lon="-8.8002900">
        <ele>143.1</ele>
        <time>2021-05-20T07:02:02Z</time>
      </trkpt>
      <trkpt lat="42.1613480" lon="-8.8002950">
        <ele>143.1</ele>
        <time>2021-05-20T07:02:03Z</time>
      </trkpt>
      <trkpt lat="42.1613540" lon="-8.8002990">
        <ele>143.1</ele>
        <time>2021-05-20T07:02:04Z</time>
      </trkpt>
      <trkpt lat="42.1613620" lon="-8.8003030">
        <ele>143.1</ele>
        <time>2021-05-20T07:02:05Z</time>
      </trkpt>
      <trkpt lat="42.1613760" lon="-8.8003140">
        <ele>143.0</ele>
        <time>2021-05-20T07:02:06Z</time>
      </trkpt>
      <trkpt lat="42.1613820" lon="-8.8003250">
        <ele>143.0</ele>
        <time>2021-05-20T07:02:07Z</time>
      </trkpt>
      <trkpt lat="42.1613950" lon="-8.8003340">
        <ele>143.0</ele>
        <time>2021-05-20T07:02:08Z</time>
      </trkpt>
      <trkpt lat="42.1614050" lon="-8.8003460">
        <ele>143.0</ele>
        <time>2021-05-20T07:02:09Z</time>
      </trkpt>
      <trkpt lat="42.1614180" lon="-8.8003510">
        <ele>143.0</ele>
        <time>2021-05-20T07:02:10Z</time>
      </trkpt>
      <trkpt lat="42.1614360" lon="-8.8003610">
        <ele>143.0</ele>
        <time>2021-05-20T07:02:11Z</time>
      </trkpt>
      <trkpt lat="42.1614480" lon="-8.8003690">
        <ele>143.0</ele>
        <time>2021-05-20T07:02:12Z</time>
      </trkpt>
      <trkpt lat="42.1614530" lon="-8.8003700">
        <ele>143.0</ele>
        <time>2021-05-20T07:02:13Z</time>
      </trkpt>
      <trkpt lat="42.1614650" lon="-8.8003690">
        <ele>142.9</ele>
        <time>2021-05-20T07:02:14Z</time>
      </trkpt>
      <trkpt lat="42.1614750" lon="-8.8003680">
        <ele>142.9</ele>
        <time>2021-05-20T07:02:15Z</time>
      </trkpt>
      <trkpt lat="42.1614940" lon="-8.8003780">
        <ele>142.9</ele>
        <time>2021-05-20T07:02:16Z</time>
      </trkpt>
      <trkpt lat="42.1615110" lon="-8.8003770">
        <ele>142.9</ele>
        <time>2021-05-20T07:02:17Z</time>
      </trkpt>
      <trkpt lat="42.1615270" lon="-8.8003850">
        <ele>142.9</ele>
        <time>2021-05-20T07:02:18Z</time>
      </trkpt>
      <trkpt lat="42.1615370" lon="-8.8003890">
        <ele>142.9</ele>
        <time>2021-05-20T07:02:19Z</time>
      </trkpt>
      <trkpt lat="42.1615430" lon="-8.8003880">
        <ele>142.9</ele>
        <time>2021-05-20T07:02:20Z</time>
      </trkpt>
      <trkpt lat="42.1615550" lon="-8.8004010">
        <ele>142.8</ele>
        <time>2021-05-20T07:02:21Z</time>
      </trkpt>
      <trkpt lat="42.1615720" lon="-8.8004140">
        <ele>142.8</ele>
        <time>2021-05-20T07:02:22Z</time>
      </trkpt>
      <trkpt lat="42.1615820" lon="-8.8004240">
        <ele>142.8</ele>
        <time>2021-05-20T07:02:23Z</time>
      </trkpt>
      <trkpt lat="42.1615950" lon="-8.8004290">
        <ele>142.8</ele>
        <time>2021-05-20T07:02:24Z</time>
      </trkpt>
      <trkpt lat="42.1616030" lon="-8.8004360">
        <ele>142.8</ele>
        <time>2021-05-20T07:02:25Z</time>
      </trkpt>
      <trkpt lat="42.1616170" lon="-8.8004380">
        <ele>142.8</ele>
        <time>2021-05-20T07:02:26Z</time>
      </trkpt>
      <trkpt lat="42.1616380" lon="-8.8004500">
        <ele>142.8</ele>
        <time>2021-05-20T07:02:27Z</time>
      </trkpt>
      <trkpt lat="42.1616470" lon="-8.8004510">
        <ele>142.8</ele>
        <time>2021-05-20T07:02:28Z</time>
      </trkpt>
      <trkpt lat="42.1616570" lon="-8.8004530">
        <ele>142.8</ele>
        <time>2021-05-20T07:02:29Z</time>
      </trkpt>
      <trkpt lat="42.1616660" lon="-8.8004520">
        <ele>142.8</ele>
        <time>2021-05-20T07:02:30Z</time>
      </trkpt>
      <trkpt lat="42.1616740" lon="-8.8004590">
        <ele>142.8</ele>
        <time>2021-05-20T07:02:31Z</time>
      </trkpt>
      <trkpt lat="42.1616870" lon="-8.8004670">
        <ele>142.8</ele>
        <time>2021-05-20T07:02:32Z</time>
      </trkpt>
      <trkpt lat="42.1617060" lon="-8.8004740">
        <ele>142.7</ele>
        <time>2021-05-20T07:02:33Z</time>
      </trkpt>
      <trkpt lat="42.1617180" lon="-8.8004700">
        <ele>142.7</ele>
        <time>2021-05-20T07:02:34Z</time>
      </trkpt>
      <trkpt lat="42.1617250" lon="-8.8004730">
        <ele>142.7</ele>
        <time>2021-05-20T07:02:35Z</time>
      </trkpt>
      <trkpt lat="42.1617390" lon="-8.8004760">
        <ele>142.7</ele>
        <time>2021-05-20T07:02:36Z</time>
      </trkpt>
      <trkpt lat="42.1617460" lon="-8.8004760">
        <ele>142.7</ele>
        <time>2021-05-20T07:02:37Z</time>
      </trkpt>
      <trkpt lat="42.1617600" lon="-8.8004780">
        <ele>142.7</ele>
        <time>2021-05-20T07:02:38Z</time>
      </trkpt>
      <trkpt lat="42.1617740" lon="-8.8004860">
        <ele>142.7</ele>
        <time>2021-05-20T07:02:39Z</time>
      </trkpt>
      <trkpt lat="42.1617810" lon="-8.8004880">
        <ele>142.7</ele>
        <time>2021-05-20T07:02:40Z</time>
      </trkpt>
      <trkpt lat="42.1617970" lon="-8.8004860">
        <ele>142.7</ele>
        <time>2021-05-20T07:02:41Z</time>
      </trkpt>
      <trkpt lat="42.1618080" lon="-8.8004850">
        <ele>142.7</ele>
        <time>2021-05-20T07:02:42Z</time>
      </trkpt>
      <trkpt lat="42.1618220" lon="-8.8004900">
        <ele>142.7</ele>
        <time>2021-05-20T07:02:43Z</time>
      </trkpt>
      <trkpt lat="42.1618280" lon="-8.8004900">
        <ele>142.7</ele>
        <time>2021-05-20T07:02:44Z</time>
      </trkpt>
      <trkpt lat="42.1618410" lon="-8.8004970">
        <ele>142.7</ele>
        <time>2021-05-20T07:02:45Z</time>
      </trkpt>
      <trkpt lat="42.1618540" lon="-8.8005000">
        <ele>142.6</ele>
        <time>2021-05-20T07:02:46Z</time>
      </trkpt>
      <trkpt lat="42.1618510" lon="-8.8004950">
        <ele>142.6</ele>
        <time>2021-05-20T07:02:47Z</time>
      </trkpt>
      <trkpt lat="42.1618620" lon="-8.8004890">
        <ele>142.6</ele>
        <time>2021-05-20T07:02:48Z</time>
      </trkpt>
      <trkpt lat="42.1618760" lon="-8.8004880">
        <ele>142.6</ele>
        <time>2021-05-20T07:02:49Z</time>
      </trkpt>
      <trkpt lat="42.1618890" lon="-8.8004900">
        <ele>142.6</ele>
        <time>2021-05-20T07:02:50Z</time>
      </trkpt>
      <trkpt lat="42.1619000" lon="-8.8004880">
        <ele>142.6</ele>
        <time>2021-05-20T07:02:51Z</time>
      </trkpt>
      <trkpt lat="42.1619060" lon="-8.8004820">
        <ele>142.6</ele>
        <time>2021-05-20T07:02:52Z</time>
      </trkpt>
      <trkpt lat="42.1619280" lon="-8.8004820">
        <ele>142.5</ele>
        <time>2021-05-20T07:02:53Z</time>
      </trkpt>
      <trkpt lat="42.1619370" lon="-8.8004860">
        <ele>142.5</ele>
        <time>2021-05-20T07:02:54Z</time>
      </trkpt>
      <trkpt lat="42.1619460" lon="-8.8004890">
        <ele>142.5</ele>
        <time>2021-05-20T07:02:55Z</time>
      </trkpt>
      <trkpt lat="42.1619620" lon="-8.8004870">
        <ele>142.5</ele>
        <time>2021-05-20T07:02:56Z</time>
      </trkpt>
      <trkpt lat="42.1619800" lon="-8.8004880">
        <ele>142.5</ele>
        <time>2021-05-20T07:02:57Z</time>
      </trkpt>
      <trkpt lat="42.1619890" lon="-8.8004880">
        <ele>142.5</ele>
        <time>2021-05-20T07:02:58Z</time>
      </trkpt>
      <trkpt lat="42.1620010" lon="-8.8004840">
        <ele>142.4</ele>
        <time>2021-05-20T07:02:59Z</time>
      </trkpt>
      <trkpt lat="42.1620040" lon="-8.8004840">
        <ele>142.4</ele>
        <time>2021-05-20T07:03:00Z</time>
      </trkpt>
      <trkpt lat="42.1619950" lon="-8.8004860">
        <ele>142.4</ele>
        <time>2021-05-20T07:03:01Z</time>
      </trkpt>
      <trkpt lat="42.1619940" lon="-8.8004900">
        <ele>142.4</ele>
        <time>2021-05-20T07:03:02Z</time>
      </trkpt>
      <trkpt lat="42.1620010" lon="-8.8004890">
        <ele>142.4</ele>
        <time>2021-05-20T07:03:03Z</time>
      </trkpt>
      <trkpt lat="42.1620100" lon="-8.8004890">
        <ele>142.4</ele>
        <time>2021-05-20T07:03:04Z</time>
      </trkpt>
      <trkpt lat="42.1620310" lon="-8.8004820">
        <ele>142.4</ele>
        <time>2021-05-20T07:03:05Z</time>
      </trkpt>
      <trkpt lat="42.1620400" lon="-8.8004830">
        <ele>142.4</ele>
        <time>2021-05-20T07:03:06Z</time>
      </trkpt>
      <trkpt lat="42.1620500" lon="-8.8004840">
        <ele>142.3</ele>
        <time>2021-05-20T07:03:07Z</time>
      </trkpt>
      <trkpt lat="42.1620590" lon="-8.8004880">
        <ele>142.3</ele>
        <time>2021-05-20T07:03:08Z</time>
      </trkpt>
      <trkpt lat="42.1620680" lon="-8.8004880">
        <ele>142.3</ele>
        <time>2021-05-20T07:03:09Z</time>
      </trkpt>
      <trkpt lat="42.1620780" lon="-8.8004870">
        <ele>142.3</ele>
        <time>2021-05-20T07:03:10Z</time>
      </trkpt>
      <trkpt lat="42.1620870" lon="-8.8004860">
        <ele>142.3</ele>
        <time>2021-05-20T07:03:11Z</time>
      </trkpt>
      <trkpt lat="42.1621030" lon="-8.8004820">
        <ele>142.3</ele>
        <time>2021-05-20T07:03:12Z</time>
      </trkpt>
      <trkpt lat="42.1621160" lon="-8.8004800">
        <ele>142.3</ele>
        <time>2021-05-20T07:03:13Z</time>
      </trkpt>
      <trkpt lat="42.1621330" lon="-8.8004720">
        <ele>142.2</ele>
        <time>2021-05-20T07:03:14Z</time>
      </trkpt>
      <trkpt lat="42.1621450" lon="-8.8004690">
        <ele>142.2</ele>
        <time>2021-05-20T07:03:15Z</time>
      </trkpt>
      <trkpt lat="42.1621540" lon="-8.8004810">
        <ele>142.2</ele>
        <time>2021-05-20T07:03:16Z</time>
      </trkpt>
      <trkpt lat="42.1621620" lon="-8.8004790">
        <ele>142.2</ele>
        <time>2021-05-20T07:03:17Z</time>
      </trkpt>
      <trkpt lat="42.1621780" lon="-8.8004820">
        <ele>142.2</ele>
        <time>2021-05-20T07:03:18Z</time>
      </trkpt>
      <trkpt lat="42.1621980" lon="-8.8004860">
        <ele>142.2</ele>
        <time>2021-05-20T07:03:19Z</time>
      </trkpt>
      <trkpt lat="42.1622080" lon="-8.8004850">
        <ele>142.2</ele>
        <time>2021-05-20T07:03:20Z</time>
      </trkpt>
      <trkpt lat="42.1622170" lon="-8.8004850">
        <ele>142.2</ele>
        <time>2021-05-20T07:03:21Z</time>
      </trkpt>
      <trkpt lat="42.1622300" lon="-8.8004910">
        <ele>142.2</ele>
        <time>2021-05-20T07:03:22Z</time>
      </trkpt>
      <trkpt lat="42.1622360" lon="-8.8004890">
        <ele>142.2</ele>
        <time>2021-05-20T07:03:23Z</time>
      </trkpt>
      <trkpt lat="42.1622430" lon="-8.8004880">
        <ele>142.2</ele>
        <time>2021-05-20T07:03:24Z</time>
      </trkpt>
      <trkpt lat="42.1622490" lon="-8.8004860">
        <ele>142.2</ele>
        <time>2021-05-20T07:03:25Z</time>
      </trkpt>
      <trkpt lat="42.1622550" lon="-8.8004840">
        <ele>142.2</ele>
        <time>2021-05-20T07:03:26Z</time>
      </trkpt>
      <trkpt lat="42.1622660" lon="-8.8004910">
        <ele>142.2</ele>
        <time>2021-05-20T07:03:27Z</time>
      </trkpt>
      <trkpt lat="42.1622740" lon="-8.8004960">
        <ele>142.2</ele>
        <time>2021-05-20T07:03:28Z</time>
      </trkpt>
      <trkpt lat="42.1622840" lon="-8.8004950">
        <ele>142.2</ele>
        <time>2021-05-20T07:03:29Z</time>
      </trkpt>
      <trkpt lat="42.1622960" lon="-8.8004960">
        <ele>142.2</ele>
        <time>2021-05-20T07:03:30Z</time>
      </trkpt>
      <trkpt lat="42.1623050" lon="-8.8005000">
        <ele>142.2</ele>
        <time>2021-05-20T07:03:31Z</time>
      </trkpt>
      <trkpt lat="42.1623170" lon="-8.8004990">
        <ele>142.2</ele>
        <time>2021-05-20T07:03:32Z</time>
      </trkpt>
      <trkpt lat="42.1623360" lon="-8.8005080">
        <ele>142.2</ele>
        <time>2021-05-20T07:03:33Z</time>
      </trkpt>
      <trkpt lat="42.1623490" lon="-8.8005110">
        <ele>142.2</ele>
        <time>2021-05-20T07:03:34Z</time>
      </trkpt>
      <trkpt lat="42.1623610" lon="-8.8005180">
        <ele>142.2</ele>
        <time>2021-05-20T07:03:35Z</time>
      </trkpt>
      <trkpt lat="42.1623640" lon="-8.8005180">
        <ele>142.1</ele>
        <time>2021-05-20T07:03:36Z</time>
      </trkpt>
      <trkpt lat="42.1623800" lon="-8.8005200">
        <ele>142.1</ele>
        <time>2021-05-20T07:03:37Z</time>
      </trkpt>
      <trkpt lat="42.1623980" lon="-8.8005240">
        <ele>142.1</ele>
        <time>2021-05-20T07:03:38Z</time>
      </trkpt>
      <trkpt lat="42.1624070" lon="-8.8005270">
        <ele>142.1</ele>
        <time>2021-05-20T07:03:39Z</time>
      </trkpt>
      <trkpt lat="42.1624170" lon="-8.8005290">
        <ele>142.1</ele>
        <time>2021-05-20T07:03:40Z</time>
      </trkpt>
      <trkpt lat="42.1624420" lon="-8.8005350">
        <ele>142.1</ele>
        <time>2021-05-20T07:03:41Z</time>
      </trkpt>
      <trkpt lat="42.1624500" lon="-8.8005350">
        <ele>142.1</ele>
        <time>2021-05-20T07:03:42Z</time>
      </trkpt>
      <trkpt lat="42.1624590" lon="-8.8005350">
        <ele>142.1</ele>
        <time>2021-05-20T07:03:43Z</time>
      </trkpt>
      <trkpt lat="42.1624760" lon="-8.8005390">
        <ele>142.1</ele>
        <time>2021-05-20T07:03:44Z</time>
      </trkpt>
      <trkpt lat="42.1624940" lon="-8.8005380">
        <ele>142.1</ele>
        <time>2021-05-20T07:03:45Z</time>
      </trkpt>
      <trkpt lat="42.1625120" lon="-8.8005480">
        <ele>142.1</ele>
        <time>2021-05-20T07:03:46Z</time>
      </trkpt>
      <trkpt lat="42.1625220" lon="-8.8005540">
        <ele>142.1</ele>
        <time>2021-05-20T07:03:47Z</time>
      </trkpt>
      <trkpt lat="42.1625330" lon="-8.8005600">
        <ele>142.1</ele>
        <time>2021-05-20T07:03:48Z</time>
      </trkpt>
      <trkpt lat="42.1625470" lon="-8.8005640">
        <ele>142.1</ele>
        <time>2021-05-20T07:03:49Z</time>
      </trkpt>
      <trkpt lat="42.1625580" lon="-8.8005710">
        <ele>142.1</ele>
        <time>2021-05-20T07:03:50Z</time>
      </trkpt>
      <trkpt lat="42.1625680" lon="-8.8005690">
        <ele>142.2</ele>
        <time>2021-05-20T07:03:51Z</time>
      </trkpt>
      <trkpt lat="42.1625850" lon="-8.8005700">
        <ele>142.2</ele>
        <time>2021-05-20T07:03:52Z</time>
      </trkpt>
      <trkpt lat="42.1625960" lon="-8.8005720">
        <ele>142.2</ele>
        <time>2021-05-20T07:03:53Z</time>
      </trkpt>
      <trkpt lat="42.1626190" lon="-8.8005700">
        <ele>142.2</ele>
        <time>2021-05-20T07:03:54Z</time>
      </trkpt>
      <trkpt lat="42.1626280" lon="-8.8005680">
        <ele>142.2</ele>
        <time>2021-05-20T07:03:55Z</time>
      </trkpt>
      <trkpt lat="42.1626360" lon="-8.8005670">
        <ele>142.2</ele>
        <time>2021-05-20T07:03:56Z</time>
      </trkpt>
      <trkpt lat="42.1626550" lon="-8.8005690">
        <ele>142.2</ele>
        <time>2021-05-20T07:03:57Z</time>
      </trkpt>
      <trkpt lat="42.1626640" lon="-8.8005680">
        <ele>142.2</ele>
        <time>2021-05-20T07:03:58Z</time>
      </trkpt>
      <trkpt lat="42.1626760" lon="-8.8005730">
        <ele>142.2</ele>
        <time>2021-05-20T07:03:59Z</time>
      </trkpt>
      <trkpt lat="42.1626910" lon="-8.8005760">
        <ele>142.2</ele>
        <time>2021-05-20T07:04:00Z</time>
      </trkpt>
      <trkpt lat="42.1627120" lon="-8.8005780">
        <ele>142.2</ele>
        <time>2021-05-20T07:04:01Z</time>
      </trkpt>
      <trkpt lat="42.1627190" lon="-8.8005810">
        <ele>142.2</ele>
        <time>2021-05-20T07:04:02Z</time>
      </trkpt>
      <trkpt lat="42.1627270" lon="-8.8005840">
        <ele>142.2</ele>
        <time>2021-05-20T07:04:03Z</time>
      </trkpt>
      <trkpt lat="42.1627380" lon="-8.8005900">
        <ele>142.2</ele>
        <time>2021-05-20T07:04:04Z</time>
      </trkpt>
      <trkpt lat="42.1627470" lon="-8.8005900">
        <ele>142.2</ele>
        <time>2021-05-20T07:04:05Z</time>
      </trkpt>
      <trkpt lat="42.1627570" lon="-8.8005920">
        <ele>142.2</ele>
        <time>2021-05-20T07:04:06Z</time>
      </trkpt>
      <trkpt lat="42.1627650" lon="-8.8005890">
        <ele>142.2</ele>
        <time>2021-05-20T07:04:07Z</time>
      </trkpt>
      <trkpt lat="42.1627770" lon="-8.8005900">
        <ele>142.2</ele>
        <time>2021-05-20T07:04:08Z</time>
      </trkpt>
      <trkpt lat="42.1627920" lon="-8.8005920">
        <ele>142.1</ele>
        <time>2021-05-20T07:04:09Z</time>
      </trkpt>
      <trkpt lat="42.1628020" lon="-8.8005950">
        <ele>142.1</ele>
        <time>2021-05-20T07:04:10Z</time>
      </trkpt>
      <trkpt lat="42.1628050" lon="-8.8006030">
        <ele>142.1</ele>
        <time>2021-05-20T07:04:11Z</time>
      </trkpt>
      <trkpt lat="42.1628150" lon="-8.8006050">
        <ele>142.1</ele>
        <time>2021-05-20T07:04:12Z</time>
      </trkpt>
      <trkpt lat="42.1628220" lon="-8.8006010">
        <ele>142.1</ele>
        <time>2021-05-20T07:04:13Z</time>
      </trkpt>
      <trkpt lat="42.1628410" lon="-8.8005980">
        <ele>142.1</ele>
        <time>2021-05-20T07:04:14Z</time>
      </trkpt>
      <trkpt lat="42.1628540" lon="-8.8005950">
        <ele>142.1</ele>
        <time>2021-05-20T07:04:15Z</time>
      </trkpt>
      <trkpt lat="42.1628750" lon="-8.8005960">
        <ele>142.1</ele>
        <time>2021-05-20T07:04:16Z</time>
      </trkpt>
      <trkpt lat="42.1628840" lon="-8.8005980">
        <ele>142.1</ele>
        <time>2021-05-20T07:04:17Z</time>
      </trkpt>
      <trkpt lat="42.1628920" lon="-8.8005990">
        <ele>142.1</ele>
        <time>2021-05-20T07:04:18Z</time>
      </trkpt>
      <trkpt lat="42.1629120" lon="-8.8006060">
        <ele>142.1</ele>
        <time>2021-05-20T07:04:19Z</time>
      </trkpt>
      <trkpt lat="42.1629210" lon="-8.8006070">
        <ele>142.1</ele>
        <time>2021-05-20T07:04:20Z</time>
      </trkpt>
      <trkpt lat="42.1629290" lon="-8.8006080">
        <ele>142.1</ele>
        <time>2021-05-20T07:04:21Z</time>
      </trkpt>
      <trkpt lat="42.1629430" lon="-8.8006060">
        <ele>142.1</ele>
        <time>2021-05-20T07:04:22Z</time>
      </trkpt>
      <trkpt lat="42.1629620" lon="-8.8006130">
        <ele>142.1</ele>
        <time>2021-05-20T07:04:23Z</time>
      </trkpt>
      <trkpt lat="42.1629780" lon="-8.8006160">
        <ele>142.1</ele>
        <time>2021-05-20T07:04:24Z</time>
      </trkpt>
      <trkpt lat="42.1629890" lon="-8.8006270">
        <ele>142.1</ele>
        <time>2021-05-20T07:04:25Z</time>
      </trkpt>
      <trkpt lat="42.1630020" lon="-8.8006260">
        <ele>142.1</ele>
        <time>2021-05-20T07:04:26Z</time>
      </trkpt>
      <trkpt lat="42.1630110" lon="-8.8006280">
        <ele>142.0</ele>
        <time>2021-05-20T07:04:27Z</time>
      </trkpt>
      <trkpt lat="42.1630250" lon="-8.8006350">
        <ele>142.0</ele>
        <time>2021-05-20T07:04:28Z</time>
      </trkpt>
      <trkpt lat="42.1630420" lon="-8.8006370">
        <ele>142.0</ele>
        <time>2021-05-20T07:04:29Z</time>
      </trkpt>
      <trkpt lat="42.1630490" lon="-8.8006400">
        <ele>142.0</ele>
        <time>2021-05-20T07:04:30Z</time>
      </trkpt>
      <trkpt lat="42.1630570" lon="-8.8006440">
        <ele>142.0</ele>
        <time>2021-05-20T07:04:31Z</time>
      </trkpt>
      <trkpt lat="42.1630640" lon="-8.8006470">
        <ele>141.9</ele>
        <time>2021-05-20T07:04:32Z</time>
      </trkpt>
      <trkpt lat="42.1630860" lon="-8.8006550">
        <ele>141.9</ele>
        <time>2021-05-20T07:04:33Z</time>
      </trkpt>
      <trkpt lat="42.1630930" lon="-8.8006610">
        <ele>141.9</ele>
        <time>2021-05-20T07:04:34Z</time>
      </trkpt>
      <trkpt lat="42.1630990" lon="-8.8006660">
        <ele>141.9</ele>
        <time>2021-05-20T07:04:35Z</time>
      </trkpt>
      <trkpt lat="42.1631080" lon="-8.8006750">
        <ele>141.8</ele>
        <time>2021-05-20T07:04:36Z</time>
      </trkpt>
      <trkpt lat="42.1631170" lon="-8.8006860">
        <ele>141.8</ele>
        <time>2021-05-20T07:04:37Z</time>
      </trkpt>
      <trkpt lat="42.1631300" lon="-8.8006900">
        <ele>141.8</ele>
        <time>2021-05-20T07:04:38Z</time>
      </trkpt>
      <trkpt lat="42.1631530" lon="-8.8006970">
        <ele>141.8</ele>
        <time>2021-05-20T07:04:39Z</time>
      </trkpt>
      <trkpt lat="42.1631600" lon="-8.8006980">
        <ele>141.7</ele>
        <time>2021-05-20T07:04:40Z</time>
      </trkpt>
      <trkpt lat="42.1631680" lon="-8.8007000">
        <ele>141.7</ele>
        <time>2021-05-20T07:04:41Z</time>
      </trkpt>
      <trkpt lat="42.1631770" lon="-8.8007100">
        <ele>141.7</ele>
        <time>2021-05-20T07:04:42Z</time>
      </trkpt>
      <trkpt lat="42.1631850" lon="-8.8007140">
        <ele>141.7</ele>
        <time>2021-05-20T07:04:43Z</time>
      </trkpt>
      <trkpt lat="42.1631940" lon="-8.8007180">
        <ele>141.7</ele>
        <time>2021-05-20T07:04:44Z</time>
      </trkpt>
      <trkpt lat="42.1632020" lon="-8.8007220">
        <ele>141.6</ele>
        <time>2021-05-20T07:04:45Z</time>
      </trkpt>
      <trkpt lat="42.1632190" lon="-8.8007290">
        <ele>141.6</ele>
        <time>2021-05-20T07:04:46Z</time>
      </trkpt>
      <trkpt lat="42.1632300" lon="-8.8007330">
        <ele>141.6</ele>
        <time>2021-05-20T07:04:47Z</time>
      </trkpt>
      <trkpt lat="42.1632410" lon="-8.8007370">
        <ele>141.5</ele>
        <time>2021-05-20T07:04:48Z</time>
      </trkpt>
      <trkpt lat="42.1632590" lon="-8.8007390">
        <ele>141.5</ele>
        <time>2021-05-20T07:04:49Z</time>
      </trkpt>
      <trkpt lat="42.1632740" lon="-8.8007450">
        <ele>141.5</ele>
        <time>2021-05-20T07:04:50Z</time>
      </trkpt>
      <trkpt lat="42.1633010" lon="-8.8007630">
        <ele>141.4</ele>
        <time>2021-05-20T07:04:51Z</time>
      </trkpt>
      <trkpt lat="42.1633080" lon="-8.8007660">
        <ele>141.4</ele>
        <time>2021-05-20T07:04:52Z</time>
      </trkpt>
      <trkpt lat="42.1633150" lon="-8.8007680">
        <ele>141.4</ele>
        <time>2021-05-20T07:04:53Z</time>
      </trkpt>
      <trkpt lat="42.1633340" lon="-8.8007760">
        <ele>141.3</ele>
        <time>2021-05-20T07:04:54Z</time>
      </trkpt>
      <trkpt lat="42.1633450" lon="-8.8007920">
        <ele>141.3</ele>
        <time>2021-05-20T07:04:55Z</time>
      </trkpt>
      <trkpt lat="42.1633560" lon="-8.8007910">
        <ele>141.3</ele>
        <time>2021-05-20T07:04:56Z</time>
      </trkpt>
      <trkpt lat="42.1633680" lon="-8.8007990">
        <ele>141.2</ele>
        <time>2021-05-20T07:04:57Z</time>
      </trkpt>
      <trkpt lat="42.1633750" lon="-8.8008060">
        <ele>141.2</ele>
        <time>2021-05-20T07:04:58Z</time>
      </trkpt>
      <trkpt lat="42.1633950" lon="-8.8008170">
        <ele>141.2</ele>
        <time>2021-05-20T07:04:59Z</time>
      </trkpt>
      <trkpt lat="42.1634040" lon="-8.8008200">
        <ele>141.2</ele>
        <time>2021-05-20T07:05:00Z</time>
      </trkpt>
      <trkpt lat="42.1634120" lon="-8.8008240">
        <ele>141.1</ele>
        <time>2021-05-20T07:05:01Z</time>
      </trkpt>
      <trkpt lat="42.1634290" lon="-8.8008310">
        <ele>141.1</ele>
        <time>2021-05-20T07:05:02Z</time>
      </trkpt>
      <trkpt lat="42.1634400" lon="-8.8008350">
        <ele>141.1</ele>
        <time>2021-05-20T07:05:03Z</time>
      </trkpt>
      <trkpt lat="42.1634560" lon="-8.8008400">
        <ele>141.1</ele>
        <time>2021-05-20T07:05:04Z</time>
      </trkpt>
      <trkpt lat="42.1634660" lon="-8.8008490">
        <ele>141.1</ele>
        <time>2021-05-20T07:05:05Z</time>
      </trkpt>
      <trkpt lat="42.1634760" lon="-8.8008500">
        <ele>141.1</ele>
        <time>2021-05-20T07:05:06Z</time>
      </trkpt>
      <trkpt lat="42.1634940" lon="-8.8008500">
        <ele>141.1</ele>
        <time>2021-05-20T07:05:07Z</time>
      </trkpt>
      <trkpt lat="42.1635050" lon="-8.8008530">
        <ele>141.0</ele>
        <time>2021-05-20T07:05:08Z</time>
      </trkpt>
      <trkpt lat="42.1635140" lon="-8.8008580">
        <ele>141.0</ele>
        <time>2021-05-20T07:05:09Z</time>
      </trkpt>
      <trkpt lat="42.1635300" lon="-8.8008590">
        <ele>141.0</ele>
        <time>2021-05-20T07:05:10Z</time>
      </trkpt>
      <trkpt lat="42.1635460" lon="-8.8008610">
        <ele>141.0</ele>
        <time>2021-05-20T07:05:11Z</time>
      </trkpt>
      <trkpt lat="42.1635620" lon="-8.8008640">
        <ele>141.0</ele>
        <time>2021-05-20T07:05:12Z</time>
      </trkpt>
      <trkpt lat="42.1635780" lon="-8.8008660">
        <ele>141.0</ele>
        <time>2021-05-20T07:05:13Z</time>
      </trkpt>
      <trkpt lat="42.1635970" lon="-8.8008660">
        <ele>141.0</ele>
        <time>2021-05-20T07:05:14Z</time>
      </trkpt>
      <trkpt lat="42.1636180" lon="-8.8008640">
        <ele>141.1</ele>
        <time>2021-05-20T07:05:15Z</time>
      </trkpt>
      <trkpt lat="42.1636300" lon="-8.8008660">
        <ele>141.1</ele>
        <time>2021-05-20T07:05:16Z</time>
      </trkpt>
      <trkpt lat="42.1636410" lon="-8.8008650">
        <ele>141.1</ele>
        <time>2021-05-20T07:05:17Z</time>
      </trkpt>
      <trkpt lat="42.1636520" lon="-8.8008670">
        <ele>141.1</ele>
        <time>2021-05-20T07:05:18Z</time>
      </trkpt>
      <trkpt lat="42.1636550" lon="-8.8008710">
        <ele>141.1</ele>
        <time>2021-05-20T07:05:19Z</time>
      </trkpt>
      <trkpt lat="42.1636620" lon="-8.8008700">
        <ele>141.1</ele>
        <time>2021-05-20T07:05:20Z</time>
      </trkpt>
      <trkpt lat="42.1636770" lon="-8.8008790">
        <ele>141.1</ele>
        <time>2021-05-20T07:05:21Z</time>
      </trkpt>
      <trkpt lat="42.1636810" lon="-8.8008770">
        <ele>141.1</ele>
        <time>2021-05-20T07:05:22Z</time>
      </trkpt>
      <trkpt lat="42.1636920" lon="-8.8008830">
        <ele>141.2</ele>
        <time>2021-05-20T07:05:23Z</time>
      </trkpt>
      <trkpt lat="42.1637140" lon="-8.8008880">
        <ele>141.2</ele>
        <time>2021-05-20T07:05:24Z</time>
      </trkpt>
      <trkpt lat="42.1637220" lon="-8.8008920">
        <ele>141.2</ele>
        <time>2021-05-20T07:05:25Z</time>
      </trkpt>
      <trkpt lat="42.1637310" lon="-8.8008960">
        <ele>141.2</ele>
        <time>2021-05-20T07:05:26Z</time>
      </trkpt>
      <trkpt lat="42.1637360" lon="-8.8008970">
        <ele>141.3</ele>
        <time>2021-05-20T07:05:27Z</time>
      </trkpt>
      <trkpt lat="42.1637510" lon="-8.8009040">
        <ele>141.3</ele>
        <time>2021-05-20T07:05:28Z</time>
      </trkpt>
      <trkpt lat="42.1637600" lon="-8.8009150">
        <ele>141.3</ele>
        <time>2021-05-20T07:05:29Z</time>
      </trkpt>
      <trkpt lat="42.1637690" lon="-8.8009160">
        <ele>141.2</ele>
        <time>2021-05-20T07:05:30Z</time>
      </trkpt>
      <trkpt lat="42.1637790" lon="-8.8009150">
        <ele>141.2</ele>
        <time>2021-05-20T07:05:31Z</time>
      </trkpt>
      <trkpt lat="42.1637940" lon="-8.8009180">
        <ele>141.2</ele>
        <time>2021-05-20T07:05:32Z</time>
      </trkpt>
      <trkpt lat="42.1638020" lon="-8.8009190">
        <ele>141.2</ele>
        <time>2021-05-20T07:05:33Z</time>
      </trkpt>
      <trkpt lat="42.1638170" lon="-8.8009270">
        <ele>141.2</ele>
        <time>2021-05-20T07:05:34Z</time>
      </trkpt>
      <trkpt lat="42.1638280" lon="-8.8009220">
        <ele>141.1</ele>
        <time>2021-05-20T07:05:35Z</time>
      </trkpt>
      <trkpt lat="42.1638370" lon="-8.8009180">
        <ele>141.1</ele>
        <time>2021-05-20T07:05:36Z</time>
      </trkpt>
      <trkpt lat="42.1638450" lon="-8.8009150">
        <ele>141.1</ele>
        <time>2021-05-20T07:05:37Z</time>
      </trkpt>
      <trkpt lat="42.1638560" lon="-8.8009130">
        <ele>141.1</ele>
        <time>2021-05-20T07:05:38Z</time>
      </trkpt>
      <trkpt lat="42.1638630" lon="-8.8009100">
        <ele>141.1</ele>
        <time>2021-05-20T07:05:39Z</time>
      </trkpt>
      <trkpt lat="42.1638760" lon="-8.8009040">
        <ele>141.1</ele>
        <time>2021-05-20T07:05:40Z</time>
      </trkpt>
      <trkpt lat="42.1638840" lon="-8.8008980">
        <ele>141.0</ele>
        <time>2021-05-20T07:05:41Z</time>
      </trkpt>
      <trkpt lat="42.1639020" lon="-8.8008880">
        <ele>141.0</ele>
        <time>2021-05-20T07:05:42Z</time>
      </trkpt>
      <trkpt lat="42.1639100" lon="-8.8008830">
        <ele>141.0</ele>
        <time>2021-05-20T07:05:43Z</time>
      </trkpt>
      <trkpt lat="42.1639180" lon="-8.8008770">
        <ele>141.0</ele>
        <time>2021-05-20T07:05:44Z</time>
      </trkpt>
      <trkpt lat="42.1639380" lon="-8.8008680">
        <ele>140.9</ele>
        <time>2021-05-20T07:05:45Z</time>
      </trkpt>
      <trkpt lat="42.1639470" lon="-8.8008650">
        <ele>140.9</ele>
        <time>2021-05-20T07:05:46Z</time>
      </trkpt>
      <trkpt lat="42.1639560" lon="-8.8008620">
        <ele>140.9</ele>
        <time>2021-05-20T07:05:47Z</time>
      </trkpt>
      <trkpt lat="42.1639690" lon="-8.8008630">
        <ele>140.9</ele>
        <time>2021-05-20T07:05:48Z</time>
      </trkpt>
      <trkpt lat="42.1639800" lon="-8.8008520">
        <ele>140.8</ele>
        <time>2021-05-20T07:05:49Z</time>
      </trkpt>
      <trkpt lat="42.1639880" lon="-8.8008500">
        <ele>140.8</ele>
        <time>2021-05-20T07:05:50Z</time>
      </trkpt>
      <trkpt lat="42.1639970" lon="-8.8008490">
        <ele>140.8</ele>
        <time>2021-05-20T07:05:51Z</time>
      </trkpt>
      <trkpt lat="42.1640070" lon="-8.8008460">
        <ele>140.8</ele>
        <time>2021-05-20T07:05:52Z</time>
      </trkpt>
      <trkpt lat="42.1640190" lon="-8.8008400">
        <ele>140.7</ele>
        <time>2021-05-20T07:05:53Z</time>
      </trkpt>
      <trkpt lat="42.1640320" lon="-8.8008390">
        <ele>140.7</ele>
        <time>2021-05-20T07:05:54Z</time>
      </trkpt>
      <trkpt lat="42.1640460" lon="-8.8008340">
        <ele>140.7</ele>
        <time>2021-05-20T07:05:55Z</time>
      </trkpt>
      <trkpt lat="42.1640670" lon="-8.8008270">
        <ele>140.6</ele>
        <time>2021-05-20T07:05:56Z</time>
      </trkpt>
      <trkpt lat="42.1640760" lon="-8.8008250">
        <ele>140.6</ele>
        <time>2021-05-20T07:05:57Z</time>
      </trkpt>
      <trkpt lat="42.1640860" lon="-8.8008230">
        <ele>140.6</ele>
        <time>2021-05-20T07:05:58Z</time>
      </trkpt>
      <trkpt lat="42.1640940" lon="-8.8008190">
        <ele>140.6</ele>
        <time>2021-05-20T07:05:59Z</time>
      </trkpt>
      <trkpt lat="42.1640990" lon="-8.8008180">
        <ele>140.5</ele>
        <time>2021-05-20T07:06:00Z</time>
      </trkpt>
      <trkpt lat="42.1641090" lon="-8.8008100">
        <ele>140.5</ele>
        <time>2021-05-20T07:06:01Z</time>
      </trkpt>
      <trkpt lat="42.1641150" lon="-8.8008030">
        <ele>140.5</ele>
        <time>2021-05-20T07:06:02Z</time>
      </trkpt>
      <trkpt lat="42.1641260" lon="-8.8007900">
        <ele>140.5</ele>
        <time>2021-05-20T07:06:03Z</time>
      </trkpt>
      <trkpt lat="42.1641390" lon="-8.8007850">
        <ele>140.4</ele>
        <time>2021-05-20T07:06:04Z</time>
      </trkpt>
      <trkpt lat="42.1641590" lon="-8.8007790">
        <ele>140.4</ele>
        <time>2021-05-20T07:06:05Z</time>
      </trkpt>
      <trkpt lat="42.1641680" lon="-8.8007750">
        <ele>140.3</ele>
        <time>2021-05-20T07:06:06Z</time>
      </trkpt>
      <trkpt lat="42.1641890" lon="-8.8007670">
        <ele>140.3</ele>
        <time>2021-05-20T07:06:07Z</time>
      </trkpt>
      <trkpt lat="42.1642020" lon="-8.8007700">
        <ele>140.3</ele>
        <time>2021-05-20T07:06:08Z</time>
      </trkpt>
      <trkpt lat="42.1642110" lon="-8.8007650">
        <ele>140.2</ele>
        <time>2021-05-20T07:06:09Z</time>
      </trkpt>
      <trkpt lat="42.1642160" lon="-8.8007550">
        <ele>140.2</ele>
        <time>2021-05-20T07:06:10Z</time>
      </trkpt>
      <trkpt lat="42.1642260" lon="-8.8007450">
        <ele>140.2</ele>
        <time>2021-05-20T07:06:11Z</time>
      </trkpt>
      <trkpt lat="42.1642430" lon="-8.8007350">
        <ele>140.1</ele>
        <time>2021-05-20T07:06:12Z</time>
      </trkpt>
      <trkpt lat="42.1642500" lon="-8.8007290">
        <ele>140.1</ele>
        <time>2021-05-20T07:06:13Z</time>
      </trkpt>
      <trkpt lat="42.1642580" lon="-8.8007240">
        <ele>140.1</ele>
        <time>2021-05-20T07:06:14Z</time>
      </trkpt>
      <trkpt lat="42.1642650" lon="-8.8007180">
        <ele>140.1</ele>
        <time>2021-05-20T07:06:15Z</time>
      </trkpt>
      <trkpt lat="42.1642750" lon="-8.8007080">
        <ele>140.0</ele>
        <time>2021-05-20T07:06:16Z</time>
      </trkpt>
      <trkpt lat="42.1642910" lon="-8.8007000">
        <ele>140.0</ele>
        <time>2021-05-20T07:06:17Z</time>
      </trkpt>
      <trkpt lat="42.1643070" lon="-8.8006910">
        <ele>139.9</ele>
        <time>2021-05-20T07:06:18Z</time>
      </trkpt>
      <trkpt lat="42.1643150" lon="-8.8006900">
        <ele>139.9</ele>
        <time>2021-05-20T07:06:19Z</time>
      </trkpt>
      <trkpt lat="42.1643170" lon="-8.8006820">
        <ele>139.9</ele>
        <time>2021-05-20T07:06:20Z</time>
      </trkpt>
      <trkpt lat="42.1643240" lon="-8.8006700">
        <ele>139.8</ele>
        <time>2021-05-20T07:06:21Z</time>
      </trkpt>
      <trkpt lat="42.1643350" lon="-8.8006610">
        <ele>139.8</ele>
        <time>2021-05-20T07:06:22Z</time>
      </trkpt>
      <trkpt lat="42.1643410" lon="-8.8006490">
        <ele>139.8</ele>
        <time>2021-05-20T07:06:23Z</time>
      </trkpt>
      <trkpt lat="42.1643460" lon="-8.8006440">
        <ele>139.7</ele>
        <time>2021-05-20T07:06:24Z</time>
      </trkpt>
      <trkpt lat="42.1643590" lon="-8.8006340">
        <ele>139.7</ele>
        <time>2021-05-20T07:06:25Z</time>
      </trkpt>
      <trkpt lat="42.1643670" lon="-8.8006210">
        <ele>139.6</ele>
        <time>2021-05-20T07:06:26Z</time>
      </trkpt>
      <trkpt lat="42.1643800" lon="-8.8006120">
        <ele>139.6</ele>
        <time>2021-05-20T07:06:27Z</time>
      </trkpt>
      <trkpt lat="42.1643940" lon="-8.8006010">
        <ele>139.5</ele>
        <time>2021-05-20T07:06:28Z</time>
      </trkpt>
      <trkpt lat="42.1644060" lon="-8.8005900">
        <ele>139.5</ele>
        <time>2021-05-20T07:06:29Z</time>
      </trkpt>
      <trkpt lat="42.1644180" lon="-8.8005780">
        <ele>139.4</ele>
        <time>2021-05-20T07:06:30Z</time>
      </trkpt>
      <trkpt lat="42.1644370" lon="-8.8005680">
        <ele>139.3</ele>
        <time>2021-05-20T07:06:31Z</time>
      </trkpt>
      <trkpt lat="42.1644460" lon="-8.8005580">
        <ele>139.3</ele>
        <time>2021-05-20T07:06:32Z</time>
      </trkpt>
      <trkpt lat="42.1644620" lon="-8.8005390">
        <ele>139.2</ele>
        <time>2021-05-20T07:06:33Z</time>
      </trkpt>
      <trkpt lat="42.1644680" lon="-8.8005310">
        <ele>139.2</ele>
        <time>2021-05-20T07:06:34Z</time>
      </trkpt>
      <trkpt lat="42.1644750" lon="-8.8005230">
        <ele>139.2</ele>
        <time>2021-05-20T07:06:35Z</time>
      </trkpt>
      <trkpt lat="42.1644880" lon="-8.8005110">
        <ele>139.1</ele>
        <time>2021-05-20T07:06:36Z</time>
      </trkpt>
      <trkpt lat="42.1645010" lon="-8.8004980">
        <ele>139.0</ele>
        <time>2021-05-20T07:06:37Z</time>
      </trkpt>
      <trkpt lat="42.1645040" lon="-8.8004860">
        <ele>139.0</ele>
        <time>2021-05-20T07:06:38Z</time>
      </trkpt>
      <trkpt lat="42.1645120" lon="-8.8004820">
        <ele>139.0</ele>
        <time>2021-05-20T07:06:39Z</time>
      </trkpt>
      <trkpt lat="42.1645290" lon="-8.8004680">
        <ele>138.9</ele>
        <time>2021-05-20T07:06:40Z</time>
      </trkpt>
      <trkpt lat="42.1645400" lon="-8.8004410">
        <ele>138.8</ele>
        <time>2021-05-20T07:06:41Z</time>
      </trkpt>
      <trkpt lat="42.1645440" lon="-8.8004320">
        <ele>138.8</ele>
        <time>2021-05-20T07:06:42Z</time>
      </trkpt>
      <trkpt lat="42.1645490" lon="-8.8004220">
        <ele>138.7</ele>
        <time>2021-05-20T07:06:43Z</time>
      </trkpt>
      <trkpt lat="42.1645640" lon="-8.8004140">
        <ele>138.7</ele>
        <time>2021-05-20T07:06:44Z</time>
      </trkpt>
      <trkpt lat="42.1645750" lon="-8.8004000">
        <ele>138.6</ele>
        <time>2021-05-20T07:06:45Z</time>
      </trkpt>
      <trkpt lat="42.1645940" lon="-8.8003840">
        <ele>138.5</ele>
        <time>2021-05-20T07:06:46Z</time>
      </trkpt>
      <trkpt lat="42.1646010" lon="-8.8003770">
        <ele>138.5</ele>
        <time>2021-05-20T07:06:47Z</time>
      </trkpt>
      <trkpt lat="42.1646090" lon="-8.8003700">
        <ele>138.5</ele>
        <time>2021-05-20T07:06:48Z</time>
      </trkpt>
      <trkpt lat="42.1646120" lon="-8.8003660">
        <ele>138.4</ele>
        <time>2021-05-20T07:06:49Z</time>
      </trkpt>
      <trkpt lat="42.1646260" lon="-8.8003510">
        <ele>138.4</ele>
        <time>2021-05-20T07:06:50Z</time>
      </trkpt>
      <trkpt lat="42.1646320" lon="-8.8003460">
        <ele>138.4</ele>
        <time>2021-05-20T07:06:51Z</time>
      </trkpt>
      <trkpt lat="42.1646410" lon="-8.8003350">
        <ele>138.3</ele>
        <time>2021-05-20T07:06:52Z</time>
      </trkpt>
      <trkpt lat="42.1646470" lon="-8.8003330">
        <ele>138.3</ele>
        <time>2021-05-20T07:06:53Z</time>
      </trkpt>
      <trkpt lat="42.1646600" lon="-8.8003180">
        <ele>138.2</ele>
        <time>2021-05-20T07:06:54Z</time>
      </trkpt>
      <trkpt lat="42.1646740" lon="-8.8003170">
        <ele>138.2</ele>
        <time>2021-05-20T07:06:55Z</time>
      </trkpt>
      <trkpt lat="42.1646770" lon="-8.8003100">
        <ele>138.2</ele>
        <time>2021-05-20T07:06:56Z</time>
      </trkpt>
      <trkpt lat="42.1646850" lon="-8.8003050">
        <ele>138.1</ele>
        <time>2021-05-20T07:06:57Z</time>
      </trkpt>
      <trkpt lat="42.1647020" lon="-8.8002970">
        <ele>138.1</ele>
        <time>2021-05-20T07:06:58Z</time>
      </trkpt>
      <trkpt lat="42.1647160" lon="-8.8002960">
        <ele>138.0</ele>
        <time>2021-05-20T07:06:59Z</time>
      </trkpt>
      <trkpt lat="42.1647330" lon="-8.8002940">
        <ele>137.9</ele>
        <time>2021-05-20T07:07:00Z</time>
      </trkpt>
      <trkpt lat="42.1647420" lon="-8.8002970">
        <ele>137.9</ele>
        <time>2021-05-20T07:07:01Z</time>
      </trkpt>
      <trkpt lat="42.1647520" lon="-8.8002940">
        <ele>137.9</ele>
        <time>2021-05-20T07:07:02Z</time>
      </trkpt>
      <trkpt lat="42.1647800" lon="-8.8002980">
        <ele>137.8</ele>
        <time>2021-05-20T07:07:03Z</time>
      </trkpt>
      <trkpt lat="42.1647900" lon="-8.8002980">
        <ele>137.7</ele>
        <time>2021-05-20T07:07:04Z</time>
      </trkpt>
      <trkpt lat="42.1648160" lon="-8.8002980">
        <ele>137.6</ele>
        <time>2021-05-20T07:07:05Z</time>
      </trkpt>
      <trkpt lat="42.1648250" lon="-8.8002980">
        <ele>137.6</ele>
        <time>2021-05-20T07:07:06Z</time>
      </trkpt>
      <trkpt lat="42.1648350" lon="-8.8002990">
        <ele>137.6</ele>
        <time>2021-05-20T07:07:07Z</time>
      </trkpt>
      <trkpt lat="42.1648480" lon="-8.8003080">
        <ele>137.5</ele>
        <time>2021-05-20T07:07:08Z</time>
      </trkpt>
      <trkpt lat="42.1648640" lon="-8.8003060">
        <ele>137.5</ele>
        <time>2021-05-20T07:07:09Z</time>
      </trkpt>
      <trkpt lat="42.1648740" lon="-8.8003020">
        <ele>137.4</ele>
        <time>2021-05-20T07:07:10Z</time>
      </trkpt>
      <trkpt lat="42.1648870" lon="-8.8003090">
        <ele>137.4</ele>
        <time>2021-05-20T07:07:11Z</time>
      </trkpt>
      <trkpt lat="42.1648990" lon="-8.8003130">
        <ele>137.4</ele>
        <time>2021-05-20T07:07:12Z</time>
      </trkpt>
      <trkpt lat="42.1649330" lon="-8.8003180">
        <ele>137.3</ele>
        <time>2021-05-20T07:07:13Z</time>
      </trkpt>
      <trkpt lat="42.1649390" lon="-8.8003200">
        <ele>137.3</ele>
        <time>2021-05-20T07:07:14Z</time>
      </trkpt>
      <trkpt lat="42.1649500" lon="-8.8003320">
        <ele>137.2</ele>
        <time>2021-05-20T07:07:15Z</time>
      </trkpt>
      <trkpt lat="42.1649620" lon="-8.8003390">
        <ele>137.2</ele>
        <time>2021-05-20T07:07:16Z</time>
      </trkpt>
      <trkpt lat="42.1649710" lon="-8.8003430">
        <ele>137.1</ele>
        <time>2021-05-20T07:07:17Z</time>
      </trkpt>
      <trkpt lat="42.1649880" lon="-8.8003510">
        <ele>137.1</ele>
        <time>2021-05-20T07:07:18Z</time>
      </trkpt>
      <trkpt lat="42.1649900" lon="-8.8003530">
        <ele>137.1</ele>
        <time>2021-05-20T07:07:19Z</time>
      </trkpt>
      <trkpt lat="42.1649980" lon="-8.8003600">
        <ele>137.1</ele>
        <time>2021-05-20T07:07:20Z</time>
      </trkpt>
      <trkpt lat="42.1650240" lon="-8.8003700">
        <ele>137.0</ele>
        <time>2021-05-20T07:07:21Z</time>
      </trkpt>
      <trkpt lat="42.1650310" lon="-8.8003730">
        <ele>137.0</ele>
        <time>2021-05-20T07:07:22Z</time>
      </trkpt>
      <trkpt lat="42.1650390" lon="-8.8003760">
        <ele>136.9</ele>
        <time>2021-05-20T07:07:23Z</time>
      </trkpt>
      <trkpt lat="42.1650420" lon="-8.8003810">
        <ele>136.9</ele>
        <time>2021-05-20T07:07:24Z</time>
      </trkpt>
      <trkpt lat="42.1650570" lon="-8.8003910">
        <ele>136.9</ele>
        <time>2021-05-20T07:07:25Z</time>
      </trkpt>
      <trkpt lat="42.1650670" lon="-8.8004010">
        <ele>136.8</ele>
        <time>2021-05-20T07:07:26Z</time>
      </trkpt>
      <trkpt lat="42.1650760" lon="-8.8004060">
        <ele>136.8</ele>
        <time>2021-05-20T07:07:27Z</time>
      </trkpt>
      <trkpt lat="42.1650890" lon="-8.8004130">
        <ele>136.8</ele>
        <time>2021-05-20T07:07:28Z</time>
      </trkpt>
      <trkpt lat="42.1650970" lon="-8.8004160">
        <ele>136.8</ele>
        <time>2021-05-20T07:07:29Z</time>
      </trkpt>
      <trkpt lat="42.1651040" lon="-8.8004260">
        <ele>136.7</ele>
        <time>2021-05-20T07:07:30Z</time>
      </trkpt>
      <trkpt lat="42.1650990" lon="-8.8004230">
        <ele>136.7</ele>
        <time>2021-05-20T07:07:31Z</time>
      </trkpt>
      <trkpt lat="42.1651090" lon="-8.8004350">
        <ele>136.7</ele>
        <time>2021-05-20T07:07:32Z</time>
      </trkpt>
      <trkpt lat="42.1651180" lon="-8.8004400">
        <ele>136.6</ele>
        <time>2021-05-20T07:07:33Z</time>
      </trkpt>
      <trkpt lat="42.1651290" lon="-8.8004670">
        <ele>136.6</ele>
        <time>2021-05-20T07:07:34Z</time>
      </trkpt>
      <trkpt lat="42.1651330" lon="-8.8004800">
        <ele>136.5</ele>
        <time>2021-05-20T07:07:35Z</time>
      </trkpt>
      <trkpt lat="42.1651380" lon="-8.8004940">
        <ele>136.5</ele>
        <time>2021-05-20T07:07:36Z</time>
      </trkpt>
      <trkpt lat="42.1651510" lon="-8.8005100">
        <ele>136.4</ele>
        <time>2021-05-20T07:07:37Z</time>
      </trkpt>
      <trkpt lat="42.1651570" lon="-8.8005150">
        <ele>136.4</ele>
        <time>2021-05-20T07:07:38Z</time>
      </trkpt>
      <trkpt lat="42.1651630" lon="-8.8005210">
        <ele>136.4</ele>
        <time>2021-05-20T07:07:39Z</time>
      </trkpt>
      <trkpt lat="42.1651690" lon="-8.8005270">
        <ele>136.4</ele>
        <time>2021-05-20T07:07:40Z</time>
      </trkpt>
      <trkpt lat="42.1651810" lon="-8.8005400">
        <ele>136.3</ele>
        <time>2021-05-20T07:07:41Z</time>
      </trkpt>
      <trkpt lat="42.1651880" lon="-8.8005450">
        <ele>136.3</ele>
        <time>2021-05-20T07:07:42Z</time>
      </trkpt>
      <trkpt lat="42.1651960" lon="-8.8005510">
        <ele>136.2</ele>
        <time>2021-05-20T07:07:43Z</time>
      </trkpt>
      <trkpt lat="42.1652030" lon="-8.8005560">
        <ele>136.2</ele>
        <time>2021-05-20T07:07:44Z</time>
      </trkpt>
      <trkpt lat="42.1652160" lon="-8.8005630">
        <ele>136.1</ele>
        <time>2021-05-20T07:07:45Z</time>
      </trkpt>
      <trkpt lat="42.1652160" lon="-8.8005560">
        <ele>136.1</ele>
        <time>2021-05-20T07:07:46Z</time>
      </trkpt>
      <trkpt lat="42.1652220" lon="-8.8005650">
        <ele>136.1</ele>
        <time>2021-05-20T07:07:47Z</time>
      </trkpt>
      <trkpt lat="42.1652270" lon="-8.8005700">
        <ele>136.1</ele>
        <time>2021-05-20T07:07:48Z</time>
      </trkpt>
      <trkpt lat="42.1652350" lon="-8.8005740">
        <ele>136.0</ele>
        <time>2021-05-20T07:07:49Z</time>
      </trkpt>
      <trkpt lat="42.1652460" lon="-8.8005710">
        <ele>136.0</ele>
        <time>2021-05-20T07:07:50Z</time>
      </trkpt>
      <trkpt lat="42.1652540" lon="-8.8005810">
        <ele>135.9</ele>
        <time>2021-05-20T07:07:51Z</time>
      </trkpt>
      <trkpt lat="42.1652540" lon="-8.8005830">
        <ele>135.9</ele>
        <time>2021-05-20T07:07:52Z</time>
      </trkpt>
      <trkpt lat="42.1652690" lon="-8.8005920">
        <ele>135.8</ele>
        <time>2021-05-20T07:07:53Z</time>
      </trkpt>
      <trkpt lat="42.1652760" lon="-8.8006010">
        <ele>135.8</ele>
        <time>2021-05-20T07:07:54Z</time>
      </trkpt>
      <trkpt lat="42.1652890" lon="-8.8006090">
        <ele>135.7</ele>
        <time>2021-05-20T07:07:55Z</time>
      </trkpt>
      <trkpt lat="42.1652970" lon="-8.8006190">
        <ele>135.7</ele>
        <time>2021-05-20T07:07:56Z</time>
      </trkpt>
      <trkpt lat="42.1653070" lon="-8.8006260">
        <ele>135.6</ele>
        <time>2021-05-20T07:07:57Z</time>
      </trkpt>
      <trkpt lat="42.1653160" lon="-8.8006330">
        <ele>135.6</ele>
        <time>2021-05-20T07:07:58Z</time>
      </trkpt>
      <trkpt lat="42.1653170" lon="-8.8006440">
        <ele>135.5</ele>
        <time>2021-05-20T07:07:59Z</time>
      </trkpt>
      <trkpt lat="42.1653330" lon="-8.8006600">
        <ele>135.4</ele>
        <time>2021-05-20T07:08:00Z</time>
      </trkpt>
      <trkpt lat="42.1653370" lon="-8.8006720">
        <ele>135.4</ele>
        <time>2021-05-20T07:08:01Z</time>
      </trkpt>
      <trkpt lat="42.1653500" lon="-8.8006950">
        <ele>135.3</ele>
        <time>2021-05-20T07:08:02Z</time>
      </trkpt>
      <trkpt lat="42.1653630" lon="-8.8007010">
        <ele>135.2</ele>
        <time>2021-05-20T07:08:03Z</time>
      </trkpt>
      <trkpt lat="42.1653700" lon="-8.8007150">
        <ele>135.1</ele>
        <time>2021-05-20T07:08:04Z</time>
      </trkpt>
      <trkpt lat="42.1653740" lon="-8.8007260">
        <ele>135.1</ele>
        <time>2021-05-20T07:08:05Z</time>
      </trkpt>
      <trkpt lat="42.1653810" lon="-8.8007320">
        <ele>135.0</ele>
        <time>2021-05-20T07:08:06Z</time>
      </trkpt>
      <trkpt lat="42.1653940" lon="-8.8007510">
        <ele>134.9</ele>
        <time>2021-05-20T07:08:07Z</time>
      </trkpt>
      <trkpt lat="42.1654050" lon="-8.8007650">
        <ele>134.8</ele>
        <time>2021-05-20T07:08:08Z</time>
      </trkpt>
      <trkpt lat="42.1654140" lon="-8.8007760">
        <ele>134.8</ele>
        <time>2021-05-20T07:08:09Z</time>
      </trkpt>
      <trkpt lat="42.1654310" lon="-8.8007890">
        <ele>134.7</ele>
        <time>2021-05-20T07:08:10Z</time>
      </trkpt>
      <trkpt lat="42.1654290" lon="-8.8008020">
        <ele>134.6</ele>
        <time>2021-05-20T07:08:11Z</time>
      </trkpt>
      <trkpt lat="42.1654470" lon="-8.8008280">
        <ele>134.4</ele>
        <time>2021-05-20T07:08:12Z</time>
      </trkpt>
      <trkpt lat="42.1654610" lon="-8.8008440">
        <ele>134.3</ele>
        <time>2021-05-20T07:08:13Z</time>
      </trkpt>
      <trkpt lat="42.1654710" lon="-8.8008570">
        <ele>134.2</ele>
        <time>2021-05-20T07:08:14Z</time>
      </trkpt>
      <trkpt lat="42.1654710" lon="-8.8008670">
        <ele>134.2</ele>
        <time>2021-05-20T07:08:15Z</time>
      </trkpt>
      <trkpt lat="42.1654870" lon="-8.8008750">
        <ele>134.0</ele>
        <time>2021-05-20T07:08:16Z</time>
      </trkpt>
      <trkpt lat="42.1654940" lon="-8.8008810">
        <ele>134.0</ele>
        <time>2021-05-20T07:08:17Z</time>
      </trkpt>
      <trkpt lat="42.1655040" lon="-8.8008860">
        <ele>133.9</ele>
        <time>2021-05-20T07:08:18Z</time>
      </trkpt>
      <trkpt lat="42.1655100" lon="-8.8008950">
        <ele>133.8</ele>
        <time>2021-05-20T07:08:19Z</time>
      </trkpt>
      <trkpt lat="42.1655210" lon="-8.8009080">
        <ele>133.7</ele>
        <time>2021-05-20T07:08:20Z</time>
      </trkpt>
      <trkpt lat="42.1655270" lon="-8.8009150">
        <ele>133.7</ele>
        <time>2021-05-20T07:08:21Z</time>
      </trkpt>
      <trkpt lat="42.1655440" lon="-8.8009190">
        <ele>133.6</ele>
        <time>2021-05-20T07:08:22Z</time>
      </trkpt>
      <trkpt lat="42.1655490" lon="-8.8009250">
        <ele>133.5</ele>
        <time>2021-05-20T07:08:23Z</time>
      </trkpt>
      <trkpt lat="42.1655640" lon="-8.8009320">
        <ele>133.4</ele>
        <time>2021-05-20T07:08:24Z</time>
      </trkpt>
      <trkpt lat="42.1655790" lon="-8.8009450">
        <ele>133.3</ele>
        <time>2021-05-20T07:08:25Z</time>
      </trkpt>
      <trkpt lat="42.1656010" lon="-8.8009590">
        <ele>133.1</ele>
        <time>2021-05-20T07:08:26Z</time>
      </trkpt>
      <trkpt lat="42.1656100" lon="-8.8009650">
        <ele>133.0</ele>
        <time>2021-05-20T07:08:27Z</time>
      </trkpt>
      <trkpt lat="42.1656190" lon="-8.8009720">
        <ele>132.9</ele>
        <time>2021-05-20T07:08:28Z</time>
      </trkpt>
      <trkpt lat="42.1656260" lon="-8.8009870">
        <ele>132.8</ele>
        <time>2021-05-20T07:08:29Z</time>
      </trkpt>
      <trkpt lat="42.1656380" lon="-8.8009900">
        <ele>132.7</ele>
        <time>2021-05-20T07:08:30Z</time>
      </trkpt>
      <trkpt lat="42.1656490" lon="-8.8009990">
        <ele>132.6</ele>
        <time>2021-05-20T07:08:31Z</time>
      </trkpt>
      <trkpt lat="42.1656540" lon="-8.8009990">
        <ele>132.6</ele>
        <time>2021-05-20T07:08:32Z</time>
      </trkpt>
      <trkpt lat="42.1656710" lon="-8.8010130">
        <ele>132.5</ele>
        <time>2021-05-20T07:08:33Z</time>
      </trkpt>
      <trkpt lat="42.1656790" lon="-8.8010200">
        <ele>132.4</ele>
        <time>2021-05-20T07:08:34Z</time>
      </trkpt>
      <trkpt lat="42.1656980" lon="-8.8010340">
        <ele>132.2</ele>
        <time>2021-05-20T07:08:35Z</time>
      </trkpt>
      <trkpt lat="42.1657030" lon="-8.8010430">
        <ele>132.2</ele>
        <time>2021-05-20T07:08:36Z</time>
      </trkpt>
      <trkpt lat="42.1657090" lon="-8.8010510">
        <ele>132.1</ele>
        <time>2021-05-20T07:08:37Z</time>
      </trkpt>
      <trkpt lat="42.1657140" lon="-8.8010640">
        <ele>132.0</ele>
        <time>2021-05-20T07:08:38Z</time>
      </trkpt>
      <trkpt lat="42.1657270" lon="-8.8010660">
        <ele>131.9</ele>
        <time>2021-05-20T07:08:39Z</time>
      </trkpt>
      <trkpt lat="42.1657350" lon="-8.8010770">
        <ele>131.8</ele>
        <time>2021-05-20T07:08:40Z</time>
      </trkpt>
      <trkpt lat="42.1657560" lon="-8.8010880">
        <ele>131.7</ele>
        <time>2021-05-20T07:08:41Z</time>
      </trkpt>
      <trkpt lat="42.1657640" lon="-8.8010950">
        <ele>131.6</ele>
        <time>2021-05-20T07:08:42Z</time>
      </trkpt>
      <trkpt lat="42.1657720" lon="-8.8011030">
        <ele>131.5</ele>
        <time>2021-05-20T07:08:43Z</time>
      </trkpt>
      <trkpt lat="42.1657900" lon="-8.8011150">
        <ele>131.4</ele>
        <time>2021-05-20T07:08:44Z</time>
      </trkpt>
      <trkpt lat="42.1657970" lon="-8.8011270">
        <ele>131.3</ele>
        <time>2021-05-20T07:08:45Z</time>
      </trkpt>
      <trkpt lat="42.1658020" lon="-8.8011310">
        <ele>131.2</ele>
        <time>2021-05-20T07:08:46Z</time>
      </trkpt>
      <trkpt lat="42.1658120" lon="-8.8011510">
        <ele>131.1</ele>
        <time>2021-05-20T07:08:47Z</time>
      </trkpt>
      <trkpt lat="42.1658200" lon="-8.8011640">
        <ele>131.0</ele>
        <time>2021-05-20T07:08:48Z</time>
      </trkpt>
      <trkpt lat="42.1658170" lon="-8.8011670">
        <ele>131.0</ele>
        <time>2021-05-20T07:08:49Z</time>
      </trkpt>
      <trkpt lat="42.1658330" lon="-8.8011820">
        <ele>130.9</ele>
        <time>2021-05-20T07:08:50Z</time>
      </trkpt>
      <trkpt lat="42.1658420" lon="-8.8011890">
        <ele>130.8</ele>
        <time>2021-05-20T07:08:51Z</time>
      </trkpt>
      <trkpt lat="42.1658510" lon="-8.8012020">
        <ele>130.7</ele>
        <time>2021-05-20T07:08:52Z</time>
      </trkpt>
      <trkpt lat="42.1658620" lon="-8.8012160">
        <ele>130.6</ele>
        <time>2021-05-20T07:08:53Z</time>
      </trkpt>
      <trkpt lat="42.1658670" lon="-8.8012230">
        <ele>130.6</ele>
        <time>2021-05-20T07:08:54Z</time>
      </trkpt>
      <trkpt lat="42.1658810" lon="-8.8012320">
        <ele>130.5</ele>
        <time>2021-05-20T07:08:55Z</time>
      </trkpt>
      <trkpt lat="42.1658850" lon="-8.8012430">
        <ele>130.4</ele>
        <time>2021-05-20T07:08:56Z</time>
      </trkpt>
      <trkpt lat="42.1659010" lon="-8.8012620">
        <ele>130.3</ele>
        <time>2021-05-20T07:08:57Z</time>
      </trkpt>
      <trkpt lat="42.1659070" lon="-8.8012700">
        <ele>130.2</ele>
        <time>2021-05-20T07:08:58Z</time>
      </trkpt>
      <trkpt lat="42.1659130" lon="-8.8012780">
        <ele>130.2</ele>
        <time>2021-05-20T07:08:59Z</time>
      </trkpt>
      <trkpt lat="42.1659140" lon="-8.8012830">
        <ele>130.1</ele>
        <time>2021-05-20T07:09:00Z</time>
      </trkpt>
      <trkpt lat="42.1659300" lon="-8.8012950">
        <ele>130.0</ele>
        <time>2021-05-20T07:09:01Z</time>
      </trkpt>
      <trkpt lat="42.1659360" lon="-8.8013030">
        <ele>129.9</ele>
        <time>2021-05-20T07:09:02Z</time>
      </trkpt>
      <trkpt lat="42.1659570" lon="-8.8013130">
        <ele>129.8</ele>
        <time>2021-05-20T07:09:03Z</time>
      </trkpt>
      <trkpt lat="42.1659650" lon="-8.8013180">
        <ele>129.7</ele>
        <time>2021-05-20T07:09:04Z</time>
      </trkpt>
      <trkpt lat="42.1659720" lon="-8.8013220">
        <ele>129.7</ele>
        <time>2021-05-20T07:09:05Z</time>
      </trkpt>
      <trkpt lat="42.1659840" lon="-8.8013240">
        <ele>129.6</ele>
        <time>2021-05-20T07:09:06Z</time>
      </trkpt>
      <trkpt lat="42.1660040" lon="-8.8013310">
        <ele>129.4</ele>
        <time>2021-05-20T07:09:07Z</time>
      </trkpt>
      <trkpt lat="42.1660220" lon="-8.8013430">
        <ele>129.2</ele>
        <time>2021-05-20T07:09:08Z</time>
      </trkpt>
      <trkpt lat="42.1660270" lon="-8.8013450">
        <ele>129.2</ele>
        <time>2021-05-20T07:09:09Z</time>
      </trkpt>
      <trkpt lat="42.1660330" lon="-8.8013460">
        <ele>129.1</ele>
        <time>2021-05-20T07:09:10Z</time>
      </trkpt>
      <trkpt lat="42.1660380" lon="-8.8013480">
        <ele>129.1</ele>
        <time>2021-05-20T07:09:11Z</time>
      </trkpt>
      <trkpt lat="42.1660540" lon="-8.8013500">
        <ele>129.0</ele>
        <time>2021-05-20T07:09:12Z</time>
      </trkpt>
      <trkpt lat="42.1660670" lon="-8.8013520">
        <ele>128.9</ele>
        <time>2021-05-20T07:09:13Z</time>
      </trkpt>
      <trkpt lat="42.1660900" lon="-8.8013490">
        <ele>128.7</ele>
        <time>2021-05-20T07:09:14Z</time>
      </trkpt>
      <trkpt lat="42.1661010" lon="-8.8013520">
        <ele>128.6</ele>
        <time>2021-05-20T07:09:15Z</time>
      </trkpt>
      <trkpt lat="42.1661150" lon="-8.8013490">
        <ele>128.5</ele>
        <time>2021-05-20T07:09:16Z</time>
      </trkpt>
      <trkpt lat="42.1661290" lon="-8.8013490">
        <ele>128.3</ele>
        <time>2021-05-20T07:09:17Z</time>
      </trkpt>
      <trkpt lat="42.1661420" lon="-8.8013460">
        <ele>128.2</ele>
        <time>2021-05-20T07:09:18Z</time>
      </trkpt>
      <trkpt lat="42.1661590" lon="-8.8013480">
        <ele>128.1</ele>
        <time>2021-05-20T07:09:19Z</time>
      </trkpt>
      <trkpt lat="42.1661720" lon="-8.8013440">
        <ele>128.0</ele>
        <time>2021-05-20T07:09:20Z</time>
      </trkpt>
      <trkpt lat="42.1661890" lon="-8.8013330">
        <ele>127.8</ele>
        <time>2021-05-20T07:09:21Z</time>
      </trkpt>
      <trkpt lat="42.1662040" lon="-8.8013280">
        <ele>127.7</ele>
        <time>2021-05-20T07:09:22Z</time>
      </trkpt>
      <trkpt lat="42.1662240" lon="-8.8013230">
        <ele>127.5</ele>
        <time>2021-05-20T07:09:23Z</time>
      </trkpt>
      <trkpt lat="42.1662350" lon="-8.8013160">
        <ele>127.4</ele>
        <time>2021-05-20T07:09:24Z</time>
      </trkpt>
      <trkpt lat="42.1662450" lon="-8.8013080">
        <ele>127.3</ele>
        <time>2021-05-20T07:09:25Z</time>
      </trkpt>
      <trkpt lat="42.1662580" lon="-8.8013070">
        <ele>127.2</ele>
        <time>2021-05-20T07:09:26Z</time>
      </trkpt>
      <trkpt lat="42.1662790" lon="-8.8012990">
        <ele>127.0</ele>
        <time>2021-05-20T07:09:27Z</time>
      </trkpt>
      <trkpt lat="42.1662880" lon="-8.8012980">
        <ele>127.0</ele>
        <time>2021-05-20T07:09:28Z</time>
      </trkpt>
      <trkpt lat="42.1662960" lon="-8.8012970">
        <ele>126.9</ele>
        <time>2021-05-20T07:09:29Z</time>
      </trkpt>
      <trkpt lat="42.1663060" lon="-8.8012950">
        <ele>126.8</ele>
        <time>2021-05-20T07:09:30Z</time>
      </trkpt>
      <trkpt lat="42.1663200" lon="-8.8012870">
        <ele>126.7</ele>
        <time>2021-05-20T07:09:31Z</time>
      </trkpt>
      <trkpt lat="42.1663290" lon="-8.8012830">
        <ele>126.7</ele>
        <time>2021-05-20T07:09:32Z</time>
      </trkpt>
      <trkpt lat="42.1663490" lon="-8.8012790">
        <ele>126.6</ele>
        <time>2021-05-20T07:09:33Z</time>
      </trkpt>
      <trkpt lat="42.1663560" lon="-8.8012780">
        <ele>126.5</ele>
        <time>2021-05-20T07:09:34Z</time>
      </trkpt>
      <trkpt lat="42.1663630" lon="-8.8012760">
        <ele>126.5</ele>
        <time>2021-05-20T07:09:35Z</time>
      </trkpt>
      <trkpt lat="42.1663700" lon="-8.8012750">
        <ele>126.4</ele>
        <time>2021-05-20T07:09:36Z</time>
      </trkpt>
      <trkpt lat="42.1663880" lon="-8.8012670">
        <ele>126.3</ele>
        <time>2021-05-20T07:09:37Z</time>
      </trkpt>
      <trkpt lat="42.1663980" lon="-8.8012640">
        <ele>126.3</ele>
        <time>2021-05-20T07:09:38Z</time>
      </trkpt>
      <trkpt lat="42.1664070" lon="-8.8012610">
        <ele>126.2</ele>
        <time>2021-05-20T07:09:39Z</time>
      </trkpt>
      <trkpt lat="42.1664250" lon="-8.8012520">
        <ele>126.2</ele>
        <time>2021-05-20T07:09:40Z</time>
      </trkpt>
      <trkpt lat="42.1664340" lon="-8.8012460">
        <ele>126.1</ele>
        <time>2021-05-20T07:09:41Z</time>
      </trkpt>
      <trkpt lat="42.1664420" lon="-8.8012390">
        <ele>126.1</ele>
        <time>2021-05-20T07:09:42Z</time>
      </trkpt>
      <trkpt lat="42.1664500" lon="-8.8012330">
        <ele>126.1</ele>
        <time>2021-05-20T07:09:43Z</time>
      </trkpt>
      <trkpt lat="42.1664680" lon="-8.8012200">
        <ele>126.0</ele>
        <time>2021-05-20T07:09:44Z</time>
      </trkpt>
      <trkpt lat="42.1664740" lon="-8.8012120">
        <ele>126.0</ele>
        <time>2021-05-20T07:09:45Z</time>
      </trkpt>
      <trkpt lat="42.1664810" lon="-8.8012040">
        <ele>125.9</ele>
        <time>2021-05-20T07:09:46Z</time>
      </trkpt>
      <trkpt lat="42.1664880" lon="-8.8011840">
        <ele>126.0</ele>
        <time>2021-05-20T07:09:47Z</time>
      </trkpt>
      <trkpt lat="42.1664870" lon="-8.8011740">
        <ele>126.0</ele>
        <time>2021-05-20T07:09:48Z</time>
      </trkpt>
      <trkpt lat="42.1664960" lon="-8.8011600">
        <ele>126.0</ele>
        <time>2021-05-20T07:09:49Z</time>
      </trkpt>
      <trkpt lat="42.1665000" lon="-8.8011400">
        <ele>126.1</ele>
        <time>2021-05-20T07:09:50Z</time>
      </trkpt>
      <trkpt lat="42.1665060" lon="-8.8011230">
        <ele>126.1</ele>
        <time>2021-05-20T07:09:51Z</time>
      </trkpt>
      <trkpt lat="42.1665110" lon="-8.8010990">
        <ele>126.1</ele>
        <time>2021-05-20T07:09:52Z</time>
      </trkpt>
      <trkpt lat="42.1665160" lon="-8.8010890">
        <ele>126.2</ele>
        <time>2021-05-20T07:09:53Z</time>
      </trkpt>
      <trkpt lat="42.1665210" lon="-8.8010780">
        <ele>126.2</ele>
        <time>2021-05-20T07:09:54Z</time>
      </trkpt>
      <trkpt lat="42.1665320" lon="-8.8010660">
        <ele>126.3</ele>
        <time>2021-05-20T07:09:55Z</time>
      </trkpt>
      <trkpt lat="42.1665360" lon="-8.8010480">
        <ele>126.3</ele>
        <time>2021-05-20T07:09:56Z</time>
      </trkpt>
      <trkpt lat="42.1665460" lon="-8.8010340">
        <ele>126.4</ele>
        <time>2021-05-20T07:09:57Z</time>
      </trkpt>
      <trkpt lat="42.1665460" lon="-8.8010230">
        <ele>126.4</ele>
        <time>2021-05-20T07:09:58Z</time>
      </trkpt>
      <trkpt lat="42.1665430" lon="-8.8010130">
        <ele>126.4</ele>
        <time>2021-05-20T07:09:59Z</time>
      </trkpt>
      <trkpt lat="42.1665480" lon="-8.8010050">
        <ele>126.5</ele>
        <time>2021-05-20T07:10:00Z</time>
      </trkpt>
      <trkpt lat="42.1665670" lon="-8.8009940">
        <ele>126.6</ele>
        <time>2021-05-20T07:10:01Z</time>
      </trkpt>
      <trkpt lat="42.1665740" lon="-8.8009880">
        <ele>126.6</ele>
        <time>2021-05-20T07:10:02Z</time>
      </trkpt>
      <trkpt lat="42.1665820" lon="-8.8009820">
        <ele>126.7</ele>
        <time>2021-05-20T07:10:03Z</time>
      </trkpt>
      <trkpt lat="42.1665900" lon="-8.8009740">
        <ele>126.7</ele>
        <time>2021-05-20T07:10:04Z</time>
      </trkpt>
      <trkpt lat="42.1665930" lon="-8.8009680">
        <ele>126.8</ele>
        <time>2021-05-20T07:10:05Z</time>
      </trkpt>
      <trkpt lat="42.1666020" lon="-8.8009630">
        <ele>126.8</ele>
        <time>2021-05-20T07:10:06Z</time>
      </trkpt>
      <trkpt lat="42.1666140" lon="-8.8009590">
        <ele>126.9</ele>
        <time>2021-05-20T07:10:07Z</time>
      </trkpt>
      <trkpt lat="42.1666240" lon="-8.8009460">
        <ele>127.0</ele>
        <time>2021-05-20T07:10:08Z</time>
      </trkpt>
      <trkpt lat="42.1666320" lon="-8.8009400">
        <ele>127.1</ele>
        <time>2021-05-20T07:10:09Z</time>
      </trkpt>
      <trkpt lat="42.1666390" lon="-8.8009340">
        <ele>127.2</ele>
        <time>2021-05-20T07:10:10Z</time>
      </trkpt>
      <trkpt lat="42.1666460" lon="-8.8009280">
        <ele>127.2</ele>
        <time>2021-05-20T07:10:11Z</time>
      </trkpt>
      <trkpt lat="42.1666510" lon="-8.8009260">
        <ele>127.3</ele>
        <time>2021-05-20T07:10:12Z</time>
      </trkpt>
      <trkpt lat="42.1666530" lon="-8.8009220">
        <ele>127.3</ele>
        <time>2021-05-20T07:10:13Z</time>
      </trkpt>
      <trkpt lat="42.1666560" lon="-8.8009120">
        <ele>127.4</ele>
        <time>2021-05-20T07:10:14Z</time>
      </trkpt>
      <trkpt lat="42.1666700" lon="-8.8009060">
        <ele>127.5</ele>
        <time>2021-05-20T07:10:15Z</time>
      </trkpt>
      <trkpt lat="42.1666820" lon="-8.8009070">
        <ele>127.6</ele>
        <time>2021-05-20T07:10:16Z</time>
      </trkpt>
      <trkpt lat="42.1666920" lon="-8.8008980">
        <ele>127.8</ele>
        <time>2021-05-20T07:10:17Z</time>
      </trkpt>
      <trkpt lat="42.1667030" lon="-8.8008920">
        <ele>127.9</ele>
        <time>2021-05-20T07:10:18Z</time>
      </trkpt>
      <trkpt lat="42.1667070" lon="-8.8008850">
        <ele>128.0</ele>
        <time>2021-05-20T07:10:19Z</time>
      </trkpt>
      <trkpt lat="42.1667160" lon="-8.8008730">
        <ele>128.1</ele>
        <time>2021-05-20T07:10:20Z</time>
      </trkpt>
      <trkpt lat="42.1667270" lon="-8.8008700">
        <ele>128.2</ele>
        <time>2021-05-20T07:10:21Z</time>
      </trkpt>
      <trkpt lat="42.1667380" lon="-8.8008670">
        <ele>128.4</ele>
        <time>2021-05-20T07:10:22Z</time>
      </trkpt>
      <trkpt lat="42.1667510" lon="-8.8008630">
        <ele>128.5</ele>
        <time>2021-05-20T07:10:23Z</time>
      </trkpt>
      <trkpt lat="42.1667580" lon="-8.8008590">
        <ele>128.6</ele>
        <time>2021-05-20T07:10:24Z</time>
      </trkpt>
      <trkpt lat="42.1667680" lon="-8.8008430">
        <ele>128.8</ele>
        <time>2021-05-20T07:10:25Z</time>
      </trkpt>
      <trkpt lat="42.1667730" lon="-8.8008360">
        <ele>128.9</ele>
        <time>2021-05-20T07:10:26Z</time>
      </trkpt>
      <trkpt lat="42.1667780" lon="-8.8008280">
        <ele>129.0</ele>
        <time>2021-05-20T07:10:27Z</time>
      </trkpt>
      <trkpt lat="42.1667830" lon="-8.8008200">
        <ele>129.1</ele>
        <time>2021-05-20T07:10:28Z</time>
      </trkpt>
      <trkpt lat="42.1667910" lon="-8.8008170">
        <ele>129.2</ele>
        <time>2021-05-20T07:10:29Z</time>
      </trkpt>
      <trkpt lat="42.1667970" lon="-8.8008070">
        <ele>129.3</ele>
        <time>2021-05-20T07:10:30Z</time>
      </trkpt>
      <trkpt lat="42.1668060" lon="-8.8007970">
        <ele>129.4</ele>
        <time>2021-05-20T07:10:31Z</time>
      </trkpt>
      <trkpt lat="42.1668260" lon="-8.8007850">
        <ele>129.7</ele>
        <time>2021-05-20T07:10:32Z</time>
      </trkpt>
      <trkpt lat="42.1668340" lon="-8.8007790">
        <ele>129.8</ele>
        <time>2021-05-20T07:10:33Z</time>
      </trkpt>
      <trkpt lat="42.1668410" lon="-8.8007740">
        <ele>129.9</ele>
        <time>2021-05-20T07:10:34Z</time>
      </trkpt>
      <trkpt lat="42.1668540" lon="-8.8007620">
        <ele>130.1</ele>
        <time>2021-05-20T07:10:35Z</time>
      </trkpt>
      <trkpt lat="42.1668690" lon="-8.8007530">
        <ele>130.3</ele>
        <time>2021-05-20T07:10:36Z</time>
      </trkpt>
      <trkpt lat="42.1668770" lon="-8.8007420">
        <ele>130.4</ele>
        <time>2021-05-20T07:10:37Z</time>
      </trkpt>
      <trkpt lat="42.1668970" lon="-8.8007290">
        <ele>130.6</ele>
        <time>2021-05-20T07:10:38Z</time>
      </trkpt>
      <trkpt lat="42.1669070" lon="-8.8007170">
        <ele>130.8</ele>
        <time>2021-05-20T07:10:39Z</time>
      </trkpt>
      <trkpt lat="42.1669230" lon="-8.8007070">
        <ele>130.9</ele>
        <time>2021-05-20T07:10:40Z</time>
      </trkpt>
      <trkpt lat="42.1669420" lon="-8.8007060">
        <ele>131.1</ele>
        <time>2021-05-20T07:10:41Z</time>
      </trkpt>
      <trkpt lat="42.1669510" lon="-8.8007040">
        <ele>131.2</ele>
        <time>2021-05-20T07:10:42Z</time>
      </trkpt>
      <trkpt lat="42.1669590" lon="-8.8007010">
        <ele>131.3</ele>
        <time>2021-05-20T07:10:43Z</time>
      </trkpt>
      <trkpt lat="42.1669700" lon="-8.8006910">
        <ele>131.4</ele>
        <time>2021-05-20T07:10:44Z</time>
      </trkpt>
      <trkpt lat="42.1669810" lon="-8.8006780">
        <ele>131.6</ele>
        <time>2021-05-20T07:10:45Z</time>
      </trkpt>
      <trkpt lat="42.1670000" lon="-8.8006610">
        <ele>131.8</ele>
        <time>2021-05-20T07:10:46Z</time>
      </trkpt>
      <trkpt lat="42.1670050" lon="-8.8006540">
        <ele>131.8</ele>
        <time>2021-05-20T07:10:47Z</time>
      </trkpt>
      <trkpt lat="42.1670110" lon="-8.8006470">
        <ele>131.9</ele>
        <time>2021-05-20T07:10:48Z</time>
      </trkpt>
      <trkpt lat="42.1670200" lon="-8.8006350">
        <ele>132.0</ele>
        <time>2021-05-20T07:10:49Z</time>
      </trkpt>
      <trkpt lat="42.1670290" lon="-8.8006270">
        <ele>132.1</ele>
        <time>2021-05-20T07:10:50Z</time>
      </trkpt>
      <trkpt lat="42.1670320" lon="-8.8006160">
        <ele>132.2</ele>
        <time>2021-05-20T07:10:51Z</time>
      </trkpt>
      <trkpt lat="42.1670380" lon="-8.8006070">
        <ele>132.3</ele>
        <time>2021-05-20T07:10:52Z</time>
      </trkpt>
      <trkpt lat="42.1670410" lon="-8.8005970">
        <ele>132.4</ele>
        <time>2021-05-20T07:10:53Z</time>
      </trkpt>
      <trkpt lat="42.1670500" lon="-8.8005900">
        <ele>132.4</ele>
        <time>2021-05-20T07:10:54Z</time>
      </trkpt>
      <trkpt lat="42.1670570" lon="-8.8005810">
        <ele>132.5</ele>
        <time>2021-05-20T07:10:55Z</time>
      </trkpt>
      <trkpt lat="42.1670710" lon="-8.8005550">
        <ele>132.7</ele>
        <time>2021-05-20T07:10:56Z</time>
      </trkpt>
      <trkpt lat="42.1670750" lon="-8.8005480">
        <ele>132.8</ele>
        <time>2021-05-20T07:10:57Z</time>
      </trkpt>
      <trkpt lat="42.1670790" lon="-8.8005400">
        <ele>132.9</ele>
        <time>2021-05-20T07:10:58Z</time>
      </trkpt>
      <trkpt lat="42.1670860" lon="-8.8005320">
        <ele>133.0</ele>
        <time>2021-05-20T07:10:59Z</time>
      </trkpt>
      <trkpt lat="42.1670920" lon="-8.8005150">
        <ele>133.1</ele>
        <time>2021-05-20T07:11:00Z</time>
      </trkpt>
      <trkpt lat="42.1671010" lon="-8.8005050">
        <ele>133.2</ele>
        <time>2021-05-20T07:11:01Z</time>
      </trkpt>
      <trkpt lat="42.1671060" lon="-8.8004900">
        <ele>133.3</ele>
        <time>2021-05-20T07:11:02Z</time>
      </trkpt>
      <trkpt lat="42.1671140" lon="-8.8004760">
        <ele>133.4</ele>
        <time>2021-05-20T07:11:03Z</time>
      </trkpt>
      <trkpt lat="42.1671200" lon="-8.8004650">
        <ele>133.5</ele>
        <time>2021-05-20T07:11:04Z</time>
      </trkpt>
      <trkpt lat="42.1671280" lon="-8.8004520">
        <ele>133.6</ele>
        <time>2021-05-20T07:11:05Z</time>
      </trkpt>
      <trkpt lat="42.1671310" lon="-8.8004390">
        <ele>133.7</ele>
        <time>2021-05-20T07:11:06Z</time>
      </trkpt>
      <trkpt lat="42.1671350" lon="-8.8004220">
        <ele>133.8</ele>
        <time>2021-05-20T07:11:07Z</time>
      </trkpt>
      <trkpt lat="42.1671320" lon="-8.8004140">
        <ele>133.8</ele>
        <time>2021-05-20T07:11:08Z</time>
      </trkpt>
      <trkpt lat="42.1671310" lon="-8.8003980">
        <ele>133.9</ele>
        <time>2021-05-20T07:11:09Z</time>
      </trkpt>
      <trkpt lat="42.1671330" lon="-8.8003860">
        <ele>134.0</ele>
        <time>2021-05-20T07:11:10Z</time>
      </trkpt>
      <trkpt lat="42.1671360" lon="-8.8003740">
        <ele>134.1</ele>
        <time>2021-05-20T07:11:11Z</time>
      </trkpt>
      <trkpt lat="42.1671380" lon="-8.8003560">
        <ele>134.2</ele>
        <time>2021-05-20T07:11:12Z</time>
      </trkpt>
      <trkpt lat="42.1671390" lon="-8.8003470">
        <ele>134.2</ele>
        <time>2021-05-20T07:11:13Z</time>
      </trkpt>
      <trkpt lat="42.1671430" lon="-8.8003330">
        <ele>134.3</ele>
        <time>2021-05-20T07:11:14Z</time>
      </trkpt>
      <trkpt lat="42.1671490" lon="-8.8003250">
        <ele>134.4</ele>
        <time>2021-05-20T07:11:15Z</time>
      </trkpt>
      <trkpt lat="42.1671530" lon="-8.8003120">
        <ele>134.5</ele>
        <time>2021-05-20T07:11:16Z</time>
      </trkpt>
      <trkpt lat="42.1671750" lon="-8.8002970">
        <ele>134.7</ele>
        <time>2021-05-20T07:11:17Z</time>
      </trkpt>
      <trkpt lat="42.1671830" lon="-8.8002900">
        <ele>134.8</ele>
        <time>2021-05-20T07:11:18Z</time>
      </trkpt>
      <trkpt lat="42.1671910" lon="-8.8002820">
        <ele>134.8</ele>
        <time>2021-05-20T07:11:19Z</time>
      </trkpt>
      <trkpt lat="42.1671950" lon="-8.8002760">
        <ele>134.9</ele>
        <time>2021-05-20T07:11:20Z</time>
      </trkpt>
      <trkpt lat="42.1672040" lon="-8.8002720">
        <ele>135.0</ele>
        <time>2021-05-20T07:11:21Z</time>
      </trkpt>
      <trkpt lat="42.1672170" lon="-8.8002630">
        <ele>135.1</ele>
        <time>2021-05-20T07:11:22Z</time>
      </trkpt>
      <trkpt lat="42.1672370" lon="-8.8002520">
        <ele>135.3</ele>
        <time>2021-05-20T07:11:23Z</time>
      </trkpt>
      <trkpt lat="42.1672490" lon="-8.8002470">
        <ele>135.4</ele>
        <time>2021-05-20T07:11:24Z</time>
      </trkpt>
      <trkpt lat="42.1672610" lon="-8.8002430">
        <ele>135.5</ele>
        <time>2021-05-20T07:11:25Z</time>
      </trkpt>
      <trkpt lat="42.1672640" lon="-8.8002340">
        <ele>135.5</ele>
        <time>2021-05-20T07:11:26Z</time>
      </trkpt>
      <trkpt lat="42.1672760" lon="-8.8002250">
        <ele>135.6</ele>
        <time>2021-05-20T07:11:27Z</time>
      </trkpt>
      <trkpt lat="42.1672810" lon="-8.8002180">
        <ele>135.7</ele>
        <time>2021-05-20T07:11:28Z</time>
      </trkpt>
      <trkpt lat="42.1673000" lon="-8.8002040">
        <ele>135.9</ele>
        <time>2021-05-20T07:11:29Z</time>
      </trkpt>
      <trkpt lat="42.1673060" lon="-8.8001960">
        <ele>135.9</ele>
        <time>2021-05-20T07:11:30Z</time>
      </trkpt>
      <trkpt lat="42.1673110" lon="-8.8001890">
        <ele>136.0</ele>
        <time>2021-05-20T07:11:31Z</time>
      </trkpt>
      <trkpt lat="42.1673230" lon="-8.8001790">
        <ele>136.1</ele>
        <time>2021-05-20T07:11:32Z</time>
      </trkpt>
      <trkpt lat="42.1673390" lon="-8.8001650">
        <ele>136.3</ele>
        <time>2021-05-20T07:11:33Z</time>
      </trkpt>
      <trkpt lat="42.1673510" lon="-8.8001590">
        <ele>136.4</ele>
        <time>2021-05-20T07:11:34Z</time>
      </trkpt>
      <trkpt lat="42.1673620" lon="-8.8001450">
        <ele>136.5</ele>
        <time>2021-05-20T07:11:35Z</time>
      </trkpt>
      <trkpt lat="42.1673710" lon="-8.8001350">
        <ele>136.6</ele>
        <time>2021-05-20T07:11:36Z</time>
      </trkpt>
      <trkpt lat="42.1673870" lon="-8.8001300">
        <ele>136.7</ele>
        <time>2021-05-20T07:11:37Z</time>
      </trkpt>
      <trkpt lat="42.1673910" lon="-8.8001200">
        <ele>136.8</ele>
        <time>2021-05-20T07:11:38Z</time>
      </trkpt>
      <trkpt lat="42.1674090" lon="-8.8001090">
        <ele>137.0</ele>
        <time>2021-05-20T07:11:39Z</time>
      </trkpt>
      <trkpt lat="42.1674210" lon="-8.8001040">
        <ele>137.1</ele>
        <time>2021-05-20T07:11:40Z</time>
      </trkpt>
      <trkpt lat="42.1674310" lon="-8.8001000">
        <ele>137.2</ele>
        <time>2021-05-20T07:11:41Z</time>
      </trkpt>
      <trkpt lat="42.1674410" lon="-8.8000970">
        <ele>137.3</ele>
        <time>2021-05-20T07:11:42Z</time>
      </trkpt>
      <trkpt lat="42.1674580" lon="-8.8000940">
        <ele>137.4</ele>
        <time>2021-05-20T07:11:43Z</time>
      </trkpt>
      <trkpt lat="42.1674680" lon="-8.8000920">
        <ele>137.5</ele>
        <time>2021-05-20T07:11:44Z</time>
      </trkpt>
      <trkpt lat="42.1674780" lon="-8.8000900">
        <ele>137.6</ele>
        <time>2021-05-20T07:11:45Z</time>
      </trkpt>
      <trkpt lat="42.1674910" lon="-8.8000830">
        <ele>137.7</ele>
        <time>2021-05-20T07:11:46Z</time>
      </trkpt>
      <trkpt lat="42.1675000" lon="-8.8000770">
        <ele>137.8</ele>
        <time>2021-05-20T07:11:47Z</time>
      </trkpt>
      <trkpt lat="42.1675100" lon="-8.8000730">
        <ele>137.9</ele>
        <time>2021-05-20T07:11:48Z</time>
      </trkpt>
      <trkpt lat="42.1675230" lon="-8.8000710">
        <ele>138.0</ele>
        <time>2021-05-20T07:11:49Z</time>
      </trkpt>
      <trkpt lat="42.1675370" lon="-8.8000680">
        <ele>138.2</ele>
        <time>2021-05-20T07:11:50Z</time>
      </trkpt>
      <trkpt lat="42.1675470" lon="-8.8000680">
        <ele>138.3</ele>
        <time>2021-05-20T07:11:51Z</time>
      </trkpt>
      <trkpt lat="42.1675570" lon="-8.8000680">
        <ele>138.3</ele>
        <time>2021-05-20T07:11:52Z</time>
      </trkpt>
      <trkpt lat="42.1675690" lon="-8.8000600">
        <ele>138.5</ele>
        <time>2021-05-20T07:11:53Z</time>
      </trkpt>
      <trkpt lat="42.1675750" lon="-8.8000590">
        <ele>138.5</ele>
        <time>2021-05-20T07:11:54Z</time>
      </trkpt>
      <trkpt lat="42.1675850" lon="-8.8000550">
        <ele>138.6</ele>
        <time>2021-05-20T07:11:55Z</time>
      </trkpt>
      <trkpt lat="42.1675970" lon="-8.8000540">
        <ele>138.7</ele>
        <time>2021-05-20T07:11:56Z</time>
      </trkpt>
      <trkpt lat="42.1676160" lon="-8.8000460">
        <ele>138.9</ele>
        <time>2021-05-20T07:11:57Z</time>
      </trkpt>
      <trkpt lat="42.1676240" lon="-8.8000400">
        <ele>139.0</ele>
        <time>2021-05-20T07:11:58Z</time>
      </trkpt>
      <trkpt lat="42.1676320" lon="-8.8000350">
        <ele>139.1</ele>
        <time>2021-05-20T07:11:59Z</time>
      </trkpt>
      <trkpt lat="42.1676420" lon="-8.8000280">
        <ele>139.2</ele>
        <time>2021-05-20T07:12:00Z</time>
      </trkpt>
      <trkpt lat="42.1676520" lon="-8.8000190">
        <ele>139.4</ele>
        <time>2021-05-20T07:12:01Z</time>
      </trkpt>
      <trkpt lat="42.1676610" lon="-8.8000110">
        <ele>139.5</ele>
        <time>2021-05-20T07:12:02Z</time>
      </trkpt>
      <trkpt lat="42.1676670" lon="-8.8000020">
        <ele>139.6</ele>
        <time>2021-05-20T07:12:03Z</time>
      </trkpt>
      <trkpt lat="42.1676740" lon="-8.8000040">
        <ele>139.6</ele>
        <time>2021-05-20T07:12:04Z</time>
      </trkpt>
      <trkpt lat="42.1676900" lon="-8.7999920">
        <ele>139.8</ele>
        <time>2021-05-20T07:12:05Z</time>
      </trkpt>
      <trkpt lat="42.1676940" lon="-8.7999840">
        <ele>139.9</ele>
        <time>2021-05-20T07:12:06Z</time>
      </trkpt>
      <trkpt lat="42.1676960" lon="-8.7999750">
        <ele>140.0</ele>
        <time>2021-05-20T07:12:07Z</time>
      </trkpt>
      <trkpt lat="42.1677030" lon="-8.7999700">
        <ele>140.1</ele>
        <time>2021-05-20T07:12:08Z</time>
      </trkpt>
      <trkpt lat="42.1677070" lon="-8.7999620">
        <ele>140.2</ele>
        <time>2021-05-20T07:12:09Z</time>
      </trkpt>
      <trkpt lat="42.1677150" lon="-8.7999460">
        <ele>140.3</ele>
        <time>2021-05-20T07:12:10Z</time>
      </trkpt>
      <trkpt lat="42.1677280" lon="-8.7999430">
        <ele>140.5</ele>
        <time>2021-05-20T07:12:11Z</time>
      </trkpt>
      <trkpt lat="42.1677330" lon="-8.7999370">
        <ele>140.6</ele>
        <time>2021-05-20T07:12:12Z</time>
      </trkpt>
      <trkpt lat="42.1677390" lon="-8.7999310">
        <ele>140.6</ele>
        <time>2021-05-20T07:12:13Z</time>
      </trkpt>
      <trkpt lat="42.1677480" lon="-8.7999210">
        <ele>140.8</ele>
        <time>2021-05-20T07:12:14Z</time>
      </trkpt>
      <trkpt lat="42.1677530" lon="-8.7999120">
        <ele>140.9</ele>
        <time>2021-05-20T07:12:15Z</time>
      </trkpt>
      <trkpt lat="42.1677590" lon="-8.7999080">
        <ele>141.0</ele>
        <time>2021-05-20T07:12:16Z</time>
      </trkpt>
      <trkpt lat="42.1677660" lon="-8.7998980">
        <ele>141.1</ele>
        <time>2021-05-20T07:12:17Z</time>
      </trkpt>
      <trkpt lat="42.1677720" lon="-8.7998830">
        <ele>141.3</ele>
        <time>2021-05-20T07:12:18Z</time>
      </trkpt>
      <trkpt lat="42.1677820" lon="-8.7998750">
        <ele>141.4</ele>
        <time>2021-05-20T07:12:19Z</time>
      </trkpt>
      <trkpt lat="42.1677950" lon="-8.7998670">
        <ele>141.6</ele>
        <time>2021-05-20T07:12:20Z</time>
      </trkpt>
      <trkpt lat="42.1678020" lon="-8.7998540">
        <ele>141.8</ele>
        <time>2021-05-20T07:12:21Z</time>
      </trkpt>
      <trkpt lat="42.1678060" lon="-8.7998560">
        <ele>141.9</ele>
        <time>2021-05-20T07:12:22Z</time>
      </trkpt>
      <trkpt lat="42.1678120" lon="-8.7998520">
        <ele>142.0</ele>
        <time>2021-05-20T07:12:23Z</time>
      </trkpt>
      <trkpt lat="42.1678210" lon="-8.7998490">
        <ele>142.1</ele>
        <time>2021-05-20T07:12:24Z</time>
      </trkpt>
      <trkpt lat="42.1678320" lon="-8.7998400">
        <ele>142.3</ele>
        <time>2021-05-20T07:12:25Z</time>
      </trkpt>
      <trkpt lat="42.1678390" lon="-8.7998400">
        <ele>142.4</ele>
        <time>2021-05-20T07:12:26Z</time>
      </trkpt>
      <trkpt lat="42.1678480" lon="-8.7998350">
        <ele>142.5</ele>
        <time>2021-05-20T07:12:27Z</time>
      </trkpt>
      <trkpt lat="42.1678540" lon="-8.7998300">
        <ele>142.6</ele>
        <time>2021-05-20T07:12:28Z</time>
      </trkpt>
      <trkpt lat="42.1678620" lon="-8.7998210">
        <ele>142.8</ele>
        <time>2021-05-20T07:12:29Z</time>
      </trkpt>
      <trkpt lat="42.1678750" lon="-8.7998170">
        <ele>143.0</ele>
        <time>2021-05-20T07:12:30Z</time>
      </trkpt>
      <trkpt lat="42.1678900" lon="-8.7998140">
        <ele>143.3</ele>
        <time>2021-05-20T07:12:31Z</time>
      </trkpt>
      <trkpt lat="42.1679010" lon="-8.7998070">
        <ele>143.5</ele>
        <time>2021-05-20T07:12:32Z</time>
      </trkpt>
      <trkpt lat="42.1679090" lon="-8.7998030">
        <ele>143.6</ele>
        <time>2021-05-20T07:12:33Z</time>
      </trkpt>
      <trkpt lat="42.1679190" lon="-8.7997990">
        <ele>143.7</ele>
        <time>2021-05-20T07:12:34Z</time>
      </trkpt>
      <trkpt lat="42.1679290" lon="-8.7997980">
        <ele>143.9</ele>
        <time>2021-05-20T07:12:35Z</time>
      </trkpt>
      <trkpt lat="42.1679380" lon="-8.7997890">
        <ele>144.1</ele>
        <time>2021-05-20T07:12:36Z</time>
      </trkpt>
      <trkpt lat="42.1679460" lon="-8.7997790">
        <ele>144.2</ele>
        <time>2021-05-20T07:12:37Z</time>
      </trkpt>
      <trkpt lat="42.1679550" lon="-8.7997780">
        <ele>144.4</ele>
        <time>2021-05-20T07:12:38Z</time>
      </trkpt>
      <trkpt lat="42.1679600" lon="-8.7997710">
        <ele>144.5</ele>
        <time>2021-05-20T07:12:39Z</time>
      </trkpt>
      <trkpt lat="42.1679650" lon="-8.7997630">
        <ele>144.6</ele>
        <time>2021-05-20T07:12:40Z</time>
      </trkpt>
      <trkpt lat="42.1679720" lon="-8.7997530">
        <ele>144.7</ele>
        <time>2021-05-20T07:12:41Z</time>
      </trkpt>
      <trkpt lat="42.1679740" lon="-8.7997410">
        <ele>144.8</ele>
        <time>2021-05-20T07:12:42Z</time>
      </trkpt>
      <trkpt lat="42.1679890" lon="-8.7997410">
        <ele>145.0</ele>
        <time>2021-05-20T07:12:43Z</time>
      </trkpt>
      <trkpt lat="42.1680050" lon="-8.7997320">
        <ele>145.3</ele>
        <time>2021-05-20T07:12:44Z</time>
      </trkpt>
      <trkpt lat="42.1680180" lon="-8.7997340">
        <ele>145.4</ele>
        <time>2021-05-20T07:12:45Z</time>
      </trkpt>
      <trkpt lat="42.1680310" lon="-8.7997350">
        <ele>145.6</ele>
        <time>2021-05-20T07:12:46Z</time>
      </trkpt>
      <trkpt lat="42.1680400" lon="-8.7997380">
        <ele>145.7</ele>
        <time>2021-05-20T07:12:47Z</time>
      </trkpt>
      <trkpt lat="42.1680700" lon="-8.7997250">
        <ele>146.0</ele>
        <time>2021-05-20T07:12:48Z</time>
      </trkpt>
      <trkpt lat="42.1680760" lon="-8.7997190">
        <ele>146.1</ele>
        <time>2021-05-20T07:12:49Z</time>
      </trkpt>
      <trkpt lat="42.1681010" lon="-8.7997240">
        <ele>146.3</ele>
        <time>2021-05-20T07:12:50Z</time>
      </trkpt>
      <trkpt lat="42.1681090" lon="-8.7997260">
        <ele>146.4</ele>
        <time>2021-05-20T07:12:51Z</time>
      </trkpt>
      <trkpt lat="42.1681180" lon="-8.7997280">
        <ele>146.4</ele>
        <time>2021-05-20T07:12:52Z</time>
      </trkpt>
      <trkpt lat="42.1681420" lon="-8.7997250">
        <ele>146.6</ele>
        <time>2021-05-20T07:12:53Z</time>
      </trkpt>
      <trkpt lat="42.1681490" lon="-8.7997220">
        <ele>146.7</ele>
        <time>2021-05-20T07:12:54Z</time>
      </trkpt>
      <trkpt lat="42.1681570" lon="-8.7997180">
        <ele>146.7</ele>
        <time>2021-05-20T07:12:55Z</time>
      </trkpt>
      <trkpt lat="42.1681620" lon="-8.7997300">
        <ele>146.8</ele>
        <time>2021-05-20T07:12:56Z</time>
      </trkpt>
      <trkpt lat="42.1681750" lon="-8.7997300">
        <ele>146.9</ele>
        <time>2021-05-20T07:12:57Z</time>
      </trkpt>
      <trkpt lat="42.1681930" lon="-8.7997260">
        <ele>147.0</ele>
        <time>2021-05-20T07:12:58Z</time>
      </trkpt>
      <trkpt lat="42.1682170" lon="-8.7997310">
        <ele>147.2</ele>
        <time>2021-05-20T07:12:59Z</time>
      </trkpt>
      <trkpt lat="42.1682260" lon="-8.7997300">
        <ele>147.2</ele>
        <time>2021-05-20T07:13:00Z</time>
      </trkpt>
      <trkpt lat="42.1682340" lon="-8.7997290">
        <ele>147.3</ele>
        <time>2021-05-20T07:13:01Z</time>
      </trkpt>
      <trkpt lat="42.1682390" lon="-8.7997210">
        <ele>147.3</ele>
        <time>2021-05-20T07:13:02Z</time>
      </trkpt>
      <trkpt lat="42.1682480" lon="-8.7997090">
        <ele>147.4</ele>
        <time>2021-05-20T07:13:03Z</time>
      </trkpt>
      <trkpt lat="42.1682500" lon="-8.7996980">
        <ele>147.5</ele>
        <time>2021-05-20T07:13:04Z</time>
      </trkpt>
      <trkpt lat="42.1682560" lon="-8.7996960">
        <ele>147.7</ele>
        <time>2021-05-20T07:13:05Z</time>
      </trkpt>
      <trkpt lat="42.1682500" lon="-8.7996970">
        <ele>147.8</ele>
        <time>2021-05-20T07:13:06Z</time>
      </trkpt>
      <trkpt lat="42.1682430" lon="-8.7996980">
        <ele>147.9</ele>
        <time>2021-05-20T07:13:07Z</time>
      </trkpt>
      <trkpt lat="42.1682470" lon="-8.7996940">
        <ele>148.0</ele>
        <time>2021-05-20T07:13:08Z</time>
      </trkpt>
      <trkpt lat="42.1682480" lon="-8.7996670">
        <ele>148.3</ele>
        <time>2021-05-20T07:13:09Z</time>
      </trkpt>
      <trkpt lat="42.1682520" lon="-8.7996510">
        <ele>148.6</ele>
        <time>2021-05-20T07:13:10Z</time>
      </trkpt>
      <trkpt lat="42.1682510" lon="-8.7996450">
        <ele>148.7</ele>
        <time>2021-05-20T07:13:11Z</time>
      </trkpt>
      <trkpt lat="42.1682520" lon="-8.7996420">
        <ele>148.7</ele>
        <time>2021-05-20T07:13:12Z</time>
      </trkpt>
      <trkpt lat="42.1682570" lon="-8.7996340">
        <ele>148.9</ele>
        <time>2021-05-20T07:13:13Z</time>
      </trkpt>
      <trkpt lat="42.1682550" lon="-8.7996190">
        <ele>149.1</ele>
        <time>2021-05-20T07:13:14Z</time>
      </trkpt>
      <trkpt lat="42.1682550" lon="-8.7996090">
        <ele>149.2</ele>
        <time>2021-05-20T07:13:15Z</time>
      </trkpt>
      <trkpt lat="42.1682620" lon="-8.7996040">
        <ele>149.4</ele>
        <time>2021-05-20T07:13:16Z</time>
      </trkpt>
      <trkpt lat="42.1682570" lon="-8.7995920">
        <ele>149.6</ele>
        <time>2021-05-20T07:13:17Z</time>
      </trkpt>
      <trkpt lat="42.1682590" lon="-8.7995810">
        <ele>149.8</ele>
        <time>2021-05-20T07:13:18Z</time>
      </trkpt>
      <trkpt lat="42.1682590" lon="-8.7995740">
        <ele>149.9</ele>
        <time>2021-05-20T07:13:19Z</time>
      </trkpt>
      <trkpt lat="42.1682510" lon="-8.7995680">
        <ele>150.1</ele>
        <time>2021-05-20T07:13:20Z</time>
      </trkpt>
      <trkpt lat="42.1682490" lon="-8.7995700">
        <ele>150.1</ele>
        <time>2021-05-20T07:13:21Z</time>
      </trkpt>
      <trkpt lat="42.1682440" lon="-8.7995630">
        <ele>150.3</ele>
        <time>2021-05-20T07:13:22Z</time>
      </trkpt>
      <trkpt lat="42.1682450" lon="-8.7995530">
        <ele>150.4</ele>
        <time>2021-05-20T07:13:23Z</time>
      </trkpt>
      <trkpt lat="42.1682430" lon="-8.7995410">
        <ele>150.7</ele>
        <time>2021-05-20T07:13:24Z</time>
      </trkpt>
      <trkpt lat="42.1682420" lon="-8.7995210">
        <ele>151.0</ele>
        <time>2021-05-20T07:13:25Z</time>
      </trkpt>
      <trkpt lat="42.1682360" lon="-8.7995170">
        <ele>151.1</ele>
        <time>2021-05-20T07:13:26Z</time>
      </trkpt>
      <trkpt lat="42.1682280" lon="-8.7995110">
        <ele>151.4</ele>
        <time>2021-05-20T07:13:27Z</time>
      </trkpt>
      <trkpt lat="42.1682280" lon="-8.7994990">
        <ele>151.6</ele>
        <time>2021-05-20T07:13:28Z</time>
      </trkpt>
      <trkpt lat="42.1682260" lon="-8.7994870">
        <ele>151.8</ele>
        <time>2021-05-20T07:13:29Z</time>
      </trkpt>
      <trkpt lat="42.1682220" lon="-8.7994730">
        <ele>152.1</ele>
        <time>2021-05-20T07:13:30Z</time>
      </trkpt>
      <trkpt lat="42.1682190" lon="-8.7994710">
        <ele>152.1</ele>
        <time>2021-05-20T07:13:31Z</time>
      </trkpt>
      <trkpt lat="42.1682150" lon="-8.7994600">
        <ele>152.4</ele>
        <time>2021-05-20T07:13:32Z</time>
      </trkpt>
      <trkpt lat="42.1682070" lon="-8.7994570">
        <ele>152.6</ele>
        <time>2021-05-20T07:13:33Z</time>
      </trkpt>
      <trkpt lat="42.1682010" lon="-8.7994610">
        <ele>152.7</ele>
        <time>2021-05-20T07:13:34Z</time>
      </trkpt>
      <trkpt lat="42.1681950" lon="-8.7994490">
        <ele>153.0</ele>
        <time>2021-05-20T07:13:35Z</time>
      </trkpt>
      <trkpt lat="42.1681940" lon="-8.7994330">
        <ele>153.3</ele>
        <time>2021-05-20T07:13:36Z</time>
      </trkpt>
      <trkpt lat="42.1681940" lon="-8.7994200">
        <ele>153.5</ele>
        <time>2021-05-20T07:13:37Z</time>
      </trkpt>
      <trkpt lat="42.1681930" lon="-8.7994120">
        <ele>153.7</ele>
        <time>2021-05-20T07:13:38Z</time>
      </trkpt>
      <trkpt lat="42.1681880" lon="-8.7994140">
        <ele>153.8</ele>
        <time>2021-05-20T07:13:39Z</time>
      </trkpt>
      <trkpt lat="42.1681820" lon="-8.7994110">
        <ele>153.9</ele>
        <time>2021-05-20T07:13:40Z</time>
      </trkpt>
      <trkpt lat="42.1681780" lon="-8.7993990">
        <ele>154.2</ele>
        <time>2021-05-20T07:13:41Z</time>
      </trkpt>
      <trkpt lat="42.1681730" lon="-8.7993890">
        <ele>154.4</ele>
        <time>2021-05-20T07:13:42Z</time>
      </trkpt>
      <trkpt lat="42.1681700" lon="-8.7993700">
        <ele>154.7</ele>
        <time>2021-05-20T07:13:43Z</time>
      </trkpt>
      <trkpt lat="42.1681680" lon="-8.7993550">
        <ele>155.0</ele>
        <time>2021-05-20T07:13:44Z</time>
      </trkpt>
      <trkpt lat="42.1681690" lon="-8.7993460">
        <ele>155.2</ele>
        <time>2021-05-20T07:13:45Z</time>
      </trkpt>
      <trkpt lat="42.1681680" lon="-8.7993300">
        <ele>155.4</ele>
        <time>2021-05-20T07:13:46Z</time>
      </trkpt>
      <trkpt lat="42.1681610" lon="-8.7993190">
        <ele>155.7</ele>
        <time>2021-05-20T07:13:47Z</time>
      </trkpt>
      <trkpt lat="42.1681590" lon="-8.7993020">
        <ele>156.0</ele>
        <time>2021-05-20T07:13:48Z</time>
      </trkpt>
      <trkpt lat="42.1681640" lon="-8.7992890">
        <ele>156.3</ele>
        <time>2021-05-20T07:13:49Z</time>
      </trkpt>
      <trkpt lat="42.1681690" lon="-8.7992820">
        <ele>156.4</ele>
        <time>2021-05-20T07:13:50Z</time>
      </trkpt>
      <trkpt lat="42.1681730" lon="-8.7992760">
        <ele>156.6</ele>
        <time>2021-05-20T07:13:51Z</time>
      </trkpt>
      <trkpt lat="42.1681780" lon="-8.7992690">
        <ele>156.7</ele>
        <time>2021-05-20T07:13:52Z</time>
      </trkpt>
      <trkpt lat="42.1681820" lon="-8.7992620">
        <ele>156.9</ele>
        <time>2021-05-20T07:13:53Z</time>
      </trkpt>
      <trkpt lat="42.1681840" lon="-8.7992560">
        <ele>157.0</ele>
        <time>2021-05-20T07:13:54Z</time>
      </trkpt>
      <trkpt lat="42.1681820" lon="-8.7992360">
        <ele>157.3</ele>
        <time>2021-05-20T07:13:55Z</time>
      </trkpt>
      <trkpt lat="42.1681830" lon="-8.7992260">
        <ele>157.5</ele>
        <time>2021-05-20T07:13:56Z</time>
      </trkpt>
      <trkpt lat="42.1681870" lon="-8.7992130">
        <ele>157.8</ele>
        <time>2021-05-20T07:13:57Z</time>
      </trkpt>
      <trkpt lat="42.1681920" lon="-8.7991990">
        <ele>158.0</ele>
        <time>2021-05-20T07:13:58Z</time>
      </trkpt>
      <trkpt lat="42.1681960" lon="-8.7991940">
        <ele>158.1</ele>
        <time>2021-05-20T07:13:59Z</time>
      </trkpt>
      <trkpt lat="42.1682000" lon="-8.7991960">
        <ele>158.2</ele>
        <time>2021-05-20T07:14:00Z</time>
      </trkpt>
      <trkpt lat="42.1682060" lon="-8.7991880">
        <ele>158.4</ele>
        <time>2021-05-20T07:14:01Z</time>
      </trkpt>
      <trkpt lat="42.1682050" lon="-8.7991750">
        <ele>158.6</ele>
        <time>2021-05-20T07:14:02Z</time>
      </trkpt>
      <trkpt lat="42.1682040" lon="-8.7991620">
        <ele>158.8</ele>
        <time>2021-05-20T07:14:03Z</time>
      </trkpt>
      <trkpt lat="42.1682070" lon="-8.7991520">
        <ele>159.0</ele>
        <time>2021-05-20T07:14:04Z</time>
      </trkpt>
      <trkpt lat="42.1682240" lon="-8.7991470">
        <ele>159.4</ele>
        <time>2021-05-20T07:14:05Z</time>
      </trkpt>
      <trkpt lat="42.1682350" lon="-8.7991430">
        <ele>159.6</ele>
        <time>2021-05-20T07:14:06Z</time>
      </trkpt>
      <trkpt lat="42.1682450" lon="-8.7991390">
        <ele>159.8</ele>
        <time>2021-05-20T07:14:07Z</time>
      </trkpt>
      <trkpt lat="42.1682460" lon="-8.7991370">
        <ele>159.8</ele>
        <time>2021-05-20T07:14:08Z</time>
      </trkpt>
      <trkpt lat="42.1682520" lon="-8.7991340">
        <ele>159.9</ele>
        <time>2021-05-20T07:14:09Z</time>
      </trkpt>
      <trkpt lat="42.1682730" lon="-8.7991260">
        <ele>160.3</ele>
        <time>2021-05-20T07:14:10Z</time>
      </trkpt>
      <trkpt lat="42.1682810" lon="-8.7991140">
        <ele>160.6</ele>
        <time>2021-05-20T07:14:11Z</time>
      </trkpt>
      <trkpt lat="42.1682900" lon="-8.7991090">
        <ele>160.7</ele>
        <time>2021-05-20T07:14:12Z</time>
      </trkpt>
      <trkpt lat="42.1683040" lon="-8.7991060">
        <ele>161.0</ele>
        <time>2021-05-20T07:14:13Z</time>
      </trkpt>
      <trkpt lat="42.1683230" lon="-8.7991060">
        <ele>161.3</ele>
        <time>2021-05-20T07:14:14Z</time>
      </trkpt>
      <trkpt lat="42.1683330" lon="-8.7991070">
        <ele>161.4</ele>
        <time>2021-05-20T07:14:15Z</time>
      </trkpt>
      <trkpt lat="42.1683420" lon="-8.7991070">
        <ele>161.5</ele>
        <time>2021-05-20T07:14:16Z</time>
      </trkpt>
      <trkpt lat="42.1683510" lon="-8.7991100">
        <ele>161.7</ele>
        <time>2021-05-20T07:14:17Z</time>
      </trkpt>
      <trkpt lat="42.1683630" lon="-8.7991070">
        <ele>161.8</ele>
        <time>2021-05-20T07:14:18Z</time>
      </trkpt>
      <trkpt lat="42.1683690" lon="-8.7991030">
        <ele>161.9</ele>
        <time>2021-05-20T07:14:19Z</time>
      </trkpt>
      <trkpt lat="42.1683790" lon="-8.7991040">
        <ele>162.1</ele>
        <time>2021-05-20T07:14:20Z</time>
      </trkpt>
      <trkpt lat="42.1683930" lon="-8.7991060">
        <ele>162.2</ele>
        <time>2021-05-20T07:14:21Z</time>
      </trkpt>
      <trkpt lat="42.1684030" lon="-8.7991040">
        <ele>162.4</ele>
        <time>2021-05-20T07:14:22Z</time>
      </trkpt>
      <trkpt lat="42.1684120" lon="-8.7990960">
        <ele>162.5</ele>
        <time>2021-05-20T07:14:23Z</time>
      </trkpt>
      <trkpt lat="42.1684260" lon="-8.7990880">
        <ele>162.7</ele>
        <time>2021-05-20T07:14:24Z</time>
      </trkpt>
      <trkpt lat="42.1684300" lon="-8.7990890">
        <ele>162.7</ele>
        <time>2021-05-20T07:14:25Z</time>
      </trkpt>
      <trkpt lat="42.1684420" lon="-8.7990880">
        <ele>162.9</ele>
        <time>2021-05-20T07:14:26Z</time>
      </trkpt>
      <trkpt lat="42.1684470" lon="-8.7990870">
        <ele>162.9</ele>
        <time>2021-05-20T07:14:27Z</time>
      </trkpt>
      <trkpt lat="42.1684570" lon="-8.7990870">
        <ele>163.0</ele>
        <time>2021-05-20T07:14:28Z</time>
      </trkpt>
      <trkpt lat="42.1684620" lon="-8.7990880">
        <ele>163.1</ele>
        <time>2021-05-20T07:14:29Z</time>
      </trkpt>
      <trkpt lat="42.1684570" lon="-8.7990940">
        <ele>163.1</ele>
        <time>2021-05-20T07:14:30Z</time>
      </trkpt>
      <trkpt lat="42.1684720" lon="-8.7991010">
        <ele>163.3</ele>
        <time>2021-05-20T07:14:31Z</time>
      </trkpt>
      <trkpt lat="42.1684910" lon="-8.7990950">
        <ele>163.5</ele>
        <time>2021-05-20T07:14:32Z</time>
      </trkpt>
      <trkpt lat="42.1684900" lon="-8.7990810">
        <ele>163.6</ele>
        <time>2021-05-20T07:14:33Z</time>
      </trkpt>
      <trkpt lat="42.1684880" lon="-8.7990800">
        <ele>163.6</ele>
        <time>2021-05-20T07:14:34Z</time>
      </trkpt>
      <trkpt lat="42.1684860" lon="-8.7990790">
        <ele>163.7</ele>
        <time>2021-05-20T07:14:35Z</time>
      </trkpt>
      <trkpt lat="42.1684920" lon="-8.7990770">
        <ele>163.7</ele>
        <time>2021-05-20T07:14:36Z</time>
      </trkpt>
      <trkpt lat="42.1684890" lon="-8.7990670">
        <ele>163.8</ele>
        <time>2021-05-20T07:14:37Z</time>
      </trkpt>
      <trkpt lat="42.1684870" lon="-8.7990650">
        <ele>163.8</ele>
        <time>2021-05-20T07:14:38Z</time>
      </trkpt>
      <trkpt lat="42.1684960" lon="-8.7990670">
        <ele>163.9</ele>
        <time>2021-05-20T07:14:39Z</time>
      </trkpt>
      <trkpt lat="42.1684970" lon="-8.7990590">
        <ele>164.0</ele>
        <time>2021-05-20T07:14:40Z</time>
      </trkpt>
      <trkpt lat="42.1685050" lon="-8.7990520">
        <ele>164.1</ele>
        <time>2021-05-20T07:14:41Z</time>
      </trkpt>
      <trkpt lat="42.1685090" lon="-8.7990510">
        <ele>164.1</ele>
        <time>2021-05-20T07:14:42Z</time>
      </trkpt>
      <trkpt lat="42.1685200" lon="-8.7990450">
        <ele>164.3</ele>
        <time>2021-05-20T07:14:43Z</time>
      </trkpt>
      <trkpt lat="42.1685280" lon="-8.7990430">
        <ele>164.3</ele>
        <time>2021-05-20T07:14:44Z</time>
      </trkpt>
      <trkpt lat="42.1685300" lon="-8.7990440">
        <ele>164.4</ele>
        <time>2021-05-20T07:14:45Z</time>
      </trkpt>
      <trkpt lat="42.1685410" lon="-8.7990380">
        <ele>164.5</ele>
        <time>2021-05-20T07:14:46Z</time>
      </trkpt>
      <trkpt lat="42.1685460" lon="-8.7990350">
        <ele>164.6</ele>
        <time>2021-05-20T07:14:47Z</time>
      </trkpt>
      <trkpt lat="42.1685570" lon="-8.7990340">
        <ele>164.7</ele>
        <time>2021-05-20T07:14:48Z</time>
      </trkpt>
      <trkpt lat="42.1685640" lon="-8.7990210">
        <ele>164.8</ele>
        <time>2021-05-20T07:14:49Z</time>
      </trkpt>
      <trkpt lat="42.1685700" lon="-8.7990130">
        <ele>164.9</ele>
        <time>2021-05-20T07:14:50Z</time>
      </trkpt>
      <trkpt lat="42.1685760" lon="-8.7990050">
        <ele>165.0</ele>
        <time>2021-05-20T07:14:51Z</time>
      </trkpt>
      <trkpt lat="42.1685880" lon="-8.7989960">
        <ele>165.1</ele>
        <time>2021-05-20T07:14:52Z</time>
      </trkpt>
      <trkpt lat="42.1685960" lon="-8.7989870">
        <ele>165.3</ele>
        <time>2021-05-20T07:14:53Z</time>
      </trkpt>
      <trkpt lat="42.1686090" lon="-8.7989850">
        <ele>165.4</ele>
        <time>2021-05-20T07:14:54Z</time>
      </trkpt>
      <trkpt lat="42.1686270" lon="-8.7989820">
        <ele>165.6</ele>
        <time>2021-05-20T07:14:55Z</time>
      </trkpt>
      <trkpt lat="42.1686330" lon="-8.7989780">
        <ele>165.7</ele>
        <time>2021-05-20T07:14:56Z</time>
      </trkpt>
      <trkpt lat="42.1686390" lon="-8.7989750">
        <ele>165.7</ele>
        <time>2021-05-20T07:14:57Z</time>
      </trkpt>
      <trkpt lat="42.1686450" lon="-8.7989710">
        <ele>165.8</ele>
        <time>2021-05-20T07:14:58Z</time>
      </trkpt>
      <trkpt lat="42.1686560" lon="-8.7989680">
        <ele>165.9</ele>
        <time>2021-05-20T07:14:59Z</time>
      </trkpt>
      <trkpt lat="42.1686650" lon="-8.7989620">
        <ele>166.0</ele>
        <time>2021-05-20T07:15:00Z</time>
      </trkpt>
      <trkpt lat="42.1686790" lon="-8.7989580">
        <ele>166.2</ele>
        <time>2021-05-20T07:15:01Z</time>
      </trkpt>
      <trkpt lat="42.1686840" lon="-8.7989610">
        <ele>166.2</ele>
        <time>2021-05-20T07:15:02Z</time>
      </trkpt>
      <trkpt lat="42.1686960" lon="-8.7989570">
        <ele>166.3</ele>
        <time>2021-05-20T07:15:03Z</time>
      </trkpt>
      <trkpt lat="42.1686990" lon="-8.7989510">
        <ele>166.4</ele>
        <time>2021-05-20T07:15:04Z</time>
      </trkpt>
      <trkpt lat="42.1687080" lon="-8.7989440">
        <ele>166.5</ele>
        <time>2021-05-20T07:15:05Z</time>
      </trkpt>
      <trkpt lat="42.1687250" lon="-8.7989330">
        <ele>166.7</ele>
        <time>2021-05-20T07:15:06Z</time>
      </trkpt>
      <trkpt lat="42.1687340" lon="-8.7989290">
        <ele>166.8</ele>
        <time>2021-05-20T07:15:07Z</time>
      </trkpt>
      <trkpt lat="42.1687420" lon="-8.7989260">
        <ele>166.9</ele>
        <time>2021-05-20T07:15:08Z</time>
      </trkpt>
      <trkpt lat="42.1687560" lon="-8.7989200">
        <ele>167.1</ele>
        <time>2021-05-20T07:15:09Z</time>
      </trkpt>
      <trkpt lat="42.1687610" lon="-8.7989100">
        <ele>167.2</ele>
        <time>2021-05-20T07:15:10Z</time>
      </trkpt>
      <trkpt lat="42.1687690" lon="-8.7989040">
        <ele>167.2</ele>
        <time>2021-05-20T07:15:11Z</time>
      </trkpt>
      <trkpt lat="42.1687760" lon="-8.7988950">
        <ele>167.4</ele>
        <time>2021-05-20T07:15:12Z</time>
      </trkpt>
      <trkpt lat="42.1687930" lon="-8.7988900">
        <ele>167.5</ele>
        <time>2021-05-20T07:15:13Z</time>
      </trkpt>
      <trkpt lat="42.1688020" lon="-8.7988850">
        <ele>167.6</ele>
        <time>2021-05-20T07:15:14Z</time>
      </trkpt>
      <trkpt lat="42.1688200" lon="-8.7988700">
        <ele>167.9</ele>
        <time>2021-05-20T07:15:15Z</time>
      </trkpt>
      <trkpt lat="42.1688260" lon="-8.7988620">
        <ele>168.0</ele>
        <time>2021-05-20T07:15:16Z</time>
      </trkpt>
      <trkpt lat="42.1688330" lon="-8.7988550">
        <ele>168.0</ele>
        <time>2021-05-20T07:15:17Z</time>
      </trkpt>
      <trkpt lat="42.1688450" lon="-8.7988490">
        <ele>168.2</ele>
        <time>2021-05-20T07:15:18Z</time>
      </trkpt>
      <trkpt lat="42.1688470" lon="-8.7988520">
        <ele>168.2</ele>
        <time>2021-05-20T07:15:19Z</time>
      </trkpt>
      <trkpt lat="42.1688600" lon="-8.7988420">
        <ele>168.4</ele>
        <time>2021-05-20T07:15:20Z</time>
      </trkpt>
      <trkpt lat="42.1688730" lon="-8.7988330">
        <ele>168.5</ele>
        <time>2021-05-20T07:15:21Z</time>
      </trkpt>
      <trkpt lat="42.1688870" lon="-8.7988240">
        <ele>168.7</ele>
        <time>2021-05-20T07:15:22Z</time>
      </trkpt>
      <trkpt lat="42.1689160" lon="-8.7988160">
        <ele>168.9</ele>
        <time>2021-05-20T07:15:23Z</time>
      </trkpt>
      <trkpt lat="42.1689240" lon="-8.7988120">
        <ele>169.0</ele>
        <time>2021-05-20T07:15:24Z</time>
      </trkpt>
      <trkpt lat="42.1689260" lon="-8.7988070">
        <ele>169.0</ele>
        <time>2021-05-20T07:15:25Z</time>
      </trkpt>
      <trkpt lat="42.1689330" lon="-8.7988020">
        <ele>169.1</ele>
        <time>2021-05-20T07:15:26Z</time>
      </trkpt>
      <trkpt lat="42.1689510" lon="-8.7987950">
        <ele>169.2</ele>
        <time>2021-05-20T07:15:27Z</time>
      </trkpt>
      <trkpt lat="42.1689550" lon="-8.7987890">
        <ele>169.3</ele>
        <time>2021-05-20T07:15:28Z</time>
      </trkpt>
      <trkpt lat="42.1689600" lon="-8.7987800">
        <ele>169.3</ele>
        <time>2021-05-20T07:15:29Z</time>
      </trkpt>
      <trkpt lat="42.1689700" lon="-8.7987710">
        <ele>169.4</ele>
        <time>2021-05-20T07:15:30Z</time>
      </trkpt>
      <trkpt lat="42.1689670" lon="-8.7987520">
        <ele>169.5</ele>
        <time>2021-05-20T07:15:31Z</time>
      </trkpt>
      <trkpt lat="42.1689690" lon="-8.7987370">
        <ele>169.6</ele>
        <time>2021-05-20T07:15:32Z</time>
      </trkpt>
      <trkpt lat="42.1689810" lon="-8.7987370">
        <ele>169.7</ele>
        <time>2021-05-20T07:15:33Z</time>
      </trkpt>
      <trkpt lat="42.1689810" lon="-8.7987350">
        <ele>169.7</ele>
        <time>2021-05-20T07:15:34Z</time>
      </trkpt>
      <trkpt lat="42.1689890" lon="-8.7987170">
        <ele>169.8</ele>
        <time>2021-05-20T07:15:35Z</time>
      </trkpt>
      <trkpt lat="42.1689930" lon="-8.7986990">
        <ele>169.8</ele>
        <time>2021-05-20T07:15:36Z</time>
      </trkpt>
      <trkpt lat="42.1690040" lon="-8.7986900">
        <ele>169.9</ele>
        <time>2021-05-20T07:15:37Z</time>
      </trkpt>
      <trkpt lat="42.1690090" lon="-8.7986810">
        <ele>170.0</ele>
        <time>2021-05-20T07:15:38Z</time>
      </trkpt>
      <trkpt lat="42.1690110" lon="-8.7986760">
        <ele>170.0</ele>
        <time>2021-05-20T07:15:39Z</time>
      </trkpt>
      <trkpt lat="42.1690190" lon="-8.7986650">
        <ele>170.1</ele>
        <time>2021-05-20T07:15:40Z</time>
      </trkpt>
      <trkpt lat="42.1690300" lon="-8.7986550">
        <ele>170.2</ele>
        <time>2021-05-20T07:15:41Z</time>
      </trkpt>
      <trkpt lat="42.1690350" lon="-8.7986420">
        <ele>170.3</ele>
        <time>2021-05-20T07:15:42Z</time>
      </trkpt>
      <trkpt lat="42.1690380" lon="-8.7986270">
        <ele>170.3</ele>
        <time>2021-05-20T07:15:43Z</time>
      </trkpt>
      <trkpt lat="42.1690370" lon="-8.7986170">
        <ele>170.4</ele>
        <time>2021-05-20T07:15:44Z</time>
      </trkpt>
      <trkpt lat="42.1690430" lon="-8.7986070">
        <ele>170.5</ele>
        <time>2021-05-20T07:15:45Z</time>
      </trkpt>
      <trkpt lat="42.1690460" lon="-8.7986030">
        <ele>170.5</ele>
        <time>2021-05-20T07:15:46Z</time>
      </trkpt>
      <trkpt lat="42.1690560" lon="-8.7985820">
        <ele>170.7</ele>
        <time>2021-05-20T07:15:47Z</time>
      </trkpt>
      <trkpt lat="42.1690660" lon="-8.7985800">
        <ele>170.8</ele>
        <time>2021-05-20T07:15:48Z</time>
      </trkpt>
      <trkpt lat="42.1690690" lon="-8.7985730">
        <ele>170.8</ele>
        <time>2021-05-20T07:15:49Z</time>
      </trkpt>
      <trkpt lat="42.1690800" lon="-8.7985610">
        <ele>170.9</ele>
        <time>2021-05-20T07:15:50Z</time>
      </trkpt>
      <trkpt lat="42.1690800" lon="-8.7985510">
        <ele>171.0</ele>
        <time>2021-05-20T07:15:51Z</time>
      </trkpt>
      <trkpt lat="42.1690850" lon="-8.7985430">
        <ele>171.1</ele>
        <time>2021-05-20T07:15:52Z</time>
      </trkpt>
      <trkpt lat="42.1690840" lon="-8.7985320">
        <ele>171.2</ele>
        <time>2021-05-20T07:15:53Z</time>
      </trkpt>
      <trkpt lat="42.1690840" lon="-8.7985250">
        <ele>171.2</ele>
        <time>2021-05-20T07:15:54Z</time>
      </trkpt>
      <trkpt lat="42.1690880" lon="-8.7985140">
        <ele>171.3</ele>
        <time>2021-05-20T07:15:55Z</time>
      </trkpt>
      <trkpt lat="42.1690940" lon="-8.7984990">
        <ele>171.5</ele>
        <time>2021-05-20T07:15:56Z</time>
      </trkpt>
      <trkpt lat="42.1691000" lon="-8.7984960">
        <ele>171.6</ele>
        <time>2021-05-20T07:15:57Z</time>
      </trkpt>
      <trkpt lat="42.1691060" lon="-8.7984860">
        <ele>171.7</ele>
        <time>2021-05-20T07:15:58Z</time>
      </trkpt>
      <trkpt lat="42.1691110" lon="-8.7984730">
        <ele>171.8</ele>
        <time>2021-05-20T07:15:59Z</time>
      </trkpt>
      <trkpt lat="42.1691130" lon="-8.7984620">
        <ele>171.9</ele>
        <time>2021-05-20T07:16:00Z</time>
      </trkpt>
      <trkpt lat="42.1691150" lon="-8.7984440">
        <ele>172.1</ele>
        <time>2021-05-20T07:16:01Z</time>
      </trkpt>
      <trkpt lat="42.1691170" lon="-8.7984360">
        <ele>172.2</ele>
        <time>2021-05-20T07:16:02Z</time>
      </trkpt>
      <trkpt lat="42.1691180" lon="-8.7984280">
        <ele>172.2</ele>
        <time>2021-05-20T07:16:03Z</time>
      </trkpt>
      <trkpt lat="42.1691200" lon="-8.7984200">
        <ele>172.3</ele>
        <time>2021-05-20T07:16:04Z</time>
      </trkpt>
      <trkpt lat="42.1691220" lon="-8.7984120">
        <ele>172.4</ele>
        <time>2021-05-20T07:16:05Z</time>
      </trkpt>
      <trkpt lat="42.1691200" lon="-8.7983960">
        <ele>172.6</ele>
        <time>2021-05-20T07:16:06Z</time>
      </trkpt>
      <trkpt lat="42.1691190" lon="-8.7983970">
        <ele>172.6</ele>
        <time>2021-05-20T07:16:07Z</time>
      </trkpt>
      <trkpt lat="42.1691140" lon="-8.7983950">
        <ele>172.7</ele>
        <time>2021-05-20T07:16:08Z</time>
      </trkpt>
      <trkpt lat="42.1691190" lon="-8.7983960">
        <ele>172.8</ele>
        <time>2021-05-20T07:16:09Z</time>
      </trkpt>
      <trkpt lat="42.1691160" lon="-8.7984070">
        <ele>172.9</ele>
        <time>2021-05-20T07:16:10Z</time>
      </trkpt>
      <trkpt lat="42.1691100" lon="-8.7984150">
        <ele>173.0</ele>
        <time>2021-05-20T07:16:11Z</time>
      </trkpt>
      <trkpt lat="42.1691070" lon="-8.7984220">
        <ele>173.1</ele>
        <time>2021-05-20T07:16:12Z</time>
      </trkpt>
      <trkpt lat="42.1691010" lon="-8.7984300">
        <ele>173.2</ele>
        <time>2021-05-20T07:16:13Z</time>
      </trkpt>
      <trkpt lat="42.1691010" lon="-8.7984400">
        <ele>173.3</ele>
        <time>2021-05-20T07:16:14Z</time>
      </trkpt>
      <trkpt lat="42.1690990" lon="-8.7984500">
        <ele>173.5</ele>
        <time>2021-05-20T07:16:15Z</time>
      </trkpt>
      <trkpt lat="42.1690980" lon="-8.7984530">
        <ele>173.5</ele>
        <time>2021-05-20T07:16:16Z</time>
      </trkpt>
      <trkpt lat="42.1690970" lon="-8.7984460">
        <ele>173.6</ele>
        <time>2021-05-20T07:16:17Z</time>
      </trkpt>
      <trkpt lat="42.1690970" lon="-8.7984390">
        <ele>173.7</ele>
        <time>2021-05-20T07:16:18Z</time>
      </trkpt>
      <trkpt lat="42.1690970" lon="-8.7984160">
        <ele>173.9</ele>
        <time>2021-05-20T07:16:19Z</time>
      </trkpt>
      <trkpt lat="42.1690970" lon="-8.7984040">
        <ele>174.0</ele>
        <time>2021-05-20T07:16:20Z</time>
      </trkpt>
      <trkpt lat="42.1690960" lon="-8.7983950">
        <ele>174.1</ele>
        <time>2021-05-20T07:16:21Z</time>
      </trkpt>
      <trkpt lat="42.1690930" lon="-8.7983810">
        <ele>174.3</ele>
        <time>2021-05-20T07:16:22Z</time>
      </trkpt>
      <trkpt lat="42.1690970" lon="-8.7983640">
        <ele>174.5</ele>
        <time>2021-05-20T07:16:23Z</time>
      </trkpt>
      <trkpt lat="42.1690960" lon="-8.7983480">
        <ele>174.7</ele>
        <time>2021-05-20T07:16:24Z</time>
      </trkpt>
      <trkpt lat="42.1690860" lon="-8.7983350">
        <ele>174.9</ele>
        <time>2021-05-20T07:16:25Z</time>
      </trkpt>
      <trkpt lat="42.1690780" lon="-8.7983280">
        <ele>175.0</ele>
        <time>2021-05-20T07:16:26Z</time>
      </trkpt>
      <trkpt lat="42.1690710" lon="-8.7983220">
        <ele>175.2</ele>
        <time>2021-05-20T07:16:27Z</time>
      </trkpt>
      <trkpt lat="42.1690630" lon="-8.7983150">
        <ele>175.3</ele>
        <time>2021-05-20T07:16:28Z</time>
      </trkpt>
      <trkpt lat="42.1690570" lon="-8.7983070">
        <ele>175.4</ele>
        <time>2021-05-20T07:16:29Z</time>
      </trkpt>
      <trkpt lat="42.1690490" lon="-8.7983000">
        <ele>175.6</ele>
        <time>2021-05-20T07:16:30Z</time>
      </trkpt>
      <trkpt lat="42.1690380" lon="-8.7982970">
        <ele>175.7</ele>
        <time>2021-05-20T07:16:31Z</time>
      </trkpt>
      <trkpt lat="42.1690180" lon="-8.7982940">
        <ele>176.0</ele>
        <time>2021-05-20T07:16:32Z</time>
      </trkpt>
      <trkpt lat="42.1690100" lon="-8.7982940">
        <ele>176.2</ele>
        <time>2021-05-20T07:16:33Z</time>
      </trkpt>
      <trkpt lat="42.1689930" lon="-8.7982940">
        <ele>176.5</ele>
        <time>2021-05-20T07:16:34Z</time>
      </trkpt>
      <trkpt lat="42.1689870" lon="-8.7982920">
        <ele>176.6</ele>
        <time>2021-05-20T07:16:35Z</time>
      </trkpt>
      <trkpt lat="42.1689800" lon="-8.7982900">
        <ele>176.7</ele>
        <time>2021-05-20T07:16:36Z</time>
      </trkpt>
      <trkpt lat="42.1689730" lon="-8.7982880">
        <ele>176.8</ele>
        <time>2021-05-20T07:16:37Z</time>
      </trkpt>
      <trkpt lat="42.1689620" lon="-8.7982890">
        <ele>177.0</ele>
        <time>2021-05-20T07:16:38Z</time>
      </trkpt>
      <trkpt lat="42.1689550" lon="-8.7982860">
        <ele>177.1</ele>
        <time>2021-05-20T07:16:39Z</time>
      </trkpt>
      <trkpt lat="42.1689560" lon="-8.7982850">
        <ele>177.1</ele>
        <time>2021-05-20T07:16:40Z</time>
      </trkpt>
      <trkpt lat="42.1689550" lon="-8.7982830">
        <ele>177.2</ele>
        <time>2021-05-20T07:16:41Z</time>
      </trkpt>
      <trkpt lat="42.1689590" lon="-8.7982890">
        <ele>177.3</ele>
        <time>2021-05-20T07:16:42Z</time>
      </trkpt>
      <trkpt lat="42.1689560" lon="-8.7982940">
        <ele>177.4</ele>
        <time>2021-05-20T07:16:43Z</time>
      </trkpt>
      <trkpt lat="42.1689520" lon="-8.7982970">
        <ele>177.4</ele>
        <time>2021-05-20T07:16:44Z</time>
      </trkpt>
      <trkpt lat="42.1689490" lon="-8.7982980">
        <ele>177.5</ele>
        <time>2021-05-20T07:16:45Z</time>
      </trkpt>
      <trkpt lat="42.1689470" lon="-8.7982980">
        <ele>177.5</ele>
        <time>2021-05-20T07:16:46Z</time>
      </trkpt>
      <trkpt lat="42.1689460" lon="-8.7982990">
        <ele>177.6</ele>
        <time>2021-05-20T07:16:47Z</time>
      </trkpt>
      <trkpt lat="42.1689430" lon="-8.7983020">
        <ele>177.6</ele>
        <time>2021-05-20T07:16:48Z</time>
      </trkpt>
      <trkpt lat="42.1689460" lon="-8.7983020">
        <ele>177.7</ele>
        <time>2021-05-20T07:16:49Z</time>
      </trkpt>
      <trkpt lat="42.1689320" lon="-8.7983010">
        <ele>177.9</ele>
        <time>2021-05-20T07:16:50Z</time>
      </trkpt>
      <trkpt lat="42.1689150" lon="-8.7982980">
        <ele>178.3</ele>
        <time>2021-05-20T07:16:51Z</time>
      </trkpt>
      <trkpt lat="42.1689080" lon="-8.7982950">
        <ele>178.4</ele>
        <time>2021-05-20T07:16:52Z</time>
      </trkpt>
      <trkpt lat="42.1689070" lon="-8.7982840">
        <ele>178.6</ele>
        <time>2021-05-20T07:16:53Z</time>
      </trkpt>
      <trkpt lat="42.1689020" lon="-8.7982750">
        <ele>178.7</ele>
        <time>2021-05-20T07:16:54Z</time>
      </trkpt>
      <trkpt lat="42.1688920" lon="-8.7982620">
        <ele>179.0</ele>
        <time>2021-05-20T07:16:55Z</time>
      </trkpt>
      <trkpt lat="42.1688830" lon="-8.7982510">
        <ele>179.3</ele>
        <time>2021-05-20T07:16:56Z</time>
      </trkpt>
      <trkpt lat="42.1688780" lon="-8.7982430">
        <ele>179.4</ele>
        <time>2021-05-20T07:16:57Z</time>
      </trkpt>
      <trkpt lat="42.1688760" lon="-8.7982330">
        <ele>179.6</ele>
        <time>2021-05-20T07:16:58Z</time>
      </trkpt>
      <trkpt lat="42.1688750" lon="-8.7982190">
        <ele>179.8</ele>
        <time>2021-05-20T07:16:59Z</time>
      </trkpt>
      <trkpt lat="42.1688680" lon="-8.7982110">
        <ele>180.0</ele>
        <time>2021-05-20T07:17:00Z</time>
      </trkpt>
      <trkpt lat="42.1688610" lon="-8.7982060">
        <ele>180.2</ele>
        <time>2021-05-20T07:17:01Z</time>
      </trkpt>
      <trkpt lat="42.1688550" lon="-8.7981960">
        <ele>180.4</ele>
        <time>2021-05-20T07:17:02Z</time>
      </trkpt>
      <trkpt lat="42.1688540" lon="-8.7981880">
        <ele>180.5</ele>
        <time>2021-05-20T07:17:03Z</time>
      </trkpt>
      <trkpt lat="42.1688510" lon="-8.7981770">
        <ele>180.7</ele>
        <time>2021-05-20T07:17:04Z</time>
      </trkpt>
      <trkpt lat="42.1688450" lon="-8.7981690">
        <ele>180.8</ele>
        <time>2021-05-20T07:17:05Z</time>
      </trkpt>
      <trkpt lat="42.1688400" lon="-8.7981500">
        <ele>181.2</ele>
        <time>2021-05-20T07:17:06Z</time>
      </trkpt>
      <trkpt lat="42.1688380" lon="-8.7981350">
        <ele>181.4</ele>
        <time>2021-05-20T07:17:07Z</time>
      </trkpt>
      <trkpt lat="42.1688360" lon="-8.7981160">
        <ele>181.7</ele>
        <time>2021-05-20T07:17:08Z</time>
      </trkpt>
      <trkpt lat="42.1688380" lon="-8.7981030">
        <ele>181.9</ele>
        <time>2021-05-20T07:17:09Z</time>
      </trkpt>
      <trkpt lat="42.1688300" lon="-8.7980930">
        <ele>182.1</ele>
        <time>2021-05-20T07:17:10Z</time>
      </trkpt>
      <trkpt lat="42.1688260" lon="-8.7980850">
        <ele>182.3</ele>
        <time>2021-05-20T07:17:11Z</time>
      </trkpt>
      <trkpt lat="42.1688200" lon="-8.7980770">
        <ele>182.4</ele>
        <time>2021-05-20T07:17:12Z</time>
      </trkpt>
      <trkpt lat="42.1688190" lon="-8.7980710">
        <ele>182.5</ele>
        <time>2021-05-20T07:17:13Z</time>
      </trkpt>
      <trkpt lat="42.1688180" lon="-8.7980570">
        <ele>182.7</ele>
        <time>2021-05-20T07:17:14Z</time>
      </trkpt>
      <trkpt lat="42.1688200" lon="-8.7980450">
        <ele>182.9</ele>
        <time>2021-05-20T07:17:15Z</time>
      </trkpt>
      <trkpt lat="42.1688130" lon="-8.7980340">
        <ele>183.1</ele>
        <time>2021-05-20T07:17:16Z</time>
      </trkpt>
      <trkpt lat="42.1688140" lon="-8.7980220">
        <ele>183.3</ele>
        <time>2021-05-20T07:17:17Z</time>
      </trkpt>
      <trkpt lat="42.1688110" lon="-8.7980110">
        <ele>183.4</ele>
        <time>2021-05-20T07:17:18Z</time>
      </trkpt>
      <trkpt lat="42.1688100" lon="-8.7979950">
        <ele>183.7</ele>
        <time>2021-05-20T07:17:19Z</time>
      </trkpt>
      <trkpt lat="42.1688030" lon="-8.7979870">
        <ele>183.9</ele>
        <time>2021-05-20T07:17:20Z</time>
      </trkpt>
      <trkpt lat="42.1688030" lon="-8.7979840">
        <ele>183.9</ele>
        <time>2021-05-20T07:17:21Z</time>
      </trkpt>
      <trkpt lat="42.1688040" lon="-8.7979840">
        <ele>183.9</ele>
        <time>2021-05-20T07:17:22Z</time>
      </trkpt>
      <trkpt lat="42.1688070" lon="-8.7979820">
        <ele>184.0</ele>
        <time>2021-05-20T07:17:23Z</time>
      </trkpt>
      <trkpt lat="42.1688090" lon="-8.7979750">
        <ele>184.1</ele>
        <time>2021-05-20T07:17:24Z</time>
      </trkpt>
      <trkpt lat="42.1688130" lon="-8.7979580">
        <ele>184.3</ele>
        <time>2021-05-20T07:17:25Z</time>
      </trkpt>
      <trkpt lat="42.1688040" lon="-8.7979540">
        <ele>184.5</ele>
        <time>2021-05-20T07:17:26Z</time>
      </trkpt>
      <trkpt lat="42.1687970" lon="-8.7979290">
        <ele>184.8</ele>
        <time>2021-05-20T07:17:27Z</time>
      </trkpt>
      <trkpt lat="42.1687950" lon="-8.7979210">
        <ele>184.9</ele>
        <time>2021-05-20T07:17:28Z</time>
      </trkpt>
      <trkpt lat="42.1687940" lon="-8.7979120">
        <ele>185.1</ele>
        <time>2021-05-20T07:17:29Z</time>
      </trkpt>
      <trkpt lat="42.1687920" lon="-8.7979040">
        <ele>185.2</ele>
        <time>2021-05-20T07:17:30Z</time>
      </trkpt>
      <trkpt lat="42.1687880" lon="-8.7979000">
        <ele>185.3</ele>
        <time>2021-05-20T07:17:31Z</time>
      </trkpt>
      <trkpt lat="42.1687870" lon="-8.7978890">
        <ele>185.4</ele>
        <time>2021-05-20T07:17:32Z</time>
      </trkpt>
      <trkpt lat="42.1687900" lon="-8.7978790">
        <ele>185.5</ele>
        <time>2021-05-20T07:17:33Z</time>
      </trkpt>
      <trkpt lat="42.1687880" lon="-8.7978760">
        <ele>185.6</ele>
        <time>2021-05-20T07:17:34Z</time>
      </trkpt>
      <trkpt lat="42.1687840" lon="-8.7978750">
        <ele>185.7</ele>
        <time>2021-05-20T07:17:35Z</time>
      </trkpt>
      <trkpt lat="42.1687810" lon="-8.7978700">
        <ele>185.8</ele>
        <time>2021-05-20T07:17:36Z</time>
      </trkpt>
      <trkpt lat="42.1687750" lon="-8.7978530">
        <ele>186.0</ele>
        <time>2021-05-20T07:17:37Z</time>
      </trkpt>
      <trkpt lat="42.1687700" lon="-8.7978450">
        <ele>186.1</ele>
        <time>2021-05-20T07:17:38Z</time>
      </trkpt>
      <trkpt lat="42.1687690" lon="-8.7978360">
        <ele>186.3</ele>
        <time>2021-05-20T07:17:39Z</time>
      </trkpt>
      <trkpt lat="42.1687660" lon="-8.7978240">
        <ele>186.4</ele>
        <time>2021-05-20T07:17:40Z</time>
      </trkpt>
      <trkpt lat="42.1687590" lon="-8.7978190">
        <ele>186.6</ele>
        <time>2021-05-20T07:17:41Z</time>
      </trkpt>
      <trkpt lat="42.1687540" lon="-8.7978060">
        <ele>186.8</ele>
        <time>2021-05-20T07:17:42Z</time>
      </trkpt>
      <trkpt lat="42.1687560" lon="-8.7977970">
        <ele>186.9</ele>
        <time>2021-05-20T07:17:43Z</time>
      </trkpt>
      <trkpt lat="42.1687520" lon="-8.7977860">
        <ele>187.0</ele>
        <time>2021-05-20T07:17:44Z</time>
      </trkpt>
      <trkpt lat="42.1687530" lon="-8.7977750">
        <ele>187.2</ele>
        <time>2021-05-20T07:17:45Z</time>
      </trkpt>
      <trkpt lat="42.1687550" lon="-8.7977610">
        <ele>187.4</ele>
        <time>2021-05-20T07:17:46Z</time>
      </trkpt>
      <trkpt lat="42.1687570" lon="-8.7977540">
        <ele>187.5</ele>
        <time>2021-05-20T07:17:47Z</time>
      </trkpt>
      <trkpt lat="42.1687650" lon="-8.7977430">
        <ele>187.7</ele>
        <time>2021-05-20T07:17:48Z</time>
      </trkpt>
      <trkpt lat="42.1687610" lon="-8.7977310">
        <ele>187.9</ele>
        <time>2021-05-20T07:17:49Z</time>
      </trkpt>
      <trkpt lat="42.1687600" lon="-8.7977280">
        <ele>187.9</ele>
        <time>2021-05-20T07:17:50Z</time>
      </trkpt>
      <trkpt lat="42.1687610" lon="-8.7977240">
        <ele>188.0</ele>
        <time>2021-05-20T07:17:51Z</time>
      </trkpt>
      <trkpt lat="42.1687590" lon="-8.7977100">
        <ele>188.2</ele>
        <time>2021-05-20T07:17:52Z</time>
      </trkpt>
      <trkpt lat="42.1687640" lon="-8.7977030">
        <ele>188.3</ele>
        <time>2021-05-20T07:17:53Z</time>
      </trkpt>
      <trkpt lat="42.1687610" lon="-8.7976870">
        <ele>188.5</ele>
        <time>2021-05-20T07:17:54Z</time>
      </trkpt>
      <trkpt lat="42.1687580" lon="-8.7976670">
        <ele>188.8</ele>
        <time>2021-05-20T07:17:55Z</time>
      </trkpt>
      <trkpt lat="42.1687570" lon="-8.7976590">
        <ele>188.9</ele>
        <time>2021-05-20T07:17:56Z</time>
      </trkpt>
      <trkpt lat="42.1687570" lon="-8.7976500">
        <ele>189.1</ele>
        <time>2021-05-20T07:17:57Z</time>
      </trkpt>
      <trkpt lat="42.1687560" lon="-8.7976420">
        <ele>189.2</ele>
        <time>2021-05-20T07:17:58Z</time>
      </trkpt>
      <trkpt lat="42.1687550" lon="-8.7976340">
        <ele>189.3</ele>
        <time>2021-05-20T07:17:59Z</time>
      </trkpt>
      <trkpt lat="42.1687690" lon="-8.7976240">
        <ele>189.6</ele>
        <time>2021-05-20T07:18:00Z</time>
      </trkpt>
      <trkpt lat="42.1687790" lon="-8.7976080">
        <ele>189.9</ele>
        <time>2021-05-20T07:18:01Z</time>
      </trkpt>
      <trkpt lat="42.1687780" lon="-8.7975960">
        <ele>190.0</ele>
        <time>2021-05-20T07:18:02Z</time>
      </trkpt>
      <trkpt lat="42.1687730" lon="-8.7975800">
        <ele>190.3</ele>
        <time>2021-05-20T07:18:03Z</time>
      </trkpt>
      <trkpt lat="42.1687780" lon="-8.7975640">
        <ele>190.5</ele>
        <time>2021-05-20T07:18:04Z</time>
      </trkpt>
      <trkpt lat="42.1687770" lon="-8.7975470">
        <ele>190.7</ele>
        <time>2021-05-20T07:18:05Z</time>
      </trkpt>
      <trkpt lat="42.1687760" lon="-8.7975380">
        <ele>190.8</ele>
        <time>2021-05-20T07:18:06Z</time>
      </trkpt>
      <trkpt lat="42.1687800" lon="-8.7975350">
        <ele>190.9</ele>
        <time>2021-05-20T07:18:07Z</time>
      </trkpt>
      <trkpt lat="42.1687780" lon="-8.7975360">
        <ele>190.9</ele>
        <time>2021-05-20T07:18:08Z</time>
      </trkpt>
      <trkpt lat="42.1687750" lon="-8.7975340">
        <ele>191.0</ele>
        <time>2021-05-20T07:18:09Z</time>
      </trkpt>
      <trkpt lat="42.1687750" lon="-8.7975260">
        <ele>191.1</ele>
        <time>2021-05-20T07:18:10Z</time>
      </trkpt>
      <trkpt lat="42.1687760" lon="-8.7975220">
        <ele>191.2</ele>
        <time>2021-05-20T07:18:11Z</time>
      </trkpt>
      <trkpt lat="42.1687780" lon="-8.7975170">
        <ele>191.2</ele>
        <time>2021-05-20T07:18:12Z</time>
      </trkpt>
      <trkpt lat="42.1687810" lon="-8.7975150">
        <ele>191.3</ele>
        <time>2021-05-20T07:18:13Z</time>
      </trkpt>
      <trkpt lat="42.1687790" lon="-8.7975040">
        <ele>191.4</ele>
        <time>2021-05-20T07:18:14Z</time>
      </trkpt>
      <trkpt lat="42.1687780" lon="-8.7975050">
        <ele>191.5</ele>
        <time>2021-05-20T07:18:15Z</time>
      </trkpt>
      <trkpt lat="42.1687680" lon="-8.7974900">
        <ele>191.7</ele>
        <time>2021-05-20T07:18:16Z</time>
      </trkpt>
      <trkpt lat="42.1687720" lon="-8.7974810">
        <ele>191.8</ele>
        <time>2021-05-20T07:18:17Z</time>
      </trkpt>
      <trkpt lat="42.1687770" lon="-8.7974690">
        <ele>192.0</ele>
        <time>2021-05-20T07:18:18Z</time>
      </trkpt>
      <trkpt lat="42.1687830" lon="-8.7974580">
        <ele>192.1</ele>
        <time>2021-05-20T07:18:19Z</time>
      </trkpt>
      <trkpt lat="42.1687810" lon="-8.7974490">
        <ele>192.2</ele>
        <time>2021-05-20T07:18:20Z</time>
      </trkpt>
      <trkpt lat="42.1687810" lon="-8.7974410">
        <ele>192.3</ele>
        <time>2021-05-20T07:18:21Z</time>
      </trkpt>
      <trkpt lat="42.1687820" lon="-8.7974290">
        <ele>192.5</ele>
        <time>2021-05-20T07:18:22Z</time>
      </trkpt>
      <trkpt lat="42.1687830" lon="-8.7974190">
        <ele>192.6</ele>
        <time>2021-05-20T07:18:23Z</time>
      </trkpt>
      <trkpt lat="42.1687850" lon="-8.7974150">
        <ele>192.6</ele>
        <time>2021-05-20T07:18:24Z</time>
      </trkpt>
      <trkpt lat="42.1687880" lon="-8.7974060">
        <ele>192.7</ele>
        <time>2021-05-20T07:18:25Z</time>
      </trkpt>
      <trkpt lat="42.1687930" lon="-8.7973940">
        <ele>192.9</ele>
        <time>2021-05-20T07:18:26Z</time>
      </trkpt>
      <trkpt lat="42.1688010" lon="-8.7973810">
        <ele>193.1</ele>
        <time>2021-05-20T07:18:27Z</time>
      </trkpt>
      <trkpt lat="42.1688090" lon="-8.7973580">
        <ele>193.4</ele>
        <time>2021-05-20T07:18:28Z</time>
      </trkpt>
      <trkpt lat="42.1688110" lon="-8.7973500">
        <ele>193.5</ele>
        <time>2021-05-20T07:18:29Z</time>
      </trkpt>
      <trkpt lat="42.1688130" lon="-8.7973420">
        <ele>193.6</ele>
        <time>2021-05-20T07:18:30Z</time>
      </trkpt>
      <trkpt lat="42.1688150" lon="-8.7973340">
        <ele>193.7</ele>
        <time>2021-05-20T07:18:31Z</time>
      </trkpt>
      <trkpt lat="42.1688260" lon="-8.7973130">
        <ele>194.0</ele>
        <time>2021-05-20T07:18:32Z</time>
      </trkpt>
      <trkpt lat="42.1688280" lon="-8.7973050">
        <ele>194.1</ele>
        <time>2021-05-20T07:18:33Z</time>
      </trkpt>
      <trkpt lat="42.1688290" lon="-8.7972960">
        <ele>194.2</ele>
        <time>2021-05-20T07:18:34Z</time>
      </trkpt>
      <trkpt lat="42.1688310" lon="-8.7972880">
        <ele>194.3</ele>
        <time>2021-05-20T07:18:35Z</time>
      </trkpt>
      <trkpt lat="42.1688370" lon="-8.7972810">
        <ele>194.4</ele>
        <time>2021-05-20T07:18:36Z</time>
      </trkpt>
      <trkpt lat="42.1688380" lon="-8.7972730">
        <ele>194.5</ele>
        <time>2021-05-20T07:18:37Z</time>
      </trkpt>
      <trkpt lat="42.1688430" lon="-8.7972650">
        <ele>194.6</ele>
        <time>2021-05-20T07:18:38Z</time>
      </trkpt>
      <trkpt lat="42.1688460" lon="-8.7972520">
        <ele>194.7</ele>
        <time>2021-05-20T07:18:39Z</time>
      </trkpt>
      <trkpt lat="42.1688500" lon="-8.7972430">
        <ele>194.8</ele>
        <time>2021-05-20T07:18:40Z</time>
      </trkpt>
      <trkpt lat="42.1688560" lon="-8.7972350">
        <ele>195.0</ele>
        <time>2021-05-20T07:18:41Z</time>
      </trkpt>
      <trkpt lat="42.1688640" lon="-8.7972280">
        <ele>195.1</ele>
        <time>2021-05-20T07:18:42Z</time>
      </trkpt>
      <trkpt lat="42.1688710" lon="-8.7972200">
        <ele>195.2</ele>
        <time>2021-05-20T07:18:43Z</time>
      </trkpt>
      <trkpt lat="42.1688760" lon="-8.7972210">
        <ele>195.3</ele>
        <time>2021-05-20T07:18:44Z</time>
      </trkpt>
      <trkpt lat="42.1688850" lon="-8.7972130">
        <ele>196.0</ele>
        <time>2021-05-20T07:18:45Z</time>
      </trkpt>
      <trkpt lat="42.1688900" lon="-8.7972120">
        <ele>196.0</ele>
        <time>2021-05-20T07:18:46Z</time>
      </trkpt>
      <trkpt lat="42.1688960" lon="-8.7972090">
        <ele>196.0</ele>
        <time>2021-05-20T07:18:47Z</time>
      </trkpt>
      <trkpt lat="42.1688940" lon="-8.7972100">
        <ele>196.0</ele>
        <time>2021-05-20T07:18:48Z</time>
      </trkpt>
      <trkpt lat="42.1688910" lon="-8.7972080">
        <ele>196.0</ele>
        <time>2021-05-20T07:18:49Z</time>
      </trkpt>
      <trkpt lat="42.1688900" lon="-8.7972030">
        <ele>196.0</ele>
        <time>2021-05-20T07:18:50Z</time>
      </trkpt>
      <trkpt lat="42.1688910" lon="-8.7972040">
        <ele>196.0</ele>
        <time>2021-05-20T07:18:51Z</time>
      </trkpt>
      <trkpt lat="42.1688980" lon="-8.7971960">
        <ele>196.0</ele>
        <time>2021-05-20T07:18:52Z</time>
      </trkpt>
      <trkpt lat="42.1689000" lon="-8.7972020">
        <ele>196.0</ele>
        <time>2021-05-20T07:18:53Z</time>
      </trkpt>
      <trkpt lat="42.1689000" lon="-8.7971990">
        <ele>196.0</ele>
        <time>2021-05-20T07:18:54Z</time>
      </trkpt>
      <trkpt lat="42.1688930" lon="-8.7971970">
        <ele>196.0</ele>
        <time>2021-05-20T07:18:55Z</time>
      </trkpt>
      <trkpt lat="42.1688880" lon="-8.7971940">
        <ele>196.0</ele>
        <time>2021-05-20T07:18:56Z</time>
      </trkpt>
      <trkpt lat="42.1688780" lon="-8.7971910">
        <ele>196.0</ele>
        <time>2021-05-20T07:18:57Z</time>
      </trkpt>
      <trkpt lat="42.1688750" lon="-8.7971890">
        <ele>196.0</ele>
        <time>2021-05-20T07:18:58Z</time>
      </trkpt>
      <trkpt lat="42.1688740" lon="-8.7971890">
        <ele>196.0</ele>
        <time>2021-05-20T07:18:59Z</time>
      </trkpt>
      <trkpt lat="42.1688740" lon="-8.7971880">
        <ele>196.0</ele>
        <time>2021-05-20T07:19:00Z</time>
      </trkpt>
      <trkpt lat="42.1688800" lon="-8.7971900">
        <ele>196.0</ele>
        <time>2021-05-20T07:19:01Z</time>
      </trkpt>
      <trkpt lat="42.1688840" lon="-8.7971910">
        <ele>196.0</ele>
        <time>2021-05-20T07:19:02Z</time>
      </trkpt>
      <trkpt lat="42.1688940" lon="-8.7971930">
        <ele>196.0</ele>
        <time>2021-05-20T07:19:03Z</time>
      </trkpt>
      <trkpt lat="42.1689000" lon="-8.7971960">
        <ele>196.0</ele>
        <time>2021-05-20T07:19:04Z</time>
      </trkpt>
      <trkpt lat="42.1689090" lon="-8.7972010">
        <ele>196.0</ele>
        <time>2021-05-20T07:19:05Z</time>
      </trkpt>
      <trkpt lat="42.1689140" lon="-8.7972030">
        <ele>196.0</ele>
        <time>2021-05-20T07:19:06Z</time>
      </trkpt>
      <trkpt lat="42.1689120" lon="-8.7972020">
        <ele>196.0</ele>
        <time>2021-05-20T07:19:07Z</time>
      </trkpt>
      <trkpt lat="42.1689100" lon="-8.7972000">
        <ele>196.0</ele>
        <time>2021-05-20T07:19:08Z</time>
      </trkpt>
      <trkpt lat="42.1689100" lon="-8.7972010">
        <ele>196.0</ele>
        <time>2021-05-20T07:19:09Z</time>
      </trkpt>
      <trkpt lat="42.1689140" lon="-8.7972030">
        <ele>196.0</ele>
        <time>2021-05-20T07:19:10Z</time>
      </trkpt>
      <trkpt lat="42.1689180" lon="-8.7972050">
        <ele>196.0</ele>
        <time>2021-05-20T07:19:11Z</time>
      </trkpt>
      <trkpt lat="42.1689180" lon="-8.7972060">
        <ele>196.0</ele>
        <time>2021-05-20T07:19:12Z</time>
      </trkpt>
      <trkpt lat="42.1689180" lon="-8.7972070">
        <ele>196.0</ele>
        <time>2021-05-20T07:19:13Z</time>
      </trkpt>
      <trkpt lat="42.1689180" lon="-8.7972090">
        <ele>196.0</ele>
        <time>2021-05-20T07:19:14Z</time>
      </trkpt>
      <trkpt lat="42.1689170" lon="-8.7972110">
        <ele>196.0</ele>
        <time>2021-05-20T07:19:15Z</time>
      </trkpt>
      <trkpt lat="42.1689140" lon="-8.7972130">
        <ele>196.0</ele>
        <time>2021-05-20T07:19:16Z</time>
      </trkpt>
      <trkpt lat="42.1689120" lon="-8.7972110">
        <ele>196.0</ele>
        <time>2021-05-20T07:19:17Z</time>
      </trkpt>
      <trkpt lat="42.1689150" lon="-8.7972080">
        <ele>196.0</ele>
        <time>2021-05-20T07:19:18Z</time>
      </trkpt>
      <trkpt lat="42.1689130" lon="-8.7972040">
        <ele>196.0</ele>
        <time>2021-05-20T07:19:19Z</time>
      </trkpt>
      <trkpt lat="42.1689100" lon="-8.7971950">
        <ele>196.0</ele>
        <time>2021-05-20T07:19:20Z</time>
      </trkpt>
      <trkpt lat="42.1689130" lon="-8.7971880">
        <ele>196.0</ele>
        <time>2021-05-20T07:19:21Z</time>
      </trkpt>
      <trkpt lat="42.1689220" lon="-8.7971820">
        <ele>196.0</ele>
        <time>2021-05-20T07:19:22Z</time>
      </trkpt>
      <trkpt lat="42.1689260" lon="-8.7971790">
        <ele>196.0</ele>
        <time>2021-05-20T07:19:23Z</time>
      </trkpt>
      <trkpt lat="42.1689250" lon="-8.7971820">
        <ele>196.0</ele>
        <time>2021-05-20T07:19:24Z</time>
      </trkpt>
      <trkpt lat="42.1689280" lon="-8.7971860">
        <ele>196.0</ele>
        <time>2021-05-20T07:19:25Z</time>
      </trkpt>
      <trkpt lat="42.1689320" lon="-8.7972000">
        <ele>196.0</ele>
        <time>2021-05-20T07:19:26Z</time>
      </trkpt>
      <trkpt lat="42.1689370" lon="-8.7972040">
        <ele>196.0</ele>
        <time>2021-05-20T07:19:27Z</time>
      </trkpt>
      <trkpt lat="42.1689460" lon="-8.7972140">
        <ele>196.0</ele>
        <time>2021-05-20T07:19:28Z</time>
      </trkpt>
      <trkpt lat="42.1689570" lon="-8.7972230">
        <ele>196.0</ele>
        <time>2021-05-20T07:19:29Z</time>
      </trkpt>
      <trkpt lat="42.1689640" lon="-8.7972290">
        <ele>196.1</ele>
        <time>2021-05-20T07:19:30Z</time>
      </trkpt>
      <trkpt lat="42.1689710" lon="-8.7972340">
        <ele>196.1</ele>
        <time>2021-05-20T07:19:31Z</time>
      </trkpt>
      <trkpt lat="42.1689780" lon="-8.7972400">
        <ele>196.1</ele>
        <time>2021-05-20T07:19:32Z</time>
      </trkpt>
      <trkpt lat="42.1689810" lon="-8.7972380">
        <ele>196.1</ele>
        <time>2021-05-20T07:19:33Z</time>
      </trkpt>
      <trkpt lat="42.1689860" lon="-8.7972360">
        <ele>196.1</ele>
        <time>2021-05-20T07:19:34Z</time>
      </trkpt>
      <trkpt lat="42.1689960" lon="-8.7972350">
        <ele>196.1</ele>
        <time>2021-05-20T07:19:35Z</time>
      </trkpt>
      <trkpt lat="42.1690100" lon="-8.7972320">
        <ele>196.1</ele>
        <time>2021-05-20T07:19:36Z</time>
      </trkpt>
      <trkpt lat="42.1690230" lon="-8.7972300">
        <ele>196.1</ele>
        <time>2021-05-20T07:19:37Z</time>
      </trkpt>
      <trkpt lat="42.1690310" lon="-8.7972210">
        <ele>196.2</ele>
        <time>2021-05-20T07:19:38Z</time>
      </trkpt>
      <trkpt lat="42.1690390" lon="-8.7972200">
        <ele>196.2</ele>
        <time>2021-05-20T07:19:39Z</time>
      </trkpt>
      <trkpt lat="42.1690460" lon="-8.7972160">
        <ele>196.2</ele>
        <time>2021-05-20T07:19:40Z</time>
      </trkpt>
      <trkpt lat="42.1690630" lon="-8.7972130">
        <ele>196.2</ele>
        <time>2021-05-20T07:19:41Z</time>
      </trkpt>
      <trkpt lat="42.1690740" lon="-8.7972190">
        <ele>196.2</ele>
        <time>2021-05-20T07:19:42Z</time>
      </trkpt>
      <trkpt lat="42.1690890" lon="-8.7972240">
        <ele>196.3</ele>
        <time>2021-05-20T07:19:43Z</time>
      </trkpt>
      <trkpt lat="42.1691040" lon="-8.7972240">
        <ele>196.3</ele>
        <time>2021-05-20T07:19:44Z</time>
      </trkpt>
      <trkpt lat="42.1691140" lon="-8.7972180">
        <ele>196.3</ele>
        <time>2021-05-20T07:19:45Z</time>
      </trkpt>
      <trkpt lat="42.1691270" lon="-8.7972090">
        <ele>196.3</ele>
        <time>2021-05-20T07:19:46Z</time>
      </trkpt>
      <trkpt lat="42.1691360" lon="-8.7972060">
        <ele>196.4</ele>
        <time>2021-05-20T07:19:47Z</time>
      </trkpt>
      <trkpt lat="42.1691490" lon="-8.7972050">
        <ele>196.4</ele>
        <time>2021-05-20T07:19:48Z</time>
      </trkpt>
      <trkpt lat="42.1691670" lon="-8.7972070">
        <ele>196.4</ele>
        <time>2021-05-20T07:19:49Z</time>
      </trkpt>
      <trkpt lat="42.1691890" lon="-8.7972060">
        <ele>196.5</ele>
        <time>2021-05-20T07:19:50Z</time>
      </trkpt>
      <trkpt lat="42.1691980" lon="-8.7972080">
        <ele>196.5</ele>
        <time>2021-05-20T07:19:51Z</time>
      </trkpt>
      <trkpt lat="42.1692060" lon="-8.7972090">
        <ele>196.5</ele>
        <time>2021-05-20T07:19:52Z</time>
      </trkpt>
      <trkpt lat="42.1692160" lon="-8.7972090">
        <ele>196.5</ele>
        <time>2021-05-20T07:19:53Z</time>
      </trkpt>
      <trkpt lat="42.1692260" lon="-8.7972030">
        <ele>196.5</ele>
        <time>2021-05-20T07:19:54Z</time>
      </trkpt>
      <trkpt lat="42.1692390" lon="-8.7971970">
        <ele>196.5</ele>
        <time>2021-05-20T07:19:55Z</time>
      </trkpt>
      <trkpt lat="42.1692490" lon="-8.7971980">
        <ele>196.5</ele>
        <time>2021-05-20T07:19:56Z</time>
      </trkpt>
      <trkpt lat="42.1692620" lon="-8.7971950">
        <ele>196.5</ele>
        <time>2021-05-20T07:19:57Z</time>
      </trkpt>
      <trkpt lat="42.1692670" lon="-8.7971920">
        <ele>196.5</ele>
        <time>2021-05-20T07:19:58Z</time>
      </trkpt>
      <trkpt lat="42.1692730" lon="-8.7971920">
        <ele>196.5</ele>
        <time>2021-05-20T07:19:59Z</time>
      </trkpt>
      <trkpt lat="42.1692810" lon="-8.7971900">
        <ele>196.5</ele>
        <time>2021-05-20T07:20:00Z</time>
      </trkpt>
      <trkpt lat="42.1692980" lon="-8.7971860">
        <ele>196.5</ele>
        <time>2021-05-20T07:20:01Z</time>
      </trkpt>
      <trkpt lat="42.1693080" lon="-8.7971850">
        <ele>196.5</ele>
        <time>2021-05-20T07:20:02Z</time>
      </trkpt>
      <trkpt lat="42.1693200" lon="-8.7971840">
        <ele>196.5</ele>
        <time>2021-05-20T07:20:03Z</time>
      </trkpt>
      <trkpt lat="42.1693340" lon="-8.7971830">
        <ele>196.5</ele>
        <time>2021-05-20T07:20:04Z</time>
      </trkpt>
      <trkpt lat="42.1693520" lon="-8.7971820">
        <ele>196.5</ele>
        <time>2021-05-20T07:20:05Z</time>
      </trkpt>
      <trkpt lat="42.1693600" lon="-8.7971800">
        <ele>196.5</ele>
        <time>2021-05-20T07:20:06Z</time>
      </trkpt>
      <trkpt lat="42.1693690" lon="-8.7971780">
        <ele>196.4</ele>
        <time>2021-05-20T07:20:07Z</time>
      </trkpt>
      <trkpt lat="42.1693780" lon="-8.7971760">
        <ele>196.4</ele>
        <time>2021-05-20T07:20:08Z</time>
      </trkpt>
      <trkpt lat="42.1693900" lon="-8.7971730">
        <ele>196.4</ele>
        <time>2021-05-20T07:20:09Z</time>
      </trkpt>
      <trkpt lat="42.1694000" lon="-8.7971710">
        <ele>196.3</ele>
        <time>2021-05-20T07:20:10Z</time>
      </trkpt>
      <trkpt lat="42.1694130" lon="-8.7971690">
        <ele>196.3</ele>
        <time>2021-05-20T07:20:11Z</time>
      </trkpt>
      <trkpt lat="42.1694240" lon="-8.7971680">
        <ele>196.3</ele>
        <time>2021-05-20T07:20:12Z</time>
      </trkpt>
      <trkpt lat="42.1694350" lon="-8.7971640">
        <ele>196.2</ele>
        <time>2021-05-20T07:20:13Z</time>
      </trkpt>
      <trkpt lat="42.1694430" lon="-8.7971660">
        <ele>196.2</ele>
        <time>2021-05-20T07:20:14Z</time>
      </trkpt>
      <trkpt lat="42.1694510" lon="-8.7971660">
        <ele>196.1</ele>
        <time>2021-05-20T07:20:15Z</time>
      </trkpt>
      <trkpt lat="42.1694600" lon="-8.7971680">
        <ele>196.1</ele>
        <time>2021-05-20T07:20:16Z</time>
      </trkpt>
      <trkpt lat="42.1694700" lon="-8.7971670">
        <ele>196.0</ele>
        <time>2021-05-20T07:20:17Z</time>
      </trkpt>
      <trkpt lat="42.1694910" lon="-8.7971630">
        <ele>195.9</ele>
        <time>2021-05-20T07:20:18Z</time>
      </trkpt>
      <trkpt lat="42.1695000" lon="-8.7971630">
        <ele>195.8</ele>
        <time>2021-05-20T07:20:19Z</time>
      </trkpt>
      <trkpt lat="42.1695080" lon="-8.7971620">
        <ele>195.7</ele>
        <time>2021-05-20T07:20:20Z</time>
      </trkpt>
      <trkpt lat="42.1695160" lon="-8.7971580">
        <ele>195.7</ele>
        <time>2021-05-20T07:20:21Z</time>
      </trkpt>
      <trkpt lat="42.1695230" lon="-8.7971560">
        <ele>195.6</ele>
        <time>2021-05-20T07:20:22Z</time>
      </trkpt>
      <trkpt lat="42.1695350" lon="-8.7971540">
        <ele>195.5</ele>
        <time>2021-05-20T07:20:23Z</time>
      </trkpt>
      <trkpt lat="42.1695570" lon="-8.7971500">
        <ele>195.3</ele>
        <time>2021-05-20T07:20:24Z</time>
      </trkpt>
      <trkpt lat="42.1695640" lon="-8.7971480">
        <ele>195.3</ele>
        <time>2021-05-20T07:20:25Z</time>
      </trkpt>
      <trkpt lat="42.1695720" lon="-8.7971470">
        <ele>195.2</ele>
        <time>2021-05-20T07:20:26Z</time>
      </trkpt>
      <trkpt lat="42.1695860" lon="-8.7971490">
        <ele>195.0</ele>
        <time>2021-05-20T07:20:27Z</time>
      </trkpt>
      <trkpt lat="42.1695970" lon="-8.7971480">
        <ele>194.9</ele>
        <time>2021-05-20T07:20:28Z</time>
      </trkpt>
      <trkpt lat="42.1696040" lon="-8.7971440">
        <ele>194.8</ele>
        <time>2021-05-20T07:20:29Z</time>
      </trkpt>
      <trkpt lat="42.1696120" lon="-8.7971440">
        <ele>194.7</ele>
        <time>2021-05-20T07:20:30Z</time>
      </trkpt>
      <trkpt lat="42.1696210" lon="-8.7971410">
        <ele>194.6</ele>
        <time>2021-05-20T07:20:31Z</time>
      </trkpt>
      <trkpt lat="42.1696320" lon="-8.7971390">
        <ele>194.5</ele>
        <time>2021-05-20T07:20:32Z</time>
      </trkpt>
      <trkpt lat="42.1696420" lon="-8.7971360">
        <ele>194.3</ele>
        <time>2021-05-20T07:20:33Z</time>
      </trkpt>
      <trkpt lat="42.1696510" lon="-8.7971290">
        <ele>194.2</ele>
        <time>2021-05-20T07:20:34Z</time>
      </trkpt>
      <trkpt lat="42.1696570" lon="-8.7971280">
        <ele>194.1</ele>
        <time>2021-05-20T07:20:35Z</time>
      </trkpt>
      <trkpt lat="42.1696770" lon="-8.7971320">
        <ele>193.8</ele>
        <time>2021-05-20T07:20:36Z</time>
      </trkpt>
      <trkpt lat="42.1696850" lon="-8.7971340">
        <ele>193.7</ele>
        <time>2021-05-20T07:20:37Z</time>
      </trkpt>
      <trkpt lat="42.1696930" lon="-8.7971370">
        <ele>193.6</ele>
        <time>2021-05-20T07:20:38Z</time>
      </trkpt>
      <trkpt lat="42.1697140" lon="-8.7971370">
        <ele>193.2</ele>
        <time>2021-05-20T07:20:39Z</time>
      </trkpt>
      <trkpt lat="42.1697230" lon="-8.7971370">
        <ele>193.1</ele>
        <time>2021-05-20T07:20:40Z</time>
      </trkpt>
      <trkpt lat="42.1697330" lon="-8.7971360">
        <ele>192.9</ele>
        <time>2021-05-20T07:20:41Z</time>
      </trkpt>
      <trkpt lat="42.1697440" lon="-8.7971300">
        <ele>192.7</ele>
        <time>2021-05-20T07:20:42Z</time>
      </trkpt>
      <trkpt lat="42.1697540" lon="-8.7971330">
        <ele>192.5</ele>
        <time>2021-05-20T07:20:43Z</time>
      </trkpt>
      <trkpt lat="42.1697620" lon="-8.7971320">
        <ele>192.4</ele>
        <time>2021-05-20T07:20:44Z</time>
      </trkpt>
      <trkpt lat="42.1697710" lon="-8.7971250">
        <ele>192.2</ele>
        <time>2021-05-20T07:20:45Z</time>
      </trkpt>
      <trkpt lat="42.1697800" lon="-8.7971190">
        <ele>192.0</ele>
        <time>2021-05-20T07:20:46Z</time>
      </trkpt>
      <trkpt lat="42.1697920" lon="-8.7971180">
        <ele>191.8</ele>
        <time>2021-05-20T07:20:47Z</time>
      </trkpt>
      <trkpt lat="42.1697990" lon="-8.7971170">
        <ele>191.7</ele>
        <time>2021-05-20T07:20:48Z</time>
      </trkpt>
      <trkpt lat="42.1698020" lon="-8.7971150">
        <ele>191.6</ele>
        <time>2021-05-20T07:20:49Z</time>
      </trkpt>
      <trkpt lat="42.1698150" lon="-8.7971130">
        <ele>191.3</ele>
        <time>2021-05-20T07:20:50Z</time>
      </trkpt>
      <trkpt lat="42.1698240" lon="-8.7971130">
        <ele>191.2</ele>
        <time>2021-05-20T07:20:51Z</time>
      </trkpt>
      <trkpt lat="42.1698430" lon="-8.7971060">
        <ele>190.8</ele>
        <time>2021-05-20T07:20:52Z</time>
      </trkpt>
      <trkpt lat="42.1698570" lon="-8.7971050">
        <ele>190.5</ele>
        <time>2021-05-20T07:20:53Z</time>
      </trkpt>
      <trkpt lat="42.1698690" lon="-8.7971000">
        <ele>190.3</ele>
        <time>2021-05-20T07:20:54Z</time>
      </trkpt>
      <trkpt lat="42.1698720" lon="-8.7970940">
        <ele>190.2</ele>
        <time>2021-05-20T07:20:55Z</time>
      </trkpt>
      <trkpt lat="42.1698770" lon="-8.7970920">
        <ele>190.1</ele>
        <time>2021-05-20T07:20:56Z</time>
      </trkpt>
      <trkpt lat="42.1698810" lon="-8.7970920">
        <ele>190.0</ele>
        <time>2021-05-20T07:20:57Z</time>
      </trkpt>
      <trkpt lat="42.1698870" lon="-8.7970940">
        <ele>189.9</ele>
        <time>2021-05-20T07:20:58Z</time>
      </trkpt>
      <trkpt lat="42.1698970" lon="-8.7970910">
        <ele>189.7</ele>
        <time>2021-05-20T07:20:59Z</time>
      </trkpt>
      <trkpt lat="42.1699030" lon="-8.7970920">
        <ele>189.6</ele>
        <time>2021-05-20T07:21:00Z</time>
      </trkpt>
      <trkpt lat="42.1699150" lon="-8.7970950">
        <ele>189.3</ele>
        <time>2021-05-20T07:21:01Z</time>
      </trkpt>
      <trkpt lat="42.1699300" lon="-8.7970950">
        <ele>189.0</ele>
        <time>2021-05-20T07:21:02Z</time>
      </trkpt>
      <trkpt lat="42.1699400" lon="-8.7970920">
        <ele>188.8</ele>
        <time>2021-05-20T07:21:03Z</time>
      </trkpt>
      <trkpt lat="42.1699500" lon="-8.7971010">
        <ele>188.6</ele>
        <time>2021-05-20T07:21:04Z</time>
      </trkpt>
      <trkpt lat="42.1699590" lon="-8.7971030">
        <ele>188.4</ele>
        <time>2021-05-20T07:21:05Z</time>
      </trkpt>
      <trkpt lat="42.1699710" lon="-8.7971050">
        <ele>188.2</ele>
        <time>2021-05-20T07:21:06Z</time>
      </trkpt>
      <trkpt lat="42.1699810" lon="-8.7971060">
        <ele>188.0</ele>
        <time>2021-05-20T07:21:07Z</time>
      </trkpt>
      <trkpt lat="42.1699880" lon="-8.7971020">
        <ele>187.9</ele>
        <time>2021-05-20T07:21:08Z</time>
      </trkpt>
      <trkpt lat="42.1699960" lon="-8.7970950">
        <ele>187.7</ele>
        <time>2021-05-20T07:21:09Z</time>
      </trkpt>
      <trkpt lat="42.1700000" lon="-8.7970950">
        <ele>187.6</ele>
        <time>2021-05-20T07:21:10Z</time>
      </trkpt>
      <trkpt lat="42.1700130" lon="-8.7970970">
        <ele>187.4</ele>
        <time>2021-05-20T07:21:11Z</time>
      </trkpt>
      <trkpt lat="42.1700220" lon="-8.7971000">
        <ele>187.2</ele>
        <time>2021-05-20T07:21:12Z</time>
      </trkpt>
      <trkpt lat="42.1700340" lon="-8.7970980">
        <ele>186.9</ele>
        <time>2021-05-20T07:21:13Z</time>
      </trkpt>
      <trkpt lat="42.1700470" lon="-8.7970960">
        <ele>186.7</ele>
        <time>2021-05-20T07:21:14Z</time>
      </trkpt>
      <trkpt lat="42.1700530" lon="-8.7970920">
        <ele>186.6</ele>
        <time>2021-05-20T07:21:15Z</time>
      </trkpt>
      <trkpt lat="42.1700650" lon="-8.7970900">
        <ele>186.3</ele>
        <time>2021-05-20T07:21:16Z</time>
      </trkpt>
      <trkpt lat="42.1700740" lon="-8.7970860">
        <ele>186.2</ele>
        <time>2021-05-20T07:21:17Z</time>
      </trkpt>
      <trkpt lat="42.1700820" lon="-8.7970890">
        <ele>186.0</ele>
        <time>2021-05-20T07:21:18Z</time>
      </trkpt>
      <trkpt lat="42.1700900" lon="-8.7971000">
        <ele>185.8</ele>
        <time>2021-05-20T07:21:19Z</time>
      </trkpt>
      <trkpt lat="42.1700980" lon="-8.7971100">
        <ele>185.6</ele>
        <time>2021-05-20T07:21:20Z</time>
      </trkpt>
      <trkpt lat="42.1701090" lon="-8.7971060">
        <ele>185.4</ele>
        <time>2021-05-20T07:21:21Z</time>
      </trkpt>
      <trkpt lat="42.1701220" lon="-8.7971030">
        <ele>185.2</ele>
        <time>2021-05-20T07:21:22Z</time>
      </trkpt>
      <trkpt lat="42.1701270" lon="-8.7971000">
        <ele>185.1</ele>
        <time>2021-05-20T07:21:23Z</time>
      </trkpt>
      <trkpt lat="42.1701360" lon="-8.7970980">
        <ele>184.9</ele>
        <time>2021-05-20T07:21:24Z</time>
      </trkpt>
      <trkpt lat="42.1701460" lon="-8.7971000">
        <ele>184.7</ele>
        <time>2021-05-20T07:21:25Z</time>
      </trkpt>
      <trkpt lat="42.1701600" lon="-8.7971000">
        <ele>184.5</ele>
        <time>2021-05-20T07:21:26Z</time>
      </trkpt>
      <trkpt lat="42.1701700" lon="-8.7970970">
        <ele>184.3</ele>
        <time>2021-05-20T07:21:27Z</time>
      </trkpt>
      <trkpt lat="42.1701800" lon="-8.7970940">
        <ele>184.2</ele>
        <time>2021-05-20T07:21:28Z</time>
      </trkpt>
      <trkpt lat="42.1701800" lon="-8.7970890">
        <ele>184.1</ele>
        <time>2021-05-20T07:21:29Z</time>
      </trkpt>
      <trkpt lat="42.1701860" lon="-8.7970860">
        <ele>184.0</ele>
        <time>2021-05-20T07:21:30Z</time>
      </trkpt>
      <trkpt lat="42.1702050" lon="-8.7970880">
        <ele>183.7</ele>
        <time>2021-05-20T07:21:31Z</time>
      </trkpt>
      <trkpt lat="42.1702160" lon="-8.7970860">
        <ele>183.5</ele>
        <time>2021-05-20T07:21:32Z</time>
      </trkpt>
      <trkpt lat="42.1702230" lon="-8.7970890">
        <ele>183.4</ele>
        <time>2021-05-20T07:21:33Z</time>
      </trkpt>
      <trkpt lat="42.1702440" lon="-8.7970920">
        <ele>183.1</ele>
        <time>2021-05-20T07:21:34Z</time>
      </trkpt>
      <trkpt lat="42.1702500" lon="-8.7970930">
        <ele>183.0</ele>
        <time>2021-05-20T07:21:35Z</time>
      </trkpt>
      <trkpt lat="42.1702760" lon="-8.7970920">
        <ele>182.7</ele>
        <time>2021-05-20T07:21:36Z</time>
      </trkpt>
      <trkpt lat="42.1702870" lon="-8.7970920">
        <ele>182.6</ele>
        <time>2021-05-20T07:21:37Z</time>
      </trkpt>
      <trkpt lat="42.1702990" lon="-8.7970880">
        <ele>182.4</ele>
        <time>2021-05-20T07:21:38Z</time>
      </trkpt>
      <trkpt lat="42.1703090" lon="-8.7970890">
        <ele>182.3</ele>
        <time>2021-05-20T07:21:39Z</time>
      </trkpt>
      <trkpt lat="42.1703290" lon="-8.7970690">
        <ele>182.0</ele>
        <time>2021-05-20T07:21:40Z</time>
      </trkpt>
      <trkpt lat="42.1703350" lon="-8.7970650">
        <ele>181.9</ele>
        <time>2021-05-20T07:21:41Z</time>
      </trkpt>
      <trkpt lat="42.1703420" lon="-8.7970610">
        <ele>181.8</ele>
        <time>2021-05-20T07:21:42Z</time>
      </trkpt>
      <trkpt lat="42.1703490" lon="-8.7970590">
        <ele>181.7</ele>
        <time>2021-05-20T07:21:43Z</time>
      </trkpt>
      <trkpt lat="42.1703580" lon="-8.7970610">
        <ele>181.6</ele>
        <time>2021-05-20T07:21:44Z</time>
      </trkpt>
      <trkpt lat="42.1703730" lon="-8.7970630">
        <ele>181.4</ele>
        <time>2021-05-20T07:21:45Z</time>
      </trkpt>
      <trkpt lat="42.1703870" lon="-8.7970600">
        <ele>181.2</ele>
        <time>2021-05-20T07:21:46Z</time>
      </trkpt>
      <trkpt lat="42.1703960" lon="-8.7970560">
        <ele>181.0</ele>
        <time>2021-05-20T07:21:47Z</time>
      </trkpt>
      <trkpt lat="42.1704070" lon="-8.7970550">
        <ele>180.9</ele>
        <time>2021-05-20T07:21:48Z</time>
      </trkpt>
      <trkpt lat="42.1704140" lon="-8.7970560">
        <ele>180.8</ele>
        <time>2021-05-20T07:21:49Z</time>
      </trkpt>
      <trkpt lat="42.1704180" lon="-8.7970560">
        <ele>180.7</ele>
        <time>2021-05-20T07:21:50Z</time>
      </trkpt>
      <trkpt lat="42.1704300" lon="-8.7970510">
        <ele>180.5</ele>
        <time>2021-05-20T07:21:51Z</time>
      </trkpt>
      <trkpt lat="42.1704430" lon="-8.7970500">
        <ele>180.4</ele>
        <time>2021-05-20T07:21:52Z</time>
      </trkpt>
      <trkpt lat="42.1704640" lon="-8.7970510">
        <ele>180.1</ele>
        <time>2021-05-20T07:21:53Z</time>
      </trkpt>
      <trkpt lat="42.1704720" lon="-8.7970500">
        <ele>180.0</ele>
        <time>2021-05-20T07:21:54Z</time>
      </trkpt>
      <trkpt lat="42.1704800" lon="-8.7970500">
        <ele>179.8</ele>
        <time>2021-05-20T07:21:55Z</time>
      </trkpt>
      <trkpt lat="42.1704990" lon="-8.7970460">
        <ele>179.6</ele>
        <time>2021-05-20T07:21:56Z</time>
      </trkpt>
      <trkpt lat="42.1705070" lon="-8.7970430">
        <ele>179.5</ele>
        <time>2021-05-20T07:21:57Z</time>
      </trkpt>
      <trkpt lat="42.1705160" lon="-8.7970410">
        <ele>179.3</ele>
        <time>2021-05-20T07:21:58Z</time>
      </trkpt>
      <trkpt lat="42.1705260" lon="-8.7970390">
        <ele>179.2</ele>
        <time>2021-05-20T07:21:59Z</time>
      </trkpt>
      <trkpt lat="42.1705390" lon="-8.7970330">
        <ele>179.0</ele>
        <time>2021-05-20T07:22:00Z</time>
      </trkpt>
      <trkpt lat="42.1705480" lon="-8.7970300">
        <ele>178.9</ele>
        <time>2021-05-20T07:22:01Z</time>
      </trkpt>
      <trkpt lat="42.1705610" lon="-8.7970230">
        <ele>178.7</ele>
        <time>2021-05-20T07:22:02Z</time>
      </trkpt>
      <trkpt lat="42.1705710" lon="-8.7970220">
        <ele>178.5</ele>
        <time>2021-05-20T07:22:03Z</time>
      </trkpt>
      <trkpt lat="42.1705800" lon="-8.7970200">
        <ele>178.4</ele>
        <time>2021-05-20T07:22:04Z</time>
      </trkpt>
      <trkpt lat="42.1705900" lon="-8.7970180">
        <ele>178.3</ele>
        <time>2021-05-20T07:22:05Z</time>
      </trkpt>
      <trkpt lat="42.1706020" lon="-8.7970200">
        <ele>178.1</ele>
        <time>2021-05-20T07:22:06Z</time>
      </trkpt>
      <trkpt lat="42.1706160" lon="-8.7970190">
        <ele>177.9</ele>
        <time>2021-05-20T07:22:07Z</time>
      </trkpt>
      <trkpt lat="42.1706260" lon="-8.7970160">
        <ele>177.7</ele>
        <time>2021-05-20T07:22:08Z</time>
      </trkpt>
      <trkpt lat="42.1706320" lon="-8.7970180">
        <ele>177.7</ele>
        <time>2021-05-20T07:22:09Z</time>
      </trkpt>
      <trkpt lat="42.1706410" lon="-8.7970240">
        <ele>177.5</ele>
        <time>2021-05-20T07:22:10Z</time>
      </trkpt>
      <trkpt lat="42.1706480" lon="-8.7970310">
        <ele>177.4</ele>
        <time>2021-05-20T07:22:11Z</time>
      </trkpt>
      <trkpt lat="42.1706520" lon="-8.7970390">
        <ele>177.3</ele>
        <time>2021-05-20T07:22:12Z</time>
      </trkpt>
      <trkpt lat="42.1706690" lon="-8.7970460">
        <ele>177.0</ele>
        <time>2021-05-20T07:22:13Z</time>
      </trkpt>
      <trkpt lat="42.1706790" lon="-8.7970460">
        <ele>176.9</ele>
        <time>2021-05-20T07:22:14Z</time>
      </trkpt>
      <trkpt lat="42.1706890" lon="-8.7970460">
        <ele>176.7</ele>
        <time>2021-05-20T07:22:15Z</time>
      </trkpt>
      <trkpt lat="42.1706970" lon="-8.7970450">
        <ele>176.6</ele>
        <time>2021-05-20T07:22:16Z</time>
      </trkpt>
      <trkpt lat="42.1706980" lon="-8.7970460">
        <ele>176.6</ele>
        <time>2021-05-20T07:22:17Z</time>
      </trkpt>
      <trkpt lat="42.1707050" lon="-8.7970420">
        <ele>176.4</ele>
        <time>2021-05-20T07:22:18Z</time>
      </trkpt>
      <trkpt lat="42.1707140" lon="-8.7970430">
        <ele>176.3</ele>
        <time>2021-05-20T07:22:19Z</time>
      </trkpt>
      <trkpt lat="42.1707200" lon="-8.7970450">
        <ele>176.2</ele>
        <time>2021-05-20T07:22:20Z</time>
      </trkpt>
      <trkpt lat="42.1707340" lon="-8.7970480">
        <ele>176.0</ele>
        <time>2021-05-20T07:22:21Z</time>
      </trkpt>
      <trkpt lat="42.1707510" lon="-8.7970600">
        <ele>175.7</ele>
        <time>2021-05-20T07:22:22Z</time>
      </trkpt>
      <trkpt lat="42.1707600" lon="-8.7970720">
        <ele>175.5</ele>
        <time>2021-05-20T07:22:23Z</time>
      </trkpt>
      <trkpt lat="42.1707680" lon="-8.7970860">
        <ele>175.3</ele>
        <time>2021-05-20T07:22:24Z</time>
      </trkpt>
      <trkpt lat="42.1707800" lon="-8.7970880">
        <ele>175.1</ele>
        <time>2021-05-20T07:22:25Z</time>
      </trkpt>
      <trkpt lat="42.1707910" lon="-8.7971040">
        <ele>174.8</ele>
        <time>2021-05-20T07:22:26Z</time>
      </trkpt>
      <trkpt lat="42.1707910" lon="-8.7971090">
        <ele>174.7</ele>
        <time>2021-05-20T07:22:27Z</time>
      </trkpt>
      <trkpt lat="42.1707960" lon="-8.7971210">
        <ele>174.6</ele>
        <time>2021-05-20T07:22:28Z</time>
      </trkpt>
      <trkpt lat="42.1708100" lon="-8.7971290">
        <ele>174.3</ele>
        <time>2021-05-20T07:22:29Z</time>
      </trkpt>
      <trkpt lat="42.1708230" lon="-8.7971300">
        <ele>174.1</ele>
        <time>2021-05-20T07:22:30Z</time>
      </trkpt>
      <trkpt lat="42.1708320" lon="-8.7971320">
        <ele>173.9</ele>
        <time>2021-05-20T07:22:31Z</time>
      </trkpt>
      <trkpt lat="42.1708440" lon="-8.7971330">
        <ele>173.7</ele>
        <time>2021-05-20T07:22:32Z</time>
      </trkpt>
      <trkpt lat="42.1708540" lon="-8.7971360">
        <ele>173.6</ele>
        <time>2021-05-20T07:22:33Z</time>
      </trkpt>
      <trkpt lat="42.1708600" lon="-8.7971390">
        <ele>173.5</ele>
        <time>2021-05-20T07:22:34Z</time>
      </trkpt>
      <trkpt lat="42.1708750" lon="-8.7971370">
        <ele>173.2</ele>
        <time>2021-05-20T07:22:35Z</time>
      </trkpt>
      <trkpt lat="42.1708840" lon="-8.7971210">
        <ele>173.0</ele>
        <time>2021-05-20T07:22:36Z</time>
      </trkpt>
      <trkpt lat="42.1708960" lon="-8.7971210">
        <ele>172.8</ele>
        <time>2021-05-20T07:22:37Z</time>
      </trkpt>
      <trkpt lat="42.1709060" lon="-8.7971160">
        <ele>172.6</ele>
        <time>2021-05-20T07:22:38Z</time>
      </trkpt>
      <trkpt lat="42.1709160" lon="-8.7971180">
        <ele>172.4</ele>
        <time>2021-05-20T07:22:39Z</time>
      </trkpt>
      <trkpt lat="42.1709340" lon="-8.7971120">
        <ele>172.1</ele>
        <time>2021-05-20T07:22:40Z</time>
      </trkpt>
      <trkpt lat="42.1709420" lon="-8.7971090">
        <ele>172.0</ele>
        <time>2021-05-20T07:22:41Z</time>
      </trkpt>
      <trkpt lat="42.1709490" lon="-8.7971070">
        <ele>171.9</ele>
        <time>2021-05-20T07:22:42Z</time>
      </trkpt>
      <trkpt lat="42.1709580" lon="-8.7971040">
        <ele>171.8</ele>
        <time>2021-05-20T07:22:43Z</time>
      </trkpt>
      <trkpt lat="42.1709670" lon="-8.7971100">
        <ele>171.6</ele>
        <time>2021-05-20T07:22:44Z</time>
      </trkpt>
      <trkpt lat="42.1709780" lon="-8.7971130">
        <ele>171.5</ele>
        <time>2021-05-20T07:22:45Z</time>
      </trkpt>
      <trkpt lat="42.1709830" lon="-8.7971170">
        <ele>171.4</ele>
        <time>2021-05-20T07:22:46Z</time>
      </trkpt>
      <trkpt lat="42.1709970" lon="-8.7971200">
        <ele>171.2</ele>
        <time>2021-05-20T07:22:47Z</time>
      </trkpt>
      <trkpt lat="42.1710120" lon="-8.7971240">
        <ele>171.0</ele>
        <time>2021-05-20T07:22:48Z</time>
      </trkpt>
      <trkpt lat="42.1710160" lon="-8.7971280">
        <ele>170.9</ele>
        <time>2021-05-20T07:22:49Z</time>
      </trkpt>
      <trkpt lat="42.1710240" lon="-8.7971370">
        <ele>170.8</ele>
        <time>2021-05-20T07:22:50Z</time>
      </trkpt>
      <trkpt lat="42.1710430" lon="-8.7971440">
        <ele>170.5</ele>
        <time>2021-05-20T07:22:51Z</time>
      </trkpt>
      <trkpt lat="42.1710580" lon="-8.7971490">
        <ele>170.3</ele>
        <time>2021-05-20T07:22:52Z</time>
      </trkpt>
      <trkpt lat="42.1710720" lon="-8.7971490">
        <ele>170.1</ele>
        <time>2021-05-20T07:22:53Z</time>
      </trkpt>
      <trkpt lat="42.1710760" lon="-8.7971520">
        <ele>170.1</ele>
        <time>2021-05-20T07:22:54Z</time>
      </trkpt>
      <trkpt lat="42.1710890" lon="-8.7971580">
        <ele>169.9</ele>
        <time>2021-05-20T07:22:55Z</time>
      </trkpt>
      <trkpt lat="42.1710930" lon="-8.7971640">
        <ele>169.8</ele>
        <time>2021-05-20T07:22:56Z</time>
      </trkpt>
      <trkpt lat="42.1711040" lon="-8.7971710">
        <ele>169.7</ele>
        <time>2021-05-20T07:22:57Z</time>
      </trkpt>
      <trkpt lat="42.1711270" lon="-8.7971740">
        <ele>169.4</ele>
        <time>2021-05-20T07:22:58Z</time>
      </trkpt>
      <trkpt lat="42.1711380" lon="-8.7971770">
        <ele>169.3</ele>
        <time>2021-05-20T07:22:59Z</time>
      </trkpt>
      <trkpt lat="42.1711490" lon="-8.7971790">
        <ele>169.1</ele>
        <time>2021-05-20T07:23:00Z</time>
      </trkpt>
      <trkpt lat="42.1711520" lon="-8.7971900">
        <ele>169.0</ele>
        <time>2021-05-20T07:23:01Z</time>
      </trkpt>
      <trkpt lat="42.1711600" lon="-8.7971950">
        <ele>168.9</ele>
        <time>2021-05-20T07:23:02Z</time>
      </trkpt>
      <trkpt lat="42.1711690" lon="-8.7971990">
        <ele>168.8</ele>
        <time>2021-05-20T07:23:03Z</time>
      </trkpt>
      <trkpt lat="42.1711770" lon="-8.7972040">
        <ele>168.7</ele>
        <time>2021-05-20T07:23:04Z</time>
      </trkpt>
      <trkpt lat="42.1711850" lon="-8.7972080">
        <ele>168.6</ele>
        <time>2021-05-20T07:23:05Z</time>
      </trkpt>
      <trkpt lat="42.1711890" lon="-8.7972120">
        <ele>168.6</ele>
        <time>2021-05-20T07:23:06Z</time>
      </trkpt>
      <trkpt lat="42.1711940" lon="-8.7972190">
        <ele>168.5</ele>
        <time>2021-05-20T07:23:07Z</time>
      </trkpt>
      <trkpt lat="42.1712040" lon="-8.7972250">
        <ele>168.4</ele>
        <time>2021-05-20T07:23:08Z</time>
      </trkpt>
      <trkpt lat="42.1712090" lon="-8.7972290">
        <ele>168.3</ele>
        <time>2021-05-20T07:23:09Z</time>
      </trkpt>
      <trkpt lat="42.1712240" lon="-8.7972450">
        <ele>168.1</ele>
        <time>2021-05-20T07:23:10Z</time>
      </trkpt>
      <trkpt lat="42.1712300" lon="-8.7972550">
        <ele>168.0</ele>
        <time>2021-05-20T07:23:11Z</time>
      </trkpt>
      <trkpt lat="42.1712400" lon="-8.7972630">
        <ele>167.9</ele>
        <time>2021-05-20T07:23:12Z</time>
      </trkpt>
      <trkpt lat="42.1712480" lon="-8.7972650">
        <ele>167.9</ele>
        <time>2021-05-20T07:23:13Z</time>
      </trkpt>
      <trkpt lat="42.1712610" lon="-8.7972780">
        <ele>167.7</ele>
        <time>2021-05-20T07:23:14Z</time>
      </trkpt>
      <trkpt lat="42.1712630" lon="-8.7972910">
        <ele>167.6</ele>
        <time>2021-05-20T07:23:15Z</time>
      </trkpt>
      <trkpt lat="42.1712700" lon="-8.7972950">
        <ele>167.5</ele>
        <time>2021-05-20T07:23:16Z</time>
      </trkpt>
      <trkpt lat="42.1712700" lon="-8.7972980">
        <ele>167.5</ele>
        <time>2021-05-20T07:23:17Z</time>
      </trkpt>
      <trkpt lat="42.1712610" lon="-8.7973030">
        <ele>167.4</ele>
        <time>2021-05-20T07:23:18Z</time>
      </trkpt>
      <trkpt lat="42.1712660" lon="-8.7973080">
        <ele>167.2</ele>
        <time>2021-05-20T07:23:19Z</time>
      </trkpt>
      <trkpt lat="42.1712640" lon="-8.7973180">
        <ele>167.1</ele>
        <time>2021-05-20T07:23:20Z</time>
      </trkpt>
      <trkpt lat="42.1712500" lon="-8.7973370">
        <ele>166.9</ele>
        <time>2021-05-20T07:23:21Z</time>
      </trkpt>
      <trkpt lat="42.1712420" lon="-8.7973430">
        <ele>166.8</ele>
        <time>2021-05-20T07:23:22Z</time>
      </trkpt>
      <trkpt lat="42.1712330" lon="-8.7973480">
        <ele>166.7</ele>
        <time>2021-05-20T07:23:23Z</time>
      </trkpt>
      <trkpt lat="42.1712240" lon="-8.7973540">
        <ele>166.6</ele>
        <time>2021-05-20T07:23:24Z</time>
      </trkpt>
      <trkpt lat="42.1712210" lon="-8.7973640">
        <ele>166.6</ele>
        <time>2021-05-20T07:23:25Z</time>
      </trkpt>
      <trkpt lat="42.1712170" lon="-8.7973780">
        <ele>166.5</ele>
        <time>2021-05-20T07:23:26Z</time>
      </trkpt>
      <trkpt lat="42.1712160" lon="-8.7973900">
        <ele>166.4</ele>
        <time>2021-05-20T07:23:27Z</time>
      </trkpt>
      <trkpt lat="42.1712090" lon="-8.7974000">
        <ele>166.3</ele>
        <time>2021-05-20T07:23:28Z</time>
      </trkpt>
      <trkpt lat="42.1712120" lon="-8.7974110">
        <ele>166.2</ele>
        <time>2021-05-20T07:23:29Z</time>
      </trkpt>
      <trkpt lat="42.1712080" lon="-8.7974310">
        <ele>166.0</ele>
        <time>2021-05-20T07:23:30Z</time>
      </trkpt>
      <trkpt lat="42.1712020" lon="-8.7974580">
        <ele>165.8</ele>
        <time>2021-05-20T07:23:31Z</time>
      </trkpt>
      <trkpt lat="42.1711980" lon="-8.7974700">
        <ele>165.7</ele>
        <time>2021-05-20T07:23:32Z</time>
      </trkpt>
      <trkpt lat="42.1711940" lon="-8.7974810">
        <ele>165.6</ele>
        <time>2021-05-20T07:23:33Z</time>
      </trkpt>
      <trkpt lat="42.1711900" lon="-8.7975020">
        <ele>165.5</ele>
        <time>2021-05-20T07:23:34Z</time>
      </trkpt>
      <trkpt lat="42.1711870" lon="-8.7975080">
        <ele>165.4</ele>
        <time>2021-05-20T07:23:35Z</time>
      </trkpt>
      <trkpt lat="42.1711820" lon="-8.7975220">
        <ele>165.3</ele>
        <time>2021-05-20T07:23:36Z</time>
      </trkpt>
      <trkpt lat="42.1711860" lon="-8.7975120">
        <ele>165.2</ele>
        <time>2021-05-20T07:23:37Z</time>
      </trkpt>
      <trkpt lat="42.1711880" lon="-8.7975160">
        <ele>165.2</ele>
        <time>2021-05-20T07:23:38Z</time>
      </trkpt>
      <trkpt lat="42.1711910" lon="-8.7975120">
        <ele>165.2</ele>
        <time>2021-05-20T07:23:39Z</time>
      </trkpt>
      <trkpt lat="42.1711870" lon="-8.7975140">
        <ele>165.1</ele>
        <time>2021-05-20T07:23:40Z</time>
      </trkpt>
      <trkpt lat="42.1711870" lon="-8.7975230">
        <ele>165.1</ele>
        <time>2021-05-20T07:23:41Z</time>
      </trkpt>
      <trkpt lat="42.1711960" lon="-8.7975300">
        <ele>165.0</ele>
        <time>2021-05-20T07:23:42Z</time>
      </trkpt>
      <trkpt lat="42.1712030" lon="-8.7975410">
        <ele>164.9</ele>
        <time>2021-05-20T07:23:43Z</time>
      </trkpt>
      <trkpt lat="42.1712080" lon="-8.7975510">
        <ele>164.9</ele>
        <time>2021-05-20T07:23:44Z</time>
      </trkpt>
      <trkpt lat="42.1712000" lon="-8.7975750">
        <ele>164.8</ele>
        <time>2021-05-20T07:23:45Z</time>
      </trkpt>
      <trkpt lat="42.1712160" lon="-8.7975940">
        <ele>164.6</ele>
        <time>2021-05-20T07:23:46Z</time>
      </trkpt>
      <trkpt lat="42.1712250" lon="-8.7976190">
        <ele>164.5</ele>
        <time>2021-05-20T07:23:47Z</time>
      </trkpt>
      <trkpt lat="42.1712290" lon="-8.7976300">
        <ele>164.4</ele>
        <time>2021-05-20T07:23:48Z</time>
      </trkpt>
      <trkpt lat="42.1712340" lon="-8.7976400">
        <ele>164.4</ele>
        <time>2021-05-20T07:23:49Z</time>
      </trkpt>
      <trkpt lat="42.1712450" lon="-8.7976590">
        <ele>164.3</ele>
        <time>2021-05-20T07:23:50Z</time>
      </trkpt>
      <trkpt lat="42.1712590" lon="-8.7976700">
        <ele>164.2</ele>
        <time>2021-05-20T07:23:51Z</time>
      </trkpt>
      <trkpt lat="42.1712700" lon="-8.7976820">
        <ele>164.1</ele>
        <time>2021-05-20T07:23:52Z</time>
      </trkpt>
      <trkpt lat="42.1712780" lon="-8.7976860">
        <ele>164.0</ele>
        <time>2021-05-20T07:23:53Z</time>
      </trkpt>
      <trkpt lat="42.1712880" lon="-8.7976930">
        <ele>164.0</ele>
        <time>2021-05-20T07:23:54Z</time>
      </trkpt>
      <trkpt lat="42.1712950" lon="-8.7976990">
        <ele>163.9</ele>
        <time>2021-05-20T07:23:55Z</time>
      </trkpt>
      <trkpt lat="42.1713060" lon="-8.7977090">
        <ele>163.8</ele>
        <time>2021-05-20T07:23:56Z</time>
      </trkpt>
      <trkpt lat="42.1713150" lon="-8.7977150">
        <ele>163.8</ele>
        <time>2021-05-20T07:23:57Z</time>
      </trkpt>
      <trkpt lat="42.1713340" lon="-8.7977170">
        <ele>163.6</ele>
        <time>2021-05-20T07:23:58Z</time>
      </trkpt>
      <trkpt lat="42.1713430" lon="-8.7977120">
        <ele>163.6</ele>
        <time>2021-05-20T07:23:59Z</time>
      </trkpt>
      <trkpt lat="42.1713670" lon="-8.7977130">
        <ele>163.4</ele>
        <time>2021-05-20T07:24:00Z</time>
      </trkpt>
      <trkpt lat="42.1713760" lon="-8.7977130">
        <ele>163.2</ele>
        <time>2021-05-20T07:24:01Z</time>
      </trkpt>
      <trkpt lat="42.1713860" lon="-8.7977120">
        <ele>163.0</ele>
        <time>2021-05-20T07:24:02Z</time>
      </trkpt>
      <trkpt lat="42.1713980" lon="-8.7977110">
        <ele>162.8</ele>
        <time>2021-05-20T07:24:03Z</time>
      </trkpt>
      <trkpt lat="42.1714050" lon="-8.7977000">
        <ele>162.6</ele>
        <time>2021-05-20T07:24:04Z</time>
      </trkpt>
      <trkpt lat="42.1714140" lon="-8.7976960">
        <ele>162.4</ele>
        <time>2021-05-20T07:24:05Z</time>
      </trkpt>
      <trkpt lat="42.1714250" lon="-8.7976910">
        <ele>162.2</ele>
        <time>2021-05-20T07:24:06Z</time>
      </trkpt>
      <trkpt lat="42.1714350" lon="-8.7976840">
        <ele>162.0</ele>
        <time>2021-05-20T07:24:07Z</time>
      </trkpt>
      <trkpt lat="42.1714410" lon="-8.7976880">
        <ele>161.8</ele>
        <time>2021-05-20T07:24:08Z</time>
      </trkpt>
      <trkpt lat="42.1714500" lon="-8.7976910">
        <ele>161.7</ele>
        <time>2021-05-20T07:24:09Z</time>
      </trkpt>
      <trkpt lat="42.1714570" lon="-8.7976950">
        <ele>161.5</ele>
        <time>2021-05-20T07:24:10Z</time>
      </trkpt>
      <trkpt lat="42.1714630" lon="-8.7976950">
        <ele>161.4</ele>
        <time>2021-05-20T07:24:11Z</time>
      </trkpt>
      <trkpt lat="42.1714740" lon="-8.7977010">
        <ele>161.2</ele>
        <time>2021-05-20T07:24:12Z</time>
      </trkpt>
      <trkpt lat="42.1714780" lon="-8.7977060">
        <ele>161.1</ele>
        <time>2021-05-20T07:24:13Z</time>
      </trkpt>
      <trkpt lat="42.1714770" lon="-8.7977150">
        <ele>160.9</ele>
        <time>2021-05-20T07:24:14Z</time>
      </trkpt>
      <trkpt lat="42.1714800" lon="-8.7977220">
        <ele>160.8</ele>
        <time>2021-05-20T07:24:15Z</time>
      </trkpt>
      <trkpt lat="42.1714830" lon="-8.7977270">
        <ele>160.7</ele>
        <time>2021-05-20T07:24:16Z</time>
      </trkpt>
      <trkpt lat="42.1714790" lon="-8.7977390">
        <ele>160.5</ele>
        <time>2021-05-20T07:24:17Z</time>
      </trkpt>
      <trkpt lat="42.1714810" lon="-8.7977610">
        <ele>160.2</ele>
        <time>2021-05-20T07:24:18Z</time>
      </trkpt>
      <trkpt lat="42.1714840" lon="-8.7977720">
        <ele>160.0</ele>
        <time>2021-05-20T07:24:19Z</time>
      </trkpt>
      <trkpt lat="42.1714860" lon="-8.7977830">
        <ele>159.8</ele>
        <time>2021-05-20T07:24:20Z</time>
      </trkpt>
      <trkpt lat="42.1714890" lon="-8.7977940">
        <ele>159.8</ele>
        <time>2021-05-20T07:24:21Z</time>
      </trkpt>
      <trkpt lat="42.1714910" lon="-8.7978020">
        <ele>159.8</ele>
        <time>2021-05-20T07:24:22Z</time>
      </trkpt>
      <trkpt lat="42.1714900" lon="-8.7978160">
        <ele>159.8</ele>
        <time>2021-05-20T07:24:23Z</time>
      </trkpt>
      <trkpt lat="42.1714920" lon="-8.7978260">
        <ele>159.7</ele>
        <time>2021-05-20T07:24:24Z</time>
      </trkpt>
      <trkpt lat="42.1714900" lon="-8.7978400">
        <ele>159.7</ele>
        <time>2021-05-20T07:24:25Z</time>
      </trkpt>
      <trkpt lat="42.1714780" lon="-8.7978430">
        <ele>159.7</ele>
        <time>2021-05-20T07:24:26Z</time>
      </trkpt>
      <trkpt lat="42.1714810" lon="-8.7978540">
        <ele>159.7</ele>
        <time>2021-05-20T07:24:27Z</time>
      </trkpt>
      <trkpt lat="42.1714810" lon="-8.7978600">
        <ele>159.6</ele>
        <time>2021-05-20T07:24:28Z</time>
      </trkpt>
      <trkpt lat="42.1714900" lon="-8.7978790">
        <ele>159.6</ele>
        <time>2021-05-20T07:24:29Z</time>
      </trkpt>
      <trkpt lat="42.1714950" lon="-8.7979030">
        <ele>159.5</ele>
        <time>2021-05-20T07:24:30Z</time>
      </trkpt>
      <trkpt lat="42.1714900" lon="-8.7979090">
        <ele>159.5</ele>
        <time>2021-05-20T07:24:31Z</time>
      </trkpt>
      <trkpt lat="42.1714860" lon="-8.7979070">
        <ele>159.5</ele>
        <time>2021-05-20T07:24:32Z</time>
      </trkpt>
      <trkpt lat="42.1714840" lon="-8.7979100">
        <ele>159.5</ele>
        <time>2021-05-20T07:24:33Z</time>
      </trkpt>
      <trkpt lat="42.1714880" lon="-8.7979220">
        <ele>159.4</ele>
        <time>2021-05-20T07:24:34Z</time>
      </trkpt>
      <trkpt lat="42.1714930" lon="-8.7979390">
        <ele>159.4</ele>
        <time>2021-05-20T07:24:35Z</time>
      </trkpt>
      <trkpt lat="42.1714930" lon="-8.7979630">
        <ele>159.3</ele>
        <time>2021-05-20T07:24:36Z</time>
      </trkpt>
      <trkpt lat="42.1714960" lon="-8.7979800">
        <ele>159.2</ele>
        <time>2021-05-20T07:24:37Z</time>
      </trkpt>
      <trkpt lat="42.1715090" lon="-8.7979960">
        <ele>159.1</ele>
        <time>2021-05-20T07:24:38Z</time>
      </trkpt>
      <trkpt lat="42.1715170" lon="-8.7980030">
        <ele>159.1</ele>
        <time>2021-05-20T07:24:39Z</time>
      </trkpt>
      <trkpt lat="42.1715290" lon="-8.7979990">
        <ele>159.0</ele>
        <time>2021-05-20T07:24:40Z</time>
      </trkpt>
      <trkpt lat="42.1715350" lon="-8.7980020">
        <ele>158.9</ele>
        <time>2021-05-20T07:24:41Z</time>
      </trkpt>
      <trkpt lat="42.1715420" lon="-8.7979970">
        <ele>158.9</ele>
        <time>2021-05-20T07:24:42Z</time>
      </trkpt>
      <trkpt lat="42.1715440" lon="-8.7979980">
        <ele>158.7</ele>
        <time>2021-05-20T07:24:43Z</time>
      </trkpt>
      <trkpt lat="42.1715420" lon="-8.7980000">
        <ele>158.6</ele>
        <time>2021-05-20T07:24:44Z</time>
      </trkpt>
      <trkpt lat="42.1715410" lon="-8.7979990">
        <ele>158.6</ele>
        <time>2021-05-20T07:24:45Z</time>
      </trkpt>
      <trkpt lat="42.1715410" lon="-8.7979990">
        <ele>158.6</ele>
        <time>2021-05-20T07:24:46Z</time>
      </trkpt>
      <trkpt lat="42.1715570" lon="-8.7980020">
        <ele>158.4</ele>
        <time>2021-05-20T07:24:47Z</time>
      </trkpt>
      <trkpt lat="42.1715570" lon="-8.7980020">
        <ele>158.4</ele>
        <time>2021-05-20T07:24:48Z</time>
      </trkpt>
      <trkpt lat="42.1715640" lon="-8.7980030">
        <ele>158.3</ele>
        <time>2021-05-20T07:24:49Z</time>
      </trkpt>
      <trkpt lat="42.1715670" lon="-8.7980010">
        <ele>158.3</ele>
        <time>2021-05-20T07:24:50Z</time>
      </trkpt>
      <trkpt lat="42.1715700" lon="-8.7979960">
        <ele>158.2</ele>
        <time>2021-05-20T07:24:51Z</time>
      </trkpt>
      <trkpt lat="42.1715780" lon="-8.7979930">
        <ele>158.1</ele>
        <time>2021-05-20T07:24:52Z</time>
      </trkpt>
      <trkpt lat="42.1715830" lon="-8.7979970">
        <ele>158.0</ele>
        <time>2021-05-20T07:24:53Z</time>
      </trkpt>
      <trkpt lat="42.1715890" lon="-8.7979890">
        <ele>157.9</ele>
        <time>2021-05-20T07:24:54Z</time>
      </trkpt>
      <trkpt lat="42.1715940" lon="-8.7979890">
        <ele>157.8</ele>
        <time>2021-05-20T07:24:55Z</time>
      </trkpt>
      <trkpt lat="42.1716010" lon="-8.7979840">
        <ele>157.7</ele>
        <time>2021-05-20T07:24:56Z</time>
      </trkpt>
      <trkpt lat="42.1716040" lon="-8.7979740">
        <ele>157.6</ele>
        <time>2021-05-20T07:24:57Z</time>
      </trkpt>
      <trkpt lat="42.1716150" lon="-8.7979670">
        <ele>157.5</ele>
        <time>2021-05-20T07:24:58Z</time>
      </trkpt>
      <trkpt lat="42.1716220" lon="-8.7979710">
        <ele>157.4</ele>
        <time>2021-05-20T07:24:59Z</time>
      </trkpt>
      <trkpt lat="42.1716270" lon="-8.7979730">
        <ele>157.3</ele>
        <time>2021-05-20T07:25:00Z</time>
      </trkpt>
      <trkpt lat="42.1716460" lon="-8.7979670">
        <ele>157.1</ele>
        <time>2021-05-20T07:25:01Z</time>
      </trkpt>
      <trkpt lat="42.1716530" lon="-8.7979660">
        <ele>157.0</ele>
        <time>2021-05-20T07:25:02Z</time>
      </trkpt>
      <trkpt lat="42.1716600" lon="-8.7979650">
        <ele>156.9</ele>
        <time>2021-05-20T07:25:03Z</time>
      </trkpt>
      <trkpt lat="42.1716670" lon="-8.7979640">
        <ele>156.8</ele>
        <time>2021-05-20T07:25:04Z</time>
      </trkpt>
      <trkpt lat="42.1716870" lon="-8.7979550">
        <ele>156.5</ele>
        <time>2021-05-20T07:25:05Z</time>
      </trkpt>
      <trkpt lat="42.1716960" lon="-8.7979520">
        <ele>156.4</ele>
        <time>2021-05-20T07:25:06Z</time>
      </trkpt>
      <trkpt lat="42.1717050" lon="-8.7979500">
        <ele>156.3</ele>
        <time>2021-05-20T07:25:07Z</time>
      </trkpt>
      <trkpt lat="42.1717140" lon="-8.7979440">
        <ele>156.1</ele>
        <time>2021-05-20T07:25:08Z</time>
      </trkpt>
      <trkpt lat="42.1717250" lon="-8.7979500">
        <ele>156.0</ele>
        <time>2021-05-20T07:25:09Z</time>
      </trkpt>
      <trkpt lat="42.1717400" lon="-8.7979470">
        <ele>155.8</ele>
        <time>2021-05-20T07:25:10Z</time>
      </trkpt>
      <trkpt lat="42.1717520" lon="-8.7979500">
        <ele>155.6</ele>
        <time>2021-05-20T07:25:11Z</time>
      </trkpt>
      <trkpt lat="42.1717660" lon="-8.7979410">
        <ele>155.4</ele>
        <time>2021-05-20T07:25:12Z</time>
      </trkpt>
      <trkpt lat="42.1717670" lon="-8.7979390">
        <ele>155.4</ele>
        <time>2021-05-20T07:25:13Z</time>
      </trkpt>
      <trkpt lat="42.1717750" lon="-8.7979420">
        <ele>155.2</ele>
        <time>2021-05-20T07:25:14Z</time>
      </trkpt>
      <trkpt lat="42.1717900" lon="-8.7979400">
        <ele>155.0</ele>
        <time>2021-05-20T07:25:15Z</time>
      </trkpt>
      <trkpt lat="42.1718000" lon="-8.7979380">
        <ele>154.9</ele>
        <time>2021-05-20T07:25:16Z</time>
      </trkpt>
      <trkpt lat="42.1718000" lon="-8.7979350">
        <ele>154.9</ele>
        <time>2021-05-20T07:25:17Z</time>
      </trkpt>
      <trkpt lat="42.1718040" lon="-8.7979280">
        <ele>154.8</ele>
        <time>2021-05-20T07:25:18Z</time>
      </trkpt>
      <trkpt lat="42.1718090" lon="-8.7979310">
        <ele>154.7</ele>
        <time>2021-05-20T07:25:19Z</time>
      </trkpt>
      <trkpt lat="42.1718190" lon="-8.7979340">
        <ele>153.8</ele>
        <time>2021-05-20T07:25:20Z</time>
      </trkpt>
      <trkpt lat="42.1718270" lon="-8.7979250">
        <ele>153.6</ele>
        <time>2021-05-20T07:25:21Z</time>
      </trkpt>
      <trkpt lat="42.1718240" lon="-8.7979280">
        <ele>153.5</ele>
        <time>2021-05-20T07:25:22Z</time>
      </trkpt>
      <trkpt lat="42.1718430" lon="-8.7979300">
        <ele>153.0</ele>
        <time>2021-05-20T07:25:23Z</time>
      </trkpt>
      <trkpt lat="42.1718420" lon="-8.7979300">
        <ele>153.0</ele>
        <time>2021-05-20T07:25:24Z</time>
      </trkpt>
      <trkpt lat="42.1718520" lon="-8.7979200">
        <ele>152.7</ele>
        <time>2021-05-20T07:25:25Z</time>
      </trkpt>
      <trkpt lat="42.1718610" lon="-8.7979100">
        <ele>152.4</ele>
        <time>2021-05-20T07:25:26Z</time>
      </trkpt>
      <trkpt lat="42.1718770" lon="-8.7978900">
        <ele>152.2</ele>
        <time>2021-05-20T07:25:27Z</time>
      </trkpt>
      <trkpt lat="42.1718880" lon="-8.7978900">
        <ele>152.3</ele>
        <time>2021-05-20T07:25:28Z</time>
      </trkpt>
      <trkpt lat="42.1718950" lon="-8.7978930">
        <ele>152.4</ele>
        <time>2021-05-20T07:25:29Z</time>
      </trkpt>
      <trkpt lat="42.1719030" lon="-8.7978920">
        <ele>152.5</ele>
        <time>2021-05-20T07:25:30Z</time>
      </trkpt>
      <trkpt lat="42.1719120" lon="-8.7978910">
        <ele>152.6</ele>
        <time>2021-05-20T07:25:31Z</time>
      </trkpt>
      <trkpt lat="42.1719200" lon="-8.7978900">
        <ele>152.7</ele>
        <time>2021-05-20T07:25:32Z</time>
      </trkpt>
      <trkpt lat="42.1719280" lon="-8.7978890">
        <ele>152.7</ele>
        <time>2021-05-20T07:25:33Z</time>
      </trkpt>
      <trkpt lat="42.1719410" lon="-8.7978870">
        <ele>152.9</ele>
        <time>2021-05-20T07:25:34Z</time>
      </trkpt>
      <trkpt lat="42.1719480" lon="-8.7978840">
        <ele>152.9</ele>
        <time>2021-05-20T07:25:35Z</time>
      </trkpt>
      <trkpt lat="42.1719510" lon="-8.7978760">
        <ele>153.0</ele>
        <time>2021-05-20T07:25:36Z</time>
      </trkpt>
      <trkpt lat="42.1719610" lon="-8.7978700">
        <ele>153.1</ele>
        <time>2021-05-20T07:25:37Z</time>
      </trkpt>
      <trkpt lat="42.1719820" lon="-8.7978740">
        <ele>153.3</ele>
        <time>2021-05-20T07:25:38Z</time>
      </trkpt>
      <trkpt lat="42.1719970" lon="-8.7978760">
        <ele>153.4</ele>
        <time>2021-05-20T07:25:39Z</time>
      </trkpt>
      <trkpt lat="42.1720120" lon="-8.7978770">
        <ele>153.6</ele>
        <time>2021-05-20T07:25:40Z</time>
      </trkpt>
      <trkpt lat="42.1720190" lon="-8.7978710">
        <ele>153.7</ele>
        <time>2021-05-20T07:25:41Z</time>
      </trkpt>
      <trkpt lat="42.1720280" lon="-8.7978660">
        <ele>153.8</ele>
        <time>2021-05-20T07:25:42Z</time>
      </trkpt>
      <trkpt lat="42.1720400" lon="-8.7978600">
        <ele>153.9</ele>
        <time>2021-05-20T07:25:43Z</time>
      </trkpt>
      <trkpt lat="42.1720510" lon="-8.7978500">
        <ele>153.3</ele>
        <time>2021-05-20T07:25:44Z</time>
      </trkpt>
      <trkpt lat="42.1720530" lon="-8.7978570">
        <ele>153.0</ele>
        <time>2021-05-20T07:25:45Z</time>
      </trkpt>
      <trkpt lat="42.1720510" lon="-8.7978630">
        <ele>152.8</ele>
        <time>2021-05-20T07:25:46Z</time>
      </trkpt>
      <trkpt lat="42.1720590" lon="-8.7978640">
        <ele>152.5</ele>
        <time>2021-05-20T07:25:47Z</time>
      </trkpt>
      <trkpt lat="42.1720730" lon="-8.7978570">
        <ele>151.9</ele>
        <time>2021-05-20T07:25:48Z</time>
      </trkpt>
      <trkpt lat="42.1721080" lon="-8.7978530">
        <ele>150.5</ele>
        <time>2021-05-20T07:25:49Z</time>
      </trkpt>
      <trkpt lat="42.1721230" lon="-8.7978480">
        <ele>149.9</ele>
        <time>2021-05-20T07:25:50Z</time>
      </trkpt>
      <trkpt lat="42.1721360" lon="-8.7978510">
        <ele>149.4</ele>
        <time>2021-05-20T07:25:51Z</time>
      </trkpt>
      <trkpt lat="42.1721440" lon="-8.7978450">
        <ele>149.1</ele>
        <time>2021-05-20T07:25:52Z</time>
      </trkpt>
      <trkpt lat="42.1721420" lon="-8.7978440">
        <ele>149.0</ele>
        <time>2021-05-20T07:25:53Z</time>
      </trkpt>
      <trkpt lat="42.1721440" lon="-8.7978370">
        <ele>148.8</ele>
        <time>2021-05-20T07:25:54Z</time>
      </trkpt>
      <trkpt lat="42.1721560" lon="-8.7978270">
        <ele>148.2</ele>
        <time>2021-05-20T07:25:55Z</time>
      </trkpt>
      <trkpt lat="42.1721640" lon="-8.7978300">
        <ele>147.9</ele>
        <time>2021-05-20T07:25:56Z</time>
      </trkpt>
      <trkpt lat="42.1721630" lon="-8.7978340">
        <ele>147.8</ele>
        <time>2021-05-20T07:25:57Z</time>
      </trkpt>
      <trkpt lat="42.1721730" lon="-8.7978330">
        <ele>147.4</ele>
        <time>2021-05-20T07:25:58Z</time>
      </trkpt>
      <trkpt lat="42.1721860" lon="-8.7978320">
        <ele>146.9</ele>
        <time>2021-05-20T07:25:59Z</time>
      </trkpt>
      <trkpt lat="42.1721940" lon="-8.7978280">
        <ele>146.5</ele>
        <time>2021-05-20T07:26:00Z</time>
      </trkpt>
      <trkpt lat="42.1722010" lon="-8.7978280">
        <ele>146.2</ele>
        <time>2021-05-20T07:26:01Z</time>
      </trkpt>
      <trkpt lat="42.1722140" lon="-8.7978220">
        <ele>145.7</ele>
        <time>2021-05-20T07:26:02Z</time>
      </trkpt>
      <trkpt lat="42.1722380" lon="-8.7978170">
        <ele>144.8</ele>
        <time>2021-05-20T07:26:03Z</time>
      </trkpt>
      <trkpt lat="42.1722470" lon="-8.7978120">
        <ele>144.4</ele>
        <time>2021-05-20T07:26:04Z</time>
      </trkpt>
      <trkpt lat="42.1722550" lon="-8.7978080">
        <ele>144.5</ele>
        <time>2021-05-20T07:26:05Z</time>
      </trkpt>
      <trkpt lat="42.1722620" lon="-8.7978010">
        <ele>144.6</ele>
        <time>2021-05-20T07:26:06Z</time>
      </trkpt>
      <trkpt lat="42.1722660" lon="-8.7977960">
        <ele>144.6</ele>
        <time>2021-05-20T07:26:07Z</time>
      </trkpt>
      <trkpt lat="42.1722770" lon="-8.7977760">
        <ele>144.8</ele>
        <time>2021-05-20T07:26:08Z</time>
      </trkpt>
      <trkpt lat="42.1722760" lon="-8.7977730">
        <ele>144.8</ele>
        <time>2021-05-20T07:26:09Z</time>
      </trkpt>
      <trkpt lat="42.1722840" lon="-8.7977660">
        <ele>144.9</ele>
        <time>2021-05-20T07:26:10Z</time>
      </trkpt>
      <trkpt lat="42.1722920" lon="-8.7977530">
        <ele>145.0</ele>
        <time>2021-05-20T07:26:11Z</time>
      </trkpt>
      <trkpt lat="42.1723030" lon="-8.7977470">
        <ele>145.1</ele>
        <time>2021-05-20T07:26:12Z</time>
      </trkpt>
      <trkpt lat="42.1723060" lon="-8.7977370">
        <ele>145.2</ele>
        <time>2021-05-20T07:26:13Z</time>
      </trkpt>
      <trkpt lat="42.1723070" lon="-8.7977270">
        <ele>145.2</ele>
        <time>2021-05-20T07:26:14Z</time>
      </trkpt>
      <trkpt lat="42.1723020" lon="-8.7977240">
        <ele>145.3</ele>
        <time>2021-05-20T07:26:15Z</time>
      </trkpt>
      <trkpt lat="42.1722900" lon="-8.7977190">
        <ele>145.4</ele>
        <time>2021-05-20T07:26:16Z</time>
      </trkpt>
      <trkpt lat="42.1722880" lon="-8.7977100">
        <ele>145.4</ele>
        <time>2021-05-20T07:26:17Z</time>
      </trkpt>
      <trkpt lat="42.1722910" lon="-8.7976940">
        <ele>145.6</ele>
        <time>2021-05-20T07:26:18Z</time>
      </trkpt>
      <trkpt lat="42.1722950" lon="-8.7976830">
        <ele>145.6</ele>
        <time>2021-05-20T07:26:19Z</time>
      </trkpt>
      <trkpt lat="42.1722980" lon="-8.7976710">
        <ele>145.7</ele>
        <time>2021-05-20T07:26:20Z</time>
      </trkpt>
      <trkpt lat="42.1723020" lon="-8.7976590">
        <ele>145.8</ele>
        <time>2021-05-20T07:26:21Z</time>
      </trkpt>
      <trkpt lat="42.1723030" lon="-8.7976520">
        <ele>145.9</ele>
        <time>2021-05-20T07:26:22Z</time>
      </trkpt>
      <trkpt lat="42.1723040" lon="-8.7976380">
        <ele>145.9</ele>
        <time>2021-05-20T07:26:23Z</time>
      </trkpt>
      <trkpt lat="42.1723190" lon="-8.7976260">
        <ele>146.1</ele>
        <time>2021-05-20T07:26:24Z</time>
      </trkpt>
      <trkpt lat="42.1723320" lon="-8.7976110">
        <ele>146.2</ele>
        <time>2021-05-20T07:26:25Z</time>
      </trkpt>
      <trkpt lat="42.1723300" lon="-8.7975940">
        <ele>146.3</ele>
        <time>2021-05-20T07:26:26Z</time>
      </trkpt>
      <trkpt lat="42.1723200" lon="-8.7975910">
        <ele>146.4</ele>
        <time>2021-05-20T07:26:27Z</time>
      </trkpt>
      <trkpt lat="42.1723140" lon="-8.7975840">
        <ele>146.5</ele>
        <time>2021-05-20T07:26:28Z</time>
      </trkpt>
      <trkpt lat="42.1723070" lon="-8.7975790">
        <ele>146.6</ele>
        <time>2021-05-20T07:26:29Z</time>
      </trkpt>
      <trkpt lat="42.1723040" lon="-8.7975640">
        <ele>146.7</ele>
        <time>2021-05-20T07:26:30Z</time>
      </trkpt>
      <trkpt lat="42.1723070" lon="-8.7975490">
        <ele>146.7</ele>
        <time>2021-05-20T07:26:31Z</time>
      </trkpt>
      <trkpt lat="42.1723040" lon="-8.7975400">
        <ele>146.8</ele>
        <time>2021-05-20T07:26:32Z</time>
      </trkpt>
      <trkpt lat="42.1723040" lon="-8.7975270">
        <ele>146.9</ele>
        <time>2021-05-20T07:26:33Z</time>
      </trkpt>
      <trkpt lat="42.1722960" lon="-8.7975180">
        <ele>147.0</ele>
        <time>2021-05-20T07:26:34Z</time>
      </trkpt>
      <trkpt lat="42.1722920" lon="-8.7975120">
        <ele>147.0</ele>
        <time>2021-05-20T07:26:35Z</time>
      </trkpt>
      <trkpt lat="42.1722850" lon="-8.7975110">
        <ele>147.1</ele>
        <time>2021-05-20T07:26:36Z</time>
      </trkpt>
      <trkpt lat="42.1722840" lon="-8.7975000">
        <ele>147.1</ele>
        <time>2021-05-20T07:26:37Z</time>
      </trkpt>
      <trkpt lat="42.1722840" lon="-8.7974780">
        <ele>147.3</ele>
        <time>2021-05-20T07:26:38Z</time>
      </trkpt>
      <trkpt lat="42.1722870" lon="-8.7974680">
        <ele>147.3</ele>
        <time>2021-05-20T07:26:39Z</time>
      </trkpt>
      <trkpt lat="42.1722820" lon="-8.7974540">
        <ele>147.4</ele>
        <time>2021-05-20T07:26:40Z</time>
      </trkpt>
      <trkpt lat="42.1722700" lon="-8.7974320">
        <ele>147.5</ele>
        <time>2021-05-20T07:26:41Z</time>
      </trkpt>
      <trkpt lat="42.1722630" lon="-8.7974300">
        <ele>147.6</ele>
        <time>2021-05-20T07:26:42Z</time>
      </trkpt>
      <trkpt lat="42.1722610" lon="-8.7974310">
        <ele>147.6</ele>
        <time>2021-05-20T07:26:43Z</time>
      </trkpt>
      <trkpt lat="42.1722510" lon="-8.7974320">
        <ele>147.7</ele>
        <time>2021-05-20T07:26:44Z</time>
      </trkpt>
      <trkpt lat="42.1722550" lon="-8.7974260">
        <ele>147.7</ele>
        <time>2021-05-20T07:26:45Z</time>
      </trkpt>
      <trkpt lat="42.1722570" lon="-8.7974150">
        <ele>147.8</ele>
        <time>2021-05-20T07:26:46Z</time>
      </trkpt>
      <trkpt lat="42.1722560" lon="-8.7973930">
        <ele>147.9</ele>
        <time>2021-05-20T07:26:47Z</time>
      </trkpt>
      <trkpt lat="42.1722470" lon="-8.7973810">
        <ele>148.0</ele>
        <time>2021-05-20T07:26:48Z</time>
      </trkpt>
      <trkpt lat="42.1722460" lon="-8.7973640">
        <ele>148.0</ele>
        <time>2021-05-20T07:26:49Z</time>
      </trkpt>
      <trkpt lat="42.1722440" lon="-8.7973500">
        <ele>148.1</ele>
        <time>2021-05-20T07:26:50Z</time>
      </trkpt>
      <trkpt lat="42.1722290" lon="-8.7973320">
        <ele>148.2</ele>
        <time>2021-05-20T07:26:51Z</time>
      </trkpt>
      <trkpt lat="42.1722240" lon="-8.7973220">
        <ele>148.3</ele>
        <time>2021-05-20T07:26:52Z</time>
      </trkpt>
      <trkpt lat="42.1722190" lon="-8.7973130">
        <ele>148.4</ele>
        <time>2021-05-20T07:26:53Z</time>
      </trkpt>
      <trkpt lat="42.1722170" lon="-8.7973100">
        <ele>148.4</ele>
        <time>2021-05-20T07:26:54Z</time>
      </trkpt>
      <trkpt lat="42.1722190" lon="-8.7973180">
        <ele>148.4</ele>
        <time>2021-05-20T07:26:55Z</time>
      </trkpt>
      <trkpt lat="42.1722200" lon="-8.7973170">
        <ele>148.4</ele>
        <time>2021-05-20T07:26:56Z</time>
      </trkpt>
      <trkpt lat="42.1722240" lon="-8.7973150">
        <ele>148.4</ele>
        <time>2021-05-20T07:26:57Z</time>
      </trkpt>
      <trkpt lat="42.1722210" lon="-8.7973120">
        <ele>148.4</ele>
        <time>2021-05-20T07:26:58Z</time>
      </trkpt>
      <trkpt lat="42.1722150" lon="-8.7972980">
        <ele>148.5</ele>
        <time>2021-05-20T07:26:59Z</time>
      </trkpt>
      <trkpt lat="42.1722100" lon="-8.7972880">
        <ele>148.6</ele>
        <time>2021-05-20T07:27:00Z</time>
      </trkpt>
      <trkpt lat="42.1721990" lon="-8.7972790">
        <ele>148.6</ele>
        <time>2021-05-20T07:27:01Z</time>
      </trkpt>
      <trkpt lat="42.1721930" lon="-8.7972770">
        <ele>148.6</ele>
        <time>2021-05-20T07:27:02Z</time>
      </trkpt>
      <trkpt lat="42.1721870" lon="-8.7972760">
        <ele>148.7</ele>
        <time>2021-05-20T07:27:03Z</time>
      </trkpt>
      <trkpt lat="42.1721880" lon="-8.7972720">
        <ele>148.7</ele>
        <time>2021-05-20T07:27:04Z</time>
      </trkpt>
      <trkpt lat="42.1721820" lon="-8.7972670">
        <ele>148.7</ele>
        <time>2021-05-20T07:27:05Z</time>
      </trkpt>
      <trkpt lat="42.1721710" lon="-8.7972600">
        <ele>148.8</ele>
        <time>2021-05-20T07:27:06Z</time>
      </trkpt>
      <trkpt lat="42.1721740" lon="-8.7972410">
        <ele>148.8</ele>
        <time>2021-05-20T07:27:07Z</time>
      </trkpt>
      <trkpt lat="42.1721790" lon="-8.7972230">
        <ele>148.9</ele>
        <time>2021-05-20T07:27:08Z</time>
      </trkpt>
      <trkpt lat="42.1721720" lon="-8.7972110">
        <ele>148.9</ele>
        <time>2021-05-20T07:27:09Z</time>
      </trkpt>
      <trkpt lat="42.1721690" lon="-8.7972100">
        <ele>148.9</ele>
        <time>2021-05-20T07:27:10Z</time>
      </trkpt>
      <trkpt lat="42.1721570" lon="-8.7972080">
        <ele>149.0</ele>
        <time>2021-05-20T07:27:11Z</time>
      </trkpt>
      <trkpt lat="42.1721520" lon="-8.7971950">
        <ele>149.0</ele>
        <time>2021-05-20T07:27:12Z</time>
      </trkpt>
      <trkpt lat="42.1721420" lon="-8.7971820">
        <ele>149.1</ele>
        <time>2021-05-20T07:27:13Z</time>
      </trkpt>
      <trkpt lat="42.1721350" lon="-8.7971740">
        <ele>149.1</ele>
        <time>2021-05-20T07:27:14Z</time>
      </trkpt>
      <trkpt lat="42.1721270" lon="-8.7971650">
        <ele>149.1</ele>
        <time>2021-05-20T07:27:15Z</time>
      </trkpt>
      <trkpt lat="42.1721200" lon="-8.7971570">
        <ele>149.1</ele>
        <time>2021-05-20T07:27:16Z</time>
      </trkpt>
      <trkpt lat="42.1721260" lon="-8.7971490">
        <ele>149.2</ele>
        <time>2021-05-20T07:27:17Z</time>
      </trkpt>
      <trkpt lat="42.1721290" lon="-8.7971370">
        <ele>149.2</ele>
        <time>2021-05-20T07:27:18Z</time>
      </trkpt>
      <trkpt lat="42.1721280" lon="-8.7971190">
        <ele>149.2</ele>
        <time>2021-05-20T07:27:19Z</time>
      </trkpt>
      <trkpt lat="42.1721270" lon="-8.7971010">
        <ele>149.2</ele>
        <time>2021-05-20T07:27:20Z</time>
      </trkpt>
      <trkpt lat="42.1721330" lon="-8.7970840">
        <ele>149.3</ele>
        <time>2021-05-20T07:27:21Z</time>
      </trkpt>
      <trkpt lat="42.1721370" lon="-8.7970580">
        <ele>149.3</ele>
        <time>2021-05-20T07:27:22Z</time>
      </trkpt>
      <trkpt lat="42.1721390" lon="-8.7970490">
        <ele>149.3</ele>
        <time>2021-05-20T07:27:23Z</time>
      </trkpt>
      <trkpt lat="42.1721400" lon="-8.7970390">
        <ele>149.3</ele>
        <time>2021-05-20T07:27:24Z</time>
      </trkpt>
      <trkpt lat="42.1721410" lon="-8.7970300">
        <ele>149.3</ele>
        <time>2021-05-20T07:27:25Z</time>
      </trkpt>
      <trkpt lat="42.1721380" lon="-8.7970130">
        <ele>149.4</ele>
        <time>2021-05-20T07:27:26Z</time>
      </trkpt>
      <trkpt lat="42.1721440" lon="-8.7970000">
        <ele>149.4</ele>
        <time>2021-05-20T07:27:27Z</time>
      </trkpt>
      <trkpt lat="42.1721490" lon="-8.7969950">
        <ele>149.4</ele>
        <time>2021-05-20T07:27:28Z</time>
      </trkpt>
      <trkpt lat="42.1721530" lon="-8.7969870">
        <ele>149.4</ele>
        <time>2021-05-20T07:27:29Z</time>
      </trkpt>
      <trkpt lat="42.1721480" lon="-8.7969670">
        <ele>149.4</ele>
        <time>2021-05-20T07:27:30Z</time>
      </trkpt>
      <trkpt lat="42.1721470" lon="-8.7969550">
        <ele>149.4</ele>
        <time>2021-05-20T07:27:31Z</time>
      </trkpt>
      <trkpt lat="42.1721400" lon="-8.7969320">
        <ele>149.4</ele>
        <time>2021-05-20T07:27:32Z</time>
      </trkpt>
      <trkpt lat="42.1721380" lon="-8.7969260">
        <ele>149.4</ele>
        <time>2021-05-20T07:27:33Z</time>
      </trkpt>
      <trkpt lat="42.1721390" lon="-8.7969130">
        <ele>149.5</ele>
        <time>2021-05-20T07:27:34Z</time>
      </trkpt>
      <trkpt lat="42.1721440" lon="-8.7968970">
        <ele>149.5</ele>
        <time>2021-05-20T07:27:35Z</time>
      </trkpt>
      <trkpt lat="42.1721500" lon="-8.7968910">
        <ele>149.5</ele>
        <time>2021-05-20T07:27:36Z</time>
      </trkpt>
      <trkpt lat="42.1721580" lon="-8.7968780">
        <ele>149.5</ele>
        <time>2021-05-20T07:27:37Z</time>
      </trkpt>
      <trkpt lat="42.1721710" lon="-8.7968490">
        <ele>149.5</ele>
        <time>2021-05-20T07:27:38Z</time>
      </trkpt>
      <trkpt lat="42.1721780" lon="-8.7968390">
        <ele>149.5</ele>
        <time>2021-05-20T07:27:39Z</time>
      </trkpt>
      <trkpt lat="42.1721860" lon="-8.7968280">
        <ele>149.6</ele>
        <time>2021-05-20T07:27:40Z</time>
      </trkpt>
      <trkpt lat="42.1721900" lon="-8.7968170">
        <ele>149.6</ele>
        <time>2021-05-20T07:27:41Z</time>
      </trkpt>
      <trkpt lat="42.1721930" lon="-8.7968100">
        <ele>149.6</ele>
        <time>2021-05-20T07:27:42Z</time>
      </trkpt>
      <trkpt lat="42.1722060" lon="-8.7967950">
        <ele>149.6</ele>
        <time>2021-05-20T07:27:43Z</time>
      </trkpt>
      <trkpt lat="42.1722190" lon="-8.7967860">
        <ele>149.6</ele>
        <time>2021-05-20T07:27:44Z</time>
      </trkpt>
      <trkpt lat="42.1722280" lon="-8.7967820">
        <ele>149.7</ele>
        <time>2021-05-20T07:27:45Z</time>
      </trkpt>
      <trkpt lat="42.1722380" lon="-8.7967790">
        <ele>149.7</ele>
        <time>2021-05-20T07:27:46Z</time>
      </trkpt>
      <trkpt lat="42.1722470" lon="-8.7967750">
        <ele>149.7</ele>
        <time>2021-05-20T07:27:47Z</time>
      </trkpt>
      <trkpt lat="42.1722560" lon="-8.7967710">
        <ele>149.7</ele>
        <time>2021-05-20T07:27:48Z</time>
      </trkpt>
      <trkpt lat="42.1722650" lon="-8.7967670">
        <ele>149.8</ele>
        <time>2021-05-20T07:27:49Z</time>
      </trkpt>
      <trkpt lat="42.1722780" lon="-8.7967580">
        <ele>149.8</ele>
        <time>2021-05-20T07:27:50Z</time>
      </trkpt>
      <trkpt lat="42.1722920" lon="-8.7967570">
        <ele>149.8</ele>
        <time>2021-05-20T07:27:51Z</time>
      </trkpt>
      <trkpt lat="42.1723050" lon="-8.7967550">
        <ele>149.9</ele>
        <time>2021-05-20T07:27:52Z</time>
      </trkpt>
      <trkpt lat="42.1723190" lon="-8.7967490">
        <ele>149.9</ele>
        <time>2021-05-20T07:27:53Z</time>
      </trkpt>
      <trkpt lat="42.1723290" lon="-8.7967440">
        <ele>150.0</ele>
        <time>2021-05-20T07:27:54Z</time>
      </trkpt>
      <trkpt lat="42.1723390" lon="-8.7967440">
        <ele>150.0</ele>
        <time>2021-05-20T07:27:55Z</time>
      </trkpt>
      <trkpt lat="42.1723450" lon="-8.7967420">
        <ele>150.0</ele>
        <time>2021-05-20T07:27:56Z</time>
      </trkpt>
      <trkpt lat="42.1723550" lon="-8.7967310">
        <ele>150.1</ele>
        <time>2021-05-20T07:27:57Z</time>
      </trkpt>
      <trkpt lat="42.1723550" lon="-8.7967210">
        <ele>150.1</ele>
        <time>2021-05-20T07:27:58Z</time>
      </trkpt>
      <trkpt lat="42.1723610" lon="-8.7967170">
        <ele>150.1</ele>
        <time>2021-05-20T07:27:59Z</time>
      </trkpt>
      <trkpt lat="42.1723620" lon="-8.7967130">
        <ele>150.1</ele>
        <time>2021-05-20T07:28:00Z</time>
      </trkpt>
      <trkpt lat="42.1723590" lon="-8.7967100">
        <ele>150.2</ele>
        <time>2021-05-20T07:28:01Z</time>
      </trkpt>
      <trkpt lat="42.1723610" lon="-8.7967040">
        <ele>150.2</ele>
        <time>2021-05-20T07:28:02Z</time>
      </trkpt>
      <trkpt lat="42.1723700" lon="-8.7966970">
        <ele>150.2</ele>
        <time>2021-05-20T07:28:03Z</time>
      </trkpt>
      <trkpt lat="42.1723750" lon="-8.7966930">
        <ele>150.3</ele>
        <time>2021-05-20T07:28:04Z</time>
      </trkpt>
      <trkpt lat="42.1723830" lon="-8.7966830">
        <ele>150.3</ele>
        <time>2021-05-20T07:28:05Z</time>
      </trkpt>
      <trkpt lat="42.1723870" lon="-8.7966850">
        <ele>150.3</ele>
        <time>2021-05-20T07:28:06Z</time>
      </trkpt>
      <trkpt lat="42.1723860" lon="-8.7966800">
        <ele>150.4</ele>
        <time>2021-05-20T07:28:07Z</time>
      </trkpt>
      <trkpt lat="42.1723680" lon="-8.7966850">
        <ele>150.4</ele>
        <time>2021-05-20T07:28:08Z</time>
      </trkpt>
      <trkpt lat="42.1723530" lon="-8.7966870">
        <ele>150.5</ele>
        <time>2021-05-20T07:28:09Z</time>
      </trkpt>
      <trkpt lat="42.1723480" lon="-8.7966810">
        <ele>150.6</ele>
        <time>2021-05-20T07:28:10Z</time>
      </trkpt>
      <trkpt lat="42.1723470" lon="-8.7966760">
        <ele>150.6</ele>
        <time>2021-05-20T07:28:11Z</time>
      </trkpt>
      <trkpt lat="42.1723450" lon="-8.7966730">
        <ele>150.6</ele>
        <time>2021-05-20T07:28:12Z</time>
      </trkpt>
      <trkpt lat="42.1723370" lon="-8.7966730">
        <ele>150.7</ele>
        <time>2021-05-20T07:28:13Z</time>
      </trkpt>
      <trkpt lat="42.1723350" lon="-8.7966690">
        <ele>150.7</ele>
        <time>2021-05-20T07:28:14Z</time>
      </trkpt>
      <trkpt lat="42.1723350" lon="-8.7966690">
        <ele>150.7</ele>
        <time>2021-05-20T07:28:15Z</time>
      </trkpt>
      <trkpt lat="42.1723320" lon="-8.7966710">
        <ele>150.7</ele>
        <time>2021-05-20T07:28:16Z</time>
      </trkpt>
      <trkpt lat="42.1723280" lon="-8.7966750">
        <ele>150.7</ele>
        <time>2021-05-20T07:28:17Z</time>
      </trkpt>
      <trkpt lat="42.1723260" lon="-8.7966790">
        <ele>150.8</ele>
        <time>2021-05-20T07:28:18Z</time>
      </trkpt>
      <trkpt lat="42.1723250" lon="-8.7966790">
        <ele>150.8</ele>
        <time>2021-05-20T07:28:19Z</time>
      </trkpt>
      <trkpt lat="42.1723200" lon="-8.7966850">
        <ele>150.8</ele>
        <time>2021-05-20T07:28:20Z</time>
      </trkpt>
      <trkpt lat="42.1723170" lon="-8.7966920">
        <ele>150.8</ele>
        <time>2021-05-20T07:28:21Z</time>
      </trkpt>
      <trkpt lat="42.1723180" lon="-8.7966950">
        <ele>150.9</ele>
        <time>2021-05-20T07:28:22Z</time>
      </trkpt>
      <trkpt lat="42.1723210" lon="-8.7966890">
        <ele>150.9</ele>
        <time>2021-05-20T07:28:23Z</time>
      </trkpt>
      <trkpt lat="42.1723270" lon="-8.7966840">
        <ele>150.9</ele>
        <time>2021-05-20T07:28:24Z</time>
      </trkpt>
      <trkpt lat="42.1723260" lon="-8.7966890">
        <ele>151.0</ele>
        <time>2021-05-20T07:28:25Z</time>
      </trkpt>
      <trkpt lat="42.1723270" lon="-8.7966870">
        <ele>151.0</ele>
        <time>2021-05-20T07:28:26Z</time>
      </trkpt>
      <trkpt lat="42.1723300" lon="-8.7966840">
        <ele>151.0</ele>
        <time>2021-05-20T07:28:27Z</time>
      </trkpt>
      <trkpt lat="42.1723320" lon="-8.7966850">
        <ele>151.0</ele>
        <time>2021-05-20T07:28:28Z</time>
      </trkpt>
      <trkpt lat="42.1723310" lon="-8.7966770">
        <ele>151.1</ele>
        <time>2021-05-20T07:28:29Z</time>
      </trkpt>
      <trkpt lat="42.1723250" lon="-8.7966700">
        <ele>151.1</ele>
        <time>2021-05-20T07:28:30Z</time>
      </trkpt>
      <trkpt lat="42.1723260" lon="-8.7966670">
        <ele>151.1</ele>
        <time>2021-05-20T07:28:31Z</time>
      </trkpt>
      <trkpt lat="42.1723340" lon="-8.7966580">
        <ele>151.2</ele>
        <time>2021-05-20T07:28:32Z</time>
      </trkpt>
      <trkpt lat="42.1723200" lon="-8.7966740">
        <ele>151.4</ele>
        <time>2021-05-20T07:28:33Z</time>
      </trkpt>
      <trkpt lat="42.1723120" lon="-8.7966810">
        <ele>151.4</ele>
        <time>2021-05-20T07:28:34Z</time>
      </trkpt>
      <trkpt lat="42.1723090" lon="-8.7966910">
        <ele>151.5</ele>
        <time>2021-05-20T07:28:35Z</time>
      </trkpt>
      <trkpt lat="42.1723060" lon="-8.7967020">
        <ele>151.5</ele>
        <time>2021-05-20T07:28:36Z</time>
      </trkpt>
      <trkpt lat="42.1723010" lon="-8.7967080">
        <ele>151.6</ele>
        <time>2021-05-20T07:28:37Z</time>
      </trkpt>
      <trkpt lat="42.1723010" lon="-8.7967050">
        <ele>151.6</ele>
        <time>2021-05-20T07:28:38Z</time>
      </trkpt>
      <trkpt lat="42.1722980" lon="-8.7967060">
        <ele>151.6</ele>
        <time>2021-05-20T07:28:39Z</time>
      </trkpt>
      <trkpt lat="42.1722960" lon="-8.7967060">
        <ele>151.7</ele>
        <time>2021-05-20T07:28:40Z</time>
      </trkpt>
      <trkpt lat="42.1722940" lon="-8.7967020">
        <ele>151.7</ele>
        <time>2021-05-20T07:28:41Z</time>
      </trkpt>
      <trkpt lat="42.1722950" lon="-8.7967010">
        <ele>151.7</ele>
        <time>2021-05-20T07:28:42Z</time>
      </trkpt>
      <trkpt lat="42.1722930" lon="-8.7967010">
        <ele>151.7</ele>
        <time>2021-05-20T07:28:43Z</time>
      </trkpt>
      <trkpt lat="42.1722930" lon="-8.7967010">
        <ele>151.7</ele>
        <time>2021-05-20T07:28:44Z</time>
      </trkpt>
      <trkpt lat="42.1722940" lon="-8.7966980">
        <ele>151.7</ele>
        <time>2021-05-20T07:28:45Z</time>
      </trkpt>
      <trkpt lat="42.1722960" lon="-8.7966950">
        <ele>151.7</ele>
        <time>2021-05-20T07:28:46Z</time>
      </trkpt>
      <trkpt lat="42.1722990" lon="-8.7966900">
        <ele>151.8</ele>
        <time>2021-05-20T07:28:47Z</time>
      </trkpt>
      <trkpt lat="42.1722970" lon="-8.7966930">
        <ele>151.8</ele>
        <time>2021-05-20T07:28:48Z</time>
      </trkpt>
      <trkpt lat="42.1722980" lon="-8.7966960">
        <ele>151.8</ele>
        <time>2021-05-20T07:28:49Z</time>
      </trkpt>
      <trkpt lat="42.1723000" lon="-8.7966970">
        <ele>151.8</ele>
        <time>2021-05-20T07:28:50Z</time>
      </trkpt>
      <trkpt lat="42.1723040" lon="-8.7966960">
        <ele>151.9</ele>
        <time>2021-05-20T07:28:51Z</time>
      </trkpt>
      <trkpt lat="42.1723070" lon="-8.7966910">
        <ele>151.9</ele>
        <time>2021-05-20T07:28:52Z</time>
      </trkpt>
      <trkpt lat="42.1723100" lon="-8.7966860">
        <ele>152.0</ele>
        <time>2021-05-20T07:28:53Z</time>
      </trkpt>
      <trkpt lat="42.1723110" lon="-8.7966840">
        <ele>152.0</ele>
        <time>2021-05-20T07:28:54Z</time>
      </trkpt>
      <trkpt lat="42.1723120" lon="-8.7966800">
        <ele>152.0</ele>
        <time>2021-05-20T07:28:55Z</time>
      </trkpt>
      <trkpt lat="42.1723130" lon="-8.7966780">
        <ele>152.0</ele>
        <time>2021-05-20T07:28:56Z</time>
      </trkpt>
      <trkpt lat="42.1723150" lon="-8.7966730">
        <ele>152.0</ele>
        <time>2021-05-20T07:28:57Z</time>
      </trkpt>
      <trkpt lat="42.1723120" lon="-8.7966810">
        <ele>152.1</ele>
        <time>2021-05-20T07:28:58Z</time>
      </trkpt>
      <trkpt lat="42.1723110" lon="-8.7966840">
        <ele>152.1</ele>
        <time>2021-05-20T07:28:59Z</time>
      </trkpt>
      <trkpt lat="42.1723120" lon="-8.7966830">
        <ele>152.1</ele>
        <time>2021-05-20T07:29:00Z</time>
      </trkpt>
      <trkpt lat="42.1723080" lon="-8.7966890">
        <ele>152.2</ele>
        <time>2021-05-20T07:29:01Z</time>
      </trkpt>
      <trkpt lat="42.1723060" lon="-8.7966920">
        <ele>152.2</ele>
        <time>2021-05-20T07:29:02Z</time>
      </trkpt>
      <trkpt lat="42.1723040" lon="-8.7966940">
        <ele>152.2</ele>
        <time>2021-05-20T07:29:03Z</time>
      </trkpt>
      <trkpt lat="42.1723040" lon="-8.7966920">
        <ele>152.2</ele>
        <time>2021-05-20T07:29:04Z</time>
      </trkpt>
      <trkpt lat="42.1722930" lon="-8.7967050">
        <ele>152.3</ele>
        <time>2021-05-20T07:29:05Z</time>
      </trkpt>
      <trkpt lat="42.1722960" lon="-8.7967060">
        <ele>152.4</ele>
        <time>2021-05-20T07:29:06Z</time>
      </trkpt>
      <trkpt lat="42.1722940" lon="-8.7967060">
        <ele>152.4</ele>
        <time>2021-05-20T07:29:07Z</time>
      </trkpt>
      <trkpt lat="42.1722950" lon="-8.7967000">
        <ele>152.4</ele>
        <time>2021-05-20T07:29:08Z</time>
      </trkpt>
      <trkpt lat="42.1722920" lon="-8.7967040">
        <ele>152.5</ele>
        <time>2021-05-20T07:29:09Z</time>
      </trkpt>
      <trkpt lat="42.1722890" lon="-8.7967070">
        <ele>152.5</ele>
        <time>2021-05-20T07:29:10Z</time>
      </trkpt>
      <trkpt lat="42.1722910" lon="-8.7967110">
        <ele>152.5</ele>
        <time>2021-05-20T07:29:11Z</time>
      </trkpt>
      <trkpt lat="42.1722890" lon="-8.7967130">
        <ele>152.5</ele>
        <time>2021-05-20T07:29:12Z</time>
      </trkpt>
      <trkpt lat="42.1722820" lon="-8.7967140">
        <ele>152.6</ele>
        <time>2021-05-20T07:29:13Z</time>
      </trkpt>
      <trkpt lat="42.1722710" lon="-8.7967180">
        <ele>152.7</ele>
        <time>2021-05-20T07:29:14Z</time>
      </trkpt>
      <trkpt lat="42.1722670" lon="-8.7967210">
        <ele>152.7</ele>
        <time>2021-05-20T07:29:15Z</time>
      </trkpt>
      <trkpt lat="42.1722650" lon="-8.7967260">
        <ele>152.8</ele>
        <time>2021-05-20T07:29:16Z</time>
      </trkpt>
      <trkpt lat="42.1722640" lon="-8.7967270">
        <ele>152.8</ele>
        <time>2021-05-20T07:29:17Z</time>
      </trkpt>
      <trkpt lat="42.1722610" lon="-8.7967280">
        <ele>152.8</ele>
        <time>2021-05-20T07:29:18Z</time>
      </trkpt>
      <trkpt lat="42.1722610" lon="-8.7967230">
        <ele>152.8</ele>
        <time>2021-05-20T07:29:19Z</time>
      </trkpt>
      <trkpt lat="42.1722630" lon="-8.7967230">
        <ele>152.8</ele>
        <time>2021-05-20T07:29:20Z</time>
      </trkpt>
      <trkpt lat="42.1722630" lon="-8.7967220">
        <ele>152.8</ele>
        <time>2021-05-20T07:29:21Z</time>
      </trkpt>
      <trkpt lat="42.1722640" lon="-8.7967200">
        <ele>152.9</ele>
        <time>2021-05-20T07:29:22Z</time>
      </trkpt>
      <trkpt lat="42.1722660" lon="-8.7967210">
        <ele>152.9</ele>
        <time>2021-05-20T07:29:23Z</time>
      </trkpt>
      <trkpt lat="42.1722660" lon="-8.7967260">
        <ele>152.9</ele>
        <time>2021-05-20T07:29:24Z</time>
      </trkpt>
      <trkpt lat="42.1722700" lon="-8.7967260">
        <ele>152.9</ele>
        <time>2021-05-20T07:29:25Z</time>
      </trkpt>
      <trkpt lat="42.1722710" lon="-8.7967310">
        <ele>153.0</ele>
        <time>2021-05-20T07:29:26Z</time>
      </trkpt>
      <trkpt lat="42.1722680" lon="-8.7967360">
        <ele>153.0</ele>
        <time>2021-05-20T07:29:27Z</time>
      </trkpt>
      <trkpt lat="42.1722680" lon="-8.7967400">
        <ele>153.0</ele>
        <time>2021-05-20T07:29:28Z</time>
      </trkpt>
      <trkpt lat="42.1722660" lon="-8.7967440">
        <ele>153.0</ele>
        <time>2021-05-20T07:29:29Z</time>
      </trkpt>
      <trkpt lat="42.1722700" lon="-8.7967450">
        <ele>153.1</ele>
        <time>2021-05-20T07:29:30Z</time>
      </trkpt>
      <trkpt lat="42.1722760" lon="-8.7967470">
        <ele>153.1</ele>
        <time>2021-05-20T07:29:31Z</time>
      </trkpt>
      <trkpt lat="42.1722770" lon="-8.7967460">
        <ele>153.1</ele>
        <time>2021-05-20T07:29:32Z</time>
      </trkpt>
      <trkpt lat="42.1722790" lon="-8.7967450">
        <ele>153.2</ele>
        <time>2021-05-20T07:29:33Z</time>
      </trkpt>
      <trkpt lat="42.1722770" lon="-8.7967460">
        <ele>153.2</ele>
        <time>2021-05-20T07:29:34Z</time>
      </trkpt>
      <trkpt lat="42.1722860" lon="-8.7967390">
        <ele>153.2</ele>
        <time>2021-05-20T07:29:35Z</time>
      </trkpt>
      <trkpt lat="42.1722910" lon="-8.7967330">
        <ele>153.3</ele>
        <time>2021-05-20T07:29:36Z</time>
      </trkpt>
      <trkpt lat="42.1722900" lon="-8.7967280">
        <ele>153.3</ele>
        <time>2021-05-20T07:29:37Z</time>
      </trkpt>
      <trkpt lat="42.1722920" lon="-8.7967230">
        <ele>153.4</ele>
        <time>2021-05-20T07:29:38Z</time>
      </trkpt>
      <trkpt lat="42.1722900" lon="-8.7967240">
        <ele>153.4</ele>
        <time>2021-05-20T07:29:39Z</time>
      </trkpt>
      <trkpt lat="42.1722910" lon="-8.7967220">
        <ele>153.4</ele>
        <time>2021-05-20T07:29:40Z</time>
      </trkpt>
      <trkpt lat="42.1722910" lon="-8.7967220">
        <ele>153.4</ele>
        <time>2021-05-20T07:29:41Z</time>
      </trkpt>
      <trkpt lat="42.1722940" lon="-8.7967160">
        <ele>153.4</ele>
        <time>2021-05-20T07:29:42Z</time>
      </trkpt>
      <trkpt lat="42.1722950" lon="-8.7967110">
        <ele>153.4</ele>
        <time>2021-05-20T07:29:43Z</time>
      </trkpt>
      <trkpt lat="42.1722970" lon="-8.7967110">
        <ele>153.5</ele>
        <time>2021-05-20T07:29:44Z</time>
      </trkpt>
      <trkpt lat="42.1722980" lon="-8.7967120">
        <ele>153.5</ele>
        <time>2021-05-20T07:29:45Z</time>
      </trkpt>
      <trkpt lat="42.1722980" lon="-8.7967120">
        <ele>153.5</ele>
        <time>2021-05-20T07:29:46Z</time>
      </trkpt>
      <trkpt lat="42.1722980" lon="-8.7967140">
        <ele>153.5</ele>
        <time>2021-05-20T07:29:47Z</time>
      </trkpt>
      <trkpt lat="42.1722970" lon="-8.7967180">
        <ele>153.5</ele>
        <time>2021-05-20T07:29:48Z</time>
      </trkpt>
      <trkpt lat="42.1722970" lon="-8.7967180">
        <ele>153.5</ele>
        <time>2021-05-20T07:29:49Z</time>
      </trkpt>
      <trkpt lat="42.1722970" lon="-8.7967210">
        <ele>153.5</ele>
        <time>2021-05-20T07:29:50Z</time>
      </trkpt>
      <trkpt lat="42.1722970" lon="-8.7967210">
        <ele>153.5</ele>
        <time>2021-05-20T07:29:51Z</time>
      </trkpt>
      <trkpt lat="42.1722970" lon="-8.7967210">
        <ele>153.5</ele>
        <time>2021-05-20T07:29:52Z</time>
      </trkpt>
      <trkpt lat="42.1722970" lon="-8.7967290">
        <ele>153.6</ele>
        <time>2021-05-20T07:29:53Z</time>
      </trkpt>
      <trkpt lat="42.1722970" lon="-8.7967290">
        <ele>153.6</ele>
        <time>2021-05-20T07:29:54Z</time>
      </trkpt>
      <trkpt lat="42.1722970" lon="-8.7967290">
        <ele>153.6</ele>
        <time>2021-05-20T07:29:55Z</time>
      </trkpt>
      <trkpt lat="42.1722970" lon="-8.7967320">
        <ele>153.6</ele>
        <time>2021-05-20T07:29:56Z</time>
      </trkpt>
      <trkpt lat="42.1722970" lon="-8.7967350">
        <ele>153.6</ele>
        <time>2021-05-20T07:29:57Z</time>
      </trkpt>
      <trkpt lat="42.1722980" lon="-8.7967380">
        <ele>153.6</ele>
        <time>2021-05-20T07:29:58Z</time>
      </trkpt>
      <trkpt lat="42.1722970" lon="-8.7967380">
        <ele>153.6</ele>
        <time>2021-05-20T07:29:59Z</time>
      </trkpt>
      <trkpt lat="42.1722980" lon="-8.7967310">
        <ele>153.7</ele>
        <time>2021-05-20T07:30:00Z</time>
      </trkpt>
      <trkpt lat="42.1722970" lon="-8.7967300">
        <ele>153.7</ele>
        <time>2021-05-20T07:30:01Z</time>
      </trkpt>
      <trkpt lat="42.1722970" lon="-8.7967330">
        <ele>153.7</ele>
        <time>2021-05-20T07:30:02Z</time>
      </trkpt>
      <trkpt lat="42.1722990" lon="-8.7967330">
        <ele>153.7</ele>
        <time>2021-05-20T07:30:03Z</time>
      </trkpt>
      <trkpt lat="42.1723010" lon="-8.7967260">
        <ele>153.7</ele>
        <time>2021-05-20T07:30:04Z</time>
      </trkpt>
      <trkpt lat="42.1723010" lon="-8.7967240">
        <ele>153.7</ele>
        <time>2021-05-20T07:30:05Z</time>
      </trkpt>
      <trkpt lat="42.1723010" lon="-8.7967230">
        <ele>153.7</ele>
        <time>2021-05-20T07:30:06Z</time>
      </trkpt>
      <trkpt lat="42.1723010" lon="-8.7967230">
        <ele>153.7</ele>
        <time>2021-05-20T07:30:07Z</time>
      </trkpt>
      <trkpt lat="42.1723010" lon="-8.7967230">
        <ele>153.7</ele>
        <time>2021-05-20T07:30:08Z</time>
      </trkpt>
      <trkpt lat="42.1723010" lon="-8.7967230">
        <ele>153.7</ele>
        <time>2021-05-20T07:30:09Z</time>
      </trkpt>
      <trkpt lat="42.1723030" lon="-8.7967130">
        <ele>153.8</ele>
        <time>2021-05-20T07:30:10Z</time>
      </trkpt>
      <trkpt lat="42.1723030" lon="-8.7967100">
        <ele>153.8</ele>
        <time>2021-05-20T07:30:11Z</time>
      </trkpt>
      <trkpt lat="42.1723010" lon="-8.7967090">
        <ele>153.8</ele>
        <time>2021-05-20T07:30:12Z</time>
      </trkpt>
      <trkpt lat="42.1723010" lon="-8.7967080">
        <ele>153.8</ele>
        <time>2021-05-20T07:30:13Z</time>
      </trkpt>
      <trkpt lat="42.1723000" lon="-8.7967060">
        <ele>153.8</ele>
        <time>2021-05-20T07:30:14Z</time>
      </trkpt>
      <trkpt lat="42.1722980" lon="-8.7967080">
        <ele>153.8</ele>
        <time>2021-05-20T07:30:15Z</time>
      </trkpt>
      <trkpt lat="42.1722990" lon="-8.7967100">
        <ele>153.9</ele>
        <time>2021-05-20T07:30:16Z</time>
      </trkpt>
      <trkpt lat="42.1722990" lon="-8.7967140">
        <ele>153.9</ele>
        <time>2021-05-20T07:30:17Z</time>
      </trkpt>
      <trkpt lat="42.1722990" lon="-8.7967150">
        <ele>153.9</ele>
        <time>2021-05-20T07:30:18Z</time>
      </trkpt>
      <trkpt lat="42.1722990" lon="-8.7967150">
        <ele>153.9</ele>
        <time>2021-05-20T07:30:19Z</time>
      </trkpt>
      <trkpt lat="42.1722990" lon="-8.7967150">
        <ele>153.9</ele>
        <time>2021-05-20T07:30:20Z</time>
      </trkpt>
      <trkpt lat="42.1722990" lon="-8.7967150">
        <ele>153.9</ele>
        <time>2021-05-20T07:30:21Z</time>
      </trkpt>
      <trkpt lat="42.1722990" lon="-8.7967150">
        <ele>153.9</ele>
        <time>2021-05-20T07:30:22Z</time>
      </trkpt>
      <trkpt lat="42.1722990" lon="-8.7967150">
        <ele>153.9</ele>
        <time>2021-05-20T07:30:23Z</time>
      </trkpt>
      <trkpt lat="42.1722990" lon="-8.7967150">
        <ele>153.9</ele>
        <time>2021-05-20T07:30:24Z</time>
      </trkpt>
      <trkpt lat="42.1723020" lon="-8.7967340">
        <ele>154.0</ele>
        <time>2021-05-20T07:30:25Z</time>
      </trkpt>
      <trkpt lat="42.1723030" lon="-8.7967360">
        <ele>154.0</ele>
        <time>2021-05-20T07:30:26Z</time>
      </trkpt>
      <trkpt lat="42.1723030" lon="-8.7967360">
        <ele>154.0</ele>
        <time>2021-05-20T07:30:27Z</time>
      </trkpt>
      <trkpt lat="42.1723030" lon="-8.7967360">
        <ele>154.0</ele>
        <time>2021-05-20T07:30:28Z</time>
      </trkpt>
      <trkpt lat="42.1723030" lon="-8.7967360">
        <ele>154.0</ele>
        <time>2021-05-20T07:30:29Z</time>
      </trkpt>
      <trkpt lat="42.1723030" lon="-8.7967360">
        <ele>154.0</ele>
        <time>2021-05-20T07:30:30Z</time>
      </trkpt>
      <trkpt lat="42.1723030" lon="-8.7967360">
        <ele>154.0</ele>
        <time>2021-05-20T07:30:31Z</time>
      </trkpt>
      <trkpt lat="42.1723030" lon="-8.7967360">
        <ele>154.0</ele>
        <time>2021-05-20T07:30:32Z</time>
      </trkpt>
      <trkpt lat="42.1723030" lon="-8.7967360">
        <ele>154.0</ele>
        <time>2021-05-20T07:30:33Z</time>
      </trkpt>
      <trkpt lat="42.1723050" lon="-8.7967310">
        <ele>154.0</ele>
        <time>2021-05-20T07:30:34Z</time>
      </trkpt>
      <trkpt lat="42.1723040" lon="-8.7967280">
        <ele>154.0</ele>
        <time>2021-05-20T07:30:35Z</time>
      </trkpt>
      <trkpt lat="42.1723020" lon="-8.7967270">
        <ele>154.0</ele>
        <time>2021-05-20T07:30:36Z</time>
      </trkpt>
      <trkpt lat="42.1723030" lon="-8.7967220">
        <ele>154.1</ele>
        <time>2021-05-20T07:30:37Z</time>
      </trkpt>
      <trkpt lat="42.1723050" lon="-8.7967190">
        <ele>154.1</ele>
        <time>2021-05-20T07:30:38Z</time>
      </trkpt>
      <trkpt lat="42.1723040" lon="-8.7967140">
        <ele>154.1</ele>
        <time>2021-05-20T07:30:39Z</time>
      </trkpt>
      <trkpt lat="42.1723050" lon="-8.7967110">
        <ele>154.1</ele>
        <time>2021-05-20T07:30:40Z</time>
      </trkpt>
      <trkpt lat="42.1723060" lon="-8.7967090">
        <ele>154.1</ele>
        <time>2021-05-20T07:30:41Z</time>
      </trkpt>
      <trkpt lat="42.1723080" lon="-8.7967060">
        <ele>154.1</ele>
        <time>2021-05-20T07:30:42Z</time>
      </trkpt>
      <trkpt lat="42.1723060" lon="-8.7967080">
        <ele>154.2</ele>
        <time>2021-05-20T07:30:43Z</time>
      </trkpt>
      <trkpt lat="42.1723040" lon="-8.7967100">
        <ele>154.2</ele>
        <time>2021-05-20T07:30:44Z</time>
      </trkpt>
      <trkpt lat="42.1723010" lon="-8.7967160">
        <ele>154.2</ele>
        <time>2021-05-20T07:30:45Z</time>
      </trkpt>
      <trkpt lat="42.1722990" lon="-8.7967220">
        <ele>154.2</ele>
        <time>2021-05-20T07:30:46Z</time>
      </trkpt>
      <trkpt lat="42.1722960" lon="-8.7967260">
        <ele>154.2</ele>
        <time>2021-05-20T07:30:47Z</time>
      </trkpt>
      <trkpt lat="42.1722960" lon="-8.7967260">
        <ele>154.2</ele>
        <time>2021-05-20T07:30:48Z</time>
      </trkpt>
      <trkpt lat="42.1722960" lon="-8.7967260">
        <ele>154.2</ele>
        <time>2021-05-20T07:30:49Z</time>
      </trkpt>
      <trkpt lat="42.1722960" lon="-8.7967260">
        <ele>154.2</ele>
        <time>2021-05-20T07:30:50Z</time>
      </trkpt>
      <trkpt lat="42.1722960" lon="-8.7967260">
        <ele>154.2</ele>
        <time>2021-05-20T07:30:51Z</time>
      </trkpt>
      <trkpt lat="42.1722960" lon="-8.7967260">
        <ele>154.2</ele>
        <time>2021-05-20T07:30:52Z</time>
      </trkpt>
      <trkpt lat="42.1722960" lon="-8.7967260">
        <ele>154.2</ele>
        <time>2021-05-20T07:30:53Z</time>
      </trkpt>
      <trkpt lat="42.1722960" lon="-8.7967260">
        <ele>154.2</ele>
        <time>2021-05-20T07:30:54Z</time>
      </trkpt>
      <trkpt lat="42.1722960" lon="-8.7967260">
        <ele>154.2</ele>
        <time>2021-05-20T07:30:55Z</time>
      </trkpt>
      <trkpt lat="42.1722960" lon="-8.7967260">
        <ele>154.2</ele>
        <time>2021-05-20T07:30:56Z</time>
      </trkpt>
      <trkpt lat="42.1722960" lon="-8.7967260">
        <ele>154.2</ele>
        <time>2021-05-20T07:30:57Z</time>
      </trkpt>
      <trkpt lat="42.1722960" lon="-8.7967260">
        <ele>154.2</ele>
        <time>2021-05-20T07:30:58Z</time>
      </trkpt>
      <trkpt lat="42.1722960" lon="-8.7967260">
        <ele>154.2</ele>
        <time>2021-05-20T07:30:59Z</time>
      </trkpt>
      <trkpt lat="42.1722960" lon="-8.7967260">
        <ele>154.2</ele>
        <time>2021-05-20T07:31:00Z</time>
      </trkpt>
      <trkpt lat="42.1722960" lon="-8.7967260">
        <ele>154.2</ele>
        <time>2021-05-20T07:31:01Z</time>
      </trkpt>
      <trkpt lat="42.1722960" lon="-8.7967260">
        <ele>154.2</ele>
        <time>2021-05-20T07:31:02Z</time>
      </trkpt>
      <trkpt lat="42.1723020" lon="-8.7967310">
        <ele>154.3</ele>
        <time>2021-05-20T07:31:03Z</time>
      </trkpt>
      <trkpt lat="42.1723030" lon="-8.7967300">
        <ele>154.3</ele>
        <time>2021-05-20T07:31:04Z</time>
      </trkpt>
      <trkpt lat="42.1723040" lon="-8.7967290">
        <ele>154.3</ele>
        <time>2021-05-20T07:31:05Z</time>
      </trkpt>
      <trkpt lat="42.1723050" lon="-8.7967280">
        <ele>154.3</ele>
        <time>2021-05-20T07:31:06Z</time>
      </trkpt>
      <trkpt lat="42.1723070" lon="-8.7967250">
        <ele>154.3</ele>
        <time>2021-05-20T07:31:07Z</time>
      </trkpt>
      <trkpt lat="42.1723080" lon="-8.7967240">
        <ele>154.3</ele>
        <time>2021-05-20T07:31:08Z</time>
      </trkpt>
      <trkpt lat="42.1723080" lon="-8.7967240">
        <ele>154.3</ele>
        <time>2021-05-20T07:31:09Z</time>
      </trkpt>
      <trkpt lat="42.1723080" lon="-8.7967240">
        <ele>154.3</ele>
        <time>2021-05-20T07:31:10Z</time>
      </trkpt>
      <trkpt lat="42.1723060" lon="-8.7967360">
        <ele>154.4</ele>
        <time>2021-05-20T07:31:11Z</time>
      </trkpt>
      <trkpt lat="42.1723040" lon="-8.7967380">
        <ele>154.4</ele>
        <time>2021-05-20T07:31:12Z</time>
      </trkpt>
      <trkpt lat="42.1723030" lon="-8.7967400">
        <ele>154.4</ele>
        <time>2021-05-20T07:31:13Z</time>
      </trkpt>
      <trkpt lat="42.1723010" lon="-8.7967450">
        <ele>154.4</ele>
        <time>2021-05-20T07:31:14Z</time>
      </trkpt>
      <trkpt lat="42.1722980" lon="-8.7967530">
        <ele>154.4</ele>
        <time>2021-05-20T07:31:15Z</time>
      </trkpt>
      <trkpt lat="42.1722980" lon="-8.7967530">
        <ele>154.4</ele>
        <time>2021-05-20T07:31:16Z</time>
      </trkpt>
      <trkpt lat="42.1722940" lon="-8.7967590">
        <ele>154.5</ele>
        <time>2021-05-20T07:31:17Z</time>
      </trkpt>
      <trkpt lat="42.1722930" lon="-8.7967620">
        <ele>154.5</ele>
        <time>2021-05-20T07:31:18Z</time>
      </trkpt>
      <trkpt lat="42.1722940" lon="-8.7967620">
        <ele>154.5</ele>
        <time>2021-05-20T07:31:19Z</time>
      </trkpt>
      <trkpt lat="42.1722920" lon="-8.7967650">
        <ele>154.5</ele>
        <time>2021-05-20T07:31:20Z</time>
      </trkpt>
      <trkpt lat="42.1722920" lon="-8.7967650">
        <ele>154.5</ele>
        <time>2021-05-20T07:31:21Z</time>
      </trkpt>
      <trkpt lat="42.1722920" lon="-8.7967650">
        <ele>154.5</ele>
        <time>2021-05-20T07:31:22Z</time>
      </trkpt>
      <trkpt lat="42.1722890" lon="-8.7967680">
        <ele>154.5</ele>
        <time>2021-05-20T07:31:23Z</time>
      </trkpt>
      <trkpt lat="42.1722880" lon="-8.7967680">
        <ele>154.5</ele>
        <time>2021-05-20T07:31:24Z</time>
      </trkpt>
      <trkpt lat="42.1722880" lon="-8.7967660">
        <ele>154.5</ele>
        <time>2021-05-20T07:31:25Z</time>
      </trkpt>
      <trkpt lat="42.1722870" lon="-8.7967690">
        <ele>154.6</ele>
        <time>2021-05-20T07:31:26Z</time>
      </trkpt>
      <trkpt lat="42.1722880" lon="-8.7967660">
        <ele>154.6</ele>
        <time>2021-05-20T07:31:27Z</time>
      </trkpt>
      <trkpt lat="42.1722880" lon="-8.7967620">
        <ele>154.6</ele>
        <time>2021-05-20T07:31:28Z</time>
      </trkpt>
      <trkpt lat="42.1722890" lon="-8.7967570">
        <ele>154.6</ele>
        <time>2021-05-20T07:31:29Z</time>
      </trkpt>
      <trkpt lat="42.1722880" lon="-8.7967560">
        <ele>154.6</ele>
        <time>2021-05-20T07:31:30Z</time>
      </trkpt>
      <trkpt lat="42.1722880" lon="-8.7967560">
        <ele>154.6</ele>
        <time>2021-05-20T07:31:31Z</time>
      </trkpt>
      <trkpt lat="42.1722880" lon="-8.7967560">
        <ele>154.6</ele>
        <time>2021-05-20T07:31:32Z</time>
      </trkpt>
      <trkpt lat="42.1722880" lon="-8.7967560">
        <ele>154.6</ele>
        <time>2021-05-20T07:31:33Z</time>
      </trkpt>
      <trkpt lat="42.1722880" lon="-8.7967560">
        <ele>154.6</ele>
        <time>2021-05-20T07:31:34Z</time>
      </trkpt>
      <trkpt lat="42.1722880" lon="-8.7967560">
        <ele>154.6</ele>
        <time>2021-05-20T07:31:35Z</time>
      </trkpt>
      <trkpt lat="42.1722930" lon="-8.7967280">
        <ele>154.7</ele>
        <time>2021-05-20T07:31:36Z</time>
      </trkpt>
      <trkpt lat="42.1722930" lon="-8.7967260">
        <ele>154.7</ele>
        <time>2021-05-20T07:31:37Z</time>
      </trkpt>
      <trkpt lat="42.1722920" lon="-8.7967270">
        <ele>154.7</ele>
        <time>2021-05-20T07:31:38Z</time>
      </trkpt>
      <trkpt lat="42.1722920" lon="-8.7967260">
        <ele>154.7</ele>
        <time>2021-05-20T07:31:39Z</time>
      </trkpt>
      <trkpt lat="42.1722920" lon="-8.7967260">
        <ele>154.7</ele>
        <time>2021-05-20T07:31:40Z</time>
      </trkpt>
      <trkpt lat="42.1722910" lon="-8.7967250">
        <ele>154.7</ele>
        <time>2021-05-20T07:31:41Z</time>
      </trkpt>
      <trkpt lat="42.1722900" lon="-8.7967270">
        <ele>154.7</ele>
        <time>2021-05-20T07:31:42Z</time>
      </trkpt>
      <trkpt lat="42.1722900" lon="-8.7967260">
        <ele>154.7</ele>
        <time>2021-05-20T07:31:43Z</time>
      </trkpt>
      <trkpt lat="42.1722900" lon="-8.7967260">
        <ele>154.7</ele>
        <time>2021-05-20T07:31:44Z</time>
      </trkpt>
      <trkpt lat="42.1722880" lon="-8.7967270">
        <ele>154.7</ele>
        <time>2021-05-20T07:31:45Z</time>
      </trkpt>
      <trkpt lat="42.1722870" lon="-8.7967300">
        <ele>154.7</ele>
        <time>2021-05-20T07:31:46Z</time>
      </trkpt>
      <trkpt lat="42.1722880" lon="-8.7967340">
        <ele>154.8</ele>
        <time>2021-05-20T07:31:47Z</time>
      </trkpt>
      <trkpt lat="42.1722890" lon="-8.7967350">
        <ele>154.8</ele>
        <time>2021-05-20T07:31:48Z</time>
      </trkpt>
      <trkpt lat="42.1722890" lon="-8.7967360">
        <ele>154.8</ele>
        <time>2021-05-20T07:31:49Z</time>
      </trkpt>
      <trkpt lat="42.1722880" lon="-8.7967330">
        <ele>154.8</ele>
        <time>2021-05-20T07:31:50Z</time>
      </trkpt>
      <trkpt lat="42.1722850" lon="-8.7967280">
        <ele>154.8</ele>
        <time>2021-05-20T07:31:51Z</time>
      </trkpt>
      <trkpt lat="42.1722840" lon="-8.7967250">
        <ele>154.8</ele>
        <time>2021-05-20T07:31:52Z</time>
      </trkpt>
      <trkpt lat="42.1722850" lon="-8.7967220">
        <ele>154.8</ele>
        <time>2021-05-20T07:31:53Z</time>
      </trkpt>
      <trkpt lat="42.1722840" lon="-8.7967180">
        <ele>154.8</ele>
        <time>2021-05-20T07:31:54Z</time>
      </trkpt>
      <trkpt lat="42.1722840" lon="-8.7967170">
        <ele>154.8</ele>
        <time>2021-05-20T07:31:55Z</time>
      </trkpt>
      <trkpt lat="42.1722800" lon="-8.7967160">
        <ele>154.8</ele>
        <time>2021-05-20T07:31:56Z</time>
      </trkpt>
      <trkpt lat="42.1722820" lon="-8.7967100">
        <ele>154.9</ele>
        <time>2021-05-20T07:31:57Z</time>
      </trkpt>
      <trkpt lat="42.1722820" lon="-8.7967060">
        <ele>154.9</ele>
        <time>2021-05-20T07:31:58Z</time>
      </trkpt>
      <trkpt lat="42.1722800" lon="-8.7967040">
        <ele>154.9</ele>
        <time>2021-05-20T07:31:59Z</time>
      </trkpt>
      <trkpt lat="42.1722780" lon="-8.7967110">
        <ele>154.9</ele>
        <time>2021-05-20T07:32:00Z</time>
      </trkpt>
      <trkpt lat="42.1722810" lon="-8.7967130">
        <ele>154.9</ele>
        <time>2021-05-20T07:32:01Z</time>
      </trkpt>
      <trkpt lat="42.1722810" lon="-8.7967140">
        <ele>154.9</ele>
        <time>2021-05-20T07:32:02Z</time>
      </trkpt>
      <trkpt lat="42.1722820" lon="-8.7967140">
        <ele>154.9</ele>
        <time>2021-05-20T07:32:03Z</time>
      </trkpt>
      <trkpt lat="42.1722860" lon="-8.7967140">
        <ele>154.9</ele>
        <time>2021-05-20T07:32:04Z</time>
      </trkpt>
      <trkpt lat="42.1722880" lon="-8.7967150">
        <ele>154.9</ele>
        <time>2021-05-20T07:32:05Z</time>
      </trkpt>
      <trkpt lat="42.1722890" lon="-8.7967150">
        <ele>155.0</ele>
        <time>2021-05-20T07:32:06Z</time>
      </trkpt>
      <trkpt lat="42.1722900" lon="-8.7967160">
        <ele>155.0</ele>
        <time>2021-05-20T07:32:07Z</time>
      </trkpt>
      <trkpt lat="42.1722930" lon="-8.7967180">
        <ele>155.0</ele>
        <time>2021-05-20T07:32:08Z</time>
      </trkpt>
      <trkpt lat="42.1722930" lon="-8.7967170">
        <ele>155.0</ele>
        <time>2021-05-20T07:32:09Z</time>
      </trkpt>
      <trkpt lat="42.1722900" lon="-8.7967160">
        <ele>155.0</ele>
        <time>2021-05-20T07:32:10Z</time>
      </trkpt>
      <trkpt lat="42.1722910" lon="-8.7967100">
        <ele>155.0</ele>
        <time>2021-05-20T07:32:11Z</time>
      </trkpt>
      <trkpt lat="42.1722920" lon="-8.7967070">
        <ele>155.0</ele>
        <time>2021-05-20T07:32:12Z</time>
      </trkpt>
      <trkpt lat="42.1722910" lon="-8.7967050">
        <ele>155.0</ele>
        <time>2021-05-20T07:32:13Z</time>
      </trkpt>
      <trkpt lat="42.1722930" lon="-8.7967020">
        <ele>155.0</ele>
        <time>2021-05-20T07:32:14Z</time>
      </trkpt>
      <trkpt lat="42.1723030" lon="-8.7966900">
        <ele>155.1</ele>
        <time>2021-05-20T07:32:15Z</time>
      </trkpt>
      <trkpt lat="42.1723170" lon="-8.7966940">
        <ele>155.1</ele>
        <time>2021-05-20T07:32:16Z</time>
      </trkpt>
      <trkpt lat="42.1723240" lon="-8.7966910">
        <ele>155.1</ele>
        <time>2021-05-20T07:32:17Z</time>
      </trkpt>
      <trkpt lat="42.1723340" lon="-8.7966830">
        <ele>155.2</ele>
        <time>2021-05-20T07:32:18Z</time>
      </trkpt>
      <trkpt lat="42.1723510" lon="-8.7966870">
        <ele>155.2</ele>
        <time>2021-05-20T07:32:19Z</time>
      </trkpt>
      <trkpt lat="42.1723600" lon="-8.7966890">
        <ele>155.3</ele>
        <time>2021-05-20T07:32:20Z</time>
      </trkpt>
      <trkpt lat="42.1723680" lon="-8.7966920">
        <ele>155.3</ele>
        <time>2021-05-20T07:32:21Z</time>
      </trkpt>
      <trkpt lat="42.1723760" lon="-8.7966940">
        <ele>155.2</ele>
        <time>2021-05-20T07:32:22Z</time>
      </trkpt>
      <trkpt lat="42.1723850" lon="-8.7966960">
        <ele>155.2</ele>
        <time>2021-05-20T07:32:23Z</time>
      </trkpt>
      <trkpt lat="42.1723930" lon="-8.7966980">
        <ele>155.2</ele>
        <time>2021-05-20T07:32:24Z</time>
      </trkpt>
      <trkpt lat="42.1724010" lon="-8.7967010">
        <ele>155.1</ele>
        <time>2021-05-20T07:32:25Z</time>
      </trkpt>
      <trkpt lat="42.1724100" lon="-8.7967030">
        <ele>155.1</ele>
        <time>2021-05-20T07:32:26Z</time>
      </trkpt>
      <trkpt lat="42.1724180" lon="-8.7967050">
        <ele>155.1</ele>
        <time>2021-05-20T07:32:27Z</time>
      </trkpt>
      <trkpt lat="42.1724340" lon="-8.7967140">
        <ele>155.0</ele>
        <time>2021-05-20T07:32:28Z</time>
      </trkpt>
      <trkpt lat="42.1724430" lon="-8.7967180">
        <ele>155.0</ele>
        <time>2021-05-20T07:32:29Z</time>
      </trkpt>
      <trkpt lat="42.1724520" lon="-8.7967230">
        <ele>155.0</ele>
        <time>2021-05-20T07:32:30Z</time>
      </trkpt>
      <trkpt lat="42.1724660" lon="-8.7967350">
        <ele>154.9</ele>
        <time>2021-05-20T07:32:31Z</time>
      </trkpt>
      <trkpt lat="42.1724720" lon="-8.7967440">
        <ele>154.9</ele>
        <time>2021-05-20T07:32:32Z</time>
      </trkpt>
      <trkpt lat="42.1724820" lon="-8.7967520">
        <ele>154.8</ele>
        <time>2021-05-20T07:32:33Z</time>
      </trkpt>
      <trkpt lat="42.1724810" lon="-8.7967470">
        <ele>154.8</ele>
        <time>2021-05-20T07:32:34Z</time>
      </trkpt>
      <trkpt lat="42.1724880" lon="-8.7967590">
        <ele>154.8</ele>
        <time>2021-05-20T07:32:35Z</time>
      </trkpt>
      <trkpt lat="42.1724900" lon="-8.7967670">
        <ele>154.8</ele>
        <time>2021-05-20T07:32:36Z</time>
      </trkpt>
      <trkpt lat="42.1724950" lon="-8.7967780">
        <ele>154.7</ele>
        <time>2021-05-20T07:32:37Z</time>
      </trkpt>
      <trkpt lat="42.1724980" lon="-8.7967900">
        <ele>154.7</ele>
        <time>2021-05-20T07:32:38Z</time>
      </trkpt>
      <trkpt lat="42.1725020" lon="-8.7967980">
        <ele>154.6</ele>
        <time>2021-05-20T07:32:39Z</time>
      </trkpt>
      <trkpt lat="42.1725100" lon="-8.7968030">
        <ele>154.6</ele>
        <time>2021-05-20T07:32:40Z</time>
      </trkpt>
      <trkpt lat="42.1725170" lon="-8.7968070">
        <ele>154.6</ele>
        <time>2021-05-20T07:32:41Z</time>
      </trkpt>
      <trkpt lat="42.1725240" lon="-8.7968110">
        <ele>154.5</ele>
        <time>2021-05-20T07:32:42Z</time>
      </trkpt>
      <trkpt lat="42.1725320" lon="-8.7968160">
        <ele>154.5</ele>
        <time>2021-05-20T07:32:43Z</time>
      </trkpt>
      <trkpt lat="42.1725390" lon="-8.7968200">
        <ele>154.4</ele>
        <time>2021-05-20T07:32:44Z</time>
      </trkpt>
      <trkpt lat="42.1725500" lon="-8.7968270">
        <ele>154.4</ele>
        <time>2021-05-20T07:32:45Z</time>
      </trkpt>
      <trkpt lat="42.1725490" lon="-8.7968410">
        <ele>154.3</ele>
        <time>2021-05-20T07:32:46Z</time>
      </trkpt>
      <trkpt lat="42.1725600" lon="-8.7968470">
        <ele>154.3</ele>
        <time>2021-05-20T07:32:47Z</time>
      </trkpt>
      <trkpt lat="42.1725750" lon="-8.7968630">
        <ele>154.1</ele>
        <time>2021-05-20T07:32:48Z</time>
      </trkpt>
      <trkpt lat="42.1725830" lon="-8.7968730">
        <ele>154.1</ele>
        <time>2021-05-20T07:32:49Z</time>
      </trkpt>
      <trkpt lat="42.1725900" lon="-8.7968820">
        <ele>154.0</ele>
        <time>2021-05-20T07:32:50Z</time>
      </trkpt>
      <trkpt lat="42.1726000" lon="-8.7968890">
        <ele>153.9</ele>
        <time>2021-05-20T07:32:51Z</time>
      </trkpt>
      <trkpt lat="42.1725970" lon="-8.7968910">
        <ele>153.9</ele>
        <time>2021-05-20T07:32:52Z</time>
      </trkpt>
      <trkpt lat="42.1726080" lon="-8.7969030">
        <ele>153.8</ele>
        <time>2021-05-20T07:32:53Z</time>
      </trkpt>
      <trkpt lat="42.1726160" lon="-8.7969120">
        <ele>153.7</ele>
        <time>2021-05-20T07:32:54Z</time>
      </trkpt>
      <trkpt lat="42.1726190" lon="-8.7969210">
        <ele>153.7</ele>
        <time>2021-05-20T07:32:55Z</time>
      </trkpt>
      <trkpt lat="42.1726240" lon="-8.7969260">
        <ele>153.6</ele>
        <time>2021-05-20T07:32:56Z</time>
      </trkpt>
      <trkpt lat="42.1726380" lon="-8.7969350">
        <ele>153.5</ele>
        <time>2021-05-20T07:32:57Z</time>
      </trkpt>
      <trkpt lat="42.1726410" lon="-8.7969530">
        <ele>153.4</ele>
        <time>2021-05-20T07:32:58Z</time>
      </trkpt>
      <trkpt lat="42.1726480" lon="-8.7969470">
        <ele>153.4</ele>
        <time>2021-05-20T07:32:59Z</time>
      </trkpt>
      <trkpt lat="42.1726540" lon="-8.7969550">
        <ele>153.3</ele>
        <time>2021-05-20T07:33:00Z</time>
      </trkpt>
      <trkpt lat="42.1726610" lon="-8.7969620">
        <ele>153.2</ele>
        <time>2021-05-20T07:33:01Z</time>
      </trkpt>
      <trkpt lat="42.1726810" lon="-8.7969770">
        <ele>153.0</ele>
        <time>2021-05-20T07:33:02Z</time>
      </trkpt>
      <trkpt lat="42.1726860" lon="-8.7969850">
        <ele>153.0</ele>
        <time>2021-05-20T07:33:03Z</time>
      </trkpt>
      <trkpt lat="42.1726910" lon="-8.7969940">
        <ele>152.9</ele>
        <time>2021-05-20T07:33:04Z</time>
      </trkpt>
      <trkpt lat="42.1727060" lon="-8.7970050">
        <ele>152.7</ele>
        <time>2021-05-20T07:33:05Z</time>
      </trkpt>
      <trkpt lat="42.1727130" lon="-8.7970160">
        <ele>152.7</ele>
        <time>2021-05-20T07:33:06Z</time>
      </trkpt>
      <trkpt lat="42.1727210" lon="-8.7970260">
        <ele>152.6</ele>
        <time>2021-05-20T07:33:07Z</time>
      </trkpt>
      <trkpt lat="42.1727260" lon="-8.7970290">
        <ele>152.5</ele>
        <time>2021-05-20T07:33:08Z</time>
      </trkpt>
      <trkpt lat="42.1727340" lon="-8.7970360">
        <ele>152.4</ele>
        <time>2021-05-20T07:33:09Z</time>
      </trkpt>
      <trkpt lat="42.1727550" lon="-8.7970450">
        <ele>152.2</ele>
        <time>2021-05-20T07:33:10Z</time>
      </trkpt>
      <trkpt lat="42.1727660" lon="-8.7970610">
        <ele>152.1</ele>
        <time>2021-05-20T07:33:11Z</time>
      </trkpt>
      <trkpt lat="42.1727710" lon="-8.7970670">
        <ele>152.1</ele>
        <time>2021-05-20T07:33:12Z</time>
      </trkpt>
      <trkpt lat="42.1727780" lon="-8.7970800">
        <ele>151.9</ele>
        <time>2021-05-20T07:33:13Z</time>
      </trkpt>
      <trkpt lat="42.1727940" lon="-8.7970890">
        <ele>151.8</ele>
        <time>2021-05-20T07:33:14Z</time>
      </trkpt>
      <trkpt lat="42.1727940" lon="-8.7970980">
        <ele>151.7</ele>
        <time>2021-05-20T07:33:15Z</time>
      </trkpt>
      <trkpt lat="42.1728080" lon="-8.7970980">
        <ele>151.6</ele>
        <time>2021-05-20T07:33:16Z</time>
      </trkpt>
      <trkpt lat="42.1728090" lon="-8.7971000">
        <ele>151.6</ele>
        <time>2021-05-20T07:33:17Z</time>
      </trkpt>
      <trkpt lat="42.1728190" lon="-8.7971100">
        <ele>151.5</ele>
        <time>2021-05-20T07:33:18Z</time>
      </trkpt>
      <trkpt lat="42.1728210" lon="-8.7971400">
        <ele>151.3</ele>
        <time>2021-05-20T07:33:19Z</time>
      </trkpt>
      <trkpt lat="42.1728350" lon="-8.7971470">
        <ele>151.2</ele>
        <time>2021-05-20T07:33:20Z</time>
      </trkpt>
      <trkpt lat="42.1728490" lon="-8.7971570">
        <ele>151.1</ele>
        <time>2021-05-20T07:33:21Z</time>
      </trkpt>
      <trkpt lat="42.1728500" lon="-8.7971670">
        <ele>151.1</ele>
        <time>2021-05-20T07:33:22Z</time>
      </trkpt>
      <trkpt lat="42.1728560" lon="-8.7971780">
        <ele>151.0</ele>
        <time>2021-05-20T07:33:23Z</time>
      </trkpt>
      <trkpt lat="42.1728500" lon="-8.7971870">
        <ele>150.9</ele>
        <time>2021-05-20T07:33:24Z</time>
      </trkpt>
      <trkpt lat="42.1728670" lon="-8.7971980">
        <ele>150.8</ele>
        <time>2021-05-20T07:33:25Z</time>
      </trkpt>
      <trkpt lat="42.1728720" lon="-8.7972150">
        <ele>150.7</ele>
        <time>2021-05-20T07:33:26Z</time>
      </trkpt>
      <trkpt lat="42.1728790" lon="-8.7972240">
        <ele>150.6</ele>
        <time>2021-05-20T07:33:27Z</time>
      </trkpt>
      <trkpt lat="42.1728810" lon="-8.7972320">
        <ele>150.6</ele>
        <time>2021-05-20T07:33:28Z</time>
      </trkpt>
      <trkpt lat="42.1729000" lon="-8.7972450">
        <ele>150.4</ele>
        <time>2021-05-20T07:33:29Z</time>
      </trkpt>
      <trkpt lat="42.1729080" lon="-8.7972500">
        <ele>150.4</ele>
        <time>2021-05-20T07:33:30Z</time>
      </trkpt>
      <trkpt lat="42.1729150" lon="-8.7972550">
        <ele>150.3</ele>
        <time>2021-05-20T07:33:31Z</time>
      </trkpt>
      <trkpt lat="42.1729240" lon="-8.7972630">
        <ele>150.2</ele>
        <time>2021-05-20T07:33:32Z</time>
      </trkpt>
      <trkpt lat="42.1729300" lon="-8.7972830">
        <ele>150.1</ele>
        <time>2021-05-20T07:33:33Z</time>
      </trkpt>
      <trkpt lat="42.1729430" lon="-8.7972830">
        <ele>150.1</ele>
        <time>2021-05-20T07:33:34Z</time>
      </trkpt>
      <trkpt lat="42.1729560" lon="-8.7972930">
        <ele>150.0</ele>
        <time>2021-05-20T07:33:35Z</time>
      </trkpt>
      <trkpt lat="42.1729680" lon="-8.7972950">
        <ele>149.9</ele>
        <time>2021-05-20T07:33:36Z</time>
      </trkpt>
      <trkpt lat="42.1729760" lon="-8.7973020">
        <ele>149.8</ele>
        <time>2021-05-20T07:33:37Z</time>
      </trkpt>
      <trkpt lat="42.1729770" lon="-8.7973100">
        <ele>149.8</ele>
        <time>2021-05-20T07:33:38Z</time>
      </trkpt>
      <trkpt lat="42.1729790" lon="-8.7973130">
        <ele>149.8</ele>
        <time>2021-05-20T07:33:39Z</time>
      </trkpt>
      <trkpt lat="42.1729830" lon="-8.7973070">
        <ele>149.7</ele>
        <time>2021-05-20T07:33:40Z</time>
      </trkpt>
      <trkpt lat="42.1729890" lon="-8.7973010">
        <ele>149.7</ele>
        <time>2021-05-20T07:33:41Z</time>
      </trkpt>
      <trkpt lat="42.1729910" lon="-8.7973060">
        <ele>149.7</ele>
        <time>2021-05-20T07:33:42Z</time>
      </trkpt>
      <trkpt lat="42.1730000" lon="-8.7973230">
        <ele>149.6</ele>
        <time>2021-05-20T07:33:43Z</time>
      </trkpt>
      <trkpt lat="42.1730180" lon="-8.7973360">
        <ele>149.5</ele>
        <time>2021-05-20T07:33:44Z</time>
      </trkpt>
      <trkpt lat="42.1730260" lon="-8.7973400">
        <ele>149.4</ele>
        <time>2021-05-20T07:33:45Z</time>
      </trkpt>
      <trkpt lat="42.1730330" lon="-8.7973440">
        <ele>149.4</ele>
        <time>2021-05-20T07:33:46Z</time>
      </trkpt>
      <trkpt lat="42.1730400" lon="-8.7973480">
        <ele>149.3</ele>
        <time>2021-05-20T07:33:47Z</time>
      </trkpt>
      <trkpt lat="42.1730400" lon="-8.7973700">
        <ele>149.3</ele>
        <time>2021-05-20T07:33:48Z</time>
      </trkpt>
      <trkpt lat="42.1730620" lon="-8.7973790">
        <ele>149.1</ele>
        <time>2021-05-20T07:33:49Z</time>
      </trkpt>
      <trkpt lat="42.1730690" lon="-8.7973840">
        <ele>149.1</ele>
        <time>2021-05-20T07:33:50Z</time>
      </trkpt>
      <trkpt lat="42.1730830" lon="-8.7973930">
        <ele>149.0</ele>
        <time>2021-05-20T07:33:51Z</time>
      </trkpt>
      <trkpt lat="42.1730900" lon="-8.7973990">
        <ele>149.0</ele>
        <time>2021-05-20T07:33:52Z</time>
      </trkpt>
      <trkpt lat="42.1731020" lon="-8.7974080">
        <ele>148.9</ele>
        <time>2021-05-20T07:33:53Z</time>
      </trkpt>
      <trkpt lat="42.1731190" lon="-8.7974180">
        <ele>148.8</ele>
        <time>2021-05-20T07:33:54Z</time>
      </trkpt>
      <trkpt lat="42.1731370" lon="-8.7974290">
        <ele>148.7</ele>
        <time>2021-05-20T07:33:55Z</time>
      </trkpt>
      <trkpt lat="42.1731450" lon="-8.7974330">
        <ele>148.6</ele>
        <time>2021-05-20T07:33:56Z</time>
      </trkpt>
      <trkpt lat="42.1731530" lon="-8.7974370">
        <ele>148.6</ele>
        <time>2021-05-20T07:33:57Z</time>
      </trkpt>
      <trkpt lat="42.1731580" lon="-8.7974430">
        <ele>148.6</ele>
        <time>2021-05-20T07:33:58Z</time>
      </trkpt>
      <trkpt lat="42.1731790" lon="-8.7974590">
        <ele>148.4</ele>
        <time>2021-05-20T07:33:59Z</time>
      </trkpt>
      <trkpt lat="42.1731850" lon="-8.7974620">
        <ele>148.4</ele>
        <time>2021-05-20T07:34:00Z</time>
      </trkpt>
      <trkpt lat="42.1732040" lon="-8.7974730">
        <ele>148.3</ele>
        <time>2021-05-20T07:34:01Z</time>
      </trkpt>
      <trkpt lat="42.1732120" lon="-8.7974810">
        <ele>148.3</ele>
        <time>2021-05-20T07:34:02Z</time>
      </trkpt>
      <trkpt lat="42.1732260" lon="-8.7974870">
        <ele>148.2</ele>
        <time>2021-05-20T07:34:03Z</time>
      </trkpt>
      <trkpt lat="42.1732300" lon="-8.7974880">
        <ele>148.2</ele>
        <time>2021-05-20T07:34:04Z</time>
      </trkpt>
      <trkpt lat="42.1732370" lon="-8.7974960">
        <ele>148.1</ele>
        <time>2021-05-20T07:34:05Z</time>
      </trkpt>
      <trkpt lat="42.1732410" lon="-8.7975010">
        <ele>148.1</ele>
        <time>2021-05-20T07:34:06Z</time>
      </trkpt>
      <trkpt lat="42.1732510" lon="-8.7975050">
        <ele>148.1</ele>
        <time>2021-05-20T07:34:07Z</time>
      </trkpt>
      <trkpt lat="42.1732580" lon="-8.7975030">
        <ele>148.0</ele>
        <time>2021-05-20T07:34:08Z</time>
      </trkpt>
      <trkpt lat="42.1732630" lon="-8.7975080">
        <ele>148.0</ele>
        <time>2021-05-20T07:34:09Z</time>
      </trkpt>
      <trkpt lat="42.1732700" lon="-8.7975170">
        <ele>147.9</ele>
        <time>2021-05-20T07:34:10Z</time>
      </trkpt>
      <trkpt lat="42.1732870" lon="-8.7975310">
        <ele>147.9</ele>
        <time>2021-05-20T07:34:11Z</time>
      </trkpt>
      <trkpt lat="42.1733000" lon="-8.7975390">
        <ele>147.8</ele>
        <time>2021-05-20T07:34:12Z</time>
      </trkpt>
      <trkpt lat="42.1733130" lon="-8.7975440">
        <ele>147.7</ele>
        <time>2021-05-20T07:34:13Z</time>
      </trkpt>
      <trkpt lat="42.1733320" lon="-8.7975470">
        <ele>147.7</ele>
        <time>2021-05-20T07:34:14Z</time>
      </trkpt>
      <trkpt lat="42.1733450" lon="-8.7975560">
        <ele>147.6</ele>
        <time>2021-05-20T07:34:15Z</time>
      </trkpt>
      <trkpt lat="42.1733490" lon="-8.7975600">
        <ele>147.6</ele>
        <time>2021-05-20T07:34:16Z</time>
      </trkpt>
      <trkpt lat="42.1733570" lon="-8.7975700">
        <ele>147.5</ele>
        <time>2021-05-20T07:34:17Z</time>
      </trkpt>
      <trkpt lat="42.1733580" lon="-8.7975810">
        <ele>147.5</ele>
        <time>2021-05-20T07:34:18Z</time>
      </trkpt>
      <trkpt lat="42.1733650" lon="-8.7975960">
        <ele>147.5</ele>
        <time>2021-05-20T07:34:19Z</time>
      </trkpt>
      <trkpt lat="42.1733860" lon="-8.7976140">
        <ele>147.4</ele>
        <time>2021-05-20T07:34:20Z</time>
      </trkpt>
      <trkpt lat="42.1733920" lon="-8.7976210">
        <ele>147.3</ele>
        <time>2021-05-20T07:34:21Z</time>
      </trkpt>
      <trkpt lat="42.1734090" lon="-8.7976460">
        <ele>147.2</ele>
        <time>2021-05-20T07:34:22Z</time>
      </trkpt>
      <trkpt lat="42.1734150" lon="-8.7976560">
        <ele>147.2</ele>
        <time>2021-05-20T07:34:23Z</time>
      </trkpt>
      <trkpt lat="42.1734200" lon="-8.7976670">
        <ele>147.2</ele>
        <time>2021-05-20T07:34:24Z</time>
      </trkpt>
      <trkpt lat="42.1734370" lon="-8.7976840">
        <ele>147.1</ele>
        <time>2021-05-20T07:34:25Z</time>
      </trkpt>
      <trkpt lat="42.1734410" lon="-8.7976980">
        <ele>147.1</ele>
        <time>2021-05-20T07:34:26Z</time>
      </trkpt>
      <trkpt lat="42.1734460" lon="-8.7977110">
        <ele>147.0</ele>
        <time>2021-05-20T07:34:27Z</time>
      </trkpt>
      <trkpt lat="42.1734510" lon="-8.7977220">
        <ele>147.0</ele>
        <time>2021-05-20T07:34:28Z</time>
      </trkpt>
      <trkpt lat="42.1734610" lon="-8.7977270">
        <ele>147.0</ele>
        <time>2021-05-20T07:34:29Z</time>
      </trkpt>
      <trkpt lat="42.1734710" lon="-8.7977340">
        <ele>146.9</ele>
        <time>2021-05-20T07:34:30Z</time>
      </trkpt>
      <trkpt lat="42.1734920" lon="-8.7977460">
        <ele>146.9</ele>
        <time>2021-05-20T07:34:31Z</time>
      </trkpt>
      <trkpt lat="42.1735010" lon="-8.7977510">
        <ele>146.8</ele>
        <time>2021-05-20T07:34:32Z</time>
      </trkpt>
      <trkpt lat="42.1735100" lon="-8.7977560">
        <ele>146.8</ele>
        <time>2021-05-20T07:34:33Z</time>
      </trkpt>
      <trkpt lat="42.1735250" lon="-8.7977630">
        <ele>146.7</ele>
        <time>2021-05-20T07:34:34Z</time>
      </trkpt>
      <trkpt lat="42.1735280" lon="-8.7977560">
        <ele>146.7</ele>
        <time>2021-05-20T07:34:35Z</time>
      </trkpt>
      <trkpt lat="42.1735320" lon="-8.7977550">
        <ele>146.7</ele>
        <time>2021-05-20T07:34:36Z</time>
      </trkpt>
      <trkpt lat="42.1735440" lon="-8.7977570">
        <ele>146.7</ele>
        <time>2021-05-20T07:34:37Z</time>
      </trkpt>
      <trkpt lat="42.1735500" lon="-8.7977580">
        <ele>146.6</ele>
        <time>2021-05-20T07:34:38Z</time>
      </trkpt>
      <trkpt lat="42.1735580" lon="-8.7977690">
        <ele>146.6</ele>
        <time>2021-05-20T07:34:39Z</time>
      </trkpt>
      <trkpt lat="42.1735700" lon="-8.7977730">
        <ele>146.6</ele>
        <time>2021-05-20T07:34:40Z</time>
      </trkpt>
      <trkpt lat="42.1735810" lon="-8.7977960">
        <ele>146.5</ele>
        <time>2021-05-20T07:34:41Z</time>
      </trkpt>
      <trkpt lat="42.1735830" lon="-8.7978170">
        <ele>146.5</ele>
        <time>2021-05-20T07:34:42Z</time>
      </trkpt>
      <trkpt lat="42.1735980" lon="-8.7978340">
        <ele>146.4</ele>
        <time>2021-05-20T07:34:43Z</time>
      </trkpt>
      <trkpt lat="42.1736090" lon="-8.7978460">
        <ele>146.4</ele>
        <time>2021-05-20T07:34:44Z</time>
      </trkpt>
      <trkpt lat="42.1736270" lon="-8.7978620">
        <ele>146.3</ele>
        <time>2021-05-20T07:34:45Z</time>
      </trkpt>
      <trkpt lat="42.1736310" lon="-8.7978720">
        <ele>146.3</ele>
        <time>2021-05-20T07:34:46Z</time>
      </trkpt>
      <trkpt lat="42.1736360" lon="-8.7978810">
        <ele>146.3</ele>
        <time>2021-05-20T07:34:47Z</time>
      </trkpt>
      <trkpt lat="42.1736440" lon="-8.7978810">
        <ele>146.3</ele>
        <time>2021-05-20T07:34:48Z</time>
      </trkpt>
      <trkpt lat="42.1736570" lon="-8.7978880">
        <ele>146.2</ele>
        <time>2021-05-20T07:34:49Z</time>
      </trkpt>
      <trkpt lat="42.1736690" lon="-8.7978970">
        <ele>146.2</ele>
        <time>2021-05-20T07:34:50Z</time>
      </trkpt>
      <trkpt lat="42.1736780" lon="-8.7979070">
        <ele>146.2</ele>
        <time>2021-05-20T07:34:51Z</time>
      </trkpt>
      <trkpt lat="42.1736820" lon="-8.7979140">
        <ele>146.1</ele>
        <time>2021-05-20T07:34:52Z</time>
      </trkpt>
      <trkpt lat="42.1736980" lon="-8.7979150">
        <ele>146.1</ele>
        <time>2021-05-20T07:34:53Z</time>
      </trkpt>
      <trkpt lat="42.1737140" lon="-8.7979220">
        <ele>146.0</ele>
        <time>2021-05-20T07:34:54Z</time>
      </trkpt>
      <trkpt lat="42.1737270" lon="-8.7979290">
        <ele>146.0</ele>
        <time>2021-05-20T07:34:55Z</time>
      </trkpt>
      <trkpt lat="42.1737320" lon="-8.7979360">
        <ele>146.0</ele>
        <time>2021-05-20T07:34:56Z</time>
      </trkpt>
      <trkpt lat="42.1737510" lon="-8.7979420">
        <ele>145.9</ele>
        <time>2021-05-20T07:34:57Z</time>
      </trkpt>
      <trkpt lat="42.1737600" lon="-8.7979520">
        <ele>145.9</ele>
        <time>2021-05-20T07:34:58Z</time>
      </trkpt>
      <trkpt lat="42.1737690" lon="-8.7979540">
        <ele>145.9</ele>
        <time>2021-05-20T07:34:59Z</time>
      </trkpt>
      <trkpt lat="42.1737790" lon="-8.7979500">
        <ele>145.8</ele>
        <time>2021-05-20T07:35:00Z</time>
      </trkpt>
      <trkpt lat="42.1737780" lon="-8.7979530">
        <ele>145.8</ele>
        <time>2021-05-20T07:35:01Z</time>
      </trkpt>
      <trkpt lat="42.1737910" lon="-8.7979550">
        <ele>145.8</ele>
        <time>2021-05-20T07:35:02Z</time>
      </trkpt>
      <trkpt lat="42.1737990" lon="-8.7979810">
        <ele>145.7</ele>
        <time>2021-05-20T07:35:03Z</time>
      </trkpt>
      <trkpt lat="42.1738060" lon="-8.7979880">
        <ele>145.7</ele>
        <time>2021-05-20T07:35:04Z</time>
      </trkpt>
      <trkpt lat="42.1738140" lon="-8.7979940">
        <ele>145.7</ele>
        <time>2021-05-20T07:35:05Z</time>
      </trkpt>
      <trkpt lat="42.1738170" lon="-8.7979920">
        <ele>145.6</ele>
        <time>2021-05-20T07:35:06Z</time>
      </trkpt>
      <trkpt lat="42.1738170" lon="-8.7979970">
        <ele>145.6</ele>
        <time>2021-05-20T07:35:07Z</time>
      </trkpt>
      <trkpt lat="42.1738150" lon="-8.7979960">
        <ele>145.6</ele>
        <time>2021-05-20T07:35:08Z</time>
      </trkpt>
      <trkpt lat="42.1738160" lon="-8.7979960">
        <ele>145.6</ele>
        <time>2021-05-20T07:35:09Z</time>
      </trkpt>
      <trkpt lat="42.1738200" lon="-8.7980080">
        <ele>145.6</ele>
        <time>2021-05-20T07:35:10Z</time>
      </trkpt>
      <trkpt lat="42.1738280" lon="-8.7980200">
        <ele>145.5</ele>
        <time>2021-05-20T07:35:11Z</time>
      </trkpt>
      <trkpt lat="42.1738290" lon="-8.7980280">
        <ele>145.5</ele>
        <time>2021-05-20T07:35:12Z</time>
      </trkpt>
      <trkpt lat="42.1738300" lon="-8.7980370">
        <ele>145.5</ele>
        <time>2021-05-20T07:35:13Z</time>
      </trkpt>
      <trkpt lat="42.1738310" lon="-8.7980370">
        <ele>145.5</ele>
        <time>2021-05-20T07:35:14Z</time>
      </trkpt>
      <trkpt lat="42.1738330" lon="-8.7980380">
        <ele>145.5</ele>
        <time>2021-05-20T07:35:15Z</time>
      </trkpt>
      <trkpt lat="42.1738390" lon="-8.7980440">
        <ele>145.4</ele>
        <time>2021-05-20T07:35:16Z</time>
      </trkpt>
      <trkpt lat="42.1738460" lon="-8.7980570">
        <ele>145.4</ele>
        <time>2021-05-20T07:35:17Z</time>
      </trkpt>
      <trkpt lat="42.1738570" lon="-8.7980670">
        <ele>145.3</ele>
        <time>2021-05-20T07:35:18Z</time>
      </trkpt>
      <trkpt lat="42.1738660" lon="-8.7980780">
        <ele>145.3</ele>
        <time>2021-05-20T07:35:19Z</time>
      </trkpt>
      <trkpt lat="42.1738640" lon="-8.7980870">
        <ele>145.2</ele>
        <time>2021-05-20T07:35:20Z</time>
      </trkpt>
      <trkpt lat="42.1738700" lon="-8.7980920">
        <ele>145.2</ele>
        <time>2021-05-20T07:35:21Z</time>
      </trkpt>
      <trkpt lat="42.1738830" lon="-8.7980950">
        <ele>145.2</ele>
        <time>2021-05-20T07:35:22Z</time>
      </trkpt>
      <trkpt lat="42.1738910" lon="-8.7980950">
        <ele>145.1</ele>
        <time>2021-05-20T07:35:23Z</time>
      </trkpt>
      <trkpt lat="42.1738980" lon="-8.7981120">
        <ele>145.0</ele>
        <time>2021-05-20T07:35:24Z</time>
      </trkpt>
      <trkpt lat="42.1739060" lon="-8.7981220">
        <ele>145.0</ele>
        <time>2021-05-20T07:35:25Z</time>
      </trkpt>
      <trkpt lat="42.1739180" lon="-8.7981240">
        <ele>144.9</ele>
        <time>2021-05-20T07:35:26Z</time>
      </trkpt>
      <trkpt lat="42.1739220" lon="-8.7981270">
        <ele>144.9</ele>
        <time>2021-05-20T07:35:27Z</time>
      </trkpt>
      <trkpt lat="42.1739280" lon="-8.7981350">
        <ele>144.9</ele>
        <time>2021-05-20T07:35:28Z</time>
      </trkpt>
      <trkpt lat="42.1739440" lon="-8.7981380">
        <ele>144.8</ele>
        <time>2021-05-20T07:35:29Z</time>
      </trkpt>
      <trkpt lat="42.1739640" lon="-8.7981520">
        <ele>144.7</ele>
        <time>2021-05-20T07:35:30Z</time>
      </trkpt>
      <trkpt lat="42.1739700" lon="-8.7981570">
        <ele>144.6</ele>
        <time>2021-05-20T07:35:31Z</time>
      </trkpt>
      <trkpt lat="42.1739770" lon="-8.7981630">
        <ele>144.6</ele>
        <time>2021-05-20T07:35:32Z</time>
      </trkpt>
      <trkpt lat="42.1739840" lon="-8.7981720">
        <ele>144.5</ele>
        <time>2021-05-20T07:35:33Z</time>
      </trkpt>
      <trkpt lat="42.1739900" lon="-8.7981860">
        <ele>144.5</ele>
        <time>2021-05-20T07:35:34Z</time>
      </trkpt>
      <trkpt lat="42.1739990" lon="-8.7981990">
        <ele>144.4</ele>
        <time>2021-05-20T07:35:35Z</time>
      </trkpt>
      <trkpt lat="42.1740070" lon="-8.7981940">
        <ele>144.3</ele>
        <time>2021-05-20T07:35:36Z</time>
      </trkpt>
      <trkpt lat="42.1740190" lon="-8.7982010">
        <ele>144.3</ele>
        <time>2021-05-20T07:35:37Z</time>
      </trkpt>
      <trkpt lat="42.1740270" lon="-8.7982100">
        <ele>144.2</ele>
        <time>2021-05-20T07:35:38Z</time>
      </trkpt>
      <trkpt lat="42.1740280" lon="-8.7982140">
        <ele>144.2</ele>
        <time>2021-05-20T07:35:39Z</time>
      </trkpt>
      <trkpt lat="42.1740340" lon="-8.7982180">
        <ele>144.1</ele>
        <time>2021-05-20T07:35:40Z</time>
      </trkpt>
      <trkpt lat="42.1740440" lon="-8.7982300">
        <ele>144.1</ele>
        <time>2021-05-20T07:35:41Z</time>
      </trkpt>
      <trkpt lat="42.1740550" lon="-8.7982350">
        <ele>144.0</ele>
        <time>2021-05-20T07:35:42Z</time>
      </trkpt>
      <trkpt lat="42.1740700" lon="-8.7982500">
        <ele>143.9</ele>
        <time>2021-05-20T07:35:43Z</time>
      </trkpt>
      <trkpt lat="42.1740790" lon="-8.7982560">
        <ele>143.8</ele>
        <time>2021-05-20T07:35:44Z</time>
      </trkpt>
      <trkpt lat="42.1740870" lon="-8.7982630">
        <ele>143.7</ele>
        <time>2021-05-20T07:35:45Z</time>
      </trkpt>
      <trkpt lat="42.1741020" lon="-8.7982710">
        <ele>143.6</ele>
        <time>2021-05-20T07:35:46Z</time>
      </trkpt>
      <trkpt lat="42.1741160" lon="-8.7982820">
        <ele>143.5</ele>
        <time>2021-05-20T07:35:47Z</time>
      </trkpt>
      <trkpt lat="42.1741290" lon="-8.7982930">
        <ele>143.4</ele>
        <time>2021-05-20T07:35:48Z</time>
      </trkpt>
      <trkpt lat="42.1741430" lon="-8.7983000">
        <ele>143.3</ele>
        <time>2021-05-20T07:35:49Z</time>
      </trkpt>
      <trkpt lat="42.1741580" lon="-8.7983070">
        <ele>143.2</ele>
        <time>2021-05-20T07:35:50Z</time>
      </trkpt>
      <trkpt lat="42.1741700" lon="-8.7983110">
        <ele>143.1</ele>
        <time>2021-05-20T07:35:51Z</time>
      </trkpt>
      <trkpt lat="42.1741760" lon="-8.7983160">
        <ele>143.0</ele>
        <time>2021-05-20T07:35:52Z</time>
      </trkpt>
      <trkpt lat="42.1741820" lon="-8.7983170">
        <ele>143.0</ele>
        <time>2021-05-20T07:35:53Z</time>
      </trkpt>
      <trkpt lat="42.1741900" lon="-8.7983210">
        <ele>142.9</ele>
        <time>2021-05-20T07:35:54Z</time>
      </trkpt>
      <trkpt lat="42.1742000" lon="-8.7983190">
        <ele>142.9</ele>
        <time>2021-05-20T07:35:55Z</time>
      </trkpt>
      <trkpt lat="42.1742100" lon="-8.7983130">
        <ele>142.8</ele>
        <time>2021-05-20T07:35:56Z</time>
      </trkpt>
      <trkpt lat="42.1742200" lon="-8.7983060">
        <ele>142.7</ele>
        <time>2021-05-20T07:35:57Z</time>
      </trkpt>
      <trkpt lat="42.1742270" lon="-8.7983020">
        <ele>142.7</ele>
        <time>2021-05-20T07:35:58Z</time>
      </trkpt>
      <trkpt lat="42.1742340" lon="-8.7983050">
        <ele>142.6</ele>
        <time>2021-05-20T07:35:59Z</time>
      </trkpt>
      <trkpt lat="42.1742450" lon="-8.7983130">
        <ele>142.5</ele>
        <time>2021-05-20T07:36:00Z</time>
      </trkpt>
      <trkpt lat="42.1742400" lon="-8.7983150">
        <ele>142.5</ele>
        <time>2021-05-20T07:36:01Z</time>
      </trkpt>
      <trkpt lat="42.1742370" lon="-8.7983170">
        <ele>142.5</ele>
        <time>2021-05-20T07:36:02Z</time>
      </trkpt>
      <trkpt lat="42.1742400" lon="-8.7983190">
        <ele>142.4</ele>
        <time>2021-05-20T07:36:03Z</time>
      </trkpt>
      <trkpt lat="42.1742460" lon="-8.7983300">
        <ele>142.4</ele>
        <time>2021-05-20T07:36:04Z</time>
      </trkpt>
      <trkpt lat="42.1742510" lon="-8.7983460">
        <ele>142.3</ele>
        <time>2021-05-20T07:36:05Z</time>
      </trkpt>
      <trkpt lat="42.1742560" lon="-8.7983510">
        <ele>142.2</ele>
        <time>2021-05-20T07:36:06Z</time>
      </trkpt>
      <trkpt lat="42.1742560" lon="-8.7983500">
        <ele>142.2</ele>
        <time>2021-05-20T07:36:07Z</time>
      </trkpt>
      <trkpt lat="42.1742560" lon="-8.7983510">
        <ele>142.2</ele>
        <time>2021-05-20T07:36:08Z</time>
      </trkpt>
      <trkpt lat="42.1742520" lon="-8.7983550">
        <ele>142.2</ele>
        <time>2021-05-20T07:36:09Z</time>
      </trkpt>
      <trkpt lat="42.1742540" lon="-8.7983490">
        <ele>142.1</ele>
        <time>2021-05-20T07:36:10Z</time>
      </trkpt>
      <trkpt lat="42.1742570" lon="-8.7983440">
        <ele>142.1</ele>
        <time>2021-05-20T07:36:11Z</time>
      </trkpt>
      <trkpt lat="42.1742580" lon="-8.7983350">
        <ele>142.0</ele>
        <time>2021-05-20T07:36:12Z</time>
      </trkpt>
      <trkpt lat="42.1742580" lon="-8.7983340">
        <ele>142.0</ele>
        <time>2021-05-20T07:36:13Z</time>
      </trkpt>
      <trkpt lat="42.1742600" lon="-8.7983370">
        <ele>142.0</ele>
        <time>2021-05-20T07:36:14Z</time>
      </trkpt>
      <trkpt lat="42.1742670" lon="-8.7983300">
        <ele>142.0</ele>
        <time>2021-05-20T07:36:15Z</time>
      </trkpt>
      <trkpt lat="42.1742690" lon="-8.7983250">
        <ele>141.9</ele>
        <time>2021-05-20T07:36:16Z</time>
      </trkpt>
      <trkpt lat="42.1742690" lon="-8.7983220">
        <ele>141.9</ele>
        <time>2021-05-20T07:36:17Z</time>
      </trkpt>
      <trkpt lat="42.1742690" lon="-8.7983220">
        <ele>141.8</ele>
        <time>2021-05-20T07:36:18Z</time>
      </trkpt>
      <trkpt lat="42.1742640" lon="-8.7982980">
        <ele>141.7</ele>
        <time>2021-05-20T07:36:19Z</time>
      </trkpt>
      <trkpt lat="42.1742610" lon="-8.7982930">
        <ele>141.7</ele>
        <time>2021-05-20T07:36:20Z</time>
      </trkpt>
      <trkpt lat="42.1742520" lon="-8.7982970">
        <ele>141.6</ele>
        <time>2021-05-20T07:36:21Z</time>
      </trkpt>
      <trkpt lat="42.1742500" lon="-8.7982950">
        <ele>141.6</ele>
        <time>2021-05-20T07:36:22Z</time>
      </trkpt>
      <trkpt lat="42.1742470" lon="-8.7982950">
        <ele>141.6</ele>
        <time>2021-05-20T07:36:23Z</time>
      </trkpt>
      <trkpt lat="42.1742480" lon="-8.7982960">
        <ele>141.6</ele>
        <time>2021-05-20T07:36:24Z</time>
      </trkpt>
      <trkpt lat="42.1742310" lon="-8.7982870">
        <ele>141.4</ele>
        <time>2021-05-20T07:36:25Z</time>
      </trkpt>
      <trkpt lat="42.1742300" lon="-8.7982860">
        <ele>141.4</ele>
        <time>2021-05-20T07:36:26Z</time>
      </trkpt>
      <trkpt lat="42.1742300" lon="-8.7982890">
        <ele>141.4</ele>
        <time>2021-05-20T07:36:27Z</time>
      </trkpt>
      <trkpt lat="42.1742280" lon="-8.7982930">
        <ele>141.4</ele>
        <time>2021-05-20T07:36:28Z</time>
      </trkpt>
      <trkpt lat="42.1742300" lon="-8.7982880">
        <ele>141.4</ele>
        <time>2021-05-20T07:36:29Z</time>
      </trkpt>
      <trkpt lat="42.1742300" lon="-8.7982960">
        <ele>141.3</ele>
        <time>2021-05-20T07:36:30Z</time>
      </trkpt>
      <trkpt lat="42.1742320" lon="-8.7983070">
        <ele>141.2</ele>
        <time>2021-05-20T07:36:31Z</time>
      </trkpt>
      <trkpt lat="42.1742340" lon="-8.7983120">
        <ele>141.2</ele>
        <time>2021-05-20T07:36:32Z</time>
      </trkpt>
      <trkpt lat="42.1742340" lon="-8.7983140">
        <ele>141.1</ele>
        <time>2021-05-20T07:36:33Z</time>
      </trkpt>
      <trkpt lat="42.1742350" lon="-8.7983210">
        <ele>141.1</ele>
        <time>2021-05-20T07:36:34Z</time>
      </trkpt>
      <trkpt lat="42.1742400" lon="-8.7983260">
        <ele>141.0</ele>
        <time>2021-05-20T07:36:35Z</time>
      </trkpt>
      <trkpt lat="42.1742420" lon="-8.7983280">
        <ele>141.0</ele>
        <time>2021-05-20T07:36:36Z</time>
      </trkpt>
      <trkpt lat="42.1742430" lon="-8.7983310">
        <ele>141.0</ele>
        <time>2021-05-20T07:36:37Z</time>
      </trkpt>
      <trkpt lat="42.1742460" lon="-8.7983340">
        <ele>141.0</ele>
        <time>2021-05-20T07:36:38Z</time>
      </trkpt>
      <trkpt lat="42.1742440" lon="-8.7983360">
        <ele>140.9</ele>
        <time>2021-05-20T07:36:39Z</time>
      </trkpt>
      <trkpt lat="42.1742450" lon="-8.7983400">
        <ele>140.9</ele>
        <time>2021-05-20T07:36:40Z</time>
      </trkpt>
      <trkpt lat="42.1742480" lon="-8.7983350">
        <ele>140.9</ele>
        <time>2021-05-20T07:36:41Z</time>
      </trkpt>
      <trkpt lat="42.1742530" lon="-8.7983300">
        <ele>140.8</ele>
        <time>2021-05-20T07:36:42Z</time>
      </trkpt>
      <trkpt lat="42.1742680" lon="-8.7983300">
        <ele>140.7</ele>
        <time>2021-05-20T07:36:43Z</time>
      </trkpt>
      <trkpt lat="42.1742760" lon="-8.7983210">
        <ele>140.6</ele>
        <time>2021-05-20T07:36:44Z</time>
      </trkpt>
      <trkpt lat="42.1742770" lon="-8.7983190">
        <ele>140.6</ele>
        <time>2021-05-20T07:36:45Z</time>
      </trkpt>
      <trkpt lat="42.1742710" lon="-8.7983230">
        <ele>140.5</ele>
        <time>2021-05-20T07:36:46Z</time>
      </trkpt>
      <trkpt lat="42.1742740" lon="-8.7983270">
        <ele>140.5</ele>
        <time>2021-05-20T07:36:47Z</time>
      </trkpt>
      <trkpt lat="42.1742770" lon="-8.7983310">
        <ele>140.4</ele>
        <time>2021-05-20T07:36:48Z</time>
      </trkpt>
      <trkpt lat="42.1742740" lon="-8.7983380">
        <ele>140.4</ele>
        <time>2021-05-20T07:36:49Z</time>
      </trkpt>
      <trkpt lat="42.1742760" lon="-8.7983420">
        <ele>140.3</ele>
        <time>2021-05-20T07:36:50Z</time>
      </trkpt>
      <trkpt lat="42.1742720" lon="-8.7983390">
        <ele>140.3</ele>
        <time>2021-05-20T07:36:51Z</time>
      </trkpt>
      <trkpt lat="42.1742680" lon="-8.7983320">
        <ele>140.2</ele>
        <time>2021-05-20T07:36:52Z</time>
      </trkpt>
      <trkpt lat="42.1742680" lon="-8.7983350">
        <ele>140.2</ele>
        <time>2021-05-20T07:36:53Z</time>
      </trkpt>
      <trkpt lat="42.1742730" lon="-8.7983290">
        <ele>140.1</ele>
        <time>2021-05-20T07:36:54Z</time>
      </trkpt>
      <trkpt lat="42.1742770" lon="-8.7983300">
        <ele>140.1</ele>
        <time>2021-05-20T07:36:55Z</time>
      </trkpt>
      <trkpt lat="42.1742770" lon="-8.7983090">
        <ele>139.9</ele>
        <time>2021-05-20T07:36:56Z</time>
      </trkpt>
      <trkpt lat="42.1742910" lon="-8.7982990">
        <ele>139.8</ele>
        <time>2021-05-20T07:36:57Z</time>
      </trkpt>
      <trkpt lat="42.1743020" lon="-8.7982900">
        <ele>139.5</ele>
        <time>2021-05-20T07:36:58Z</time>
      </trkpt>
      <trkpt lat="42.1743110" lon="-8.7982890">
        <ele>139.4</ele>
        <time>2021-05-20T07:36:59Z</time>
      </trkpt>
      <trkpt lat="42.1743170" lon="-8.7982800">
        <ele>139.3</ele>
        <time>2021-05-20T07:37:00Z</time>
      </trkpt>
      <trkpt lat="42.1743400" lon="-8.7982810">
        <ele>139.1</ele>
        <time>2021-05-20T07:37:01Z</time>
      </trkpt>
      <trkpt lat="42.1743470" lon="-8.7982850">
        <ele>139.0</ele>
        <time>2021-05-20T07:37:02Z</time>
      </trkpt>
      <trkpt lat="42.1743540" lon="-8.7982900">
        <ele>138.9</ele>
        <time>2021-05-20T07:37:03Z</time>
      </trkpt>
      <trkpt lat="42.1743650" lon="-8.7982870">
        <ele>138.8</ele>
        <time>2021-05-20T07:37:04Z</time>
      </trkpt>
      <trkpt lat="42.1743730" lon="-8.7982890">
        <ele>138.7</ele>
        <time>2021-05-20T07:37:05Z</time>
      </trkpt>
      <trkpt lat="42.1743900" lon="-8.7982840">
        <ele>138.5</ele>
        <time>2021-05-20T07:37:06Z</time>
      </trkpt>
      <trkpt lat="42.1744000" lon="-8.7982850">
        <ele>138.4</ele>
        <time>2021-05-20T07:37:07Z</time>
      </trkpt>
      <trkpt lat="42.1744090" lon="-8.7982850">
        <ele>138.3</ele>
        <time>2021-05-20T07:37:08Z</time>
      </trkpt>
      <trkpt lat="42.1744160" lon="-8.7982860">
        <ele>138.2</ele>
        <time>2021-05-20T07:37:09Z</time>
      </trkpt>
      <trkpt lat="42.1744190" lon="-8.7982910">
        <ele>138.2</ele>
        <time>2021-05-20T07:37:10Z</time>
      </trkpt>
      <trkpt lat="42.1744470" lon="-8.7982840">
        <ele>137.8</ele>
        <time>2021-05-20T07:37:11Z</time>
      </trkpt>
      <trkpt lat="42.1744560" lon="-8.7982840">
        <ele>137.7</ele>
        <time>2021-05-20T07:37:12Z</time>
      </trkpt>
      <trkpt lat="42.1744650" lon="-8.7982850">
        <ele>137.6</ele>
        <time>2021-05-20T07:37:13Z</time>
      </trkpt>
      <trkpt lat="42.1744740" lon="-8.7982880">
        <ele>137.5</ele>
        <time>2021-05-20T07:37:14Z</time>
      </trkpt>
      <trkpt lat="42.1744830" lon="-8.7982840">
        <ele>137.4</ele>
        <time>2021-05-20T07:37:15Z</time>
      </trkpt>
      <trkpt lat="42.1744970" lon="-8.7982790">
        <ele>137.3</ele>
        <time>2021-05-20T07:37:16Z</time>
      </trkpt>
      <trkpt lat="42.1745040" lon="-8.7982780">
        <ele>137.2</ele>
        <time>2021-05-20T07:37:17Z</time>
      </trkpt>
      <trkpt lat="42.1745150" lon="-8.7982770">
        <ele>137.0</ele>
        <time>2021-05-20T07:37:18Z</time>
      </trkpt>
      <trkpt lat="42.1745290" lon="-8.7982750">
        <ele>136.9</ele>
        <time>2021-05-20T07:37:19Z</time>
      </trkpt>
      <trkpt lat="42.1745400" lon="-8.7982710">
        <ele>136.8</ele>
        <time>2021-05-20T07:37:20Z</time>
      </trkpt>
      <trkpt lat="42.1745460" lon="-8.7982770">
        <ele>136.7</ele>
        <time>2021-05-20T07:37:21Z</time>
      </trkpt>
      <trkpt lat="42.1745580" lon="-8.7982780">
        <ele>136.6</ele>
        <time>2021-05-20T07:37:22Z</time>
      </trkpt>
      <trkpt lat="42.1745760" lon="-8.7982800">
        <ele>136.4</ele>
        <time>2021-05-20T07:37:23Z</time>
      </trkpt>
      <trkpt lat="42.1745840" lon="-8.7982790">
        <ele>136.3</ele>
        <time>2021-05-20T07:37:24Z</time>
      </trkpt>
      <trkpt lat="42.1745910" lon="-8.7982770">
        <ele>136.2</ele>
        <time>2021-05-20T07:37:25Z</time>
      </trkpt>
      <trkpt lat="42.1745980" lon="-8.7982750">
        <ele>136.2</ele>
        <time>2021-05-20T07:37:26Z</time>
      </trkpt>
      <trkpt lat="42.1746080" lon="-8.7982770">
        <ele>136.1</ele>
        <time>2021-05-20T07:37:27Z</time>
      </trkpt>
      <trkpt lat="42.1746170" lon="-8.7982810">
        <ele>136.0</ele>
        <time>2021-05-20T07:37:28Z</time>
      </trkpt>
      <trkpt lat="42.1746190" lon="-8.7982840">
        <ele>135.9</ele>
        <time>2021-05-20T07:37:29Z</time>
      </trkpt>
      <trkpt lat="42.1746270" lon="-8.7982890">
        <ele>135.9</ele>
        <time>2021-05-20T07:37:30Z</time>
      </trkpt>
      <trkpt lat="42.1746390" lon="-8.7982960">
        <ele>135.7</ele>
        <time>2021-05-20T07:37:31Z</time>
      </trkpt>
      <trkpt lat="42.1746580" lon="-8.7983000">
        <ele>135.6</ele>
        <time>2021-05-20T07:37:32Z</time>
      </trkpt>
      <trkpt lat="42.1746650" lon="-8.7982990">
        <ele>135.5</ele>
        <time>2021-05-20T07:37:33Z</time>
      </trkpt>
      <trkpt lat="42.1746700" lon="-8.7982970">
        <ele>135.5</ele>
        <time>2021-05-20T07:37:34Z</time>
      </trkpt>
      <trkpt lat="42.1746860" lon="-8.7982980">
        <ele>135.4</ele>
        <time>2021-05-20T07:37:35Z</time>
      </trkpt>
      <trkpt lat="42.1746990" lon="-8.7982970">
        <ele>135.3</ele>
        <time>2021-05-20T07:37:36Z</time>
      </trkpt>
      <trkpt lat="42.1747190" lon="-8.7982980">
        <ele>135.1</ele>
        <time>2021-05-20T07:37:37Z</time>
      </trkpt>
      <trkpt lat="42.1747390" lon="-8.7983100">
        <ele>135.0</ele>
        <time>2021-05-20T07:37:38Z</time>
      </trkpt>
      <trkpt lat="42.1747470" lon="-8.7983130">
        <ele>134.9</ele>
        <time>2021-05-20T07:37:39Z</time>
      </trkpt>
      <trkpt lat="42.1747550" lon="-8.7983150">
        <ele>134.9</ele>
        <time>2021-05-20T07:37:40Z</time>
      </trkpt>
      <trkpt lat="42.1747700" lon="-8.7983200">
        <ele>134.8</ele>
        <time>2021-05-20T07:37:41Z</time>
      </trkpt>
      <trkpt lat="42.1747870" lon="-8.7983190">
        <ele>134.7</ele>
        <time>2021-05-20T07:37:42Z</time>
      </trkpt>
      <trkpt lat="42.1747910" lon="-8.7983220">
        <ele>134.6</ele>
        <time>2021-05-20T07:37:43Z</time>
      </trkpt>
      <trkpt lat="42.1748090" lon="-8.7983230">
        <ele>134.6</ele>
        <time>2021-05-20T07:37:44Z</time>
      </trkpt>
      <trkpt lat="42.1748130" lon="-8.7983200">
        <ele>134.5</ele>
        <time>2021-05-20T07:37:45Z</time>
      </trkpt>
      <trkpt lat="42.1748180" lon="-8.7983300">
        <ele>134.5</ele>
        <time>2021-05-20T07:37:46Z</time>
      </trkpt>
      <trkpt lat="42.1748370" lon="-8.7983430">
        <ele>134.4</ele>
        <time>2021-05-20T07:37:47Z</time>
      </trkpt>
      <trkpt lat="42.1748450" lon="-8.7983440">
        <ele>134.4</ele>
        <time>2021-05-20T07:37:48Z</time>
      </trkpt>
      <trkpt lat="42.1748540" lon="-8.7983450">
        <ele>134.3</ele>
        <time>2021-05-20T07:37:49Z</time>
      </trkpt>
      <trkpt lat="42.1748590" lon="-8.7983520">
        <ele>134.3</ele>
        <time>2021-05-20T07:37:50Z</time>
      </trkpt>
      <trkpt lat="42.1748570" lon="-8.7983530">
        <ele>134.3</ele>
        <time>2021-05-20T07:37:51Z</time>
      </trkpt>
      <trkpt lat="42.1748580" lon="-8.7983510">
        <ele>134.3</ele>
        <time>2021-05-20T07:37:52Z</time>
      </trkpt>
      <trkpt lat="42.1748590" lon="-8.7983470">
        <ele>134.3</ele>
        <time>2021-05-20T07:37:53Z</time>
      </trkpt>
      <trkpt lat="42.1748500" lon="-8.7983320">
        <ele>134.2</ele>
        <time>2021-05-20T07:37:54Z</time>
      </trkpt>
      <trkpt lat="42.1748470" lon="-8.7983240">
        <ele>134.2</ele>
        <time>2021-05-20T07:37:55Z</time>
      </trkpt>
      <trkpt lat="42.1748470" lon="-8.7983270">
        <ele>134.2</ele>
        <time>2021-05-20T07:37:56Z</time>
      </trkpt>
      <trkpt lat="42.1748480" lon="-8.7983220">
        <ele>134.2</ele>
        <time>2021-05-20T07:37:57Z</time>
      </trkpt>
      <trkpt lat="42.1748470" lon="-8.7983190">
        <ele>134.2</ele>
        <time>2021-05-20T07:37:58Z</time>
      </trkpt>
      <trkpt lat="42.1748460" lon="-8.7983230">
        <ele>134.2</ele>
        <time>2021-05-20T07:37:59Z</time>
      </trkpt>
      <trkpt lat="42.1748460" lon="-8.7983220">
        <ele>134.1</ele>
        <time>2021-05-20T07:38:00Z</time>
      </trkpt>
      <trkpt lat="42.1748450" lon="-8.7983260">
        <ele>134.1</ele>
        <time>2021-05-20T07:38:01Z</time>
      </trkpt>
      <trkpt lat="42.1748440" lon="-8.7983270">
        <ele>134.1</ele>
        <time>2021-05-20T07:38:02Z</time>
      </trkpt>
      <trkpt lat="42.1748480" lon="-8.7983310">
        <ele>134.1</ele>
        <time>2021-05-20T07:38:03Z</time>
      </trkpt>
      <trkpt lat="42.1748500" lon="-8.7983360">
        <ele>134.1</ele>
        <time>2021-05-20T07:38:04Z</time>
      </trkpt>
      <trkpt lat="42.1748530" lon="-8.7983320">
        <ele>134.1</ele>
        <time>2021-05-20T07:38:05Z</time>
      </trkpt>
      <trkpt lat="42.1748560" lon="-8.7983500">
        <ele>134.1</ele>
        <time>2021-05-20T07:38:06Z</time>
      </trkpt>
      <trkpt lat="42.1748590" lon="-8.7983530">
        <ele>134.0</ele>
        <time>2021-05-20T07:38:07Z</time>
      </trkpt>
      <trkpt lat="42.1748630" lon="-8.7983560">
        <ele>134.0</ele>
        <time>2021-05-20T07:38:08Z</time>
      </trkpt>
      <trkpt lat="42.1748690" lon="-8.7983630">
        <ele>134.0</ele>
        <time>2021-05-20T07:38:09Z</time>
      </trkpt>
      <trkpt lat="42.1748670" lon="-8.7983630">
        <ele>134.0</ele>
        <time>2021-05-20T07:38:10Z</time>
      </trkpt>
      <trkpt lat="42.1748620" lon="-8.7983610">
        <ele>134.0</ele>
        <time>2021-05-20T07:38:11Z</time>
      </trkpt>
      <trkpt lat="42.1748630" lon="-8.7983680">
        <ele>134.0</ele>
        <time>2021-05-20T07:38:12Z</time>
      </trkpt>
      <trkpt lat="42.1748710" lon="-8.7983740">
        <ele>134.0</ele>
        <time>2021-05-20T07:38:13Z</time>
      </trkpt>
      <trkpt lat="42.1749060" lon="-8.7983680">
        <ele>133.9</ele>
        <time>2021-05-20T07:38:14Z</time>
      </trkpt>
      <trkpt lat="42.1749190" lon="-8.7983670">
        <ele>133.9</ele>
        <time>2021-05-20T07:38:15Z</time>
      </trkpt>
      <trkpt lat="42.1749390" lon="-8.7983700">
        <ele>133.8</ele>
        <time>2021-05-20T07:38:16Z</time>
      </trkpt>
      <trkpt lat="42.1749530" lon="-8.7983700">
        <ele>133.8</ele>
        <time>2021-05-20T07:38:17Z</time>
      </trkpt>
      <trkpt lat="42.1749660" lon="-8.7983770">
        <ele>133.8</ele>
        <time>2021-05-20T07:38:18Z</time>
      </trkpt>
      <trkpt lat="42.1749740" lon="-8.7983810">
        <ele>133.8</ele>
        <time>2021-05-20T07:38:19Z</time>
      </trkpt>
      <trkpt lat="42.1749820" lon="-8.7983860">
        <ele>133.8</ele>
        <time>2021-05-20T07:38:20Z</time>
      </trkpt>
      <trkpt lat="42.1749900" lon="-8.7983900">
        <ele>133.8</ele>
        <time>2021-05-20T07:38:21Z</time>
      </trkpt>
      <trkpt lat="42.1749990" lon="-8.7983870">
        <ele>133.8</ele>
        <time>2021-05-20T07:38:22Z</time>
      </trkpt>
      <trkpt lat="42.1750220" lon="-8.7983880">
        <ele>133.8</ele>
        <time>2021-05-20T07:38:23Z</time>
      </trkpt>
      <trkpt lat="42.1750360" lon="-8.7983900">
        <ele>133.8</ele>
        <time>2021-05-20T07:38:24Z</time>
      </trkpt>
      <trkpt lat="42.1750390" lon="-8.7983880">
        <ele>133.8</ele>
        <time>2021-05-20T07:38:25Z</time>
      </trkpt>
      <trkpt lat="42.1750550" lon="-8.7983870">
        <ele>133.8</ele>
        <time>2021-05-20T07:38:26Z</time>
      </trkpt>
      <trkpt lat="42.1750780" lon="-8.7983960">
        <ele>133.8</ele>
        <time>2021-05-20T07:38:27Z</time>
      </trkpt>
      <trkpt lat="42.1750900" lon="-8.7984000">
        <ele>133.8</ele>
        <time>2021-05-20T07:38:28Z</time>
      </trkpt>
      <trkpt lat="42.1751020" lon="-8.7984050">
        <ele>133.8</ele>
        <time>2021-05-20T07:38:29Z</time>
      </trkpt>
      <trkpt lat="42.1751150" lon="-8.7984100">
        <ele>133.8</ele>
        <time>2021-05-20T07:38:30Z</time>
      </trkpt>
      <trkpt lat="42.1751290" lon="-8.7984150">
        <ele>133.8</ele>
        <time>2021-05-20T07:38:31Z</time>
      </trkpt>
      <trkpt lat="42.1751440" lon="-8.7984180">
        <ele>133.8</ele>
        <time>2021-05-20T07:38:32Z</time>
      </trkpt>
      <trkpt lat="42.1751590" lon="-8.7984140">
        <ele>133.8</ele>
        <time>2021-05-20T07:38:33Z</time>
      </trkpt>
      <trkpt lat="42.1751750" lon="-8.7984120">
        <ele>133.8</ele>
        <time>2021-05-20T07:38:34Z</time>
      </trkpt>
      <trkpt lat="42.1751900" lon="-8.7984060">
        <ele>133.8</ele>
        <time>2021-05-20T07:38:35Z</time>
      </trkpt>
      <trkpt lat="42.1752090" lon="-8.7983990">
        <ele>133.8</ele>
        <time>2021-05-20T07:38:36Z</time>
      </trkpt>
      <trkpt lat="42.1752180" lon="-8.7983930">
        <ele>133.8</ele>
        <time>2021-05-20T07:38:37Z</time>
      </trkpt>
      <trkpt lat="42.1752270" lon="-8.7983880">
        <ele>133.8</ele>
        <time>2021-05-20T07:38:38Z</time>
      </trkpt>
      <trkpt lat="42.1752400" lon="-8.7983850">
        <ele>133.8</ele>
        <time>2021-05-20T07:38:39Z</time>
      </trkpt>
      <trkpt lat="42.1752460" lon="-8.7983710">
        <ele>133.8</ele>
        <time>2021-05-20T07:38:40Z</time>
      </trkpt>
      <trkpt lat="42.1752560" lon="-8.7983630">
        <ele>133.8</ele>
        <time>2021-05-20T07:38:41Z</time>
      </trkpt>
      <trkpt lat="42.1752660" lon="-8.7983480">
        <ele>133.8</ele>
        <time>2021-05-20T07:38:42Z</time>
      </trkpt>
      <trkpt lat="42.1752840" lon="-8.7983490">
        <ele>133.8</ele>
        <time>2021-05-20T07:38:43Z</time>
      </trkpt>
      <trkpt lat="42.1752990" lon="-8.7983300">
        <ele>133.8</ele>
        <time>2021-05-20T07:38:44Z</time>
      </trkpt>
      <trkpt lat="42.1753050" lon="-8.7983220">
        <ele>133.8</ele>
        <time>2021-05-20T07:38:45Z</time>
      </trkpt>
      <trkpt lat="42.1753120" lon="-8.7983150">
        <ele>133.8</ele>
        <time>2021-05-20T07:38:46Z</time>
      </trkpt>
      <trkpt lat="42.1753160" lon="-8.7982990">
        <ele>133.8</ele>
        <time>2021-05-20T07:38:47Z</time>
      </trkpt>
      <trkpt lat="42.1753250" lon="-8.7982900">
        <ele>133.8</ele>
        <time>2021-05-20T07:38:48Z</time>
      </trkpt>
      <trkpt lat="42.1753340" lon="-8.7982810">
        <ele>133.7</ele>
        <time>2021-05-20T07:38:49Z</time>
      </trkpt>
      <trkpt lat="42.1753440" lon="-8.7982720">
        <ele>133.7</ele>
        <time>2021-05-20T07:38:50Z</time>
      </trkpt>
      <trkpt lat="42.1753480" lon="-8.7982680">
        <ele>133.7</ele>
        <time>2021-05-20T07:38:51Z</time>
      </trkpt>
      <trkpt lat="42.1753610" lon="-8.7982610">
        <ele>133.7</ele>
        <time>2021-05-20T07:38:52Z</time>
      </trkpt>
      <trkpt lat="42.1753710" lon="-8.7982650">
        <ele>133.7</ele>
        <time>2021-05-20T07:38:53Z</time>
      </trkpt>
      <trkpt lat="42.1753900" lon="-8.7982610">
        <ele>133.7</ele>
        <time>2021-05-20T07:38:54Z</time>
      </trkpt>
      <trkpt lat="42.1754100" lon="-8.7982640">
        <ele>133.6</ele>
        <time>2021-05-20T07:38:55Z</time>
      </trkpt>
      <trkpt lat="42.1754200" lon="-8.7982640">
        <ele>133.6</ele>
        <time>2021-05-20T07:38:56Z</time>
      </trkpt>
      <trkpt lat="42.1754290" lon="-8.7982640">
        <ele>133.6</ele>
        <time>2021-05-20T07:38:57Z</time>
      </trkpt>
      <trkpt lat="42.1754500" lon="-8.7982700">
        <ele>133.5</ele>
        <time>2021-05-20T07:38:58Z</time>
      </trkpt>
      <trkpt lat="42.1754590" lon="-8.7982710">
        <ele>133.5</ele>
        <time>2021-05-20T07:38:59Z</time>
      </trkpt>
      <trkpt lat="42.1754670" lon="-8.7982730">
        <ele>133.5</ele>
        <time>2021-05-20T07:39:00Z</time>
      </trkpt>
      <trkpt lat="42.1754780" lon="-8.7982770">
        <ele>133.4</ele>
        <time>2021-05-20T07:39:01Z</time>
      </trkpt>
      <trkpt lat="42.1754810" lon="-8.7982800">
        <ele>133.4</ele>
        <time>2021-05-20T07:39:02Z</time>
      </trkpt>
      <trkpt lat="42.1754800" lon="-8.7982750">
        <ele>133.4</ele>
        <time>2021-05-20T07:39:03Z</time>
      </trkpt>
      <trkpt lat="42.1754940" lon="-8.7982830">
        <ele>133.4</ele>
        <time>2021-05-20T07:39:04Z</time>
      </trkpt>
      <trkpt lat="42.1755140" lon="-8.7982930">
        <ele>133.3</ele>
        <time>2021-05-20T07:39:05Z</time>
      </trkpt>
      <trkpt lat="42.1755210" lon="-8.7982970">
        <ele>133.3</ele>
        <time>2021-05-20T07:39:06Z</time>
      </trkpt>
      <trkpt lat="42.1755290" lon="-8.7983020">
        <ele>133.2</ele>
        <time>2021-05-20T07:39:07Z</time>
      </trkpt>
      <trkpt lat="42.1755420" lon="-8.7983020">
        <ele>133.2</ele>
        <time>2021-05-20T07:39:08Z</time>
      </trkpt>
      <trkpt lat="42.1755540" lon="-8.7983060">
        <ele>133.1</ele>
        <time>2021-05-20T07:39:09Z</time>
      </trkpt>
      <trkpt lat="42.1755600" lon="-8.7983110">
        <ele>133.1</ele>
        <time>2021-05-20T07:39:10Z</time>
      </trkpt>
      <trkpt lat="42.1755800" lon="-8.7983270">
        <ele>133.0</ele>
        <time>2021-05-20T07:39:11Z</time>
      </trkpt>
      <trkpt lat="42.1755880" lon="-8.7983310">
        <ele>133.0</ele>
        <time>2021-05-20T07:39:12Z</time>
      </trkpt>
      <trkpt lat="42.1755950" lon="-8.7983340">
        <ele>133.0</ele>
        <time>2021-05-20T07:39:13Z</time>
      </trkpt>
      <trkpt lat="42.1756080" lon="-8.7983400">
        <ele>132.9</ele>
        <time>2021-05-20T07:39:14Z</time>
      </trkpt>
      <trkpt lat="42.1756210" lon="-8.7983450">
        <ele>132.8</ele>
        <time>2021-05-20T07:39:15Z</time>
      </trkpt>
      <trkpt lat="42.1756320" lon="-8.7983510">
        <ele>132.8</ele>
        <time>2021-05-20T07:39:16Z</time>
      </trkpt>
      <trkpt lat="42.1756460" lon="-8.7983510">
        <ele>132.8</ele>
        <time>2021-05-20T07:39:17Z</time>
      </trkpt>
      <trkpt lat="42.1756560" lon="-8.7983520">
        <ele>132.7</ele>
        <time>2021-05-20T07:39:18Z</time>
      </trkpt>
      <trkpt lat="42.1756710" lon="-8.7983490">
        <ele>132.7</ele>
        <time>2021-05-20T07:39:19Z</time>
      </trkpt>
      <trkpt lat="42.1756840" lon="-8.7983480">
        <ele>132.6</ele>
        <time>2021-05-20T07:39:20Z</time>
      </trkpt>
      <trkpt lat="42.1756990" lon="-8.7983450">
        <ele>132.6</ele>
        <time>2021-05-20T07:39:21Z</time>
      </trkpt>
      <trkpt lat="42.1757110" lon="-8.7983420">
        <ele>132.5</ele>
        <time>2021-05-20T07:39:22Z</time>
      </trkpt>
      <trkpt lat="42.1757230" lon="-8.7983360">
        <ele>132.5</ele>
        <time>2021-05-20T07:39:23Z</time>
      </trkpt>
      <trkpt lat="42.1757390" lon="-8.7983290">
        <ele>132.4</ele>
        <time>2021-05-20T07:39:24Z</time>
      </trkpt>
      <trkpt lat="42.1757500" lon="-8.7983220">
        <ele>132.4</ele>
        <time>2021-05-20T07:39:25Z</time>
      </trkpt>
      <trkpt lat="42.1757600" lon="-8.7983210">
        <ele>132.3</ele>
        <time>2021-05-20T07:39:26Z</time>
      </trkpt>
      <trkpt lat="42.1757720" lon="-8.7983110">
        <ele>132.3</ele>
        <time>2021-05-20T07:39:27Z</time>
      </trkpt>
      <trkpt lat="42.1757890" lon="-8.7983020">
        <ele>132.2</ele>
        <time>2021-05-20T07:39:28Z</time>
      </trkpt>
      <trkpt lat="42.1757970" lon="-8.7982950">
        <ele>132.2</ele>
        <time>2021-05-20T07:39:29Z</time>
      </trkpt>
      <trkpt lat="42.1758050" lon="-8.7982890">
        <ele>132.2</ele>
        <time>2021-05-20T07:39:30Z</time>
      </trkpt>
      <trkpt lat="42.1758170" lon="-8.7982840">
        <ele>132.1</ele>
        <time>2021-05-20T07:39:31Z</time>
      </trkpt>
      <trkpt lat="42.1758260" lon="-8.7982740">
        <ele>132.1</ele>
        <time>2021-05-20T07:39:32Z</time>
      </trkpt>
      <trkpt lat="42.1758330" lon="-8.7982650">
        <ele>132.0</ele>
        <time>2021-05-20T07:39:33Z</time>
      </trkpt>
      <trkpt lat="42.1758430" lon="-8.7982530">
        <ele>132.0</ele>
        <time>2021-05-20T07:39:34Z</time>
      </trkpt>
      <trkpt lat="42.1758540" lon="-8.7982490">
        <ele>132.5</ele>
        <time>2021-05-20T07:39:35Z</time>
      </trkpt>
      <trkpt lat="42.1758630" lon="-8.7982400">
        <ele>134.1</ele>
        <time>2021-05-20T07:39:36Z</time>
      </trkpt>
      <trkpt lat="42.1758720" lon="-8.7982270">
        <ele>134.2</ele>
        <time>2021-05-20T07:39:37Z</time>
      </trkpt>
      <trkpt lat="42.1758820" lon="-8.7982120">
        <ele>134.7</ele>
        <time>2021-05-20T07:39:38Z</time>
      </trkpt>
      <trkpt lat="42.1758910" lon="-8.7982000">
        <ele>136.2</ele>
        <time>2021-05-20T07:39:39Z</time>
      </trkpt>
      <trkpt lat="42.1758990" lon="-8.7981910">
        <ele>136.7</ele>
        <time>2021-05-20T07:39:40Z</time>
      </trkpt>
      <trkpt lat="42.1759070" lon="-8.7981840">
        <ele>136.8</ele>
        <time>2021-05-20T07:39:41Z</time>
      </trkpt>
      <trkpt lat="42.1759160" lon="-8.7981800">
        <ele>137.3</ele>
        <time>2021-05-20T07:39:42Z</time>
      </trkpt>
      <trkpt lat="42.1759230" lon="-8.7981730">
        <ele>137.8</ele>
        <time>2021-05-20T07:39:43Z</time>
      </trkpt>
      <trkpt lat="42.1759320" lon="-8.7981670">
        <ele>138.3</ele>
        <time>2021-05-20T07:39:44Z</time>
      </trkpt>
      <trkpt lat="42.1759480" lon="-8.7981530">
        <ele>139.4</ele>
        <time>2021-05-20T07:39:45Z</time>
      </trkpt>
      <trkpt lat="42.1759560" lon="-8.7981470">
        <ele>139.9</ele>
        <time>2021-05-20T07:39:46Z</time>
      </trkpt>
      <trkpt lat="42.1759630" lon="-8.7981400">
        <ele>140.4</ele>
        <time>2021-05-20T07:39:47Z</time>
      </trkpt>
      <trkpt lat="42.1759780" lon="-8.7981310">
        <ele>140.6</ele>
        <time>2021-05-20T07:39:48Z</time>
      </trkpt>
      <trkpt lat="42.1759880" lon="-8.7981190">
        <ele>141.1</ele>
        <time>2021-05-20T07:39:49Z</time>
      </trkpt>
      <trkpt lat="42.1759940" lon="-8.7981140">
        <ele>142.5</ele>
        <time>2021-05-20T07:39:50Z</time>
      </trkpt>
      <trkpt lat="42.1760050" lon="-8.7981130">
        <ele>142.5</ele>
        <time>2021-05-20T07:39:51Z</time>
      </trkpt>
      <trkpt lat="42.1760160" lon="-8.7981030">
        <ele>142.4</ele>
        <time>2021-05-20T07:39:52Z</time>
      </trkpt>
      <trkpt lat="42.1760270" lon="-8.7980930">
        <ele>142.3</ele>
        <time>2021-05-20T07:39:53Z</time>
      </trkpt>
      <trkpt lat="42.1760370" lon="-8.7980860">
        <ele>142.2</ele>
        <time>2021-05-20T07:39:54Z</time>
      </trkpt>
      <trkpt lat="42.1760470" lon="-8.7980810">
        <ele>142.2</ele>
        <time>2021-05-20T07:39:55Z</time>
      </trkpt>
      <trkpt lat="42.1760690" lon="-8.7980740">
        <ele>142.0</ele>
        <time>2021-05-20T07:39:56Z</time>
      </trkpt>
      <trkpt lat="42.1760780" lon="-8.7980730">
        <ele>142.0</ele>
        <time>2021-05-20T07:39:57Z</time>
      </trkpt>
      <trkpt lat="42.1760880" lon="-8.7980710">
        <ele>141.9</ele>
        <time>2021-05-20T07:39:58Z</time>
      </trkpt>
      <trkpt lat="42.1761100" lon="-8.7980680">
        <ele>141.8</ele>
        <time>2021-05-20T07:39:59Z</time>
      </trkpt>
      <trkpt lat="42.1761170" lon="-8.7980680">
        <ele>141.7</ele>
        <time>2021-05-20T07:40:00Z</time>
      </trkpt>
      <trkpt lat="42.1761250" lon="-8.7980680">
        <ele>141.7</ele>
        <time>2021-05-20T07:40:01Z</time>
      </trkpt>
      <trkpt lat="42.1761450" lon="-8.7980640">
        <ele>141.6</ele>
        <time>2021-05-20T07:40:02Z</time>
      </trkpt>
      <trkpt lat="42.1761540" lon="-8.7980610">
        <ele>141.5</ele>
        <time>2021-05-20T07:40:03Z</time>
      </trkpt>
      <trkpt lat="42.1761640" lon="-8.7980580">
        <ele>141.5</ele>
        <time>2021-05-20T07:40:04Z</time>
      </trkpt>
      <trkpt lat="42.1761860" lon="-8.7980500">
        <ele>141.3</ele>
        <time>2021-05-20T07:40:05Z</time>
      </trkpt>
      <trkpt lat="42.1761960" lon="-8.7980470">
        <ele>141.3</ele>
        <time>2021-05-20T07:40:06Z</time>
      </trkpt>
      <trkpt lat="42.1762050" lon="-8.7980440">
        <ele>141.2</ele>
        <time>2021-05-20T07:40:07Z</time>
      </trkpt>
      <trkpt lat="42.1762190" lon="-8.7980440">
        <ele>141.1</ele>
        <time>2021-05-20T07:40:08Z</time>
      </trkpt>
      <trkpt lat="42.1762290" lon="-8.7980390">
        <ele>141.1</ele>
        <time>2021-05-20T07:40:09Z</time>
      </trkpt>
      <trkpt lat="42.1762400" lon="-8.7980330">
        <ele>141.0</ele>
        <time>2021-05-20T07:40:10Z</time>
      </trkpt>
      <trkpt lat="42.1762560" lon="-8.7980310">
        <ele>140.9</ele>
        <time>2021-05-20T07:40:11Z</time>
      </trkpt>
      <trkpt lat="42.1762680" lon="-8.7980270">
        <ele>140.9</ele>
        <time>2021-05-20T07:40:12Z</time>
      </trkpt>
      <trkpt lat="42.1762830" lon="-8.7980250">
        <ele>140.8</ele>
        <time>2021-05-20T07:40:13Z</time>
      </trkpt>
      <trkpt lat="42.1762930" lon="-8.7980260">
        <ele>140.7</ele>
        <time>2021-05-20T07:40:14Z</time>
      </trkpt>
      <trkpt lat="42.1763040" lon="-8.7980230">
        <ele>140.7</ele>
        <time>2021-05-20T07:40:15Z</time>
      </trkpt>
      <trkpt lat="42.1763130" lon="-8.7980220">
        <ele>140.6</ele>
        <time>2021-05-20T07:40:16Z</time>
      </trkpt>
      <trkpt lat="42.1763230" lon="-8.7980130">
        <ele>140.6</ele>
        <time>2021-05-20T07:40:17Z</time>
      </trkpt>
      <trkpt lat="42.1763340" lon="-8.7980090">
        <ele>140.5</ele>
        <time>2021-05-20T07:40:18Z</time>
      </trkpt>
      <trkpt lat="42.1763440" lon="-8.7980030">
        <ele>140.5</ele>
        <time>2021-05-20T07:40:19Z</time>
      </trkpt>
      <trkpt lat="42.1763510" lon="-8.7980020">
        <ele>140.4</ele>
        <time>2021-05-20T07:40:20Z</time>
      </trkpt>
      <trkpt lat="42.1763640" lon="-8.7980060">
        <ele>140.4</ele>
        <time>2021-05-20T07:40:21Z</time>
      </trkpt>
      <trkpt lat="42.1763860" lon="-8.7980010">
        <ele>140.3</ele>
        <time>2021-05-20T07:40:22Z</time>
      </trkpt>
      <trkpt lat="42.1763940" lon="-8.7979970">
        <ele>140.2</ele>
        <time>2021-05-20T07:40:23Z</time>
      </trkpt>
      <trkpt lat="42.1764010" lon="-8.7979930">
        <ele>140.2</ele>
        <time>2021-05-20T07:40:24Z</time>
      </trkpt>
      <trkpt lat="42.1764130" lon="-8.7979880">
        <ele>140.1</ele>
        <time>2021-05-20T07:40:25Z</time>
      </trkpt>
      <trkpt lat="42.1764230" lon="-8.7979830">
        <ele>140.1</ele>
        <time>2021-05-20T07:40:26Z</time>
      </trkpt>
      <trkpt lat="42.1764350" lon="-8.7979800">
        <ele>140.0</ele>
        <time>2021-05-20T07:40:27Z</time>
      </trkpt>
      <trkpt lat="42.1764460" lon="-8.7979790">
        <ele>140.0</ele>
        <time>2021-05-20T07:40:28Z</time>
      </trkpt>
      <trkpt lat="42.1764570" lon="-8.7979750">
        <ele>140.0</ele>
        <time>2021-05-20T07:40:29Z</time>
      </trkpt>
      <trkpt lat="42.1764690" lon="-8.7979720">
        <ele>139.9</ele>
        <time>2021-05-20T07:40:30Z</time>
      </trkpt>
      <trkpt lat="42.1764890" lon="-8.7979790">
        <ele>139.8</ele>
        <time>2021-05-20T07:40:31Z</time>
      </trkpt>
      <trkpt lat="42.1764980" lon="-8.7979800">
        <ele>139.8</ele>
        <time>2021-05-20T07:40:32Z</time>
      </trkpt>
      <trkpt lat="42.1765060" lon="-8.7979800">
        <ele>139.8</ele>
        <time>2021-05-20T07:40:33Z</time>
      </trkpt>
      <trkpt lat="42.1765200" lon="-8.7979850">
        <ele>139.7</ele>
        <time>2021-05-20T07:40:34Z</time>
      </trkpt>
      <trkpt lat="42.1765500" lon="-8.7979870">
        <ele>139.6</ele>
        <time>2021-05-20T07:40:35Z</time>
      </trkpt>
      <trkpt lat="42.1765640" lon="-8.7979840">
        <ele>139.5</ele>
        <time>2021-05-20T07:40:36Z</time>
      </trkpt>
      <trkpt lat="42.1765850" lon="-8.7979750">
        <ele>139.5</ele>
        <time>2021-05-20T07:40:37Z</time>
      </trkpt>
      <trkpt lat="42.1765930" lon="-8.7979690">
        <ele>139.4</ele>
        <time>2021-05-20T07:40:38Z</time>
      </trkpt>
      <trkpt lat="42.1766010" lon="-8.7979640">
        <ele>139.4</ele>
        <time>2021-05-20T07:40:39Z</time>
      </trkpt>
      <trkpt lat="42.1766200" lon="-8.7979510">
        <ele>139.3</ele>
        <time>2021-05-20T07:40:40Z</time>
      </trkpt>
      <trkpt lat="42.1766260" lon="-8.7979450">
        <ele>139.3</ele>
        <time>2021-05-20T07:40:41Z</time>
      </trkpt>
      <trkpt lat="42.1766330" lon="-8.7979400">
        <ele>139.3</ele>
        <time>2021-05-20T07:40:42Z</time>
      </trkpt>
      <trkpt lat="42.1766440" lon="-8.7979290">
        <ele>139.2</ele>
        <time>2021-05-20T07:40:43Z</time>
      </trkpt>
      <trkpt lat="42.1766560" lon="-8.7979170">
        <ele>139.2</ele>
        <time>2021-05-20T07:40:44Z</time>
      </trkpt>
      <trkpt lat="42.1766640" lon="-8.7979000">
        <ele>139.2</ele>
        <time>2021-05-20T07:40:45Z</time>
      </trkpt>
      <trkpt lat="42.1766700" lon="-8.7978890">
        <ele>139.1</ele>
        <time>2021-05-20T07:40:46Z</time>
      </trkpt>
      <trkpt lat="42.1766800" lon="-8.7978840">
        <ele>139.1</ele>
        <time>2021-05-20T07:40:47Z</time>
      </trkpt>
      <trkpt lat="42.1766870" lon="-8.7978690">
        <ele>139.1</ele>
        <time>2021-05-20T07:40:48Z</time>
      </trkpt>
      <trkpt lat="42.1766970" lon="-8.7978540">
        <ele>139.0</ele>
        <time>2021-05-20T07:40:49Z</time>
      </trkpt>
      <trkpt lat="42.1767050" lon="-8.7978430">
        <ele>139.0</ele>
        <time>2021-05-20T07:40:50Z</time>
      </trkpt>
      <trkpt lat="42.1767130" lon="-8.7978330">
        <ele>139.0</ele>
        <time>2021-05-20T07:40:51Z</time>
      </trkpt>
      <trkpt lat="42.1767240" lon="-8.7978240">
        <ele>139.0</ele>
        <time>2021-05-20T07:40:52Z</time>
      </trkpt>
      <trkpt lat="42.1767350" lon="-8.7978130">
        <ele>138.9</ele>
        <time>2021-05-20T07:40:53Z</time>
      </trkpt>
      <trkpt lat="42.1767420" lon="-8.7978010">
        <ele>138.9</ele>
        <time>2021-05-20T07:40:54Z</time>
      </trkpt>
      <trkpt lat="42.1767450" lon="-8.7977860">
        <ele>138.9</ele>
        <time>2021-05-20T07:40:55Z</time>
      </trkpt>
      <trkpt lat="42.1767610" lon="-8.7977680">
        <ele>138.8</ele>
        <time>2021-05-20T07:40:56Z</time>
      </trkpt>
      <trkpt lat="42.1767680" lon="-8.7977600">
        <ele>138.8</ele>
        <time>2021-05-20T07:40:57Z</time>
      </trkpt>
      <trkpt lat="42.1767740" lon="-8.7977520">
        <ele>138.8</ele>
        <time>2021-05-20T07:40:58Z</time>
      </trkpt>
      <trkpt lat="42.1767780" lon="-8.7977410">
        <ele>138.8</ele>
        <time>2021-05-20T07:40:59Z</time>
      </trkpt>
      <trkpt lat="42.1767880" lon="-8.7977300">
        <ele>138.8</ele>
        <time>2021-05-20T07:41:00Z</time>
      </trkpt>
      <trkpt lat="42.1767950" lon="-8.7977220">
        <ele>138.8</ele>
        <time>2021-05-20T07:41:01Z</time>
      </trkpt>
      <trkpt lat="42.1768060" lon="-8.7977140">
        <ele>138.7</ele>
        <time>2021-05-20T07:41:02Z</time>
      </trkpt>
      <trkpt lat="42.1768150" lon="-8.7977050">
        <ele>138.7</ele>
        <time>2021-05-20T07:41:03Z</time>
      </trkpt>
      <trkpt lat="42.1768210" lon="-8.7976930">
        <ele>138.7</ele>
        <time>2021-05-20T07:41:04Z</time>
      </trkpt>
      <trkpt lat="42.1768280" lon="-8.7976800">
        <ele>138.7</ele>
        <time>2021-05-20T07:41:05Z</time>
      </trkpt>
      <trkpt lat="42.1768350" lon="-8.7976680">
        <ele>138.7</ele>
        <time>2021-05-20T07:41:06Z</time>
      </trkpt>
      <trkpt lat="42.1768440" lon="-8.7976570">
        <ele>138.6</ele>
        <time>2021-05-20T07:41:08Z</time>
      </trkpt>
      <trkpt lat="42.1768500" lon="-8.7976450">
        <ele>138.6</ele>
        <time>2021-05-20T07:41:09Z</time>
      </trkpt>
      <trkpt lat="42.1768560" lon="-8.7976340">
        <ele>138.6</ele>
        <time>2021-05-20T07:41:10Z</time>
      </trkpt>
      <trkpt lat="42.1768640" lon="-8.7976200">
        <ele>138.6</ele>
        <time>2021-05-20T07:41:11Z</time>
      </trkpt>
      <trkpt lat="42.1768760" lon="-8.7976080">
        <ele>138.5</ele>
        <time>2021-05-20T07:41:12Z</time>
      </trkpt>
      <trkpt lat="42.1768860" lon="-8.7975950">
        <ele>138.5</ele>
        <time>2021-05-20T07:41:13Z</time>
      </trkpt>
      <trkpt lat="42.1769020" lon="-8.7975760">
        <ele>138.5</ele>
        <time>2021-05-20T07:41:14Z</time>
      </trkpt>
      <trkpt lat="42.1769080" lon="-8.7975690">
        <ele>138.5</ele>
        <time>2021-05-20T07:41:15Z</time>
      </trkpt>
      <trkpt lat="42.1769140" lon="-8.7975620">
        <ele>138.4</ele>
        <time>2021-05-20T07:41:16Z</time>
      </trkpt>
      <trkpt lat="42.1769230" lon="-8.7975490">
        <ele>138.4</ele>
        <time>2021-05-20T07:41:17Z</time>
      </trkpt>
      <trkpt lat="42.1769340" lon="-8.7975380">
        <ele>138.4</ele>
        <time>2021-05-20T07:41:18Z</time>
      </trkpt>
      <trkpt lat="42.1769490" lon="-8.7975170">
        <ele>138.4</ele>
        <time>2021-05-20T07:41:19Z</time>
      </trkpt>
      <trkpt lat="42.1769540" lon="-8.7975090">
        <ele>138.4</ele>
        <time>2021-05-20T07:41:20Z</time>
      </trkpt>
      <trkpt lat="42.1769580" lon="-8.7975000">
        <ele>138.4</ele>
        <time>2021-05-20T07:41:21Z</time>
      </trkpt>
      <trkpt lat="42.1769670" lon="-8.7974880">
        <ele>138.3</ele>
        <time>2021-05-20T07:41:22Z</time>
      </trkpt>
      <trkpt lat="42.1769760" lon="-8.7974780">
        <ele>138.3</ele>
        <time>2021-05-20T07:41:23Z</time>
      </trkpt>
      <trkpt lat="42.1769810" lon="-8.7974650">
        <ele>138.3</ele>
        <time>2021-05-20T07:41:24Z</time>
      </trkpt>
      <trkpt lat="42.1769890" lon="-8.7974540">
        <ele>138.3</ele>
        <time>2021-05-20T07:41:25Z</time>
      </trkpt>
      <trkpt lat="42.1769980" lon="-8.7974440">
        <ele>138.3</ele>
        <time>2021-05-20T07:41:26Z</time>
      </trkpt>
      <trkpt lat="42.1770060" lon="-8.7974330">
        <ele>138.3</ele>
        <time>2021-05-20T07:41:27Z</time>
      </trkpt>
      <trkpt lat="42.1770140" lon="-8.7974220">
        <ele>138.3</ele>
        <time>2021-05-20T07:41:28Z</time>
      </trkpt>
      <trkpt lat="42.1770230" lon="-8.7974100">
        <ele>138.3</ele>
        <time>2021-05-20T07:41:29Z</time>
      </trkpt>
      <trkpt lat="42.1770310" lon="-8.7973980">
        <ele>138.3</ele>
        <time>2021-05-20T07:41:30Z</time>
      </trkpt>
      <trkpt lat="42.1770410" lon="-8.7973800">
        <ele>138.2</ele>
        <time>2021-05-20T07:41:31Z</time>
      </trkpt>
      <trkpt lat="42.1770450" lon="-8.7973730">
        <ele>138.2</ele>
        <time>2021-05-20T07:41:32Z</time>
      </trkpt>
      <trkpt lat="42.1770490" lon="-8.7973660">
        <ele>138.2</ele>
        <time>2021-05-20T07:41:33Z</time>
      </trkpt>
      <trkpt lat="42.1770530" lon="-8.7973590">
        <ele>138.2</ele>
        <time>2021-05-20T07:41:34Z</time>
      </trkpt>
      <trkpt lat="42.1770590" lon="-8.7973510">
        <ele>138.2</ele>
        <time>2021-05-20T07:41:35Z</time>
      </trkpt>
      <trkpt lat="42.1770640" lon="-8.7973410">
        <ele>138.2</ele>
        <time>2021-05-20T07:41:36Z</time>
      </trkpt>
      <trkpt lat="42.1770700" lon="-8.7973280">
        <ele>138.2</ele>
        <time>2021-05-20T07:41:37Z</time>
      </trkpt>
      <trkpt lat="42.1770790" lon="-8.7973150">
        <ele>138.2</ele>
        <time>2021-05-20T07:41:38Z</time>
      </trkpt>
      <trkpt lat="42.1770830" lon="-8.7973030">
        <ele>138.2</ele>
        <time>2021-05-20T07:41:39Z</time>
      </trkpt>
      <trkpt lat="42.1770840" lon="-8.7972960">
        <ele>138.2</ele>
        <time>2021-05-20T07:41:40Z</time>
      </trkpt>
      <trkpt lat="42.1770860" lon="-8.7972890">
        <ele>138.2</ele>
        <time>2021-05-20T07:41:41Z</time>
      </trkpt>
      <trkpt lat="42.1770840" lon="-8.7972950">
        <ele>138.2</ele>
        <time>2021-05-20T07:41:42Z</time>
      </trkpt>
      <trkpt lat="42.1770860" lon="-8.7972970">
        <ele>138.2</ele>
        <time>2021-05-20T07:41:43Z</time>
      </trkpt>
      <trkpt lat="42.1770840" lon="-8.7972930">
        <ele>138.2</ele>
        <time>2021-05-20T07:41:44Z</time>
      </trkpt>
      <trkpt lat="42.1770830" lon="-8.7972950">
        <ele>138.2</ele>
        <time>2021-05-20T07:41:45Z</time>
      </trkpt>
      <trkpt lat="42.1770810" lon="-8.7972890">
        <ele>138.2</ele>
        <time>2021-05-20T07:41:46Z</time>
      </trkpt>
      <trkpt lat="42.1770830" lon="-8.7972910">
        <ele>138.2</ele>
        <time>2021-05-20T07:41:47Z</time>
      </trkpt>
      <trkpt lat="42.1770860" lon="-8.7972930">
        <ele>138.2</ele>
        <time>2021-05-20T07:41:48Z</time>
      </trkpt>
      <trkpt lat="42.1770920" lon="-8.7972960">
        <ele>138.2</ele>
        <time>2021-05-20T07:41:49Z</time>
      </trkpt>
      <trkpt lat="42.1770960" lon="-8.7972990">
        <ele>138.2</ele>
        <time>2021-05-20T07:41:50Z</time>
      </trkpt>
      <trkpt lat="42.1771000" lon="-8.7973040">
        <ele>138.2</ele>
        <time>2021-05-20T07:41:51Z</time>
      </trkpt>
      <trkpt lat="42.1771060" lon="-8.7972960">
        <ele>138.2</ele>
        <time>2021-05-20T07:41:52Z</time>
      </trkpt>
      <trkpt lat="42.1771120" lon="-8.7972790">
        <ele>138.2</ele>
        <time>2021-05-20T07:41:53Z</time>
      </trkpt>
      <trkpt lat="42.1771200" lon="-8.7972540">
        <ele>138.2</ele>
        <time>2021-05-20T07:41:54Z</time>
      </trkpt>
      <trkpt lat="42.1771240" lon="-8.7972370">
        <ele>138.1</ele>
        <time>2021-05-20T07:41:55Z</time>
      </trkpt>
      <trkpt lat="42.1771280" lon="-8.7972260">
        <ele>138.1</ele>
        <time>2021-05-20T07:41:56Z</time>
      </trkpt>
      <trkpt lat="42.1771230" lon="-8.7972180">
        <ele>138.1</ele>
        <time>2021-05-20T07:41:57Z</time>
      </trkpt>
      <trkpt lat="42.1771250" lon="-8.7972130">
        <ele>138.1</ele>
        <time>2021-05-20T07:41:58Z</time>
      </trkpt>
      <trkpt lat="42.1771300" lon="-8.7971980">
        <ele>138.1</ele>
        <time>2021-05-20T07:41:59Z</time>
      </trkpt>
      <trkpt lat="42.1771340" lon="-8.7971890">
        <ele>138.1</ele>
        <time>2021-05-20T07:42:00Z</time>
      </trkpt>
      <trkpt lat="42.1771370" lon="-8.7971690">
        <ele>138.1</ele>
        <time>2021-05-20T07:42:01Z</time>
      </trkpt>
      <trkpt lat="42.1771420" lon="-8.7971550">
        <ele>138.1</ele>
        <time>2021-05-20T07:42:02Z</time>
      </trkpt>
      <trkpt lat="42.1771470" lon="-8.7971390">
        <ele>138.1</ele>
        <time>2021-05-20T07:42:03Z</time>
      </trkpt>
      <trkpt lat="42.1771490" lon="-8.7971270">
        <ele>138.1</ele>
        <time>2021-05-20T07:42:04Z</time>
      </trkpt>
      <trkpt lat="42.1771530" lon="-8.7971100">
        <ele>138.1</ele>
        <time>2021-05-20T07:42:05Z</time>
      </trkpt>
      <trkpt lat="42.1771580" lon="-8.7970910">
        <ele>138.1</ele>
        <time>2021-05-20T07:42:06Z</time>
      </trkpt>
      <trkpt lat="42.1771620" lon="-8.7970750">
        <ele>138.1</ele>
        <time>2021-05-20T07:42:07Z</time>
      </trkpt>
      <trkpt lat="42.1771680" lon="-8.7970480">
        <ele>138.0</ele>
        <time>2021-05-20T07:42:08Z</time>
      </trkpt>
      <trkpt lat="42.1771690" lon="-8.7970360">
        <ele>138.0</ele>
        <time>2021-05-20T07:42:09Z</time>
      </trkpt>
      <trkpt lat="42.1771710" lon="-8.7970240">
        <ele>138.0</ele>
        <time>2021-05-20T07:42:10Z</time>
      </trkpt>
      <trkpt lat="42.1771680" lon="-8.7969980">
        <ele>138.0</ele>
        <time>2021-05-20T07:42:11Z</time>
      </trkpt>
      <trkpt lat="42.1771670" lon="-8.7969870">
        <ele>138.0</ele>
        <time>2021-05-20T07:42:12Z</time>
      </trkpt>
      <trkpt lat="42.1771660" lon="-8.7969760">
        <ele>138.0</ele>
        <time>2021-05-20T07:42:13Z</time>
      </trkpt>
      <trkpt lat="42.1771680" lon="-8.7969660">
        <ele>138.0</ele>
        <time>2021-05-20T07:42:14Z</time>
      </trkpt>
      <trkpt lat="42.1771660" lon="-8.7969540">
        <ele>138.0</ele>
        <time>2021-05-20T07:42:15Z</time>
      </trkpt>
      <trkpt lat="42.1771680" lon="-8.7969420">
        <ele>138.0</ele>
        <time>2021-05-20T07:42:16Z</time>
      </trkpt>
      <trkpt lat="42.1771680" lon="-8.7969280">
        <ele>138.1</ele>
        <time>2021-05-20T07:42:17Z</time>
      </trkpt>
      <trkpt lat="42.1771620" lon="-8.7969040">
        <ele>138.1</ele>
        <time>2021-05-20T07:42:18Z</time>
      </trkpt>
      <trkpt lat="42.1771600" lon="-8.7968920">
        <ele>138.1</ele>
        <time>2021-05-20T07:42:19Z</time>
      </trkpt>
      <trkpt lat="42.1771570" lon="-8.7968800">
        <ele>138.1</ele>
        <time>2021-05-20T07:42:20Z</time>
      </trkpt>
      <trkpt lat="42.1771580" lon="-8.7968660">
        <ele>138.2</ele>
        <time>2021-05-20T07:42:21Z</time>
      </trkpt>
      <trkpt lat="42.1771630" lon="-8.7968530">
        <ele>138.2</ele>
        <time>2021-05-20T07:42:22Z</time>
      </trkpt>
      <trkpt lat="42.1771700" lon="-8.7968400">
        <ele>138.2</ele>
        <time>2021-05-20T07:42:23Z</time>
      </trkpt>
      <trkpt lat="42.1771700" lon="-8.7968250">
        <ele>138.2</ele>
        <time>2021-05-20T07:42:24Z</time>
      </trkpt>
      <trkpt lat="42.1771710" lon="-8.7968110">
        <ele>138.2</ele>
        <time>2021-05-20T07:42:25Z</time>
      </trkpt>
      <trkpt lat="42.1771760" lon="-8.7967960">
        <ele>138.2</ele>
        <time>2021-05-20T07:42:26Z</time>
      </trkpt>
      <trkpt lat="42.1771750" lon="-8.7967770">
        <ele>138.2</ele>
        <time>2021-05-20T07:42:27Z</time>
      </trkpt>
      <trkpt lat="42.1771680" lon="-8.7967600">
        <ele>138.2</ele>
        <time>2021-05-20T07:42:28Z</time>
      </trkpt>
      <trkpt lat="42.1771700" lon="-8.7967520">
        <ele>138.2</ele>
        <time>2021-05-20T07:42:29Z</time>
      </trkpt>
      <trkpt lat="42.1771710" lon="-8.7967390">
        <ele>138.2</ele>
        <time>2021-05-20T07:42:30Z</time>
      </trkpt>
      <trkpt lat="42.1771700" lon="-8.7967200">
        <ele>138.2</ele>
        <time>2021-05-20T07:42:31Z</time>
      </trkpt>
      <trkpt lat="42.1771740" lon="-8.7967060">
        <ele>138.2</ele>
        <time>2021-05-20T07:42:32Z</time>
      </trkpt>
      <trkpt lat="42.1771750" lon="-8.7966900">
        <ele>138.2</ele>
        <time>2021-05-20T07:42:33Z</time>
      </trkpt>
      <trkpt lat="42.1771810" lon="-8.7966770">
        <ele>138.2</ele>
        <time>2021-05-20T07:42:34Z</time>
      </trkpt>
      <trkpt lat="42.1771810" lon="-8.7966630">
        <ele>138.2</ele>
        <time>2021-05-20T07:42:35Z</time>
      </trkpt>
      <trkpt lat="42.1771860" lon="-8.7966460">
        <ele>138.2</ele>
        <time>2021-05-20T07:42:36Z</time>
      </trkpt>
      <trkpt lat="42.1771890" lon="-8.7966310">
        <ele>138.1</ele>
        <time>2021-05-20T07:42:37Z</time>
      </trkpt>
      <trkpt lat="42.1771940" lon="-8.7966130">
        <ele>138.1</ele>
        <time>2021-05-20T07:42:38Z</time>
      </trkpt>
      <trkpt lat="42.1771980" lon="-8.7965950">
        <ele>138.1</ele>
        <time>2021-05-20T07:42:39Z</time>
      </trkpt>
      <trkpt lat="42.1771960" lon="-8.7965820">
        <ele>138.0</ele>
        <time>2021-05-20T07:42:40Z</time>
      </trkpt>
      <trkpt lat="42.1772010" lon="-8.7965480">
        <ele>138.0</ele>
        <time>2021-05-20T07:42:41Z</time>
      </trkpt>
      <trkpt lat="42.1772060" lon="-8.7965180">
        <ele>137.9</ele>
        <time>2021-05-20T07:42:42Z</time>
      </trkpt>
      <trkpt lat="42.1772090" lon="-8.7965050">
        <ele>137.9</ele>
        <time>2021-05-20T07:42:43Z</time>
      </trkpt>
      <trkpt lat="42.1772110" lon="-8.7964930">
        <ele>137.8</ele>
        <time>2021-05-20T07:42:44Z</time>
      </trkpt>
      <trkpt lat="42.1772110" lon="-8.7964760">
        <ele>137.8</ele>
        <time>2021-05-20T07:42:45Z</time>
      </trkpt>
      <trkpt lat="42.1772110" lon="-8.7964650">
        <ele>137.7</ele>
        <time>2021-05-20T07:42:46Z</time>
      </trkpt>
      <trkpt lat="42.1772100" lon="-8.7964540">
        <ele>137.7</ele>
        <time>2021-05-20T07:42:47Z</time>
      </trkpt>
      <trkpt lat="42.1772100" lon="-8.7964430">
        <ele>137.7</ele>
        <time>2021-05-20T07:42:48Z</time>
      </trkpt>
      <trkpt lat="42.1772100" lon="-8.7964130">
        <ele>137.6</ele>
        <time>2021-05-20T07:42:49Z</time>
      </trkpt>
      <trkpt lat="42.1772090" lon="-8.7963990">
        <ele>137.5</ele>
        <time>2021-05-20T07:42:50Z</time>
      </trkpt>
      <trkpt lat="42.1772080" lon="-8.7963860">
        <ele>137.5</ele>
        <time>2021-05-20T07:42:51Z</time>
      </trkpt>
      <trkpt lat="42.1772080" lon="-8.7963580">
        <ele>137.4</ele>
        <time>2021-05-20T07:42:52Z</time>
      </trkpt>
      <trkpt lat="42.1772080" lon="-8.7963470">
        <ele>137.4</ele>
        <time>2021-05-20T07:42:53Z</time>
      </trkpt>
      <trkpt lat="42.1772080" lon="-8.7963360">
        <ele>137.3</ele>
        <time>2021-05-20T07:42:54Z</time>
      </trkpt>
      <trkpt lat="42.1772100" lon="-8.7963060">
        <ele>137.3</ele>
        <time>2021-05-20T07:42:55Z</time>
      </trkpt>
      <trkpt lat="42.1772120" lon="-8.7962970">
        <ele>137.2</ele>
        <time>2021-05-20T07:42:56Z</time>
      </trkpt>
      <trkpt lat="42.1772140" lon="-8.7962870">
        <ele>137.2</ele>
        <time>2021-05-20T07:42:57Z</time>
      </trkpt>
      <trkpt lat="42.1772150" lon="-8.7962730">
        <ele>137.2</ele>
        <time>2021-05-20T07:42:58Z</time>
      </trkpt>
      <trkpt lat="42.1772140" lon="-8.7962500">
        <ele>137.1</ele>
        <time>2021-05-20T07:42:59Z</time>
      </trkpt>
      <trkpt lat="42.1772160" lon="-8.7962370">
        <ele>137.0</ele>
        <time>2021-05-20T07:43:00Z</time>
      </trkpt>
      <trkpt lat="42.1772200" lon="-8.7962260">
        <ele>137.0</ele>
        <time>2021-05-20T07:43:01Z</time>
      </trkpt>
      <trkpt lat="42.1772270" lon="-8.7962090">
        <ele>137.0</ele>
        <time>2021-05-20T07:43:02Z</time>
      </trkpt>
      <trkpt lat="42.1772350" lon="-8.7961820">
        <ele>136.9</ele>
        <time>2021-05-20T07:43:03Z</time>
      </trkpt>
      <trkpt lat="42.1772370" lon="-8.7961700">
        <ele>136.8</ele>
        <time>2021-05-20T07:43:04Z</time>
      </trkpt>
      <trkpt lat="42.1772400" lon="-8.7961590">
        <ele>136.8</ele>
        <time>2021-05-20T07:43:05Z</time>
      </trkpt>
      <trkpt lat="42.1772470" lon="-8.7961310">
        <ele>136.7</ele>
        <time>2021-05-20T07:43:06Z</time>
      </trkpt>
      <trkpt lat="42.1772500" lon="-8.7961260">
        <ele>136.7</ele>
        <time>2021-05-20T07:43:07Z</time>
      </trkpt>
      <trkpt lat="42.1772530" lon="-8.7961200">
        <ele>136.7</ele>
        <time>2021-05-20T07:43:08Z</time>
      </trkpt>
      <trkpt lat="42.1772560" lon="-8.7961140">
        <ele>136.7</ele>
        <time>2021-05-20T07:43:09Z</time>
      </trkpt>
      <trkpt lat="42.1772620" lon="-8.7961020">
        <ele>136.6</ele>
        <time>2021-05-20T07:43:10Z</time>
      </trkpt>
      <trkpt lat="42.1772640" lon="-8.7960910">
        <ele>136.6</ele>
        <time>2021-05-20T07:43:11Z</time>
      </trkpt>
      <trkpt lat="42.1772670" lon="-8.7960770">
        <ele>136.6</ele>
        <time>2021-05-20T07:43:12Z</time>
      </trkpt>
      <trkpt lat="42.1772730" lon="-8.7960630">
        <ele>136.5</ele>
        <time>2021-05-20T07:43:13Z</time>
      </trkpt>
      <trkpt lat="42.1772860" lon="-8.7960430">
        <ele>136.4</ele>
        <time>2021-05-20T07:43:15Z</time>
      </trkpt>
      <trkpt lat="42.1772880" lon="-8.7960250">
        <ele>136.4</ele>
        <time>2021-05-20T07:43:16Z</time>
      </trkpt>
      <trkpt lat="42.1773000" lon="-8.7960080">
        <ele>136.3</ele>
        <time>2021-05-20T07:43:17Z</time>
      </trkpt>
      <trkpt lat="42.1773040" lon="-8.7959970">
        <ele>136.2</ele>
        <time>2021-05-20T07:43:18Z</time>
      </trkpt>
      <trkpt lat="42.1773060" lon="-8.7959790">
        <ele>136.1</ele>
        <time>2021-05-20T07:43:19Z</time>
      </trkpt>
      <trkpt lat="42.1773130" lon="-8.7959660">
        <ele>136.0</ele>
        <time>2021-05-20T07:43:20Z</time>
      </trkpt>
      <trkpt lat="42.1773180" lon="-8.7959510">
        <ele>135.9</ele>
        <time>2021-05-20T07:43:21Z</time>
      </trkpt>
      <trkpt lat="42.1773150" lon="-8.7959440">
        <ele>135.8</ele>
        <time>2021-05-20T07:43:22Z</time>
      </trkpt>
      <trkpt lat="42.1773170" lon="-8.7959390">
        <ele>135.8</ele>
        <time>2021-05-20T07:43:23Z</time>
      </trkpt>
      <trkpt lat="42.1773200" lon="-8.7959400">
        <ele>135.7</ele>
        <time>2021-05-20T07:43:24Z</time>
      </trkpt>
      <trkpt lat="42.1773110" lon="-8.7959450">
        <ele>135.7</ele>
        <time>2021-05-20T07:43:25Z</time>
      </trkpt>
      <trkpt lat="42.1773150" lon="-8.7959360">
        <ele>135.6</ele>
        <time>2021-05-20T07:43:26Z</time>
      </trkpt>
      <trkpt lat="42.1773140" lon="-8.7959420">
        <ele>135.5</ele>
        <time>2021-05-20T07:43:27Z</time>
      </trkpt>
      <trkpt lat="42.1773240" lon="-8.7959320">
        <ele>135.4</ele>
        <time>2021-05-20T07:43:28Z</time>
      </trkpt>
      <trkpt lat="42.1773210" lon="-8.7959160">
        <ele>135.3</ele>
        <time>2021-05-20T07:43:29Z</time>
      </trkpt>
      <trkpt lat="42.1773240" lon="-8.7959030">
        <ele>135.2</ele>
        <time>2021-05-20T07:43:30Z</time>
      </trkpt>
      <trkpt lat="42.1773270" lon="-8.7958860">
        <ele>135.0</ele>
        <time>2021-05-20T07:43:31Z</time>
      </trkpt>
      <trkpt lat="42.1773290" lon="-8.7958640">
        <ele>134.9</ele>
        <time>2021-05-20T07:43:32Z</time>
      </trkpt>
      <trkpt lat="42.1773360" lon="-8.7958540">
        <ele>134.7</ele>
        <time>2021-05-20T07:43:33Z</time>
      </trkpt>
      <trkpt lat="42.1773390" lon="-8.7958460">
        <ele>134.7</ele>
        <time>2021-05-20T07:43:34Z</time>
      </trkpt>
      <trkpt lat="42.1773470" lon="-8.7958380">
        <ele>134.6</ele>
        <time>2021-05-20T07:43:35Z</time>
      </trkpt>
      <trkpt lat="42.1773510" lon="-8.7958250">
        <ele>134.4</ele>
        <time>2021-05-20T07:43:36Z</time>
      </trkpt>
      <trkpt lat="42.1773530" lon="-8.7958140">
        <ele>134.3</ele>
        <time>2021-05-20T07:43:37Z</time>
      </trkpt>
      <trkpt lat="42.1773590" lon="-8.7957920">
        <ele>134.1</ele>
        <time>2021-05-20T07:43:38Z</time>
      </trkpt>
      <trkpt lat="42.1773540" lon="-8.7957750">
        <ele>134.0</ele>
        <time>2021-05-20T07:43:39Z</time>
      </trkpt>
      <trkpt lat="42.1773600" lon="-8.7957480">
        <ele>133.7</ele>
        <time>2021-05-20T07:43:40Z</time>
      </trkpt>
      <trkpt lat="42.1773650" lon="-8.7957370">
        <ele>133.6</ele>
        <time>2021-05-20T07:43:41Z</time>
      </trkpt>
      <trkpt lat="42.1773690" lon="-8.7957270">
        <ele>133.5</ele>
        <time>2021-05-20T07:43:42Z</time>
      </trkpt>
      <trkpt lat="42.1773710" lon="-8.7957120">
        <ele>133.3</ele>
        <time>2021-05-20T07:43:43Z</time>
      </trkpt>
      <trkpt lat="42.1773750" lon="-8.7956950">
        <ele>133.2</ele>
        <time>2021-05-20T07:43:44Z</time>
      </trkpt>
      <trkpt lat="42.1773790" lon="-8.7956870">
        <ele>133.1</ele>
        <time>2021-05-20T07:43:45Z</time>
      </trkpt>
      <trkpt lat="42.1773830" lon="-8.7956740">
        <ele>133.0</ele>
        <time>2021-05-20T07:43:46Z</time>
      </trkpt>
      <trkpt lat="42.1773870" lon="-8.7956520">
        <ele>132.8</ele>
        <time>2021-05-20T07:43:47Z</time>
      </trkpt>
      <trkpt lat="42.1773870" lon="-8.7956410">
        <ele>132.7</ele>
        <time>2021-05-20T07:43:48Z</time>
      </trkpt>
      <trkpt lat="42.1773950" lon="-8.7956190">
        <ele>132.5</ele>
        <time>2021-05-20T07:43:49Z</time>
      </trkpt>
      <trkpt lat="42.1774000" lon="-8.7956100">
        <ele>132.4</ele>
        <time>2021-05-20T07:43:50Z</time>
      </trkpt>
      <trkpt lat="42.1774060" lon="-8.7956000">
        <ele>132.3</ele>
        <time>2021-05-20T07:43:51Z</time>
      </trkpt>
      <trkpt lat="42.1774150" lon="-8.7955750">
        <ele>132.1</ele>
        <time>2021-05-20T07:43:52Z</time>
      </trkpt>
      <trkpt lat="42.1774210" lon="-8.7955620">
        <ele>131.9</ele>
        <time>2021-05-20T07:43:53Z</time>
      </trkpt>
      <trkpt lat="42.1774430" lon="-8.7955340">
        <ele>131.6</ele>
        <time>2021-05-20T07:43:54Z</time>
      </trkpt>
      <trkpt lat="42.1774470" lon="-8.7955270">
        <ele>131.6</ele>
        <time>2021-05-20T07:43:55Z</time>
      </trkpt>
      <trkpt lat="42.1774550" lon="-8.7955110">
        <ele>131.4</ele>
        <time>2021-05-20T07:43:56Z</time>
      </trkpt>
      <trkpt lat="42.1774680" lon="-8.7954940">
        <ele>131.3</ele>
        <time>2021-05-20T07:43:57Z</time>
      </trkpt>
      <trkpt lat="42.1774720" lon="-8.7954770">
        <ele>131.1</ele>
        <time>2021-05-20T07:43:58Z</time>
      </trkpt>
      <trkpt lat="42.1774830" lon="-8.7954610">
        <ele>131.0</ele>
        <time>2021-05-20T07:43:59Z</time>
      </trkpt>
      <trkpt lat="42.1774920" lon="-8.7954480">
        <ele>130.9</ele>
        <time>2021-05-20T07:44:00Z</time>
      </trkpt>
      <trkpt lat="42.1775040" lon="-8.7954300">
        <ele>130.7</ele>
        <time>2021-05-20T07:44:01Z</time>
      </trkpt>
      <trkpt lat="42.1775050" lon="-8.7954220">
        <ele>130.7</ele>
        <time>2021-05-20T07:44:02Z</time>
      </trkpt>
      <trkpt lat="42.1775130" lon="-8.7954090">
        <ele>130.6</ele>
        <time>2021-05-20T07:44:03Z</time>
      </trkpt>
      <trkpt lat="42.1775190" lon="-8.7953940">
        <ele>130.5</ele>
        <time>2021-05-20T07:44:04Z</time>
      </trkpt>
      <trkpt lat="42.1775190" lon="-8.7953800">
        <ele>130.4</ele>
        <time>2021-05-20T07:44:05Z</time>
      </trkpt>
      <trkpt lat="42.1775310" lon="-8.7953680">
        <ele>130.3</ele>
        <time>2021-05-20T07:44:06Z</time>
      </trkpt>
      <trkpt lat="42.1775410" lon="-8.7953590">
        <ele>130.2</ele>
        <time>2021-05-20T07:44:07Z</time>
      </trkpt>
      <trkpt lat="42.1775550" lon="-8.7953340">
        <ele>130.0</ele>
        <time>2021-05-20T07:44:08Z</time>
      </trkpt>
      <trkpt lat="42.1775600" lon="-8.7953250">
        <ele>129.9</ele>
        <time>2021-05-20T07:44:09Z</time>
      </trkpt>
      <trkpt lat="42.1775650" lon="-8.7953170">
        <ele>129.9</ele>
        <time>2021-05-20T07:44:10Z</time>
      </trkpt>
      <trkpt lat="42.1775600" lon="-8.7953130">
        <ele>129.8</ele>
        <time>2021-05-20T07:44:11Z</time>
      </trkpt>
      <trkpt lat="42.1775700" lon="-8.7953060">
        <ele>129.7</ele>
        <time>2021-05-20T07:44:12Z</time>
      </trkpt>
      <trkpt lat="42.1775770" lon="-8.7952990">
        <ele>129.7</ele>
        <time>2021-05-20T07:44:13Z</time>
      </trkpt>
      <trkpt lat="42.1775830" lon="-8.7952930">
        <ele>129.6</ele>
        <time>2021-05-20T07:44:14Z</time>
      </trkpt>
      <trkpt lat="42.1775880" lon="-8.7952890">
        <ele>129.6</ele>
        <time>2021-05-20T07:44:15Z</time>
      </trkpt>
      <trkpt lat="42.1776010" lon="-8.7952830">
        <ele>129.5</ele>
        <time>2021-05-20T07:44:16Z</time>
      </trkpt>
      <trkpt lat="42.1776090" lon="-8.7952780">
        <ele>129.4</ele>
        <time>2021-05-20T07:44:17Z</time>
      </trkpt>
      <trkpt lat="42.1776160" lon="-8.7952720">
        <ele>129.3</ele>
        <time>2021-05-20T07:44:18Z</time>
      </trkpt>
      <trkpt lat="42.1776240" lon="-8.7952660">
        <ele>129.3</ele>
        <time>2021-05-20T07:44:19Z</time>
      </trkpt>
      <trkpt lat="42.1776280" lon="-8.7952590">
        <ele>129.2</ele>
        <time>2021-05-20T07:44:20Z</time>
      </trkpt>
      <trkpt lat="42.1776250" lon="-8.7952550">
        <ele>129.2</ele>
        <time>2021-05-20T07:44:21Z</time>
      </trkpt>
      <trkpt lat="42.1776280" lon="-8.7952420">
        <ele>129.1</ele>
        <time>2021-05-20T07:44:22Z</time>
      </trkpt>
      <trkpt lat="42.1776370" lon="-8.7952240">
        <ele>129.0</ele>
        <time>2021-05-20T07:44:23Z</time>
      </trkpt>
      <trkpt lat="42.1776390" lon="-8.7952070">
        <ele>128.9</ele>
        <time>2021-05-20T07:44:24Z</time>
      </trkpt>
      <trkpt lat="42.1776390" lon="-8.7952070">
        <ele>128.9</ele>
        <time>2021-05-20T07:44:25Z</time>
      </trkpt>
      <trkpt lat="42.1776480" lon="-8.7951940">
        <ele>128.8</ele>
        <time>2021-05-20T07:44:26Z</time>
      </trkpt>
      <trkpt lat="42.1776490" lon="-8.7951850">
        <ele>128.8</ele>
        <time>2021-05-20T07:44:27Z</time>
      </trkpt>
      <trkpt lat="42.1776530" lon="-8.7951760">
        <ele>128.7</ele>
        <time>2021-05-20T07:44:28Z</time>
      </trkpt>
      <trkpt lat="42.1776570" lon="-8.7951710">
        <ele>128.7</ele>
        <time>2021-05-20T07:44:29Z</time>
      </trkpt>
      <trkpt lat="42.1776640" lon="-8.7951670">
        <ele>128.6</ele>
        <time>2021-05-20T07:44:30Z</time>
      </trkpt>
      <trkpt lat="42.1776750" lon="-8.7951610">
        <ele>128.6</ele>
        <time>2021-05-20T07:44:31Z</time>
      </trkpt>
      <trkpt lat="42.1776880" lon="-8.7951410">
        <ele>128.4</ele>
        <time>2021-05-20T07:44:32Z</time>
      </trkpt>
      <trkpt lat="42.1776990" lon="-8.7951350">
        <ele>128.3</ele>
        <time>2021-05-20T07:44:33Z</time>
      </trkpt>
      <trkpt lat="42.1777090" lon="-8.7951290">
        <ele>128.3</ele>
        <time>2021-05-20T07:44:34Z</time>
      </trkpt>
      <trkpt lat="42.1777220" lon="-8.7951230">
        <ele>128.2</ele>
        <time>2021-05-20T07:44:35Z</time>
      </trkpt>
      <trkpt lat="42.1777420" lon="-8.7951150">
        <ele>128.1</ele>
        <time>2021-05-20T07:44:36Z</time>
      </trkpt>
      <trkpt lat="42.1777660" lon="-8.7950950">
        <ele>127.9</ele>
        <time>2021-05-20T07:44:37Z</time>
      </trkpt>
      <trkpt lat="42.1777740" lon="-8.7950830">
        <ele>127.9</ele>
        <time>2021-05-20T07:44:38Z</time>
      </trkpt>
      <trkpt lat="42.1777900" lon="-8.7950680">
        <ele>127.8</ele>
        <time>2021-05-20T07:44:39Z</time>
      </trkpt>
      <trkpt lat="42.1778000" lon="-8.7950560">
        <ele>127.7</ele>
        <time>2021-05-20T07:44:40Z</time>
      </trkpt>
      <trkpt lat="42.1778120" lon="-8.7950430">
        <ele>127.7</ele>
        <time>2021-05-20T07:44:41Z</time>
      </trkpt>
      <trkpt lat="42.1778290" lon="-8.7950260">
        <ele>127.6</ele>
        <time>2021-05-20T07:44:42Z</time>
      </trkpt>
      <trkpt lat="42.1778360" lon="-8.7950190">
        <ele>127.6</ele>
        <time>2021-05-20T07:44:43Z</time>
      </trkpt>
      <trkpt lat="42.1778430" lon="-8.7950120">
        <ele>127.5</ele>
        <time>2021-05-20T07:44:44Z</time>
      </trkpt>
      <trkpt lat="42.1778700" lon="-8.7949950">
        <ele>127.4</ele>
        <time>2021-05-20T07:44:45Z</time>
      </trkpt>
      <trkpt lat="42.1778780" lon="-8.7949860">
        <ele>127.4</ele>
        <time>2021-05-20T07:44:46Z</time>
      </trkpt>
      <trkpt lat="42.1778990" lon="-8.7949690">
        <ele>127.4</ele>
        <time>2021-05-20T07:44:47Z</time>
      </trkpt>
      <trkpt lat="42.1779080" lon="-8.7949640">
        <ele>127.3</ele>
        <time>2021-05-20T07:44:48Z</time>
      </trkpt>
      <trkpt lat="42.1779240" lon="-8.7949520">
        <ele>127.3</ele>
        <time>2021-05-20T07:44:49Z</time>
      </trkpt>
      <trkpt lat="42.1779320" lon="-8.7949450">
        <ele>127.3</ele>
        <time>2021-05-20T07:44:50Z</time>
      </trkpt>
      <trkpt lat="42.1779470" lon="-8.7949230">
        <ele>127.3</ele>
        <time>2021-05-20T07:44:51Z</time>
      </trkpt>
      <trkpt lat="42.1779520" lon="-8.7949160">
        <ele>127.2</ele>
        <time>2021-05-20T07:44:52Z</time>
      </trkpt>
      <trkpt lat="42.1779560" lon="-8.7949080">
        <ele>127.2</ele>
        <time>2021-05-20T07:44:53Z</time>
      </trkpt>
      <trkpt lat="42.1779630" lon="-8.7949020">
        <ele>127.2</ele>
        <time>2021-05-20T07:44:54Z</time>
      </trkpt>
      <trkpt lat="42.1779830" lon="-8.7948840">
        <ele>127.2</ele>
        <time>2021-05-20T07:44:55Z</time>
      </trkpt>
      <trkpt lat="42.1779980" lon="-8.7948650">
        <ele>127.2</ele>
        <time>2021-05-20T07:44:56Z</time>
      </trkpt>
      <trkpt lat="42.1780070" lon="-8.7948550">
        <ele>127.2</ele>
        <time>2021-05-20T07:44:57Z</time>
      </trkpt>
      <trkpt lat="42.1780150" lon="-8.7948460">
        <ele>127.2</ele>
        <time>2021-05-20T07:44:58Z</time>
      </trkpt>
      <trkpt lat="42.1780320" lon="-8.7948370">
        <ele>127.2</ele>
        <time>2021-05-20T07:44:59Z</time>
      </trkpt>
      <trkpt lat="42.1780400" lon="-8.7948230">
        <ele>127.2</ele>
        <time>2021-05-20T07:45:00Z</time>
      </trkpt>
      <trkpt lat="42.1780490" lon="-8.7947970">
        <ele>127.2</ele>
        <time>2021-05-20T07:45:01Z</time>
      </trkpt>
      <trkpt lat="42.1780530" lon="-8.7947860">
        <ele>127.2</ele>
        <time>2021-05-20T07:45:02Z</time>
      </trkpt>
      <trkpt lat="42.1780580" lon="-8.7947740">
        <ele>127.2</ele>
        <time>2021-05-20T07:45:03Z</time>
      </trkpt>
      <trkpt lat="42.1780610" lon="-8.7947520">
        <ele>127.2</ele>
        <time>2021-05-20T07:45:04Z</time>
      </trkpt>
      <trkpt lat="42.1780630" lon="-8.7947490">
        <ele>127.2</ele>
        <time>2021-05-20T07:45:05Z</time>
      </trkpt>
      <trkpt lat="42.1780650" lon="-8.7947530">
        <ele>127.2</ele>
        <time>2021-05-20T07:45:06Z</time>
      </trkpt>
      <trkpt lat="42.1780770" lon="-8.7947360">
        <ele>127.2</ele>
        <time>2021-05-20T07:45:07Z</time>
      </trkpt>
      <trkpt lat="42.1780860" lon="-8.7947270">
        <ele>127.2</ele>
        <time>2021-05-20T07:45:08Z</time>
      </trkpt>
      <trkpt lat="42.1780900" lon="-8.7947150">
        <ele>127.2</ele>
        <time>2021-05-20T07:45:09Z</time>
      </trkpt>
      <trkpt lat="42.1781030" lon="-8.7947090">
        <ele>127.2</ele>
        <time>2021-05-20T07:45:10Z</time>
      </trkpt>
      <trkpt lat="42.1781110" lon="-8.7947080">
        <ele>127.2</ele>
        <time>2021-05-20T07:45:11Z</time>
      </trkpt>
      <trkpt lat="42.1781270" lon="-8.7947060">
        <ele>127.1</ele>
        <time>2021-05-20T07:45:13Z</time>
      </trkpt>
      <trkpt lat="42.1781340" lon="-8.7946970">
        <ele>127.1</ele>
        <time>2021-05-20T07:45:14Z</time>
      </trkpt>
      <trkpt lat="42.1781450" lon="-8.7946930">
        <ele>127.1</ele>
        <time>2021-05-20T07:45:15Z</time>
      </trkpt>
      <trkpt lat="42.1781490" lon="-8.7946850">
        <ele>127.1</ele>
        <time>2021-05-20T07:45:16Z</time>
      </trkpt>
      <trkpt lat="42.1781590" lon="-8.7946770">
        <ele>127.0</ele>
        <time>2021-05-20T07:45:17Z</time>
      </trkpt>
      <trkpt lat="42.1781680" lon="-8.7946750">
        <ele>127.0</ele>
        <time>2021-05-20T07:45:18Z</time>
      </trkpt>
      <trkpt lat="42.1781740" lon="-8.7946710">
        <ele>127.0</ele>
        <time>2021-05-20T07:45:19Z</time>
      </trkpt>
      <trkpt lat="42.1781850" lon="-8.7946640">
        <ele>127.0</ele>
        <time>2021-05-20T07:45:20Z</time>
      </trkpt>
      <trkpt lat="42.1781970" lon="-8.7946590">
        <ele>126.9</ele>
        <time>2021-05-20T07:45:21Z</time>
      </trkpt>
      <trkpt lat="42.1782140" lon="-8.7946540">
        <ele>126.8</ele>
        <time>2021-05-20T07:45:22Z</time>
      </trkpt>
      <trkpt lat="42.1782230" lon="-8.7946540">
        <ele>126.8</ele>
        <time>2021-05-20T07:45:23Z</time>
      </trkpt>
      <trkpt lat="42.1782380" lon="-8.7946460">
        <ele>126.7</ele>
        <time>2021-05-20T07:45:24Z</time>
      </trkpt>
      <trkpt lat="42.1782400" lon="-8.7946370">
        <ele>126.7</ele>
        <time>2021-05-20T07:45:25Z</time>
      </trkpt>
      <trkpt lat="42.1782390" lon="-8.7946340">
        <ele>126.6</ele>
        <time>2021-05-20T07:45:26Z</time>
      </trkpt>
      <trkpt lat="42.1782510" lon="-8.7946240">
        <ele>126.6</ele>
        <time>2021-05-20T07:45:27Z</time>
      </trkpt>
      <trkpt lat="42.1782550" lon="-8.7946160">
        <ele>126.5</ele>
        <time>2021-05-20T07:45:28Z</time>
      </trkpt>
      <trkpt lat="42.1782600" lon="-8.7946150">
        <ele>126.5</ele>
        <time>2021-05-20T07:45:29Z</time>
      </trkpt>
      <trkpt lat="42.1782650" lon="-8.7946120">
        <ele>126.5</ele>
        <time>2021-05-20T07:45:30Z</time>
      </trkpt>
      <trkpt lat="42.1782730" lon="-8.7946110">
        <ele>126.4</ele>
        <time>2021-05-20T07:45:31Z</time>
      </trkpt>
      <trkpt lat="42.1782800" lon="-8.7946110">
        <ele>126.3</ele>
        <time>2021-05-20T07:45:32Z</time>
      </trkpt>
      <trkpt lat="42.1782840" lon="-8.7946140">
        <ele>126.3</ele>
        <time>2021-05-20T07:45:33Z</time>
      </trkpt>
      <trkpt lat="42.1782930" lon="-8.7946130">
        <ele>126.2</ele>
        <time>2021-05-20T07:45:34Z</time>
      </trkpt>
      <trkpt lat="42.1783030" lon="-8.7946070">
        <ele>126.2</ele>
        <time>2021-05-20T07:45:35Z</time>
      </trkpt>
      <trkpt lat="42.1783080" lon="-8.7946060">
        <ele>126.1</ele>
        <time>2021-05-20T07:45:36Z</time>
      </trkpt>
      <trkpt lat="42.1783200" lon="-8.7946030">
        <ele>126.0</ele>
        <time>2021-05-20T07:45:37Z</time>
      </trkpt>
      <trkpt lat="42.1783350" lon="-8.7945960">
        <ele>125.9</ele>
        <time>2021-05-20T07:45:38Z</time>
      </trkpt>
      <trkpt lat="42.1783430" lon="-8.7945930">
        <ele>125.8</ele>
        <time>2021-05-20T07:45:39Z</time>
      </trkpt>
      <trkpt lat="42.1783510" lon="-8.7945890">
        <ele>125.7</ele>
        <time>2021-05-20T07:45:40Z</time>
      </trkpt>
      <trkpt lat="42.1783590" lon="-8.7945860">
        <ele>125.6</ele>
        <time>2021-05-20T07:45:41Z</time>
      </trkpt>
      <trkpt lat="42.1783750" lon="-8.7945800">
        <ele>125.5</ele>
        <time>2021-05-20T07:45:42Z</time>
      </trkpt>
      <trkpt lat="42.1783850" lon="-8.7945770">
        <ele>125.4</ele>
        <time>2021-05-20T07:45:43Z</time>
      </trkpt>
      <trkpt lat="42.1783960" lon="-8.7945740">
        <ele>125.3</ele>
        <time>2021-05-20T07:45:44Z</time>
      </trkpt>
      <trkpt lat="42.1784080" lon="-8.7945650">
        <ele>125.1</ele>
        <time>2021-05-20T07:45:45Z</time>
      </trkpt>
      <trkpt lat="42.1784180" lon="-8.7945640">
        <ele>125.0</ele>
        <time>2021-05-20T07:45:46Z</time>
      </trkpt>
      <trkpt lat="42.1784310" lon="-8.7945610">
        <ele>124.9</ele>
        <time>2021-05-20T07:45:47Z</time>
      </trkpt>
      <trkpt lat="42.1784460" lon="-8.7945600">
        <ele>124.8</ele>
        <time>2021-05-20T07:45:48Z</time>
      </trkpt>
      <trkpt lat="42.1784560" lon="-8.7945580">
        <ele>124.7</ele>
        <time>2021-05-20T07:45:49Z</time>
      </trkpt>
      <trkpt lat="42.1784660" lon="-8.7945530">
        <ele>124.6</ele>
        <time>2021-05-20T07:45:50Z</time>
      </trkpt>
      <trkpt lat="42.1784840" lon="-8.7945550">
        <ele>124.4</ele>
        <time>2021-05-20T07:45:51Z</time>
      </trkpt>
      <trkpt lat="42.1784940" lon="-8.7945540">
        <ele>124.3</ele>
        <time>2021-05-20T07:45:52Z</time>
      </trkpt>
      <trkpt lat="42.1785040" lon="-8.7945540">
        <ele>124.2</ele>
        <time>2021-05-20T07:45:53Z</time>
      </trkpt>
      <trkpt lat="42.1785150" lon="-8.7945450">
        <ele>124.1</ele>
        <time>2021-05-20T07:45:54Z</time>
      </trkpt>
      <trkpt lat="42.1785240" lon="-8.7945410">
        <ele>124.0</ele>
        <time>2021-05-20T07:45:55Z</time>
      </trkpt>
      <trkpt lat="42.1785310" lon="-8.7945300">
        <ele>123.9</ele>
        <time>2021-05-20T07:45:56Z</time>
      </trkpt>
      <trkpt lat="42.1785450" lon="-8.7945160">
        <ele>123.7</ele>
        <time>2021-05-20T07:45:57Z</time>
      </trkpt>
      <trkpt lat="42.1785600" lon="-8.7945080">
        <ele>123.5</ele>
        <time>2021-05-20T07:45:58Z</time>
      </trkpt>
      <trkpt lat="42.1785850" lon="-8.7944940">
        <ele>123.3</ele>
        <time>2021-05-20T07:45:59Z</time>
      </trkpt>
      <trkpt lat="42.1785930" lon="-8.7944790">
        <ele>123.1</ele>
        <time>2021-05-20T07:46:00Z</time>
      </trkpt>
      <trkpt lat="42.1786000" lon="-8.7944740">
        <ele>123.1</ele>
        <time>2021-05-20T07:46:01Z</time>
      </trkpt>
      <trkpt lat="42.1786080" lon="-8.7944680">
        <ele>123.0</ele>
        <time>2021-05-20T07:46:02Z</time>
      </trkpt>
      <trkpt lat="42.1786150" lon="-8.7944620">
        <ele>122.9</ele>
        <time>2021-05-20T07:46:03Z</time>
      </trkpt>
      <trkpt lat="42.1786200" lon="-8.7944460">
        <ele>122.8</ele>
        <time>2021-05-20T07:46:04Z</time>
      </trkpt>
      <trkpt lat="42.1786480" lon="-8.7944180">
        <ele>122.5</ele>
        <time>2021-05-20T07:46:05Z</time>
      </trkpt>
      <trkpt lat="42.1786560" lon="-8.7944010">
        <ele>122.3</ele>
        <time>2021-05-20T07:46:06Z</time>
      </trkpt>
      <trkpt lat="42.1786760" lon="-8.7943860">
        <ele>122.1</ele>
        <time>2021-05-20T07:46:07Z</time>
      </trkpt>
      <trkpt lat="42.1786820" lon="-8.7943790">
        <ele>122.0</ele>
        <time>2021-05-20T07:46:08Z</time>
      </trkpt>
      <trkpt lat="42.1786890" lon="-8.7943730">
        <ele>122.0</ele>
        <time>2021-05-20T07:46:09Z</time>
      </trkpt>
      <trkpt lat="42.1787000" lon="-8.7943640">
        <ele>121.9</ele>
        <time>2021-05-20T07:46:10Z</time>
      </trkpt>
      <trkpt lat="42.1787050" lon="-8.7943590">
        <ele>121.8</ele>
        <time>2021-05-20T07:46:11Z</time>
      </trkpt>
      <trkpt lat="42.1787120" lon="-8.7943400">
        <ele>121.7</ele>
        <time>2021-05-20T07:46:12Z</time>
      </trkpt>
      <trkpt lat="42.1787260" lon="-8.7943290">
        <ele>121.5</ele>
        <time>2021-05-20T07:46:13Z</time>
      </trkpt>
      <trkpt lat="42.1787350" lon="-8.7943190">
        <ele>121.4</ele>
        <time>2021-05-20T07:46:14Z</time>
      </trkpt>
      <trkpt lat="42.1787390" lon="-8.7943050">
        <ele>121.3</ele>
        <time>2021-05-20T07:46:15Z</time>
      </trkpt>
      <trkpt lat="42.1787420" lon="-8.7942930">
        <ele>121.2</ele>
        <time>2021-05-20T07:46:16Z</time>
      </trkpt>
      <trkpt lat="42.1787540" lon="-8.7942870">
        <ele>121.1</ele>
        <time>2021-05-20T07:46:17Z</time>
      </trkpt>
      <trkpt lat="42.1787660" lon="-8.7942820">
        <ele>120.9</ele>
        <time>2021-05-20T07:46:18Z</time>
      </trkpt>
      <trkpt lat="42.1787780" lon="-8.7942670">
        <ele>120.8</ele>
        <time>2021-05-20T07:46:19Z</time>
      </trkpt>
      <trkpt lat="42.1787820" lon="-8.7942590">
        <ele>120.7</ele>
        <time>2021-05-20T07:46:20Z</time>
      </trkpt>
      <trkpt lat="42.1787890" lon="-8.7942580">
        <ele>120.6</ele>
        <time>2021-05-20T07:46:21Z</time>
      </trkpt>
      <trkpt lat="42.1787860" lon="-8.7942590">
        <ele>120.6</ele>
        <time>2021-05-20T07:46:22Z</time>
      </trkpt>
      <trkpt lat="42.1787870" lon="-8.7942560">
        <ele>120.6</ele>
        <time>2021-05-20T07:46:23Z</time>
      </trkpt>
      <trkpt lat="42.1787880" lon="-8.7942490">
        <ele>120.5</ele>
        <time>2021-05-20T07:46:24Z</time>
      </trkpt>
      <trkpt lat="42.1787920" lon="-8.7942290">
        <ele>120.4</ele>
        <time>2021-05-20T07:46:25Z</time>
      </trkpt>
      <trkpt lat="42.1788000" lon="-8.7942110">
        <ele>120.2</ele>
        <time>2021-05-20T07:46:26Z</time>
      </trkpt>
      <trkpt lat="42.1788030" lon="-8.7942030">
        <ele>120.1</ele>
        <time>2021-05-20T07:46:27Z</time>
      </trkpt>
      <trkpt lat="42.1788060" lon="-8.7941940">
        <ele>120.1</ele>
        <time>2021-05-20T07:46:28Z</time>
      </trkpt>
      <trkpt lat="42.1788090" lon="-8.7941860">
        <ele>120.0</ele>
        <time>2021-05-20T07:46:29Z</time>
      </trkpt>
      <trkpt lat="42.1788240" lon="-8.7941760">
        <ele>119.8</ele>
        <time>2021-05-20T07:46:30Z</time>
      </trkpt>
      <trkpt lat="42.1788260" lon="-8.7941680">
        <ele>119.7</ele>
        <time>2021-05-20T07:46:31Z</time>
      </trkpt>
      <trkpt lat="42.1788340" lon="-8.7941610">
        <ele>119.6</ele>
        <time>2021-05-20T07:46:32Z</time>
      </trkpt>
      <trkpt lat="42.1788340" lon="-8.7941560">
        <ele>119.6</ele>
        <time>2021-05-20T07:46:33Z</time>
      </trkpt>
      <trkpt lat="42.1788360" lon="-8.7941530">
        <ele>119.5</ele>
        <time>2021-05-20T07:46:34Z</time>
      </trkpt>
      <trkpt lat="42.1788320" lon="-8.7941390">
        <ele>119.4</ele>
        <time>2021-05-20T07:46:35Z</time>
      </trkpt>
      <trkpt lat="42.1788310" lon="-8.7941320">
        <ele>119.4</ele>
        <time>2021-05-20T07:46:36Z</time>
      </trkpt>
      <trkpt lat="42.1788380" lon="-8.7941300">
        <ele>119.3</ele>
        <time>2021-05-20T07:46:37Z</time>
      </trkpt>
      <trkpt lat="42.1788400" lon="-8.7941280">
        <ele>119.3</ele>
        <time>2021-05-20T07:46:38Z</time>
      </trkpt>
      <trkpt lat="42.1788520" lon="-8.7941240">
        <ele>119.1</ele>
        <time>2021-05-20T07:46:39Z</time>
      </trkpt>
      <trkpt lat="42.1788540" lon="-8.7941300">
        <ele>119.1</ele>
        <time>2021-05-20T07:46:40Z</time>
      </trkpt>
      <trkpt lat="42.1788600" lon="-8.7941210">
        <ele>118.9</ele>
        <time>2021-05-20T07:46:41Z</time>
      </trkpt>
      <trkpt lat="42.1788660" lon="-8.7941100">
        <ele>118.8</ele>
        <time>2021-05-20T07:46:42Z</time>
      </trkpt>
      <trkpt lat="42.1788780" lon="-8.7941020">
        <ele>118.7</ele>
        <time>2021-05-20T07:46:43Z</time>
      </trkpt>
      <trkpt lat="42.1788860" lon="-8.7940930">
        <ele>118.6</ele>
        <time>2021-05-20T07:46:44Z</time>
      </trkpt>
      <trkpt lat="42.1788950" lon="-8.7940820">
        <ele>118.4</ele>
        <time>2021-05-20T07:46:45Z</time>
      </trkpt>
      <trkpt lat="42.1788990" lon="-8.7940770">
        <ele>118.3</ele>
        <time>2021-05-20T07:46:46Z</time>
      </trkpt>
      <trkpt lat="42.1789110" lon="-8.7940680">
        <ele>118.2</ele>
        <time>2021-05-20T07:46:47Z</time>
      </trkpt>
      <trkpt lat="42.1789180" lon="-8.7940600">
        <ele>118.1</ele>
        <time>2021-05-20T07:46:48Z</time>
      </trkpt>
      <trkpt lat="42.1789250" lon="-8.7940530">
        <ele>118.0</ele>
        <time>2021-05-20T07:46:49Z</time>
      </trkpt>
      <trkpt lat="42.1789320" lon="-8.7940450">
        <ele>117.9</ele>
        <time>2021-05-20T07:46:50Z</time>
      </trkpt>
      <trkpt lat="42.1789440" lon="-8.7940210">
        <ele>117.6</ele>
        <time>2021-05-20T07:46:51Z</time>
      </trkpt>
      <trkpt lat="42.1789470" lon="-8.7940120">
        <ele>117.5</ele>
        <time>2021-05-20T07:46:52Z</time>
      </trkpt>
      <trkpt lat="42.1789500" lon="-8.7940020">
        <ele>117.4</ele>
        <time>2021-05-20T07:46:53Z</time>
      </trkpt>
      <trkpt lat="42.1789510" lon="-8.7939890">
        <ele>117.3</ele>
        <time>2021-05-20T07:46:54Z</time>
      </trkpt>
      <trkpt lat="42.1789560" lon="-8.7939780">
        <ele>117.1</ele>
        <time>2021-05-20T07:46:55Z</time>
      </trkpt>
      <trkpt lat="42.1789580" lon="-8.7939660">
        <ele>117.0</ele>
        <time>2021-05-20T07:46:56Z</time>
      </trkpt>
      <trkpt lat="42.1789590" lon="-8.7939560">
        <ele>116.9</ele>
        <time>2021-05-20T07:46:57Z</time>
      </trkpt>
      <trkpt lat="42.1789570" lon="-8.7939460">
        <ele>116.8</ele>
        <time>2021-05-20T07:46:58Z</time>
      </trkpt>
      <trkpt lat="42.1789560" lon="-8.7939380">
        <ele>116.8</ele>
        <time>2021-05-20T07:46:59Z</time>
      </trkpt>
      <trkpt lat="42.1789610" lon="-8.7939370">
        <ele>116.7</ele>
        <time>2021-05-20T07:47:00Z</time>
      </trkpt>
      <trkpt lat="42.1789630" lon="-8.7939230">
        <ele>116.6</ele>
        <time>2021-05-20T07:47:01Z</time>
      </trkpt>
      <trkpt lat="42.1789650" lon="-8.7939090">
        <ele>116.4</ele>
        <time>2021-05-20T07:47:02Z</time>
      </trkpt>
      <trkpt lat="42.1789680" lon="-8.7939000">
        <ele>116.3</ele>
        <time>2021-05-20T07:47:03Z</time>
      </trkpt>
      <trkpt lat="42.1789710" lon="-8.7938900">
        <ele>116.2</ele>
        <time>2021-05-20T07:47:04Z</time>
      </trkpt>
      <trkpt lat="42.1789720" lon="-8.7938760">
        <ele>116.1</ele>
        <time>2021-05-20T07:47:05Z</time>
      </trkpt>
      <trkpt lat="42.1789750" lon="-8.7938590">
        <ele>115.9</ele>
        <time>2021-05-20T07:47:06Z</time>
      </trkpt>
      <trkpt lat="42.1789780" lon="-8.7938480">
        <ele>115.8</ele>
        <time>2021-05-20T07:47:07Z</time>
      </trkpt>
      <trkpt lat="42.1789820" lon="-8.7938370">
        <ele>115.7</ele>
        <time>2021-05-20T07:47:08Z</time>
      </trkpt>
      <trkpt lat="42.1789850" lon="-8.7938260">
        <ele>115.6</ele>
        <time>2021-05-20T07:47:09Z</time>
      </trkpt>
      <trkpt lat="42.1789920" lon="-8.7938060">
        <ele>115.4</ele>
        <time>2021-05-20T07:47:10Z</time>
      </trkpt>
      <trkpt lat="42.1789940" lon="-8.7937920">
        <ele>115.3</ele>
        <time>2021-05-20T07:47:11Z</time>
      </trkpt>
      <trkpt lat="42.1790030" lon="-8.7937890">
        <ele>115.2</ele>
        <time>2021-05-20T07:47:12Z</time>
      </trkpt>
      <trkpt lat="42.1790100" lon="-8.7937760">
        <ele>115.0</ele>
        <time>2021-05-20T07:47:13Z</time>
      </trkpt>
      <trkpt lat="42.1790180" lon="-8.7937630">
        <ele>114.9</ele>
        <time>2021-05-20T07:47:14Z</time>
      </trkpt>
      <trkpt lat="42.1790190" lon="-8.7937530">
        <ele>114.8</ele>
        <time>2021-05-20T07:47:15Z</time>
      </trkpt>
      <trkpt lat="42.1790330" lon="-8.7937290">
        <ele>114.5</ele>
        <time>2021-05-20T07:47:16Z</time>
      </trkpt>
      <trkpt lat="42.1790270" lon="-8.7937180">
        <ele>114.4</ele>
        <time>2021-05-20T07:47:17Z</time>
      </trkpt>
      <trkpt lat="42.1790330" lon="-8.7937070">
        <ele>114.3</ele>
        <time>2021-05-20T07:47:18Z</time>
      </trkpt>
      <trkpt lat="42.1790360" lon="-8.7936890">
        <ele>114.2</ele>
        <time>2021-05-20T07:47:19Z</time>
      </trkpt>
      <trkpt lat="42.1790370" lon="-8.7936770">
        <ele>114.1</ele>
        <time>2021-05-20T07:47:20Z</time>
      </trkpt>
      <trkpt lat="42.1790450" lon="-8.7936630">
        <ele>113.9</ele>
        <time>2021-05-20T07:47:21Z</time>
      </trkpt>
      <trkpt lat="42.1790390" lon="-8.7936590">
        <ele>113.8</ele>
        <time>2021-05-20T07:47:22Z</time>
      </trkpt>
      <trkpt lat="42.1790450" lon="-8.7936410">
        <ele>113.7</ele>
        <time>2021-05-20T07:47:23Z</time>
      </trkpt>
      <trkpt lat="42.1790460" lon="-8.7936280">
        <ele>113.6</ele>
        <time>2021-05-20T07:47:24Z</time>
      </trkpt>
      <trkpt lat="42.1790530" lon="-8.7936190">
        <ele>113.5</ele>
        <time>2021-05-20T07:47:25Z</time>
      </trkpt>
      <trkpt lat="42.1790630" lon="-8.7936070">
        <ele>113.4</ele>
        <time>2021-05-20T07:47:26Z</time>
      </trkpt>
      <trkpt lat="42.1790670" lon="-8.7935810">
        <ele>113.1</ele>
        <time>2021-05-20T07:47:27Z</time>
      </trkpt>
      <trkpt lat="42.1790710" lon="-8.7935700">
        <ele>113.1</ele>
        <time>2021-05-20T07:47:28Z</time>
      </trkpt>
      <trkpt lat="42.1790740" lon="-8.7935580">
        <ele>113.0</ele>
        <time>2021-05-20T07:47:29Z</time>
      </trkpt>
      <trkpt lat="42.1790780" lon="-8.7935420">
        <ele>112.8</ele>
        <time>2021-05-20T07:47:30Z</time>
      </trkpt>
      <trkpt lat="42.1790910" lon="-8.7935270">
        <ele>112.6</ele>
        <time>2021-05-20T07:47:31Z</time>
      </trkpt>
      <trkpt lat="42.1790990" lon="-8.7935170">
        <ele>112.5</ele>
        <time>2021-05-20T07:47:32Z</time>
      </trkpt>
      <trkpt lat="42.1791000" lon="-8.7934900">
        <ele>112.3</ele>
        <time>2021-05-20T07:47:33Z</time>
      </trkpt>
      <trkpt lat="42.1790950" lon="-8.7934820">
        <ele>112.2</ele>
        <time>2021-05-20T07:47:34Z</time>
      </trkpt>
      <trkpt lat="42.1790910" lon="-8.7934650">
        <ele>112.1</ele>
        <time>2021-05-20T07:47:35Z</time>
      </trkpt>
      <trkpt lat="42.1790970" lon="-8.7934420">
        <ele>111.9</ele>
        <time>2021-05-20T07:47:36Z</time>
      </trkpt>
      <trkpt lat="42.1791050" lon="-8.7934140">
        <ele>111.7</ele>
        <time>2021-05-20T07:47:37Z</time>
      </trkpt>
      <trkpt lat="42.1791070" lon="-8.7934010">
        <ele>111.5</ele>
        <time>2021-05-20T07:47:38Z</time>
      </trkpt>
      <trkpt lat="42.1791090" lon="-8.7933890">
        <ele>111.4</ele>
        <time>2021-05-20T07:47:39Z</time>
      </trkpt>
      <trkpt lat="42.1791140" lon="-8.7933680">
        <ele>111.3</ele>
        <time>2021-05-20T07:47:40Z</time>
      </trkpt>
      <trkpt lat="42.1791080" lon="-8.7933620">
        <ele>111.2</ele>
        <time>2021-05-20T07:47:41Z</time>
      </trkpt>
      <trkpt lat="42.1791220" lon="-8.7933450">
        <ele>111.0</ele>
        <time>2021-05-20T07:47:42Z</time>
      </trkpt>
      <trkpt lat="42.1791360" lon="-8.7933400">
        <ele>110.8</ele>
        <time>2021-05-20T07:47:43Z</time>
      </trkpt>
      <trkpt lat="42.1791390" lon="-8.7933360">
        <ele>110.7</ele>
        <time>2021-05-20T07:47:44Z</time>
      </trkpt>
      <trkpt lat="42.1791410" lon="-8.7933180">
        <ele>110.6</ele>
        <time>2021-05-20T07:47:45Z</time>
      </trkpt>
      <trkpt lat="42.1791400" lon="-8.7933090">
        <ele>110.5</ele>
        <time>2021-05-20T07:47:46Z</time>
      </trkpt>
      <trkpt lat="42.1791490" lon="-8.7932910">
        <ele>110.3</ele>
        <time>2021-05-20T07:47:47Z</time>
      </trkpt>
      <trkpt lat="42.1791530" lon="-8.7932800">
        <ele>110.2</ele>
        <time>2021-05-20T07:47:48Z</time>
      </trkpt>
      <trkpt lat="42.1791640" lon="-8.7932610">
        <ele>110.0</ele>
        <time>2021-05-20T07:47:49Z</time>
      </trkpt>
      <trkpt lat="42.1791710" lon="-8.7932490">
        <ele>109.9</ele>
        <time>2021-05-20T07:47:50Z</time>
      </trkpt>
      <trkpt lat="42.1791770" lon="-8.7932370">
        <ele>109.8</ele>
        <time>2021-05-20T07:47:51Z</time>
      </trkpt>
      <trkpt lat="42.1791790" lon="-8.7932200">
        <ele>109.6</ele>
        <time>2021-05-20T07:47:52Z</time>
      </trkpt>
      <trkpt lat="42.1791820" lon="-8.7932070">
        <ele>109.5</ele>
        <time>2021-05-20T07:47:53Z</time>
      </trkpt>
      <trkpt lat="42.1791820" lon="-8.7931890">
        <ele>109.4</ele>
        <time>2021-05-20T07:47:54Z</time>
      </trkpt>
      <trkpt lat="42.1791840" lon="-8.7931800">
        <ele>109.3</ele>
        <time>2021-05-20T07:47:55Z</time>
      </trkpt>
      <trkpt lat="42.1791820" lon="-8.7931650">
        <ele>109.2</ele>
        <time>2021-05-20T07:47:56Z</time>
      </trkpt>
      <trkpt lat="42.1791860" lon="-8.7931490">
        <ele>109.0</ele>
        <time>2021-05-20T07:47:57Z</time>
      </trkpt>
      <trkpt lat="42.1791970" lon="-8.7931330">
        <ele>108.9</ele>
        <time>2021-05-20T07:47:58Z</time>
      </trkpt>
      <trkpt lat="42.1791900" lon="-8.7931190">
        <ele>108.7</ele>
        <time>2021-05-20T07:47:59Z</time>
      </trkpt>
      <trkpt lat="42.1791890" lon="-8.7931070">
        <ele>108.7</ele>
        <time>2021-05-20T07:48:00Z</time>
      </trkpt>
      <trkpt lat="42.1791970" lon="-8.7930870">
        <ele>108.5</ele>
        <time>2021-05-20T07:48:01Z</time>
      </trkpt>
      <trkpt lat="42.1792030" lon="-8.7930620">
        <ele>108.3</ele>
        <time>2021-05-20T07:48:02Z</time>
      </trkpt>
      <trkpt lat="42.1792180" lon="-8.7930390">
        <ele>108.1</ele>
        <time>2021-05-20T07:48:03Z</time>
      </trkpt>
      <trkpt lat="42.1792210" lon="-8.7930310">
        <ele>108.0</ele>
        <time>2021-05-20T07:48:04Z</time>
      </trkpt>
      <trkpt lat="42.1792250" lon="-8.7930220">
        <ele>107.9</ele>
        <time>2021-05-20T07:48:05Z</time>
      </trkpt>
      <trkpt lat="42.1792230" lon="-8.7930090">
        <ele>107.8</ele>
        <time>2021-05-20T07:48:06Z</time>
      </trkpt>
      <trkpt lat="42.1792290" lon="-8.7929990">
        <ele>107.7</ele>
        <time>2021-05-20T07:48:07Z</time>
      </trkpt>
      <trkpt lat="42.1792360" lon="-8.7930050">
        <ele>107.6</ele>
        <time>2021-05-20T07:48:08Z</time>
      </trkpt>
      <trkpt lat="42.1792450" lon="-8.7929920">
        <ele>107.5</ele>
        <time>2021-05-20T07:48:09Z</time>
      </trkpt>
      <trkpt lat="42.1792550" lon="-8.7929760">
        <ele>107.4</ele>
        <time>2021-05-20T07:48:10Z</time>
      </trkpt>
      <trkpt lat="42.1792610" lon="-8.7929670">
        <ele>107.3</ele>
        <time>2021-05-20T07:48:11Z</time>
      </trkpt>
      <trkpt lat="42.1792640" lon="-8.7929560">
        <ele>107.2</ele>
        <time>2021-05-20T07:48:12Z</time>
      </trkpt>
      <trkpt lat="42.1792760" lon="-8.7929410">
        <ele>107.0</ele>
        <time>2021-05-20T07:48:13Z</time>
      </trkpt>
      <trkpt lat="42.1792870" lon="-8.7929290">
        <ele>106.9</ele>
        <time>2021-05-20T07:48:14Z</time>
      </trkpt>
      <trkpt lat="42.1792980" lon="-8.7929090">
        <ele>106.7</ele>
        <time>2021-05-20T07:48:15Z</time>
      </trkpt>
      <trkpt lat="42.1793030" lon="-8.7928950">
        <ele>106.6</ele>
        <time>2021-05-20T07:48:16Z</time>
      </trkpt>
      <trkpt lat="42.1793080" lon="-8.7928800">
        <ele>106.5</ele>
        <time>2021-05-20T07:48:17Z</time>
      </trkpt>
      <trkpt lat="42.1793120" lon="-8.7928780">
        <ele>106.5</ele>
        <time>2021-05-20T07:48:18Z</time>
      </trkpt>
      <trkpt lat="42.1793040" lon="-8.7928770">
        <ele>106.4</ele>
        <time>2021-05-20T07:48:19Z</time>
      </trkpt>
      <trkpt lat="42.1793050" lon="-8.7928680">
        <ele>106.3</ele>
        <time>2021-05-20T07:48:20Z</time>
      </trkpt>
      <trkpt lat="42.1793160" lon="-8.7928580">
        <ele>106.2</ele>
        <time>2021-05-20T07:48:21Z</time>
      </trkpt>
      <trkpt lat="42.1793160" lon="-8.7928510">
        <ele>106.2</ele>
        <time>2021-05-20T07:48:22Z</time>
      </trkpt>
      <trkpt lat="42.1793230" lon="-8.7928410">
        <ele>106.1</ele>
        <time>2021-05-20T07:48:23Z</time>
      </trkpt>
      <trkpt lat="42.1793410" lon="-8.7928250">
        <ele>105.9</ele>
        <time>2021-05-20T07:48:24Z</time>
      </trkpt>
      <trkpt lat="42.1793480" lon="-8.7928210">
        <ele>105.8</ele>
        <time>2021-05-20T07:48:25Z</time>
      </trkpt>
      <trkpt lat="42.1793530" lon="-8.7928140">
        <ele>105.8</ele>
        <time>2021-05-20T07:48:26Z</time>
      </trkpt>
      <trkpt lat="42.1793660" lon="-8.7928050">
        <ele>105.7</ele>
        <time>2021-05-20T07:48:27Z</time>
      </trkpt>
      <trkpt lat="42.1793710" lon="-8.7927930">
        <ele>105.6</ele>
        <time>2021-05-20T07:48:28Z</time>
      </trkpt>
      <trkpt lat="42.1793780" lon="-8.7927840">
        <ele>105.5</ele>
        <time>2021-05-20T07:48:29Z</time>
      </trkpt>
      <trkpt lat="42.1793890" lon="-8.7927680">
        <ele>105.4</ele>
        <time>2021-05-20T07:48:30Z</time>
      </trkpt>
      <trkpt lat="42.1793960" lon="-8.7927590">
        <ele>105.3</ele>
        <time>2021-05-20T07:48:31Z</time>
      </trkpt>
      <trkpt lat="42.1794080" lon="-8.7927410">
        <ele>105.2</ele>
        <time>2021-05-20T07:48:32Z</time>
      </trkpt>
      <trkpt lat="42.1794180" lon="-8.7927350">
        <ele>105.1</ele>
        <time>2021-05-20T07:48:33Z</time>
      </trkpt>
      <trkpt lat="42.1794290" lon="-8.7927280">
        <ele>105.0</ele>
        <time>2021-05-20T07:48:34Z</time>
      </trkpt>
      <trkpt lat="42.1794410" lon="-8.7927150">
        <ele>104.9</ele>
        <time>2021-05-20T07:48:35Z</time>
      </trkpt>
      <trkpt lat="42.1794560" lon="-8.7926990">
        <ele>104.7</ele>
        <time>2021-05-20T07:48:36Z</time>
      </trkpt>
      <trkpt lat="42.1794650" lon="-8.7926880">
        <ele>104.6</ele>
        <time>2021-05-20T07:48:37Z</time>
      </trkpt>
      <trkpt lat="42.1794760" lon="-8.7926770">
        <ele>104.6</ele>
        <time>2021-05-20T07:48:38Z</time>
      </trkpt>
      <trkpt lat="42.1794830" lon="-8.7926690">
        <ele>104.5</ele>
        <time>2021-05-20T07:48:39Z</time>
      </trkpt>
      <trkpt lat="42.1794840" lon="-8.7926620">
        <ele>104.5</ele>
        <time>2021-05-20T07:48:41Z</time>
      </trkpt>
      <trkpt lat="42.1794910" lon="-8.7926490">
        <ele>104.4</ele>
        <time>2021-05-20T07:48:42Z</time>
      </trkpt>
      <trkpt lat="42.1794930" lon="-8.7926320">
        <ele>104.3</ele>
        <time>2021-05-20T07:48:43Z</time>
      </trkpt>
      <trkpt lat="42.1794920" lon="-8.7926180">
        <ele>104.2</ele>
        <time>2021-05-20T07:48:44Z</time>
      </trkpt>
      <trkpt lat="42.1794940" lon="-8.7926110">
        <ele>104.2</ele>
        <time>2021-05-20T07:48:45Z</time>
      </trkpt>
      <trkpt lat="42.1794960" lon="-8.7925930">
        <ele>104.1</ele>
        <time>2021-05-20T07:48:46Z</time>
      </trkpt>
      <trkpt lat="42.1794990" lon="-8.7925780">
        <ele>104.0</ele>
        <time>2021-05-20T07:48:47Z</time>
      </trkpt>
      <trkpt lat="42.1795030" lon="-8.7925650">
        <ele>104.0</ele>
        <time>2021-05-20T07:48:48Z</time>
      </trkpt>
      <trkpt lat="42.1795120" lon="-8.7925520">
        <ele>103.9</ele>
        <time>2021-05-20T07:48:49Z</time>
      </trkpt>
      <trkpt lat="42.1795060" lon="-8.7925440">
        <ele>103.8</ele>
        <time>2021-05-20T07:48:50Z</time>
      </trkpt>
      <trkpt lat="42.1795120" lon="-8.7925380">
        <ele>103.8</ele>
        <time>2021-05-20T07:48:51Z</time>
      </trkpt>
      <trkpt lat="42.1795140" lon="-8.7925340">
        <ele>103.8</ele>
        <time>2021-05-20T07:48:52Z</time>
      </trkpt>
      <trkpt lat="42.1795220" lon="-8.7925220">
        <ele>103.7</ele>
        <time>2021-05-20T07:48:53Z</time>
      </trkpt>
      <trkpt lat="42.1795310" lon="-8.7925160">
        <ele>103.6</ele>
        <time>2021-05-20T07:48:54Z</time>
      </trkpt>
      <trkpt lat="42.1795480" lon="-8.7924990">
        <ele>103.5</ele>
        <time>2021-05-20T07:48:55Z</time>
      </trkpt>
      <trkpt lat="42.1795540" lon="-8.7924920">
        <ele>103.5</ele>
        <time>2021-05-20T07:48:56Z</time>
      </trkpt>
      <trkpt lat="42.1795610" lon="-8.7924840">
        <ele>103.5</ele>
        <time>2021-05-20T07:48:57Z</time>
      </trkpt>
      <trkpt lat="42.1795800" lon="-8.7924610">
        <ele>103.3</ele>
        <time>2021-05-20T07:48:58Z</time>
      </trkpt>
      <trkpt lat="42.1795890" lon="-8.7924520">
        <ele>103.3</ele>
        <time>2021-05-20T07:48:59Z</time>
      </trkpt>
      <trkpt lat="42.1795970" lon="-8.7924470">
        <ele>103.2</ele>
        <time>2021-05-20T07:49:00Z</time>
      </trkpt>
      <trkpt lat="42.1795990" lon="-8.7924380">
        <ele>103.2</ele>
        <time>2021-05-20T07:49:01Z</time>
      </trkpt>
      <trkpt lat="42.1796030" lon="-8.7924320">
        <ele>103.2</ele>
        <time>2021-05-20T07:49:02Z</time>
      </trkpt>
      <trkpt lat="42.1796120" lon="-8.7924200">
        <ele>103.1</ele>
        <time>2021-05-20T07:49:03Z</time>
      </trkpt>
      <trkpt lat="42.1796210" lon="-8.7924090">
        <ele>103.0</ele>
        <time>2021-05-20T07:49:04Z</time>
      </trkpt>
      <trkpt lat="42.1796250" lon="-8.7923980">
        <ele>103.0</ele>
        <time>2021-05-20T07:49:05Z</time>
      </trkpt>
      <trkpt lat="42.1796180" lon="-8.7923910">
        <ele>103.0</ele>
        <time>2021-05-20T07:49:06Z</time>
      </trkpt>
      <trkpt lat="42.1796230" lon="-8.7923750">
        <ele>102.9</ele>
        <time>2021-05-20T07:49:07Z</time>
      </trkpt>
      <trkpt lat="42.1796220" lon="-8.7923680">
        <ele>102.9</ele>
        <time>2021-05-20T07:49:08Z</time>
      </trkpt>
      <trkpt lat="42.1796300" lon="-8.7923600">
        <ele>102.8</ele>
        <time>2021-05-20T07:49:09Z</time>
      </trkpt>
      <trkpt lat="42.1796330" lon="-8.7923550">
        <ele>102.8</ele>
        <time>2021-05-20T07:49:10Z</time>
      </trkpt>
      <trkpt lat="42.1796420" lon="-8.7923490">
        <ele>102.8</ele>
        <time>2021-05-20T07:49:11Z</time>
      </trkpt>
      <trkpt lat="42.1796470" lon="-8.7923410">
        <ele>102.7</ele>
        <time>2021-05-20T07:49:12Z</time>
      </trkpt>
      <trkpt lat="42.1796510" lon="-8.7923330">
        <ele>102.7</ele>
        <time>2021-05-20T07:49:13Z</time>
      </trkpt>
      <trkpt lat="42.1796610" lon="-8.7923280">
        <ele>102.6</ele>
        <time>2021-05-20T07:49:14Z</time>
      </trkpt>
      <trkpt lat="42.1796740" lon="-8.7923270">
        <ele>102.6</ele>
        <time>2021-05-20T07:49:15Z</time>
      </trkpt>
      <trkpt lat="42.1796860" lon="-8.7923310">
        <ele>102.5</ele>
        <time>2021-05-20T07:49:16Z</time>
      </trkpt>
      <trkpt lat="42.1796960" lon="-8.7923260">
        <ele>102.5</ele>
        <time>2021-05-20T07:49:17Z</time>
      </trkpt>
      <trkpt lat="42.1797040" lon="-8.7923240">
        <ele>102.4</ele>
        <time>2021-05-20T07:49:18Z</time>
      </trkpt>
      <trkpt lat="42.1797240" lon="-8.7923140">
        <ele>102.3</ele>
        <time>2021-05-20T07:49:19Z</time>
      </trkpt>
      <trkpt lat="42.1797320" lon="-8.7923080">
        <ele>102.3</ele>
        <time>2021-05-20T07:49:20Z</time>
      </trkpt>
      <trkpt lat="42.1797410" lon="-8.7923030">
        <ele>102.2</ele>
        <time>2021-05-20T07:49:21Z</time>
      </trkpt>
      <trkpt lat="42.1797480" lon="-8.7922990">
        <ele>102.2</ele>
        <time>2021-05-20T07:49:22Z</time>
      </trkpt>
      <trkpt lat="42.1797510" lon="-8.7922960">
        <ele>102.2</ele>
        <time>2021-05-20T07:49:23Z</time>
      </trkpt>
      <trkpt lat="42.1797660" lon="-8.7922820">
        <ele>102.1</ele>
        <time>2021-05-20T07:49:24Z</time>
      </trkpt>
      <trkpt lat="42.1797740" lon="-8.7922730">
        <ele>102.0</ele>
        <time>2021-05-20T07:49:25Z</time>
      </trkpt>
      <trkpt lat="42.1797790" lon="-8.7922600">
        <ele>102.0</ele>
        <time>2021-05-20T07:49:26Z</time>
      </trkpt>
      <trkpt lat="42.1797820" lon="-8.7922530">
        <ele>102.0</ele>
        <time>2021-05-20T07:49:27Z</time>
      </trkpt>
      <trkpt lat="42.1797900" lon="-8.7922460">
        <ele>101.9</ele>
        <time>2021-05-20T07:49:28Z</time>
      </trkpt>
      <trkpt lat="42.1798020" lon="-8.7922440">
        <ele>101.9</ele>
        <time>2021-05-20T07:49:29Z</time>
      </trkpt>
      <trkpt lat="42.1798130" lon="-8.7922360">
        <ele>101.8</ele>
        <time>2021-05-20T07:49:30Z</time>
      </trkpt>
      <trkpt lat="42.1798220" lon="-8.7922260">
        <ele>101.7</ele>
        <time>2021-05-20T07:49:31Z</time>
      </trkpt>
      <trkpt lat="42.1798370" lon="-8.7922150">
        <ele>101.7</ele>
        <time>2021-05-20T07:49:32Z</time>
      </trkpt>
      <trkpt lat="42.1798500" lon="-8.7922050">
        <ele>101.6</ele>
        <time>2021-05-20T07:49:33Z</time>
      </trkpt>
      <trkpt lat="42.1798600" lon="-8.7921920">
        <ele>101.5</ele>
        <time>2021-05-20T07:49:34Z</time>
      </trkpt>
      <trkpt lat="42.1798760" lon="-8.7921790">
        <ele>101.4</ele>
        <time>2021-05-20T07:49:35Z</time>
      </trkpt>
      <trkpt lat="42.1798890" lon="-8.7921660">
        <ele>101.4</ele>
        <time>2021-05-20T07:49:36Z</time>
      </trkpt>
      <trkpt lat="42.1799000" lon="-8.7921440">
        <ele>101.3</ele>
        <time>2021-05-20T07:49:37Z</time>
      </trkpt>
      <trkpt lat="42.1799060" lon="-8.7921340">
        <ele>101.3</ele>
        <time>2021-05-20T07:49:38Z</time>
      </trkpt>
      <trkpt lat="42.1799110" lon="-8.7921230">
        <ele>101.2</ele>
        <time>2021-05-20T07:49:39Z</time>
      </trkpt>
      <trkpt lat="42.1799190" lon="-8.7921130">
        <ele>101.2</ele>
        <time>2021-05-20T07:49:40Z</time>
      </trkpt>
      <trkpt lat="42.1799310" lon="-8.7920990">
        <ele>101.1</ele>
        <time>2021-05-20T07:49:41Z</time>
      </trkpt>
      <trkpt lat="42.1799400" lon="-8.7920850">
        <ele>101.1</ele>
        <time>2021-05-20T07:49:43Z</time>
      </trkpt>
      <trkpt lat="42.1799470" lon="-8.7920740">
        <ele>101.1</ele>
        <time>2021-05-20T07:49:44Z</time>
      </trkpt>
      <trkpt lat="42.1799500" lon="-8.7920660">
        <ele>101.0</ele>
        <time>2021-05-20T07:49:45Z</time>
      </trkpt>
      <trkpt lat="42.1799560" lon="-8.7920630">
        <ele>101.0</ele>
        <time>2021-05-20T07:49:46Z</time>
      </trkpt>
      <trkpt lat="42.1799630" lon="-8.7920460">
        <ele>101.0</ele>
        <time>2021-05-20T07:49:47Z</time>
      </trkpt>
      <trkpt lat="42.1799690" lon="-8.7920340">
        <ele>100.9</ele>
        <time>2021-05-20T07:49:48Z</time>
      </trkpt>
      <trkpt lat="42.1799820" lon="-8.7920190">
        <ele>100.9</ele>
        <time>2021-05-20T07:49:49Z</time>
      </trkpt>
      <trkpt lat="42.1799950" lon="-8.7920110">
        <ele>100.9</ele>
        <time>2021-05-20T07:49:50Z</time>
      </trkpt>
      <trkpt lat="42.1800080" lon="-8.7919910">
        <ele>100.8</ele>
        <time>2021-05-20T07:49:51Z</time>
      </trkpt>
      <trkpt lat="42.1800140" lon="-8.7919810">
        <ele>100.8</ele>
        <time>2021-05-20T07:49:52Z</time>
      </trkpt>
      <trkpt lat="42.1800200" lon="-8.7919720">
        <ele>100.8</ele>
        <time>2021-05-20T07:49:53Z</time>
      </trkpt>
      <trkpt lat="42.1800270" lon="-8.7919630">
        <ele>100.8</ele>
        <time>2021-05-20T07:49:54Z</time>
      </trkpt>
      <trkpt lat="42.1800300" lon="-8.7919580">
        <ele>100.8</ele>
        <time>2021-05-20T07:49:55Z</time>
      </trkpt>
      <trkpt lat="42.1800330" lon="-8.7919520">
        <ele>100.7</ele>
        <time>2021-05-20T07:49:56Z</time>
      </trkpt>
      <trkpt lat="42.1800390" lon="-8.7919440">
        <ele>100.7</ele>
        <time>2021-05-20T07:49:57Z</time>
      </trkpt>
      <trkpt lat="42.1800460" lon="-8.7919330">
        <ele>100.7</ele>
        <time>2021-05-20T07:49:58Z</time>
      </trkpt>
      <trkpt lat="42.1800540" lon="-8.7919220">
        <ele>100.7</ele>
        <time>2021-05-20T07:49:59Z</time>
      </trkpt>
      <trkpt lat="42.1800640" lon="-8.7919090">
        <ele>100.7</ele>
        <time>2021-05-20T07:50:00Z</time>
      </trkpt>
      <trkpt lat="42.1800590" lon="-8.7918990">
        <ele>100.7</ele>
        <time>2021-05-20T07:50:01Z</time>
      </trkpt>
      <trkpt lat="42.1800610" lon="-8.7918890">
        <ele>100.6</ele>
        <time>2021-05-20T07:50:02Z</time>
      </trkpt>
      <trkpt lat="42.1800650" lon="-8.7918750">
        <ele>100.6</ele>
        <time>2021-05-20T07:50:03Z</time>
      </trkpt>
      <trkpt lat="42.1800710" lon="-8.7918620">
        <ele>100.6</ele>
        <time>2021-05-20T07:50:04Z</time>
      </trkpt>
      <trkpt lat="42.1800770" lon="-8.7918520">
        <ele>100.6</ele>
        <time>2021-05-20T07:50:05Z</time>
      </trkpt>
      <trkpt lat="42.1800820" lon="-8.7918420">
        <ele>100.6</ele>
        <time>2021-05-20T07:50:06Z</time>
      </trkpt>
      <trkpt lat="42.1800890" lon="-8.7918330">
        <ele>100.6</ele>
        <time>2021-05-20T07:50:07Z</time>
      </trkpt>
      <trkpt lat="42.1801070" lon="-8.7918080">
        <ele>100.5</ele>
        <time>2021-05-20T07:50:08Z</time>
      </trkpt>
      <trkpt lat="42.1801160" lon="-8.7917990">
        <ele>100.5</ele>
        <time>2021-05-20T07:50:09Z</time>
      </trkpt>
      <trkpt lat="42.1801260" lon="-8.7917890">
        <ele>100.5</ele>
        <time>2021-05-20T07:50:10Z</time>
      </trkpt>
      <trkpt lat="42.1801460" lon="-8.7917690">
        <ele>100.5</ele>
        <time>2021-05-20T07:50:11Z</time>
      </trkpt>
      <trkpt lat="42.1801560" lon="-8.7917570">
        <ele>100.5</ele>
        <time>2021-05-20T07:50:12Z</time>
      </trkpt>
      <trkpt lat="42.1801660" lon="-8.7917460">
        <ele>100.5</ele>
        <time>2021-05-20T07:50:13Z</time>
      </trkpt>
      <trkpt lat="42.1801700" lon="-8.7917360">
        <ele>100.5</ele>
        <time>2021-05-20T07:50:14Z</time>
      </trkpt>
      <trkpt lat="42.1801720" lon="-8.7917200">
        <ele>100.5</ele>
        <time>2021-05-20T07:50:15Z</time>
      </trkpt>
      <trkpt lat="42.1801770" lon="-8.7917030">
        <ele>100.5</ele>
        <time>2021-05-20T07:50:16Z</time>
      </trkpt>
      <trkpt lat="42.1801780" lon="-8.7916840">
        <ele>100.6</ele>
        <time>2021-05-20T07:50:17Z</time>
      </trkpt>
      <trkpt lat="42.1801740" lon="-8.7916640">
        <ele>100.6</ele>
        <time>2021-05-20T07:50:18Z</time>
      </trkpt>
      <trkpt lat="42.1801770" lon="-8.7916490">
        <ele>100.6</ele>
        <time>2021-05-20T07:50:19Z</time>
      </trkpt>
      <trkpt lat="42.1801770" lon="-8.7916410">
        <ele>100.6</ele>
        <time>2021-05-20T07:50:20Z</time>
      </trkpt>
      <trkpt lat="42.1801810" lon="-8.7916270">
        <ele>100.7</ele>
        <time>2021-05-20T07:50:21Z</time>
      </trkpt>
      <trkpt lat="42.1801840" lon="-8.7916130">
        <ele>100.7</ele>
        <time>2021-05-20T07:50:22Z</time>
      </trkpt>
      <trkpt lat="42.1801910" lon="-8.7916040">
        <ele>100.7</ele>
        <time>2021-05-20T07:50:23Z</time>
      </trkpt>
      <trkpt lat="42.1801980" lon="-8.7915910">
        <ele>100.7</ele>
        <time>2021-05-20T07:50:24Z</time>
      </trkpt>
      <trkpt lat="42.1802080" lon="-8.7915650">
        <ele>100.8</ele>
        <time>2021-05-20T07:50:25Z</time>
      </trkpt>
      <trkpt lat="42.1802120" lon="-8.7915550">
        <ele>100.8</ele>
        <time>2021-05-20T07:50:26Z</time>
      </trkpt>
      <trkpt lat="42.1802160" lon="-8.7915450">
        <ele>100.8</ele>
        <time>2021-05-20T07:50:27Z</time>
      </trkpt>
      <trkpt lat="42.1802230" lon="-8.7915270">
        <ele>100.9</ele>
        <time>2021-05-20T07:50:28Z</time>
      </trkpt>
      <trkpt lat="42.1802300" lon="-8.7915070">
        <ele>100.9</ele>
        <time>2021-05-20T07:50:29Z</time>
      </trkpt>
      <trkpt lat="42.1802340" lon="-8.7914960">
        <ele>100.9</ele>
        <time>2021-05-20T07:50:30Z</time>
      </trkpt>
      <trkpt lat="42.1802510" lon="-8.7914770">
        <ele>101.0</ele>
        <time>2021-05-20T07:50:31Z</time>
      </trkpt>
      <trkpt lat="42.1802600" lon="-8.7914680">
        <ele>101.0</ele>
        <time>2021-05-20T07:50:32Z</time>
      </trkpt>
      <trkpt lat="42.1802630" lon="-8.7914540">
        <ele>101.0</ele>
        <time>2021-05-20T07:50:33Z</time>
      </trkpt>
      <trkpt lat="42.1802690" lon="-8.7914390">
        <ele>101.1</ele>
        <time>2021-05-20T07:50:34Z</time>
      </trkpt>
      <trkpt lat="42.1802760" lon="-8.7914240">
        <ele>101.1</ele>
        <time>2021-05-20T07:50:35Z</time>
      </trkpt>
      <trkpt lat="42.1802800" lon="-8.7914100">
        <ele>101.1</ele>
        <time>2021-05-20T07:50:36Z</time>
      </trkpt>
      <trkpt lat="42.1802830" lon="-8.7914070">
        <ele>101.1</ele>
        <time>2021-05-20T07:50:37Z</time>
      </trkpt>
      <trkpt lat="42.1802880" lon="-8.7913990">
        <ele>101.1</ele>
        <time>2021-05-20T07:50:38Z</time>
      </trkpt>
      <trkpt lat="42.1802950" lon="-8.7913830">
        <ele>101.1</ele>
        <time>2021-05-20T07:50:39Z</time>
      </trkpt>
      <trkpt lat="42.1803010" lon="-8.7913720">
        <ele>101.1</ele>
        <time>2021-05-20T07:50:40Z</time>
      </trkpt>
      <trkpt lat="42.1803050" lon="-8.7913610">
        <ele>101.1</ele>
        <time>2021-05-20T07:50:41Z</time>
      </trkpt>
      <trkpt lat="42.1803080" lon="-8.7913460">
        <ele>101.1</ele>
        <time>2021-05-20T07:50:42Z</time>
      </trkpt>
      <trkpt lat="42.1803120" lon="-8.7913370">
        <ele>101.1</ele>
        <time>2021-05-20T07:50:43Z</time>
      </trkpt>
      <trkpt lat="42.1803170" lon="-8.7913250">
        <ele>101.1</ele>
        <time>2021-05-20T07:50:44Z</time>
      </trkpt>
      <trkpt lat="42.1803200" lon="-8.7913090">
        <ele>101.1</ele>
        <time>2021-05-20T07:50:45Z</time>
      </trkpt>
      <trkpt lat="42.1803190" lon="-8.7912940">
        <ele>101.1</ele>
        <time>2021-05-20T07:50:46Z</time>
      </trkpt>
      <trkpt lat="42.1803200" lon="-8.7912630">
        <ele>101.1</ele>
        <time>2021-05-20T07:50:47Z</time>
      </trkpt>
      <trkpt lat="42.1803230" lon="-8.7912500">
        <ele>101.1</ele>
        <time>2021-05-20T07:50:48Z</time>
      </trkpt>
      <trkpt lat="42.1803250" lon="-8.7912380">
        <ele>101.1</ele>
        <time>2021-05-20T07:50:49Z</time>
      </trkpt>
      <trkpt lat="42.1803270" lon="-8.7912230">
        <ele>101.1</ele>
        <time>2021-05-20T07:50:50Z</time>
      </trkpt>
      <trkpt lat="42.1803300" lon="-8.7912070">
        <ele>101.1</ele>
        <time>2021-05-20T07:50:51Z</time>
      </trkpt>
      <trkpt lat="42.1803320" lon="-8.7911950">
        <ele>101.1</ele>
        <time>2021-05-20T07:50:52Z</time>
      </trkpt>
      <trkpt lat="42.1803350" lon="-8.7911770">
        <ele>101.2</ele>
        <time>2021-05-20T07:50:53Z</time>
      </trkpt>
      <trkpt lat="42.1803500" lon="-8.7911560">
        <ele>101.2</ele>
        <time>2021-05-20T07:50:54Z</time>
      </trkpt>
      <trkpt lat="42.1803510" lon="-8.7911540">
        <ele>101.2</ele>
        <time>2021-05-20T07:50:55Z</time>
      </trkpt>
      <trkpt lat="42.1803530" lon="-8.7911440">
        <ele>101.2</ele>
        <time>2021-05-20T07:50:56Z</time>
      </trkpt>
      <trkpt lat="42.1803570" lon="-8.7911380">
        <ele>101.2</ele>
        <time>2021-05-20T07:50:57Z</time>
      </trkpt>
      <trkpt lat="42.1803620" lon="-8.7911350">
        <ele>101.2</ele>
        <time>2021-05-20T07:50:58Z</time>
      </trkpt>
      <trkpt lat="42.1803640" lon="-8.7911190">
        <ele>101.2</ele>
        <time>2021-05-20T07:50:59Z</time>
      </trkpt>
      <trkpt lat="42.1803610" lon="-8.7911060">
        <ele>101.2</ele>
        <time>2021-05-20T07:51:00Z</time>
      </trkpt>
      <trkpt lat="42.1803600" lon="-8.7911000">
        <ele>101.2</ele>
        <time>2021-05-20T07:51:01Z</time>
      </trkpt>
      <trkpt lat="42.1803540" lon="-8.7910980">
        <ele>101.2</ele>
        <time>2021-05-20T07:51:02Z</time>
      </trkpt>
      <trkpt lat="42.1803540" lon="-8.7910960">
        <ele>101.2</ele>
        <time>2021-05-20T07:51:03Z</time>
      </trkpt>
      <trkpt lat="42.1803530" lon="-8.7910960">
        <ele>101.2</ele>
        <time>2021-05-20T07:51:04Z</time>
      </trkpt>
      <trkpt lat="42.1803520" lon="-8.7910960">
        <ele>101.2</ele>
        <time>2021-05-20T07:51:05Z</time>
      </trkpt>
      <trkpt lat="42.1803540" lon="-8.7910980">
        <ele>101.2</ele>
        <time>2021-05-20T07:51:06Z</time>
      </trkpt>
      <trkpt lat="42.1803600" lon="-8.7910950">
        <ele>101.2</ele>
        <time>2021-05-20T07:51:07Z</time>
      </trkpt>
      <trkpt lat="42.1803620" lon="-8.7910910">
        <ele>101.2</ele>
        <time>2021-05-20T07:51:08Z</time>
      </trkpt>
      <trkpt lat="42.1803600" lon="-8.7910930">
        <ele>101.2</ele>
        <time>2021-05-20T07:51:09Z</time>
      </trkpt>
      <trkpt lat="42.1803590" lon="-8.7910930">
        <ele>101.2</ele>
        <time>2021-05-20T07:51:10Z</time>
      </trkpt>
      <trkpt lat="42.1803460" lon="-8.7910950">
        <ele>101.2</ele>
        <time>2021-05-20T07:51:11Z</time>
      </trkpt>
      <trkpt lat="42.1803430" lon="-8.7910960">
        <ele>101.2</ele>
        <time>2021-05-20T07:51:12Z</time>
      </trkpt>
      <trkpt lat="42.1803470" lon="-8.7910900">
        <ele>101.2</ele>
        <time>2021-05-20T07:51:13Z</time>
      </trkpt>
      <trkpt lat="42.1803650" lon="-8.7910730">
        <ele>101.2</ele>
        <time>2021-05-20T07:51:14Z</time>
      </trkpt>
      <trkpt lat="42.1803750" lon="-8.7910670">
        <ele>101.2</ele>
        <time>2021-05-20T07:51:15Z</time>
      </trkpt>
      <trkpt lat="42.1803750" lon="-8.7910650">
        <ele>101.2</ele>
        <time>2021-05-20T07:51:16Z</time>
      </trkpt>
      <trkpt lat="42.1803770" lon="-8.7910700">
        <ele>101.2</ele>
        <time>2021-05-20T07:51:17Z</time>
      </trkpt>
      <trkpt lat="42.1803740" lon="-8.7910670">
        <ele>101.2</ele>
        <time>2021-05-20T07:51:18Z</time>
      </trkpt>
      <trkpt lat="42.1803770" lon="-8.7910720">
        <ele>101.2</ele>
        <time>2021-05-20T07:51:19Z</time>
      </trkpt>
      <trkpt lat="42.1803760" lon="-8.7910790">
        <ele>101.2</ele>
        <time>2021-05-20T07:51:20Z</time>
      </trkpt>
      <trkpt lat="42.1803730" lon="-8.7910910">
        <ele>101.2</ele>
        <time>2021-05-20T07:51:21Z</time>
      </trkpt>
      <trkpt lat="42.1803730" lon="-8.7910940">
        <ele>101.2</ele>
        <time>2021-05-20T07:51:22Z</time>
      </trkpt>
      <trkpt lat="42.1803760" lon="-8.7911000">
        <ele>101.2</ele>
        <time>2021-05-20T07:51:23Z</time>
      </trkpt>
      <trkpt lat="42.1803750" lon="-8.7910980">
        <ele>101.2</ele>
        <time>2021-05-20T07:51:24Z</time>
      </trkpt>
      <trkpt lat="42.1803710" lon="-8.7910910">
        <ele>101.2</ele>
        <time>2021-05-20T07:51:25Z</time>
      </trkpt>
      <trkpt lat="42.1803680" lon="-8.7910900">
        <ele>101.2</ele>
        <time>2021-05-20T07:51:26Z</time>
      </trkpt>
      <trkpt lat="42.1803700" lon="-8.7910860">
        <ele>101.2</ele>
        <time>2021-05-20T07:51:27Z</time>
      </trkpt>
      <trkpt lat="42.1803750" lon="-8.7910830">
        <ele>101.2</ele>
        <time>2021-05-20T07:51:28Z</time>
      </trkpt>
      <trkpt lat="42.1803790" lon="-8.7910820">
        <ele>101.2</ele>
        <time>2021-05-20T07:51:29Z</time>
      </trkpt>
      <trkpt lat="42.1803850" lon="-8.7910760">
        <ele>101.2</ele>
        <time>2021-05-20T07:51:30Z</time>
      </trkpt>
      <trkpt lat="42.1803820" lon="-8.7910730">
        <ele>101.2</ele>
        <time>2021-05-20T07:51:31Z</time>
      </trkpt>
      <trkpt lat="42.1803780" lon="-8.7910740">
        <ele>101.2</ele>
        <time>2021-05-20T07:51:32Z</time>
      </trkpt>
      <trkpt lat="42.1803820" lon="-8.7910650">
        <ele>101.2</ele>
        <time>2021-05-20T07:51:33Z</time>
      </trkpt>
      <trkpt lat="42.1803870" lon="-8.7910640">
        <ele>101.2</ele>
        <time>2021-05-20T07:51:34Z</time>
      </trkpt>
      <trkpt lat="42.1803810" lon="-8.7910730">
        <ele>101.2</ele>
        <time>2021-05-20T07:51:35Z</time>
      </trkpt>
      <trkpt lat="42.1803880" lon="-8.7910730">
        <ele>101.2</ele>
        <time>2021-05-20T07:51:36Z</time>
      </trkpt>
      <trkpt lat="42.1804000" lon="-8.7910720">
        <ele>101.2</ele>
        <time>2021-05-20T07:51:37Z</time>
      </trkpt>
      <trkpt lat="42.1804070" lon="-8.7910790">
        <ele>101.2</ele>
        <time>2021-05-20T07:51:38Z</time>
      </trkpt>
      <trkpt lat="42.1804070" lon="-8.7910820">
        <ele>101.2</ele>
        <time>2021-05-20T07:51:39Z</time>
      </trkpt>
      <trkpt lat="42.1804080" lon="-8.7910820">
        <ele>101.2</ele>
        <time>2021-05-20T07:51:40Z</time>
      </trkpt>
      <trkpt lat="42.1804030" lon="-8.7910850">
        <ele>101.2</ele>
        <time>2021-05-20T07:51:41Z</time>
      </trkpt>
      <trkpt lat="42.1804050" lon="-8.7910820">
        <ele>101.2</ele>
        <time>2021-05-20T07:51:42Z</time>
      </trkpt>
      <trkpt lat="42.1804040" lon="-8.7910780">
        <ele>101.2</ele>
        <time>2021-05-20T07:51:43Z</time>
      </trkpt>
      <trkpt lat="42.1804000" lon="-8.7910750">
        <ele>101.2</ele>
        <time>2021-05-20T07:51:44Z</time>
      </trkpt>
      <trkpt lat="42.1803960" lon="-8.7910740">
        <ele>101.2</ele>
        <time>2021-05-20T07:51:45Z</time>
      </trkpt>
      <trkpt lat="42.1803930" lon="-8.7910770">
        <ele>101.2</ele>
        <time>2021-05-20T07:51:46Z</time>
      </trkpt>
      <trkpt lat="42.1803910" lon="-8.7910760">
        <ele>101.2</ele>
        <time>2021-05-20T07:51:47Z</time>
      </trkpt>
      <trkpt lat="42.1803930" lon="-8.7910690">
        <ele>101.2</ele>
        <time>2021-05-20T07:51:48Z</time>
      </trkpt>
      <trkpt lat="42.1803930" lon="-8.7910670">
        <ele>101.2</ele>
        <time>2021-05-20T07:51:49Z</time>
      </trkpt>
      <trkpt lat="42.1803890" lon="-8.7910590">
        <ele>101.2</ele>
        <time>2021-05-20T07:51:50Z</time>
      </trkpt>
      <trkpt lat="42.1803850" lon="-8.7910470">
        <ele>101.2</ele>
        <time>2021-05-20T07:51:51Z</time>
      </trkpt>
      <trkpt lat="42.1803780" lon="-8.7910410">
        <ele>101.2</ele>
        <time>2021-05-20T07:51:52Z</time>
      </trkpt>
      <trkpt lat="42.1803750" lon="-8.7910320">
        <ele>101.2</ele>
        <time>2021-05-20T07:51:53Z</time>
      </trkpt>
      <trkpt lat="42.1803740" lon="-8.7910020">
        <ele>101.2</ele>
        <time>2021-05-20T07:51:54Z</time>
      </trkpt>
      <trkpt lat="42.1803750" lon="-8.7909980">
        <ele>101.2</ele>
        <time>2021-05-20T07:51:55Z</time>
      </trkpt>
      <trkpt lat="42.1803750" lon="-8.7909980">
        <ele>101.2</ele>
        <time>2021-05-20T07:51:56Z</time>
      </trkpt>
      <trkpt lat="42.1803750" lon="-8.7909980">
        <ele>101.2</ele>
        <time>2021-05-20T07:51:57Z</time>
      </trkpt>
      <trkpt lat="42.1803910" lon="-8.7909710">
        <ele>101.2</ele>
        <time>2021-05-20T07:51:58Z</time>
      </trkpt>
      <trkpt lat="42.1803920" lon="-8.7909680">
        <ele>101.2</ele>
        <time>2021-05-20T07:51:59Z</time>
      </trkpt>
      <trkpt lat="42.1803960" lon="-8.7909660">
        <ele>101.2</ele>
        <time>2021-05-20T07:52:00Z</time>
      </trkpt>
      <trkpt lat="42.1803950" lon="-8.7909670">
        <ele>101.2</ele>
        <time>2021-05-20T07:52:01Z</time>
      </trkpt>
      <trkpt lat="42.1803910" lon="-8.7909670">
        <ele>101.2</ele>
        <time>2021-05-20T07:52:02Z</time>
      </trkpt>
      <trkpt lat="42.1803820" lon="-8.7909700">
        <ele>101.2</ele>
        <time>2021-05-20T07:52:03Z</time>
      </trkpt>
      <trkpt lat="42.1803820" lon="-8.7909710">
        <ele>101.2</ele>
        <time>2021-05-20T07:52:04Z</time>
      </trkpt>
      <trkpt lat="42.1803670" lon="-8.7909790">
        <ele>101.2</ele>
        <time>2021-05-20T07:52:05Z</time>
      </trkpt>
      <trkpt lat="42.1803590" lon="-8.7909860">
        <ele>101.2</ele>
        <time>2021-05-20T07:52:06Z</time>
      </trkpt>
      <trkpt lat="42.1803410" lon="-8.7910050">
        <ele>101.2</ele>
        <time>2021-05-20T07:52:07Z</time>
      </trkpt>
      <trkpt lat="42.1803430" lon="-8.7910280">
        <ele>101.2</ele>
        <time>2021-05-20T07:52:08Z</time>
      </trkpt>
      <trkpt lat="42.1803440" lon="-8.7910360">
        <ele>101.2</ele>
        <time>2021-05-20T07:52:09Z</time>
      </trkpt>
      <trkpt lat="42.1803450" lon="-8.7910450">
        <ele>101.2</ele>
        <time>2021-05-20T07:52:10Z</time>
      </trkpt>
      <trkpt lat="42.1803520" lon="-8.7910490">
        <ele>101.2</ele>
        <time>2021-05-20T07:52:11Z</time>
      </trkpt>
      <trkpt lat="42.1803620" lon="-8.7910540">
        <ele>101.2</ele>
        <time>2021-05-20T07:52:12Z</time>
      </trkpt>
      <trkpt lat="42.1803670" lon="-8.7910620">
        <ele>101.2</ele>
        <time>2021-05-20T07:52:13Z</time>
      </trkpt>
      <trkpt lat="42.1803720" lon="-8.7910690">
        <ele>101.2</ele>
        <time>2021-05-20T07:52:14Z</time>
      </trkpt>
      <trkpt lat="42.1803780" lon="-8.7910700">
        <ele>101.2</ele>
        <time>2021-05-20T07:52:15Z</time>
      </trkpt>
      <trkpt lat="42.1803930" lon="-8.7910750">
        <ele>101.2</ele>
        <time>2021-05-20T07:52:16Z</time>
      </trkpt>
      <trkpt lat="42.1803890" lon="-8.7910810">
        <ele>101.2</ele>
        <time>2021-05-20T07:52:18Z</time>
      </trkpt>
      <trkpt lat="42.1803840" lon="-8.7910820">
        <ele>101.2</ele>
        <time>2021-05-20T07:52:19Z</time>
      </trkpt>
      <trkpt lat="42.1803920" lon="-8.7910960">
        <ele>101.2</ele>
        <time>2021-05-20T07:52:20Z</time>
      </trkpt>
      <trkpt lat="42.1803870" lon="-8.7910950">
        <ele>101.2</ele>
        <time>2021-05-20T07:52:21Z</time>
      </trkpt>
      <trkpt lat="42.1803930" lon="-8.7910910">
        <ele>101.2</ele>
        <time>2021-05-20T07:52:22Z</time>
      </trkpt>
      <trkpt lat="42.1803910" lon="-8.7910810">
        <ele>101.2</ele>
        <time>2021-05-20T07:52:23Z</time>
      </trkpt>
      <trkpt lat="42.1803910" lon="-8.7910810">
        <ele>101.2</ele>
        <time>2021-05-20T07:52:24Z</time>
      </trkpt>
      <trkpt lat="42.1803930" lon="-8.7910730">
        <ele>101.1</ele>
        <time>2021-05-20T07:52:25Z</time>
      </trkpt>
      <trkpt lat="42.1803830" lon="-8.7910600">
        <ele>101.1</ele>
        <time>2021-05-20T07:52:26Z</time>
      </trkpt>
      <trkpt lat="42.1803870" lon="-8.7910420">
        <ele>101.1</ele>
        <time>2021-05-20T07:52:27Z</time>
      </trkpt>
      <trkpt lat="42.1803880" lon="-8.7910320">
        <ele>101.1</ele>
        <time>2021-05-20T07:52:28Z</time>
      </trkpt>
      <trkpt lat="42.1803900" lon="-8.7910300">
        <ele>101.1</ele>
        <time>2021-05-20T07:52:29Z</time>
      </trkpt>
      <trkpt lat="42.1803950" lon="-8.7910250">
        <ele>101.1</ele>
        <time>2021-05-20T07:52:30Z</time>
      </trkpt>
      <trkpt lat="42.1803980" lon="-8.7910240">
        <ele>101.1</ele>
        <time>2021-05-20T07:52:31Z</time>
      </trkpt>
      <trkpt lat="42.1803960" lon="-8.7910240">
        <ele>101.1</ele>
        <time>2021-05-20T07:52:32Z</time>
      </trkpt>
      <trkpt lat="42.1803950" lon="-8.7910250">
        <ele>101.1</ele>
        <time>2021-05-20T07:52:33Z</time>
      </trkpt>
      <trkpt lat="42.1803960" lon="-8.7910250">
        <ele>101.1</ele>
        <time>2021-05-20T07:52:34Z</time>
      </trkpt>
      <trkpt lat="42.1803930" lon="-8.7910240">
        <ele>101.1</ele>
        <time>2021-05-20T07:52:35Z</time>
      </trkpt>
      <trkpt lat="42.1803980" lon="-8.7910270">
        <ele>101.1</ele>
        <time>2021-05-20T07:52:36Z</time>
      </trkpt>
      <trkpt lat="42.1804020" lon="-8.7910250">
        <ele>101.1</ele>
        <time>2021-05-20T07:52:37Z</time>
      </trkpt>
      <trkpt lat="42.1804020" lon="-8.7910250">
        <ele>101.1</ele>
        <time>2021-05-20T07:52:38Z</time>
      </trkpt>
      <trkpt lat="42.1804020" lon="-8.7910250">
        <ele>101.1</ele>
        <time>2021-05-20T07:52:39Z</time>
      </trkpt>
      <trkpt lat="42.1804020" lon="-8.7910250">
        <ele>101.1</ele>
        <time>2021-05-20T07:52:40Z</time>
      </trkpt>
      <trkpt lat="42.1804230" lon="-8.7910150">
        <ele>101.1</ele>
        <time>2021-05-20T07:52:41Z</time>
      </trkpt>
      <trkpt lat="42.1804210" lon="-8.7910150">
        <ele>101.1</ele>
        <time>2021-05-20T07:52:42Z</time>
      </trkpt>
      <trkpt lat="42.1804210" lon="-8.7910150">
        <ele>101.1</ele>
        <time>2021-05-20T07:52:43Z</time>
      </trkpt>
      <trkpt lat="42.1804210" lon="-8.7910150">
        <ele>101.1</ele>
        <time>2021-05-20T07:52:44Z</time>
      </trkpt>
      <trkpt lat="42.1804280" lon="-8.7910150">
        <ele>101.1</ele>
        <time>2021-05-20T07:52:45Z</time>
      </trkpt>
      <trkpt lat="42.1804270" lon="-8.7910160">
        <ele>101.1</ele>
        <time>2021-05-20T07:52:46Z</time>
      </trkpt>
      <trkpt lat="42.1804270" lon="-8.7910160">
        <ele>101.1</ele>
        <time>2021-05-20T07:52:47Z</time>
      </trkpt>
      <trkpt lat="42.1804310" lon="-8.7910170">
        <ele>101.1</ele>
        <time>2021-05-20T07:52:48Z</time>
      </trkpt>
      <trkpt lat="42.1804360" lon="-8.7910160">
        <ele>101.1</ele>
        <time>2021-05-20T07:52:49Z</time>
      </trkpt>
      <trkpt lat="42.1804310" lon="-8.7910190">
        <ele>101.1</ele>
        <time>2021-05-20T07:52:50Z</time>
      </trkpt>
      <trkpt lat="42.1804310" lon="-8.7910170">
        <ele>101.1</ele>
        <time>2021-05-20T07:52:51Z</time>
      </trkpt>
      <trkpt lat="42.1804320" lon="-8.7910110">
        <ele>101.1</ele>
        <time>2021-05-20T07:52:52Z</time>
      </trkpt>
      <trkpt lat="42.1804400" lon="-8.7910080">
        <ele>101.1</ele>
        <time>2021-05-20T07:52:53Z</time>
      </trkpt>
      <trkpt lat="42.1804400" lon="-8.7910060">
        <ele>101.1</ele>
        <time>2021-05-20T07:52:54Z</time>
      </trkpt>
      <trkpt lat="42.1804360" lon="-8.7910100">
        <ele>101.1</ele>
        <time>2021-05-20T07:52:55Z</time>
      </trkpt>
      <trkpt lat="42.1804280" lon="-8.7910000">
        <ele>101.1</ele>
        <time>2021-05-20T07:52:56Z</time>
      </trkpt>
      <trkpt lat="42.1804330" lon="-8.7909870">
        <ele>101.1</ele>
        <time>2021-05-20T07:52:57Z</time>
      </trkpt>
      <trkpt lat="42.1804300" lon="-8.7909840">
        <ele>101.1</ele>
        <time>2021-05-20T07:52:58Z</time>
      </trkpt>
      <trkpt lat="42.1804250" lon="-8.7909780">
        <ele>101.1</ele>
        <time>2021-05-20T07:52:59Z</time>
      </trkpt>
      <trkpt lat="42.1804240" lon="-8.7909740">
        <ele>101.1</ele>
        <time>2021-05-20T07:53:00Z</time>
      </trkpt>
      <trkpt lat="42.1804210" lon="-8.7909740">
        <ele>101.1</ele>
        <time>2021-05-20T07:53:01Z</time>
      </trkpt>
      <trkpt lat="42.1804260" lon="-8.7909780">
        <ele>101.1</ele>
        <time>2021-05-20T07:53:02Z</time>
      </trkpt>
      <trkpt lat="42.1804260" lon="-8.7909720">
        <ele>101.1</ele>
        <time>2021-05-20T07:53:03Z</time>
      </trkpt>
      <trkpt lat="42.1804270" lon="-8.7909750">
        <ele>101.1</ele>
        <time>2021-05-20T07:53:04Z</time>
      </trkpt>
      <trkpt lat="42.1804290" lon="-8.7909740">
        <ele>101.1</ele>
        <time>2021-05-20T07:53:05Z</time>
      </trkpt>
      <trkpt lat="42.1804290" lon="-8.7909760">
        <ele>101.1</ele>
        <time>2021-05-20T07:53:06Z</time>
      </trkpt>
      <trkpt lat="42.1804310" lon="-8.7909770">
        <ele>101.1</ele>
        <time>2021-05-20T07:53:07Z</time>
      </trkpt>
      <trkpt lat="42.1804330" lon="-8.7909760">
        <ele>101.1</ele>
        <time>2021-05-20T07:53:08Z</time>
      </trkpt>
      <trkpt lat="42.1804320" lon="-8.7909740">
        <ele>101.1</ele>
        <time>2021-05-20T07:53:09Z</time>
      </trkpt>
      <trkpt lat="42.1804310" lon="-8.7909710">
        <ele>101.1</ele>
        <time>2021-05-20T07:53:10Z</time>
      </trkpt>
      <trkpt lat="42.1804410" lon="-8.7909840">
        <ele>101.1</ele>
        <time>2021-05-20T07:53:11Z</time>
      </trkpt>
      <trkpt lat="42.1804360" lon="-8.7909830">
        <ele>101.1</ele>
        <time>2021-05-20T07:53:12Z</time>
      </trkpt>
      <trkpt lat="42.1804350" lon="-8.7909770">
        <ele>101.1</ele>
        <time>2021-05-20T07:53:13Z</time>
      </trkpt>
      <trkpt lat="42.1804360" lon="-8.7909730">
        <ele>101.1</ele>
        <time>2021-05-20T07:53:14Z</time>
      </trkpt>
      <trkpt lat="42.1804400" lon="-8.7909660">
        <ele>101.1</ele>
        <time>2021-05-20T07:53:15Z</time>
      </trkpt>
      <trkpt lat="42.1804440" lon="-8.7909570">
        <ele>101.1</ele>
        <time>2021-05-20T07:53:16Z</time>
      </trkpt>
      <trkpt lat="42.1804500" lon="-8.7909510">
        <ele>101.1</ele>
        <time>2021-05-20T07:53:17Z</time>
      </trkpt>
      <trkpt lat="42.1804330" lon="-8.7909510">
        <ele>101.1</ele>
        <time>2021-05-20T07:53:18Z</time>
      </trkpt>
      <trkpt lat="42.1804190" lon="-8.7909470">
        <ele>101.1</ele>
        <time>2021-05-20T07:53:19Z</time>
      </trkpt>
      <trkpt lat="42.1804150" lon="-8.7909480">
        <ele>101.1</ele>
        <time>2021-05-20T07:53:20Z</time>
      </trkpt>
      <trkpt lat="42.1804090" lon="-8.7909490">
        <ele>101.1</ele>
        <time>2021-05-20T07:53:21Z</time>
      </trkpt>
      <trkpt lat="42.1804030" lon="-8.7909480">
        <ele>101.1</ele>
        <time>2021-05-20T07:53:22Z</time>
      </trkpt>
      <trkpt lat="42.1803950" lon="-8.7909500">
        <ele>101.1</ele>
        <time>2021-05-20T07:53:23Z</time>
      </trkpt>
      <trkpt lat="42.1803870" lon="-8.7909450">
        <ele>101.1</ele>
        <time>2021-05-20T07:53:24Z</time>
      </trkpt>
      <trkpt lat="42.1803790" lon="-8.7909480">
        <ele>101.1</ele>
        <time>2021-05-20T07:53:25Z</time>
      </trkpt>
      <trkpt lat="42.1803780" lon="-8.7909600">
        <ele>101.1</ele>
        <time>2021-05-20T07:53:26Z</time>
      </trkpt>
      <trkpt lat="42.1803770" lon="-8.7909650">
        <ele>101.1</ele>
        <time>2021-05-20T07:53:27Z</time>
      </trkpt>
      <trkpt lat="42.1803760" lon="-8.7909690">
        <ele>101.1</ele>
        <time>2021-05-20T07:53:28Z</time>
      </trkpt>
      <trkpt lat="42.1803850" lon="-8.7909790">
        <ele>101.1</ele>
        <time>2021-05-20T07:53:29Z</time>
      </trkpt>
      <trkpt lat="42.1803860" lon="-8.7909890">
        <ele>101.1</ele>
        <time>2021-05-20T07:53:30Z</time>
      </trkpt>
      <trkpt lat="42.1803890" lon="-8.7909970">
        <ele>101.1</ele>
        <time>2021-05-20T07:53:31Z</time>
      </trkpt>
      <trkpt lat="42.1803900" lon="-8.7910110">
        <ele>101.1</ele>
        <time>2021-05-20T07:53:32Z</time>
      </trkpt>
      <trkpt lat="42.1803910" lon="-8.7910230">
        <ele>101.1</ele>
        <time>2021-05-20T07:53:33Z</time>
      </trkpt>
      <trkpt lat="42.1803960" lon="-8.7910300">
        <ele>101.1</ele>
        <time>2021-05-20T07:53:34Z</time>
      </trkpt>
      <trkpt lat="42.1804020" lon="-8.7910310">
        <ele>101.0</ele>
        <time>2021-05-20T07:53:35Z</time>
      </trkpt>
      <trkpt lat="42.1804030" lon="-8.7910210">
        <ele>101.0</ele>
        <time>2021-05-20T07:53:36Z</time>
      </trkpt>
      <trkpt lat="42.1804040" lon="-8.7910130">
        <ele>101.0</ele>
        <time>2021-05-20T07:53:37Z</time>
      </trkpt>
      <trkpt lat="42.1804040" lon="-8.7910080">
        <ele>101.0</ele>
        <time>2021-05-20T07:53:38Z</time>
      </trkpt>
      <trkpt lat="42.1804050" lon="-8.7910010">
        <ele>101.0</ele>
        <time>2021-05-20T07:53:39Z</time>
      </trkpt>
      <trkpt lat="42.1804070" lon="-8.7909950">
        <ele>101.0</ele>
        <time>2021-05-20T07:53:40Z</time>
      </trkpt>
      <trkpt lat="42.1804080" lon="-8.7909880">
        <ele>101.0</ele>
        <time>2021-05-20T07:53:41Z</time>
      </trkpt>
      <trkpt lat="42.1804070" lon="-8.7909810">
        <ele>101.0</ele>
        <time>2021-05-20T07:53:42Z</time>
      </trkpt>
      <trkpt lat="42.1804080" lon="-8.7909540">
        <ele>101.0</ele>
        <time>2021-05-20T07:53:43Z</time>
      </trkpt>
      <trkpt lat="42.1804100" lon="-8.7909350">
        <ele>101.0</ele>
        <time>2021-05-20T07:53:44Z</time>
      </trkpt>
      <trkpt lat="42.1804120" lon="-8.7909250">
        <ele>101.0</ele>
        <time>2021-05-20T07:53:45Z</time>
      </trkpt>
      <trkpt lat="42.1804140" lon="-8.7909140">
        <ele>101.0</ele>
        <time>2021-05-20T07:53:46Z</time>
      </trkpt>
      <trkpt lat="42.1804160" lon="-8.7909030">
        <ele>101.0</ele>
        <time>2021-05-20T07:53:47Z</time>
      </trkpt>
      <trkpt lat="42.1804180" lon="-8.7909010">
        <ele>101.0</ele>
        <time>2021-05-20T07:53:48Z</time>
      </trkpt>
      <trkpt lat="42.1804210" lon="-8.7909030">
        <ele>101.0</ele>
        <time>2021-05-20T07:53:49Z</time>
      </trkpt>
      <trkpt lat="42.1804240" lon="-8.7909080">
        <ele>101.0</ele>
        <time>2021-05-20T07:53:50Z</time>
      </trkpt>
      <trkpt lat="42.1804290" lon="-8.7909130">
        <ele>101.0</ele>
        <time>2021-05-20T07:53:51Z</time>
      </trkpt>
      <trkpt lat="42.1804330" lon="-8.7909160">
        <ele>101.0</ele>
        <time>2021-05-20T07:53:52Z</time>
      </trkpt>
      <trkpt lat="42.1804380" lon="-8.7909200">
        <ele>101.0</ele>
        <time>2021-05-20T07:53:53Z</time>
      </trkpt>
      <trkpt lat="42.1804420" lon="-8.7909240">
        <ele>101.0</ele>
        <time>2021-05-20T07:53:54Z</time>
      </trkpt>
      <trkpt lat="42.1804470" lon="-8.7909270">
        <ele>100.9</ele>
        <time>2021-05-20T07:53:55Z</time>
      </trkpt>
      <trkpt lat="42.1804470" lon="-8.7909270">
        <ele>100.9</ele>
        <time>2021-05-20T07:53:56Z</time>
      </trkpt>
      <trkpt lat="42.1804470" lon="-8.7909270">
        <ele>100.9</ele>
        <time>2021-05-20T07:53:57Z</time>
      </trkpt>
      <trkpt lat="42.1804760" lon="-8.7909360">
        <ele>100.9</ele>
        <time>2021-05-20T07:53:58Z</time>
      </trkpt>
      <trkpt lat="42.1804740" lon="-8.7909340">
        <ele>100.9</ele>
        <time>2021-05-20T07:53:59Z</time>
      </trkpt>
      <trkpt lat="42.1804710" lon="-8.7909310">
        <ele>100.9</ele>
        <time>2021-05-20T07:54:00Z</time>
      </trkpt>
      <trkpt lat="42.1804680" lon="-8.7909290">
        <ele>100.9</ele>
        <time>2021-05-20T07:54:01Z</time>
      </trkpt>
      <trkpt lat="42.1804650" lon="-8.7909260">
        <ele>100.9</ele>
        <time>2021-05-20T07:54:02Z</time>
      </trkpt>
      <trkpt lat="42.1804620" lon="-8.7909240">
        <ele>100.9</ele>
        <time>2021-05-20T07:54:03Z</time>
      </trkpt>
      <trkpt lat="42.1804580" lon="-8.7909210">
        <ele>100.9</ele>
        <time>2021-05-20T07:54:04Z</time>
      </trkpt>
      <trkpt lat="42.1804550" lon="-8.7909190">
        <ele>100.9</ele>
        <time>2021-05-20T07:54:05Z</time>
      </trkpt>
      <trkpt lat="42.1804520" lon="-8.7909160">
        <ele>100.9</ele>
        <time>2021-05-20T07:54:06Z</time>
      </trkpt>
      <trkpt lat="42.1804490" lon="-8.7909140">
        <ele>100.9</ele>
        <time>2021-05-20T07:54:07Z</time>
      </trkpt>
      <trkpt lat="42.1804460" lon="-8.7909110">
        <ele>100.9</ele>
        <time>2021-05-20T07:54:08Z</time>
      </trkpt>
      <trkpt lat="42.1804430" lon="-8.7909090">
        <ele>100.9</ele>
        <time>2021-05-20T07:54:09Z</time>
      </trkpt>
      <trkpt lat="42.1804430" lon="-8.7909100">
        <ele>100.9</ele>
        <time>2021-05-20T07:54:10Z</time>
      </trkpt>
      <trkpt lat="42.1804430" lon="-8.7909100">
        <ele>100.9</ele>
        <time>2021-05-20T07:54:11Z</time>
      </trkpt>
      <trkpt lat="42.1804300" lon="-8.7909000">
        <ele>100.9</ele>
        <time>2021-05-20T07:54:12Z</time>
      </trkpt>
      <trkpt lat="42.1804300" lon="-8.7909000">
        <ele>100.9</ele>
        <time>2021-05-20T07:54:13Z</time>
      </trkpt>
      <trkpt lat="42.1804290" lon="-8.7908950">
        <ele>100.9</ele>
        <time>2021-05-20T07:54:14Z</time>
      </trkpt>
      <trkpt lat="42.1804280" lon="-8.7908950">
        <ele>100.9</ele>
        <time>2021-05-20T07:54:15Z</time>
      </trkpt>
      <trkpt lat="42.1804280" lon="-8.7908950">
        <ele>100.9</ele>
        <time>2021-05-20T07:54:16Z</time>
      </trkpt>
      <trkpt lat="42.1804290" lon="-8.7908990">
        <ele>100.9</ele>
        <time>2021-05-20T07:54:17Z</time>
      </trkpt>
      <trkpt lat="42.1804280" lon="-8.7908990">
        <ele>100.9</ele>
        <time>2021-05-20T07:54:18Z</time>
      </trkpt>
      <trkpt lat="42.1804260" lon="-8.7908980">
        <ele>100.8</ele>
        <time>2021-05-20T07:54:19Z</time>
      </trkpt>
      <trkpt lat="42.1804240" lon="-8.7908980">
        <ele>100.8</ele>
        <time>2021-05-20T07:54:20Z</time>
      </trkpt>
      <trkpt lat="42.1804250" lon="-8.7908980">
        <ele>100.8</ele>
        <time>2021-05-20T07:54:21Z</time>
      </trkpt>
      <trkpt lat="42.1804250" lon="-8.7908970">
        <ele>100.8</ele>
        <time>2021-05-20T07:54:22Z</time>
      </trkpt>
      <trkpt lat="42.1804260" lon="-8.7908960">
        <ele>100.8</ele>
        <time>2021-05-20T07:54:23Z</time>
      </trkpt>
      <trkpt lat="42.1804280" lon="-8.7908970">
        <ele>100.8</ele>
        <time>2021-05-20T07:54:24Z</time>
      </trkpt>
      <trkpt lat="42.1804260" lon="-8.7908970">
        <ele>100.8</ele>
        <time>2021-05-20T07:54:26Z</time>
      </trkpt>
      <trkpt lat="42.1804260" lon="-8.7908970">
        <ele>100.8</ele>
        <time>2021-05-20T07:54:27Z</time>
      </trkpt>
      <trkpt lat="42.1804440" lon="-8.7909030">
        <ele>100.8</ele>
        <time>2021-05-20T07:54:28Z</time>
      </trkpt>
      <trkpt lat="42.1804480" lon="-8.7909020">
        <ele>100.8</ele>
        <time>2021-05-20T07:54:29Z</time>
      </trkpt>
      <trkpt lat="42.1804510" lon="-8.7909010">
        <ele>100.8</ele>
        <time>2021-05-20T07:54:30Z</time>
      </trkpt>
      <trkpt lat="42.1804520" lon="-8.7909010">
        <ele>100.8</ele>
        <time>2021-05-20T07:54:31Z</time>
      </trkpt>
      <trkpt lat="42.1804560" lon="-8.7909000">
        <ele>100.8</ele>
        <time>2021-05-20T07:54:32Z</time>
      </trkpt>
      <trkpt lat="42.1804600" lon="-8.7908990">
        <ele>100.8</ele>
        <time>2021-05-20T07:54:33Z</time>
      </trkpt>
      <trkpt lat="42.1804710" lon="-8.7908910">
        <ele>100.8</ele>
        <time>2021-05-20T07:54:34Z</time>
      </trkpt>
      <trkpt lat="42.1804780" lon="-8.7908850">
        <ele>100.8</ele>
        <time>2021-05-20T07:54:35Z</time>
      </trkpt>
      <trkpt lat="42.1804800" lon="-8.7908780">
        <ele>100.8</ele>
        <time>2021-05-20T07:54:36Z</time>
      </trkpt>
      <trkpt lat="42.1804840" lon="-8.7908750">
        <ele>100.8</ele>
        <time>2021-05-20T07:54:37Z</time>
      </trkpt>
      <trkpt lat="42.1804830" lon="-8.7908750">
        <ele>100.8</ele>
        <time>2021-05-20T07:54:38Z</time>
      </trkpt>
      <trkpt lat="42.1804790" lon="-8.7908700">
        <ele>100.7</ele>
        <time>2021-05-20T07:54:39Z</time>
      </trkpt>
      <trkpt lat="42.1804710" lon="-8.7908670">
        <ele>100.7</ele>
        <time>2021-05-20T07:54:40Z</time>
      </trkpt>
      <trkpt lat="42.1804660" lon="-8.7908690">
        <ele>100.7</ele>
        <time>2021-05-20T07:54:41Z</time>
      </trkpt>
      <trkpt lat="42.1804580" lon="-8.7908670">
        <ele>100.7</ele>
        <time>2021-05-20T07:54:42Z</time>
      </trkpt>
      <trkpt lat="42.1804470" lon="-8.7908660">
        <ele>100.7</ele>
        <time>2021-05-20T07:54:43Z</time>
      </trkpt>
      <trkpt lat="42.1804430" lon="-8.7908680">
        <ele>100.7</ele>
        <time>2021-05-20T07:54:44Z</time>
      </trkpt>
      <trkpt lat="42.1804370" lon="-8.7908660">
        <ele>100.7</ele>
        <time>2021-05-20T07:54:45Z</time>
      </trkpt>
      <trkpt lat="42.1804330" lon="-8.7908610">
        <ele>100.7</ele>
        <time>2021-05-20T07:54:46Z</time>
      </trkpt>
      <trkpt lat="42.1804300" lon="-8.7908590">
        <ele>100.7</ele>
        <time>2021-05-20T07:54:47Z</time>
      </trkpt>
      <trkpt lat="42.1804340" lon="-8.7908500">
        <ele>100.6</ele>
        <time>2021-05-20T07:54:48Z</time>
      </trkpt>
      <trkpt lat="42.1804350" lon="-8.7908500">
        <ele>100.6</ele>
        <time>2021-05-20T07:54:49Z</time>
      </trkpt>
      <trkpt lat="42.1804360" lon="-8.7908420">
        <ele>100.6</ele>
        <time>2021-05-20T07:54:50Z</time>
      </trkpt>
      <trkpt lat="42.1804370" lon="-8.7908390">
        <ele>100.6</ele>
        <time>2021-05-20T07:54:51Z</time>
      </trkpt>
      <trkpt lat="42.1804360" lon="-8.7908310">
        <ele>100.6</ele>
        <time>2021-05-20T07:54:52Z</time>
      </trkpt>
      <trkpt lat="42.1804350" lon="-8.7908210">
        <ele>100.6</ele>
        <time>2021-05-20T07:54:53Z</time>
      </trkpt>
      <trkpt lat="42.1804360" lon="-8.7908180">
        <ele>100.6</ele>
        <time>2021-05-20T07:54:54Z</time>
      </trkpt>
      <trkpt lat="42.1804490" lon="-8.7908110">
        <ele>100.6</ele>
        <time>2021-05-20T07:54:55Z</time>
      </trkpt>
      <trkpt lat="42.1804500" lon="-8.7908070">
        <ele>100.6</ele>
        <time>2021-05-20T07:54:56Z</time>
      </trkpt>
      <trkpt lat="42.1804550" lon="-8.7908090">
        <ele>100.6</ele>
        <time>2021-05-20T07:54:57Z</time>
      </trkpt>
      <trkpt lat="42.1804570" lon="-8.7908040">
        <ele>100.6</ele>
        <time>2021-05-20T07:54:58Z</time>
      </trkpt>
      <trkpt lat="42.1804550" lon="-8.7908060">
        <ele>100.6</ele>
        <time>2021-05-20T07:54:59Z</time>
      </trkpt>
      <trkpt lat="42.1804540" lon="-8.7908150">
        <ele>100.5</ele>
        <time>2021-05-20T07:55:00Z</time>
      </trkpt>
      <trkpt lat="42.1804600" lon="-8.7908200">
        <ele>100.5</ele>
        <time>2021-05-20T07:55:01Z</time>
      </trkpt>
      <trkpt lat="42.1804690" lon="-8.7908240">
        <ele>100.5</ele>
        <time>2021-05-20T07:55:02Z</time>
      </trkpt>
      <trkpt lat="42.1804740" lon="-8.7908250">
        <ele>100.5</ele>
        <time>2021-05-20T07:55:03Z</time>
      </trkpt>
      <trkpt lat="42.1804810" lon="-8.7908250">
        <ele>100.5</ele>
        <time>2021-05-20T07:55:04Z</time>
      </trkpt>
      <trkpt lat="42.1804890" lon="-8.7908250">
        <ele>100.5</ele>
        <time>2021-05-20T07:55:05Z</time>
      </trkpt>
      <trkpt lat="42.1805020" lon="-8.7908230">
        <ele>100.4</ele>
        <time>2021-05-20T07:55:06Z</time>
      </trkpt>
      <trkpt lat="42.1805020" lon="-8.7908230">
        <ele>100.4</ele>
        <time>2021-05-20T07:55:07Z</time>
      </trkpt>
      <trkpt lat="42.1805150" lon="-8.7908190">
        <ele>100.4</ele>
        <time>2021-05-20T07:55:08Z</time>
      </trkpt>
      <trkpt lat="42.1805210" lon="-8.7908190">
        <ele>100.4</ele>
        <time>2021-05-20T07:55:09Z</time>
      </trkpt>
      <trkpt lat="42.1805210" lon="-8.7908190">
        <ele>100.4</ele>
        <time>2021-05-20T07:55:10Z</time>
      </trkpt>
      <trkpt lat="42.1805240" lon="-8.7908200">
        <ele>100.4</ele>
        <time>2021-05-20T07:55:11Z</time>
      </trkpt>
      <trkpt lat="42.1805240" lon="-8.7908200">
        <ele>100.4</ele>
        <time>2021-05-20T07:55:12Z</time>
      </trkpt>
      <trkpt lat="42.1805240" lon="-8.7908200">
        <ele>100.4</ele>
        <time>2021-05-20T07:55:13Z</time>
      </trkpt>
      <trkpt lat="42.1805210" lon="-8.7908310">
        <ele>100.4</ele>
        <time>2021-05-20T07:55:14Z</time>
      </trkpt>
      <trkpt lat="42.1805200" lon="-8.7908440">
        <ele>100.4</ele>
        <time>2021-05-20T07:55:15Z</time>
      </trkpt>
      <trkpt lat="42.1805110" lon="-8.7908550">
        <ele>100.3</ele>
        <time>2021-05-20T07:55:16Z</time>
      </trkpt>
      <trkpt lat="42.1805090" lon="-8.7908640">
        <ele>100.3</ele>
        <time>2021-05-20T07:55:17Z</time>
      </trkpt>
      <trkpt lat="42.1804980" lon="-8.7908760">
        <ele>100.3</ele>
        <time>2021-05-20T07:55:18Z</time>
      </trkpt>
      <trkpt lat="42.1804960" lon="-8.7908860">
        <ele>100.3</ele>
        <time>2021-05-20T07:55:19Z</time>
      </trkpt>
      <trkpt lat="42.1804930" lon="-8.7908970">
        <ele>100.2</ele>
        <time>2021-05-20T07:55:20Z</time>
      </trkpt>
      <trkpt lat="42.1804930" lon="-8.7909110">
        <ele>100.2</ele>
        <time>2021-05-20T07:55:21Z</time>
      </trkpt>
      <trkpt lat="42.1804880" lon="-8.7909260">
        <ele>100.2</ele>
        <time>2021-05-20T07:55:22Z</time>
      </trkpt>
      <trkpt lat="42.1804810" lon="-8.7909390">
        <ele>100.2</ele>
        <time>2021-05-20T07:55:23Z</time>
      </trkpt>
      <trkpt lat="42.1804840" lon="-8.7909430">
        <ele>100.1</ele>
        <time>2021-05-20T07:55:24Z</time>
      </trkpt>
      <trkpt lat="42.1804800" lon="-8.7909480">
        <ele>100.1</ele>
        <time>2021-05-20T07:55:25Z</time>
      </trkpt>
      <trkpt lat="42.1804720" lon="-8.7909520">
        <ele>100.1</ele>
        <time>2021-05-20T07:55:26Z</time>
      </trkpt>
      <trkpt lat="42.1804700" lon="-8.7909560">
        <ele>100.1</ele>
        <time>2021-05-20T07:55:27Z</time>
      </trkpt>
      <trkpt lat="42.1804670" lon="-8.7909640">
        <ele>100.1</ele>
        <time>2021-05-20T07:55:28Z</time>
      </trkpt>
      <trkpt lat="42.1804660" lon="-8.7909730">
        <ele>100.1</ele>
        <time>2021-05-20T07:55:29Z</time>
      </trkpt>
      <trkpt lat="42.1804620" lon="-8.7909780">
        <ele>100.1</ele>
        <time>2021-05-20T07:55:30Z</time>
      </trkpt>
      <trkpt lat="42.1804630" lon="-8.7909840">
        <ele>100.0</ele>
        <time>2021-05-20T07:55:31Z</time>
      </trkpt>
      <trkpt lat="42.1804620" lon="-8.7909890">
        <ele>100.0</ele>
        <time>2021-05-20T07:55:32Z</time>
      </trkpt>
      <trkpt lat="42.1804640" lon="-8.7909920">
        <ele>100.0</ele>
        <time>2021-05-20T07:55:33Z</time>
      </trkpt>
      <trkpt lat="42.1804630" lon="-8.7909960">
        <ele>100.0</ele>
        <time>2021-05-20T07:55:34Z</time>
      </trkpt>
      <trkpt lat="42.1804610" lon="-8.7909970">
        <ele>100.0</ele>
        <time>2021-05-20T07:55:35Z</time>
      </trkpt>
      <trkpt lat="42.1804600" lon="-8.7909990">
        <ele>100.0</ele>
        <time>2021-05-20T07:55:36Z</time>
      </trkpt>
      <trkpt lat="42.1804580" lon="-8.7910000">
        <ele>100.0</ele>
        <time>2021-05-20T07:55:37Z</time>
      </trkpt>
      <trkpt lat="42.1804570" lon="-8.7910010">
        <ele>100.0</ele>
        <time>2021-05-20T07:55:38Z</time>
      </trkpt>
      <trkpt lat="42.1804550" lon="-8.7910020">
        <ele>100.0</ele>
        <time>2021-05-20T07:55:39Z</time>
      </trkpt>
      <trkpt lat="42.1804540" lon="-8.7910040">
        <ele>100.0</ele>
        <time>2021-05-20T07:55:40Z</time>
      </trkpt>
      <trkpt lat="42.1804520" lon="-8.7910050">
        <ele>100.0</ele>
        <time>2021-05-20T07:55:41Z</time>
      </trkpt>
      <trkpt lat="42.1804510" lon="-8.7910060">
        <ele>100.0</ele>
        <time>2021-05-20T07:55:42Z</time>
      </trkpt>
      <trkpt lat="42.1804490" lon="-8.7910070">
        <ele>100.0</ele>
        <time>2021-05-20T07:55:43Z</time>
      </trkpt>
      <trkpt lat="42.1804480" lon="-8.7910080">
        <ele>100.0</ele>
        <time>2021-05-20T07:55:44Z</time>
      </trkpt>
      <trkpt lat="42.1804470" lon="-8.7910100">
        <ele>100.0</ele>
        <time>2021-05-20T07:55:45Z</time>
      </trkpt>
      <trkpt lat="42.1804450" lon="-8.7910110">
        <ele>100.0</ele>
        <time>2021-05-20T07:55:46Z</time>
      </trkpt>
      <trkpt lat="42.1804440" lon="-8.7910120">
        <ele>100.0</ele>
        <time>2021-05-20T07:55:47Z</time>
      </trkpt>
      <trkpt lat="42.1804420" lon="-8.7910130">
        <ele>100.0</ele>
        <time>2021-05-20T07:55:48Z</time>
      </trkpt>
      <trkpt lat="42.1804410" lon="-8.7910150">
        <ele>99.9</ele>
        <time>2021-05-20T07:55:49Z</time>
      </trkpt>
      <trkpt lat="42.1804390" lon="-8.7910160">
        <ele>99.9</ele>
        <time>2021-05-20T07:55:50Z</time>
      </trkpt>
      <trkpt lat="42.1804380" lon="-8.7910170">
        <ele>99.9</ele>
        <time>2021-05-20T07:55:51Z</time>
      </trkpt>
      <trkpt lat="42.1804360" lon="-8.7910180">
        <ele>99.9</ele>
        <time>2021-05-20T07:55:52Z</time>
      </trkpt>
      <trkpt lat="42.1804350" lon="-8.7910200">
        <ele>99.9</ele>
        <time>2021-05-20T07:55:53Z</time>
      </trkpt>
      <trkpt lat="42.1804340" lon="-8.7910210">
        <ele>99.9</ele>
        <time>2021-05-20T07:55:54Z</time>
      </trkpt>
      <trkpt lat="42.1804320" lon="-8.7910220">
        <ele>99.9</ele>
        <time>2021-05-20T07:55:55Z</time>
      </trkpt>
      <trkpt lat="42.1804310" lon="-8.7910230">
        <ele>99.9</ele>
        <time>2021-05-20T07:55:56Z</time>
      </trkpt>
      <trkpt lat="42.1804290" lon="-8.7910240">
        <ele>99.9</ele>
        <time>2021-05-20T07:55:57Z</time>
      </trkpt>
      <trkpt lat="42.1804280" lon="-8.7910260">
        <ele>99.9</ele>
        <time>2021-05-20T07:55:58Z</time>
      </trkpt>
      <trkpt lat="42.1804260" lon="-8.7910270">
        <ele>99.9</ele>
        <time>2021-05-20T07:55:59Z</time>
      </trkpt>
      <trkpt lat="42.1804250" lon="-8.7910280">
        <ele>99.9</ele>
        <time>2021-05-20T07:56:00Z</time>
      </trkpt>
      <trkpt lat="42.1804230" lon="-8.7910290">
        <ele>99.9</ele>
        <time>2021-05-20T07:56:01Z</time>
      </trkpt>
      <trkpt lat="42.1804220" lon="-8.7910310">
        <ele>99.9</ele>
        <time>2021-05-20T07:56:02Z</time>
      </trkpt>
      <trkpt lat="42.1804200" lon="-8.7910320">
        <ele>99.9</ele>
        <time>2021-05-20T07:56:03Z</time>
      </trkpt>
      <trkpt lat="42.1804190" lon="-8.7910330">
        <ele>99.9</ele>
        <time>2021-05-20T07:56:04Z</time>
      </trkpt>
      <trkpt lat="42.1804160" lon="-8.7910370">
        <ele>99.9</ele>
        <time>2021-05-20T07:56:05Z</time>
      </trkpt>
      <trkpt lat="42.1804150" lon="-8.7910370">
        <ele>99.9</ele>
        <time>2021-05-20T07:56:06Z</time>
      </trkpt>
      <trkpt lat="42.1804130" lon="-8.7910380">
        <ele>99.9</ele>
        <time>2021-05-20T07:56:07Z</time>
      </trkpt>
      <trkpt lat="42.1804110" lon="-8.7910380">
        <ele>99.9</ele>
        <time>2021-05-20T07:56:08Z</time>
      </trkpt>
      <trkpt lat="42.1804090" lon="-8.7910390">
        <ele>99.9</ele>
        <time>2021-05-20T07:56:09Z</time>
      </trkpt>
      <trkpt lat="42.1804080" lon="-8.7910390">
        <ele>99.8</ele>
        <time>2021-05-20T07:56:10Z</time>
      </trkpt>
      <trkpt lat="42.1804060" lon="-8.7910400">
        <ele>99.8</ele>
        <time>2021-05-20T07:56:11Z</time>
      </trkpt>
      <trkpt lat="42.1804040" lon="-8.7910400">
        <ele>99.8</ele>
        <time>2021-05-20T07:56:12Z</time>
      </trkpt>
      <trkpt lat="42.1804030" lon="-8.7910410">
        <ele>99.8</ele>
        <time>2021-05-20T07:56:13Z</time>
      </trkpt>
      <trkpt lat="42.1804010" lon="-8.7910410">
        <ele>99.8</ele>
        <time>2021-05-20T07:56:14Z</time>
      </trkpt>
      <trkpt lat="42.1803990" lon="-8.7910420">
        <ele>99.7</ele>
        <time>2021-05-20T07:56:15Z</time>
      </trkpt>
      <trkpt lat="42.1803970" lon="-8.7910420">
        <ele>99.7</ele>
        <time>2021-05-20T07:56:16Z</time>
      </trkpt>
      <trkpt lat="42.1803960" lon="-8.7910430">
        <ele>99.7</ele>
        <time>2021-05-20T07:56:17Z</time>
      </trkpt>
      <trkpt lat="42.1803940" lon="-8.7910430">
        <ele>99.7</ele>
        <time>2021-05-20T07:56:18Z</time>
      </trkpt>
      <trkpt lat="42.1803920" lon="-8.7910440">
        <ele>99.7</ele>
        <time>2021-05-20T07:56:19Z</time>
      </trkpt>
      <trkpt lat="42.1803900" lon="-8.7910440">
        <ele>99.7</ele>
        <time>2021-05-20T07:56:20Z</time>
      </trkpt>
      <trkpt lat="42.1803890" lon="-8.7910450">
        <ele>99.6</ele>
        <time>2021-05-20T07:56:21Z</time>
      </trkpt>
      <trkpt lat="42.1803870" lon="-8.7910460">
        <ele>99.6</ele>
        <time>2021-05-20T07:56:22Z</time>
      </trkpt>
      <trkpt lat="42.1803850" lon="-8.7910460">
        <ele>99.6</ele>
        <time>2021-05-20T07:56:23Z</time>
      </trkpt>
      <trkpt lat="42.1803840" lon="-8.7910470">
        <ele>99.6</ele>
        <time>2021-05-20T07:56:24Z</time>
      </trkpt>
      <trkpt lat="42.1803820" lon="-8.7910470">
        <ele>99.6</ele>
        <time>2021-05-20T07:56:25Z</time>
      </trkpt>
      <trkpt lat="42.1803800" lon="-8.7910480">
        <ele>99.6</ele>
        <time>2021-05-20T07:56:26Z</time>
      </trkpt>
      <trkpt lat="42.1803780" lon="-8.7910480">
        <ele>99.6</ele>
        <time>2021-05-20T07:56:27Z</time>
      </trkpt>
      <trkpt lat="42.1803770" lon="-8.7910490">
        <ele>99.5</ele>
        <time>2021-05-20T07:56:28Z</time>
      </trkpt>
      <trkpt lat="42.1803750" lon="-8.7910490">
        <ele>99.4</ele>
        <time>2021-05-20T07:56:29Z</time>
      </trkpt>
      <trkpt lat="42.1803730" lon="-8.7910500">
        <ele>99.4</ele>
        <time>2021-05-20T07:56:30Z</time>
      </trkpt>
      <trkpt lat="42.1803720" lon="-8.7910500">
        <ele>99.4</ele>
        <time>2021-05-20T07:56:31Z</time>
      </trkpt>
      <trkpt lat="42.1803700" lon="-8.7910510">
        <ele>99.4</ele>
        <time>2021-05-20T07:56:32Z</time>
      </trkpt>
      <trkpt lat="42.1803680" lon="-8.7910510">
        <ele>99.4</ele>
        <time>2021-05-20T07:56:33Z</time>
      </trkpt>
      <trkpt lat="42.1803660" lon="-8.7910520">
        <ele>99.4</ele>
        <time>2021-05-20T07:56:34Z</time>
      </trkpt>
      <trkpt lat="42.1803650" lon="-8.7910520">
        <ele>99.3</ele>
        <time>2021-05-20T07:56:35Z</time>
      </trkpt>
      <trkpt lat="42.1803630" lon="-8.7910530">
        <ele>99.3</ele>
        <time>2021-05-20T07:56:36Z</time>
      </trkpt>
      <trkpt lat="42.1803610" lon="-8.7910530">
        <ele>99.3</ele>
        <time>2021-05-20T07:56:37Z</time>
      </trkpt>
      <trkpt lat="42.1803590" lon="-8.7910540">
        <ele>99.3</ele>
        <time>2021-05-20T07:56:38Z</time>
      </trkpt>
      <trkpt lat="42.1803580" lon="-8.7910540">
        <ele>99.3</ele>
        <time>2021-05-20T07:56:39Z</time>
      </trkpt>
      <trkpt lat="42.1803560" lon="-8.7910550">
        <ele>99.3</ele>
        <time>2021-05-20T07:56:40Z</time>
      </trkpt>
      <trkpt lat="42.1803560" lon="-8.7910520">
        <ele>99.3</ele>
        <time>2021-05-20T07:56:41Z</time>
      </trkpt>
      <trkpt lat="42.1803570" lon="-8.7910480">
        <ele>99.2</ele>
        <time>2021-05-20T07:56:42Z</time>
      </trkpt>
      <trkpt lat="42.1803570" lon="-8.7910440">
        <ele>99.2</ele>
        <time>2021-05-20T07:56:43Z</time>
      </trkpt>
      <trkpt lat="42.1803570" lon="-8.7910400">
        <ele>99.2</ele>
        <time>2021-05-20T07:56:44Z</time>
      </trkpt>
      <trkpt lat="42.1803580" lon="-8.7910360">
        <ele>99.2</ele>
        <time>2021-05-20T07:56:45Z</time>
      </trkpt>
      <trkpt lat="42.1803580" lon="-8.7910320">
        <ele>99.1</ele>
        <time>2021-05-20T07:56:46Z</time>
      </trkpt>
      <trkpt lat="42.1803580" lon="-8.7910280">
        <ele>99.1</ele>
        <time>2021-05-20T07:56:47Z</time>
      </trkpt>
      <trkpt lat="42.1803590" lon="-8.7910240">
        <ele>99.1</ele>
        <time>2021-05-20T07:56:48Z</time>
      </trkpt>
      <trkpt lat="42.1803590" lon="-8.7910200">
        <ele>99.0</ele>
        <time>2021-05-20T07:56:49Z</time>
      </trkpt>
      <trkpt lat="42.1803590" lon="-8.7910160">
        <ele>99.0</ele>
        <time>2021-05-20T07:56:50Z</time>
      </trkpt>
      <trkpt lat="42.1803600" lon="-8.7910120">
        <ele>99.0</ele>
        <time>2021-05-20T07:56:51Z</time>
      </trkpt>
      <trkpt lat="42.1803600" lon="-8.7910080">
        <ele>99.0</ele>
        <time>2021-05-20T07:56:52Z</time>
      </trkpt>
      <trkpt lat="42.1803600" lon="-8.7910040">
        <ele>99.0</ele>
        <time>2021-05-20T07:56:53Z</time>
      </trkpt>
      <trkpt lat="42.1803610" lon="-8.7910000">
        <ele>99.0</ele>
        <time>2021-05-20T07:56:54Z</time>
      </trkpt>
      <trkpt lat="42.1803610" lon="-8.7909970">
        <ele>98.9</ele>
        <time>2021-05-20T07:56:55Z</time>
      </trkpt>
      <trkpt lat="42.1803610" lon="-8.7909930">
        <ele>98.9</ele>
        <time>2021-05-20T07:56:56Z</time>
      </trkpt>
      <trkpt lat="42.1803620" lon="-8.7909890">
        <ele>98.9</ele>
        <time>2021-05-20T07:56:57Z</time>
      </trkpt>
      <trkpt lat="42.1803620" lon="-8.7909850">
        <ele>98.8</ele>
        <time>2021-05-20T07:56:58Z</time>
      </trkpt>
      <trkpt lat="42.1803620" lon="-8.7909810">
        <ele>98.8</ele>
        <time>2021-05-20T07:56:59Z</time>
      </trkpt>
      <trkpt lat="42.1803630" lon="-8.7909770">
        <ele>98.8</ele>
        <time>2021-05-20T07:57:00Z</time>
      </trkpt>
      <trkpt lat="42.1803630" lon="-8.7909730">
        <ele>98.8</ele>
        <time>2021-05-20T07:57:01Z</time>
      </trkpt>
      <trkpt lat="42.1803630" lon="-8.7909690">
        <ele>98.8</ele>
        <time>2021-05-20T07:57:02Z</time>
      </trkpt>
      <trkpt lat="42.1803640" lon="-8.7909650">
        <ele>98.7</ele>
        <time>2021-05-20T07:57:03Z</time>
      </trkpt>
      <trkpt lat="42.1803640" lon="-8.7909610">
        <ele>98.7</ele>
        <time>2021-05-20T07:57:04Z</time>
      </trkpt>
      <trkpt lat="42.1803640" lon="-8.7909570">
        <ele>98.7</ele>
        <time>2021-05-20T07:57:05Z</time>
      </trkpt>
      <trkpt lat="42.1803650" lon="-8.7909530">
        <ele>98.7</ele>
        <time>2021-05-20T07:57:06Z</time>
      </trkpt>
      <trkpt lat="42.1803650" lon="-8.7909490">
        <ele>98.7</ele>
        <time>2021-05-20T07:57:07Z</time>
      </trkpt>
      <trkpt lat="42.1803650" lon="-8.7909450">
        <ele>98.6</ele>
        <time>2021-05-20T07:57:08Z</time>
      </trkpt>
      <trkpt lat="42.1803660" lon="-8.7909410">
        <ele>98.6</ele>
        <time>2021-05-20T07:57:09Z</time>
      </trkpt>
      <trkpt lat="42.1803660" lon="-8.7909370">
        <ele>98.6</ele>
        <time>2021-05-20T07:57:10Z</time>
      </trkpt>
      <trkpt lat="42.1803660" lon="-8.7909330">
        <ele>98.6</ele>
        <time>2021-05-20T07:57:11Z</time>
      </trkpt>
      <trkpt lat="42.1803670" lon="-8.7909290">
        <ele>98.5</ele>
        <time>2021-05-20T07:57:12Z</time>
      </trkpt>
      <trkpt lat="42.1803670" lon="-8.7909250">
        <ele>98.5</ele>
        <time>2021-05-20T07:57:13Z</time>
      </trkpt>
      <trkpt lat="42.1803670" lon="-8.7909210">
        <ele>98.5</ele>
        <time>2021-05-20T07:57:14Z</time>
      </trkpt>
      <trkpt lat="42.1803680" lon="-8.7909170">
        <ele>98.5</ele>
        <time>2021-05-20T07:57:15Z</time>
      </trkpt>
      <trkpt lat="42.1803680" lon="-8.7909130">
        <ele>98.5</ele>
        <time>2021-05-20T07:57:16Z</time>
      </trkpt>
      <trkpt lat="42.1803680" lon="-8.7909090">
        <ele>98.4</ele>
        <time>2021-05-20T07:57:17Z</time>
      </trkpt>
      <trkpt lat="42.1803690" lon="-8.7909050">
        <ele>98.4</ele>
        <time>2021-05-20T07:57:18Z</time>
      </trkpt>
      <trkpt lat="42.1803690" lon="-8.7909010">
        <ele>98.4</ele>
        <time>2021-05-20T07:57:19Z</time>
      </trkpt>
      <trkpt lat="42.1803690" lon="-8.7908970">
        <ele>98.4</ele>
        <time>2021-05-20T07:57:20Z</time>
      </trkpt>
      <trkpt lat="42.1803700" lon="-8.7908930">
        <ele>98.3</ele>
        <time>2021-05-20T07:57:21Z</time>
      </trkpt>
      <trkpt lat="42.1803700" lon="-8.7908890">
        <ele>98.3</ele>
        <time>2021-05-20T07:57:22Z</time>
      </trkpt>
      <trkpt lat="42.1803700" lon="-8.7908860">
        <ele>98.3</ele>
        <time>2021-05-20T07:57:23Z</time>
      </trkpt>
      <trkpt lat="42.1803710" lon="-8.7908820">
        <ele>98.3</ele>
        <time>2021-05-20T07:57:24Z</time>
      </trkpt>
      <trkpt lat="42.1803710" lon="-8.7908780">
        <ele>98.3</ele>
        <time>2021-05-20T07:57:25Z</time>
      </trkpt>
      <trkpt lat="42.1803710" lon="-8.7908740">
        <ele>98.3</ele>
        <time>2021-05-20T07:57:26Z</time>
      </trkpt>
      <trkpt lat="42.1803720" lon="-8.7908700">
        <ele>98.2</ele>
        <time>2021-05-20T07:57:27Z</time>
      </trkpt>
      <trkpt lat="42.1803720" lon="-8.7908660">
        <ele>98.2</ele>
        <time>2021-05-20T07:57:28Z</time>
      </trkpt>
      <trkpt lat="42.1803720" lon="-8.7908620">
        <ele>98.2</ele>
        <time>2021-05-20T07:57:29Z</time>
      </trkpt>
      <trkpt lat="42.1803730" lon="-8.7908580">
        <ele>98.2</ele>
        <time>2021-05-20T07:57:30Z</time>
      </trkpt>
      <trkpt lat="42.1803730" lon="-8.7908540">
        <ele>98.2</ele>
        <time>2021-05-20T07:57:31Z</time>
      </trkpt>
      <trkpt lat="42.1803740" lon="-8.7908500">
        <ele>98.2</ele>
        <time>2021-05-20T07:57:32Z</time>
      </trkpt>
      <trkpt lat="42.1803740" lon="-8.7908460">
        <ele>98.1</ele>
        <time>2021-05-20T07:57:33Z</time>
      </trkpt>
      <trkpt lat="42.1803740" lon="-8.7908420">
        <ele>98.0</ele>
        <time>2021-05-20T07:57:34Z</time>
      </trkpt>
      <trkpt lat="42.1803750" lon="-8.7908380">
        <ele>98.0</ele>
        <time>2021-05-20T07:57:35Z</time>
      </trkpt>
      <trkpt lat="42.1803750" lon="-8.7908340">
        <ele>98.0</ele>
        <time>2021-05-20T07:57:36Z</time>
      </trkpt>
      <trkpt lat="42.1803750" lon="-8.7908300">
        <ele>98.0</ele>
        <time>2021-05-20T07:57:37Z</time>
      </trkpt>
      <trkpt lat="42.1803760" lon="-8.7908260">
        <ele>98.0</ele>
        <time>2021-05-20T07:57:38Z</time>
      </trkpt>
      <trkpt lat="42.1803760" lon="-8.7908220">
        <ele>98.0</ele>
        <time>2021-05-20T07:57:39Z</time>
      </trkpt>
      <trkpt lat="42.1803760" lon="-8.7908180">
        <ele>98.0</ele>
        <time>2021-05-20T07:57:40Z</time>
      </trkpt>
      <trkpt lat="42.1803770" lon="-8.7908140">
        <ele>97.9</ele>
        <time>2021-05-20T07:57:41Z</time>
      </trkpt>
      <trkpt lat="42.1803770" lon="-8.7908100">
        <ele>97.9</ele>
        <time>2021-05-20T07:57:42Z</time>
      </trkpt>
      <trkpt lat="42.1803770" lon="-8.7908060">
        <ele>97.9</ele>
        <time>2021-05-20T07:57:43Z</time>
      </trkpt>
      <trkpt lat="42.1803780" lon="-8.7908020">
        <ele>97.9</ele>
        <time>2021-05-20T07:57:44Z</time>
      </trkpt>
      <trkpt lat="42.1803780" lon="-8.7907980">
        <ele>97.9</ele>
        <time>2021-05-20T07:57:45Z</time>
      </trkpt>
      <trkpt lat="42.1803780" lon="-8.7907940">
        <ele>97.9</ele>
        <time>2021-05-20T07:57:46Z</time>
      </trkpt>
      <trkpt lat="42.1803790" lon="-8.7907900">
        <ele>97.9</ele>
        <time>2021-05-20T07:57:47Z</time>
      </trkpt>
      <trkpt lat="42.1803790" lon="-8.7907860">
        <ele>97.8</ele>
        <time>2021-05-20T07:57:48Z</time>
      </trkpt>
      <trkpt lat="42.1803790" lon="-8.7907820">
        <ele>97.8</ele>
        <time>2021-05-20T07:57:49Z</time>
      </trkpt>
      <trkpt lat="42.1803800" lon="-8.7907780">
        <ele>97.8</ele>
        <time>2021-05-20T07:57:50Z</time>
      </trkpt>
      <trkpt lat="42.1803800" lon="-8.7907740">
        <ele>97.7</ele>
        <time>2021-05-20T07:57:51Z</time>
      </trkpt>
      <trkpt lat="42.1803800" lon="-8.7907710">
        <ele>97.7</ele>
        <time>2021-05-20T07:57:52Z</time>
      </trkpt>
      <trkpt lat="42.1803810" lon="-8.7907670">
        <ele>97.7</ele>
        <time>2021-05-20T07:57:53Z</time>
      </trkpt>
      <trkpt lat="42.1803810" lon="-8.7907630">
        <ele>97.7</ele>
        <time>2021-05-20T07:57:54Z</time>
      </trkpt>
      <trkpt lat="42.1803810" lon="-8.7907590">
        <ele>97.7</ele>
        <time>2021-05-20T07:57:55Z</time>
      </trkpt>
      <trkpt lat="42.1803820" lon="-8.7907550">
        <ele>97.7</ele>
        <time>2021-05-20T07:57:56Z</time>
      </trkpt>
      <trkpt lat="42.1803820" lon="-8.7907510">
        <ele>97.7</ele>
        <time>2021-05-20T07:57:57Z</time>
      </trkpt>
      <trkpt lat="42.1803820" lon="-8.7907470">
        <ele>97.7</ele>
        <time>2021-05-20T07:57:58Z</time>
      </trkpt>
      <trkpt lat="42.1803830" lon="-8.7907430">
        <ele>97.7</ele>
        <time>2021-05-20T07:57:59Z</time>
      </trkpt>
      <trkpt lat="42.1803830" lon="-8.7907390">
        <ele>97.7</ele>
        <time>2021-05-20T07:58:00Z</time>
      </trkpt>
      <trkpt lat="42.1803830" lon="-8.7907350">
        <ele>97.7</ele>
        <time>2021-05-20T07:58:01Z</time>
      </trkpt>
      <trkpt lat="42.1803840" lon="-8.7907310">
        <ele>97.7</ele>
        <time>2021-05-20T07:58:02Z</time>
      </trkpt>
      <trkpt lat="42.1803840" lon="-8.7907270">
        <ele>97.7</ele>
        <time>2021-05-20T07:58:03Z</time>
      </trkpt>
      <trkpt lat="42.1803840" lon="-8.7907230">
        <ele>97.7</ele>
        <time>2021-05-20T07:58:04Z</time>
      </trkpt>
      <trkpt lat="42.1803850" lon="-8.7907190">
        <ele>97.7</ele>
        <time>2021-05-20T07:58:05Z</time>
      </trkpt>
      <trkpt lat="42.1803850" lon="-8.7907150">
        <ele>97.7</ele>
        <time>2021-05-20T07:58:06Z</time>
      </trkpt>
      <trkpt lat="42.1803850" lon="-8.7907110">
        <ele>97.7</ele>
        <time>2021-05-20T07:58:07Z</time>
      </trkpt>
      <trkpt lat="42.1803860" lon="-8.7907070">
        <ele>97.7</ele>
        <time>2021-05-20T07:58:08Z</time>
      </trkpt>
      <trkpt lat="42.1803860" lon="-8.7907030">
        <ele>97.7</ele>
        <time>2021-05-20T07:58:09Z</time>
      </trkpt>
      <trkpt lat="42.1803860" lon="-8.7906990">
        <ele>97.7</ele>
        <time>2021-05-20T07:58:10Z</time>
      </trkpt>
      <trkpt lat="42.1803870" lon="-8.7906950">
        <ele>97.7</ele>
        <time>2021-05-20T07:58:11Z</time>
      </trkpt>
      <trkpt lat="42.1803870" lon="-8.7906910">
        <ele>97.7</ele>
        <time>2021-05-20T07:58:12Z</time>
      </trkpt>
      <trkpt lat="42.1803870" lon="-8.7906870">
        <ele>97.7</ele>
        <time>2021-05-20T07:58:13Z</time>
      </trkpt>
      <trkpt lat="42.1803880" lon="-8.7906830">
        <ele>97.7</ele>
        <time>2021-05-20T07:58:14Z</time>
      </trkpt>
      <trkpt lat="42.1803880" lon="-8.7906790">
        <ele>97.6</ele>
        <time>2021-05-20T07:58:15Z</time>
      </trkpt>
      <trkpt lat="42.1803880" lon="-8.7906750">
        <ele>97.6</ele>
        <time>2021-05-20T07:58:16Z</time>
      </trkpt>
      <trkpt lat="42.1803890" lon="-8.7906710">
        <ele>97.6</ele>
        <time>2021-05-20T07:58:17Z</time>
      </trkpt>
      <trkpt lat="42.1803890" lon="-8.7906670">
        <ele>97.6</ele>
        <time>2021-05-20T07:58:18Z</time>
      </trkpt>
      <trkpt lat="42.1803890" lon="-8.7906630">
        <ele>97.6</ele>
        <time>2021-05-20T07:58:19Z</time>
      </trkpt>
      <trkpt lat="42.1803900" lon="-8.7906600">
        <ele>97.6</ele>
        <time>2021-05-20T07:58:20Z</time>
      </trkpt>
      <trkpt lat="42.1803900" lon="-8.7906560">
        <ele>97.6</ele>
        <time>2021-05-20T07:58:21Z</time>
      </trkpt>
      <trkpt lat="42.1803900" lon="-8.7906520">
        <ele>97.6</ele>
        <time>2021-05-20T07:58:22Z</time>
      </trkpt>
      <trkpt lat="42.1803910" lon="-8.7906480">
        <ele>97.6</ele>
        <time>2021-05-20T07:58:23Z</time>
      </trkpt>
      <trkpt lat="42.1803910" lon="-8.7906440">
        <ele>97.6</ele>
        <time>2021-05-20T07:58:24Z</time>
      </trkpt>
      <trkpt lat="42.1803910" lon="-8.7906400">
        <ele>97.6</ele>
        <time>2021-05-20T07:58:25Z</time>
      </trkpt>
      <trkpt lat="42.1803920" lon="-8.7906360">
        <ele>97.6</ele>
        <time>2021-05-20T07:58:26Z</time>
      </trkpt>
      <trkpt lat="42.1803920" lon="-8.7906320">
        <ele>97.6</ele>
        <time>2021-05-20T07:58:27Z</time>
      </trkpt>
      <trkpt lat="42.1803920" lon="-8.7906280">
        <ele>97.6</ele>
        <time>2021-05-20T07:58:28Z</time>
      </trkpt>
      <trkpt lat="42.1803930" lon="-8.7906240">
        <ele>97.6</ele>
        <time>2021-05-20T07:58:29Z</time>
      </trkpt>
      <trkpt lat="42.1803930" lon="-8.7906200">
        <ele>97.6</ele>
        <time>2021-05-20T07:58:30Z</time>
      </trkpt>
      <trkpt lat="42.1803930" lon="-8.7906160">
        <ele>97.6</ele>
        <time>2021-05-20T07:58:31Z</time>
      </trkpt>
      <trkpt lat="42.1803940" lon="-8.7906120">
        <ele>97.6</ele>
        <time>2021-05-20T07:58:32Z</time>
      </trkpt>
      <trkpt lat="42.1803940" lon="-8.7906080">
        <ele>97.6</ele>
        <time>2021-05-20T07:58:33Z</time>
      </trkpt>
      <trkpt lat="42.1803940" lon="-8.7906040">
        <ele>97.6</ele>
        <time>2021-05-20T07:58:34Z</time>
      </trkpt>
      <trkpt lat="42.1803950" lon="-8.7906000">
        <ele>97.6</ele>
        <time>2021-05-20T07:58:35Z</time>
      </trkpt>
      <trkpt lat="42.1803950" lon="-8.7905960">
        <ele>97.6</ele>
        <time>2021-05-20T07:58:36Z</time>
      </trkpt>
      <trkpt lat="42.1803950" lon="-8.7905920">
        <ele>97.6</ele>
        <time>2021-05-20T07:58:37Z</time>
      </trkpt>
      <trkpt lat="42.1803960" lon="-8.7905880">
        <ele>97.6</ele>
        <time>2021-05-20T07:58:38Z</time>
      </trkpt>
      <trkpt lat="42.1803960" lon="-8.7905840">
        <ele>97.6</ele>
        <time>2021-05-20T07:58:39Z</time>
      </trkpt>
      <trkpt lat="42.1803960" lon="-8.7905800">
        <ele>97.6</ele>
        <time>2021-05-20T07:58:40Z</time>
      </trkpt>
      <trkpt lat="42.1803970" lon="-8.7905760">
        <ele>97.6</ele>
        <time>2021-05-20T07:58:41Z</time>
      </trkpt>
      <trkpt lat="42.1803970" lon="-8.7905720">
        <ele>97.6</ele>
        <time>2021-05-20T07:58:42Z</time>
      </trkpt>
      <trkpt lat="42.1803970" lon="-8.7905680">
        <ele>97.6</ele>
        <time>2021-05-20T07:58:43Z</time>
      </trkpt>
      <trkpt lat="42.1803980" lon="-8.7905640">
        <ele>97.6</ele>
        <time>2021-05-20T07:58:44Z</time>
      </trkpt>
      <trkpt lat="42.1803980" lon="-8.7905600">
        <ele>97.6</ele>
        <time>2021-05-20T07:58:45Z</time>
      </trkpt>
      <trkpt lat="42.1803980" lon="-8.7905560">
        <ele>97.6</ele>
        <time>2021-05-20T07:58:46Z</time>
      </trkpt>
      <trkpt lat="42.1803990" lon="-8.7905520">
        <ele>97.5</ele>
        <time>2021-05-20T07:58:47Z</time>
      </trkpt>
      <trkpt lat="42.1803990" lon="-8.7905490">
        <ele>97.5</ele>
        <time>2021-05-20T07:58:48Z</time>
      </trkpt>
      <trkpt lat="42.1803990" lon="-8.7905450">
        <ele>97.5</ele>
        <time>2021-05-20T07:58:49Z</time>
      </trkpt>
      <trkpt lat="42.1804000" lon="-8.7905410">
        <ele>97.5</ele>
        <time>2021-05-20T07:58:50Z</time>
      </trkpt>
      <trkpt lat="42.1804000" lon="-8.7905370">
        <ele>97.5</ele>
        <time>2021-05-20T07:58:51Z</time>
      </trkpt>
      <trkpt lat="42.1804000" lon="-8.7905330">
        <ele>97.5</ele>
        <time>2021-05-20T07:58:52Z</time>
      </trkpt>
      <trkpt lat="42.1804010" lon="-8.7905290">
        <ele>97.5</ele>
        <time>2021-05-20T07:58:53Z</time>
      </trkpt>
      <trkpt lat="42.1804010" lon="-8.7905250">
        <ele>97.5</ele>
        <time>2021-05-20T07:58:54Z</time>
      </trkpt>
      <trkpt lat="42.1804010" lon="-8.7905210">
        <ele>97.5</ele>
        <time>2021-05-20T07:58:55Z</time>
      </trkpt>
      <trkpt lat="42.1804020" lon="-8.7905170">
        <ele>97.5</ele>
        <time>2021-05-20T07:58:56Z</time>
      </trkpt>
      <trkpt lat="42.1804020" lon="-8.7905130">
        <ele>97.5</ele>
        <time>2021-05-20T07:58:57Z</time>
      </trkpt>
      <trkpt lat="42.1804020" lon="-8.7905090">
        <ele>97.5</ele>
        <time>2021-05-20T07:58:58Z</time>
      </trkpt>
      <trkpt lat="42.1804030" lon="-8.7905050">
        <ele>97.5</ele>
        <time>2021-05-20T07:58:59Z</time>
      </trkpt>
      <trkpt lat="42.1804030" lon="-8.7905010">
        <ele>97.5</ele>
        <time>2021-05-20T07:59:00Z</time>
      </trkpt>
      <trkpt lat="42.1804030" lon="-8.7904970">
        <ele>97.5</ele>
        <time>2021-05-20T07:59:01Z</time>
      </trkpt>
      <trkpt lat="42.1804040" lon="-8.7904930">
        <ele>97.5</ele>
        <time>2021-05-20T07:59:02Z</time>
      </trkpt>
      <trkpt lat="42.1804040" lon="-8.7904890">
        <ele>97.5</ele>
        <time>2021-05-20T07:59:03Z</time>
      </trkpt>
      <trkpt lat="42.1804040" lon="-8.7904850">
        <ele>97.5</ele>
        <time>2021-05-20T07:59:04Z</time>
      </trkpt>
      <trkpt lat="42.1804050" lon="-8.7904810">
        <ele>97.5</ele>
        <time>2021-05-20T07:59:05Z</time>
      </trkpt>
      <trkpt lat="42.1804050" lon="-8.7904770">
        <ele>97.5</ele>
        <time>2021-05-20T07:59:06Z</time>
      </trkpt>
      <trkpt lat="42.1804050" lon="-8.7904730">
        <ele>97.5</ele>
        <time>2021-05-20T07:59:07Z</time>
      </trkpt>
      <trkpt lat="42.1804060" lon="-8.7904690">
        <ele>97.5</ele>
        <time>2021-05-20T07:59:08Z</time>
      </trkpt>
      <trkpt lat="42.1804060" lon="-8.7904650">
        <ele>97.5</ele>
        <time>2021-05-20T07:59:09Z</time>
      </trkpt>
      <trkpt lat="42.1804070" lon="-8.7904610">
        <ele>97.5</ele>
        <time>2021-05-20T07:59:10Z</time>
      </trkpt>
      <trkpt lat="42.1804070" lon="-8.7904570">
        <ele>97.5</ele>
        <time>2021-05-20T07:59:11Z</time>
      </trkpt>
      <trkpt lat="42.1804070" lon="-8.7904530">
        <ele>97.5</ele>
        <time>2021-05-20T07:59:12Z</time>
      </trkpt>
      <trkpt lat="42.1804080" lon="-8.7904490">
        <ele>97.5</ele>
        <time>2021-05-20T07:59:13Z</time>
      </trkpt>
      <trkpt lat="42.1804080" lon="-8.7904450">
        <ele>97.5</ele>
        <time>2021-05-20T07:59:14Z</time>
      </trkpt>
      <trkpt lat="42.1804080" lon="-8.7904410">
        <ele>97.5</ele>
        <time>2021-05-20T07:59:15Z</time>
      </trkpt>
      <trkpt lat="42.1804090" lon="-8.7904370">
        <ele>97.5</ele>
        <time>2021-05-20T07:59:16Z</time>
      </trkpt>
      <trkpt lat="42.1804090" lon="-8.7904340">
        <ele>97.5</ele>
        <time>2021-05-20T07:59:17Z</time>
      </trkpt>
      <trkpt lat="42.1804090" lon="-8.7904300">
        <ele>97.5</ele>
        <time>2021-05-20T07:59:18Z</time>
      </trkpt>
      <trkpt lat="42.1804100" lon="-8.7904260">
        <ele>97.5</ele>
        <time>2021-05-20T07:59:19Z</time>
      </trkpt>
      <trkpt lat="42.1804100" lon="-8.7904220">
        <ele>97.5</ele>
        <time>2021-05-20T07:59:20Z</time>
      </trkpt>
      <trkpt lat="42.1804100" lon="-8.7904180">
        <ele>97.5</ele>
        <time>2021-05-20T07:59:21Z</time>
      </trkpt>
      <trkpt lat="42.1804110" lon="-8.7904140">
        <ele>97.5</ele>
        <time>2021-05-20T07:59:22Z</time>
      </trkpt>
      <trkpt lat="42.1804110" lon="-8.7904100">
        <ele>97.5</ele>
        <time>2021-05-20T07:59:23Z</time>
      </trkpt>
      <trkpt lat="42.1804110" lon="-8.7904060">
        <ele>97.5</ele>
        <time>2021-05-20T07:59:24Z</time>
      </trkpt>
      <trkpt lat="42.1804120" lon="-8.7904020">
        <ele>97.5</ele>
        <time>2021-05-20T07:59:25Z</time>
      </trkpt>
      <trkpt lat="42.1804120" lon="-8.7903980">
        <ele>97.5</ele>
        <time>2021-05-20T07:59:26Z</time>
      </trkpt>
      <trkpt lat="42.1804120" lon="-8.7903940">
        <ele>97.5</ele>
        <time>2021-05-20T07:59:27Z</time>
      </trkpt>
      <trkpt lat="42.1804130" lon="-8.7903900">
        <ele>97.5</ele>
        <time>2021-05-20T07:59:28Z</time>
      </trkpt>
      <trkpt lat="42.1804130" lon="-8.7903860">
        <ele>97.5</ele>
        <time>2021-05-20T07:59:29Z</time>
      </trkpt>
      <trkpt lat="42.1804130" lon="-8.7903820">
        <ele>97.5</ele>
        <time>2021-05-20T07:59:30Z</time>
      </trkpt>
      <trkpt lat="42.1804140" lon="-8.7903780">
        <ele>97.5</ele>
        <time>2021-05-20T07:59:31Z</time>
      </trkpt>
      <trkpt lat="42.1804140" lon="-8.7903740">
        <ele>97.5</ele>
        <time>2021-05-20T07:59:32Z</time>
      </trkpt>
      <trkpt lat="42.1804140" lon="-8.7903700">
        <ele>97.5</ele>
        <time>2021-05-20T07:59:33Z</time>
      </trkpt>
      <trkpt lat="42.1804150" lon="-8.7903660">
        <ele>97.5</ele>
        <time>2021-05-20T07:59:34Z</time>
      </trkpt>
      <trkpt lat="42.1804150" lon="-8.7903620">
        <ele>97.5</ele>
        <time>2021-05-20T07:59:35Z</time>
      </trkpt>
      <trkpt lat="42.1804150" lon="-8.7903580">
        <ele>97.5</ele>
        <time>2021-05-20T07:59:36Z</time>
      </trkpt>
      <trkpt lat="42.1804160" lon="-8.7903540">
        <ele>97.5</ele>
        <time>2021-05-20T07:59:37Z</time>
      </trkpt>
      <trkpt lat="42.1804160" lon="-8.7903500">
        <ele>97.5</ele>
        <time>2021-05-20T07:59:38Z</time>
      </trkpt>
      <trkpt lat="42.1804160" lon="-8.7903460">
        <ele>97.5</ele>
        <time>2021-05-20T07:59:39Z</time>
      </trkpt>
      <trkpt lat="42.1804170" lon="-8.7903420">
        <ele>97.4</ele>
        <time>2021-05-20T07:59:40Z</time>
      </trkpt>
      <trkpt lat="42.1804170" lon="-8.7903380">
        <ele>97.4</ele>
        <time>2021-05-20T07:59:41Z</time>
      </trkpt>
      <trkpt lat="42.1804170" lon="-8.7903340">
        <ele>97.4</ele>
        <time>2021-05-20T07:59:42Z</time>
      </trkpt>
      <trkpt lat="42.1804180" lon="-8.7903300">
        <ele>97.4</ele>
        <time>2021-05-20T07:59:43Z</time>
      </trkpt>
      <trkpt lat="42.1804180" lon="-8.7903260">
        <ele>97.4</ele>
        <time>2021-05-20T07:59:44Z</time>
      </trkpt>
      <trkpt lat="42.1804180" lon="-8.7903230">
        <ele>97.4</ele>
        <time>2021-05-20T07:59:45Z</time>
      </trkpt>
      <trkpt lat="42.1804190" lon="-8.7903190">
        <ele>97.4</ele>
        <time>2021-05-20T07:59:46Z</time>
      </trkpt>
      <trkpt lat="42.1804190" lon="-8.7903150">
        <ele>97.4</ele>
        <time>2021-05-20T07:59:47Z</time>
      </trkpt>
      <trkpt lat="42.1804190" lon="-8.7903110">
        <ele>97.4</ele>
        <time>2021-05-20T07:59:48Z</time>
      </trkpt>
      <trkpt lat="42.1804200" lon="-8.7903070">
        <ele>97.4</ele>
        <time>2021-05-20T07:59:49Z</time>
      </trkpt>
      <trkpt lat="42.1804200" lon="-8.7903030">
        <ele>97.4</ele>
        <time>2021-05-20T07:59:50Z</time>
      </trkpt>
      <trkpt lat="42.1804200" lon="-8.7902990">
        <ele>97.4</ele>
        <time>2021-05-20T07:59:51Z</time>
      </trkpt>
      <trkpt lat="42.1804210" lon="-8.7902950">
        <ele>97.4</ele>
        <time>2021-05-20T07:59:52Z</time>
      </trkpt>
      <trkpt lat="42.1804210" lon="-8.7902910">
        <ele>97.4</ele>
        <time>2021-05-20T07:59:53Z</time>
      </trkpt>
      <trkpt lat="42.1804210" lon="-8.7902870">
        <ele>97.4</ele>
        <time>2021-05-20T07:59:54Z</time>
      </trkpt>
      <trkpt lat="42.1804220" lon="-8.7902830">
        <ele>97.4</ele>
        <time>2021-05-20T07:59:55Z</time>
      </trkpt>
      <trkpt lat="42.1804220" lon="-8.7902790">
        <ele>97.4</ele>
        <time>2021-05-20T07:59:56Z</time>
      </trkpt>
      <trkpt lat="42.1804220" lon="-8.7902750">
        <ele>97.4</ele>
        <time>2021-05-20T07:59:57Z</time>
      </trkpt>
      <trkpt lat="42.1804230" lon="-8.7902710">
        <ele>97.4</ele>
        <time>2021-05-20T07:59:58Z</time>
      </trkpt>
      <trkpt lat="42.1804230" lon="-8.7902670">
        <ele>97.4</ele>
        <time>2021-05-20T07:59:59Z</time>
      </trkpt>
      <trkpt lat="42.1804250" lon="-8.7902570">
        <ele>97.4</ele>
        <time>2021-05-20T08:00:00Z</time>
      </trkpt>
      <trkpt lat="42.1804270" lon="-8.7902440">
        <ele>97.4</ele>
        <time>2021-05-20T08:00:01Z</time>
      </trkpt>
      <trkpt lat="42.1804320" lon="-8.7902310">
        <ele>97.4</ele>
        <time>2021-05-20T08:00:02Z</time>
      </trkpt>
      <trkpt lat="42.1804400" lon="-8.7902070">
        <ele>97.4</ele>
        <time>2021-05-20T08:00:03Z</time>
      </trkpt>
      <trkpt lat="42.1804400" lon="-8.7901950">
        <ele>97.4</ele>
        <time>2021-05-20T08:00:04Z</time>
      </trkpt>
      <trkpt lat="42.1804410" lon="-8.7901820">
        <ele>97.4</ele>
        <time>2021-05-20T08:00:05Z</time>
      </trkpt>
      <trkpt lat="42.1804360" lon="-8.7901640">
        <ele>97.4</ele>
        <time>2021-05-20T08:00:06Z</time>
      </trkpt>
      <trkpt lat="42.1804380" lon="-8.7901400">
        <ele>97.4</ele>
        <time>2021-05-20T08:00:07Z</time>
      </trkpt>
      <trkpt lat="42.1804350" lon="-8.7901210">
        <ele>97.4</ele>
        <time>2021-05-20T08:00:08Z</time>
      </trkpt>
      <trkpt lat="42.1804490" lon="-8.7901060">
        <ele>97.4</ele>
        <time>2021-05-20T08:00:09Z</time>
      </trkpt>
      <trkpt lat="42.1804720" lon="-8.7900850">
        <ele>97.4</ele>
        <time>2021-05-20T08:00:10Z</time>
      </trkpt>
      <trkpt lat="42.1804820" lon="-8.7900780">
        <ele>97.4</ele>
        <time>2021-05-20T08:00:11Z</time>
      </trkpt>
      <trkpt lat="42.1804940" lon="-8.7900570">
        <ele>97.4</ele>
        <time>2021-05-20T08:00:12Z</time>
      </trkpt>
      <trkpt lat="42.1805000" lon="-8.7900470">
        <ele>97.4</ele>
        <time>2021-05-20T08:00:13Z</time>
      </trkpt>
      <trkpt lat="42.1805080" lon="-8.7900370">
        <ele>97.4</ele>
        <time>2021-05-20T08:00:15Z</time>
      </trkpt>
      <trkpt lat="42.1805160" lon="-8.7900180">
        <ele>97.4</ele>
        <time>2021-05-20T08:00:16Z</time>
      </trkpt>
      <trkpt lat="42.1805280" lon="-8.7899890">
        <ele>97.4</ele>
        <time>2021-05-20T08:00:17Z</time>
      </trkpt>
      <trkpt lat="42.1805350" lon="-8.7899800">
        <ele>97.4</ele>
        <time>2021-05-20T08:00:18Z</time>
      </trkpt>
      <trkpt lat="42.1805420" lon="-8.7899700">
        <ele>97.4</ele>
        <time>2021-05-20T08:00:19Z</time>
      </trkpt>
      <trkpt lat="42.1805570" lon="-8.7899530">
        <ele>97.4</ele>
        <time>2021-05-20T08:00:20Z</time>
      </trkpt>
      <trkpt lat="42.1805570" lon="-8.7899440">
        <ele>97.4</ele>
        <time>2021-05-20T08:00:21Z</time>
      </trkpt>
      <trkpt lat="42.1805600" lon="-8.7899330">
        <ele>97.4</ele>
        <time>2021-05-20T08:00:22Z</time>
      </trkpt>
      <trkpt lat="42.1805700" lon="-8.7899100">
        <ele>97.4</ele>
        <time>2021-05-20T08:00:23Z</time>
      </trkpt>
      <trkpt lat="42.1805720" lon="-8.7898990">
        <ele>97.4</ele>
        <time>2021-05-20T08:00:24Z</time>
      </trkpt>
      <trkpt lat="42.1805750" lon="-8.7898870">
        <ele>97.4</ele>
        <time>2021-05-20T08:00:25Z</time>
      </trkpt>
      <trkpt lat="42.1805830" lon="-8.7898720">
        <ele>97.4</ele>
        <time>2021-05-20T08:00:26Z</time>
      </trkpt>
      <trkpt lat="42.1805850" lon="-8.7898670">
        <ele>97.4</ele>
        <time>2021-05-20T08:00:27Z</time>
      </trkpt>
      <trkpt lat="42.1805910" lon="-8.7898630">
        <ele>97.4</ele>
        <time>2021-05-20T08:00:28Z</time>
      </trkpt>
      <trkpt lat="42.1805980" lon="-8.7898520">
        <ele>97.4</ele>
        <time>2021-05-20T08:00:29Z</time>
      </trkpt>
      <trkpt lat="42.1806100" lon="-8.7898370">
        <ele>97.4</ele>
        <time>2021-05-20T08:00:30Z</time>
      </trkpt>
      <trkpt lat="42.1806150" lon="-8.7898300">
        <ele>97.4</ele>
        <time>2021-05-20T08:00:31Z</time>
      </trkpt>
      <trkpt lat="42.1806280" lon="-8.7898290">
        <ele>97.4</ele>
        <time>2021-05-20T08:00:32Z</time>
      </trkpt>
      <trkpt lat="42.1806350" lon="-8.7898310">
        <ele>97.4</ele>
        <time>2021-05-20T08:00:33Z</time>
      </trkpt>
      <trkpt lat="42.1806420" lon="-8.7898280">
        <ele>97.4</ele>
        <time>2021-05-20T08:00:34Z</time>
      </trkpt>
      <trkpt lat="42.1806490" lon="-8.7898240">
        <ele>97.4</ele>
        <time>2021-05-20T08:00:35Z</time>
      </trkpt>
      <trkpt lat="42.1806560" lon="-8.7898210">
        <ele>97.4</ele>
        <time>2021-05-20T08:00:36Z</time>
      </trkpt>
      <trkpt lat="42.1806630" lon="-8.7898180">
        <ele>97.4</ele>
        <time>2021-05-20T08:00:37Z</time>
      </trkpt>
      <trkpt lat="42.1806760" lon="-8.7898130">
        <ele>97.4</ele>
        <time>2021-05-20T08:00:38Z</time>
      </trkpt>
      <trkpt lat="42.1806850" lon="-8.7898080">
        <ele>97.4</ele>
        <time>2021-05-20T08:00:39Z</time>
      </trkpt>
      <trkpt lat="42.1806940" lon="-8.7898030">
        <ele>97.4</ele>
        <time>2021-05-20T08:00:40Z</time>
      </trkpt>
      <trkpt lat="42.1807060" lon="-8.7897950">
        <ele>97.4</ele>
        <time>2021-05-20T08:00:41Z</time>
      </trkpt>
      <trkpt lat="42.1807180" lon="-8.7897900">
        <ele>97.4</ele>
        <time>2021-05-20T08:00:42Z</time>
      </trkpt>
      <trkpt lat="42.1807210" lon="-8.7897880">
        <ele>97.4</ele>
        <time>2021-05-20T08:00:43Z</time>
      </trkpt>
      <trkpt lat="42.1807300" lon="-8.7897830">
        <ele>97.4</ele>
        <time>2021-05-20T08:00:44Z</time>
      </trkpt>
      <trkpt lat="42.1807340" lon="-8.7897780">
        <ele>97.4</ele>
        <time>2021-05-20T08:00:45Z</time>
      </trkpt>
      <trkpt lat="42.1807430" lon="-8.7897690">
        <ele>97.4</ele>
        <time>2021-05-20T08:00:46Z</time>
      </trkpt>
      <trkpt lat="42.1807540" lon="-8.7897690">
        <ele>97.4</ele>
        <time>2021-05-20T08:00:47Z</time>
      </trkpt>
      <trkpt lat="42.1807640" lon="-8.7897630">
        <ele>97.4</ele>
        <time>2021-05-20T08:00:48Z</time>
      </trkpt>
      <trkpt lat="42.1807760" lon="-8.7897580">
        <ele>97.4</ele>
        <time>2021-05-20T08:00:49Z</time>
      </trkpt>
      <trkpt lat="42.1807820" lon="-8.7897450">
        <ele>97.4</ele>
        <time>2021-05-20T08:00:50Z</time>
      </trkpt>
      <trkpt lat="42.1808000" lon="-8.7897370">
        <ele>97.4</ele>
        <time>2021-05-20T08:00:51Z</time>
      </trkpt>
      <trkpt lat="42.1808150" lon="-8.7897300">
        <ele>97.4</ele>
        <time>2021-05-20T08:00:52Z</time>
      </trkpt>
      <trkpt lat="42.1808330" lon="-8.7897160">
        <ele>97.4</ele>
        <time>2021-05-20T08:00:53Z</time>
      </trkpt>
      <trkpt lat="42.1808410" lon="-8.7897110">
        <ele>97.4</ele>
        <time>2021-05-20T08:00:54Z</time>
      </trkpt>
      <trkpt lat="42.1808490" lon="-8.7897070">
        <ele>97.4</ele>
        <time>2021-05-20T08:00:55Z</time>
      </trkpt>
      <trkpt lat="42.1808530" lon="-8.7897040">
        <ele>97.4</ele>
        <time>2021-05-20T08:00:56Z</time>
      </trkpt>
      <trkpt lat="42.1808620" lon="-8.7896980">
        <ele>97.4</ele>
        <time>2021-05-20T08:00:57Z</time>
      </trkpt>
      <trkpt lat="42.1808710" lon="-8.7896970">
        <ele>97.4</ele>
        <time>2021-05-20T08:00:58Z</time>
      </trkpt>
      <trkpt lat="42.1808790" lon="-8.7896920">
        <ele>97.4</ele>
        <time>2021-05-20T08:00:59Z</time>
      </trkpt>
      <trkpt lat="42.1808850" lon="-8.7896900">
        <ele>97.4</ele>
        <time>2021-05-20T08:01:00Z</time>
      </trkpt>
      <trkpt lat="42.1808890" lon="-8.7896820">
        <ele>97.4</ele>
        <time>2021-05-20T08:01:01Z</time>
      </trkpt>
      <trkpt lat="42.1809020" lon="-8.7896740">
        <ele>97.4</ele>
        <time>2021-05-20T08:01:02Z</time>
      </trkpt>
      <trkpt lat="42.1809050" lon="-8.7896720">
        <ele>97.4</ele>
        <time>2021-05-20T08:01:03Z</time>
      </trkpt>
      <trkpt lat="42.1809330" lon="-8.7896630">
        <ele>97.4</ele>
        <time>2021-05-20T08:01:04Z</time>
      </trkpt>
      <trkpt lat="42.1809430" lon="-8.7896580">
        <ele>97.4</ele>
        <time>2021-05-20T08:01:05Z</time>
      </trkpt>
      <trkpt lat="42.1809520" lon="-8.7896540">
        <ele>97.4</ele>
        <time>2021-05-20T08:01:06Z</time>
      </trkpt>
      <trkpt lat="42.1809610" lon="-8.7896510">
        <ele>97.4</ele>
        <time>2021-05-20T08:01:07Z</time>
      </trkpt>
      <trkpt lat="42.1809600" lon="-8.7896470">
        <ele>97.4</ele>
        <time>2021-05-20T08:01:08Z</time>
      </trkpt>
      <trkpt lat="42.1809790" lon="-8.7896330">
        <ele>97.4</ele>
        <time>2021-05-20T08:01:09Z</time>
      </trkpt>
      <trkpt lat="42.1809930" lon="-8.7896270">
        <ele>97.4</ele>
        <time>2021-05-20T08:01:10Z</time>
      </trkpt>
      <trkpt lat="42.1810080" lon="-8.7896160">
        <ele>97.4</ele>
        <time>2021-05-20T08:01:11Z</time>
      </trkpt>
      <trkpt lat="42.1810220" lon="-8.7896040">
        <ele>97.3</ele>
        <time>2021-05-20T08:01:12Z</time>
      </trkpt>
      <trkpt lat="42.1810270" lon="-8.7895990">
        <ele>97.3</ele>
        <time>2021-05-20T08:01:13Z</time>
      </trkpt>
      <trkpt lat="42.1810350" lon="-8.7895990">
        <ele>97.3</ele>
        <time>2021-05-20T08:01:14Z</time>
      </trkpt>
      <trkpt lat="42.1810530" lon="-8.7895890">
        <ele>97.3</ele>
        <time>2021-05-20T08:01:15Z</time>
      </trkpt>
      <trkpt lat="42.1810620" lon="-8.7895840">
        <ele>97.3</ele>
        <time>2021-05-20T08:01:16Z</time>
      </trkpt>
      <trkpt lat="42.1810710" lon="-8.7895800">
        <ele>97.3</ele>
        <time>2021-05-20T08:01:17Z</time>
      </trkpt>
      <trkpt lat="42.1810910" lon="-8.7895740">
        <ele>97.3</ele>
        <time>2021-05-20T08:01:18Z</time>
      </trkpt>
      <trkpt lat="42.1810990" lon="-8.7895690">
        <ele>97.3</ele>
        <time>2021-05-20T08:01:19Z</time>
      </trkpt>
      <trkpt lat="42.1811080" lon="-8.7895650">
        <ele>97.2</ele>
        <time>2021-05-20T08:01:20Z</time>
      </trkpt>
      <trkpt lat="42.1811200" lon="-8.7895620">
        <ele>97.2</ele>
        <time>2021-05-20T08:01:21Z</time>
      </trkpt>
      <trkpt lat="42.1811300" lon="-8.7895620">
        <ele>97.2</ele>
        <time>2021-05-20T08:01:22Z</time>
      </trkpt>
      <trkpt lat="42.1811350" lon="-8.7895630">
        <ele>97.2</ele>
        <time>2021-05-20T08:01:23Z</time>
      </trkpt>
      <trkpt lat="42.1811530" lon="-8.7895510">
        <ele>97.2</ele>
        <time>2021-05-20T08:01:24Z</time>
      </trkpt>
      <trkpt lat="42.1811620" lon="-8.7895470">
        <ele>97.2</ele>
        <time>2021-05-20T08:01:25Z</time>
      </trkpt>
      <trkpt lat="42.1811700" lon="-8.7895420">
        <ele>97.2</ele>
        <time>2021-05-20T08:01:26Z</time>
      </trkpt>
      <trkpt lat="42.1811790" lon="-8.7895390">
        <ele>97.2</ele>
        <time>2021-05-20T08:01:27Z</time>
      </trkpt>
      <trkpt lat="42.1811890" lon="-8.7895320">
        <ele>97.1</ele>
        <time>2021-05-20T08:01:28Z</time>
      </trkpt>
      <trkpt lat="42.1811950" lon="-8.7895260">
        <ele>97.1</ele>
        <time>2021-05-20T08:01:29Z</time>
      </trkpt>
      <trkpt lat="42.1812040" lon="-8.7895210">
        <ele>97.1</ele>
        <time>2021-05-20T08:01:30Z</time>
      </trkpt>
      <trkpt lat="42.1812200" lon="-8.7895100">
        <ele>97.1</ele>
        <time>2021-05-20T08:01:31Z</time>
      </trkpt>
      <trkpt lat="42.1812330" lon="-8.7895020">
        <ele>97.1</ele>
        <time>2021-05-20T08:01:32Z</time>
      </trkpt>
      <trkpt lat="42.1812420" lon="-8.7894930">
        <ele>97.0</ele>
        <time>2021-05-20T08:01:33Z</time>
      </trkpt>
      <trkpt lat="42.1812460" lon="-8.7894840">
        <ele>97.0</ele>
        <time>2021-05-20T08:01:34Z</time>
      </trkpt>
      <trkpt lat="42.1812610" lon="-8.7894630">
        <ele>97.0</ele>
        <time>2021-05-20T08:01:35Z</time>
      </trkpt>
      <trkpt lat="42.1812680" lon="-8.7894550">
        <ele>97.0</ele>
        <time>2021-05-20T08:01:36Z</time>
      </trkpt>
      <trkpt lat="42.1812750" lon="-8.7894470">
        <ele>97.0</ele>
        <time>2021-05-20T08:01:37Z</time>
      </trkpt>
      <trkpt lat="42.1812830" lon="-8.7894420">
        <ele>96.9</ele>
        <time>2021-05-20T08:01:38Z</time>
      </trkpt>
      <trkpt lat="42.1812890" lon="-8.7894300">
        <ele>96.9</ele>
        <time>2021-05-20T08:01:39Z</time>
      </trkpt>
      <trkpt lat="42.1812990" lon="-8.7894160">
        <ele>96.9</ele>
        <time>2021-05-20T08:01:40Z</time>
      </trkpt>
      <trkpt lat="42.1813090" lon="-8.7894040">
        <ele>96.9</ele>
        <time>2021-05-20T08:01:41Z</time>
      </trkpt>
      <trkpt lat="42.1813200" lon="-8.7893960">
        <ele>96.8</ele>
        <time>2021-05-20T08:01:42Z</time>
      </trkpt>
      <trkpt lat="42.1813270" lon="-8.7893860">
        <ele>96.8</ele>
        <time>2021-05-20T08:01:43Z</time>
      </trkpt>
      <trkpt lat="42.1813320" lon="-8.7893750">
        <ele>96.8</ele>
        <time>2021-05-20T08:01:44Z</time>
      </trkpt>
      <trkpt lat="42.1813370" lon="-8.7893650">
        <ele>96.8</ele>
        <time>2021-05-20T08:01:45Z</time>
      </trkpt>
      <trkpt lat="42.1813470" lon="-8.7893500">
        <ele>96.8</ele>
        <time>2021-05-20T08:01:46Z</time>
      </trkpt>
      <trkpt lat="42.1813590" lon="-8.7893320">
        <ele>96.7</ele>
        <time>2021-05-20T08:01:47Z</time>
      </trkpt>
      <trkpt lat="42.1813640" lon="-8.7893230">
        <ele>96.7</ele>
        <time>2021-05-20T08:01:48Z</time>
      </trkpt>
      <trkpt lat="42.1813680" lon="-8.7893150">
        <ele>96.7</ele>
        <time>2021-05-20T08:01:49Z</time>
      </trkpt>
      <trkpt lat="42.1813730" lon="-8.7893060">
        <ele>96.7</ele>
        <time>2021-05-20T08:01:50Z</time>
      </trkpt>
      <trkpt lat="42.1813850" lon="-8.7892840">
        <ele>96.6</ele>
        <time>2021-05-20T08:01:51Z</time>
      </trkpt>
      <trkpt lat="42.1813900" lon="-8.7892760">
        <ele>96.6</ele>
        <time>2021-05-20T08:01:52Z</time>
      </trkpt>
      <trkpt lat="42.1813940" lon="-8.7892680">
        <ele>96.6</ele>
        <time>2021-05-20T08:01:53Z</time>
      </trkpt>
      <trkpt lat="42.1813980" lon="-8.7892600">
        <ele>96.6</ele>
        <time>2021-05-20T08:01:54Z</time>
      </trkpt>
      <trkpt lat="42.1814020" lon="-8.7892440">
        <ele>96.6</ele>
        <time>2021-05-20T08:01:55Z</time>
      </trkpt>
      <trkpt lat="42.1814070" lon="-8.7892290">
        <ele>96.5</ele>
        <time>2021-05-20T08:01:56Z</time>
      </trkpt>
      <trkpt lat="42.1814140" lon="-8.7892160">
        <ele>96.5</ele>
        <time>2021-05-20T08:01:57Z</time>
      </trkpt>
      <trkpt lat="42.1813990" lon="-8.7891800">
        <ele>96.5</ele>
        <time>2021-05-20T08:01:58Z</time>
      </trkpt>
      <trkpt lat="42.1813920" lon="-8.7891530">
        <ele>96.4</ele>
        <time>2021-05-20T08:01:59Z</time>
      </trkpt>
      <trkpt lat="42.1813920" lon="-8.7891360">
        <ele>96.4</ele>
        <time>2021-05-20T08:02:00Z</time>
      </trkpt>
      <trkpt lat="42.1813920" lon="-8.7891200">
        <ele>96.4</ele>
        <time>2021-05-20T08:02:01Z</time>
      </trkpt>
      <trkpt lat="42.1813970" lon="-8.7890980">
        <ele>96.4</ele>
        <time>2021-05-20T08:02:02Z</time>
      </trkpt>
      <trkpt lat="42.1813980" lon="-8.7890830">
        <ele>96.3</ele>
        <time>2021-05-20T08:02:03Z</time>
      </trkpt>
      <trkpt lat="42.1813970" lon="-8.7890660">
        <ele>96.3</ele>
        <time>2021-05-20T08:02:04Z</time>
      </trkpt>
      <trkpt lat="42.1814000" lon="-8.7890500">
        <ele>96.3</ele>
        <time>2021-05-20T08:02:05Z</time>
      </trkpt>
      <trkpt lat="42.1814000" lon="-8.7890340">
        <ele>96.3</ele>
        <time>2021-05-20T08:02:06Z</time>
      </trkpt>
      <trkpt lat="42.1813980" lon="-8.7890060">
        <ele>96.2</ele>
        <time>2021-05-20T08:02:07Z</time>
      </trkpt>
      <trkpt lat="42.1813980" lon="-8.7889940">
        <ele>96.2</ele>
        <time>2021-05-20T08:02:08Z</time>
      </trkpt>
      <trkpt lat="42.1813990" lon="-8.7889810">
        <ele>96.2</ele>
        <time>2021-05-20T08:02:09Z</time>
      </trkpt>
      <trkpt lat="42.1813960" lon="-8.7889660">
        <ele>96.2</ele>
        <time>2021-05-20T08:02:10Z</time>
      </trkpt>
      <trkpt lat="42.1813950" lon="-8.7889560">
        <ele>96.2</ele>
        <time>2021-05-20T08:02:11Z</time>
      </trkpt>
      <trkpt lat="42.1813940" lon="-8.7889430">
        <ele>96.1</ele>
        <time>2021-05-20T08:02:12Z</time>
      </trkpt>
      <trkpt lat="42.1813920" lon="-8.7889290">
        <ele>96.1</ele>
        <time>2021-05-20T08:02:13Z</time>
      </trkpt>
      <trkpt lat="42.1813890" lon="-8.7889170">
        <ele>96.1</ele>
        <time>2021-05-20T08:02:14Z</time>
      </trkpt>
      <trkpt lat="42.1813900" lon="-8.7889050">
        <ele>96.1</ele>
        <time>2021-05-20T08:02:15Z</time>
      </trkpt>
      <trkpt lat="42.1813960" lon="-8.7888850">
        <ele>96.1</ele>
        <time>2021-05-20T08:02:16Z</time>
      </trkpt>
      <trkpt lat="42.1813910" lon="-8.7888640">
        <ele>96.0</ele>
        <time>2021-05-20T08:02:17Z</time>
      </trkpt>
      <trkpt lat="42.1813960" lon="-8.7888420">
        <ele>96.0</ele>
        <time>2021-05-20T08:02:18Z</time>
      </trkpt>
      <trkpt lat="42.1814000" lon="-8.7888280">
        <ele>96.0</ele>
        <time>2021-05-20T08:02:19Z</time>
      </trkpt>
      <trkpt lat="42.1814000" lon="-8.7888140">
        <ele>96.0</ele>
        <time>2021-05-20T08:02:20Z</time>
      </trkpt>
      <trkpt lat="42.1813990" lon="-8.7888070">
        <ele>95.9</ele>
        <time>2021-05-20T08:02:21Z</time>
      </trkpt>
      <trkpt lat="42.1813930" lon="-8.7887930">
        <ele>95.9</ele>
        <time>2021-05-20T08:02:22Z</time>
      </trkpt>
      <trkpt lat="42.1813830" lon="-8.7887780">
        <ele>95.9</ele>
        <time>2021-05-20T08:02:23Z</time>
      </trkpt>
      <trkpt lat="42.1813760" lon="-8.7887560">
        <ele>95.9</ele>
        <time>2021-05-20T08:02:24Z</time>
      </trkpt>
      <trkpt lat="42.1813780" lon="-8.7887430">
        <ele>95.8</ele>
        <time>2021-05-20T08:02:25Z</time>
      </trkpt>
      <trkpt lat="42.1813830" lon="-8.7887260">
        <ele>95.8</ele>
        <time>2021-05-20T08:02:26Z</time>
      </trkpt>
      <trkpt lat="42.1813810" lon="-8.7887140">
        <ele>95.8</ele>
        <time>2021-05-20T08:02:27Z</time>
      </trkpt>
      <trkpt lat="42.1813800" lon="-8.7886800">
        <ele>95.7</ele>
        <time>2021-05-20T08:02:28Z</time>
      </trkpt>
      <trkpt lat="42.1813820" lon="-8.7886630">
        <ele>95.7</ele>
        <time>2021-05-20T08:02:29Z</time>
      </trkpt>
      <trkpt lat="42.1813760" lon="-8.7886420">
        <ele>95.7</ele>
        <time>2021-05-20T08:02:30Z</time>
      </trkpt>
      <trkpt lat="42.1813690" lon="-8.7886360">
        <ele>95.6</ele>
        <time>2021-05-20T08:02:31Z</time>
      </trkpt>
      <trkpt lat="42.1813620" lon="-8.7886220">
        <ele>95.6</ele>
        <time>2021-05-20T08:02:32Z</time>
      </trkpt>
      <trkpt lat="42.1813480" lon="-8.7885990">
        <ele>95.5</ele>
        <time>2021-05-20T08:02:33Z</time>
      </trkpt>
      <trkpt lat="42.1813430" lon="-8.7885850">
        <ele>95.5</ele>
        <time>2021-05-20T08:02:34Z</time>
      </trkpt>
      <trkpt lat="42.1813430" lon="-8.7885700">
        <ele>95.5</ele>
        <time>2021-05-20T08:02:35Z</time>
      </trkpt>
      <trkpt lat="42.1813410" lon="-8.7885560">
        <ele>95.4</ele>
        <time>2021-05-20T08:02:36Z</time>
      </trkpt>
      <trkpt lat="42.1813330" lon="-8.7885410">
        <ele>95.4</ele>
        <time>2021-05-20T08:02:38Z</time>
      </trkpt>
      <trkpt lat="42.1813310" lon="-8.7885290">
        <ele>95.4</ele>
        <time>2021-05-20T08:02:39Z</time>
      </trkpt>
      <trkpt lat="42.1813280" lon="-8.7885100">
        <ele>95.3</ele>
        <time>2021-05-20T08:02:40Z</time>
      </trkpt>
      <trkpt lat="42.1813270" lon="-8.7884970">
        <ele>95.3</ele>
        <time>2021-05-20T08:02:41Z</time>
      </trkpt>
      <trkpt lat="42.1813250" lon="-8.7884750">
        <ele>95.3</ele>
        <time>2021-05-20T08:02:42Z</time>
      </trkpt>
      <trkpt lat="42.1813170" lon="-8.7884670">
        <ele>95.2</ele>
        <time>2021-05-20T08:02:43Z</time>
      </trkpt>
      <trkpt lat="42.1813250" lon="-8.7884510">
        <ele>95.2</ele>
        <time>2021-05-20T08:02:44Z</time>
      </trkpt>
      <trkpt lat="42.1813220" lon="-8.7884440">
        <ele>95.2</ele>
        <time>2021-05-20T08:02:45Z</time>
      </trkpt>
      <trkpt lat="42.1813200" lon="-8.7884210">
        <ele>95.1</ele>
        <time>2021-05-20T08:02:46Z</time>
      </trkpt>
      <trkpt lat="42.1813200" lon="-8.7884050">
        <ele>95.1</ele>
        <time>2021-05-20T08:02:47Z</time>
      </trkpt>
      <trkpt lat="42.1813240" lon="-8.7883830">
        <ele>95.0</ele>
        <time>2021-05-20T08:02:48Z</time>
      </trkpt>
      <trkpt lat="42.1813280" lon="-8.7883620">
        <ele>95.0</ele>
        <time>2021-05-20T08:02:49Z</time>
      </trkpt>
      <trkpt lat="42.1813380" lon="-8.7883510">
        <ele>94.9</ele>
        <time>2021-05-20T08:02:50Z</time>
      </trkpt>
      <trkpt lat="42.1813460" lon="-8.7883410">
        <ele>94.9</ele>
        <time>2021-05-20T08:02:51Z</time>
      </trkpt>
      <trkpt lat="42.1813530" lon="-8.7883370">
        <ele>94.8</ele>
        <time>2021-05-20T08:02:52Z</time>
      </trkpt>
      <trkpt lat="42.1813650" lon="-8.7883330">
        <ele>94.8</ele>
        <time>2021-05-20T08:02:53Z</time>
      </trkpt>
      <trkpt lat="42.1813720" lon="-8.7883060">
        <ele>94.7</ele>
        <time>2021-05-20T08:02:54Z</time>
      </trkpt>
      <trkpt lat="42.1813820" lon="-8.7882920">
        <ele>94.7</ele>
        <time>2021-05-20T08:02:55Z</time>
      </trkpt>
      <trkpt lat="42.1813900" lon="-8.7882830">
        <ele>94.6</ele>
        <time>2021-05-20T08:02:56Z</time>
      </trkpt>
      <trkpt lat="42.1813980" lon="-8.7882780">
        <ele>94.6</ele>
        <time>2021-05-20T08:02:57Z</time>
      </trkpt>
      <trkpt lat="42.1813980" lon="-8.7882670">
        <ele>94.6</ele>
        <time>2021-05-20T08:02:58Z</time>
      </trkpt>
      <trkpt lat="42.1814090" lon="-8.7882560">
        <ele>94.5</ele>
        <time>2021-05-20T08:02:59Z</time>
      </trkpt>
      <trkpt lat="42.1814070" lon="-8.7882480">
        <ele>94.5</ele>
        <time>2021-05-20T08:03:00Z</time>
      </trkpt>
      <trkpt lat="42.1814150" lon="-8.7882430">
        <ele>94.4</ele>
        <time>2021-05-20T08:03:01Z</time>
      </trkpt>
      <trkpt lat="42.1814250" lon="-8.7882360">
        <ele>94.4</ele>
        <time>2021-05-20T08:03:02Z</time>
      </trkpt>
      <trkpt lat="42.1814360" lon="-8.7882280">
        <ele>94.3</ele>
        <time>2021-05-20T08:03:03Z</time>
      </trkpt>
      <trkpt lat="42.1814450" lon="-8.7882210">
        <ele>94.3</ele>
        <time>2021-05-20T08:03:04Z</time>
      </trkpt>
      <trkpt lat="42.1814500" lon="-8.7882240">
        <ele>94.3</ele>
        <time>2021-05-20T08:03:05Z</time>
      </trkpt>
      <trkpt lat="42.1814500" lon="-8.7882140">
        <ele>94.2</ele>
        <time>2021-05-20T08:03:06Z</time>
      </trkpt>
      <trkpt lat="42.1814590" lon="-8.7882040">
        <ele>94.2</ele>
        <time>2021-05-20T08:03:07Z</time>
      </trkpt>
      <trkpt lat="42.1814610" lon="-8.7881950">
        <ele>94.2</ele>
        <time>2021-05-20T08:03:08Z</time>
      </trkpt>
      <trkpt lat="42.1814710" lon="-8.7881880">
        <ele>94.1</ele>
        <time>2021-05-20T08:03:09Z</time>
      </trkpt>
      <trkpt lat="42.1814790" lon="-8.7881800">
        <ele>94.1</ele>
        <time>2021-05-20T08:03:10Z</time>
      </trkpt>
      <trkpt lat="42.1814930" lon="-8.7881720">
        <ele>94.0</ele>
        <time>2021-05-20T08:03:11Z</time>
      </trkpt>
      <trkpt lat="42.1814950" lon="-8.7881610">
        <ele>94.0</ele>
        <time>2021-05-20T08:03:12Z</time>
      </trkpt>
      <trkpt lat="42.1815050" lon="-8.7881670">
        <ele>93.9</ele>
        <time>2021-05-20T08:03:13Z</time>
      </trkpt>
      <trkpt lat="42.1815020" lon="-8.7881590">
        <ele>93.9</ele>
        <time>2021-05-20T08:03:14Z</time>
      </trkpt>
      <trkpt lat="42.1815240" lon="-8.7881550">
        <ele>93.8</ele>
        <time>2021-05-20T08:03:15Z</time>
      </trkpt>
      <trkpt lat="42.1815200" lon="-8.7881530">
        <ele>93.8</ele>
        <time>2021-05-20T08:03:16Z</time>
      </trkpt>
      <trkpt lat="42.1815410" lon="-8.7881480">
        <ele>93.7</ele>
        <time>2021-05-20T08:03:17Z</time>
      </trkpt>
      <trkpt lat="42.1815470" lon="-8.7881450">
        <ele>93.6</ele>
        <time>2021-05-20T08:03:18Z</time>
      </trkpt>
      <trkpt lat="42.1815400" lon="-8.7881430">
        <ele>93.6</ele>
        <time>2021-05-20T08:03:19Z</time>
      </trkpt>
      <trkpt lat="42.1815500" lon="-8.7881320">
        <ele>93.6</ele>
        <time>2021-05-20T08:03:20Z</time>
      </trkpt>
      <trkpt lat="42.1815500" lon="-8.7881270">
        <ele>93.5</ele>
        <time>2021-05-20T08:03:21Z</time>
      </trkpt>
      <trkpt lat="42.1815750" lon="-8.7881240">
        <ele>93.4</ele>
        <time>2021-05-20T08:03:22Z</time>
      </trkpt>
      <trkpt lat="42.1815830" lon="-8.7881130">
        <ele>93.3</ele>
        <time>2021-05-20T08:03:23Z</time>
      </trkpt>
      <trkpt lat="42.1815830" lon="-8.7881010">
        <ele>93.3</ele>
        <time>2021-05-20T08:03:24Z</time>
      </trkpt>
      <trkpt lat="42.1815950" lon="-8.7880810">
        <ele>93.2</ele>
        <time>2021-05-20T08:03:25Z</time>
      </trkpt>
      <trkpt lat="42.1816010" lon="-8.7880800">
        <ele>93.2</ele>
        <time>2021-05-20T08:03:26Z</time>
      </trkpt>
      <trkpt lat="42.1816110" lon="-8.7880870">
        <ele>93.1</ele>
        <time>2021-05-20T08:03:27Z</time>
      </trkpt>
      <trkpt lat="42.1816240" lon="-8.7880910">
        <ele>93.0</ele>
        <time>2021-05-20T08:03:28Z</time>
      </trkpt>
      <trkpt lat="42.1816400" lon="-8.7880950">
        <ele>93.0</ele>
        <time>2021-05-20T08:03:29Z</time>
      </trkpt>
      <trkpt lat="42.1816480" lon="-8.7880970">
        <ele>92.9</ele>
        <time>2021-05-20T08:03:30Z</time>
      </trkpt>
      <trkpt lat="42.1816570" lon="-8.7881000">
        <ele>92.9</ele>
        <time>2021-05-20T08:03:31Z</time>
      </trkpt>
      <trkpt lat="42.1816650" lon="-8.7881020">
        <ele>92.8</ele>
        <time>2021-05-20T08:03:32Z</time>
      </trkpt>
      <trkpt lat="42.1816740" lon="-8.7881040">
        <ele>92.8</ele>
        <time>2021-05-20T08:03:33Z</time>
      </trkpt>
      <trkpt lat="42.1816790" lon="-8.7881030">
        <ele>92.8</ele>
        <time>2021-05-20T08:03:34Z</time>
      </trkpt>
      <trkpt lat="42.1816830" lon="-8.7881030">
        <ele>92.7</ele>
        <time>2021-05-20T08:03:35Z</time>
      </trkpt>
      <trkpt lat="42.1816920" lon="-8.7881030">
        <ele>92.7</ele>
        <time>2021-05-20T08:03:36Z</time>
      </trkpt>
      <trkpt lat="42.1817040" lon="-8.7880920">
        <ele>92.6</ele>
        <time>2021-05-20T08:03:37Z</time>
      </trkpt>
      <trkpt lat="42.1817220" lon="-8.7880930">
        <ele>92.5</ele>
        <time>2021-05-20T08:03:38Z</time>
      </trkpt>
      <trkpt lat="42.1817290" lon="-8.7880910">
        <ele>92.5</ele>
        <time>2021-05-20T08:03:39Z</time>
      </trkpt>
      <trkpt lat="42.1817360" lon="-8.7880880">
        <ele>92.4</ele>
        <time>2021-05-20T08:03:40Z</time>
      </trkpt>
      <trkpt lat="42.1817430" lon="-8.7880860">
        <ele>92.4</ele>
        <time>2021-05-20T08:03:41Z</time>
      </trkpt>
      <trkpt lat="42.1817630" lon="-8.7880730">
        <ele>92.3</ele>
        <time>2021-05-20T08:03:42Z</time>
      </trkpt>
      <trkpt lat="42.1817720" lon="-8.7880710">
        <ele>92.2</ele>
        <time>2021-05-20T08:03:43Z</time>
      </trkpt>
      <trkpt lat="42.1817800" lon="-8.7880680">
        <ele>92.2</ele>
        <time>2021-05-20T08:03:44Z</time>
      </trkpt>
      <trkpt lat="42.1817820" lon="-8.7880610">
        <ele>92.1</ele>
        <time>2021-05-20T08:03:45Z</time>
      </trkpt>
      <trkpt lat="42.1817730" lon="-8.7880530">
        <ele>92.1</ele>
        <time>2021-05-20T08:03:46Z</time>
      </trkpt>
      <trkpt lat="42.1817770" lon="-8.7880370">
        <ele>92.0</ele>
        <time>2021-05-20T08:03:47Z</time>
      </trkpt>
      <trkpt lat="42.1817810" lon="-8.7880290">
        <ele>91.9</ele>
        <time>2021-05-20T08:03:48Z</time>
      </trkpt>
      <trkpt lat="42.1818020" lon="-8.7879960">
        <ele>91.7</ele>
        <time>2021-05-20T08:03:49Z</time>
      </trkpt>
      <trkpt lat="42.1818060" lon="-8.7879880">
        <ele>91.7</ele>
        <time>2021-05-20T08:03:50Z</time>
      </trkpt>
      <trkpt lat="42.1818140" lon="-8.7879840">
        <ele>91.6</ele>
        <time>2021-05-20T08:03:51Z</time>
      </trkpt>
      <trkpt lat="42.1818180" lon="-8.7879790">
        <ele>91.6</ele>
        <time>2021-05-20T08:03:52Z</time>
      </trkpt>
      <trkpt lat="42.1818170" lon="-8.7879810">
        <ele>91.6</ele>
        <time>2021-05-20T08:03:53Z</time>
      </trkpt>
      <trkpt lat="42.1818250" lon="-8.7879860">
        <ele>91.5</ele>
        <time>2021-05-20T08:03:54Z</time>
      </trkpt>
      <trkpt lat="42.1818330" lon="-8.7879890">
        <ele>91.5</ele>
        <time>2021-05-20T08:03:55Z</time>
      </trkpt>
      <trkpt lat="42.1818330" lon="-8.7879880">
        <ele>91.5</ele>
        <time>2021-05-20T08:03:56Z</time>
      </trkpt>
      <trkpt lat="42.1818400" lon="-8.7879860">
        <ele>91.4</ele>
        <time>2021-05-20T08:03:57Z</time>
      </trkpt>
      <trkpt lat="42.1818450" lon="-8.7879820">
        <ele>91.4</ele>
        <time>2021-05-20T08:03:58Z</time>
      </trkpt>
      <trkpt lat="42.1818440" lon="-8.7879670">
        <ele>91.3</ele>
        <time>2021-05-20T08:03:59Z</time>
      </trkpt>
      <trkpt lat="42.1818480" lon="-8.7879510">
        <ele>91.2</ele>
        <time>2021-05-20T08:04:00Z</time>
      </trkpt>
      <trkpt lat="42.1818450" lon="-8.7879280">
        <ele>91.1</ele>
        <time>2021-05-20T08:04:01Z</time>
      </trkpt>
      <trkpt lat="42.1818410" lon="-8.7879200">
        <ele>91.0</ele>
        <time>2021-05-20T08:04:02Z</time>
      </trkpt>
      <trkpt lat="42.1818360" lon="-8.7879130">
        <ele>91.0</ele>
        <time>2021-05-20T08:04:03Z</time>
      </trkpt>
      <trkpt lat="42.1818310" lon="-8.7879050">
        <ele>90.9</ele>
        <time>2021-05-20T08:04:04Z</time>
      </trkpt>
      <trkpt lat="42.1818370" lon="-8.7879070">
        <ele>90.9</ele>
        <time>2021-05-20T08:04:05Z</time>
      </trkpt>
      <trkpt lat="42.1818400" lon="-8.7879050">
        <ele>90.8</ele>
        <time>2021-05-20T08:04:06Z</time>
      </trkpt>
      <trkpt lat="42.1818380" lon="-8.7879060">
        <ele>90.8</ele>
        <time>2021-05-20T08:04:07Z</time>
      </trkpt>
      <trkpt lat="42.1818390" lon="-8.7879210">
        <ele>90.7</ele>
        <time>2021-05-20T08:04:08Z</time>
      </trkpt>
      <trkpt lat="42.1818440" lon="-8.7879300">
        <ele>90.7</ele>
        <time>2021-05-20T08:04:09Z</time>
      </trkpt>
      <trkpt lat="42.1818460" lon="-8.7879380">
        <ele>90.6</ele>
        <time>2021-05-20T08:04:10Z</time>
      </trkpt>
      <trkpt lat="42.1818370" lon="-8.7879610">
        <ele>90.4</ele>
        <time>2021-05-20T08:04:11Z</time>
      </trkpt>
      <trkpt lat="42.1818340" lon="-8.7879740">
        <ele>90.3</ele>
        <time>2021-05-20T08:04:12Z</time>
      </trkpt>
      <trkpt lat="42.1818300" lon="-8.7879860">
        <ele>90.3</ele>
        <time>2021-05-20T08:04:13Z</time>
      </trkpt>
      <trkpt lat="42.1818000" lon="-8.7880030">
        <ele>90.0</ele>
        <time>2021-05-20T08:04:15Z</time>
      </trkpt>
      <trkpt lat="42.1817960" lon="-8.7880130">
        <ele>89.9</ele>
        <time>2021-05-20T08:04:16Z</time>
      </trkpt>
      <trkpt lat="42.1817930" lon="-8.7880190">
        <ele>89.8</ele>
        <time>2021-05-20T08:04:17Z</time>
      </trkpt>
      <trkpt lat="42.1817890" lon="-8.7880220">
        <ele>89.8</ele>
        <time>2021-05-20T08:04:18Z</time>
      </trkpt>
      <trkpt lat="42.1817810" lon="-8.7880240">
        <ele>89.7</ele>
        <time>2021-05-20T08:04:20Z</time>
      </trkpt>
      <trkpt lat="42.1817750" lon="-8.7880220">
        <ele>89.7</ele>
        <time>2021-05-20T08:04:21Z</time>
      </trkpt>
      <trkpt lat="42.1817690" lon="-8.7880320">
        <ele>89.6</ele>
        <time>2021-05-20T08:04:23Z</time>
      </trkpt>
      <trkpt lat="42.1817640" lon="-8.7880370">
        <ele>89.5</ele>
        <time>2021-05-20T08:04:24Z</time>
      </trkpt>
      <trkpt lat="42.1817600" lon="-8.7880420">
        <ele>89.5</ele>
        <time>2021-05-20T08:04:25Z</time>
      </trkpt>
      <trkpt lat="42.1817550" lon="-8.7880460">
        <ele>89.4</ele>
        <time>2021-05-20T08:04:26Z</time>
      </trkpt>
      <trkpt lat="42.1817510" lon="-8.7880510">
        <ele>89.4</ele>
        <time>2021-05-20T08:04:27Z</time>
      </trkpt>
      <trkpt lat="42.1817460" lon="-8.7880560">
        <ele>89.3</ele>
        <time>2021-05-20T08:04:28Z</time>
      </trkpt>
      <trkpt lat="42.1817440" lon="-8.7880650">
        <ele>89.3</ele>
        <time>2021-05-20T08:04:29Z</time>
      </trkpt>
      <trkpt lat="42.1817390" lon="-8.7880760">
        <ele>89.2</ele>
        <time>2021-05-20T08:04:30Z</time>
      </trkpt>
      <trkpt lat="42.1817470" lon="-8.7880780">
        <ele>89.1</ele>
        <time>2021-05-20T08:04:31Z</time>
      </trkpt>
      <trkpt lat="42.1817490" lon="-8.7880800">
        <ele>89.0</ele>
        <time>2021-05-20T08:04:32Z</time>
      </trkpt>
      <trkpt lat="42.1817410" lon="-8.7880710">
        <ele>88.9</ele>
        <time>2021-05-20T08:04:33Z</time>
      </trkpt>
      <trkpt lat="42.1817430" lon="-8.7880640">
        <ele>88.9</ele>
        <time>2021-05-20T08:04:34Z</time>
      </trkpt>
      <trkpt lat="42.1817490" lon="-8.7880550">
        <ele>88.8</ele>
        <time>2021-05-20T08:04:35Z</time>
      </trkpt>
      <trkpt lat="42.1817560" lon="-8.7880410">
        <ele>88.7</ele>
        <time>2021-05-20T08:04:36Z</time>
      </trkpt>
      <trkpt lat="42.1817610" lon="-8.7880220">
        <ele>88.5</ele>
        <time>2021-05-20T08:04:37Z</time>
      </trkpt>
      <trkpt lat="42.1817730" lon="-8.7880040">
        <ele>88.3</ele>
        <time>2021-05-20T08:04:38Z</time>
      </trkpt>
      <trkpt lat="42.1817790" lon="-8.7879810">
        <ele>88.1</ele>
        <time>2021-05-20T08:04:39Z</time>
      </trkpt>
      <trkpt lat="42.1817800" lon="-8.7879570">
        <ele>87.9</ele>
        <time>2021-05-20T08:04:40Z</time>
      </trkpt>
      <trkpt lat="42.1817800" lon="-8.7879430">
        <ele>87.8</ele>
        <time>2021-05-20T08:04:41Z</time>
      </trkpt>
      <trkpt lat="42.1817850" lon="-8.7879280">
        <ele>87.7</ele>
        <time>2021-05-20T08:04:42Z</time>
      </trkpt>
      <trkpt lat="42.1817950" lon="-8.7879090">
        <ele>87.5</ele>
        <time>2021-05-20T08:04:43Z</time>
      </trkpt>
      <trkpt lat="42.1817990" lon="-8.7878990">
        <ele>87.4</ele>
        <time>2021-05-20T08:04:44Z</time>
      </trkpt>
      <trkpt lat="42.1817980" lon="-8.7878840">
        <ele>87.3</ele>
        <time>2021-05-20T08:04:45Z</time>
      </trkpt>
      <trkpt lat="42.1817900" lon="-8.7878640">
        <ele>87.1</ele>
        <time>2021-05-20T08:04:46Z</time>
      </trkpt>
      <trkpt lat="42.1817700" lon="-8.7878420">
        <ele>86.7</ele>
        <time>2021-05-20T08:04:47Z</time>
      </trkpt>
      <trkpt lat="42.1817730" lon="-8.7878300">
        <ele>86.6</ele>
        <time>2021-05-20T08:04:48Z</time>
      </trkpt>
      <trkpt lat="42.1817840" lon="-8.7878190">
        <ele>86.4</ele>
        <time>2021-05-20T08:04:49Z</time>
      </trkpt>
      <trkpt lat="42.1817800" lon="-8.7878060">
        <ele>86.3</ele>
        <time>2021-05-20T08:04:50Z</time>
      </trkpt>
      <trkpt lat="42.1817760" lon="-8.7877910">
        <ele>86.2</ele>
        <time>2021-05-20T08:04:51Z</time>
      </trkpt>
      <trkpt lat="42.1817830" lon="-8.7877700">
        <ele>85.9</ele>
        <time>2021-05-20T08:04:52Z</time>
      </trkpt>
      <trkpt lat="42.1817890" lon="-8.7877570">
        <ele>85.8</ele>
        <time>2021-05-20T08:04:53Z</time>
      </trkpt>
      <trkpt lat="42.1817960" lon="-8.7877430">
        <ele>85.6</ele>
        <time>2021-05-20T08:04:54Z</time>
      </trkpt>
      <trkpt lat="42.1818000" lon="-8.7877220">
        <ele>85.4</ele>
        <time>2021-05-20T08:04:55Z</time>
      </trkpt>
      <trkpt lat="42.1818060" lon="-8.7877130">
        <ele>85.3</ele>
        <time>2021-05-20T08:04:56Z</time>
      </trkpt>
      <trkpt lat="42.1818050" lon="-8.7877040">
        <ele>85.2</ele>
        <time>2021-05-20T08:04:57Z</time>
      </trkpt>
      <trkpt lat="42.1818100" lon="-8.7876980">
        <ele>85.1</ele>
        <time>2021-05-20T08:04:58Z</time>
      </trkpt>
      <trkpt lat="42.1818140" lon="-8.7876890">
        <ele>85.0</ele>
        <time>2021-05-20T08:04:59Z</time>
      </trkpt>
      <trkpt lat="42.1818170" lon="-8.7876720">
        <ele>84.8</ele>
        <time>2021-05-20T08:05:00Z</time>
      </trkpt>
      <trkpt lat="42.1818190" lon="-8.7876630">
        <ele>84.7</ele>
        <time>2021-05-20T08:05:01Z</time>
      </trkpt>
      <trkpt lat="42.1818250" lon="-8.7876550">
        <ele>84.5</ele>
        <time>2021-05-20T08:05:02Z</time>
      </trkpt>
      <trkpt lat="42.1818310" lon="-8.7876380">
        <ele>84.3</ele>
        <time>2021-05-20T08:05:03Z</time>
      </trkpt>
      <trkpt lat="42.1818350" lon="-8.7876240">
        <ele>84.2</ele>
        <time>2021-05-20T08:05:04Z</time>
      </trkpt>
      <trkpt lat="42.1818380" lon="-8.7876130">
        <ele>84.1</ele>
        <time>2021-05-20T08:05:05Z</time>
      </trkpt>
      <trkpt lat="42.1818420" lon="-8.7875980">
        <ele>83.9</ele>
        <time>2021-05-20T08:05:06Z</time>
      </trkpt>
      <trkpt lat="42.1818430" lon="-8.7875860">
        <ele>83.7</ele>
        <time>2021-05-20T08:05:07Z</time>
      </trkpt>
      <trkpt lat="42.1818420" lon="-8.7875660">
        <ele>83.5</ele>
        <time>2021-05-20T08:05:08Z</time>
      </trkpt>
      <trkpt lat="42.1818410" lon="-8.7875570">
        <ele>83.4</ele>
        <time>2021-05-20T08:05:09Z</time>
      </trkpt>
      <trkpt lat="42.1818420" lon="-8.7875570">
        <ele>83.4</ele>
        <time>2021-05-20T08:05:10Z</time>
      </trkpt>
      <trkpt lat="42.1818410" lon="-8.7875480">
        <ele>83.3</ele>
        <time>2021-05-20T08:05:11Z</time>
      </trkpt>
      <trkpt lat="42.1818360" lon="-8.7875530">
        <ele>83.2</ele>
        <time>2021-05-20T08:05:12Z</time>
      </trkpt>
      <trkpt lat="42.1818350" lon="-8.7875570">
        <ele>83.2</ele>
        <time>2021-05-20T08:05:13Z</time>
      </trkpt>
      <trkpt lat="42.1818370" lon="-8.7875550">
        <ele>83.1</ele>
        <time>2021-05-20T08:05:14Z</time>
      </trkpt>
      <trkpt lat="42.1818370" lon="-8.7875510">
        <ele>83.1</ele>
        <time>2021-05-20T08:05:15Z</time>
      </trkpt>
      <trkpt lat="42.1818370" lon="-8.7875470">
        <ele>83.1</ele>
        <time>2021-05-20T08:05:16Z</time>
      </trkpt>
      <trkpt lat="42.1818330" lon="-8.7875440">
        <ele>83.0</ele>
        <time>2021-05-20T08:05:17Z</time>
      </trkpt>
      <trkpt lat="42.1818290" lon="-8.7875400">
        <ele>82.9</ele>
        <time>2021-05-20T08:05:18Z</time>
      </trkpt>
      <trkpt lat="42.1818290" lon="-8.7875360">
        <ele>82.9</ele>
        <time>2021-05-20T08:05:19Z</time>
      </trkpt>
      <trkpt lat="42.1818280" lon="-8.7875280">
        <ele>82.8</ele>
        <time>2021-05-20T08:05:20Z</time>
      </trkpt>
      <trkpt lat="42.1818240" lon="-8.7875190">
        <ele>82.7</ele>
        <time>2021-05-20T08:05:21Z</time>
      </trkpt>
      <trkpt lat="42.1818290" lon="-8.7875070">
        <ele>82.5</ele>
        <time>2021-05-20T08:05:22Z</time>
      </trkpt>
      <trkpt lat="42.1818230" lon="-8.7874960">
        <ele>82.4</ele>
        <time>2021-05-20T08:05:23Z</time>
      </trkpt>
      <trkpt lat="42.1818190" lon="-8.7874810">
        <ele>82.2</ele>
        <time>2021-05-20T08:05:24Z</time>
      </trkpt>
      <trkpt lat="42.1818340" lon="-8.7874850">
        <ele>82.0</ele>
        <time>2021-05-20T08:05:25Z</time>
      </trkpt>
      <trkpt lat="42.1818250" lon="-8.7874770">
        <ele>81.8</ele>
        <time>2021-05-20T08:05:26Z</time>
      </trkpt>
      <trkpt lat="42.1818230" lon="-8.7874680">
        <ele>81.7</ele>
        <time>2021-05-20T08:05:27Z</time>
      </trkpt>
      <trkpt lat="42.1818150" lon="-8.7874630">
        <ele>81.6</ele>
        <time>2021-05-20T08:05:28Z</time>
      </trkpt>
      <trkpt lat="42.1818080" lon="-8.7874520">
        <ele>81.4</ele>
        <time>2021-05-20T08:05:29Z</time>
      </trkpt>
      <trkpt lat="42.1818000" lon="-8.7874400">
        <ele>81.2</ele>
        <time>2021-05-20T08:05:30Z</time>
      </trkpt>
      <trkpt lat="42.1817990" lon="-8.7874300">
        <ele>81.1</ele>
        <time>2021-05-20T08:05:31Z</time>
      </trkpt>
      <trkpt lat="42.1817980" lon="-8.7874140">
        <ele>81.0</ele>
        <time>2021-05-20T08:05:32Z</time>
      </trkpt>
      <trkpt lat="42.1817930" lon="-8.7874070">
        <ele>80.9</ele>
        <time>2021-05-20T08:05:33Z</time>
      </trkpt>
      <trkpt lat="42.1817910" lon="-8.7874080">
        <ele>80.8</ele>
        <time>2021-05-20T08:05:34Z</time>
      </trkpt>
      <trkpt lat="42.1817960" lon="-8.7874080">
        <ele>80.8</ele>
        <time>2021-05-20T08:05:35Z</time>
      </trkpt>
      <trkpt lat="42.1818000" lon="-8.7874130">
        <ele>80.7</ele>
        <time>2021-05-20T08:05:36Z</time>
      </trkpt>
      <trkpt lat="42.1817990" lon="-8.7874150">
        <ele>80.7</ele>
        <time>2021-05-20T08:05:37Z</time>
      </trkpt>
      <trkpt lat="42.1817960" lon="-8.7874170">
        <ele>80.6</ele>
        <time>2021-05-20T08:05:38Z</time>
      </trkpt>
      <trkpt lat="42.1817940" lon="-8.7874210">
        <ele>80.6</ele>
        <time>2021-05-20T08:05:39Z</time>
      </trkpt>
      <trkpt lat="42.1817870" lon="-8.7874290">
        <ele>80.4</ele>
        <time>2021-05-20T08:05:40Z</time>
      </trkpt>
      <trkpt lat="42.1817660" lon="-8.7874540">
        <ele>80.1</ele>
        <time>2021-05-20T08:05:41Z</time>
      </trkpt>
      <trkpt lat="42.1817610" lon="-8.7874550">
        <ele>80.0</ele>
        <time>2021-05-20T08:05:42Z</time>
      </trkpt>
      <trkpt lat="42.1817570" lon="-8.7874570">
        <ele>79.9</ele>
        <time>2021-05-20T08:05:43Z</time>
      </trkpt>
      <trkpt lat="42.1817590" lon="-8.7874590">
        <ele>79.9</ele>
        <time>2021-05-20T08:05:44Z</time>
      </trkpt>
      <trkpt lat="42.1817650" lon="-8.7874560">
        <ele>79.8</ele>
        <time>2021-05-20T08:05:45Z</time>
      </trkpt>
      <trkpt lat="42.1817610" lon="-8.7874560">
        <ele>79.8</ele>
        <time>2021-05-20T08:05:46Z</time>
      </trkpt>
      <trkpt lat="42.1817630" lon="-8.7874540">
        <ele>79.7</ele>
        <time>2021-05-20T08:05:47Z</time>
      </trkpt>
      <trkpt lat="42.1817630" lon="-8.7874530">
        <ele>79.7</ele>
        <time>2021-05-20T08:05:48Z</time>
      </trkpt>
      <trkpt lat="42.1817710" lon="-8.7874550">
        <ele>79.6</ele>
        <time>2021-05-20T08:05:49Z</time>
      </trkpt>
      <trkpt lat="42.1817740" lon="-8.7874580">
        <ele>79.6</ele>
        <time>2021-05-20T08:05:50Z</time>
      </trkpt>
      <trkpt lat="42.1817830" lon="-8.7874560">
        <ele>79.4</ele>
        <time>2021-05-20T08:05:51Z</time>
      </trkpt>
      <trkpt lat="42.1817930" lon="-8.7874470">
        <ele>79.3</ele>
        <time>2021-05-20T08:05:52Z</time>
      </trkpt>
      <trkpt lat="42.1817920" lon="-8.7874410">
        <ele>79.2</ele>
        <time>2021-05-20T08:05:53Z</time>
      </trkpt>
      <trkpt lat="42.1817980" lon="-8.7874400">
        <ele>79.1</ele>
        <time>2021-05-20T08:05:54Z</time>
      </trkpt>
      <trkpt lat="42.1817940" lon="-8.7874370">
        <ele>79.1</ele>
        <time>2021-05-20T08:05:55Z</time>
      </trkpt>
      <trkpt lat="42.1817940" lon="-8.7874460">
        <ele>79.0</ele>
        <time>2021-05-20T08:05:56Z</time>
      </trkpt>
      <trkpt lat="42.1817950" lon="-8.7874440">
        <ele>79.0</ele>
        <time>2021-05-20T08:05:57Z</time>
      </trkpt>
      <trkpt lat="42.1817950" lon="-8.7874400">
        <ele>78.9</ele>
        <time>2021-05-20T08:05:58Z</time>
      </trkpt>
      <trkpt lat="42.1817990" lon="-8.7874500">
        <ele>78.8</ele>
        <time>2021-05-20T08:05:59Z</time>
      </trkpt>
      <trkpt lat="42.1818000" lon="-8.7874540">
        <ele>78.8</ele>
        <time>2021-05-20T08:06:00Z</time>
      </trkpt>
      <trkpt lat="42.1818010" lon="-8.7874630">
        <ele>78.7</ele>
        <time>2021-05-20T08:06:01Z</time>
      </trkpt>
      <trkpt lat="42.1818010" lon="-8.7874630">
        <ele>78.7</ele>
        <time>2021-05-20T08:06:02Z</time>
      </trkpt>
      <trkpt lat="42.1817840" lon="-8.7874560">
        <ele>78.5</ele>
        <time>2021-05-20T08:06:03Z</time>
      </trkpt>
      <trkpt lat="42.1817850" lon="-8.7874630">
        <ele>78.4</ele>
        <time>2021-05-20T08:06:04Z</time>
      </trkpt>
      <trkpt lat="42.1817770" lon="-8.7874550">
        <ele>78.3</ele>
        <time>2021-05-20T08:06:05Z</time>
      </trkpt>
      <trkpt lat="42.1817780" lon="-8.7874550">
        <ele>78.3</ele>
        <time>2021-05-20T08:06:06Z</time>
      </trkpt>
      <trkpt lat="42.1817850" lon="-8.7874490">
        <ele>78.2</ele>
        <time>2021-05-20T08:06:07Z</time>
      </trkpt>
      <trkpt lat="42.1817860" lon="-8.7874550">
        <ele>78.1</ele>
        <time>2021-05-20T08:06:08Z</time>
      </trkpt>
      <trkpt lat="42.1817860" lon="-8.7874550">
        <ele>78.1</ele>
        <time>2021-05-20T08:06:09Z</time>
      </trkpt>
      <trkpt lat="42.1817990" lon="-8.7874760">
        <ele>77.9</ele>
        <time>2021-05-20T08:06:10Z</time>
      </trkpt>
      <trkpt lat="42.1817980" lon="-8.7874760">
        <ele>77.8</ele>
        <time>2021-05-20T08:06:11Z</time>
      </trkpt>
      <trkpt lat="42.1818110" lon="-8.7874850">
        <ele>77.7</ele>
        <time>2021-05-20T08:06:12Z</time>
      </trkpt>
      <trkpt lat="42.1818250" lon="-8.7874840">
        <ele>77.5</ele>
        <time>2021-05-20T08:06:13Z</time>
      </trkpt>
      <trkpt lat="42.1818440" lon="-8.7874800">
        <ele>77.3</ele>
        <time>2021-05-20T08:06:14Z</time>
      </trkpt>
      <trkpt lat="42.1818440" lon="-8.7874840">
        <ele>77.2</ele>
        <time>2021-05-20T08:06:15Z</time>
      </trkpt>
      <trkpt lat="42.1818400" lon="-8.7874960">
        <ele>77.1</ele>
        <time>2021-05-20T08:06:16Z</time>
      </trkpt>
      <trkpt lat="42.1818470" lon="-8.7874930">
        <ele>77.1</ele>
        <time>2021-05-20T08:06:17Z</time>
      </trkpt>
      <trkpt lat="42.1818460" lon="-8.7874870">
        <ele>77.0</ele>
        <time>2021-05-20T08:06:18Z</time>
      </trkpt>
      <trkpt lat="42.1818450" lon="-8.7874820">
        <ele>77.0</ele>
        <time>2021-05-20T08:06:19Z</time>
      </trkpt>
      <trkpt lat="42.1818410" lon="-8.7874760">
        <ele>76.9</ele>
        <time>2021-05-20T08:06:20Z</time>
      </trkpt>
      <trkpt lat="42.1818350" lon="-8.7874740">
        <ele>76.8</ele>
        <time>2021-05-20T08:06:21Z</time>
      </trkpt>
      <trkpt lat="42.1818360" lon="-8.7874680">
        <ele>76.8</ele>
        <time>2021-05-20T08:06:22Z</time>
      </trkpt>
      <trkpt lat="42.1818280" lon="-8.7874680">
        <ele>76.7</ele>
        <time>2021-05-20T08:06:23Z</time>
      </trkpt>
      <trkpt lat="42.1818310" lon="-8.7874520">
        <ele>76.6</ele>
        <time>2021-05-20T08:06:24Z</time>
      </trkpt>
      <trkpt lat="42.1818190" lon="-8.7874580">
        <ele>76.4</ele>
        <time>2021-05-20T08:06:25Z</time>
      </trkpt>
      <trkpt lat="42.1818040" lon="-8.7874510">
        <ele>76.2</ele>
        <time>2021-05-20T08:06:26Z</time>
      </trkpt>
      <trkpt lat="42.1817920" lon="-8.7874490">
        <ele>76.1</ele>
        <time>2021-05-20T08:06:27Z</time>
      </trkpt>
      <trkpt lat="42.1817800" lon="-8.7874460">
        <ele>76.0</ele>
        <time>2021-05-20T08:06:28Z</time>
      </trkpt>
      <trkpt lat="42.1817590" lon="-8.7874450">
        <ele>75.7</ele>
        <time>2021-05-20T08:06:29Z</time>
      </trkpt>
      <trkpt lat="42.1817510" lon="-8.7874390">
        <ele>75.6</ele>
        <time>2021-05-20T08:06:30Z</time>
      </trkpt>
      <trkpt lat="42.1817400" lon="-8.7874300">
        <ele>75.5</ele>
        <time>2021-05-20T08:06:31Z</time>
      </trkpt>
      <trkpt lat="42.1817370" lon="-8.7874240">
        <ele>75.4</ele>
        <time>2021-05-20T08:06:32Z</time>
      </trkpt>
      <trkpt lat="42.1817350" lon="-8.7874140">
        <ele>75.4</ele>
        <time>2021-05-20T08:06:33Z</time>
      </trkpt>
      <trkpt lat="42.1817330" lon="-8.7874010">
        <ele>75.4</ele>
        <time>2021-05-20T08:06:34Z</time>
      </trkpt>
      <trkpt lat="42.1817340" lon="-8.7874160">
        <ele>75.3</ele>
        <time>2021-05-20T08:06:35Z</time>
      </trkpt>
      <trkpt lat="42.1817320" lon="-8.7874220">
        <ele>75.3</ele>
        <time>2021-05-20T08:06:36Z</time>
      </trkpt>
      <trkpt lat="42.1817310" lon="-8.7874270">
        <ele>75.3</ele>
        <time>2021-05-20T08:06:37Z</time>
      </trkpt>
      <trkpt lat="42.1817290" lon="-8.7874330">
        <ele>75.3</ele>
        <time>2021-05-20T08:06:38Z</time>
      </trkpt>
      <trkpt lat="42.1817280" lon="-8.7874380">
        <ele>75.3</ele>
        <time>2021-05-20T08:06:39Z</time>
      </trkpt>
      <trkpt lat="42.1817260" lon="-8.7874430">
        <ele>75.3</ele>
        <time>2021-05-20T08:06:40Z</time>
      </trkpt>
      <trkpt lat="42.1817250" lon="-8.7874490">
        <ele>75.3</ele>
        <time>2021-05-20T08:06:41Z</time>
      </trkpt>
      <trkpt lat="42.1817230" lon="-8.7874540">
        <ele>75.3</ele>
        <time>2021-05-20T08:06:42Z</time>
      </trkpt>
      <trkpt lat="42.1817170" lon="-8.7874520">
        <ele>75.3</ele>
        <time>2021-05-20T08:06:43Z</time>
      </trkpt>
      <trkpt lat="42.1817160" lon="-8.7874490">
        <ele>75.3</ele>
        <time>2021-05-20T08:06:44Z</time>
      </trkpt>
      <trkpt lat="42.1817070" lon="-8.7874550">
        <ele>75.3</ele>
        <time>2021-05-20T08:06:45Z</time>
      </trkpt>
      <trkpt lat="42.1817050" lon="-8.7874550">
        <ele>75.3</ele>
        <time>2021-05-20T08:06:46Z</time>
      </trkpt>
      <trkpt lat="42.1817070" lon="-8.7874660">
        <ele>75.3</ele>
        <time>2021-05-20T08:06:47Z</time>
      </trkpt>
      <trkpt lat="42.1817070" lon="-8.7874660">
        <ele>75.3</ele>
        <time>2021-05-20T08:06:48Z</time>
      </trkpt>
      <trkpt lat="42.1817060" lon="-8.7874700">
        <ele>75.3</ele>
        <time>2021-05-20T08:06:49Z</time>
      </trkpt>
      <trkpt lat="42.1817050" lon="-8.7874750">
        <ele>75.3</ele>
        <time>2021-05-20T08:06:50Z</time>
      </trkpt>
      <trkpt lat="42.1817060" lon="-8.7874800">
        <ele>75.3</ele>
        <time>2021-05-20T08:06:51Z</time>
      </trkpt>
      <trkpt lat="42.1817170" lon="-8.7874880">
        <ele>75.3</ele>
        <time>2021-05-20T08:06:52Z</time>
      </trkpt>
      <trkpt lat="42.1817170" lon="-8.7874990">
        <ele>75.3</ele>
        <time>2021-05-20T08:06:53Z</time>
      </trkpt>
      <trkpt lat="42.1817230" lon="-8.7875120">
        <ele>75.3</ele>
        <time>2021-05-20T08:06:54Z</time>
      </trkpt>
      <trkpt lat="42.1817200" lon="-8.7875200">
        <ele>75.3</ele>
        <time>2021-05-20T08:06:55Z</time>
      </trkpt>
      <trkpt lat="42.1817110" lon="-8.7875230">
        <ele>75.3</ele>
        <time>2021-05-20T08:06:56Z</time>
      </trkpt>
      <trkpt lat="42.1817110" lon="-8.7875230">
        <ele>75.3</ele>
        <time>2021-05-20T08:06:57Z</time>
      </trkpt>
      <trkpt lat="42.1817110" lon="-8.7875230">
        <ele>75.3</ele>
        <time>2021-05-20T08:06:58Z</time>
      </trkpt>
      <trkpt lat="42.1817060" lon="-8.7875120">
        <ele>75.3</ele>
        <time>2021-05-20T08:06:59Z</time>
      </trkpt>
      <trkpt lat="42.1817060" lon="-8.7875120">
        <ele>75.3</ele>
        <time>2021-05-20T08:07:00Z</time>
      </trkpt>
      <trkpt lat="42.1817010" lon="-8.7875130">
        <ele>75.3</ele>
        <time>2021-05-20T08:07:01Z</time>
      </trkpt>
      <trkpt lat="42.1817060" lon="-8.7875120">
        <ele>75.3</ele>
        <time>2021-05-20T08:07:02Z</time>
      </trkpt>
      <trkpt lat="42.1817100" lon="-8.7875140">
        <ele>75.3</ele>
        <time>2021-05-20T08:07:03Z</time>
      </trkpt>
      <trkpt lat="42.1817080" lon="-8.7875180">
        <ele>75.3</ele>
        <time>2021-05-20T08:07:04Z</time>
      </trkpt>
      <trkpt lat="42.1817110" lon="-8.7875160">
        <ele>75.3</ele>
        <time>2021-05-20T08:07:05Z</time>
      </trkpt>
      <trkpt lat="42.1817100" lon="-8.7875160">
        <ele>75.3</ele>
        <time>2021-05-20T08:07:06Z</time>
      </trkpt>
      <trkpt lat="42.1817110" lon="-8.7875150">
        <ele>75.3</ele>
        <time>2021-05-20T08:07:07Z</time>
      </trkpt>
      <trkpt lat="42.1817150" lon="-8.7875030">
        <ele>75.3</ele>
        <time>2021-05-20T08:07:08Z</time>
      </trkpt>
      <trkpt lat="42.1817150" lon="-8.7875030">
        <ele>75.3</ele>
        <time>2021-05-20T08:07:09Z</time>
      </trkpt>
      <trkpt lat="42.1817150" lon="-8.7875040">
        <ele>75.3</ele>
        <time>2021-05-20T08:07:10Z</time>
      </trkpt>
      <trkpt lat="42.1817250" lon="-8.7874910">
        <ele>75.3</ele>
        <time>2021-05-20T08:07:11Z</time>
      </trkpt>
      <trkpt lat="42.1817320" lon="-8.7874890">
        <ele>75.3</ele>
        <time>2021-05-20T08:07:12Z</time>
      </trkpt>
      <trkpt lat="42.1817360" lon="-8.7874840">
        <ele>75.3</ele>
        <time>2021-05-20T08:07:13Z</time>
      </trkpt>
      <trkpt lat="42.1817410" lon="-8.7874900">
        <ele>75.3</ele>
        <time>2021-05-20T08:07:14Z</time>
      </trkpt>
      <trkpt lat="42.1817450" lon="-8.7874960">
        <ele>75.3</ele>
        <time>2021-05-20T08:07:15Z</time>
      </trkpt>
      <trkpt lat="42.1817460" lon="-8.7874980">
        <ele>75.3</ele>
        <time>2021-05-20T08:07:16Z</time>
      </trkpt>
      <trkpt lat="42.1817470" lon="-8.7875000">
        <ele>75.3</ele>
        <time>2021-05-20T08:07:17Z</time>
      </trkpt>
      <trkpt lat="42.1817490" lon="-8.7875020">
        <ele>75.3</ele>
        <time>2021-05-20T08:07:18Z</time>
      </trkpt>
      <trkpt lat="42.1817500" lon="-8.7875040">
        <ele>75.3</ele>
        <time>2021-05-20T08:07:19Z</time>
      </trkpt>
      <trkpt lat="42.1817510" lon="-8.7875050">
        <ele>75.3</ele>
        <time>2021-05-20T08:07:20Z</time>
      </trkpt>
      <trkpt lat="42.1817520" lon="-8.7875070">
        <ele>75.3</ele>
        <time>2021-05-20T08:07:21Z</time>
      </trkpt>
      <trkpt lat="42.1817540" lon="-8.7875090">
        <ele>75.3</ele>
        <time>2021-05-20T08:07:22Z</time>
      </trkpt>
      <trkpt lat="42.1817550" lon="-8.7875110">
        <ele>75.3</ele>
        <time>2021-05-20T08:07:23Z</time>
      </trkpt>
      <trkpt lat="42.1817560" lon="-8.7875130">
        <ele>75.3</ele>
        <time>2021-05-20T08:07:24Z</time>
      </trkpt>
      <trkpt lat="42.1817570" lon="-8.7875150">
        <ele>75.3</ele>
        <time>2021-05-20T08:07:25Z</time>
      </trkpt>
      <trkpt lat="42.1817580" lon="-8.7875170">
        <ele>75.3</ele>
        <time>2021-05-20T08:07:26Z</time>
      </trkpt>
      <trkpt lat="42.1817600" lon="-8.7875190">
        <ele>75.3</ele>
        <time>2021-05-20T08:07:27Z</time>
      </trkpt>
      <trkpt lat="42.1817610" lon="-8.7875200">
        <ele>75.3</ele>
        <time>2021-05-20T08:07:28Z</time>
      </trkpt>
      <trkpt lat="42.1817620" lon="-8.7875220">
        <ele>75.3</ele>
        <time>2021-05-20T08:07:29Z</time>
      </trkpt>
      <trkpt lat="42.1817630" lon="-8.7875240">
        <ele>75.3</ele>
        <time>2021-05-20T08:07:30Z</time>
      </trkpt>
      <trkpt lat="42.1817650" lon="-8.7875260">
        <ele>75.3</ele>
        <time>2021-05-20T08:07:31Z</time>
      </trkpt>
      <trkpt lat="42.1817660" lon="-8.7875280">
        <ele>75.3</ele>
        <time>2021-05-20T08:07:32Z</time>
      </trkpt>
      <trkpt lat="42.1817670" lon="-8.7875300">
        <ele>75.3</ele>
        <time>2021-05-20T08:07:33Z</time>
      </trkpt>
      <trkpt lat="42.1817680" lon="-8.7875320">
        <ele>75.3</ele>
        <time>2021-05-20T08:07:34Z</time>
      </trkpt>
      <trkpt lat="42.1817690" lon="-8.7875340">
        <ele>75.3</ele>
        <time>2021-05-20T08:07:35Z</time>
      </trkpt>
      <trkpt lat="42.1817710" lon="-8.7875350">
        <ele>75.3</ele>
        <time>2021-05-20T08:07:36Z</time>
      </trkpt>
      <trkpt lat="42.1817720" lon="-8.7875370">
        <ele>75.3</ele>
        <time>2021-05-20T08:07:37Z</time>
      </trkpt>
      <trkpt lat="42.1817730" lon="-8.7875390">
        <ele>75.3</ele>
        <time>2021-05-20T08:07:38Z</time>
      </trkpt>
      <trkpt lat="42.1817740" lon="-8.7875410">
        <ele>75.3</ele>
        <time>2021-05-20T08:07:39Z</time>
      </trkpt>
      <trkpt lat="42.1817760" lon="-8.7875430">
        <ele>75.3</ele>
        <time>2021-05-20T08:07:40Z</time>
      </trkpt>
      <trkpt lat="42.1817770" lon="-8.7875450">
        <ele>75.3</ele>
        <time>2021-05-20T08:07:41Z</time>
      </trkpt>
      <trkpt lat="42.1817780" lon="-8.7875470">
        <ele>75.3</ele>
        <time>2021-05-20T08:07:42Z</time>
      </trkpt>
      <trkpt lat="42.1817790" lon="-8.7875490">
        <ele>75.3</ele>
        <time>2021-05-20T08:07:43Z</time>
      </trkpt>
      <trkpt lat="42.1817810" lon="-8.7875500">
        <ele>75.3</ele>
        <time>2021-05-20T08:07:44Z</time>
      </trkpt>
      <trkpt lat="42.1817820" lon="-8.7875520">
        <ele>75.3</ele>
        <time>2021-05-20T08:07:45Z</time>
      </trkpt>
      <trkpt lat="42.1817830" lon="-8.7875540">
        <ele>75.3</ele>
        <time>2021-05-20T08:07:46Z</time>
      </trkpt>
      <trkpt lat="42.1817840" lon="-8.7875560">
        <ele>75.3</ele>
        <time>2021-05-20T08:07:47Z</time>
      </trkpt>
      <trkpt lat="42.1817850" lon="-8.7875580">
        <ele>75.3</ele>
        <time>2021-05-20T08:07:48Z</time>
      </trkpt>
      <trkpt lat="42.1817870" lon="-8.7875600">
        <ele>75.3</ele>
        <time>2021-05-20T08:07:49Z</time>
      </trkpt>
      <trkpt lat="42.1817880" lon="-8.7875620">
        <ele>75.3</ele>
        <time>2021-05-20T08:07:50Z</time>
      </trkpt>
      <trkpt lat="42.1817890" lon="-8.7875640">
        <ele>75.3</ele>
        <time>2021-05-20T08:07:51Z</time>
      </trkpt>
      <trkpt lat="42.1817900" lon="-8.7875650">
        <ele>75.3</ele>
        <time>2021-05-20T08:07:52Z</time>
      </trkpt>
      <trkpt lat="42.1817920" lon="-8.7875670">
        <ele>75.3</ele>
        <time>2021-05-20T08:07:53Z</time>
      </trkpt>
      <trkpt lat="42.1817930" lon="-8.7875690">
        <ele>75.3</ele>
        <time>2021-05-20T08:07:54Z</time>
      </trkpt>
      <trkpt lat="42.1817940" lon="-8.7875710">
        <ele>75.3</ele>
        <time>2021-05-20T08:07:55Z</time>
      </trkpt>
      <trkpt lat="42.1817950" lon="-8.7875730">
        <ele>75.3</ele>
        <time>2021-05-20T08:07:56Z</time>
      </trkpt>
      <trkpt lat="42.1817960" lon="-8.7875750">
        <ele>75.3</ele>
        <time>2021-05-20T08:07:57Z</time>
      </trkpt>
      <trkpt lat="42.1817980" lon="-8.7875770">
        <ele>75.3</ele>
        <time>2021-05-20T08:07:58Z</time>
      </trkpt>
      <trkpt lat="42.1817990" lon="-8.7875790">
        <ele>75.3</ele>
        <time>2021-05-20T08:07:59Z</time>
      </trkpt>
      <trkpt lat="42.1818000" lon="-8.7875800">
        <ele>75.3</ele>
        <time>2021-05-20T08:08:00Z</time>
      </trkpt>
      <trkpt lat="42.1818010" lon="-8.7875820">
        <ele>75.3</ele>
        <time>2021-05-20T08:08:01Z</time>
      </trkpt>
      <trkpt lat="42.1818030" lon="-8.7875840">
        <ele>75.3</ele>
        <time>2021-05-20T08:08:02Z</time>
      </trkpt>
      <trkpt lat="42.1818040" lon="-8.7875860">
        <ele>75.3</ele>
        <time>2021-05-20T08:08:03Z</time>
      </trkpt>
      <trkpt lat="42.1818050" lon="-8.7875880">
        <ele>75.3</ele>
        <time>2021-05-20T08:08:04Z</time>
      </trkpt>
      <trkpt lat="42.1817950" lon="-8.7875830">
        <ele>75.3</ele>
        <time>2021-05-20T08:08:05Z</time>
      </trkpt>
      <trkpt lat="42.1818000" lon="-8.7875750">
        <ele>75.3</ele>
        <time>2021-05-20T08:08:06Z</time>
      </trkpt>
      <trkpt lat="42.1818060" lon="-8.7875670">
        <ele>75.3</ele>
        <time>2021-05-20T08:08:07Z</time>
      </trkpt>
      <trkpt lat="42.1818110" lon="-8.7875580">
        <ele>75.3</ele>
        <time>2021-05-20T08:08:08Z</time>
      </trkpt>
      <trkpt lat="42.1818160" lon="-8.7875500">
        <ele>75.3</ele>
        <time>2021-05-20T08:08:09Z</time>
      </trkpt>
      <trkpt lat="42.1818210" lon="-8.7875420">
        <ele>75.3</ele>
        <time>2021-05-20T08:08:10Z</time>
      </trkpt>
      <trkpt lat="42.1818250" lon="-8.7875260">
        <ele>75.4</ele>
        <time>2021-05-20T08:08:11Z</time>
      </trkpt>
      <trkpt lat="42.1818290" lon="-8.7875140">
        <ele>75.4</ele>
        <time>2021-05-20T08:08:12Z</time>
      </trkpt>
      <trkpt lat="42.1818310" lon="-8.7875030">
        <ele>75.4</ele>
        <time>2021-05-20T08:08:13Z</time>
      </trkpt>
      <trkpt lat="42.1818300" lon="-8.7874900">
        <ele>75.4</ele>
        <time>2021-05-20T08:08:14Z</time>
      </trkpt>
      <trkpt lat="42.1818380" lon="-8.7874840">
        <ele>75.4</ele>
        <time>2021-05-20T08:08:15Z</time>
      </trkpt>
      <trkpt lat="42.1818440" lon="-8.7874820">
        <ele>75.4</ele>
        <time>2021-05-20T08:08:16Z</time>
      </trkpt>
      <trkpt lat="42.1818470" lon="-8.7874790">
        <ele>75.4</ele>
        <time>2021-05-20T08:08:17Z</time>
      </trkpt>
      <trkpt lat="42.1818460" lon="-8.7874800">
        <ele>75.4</ele>
        <time>2021-05-20T08:08:18Z</time>
      </trkpt>
      <trkpt lat="42.1818450" lon="-8.7874690">
        <ele>75.4</ele>
        <time>2021-05-20T08:08:19Z</time>
      </trkpt>
      <trkpt lat="42.1818480" lon="-8.7874670">
        <ele>75.4</ele>
        <time>2021-05-20T08:08:20Z</time>
      </trkpt>
      <trkpt lat="42.1818580" lon="-8.7874660">
        <ele>75.4</ele>
        <time>2021-05-20T08:08:21Z</time>
      </trkpt>
      <trkpt lat="42.1818620" lon="-8.7874780">
        <ele>75.4</ele>
        <time>2021-05-20T08:08:22Z</time>
      </trkpt>
      <trkpt lat="42.1818590" lon="-8.7874730">
        <ele>75.4</ele>
        <time>2021-05-20T08:08:23Z</time>
      </trkpt>
      <trkpt lat="42.1818560" lon="-8.7874710">
        <ele>75.4</ele>
        <time>2021-05-20T08:08:24Z</time>
      </trkpt>
      <trkpt lat="42.1818500" lon="-8.7874750">
        <ele>75.4</ele>
        <time>2021-05-20T08:08:25Z</time>
      </trkpt>
      <trkpt lat="42.1818500" lon="-8.7874780">
        <ele>75.4</ele>
        <time>2021-05-20T08:08:26Z</time>
      </trkpt>
      <trkpt lat="42.1818490" lon="-8.7874730">
        <ele>75.4</ele>
        <time>2021-05-20T08:08:27Z</time>
      </trkpt>
      <trkpt lat="42.1818400" lon="-8.7874620">
        <ele>75.4</ele>
        <time>2021-05-20T08:08:28Z</time>
      </trkpt>
      <trkpt lat="42.1818370" lon="-8.7874570">
        <ele>75.4</ele>
        <time>2021-05-20T08:08:29Z</time>
      </trkpt>
      <trkpt lat="42.1818390" lon="-8.7874600">
        <ele>75.5</ele>
        <time>2021-05-20T08:08:30Z</time>
      </trkpt>
      <trkpt lat="42.1818420" lon="-8.7874670">
        <ele>75.5</ele>
        <time>2021-05-20T08:08:31Z</time>
      </trkpt>
      <trkpt lat="42.1818420" lon="-8.7874710">
        <ele>75.5</ele>
        <time>2021-05-20T08:08:32Z</time>
      </trkpt>
      <trkpt lat="42.1818430" lon="-8.7874760">
        <ele>75.5</ele>
        <time>2021-05-20T08:08:33Z</time>
      </trkpt>
      <trkpt lat="42.1818410" lon="-8.7874810">
        <ele>75.5</ele>
        <time>2021-05-20T08:08:34Z</time>
      </trkpt>
      <trkpt lat="42.1818480" lon="-8.7875010">
        <ele>75.5</ele>
        <time>2021-05-20T08:08:35Z</time>
      </trkpt>
      <trkpt lat="42.1818510" lon="-8.7874930">
        <ele>75.5</ele>
        <time>2021-05-20T08:08:36Z</time>
      </trkpt>
      <trkpt lat="42.1818480" lon="-8.7874910">
        <ele>75.5</ele>
        <time>2021-05-20T08:08:37Z</time>
      </trkpt>
      <trkpt lat="42.1818460" lon="-8.7874950">
        <ele>75.5</ele>
        <time>2021-05-20T08:08:38Z</time>
      </trkpt>
      <trkpt lat="42.1818420" lon="-8.7875000">
        <ele>75.5</ele>
        <time>2021-05-20T08:08:39Z</time>
      </trkpt>
      <trkpt lat="42.1818350" lon="-8.7875080">
        <ele>75.5</ele>
        <time>2021-05-20T08:08:40Z</time>
      </trkpt>
      <trkpt lat="42.1818290" lon="-8.7875130">
        <ele>75.5</ele>
        <time>2021-05-20T08:08:41Z</time>
      </trkpt>
      <trkpt lat="42.1818090" lon="-8.7875230">
        <ele>75.5</ele>
        <time>2021-05-20T08:08:42Z</time>
      </trkpt>
      <trkpt lat="42.1818030" lon="-8.7875210">
        <ele>75.5</ele>
        <time>2021-05-20T08:08:43Z</time>
      </trkpt>
      <trkpt lat="42.1818050" lon="-8.7875220">
        <ele>75.5</ele>
        <time>2021-05-20T08:08:44Z</time>
      </trkpt>
      <trkpt lat="42.1818040" lon="-8.7875280">
        <ele>75.5</ele>
        <time>2021-05-20T08:08:45Z</time>
      </trkpt>
      <trkpt lat="42.1818050" lon="-8.7875270">
        <ele>75.5</ele>
        <time>2021-05-20T08:08:46Z</time>
      </trkpt>
      <trkpt lat="42.1818080" lon="-8.7875230">
        <ele>75.5</ele>
        <time>2021-05-20T08:08:47Z</time>
      </trkpt>
      <trkpt lat="42.1818130" lon="-8.7875260">
        <ele>75.5</ele>
        <time>2021-05-20T08:08:48Z</time>
      </trkpt>
      <trkpt lat="42.1818180" lon="-8.7875250">
        <ele>75.5</ele>
        <time>2021-05-20T08:08:49Z</time>
      </trkpt>
      <trkpt lat="42.1818190" lon="-8.7875190">
        <ele>75.5</ele>
        <time>2021-05-20T08:08:50Z</time>
      </trkpt>
      <trkpt lat="42.1818220" lon="-8.7875230">
        <ele>75.6</ele>
        <time>2021-05-20T08:08:51Z</time>
      </trkpt>
      <trkpt lat="42.1818250" lon="-8.7875220">
        <ele>75.6</ele>
        <time>2021-05-20T08:08:52Z</time>
      </trkpt>
      <trkpt lat="42.1818390" lon="-8.7875150">
        <ele>75.6</ele>
        <time>2021-05-20T08:08:53Z</time>
      </trkpt>
      <trkpt lat="42.1818590" lon="-8.7874920">
        <ele>75.6</ele>
        <time>2021-05-20T08:08:54Z</time>
      </trkpt>
      <trkpt lat="42.1818670" lon="-8.7874880">
        <ele>75.6</ele>
        <time>2021-05-20T08:08:55Z</time>
      </trkpt>
      <trkpt lat="42.1818760" lon="-8.7874830">
        <ele>75.6</ele>
        <time>2021-05-20T08:08:56Z</time>
      </trkpt>
      <trkpt lat="42.1818980" lon="-8.7874750">
        <ele>75.6</ele>
        <time>2021-05-20T08:08:57Z</time>
      </trkpt>
      <trkpt lat="42.1819050" lon="-8.7874720">
        <ele>75.6</ele>
        <time>2021-05-20T08:08:58Z</time>
      </trkpt>
      <trkpt lat="42.1819110" lon="-8.7874680">
        <ele>75.6</ele>
        <time>2021-05-20T08:08:59Z</time>
      </trkpt>
      <trkpt lat="42.1819230" lon="-8.7874560">
        <ele>75.6</ele>
        <time>2021-05-20T08:09:00Z</time>
      </trkpt>
      <trkpt lat="42.1819310" lon="-8.7874520">
        <ele>75.6</ele>
        <time>2021-05-20T08:09:01Z</time>
      </trkpt>
      <trkpt lat="42.1819380" lon="-8.7874460">
        <ele>75.6</ele>
        <time>2021-05-20T08:09:02Z</time>
      </trkpt>
      <trkpt lat="42.1819500" lon="-8.7874440">
        <ele>75.6</ele>
        <time>2021-05-20T08:09:03Z</time>
      </trkpt>
      <trkpt lat="42.1819560" lon="-8.7874400">
        <ele>75.6</ele>
        <time>2021-05-20T08:09:04Z</time>
      </trkpt>
      <trkpt lat="42.1819660" lon="-8.7874340">
        <ele>75.6</ele>
        <time>2021-05-20T08:09:05Z</time>
      </trkpt>
      <trkpt lat="42.1819980" lon="-8.7874290">
        <ele>75.6</ele>
        <time>2021-05-20T08:09:06Z</time>
      </trkpt>
      <trkpt lat="42.1820130" lon="-8.7874250">
        <ele>75.6</ele>
        <time>2021-05-20T08:09:07Z</time>
      </trkpt>
      <trkpt lat="42.1820250" lon="-8.7874280">
        <ele>75.6</ele>
        <time>2021-05-20T08:09:08Z</time>
      </trkpt>
      <trkpt lat="42.1820340" lon="-8.7874350">
        <ele>75.6</ele>
        <time>2021-05-20T08:09:09Z</time>
      </trkpt>
      <trkpt lat="42.1820390" lon="-8.7874350">
        <ele>75.6</ele>
        <time>2021-05-20T08:09:10Z</time>
      </trkpt>
      <trkpt lat="42.1820460" lon="-8.7874330">
        <ele>75.6</ele>
        <time>2021-05-20T08:09:11Z</time>
      </trkpt>
      <trkpt lat="42.1820530" lon="-8.7874300">
        <ele>75.6</ele>
        <time>2021-05-20T08:09:12Z</time>
      </trkpt>
      <trkpt lat="42.1820650" lon="-8.7874230">
        <ele>75.6</ele>
        <time>2021-05-20T08:09:13Z</time>
      </trkpt>
      <trkpt lat="42.1820650" lon="-8.7874260">
        <ele>75.6</ele>
        <time>2021-05-20T08:09:14Z</time>
      </trkpt>
      <trkpt lat="42.1820820" lon="-8.7874310">
        <ele>75.6</ele>
        <time>2021-05-20T08:09:15Z</time>
      </trkpt>
      <trkpt lat="42.1820930" lon="-8.7874280">
        <ele>75.6</ele>
        <time>2021-05-20T08:09:16Z</time>
      </trkpt>
      <trkpt lat="42.1821050" lon="-8.7874210">
        <ele>75.6</ele>
        <time>2021-05-20T08:09:17Z</time>
      </trkpt>
      <trkpt lat="42.1821100" lon="-8.7874220">
        <ele>75.6</ele>
        <time>2021-05-20T08:09:18Z</time>
      </trkpt>
      <trkpt lat="42.1821200" lon="-8.7874220">
        <ele>75.6</ele>
        <time>2021-05-20T08:09:19Z</time>
      </trkpt>
      <trkpt lat="42.1821330" lon="-8.7874240">
        <ele>75.6</ele>
        <time>2021-05-20T08:09:20Z</time>
      </trkpt>
      <trkpt lat="42.1821560" lon="-8.7874280">
        <ele>75.6</ele>
        <time>2021-05-20T08:09:21Z</time>
      </trkpt>
      <trkpt lat="42.1821660" lon="-8.7874280">
        <ele>75.6</ele>
        <time>2021-05-20T08:09:22Z</time>
      </trkpt>
      <trkpt lat="42.1821860" lon="-8.7874250">
        <ele>75.6</ele>
        <time>2021-05-20T08:09:23Z</time>
      </trkpt>
      <trkpt lat="42.1821990" lon="-8.7874170">
        <ele>75.6</ele>
        <time>2021-05-20T08:09:24Z</time>
      </trkpt>
      <trkpt lat="42.1822170" lon="-8.7874170">
        <ele>75.6</ele>
        <time>2021-05-20T08:09:25Z</time>
      </trkpt>
      <trkpt lat="42.1822250" lon="-8.7874070">
        <ele>75.6</ele>
        <time>2021-05-20T08:09:26Z</time>
      </trkpt>
      <trkpt lat="42.1822370" lon="-8.7874040">
        <ele>75.6</ele>
        <time>2021-05-20T08:09:27Z</time>
      </trkpt>
      <trkpt lat="42.1822480" lon="-8.7874000">
        <ele>75.6</ele>
        <time>2021-05-20T08:09:28Z</time>
      </trkpt>
      <trkpt lat="42.1822690" lon="-8.7874030">
        <ele>75.6</ele>
        <time>2021-05-20T08:09:29Z</time>
      </trkpt>
      <trkpt lat="42.1822810" lon="-8.7874060">
        <ele>75.6</ele>
        <time>2021-05-20T08:09:30Z</time>
      </trkpt>
      <trkpt lat="42.1822950" lon="-8.7874140">
        <ele>75.6</ele>
        <time>2021-05-20T08:09:31Z</time>
      </trkpt>
      <trkpt lat="42.1823090" lon="-8.7874200">
        <ele>75.6</ele>
        <time>2021-05-20T08:09:32Z</time>
      </trkpt>
      <trkpt lat="42.1823170" lon="-8.7874270">
        <ele>75.6</ele>
        <time>2021-05-20T08:09:33Z</time>
      </trkpt>
      <trkpt lat="42.1823250" lon="-8.7874380">
        <ele>75.6</ele>
        <time>2021-05-20T08:09:34Z</time>
      </trkpt>
      <trkpt lat="42.1823320" lon="-8.7874420">
        <ele>75.6</ele>
        <time>2021-05-20T08:09:35Z</time>
      </trkpt>
      <trkpt lat="42.1823440" lon="-8.7874470">
        <ele>75.6</ele>
        <time>2021-05-20T08:09:36Z</time>
      </trkpt>
      <trkpt lat="42.1823550" lon="-8.7874520">
        <ele>75.6</ele>
        <time>2021-05-20T08:09:37Z</time>
      </trkpt>
      <trkpt lat="42.1823630" lon="-8.7874510">
        <ele>75.6</ele>
        <time>2021-05-20T08:09:38Z</time>
      </trkpt>
      <trkpt lat="42.1823890" lon="-8.7874530">
        <ele>75.6</ele>
        <time>2021-05-20T08:09:39Z</time>
      </trkpt>
      <trkpt lat="42.1823990" lon="-8.7874530">
        <ele>75.6</ele>
        <time>2021-05-20T08:09:40Z</time>
      </trkpt>
      <trkpt lat="42.1824100" lon="-8.7874520">
        <ele>75.6</ele>
        <time>2021-05-20T08:09:41Z</time>
      </trkpt>
      <trkpt lat="42.1824380" lon="-8.7874480">
        <ele>75.6</ele>
        <time>2021-05-20T08:09:42Z</time>
      </trkpt>
      <trkpt lat="42.1824470" lon="-8.7874420">
        <ele>75.5</ele>
        <time>2021-05-20T08:09:43Z</time>
      </trkpt>
      <trkpt lat="42.1824570" lon="-8.7874540">
        <ele>75.5</ele>
        <time>2021-05-20T08:09:44Z</time>
      </trkpt>
      <trkpt lat="42.1824730" lon="-8.7874600">
        <ele>75.5</ele>
        <time>2021-05-20T08:09:45Z</time>
      </trkpt>
      <trkpt lat="42.1824800" lon="-8.7874630">
        <ele>75.5</ele>
        <time>2021-05-20T08:09:46Z</time>
      </trkpt>
      <trkpt lat="42.1824910" lon="-8.7874720">
        <ele>75.5</ele>
        <time>2021-05-20T08:09:47Z</time>
      </trkpt>
      <trkpt lat="42.1825060" lon="-8.7874680">
        <ele>75.5</ele>
        <time>2021-05-20T08:09:48Z</time>
      </trkpt>
      <trkpt lat="42.1825280" lon="-8.7874780">
        <ele>75.5</ele>
        <time>2021-05-20T08:09:49Z</time>
      </trkpt>
      <trkpt lat="42.1825350" lon="-8.7874830">
        <ele>75.5</ele>
        <time>2021-05-20T08:09:50Z</time>
      </trkpt>
      <trkpt lat="42.1825540" lon="-8.7874820">
        <ele>75.5</ele>
        <time>2021-05-20T08:09:51Z</time>
      </trkpt>
      <trkpt lat="42.1825560" lon="-8.7874850">
        <ele>75.5</ele>
        <time>2021-05-20T08:09:52Z</time>
      </trkpt>
      <trkpt lat="42.1825590" lon="-8.7874870">
        <ele>75.5</ele>
        <time>2021-05-20T08:09:53Z</time>
      </trkpt>
      <trkpt lat="42.1825620" lon="-8.7874890">
        <ele>75.5</ele>
        <time>2021-05-20T08:09:54Z</time>
      </trkpt>
      <trkpt lat="42.1825640" lon="-8.7874920">
        <ele>75.5</ele>
        <time>2021-05-20T08:09:55Z</time>
      </trkpt>
      <trkpt lat="42.1825670" lon="-8.7874940">
        <ele>75.5</ele>
        <time>2021-05-20T08:09:56Z</time>
      </trkpt>
      <trkpt lat="42.1825690" lon="-8.7874970">
        <ele>75.5</ele>
        <time>2021-05-20T08:09:57Z</time>
      </trkpt>
      <trkpt lat="42.1825720" lon="-8.7874990">
        <ele>75.5</ele>
        <time>2021-05-20T08:09:58Z</time>
      </trkpt>
      <trkpt lat="42.1825830" lon="-8.7875110">
        <ele>75.5</ele>
        <time>2021-05-20T08:09:59Z</time>
      </trkpt>
      <trkpt lat="42.1826010" lon="-8.7875160">
        <ele>75.5</ele>
        <time>2021-05-20T08:10:00Z</time>
      </trkpt>
      <trkpt lat="42.1826050" lon="-8.7875270">
        <ele>75.5</ele>
        <time>2021-05-20T08:10:01Z</time>
      </trkpt>
      <trkpt lat="42.1826180" lon="-8.7875410">
        <ele>75.5</ele>
        <time>2021-05-20T08:10:02Z</time>
      </trkpt>
      <trkpt lat="42.1826300" lon="-8.7875440">
        <ele>75.6</ele>
        <time>2021-05-20T08:10:03Z</time>
      </trkpt>
      <trkpt lat="42.1826300" lon="-8.7875460">
        <ele>75.6</ele>
        <time>2021-05-20T08:10:04Z</time>
      </trkpt>
      <trkpt lat="42.1826300" lon="-8.7875470">
        <ele>75.6</ele>
        <time>2021-05-20T08:10:05Z</time>
      </trkpt>
      <trkpt lat="42.1826300" lon="-8.7875460">
        <ele>75.6</ele>
        <time>2021-05-20T08:10:06Z</time>
      </trkpt>
      <trkpt lat="42.1826280" lon="-8.7875450">
        <ele>75.6</ele>
        <time>2021-05-20T08:10:07Z</time>
      </trkpt>
      <trkpt lat="42.1826220" lon="-8.7875460">
        <ele>75.6</ele>
        <time>2021-05-20T08:10:08Z</time>
      </trkpt>
      <trkpt lat="42.1826180" lon="-8.7875440">
        <ele>75.6</ele>
        <time>2021-05-20T08:10:09Z</time>
      </trkpt>
      <trkpt lat="42.1826200" lon="-8.7875470">
        <ele>75.6</ele>
        <time>2021-05-20T08:10:10Z</time>
      </trkpt>
      <trkpt lat="42.1826190" lon="-8.7875490">
        <ele>75.6</ele>
        <time>2021-05-20T08:10:11Z</time>
      </trkpt>
      <trkpt lat="42.1826110" lon="-8.7875460">
        <ele>75.6</ele>
        <time>2021-05-20T08:10:12Z</time>
      </trkpt>
      <trkpt lat="42.1826070" lon="-8.7875480">
        <ele>75.6</ele>
        <time>2021-05-20T08:10:13Z</time>
      </trkpt>
      <trkpt lat="42.1825970" lon="-8.7875540">
        <ele>75.6</ele>
        <time>2021-05-20T08:10:14Z</time>
      </trkpt>
      <trkpt lat="42.1825890" lon="-8.7875600">
        <ele>75.6</ele>
        <time>2021-05-20T08:10:15Z</time>
      </trkpt>
      <trkpt lat="42.1825810" lon="-8.7875620">
        <ele>75.6</ele>
        <time>2021-05-20T08:10:16Z</time>
      </trkpt>
      <trkpt lat="42.1825740" lon="-8.7875640">
        <ele>75.6</ele>
        <time>2021-05-20T08:10:17Z</time>
      </trkpt>
      <trkpt lat="42.1825660" lon="-8.7875660">
        <ele>75.6</ele>
        <time>2021-05-20T08:10:18Z</time>
      </trkpt>
      <trkpt lat="42.1825590" lon="-8.7875680">
        <ele>75.6</ele>
        <time>2021-05-20T08:10:19Z</time>
      </trkpt>
      <trkpt lat="42.1825510" lon="-8.7875700">
        <ele>75.6</ele>
        <time>2021-05-20T08:10:20Z</time>
      </trkpt>
      <trkpt lat="42.1825440" lon="-8.7875720">
        <ele>75.6</ele>
        <time>2021-05-20T08:10:21Z</time>
      </trkpt>
      <trkpt lat="42.1825440" lon="-8.7875730">
        <ele>75.6</ele>
        <time>2021-05-20T08:10:22Z</time>
      </trkpt>
      <trkpt lat="42.1825430" lon="-8.7875780">
        <ele>75.6</ele>
        <time>2021-05-20T08:10:23Z</time>
      </trkpt>
      <trkpt lat="42.1825430" lon="-8.7875780">
        <ele>75.6</ele>
        <time>2021-05-20T08:10:24Z</time>
      </trkpt>
      <trkpt lat="42.1825430" lon="-8.7875780">
        <ele>75.6</ele>
        <time>2021-05-20T08:10:25Z</time>
      </trkpt>
      <trkpt lat="42.1825430" lon="-8.7875780">
        <ele>75.6</ele>
        <time>2021-05-20T08:10:26Z</time>
      </trkpt>
      <trkpt lat="42.1825430" lon="-8.7875780">
        <ele>75.6</ele>
        <time>2021-05-20T08:10:27Z</time>
      </trkpt>
      <trkpt lat="42.1825430" lon="-8.7875780">
        <ele>75.6</ele>
        <time>2021-05-20T08:10:28Z</time>
      </trkpt>
      <trkpt lat="42.1825300" lon="-8.7875970">
        <ele>75.6</ele>
        <time>2021-05-20T08:10:29Z</time>
      </trkpt>
      <trkpt lat="42.1825300" lon="-8.7875980">
        <ele>75.6</ele>
        <time>2021-05-20T08:10:30Z</time>
      </trkpt>
      <trkpt lat="42.1825300" lon="-8.7875990">
        <ele>75.6</ele>
        <time>2021-05-20T08:10:31Z</time>
      </trkpt>
      <trkpt lat="42.1825240" lon="-8.7876090">
        <ele>75.6</ele>
        <time>2021-05-20T08:10:32Z</time>
      </trkpt>
      <trkpt lat="42.1825240" lon="-8.7876090">
        <ele>75.6</ele>
        <time>2021-05-20T08:10:33Z</time>
      </trkpt>
      <trkpt lat="42.1825280" lon="-8.7876140">
        <ele>75.6</ele>
        <time>2021-05-20T08:10:34Z</time>
      </trkpt>
      <trkpt lat="42.1825300" lon="-8.7876130">
        <ele>75.6</ele>
        <time>2021-05-20T08:10:35Z</time>
      </trkpt>
      <trkpt lat="42.1825290" lon="-8.7876170">
        <ele>75.6</ele>
        <time>2021-05-20T08:10:36Z</time>
      </trkpt>
      <trkpt lat="42.1825290" lon="-8.7876160">
        <ele>75.6</ele>
        <time>2021-05-20T08:10:37Z</time>
      </trkpt>
      <trkpt lat="42.1825380" lon="-8.7876060">
        <ele>75.6</ele>
        <time>2021-05-20T08:10:38Z</time>
      </trkpt>
      <trkpt lat="42.1825510" lon="-8.7876040">
        <ele>75.6</ele>
        <time>2021-05-20T08:10:39Z</time>
      </trkpt>
      <trkpt lat="42.1825800" lon="-8.7875980">
        <ele>75.6</ele>
        <time>2021-05-20T08:10:40Z</time>
      </trkpt>
      <trkpt lat="42.1825880" lon="-8.7875970">
        <ele>75.7</ele>
        <time>2021-05-20T08:10:41Z</time>
      </trkpt>
      <trkpt lat="42.1826120" lon="-8.7875850">
        <ele>75.7</ele>
        <time>2021-05-20T08:10:42Z</time>
      </trkpt>
      <trkpt lat="42.1826230" lon="-8.7875810">
        <ele>75.7</ele>
        <time>2021-05-20T08:10:43Z</time>
      </trkpt>
      <trkpt lat="42.1826570" lon="-8.7875780">
        <ele>75.7</ele>
        <time>2021-05-20T08:10:44Z</time>
      </trkpt>
      <trkpt lat="42.1826690" lon="-8.7875770">
        <ele>75.7</ele>
        <time>2021-05-20T08:10:45Z</time>
      </trkpt>
      <trkpt lat="42.1826950" lon="-8.7875590">
        <ele>75.7</ele>
        <time>2021-05-20T08:10:46Z</time>
      </trkpt>
      <trkpt lat="42.1827060" lon="-8.7875510">
        <ele>75.8</ele>
        <time>2021-05-20T08:10:47Z</time>
      </trkpt>
      <trkpt lat="42.1827280" lon="-8.7875530">
        <ele>75.8</ele>
        <time>2021-05-20T08:10:48Z</time>
      </trkpt>
      <trkpt lat="42.1827370" lon="-8.7875540">
        <ele>75.8</ele>
        <time>2021-05-20T08:10:49Z</time>
      </trkpt>
      <trkpt lat="42.1827510" lon="-8.7875530">
        <ele>75.8</ele>
        <time>2021-05-20T08:10:50Z</time>
      </trkpt>
      <trkpt lat="42.1827690" lon="-8.7875460">
        <ele>75.8</ele>
        <time>2021-05-20T08:10:51Z</time>
      </trkpt>
      <trkpt lat="42.1827970" lon="-8.7875520">
        <ele>75.8</ele>
        <time>2021-05-20T08:10:52Z</time>
      </trkpt>
      <trkpt lat="42.1828110" lon="-8.7875570">
        <ele>75.8</ele>
        <time>2021-05-20T08:10:53Z</time>
      </trkpt>
      <trkpt lat="42.1828280" lon="-8.7875600">
        <ele>75.9</ele>
        <time>2021-05-20T08:10:54Z</time>
      </trkpt>
      <trkpt lat="42.1828590" lon="-8.7875420">
        <ele>75.9</ele>
        <time>2021-05-20T08:10:55Z</time>
      </trkpt>
      <trkpt lat="42.1828650" lon="-8.7875390">
        <ele>75.9</ele>
        <time>2021-05-20T08:10:56Z</time>
      </trkpt>
      <trkpt lat="42.1828940" lon="-8.7875310">
        <ele>75.9</ele>
        <time>2021-05-20T08:10:57Z</time>
      </trkpt>
      <trkpt lat="42.1829040" lon="-8.7875270">
        <ele>75.9</ele>
        <time>2021-05-20T08:10:58Z</time>
      </trkpt>
      <trkpt lat="42.1829400" lon="-8.7875230">
        <ele>76.0</ele>
        <time>2021-05-20T08:10:59Z</time>
      </trkpt>
      <trkpt lat="42.1829490" lon="-8.7875170">
        <ele>76.0</ele>
        <time>2021-05-20T08:11:00Z</time>
      </trkpt>
      <trkpt lat="42.1829810" lon="-8.7875120">
        <ele>76.0</ele>
        <time>2021-05-20T08:11:01Z</time>
      </trkpt>
      <trkpt lat="42.1829910" lon="-8.7875110">
        <ele>76.0</ele>
        <time>2021-05-20T08:11:02Z</time>
      </trkpt>
      <trkpt lat="42.1830090" lon="-8.7875100">
        <ele>76.0</ele>
        <time>2021-05-20T08:11:03Z</time>
      </trkpt>
      <trkpt lat="42.1830260" lon="-8.7875030">
        <ele>76.1</ele>
        <time>2021-05-20T08:11:04Z</time>
      </trkpt>
      <trkpt lat="42.1830430" lon="-8.7875010">
        <ele>76.1</ele>
        <time>2021-05-20T08:11:05Z</time>
      </trkpt>
      <trkpt lat="42.1830600" lon="-8.7874970">
        <ele>76.1</ele>
        <time>2021-05-20T08:11:06Z</time>
      </trkpt>
      <trkpt lat="42.1830780" lon="-8.7874950">
        <ele>76.1</ele>
        <time>2021-05-20T08:11:07Z</time>
      </trkpt>
      <trkpt lat="42.1830940" lon="-8.7874920">
        <ele>76.1</ele>
        <time>2021-05-20T08:11:08Z</time>
      </trkpt>
      <trkpt lat="42.1831100" lon="-8.7874900">
        <ele>76.2</ele>
        <time>2021-05-20T08:11:09Z</time>
      </trkpt>
      <trkpt lat="42.1831260" lon="-8.7874910">
        <ele>76.2</ele>
        <time>2021-05-20T08:11:10Z</time>
      </trkpt>
      <trkpt lat="42.1831450" lon="-8.7874910">
        <ele>76.2</ele>
        <time>2021-05-20T08:11:11Z</time>
      </trkpt>
      <trkpt lat="42.1831600" lon="-8.7874970">
        <ele>76.2</ele>
        <time>2021-05-20T08:11:12Z</time>
      </trkpt>
      <trkpt lat="42.1831780" lon="-8.7874950">
        <ele>76.2</ele>
        <time>2021-05-20T08:11:13Z</time>
      </trkpt>
      <trkpt lat="42.1831950" lon="-8.7874920">
        <ele>76.3</ele>
        <time>2021-05-20T08:11:14Z</time>
      </trkpt>
      <trkpt lat="42.1832110" lon="-8.7874910">
        <ele>76.3</ele>
        <time>2021-05-20T08:11:15Z</time>
      </trkpt>
      <trkpt lat="42.1832230" lon="-8.7874860">
        <ele>76.3</ele>
        <time>2021-05-20T08:11:16Z</time>
      </trkpt>
      <trkpt lat="42.1832370" lon="-8.7874850">
        <ele>76.3</ele>
        <time>2021-05-20T08:11:17Z</time>
      </trkpt>
      <trkpt lat="42.1832520" lon="-8.7874880">
        <ele>76.3</ele>
        <time>2021-05-20T08:11:18Z</time>
      </trkpt>
      <trkpt lat="42.1832700" lon="-8.7874870">
        <ele>76.3</ele>
        <time>2021-05-20T08:11:19Z</time>
      </trkpt>
      <trkpt lat="42.1832870" lon="-8.7874880">
        <ele>76.4</ele>
        <time>2021-05-20T08:11:20Z</time>
      </trkpt>
      <trkpt lat="42.1833160" lon="-8.7874860">
        <ele>76.4</ele>
        <time>2021-05-20T08:11:21Z</time>
      </trkpt>
      <trkpt lat="42.1833240" lon="-8.7874870">
        <ele>76.4</ele>
        <time>2021-05-20T08:11:22Z</time>
      </trkpt>
      <trkpt lat="42.1833410" lon="-8.7874860">
        <ele>76.4</ele>
        <time>2021-05-20T08:11:23Z</time>
      </trkpt>
      <trkpt lat="42.1833550" lon="-8.7874860">
        <ele>76.4</ele>
        <time>2021-05-20T08:11:24Z</time>
      </trkpt>
      <trkpt lat="42.1833810" lon="-8.7874760">
        <ele>76.4</ele>
        <time>2021-05-20T08:11:25Z</time>
      </trkpt>
      <trkpt lat="42.1833900" lon="-8.7874710">
        <ele>76.4</ele>
        <time>2021-05-20T08:11:26Z</time>
      </trkpt>
      <trkpt lat="42.1834130" lon="-8.7874500">
        <ele>76.4</ele>
        <time>2021-05-20T08:11:27Z</time>
      </trkpt>
      <trkpt lat="42.1834200" lon="-8.7874410">
        <ele>76.4</ele>
        <time>2021-05-20T08:11:28Z</time>
      </trkpt>
      <trkpt lat="42.1834350" lon="-8.7874280">
        <ele>76.4</ele>
        <time>2021-05-20T08:11:29Z</time>
      </trkpt>
      <trkpt lat="42.1834490" lon="-8.7874140">
        <ele>76.4</ele>
        <time>2021-05-20T08:11:30Z</time>
      </trkpt>
      <trkpt lat="42.1834610" lon="-8.7874030">
        <ele>76.4</ele>
        <time>2021-05-20T08:11:31Z</time>
      </trkpt>
      <trkpt lat="42.1834800" lon="-8.7873910">
        <ele>76.5</ele>
        <time>2021-05-20T08:11:32Z</time>
      </trkpt>
      <trkpt lat="42.1834980" lon="-8.7873780">
        <ele>76.5</ele>
        <time>2021-05-20T08:11:33Z</time>
      </trkpt>
      <trkpt lat="42.1835100" lon="-8.7873650">
        <ele>76.5</ele>
        <time>2021-05-20T08:11:34Z</time>
      </trkpt>
      <trkpt lat="42.1835260" lon="-8.7873560">
        <ele>76.5</ele>
        <time>2021-05-20T08:11:35Z</time>
      </trkpt>
      <trkpt lat="42.1835420" lon="-8.7873510">
        <ele>76.5</ele>
        <time>2021-05-20T08:11:36Z</time>
      </trkpt>
      <trkpt lat="42.1835570" lon="-8.7873410">
        <ele>76.5</ele>
        <time>2021-05-20T08:11:37Z</time>
      </trkpt>
      <trkpt lat="42.1835670" lon="-8.7873290">
        <ele>76.5</ele>
        <time>2021-05-20T08:11:38Z</time>
      </trkpt>
      <trkpt lat="42.1835770" lon="-8.7873170">
        <ele>76.5</ele>
        <time>2021-05-20T08:11:39Z</time>
      </trkpt>
      <trkpt lat="42.1835880" lon="-8.7873030">
        <ele>76.5</ele>
        <time>2021-05-20T08:11:40Z</time>
      </trkpt>
      <trkpt lat="42.1836020" lon="-8.7872850">
        <ele>76.6</ele>
        <time>2021-05-20T08:11:41Z</time>
      </trkpt>
      <trkpt lat="42.1836140" lon="-8.7872800">
        <ele>76.6</ele>
        <time>2021-05-20T08:11:42Z</time>
      </trkpt>
      <trkpt lat="42.1836310" lon="-8.7872700">
        <ele>76.6</ele>
        <time>2021-05-20T08:11:43Z</time>
      </trkpt>
      <trkpt lat="42.1836400" lon="-8.7872560">
        <ele>76.6</ele>
        <time>2021-05-20T08:11:44Z</time>
      </trkpt>
      <trkpt lat="42.1836540" lon="-8.7872430">
        <ele>76.7</ele>
        <time>2021-05-20T08:11:45Z</time>
      </trkpt>
      <trkpt lat="42.1836640" lon="-8.7872300">
        <ele>76.7</ele>
        <time>2021-05-20T08:11:46Z</time>
      </trkpt>
      <trkpt lat="42.1836750" lon="-8.7872100">
        <ele>76.7</ele>
        <time>2021-05-20T08:11:47Z</time>
      </trkpt>
      <trkpt lat="42.1836830" lon="-8.7871970">
        <ele>76.8</ele>
        <time>2021-05-20T08:11:48Z</time>
      </trkpt>
      <trkpt lat="42.1836960" lon="-8.7871870">
        <ele>76.8</ele>
        <time>2021-05-20T08:11:49Z</time>
      </trkpt>
      <trkpt lat="42.1837060" lon="-8.7871750">
        <ele>76.8</ele>
        <time>2021-05-20T08:11:50Z</time>
      </trkpt>
      <trkpt lat="42.1837160" lon="-8.7871630">
        <ele>76.9</ele>
        <time>2021-05-20T08:11:51Z</time>
      </trkpt>
      <trkpt lat="42.1837280" lon="-8.7871500">
        <ele>76.9</ele>
        <time>2021-05-20T08:11:52Z</time>
      </trkpt>
      <trkpt lat="42.1837470" lon="-8.7871390">
        <ele>76.9</ele>
        <time>2021-05-20T08:11:53Z</time>
      </trkpt>
      <trkpt lat="42.1837560" lon="-8.7871280">
        <ele>77.0</ele>
        <time>2021-05-20T08:11:54Z</time>
      </trkpt>
      <trkpt lat="42.1837650" lon="-8.7871170">
        <ele>77.0</ele>
        <time>2021-05-20T08:11:55Z</time>
      </trkpt>
      <trkpt lat="42.1837760" lon="-8.7871040">
        <ele>77.0</ele>
        <time>2021-05-20T08:11:56Z</time>
      </trkpt>
      <trkpt lat="42.1837940" lon="-8.7870840">
        <ele>77.1</ele>
        <time>2021-05-20T08:11:57Z</time>
      </trkpt>
      <trkpt lat="42.1838000" lon="-8.7870760">
        <ele>77.1</ele>
        <time>2021-05-20T08:11:58Z</time>
      </trkpt>
      <trkpt lat="42.1838060" lon="-8.7870680">
        <ele>77.1</ele>
        <time>2021-05-20T08:11:59Z</time>
      </trkpt>
      <trkpt lat="42.1838190" lon="-8.7870540">
        <ele>77.2</ele>
        <time>2021-05-20T08:12:00Z</time>
      </trkpt>
      <trkpt lat="42.1838330" lon="-8.7870400">
        <ele>77.2</ele>
        <time>2021-05-20T08:12:01Z</time>
      </trkpt>
      <trkpt lat="42.1838410" lon="-8.7870220">
        <ele>77.3</ele>
        <time>2021-05-20T08:12:02Z</time>
      </trkpt>
      <trkpt lat="42.1838530" lon="-8.7870090">
        <ele>77.3</ele>
        <time>2021-05-20T08:12:03Z</time>
      </trkpt>
      <trkpt lat="42.1838690" lon="-8.7869900">
        <ele>77.3</ele>
        <time>2021-05-20T08:12:04Z</time>
      </trkpt>
      <trkpt lat="42.1838770" lon="-8.7869820">
        <ele>77.3</ele>
        <time>2021-05-20T08:12:05Z</time>
      </trkpt>
      <trkpt lat="42.1838850" lon="-8.7869730">
        <ele>77.3</ele>
        <time>2021-05-20T08:12:06Z</time>
      </trkpt>
      <trkpt lat="42.1838970" lon="-8.7869620">
        <ele>77.4</ele>
        <time>2021-05-20T08:12:07Z</time>
      </trkpt>
      <trkpt lat="42.1839110" lon="-8.7869490">
        <ele>77.4</ele>
        <time>2021-05-20T08:12:08Z</time>
      </trkpt>
      <trkpt lat="42.1839200" lon="-8.7869340">
        <ele>77.4</ele>
        <time>2021-05-20T08:12:09Z</time>
      </trkpt>
      <trkpt lat="42.1839340" lon="-8.7869240">
        <ele>77.4</ele>
        <time>2021-05-20T08:12:10Z</time>
      </trkpt>
      <trkpt lat="42.1839450" lon="-8.7869080">
        <ele>77.4</ele>
        <time>2021-05-20T08:12:11Z</time>
      </trkpt>
      <trkpt lat="42.1839600" lon="-8.7868990">
        <ele>77.4</ele>
        <time>2021-05-20T08:12:12Z</time>
      </trkpt>
      <trkpt lat="42.1839770" lon="-8.7868810">
        <ele>77.3</ele>
        <time>2021-05-20T08:12:13Z</time>
      </trkpt>
      <trkpt lat="42.1839850" lon="-8.7868760">
        <ele>77.3</ele>
        <time>2021-05-20T08:12:14Z</time>
      </trkpt>
      <trkpt lat="42.1839940" lon="-8.7868710">
        <ele>77.3</ele>
        <time>2021-05-20T08:12:15Z</time>
      </trkpt>
      <trkpt lat="42.1840060" lon="-8.7868560">
        <ele>77.3</ele>
        <time>2021-05-20T08:12:16Z</time>
      </trkpt>
      <trkpt lat="42.1840190" lon="-8.7868440">
        <ele>77.3</ele>
        <time>2021-05-20T08:12:17Z</time>
      </trkpt>
      <trkpt lat="42.1840280" lon="-8.7868300">
        <ele>77.2</ele>
        <time>2021-05-20T08:12:18Z</time>
      </trkpt>
      <trkpt lat="42.1840400" lon="-8.7868180">
        <ele>77.2</ele>
        <time>2021-05-20T08:12:19Z</time>
      </trkpt>
      <trkpt lat="42.1840530" lon="-8.7868050">
        <ele>77.1</ele>
        <time>2021-05-20T08:12:20Z</time>
      </trkpt>
      <trkpt lat="42.1840620" lon="-8.7867910">
        <ele>77.1</ele>
        <time>2021-05-20T08:12:21Z</time>
      </trkpt>
      <trkpt lat="42.1840720" lon="-8.7867790">
        <ele>77.0</ele>
        <time>2021-05-20T08:12:22Z</time>
      </trkpt>
      <trkpt lat="42.1840820" lon="-8.7867640">
        <ele>77.0</ele>
        <time>2021-05-20T08:12:23Z</time>
      </trkpt>
      <trkpt lat="42.1840980" lon="-8.7867440">
        <ele>76.9</ele>
        <time>2021-05-20T08:12:24Z</time>
      </trkpt>
      <trkpt lat="42.1841040" lon="-8.7867360">
        <ele>76.9</ele>
        <time>2021-05-20T08:12:25Z</time>
      </trkpt>
      <trkpt lat="42.1841100" lon="-8.7867280">
        <ele>76.8</ele>
        <time>2021-05-20T08:12:26Z</time>
      </trkpt>
      <trkpt lat="42.1841280" lon="-8.7867150">
        <ele>76.6</ele>
        <time>2021-05-20T08:12:27Z</time>
      </trkpt>
      <trkpt lat="42.1841360" lon="-8.7867100">
        <ele>76.5</ele>
        <time>2021-05-20T08:12:28Z</time>
      </trkpt>
      <trkpt lat="42.1841440" lon="-8.7867050">
        <ele>76.5</ele>
        <time>2021-05-20T08:12:29Z</time>
      </trkpt>
      <trkpt lat="42.1841640" lon="-8.7866930">
        <ele>76.3</ele>
        <time>2021-05-20T08:12:30Z</time>
      </trkpt>
      <trkpt lat="42.1841710" lon="-8.7866890">
        <ele>76.2</ele>
        <time>2021-05-20T08:12:31Z</time>
      </trkpt>
      <trkpt lat="42.1841790" lon="-8.7866840">
        <ele>76.1</ele>
        <time>2021-05-20T08:12:32Z</time>
      </trkpt>
      <trkpt lat="42.1841920" lon="-8.7866720">
        <ele>76.0</ele>
        <time>2021-05-20T08:12:33Z</time>
      </trkpt>
      <trkpt lat="42.1842040" lon="-8.7866620">
        <ele>75.8</ele>
        <time>2021-05-20T08:12:34Z</time>
      </trkpt>
      <trkpt lat="42.1842230" lon="-8.7866500">
        <ele>75.7</ele>
        <time>2021-05-20T08:12:35Z</time>
      </trkpt>
      <trkpt lat="42.1842320" lon="-8.7866450">
        <ele>75.6</ele>
        <time>2021-05-20T08:12:36Z</time>
      </trkpt>
      <trkpt lat="42.1842400" lon="-8.7866390">
        <ele>75.5</ele>
        <time>2021-05-20T08:12:37Z</time>
      </trkpt>
      <trkpt lat="42.1842510" lon="-8.7866290">
        <ele>75.4</ele>
        <time>2021-05-20T08:12:38Z</time>
      </trkpt>
      <trkpt lat="42.1842630" lon="-8.7866190">
        <ele>75.2</ele>
        <time>2021-05-20T08:12:39Z</time>
      </trkpt>
      <trkpt lat="42.1842750" lon="-8.7866160">
        <ele>75.1</ele>
        <time>2021-05-20T08:12:40Z</time>
      </trkpt>
      <trkpt lat="42.1842890" lon="-8.7866090">
        <ele>75.0</ele>
        <time>2021-05-20T08:12:41Z</time>
      </trkpt>
      <trkpt lat="42.1843010" lon="-8.7866030">
        <ele>74.9</ele>
        <time>2021-05-20T08:12:42Z</time>
      </trkpt>
      <trkpt lat="42.1843150" lon="-8.7865950">
        <ele>74.8</ele>
        <time>2021-05-20T08:12:43Z</time>
      </trkpt>
      <trkpt lat="42.1843270" lon="-8.7865930">
        <ele>74.7</ele>
        <time>2021-05-20T08:12:44Z</time>
      </trkpt>
      <trkpt lat="42.1843370" lon="-8.7865850">
        <ele>74.6</ele>
        <time>2021-05-20T08:12:45Z</time>
      </trkpt>
      <trkpt lat="42.1843480" lon="-8.7865770">
        <ele>74.5</ele>
        <time>2021-05-20T08:12:46Z</time>
      </trkpt>
      <trkpt lat="42.1843590" lon="-8.7865730">
        <ele>74.4</ele>
        <time>2021-05-20T08:12:47Z</time>
      </trkpt>
      <trkpt lat="42.1843700" lon="-8.7865690">
        <ele>74.3</ele>
        <time>2021-05-20T08:12:48Z</time>
      </trkpt>
      <trkpt lat="42.1843820" lon="-8.7865610">
        <ele>74.3</ele>
        <time>2021-05-20T08:12:49Z</time>
      </trkpt>
      <trkpt lat="42.1843920" lon="-8.7865530">
        <ele>74.2</ele>
        <time>2021-05-20T08:12:50Z</time>
      </trkpt>
      <trkpt lat="42.1844040" lon="-8.7865490">
        <ele>74.1</ele>
        <time>2021-05-20T08:12:51Z</time>
      </trkpt>
      <trkpt lat="42.1844140" lon="-8.7865440">
        <ele>74.0</ele>
        <time>2021-05-20T08:12:52Z</time>
      </trkpt>
      <trkpt lat="42.1844250" lon="-8.7865370">
        <ele>74.0</ele>
        <time>2021-05-20T08:12:53Z</time>
      </trkpt>
      <trkpt lat="42.1844340" lon="-8.7865190">
        <ele>73.9</ele>
        <time>2021-05-20T08:12:54Z</time>
      </trkpt>
      <trkpt lat="42.1844420" lon="-8.7865100">
        <ele>73.8</ele>
        <time>2021-05-20T08:12:55Z</time>
      </trkpt>
      <trkpt lat="42.1844510" lon="-8.7864990">
        <ele>73.7</ele>
        <time>2021-05-20T08:12:56Z</time>
      </trkpt>
      <trkpt lat="42.1844640" lon="-8.7864920">
        <ele>73.7</ele>
        <time>2021-05-20T08:12:57Z</time>
      </trkpt>
      <trkpt lat="42.1844740" lon="-8.7864870">
        <ele>73.6</ele>
        <time>2021-05-20T08:12:58Z</time>
      </trkpt>
      <trkpt lat="42.1844860" lon="-8.7864840">
        <ele>73.6</ele>
        <time>2021-05-20T08:12:59Z</time>
      </trkpt>
      <trkpt lat="42.1844980" lon="-8.7864780">
        <ele>73.5</ele>
        <time>2021-05-20T08:13:00Z</time>
      </trkpt>
      <trkpt lat="42.1845080" lon="-8.7864630">
        <ele>73.4</ele>
        <time>2021-05-20T08:13:01Z</time>
      </trkpt>
      <trkpt lat="42.1845180" lon="-8.7864500">
        <ele>73.4</ele>
        <time>2021-05-20T08:13:02Z</time>
      </trkpt>
      <trkpt lat="42.1845410" lon="-8.7864430">
        <ele>73.3</ele>
        <time>2021-05-20T08:13:03Z</time>
      </trkpt>
      <trkpt lat="42.1845490" lon="-8.7864400">
        <ele>73.2</ele>
        <time>2021-05-20T08:13:04Z</time>
      </trkpt>
      <trkpt lat="42.1845570" lon="-8.7864360">
        <ele>73.2</ele>
        <time>2021-05-20T08:13:05Z</time>
      </trkpt>
      <trkpt lat="42.1845690" lon="-8.7864280">
        <ele>73.2</ele>
        <time>2021-05-20T08:13:06Z</time>
      </trkpt>
      <trkpt lat="42.1845830" lon="-8.7864210">
        <ele>73.1</ele>
        <time>2021-05-20T08:13:07Z</time>
      </trkpt>
      <trkpt lat="42.1845940" lon="-8.7864120">
        <ele>73.0</ele>
        <time>2021-05-20T08:13:08Z</time>
      </trkpt>
      <trkpt lat="42.1846090" lon="-8.7864080">
        <ele>73.0</ele>
        <time>2021-05-20T08:13:09Z</time>
      </trkpt>
      <trkpt lat="42.1846260" lon="-8.7863890">
        <ele>72.9</ele>
        <time>2021-05-20T08:13:10Z</time>
      </trkpt>
      <trkpt lat="42.1846310" lon="-8.7863810">
        <ele>72.9</ele>
        <time>2021-05-20T08:13:11Z</time>
      </trkpt>
      <trkpt lat="42.1846370" lon="-8.7863730">
        <ele>72.9</ele>
        <time>2021-05-20T08:13:12Z</time>
      </trkpt>
      <trkpt lat="42.1846500" lon="-8.7863670">
        <ele>72.8</ele>
        <time>2021-05-20T08:13:13Z</time>
      </trkpt>
      <trkpt lat="42.1846610" lon="-8.7863520">
        <ele>72.8</ele>
        <time>2021-05-20T08:13:14Z</time>
      </trkpt>
      <trkpt lat="42.1846800" lon="-8.7863360">
        <ele>72.7</ele>
        <time>2021-05-20T08:13:15Z</time>
      </trkpt>
      <trkpt lat="42.1846870" lon="-8.7863300">
        <ele>72.7</ele>
        <time>2021-05-20T08:13:16Z</time>
      </trkpt>
      <trkpt lat="42.1846940" lon="-8.7863230">
        <ele>72.7</ele>
        <time>2021-05-20T08:13:17Z</time>
      </trkpt>
      <trkpt lat="42.1847090" lon="-8.7863050">
        <ele>72.6</ele>
        <time>2021-05-20T08:13:18Z</time>
      </trkpt>
      <trkpt lat="42.1847160" lon="-8.7862980">
        <ele>72.6</ele>
        <time>2021-05-20T08:13:19Z</time>
      </trkpt>
      <trkpt lat="42.1847230" lon="-8.7862910">
        <ele>72.5</ele>
        <time>2021-05-20T08:13:20Z</time>
      </trkpt>
      <trkpt lat="42.1847400" lon="-8.7862730">
        <ele>72.5</ele>
        <time>2021-05-20T08:13:21Z</time>
      </trkpt>
      <trkpt lat="42.1847460" lon="-8.7862660">
        <ele>72.5</ele>
        <time>2021-05-20T08:13:22Z</time>
      </trkpt>
      <trkpt lat="42.1847520" lon="-8.7862590">
        <ele>72.5</ele>
        <time>2021-05-20T08:13:23Z</time>
      </trkpt>
      <trkpt lat="42.1847680" lon="-8.7862420">
        <ele>72.4</ele>
        <time>2021-05-20T08:13:24Z</time>
      </trkpt>
      <trkpt lat="42.1847750" lon="-8.7862350">
        <ele>72.4</ele>
        <time>2021-05-20T08:13:25Z</time>
      </trkpt>
      <trkpt lat="42.1847820" lon="-8.7862280">
        <ele>72.4</ele>
        <time>2021-05-20T08:13:26Z</time>
      </trkpt>
      <trkpt lat="42.1847960" lon="-8.7862230">
        <ele>72.3</ele>
        <time>2021-05-20T08:13:27Z</time>
      </trkpt>
      <trkpt lat="42.1848090" lon="-8.7862180">
        <ele>72.3</ele>
        <time>2021-05-20T08:13:28Z</time>
      </trkpt>
      <trkpt lat="42.1848260" lon="-8.7862020">
        <ele>72.3</ele>
        <time>2021-05-20T08:13:29Z</time>
      </trkpt>
      <trkpt lat="42.1848320" lon="-8.7861960">
        <ele>72.3</ele>
        <time>2021-05-20T08:13:30Z</time>
      </trkpt>
      <trkpt lat="42.1848390" lon="-8.7861890">
        <ele>72.2</ele>
        <time>2021-05-20T08:13:31Z</time>
      </trkpt>
      <trkpt lat="42.1848580" lon="-8.7861750">
        <ele>72.2</ele>
        <time>2021-05-20T08:13:32Z</time>
      </trkpt>
      <trkpt lat="42.1848650" lon="-8.7861680">
        <ele>72.2</ele>
        <time>2021-05-20T08:13:33Z</time>
      </trkpt>
      <trkpt lat="42.1848730" lon="-8.7861610">
        <ele>72.2</ele>
        <time>2021-05-20T08:13:34Z</time>
      </trkpt>
      <trkpt lat="42.1848920" lon="-8.7861480">
        <ele>72.2</ele>
        <time>2021-05-20T08:13:35Z</time>
      </trkpt>
      <trkpt lat="42.1848990" lon="-8.7861410">
        <ele>72.1</ele>
        <time>2021-05-20T08:13:36Z</time>
      </trkpt>
      <trkpt lat="42.1849060" lon="-8.7861340">
        <ele>72.1</ele>
        <time>2021-05-20T08:13:37Z</time>
      </trkpt>
      <trkpt lat="42.1849250" lon="-8.7861200">
        <ele>72.1</ele>
        <time>2021-05-20T08:13:38Z</time>
      </trkpt>
      <trkpt lat="42.1849320" lon="-8.7861140">
        <ele>72.1</ele>
        <time>2021-05-20T08:13:39Z</time>
      </trkpt>
      <trkpt lat="42.1849390" lon="-8.7861070">
        <ele>72.1</ele>
        <time>2021-05-20T08:13:40Z</time>
      </trkpt>
      <trkpt lat="42.1849560" lon="-8.7860920">
        <ele>72.1</ele>
        <time>2021-05-20T08:13:41Z</time>
      </trkpt>
      <trkpt lat="42.1849640" lon="-8.7860860">
        <ele>72.1</ele>
        <time>2021-05-20T08:13:42Z</time>
      </trkpt>
      <trkpt lat="42.1849710" lon="-8.7860800">
        <ele>72.1</ele>
        <time>2021-05-20T08:13:43Z</time>
      </trkpt>
      <trkpt lat="42.1849840" lon="-8.7860720">
        <ele>72.0</ele>
        <time>2021-05-20T08:13:44Z</time>
      </trkpt>
      <trkpt lat="42.1849980" lon="-8.7860710">
        <ele>72.0</ele>
        <time>2021-05-20T08:13:45Z</time>
      </trkpt>
      <trkpt lat="42.1850120" lon="-8.7860680">
        <ele>72.0</ele>
        <time>2021-05-20T08:13:46Z</time>
      </trkpt>
      <trkpt lat="42.1850230" lon="-8.7860550">
        <ele>72.0</ele>
        <time>2021-05-20T08:13:47Z</time>
      </trkpt>
      <trkpt lat="42.1850350" lon="-8.7860480">
        <ele>72.0</ele>
        <time>2021-05-20T08:13:48Z</time>
      </trkpt>
      <trkpt lat="42.1850490" lon="-8.7860400">
        <ele>72.0</ele>
        <time>2021-05-20T08:13:49Z</time>
      </trkpt>
      <trkpt lat="42.1850660" lon="-8.7860220">
        <ele>72.0</ele>
        <time>2021-05-20T08:13:50Z</time>
      </trkpt>
      <trkpt lat="42.1850740" lon="-8.7860140">
        <ele>72.0</ele>
        <time>2021-05-20T08:13:51Z</time>
      </trkpt>
      <trkpt lat="42.1850810" lon="-8.7860070">
        <ele>72.0</ele>
        <time>2021-05-20T08:13:52Z</time>
      </trkpt>
      <trkpt lat="42.1850950" lon="-8.7860020">
        <ele>72.0</ele>
        <time>2021-05-20T08:13:53Z</time>
      </trkpt>
      <trkpt lat="42.1851090" lon="-8.7859950">
        <ele>72.0</ele>
        <time>2021-05-20T08:13:54Z</time>
      </trkpt>
      <trkpt lat="42.1851220" lon="-8.7859860">
        <ele>72.0</ele>
        <time>2021-05-20T08:13:56Z</time>
      </trkpt>
      <trkpt lat="42.1851340" lon="-8.7859750">
        <ele>72.0</ele>
        <time>2021-05-20T08:13:57Z</time>
      </trkpt>
      <trkpt lat="42.1851470" lon="-8.7859640">
        <ele>72.0</ele>
        <time>2021-05-20T08:13:58Z</time>
      </trkpt>
      <trkpt lat="42.1851620" lon="-8.7859540">
        <ele>72.0</ele>
        <time>2021-05-20T08:13:59Z</time>
      </trkpt>
      <trkpt lat="42.1851760" lon="-8.7859440">
        <ele>72.0</ele>
        <time>2021-05-20T08:14:00Z</time>
      </trkpt>
      <trkpt lat="42.1851880" lon="-8.7859310">
        <ele>72.0</ele>
        <time>2021-05-20T08:14:01Z</time>
      </trkpt>
      <trkpt lat="42.1851960" lon="-8.7859150">
        <ele>72.0</ele>
        <time>2021-05-20T08:14:02Z</time>
      </trkpt>
      <trkpt lat="42.1852090" lon="-8.7859040">
        <ele>72.0</ele>
        <time>2021-05-20T08:14:03Z</time>
      </trkpt>
      <trkpt lat="42.1852200" lon="-8.7858890">
        <ele>72.0</ele>
        <time>2021-05-20T08:14:04Z</time>
      </trkpt>
      <trkpt lat="42.1852290" lon="-8.7858730">
        <ele>72.0</ele>
        <time>2021-05-20T08:14:05Z</time>
      </trkpt>
      <trkpt lat="42.1852410" lon="-8.7858610">
        <ele>72.0</ele>
        <time>2021-05-20T08:14:06Z</time>
      </trkpt>
      <trkpt lat="42.1852550" lon="-8.7858520">
        <ele>72.0</ele>
        <time>2021-05-20T08:14:07Z</time>
      </trkpt>
      <trkpt lat="42.1852680" lon="-8.7858300">
        <ele>72.0</ele>
        <time>2021-05-20T08:14:08Z</time>
      </trkpt>
      <trkpt lat="42.1852750" lon="-8.7858230">
        <ele>72.0</ele>
        <time>2021-05-20T08:14:09Z</time>
      </trkpt>
      <trkpt lat="42.1852810" lon="-8.7858160">
        <ele>72.0</ele>
        <time>2021-05-20T08:14:10Z</time>
      </trkpt>
      <trkpt lat="42.1853060" lon="-8.7858000">
        <ele>72.0</ele>
        <time>2021-05-20T08:14:11Z</time>
      </trkpt>
      <trkpt lat="42.1853150" lon="-8.7857890">
        <ele>72.0</ele>
        <time>2021-05-20T08:14:12Z</time>
      </trkpt>
      <trkpt lat="42.1853200" lon="-8.7857740">
        <ele>72.0</ele>
        <time>2021-05-20T08:14:13Z</time>
      </trkpt>
      <trkpt lat="42.1853220" lon="-8.7857570">
        <ele>72.0</ele>
        <time>2021-05-20T08:14:14Z</time>
      </trkpt>
      <trkpt lat="42.1853200" lon="-8.7857450">
        <ele>72.0</ele>
        <time>2021-05-20T08:14:15Z</time>
      </trkpt>
      <trkpt lat="42.1853270" lon="-8.7857310">
        <ele>72.1</ele>
        <time>2021-05-20T08:14:16Z</time>
      </trkpt>
      <trkpt lat="42.1853210" lon="-8.7857180">
        <ele>72.1</ele>
        <time>2021-05-20T08:14:17Z</time>
      </trkpt>
      <trkpt lat="42.1853190" lon="-8.7857050">
        <ele>72.1</ele>
        <time>2021-05-20T08:14:18Z</time>
      </trkpt>
      <trkpt lat="42.1853250" lon="-8.7856930">
        <ele>72.1</ele>
        <time>2021-05-20T08:14:19Z</time>
      </trkpt>
      <trkpt lat="42.1853290" lon="-8.7856830">
        <ele>72.1</ele>
        <time>2021-05-20T08:14:20Z</time>
      </trkpt>
      <trkpt lat="42.1853320" lon="-8.7856730">
        <ele>72.1</ele>
        <time>2021-05-20T08:14:21Z</time>
      </trkpt>
      <trkpt lat="42.1853420" lon="-8.7856540">
        <ele>72.1</ele>
        <time>2021-05-20T08:14:22Z</time>
      </trkpt>
      <trkpt lat="42.1853430" lon="-8.7856440">
        <ele>72.1</ele>
        <time>2021-05-20T08:14:23Z</time>
      </trkpt>
      <trkpt lat="42.1853590" lon="-8.7856240">
        <ele>72.1</ele>
        <time>2021-05-20T08:14:24Z</time>
      </trkpt>
      <trkpt lat="42.1853640" lon="-8.7856040">
        <ele>72.2</ele>
        <time>2021-05-20T08:14:25Z</time>
      </trkpt>
      <trkpt lat="42.1853740" lon="-8.7855920">
        <ele>72.2</ele>
        <time>2021-05-20T08:14:26Z</time>
      </trkpt>
      <trkpt lat="42.1853820" lon="-8.7855850">
        <ele>72.2</ele>
        <time>2021-05-20T08:14:27Z</time>
      </trkpt>
      <trkpt lat="42.1853890" lon="-8.7855770">
        <ele>72.2</ele>
        <time>2021-05-20T08:14:28Z</time>
      </trkpt>
      <trkpt lat="42.1853960" lon="-8.7855690">
        <ele>72.2</ele>
        <time>2021-05-20T08:14:29Z</time>
      </trkpt>
      <trkpt lat="42.1853950" lon="-8.7855570">
        <ele>72.2</ele>
        <time>2021-05-20T08:14:30Z</time>
      </trkpt>
      <trkpt lat="42.1853970" lon="-8.7855410">
        <ele>72.2</ele>
        <time>2021-05-20T08:14:31Z</time>
      </trkpt>
      <trkpt lat="42.1854060" lon="-8.7855260">
        <ele>72.2</ele>
        <time>2021-05-20T08:14:32Z</time>
      </trkpt>
      <trkpt lat="42.1854140" lon="-8.7855110">
        <ele>72.2</ele>
        <time>2021-05-20T08:14:33Z</time>
      </trkpt>
      <trkpt lat="42.1854170" lon="-8.7854980">
        <ele>72.2</ele>
        <time>2021-05-20T08:14:34Z</time>
      </trkpt>
      <trkpt lat="42.1854230" lon="-8.7854860">
        <ele>72.2</ele>
        <time>2021-05-20T08:14:35Z</time>
      </trkpt>
      <trkpt lat="42.1854270" lon="-8.7854730">
        <ele>72.2</ele>
        <time>2021-05-20T08:14:36Z</time>
      </trkpt>
      <trkpt lat="42.1854320" lon="-8.7854580">
        <ele>72.3</ele>
        <time>2021-05-20T08:14:37Z</time>
      </trkpt>
      <trkpt lat="42.1854390" lon="-8.7854470">
        <ele>72.3</ele>
        <time>2021-05-20T08:14:38Z</time>
      </trkpt>
      <trkpt lat="42.1854430" lon="-8.7854360">
        <ele>72.3</ele>
        <time>2021-05-20T08:14:39Z</time>
      </trkpt>
      <trkpt lat="42.1854540" lon="-8.7854150">
        <ele>72.3</ele>
        <time>2021-05-20T08:14:40Z</time>
      </trkpt>
      <trkpt lat="42.1854640" lon="-8.7854010">
        <ele>72.3</ele>
        <time>2021-05-20T08:14:41Z</time>
      </trkpt>
      <trkpt lat="42.1854750" lon="-8.7853860">
        <ele>72.3</ele>
        <time>2021-05-20T08:14:42Z</time>
      </trkpt>
      <trkpt lat="42.1854860" lon="-8.7853720">
        <ele>72.3</ele>
        <time>2021-05-20T08:14:43Z</time>
      </trkpt>
      <trkpt lat="42.1854930" lon="-8.7853570">
        <ele>72.3</ele>
        <time>2021-05-20T08:14:44Z</time>
      </trkpt>
      <trkpt lat="42.1854970" lon="-8.7853420">
        <ele>72.3</ele>
        <time>2021-05-20T08:14:45Z</time>
      </trkpt>
      <trkpt lat="42.1854950" lon="-8.7853330">
        <ele>72.3</ele>
        <time>2021-05-20T08:14:46Z</time>
      </trkpt>
      <trkpt lat="42.1855060" lon="-8.7853190">
        <ele>72.3</ele>
        <time>2021-05-20T08:14:47Z</time>
      </trkpt>
      <trkpt lat="42.1855100" lon="-8.7853090">
        <ele>72.3</ele>
        <time>2021-05-20T08:14:48Z</time>
      </trkpt>
      <trkpt lat="42.1855200" lon="-8.7852940">
        <ele>72.3</ele>
        <time>2021-05-20T08:14:49Z</time>
      </trkpt>
      <trkpt lat="42.1855290" lon="-8.7852860">
        <ele>72.3</ele>
        <time>2021-05-20T08:14:50Z</time>
      </trkpt>
      <trkpt lat="42.1855390" lon="-8.7852800">
        <ele>72.3</ele>
        <time>2021-05-20T08:14:51Z</time>
      </trkpt>
      <trkpt lat="42.1855550" lon="-8.7852680">
        <ele>72.3</ele>
        <time>2021-05-20T08:14:52Z</time>
      </trkpt>
      <trkpt lat="42.1855540" lon="-8.7852550">
        <ele>72.3</ele>
        <time>2021-05-20T08:14:53Z</time>
      </trkpt>
      <trkpt lat="42.1855640" lon="-8.7852460">
        <ele>72.3</ele>
        <time>2021-05-20T08:14:54Z</time>
      </trkpt>
      <trkpt lat="42.1855710" lon="-8.7852380">
        <ele>72.3</ele>
        <time>2021-05-20T08:14:55Z</time>
      </trkpt>
      <trkpt lat="42.1855780" lon="-8.7852300">
        <ele>72.3</ele>
        <time>2021-05-20T08:14:56Z</time>
      </trkpt>
      <trkpt lat="42.1855840" lon="-8.7852200">
        <ele>72.3</ele>
        <time>2021-05-20T08:14:57Z</time>
      </trkpt>
      <trkpt lat="42.1855880" lon="-8.7852070">
        <ele>72.3</ele>
        <time>2021-05-20T08:14:58Z</time>
      </trkpt>
      <trkpt lat="42.1855920" lon="-8.7851840">
        <ele>72.4</ele>
        <time>2021-05-20T08:14:59Z</time>
      </trkpt>
      <trkpt lat="42.1855950" lon="-8.7851710">
        <ele>72.4</ele>
        <time>2021-05-20T08:15:00Z</time>
      </trkpt>
      <trkpt lat="42.1856010" lon="-8.7851560">
        <ele>72.4</ele>
        <time>2021-05-20T08:15:01Z</time>
      </trkpt>
      <trkpt lat="42.1856120" lon="-8.7851420">
        <ele>72.4</ele>
        <time>2021-05-20T08:15:02Z</time>
      </trkpt>
      <trkpt lat="42.1856190" lon="-8.7851260">
        <ele>72.4</ele>
        <time>2021-05-20T08:15:03Z</time>
      </trkpt>
      <trkpt lat="42.1856210" lon="-8.7851110">
        <ele>72.4</ele>
        <time>2021-05-20T08:15:04Z</time>
      </trkpt>
      <trkpt lat="42.1856230" lon="-8.7850970">
        <ele>72.4</ele>
        <time>2021-05-20T08:15:05Z</time>
      </trkpt>
      <trkpt lat="42.1856300" lon="-8.7850880">
        <ele>72.4</ele>
        <time>2021-05-20T08:15:06Z</time>
      </trkpt>
      <trkpt lat="42.1856390" lon="-8.7850720">
        <ele>72.4</ele>
        <time>2021-05-20T08:15:07Z</time>
      </trkpt>
      <trkpt lat="42.1856450" lon="-8.7850650">
        <ele>72.4</ele>
        <time>2021-05-20T08:15:08Z</time>
      </trkpt>
      <trkpt lat="42.1856400" lon="-8.7850650">
        <ele>72.4</ele>
        <time>2021-05-20T08:15:09Z</time>
      </trkpt>
      <trkpt lat="42.1856360" lon="-8.7850680">
        <ele>72.4</ele>
        <time>2021-05-20T08:15:10Z</time>
      </trkpt>
      <trkpt lat="42.1856360" lon="-8.7850660">
        <ele>72.4</ele>
        <time>2021-05-20T08:15:11Z</time>
      </trkpt>
      <trkpt lat="42.1856330" lon="-8.7850620">
        <ele>72.4</ele>
        <time>2021-05-20T08:15:12Z</time>
      </trkpt>
      <trkpt lat="42.1856350" lon="-8.7850630">
        <ele>72.4</ele>
        <time>2021-05-20T08:15:13Z</time>
      </trkpt>
      <trkpt lat="42.1856290" lon="-8.7850610">
        <ele>72.4</ele>
        <time>2021-05-20T08:15:14Z</time>
      </trkpt>
      <trkpt lat="42.1856250" lon="-8.7850590">
        <ele>72.4</ele>
        <time>2021-05-20T08:15:15Z</time>
      </trkpt>
      <trkpt lat="42.1856210" lon="-8.7850620">
        <ele>72.4</ele>
        <time>2021-05-20T08:15:16Z</time>
      </trkpt>
      <trkpt lat="42.1856210" lon="-8.7850620">
        <ele>72.4</ele>
        <time>2021-05-20T08:15:17Z</time>
      </trkpt>
      <trkpt lat="42.1856120" lon="-8.7850650">
        <ele>72.5</ele>
        <time>2021-05-20T08:15:18Z</time>
      </trkpt>
      <trkpt lat="42.1856000" lon="-8.7850640">
        <ele>72.5</ele>
        <time>2021-05-20T08:15:19Z</time>
      </trkpt>
      <trkpt lat="42.1855940" lon="-8.7850630">
        <ele>72.5</ele>
        <time>2021-05-20T08:15:20Z</time>
      </trkpt>
      <trkpt lat="42.1855880" lon="-8.7850630">
        <ele>72.5</ele>
        <time>2021-05-20T08:15:21Z</time>
      </trkpt>
      <trkpt lat="42.1855810" lon="-8.7850630">
        <ele>72.5</ele>
        <time>2021-05-20T08:15:22Z</time>
      </trkpt>
      <trkpt lat="42.1855750" lon="-8.7850620">
        <ele>72.5</ele>
        <time>2021-05-20T08:15:23Z</time>
      </trkpt>
      <trkpt lat="42.1855690" lon="-8.7850620">
        <ele>72.5</ele>
        <time>2021-05-20T08:15:24Z</time>
      </trkpt>
      <trkpt lat="42.1855680" lon="-8.7850610">
        <ele>72.5</ele>
        <time>2021-05-20T08:15:25Z</time>
      </trkpt>
      <trkpt lat="42.1855650" lon="-8.7850590">
        <ele>72.5</ele>
        <time>2021-05-20T08:15:26Z</time>
      </trkpt>
      <trkpt lat="42.1855650" lon="-8.7850600">
        <ele>72.5</ele>
        <time>2021-05-20T08:15:27Z</time>
      </trkpt>
      <trkpt lat="42.1855680" lon="-8.7850580">
        <ele>72.5</ele>
        <time>2021-05-20T08:15:28Z</time>
      </trkpt>
      <trkpt lat="42.1855620" lon="-8.7850540">
        <ele>72.5</ele>
        <time>2021-05-20T08:15:29Z</time>
      </trkpt>
      <trkpt lat="42.1855610" lon="-8.7850540">
        <ele>72.5</ele>
        <time>2021-05-20T08:15:30Z</time>
      </trkpt>
      <trkpt lat="42.1855630" lon="-8.7850530">
        <ele>72.6</ele>
        <time>2021-05-20T08:15:31Z</time>
      </trkpt>
      <trkpt lat="42.1855670" lon="-8.7850550">
        <ele>72.6</ele>
        <time>2021-05-20T08:15:32Z</time>
      </trkpt>
      <trkpt lat="42.1855700" lon="-8.7850610">
        <ele>72.6</ele>
        <time>2021-05-20T08:15:33Z</time>
      </trkpt>
      <trkpt lat="42.1855770" lon="-8.7850640">
        <ele>72.6</ele>
        <time>2021-05-20T08:15:34Z</time>
      </trkpt>
      <trkpt lat="42.1855830" lon="-8.7850680">
        <ele>72.6</ele>
        <time>2021-05-20T08:15:35Z</time>
      </trkpt>
      <trkpt lat="42.1855880" lon="-8.7850660">
        <ele>72.6</ele>
        <time>2021-05-20T08:15:36Z</time>
      </trkpt>
      <trkpt lat="42.1855840" lon="-8.7850680">
        <ele>72.6</ele>
        <time>2021-05-20T08:15:37Z</time>
      </trkpt>
      <trkpt lat="42.1855860" lon="-8.7850690">
        <ele>72.6</ele>
        <time>2021-05-20T08:15:38Z</time>
      </trkpt>
      <trkpt lat="42.1855990" lon="-8.7850680">
        <ele>72.6</ele>
        <time>2021-05-20T08:15:39Z</time>
      </trkpt>
      <trkpt lat="42.1856000" lon="-8.7850680">
        <ele>72.6</ele>
        <time>2021-05-20T08:15:41Z</time>
      </trkpt>
      <trkpt lat="42.1856030" lon="-8.7850650">
        <ele>72.6</ele>
        <time>2021-05-20T08:15:42Z</time>
      </trkpt>
      <trkpt lat="42.1856060" lon="-8.7850630">
        <ele>72.6</ele>
        <time>2021-05-20T08:15:43Z</time>
      </trkpt>
      <trkpt lat="42.1856090" lon="-8.7850600">
        <ele>72.7</ele>
        <time>2021-05-20T08:15:44Z</time>
      </trkpt>
      <trkpt lat="42.1856120" lon="-8.7850580">
        <ele>72.7</ele>
        <time>2021-05-20T08:15:45Z</time>
      </trkpt>
      <trkpt lat="42.1856150" lon="-8.7850550">
        <ele>72.7</ele>
        <time>2021-05-20T08:15:46Z</time>
      </trkpt>
      <trkpt lat="42.1856180" lon="-8.7850530">
        <ele>72.7</ele>
        <time>2021-05-20T08:15:47Z</time>
      </trkpt>
      <trkpt lat="42.1856210" lon="-8.7850510">
        <ele>72.7</ele>
        <time>2021-05-20T08:15:48Z</time>
      </trkpt>
      <trkpt lat="42.1856240" lon="-8.7850480">
        <ele>72.7</ele>
        <time>2021-05-20T08:15:49Z</time>
      </trkpt>
      <trkpt lat="42.1856270" lon="-8.7850460">
        <ele>72.7</ele>
        <time>2021-05-20T08:15:50Z</time>
      </trkpt>
      <trkpt lat="42.1856300" lon="-8.7850430">
        <ele>72.7</ele>
        <time>2021-05-20T08:15:51Z</time>
      </trkpt>
      <trkpt lat="42.1856330" lon="-8.7850410">
        <ele>72.7</ele>
        <time>2021-05-20T08:15:52Z</time>
      </trkpt>
      <trkpt lat="42.1856360" lon="-8.7850380">
        <ele>72.7</ele>
        <time>2021-05-20T08:15:53Z</time>
      </trkpt>
      <trkpt lat="42.1856390" lon="-8.7850360">
        <ele>72.7</ele>
        <time>2021-05-20T08:15:54Z</time>
      </trkpt>
      <trkpt lat="42.1856420" lon="-8.7850330">
        <ele>72.7</ele>
        <time>2021-05-20T08:15:55Z</time>
      </trkpt>
      <trkpt lat="42.1856450" lon="-8.7850310">
        <ele>72.7</ele>
        <time>2021-05-20T08:15:56Z</time>
      </trkpt>
      <trkpt lat="42.1856480" lon="-8.7850290">
        <ele>72.7</ele>
        <time>2021-05-20T08:15:57Z</time>
      </trkpt>
      <trkpt lat="42.1856510" lon="-8.7850260">
        <ele>72.7</ele>
        <time>2021-05-20T08:15:58Z</time>
      </trkpt>
      <trkpt lat="42.1856540" lon="-8.7850240">
        <ele>72.7</ele>
        <time>2021-05-20T08:15:59Z</time>
      </trkpt>
      <trkpt lat="42.1856580" lon="-8.7850210">
        <ele>72.7</ele>
        <time>2021-05-20T08:16:00Z</time>
      </trkpt>
      <trkpt lat="42.1856610" lon="-8.7850190">
        <ele>72.8</ele>
        <time>2021-05-20T08:16:01Z</time>
      </trkpt>
      <trkpt lat="42.1856640" lon="-8.7850160">
        <ele>72.8</ele>
        <time>2021-05-20T08:16:02Z</time>
      </trkpt>
      <trkpt lat="42.1856670" lon="-8.7850140">
        <ele>72.8</ele>
        <time>2021-05-20T08:16:03Z</time>
      </trkpt>
      <trkpt lat="42.1856700" lon="-8.7850120">
        <ele>72.8</ele>
        <time>2021-05-20T08:16:04Z</time>
      </trkpt>
      <trkpt lat="42.1856730" lon="-8.7850090">
        <ele>72.8</ele>
        <time>2021-05-20T08:16:05Z</time>
      </trkpt>
      <trkpt lat="42.1856760" lon="-8.7850070">
        <ele>72.8</ele>
        <time>2021-05-20T08:16:06Z</time>
      </trkpt>
      <trkpt lat="42.1856790" lon="-8.7850040">
        <ele>72.8</ele>
        <time>2021-05-20T08:16:07Z</time>
      </trkpt>
      <trkpt lat="42.1856820" lon="-8.7850020">
        <ele>72.8</ele>
        <time>2021-05-20T08:16:08Z</time>
      </trkpt>
      <trkpt lat="42.1856850" lon="-8.7849990">
        <ele>72.8</ele>
        <time>2021-05-20T08:16:09Z</time>
      </trkpt>
      <trkpt lat="42.1856880" lon="-8.7849970">
        <ele>72.8</ele>
        <time>2021-05-20T08:16:10Z</time>
      </trkpt>
      <trkpt lat="42.1856910" lon="-8.7849940">
        <ele>72.8</ele>
        <time>2021-05-20T08:16:11Z</time>
      </trkpt>
      <trkpt lat="42.1856940" lon="-8.7849920">
        <ele>72.8</ele>
        <time>2021-05-20T08:16:12Z</time>
      </trkpt>
      <trkpt lat="42.1856970" lon="-8.7849900">
        <ele>72.8</ele>
        <time>2021-05-20T08:16:13Z</time>
      </trkpt>
      <trkpt lat="42.1857000" lon="-8.7849870">
        <ele>72.8</ele>
        <time>2021-05-20T08:16:14Z</time>
      </trkpt>
      <trkpt lat="42.1857030" lon="-8.7849850">
        <ele>72.8</ele>
        <time>2021-05-20T08:16:15Z</time>
      </trkpt>
      <trkpt lat="42.1857060" lon="-8.7849820">
        <ele>72.8</ele>
        <time>2021-05-20T08:16:16Z</time>
      </trkpt>
      <trkpt lat="42.1857090" lon="-8.7849800">
        <ele>72.8</ele>
        <time>2021-05-20T08:16:17Z</time>
      </trkpt>
      <trkpt lat="42.1857120" lon="-8.7849770">
        <ele>72.8</ele>
        <time>2021-05-20T08:16:18Z</time>
      </trkpt>
      <trkpt lat="42.1857150" lon="-8.7849750">
        <ele>72.8</ele>
        <time>2021-05-20T08:16:19Z</time>
      </trkpt>
      <trkpt lat="42.1857310" lon="-8.7849550">
        <ele>72.9</ele>
        <time>2021-05-20T08:16:20Z</time>
      </trkpt>
      <trkpt lat="42.1857360" lon="-8.7849480">
        <ele>72.9</ele>
        <time>2021-05-20T08:16:21Z</time>
      </trkpt>
      <trkpt lat="42.1857420" lon="-8.7849410">
        <ele>72.9</ele>
        <time>2021-05-20T08:16:22Z</time>
      </trkpt>
      <trkpt lat="42.1857530" lon="-8.7849190">
        <ele>72.9</ele>
        <time>2021-05-20T08:16:23Z</time>
      </trkpt>
      <trkpt lat="42.1857530" lon="-8.7849030">
        <ele>72.9</ele>
        <time>2021-05-20T08:16:24Z</time>
      </trkpt>
      <trkpt lat="42.1857670" lon="-8.7848820">
        <ele>72.9</ele>
        <time>2021-05-20T08:16:25Z</time>
      </trkpt>
      <trkpt lat="42.1857730" lon="-8.7848700">
        <ele>72.9</ele>
        <time>2021-05-20T08:16:26Z</time>
      </trkpt>
      <trkpt lat="42.1857800" lon="-8.7848590">
        <ele>72.9</ele>
        <time>2021-05-20T08:16:27Z</time>
      </trkpt>
      <trkpt lat="42.1857900" lon="-8.7848410">
        <ele>72.9</ele>
        <time>2021-05-20T08:16:28Z</time>
      </trkpt>
      <trkpt lat="42.1857960" lon="-8.7848350">
        <ele>72.9</ele>
        <time>2021-05-20T08:16:29Z</time>
      </trkpt>
      <trkpt lat="42.1857990" lon="-8.7848230">
        <ele>72.9</ele>
        <time>2021-05-20T08:16:30Z</time>
      </trkpt>
      <trkpt lat="42.1858140" lon="-8.7848000">
        <ele>72.9</ele>
        <time>2021-05-20T08:16:31Z</time>
      </trkpt>
      <trkpt lat="42.1858190" lon="-8.7847910">
        <ele>72.9</ele>
        <time>2021-05-20T08:16:32Z</time>
      </trkpt>
      <trkpt lat="42.1858250" lon="-8.7847830">
        <ele>72.9</ele>
        <time>2021-05-20T08:16:33Z</time>
      </trkpt>
      <trkpt lat="42.1858280" lon="-8.7847700">
        <ele>72.9</ele>
        <time>2021-05-20T08:16:34Z</time>
      </trkpt>
      <trkpt lat="42.1858380" lon="-8.7847560">
        <ele>72.9</ele>
        <time>2021-05-20T08:16:35Z</time>
      </trkpt>
      <trkpt lat="42.1858420" lon="-8.7847400">
        <ele>72.9</ele>
        <time>2021-05-20T08:16:36Z</time>
      </trkpt>
      <trkpt lat="42.1858400" lon="-8.7847120">
        <ele>72.9</ele>
        <time>2021-05-20T08:16:37Z</time>
      </trkpt>
      <trkpt lat="42.1858570" lon="-8.7846970">
        <ele>72.9</ele>
        <time>2021-05-20T08:16:38Z</time>
      </trkpt>
      <trkpt lat="42.1858670" lon="-8.7846730">
        <ele>72.9</ele>
        <time>2021-05-20T08:16:39Z</time>
      </trkpt>
      <trkpt lat="42.1858740" lon="-8.7846600">
        <ele>72.8</ele>
        <time>2021-05-20T08:16:40Z</time>
      </trkpt>
      <trkpt lat="42.1858800" lon="-8.7846460">
        <ele>72.8</ele>
        <time>2021-05-20T08:16:41Z</time>
      </trkpt>
      <trkpt lat="42.1858790" lon="-8.7846260">
        <ele>72.8</ele>
        <time>2021-05-20T08:16:42Z</time>
      </trkpt>
      <trkpt lat="42.1858810" lon="-8.7846080">
        <ele>72.8</ele>
        <time>2021-05-20T08:16:43Z</time>
      </trkpt>
      <trkpt lat="42.1858870" lon="-8.7846020">
        <ele>72.8</ele>
        <time>2021-05-20T08:16:44Z</time>
      </trkpt>
      <trkpt lat="42.1858920" lon="-8.7845960">
        <ele>72.8</ele>
        <time>2021-05-20T08:16:45Z</time>
      </trkpt>
      <trkpt lat="42.1859040" lon="-8.7845820">
        <ele>72.8</ele>
        <time>2021-05-20T08:16:46Z</time>
      </trkpt>
      <trkpt lat="42.1859080" lon="-8.7845650">
        <ele>72.8</ele>
        <time>2021-05-20T08:16:47Z</time>
      </trkpt>
      <trkpt lat="42.1859100" lon="-8.7845460">
        <ele>72.8</ele>
        <time>2021-05-20T08:16:48Z</time>
      </trkpt>
      <trkpt lat="42.1859180" lon="-8.7845290">
        <ele>72.7</ele>
        <time>2021-05-20T08:16:49Z</time>
      </trkpt>
      <trkpt lat="42.1859210" lon="-8.7845070">
        <ele>72.7</ele>
        <time>2021-05-20T08:16:50Z</time>
      </trkpt>
      <trkpt lat="42.1859300" lon="-8.7844870">
        <ele>72.7</ele>
        <time>2021-05-20T08:16:51Z</time>
      </trkpt>
      <trkpt lat="42.1859360" lon="-8.7844730">
        <ele>72.7</ele>
        <time>2021-05-20T08:16:52Z</time>
      </trkpt>
      <trkpt lat="42.1859400" lon="-8.7844580">
        <ele>72.6</ele>
        <time>2021-05-20T08:16:53Z</time>
      </trkpt>
      <trkpt lat="42.1859480" lon="-8.7844400">
        <ele>72.6</ele>
        <time>2021-05-20T08:16:54Z</time>
      </trkpt>
      <trkpt lat="42.1859510" lon="-8.7844330">
        <ele>72.6</ele>
        <time>2021-05-20T08:16:55Z</time>
      </trkpt>
      <trkpt lat="42.1859620" lon="-8.7844180">
        <ele>72.6</ele>
        <time>2021-05-20T08:16:56Z</time>
      </trkpt>
      <trkpt lat="42.1859680" lon="-8.7844060">
        <ele>72.5</ele>
        <time>2021-05-20T08:16:57Z</time>
      </trkpt>
      <trkpt lat="42.1859740" lon="-8.7843820">
        <ele>72.5</ele>
        <time>2021-05-20T08:16:58Z</time>
      </trkpt>
      <trkpt lat="42.1859810" lon="-8.7843690">
        <ele>72.4</ele>
        <time>2021-05-20T08:16:59Z</time>
      </trkpt>
      <trkpt lat="42.1859880" lon="-8.7843560">
        <ele>72.4</ele>
        <time>2021-05-20T08:17:00Z</time>
      </trkpt>
      <trkpt lat="42.1859960" lon="-8.7843370">
        <ele>72.3</ele>
        <time>2021-05-20T08:17:01Z</time>
      </trkpt>
      <trkpt lat="42.1860000" lon="-8.7843220">
        <ele>72.3</ele>
        <time>2021-05-20T08:17:02Z</time>
      </trkpt>
      <trkpt lat="42.1860130" lon="-8.7842940">
        <ele>72.2</ele>
        <time>2021-05-20T08:17:03Z</time>
      </trkpt>
      <trkpt lat="42.1860170" lon="-8.7842830">
        <ele>72.2</ele>
        <time>2021-05-20T08:17:04Z</time>
      </trkpt>
      <trkpt lat="42.1860200" lon="-8.7842720">
        <ele>72.1</ele>
        <time>2021-05-20T08:17:05Z</time>
      </trkpt>
      <trkpt lat="42.1860280" lon="-8.7842590">
        <ele>72.1</ele>
        <time>2021-05-20T08:17:06Z</time>
      </trkpt>
      <trkpt lat="42.1860300" lon="-8.7842480">
        <ele>72.0</ele>
        <time>2021-05-20T08:17:07Z</time>
      </trkpt>
      <trkpt lat="42.1860350" lon="-8.7842390">
        <ele>72.0</ele>
        <time>2021-05-20T08:17:08Z</time>
      </trkpt>
      <trkpt lat="42.1860450" lon="-8.7842250">
        <ele>71.9</ele>
        <time>2021-05-20T08:17:09Z</time>
      </trkpt>
      <trkpt lat="42.1860520" lon="-8.7842170">
        <ele>71.9</ele>
        <time>2021-05-20T08:17:10Z</time>
      </trkpt>
      <trkpt lat="42.1860600" lon="-8.7842040">
        <ele>71.8</ele>
        <time>2021-05-20T08:17:11Z</time>
      </trkpt>
      <trkpt lat="42.1860630" lon="-8.7841930">
        <ele>71.7</ele>
        <time>2021-05-20T08:17:12Z</time>
      </trkpt>
      <trkpt lat="42.1860620" lon="-8.7841810">
        <ele>71.7</ele>
        <time>2021-05-20T08:17:13Z</time>
      </trkpt>
      <trkpt lat="42.1860660" lon="-8.7841680">
        <ele>71.6</ele>
        <time>2021-05-20T08:17:14Z</time>
      </trkpt>
      <trkpt lat="42.1860730" lon="-8.7841530">
        <ele>71.5</ele>
        <time>2021-05-20T08:17:15Z</time>
      </trkpt>
      <trkpt lat="42.1860740" lon="-8.7841400">
        <ele>71.4</ele>
        <time>2021-05-20T08:17:16Z</time>
      </trkpt>
      <trkpt lat="42.1860720" lon="-8.7841220">
        <ele>71.3</ele>
        <time>2021-05-20T08:17:17Z</time>
      </trkpt>
      <trkpt lat="42.1860710" lon="-8.7841040">
        <ele>71.2</ele>
        <time>2021-05-20T08:17:18Z</time>
      </trkpt>
      <trkpt lat="42.1860660" lon="-8.7840940">
        <ele>71.1</ele>
        <time>2021-05-20T08:17:19Z</time>
      </trkpt>
      <trkpt lat="42.1860630" lon="-8.7840830">
        <ele>71.1</ele>
        <time>2021-05-20T08:17:20Z</time>
      </trkpt>
      <trkpt lat="42.1860660" lon="-8.7840700">
        <ele>71.0</ele>
        <time>2021-05-20T08:17:21Z</time>
      </trkpt>
      <trkpt lat="42.1860630" lon="-8.7840550">
        <ele>70.9</ele>
        <time>2021-05-20T08:17:22Z</time>
      </trkpt>
      <trkpt lat="42.1860650" lon="-8.7840370">
        <ele>70.8</ele>
        <time>2021-05-20T08:17:23Z</time>
      </trkpt>
      <trkpt lat="42.1860610" lon="-8.7840240">
        <ele>70.7</ele>
        <time>2021-05-20T08:17:24Z</time>
      </trkpt>
      <trkpt lat="42.1860630" lon="-8.7840170">
        <ele>70.6</ele>
        <time>2021-05-20T08:17:25Z</time>
      </trkpt>
      <trkpt lat="42.1860600" lon="-8.7840090">
        <ele>70.6</ele>
        <time>2021-05-20T08:17:26Z</time>
      </trkpt>
      <trkpt lat="42.1860590" lon="-8.7840020">
        <ele>70.5</ele>
        <time>2021-05-20T08:17:27Z</time>
      </trkpt>
      <trkpt lat="42.1860520" lon="-8.7839910">
        <ele>70.5</ele>
        <time>2021-05-20T08:17:28Z</time>
      </trkpt>
      <trkpt lat="42.1860440" lon="-8.7839720">
        <ele>70.3</ele>
        <time>2021-05-20T08:17:29Z</time>
      </trkpt>
      <trkpt lat="42.1860410" lon="-8.7839590">
        <ele>70.3</ele>
        <time>2021-05-20T08:17:30Z</time>
      </trkpt>
      <trkpt lat="42.1860330" lon="-8.7839530">
        <ele>70.2</ele>
        <time>2021-05-20T08:17:31Z</time>
      </trkpt>
      <trkpt lat="42.1860210" lon="-8.7839310">
        <ele>70.1</ele>
        <time>2021-05-20T08:17:32Z</time>
      </trkpt>
      <trkpt lat="42.1860170" lon="-8.7839210">
        <ele>70.0</ele>
        <time>2021-05-20T08:17:33Z</time>
      </trkpt>
      <trkpt lat="42.1860120" lon="-8.7839120">
        <ele>70.0</ele>
        <time>2021-05-20T08:17:34Z</time>
      </trkpt>
      <trkpt lat="42.1860030" lon="-8.7838940">
        <ele>69.9</ele>
        <time>2021-05-20T08:17:35Z</time>
      </trkpt>
      <trkpt lat="42.1859990" lon="-8.7838790">
        <ele>69.8</ele>
        <time>2021-05-20T08:17:36Z</time>
      </trkpt>
      <trkpt lat="42.1859900" lon="-8.7838610">
        <ele>69.7</ele>
        <time>2021-05-20T08:17:37Z</time>
      </trkpt>
      <trkpt lat="42.1859800" lon="-8.7838490">
        <ele>69.6</ele>
        <time>2021-05-20T08:17:38Z</time>
      </trkpt>
      <trkpt lat="42.1859630" lon="-8.7838410">
        <ele>69.5</ele>
        <time>2021-05-20T08:17:39Z</time>
      </trkpt>
      <trkpt lat="42.1859570" lon="-8.7838270">
        <ele>69.5</ele>
        <time>2021-05-20T08:17:40Z</time>
      </trkpt>
      <trkpt lat="42.1859500" lon="-8.7838110">
        <ele>69.4</ele>
        <time>2021-05-20T08:17:41Z</time>
      </trkpt>
      <trkpt lat="42.1859460" lon="-8.7838030">
        <ele>69.4</ele>
        <time>2021-05-20T08:17:42Z</time>
      </trkpt>
      <trkpt lat="42.1859400" lon="-8.7837910">
        <ele>69.4</ele>
        <time>2021-05-20T08:17:43Z</time>
      </trkpt>
      <trkpt lat="42.1859390" lon="-8.7837860">
        <ele>69.4</ele>
        <time>2021-05-20T08:17:44Z</time>
      </trkpt>
      <trkpt lat="42.1859270" lon="-8.7837700">
        <ele>69.3</ele>
        <time>2021-05-20T08:17:45Z</time>
      </trkpt>
      <trkpt lat="42.1859210" lon="-8.7837560">
        <ele>69.2</ele>
        <time>2021-05-20T08:17:46Z</time>
      </trkpt>
      <trkpt lat="42.1859110" lon="-8.7837280">
        <ele>69.2</ele>
        <time>2021-05-20T08:17:47Z</time>
      </trkpt>
      <trkpt lat="42.1859070" lon="-8.7837160">
        <ele>69.2</ele>
        <time>2021-05-20T08:17:48Z</time>
      </trkpt>
      <trkpt lat="42.1859030" lon="-8.7837050">
        <ele>69.1</ele>
        <time>2021-05-20T08:17:49Z</time>
      </trkpt>
      <trkpt lat="42.1858930" lon="-8.7836850">
        <ele>69.1</ele>
        <time>2021-05-20T08:17:50Z</time>
      </trkpt>
      <trkpt lat="42.1858900" lon="-8.7836680">
        <ele>69.1</ele>
        <time>2021-05-20T08:17:51Z</time>
      </trkpt>
      <trkpt lat="42.1858780" lon="-8.7836430">
        <ele>69.1</ele>
        <time>2021-05-20T08:17:52Z</time>
      </trkpt>
      <trkpt lat="42.1858730" lon="-8.7836320">
        <ele>69.0</ele>
        <time>2021-05-20T08:17:53Z</time>
      </trkpt>
      <trkpt lat="42.1858670" lon="-8.7836210">
        <ele>69.0</ele>
        <time>2021-05-20T08:17:54Z</time>
      </trkpt>
      <trkpt lat="42.1858590" lon="-8.7836110">
        <ele>69.0</ele>
        <time>2021-05-20T08:17:55Z</time>
      </trkpt>
      <trkpt lat="42.1858520" lon="-8.7835920">
        <ele>69.0</ele>
        <time>2021-05-20T08:17:56Z</time>
      </trkpt>
      <trkpt lat="42.1858540" lon="-8.7835760">
        <ele>69.0</ele>
        <time>2021-05-20T08:17:57Z</time>
      </trkpt>
      <trkpt lat="42.1858580" lon="-8.7835530">
        <ele>69.0</ele>
        <time>2021-05-20T08:17:58Z</time>
      </trkpt>
      <trkpt lat="42.1858530" lon="-8.7835330">
        <ele>69.0</ele>
        <time>2021-05-20T08:17:59Z</time>
      </trkpt>
      <trkpt lat="42.1858510" lon="-8.7834940">
        <ele>69.0</ele>
        <time>2021-05-20T08:18:00Z</time>
      </trkpt>
      <trkpt lat="42.1858500" lon="-8.7834830">
        <ele>69.0</ele>
        <time>2021-05-20T08:18:01Z</time>
      </trkpt>
      <trkpt lat="42.1858450" lon="-8.7834690">
        <ele>69.0</ele>
        <time>2021-05-20T08:18:02Z</time>
      </trkpt>
      <trkpt lat="42.1858390" lon="-8.7834520">
        <ele>69.0</ele>
        <time>2021-05-20T08:18:03Z</time>
      </trkpt>
      <trkpt lat="42.1858380" lon="-8.7834390">
        <ele>69.0</ele>
        <time>2021-05-20T08:18:04Z</time>
      </trkpt>
      <trkpt lat="42.1858300" lon="-8.7834120">
        <ele>69.0</ele>
        <time>2021-05-20T08:18:05Z</time>
      </trkpt>
      <trkpt lat="42.1858300" lon="-8.7833990">
        <ele>69.0</ele>
        <time>2021-05-20T08:18:06Z</time>
      </trkpt>
      <trkpt lat="42.1858300" lon="-8.7833870">
        <ele>69.0</ele>
        <time>2021-05-20T08:18:07Z</time>
      </trkpt>
      <trkpt lat="42.1858260" lon="-8.7833660">
        <ele>69.0</ele>
        <time>2021-05-20T08:18:08Z</time>
      </trkpt>
      <trkpt lat="42.1858190" lon="-8.7833490">
        <ele>69.1</ele>
        <time>2021-05-20T08:18:09Z</time>
      </trkpt>
      <trkpt lat="42.1858190" lon="-8.7833320">
        <ele>69.1</ele>
        <time>2021-05-20T08:18:10Z</time>
      </trkpt>
      <trkpt lat="42.1858160" lon="-8.7833140">
        <ele>69.1</ele>
        <time>2021-05-20T08:18:11Z</time>
      </trkpt>
      <trkpt lat="42.1858120" lon="-8.7833060">
        <ele>69.1</ele>
        <time>2021-05-20T08:18:12Z</time>
      </trkpt>
      <trkpt lat="42.1858070" lon="-8.7832790">
        <ele>69.2</ele>
        <time>2021-05-20T08:18:13Z</time>
      </trkpt>
      <trkpt lat="42.1858050" lon="-8.7832680">
        <ele>69.2</ele>
        <time>2021-05-20T08:18:14Z</time>
      </trkpt>
      <trkpt lat="42.1858020" lon="-8.7832560">
        <ele>69.2</ele>
        <time>2021-05-20T08:18:15Z</time>
      </trkpt>
      <trkpt lat="42.1857970" lon="-8.7832380">
        <ele>69.3</ele>
        <time>2021-05-20T08:18:16Z</time>
      </trkpt>
      <trkpt lat="42.1857970" lon="-8.7832300">
        <ele>69.3</ele>
        <time>2021-05-20T08:18:17Z</time>
      </trkpt>
      <trkpt lat="42.1858060" lon="-8.7832080">
        <ele>69.3</ele>
        <time>2021-05-20T08:18:18Z</time>
      </trkpt>
      <trkpt lat="42.1858070" lon="-8.7831800">
        <ele>69.4</ele>
        <time>2021-05-20T08:18:19Z</time>
      </trkpt>
      <trkpt lat="42.1858070" lon="-8.7831680">
        <ele>69.4</ele>
        <time>2021-05-20T08:18:20Z</time>
      </trkpt>
      <trkpt lat="42.1858080" lon="-8.7831570">
        <ele>69.4</ele>
        <time>2021-05-20T08:18:21Z</time>
      </trkpt>
      <trkpt lat="42.1858010" lon="-8.7831330">
        <ele>69.5</ele>
        <time>2021-05-20T08:18:22Z</time>
      </trkpt>
      <trkpt lat="42.1858000" lon="-8.7831240">
        <ele>69.5</ele>
        <time>2021-05-20T08:18:23Z</time>
      </trkpt>
      <trkpt lat="42.1857990" lon="-8.7831110">
        <ele>69.5</ele>
        <time>2021-05-20T08:18:24Z</time>
      </trkpt>
      <trkpt lat="42.1857980" lon="-8.7830900">
        <ele>69.6</ele>
        <time>2021-05-20T08:18:25Z</time>
      </trkpt>
      <trkpt lat="42.1857990" lon="-8.7830750">
        <ele>69.6</ele>
        <time>2021-05-20T08:18:26Z</time>
      </trkpt>
      <trkpt lat="42.1858000" lon="-8.7830600">
        <ele>69.7</ele>
        <time>2021-05-20T08:18:27Z</time>
      </trkpt>
      <trkpt lat="42.1857960" lon="-8.7830450">
        <ele>69.7</ele>
        <time>2021-05-20T08:18:28Z</time>
      </trkpt>
      <trkpt lat="42.1857930" lon="-8.7830270">
        <ele>69.7</ele>
        <time>2021-05-20T08:18:29Z</time>
      </trkpt>
      <trkpt lat="42.1857860" lon="-8.7830170">
        <ele>69.8</ele>
        <time>2021-05-20T08:18:30Z</time>
      </trkpt>
      <trkpt lat="42.1857900" lon="-8.7830010">
        <ele>69.8</ele>
        <time>2021-05-20T08:18:31Z</time>
      </trkpt>
      <trkpt lat="42.1857830" lon="-8.7829880">
        <ele>69.8</ele>
        <time>2021-05-20T08:18:32Z</time>
      </trkpt>
      <trkpt lat="42.1857740" lon="-8.7829810">
        <ele>69.8</ele>
        <time>2021-05-20T08:18:33Z</time>
      </trkpt>
      <trkpt lat="42.1857650" lon="-8.7829650">
        <ele>69.9</ele>
        <time>2021-05-20T08:18:34Z</time>
      </trkpt>
      <trkpt lat="42.1857590" lon="-8.7829470">
        <ele>69.9</ele>
        <time>2021-05-20T08:18:35Z</time>
      </trkpt>
      <trkpt lat="42.1857580" lon="-8.7829190">
        <ele>70.0</ele>
        <time>2021-05-20T08:18:36Z</time>
      </trkpt>
      <trkpt lat="42.1857560" lon="-8.7829070">
        <ele>70.0</ele>
        <time>2021-05-20T08:18:37Z</time>
      </trkpt>
      <trkpt lat="42.1857550" lon="-8.7828940">
        <ele>70.0</ele>
        <time>2021-05-20T08:18:38Z</time>
      </trkpt>
      <trkpt lat="42.1857430" lon="-8.7828670">
        <ele>70.1</ele>
        <time>2021-05-20T08:18:39Z</time>
      </trkpt>
      <trkpt lat="42.1857400" lon="-8.7828570">
        <ele>70.1</ele>
        <time>2021-05-20T08:18:40Z</time>
      </trkpt>
      <trkpt lat="42.1857370" lon="-8.7828460">
        <ele>70.1</ele>
        <time>2021-05-20T08:18:41Z</time>
      </trkpt>
      <trkpt lat="42.1857280" lon="-8.7828290">
        <ele>70.1</ele>
        <time>2021-05-20T08:18:42Z</time>
      </trkpt>
      <trkpt lat="42.1857250" lon="-8.7828100">
        <ele>70.2</ele>
        <time>2021-05-20T08:18:43Z</time>
      </trkpt>
      <trkpt lat="42.1857190" lon="-8.7827880">
        <ele>70.2</ele>
        <time>2021-05-20T08:18:44Z</time>
      </trkpt>
      <trkpt lat="42.1857120" lon="-8.7827690">
        <ele>70.2</ele>
        <time>2021-05-20T08:18:45Z</time>
      </trkpt>
      <trkpt lat="42.1857070" lon="-8.7827390">
        <ele>70.3</ele>
        <time>2021-05-20T08:18:46Z</time>
      </trkpt>
      <trkpt lat="42.1857070" lon="-8.7827280">
        <ele>70.3</ele>
        <time>2021-05-20T08:18:47Z</time>
      </trkpt>
      <trkpt lat="42.1857060" lon="-8.7827160">
        <ele>70.3</ele>
        <time>2021-05-20T08:18:48Z</time>
      </trkpt>
      <trkpt lat="42.1857000" lon="-8.7827050">
        <ele>70.3</ele>
        <time>2021-05-20T08:18:49Z</time>
      </trkpt>
      <trkpt lat="42.1856940" lon="-8.7826920">
        <ele>70.3</ele>
        <time>2021-05-20T08:18:50Z</time>
      </trkpt>
      <trkpt lat="42.1856850" lon="-8.7826860">
        <ele>70.3</ele>
        <time>2021-05-20T08:18:51Z</time>
      </trkpt>
      <trkpt lat="42.1856700" lon="-8.7826600">
        <ele>70.3</ele>
        <time>2021-05-20T08:18:52Z</time>
      </trkpt>
      <trkpt lat="42.1856650" lon="-8.7826500">
        <ele>70.3</ele>
        <time>2021-05-20T08:18:53Z</time>
      </trkpt>
      <trkpt lat="42.1856590" lon="-8.7826390">
        <ele>70.3</ele>
        <time>2021-05-20T08:18:54Z</time>
      </trkpt>
      <trkpt lat="42.1856530" lon="-8.7826210">
        <ele>70.4</ele>
        <time>2021-05-20T08:18:55Z</time>
      </trkpt>
      <trkpt lat="42.1856480" lon="-8.7826050">
        <ele>70.4</ele>
        <time>2021-05-20T08:18:56Z</time>
      </trkpt>
      <trkpt lat="42.1856350" lon="-8.7825800">
        <ele>70.4</ele>
        <time>2021-05-20T08:18:57Z</time>
      </trkpt>
      <trkpt lat="42.1856280" lon="-8.7825720">
        <ele>70.4</ele>
        <time>2021-05-20T08:18:58Z</time>
      </trkpt>
      <trkpt lat="42.1856210" lon="-8.7825630">
        <ele>70.4</ele>
        <time>2021-05-20T08:18:59Z</time>
      </trkpt>
      <trkpt lat="42.1856180" lon="-8.7825430">
        <ele>70.4</ele>
        <time>2021-05-20T08:19:00Z</time>
      </trkpt>
      <trkpt lat="42.1856110" lon="-8.7825350">
        <ele>70.4</ele>
        <time>2021-05-20T08:19:01Z</time>
      </trkpt>
      <trkpt lat="42.1856000" lon="-8.7825230">
        <ele>70.4</ele>
        <time>2021-05-20T08:19:02Z</time>
      </trkpt>
      <trkpt lat="42.1855910" lon="-8.7825110">
        <ele>70.4</ele>
        <time>2021-05-20T08:19:03Z</time>
      </trkpt>
      <trkpt lat="42.1855850" lon="-8.7825000">
        <ele>70.4</ele>
        <time>2021-05-20T08:19:04Z</time>
      </trkpt>
      <trkpt lat="42.1855800" lon="-8.7824830">
        <ele>70.4</ele>
        <time>2021-05-20T08:19:05Z</time>
      </trkpt>
      <trkpt lat="42.1855720" lon="-8.7824690">
        <ele>70.4</ele>
        <time>2021-05-20T08:19:06Z</time>
      </trkpt>
      <trkpt lat="42.1855630" lon="-8.7824590">
        <ele>70.4</ele>
        <time>2021-05-20T08:19:07Z</time>
      </trkpt>
      <trkpt lat="42.1855560" lon="-8.7824520">
        <ele>70.4</ele>
        <time>2021-05-20T08:19:08Z</time>
      </trkpt>
      <trkpt lat="42.1855480" lon="-8.7824380">
        <ele>70.4</ele>
        <time>2021-05-20T08:19:09Z</time>
      </trkpt>
      <trkpt lat="42.1855350" lon="-8.7824190">
        <ele>70.4</ele>
        <time>2021-05-20T08:19:10Z</time>
      </trkpt>
      <trkpt lat="42.1855280" lon="-8.7824100">
        <ele>70.4</ele>
        <time>2021-05-20T08:19:11Z</time>
      </trkpt>
      <trkpt lat="42.1855210" lon="-8.7824010">
        <ele>70.4</ele>
        <time>2021-05-20T08:19:12Z</time>
      </trkpt>
      <trkpt lat="42.1855140" lon="-8.7823860">
        <ele>70.4</ele>
        <time>2021-05-20T08:19:13Z</time>
      </trkpt>
      <trkpt lat="42.1855100" lon="-8.7823770">
        <ele>70.4</ele>
        <time>2021-05-20T08:19:14Z</time>
      </trkpt>
      <trkpt lat="42.1855040" lon="-8.7823630">
        <ele>70.4</ele>
        <time>2021-05-20T08:19:15Z</time>
      </trkpt>
      <trkpt lat="42.1854980" lon="-8.7823440">
        <ele>70.4</ele>
        <time>2021-05-20T08:19:16Z</time>
      </trkpt>
      <trkpt lat="42.1854980" lon="-8.7823310">
        <ele>70.4</ele>
        <time>2021-05-20T08:19:17Z</time>
      </trkpt>
      <trkpt lat="42.1854920" lon="-8.7823170">
        <ele>70.4</ele>
        <time>2021-05-20T08:19:18Z</time>
      </trkpt>
      <trkpt lat="42.1854890" lon="-8.7823090">
        <ele>70.4</ele>
        <time>2021-05-20T08:19:19Z</time>
      </trkpt>
      <trkpt lat="42.1854870" lon="-8.7822990">
        <ele>70.4</ele>
        <time>2021-05-20T08:19:20Z</time>
      </trkpt>
      <trkpt lat="42.1854820" lon="-8.7822780">
        <ele>70.5</ele>
        <time>2021-05-20T08:19:21Z</time>
      </trkpt>
      <trkpt lat="42.1854800" lon="-8.7822640">
        <ele>70.5</ele>
        <time>2021-05-20T08:19:22Z</time>
      </trkpt>
      <trkpt lat="42.1854770" lon="-8.7822500">
        <ele>70.5</ele>
        <time>2021-05-20T08:19:23Z</time>
      </trkpt>
      <trkpt lat="42.1854750" lon="-8.7822380">
        <ele>70.5</ele>
        <time>2021-05-20T08:19:24Z</time>
      </trkpt>
      <trkpt lat="42.1854700" lon="-8.7822230">
        <ele>70.5</ele>
        <time>2021-05-20T08:19:25Z</time>
      </trkpt>
      <trkpt lat="42.1854630" lon="-8.7822100">
        <ele>70.5</ele>
        <time>2021-05-20T08:19:26Z</time>
      </trkpt>
      <trkpt lat="42.1854600" lon="-8.7821980">
        <ele>70.5</ele>
        <time>2021-05-20T08:19:27Z</time>
      </trkpt>
      <trkpt lat="42.1854600" lon="-8.7821790">
        <ele>70.5</ele>
        <time>2021-05-20T08:19:28Z</time>
      </trkpt>
      <trkpt lat="42.1854570" lon="-8.7821580">
        <ele>70.6</ele>
        <time>2021-05-20T08:19:29Z</time>
      </trkpt>
      <trkpt lat="42.1854540" lon="-8.7821500">
        <ele>70.6</ele>
        <time>2021-05-20T08:19:30Z</time>
      </trkpt>
      <trkpt lat="42.1854460" lon="-8.7821380">
        <ele>70.6</ele>
        <time>2021-05-20T08:19:31Z</time>
      </trkpt>
      <trkpt lat="42.1854410" lon="-8.7821250">
        <ele>70.6</ele>
        <time>2021-05-20T08:19:32Z</time>
      </trkpt>
      <trkpt lat="42.1854360" lon="-8.7821120">
        <ele>70.6</ele>
        <time>2021-05-20T08:19:33Z</time>
      </trkpt>
      <trkpt lat="42.1854320" lon="-8.7820980">
        <ele>70.6</ele>
        <time>2021-05-20T08:19:34Z</time>
      </trkpt>
      <trkpt lat="42.1854290" lon="-8.7820940">
        <ele>70.6</ele>
        <time>2021-05-20T08:19:35Z</time>
      </trkpt>
      <trkpt lat="42.1854270" lon="-8.7820750">
        <ele>70.7</ele>
        <time>2021-05-20T08:19:36Z</time>
      </trkpt>
      <trkpt lat="42.1854220" lon="-8.7820560">
        <ele>70.7</ele>
        <time>2021-05-20T08:19:37Z</time>
      </trkpt>
      <trkpt lat="42.1854170" lon="-8.7820400">
        <ele>70.7</ele>
        <time>2021-05-20T08:19:38Z</time>
      </trkpt>
      <trkpt lat="42.1854130" lon="-8.7820270">
        <ele>70.7</ele>
        <time>2021-05-20T08:19:39Z</time>
      </trkpt>
      <trkpt lat="42.1854160" lon="-8.7820140">
        <ele>70.7</ele>
        <time>2021-05-20T08:19:40Z</time>
      </trkpt>
      <trkpt lat="42.1854070" lon="-8.7819840">
        <ele>70.8</ele>
        <time>2021-05-20T08:19:41Z</time>
      </trkpt>
      <trkpt lat="42.1854050" lon="-8.7819730">
        <ele>70.8</ele>
        <time>2021-05-20T08:19:42Z</time>
      </trkpt>
      <trkpt lat="42.1854030" lon="-8.7819630">
        <ele>70.8</ele>
        <time>2021-05-20T08:19:43Z</time>
      </trkpt>
      <trkpt lat="42.1854020" lon="-8.7819480">
        <ele>70.8</ele>
        <time>2021-05-20T08:19:44Z</time>
      </trkpt>
      <trkpt lat="42.1853950" lon="-8.7819310">
        <ele>70.8</ele>
        <time>2021-05-20T08:19:45Z</time>
      </trkpt>
      <trkpt lat="42.1854050" lon="-8.7819230">
        <ele>70.8</ele>
        <time>2021-05-20T08:19:46Z</time>
      </trkpt>
      <trkpt lat="42.1853980" lon="-8.7819060">
        <ele>70.8</ele>
        <time>2021-05-20T08:19:47Z</time>
      </trkpt>
      <trkpt lat="42.1853930" lon="-8.7818860">
        <ele>70.9</ele>
        <time>2021-05-20T08:19:48Z</time>
      </trkpt>
      <trkpt lat="42.1853930" lon="-8.7818570">
        <ele>70.9</ele>
        <time>2021-05-20T08:19:49Z</time>
      </trkpt>
      <trkpt lat="42.1853960" lon="-8.7818440">
        <ele>70.9</ele>
        <time>2021-05-20T08:19:50Z</time>
      </trkpt>
      <trkpt lat="42.1853980" lon="-8.7818320">
        <ele>70.9</ele>
        <time>2021-05-20T08:19:51Z</time>
      </trkpt>
      <trkpt lat="42.1854120" lon="-8.7818110">
        <ele>70.9</ele>
        <time>2021-05-20T08:19:52Z</time>
      </trkpt>
      <trkpt lat="42.1854180" lon="-8.7817930">
        <ele>70.9</ele>
        <time>2021-05-20T08:19:53Z</time>
      </trkpt>
      <trkpt lat="42.1854260" lon="-8.7817690">
        <ele>70.8</ele>
        <time>2021-05-20T08:19:54Z</time>
      </trkpt>
      <trkpt lat="42.1854300" lon="-8.7817550">
        <ele>70.8</ele>
        <time>2021-05-20T08:19:55Z</time>
      </trkpt>
      <trkpt lat="42.1854330" lon="-8.7817410">
        <ele>70.8</ele>
        <time>2021-05-20T08:19:56Z</time>
      </trkpt>
      <trkpt lat="42.1854330" lon="-8.7817200">
        <ele>70.8</ele>
        <time>2021-05-20T08:19:57Z</time>
      </trkpt>
      <trkpt lat="42.1854320" lon="-8.7817030">
        <ele>70.8</ele>
        <time>2021-05-20T08:19:58Z</time>
      </trkpt>
      <trkpt lat="42.1854320" lon="-8.7816730">
        <ele>70.7</ele>
        <time>2021-05-20T08:19:59Z</time>
      </trkpt>
      <trkpt lat="42.1854320" lon="-8.7816600">
        <ele>70.7</ele>
        <time>2021-05-20T08:20:00Z</time>
      </trkpt>
      <trkpt lat="42.1854330" lon="-8.7816470">
        <ele>70.7</ele>
        <time>2021-05-20T08:20:01Z</time>
      </trkpt>
      <trkpt lat="42.1854360" lon="-8.7816280">
        <ele>70.7</ele>
        <time>2021-05-20T08:20:02Z</time>
      </trkpt>
      <trkpt lat="42.1854300" lon="-8.7816060">
        <ele>70.6</ele>
        <time>2021-05-20T08:20:03Z</time>
      </trkpt>
      <trkpt lat="42.1854350" lon="-8.7815970">
        <ele>70.6</ele>
        <time>2021-05-20T08:20:04Z</time>
      </trkpt>
      <trkpt lat="42.1854370" lon="-8.7815860">
        <ele>70.6</ele>
        <time>2021-05-20T08:20:05Z</time>
      </trkpt>
      <trkpt lat="42.1854400" lon="-8.7815720">
        <ele>70.5</ele>
        <time>2021-05-20T08:20:06Z</time>
      </trkpt>
      <trkpt lat="42.1854440" lon="-8.7815570">
        <ele>70.5</ele>
        <time>2021-05-20T08:20:07Z</time>
      </trkpt>
      <trkpt lat="42.1854530" lon="-8.7815420">
        <ele>70.4</ele>
        <time>2021-05-20T08:20:08Z</time>
      </trkpt>
      <trkpt lat="42.1854520" lon="-8.7815310">
        <ele>70.4</ele>
        <time>2021-05-20T08:20:09Z</time>
      </trkpt>
      <trkpt lat="42.1854600" lon="-8.7815090">
        <ele>70.3</ele>
        <time>2021-05-20T08:20:10Z</time>
      </trkpt>
      <trkpt lat="42.1854620" lon="-8.7814910">
        <ele>70.2</ele>
        <time>2021-05-20T08:20:11Z</time>
      </trkpt>
      <trkpt lat="42.1854610" lon="-8.7814720">
        <ele>70.1</ele>
        <time>2021-05-20T08:20:12Z</time>
      </trkpt>
      <trkpt lat="42.1854630" lon="-8.7814620">
        <ele>70.1</ele>
        <time>2021-05-20T08:20:13Z</time>
      </trkpt>
      <trkpt lat="42.1854640" lon="-8.7814520">
        <ele>70.0</ele>
        <time>2021-05-20T08:20:14Z</time>
      </trkpt>
      <trkpt lat="42.1854650" lon="-8.7814420">
        <ele>70.0</ele>
        <time>2021-05-20T08:20:15Z</time>
      </trkpt>
      <trkpt lat="42.1854690" lon="-8.7814300">
        <ele>69.9</ele>
        <time>2021-05-20T08:20:16Z</time>
      </trkpt>
      <trkpt lat="42.1854670" lon="-8.7814180">
        <ele>69.9</ele>
        <time>2021-05-20T08:20:17Z</time>
      </trkpt>
      <trkpt lat="42.1854690" lon="-8.7814060">
        <ele>69.8</ele>
        <time>2021-05-20T08:20:18Z</time>
      </trkpt>
      <trkpt lat="42.1854650" lon="-8.7813930">
        <ele>69.7</ele>
        <time>2021-05-20T08:20:19Z</time>
      </trkpt>
      <trkpt lat="42.1854660" lon="-8.7813740">
        <ele>69.6</ele>
        <time>2021-05-20T08:20:20Z</time>
      </trkpt>
      <trkpt lat="42.1854660" lon="-8.7813690">
        <ele>69.6</ele>
        <time>2021-05-20T08:20:21Z</time>
      </trkpt>
      <trkpt lat="42.1854610" lon="-8.7813480">
        <ele>69.4</ele>
        <time>2021-05-20T08:20:22Z</time>
      </trkpt>
      <trkpt lat="42.1854540" lon="-8.7813350">
        <ele>69.3</ele>
        <time>2021-05-20T08:20:23Z</time>
      </trkpt>
      <trkpt lat="42.1854520" lon="-8.7813180">
        <ele>69.2</ele>
        <time>2021-05-20T08:20:24Z</time>
      </trkpt>
      <trkpt lat="42.1854550" lon="-8.7813000">
        <ele>69.1</ele>
        <time>2021-05-20T08:20:25Z</time>
      </trkpt>
      <trkpt lat="42.1854580" lon="-8.7812870">
        <ele>69.0</ele>
        <time>2021-05-20T08:20:26Z</time>
      </trkpt>
      <trkpt lat="42.1854530" lon="-8.7812660">
        <ele>68.9</ele>
        <time>2021-05-20T08:20:27Z</time>
      </trkpt>
      <trkpt lat="42.1854490" lon="-8.7812600">
        <ele>68.8</ele>
        <time>2021-05-20T08:20:28Z</time>
      </trkpt>
      <trkpt lat="42.1854500" lon="-8.7812430">
        <ele>68.7</ele>
        <time>2021-05-20T08:20:29Z</time>
      </trkpt>
      <trkpt lat="42.1854470" lon="-8.7812250">
        <ele>68.5</ele>
        <time>2021-05-20T08:20:30Z</time>
      </trkpt>
      <trkpt lat="42.1854490" lon="-8.7812020">
        <ele>68.4</ele>
        <time>2021-05-20T08:20:31Z</time>
      </trkpt>
      <trkpt lat="42.1854460" lon="-8.7811860">
        <ele>68.2</ele>
        <time>2021-05-20T08:20:32Z</time>
      </trkpt>
      <trkpt lat="42.1854350" lon="-8.7811590">
        <ele>68.0</ele>
        <time>2021-05-20T08:20:33Z</time>
      </trkpt>
      <trkpt lat="42.1854410" lon="-8.7811350">
        <ele>67.8</ele>
        <time>2021-05-20T08:20:34Z</time>
      </trkpt>
      <trkpt lat="42.1854440" lon="-8.7811230">
        <ele>67.7</ele>
        <time>2021-05-20T08:20:35Z</time>
      </trkpt>
      <trkpt lat="42.1854470" lon="-8.7811120">
        <ele>67.5</ele>
        <time>2021-05-20T08:20:36Z</time>
      </trkpt>
      <trkpt lat="42.1854420" lon="-8.7810990">
        <ele>67.4</ele>
        <time>2021-05-20T08:20:37Z</time>
      </trkpt>
      <trkpt lat="42.1854380" lon="-8.7810840">
        <ele>67.3</ele>
        <time>2021-05-20T08:20:38Z</time>
      </trkpt>
      <trkpt lat="42.1854420" lon="-8.7810650">
        <ele>67.1</ele>
        <time>2021-05-20T08:20:39Z</time>
      </trkpt>
      <trkpt lat="42.1854380" lon="-8.7810570">
        <ele>67.0</ele>
        <time>2021-05-20T08:20:40Z</time>
      </trkpt>
      <trkpt lat="42.1854410" lon="-8.7810530">
        <ele>66.9</ele>
        <time>2021-05-20T08:20:41Z</time>
      </trkpt>
      <trkpt lat="42.1854390" lon="-8.7810380">
        <ele>66.8</ele>
        <time>2021-05-20T08:20:42Z</time>
      </trkpt>
      <trkpt lat="42.1854430" lon="-8.7810240">
        <ele>66.6</ele>
        <time>2021-05-20T08:20:43Z</time>
      </trkpt>
      <trkpt lat="42.1854410" lon="-8.7810080">
        <ele>66.5</ele>
        <time>2021-05-20T08:20:44Z</time>
      </trkpt>
      <trkpt lat="42.1854430" lon="-8.7809970">
        <ele>66.4</ele>
        <time>2021-05-20T08:20:45Z</time>
      </trkpt>
      <trkpt lat="42.1854410" lon="-8.7809760">
        <ele>66.1</ele>
        <time>2021-05-20T08:20:46Z</time>
      </trkpt>
      <trkpt lat="42.1854450" lon="-8.7809690">
        <ele>66.0</ele>
        <time>2021-05-20T08:20:47Z</time>
      </trkpt>
      <trkpt lat="42.1854470" lon="-8.7809550">
        <ele>65.9</ele>
        <time>2021-05-20T08:20:48Z</time>
      </trkpt>
      <trkpt lat="42.1854460" lon="-8.7809350">
        <ele>65.7</ele>
        <time>2021-05-20T08:20:49Z</time>
      </trkpt>
      <trkpt lat="42.1854480" lon="-8.7809270">
        <ele>65.6</ele>
        <time>2021-05-20T08:20:50Z</time>
      </trkpt>
      <trkpt lat="42.1854500" lon="-8.7809120">
        <ele>65.5</ele>
        <time>2021-05-20T08:20:51Z</time>
      </trkpt>
      <trkpt lat="42.1854540" lon="-8.7808990">
        <ele>65.3</ele>
        <time>2021-05-20T08:20:52Z</time>
      </trkpt>
      <trkpt lat="42.1854600" lon="-8.7808830">
        <ele>65.1</ele>
        <time>2021-05-20T08:20:53Z</time>
      </trkpt>
      <trkpt lat="42.1854630" lon="-8.7808760">
        <ele>65.1</ele>
        <time>2021-05-20T08:20:54Z</time>
      </trkpt>
      <trkpt lat="42.1854660" lon="-8.7808670">
        <ele>65.0</ele>
        <time>2021-05-20T08:20:55Z</time>
      </trkpt>
      <trkpt lat="42.1854530" lon="-8.7808570">
        <ele>64.8</ele>
        <time>2021-05-20T08:20:56Z</time>
      </trkpt>
      <trkpt lat="42.1854570" lon="-8.7808460">
        <ele>64.6</ele>
        <time>2021-05-20T08:20:57Z</time>
      </trkpt>
      <trkpt lat="42.1854600" lon="-8.7808280">
        <ele>64.4</ele>
        <time>2021-05-20T08:20:58Z</time>
      </trkpt>
      <trkpt lat="42.1854560" lon="-8.7808160">
        <ele>64.3</ele>
        <time>2021-05-20T08:20:59Z</time>
      </trkpt>
      <trkpt lat="42.1854560" lon="-8.7807890">
        <ele>64.0</ele>
        <time>2021-05-20T08:21:00Z</time>
      </trkpt>
      <trkpt lat="42.1854560" lon="-8.7807770">
        <ele>63.9</ele>
        <time>2021-05-20T08:21:01Z</time>
      </trkpt>
      <trkpt lat="42.1854570" lon="-8.7807650">
        <ele>63.8</ele>
        <time>2021-05-20T08:21:02Z</time>
      </trkpt>
      <trkpt lat="42.1854620" lon="-8.7807490">
        <ele>63.7</ele>
        <time>2021-05-20T08:21:03Z</time>
      </trkpt>
      <trkpt lat="42.1854650" lon="-8.7807440">
        <ele>63.6</ele>
        <time>2021-05-20T08:21:04Z</time>
      </trkpt>
      <trkpt lat="42.1854730" lon="-8.7807220">
        <ele>63.4</ele>
        <time>2021-05-20T08:21:05Z</time>
      </trkpt>
      <trkpt lat="42.1854740" lon="-8.7807160">
        <ele>63.3</ele>
        <time>2021-05-20T08:21:06Z</time>
      </trkpt>
      <trkpt lat="42.1854740" lon="-8.7806930">
        <ele>63.1</ele>
        <time>2021-05-20T08:21:07Z</time>
      </trkpt>
      <trkpt lat="42.1854780" lon="-8.7806750">
        <ele>63.0</ele>
        <time>2021-05-20T08:21:08Z</time>
      </trkpt>
      <trkpt lat="42.1854760" lon="-8.7806550">
        <ele>62.8</ele>
        <time>2021-05-20T08:21:09Z</time>
      </trkpt>
      <trkpt lat="42.1854750" lon="-8.7806450">
        <ele>62.7</ele>
        <time>2021-05-20T08:21:10Z</time>
      </trkpt>
      <trkpt lat="42.1854780" lon="-8.7806370">
        <ele>62.6</ele>
        <time>2021-05-20T08:21:11Z</time>
      </trkpt>
      <trkpt lat="42.1854920" lon="-8.7805970">
        <ele>62.2</ele>
        <time>2021-05-20T08:21:12Z</time>
      </trkpt>
      <trkpt lat="42.1854970" lon="-8.7805900">
        <ele>62.1</ele>
        <time>2021-05-20T08:21:13Z</time>
      </trkpt>
      <trkpt lat="42.1854950" lon="-8.7805760">
        <ele>62.0</ele>
        <time>2021-05-20T08:21:14Z</time>
      </trkpt>
      <trkpt lat="42.1854980" lon="-8.7805610">
        <ele>61.9</ele>
        <time>2021-05-20T08:21:15Z</time>
      </trkpt>
      <trkpt lat="42.1855050" lon="-8.7805470">
        <ele>61.7</ele>
        <time>2021-05-20T08:21:16Z</time>
      </trkpt>
      <trkpt lat="42.1855090" lon="-8.7805440">
        <ele>61.7</ele>
        <time>2021-05-20T08:21:17Z</time>
      </trkpt>
      <trkpt lat="42.1855160" lon="-8.7805280">
        <ele>61.5</ele>
        <time>2021-05-20T08:21:18Z</time>
      </trkpt>
      <trkpt lat="42.1855200" lon="-8.7805280">
        <ele>61.4</ele>
        <time>2021-05-20T08:21:19Z</time>
      </trkpt>
      <trkpt lat="42.1855250" lon="-8.7805170">
        <ele>61.3</ele>
        <time>2021-05-20T08:21:20Z</time>
      </trkpt>
      <trkpt lat="42.1855340" lon="-8.7805010">
        <ele>61.2</ele>
        <time>2021-05-20T08:21:21Z</time>
      </trkpt>
      <trkpt lat="42.1855330" lon="-8.7804930">
        <ele>61.1</ele>
        <time>2021-05-20T08:21:22Z</time>
      </trkpt>
      <trkpt lat="42.1855290" lon="-8.7804900">
        <ele>61.0</ele>
        <time>2021-05-20T08:21:23Z</time>
      </trkpt>
      <trkpt lat="42.1855310" lon="-8.7804810">
        <ele>60.9</ele>
        <time>2021-05-20T08:21:24Z</time>
      </trkpt>
      <trkpt lat="42.1855350" lon="-8.7804430">
        <ele>60.6</ele>
        <time>2021-05-20T08:21:25Z</time>
      </trkpt>
      <trkpt lat="42.1855320" lon="-8.7804300">
        <ele>60.4</ele>
        <time>2021-05-20T08:21:26Z</time>
      </trkpt>
      <trkpt lat="42.1855270" lon="-8.7804140">
        <ele>60.3</ele>
        <time>2021-05-20T08:21:27Z</time>
      </trkpt>
      <trkpt lat="42.1855240" lon="-8.7803950">
        <ele>60.1</ele>
        <time>2021-05-20T08:21:28Z</time>
      </trkpt>
      <trkpt lat="42.1855220" lon="-8.7803680">
        <ele>59.8</ele>
        <time>2021-05-20T08:21:29Z</time>
      </trkpt>
      <trkpt lat="42.1855230" lon="-8.7803560">
        <ele>59.7</ele>
        <time>2021-05-20T08:21:30Z</time>
      </trkpt>
      <trkpt lat="42.1855240" lon="-8.7803450">
        <ele>59.6</ele>
        <time>2021-05-20T08:21:31Z</time>
      </trkpt>
      <trkpt lat="42.1855200" lon="-8.7803340">
        <ele>59.5</ele>
        <time>2021-05-20T08:21:32Z</time>
      </trkpt>
      <trkpt lat="42.1855170" lon="-8.7803260">
        <ele>59.4</ele>
        <time>2021-05-20T08:21:33Z</time>
      </trkpt>
      <trkpt lat="42.1855110" lon="-8.7803180">
        <ele>59.3</ele>
        <time>2021-05-20T08:21:34Z</time>
      </trkpt>
      <trkpt lat="42.1855170" lon="-8.7803000">
        <ele>59.1</ele>
        <time>2021-05-20T08:21:35Z</time>
      </trkpt>
      <trkpt lat="42.1855210" lon="-8.7802880">
        <ele>59.0</ele>
        <time>2021-05-20T08:21:36Z</time>
      </trkpt>
      <trkpt lat="42.1855190" lon="-8.7802750">
        <ele>58.8</ele>
        <time>2021-05-20T08:21:37Z</time>
      </trkpt>
      <trkpt lat="42.1855120" lon="-8.7802560">
        <ele>58.6</ele>
        <time>2021-05-20T08:21:38Z</time>
      </trkpt>
      <trkpt lat="42.1855130" lon="-8.7802430">
        <ele>58.5</ele>
        <time>2021-05-20T08:21:39Z</time>
      </trkpt>
      <trkpt lat="42.1855110" lon="-8.7802280">
        <ele>58.4</ele>
        <time>2021-05-20T08:21:40Z</time>
      </trkpt>
      <trkpt lat="42.1855110" lon="-8.7802130">
        <ele>58.2</ele>
        <time>2021-05-20T08:21:41Z</time>
      </trkpt>
      <trkpt lat="42.1855140" lon="-8.7801950">
        <ele>58.0</ele>
        <time>2021-05-20T08:21:42Z</time>
      </trkpt>
      <trkpt lat="42.1855160" lon="-8.7801760">
        <ele>57.8</ele>
        <time>2021-05-20T08:21:43Z</time>
      </trkpt>
      <trkpt lat="42.1855230" lon="-8.7801750">
        <ele>57.7</ele>
        <time>2021-05-20T08:21:44Z</time>
      </trkpt>
      <trkpt lat="42.1855260" lon="-8.7801610">
        <ele>57.6</ele>
        <time>2021-05-20T08:21:45Z</time>
      </trkpt>
      <trkpt lat="42.1855210" lon="-8.7801450">
        <ele>57.4</ele>
        <time>2021-05-20T08:21:46Z</time>
      </trkpt>
      <trkpt lat="42.1855200" lon="-8.7801330">
        <ele>57.3</ele>
        <time>2021-05-20T08:21:47Z</time>
      </trkpt>
      <trkpt lat="42.1855200" lon="-8.7801040">
        <ele>57.0</ele>
        <time>2021-05-20T08:21:48Z</time>
      </trkpt>
      <trkpt lat="42.1855250" lon="-8.7800960">
        <ele>56.9</ele>
        <time>2021-05-20T08:21:49Z</time>
      </trkpt>
      <trkpt lat="42.1855310" lon="-8.7800880">
        <ele>56.8</ele>
        <time>2021-05-20T08:21:50Z</time>
      </trkpt>
      <trkpt lat="42.1855360" lon="-8.7800800">
        <ele>56.7</ele>
        <time>2021-05-20T08:21:51Z</time>
      </trkpt>
      <trkpt lat="42.1855470" lon="-8.7800560">
        <ele>56.4</ele>
        <time>2021-05-20T08:21:52Z</time>
      </trkpt>
      <trkpt lat="42.1855530" lon="-8.7800440">
        <ele>56.3</ele>
        <time>2021-05-20T08:21:53Z</time>
      </trkpt>
      <trkpt lat="42.1855580" lon="-8.7800320">
        <ele>56.1</ele>
        <time>2021-05-20T08:21:54Z</time>
      </trkpt>
      <trkpt lat="42.1855580" lon="-8.7800170">
        <ele>56.0</ele>
        <time>2021-05-20T08:21:55Z</time>
      </trkpt>
      <trkpt lat="42.1855590" lon="-8.7799990">
        <ele>55.8</ele>
        <time>2021-05-20T08:21:56Z</time>
      </trkpt>
      <trkpt lat="42.1855610" lon="-8.7799920">
        <ele>55.7</ele>
        <time>2021-05-20T08:21:57Z</time>
      </trkpt>
      <trkpt lat="42.1855740" lon="-8.7799690">
        <ele>55.4</ele>
        <time>2021-05-20T08:21:58Z</time>
      </trkpt>
      <trkpt lat="42.1855780" lon="-8.7799610">
        <ele>55.3</ele>
        <time>2021-05-20T08:21:59Z</time>
      </trkpt>
      <trkpt lat="42.1855830" lon="-8.7799530">
        <ele>55.2</ele>
        <time>2021-05-20T08:22:00Z</time>
      </trkpt>
      <trkpt lat="42.1855820" lon="-8.7799390">
        <ele>55.0</ele>
        <time>2021-05-20T08:22:01Z</time>
      </trkpt>
      <trkpt lat="42.1855860" lon="-8.7799210">
        <ele>54.8</ele>
        <time>2021-05-20T08:22:02Z</time>
      </trkpt>
      <trkpt lat="42.1855860" lon="-8.7799110">
        <ele>54.7</ele>
        <time>2021-05-20T08:22:03Z</time>
      </trkpt>
      <trkpt lat="42.1855900" lon="-8.7799030">
        <ele>54.6</ele>
        <time>2021-05-20T08:22:04Z</time>
      </trkpt>
      <trkpt lat="42.1855940" lon="-8.7798940">
        <ele>54.5</ele>
        <time>2021-05-20T08:22:05Z</time>
      </trkpt>
      <trkpt lat="42.1855970" lon="-8.7798870">
        <ele>54.4</ele>
        <time>2021-05-20T08:22:06Z</time>
      </trkpt>
      <trkpt lat="42.1856000" lon="-8.7798790">
        <ele>54.3</ele>
        <time>2021-05-20T08:22:07Z</time>
      </trkpt>
      <trkpt lat="42.1856010" lon="-8.7798640">
        <ele>54.2</ele>
        <time>2021-05-20T08:22:08Z</time>
      </trkpt>
      <trkpt lat="42.1856010" lon="-8.7798490">
        <ele>54.0</ele>
        <time>2021-05-20T08:22:09Z</time>
      </trkpt>
      <trkpt lat="42.1856040" lon="-8.7798350">
        <ele>53.9</ele>
        <time>2021-05-20T08:22:10Z</time>
      </trkpt>
      <trkpt lat="42.1856050" lon="-8.7798250">
        <ele>53.8</ele>
        <time>2021-05-20T08:22:11Z</time>
      </trkpt>
      <trkpt lat="42.1856090" lon="-8.7798110">
        <ele>53.6</ele>
        <time>2021-05-20T08:22:12Z</time>
      </trkpt>
      <trkpt lat="42.1856080" lon="-8.7797950">
        <ele>53.4</ele>
        <time>2021-05-20T08:22:13Z</time>
      </trkpt>
      <trkpt lat="42.1856080" lon="-8.7797820">
        <ele>53.3</ele>
        <time>2021-05-20T08:22:14Z</time>
      </trkpt>
      <trkpt lat="42.1856090" lon="-8.7797690">
        <ele>53.2</ele>
        <time>2021-05-20T08:22:15Z</time>
      </trkpt>
      <trkpt lat="42.1856090" lon="-8.7797550">
        <ele>53.0</ele>
        <time>2021-05-20T08:22:16Z</time>
      </trkpt>
      <trkpt lat="42.1856110" lon="-8.7797320">
        <ele>52.8</ele>
        <time>2021-05-20T08:22:17Z</time>
      </trkpt>
      <trkpt lat="42.1856120" lon="-8.7797210">
        <ele>52.7</ele>
        <time>2021-05-20T08:22:18Z</time>
      </trkpt>
      <trkpt lat="42.1856130" lon="-8.7797060">
        <ele>52.5</ele>
        <time>2021-05-20T08:22:19Z</time>
      </trkpt>
      <trkpt lat="42.1855980" lon="-8.7796860">
        <ele>52.3</ele>
        <time>2021-05-20T08:22:20Z</time>
      </trkpt>
      <trkpt lat="42.1855960" lon="-8.7796740">
        <ele>52.1</ele>
        <time>2021-05-20T08:22:21Z</time>
      </trkpt>
      <trkpt lat="42.1855930" lon="-8.7796630">
        <ele>52.0</ele>
        <time>2021-05-20T08:22:22Z</time>
      </trkpt>
      <trkpt lat="42.1855960" lon="-8.7796540">
        <ele>51.9</ele>
        <time>2021-05-20T08:22:23Z</time>
      </trkpt>
      <trkpt lat="42.1855870" lon="-8.7796390">
        <ele>51.7</ele>
        <time>2021-05-20T08:22:24Z</time>
      </trkpt>
      <trkpt lat="42.1855850" lon="-8.7796250">
        <ele>51.6</ele>
        <time>2021-05-20T08:22:25Z</time>
      </trkpt>
      <trkpt lat="42.1855800" lon="-8.7796130">
        <ele>51.5</ele>
        <time>2021-05-20T08:22:26Z</time>
      </trkpt>
      <trkpt lat="42.1855800" lon="-8.7796010">
        <ele>51.4</ele>
        <time>2021-05-20T08:22:27Z</time>
      </trkpt>
      <trkpt lat="42.1855840" lon="-8.7795790">
        <ele>51.2</ele>
        <time>2021-05-20T08:22:28Z</time>
      </trkpt>
      <trkpt lat="42.1855860" lon="-8.7795590">
        <ele>51.0</ele>
        <time>2021-05-20T08:22:29Z</time>
      </trkpt>
      <trkpt lat="42.1855900" lon="-8.7795430">
        <ele>50.9</ele>
        <time>2021-05-20T08:22:30Z</time>
      </trkpt>
      <trkpt lat="42.1855880" lon="-8.7795150">
        <ele>50.6</ele>
        <time>2021-05-20T08:22:31Z</time>
      </trkpt>
      <trkpt lat="42.1855920" lon="-8.7795080">
        <ele>50.6</ele>
        <time>2021-05-20T08:22:32Z</time>
      </trkpt>
      <trkpt lat="42.1855980" lon="-8.7795010">
        <ele>50.5</ele>
        <time>2021-05-20T08:22:33Z</time>
      </trkpt>
      <trkpt lat="42.1856070" lon="-8.7794780">
        <ele>50.3</ele>
        <time>2021-05-20T08:22:34Z</time>
      </trkpt>
      <trkpt lat="42.1856120" lon="-8.7794640">
        <ele>50.2</ele>
        <time>2021-05-20T08:22:35Z</time>
      </trkpt>
      <trkpt lat="42.1856170" lon="-8.7794490">
        <ele>50.1</ele>
        <time>2021-05-20T08:22:36Z</time>
      </trkpt>
      <trkpt lat="42.1856290" lon="-8.7794340">
        <ele>49.9</ele>
        <time>2021-05-20T08:22:37Z</time>
      </trkpt>
      <trkpt lat="42.1856360" lon="-8.7794130">
        <ele>49.7</ele>
        <time>2021-05-20T08:22:38Z</time>
      </trkpt>
      <trkpt lat="42.1856410" lon="-8.7794050">
        <ele>49.7</ele>
        <time>2021-05-20T08:22:39Z</time>
      </trkpt>
      <trkpt lat="42.1856420" lon="-8.7793880">
        <ele>49.6</ele>
        <time>2021-05-20T08:22:40Z</time>
      </trkpt>
      <trkpt lat="42.1856400" lon="-8.7793690">
        <ele>49.5</ele>
        <time>2021-05-20T08:22:41Z</time>
      </trkpt>
      <trkpt lat="42.1856390" lon="-8.7793500">
        <ele>49.3</ele>
        <time>2021-05-20T08:22:42Z</time>
      </trkpt>
      <trkpt lat="42.1856610" lon="-8.7793290">
        <ele>49.1</ele>
        <time>2021-05-20T08:22:43Z</time>
      </trkpt>
      <trkpt lat="42.1856640" lon="-8.7793190">
        <ele>49.1</ele>
        <time>2021-05-20T08:22:44Z</time>
      </trkpt>
      <trkpt lat="42.1856710" lon="-8.7792990">
        <ele>49.0</ele>
        <time>2021-05-20T08:22:45Z</time>
      </trkpt>
      <trkpt lat="42.1856700" lon="-8.7792950">
        <ele>49.0</ele>
        <time>2021-05-20T08:22:46Z</time>
      </trkpt>
      <trkpt lat="42.1856830" lon="-8.7792840">
        <ele>48.9</ele>
        <time>2021-05-20T08:22:47Z</time>
      </trkpt>
      <trkpt lat="42.1856830" lon="-8.7792620">
        <ele>48.8</ele>
        <time>2021-05-20T08:22:48Z</time>
      </trkpt>
      <trkpt lat="42.1857000" lon="-8.7792530">
        <ele>48.7</ele>
        <time>2021-05-20T08:22:49Z</time>
      </trkpt>
      <trkpt lat="42.1857130" lon="-8.7792350">
        <ele>48.6</ele>
        <time>2021-05-20T08:22:50Z</time>
      </trkpt>
      <trkpt lat="42.1857170" lon="-8.7792320">
        <ele>48.6</ele>
        <time>2021-05-20T08:22:51Z</time>
      </trkpt>
      <trkpt lat="42.1857200" lon="-8.7792280">
        <ele>48.6</ele>
        <time>2021-05-20T08:22:52Z</time>
      </trkpt>
      <trkpt lat="42.1857240" lon="-8.7792250">
        <ele>48.5</ele>
        <time>2021-05-20T08:22:53Z</time>
      </trkpt>
      <trkpt lat="42.1857280" lon="-8.7792210">
        <ele>48.5</ele>
        <time>2021-05-20T08:22:54Z</time>
      </trkpt>
      <trkpt lat="42.1857390" lon="-8.7791990">
        <ele>48.4</ele>
        <time>2021-05-20T08:22:55Z</time>
      </trkpt>
      <trkpt lat="42.1857440" lon="-8.7791900">
        <ele>48.4</ele>
        <time>2021-05-20T08:22:56Z</time>
      </trkpt>
      <trkpt lat="42.1857490" lon="-8.7791810">
        <ele>48.4</ele>
        <time>2021-05-20T08:22:57Z</time>
      </trkpt>
      <trkpt lat="42.1857540" lon="-8.7791730">
        <ele>48.4</ele>
        <time>2021-05-20T08:22:58Z</time>
      </trkpt>
      <trkpt lat="42.1857630" lon="-8.7791650">
        <ele>48.3</ele>
        <time>2021-05-20T08:22:59Z</time>
      </trkpt>
      <trkpt lat="42.1857680" lon="-8.7791560">
        <ele>48.3</ele>
        <time>2021-05-20T08:23:00Z</time>
      </trkpt>
      <trkpt lat="42.1857770" lon="-8.7791540">
        <ele>48.3</ele>
        <time>2021-05-20T08:23:01Z</time>
      </trkpt>
      <trkpt lat="42.1857940" lon="-8.7791330">
        <ele>48.2</ele>
        <time>2021-05-20T08:23:02Z</time>
      </trkpt>
      <trkpt lat="42.1858030" lon="-8.7791240">
        <ele>48.2</ele>
        <time>2021-05-20T08:23:03Z</time>
      </trkpt>
      <trkpt lat="42.1858120" lon="-8.7791150">
        <ele>48.1</ele>
        <time>2021-05-20T08:23:04Z</time>
      </trkpt>
      <trkpt lat="42.1858250" lon="-8.7791060">
        <ele>48.1</ele>
        <time>2021-05-20T08:23:05Z</time>
      </trkpt>
      <trkpt lat="42.1858450" lon="-8.7790990">
        <ele>48.1</ele>
        <time>2021-05-20T08:23:06Z</time>
      </trkpt>
      <trkpt lat="42.1858480" lon="-8.7791010">
        <ele>48.1</ele>
        <time>2021-05-20T08:23:07Z</time>
      </trkpt>
      <trkpt lat="42.1858590" lon="-8.7790960">
        <ele>48.1</ele>
        <time>2021-05-20T08:23:08Z</time>
      </trkpt>
      <trkpt lat="42.1858760" lon="-8.7790890">
        <ele>48.0</ele>
        <time>2021-05-20T08:23:09Z</time>
      </trkpt>
      <trkpt lat="42.1858850" lon="-8.7790850">
        <ele>48.0</ele>
        <time>2021-05-20T08:23:10Z</time>
      </trkpt>
      <trkpt lat="42.1858910" lon="-8.7790780">
        <ele>48.0</ele>
        <time>2021-05-20T08:23:11Z</time>
      </trkpt>
      <trkpt lat="42.1859010" lon="-8.7790730">
        <ele>48.0</ele>
        <time>2021-05-20T08:23:12Z</time>
      </trkpt>
      <trkpt lat="42.1859110" lon="-8.7790680">
        <ele>48.0</ele>
        <time>2021-05-20T08:23:13Z</time>
      </trkpt>
      <trkpt lat="42.1859150" lon="-8.7790710">
        <ele>48.0</ele>
        <time>2021-05-20T08:23:14Z</time>
      </trkpt>
      <trkpt lat="42.1859320" lon="-8.7790630">
        <ele>48.0</ele>
        <time>2021-05-20T08:23:15Z</time>
      </trkpt>
      <trkpt lat="42.1859350" lon="-8.7790530">
        <ele>48.0</ele>
        <time>2021-05-20T08:23:16Z</time>
      </trkpt>
      <trkpt lat="42.1859450" lon="-8.7790380">
        <ele>48.0</ele>
        <time>2021-05-20T08:23:17Z</time>
      </trkpt>
      <trkpt lat="42.1859530" lon="-8.7790290">
        <ele>48.0</ele>
        <time>2021-05-20T08:23:18Z</time>
      </trkpt>
      <trkpt lat="42.1859610" lon="-8.7790110">
        <ele>48.0</ele>
        <time>2021-05-20T08:23:19Z</time>
      </trkpt>
      <trkpt lat="42.1859670" lon="-8.7790060">
        <ele>48.0</ele>
        <time>2021-05-20T08:23:20Z</time>
      </trkpt>
      <trkpt lat="42.1859800" lon="-8.7789950">
        <ele>48.0</ele>
        <time>2021-05-20T08:23:21Z</time>
      </trkpt>
      <trkpt lat="42.1859870" lon="-8.7789870">
        <ele>48.0</ele>
        <time>2021-05-20T08:23:22Z</time>
      </trkpt>
      <trkpt lat="42.1860000" lon="-8.7789810">
        <ele>48.0</ele>
        <time>2021-05-20T08:23:23Z</time>
      </trkpt>
      <trkpt lat="42.1860100" lon="-8.7789730">
        <ele>48.0</ele>
        <time>2021-05-20T08:23:24Z</time>
      </trkpt>
      <trkpt lat="42.1860280" lon="-8.7789640">
        <ele>48.0</ele>
        <time>2021-05-20T08:23:25Z</time>
      </trkpt>
      <trkpt lat="42.1860350" lon="-8.7789540">
        <ele>48.0</ele>
        <time>2021-05-20T08:23:26Z</time>
      </trkpt>
      <trkpt lat="42.1860420" lon="-8.7789390">
        <ele>48.0</ele>
        <time>2021-05-20T08:23:27Z</time>
      </trkpt>
      <trkpt lat="42.1860530" lon="-8.7789260">
        <ele>48.0</ele>
        <time>2021-05-20T08:23:28Z</time>
      </trkpt>
      <trkpt lat="42.1860600" lon="-8.7789230">
        <ele>48.0</ele>
        <time>2021-05-20T08:23:29Z</time>
      </trkpt>
      <trkpt lat="42.1860800" lon="-8.7789070">
        <ele>48.0</ele>
        <time>2021-05-20T08:23:30Z</time>
      </trkpt>
      <trkpt lat="42.1860900" lon="-8.7788950">
        <ele>48.0</ele>
        <time>2021-05-20T08:23:31Z</time>
      </trkpt>
      <trkpt lat="42.1861040" lon="-8.7788850">
        <ele>48.0</ele>
        <time>2021-05-20T08:23:32Z</time>
      </trkpt>
      <trkpt lat="42.1861150" lon="-8.7788820">
        <ele>48.1</ele>
        <time>2021-05-20T08:23:33Z</time>
      </trkpt>
      <trkpt lat="42.1861250" lon="-8.7788690">
        <ele>48.1</ele>
        <time>2021-05-20T08:23:34Z</time>
      </trkpt>
      <trkpt lat="42.1861300" lon="-8.7788620">
        <ele>48.1</ele>
        <time>2021-05-20T08:23:35Z</time>
      </trkpt>
      <trkpt lat="42.1861430" lon="-8.7788520">
        <ele>48.1</ele>
        <time>2021-05-20T08:23:36Z</time>
      </trkpt>
      <trkpt lat="42.1861590" lon="-8.7788470">
        <ele>48.1</ele>
        <time>2021-05-20T08:23:37Z</time>
      </trkpt>
      <trkpt lat="42.1861730" lon="-8.7788340">
        <ele>48.1</ele>
        <time>2021-05-20T08:23:38Z</time>
      </trkpt>
      <trkpt lat="42.1861870" lon="-8.7788250">
        <ele>48.2</ele>
        <time>2021-05-20T08:23:39Z</time>
      </trkpt>
      <trkpt lat="42.1862020" lon="-8.7788080">
        <ele>48.2</ele>
        <time>2021-05-20T08:23:40Z</time>
      </trkpt>
      <trkpt lat="42.1862110" lon="-8.7788020">
        <ele>48.2</ele>
        <time>2021-05-20T08:23:41Z</time>
      </trkpt>
      <trkpt lat="42.1862190" lon="-8.7787970">
        <ele>48.2</ele>
        <time>2021-05-20T08:23:42Z</time>
      </trkpt>
      <trkpt lat="42.1862330" lon="-8.7787930">
        <ele>48.3</ele>
        <time>2021-05-20T08:23:43Z</time>
      </trkpt>
      <trkpt lat="42.1862480" lon="-8.7787810">
        <ele>48.3</ele>
        <time>2021-05-20T08:23:44Z</time>
      </trkpt>
      <trkpt lat="42.1862620" lon="-8.7787780">
        <ele>48.3</ele>
        <time>2021-05-20T08:23:45Z</time>
      </trkpt>
      <trkpt lat="42.1862760" lon="-8.7787710">
        <ele>48.4</ele>
        <time>2021-05-20T08:23:46Z</time>
      </trkpt>
      <trkpt lat="42.1862890" lon="-8.7787670">
        <ele>48.4</ele>
        <time>2021-05-20T08:23:47Z</time>
      </trkpt>
      <trkpt lat="42.1863020" lon="-8.7787570">
        <ele>48.5</ele>
        <time>2021-05-20T08:23:48Z</time>
      </trkpt>
      <trkpt lat="42.1863120" lon="-8.7787490">
        <ele>48.5</ele>
        <time>2021-05-20T08:23:49Z</time>
      </trkpt>
      <trkpt lat="42.1863190" lon="-8.7787400">
        <ele>48.5</ele>
        <time>2021-05-20T08:23:50Z</time>
      </trkpt>
      <trkpt lat="42.1863290" lon="-8.7787310">
        <ele>48.5</ele>
        <time>2021-05-20T08:23:51Z</time>
      </trkpt>
      <trkpt lat="42.1863370" lon="-8.7787250">
        <ele>48.6</ele>
        <time>2021-05-20T08:23:52Z</time>
      </trkpt>
      <trkpt lat="42.1863530" lon="-8.7787130">
        <ele>48.6</ele>
        <time>2021-05-20T08:23:53Z</time>
      </trkpt>
      <trkpt lat="42.1863650" lon="-8.7787070">
        <ele>48.7</ele>
        <time>2021-05-20T08:23:54Z</time>
      </trkpt>
      <trkpt lat="42.1863740" lon="-8.7787000">
        <ele>48.7</ele>
        <time>2021-05-20T08:23:55Z</time>
      </trkpt>
      <trkpt lat="42.1863790" lon="-8.7786930">
        <ele>48.7</ele>
        <time>2021-05-20T08:23:56Z</time>
      </trkpt>
      <trkpt lat="42.1863960" lon="-8.7786790">
        <ele>48.8</ele>
        <time>2021-05-20T08:23:57Z</time>
      </trkpt>
      <trkpt lat="42.1864040" lon="-8.7786710">
        <ele>48.8</ele>
        <time>2021-05-20T08:23:58Z</time>
      </trkpt>
      <trkpt lat="42.1864120" lon="-8.7786630">
        <ele>48.8</ele>
        <time>2021-05-20T08:23:59Z</time>
      </trkpt>
      <trkpt lat="42.1864270" lon="-8.7786520">
        <ele>48.9</ele>
        <time>2021-05-20T08:24:00Z</time>
      </trkpt>
      <trkpt lat="42.1864400" lon="-8.7786420">
        <ele>48.9</ele>
        <time>2021-05-20T08:24:01Z</time>
      </trkpt>
      <trkpt lat="42.1864530" lon="-8.7786300">
        <ele>49.0</ele>
        <time>2021-05-20T08:24:02Z</time>
      </trkpt>
      <trkpt lat="42.1864680" lon="-8.7786240">
        <ele>49.0</ele>
        <time>2021-05-20T08:24:03Z</time>
      </trkpt>
      <trkpt lat="42.1864810" lon="-8.7786170">
        <ele>49.1</ele>
        <time>2021-05-20T08:24:04Z</time>
      </trkpt>
      <trkpt lat="42.1864950" lon="-8.7786100">
        <ele>49.1</ele>
        <time>2021-05-20T08:24:05Z</time>
      </trkpt>
      <trkpt lat="42.1865120" lon="-8.7786070">
        <ele>49.2</ele>
        <time>2021-05-20T08:24:06Z</time>
      </trkpt>
      <trkpt lat="42.1865260" lon="-8.7786010">
        <ele>49.2</ele>
        <time>2021-05-20T08:24:07Z</time>
      </trkpt>
      <trkpt lat="42.1865400" lon="-8.7785900">
        <ele>49.3</ele>
        <time>2021-05-20T08:24:08Z</time>
      </trkpt>
      <trkpt lat="42.1865550" lon="-8.7785810">
        <ele>49.3</ele>
        <time>2021-05-20T08:24:09Z</time>
      </trkpt>
      <trkpt lat="42.1865680" lon="-8.7785760">
        <ele>49.4</ele>
        <time>2021-05-20T08:24:10Z</time>
      </trkpt>
      <trkpt lat="42.1865800" lon="-8.7785630">
        <ele>49.4</ele>
        <time>2021-05-20T08:24:11Z</time>
      </trkpt>
      <trkpt lat="42.1865930" lon="-8.7785490">
        <ele>49.5</ele>
        <time>2021-05-20T08:24:12Z</time>
      </trkpt>
      <trkpt lat="42.1866070" lon="-8.7785400">
        <ele>49.5</ele>
        <time>2021-05-20T08:24:13Z</time>
      </trkpt>
      <trkpt lat="42.1866260" lon="-8.7785280">
        <ele>49.6</ele>
        <time>2021-05-20T08:24:14Z</time>
      </trkpt>
      <trkpt lat="42.1866340" lon="-8.7785250">
        <ele>49.6</ele>
        <time>2021-05-20T08:24:15Z</time>
      </trkpt>
      <trkpt lat="42.1866410" lon="-8.7785210">
        <ele>49.6</ele>
        <time>2021-05-20T08:24:16Z</time>
      </trkpt>
      <trkpt lat="42.1866400" lon="-8.7785140">
        <ele>49.7</ele>
        <time>2021-05-20T08:24:17Z</time>
      </trkpt>
      <trkpt lat="42.1866520" lon="-8.7785050">
        <ele>49.7</ele>
        <time>2021-05-20T08:24:18Z</time>
      </trkpt>
      <trkpt lat="42.1866430" lon="-8.7784990">
        <ele>49.7</ele>
        <time>2021-05-20T08:24:19Z</time>
      </trkpt>
      <trkpt lat="42.1866520" lon="-8.7784950">
        <ele>49.7</ele>
        <time>2021-05-20T08:24:20Z</time>
      </trkpt>
      <trkpt lat="42.1866580" lon="-8.7784890">
        <ele>49.8</ele>
        <time>2021-05-20T08:24:21Z</time>
      </trkpt>
      <trkpt lat="42.1866720" lon="-8.7784750">
        <ele>49.8</ele>
        <time>2021-05-20T08:24:22Z</time>
      </trkpt>
      <trkpt lat="42.1866830" lon="-8.7784600">
        <ele>49.9</ele>
        <time>2021-05-20T08:24:23Z</time>
      </trkpt>
      <trkpt lat="42.1866900" lon="-8.7784530">
        <ele>49.9</ele>
        <time>2021-05-20T08:24:24Z</time>
      </trkpt>
      <trkpt lat="42.1867120" lon="-8.7784420">
        <ele>49.9</ele>
        <time>2021-05-20T08:24:25Z</time>
      </trkpt>
      <trkpt lat="42.1867090" lon="-8.7784290">
        <ele>50.0</ele>
        <time>2021-05-20T08:24:26Z</time>
      </trkpt>
      <trkpt lat="42.1867200" lon="-8.7784200">
        <ele>50.0</ele>
        <time>2021-05-20T08:24:27Z</time>
      </trkpt>
      <trkpt lat="42.1867190" lon="-8.7784110">
        <ele>50.0</ele>
        <time>2021-05-20T08:24:28Z</time>
      </trkpt>
      <trkpt lat="42.1867220" lon="-8.7783970">
        <ele>50.0</ele>
        <time>2021-05-20T08:24:29Z</time>
      </trkpt>
      <trkpt lat="42.1867320" lon="-8.7783820">
        <ele>50.1</ele>
        <time>2021-05-20T08:24:30Z</time>
      </trkpt>
      <trkpt lat="42.1867470" lon="-8.7783690">
        <ele>50.1</ele>
        <time>2021-05-20T08:24:31Z</time>
      </trkpt>
      <trkpt lat="42.1867450" lon="-8.7783630">
        <ele>50.1</ele>
        <time>2021-05-20T08:24:32Z</time>
      </trkpt>
      <trkpt lat="42.1867630" lon="-8.7783450">
        <ele>50.2</ele>
        <time>2021-05-20T08:24:33Z</time>
      </trkpt>
      <trkpt lat="42.1867650" lon="-8.7783380">
        <ele>50.2</ele>
        <time>2021-05-20T08:24:34Z</time>
      </trkpt>
      <trkpt lat="42.1867880" lon="-8.7783210">
        <ele>50.2</ele>
        <time>2021-05-20T08:24:35Z</time>
      </trkpt>
      <trkpt lat="42.1867920" lon="-8.7783120">
        <ele>50.2</ele>
        <time>2021-05-20T08:24:36Z</time>
      </trkpt>
      <trkpt lat="42.1868070" lon="-8.7782990">
        <ele>50.3</ele>
        <time>2021-05-20T08:24:37Z</time>
      </trkpt>
      <trkpt lat="42.1868160" lon="-8.7782920">
        <ele>50.3</ele>
        <time>2021-05-20T08:24:38Z</time>
      </trkpt>
      <trkpt lat="42.1868320" lon="-8.7782690">
        <ele>50.4</ele>
        <time>2021-05-20T08:24:39Z</time>
      </trkpt>
      <trkpt lat="42.1868410" lon="-8.7782630">
        <ele>50.4</ele>
        <time>2021-05-20T08:24:40Z</time>
      </trkpt>
      <trkpt lat="42.1868510" lon="-8.7782570">
        <ele>50.4</ele>
        <time>2021-05-20T08:24:41Z</time>
      </trkpt>
      <trkpt lat="42.1868480" lon="-8.7782350">
        <ele>50.4</ele>
        <time>2021-05-20T08:24:42Z</time>
      </trkpt>
      <trkpt lat="42.1868560" lon="-8.7782270">
        <ele>50.4</ele>
        <time>2021-05-20T08:24:43Z</time>
      </trkpt>
      <trkpt lat="42.1868620" lon="-8.7782140">
        <ele>50.5</ele>
        <time>2021-05-20T08:24:44Z</time>
      </trkpt>
      <trkpt lat="42.1868660" lon="-8.7782020">
        <ele>50.5</ele>
        <time>2021-05-20T08:24:45Z</time>
      </trkpt>
      <trkpt lat="42.1868730" lon="-8.7781870">
        <ele>50.5</ele>
        <time>2021-05-20T08:24:46Z</time>
      </trkpt>
      <trkpt lat="42.1868700" lon="-8.7781740">
        <ele>50.5</ele>
        <time>2021-05-20T08:24:47Z</time>
      </trkpt>
      <trkpt lat="42.1868740" lon="-8.7781570">
        <ele>50.5</ele>
        <time>2021-05-20T08:24:48Z</time>
      </trkpt>
      <trkpt lat="42.1868870" lon="-8.7781460">
        <ele>50.6</ele>
        <time>2021-05-20T08:24:49Z</time>
      </trkpt>
      <trkpt lat="42.1868920" lon="-8.7781390">
        <ele>50.6</ele>
        <time>2021-05-20T08:24:50Z</time>
      </trkpt>
      <trkpt lat="42.1869040" lon="-8.7781200">
        <ele>50.6</ele>
        <time>2021-05-20T08:24:51Z</time>
      </trkpt>
      <trkpt lat="42.1869070" lon="-8.7781040">
        <ele>50.6</ele>
        <time>2021-05-20T08:24:52Z</time>
      </trkpt>
      <trkpt lat="42.1869050" lon="-8.7780910">
        <ele>50.6</ele>
        <time>2021-05-20T08:24:53Z</time>
      </trkpt>
      <trkpt lat="42.1869170" lon="-8.7780840">
        <ele>50.6</ele>
        <time>2021-05-20T08:24:54Z</time>
      </trkpt>
      <trkpt lat="42.1869150" lon="-8.7780620">
        <ele>50.6</ele>
        <time>2021-05-20T08:24:55Z</time>
      </trkpt>
      <trkpt lat="42.1869270" lon="-8.7780500">
        <ele>50.6</ele>
        <time>2021-05-20T08:24:56Z</time>
      </trkpt>
      <trkpt lat="42.1869260" lon="-8.7780390">
        <ele>50.6</ele>
        <time>2021-05-20T08:24:57Z</time>
      </trkpt>
      <trkpt lat="42.1869290" lon="-8.7780200">
        <ele>50.6</ele>
        <time>2021-05-20T08:24:58Z</time>
      </trkpt>
      <trkpt lat="42.1869290" lon="-8.7780100">
        <ele>50.6</ele>
        <time>2021-05-20T08:24:59Z</time>
      </trkpt>
      <trkpt lat="42.1869370" lon="-8.7779910">
        <ele>50.7</ele>
        <time>2021-05-20T08:25:00Z</time>
      </trkpt>
      <trkpt lat="42.1869470" lon="-8.7779830">
        <ele>50.7</ele>
        <time>2021-05-20T08:25:01Z</time>
      </trkpt>
      <trkpt lat="42.1869560" lon="-8.7779600">
        <ele>50.7</ele>
        <time>2021-05-20T08:25:02Z</time>
      </trkpt>
      <trkpt lat="42.1869710" lon="-8.7779540">
        <ele>50.7</ele>
        <time>2021-05-20T08:25:03Z</time>
      </trkpt>
      <trkpt lat="42.1869770" lon="-8.7779350">
        <ele>50.7</ele>
        <time>2021-05-20T08:25:04Z</time>
      </trkpt>
      <trkpt lat="42.1869900" lon="-8.7779230">
        <ele>50.7</ele>
        <time>2021-05-20T08:25:05Z</time>
      </trkpt>
      <trkpt lat="42.1869840" lon="-8.7779100">
        <ele>50.7</ele>
        <time>2021-05-20T08:25:06Z</time>
      </trkpt>
      <trkpt lat="42.1869940" lon="-8.7778880">
        <ele>50.7</ele>
        <time>2021-05-20T08:25:07Z</time>
      </trkpt>
      <trkpt lat="42.1869990" lon="-8.7778750">
        <ele>50.7</ele>
        <time>2021-05-20T08:25:08Z</time>
      </trkpt>
      <trkpt lat="42.1870070" lon="-8.7778630">
        <ele>50.7</ele>
        <time>2021-05-20T08:25:09Z</time>
      </trkpt>
      <trkpt lat="42.1870120" lon="-8.7778410">
        <ele>50.7</ele>
        <time>2021-05-20T08:25:10Z</time>
      </trkpt>
      <trkpt lat="42.1870190" lon="-8.7778250">
        <ele>50.7</ele>
        <time>2021-05-20T08:25:11Z</time>
      </trkpt>
      <trkpt lat="42.1870300" lon="-8.7778120">
        <ele>50.7</ele>
        <time>2021-05-20T08:25:12Z</time>
      </trkpt>
      <trkpt lat="42.1870380" lon="-8.7777860">
        <ele>50.7</ele>
        <time>2021-05-20T08:25:13Z</time>
      </trkpt>
      <trkpt lat="42.1870430" lon="-8.7777770">
        <ele>50.7</ele>
        <time>2021-05-20T08:25:14Z</time>
      </trkpt>
      <trkpt lat="42.1870470" lon="-8.7777690">
        <ele>50.7</ele>
        <time>2021-05-20T08:25:15Z</time>
      </trkpt>
      <trkpt lat="42.1870470" lon="-8.7777480">
        <ele>50.7</ele>
        <time>2021-05-20T08:25:16Z</time>
      </trkpt>
      <trkpt lat="42.1870500" lon="-8.7777340">
        <ele>50.7</ele>
        <time>2021-05-20T08:25:17Z</time>
      </trkpt>
      <trkpt lat="42.1870550" lon="-8.7777240">
        <ele>50.7</ele>
        <time>2021-05-20T08:25:18Z</time>
      </trkpt>
      <trkpt lat="42.1870540" lon="-8.7777050">
        <ele>50.7</ele>
        <time>2021-05-20T08:25:19Z</time>
      </trkpt>
      <trkpt lat="42.1870580" lon="-8.7776920">
        <ele>50.7</ele>
        <time>2021-05-20T08:25:20Z</time>
      </trkpt>
      <trkpt lat="42.1870650" lon="-8.7776800">
        <ele>50.7</ele>
        <time>2021-05-20T08:25:21Z</time>
      </trkpt>
      <trkpt lat="42.1870710" lon="-8.7776690">
        <ele>50.7</ele>
        <time>2021-05-20T08:25:22Z</time>
      </trkpt>
      <trkpt lat="42.1870750" lon="-8.7776590">
        <ele>50.7</ele>
        <time>2021-05-20T08:25:23Z</time>
      </trkpt>
      <trkpt lat="42.1870860" lon="-8.7776410">
        <ele>50.7</ele>
        <time>2021-05-20T08:25:24Z</time>
      </trkpt>
      <trkpt lat="42.1870910" lon="-8.7776200">
        <ele>50.7</ele>
        <time>2021-05-20T08:25:25Z</time>
      </trkpt>
      <trkpt lat="42.1870990" lon="-8.7776080">
        <ele>50.7</ele>
        <time>2021-05-20T08:25:26Z</time>
      </trkpt>
      <trkpt lat="42.1871050" lon="-8.7775880">
        <ele>50.7</ele>
        <time>2021-05-20T08:25:27Z</time>
      </trkpt>
      <trkpt lat="42.1871100" lon="-8.7775690">
        <ele>50.7</ele>
        <time>2021-05-20T08:25:28Z</time>
      </trkpt>
      <trkpt lat="42.1871100" lon="-8.7775680">
        <ele>50.7</ele>
        <time>2021-05-20T08:25:29Z</time>
      </trkpt>
      <trkpt lat="42.1871130" lon="-8.7775480">
        <ele>50.7</ele>
        <time>2021-05-20T08:25:30Z</time>
      </trkpt>
      <trkpt lat="42.1871210" lon="-8.7775280">
        <ele>50.7</ele>
        <time>2021-05-20T08:25:31Z</time>
      </trkpt>
      <trkpt lat="42.1871430" lon="-8.7775200">
        <ele>50.7</ele>
        <time>2021-05-20T08:25:32Z</time>
      </trkpt>
      <trkpt lat="42.1871460" lon="-8.7775030">
        <ele>50.7</ele>
        <time>2021-05-20T08:25:33Z</time>
      </trkpt>
      <trkpt lat="42.1871560" lon="-8.7775030">
        <ele>50.7</ele>
        <time>2021-05-20T08:25:34Z</time>
      </trkpt>
      <trkpt lat="42.1871660" lon="-8.7774880">
        <ele>50.7</ele>
        <time>2021-05-20T08:25:35Z</time>
      </trkpt>
      <trkpt lat="42.1871680" lon="-8.7774760">
        <ele>50.7</ele>
        <time>2021-05-20T08:25:36Z</time>
      </trkpt>
      <trkpt lat="42.1871780" lon="-8.7774450">
        <ele>50.7</ele>
        <time>2021-05-20T08:25:37Z</time>
      </trkpt>
      <trkpt lat="42.1871800" lon="-8.7774350">
        <ele>50.7</ele>
        <time>2021-05-20T08:25:38Z</time>
      </trkpt>
      <trkpt lat="42.1871830" lon="-8.7774250">
        <ele>50.7</ele>
        <time>2021-05-20T08:25:39Z</time>
      </trkpt>
      <trkpt lat="42.1872050" lon="-8.7773960">
        <ele>50.7</ele>
        <time>2021-05-20T08:25:40Z</time>
      </trkpt>
      <trkpt lat="42.1872080" lon="-8.7773890">
        <ele>50.7</ele>
        <time>2021-05-20T08:25:41Z</time>
      </trkpt>
      <trkpt lat="42.1872160" lon="-8.7773840">
        <ele>50.7</ele>
        <time>2021-05-20T08:25:42Z</time>
      </trkpt>
      <trkpt lat="42.1872250" lon="-8.7773730">
        <ele>50.7</ele>
        <time>2021-05-20T08:25:43Z</time>
      </trkpt>
      <trkpt lat="42.1872280" lon="-8.7773610">
        <ele>50.7</ele>
        <time>2021-05-20T08:25:44Z</time>
      </trkpt>
      <trkpt lat="42.1872420" lon="-8.7773290">
        <ele>50.7</ele>
        <time>2021-05-20T08:25:45Z</time>
      </trkpt>
      <trkpt lat="42.1872490" lon="-8.7773190">
        <ele>50.7</ele>
        <time>2021-05-20T08:25:46Z</time>
      </trkpt>
      <trkpt lat="42.1872590" lon="-8.7773040">
        <ele>50.7</ele>
        <time>2021-05-20T08:25:47Z</time>
      </trkpt>
      <trkpt lat="42.1872560" lon="-8.7772830">
        <ele>50.7</ele>
        <time>2021-05-20T08:25:48Z</time>
      </trkpt>
      <trkpt lat="42.1872800" lon="-8.7772670">
        <ele>50.7</ele>
        <time>2021-05-20T08:25:49Z</time>
      </trkpt>
      <trkpt lat="42.1872910" lon="-8.7772570">
        <ele>50.7</ele>
        <time>2021-05-20T08:25:50Z</time>
      </trkpt>
      <trkpt lat="42.1873020" lon="-8.7772470">
        <ele>50.7</ele>
        <time>2021-05-20T08:25:51Z</time>
      </trkpt>
      <trkpt lat="42.1872970" lon="-8.7772400">
        <ele>50.7</ele>
        <time>2021-05-20T08:25:52Z</time>
      </trkpt>
      <trkpt lat="42.1872960" lon="-8.7772250">
        <ele>50.7</ele>
        <time>2021-05-20T08:25:53Z</time>
      </trkpt>
      <trkpt lat="42.1872980" lon="-8.7772140">
        <ele>50.7</ele>
        <time>2021-05-20T08:25:54Z</time>
      </trkpt>
      <trkpt lat="42.1873070" lon="-8.7772000">
        <ele>50.8</ele>
        <time>2021-05-20T08:25:55Z</time>
      </trkpt>
      <trkpt lat="42.1873160" lon="-8.7771900">
        <ele>50.8</ele>
        <time>2021-05-20T08:25:56Z</time>
      </trkpt>
      <trkpt lat="42.1873250" lon="-8.7771730">
        <ele>50.8</ele>
        <time>2021-05-20T08:25:57Z</time>
      </trkpt>
      <trkpt lat="42.1873320" lon="-8.7771650">
        <ele>50.8</ele>
        <time>2021-05-20T08:25:58Z</time>
      </trkpt>
      <trkpt lat="42.1873470" lon="-8.7771400">
        <ele>50.8</ele>
        <time>2021-05-20T08:25:59Z</time>
      </trkpt>
      <trkpt lat="42.1873550" lon="-8.7771310">
        <ele>50.8</ele>
        <time>2021-05-20T08:26:00Z</time>
      </trkpt>
      <trkpt lat="42.1873620" lon="-8.7771230">
        <ele>50.8</ele>
        <time>2021-05-20T08:26:01Z</time>
      </trkpt>
      <trkpt lat="42.1873710" lon="-8.7771090">
        <ele>50.8</ele>
        <time>2021-05-20T08:26:02Z</time>
      </trkpt>
      <trkpt lat="42.1873920" lon="-8.7770960">
        <ele>50.8</ele>
        <time>2021-05-20T08:26:03Z</time>
      </trkpt>
      <trkpt lat="42.1874060" lon="-8.7770810">
        <ele>50.8</ele>
        <time>2021-05-20T08:26:04Z</time>
      </trkpt>
      <trkpt lat="42.1874110" lon="-8.7770740">
        <ele>50.8</ele>
        <time>2021-05-20T08:26:05Z</time>
      </trkpt>
      <trkpt lat="42.1874150" lon="-8.7770680">
        <ele>50.8</ele>
        <time>2021-05-20T08:26:06Z</time>
      </trkpt>
      <trkpt lat="42.1874190" lon="-8.7770610">
        <ele>50.8</ele>
        <time>2021-05-20T08:26:07Z</time>
      </trkpt>
      <trkpt lat="42.1874260" lon="-8.7770500">
        <ele>50.8</ele>
        <time>2021-05-20T08:26:08Z</time>
      </trkpt>
      <trkpt lat="42.1874300" lon="-8.7770390">
        <ele>50.8</ele>
        <time>2021-05-20T08:26:09Z</time>
      </trkpt>
      <trkpt lat="42.1874400" lon="-8.7770220">
        <ele>50.8</ele>
        <time>2021-05-20T08:26:10Z</time>
      </trkpt>
      <trkpt lat="42.1874510" lon="-8.7769980">
        <ele>50.8</ele>
        <time>2021-05-20T08:26:11Z</time>
      </trkpt>
      <trkpt lat="42.1874610" lon="-8.7769910">
        <ele>50.8</ele>
        <time>2021-05-20T08:26:12Z</time>
      </trkpt>
      <trkpt lat="42.1874700" lon="-8.7769830">
        <ele>50.8</ele>
        <time>2021-05-20T08:26:13Z</time>
      </trkpt>
      <trkpt lat="42.1874700" lon="-8.7769710">
        <ele>50.8</ele>
        <time>2021-05-20T08:26:14Z</time>
      </trkpt>
      <trkpt lat="42.1874800" lon="-8.7769640">
        <ele>50.8</ele>
        <time>2021-05-20T08:26:15Z</time>
      </trkpt>
      <trkpt lat="42.1874910" lon="-8.7769620">
        <ele>50.8</ele>
        <time>2021-05-20T08:26:16Z</time>
      </trkpt>
      <trkpt lat="42.1874950" lon="-8.7769510">
        <ele>50.8</ele>
        <time>2021-05-20T08:26:17Z</time>
      </trkpt>
      <trkpt lat="42.1875120" lon="-8.7769380">
        <ele>50.8</ele>
        <time>2021-05-20T08:26:18Z</time>
      </trkpt>
      <trkpt lat="42.1875220" lon="-8.7769180">
        <ele>50.8</ele>
        <time>2021-05-20T08:26:19Z</time>
      </trkpt>
      <trkpt lat="42.1875350" lon="-8.7769010">
        <ele>50.8</ele>
        <time>2021-05-20T08:26:20Z</time>
      </trkpt>
      <trkpt lat="42.1875450" lon="-8.7768960">
        <ele>50.8</ele>
        <time>2021-05-20T08:26:21Z</time>
      </trkpt>
      <trkpt lat="42.1875540" lon="-8.7768900">
        <ele>50.8</ele>
        <time>2021-05-20T08:26:22Z</time>
      </trkpt>
      <trkpt lat="42.1875640" lon="-8.7768830">
        <ele>50.8</ele>
        <time>2021-05-20T08:26:23Z</time>
      </trkpt>
      <trkpt lat="42.1875680" lon="-8.7768870">
        <ele>50.8</ele>
        <time>2021-05-20T08:26:24Z</time>
      </trkpt>
      <trkpt lat="42.1875790" lon="-8.7768810">
        <ele>50.8</ele>
        <time>2021-05-20T08:26:25Z</time>
      </trkpt>
      <trkpt lat="42.1875770" lon="-8.7768710">
        <ele>50.8</ele>
        <time>2021-05-20T08:26:26Z</time>
      </trkpt>
      <trkpt lat="42.1875800" lon="-8.7768790">
        <ele>50.8</ele>
        <time>2021-05-20T08:26:27Z</time>
      </trkpt>
      <trkpt lat="42.1875810" lon="-8.7768810">
        <ele>50.8</ele>
        <time>2021-05-20T08:26:28Z</time>
      </trkpt>
      <trkpt lat="42.1875790" lon="-8.7768820">
        <ele>50.8</ele>
        <time>2021-05-20T08:26:29Z</time>
      </trkpt>
      <trkpt lat="42.1875810" lon="-8.7768840">
        <ele>50.8</ele>
        <time>2021-05-20T08:26:30Z</time>
      </trkpt>
      <trkpt lat="42.1875790" lon="-8.7768830">
        <ele>50.8</ele>
        <time>2021-05-20T08:26:31Z</time>
      </trkpt>
      <trkpt lat="42.1875770" lon="-8.7768820">
        <ele>50.8</ele>
        <time>2021-05-20T08:26:32Z</time>
      </trkpt>
      <trkpt lat="42.1875760" lon="-8.7768810">
        <ele>50.8</ele>
        <time>2021-05-20T08:26:33Z</time>
      </trkpt>
      <trkpt lat="42.1875760" lon="-8.7768810">
        <ele>50.8</ele>
        <time>2021-05-20T08:26:34Z</time>
      </trkpt>
      <trkpt lat="42.1875760" lon="-8.7768820">
        <ele>50.8</ele>
        <time>2021-05-20T08:26:35Z</time>
      </trkpt>
      <trkpt lat="42.1875740" lon="-8.7768810">
        <ele>50.8</ele>
        <time>2021-05-20T08:26:36Z</time>
      </trkpt>
      <trkpt lat="42.1875760" lon="-8.7768830">
        <ele>50.8</ele>
        <time>2021-05-20T08:26:37Z</time>
      </trkpt>
      <trkpt lat="42.1875820" lon="-8.7768840">
        <ele>50.8</ele>
        <time>2021-05-20T08:26:38Z</time>
      </trkpt>
      <trkpt lat="42.1875840" lon="-8.7768860">
        <ele>50.8</ele>
        <time>2021-05-20T08:26:39Z</time>
      </trkpt>
      <trkpt lat="42.1875830" lon="-8.7768840">
        <ele>50.8</ele>
        <time>2021-05-20T08:26:40Z</time>
      </trkpt>
      <trkpt lat="42.1875790" lon="-8.7768830">
        <ele>50.8</ele>
        <time>2021-05-20T08:26:41Z</time>
      </trkpt>
      <trkpt lat="42.1875710" lon="-8.7768850">
        <ele>50.8</ele>
        <time>2021-05-20T08:26:42Z</time>
      </trkpt>
      <trkpt lat="42.1875700" lon="-8.7768850">
        <ele>50.8</ele>
        <time>2021-05-20T08:26:43Z</time>
      </trkpt>
      <trkpt lat="42.1875700" lon="-8.7768850">
        <ele>50.8</ele>
        <time>2021-05-20T08:26:44Z</time>
      </trkpt>
      <trkpt lat="42.1875710" lon="-8.7768860">
        <ele>50.8</ele>
        <time>2021-05-20T08:26:45Z</time>
      </trkpt>
      <trkpt lat="42.1875740" lon="-8.7768880">
        <ele>50.8</ele>
        <time>2021-05-20T08:26:46Z</time>
      </trkpt>
      <trkpt lat="42.1875750" lon="-8.7768880">
        <ele>50.8</ele>
        <time>2021-05-20T08:26:47Z</time>
      </trkpt>
      <trkpt lat="42.1875770" lon="-8.7768870">
        <ele>50.8</ele>
        <time>2021-05-20T08:26:48Z</time>
      </trkpt>
      <trkpt lat="42.1875760" lon="-8.7768870">
        <ele>50.8</ele>
        <time>2021-05-20T08:26:49Z</time>
      </trkpt>
      <trkpt lat="42.1875780" lon="-8.7768870">
        <ele>50.8</ele>
        <time>2021-05-20T08:26:50Z</time>
      </trkpt>
      <trkpt lat="42.1875830" lon="-8.7768870">
        <ele>50.8</ele>
        <time>2021-05-20T08:26:51Z</time>
      </trkpt>
      <trkpt lat="42.1875830" lon="-8.7768870">
        <ele>50.8</ele>
        <time>2021-05-20T08:26:52Z</time>
      </trkpt>
      <trkpt lat="42.1875860" lon="-8.7768870">
        <ele>50.8</ele>
        <time>2021-05-20T08:26:53Z</time>
      </trkpt>
      <trkpt lat="42.1875860" lon="-8.7768860">
        <ele>50.8</ele>
        <time>2021-05-20T08:26:54Z</time>
      </trkpt>
      <trkpt lat="42.1875860" lon="-8.7768860">
        <ele>50.8</ele>
        <time>2021-05-20T08:26:55Z</time>
      </trkpt>
      <trkpt lat="42.1875850" lon="-8.7768850">
        <ele>50.8</ele>
        <time>2021-05-20T08:26:56Z</time>
      </trkpt>
      <trkpt lat="42.1875820" lon="-8.7768830">
        <ele>50.8</ele>
        <time>2021-05-20T08:26:57Z</time>
      </trkpt>
      <trkpt lat="42.1875860" lon="-8.7768800">
        <ele>50.8</ele>
        <time>2021-05-20T08:26:58Z</time>
      </trkpt>
      <trkpt lat="42.1875830" lon="-8.7768810">
        <ele>50.8</ele>
        <time>2021-05-20T08:26:59Z</time>
      </trkpt>
      <trkpt lat="42.1875820" lon="-8.7768800">
        <ele>50.8</ele>
        <time>2021-05-20T08:27:00Z</time>
      </trkpt>
      <trkpt lat="42.1875750" lon="-8.7768790">
        <ele>50.8</ele>
        <time>2021-05-20T08:27:01Z</time>
      </trkpt>
      <trkpt lat="42.1875690" lon="-8.7768770">
        <ele>50.8</ele>
        <time>2021-05-20T08:27:02Z</time>
      </trkpt>
      <trkpt lat="42.1875670" lon="-8.7768740">
        <ele>50.8</ele>
        <time>2021-05-20T08:27:03Z</time>
      </trkpt>
      <trkpt lat="42.1875680" lon="-8.7768710">
        <ele>50.8</ele>
        <time>2021-05-20T08:27:04Z</time>
      </trkpt>
      <trkpt lat="42.1875690" lon="-8.7768720">
        <ele>50.8</ele>
        <time>2021-05-20T08:27:05Z</time>
      </trkpt>
      <trkpt lat="42.1875710" lon="-8.7768730">
        <ele>50.8</ele>
        <time>2021-05-20T08:27:06Z</time>
      </trkpt>
      <trkpt lat="42.1875740" lon="-8.7768730">
        <ele>50.8</ele>
        <time>2021-05-20T08:27:07Z</time>
      </trkpt>
      <trkpt lat="42.1875780" lon="-8.7768750">
        <ele>50.8</ele>
        <time>2021-05-20T08:27:08Z</time>
      </trkpt>
      <trkpt lat="42.1875840" lon="-8.7768740">
        <ele>50.8</ele>
        <time>2021-05-20T08:27:09Z</time>
      </trkpt>
      <trkpt lat="42.1875810" lon="-8.7768760">
        <ele>50.8</ele>
        <time>2021-05-20T08:27:10Z</time>
      </trkpt>
      <trkpt lat="42.1875790" lon="-8.7768750">
        <ele>50.8</ele>
        <time>2021-05-20T08:27:11Z</time>
      </trkpt>
      <trkpt lat="42.1875820" lon="-8.7768710">
        <ele>50.8</ele>
        <time>2021-05-20T08:27:12Z</time>
      </trkpt>
      <trkpt lat="42.1875850" lon="-8.7768710">
        <ele>50.8</ele>
        <time>2021-05-20T08:27:13Z</time>
      </trkpt>
      <trkpt lat="42.1875880" lon="-8.7768710">
        <ele>50.8</ele>
        <time>2021-05-20T08:27:14Z</time>
      </trkpt>
      <trkpt lat="42.1875910" lon="-8.7768700">
        <ele>50.8</ele>
        <time>2021-05-20T08:27:15Z</time>
      </trkpt>
      <trkpt lat="42.1875900" lon="-8.7768700">
        <ele>50.8</ele>
        <time>2021-05-20T08:27:16Z</time>
      </trkpt>
      <trkpt lat="42.1875900" lon="-8.7768700">
        <ele>50.8</ele>
        <time>2021-05-20T08:27:17Z</time>
      </trkpt>
      <trkpt lat="42.1875870" lon="-8.7768690">
        <ele>50.8</ele>
        <time>2021-05-20T08:27:18Z</time>
      </trkpt>
      <trkpt lat="42.1875870" lon="-8.7768650">
        <ele>50.8</ele>
        <time>2021-05-20T08:27:19Z</time>
      </trkpt>
      <trkpt lat="42.1875860" lon="-8.7768640">
        <ele>50.8</ele>
        <time>2021-05-20T08:27:20Z</time>
      </trkpt>
      <trkpt lat="42.1875830" lon="-8.7768620">
        <ele>50.8</ele>
        <time>2021-05-20T08:27:21Z</time>
      </trkpt>
      <trkpt lat="42.1875820" lon="-8.7768610">
        <ele>50.8</ele>
        <time>2021-05-20T08:27:22Z</time>
      </trkpt>
      <trkpt lat="42.1875810" lon="-8.7768620">
        <ele>50.8</ele>
        <time>2021-05-20T08:27:23Z</time>
      </trkpt>
      <trkpt lat="42.1875790" lon="-8.7768630">
        <ele>50.8</ele>
        <time>2021-05-20T08:27:24Z</time>
      </trkpt>
      <trkpt lat="42.1875760" lon="-8.7768680">
        <ele>50.8</ele>
        <time>2021-05-20T08:27:25Z</time>
      </trkpt>
      <trkpt lat="42.1875770" lon="-8.7768670">
        <ele>50.8</ele>
        <time>2021-05-20T08:27:26Z</time>
      </trkpt>
      <trkpt lat="42.1875780" lon="-8.7768690">
        <ele>50.8</ele>
        <time>2021-05-20T08:27:27Z</time>
      </trkpt>
      <trkpt lat="42.1875830" lon="-8.7768690">
        <ele>50.8</ele>
        <time>2021-05-20T08:27:28Z</time>
      </trkpt>
      <trkpt lat="42.1875860" lon="-8.7768700">
        <ele>50.8</ele>
        <time>2021-05-20T08:27:29Z</time>
      </trkpt>
      <trkpt lat="42.1875860" lon="-8.7768690">
        <ele>50.8</ele>
        <time>2021-05-20T08:27:30Z</time>
      </trkpt>
      <trkpt lat="42.1875830" lon="-8.7768660">
        <ele>50.8</ele>
        <time>2021-05-20T08:27:31Z</time>
      </trkpt>
      <trkpt lat="42.1875790" lon="-8.7768670">
        <ele>50.8</ele>
        <time>2021-05-20T08:27:32Z</time>
      </trkpt>
      <trkpt lat="42.1875700" lon="-8.7768730">
        <ele>50.8</ele>
        <time>2021-05-20T08:27:33Z</time>
      </trkpt>
      <trkpt lat="42.1875710" lon="-8.7768740">
        <ele>50.8</ele>
        <time>2021-05-20T08:27:34Z</time>
      </trkpt>
      <trkpt lat="42.1875710" lon="-8.7768740">
        <ele>50.8</ele>
        <time>2021-05-20T08:27:35Z</time>
      </trkpt>
      <trkpt lat="42.1875690" lon="-8.7768770">
        <ele>50.8</ele>
        <time>2021-05-20T08:27:36Z</time>
      </trkpt>
      <trkpt lat="42.1875670" lon="-8.7768770">
        <ele>50.8</ele>
        <time>2021-05-20T08:27:37Z</time>
      </trkpt>
      <trkpt lat="42.1875680" lon="-8.7768760">
        <ele>50.8</ele>
        <time>2021-05-20T08:27:38Z</time>
      </trkpt>
      <trkpt lat="42.1875700" lon="-8.7768740">
        <ele>50.8</ele>
        <time>2021-05-20T08:27:39Z</time>
      </trkpt>
      <trkpt lat="42.1875700" lon="-8.7768760">
        <ele>50.8</ele>
        <time>2021-05-20T08:27:40Z</time>
      </trkpt>
      <trkpt lat="42.1875690" lon="-8.7768790">
        <ele>50.8</ele>
        <time>2021-05-20T08:27:41Z</time>
      </trkpt>
      <trkpt lat="42.1875710" lon="-8.7768800">
        <ele>50.8</ele>
        <time>2021-05-20T08:27:42Z</time>
      </trkpt>
      <trkpt lat="42.1875660" lon="-8.7768800">
        <ele>50.8</ele>
        <time>2021-05-20T08:27:43Z</time>
      </trkpt>
      <trkpt lat="42.1875680" lon="-8.7768800">
        <ele>50.8</ele>
        <time>2021-05-20T08:27:44Z</time>
      </trkpt>
      <trkpt lat="42.1875710" lon="-8.7768870">
        <ele>50.8</ele>
        <time>2021-05-20T08:27:45Z</time>
      </trkpt>
      <trkpt lat="42.1875710" lon="-8.7768930">
        <ele>50.8</ele>
        <time>2021-05-20T08:27:46Z</time>
      </trkpt>
      <trkpt lat="42.1875750" lon="-8.7768940">
        <ele>50.8</ele>
        <time>2021-05-20T08:27:47Z</time>
      </trkpt>
      <trkpt lat="42.1875730" lon="-8.7768930">
        <ele>50.8</ele>
        <time>2021-05-20T08:27:48Z</time>
      </trkpt>
      <trkpt lat="42.1875790" lon="-8.7768910">
        <ele>50.8</ele>
        <time>2021-05-20T08:27:49Z</time>
      </trkpt>
      <trkpt lat="42.1875850" lon="-8.7768870">
        <ele>50.8</ele>
        <time>2021-05-20T08:27:50Z</time>
      </trkpt>
      <trkpt lat="42.1876010" lon="-8.7768690">
        <ele>50.8</ele>
        <time>2021-05-20T08:27:51Z</time>
      </trkpt>
      <trkpt lat="42.1876040" lon="-8.7768640">
        <ele>50.8</ele>
        <time>2021-05-20T08:27:52Z</time>
      </trkpt>
      <trkpt lat="42.1876130" lon="-8.7768600">
        <ele>50.8</ele>
        <time>2021-05-20T08:27:53Z</time>
      </trkpt>
      <trkpt lat="42.1876210" lon="-8.7768550">
        <ele>50.8</ele>
        <time>2021-05-20T08:27:54Z</time>
      </trkpt>
      <trkpt lat="42.1876320" lon="-8.7768450">
        <ele>50.8</ele>
        <time>2021-05-20T08:27:55Z</time>
      </trkpt>
      <trkpt lat="42.1876440" lon="-8.7768370">
        <ele>50.8</ele>
        <time>2021-05-20T08:27:56Z</time>
      </trkpt>
      <trkpt lat="42.1876570" lon="-8.7768280">
        <ele>50.8</ele>
        <time>2021-05-20T08:27:57Z</time>
      </trkpt>
      <trkpt lat="42.1876680" lon="-8.7768300">
        <ele>50.8</ele>
        <time>2021-05-20T08:27:58Z</time>
      </trkpt>
      <trkpt lat="42.1876780" lon="-8.7768230">
        <ele>50.8</ele>
        <time>2021-05-20T08:27:59Z</time>
      </trkpt>
      <trkpt lat="42.1876850" lon="-8.7768280">
        <ele>50.8</ele>
        <time>2021-05-20T08:28:00Z</time>
      </trkpt>
      <trkpt lat="42.1876800" lon="-8.7768200">
        <ele>50.8</ele>
        <time>2021-05-20T08:28:01Z</time>
      </trkpt>
      <trkpt lat="42.1876900" lon="-8.7768160">
        <ele>50.8</ele>
        <time>2021-05-20T08:28:02Z</time>
      </trkpt>
      <trkpt lat="42.1877030" lon="-8.7768040">
        <ele>50.8</ele>
        <time>2021-05-20T08:28:03Z</time>
      </trkpt>
      <trkpt lat="42.1876970" lon="-8.7768060">
        <ele>50.8</ele>
        <time>2021-05-20T08:28:04Z</time>
      </trkpt>
      <trkpt lat="42.1877100" lon="-8.7768000">
        <ele>50.9</ele>
        <time>2021-05-20T08:28:05Z</time>
      </trkpt>
      <trkpt lat="42.1877190" lon="-8.7767890">
        <ele>50.9</ele>
        <time>2021-05-20T08:28:06Z</time>
      </trkpt>
      <trkpt lat="42.1877260" lon="-8.7767790">
        <ele>50.9</ele>
        <time>2021-05-20T08:28:07Z</time>
      </trkpt>
      <trkpt lat="42.1877490" lon="-8.7767760">
        <ele>50.9</ele>
        <time>2021-05-20T08:28:08Z</time>
      </trkpt>
      <trkpt lat="42.1877590" lon="-8.7767700">
        <ele>50.9</ele>
        <time>2021-05-20T08:28:09Z</time>
      </trkpt>
      <trkpt lat="42.1877710" lon="-8.7767650">
        <ele>50.9</ele>
        <time>2021-05-20T08:28:10Z</time>
      </trkpt>
      <trkpt lat="42.1877770" lon="-8.7767570">
        <ele>50.9</ele>
        <time>2021-05-20T08:28:11Z</time>
      </trkpt>
      <trkpt lat="42.1877880" lon="-8.7767490">
        <ele>50.9</ele>
        <time>2021-05-20T08:28:12Z</time>
      </trkpt>
      <trkpt lat="42.1877930" lon="-8.7767410">
        <ele>50.9</ele>
        <time>2021-05-20T08:28:13Z</time>
      </trkpt>
      <trkpt lat="42.1878020" lon="-8.7767300">
        <ele>50.9</ele>
        <time>2021-05-20T08:28:14Z</time>
      </trkpt>
      <trkpt lat="42.1878150" lon="-8.7767210">
        <ele>51.0</ele>
        <time>2021-05-20T08:28:15Z</time>
      </trkpt>
      <trkpt lat="42.1878290" lon="-8.7767150">
        <ele>51.0</ele>
        <time>2021-05-20T08:28:16Z</time>
      </trkpt>
      <trkpt lat="42.1878440" lon="-8.7767080">
        <ele>51.0</ele>
        <time>2021-05-20T08:28:17Z</time>
      </trkpt>
      <trkpt lat="42.1878510" lon="-8.7766930">
        <ele>51.0</ele>
        <time>2021-05-20T08:28:18Z</time>
      </trkpt>
      <trkpt lat="42.1878610" lon="-8.7766920">
        <ele>51.0</ele>
        <time>2021-05-20T08:28:19Z</time>
      </trkpt>
      <trkpt lat="42.1878680" lon="-8.7766860">
        <ele>51.0</ele>
        <time>2021-05-20T08:28:20Z</time>
      </trkpt>
      <trkpt lat="42.1878840" lon="-8.7766840">
        <ele>51.1</ele>
        <time>2021-05-20T08:28:21Z</time>
      </trkpt>
      <trkpt lat="42.1879000" lon="-8.7766790">
        <ele>51.1</ele>
        <time>2021-05-20T08:28:22Z</time>
      </trkpt>
      <trkpt lat="42.1879150" lon="-8.7766780">
        <ele>51.1</ele>
        <time>2021-05-20T08:28:23Z</time>
      </trkpt>
      <trkpt lat="42.1879260" lon="-8.7766770">
        <ele>51.1</ele>
        <time>2021-05-20T08:28:24Z</time>
      </trkpt>
      <trkpt lat="42.1879370" lon="-8.7766770">
        <ele>51.1</ele>
        <time>2021-05-20T08:28:25Z</time>
      </trkpt>
      <trkpt lat="42.1879540" lon="-8.7766750">
        <ele>51.1</ele>
        <time>2021-05-20T08:28:26Z</time>
      </trkpt>
      <trkpt lat="42.1879630" lon="-8.7766680">
        <ele>51.2</ele>
        <time>2021-05-20T08:28:27Z</time>
      </trkpt>
      <trkpt lat="42.1879780" lon="-8.7766580">
        <ele>51.2</ele>
        <time>2021-05-20T08:28:28Z</time>
      </trkpt>
      <trkpt lat="42.1879890" lon="-8.7766530">
        <ele>51.2</ele>
        <time>2021-05-20T08:28:29Z</time>
      </trkpt>
      <trkpt lat="42.1879980" lon="-8.7766480">
        <ele>51.2</ele>
        <time>2021-05-20T08:28:30Z</time>
      </trkpt>
      <trkpt lat="42.1880020" lon="-8.7766490">
        <ele>51.2</ele>
        <time>2021-05-20T08:28:31Z</time>
      </trkpt>
      <trkpt lat="42.1880100" lon="-8.7766520">
        <ele>51.2</ele>
        <time>2021-05-20T08:28:32Z</time>
      </trkpt>
      <trkpt lat="42.1880080" lon="-8.7766550">
        <ele>51.2</ele>
        <time>2021-05-20T08:28:33Z</time>
      </trkpt>
      <trkpt lat="42.1880190" lon="-8.7766570">
        <ele>51.2</ele>
        <time>2021-05-20T08:28:34Z</time>
      </trkpt>
      <trkpt lat="42.1880210" lon="-8.7766590">
        <ele>51.2</ele>
        <time>2021-05-20T08:28:35Z</time>
      </trkpt>
      <trkpt lat="42.1880220" lon="-8.7766580">
        <ele>51.2</ele>
        <time>2021-05-20T08:28:36Z</time>
      </trkpt>
      <trkpt lat="42.1880260" lon="-8.7766610">
        <ele>51.3</ele>
        <time>2021-05-20T08:28:37Z</time>
      </trkpt>
      <trkpt lat="42.1880460" lon="-8.7766680">
        <ele>51.3</ele>
        <time>2021-05-20T08:28:38Z</time>
      </trkpt>
      <trkpt lat="42.1880520" lon="-8.7766690">
        <ele>51.3</ele>
        <time>2021-05-20T08:28:39Z</time>
      </trkpt>
      <trkpt lat="42.1880600" lon="-8.7766560">
        <ele>51.3</ele>
        <time>2021-05-20T08:28:40Z</time>
      </trkpt>
      <trkpt lat="42.1880710" lon="-8.7766480">
        <ele>51.3</ele>
        <time>2021-05-20T08:28:41Z</time>
      </trkpt>
      <trkpt lat="42.1880890" lon="-8.7766430">
        <ele>51.3</ele>
        <time>2021-05-20T08:28:42Z</time>
      </trkpt>
      <trkpt lat="42.1880990" lon="-8.7766420">
        <ele>51.4</ele>
        <time>2021-05-20T08:28:43Z</time>
      </trkpt>
      <trkpt lat="42.1881050" lon="-8.7766290">
        <ele>51.4</ele>
        <time>2021-05-20T08:28:44Z</time>
      </trkpt>
      <trkpt lat="42.1881070" lon="-8.7766200">
        <ele>51.4</ele>
        <time>2021-05-20T08:28:45Z</time>
      </trkpt>
      <trkpt lat="42.1881210" lon="-8.7766130">
        <ele>51.4</ele>
        <time>2021-05-20T08:28:46Z</time>
      </trkpt>
      <trkpt lat="42.1881300" lon="-8.7766100">
        <ele>51.4</ele>
        <time>2021-05-20T08:28:47Z</time>
      </trkpt>
      <trkpt lat="42.1881410" lon="-8.7766080">
        <ele>51.4</ele>
        <time>2021-05-20T08:28:48Z</time>
      </trkpt>
      <trkpt lat="42.1881550" lon="-8.7766020">
        <ele>51.5</ele>
        <time>2021-05-20T08:28:49Z</time>
      </trkpt>
      <trkpt lat="42.1881700" lon="-8.7765940">
        <ele>51.5</ele>
        <time>2021-05-20T08:28:50Z</time>
      </trkpt>
      <trkpt lat="42.1881780" lon="-8.7765940">
        <ele>51.5</ele>
        <time>2021-05-20T08:28:51Z</time>
      </trkpt>
      <trkpt lat="42.1881860" lon="-8.7765930">
        <ele>51.5</ele>
        <time>2021-05-20T08:28:52Z</time>
      </trkpt>
      <trkpt lat="42.1881940" lon="-8.7765920">
        <ele>51.5</ele>
        <time>2021-05-20T08:28:53Z</time>
      </trkpt>
      <trkpt lat="42.1882130" lon="-8.7765900">
        <ele>51.6</ele>
        <time>2021-05-20T08:28:54Z</time>
      </trkpt>
      <trkpt lat="42.1882280" lon="-8.7765860">
        <ele>51.6</ele>
        <time>2021-05-20T08:28:55Z</time>
      </trkpt>
      <trkpt lat="42.1882480" lon="-8.7765830">
        <ele>51.6</ele>
        <time>2021-05-20T08:28:56Z</time>
      </trkpt>
      <trkpt lat="42.1882620" lon="-8.7765790">
        <ele>51.7</ele>
        <time>2021-05-20T08:28:57Z</time>
      </trkpt>
      <trkpt lat="42.1882700" lon="-8.7765730">
        <ele>51.7</ele>
        <time>2021-05-20T08:28:58Z</time>
      </trkpt>
      <trkpt lat="42.1882770" lon="-8.7765670">
        <ele>51.7</ele>
        <time>2021-05-20T08:28:59Z</time>
      </trkpt>
      <trkpt lat="42.1882910" lon="-8.7765690">
        <ele>51.7</ele>
        <time>2021-05-20T08:29:00Z</time>
      </trkpt>
      <trkpt lat="42.1883120" lon="-8.7765700">
        <ele>51.8</ele>
        <time>2021-05-20T08:29:01Z</time>
      </trkpt>
      <trkpt lat="42.1883270" lon="-8.7765710">
        <ele>51.8</ele>
        <time>2021-05-20T08:29:02Z</time>
      </trkpt>
      <trkpt lat="42.1883430" lon="-8.7765680">
        <ele>51.8</ele>
        <time>2021-05-20T08:29:03Z</time>
      </trkpt>
      <trkpt lat="42.1883590" lon="-8.7765650">
        <ele>51.9</ele>
        <time>2021-05-20T08:29:04Z</time>
      </trkpt>
      <trkpt lat="42.1883730" lon="-8.7765590">
        <ele>51.9</ele>
        <time>2021-05-20T08:29:05Z</time>
      </trkpt>
      <trkpt lat="42.1883890" lon="-8.7765510">
        <ele>51.9</ele>
        <time>2021-05-20T08:29:06Z</time>
      </trkpt>
      <trkpt lat="42.1884060" lon="-8.7765490">
        <ele>52.0</ele>
        <time>2021-05-20T08:29:07Z</time>
      </trkpt>
      <trkpt lat="42.1884210" lon="-8.7765430">
        <ele>52.0</ele>
        <time>2021-05-20T08:29:08Z</time>
      </trkpt>
      <trkpt lat="42.1884360" lon="-8.7765370">
        <ele>52.0</ele>
        <time>2021-05-20T08:29:09Z</time>
      </trkpt>
      <trkpt lat="42.1884530" lon="-8.7765360">
        <ele>52.1</ele>
        <time>2021-05-20T08:29:10Z</time>
      </trkpt>
      <trkpt lat="42.1884690" lon="-8.7765330">
        <ele>52.1</ele>
        <time>2021-05-20T08:29:11Z</time>
      </trkpt>
      <trkpt lat="42.1884850" lon="-8.7765260">
        <ele>52.1</ele>
        <time>2021-05-20T08:29:12Z</time>
      </trkpt>
      <trkpt lat="42.1885030" lon="-8.7765250">
        <ele>52.1</ele>
        <time>2021-05-20T08:29:13Z</time>
      </trkpt>
      <trkpt lat="42.1885180" lon="-8.7765240">
        <ele>52.2</ele>
        <time>2021-05-20T08:29:14Z</time>
      </trkpt>
      <trkpt lat="42.1885340" lon="-8.7765200">
        <ele>52.2</ele>
        <time>2021-05-20T08:29:15Z</time>
      </trkpt>
      <trkpt lat="42.1885480" lon="-8.7765200">
        <ele>52.2</ele>
        <time>2021-05-20T08:29:16Z</time>
      </trkpt>
      <trkpt lat="42.1885640" lon="-8.7765170">
        <ele>52.2</ele>
        <time>2021-05-20T08:29:17Z</time>
      </trkpt>
      <trkpt lat="42.1885780" lon="-8.7765150">
        <ele>52.3</ele>
        <time>2021-05-20T08:29:18Z</time>
      </trkpt>
      <trkpt lat="42.1885900" lon="-8.7765150">
        <ele>52.3</ele>
        <time>2021-05-20T08:29:19Z</time>
      </trkpt>
      <trkpt lat="42.1885960" lon="-8.7765110">
        <ele>52.3</ele>
        <time>2021-05-20T08:29:20Z</time>
      </trkpt>
      <trkpt lat="42.1886060" lon="-8.7765090">
        <ele>52.3</ele>
        <time>2021-05-20T08:29:21Z</time>
      </trkpt>
      <trkpt lat="42.1886180" lon="-8.7765100">
        <ele>52.3</ele>
        <time>2021-05-20T08:29:22Z</time>
      </trkpt>
      <trkpt lat="42.1886300" lon="-8.7765100">
        <ele>52.3</ele>
        <time>2021-05-20T08:29:23Z</time>
      </trkpt>
      <trkpt lat="42.1886400" lon="-8.7765110">
        <ele>52.3</ele>
        <time>2021-05-20T08:29:24Z</time>
      </trkpt>
      <trkpt lat="42.1886550" lon="-8.7765100">
        <ele>52.3</ele>
        <time>2021-05-20T08:29:25Z</time>
      </trkpt>
      <trkpt lat="42.1886620" lon="-8.7765100">
        <ele>52.3</ele>
        <time>2021-05-20T08:29:26Z</time>
      </trkpt>
      <trkpt lat="42.1886710" lon="-8.7765150">
        <ele>52.3</ele>
        <time>2021-05-20T08:29:27Z</time>
      </trkpt>
      <trkpt lat="42.1886930" lon="-8.7765160">
        <ele>52.4</ele>
        <time>2021-05-20T08:29:28Z</time>
      </trkpt>
      <trkpt lat="42.1887010" lon="-8.7765140">
        <ele>52.4</ele>
        <time>2021-05-20T08:29:29Z</time>
      </trkpt>
      <trkpt lat="42.1887080" lon="-8.7765130">
        <ele>52.4</ele>
        <time>2021-05-20T08:29:30Z</time>
      </trkpt>
      <trkpt lat="42.1887120" lon="-8.7765130">
        <ele>52.4</ele>
        <time>2021-05-20T08:29:31Z</time>
      </trkpt>
      <trkpt lat="42.1887210" lon="-8.7765060">
        <ele>52.4</ele>
        <time>2021-05-20T08:29:32Z</time>
      </trkpt>
      <trkpt lat="42.1887290" lon="-8.7765160">
        <ele>52.4</ele>
        <time>2021-05-20T08:29:33Z</time>
      </trkpt>
      <trkpt lat="42.1887400" lon="-8.7765000">
        <ele>52.4</ele>
        <time>2021-05-20T08:29:34Z</time>
      </trkpt>
      <trkpt lat="42.1887500" lon="-8.7764900">
        <ele>52.4</ele>
        <time>2021-05-20T08:29:35Z</time>
      </trkpt>
      <trkpt lat="42.1887650" lon="-8.7764820">
        <ele>52.4</ele>
        <time>2021-05-20T08:29:36Z</time>
      </trkpt>
      <trkpt lat="42.1887750" lon="-8.7764710">
        <ele>52.4</ele>
        <time>2021-05-20T08:29:37Z</time>
      </trkpt>
      <trkpt lat="42.1887830" lon="-8.7764690">
        <ele>52.4</ele>
        <time>2021-05-20T08:29:38Z</time>
      </trkpt>
      <trkpt lat="42.1887950" lon="-8.7764650">
        <ele>52.4</ele>
        <time>2021-05-20T08:29:39Z</time>
      </trkpt>
      <trkpt lat="42.1888020" lon="-8.7764450">
        <ele>52.4</ele>
        <time>2021-05-20T08:29:40Z</time>
      </trkpt>
      <trkpt lat="42.1888130" lon="-8.7764290">
        <ele>52.5</ele>
        <time>2021-05-20T08:29:41Z</time>
      </trkpt>
      <trkpt lat="42.1888280" lon="-8.7764200">
        <ele>52.5</ele>
        <time>2021-05-20T08:29:42Z</time>
      </trkpt>
      <trkpt lat="42.1888460" lon="-8.7764110">
        <ele>52.5</ele>
        <time>2021-05-20T08:29:43Z</time>
      </trkpt>
      <trkpt lat="42.1888650" lon="-8.7764050">
        <ele>52.5</ele>
        <time>2021-05-20T08:29:44Z</time>
      </trkpt>
      <trkpt lat="42.1888770" lon="-8.7764020">
        <ele>52.5</ele>
        <time>2021-05-20T08:29:45Z</time>
      </trkpt>
      <trkpt lat="42.1888940" lon="-8.7763920">
        <ele>52.5</ele>
        <time>2021-05-20T08:29:46Z</time>
      </trkpt>
      <trkpt lat="42.1889060" lon="-8.7763890">
        <ele>52.5</ele>
        <time>2021-05-20T08:29:47Z</time>
      </trkpt>
      <trkpt lat="42.1889190" lon="-8.7763940">
        <ele>52.5</ele>
        <time>2021-05-20T08:29:48Z</time>
      </trkpt>
      <trkpt lat="42.1889230" lon="-8.7763980">
        <ele>52.5</ele>
        <time>2021-05-20T08:29:49Z</time>
      </trkpt>
      <trkpt lat="42.1889350" lon="-8.7763920">
        <ele>52.5</ele>
        <time>2021-05-20T08:29:50Z</time>
      </trkpt>
      <trkpt lat="42.1889550" lon="-8.7763830">
        <ele>52.4</ele>
        <time>2021-05-20T08:29:51Z</time>
      </trkpt>
      <trkpt lat="42.1889620" lon="-8.7763820">
        <ele>52.4</ele>
        <time>2021-05-20T08:29:52Z</time>
      </trkpt>
      <trkpt lat="42.1889690" lon="-8.7763800">
        <ele>52.4</ele>
        <time>2021-05-20T08:29:53Z</time>
      </trkpt>
      <trkpt lat="42.1889760" lon="-8.7763780">
        <ele>52.4</ele>
        <time>2021-05-20T08:29:54Z</time>
      </trkpt>
      <trkpt lat="42.1889990" lon="-8.7763720">
        <ele>52.3</ele>
        <time>2021-05-20T08:29:55Z</time>
      </trkpt>
      <trkpt lat="42.1890050" lon="-8.7763690">
        <ele>52.3</ele>
        <time>2021-05-20T08:29:56Z</time>
      </trkpt>
      <trkpt lat="42.1890110" lon="-8.7763650">
        <ele>52.3</ele>
        <time>2021-05-20T08:29:57Z</time>
      </trkpt>
      <trkpt lat="42.1890270" lon="-8.7763590">
        <ele>52.3</ele>
        <time>2021-05-20T08:29:58Z</time>
      </trkpt>
      <trkpt lat="42.1890370" lon="-8.7763520">
        <ele>52.3</ele>
        <time>2021-05-20T08:29:59Z</time>
      </trkpt>
      <trkpt lat="42.1890460" lon="-8.7763440">
        <ele>52.2</ele>
        <time>2021-05-20T08:30:00Z</time>
      </trkpt>
      <trkpt lat="42.1890620" lon="-8.7763390">
        <ele>52.2</ele>
        <time>2021-05-20T08:30:01Z</time>
      </trkpt>
      <trkpt lat="42.1890690" lon="-8.7763380">
        <ele>52.1</ele>
        <time>2021-05-20T08:30:02Z</time>
      </trkpt>
      <trkpt lat="42.1890760" lon="-8.7763330">
        <ele>52.1</ele>
        <time>2021-05-20T08:30:03Z</time>
      </trkpt>
      <trkpt lat="42.1890950" lon="-8.7763280">
        <ele>52.0</ele>
        <time>2021-05-20T08:30:04Z</time>
      </trkpt>
      <trkpt lat="42.1891050" lon="-8.7763270">
        <ele>52.0</ele>
        <time>2021-05-20T08:30:05Z</time>
      </trkpt>
      <trkpt lat="42.1891100" lon="-8.7763260">
        <ele>52.0</ele>
        <time>2021-05-20T08:30:06Z</time>
      </trkpt>
      <trkpt lat="42.1891140" lon="-8.7763280">
        <ele>52.0</ele>
        <time>2021-05-20T08:30:07Z</time>
      </trkpt>
      <trkpt lat="42.1891200" lon="-8.7763310">
        <ele>51.9</ele>
        <time>2021-05-20T08:30:08Z</time>
      </trkpt>
      <trkpt lat="42.1891260" lon="-8.7763290">
        <ele>51.9</ele>
        <time>2021-05-20T08:30:09Z</time>
      </trkpt>
      <trkpt lat="42.1891420" lon="-8.7763260">
        <ele>51.9</ele>
        <time>2021-05-20T08:30:10Z</time>
      </trkpt>
      <trkpt lat="42.1891530" lon="-8.7763180">
        <ele>51.8</ele>
        <time>2021-05-20T08:30:11Z</time>
      </trkpt>
      <trkpt lat="42.1891630" lon="-8.7763140">
        <ele>51.8</ele>
        <time>2021-05-20T08:30:12Z</time>
      </trkpt>
      <trkpt lat="42.1891720" lon="-8.7763100">
        <ele>51.7</ele>
        <time>2021-05-20T08:30:13Z</time>
      </trkpt>
      <trkpt lat="42.1891820" lon="-8.7763060">
        <ele>51.7</ele>
        <time>2021-05-20T08:30:14Z</time>
      </trkpt>
      <trkpt lat="42.1891940" lon="-8.7763080">
        <ele>51.6</ele>
        <time>2021-05-20T08:30:15Z</time>
      </trkpt>
      <trkpt lat="42.1892120" lon="-8.7763130">
        <ele>51.6</ele>
        <time>2021-05-20T08:30:16Z</time>
      </trkpt>
      <trkpt lat="42.1892380" lon="-8.7763110">
        <ele>51.5</ele>
        <time>2021-05-20T08:30:17Z</time>
      </trkpt>
      <trkpt lat="42.1892500" lon="-8.7763070">
        <ele>51.4</ele>
        <time>2021-05-20T08:30:18Z</time>
      </trkpt>
      <trkpt lat="42.1892680" lon="-8.7762990">
        <ele>51.3</ele>
        <time>2021-05-20T08:30:19Z</time>
      </trkpt>
      <trkpt lat="42.1892860" lon="-8.7763030">
        <ele>51.3</ele>
        <time>2021-05-20T08:30:20Z</time>
      </trkpt>
      <trkpt lat="42.1893130" lon="-8.7762980">
        <ele>51.2</ele>
        <time>2021-05-20T08:30:21Z</time>
      </trkpt>
      <trkpt lat="42.1893220" lon="-8.7762930">
        <ele>51.2</ele>
        <time>2021-05-20T08:30:22Z</time>
      </trkpt>
      <trkpt lat="42.1893380" lon="-8.7762970">
        <ele>51.1</ele>
        <time>2021-05-20T08:30:23Z</time>
      </trkpt>
      <trkpt lat="42.1893570" lon="-8.7763020">
        <ele>51.1</ele>
        <time>2021-05-20T08:30:24Z</time>
      </trkpt>
      <trkpt lat="42.1893720" lon="-8.7762950">
        <ele>51.0</ele>
        <time>2021-05-20T08:30:25Z</time>
      </trkpt>
      <trkpt lat="42.1893880" lon="-8.7762890">
        <ele>51.0</ele>
        <time>2021-05-20T08:30:26Z</time>
      </trkpt>
      <trkpt lat="42.1894000" lon="-8.7762860">
        <ele>51.0</ele>
        <time>2021-05-20T08:30:27Z</time>
      </trkpt>
      <trkpt lat="42.1894090" lon="-8.7762860">
        <ele>50.9</ele>
        <time>2021-05-20T08:30:28Z</time>
      </trkpt>
      <trkpt lat="42.1894100" lon="-8.7762840">
        <ele>50.9</ele>
        <time>2021-05-20T08:30:29Z</time>
      </trkpt>
      <trkpt lat="42.1894200" lon="-8.7762800">
        <ele>50.9</ele>
        <time>2021-05-20T08:30:30Z</time>
      </trkpt>
      <trkpt lat="42.1894370" lon="-8.7762720">
        <ele>50.8</ele>
        <time>2021-05-20T08:30:31Z</time>
      </trkpt>
      <trkpt lat="42.1894430" lon="-8.7762670">
        <ele>50.7</ele>
        <time>2021-05-20T08:30:32Z</time>
      </trkpt>
      <trkpt lat="42.1894480" lon="-8.7762620">
        <ele>50.7</ele>
        <time>2021-05-20T08:30:33Z</time>
      </trkpt>
      <trkpt lat="42.1894540" lon="-8.7762570">
        <ele>50.7</ele>
        <time>2021-05-20T08:30:34Z</time>
      </trkpt>
      <trkpt lat="42.1894620" lon="-8.7762560">
        <ele>50.6</ele>
        <time>2021-05-20T08:30:35Z</time>
      </trkpt>
      <trkpt lat="42.1894630" lon="-8.7762490">
        <ele>50.6</ele>
        <time>2021-05-20T08:30:36Z</time>
      </trkpt>
      <trkpt lat="42.1894770" lon="-8.7762520">
        <ele>50.5</ele>
        <time>2021-05-20T08:30:37Z</time>
      </trkpt>
      <trkpt lat="42.1894900" lon="-8.7762490">
        <ele>50.5</ele>
        <time>2021-05-20T08:30:38Z</time>
      </trkpt>
      <trkpt lat="42.1894970" lon="-8.7762500">
        <ele>50.4</ele>
        <time>2021-05-20T08:30:39Z</time>
      </trkpt>
      <trkpt lat="42.1895060" lon="-8.7762520">
        <ele>50.4</ele>
        <time>2021-05-20T08:30:40Z</time>
      </trkpt>
      <trkpt lat="42.1895200" lon="-8.7762540">
        <ele>50.3</ele>
        <time>2021-05-20T08:30:41Z</time>
      </trkpt>
      <trkpt lat="42.1895300" lon="-8.7762460">
        <ele>50.3</ele>
        <time>2021-05-20T08:30:42Z</time>
      </trkpt>
      <trkpt lat="42.1895470" lon="-8.7762450">
        <ele>50.2</ele>
        <time>2021-05-20T08:30:43Z</time>
      </trkpt>
      <trkpt lat="42.1895610" lon="-8.7762330">
        <ele>50.1</ele>
        <time>2021-05-20T08:30:44Z</time>
      </trkpt>
      <trkpt lat="42.1895760" lon="-8.7762210">
        <ele>50.0</ele>
        <time>2021-05-20T08:30:45Z</time>
      </trkpt>
      <trkpt lat="42.1895920" lon="-8.7762090">
        <ele>49.9</ele>
        <time>2021-05-20T08:30:46Z</time>
      </trkpt>
      <trkpt lat="42.1895990" lon="-8.7762030">
        <ele>49.8</ele>
        <time>2021-05-20T08:30:47Z</time>
      </trkpt>
      <trkpt lat="42.1896010" lon="-8.7762020">
        <ele>49.8</ele>
        <time>2021-05-20T08:30:48Z</time>
      </trkpt>
      <trkpt lat="42.1896130" lon="-8.7761960">
        <ele>49.7</ele>
        <time>2021-05-20T08:30:49Z</time>
      </trkpt>
      <trkpt lat="42.1896260" lon="-8.7761920">
        <ele>49.7</ele>
        <time>2021-05-20T08:30:50Z</time>
      </trkpt>
      <trkpt lat="42.1896400" lon="-8.7761890">
        <ele>49.6</ele>
        <time>2021-05-20T08:30:51Z</time>
      </trkpt>
      <trkpt lat="42.1896530" lon="-8.7761890">
        <ele>49.5</ele>
        <time>2021-05-20T08:30:52Z</time>
      </trkpt>
      <trkpt lat="42.1896710" lon="-8.7761850">
        <ele>49.4</ele>
        <time>2021-05-20T08:30:53Z</time>
      </trkpt>
      <trkpt lat="42.1896600" lon="-8.7761910">
        <ele>49.3</ele>
        <time>2021-05-20T08:30:54Z</time>
      </trkpt>
      <trkpt lat="42.1896800" lon="-8.7761940">
        <ele>49.2</ele>
        <time>2021-05-20T08:30:55Z</time>
      </trkpt>
      <trkpt lat="42.1896900" lon="-8.7761950">
        <ele>49.1</ele>
        <time>2021-05-20T08:30:56Z</time>
      </trkpt>
      <trkpt lat="42.1897060" lon="-8.7761950">
        <ele>49.0</ele>
        <time>2021-05-20T08:30:57Z</time>
      </trkpt>
      <trkpt lat="42.1897160" lon="-8.7761960">
        <ele>49.0</ele>
        <time>2021-05-20T08:30:58Z</time>
      </trkpt>
      <trkpt lat="42.1897270" lon="-8.7761930">
        <ele>48.9</ele>
        <time>2021-05-20T08:30:59Z</time>
      </trkpt>
      <trkpt lat="42.1897350" lon="-8.7761910">
        <ele>48.9</ele>
        <time>2021-05-20T08:31:00Z</time>
      </trkpt>
      <trkpt lat="42.1897440" lon="-8.7761900">
        <ele>48.8</ele>
        <time>2021-05-20T08:31:01Z</time>
      </trkpt>
      <trkpt lat="42.1897520" lon="-8.7761880">
        <ele>48.7</ele>
        <time>2021-05-20T08:31:02Z</time>
      </trkpt>
      <trkpt lat="42.1897690" lon="-8.7761830">
        <ele>48.6</ele>
        <time>2021-05-20T08:31:03Z</time>
      </trkpt>
      <trkpt lat="42.1897750" lon="-8.7761790">
        <ele>48.6</ele>
        <time>2021-05-20T08:31:04Z</time>
      </trkpt>
      <trkpt lat="42.1897810" lon="-8.7761740">
        <ele>48.5</ele>
        <time>2021-05-20T08:31:05Z</time>
      </trkpt>
      <trkpt lat="42.1897870" lon="-8.7761700">
        <ele>48.5</ele>
        <time>2021-05-20T08:31:06Z</time>
      </trkpt>
      <trkpt lat="42.1898050" lon="-8.7761640">
        <ele>48.4</ele>
        <time>2021-05-20T08:31:07Z</time>
      </trkpt>
      <trkpt lat="42.1898180" lon="-8.7761630">
        <ele>48.3</ele>
        <time>2021-05-20T08:31:08Z</time>
      </trkpt>
      <trkpt lat="42.1898370" lon="-8.7761590">
        <ele>48.2</ele>
        <time>2021-05-20T08:31:09Z</time>
      </trkpt>
      <trkpt lat="42.1898460" lon="-8.7761560">
        <ele>48.1</ele>
        <time>2021-05-20T08:31:10Z</time>
      </trkpt>
      <trkpt lat="42.1898550" lon="-8.7761540">
        <ele>48.1</ele>
        <time>2021-05-20T08:31:11Z</time>
      </trkpt>
      <trkpt lat="42.1898840" lon="-8.7761410">
        <ele>47.9</ele>
        <time>2021-05-20T08:31:12Z</time>
      </trkpt>
      <trkpt lat="42.1898920" lon="-8.7761330">
        <ele>47.8</ele>
        <time>2021-05-20T08:31:13Z</time>
      </trkpt>
      <trkpt lat="42.1899130" lon="-8.7761200">
        <ele>47.6</ele>
        <time>2021-05-20T08:31:14Z</time>
      </trkpt>
      <trkpt lat="42.1899220" lon="-8.7761180">
        <ele>47.6</ele>
        <time>2021-05-20T08:31:15Z</time>
      </trkpt>
      <trkpt lat="42.1899320" lon="-8.7761170">
        <ele>47.5</ele>
        <time>2021-05-20T08:31:16Z</time>
      </trkpt>
      <trkpt lat="42.1899340" lon="-8.7761080">
        <ele>47.5</ele>
        <time>2021-05-20T08:31:17Z</time>
      </trkpt>
      <trkpt lat="42.1899490" lon="-8.7761030">
        <ele>47.4</ele>
        <time>2021-05-20T08:31:18Z</time>
      </trkpt>
      <trkpt lat="42.1899610" lon="-8.7761020">
        <ele>47.3</ele>
        <time>2021-05-20T08:31:19Z</time>
      </trkpt>
      <trkpt lat="42.1899770" lon="-8.7760950">
        <ele>47.2</ele>
        <time>2021-05-20T08:31:20Z</time>
      </trkpt>
      <trkpt lat="42.1899960" lon="-8.7760870">
        <ele>47.1</ele>
        <time>2021-05-20T08:31:21Z</time>
      </trkpt>
      <trkpt lat="42.1900180" lon="-8.7760810">
        <ele>46.9</ele>
        <time>2021-05-20T08:31:22Z</time>
      </trkpt>
      <trkpt lat="42.1900290" lon="-8.7760840">
        <ele>46.8</ele>
        <time>2021-05-20T08:31:23Z</time>
      </trkpt>
      <trkpt lat="42.1900380" lon="-8.7760830">
        <ele>46.8</ele>
        <time>2021-05-20T08:31:24Z</time>
      </trkpt>
      <trkpt lat="42.1900590" lon="-8.7760840">
        <ele>46.6</ele>
        <time>2021-05-20T08:31:25Z</time>
      </trkpt>
      <trkpt lat="42.1900700" lon="-8.7760810">
        <ele>46.6</ele>
        <time>2021-05-20T08:31:26Z</time>
      </trkpt>
      <trkpt lat="42.1900770" lon="-8.7760840">
        <ele>46.5</ele>
        <time>2021-05-20T08:31:27Z</time>
      </trkpt>
      <trkpt lat="42.1900810" lon="-8.7760840">
        <ele>46.5</ele>
        <time>2021-05-20T08:31:28Z</time>
      </trkpt>
      <trkpt lat="42.1900870" lon="-8.7760790">
        <ele>46.4</ele>
        <time>2021-05-20T08:31:29Z</time>
      </trkpt>
      <trkpt lat="42.1900930" lon="-8.7760810">
        <ele>46.4</ele>
        <time>2021-05-20T08:31:30Z</time>
      </trkpt>
      <trkpt lat="42.1900910" lon="-8.7760860">
        <ele>46.4</ele>
        <time>2021-05-20T08:31:31Z</time>
      </trkpt>
      <trkpt lat="42.1900950" lon="-8.7760820">
        <ele>46.3</ele>
        <time>2021-05-20T08:31:32Z</time>
      </trkpt>
      <trkpt lat="42.1901060" lon="-8.7760820">
        <ele>46.3</ele>
        <time>2021-05-20T08:31:33Z</time>
      </trkpt>
      <trkpt lat="42.1901150" lon="-8.7760830">
        <ele>46.2</ele>
        <time>2021-05-20T08:31:34Z</time>
      </trkpt>
      <trkpt lat="42.1901210" lon="-8.7760700">
        <ele>46.1</ele>
        <time>2021-05-20T08:31:35Z</time>
      </trkpt>
      <trkpt lat="42.1901350" lon="-8.7760490">
        <ele>46.0</ele>
        <time>2021-05-20T08:31:36Z</time>
      </trkpt>
      <trkpt lat="42.1901670" lon="-8.7760430">
        <ele>45.8</ele>
        <time>2021-05-20T08:31:37Z</time>
      </trkpt>
      <trkpt lat="42.1901760" lon="-8.7760400">
        <ele>45.8</ele>
        <time>2021-05-20T08:31:38Z</time>
      </trkpt>
      <trkpt lat="42.1902030" lon="-8.7760360">
        <ele>45.6</ele>
        <time>2021-05-20T08:31:39Z</time>
      </trkpt>
      <trkpt lat="42.1902120" lon="-8.7760320">
        <ele>45.5</ele>
        <time>2021-05-20T08:31:40Z</time>
      </trkpt>
      <trkpt lat="42.1902360" lon="-8.7760320">
        <ele>45.4</ele>
        <time>2021-05-20T08:31:41Z</time>
      </trkpt>
      <trkpt lat="42.1902480" lon="-8.7760220">
        <ele>45.3</ele>
        <time>2021-05-20T08:31:42Z</time>
      </trkpt>
      <trkpt lat="42.1902590" lon="-8.7760190">
        <ele>45.3</ele>
        <time>2021-05-20T08:31:43Z</time>
      </trkpt>
      <trkpt lat="42.1902730" lon="-8.7760190">
        <ele>45.2</ele>
        <time>2021-05-20T08:31:44Z</time>
      </trkpt>
      <trkpt lat="42.1902820" lon="-8.7760150">
        <ele>45.1</ele>
        <time>2021-05-20T08:31:45Z</time>
      </trkpt>
      <trkpt lat="42.1903000" lon="-8.7760120">
        <ele>45.0</ele>
        <time>2021-05-20T08:31:46Z</time>
      </trkpt>
      <trkpt lat="42.1903090" lon="-8.7760080">
        <ele>45.0</ele>
        <time>2021-05-20T08:31:47Z</time>
      </trkpt>
      <trkpt lat="42.1903190" lon="-8.7760050">
        <ele>44.9</ele>
        <time>2021-05-20T08:31:48Z</time>
      </trkpt>
      <trkpt lat="42.1903380" lon="-8.7759970">
        <ele>44.8</ele>
        <time>2021-05-20T08:31:49Z</time>
      </trkpt>
      <trkpt lat="42.1903480" lon="-8.7759930">
        <ele>44.7</ele>
        <time>2021-05-20T08:31:50Z</time>
      </trkpt>
      <trkpt lat="42.1903580" lon="-8.7759900">
        <ele>44.7</ele>
        <time>2021-05-20T08:31:51Z</time>
      </trkpt>
      <trkpt lat="42.1903810" lon="-8.7759850">
        <ele>44.6</ele>
        <time>2021-05-20T08:31:52Z</time>
      </trkpt>
      <trkpt lat="42.1903880" lon="-8.7759740">
        <ele>44.5</ele>
        <time>2021-05-20T08:31:53Z</time>
      </trkpt>
      <trkpt lat="42.1904030" lon="-8.7759680">
        <ele>44.5</ele>
        <time>2021-05-20T08:31:54Z</time>
      </trkpt>
      <trkpt lat="42.1904160" lon="-8.7759660">
        <ele>44.4</ele>
        <time>2021-05-20T08:31:55Z</time>
      </trkpt>
      <trkpt lat="42.1904250" lon="-8.7759660">
        <ele>44.3</ele>
        <time>2021-05-20T08:31:56Z</time>
      </trkpt>
      <trkpt lat="42.1904350" lon="-8.7759670">
        <ele>44.3</ele>
        <time>2021-05-20T08:31:57Z</time>
      </trkpt>
      <trkpt lat="42.1904510" lon="-8.7759660">
        <ele>44.2</ele>
        <time>2021-05-20T08:31:58Z</time>
      </trkpt>
      <trkpt lat="42.1904670" lon="-8.7759590">
        <ele>44.2</ele>
        <time>2021-05-20T08:31:59Z</time>
      </trkpt>
      <trkpt lat="42.1904780" lon="-8.7759570">
        <ele>44.1</ele>
        <time>2021-05-20T08:32:00Z</time>
      </trkpt>
      <trkpt lat="42.1904890" lon="-8.7759540">
        <ele>44.1</ele>
        <time>2021-05-20T08:32:01Z</time>
      </trkpt>
      <trkpt lat="42.1904940" lon="-8.7759550">
        <ele>44.0</ele>
        <time>2021-05-20T08:32:02Z</time>
      </trkpt>
      <trkpt lat="42.1905050" lon="-8.7759550">
        <ele>44.0</ele>
        <time>2021-05-20T08:32:03Z</time>
      </trkpt>
      <trkpt lat="42.1905160" lon="-8.7759570">
        <ele>44.0</ele>
        <time>2021-05-20T08:32:04Z</time>
      </trkpt>
      <trkpt lat="42.1905400" lon="-8.7759450">
        <ele>43.9</ele>
        <time>2021-05-20T08:32:05Z</time>
      </trkpt>
      <trkpt lat="42.1905500" lon="-8.7759400">
        <ele>43.8</ele>
        <time>2021-05-20T08:32:06Z</time>
      </trkpt>
      <trkpt lat="42.1905600" lon="-8.7759350">
        <ele>43.8</ele>
        <time>2021-05-20T08:32:07Z</time>
      </trkpt>
      <trkpt lat="42.1905790" lon="-8.7759320">
        <ele>43.7</ele>
        <time>2021-05-20T08:32:08Z</time>
      </trkpt>
      <trkpt lat="42.1905880" lon="-8.7759310">
        <ele>43.7</ele>
        <time>2021-05-20T08:32:09Z</time>
      </trkpt>
      <trkpt lat="42.1905970" lon="-8.7759300">
        <ele>43.7</ele>
        <time>2021-05-20T08:32:10Z</time>
      </trkpt>
      <trkpt lat="42.1906250" lon="-8.7759190">
        <ele>43.6</ele>
        <time>2021-05-20T08:32:11Z</time>
      </trkpt>
      <trkpt lat="42.1906340" lon="-8.7759180">
        <ele>43.5</ele>
        <time>2021-05-20T08:32:12Z</time>
      </trkpt>
      <trkpt lat="42.1906650" lon="-8.7759110">
        <ele>43.4</ele>
        <time>2021-05-20T08:32:13Z</time>
      </trkpt>
      <trkpt lat="42.1906950" lon="-8.7759160">
        <ele>43.4</ele>
        <time>2021-05-20T08:32:14Z</time>
      </trkpt>
      <trkpt lat="42.1907040" lon="-8.7759150">
        <ele>43.3</ele>
        <time>2021-05-20T08:32:15Z</time>
      </trkpt>
      <trkpt lat="42.1907230" lon="-8.7759160">
        <ele>43.3</ele>
        <time>2021-05-20T08:32:16Z</time>
      </trkpt>
      <trkpt lat="42.1907390" lon="-8.7759110">
        <ele>43.3</ele>
        <time>2021-05-20T08:32:17Z</time>
      </trkpt>
      <trkpt lat="42.1907530" lon="-8.7759060">
        <ele>43.2</ele>
        <time>2021-05-20T08:32:18Z</time>
      </trkpt>
      <trkpt lat="42.1907620" lon="-8.7759060">
        <ele>43.2</ele>
        <time>2021-05-20T08:32:19Z</time>
      </trkpt>
      <trkpt lat="42.1907730" lon="-8.7758980">
        <ele>43.2</ele>
        <time>2021-05-20T08:32:20Z</time>
      </trkpt>
      <trkpt lat="42.1907780" lon="-8.7758890">
        <ele>43.2</ele>
        <time>2021-05-20T08:32:21Z</time>
      </trkpt>
      <trkpt lat="42.1907890" lon="-8.7758980">
        <ele>43.1</ele>
        <time>2021-05-20T08:32:22Z</time>
      </trkpt>
      <trkpt lat="42.1908030" lon="-8.7758950">
        <ele>43.1</ele>
        <time>2021-05-20T08:32:23Z</time>
      </trkpt>
      <trkpt lat="42.1908120" lon="-8.7758950">
        <ele>43.1</ele>
        <time>2021-05-20T08:32:24Z</time>
      </trkpt>
      <trkpt lat="42.1908210" lon="-8.7758900">
        <ele>43.1</ele>
        <time>2021-05-20T08:32:25Z</time>
      </trkpt>
      <trkpt lat="42.1908300" lon="-8.7758860">
        <ele>43.0</ele>
        <time>2021-05-20T08:32:26Z</time>
      </trkpt>
      <trkpt lat="42.1908390" lon="-8.7758810">
        <ele>43.0</ele>
        <time>2021-05-20T08:32:27Z</time>
      </trkpt>
      <trkpt lat="42.1908590" lon="-8.7758760">
        <ele>43.0</ele>
        <time>2021-05-20T08:32:28Z</time>
      </trkpt>
      <trkpt lat="42.1908680" lon="-8.7758730">
        <ele>43.0</ele>
        <time>2021-05-20T08:32:29Z</time>
      </trkpt>
      <trkpt lat="42.1908760" lon="-8.7758700">
        <ele>43.0</ele>
        <time>2021-05-20T08:32:30Z</time>
      </trkpt>
      <trkpt lat="42.1908860" lon="-8.7758590">
        <ele>42.9</ele>
        <time>2021-05-20T08:32:31Z</time>
      </trkpt>
      <trkpt lat="42.1909080" lon="-8.7758560">
        <ele>42.9</ele>
        <time>2021-05-20T08:32:32Z</time>
      </trkpt>
      <trkpt lat="42.1909220" lon="-8.7758430">
        <ele>42.8</ele>
        <time>2021-05-20T08:32:33Z</time>
      </trkpt>
      <trkpt lat="42.1909280" lon="-8.7758260">
        <ele>42.8</ele>
        <time>2021-05-20T08:32:34Z</time>
      </trkpt>
      <trkpt lat="42.1909410" lon="-8.7758240">
        <ele>42.8</ele>
        <time>2021-05-20T08:32:35Z</time>
      </trkpt>
      <trkpt lat="42.1909500" lon="-8.7758200">
        <ele>42.7</ele>
        <time>2021-05-20T08:32:36Z</time>
      </trkpt>
      <trkpt lat="42.1909570" lon="-8.7758070">
        <ele>42.7</ele>
        <time>2021-05-20T08:32:37Z</time>
      </trkpt>
      <trkpt lat="42.1909640" lon="-8.7757940">
        <ele>42.7</ele>
        <time>2021-05-20T08:32:38Z</time>
      </trkpt>
      <trkpt lat="42.1909830" lon="-8.7757830">
        <ele>42.6</ele>
        <time>2021-05-20T08:32:39Z</time>
      </trkpt>
      <trkpt lat="42.1909970" lon="-8.7757770">
        <ele>42.5</ele>
        <time>2021-05-20T08:32:40Z</time>
      </trkpt>
      <trkpt lat="42.1910120" lon="-8.7757660">
        <ele>42.5</ele>
        <time>2021-05-20T08:32:41Z</time>
      </trkpt>
      <trkpt lat="42.1910280" lon="-8.7757530">
        <ele>42.4</ele>
        <time>2021-05-20T08:32:42Z</time>
      </trkpt>
      <trkpt lat="42.1910400" lon="-8.7757490">
        <ele>42.4</ele>
        <time>2021-05-20T08:32:43Z</time>
      </trkpt>
      <trkpt lat="42.1910510" lon="-8.7757460">
        <ele>42.3</ele>
        <time>2021-05-20T08:32:44Z</time>
      </trkpt>
      <trkpt lat="42.1910660" lon="-8.7757300">
        <ele>42.3</ele>
        <time>2021-05-20T08:32:45Z</time>
      </trkpt>
      <trkpt lat="42.1910760" lon="-8.7757250">
        <ele>42.2</ele>
        <time>2021-05-20T08:32:46Z</time>
      </trkpt>
      <trkpt lat="42.1910950" lon="-8.7757140">
        <ele>42.2</ele>
        <time>2021-05-20T08:32:47Z</time>
      </trkpt>
      <trkpt lat="42.1911040" lon="-8.7757050">
        <ele>42.1</ele>
        <time>2021-05-20T08:32:48Z</time>
      </trkpt>
      <trkpt lat="42.1911120" lon="-8.7756960">
        <ele>42.1</ele>
        <time>2021-05-20T08:32:49Z</time>
      </trkpt>
      <trkpt lat="42.1911210" lon="-8.7756870">
        <ele>42.0</ele>
        <time>2021-05-20T08:32:50Z</time>
      </trkpt>
      <trkpt lat="42.1911300" lon="-8.7756750">
        <ele>42.0</ele>
        <time>2021-05-20T08:32:51Z</time>
      </trkpt>
      <trkpt lat="42.1911390" lon="-8.7756690">
        <ele>41.9</ele>
        <time>2021-05-20T08:32:52Z</time>
      </trkpt>
      <trkpt lat="42.1911580" lon="-8.7756480">
        <ele>41.8</ele>
        <time>2021-05-20T08:32:53Z</time>
      </trkpt>
      <trkpt lat="42.1911650" lon="-8.7756370">
        <ele>41.8</ele>
        <time>2021-05-20T08:32:54Z</time>
      </trkpt>
      <trkpt lat="42.1911710" lon="-8.7756270">
        <ele>41.7</ele>
        <time>2021-05-20T08:32:55Z</time>
      </trkpt>
      <trkpt lat="42.1911830" lon="-8.7756190">
        <ele>41.7</ele>
        <time>2021-05-20T08:32:56Z</time>
      </trkpt>
      <trkpt lat="42.1912000" lon="-8.7756070">
        <ele>41.6</ele>
        <time>2021-05-20T08:32:57Z</time>
      </trkpt>
      <trkpt lat="42.1912170" lon="-8.7756060">
        <ele>41.5</ele>
        <time>2021-05-20T08:32:58Z</time>
      </trkpt>
      <trkpt lat="42.1912280" lon="-8.7755970">
        <ele>41.5</ele>
        <time>2021-05-20T08:32:59Z</time>
      </trkpt>
      <trkpt lat="42.1912300" lon="-8.7755930">
        <ele>41.4</ele>
        <time>2021-05-20T08:33:00Z</time>
      </trkpt>
      <trkpt lat="42.1912350" lon="-8.7755770">
        <ele>41.4</ele>
        <time>2021-05-20T08:33:01Z</time>
      </trkpt>
      <trkpt lat="42.1912480" lon="-8.7755650">
        <ele>41.3</ele>
        <time>2021-05-20T08:33:02Z</time>
      </trkpt>
      <trkpt lat="42.1912600" lon="-8.7755500">
        <ele>41.2</ele>
        <time>2021-05-20T08:33:03Z</time>
      </trkpt>
      <trkpt lat="42.1912700" lon="-8.7755410">
        <ele>41.2</ele>
        <time>2021-05-20T08:33:04Z</time>
      </trkpt>
      <trkpt lat="42.1912790" lon="-8.7755320">
        <ele>41.1</ele>
        <time>2021-05-20T08:33:05Z</time>
      </trkpt>
      <trkpt lat="42.1912800" lon="-8.7755270">
        <ele>41.1</ele>
        <time>2021-05-20T08:33:06Z</time>
      </trkpt>
      <trkpt lat="42.1912880" lon="-8.7755160">
        <ele>41.0</ele>
        <time>2021-05-20T08:33:07Z</time>
      </trkpt>
      <trkpt lat="42.1912970" lon="-8.7754990">
        <ele>41.0</ele>
        <time>2021-05-20T08:33:08Z</time>
      </trkpt>
      <trkpt lat="42.1913070" lon="-8.7754920">
        <ele>40.9</ele>
        <time>2021-05-20T08:33:09Z</time>
      </trkpt>
      <trkpt lat="42.1913210" lon="-8.7754740">
        <ele>40.8</ele>
        <time>2021-05-20T08:33:10Z</time>
      </trkpt>
      <trkpt lat="42.1913300" lon="-8.7754640">
        <ele>40.8</ele>
        <time>2021-05-20T08:33:11Z</time>
      </trkpt>
      <trkpt lat="42.1913420" lon="-8.7754610">
        <ele>40.7</ele>
        <time>2021-05-20T08:33:12Z</time>
      </trkpt>
      <trkpt lat="42.1913500" lon="-8.7754550">
        <ele>40.6</ele>
        <time>2021-05-20T08:33:13Z</time>
      </trkpt>
      <trkpt lat="42.1913600" lon="-8.7754450">
        <ele>40.6</ele>
        <time>2021-05-20T08:33:14Z</time>
      </trkpt>
      <trkpt lat="42.1913690" lon="-8.7754330">
        <ele>40.5</ele>
        <time>2021-05-20T08:33:15Z</time>
      </trkpt>
      <trkpt lat="42.1913790" lon="-8.7754280">
        <ele>40.4</ele>
        <time>2021-05-20T08:33:16Z</time>
      </trkpt>
      <trkpt lat="42.1913880" lon="-8.7754210">
        <ele>40.4</ele>
        <time>2021-05-20T08:33:17Z</time>
      </trkpt>
      <trkpt lat="42.1913980" lon="-8.7753990">
        <ele>40.3</ele>
        <time>2021-05-20T08:33:18Z</time>
      </trkpt>
      <trkpt lat="42.1914010" lon="-8.7753860">
        <ele>40.2</ele>
        <time>2021-05-20T08:33:19Z</time>
      </trkpt>
      <trkpt lat="42.1914180" lon="-8.7753730">
        <ele>40.1</ele>
        <time>2021-05-20T08:33:20Z</time>
      </trkpt>
      <trkpt lat="42.1914270" lon="-8.7753580">
        <ele>40.0</ele>
        <time>2021-05-20T08:33:21Z</time>
      </trkpt>
      <trkpt lat="42.1914450" lon="-8.7753490">
        <ele>39.9</ele>
        <time>2021-05-20T08:33:22Z</time>
      </trkpt>
      <trkpt lat="42.1914550" lon="-8.7753420">
        <ele>39.8</ele>
        <time>2021-05-20T08:33:23Z</time>
      </trkpt>
      <trkpt lat="42.1914690" lon="-8.7753280">
        <ele>39.7</ele>
        <time>2021-05-20T08:33:24Z</time>
      </trkpt>
      <trkpt lat="42.1914690" lon="-8.7753200">
        <ele>39.7</ele>
        <time>2021-05-20T08:33:25Z</time>
      </trkpt>
      <trkpt lat="42.1914770" lon="-8.7753100">
        <ele>39.7</ele>
        <time>2021-05-20T08:33:26Z</time>
      </trkpt>
      <trkpt lat="42.1914820" lon="-8.7752970">
        <ele>39.6</ele>
        <time>2021-05-20T08:33:27Z</time>
      </trkpt>
      <trkpt lat="42.1914820" lon="-8.7752910">
        <ele>39.6</ele>
        <time>2021-05-20T08:33:28Z</time>
      </trkpt>
      <trkpt lat="42.1914970" lon="-8.7752800">
        <ele>39.5</ele>
        <time>2021-05-20T08:33:29Z</time>
      </trkpt>
      <trkpt lat="42.1915020" lon="-8.7752740">
        <ele>39.4</ele>
        <time>2021-05-20T08:33:30Z</time>
      </trkpt>
      <trkpt lat="42.1915020" lon="-8.7752600">
        <ele>39.4</ele>
        <time>2021-05-20T08:33:31Z</time>
      </trkpt>
      <trkpt lat="42.1915170" lon="-8.7752390">
        <ele>39.2</ele>
        <time>2021-05-20T08:33:32Z</time>
      </trkpt>
      <trkpt lat="42.1915240" lon="-8.7752310">
        <ele>39.2</ele>
        <time>2021-05-20T08:33:33Z</time>
      </trkpt>
      <trkpt lat="42.1915310" lon="-8.7752240">
        <ele>39.1</ele>
        <time>2021-05-20T08:33:34Z</time>
      </trkpt>
      <trkpt lat="42.1915430" lon="-8.7752080">
        <ele>39.1</ele>
        <time>2021-05-20T08:33:35Z</time>
      </trkpt>
      <trkpt lat="42.1915550" lon="-8.7751990">
        <ele>39.0</ele>
        <time>2021-05-20T08:33:36Z</time>
      </trkpt>
      <trkpt lat="42.1915760" lon="-8.7751880">
        <ele>38.9</ele>
        <time>2021-05-20T08:33:37Z</time>
      </trkpt>
      <trkpt lat="42.1915840" lon="-8.7751830">
        <ele>38.8</ele>
        <time>2021-05-20T08:33:38Z</time>
      </trkpt>
      <trkpt lat="42.1915930" lon="-8.7751790">
        <ele>38.8</ele>
        <time>2021-05-20T08:33:39Z</time>
      </trkpt>
      <trkpt lat="42.1916150" lon="-8.7751620">
        <ele>38.6</ele>
        <time>2021-05-20T08:33:40Z</time>
      </trkpt>
      <trkpt lat="42.1916220" lon="-8.7751600">
        <ele>38.6</ele>
        <time>2021-05-20T08:33:41Z</time>
      </trkpt>
      <trkpt lat="42.1916300" lon="-8.7751570">
        <ele>38.6</ele>
        <time>2021-05-20T08:33:42Z</time>
      </trkpt>
      <trkpt lat="42.1916460" lon="-8.7751340">
        <ele>38.5</ele>
        <time>2021-05-20T08:33:43Z</time>
      </trkpt>
      <trkpt lat="42.1916510" lon="-8.7751240">
        <ele>38.4</ele>
        <time>2021-05-20T08:33:44Z</time>
      </trkpt>
      <trkpt lat="42.1916560" lon="-8.7751150">
        <ele>38.4</ele>
        <time>2021-05-20T08:33:45Z</time>
      </trkpt>
      <trkpt lat="42.1916670" lon="-8.7751030">
        <ele>38.3</ele>
        <time>2021-05-20T08:33:46Z</time>
      </trkpt>
      <trkpt lat="42.1916800" lon="-8.7750850">
        <ele>38.3</ele>
        <time>2021-05-20T08:33:47Z</time>
      </trkpt>
      <trkpt lat="42.1916990" lon="-8.7750710">
        <ele>38.2</ele>
        <time>2021-05-20T08:33:48Z</time>
      </trkpt>
      <trkpt lat="42.1917070" lon="-8.7750610">
        <ele>38.1</ele>
        <time>2021-05-20T08:33:49Z</time>
      </trkpt>
      <trkpt lat="42.1917350" lon="-8.7750410">
        <ele>38.0</ele>
        <time>2021-05-20T08:33:50Z</time>
      </trkpt>
      <trkpt lat="42.1917410" lon="-8.7750380">
        <ele>38.0</ele>
        <time>2021-05-20T08:33:51Z</time>
      </trkpt>
      <trkpt lat="42.1917660" lon="-8.7750220">
        <ele>37.9</ele>
        <time>2021-05-20T08:33:52Z</time>
      </trkpt>
      <trkpt lat="42.1917740" lon="-8.7750160">
        <ele>37.9</ele>
        <time>2021-05-20T08:33:53Z</time>
      </trkpt>
      <trkpt lat="42.1917890" lon="-8.7750080">
        <ele>37.8</ele>
        <time>2021-05-20T08:33:54Z</time>
      </trkpt>
      <trkpt lat="42.1918020" lon="-8.7749910">
        <ele>37.8</ele>
        <time>2021-05-20T08:33:55Z</time>
      </trkpt>
      <trkpt lat="42.1918120" lon="-8.7749780">
        <ele>37.7</ele>
        <time>2021-05-20T08:33:56Z</time>
      </trkpt>
      <trkpt lat="42.1918270" lon="-8.7749660">
        <ele>37.7</ele>
        <time>2021-05-20T08:33:57Z</time>
      </trkpt>
      <trkpt lat="42.1918350" lon="-8.7749530">
        <ele>37.6</ele>
        <time>2021-05-20T08:33:58Z</time>
      </trkpt>
      <trkpt lat="42.1918460" lon="-8.7749450">
        <ele>37.6</ele>
        <time>2021-05-20T08:33:59Z</time>
      </trkpt>
      <trkpt lat="42.1918470" lon="-8.7749420">
        <ele>37.6</ele>
        <time>2021-05-20T08:34:00Z</time>
      </trkpt>
      <trkpt lat="42.1918550" lon="-8.7749350">
        <ele>37.6</ele>
        <time>2021-05-20T08:34:01Z</time>
      </trkpt>
      <trkpt lat="42.1918470" lon="-8.7749320">
        <ele>37.5</ele>
        <time>2021-05-20T08:34:02Z</time>
      </trkpt>
      <trkpt lat="42.1918620" lon="-8.7749200">
        <ele>37.5</ele>
        <time>2021-05-20T08:34:03Z</time>
      </trkpt>
      <trkpt lat="42.1918640" lon="-8.7749130">
        <ele>37.5</ele>
        <time>2021-05-20T08:34:04Z</time>
      </trkpt>
      <trkpt lat="42.1918840" lon="-8.7748850">
        <ele>37.4</ele>
        <time>2021-05-20T08:34:05Z</time>
      </trkpt>
      <trkpt lat="42.1918870" lon="-8.7748740">
        <ele>37.4</ele>
        <time>2021-05-20T08:34:06Z</time>
      </trkpt>
      <trkpt lat="42.1918990" lon="-8.7748640">
        <ele>37.3</ele>
        <time>2021-05-20T08:34:07Z</time>
      </trkpt>
      <trkpt lat="42.1919090" lon="-8.7748550">
        <ele>37.3</ele>
        <time>2021-05-20T08:34:08Z</time>
      </trkpt>
      <trkpt lat="42.1919180" lon="-8.7748470">
        <ele>37.3</ele>
        <time>2021-05-20T08:34:09Z</time>
      </trkpt>
      <trkpt lat="42.1919270" lon="-8.7748390">
        <ele>37.3</ele>
        <time>2021-05-20T08:34:10Z</time>
      </trkpt>
      <trkpt lat="42.1919340" lon="-8.7748290">
        <ele>37.2</ele>
        <time>2021-05-20T08:34:11Z</time>
      </trkpt>
      <trkpt lat="42.1919370" lon="-8.7748110">
        <ele>37.2</ele>
        <time>2021-05-20T08:34:12Z</time>
      </trkpt>
      <trkpt lat="42.1919580" lon="-8.7747930">
        <ele>37.2</ele>
        <time>2021-05-20T08:34:13Z</time>
      </trkpt>
      <trkpt lat="42.1919660" lon="-8.7747870">
        <ele>37.1</ele>
        <time>2021-05-20T08:34:14Z</time>
      </trkpt>
      <trkpt lat="42.1919750" lon="-8.7747810">
        <ele>37.1</ele>
        <time>2021-05-20T08:34:15Z</time>
      </trkpt>
      <trkpt lat="42.1919840" lon="-8.7747740">
        <ele>37.1</ele>
        <time>2021-05-20T08:34:16Z</time>
      </trkpt>
      <trkpt lat="42.1919890" lon="-8.7747600">
        <ele>37.1</ele>
        <time>2021-05-20T08:34:18Z</time>
      </trkpt>
      <trkpt lat="42.1919980" lon="-8.7747480">
        <ele>37.1</ele>
        <time>2021-05-20T08:34:19Z</time>
      </trkpt>
      <trkpt lat="42.1920200" lon="-8.7747350">
        <ele>37.0</ele>
        <time>2021-05-20T08:34:20Z</time>
      </trkpt>
      <trkpt lat="42.1920280" lon="-8.7747300">
        <ele>37.0</ele>
        <time>2021-05-20T08:34:21Z</time>
      </trkpt>
      <trkpt lat="42.1920370" lon="-8.7747250">
        <ele>37.0</ele>
        <time>2021-05-20T08:34:22Z</time>
      </trkpt>
      <trkpt lat="42.1920570" lon="-8.7747170">
        <ele>37.0</ele>
        <time>2021-05-20T08:34:23Z</time>
      </trkpt>
      <trkpt lat="42.1920600" lon="-8.7747070">
        <ele>37.0</ele>
        <time>2021-05-20T08:34:24Z</time>
      </trkpt>
      <trkpt lat="42.1920680" lon="-8.7746940">
        <ele>36.9</ele>
        <time>2021-05-20T08:34:25Z</time>
      </trkpt>
      <trkpt lat="42.1920840" lon="-8.7746850">
        <ele>36.9</ele>
        <time>2021-05-20T08:34:26Z</time>
      </trkpt>
      <trkpt lat="42.1920950" lon="-8.7746760">
        <ele>36.9</ele>
        <time>2021-05-20T08:34:27Z</time>
      </trkpt>
      <trkpt lat="42.1921090" lon="-8.7746680">
        <ele>36.9</ele>
        <time>2021-05-20T08:34:28Z</time>
      </trkpt>
      <trkpt lat="42.1921190" lon="-8.7746620">
        <ele>36.9</ele>
        <time>2021-05-20T08:34:29Z</time>
      </trkpt>
      <trkpt lat="42.1921300" lon="-8.7746580">
        <ele>36.9</ele>
        <time>2021-05-20T08:34:30Z</time>
      </trkpt>
      <trkpt lat="42.1921410" lon="-8.7746470">
        <ele>36.9</ele>
        <time>2021-05-20T08:34:31Z</time>
      </trkpt>
      <trkpt lat="42.1921430" lon="-8.7746400">
        <ele>36.9</ele>
        <time>2021-05-20T08:34:32Z</time>
      </trkpt>
      <trkpt lat="42.1921500" lon="-8.7746270">
        <ele>36.8</ele>
        <time>2021-05-20T08:34:33Z</time>
      </trkpt>
      <trkpt lat="42.1921590" lon="-8.7746150">
        <ele>36.8</ele>
        <time>2021-05-20T08:34:34Z</time>
      </trkpt>
      <trkpt lat="42.1921770" lon="-8.7745940">
        <ele>36.8</ele>
        <time>2021-05-20T08:34:35Z</time>
      </trkpt>
      <trkpt lat="42.1921860" lon="-8.7745850">
        <ele>36.8</ele>
        <time>2021-05-20T08:34:36Z</time>
      </trkpt>
      <trkpt lat="42.1921950" lon="-8.7745770">
        <ele>36.8</ele>
        <time>2021-05-20T08:34:37Z</time>
      </trkpt>
      <trkpt lat="42.1922140" lon="-8.7745620">
        <ele>36.8</ele>
        <time>2021-05-20T08:34:38Z</time>
      </trkpt>
      <trkpt lat="42.1922230" lon="-8.7745580">
        <ele>36.8</ele>
        <time>2021-05-20T08:34:39Z</time>
      </trkpt>
      <trkpt lat="42.1922320" lon="-8.7745540">
        <ele>36.8</ele>
        <time>2021-05-20T08:34:40Z</time>
      </trkpt>
      <trkpt lat="42.1922460" lon="-8.7745470">
        <ele>36.8</ele>
        <time>2021-05-20T08:34:41Z</time>
      </trkpt>
      <trkpt lat="42.1922550" lon="-8.7745400">
        <ele>36.7</ele>
        <time>2021-05-20T08:34:42Z</time>
      </trkpt>
      <trkpt lat="42.1922650" lon="-8.7745340">
        <ele>36.7</ele>
        <time>2021-05-20T08:34:43Z</time>
      </trkpt>
      <trkpt lat="42.1922890" lon="-8.7745220">
        <ele>36.7</ele>
        <time>2021-05-20T08:34:44Z</time>
      </trkpt>
      <trkpt lat="42.1923020" lon="-8.7745160">
        <ele>36.7</ele>
        <time>2021-05-20T08:34:45Z</time>
      </trkpt>
      <trkpt lat="42.1923090" lon="-8.7745120">
        <ele>36.7</ele>
        <time>2021-05-20T08:34:46Z</time>
      </trkpt>
      <trkpt lat="42.1923210" lon="-8.7745050">
        <ele>36.7</ele>
        <time>2021-05-20T08:34:47Z</time>
      </trkpt>
      <trkpt lat="42.1923280" lon="-8.7744960">
        <ele>36.7</ele>
        <time>2021-05-20T08:34:48Z</time>
      </trkpt>
      <trkpt lat="42.1923420" lon="-8.7744840">
        <ele>36.7</ele>
        <time>2021-05-20T08:34:49Z</time>
      </trkpt>
      <trkpt lat="42.1923570" lon="-8.7744800">
        <ele>36.7</ele>
        <time>2021-05-20T08:34:50Z</time>
      </trkpt>
      <trkpt lat="42.1923700" lon="-8.7744540">
        <ele>36.6</ele>
        <time>2021-05-20T08:34:51Z</time>
      </trkpt>
      <trkpt lat="42.1923750" lon="-8.7744470">
        <ele>36.6</ele>
        <time>2021-05-20T08:34:52Z</time>
      </trkpt>
      <trkpt lat="42.1923810" lon="-8.7744400">
        <ele>36.6</ele>
        <time>2021-05-20T08:34:53Z</time>
      </trkpt>
      <trkpt lat="42.1923880" lon="-8.7744300">
        <ele>36.6</ele>
        <time>2021-05-20T08:34:54Z</time>
      </trkpt>
      <trkpt lat="42.1923950" lon="-8.7744260">
        <ele>36.6</ele>
        <time>2021-05-20T08:34:55Z</time>
      </trkpt>
      <trkpt lat="42.1924050" lon="-8.7744190">
        <ele>36.6</ele>
        <time>2021-05-20T08:34:56Z</time>
      </trkpt>
      <trkpt lat="42.1924200" lon="-8.7743970">
        <ele>36.6</ele>
        <time>2021-05-20T08:34:57Z</time>
      </trkpt>
      <trkpt lat="42.1924240" lon="-8.7743900">
        <ele>36.6</ele>
        <time>2021-05-20T08:34:58Z</time>
      </trkpt>
      <trkpt lat="42.1924290" lon="-8.7743820">
        <ele>36.6</ele>
        <time>2021-05-20T08:34:59Z</time>
      </trkpt>
      <trkpt lat="42.1924440" lon="-8.7743620">
        <ele>36.6</ele>
        <time>2021-05-20T08:35:00Z</time>
      </trkpt>
      <trkpt lat="42.1924520" lon="-8.7743570">
        <ele>36.5</ele>
        <time>2021-05-20T08:35:01Z</time>
      </trkpt>
      <trkpt lat="42.1924610" lon="-8.7743510">
        <ele>36.5</ele>
        <time>2021-05-20T08:35:02Z</time>
      </trkpt>
      <trkpt lat="42.1924730" lon="-8.7743440">
        <ele>36.5</ele>
        <time>2021-05-20T08:35:03Z</time>
      </trkpt>
      <trkpt lat="42.1924870" lon="-8.7743320">
        <ele>36.5</ele>
        <time>2021-05-20T08:35:04Z</time>
      </trkpt>
      <trkpt lat="42.1925050" lon="-8.7743200">
        <ele>36.5</ele>
        <time>2021-05-20T08:35:05Z</time>
      </trkpt>
      <trkpt lat="42.1925120" lon="-8.7743150">
        <ele>36.5</ele>
        <time>2021-05-20T08:35:06Z</time>
      </trkpt>
      <trkpt lat="42.1925200" lon="-8.7743100">
        <ele>36.5</ele>
        <time>2021-05-20T08:35:07Z</time>
      </trkpt>
      <trkpt lat="42.1925260" lon="-8.7743030">
        <ele>36.4</ele>
        <time>2021-05-20T08:35:08Z</time>
      </trkpt>
      <trkpt lat="42.1925350" lon="-8.7742960">
        <ele>36.4</ele>
        <time>2021-05-20T08:35:09Z</time>
      </trkpt>
      <trkpt lat="42.1925460" lon="-8.7742860">
        <ele>36.4</ele>
        <time>2021-05-20T08:35:10Z</time>
      </trkpt>
      <trkpt lat="42.1925630" lon="-8.7742560">
        <ele>36.4</ele>
        <time>2021-05-20T08:35:11Z</time>
      </trkpt>
      <trkpt lat="42.1925690" lon="-8.7742450">
        <ele>36.4</ele>
        <time>2021-05-20T08:35:12Z</time>
      </trkpt>
      <trkpt lat="42.1925740" lon="-8.7742350">
        <ele>36.4</ele>
        <time>2021-05-20T08:35:13Z</time>
      </trkpt>
      <trkpt lat="42.1925770" lon="-8.7742220">
        <ele>36.3</ele>
        <time>2021-05-20T08:35:14Z</time>
      </trkpt>
      <trkpt lat="42.1925780" lon="-8.7742080">
        <ele>36.3</ele>
        <time>2021-05-20T08:35:15Z</time>
      </trkpt>
      <trkpt lat="42.1925820" lon="-8.7741970">
        <ele>36.3</ele>
        <time>2021-05-20T08:35:16Z</time>
      </trkpt>
      <trkpt lat="42.1925870" lon="-8.7741840">
        <ele>36.3</ele>
        <time>2021-05-20T08:35:17Z</time>
      </trkpt>
      <trkpt lat="42.1925860" lon="-8.7741640">
        <ele>36.3</ele>
        <time>2021-05-20T08:35:18Z</time>
      </trkpt>
      <trkpt lat="42.1925920" lon="-8.7741450">
        <ele>36.2</ele>
        <time>2021-05-20T08:35:19Z</time>
      </trkpt>
      <trkpt lat="42.1926070" lon="-8.7741260">
        <ele>36.2</ele>
        <time>2021-05-20T08:35:20Z</time>
      </trkpt>
      <trkpt lat="42.1926070" lon="-8.7741130">
        <ele>36.2</ele>
        <time>2021-05-20T08:35:21Z</time>
      </trkpt>
      <trkpt lat="42.1926160" lon="-8.7741030">
        <ele>36.2</ele>
        <time>2021-05-20T08:35:22Z</time>
      </trkpt>
      <trkpt lat="42.1926170" lon="-8.7740880">
        <ele>36.2</ele>
        <time>2021-05-20T08:35:23Z</time>
      </trkpt>
      <trkpt lat="42.1926210" lon="-8.7740700">
        <ele>36.1</ele>
        <time>2021-05-20T08:35:24Z</time>
      </trkpt>
      <trkpt lat="42.1926190" lon="-8.7740530">
        <ele>36.1</ele>
        <time>2021-05-20T08:35:25Z</time>
      </trkpt>
      <trkpt lat="42.1926200" lon="-8.7740420">
        <ele>36.1</ele>
        <time>2021-05-20T08:35:26Z</time>
      </trkpt>
      <trkpt lat="42.1926260" lon="-8.7740270">
        <ele>36.1</ele>
        <time>2021-05-20T08:35:27Z</time>
      </trkpt>
      <trkpt lat="42.1926260" lon="-8.7740150">
        <ele>36.1</ele>
        <time>2021-05-20T08:35:28Z</time>
      </trkpt>
      <trkpt lat="42.1926340" lon="-8.7740020">
        <ele>36.0</ele>
        <time>2021-05-20T08:35:29Z</time>
      </trkpt>
      <trkpt lat="42.1926380" lon="-8.7739870">
        <ele>36.0</ele>
        <time>2021-05-20T08:35:30Z</time>
      </trkpt>
      <trkpt lat="42.1926460" lon="-8.7739650">
        <ele>36.0</ele>
        <time>2021-05-20T08:35:31Z</time>
      </trkpt>
      <trkpt lat="42.1926510" lon="-8.7739520">
        <ele>36.0</ele>
        <time>2021-05-20T08:35:32Z</time>
      </trkpt>
      <trkpt lat="42.1926550" lon="-8.7739380">
        <ele>35.9</ele>
        <time>2021-05-20T08:35:33Z</time>
      </trkpt>
      <trkpt lat="42.1926590" lon="-8.7739270">
        <ele>35.9</ele>
        <time>2021-05-20T08:35:34Z</time>
      </trkpt>
      <trkpt lat="42.1926630" lon="-8.7739120">
        <ele>35.9</ele>
        <time>2021-05-20T08:35:35Z</time>
      </trkpt>
      <trkpt lat="42.1926680" lon="-8.7738940">
        <ele>35.8</ele>
        <time>2021-05-20T08:35:36Z</time>
      </trkpt>
      <trkpt lat="42.1926740" lon="-8.7738690">
        <ele>35.8</ele>
        <time>2021-05-20T08:35:37Z</time>
      </trkpt>
      <trkpt lat="42.1926800" lon="-8.7738580">
        <ele>35.7</ele>
        <time>2021-05-20T08:35:38Z</time>
      </trkpt>
      <trkpt lat="42.1926850" lon="-8.7738470">
        <ele>35.7</ele>
        <time>2021-05-20T08:35:39Z</time>
      </trkpt>
      <trkpt lat="42.1926910" lon="-8.7738310">
        <ele>35.7</ele>
        <time>2021-05-20T08:35:40Z</time>
      </trkpt>
      <trkpt lat="42.1926990" lon="-8.7738150">
        <ele>35.6</ele>
        <time>2021-05-20T08:35:41Z</time>
      </trkpt>
      <trkpt lat="42.1926990" lon="-8.7738060">
        <ele>35.6</ele>
        <time>2021-05-20T08:35:42Z</time>
      </trkpt>
      <trkpt lat="42.1927080" lon="-8.7738030">
        <ele>35.6</ele>
        <time>2021-05-20T08:35:43Z</time>
      </trkpt>
      <trkpt lat="42.1927220" lon="-8.7737960">
        <ele>35.6</ele>
        <time>2021-05-20T08:35:44Z</time>
      </trkpt>
      <trkpt lat="42.1927370" lon="-8.7737850">
        <ele>35.5</ele>
        <time>2021-05-20T08:35:45Z</time>
      </trkpt>
      <trkpt lat="42.1927500" lon="-8.7737720">
        <ele>35.5</ele>
        <time>2021-05-20T08:35:46Z</time>
      </trkpt>
      <trkpt lat="42.1927590" lon="-8.7737540">
        <ele>35.4</ele>
        <time>2021-05-20T08:35:47Z</time>
      </trkpt>
      <trkpt lat="42.1927730" lon="-8.7737400">
        <ele>35.4</ele>
        <time>2021-05-20T08:35:48Z</time>
      </trkpt>
      <trkpt lat="42.1927810" lon="-8.7737190">
        <ele>35.3</ele>
        <time>2021-05-20T08:35:49Z</time>
      </trkpt>
      <trkpt lat="42.1927890" lon="-8.7737110">
        <ele>35.3</ele>
        <time>2021-05-20T08:35:50Z</time>
      </trkpt>
      <trkpt lat="42.1928010" lon="-8.7736890">
        <ele>35.2</ele>
        <time>2021-05-20T08:35:51Z</time>
      </trkpt>
      <trkpt lat="42.1928080" lon="-8.7736790">
        <ele>35.2</ele>
        <time>2021-05-20T08:35:52Z</time>
      </trkpt>
      <trkpt lat="42.1928150" lon="-8.7736680">
        <ele>35.2</ele>
        <time>2021-05-20T08:35:53Z</time>
      </trkpt>
      <trkpt lat="42.1928230" lon="-8.7736490">
        <ele>35.2</ele>
        <time>2021-05-20T08:35:54Z</time>
      </trkpt>
      <trkpt lat="42.1928320" lon="-8.7736280">
        <ele>35.2</ele>
        <time>2021-05-20T08:35:55Z</time>
      </trkpt>
      <trkpt lat="42.1928390" lon="-8.7736130">
        <ele>35.2</ele>
        <time>2021-05-20T08:35:56Z</time>
      </trkpt>
      <trkpt lat="42.1928430" lon="-8.7736020">
        <ele>35.2</ele>
        <time>2021-05-20T08:35:57Z</time>
      </trkpt>
      <trkpt lat="42.1928440" lon="-8.7735930">
        <ele>35.2</ele>
        <time>2021-05-20T08:35:58Z</time>
      </trkpt>
      <trkpt lat="42.1928510" lon="-8.7735780">
        <ele>35.2</ele>
        <time>2021-05-20T08:35:59Z</time>
      </trkpt>
      <trkpt lat="42.1928540" lon="-8.7735690">
        <ele>35.2</ele>
        <time>2021-05-20T08:36:00Z</time>
      </trkpt>
      <trkpt lat="42.1928610" lon="-8.7735540">
        <ele>35.2</ele>
        <time>2021-05-20T08:36:01Z</time>
      </trkpt>
      <trkpt lat="42.1928720" lon="-8.7735370">
        <ele>35.1</ele>
        <time>2021-05-20T08:36:02Z</time>
      </trkpt>
      <trkpt lat="42.1928800" lon="-8.7735260">
        <ele>35.1</ele>
        <time>2021-05-20T08:36:03Z</time>
      </trkpt>
      <trkpt lat="42.1928870" lon="-8.7735150">
        <ele>35.1</ele>
        <time>2021-05-20T08:36:04Z</time>
      </trkpt>
      <trkpt lat="42.1928980" lon="-8.7735000">
        <ele>35.1</ele>
        <time>2021-05-20T08:36:05Z</time>
      </trkpt>
      <trkpt lat="42.1929100" lon="-8.7734840">
        <ele>35.1</ele>
        <time>2021-05-20T08:36:06Z</time>
      </trkpt>
      <trkpt lat="42.1929230" lon="-8.7734640">
        <ele>35.1</ele>
        <time>2021-05-20T08:36:07Z</time>
      </trkpt>
      <trkpt lat="42.1929290" lon="-8.7734540">
        <ele>35.1</ele>
        <time>2021-05-20T08:36:08Z</time>
      </trkpt>
      <trkpt lat="42.1929350" lon="-8.7734430">
        <ele>35.1</ele>
        <time>2021-05-20T08:36:09Z</time>
      </trkpt>
      <trkpt lat="42.1929390" lon="-8.7734330">
        <ele>35.1</ele>
        <time>2021-05-20T08:36:10Z</time>
      </trkpt>
      <trkpt lat="42.1929440" lon="-8.7734210">
        <ele>35.1</ele>
        <time>2021-05-20T08:36:11Z</time>
      </trkpt>
      <trkpt lat="42.1929530" lon="-8.7734090">
        <ele>35.1</ele>
        <time>2021-05-20T08:36:12Z</time>
      </trkpt>
      <trkpt lat="42.1929560" lon="-8.7733970">
        <ele>35.1</ele>
        <time>2021-05-20T08:36:13Z</time>
      </trkpt>
      <trkpt lat="42.1929620" lon="-8.7733890">
        <ele>35.1</ele>
        <time>2021-05-20T08:36:14Z</time>
      </trkpt>
      <trkpt lat="42.1929690" lon="-8.7733700">
        <ele>35.0</ele>
        <time>2021-05-20T08:36:15Z</time>
      </trkpt>
      <trkpt lat="42.1929760" lon="-8.7733570">
        <ele>35.0</ele>
        <time>2021-05-20T08:36:16Z</time>
      </trkpt>
      <trkpt lat="42.1929880" lon="-8.7733390">
        <ele>35.0</ele>
        <time>2021-05-20T08:36:17Z</time>
      </trkpt>
      <trkpt lat="42.1929910" lon="-8.7733280">
        <ele>35.0</ele>
        <time>2021-05-20T08:36:18Z</time>
      </trkpt>
      <trkpt lat="42.1929970" lon="-8.7733160">
        <ele>35.0</ele>
        <time>2021-05-20T08:36:19Z</time>
      </trkpt>
      <trkpt lat="42.1930040" lon="-8.7733010">
        <ele>35.0</ele>
        <time>2021-05-20T08:36:20Z</time>
      </trkpt>
      <trkpt lat="42.1930100" lon="-8.7732840">
        <ele>35.0</ele>
        <time>2021-05-20T08:36:21Z</time>
      </trkpt>
      <trkpt lat="42.1930150" lon="-8.7732680">
        <ele>35.0</ele>
        <time>2021-05-20T08:36:22Z</time>
      </trkpt>
      <trkpt lat="42.1930270" lon="-8.7732530">
        <ele>35.0</ele>
        <time>2021-05-20T08:36:23Z</time>
      </trkpt>
      <trkpt lat="42.1930310" lon="-8.7732380">
        <ele>35.0</ele>
        <time>2021-05-20T08:36:24Z</time>
      </trkpt>
      <trkpt lat="42.1930350" lon="-8.7732400">
        <ele>35.0</ele>
        <time>2021-05-20T08:36:25Z</time>
      </trkpt>
      <trkpt lat="42.1930420" lon="-8.7732330">
        <ele>35.0</ele>
        <time>2021-05-20T08:36:26Z</time>
      </trkpt>
      <trkpt lat="42.1930490" lon="-8.7732190">
        <ele>35.0</ele>
        <time>2021-05-20T08:36:27Z</time>
      </trkpt>
      <trkpt lat="42.1930620" lon="-8.7732080">
        <ele>34.9</ele>
        <time>2021-05-20T08:36:29Z</time>
      </trkpt>
      <trkpt lat="42.1930720" lon="-8.7731830">
        <ele>34.9</ele>
        <time>2021-05-20T08:36:30Z</time>
      </trkpt>
      <trkpt lat="42.1930770" lon="-8.7731710">
        <ele>34.9</ele>
        <time>2021-05-20T08:36:31Z</time>
      </trkpt>
      <trkpt lat="42.1930830" lon="-8.7731490">
        <ele>34.9</ele>
        <time>2021-05-20T08:36:32Z</time>
      </trkpt>
      <trkpt lat="42.1930850" lon="-8.7731330">
        <ele>34.9</ele>
        <time>2021-05-20T08:36:33Z</time>
      </trkpt>
      <trkpt lat="42.1930900" lon="-8.7731100">
        <ele>34.9</ele>
        <time>2021-05-20T08:36:34Z</time>
      </trkpt>
      <trkpt lat="42.1930940" lon="-8.7731020">
        <ele>34.9</ele>
        <time>2021-05-20T08:36:35Z</time>
      </trkpt>
      <trkpt lat="42.1930970" lon="-8.7730930">
        <ele>34.9</ele>
        <time>2021-05-20T08:36:36Z</time>
      </trkpt>
      <trkpt lat="42.1931010" lon="-8.7730850">
        <ele>34.9</ele>
        <time>2021-05-20T08:36:37Z</time>
      </trkpt>
      <trkpt lat="42.1931090" lon="-8.7730750">
        <ele>34.9</ele>
        <time>2021-05-20T08:36:38Z</time>
      </trkpt>
      <trkpt lat="42.1931160" lon="-8.7730490">
        <ele>34.9</ele>
        <time>2021-05-20T08:36:39Z</time>
      </trkpt>
      <trkpt lat="42.1931100" lon="-8.7730380">
        <ele>34.8</ele>
        <time>2021-05-20T08:36:40Z</time>
      </trkpt>
      <trkpt lat="42.1931250" lon="-8.7730280">
        <ele>34.8</ele>
        <time>2021-05-20T08:36:41Z</time>
      </trkpt>
      <trkpt lat="42.1931300" lon="-8.7730160">
        <ele>34.8</ele>
        <time>2021-05-20T08:36:42Z</time>
      </trkpt>
      <trkpt lat="42.1931320" lon="-8.7730070">
        <ele>34.8</ele>
        <time>2021-05-20T08:36:43Z</time>
      </trkpt>
      <trkpt lat="42.1931300" lon="-8.7730060">
        <ele>34.8</ele>
        <time>2021-05-20T08:36:44Z</time>
      </trkpt>
      <trkpt lat="42.1931290" lon="-8.7730050">
        <ele>34.8</ele>
        <time>2021-05-20T08:36:45Z</time>
      </trkpt>
      <trkpt lat="42.1931270" lon="-8.7730040">
        <ele>34.8</ele>
        <time>2021-05-20T08:36:46Z</time>
      </trkpt>
      <trkpt lat="42.1931250" lon="-8.7730020">
        <ele>34.8</ele>
        <time>2021-05-20T08:36:47Z</time>
      </trkpt>
      <trkpt lat="42.1931230" lon="-8.7730010">
        <ele>34.8</ele>
        <time>2021-05-20T08:36:48Z</time>
      </trkpt>
      <trkpt lat="42.1931210" lon="-8.7730000">
        <ele>34.8</ele>
        <time>2021-05-20T08:36:49Z</time>
      </trkpt>
      <trkpt lat="42.1931190" lon="-8.7729990">
        <ele>34.8</ele>
        <time>2021-05-20T08:36:50Z</time>
      </trkpt>
      <trkpt lat="42.1931180" lon="-8.7729980">
        <ele>34.8</ele>
        <time>2021-05-20T08:36:51Z</time>
      </trkpt>
      <trkpt lat="42.1931160" lon="-8.7729970">
        <ele>34.8</ele>
        <time>2021-05-20T08:36:52Z</time>
      </trkpt>
      <trkpt lat="42.1931140" lon="-8.7729960">
        <ele>34.8</ele>
        <time>2021-05-20T08:36:53Z</time>
      </trkpt>
      <trkpt lat="42.1931120" lon="-8.7729950">
        <ele>34.8</ele>
        <time>2021-05-20T08:36:54Z</time>
      </trkpt>
      <trkpt lat="42.1931100" lon="-8.7729940">
        <ele>34.8</ele>
        <time>2021-05-20T08:36:55Z</time>
      </trkpt>
      <trkpt lat="42.1931080" lon="-8.7729930">
        <ele>34.8</ele>
        <time>2021-05-20T08:36:56Z</time>
      </trkpt>
      <trkpt lat="42.1931070" lon="-8.7729910">
        <ele>34.8</ele>
        <time>2021-05-20T08:36:57Z</time>
      </trkpt>
      <trkpt lat="42.1931050" lon="-8.7729900">
        <ele>34.8</ele>
        <time>2021-05-20T08:36:58Z</time>
      </trkpt>
      <trkpt lat="42.1931030" lon="-8.7729890">
        <ele>34.8</ele>
        <time>2021-05-20T08:36:59Z</time>
      </trkpt>
      <trkpt lat="42.1931010" lon="-8.7729880">
        <ele>34.8</ele>
        <time>2021-05-20T08:37:00Z</time>
      </trkpt>
      <trkpt lat="42.1930990" lon="-8.7729870">
        <ele>34.8</ele>
        <time>2021-05-20T08:37:01Z</time>
      </trkpt>
      <trkpt lat="42.1930970" lon="-8.7729860">
        <ele>34.8</ele>
        <time>2021-05-20T08:37:02Z</time>
      </trkpt>
      <trkpt lat="42.1930960" lon="-8.7729850">
        <ele>34.8</ele>
        <time>2021-05-20T08:37:03Z</time>
      </trkpt>
      <trkpt lat="42.1930940" lon="-8.7729840">
        <ele>34.8</ele>
        <time>2021-05-20T08:37:04Z</time>
      </trkpt>
      <trkpt lat="42.1930920" lon="-8.7729830">
        <ele>34.8</ele>
        <time>2021-05-20T08:37:05Z</time>
      </trkpt>
      <trkpt lat="42.1930900" lon="-8.7729820">
        <ele>34.8</ele>
        <time>2021-05-20T08:37:06Z</time>
      </trkpt>
      <trkpt lat="42.1930880" lon="-8.7729800">
        <ele>34.8</ele>
        <time>2021-05-20T08:37:07Z</time>
      </trkpt>
      <trkpt lat="42.1930860" lon="-8.7729790">
        <ele>34.8</ele>
        <time>2021-05-20T08:37:08Z</time>
      </trkpt>
      <trkpt lat="42.1930850" lon="-8.7729780">
        <ele>34.8</ele>
        <time>2021-05-20T08:37:09Z</time>
      </trkpt>
      <trkpt lat="42.1930830" lon="-8.7729770">
        <ele>34.8</ele>
        <time>2021-05-20T08:37:10Z</time>
      </trkpt>
      <trkpt lat="42.1930810" lon="-8.7729760">
        <ele>34.8</ele>
        <time>2021-05-20T08:37:11Z</time>
      </trkpt>
      <trkpt lat="42.1930790" lon="-8.7729730">
        <ele>34.8</ele>
        <time>2021-05-20T08:37:12Z</time>
      </trkpt>
      <trkpt lat="42.1930760" lon="-8.7729710">
        <ele>34.8</ele>
        <time>2021-05-20T08:37:13Z</time>
      </trkpt>
      <trkpt lat="42.1930730" lon="-8.7729680">
        <ele>34.8</ele>
        <time>2021-05-20T08:37:14Z</time>
      </trkpt>
      <trkpt lat="42.1930700" lon="-8.7729650">
        <ele>34.8</ele>
        <time>2021-05-20T08:37:15Z</time>
      </trkpt>
      <trkpt lat="42.1930670" lon="-8.7729620">
        <ele>34.8</ele>
        <time>2021-05-20T08:37:16Z</time>
      </trkpt>
      <trkpt lat="42.1930640" lon="-8.7729600">
        <ele>34.8</ele>
        <time>2021-05-20T08:37:17Z</time>
      </trkpt>
      <trkpt lat="42.1930610" lon="-8.7729570">
        <ele>34.8</ele>
        <time>2021-05-20T08:37:18Z</time>
      </trkpt>
      <trkpt lat="42.1930580" lon="-8.7729540">
        <ele>34.8</ele>
        <time>2021-05-20T08:37:19Z</time>
      </trkpt>
      <trkpt lat="42.1930550" lon="-8.7729520">
        <ele>34.8</ele>
        <time>2021-05-20T08:37:20Z</time>
      </trkpt>
      <trkpt lat="42.1930520" lon="-8.7729490">
        <ele>34.8</ele>
        <time>2021-05-20T08:37:21Z</time>
      </trkpt>
      <trkpt lat="42.1930490" lon="-8.7729460">
        <ele>34.8</ele>
        <time>2021-05-20T08:37:22Z</time>
      </trkpt>
      <trkpt lat="42.1930460" lon="-8.7729430">
        <ele>34.8</ele>
        <time>2021-05-20T08:37:23Z</time>
      </trkpt>
      <trkpt lat="42.1930430" lon="-8.7729410">
        <ele>34.8</ele>
        <time>2021-05-20T08:37:24Z</time>
      </trkpt>
      <trkpt lat="42.1930400" lon="-8.7729380">
        <ele>34.7</ele>
        <time>2021-05-20T08:37:25Z</time>
      </trkpt>
      <trkpt lat="42.1930370" lon="-8.7729350">
        <ele>34.7</ele>
        <time>2021-05-20T08:37:26Z</time>
      </trkpt>
      <trkpt lat="42.1930340" lon="-8.7729330">
        <ele>34.7</ele>
        <time>2021-05-20T08:37:27Z</time>
      </trkpt>
      <trkpt lat="42.1930310" lon="-8.7729300">
        <ele>34.7</ele>
        <time>2021-05-20T08:37:28Z</time>
      </trkpt>
      <trkpt lat="42.1930280" lon="-8.7729270">
        <ele>34.7</ele>
        <time>2021-05-20T08:37:29Z</time>
      </trkpt>
      <trkpt lat="42.1930250" lon="-8.7729240">
        <ele>34.7</ele>
        <time>2021-05-20T08:37:30Z</time>
      </trkpt>
      <trkpt lat="42.1930220" lon="-8.7729220">
        <ele>34.7</ele>
        <time>2021-05-20T08:37:31Z</time>
      </trkpt>
      <trkpt lat="42.1930190" lon="-8.7729190">
        <ele>34.7</ele>
        <time>2021-05-20T08:37:32Z</time>
      </trkpt>
      <trkpt lat="42.1930160" lon="-8.7729160">
        <ele>34.7</ele>
        <time>2021-05-20T08:37:33Z</time>
      </trkpt>
      <trkpt lat="42.1930130" lon="-8.7729140">
        <ele>34.7</ele>
        <time>2021-05-20T08:37:34Z</time>
      </trkpt>
      <trkpt lat="42.1930100" lon="-8.7729110">
        <ele>34.7</ele>
        <time>2021-05-20T08:37:35Z</time>
      </trkpt>
      <trkpt lat="42.1930070" lon="-8.7729080">
        <ele>34.7</ele>
        <time>2021-05-20T08:37:36Z</time>
      </trkpt>
      <trkpt lat="42.1930040" lon="-8.7729050">
        <ele>34.7</ele>
        <time>2021-05-20T08:37:37Z</time>
      </trkpt>
      <trkpt lat="42.1930010" lon="-8.7729030">
        <ele>34.7</ele>
        <time>2021-05-20T08:37:38Z</time>
      </trkpt>
      <trkpt lat="42.1929980" lon="-8.7729000">
        <ele>34.7</ele>
        <time>2021-05-20T08:37:39Z</time>
      </trkpt>
      <trkpt lat="42.1929950" lon="-8.7728970">
        <ele>34.7</ele>
        <time>2021-05-20T08:37:40Z</time>
      </trkpt>
      <trkpt lat="42.1929920" lon="-8.7728950">
        <ele>34.7</ele>
        <time>2021-05-20T08:37:41Z</time>
      </trkpt>
      <trkpt lat="42.1929890" lon="-8.7728920">
        <ele>34.7</ele>
        <time>2021-05-20T08:37:42Z</time>
      </trkpt>
      <trkpt lat="42.1929860" lon="-8.7728890">
        <ele>34.7</ele>
        <time>2021-05-20T08:37:43Z</time>
      </trkpt>
      <trkpt lat="42.1929830" lon="-8.7728860">
        <ele>34.7</ele>
        <time>2021-05-20T08:37:44Z</time>
      </trkpt>
      <trkpt lat="42.1929800" lon="-8.7728840">
        <ele>34.7</ele>
        <time>2021-05-20T08:37:45Z</time>
      </trkpt>
      <trkpt lat="42.1929770" lon="-8.7728810">
        <ele>34.7</ele>
        <time>2021-05-20T08:37:46Z</time>
      </trkpt>
      <trkpt lat="42.1929740" lon="-8.7728780">
        <ele>34.7</ele>
        <time>2021-05-20T08:37:47Z</time>
      </trkpt>
      <trkpt lat="42.1929710" lon="-8.7728760">
        <ele>34.7</ele>
        <time>2021-05-20T08:37:48Z</time>
      </trkpt>
      <trkpt lat="42.1929680" lon="-8.7728730">
        <ele>34.7</ele>
        <time>2021-05-20T08:37:49Z</time>
      </trkpt>
      <trkpt lat="42.1929650" lon="-8.7728700">
        <ele>34.7</ele>
        <time>2021-05-20T08:37:50Z</time>
      </trkpt>
      <trkpt lat="42.1929620" lon="-8.7728670">
        <ele>34.7</ele>
        <time>2021-05-20T08:37:51Z</time>
      </trkpt>
      <trkpt lat="42.1929590" lon="-8.7728650">
        <ele>34.7</ele>
        <time>2021-05-20T08:37:52Z</time>
      </trkpt>
      <trkpt lat="42.1929560" lon="-8.7728620">
        <ele>34.7</ele>
        <time>2021-05-20T08:37:53Z</time>
      </trkpt>
      <trkpt lat="42.1930050" lon="-8.7728700">
        <ele>34.6</ele>
        <time>2021-05-20T08:37:54Z</time>
      </trkpt>
      <trkpt lat="42.1930330" lon="-8.7728840">
        <ele>34.6</ele>
        <time>2021-05-20T08:37:55Z</time>
      </trkpt>
      <trkpt lat="42.1930200" lon="-8.7729010">
        <ele>34.6</ele>
        <time>2021-05-20T08:37:56Z</time>
      </trkpt>
      <trkpt lat="42.1930350" lon="-8.7729050">
        <ele>34.6</ele>
        <time>2021-05-20T08:37:57Z</time>
      </trkpt>
      <trkpt lat="42.1930460" lon="-8.7728940">
        <ele>34.6</ele>
        <time>2021-05-20T08:37:58Z</time>
      </trkpt>
      <trkpt lat="42.1930520" lon="-8.7729060">
        <ele>34.6</ele>
        <time>2021-05-20T08:37:59Z</time>
      </trkpt>
      <trkpt lat="42.1930530" lon="-8.7729110">
        <ele>34.6</ele>
        <time>2021-05-20T08:38:00Z</time>
      </trkpt>
      <trkpt lat="42.1930500" lon="-8.7729050">
        <ele>34.6</ele>
        <time>2021-05-20T08:38:01Z</time>
      </trkpt>
      <trkpt lat="42.1930420" lon="-8.7729040">
        <ele>34.6</ele>
        <time>2021-05-20T08:38:02Z</time>
      </trkpt>
      <trkpt lat="42.1930330" lon="-8.7729040">
        <ele>34.6</ele>
        <time>2021-05-20T08:38:03Z</time>
      </trkpt>
      <trkpt lat="42.1930250" lon="-8.7729030">
        <ele>34.6</ele>
        <time>2021-05-20T08:38:04Z</time>
      </trkpt>
      <trkpt lat="42.1930160" lon="-8.7729020">
        <ele>34.6</ele>
        <time>2021-05-20T08:38:05Z</time>
      </trkpt>
      <trkpt lat="42.1930480" lon="-8.7729080">
        <ele>34.5</ele>
        <time>2021-05-20T08:38:06Z</time>
      </trkpt>
      <trkpt lat="42.1930570" lon="-8.7729110">
        <ele>34.5</ele>
        <time>2021-05-20T08:38:07Z</time>
      </trkpt>
      <trkpt lat="42.1930800" lon="-8.7729130">
        <ele>34.5</ele>
        <time>2021-05-20T08:38:08Z</time>
      </trkpt>
      <trkpt lat="42.1930790" lon="-8.7729120">
        <ele>34.5</ele>
        <time>2021-05-20T08:38:09Z</time>
      </trkpt>
      <trkpt lat="42.1930770" lon="-8.7729050">
        <ele>34.5</ele>
        <time>2021-05-20T08:38:10Z</time>
      </trkpt>
      <trkpt lat="42.1930740" lon="-8.7728990">
        <ele>34.5</ele>
        <time>2021-05-20T08:38:11Z</time>
      </trkpt>
      <trkpt lat="42.1930780" lon="-8.7729020">
        <ele>34.5</ele>
        <time>2021-05-20T08:38:12Z</time>
      </trkpt>
      <trkpt lat="42.1930740" lon="-8.7728990">
        <ele>34.5</ele>
        <time>2021-05-20T08:38:13Z</time>
      </trkpt>
      <trkpt lat="42.1930580" lon="-8.7728910">
        <ele>34.5</ele>
        <time>2021-05-20T08:38:14Z</time>
      </trkpt>
      <trkpt lat="42.1930560" lon="-8.7728950">
        <ele>34.5</ele>
        <time>2021-05-20T08:38:16Z</time>
      </trkpt>
      <trkpt lat="42.1930490" lon="-8.7728920">
        <ele>34.5</ele>
        <time>2021-05-20T08:38:17Z</time>
      </trkpt>
      <trkpt lat="42.1930470" lon="-8.7728920">
        <ele>34.5</ele>
        <time>2021-05-20T08:38:18Z</time>
      </trkpt>
      <trkpt lat="42.1930600" lon="-8.7729070">
        <ele>34.5</ele>
        <time>2021-05-20T08:38:19Z</time>
      </trkpt>
      <trkpt lat="42.1930590" lon="-8.7729180">
        <ele>34.5</ele>
        <time>2021-05-20T08:38:20Z</time>
      </trkpt>
      <trkpt lat="42.1930540" lon="-8.7729200">
        <ele>34.5</ele>
        <time>2021-05-20T08:38:21Z</time>
      </trkpt>
      <trkpt lat="42.1930520" lon="-8.7729160">
        <ele>34.5</ele>
        <time>2021-05-20T08:38:22Z</time>
      </trkpt>
      <trkpt lat="42.1930390" lon="-8.7729120">
        <ele>34.4</ele>
        <time>2021-05-20T08:38:23Z</time>
      </trkpt>
      <trkpt lat="42.1930350" lon="-8.7729130">
        <ele>34.4</ele>
        <time>2021-05-20T08:38:24Z</time>
      </trkpt>
      <trkpt lat="42.1930330" lon="-8.7729120">
        <ele>34.4</ele>
        <time>2021-05-20T08:38:25Z</time>
      </trkpt>
      <trkpt lat="42.1930280" lon="-8.7729210">
        <ele>34.4</ele>
        <time>2021-05-20T08:38:26Z</time>
      </trkpt>
      <trkpt lat="42.1930210" lon="-8.7729200">
        <ele>34.4</ele>
        <time>2021-05-20T08:38:27Z</time>
      </trkpt>
      <trkpt lat="42.1930300" lon="-8.7729330">
        <ele>34.4</ele>
        <time>2021-05-20T08:38:28Z</time>
      </trkpt>
      <trkpt lat="42.1930150" lon="-8.7729220">
        <ele>34.4</ele>
        <time>2021-05-20T08:38:29Z</time>
      </trkpt>
      <trkpt lat="42.1930130" lon="-8.7729220">
        <ele>34.4</ele>
        <time>2021-05-20T08:38:30Z</time>
      </trkpt>
      <trkpt lat="42.1930060" lon="-8.7729210">
        <ele>34.4</ele>
        <time>2021-05-20T08:38:31Z</time>
      </trkpt>
      <trkpt lat="42.1929970" lon="-8.7729130">
        <ele>34.4</ele>
        <time>2021-05-20T08:38:32Z</time>
      </trkpt>
      <trkpt lat="42.1929740" lon="-8.7729000">
        <ele>34.4</ele>
        <time>2021-05-20T08:38:33Z</time>
      </trkpt>
      <trkpt lat="42.1929630" lon="-8.7728950">
        <ele>34.4</ele>
        <time>2021-05-20T08:38:34Z</time>
      </trkpt>
      <trkpt lat="42.1929370" lon="-8.7728880">
        <ele>34.4</ele>
        <time>2021-05-20T08:38:35Z</time>
      </trkpt>
      <trkpt lat="42.1929250" lon="-8.7728810">
        <ele>34.3</ele>
        <time>2021-05-20T08:38:36Z</time>
      </trkpt>
      <trkpt lat="42.1928730" lon="-8.7728670">
        <ele>34.3</ele>
        <time>2021-05-20T08:38:37Z</time>
      </trkpt>
      <trkpt lat="42.1928390" lon="-8.7728660">
        <ele>34.3</ele>
        <time>2021-05-20T08:38:38Z</time>
      </trkpt>
      <trkpt lat="42.1928460" lon="-8.7728550">
        <ele>34.3</ele>
        <time>2021-05-20T08:38:39Z</time>
      </trkpt>
      <trkpt lat="42.1928660" lon="-8.7728530">
        <ele>34.3</ele>
        <time>2021-05-20T08:38:40Z</time>
      </trkpt>
      <trkpt lat="42.1928870" lon="-8.7728500">
        <ele>34.2</ele>
        <time>2021-05-20T08:38:41Z</time>
      </trkpt>
      <trkpt lat="42.1929300" lon="-8.7728700">
        <ele>34.2</ele>
        <time>2021-05-20T08:38:42Z</time>
      </trkpt>
      <trkpt lat="42.1929460" lon="-8.7728840">
        <ele>34.2</ele>
        <time>2021-05-20T08:38:43Z</time>
      </trkpt>
      <trkpt lat="42.1929510" lon="-8.7728900">
        <ele>34.2</ele>
        <time>2021-05-20T08:38:44Z</time>
      </trkpt>
      <trkpt lat="42.1929550" lon="-8.7728950">
        <ele>34.2</ele>
        <time>2021-05-20T08:38:45Z</time>
      </trkpt>
      <trkpt lat="42.1929600" lon="-8.7729010">
        <ele>34.2</ele>
        <time>2021-05-20T08:38:46Z</time>
      </trkpt>
      <trkpt lat="42.1929650" lon="-8.7729060">
        <ele>34.2</ele>
        <time>2021-05-20T08:38:47Z</time>
      </trkpt>
      <trkpt lat="42.1929700" lon="-8.7729120">
        <ele>34.2</ele>
        <time>2021-05-20T08:38:48Z</time>
      </trkpt>
      <trkpt lat="42.1929740" lon="-8.7729170">
        <ele>34.2</ele>
        <time>2021-05-20T08:38:49Z</time>
      </trkpt>
      <trkpt lat="42.1929790" lon="-8.7729230">
        <ele>34.2</ele>
        <time>2021-05-20T08:38:50Z</time>
      </trkpt>
      <trkpt lat="42.1929840" lon="-8.7729280">
        <ele>34.2</ele>
        <time>2021-05-20T08:38:51Z</time>
      </trkpt>
      <trkpt lat="42.1930020" lon="-8.7729310">
        <ele>34.1</ele>
        <time>2021-05-20T08:38:52Z</time>
      </trkpt>
      <trkpt lat="42.1930010" lon="-8.7729280">
        <ele>34.1</ele>
        <time>2021-05-20T08:38:53Z</time>
      </trkpt>
      <trkpt lat="42.1930030" lon="-8.7729250">
        <ele>34.1</ele>
        <time>2021-05-20T08:38:54Z</time>
      </trkpt>
      <trkpt lat="42.1930150" lon="-8.7729400">
        <ele>34.1</ele>
        <time>2021-05-20T08:38:55Z</time>
      </trkpt>
      <trkpt lat="42.1930240" lon="-8.7729520">
        <ele>34.1</ele>
        <time>2021-05-20T08:38:56Z</time>
      </trkpt>
      <trkpt lat="42.1930400" lon="-8.7729560">
        <ele>34.1</ele>
        <time>2021-05-20T08:38:57Z</time>
      </trkpt>
      <trkpt lat="42.1930560" lon="-8.7729610">
        <ele>34.1</ele>
        <time>2021-05-20T08:38:58Z</time>
      </trkpt>
      <trkpt lat="42.1930880" lon="-8.7729560">
        <ele>34.1</ele>
        <time>2021-05-20T08:38:59Z</time>
      </trkpt>
      <trkpt lat="42.1931070" lon="-8.7729530">
        <ele>34.1</ele>
        <time>2021-05-20T08:39:00Z</time>
      </trkpt>
      <trkpt lat="42.1931530" lon="-8.7729610">
        <ele>34.0</ele>
        <time>2021-05-20T08:39:01Z</time>
      </trkpt>
      <trkpt lat="42.1931840" lon="-8.7729580">
        <ele>34.0</ele>
        <time>2021-05-20T08:39:02Z</time>
      </trkpt>
      <trkpt lat="42.1932090" lon="-8.7729390">
        <ele>34.0</ele>
        <time>2021-05-20T08:39:03Z</time>
      </trkpt>
      <trkpt lat="42.1932250" lon="-8.7729490">
        <ele>34.0</ele>
        <time>2021-05-20T08:39:04Z</time>
      </trkpt>
      <trkpt lat="42.1932350" lon="-8.7729550">
        <ele>34.0</ele>
        <time>2021-05-20T08:39:05Z</time>
      </trkpt>
      <trkpt lat="42.1932280" lon="-8.7729500">
        <ele>34.0</ele>
        <time>2021-05-20T08:39:06Z</time>
      </trkpt>
      <trkpt lat="42.1932090" lon="-8.7729560">
        <ele>33.9</ele>
        <time>2021-05-20T08:39:07Z</time>
      </trkpt>
      <trkpt lat="42.1931900" lon="-8.7729610">
        <ele>33.9</ele>
        <time>2021-05-20T08:39:08Z</time>
      </trkpt>
      <trkpt lat="42.1931630" lon="-8.7729450">
        <ele>33.9</ele>
        <time>2021-05-20T08:39:09Z</time>
      </trkpt>
      <trkpt lat="42.1931520" lon="-8.7729450">
        <ele>33.9</ele>
        <time>2021-05-20T08:39:10Z</time>
      </trkpt>
      <trkpt lat="42.1931230" lon="-8.7729180">
        <ele>33.9</ele>
        <time>2021-05-20T08:39:11Z</time>
      </trkpt>
      <trkpt lat="42.1931120" lon="-8.7729140">
        <ele>33.9</ele>
        <time>2021-05-20T08:39:12Z</time>
      </trkpt>
      <trkpt lat="42.1930930" lon="-8.7729110">
        <ele>33.8</ele>
        <time>2021-05-20T08:39:13Z</time>
      </trkpt>
      <trkpt lat="42.1930980" lon="-8.7729110">
        <ele>33.8</ele>
        <time>2021-05-20T08:39:14Z</time>
      </trkpt>
      <trkpt lat="42.1930940" lon="-8.7729170">
        <ele>33.8</ele>
        <time>2021-05-20T08:39:15Z</time>
      </trkpt>
      <trkpt lat="42.1930890" lon="-8.7729140">
        <ele>33.8</ele>
        <time>2021-05-20T08:39:16Z</time>
      </trkpt>
      <trkpt lat="42.1930960" lon="-8.7729040">
        <ele>33.8</ele>
        <time>2021-05-20T08:39:17Z</time>
      </trkpt>
      <trkpt lat="42.1931010" lon="-8.7729090">
        <ele>33.8</ele>
        <time>2021-05-20T08:39:18Z</time>
      </trkpt>
      <trkpt lat="42.1930800" lon="-8.7729260">
        <ele>33.8</ele>
        <time>2021-05-20T08:39:19Z</time>
      </trkpt>
      <trkpt lat="42.1930770" lon="-8.7729050">
        <ele>33.8</ele>
        <time>2021-05-20T08:39:20Z</time>
      </trkpt>
      <trkpt lat="42.1930680" lon="-8.7729000">
        <ele>33.6</ele>
        <time>2021-05-20T08:39:21Z</time>
      </trkpt>
      <trkpt lat="42.1930710" lon="-8.7728930">
        <ele>33.6</ele>
        <time>2021-05-20T08:39:22Z</time>
      </trkpt>
      <trkpt lat="42.1931030" lon="-8.7728950">
        <ele>33.6</ele>
        <time>2021-05-20T08:39:23Z</time>
      </trkpt>
      <trkpt lat="42.1931530" lon="-8.7729100">
        <ele>33.6</ele>
        <time>2021-05-20T08:39:24Z</time>
      </trkpt>
      <trkpt lat="42.1931710" lon="-8.7729230">
        <ele>33.6</ele>
        <time>2021-05-20T08:39:25Z</time>
      </trkpt>
      <trkpt lat="42.1931600" lon="-8.7729250">
        <ele>33.6</ele>
        <time>2021-05-20T08:39:26Z</time>
      </trkpt>
      <trkpt lat="42.1931480" lon="-8.7729260">
        <ele>33.6</ele>
        <time>2021-05-20T08:39:27Z</time>
      </trkpt>
      <trkpt lat="42.1931510" lon="-8.7729230">
        <ele>33.6</ele>
        <time>2021-05-20T08:39:28Z</time>
      </trkpt>
      <trkpt lat="42.1931570" lon="-8.7729250">
        <ele>33.6</ele>
        <time>2021-05-20T08:39:29Z</time>
      </trkpt>
      <trkpt lat="42.1931570" lon="-8.7729300">
        <ele>33.6</ele>
        <time>2021-05-20T08:39:30Z</time>
      </trkpt>
      <trkpt lat="42.1931480" lon="-8.7729250">
        <ele>33.6</ele>
        <time>2021-05-20T08:39:31Z</time>
      </trkpt>
      <trkpt lat="42.1931310" lon="-8.7729270">
        <ele>33.6</ele>
        <time>2021-05-20T08:39:32Z</time>
      </trkpt>
      <trkpt lat="42.1931260" lon="-8.7729080">
        <ele>33.6</ele>
        <time>2021-05-20T08:39:33Z</time>
      </trkpt>
      <trkpt lat="42.1931270" lon="-8.7728950">
        <ele>33.6</ele>
        <time>2021-05-20T08:39:34Z</time>
      </trkpt>
      <trkpt lat="42.1931230" lon="-8.7728900">
        <ele>33.6</ele>
        <time>2021-05-20T08:39:35Z</time>
      </trkpt>
      <trkpt lat="42.1931360" lon="-8.7729040">
        <ele>33.6</ele>
        <time>2021-05-20T08:39:36Z</time>
      </trkpt>
      <trkpt lat="42.1931380" lon="-8.7729070">
        <ele>33.6</ele>
        <time>2021-05-20T08:39:37Z</time>
      </trkpt>
      <trkpt lat="42.1931350" lon="-8.7729050">
        <ele>33.6</ele>
        <time>2021-05-20T08:39:38Z</time>
      </trkpt>
      <trkpt lat="42.1931310" lon="-8.7729030">
        <ele>33.6</ele>
        <time>2021-05-20T08:39:39Z</time>
      </trkpt>
      <trkpt lat="42.1931310" lon="-8.7729030">
        <ele>33.6</ele>
        <time>2021-05-20T08:39:40Z</time>
      </trkpt>
      <trkpt lat="42.1931480" lon="-8.7729050">
        <ele>33.6</ele>
        <time>2021-05-20T08:39:41Z</time>
      </trkpt>
      <trkpt lat="42.1931540" lon="-8.7729060">
        <ele>33.6</ele>
        <time>2021-05-20T08:39:42Z</time>
      </trkpt>
      <trkpt lat="42.1931460" lon="-8.7728990">
        <ele>33.6</ele>
        <time>2021-05-20T08:39:43Z</time>
      </trkpt>
      <trkpt lat="42.1931350" lon="-8.7728920">
        <ele>33.6</ele>
        <time>2021-05-20T08:39:44Z</time>
      </trkpt>
      <trkpt lat="42.1931250" lon="-8.7728840">
        <ele>33.6</ele>
        <time>2021-05-20T08:39:45Z</time>
      </trkpt>
      <trkpt lat="42.1931140" lon="-8.7728770">
        <ele>33.6</ele>
        <time>2021-05-20T08:39:46Z</time>
      </trkpt>
      <trkpt lat="42.1931030" lon="-8.7728690">
        <ele>33.6</ele>
        <time>2021-05-20T08:39:47Z</time>
      </trkpt>
      <trkpt lat="42.1930920" lon="-8.7728620">
        <ele>33.6</ele>
        <time>2021-05-20T08:39:48Z</time>
      </trkpt>
      <trkpt lat="42.1930840" lon="-8.7728570">
        <ele>33.6</ele>
        <time>2021-05-20T08:39:49Z</time>
      </trkpt>
      <trkpt lat="42.1930740" lon="-8.7728550">
        <ele>33.6</ele>
        <time>2021-05-20T08:39:50Z</time>
      </trkpt>
      <trkpt lat="42.1930640" lon="-8.7728520">
        <ele>33.6</ele>
        <time>2021-05-20T08:39:51Z</time>
      </trkpt>
      <trkpt lat="42.1930540" lon="-8.7728500">
        <ele>33.6</ele>
        <time>2021-05-20T08:39:52Z</time>
      </trkpt>
      <trkpt lat="42.1930410" lon="-8.7728400">
        <ele>33.6</ele>
        <time>2021-05-20T08:39:53Z</time>
      </trkpt>
      <trkpt lat="42.1930380" lon="-8.7728380">
        <ele>33.6</ele>
        <time>2021-05-20T08:39:54Z</time>
      </trkpt>
      <trkpt lat="42.1930350" lon="-8.7728370">
        <ele>33.6</ele>
        <time>2021-05-20T08:39:55Z</time>
      </trkpt>
      <trkpt lat="42.1930320" lon="-8.7728360">
        <ele>33.6</ele>
        <time>2021-05-20T08:39:56Z</time>
      </trkpt>
      <trkpt lat="42.1930300" lon="-8.7728340">
        <ele>33.6</ele>
        <time>2021-05-20T08:39:57Z</time>
      </trkpt>
      <trkpt lat="42.1930270" lon="-8.7728330">
        <ele>33.6</ele>
        <time>2021-05-20T08:39:58Z</time>
      </trkpt>
      <trkpt lat="42.1930240" lon="-8.7728320">
        <ele>33.6</ele>
        <time>2021-05-20T08:39:59Z</time>
      </trkpt>
      <trkpt lat="42.1930210" lon="-8.7728300">
        <ele>33.6</ele>
        <time>2021-05-20T08:40:00Z</time>
      </trkpt>
      <trkpt lat="42.1930180" lon="-8.7728290">
        <ele>33.6</ele>
        <time>2021-05-20T08:40:01Z</time>
      </trkpt>
      <trkpt lat="42.1930340" lon="-8.7728300">
        <ele>33.6</ele>
        <time>2021-05-20T08:40:02Z</time>
      </trkpt>
      <trkpt lat="42.1930350" lon="-8.7728380">
        <ele>33.6</ele>
        <time>2021-05-20T08:40:03Z</time>
      </trkpt>
      <trkpt lat="42.1930360" lon="-8.7728470">
        <ele>33.6</ele>
        <time>2021-05-20T08:40:04Z</time>
      </trkpt>
      <trkpt lat="42.1930310" lon="-8.7728500">
        <ele>33.6</ele>
        <time>2021-05-20T08:40:05Z</time>
      </trkpt>
      <trkpt lat="42.1930220" lon="-8.7728580">
        <ele>33.6</ele>
        <time>2021-05-20T08:40:06Z</time>
      </trkpt>
      <trkpt lat="42.1930200" lon="-8.7728640">
        <ele>33.6</ele>
        <time>2021-05-20T08:40:07Z</time>
      </trkpt>
      <trkpt lat="42.1930160" lon="-8.7728650">
        <ele>33.6</ele>
        <time>2021-05-20T08:40:08Z</time>
      </trkpt>
      <trkpt lat="42.1930280" lon="-8.7728690">
        <ele>33.6</ele>
        <time>2021-05-20T08:40:09Z</time>
      </trkpt>
      <trkpt lat="42.1930420" lon="-8.7728760">
        <ele>33.6</ele>
        <time>2021-05-20T08:40:10Z</time>
      </trkpt>
      <trkpt lat="42.1930490" lon="-8.7728740">
        <ele>33.6</ele>
        <time>2021-05-20T08:40:11Z</time>
      </trkpt>
      <trkpt lat="42.1930490" lon="-8.7728670">
        <ele>33.6</ele>
        <time>2021-05-20T08:40:12Z</time>
      </trkpt>
      <trkpt lat="42.1930470" lon="-8.7728480">
        <ele>33.6</ele>
        <time>2021-05-20T08:40:13Z</time>
      </trkpt>
      <trkpt lat="42.1930460" lon="-8.7728390">
        <ele>33.6</ele>
        <time>2021-05-20T08:40:14Z</time>
      </trkpt>
      <trkpt lat="42.1930260" lon="-8.7728450">
        <ele>33.6</ele>
        <time>2021-05-20T08:40:15Z</time>
      </trkpt>
      <trkpt lat="42.1930270" lon="-8.7728450">
        <ele>33.6</ele>
        <time>2021-05-20T08:40:16Z</time>
      </trkpt>
      <trkpt lat="42.1930360" lon="-8.7728460">
        <ele>33.6</ele>
        <time>2021-05-20T08:40:17Z</time>
      </trkpt>
      <trkpt lat="42.1930460" lon="-8.7728480">
        <ele>33.6</ele>
        <time>2021-05-20T08:40:18Z</time>
      </trkpt>
      <trkpt lat="42.1930550" lon="-8.7728490">
        <ele>33.6</ele>
        <time>2021-05-20T08:40:19Z</time>
      </trkpt>
      <trkpt lat="42.1930650" lon="-8.7728510">
        <ele>33.6</ele>
        <time>2021-05-20T08:40:20Z</time>
      </trkpt>
      <trkpt lat="42.1930590" lon="-8.7728570">
        <ele>33.6</ele>
        <time>2021-05-20T08:40:21Z</time>
      </trkpt>
      <trkpt lat="42.1930380" lon="-8.7728620">
        <ele>33.6</ele>
        <time>2021-05-20T08:40:22Z</time>
      </trkpt>
      <trkpt lat="42.1930160" lon="-8.7728660">
        <ele>33.6</ele>
        <time>2021-05-20T08:40:23Z</time>
      </trkpt>
      <trkpt lat="42.1930290" lon="-8.7728650">
        <ele>33.6</ele>
        <time>2021-05-20T08:40:24Z</time>
      </trkpt>
      <trkpt lat="42.1930380" lon="-8.7728610">
        <ele>33.6</ele>
        <time>2021-05-20T08:40:25Z</time>
      </trkpt>
      <trkpt lat="42.1930460" lon="-8.7728580">
        <ele>33.6</ele>
        <time>2021-05-20T08:40:26Z</time>
      </trkpt>
      <trkpt lat="42.1930540" lon="-8.7728540">
        <ele>33.6</ele>
        <time>2021-05-20T08:40:27Z</time>
      </trkpt>
      <trkpt lat="42.1930660" lon="-8.7728470">
        <ele>33.6</ele>
        <time>2021-05-20T08:40:28Z</time>
      </trkpt>
      <trkpt lat="42.1930750" lon="-8.7728470">
        <ele>33.6</ele>
        <time>2021-05-20T08:40:29Z</time>
      </trkpt>
      <trkpt lat="42.1930830" lon="-8.7728480">
        <ele>33.6</ele>
        <time>2021-05-20T08:40:30Z</time>
      </trkpt>
      <trkpt lat="42.1930910" lon="-8.7728490">
        <ele>33.6</ele>
        <time>2021-05-20T08:40:31Z</time>
      </trkpt>
      <trkpt lat="42.1931000" lon="-8.7728460">
        <ele>33.6</ele>
        <time>2021-05-20T08:40:32Z</time>
      </trkpt>
      <trkpt lat="42.1930950" lon="-8.7728390">
        <ele>33.6</ele>
        <time>2021-05-20T08:40:33Z</time>
      </trkpt>
      <trkpt lat="42.1930930" lon="-8.7728570">
        <ele>33.6</ele>
        <time>2021-05-20T08:40:34Z</time>
      </trkpt>
      <trkpt lat="42.1930730" lon="-8.7728700">
        <ele>33.6</ele>
        <time>2021-05-20T08:40:35Z</time>
      </trkpt>
      <trkpt lat="42.1930780" lon="-8.7728910">
        <ele>33.6</ele>
        <time>2021-05-20T08:40:36Z</time>
      </trkpt>
      <trkpt lat="42.1930670" lon="-8.7729040">
        <ele>33.6</ele>
        <time>2021-05-20T08:40:37Z</time>
      </trkpt>
      <trkpt lat="42.1930610" lon="-8.7729060">
        <ele>33.6</ele>
        <time>2021-05-20T08:40:38Z</time>
      </trkpt>
      <trkpt lat="42.1930750" lon="-8.7729020">
        <ele>33.6</ele>
        <time>2021-05-20T08:40:39Z</time>
      </trkpt>
      <trkpt lat="42.1930860" lon="-8.7729070">
        <ele>33.6</ele>
        <time>2021-05-20T08:40:40Z</time>
      </trkpt>
      <trkpt lat="42.1930920" lon="-8.7729160">
        <ele>33.6</ele>
        <time>2021-05-20T08:40:41Z</time>
      </trkpt>
      <trkpt lat="42.1931000" lon="-8.7729170">
        <ele>33.6</ele>
        <time>2021-05-20T08:40:42Z</time>
      </trkpt>
      <trkpt lat="42.1931100" lon="-8.7729260">
        <ele>33.6</ele>
        <time>2021-05-20T08:40:43Z</time>
      </trkpt>
      <trkpt lat="42.1931110" lon="-8.7729350">
        <ele>33.6</ele>
        <time>2021-05-20T08:40:44Z</time>
      </trkpt>
      <trkpt lat="42.1931150" lon="-8.7729450">
        <ele>33.6</ele>
        <time>2021-05-20T08:40:45Z</time>
      </trkpt>
      <trkpt lat="42.1931110" lon="-8.7729480">
        <ele>33.6</ele>
        <time>2021-05-20T08:40:46Z</time>
      </trkpt>
      <trkpt lat="42.1930950" lon="-8.7729590">
        <ele>33.6</ele>
        <time>2021-05-20T08:40:48Z</time>
      </trkpt>
      <trkpt lat="42.1930910" lon="-8.7729630">
        <ele>33.6</ele>
        <time>2021-05-20T08:40:50Z</time>
      </trkpt>
      <trkpt lat="42.1930970" lon="-8.7729720">
        <ele>33.6</ele>
        <time>2021-05-20T08:40:51Z</time>
      </trkpt>
      <trkpt lat="42.1931050" lon="-8.7729750">
        <ele>33.6</ele>
        <time>2021-05-20T08:40:52Z</time>
      </trkpt>
      <trkpt lat="42.1931060" lon="-8.7729750">
        <ele>33.6</ele>
        <time>2021-05-20T08:40:53Z</time>
      </trkpt>
      <trkpt lat="42.1931130" lon="-8.7729740">
        <ele>33.6</ele>
        <time>2021-05-20T08:40:54Z</time>
      </trkpt>
      <trkpt lat="42.1931110" lon="-8.7729750">
        <ele>33.6</ele>
        <time>2021-05-20T08:40:55Z</time>
      </trkpt>
      <trkpt lat="42.1931120" lon="-8.7729730">
        <ele>33.6</ele>
        <time>2021-05-20T08:40:56Z</time>
      </trkpt>
      <trkpt lat="42.1931170" lon="-8.7729710">
        <ele>33.6</ele>
        <time>2021-05-20T08:40:57Z</time>
      </trkpt>
      <trkpt lat="42.1931200" lon="-8.7729690">
        <ele>33.6</ele>
        <time>2021-05-20T08:40:58Z</time>
      </trkpt>
      <trkpt lat="42.1931200" lon="-8.7729690">
        <ele>33.6</ele>
        <time>2021-05-20T08:40:59Z</time>
      </trkpt>
      <trkpt lat="42.1931200" lon="-8.7729690">
        <ele>33.6</ele>
        <time>2021-05-20T08:41:00Z</time>
      </trkpt>
      <trkpt lat="42.1931200" lon="-8.7729690">
        <ele>33.6</ele>
        <time>2021-05-20T08:41:01Z</time>
      </trkpt>
      <trkpt lat="42.1931250" lon="-8.7729690">
        <ele>33.6</ele>
        <time>2021-05-20T08:41:02Z</time>
      </trkpt>
      <trkpt lat="42.1931260" lon="-8.7729670">
        <ele>33.6</ele>
        <time>2021-05-20T08:41:03Z</time>
      </trkpt>
      <trkpt lat="42.1931260" lon="-8.7729670">
        <ele>33.6</ele>
        <time>2021-05-20T08:41:04Z</time>
      </trkpt>
      <trkpt lat="42.1931260" lon="-8.7729670">
        <ele>33.6</ele>
        <time>2021-05-20T08:41:05Z</time>
      </trkpt>
      <trkpt lat="42.1931260" lon="-8.7729670">
        <ele>33.6</ele>
        <time>2021-05-20T08:41:06Z</time>
      </trkpt>
      <trkpt lat="42.1931260" lon="-8.7729650">
        <ele>33.6</ele>
        <time>2021-05-20T08:41:07Z</time>
      </trkpt>
      <trkpt lat="42.1931250" lon="-8.7729650">
        <ele>33.6</ele>
        <time>2021-05-20T08:41:08Z</time>
      </trkpt>
      <trkpt lat="42.1931230" lon="-8.7729650">
        <ele>33.6</ele>
        <time>2021-05-20T08:41:09Z</time>
      </trkpt>
      <trkpt lat="42.1931220" lon="-8.7729680">
        <ele>33.6</ele>
        <time>2021-05-20T08:41:10Z</time>
      </trkpt>
      <trkpt lat="42.1931240" lon="-8.7729670">
        <ele>33.6</ele>
        <time>2021-05-20T08:41:11Z</time>
      </trkpt>
      <trkpt lat="42.1931210" lon="-8.7729700">
        <ele>33.6</ele>
        <time>2021-05-20T08:41:12Z</time>
      </trkpt>
      <trkpt lat="42.1931220" lon="-8.7729700">
        <ele>33.6</ele>
        <time>2021-05-20T08:41:13Z</time>
      </trkpt>
      <trkpt lat="42.1931180" lon="-8.7729690">
        <ele>33.6</ele>
        <time>2021-05-20T08:41:14Z</time>
      </trkpt>
      <trkpt lat="42.1931170" lon="-8.7729710">
        <ele>33.6</ele>
        <time>2021-05-20T08:41:15Z</time>
      </trkpt>
      <trkpt lat="42.1931160" lon="-8.7729730">
        <ele>33.6</ele>
        <time>2021-05-20T08:41:16Z</time>
      </trkpt>
      <trkpt lat="42.1931150" lon="-8.7729750">
        <ele>33.6</ele>
        <time>2021-05-20T08:41:17Z</time>
      </trkpt>
      <trkpt lat="42.1931130" lon="-8.7729770">
        <ele>33.6</ele>
        <time>2021-05-20T08:41:18Z</time>
      </trkpt>
      <trkpt lat="42.1931190" lon="-8.7729810">
        <ele>33.6</ele>
        <time>2021-05-20T08:41:19Z</time>
      </trkpt>
      <trkpt lat="42.1931160" lon="-8.7729780">
        <ele>33.6</ele>
        <time>2021-05-20T08:41:20Z</time>
      </trkpt>
      <trkpt lat="42.1931140" lon="-8.7729770">
        <ele>33.6</ele>
        <time>2021-05-20T08:41:21Z</time>
      </trkpt>
      <trkpt lat="42.1931120" lon="-8.7729780">
        <ele>33.6</ele>
        <time>2021-05-20T08:41:22Z</time>
      </trkpt>
      <trkpt lat="42.1931090" lon="-8.7729770">
        <ele>33.6</ele>
        <time>2021-05-20T08:41:23Z</time>
      </trkpt>
      <trkpt lat="42.1931070" lon="-8.7729840">
        <ele>33.6</ele>
        <time>2021-05-20T08:41:24Z</time>
      </trkpt>
      <trkpt lat="42.1931070" lon="-8.7729850">
        <ele>33.6</ele>
        <time>2021-05-20T08:41:25Z</time>
      </trkpt>
      <trkpt lat="42.1931010" lon="-8.7729840">
        <ele>33.6</ele>
        <time>2021-05-20T08:41:26Z</time>
      </trkpt>
      <trkpt lat="42.1931040" lon="-8.7729810">
        <ele>33.6</ele>
        <time>2021-05-20T08:41:27Z</time>
      </trkpt>
      <trkpt lat="42.1931090" lon="-8.7729790">
        <ele>33.6</ele>
        <time>2021-05-20T08:41:28Z</time>
      </trkpt>
      <trkpt lat="42.1931130" lon="-8.7729710">
        <ele>33.6</ele>
        <time>2021-05-20T08:41:29Z</time>
      </trkpt>
      <trkpt lat="42.1931110" lon="-8.7729700">
        <ele>33.6</ele>
        <time>2021-05-20T08:41:30Z</time>
      </trkpt>
      <trkpt lat="42.1931110" lon="-8.7729700">
        <ele>33.6</ele>
        <time>2021-05-20T08:41:31Z</time>
      </trkpt>
      <trkpt lat="42.1931170" lon="-8.7729650">
        <ele>33.6</ele>
        <time>2021-05-20T08:41:32Z</time>
      </trkpt>
      <trkpt lat="42.1931170" lon="-8.7729650">
        <ele>33.6</ele>
        <time>2021-05-20T08:41:33Z</time>
      </trkpt>
      <trkpt lat="42.1931150" lon="-8.7729550">
        <ele>33.6</ele>
        <time>2021-05-20T08:41:34Z</time>
      </trkpt>
      <trkpt lat="42.1931060" lon="-8.7729470">
        <ele>33.6</ele>
        <time>2021-05-20T08:41:35Z</time>
      </trkpt>
      <trkpt lat="42.1931050" lon="-8.7729500">
        <ele>33.6</ele>
        <time>2021-05-20T08:41:36Z</time>
      </trkpt>
      <trkpt lat="42.1931120" lon="-8.7729460">
        <ele>33.6</ele>
        <time>2021-05-20T08:41:37Z</time>
      </trkpt>
      <trkpt lat="42.1931250" lon="-8.7729490">
        <ele>33.6</ele>
        <time>2021-05-20T08:41:38Z</time>
      </trkpt>
      <trkpt lat="42.1931250" lon="-8.7729490">
        <ele>33.6</ele>
        <time>2021-05-20T08:41:39Z</time>
      </trkpt>
      <trkpt lat="42.1931250" lon="-8.7729490">
        <ele>33.6</ele>
        <time>2021-05-20T08:41:40Z</time>
      </trkpt>
      <trkpt lat="42.1931390" lon="-8.7729560">
        <ele>33.6</ele>
        <time>2021-05-20T08:41:41Z</time>
      </trkpt>
      <trkpt lat="42.1931440" lon="-8.7729540">
        <ele>33.6</ele>
        <time>2021-05-20T08:41:42Z</time>
      </trkpt>
      <trkpt lat="42.1931420" lon="-8.7729540">
        <ele>33.6</ele>
        <time>2021-05-20T08:41:43Z</time>
      </trkpt>
      <trkpt lat="42.1931420" lon="-8.7729590">
        <ele>33.6</ele>
        <time>2021-05-20T08:41:44Z</time>
      </trkpt>
      <trkpt lat="42.1931320" lon="-8.7729640">
        <ele>33.6</ele>
        <time>2021-05-20T08:41:45Z</time>
      </trkpt>
      <trkpt lat="42.1931280" lon="-8.7729690">
        <ele>33.6</ele>
        <time>2021-05-20T08:41:46Z</time>
      </trkpt>
      <trkpt lat="42.1931220" lon="-8.7729680">
        <ele>33.6</ele>
        <time>2021-05-20T08:41:47Z</time>
      </trkpt>
      <trkpt lat="42.1931250" lon="-8.7729720">
        <ele>33.6</ele>
        <time>2021-05-20T08:41:48Z</time>
      </trkpt>
      <trkpt lat="42.1931260" lon="-8.7729720">
        <ele>33.6</ele>
        <time>2021-05-20T08:41:49Z</time>
      </trkpt>
      <trkpt lat="42.1931210" lon="-8.7729770">
        <ele>33.6</ele>
        <time>2021-05-20T08:41:50Z</time>
      </trkpt>
      <trkpt lat="42.1931210" lon="-8.7729770">
        <ele>33.6</ele>
        <time>2021-05-20T08:41:51Z</time>
      </trkpt>
      <trkpt lat="42.1931180" lon="-8.7729820">
        <ele>33.6</ele>
        <time>2021-05-20T08:41:52Z</time>
      </trkpt>
      <trkpt lat="42.1931160" lon="-8.7729820">
        <ele>33.6</ele>
        <time>2021-05-20T08:41:53Z</time>
      </trkpt>
      <trkpt lat="42.1931150" lon="-8.7729850">
        <ele>33.6</ele>
        <time>2021-05-20T08:41:54Z</time>
      </trkpt>
      <trkpt lat="42.1931160" lon="-8.7729880">
        <ele>33.6</ele>
        <time>2021-05-20T08:41:55Z</time>
      </trkpt>
      <trkpt lat="42.1931160" lon="-8.7729870">
        <ele>33.6</ele>
        <time>2021-05-20T08:41:56Z</time>
      </trkpt>
      <trkpt lat="42.1931200" lon="-8.7729860">
        <ele>33.6</ele>
        <time>2021-05-20T08:41:57Z</time>
      </trkpt>
      <trkpt lat="42.1931190" lon="-8.7729870">
        <ele>33.6</ele>
        <time>2021-05-20T08:41:58Z</time>
      </trkpt>
      <trkpt lat="42.1931210" lon="-8.7729880">
        <ele>33.6</ele>
        <time>2021-05-20T08:41:59Z</time>
      </trkpt>
      <trkpt lat="42.1931230" lon="-8.7729880">
        <ele>33.6</ele>
        <time>2021-05-20T08:42:00Z</time>
      </trkpt>
      <trkpt lat="42.1931300" lon="-8.7729920">
        <ele>33.6</ele>
        <time>2021-05-20T08:42:01Z</time>
      </trkpt>
      <trkpt lat="42.1931320" lon="-8.7729940">
        <ele>33.6</ele>
        <time>2021-05-20T08:42:02Z</time>
      </trkpt>
      <trkpt lat="42.1931340" lon="-8.7729960">
        <ele>33.6</ele>
        <time>2021-05-20T08:42:03Z</time>
      </trkpt>
      <trkpt lat="42.1931350" lon="-8.7729970">
        <ele>33.6</ele>
        <time>2021-05-20T08:42:04Z</time>
      </trkpt>
      <trkpt lat="42.1931380" lon="-8.7729970">
        <ele>33.6</ele>
        <time>2021-05-20T08:42:05Z</time>
      </trkpt>
      <trkpt lat="42.1931410" lon="-8.7729990">
        <ele>33.6</ele>
        <time>2021-05-20T08:42:06Z</time>
      </trkpt>
      <trkpt lat="42.1931420" lon="-8.7730000">
        <ele>33.6</ele>
        <time>2021-05-20T08:42:07Z</time>
      </trkpt>
      <trkpt lat="42.1931420" lon="-8.7730010">
        <ele>33.6</ele>
        <time>2021-05-20T08:42:08Z</time>
      </trkpt>
      <trkpt lat="42.1931400" lon="-8.7730030">
        <ele>33.6</ele>
        <time>2021-05-20T08:42:09Z</time>
      </trkpt>
      <trkpt lat="42.1931400" lon="-8.7730030">
        <ele>33.6</ele>
        <time>2021-05-20T08:42:10Z</time>
      </trkpt>
      <trkpt lat="42.1931350" lon="-8.7730040">
        <ele>33.6</ele>
        <time>2021-05-20T08:42:11Z</time>
      </trkpt>
      <trkpt lat="42.1931340" lon="-8.7730040">
        <ele>33.6</ele>
        <time>2021-05-20T08:42:12Z</time>
      </trkpt>
      <trkpt lat="42.1931330" lon="-8.7730060">
        <ele>33.6</ele>
        <time>2021-05-20T08:42:13Z</time>
      </trkpt>
      <trkpt lat="42.1931310" lon="-8.7730070">
        <ele>33.6</ele>
        <time>2021-05-20T08:42:14Z</time>
      </trkpt>
      <trkpt lat="42.1931300" lon="-8.7730080">
        <ele>33.6</ele>
        <time>2021-05-20T08:42:15Z</time>
      </trkpt>
      <trkpt lat="42.1931280" lon="-8.7730080">
        <ele>33.6</ele>
        <time>2021-05-20T08:42:16Z</time>
      </trkpt>
      <trkpt lat="42.1931300" lon="-8.7730100">
        <ele>33.6</ele>
        <time>2021-05-20T08:42:17Z</time>
      </trkpt>
      <trkpt lat="42.1931290" lon="-8.7730100">
        <ele>33.6</ele>
        <time>2021-05-20T08:42:18Z</time>
      </trkpt>
      <trkpt lat="42.1931280" lon="-8.7730100">
        <ele>33.6</ele>
        <time>2021-05-20T08:42:19Z</time>
      </trkpt>
      <trkpt lat="42.1931300" lon="-8.7730110">
        <ele>33.6</ele>
        <time>2021-05-20T08:42:20Z</time>
      </trkpt>
      <trkpt lat="42.1931280" lon="-8.7730100">
        <ele>33.6</ele>
        <time>2021-05-20T08:42:21Z</time>
      </trkpt>
      <trkpt lat="42.1931280" lon="-8.7730110">
        <ele>33.6</ele>
        <time>2021-05-20T08:42:22Z</time>
      </trkpt>
      <trkpt lat="42.1931300" lon="-8.7730130">
        <ele>33.6</ele>
        <time>2021-05-20T08:42:23Z</time>
      </trkpt>
      <trkpt lat="42.1931280" lon="-8.7730100">
        <ele>33.6</ele>
        <time>2021-05-20T08:42:24Z</time>
      </trkpt>
      <trkpt lat="42.1931250" lon="-8.7730080">
        <ele>33.6</ele>
        <time>2021-05-20T08:42:25Z</time>
      </trkpt>
      <trkpt lat="42.1931210" lon="-8.7730050">
        <ele>33.6</ele>
        <time>2021-05-20T08:42:26Z</time>
      </trkpt>
      <trkpt lat="42.1931210" lon="-8.7730050">
        <ele>33.6</ele>
        <time>2021-05-20T08:42:27Z</time>
      </trkpt>
      <trkpt lat="42.1931210" lon="-8.7730050">
        <ele>33.6</ele>
        <time>2021-05-20T08:42:28Z</time>
      </trkpt>
      <trkpt lat="42.1931210" lon="-8.7730050">
        <ele>33.6</ele>
        <time>2021-05-20T08:42:29Z</time>
      </trkpt>
      <trkpt lat="42.1931130" lon="-8.7729970">
        <ele>33.6</ele>
        <time>2021-05-20T08:42:30Z</time>
      </trkpt>
      <trkpt lat="42.1931130" lon="-8.7729960">
        <ele>33.6</ele>
        <time>2021-05-20T08:42:31Z</time>
      </trkpt>
      <trkpt lat="42.1931140" lon="-8.7729940">
        <ele>33.6</ele>
        <time>2021-05-20T08:42:32Z</time>
      </trkpt>
      <trkpt lat="42.1931170" lon="-8.7729930">
        <ele>33.6</ele>
        <time>2021-05-20T08:42:33Z</time>
      </trkpt>
      <trkpt lat="42.1931170" lon="-8.7729920">
        <ele>33.6</ele>
        <time>2021-05-20T08:42:34Z</time>
      </trkpt>
      <trkpt lat="42.1931140" lon="-8.7729890">
        <ele>33.6</ele>
        <time>2021-05-20T08:42:35Z</time>
      </trkpt>
      <trkpt lat="42.1931110" lon="-8.7729920">
        <ele>33.6</ele>
        <time>2021-05-20T08:42:36Z</time>
      </trkpt>
      <trkpt lat="42.1931030" lon="-8.7729890">
        <ele>33.6</ele>
        <time>2021-05-20T08:42:37Z</time>
      </trkpt>
      <trkpt lat="42.1931170" lon="-8.7729880">
        <ele>33.6</ele>
        <time>2021-05-20T08:42:38Z</time>
      </trkpt>
      <trkpt lat="42.1931120" lon="-8.7729890">
        <ele>33.6</ele>
        <time>2021-05-20T08:42:39Z</time>
      </trkpt>
      <trkpt lat="42.1931110" lon="-8.7729890">
        <ele>33.6</ele>
        <time>2021-05-20T08:42:40Z</time>
      </trkpt>
      <trkpt lat="42.1931130" lon="-8.7729920">
        <ele>33.6</ele>
        <time>2021-05-20T08:42:41Z</time>
      </trkpt>
      <trkpt lat="42.1931150" lon="-8.7729900">
        <ele>33.6</ele>
        <time>2021-05-20T08:42:42Z</time>
      </trkpt>
      <trkpt lat="42.1931160" lon="-8.7729890">
        <ele>33.6</ele>
        <time>2021-05-20T08:42:43Z</time>
      </trkpt>
      <trkpt lat="42.1931160" lon="-8.7729880">
        <ele>33.6</ele>
        <time>2021-05-20T08:42:44Z</time>
      </trkpt>
      <trkpt lat="42.1931140" lon="-8.7729840">
        <ele>33.6</ele>
        <time>2021-05-20T08:42:45Z</time>
      </trkpt>
      <trkpt lat="42.1931130" lon="-8.7729820">
        <ele>33.6</ele>
        <time>2021-05-20T08:42:46Z</time>
      </trkpt>
      <trkpt lat="42.1931130" lon="-8.7729810">
        <ele>33.6</ele>
        <time>2021-05-20T08:42:47Z</time>
      </trkpt>
      <trkpt lat="42.1931130" lon="-8.7729810">
        <ele>33.6</ele>
        <time>2021-05-20T08:42:48Z</time>
      </trkpt>
      <trkpt lat="42.1931130" lon="-8.7729810">
        <ele>33.6</ele>
        <time>2021-05-20T08:42:49Z</time>
      </trkpt>
      <trkpt lat="42.1931160" lon="-8.7729740">
        <ele>33.6</ele>
        <time>2021-05-20T08:42:51Z</time>
      </trkpt>
      <trkpt lat="42.1931160" lon="-8.7729710">
        <ele>33.6</ele>
        <time>2021-05-20T08:42:52Z</time>
      </trkpt>
      <trkpt lat="42.1931150" lon="-8.7729710">
        <ele>33.6</ele>
        <time>2021-05-20T08:42:53Z</time>
      </trkpt>
      <trkpt lat="42.1931140" lon="-8.7729700">
        <ele>33.6</ele>
        <time>2021-05-20T08:42:54Z</time>
      </trkpt>
      <trkpt lat="42.1931120" lon="-8.7729680">
        <ele>33.6</ele>
        <time>2021-05-20T08:42:55Z</time>
      </trkpt>
      <trkpt lat="42.1931080" lon="-8.7729640">
        <ele>33.6</ele>
        <time>2021-05-20T08:42:56Z</time>
      </trkpt>
      <trkpt lat="42.1931060" lon="-8.7729620">
        <ele>33.6</ele>
        <time>2021-05-20T08:42:57Z</time>
      </trkpt>
      <trkpt lat="42.1931020" lon="-8.7729610">
        <ele>33.6</ele>
        <time>2021-05-20T08:42:58Z</time>
      </trkpt>
      <trkpt lat="42.1931060" lon="-8.7729590">
        <ele>33.6</ele>
        <time>2021-05-20T08:42:59Z</time>
      </trkpt>
      <trkpt lat="42.1931030" lon="-8.7729630">
        <ele>33.6</ele>
        <time>2021-05-20T08:43:00Z</time>
      </trkpt>
      <trkpt lat="42.1931000" lon="-8.7729700">
        <ele>33.6</ele>
        <time>2021-05-20T08:43:01Z</time>
      </trkpt>
      <trkpt lat="42.1930980" lon="-8.7729730">
        <ele>33.6</ele>
        <time>2021-05-20T08:43:02Z</time>
      </trkpt>
      <trkpt lat="42.1930950" lon="-8.7729710">
        <ele>33.6</ele>
        <time>2021-05-20T08:43:03Z</time>
      </trkpt>
      <trkpt lat="42.1930920" lon="-8.7729730">
        <ele>33.6</ele>
        <time>2021-05-20T08:43:04Z</time>
      </trkpt>
      <trkpt lat="42.1930900" lon="-8.7729680">
        <ele>33.6</ele>
        <time>2021-05-20T08:43:05Z</time>
      </trkpt>
      <trkpt lat="42.1930890" lon="-8.7729670">
        <ele>33.6</ele>
        <time>2021-05-20T08:43:06Z</time>
      </trkpt>
      <trkpt lat="42.1930890" lon="-8.7729750">
        <ele>33.6</ele>
        <time>2021-05-20T08:43:07Z</time>
      </trkpt>
      <trkpt lat="42.1930960" lon="-8.7729880">
        <ele>33.6</ele>
        <time>2021-05-20T08:43:08Z</time>
      </trkpt>
      <trkpt lat="42.1930930" lon="-8.7729890">
        <ele>33.6</ele>
        <time>2021-05-20T08:43:09Z</time>
      </trkpt>
      <trkpt lat="42.1931010" lon="-8.7729930">
        <ele>33.6</ele>
        <time>2021-05-20T08:43:10Z</time>
      </trkpt>
      <trkpt lat="42.1930990" lon="-8.7729940">
        <ele>33.6</ele>
        <time>2021-05-20T08:43:11Z</time>
      </trkpt>
      <trkpt lat="42.1931010" lon="-8.7729920">
        <ele>33.6</ele>
        <time>2021-05-20T08:43:12Z</time>
      </trkpt>
      <trkpt lat="42.1931050" lon="-8.7729980">
        <ele>33.6</ele>
        <time>2021-05-20T08:43:13Z</time>
      </trkpt>
      <trkpt lat="42.1931110" lon="-8.7729960">
        <ele>33.6</ele>
        <time>2021-05-20T08:43:14Z</time>
      </trkpt>
      <trkpt lat="42.1931130" lon="-8.7729940">
        <ele>33.6</ele>
        <time>2021-05-20T08:43:15Z</time>
      </trkpt>
      <trkpt lat="42.1931160" lon="-8.7729920">
        <ele>33.6</ele>
        <time>2021-05-20T08:43:16Z</time>
      </trkpt>
      <trkpt lat="42.1931170" lon="-8.7729910">
        <ele>33.6</ele>
        <time>2021-05-20T08:43:17Z</time>
      </trkpt>
      <trkpt lat="42.1931170" lon="-8.7729900">
        <ele>33.6</ele>
        <time>2021-05-20T08:43:18Z</time>
      </trkpt>
      <trkpt lat="42.1931150" lon="-8.7729890">
        <ele>33.6</ele>
        <time>2021-05-20T08:43:19Z</time>
      </trkpt>
      <trkpt lat="42.1931190" lon="-8.7729890">
        <ele>33.6</ele>
        <time>2021-05-20T08:43:20Z</time>
      </trkpt>
      <trkpt lat="42.1931190" lon="-8.7729860">
        <ele>33.6</ele>
        <time>2021-05-20T08:43:21Z</time>
      </trkpt>
      <trkpt lat="42.1931240" lon="-8.7729860">
        <ele>33.6</ele>
        <time>2021-05-20T08:43:22Z</time>
      </trkpt>
      <trkpt lat="42.1931250" lon="-8.7729880">
        <ele>33.6</ele>
        <time>2021-05-20T08:43:23Z</time>
      </trkpt>
      <trkpt lat="42.1931240" lon="-8.7729940">
        <ele>33.6</ele>
        <time>2021-05-20T08:43:24Z</time>
      </trkpt>
      <trkpt lat="42.1931240" lon="-8.7729980">
        <ele>33.6</ele>
        <time>2021-05-20T08:43:25Z</time>
      </trkpt>
      <trkpt lat="42.1931300" lon="-8.7729950">
        <ele>33.6</ele>
        <time>2021-05-20T08:43:26Z</time>
      </trkpt>
      <trkpt lat="42.1931330" lon="-8.7729950">
        <ele>33.6</ele>
        <time>2021-05-20T08:43:27Z</time>
      </trkpt>
      <trkpt lat="42.1931400" lon="-8.7729890">
        <ele>33.6</ele>
        <time>2021-05-20T08:43:28Z</time>
      </trkpt>
      <trkpt lat="42.1931440" lon="-8.7729820">
        <ele>33.6</ele>
        <time>2021-05-20T08:43:29Z</time>
      </trkpt>
      <trkpt lat="42.1931430" lon="-8.7729820">
        <ele>33.6</ele>
        <time>2021-05-20T08:43:30Z</time>
      </trkpt>
      <trkpt lat="42.1931410" lon="-8.7729790">
        <ele>33.6</ele>
        <time>2021-05-20T08:43:31Z</time>
      </trkpt>
      <trkpt lat="42.1931410" lon="-8.7729780">
        <ele>33.6</ele>
        <time>2021-05-20T08:43:32Z</time>
      </trkpt>
      <trkpt lat="42.1931380" lon="-8.7729780">
        <ele>33.6</ele>
        <time>2021-05-20T08:43:33Z</time>
      </trkpt>
      <trkpt lat="42.1931350" lon="-8.7729790">
        <ele>33.6</ele>
        <time>2021-05-20T08:43:34Z</time>
      </trkpt>
      <trkpt lat="42.1931350" lon="-8.7729760">
        <ele>33.6</ele>
        <time>2021-05-20T08:43:35Z</time>
      </trkpt>
      <trkpt lat="42.1931330" lon="-8.7729740">
        <ele>33.6</ele>
        <time>2021-05-20T08:43:36Z</time>
      </trkpt>
      <trkpt lat="42.1931350" lon="-8.7729730">
        <ele>33.6</ele>
        <time>2021-05-20T08:43:37Z</time>
      </trkpt>
      <trkpt lat="42.1931320" lon="-8.7729750">
        <ele>33.6</ele>
        <time>2021-05-20T08:43:38Z</time>
      </trkpt>
      <trkpt lat="42.1931240" lon="-8.7729710">
        <ele>33.6</ele>
        <time>2021-05-20T08:43:39Z</time>
      </trkpt>
      <trkpt lat="42.1931200" lon="-8.7729700">
        <ele>33.6</ele>
        <time>2021-05-20T08:43:40Z</time>
      </trkpt>
      <trkpt lat="42.1931170" lon="-8.7729690">
        <ele>33.6</ele>
        <time>2021-05-20T08:43:41Z</time>
      </trkpt>
      <trkpt lat="42.1931150" lon="-8.7729680">
        <ele>33.6</ele>
        <time>2021-05-20T08:43:42Z</time>
      </trkpt>
      <trkpt lat="42.1931180" lon="-8.7729690">
        <ele>33.6</ele>
        <time>2021-05-20T08:43:43Z</time>
      </trkpt>
      <trkpt lat="42.1931170" lon="-8.7729680">
        <ele>33.6</ele>
        <time>2021-05-20T08:43:44Z</time>
      </trkpt>
      <trkpt lat="42.1931280" lon="-8.7729720">
        <ele>33.6</ele>
        <time>2021-05-20T08:43:45Z</time>
      </trkpt>
      <trkpt lat="42.1931280" lon="-8.7729740">
        <ele>33.6</ele>
        <time>2021-05-20T08:43:46Z</time>
      </trkpt>
      <trkpt lat="42.1931250" lon="-8.7729710">
        <ele>33.6</ele>
        <time>2021-05-20T08:43:47Z</time>
      </trkpt>
      <trkpt lat="42.1931200" lon="-8.7729680">
        <ele>33.6</ele>
        <time>2021-05-20T08:43:48Z</time>
      </trkpt>
      <trkpt lat="42.1931400" lon="-8.7729700">
        <ele>33.6</ele>
        <time>2021-05-20T08:43:49Z</time>
      </trkpt>
      <trkpt lat="42.1931430" lon="-8.7729720">
        <ele>33.6</ele>
        <time>2021-05-20T08:43:50Z</time>
      </trkpt>
      <trkpt lat="42.1931440" lon="-8.7729710">
        <ele>33.6</ele>
        <time>2021-05-20T08:43:51Z</time>
      </trkpt>
      <trkpt lat="42.1931450" lon="-8.7729700">
        <ele>33.6</ele>
        <time>2021-05-20T08:43:52Z</time>
      </trkpt>
      <trkpt lat="42.1931510" lon="-8.7729780">
        <ele>33.6</ele>
        <time>2021-05-20T08:43:53Z</time>
      </trkpt>
      <trkpt lat="42.1931370" lon="-8.7729790">
        <ele>33.6</ele>
        <time>2021-05-20T08:43:54Z</time>
      </trkpt>
      <trkpt lat="42.1931280" lon="-8.7729770">
        <ele>33.6</ele>
        <time>2021-05-20T08:43:55Z</time>
      </trkpt>
      <trkpt lat="42.1931230" lon="-8.7729790">
        <ele>33.6</ele>
        <time>2021-05-20T08:43:56Z</time>
      </trkpt>
      <trkpt lat="42.1931200" lon="-8.7729760">
        <ele>33.6</ele>
        <time>2021-05-20T08:43:57Z</time>
      </trkpt>
      <trkpt lat="42.1931170" lon="-8.7729740">
        <ele>33.6</ele>
        <time>2021-05-20T08:43:58Z</time>
      </trkpt>
      <trkpt lat="42.1931190" lon="-8.7729740">
        <ele>33.6</ele>
        <time>2021-05-20T08:43:59Z</time>
      </trkpt>
      <trkpt lat="42.1931180" lon="-8.7729700">
        <ele>33.6</ele>
        <time>2021-05-20T08:44:00Z</time>
      </trkpt>
      <trkpt lat="42.1931170" lon="-8.7729720">
        <ele>33.6</ele>
        <time>2021-05-20T08:44:01Z</time>
      </trkpt>
      <trkpt lat="42.1931170" lon="-8.7729730">
        <ele>33.6</ele>
        <time>2021-05-20T08:44:02Z</time>
      </trkpt>
      <trkpt lat="42.1931160" lon="-8.7729690">
        <ele>33.6</ele>
        <time>2021-05-20T08:44:03Z</time>
      </trkpt>
      <trkpt lat="42.1931100" lon="-8.7729650">
        <ele>33.6</ele>
        <time>2021-05-20T08:44:04Z</time>
      </trkpt>
      <trkpt lat="42.1931080" lon="-8.7729630">
        <ele>33.6</ele>
        <time>2021-05-20T08:44:05Z</time>
      </trkpt>
      <trkpt lat="42.1931130" lon="-8.7729620">
        <ele>33.6</ele>
        <time>2021-05-20T08:44:06Z</time>
      </trkpt>
      <trkpt lat="42.1931170" lon="-8.7729630">
        <ele>33.6</ele>
        <time>2021-05-20T08:44:07Z</time>
      </trkpt>
      <trkpt lat="42.1931230" lon="-8.7729660">
        <ele>33.6</ele>
        <time>2021-05-20T08:44:08Z</time>
      </trkpt>
      <trkpt lat="42.1931240" lon="-8.7729670">
        <ele>33.6</ele>
        <time>2021-05-20T08:44:09Z</time>
      </trkpt>
      <trkpt lat="42.1931210" lon="-8.7729670">
        <ele>33.6</ele>
        <time>2021-05-20T08:44:10Z</time>
      </trkpt>
      <trkpt lat="42.1931200" lon="-8.7729670">
        <ele>33.6</ele>
        <time>2021-05-20T08:44:11Z</time>
      </trkpt>
      <trkpt lat="42.1931180" lon="-8.7729630">
        <ele>33.6</ele>
        <time>2021-05-20T08:44:12Z</time>
      </trkpt>
      <trkpt lat="42.1931180" lon="-8.7729570">
        <ele>33.6</ele>
        <time>2021-05-20T08:44:13Z</time>
      </trkpt>
      <trkpt lat="42.1931180" lon="-8.7729570">
        <ele>33.6</ele>
        <time>2021-05-20T08:44:14Z</time>
      </trkpt>
      <trkpt lat="42.1931090" lon="-8.7729450">
        <ele>33.6</ele>
        <time>2021-05-20T08:44:15Z</time>
      </trkpt>
      <trkpt lat="42.1931070" lon="-8.7729420">
        <ele>33.6</ele>
        <time>2021-05-20T08:44:16Z</time>
      </trkpt>
      <trkpt lat="42.1931070" lon="-8.7729390">
        <ele>33.6</ele>
        <time>2021-05-20T08:44:17Z</time>
      </trkpt>
      <trkpt lat="42.1931070" lon="-8.7729390">
        <ele>33.6</ele>
        <time>2021-05-20T08:44:18Z</time>
      </trkpt>
      <trkpt lat="42.1931010" lon="-8.7729370">
        <ele>33.6</ele>
        <time>2021-05-20T08:44:19Z</time>
      </trkpt>
      <trkpt lat="42.1931040" lon="-8.7729360">
        <ele>33.6</ele>
        <time>2021-05-20T08:44:20Z</time>
      </trkpt>
      <trkpt lat="42.1931040" lon="-8.7729350">
        <ele>33.6</ele>
        <time>2021-05-20T08:44:21Z</time>
      </trkpt>
      <trkpt lat="42.1931060" lon="-8.7729330">
        <ele>33.6</ele>
        <time>2021-05-20T08:44:22Z</time>
      </trkpt>
      <trkpt lat="42.1930990" lon="-8.7729330">
        <ele>33.6</ele>
        <time>2021-05-20T08:44:23Z</time>
      </trkpt>
      <trkpt lat="42.1931050" lon="-8.7729350">
        <ele>33.6</ele>
        <time>2021-05-20T08:44:24Z</time>
      </trkpt>
      <trkpt lat="42.1931050" lon="-8.7729360">
        <ele>33.6</ele>
        <time>2021-05-20T08:44:25Z</time>
      </trkpt>
      <trkpt lat="42.1931010" lon="-8.7729370">
        <ele>33.6</ele>
        <time>2021-05-20T08:44:26Z</time>
      </trkpt>
      <trkpt lat="42.1930950" lon="-8.7729390">
        <ele>33.6</ele>
        <time>2021-05-20T08:44:27Z</time>
      </trkpt>
      <trkpt lat="42.1930970" lon="-8.7729390">
        <ele>33.6</ele>
        <time>2021-05-20T08:44:28Z</time>
      </trkpt>
      <trkpt lat="42.1931070" lon="-8.7729520">
        <ele>33.6</ele>
        <time>2021-05-20T08:44:29Z</time>
      </trkpt>
      <trkpt lat="42.1931170" lon="-8.7729580">
        <ele>33.6</ele>
        <time>2021-05-20T08:44:30Z</time>
      </trkpt>
      <trkpt lat="42.1931170" lon="-8.7729620">
        <ele>33.6</ele>
        <time>2021-05-20T08:44:31Z</time>
      </trkpt>
      <trkpt lat="42.1931130" lon="-8.7729630">
        <ele>33.6</ele>
        <time>2021-05-20T08:44:32Z</time>
      </trkpt>
      <trkpt lat="42.1931150" lon="-8.7729650">
        <ele>33.6</ele>
        <time>2021-05-20T08:44:33Z</time>
      </trkpt>
      <trkpt lat="42.1931120" lon="-8.7729640">
        <ele>33.6</ele>
        <time>2021-05-20T08:44:34Z</time>
      </trkpt>
      <trkpt lat="42.1931130" lon="-8.7729650">
        <ele>33.6</ele>
        <time>2021-05-20T08:44:35Z</time>
      </trkpt>
      <trkpt lat="42.1931050" lon="-8.7729680">
        <ele>33.6</ele>
        <time>2021-05-20T08:44:36Z</time>
      </trkpt>
      <trkpt lat="42.1931000" lon="-8.7729660">
        <ele>33.6</ele>
        <time>2021-05-20T08:44:37Z</time>
      </trkpt>
      <trkpt lat="42.1931000" lon="-8.7729650">
        <ele>33.6</ele>
        <time>2021-05-20T08:44:38Z</time>
      </trkpt>
      <trkpt lat="42.1931000" lon="-8.7729660">
        <ele>33.6</ele>
        <time>2021-05-20T08:44:39Z</time>
      </trkpt>
      <trkpt lat="42.1930980" lon="-8.7729670">
        <ele>33.6</ele>
        <time>2021-05-20T08:44:40Z</time>
      </trkpt>
      <trkpt lat="42.1930980" lon="-8.7729670">
        <ele>33.6</ele>
        <time>2021-05-20T08:44:41Z</time>
      </trkpt>
      <trkpt lat="42.1930970" lon="-8.7729640">
        <ele>33.6</ele>
        <time>2021-05-20T08:44:42Z</time>
      </trkpt>
      <trkpt lat="42.1930970" lon="-8.7729640">
        <ele>33.6</ele>
        <time>2021-05-20T08:44:43Z</time>
      </trkpt>
      <trkpt lat="42.1930970" lon="-8.7729640">
        <ele>33.6</ele>
        <time>2021-05-20T08:44:44Z</time>
      </trkpt>
      <trkpt lat="42.1930970" lon="-8.7729640">
        <ele>33.6</ele>
        <time>2021-05-20T08:44:45Z</time>
      </trkpt>
      <trkpt lat="42.1930890" lon="-8.7729610">
        <ele>33.6</ele>
        <time>2021-05-20T08:44:46Z</time>
      </trkpt>
      <trkpt lat="42.1930920" lon="-8.7729620">
        <ele>33.6</ele>
        <time>2021-05-20T08:44:47Z</time>
      </trkpt>
      <trkpt lat="42.1930920" lon="-8.7729620">
        <ele>33.6</ele>
        <time>2021-05-20T08:44:48Z</time>
      </trkpt>
      <trkpt lat="42.1930920" lon="-8.7729620">
        <ele>33.6</ele>
        <time>2021-05-20T08:44:49Z</time>
      </trkpt>
      <trkpt lat="42.1930980" lon="-8.7729630">
        <ele>33.6</ele>
        <time>2021-05-20T08:44:50Z</time>
      </trkpt>
      <trkpt lat="42.1931030" lon="-8.7729640">
        <ele>33.6</ele>
        <time>2021-05-20T08:44:51Z</time>
      </trkpt>
      <trkpt lat="42.1931060" lon="-8.7729620">
        <ele>33.6</ele>
        <time>2021-05-20T08:44:52Z</time>
      </trkpt>
      <trkpt lat="42.1931050" lon="-8.7729630">
        <ele>33.6</ele>
        <time>2021-05-20T08:44:53Z</time>
      </trkpt>
      <trkpt lat="42.1931090" lon="-8.7729630">
        <ele>33.6</ele>
        <time>2021-05-20T08:44:54Z</time>
      </trkpt>
      <trkpt lat="42.1931070" lon="-8.7729600">
        <ele>33.6</ele>
        <time>2021-05-20T08:44:55Z</time>
      </trkpt>
      <trkpt lat="42.1931050" lon="-8.7729600">
        <ele>33.6</ele>
        <time>2021-05-20T08:44:56Z</time>
      </trkpt>
      <trkpt lat="42.1931010" lon="-8.7729590">
        <ele>33.6</ele>
        <time>2021-05-20T08:44:57Z</time>
      </trkpt>
      <trkpt lat="42.1930980" lon="-8.7729600">
        <ele>33.6</ele>
        <time>2021-05-20T08:44:58Z</time>
      </trkpt>
      <trkpt lat="42.1930930" lon="-8.7729590">
        <ele>33.6</ele>
        <time>2021-05-20T08:44:59Z</time>
      </trkpt>
      <trkpt lat="42.1930880" lon="-8.7729590">
        <ele>33.6</ele>
        <time>2021-05-20T08:45:00Z</time>
      </trkpt>
      <trkpt lat="42.1930880" lon="-8.7729590">
        <ele>33.6</ele>
        <time>2021-05-20T08:45:01Z</time>
      </trkpt>
      <trkpt lat="42.1930890" lon="-8.7729610">
        <ele>33.6</ele>
        <time>2021-05-20T08:45:02Z</time>
      </trkpt>
      <trkpt lat="42.1930840" lon="-8.7729620">
        <ele>33.6</ele>
        <time>2021-05-20T08:45:03Z</time>
      </trkpt>
      <trkpt lat="42.1930800" lon="-8.7729630">
        <ele>33.6</ele>
        <time>2021-05-20T08:45:04Z</time>
      </trkpt>
      <trkpt lat="42.1930790" lon="-8.7729630">
        <ele>33.6</ele>
        <time>2021-05-20T08:45:05Z</time>
      </trkpt>
      <trkpt lat="42.1930770" lon="-8.7729600">
        <ele>33.6</ele>
        <time>2021-05-20T08:45:06Z</time>
      </trkpt>
      <trkpt lat="42.1930730" lon="-8.7729600">
        <ele>33.6</ele>
        <time>2021-05-20T08:45:07Z</time>
      </trkpt>
      <trkpt lat="42.1930750" lon="-8.7729600">
        <ele>33.6</ele>
        <time>2021-05-20T08:45:08Z</time>
      </trkpt>
      <trkpt lat="42.1930760" lon="-8.7729590">
        <ele>33.6</ele>
        <time>2021-05-20T08:45:09Z</time>
      </trkpt>
      <trkpt lat="42.1930760" lon="-8.7729610">
        <ele>33.6</ele>
        <time>2021-05-20T08:45:10Z</time>
      </trkpt>
      <trkpt lat="42.1930770" lon="-8.7729650">
        <ele>33.6</ele>
        <time>2021-05-20T08:45:11Z</time>
      </trkpt>
      <trkpt lat="42.1930820" lon="-8.7729720">
        <ele>33.6</ele>
        <time>2021-05-20T08:45:12Z</time>
      </trkpt>
      <trkpt lat="42.1930850" lon="-8.7729800">
        <ele>33.6</ele>
        <time>2021-05-20T08:45:13Z</time>
      </trkpt>
      <trkpt lat="42.1930940" lon="-8.7729840">
        <ele>33.6</ele>
        <time>2021-05-20T08:45:14Z</time>
      </trkpt>
      <trkpt lat="42.1930920" lon="-8.7729850">
        <ele>33.6</ele>
        <time>2021-05-20T08:45:15Z</time>
      </trkpt>
      <trkpt lat="42.1930970" lon="-8.7729860">
        <ele>33.6</ele>
        <time>2021-05-20T08:45:16Z</time>
      </trkpt>
      <trkpt lat="42.1930980" lon="-8.7729880">
        <ele>33.6</ele>
        <time>2021-05-20T08:45:17Z</time>
      </trkpt>
      <trkpt lat="42.1930980" lon="-8.7729880">
        <ele>33.6</ele>
        <time>2021-05-20T08:45:18Z</time>
      </trkpt>
      <trkpt lat="42.1931030" lon="-8.7729860">
        <ele>33.6</ele>
        <time>2021-05-20T08:45:19Z</time>
      </trkpt>
      <trkpt lat="42.1931060" lon="-8.7729870">
        <ele>33.6</ele>
        <time>2021-05-20T08:45:20Z</time>
      </trkpt>
      <trkpt lat="42.1931080" lon="-8.7729870">
        <ele>33.6</ele>
        <time>2021-05-20T08:45:21Z</time>
      </trkpt>
      <trkpt lat="42.1931080" lon="-8.7729870">
        <ele>33.6</ele>
        <time>2021-05-20T08:45:22Z</time>
      </trkpt>
      <trkpt lat="42.1931140" lon="-8.7729870">
        <ele>33.6</ele>
        <time>2021-05-20T08:45:23Z</time>
      </trkpt>
      <trkpt lat="42.1931120" lon="-8.7729870">
        <ele>33.6</ele>
        <time>2021-05-20T08:45:24Z</time>
      </trkpt>
      <trkpt lat="42.1931150" lon="-8.7729860">
        <ele>33.6</ele>
        <time>2021-05-20T08:45:25Z</time>
      </trkpt>
      <trkpt lat="42.1931140" lon="-8.7729820">
        <ele>33.6</ele>
        <time>2021-05-20T08:45:26Z</time>
      </trkpt>
      <trkpt lat="42.1931160" lon="-8.7729820">
        <ele>33.6</ele>
        <time>2021-05-20T08:45:27Z</time>
      </trkpt>
      <trkpt lat="42.1931200" lon="-8.7729850">
        <ele>33.6</ele>
        <time>2021-05-20T08:45:28Z</time>
      </trkpt>
      <trkpt lat="42.1931190" lon="-8.7729880">
        <ele>33.6</ele>
        <time>2021-05-20T08:45:29Z</time>
      </trkpt>
      <trkpt lat="42.1931200" lon="-8.7729880">
        <ele>33.6</ele>
        <time>2021-05-20T08:45:30Z</time>
      </trkpt>
      <trkpt lat="42.1931230" lon="-8.7729920">
        <ele>33.6</ele>
        <time>2021-05-20T08:45:31Z</time>
      </trkpt>
      <trkpt lat="42.1931230" lon="-8.7729920">
        <ele>33.6</ele>
        <time>2021-05-20T08:45:32Z</time>
      </trkpt>
      <trkpt lat="42.1931260" lon="-8.7729960">
        <ele>33.6</ele>
        <time>2021-05-20T08:45:33Z</time>
      </trkpt>
      <trkpt lat="42.1931280" lon="-8.7729980">
        <ele>33.6</ele>
        <time>2021-05-20T08:45:34Z</time>
      </trkpt>
      <trkpt lat="42.1931270" lon="-8.7730000">
        <ele>33.6</ele>
        <time>2021-05-20T08:45:35Z</time>
      </trkpt>
      <trkpt lat="42.1931330" lon="-8.7730040">
        <ele>33.6</ele>
        <time>2021-05-20T08:45:36Z</time>
      </trkpt>
      <trkpt lat="42.1931350" lon="-8.7730070">
        <ele>33.6</ele>
        <time>2021-05-20T08:45:37Z</time>
      </trkpt>
      <trkpt lat="42.1931310" lon="-8.7730050">
        <ele>33.6</ele>
        <time>2021-05-20T08:45:38Z</time>
      </trkpt>
      <trkpt lat="42.1931330" lon="-8.7730090">
        <ele>33.6</ele>
        <time>2021-05-20T08:45:39Z</time>
      </trkpt>
      <trkpt lat="42.1931330" lon="-8.7730070">
        <ele>33.6</ele>
        <time>2021-05-20T08:45:40Z</time>
      </trkpt>
      <trkpt lat="42.1931350" lon="-8.7730030">
        <ele>33.6</ele>
        <time>2021-05-20T08:45:41Z</time>
      </trkpt>
      <trkpt lat="42.1931380" lon="-8.7730020">
        <ele>33.6</ele>
        <time>2021-05-20T08:45:42Z</time>
      </trkpt>
      <trkpt lat="42.1931380" lon="-8.7730010">
        <ele>33.6</ele>
        <time>2021-05-20T08:45:43Z</time>
      </trkpt>
      <trkpt lat="42.1931380" lon="-8.7730010">
        <ele>33.6</ele>
        <time>2021-05-20T08:45:44Z</time>
      </trkpt>
      <trkpt lat="42.1931400" lon="-8.7729980">
        <ele>33.6</ele>
        <time>2021-05-20T08:45:45Z</time>
      </trkpt>
      <trkpt lat="42.1931390" lon="-8.7729990">
        <ele>33.6</ele>
        <time>2021-05-20T08:45:46Z</time>
      </trkpt>
      <trkpt lat="42.1931380" lon="-8.7729950">
        <ele>33.6</ele>
        <time>2021-05-20T08:45:47Z</time>
      </trkpt>
      <trkpt lat="42.1931380" lon="-8.7729930">
        <ele>33.6</ele>
        <time>2021-05-20T08:45:48Z</time>
      </trkpt>
      <trkpt lat="42.1931360" lon="-8.7729930">
        <ele>33.6</ele>
        <time>2021-05-20T08:45:49Z</time>
      </trkpt>
      <trkpt lat="42.1931360" lon="-8.7729940">
        <ele>33.6</ele>
        <time>2021-05-20T08:45:50Z</time>
      </trkpt>
      <trkpt lat="42.1931320" lon="-8.7729920">
        <ele>33.6</ele>
        <time>2021-05-20T08:45:51Z</time>
      </trkpt>
      <trkpt lat="42.1931320" lon="-8.7729900">
        <ele>33.6</ele>
        <time>2021-05-20T08:45:52Z</time>
      </trkpt>
      <trkpt lat="42.1931320" lon="-8.7729900">
        <ele>33.6</ele>
        <time>2021-05-20T08:45:53Z</time>
      </trkpt>
      <trkpt lat="42.1931320" lon="-8.7729900">
        <ele>33.6</ele>
        <time>2021-05-20T08:45:54Z</time>
      </trkpt>
      <trkpt lat="42.1931320" lon="-8.7729900">
        <ele>33.6</ele>
        <time>2021-05-20T08:45:55Z</time>
      </trkpt>
      <trkpt lat="42.1931320" lon="-8.7729900">
        <ele>33.6</ele>
        <time>2021-05-20T08:45:56Z</time>
      </trkpt>
      <trkpt lat="42.1931320" lon="-8.7729900">
        <ele>33.6</ele>
        <time>2021-05-20T08:45:57Z</time>
      </trkpt>
      <trkpt lat="42.1931370" lon="-8.7729890">
        <ele>33.6</ele>
        <time>2021-05-20T08:45:58Z</time>
      </trkpt>
      <trkpt lat="42.1931350" lon="-8.7729890">
        <ele>33.6</ele>
        <time>2021-05-20T08:45:59Z</time>
      </trkpt>
      <trkpt lat="42.1931310" lon="-8.7729890">
        <ele>33.6</ele>
        <time>2021-05-20T08:46:00Z</time>
      </trkpt>
      <trkpt lat="42.1931280" lon="-8.7729860">
        <ele>33.6</ele>
        <time>2021-05-20T08:46:01Z</time>
      </trkpt>
      <trkpt lat="42.1931300" lon="-8.7729850">
        <ele>33.6</ele>
        <time>2021-05-20T08:46:02Z</time>
      </trkpt>
      <trkpt lat="42.1931300" lon="-8.7729840">
        <ele>33.6</ele>
        <time>2021-05-20T08:46:03Z</time>
      </trkpt>
      <trkpt lat="42.1931310" lon="-8.7729830">
        <ele>33.6</ele>
        <time>2021-05-20T08:46:04Z</time>
      </trkpt>
      <trkpt lat="42.1931310" lon="-8.7729820">
        <ele>33.6</ele>
        <time>2021-05-20T08:46:05Z</time>
      </trkpt>
      <trkpt lat="42.1931310" lon="-8.7729820">
        <ele>33.6</ele>
        <time>2021-05-20T08:46:06Z</time>
      </trkpt>
      <trkpt lat="42.1931330" lon="-8.7729760">
        <ele>33.6</ele>
        <time>2021-05-20T08:46:07Z</time>
      </trkpt>
      <trkpt lat="42.1931330" lon="-8.7729760">
        <ele>33.6</ele>
        <time>2021-05-20T08:46:08Z</time>
      </trkpt>
      <trkpt lat="42.1931340" lon="-8.7729760">
        <ele>33.6</ele>
        <time>2021-05-20T08:46:09Z</time>
      </trkpt>
      <trkpt lat="42.1931350" lon="-8.7729750">
        <ele>33.6</ele>
        <time>2021-05-20T08:46:10Z</time>
      </trkpt>
      <trkpt lat="42.1931340" lon="-8.7729730">
        <ele>33.6</ele>
        <time>2021-05-20T08:46:11Z</time>
      </trkpt>
      <trkpt lat="42.1931310" lon="-8.7729710">
        <ele>33.6</ele>
        <time>2021-05-20T08:46:12Z</time>
      </trkpt>
      <trkpt lat="42.1931320" lon="-8.7729720">
        <ele>33.6</ele>
        <time>2021-05-20T08:46:13Z</time>
      </trkpt>
      <trkpt lat="42.1931320" lon="-8.7729770">
        <ele>33.6</ele>
        <time>2021-05-20T08:46:14Z</time>
      </trkpt>
      <trkpt lat="42.1931310" lon="-8.7729790">
        <ele>33.6</ele>
        <time>2021-05-20T08:46:15Z</time>
      </trkpt>
      <trkpt lat="42.1931280" lon="-8.7729800">
        <ele>33.6</ele>
        <time>2021-05-20T08:46:16Z</time>
      </trkpt>
      <trkpt lat="42.1931290" lon="-8.7729780">
        <ele>33.6</ele>
        <time>2021-05-20T08:46:17Z</time>
      </trkpt>
      <trkpt lat="42.1931280" lon="-8.7729780">
        <ele>33.6</ele>
        <time>2021-05-20T08:46:18Z</time>
      </trkpt>
      <trkpt lat="42.1931290" lon="-8.7729780">
        <ele>33.6</ele>
        <time>2021-05-20T08:46:19Z</time>
      </trkpt>
      <trkpt lat="42.1931280" lon="-8.7729790">
        <ele>33.6</ele>
        <time>2021-05-20T08:46:20Z</time>
      </trkpt>
      <trkpt lat="42.1931280" lon="-8.7729820">
        <ele>33.6</ele>
        <time>2021-05-20T08:46:21Z</time>
      </trkpt>
      <trkpt lat="42.1931280" lon="-8.7729820">
        <ele>33.6</ele>
        <time>2021-05-20T08:46:22Z</time>
      </trkpt>
      <trkpt lat="42.1931340" lon="-8.7729880">
        <ele>33.6</ele>
        <time>2021-05-20T08:46:23Z</time>
      </trkpt>
      <trkpt lat="42.1931340" lon="-8.7729880">
        <ele>33.6</ele>
        <time>2021-05-20T08:46:24Z</time>
      </trkpt>
      <trkpt lat="42.1931360" lon="-8.7729910">
        <ele>33.6</ele>
        <time>2021-05-20T08:46:25Z</time>
      </trkpt>
      <trkpt lat="42.1931360" lon="-8.7729910">
        <ele>33.6</ele>
        <time>2021-05-20T08:46:26Z</time>
      </trkpt>
      <trkpt lat="42.1931360" lon="-8.7729910">
        <ele>33.6</ele>
        <time>2021-05-20T08:46:27Z</time>
      </trkpt>
      <trkpt lat="42.1931310" lon="-8.7729960">
        <ele>33.6</ele>
        <time>2021-05-20T08:46:28Z</time>
      </trkpt>
      <trkpt lat="42.1931310" lon="-8.7729960">
        <ele>33.6</ele>
        <time>2021-05-20T08:46:29Z</time>
      </trkpt>
      <trkpt lat="42.1931310" lon="-8.7729960">
        <ele>33.6</ele>
        <time>2021-05-20T08:46:30Z</time>
      </trkpt>
      <trkpt lat="42.1931310" lon="-8.7729960">
        <ele>33.6</ele>
        <time>2021-05-20T08:46:31Z</time>
      </trkpt>
      <trkpt lat="42.1931310" lon="-8.7729960">
        <ele>33.6</ele>
        <time>2021-05-20T08:46:32Z</time>
      </trkpt>
      <trkpt lat="42.1931310" lon="-8.7729960">
        <ele>33.6</ele>
        <time>2021-05-20T08:46:33Z</time>
      </trkpt>
      <trkpt lat="42.1931310" lon="-8.7729960">
        <ele>33.6</ele>
        <time>2021-05-20T08:46:34Z</time>
      </trkpt>
      <trkpt lat="42.1931350" lon="-8.7729980">
        <ele>33.6</ele>
        <time>2021-05-20T08:46:35Z</time>
      </trkpt>
      <trkpt lat="42.1931340" lon="-8.7729970">
        <ele>33.6</ele>
        <time>2021-05-20T08:46:36Z</time>
      </trkpt>
      <trkpt lat="42.1931330" lon="-8.7729970">
        <ele>33.6</ele>
        <time>2021-05-20T08:46:37Z</time>
      </trkpt>
      <trkpt lat="42.1931280" lon="-8.7729950">
        <ele>33.6</ele>
        <time>2021-05-20T08:46:38Z</time>
      </trkpt>
      <trkpt lat="42.1931290" lon="-8.7729950">
        <ele>33.6</ele>
        <time>2021-05-20T08:46:39Z</time>
      </trkpt>
      <trkpt lat="42.1931320" lon="-8.7729940">
        <ele>33.6</ele>
        <time>2021-05-20T08:46:40Z</time>
      </trkpt>
      <trkpt lat="42.1931350" lon="-8.7729920">
        <ele>33.6</ele>
        <time>2021-05-20T08:46:41Z</time>
      </trkpt>
      <trkpt lat="42.1931380" lon="-8.7729960">
        <ele>33.6</ele>
        <time>2021-05-20T08:46:42Z</time>
      </trkpt>
      <trkpt lat="42.1931360" lon="-8.7729960">
        <ele>33.6</ele>
        <time>2021-05-20T08:46:43Z</time>
      </trkpt>
      <trkpt lat="42.1931380" lon="-8.7729950">
        <ele>33.6</ele>
        <time>2021-05-20T08:46:44Z</time>
      </trkpt>
      <trkpt lat="42.1931400" lon="-8.7729950">
        <ele>33.6</ele>
        <time>2021-05-20T08:46:45Z</time>
      </trkpt>
      <trkpt lat="42.1931390" lon="-8.7729950">
        <ele>33.6</ele>
        <time>2021-05-20T08:46:46Z</time>
      </trkpt>
      <trkpt lat="42.1931400" lon="-8.7729970">
        <ele>33.6</ele>
        <time>2021-05-20T08:46:47Z</time>
      </trkpt>
      <trkpt lat="42.1931440" lon="-8.7729950">
        <ele>33.6</ele>
        <time>2021-05-20T08:46:48Z</time>
      </trkpt>
      <trkpt lat="42.1931440" lon="-8.7729950">
        <ele>33.6</ele>
        <time>2021-05-20T08:46:49Z</time>
      </trkpt>
      <trkpt lat="42.1931440" lon="-8.7729950">
        <ele>33.6</ele>
        <time>2021-05-20T08:46:50Z</time>
      </trkpt>
      <trkpt lat="42.1931430" lon="-8.7729930">
        <ele>33.6</ele>
        <time>2021-05-20T08:46:51Z</time>
      </trkpt>
      <trkpt lat="42.1931420" lon="-8.7729950">
        <ele>33.6</ele>
        <time>2021-05-20T08:46:52Z</time>
      </trkpt>
      <trkpt lat="42.1931420" lon="-8.7729960">
        <ele>33.6</ele>
        <time>2021-05-20T08:46:53Z</time>
      </trkpt>
      <trkpt lat="42.1931460" lon="-8.7729940">
        <ele>33.6</ele>
        <time>2021-05-20T08:46:54Z</time>
      </trkpt>
      <trkpt lat="42.1931430" lon="-8.7729940">
        <ele>33.6</ele>
        <time>2021-05-20T08:46:55Z</time>
      </trkpt>
      <trkpt lat="42.1931380" lon="-8.7729980">
        <ele>33.6</ele>
        <time>2021-05-20T08:46:56Z</time>
      </trkpt>
      <trkpt lat="42.1931350" lon="-8.7729960">
        <ele>33.6</ele>
        <time>2021-05-20T08:46:57Z</time>
      </trkpt>
      <trkpt lat="42.1931360" lon="-8.7729890">
        <ele>33.6</ele>
        <time>2021-05-20T08:46:58Z</time>
      </trkpt>
      <trkpt lat="42.1931330" lon="-8.7729780">
        <ele>33.6</ele>
        <time>2021-05-20T08:46:59Z</time>
      </trkpt>
      <trkpt lat="42.1931300" lon="-8.7729710">
        <ele>33.6</ele>
        <time>2021-05-20T08:47:00Z</time>
      </trkpt>
      <trkpt lat="42.1931310" lon="-8.7729730">
        <ele>33.6</ele>
        <time>2021-05-20T08:47:01Z</time>
      </trkpt>
      <trkpt lat="42.1931320" lon="-8.7729710">
        <ele>33.6</ele>
        <time>2021-05-20T08:47:02Z</time>
      </trkpt>
      <trkpt lat="42.1931340" lon="-8.7729720">
        <ele>33.6</ele>
        <time>2021-05-20T08:47:03Z</time>
      </trkpt>
      <trkpt lat="42.1931340" lon="-8.7729710">
        <ele>33.6</ele>
        <time>2021-05-20T08:47:04Z</time>
      </trkpt>
      <trkpt lat="42.1931340" lon="-8.7729710">
        <ele>33.6</ele>
        <time>2021-05-20T08:47:05Z</time>
      </trkpt>
      <trkpt lat="42.1931340" lon="-8.7729710">
        <ele>33.6</ele>
        <time>2021-05-20T08:47:06Z</time>
      </trkpt>
      <trkpt lat="42.1931340" lon="-8.7729710">
        <ele>33.6</ele>
        <time>2021-05-20T08:47:07Z</time>
      </trkpt>
      <trkpt lat="42.1931340" lon="-8.7729680">
        <ele>33.6</ele>
        <time>2021-05-20T08:47:08Z</time>
      </trkpt>
      <trkpt lat="42.1931310" lon="-8.7729700">
        <ele>33.6</ele>
        <time>2021-05-20T08:47:09Z</time>
      </trkpt>
      <trkpt lat="42.1931290" lon="-8.7729720">
        <ele>33.6</ele>
        <time>2021-05-20T08:47:10Z</time>
      </trkpt>
      <trkpt lat="42.1931290" lon="-8.7729720">
        <ele>33.6</ele>
        <time>2021-05-20T08:47:11Z</time>
      </trkpt>
      <trkpt lat="42.1931260" lon="-8.7729730">
        <ele>33.6</ele>
        <time>2021-05-20T08:47:12Z</time>
      </trkpt>
      <trkpt lat="42.1931260" lon="-8.7729730">
        <ele>33.6</ele>
        <time>2021-05-20T08:47:13Z</time>
      </trkpt>
      <trkpt lat="42.1931270" lon="-8.7729690">
        <ele>33.6</ele>
        <time>2021-05-20T08:47:14Z</time>
      </trkpt>
      <trkpt lat="42.1931280" lon="-8.7729660">
        <ele>33.6</ele>
        <time>2021-05-20T08:47:15Z</time>
      </trkpt>
      <trkpt lat="42.1931290" lon="-8.7729650">
        <ele>33.6</ele>
        <time>2021-05-20T08:47:16Z</time>
      </trkpt>
      <trkpt lat="42.1931290" lon="-8.7729650">
        <ele>33.6</ele>
        <time>2021-05-20T08:47:17Z</time>
      </trkpt>
      <trkpt lat="42.1931290" lon="-8.7729650">
        <ele>33.6</ele>
        <time>2021-05-20T08:47:18Z</time>
      </trkpt>
      <trkpt lat="42.1931290" lon="-8.7729660">
        <ele>33.6</ele>
        <time>2021-05-20T08:47:19Z</time>
      </trkpt>
      <trkpt lat="42.1931270" lon="-8.7729670">
        <ele>33.6</ele>
        <time>2021-05-20T08:47:20Z</time>
      </trkpt>
      <trkpt lat="42.1931270" lon="-8.7729690">
        <ele>33.6</ele>
        <time>2021-05-20T08:47:21Z</time>
      </trkpt>
      <trkpt lat="42.1931290" lon="-8.7729700">
        <ele>33.6</ele>
        <time>2021-05-20T08:47:22Z</time>
      </trkpt>
      <trkpt lat="42.1931300" lon="-8.7729700">
        <ele>33.6</ele>
        <time>2021-05-20T08:47:23Z</time>
      </trkpt>
      <trkpt lat="42.1931330" lon="-8.7729700">
        <ele>33.6</ele>
        <time>2021-05-20T08:47:24Z</time>
      </trkpt>
      <trkpt lat="42.1931330" lon="-8.7729710">
        <ele>33.6</ele>
        <time>2021-05-20T08:47:25Z</time>
      </trkpt>
      <trkpt lat="42.1931330" lon="-8.7729710">
        <ele>33.6</ele>
        <time>2021-05-20T08:47:26Z</time>
      </trkpt>
      <trkpt lat="42.1931300" lon="-8.7729700">
        <ele>33.6</ele>
        <time>2021-05-20T08:47:27Z</time>
      </trkpt>
      <trkpt lat="42.1931270" lon="-8.7729710">
        <ele>33.6</ele>
        <time>2021-05-20T08:47:28Z</time>
      </trkpt>
      <trkpt lat="42.1931280" lon="-8.7729710">
        <ele>33.6</ele>
        <time>2021-05-20T08:47:29Z</time>
      </trkpt>
      <trkpt lat="42.1931270" lon="-8.7729730">
        <ele>33.6</ele>
        <time>2021-05-20T08:47:30Z</time>
      </trkpt>
      <trkpt lat="42.1931270" lon="-8.7729740">
        <ele>33.6</ele>
        <time>2021-05-20T08:47:31Z</time>
      </trkpt>
      <trkpt lat="42.1931270" lon="-8.7729730">
        <ele>33.6</ele>
        <time>2021-05-20T08:47:32Z</time>
      </trkpt>
      <trkpt lat="42.1931270" lon="-8.7729740">
        <ele>33.6</ele>
        <time>2021-05-20T08:47:33Z</time>
      </trkpt>
      <trkpt lat="42.1931260" lon="-8.7729730">
        <ele>33.6</ele>
        <time>2021-05-20T08:47:34Z</time>
      </trkpt>
      <trkpt lat="42.1931260" lon="-8.7729730">
        <ele>33.6</ele>
        <time>2021-05-20T08:47:35Z</time>
      </trkpt>
      <trkpt lat="42.1931260" lon="-8.7729740">
        <ele>33.6</ele>
        <time>2021-05-20T08:47:37Z</time>
      </trkpt>
      <trkpt lat="42.1931250" lon="-8.7729750">
        <ele>33.6</ele>
        <time>2021-05-20T08:47:38Z</time>
      </trkpt>
      <trkpt lat="42.1931220" lon="-8.7729760">
        <ele>33.6</ele>
        <time>2021-05-20T08:47:39Z</time>
      </trkpt>
      <trkpt lat="42.1931220" lon="-8.7729750">
        <ele>33.6</ele>
        <time>2021-05-20T08:47:40Z</time>
      </trkpt>
      <trkpt lat="42.1931220" lon="-8.7729750">
        <ele>33.6</ele>
        <time>2021-05-20T08:47:41Z</time>
      </trkpt>
      <trkpt lat="42.1931220" lon="-8.7729750">
        <ele>33.6</ele>
        <time>2021-05-20T08:47:42Z</time>
      </trkpt>
      <trkpt lat="42.1931210" lon="-8.7729760">
        <ele>33.6</ele>
        <time>2021-05-20T08:47:43Z</time>
      </trkpt>
      <trkpt lat="42.1931210" lon="-8.7729760">
        <ele>33.6</ele>
        <time>2021-05-20T08:47:44Z</time>
      </trkpt>
      <trkpt lat="42.1931210" lon="-8.7729760">
        <ele>33.6</ele>
        <time>2021-05-20T08:47:45Z</time>
      </trkpt>
      <trkpt lat="42.1931210" lon="-8.7729760">
        <ele>33.6</ele>
        <time>2021-05-20T08:47:46Z</time>
      </trkpt>
      <trkpt lat="42.1931310" lon="-8.7729730">
        <ele>33.6</ele>
        <time>2021-05-20T08:47:47Z</time>
      </trkpt>
      <trkpt lat="42.1931310" lon="-8.7729740">
        <ele>33.6</ele>
        <time>2021-05-20T08:47:48Z</time>
      </trkpt>
      <trkpt lat="42.1931260" lon="-8.7729750">
        <ele>33.6</ele>
        <time>2021-05-20T08:47:49Z</time>
      </trkpt>
      <trkpt lat="42.1931100" lon="-8.7729660">
        <ele>33.6</ele>
        <time>2021-05-20T08:47:50Z</time>
      </trkpt>
      <trkpt lat="42.1931110" lon="-8.7729550">
        <ele>33.6</ele>
        <time>2021-05-20T08:47:51Z</time>
      </trkpt>
      <trkpt lat="42.1931090" lon="-8.7729590">
        <ele>33.6</ele>
        <time>2021-05-20T08:47:52Z</time>
      </trkpt>
      <trkpt lat="42.1931110" lon="-8.7729480">
        <ele>33.6</ele>
        <time>2021-05-20T08:47:53Z</time>
      </trkpt>
      <trkpt lat="42.1931120" lon="-8.7729430">
        <ele>33.6</ele>
        <time>2021-05-20T08:47:54Z</time>
      </trkpt>
      <trkpt lat="42.1931120" lon="-8.7729390">
        <ele>33.6</ele>
        <time>2021-05-20T08:47:55Z</time>
      </trkpt>
      <trkpt lat="42.1931140" lon="-8.7729380">
        <ele>33.6</ele>
        <time>2021-05-20T08:47:56Z</time>
      </trkpt>
      <trkpt lat="42.1931150" lon="-8.7729410">
        <ele>33.6</ele>
        <time>2021-05-20T08:47:57Z</time>
      </trkpt>
      <trkpt lat="42.1931170" lon="-8.7729420">
        <ele>33.6</ele>
        <time>2021-05-20T08:47:58Z</time>
      </trkpt>
      <trkpt lat="42.1931210" lon="-8.7729430">
        <ele>33.6</ele>
        <time>2021-05-20T08:47:59Z</time>
      </trkpt>
      <trkpt lat="42.1931250" lon="-8.7729510">
        <ele>33.6</ele>
        <time>2021-05-20T08:48:00Z</time>
      </trkpt>
      <trkpt lat="42.1931280" lon="-8.7729570">
        <ele>33.6</ele>
        <time>2021-05-20T08:48:01Z</time>
      </trkpt>
      <trkpt lat="42.1931300" lon="-8.7729570">
        <ele>33.6</ele>
        <time>2021-05-20T08:48:02Z</time>
      </trkpt>
      <trkpt lat="42.1931350" lon="-8.7729590">
        <ele>33.6</ele>
        <time>2021-05-20T08:48:03Z</time>
      </trkpt>
      <trkpt lat="42.1931370" lon="-8.7729640">
        <ele>33.6</ele>
        <time>2021-05-20T08:48:04Z</time>
      </trkpt>
      <trkpt lat="42.1931410" lon="-8.7729640">
        <ele>33.6</ele>
        <time>2021-05-20T08:48:05Z</time>
      </trkpt>
      <trkpt lat="42.1931410" lon="-8.7729680">
        <ele>33.6</ele>
        <time>2021-05-20T08:48:06Z</time>
      </trkpt>
      <trkpt lat="42.1931410" lon="-8.7729680">
        <ele>33.6</ele>
        <time>2021-05-20T08:48:07Z</time>
      </trkpt>
      <trkpt lat="42.1931400" lon="-8.7729670">
        <ele>33.6</ele>
        <time>2021-05-20T08:48:08Z</time>
      </trkpt>
      <trkpt lat="42.1931440" lon="-8.7729750">
        <ele>33.6</ele>
        <time>2021-05-20T08:48:09Z</time>
      </trkpt>
      <trkpt lat="42.1931440" lon="-8.7729800">
        <ele>33.6</ele>
        <time>2021-05-20T08:48:10Z</time>
      </trkpt>
      <trkpt lat="42.1931400" lon="-8.7729820">
        <ele>33.6</ele>
        <time>2021-05-20T08:48:11Z</time>
      </trkpt>
      <trkpt lat="42.1931450" lon="-8.7729830">
        <ele>33.6</ele>
        <time>2021-05-20T08:48:12Z</time>
      </trkpt>
      <trkpt lat="42.1931460" lon="-8.7729840">
        <ele>33.6</ele>
        <time>2021-05-20T08:48:13Z</time>
      </trkpt>
      <trkpt lat="42.1931430" lon="-8.7729830">
        <ele>33.6</ele>
        <time>2021-05-20T08:48:14Z</time>
      </trkpt>
      <trkpt lat="42.1931510" lon="-8.7729840">
        <ele>33.6</ele>
        <time>2021-05-20T08:48:15Z</time>
      </trkpt>
      <trkpt lat="42.1931530" lon="-8.7729890">
        <ele>33.6</ele>
        <time>2021-05-20T08:48:16Z</time>
      </trkpt>
      <trkpt lat="42.1931560" lon="-8.7729930">
        <ele>33.6</ele>
        <time>2021-05-20T08:48:17Z</time>
      </trkpt>
      <trkpt lat="42.1931510" lon="-8.7729970">
        <ele>33.6</ele>
        <time>2021-05-20T08:48:18Z</time>
      </trkpt>
      <trkpt lat="42.1931410" lon="-8.7729980">
        <ele>33.6</ele>
        <time>2021-05-20T08:48:19Z</time>
      </trkpt>
      <trkpt lat="42.1931330" lon="-8.7729940">
        <ele>33.6</ele>
        <time>2021-05-20T08:48:20Z</time>
      </trkpt>
      <trkpt lat="42.1931320" lon="-8.7729920">
        <ele>33.6</ele>
        <time>2021-05-20T08:48:21Z</time>
      </trkpt>
      <trkpt lat="42.1931300" lon="-8.7729960">
        <ele>33.6</ele>
        <time>2021-05-20T08:48:22Z</time>
      </trkpt>
      <trkpt lat="42.1931280" lon="-8.7729950">
        <ele>33.6</ele>
        <time>2021-05-20T08:48:23Z</time>
      </trkpt>
      <trkpt lat="42.1931280" lon="-8.7729950">
        <ele>33.6</ele>
        <time>2021-05-20T08:48:24Z</time>
      </trkpt>
      <trkpt lat="42.1931270" lon="-8.7729960">
        <ele>33.6</ele>
        <time>2021-05-20T08:48:25Z</time>
      </trkpt>
      <trkpt lat="42.1931270" lon="-8.7729960">
        <ele>33.6</ele>
        <time>2021-05-20T08:48:26Z</time>
      </trkpt>
      <trkpt lat="42.1931270" lon="-8.7729950">
        <ele>33.6</ele>
        <time>2021-05-20T08:48:27Z</time>
      </trkpt>
      <trkpt lat="42.1931260" lon="-8.7729920">
        <ele>33.6</ele>
        <time>2021-05-20T08:48:28Z</time>
      </trkpt>
      <trkpt lat="42.1931300" lon="-8.7729930">
        <ele>33.6</ele>
        <time>2021-05-20T08:48:29Z</time>
      </trkpt>
      <trkpt lat="42.1931280" lon="-8.7729920">
        <ele>33.6</ele>
        <time>2021-05-20T08:48:30Z</time>
      </trkpt>
      <trkpt lat="42.1931280" lon="-8.7729910">
        <ele>33.6</ele>
        <time>2021-05-20T08:48:31Z</time>
      </trkpt>
      <trkpt lat="42.1931290" lon="-8.7729910">
        <ele>33.6</ele>
        <time>2021-05-20T08:48:32Z</time>
      </trkpt>
      <trkpt lat="42.1931310" lon="-8.7729880">
        <ele>33.6</ele>
        <time>2021-05-20T08:48:33Z</time>
      </trkpt>
      <trkpt lat="42.1931320" lon="-8.7729860">
        <ele>33.6</ele>
        <time>2021-05-20T08:48:34Z</time>
      </trkpt>
      <trkpt lat="42.1931320" lon="-8.7729850">
        <ele>33.6</ele>
        <time>2021-05-20T08:48:35Z</time>
      </trkpt>
      <trkpt lat="42.1931350" lon="-8.7729840">
        <ele>33.6</ele>
        <time>2021-05-20T08:48:36Z</time>
      </trkpt>
      <trkpt lat="42.1931360" lon="-8.7729830">
        <ele>33.6</ele>
        <time>2021-05-20T08:48:37Z</time>
      </trkpt>
      <trkpt lat="42.1931380" lon="-8.7729790">
        <ele>33.6</ele>
        <time>2021-05-20T08:48:38Z</time>
      </trkpt>
      <trkpt lat="42.1931370" lon="-8.7729780">
        <ele>33.6</ele>
        <time>2021-05-20T08:48:39Z</time>
      </trkpt>
      <trkpt lat="42.1931360" lon="-8.7729770">
        <ele>33.6</ele>
        <time>2021-05-20T08:48:40Z</time>
      </trkpt>
      <trkpt lat="42.1931350" lon="-8.7729810">
        <ele>33.6</ele>
        <time>2021-05-20T08:48:41Z</time>
      </trkpt>
      <trkpt lat="42.1931320" lon="-8.7729810">
        <ele>33.6</ele>
        <time>2021-05-20T08:48:42Z</time>
      </trkpt>
      <trkpt lat="42.1931190" lon="-8.7729810">
        <ele>33.6</ele>
        <time>2021-05-20T08:48:43Z</time>
      </trkpt>
      <trkpt lat="42.1931180" lon="-8.7729820">
        <ele>33.6</ele>
        <time>2021-05-20T08:48:44Z</time>
      </trkpt>
      <trkpt lat="42.1931180" lon="-8.7729830">
        <ele>33.6</ele>
        <time>2021-05-20T08:48:45Z</time>
      </trkpt>
      <trkpt lat="42.1931250" lon="-8.7729870">
        <ele>33.6</ele>
        <time>2021-05-20T08:48:46Z</time>
      </trkpt>
      <trkpt lat="42.1931260" lon="-8.7729890">
        <ele>33.6</ele>
        <time>2021-05-20T08:48:47Z</time>
      </trkpt>
      <trkpt lat="42.1931250" lon="-8.7729920">
        <ele>33.6</ele>
        <time>2021-05-20T08:48:48Z</time>
      </trkpt>
      <trkpt lat="42.1931240" lon="-8.7729960">
        <ele>33.6</ele>
        <time>2021-05-20T08:48:49Z</time>
      </trkpt>
      <trkpt lat="42.1931210" lon="-8.7729970">
        <ele>33.6</ele>
        <time>2021-05-20T08:48:50Z</time>
      </trkpt>
      <trkpt lat="42.1931180" lon="-8.7729990">
        <ele>33.6</ele>
        <time>2021-05-20T08:48:51Z</time>
      </trkpt>
      <trkpt lat="42.1931180" lon="-8.7729990">
        <ele>33.6</ele>
        <time>2021-05-20T08:48:52Z</time>
      </trkpt>
      <trkpt lat="42.1931170" lon="-8.7730070">
        <ele>33.6</ele>
        <time>2021-05-20T08:48:53Z</time>
      </trkpt>
      <trkpt lat="42.1931150" lon="-8.7730020">
        <ele>33.6</ele>
        <time>2021-05-20T08:48:54Z</time>
      </trkpt>
      <trkpt lat="42.1931110" lon="-8.7729970">
        <ele>33.6</ele>
        <time>2021-05-20T08:48:55Z</time>
      </trkpt>
      <trkpt lat="42.1931130" lon="-8.7729950">
        <ele>33.6</ele>
        <time>2021-05-20T08:48:56Z</time>
      </trkpt>
      <trkpt lat="42.1931120" lon="-8.7729880">
        <ele>33.6</ele>
        <time>2021-05-20T08:48:57Z</time>
      </trkpt>
      <trkpt lat="42.1931090" lon="-8.7729820">
        <ele>33.6</ele>
        <time>2021-05-20T08:48:58Z</time>
      </trkpt>
      <trkpt lat="42.1931060" lon="-8.7729820">
        <ele>33.6</ele>
        <time>2021-05-20T08:48:59Z</time>
      </trkpt>
      <trkpt lat="42.1931030" lon="-8.7729820">
        <ele>33.6</ele>
        <time>2021-05-20T08:49:00Z</time>
      </trkpt>
      <trkpt lat="42.1931030" lon="-8.7729810">
        <ele>33.6</ele>
        <time>2021-05-20T08:49:01Z</time>
      </trkpt>
      <trkpt lat="42.1930990" lon="-8.7729790">
        <ele>33.6</ele>
        <time>2021-05-20T08:49:02Z</time>
      </trkpt>
      <trkpt lat="42.1930970" lon="-8.7729790">
        <ele>33.6</ele>
        <time>2021-05-20T08:49:03Z</time>
      </trkpt>
      <trkpt lat="42.1930950" lon="-8.7729790">
        <ele>33.6</ele>
        <time>2021-05-20T08:49:04Z</time>
      </trkpt>
      <trkpt lat="42.1930930" lon="-8.7729780">
        <ele>33.6</ele>
        <time>2021-05-20T08:49:05Z</time>
      </trkpt>
      <trkpt lat="42.1930910" lon="-8.7729790">
        <ele>33.6</ele>
        <time>2021-05-20T08:49:06Z</time>
      </trkpt>
      <trkpt lat="42.1930900" lon="-8.7729780">
        <ele>33.6</ele>
        <time>2021-05-20T08:49:07Z</time>
      </trkpt>
      <trkpt lat="42.1930870" lon="-8.7729760">
        <ele>33.6</ele>
        <time>2021-05-20T08:49:08Z</time>
      </trkpt>
      <trkpt lat="42.1930860" lon="-8.7729760">
        <ele>33.6</ele>
        <time>2021-05-20T08:49:09Z</time>
      </trkpt>
      <trkpt lat="42.1930850" lon="-8.7729750">
        <ele>33.6</ele>
        <time>2021-05-20T08:49:10Z</time>
      </trkpt>
      <trkpt lat="42.1930840" lon="-8.7729750">
        <ele>33.6</ele>
        <time>2021-05-20T08:49:11Z</time>
      </trkpt>
      <trkpt lat="42.1930840" lon="-8.7729750">
        <ele>33.6</ele>
        <time>2021-05-20T08:49:12Z</time>
      </trkpt>
      <trkpt lat="42.1930830" lon="-8.7729730">
        <ele>33.6</ele>
        <time>2021-05-20T08:49:13Z</time>
      </trkpt>
      <trkpt lat="42.1930840" lon="-8.7729720">
        <ele>33.6</ele>
        <time>2021-05-20T08:49:14Z</time>
      </trkpt>
      <trkpt lat="42.1930810" lon="-8.7729700">
        <ele>33.6</ele>
        <time>2021-05-20T08:49:15Z</time>
      </trkpt>
      <trkpt lat="42.1930810" lon="-8.7729730">
        <ele>33.6</ele>
        <time>2021-05-20T08:49:16Z</time>
      </trkpt>
      <trkpt lat="42.1930820" lon="-8.7729720">
        <ele>33.6</ele>
        <time>2021-05-20T08:49:17Z</time>
      </trkpt>
      <trkpt lat="42.1930810" lon="-8.7729670">
        <ele>33.6</ele>
        <time>2021-05-20T08:49:18Z</time>
      </trkpt>
      <trkpt lat="42.1930860" lon="-8.7729620">
        <ele>33.6</ele>
        <time>2021-05-20T08:49:19Z</time>
      </trkpt>
      <trkpt lat="42.1930880" lon="-8.7729590">
        <ele>33.6</ele>
        <time>2021-05-20T08:49:20Z</time>
      </trkpt>
      <trkpt lat="42.1930910" lon="-8.7729470">
        <ele>33.6</ele>
        <time>2021-05-20T08:49:21Z</time>
      </trkpt>
      <trkpt lat="42.1931000" lon="-8.7729440">
        <ele>33.6</ele>
        <time>2021-05-20T08:49:22Z</time>
      </trkpt>
      <trkpt lat="42.1931160" lon="-8.7729300">
        <ele>33.6</ele>
        <time>2021-05-20T08:49:24Z</time>
      </trkpt>
      <trkpt lat="42.1931150" lon="-8.7729260">
        <ele>33.6</ele>
        <time>2021-05-20T08:49:25Z</time>
      </trkpt>
      <trkpt lat="42.1931240" lon="-8.7729120">
        <ele>33.6</ele>
        <time>2021-05-20T08:49:26Z</time>
      </trkpt>
      <trkpt lat="42.1931310" lon="-8.7729150">
        <ele>33.6</ele>
        <time>2021-05-20T08:49:27Z</time>
      </trkpt>
      <trkpt lat="42.1931360" lon="-8.7729100">
        <ele>33.6</ele>
        <time>2021-05-20T08:49:28Z</time>
      </trkpt>
      <trkpt lat="42.1931400" lon="-8.7728960">
        <ele>33.6</ele>
        <time>2021-05-20T08:49:29Z</time>
      </trkpt>
      <trkpt lat="42.1931440" lon="-8.7728840">
        <ele>33.6</ele>
        <time>2021-05-20T08:49:30Z</time>
      </trkpt>
      <trkpt lat="42.1931420" lon="-8.7728760">
        <ele>33.6</ele>
        <time>2021-05-20T08:49:31Z</time>
      </trkpt>
      <trkpt lat="42.1931460" lon="-8.7728660">
        <ele>33.6</ele>
        <time>2021-05-20T08:49:32Z</time>
      </trkpt>
      <trkpt lat="42.1931490" lon="-8.7728540">
        <ele>33.6</ele>
        <time>2021-05-20T08:49:33Z</time>
      </trkpt>
      <trkpt lat="42.1931430" lon="-8.7728410">
        <ele>33.6</ele>
        <time>2021-05-20T08:49:34Z</time>
      </trkpt>
      <trkpt lat="42.1931490" lon="-8.7728360">
        <ele>33.6</ele>
        <time>2021-05-20T08:49:35Z</time>
      </trkpt>
      <trkpt lat="42.1931520" lon="-8.7728320">
        <ele>33.6</ele>
        <time>2021-05-20T08:49:37Z</time>
      </trkpt>
      <trkpt lat="42.1931510" lon="-8.7728220">
        <ele>33.6</ele>
        <time>2021-05-20T08:49:38Z</time>
      </trkpt>
      <trkpt lat="42.1931570" lon="-8.7728090">
        <ele>33.6</ele>
        <time>2021-05-20T08:49:39Z</time>
      </trkpt>
      <trkpt lat="42.1931680" lon="-8.7727990">
        <ele>33.6</ele>
        <time>2021-05-20T08:49:40Z</time>
      </trkpt>
      <trkpt lat="42.1931740" lon="-8.7727870">
        <ele>33.6</ele>
        <time>2021-05-20T08:49:41Z</time>
      </trkpt>
      <trkpt lat="42.1931830" lon="-8.7727720">
        <ele>33.7</ele>
        <time>2021-05-20T08:49:42Z</time>
      </trkpt>
      <trkpt lat="42.1931920" lon="-8.7727630">
        <ele>33.7</ele>
        <time>2021-05-20T08:49:43Z</time>
      </trkpt>
      <trkpt lat="42.1932050" lon="-8.7727460">
        <ele>33.7</ele>
        <time>2021-05-20T08:49:44Z</time>
      </trkpt>
      <trkpt lat="42.1932170" lon="-8.7727370">
        <ele>33.6</ele>
        <time>2021-05-20T08:49:45Z</time>
      </trkpt>
      <trkpt lat="42.1932350" lon="-8.7727290">
        <ele>33.6</ele>
        <time>2021-05-20T08:49:46Z</time>
      </trkpt>
      <trkpt lat="42.1932480" lon="-8.7727160">
        <ele>33.6</ele>
        <time>2021-05-20T08:49:47Z</time>
      </trkpt>
      <trkpt lat="42.1932510" lon="-8.7727070">
        <ele>33.6</ele>
        <time>2021-05-20T08:49:48Z</time>
      </trkpt>
      <trkpt lat="42.1932630" lon="-8.7726960">
        <ele>33.6</ele>
        <time>2021-05-20T08:49:49Z</time>
      </trkpt>
      <trkpt lat="42.1932720" lon="-8.7726920">
        <ele>33.6</ele>
        <time>2021-05-20T08:49:50Z</time>
      </trkpt>
      <trkpt lat="42.1932830" lon="-8.7726840">
        <ele>33.5</ele>
        <time>2021-05-20T08:49:51Z</time>
      </trkpt>
      <trkpt lat="42.1933030" lon="-8.7726800">
        <ele>33.5</ele>
        <time>2021-05-20T08:49:52Z</time>
      </trkpt>
      <trkpt lat="42.1933260" lon="-8.7726550">
        <ele>33.5</ele>
        <time>2021-05-20T08:49:53Z</time>
      </trkpt>
      <trkpt lat="42.1933330" lon="-8.7726440">
        <ele>33.5</ele>
        <time>2021-05-20T08:49:54Z</time>
      </trkpt>
      <trkpt lat="42.1933420" lon="-8.7726410">
        <ele>33.5</ele>
        <time>2021-05-20T08:49:55Z</time>
      </trkpt>
      <trkpt lat="42.1933520" lon="-8.7726330">
        <ele>33.4</ele>
        <time>2021-05-20T08:49:56Z</time>
      </trkpt>
      <trkpt lat="42.1933610" lon="-8.7726250">
        <ele>33.4</ele>
        <time>2021-05-20T08:49:57Z</time>
      </trkpt>
      <trkpt lat="42.1933630" lon="-8.7726180">
        <ele>33.4</ele>
        <time>2021-05-20T08:49:58Z</time>
      </trkpt>
      <trkpt lat="42.1933600" lon="-8.7726060">
        <ele>33.4</ele>
        <time>2021-05-20T08:49:59Z</time>
      </trkpt>
      <trkpt lat="42.1933710" lon="-8.7726020">
        <ele>33.4</ele>
        <time>2021-05-20T08:50:00Z</time>
      </trkpt>
      <trkpt lat="42.1933790" lon="-8.7725960">
        <ele>33.4</ele>
        <time>2021-05-20T08:50:01Z</time>
      </trkpt>
      <trkpt lat="42.1933880" lon="-8.7725870">
        <ele>33.4</ele>
        <time>2021-05-20T08:50:02Z</time>
      </trkpt>
      <trkpt lat="42.1934030" lon="-8.7725880">
        <ele>33.4</ele>
        <time>2021-05-20T08:50:03Z</time>
      </trkpt>
      <trkpt lat="42.1934100" lon="-8.7725700">
        <ele>33.3</ele>
        <time>2021-05-20T08:50:04Z</time>
      </trkpt>
      <trkpt lat="42.1934190" lon="-8.7725590">
        <ele>33.3</ele>
        <time>2021-05-20T08:50:05Z</time>
      </trkpt>
      <trkpt lat="42.1934340" lon="-8.7725520">
        <ele>33.3</ele>
        <time>2021-05-20T08:50:06Z</time>
      </trkpt>
      <trkpt lat="42.1934450" lon="-8.7725440">
        <ele>33.3</ele>
        <time>2021-05-20T08:50:07Z</time>
      </trkpt>
      <trkpt lat="42.1934480" lon="-8.7725390">
        <ele>33.3</ele>
        <time>2021-05-20T08:50:08Z</time>
      </trkpt>
      <trkpt lat="42.1934480" lon="-8.7725250">
        <ele>33.3</ele>
        <time>2021-05-20T08:50:09Z</time>
      </trkpt>
      <trkpt lat="42.1934510" lon="-8.7725100">
        <ele>33.3</ele>
        <time>2021-05-20T08:50:10Z</time>
      </trkpt>
      <trkpt lat="42.1934570" lon="-8.7725050">
        <ele>33.3</ele>
        <time>2021-05-20T08:50:11Z</time>
      </trkpt>
      <trkpt lat="42.1934670" lon="-8.7724840">
        <ele>33.3</ele>
        <time>2021-05-20T08:50:12Z</time>
      </trkpt>
      <trkpt lat="42.1934710" lon="-8.7724700">
        <ele>33.3</ele>
        <time>2021-05-20T08:50:13Z</time>
      </trkpt>
      <trkpt lat="42.1934770" lon="-8.7724600">
        <ele>33.2</ele>
        <time>2021-05-20T08:50:14Z</time>
      </trkpt>
      <trkpt lat="42.1934840" lon="-8.7724500">
        <ele>33.2</ele>
        <time>2021-05-20T08:50:15Z</time>
      </trkpt>
      <trkpt lat="42.1934900" lon="-8.7724400">
        <ele>33.2</ele>
        <time>2021-05-20T08:50:16Z</time>
      </trkpt>
      <trkpt lat="42.1934960" lon="-8.7724300">
        <ele>33.2</ele>
        <time>2021-05-20T08:50:17Z</time>
      </trkpt>
      <trkpt lat="42.1935050" lon="-8.7724130">
        <ele>33.2</ele>
        <time>2021-05-20T08:50:18Z</time>
      </trkpt>
      <trkpt lat="42.1935130" lon="-8.7723980">
        <ele>33.2</ele>
        <time>2021-05-20T08:50:19Z</time>
      </trkpt>
      <trkpt lat="42.1935150" lon="-8.7723860">
        <ele>33.2</ele>
        <time>2021-05-20T08:50:20Z</time>
      </trkpt>
      <trkpt lat="42.1935140" lon="-8.7723730">
        <ele>33.2</ele>
        <time>2021-05-20T08:50:21Z</time>
      </trkpt>
      <trkpt lat="42.1935220" lon="-8.7723610">
        <ele>33.2</ele>
        <time>2021-05-20T08:50:22Z</time>
      </trkpt>
      <trkpt lat="42.1935270" lon="-8.7723520">
        <ele>33.2</ele>
        <time>2021-05-20T08:50:23Z</time>
      </trkpt>
      <trkpt lat="42.1935380" lon="-8.7723270">
        <ele>33.2</ele>
        <time>2021-05-20T08:50:24Z</time>
      </trkpt>
      <trkpt lat="42.1935480" lon="-8.7723070">
        <ele>33.2</ele>
        <time>2021-05-20T08:50:25Z</time>
      </trkpt>
      <trkpt lat="42.1935500" lon="-8.7722980">
        <ele>33.2</ele>
        <time>2021-05-20T08:50:26Z</time>
      </trkpt>
      <trkpt lat="42.1935530" lon="-8.7722900">
        <ele>33.2</ele>
        <time>2021-05-20T08:50:27Z</time>
      </trkpt>
      <trkpt lat="42.1935550" lon="-8.7722810">
        <ele>33.2</ele>
        <time>2021-05-20T08:50:28Z</time>
      </trkpt>
      <trkpt lat="42.1935650" lon="-8.7722650">
        <ele>33.2</ele>
        <time>2021-05-20T08:50:29Z</time>
      </trkpt>
      <trkpt lat="42.1935780" lon="-8.7722520">
        <ele>33.2</ele>
        <time>2021-05-20T08:50:30Z</time>
      </trkpt>
      <trkpt lat="42.1935920" lon="-8.7722380">
        <ele>33.1</ele>
        <time>2021-05-20T08:50:31Z</time>
      </trkpt>
      <trkpt lat="42.1936020" lon="-8.7722330">
        <ele>33.1</ele>
        <time>2021-05-20T08:50:32Z</time>
      </trkpt>
      <trkpt lat="42.1936110" lon="-8.7722220">
        <ele>33.1</ele>
        <time>2021-05-20T08:50:33Z</time>
      </trkpt>
      <trkpt lat="42.1936340" lon="-8.7722170">
        <ele>33.1</ele>
        <time>2021-05-20T08:50:34Z</time>
      </trkpt>
      <trkpt lat="42.1936490" lon="-8.7721950">
        <ele>33.1</ele>
        <time>2021-05-20T08:50:35Z</time>
      </trkpt>
      <trkpt lat="42.1936540" lon="-8.7721880">
        <ele>33.1</ele>
        <time>2021-05-20T08:50:36Z</time>
      </trkpt>
      <trkpt lat="42.1936600" lon="-8.7721810">
        <ele>33.1</ele>
        <time>2021-05-20T08:50:37Z</time>
      </trkpt>
      <trkpt lat="42.1936640" lon="-8.7721630">
        <ele>33.1</ele>
        <time>2021-05-20T08:50:38Z</time>
      </trkpt>
      <trkpt lat="42.1936660" lon="-8.7721400">
        <ele>33.1</ele>
        <time>2021-05-20T08:50:39Z</time>
      </trkpt>
      <trkpt lat="42.1936720" lon="-8.7721270">
        <ele>33.1</ele>
        <time>2021-05-20T08:50:40Z</time>
      </trkpt>
      <trkpt lat="42.1936690" lon="-8.7721040">
        <ele>33.1</ele>
        <time>2021-05-20T08:50:41Z</time>
      </trkpt>
      <trkpt lat="42.1936720" lon="-8.7721020">
        <ele>33.1</ele>
        <time>2021-05-20T08:50:42Z</time>
      </trkpt>
      <trkpt lat="42.1936800" lon="-8.7720930">
        <ele>33.1</ele>
        <time>2021-05-20T08:50:43Z</time>
      </trkpt>
      <trkpt lat="42.1936830" lon="-8.7720770">
        <ele>33.1</ele>
        <time>2021-05-20T08:50:44Z</time>
      </trkpt>
      <trkpt lat="42.1936860" lon="-8.7720630">
        <ele>33.1</ele>
        <time>2021-05-20T08:50:45Z</time>
      </trkpt>
      <trkpt lat="42.1936890" lon="-8.7720460">
        <ele>33.1</ele>
        <time>2021-05-20T08:50:46Z</time>
      </trkpt>
      <trkpt lat="42.1936920" lon="-8.7720320">
        <ele>33.1</ele>
        <time>2021-05-20T08:50:47Z</time>
      </trkpt>
      <trkpt lat="42.1937000" lon="-8.7720210">
        <ele>33.1</ele>
        <time>2021-05-20T08:50:48Z</time>
      </trkpt>
      <trkpt lat="42.1937140" lon="-8.7720000">
        <ele>33.1</ele>
        <time>2021-05-20T08:50:49Z</time>
      </trkpt>
      <trkpt lat="42.1937180" lon="-8.7719900">
        <ele>33.1</ele>
        <time>2021-05-20T08:50:50Z</time>
      </trkpt>
      <trkpt lat="42.1937210" lon="-8.7719810">
        <ele>33.1</ele>
        <time>2021-05-20T08:50:51Z</time>
      </trkpt>
      <trkpt lat="42.1937330" lon="-8.7719550">
        <ele>33.1</ele>
        <time>2021-05-20T08:50:52Z</time>
      </trkpt>
      <trkpt lat="42.1937370" lon="-8.7719470">
        <ele>33.1</ele>
        <time>2021-05-20T08:50:53Z</time>
      </trkpt>
      <trkpt lat="42.1937410" lon="-8.7719380">
        <ele>33.1</ele>
        <time>2021-05-20T08:50:54Z</time>
      </trkpt>
      <trkpt lat="42.1937490" lon="-8.7719180">
        <ele>33.1</ele>
        <time>2021-05-20T08:50:55Z</time>
      </trkpt>
      <trkpt lat="42.1937570" lon="-8.7719050">
        <ele>33.0</ele>
        <time>2021-05-20T08:50:56Z</time>
      </trkpt>
      <trkpt lat="42.1937660" lon="-8.7718910">
        <ele>33.0</ele>
        <time>2021-05-20T08:50:57Z</time>
      </trkpt>
      <trkpt lat="42.1937690" lon="-8.7718760">
        <ele>33.0</ele>
        <time>2021-05-20T08:50:58Z</time>
      </trkpt>
      <trkpt lat="42.1937790" lon="-8.7718660">
        <ele>33.0</ele>
        <time>2021-05-20T08:50:59Z</time>
      </trkpt>
      <trkpt lat="42.1937870" lon="-8.7718510">
        <ele>33.0</ele>
        <time>2021-05-20T08:51:00Z</time>
      </trkpt>
      <trkpt lat="42.1937940" lon="-8.7718340">
        <ele>33.0</ele>
        <time>2021-05-20T08:51:01Z</time>
      </trkpt>
      <trkpt lat="42.1937950" lon="-8.7718220">
        <ele>33.0</ele>
        <time>2021-05-20T08:51:02Z</time>
      </trkpt>
      <trkpt lat="42.1938000" lon="-8.7718090">
        <ele>33.0</ele>
        <time>2021-05-20T08:51:03Z</time>
      </trkpt>
      <trkpt lat="42.1938040" lon="-8.7717950">
        <ele>33.0</ele>
        <time>2021-05-20T08:51:04Z</time>
      </trkpt>
      <trkpt lat="42.1938150" lon="-8.7717720">
        <ele>33.0</ele>
        <time>2021-05-20T08:51:05Z</time>
      </trkpt>
      <trkpt lat="42.1938190" lon="-8.7717620">
        <ele>33.0</ele>
        <time>2021-05-20T08:51:06Z</time>
      </trkpt>
      <trkpt lat="42.1938240" lon="-8.7717510">
        <ele>33.0</ele>
        <time>2021-05-20T08:51:07Z</time>
      </trkpt>
      <trkpt lat="42.1938320" lon="-8.7717380">
        <ele>33.0</ele>
        <time>2021-05-20T08:51:08Z</time>
      </trkpt>
      <trkpt lat="42.1938390" lon="-8.7717200">
        <ele>33.0</ele>
        <time>2021-05-20T08:51:09Z</time>
      </trkpt>
      <trkpt lat="42.1938470" lon="-8.7717080">
        <ele>33.0</ele>
        <time>2021-05-20T08:51:10Z</time>
      </trkpt>
      <trkpt lat="42.1938560" lon="-8.7716930">
        <ele>33.0</ele>
        <time>2021-05-20T08:51:11Z</time>
      </trkpt>
      <trkpt lat="42.1938600" lon="-8.7716810">
        <ele>33.0</ele>
        <time>2021-05-20T08:51:12Z</time>
      </trkpt>
      <trkpt lat="42.1938650" lon="-8.7716580">
        <ele>33.0</ele>
        <time>2021-05-20T08:51:13Z</time>
      </trkpt>
      <trkpt lat="42.1938720" lon="-8.7716470">
        <ele>33.0</ele>
        <time>2021-05-20T08:51:14Z</time>
      </trkpt>
      <trkpt lat="42.1938800" lon="-8.7716320">
        <ele>33.0</ele>
        <time>2021-05-20T08:51:15Z</time>
      </trkpt>
      <trkpt lat="42.1938880" lon="-8.7716100">
        <ele>33.0</ele>
        <time>2021-05-20T08:51:16Z</time>
      </trkpt>
      <trkpt lat="42.1939020" lon="-8.7716000">
        <ele>33.0</ele>
        <time>2021-05-20T08:51:17Z</time>
      </trkpt>
      <trkpt lat="42.1939130" lon="-8.7715900">
        <ele>33.0</ele>
        <time>2021-05-20T08:51:18Z</time>
      </trkpt>
      <trkpt lat="42.1939230" lon="-8.7715720">
        <ele>33.0</ele>
        <time>2021-05-20T08:51:19Z</time>
      </trkpt>
      <trkpt lat="42.1939310" lon="-8.7715620">
        <ele>33.0</ele>
        <time>2021-05-20T08:51:20Z</time>
      </trkpt>
      <trkpt lat="42.1939340" lon="-8.7715460">
        <ele>33.0</ele>
        <time>2021-05-20T08:51:21Z</time>
      </trkpt>
      <trkpt lat="42.1939400" lon="-8.7715330">
        <ele>33.0</ele>
        <time>2021-05-20T08:51:22Z</time>
      </trkpt>
      <trkpt lat="42.1939470" lon="-8.7715210">
        <ele>33.0</ele>
        <time>2021-05-20T08:51:23Z</time>
      </trkpt>
      <trkpt lat="42.1939560" lon="-8.7715060">
        <ele>33.0</ele>
        <time>2021-05-20T08:51:24Z</time>
      </trkpt>
      <trkpt lat="42.1939690" lon="-8.7714920">
        <ele>33.0</ele>
        <time>2021-05-20T08:51:25Z</time>
      </trkpt>
      <trkpt lat="42.1939830" lon="-8.7714710">
        <ele>33.0</ele>
        <time>2021-05-20T08:51:26Z</time>
      </trkpt>
      <trkpt lat="42.1939870" lon="-8.7714610">
        <ele>32.9</ele>
        <time>2021-05-20T08:51:27Z</time>
      </trkpt>
      <trkpt lat="42.1939910" lon="-8.7714520">
        <ele>32.9</ele>
        <time>2021-05-20T08:51:28Z</time>
      </trkpt>
      <trkpt lat="42.1939920" lon="-8.7714380">
        <ele>32.9</ele>
        <time>2021-05-20T08:51:30Z</time>
      </trkpt>
      <trkpt lat="42.1939970" lon="-8.7714250">
        <ele>32.9</ele>
        <time>2021-05-20T08:51:31Z</time>
      </trkpt>
      <trkpt lat="42.1940010" lon="-8.7714100">
        <ele>32.9</ele>
        <time>2021-05-20T08:51:32Z</time>
      </trkpt>
      <trkpt lat="42.1940120" lon="-8.7713820">
        <ele>32.9</ele>
        <time>2021-05-20T08:51:33Z</time>
      </trkpt>
      <trkpt lat="42.1940160" lon="-8.7713750">
        <ele>32.9</ele>
        <time>2021-05-20T08:51:34Z</time>
      </trkpt>
      <trkpt lat="42.1940200" lon="-8.7713670">
        <ele>32.9</ele>
        <time>2021-05-20T08:51:35Z</time>
      </trkpt>
      <trkpt lat="42.1940260" lon="-8.7713510">
        <ele>32.9</ele>
        <time>2021-05-20T08:51:36Z</time>
      </trkpt>
      <trkpt lat="42.1940320" lon="-8.7713360">
        <ele>32.9</ele>
        <time>2021-05-20T08:51:37Z</time>
      </trkpt>
      <trkpt lat="42.1940370" lon="-8.7713270">
        <ele>32.9</ele>
        <time>2021-05-20T08:51:38Z</time>
      </trkpt>
      <trkpt lat="42.1940480" lon="-8.7712980">
        <ele>32.9</ele>
        <time>2021-05-20T08:51:39Z</time>
      </trkpt>
      <trkpt lat="42.1940510" lon="-8.7712890">
        <ele>32.9</ele>
        <time>2021-05-20T08:51:40Z</time>
      </trkpt>
      <trkpt lat="42.1940550" lon="-8.7712790">
        <ele>32.9</ele>
        <time>2021-05-20T08:51:41Z</time>
      </trkpt>
      <trkpt lat="42.1940640" lon="-8.7712550">
        <ele>32.9</ele>
        <time>2021-05-20T08:51:42Z</time>
      </trkpt>
      <trkpt lat="42.1940700" lon="-8.7712450">
        <ele>32.9</ele>
        <time>2021-05-20T08:51:43Z</time>
      </trkpt>
      <trkpt lat="42.1940750" lon="-8.7712340">
        <ele>32.9</ele>
        <time>2021-05-20T08:51:44Z</time>
      </trkpt>
      <trkpt lat="42.1940790" lon="-8.7712200">
        <ele>32.9</ele>
        <time>2021-05-20T08:51:45Z</time>
      </trkpt>
      <trkpt lat="42.1940870" lon="-8.7712020">
        <ele>32.9</ele>
        <time>2021-05-20T08:51:46Z</time>
      </trkpt>
      <trkpt lat="42.1940990" lon="-8.7711760">
        <ele>32.9</ele>
        <time>2021-05-20T08:51:47Z</time>
      </trkpt>
      <trkpt lat="42.1941070" lon="-8.7711700">
        <ele>32.9</ele>
        <time>2021-05-20T08:51:48Z</time>
      </trkpt>
      <trkpt lat="42.1941160" lon="-8.7711630">
        <ele>32.9</ele>
        <time>2021-05-20T08:51:49Z</time>
      </trkpt>
      <trkpt lat="42.1941260" lon="-8.7711360">
        <ele>32.9</ele>
        <time>2021-05-20T08:51:50Z</time>
      </trkpt>
      <trkpt lat="42.1941320" lon="-8.7711260">
        <ele>32.9</ele>
        <time>2021-05-20T08:51:51Z</time>
      </trkpt>
      <trkpt lat="42.1941390" lon="-8.7711170">
        <ele>32.9</ele>
        <time>2021-05-20T08:51:52Z</time>
      </trkpt>
      <trkpt lat="42.1941470" lon="-8.7711070">
        <ele>32.9</ele>
        <time>2021-05-20T08:51:53Z</time>
      </trkpt>
      <trkpt lat="42.1941590" lon="-8.7710900">
        <ele>32.9</ele>
        <time>2021-05-20T08:51:54Z</time>
      </trkpt>
      <trkpt lat="42.1941780" lon="-8.7710680">
        <ele>32.9</ele>
        <time>2021-05-20T08:51:55Z</time>
      </trkpt>
      <trkpt lat="42.1941850" lon="-8.7710620">
        <ele>32.9</ele>
        <time>2021-05-20T08:51:56Z</time>
      </trkpt>
      <trkpt lat="42.1941910" lon="-8.7710560">
        <ele>32.9</ele>
        <time>2021-05-20T08:51:57Z</time>
      </trkpt>
      <trkpt lat="42.1941940" lon="-8.7710350">
        <ele>32.9</ele>
        <time>2021-05-20T08:51:58Z</time>
      </trkpt>
      <trkpt lat="42.1942120" lon="-8.7710080">
        <ele>32.9</ele>
        <time>2021-05-20T08:51:59Z</time>
      </trkpt>
      <trkpt lat="42.1942200" lon="-8.7709820">
        <ele>32.9</ele>
        <time>2021-05-20T08:52:00Z</time>
      </trkpt>
      <trkpt lat="42.1942220" lon="-8.7709720">
        <ele>32.9</ele>
        <time>2021-05-20T08:52:01Z</time>
      </trkpt>
      <trkpt lat="42.1942300" lon="-8.7709500">
        <ele>32.9</ele>
        <time>2021-05-20T08:52:02Z</time>
      </trkpt>
      <trkpt lat="42.1942410" lon="-8.7709370">
        <ele>32.9</ele>
        <time>2021-05-20T08:52:03Z</time>
      </trkpt>
      <trkpt lat="42.1942530" lon="-8.7709200">
        <ele>32.9</ele>
        <time>2021-05-20T08:52:04Z</time>
      </trkpt>
      <trkpt lat="42.1942610" lon="-8.7709090">
        <ele>32.9</ele>
        <time>2021-05-20T08:52:05Z</time>
      </trkpt>
      <trkpt lat="42.1942930" lon="-8.7708980">
        <ele>32.9</ele>
        <time>2021-05-20T08:52:06Z</time>
      </trkpt>
      <trkpt lat="42.1943060" lon="-8.7708910">
        <ele>32.9</ele>
        <time>2021-05-20T08:52:07Z</time>
      </trkpt>
      <trkpt lat="42.1943370" lon="-8.7708700">
        <ele>32.9</ele>
        <time>2021-05-20T08:52:08Z</time>
      </trkpt>
      <trkpt lat="42.1943440" lon="-8.7708620">
        <ele>32.9</ele>
        <time>2021-05-20T08:52:09Z</time>
      </trkpt>
      <trkpt lat="42.1943470" lon="-8.7708470">
        <ele>32.9</ele>
        <time>2021-05-20T08:52:10Z</time>
      </trkpt>
      <trkpt lat="42.1943500" lon="-8.7708380">
        <ele>32.9</ele>
        <time>2021-05-20T08:52:11Z</time>
      </trkpt>
      <trkpt lat="42.1943540" lon="-8.7708210">
        <ele>32.9</ele>
        <time>2021-05-20T08:52:12Z</time>
      </trkpt>
      <trkpt lat="42.1943570" lon="-8.7708060">
        <ele>32.9</ele>
        <time>2021-05-20T08:52:13Z</time>
      </trkpt>
      <trkpt lat="42.1943640" lon="-8.7707920">
        <ele>32.9</ele>
        <time>2021-05-20T08:52:14Z</time>
      </trkpt>
      <trkpt lat="42.1943670" lon="-8.7707770">
        <ele>32.9</ele>
        <time>2021-05-20T08:52:15Z</time>
      </trkpt>
      <trkpt lat="42.1943710" lon="-8.7707600">
        <ele>32.9</ele>
        <time>2021-05-20T08:52:16Z</time>
      </trkpt>
      <trkpt lat="42.1943710" lon="-8.7707380">
        <ele>32.9</ele>
        <time>2021-05-20T08:52:17Z</time>
      </trkpt>
      <trkpt lat="42.1943680" lon="-8.7707140">
        <ele>32.9</ele>
        <time>2021-05-20T08:52:18Z</time>
      </trkpt>
      <trkpt lat="42.1943660" lon="-8.7706990">
        <ele>32.9</ele>
        <time>2021-05-20T08:52:19Z</time>
      </trkpt>
      <trkpt lat="42.1943750" lon="-8.7706810">
        <ele>32.9</ele>
        <time>2021-05-20T08:52:20Z</time>
      </trkpt>
      <trkpt lat="42.1943810" lon="-8.7706560">
        <ele>32.9</ele>
        <time>2021-05-20T08:52:21Z</time>
      </trkpt>
      <trkpt lat="42.1943840" lon="-8.7706380">
        <ele>32.9</ele>
        <time>2021-05-20T08:52:22Z</time>
      </trkpt>
      <trkpt lat="42.1943850" lon="-8.7706280">
        <ele>32.9</ele>
        <time>2021-05-20T08:52:23Z</time>
      </trkpt>
      <trkpt lat="42.1943850" lon="-8.7706170">
        <ele>32.9</ele>
        <time>2021-05-20T08:52:24Z</time>
      </trkpt>
      <trkpt lat="42.1943850" lon="-8.7706070">
        <ele>32.9</ele>
        <time>2021-05-20T08:52:25Z</time>
      </trkpt>
      <trkpt lat="42.1943930" lon="-8.7705920">
        <ele>32.9</ele>
        <time>2021-05-20T08:52:26Z</time>
      </trkpt>
      <trkpt lat="42.1943940" lon="-8.7705690">
        <ele>32.9</ele>
        <time>2021-05-20T08:52:27Z</time>
      </trkpt>
      <trkpt lat="42.1944040" lon="-8.7705470">
        <ele>32.9</ele>
        <time>2021-05-20T08:52:28Z</time>
      </trkpt>
      <trkpt lat="42.1944070" lon="-8.7705350">
        <ele>32.9</ele>
        <time>2021-05-20T08:52:29Z</time>
      </trkpt>
      <trkpt lat="42.1944110" lon="-8.7705240">
        <ele>32.9</ele>
        <time>2021-05-20T08:52:30Z</time>
      </trkpt>
      <trkpt lat="42.1944150" lon="-8.7704960">
        <ele>32.9</ele>
        <time>2021-05-20T08:52:31Z</time>
      </trkpt>
      <trkpt lat="42.1944180" lon="-8.7704850">
        <ele>32.9</ele>
        <time>2021-05-20T08:52:32Z</time>
      </trkpt>
      <trkpt lat="42.1944200" lon="-8.7704750">
        <ele>32.9</ele>
        <time>2021-05-20T08:52:33Z</time>
      </trkpt>
      <trkpt lat="42.1944220" lon="-8.7704580">
        <ele>32.9</ele>
        <time>2021-05-20T08:52:34Z</time>
      </trkpt>
      <trkpt lat="42.1944270" lon="-8.7704460">
        <ele>32.9</ele>
        <time>2021-05-20T08:52:35Z</time>
      </trkpt>
      <trkpt lat="42.1944260" lon="-8.7704290">
        <ele>32.9</ele>
        <time>2021-05-20T08:52:36Z</time>
      </trkpt>
      <trkpt lat="42.1944290" lon="-8.7704090">
        <ele>32.9</ele>
        <time>2021-05-20T08:52:37Z</time>
      </trkpt>
      <trkpt lat="42.1944420" lon="-8.7703950">
        <ele>32.8</ele>
        <time>2021-05-20T08:52:38Z</time>
      </trkpt>
      <trkpt lat="42.1944510" lon="-8.7703720">
        <ele>32.8</ele>
        <time>2021-05-20T08:52:39Z</time>
      </trkpt>
      <trkpt lat="42.1944580" lon="-8.7703560">
        <ele>32.8</ele>
        <time>2021-05-20T08:52:40Z</time>
      </trkpt>
      <trkpt lat="42.1944730" lon="-8.7703360">
        <ele>32.8</ele>
        <time>2021-05-20T08:52:41Z</time>
      </trkpt>
      <trkpt lat="42.1944830" lon="-8.7703220">
        <ele>32.8</ele>
        <time>2021-05-20T08:52:42Z</time>
      </trkpt>
      <trkpt lat="42.1944940" lon="-8.7702970">
        <ele>32.8</ele>
        <time>2021-05-20T08:52:43Z</time>
      </trkpt>
      <trkpt lat="42.1944980" lon="-8.7702870">
        <ele>32.8</ele>
        <time>2021-05-20T08:52:44Z</time>
      </trkpt>
      <trkpt lat="42.1945030" lon="-8.7702770">
        <ele>32.8</ele>
        <time>2021-05-20T08:52:45Z</time>
      </trkpt>
      <trkpt lat="42.1945140" lon="-8.7702650">
        <ele>32.8</ele>
        <time>2021-05-20T08:52:46Z</time>
      </trkpt>
      <trkpt lat="42.1945260" lon="-8.7702550">
        <ele>32.8</ele>
        <time>2021-05-20T08:52:47Z</time>
      </trkpt>
      <trkpt lat="42.1945370" lon="-8.7702430">
        <ele>32.8</ele>
        <time>2021-05-20T08:52:48Z</time>
      </trkpt>
      <trkpt lat="42.1945500" lon="-8.7702290">
        <ele>32.8</ele>
        <time>2021-05-20T08:52:49Z</time>
      </trkpt>
      <trkpt lat="42.1945370" lon="-8.7702250">
        <ele>32.8</ele>
        <time>2021-05-20T08:52:50Z</time>
      </trkpt>
      <trkpt lat="42.1945390" lon="-8.7702200">
        <ele>32.8</ele>
        <time>2021-05-20T08:52:51Z</time>
      </trkpt>
      <trkpt lat="42.1945450" lon="-8.7702070">
        <ele>32.8</ele>
        <time>2021-05-20T08:52:52Z</time>
      </trkpt>
      <trkpt lat="42.1945470" lon="-8.7701920">
        <ele>32.8</ele>
        <time>2021-05-20T08:52:53Z</time>
      </trkpt>
      <trkpt lat="42.1945510" lon="-8.7701800">
        <ele>32.8</ele>
        <time>2021-05-20T08:52:54Z</time>
      </trkpt>
      <trkpt lat="42.1945550" lon="-8.7701590">
        <ele>32.8</ele>
        <time>2021-05-20T08:52:55Z</time>
      </trkpt>
      <trkpt lat="42.1945580" lon="-8.7701480">
        <ele>32.8</ele>
        <time>2021-05-20T08:52:56Z</time>
      </trkpt>
      <trkpt lat="42.1945680" lon="-8.7701330">
        <ele>32.8</ele>
        <time>2021-05-20T08:52:57Z</time>
      </trkpt>
      <trkpt lat="42.1945720" lon="-8.7701160">
        <ele>32.8</ele>
        <time>2021-05-20T08:52:58Z</time>
      </trkpt>
      <trkpt lat="42.1945700" lon="-8.7701030">
        <ele>32.8</ele>
        <time>2021-05-20T08:52:59Z</time>
      </trkpt>
      <trkpt lat="42.1945740" lon="-8.7700900">
        <ele>32.8</ele>
        <time>2021-05-20T08:53:00Z</time>
      </trkpt>
      <trkpt lat="42.1945780" lon="-8.7700770">
        <ele>32.8</ele>
        <time>2021-05-20T08:53:01Z</time>
      </trkpt>
      <trkpt lat="42.1945820" lon="-8.7700640">
        <ele>32.8</ele>
        <time>2021-05-20T08:53:02Z</time>
      </trkpt>
      <trkpt lat="42.1945910" lon="-8.7700380">
        <ele>32.8</ele>
        <time>2021-05-20T08:53:03Z</time>
      </trkpt>
      <trkpt lat="42.1945970" lon="-8.7700290">
        <ele>32.8</ele>
        <time>2021-05-20T08:53:04Z</time>
      </trkpt>
      <trkpt lat="42.1946030" lon="-8.7700200">
        <ele>32.8</ele>
        <time>2021-05-20T08:53:05Z</time>
      </trkpt>
      <trkpt lat="42.1946120" lon="-8.7700010">
        <ele>32.8</ele>
        <time>2021-05-20T08:53:06Z</time>
      </trkpt>
      <trkpt lat="42.1946200" lon="-8.7699840">
        <ele>32.9</ele>
        <time>2021-05-20T08:53:07Z</time>
      </trkpt>
      <trkpt lat="42.1946270" lon="-8.7699620">
        <ele>32.9</ele>
        <time>2021-05-20T08:53:08Z</time>
      </trkpt>
      <trkpt lat="42.1946340" lon="-8.7699470">
        <ele>32.9</ele>
        <time>2021-05-20T08:53:09Z</time>
      </trkpt>
      <trkpt lat="42.1946450" lon="-8.7699180">
        <ele>32.9</ele>
        <time>2021-05-20T08:53:10Z</time>
      </trkpt>
      <trkpt lat="42.1946490" lon="-8.7699090">
        <ele>32.9</ele>
        <time>2021-05-20T08:53:11Z</time>
      </trkpt>
      <trkpt lat="42.1946540" lon="-8.7699010">
        <ele>32.9</ele>
        <time>2021-05-20T08:53:12Z</time>
      </trkpt>
      <trkpt lat="42.1946670" lon="-8.7698770">
        <ele>32.9</ele>
        <time>2021-05-20T08:53:13Z</time>
      </trkpt>
      <trkpt lat="42.1946720" lon="-8.7698660">
        <ele>32.9</ele>
        <time>2021-05-20T08:53:14Z</time>
      </trkpt>
      <trkpt lat="42.1946760" lon="-8.7698560">
        <ele>32.9</ele>
        <time>2021-05-20T08:53:15Z</time>
      </trkpt>
      <trkpt lat="42.1946790" lon="-8.7698420">
        <ele>32.9</ele>
        <time>2021-05-20T08:53:16Z</time>
      </trkpt>
      <trkpt lat="42.1946760" lon="-8.7698270">
        <ele>33.0</ele>
        <time>2021-05-20T08:53:17Z</time>
      </trkpt>
      <trkpt lat="42.1946830" lon="-8.7698120">
        <ele>33.0</ele>
        <time>2021-05-20T08:53:18Z</time>
      </trkpt>
      <trkpt lat="42.1946850" lon="-8.7697870">
        <ele>33.0</ele>
        <time>2021-05-20T08:53:19Z</time>
      </trkpt>
      <trkpt lat="42.1946880" lon="-8.7697750">
        <ele>33.0</ele>
        <time>2021-05-20T08:53:20Z</time>
      </trkpt>
      <trkpt lat="42.1946910" lon="-8.7697630">
        <ele>33.0</ele>
        <time>2021-05-20T08:53:21Z</time>
      </trkpt>
      <trkpt lat="42.1946890" lon="-8.7697490">
        <ele>33.0</ele>
        <time>2021-05-20T08:53:22Z</time>
      </trkpt>
      <trkpt lat="42.1946860" lon="-8.7697410">
        <ele>33.0</ele>
        <time>2021-05-20T08:53:23Z</time>
      </trkpt>
      <trkpt lat="42.1946810" lon="-8.7697280">
        <ele>33.0</ele>
        <time>2021-05-20T08:53:24Z</time>
      </trkpt>
      <trkpt lat="42.1946780" lon="-8.7697280">
        <ele>33.0</ele>
        <time>2021-05-20T08:53:25Z</time>
      </trkpt>
      <trkpt lat="42.1946750" lon="-8.7697090">
        <ele>33.0</ele>
        <time>2021-05-20T08:53:26Z</time>
      </trkpt>
      <trkpt lat="42.1946680" lon="-8.7696910">
        <ele>33.0</ele>
        <time>2021-05-20T08:53:27Z</time>
      </trkpt>
      <trkpt lat="42.1946660" lon="-8.7696670">
        <ele>33.0</ele>
        <time>2021-05-20T08:53:29Z</time>
      </trkpt>
      <trkpt lat="42.1946730" lon="-8.7696380">
        <ele>33.1</ele>
        <time>2021-05-20T08:53:31Z</time>
      </trkpt>
      <trkpt lat="42.1946860" lon="-8.7696200">
        <ele>33.1</ele>
        <time>2021-05-20T08:53:32Z</time>
      </trkpt>
      <trkpt lat="42.1946900" lon="-8.7696010">
        <ele>33.1</ele>
        <time>2021-05-20T08:53:33Z</time>
      </trkpt>
      <trkpt lat="42.1946950" lon="-8.7695850">
        <ele>33.1</ele>
        <time>2021-05-20T08:53:34Z</time>
      </trkpt>
      <trkpt lat="42.1947050" lon="-8.7695630">
        <ele>33.1</ele>
        <time>2021-05-20T08:53:35Z</time>
      </trkpt>
      <trkpt lat="42.1947120" lon="-8.7695420">
        <ele>33.1</ele>
        <time>2021-05-20T08:53:36Z</time>
      </trkpt>
      <trkpt lat="42.1947140" lon="-8.7695280">
        <ele>33.1</ele>
        <time>2021-05-20T08:53:37Z</time>
      </trkpt>
      <trkpt lat="42.1947170" lon="-8.7695150">
        <ele>33.2</ele>
        <time>2021-05-20T08:53:38Z</time>
      </trkpt>
      <trkpt lat="42.1947280" lon="-8.7694990">
        <ele>33.2</ele>
        <time>2021-05-20T08:53:39Z</time>
      </trkpt>
      <trkpt lat="42.1947340" lon="-8.7694860">
        <ele>33.2</ele>
        <time>2021-05-20T08:53:40Z</time>
      </trkpt>
      <trkpt lat="42.1947440" lon="-8.7694600">
        <ele>33.2</ele>
        <time>2021-05-20T08:53:41Z</time>
      </trkpt>
      <trkpt lat="42.1947480" lon="-8.7694510">
        <ele>33.2</ele>
        <time>2021-05-20T08:53:42Z</time>
      </trkpt>
      <trkpt lat="42.1947510" lon="-8.7694410">
        <ele>33.2</ele>
        <time>2021-05-20T08:53:43Z</time>
      </trkpt>
      <trkpt lat="42.1947480" lon="-8.7694280">
        <ele>33.2</ele>
        <time>2021-05-20T08:53:44Z</time>
      </trkpt>
      <trkpt lat="42.1947510" lon="-8.7694110">
        <ele>33.2</ele>
        <time>2021-05-20T08:53:45Z</time>
      </trkpt>
      <trkpt lat="42.1947590" lon="-8.7693990">
        <ele>33.2</ele>
        <time>2021-05-20T08:53:46Z</time>
      </trkpt>
      <trkpt lat="42.1947600" lon="-8.7693730">
        <ele>33.3</ele>
        <time>2021-05-20T08:53:47Z</time>
      </trkpt>
      <trkpt lat="42.1947630" lon="-8.7693570">
        <ele>33.3</ele>
        <time>2021-05-20T08:53:48Z</time>
      </trkpt>
      <trkpt lat="42.1947750" lon="-8.7693300">
        <ele>33.3</ele>
        <time>2021-05-20T08:53:49Z</time>
      </trkpt>
      <trkpt lat="42.1947780" lon="-8.7693180">
        <ele>33.3</ele>
        <time>2021-05-20T08:53:50Z</time>
      </trkpt>
      <trkpt lat="42.1947820" lon="-8.7693060">
        <ele>33.3</ele>
        <time>2021-05-20T08:53:51Z</time>
      </trkpt>
      <trkpt lat="42.1947910" lon="-8.7692860">
        <ele>33.3</ele>
        <time>2021-05-20T08:53:52Z</time>
      </trkpt>
      <trkpt lat="42.1947960" lon="-8.7692660">
        <ele>33.3</ele>
        <time>2021-05-20T08:53:53Z</time>
      </trkpt>
      <trkpt lat="42.1948020" lon="-8.7692370">
        <ele>33.4</ele>
        <time>2021-05-20T08:53:54Z</time>
      </trkpt>
      <trkpt lat="42.1948050" lon="-8.7692250">
        <ele>33.4</ele>
        <time>2021-05-20T08:53:55Z</time>
      </trkpt>
      <trkpt lat="42.1948090" lon="-8.7692130">
        <ele>33.4</ele>
        <time>2021-05-20T08:53:56Z</time>
      </trkpt>
      <trkpt lat="42.1948220" lon="-8.7691890">
        <ele>33.4</ele>
        <time>2021-05-20T08:53:57Z</time>
      </trkpt>
      <trkpt lat="42.1948270" lon="-8.7691810">
        <ele>33.4</ele>
        <time>2021-05-20T08:53:58Z</time>
      </trkpt>
      <trkpt lat="42.1948320" lon="-8.7691720">
        <ele>33.5</ele>
        <time>2021-05-20T08:53:59Z</time>
      </trkpt>
      <trkpt lat="42.1948440" lon="-8.7691530">
        <ele>33.5</ele>
        <time>2021-05-20T08:54:00Z</time>
      </trkpt>
      <trkpt lat="42.1948520" lon="-8.7691340">
        <ele>33.5</ele>
        <time>2021-05-20T08:54:01Z</time>
      </trkpt>
      <trkpt lat="42.1948620" lon="-8.7691090">
        <ele>33.6</ele>
        <time>2021-05-20T08:54:02Z</time>
      </trkpt>
      <trkpt lat="42.1948660" lon="-8.7690990">
        <ele>33.6</ele>
        <time>2021-05-20T08:54:03Z</time>
      </trkpt>
      <trkpt lat="42.1948700" lon="-8.7690890">
        <ele>33.6</ele>
        <time>2021-05-20T08:54:04Z</time>
      </trkpt>
      <trkpt lat="42.1948690" lon="-8.7690480">
        <ele>33.7</ele>
        <time>2021-05-20T08:54:05Z</time>
      </trkpt>
      <trkpt lat="42.1948670" lon="-8.7690400">
        <ele>33.7</ele>
        <time>2021-05-20T08:54:06Z</time>
      </trkpt>
      <trkpt lat="42.1948710" lon="-8.7690240">
        <ele>33.7</ele>
        <time>2021-05-20T08:54:07Z</time>
      </trkpt>
      <trkpt lat="42.1948800" lon="-8.7690140">
        <ele>33.7</ele>
        <time>2021-05-20T08:54:08Z</time>
      </trkpt>
      <trkpt lat="42.1948790" lon="-8.7690060">
        <ele>33.7</ele>
        <time>2021-05-20T08:54:09Z</time>
      </trkpt>
      <trkpt lat="42.1948800" lon="-8.7689800">
        <ele>33.8</ele>
        <time>2021-05-20T08:54:10Z</time>
      </trkpt>
      <trkpt lat="42.1948820" lon="-8.7689650">
        <ele>33.8</ele>
        <time>2021-05-20T08:54:11Z</time>
      </trkpt>
      <trkpt lat="42.1948910" lon="-8.7689430">
        <ele>33.9</ele>
        <time>2021-05-20T08:54:12Z</time>
      </trkpt>
      <trkpt lat="42.1948970" lon="-8.7689310">
        <ele>33.9</ele>
        <time>2021-05-20T08:54:13Z</time>
      </trkpt>
      <trkpt lat="42.1949040" lon="-8.7689190">
        <ele>33.9</ele>
        <time>2021-05-20T08:54:14Z</time>
      </trkpt>
      <trkpt lat="42.1949060" lon="-8.7689050">
        <ele>34.0</ele>
        <time>2021-05-20T08:54:15Z</time>
      </trkpt>
      <trkpt lat="42.1949110" lon="-8.7688900">
        <ele>34.0</ele>
        <time>2021-05-20T08:54:16Z</time>
      </trkpt>
      <trkpt lat="42.1949100" lon="-8.7688740">
        <ele>34.0</ele>
        <time>2021-05-20T08:54:17Z</time>
      </trkpt>
      <trkpt lat="42.1949130" lon="-8.7688450">
        <ele>34.1</ele>
        <time>2021-05-20T08:54:18Z</time>
      </trkpt>
      <trkpt lat="42.1949140" lon="-8.7688340">
        <ele>34.1</ele>
        <time>2021-05-20T08:54:19Z</time>
      </trkpt>
      <trkpt lat="42.1949150" lon="-8.7688240">
        <ele>34.1</ele>
        <time>2021-05-20T08:54:20Z</time>
      </trkpt>
      <trkpt lat="42.1949180" lon="-8.7688090">
        <ele>34.2</ele>
        <time>2021-05-20T08:54:21Z</time>
      </trkpt>
      <trkpt lat="42.1949270" lon="-8.7687910">
        <ele>34.2</ele>
        <time>2021-05-20T08:54:22Z</time>
      </trkpt>
      <trkpt lat="42.1949300" lon="-8.7687830">
        <ele>34.2</ele>
        <time>2021-05-20T08:54:23Z</time>
      </trkpt>
      <trkpt lat="42.1949290" lon="-8.7687690">
        <ele>34.2</ele>
        <time>2021-05-20T08:54:24Z</time>
      </trkpt>
      <trkpt lat="42.1949310" lon="-8.7687480">
        <ele>34.3</ele>
        <time>2021-05-20T08:54:25Z</time>
      </trkpt>
      <trkpt lat="42.1949330" lon="-8.7687230">
        <ele>34.3</ele>
        <time>2021-05-20T08:54:26Z</time>
      </trkpt>
      <trkpt lat="42.1949340" lon="-8.7687050">
        <ele>34.4</ele>
        <time>2021-05-20T08:54:27Z</time>
      </trkpt>
      <trkpt lat="42.1949400" lon="-8.7686880">
        <ele>34.4</ele>
        <time>2021-05-20T08:54:28Z</time>
      </trkpt>
      <trkpt lat="42.1949380" lon="-8.7686730">
        <ele>34.4</ele>
        <time>2021-05-20T08:54:29Z</time>
      </trkpt>
      <trkpt lat="42.1949370" lon="-8.7686580">
        <ele>34.4</ele>
        <time>2021-05-20T08:54:30Z</time>
      </trkpt>
      <trkpt lat="42.1949440" lon="-8.7686250">
        <ele>34.5</ele>
        <time>2021-05-20T08:54:31Z</time>
      </trkpt>
      <trkpt lat="42.1949450" lon="-8.7686140">
        <ele>34.5</ele>
        <time>2021-05-20T08:54:32Z</time>
      </trkpt>
      <trkpt lat="42.1949470" lon="-8.7686040">
        <ele>34.5</ele>
        <time>2021-05-20T08:54:33Z</time>
      </trkpt>
      <trkpt lat="42.1949470" lon="-8.7685840">
        <ele>34.5</ele>
        <time>2021-05-20T08:54:34Z</time>
      </trkpt>
      <trkpt lat="42.1949500" lon="-8.7685670">
        <ele>34.6</ele>
        <time>2021-05-20T08:54:35Z</time>
      </trkpt>
      <trkpt lat="42.1949540" lon="-8.7685490">
        <ele>34.6</ele>
        <time>2021-05-20T08:54:36Z</time>
      </trkpt>
      <trkpt lat="42.1949510" lon="-8.7685370">
        <ele>34.6</ele>
        <time>2021-05-20T08:54:37Z</time>
      </trkpt>
      <trkpt lat="42.1949550" lon="-8.7685240">
        <ele>34.6</ele>
        <time>2021-05-20T08:54:38Z</time>
      </trkpt>
      <trkpt lat="42.1949580" lon="-8.7685060">
        <ele>34.7</ele>
        <time>2021-05-20T08:54:39Z</time>
      </trkpt>
      <trkpt lat="42.1949640" lon="-8.7684920">
        <ele>34.7</ele>
        <time>2021-05-20T08:54:40Z</time>
      </trkpt>
      <trkpt lat="42.1949590" lon="-8.7684820">
        <ele>34.7</ele>
        <time>2021-05-20T08:54:41Z</time>
      </trkpt>
      <trkpt lat="42.1949670" lon="-8.7684510">
        <ele>34.8</ele>
        <time>2021-05-20T08:54:42Z</time>
      </trkpt>
      <trkpt lat="42.1949700" lon="-8.7684400">
        <ele>34.8</ele>
        <time>2021-05-20T08:54:43Z</time>
      </trkpt>
      <trkpt lat="42.1949740" lon="-8.7684290">
        <ele>34.8</ele>
        <time>2021-05-20T08:54:44Z</time>
      </trkpt>
      <trkpt lat="42.1949780" lon="-8.7684010">
        <ele>34.9</ele>
        <time>2021-05-20T08:54:45Z</time>
      </trkpt>
      <trkpt lat="42.1949850" lon="-8.7683900">
        <ele>34.9</ele>
        <time>2021-05-20T08:54:46Z</time>
      </trkpt>
      <trkpt lat="42.1949910" lon="-8.7683790">
        <ele>34.9</ele>
        <time>2021-05-20T08:54:47Z</time>
      </trkpt>
      <trkpt lat="42.1949980" lon="-8.7683600">
        <ele>34.9</ele>
        <time>2021-05-20T08:54:48Z</time>
      </trkpt>
      <trkpt lat="42.1950080" lon="-8.7683460">
        <ele>34.9</ele>
        <time>2021-05-20T08:54:49Z</time>
      </trkpt>
      <trkpt lat="42.1950180" lon="-8.7683340">
        <ele>35.0</ele>
        <time>2021-05-20T08:54:50Z</time>
      </trkpt>
      <trkpt lat="42.1950260" lon="-8.7683230">
        <ele>35.0</ele>
        <time>2021-05-20T08:54:51Z</time>
      </trkpt>
      <trkpt lat="42.1950260" lon="-8.7683060">
        <ele>35.0</ele>
        <time>2021-05-20T08:54:52Z</time>
      </trkpt>
      <trkpt lat="42.1950290" lon="-8.7682770">
        <ele>35.0</ele>
        <time>2021-05-20T08:54:53Z</time>
      </trkpt>
      <trkpt lat="42.1950270" lon="-8.7682640">
        <ele>35.0</ele>
        <time>2021-05-20T08:54:54Z</time>
      </trkpt>
      <trkpt lat="42.1950260" lon="-8.7682510">
        <ele>35.0</ele>
        <time>2021-05-20T08:54:55Z</time>
      </trkpt>
      <trkpt lat="42.1950330" lon="-8.7682250">
        <ele>35.1</ele>
        <time>2021-05-20T08:54:56Z</time>
      </trkpt>
      <trkpt lat="42.1950360" lon="-8.7682120">
        <ele>35.1</ele>
        <time>2021-05-20T08:54:57Z</time>
      </trkpt>
      <trkpt lat="42.1950400" lon="-8.7682000">
        <ele>35.1</ele>
        <time>2021-05-20T08:54:58Z</time>
      </trkpt>
      <trkpt lat="42.1950460" lon="-8.7681640">
        <ele>35.1</ele>
        <time>2021-05-20T08:54:59Z</time>
      </trkpt>
      <trkpt lat="42.1950500" lon="-8.7681550">
        <ele>35.1</ele>
        <time>2021-05-20T08:55:00Z</time>
      </trkpt>
      <trkpt lat="42.1950550" lon="-8.7681450">
        <ele>35.1</ele>
        <time>2021-05-20T08:55:01Z</time>
      </trkpt>
      <trkpt lat="42.1950670" lon="-8.7681180">
        <ele>35.1</ele>
        <time>2021-05-20T08:55:02Z</time>
      </trkpt>
      <trkpt lat="42.1950720" lon="-8.7681080">
        <ele>35.1</ele>
        <time>2021-05-20T08:55:03Z</time>
      </trkpt>
      <trkpt lat="42.1950780" lon="-8.7680980">
        <ele>35.1</ele>
        <time>2021-05-20T08:55:04Z</time>
      </trkpt>
      <trkpt lat="42.1950870" lon="-8.7680780">
        <ele>35.1</ele>
        <time>2021-05-20T08:55:05Z</time>
      </trkpt>
      <trkpt lat="42.1950990" lon="-8.7680580">
        <ele>35.1</ele>
        <time>2021-05-20T08:55:06Z</time>
      </trkpt>
      <trkpt lat="42.1951140" lon="-8.7680290">
        <ele>35.1</ele>
        <time>2021-05-20T08:55:07Z</time>
      </trkpt>
      <trkpt lat="42.1951200" lon="-8.7680180">
        <ele>35.1</ele>
        <time>2021-05-20T08:55:08Z</time>
      </trkpt>
      <trkpt lat="42.1951320" lon="-8.7680070">
        <ele>35.1</ele>
        <time>2021-05-20T08:55:09Z</time>
      </trkpt>
      <trkpt lat="42.1951430" lon="-8.7679880">
        <ele>35.1</ele>
        <time>2021-05-20T08:55:10Z</time>
      </trkpt>
      <trkpt lat="42.1951490" lon="-8.7679760">
        <ele>35.1</ele>
        <time>2021-05-20T08:55:11Z</time>
      </trkpt>
      <trkpt lat="42.1951560" lon="-8.7679600">
        <ele>35.1</ele>
        <time>2021-05-20T08:55:12Z</time>
      </trkpt>
      <trkpt lat="42.1951560" lon="-8.7679490">
        <ele>35.1</ele>
        <time>2021-05-20T08:55:13Z</time>
      </trkpt>
      <trkpt lat="42.1951570" lon="-8.7679420">
        <ele>35.1</ele>
        <time>2021-05-20T08:55:14Z</time>
      </trkpt>
      <trkpt lat="42.1951630" lon="-8.7679230">
        <ele>35.0</ele>
        <time>2021-05-20T08:55:15Z</time>
      </trkpt>
      <trkpt lat="42.1951650" lon="-8.7679090">
        <ele>35.0</ele>
        <time>2021-05-20T08:55:16Z</time>
      </trkpt>
      <trkpt lat="42.1951720" lon="-8.7678980">
        <ele>35.0</ele>
        <time>2021-05-20T08:55:17Z</time>
      </trkpt>
      <trkpt lat="42.1951750" lon="-8.7678880">
        <ele>35.0</ele>
        <time>2021-05-20T08:55:18Z</time>
      </trkpt>
      <trkpt lat="42.1951830" lon="-8.7678710">
        <ele>35.0</ele>
        <time>2021-05-20T08:55:19Z</time>
      </trkpt>
      <trkpt lat="42.1951870" lon="-8.7678560">
        <ele>35.0</ele>
        <time>2021-05-20T08:55:21Z</time>
      </trkpt>
      <trkpt lat="42.1951960" lon="-8.7678510">
        <ele>35.0</ele>
        <time>2021-05-20T08:55:22Z</time>
      </trkpt>
      <trkpt lat="42.1952020" lon="-8.7678330">
        <ele>35.0</ele>
        <time>2021-05-20T08:55:23Z</time>
      </trkpt>
      <trkpt lat="42.1952070" lon="-8.7678220">
        <ele>35.0</ele>
        <time>2021-05-20T08:55:24Z</time>
      </trkpt>
      <trkpt lat="42.1952120" lon="-8.7678110">
        <ele>35.0</ele>
        <time>2021-05-20T08:55:25Z</time>
      </trkpt>
      <trkpt lat="42.1952140" lon="-8.7677900">
        <ele>35.0</ele>
        <time>2021-05-20T08:55:26Z</time>
      </trkpt>
      <trkpt lat="42.1952250" lon="-8.7677730">
        <ele>35.0</ele>
        <time>2021-05-20T08:55:27Z</time>
      </trkpt>
      <trkpt lat="42.1952250" lon="-8.7677580">
        <ele>35.0</ele>
        <time>2021-05-20T08:55:28Z</time>
      </trkpt>
      <trkpt lat="42.1952230" lon="-8.7677430">
        <ele>35.0</ele>
        <time>2021-05-20T08:55:29Z</time>
      </trkpt>
      <trkpt lat="42.1952180" lon="-8.7677280">
        <ele>34.9</ele>
        <time>2021-05-20T08:55:30Z</time>
      </trkpt>
      <trkpt lat="42.1952310" lon="-8.7677200">
        <ele>34.9</ele>
        <time>2021-05-20T08:55:31Z</time>
      </trkpt>
      <trkpt lat="42.1952420" lon="-8.7677130">
        <ele>34.9</ele>
        <time>2021-05-20T08:55:32Z</time>
      </trkpt>
      <trkpt lat="42.1952570" lon="-8.7677030">
        <ele>34.9</ele>
        <time>2021-05-20T08:55:33Z</time>
      </trkpt>
      <trkpt lat="42.1952650" lon="-8.7676950">
        <ele>34.9</ele>
        <time>2021-05-20T08:55:34Z</time>
      </trkpt>
      <trkpt lat="42.1952720" lon="-8.7676920">
        <ele>34.9</ele>
        <time>2021-05-20T08:55:35Z</time>
      </trkpt>
      <trkpt lat="42.1952670" lon="-8.7676890">
        <ele>34.9</ele>
        <time>2021-05-20T08:55:36Z</time>
      </trkpt>
      <trkpt lat="42.1952570" lon="-8.7676720">
        <ele>34.8</ele>
        <time>2021-05-20T08:55:37Z</time>
      </trkpt>
      <trkpt lat="42.1952510" lon="-8.7676670">
        <ele>34.8</ele>
        <time>2021-05-20T08:55:38Z</time>
      </trkpt>
      <trkpt lat="42.1952480" lon="-8.7676630">
        <ele>34.8</ele>
        <time>2021-05-20T08:55:39Z</time>
      </trkpt>
      <trkpt lat="42.1952530" lon="-8.7676620">
        <ele>34.8</ele>
        <time>2021-05-20T08:55:40Z</time>
      </trkpt>
      <trkpt lat="42.1952580" lon="-8.7676610">
        <ele>34.8</ele>
        <time>2021-05-20T08:55:41Z</time>
      </trkpt>
      <trkpt lat="42.1952630" lon="-8.7676600">
        <ele>34.8</ele>
        <time>2021-05-20T08:55:42Z</time>
      </trkpt>
      <trkpt lat="42.1952690" lon="-8.7676590">
        <ele>34.8</ele>
        <time>2021-05-20T08:55:43Z</time>
      </trkpt>
      <trkpt lat="42.1952740" lon="-8.7676580">
        <ele>34.8</ele>
        <time>2021-05-20T08:55:44Z</time>
      </trkpt>
      <trkpt lat="42.1952790" lon="-8.7676570">
        <ele>34.8</ele>
        <time>2021-05-20T08:55:45Z</time>
      </trkpt>
      <trkpt lat="42.1952840" lon="-8.7676560">
        <ele>34.8</ele>
        <time>2021-05-20T08:55:46Z</time>
      </trkpt>
      <trkpt lat="42.1952890" lon="-8.7676550">
        <ele>34.8</ele>
        <time>2021-05-20T08:55:47Z</time>
      </trkpt>
      <trkpt lat="42.1952940" lon="-8.7676540">
        <ele>34.8</ele>
        <time>2021-05-20T08:55:48Z</time>
      </trkpt>
      <trkpt lat="42.1953080" lon="-8.7676440">
        <ele>34.7</ele>
        <time>2021-05-20T08:55:49Z</time>
      </trkpt>
      <trkpt lat="42.1953190" lon="-8.7676280">
        <ele>34.7</ele>
        <time>2021-05-20T08:55:50Z</time>
      </trkpt>
      <trkpt lat="42.1953300" lon="-8.7676140">
        <ele>34.7</ele>
        <time>2021-05-20T08:55:51Z</time>
      </trkpt>
      <trkpt lat="42.1953370" lon="-8.7675990">
        <ele>34.7</ele>
        <time>2021-05-20T08:55:52Z</time>
      </trkpt>
      <trkpt lat="42.1953560" lon="-8.7675700">
        <ele>34.6</ele>
        <time>2021-05-20T08:55:53Z</time>
      </trkpt>
      <trkpt lat="42.1953620" lon="-8.7675540">
        <ele>34.6</ele>
        <time>2021-05-20T08:55:54Z</time>
      </trkpt>
      <trkpt lat="42.1953800" lon="-8.7675250">
        <ele>34.5</ele>
        <time>2021-05-20T08:55:55Z</time>
      </trkpt>
      <trkpt lat="42.1953870" lon="-8.7675170">
        <ele>34.5</ele>
        <time>2021-05-20T08:55:56Z</time>
      </trkpt>
      <trkpt lat="42.1954000" lon="-8.7674920">
        <ele>34.5</ele>
        <time>2021-05-20T08:55:57Z</time>
      </trkpt>
      <trkpt lat="42.1954040" lon="-8.7674830">
        <ele>34.5</ele>
        <time>2021-05-20T08:55:58Z</time>
      </trkpt>
      <trkpt lat="42.1954070" lon="-8.7674740">
        <ele>34.5</ele>
        <time>2021-05-20T08:55:59Z</time>
      </trkpt>
      <trkpt lat="42.1954150" lon="-8.7674600">
        <ele>34.4</ele>
        <time>2021-05-20T08:56:00Z</time>
      </trkpt>
      <trkpt lat="42.1954240" lon="-8.7674400">
        <ele>34.4</ele>
        <time>2021-05-20T08:56:01Z</time>
      </trkpt>
      <trkpt lat="42.1954400" lon="-8.7674170">
        <ele>34.3</ele>
        <time>2021-05-20T08:56:02Z</time>
      </trkpt>
      <trkpt lat="42.1954450" lon="-8.7674050">
        <ele>34.3</ele>
        <time>2021-05-20T08:56:03Z</time>
      </trkpt>
      <trkpt lat="42.1954500" lon="-8.7673940">
        <ele>34.3</ele>
        <time>2021-05-20T08:56:04Z</time>
      </trkpt>
      <trkpt lat="42.1954580" lon="-8.7673770">
        <ele>34.3</ele>
        <time>2021-05-20T08:56:05Z</time>
      </trkpt>
      <trkpt lat="42.1954740" lon="-8.7673560">
        <ele>34.2</ele>
        <time>2021-05-20T08:56:06Z</time>
      </trkpt>
      <trkpt lat="42.1954940" lon="-8.7673490">
        <ele>34.2</ele>
        <time>2021-05-20T08:56:07Z</time>
      </trkpt>
      <trkpt lat="42.1954960" lon="-8.7673330">
        <ele>34.1</ele>
        <time>2021-05-20T08:56:08Z</time>
      </trkpt>
      <trkpt lat="42.1955040" lon="-8.7673000">
        <ele>34.1</ele>
        <time>2021-05-20T08:56:09Z</time>
      </trkpt>
      <trkpt lat="42.1955040" lon="-8.7672830">
        <ele>34.0</ele>
        <time>2021-05-20T08:56:10Z</time>
      </trkpt>
      <trkpt lat="42.1955040" lon="-8.7672660">
        <ele>34.0</ele>
        <time>2021-05-20T08:56:11Z</time>
      </trkpt>
      <trkpt lat="42.1955050" lon="-8.7672440">
        <ele>34.0</ele>
        <time>2021-05-20T08:56:12Z</time>
      </trkpt>
      <trkpt lat="42.1955130" lon="-8.7672320">
        <ele>33.9</ele>
        <time>2021-05-20T08:56:13Z</time>
      </trkpt>
      <trkpt lat="42.1955240" lon="-8.7672110">
        <ele>33.9</ele>
        <time>2021-05-20T08:56:14Z</time>
      </trkpt>
      <trkpt lat="42.1955350" lon="-8.7671960">
        <ele>33.9</ele>
        <time>2021-05-20T08:56:15Z</time>
      </trkpt>
      <trkpt lat="42.1955380" lon="-8.7671780">
        <ele>33.8</ele>
        <time>2021-05-20T08:56:16Z</time>
      </trkpt>
      <trkpt lat="42.1955470" lon="-8.7671700">
        <ele>33.8</ele>
        <time>2021-05-20T08:56:17Z</time>
      </trkpt>
      <trkpt lat="42.1955530" lon="-8.7671570">
        <ele>33.8</ele>
        <time>2021-05-20T08:56:18Z</time>
      </trkpt>
      <trkpt lat="42.1955590" lon="-8.7671430">
        <ele>33.7</ele>
        <time>2021-05-20T08:56:19Z</time>
      </trkpt>
      <trkpt lat="42.1955670" lon="-8.7671330">
        <ele>33.7</ele>
        <time>2021-05-20T08:56:20Z</time>
      </trkpt>
      <trkpt lat="42.1955690" lon="-8.7671160">
        <ele>33.7</ele>
        <time>2021-05-20T08:56:21Z</time>
      </trkpt>
      <trkpt lat="42.1955680" lon="-8.7671100">
        <ele>33.6</ele>
        <time>2021-05-20T08:56:22Z</time>
      </trkpt>
      <trkpt lat="42.1955740" lon="-8.7670970">
        <ele>33.6</ele>
        <time>2021-05-20T08:56:23Z</time>
      </trkpt>
      <trkpt lat="42.1955830" lon="-8.7670830">
        <ele>33.6</ele>
        <time>2021-05-20T08:56:24Z</time>
      </trkpt>
      <trkpt lat="42.1955970" lon="-8.7670650">
        <ele>33.5</ele>
        <time>2021-05-20T08:56:25Z</time>
      </trkpt>
      <trkpt lat="42.1956050" lon="-8.7670600">
        <ele>33.5</ele>
        <time>2021-05-20T08:56:26Z</time>
      </trkpt>
      <trkpt lat="42.1956130" lon="-8.7670540">
        <ele>33.4</ele>
        <time>2021-05-20T08:56:27Z</time>
      </trkpt>
      <trkpt lat="42.1956250" lon="-8.7670300">
        <ele>33.4</ele>
        <time>2021-05-20T08:56:28Z</time>
      </trkpt>
      <trkpt lat="42.1956310" lon="-8.7670190">
        <ele>33.3</ele>
        <time>2021-05-20T08:56:29Z</time>
      </trkpt>
      <trkpt lat="42.1956360" lon="-8.7670080">
        <ele>33.3</ele>
        <time>2021-05-20T08:56:30Z</time>
      </trkpt>
      <trkpt lat="42.1956500" lon="-8.7669830">
        <ele>33.2</ele>
        <time>2021-05-20T08:56:31Z</time>
      </trkpt>
      <trkpt lat="42.1956550" lon="-8.7669750">
        <ele>33.2</ele>
        <time>2021-05-20T08:56:32Z</time>
      </trkpt>
      <trkpt lat="42.1956590" lon="-8.7669680">
        <ele>33.2</ele>
        <time>2021-05-20T08:56:33Z</time>
      </trkpt>
      <trkpt lat="42.1956620" lon="-8.7669570">
        <ele>33.2</ele>
        <time>2021-05-20T08:56:34Z</time>
      </trkpt>
      <trkpt lat="42.1956590" lon="-8.7669500">
        <ele>33.1</ele>
        <time>2021-05-20T08:56:35Z</time>
      </trkpt>
      <trkpt lat="42.1956660" lon="-8.7669380">
        <ele>33.1</ele>
        <time>2021-05-20T08:56:36Z</time>
      </trkpt>
      <trkpt lat="42.1956730" lon="-8.7669300">
        <ele>33.0</ele>
        <time>2021-05-20T08:56:37Z</time>
      </trkpt>
      <trkpt lat="42.1956840" lon="-8.7669190">
        <ele>33.0</ele>
        <time>2021-05-20T08:56:38Z</time>
      </trkpt>
      <trkpt lat="42.1956930" lon="-8.7669190">
        <ele>32.9</ele>
        <time>2021-05-20T08:56:39Z</time>
      </trkpt>
      <trkpt lat="42.1957020" lon="-8.7669090">
        <ele>32.9</ele>
        <time>2021-05-20T08:56:40Z</time>
      </trkpt>
      <trkpt lat="42.1957030" lon="-8.7669000">
        <ele>32.8</ele>
        <time>2021-05-20T08:56:41Z</time>
      </trkpt>
      <trkpt lat="42.1957060" lon="-8.7668910">
        <ele>32.8</ele>
        <time>2021-05-20T08:56:42Z</time>
      </trkpt>
      <trkpt lat="42.1957100" lon="-8.7668890">
        <ele>32.8</ele>
        <time>2021-05-20T08:56:43Z</time>
      </trkpt>
      <trkpt lat="42.1957170" lon="-8.7668880">
        <ele>32.7</ele>
        <time>2021-05-20T08:56:44Z</time>
      </trkpt>
      <trkpt lat="42.1957310" lon="-8.7668860">
        <ele>32.7</ele>
        <time>2021-05-20T08:56:45Z</time>
      </trkpt>
      <trkpt lat="42.1957460" lon="-8.7668820">
        <ele>32.6</ele>
        <time>2021-05-20T08:56:46Z</time>
      </trkpt>
      <trkpt lat="42.1957480" lon="-8.7668780">
        <ele>32.6</ele>
        <time>2021-05-20T08:56:47Z</time>
      </trkpt>
      <trkpt lat="42.1957500" lon="-8.7668740">
        <ele>32.6</ele>
        <time>2021-05-20T08:56:48Z</time>
      </trkpt>
      <trkpt lat="42.1957520" lon="-8.7668700">
        <ele>32.5</ele>
        <time>2021-05-20T08:56:49Z</time>
      </trkpt>
      <trkpt lat="42.1957540" lon="-8.7668660">
        <ele>32.5</ele>
        <time>2021-05-20T08:56:50Z</time>
      </trkpt>
      <trkpt lat="42.1957560" lon="-8.7668620">
        <ele>32.5</ele>
        <time>2021-05-20T08:56:51Z</time>
      </trkpt>
      <trkpt lat="42.1957580" lon="-8.7668580">
        <ele>32.5</ele>
        <time>2021-05-20T08:56:52Z</time>
      </trkpt>
      <trkpt lat="42.1957600" lon="-8.7668540">
        <ele>32.5</ele>
        <time>2021-05-20T08:56:53Z</time>
      </trkpt>
      <trkpt lat="42.1957620" lon="-8.7668500">
        <ele>32.4</ele>
        <time>2021-05-20T08:56:54Z</time>
      </trkpt>
      <trkpt lat="42.1957640" lon="-8.7668460">
        <ele>32.4</ele>
        <time>2021-05-20T08:56:55Z</time>
      </trkpt>
      <trkpt lat="42.1957660" lon="-8.7668420">
        <ele>32.4</ele>
        <time>2021-05-20T08:56:56Z</time>
      </trkpt>
      <trkpt lat="42.1957680" lon="-8.7668380">
        <ele>32.4</ele>
        <time>2021-05-20T08:56:57Z</time>
      </trkpt>
      <trkpt lat="42.1957840" lon="-8.7668220">
        <ele>32.3</ele>
        <time>2021-05-20T08:56:58Z</time>
      </trkpt>
      <trkpt lat="42.1957930" lon="-8.7668120">
        <ele>32.2</ele>
        <time>2021-05-20T08:56:59Z</time>
      </trkpt>
      <trkpt lat="42.1957920" lon="-8.7668000">
        <ele>32.2</ele>
        <time>2021-05-20T08:57:00Z</time>
      </trkpt>
      <trkpt lat="42.1957980" lon="-8.7667810">
        <ele>32.1</ele>
        <time>2021-05-20T08:57:01Z</time>
      </trkpt>
      <trkpt lat="42.1958020" lon="-8.7667700">
        <ele>32.1</ele>
        <time>2021-05-20T08:57:02Z</time>
      </trkpt>
      <trkpt lat="42.1958050" lon="-8.7667540">
        <ele>32.0</ele>
        <time>2021-05-20T08:57:03Z</time>
      </trkpt>
      <trkpt lat="42.1958130" lon="-8.7667490">
        <ele>31.9</ele>
        <time>2021-05-20T08:57:04Z</time>
      </trkpt>
      <trkpt lat="42.1958130" lon="-8.7667420">
        <ele>31.9</ele>
        <time>2021-05-20T08:57:05Z</time>
      </trkpt>
      <trkpt lat="42.1958210" lon="-8.7667320">
        <ele>31.9</ele>
        <time>2021-05-20T08:57:06Z</time>
      </trkpt>
      <trkpt lat="42.1958290" lon="-8.7667160">
        <ele>31.8</ele>
        <time>2021-05-20T08:57:07Z</time>
      </trkpt>
      <trkpt lat="42.1958330" lon="-8.7667100">
        <ele>31.7</ele>
        <time>2021-05-20T08:57:08Z</time>
      </trkpt>
      <trkpt lat="42.1958360" lon="-8.7667120">
        <ele>31.7</ele>
        <time>2021-05-20T08:57:09Z</time>
      </trkpt>
      <trkpt lat="42.1958400" lon="-8.7667120">
        <ele>31.7</ele>
        <time>2021-05-20T08:57:10Z</time>
      </trkpt>
      <trkpt lat="42.1958440" lon="-8.7667130">
        <ele>31.7</ele>
        <time>2021-05-20T08:57:11Z</time>
      </trkpt>
      <trkpt lat="42.1958520" lon="-8.7667160">
        <ele>31.6</ele>
        <time>2021-05-20T08:57:12Z</time>
      </trkpt>
      <trkpt lat="42.1958600" lon="-8.7667170">
        <ele>31.6</ele>
        <time>2021-05-20T08:57:13Z</time>
      </trkpt>
      <trkpt lat="42.1958620" lon="-8.7667170">
        <ele>31.6</ele>
        <time>2021-05-20T08:57:14Z</time>
      </trkpt>
      <trkpt lat="42.1958660" lon="-8.7667190">
        <ele>31.6</ele>
        <time>2021-05-20T08:57:15Z</time>
      </trkpt>
      <trkpt lat="42.1958710" lon="-8.7667190">
        <ele>31.5</ele>
        <time>2021-05-20T08:57:16Z</time>
      </trkpt>
      <trkpt lat="42.1958760" lon="-8.7667180">
        <ele>31.5</ele>
        <time>2021-05-20T08:57:17Z</time>
      </trkpt>
      <trkpt lat="42.1958820" lon="-8.7667170">
        <ele>31.5</ele>
        <time>2021-05-20T08:57:18Z</time>
      </trkpt>
      <trkpt lat="42.1958840" lon="-8.7667160">
        <ele>31.5</ele>
        <time>2021-05-20T08:57:19Z</time>
      </trkpt>
      <trkpt lat="42.1958870" lon="-8.7666990">
        <ele>31.4</ele>
        <time>2021-05-20T08:57:20Z</time>
      </trkpt>
      <trkpt lat="42.1958890" lon="-8.7666840">
        <ele>31.3</ele>
        <time>2021-05-20T08:57:21Z</time>
      </trkpt>
      <trkpt lat="42.1958910" lon="-8.7666760">
        <ele>31.3</ele>
        <time>2021-05-20T08:57:22Z</time>
      </trkpt>
      <trkpt lat="42.1958960" lon="-8.7666700">
        <ele>31.3</ele>
        <time>2021-05-20T08:57:23Z</time>
      </trkpt>
      <trkpt lat="42.1959050" lon="-8.7666550">
        <ele>31.2</ele>
        <time>2021-05-20T08:57:24Z</time>
      </trkpt>
      <trkpt lat="42.1959160" lon="-8.7666470">
        <ele>31.1</ele>
        <time>2021-05-20T08:57:25Z</time>
      </trkpt>
      <trkpt lat="42.1959260" lon="-8.7666280">
        <ele>31.1</ele>
        <time>2021-05-20T08:57:26Z</time>
      </trkpt>
      <trkpt lat="42.1959320" lon="-8.7666180">
        <ele>31.0</ele>
        <time>2021-05-20T08:57:27Z</time>
      </trkpt>
      <trkpt lat="42.1959380" lon="-8.7666080">
        <ele>31.0</ele>
        <time>2021-05-20T08:57:28Z</time>
      </trkpt>
      <trkpt lat="42.1959480" lon="-8.7665960">
        <ele>30.9</ele>
        <time>2021-05-20T08:57:29Z</time>
      </trkpt>
      <trkpt lat="42.1959500" lon="-8.7665930">
        <ele>30.9</ele>
        <time>2021-05-20T08:57:30Z</time>
      </trkpt>
      <trkpt lat="42.1959510" lon="-8.7665910">
        <ele>30.9</ele>
        <time>2021-05-20T08:57:31Z</time>
      </trkpt>
      <trkpt lat="42.1959530" lon="-8.7665880">
        <ele>30.8</ele>
        <time>2021-05-20T08:57:32Z</time>
      </trkpt>
      <trkpt lat="42.1959540" lon="-8.7665860">
        <ele>30.8</ele>
        <time>2021-05-20T08:57:33Z</time>
      </trkpt>
      <trkpt lat="42.1959560" lon="-8.7665830">
        <ele>30.8</ele>
        <time>2021-05-20T08:57:34Z</time>
      </trkpt>
      <trkpt lat="42.1959570" lon="-8.7665810">
        <ele>30.8</ele>
        <time>2021-05-20T08:57:35Z</time>
      </trkpt>
      <trkpt lat="42.1959580" lon="-8.7665780">
        <ele>30.8</ele>
        <time>2021-05-20T08:57:36Z</time>
      </trkpt>
      <trkpt lat="42.1959600" lon="-8.7665760">
        <ele>30.8</ele>
        <time>2021-05-20T08:57:37Z</time>
      </trkpt>
      <trkpt lat="42.1959610" lon="-8.7665730">
        <ele>30.8</ele>
        <time>2021-05-20T08:57:38Z</time>
      </trkpt>
      <trkpt lat="42.1959630" lon="-8.7665710">
        <ele>30.8</ele>
        <time>2021-05-20T08:57:39Z</time>
      </trkpt>
      <trkpt lat="42.1959640" lon="-8.7665680">
        <ele>30.7</ele>
        <time>2021-05-20T08:57:40Z</time>
      </trkpt>
      <trkpt lat="42.1959770" lon="-8.7665390">
        <ele>30.6</ele>
        <time>2021-05-20T08:57:41Z</time>
      </trkpt>
      <trkpt lat="42.1959820" lon="-8.7665290">
        <ele>30.6</ele>
        <time>2021-05-20T08:57:43Z</time>
      </trkpt>
      <trkpt lat="42.1959880" lon="-8.7665200">
        <ele>30.5</ele>
        <time>2021-05-20T08:57:44Z</time>
      </trkpt>
      <trkpt lat="42.1959930" lon="-8.7665100">
        <ele>30.5</ele>
        <time>2021-05-20T08:57:45Z</time>
      </trkpt>
      <trkpt lat="42.1959990" lon="-8.7665000">
        <ele>30.4</ele>
        <time>2021-05-20T08:57:46Z</time>
      </trkpt>
      <trkpt lat="42.1960040" lon="-8.7664900">
        <ele>30.4</ele>
        <time>2021-05-20T08:57:47Z</time>
      </trkpt>
      <trkpt lat="42.1960120" lon="-8.7664710">
        <ele>30.3</ele>
        <time>2021-05-20T08:57:48Z</time>
      </trkpt>
      <trkpt lat="42.1960160" lon="-8.7664620">
        <ele>30.2</ele>
        <time>2021-05-20T08:57:49Z</time>
      </trkpt>
      <trkpt lat="42.1960230" lon="-8.7664530">
        <ele>30.2</ele>
        <time>2021-05-20T08:57:50Z</time>
      </trkpt>
      <trkpt lat="42.1960290" lon="-8.7664420">
        <ele>30.1</ele>
        <time>2021-05-20T08:57:51Z</time>
      </trkpt>
      <trkpt lat="42.1960410" lon="-8.7664350">
        <ele>30.1</ele>
        <time>2021-05-20T08:57:52Z</time>
      </trkpt>
      <trkpt lat="42.1960450" lon="-8.7664250">
        <ele>30.0</ele>
        <time>2021-05-20T08:57:53Z</time>
      </trkpt>
      <trkpt lat="42.1960560" lon="-8.7664170">
        <ele>30.0</ele>
        <time>2021-05-20T08:57:54Z</time>
      </trkpt>
      <trkpt lat="42.1960630" lon="-8.7664020">
        <ele>29.9</ele>
        <time>2021-05-20T08:57:55Z</time>
      </trkpt>
      <trkpt lat="42.1960650" lon="-8.7663950">
        <ele>29.9</ele>
        <time>2021-05-20T08:57:56Z</time>
      </trkpt>
      <trkpt lat="42.1960720" lon="-8.7663780">
        <ele>29.8</ele>
        <time>2021-05-20T08:57:57Z</time>
      </trkpt>
      <trkpt lat="42.1960720" lon="-8.7663720">
        <ele>29.7</ele>
        <time>2021-05-20T08:57:58Z</time>
      </trkpt>
      <trkpt lat="42.1960700" lon="-8.7663500">
        <ele>29.7</ele>
        <time>2021-05-20T08:57:59Z</time>
      </trkpt>
      <trkpt lat="42.1960770" lon="-8.7663280">
        <ele>29.6</ele>
        <time>2021-05-20T08:58:00Z</time>
      </trkpt>
      <trkpt lat="42.1960830" lon="-8.7663150">
        <ele>29.5</ele>
        <time>2021-05-20T08:58:01Z</time>
      </trkpt>
      <trkpt lat="42.1960950" lon="-8.7663040">
        <ele>29.4</ele>
        <time>2021-05-20T08:58:02Z</time>
      </trkpt>
      <trkpt lat="42.1961060" lon="-8.7662880">
        <ele>29.3</ele>
        <time>2021-05-20T08:58:03Z</time>
      </trkpt>
      <trkpt lat="42.1961310" lon="-8.7662660">
        <ele>29.2</ele>
        <time>2021-05-20T08:58:04Z</time>
      </trkpt>
      <trkpt lat="42.1961370" lon="-8.7662590">
        <ele>29.1</ele>
        <time>2021-05-20T08:58:05Z</time>
      </trkpt>
      <trkpt lat="42.1961500" lon="-8.7662390">
        <ele>29.0</ele>
        <time>2021-05-20T08:58:06Z</time>
      </trkpt>
      <trkpt lat="42.1961570" lon="-8.7662230">
        <ele>28.9</ele>
        <time>2021-05-20T08:58:07Z</time>
      </trkpt>
      <trkpt lat="42.1961620" lon="-8.7662050">
        <ele>28.8</ele>
        <time>2021-05-20T08:58:08Z</time>
      </trkpt>
      <trkpt lat="42.1961700" lon="-8.7661840">
        <ele>28.7</ele>
        <time>2021-05-20T08:58:09Z</time>
      </trkpt>
      <trkpt lat="42.1961760" lon="-8.7661660">
        <ele>28.7</ele>
        <time>2021-05-20T08:58:10Z</time>
      </trkpt>
      <trkpt lat="42.1961820" lon="-8.7661500">
        <ele>28.6</ele>
        <time>2021-05-20T08:58:11Z</time>
      </trkpt>
      <trkpt lat="42.1961980" lon="-8.7661370">
        <ele>28.5</ele>
        <time>2021-05-20T08:58:12Z</time>
      </trkpt>
      <trkpt lat="42.1962020" lon="-8.7661160">
        <ele>28.4</ele>
        <time>2021-05-20T08:58:13Z</time>
      </trkpt>
      <trkpt lat="42.1962190" lon="-8.7660920">
        <ele>28.3</ele>
        <time>2021-05-20T08:58:14Z</time>
      </trkpt>
      <trkpt lat="42.1962260" lon="-8.7660850">
        <ele>28.2</ele>
        <time>2021-05-20T08:58:15Z</time>
      </trkpt>
      <trkpt lat="42.1962340" lon="-8.7660770">
        <ele>28.2</ele>
        <time>2021-05-20T08:58:16Z</time>
      </trkpt>
      <trkpt lat="42.1962450" lon="-8.7660420">
        <ele>28.0</ele>
        <time>2021-05-20T08:58:17Z</time>
      </trkpt>
      <trkpt lat="42.1962510" lon="-8.7660260">
        <ele>28.0</ele>
        <time>2021-05-20T08:58:18Z</time>
      </trkpt>
      <trkpt lat="42.1962620" lon="-8.7660220">
        <ele>27.9</ele>
        <time>2021-05-20T08:58:19Z</time>
      </trkpt>
      <trkpt lat="42.1962650" lon="-8.7660070">
        <ele>27.8</ele>
        <time>2021-05-20T08:58:20Z</time>
      </trkpt>
      <trkpt lat="42.1962660" lon="-8.7659900">
        <ele>27.8</ele>
        <time>2021-05-20T08:58:21Z</time>
      </trkpt>
      <trkpt lat="42.1962660" lon="-8.7659870">
        <ele>27.8</ele>
        <time>2021-05-20T08:58:22Z</time>
      </trkpt>
      <trkpt lat="42.1962690" lon="-8.7659770">
        <ele>27.7</ele>
        <time>2021-05-20T08:58:23Z</time>
      </trkpt>
      <trkpt lat="42.1962700" lon="-8.7659590">
        <ele>27.7</ele>
        <time>2021-05-20T08:58:24Z</time>
      </trkpt>
      <trkpt lat="42.1962730" lon="-8.7659470">
        <ele>27.6</ele>
        <time>2021-05-20T08:58:25Z</time>
      </trkpt>
      <trkpt lat="42.1962820" lon="-8.7659310">
        <ele>27.5</ele>
        <time>2021-05-20T08:58:26Z</time>
      </trkpt>
      <trkpt lat="42.1962860" lon="-8.7659210">
        <ele>27.5</ele>
        <time>2021-05-20T08:58:27Z</time>
      </trkpt>
      <trkpt lat="42.1962930" lon="-8.7659110">
        <ele>27.4</ele>
        <time>2021-05-20T08:58:28Z</time>
      </trkpt>
      <trkpt lat="42.1962920" lon="-8.7658950">
        <ele>27.4</ele>
        <time>2021-05-20T08:58:29Z</time>
      </trkpt>
      <trkpt lat="42.1962980" lon="-8.7658840">
        <ele>27.3</ele>
        <time>2021-05-20T08:58:30Z</time>
      </trkpt>
      <trkpt lat="42.1963090" lon="-8.7658580">
        <ele>27.2</ele>
        <time>2021-05-20T08:58:31Z</time>
      </trkpt>
      <trkpt lat="42.1963140" lon="-8.7658490">
        <ele>27.2</ele>
        <time>2021-05-20T08:58:32Z</time>
      </trkpt>
      <trkpt lat="42.1963200" lon="-8.7658400">
        <ele>27.1</ele>
        <time>2021-05-20T08:58:33Z</time>
      </trkpt>
      <trkpt lat="42.1963270" lon="-8.7658170">
        <ele>27.0</ele>
        <time>2021-05-20T08:58:34Z</time>
      </trkpt>
      <trkpt lat="42.1963320" lon="-8.7658070">
        <ele>27.0</ele>
        <time>2021-05-20T08:58:35Z</time>
      </trkpt>
      <trkpt lat="42.1963360" lon="-8.7657960">
        <ele>27.0</ele>
        <time>2021-05-20T08:58:36Z</time>
      </trkpt>
      <trkpt lat="42.1963450" lon="-8.7657730">
        <ele>26.9</ele>
        <time>2021-05-20T08:58:37Z</time>
      </trkpt>
      <trkpt lat="42.1963500" lon="-8.7657630">
        <ele>26.8</ele>
        <time>2021-05-20T08:58:38Z</time>
      </trkpt>
      <trkpt lat="42.1963540" lon="-8.7657520">
        <ele>26.8</ele>
        <time>2021-05-20T08:58:39Z</time>
      </trkpt>
      <trkpt lat="42.1963600" lon="-8.7657370">
        <ele>26.7</ele>
        <time>2021-05-20T08:58:40Z</time>
      </trkpt>
      <trkpt lat="42.1963590" lon="-8.7657260">
        <ele>26.7</ele>
        <time>2021-05-20T08:58:41Z</time>
      </trkpt>
      <trkpt lat="42.1963630" lon="-8.7657110">
        <ele>26.6</ele>
        <time>2021-05-20T08:58:42Z</time>
      </trkpt>
      <trkpt lat="42.1963600" lon="-8.7656990">
        <ele>26.5</ele>
        <time>2021-05-20T08:58:43Z</time>
      </trkpt>
      <trkpt lat="42.1963690" lon="-8.7656870">
        <ele>26.5</ele>
        <time>2021-05-20T08:58:44Z</time>
      </trkpt>
      <trkpt lat="42.1963670" lon="-8.7656760">
        <ele>26.4</ele>
        <time>2021-05-20T08:58:45Z</time>
      </trkpt>
      <trkpt lat="42.1963660" lon="-8.7656660">
        <ele>26.4</ele>
        <time>2021-05-20T08:58:46Z</time>
      </trkpt>
      <trkpt lat="42.1963670" lon="-8.7656590">
        <ele>26.4</ele>
        <time>2021-05-20T08:58:47Z</time>
      </trkpt>
      <trkpt lat="42.1963610" lon="-8.7656500">
        <ele>26.3</ele>
        <time>2021-05-20T08:58:48Z</time>
      </trkpt>
      <trkpt lat="42.1963640" lon="-8.7656420">
        <ele>26.3</ele>
        <time>2021-05-20T08:58:49Z</time>
      </trkpt>
      <trkpt lat="42.1963650" lon="-8.7656220">
        <ele>26.2</ele>
        <time>2021-05-20T08:58:50Z</time>
      </trkpt>
      <trkpt lat="42.1963800" lon="-8.7655930">
        <ele>26.1</ele>
        <time>2021-05-20T08:58:51Z</time>
      </trkpt>
      <trkpt lat="42.1963880" lon="-8.7655830">
        <ele>26.0</ele>
        <time>2021-05-20T08:58:52Z</time>
      </trkpt>
      <trkpt lat="42.1964100" lon="-8.7655590">
        <ele>25.9</ele>
        <time>2021-05-20T08:58:53Z</time>
      </trkpt>
      <trkpt lat="42.1964170" lon="-8.7655500">
        <ele>25.8</ele>
        <time>2021-05-20T08:58:54Z</time>
      </trkpt>
      <trkpt lat="42.1964300" lon="-8.7655360">
        <ele>25.7</ele>
        <time>2021-05-20T08:58:55Z</time>
      </trkpt>
      <trkpt lat="42.1964380" lon="-8.7655220">
        <ele>25.7</ele>
        <time>2021-05-20T08:58:56Z</time>
      </trkpt>
      <trkpt lat="42.1964510" lon="-8.7654910">
        <ele>25.5</ele>
        <time>2021-05-20T08:58:57Z</time>
      </trkpt>
      <trkpt lat="42.1964540" lon="-8.7654820">
        <ele>25.5</ele>
        <time>2021-05-20T08:58:58Z</time>
      </trkpt>
      <trkpt lat="42.1964570" lon="-8.7654730">
        <ele>25.5</ele>
        <time>2021-05-20T08:58:59Z</time>
      </trkpt>
      <trkpt lat="42.1964650" lon="-8.7654550">
        <ele>25.4</ele>
        <time>2021-05-20T08:59:00Z</time>
      </trkpt>
      <trkpt lat="42.1964720" lon="-8.7654450">
        <ele>25.4</ele>
        <time>2021-05-20T08:59:01Z</time>
      </trkpt>
      <trkpt lat="42.1964770" lon="-8.7654360">
        <ele>25.3</ele>
        <time>2021-05-20T08:59:02Z</time>
      </trkpt>
      <trkpt lat="42.1964840" lon="-8.7654200">
        <ele>25.2</ele>
        <time>2021-05-20T08:59:03Z</time>
      </trkpt>
      <trkpt lat="42.1964870" lon="-8.7654050">
        <ele>25.2</ele>
        <time>2021-05-20T08:59:04Z</time>
      </trkpt>
      <trkpt lat="42.1964860" lon="-8.7653920">
        <ele>25.1</ele>
        <time>2021-05-20T08:59:05Z</time>
      </trkpt>
      <trkpt lat="42.1964800" lon="-8.7653760">
        <ele>25.1</ele>
        <time>2021-05-20T08:59:06Z</time>
      </trkpt>
      <trkpt lat="42.1964760" lon="-8.7653660">
        <ele>25.0</ele>
        <time>2021-05-20T08:59:07Z</time>
      </trkpt>
      <trkpt lat="42.1964810" lon="-8.7653520">
        <ele>25.0</ele>
        <time>2021-05-20T08:59:08Z</time>
      </trkpt>
      <trkpt lat="42.1964890" lon="-8.7653250">
        <ele>24.9</ele>
        <time>2021-05-20T08:59:09Z</time>
      </trkpt>
      <trkpt lat="42.1964910" lon="-8.7653140">
        <ele>24.8</ele>
        <time>2021-05-20T08:59:10Z</time>
      </trkpt>
      <trkpt lat="42.1964930" lon="-8.7653030">
        <ele>24.8</ele>
        <time>2021-05-20T08:59:11Z</time>
      </trkpt>
      <trkpt lat="42.1965010" lon="-8.7652840">
        <ele>24.7</ele>
        <time>2021-05-20T08:59:12Z</time>
      </trkpt>
      <trkpt lat="42.1965040" lon="-8.7652750">
        <ele>24.7</ele>
        <time>2021-05-20T08:59:13Z</time>
      </trkpt>
      <trkpt lat="42.1965060" lon="-8.7652660">
        <ele>24.6</ele>
        <time>2021-05-20T08:59:14Z</time>
      </trkpt>
      <trkpt lat="42.1965090" lon="-8.7652570">
        <ele>24.6</ele>
        <time>2021-05-20T08:59:15Z</time>
      </trkpt>
      <trkpt lat="42.1965180" lon="-8.7652330">
        <ele>24.5</ele>
        <time>2021-05-20T08:59:16Z</time>
      </trkpt>
      <trkpt lat="42.1965270" lon="-8.7652150">
        <ele>24.4</ele>
        <time>2021-05-20T08:59:17Z</time>
      </trkpt>
      <trkpt lat="42.1965430" lon="-8.7651950">
        <ele>24.3</ele>
        <time>2021-05-20T08:59:18Z</time>
      </trkpt>
      <trkpt lat="42.1965520" lon="-8.7651810">
        <ele>24.2</ele>
        <time>2021-05-20T08:59:19Z</time>
      </trkpt>
      <trkpt lat="42.1965710" lon="-8.7651590">
        <ele>24.1</ele>
        <time>2021-05-20T08:59:20Z</time>
      </trkpt>
      <trkpt lat="42.1965760" lon="-8.7651490">
        <ele>24.1</ele>
        <time>2021-05-20T08:59:21Z</time>
      </trkpt>
      <trkpt lat="42.1965820" lon="-8.7651400">
        <ele>24.0</ele>
        <time>2021-05-20T08:59:22Z</time>
      </trkpt>
      <trkpt lat="42.1965960" lon="-8.7651220">
        <ele>23.9</ele>
        <time>2021-05-20T08:59:23Z</time>
      </trkpt>
      <trkpt lat="42.1965980" lon="-8.7651070">
        <ele>23.9</ele>
        <time>2021-05-20T08:59:24Z</time>
      </trkpt>
      <trkpt lat="42.1966080" lon="-8.7650840">
        <ele>23.7</ele>
        <time>2021-05-20T08:59:25Z</time>
      </trkpt>
      <trkpt lat="42.1966150" lon="-8.7650760">
        <ele>23.7</ele>
        <time>2021-05-20T08:59:26Z</time>
      </trkpt>
      <trkpt lat="42.1966210" lon="-8.7650670">
        <ele>23.6</ele>
        <time>2021-05-20T08:59:27Z</time>
      </trkpt>
      <trkpt lat="42.1966310" lon="-8.7650380">
        <ele>23.5</ele>
        <time>2021-05-20T08:59:28Z</time>
      </trkpt>
      <trkpt lat="42.1966350" lon="-8.7650270">
        <ele>23.4</ele>
        <time>2021-05-20T08:59:29Z</time>
      </trkpt>
      <trkpt lat="42.1966390" lon="-8.7650170">
        <ele>23.4</ele>
        <time>2021-05-20T08:59:30Z</time>
      </trkpt>
      <trkpt lat="42.1966550" lon="-8.7649960">
        <ele>23.3</ele>
        <time>2021-05-20T08:59:31Z</time>
      </trkpt>
      <trkpt lat="42.1966610" lon="-8.7649840">
        <ele>23.2</ele>
        <time>2021-05-20T08:59:32Z</time>
      </trkpt>
      <trkpt lat="42.1966660" lon="-8.7649730">
        <ele>23.1</ele>
        <time>2021-05-20T08:59:33Z</time>
      </trkpt>
      <trkpt lat="42.1966780" lon="-8.7649630">
        <ele>23.1</ele>
        <time>2021-05-20T08:59:34Z</time>
      </trkpt>
      <trkpt lat="42.1966920" lon="-8.7649470">
        <ele>22.9</ele>
        <time>2021-05-20T08:59:35Z</time>
      </trkpt>
      <trkpt lat="42.1967130" lon="-8.7649160">
        <ele>22.8</ele>
        <time>2021-05-20T08:59:36Z</time>
      </trkpt>
      <trkpt lat="42.1967170" lon="-8.7649080">
        <ele>22.7</ele>
        <time>2021-05-20T08:59:37Z</time>
      </trkpt>
      <trkpt lat="42.1967230" lon="-8.7648970">
        <ele>22.6</ele>
        <time>2021-05-20T08:59:38Z</time>
      </trkpt>
      <trkpt lat="42.1967290" lon="-8.7648760">
        <ele>22.5</ele>
        <time>2021-05-20T08:59:39Z</time>
      </trkpt>
      <trkpt lat="42.1967340" lon="-8.7648660">
        <ele>22.5</ele>
        <time>2021-05-20T08:59:40Z</time>
      </trkpt>
      <trkpt lat="42.1967450" lon="-8.7648420">
        <ele>22.3</ele>
        <time>2021-05-20T08:59:41Z</time>
      </trkpt>
      <trkpt lat="42.1967530" lon="-8.7648340">
        <ele>22.3</ele>
        <time>2021-05-20T08:59:42Z</time>
      </trkpt>
      <trkpt lat="42.1967620" lon="-8.7648270">
        <ele>22.2</ele>
        <time>2021-05-20T08:59:43Z</time>
      </trkpt>
      <trkpt lat="42.1967690" lon="-8.7648130">
        <ele>22.1</ele>
        <time>2021-05-20T08:59:44Z</time>
      </trkpt>
      <trkpt lat="42.1967700" lon="-8.7647990">
        <ele>22.1</ele>
        <time>2021-05-20T08:59:45Z</time>
      </trkpt>
      <trkpt lat="42.1967700" lon="-8.7647870">
        <ele>22.0</ele>
        <time>2021-05-20T08:59:46Z</time>
      </trkpt>
      <trkpt lat="42.1967810" lon="-8.7647700">
        <ele>21.9</ele>
        <time>2021-05-20T08:59:47Z</time>
      </trkpt>
      <trkpt lat="42.1967920" lon="-8.7647600">
        <ele>21.8</ele>
        <time>2021-05-20T08:59:48Z</time>
      </trkpt>
      <trkpt lat="42.1968020" lon="-8.7647450">
        <ele>21.7</ele>
        <time>2021-05-20T08:59:49Z</time>
      </trkpt>
      <trkpt lat="42.1968140" lon="-8.7647370">
        <ele>21.6</ele>
        <time>2021-05-20T08:59:50Z</time>
      </trkpt>
      <trkpt lat="42.1968210" lon="-8.7647160">
        <ele>21.5</ele>
        <time>2021-05-20T08:59:51Z</time>
      </trkpt>
      <trkpt lat="42.1968270" lon="-8.7647040">
        <ele>21.4</ele>
        <time>2021-05-20T08:59:52Z</time>
      </trkpt>
      <trkpt lat="42.1968350" lon="-8.7646870">
        <ele>21.4</ele>
        <time>2021-05-20T08:59:53Z</time>
      </trkpt>
      <trkpt lat="42.1968460" lon="-8.7646670">
        <ele>21.3</ele>
        <time>2021-05-20T08:59:54Z</time>
      </trkpt>
      <trkpt lat="42.1968640" lon="-8.7646440">
        <ele>21.2</ele>
        <time>2021-05-20T08:59:55Z</time>
      </trkpt>
      <trkpt lat="42.1968680" lon="-8.7646370">
        <ele>21.2</ele>
        <time>2021-05-20T08:59:56Z</time>
      </trkpt>
      <trkpt lat="42.1968710" lon="-8.7646290">
        <ele>21.2</ele>
        <time>2021-05-20T08:59:57Z</time>
      </trkpt>
      <trkpt lat="42.1968800" lon="-8.7646160">
        <ele>21.2</ele>
        <time>2021-05-20T08:59:58Z</time>
      </trkpt>
      <trkpt lat="42.1968810" lon="-8.7646070">
        <ele>21.1</ele>
        <time>2021-05-20T08:59:59Z</time>
      </trkpt>
      <trkpt lat="42.1968760" lon="-8.7645960">
        <ele>21.1</ele>
        <time>2021-05-20T09:00:00Z</time>
      </trkpt>
      <trkpt lat="42.1968720" lon="-8.7645920">
        <ele>21.1</ele>
        <time>2021-05-20T09:00:01Z</time>
      </trkpt>
      <trkpt lat="42.1968770" lon="-8.7645850">
        <ele>21.1</ele>
        <time>2021-05-20T09:00:02Z</time>
      </trkpt>
      <trkpt lat="42.1968830" lon="-8.7645710">
        <ele>21.0</ele>
        <time>2021-05-20T09:00:03Z</time>
      </trkpt>
      <trkpt lat="42.1968880" lon="-8.7645540">
        <ele>21.0</ele>
        <time>2021-05-20T09:00:04Z</time>
      </trkpt>
      <trkpt lat="42.1968980" lon="-8.7645440">
        <ele>21.0</ele>
        <time>2021-05-20T09:00:05Z</time>
      </trkpt>
      <trkpt lat="42.1969060" lon="-8.7645410">
        <ele>20.9</ele>
        <time>2021-05-20T09:00:06Z</time>
      </trkpt>
      <trkpt lat="42.1969120" lon="-8.7645260">
        <ele>20.9</ele>
        <time>2021-05-20T09:00:07Z</time>
      </trkpt>
      <trkpt lat="42.1969240" lon="-8.7645090">
        <ele>20.8</ele>
        <time>2021-05-20T09:00:08Z</time>
      </trkpt>
      <trkpt lat="42.1969230" lon="-8.7645020">
        <ele>20.8</ele>
        <time>2021-05-20T09:00:09Z</time>
      </trkpt>
      <trkpt lat="42.1969270" lon="-8.7644940">
        <ele>20.8</ele>
        <time>2021-05-20T09:00:11Z</time>
      </trkpt>
      <trkpt lat="42.1969380" lon="-8.7644810">
        <ele>20.8</ele>
        <time>2021-05-20T09:00:12Z</time>
      </trkpt>
      <trkpt lat="42.1969480" lon="-8.7644660">
        <ele>20.7</ele>
        <time>2021-05-20T09:00:13Z</time>
      </trkpt>
      <trkpt lat="42.1969620" lon="-8.7644480">
        <ele>20.6</ele>
        <time>2021-05-20T09:00:14Z</time>
      </trkpt>
      <trkpt lat="42.1969690" lon="-8.7644410">
        <ele>20.5</ele>
        <time>2021-05-20T09:00:15Z</time>
      </trkpt>
      <trkpt lat="42.1969750" lon="-8.7644330">
        <ele>20.4</ele>
        <time>2021-05-20T09:00:16Z</time>
      </trkpt>
      <trkpt lat="42.1969940" lon="-8.7644240">
        <ele>20.3</ele>
        <time>2021-05-20T09:00:17Z</time>
      </trkpt>
      <trkpt lat="42.1970020" lon="-8.7644180">
        <ele>20.2</ele>
        <time>2021-05-20T09:00:18Z</time>
      </trkpt>
      <trkpt lat="42.1970090" lon="-8.7644110">
        <ele>20.2</ele>
        <time>2021-05-20T09:00:19Z</time>
      </trkpt>
      <trkpt lat="42.1970260" lon="-8.7643970">
        <ele>20.0</ele>
        <time>2021-05-20T09:00:20Z</time>
      </trkpt>
      <trkpt lat="42.1970330" lon="-8.7643880">
        <ele>19.9</ele>
        <time>2021-05-20T09:00:21Z</time>
      </trkpt>
      <trkpt lat="42.1970410" lon="-8.7643800">
        <ele>19.9</ele>
        <time>2021-05-20T09:00:22Z</time>
      </trkpt>
      <trkpt lat="42.1970690" lon="-8.7643570">
        <ele>19.6</ele>
        <time>2021-05-20T09:00:23Z</time>
      </trkpt>
      <trkpt lat="42.1970730" lon="-8.7643500">
        <ele>19.6</ele>
        <time>2021-05-20T09:00:24Z</time>
      </trkpt>
      <trkpt lat="42.1970860" lon="-8.7643420">
        <ele>19.5</ele>
        <time>2021-05-20T09:00:25Z</time>
      </trkpt>
      <trkpt lat="42.1970980" lon="-8.7643340">
        <ele>19.4</ele>
        <time>2021-05-20T09:00:26Z</time>
      </trkpt>
      <trkpt lat="42.1971110" lon="-8.7643260">
        <ele>19.2</ele>
        <time>2021-05-20T09:00:27Z</time>
      </trkpt>
      <trkpt lat="42.1971200" lon="-8.7643140">
        <ele>19.1</ele>
        <time>2021-05-20T09:00:28Z</time>
      </trkpt>
      <trkpt lat="42.1971240" lon="-8.7643060">
        <ele>19.1</ele>
        <time>2021-05-20T09:00:29Z</time>
      </trkpt>
      <trkpt lat="42.1971320" lon="-8.7642940">
        <ele>19.0</ele>
        <time>2021-05-20T09:00:30Z</time>
      </trkpt>
      <trkpt lat="42.1971370" lon="-8.7642810">
        <ele>18.9</ele>
        <time>2021-05-20T09:00:31Z</time>
      </trkpt>
      <trkpt lat="42.1971460" lon="-8.7642740">
        <ele>18.8</ele>
        <time>2021-05-20T09:00:32Z</time>
      </trkpt>
      <trkpt lat="42.1971590" lon="-8.7642520">
        <ele>18.7</ele>
        <time>2021-05-20T09:00:33Z</time>
      </trkpt>
      <trkpt lat="42.1971660" lon="-8.7642440">
        <ele>18.6</ele>
        <time>2021-05-20T09:00:34Z</time>
      </trkpt>
      <trkpt lat="42.1971720" lon="-8.7642350">
        <ele>18.5</ele>
        <time>2021-05-20T09:00:35Z</time>
      </trkpt>
      <trkpt lat="42.1971820" lon="-8.7642360">
        <ele>18.5</ele>
        <time>2021-05-20T09:00:36Z</time>
      </trkpt>
      <trkpt lat="42.1971870" lon="-8.7642360">
        <ele>18.4</ele>
        <time>2021-05-20T09:00:37Z</time>
      </trkpt>
      <trkpt lat="42.1972000" lon="-8.7642230">
        <ele>18.3</ele>
        <time>2021-05-20T09:00:38Z</time>
      </trkpt>
      <trkpt lat="42.1972090" lon="-8.7642080">
        <ele>18.2</ele>
        <time>2021-05-20T09:00:39Z</time>
      </trkpt>
      <trkpt lat="42.1972180" lon="-8.7641930">
        <ele>18.1</ele>
        <time>2021-05-20T09:00:40Z</time>
      </trkpt>
      <trkpt lat="42.1972260" lon="-8.7641710">
        <ele>17.9</ele>
        <time>2021-05-20T09:00:41Z</time>
      </trkpt>
      <trkpt lat="42.1972320" lon="-8.7641600">
        <ele>17.9</ele>
        <time>2021-05-20T09:00:42Z</time>
      </trkpt>
      <trkpt lat="42.1972370" lon="-8.7641500">
        <ele>17.8</ele>
        <time>2021-05-20T09:00:43Z</time>
      </trkpt>
      <trkpt lat="42.1972420" lon="-8.7641440">
        <ele>17.7</ele>
        <time>2021-05-20T09:00:44Z</time>
      </trkpt>
      <trkpt lat="42.1972520" lon="-8.7641460">
        <ele>17.7</ele>
        <time>2021-05-20T09:00:45Z</time>
      </trkpt>
      <trkpt lat="42.1972660" lon="-8.7641370">
        <ele>17.6</ele>
        <time>2021-05-20T09:00:46Z</time>
      </trkpt>
      <trkpt lat="42.1972860" lon="-8.7641200">
        <ele>17.4</ele>
        <time>2021-05-20T09:00:47Z</time>
      </trkpt>
      <trkpt lat="42.1972930" lon="-8.7641160">
        <ele>17.3</ele>
        <time>2021-05-20T09:00:48Z</time>
      </trkpt>
      <trkpt lat="42.1973010" lon="-8.7641120">
        <ele>17.3</ele>
        <time>2021-05-20T09:00:49Z</time>
      </trkpt>
      <trkpt lat="42.1973090" lon="-8.7641010">
        <ele>17.2</ele>
        <time>2021-05-20T09:00:50Z</time>
      </trkpt>
      <trkpt lat="42.1973110" lon="-8.7640910">
        <ele>17.1</ele>
        <time>2021-05-20T09:00:51Z</time>
      </trkpt>
      <trkpt lat="42.1973110" lon="-8.7640960">
        <ele>17.1</ele>
        <time>2021-05-20T09:00:52Z</time>
      </trkpt>
      <trkpt lat="42.1973240" lon="-8.7640840">
        <ele>17.0</ele>
        <time>2021-05-20T09:00:53Z</time>
      </trkpt>
      <trkpt lat="42.1973290" lon="-8.7640670">
        <ele>16.9</ele>
        <time>2021-05-20T09:00:54Z</time>
      </trkpt>
      <trkpt lat="42.1973460" lon="-8.7640550">
        <ele>16.8</ele>
        <time>2021-05-20T09:00:55Z</time>
      </trkpt>
      <trkpt lat="42.1973700" lon="-8.7640330">
        <ele>16.6</ele>
        <time>2021-05-20T09:00:56Z</time>
      </trkpt>
      <trkpt lat="42.1973780" lon="-8.7640270">
        <ele>16.5</ele>
        <time>2021-05-20T09:00:57Z</time>
      </trkpt>
      <trkpt lat="42.1973920" lon="-8.7640250">
        <ele>16.5</ele>
        <time>2021-05-20T09:00:58Z</time>
      </trkpt>
      <trkpt lat="42.1974000" lon="-8.7640150">
        <ele>16.4</ele>
        <time>2021-05-20T09:00:59Z</time>
      </trkpt>
      <trkpt lat="42.1974050" lon="-8.7640030">
        <ele>16.3</ele>
        <time>2021-05-20T09:01:00Z</time>
      </trkpt>
      <trkpt lat="42.1974190" lon="-8.7639900">
        <ele>16.2</ele>
        <time>2021-05-20T09:01:01Z</time>
      </trkpt>
      <trkpt lat="42.1974250" lon="-8.7639800">
        <ele>16.2</ele>
        <time>2021-05-20T09:01:02Z</time>
      </trkpt>
      <trkpt lat="42.1974320" lon="-8.7639700">
        <ele>16.1</ele>
        <time>2021-05-20T09:01:03Z</time>
      </trkpt>
      <trkpt lat="42.1974450" lon="-8.7639500">
        <ele>16.0</ele>
        <time>2021-05-20T09:01:04Z</time>
      </trkpt>
      <trkpt lat="42.1974530" lon="-8.7639420">
        <ele>15.9</ele>
        <time>2021-05-20T09:01:05Z</time>
      </trkpt>
      <trkpt lat="42.1974610" lon="-8.7639350">
        <ele>15.9</ele>
        <time>2021-05-20T09:01:06Z</time>
      </trkpt>
      <trkpt lat="42.1974780" lon="-8.7639180">
        <ele>15.7</ele>
        <time>2021-05-20T09:01:07Z</time>
      </trkpt>
      <trkpt lat="42.1974840" lon="-8.7639120">
        <ele>15.7</ele>
        <time>2021-05-20T09:01:08Z</time>
      </trkpt>
      <trkpt lat="42.1974900" lon="-8.7639050">
        <ele>15.6</ele>
        <time>2021-05-20T09:01:09Z</time>
      </trkpt>
      <trkpt lat="42.1974960" lon="-8.7638990">
        <ele>15.6</ele>
        <time>2021-05-20T09:01:10Z</time>
      </trkpt>
      <trkpt lat="42.1975060" lon="-8.7638980">
        <ele>15.5</ele>
        <time>2021-05-20T09:01:11Z</time>
      </trkpt>
      <trkpt lat="42.1975160" lon="-8.7638850">
        <ele>15.4</ele>
        <time>2021-05-20T09:01:12Z</time>
      </trkpt>
      <trkpt lat="42.1975380" lon="-8.7638600">
        <ele>15.2</ele>
        <time>2021-05-20T09:01:13Z</time>
      </trkpt>
      <trkpt lat="42.1975460" lon="-8.7638490">
        <ele>15.2</ele>
        <time>2021-05-20T09:01:14Z</time>
      </trkpt>
      <trkpt lat="42.1975560" lon="-8.7638400">
        <ele>15.1</ele>
        <time>2021-05-20T09:01:15Z</time>
      </trkpt>
      <trkpt lat="42.1975610" lon="-8.7638270">
        <ele>15.0</ele>
        <time>2021-05-20T09:01:16Z</time>
      </trkpt>
      <trkpt lat="42.1975680" lon="-8.7638170">
        <ele>15.0</ele>
        <time>2021-05-20T09:01:17Z</time>
      </trkpt>
      <trkpt lat="42.1975670" lon="-8.7638090">
        <ele>14.9</ele>
        <time>2021-05-20T09:01:18Z</time>
      </trkpt>
      <trkpt lat="42.1975680" lon="-8.7637970">
        <ele>14.9</ele>
        <time>2021-05-20T09:01:19Z</time>
      </trkpt>
      <trkpt lat="42.1975730" lon="-8.7637970">
        <ele>14.8</ele>
        <time>2021-05-20T09:01:20Z</time>
      </trkpt>
      <trkpt lat="42.1975790" lon="-8.7637990">
        <ele>14.8</ele>
        <time>2021-05-20T09:01:21Z</time>
      </trkpt>
      <trkpt lat="42.1975850" lon="-8.7637840">
        <ele>14.7</ele>
        <time>2021-05-20T09:01:22Z</time>
      </trkpt>
      <trkpt lat="42.1975950" lon="-8.7637750">
        <ele>14.6</ele>
        <time>2021-05-20T09:01:23Z</time>
      </trkpt>
      <trkpt lat="42.1975930" lon="-8.7637740">
        <ele>14.6</ele>
        <time>2021-05-20T09:01:24Z</time>
      </trkpt>
      <trkpt lat="42.1976190" lon="-8.7637670">
        <ele>14.5</ele>
        <time>2021-05-20T09:01:25Z</time>
      </trkpt>
      <trkpt lat="42.1976230" lon="-8.7637570">
        <ele>14.4</ele>
        <time>2021-05-20T09:01:26Z</time>
      </trkpt>
      <trkpt lat="42.1976330" lon="-8.7637640">
        <ele>14.3</ele>
        <time>2021-05-20T09:01:27Z</time>
      </trkpt>
      <trkpt lat="42.1976510" lon="-8.7637650">
        <ele>14.2</ele>
        <time>2021-05-20T09:01:28Z</time>
      </trkpt>
      <trkpt lat="42.1976760" lon="-8.7637690">
        <ele>14.1</ele>
        <time>2021-05-20T09:01:29Z</time>
      </trkpt>
      <trkpt lat="42.1976880" lon="-8.7637720">
        <ele>14.0</ele>
        <time>2021-05-20T09:01:30Z</time>
      </trkpt>
      <trkpt lat="42.1977160" lon="-8.7637730">
        <ele>13.8</ele>
        <time>2021-05-20T09:01:31Z</time>
      </trkpt>
      <trkpt lat="42.1977250" lon="-8.7637760">
        <ele>13.8</ele>
        <time>2021-05-20T09:01:32Z</time>
      </trkpt>
      <trkpt lat="42.1977580" lon="-8.7637680">
        <ele>13.6</ele>
        <time>2021-05-20T09:01:33Z</time>
      </trkpt>
      <trkpt lat="42.1977680" lon="-8.7637590">
        <ele>13.5</ele>
        <time>2021-05-20T09:01:34Z</time>
      </trkpt>
      <trkpt lat="42.1977810" lon="-8.7637420">
        <ele>13.4</ele>
        <time>2021-05-20T09:01:35Z</time>
      </trkpt>
      <trkpt lat="42.1977970" lon="-8.7637310">
        <ele>13.3</ele>
        <time>2021-05-20T09:01:36Z</time>
      </trkpt>
      <trkpt lat="42.1978030" lon="-8.7637170">
        <ele>13.2</ele>
        <time>2021-05-20T09:01:37Z</time>
      </trkpt>
      <trkpt lat="42.1978170" lon="-8.7636990">
        <ele>13.1</ele>
        <time>2021-05-20T09:01:38Z</time>
      </trkpt>
      <trkpt lat="42.1978340" lon="-8.7636830">
        <ele>13.0</ele>
        <time>2021-05-20T09:01:39Z</time>
      </trkpt>
      <trkpt lat="42.1978400" lon="-8.7636740">
        <ele>13.0</ele>
        <time>2021-05-20T09:01:40Z</time>
      </trkpt>
      <trkpt lat="42.1978460" lon="-8.7636660">
        <ele>12.9</ele>
        <time>2021-05-20T09:01:41Z</time>
      </trkpt>
      <trkpt lat="42.1978570" lon="-8.7636490">
        <ele>12.8</ele>
        <time>2021-05-20T09:01:42Z</time>
      </trkpt>
      <trkpt lat="42.1978680" lon="-8.7636380">
        <ele>12.8</ele>
        <time>2021-05-20T09:01:43Z</time>
      </trkpt>
      <trkpt lat="42.1978830" lon="-8.7636140">
        <ele>12.6</ele>
        <time>2021-05-20T09:01:44Z</time>
      </trkpt>
      <trkpt lat="42.1978860" lon="-8.7636060">
        <ele>12.6</ele>
        <time>2021-05-20T09:01:45Z</time>
      </trkpt>
      <trkpt lat="42.1978900" lon="-8.7635970">
        <ele>12.5</ele>
        <time>2021-05-20T09:01:46Z</time>
      </trkpt>
      <trkpt lat="42.1979060" lon="-8.7635830">
        <ele>12.4</ele>
        <time>2021-05-20T09:01:47Z</time>
      </trkpt>
      <trkpt lat="42.1979070" lon="-8.7635680">
        <ele>12.4</ele>
        <time>2021-05-20T09:01:48Z</time>
      </trkpt>
      <trkpt lat="42.1979170" lon="-8.7635470">
        <ele>12.3</ele>
        <time>2021-05-20T09:01:49Z</time>
      </trkpt>
      <trkpt lat="42.1979230" lon="-8.7635270">
        <ele>12.2</ele>
        <time>2021-05-20T09:01:50Z</time>
      </trkpt>
      <trkpt lat="42.1979370" lon="-8.7635150">
        <ele>12.1</ele>
        <time>2021-05-20T09:01:51Z</time>
      </trkpt>
      <trkpt lat="42.1979500" lon="-8.7635010">
        <ele>12.0</ele>
        <time>2021-05-20T09:01:52Z</time>
      </trkpt>
      <trkpt lat="42.1979580" lon="-8.7634720">
        <ele>11.9</ele>
        <time>2021-05-20T09:01:53Z</time>
      </trkpt>
      <trkpt lat="42.1979580" lon="-8.7634570">
        <ele>11.9</ele>
        <time>2021-05-20T09:01:54Z</time>
      </trkpt>
      <trkpt lat="42.1979570" lon="-8.7634430">
        <ele>11.8</ele>
        <time>2021-05-20T09:01:55Z</time>
      </trkpt>
      <trkpt lat="42.1979650" lon="-8.7634170">
        <ele>11.7</ele>
        <time>2021-05-20T09:01:56Z</time>
      </trkpt>
      <trkpt lat="42.1979690" lon="-8.7634060">
        <ele>11.7</ele>
        <time>2021-05-20T09:01:57Z</time>
      </trkpt>
      <trkpt lat="42.1979740" lon="-8.7633960">
        <ele>11.7</ele>
        <time>2021-05-20T09:01:58Z</time>
      </trkpt>
      <trkpt lat="42.1979810" lon="-8.7633800">
        <ele>11.6</ele>
        <time>2021-05-20T09:01:59Z</time>
      </trkpt>
      <trkpt lat="42.1979920" lon="-8.7633640">
        <ele>11.5</ele>
        <time>2021-05-20T09:02:00Z</time>
      </trkpt>
      <trkpt lat="42.1980000" lon="-8.7633520">
        <ele>11.5</ele>
        <time>2021-05-20T09:02:01Z</time>
      </trkpt>
      <trkpt lat="42.1980060" lon="-8.7633380">
        <ele>11.4</ele>
        <time>2021-05-20T09:02:02Z</time>
      </trkpt>
      <trkpt lat="42.1980160" lon="-8.7633290">
        <ele>11.4</ele>
        <time>2021-05-20T09:02:03Z</time>
      </trkpt>
      <trkpt lat="42.1980250" lon="-8.7633160">
        <ele>11.3</ele>
        <time>2021-05-20T09:02:05Z</time>
      </trkpt>
      <trkpt lat="42.1980250" lon="-8.7633080">
        <ele>11.3</ele>
        <time>2021-05-20T09:02:06Z</time>
      </trkpt>
      <trkpt lat="42.1980320" lon="-8.7633000">
        <ele>11.3</ele>
        <time>2021-05-20T09:02:07Z</time>
      </trkpt>
      <trkpt lat="42.1980420" lon="-8.7632840">
        <ele>11.2</ele>
        <time>2021-05-20T09:02:08Z</time>
      </trkpt>
      <trkpt lat="42.1980550" lon="-8.7632710">
        <ele>11.2</ele>
        <time>2021-05-20T09:02:09Z</time>
      </trkpt>
      <trkpt lat="42.1980700" lon="-8.7632370">
        <ele>11.1</ele>
        <time>2021-05-20T09:02:10Z</time>
      </trkpt>
      <trkpt lat="42.1980740" lon="-8.7632240">
        <ele>11.0</ele>
        <time>2021-05-20T09:02:11Z</time>
      </trkpt>
      <trkpt lat="42.1980860" lon="-8.7632040">
        <ele>11.0</ele>
        <time>2021-05-20T09:02:12Z</time>
      </trkpt>
      <trkpt lat="42.1980870" lon="-8.7631930">
        <ele>10.9</ele>
        <time>2021-05-20T09:02:13Z</time>
      </trkpt>
      <trkpt lat="42.1980940" lon="-8.7631820">
        <ele>10.9</ele>
        <time>2021-05-20T09:02:14Z</time>
      </trkpt>
      <trkpt lat="42.1981020" lon="-8.7631700">
        <ele>10.9</ele>
        <time>2021-05-20T09:02:15Z</time>
      </trkpt>
      <trkpt lat="42.1981090" lon="-8.7631470">
        <ele>10.8</ele>
        <time>2021-05-20T09:02:16Z</time>
      </trkpt>
      <trkpt lat="42.1981180" lon="-8.7631300">
        <ele>10.8</ele>
        <time>2021-05-20T09:02:17Z</time>
      </trkpt>
      <trkpt lat="42.1981270" lon="-8.7631170">
        <ele>10.7</ele>
        <time>2021-05-20T09:02:18Z</time>
      </trkpt>
      <trkpt lat="42.1981310" lon="-8.7631040">
        <ele>10.7</ele>
        <time>2021-05-20T09:02:19Z</time>
      </trkpt>
      <trkpt lat="42.1981420" lon="-8.7630870">
        <ele>10.7</ele>
        <time>2021-05-20T09:02:20Z</time>
      </trkpt>
      <trkpt lat="42.1981540" lon="-8.7630630">
        <ele>10.6</ele>
        <time>2021-05-20T09:02:21Z</time>
      </trkpt>
      <trkpt lat="42.1981620" lon="-8.7630510">
        <ele>10.6</ele>
        <time>2021-05-20T09:02:22Z</time>
      </trkpt>
      <trkpt lat="42.1981710" lon="-8.7630400">
        <ele>10.5</ele>
        <time>2021-05-20T09:02:23Z</time>
      </trkpt>
      <trkpt lat="42.1981880" lon="-8.7630110">
        <ele>10.5</ele>
        <time>2021-05-20T09:02:24Z</time>
      </trkpt>
      <trkpt lat="42.1981940" lon="-8.7630040">
        <ele>10.5</ele>
        <time>2021-05-20T09:02:25Z</time>
      </trkpt>
      <trkpt lat="42.1982000" lon="-8.7629960">
        <ele>10.4</ele>
        <time>2021-05-20T09:02:26Z</time>
      </trkpt>
      <trkpt lat="42.1982250" lon="-8.7629710">
        <ele>10.4</ele>
        <time>2021-05-20T09:02:27Z</time>
      </trkpt>
      <trkpt lat="42.1982310" lon="-8.7629630">
        <ele>10.4</ele>
        <time>2021-05-20T09:02:28Z</time>
      </trkpt>
      <trkpt lat="42.1982400" lon="-8.7629290">
        <ele>10.3</ele>
        <time>2021-05-20T09:02:29Z</time>
      </trkpt>
      <trkpt lat="42.1982610" lon="-8.7628970">
        <ele>10.3</ele>
        <time>2021-05-20T09:02:30Z</time>
      </trkpt>
      <trkpt lat="42.1982670" lon="-8.7628900">
        <ele>10.3</ele>
        <time>2021-05-20T09:02:31Z</time>
      </trkpt>
      <trkpt lat="42.1982700" lon="-8.7628720">
        <ele>10.3</ele>
        <time>2021-05-20T09:02:32Z</time>
      </trkpt>
      <trkpt lat="42.1982770" lon="-8.7628550">
        <ele>10.3</ele>
        <time>2021-05-20T09:02:33Z</time>
      </trkpt>
      <trkpt lat="42.1982830" lon="-8.7628430">
        <ele>10.3</ele>
        <time>2021-05-20T09:02:34Z</time>
      </trkpt>
      <trkpt lat="42.1982910" lon="-8.7628310">
        <ele>10.2</ele>
        <time>2021-05-20T09:02:35Z</time>
      </trkpt>
      <trkpt lat="42.1982980" lon="-8.7628230">
        <ele>10.2</ele>
        <time>2021-05-20T09:02:36Z</time>
      </trkpt>
      <trkpt lat="42.1983130" lon="-8.7628010">
        <ele>10.2</ele>
        <time>2021-05-20T09:02:37Z</time>
      </trkpt>
      <trkpt lat="42.1983180" lon="-8.7627890">
        <ele>10.2</ele>
        <time>2021-05-20T09:02:38Z</time>
      </trkpt>
      <trkpt lat="42.1983230" lon="-8.7627780">
        <ele>10.2</ele>
        <time>2021-05-20T09:02:39Z</time>
      </trkpt>
      <trkpt lat="42.1983290" lon="-8.7627620">
        <ele>10.2</ele>
        <time>2021-05-20T09:02:40Z</time>
      </trkpt>
      <trkpt lat="42.1983360" lon="-8.7627480">
        <ele>10.2</ele>
        <time>2021-05-20T09:02:41Z</time>
      </trkpt>
      <trkpt lat="42.1983410" lon="-8.7627370">
        <ele>10.2</ele>
        <time>2021-05-20T09:02:42Z</time>
      </trkpt>
      <trkpt lat="42.1983440" lon="-8.7627280">
        <ele>10.2</ele>
        <time>2021-05-20T09:02:43Z</time>
      </trkpt>
      <trkpt lat="42.1983520" lon="-8.7627100">
        <ele>10.2</ele>
        <time>2021-05-20T09:02:44Z</time>
      </trkpt>
      <trkpt lat="42.1983600" lon="-8.7627000">
        <ele>10.2</ele>
        <time>2021-05-20T09:02:45Z</time>
      </trkpt>
      <trkpt lat="42.1983810" lon="-8.7626740">
        <ele>10.1</ele>
        <time>2021-05-20T09:02:46Z</time>
      </trkpt>
      <trkpt lat="42.1983890" lon="-8.7626640">
        <ele>10.1</ele>
        <time>2021-05-20T09:02:47Z</time>
      </trkpt>
      <trkpt lat="42.1984020" lon="-8.7626450">
        <ele>10.1</ele>
        <time>2021-05-20T09:02:48Z</time>
      </trkpt>
      <trkpt lat="42.1984110" lon="-8.7626330">
        <ele>10.1</ele>
        <time>2021-05-20T09:02:49Z</time>
      </trkpt>
      <trkpt lat="42.1984260" lon="-8.7626040">
        <ele>10.1</ele>
        <time>2021-05-20T09:02:50Z</time>
      </trkpt>
      <trkpt lat="42.1984320" lon="-8.7625910">
        <ele>10.1</ele>
        <time>2021-05-20T09:02:51Z</time>
      </trkpt>
      <trkpt lat="42.1984390" lon="-8.7625870">
        <ele>10.2</ele>
        <time>2021-05-20T09:02:52Z</time>
      </trkpt>
      <trkpt lat="42.1984600" lon="-8.7625690">
        <ele>10.2</ele>
        <time>2021-05-20T09:02:53Z</time>
      </trkpt>
      <trkpt lat="42.1984510" lon="-8.7625640">
        <ele>10.2</ele>
        <time>2021-05-20T09:02:54Z</time>
      </trkpt>
      <trkpt lat="42.1984550" lon="-8.7625520">
        <ele>10.2</ele>
        <time>2021-05-20T09:02:55Z</time>
      </trkpt>
      <trkpt lat="42.1984610" lon="-8.7625400">
        <ele>10.2</ele>
        <time>2021-05-20T09:02:56Z</time>
      </trkpt>
      <trkpt lat="42.1984640" lon="-8.7625270">
        <ele>10.2</ele>
        <time>2021-05-20T09:02:57Z</time>
      </trkpt>
      <trkpt lat="42.1984770" lon="-8.7625170">
        <ele>10.2</ele>
        <time>2021-05-20T09:02:58Z</time>
      </trkpt>
      <trkpt lat="42.1984750" lon="-8.7625100">
        <ele>10.2</ele>
        <time>2021-05-20T09:02:59Z</time>
      </trkpt>
      <trkpt lat="42.1984770" lon="-8.7624910">
        <ele>10.2</ele>
        <time>2021-05-20T09:03:00Z</time>
      </trkpt>
      <trkpt lat="42.1984850" lon="-8.7624750">
        <ele>10.2</ele>
        <time>2021-05-20T09:03:01Z</time>
      </trkpt>
      <trkpt lat="42.1984890" lon="-8.7624680">
        <ele>10.2</ele>
        <time>2021-05-20T09:03:02Z</time>
      </trkpt>
      <trkpt lat="42.1984950" lon="-8.7624570">
        <ele>10.3</ele>
        <time>2021-05-20T09:03:03Z</time>
      </trkpt>
      <trkpt lat="42.1985010" lon="-8.7624310">
        <ele>10.3</ele>
        <time>2021-05-20T09:03:04Z</time>
      </trkpt>
      <trkpt lat="42.1985010" lon="-8.7624180">
        <ele>10.3</ele>
        <time>2021-05-20T09:03:05Z</time>
      </trkpt>
      <trkpt lat="42.1985020" lon="-8.7624040">
        <ele>10.3</ele>
        <time>2021-05-20T09:03:06Z</time>
      </trkpt>
      <trkpt lat="42.1985120" lon="-8.7623930">
        <ele>10.3</ele>
        <time>2021-05-20T09:03:07Z</time>
      </trkpt>
      <trkpt lat="42.1985080" lon="-8.7623850">
        <ele>10.4</ele>
        <time>2021-05-20T09:03:08Z</time>
      </trkpt>
      <trkpt lat="42.1985080" lon="-8.7623790">
        <ele>10.4</ele>
        <time>2021-05-20T09:03:09Z</time>
      </trkpt>
      <trkpt lat="42.1985140" lon="-8.7623680">
        <ele>10.4</ele>
        <time>2021-05-20T09:03:10Z</time>
      </trkpt>
      <trkpt lat="42.1985200" lon="-8.7623430">
        <ele>10.4</ele>
        <time>2021-05-20T09:03:11Z</time>
      </trkpt>
      <trkpt lat="42.1985230" lon="-8.7623310">
        <ele>10.5</ele>
        <time>2021-05-20T09:03:12Z</time>
      </trkpt>
      <trkpt lat="42.1985260" lon="-8.7623190">
        <ele>10.5</ele>
        <time>2021-05-20T09:03:13Z</time>
      </trkpt>
      <trkpt lat="42.1985370" lon="-8.7622940">
        <ele>10.5</ele>
        <time>2021-05-20T09:03:14Z</time>
      </trkpt>
      <trkpt lat="42.1985430" lon="-8.7622860">
        <ele>10.5</ele>
        <time>2021-05-20T09:03:15Z</time>
      </trkpt>
      <trkpt lat="42.1985480" lon="-8.7622780">
        <ele>10.6</ele>
        <time>2021-05-20T09:03:16Z</time>
      </trkpt>
      <trkpt lat="42.1985630" lon="-8.7622600">
        <ele>10.6</ele>
        <time>2021-05-20T09:03:17Z</time>
      </trkpt>
      <trkpt lat="42.1985700" lon="-8.7622450">
        <ele>10.6</ele>
        <time>2021-05-20T09:03:18Z</time>
      </trkpt>
      <trkpt lat="42.1985860" lon="-8.7622360">
        <ele>10.7</ele>
        <time>2021-05-20T09:03:19Z</time>
      </trkpt>
      <trkpt lat="42.1985950" lon="-8.7622270">
        <ele>10.7</ele>
        <time>2021-05-20T09:03:20Z</time>
      </trkpt>
      <trkpt lat="42.1986120" lon="-8.7621960">
        <ele>10.8</ele>
        <time>2021-05-20T09:03:21Z</time>
      </trkpt>
      <trkpt lat="42.1986230" lon="-8.7621810">
        <ele>10.8</ele>
        <time>2021-05-20T09:03:23Z</time>
      </trkpt>
      <trkpt lat="42.1986330" lon="-8.7621670">
        <ele>10.8</ele>
        <time>2021-05-20T09:03:24Z</time>
      </trkpt>
      <trkpt lat="42.1986440" lon="-8.7621520">
        <ele>10.9</ele>
        <time>2021-05-20T09:03:25Z</time>
      </trkpt>
      <trkpt lat="42.1986560" lon="-8.7621240">
        <ele>10.9</ele>
        <time>2021-05-20T09:03:26Z</time>
      </trkpt>
      <trkpt lat="42.1986600" lon="-8.7621130">
        <ele>10.9</ele>
        <time>2021-05-20T09:03:27Z</time>
      </trkpt>
      <trkpt lat="42.1986640" lon="-8.7621030">
        <ele>10.9</ele>
        <time>2021-05-20T09:03:28Z</time>
      </trkpt>
      <trkpt lat="42.1986720" lon="-8.7620860">
        <ele>11.0</ele>
        <time>2021-05-20T09:03:29Z</time>
      </trkpt>
      <trkpt lat="42.1986720" lon="-8.7620730">
        <ele>11.0</ele>
        <time>2021-05-20T09:03:30Z</time>
      </trkpt>
      <trkpt lat="42.1986810" lon="-8.7620630">
        <ele>11.0</ele>
        <time>2021-05-20T09:03:31Z</time>
      </trkpt>
      <trkpt lat="42.1986880" lon="-8.7620490">
        <ele>11.0</ele>
        <time>2021-05-20T09:03:32Z</time>
      </trkpt>
      <trkpt lat="42.1986910" lon="-8.7620420">
        <ele>11.1</ele>
        <time>2021-05-20T09:03:34Z</time>
      </trkpt>
      <trkpt lat="42.1986990" lon="-8.7620290">
        <ele>11.1</ele>
        <time>2021-05-20T09:03:35Z</time>
      </trkpt>
      <trkpt lat="42.1987060" lon="-8.7620080">
        <ele>11.1</ele>
        <time>2021-05-20T09:03:36Z</time>
      </trkpt>
      <trkpt lat="42.1987140" lon="-8.7619960">
        <ele>11.2</ele>
        <time>2021-05-20T09:03:37Z</time>
      </trkpt>
      <trkpt lat="42.1987210" lon="-8.7619850">
        <ele>11.2</ele>
        <time>2021-05-20T09:03:38Z</time>
      </trkpt>
      <trkpt lat="42.1987300" lon="-8.7619730">
        <ele>11.2</ele>
        <time>2021-05-20T09:03:39Z</time>
      </trkpt>
      <trkpt lat="42.1987370" lon="-8.7619530">
        <ele>11.3</ele>
        <time>2021-05-20T09:03:40Z</time>
      </trkpt>
      <trkpt lat="42.1987440" lon="-8.7619380">
        <ele>11.3</ele>
        <time>2021-05-20T09:03:41Z</time>
      </trkpt>
      <trkpt lat="42.1987570" lon="-8.7619230">
        <ele>11.4</ele>
        <time>2021-05-20T09:03:42Z</time>
      </trkpt>
      <trkpt lat="42.1987750" lon="-8.7618970">
        <ele>11.4</ele>
        <time>2021-05-20T09:03:43Z</time>
      </trkpt>
      <trkpt lat="42.1987790" lon="-8.7618870">
        <ele>11.5</ele>
        <time>2021-05-20T09:03:44Z</time>
      </trkpt>
      <trkpt lat="42.1987830" lon="-8.7618760">
        <ele>11.5</ele>
        <time>2021-05-20T09:03:45Z</time>
      </trkpt>
      <trkpt lat="42.1987940" lon="-8.7618490">
        <ele>11.6</ele>
        <time>2021-05-20T09:03:46Z</time>
      </trkpt>
      <trkpt lat="42.1987990" lon="-8.7618390">
        <ele>11.6</ele>
        <time>2021-05-20T09:03:47Z</time>
      </trkpt>
      <trkpt lat="42.1988040" lon="-8.7618280">
        <ele>11.7</ele>
        <time>2021-05-20T09:03:48Z</time>
      </trkpt>
      <trkpt lat="42.1988100" lon="-8.7618150">
        <ele>11.7</ele>
        <time>2021-05-20T09:03:49Z</time>
      </trkpt>
      <trkpt lat="42.1988150" lon="-8.7617980">
        <ele>11.8</ele>
        <time>2021-05-20T09:03:50Z</time>
      </trkpt>
      <trkpt lat="42.1988230" lon="-8.7617890">
        <ele>11.8</ele>
        <time>2021-05-20T09:03:51Z</time>
      </trkpt>
      <trkpt lat="42.1988310" lon="-8.7617780">
        <ele>11.9</ele>
        <time>2021-05-20T09:03:52Z</time>
      </trkpt>
      <trkpt lat="42.1988410" lon="-8.7617590">
        <ele>11.9</ele>
        <time>2021-05-20T09:03:53Z</time>
      </trkpt>
      <trkpt lat="42.1988480" lon="-8.7617520">
        <ele>12.0</ele>
        <time>2021-05-20T09:03:54Z</time>
      </trkpt>
      <trkpt lat="42.1988540" lon="-8.7617370">
        <ele>12.0</ele>
        <time>2021-05-20T09:03:55Z</time>
      </trkpt>
      <trkpt lat="42.1988580" lon="-8.7617230">
        <ele>12.1</ele>
        <time>2021-05-20T09:03:56Z</time>
      </trkpt>
      <trkpt lat="42.1988620" lon="-8.7617130">
        <ele>12.1</ele>
        <time>2021-05-20T09:03:57Z</time>
      </trkpt>
      <trkpt lat="42.1988650" lon="-8.7617000">
        <ele>12.2</ele>
        <time>2021-05-20T09:03:58Z</time>
      </trkpt>
      <trkpt lat="42.1988660" lon="-8.7616850">
        <ele>12.2</ele>
        <time>2021-05-20T09:03:59Z</time>
      </trkpt>
      <trkpt lat="42.1988690" lon="-8.7616770">
        <ele>12.2</ele>
        <time>2021-05-20T09:04:00Z</time>
      </trkpt>
      <trkpt lat="42.1988770" lon="-8.7616550">
        <ele>12.3</ele>
        <time>2021-05-20T09:04:01Z</time>
      </trkpt>
      <trkpt lat="42.1988790" lon="-8.7616440">
        <ele>12.3</ele>
        <time>2021-05-20T09:04:02Z</time>
      </trkpt>
      <trkpt lat="42.1988950" lon="-8.7616240">
        <ele>12.4</ele>
        <time>2021-05-20T09:04:03Z</time>
      </trkpt>
      <trkpt lat="42.1989060" lon="-8.7616150">
        <ele>12.5</ele>
        <time>2021-05-20T09:04:04Z</time>
      </trkpt>
      <trkpt lat="42.1989160" lon="-8.7616050">
        <ele>12.6</ele>
        <time>2021-05-20T09:04:05Z</time>
      </trkpt>
      <trkpt lat="42.1989250" lon="-8.7615830">
        <ele>12.6</ele>
        <time>2021-05-20T09:04:06Z</time>
      </trkpt>
      <trkpt lat="42.1989340" lon="-8.7615660">
        <ele>12.7</ele>
        <time>2021-05-20T09:04:07Z</time>
      </trkpt>
      <trkpt lat="42.1989420" lon="-8.7615610">
        <ele>12.8</ele>
        <time>2021-05-20T09:04:08Z</time>
      </trkpt>
      <trkpt lat="42.1989370" lon="-8.7615550">
        <ele>12.8</ele>
        <time>2021-05-20T09:04:09Z</time>
      </trkpt>
      <trkpt lat="42.1989300" lon="-8.7615400">
        <ele>12.9</ele>
        <time>2021-05-20T09:04:10Z</time>
      </trkpt>
      <trkpt lat="42.1989480" lon="-8.7615250">
        <ele>13.0</ele>
        <time>2021-05-20T09:04:11Z</time>
      </trkpt>
      <trkpt lat="42.1989570" lon="-8.7615080">
        <ele>13.0</ele>
        <time>2021-05-20T09:04:12Z</time>
      </trkpt>
      <trkpt lat="42.1989670" lon="-8.7614870">
        <ele>13.1</ele>
        <time>2021-05-20T09:04:13Z</time>
      </trkpt>
      <trkpt lat="42.1989760" lon="-8.7614620">
        <ele>13.3</ele>
        <time>2021-05-20T09:04:14Z</time>
      </trkpt>
      <trkpt lat="42.1989810" lon="-8.7614540">
        <ele>13.3</ele>
        <time>2021-05-20T09:04:15Z</time>
      </trkpt>
      <trkpt lat="42.1989870" lon="-8.7614450">
        <ele>13.3</ele>
        <time>2021-05-20T09:04:16Z</time>
      </trkpt>
      <trkpt lat="42.1990050" lon="-8.7614180">
        <ele>13.5</ele>
        <time>2021-05-20T09:04:17Z</time>
      </trkpt>
      <trkpt lat="42.1990090" lon="-8.7614090">
        <ele>13.5</ele>
        <time>2021-05-20T09:04:18Z</time>
      </trkpt>
      <trkpt lat="42.1990140" lon="-8.7613990">
        <ele>13.6</ele>
        <time>2021-05-20T09:04:19Z</time>
      </trkpt>
      <trkpt lat="42.1990270" lon="-8.7613820">
        <ele>13.7</ele>
        <time>2021-05-20T09:04:20Z</time>
      </trkpt>
      <trkpt lat="42.1990330" lon="-8.7613710">
        <ele>13.7</ele>
        <time>2021-05-20T09:04:21Z</time>
      </trkpt>
      <trkpt lat="42.1990400" lon="-8.7613590">
        <ele>13.8</ele>
        <time>2021-05-20T09:04:22Z</time>
      </trkpt>
      <trkpt lat="42.1990450" lon="-8.7613460">
        <ele>13.9</ele>
        <time>2021-05-20T09:04:23Z</time>
      </trkpt>
      <trkpt lat="42.1990490" lon="-8.7613330">
        <ele>13.9</ele>
        <time>2021-05-20T09:04:24Z</time>
      </trkpt>
      <trkpt lat="42.1990540" lon="-8.7613150">
        <ele>14.0</ele>
        <time>2021-05-20T09:04:25Z</time>
      </trkpt>
      <trkpt lat="42.1990560" lon="-8.7613020">
        <ele>14.1</ele>
        <time>2021-05-20T09:04:26Z</time>
      </trkpt>
      <trkpt lat="42.1990690" lon="-8.7612900">
        <ele>14.2</ele>
        <time>2021-05-20T09:04:27Z</time>
      </trkpt>
      <trkpt lat="42.1990740" lon="-8.7612790">
        <ele>14.2</ele>
        <time>2021-05-20T09:04:28Z</time>
      </trkpt>
      <trkpt lat="42.1990840" lon="-8.7612620">
        <ele>14.3</ele>
        <time>2021-05-20T09:04:29Z</time>
      </trkpt>
      <trkpt lat="42.1990970" lon="-8.7612530">
        <ele>14.4</ele>
        <time>2021-05-20T09:04:30Z</time>
      </trkpt>
      <trkpt lat="42.1991140" lon="-8.7612270">
        <ele>14.5</ele>
        <time>2021-05-20T09:04:31Z</time>
      </trkpt>
      <trkpt lat="42.1991180" lon="-8.7612180">
        <ele>14.6</ele>
        <time>2021-05-20T09:04:32Z</time>
      </trkpt>
      <trkpt lat="42.1991230" lon="-8.7612090">
        <ele>14.6</ele>
        <time>2021-05-20T09:04:33Z</time>
      </trkpt>
      <trkpt lat="42.1991280" lon="-8.7611960">
        <ele>14.7</ele>
        <time>2021-05-20T09:04:34Z</time>
      </trkpt>
      <trkpt lat="42.1991320" lon="-8.7611670">
        <ele>14.8</ele>
        <time>2021-05-20T09:04:35Z</time>
      </trkpt>
      <trkpt lat="42.1991380" lon="-8.7611500">
        <ele>14.9</ele>
        <time>2021-05-20T09:04:36Z</time>
      </trkpt>
      <trkpt lat="42.1991520" lon="-8.7611380">
        <ele>15.0</ele>
        <time>2021-05-20T09:04:37Z</time>
      </trkpt>
      <trkpt lat="42.1991570" lon="-8.7611270">
        <ele>15.0</ele>
        <time>2021-05-20T09:04:38Z</time>
      </trkpt>
      <trkpt lat="42.1991680" lon="-8.7611090">
        <ele>15.1</ele>
        <time>2021-05-20T09:04:39Z</time>
      </trkpt>
      <trkpt lat="42.1991700" lon="-8.7610960">
        <ele>15.2</ele>
        <time>2021-05-20T09:04:40Z</time>
      </trkpt>
      <trkpt lat="42.1991770" lon="-8.7610750">
        <ele>15.3</ele>
        <time>2021-05-20T09:04:41Z</time>
      </trkpt>
      <trkpt lat="42.1991860" lon="-8.7610610">
        <ele>15.4</ele>
        <time>2021-05-20T09:04:42Z</time>
      </trkpt>
      <trkpt lat="42.1991920" lon="-8.7610490">
        <ele>15.4</ele>
        <time>2021-05-20T09:04:43Z</time>
      </trkpt>
      <trkpt lat="42.1991950" lon="-8.7610350">
        <ele>15.5</ele>
        <time>2021-05-20T09:04:44Z</time>
      </trkpt>
      <trkpt lat="42.1992010" lon="-8.7610180">
        <ele>15.7</ele>
        <time>2021-05-20T09:04:45Z</time>
      </trkpt>
      <trkpt lat="42.1992110" lon="-8.7609970">
        <ele>15.7</ele>
        <time>2021-05-20T09:04:46Z</time>
      </trkpt>
      <trkpt lat="42.1992180" lon="-8.7609880">
        <ele>15.8</ele>
        <time>2021-05-20T09:04:47Z</time>
      </trkpt>
      <trkpt lat="42.1992240" lon="-8.7609790">
        <ele>15.8</ele>
        <time>2021-05-20T09:04:48Z</time>
      </trkpt>
      <trkpt lat="42.1992310" lon="-8.7609630">
        <ele>15.8</ele>
        <time>2021-05-20T09:04:49Z</time>
      </trkpt>
      <trkpt lat="42.1992310" lon="-8.7609570">
        <ele>15.8</ele>
        <time>2021-05-20T09:04:50Z</time>
      </trkpt>
      <trkpt lat="42.1992330" lon="-8.7609490">
        <ele>15.9</ele>
        <time>2021-05-20T09:04:51Z</time>
      </trkpt>
      <trkpt lat="42.1992330" lon="-8.7609370">
        <ele>15.9</ele>
        <time>2021-05-20T09:04:52Z</time>
      </trkpt>
      <trkpt lat="42.1992270" lon="-8.7609260">
        <ele>15.9</ele>
        <time>2021-05-20T09:04:53Z</time>
      </trkpt>
      <trkpt lat="42.1992310" lon="-8.7609150">
        <ele>15.9</ele>
        <time>2021-05-20T09:04:54Z</time>
      </trkpt>
      <trkpt lat="42.1992410" lon="-8.7609010">
        <ele>16.0</ele>
        <time>2021-05-20T09:04:55Z</time>
      </trkpt>
      <trkpt lat="42.1992490" lon="-8.7608810">
        <ele>16.0</ele>
        <time>2021-05-20T09:04:56Z</time>
      </trkpt>
      <trkpt lat="42.1992590" lon="-8.7608670">
        <ele>16.0</ele>
        <time>2021-05-20T09:04:57Z</time>
      </trkpt>
      <trkpt lat="42.1992650" lon="-8.7608560">
        <ele>16.1</ele>
        <time>2021-05-20T09:04:58Z</time>
      </trkpt>
      <trkpt lat="42.1992750" lon="-8.7608430">
        <ele>16.1</ele>
        <time>2021-05-20T09:04:59Z</time>
      </trkpt>
      <trkpt lat="42.1992790" lon="-8.7608300">
        <ele>16.1</ele>
        <time>2021-05-20T09:05:00Z</time>
      </trkpt>
      <trkpt lat="42.1992960" lon="-8.7608160">
        <ele>16.2</ele>
        <time>2021-05-20T09:05:01Z</time>
      </trkpt>
      <trkpt lat="42.1993030" lon="-8.7608100">
        <ele>16.2</ele>
        <time>2021-05-20T09:05:02Z</time>
      </trkpt>
      <trkpt lat="42.1993110" lon="-8.7608030">
        <ele>16.2</ele>
        <time>2021-05-20T09:05:03Z</time>
      </trkpt>
      <trkpt lat="42.1993240" lon="-8.7607900">
        <ele>16.2</ele>
        <time>2021-05-20T09:05:04Z</time>
      </trkpt>
      <trkpt lat="42.1993380" lon="-8.7607750">
        <ele>16.3</ele>
        <time>2021-05-20T09:05:05Z</time>
      </trkpt>
      <trkpt lat="42.1993510" lon="-8.7607570">
        <ele>16.3</ele>
        <time>2021-05-20T09:05:06Z</time>
      </trkpt>
      <trkpt lat="42.1993560" lon="-8.7607380">
        <ele>16.4</ele>
        <time>2021-05-20T09:05:07Z</time>
      </trkpt>
      <trkpt lat="42.1993710" lon="-8.7607230">
        <ele>16.4</ele>
        <time>2021-05-20T09:05:08Z</time>
      </trkpt>
      <trkpt lat="42.1993800" lon="-8.7607170">
        <ele>16.4</ele>
        <time>2021-05-20T09:05:09Z</time>
      </trkpt>
      <trkpt lat="42.1993880" lon="-8.7607100">
        <ele>16.4</ele>
        <time>2021-05-20T09:05:10Z</time>
      </trkpt>
      <trkpt lat="42.1993970" lon="-8.7606890">
        <ele>16.5</ele>
        <time>2021-05-20T09:05:11Z</time>
      </trkpt>
      <trkpt lat="42.1994010" lon="-8.7606770">
        <ele>16.5</ele>
        <time>2021-05-20T09:05:12Z</time>
      </trkpt>
      <trkpt lat="42.1994010" lon="-8.7606590">
        <ele>16.5</ele>
        <time>2021-05-20T09:05:13Z</time>
      </trkpt>
      <trkpt lat="42.1994040" lon="-8.7606510">
        <ele>16.5</ele>
        <time>2021-05-20T09:05:14Z</time>
      </trkpt>
      <trkpt lat="42.1994070" lon="-8.7606330">
        <ele>16.5</ele>
        <time>2021-05-20T09:05:15Z</time>
      </trkpt>
      <trkpt lat="42.1994200" lon="-8.7606060">
        <ele>16.6</ele>
        <time>2021-05-20T09:05:16Z</time>
      </trkpt>
      <trkpt lat="42.1994250" lon="-8.7605940">
        <ele>16.6</ele>
        <time>2021-05-20T09:05:17Z</time>
      </trkpt>
      <trkpt lat="42.1994310" lon="-8.7605810">
        <ele>16.6</ele>
        <time>2021-05-20T09:05:18Z</time>
      </trkpt>
      <trkpt lat="42.1994360" lon="-8.7605660">
        <ele>16.6</ele>
        <time>2021-05-20T09:05:19Z</time>
      </trkpt>
      <trkpt lat="42.1994450" lon="-8.7605480">
        <ele>16.7</ele>
        <time>2021-05-20T09:05:20Z</time>
      </trkpt>
      <trkpt lat="42.1994490" lon="-8.7605330">
        <ele>16.7</ele>
        <time>2021-05-20T09:05:21Z</time>
      </trkpt>
      <trkpt lat="42.1994550" lon="-8.7605150">
        <ele>16.7</ele>
        <time>2021-05-20T09:05:22Z</time>
      </trkpt>
      <trkpt lat="42.1994560" lon="-8.7605010">
        <ele>16.7</ele>
        <time>2021-05-20T09:05:23Z</time>
      </trkpt>
      <trkpt lat="42.1994660" lon="-8.7604900">
        <ele>16.7</ele>
        <time>2021-05-20T09:05:24Z</time>
      </trkpt>
      <trkpt lat="42.1994630" lon="-8.7604730">
        <ele>16.7</ele>
        <time>2021-05-20T09:05:25Z</time>
      </trkpt>
      <trkpt lat="42.1994670" lon="-8.7604590">
        <ele>16.7</ele>
        <time>2021-05-20T09:05:26Z</time>
      </trkpt>
      <trkpt lat="42.1994750" lon="-8.7604400">
        <ele>16.8</ele>
        <time>2021-05-20T09:05:27Z</time>
      </trkpt>
      <trkpt lat="42.1994770" lon="-8.7604300">
        <ele>16.8</ele>
        <time>2021-05-20T09:05:29Z</time>
      </trkpt>
      <trkpt lat="42.1994830" lon="-8.7604180">
        <ele>16.8</ele>
        <time>2021-05-20T09:05:30Z</time>
      </trkpt>
      <trkpt lat="42.1994830" lon="-8.7604100">
        <ele>16.8</ele>
        <time>2021-05-20T09:05:31Z</time>
      </trkpt>
      <trkpt lat="42.1994880" lon="-8.7603940">
        <ele>16.8</ele>
        <time>2021-05-20T09:05:32Z</time>
      </trkpt>
      <trkpt lat="42.1994940" lon="-8.7603790">
        <ele>16.8</ele>
        <time>2021-05-20T09:05:33Z</time>
      </trkpt>
      <trkpt lat="42.1994960" lon="-8.7603660">
        <ele>16.8</ele>
        <time>2021-05-20T09:05:34Z</time>
      </trkpt>
      <trkpt lat="42.1995000" lon="-8.7603530">
        <ele>16.8</ele>
        <time>2021-05-20T09:05:35Z</time>
      </trkpt>
      <trkpt lat="42.1995030" lon="-8.7603470">
        <ele>16.8</ele>
        <time>2021-05-20T09:05:36Z</time>
      </trkpt>
      <trkpt lat="42.1995030" lon="-8.7603510">
        <ele>16.8</ele>
        <time>2021-05-20T09:05:37Z</time>
      </trkpt>
      <trkpt lat="42.1995050" lon="-8.7603520">
        <ele>16.9</ele>
        <time>2021-05-20T09:05:38Z</time>
      </trkpt>
      <trkpt lat="42.1994990" lon="-8.7603530">
        <ele>16.9</ele>
        <time>2021-05-20T09:05:39Z</time>
      </trkpt>
      <trkpt lat="42.1994970" lon="-8.7603580">
        <ele>16.9</ele>
        <time>2021-05-20T09:05:40Z</time>
      </trkpt>
      <trkpt lat="42.1994950" lon="-8.7603550">
        <ele>16.9</ele>
        <time>2021-05-20T09:05:41Z</time>
      </trkpt>
      <trkpt lat="42.1994940" lon="-8.7603580">
        <ele>16.9</ele>
        <time>2021-05-20T09:05:42Z</time>
      </trkpt>
      <trkpt lat="42.1994900" lon="-8.7603580">
        <ele>16.9</ele>
        <time>2021-05-20T09:05:43Z</time>
      </trkpt>
      <trkpt lat="42.1994920" lon="-8.7603680">
        <ele>16.9</ele>
        <time>2021-05-20T09:05:44Z</time>
      </trkpt>
      <trkpt lat="42.1994900" lon="-8.7603700">
        <ele>16.9</ele>
        <time>2021-05-20T09:05:45Z</time>
      </trkpt>
      <trkpt lat="42.1994900" lon="-8.7603740">
        <ele>16.9</ele>
        <time>2021-05-20T09:05:46Z</time>
      </trkpt>
      <trkpt lat="42.1994920" lon="-8.7603760">
        <ele>16.9</ele>
        <time>2021-05-20T09:05:47Z</time>
      </trkpt>
      <trkpt lat="42.1994930" lon="-8.7603590">
        <ele>16.9</ele>
        <time>2021-05-20T09:05:48Z</time>
      </trkpt>
      <trkpt lat="42.1994840" lon="-8.7603720">
        <ele>16.9</ele>
        <time>2021-05-20T09:05:49Z</time>
      </trkpt>
      <trkpt lat="42.1994800" lon="-8.7603660">
        <ele>16.9</ele>
        <time>2021-05-20T09:05:50Z</time>
      </trkpt>
      <trkpt lat="42.1994770" lon="-8.7603710">
        <ele>16.9</ele>
        <time>2021-05-20T09:05:51Z</time>
      </trkpt>
      <trkpt lat="42.1994730" lon="-8.7603690">
        <ele>16.9</ele>
        <time>2021-05-20T09:05:52Z</time>
      </trkpt>
      <trkpt lat="42.1994730" lon="-8.7603680">
        <ele>16.9</ele>
        <time>2021-05-20T09:05:53Z</time>
      </trkpt>
      <trkpt lat="42.1994670" lon="-8.7603640">
        <ele>16.9</ele>
        <time>2021-05-20T09:05:54Z</time>
      </trkpt>
      <trkpt lat="42.1994690" lon="-8.7603630">
        <ele>16.9</ele>
        <time>2021-05-20T09:05:55Z</time>
      </trkpt>
      <trkpt lat="42.1994710" lon="-8.7603620">
        <ele>16.9</ele>
        <time>2021-05-20T09:05:56Z</time>
      </trkpt>
      <trkpt lat="42.1994730" lon="-8.7603640">
        <ele>16.9</ele>
        <time>2021-05-20T09:05:57Z</time>
      </trkpt>
      <trkpt lat="42.1994740" lon="-8.7603550">
        <ele>16.9</ele>
        <time>2021-05-20T09:05:58Z</time>
      </trkpt>
      <trkpt lat="42.1994740" lon="-8.7603550">
        <ele>16.9</ele>
        <time>2021-05-20T09:05:59Z</time>
      </trkpt>
      <trkpt lat="42.1994740" lon="-8.7603550">
        <ele>16.9</ele>
        <time>2021-05-20T09:06:00Z</time>
      </trkpt>
      <trkpt lat="42.1994750" lon="-8.7603550">
        <ele>16.9</ele>
        <time>2021-05-20T09:06:01Z</time>
      </trkpt>
      <trkpt lat="42.1994750" lon="-8.7603550">
        <ele>16.9</ele>
        <time>2021-05-20T09:06:02Z</time>
      </trkpt>
      <trkpt lat="42.1994740" lon="-8.7603540">
        <ele>16.9</ele>
        <time>2021-05-20T09:06:03Z</time>
      </trkpt>
      <trkpt lat="42.1994740" lon="-8.7603540">
        <ele>16.9</ele>
        <time>2021-05-20T09:06:04Z</time>
      </trkpt>
      <trkpt lat="42.1994730" lon="-8.7603520">
        <ele>16.9</ele>
        <time>2021-05-20T09:06:05Z</time>
      </trkpt>
      <trkpt lat="42.1994750" lon="-8.7603510">
        <ele>16.9</ele>
        <time>2021-05-20T09:06:06Z</time>
      </trkpt>
      <trkpt lat="42.1994750" lon="-8.7603500">
        <ele>16.9</ele>
        <time>2021-05-20T09:06:07Z</time>
      </trkpt>
      <trkpt lat="42.1994740" lon="-8.7603460">
        <ele>16.9</ele>
        <time>2021-05-20T09:06:08Z</time>
      </trkpt>
      <trkpt lat="42.1994720" lon="-8.7603460">
        <ele>16.9</ele>
        <time>2021-05-20T09:06:09Z</time>
      </trkpt>
      <trkpt lat="42.1994720" lon="-8.7603470">
        <ele>16.9</ele>
        <time>2021-05-20T09:06:10Z</time>
      </trkpt>
      <trkpt lat="42.1994700" lon="-8.7603460">
        <ele>16.9</ele>
        <time>2021-05-20T09:06:11Z</time>
      </trkpt>
      <trkpt lat="42.1994690" lon="-8.7603450">
        <ele>16.9</ele>
        <time>2021-05-20T09:06:12Z</time>
      </trkpt>
      <trkpt lat="42.1994700" lon="-8.7603450">
        <ele>16.9</ele>
        <time>2021-05-20T09:06:13Z</time>
      </trkpt>
      <trkpt lat="42.1994710" lon="-8.7603430">
        <ele>16.9</ele>
        <time>2021-05-20T09:06:14Z</time>
      </trkpt>
      <trkpt lat="42.1994670" lon="-8.7603430">
        <ele>16.9</ele>
        <time>2021-05-20T09:06:15Z</time>
      </trkpt>
      <trkpt lat="42.1994680" lon="-8.7603460">
        <ele>16.9</ele>
        <time>2021-05-20T09:06:16Z</time>
      </trkpt>
      <trkpt lat="42.1994680" lon="-8.7603450">
        <ele>16.9</ele>
        <time>2021-05-20T09:06:17Z</time>
      </trkpt>
      <trkpt lat="42.1994660" lon="-8.7603420">
        <ele>17.0</ele>
        <time>2021-05-20T09:06:18Z</time>
      </trkpt>
      <trkpt lat="42.1994640" lon="-8.7603400">
        <ele>17.0</ele>
        <time>2021-05-20T09:06:19Z</time>
      </trkpt>
      <trkpt lat="42.1994600" lon="-8.7603380">
        <ele>17.0</ele>
        <time>2021-05-20T09:06:20Z</time>
      </trkpt>
      <trkpt lat="42.1994580" lon="-8.7603360">
        <ele>17.0</ele>
        <time>2021-05-20T09:06:21Z</time>
      </trkpt>
      <trkpt lat="42.1994570" lon="-8.7603380">
        <ele>17.0</ele>
        <time>2021-05-20T09:06:22Z</time>
      </trkpt>
      <trkpt lat="42.1994580" lon="-8.7603380">
        <ele>17.0</ele>
        <time>2021-05-20T09:06:23Z</time>
      </trkpt>
      <trkpt lat="42.1994620" lon="-8.7603390">
        <ele>17.0</ele>
        <time>2021-05-20T09:06:24Z</time>
      </trkpt>
      <trkpt lat="42.1994630" lon="-8.7603440">
        <ele>17.0</ele>
        <time>2021-05-20T09:06:25Z</time>
      </trkpt>
      <trkpt lat="42.1994640" lon="-8.7603450">
        <ele>17.0</ele>
        <time>2021-05-20T09:06:26Z</time>
      </trkpt>
      <trkpt lat="42.1994660" lon="-8.7603450">
        <ele>17.0</ele>
        <time>2021-05-20T09:06:27Z</time>
      </trkpt>
      <trkpt lat="42.1994680" lon="-8.7603450">
        <ele>17.0</ele>
        <time>2021-05-20T09:06:28Z</time>
      </trkpt>
      <trkpt lat="42.1994690" lon="-8.7603480">
        <ele>17.0</ele>
        <time>2021-05-20T09:06:29Z</time>
      </trkpt>
      <trkpt lat="42.1994670" lon="-8.7603510">
        <ele>17.0</ele>
        <time>2021-05-20T09:06:30Z</time>
      </trkpt>
      <trkpt lat="42.1994660" lon="-8.7603550">
        <ele>17.0</ele>
        <time>2021-05-20T09:06:31Z</time>
      </trkpt>
      <trkpt lat="42.1994690" lon="-8.7603580">
        <ele>17.0</ele>
        <time>2021-05-20T09:06:32Z</time>
      </trkpt>
      <trkpt lat="42.1994700" lon="-8.7603620">
        <ele>17.0</ele>
        <time>2021-05-20T09:06:33Z</time>
      </trkpt>
      <trkpt lat="42.1994700" lon="-8.7603650">
        <ele>17.0</ele>
        <time>2021-05-20T09:06:34Z</time>
      </trkpt>
      <trkpt lat="42.1994690" lon="-8.7603650">
        <ele>17.0</ele>
        <time>2021-05-20T09:06:35Z</time>
      </trkpt>
      <trkpt lat="42.1994700" lon="-8.7603660">
        <ele>17.0</ele>
        <time>2021-05-20T09:06:36Z</time>
      </trkpt>
      <trkpt lat="42.1994720" lon="-8.7603660">
        <ele>17.0</ele>
        <time>2021-05-20T09:06:37Z</time>
      </trkpt>
      <trkpt lat="42.1994740" lon="-8.7603680">
        <ele>17.0</ele>
        <time>2021-05-20T09:06:38Z</time>
      </trkpt>
      <trkpt lat="42.1994750" lon="-8.7603670">
        <ele>17.0</ele>
        <time>2021-05-20T09:06:39Z</time>
      </trkpt>
      <trkpt lat="42.1994740" lon="-8.7603680">
        <ele>17.0</ele>
        <time>2021-05-20T09:06:40Z</time>
      </trkpt>
      <trkpt lat="42.1994750" lon="-8.7603730">
        <ele>17.0</ele>
        <time>2021-05-20T09:06:41Z</time>
      </trkpt>
      <trkpt lat="42.1994740" lon="-8.7603730">
        <ele>17.0</ele>
        <time>2021-05-20T09:06:42Z</time>
      </trkpt>
      <trkpt lat="42.1994740" lon="-8.7603740">
        <ele>17.0</ele>
        <time>2021-05-20T09:06:43Z</time>
      </trkpt>
      <trkpt lat="42.1994700" lon="-8.7603740">
        <ele>17.0</ele>
        <time>2021-05-20T09:06:44Z</time>
      </trkpt>
      <trkpt lat="42.1994680" lon="-8.7603750">
        <ele>17.0</ele>
        <time>2021-05-20T09:06:45Z</time>
      </trkpt>
      <trkpt lat="42.1994660" lon="-8.7603740">
        <ele>17.0</ele>
        <time>2021-05-20T09:06:46Z</time>
      </trkpt>
      <trkpt lat="42.1994660" lon="-8.7603730">
        <ele>17.0</ele>
        <time>2021-05-20T09:06:47Z</time>
      </trkpt>
      <trkpt lat="42.1994620" lon="-8.7603730">
        <ele>17.0</ele>
        <time>2021-05-20T09:06:48Z</time>
      </trkpt>
      <trkpt lat="42.1994610" lon="-8.7603710">
        <ele>17.0</ele>
        <time>2021-05-20T09:06:49Z</time>
      </trkpt>
      <trkpt lat="42.1994620" lon="-8.7603720">
        <ele>17.0</ele>
        <time>2021-05-20T09:06:50Z</time>
      </trkpt>
      <trkpt lat="42.1994620" lon="-8.7603710">
        <ele>17.0</ele>
        <time>2021-05-20T09:06:51Z</time>
      </trkpt>
      <trkpt lat="42.1994630" lon="-8.7603690">
        <ele>17.0</ele>
        <time>2021-05-20T09:06:52Z</time>
      </trkpt>
      <trkpt lat="42.1994630" lon="-8.7603690">
        <ele>17.0</ele>
        <time>2021-05-20T09:06:53Z</time>
      </trkpt>
      <trkpt lat="42.1994640" lon="-8.7603690">
        <ele>17.0</ele>
        <time>2021-05-20T09:06:54Z</time>
      </trkpt>
      <trkpt lat="42.1994640" lon="-8.7603680">
        <ele>17.0</ele>
        <time>2021-05-20T09:06:55Z</time>
      </trkpt>
      <trkpt lat="42.1994650" lon="-8.7603690">
        <ele>17.0</ele>
        <time>2021-05-20T09:06:56Z</time>
      </trkpt>
      <trkpt lat="42.1994630" lon="-8.7603680">
        <ele>17.0</ele>
        <time>2021-05-20T09:06:57Z</time>
      </trkpt>
      <trkpt lat="42.1994620" lon="-8.7603690">
        <ele>17.0</ele>
        <time>2021-05-20T09:06:58Z</time>
      </trkpt>
      <trkpt lat="42.1994600" lon="-8.7603660">
        <ele>17.0</ele>
        <time>2021-05-20T09:06:59Z</time>
      </trkpt>
      <trkpt lat="42.1994600" lon="-8.7603640">
        <ele>17.0</ele>
        <time>2021-05-20T09:07:00Z</time>
      </trkpt>
      <trkpt lat="42.1994600" lon="-8.7603580">
        <ele>17.0</ele>
        <time>2021-05-20T09:07:01Z</time>
      </trkpt>
      <trkpt lat="42.1994630" lon="-8.7603520">
        <ele>17.0</ele>
        <time>2021-05-20T09:07:02Z</time>
      </trkpt>
      <trkpt lat="42.1994610" lon="-8.7603490">
        <ele>17.0</ele>
        <time>2021-05-20T09:07:03Z</time>
      </trkpt>
      <trkpt lat="42.1994600" lon="-8.7603480">
        <ele>17.0</ele>
        <time>2021-05-20T09:07:04Z</time>
      </trkpt>
      <trkpt lat="42.1994600" lon="-8.7603480">
        <ele>17.0</ele>
        <time>2021-05-20T09:07:05Z</time>
      </trkpt>
      <trkpt lat="42.1994570" lon="-8.7603470">
        <ele>17.0</ele>
        <time>2021-05-20T09:07:06Z</time>
      </trkpt>
      <trkpt lat="42.1994560" lon="-8.7603430">
        <ele>17.0</ele>
        <time>2021-05-20T09:07:07Z</time>
      </trkpt>
      <trkpt lat="42.1994560" lon="-8.7603370">
        <ele>17.0</ele>
        <time>2021-05-20T09:07:08Z</time>
      </trkpt>
      <trkpt lat="42.1994600" lon="-8.7603360">
        <ele>17.0</ele>
        <time>2021-05-20T09:07:09Z</time>
      </trkpt>
      <trkpt lat="42.1994620" lon="-8.7603330">
        <ele>17.0</ele>
        <time>2021-05-20T09:07:10Z</time>
      </trkpt>
      <trkpt lat="42.1994640" lon="-8.7603310">
        <ele>17.0</ele>
        <time>2021-05-20T09:07:11Z</time>
      </trkpt>
      <trkpt lat="42.1994640" lon="-8.7603290">
        <ele>17.0</ele>
        <time>2021-05-20T09:07:12Z</time>
      </trkpt>
      <trkpt lat="42.1994630" lon="-8.7603260">
        <ele>17.0</ele>
        <time>2021-05-20T09:07:13Z</time>
      </trkpt>
      <trkpt lat="42.1994650" lon="-8.7603220">
        <ele>17.0</ele>
        <time>2021-05-20T09:07:14Z</time>
      </trkpt>
      <trkpt lat="42.1994680" lon="-8.7603200">
        <ele>17.0</ele>
        <time>2021-05-20T09:07:15Z</time>
      </trkpt>
      <trkpt lat="42.1994730" lon="-8.7603210">
        <ele>17.1</ele>
        <time>2021-05-20T09:07:16Z</time>
      </trkpt>
      <trkpt lat="42.1994780" lon="-8.7603200">
        <ele>17.1</ele>
        <time>2021-05-20T09:07:17Z</time>
      </trkpt>
      <trkpt lat="42.1994840" lon="-8.7603230">
        <ele>17.1</ele>
        <time>2021-05-20T09:07:18Z</time>
      </trkpt>
      <trkpt lat="42.1994860" lon="-8.7603230">
        <ele>17.1</ele>
        <time>2021-05-20T09:07:19Z</time>
      </trkpt>
      <trkpt lat="42.1994880" lon="-8.7603210">
        <ele>17.1</ele>
        <time>2021-05-20T09:07:20Z</time>
      </trkpt>
      <trkpt lat="42.1994880" lon="-8.7603200">
        <ele>17.1</ele>
        <time>2021-05-20T09:07:21Z</time>
      </trkpt>
      <trkpt lat="42.1994870" lon="-8.7603210">
        <ele>17.1</ele>
        <time>2021-05-20T09:07:22Z</time>
      </trkpt>
      <trkpt lat="42.1994870" lon="-8.7603220">
        <ele>17.1</ele>
        <time>2021-05-20T09:07:23Z</time>
      </trkpt>
      <trkpt lat="42.1994850" lon="-8.7603190">
        <ele>17.1</ele>
        <time>2021-05-20T09:07:24Z</time>
      </trkpt>
      <trkpt lat="42.1994840" lon="-8.7603190">
        <ele>17.1</ele>
        <time>2021-05-20T09:07:25Z</time>
      </trkpt>
      <trkpt lat="42.1994850" lon="-8.7603200">
        <ele>17.1</ele>
        <time>2021-05-20T09:07:26Z</time>
      </trkpt>
      <trkpt lat="42.1994810" lon="-8.7603200">
        <ele>17.1</ele>
        <time>2021-05-20T09:07:27Z</time>
      </trkpt>
      <trkpt lat="42.1994800" lon="-8.7603210">
        <ele>17.1</ele>
        <time>2021-05-20T09:07:28Z</time>
      </trkpt>
      <trkpt lat="42.1994770" lon="-8.7603210">
        <ele>17.1</ele>
        <time>2021-05-20T09:07:29Z</time>
      </trkpt>
      <trkpt lat="42.1994760" lon="-8.7603240">
        <ele>17.1</ele>
        <time>2021-05-20T09:07:30Z</time>
      </trkpt>
      <trkpt lat="42.1994750" lon="-8.7603250">
        <ele>17.1</ele>
        <time>2021-05-20T09:07:31Z</time>
      </trkpt>
      <trkpt lat="42.1994720" lon="-8.7603250">
        <ele>17.1</ele>
        <time>2021-05-20T09:07:32Z</time>
      </trkpt>
      <trkpt lat="42.1994720" lon="-8.7603270">
        <ele>17.1</ele>
        <time>2021-05-20T09:07:33Z</time>
      </trkpt>
      <trkpt lat="42.1994690" lon="-8.7603260">
        <ele>17.1</ele>
        <time>2021-05-20T09:07:34Z</time>
      </trkpt>
      <trkpt lat="42.1994640" lon="-8.7603250">
        <ele>17.1</ele>
        <time>2021-05-20T09:07:35Z</time>
      </trkpt>
      <trkpt lat="42.1994610" lon="-8.7603230">
        <ele>17.1</ele>
        <time>2021-05-20T09:07:36Z</time>
      </trkpt>
      <trkpt lat="42.1994590" lon="-8.7603210">
        <ele>17.1</ele>
        <time>2021-05-20T09:07:37Z</time>
      </trkpt>
      <trkpt lat="42.1994590" lon="-8.7603210">
        <ele>17.1</ele>
        <time>2021-05-20T09:07:38Z</time>
      </trkpt>
      <trkpt lat="42.1994590" lon="-8.7603210">
        <ele>17.1</ele>
        <time>2021-05-20T09:07:39Z</time>
      </trkpt>
      <trkpt lat="42.1994560" lon="-8.7603190">
        <ele>17.1</ele>
        <time>2021-05-20T09:07:40Z</time>
      </trkpt>
      <trkpt lat="42.1994520" lon="-8.7603180">
        <ele>17.1</ele>
        <time>2021-05-20T09:07:41Z</time>
      </trkpt>
      <trkpt lat="42.1994520" lon="-8.7603160">
        <ele>17.1</ele>
        <time>2021-05-20T09:07:42Z</time>
      </trkpt>
      <trkpt lat="42.1994490" lon="-8.7603160">
        <ele>17.1</ele>
        <time>2021-05-20T09:07:43Z</time>
      </trkpt>
      <trkpt lat="42.1994480" lon="-8.7603130">
        <ele>17.1</ele>
        <time>2021-05-20T09:07:44Z</time>
      </trkpt>
      <trkpt lat="42.1994510" lon="-8.7603120">
        <ele>17.1</ele>
        <time>2021-05-20T09:07:45Z</time>
      </trkpt>
      <trkpt lat="42.1994580" lon="-8.7603160">
        <ele>17.1</ele>
        <time>2021-05-20T09:07:47Z</time>
      </trkpt>
      <trkpt lat="42.1994620" lon="-8.7603150">
        <ele>17.1</ele>
        <time>2021-05-20T09:07:48Z</time>
      </trkpt>
      <trkpt lat="42.1994640" lon="-8.7603130">
        <ele>17.1</ele>
        <time>2021-05-20T09:07:49Z</time>
      </trkpt>
      <trkpt lat="42.1994670" lon="-8.7603140">
        <ele>17.1</ele>
        <time>2021-05-20T09:07:50Z</time>
      </trkpt>
      <trkpt lat="42.1994670" lon="-8.7603090">
        <ele>17.1</ele>
        <time>2021-05-20T09:07:51Z</time>
      </trkpt>
      <trkpt lat="42.1994690" lon="-8.7603110">
        <ele>17.1</ele>
        <time>2021-05-20T09:07:52Z</time>
      </trkpt>
      <trkpt lat="42.1994750" lon="-8.7603050">
        <ele>17.1</ele>
        <time>2021-05-20T09:07:53Z</time>
      </trkpt>
      <trkpt lat="42.1994930" lon="-8.7603010">
        <ele>17.2</ele>
        <time>2021-05-20T09:07:54Z</time>
      </trkpt>
      <trkpt lat="42.1994990" lon="-8.7603010">
        <ele>17.2</ele>
        <time>2021-05-20T09:07:55Z</time>
      </trkpt>
      <trkpt lat="42.1995050" lon="-8.7602980">
        <ele>17.2</ele>
        <time>2021-05-20T09:07:56Z</time>
      </trkpt>
      <trkpt lat="42.1995100" lon="-8.7602890">
        <ele>17.2</ele>
        <time>2021-05-20T09:07:57Z</time>
      </trkpt>
      <trkpt lat="42.1995140" lon="-8.7602780">
        <ele>17.2</ele>
        <time>2021-05-20T09:07:58Z</time>
      </trkpt>
      <trkpt lat="42.1995300" lon="-8.7602720">
        <ele>17.2</ele>
        <time>2021-05-20T09:07:59Z</time>
      </trkpt>
      <trkpt lat="42.1995300" lon="-8.7602620">
        <ele>17.2</ele>
        <time>2021-05-20T09:08:00Z</time>
      </trkpt>
      <trkpt lat="42.1995300" lon="-8.7602550">
        <ele>17.2</ele>
        <time>2021-05-20T09:08:01Z</time>
      </trkpt>
      <trkpt lat="42.1995330" lon="-8.7602440">
        <ele>17.2</ele>
        <time>2021-05-20T09:08:02Z</time>
      </trkpt>
      <trkpt lat="42.1995330" lon="-8.7602290">
        <ele>17.2</ele>
        <time>2021-05-20T09:08:03Z</time>
      </trkpt>
      <trkpt lat="42.1995340" lon="-8.7602150">
        <ele>17.2</ele>
        <time>2021-05-20T09:08:04Z</time>
      </trkpt>
      <trkpt lat="42.1995410" lon="-8.7601960">
        <ele>17.2</ele>
        <time>2021-05-20T09:08:05Z</time>
      </trkpt>
      <trkpt lat="42.1995530" lon="-8.7601810">
        <ele>17.3</ele>
        <time>2021-05-20T09:08:06Z</time>
      </trkpt>
      <trkpt lat="42.1995620" lon="-8.7601720">
        <ele>17.3</ele>
        <time>2021-05-20T09:08:07Z</time>
      </trkpt>
      <trkpt lat="42.1995740" lon="-8.7601570">
        <ele>17.3</ele>
        <time>2021-05-20T09:08:08Z</time>
      </trkpt>
      <trkpt lat="42.1995780" lon="-8.7601520">
        <ele>17.3</ele>
        <time>2021-05-20T09:08:09Z</time>
      </trkpt>
      <trkpt lat="42.1995830" lon="-8.7601480">
        <ele>17.3</ele>
        <time>2021-05-20T09:08:10Z</time>
      </trkpt>
      <trkpt lat="42.1995870" lon="-8.7601430">
        <ele>17.3</ele>
        <time>2021-05-20T09:08:12Z</time>
      </trkpt>
      <trkpt lat="42.1995910" lon="-8.7601380">
        <ele>17.3</ele>
        <time>2021-05-20T09:08:13Z</time>
      </trkpt>
      <trkpt lat="42.1995960" lon="-8.7601130">
        <ele>17.3</ele>
        <time>2021-05-20T09:08:14Z</time>
      </trkpt>
      <trkpt lat="42.1995970" lon="-8.7601000">
        <ele>17.3</ele>
        <time>2021-05-20T09:08:15Z</time>
      </trkpt>
      <trkpt lat="42.1995980" lon="-8.7600860">
        <ele>17.3</ele>
        <time>2021-05-20T09:08:16Z</time>
      </trkpt>
      <trkpt lat="42.1996040" lon="-8.7600750">
        <ele>17.3</ele>
        <time>2021-05-20T09:08:17Z</time>
      </trkpt>
      <trkpt lat="42.1996120" lon="-8.7600700">
        <ele>17.3</ele>
        <time>2021-05-20T09:08:18Z</time>
      </trkpt>
      <trkpt lat="42.1996150" lon="-8.7600620">
        <ele>17.3</ele>
        <time>2021-05-20T09:08:19Z</time>
      </trkpt>
      <trkpt lat="42.1996190" lon="-8.7600460">
        <ele>17.3</ele>
        <time>2021-05-20T09:08:20Z</time>
      </trkpt>
      <trkpt lat="42.1996280" lon="-8.7600370">
        <ele>17.4</ele>
        <time>2021-05-20T09:08:21Z</time>
      </trkpt>
      <trkpt lat="42.1996450" lon="-8.7600250">
        <ele>17.4</ele>
        <time>2021-05-20T09:08:22Z</time>
      </trkpt>
      <trkpt lat="42.1996450" lon="-8.7600160">
        <ele>17.4</ele>
        <time>2021-05-20T09:08:23Z</time>
      </trkpt>
      <trkpt lat="42.1996530" lon="-8.7600050">
        <ele>17.4</ele>
        <time>2021-05-20T09:08:24Z</time>
      </trkpt>
      <trkpt lat="42.1996620" lon="-8.7599920">
        <ele>17.4</ele>
        <time>2021-05-20T09:08:25Z</time>
      </trkpt>
      <trkpt lat="42.1996680" lon="-8.7599780">
        <ele>17.4</ele>
        <time>2021-05-20T09:08:26Z</time>
      </trkpt>
      <trkpt lat="42.1996660" lon="-8.7599680">
        <ele>17.4</ele>
        <time>2021-05-20T09:08:27Z</time>
      </trkpt>
      <trkpt lat="42.1996720" lon="-8.7599500">
        <ele>17.4</ele>
        <time>2021-05-20T09:08:28Z</time>
      </trkpt>
      <trkpt lat="42.1996820" lon="-8.7599320">
        <ele>17.4</ele>
        <time>2021-05-20T09:08:29Z</time>
      </trkpt>
      <trkpt lat="42.1996880" lon="-8.7599250">
        <ele>17.4</ele>
        <time>2021-05-20T09:08:30Z</time>
      </trkpt>
      <trkpt lat="42.1996940" lon="-8.7599170">
        <ele>17.4</ele>
        <time>2021-05-20T09:08:31Z</time>
      </trkpt>
      <trkpt lat="42.1997000" lon="-8.7599100">
        <ele>17.4</ele>
        <time>2021-05-20T09:08:32Z</time>
      </trkpt>
      <trkpt lat="42.1997020" lon="-8.7598820">
        <ele>17.4</ele>
        <time>2021-05-20T09:08:33Z</time>
      </trkpt>
      <trkpt lat="42.1997000" lon="-8.7598640">
        <ele>17.4</ele>
        <time>2021-05-20T09:08:34Z</time>
      </trkpt>
      <trkpt lat="42.1996990" lon="-8.7598460">
        <ele>17.5</ele>
        <time>2021-05-20T09:08:35Z</time>
      </trkpt>
      <trkpt lat="42.1996960" lon="-8.7598360">
        <ele>17.5</ele>
        <time>2021-05-20T09:08:36Z</time>
      </trkpt>
      <trkpt lat="42.1997040" lon="-8.7598220">
        <ele>17.5</ele>
        <time>2021-05-20T09:08:37Z</time>
      </trkpt>
      <trkpt lat="42.1997170" lon="-8.7598020">
        <ele>17.5</ele>
        <time>2021-05-20T09:08:38Z</time>
      </trkpt>
      <trkpt lat="42.1997480" lon="-8.7597810">
        <ele>17.5</ele>
        <time>2021-05-20T09:08:39Z</time>
      </trkpt>
      <trkpt lat="42.1997570" lon="-8.7597750">
        <ele>17.5</ele>
        <time>2021-05-20T09:08:40Z</time>
      </trkpt>
      <trkpt lat="42.1997670" lon="-8.7597650">
        <ele>17.5</ele>
        <time>2021-05-20T09:08:41Z</time>
      </trkpt>
      <trkpt lat="42.1997820" lon="-8.7597520">
        <ele>17.5</ele>
        <time>2021-05-20T09:08:42Z</time>
      </trkpt>
      <trkpt lat="42.1997930" lon="-8.7597420">
        <ele>17.5</ele>
        <time>2021-05-20T09:08:43Z</time>
      </trkpt>
      <trkpt lat="42.1998000" lon="-8.7597220">
        <ele>17.6</ele>
        <time>2021-05-20T09:08:44Z</time>
      </trkpt>
      <trkpt lat="42.1998050" lon="-8.7597080">
        <ele>17.6</ele>
        <time>2021-05-20T09:08:45Z</time>
      </trkpt>
      <trkpt lat="42.1998130" lon="-8.7596860">
        <ele>17.6</ele>
        <time>2021-05-20T09:08:46Z</time>
      </trkpt>
      <trkpt lat="42.1998190" lon="-8.7596550">
        <ele>17.6</ele>
        <time>2021-05-20T09:08:47Z</time>
      </trkpt>
      <trkpt lat="42.1998160" lon="-8.7596420">
        <ele>17.6</ele>
        <time>2021-05-20T09:08:48Z</time>
      </trkpt>
      <trkpt lat="42.1998260" lon="-8.7596200">
        <ele>17.6</ele>
        <time>2021-05-20T09:08:49Z</time>
      </trkpt>
      <trkpt lat="42.1998380" lon="-8.7596090">
        <ele>17.6</ele>
        <time>2021-05-20T09:08:50Z</time>
      </trkpt>
      <trkpt lat="42.1998550" lon="-8.7595930">
        <ele>17.6</ele>
        <time>2021-05-20T09:08:51Z</time>
      </trkpt>
      <trkpt lat="42.1998660" lon="-8.7595830">
        <ele>17.6</ele>
        <time>2021-05-20T09:08:52Z</time>
      </trkpt>
      <trkpt lat="42.1998820" lon="-8.7595590">
        <ele>17.7</ele>
        <time>2021-05-20T09:08:53Z</time>
      </trkpt>
      <trkpt lat="42.1998890" lon="-8.7595490">
        <ele>17.7</ele>
        <time>2021-05-20T09:08:54Z</time>
      </trkpt>
      <trkpt lat="42.1998940" lon="-8.7595190">
        <ele>17.7</ele>
        <time>2021-05-20T09:08:55Z</time>
      </trkpt>
      <trkpt lat="42.1998940" lon="-8.7595090">
        <ele>17.7</ele>
        <time>2021-05-20T09:08:56Z</time>
      </trkpt>
      <trkpt lat="42.1998950" lon="-8.7595000">
        <ele>17.7</ele>
        <time>2021-05-20T09:08:57Z</time>
      </trkpt>
      <trkpt lat="42.1998930" lon="-8.7594840">
        <ele>17.7</ele>
        <time>2021-05-20T09:08:58Z</time>
      </trkpt>
      <trkpt lat="42.1998850" lon="-8.7594700">
        <ele>17.7</ele>
        <time>2021-05-20T09:08:59Z</time>
      </trkpt>
      <trkpt lat="42.1998870" lon="-8.7594560">
        <ele>17.7</ele>
        <time>2021-05-20T09:09:00Z</time>
      </trkpt>
      <trkpt lat="42.1998990" lon="-8.7594320">
        <ele>17.7</ele>
        <time>2021-05-20T09:09:01Z</time>
      </trkpt>
      <trkpt lat="42.1999020" lon="-8.7594200">
        <ele>17.7</ele>
        <time>2021-05-20T09:09:02Z</time>
      </trkpt>
      <trkpt lat="42.1999060" lon="-8.7594090">
        <ele>17.8</ele>
        <time>2021-05-20T09:09:03Z</time>
      </trkpt>
      <trkpt lat="42.1999120" lon="-8.7593880">
        <ele>17.8</ele>
        <time>2021-05-20T09:09:04Z</time>
      </trkpt>
      <trkpt lat="42.1999180" lon="-8.7593710">
        <ele>17.8</ele>
        <time>2021-05-20T09:09:05Z</time>
      </trkpt>
      <trkpt lat="42.1999190" lon="-8.7593490">
        <ele>17.8</ele>
        <time>2021-05-20T09:09:06Z</time>
      </trkpt>
      <trkpt lat="42.1999220" lon="-8.7593380">
        <ele>17.8</ele>
        <time>2021-05-20T09:09:07Z</time>
      </trkpt>
      <trkpt lat="42.1999270" lon="-8.7593240">
        <ele>17.8</ele>
        <time>2021-05-20T09:09:08Z</time>
      </trkpt>
      <trkpt lat="42.1999330" lon="-8.7592950">
        <ele>17.8</ele>
        <time>2021-05-20T09:09:09Z</time>
      </trkpt>
      <trkpt lat="42.1999370" lon="-8.7592840">
        <ele>17.8</ele>
        <time>2021-05-20T09:09:10Z</time>
      </trkpt>
      <trkpt lat="42.1999410" lon="-8.7592720">
        <ele>17.8</ele>
        <time>2021-05-20T09:09:11Z</time>
      </trkpt>
      <trkpt lat="42.1999390" lon="-8.7592540">
        <ele>17.8</ele>
        <time>2021-05-20T09:09:12Z</time>
      </trkpt>
      <trkpt lat="42.1999330" lon="-8.7592280">
        <ele>17.9</ele>
        <time>2021-05-20T09:09:13Z</time>
      </trkpt>
      <trkpt lat="42.1999450" lon="-8.7592070">
        <ele>17.9</ele>
        <time>2021-05-20T09:09:14Z</time>
      </trkpt>
      <trkpt lat="42.1999480" lon="-8.7591960">
        <ele>17.9</ele>
        <time>2021-05-20T09:09:15Z</time>
      </trkpt>
      <trkpt lat="42.1999520" lon="-8.7591850">
        <ele>17.9</ele>
        <time>2021-05-20T09:09:16Z</time>
      </trkpt>
      <trkpt lat="42.1999620" lon="-8.7591600">
        <ele>17.9</ele>
        <time>2021-05-20T09:09:17Z</time>
      </trkpt>
      <trkpt lat="42.1999680" lon="-8.7591470">
        <ele>17.9</ele>
        <time>2021-05-20T09:09:18Z</time>
      </trkpt>
      <trkpt lat="42.1999750" lon="-8.7591350">
        <ele>17.9</ele>
        <time>2021-05-20T09:09:19Z</time>
      </trkpt>
      <trkpt lat="42.1999780" lon="-8.7591310">
        <ele>17.9</ele>
        <time>2021-05-20T09:09:20Z</time>
      </trkpt>
      <trkpt lat="42.1999870" lon="-8.7591160">
        <ele>17.9</ele>
        <time>2021-05-20T09:09:21Z</time>
      </trkpt>
      <trkpt lat="42.1999900" lon="-8.7591140">
        <ele>18.0</ele>
        <time>2021-05-20T09:09:22Z</time>
      </trkpt>
      <trkpt lat="42.2000000" lon="-8.7591050">
        <ele>18.0</ele>
        <time>2021-05-20T09:09:23Z</time>
      </trkpt>
      <trkpt lat="42.2000160" lon="-8.7590880">
        <ele>18.0</ele>
        <time>2021-05-20T09:09:24Z</time>
      </trkpt>
      <trkpt lat="42.2000210" lon="-8.7590740">
        <ele>18.0</ele>
        <time>2021-05-20T09:09:25Z</time>
      </trkpt>
      <trkpt lat="42.2000280" lon="-8.7590470">
        <ele>18.0</ele>
        <time>2021-05-20T09:09:26Z</time>
      </trkpt>
      <trkpt lat="42.2000310" lon="-8.7590350">
        <ele>18.0</ele>
        <time>2021-05-20T09:09:27Z</time>
      </trkpt>
      <trkpt lat="42.2000340" lon="-8.7590230">
        <ele>18.0</ele>
        <time>2021-05-20T09:09:28Z</time>
      </trkpt>
      <trkpt lat="42.2000330" lon="-8.7590010">
        <ele>18.0</ele>
        <time>2021-05-20T09:09:29Z</time>
      </trkpt>
      <trkpt lat="42.2000350" lon="-8.7589900">
        <ele>18.0</ele>
        <time>2021-05-20T09:09:30Z</time>
      </trkpt>
      <trkpt lat="42.2000360" lon="-8.7589800">
        <ele>18.0</ele>
        <time>2021-05-20T09:09:31Z</time>
      </trkpt>
      <trkpt lat="42.2000370" lon="-8.7589690">
        <ele>18.0</ele>
        <time>2021-05-20T09:09:32Z</time>
      </trkpt>
      <trkpt lat="42.2000420" lon="-8.7589500">
        <ele>18.0</ele>
        <time>2021-05-20T09:09:33Z</time>
      </trkpt>
      <trkpt lat="42.2000490" lon="-8.7589330">
        <ele>18.1</ele>
        <time>2021-05-20T09:09:34Z</time>
      </trkpt>
      <trkpt lat="42.2000570" lon="-8.7589230">
        <ele>18.1</ele>
        <time>2021-05-20T09:09:35Z</time>
      </trkpt>
      <trkpt lat="42.2000660" lon="-8.7589050">
        <ele>18.1</ele>
        <time>2021-05-20T09:09:36Z</time>
      </trkpt>
      <trkpt lat="42.2000680" lon="-8.7588910">
        <ele>18.1</ele>
        <time>2021-05-20T09:09:37Z</time>
      </trkpt>
      <trkpt lat="42.2000790" lon="-8.7588800">
        <ele>18.1</ele>
        <time>2021-05-20T09:09:38Z</time>
      </trkpt>
      <trkpt lat="42.2000810" lon="-8.7588670">
        <ele>18.1</ele>
        <time>2021-05-20T09:09:39Z</time>
      </trkpt>
      <trkpt lat="42.2000850" lon="-8.7588500">
        <ele>18.1</ele>
        <time>2021-05-20T09:09:40Z</time>
      </trkpt>
      <trkpt lat="42.2000990" lon="-8.7588200">
        <ele>18.1</ele>
        <time>2021-05-20T09:09:41Z</time>
      </trkpt>
      <trkpt lat="42.2001020" lon="-8.7588110">
        <ele>18.1</ele>
        <time>2021-05-20T09:09:42Z</time>
      </trkpt>
      <trkpt lat="42.2001060" lon="-8.7588010">
        <ele>18.1</ele>
        <time>2021-05-20T09:09:43Z</time>
      </trkpt>
      <trkpt lat="42.2001130" lon="-8.7587970">
        <ele>18.1</ele>
        <time>2021-05-20T09:09:44Z</time>
      </trkpt>
      <trkpt lat="42.2001280" lon="-8.7587760">
        <ele>18.1</ele>
        <time>2021-05-20T09:09:45Z</time>
      </trkpt>
      <trkpt lat="42.2001410" lon="-8.7587500">
        <ele>18.1</ele>
        <time>2021-05-20T09:09:46Z</time>
      </trkpt>
      <trkpt lat="42.2001480" lon="-8.7587350">
        <ele>18.2</ele>
        <time>2021-05-20T09:09:47Z</time>
      </trkpt>
      <trkpt lat="42.2001610" lon="-8.7586920">
        <ele>18.2</ele>
        <time>2021-05-20T09:09:48Z</time>
      </trkpt>
      <trkpt lat="42.2001670" lon="-8.7586660">
        <ele>18.2</ele>
        <time>2021-05-20T09:09:49Z</time>
      </trkpt>
      <trkpt lat="42.2001650" lon="-8.7586430">
        <ele>18.2</ele>
        <time>2021-05-20T09:09:50Z</time>
      </trkpt>
      <trkpt lat="42.2001700" lon="-8.7586280">
        <ele>18.2</ele>
        <time>2021-05-20T09:09:51Z</time>
      </trkpt>
      <trkpt lat="42.2001760" lon="-8.7586130">
        <ele>18.2</ele>
        <time>2021-05-20T09:09:52Z</time>
      </trkpt>
      <trkpt lat="42.2001740" lon="-8.7586030">
        <ele>18.2</ele>
        <time>2021-05-20T09:09:53Z</time>
      </trkpt>
      <trkpt lat="42.2001780" lon="-8.7585870">
        <ele>18.2</ele>
        <time>2021-05-20T09:09:54Z</time>
      </trkpt>
      <trkpt lat="42.2001790" lon="-8.7585730">
        <ele>18.2</ele>
        <time>2021-05-20T09:09:55Z</time>
      </trkpt>
      <trkpt lat="42.2001860" lon="-8.7585540">
        <ele>18.2</ele>
        <time>2021-05-20T09:09:56Z</time>
      </trkpt>
      <trkpt lat="42.2001850" lon="-8.7585480">
        <ele>18.2</ele>
        <time>2021-05-20T09:09:57Z</time>
      </trkpt>
      <trkpt lat="42.2001850" lon="-8.7585410">
        <ele>18.2</ele>
        <time>2021-05-20T09:09:58Z</time>
      </trkpt>
      <trkpt lat="42.2001920" lon="-8.7585290">
        <ele>18.2</ele>
        <time>2021-05-20T09:09:59Z</time>
      </trkpt>
      <trkpt lat="42.2001970" lon="-8.7585150">
        <ele>18.3</ele>
        <time>2021-05-20T09:10:00Z</time>
      </trkpt>
      <trkpt lat="42.2002030" lon="-8.7585060">
        <ele>18.3</ele>
        <time>2021-05-20T09:10:01Z</time>
      </trkpt>
      <trkpt lat="42.2002100" lon="-8.7584920">
        <ele>18.3</ele>
        <time>2021-05-20T09:10:02Z</time>
      </trkpt>
      <trkpt lat="42.2002150" lon="-8.7584790">
        <ele>18.3</ele>
        <time>2021-05-20T09:10:03Z</time>
      </trkpt>
      <trkpt lat="42.2002170" lon="-8.7584750">
        <ele>18.3</ele>
        <time>2021-05-20T09:10:04Z</time>
      </trkpt>
      <trkpt lat="42.2002220" lon="-8.7584570">
        <ele>18.3</ele>
        <time>2021-05-20T09:10:05Z</time>
      </trkpt>
      <trkpt lat="42.2002240" lon="-8.7584390">
        <ele>18.3</ele>
        <time>2021-05-20T09:10:06Z</time>
      </trkpt>
      <trkpt lat="42.2002410" lon="-8.7584040">
        <ele>18.3</ele>
        <time>2021-05-20T09:10:07Z</time>
      </trkpt>
      <trkpt lat="42.2002460" lon="-8.7583960">
        <ele>18.3</ele>
        <time>2021-05-20T09:10:08Z</time>
      </trkpt>
      <trkpt lat="42.2002540" lon="-8.7583880">
        <ele>18.3</ele>
        <time>2021-05-20T09:10:09Z</time>
      </trkpt>
      <trkpt lat="42.2002590" lon="-8.7583680">
        <ele>18.3</ele>
        <time>2021-05-20T09:10:10Z</time>
      </trkpt>
      <trkpt lat="42.2002640" lon="-8.7583570">
        <ele>18.3</ele>
        <time>2021-05-20T09:10:11Z</time>
      </trkpt>
      <trkpt lat="42.2002750" lon="-8.7583280">
        <ele>18.3</ele>
        <time>2021-05-20T09:10:12Z</time>
      </trkpt>
      <trkpt lat="42.2002760" lon="-8.7583200">
        <ele>18.3</ele>
        <time>2021-05-20T09:10:13Z</time>
      </trkpt>
      <trkpt lat="42.2002780" lon="-8.7583110">
        <ele>18.4</ele>
        <time>2021-05-20T09:10:14Z</time>
      </trkpt>
      <trkpt lat="42.2002840" lon="-8.7582990">
        <ele>18.4</ele>
        <time>2021-05-20T09:10:15Z</time>
      </trkpt>
      <trkpt lat="42.2002870" lon="-8.7582820">
        <ele>18.4</ele>
        <time>2021-05-20T09:10:16Z</time>
      </trkpt>
      <trkpt lat="42.2002940" lon="-8.7582670">
        <ele>18.4</ele>
        <time>2021-05-20T09:10:17Z</time>
      </trkpt>
      <trkpt lat="42.2003050" lon="-8.7582490">
        <ele>18.4</ele>
        <time>2021-05-20T09:10:18Z</time>
      </trkpt>
      <trkpt lat="42.2003090" lon="-8.7582240">
        <ele>18.4</ele>
        <time>2021-05-20T09:10:19Z</time>
      </trkpt>
      <trkpt lat="42.2003150" lon="-8.7582100">
        <ele>18.4</ele>
        <time>2021-05-20T09:10:20Z</time>
      </trkpt>
      <trkpt lat="42.2003180" lon="-8.7581940">
        <ele>18.4</ele>
        <time>2021-05-20T09:10:21Z</time>
      </trkpt>
      <trkpt lat="42.2003180" lon="-8.7581780">
        <ele>18.4</ele>
        <time>2021-05-20T09:10:22Z</time>
      </trkpt>
      <trkpt lat="42.2003240" lon="-8.7581690">
        <ele>18.4</ele>
        <time>2021-05-20T09:10:23Z</time>
      </trkpt>
      <trkpt lat="42.2003310" lon="-8.7581610">
        <ele>18.4</ele>
        <time>2021-05-20T09:10:24Z</time>
      </trkpt>
      <trkpt lat="42.2003370" lon="-8.7581470">
        <ele>18.4</ele>
        <time>2021-05-20T09:10:25Z</time>
      </trkpt>
      <trkpt lat="42.2003460" lon="-8.7581270">
        <ele>18.4</ele>
        <time>2021-05-20T09:10:26Z</time>
      </trkpt>
      <trkpt lat="42.2003560" lon="-8.7581090">
        <ele>18.5</ele>
        <time>2021-05-20T09:10:27Z</time>
      </trkpt>
      <trkpt lat="42.2003710" lon="-8.7580830">
        <ele>18.5</ele>
        <time>2021-05-20T09:10:28Z</time>
      </trkpt>
      <trkpt lat="42.2003790" lon="-8.7580720">
        <ele>18.5</ele>
        <time>2021-05-20T09:10:29Z</time>
      </trkpt>
      <trkpt lat="42.2003870" lon="-8.7580620">
        <ele>18.5</ele>
        <time>2021-05-20T09:10:30Z</time>
      </trkpt>
      <trkpt lat="42.2003910" lon="-8.7580470">
        <ele>18.5</ele>
        <time>2021-05-20T09:10:31Z</time>
      </trkpt>
      <trkpt lat="42.2003880" lon="-8.7580360">
        <ele>18.5</ele>
        <time>2021-05-20T09:10:32Z</time>
      </trkpt>
      <trkpt lat="42.2003990" lon="-8.7580190">
        <ele>18.5</ele>
        <time>2021-05-20T09:10:33Z</time>
      </trkpt>
      <trkpt lat="42.2004080" lon="-8.7579970">
        <ele>18.5</ele>
        <time>2021-05-20T09:10:34Z</time>
      </trkpt>
      <trkpt lat="42.2004200" lon="-8.7579830">
        <ele>18.5</ele>
        <time>2021-05-20T09:10:35Z</time>
      </trkpt>
      <trkpt lat="42.2004280" lon="-8.7579650">
        <ele>18.5</ele>
        <time>2021-05-20T09:10:36Z</time>
      </trkpt>
      <trkpt lat="42.2004290" lon="-8.7579460">
        <ele>18.5</ele>
        <time>2021-05-20T09:10:38Z</time>
      </trkpt>
      <trkpt lat="42.2004440" lon="-8.7579260">
        <ele>18.5</ele>
        <time>2021-05-20T09:10:39Z</time>
      </trkpt>
      <trkpt lat="42.2004520" lon="-8.7579200">
        <ele>18.5</ele>
        <time>2021-05-20T09:10:40Z</time>
      </trkpt>
      <trkpt lat="42.2004640" lon="-8.7578950">
        <ele>18.5</ele>
        <time>2021-05-20T09:10:41Z</time>
      </trkpt>
      <trkpt lat="42.2004670" lon="-8.7578860">
        <ele>18.5</ele>
        <time>2021-05-20T09:10:42Z</time>
      </trkpt>
      <trkpt lat="42.2004690" lon="-8.7578760">
        <ele>18.5</ele>
        <time>2021-05-20T09:10:43Z</time>
      </trkpt>
      <trkpt lat="42.2004770" lon="-8.7578620">
        <ele>18.5</ele>
        <time>2021-05-20T09:10:44Z</time>
      </trkpt>
      <trkpt lat="42.2004850" lon="-8.7578400">
        <ele>18.5</ele>
        <time>2021-05-20T09:10:45Z</time>
      </trkpt>
      <trkpt lat="42.2004970" lon="-8.7578150">
        <ele>18.6</ele>
        <time>2021-05-20T09:10:46Z</time>
      </trkpt>
      <trkpt lat="42.2004950" lon="-8.7578050">
        <ele>18.6</ele>
        <time>2021-05-20T09:10:47Z</time>
      </trkpt>
      <trkpt lat="42.2004970" lon="-8.7577970">
        <ele>18.6</ele>
        <time>2021-05-20T09:10:48Z</time>
      </trkpt>
      <trkpt lat="42.2005070" lon="-8.7577880">
        <ele>18.6</ele>
        <time>2021-05-20T09:10:49Z</time>
      </trkpt>
      <trkpt lat="42.2005150" lon="-8.7577730">
        <ele>18.6</ele>
        <time>2021-05-20T09:10:50Z</time>
      </trkpt>
      <trkpt lat="42.2005230" lon="-8.7577640">
        <ele>18.6</ele>
        <time>2021-05-20T09:10:51Z</time>
      </trkpt>
      <trkpt lat="42.2005330" lon="-8.7577530">
        <ele>18.6</ele>
        <time>2021-05-20T09:10:52Z</time>
      </trkpt>
      <trkpt lat="42.2005480" lon="-8.7577360">
        <ele>18.6</ele>
        <time>2021-05-20T09:10:53Z</time>
      </trkpt>
      <trkpt lat="42.2005610" lon="-8.7577190">
        <ele>18.6</ele>
        <time>2021-05-20T09:10:54Z</time>
      </trkpt>
      <trkpt lat="42.2005660" lon="-8.7577060">
        <ele>18.6</ele>
        <time>2021-05-20T09:10:55Z</time>
      </trkpt>
      <trkpt lat="42.2005790" lon="-8.7576830">
        <ele>18.6</ele>
        <time>2021-05-20T09:10:56Z</time>
      </trkpt>
      <trkpt lat="42.2005880" lon="-8.7576580">
        <ele>18.6</ele>
        <time>2021-05-20T09:10:57Z</time>
      </trkpt>
      <trkpt lat="42.2005910" lon="-8.7576450">
        <ele>18.6</ele>
        <time>2021-05-20T09:10:58Z</time>
      </trkpt>
      <trkpt lat="42.2005940" lon="-8.7576310">
        <ele>18.6</ele>
        <time>2021-05-20T09:10:59Z</time>
      </trkpt>
      <trkpt lat="42.2005980" lon="-8.7576190">
        <ele>18.6</ele>
        <time>2021-05-20T09:11:00Z</time>
      </trkpt>
      <trkpt lat="42.2006040" lon="-8.7576090">
        <ele>18.6</ele>
        <time>2021-05-20T09:11:01Z</time>
      </trkpt>
      <trkpt lat="42.2006090" lon="-8.7575970">
        <ele>18.6</ele>
        <time>2021-05-20T09:11:02Z</time>
      </trkpt>
      <trkpt lat="42.2006150" lon="-8.7575840">
        <ele>18.6</ele>
        <time>2021-05-20T09:11:03Z</time>
      </trkpt>
      <trkpt lat="42.2006170" lon="-8.7575650">
        <ele>18.6</ele>
        <time>2021-05-20T09:11:04Z</time>
      </trkpt>
      <trkpt lat="42.2006160" lon="-8.7575520">
        <ele>18.6</ele>
        <time>2021-05-20T09:11:05Z</time>
      </trkpt>
      <trkpt lat="42.2006280" lon="-8.7575360">
        <ele>18.6</ele>
        <time>2021-05-20T09:11:06Z</time>
      </trkpt>
      <trkpt lat="42.2006240" lon="-8.7575150">
        <ele>18.6</ele>
        <time>2021-05-20T09:11:07Z</time>
      </trkpt>
      <trkpt lat="42.2006350" lon="-8.7574970">
        <ele>18.6</ele>
        <time>2021-05-20T09:11:08Z</time>
      </trkpt>
      <trkpt lat="42.2006370" lon="-8.7574760">
        <ele>18.6</ele>
        <time>2021-05-20T09:11:09Z</time>
      </trkpt>
      <trkpt lat="42.2006500" lon="-8.7574570">
        <ele>18.6</ele>
        <time>2021-05-20T09:11:10Z</time>
      </trkpt>
      <trkpt lat="42.2006480" lon="-8.7574350">
        <ele>18.6</ele>
        <time>2021-05-20T09:11:11Z</time>
      </trkpt>
      <trkpt lat="42.2006560" lon="-8.7574220">
        <ele>18.6</ele>
        <time>2021-05-20T09:11:12Z</time>
      </trkpt>
      <trkpt lat="42.2006710" lon="-8.7574060">
        <ele>18.6</ele>
        <time>2021-05-20T09:11:13Z</time>
      </trkpt>
      <trkpt lat="42.2006800" lon="-8.7573780">
        <ele>18.6</ele>
        <time>2021-05-20T09:11:14Z</time>
      </trkpt>
      <trkpt lat="42.2006860" lon="-8.7573700">
        <ele>18.6</ele>
        <time>2021-05-20T09:11:15Z</time>
      </trkpt>
      <trkpt lat="42.2006910" lon="-8.7573610">
        <ele>18.6</ele>
        <time>2021-05-20T09:11:16Z</time>
      </trkpt>
      <trkpt lat="42.2006940" lon="-8.7573490">
        <ele>18.6</ele>
        <time>2021-05-20T09:11:17Z</time>
      </trkpt>
      <trkpt lat="42.2007130" lon="-8.7573330">
        <ele>18.5</ele>
        <time>2021-05-20T09:11:18Z</time>
      </trkpt>
      <trkpt lat="42.2007120" lon="-8.7573180">
        <ele>18.5</ele>
        <time>2021-05-20T09:11:19Z</time>
      </trkpt>
      <trkpt lat="42.2007180" lon="-8.7573040">
        <ele>18.5</ele>
        <time>2021-05-20T09:11:20Z</time>
      </trkpt>
      <trkpt lat="42.2007280" lon="-8.7572900">
        <ele>18.5</ele>
        <time>2021-05-20T09:11:21Z</time>
      </trkpt>
      <trkpt lat="42.2007350" lon="-8.7572670">
        <ele>18.5</ele>
        <time>2021-05-20T09:11:22Z</time>
      </trkpt>
      <trkpt lat="42.2007400" lon="-8.7572540">
        <ele>18.5</ele>
        <time>2021-05-20T09:11:23Z</time>
      </trkpt>
      <trkpt lat="42.2007440" lon="-8.7572400">
        <ele>18.5</ele>
        <time>2021-05-20T09:11:24Z</time>
      </trkpt>
      <trkpt lat="42.2007480" lon="-8.7572220">
        <ele>18.5</ele>
        <time>2021-05-20T09:11:25Z</time>
      </trkpt>
      <trkpt lat="42.2007520" lon="-8.7572060">
        <ele>18.5</ele>
        <time>2021-05-20T09:11:26Z</time>
      </trkpt>
      <trkpt lat="42.2007680" lon="-8.7571800">
        <ele>18.5</ele>
        <time>2021-05-20T09:11:27Z</time>
      </trkpt>
      <trkpt lat="42.2007730" lon="-8.7571680">
        <ele>18.5</ele>
        <time>2021-05-20T09:11:28Z</time>
      </trkpt>
      <trkpt lat="42.2007770" lon="-8.7571570">
        <ele>18.4</ele>
        <time>2021-05-20T09:11:29Z</time>
      </trkpt>
      <trkpt lat="42.2007800" lon="-8.7571390">
        <ele>18.4</ele>
        <time>2021-05-20T09:11:30Z</time>
      </trkpt>
      <trkpt lat="42.2007890" lon="-8.7571220">
        <ele>18.4</ele>
        <time>2021-05-20T09:11:31Z</time>
      </trkpt>
      <trkpt lat="42.2007910" lon="-8.7571050">
        <ele>18.4</ele>
        <time>2021-05-20T09:11:32Z</time>
      </trkpt>
      <trkpt lat="42.2007950" lon="-8.7570970">
        <ele>18.4</ele>
        <time>2021-05-20T09:11:33Z</time>
      </trkpt>
      <trkpt lat="42.2008050" lon="-8.7570810">
        <ele>18.4</ele>
        <time>2021-05-20T09:11:34Z</time>
      </trkpt>
      <trkpt lat="42.2008100" lon="-8.7570640">
        <ele>18.4</ele>
        <time>2021-05-20T09:11:35Z</time>
      </trkpt>
      <trkpt lat="42.2008210" lon="-8.7570400">
        <ele>18.4</ele>
        <time>2021-05-20T09:11:36Z</time>
      </trkpt>
      <trkpt lat="42.2008280" lon="-8.7570290">
        <ele>18.3</ele>
        <time>2021-05-20T09:11:37Z</time>
      </trkpt>
      <trkpt lat="42.2008320" lon="-8.7570120">
        <ele>18.3</ele>
        <time>2021-05-20T09:11:38Z</time>
      </trkpt>
      <trkpt lat="42.2008340" lon="-8.7569970">
        <ele>18.3</ele>
        <time>2021-05-20T09:11:39Z</time>
      </trkpt>
      <trkpt lat="42.2008420" lon="-8.7569830">
        <ele>18.3</ele>
        <time>2021-05-20T09:11:40Z</time>
      </trkpt>
      <trkpt lat="42.2008510" lon="-8.7569740">
        <ele>18.3</ele>
        <time>2021-05-20T09:11:41Z</time>
      </trkpt>
      <trkpt lat="42.2008570" lon="-8.7569640">
        <ele>18.3</ele>
        <time>2021-05-20T09:11:42Z</time>
      </trkpt>
      <trkpt lat="42.2008690" lon="-8.7569420">
        <ele>18.2</ele>
        <time>2021-05-20T09:11:43Z</time>
      </trkpt>
      <trkpt lat="42.2008770" lon="-8.7569350">
        <ele>18.2</ele>
        <time>2021-05-20T09:11:44Z</time>
      </trkpt>
      <trkpt lat="42.2008840" lon="-8.7569270">
        <ele>18.2</ele>
        <time>2021-05-20T09:11:45Z</time>
      </trkpt>
      <trkpt lat="42.2008940" lon="-8.7569080">
        <ele>18.2</ele>
        <time>2021-05-20T09:11:46Z</time>
      </trkpt>
      <trkpt lat="42.2008990" lon="-8.7568960">
        <ele>18.2</ele>
        <time>2021-05-20T09:11:47Z</time>
      </trkpt>
      <trkpt lat="42.2009050" lon="-8.7568840">
        <ele>18.1</ele>
        <time>2021-05-20T09:11:48Z</time>
      </trkpt>
      <trkpt lat="42.2009140" lon="-8.7568660">
        <ele>18.1</ele>
        <time>2021-05-20T09:11:49Z</time>
      </trkpt>
      <trkpt lat="42.2009220" lon="-8.7568510">
        <ele>18.1</ele>
        <time>2021-05-20T09:11:50Z</time>
      </trkpt>
      <trkpt lat="42.2009270" lon="-8.7568400">
        <ele>18.1</ele>
        <time>2021-05-20T09:11:51Z</time>
      </trkpt>
      <trkpt lat="42.2009280" lon="-8.7568330">
        <ele>18.1</ele>
        <time>2021-05-20T09:11:53Z</time>
      </trkpt>
      <trkpt lat="42.2009420" lon="-8.7568180">
        <ele>18.0</ele>
        <time>2021-05-20T09:11:54Z</time>
      </trkpt>
      <trkpt lat="42.2009430" lon="-8.7568060">
        <ele>18.0</ele>
        <time>2021-05-20T09:11:55Z</time>
      </trkpt>
      <trkpt lat="42.2009420" lon="-8.7567970">
        <ele>18.0</ele>
        <time>2021-05-20T09:11:56Z</time>
      </trkpt>
      <trkpt lat="42.2009560" lon="-8.7567770">
        <ele>18.0</ele>
        <time>2021-05-20T09:11:57Z</time>
      </trkpt>
      <trkpt lat="42.2009650" lon="-8.7567580">
        <ele>17.9</ele>
        <time>2021-05-20T09:11:58Z</time>
      </trkpt>
      <trkpt lat="42.2009770" lon="-8.7567440">
        <ele>17.9</ele>
        <time>2021-05-20T09:11:59Z</time>
      </trkpt>
      <trkpt lat="42.2009780" lon="-8.7567340">
        <ele>17.9</ele>
        <time>2021-05-20T09:12:00Z</time>
      </trkpt>
      <trkpt lat="42.2009870" lon="-8.7567150">
        <ele>17.9</ele>
        <time>2021-05-20T09:12:01Z</time>
      </trkpt>
      <trkpt lat="42.2009930" lon="-8.7567010">
        <ele>17.8</ele>
        <time>2021-05-20T09:12:02Z</time>
      </trkpt>
      <trkpt lat="42.2009990" lon="-8.7566790">
        <ele>17.8</ele>
        <time>2021-05-20T09:12:03Z</time>
      </trkpt>
      <trkpt lat="42.2010040" lon="-8.7566660">
        <ele>17.8</ele>
        <time>2021-05-20T09:12:04Z</time>
      </trkpt>
      <trkpt lat="42.2010150" lon="-8.7566440">
        <ele>17.7</ele>
        <time>2021-05-20T09:12:05Z</time>
      </trkpt>
      <trkpt lat="42.2010190" lon="-8.7566330">
        <ele>17.7</ele>
        <time>2021-05-20T09:12:06Z</time>
      </trkpt>
      <trkpt lat="42.2010240" lon="-8.7566230">
        <ele>17.7</ele>
        <time>2021-05-20T09:12:07Z</time>
      </trkpt>
      <trkpt lat="42.2010350" lon="-8.7566100">
        <ele>17.7</ele>
        <time>2021-05-20T09:12:08Z</time>
      </trkpt>
      <trkpt lat="42.2010310" lon="-8.7565920">
        <ele>17.7</ele>
        <time>2021-05-20T09:12:09Z</time>
      </trkpt>
      <trkpt lat="42.2010270" lon="-8.7565760">
        <ele>17.6</ele>
        <time>2021-05-20T09:12:10Z</time>
      </trkpt>
      <trkpt lat="42.2010340" lon="-8.7565580">
        <ele>17.6</ele>
        <time>2021-05-20T09:12:11Z</time>
      </trkpt>
      <trkpt lat="42.2010400" lon="-8.7565390">
        <ele>17.6</ele>
        <time>2021-05-20T09:12:12Z</time>
      </trkpt>
      <trkpt lat="42.2010450" lon="-8.7565240">
        <ele>17.5</ele>
        <time>2021-05-20T09:12:13Z</time>
      </trkpt>
      <trkpt lat="42.2010470" lon="-8.7565070">
        <ele>17.5</ele>
        <time>2021-05-20T09:12:14Z</time>
      </trkpt>
      <trkpt lat="42.2010570" lon="-8.7564960">
        <ele>17.5</ele>
        <time>2021-05-20T09:12:15Z</time>
      </trkpt>
      <trkpt lat="42.2010670" lon="-8.7564740">
        <ele>17.4</ele>
        <time>2021-05-20T09:12:16Z</time>
      </trkpt>
      <trkpt lat="42.2010750" lon="-8.7564640">
        <ele>17.4</ele>
        <time>2021-05-20T09:12:17Z</time>
      </trkpt>
      <trkpt lat="42.2010820" lon="-8.7564550">
        <ele>17.4</ele>
        <time>2021-05-20T09:12:18Z</time>
      </trkpt>
      <trkpt lat="42.2010920" lon="-8.7564350">
        <ele>17.3</ele>
        <time>2021-05-20T09:12:19Z</time>
      </trkpt>
      <trkpt lat="42.2010960" lon="-8.7564230">
        <ele>17.3</ele>
        <time>2021-05-20T09:12:20Z</time>
      </trkpt>
      <trkpt lat="42.2011050" lon="-8.7564060">
        <ele>17.3</ele>
        <time>2021-05-20T09:12:21Z</time>
      </trkpt>
      <trkpt lat="42.2011110" lon="-8.7563950">
        <ele>17.3</ele>
        <time>2021-05-20T09:12:22Z</time>
      </trkpt>
      <trkpt lat="42.2011160" lon="-8.7563830">
        <ele>17.2</ele>
        <time>2021-05-20T09:12:23Z</time>
      </trkpt>
      <trkpt lat="42.2011220" lon="-8.7563710">
        <ele>17.2</ele>
        <time>2021-05-20T09:12:24Z</time>
      </trkpt>
      <trkpt lat="42.2011370" lon="-8.7563490">
        <ele>17.2</ele>
        <time>2021-05-20T09:12:25Z</time>
      </trkpt>
      <trkpt lat="42.2011400" lon="-8.7563400">
        <ele>17.1</ele>
        <time>2021-05-20T09:12:26Z</time>
      </trkpt>
      <trkpt lat="42.2011440" lon="-8.7563300">
        <ele>17.1</ele>
        <time>2021-05-20T09:12:27Z</time>
      </trkpt>
      <trkpt lat="42.2011520" lon="-8.7563180">
        <ele>17.1</ele>
        <time>2021-05-20T09:12:28Z</time>
      </trkpt>
      <trkpt lat="42.2011600" lon="-8.7563030">
        <ele>17.1</ele>
        <time>2021-05-20T09:12:29Z</time>
      </trkpt>
      <trkpt lat="42.2011650" lon="-8.7562910">
        <ele>17.0</ele>
        <time>2021-05-20T09:12:30Z</time>
      </trkpt>
      <trkpt lat="42.2011720" lon="-8.7562770">
        <ele>17.0</ele>
        <time>2021-05-20T09:12:31Z</time>
      </trkpt>
      <trkpt lat="42.2011810" lon="-8.7562600">
        <ele>17.0</ele>
        <time>2021-05-20T09:12:32Z</time>
      </trkpt>
      <trkpt lat="42.2011900" lon="-8.7562430">
        <ele>16.9</ele>
        <time>2021-05-20T09:12:33Z</time>
      </trkpt>
      <trkpt lat="42.2012010" lon="-8.7562290">
        <ele>16.9</ele>
        <time>2021-05-20T09:12:34Z</time>
      </trkpt>
      <trkpt lat="42.2012100" lon="-8.7562140">
        <ele>16.8</ele>
        <time>2021-05-20T09:12:35Z</time>
      </trkpt>
      <trkpt lat="42.2012160" lon="-8.7561970">
        <ele>16.8</ele>
        <time>2021-05-20T09:12:36Z</time>
      </trkpt>
      <trkpt lat="42.2012180" lon="-8.7561810">
        <ele>16.8</ele>
        <time>2021-05-20T09:12:37Z</time>
      </trkpt>
      <trkpt lat="42.2012300" lon="-8.7561670">
        <ele>16.7</ele>
        <time>2021-05-20T09:12:38Z</time>
      </trkpt>
      <trkpt lat="42.2012360" lon="-8.7561580">
        <ele>16.7</ele>
        <time>2021-05-20T09:12:39Z</time>
      </trkpt>
      <trkpt lat="42.2012470" lon="-8.7561380">
        <ele>16.7</ele>
        <time>2021-05-20T09:12:40Z</time>
      </trkpt>
      <trkpt lat="42.2012540" lon="-8.7561290">
        <ele>16.6</ele>
        <time>2021-05-20T09:12:41Z</time>
      </trkpt>
      <trkpt lat="42.2012760" lon="-8.7560980">
        <ele>16.6</ele>
        <time>2021-05-20T09:12:42Z</time>
      </trkpt>
      <trkpt lat="42.2012780" lon="-8.7560890">
        <ele>16.5</ele>
        <time>2021-05-20T09:12:43Z</time>
      </trkpt>
      <trkpt lat="42.2012850" lon="-8.7560670">
        <ele>16.5</ele>
        <time>2021-05-20T09:12:44Z</time>
      </trkpt>
      <trkpt lat="42.2012920" lon="-8.7560530">
        <ele>16.5</ele>
        <time>2021-05-20T09:12:45Z</time>
      </trkpt>
      <trkpt lat="42.2013120" lon="-8.7560230">
        <ele>16.4</ele>
        <time>2021-05-20T09:12:46Z</time>
      </trkpt>
      <trkpt lat="42.2013150" lon="-8.7560110">
        <ele>16.4</ele>
        <time>2021-05-20T09:12:47Z</time>
      </trkpt>
      <trkpt lat="42.2013280" lon="-8.7559940">
        <ele>16.3</ele>
        <time>2021-05-20T09:12:48Z</time>
      </trkpt>
      <trkpt lat="42.2013380" lon="-8.7559760">
        <ele>16.3</ele>
        <time>2021-05-20T09:12:49Z</time>
      </trkpt>
      <trkpt lat="42.2013490" lon="-8.7559620">
        <ele>16.2</ele>
        <time>2021-05-20T09:12:50Z</time>
      </trkpt>
      <trkpt lat="42.2013590" lon="-8.7559490">
        <ele>16.2</ele>
        <time>2021-05-20T09:12:51Z</time>
      </trkpt>
      <trkpt lat="42.2013690" lon="-8.7559340">
        <ele>16.1</ele>
        <time>2021-05-20T09:12:52Z</time>
      </trkpt>
      <trkpt lat="42.2013760" lon="-8.7559200">
        <ele>16.1</ele>
        <time>2021-05-20T09:12:53Z</time>
      </trkpt>
      <trkpt lat="42.2013810" lon="-8.7559060">
        <ele>16.1</ele>
        <time>2021-05-20T09:12:54Z</time>
      </trkpt>
      <trkpt lat="42.2013830" lon="-8.7558930">
        <ele>16.1</ele>
        <time>2021-05-20T09:12:55Z</time>
      </trkpt>
      <trkpt lat="42.2013830" lon="-8.7558810">
        <ele>16.0</ele>
        <time>2021-05-20T09:12:56Z</time>
      </trkpt>
      <trkpt lat="42.2013920" lon="-8.7558630">
        <ele>16.0</ele>
        <time>2021-05-20T09:12:57Z</time>
      </trkpt>
      <trkpt lat="42.2014000" lon="-8.7558510">
        <ele>16.0</ele>
        <time>2021-05-20T09:12:58Z</time>
      </trkpt>
      <trkpt lat="42.2014210" lon="-8.7558180">
        <ele>15.9</ele>
        <time>2021-05-20T09:12:59Z</time>
      </trkpt>
      <trkpt lat="42.2014250" lon="-8.7558100">
        <ele>15.9</ele>
        <time>2021-05-20T09:13:00Z</time>
      </trkpt>
      <trkpt lat="42.2014350" lon="-8.7557920">
        <ele>15.8</ele>
        <time>2021-05-20T09:13:01Z</time>
      </trkpt>
      <trkpt lat="42.2014480" lon="-8.7557800">
        <ele>15.8</ele>
        <time>2021-05-20T09:13:02Z</time>
      </trkpt>
      <trkpt lat="42.2014560" lon="-8.7557630">
        <ele>15.7</ele>
        <time>2021-05-20T09:13:03Z</time>
      </trkpt>
      <trkpt lat="42.2014620" lon="-8.7557480">
        <ele>15.7</ele>
        <time>2021-05-20T09:13:04Z</time>
      </trkpt>
      <trkpt lat="42.2014720" lon="-8.7557330">
        <ele>15.7</ele>
        <time>2021-05-20T09:13:05Z</time>
      </trkpt>
      <trkpt lat="42.2014810" lon="-8.7557140">
        <ele>15.6</ele>
        <time>2021-05-20T09:13:06Z</time>
      </trkpt>
      <trkpt lat="42.2015050" lon="-8.7556940">
        <ele>15.6</ele>
        <time>2021-05-20T09:13:07Z</time>
      </trkpt>
      <trkpt lat="42.2015110" lon="-8.7556840">
        <ele>15.5</ele>
        <time>2021-05-20T09:13:08Z</time>
      </trkpt>
      <trkpt lat="42.2015240" lon="-8.7556700">
        <ele>15.5</ele>
        <time>2021-05-20T09:13:09Z</time>
      </trkpt>
      <trkpt lat="42.2015300" lon="-8.7556530">
        <ele>15.5</ele>
        <time>2021-05-20T09:13:10Z</time>
      </trkpt>
      <trkpt lat="42.2015410" lon="-8.7556420">
        <ele>15.4</ele>
        <time>2021-05-20T09:13:11Z</time>
      </trkpt>
      <trkpt lat="42.2015470" lon="-8.7556220">
        <ele>15.4</ele>
        <time>2021-05-20T09:13:12Z</time>
      </trkpt>
      <trkpt lat="42.2015610" lon="-8.7556110">
        <ele>15.4</ele>
        <time>2021-05-20T09:13:13Z</time>
      </trkpt>
      <trkpt lat="42.2015680" lon="-8.7555980">
        <ele>15.3</ele>
        <time>2021-05-20T09:13:14Z</time>
      </trkpt>
      <trkpt lat="42.2015780" lon="-8.7555860">
        <ele>15.3</ele>
        <time>2021-05-20T09:13:15Z</time>
      </trkpt>
      <trkpt lat="42.2015820" lon="-8.7555780">
        <ele>15.3</ele>
        <time>2021-05-20T09:13:16Z</time>
      </trkpt>
      <trkpt lat="42.2015910" lon="-8.7555610">
        <ele>15.2</ele>
        <time>2021-05-20T09:13:17Z</time>
      </trkpt>
      <trkpt lat="42.2015940" lon="-8.7555460">
        <ele>15.2</ele>
        <time>2021-05-20T09:13:18Z</time>
      </trkpt>
      <trkpt lat="42.2016050" lon="-8.7555230">
        <ele>15.2</ele>
        <time>2021-05-20T09:13:19Z</time>
      </trkpt>
      <trkpt lat="42.2016200" lon="-8.7555040">
        <ele>15.1</ele>
        <time>2021-05-20T09:13:20Z</time>
      </trkpt>
      <trkpt lat="42.2016240" lon="-8.7554930">
        <ele>15.1</ele>
        <time>2021-05-20T09:13:21Z</time>
      </trkpt>
      <trkpt lat="42.2016290" lon="-8.7554810">
        <ele>15.0</ele>
        <time>2021-05-20T09:13:22Z</time>
      </trkpt>
      <trkpt lat="42.2016340" lon="-8.7554680">
        <ele>15.0</ele>
        <time>2021-05-20T09:13:23Z</time>
      </trkpt>
      <trkpt lat="42.2016380" lon="-8.7554580">
        <ele>15.0</ele>
        <time>2021-05-20T09:13:24Z</time>
      </trkpt>
      <trkpt lat="42.2016430" lon="-8.7554470">
        <ele>15.0</ele>
        <time>2021-05-20T09:13:25Z</time>
      </trkpt>
      <trkpt lat="42.2016470" lon="-8.7554370">
        <ele>14.9</ele>
        <time>2021-05-20T09:13:26Z</time>
      </trkpt>
      <trkpt lat="42.2016640" lon="-8.7554240">
        <ele>14.9</ele>
        <time>2021-05-20T09:13:27Z</time>
      </trkpt>
      <trkpt lat="42.2016740" lon="-8.7554060">
        <ele>14.8</ele>
        <time>2021-05-20T09:13:28Z</time>
      </trkpt>
      <trkpt lat="42.2016820" lon="-8.7553930">
        <ele>14.8</ele>
        <time>2021-05-20T09:13:29Z</time>
      </trkpt>
      <trkpt lat="42.2016850" lon="-8.7553850">
        <ele>14.8</ele>
        <time>2021-05-20T09:13:31Z</time>
      </trkpt>
      <trkpt lat="42.2016890" lon="-8.7553780">
        <ele>14.8</ele>
        <time>2021-05-20T09:13:32Z</time>
      </trkpt>
      <trkpt lat="42.2016920" lon="-8.7553700">
        <ele>14.8</ele>
        <time>2021-05-20T09:13:33Z</time>
      </trkpt>
      <trkpt lat="42.2016960" lon="-8.7553620">
        <ele>14.7</ele>
        <time>2021-05-20T09:13:34Z</time>
      </trkpt>
      <trkpt lat="42.2016990" lon="-8.7553470">
        <ele>14.7</ele>
        <time>2021-05-20T09:13:35Z</time>
      </trkpt>
      <trkpt lat="42.2017100" lon="-8.7553360">
        <ele>14.7</ele>
        <time>2021-05-20T09:13:36Z</time>
      </trkpt>
      <trkpt lat="42.2017160" lon="-8.7553250">
        <ele>14.6</ele>
        <time>2021-05-20T09:13:37Z</time>
      </trkpt>
      <trkpt lat="42.2017360" lon="-8.7553060">
        <ele>14.6</ele>
        <time>2021-05-20T09:13:38Z</time>
      </trkpt>
      <trkpt lat="42.2017410" lon="-8.7552980">
        <ele>14.6</ele>
        <time>2021-05-20T09:13:39Z</time>
      </trkpt>
      <trkpt lat="42.2017470" lon="-8.7552910">
        <ele>14.5</ele>
        <time>2021-05-20T09:13:40Z</time>
      </trkpt>
      <trkpt lat="42.2017540" lon="-8.7552750">
        <ele>14.5</ele>
        <time>2021-05-20T09:13:41Z</time>
      </trkpt>
      <trkpt lat="42.2017660" lon="-8.7552540">
        <ele>14.5</ele>
        <time>2021-05-20T09:13:42Z</time>
      </trkpt>
      <trkpt lat="42.2017820" lon="-8.7552350">
        <ele>14.4</ele>
        <time>2021-05-20T09:13:43Z</time>
      </trkpt>
      <trkpt lat="42.2017880" lon="-8.7552230">
        <ele>14.4</ele>
        <time>2021-05-20T09:13:44Z</time>
      </trkpt>
      <trkpt lat="42.2017930" lon="-8.7552110">
        <ele>14.4</ele>
        <time>2021-05-20T09:13:45Z</time>
      </trkpt>
      <trkpt lat="42.2018020" lon="-8.7551940">
        <ele>14.3</ele>
        <time>2021-05-20T09:13:46Z</time>
      </trkpt>
      <trkpt lat="42.2018130" lon="-8.7551730">
        <ele>14.3</ele>
        <time>2021-05-20T09:13:47Z</time>
      </trkpt>
      <trkpt lat="42.2018210" lon="-8.7551470">
        <ele>14.2</ele>
        <time>2021-05-20T09:13:48Z</time>
      </trkpt>
      <trkpt lat="42.2018270" lon="-8.7551380">
        <ele>14.2</ele>
        <time>2021-05-20T09:13:49Z</time>
      </trkpt>
      <trkpt lat="42.2018340" lon="-8.7551290">
        <ele>14.2</ele>
        <time>2021-05-20T09:13:50Z</time>
      </trkpt>
      <trkpt lat="42.2018460" lon="-8.7551180">
        <ele>14.2</ele>
        <time>2021-05-20T09:13:51Z</time>
      </trkpt>
      <trkpt lat="42.2018600" lon="-8.7550980">
        <ele>14.1</ele>
        <time>2021-05-20T09:13:52Z</time>
      </trkpt>
      <trkpt lat="42.2018690" lon="-8.7550880">
        <ele>14.1</ele>
        <time>2021-05-20T09:13:53Z</time>
      </trkpt>
      <trkpt lat="42.2018780" lon="-8.7550710">
        <ele>14.1</ele>
        <time>2021-05-20T09:13:54Z</time>
      </trkpt>
      <trkpt lat="42.2018920" lon="-8.7550440">
        <ele>14.0</ele>
        <time>2021-05-20T09:13:55Z</time>
      </trkpt>
      <trkpt lat="42.2018980" lon="-8.7550350">
        <ele>14.0</ele>
        <time>2021-05-20T09:13:56Z</time>
      </trkpt>
      <trkpt lat="42.2019050" lon="-8.7550250">
        <ele>14.0</ele>
        <time>2021-05-20T09:13:57Z</time>
      </trkpt>
      <trkpt lat="42.2018930" lon="-8.7550240">
        <ele>14.0</ele>
        <time>2021-05-20T09:13:58Z</time>
      </trkpt>
      <trkpt lat="42.2019070" lon="-8.7550110">
        <ele>14.0</ele>
        <time>2021-05-20T09:13:59Z</time>
      </trkpt>
      <trkpt lat="42.2019140" lon="-8.7550040">
        <ele>13.9</ele>
        <time>2021-05-20T09:14:00Z</time>
      </trkpt>
      <trkpt lat="42.2019270" lon="-8.7549910">
        <ele>13.9</ele>
        <time>2021-05-20T09:14:01Z</time>
      </trkpt>
      <trkpt lat="42.2019290" lon="-8.7549760">
        <ele>13.9</ele>
        <time>2021-05-20T09:14:02Z</time>
      </trkpt>
      <trkpt lat="42.2019400" lon="-8.7549530">
        <ele>13.9</ele>
        <time>2021-05-20T09:14:03Z</time>
      </trkpt>
      <trkpt lat="42.2019520" lon="-8.7549310">
        <ele>13.9</ele>
        <time>2021-05-20T09:14:04Z</time>
      </trkpt>
      <trkpt lat="42.2019590" lon="-8.7549220">
        <ele>13.9</ele>
        <time>2021-05-20T09:14:05Z</time>
      </trkpt>
      <trkpt lat="42.2019650" lon="-8.7549140">
        <ele>13.9</ele>
        <time>2021-05-20T09:14:06Z</time>
      </trkpt>
      <trkpt lat="42.2019670" lon="-8.7548940">
        <ele>13.9</ele>
        <time>2021-05-20T09:14:07Z</time>
      </trkpt>
      <trkpt lat="42.2019740" lon="-8.7548730">
        <ele>13.9</ele>
        <time>2021-05-20T09:14:08Z</time>
      </trkpt>
      <trkpt lat="42.2019820" lon="-8.7548550">
        <ele>13.8</ele>
        <time>2021-05-20T09:14:09Z</time>
      </trkpt>
      <trkpt lat="42.2019930" lon="-8.7548400">
        <ele>13.8</ele>
        <time>2021-05-20T09:14:10Z</time>
      </trkpt>
      <trkpt lat="42.2020090" lon="-8.7548230">
        <ele>13.8</ele>
        <time>2021-05-20T09:14:11Z</time>
      </trkpt>
      <trkpt lat="42.2020140" lon="-8.7548130">
        <ele>13.8</ele>
        <time>2021-05-20T09:14:12Z</time>
      </trkpt>
      <trkpt lat="42.2020320" lon="-8.7547900">
        <ele>13.7</ele>
        <time>2021-05-20T09:14:13Z</time>
      </trkpt>
      <trkpt lat="42.2020350" lon="-8.7547820">
        <ele>13.7</ele>
        <time>2021-05-20T09:14:14Z</time>
      </trkpt>
      <trkpt lat="42.2020380" lon="-8.7547750">
        <ele>13.7</ele>
        <time>2021-05-20T09:14:15Z</time>
      </trkpt>
      <trkpt lat="42.2020500" lon="-8.7547510">
        <ele>13.7</ele>
        <time>2021-05-20T09:14:16Z</time>
      </trkpt>
      <trkpt lat="42.2020580" lon="-8.7547500">
        <ele>13.7</ele>
        <time>2021-05-20T09:14:17Z</time>
      </trkpt>
      <trkpt lat="42.2020710" lon="-8.7547220">
        <ele>13.6</ele>
        <time>2021-05-20T09:14:18Z</time>
      </trkpt>
      <trkpt lat="42.2020730" lon="-8.7547150">
        <ele>13.6</ele>
        <time>2021-05-20T09:14:19Z</time>
      </trkpt>
      <trkpt lat="42.2020760" lon="-8.7547070">
        <ele>13.6</ele>
        <time>2021-05-20T09:14:20Z</time>
      </trkpt>
      <trkpt lat="42.2020780" lon="-8.7547000">
        <ele>13.6</ele>
        <time>2021-05-20T09:14:21Z</time>
      </trkpt>
      <trkpt lat="42.2020790" lon="-8.7546870">
        <ele>13.6</ele>
        <time>2021-05-20T09:14:22Z</time>
      </trkpt>
      <trkpt lat="42.2020960" lon="-8.7546650">
        <ele>13.5</ele>
        <time>2021-05-20T09:14:23Z</time>
      </trkpt>
      <trkpt lat="42.2021050" lon="-8.7546450">
        <ele>13.5</ele>
        <time>2021-05-20T09:14:24Z</time>
      </trkpt>
      <trkpt lat="42.2021130" lon="-8.7546350">
        <ele>13.5</ele>
        <time>2021-05-20T09:14:25Z</time>
      </trkpt>
      <trkpt lat="42.2021220" lon="-8.7546250">
        <ele>13.5</ele>
        <time>2021-05-20T09:14:26Z</time>
      </trkpt>
      <trkpt lat="42.2021340" lon="-8.7546120">
        <ele>13.4</ele>
        <time>2021-05-20T09:14:27Z</time>
      </trkpt>
      <trkpt lat="42.2021420" lon="-8.7545980">
        <ele>13.4</ele>
        <time>2021-05-20T09:14:28Z</time>
      </trkpt>
      <trkpt lat="42.2021530" lon="-8.7545750">
        <ele>13.4</ele>
        <time>2021-05-20T09:14:29Z</time>
      </trkpt>
      <trkpt lat="42.2021590" lon="-8.7545650">
        <ele>13.4</ele>
        <time>2021-05-20T09:14:30Z</time>
      </trkpt>
      <trkpt lat="42.2021660" lon="-8.7545560">
        <ele>13.4</ele>
        <time>2021-05-20T09:14:31Z</time>
      </trkpt>
      <trkpt lat="42.2021790" lon="-8.7545320">
        <ele>13.3</ele>
        <time>2021-05-20T09:14:32Z</time>
      </trkpt>
      <trkpt lat="42.2021840" lon="-8.7545240">
        <ele>13.3</ele>
        <time>2021-05-20T09:14:33Z</time>
      </trkpt>
      <trkpt lat="42.2021900" lon="-8.7545170">
        <ele>13.3</ele>
        <time>2021-05-20T09:14:34Z</time>
      </trkpt>
      <trkpt lat="42.2022010" lon="-8.7545030">
        <ele>13.3</ele>
        <time>2021-05-20T09:14:35Z</time>
      </trkpt>
      <trkpt lat="42.2022160" lon="-8.7544850">
        <ele>13.3</ele>
        <time>2021-05-20T09:14:36Z</time>
      </trkpt>
      <trkpt lat="42.2022290" lon="-8.7544710">
        <ele>13.2</ele>
        <time>2021-05-20T09:14:37Z</time>
      </trkpt>
      <trkpt lat="42.2022420" lon="-8.7544540">
        <ele>13.2</ele>
        <time>2021-05-20T09:14:38Z</time>
      </trkpt>
      <trkpt lat="42.2022480" lon="-8.7544510">
        <ele>13.2</ele>
        <time>2021-05-20T09:14:39Z</time>
      </trkpt>
      <trkpt lat="42.2022640" lon="-8.7544310">
        <ele>13.2</ele>
        <time>2021-05-20T09:14:40Z</time>
      </trkpt>
      <trkpt lat="42.2022680" lon="-8.7544200">
        <ele>13.1</ele>
        <time>2021-05-20T09:14:41Z</time>
      </trkpt>
      <trkpt lat="42.2022720" lon="-8.7544070">
        <ele>13.1</ele>
        <time>2021-05-20T09:14:42Z</time>
      </trkpt>
      <trkpt lat="42.2022800" lon="-8.7543940">
        <ele>13.1</ele>
        <time>2021-05-20T09:14:43Z</time>
      </trkpt>
      <trkpt lat="42.2022870" lon="-8.7543830">
        <ele>13.1</ele>
        <time>2021-05-20T09:14:44Z</time>
      </trkpt>
      <trkpt lat="42.2022950" lon="-8.7543630">
        <ele>13.1</ele>
        <time>2021-05-20T09:14:45Z</time>
      </trkpt>
      <trkpt lat="42.2023070" lon="-8.7543480">
        <ele>13.1</ele>
        <time>2021-05-20T09:14:46Z</time>
      </trkpt>
      <trkpt lat="42.2023140" lon="-8.7543370">
        <ele>13.1</ele>
        <time>2021-05-20T09:14:47Z</time>
      </trkpt>
      <trkpt lat="42.2023220" lon="-8.7543260">
        <ele>13.0</ele>
        <time>2021-05-20T09:14:48Z</time>
      </trkpt>
      <trkpt lat="42.2023320" lon="-8.7543090">
        <ele>13.0</ele>
        <time>2021-05-20T09:14:49Z</time>
      </trkpt>
      <trkpt lat="42.2023400" lon="-8.7542990">
        <ele>13.0</ele>
        <time>2021-05-20T09:14:50Z</time>
      </trkpt>
      <trkpt lat="42.2023480" lon="-8.7542890">
        <ele>13.0</ele>
        <time>2021-05-20T09:14:51Z</time>
      </trkpt>
      <trkpt lat="42.2023620" lon="-8.7542700">
        <ele>13.0</ele>
        <time>2021-05-20T09:14:52Z</time>
      </trkpt>
      <trkpt lat="42.2023730" lon="-8.7542580">
        <ele>13.0</ele>
        <time>2021-05-20T09:14:53Z</time>
      </trkpt>
      <trkpt lat="42.2023790" lon="-8.7542450">
        <ele>13.0</ele>
        <time>2021-05-20T09:14:54Z</time>
      </trkpt>
      <trkpt lat="42.2023790" lon="-8.7542320">
        <ele>12.9</ele>
        <time>2021-05-20T09:14:55Z</time>
      </trkpt>
      <trkpt lat="42.2023850" lon="-8.7542220">
        <ele>12.9</ele>
        <time>2021-05-20T09:14:56Z</time>
      </trkpt>
      <trkpt lat="42.2023940" lon="-8.7542150">
        <ele>12.9</ele>
        <time>2021-05-20T09:14:57Z</time>
      </trkpt>
      <trkpt lat="42.2024110" lon="-8.7542020">
        <ele>12.9</ele>
        <time>2021-05-20T09:14:58Z</time>
      </trkpt>
      <trkpt lat="42.2024170" lon="-8.7541870">
        <ele>12.9</ele>
        <time>2021-05-20T09:14:59Z</time>
      </trkpt>
      <trkpt lat="42.2024360" lon="-8.7541760">
        <ele>12.9</ele>
        <time>2021-05-20T09:15:00Z</time>
      </trkpt>
      <trkpt lat="42.2024450" lon="-8.7541670">
        <ele>12.9</ele>
        <time>2021-05-20T09:15:01Z</time>
      </trkpt>
      <trkpt lat="42.2024600" lon="-8.7541480">
        <ele>12.9</ele>
        <time>2021-05-20T09:15:02Z</time>
      </trkpt>
      <trkpt lat="42.2024730" lon="-8.7541290">
        <ele>12.8</ele>
        <time>2021-05-20T09:15:03Z</time>
      </trkpt>
      <trkpt lat="42.2024790" lon="-8.7541190">
        <ele>12.8</ele>
        <time>2021-05-20T09:15:04Z</time>
      </trkpt>
      <trkpt lat="42.2024860" lon="-8.7541100">
        <ele>12.8</ele>
        <time>2021-05-20T09:15:05Z</time>
      </trkpt>
      <trkpt lat="42.2024970" lon="-8.7540900">
        <ele>12.8</ele>
        <time>2021-05-20T09:15:06Z</time>
      </trkpt>
      <trkpt lat="42.2025040" lon="-8.7540820">
        <ele>12.8</ele>
        <time>2021-05-20T09:15:07Z</time>
      </trkpt>
      <trkpt lat="42.2025100" lon="-8.7540730">
        <ele>12.8</ele>
        <time>2021-05-20T09:15:08Z</time>
      </trkpt>
      <trkpt lat="42.2025210" lon="-8.7540490">
        <ele>12.8</ele>
        <time>2021-05-20T09:15:09Z</time>
      </trkpt>
      <trkpt lat="42.2025290" lon="-8.7540380">
        <ele>12.8</ele>
        <time>2021-05-20T09:15:10Z</time>
      </trkpt>
      <trkpt lat="42.2025370" lon="-8.7540280">
        <ele>12.7</ele>
        <time>2021-05-20T09:15:11Z</time>
      </trkpt>
      <trkpt lat="42.2025470" lon="-8.7540180">
        <ele>12.7</ele>
        <time>2021-05-20T09:15:12Z</time>
      </trkpt>
      <trkpt lat="42.2025540" lon="-8.7540090">
        <ele>12.7</ele>
        <time>2021-05-20T09:15:13Z</time>
      </trkpt>
      <trkpt lat="42.2025610" lon="-8.7539980">
        <ele>12.7</ele>
        <time>2021-05-20T09:15:14Z</time>
      </trkpt>
      <trkpt lat="42.2025750" lon="-8.7539830">
        <ele>12.7</ele>
        <time>2021-05-20T09:15:15Z</time>
      </trkpt>
      <trkpt lat="42.2025840" lon="-8.7539710">
        <ele>12.7</ele>
        <time>2021-05-20T09:15:16Z</time>
      </trkpt>
      <trkpt lat="42.2025940" lon="-8.7539640">
        <ele>12.7</ele>
        <time>2021-05-20T09:15:17Z</time>
      </trkpt>
      <trkpt lat="42.2026010" lon="-8.7539490">
        <ele>12.7</ele>
        <time>2021-05-20T09:15:18Z</time>
      </trkpt>
      <trkpt lat="42.2026080" lon="-8.7539400">
        <ele>12.7</ele>
        <time>2021-05-20T09:15:19Z</time>
      </trkpt>
      <trkpt lat="42.2026190" lon="-8.7539260">
        <ele>12.6</ele>
        <time>2021-05-20T09:15:20Z</time>
      </trkpt>
      <trkpt lat="42.2026270" lon="-8.7539210">
        <ele>12.6</ele>
        <time>2021-05-20T09:15:21Z</time>
      </trkpt>
      <trkpt lat="42.2026340" lon="-8.7539150">
        <ele>12.6</ele>
        <time>2021-05-20T09:15:22Z</time>
      </trkpt>
      <trkpt lat="42.2026410" lon="-8.7539090">
        <ele>12.6</ele>
        <time>2021-05-20T09:15:23Z</time>
      </trkpt>
      <trkpt lat="42.2026490" lon="-8.7539030">
        <ele>12.6</ele>
        <time>2021-05-20T09:15:24Z</time>
      </trkpt>
      <trkpt lat="42.2026660" lon="-8.7538900">
        <ele>12.6</ele>
        <time>2021-05-20T09:15:25Z</time>
      </trkpt>
      <trkpt lat="42.2026960" lon="-8.7538830">
        <ele>12.6</ele>
        <time>2021-05-20T09:15:26Z</time>
      </trkpt>
      <trkpt lat="42.2027040" lon="-8.7538810">
        <ele>12.6</ele>
        <time>2021-05-20T09:15:27Z</time>
      </trkpt>
      <trkpt lat="42.2027150" lon="-8.7538710">
        <ele>12.6</ele>
        <time>2021-05-20T09:15:28Z</time>
      </trkpt>
      <trkpt lat="42.2027250" lon="-8.7538550">
        <ele>12.5</ele>
        <time>2021-05-20T09:15:29Z</time>
      </trkpt>
      <trkpt lat="42.2027320" lon="-8.7538450">
        <ele>12.5</ele>
        <time>2021-05-20T09:15:30Z</time>
      </trkpt>
      <trkpt lat="42.2027380" lon="-8.7538370">
        <ele>12.5</ele>
        <time>2021-05-20T09:15:31Z</time>
      </trkpt>
      <trkpt lat="42.2027490" lon="-8.7538260">
        <ele>12.5</ele>
        <time>2021-05-20T09:15:32Z</time>
      </trkpt>
      <trkpt lat="42.2027610" lon="-8.7538120">
        <ele>12.5</ele>
        <time>2021-05-20T09:15:33Z</time>
      </trkpt>
      <trkpt lat="42.2027750" lon="-8.7537960">
        <ele>12.5</ele>
        <time>2021-05-20T09:15:34Z</time>
      </trkpt>
      <trkpt lat="42.2027970" lon="-8.7537880">
        <ele>12.5</ele>
        <time>2021-05-20T09:15:35Z</time>
      </trkpt>
      <trkpt lat="42.2028050" lon="-8.7537800">
        <ele>12.5</ele>
        <time>2021-05-20T09:15:36Z</time>
      </trkpt>
      <trkpt lat="42.2028120" lon="-8.7537730">
        <ele>12.5</ele>
        <time>2021-05-20T09:15:37Z</time>
      </trkpt>
      <trkpt lat="42.2028320" lon="-8.7537520">
        <ele>12.4</ele>
        <time>2021-05-20T09:15:38Z</time>
      </trkpt>
      <trkpt lat="42.2028430" lon="-8.7537440">
        <ele>12.4</ele>
        <time>2021-05-20T09:15:39Z</time>
      </trkpt>
      <trkpt lat="42.2028540" lon="-8.7537210">
        <ele>12.4</ele>
        <time>2021-05-20T09:15:40Z</time>
      </trkpt>
      <trkpt lat="42.2028610" lon="-8.7537140">
        <ele>12.4</ele>
        <time>2021-05-20T09:15:41Z</time>
      </trkpt>
      <trkpt lat="42.2028670" lon="-8.7537060">
        <ele>12.4</ele>
        <time>2021-05-20T09:15:42Z</time>
      </trkpt>
      <trkpt lat="42.2028900" lon="-8.7536870">
        <ele>12.4</ele>
        <time>2021-05-20T09:15:43Z</time>
      </trkpt>
      <trkpt lat="42.2028960" lon="-8.7536790">
        <ele>12.4</ele>
        <time>2021-05-20T09:15:44Z</time>
      </trkpt>
      <trkpt lat="42.2029020" lon="-8.7536710">
        <ele>12.4</ele>
        <time>2021-05-20T09:15:45Z</time>
      </trkpt>
      <trkpt lat="42.2029080" lon="-8.7536500">
        <ele>12.3</ele>
        <time>2021-05-20T09:15:46Z</time>
      </trkpt>
      <trkpt lat="42.2029140" lon="-8.7536370">
        <ele>12.3</ele>
        <time>2021-05-20T09:15:47Z</time>
      </trkpt>
      <trkpt lat="42.2029290" lon="-8.7536240">
        <ele>12.3</ele>
        <time>2021-05-20T09:15:48Z</time>
      </trkpt>
      <trkpt lat="42.2029380" lon="-8.7536120">
        <ele>12.3</ele>
        <time>2021-05-20T09:15:49Z</time>
      </trkpt>
      <trkpt lat="42.2029540" lon="-8.7536010">
        <ele>12.3</ele>
        <time>2021-05-20T09:15:50Z</time>
      </trkpt>
      <trkpt lat="42.2029640" lon="-8.7535910">
        <ele>12.3</ele>
        <time>2021-05-20T09:15:51Z</time>
      </trkpt>
      <trkpt lat="42.2029650" lon="-8.7535800">
        <ele>12.3</ele>
        <time>2021-05-20T09:15:52Z</time>
      </trkpt>
      <trkpt lat="42.2029710" lon="-8.7535740">
        <ele>12.3</ele>
        <time>2021-05-20T09:15:53Z</time>
      </trkpt>
      <trkpt lat="42.2029840" lon="-8.7535590">
        <ele>12.3</ele>
        <time>2021-05-20T09:15:54Z</time>
      </trkpt>
      <trkpt lat="42.2030020" lon="-8.7535480">
        <ele>12.3</ele>
        <time>2021-05-20T09:15:55Z</time>
      </trkpt>
      <trkpt lat="42.2030120" lon="-8.7535440">
        <ele>12.3</ele>
        <time>2021-05-20T09:15:56Z</time>
      </trkpt>
      <trkpt lat="42.2030220" lon="-8.7535390">
        <ele>12.3</ele>
        <time>2021-05-20T09:15:57Z</time>
      </trkpt>
      <trkpt lat="42.2030370" lon="-8.7535250">
        <ele>12.2</ele>
        <time>2021-05-20T09:15:58Z</time>
      </trkpt>
      <trkpt lat="42.2030450" lon="-8.7535190">
        <ele>12.2</ele>
        <time>2021-05-20T09:15:59Z</time>
      </trkpt>
      <trkpt lat="42.2030530" lon="-8.7535130">
        <ele>12.2</ele>
        <time>2021-05-20T09:16:00Z</time>
      </trkpt>
      <trkpt lat="42.2030660" lon="-8.7535070">
        <ele>12.2</ele>
        <time>2021-05-20T09:16:01Z</time>
      </trkpt>
      <trkpt lat="42.2030760" lon="-8.7534960">
        <ele>12.2</ele>
        <time>2021-05-20T09:16:02Z</time>
      </trkpt>
      <trkpt lat="42.2030840" lon="-8.7534890">
        <ele>12.2</ele>
        <time>2021-05-20T09:16:03Z</time>
      </trkpt>
      <trkpt lat="42.2030920" lon="-8.7534820">
        <ele>12.2</ele>
        <time>2021-05-20T09:16:04Z</time>
      </trkpt>
      <trkpt lat="42.2031080" lon="-8.7534700">
        <ele>12.2</ele>
        <time>2021-05-20T09:16:05Z</time>
      </trkpt>
      <trkpt lat="42.2031270" lon="-8.7534600">
        <ele>12.2</ele>
        <time>2021-05-20T09:16:06Z</time>
      </trkpt>
      <trkpt lat="42.2031350" lon="-8.7534550">
        <ele>12.2</ele>
        <time>2021-05-20T09:16:07Z</time>
      </trkpt>
      <trkpt lat="42.2031430" lon="-8.7534510">
        <ele>12.2</ele>
        <time>2021-05-20T09:16:08Z</time>
      </trkpt>
      <trkpt lat="42.2031620" lon="-8.7534360">
        <ele>12.2</ele>
        <time>2021-05-20T09:16:09Z</time>
      </trkpt>
      <trkpt lat="42.2031680" lon="-8.7534270">
        <ele>12.2</ele>
        <time>2021-05-20T09:16:10Z</time>
      </trkpt>
      <trkpt lat="42.2031750" lon="-8.7534190">
        <ele>12.2</ele>
        <time>2021-05-20T09:16:11Z</time>
      </trkpt>
      <trkpt lat="42.2031920" lon="-8.7534130">
        <ele>12.2</ele>
        <time>2021-05-20T09:16:12Z</time>
      </trkpt>
      <trkpt lat="42.2032010" lon="-8.7534100">
        <ele>12.1</ele>
        <time>2021-05-20T09:16:13Z</time>
      </trkpt>
      <trkpt lat="42.2032120" lon="-8.7534090">
        <ele>12.1</ele>
        <time>2021-05-20T09:16:14Z</time>
      </trkpt>
      <trkpt lat="42.2032320" lon="-8.7534000">
        <ele>12.1</ele>
        <time>2021-05-20T09:16:15Z</time>
      </trkpt>
      <trkpt lat="42.2032390" lon="-8.7533920">
        <ele>12.1</ele>
        <time>2021-05-20T09:16:16Z</time>
      </trkpt>
      <trkpt lat="42.2032490" lon="-8.7533810">
        <ele>12.1</ele>
        <time>2021-05-20T09:16:17Z</time>
      </trkpt>
      <trkpt lat="42.2032600" lon="-8.7533740">
        <ele>12.1</ele>
        <time>2021-05-20T09:16:18Z</time>
      </trkpt>
      <trkpt lat="42.2032710" lon="-8.7533710">
        <ele>12.1</ele>
        <time>2021-05-20T09:16:19Z</time>
      </trkpt>
      <trkpt lat="42.2032880" lon="-8.7533640">
        <ele>12.1</ele>
        <time>2021-05-20T09:16:20Z</time>
      </trkpt>
      <trkpt lat="42.2033020" lon="-8.7533540">
        <ele>12.1</ele>
        <time>2021-05-20T09:16:21Z</time>
      </trkpt>
      <trkpt lat="42.2033190" lon="-8.7533420">
        <ele>12.1</ele>
        <time>2021-05-20T09:16:22Z</time>
      </trkpt>
      <trkpt lat="42.2033280" lon="-8.7533320">
        <ele>12.1</ele>
        <time>2021-05-20T09:16:23Z</time>
      </trkpt>
      <trkpt lat="42.2033430" lon="-8.7533230">
        <ele>12.1</ele>
        <time>2021-05-20T09:16:24Z</time>
      </trkpt>
      <trkpt lat="42.2033440" lon="-8.7533130">
        <ele>12.1</ele>
        <time>2021-05-20T09:16:25Z</time>
      </trkpt>
      <trkpt lat="42.2033530" lon="-8.7533050">
        <ele>12.1</ele>
        <time>2021-05-20T09:16:26Z</time>
      </trkpt>
      <trkpt lat="42.2033670" lon="-8.7532940">
        <ele>12.0</ele>
        <time>2021-05-20T09:16:27Z</time>
      </trkpt>
      <trkpt lat="42.2033830" lon="-8.7532740">
        <ele>12.0</ele>
        <time>2021-05-20T09:16:28Z</time>
      </trkpt>
      <trkpt lat="42.2033890" lon="-8.7532650">
        <ele>12.0</ele>
        <time>2021-05-20T09:16:29Z</time>
      </trkpt>
      <trkpt lat="42.2033960" lon="-8.7532560">
        <ele>12.0</ele>
        <time>2021-05-20T09:16:30Z</time>
      </trkpt>
      <trkpt lat="42.2034010" lon="-8.7532390">
        <ele>12.0</ele>
        <time>2021-05-20T09:16:31Z</time>
      </trkpt>
      <trkpt lat="42.2034130" lon="-8.7532270">
        <ele>12.0</ele>
        <time>2021-05-20T09:16:32Z</time>
      </trkpt>
      <trkpt lat="42.2034290" lon="-8.7532060">
        <ele>12.0</ele>
        <time>2021-05-20T09:16:33Z</time>
      </trkpt>
      <trkpt lat="42.2034350" lon="-8.7531970">
        <ele>12.0</ele>
        <time>2021-05-20T09:16:34Z</time>
      </trkpt>
      <trkpt lat="42.2034420" lon="-8.7531880">
        <ele>12.0</ele>
        <time>2021-05-20T09:16:35Z</time>
      </trkpt>
      <trkpt lat="42.2034560" lon="-8.7531740">
        <ele>11.9</ele>
        <time>2021-05-20T09:16:36Z</time>
      </trkpt>
      <trkpt lat="42.2034640" lon="-8.7531720">
        <ele>11.9</ele>
        <time>2021-05-20T09:16:37Z</time>
      </trkpt>
      <trkpt lat="42.2034720" lon="-8.7531620">
        <ele>11.9</ele>
        <time>2021-05-20T09:16:38Z</time>
      </trkpt>
      <trkpt lat="42.2034920" lon="-8.7531500">
        <ele>11.9</ele>
        <time>2021-05-20T09:16:39Z</time>
      </trkpt>
      <trkpt lat="42.2035030" lon="-8.7531440">
        <ele>11.9</ele>
        <time>2021-05-20T09:16:40Z</time>
      </trkpt>
      <trkpt lat="42.2035140" lon="-8.7531390">
        <ele>11.9</ele>
        <time>2021-05-20T09:16:41Z</time>
      </trkpt>
      <trkpt lat="42.2035170" lon="-8.7531320">
        <ele>11.9</ele>
        <time>2021-05-20T09:16:42Z</time>
      </trkpt>
      <trkpt lat="42.2035240" lon="-8.7531150">
        <ele>11.9</ele>
        <time>2021-05-20T09:16:43Z</time>
      </trkpt>
      <trkpt lat="42.2035340" lon="-8.7531090">
        <ele>11.9</ele>
        <time>2021-05-20T09:16:44Z</time>
      </trkpt>
      <trkpt lat="42.2035510" lon="-8.7530870">
        <ele>11.9</ele>
        <time>2021-05-20T09:16:45Z</time>
      </trkpt>
      <trkpt lat="42.2035570" lon="-8.7530800">
        <ele>11.9</ele>
        <time>2021-05-20T09:16:46Z</time>
      </trkpt>
      <trkpt lat="42.2035630" lon="-8.7530740">
        <ele>11.9</ele>
        <time>2021-05-20T09:16:47Z</time>
      </trkpt>
      <trkpt lat="42.2035660" lon="-8.7530710">
        <ele>11.9</ele>
        <time>2021-05-20T09:16:48Z</time>
      </trkpt>
      <trkpt lat="42.2035740" lon="-8.7530600">
        <ele>11.9</ele>
        <time>2021-05-20T09:16:49Z</time>
      </trkpt>
      <trkpt lat="42.2035750" lon="-8.7530490">
        <ele>11.8</ele>
        <time>2021-05-20T09:16:50Z</time>
      </trkpt>
      <trkpt lat="42.2035830" lon="-8.7530410">
        <ele>11.8</ele>
        <time>2021-05-20T09:16:51Z</time>
      </trkpt>
      <trkpt lat="42.2035960" lon="-8.7530370">
        <ele>11.8</ele>
        <time>2021-05-20T09:16:52Z</time>
      </trkpt>
      <trkpt lat="42.2036120" lon="-8.7530210">
        <ele>11.8</ele>
        <time>2021-05-20T09:16:53Z</time>
      </trkpt>
      <trkpt lat="42.2036180" lon="-8.7530180">
        <ele>11.8</ele>
        <time>2021-05-20T09:16:54Z</time>
      </trkpt>
      <trkpt lat="42.2036260" lon="-8.7530140">
        <ele>11.8</ele>
        <time>2021-05-20T09:16:55Z</time>
      </trkpt>
      <trkpt lat="42.2036270" lon="-8.7529990">
        <ele>11.8</ele>
        <time>2021-05-20T09:16:56Z</time>
      </trkpt>
      <trkpt lat="42.2036390" lon="-8.7529940">
        <ele>11.8</ele>
        <time>2021-05-20T09:16:57Z</time>
      </trkpt>
      <trkpt lat="42.2036480" lon="-8.7529810">
        <ele>11.8</ele>
        <time>2021-05-20T09:16:58Z</time>
      </trkpt>
      <trkpt lat="42.2036590" lon="-8.7529750">
        <ele>11.8</ele>
        <time>2021-05-20T09:16:59Z</time>
      </trkpt>
      <trkpt lat="42.2036680" lon="-8.7529670">
        <ele>11.8</ele>
        <time>2021-05-20T09:17:00Z</time>
      </trkpt>
      <trkpt lat="42.2036780" lon="-8.7529620">
        <ele>11.8</ele>
        <time>2021-05-20T09:17:01Z</time>
      </trkpt>
      <trkpt lat="42.2036910" lon="-8.7529480">
        <ele>11.8</ele>
        <time>2021-05-20T09:17:02Z</time>
      </trkpt>
      <trkpt lat="42.2036980" lon="-8.7529430">
        <ele>11.8</ele>
        <time>2021-05-20T09:17:03Z</time>
      </trkpt>
      <trkpt lat="42.2037180" lon="-8.7529280">
        <ele>11.7</ele>
        <time>2021-05-20T09:17:04Z</time>
      </trkpt>
      <trkpt lat="42.2037230" lon="-8.7529200">
        <ele>11.7</ele>
        <time>2021-05-20T09:17:05Z</time>
      </trkpt>
      <trkpt lat="42.2037270" lon="-8.7529120">
        <ele>11.7</ele>
        <time>2021-05-20T09:17:06Z</time>
      </trkpt>
      <trkpt lat="42.2037460" lon="-8.7528970">
        <ele>11.7</ele>
        <time>2021-05-20T09:17:07Z</time>
      </trkpt>
      <trkpt lat="42.2037550" lon="-8.7528920">
        <ele>11.7</ele>
        <time>2021-05-20T09:17:08Z</time>
      </trkpt>
      <trkpt lat="42.2037640" lon="-8.7528870">
        <ele>11.7</ele>
        <time>2021-05-20T09:17:09Z</time>
      </trkpt>
      <trkpt lat="42.2037810" lon="-8.7528800">
        <ele>11.7</ele>
        <time>2021-05-20T09:17:10Z</time>
      </trkpt>
      <trkpt lat="42.2037950" lon="-8.7528700">
        <ele>11.7</ele>
        <time>2021-05-20T09:17:11Z</time>
      </trkpt>
      <trkpt lat="42.2038020" lon="-8.7528630">
        <ele>11.7</ele>
        <time>2021-05-20T09:17:12Z</time>
      </trkpt>
      <trkpt lat="42.2038130" lon="-8.7528510">
        <ele>11.7</ele>
        <time>2021-05-20T09:17:13Z</time>
      </trkpt>
      <trkpt lat="42.2038210" lon="-8.7528390">
        <ele>11.7</ele>
        <time>2021-05-20T09:17:14Z</time>
      </trkpt>
      <trkpt lat="42.2038270" lon="-8.7528300">
        <ele>11.7</ele>
        <time>2021-05-20T09:17:15Z</time>
      </trkpt>
      <trkpt lat="42.2038420" lon="-8.7528240">
        <ele>11.7</ele>
        <time>2021-05-20T09:17:16Z</time>
      </trkpt>
      <trkpt lat="42.2038490" lon="-8.7528150">
        <ele>11.7</ele>
        <time>2021-05-20T09:17:17Z</time>
      </trkpt>
      <trkpt lat="42.2038740" lon="-8.7527950">
        <ele>11.7</ele>
        <time>2021-05-20T09:17:18Z</time>
      </trkpt>
      <trkpt lat="42.2038830" lon="-8.7527880">
        <ele>11.6</ele>
        <time>2021-05-20T09:17:19Z</time>
      </trkpt>
      <trkpt lat="42.2038950" lon="-8.7527820">
        <ele>11.6</ele>
        <time>2021-05-20T09:17:20Z</time>
      </trkpt>
      <trkpt lat="42.2039100" lon="-8.7527660">
        <ele>11.6</ele>
        <time>2021-05-20T09:17:21Z</time>
      </trkpt>
      <trkpt lat="42.2039380" lon="-8.7527530">
        <ele>11.6</ele>
        <time>2021-05-20T09:17:22Z</time>
      </trkpt>
      <trkpt lat="42.2039480" lon="-8.7527450">
        <ele>11.6</ele>
        <time>2021-05-20T09:17:23Z</time>
      </trkpt>
      <trkpt lat="42.2039590" lon="-8.7527400">
        <ele>11.6</ele>
        <time>2021-05-20T09:17:24Z</time>
      </trkpt>
      <trkpt lat="42.2039760" lon="-8.7527240">
        <ele>11.6</ele>
        <time>2021-05-20T09:17:25Z</time>
      </trkpt>
      <trkpt lat="42.2040010" lon="-8.7527140">
        <ele>11.6</ele>
        <time>2021-05-20T09:17:26Z</time>
      </trkpt>
      <trkpt lat="42.2040120" lon="-8.7527070">
        <ele>11.6</ele>
        <time>2021-05-20T09:17:27Z</time>
      </trkpt>
      <trkpt lat="42.2040300" lon="-8.7526930">
        <ele>11.6</ele>
        <time>2021-05-20T09:17:28Z</time>
      </trkpt>
      <trkpt lat="42.2040390" lon="-8.7526840">
        <ele>11.6</ele>
        <time>2021-05-20T09:17:29Z</time>
      </trkpt>
      <trkpt lat="42.2040480" lon="-8.7526750">
        <ele>11.6</ele>
        <time>2021-05-20T09:17:30Z</time>
      </trkpt>
      <trkpt lat="42.2040620" lon="-8.7526680">
        <ele>11.6</ele>
        <time>2021-05-20T09:17:31Z</time>
      </trkpt>
      <trkpt lat="42.2040730" lon="-8.7526590">
        <ele>11.6</ele>
        <time>2021-05-20T09:17:32Z</time>
      </trkpt>
      <trkpt lat="42.2040820" lon="-8.7526510">
        <ele>11.6</ele>
        <time>2021-05-20T09:17:33Z</time>
      </trkpt>
      <trkpt lat="42.2040860" lon="-8.7526410">
        <ele>11.6</ele>
        <time>2021-05-20T09:17:34Z</time>
      </trkpt>
      <trkpt lat="42.2040870" lon="-8.7526340">
        <ele>11.6</ele>
        <time>2021-05-20T09:17:35Z</time>
      </trkpt>
      <trkpt lat="42.2040980" lon="-8.7526300">
        <ele>11.6</ele>
        <time>2021-05-20T09:17:36Z</time>
      </trkpt>
      <trkpt lat="42.2041060" lon="-8.7526160">
        <ele>11.6</ele>
        <time>2021-05-20T09:17:37Z</time>
      </trkpt>
      <trkpt lat="42.2041160" lon="-8.7526090">
        <ele>11.6</ele>
        <time>2021-05-20T09:17:38Z</time>
      </trkpt>
      <trkpt lat="42.2041220" lon="-8.7526050">
        <ele>11.6</ele>
        <time>2021-05-20T09:17:39Z</time>
      </trkpt>
      <trkpt lat="42.2041320" lon="-8.7525970">
        <ele>11.6</ele>
        <time>2021-05-20T09:17:40Z</time>
      </trkpt>
      <trkpt lat="42.2041380" lon="-8.7525930">
        <ele>11.6</ele>
        <time>2021-05-20T09:17:41Z</time>
      </trkpt>
      <trkpt lat="42.2041460" lon="-8.7525850">
        <ele>11.6</ele>
        <time>2021-05-20T09:17:42Z</time>
      </trkpt>
      <trkpt lat="42.2041550" lon="-8.7525800">
        <ele>11.6</ele>
        <time>2021-05-20T09:17:43Z</time>
      </trkpt>
      <trkpt lat="42.2041700" lon="-8.7525640">
        <ele>11.6</ele>
        <time>2021-05-20T09:17:44Z</time>
      </trkpt>
      <trkpt lat="42.2041830" lon="-8.7525560">
        <ele>11.6</ele>
        <time>2021-05-20T09:17:45Z</time>
      </trkpt>
      <trkpt lat="42.2041910" lon="-8.7525540">
        <ele>11.6</ele>
        <time>2021-05-20T09:17:46Z</time>
      </trkpt>
      <trkpt lat="42.2042000" lon="-8.7525490">
        <ele>11.6</ele>
        <time>2021-05-20T09:17:47Z</time>
      </trkpt>
      <trkpt lat="42.2042170" lon="-8.7525430">
        <ele>11.6</ele>
        <time>2021-05-20T09:17:48Z</time>
      </trkpt>
      <trkpt lat="42.2042210" lon="-8.7525390">
        <ele>11.6</ele>
        <time>2021-05-20T09:17:49Z</time>
      </trkpt>
      <trkpt lat="42.2042290" lon="-8.7525430">
        <ele>11.6</ele>
        <time>2021-05-20T09:17:50Z</time>
      </trkpt>
      <trkpt lat="42.2042600" lon="-8.7525330">
        <ele>11.6</ele>
        <time>2021-05-20T09:17:51Z</time>
      </trkpt>
      <trkpt lat="42.2042670" lon="-8.7525340">
        <ele>11.6</ele>
        <time>2021-05-20T09:17:52Z</time>
      </trkpt>
      <trkpt lat="42.2042890" lon="-8.7525270">
        <ele>11.5</ele>
        <time>2021-05-20T09:17:53Z</time>
      </trkpt>
      <trkpt lat="42.2042990" lon="-8.7525230">
        <ele>11.5</ele>
        <time>2021-05-20T09:17:54Z</time>
      </trkpt>
      <trkpt lat="42.2043090" lon="-8.7525200">
        <ele>11.5</ele>
        <time>2021-05-20T09:17:55Z</time>
      </trkpt>
      <trkpt lat="42.2043360" lon="-8.7525220">
        <ele>11.5</ele>
        <time>2021-05-20T09:17:56Z</time>
      </trkpt>
      <trkpt lat="42.2043460" lon="-8.7525260">
        <ele>11.5</ele>
        <time>2021-05-20T09:17:57Z</time>
      </trkpt>
      <trkpt lat="42.2043620" lon="-8.7525290">
        <ele>11.5</ele>
        <time>2021-05-20T09:17:58Z</time>
      </trkpt>
      <trkpt lat="42.2043750" lon="-8.7525370">
        <ele>11.5</ele>
        <time>2021-05-20T09:17:59Z</time>
      </trkpt>
      <trkpt lat="42.2044000" lon="-8.7525270">
        <ele>11.5</ele>
        <time>2021-05-20T09:18:00Z</time>
      </trkpt>
      <trkpt lat="42.2044130" lon="-8.7525170">
        <ele>11.6</ele>
        <time>2021-05-20T09:18:01Z</time>
      </trkpt>
      <trkpt lat="42.2044400" lon="-8.7524970">
        <ele>11.6</ele>
        <time>2021-05-20T09:18:02Z</time>
      </trkpt>
      <trkpt lat="42.2044510" lon="-8.7524910">
        <ele>11.6</ele>
        <time>2021-05-20T09:18:03Z</time>
      </trkpt>
      <trkpt lat="42.2044770" lon="-8.7524800">
        <ele>11.6</ele>
        <time>2021-05-20T09:18:04Z</time>
      </trkpt>
      <trkpt lat="42.2044960" lon="-8.7524710">
        <ele>11.6</ele>
        <time>2021-05-20T09:18:05Z</time>
      </trkpt>
      <trkpt lat="42.2045100" lon="-8.7524660">
        <ele>11.6</ele>
        <time>2021-05-20T09:18:06Z</time>
      </trkpt>
      <trkpt lat="42.2045250" lon="-8.7524620">
        <ele>11.6</ele>
        <time>2021-05-20T09:18:07Z</time>
      </trkpt>
      <trkpt lat="42.2045390" lon="-8.7524550">
        <ele>11.6</ele>
        <time>2021-05-20T09:18:08Z</time>
      </trkpt>
      <trkpt lat="42.2045450" lon="-8.7524400">
        <ele>11.6</ele>
        <time>2021-05-20T09:18:09Z</time>
      </trkpt>
      <trkpt lat="42.2045500" lon="-8.7524180">
        <ele>11.6</ele>
        <time>2021-05-20T09:18:10Z</time>
      </trkpt>
      <trkpt lat="42.2045630" lon="-8.7524150">
        <ele>11.6</ele>
        <time>2021-05-20T09:18:11Z</time>
      </trkpt>
      <trkpt lat="42.2045680" lon="-8.7524000">
        <ele>11.6</ele>
        <time>2021-05-20T09:18:12Z</time>
      </trkpt>
      <trkpt lat="42.2045710" lon="-8.7523840">
        <ele>11.6</ele>
        <time>2021-05-20T09:18:13Z</time>
      </trkpt>
      <trkpt lat="42.2045880" lon="-8.7523570">
        <ele>11.6</ele>
        <time>2021-05-20T09:18:14Z</time>
      </trkpt>
      <trkpt lat="42.2045910" lon="-8.7523500">
        <ele>11.6</ele>
        <time>2021-05-20T09:18:15Z</time>
      </trkpt>
      <trkpt lat="42.2045930" lon="-8.7523420">
        <ele>11.6</ele>
        <time>2021-05-20T09:18:16Z</time>
      </trkpt>
      <trkpt lat="42.2045900" lon="-8.7523470">
        <ele>11.6</ele>
        <time>2021-05-20T09:18:17Z</time>
      </trkpt>
      <trkpt lat="42.2045890" lon="-8.7523370">
        <ele>11.6</ele>
        <time>2021-05-20T09:18:18Z</time>
      </trkpt>
      <trkpt lat="42.2045910" lon="-8.7523280">
        <ele>11.6</ele>
        <time>2021-05-20T09:18:19Z</time>
      </trkpt>
      <trkpt lat="42.2045950" lon="-8.7523180">
        <ele>11.6</ele>
        <time>2021-05-20T09:18:20Z</time>
      </trkpt>
      <trkpt lat="42.2046190" lon="-8.7523270">
        <ele>11.6</ele>
        <time>2021-05-20T09:18:21Z</time>
      </trkpt>
      <trkpt lat="42.2046310" lon="-8.7523170">
        <ele>11.6</ele>
        <time>2021-05-20T09:18:22Z</time>
      </trkpt>
      <trkpt lat="42.2046380" lon="-8.7523130">
        <ele>11.6</ele>
        <time>2021-05-20T09:18:23Z</time>
      </trkpt>
      <trkpt lat="42.2046460" lon="-8.7523100">
        <ele>11.6</ele>
        <time>2021-05-20T09:18:24Z</time>
      </trkpt>
      <trkpt lat="42.2046530" lon="-8.7523060">
        <ele>11.6</ele>
        <time>2021-05-20T09:18:25Z</time>
      </trkpt>
      <trkpt lat="42.2046670" lon="-8.7522870">
        <ele>11.6</ele>
        <time>2021-05-20T09:18:26Z</time>
      </trkpt>
      <trkpt lat="42.2046730" lon="-8.7522790">
        <ele>11.6</ele>
        <time>2021-05-20T09:18:27Z</time>
      </trkpt>
      <trkpt lat="42.2046780" lon="-8.7522710">
        <ele>11.6</ele>
        <time>2021-05-20T09:18:28Z</time>
      </trkpt>
      <trkpt lat="42.2046830" lon="-8.7522630">
        <ele>11.6</ele>
        <time>2021-05-20T09:18:29Z</time>
      </trkpt>
      <trkpt lat="42.2046930" lon="-8.7522410">
        <ele>11.6</ele>
        <time>2021-05-20T09:18:30Z</time>
      </trkpt>
      <trkpt lat="42.2047010" lon="-8.7522330">
        <ele>11.7</ele>
        <time>2021-05-20T09:18:31Z</time>
      </trkpt>
      <trkpt lat="42.2047090" lon="-8.7522250">
        <ele>11.7</ele>
        <time>2021-05-20T09:18:32Z</time>
      </trkpt>
      <trkpt lat="42.2047150" lon="-8.7522110">
        <ele>11.7</ele>
        <time>2021-05-20T09:18:33Z</time>
      </trkpt>
      <trkpt lat="42.2047280" lon="-8.7522060">
        <ele>11.7</ele>
        <time>2021-05-20T09:18:34Z</time>
      </trkpt>
      <trkpt lat="42.2047360" lon="-8.7521980">
        <ele>11.7</ele>
        <time>2021-05-20T09:18:35Z</time>
      </trkpt>
      <trkpt lat="42.2047540" lon="-8.7521850">
        <ele>11.7</ele>
        <time>2021-05-20T09:18:36Z</time>
      </trkpt>
      <trkpt lat="42.2047630" lon="-8.7521750">
        <ele>11.7</ele>
        <time>2021-05-20T09:18:37Z</time>
      </trkpt>
      <trkpt lat="42.2047710" lon="-8.7521640">
        <ele>11.7</ele>
        <time>2021-05-20T09:18:38Z</time>
      </trkpt>
      <trkpt lat="42.2047890" lon="-8.7521500">
        <ele>11.7</ele>
        <time>2021-05-20T09:18:39Z</time>
      </trkpt>
      <trkpt lat="42.2048000" lon="-8.7521410">
        <ele>11.7</ele>
        <time>2021-05-20T09:18:40Z</time>
      </trkpt>
      <trkpt lat="42.2048230" lon="-8.7521150">
        <ele>11.7</ele>
        <time>2021-05-20T09:18:41Z</time>
      </trkpt>
      <trkpt lat="42.2048350" lon="-8.7521070">
        <ele>11.7</ele>
        <time>2021-05-20T09:18:42Z</time>
      </trkpt>
      <trkpt lat="42.2048590" lon="-8.7520890">
        <ele>11.7</ele>
        <time>2021-05-20T09:18:43Z</time>
      </trkpt>
      <trkpt lat="42.2048700" lon="-8.7520790">
        <ele>11.7</ele>
        <time>2021-05-20T09:18:44Z</time>
      </trkpt>
      <trkpt lat="42.2049030" lon="-8.7520690">
        <ele>11.7</ele>
        <time>2021-05-20T09:18:45Z</time>
      </trkpt>
      <trkpt lat="42.2049170" lon="-8.7520630">
        <ele>11.7</ele>
        <time>2021-05-20T09:18:46Z</time>
      </trkpt>
      <trkpt lat="42.2049420" lon="-8.7520480">
        <ele>11.7</ele>
        <time>2021-05-20T09:18:47Z</time>
      </trkpt>
      <trkpt lat="42.2049500" lon="-8.7520440">
        <ele>11.7</ele>
        <time>2021-05-20T09:18:48Z</time>
      </trkpt>
      <trkpt lat="42.2049860" lon="-8.7520250">
        <ele>11.7</ele>
        <time>2021-05-20T09:18:49Z</time>
      </trkpt>
      <trkpt lat="42.2050010" lon="-8.7520190">
        <ele>11.7</ele>
        <time>2021-05-20T09:18:50Z</time>
      </trkpt>
      <trkpt lat="42.2050150" lon="-8.7520040">
        <ele>11.7</ele>
        <time>2021-05-20T09:18:51Z</time>
      </trkpt>
      <trkpt lat="42.2050260" lon="-8.7519930">
        <ele>11.7</ele>
        <time>2021-05-20T09:18:52Z</time>
      </trkpt>
      <trkpt lat="42.2050490" lon="-8.7519700">
        <ele>11.8</ele>
        <time>2021-05-20T09:18:53Z</time>
      </trkpt>
      <trkpt lat="42.2050580" lon="-8.7519650">
        <ele>11.8</ele>
        <time>2021-05-20T09:18:54Z</time>
      </trkpt>
      <trkpt lat="42.2050680" lon="-8.7519400">
        <ele>11.8</ele>
        <time>2021-05-20T09:18:55Z</time>
      </trkpt>
      <trkpt lat="42.2050740" lon="-8.7519310">
        <ele>11.8</ele>
        <time>2021-05-20T09:18:56Z</time>
      </trkpt>
      <trkpt lat="42.2050800" lon="-8.7519210">
        <ele>11.8</ele>
        <time>2021-05-20T09:18:57Z</time>
      </trkpt>
      <trkpt lat="42.2050870" lon="-8.7519100">
        <ele>11.8</ele>
        <time>2021-05-20T09:18:58Z</time>
      </trkpt>
      <trkpt lat="42.2050940" lon="-8.7519020">
        <ele>11.8</ele>
        <time>2021-05-20T09:18:59Z</time>
      </trkpt>
      <trkpt lat="42.2051050" lon="-8.7518890">
        <ele>11.8</ele>
        <time>2021-05-20T09:19:00Z</time>
      </trkpt>
      <trkpt lat="42.2051280" lon="-8.7518740">
        <ele>11.8</ele>
        <time>2021-05-20T09:19:01Z</time>
      </trkpt>
      <trkpt lat="42.2051380" lon="-8.7518660">
        <ele>11.8</ele>
        <time>2021-05-20T09:19:02Z</time>
      </trkpt>
      <trkpt lat="42.2051540" lon="-8.7518590">
        <ele>11.8</ele>
        <time>2021-05-20T09:19:03Z</time>
      </trkpt>
      <trkpt lat="42.2051700" lon="-8.7518490">
        <ele>11.8</ele>
        <time>2021-05-20T09:19:04Z</time>
      </trkpt>
      <trkpt lat="42.2051950" lon="-8.7518300">
        <ele>11.8</ele>
        <time>2021-05-20T09:19:05Z</time>
      </trkpt>
      <trkpt lat="42.2052020" lon="-8.7518240">
        <ele>11.8</ele>
        <time>2021-05-20T09:19:06Z</time>
      </trkpt>
      <trkpt lat="42.2052150" lon="-8.7518100">
        <ele>11.8</ele>
        <time>2021-05-20T09:19:07Z</time>
      </trkpt>
      <trkpt lat="42.2052250" lon="-8.7517990">
        <ele>11.8</ele>
        <time>2021-05-20T09:19:08Z</time>
      </trkpt>
      <trkpt lat="42.2052360" lon="-8.7517870">
        <ele>11.9</ele>
        <time>2021-05-20T09:19:09Z</time>
      </trkpt>
      <trkpt lat="42.2052500" lon="-8.7517750">
        <ele>11.9</ele>
        <time>2021-05-20T09:19:10Z</time>
      </trkpt>
      <trkpt lat="42.2052600" lon="-8.7517620">
        <ele>11.9</ele>
        <time>2021-05-20T09:19:11Z</time>
      </trkpt>
      <trkpt lat="42.2052750" lon="-8.7517560">
        <ele>11.9</ele>
        <time>2021-05-20T09:19:12Z</time>
      </trkpt>
      <trkpt lat="42.2052840" lon="-8.7517460">
        <ele>11.9</ele>
        <time>2021-05-20T09:19:13Z</time>
      </trkpt>
      <trkpt lat="42.2052930" lon="-8.7517400">
        <ele>11.9</ele>
        <time>2021-05-20T09:19:14Z</time>
      </trkpt>
      <trkpt lat="42.2052990" lon="-8.7517360">
        <ele>11.9</ele>
        <time>2021-05-20T09:19:15Z</time>
      </trkpt>
      <trkpt lat="42.2053070" lon="-8.7517290">
        <ele>11.9</ele>
        <time>2021-05-20T09:19:16Z</time>
      </trkpt>
      <trkpt lat="42.2053100" lon="-8.7517190">
        <ele>11.9</ele>
        <time>2021-05-20T09:19:17Z</time>
      </trkpt>
      <trkpt lat="42.2053230" lon="-8.7517060">
        <ele>11.9</ele>
        <time>2021-05-20T09:19:18Z</time>
      </trkpt>
      <trkpt lat="42.2053360" lon="-8.7516830">
        <ele>11.9</ele>
        <time>2021-05-20T09:19:19Z</time>
      </trkpt>
      <trkpt lat="42.2053410" lon="-8.7516740">
        <ele>12.0</ele>
        <time>2021-05-20T09:19:20Z</time>
      </trkpt>
      <trkpt lat="42.2053460" lon="-8.7516660">
        <ele>12.0</ele>
        <time>2021-05-20T09:19:21Z</time>
      </trkpt>
      <trkpt lat="42.2053590" lon="-8.7516400">
        <ele>12.0</ele>
        <time>2021-05-20T09:19:22Z</time>
      </trkpt>
      <trkpt lat="42.2053640" lon="-8.7516320">
        <ele>12.0</ele>
        <time>2021-05-20T09:19:23Z</time>
      </trkpt>
      <trkpt lat="42.2053700" lon="-8.7516230">
        <ele>12.0</ele>
        <time>2021-05-20T09:19:24Z</time>
      </trkpt>
      <trkpt lat="42.2053730" lon="-8.7516120">
        <ele>12.0</ele>
        <time>2021-05-20T09:19:25Z</time>
      </trkpt>
      <trkpt lat="42.2053870" lon="-8.7516020">
        <ele>12.0</ele>
        <time>2021-05-20T09:19:26Z</time>
      </trkpt>
      <trkpt lat="42.2053890" lon="-8.7515930">
        <ele>12.0</ele>
        <time>2021-05-20T09:19:27Z</time>
      </trkpt>
      <trkpt lat="42.2054040" lon="-8.7515670">
        <ele>12.0</ele>
        <time>2021-05-20T09:19:28Z</time>
      </trkpt>
      <trkpt lat="42.2054120" lon="-8.7515570">
        <ele>12.0</ele>
        <time>2021-05-20T09:19:29Z</time>
      </trkpt>
      <trkpt lat="42.2054200" lon="-8.7515470">
        <ele>12.0</ele>
        <time>2021-05-20T09:19:30Z</time>
      </trkpt>
      <trkpt lat="42.2054150" lon="-8.7515410">
        <ele>12.0</ele>
        <time>2021-05-20T09:19:31Z</time>
      </trkpt>
      <trkpt lat="42.2054230" lon="-8.7515350">
        <ele>12.1</ele>
        <time>2021-05-20T09:19:32Z</time>
      </trkpt>
      <trkpt lat="42.2054260" lon="-8.7515400">
        <ele>12.1</ele>
        <time>2021-05-20T09:19:33Z</time>
      </trkpt>
      <trkpt lat="42.2054290" lon="-8.7515480">
        <ele>12.1</ele>
        <time>2021-05-20T09:19:34Z</time>
      </trkpt>
      <trkpt lat="42.2054300" lon="-8.7515530">
        <ele>12.1</ele>
        <time>2021-05-20T09:19:35Z</time>
      </trkpt>
      <trkpt lat="42.2054450" lon="-8.7515700">
        <ele>12.1</ele>
        <time>2021-05-20T09:19:36Z</time>
      </trkpt>
      <trkpt lat="42.2054430" lon="-8.7515990">
        <ele>12.1</ele>
        <time>2021-05-20T09:19:37Z</time>
      </trkpt>
      <trkpt lat="42.2054480" lon="-8.7516060">
        <ele>12.1</ele>
        <time>2021-05-20T09:19:38Z</time>
      </trkpt>
      <trkpt lat="42.2054520" lon="-8.7516120">
        <ele>12.1</ele>
        <time>2021-05-20T09:19:39Z</time>
      </trkpt>
      <trkpt lat="42.2054560" lon="-8.7516190">
        <ele>12.1</ele>
        <time>2021-05-20T09:19:40Z</time>
      </trkpt>
      <trkpt lat="42.2054590" lon="-8.7516290">
        <ele>12.1</ele>
        <time>2021-05-20T09:19:41Z</time>
      </trkpt>
      <trkpt lat="42.2054580" lon="-8.7516310">
        <ele>12.1</ele>
        <time>2021-05-20T09:19:42Z</time>
      </trkpt>
      <trkpt lat="42.2054490" lon="-8.7516450">
        <ele>12.1</ele>
        <time>2021-05-20T09:19:43Z</time>
      </trkpt>
      <trkpt lat="42.2054540" lon="-8.7516580">
        <ele>12.1</ele>
        <time>2021-05-20T09:19:44Z</time>
      </trkpt>
      <trkpt lat="42.2054560" lon="-8.7516670">
        <ele>12.1</ele>
        <time>2021-05-20T09:19:45Z</time>
      </trkpt>
      <trkpt lat="42.2054630" lon="-8.7516760">
        <ele>12.1</ele>
        <time>2021-05-20T09:19:46Z</time>
      </trkpt>
      <trkpt lat="42.2054750" lon="-8.7516960">
        <ele>12.1</ele>
        <time>2021-05-20T09:19:47Z</time>
      </trkpt>
      <trkpt lat="42.2054790" lon="-8.7516980">
        <ele>12.1</ele>
        <time>2021-05-20T09:19:48Z</time>
      </trkpt>
      <trkpt lat="42.2054880" lon="-8.7517070">
        <ele>12.2</ele>
        <time>2021-05-20T09:19:49Z</time>
      </trkpt>
      <trkpt lat="42.2054980" lon="-8.7517230">
        <ele>12.2</ele>
        <time>2021-05-20T09:19:50Z</time>
      </trkpt>
      <trkpt lat="42.2055090" lon="-8.7517370">
        <ele>12.2</ele>
        <time>2021-05-20T09:19:51Z</time>
      </trkpt>
      <trkpt lat="42.2055200" lon="-8.7517590">
        <ele>12.2</ele>
        <time>2021-05-20T09:19:52Z</time>
      </trkpt>
      <trkpt lat="42.2055300" lon="-8.7517650">
        <ele>12.2</ele>
        <time>2021-05-20T09:19:53Z</time>
      </trkpt>
      <trkpt lat="42.2055360" lon="-8.7517600">
        <ele>12.2</ele>
        <time>2021-05-20T09:19:54Z</time>
      </trkpt>
      <trkpt lat="42.2055410" lon="-8.7517560">
        <ele>12.2</ele>
        <time>2021-05-20T09:19:55Z</time>
      </trkpt>
      <trkpt lat="42.2055460" lon="-8.7517510">
        <ele>12.2</ele>
        <time>2021-05-20T09:19:56Z</time>
      </trkpt>
      <trkpt lat="42.2055520" lon="-8.7517470">
        <ele>12.2</ele>
        <time>2021-05-20T09:19:57Z</time>
      </trkpt>
      <trkpt lat="42.2055570" lon="-8.7517420">
        <ele>12.2</ele>
        <time>2021-05-20T09:19:58Z</time>
      </trkpt>
      <trkpt lat="42.2055670" lon="-8.7517360">
        <ele>12.2</ele>
        <time>2021-05-20T09:19:59Z</time>
      </trkpt>
      <trkpt lat="42.2055750" lon="-8.7517300">
        <ele>12.2</ele>
        <time>2021-05-20T09:20:00Z</time>
      </trkpt>
      <trkpt lat="42.2055880" lon="-8.7517260">
        <ele>12.2</ele>
        <time>2021-05-20T09:20:01Z</time>
      </trkpt>
      <trkpt lat="42.2056040" lon="-8.7517230">
        <ele>12.2</ele>
        <time>2021-05-20T09:20:02Z</time>
      </trkpt>
      <trkpt lat="42.2056160" lon="-8.7517180">
        <ele>12.2</ele>
        <time>2021-05-20T09:20:03Z</time>
      </trkpt>
      <trkpt lat="42.2056370" lon="-8.7517100">
        <ele>12.3</ele>
        <time>2021-05-20T09:20:04Z</time>
      </trkpt>
      <trkpt lat="42.2056450" lon="-8.7517060">
        <ele>12.3</ele>
        <time>2021-05-20T09:20:05Z</time>
      </trkpt>
      <trkpt lat="42.2056520" lon="-8.7517030">
        <ele>12.3</ele>
        <time>2021-05-20T09:20:06Z</time>
      </trkpt>
      <trkpt lat="42.2056580" lon="-8.7516980">
        <ele>12.3</ele>
        <time>2021-05-20T09:20:07Z</time>
      </trkpt>
      <trkpt lat="42.2056700" lon="-8.7516970">
        <ele>12.3</ele>
        <time>2021-05-20T09:20:08Z</time>
      </trkpt>
      <trkpt lat="42.2056860" lon="-8.7516890">
        <ele>12.3</ele>
        <time>2021-05-20T09:20:09Z</time>
      </trkpt>
      <trkpt lat="42.2056980" lon="-8.7516880">
        <ele>12.3</ele>
        <time>2021-05-20T09:20:10Z</time>
      </trkpt>
      <trkpt lat="42.2057060" lon="-8.7516900">
        <ele>12.3</ele>
        <time>2021-05-20T09:20:11Z</time>
      </trkpt>
      <trkpt lat="42.2057200" lon="-8.7516890">
        <ele>12.3</ele>
        <time>2021-05-20T09:20:12Z</time>
      </trkpt>
      <trkpt lat="42.2057360" lon="-8.7516790">
        <ele>12.3</ele>
        <time>2021-05-20T09:20:13Z</time>
      </trkpt>
      <trkpt lat="42.2057440" lon="-8.7516750">
        <ele>12.3</ele>
        <time>2021-05-20T09:20:14Z</time>
      </trkpt>
      <trkpt lat="42.2057520" lon="-8.7516700">
        <ele>12.3</ele>
        <time>2021-05-20T09:20:15Z</time>
      </trkpt>
      <trkpt lat="42.2057600" lon="-8.7516650">
        <ele>12.3</ele>
        <time>2021-05-20T09:20:16Z</time>
      </trkpt>
      <trkpt lat="42.2057710" lon="-8.7516560">
        <ele>12.3</ele>
        <time>2021-05-20T09:20:17Z</time>
      </trkpt>
      <trkpt lat="42.2057950" lon="-8.7516590">
        <ele>12.3</ele>
        <time>2021-05-20T09:20:18Z</time>
      </trkpt>
      <trkpt lat="42.2058110" lon="-8.7516560">
        <ele>12.3</ele>
        <time>2021-05-20T09:20:19Z</time>
      </trkpt>
      <trkpt lat="42.2058220" lon="-8.7516700">
        <ele>12.3</ele>
        <time>2021-05-20T09:20:20Z</time>
      </trkpt>
      <trkpt lat="42.2058270" lon="-8.7516850">
        <ele>12.3</ele>
        <time>2021-05-20T09:20:21Z</time>
      </trkpt>
      <trkpt lat="42.2058290" lon="-8.7516890">
        <ele>12.3</ele>
        <time>2021-05-20T09:20:22Z</time>
      </trkpt>
      <trkpt lat="42.2058320" lon="-8.7516870">
        <ele>12.3</ele>
        <time>2021-05-20T09:20:23Z</time>
      </trkpt>
      <trkpt lat="42.2058340" lon="-8.7516870">
        <ele>12.3</ele>
        <time>2021-05-20T09:20:24Z</time>
      </trkpt>
      <trkpt lat="42.2058380" lon="-8.7516850">
        <ele>12.3</ele>
        <time>2021-05-20T09:20:25Z</time>
      </trkpt>
      <trkpt lat="42.2058410" lon="-8.7516850">
        <ele>12.3</ele>
        <time>2021-05-20T09:20:26Z</time>
      </trkpt>
      <trkpt lat="42.2058470" lon="-8.7516870">
        <ele>12.3</ele>
        <time>2021-05-20T09:20:27Z</time>
      </trkpt>
      <trkpt lat="42.2058520" lon="-8.7516900">
        <ele>12.3</ele>
        <time>2021-05-20T09:20:28Z</time>
      </trkpt>
      <trkpt lat="42.2058600" lon="-8.7516930">
        <ele>12.3</ele>
        <time>2021-05-20T09:20:29Z</time>
      </trkpt>
      <trkpt lat="42.2058610" lon="-8.7516940">
        <ele>12.3</ele>
        <time>2021-05-20T09:20:30Z</time>
      </trkpt>
      <trkpt lat="42.2058610" lon="-8.7516930">
        <ele>12.3</ele>
        <time>2021-05-20T09:20:31Z</time>
      </trkpt>
      <trkpt lat="42.2058620" lon="-8.7516930">
        <ele>12.3</ele>
        <time>2021-05-20T09:20:32Z</time>
      </trkpt>
      <trkpt lat="42.2058640" lon="-8.7516950">
        <ele>12.3</ele>
        <time>2021-05-20T09:20:33Z</time>
      </trkpt>
      <trkpt lat="42.2058650" lon="-8.7517000">
        <ele>12.3</ele>
        <time>2021-05-20T09:20:34Z</time>
      </trkpt>
      <trkpt lat="42.2058660" lon="-8.7517010">
        <ele>12.3</ele>
        <time>2021-05-20T09:20:35Z</time>
      </trkpt>
      <trkpt lat="42.2058660" lon="-8.7516980">
        <ele>12.3</ele>
        <time>2021-05-20T09:20:36Z</time>
      </trkpt>
      <trkpt lat="42.2058730" lon="-8.7517010">
        <ele>12.3</ele>
        <time>2021-05-20T09:20:37Z</time>
      </trkpt>
      <trkpt lat="42.2058870" lon="-8.7517070">
        <ele>12.3</ele>
        <time>2021-05-20T09:20:38Z</time>
      </trkpt>
      <trkpt lat="42.2059030" lon="-8.7517120">
        <ele>12.3</ele>
        <time>2021-05-20T09:20:39Z</time>
      </trkpt>
      <trkpt lat="42.2059130" lon="-8.7517140">
        <ele>12.3</ele>
        <time>2021-05-20T09:20:40Z</time>
      </trkpt>
      <trkpt lat="42.2059220" lon="-8.7517120">
        <ele>12.3</ele>
        <time>2021-05-20T09:20:41Z</time>
      </trkpt>
      <trkpt lat="42.2059280" lon="-8.7517110">
        <ele>12.3</ele>
        <time>2021-05-20T09:20:42Z</time>
      </trkpt>
      <trkpt lat="42.2059380" lon="-8.7517080">
        <ele>12.3</ele>
        <time>2021-05-20T09:20:43Z</time>
      </trkpt>
      <trkpt lat="42.2059450" lon="-8.7516990">
        <ele>12.3</ele>
        <time>2021-05-20T09:20:44Z</time>
      </trkpt>
      <trkpt lat="42.2059480" lon="-8.7516890">
        <ele>12.3</ele>
        <time>2021-05-20T09:20:45Z</time>
      </trkpt>
      <trkpt lat="42.2059530" lon="-8.7516780">
        <ele>12.3</ele>
        <time>2021-05-20T09:20:46Z</time>
      </trkpt>
      <trkpt lat="42.2059600" lon="-8.7516700">
        <ele>12.3</ele>
        <time>2021-05-20T09:20:47Z</time>
      </trkpt>
      <trkpt lat="42.2059680" lon="-8.7516600">
        <ele>12.3</ele>
        <time>2021-05-20T09:20:48Z</time>
      </trkpt>
      <trkpt lat="42.2059740" lon="-8.7516480">
        <ele>12.3</ele>
        <time>2021-05-20T09:20:49Z</time>
      </trkpt>
      <trkpt lat="42.2059790" lon="-8.7516440">
        <ele>12.3</ele>
        <time>2021-05-20T09:20:50Z</time>
      </trkpt>
      <trkpt lat="42.2059960" lon="-8.7516400">
        <ele>12.3</ele>
        <time>2021-05-20T09:20:51Z</time>
      </trkpt>
      <trkpt lat="42.2060030" lon="-8.7516380">
        <ele>12.3</ele>
        <time>2021-05-20T09:20:52Z</time>
      </trkpt>
      <trkpt lat="42.2060090" lon="-8.7516350">
        <ele>12.3</ele>
        <time>2021-05-20T09:20:53Z</time>
      </trkpt>
      <trkpt lat="42.2060160" lon="-8.7516330">
        <ele>12.3</ele>
        <time>2021-05-20T09:20:54Z</time>
      </trkpt>
      <trkpt lat="42.2060300" lon="-8.7516320">
        <ele>12.3</ele>
        <time>2021-05-20T09:20:55Z</time>
      </trkpt>
      <trkpt lat="42.2060380" lon="-8.7516250">
        <ele>12.3</ele>
        <time>2021-05-20T09:20:56Z</time>
      </trkpt>
      <trkpt lat="42.2060420" lon="-8.7516210">
        <ele>12.3</ele>
        <time>2021-05-20T09:20:57Z</time>
      </trkpt>
      <trkpt lat="42.2060520" lon="-8.7516250">
        <ele>12.3</ele>
        <time>2021-05-20T09:20:58Z</time>
      </trkpt>
      <trkpt lat="42.2060590" lon="-8.7516200">
        <ele>12.3</ele>
        <time>2021-05-20T09:20:59Z</time>
      </trkpt>
      <trkpt lat="42.2060640" lon="-8.7516130">
        <ele>12.3</ele>
        <time>2021-05-20T09:21:00Z</time>
      </trkpt>
      <trkpt lat="42.2060720" lon="-8.7516110">
        <ele>12.3</ele>
        <time>2021-05-20T09:21:01Z</time>
      </trkpt>
      <trkpt lat="42.2060880" lon="-8.7516080">
        <ele>12.3</ele>
        <time>2021-05-20T09:21:02Z</time>
      </trkpt>
      <trkpt lat="42.2060960" lon="-8.7516080">
        <ele>12.3</ele>
        <time>2021-05-20T09:21:03Z</time>
      </trkpt>
      <trkpt lat="42.2061040" lon="-8.7516090">
        <ele>12.3</ele>
        <time>2021-05-20T09:21:04Z</time>
      </trkpt>
      <trkpt lat="42.2061120" lon="-8.7516100">
        <ele>12.3</ele>
        <time>2021-05-20T09:21:05Z</time>
      </trkpt>
      <trkpt lat="42.2061260" lon="-8.7516100">
        <ele>12.3</ele>
        <time>2021-05-20T09:21:06Z</time>
      </trkpt>
      <trkpt lat="42.2061390" lon="-8.7516080">
        <ele>12.3</ele>
        <time>2021-05-20T09:21:07Z</time>
      </trkpt>
      <trkpt lat="42.2061500" lon="-8.7516070">
        <ele>12.3</ele>
        <time>2021-05-20T09:21:08Z</time>
      </trkpt>
      <trkpt lat="42.2061520" lon="-8.7516110">
        <ele>12.3</ele>
        <time>2021-05-20T09:21:09Z</time>
      </trkpt>
      <trkpt lat="42.2061540" lon="-8.7516050">
        <ele>12.3</ele>
        <time>2021-05-20T09:21:10Z</time>
      </trkpt>
      <trkpt lat="42.2061600" lon="-8.7515980">
        <ele>12.3</ele>
        <time>2021-05-20T09:21:11Z</time>
      </trkpt>
      <trkpt lat="42.2061560" lon="-8.7515940">
        <ele>12.3</ele>
        <time>2021-05-20T09:21:12Z</time>
      </trkpt>
      <trkpt lat="42.2061710" lon="-8.7515890">
        <ele>12.3</ele>
        <time>2021-05-20T09:21:13Z</time>
      </trkpt>
      <trkpt lat="42.2061840" lon="-8.7515940">
        <ele>12.3</ele>
        <time>2021-05-20T09:21:14Z</time>
      </trkpt>
      <trkpt lat="42.2062000" lon="-8.7515920">
        <ele>12.3</ele>
        <time>2021-05-20T09:21:15Z</time>
      </trkpt>
      <trkpt lat="42.2062040" lon="-8.7515870">
        <ele>12.3</ele>
        <time>2021-05-20T09:21:16Z</time>
      </trkpt>
      <trkpt lat="42.2062160" lon="-8.7515840">
        <ele>12.3</ele>
        <time>2021-05-20T09:21:17Z</time>
      </trkpt>
      <trkpt lat="42.2062280" lon="-8.7515770">
        <ele>12.3</ele>
        <time>2021-05-20T09:21:18Z</time>
      </trkpt>
      <trkpt lat="42.2062560" lon="-8.7515730">
        <ele>12.3</ele>
        <time>2021-05-20T09:21:19Z</time>
      </trkpt>
      <trkpt lat="42.2062640" lon="-8.7515690">
        <ele>12.3</ele>
        <time>2021-05-20T09:21:20Z</time>
      </trkpt>
      <trkpt lat="42.2062680" lon="-8.7515610">
        <ele>12.3</ele>
        <time>2021-05-20T09:21:21Z</time>
      </trkpt>
      <trkpt lat="42.2062690" lon="-8.7515510">
        <ele>12.2</ele>
        <time>2021-05-20T09:21:22Z</time>
      </trkpt>
      <trkpt lat="42.2062690" lon="-8.7515540">
        <ele>12.2</ele>
        <time>2021-05-20T09:21:23Z</time>
      </trkpt>
      <trkpt lat="42.2062750" lon="-8.7515470">
        <ele>12.2</ele>
        <time>2021-05-20T09:21:24Z</time>
      </trkpt>
      <trkpt lat="42.2062730" lon="-8.7515220">
        <ele>12.2</ele>
        <time>2021-05-20T09:21:25Z</time>
      </trkpt>
      <trkpt lat="42.2062800" lon="-8.7514990">
        <ele>12.2</ele>
        <time>2021-05-20T09:21:26Z</time>
      </trkpt>
      <trkpt lat="42.2062840" lon="-8.7514840">
        <ele>12.2</ele>
        <time>2021-05-20T09:21:27Z</time>
      </trkpt>
      <trkpt lat="42.2062870" lon="-8.7514690">
        <ele>12.2</ele>
        <time>2021-05-20T09:21:28Z</time>
      </trkpt>
      <trkpt lat="42.2062940" lon="-8.7514430">
        <ele>12.2</ele>
        <time>2021-05-20T09:21:29Z</time>
      </trkpt>
      <trkpt lat="42.2063000" lon="-8.7514340">
        <ele>12.1</ele>
        <time>2021-05-20T09:21:30Z</time>
      </trkpt>
      <trkpt lat="42.2063050" lon="-8.7514240">
        <ele>12.1</ele>
        <time>2021-05-20T09:21:31Z</time>
      </trkpt>
      <trkpt lat="42.2063160" lon="-8.7513930">
        <ele>12.1</ele>
        <time>2021-05-20T09:21:32Z</time>
      </trkpt>
      <trkpt lat="42.2063180" lon="-8.7513820">
        <ele>12.1</ele>
        <time>2021-05-20T09:21:33Z</time>
      </trkpt>
      <trkpt lat="42.2063190" lon="-8.7513720">
        <ele>12.1</ele>
        <time>2021-05-20T09:21:34Z</time>
      </trkpt>
      <trkpt lat="42.2063240" lon="-8.7513640">
        <ele>12.1</ele>
        <time>2021-05-20T09:21:35Z</time>
      </trkpt>
      <trkpt lat="42.2063210" lon="-8.7513530">
        <ele>12.0</ele>
        <time>2021-05-20T09:21:36Z</time>
      </trkpt>
      <trkpt lat="42.2063280" lon="-8.7513370">
        <ele>12.0</ele>
        <time>2021-05-20T09:21:37Z</time>
      </trkpt>
      <trkpt lat="42.2063320" lon="-8.7513240">
        <ele>12.0</ele>
        <time>2021-05-20T09:21:38Z</time>
      </trkpt>
      <trkpt lat="42.2063350" lon="-8.7512990">
        <ele>12.0</ele>
        <time>2021-05-20T09:21:39Z</time>
      </trkpt>
      <trkpt lat="42.2063370" lon="-8.7512800">
        <ele>12.0</ele>
        <time>2021-05-20T09:21:40Z</time>
      </trkpt>
      <trkpt lat="42.2063360" lon="-8.7512670">
        <ele>12.0</ele>
        <time>2021-05-20T09:21:41Z</time>
      </trkpt>
      <trkpt lat="42.2063280" lon="-8.7512540">
        <ele>12.0</ele>
        <time>2021-05-20T09:21:42Z</time>
      </trkpt>
      <trkpt lat="42.2063250" lon="-8.7512420">
        <ele>12.0</ele>
        <time>2021-05-20T09:21:43Z</time>
      </trkpt>
      <trkpt lat="42.2063160" lon="-8.7512270">
        <ele>12.0</ele>
        <time>2021-05-20T09:21:44Z</time>
      </trkpt>
      <trkpt lat="42.2063090" lon="-8.7512160">
        <ele>12.0</ele>
        <time>2021-05-20T09:21:45Z</time>
      </trkpt>
      <trkpt lat="42.2063050" lon="-8.7511890">
        <ele>12.0</ele>
        <time>2021-05-20T09:21:46Z</time>
      </trkpt>
      <trkpt lat="42.2063040" lon="-8.7511770">
        <ele>11.9</ele>
        <time>2021-05-20T09:21:47Z</time>
      </trkpt>
      <trkpt lat="42.2063030" lon="-8.7511650">
        <ele>11.9</ele>
        <time>2021-05-20T09:21:48Z</time>
      </trkpt>
      <trkpt lat="42.2063020" lon="-8.7511350">
        <ele>11.9</ele>
        <time>2021-05-20T09:21:49Z</time>
      </trkpt>
      <trkpt lat="42.2063040" lon="-8.7511250">
        <ele>11.9</ele>
        <time>2021-05-20T09:21:50Z</time>
      </trkpt>
      <trkpt lat="42.2063050" lon="-8.7511140">
        <ele>11.9</ele>
        <time>2021-05-20T09:21:51Z</time>
      </trkpt>
      <trkpt lat="42.2062990" lon="-8.7511010">
        <ele>11.9</ele>
        <time>2021-05-20T09:21:52Z</time>
      </trkpt>
      <trkpt lat="42.2062950" lon="-8.7510830">
        <ele>11.9</ele>
        <time>2021-05-20T09:21:53Z</time>
      </trkpt>
      <trkpt lat="42.2062910" lon="-8.7510720">
        <ele>11.9</ele>
        <time>2021-05-20T09:21:54Z</time>
      </trkpt>
      <trkpt lat="42.2062870" lon="-8.7510430">
        <ele>11.9</ele>
        <time>2021-05-20T09:21:55Z</time>
      </trkpt>
      <trkpt lat="42.2062860" lon="-8.7510290">
        <ele>11.9</ele>
        <time>2021-05-20T09:21:56Z</time>
      </trkpt>
      <trkpt lat="42.2062840" lon="-8.7510160">
        <ele>11.9</ele>
        <time>2021-05-20T09:21:57Z</time>
      </trkpt>
      <trkpt lat="42.2062850" lon="-8.7510010">
        <ele>11.9</ele>
        <time>2021-05-20T09:21:58Z</time>
      </trkpt>
      <trkpt lat="42.2062830" lon="-8.7509810">
        <ele>11.8</ele>
        <time>2021-05-20T09:21:59Z</time>
      </trkpt>
      <trkpt lat="42.2062800" lon="-8.7509690">
        <ele>11.8</ele>
        <time>2021-05-20T09:22:00Z</time>
      </trkpt>
      <trkpt lat="42.2062780" lon="-8.7509540">
        <ele>11.8</ele>
        <time>2021-05-20T09:22:01Z</time>
      </trkpt>
      <trkpt lat="42.2062790" lon="-8.7509430">
        <ele>11.8</ele>
        <time>2021-05-20T09:22:02Z</time>
      </trkpt>
      <trkpt lat="42.2062780" lon="-8.7509260">
        <ele>11.8</ele>
        <time>2021-05-20T09:22:03Z</time>
      </trkpt>
      <trkpt lat="42.2062740" lon="-8.7509030">
        <ele>11.8</ele>
        <time>2021-05-20T09:22:04Z</time>
      </trkpt>
      <trkpt lat="42.2062750" lon="-8.7508850">
        <ele>11.8</ele>
        <time>2021-05-20T09:22:05Z</time>
      </trkpt>
      <trkpt lat="42.2062720" lon="-8.7508630">
        <ele>11.8</ele>
        <time>2021-05-20T09:22:06Z</time>
      </trkpt>
      <trkpt lat="42.2062720" lon="-8.7508530">
        <ele>11.8</ele>
        <time>2021-05-20T09:22:07Z</time>
      </trkpt>
      <trkpt lat="42.2062690" lon="-8.7508410">
        <ele>11.8</ele>
        <time>2021-05-20T09:22:08Z</time>
      </trkpt>
      <trkpt lat="42.2062660" lon="-8.7508110">
        <ele>11.8</ele>
        <time>2021-05-20T09:22:09Z</time>
      </trkpt>
      <trkpt lat="42.2062640" lon="-8.7507990">
        <ele>11.7</ele>
        <time>2021-05-20T09:22:10Z</time>
      </trkpt>
      <trkpt lat="42.2062630" lon="-8.7507880">
        <ele>11.7</ele>
        <time>2021-05-20T09:22:11Z</time>
      </trkpt>
      <trkpt lat="42.2062620" lon="-8.7507740">
        <ele>11.7</ele>
        <time>2021-05-20T09:22:12Z</time>
      </trkpt>
      <trkpt lat="42.2062620" lon="-8.7507610">
        <ele>11.7</ele>
        <time>2021-05-20T09:22:13Z</time>
      </trkpt>
      <trkpt lat="42.2062610" lon="-8.7507470">
        <ele>11.7</ele>
        <time>2021-05-20T09:22:14Z</time>
      </trkpt>
      <trkpt lat="42.2062580" lon="-8.7507250">
        <ele>11.7</ele>
        <time>2021-05-20T09:22:15Z</time>
      </trkpt>
      <trkpt lat="42.2062640" lon="-8.7507100">
        <ele>11.7</ele>
        <time>2021-05-20T09:22:16Z</time>
      </trkpt>
      <trkpt lat="42.2062680" lon="-8.7506920">
        <ele>11.7</ele>
        <time>2021-05-20T09:22:17Z</time>
      </trkpt>
      <trkpt lat="42.2062630" lon="-8.7506850">
        <ele>11.7</ele>
        <time>2021-05-20T09:22:18Z</time>
      </trkpt>
      <trkpt lat="42.2062610" lon="-8.7506640">
        <ele>11.7</ele>
        <time>2021-05-20T09:22:19Z</time>
      </trkpt>
      <trkpt lat="42.2062640" lon="-8.7506370">
        <ele>11.7</ele>
        <time>2021-05-20T09:22:20Z</time>
      </trkpt>
      <trkpt lat="42.2062640" lon="-8.7506240">
        <ele>11.7</ele>
        <time>2021-05-20T09:22:21Z</time>
      </trkpt>
      <trkpt lat="42.2062640" lon="-8.7506120">
        <ele>11.7</ele>
        <time>2021-05-20T09:22:22Z</time>
      </trkpt>
      <trkpt lat="42.2062630" lon="-8.7505920">
        <ele>11.6</ele>
        <time>2021-05-20T09:22:23Z</time>
      </trkpt>
      <trkpt lat="42.2062610" lon="-8.7505800">
        <ele>11.6</ele>
        <time>2021-05-20T09:22:24Z</time>
      </trkpt>
      <trkpt lat="42.2062600" lon="-8.7505690">
        <ele>11.6</ele>
        <time>2021-05-20T09:22:25Z</time>
      </trkpt>
      <trkpt lat="42.2062580" lon="-8.7505570">
        <ele>11.6</ele>
        <time>2021-05-20T09:22:26Z</time>
      </trkpt>
      <trkpt lat="42.2062590" lon="-8.7505410">
        <ele>11.6</ele>
        <time>2021-05-20T09:22:27Z</time>
      </trkpt>
      <trkpt lat="42.2062580" lon="-8.7505190">
        <ele>11.6</ele>
        <time>2021-05-20T09:22:28Z</time>
      </trkpt>
      <trkpt lat="42.2062660" lon="-8.7505020">
        <ele>11.6</ele>
        <time>2021-05-20T09:22:29Z</time>
      </trkpt>
      <trkpt lat="42.2062710" lon="-8.7504940">
        <ele>11.6</ele>
        <time>2021-05-20T09:22:30Z</time>
      </trkpt>
      <trkpt lat="42.2062770" lon="-8.7504880">
        <ele>11.6</ele>
        <time>2021-05-20T09:22:31Z</time>
      </trkpt>
      <trkpt lat="42.2062770" lon="-8.7504690">
        <ele>11.6</ele>
        <time>2021-05-20T09:22:32Z</time>
      </trkpt>
      <trkpt lat="42.2062820" lon="-8.7504570">
        <ele>11.6</ele>
        <time>2021-05-20T09:22:33Z</time>
      </trkpt>
      <trkpt lat="42.2062920" lon="-8.7504460">
        <ele>11.6</ele>
        <time>2021-05-20T09:22:34Z</time>
      </trkpt>
      <trkpt lat="42.2063010" lon="-8.7504350">
        <ele>11.6</ele>
        <time>2021-05-20T09:22:35Z</time>
      </trkpt>
      <trkpt lat="42.2063150" lon="-8.7504150">
        <ele>11.6</ele>
        <time>2021-05-20T09:22:36Z</time>
      </trkpt>
      <trkpt lat="42.2063230" lon="-8.7503930">
        <ele>11.5</ele>
        <time>2021-05-20T09:22:37Z</time>
      </trkpt>
      <trkpt lat="42.2063340" lon="-8.7503780">
        <ele>11.5</ele>
        <time>2021-05-20T09:22:38Z</time>
      </trkpt>
      <trkpt lat="42.2063430" lon="-8.7503590">
        <ele>11.5</ele>
        <time>2021-05-20T09:22:39Z</time>
      </trkpt>
      <trkpt lat="42.2063480" lon="-8.7503420">
        <ele>11.5</ele>
        <time>2021-05-20T09:22:40Z</time>
      </trkpt>
      <trkpt lat="42.2063510" lon="-8.7503290">
        <ele>11.5</ele>
        <time>2021-05-20T09:22:41Z</time>
      </trkpt>
      <trkpt lat="42.2063630" lon="-8.7503100">
        <ele>11.5</ele>
        <time>2021-05-20T09:22:42Z</time>
      </trkpt>
      <trkpt lat="42.2063690" lon="-8.7502880">
        <ele>11.5</ele>
        <time>2021-05-20T09:22:43Z</time>
      </trkpt>
      <trkpt lat="42.2063710" lon="-8.7502800">
        <ele>11.5</ele>
        <time>2021-05-20T09:22:44Z</time>
      </trkpt>
      <trkpt lat="42.2063740" lon="-8.7502710">
        <ele>11.5</ele>
        <time>2021-05-20T09:22:45Z</time>
      </trkpt>
      <trkpt lat="42.2063760" lon="-8.7502620">
        <ele>11.5</ele>
        <time>2021-05-20T09:22:46Z</time>
      </trkpt>
      <trkpt lat="42.2063870" lon="-8.7502360">
        <ele>11.5</ele>
        <time>2021-05-20T09:22:47Z</time>
      </trkpt>
      <trkpt lat="42.2063890" lon="-8.7502260">
        <ele>11.5</ele>
        <time>2021-05-20T09:22:48Z</time>
      </trkpt>
      <trkpt lat="42.2063910" lon="-8.7502150">
        <ele>11.5</ele>
        <time>2021-05-20T09:22:49Z</time>
      </trkpt>
      <trkpt lat="42.2064010" lon="-8.7501900">
        <ele>11.5</ele>
        <time>2021-05-20T09:22:50Z</time>
      </trkpt>
      <trkpt lat="42.2064060" lon="-8.7501790">
        <ele>11.4</ele>
        <time>2021-05-20T09:22:51Z</time>
      </trkpt>
      <trkpt lat="42.2064100" lon="-8.7501680">
        <ele>11.4</ele>
        <time>2021-05-20T09:22:52Z</time>
      </trkpt>
      <trkpt lat="42.2064070" lon="-8.7501590">
        <ele>11.4</ele>
        <time>2021-05-20T09:22:53Z</time>
      </trkpt>
      <trkpt lat="42.2064070" lon="-8.7501470">
        <ele>11.4</ele>
        <time>2021-05-20T09:22:54Z</time>
      </trkpt>
      <trkpt lat="42.2064210" lon="-8.7501260">
        <ele>11.4</ele>
        <time>2021-05-20T09:22:55Z</time>
      </trkpt>
      <trkpt lat="42.2064250" lon="-8.7501120">
        <ele>11.4</ele>
        <time>2021-05-20T09:22:56Z</time>
      </trkpt>
      <trkpt lat="42.2064290" lon="-8.7500870">
        <ele>11.4</ele>
        <time>2021-05-20T09:22:57Z</time>
      </trkpt>
      <trkpt lat="42.2064340" lon="-8.7500690">
        <ele>11.4</ele>
        <time>2021-05-20T09:22:58Z</time>
      </trkpt>
      <trkpt lat="42.2064470" lon="-8.7500590">
        <ele>11.4</ele>
        <time>2021-05-20T09:22:59Z</time>
      </trkpt>
      <trkpt lat="42.2064600" lon="-8.7500440">
        <ele>11.4</ele>
        <time>2021-05-20T09:23:00Z</time>
      </trkpt>
      <trkpt lat="42.2064630" lon="-8.7500280">
        <ele>11.4</ele>
        <time>2021-05-20T09:23:01Z</time>
      </trkpt>
      <trkpt lat="42.2064710" lon="-8.7499980">
        <ele>11.4</ele>
        <time>2021-05-20T09:23:02Z</time>
      </trkpt>
      <trkpt lat="42.2064710" lon="-8.7499890">
        <ele>11.4</ele>
        <time>2021-05-20T09:23:03Z</time>
      </trkpt>
      <trkpt lat="42.2064710" lon="-8.7499800">
        <ele>11.4</ele>
        <time>2021-05-20T09:23:04Z</time>
      </trkpt>
      <trkpt lat="42.2064900" lon="-8.7499620">
        <ele>11.3</ele>
        <time>2021-05-20T09:23:05Z</time>
      </trkpt>
      <trkpt lat="42.2064870" lon="-8.7499430">
        <ele>11.3</ele>
        <time>2021-05-20T09:23:06Z</time>
      </trkpt>
      <trkpt lat="42.2064890" lon="-8.7499130">
        <ele>11.3</ele>
        <time>2021-05-20T09:23:07Z</time>
      </trkpt>
      <trkpt lat="42.2064900" lon="-8.7498990">
        <ele>11.3</ele>
        <time>2021-05-20T09:23:08Z</time>
      </trkpt>
      <trkpt lat="42.2064960" lon="-8.7498770">
        <ele>11.3</ele>
        <time>2021-05-20T09:23:09Z</time>
      </trkpt>
      <trkpt lat="42.2064980" lon="-8.7498640">
        <ele>11.3</ele>
        <time>2021-05-20T09:23:10Z</time>
      </trkpt>
      <trkpt lat="42.2065080" lon="-8.7498360">
        <ele>11.3</ele>
        <time>2021-05-20T09:23:11Z</time>
      </trkpt>
      <trkpt lat="42.2065110" lon="-8.7498220">
        <ele>11.3</ele>
        <time>2021-05-20T09:23:12Z</time>
      </trkpt>
      <trkpt lat="42.2065150" lon="-8.7498070">
        <ele>11.3</ele>
        <time>2021-05-20T09:23:13Z</time>
      </trkpt>
      <trkpt lat="42.2065230" lon="-8.7497930">
        <ele>11.3</ele>
        <time>2021-05-20T09:23:14Z</time>
      </trkpt>
      <trkpt lat="42.2065310" lon="-8.7497770">
        <ele>11.3</ele>
        <time>2021-05-20T09:23:15Z</time>
      </trkpt>
      <trkpt lat="42.2065380" lon="-8.7497670">
        <ele>11.3</ele>
        <time>2021-05-20T09:23:16Z</time>
      </trkpt>
      <trkpt lat="42.2065450" lon="-8.7497410">
        <ele>11.3</ele>
        <time>2021-05-20T09:23:17Z</time>
      </trkpt>
      <trkpt lat="42.2065400" lon="-8.7497270">
        <ele>11.3</ele>
        <time>2021-05-20T09:23:18Z</time>
      </trkpt>
      <trkpt lat="42.2065420" lon="-8.7497180">
        <ele>11.3</ele>
        <time>2021-05-20T09:23:19Z</time>
      </trkpt>
      <trkpt lat="42.2065580" lon="-8.7496960">
        <ele>11.3</ele>
        <time>2021-05-20T09:23:20Z</time>
      </trkpt>
      <trkpt lat="42.2065520" lon="-8.7496780">
        <ele>11.3</ele>
        <time>2021-05-20T09:23:21Z</time>
      </trkpt>
      <trkpt lat="42.2065570" lon="-8.7496680">
        <ele>11.3</ele>
        <time>2021-05-20T09:23:22Z</time>
      </trkpt>
      <trkpt lat="42.2065560" lon="-8.7496520">
        <ele>11.3</ele>
        <time>2021-05-20T09:23:23Z</time>
      </trkpt>
      <trkpt lat="42.2065660" lon="-8.7496230">
        <ele>11.3</ele>
        <time>2021-05-20T09:23:24Z</time>
      </trkpt>
      <trkpt lat="42.2065680" lon="-8.7496140">
        <ele>11.3</ele>
        <time>2021-05-20T09:23:25Z</time>
      </trkpt>
      <trkpt lat="42.2065710" lon="-8.7496040">
        <ele>11.3</ele>
        <time>2021-05-20T09:23:26Z</time>
      </trkpt>
      <trkpt lat="42.2065760" lon="-8.7495750">
        <ele>11.3</ele>
        <time>2021-05-20T09:23:27Z</time>
      </trkpt>
      <trkpt lat="42.2065850" lon="-8.7495610">
        <ele>11.3</ele>
        <time>2021-05-20T09:23:28Z</time>
      </trkpt>
      <trkpt lat="42.2065930" lon="-8.7495460">
        <ele>11.3</ele>
        <time>2021-05-20T09:23:29Z</time>
      </trkpt>
      <trkpt lat="42.2065970" lon="-8.7495520">
        <ele>11.3</ele>
        <time>2021-05-20T09:23:30Z</time>
      </trkpt>
      <trkpt lat="42.2066030" lon="-8.7495400">
        <ele>11.3</ele>
        <time>2021-05-20T09:23:31Z</time>
      </trkpt>
      <trkpt lat="42.2066170" lon="-8.7495240">
        <ele>11.3</ele>
        <time>2021-05-20T09:23:33Z</time>
      </trkpt>
      <trkpt lat="42.2066300" lon="-8.7494950">
        <ele>11.3</ele>
        <time>2021-05-20T09:23:34Z</time>
      </trkpt>
      <trkpt lat="42.2066350" lon="-8.7494780">
        <ele>11.3</ele>
        <time>2021-05-20T09:23:35Z</time>
      </trkpt>
      <trkpt lat="42.2066440" lon="-8.7494720">
        <ele>11.3</ele>
        <time>2021-05-20T09:23:36Z</time>
      </trkpt>
      <trkpt lat="42.2066510" lon="-8.7494510">
        <ele>11.3</ele>
        <time>2021-05-20T09:23:37Z</time>
      </trkpt>
      <trkpt lat="42.2066570" lon="-8.7494460">
        <ele>11.3</ele>
        <time>2021-05-20T09:23:38Z</time>
      </trkpt>
      <trkpt lat="42.2066660" lon="-8.7494340">
        <ele>11.3</ele>
        <time>2021-05-20T09:23:39Z</time>
      </trkpt>
      <trkpt lat="42.2066760" lon="-8.7494190">
        <ele>11.3</ele>
        <time>2021-05-20T09:23:40Z</time>
      </trkpt>
      <trkpt lat="42.2066820" lon="-8.7494070">
        <ele>11.3</ele>
        <time>2021-05-20T09:23:41Z</time>
      </trkpt>
      <trkpt lat="42.2066850" lon="-8.7493940">
        <ele>11.3</ele>
        <time>2021-05-20T09:23:42Z</time>
      </trkpt>
      <trkpt lat="42.2066890" lon="-8.7493860">
        <ele>11.3</ele>
        <time>2021-05-20T09:23:43Z</time>
      </trkpt>
      <trkpt lat="42.2067000" lon="-8.7493620">
        <ele>11.3</ele>
        <time>2021-05-20T09:23:44Z</time>
      </trkpt>
      <trkpt lat="42.2067080" lon="-8.7493490">
        <ele>11.3</ele>
        <time>2021-05-20T09:23:45Z</time>
      </trkpt>
      <trkpt lat="42.2067150" lon="-8.7493350">
        <ele>11.3</ele>
        <time>2021-05-20T09:23:46Z</time>
      </trkpt>
      <trkpt lat="42.2067290" lon="-8.7493130">
        <ele>11.3</ele>
        <time>2021-05-20T09:23:47Z</time>
      </trkpt>
      <trkpt lat="42.2067340" lon="-8.7493050">
        <ele>11.3</ele>
        <time>2021-05-20T09:23:48Z</time>
      </trkpt>
      <trkpt lat="42.2067400" lon="-8.7492970">
        <ele>11.3</ele>
        <time>2021-05-20T09:23:49Z</time>
      </trkpt>
      <trkpt lat="42.2067480" lon="-8.7492810">
        <ele>11.3</ele>
        <time>2021-05-20T09:23:50Z</time>
      </trkpt>
      <trkpt lat="42.2067640" lon="-8.7492720">
        <ele>11.3</ele>
        <time>2021-05-20T09:23:51Z</time>
      </trkpt>
      <trkpt lat="42.2067660" lon="-8.7492580">
        <ele>11.3</ele>
        <time>2021-05-20T09:23:52Z</time>
      </trkpt>
      <trkpt lat="42.2067770" lon="-8.7492520">
        <ele>11.3</ele>
        <time>2021-05-20T09:23:53Z</time>
      </trkpt>
      <trkpt lat="42.2067840" lon="-8.7492490">
        <ele>11.3</ele>
        <time>2021-05-20T09:23:54Z</time>
      </trkpt>
      <trkpt lat="42.2067900" lon="-8.7492400">
        <ele>11.3</ele>
        <time>2021-05-20T09:23:55Z</time>
      </trkpt>
      <trkpt lat="42.2067930" lon="-8.7492250">
        <ele>11.3</ele>
        <time>2021-05-20T09:23:56Z</time>
      </trkpt>
      <trkpt lat="42.2067970" lon="-8.7492130">
        <ele>11.3</ele>
        <time>2021-05-20T09:23:57Z</time>
      </trkpt>
      <trkpt lat="42.2068000" lon="-8.7492050">
        <ele>11.3</ele>
        <time>2021-05-20T09:23:58Z</time>
      </trkpt>
      <trkpt lat="42.2068110" lon="-8.7492000">
        <ele>11.3</ele>
        <time>2021-05-20T09:23:59Z</time>
      </trkpt>
      <trkpt lat="42.2068180" lon="-8.7491940">
        <ele>11.3</ele>
        <time>2021-05-20T09:24:00Z</time>
      </trkpt>
      <trkpt lat="42.2068280" lon="-8.7491880">
        <ele>11.3</ele>
        <time>2021-05-20T09:24:01Z</time>
      </trkpt>
      <trkpt lat="42.2068360" lon="-8.7491800">
        <ele>11.3</ele>
        <time>2021-05-20T09:24:02Z</time>
      </trkpt>
      <trkpt lat="42.2068460" lon="-8.7491690">
        <ele>11.3</ele>
        <time>2021-05-20T09:24:03Z</time>
      </trkpt>
      <trkpt lat="42.2068580" lon="-8.7491600">
        <ele>11.3</ele>
        <time>2021-05-20T09:24:04Z</time>
      </trkpt>
      <trkpt lat="42.2068690" lon="-8.7491530">
        <ele>11.3</ele>
        <time>2021-05-20T09:24:05Z</time>
      </trkpt>
      <trkpt lat="42.2068780" lon="-8.7491410">
        <ele>11.3</ele>
        <time>2021-05-20T09:24:06Z</time>
      </trkpt>
      <trkpt lat="42.2068870" lon="-8.7491350">
        <ele>11.3</ele>
        <time>2021-05-20T09:24:08Z</time>
      </trkpt>
      <trkpt lat="42.2068930" lon="-8.7491330">
        <ele>11.3</ele>
        <time>2021-05-20T09:24:09Z</time>
      </trkpt>
      <trkpt lat="42.2069020" lon="-8.7491310">
        <ele>11.3</ele>
        <time>2021-05-20T09:24:10Z</time>
      </trkpt>
      <trkpt lat="42.2069100" lon="-8.7491310">
        <ele>11.3</ele>
        <time>2021-05-20T09:24:11Z</time>
      </trkpt>
      <trkpt lat="42.2069170" lon="-8.7491340">
        <ele>11.3</ele>
        <time>2021-05-20T09:24:12Z</time>
      </trkpt>
      <trkpt lat="42.2069240" lon="-8.7491340">
        <ele>11.3</ele>
        <time>2021-05-20T09:24:13Z</time>
      </trkpt>
      <trkpt lat="42.2069310" lon="-8.7491350">
        <ele>11.3</ele>
        <time>2021-05-20T09:24:14Z</time>
      </trkpt>
      <trkpt lat="42.2069360" lon="-8.7491370">
        <ele>11.3</ele>
        <time>2021-05-20T09:24:15Z</time>
      </trkpt>
      <trkpt lat="42.2069410" lon="-8.7491410">
        <ele>11.3</ele>
        <time>2021-05-20T09:24:16Z</time>
      </trkpt>
      <trkpt lat="42.2069430" lon="-8.7491420">
        <ele>11.3</ele>
        <time>2021-05-20T09:24:17Z</time>
      </trkpt>
      <trkpt lat="42.2069460" lon="-8.7491450">
        <ele>11.3</ele>
        <time>2021-05-20T09:24:18Z</time>
      </trkpt>
      <trkpt lat="42.2069470" lon="-8.7491460">
        <ele>11.3</ele>
        <time>2021-05-20T09:24:19Z</time>
      </trkpt>
      <trkpt lat="42.2069610" lon="-8.7491440">
        <ele>11.3</ele>
        <time>2021-05-20T09:24:20Z</time>
      </trkpt>
      <trkpt lat="42.2069640" lon="-8.7491540">
        <ele>11.3</ele>
        <time>2021-05-20T09:24:21Z</time>
      </trkpt>
      <trkpt lat="42.2069560" lon="-8.7491480">
        <ele>11.3</ele>
        <time>2021-05-20T09:24:22Z</time>
      </trkpt>
      <trkpt lat="42.2069550" lon="-8.7491440">
        <ele>11.3</ele>
        <time>2021-05-20T09:24:23Z</time>
      </trkpt>
      <trkpt lat="42.2069540" lon="-8.7491420">
        <ele>11.3</ele>
        <time>2021-05-20T09:24:24Z</time>
      </trkpt>
      <trkpt lat="42.2069540" lon="-8.7491380">
        <ele>11.3</ele>
        <time>2021-05-20T09:24:25Z</time>
      </trkpt>
      <trkpt lat="42.2069540" lon="-8.7491380">
        <ele>11.3</ele>
        <time>2021-05-20T09:24:26Z</time>
      </trkpt>
      <trkpt lat="42.2069530" lon="-8.7491430">
        <ele>11.3</ele>
        <time>2021-05-20T09:24:27Z</time>
      </trkpt>
      <trkpt lat="42.2069500" lon="-8.7491440">
        <ele>11.3</ele>
        <time>2021-05-20T09:24:28Z</time>
      </trkpt>
      <trkpt lat="42.2069460" lon="-8.7491460">
        <ele>11.3</ele>
        <time>2021-05-20T09:24:29Z</time>
      </trkpt>
      <trkpt lat="42.2069430" lon="-8.7491450">
        <ele>11.3</ele>
        <time>2021-05-20T09:24:30Z</time>
      </trkpt>
      <trkpt lat="42.2069410" lon="-8.7491430">
        <ele>11.3</ele>
        <time>2021-05-20T09:24:31Z</time>
      </trkpt>
      <trkpt lat="42.2069370" lon="-8.7491390">
        <ele>11.3</ele>
        <time>2021-05-20T09:24:32Z</time>
      </trkpt>
      <trkpt lat="42.2069380" lon="-8.7491360">
        <ele>11.3</ele>
        <time>2021-05-20T09:24:33Z</time>
      </trkpt>
      <trkpt lat="42.2069370" lon="-8.7491290">
        <ele>11.3</ele>
        <time>2021-05-20T09:24:34Z</time>
      </trkpt>
      <trkpt lat="42.2069380" lon="-8.7491250">
        <ele>11.3</ele>
        <time>2021-05-20T09:24:35Z</time>
      </trkpt>
      <trkpt lat="42.2069400" lon="-8.7491230">
        <ele>11.3</ele>
        <time>2021-05-20T09:24:36Z</time>
      </trkpt>
      <trkpt lat="42.2069390" lon="-8.7491260">
        <ele>11.3</ele>
        <time>2021-05-20T09:24:37Z</time>
      </trkpt>
      <trkpt lat="42.2069390" lon="-8.7491280">
        <ele>11.3</ele>
        <time>2021-05-20T09:24:38Z</time>
      </trkpt>
      <trkpt lat="42.2069390" lon="-8.7491360">
        <ele>11.3</ele>
        <time>2021-05-20T09:24:39Z</time>
      </trkpt>
      <trkpt lat="42.2069430" lon="-8.7491390">
        <ele>11.3</ele>
        <time>2021-05-20T09:24:40Z</time>
      </trkpt>
      <trkpt lat="42.2069440" lon="-8.7491420">
        <ele>11.3</ele>
        <time>2021-05-20T09:24:41Z</time>
      </trkpt>
      <trkpt lat="42.2069450" lon="-8.7491430">
        <ele>11.3</ele>
        <time>2021-05-20T09:24:42Z</time>
      </trkpt>
      <trkpt lat="42.2069430" lon="-8.7491450">
        <ele>11.3</ele>
        <time>2021-05-20T09:24:43Z</time>
      </trkpt>
      <trkpt lat="42.2069450" lon="-8.7491470">
        <ele>11.3</ele>
        <time>2021-05-20T09:24:44Z</time>
      </trkpt>
      <trkpt lat="42.2069440" lon="-8.7491540">
        <ele>11.3</ele>
        <time>2021-05-20T09:24:45Z</time>
      </trkpt>
      <trkpt lat="42.2069420" lon="-8.7491570">
        <ele>11.3</ele>
        <time>2021-05-20T09:24:46Z</time>
      </trkpt>
      <trkpt lat="42.2069420" lon="-8.7491590">
        <ele>11.3</ele>
        <time>2021-05-20T09:24:47Z</time>
      </trkpt>
      <trkpt lat="42.2069390" lon="-8.7491640">
        <ele>11.3</ele>
        <time>2021-05-20T09:24:48Z</time>
      </trkpt>
      <trkpt lat="42.2069360" lon="-8.7491650">
        <ele>11.3</ele>
        <time>2021-05-20T09:24:49Z</time>
      </trkpt>
      <trkpt lat="42.2069370" lon="-8.7491730">
        <ele>11.3</ele>
        <time>2021-05-20T09:24:50Z</time>
      </trkpt>
      <trkpt lat="42.2069370" lon="-8.7491730">
        <ele>11.3</ele>
        <time>2021-05-20T09:24:51Z</time>
      </trkpt>
      <trkpt lat="42.2069390" lon="-8.7491730">
        <ele>11.3</ele>
        <time>2021-05-20T09:24:52Z</time>
      </trkpt>
      <trkpt lat="42.2069410" lon="-8.7491720">
        <ele>11.3</ele>
        <time>2021-05-20T09:24:53Z</time>
      </trkpt>
      <trkpt lat="42.2069420" lon="-8.7491730">
        <ele>11.3</ele>
        <time>2021-05-20T09:24:54Z</time>
      </trkpt>
      <trkpt lat="42.2069410" lon="-8.7491780">
        <ele>11.3</ele>
        <time>2021-05-20T09:24:55Z</time>
      </trkpt>
      <trkpt lat="42.2069380" lon="-8.7491860">
        <ele>11.3</ele>
        <time>2021-05-20T09:24:56Z</time>
      </trkpt>
      <trkpt lat="42.2069420" lon="-8.7491870">
        <ele>11.3</ele>
        <time>2021-05-20T09:24:57Z</time>
      </trkpt>
      <trkpt lat="42.2069360" lon="-8.7491990">
        <ele>11.3</ele>
        <time>2021-05-20T09:24:58Z</time>
      </trkpt>
      <trkpt lat="42.2069350" lon="-8.7492040">
        <ele>11.3</ele>
        <time>2021-05-20T09:24:59Z</time>
      </trkpt>
      <trkpt lat="42.2069330" lon="-8.7492020">
        <ele>11.3</ele>
        <time>2021-05-20T09:25:00Z</time>
      </trkpt>
      <trkpt lat="42.2069330" lon="-8.7491930">
        <ele>11.3</ele>
        <time>2021-05-20T09:25:01Z</time>
      </trkpt>
      <trkpt lat="42.2069330" lon="-8.7491920">
        <ele>11.3</ele>
        <time>2021-05-20T09:25:02Z</time>
      </trkpt>
      <trkpt lat="42.2069370" lon="-8.7491930">
        <ele>11.3</ele>
        <time>2021-05-20T09:25:03Z</time>
      </trkpt>
      <trkpt lat="42.2069370" lon="-8.7491880">
        <ele>11.3</ele>
        <time>2021-05-20T09:25:04Z</time>
      </trkpt>
      <trkpt lat="42.2069380" lon="-8.7491840">
        <ele>11.3</ele>
        <time>2021-05-20T09:25:05Z</time>
      </trkpt>
      <trkpt lat="42.2069270" lon="-8.7491720">
        <ele>11.3</ele>
        <time>2021-05-20T09:25:06Z</time>
      </trkpt>
      <trkpt lat="42.2069320" lon="-8.7491840">
        <ele>11.3</ele>
        <time>2021-05-20T09:25:07Z</time>
      </trkpt>
      <trkpt lat="42.2069350" lon="-8.7491860">
        <ele>11.4</ele>
        <time>2021-05-20T09:25:08Z</time>
      </trkpt>
      <trkpt lat="42.2069400" lon="-8.7491870">
        <ele>11.4</ele>
        <time>2021-05-20T09:25:09Z</time>
      </trkpt>
      <trkpt lat="42.2069460" lon="-8.7491900">
        <ele>11.4</ele>
        <time>2021-05-20T09:25:10Z</time>
      </trkpt>
      <trkpt lat="42.2069510" lon="-8.7491890">
        <ele>11.4</ele>
        <time>2021-05-20T09:25:11Z</time>
      </trkpt>
      <trkpt lat="42.2069530" lon="-8.7491850">
        <ele>11.4</ele>
        <time>2021-05-20T09:25:12Z</time>
      </trkpt>
      <trkpt lat="42.2069640" lon="-8.7491880">
        <ele>11.4</ele>
        <time>2021-05-20T09:25:13Z</time>
      </trkpt>
      <trkpt lat="42.2069720" lon="-8.7491910">
        <ele>11.4</ele>
        <time>2021-05-20T09:25:14Z</time>
      </trkpt>
      <trkpt lat="42.2069770" lon="-8.7491920">
        <ele>11.4</ele>
        <time>2021-05-20T09:25:15Z</time>
      </trkpt>
      <trkpt lat="42.2069760" lon="-8.7491900">
        <ele>11.4</ele>
        <time>2021-05-20T09:25:16Z</time>
      </trkpt>
      <trkpt lat="42.2069790" lon="-8.7491910">
        <ele>11.4</ele>
        <time>2021-05-20T09:25:17Z</time>
      </trkpt>
      <trkpt lat="42.2069790" lon="-8.7491880">
        <ele>11.4</ele>
        <time>2021-05-20T09:25:18Z</time>
      </trkpt>
      <trkpt lat="42.2069780" lon="-8.7491870">
        <ele>11.4</ele>
        <time>2021-05-20T09:25:19Z</time>
      </trkpt>
      <trkpt lat="42.2069830" lon="-8.7491860">
        <ele>11.4</ele>
        <time>2021-05-20T09:25:20Z</time>
      </trkpt>
      <trkpt lat="42.2069780" lon="-8.7491890">
        <ele>11.4</ele>
        <time>2021-05-20T09:25:21Z</time>
      </trkpt>
      <trkpt lat="42.2069700" lon="-8.7491850">
        <ele>11.4</ele>
        <time>2021-05-20T09:25:22Z</time>
      </trkpt>
      <trkpt lat="42.2069680" lon="-8.7491830">
        <ele>11.4</ele>
        <time>2021-05-20T09:25:23Z</time>
      </trkpt>
      <trkpt lat="42.2069660" lon="-8.7491840">
        <ele>11.4</ele>
        <time>2021-05-20T09:25:24Z</time>
      </trkpt>
      <trkpt lat="42.2069630" lon="-8.7491860">
        <ele>11.4</ele>
        <time>2021-05-20T09:25:25Z</time>
      </trkpt>
      <trkpt lat="42.2069660" lon="-8.7492050">
        <ele>11.4</ele>
        <time>2021-05-20T09:25:26Z</time>
      </trkpt>
      <trkpt lat="42.2069600" lon="-8.7492170">
        <ele>11.4</ele>
        <time>2021-05-20T09:25:27Z</time>
      </trkpt>
      <trkpt lat="42.2069570" lon="-8.7492190">
        <ele>11.4</ele>
        <time>2021-05-20T09:25:28Z</time>
      </trkpt>
      <trkpt lat="42.2069560" lon="-8.7492190">
        <ele>11.4</ele>
        <time>2021-05-20T09:25:29Z</time>
      </trkpt>
      <trkpt lat="42.2069560" lon="-8.7492140">
        <ele>11.4</ele>
        <time>2021-05-20T09:25:30Z</time>
      </trkpt>
      <trkpt lat="42.2069510" lon="-8.7492020">
        <ele>11.4</ele>
        <time>2021-05-20T09:25:31Z</time>
      </trkpt>
      <trkpt lat="42.2069510" lon="-8.7491970">
        <ele>11.4</ele>
        <time>2021-05-20T09:25:32Z</time>
      </trkpt>
      <trkpt lat="42.2069540" lon="-8.7491940">
        <ele>11.4</ele>
        <time>2021-05-20T09:25:33Z</time>
      </trkpt>
      <trkpt lat="42.2069560" lon="-8.7491880">
        <ele>11.4</ele>
        <time>2021-05-20T09:25:34Z</time>
      </trkpt>
      <trkpt lat="42.2069480" lon="-8.7491830">
        <ele>11.4</ele>
        <time>2021-05-20T09:25:35Z</time>
      </trkpt>
      <trkpt lat="42.2069380" lon="-8.7491760">
        <ele>11.4</ele>
        <time>2021-05-20T09:25:36Z</time>
      </trkpt>
      <trkpt lat="42.2069320" lon="-8.7491680">
        <ele>11.4</ele>
        <time>2021-05-20T09:25:37Z</time>
      </trkpt>
      <trkpt lat="42.2069260" lon="-8.7491550">
        <ele>11.4</ele>
        <time>2021-05-20T09:25:38Z</time>
      </trkpt>
      <trkpt lat="42.2069200" lon="-8.7491360">
        <ele>11.4</ele>
        <time>2021-05-20T09:25:39Z</time>
      </trkpt>
      <trkpt lat="42.2069350" lon="-8.7491320">
        <ele>11.4</ele>
        <time>2021-05-20T09:25:40Z</time>
      </trkpt>
      <trkpt lat="42.2069390" lon="-8.7491410">
        <ele>11.4</ele>
        <time>2021-05-20T09:25:41Z</time>
      </trkpt>
      <trkpt lat="42.2069410" lon="-8.7491450">
        <ele>11.4</ele>
        <time>2021-05-20T09:25:42Z</time>
      </trkpt>
      <trkpt lat="42.2069410" lon="-8.7491490">
        <ele>11.4</ele>
        <time>2021-05-20T09:25:43Z</time>
      </trkpt>
      <trkpt lat="42.2069410" lon="-8.7491420">
        <ele>11.4</ele>
        <time>2021-05-20T09:25:44Z</time>
      </trkpt>
      <trkpt lat="42.2069400" lon="-8.7491500">
        <ele>11.4</ele>
        <time>2021-05-20T09:25:45Z</time>
      </trkpt>
      <trkpt lat="42.2069370" lon="-8.7491550">
        <ele>11.4</ele>
        <time>2021-05-20T09:25:46Z</time>
      </trkpt>
      <trkpt lat="42.2069370" lon="-8.7491530">
        <ele>11.4</ele>
        <time>2021-05-20T09:25:47Z</time>
      </trkpt>
      <trkpt lat="42.2069290" lon="-8.7491440">
        <ele>11.4</ele>
        <time>2021-05-20T09:25:48Z</time>
      </trkpt>
      <trkpt lat="42.2069270" lon="-8.7491450">
        <ele>11.4</ele>
        <time>2021-05-20T09:25:49Z</time>
      </trkpt>
      <trkpt lat="42.2069240" lon="-8.7491480">
        <ele>11.4</ele>
        <time>2021-05-20T09:25:50Z</time>
      </trkpt>
      <trkpt lat="42.2069230" lon="-8.7491480">
        <ele>11.4</ele>
        <time>2021-05-20T09:25:51Z</time>
      </trkpt>
      <trkpt lat="42.2069240" lon="-8.7491560">
        <ele>11.4</ele>
        <time>2021-05-20T09:25:52Z</time>
      </trkpt>
      <trkpt lat="42.2069290" lon="-8.7491610">
        <ele>11.4</ele>
        <time>2021-05-20T09:25:53Z</time>
      </trkpt>
      <trkpt lat="42.2069370" lon="-8.7491670">
        <ele>11.4</ele>
        <time>2021-05-20T09:25:54Z</time>
      </trkpt>
      <trkpt lat="42.2069390" lon="-8.7491680">
        <ele>11.4</ele>
        <time>2021-05-20T09:25:55Z</time>
      </trkpt>
      <trkpt lat="42.2069400" lon="-8.7491690">
        <ele>11.4</ele>
        <time>2021-05-20T09:25:56Z</time>
      </trkpt>
      <trkpt lat="42.2069430" lon="-8.7491650">
        <ele>11.4</ele>
        <time>2021-05-20T09:25:57Z</time>
      </trkpt>
      <trkpt lat="42.2069510" lon="-8.7491650">
        <ele>11.4</ele>
        <time>2021-05-20T09:25:58Z</time>
      </trkpt>
      <trkpt lat="42.2069520" lon="-8.7491640">
        <ele>11.4</ele>
        <time>2021-05-20T09:25:59Z</time>
      </trkpt>
      <trkpt lat="42.2069520" lon="-8.7491520">
        <ele>11.4</ele>
        <time>2021-05-20T09:26:00Z</time>
      </trkpt>
      <trkpt lat="42.2069510" lon="-8.7491380">
        <ele>11.4</ele>
        <time>2021-05-20T09:26:01Z</time>
      </trkpt>
      <trkpt lat="42.2069500" lon="-8.7491310">
        <ele>11.4</ele>
        <time>2021-05-20T09:26:02Z</time>
      </trkpt>
      <trkpt lat="42.2069490" lon="-8.7491260">
        <ele>11.4</ele>
        <time>2021-05-20T09:26:03Z</time>
      </trkpt>
      <trkpt lat="42.2069500" lon="-8.7491210">
        <ele>11.4</ele>
        <time>2021-05-20T09:26:05Z</time>
      </trkpt>
      <trkpt lat="42.2069460" lon="-8.7491180">
        <ele>11.4</ele>
        <time>2021-05-20T09:26:06Z</time>
      </trkpt>
      <trkpt lat="42.2069480" lon="-8.7491170">
        <ele>11.4</ele>
        <time>2021-05-20T09:26:07Z</time>
      </trkpt>
      <trkpt lat="42.2069460" lon="-8.7491150">
        <ele>11.4</ele>
        <time>2021-05-20T09:26:08Z</time>
      </trkpt>
      <trkpt lat="42.2069430" lon="-8.7491110">
        <ele>11.4</ele>
        <time>2021-05-20T09:26:09Z</time>
      </trkpt>
      <trkpt lat="42.2069420" lon="-8.7491080">
        <ele>11.4</ele>
        <time>2021-05-20T09:26:10Z</time>
      </trkpt>
      <trkpt lat="42.2069410" lon="-8.7491060">
        <ele>11.4</ele>
        <time>2021-05-20T09:26:11Z</time>
      </trkpt>
      <trkpt lat="42.2069380" lon="-8.7491060">
        <ele>11.4</ele>
        <time>2021-05-20T09:26:12Z</time>
      </trkpt>
      <trkpt lat="42.2069370" lon="-8.7491000">
        <ele>11.4</ele>
        <time>2021-05-20T09:26:13Z</time>
      </trkpt>
      <trkpt lat="42.2069340" lon="-8.7490980">
        <ele>11.4</ele>
        <time>2021-05-20T09:26:14Z</time>
      </trkpt>
      <trkpt lat="42.2069330" lon="-8.7490990">
        <ele>11.4</ele>
        <time>2021-05-20T09:26:15Z</time>
      </trkpt>
      <trkpt lat="42.2069330" lon="-8.7490990">
        <ele>11.4</ele>
        <time>2021-05-20T09:26:16Z</time>
      </trkpt>
      <trkpt lat="42.2069290" lon="-8.7490980">
        <ele>11.4</ele>
        <time>2021-05-20T09:26:17Z</time>
      </trkpt>
      <trkpt lat="42.2069270" lon="-8.7490980">
        <ele>11.4</ele>
        <time>2021-05-20T09:26:18Z</time>
      </trkpt>
      <trkpt lat="42.2069270" lon="-8.7490980">
        <ele>11.4</ele>
        <time>2021-05-20T09:26:19Z</time>
      </trkpt>
      <trkpt lat="42.2069260" lon="-8.7490980">
        <ele>11.4</ele>
        <time>2021-05-20T09:26:20Z</time>
      </trkpt>
      <trkpt lat="42.2069260" lon="-8.7490980">
        <ele>11.4</ele>
        <time>2021-05-20T09:26:21Z</time>
      </trkpt>
      <trkpt lat="42.2069190" lon="-8.7490930">
        <ele>11.4</ele>
        <time>2021-05-20T09:26:22Z</time>
      </trkpt>
      <trkpt lat="42.2069150" lon="-8.7490890">
        <ele>11.4</ele>
        <time>2021-05-20T09:26:23Z</time>
      </trkpt>
      <trkpt lat="42.2069140" lon="-8.7490890">
        <ele>11.4</ele>
        <time>2021-05-20T09:26:24Z</time>
      </trkpt>
      <trkpt lat="42.2069140" lon="-8.7490890">
        <ele>11.4</ele>
        <time>2021-05-20T09:26:25Z</time>
      </trkpt>
      <trkpt lat="42.2069100" lon="-8.7490900">
        <ele>11.4</ele>
        <time>2021-05-20T09:26:26Z</time>
      </trkpt>
      <trkpt lat="42.2069060" lon="-8.7490900">
        <ele>11.4</ele>
        <time>2021-05-20T09:26:27Z</time>
      </trkpt>
      <trkpt lat="42.2069030" lon="-8.7490870">
        <ele>11.4</ele>
        <time>2021-05-20T09:26:28Z</time>
      </trkpt>
      <trkpt lat="42.2069030" lon="-8.7490870">
        <ele>11.4</ele>
        <time>2021-05-20T09:26:29Z</time>
      </trkpt>
      <trkpt lat="42.2069010" lon="-8.7490880">
        <ele>11.4</ele>
        <time>2021-05-20T09:26:30Z</time>
      </trkpt>
      <trkpt lat="42.2068990" lon="-8.7490870">
        <ele>11.4</ele>
        <time>2021-05-20T09:26:31Z</time>
      </trkpt>
      <trkpt lat="42.2069000" lon="-8.7490850">
        <ele>11.4</ele>
        <time>2021-05-20T09:26:32Z</time>
      </trkpt>
      <trkpt lat="42.2069000" lon="-8.7490860">
        <ele>11.4</ele>
        <time>2021-05-20T09:26:33Z</time>
      </trkpt>
      <trkpt lat="42.2069000" lon="-8.7490860">
        <ele>11.4</ele>
        <time>2021-05-20T09:26:34Z</time>
      </trkpt>
      <trkpt lat="42.2069000" lon="-8.7490840">
        <ele>11.4</ele>
        <time>2021-05-20T09:26:35Z</time>
      </trkpt>
      <trkpt lat="42.2069030" lon="-8.7490790">
        <ele>11.4</ele>
        <time>2021-05-20T09:26:36Z</time>
      </trkpt>
      <trkpt lat="42.2069040" lon="-8.7490740">
        <ele>11.4</ele>
        <time>2021-05-20T09:26:37Z</time>
      </trkpt>
      <trkpt lat="42.2069050" lon="-8.7490680">
        <ele>11.4</ele>
        <time>2021-05-20T09:26:38Z</time>
      </trkpt>
      <trkpt lat="42.2069080" lon="-8.7490620">
        <ele>11.4</ele>
        <time>2021-05-20T09:26:39Z</time>
      </trkpt>
      <trkpt lat="42.2069100" lon="-8.7490600">
        <ele>11.4</ele>
        <time>2021-05-20T09:26:40Z</time>
      </trkpt>
      <trkpt lat="42.2069130" lon="-8.7490560">
        <ele>11.4</ele>
        <time>2021-05-20T09:26:41Z</time>
      </trkpt>
      <trkpt lat="42.2069160" lon="-8.7490520">
        <ele>11.4</ele>
        <time>2021-05-20T09:26:42Z</time>
      </trkpt>
      <trkpt lat="42.2069170" lon="-8.7490450">
        <ele>11.4</ele>
        <time>2021-05-20T09:26:43Z</time>
      </trkpt>
      <trkpt lat="42.2069200" lon="-8.7490410">
        <ele>11.4</ele>
        <time>2021-05-20T09:26:44Z</time>
      </trkpt>
      <trkpt lat="42.2069200" lon="-8.7490330">
        <ele>11.5</ele>
        <time>2021-05-20T09:26:45Z</time>
      </trkpt>
      <trkpt lat="42.2069200" lon="-8.7490260">
        <ele>11.5</ele>
        <time>2021-05-20T09:26:46Z</time>
      </trkpt>
      <trkpt lat="42.2069200" lon="-8.7490210">
        <ele>11.5</ele>
        <time>2021-05-20T09:26:47Z</time>
      </trkpt>
      <trkpt lat="42.2069210" lon="-8.7490170">
        <ele>11.5</ele>
        <time>2021-05-20T09:26:48Z</time>
      </trkpt>
      <trkpt lat="42.2069210" lon="-8.7490140">
        <ele>11.5</ele>
        <time>2021-05-20T09:26:49Z</time>
      </trkpt>
      <trkpt lat="42.2069210" lon="-8.7490120">
        <ele>11.5</ele>
        <time>2021-05-20T09:26:50Z</time>
      </trkpt>
      <trkpt lat="42.2069210" lon="-8.7490120">
        <ele>11.5</ele>
        <time>2021-05-20T09:26:51Z</time>
      </trkpt>
      <trkpt lat="42.2069210" lon="-8.7490120">
        <ele>11.5</ele>
        <time>2021-05-20T09:26:52Z</time>
      </trkpt>
      <trkpt lat="42.2069190" lon="-8.7490070">
        <ele>11.5</ele>
        <time>2021-05-20T09:26:53Z</time>
      </trkpt>
      <trkpt lat="42.2069190" lon="-8.7490060">
        <ele>11.5</ele>
        <time>2021-05-20T09:26:54Z</time>
      </trkpt>
      <trkpt lat="42.2069190" lon="-8.7490070">
        <ele>11.5</ele>
        <time>2021-05-20T09:26:55Z</time>
      </trkpt>
      <trkpt lat="42.2069170" lon="-8.7490050">
        <ele>11.5</ele>
        <time>2021-05-20T09:26:56Z</time>
      </trkpt>
      <trkpt lat="42.2069190" lon="-8.7490040">
        <ele>11.5</ele>
        <time>2021-05-20T09:26:57Z</time>
      </trkpt>
      <trkpt lat="42.2069190" lon="-8.7490040">
        <ele>11.5</ele>
        <time>2021-05-20T09:26:58Z</time>
      </trkpt>
      <trkpt lat="42.2069220" lon="-8.7490010">
        <ele>11.5</ele>
        <time>2021-05-20T09:26:59Z</time>
      </trkpt>
      <trkpt lat="42.2069220" lon="-8.7490010">
        <ele>11.5</ele>
        <time>2021-05-20T09:27:00Z</time>
      </trkpt>
      <trkpt lat="42.2069250" lon="-8.7490030">
        <ele>11.5</ele>
        <time>2021-05-20T09:27:01Z</time>
      </trkpt>
      <trkpt lat="42.2069280" lon="-8.7490110">
        <ele>11.5</ele>
        <time>2021-05-20T09:27:02Z</time>
      </trkpt>
      <trkpt lat="42.2069280" lon="-8.7490120">
        <ele>11.5</ele>
        <time>2021-05-20T09:27:03Z</time>
      </trkpt>
      <trkpt lat="42.2069280" lon="-8.7490120">
        <ele>11.5</ele>
        <time>2021-05-20T09:27:04Z</time>
      </trkpt>
      <trkpt lat="42.2069280" lon="-8.7490140">
        <ele>11.5</ele>
        <time>2021-05-20T09:27:05Z</time>
      </trkpt>
      <trkpt lat="42.2069280" lon="-8.7490140">
        <ele>11.5</ele>
        <time>2021-05-20T09:27:06Z</time>
      </trkpt>
      <trkpt lat="42.2069280" lon="-8.7490140">
        <ele>11.5</ele>
        <time>2021-05-20T09:27:07Z</time>
      </trkpt>
      <trkpt lat="42.2069280" lon="-8.7490210">
        <ele>11.5</ele>
        <time>2021-05-20T09:27:08Z</time>
      </trkpt>
      <trkpt lat="42.2069300" lon="-8.7490230">
        <ele>11.5</ele>
        <time>2021-05-20T09:27:09Z</time>
      </trkpt>
      <trkpt lat="42.2069300" lon="-8.7490230">
        <ele>11.5</ele>
        <time>2021-05-20T09:27:10Z</time>
      </trkpt>
      <trkpt lat="42.2069300" lon="-8.7490230">
        <ele>11.5</ele>
        <time>2021-05-20T09:27:11Z</time>
      </trkpt>
      <trkpt lat="42.2069300" lon="-8.7490230">
        <ele>11.5</ele>
        <time>2021-05-20T09:27:12Z</time>
      </trkpt>
      <trkpt lat="42.2069300" lon="-8.7490230">
        <ele>11.5</ele>
        <time>2021-05-20T09:27:13Z</time>
      </trkpt>
      <trkpt lat="42.2069310" lon="-8.7490460">
        <ele>11.5</ele>
        <time>2021-05-20T09:27:14Z</time>
      </trkpt>
      <trkpt lat="42.2069330" lon="-8.7490480">
        <ele>11.5</ele>
        <time>2021-05-20T09:27:15Z</time>
      </trkpt>
      <trkpt lat="42.2069330" lon="-8.7490480">
        <ele>11.5</ele>
        <time>2021-05-20T09:27:16Z</time>
      </trkpt>
      <trkpt lat="42.2069340" lon="-8.7490520">
        <ele>11.5</ele>
        <time>2021-05-20T09:27:17Z</time>
      </trkpt>
      <trkpt lat="42.2069360" lon="-8.7490550">
        <ele>11.5</ele>
        <time>2021-05-20T09:27:18Z</time>
      </trkpt>
      <trkpt lat="42.2069370" lon="-8.7490560">
        <ele>11.5</ele>
        <time>2021-05-20T09:27:19Z</time>
      </trkpt>
      <trkpt lat="42.2069370" lon="-8.7490570">
        <ele>11.5</ele>
        <time>2021-05-20T09:27:20Z</time>
      </trkpt>
      <trkpt lat="42.2069370" lon="-8.7490570">
        <ele>11.5</ele>
        <time>2021-05-20T09:27:21Z</time>
      </trkpt>
      <trkpt lat="42.2069370" lon="-8.7490570">
        <ele>11.5</ele>
        <time>2021-05-20T09:27:22Z</time>
      </trkpt>
      <trkpt lat="42.2069370" lon="-8.7490570">
        <ele>11.5</ele>
        <time>2021-05-20T09:27:23Z</time>
      </trkpt>
      <trkpt lat="42.2069370" lon="-8.7490570">
        <ele>11.5</ele>
        <time>2021-05-20T09:27:24Z</time>
      </trkpt>
      <trkpt lat="42.2069370" lon="-8.7490570">
        <ele>11.5</ele>
        <time>2021-05-20T09:27:25Z</time>
      </trkpt>
      <trkpt lat="42.2069380" lon="-8.7490630">
        <ele>11.5</ele>
        <time>2021-05-20T09:27:26Z</time>
      </trkpt>
      <trkpt lat="42.2069400" lon="-8.7490580">
        <ele>11.5</ele>
        <time>2021-05-20T09:27:27Z</time>
      </trkpt>
      <trkpt lat="42.2069400" lon="-8.7490580">
        <ele>11.5</ele>
        <time>2021-05-20T09:27:28Z</time>
      </trkpt>
      <trkpt lat="42.2069400" lon="-8.7490580">
        <ele>11.5</ele>
        <time>2021-05-20T09:27:29Z</time>
      </trkpt>
      <trkpt lat="42.2069400" lon="-8.7490580">
        <ele>11.5</ele>
        <time>2021-05-20T09:27:30Z</time>
      </trkpt>
      <trkpt lat="42.2069380" lon="-8.7490550">
        <ele>11.5</ele>
        <time>2021-05-20T09:27:31Z</time>
      </trkpt>
      <trkpt lat="42.2069380" lon="-8.7490550">
        <ele>11.5</ele>
        <time>2021-05-20T09:27:32Z</time>
      </trkpt>
      <trkpt lat="42.2069360" lon="-8.7490530">
        <ele>11.5</ele>
        <time>2021-05-20T09:27:33Z</time>
      </trkpt>
      <trkpt lat="42.2069330" lon="-8.7490500">
        <ele>11.5</ele>
        <time>2021-05-20T09:27:34Z</time>
      </trkpt>
      <trkpt lat="42.2069330" lon="-8.7490500">
        <ele>11.5</ele>
        <time>2021-05-20T09:27:35Z</time>
      </trkpt>
      <trkpt lat="42.2069280" lon="-8.7490520">
        <ele>11.5</ele>
        <time>2021-05-20T09:27:36Z</time>
      </trkpt>
      <trkpt lat="42.2069280" lon="-8.7490520">
        <ele>11.5</ele>
        <time>2021-05-20T09:27:37Z</time>
      </trkpt>
      <trkpt lat="42.2069280" lon="-8.7490520">
        <ele>11.5</ele>
        <time>2021-05-20T09:27:38Z</time>
      </trkpt>
      <trkpt lat="42.2069280" lon="-8.7490520">
        <ele>11.5</ele>
        <time>2021-05-20T09:27:39Z</time>
      </trkpt>
      <trkpt lat="42.2069240" lon="-8.7490450">
        <ele>11.5</ele>
        <time>2021-05-20T09:27:40Z</time>
      </trkpt>
      <trkpt lat="42.2069250" lon="-8.7490440">
        <ele>11.5</ele>
        <time>2021-05-20T09:27:41Z</time>
      </trkpt>
      <trkpt lat="42.2069250" lon="-8.7490440">
        <ele>11.5</ele>
        <time>2021-05-20T09:27:42Z</time>
      </trkpt>
      <trkpt lat="42.2069200" lon="-8.7490410">
        <ele>11.5</ele>
        <time>2021-05-20T09:27:43Z</time>
      </trkpt>
      <trkpt lat="42.2069200" lon="-8.7490410">
        <ele>11.5</ele>
        <time>2021-05-20T09:27:44Z</time>
      </trkpt>
      <trkpt lat="42.2069200" lon="-8.7490410">
        <ele>11.5</ele>
        <time>2021-05-20T09:27:45Z</time>
      </trkpt>
      <trkpt lat="42.2069200" lon="-8.7490410">
        <ele>11.5</ele>
        <time>2021-05-20T09:27:46Z</time>
      </trkpt>
      <trkpt lat="42.2069200" lon="-8.7490410">
        <ele>11.5</ele>
        <time>2021-05-20T09:27:47Z</time>
      </trkpt>
      <trkpt lat="42.2069230" lon="-8.7490480">
        <ele>11.5</ele>
        <time>2021-05-20T09:27:48Z</time>
      </trkpt>
      <trkpt lat="42.2069240" lon="-8.7490490">
        <ele>11.5</ele>
        <time>2021-05-20T09:27:49Z</time>
      </trkpt>
      <trkpt lat="42.2069260" lon="-8.7490520">
        <ele>11.5</ele>
        <time>2021-05-20T09:27:50Z</time>
      </trkpt>
      <trkpt lat="42.2069270" lon="-8.7490510">
        <ele>11.5</ele>
        <time>2021-05-20T09:27:51Z</time>
      </trkpt>
      <trkpt lat="42.2069270" lon="-8.7490510">
        <ele>11.5</ele>
        <time>2021-05-20T09:27:52Z</time>
      </trkpt>
      <trkpt lat="42.2069270" lon="-8.7490510">
        <ele>11.5</ele>
        <time>2021-05-20T09:27:53Z</time>
      </trkpt>
      <trkpt lat="42.2069310" lon="-8.7490530">
        <ele>11.5</ele>
        <time>2021-05-20T09:27:54Z</time>
      </trkpt>
      <trkpt lat="42.2069310" lon="-8.7490530">
        <ele>11.5</ele>
        <time>2021-05-20T09:27:55Z</time>
      </trkpt>
      <trkpt lat="42.2069310" lon="-8.7490530">
        <ele>11.5</ele>
        <time>2021-05-20T09:27:56Z</time>
      </trkpt>
      <trkpt lat="42.2069310" lon="-8.7490530">
        <ele>11.5</ele>
        <time>2021-05-20T09:27:57Z</time>
      </trkpt>
      <trkpt lat="42.2069390" lon="-8.7490510">
        <ele>11.5</ele>
        <time>2021-05-20T09:27:58Z</time>
      </trkpt>
      <trkpt lat="42.2069390" lon="-8.7490530">
        <ele>11.5</ele>
        <time>2021-05-20T09:27:59Z</time>
      </trkpt>
      <trkpt lat="42.2069410" lon="-8.7490550">
        <ele>11.5</ele>
        <time>2021-05-20T09:28:00Z</time>
      </trkpt>
      <trkpt lat="42.2069410" lon="-8.7490550">
        <ele>11.5</ele>
        <time>2021-05-20T09:28:01Z</time>
      </trkpt>
      <trkpt lat="42.2069440" lon="-8.7490530">
        <ele>11.5</ele>
        <time>2021-05-20T09:28:02Z</time>
      </trkpt>
      <trkpt lat="42.2069470" lon="-8.7490550">
        <ele>11.5</ele>
        <time>2021-05-20T09:28:03Z</time>
      </trkpt>
      <trkpt lat="42.2069470" lon="-8.7490550">
        <ele>11.5</ele>
        <time>2021-05-20T09:28:04Z</time>
      </trkpt>
      <trkpt lat="42.2069460" lon="-8.7490520">
        <ele>11.5</ele>
        <time>2021-05-20T09:28:05Z</time>
      </trkpt>
      <trkpt lat="42.2069470" lon="-8.7490540">
        <ele>11.5</ele>
        <time>2021-05-20T09:28:06Z</time>
      </trkpt>
      <trkpt lat="42.2069490" lon="-8.7490540">
        <ele>11.5</ele>
        <time>2021-05-20T09:28:07Z</time>
      </trkpt>
      <trkpt lat="42.2069520" lon="-8.7490550">
        <ele>11.5</ele>
        <time>2021-05-20T09:28:08Z</time>
      </trkpt>
      <trkpt lat="42.2069540" lon="-8.7490570">
        <ele>11.5</ele>
        <time>2021-05-20T09:28:09Z</time>
      </trkpt>
      <trkpt lat="42.2069540" lon="-8.7490570">
        <ele>11.5</ele>
        <time>2021-05-20T09:28:10Z</time>
      </trkpt>
      <trkpt lat="42.2069540" lon="-8.7490590">
        <ele>11.5</ele>
        <time>2021-05-20T09:28:11Z</time>
      </trkpt>
      <trkpt lat="42.2069540" lon="-8.7490590">
        <ele>11.5</ele>
        <time>2021-05-20T09:28:12Z</time>
      </trkpt>
      <trkpt lat="42.2069560" lon="-8.7490590">
        <ele>11.5</ele>
        <time>2021-05-20T09:28:13Z</time>
      </trkpt>
      <trkpt lat="42.2069560" lon="-8.7490590">
        <ele>11.5</ele>
        <time>2021-05-20T09:28:14Z</time>
      </trkpt>
      <trkpt lat="42.2069560" lon="-8.7490590">
        <ele>11.5</ele>
        <time>2021-05-20T09:28:15Z</time>
      </trkpt>
      <trkpt lat="42.2069560" lon="-8.7490590">
        <ele>11.5</ele>
        <time>2021-05-20T09:28:16Z</time>
      </trkpt>
      <trkpt lat="42.2069560" lon="-8.7490590">
        <ele>11.5</ele>
        <time>2021-05-20T09:28:17Z</time>
      </trkpt>
      <trkpt lat="42.2069560" lon="-8.7490590">
        <ele>11.5</ele>
        <time>2021-05-20T09:28:18Z</time>
      </trkpt>
      <trkpt lat="42.2069560" lon="-8.7490590">
        <ele>11.5</ele>
        <time>2021-05-20T09:28:19Z</time>
      </trkpt>
      <trkpt lat="42.2069580" lon="-8.7490490">
        <ele>11.5</ele>
        <time>2021-05-20T09:28:20Z</time>
      </trkpt>
      <trkpt lat="42.2069540" lon="-8.7490420">
        <ele>11.5</ele>
        <time>2021-05-20T09:28:21Z</time>
      </trkpt>
      <trkpt lat="42.2069500" lon="-8.7490380">
        <ele>11.5</ele>
        <time>2021-05-20T09:28:22Z</time>
      </trkpt>
      <trkpt lat="42.2069500" lon="-8.7490380">
        <ele>11.5</ele>
        <time>2021-05-20T09:28:23Z</time>
      </trkpt>
      <trkpt lat="42.2069500" lon="-8.7490380">
        <ele>11.5</ele>
        <time>2021-05-20T09:28:24Z</time>
      </trkpt>
      <trkpt lat="42.2069500" lon="-8.7490380">
        <ele>11.5</ele>
        <time>2021-05-20T09:28:25Z</time>
      </trkpt>
      <trkpt lat="42.2069410" lon="-8.7490190">
        <ele>11.5</ele>
        <time>2021-05-20T09:28:26Z</time>
      </trkpt>
      <trkpt lat="42.2069350" lon="-8.7490140">
        <ele>11.5</ele>
        <time>2021-05-20T09:28:27Z</time>
      </trkpt>
      <trkpt lat="42.2069350" lon="-8.7490140">
        <ele>11.5</ele>
        <time>2021-05-20T09:28:28Z</time>
      </trkpt>
      <trkpt lat="42.2069320" lon="-8.7490150">
        <ele>11.5</ele>
        <time>2021-05-20T09:28:29Z</time>
      </trkpt>
      <trkpt lat="42.2069280" lon="-8.7490200">
        <ele>11.5</ele>
        <time>2021-05-20T09:28:30Z</time>
      </trkpt>
      <trkpt lat="42.2069260" lon="-8.7490210">
        <ele>11.5</ele>
        <time>2021-05-20T09:28:31Z</time>
      </trkpt>
      <trkpt lat="42.2069270" lon="-8.7490240">
        <ele>11.5</ele>
        <time>2021-05-20T09:28:32Z</time>
      </trkpt>
      <trkpt lat="42.2069280" lon="-8.7490290">
        <ele>11.5</ele>
        <time>2021-05-20T09:28:33Z</time>
      </trkpt>
      <trkpt lat="42.2069290" lon="-8.7490310">
        <ele>11.5</ele>
        <time>2021-05-20T09:28:34Z</time>
      </trkpt>
      <trkpt lat="42.2069290" lon="-8.7490320">
        <ele>11.5</ele>
        <time>2021-05-20T09:28:35Z</time>
      </trkpt>
      <trkpt lat="42.2069290" lon="-8.7490320">
        <ele>11.5</ele>
        <time>2021-05-20T09:28:36Z</time>
      </trkpt>
      <trkpt lat="42.2069280" lon="-8.7490380">
        <ele>11.5</ele>
        <time>2021-05-20T09:28:37Z</time>
      </trkpt>
      <trkpt lat="42.2069260" lon="-8.7490400">
        <ele>11.5</ele>
        <time>2021-05-20T09:28:38Z</time>
      </trkpt>
      <trkpt lat="42.2069260" lon="-8.7490400">
        <ele>11.5</ele>
        <time>2021-05-20T09:28:39Z</time>
      </trkpt>
      <trkpt lat="42.2069260" lon="-8.7490400">
        <ele>11.5</ele>
        <time>2021-05-20T09:28:40Z</time>
      </trkpt>
      <trkpt lat="42.2069240" lon="-8.7490380">
        <ele>11.5</ele>
        <time>2021-05-20T09:28:41Z</time>
      </trkpt>
      <trkpt lat="42.2069250" lon="-8.7490360">
        <ele>11.5</ele>
        <time>2021-05-20T09:28:42Z</time>
      </trkpt>
      <trkpt lat="42.2069190" lon="-8.7490450">
        <ele>11.5</ele>
        <time>2021-05-20T09:28:43Z</time>
      </trkpt>
      <trkpt lat="42.2069220" lon="-8.7490550">
        <ele>11.5</ele>
        <time>2021-05-20T09:28:44Z</time>
      </trkpt>
      <trkpt lat="42.2069260" lon="-8.7490560">
        <ele>11.5</ele>
        <time>2021-05-20T09:28:45Z</time>
      </trkpt>
      <trkpt lat="42.2069260" lon="-8.7490560">
        <ele>11.5</ele>
        <time>2021-05-20T09:28:46Z</time>
      </trkpt>
      <trkpt lat="42.2069260" lon="-8.7490560">
        <ele>11.5</ele>
        <time>2021-05-20T09:28:47Z</time>
      </trkpt>
      <trkpt lat="42.2069260" lon="-8.7490560">
        <ele>11.5</ele>
        <time>2021-05-20T09:28:48Z</time>
      </trkpt>
      <trkpt lat="42.2069260" lon="-8.7490560">
        <ele>11.5</ele>
        <time>2021-05-20T09:28:49Z</time>
      </trkpt>
      <trkpt lat="42.2069260" lon="-8.7490560">
        <ele>11.5</ele>
        <time>2021-05-20T09:28:50Z</time>
      </trkpt>
      <trkpt lat="42.2069260" lon="-8.7490560">
        <ele>11.5</ele>
        <time>2021-05-20T09:28:51Z</time>
      </trkpt>
      <trkpt lat="42.2069260" lon="-8.7490560">
        <ele>11.5</ele>
        <time>2021-05-20T09:28:52Z</time>
      </trkpt>
      <trkpt lat="42.2069260" lon="-8.7490560">
        <ele>11.5</ele>
        <time>2021-05-20T09:28:53Z</time>
      </trkpt>
      <trkpt lat="42.2069260" lon="-8.7490560">
        <ele>11.5</ele>
        <time>2021-05-20T09:28:54Z</time>
      </trkpt>
      <trkpt lat="42.2069260" lon="-8.7490560">
        <ele>11.5</ele>
        <time>2021-05-20T09:28:55Z</time>
      </trkpt>
      <trkpt lat="42.2069260" lon="-8.7490560">
        <ele>11.5</ele>
        <time>2021-05-20T09:28:56Z</time>
      </trkpt>
      <trkpt lat="42.2069260" lon="-8.7490560">
        <ele>11.5</ele>
        <time>2021-05-20T09:28:57Z</time>
      </trkpt>
      <trkpt lat="42.2069260" lon="-8.7490560">
        <ele>11.5</ele>
        <time>2021-05-20T09:28:58Z</time>
      </trkpt>
      <trkpt lat="42.2069260" lon="-8.7490560">
        <ele>11.5</ele>
        <time>2021-05-20T09:29:00Z</time>
      </trkpt>
      <trkpt lat="42.2069260" lon="-8.7490560">
        <ele>11.5</ele>
        <time>2021-05-20T09:29:01Z</time>
      </trkpt>
      <trkpt lat="42.2069260" lon="-8.7490560">
        <ele>11.5</ele>
        <time>2021-05-20T09:29:03Z</time>
      </trkpt>
      <trkpt lat="42.2069260" lon="-8.7490560">
        <ele>11.5</ele>
        <time>2021-05-20T09:29:04Z</time>
      </trkpt>
      <trkpt lat="42.2069260" lon="-8.7490560">
        <ele>11.5</ele>
        <time>2021-05-20T09:29:05Z</time>
      </trkpt>
      <trkpt lat="42.2069260" lon="-8.7490560">
        <ele>11.5</ele>
        <time>2021-05-20T09:29:06Z</time>
      </trkpt>
      <trkpt lat="42.2069260" lon="-8.7490560">
        <ele>11.5</ele>
        <time>2021-05-20T09:29:07Z</time>
      </trkpt>
      <trkpt lat="42.2069260" lon="-8.7490560">
        <ele>11.5</ele>
        <time>2021-05-20T09:29:08Z</time>
      </trkpt>
      <trkpt lat="42.2069260" lon="-8.7490560">
        <ele>11.5</ele>
        <time>2021-05-20T09:29:09Z</time>
      </trkpt>
      <trkpt lat="42.2069260" lon="-8.7490560">
        <ele>11.5</ele>
        <time>2021-05-20T09:29:10Z</time>
      </trkpt>
      <trkpt lat="42.2069260" lon="-8.7490560">
        <ele>11.5</ele>
        <time>2021-05-20T09:29:11Z</time>
      </trkpt>
      <trkpt lat="42.2069260" lon="-8.7490560">
        <ele>11.5</ele>
        <time>2021-05-20T09:29:12Z</time>
      </trkpt>
      <trkpt lat="42.2069260" lon="-8.7490560">
        <ele>11.5</ele>
        <time>2021-05-20T09:29:13Z</time>
      </trkpt>
      <trkpt lat="42.2069260" lon="-8.7490560">
        <ele>11.5</ele>
        <time>2021-05-20T09:29:14Z</time>
      </trkpt>
      <trkpt lat="42.2069260" lon="-8.7490560">
        <ele>11.5</ele>
        <time>2021-05-20T09:29:15Z</time>
      </trkpt>
      <trkpt lat="42.2069260" lon="-8.7490560">
        <ele>11.5</ele>
        <time>2021-05-20T09:29:16Z</time>
      </trkpt>
      <trkpt lat="42.2069260" lon="-8.7490560">
        <ele>11.5</ele>
        <time>2021-05-20T09:29:17Z</time>
      </trkpt>
      <trkpt lat="42.2069260" lon="-8.7490560">
        <ele>11.5</ele>
        <time>2021-05-20T09:29:18Z</time>
      </trkpt>
      <trkpt lat="42.2069260" lon="-8.7490560">
        <ele>11.5</ele>
        <time>2021-05-20T09:29:19Z</time>
      </trkpt>
      <trkpt lat="42.2069260" lon="-8.7490560">
        <ele>11.5</ele>
        <time>2021-05-20T09:29:20Z</time>
      </trkpt>
      <trkpt lat="42.2069260" lon="-8.7490560">
        <ele>11.5</ele>
        <time>2021-05-20T09:29:21Z</time>
      </trkpt>
      <trkpt lat="42.2069260" lon="-8.7490560">
        <ele>11.5</ele>
        <time>2021-05-20T09:29:22Z</time>
      </trkpt>
      <trkpt lat="42.2069260" lon="-8.7490560">
        <ele>11.5</ele>
        <time>2021-05-20T09:29:23Z</time>
      </trkpt>
      <trkpt lat="42.2069260" lon="-8.7490560">
        <ele>11.5</ele>
        <time>2021-05-20T09:29:24Z</time>
      </trkpt>
      <trkpt lat="42.2069260" lon="-8.7490560">
        <ele>11.5</ele>
        <time>2021-05-20T09:29:25Z</time>
      </trkpt>
      <trkpt lat="42.2069260" lon="-8.7490560">
        <ele>11.5</ele>
        <time>2021-05-20T09:29:26Z</time>
      </trkpt>
      <trkpt lat="42.2069260" lon="-8.7490560">
        <ele>11.5</ele>
        <time>2021-05-20T09:29:27Z</time>
      </trkpt>
      <trkpt lat="42.2069260" lon="-8.7490560">
        <ele>11.5</ele>
        <time>2021-05-20T09:29:28Z</time>
      </trkpt>
      <trkpt lat="42.2069260" lon="-8.7490560">
        <ele>11.5</ele>
        <time>2021-05-20T09:29:29Z</time>
      </trkpt>
      <trkpt lat="42.2069260" lon="-8.7490560">
        <ele>11.5</ele>
        <time>2021-05-20T09:29:30Z</time>
      </trkpt>
      <trkpt lat="42.2069260" lon="-8.7490560">
        <ele>11.5</ele>
        <time>2021-05-20T09:29:31Z</time>
      </trkpt>
      <trkpt lat="42.2069260" lon="-8.7490560">
        <ele>11.5</ele>
        <time>2021-05-20T09:29:32Z</time>
      </trkpt>
      <trkpt lat="42.2069260" lon="-8.7490560">
        <ele>11.5</ele>
        <time>2021-05-20T09:29:33Z</time>
      </trkpt>
      <trkpt lat="42.2069260" lon="-8.7490560">
        <ele>11.5</ele>
        <time>2021-05-20T09:29:34Z</time>
      </trkpt>
      <trkpt lat="42.2069260" lon="-8.7490560">
        <ele>11.5</ele>
        <time>2021-05-20T09:29:35Z</time>
      </trkpt>
      <trkpt lat="42.2069260" lon="-8.7490560">
        <ele>11.5</ele>
        <time>2021-05-20T09:29:36Z</time>
      </trkpt>
      <trkpt lat="42.2069260" lon="-8.7490560">
        <ele>11.5</ele>
        <time>2021-05-20T09:29:37Z</time>
      </trkpt>
      <trkpt lat="42.2069260" lon="-8.7490560">
        <ele>11.5</ele>
        <time>2021-05-20T09:29:38Z</time>
      </trkpt>
      <trkpt lat="42.2069260" lon="-8.7490560">
        <ele>11.5</ele>
        <time>2021-05-20T09:29:39Z</time>
      </trkpt>
      <trkpt lat="42.2069260" lon="-8.7490560">
        <ele>11.5</ele>
        <time>2021-05-20T09:29:40Z</time>
      </trkpt>
      <trkpt lat="42.2069260" lon="-8.7490560">
        <ele>11.5</ele>
        <time>2021-05-20T09:29:41Z</time>
      </trkpt>
      <trkpt lat="42.2069260" lon="-8.7490560">
        <ele>11.5</ele>
        <time>2021-05-20T09:29:42Z</time>
      </trkpt>
      <trkpt lat="42.2069260" lon="-8.7490560">
        <ele>11.5</ele>
        <time>2021-05-20T09:29:43Z</time>
      </trkpt>
      <trkpt lat="42.2069260" lon="-8.7490560">
        <ele>11.5</ele>
        <time>2021-05-20T09:29:44Z</time>
      </trkpt>
      <trkpt lat="42.2069260" lon="-8.7490560">
        <ele>11.5</ele>
        <time>2021-05-20T09:29:45Z</time>
      </trkpt>
      <trkpt lat="42.2069260" lon="-8.7490560">
        <ele>11.5</ele>
        <time>2021-05-20T09:29:46Z</time>
      </trkpt>
      <trkpt lat="42.2069260" lon="-8.7490560">
        <ele>11.5</ele>
        <time>2021-05-20T09:29:47Z</time>
      </trkpt>
      <trkpt lat="42.2069260" lon="-8.7490560">
        <ele>11.5</ele>
        <time>2021-05-20T09:29:48Z</time>
      </trkpt>
      <trkpt lat="42.2069260" lon="-8.7490560">
        <ele>11.5</ele>
        <time>2021-05-20T09:29:49Z</time>
      </trkpt>
      <trkpt lat="42.2069260" lon="-8.7490560">
        <ele>11.5</ele>
        <time>2021-05-20T09:29:50Z</time>
      </trkpt>
      <trkpt lat="42.2069260" lon="-8.7490560">
        <ele>11.5</ele>
        <time>2021-05-20T09:29:51Z</time>
      </trkpt>
      <trkpt lat="42.2069260" lon="-8.7490560">
        <ele>11.5</ele>
        <time>2021-05-20T09:29:52Z</time>
      </trkpt>
      <trkpt lat="42.2069260" lon="-8.7490560">
        <ele>11.5</ele>
        <time>2021-05-20T09:29:53Z</time>
      </trkpt>
      <trkpt lat="42.2069260" lon="-8.7490560">
        <ele>11.5</ele>
        <time>2021-05-20T09:29:54Z</time>
      </trkpt>
      <trkpt lat="42.2069260" lon="-8.7490560">
        <ele>11.5</ele>
        <time>2021-05-20T09:29:55Z</time>
      </trkpt>
      <trkpt lat="42.2069260" lon="-8.7490560">
        <ele>11.5</ele>
        <time>2021-05-20T09:29:56Z</time>
      </trkpt>
      <trkpt lat="42.2069260" lon="-8.7490560">
        <ele>11.5</ele>
        <time>2021-05-20T09:29:57Z</time>
      </trkpt>
      <trkpt lat="42.2069260" lon="-8.7490560">
        <ele>11.5</ele>
        <time>2021-05-20T09:29:58Z</time>
      </trkpt>
      <trkpt lat="42.2069260" lon="-8.7490560">
        <ele>11.5</ele>
        <time>2021-05-20T09:29:59Z</time>
      </trkpt>
      <trkpt lat="42.2069260" lon="-8.7490560">
        <ele>11.5</ele>
        <time>2021-05-20T09:30:00Z</time>
      </trkpt>
      <trkpt lat="42.2069260" lon="-8.7490560">
        <ele>11.5</ele>
        <time>2021-05-20T09:30:01Z</time>
      </trkpt>
      <trkpt lat="42.2069260" lon="-8.7490560">
        <ele>11.5</ele>
        <time>2021-05-20T09:30:02Z</time>
      </trkpt>
      <trkpt lat="42.2069260" lon="-8.7490560">
        <ele>11.5</ele>
        <time>2021-05-20T09:30:03Z</time>
      </trkpt>
      <trkpt lat="42.2069260" lon="-8.7490560">
        <ele>11.5</ele>
        <time>2021-05-20T09:30:04Z</time>
      </trkpt>
      <trkpt lat="42.2069260" lon="-8.7490560">
        <ele>11.5</ele>
        <time>2021-05-20T09:30:05Z</time>
      </trkpt>
      <trkpt lat="42.2069260" lon="-8.7490560">
        <ele>11.5</ele>
        <time>2021-05-20T09:30:06Z</time>
      </trkpt>
      <trkpt lat="42.2069260" lon="-8.7490560">
        <ele>11.5</ele>
        <time>2021-05-20T09:30:07Z</time>
      </trkpt>
      <trkpt lat="42.2069260" lon="-8.7490560">
        <ele>11.5</ele>
        <time>2021-05-20T09:30:08Z</time>
      </trkpt>
      <trkpt lat="42.2069260" lon="-8.7490560">
        <ele>11.5</ele>
        <time>2021-05-20T09:30:09Z</time>
      </trkpt>
      <trkpt lat="42.2069260" lon="-8.7490560">
        <ele>11.5</ele>
        <time>2021-05-20T09:30:10Z</time>
      </trkpt>
      <trkpt lat="42.2069260" lon="-8.7490560">
        <ele>11.5</ele>
        <time>2021-05-20T09:30:11Z</time>
      </trkpt>
      <trkpt lat="42.2069260" lon="-8.7490560">
        <ele>11.5</ele>
        <time>2021-05-20T09:30:12Z</time>
      </trkpt>
      <trkpt lat="42.2069260" lon="-8.7490560">
        <ele>11.5</ele>
        <time>2021-05-20T09:30:13Z</time>
      </trkpt>
      <trkpt lat="42.2069260" lon="-8.7490560">
        <ele>11.5</ele>
        <time>2021-05-20T09:30:14Z</time>
      </trkpt>
      <trkpt lat="42.2069260" lon="-8.7490560">
        <ele>11.5</ele>
        <time>2021-05-20T09:30:15Z</time>
      </trkpt>
      <trkpt lat="42.2069260" lon="-8.7490560">
        <ele>11.5</ele>
        <time>2021-05-20T09:30:16Z</time>
      </trkpt>
      <trkpt lat="42.2069260" lon="-8.7490560">
        <ele>11.5</ele>
        <time>2021-05-20T09:30:17Z</time>
      </trkpt>
      <trkpt lat="42.2069260" lon="-8.7490560">
        <ele>11.5</ele>
        <time>2021-05-20T09:30:18Z</time>
      </trkpt>
      <trkpt lat="42.2069260" lon="-8.7490560">
        <ele>11.5</ele>
        <time>2021-05-20T09:30:19Z</time>
      </trkpt>
      <trkpt lat="42.2069260" lon="-8.7490560">
        <ele>11.5</ele>
        <time>2021-05-20T09:30:20Z</time>
      </trkpt>
      <trkpt lat="42.2069260" lon="-8.7490560">
        <ele>11.5</ele>
        <time>2021-05-20T09:30:21Z</time>
      </trkpt>
      <trkpt lat="42.2069260" lon="-8.7490560">
        <ele>11.5</ele>
        <time>2021-05-20T09:30:22Z</time>
      </trkpt>
      <trkpt lat="42.2069260" lon="-8.7490560">
        <ele>11.5</ele>
        <time>2021-05-20T09:30:23Z</time>
      </trkpt>
      <trkpt lat="42.2069260" lon="-8.7490560">
        <ele>11.5</ele>
        <time>2021-05-20T09:30:24Z</time>
      </trkpt>
      <trkpt lat="42.2069260" lon="-8.7490560">
        <ele>11.5</ele>
        <time>2021-05-20T09:30:25Z</time>
      </trkpt>
      <trkpt lat="42.2069260" lon="-8.7490560">
        <ele>11.5</ele>
        <time>2021-05-20T09:30:26Z</time>
      </trkpt>
      <trkpt lat="42.2069260" lon="-8.7490560">
        <ele>11.5</ele>
        <time>2021-05-20T09:30:27Z</time>
      </trkpt>
      <trkpt lat="42.2069260" lon="-8.7490560">
        <ele>11.5</ele>
        <time>2021-05-20T09:30:28Z</time>
      </trkpt>
      <trkpt lat="42.2069260" lon="-8.7490560">
        <ele>11.5</ele>
        <time>2021-05-20T09:30:29Z</time>
      </trkpt>
      <trkpt lat="42.2069260" lon="-8.7490560">
        <ele>11.5</ele>
        <time>2021-05-20T09:30:30Z</time>
      </trkpt>
      <trkpt lat="42.2069260" lon="-8.7490560">
        <ele>11.5</ele>
        <time>2021-05-20T09:30:31Z</time>
      </trkpt>
      <trkpt lat="42.2069260" lon="-8.7490560">
        <ele>11.5</ele>
        <time>2021-05-20T09:30:32Z</time>
      </trkpt>
      <trkpt lat="42.2069260" lon="-8.7490560">
        <ele>11.5</ele>
        <time>2021-05-20T09:30:33Z</time>
      </trkpt>
      <trkpt lat="42.2069260" lon="-8.7490560">
        <ele>11.5</ele>
        <time>2021-05-20T09:30:34Z</time>
      </trkpt>
      <trkpt lat="42.2069260" lon="-8.7490560">
        <ele>11.5</ele>
        <time>2021-05-20T09:30:35Z</time>
      </trkpt>
      <trkpt lat="42.2069260" lon="-8.7490560">
        <ele>11.5</ele>
        <time>2021-05-20T09:30:36Z</time>
      </trkpt>
      <trkpt lat="42.2069260" lon="-8.7490560">
        <ele>11.5</ele>
        <time>2021-05-20T09:30:37Z</time>
      </trkpt>
      <trkpt lat="42.2069260" lon="-8.7490560">
        <ele>11.5</ele>
        <time>2021-05-20T09:30:38Z</time>
      </trkpt>
      <trkpt lat="42.2069260" lon="-8.7490560">
        <ele>11.5</ele>
        <time>2021-05-20T09:30:39Z</time>
      </trkpt>
      <trkpt lat="42.2069260" lon="-8.7490560">
        <ele>11.5</ele>
        <time>2021-05-20T09:30:40Z</time>
      </trkpt>
      <trkpt lat="42.2069260" lon="-8.7490560">
        <ele>11.5</ele>
        <time>2021-05-20T09:30:41Z</time>
      </trkpt>
      <trkpt lat="42.2069260" lon="-8.7490560">
        <ele>11.5</ele>
        <time>2021-05-20T09:30:42Z</time>
      </trkpt>
      <trkpt lat="42.2069260" lon="-8.7490560">
        <ele>11.5</ele>
        <time>2021-05-20T09:30:43Z</time>
      </trkpt>
      <trkpt lat="42.2069260" lon="-8.7490560">
        <ele>11.5</ele>
        <time>2021-05-20T09:30:44Z</time>
      </trkpt>
      <trkpt lat="42.2069260" lon="-8.7490560">
        <ele>11.5</ele>
        <time>2021-05-20T09:30:45Z</time>
      </trkpt>
      <trkpt lat="42.2069260" lon="-8.7490560">
        <ele>11.5</ele>
        <time>2021-05-20T09:30:46Z</time>
      </trkpt>
      <trkpt lat="42.2069260" lon="-8.7490560">
        <ele>11.5</ele>
        <time>2021-05-20T09:30:47Z</time>
      </trkpt>
      <trkpt lat="42.2069260" lon="-8.7490560">
        <ele>11.5</ele>
        <time>2021-05-20T09:30:48Z</time>
      </trkpt>
      <trkpt lat="42.2069260" lon="-8.7490560">
        <ele>11.5</ele>
        <time>2021-05-20T09:30:49Z</time>
      </trkpt>
      <trkpt lat="42.2069260" lon="-8.7490560">
        <ele>11.5</ele>
        <time>2021-05-20T09:30:50Z</time>
      </trkpt>
      <trkpt lat="42.2069260" lon="-8.7490560">
        <ele>11.5</ele>
        <time>2021-05-20T09:30:51Z</time>
      </trkpt>
      <trkpt lat="42.2069260" lon="-8.7490560">
        <ele>11.5</ele>
        <time>2021-05-20T09:30:52Z</time>
      </trkpt>
      <trkpt lat="42.2069260" lon="-8.7490560">
        <ele>11.5</ele>
        <time>2021-05-20T09:30:53Z</time>
      </trkpt>
      <trkpt lat="42.2069260" lon="-8.7490560">
        <ele>11.5</ele>
        <time>2021-05-20T09:30:54Z</time>
      </trkpt>
      <trkpt lat="42.2069260" lon="-8.7490560">
        <ele>11.5</ele>
        <time>2021-05-20T09:30:55Z</time>
      </trkpt>
      <trkpt lat="42.2069260" lon="-8.7490560">
        <ele>11.5</ele>
        <time>2021-05-20T09:30:56Z</time>
      </trkpt>
      <trkpt lat="42.2069260" lon="-8.7490560">
        <ele>11.5</ele>
        <time>2021-05-20T09:30:57Z</time>
      </trkpt>
      <trkpt lat="42.2069260" lon="-8.7490560">
        <ele>11.5</ele>
        <time>2021-05-20T09:30:58Z</time>
      </trkpt>
      <trkpt lat="42.2069260" lon="-8.7490560">
        <ele>11.5</ele>
        <time>2021-05-20T09:30:59Z</time>
      </trkpt>
      <trkpt lat="42.2069260" lon="-8.7490560">
        <ele>11.5</ele>
        <time>2021-05-20T09:31:01Z</time>
      </trkpt>
      <trkpt lat="42.2069260" lon="-8.7490560">
        <ele>11.5</ele>
        <time>2021-05-20T09:31:02Z</time>
      </trkpt>
      <trkpt lat="42.2069260" lon="-8.7490560">
        <ele>11.5</ele>
        <time>2021-05-20T09:31:03Z</time>
      </trkpt>
      <trkpt lat="42.2069260" lon="-8.7490560">
        <ele>11.5</ele>
        <time>2021-05-20T09:31:04Z</time>
      </trkpt>
      <trkpt lat="42.2069260" lon="-8.7490560">
        <ele>11.5</ele>
        <time>2021-05-20T09:31:05Z</time>
      </trkpt>
      <trkpt lat="42.2069260" lon="-8.7490560">
        <ele>11.5</ele>
        <time>2021-05-20T09:31:06Z</time>
      </trkpt>
      <trkpt lat="42.2069260" lon="-8.7490560">
        <ele>11.5</ele>
        <time>2021-05-20T09:31:07Z</time>
      </trkpt>
      <trkpt lat="42.2069260" lon="-8.7490560">
        <ele>11.5</ele>
        <time>2021-05-20T09:31:08Z</time>
      </trkpt>
      <trkpt lat="42.2069260" lon="-8.7490560">
        <ele>11.5</ele>
        <time>2021-05-20T09:31:09Z</time>
      </trkpt>
      <trkpt lat="42.2069260" lon="-8.7490560">
        <ele>11.5</ele>
        <time>2021-05-20T09:31:10Z</time>
      </trkpt>
      <trkpt lat="42.2069260" lon="-8.7490560">
        <ele>11.5</ele>
        <time>2021-05-20T09:31:11Z</time>
      </trkpt>
      <trkpt lat="42.2069260" lon="-8.7490560">
        <ele>11.5</ele>
        <time>2021-05-20T09:31:12Z</time>
      </trkpt>
      <trkpt lat="42.2069260" lon="-8.7490560">
        <ele>11.5</ele>
        <time>2021-05-20T09:31:13Z</time>
      </trkpt>
      <trkpt lat="42.2069260" lon="-8.7490560">
        <ele>11.5</ele>
        <time>2021-05-20T09:31:14Z</time>
      </trkpt>
      <trkpt lat="42.2069260" lon="-8.7490560">
        <ele>11.5</ele>
        <time>2021-05-20T09:31:15Z</time>
      </trkpt>
      <trkpt lat="42.2069260" lon="-8.7490560">
        <ele>11.5</ele>
        <time>2021-05-20T09:31:16Z</time>
      </trkpt>
      <trkpt lat="42.2069260" lon="-8.7490560">
        <ele>11.5</ele>
        <time>2021-05-20T09:31:17Z</time>
      </trkpt>
      <trkpt lat="42.2069260" lon="-8.7490560">
        <ele>11.5</ele>
        <time>2021-05-20T09:31:18Z</time>
      </trkpt>
      <trkpt lat="42.2069260" lon="-8.7490560">
        <ele>11.5</ele>
        <time>2021-05-20T09:31:19Z</time>
      </trkpt>
      <trkpt lat="42.2069260" lon="-8.7490560">
        <ele>11.5</ele>
        <time>2021-05-20T09:31:20Z</time>
      </trkpt>
      <trkpt lat="42.2069260" lon="-8.7490560">
        <ele>11.5</ele>
        <time>2021-05-20T09:31:21Z</time>
      </trkpt>
      <trkpt lat="42.2069260" lon="-8.7490560">
        <ele>11.5</ele>
        <time>2021-05-20T09:31:22Z</time>
      </trkpt>
      <trkpt lat="42.2069260" lon="-8.7490560">
        <ele>11.5</ele>
        <time>2021-05-20T09:31:23Z</time>
      </trkpt>
      <trkpt lat="42.2069640" lon="-8.7491440">
        <ele>11.5</ele>
        <time>2021-05-20T09:31:24Z</time>
      </trkpt>
      <trkpt lat="42.2069630" lon="-8.7491410">
        <ele>11.5</ele>
        <time>2021-05-20T09:31:25Z</time>
      </trkpt>
      <trkpt lat="42.2069610" lon="-8.7491360">
        <ele>11.5</ele>
        <time>2021-05-20T09:31:26Z</time>
      </trkpt>
      <trkpt lat="42.2069610" lon="-8.7491320">
        <ele>11.5</ele>
        <time>2021-05-20T09:31:27Z</time>
      </trkpt>
      <trkpt lat="42.2069590" lon="-8.7491250">
        <ele>11.5</ele>
        <time>2021-05-20T09:31:28Z</time>
      </trkpt>
      <trkpt lat="42.2069600" lon="-8.7491180">
        <ele>11.5</ele>
        <time>2021-05-20T09:31:29Z</time>
      </trkpt>
      <trkpt lat="42.2069540" lon="-8.7491180">
        <ele>11.5</ele>
        <time>2021-05-20T09:31:30Z</time>
      </trkpt>
      <trkpt lat="42.2069520" lon="-8.7491280">
        <ele>11.5</ele>
        <time>2021-05-20T09:31:31Z</time>
      </trkpt>
      <trkpt lat="42.2069520" lon="-8.7491280">
        <ele>11.5</ele>
        <time>2021-05-20T09:31:32Z</time>
      </trkpt>
      <trkpt lat="42.2069510" lon="-8.7491300">
        <ele>11.5</ele>
        <time>2021-05-20T09:31:33Z</time>
      </trkpt>
      <trkpt lat="42.2069540" lon="-8.7491320">
        <ele>11.5</ele>
        <time>2021-05-20T09:31:34Z</time>
      </trkpt>
      <trkpt lat="42.2069440" lon="-8.7491340">
        <ele>11.5</ele>
        <time>2021-05-20T09:31:35Z</time>
      </trkpt>
      <trkpt lat="42.2069400" lon="-8.7491390">
        <ele>11.5</ele>
        <time>2021-05-20T09:31:36Z</time>
      </trkpt>
      <trkpt lat="42.2069370" lon="-8.7491390">
        <ele>11.5</ele>
        <time>2021-05-20T09:31:37Z</time>
      </trkpt>
      <trkpt lat="42.2069300" lon="-8.7491390">
        <ele>11.5</ele>
        <time>2021-05-20T09:31:38Z</time>
      </trkpt>
      <trkpt lat="42.2069180" lon="-8.7491340">
        <ele>11.5</ele>
        <time>2021-05-20T09:31:39Z</time>
      </trkpt>
      <trkpt lat="42.2069080" lon="-8.7491290">
        <ele>11.5</ele>
        <time>2021-05-20T09:31:40Z</time>
      </trkpt>
      <trkpt lat="42.2069000" lon="-8.7491200">
        <ele>11.5</ele>
        <time>2021-05-20T09:31:41Z</time>
      </trkpt>
      <trkpt lat="42.2068850" lon="-8.7491120">
        <ele>11.5</ele>
        <time>2021-05-20T09:31:42Z</time>
      </trkpt>
      <trkpt lat="42.2068840" lon="-8.7491140">
        <ele>11.5</ele>
        <time>2021-05-20T09:31:43Z</time>
      </trkpt>
      <trkpt lat="42.2068700" lon="-8.7491000">
        <ele>11.5</ele>
        <time>2021-05-20T09:31:44Z</time>
      </trkpt>
      <trkpt lat="42.2068700" lon="-8.7490990">
        <ele>11.5</ele>
        <time>2021-05-20T09:31:45Z</time>
      </trkpt>
      <trkpt lat="42.2068700" lon="-8.7490990">
        <ele>11.5</ele>
        <time>2021-05-20T09:31:46Z</time>
      </trkpt>
      <trkpt lat="42.2068670" lon="-8.7490920">
        <ele>11.5</ele>
        <time>2021-05-20T09:31:47Z</time>
      </trkpt>
      <trkpt lat="42.2068650" lon="-8.7490990">
        <ele>11.5</ele>
        <time>2021-05-20T09:31:48Z</time>
      </trkpt>
      <trkpt lat="42.2068650" lon="-8.7490970">
        <ele>11.5</ele>
        <time>2021-05-20T09:31:49Z</time>
      </trkpt>
      <trkpt lat="42.2068660" lon="-8.7490930">
        <ele>11.5</ele>
        <time>2021-05-20T09:31:50Z</time>
      </trkpt>
      <trkpt lat="42.2068680" lon="-8.7490930">
        <ele>11.5</ele>
        <time>2021-05-20T09:31:51Z</time>
      </trkpt>
      <trkpt lat="42.2068730" lon="-8.7490920">
        <ele>11.5</ele>
        <time>2021-05-20T09:31:52Z</time>
      </trkpt>
      <trkpt lat="42.2068680" lon="-8.7490740">
        <ele>11.5</ele>
        <time>2021-05-20T09:31:53Z</time>
      </trkpt>
      <trkpt lat="42.2068730" lon="-8.7490720">
        <ele>11.5</ele>
        <time>2021-05-20T09:31:54Z</time>
      </trkpt>
      <trkpt lat="42.2068750" lon="-8.7490720">
        <ele>11.5</ele>
        <time>2021-05-20T09:31:55Z</time>
      </trkpt>
      <trkpt lat="42.2068750" lon="-8.7490720">
        <ele>11.5</ele>
        <time>2021-05-20T09:31:56Z</time>
      </trkpt>
      <trkpt lat="42.2068720" lon="-8.7490700">
        <ele>11.5</ele>
        <time>2021-05-20T09:31:57Z</time>
      </trkpt>
      <trkpt lat="42.2068700" lon="-8.7490730">
        <ele>11.5</ele>
        <time>2021-05-20T09:31:58Z</time>
      </trkpt>
      <trkpt lat="42.2068700" lon="-8.7490730">
        <ele>11.5</ele>
        <time>2021-05-20T09:31:59Z</time>
      </trkpt>
      <trkpt lat="42.2068700" lon="-8.7490730">
        <ele>11.5</ele>
        <time>2021-05-20T09:32:00Z</time>
      </trkpt>
      <trkpt lat="42.2068640" lon="-8.7490690">
        <ele>11.5</ele>
        <time>2021-05-20T09:32:01Z</time>
      </trkpt>
      <trkpt lat="42.2068640" lon="-8.7490690">
        <ele>11.5</ele>
        <time>2021-05-20T09:32:02Z</time>
      </trkpt>
      <trkpt lat="42.2068650" lon="-8.7490660">
        <ele>11.5</ele>
        <time>2021-05-20T09:32:03Z</time>
      </trkpt>
      <trkpt lat="42.2068650" lon="-8.7490660">
        <ele>11.5</ele>
        <time>2021-05-20T09:32:04Z</time>
      </trkpt>
      <trkpt lat="42.2068730" lon="-8.7490630">
        <ele>11.5</ele>
        <time>2021-05-20T09:32:05Z</time>
      </trkpt>
      <trkpt lat="42.2068730" lon="-8.7490630">
        <ele>11.5</ele>
        <time>2021-05-20T09:32:06Z</time>
      </trkpt>
      <trkpt lat="42.2068820" lon="-8.7490720">
        <ele>11.4</ele>
        <time>2021-05-20T09:32:07Z</time>
      </trkpt>
      <trkpt lat="42.2068830" lon="-8.7490730">
        <ele>11.4</ele>
        <time>2021-05-20T09:32:08Z</time>
      </trkpt>
      <trkpt lat="42.2068840" lon="-8.7490720">
        <ele>11.4</ele>
        <time>2021-05-20T09:32:09Z</time>
      </trkpt>
      <trkpt lat="42.2068860" lon="-8.7490720">
        <ele>11.4</ele>
        <time>2021-05-20T09:32:10Z</time>
      </trkpt>
      <trkpt lat="42.2068890" lon="-8.7490730">
        <ele>11.4</ele>
        <time>2021-05-20T09:32:11Z</time>
      </trkpt>
      <trkpt lat="42.2068890" lon="-8.7490730">
        <ele>11.4</ele>
        <time>2021-05-20T09:32:12Z</time>
      </trkpt>
      <trkpt lat="42.2068890" lon="-8.7490730">
        <ele>11.4</ele>
        <time>2021-05-20T09:32:13Z</time>
      </trkpt>
      <trkpt lat="42.2068890" lon="-8.7490730">
        <ele>11.4</ele>
        <time>2021-05-20T09:32:14Z</time>
      </trkpt>
      <trkpt lat="42.2069020" lon="-8.7491010">
        <ele>11.4</ele>
        <time>2021-05-20T09:32:15Z</time>
      </trkpt>
      <trkpt lat="42.2069020" lon="-8.7491000">
        <ele>11.4</ele>
        <time>2021-05-20T09:32:16Z</time>
      </trkpt>
      <trkpt lat="42.2069030" lon="-8.7491020">
        <ele>11.4</ele>
        <time>2021-05-20T09:32:17Z</time>
      </trkpt>
      <trkpt lat="42.2069040" lon="-8.7491030">
        <ele>11.4</ele>
        <time>2021-05-20T09:32:18Z</time>
      </trkpt>
      <trkpt lat="42.2069050" lon="-8.7491060">
        <ele>11.4</ele>
        <time>2021-05-20T09:32:19Z</time>
      </trkpt>
      <trkpt lat="42.2069060" lon="-8.7491050">
        <ele>11.4</ele>
        <time>2021-05-20T09:32:20Z</time>
      </trkpt>
      <trkpt lat="42.2069090" lon="-8.7491120">
        <ele>11.4</ele>
        <time>2021-05-20T09:32:21Z</time>
      </trkpt>
      <trkpt lat="42.2069090" lon="-8.7491200">
        <ele>11.4</ele>
        <time>2021-05-20T09:32:22Z</time>
      </trkpt>
      <trkpt lat="42.2069170" lon="-8.7491370">
        <ele>11.4</ele>
        <time>2021-05-20T09:32:23Z</time>
      </trkpt>
      <trkpt lat="42.2069160" lon="-8.7491380">
        <ele>11.4</ele>
        <time>2021-05-20T09:32:24Z</time>
      </trkpt>
      <trkpt lat="42.2069170" lon="-8.7491410">
        <ele>11.4</ele>
        <time>2021-05-20T09:32:25Z</time>
      </trkpt>
      <trkpt lat="42.2069190" lon="-8.7491400">
        <ele>11.4</ele>
        <time>2021-05-20T09:32:27Z</time>
      </trkpt>
      <trkpt lat="42.2069220" lon="-8.7491430">
        <ele>11.4</ele>
        <time>2021-05-20T09:32:28Z</time>
      </trkpt>
      <trkpt lat="42.2069210" lon="-8.7491390">
        <ele>11.4</ele>
        <time>2021-05-20T09:32:29Z</time>
      </trkpt>
      <trkpt lat="42.2069230" lon="-8.7491400">
        <ele>11.4</ele>
        <time>2021-05-20T09:32:30Z</time>
      </trkpt>
      <trkpt lat="42.2069250" lon="-8.7491440">
        <ele>11.4</ele>
        <time>2021-05-20T09:32:31Z</time>
      </trkpt>
      <trkpt lat="42.2069240" lon="-8.7491480">
        <ele>11.4</ele>
        <time>2021-05-20T09:32:32Z</time>
      </trkpt>
      <trkpt lat="42.2069250" lon="-8.7491480">
        <ele>11.4</ele>
        <time>2021-05-20T09:32:33Z</time>
      </trkpt>
      <trkpt lat="42.2069290" lon="-8.7491490">
        <ele>11.4</ele>
        <time>2021-05-20T09:32:34Z</time>
      </trkpt>
      <trkpt lat="42.2069320" lon="-8.7491530">
        <ele>11.4</ele>
        <time>2021-05-20T09:32:35Z</time>
      </trkpt>
      <trkpt lat="42.2069340" lon="-8.7491530">
        <ele>11.4</ele>
        <time>2021-05-20T09:32:36Z</time>
      </trkpt>
      <trkpt lat="42.2069340" lon="-8.7491540">
        <ele>11.4</ele>
        <time>2021-05-20T09:32:37Z</time>
      </trkpt>
      <trkpt lat="42.2069360" lon="-8.7491560">
        <ele>11.4</ele>
        <time>2021-05-20T09:32:38Z</time>
      </trkpt>
      <trkpt lat="42.2069400" lon="-8.7491550">
        <ele>11.4</ele>
        <time>2021-05-20T09:32:39Z</time>
      </trkpt>
      <trkpt lat="42.2069420" lon="-8.7491600">
        <ele>11.4</ele>
        <time>2021-05-20T09:32:40Z</time>
      </trkpt>
      <trkpt lat="42.2069470" lon="-8.7491570">
        <ele>11.4</ele>
        <time>2021-05-20T09:32:41Z</time>
      </trkpt>
      <trkpt lat="42.2069480" lon="-8.7491570">
        <ele>11.4</ele>
        <time>2021-05-20T09:32:42Z</time>
      </trkpt>
      <trkpt lat="42.2069510" lon="-8.7491600">
        <ele>11.4</ele>
        <time>2021-05-20T09:32:43Z</time>
      </trkpt>
      <trkpt lat="42.2069480" lon="-8.7491600">
        <ele>11.4</ele>
        <time>2021-05-20T09:32:44Z</time>
      </trkpt>
      <trkpt lat="42.2069500" lon="-8.7491620">
        <ele>11.4</ele>
        <time>2021-05-20T09:32:45Z</time>
      </trkpt>
      <trkpt lat="42.2069520" lon="-8.7491620">
        <ele>11.4</ele>
        <time>2021-05-20T09:32:46Z</time>
      </trkpt>
      <trkpt lat="42.2069540" lon="-8.7491650">
        <ele>11.4</ele>
        <time>2021-05-20T09:32:47Z</time>
      </trkpt>
      <trkpt lat="42.2069550" lon="-8.7491690">
        <ele>11.4</ele>
        <time>2021-05-20T09:32:48Z</time>
      </trkpt>
      <trkpt lat="42.2069570" lon="-8.7491690">
        <ele>11.4</ele>
        <time>2021-05-20T09:32:49Z</time>
      </trkpt>
      <trkpt lat="42.2069580" lon="-8.7491680">
        <ele>11.4</ele>
        <time>2021-05-20T09:32:50Z</time>
      </trkpt>
      <trkpt lat="42.2069590" lon="-8.7491620">
        <ele>11.4</ele>
        <time>2021-05-20T09:32:51Z</time>
      </trkpt>
      <trkpt lat="42.2069610" lon="-8.7491560">
        <ele>11.4</ele>
        <time>2021-05-20T09:32:52Z</time>
      </trkpt>
      <trkpt lat="42.2069670" lon="-8.7491560">
        <ele>11.4</ele>
        <time>2021-05-20T09:32:53Z</time>
      </trkpt>
      <trkpt lat="42.2069660" lon="-8.7491540">
        <ele>11.4</ele>
        <time>2021-05-20T09:32:54Z</time>
      </trkpt>
      <trkpt lat="42.2069670" lon="-8.7491570">
        <ele>11.4</ele>
        <time>2021-05-20T09:32:55Z</time>
      </trkpt>
      <trkpt lat="42.2069640" lon="-8.7491530">
        <ele>11.4</ele>
        <time>2021-05-20T09:32:56Z</time>
      </trkpt>
      <trkpt lat="42.2069630" lon="-8.7491470">
        <ele>11.4</ele>
        <time>2021-05-20T09:32:57Z</time>
      </trkpt>
      <trkpt lat="42.2069620" lon="-8.7491470">
        <ele>11.4</ele>
        <time>2021-05-20T09:32:58Z</time>
      </trkpt>
      <trkpt lat="42.2069650" lon="-8.7491440">
        <ele>11.4</ele>
        <time>2021-05-20T09:32:59Z</time>
      </trkpt>
      <trkpt lat="42.2069620" lon="-8.7491420">
        <ele>11.4</ele>
        <time>2021-05-20T09:33:00Z</time>
      </trkpt>
      <trkpt lat="42.2069590" lon="-8.7491480">
        <ele>11.4</ele>
        <time>2021-05-20T09:33:01Z</time>
      </trkpt>
      <trkpt lat="42.2069530" lon="-8.7491480">
        <ele>11.4</ele>
        <time>2021-05-20T09:33:02Z</time>
      </trkpt>
      <trkpt lat="42.2069520" lon="-8.7491470">
        <ele>11.4</ele>
        <time>2021-05-20T09:33:03Z</time>
      </trkpt>
      <trkpt lat="42.2069510" lon="-8.7491490">
        <ele>11.4</ele>
        <time>2021-05-20T09:33:04Z</time>
      </trkpt>
      <trkpt lat="42.2069460" lon="-8.7491500">
        <ele>11.4</ele>
        <time>2021-05-20T09:33:05Z</time>
      </trkpt>
      <trkpt lat="42.2069380" lon="-8.7491500">
        <ele>11.4</ele>
        <time>2021-05-20T09:33:06Z</time>
      </trkpt>
      <trkpt lat="42.2069320" lon="-8.7491510">
        <ele>11.4</ele>
        <time>2021-05-20T09:33:07Z</time>
      </trkpt>
      <trkpt lat="42.2069220" lon="-8.7491440">
        <ele>11.4</ele>
        <time>2021-05-20T09:33:08Z</time>
      </trkpt>
      <trkpt lat="42.2069180" lon="-8.7491400">
        <ele>11.4</ele>
        <time>2021-05-20T09:33:09Z</time>
      </trkpt>
      <trkpt lat="42.2069120" lon="-8.7491320">
        <ele>11.4</ele>
        <time>2021-05-20T09:33:10Z</time>
      </trkpt>
      <trkpt lat="42.2069090" lon="-8.7491350">
        <ele>11.4</ele>
        <time>2021-05-20T09:33:11Z</time>
      </trkpt>
      <trkpt lat="42.2069120" lon="-8.7491390">
        <ele>11.4</ele>
        <time>2021-05-20T09:33:12Z</time>
      </trkpt>
      <trkpt lat="42.2069090" lon="-8.7491410">
        <ele>11.4</ele>
        <time>2021-05-20T09:33:13Z</time>
      </trkpt>
      <trkpt lat="42.2069090" lon="-8.7491380">
        <ele>11.4</ele>
        <time>2021-05-20T09:33:14Z</time>
      </trkpt>
      <trkpt lat="42.2069090" lon="-8.7491330">
        <ele>11.4</ele>
        <time>2021-05-20T09:33:15Z</time>
      </trkpt>
      <trkpt lat="42.2069060" lon="-8.7491270">
        <ele>11.4</ele>
        <time>2021-05-20T09:33:16Z</time>
      </trkpt>
      <trkpt lat="42.2069000" lon="-8.7491280">
        <ele>11.4</ele>
        <time>2021-05-20T09:33:17Z</time>
      </trkpt>
      <trkpt lat="42.2068990" lon="-8.7491290">
        <ele>11.4</ele>
        <time>2021-05-20T09:33:18Z</time>
      </trkpt>
      <trkpt lat="42.2068980" lon="-8.7491260">
        <ele>11.4</ele>
        <time>2021-05-20T09:33:19Z</time>
      </trkpt>
      <trkpt lat="42.2068940" lon="-8.7491260">
        <ele>11.4</ele>
        <time>2021-05-20T09:33:20Z</time>
      </trkpt>
      <trkpt lat="42.2068920" lon="-8.7491260">
        <ele>11.4</ele>
        <time>2021-05-20T09:33:21Z</time>
      </trkpt>
      <trkpt lat="42.2068950" lon="-8.7491320">
        <ele>11.4</ele>
        <time>2021-05-20T09:33:22Z</time>
      </trkpt>
      <trkpt lat="42.2069010" lon="-8.7491430">
        <ele>11.4</ele>
        <time>2021-05-20T09:33:23Z</time>
      </trkpt>
      <trkpt lat="42.2069050" lon="-8.7491420">
        <ele>11.4</ele>
        <time>2021-05-20T09:33:24Z</time>
      </trkpt>
      <trkpt lat="42.2069000" lon="-8.7491420">
        <ele>11.4</ele>
        <time>2021-05-20T09:33:25Z</time>
      </trkpt>
      <trkpt lat="42.2068970" lon="-8.7491470">
        <ele>11.4</ele>
        <time>2021-05-20T09:33:26Z</time>
      </trkpt>
      <trkpt lat="42.2068930" lon="-8.7491500">
        <ele>11.4</ele>
        <time>2021-05-20T09:33:27Z</time>
      </trkpt>
      <trkpt lat="42.2068930" lon="-8.7491530">
        <ele>11.4</ele>
        <time>2021-05-20T09:33:28Z</time>
      </trkpt>
      <trkpt lat="42.2068940" lon="-8.7491480">
        <ele>11.4</ele>
        <time>2021-05-20T09:33:29Z</time>
      </trkpt>
      <trkpt lat="42.2068960" lon="-8.7491460">
        <ele>11.4</ele>
        <time>2021-05-20T09:33:30Z</time>
      </trkpt>
      <trkpt lat="42.2068950" lon="-8.7491530">
        <ele>11.4</ele>
        <time>2021-05-20T09:33:31Z</time>
      </trkpt>
      <trkpt lat="42.2068940" lon="-8.7491560">
        <ele>11.4</ele>
        <time>2021-05-20T09:33:32Z</time>
      </trkpt>
      <trkpt lat="42.2068950" lon="-8.7491450">
        <ele>11.4</ele>
        <time>2021-05-20T09:33:33Z</time>
      </trkpt>
      <trkpt lat="42.2068990" lon="-8.7491350">
        <ele>11.4</ele>
        <time>2021-05-20T09:33:34Z</time>
      </trkpt>
      <trkpt lat="42.2069010" lon="-8.7491250">
        <ele>11.4</ele>
        <time>2021-05-20T09:33:35Z</time>
      </trkpt>
      <trkpt lat="42.2069040" lon="-8.7491170">
        <ele>11.4</ele>
        <time>2021-05-20T09:33:36Z</time>
      </trkpt>
      <trkpt lat="42.2069110" lon="-8.7491090">
        <ele>11.4</ele>
        <time>2021-05-20T09:33:37Z</time>
      </trkpt>
      <trkpt lat="42.2069250" lon="-8.7491090">
        <ele>11.4</ele>
        <time>2021-05-20T09:33:38Z</time>
      </trkpt>
      <trkpt lat="42.2069310" lon="-8.7491120">
        <ele>11.4</ele>
        <time>2021-05-20T09:33:39Z</time>
      </trkpt>
      <trkpt lat="42.2069370" lon="-8.7491140">
        <ele>11.4</ele>
        <time>2021-05-20T09:33:40Z</time>
      </trkpt>
      <trkpt lat="42.2069430" lon="-8.7491170">
        <ele>11.4</ele>
        <time>2021-05-20T09:33:41Z</time>
      </trkpt>
      <trkpt lat="42.2069490" lon="-8.7491190">
        <ele>11.4</ele>
        <time>2021-05-20T09:33:42Z</time>
      </trkpt>
      <trkpt lat="42.2069490" lon="-8.7491190">
        <ele>11.4</ele>
        <time>2021-05-20T09:33:43Z</time>
      </trkpt>
      <trkpt lat="42.2069490" lon="-8.7491190">
        <ele>11.4</ele>
        <time>2021-05-20T09:33:44Z</time>
      </trkpt>
      <trkpt lat="42.2069730" lon="-8.7491350">
        <ele>11.4</ele>
        <time>2021-05-20T09:33:45Z</time>
      </trkpt>
      <trkpt lat="42.2069720" lon="-8.7491390">
        <ele>11.4</ele>
        <time>2021-05-20T09:33:46Z</time>
      </trkpt>
      <trkpt lat="42.2069740" lon="-8.7491370">
        <ele>11.4</ele>
        <time>2021-05-20T09:33:47Z</time>
      </trkpt>
      <trkpt lat="42.2069730" lon="-8.7491320">
        <ele>11.4</ele>
        <time>2021-05-20T09:33:48Z</time>
      </trkpt>
      <trkpt lat="42.2069900" lon="-8.7491340">
        <ele>11.4</ele>
        <time>2021-05-20T09:33:49Z</time>
      </trkpt>
      <trkpt lat="42.2069960" lon="-8.7491230">
        <ele>11.4</ele>
        <time>2021-05-20T09:33:50Z</time>
      </trkpt>
      <trkpt lat="42.2070040" lon="-8.7491140">
        <ele>11.4</ele>
        <time>2021-05-20T09:33:51Z</time>
      </trkpt>
      <trkpt lat="42.2070160" lon="-8.7490970">
        <ele>11.4</ele>
        <time>2021-05-20T09:33:52Z</time>
      </trkpt>
      <trkpt lat="42.2070310" lon="-8.7490950">
        <ele>11.4</ele>
        <time>2021-05-20T09:33:53Z</time>
      </trkpt>
      <trkpt lat="42.2070350" lon="-8.7490940">
        <ele>11.4</ele>
        <time>2021-05-20T09:33:54Z</time>
      </trkpt>
      <trkpt lat="42.2070430" lon="-8.7490800">
        <ele>11.4</ele>
        <time>2021-05-20T09:33:55Z</time>
      </trkpt>
      <trkpt lat="42.2070490" lon="-8.7490650">
        <ele>11.4</ele>
        <time>2021-05-20T09:33:56Z</time>
      </trkpt>
      <trkpt lat="42.2070590" lon="-8.7490480">
        <ele>11.4</ele>
        <time>2021-05-20T09:33:57Z</time>
      </trkpt>
      <trkpt lat="42.2070630" lon="-8.7490400">
        <ele>11.4</ele>
        <time>2021-05-20T09:33:58Z</time>
      </trkpt>
      <trkpt lat="42.2070660" lon="-8.7490330">
        <ele>11.4</ele>
        <time>2021-05-20T09:33:59Z</time>
      </trkpt>
      <trkpt lat="42.2070700" lon="-8.7490250">
        <ele>11.4</ele>
        <time>2021-05-20T09:34:00Z</time>
      </trkpt>
      <trkpt lat="42.2070760" lon="-8.7490150">
        <ele>11.4</ele>
        <time>2021-05-20T09:34:01Z</time>
      </trkpt>
      <trkpt lat="42.2070790" lon="-8.7490080">
        <ele>11.4</ele>
        <time>2021-05-20T09:34:02Z</time>
      </trkpt>
      <trkpt lat="42.2070840" lon="-8.7490000">
        <ele>11.4</ele>
        <time>2021-05-20T09:34:03Z</time>
      </trkpt>
      <trkpt lat="42.2070920" lon="-8.7489900">
        <ele>11.4</ele>
        <time>2021-05-20T09:34:04Z</time>
      </trkpt>
      <trkpt lat="42.2071030" lon="-8.7489780">
        <ele>11.4</ele>
        <time>2021-05-20T09:34:05Z</time>
      </trkpt>
      <trkpt lat="42.2071070" lon="-8.7489700">
        <ele>11.4</ele>
        <time>2021-05-20T09:34:06Z</time>
      </trkpt>
      <trkpt lat="42.2071160" lon="-8.7489660">
        <ele>11.4</ele>
        <time>2021-05-20T09:34:07Z</time>
      </trkpt>
      <trkpt lat="42.2071260" lon="-8.7489610">
        <ele>11.4</ele>
        <time>2021-05-20T09:34:08Z</time>
      </trkpt>
      <trkpt lat="42.2071310" lon="-8.7489480">
        <ele>11.4</ele>
        <time>2021-05-20T09:34:09Z</time>
      </trkpt>
      <trkpt lat="42.2071440" lon="-8.7489420">
        <ele>11.4</ele>
        <time>2021-05-20T09:34:10Z</time>
      </trkpt>
      <trkpt lat="42.2071520" lon="-8.7489300">
        <ele>11.4</ele>
        <time>2021-05-20T09:34:11Z</time>
      </trkpt>
      <trkpt lat="42.2071590" lon="-8.7489230">
        <ele>11.4</ele>
        <time>2021-05-20T09:34:12Z</time>
      </trkpt>
      <trkpt lat="42.2071670" lon="-8.7489180">
        <ele>11.4</ele>
        <time>2021-05-20T09:34:13Z</time>
      </trkpt>
      <trkpt lat="42.2071770" lon="-8.7489110">
        <ele>11.4</ele>
        <time>2021-05-20T09:34:14Z</time>
      </trkpt>
      <trkpt lat="42.2071840" lon="-8.7488990">
        <ele>11.4</ele>
        <time>2021-05-20T09:34:15Z</time>
      </trkpt>
      <trkpt lat="42.2071910" lon="-8.7488930">
        <ele>11.4</ele>
        <time>2021-05-20T09:34:16Z</time>
      </trkpt>
      <trkpt lat="42.2071960" lon="-8.7488820">
        <ele>11.4</ele>
        <time>2021-05-20T09:34:17Z</time>
      </trkpt>
      <trkpt lat="42.2071990" lon="-8.7488790">
        <ele>11.4</ele>
        <time>2021-05-20T09:34:18Z</time>
      </trkpt>
      <trkpt lat="42.2072180" lon="-8.7488720">
        <ele>11.4</ele>
        <time>2021-05-20T09:34:19Z</time>
      </trkpt>
      <trkpt lat="42.2072440" lon="-8.7488640">
        <ele>11.4</ele>
        <time>2021-05-20T09:34:20Z</time>
      </trkpt>
      <trkpt lat="42.2072510" lon="-8.7488590">
        <ele>11.4</ele>
        <time>2021-05-20T09:34:21Z</time>
      </trkpt>
      <trkpt lat="42.2072570" lon="-8.7488540">
        <ele>11.4</ele>
        <time>2021-05-20T09:34:22Z</time>
      </trkpt>
      <trkpt lat="42.2072770" lon="-8.7488420">
        <ele>11.4</ele>
        <time>2021-05-20T09:34:23Z</time>
      </trkpt>
      <trkpt lat="42.2072800" lon="-8.7488360">
        <ele>11.4</ele>
        <time>2021-05-20T09:34:24Z</time>
      </trkpt>
      <trkpt lat="42.2072840" lon="-8.7488300">
        <ele>11.5</ele>
        <time>2021-05-20T09:34:25Z</time>
      </trkpt>
      <trkpt lat="42.2072870" lon="-8.7488240">
        <ele>11.5</ele>
        <time>2021-05-20T09:34:26Z</time>
      </trkpt>
      <trkpt lat="42.2072870" lon="-8.7488200">
        <ele>11.5</ele>
        <time>2021-05-20T09:34:27Z</time>
      </trkpt>
      <trkpt lat="42.2073010" lon="-8.7488060">
        <ele>11.5</ele>
        <time>2021-05-20T09:34:28Z</time>
      </trkpt>
      <trkpt lat="42.2073100" lon="-8.7487960">
        <ele>11.5</ele>
        <time>2021-05-20T09:34:29Z</time>
      </trkpt>
      <trkpt lat="42.2073210" lon="-8.7487880">
        <ele>11.5</ele>
        <time>2021-05-20T09:34:30Z</time>
      </trkpt>
      <trkpt lat="42.2073320" lon="-8.7487820">
        <ele>11.5</ele>
        <time>2021-05-20T09:34:31Z</time>
      </trkpt>
      <trkpt lat="42.2073350" lon="-8.7487790">
        <ele>11.5</ele>
        <time>2021-05-20T09:34:32Z</time>
      </trkpt>
      <trkpt lat="42.2073470" lon="-8.7487760">
        <ele>11.5</ele>
        <time>2021-05-20T09:34:33Z</time>
      </trkpt>
      <trkpt lat="42.2073560" lon="-8.7487670">
        <ele>11.5</ele>
        <time>2021-05-20T09:34:34Z</time>
      </trkpt>
      <trkpt lat="42.2073680" lon="-8.7487610">
        <ele>11.5</ele>
        <time>2021-05-20T09:34:35Z</time>
      </trkpt>
      <trkpt lat="42.2073800" lon="-8.7487510">
        <ele>11.5</ele>
        <time>2021-05-20T09:34:36Z</time>
      </trkpt>
      <trkpt lat="42.2073950" lon="-8.7487430">
        <ele>11.5</ele>
        <time>2021-05-20T09:34:37Z</time>
      </trkpt>
      <trkpt lat="42.2074030" lon="-8.7487350">
        <ele>11.5</ele>
        <time>2021-05-20T09:34:38Z</time>
      </trkpt>
      <trkpt lat="42.2074120" lon="-8.7487230">
        <ele>11.5</ele>
        <time>2021-05-20T09:34:39Z</time>
      </trkpt>
      <trkpt lat="42.2074210" lon="-8.7487110">
        <ele>11.5</ele>
        <time>2021-05-20T09:34:40Z</time>
      </trkpt>
      <trkpt lat="42.2074350" lon="-8.7487010">
        <ele>11.5</ele>
        <time>2021-05-20T09:34:41Z</time>
      </trkpt>
      <trkpt lat="42.2074380" lon="-8.7486920">
        <ele>11.5</ele>
        <time>2021-05-20T09:34:42Z</time>
      </trkpt>
      <trkpt lat="42.2074480" lon="-8.7486860">
        <ele>11.5</ele>
        <time>2021-05-20T09:34:43Z</time>
      </trkpt>
      <trkpt lat="42.2074620" lon="-8.7486740">
        <ele>11.5</ele>
        <time>2021-05-20T09:34:44Z</time>
      </trkpt>
      <trkpt lat="42.2074700" lon="-8.7486660">
        <ele>11.5</ele>
        <time>2021-05-20T09:34:45Z</time>
      </trkpt>
      <trkpt lat="42.2074770" lon="-8.7486580">
        <ele>11.5</ele>
        <time>2021-05-20T09:34:46Z</time>
      </trkpt>
      <trkpt lat="42.2074810" lon="-8.7486540">
        <ele>11.5</ele>
        <time>2021-05-20T09:34:47Z</time>
      </trkpt>
      <trkpt lat="42.2074920" lon="-8.7486400">
        <ele>11.5</ele>
        <time>2021-05-20T09:34:48Z</time>
      </trkpt>
      <trkpt lat="42.2075010" lon="-8.7486270">
        <ele>11.5</ele>
        <time>2021-05-20T09:34:49Z</time>
      </trkpt>
      <trkpt lat="42.2075220" lon="-8.7486180">
        <ele>11.5</ele>
        <time>2021-05-20T09:34:50Z</time>
      </trkpt>
      <trkpt lat="42.2075300" lon="-8.7486150">
        <ele>11.5</ele>
        <time>2021-05-20T09:34:51Z</time>
      </trkpt>
      <trkpt lat="42.2075370" lon="-8.7486110">
        <ele>11.5</ele>
        <time>2021-05-20T09:34:52Z</time>
      </trkpt>
      <trkpt lat="42.2075570" lon="-8.7486010">
        <ele>11.5</ele>
        <time>2021-05-20T09:34:53Z</time>
      </trkpt>
      <trkpt lat="42.2075640" lon="-8.7485970">
        <ele>11.5</ele>
        <time>2021-05-20T09:34:54Z</time>
      </trkpt>
      <trkpt lat="42.2075720" lon="-8.7485930">
        <ele>11.5</ele>
        <time>2021-05-20T09:34:55Z</time>
      </trkpt>
      <trkpt lat="42.2075790" lon="-8.7485860">
        <ele>11.5</ele>
        <time>2021-05-20T09:34:56Z</time>
      </trkpt>
      <trkpt lat="42.2075910" lon="-8.7485760">
        <ele>11.5</ele>
        <time>2021-05-20T09:34:57Z</time>
      </trkpt>
      <trkpt lat="42.2075970" lon="-8.7485730">
        <ele>11.5</ele>
        <time>2021-05-20T09:34:58Z</time>
      </trkpt>
      <trkpt lat="42.2076130" lon="-8.7485650">
        <ele>11.5</ele>
        <time>2021-05-20T09:34:59Z</time>
      </trkpt>
      <trkpt lat="42.2076250" lon="-8.7485570">
        <ele>11.5</ele>
        <time>2021-05-20T09:35:00Z</time>
      </trkpt>
      <trkpt lat="42.2076430" lon="-8.7485480">
        <ele>11.5</ele>
        <time>2021-05-20T09:35:01Z</time>
      </trkpt>
      <trkpt lat="42.2076580" lon="-8.7485370">
        <ele>11.5</ele>
        <time>2021-05-20T09:35:02Z</time>
      </trkpt>
      <trkpt lat="42.2076690" lon="-8.7485310">
        <ele>11.5</ele>
        <time>2021-05-20T09:35:03Z</time>
      </trkpt>
      <trkpt lat="42.2076880" lon="-8.7485190">
        <ele>11.5</ele>
        <time>2021-05-20T09:35:04Z</time>
      </trkpt>
      <trkpt lat="42.2076960" lon="-8.7485090">
        <ele>11.5</ele>
        <time>2021-05-20T09:35:05Z</time>
      </trkpt>
      <trkpt lat="42.2077000" lon="-8.7485010">
        <ele>11.5</ele>
        <time>2021-05-20T09:35:06Z</time>
      </trkpt>
      <trkpt lat="42.2077130" lon="-8.7484980">
        <ele>11.5</ele>
        <time>2021-05-20T09:35:07Z</time>
      </trkpt>
      <trkpt lat="42.2077330" lon="-8.7484810">
        <ele>11.5</ele>
        <time>2021-05-20T09:35:08Z</time>
      </trkpt>
      <trkpt lat="42.2077400" lon="-8.7484730">
        <ele>11.5</ele>
        <time>2021-05-20T09:35:09Z</time>
      </trkpt>
      <trkpt lat="42.2077470" lon="-8.7484660">
        <ele>11.5</ele>
        <time>2021-05-20T09:35:10Z</time>
      </trkpt>
      <trkpt lat="42.2077680" lon="-8.7484520">
        <ele>11.5</ele>
        <time>2021-05-20T09:35:11Z</time>
      </trkpt>
      <trkpt lat="42.2077760" lon="-8.7484450">
        <ele>11.5</ele>
        <time>2021-05-20T09:35:12Z</time>
      </trkpt>
      <trkpt lat="42.2077850" lon="-8.7484390">
        <ele>11.5</ele>
        <time>2021-05-20T09:35:13Z</time>
      </trkpt>
      <trkpt lat="42.2078010" lon="-8.7484340">
        <ele>11.4</ele>
        <time>2021-05-20T09:35:14Z</time>
      </trkpt>
      <trkpt lat="42.2078100" lon="-8.7484320">
        <ele>11.4</ele>
        <time>2021-05-20T09:35:15Z</time>
      </trkpt>
      <trkpt lat="42.2078170" lon="-8.7484240">
        <ele>11.4</ele>
        <time>2021-05-20T09:35:16Z</time>
      </trkpt>
      <trkpt lat="42.2078230" lon="-8.7484170">
        <ele>11.4</ele>
        <time>2021-05-20T09:35:17Z</time>
      </trkpt>
      <trkpt lat="42.2078360" lon="-8.7484050">
        <ele>11.4</ele>
        <time>2021-05-20T09:35:18Z</time>
      </trkpt>
      <trkpt lat="42.2078430" lon="-8.7484020">
        <ele>11.4</ele>
        <time>2021-05-20T09:35:19Z</time>
      </trkpt>
      <trkpt lat="42.2078520" lon="-8.7483920">
        <ele>11.4</ele>
        <time>2021-05-20T09:35:20Z</time>
      </trkpt>
      <trkpt lat="42.2078620" lon="-8.7483870">
        <ele>11.4</ele>
        <time>2021-05-20T09:35:21Z</time>
      </trkpt>
      <trkpt lat="42.2078740" lon="-8.7483790">
        <ele>11.3</ele>
        <time>2021-05-20T09:35:22Z</time>
      </trkpt>
      <trkpt lat="42.2078830" lon="-8.7483750">
        <ele>11.3</ele>
        <time>2021-05-20T09:35:23Z</time>
      </trkpt>
      <trkpt lat="42.2078890" lon="-8.7483670">
        <ele>11.3</ele>
        <time>2021-05-20T09:35:24Z</time>
      </trkpt>
      <trkpt lat="42.2079010" lon="-8.7483590">
        <ele>11.3</ele>
        <time>2021-05-20T09:35:25Z</time>
      </trkpt>
      <trkpt lat="42.2079050" lon="-8.7483550">
        <ele>11.3</ele>
        <time>2021-05-20T09:35:26Z</time>
      </trkpt>
      <trkpt lat="42.2079150" lon="-8.7483540">
        <ele>11.3</ele>
        <time>2021-05-20T09:35:27Z</time>
      </trkpt>
      <trkpt lat="42.2079330" lon="-8.7483470">
        <ele>11.3</ele>
        <time>2021-05-20T09:35:28Z</time>
      </trkpt>
      <trkpt lat="42.2079470" lon="-8.7483400">
        <ele>11.3</ele>
        <time>2021-05-20T09:35:29Z</time>
      </trkpt>
      <trkpt lat="42.2079490" lon="-8.7483300">
        <ele>11.2</ele>
        <time>2021-05-20T09:35:30Z</time>
      </trkpt>
      <trkpt lat="42.2079590" lon="-8.7483210">
        <ele>11.2</ele>
        <time>2021-05-20T09:35:31Z</time>
      </trkpt>
      <trkpt lat="42.2079680" lon="-8.7483200">
        <ele>11.2</ele>
        <time>2021-05-20T09:35:32Z</time>
      </trkpt>
      <trkpt lat="42.2079820" lon="-8.7483120">
        <ele>11.2</ele>
        <time>2021-05-20T09:35:33Z</time>
      </trkpt>
      <trkpt lat="42.2079890" lon="-8.7483000">
        <ele>11.2</ele>
        <time>2021-05-20T09:35:34Z</time>
      </trkpt>
      <trkpt lat="42.2080020" lon="-8.7482980">
        <ele>11.2</ele>
        <time>2021-05-20T09:35:35Z</time>
      </trkpt>
      <trkpt lat="42.2080140" lon="-8.7482860">
        <ele>11.2</ele>
        <time>2021-05-20T09:35:36Z</time>
      </trkpt>
      <trkpt lat="42.2080380" lon="-8.7482750">
        <ele>11.1</ele>
        <time>2021-05-20T09:35:37Z</time>
      </trkpt>
      <trkpt lat="42.2080460" lon="-8.7482710">
        <ele>11.1</ele>
        <time>2021-05-20T09:35:38Z</time>
      </trkpt>
      <trkpt lat="42.2080550" lon="-8.7482670">
        <ele>11.1</ele>
        <time>2021-05-20T09:35:39Z</time>
      </trkpt>
      <trkpt lat="42.2080670" lon="-8.7482570">
        <ele>11.1</ele>
        <time>2021-05-20T09:35:40Z</time>
      </trkpt>
      <trkpt lat="42.2080750" lon="-8.7482470">
        <ele>11.1</ele>
        <time>2021-05-20T09:35:41Z</time>
      </trkpt>
      <trkpt lat="42.2080840" lon="-8.7482450">
        <ele>11.1</ele>
        <time>2021-05-20T09:35:42Z</time>
      </trkpt>
      <trkpt lat="42.2080990" lon="-8.7482340">
        <ele>11.1</ele>
        <time>2021-05-20T09:35:43Z</time>
      </trkpt>
      <trkpt lat="42.2081110" lon="-8.7482280">
        <ele>11.1</ele>
        <time>2021-05-20T09:35:44Z</time>
      </trkpt>
      <trkpt lat="42.2081230" lon="-8.7482240">
        <ele>11.1</ele>
        <time>2021-05-20T09:35:45Z</time>
      </trkpt>
      <trkpt lat="42.2081430" lon="-8.7482130">
        <ele>11.1</ele>
        <time>2021-05-20T09:35:46Z</time>
      </trkpt>
      <trkpt lat="42.2081550" lon="-8.7482070">
        <ele>11.1</ele>
        <time>2021-05-20T09:35:47Z</time>
      </trkpt>
      <trkpt lat="42.2081740" lon="-8.7481980">
        <ele>11.1</ele>
        <time>2021-05-20T09:35:48Z</time>
      </trkpt>
      <trkpt lat="42.2081820" lon="-8.7481830">
        <ele>11.1</ele>
        <time>2021-05-20T09:35:49Z</time>
      </trkpt>
      <trkpt lat="42.2081920" lon="-8.7481770">
        <ele>11.1</ele>
        <time>2021-05-20T09:35:50Z</time>
      </trkpt>
      <trkpt lat="42.2082000" lon="-8.7481700">
        <ele>11.1</ele>
        <time>2021-05-20T09:35:51Z</time>
      </trkpt>
      <trkpt lat="42.2082180" lon="-8.7481560">
        <ele>11.1</ele>
        <time>2021-05-20T09:35:52Z</time>
      </trkpt>
      <trkpt lat="42.2082290" lon="-8.7481500">
        <ele>11.1</ele>
        <time>2021-05-20T09:35:53Z</time>
      </trkpt>
      <trkpt lat="42.2082470" lon="-8.7481340">
        <ele>11.1</ele>
        <time>2021-05-20T09:35:54Z</time>
      </trkpt>
      <trkpt lat="42.2082520" lon="-8.7481260">
        <ele>11.1</ele>
        <time>2021-05-20T09:35:55Z</time>
      </trkpt>
      <trkpt lat="42.2082580" lon="-8.7481190">
        <ele>11.1</ele>
        <time>2021-05-20T09:35:56Z</time>
      </trkpt>
      <trkpt lat="42.2082740" lon="-8.7481140">
        <ele>11.1</ele>
        <time>2021-05-20T09:35:57Z</time>
      </trkpt>
      <trkpt lat="42.2082790" lon="-8.7481090">
        <ele>11.1</ele>
        <time>2021-05-20T09:35:58Z</time>
      </trkpt>
      <trkpt lat="42.2082890" lon="-8.7480970">
        <ele>11.1</ele>
        <time>2021-05-20T09:35:59Z</time>
      </trkpt>
      <trkpt lat="42.2082920" lon="-8.7480860">
        <ele>11.1</ele>
        <time>2021-05-20T09:36:00Z</time>
      </trkpt>
      <trkpt lat="42.2083000" lon="-8.7480800">
        <ele>11.1</ele>
        <time>2021-05-20T09:36:01Z</time>
      </trkpt>
      <trkpt lat="42.2083120" lon="-8.7480750">
        <ele>11.1</ele>
        <time>2021-05-20T09:36:02Z</time>
      </trkpt>
      <trkpt lat="42.2083200" lon="-8.7480620">
        <ele>11.1</ele>
        <time>2021-05-20T09:36:03Z</time>
      </trkpt>
      <trkpt lat="42.2083230" lon="-8.7480510">
        <ele>11.1</ele>
        <time>2021-05-20T09:36:04Z</time>
      </trkpt>
      <trkpt lat="42.2083290" lon="-8.7480450">
        <ele>11.1</ele>
        <time>2021-05-20T09:36:05Z</time>
      </trkpt>
      <trkpt lat="42.2083380" lon="-8.7480400">
        <ele>11.1</ele>
        <time>2021-05-20T09:36:06Z</time>
      </trkpt>
      <trkpt lat="42.2083480" lon="-8.7480320">
        <ele>11.1</ele>
        <time>2021-05-20T09:36:07Z</time>
      </trkpt>
      <trkpt lat="42.2083580" lon="-8.7480250">
        <ele>11.1</ele>
        <time>2021-05-20T09:36:08Z</time>
      </trkpt>
      <trkpt lat="42.2083710" lon="-8.7480070">
        <ele>11.1</ele>
        <time>2021-05-20T09:36:09Z</time>
      </trkpt>
      <trkpt lat="42.2083840" lon="-8.7479950">
        <ele>11.1</ele>
        <time>2021-05-20T09:36:10Z</time>
      </trkpt>
      <trkpt lat="42.2083960" lon="-8.7479880">
        <ele>11.1</ele>
        <time>2021-05-20T09:36:11Z</time>
      </trkpt>
      <trkpt lat="42.2084060" lon="-8.7479830">
        <ele>11.1</ele>
        <time>2021-05-20T09:36:12Z</time>
      </trkpt>
      <trkpt lat="42.2084140" lon="-8.7479780">
        <ele>11.1</ele>
        <time>2021-05-20T09:36:13Z</time>
      </trkpt>
      <trkpt lat="42.2084340" lon="-8.7479690">
        <ele>11.1</ele>
        <time>2021-05-20T09:36:14Z</time>
      </trkpt>
      <trkpt lat="42.2084430" lon="-8.7479690">
        <ele>11.1</ele>
        <time>2021-05-20T09:36:15Z</time>
      </trkpt>
      <trkpt lat="42.2084530" lon="-8.7479690">
        <ele>11.1</ele>
        <time>2021-05-20T09:36:16Z</time>
      </trkpt>
      <trkpt lat="42.2084690" lon="-8.7479510">
        <ele>11.1</ele>
        <time>2021-05-20T09:36:17Z</time>
      </trkpt>
      <trkpt lat="42.2084780" lon="-8.7479420">
        <ele>11.1</ele>
        <time>2021-05-20T09:36:18Z</time>
      </trkpt>
      <trkpt lat="42.2084860" lon="-8.7479330">
        <ele>11.1</ele>
        <time>2021-05-20T09:36:19Z</time>
      </trkpt>
      <trkpt lat="42.2084940" lon="-8.7479290">
        <ele>11.1</ele>
        <time>2021-05-20T09:36:20Z</time>
      </trkpt>
      <trkpt lat="42.2085070" lon="-8.7479150">
        <ele>11.1</ele>
        <time>2021-05-20T09:36:21Z</time>
      </trkpt>
      <trkpt lat="42.2085160" lon="-8.7479130">
        <ele>11.1</ele>
        <time>2021-05-20T09:36:22Z</time>
      </trkpt>
      <trkpt lat="42.2085270" lon="-8.7478890">
        <ele>11.1</ele>
        <time>2021-05-20T09:36:23Z</time>
      </trkpt>
      <trkpt lat="42.2085270" lon="-8.7478790">
        <ele>11.1</ele>
        <time>2021-05-20T09:36:24Z</time>
      </trkpt>
      <trkpt lat="42.2085280" lon="-8.7478720">
        <ele>11.1</ele>
        <time>2021-05-20T09:36:25Z</time>
      </trkpt>
      <trkpt lat="42.2085330" lon="-8.7478630">
        <ele>11.1</ele>
        <time>2021-05-20T09:36:26Z</time>
      </trkpt>
      <trkpt lat="42.2085430" lon="-8.7478630">
        <ele>11.1</ele>
        <time>2021-05-20T09:36:27Z</time>
      </trkpt>
      <trkpt lat="42.2085560" lon="-8.7478590">
        <ele>11.1</ele>
        <time>2021-05-20T09:36:28Z</time>
      </trkpt>
      <trkpt lat="42.2085630" lon="-8.7478510">
        <ele>11.1</ele>
        <time>2021-05-20T09:36:29Z</time>
      </trkpt>
      <trkpt lat="42.2085730" lon="-8.7478390">
        <ele>11.2</ele>
        <time>2021-05-20T09:36:30Z</time>
      </trkpt>
      <trkpt lat="42.2085810" lon="-8.7478300">
        <ele>11.2</ele>
        <time>2021-05-20T09:36:31Z</time>
      </trkpt>
      <trkpt lat="42.2085970" lon="-8.7478200">
        <ele>11.2</ele>
        <time>2021-05-20T09:36:32Z</time>
      </trkpt>
      <trkpt lat="42.2086090" lon="-8.7478060">
        <ele>11.2</ele>
        <time>2021-05-20T09:36:33Z</time>
      </trkpt>
      <trkpt lat="42.2086200" lon="-8.7477870">
        <ele>11.2</ele>
        <time>2021-05-20T09:36:34Z</time>
      </trkpt>
      <trkpt lat="42.2086290" lon="-8.7477780">
        <ele>11.2</ele>
        <time>2021-05-20T09:36:35Z</time>
      </trkpt>
      <trkpt lat="42.2086390" lon="-8.7477700">
        <ele>11.2</ele>
        <time>2021-05-20T09:36:36Z</time>
      </trkpt>
      <trkpt lat="42.2086500" lon="-8.7477650">
        <ele>11.2</ele>
        <time>2021-05-20T09:36:37Z</time>
      </trkpt>
      <trkpt lat="42.2086440" lon="-8.7477710">
        <ele>11.2</ele>
        <time>2021-05-20T09:36:38Z</time>
      </trkpt>
      <trkpt lat="42.2086490" lon="-8.7477700">
        <ele>11.2</ele>
        <time>2021-05-20T09:36:39Z</time>
      </trkpt>
      <trkpt lat="42.2086550" lon="-8.7477810">
        <ele>11.2</ele>
        <time>2021-05-20T09:36:40Z</time>
      </trkpt>
      <trkpt lat="42.2086720" lon="-8.7477730">
        <ele>11.3</ele>
        <time>2021-05-20T09:36:41Z</time>
      </trkpt>
      <trkpt lat="42.2086860" lon="-8.7477600">
        <ele>11.3</ele>
        <time>2021-05-20T09:36:42Z</time>
      </trkpt>
      <trkpt lat="42.2086960" lon="-8.7477470">
        <ele>11.3</ele>
        <time>2021-05-20T09:36:43Z</time>
      </trkpt>
      <trkpt lat="42.2087110" lon="-8.7477360">
        <ele>11.3</ele>
        <time>2021-05-20T09:36:44Z</time>
      </trkpt>
      <trkpt lat="42.2087250" lon="-8.7477250">
        <ele>11.3</ele>
        <time>2021-05-20T09:36:45Z</time>
      </trkpt>
      <trkpt lat="42.2087390" lon="-8.7477100">
        <ele>11.3</ele>
        <time>2021-05-20T09:36:46Z</time>
      </trkpt>
      <trkpt lat="42.2087520" lon="-8.7477040">
        <ele>11.4</ele>
        <time>2021-05-20T09:36:47Z</time>
      </trkpt>
      <trkpt lat="42.2087580" lon="-8.7477020">
        <ele>11.4</ele>
        <time>2021-05-20T09:36:48Z</time>
      </trkpt>
      <trkpt lat="42.2087730" lon="-8.7477080">
        <ele>11.4</ele>
        <time>2021-05-20T09:36:49Z</time>
      </trkpt>
      <trkpt lat="42.2087840" lon="-8.7477060">
        <ele>11.4</ele>
        <time>2021-05-20T09:36:50Z</time>
      </trkpt>
      <trkpt lat="42.2088030" lon="-8.7477000">
        <ele>11.4</ele>
        <time>2021-05-20T09:36:51Z</time>
      </trkpt>
      <trkpt lat="42.2088120" lon="-8.7476950">
        <ele>11.4</ele>
        <time>2021-05-20T09:36:52Z</time>
      </trkpt>
      <trkpt lat="42.2088160" lon="-8.7476790">
        <ele>11.4</ele>
        <time>2021-05-20T09:36:53Z</time>
      </trkpt>
      <trkpt lat="42.2088210" lon="-8.7476590">
        <ele>11.5</ele>
        <time>2021-05-20T09:36:54Z</time>
      </trkpt>
      <trkpt lat="42.2088370" lon="-8.7476530">
        <ele>11.5</ele>
        <time>2021-05-20T09:36:55Z</time>
      </trkpt>
      <trkpt lat="42.2088480" lon="-8.7476350">
        <ele>11.5</ele>
        <time>2021-05-20T09:36:56Z</time>
      </trkpt>
      <trkpt lat="42.2088600" lon="-8.7476300">
        <ele>11.5</ele>
        <time>2021-05-20T09:36:57Z</time>
      </trkpt>
      <trkpt lat="42.2088630" lon="-8.7476250">
        <ele>11.5</ele>
        <time>2021-05-20T09:36:58Z</time>
      </trkpt>
      <trkpt lat="42.2088800" lon="-8.7476120">
        <ele>11.5</ele>
        <time>2021-05-20T09:36:59Z</time>
      </trkpt>
      <trkpt lat="42.2088960" lon="-8.7476030">
        <ele>11.6</ele>
        <time>2021-05-20T09:37:00Z</time>
      </trkpt>
      <trkpt lat="42.2089070" lon="-8.7475860">
        <ele>11.6</ele>
        <time>2021-05-20T09:37:01Z</time>
      </trkpt>
      <trkpt lat="42.2089150" lon="-8.7475590">
        <ele>11.6</ele>
        <time>2021-05-20T09:37:02Z</time>
      </trkpt>
      <trkpt lat="42.2089180" lon="-8.7475490">
        <ele>11.6</ele>
        <time>2021-05-20T09:37:03Z</time>
      </trkpt>
      <trkpt lat="42.2089220" lon="-8.7475390">
        <ele>11.7</ele>
        <time>2021-05-20T09:37:04Z</time>
      </trkpt>
      <trkpt lat="42.2089340" lon="-8.7475300">
        <ele>11.7</ele>
        <time>2021-05-20T09:37:05Z</time>
      </trkpt>
      <trkpt lat="42.2089450" lon="-8.7475150">
        <ele>11.7</ele>
        <time>2021-05-20T09:37:06Z</time>
      </trkpt>
      <trkpt lat="42.2089620" lon="-8.7475070">
        <ele>11.7</ele>
        <time>2021-05-20T09:37:07Z</time>
      </trkpt>
      <trkpt lat="42.2089740" lon="-8.7474970">
        <ele>11.8</ele>
        <time>2021-05-20T09:37:08Z</time>
      </trkpt>
      <trkpt lat="42.2089780" lon="-8.7474920">
        <ele>11.8</ele>
        <time>2021-05-20T09:37:09Z</time>
      </trkpt>
      <trkpt lat="42.2089890" lon="-8.7474790">
        <ele>11.8</ele>
        <time>2021-05-20T09:37:10Z</time>
      </trkpt>
      <trkpt lat="42.2089940" lon="-8.7474670">
        <ele>11.8</ele>
        <time>2021-05-20T09:37:11Z</time>
      </trkpt>
      <trkpt lat="42.2090120" lon="-8.7474480">
        <ele>11.8</ele>
        <time>2021-05-20T09:37:12Z</time>
      </trkpt>
      <trkpt lat="42.2090190" lon="-8.7474380">
        <ele>11.9</ele>
        <time>2021-05-20T09:37:13Z</time>
      </trkpt>
      <trkpt lat="42.2090250" lon="-8.7474290">
        <ele>11.9</ele>
        <time>2021-05-20T09:37:14Z</time>
      </trkpt>
      <trkpt lat="42.2090440" lon="-8.7474120">
        <ele>11.9</ele>
        <time>2021-05-20T09:37:15Z</time>
      </trkpt>
      <trkpt lat="42.2090510" lon="-8.7474060">
        <ele>11.9</ele>
        <time>2021-05-20T09:37:16Z</time>
      </trkpt>
      <trkpt lat="42.2090590" lon="-8.7473990">
        <ele>11.9</ele>
        <time>2021-05-20T09:37:17Z</time>
      </trkpt>
      <trkpt lat="42.2090800" lon="-8.7473750">
        <ele>12.0</ele>
        <time>2021-05-20T09:37:18Z</time>
      </trkpt>
      <trkpt lat="42.2090870" lon="-8.7473680">
        <ele>12.0</ele>
        <time>2021-05-20T09:37:19Z</time>
      </trkpt>
      <trkpt lat="42.2090950" lon="-8.7473630">
        <ele>12.0</ele>
        <time>2021-05-20T09:37:20Z</time>
      </trkpt>
      <trkpt lat="42.2091050" lon="-8.7473500">
        <ele>12.0</ele>
        <time>2021-05-20T09:37:21Z</time>
      </trkpt>
      <trkpt lat="42.2091140" lon="-8.7473360">
        <ele>12.1</ele>
        <time>2021-05-20T09:37:22Z</time>
      </trkpt>
      <trkpt lat="42.2091300" lon="-8.7473180">
        <ele>12.1</ele>
        <time>2021-05-20T09:37:23Z</time>
      </trkpt>
      <trkpt lat="42.2091380" lon="-8.7473120">
        <ele>12.1</ele>
        <time>2021-05-20T09:37:24Z</time>
      </trkpt>
      <trkpt lat="42.2091450" lon="-8.7473060">
        <ele>12.1</ele>
        <time>2021-05-20T09:37:25Z</time>
      </trkpt>
      <trkpt lat="42.2091570" lon="-8.7472910">
        <ele>12.1</ele>
        <time>2021-05-20T09:37:26Z</time>
      </trkpt>
      <trkpt lat="42.2091630" lon="-8.7472840">
        <ele>12.1</ele>
        <time>2021-05-20T09:37:27Z</time>
      </trkpt>
      <trkpt lat="42.2091650" lon="-8.7472740">
        <ele>12.1</ele>
        <time>2021-05-20T09:37:28Z</time>
      </trkpt>
      <trkpt lat="42.2091750" lon="-8.7472600">
        <ele>12.2</ele>
        <time>2021-05-20T09:37:29Z</time>
      </trkpt>
      <trkpt lat="42.2091770" lon="-8.7472500">
        <ele>12.2</ele>
        <time>2021-05-20T09:37:30Z</time>
      </trkpt>
      <trkpt lat="42.2091840" lon="-8.7472350">
        <ele>12.2</ele>
        <time>2021-05-20T09:37:31Z</time>
      </trkpt>
      <trkpt lat="42.2091970" lon="-8.7472140">
        <ele>12.2</ele>
        <time>2021-05-20T09:37:32Z</time>
      </trkpt>
      <trkpt lat="42.2092030" lon="-8.7472070">
        <ele>12.2</ele>
        <time>2021-05-20T09:37:33Z</time>
      </trkpt>
      <trkpt lat="42.2092100" lon="-8.7472000">
        <ele>12.2</ele>
        <time>2021-05-20T09:37:34Z</time>
      </trkpt>
      <trkpt lat="42.2092190" lon="-8.7471910">
        <ele>12.2</ele>
        <time>2021-05-20T09:37:35Z</time>
      </trkpt>
      <trkpt lat="42.2092260" lon="-8.7471820">
        <ele>12.2</ele>
        <time>2021-05-20T09:37:36Z</time>
      </trkpt>
      <trkpt lat="42.2092290" lon="-8.7471740">
        <ele>12.2</ele>
        <time>2021-05-20T09:37:37Z</time>
      </trkpt>
      <trkpt lat="42.2092330" lon="-8.7471640">
        <ele>12.2</ele>
        <time>2021-05-20T09:37:38Z</time>
      </trkpt>
      <trkpt lat="42.2092410" lon="-8.7471380">
        <ele>12.2</ele>
        <time>2021-05-20T09:37:39Z</time>
      </trkpt>
      <trkpt lat="42.2092460" lon="-8.7471260">
        <ele>12.2</ele>
        <time>2021-05-20T09:37:40Z</time>
      </trkpt>
      <trkpt lat="42.2092510" lon="-8.7471130">
        <ele>12.2</ele>
        <time>2021-05-20T09:37:41Z</time>
      </trkpt>
      <trkpt lat="42.2092550" lon="-8.7471020">
        <ele>12.2</ele>
        <time>2021-05-20T09:37:42Z</time>
      </trkpt>
      <trkpt lat="42.2092650" lon="-8.7470890">
        <ele>12.2</ele>
        <time>2021-05-20T09:37:43Z</time>
      </trkpt>
      <trkpt lat="42.2092710" lon="-8.7470780">
        <ele>12.2</ele>
        <time>2021-05-20T09:37:44Z</time>
      </trkpt>
      <trkpt lat="42.2092820" lon="-8.7470550">
        <ele>12.2</ele>
        <time>2021-05-20T09:37:45Z</time>
      </trkpt>
      <trkpt lat="42.2092900" lon="-8.7470430">
        <ele>12.2</ele>
        <time>2021-05-20T09:37:46Z</time>
      </trkpt>
      <trkpt lat="42.2092970" lon="-8.7470320">
        <ele>12.2</ele>
        <time>2021-05-20T09:37:47Z</time>
      </trkpt>
      <trkpt lat="42.2093070" lon="-8.7470180">
        <ele>12.1</ele>
        <time>2021-05-20T09:37:48Z</time>
      </trkpt>
      <trkpt lat="42.2093170" lon="-8.7470030">
        <ele>12.1</ele>
        <time>2021-05-20T09:37:49Z</time>
      </trkpt>
      <trkpt lat="42.2093280" lon="-8.7469890">
        <ele>12.1</ele>
        <time>2021-05-20T09:37:50Z</time>
      </trkpt>
      <trkpt lat="42.2093310" lon="-8.7469760">
        <ele>12.1</ele>
        <time>2021-05-20T09:37:51Z</time>
      </trkpt>
      <trkpt lat="42.2093390" lon="-8.7469670">
        <ele>12.1</ele>
        <time>2021-05-20T09:37:52Z</time>
      </trkpt>
      <trkpt lat="42.2093510" lon="-8.7469490">
        <ele>12.1</ele>
        <time>2021-05-20T09:37:53Z</time>
      </trkpt>
      <trkpt lat="42.2093530" lon="-8.7469300">
        <ele>12.1</ele>
        <time>2021-05-20T09:37:54Z</time>
      </trkpt>
      <trkpt lat="42.2093710" lon="-8.7469020">
        <ele>12.1</ele>
        <time>2021-05-20T09:37:55Z</time>
      </trkpt>
      <trkpt lat="42.2093790" lon="-8.7468950">
        <ele>12.1</ele>
        <time>2021-05-20T09:37:56Z</time>
      </trkpt>
      <trkpt lat="42.2093890" lon="-8.7468830">
        <ele>12.1</ele>
        <time>2021-05-20T09:37:57Z</time>
      </trkpt>
      <trkpt lat="42.2094030" lon="-8.7468670">
        <ele>12.1</ele>
        <time>2021-05-20T09:37:58Z</time>
      </trkpt>
      <trkpt lat="42.2094140" lon="-8.7468550">
        <ele>12.1</ele>
        <time>2021-05-20T09:37:59Z</time>
      </trkpt>
      <trkpt lat="42.2094280" lon="-8.7468400">
        <ele>12.1</ele>
        <time>2021-05-20T09:38:00Z</time>
      </trkpt>
      <trkpt lat="42.2094310" lon="-8.7468250">
        <ele>12.0</ele>
        <time>2021-05-20T09:38:01Z</time>
      </trkpt>
      <trkpt lat="42.2094400" lon="-8.7468030">
        <ele>12.0</ele>
        <time>2021-05-20T09:38:02Z</time>
      </trkpt>
      <trkpt lat="42.2094520" lon="-8.7467890">
        <ele>12.0</ele>
        <time>2021-05-20T09:38:03Z</time>
      </trkpt>
      <trkpt lat="42.2094600" lon="-8.7467730">
        <ele>12.0</ele>
        <time>2021-05-20T09:38:04Z</time>
      </trkpt>
      <trkpt lat="42.2094700" lon="-8.7467580">
        <ele>12.0</ele>
        <time>2021-05-20T09:38:05Z</time>
      </trkpt>
      <trkpt lat="42.2094870" lon="-8.7467420">
        <ele>12.0</ele>
        <time>2021-05-20T09:38:06Z</time>
      </trkpt>
      <trkpt lat="42.2094870" lon="-8.7467320">
        <ele>12.0</ele>
        <time>2021-05-20T09:38:07Z</time>
      </trkpt>
      <trkpt lat="42.2094960" lon="-8.7467210">
        <ele>12.0</ele>
        <time>2021-05-20T09:38:08Z</time>
      </trkpt>
      <trkpt lat="42.2095040" lon="-8.7467040">
        <ele>12.0</ele>
        <time>2021-05-20T09:38:09Z</time>
      </trkpt>
      <trkpt lat="42.2095110" lon="-8.7466820">
        <ele>12.0</ele>
        <time>2021-05-20T09:38:10Z</time>
      </trkpt>
      <trkpt lat="42.2095160" lon="-8.7466700">
        <ele>12.0</ele>
        <time>2021-05-20T09:38:11Z</time>
      </trkpt>
      <trkpt lat="42.2095210" lon="-8.7466570">
        <ele>12.0</ele>
        <time>2021-05-20T09:38:12Z</time>
      </trkpt>
      <trkpt lat="42.2095250" lon="-8.7466420">
        <ele>12.0</ele>
        <time>2021-05-20T09:38:13Z</time>
      </trkpt>
      <trkpt lat="42.2095270" lon="-8.7466310">
        <ele>12.0</ele>
        <time>2021-05-20T09:38:14Z</time>
      </trkpt>
      <trkpt lat="42.2095290" lon="-8.7466150">
        <ele>12.0</ele>
        <time>2021-05-20T09:38:15Z</time>
      </trkpt>
      <trkpt lat="42.2095390" lon="-8.7465980">
        <ele>12.0</ele>
        <time>2021-05-20T09:38:16Z</time>
      </trkpt>
      <trkpt lat="42.2095480" lon="-8.7465830">
        <ele>12.0</ele>
        <time>2021-05-20T09:38:17Z</time>
      </trkpt>
      <trkpt lat="42.2095530" lon="-8.7465680">
        <ele>12.0</ele>
        <time>2021-05-20T09:38:18Z</time>
      </trkpt>
      <trkpt lat="42.2095600" lon="-8.7465540">
        <ele>12.0</ele>
        <time>2021-05-20T09:38:19Z</time>
      </trkpt>
      <trkpt lat="42.2095620" lon="-8.7465420">
        <ele>12.0</ele>
        <time>2021-05-20T09:38:20Z</time>
      </trkpt>
      <trkpt lat="42.2095770" lon="-8.7465160">
        <ele>12.0</ele>
        <time>2021-05-20T09:38:21Z</time>
      </trkpt>
      <trkpt lat="42.2095810" lon="-8.7465030">
        <ele>12.0</ele>
        <time>2021-05-20T09:38:22Z</time>
      </trkpt>
      <trkpt lat="42.2095860" lon="-8.7464900">
        <ele>12.0</ele>
        <time>2021-05-20T09:38:23Z</time>
      </trkpt>
      <trkpt lat="42.2095880" lon="-8.7464780">
        <ele>12.0</ele>
        <time>2021-05-20T09:38:24Z</time>
      </trkpt>
      <trkpt lat="42.2095890" lon="-8.7464620">
        <ele>12.0</ele>
        <time>2021-05-20T09:38:25Z</time>
      </trkpt>
      <trkpt lat="42.2095900" lon="-8.7464470">
        <ele>12.0</ele>
        <time>2021-05-20T09:38:26Z</time>
      </trkpt>
      <trkpt lat="42.2095870" lon="-8.7464310">
        <ele>12.0</ele>
        <time>2021-05-20T09:38:27Z</time>
      </trkpt>
      <trkpt lat="42.2095920" lon="-8.7464100">
        <ele>12.1</ele>
        <time>2021-05-20T09:38:28Z</time>
      </trkpt>
      <trkpt lat="42.2095980" lon="-8.7463970">
        <ele>12.1</ele>
        <time>2021-05-20T09:38:29Z</time>
      </trkpt>
      <trkpt lat="42.2096000" lon="-8.7463800">
        <ele>12.1</ele>
        <time>2021-05-20T09:38:30Z</time>
      </trkpt>
      <trkpt lat="42.2096020" lon="-8.7463670">
        <ele>12.1</ele>
        <time>2021-05-20T09:38:31Z</time>
      </trkpt>
      <trkpt lat="42.2096120" lon="-8.7463520">
        <ele>12.1</ele>
        <time>2021-05-20T09:38:32Z</time>
      </trkpt>
      <trkpt lat="42.2096200" lon="-8.7463340">
        <ele>12.1</ele>
        <time>2021-05-20T09:38:33Z</time>
      </trkpt>
      <trkpt lat="42.2096250" lon="-8.7463100">
        <ele>12.1</ele>
        <time>2021-05-20T09:38:34Z</time>
      </trkpt>
      <trkpt lat="42.2096260" lon="-8.7462960">
        <ele>12.1</ele>
        <time>2021-05-20T09:38:35Z</time>
      </trkpt>
      <trkpt lat="42.2096270" lon="-8.7462830">
        <ele>12.1</ele>
        <time>2021-05-20T09:38:36Z</time>
      </trkpt>
      <trkpt lat="42.2096390" lon="-8.7462610">
        <ele>12.1</ele>
        <time>2021-05-20T09:38:37Z</time>
      </trkpt>
      <trkpt lat="42.2096420" lon="-8.7462490">
        <ele>12.1</ele>
        <time>2021-05-20T09:38:38Z</time>
      </trkpt>
      <trkpt lat="42.2096460" lon="-8.7462380">
        <ele>12.1</ele>
        <time>2021-05-20T09:38:39Z</time>
      </trkpt>
      <trkpt lat="42.2096540" lon="-8.7462230">
        <ele>12.1</ele>
        <time>2021-05-20T09:38:40Z</time>
      </trkpt>
      <trkpt lat="42.2096580" lon="-8.7462100">
        <ele>12.1</ele>
        <time>2021-05-20T09:38:41Z</time>
      </trkpt>
      <trkpt lat="42.2096630" lon="-8.7461960">
        <ele>12.1</ele>
        <time>2021-05-20T09:38:42Z</time>
      </trkpt>
      <trkpt lat="42.2096720" lon="-8.7461710">
        <ele>12.1</ele>
        <time>2021-05-20T09:38:43Z</time>
      </trkpt>
      <trkpt lat="42.2096790" lon="-8.7461630">
        <ele>12.1</ele>
        <time>2021-05-20T09:38:44Z</time>
      </trkpt>
      <trkpt lat="42.2096860" lon="-8.7461550">
        <ele>12.1</ele>
        <time>2021-05-20T09:38:45Z</time>
      </trkpt>
      <trkpt lat="42.2097100" lon="-8.7461300">
        <ele>12.1</ele>
        <time>2021-05-20T09:38:46Z</time>
      </trkpt>
      <trkpt lat="42.2097170" lon="-8.7461220">
        <ele>12.1</ele>
        <time>2021-05-20T09:38:47Z</time>
      </trkpt>
      <trkpt lat="42.2097250" lon="-8.7461070">
        <ele>12.1</ele>
        <time>2021-05-20T09:38:48Z</time>
      </trkpt>
      <trkpt lat="42.2097270" lon="-8.7460900">
        <ele>12.1</ele>
        <time>2021-05-20T09:38:49Z</time>
      </trkpt>
      <trkpt lat="42.2097250" lon="-8.7460750">
        <ele>12.2</ele>
        <time>2021-05-20T09:38:50Z</time>
      </trkpt>
      <trkpt lat="42.2097240" lon="-8.7460560">
        <ele>12.2</ele>
        <time>2021-05-20T09:38:51Z</time>
      </trkpt>
      <trkpt lat="42.2097230" lon="-8.7460360">
        <ele>12.2</ele>
        <time>2021-05-20T09:38:52Z</time>
      </trkpt>
      <trkpt lat="42.2097250" lon="-8.7460090">
        <ele>12.2</ele>
        <time>2021-05-20T09:38:53Z</time>
      </trkpt>
      <trkpt lat="42.2097280" lon="-8.7459940">
        <ele>12.2</ele>
        <time>2021-05-20T09:38:54Z</time>
      </trkpt>
      <trkpt lat="42.2097300" lon="-8.7459800">
        <ele>12.2</ele>
        <time>2021-05-20T09:38:55Z</time>
      </trkpt>
      <trkpt lat="42.2097310" lon="-8.7459630">
        <ele>12.2</ele>
        <time>2021-05-20T09:38:56Z</time>
      </trkpt>
      <trkpt lat="42.2097310" lon="-8.7459500">
        <ele>12.2</ele>
        <time>2021-05-20T09:38:57Z</time>
      </trkpt>
      <trkpt lat="42.2097350" lon="-8.7459330">
        <ele>12.2</ele>
        <time>2021-05-20T09:38:58Z</time>
      </trkpt>
      <trkpt lat="42.2097420" lon="-8.7459120">
        <ele>12.2</ele>
        <time>2021-05-20T09:38:59Z</time>
      </trkpt>
      <trkpt lat="42.2097530" lon="-8.7458940">
        <ele>12.1</ele>
        <time>2021-05-20T09:39:00Z</time>
      </trkpt>
      <trkpt lat="42.2097670" lon="-8.7458800">
        <ele>12.1</ele>
        <time>2021-05-20T09:39:01Z</time>
      </trkpt>
      <trkpt lat="42.2097730" lon="-8.7458600">
        <ele>12.1</ele>
        <time>2021-05-20T09:39:02Z</time>
      </trkpt>
      <trkpt lat="42.2097820" lon="-8.7458350">
        <ele>12.1</ele>
        <time>2021-05-20T09:39:03Z</time>
      </trkpt>
      <trkpt lat="42.2097860" lon="-8.7458230">
        <ele>12.1</ele>
        <time>2021-05-20T09:39:04Z</time>
      </trkpt>
      <trkpt lat="42.2097910" lon="-8.7458100">
        <ele>12.1</ele>
        <time>2021-05-20T09:39:05Z</time>
      </trkpt>
      <trkpt lat="42.2097870" lon="-8.7457890">
        <ele>12.1</ele>
        <time>2021-05-20T09:39:06Z</time>
      </trkpt>
      <trkpt lat="42.2097900" lon="-8.7457720">
        <ele>12.1</ele>
        <time>2021-05-20T09:39:07Z</time>
      </trkpt>
      <trkpt lat="42.2097960" lon="-8.7457420">
        <ele>12.1</ele>
        <time>2021-05-20T09:39:08Z</time>
      </trkpt>
      <trkpt lat="42.2097990" lon="-8.7457270">
        <ele>12.1</ele>
        <time>2021-05-20T09:39:09Z</time>
      </trkpt>
      <trkpt lat="42.2098010" lon="-8.7457130">
        <ele>12.1</ele>
        <time>2021-05-20T09:39:10Z</time>
      </trkpt>
      <trkpt lat="42.2098090" lon="-8.7456970">
        <ele>12.0</ele>
        <time>2021-05-20T09:39:11Z</time>
      </trkpt>
      <trkpt lat="42.2098110" lon="-8.7456790">
        <ele>12.0</ele>
        <time>2021-05-20T09:39:12Z</time>
      </trkpt>
      <trkpt lat="42.2098230" lon="-8.7456660">
        <ele>12.0</ele>
        <time>2021-05-20T09:39:13Z</time>
      </trkpt>
      <trkpt lat="42.2098230" lon="-8.7456440">
        <ele>12.0</ele>
        <time>2021-05-20T09:39:14Z</time>
      </trkpt>
      <trkpt lat="42.2098260" lon="-8.7456260">
        <ele>12.0</ele>
        <time>2021-05-20T09:39:15Z</time>
      </trkpt>
      <trkpt lat="42.2098290" lon="-8.7456110">
        <ele>12.0</ele>
        <time>2021-05-20T09:39:16Z</time>
      </trkpt>
      <trkpt lat="42.2098230" lon="-8.7455970">
        <ele>12.0</ele>
        <time>2021-05-20T09:39:17Z</time>
      </trkpt>
      <trkpt lat="42.2098360" lon="-8.7455800">
        <ele>12.0</ele>
        <time>2021-05-20T09:39:18Z</time>
      </trkpt>
      <trkpt lat="42.2098380" lon="-8.7455660">
        <ele>12.0</ele>
        <time>2021-05-20T09:39:19Z</time>
      </trkpt>
      <trkpt lat="42.2098450" lon="-8.7455460">
        <ele>12.0</ele>
        <time>2021-05-20T09:39:20Z</time>
      </trkpt>
      <trkpt lat="42.2098500" lon="-8.7455320">
        <ele>12.0</ele>
        <time>2021-05-20T09:39:21Z</time>
      </trkpt>
      <trkpt lat="42.2098590" lon="-8.7455040">
        <ele>12.0</ele>
        <time>2021-05-20T09:39:22Z</time>
      </trkpt>
      <trkpt lat="42.2098630" lon="-8.7454940">
        <ele>12.0</ele>
        <time>2021-05-20T09:39:23Z</time>
      </trkpt>
      <trkpt lat="42.2098660" lon="-8.7454840">
        <ele>12.0</ele>
        <time>2021-05-20T09:39:24Z</time>
      </trkpt>
      <trkpt lat="42.2098680" lon="-8.7454670">
        <ele>12.0</ele>
        <time>2021-05-20T09:39:25Z</time>
      </trkpt>
      <trkpt lat="42.2098700" lon="-8.7454530">
        <ele>12.0</ele>
        <time>2021-05-20T09:39:26Z</time>
      </trkpt>
      <trkpt lat="42.2098740" lon="-8.7454370">
        <ele>12.0</ele>
        <time>2021-05-20T09:39:27Z</time>
      </trkpt>
      <trkpt lat="42.2098760" lon="-8.7454090">
        <ele>11.9</ele>
        <time>2021-05-20T09:39:28Z</time>
      </trkpt>
      <trkpt lat="42.2098800" lon="-8.7453990">
        <ele>11.9</ele>
        <time>2021-05-20T09:39:29Z</time>
      </trkpt>
      <trkpt lat="42.2098850" lon="-8.7453880">
        <ele>11.9</ele>
        <time>2021-05-20T09:39:30Z</time>
      </trkpt>
      <trkpt lat="42.2098940" lon="-8.7453710">
        <ele>11.9</ele>
        <time>2021-05-20T09:39:31Z</time>
      </trkpt>
      <trkpt lat="42.2099110" lon="-8.7453570">
        <ele>11.9</ele>
        <time>2021-05-20T09:39:32Z</time>
      </trkpt>
      <trkpt lat="42.2099190" lon="-8.7453310">
        <ele>11.9</ele>
        <time>2021-05-20T09:39:33Z</time>
      </trkpt>
      <trkpt lat="42.2099250" lon="-8.7453200">
        <ele>11.9</ele>
        <time>2021-05-20T09:39:34Z</time>
      </trkpt>
      <trkpt lat="42.2099320" lon="-8.7453080">
        <ele>11.9</ele>
        <time>2021-05-20T09:39:35Z</time>
      </trkpt>
      <trkpt lat="42.2099370" lon="-8.7452850">
        <ele>11.9</ele>
        <time>2021-05-20T09:39:36Z</time>
      </trkpt>
      <trkpt lat="42.2099370" lon="-8.7452650">
        <ele>11.9</ele>
        <time>2021-05-20T09:39:37Z</time>
      </trkpt>
      <trkpt lat="42.2099440" lon="-8.7452420">
        <ele>11.9</ele>
        <time>2021-05-20T09:39:38Z</time>
      </trkpt>
      <trkpt lat="42.2099490" lon="-8.7452200">
        <ele>11.9</ele>
        <time>2021-05-20T09:39:39Z</time>
      </trkpt>
      <trkpt lat="42.2099450" lon="-8.7452000">
        <ele>11.9</ele>
        <time>2021-05-20T09:39:40Z</time>
      </trkpt>
      <trkpt lat="42.2099420" lon="-8.7451770">
        <ele>11.9</ele>
        <time>2021-05-20T09:39:41Z</time>
      </trkpt>
      <trkpt lat="42.2099390" lon="-8.7451630">
        <ele>11.9</ele>
        <time>2021-05-20T09:39:42Z</time>
      </trkpt>
      <trkpt lat="42.2099370" lon="-8.7451510">
        <ele>11.9</ele>
        <time>2021-05-20T09:39:43Z</time>
      </trkpt>
      <trkpt lat="42.2099360" lon="-8.7451330">
        <ele>11.9</ele>
        <time>2021-05-20T09:39:44Z</time>
      </trkpt>
      <trkpt lat="42.2099290" lon="-8.7451160">
        <ele>11.9</ele>
        <time>2021-05-20T09:39:45Z</time>
      </trkpt>
      <trkpt lat="42.2099330" lon="-8.7450970">
        <ele>11.9</ele>
        <time>2021-05-20T09:39:46Z</time>
      </trkpt>
      <trkpt lat="42.2099380" lon="-8.7450800">
        <ele>11.9</ele>
        <time>2021-05-20T09:39:47Z</time>
      </trkpt>
      <trkpt lat="42.2099420" lon="-8.7450590">
        <ele>11.9</ele>
        <time>2021-05-20T09:39:48Z</time>
      </trkpt>
      <trkpt lat="42.2099450" lon="-8.7450290">
        <ele>11.9</ele>
        <time>2021-05-20T09:39:49Z</time>
      </trkpt>
      <trkpt lat="42.2099440" lon="-8.7450180">
        <ele>11.9</ele>
        <time>2021-05-20T09:39:50Z</time>
      </trkpt>
      <trkpt lat="42.2099440" lon="-8.7450060">
        <ele>11.9</ele>
        <time>2021-05-20T09:39:51Z</time>
      </trkpt>
      <trkpt lat="42.2099470" lon="-8.7449830">
        <ele>11.9</ele>
        <time>2021-05-20T09:39:52Z</time>
      </trkpt>
      <trkpt lat="42.2099500" lon="-8.7449660">
        <ele>11.9</ele>
        <time>2021-05-20T09:39:53Z</time>
      </trkpt>
      <trkpt lat="42.2099460" lon="-8.7449480">
        <ele>11.9</ele>
        <time>2021-05-20T09:39:54Z</time>
      </trkpt>
      <trkpt lat="42.2099500" lon="-8.7449280">
        <ele>11.9</ele>
        <time>2021-05-20T09:39:55Z</time>
      </trkpt>
      <trkpt lat="42.2099520" lon="-8.7449140">
        <ele>11.9</ele>
        <time>2021-05-20T09:39:56Z</time>
      </trkpt>
      <trkpt lat="42.2099630" lon="-8.7448960">
        <ele>11.9</ele>
        <time>2021-05-20T09:39:57Z</time>
      </trkpt>
      <trkpt lat="42.2099670" lon="-8.7448790">
        <ele>11.8</ele>
        <time>2021-05-20T09:39:58Z</time>
      </trkpt>
      <trkpt lat="42.2099770" lon="-8.7448600">
        <ele>11.8</ele>
        <time>2021-05-20T09:39:59Z</time>
      </trkpt>
      <trkpt lat="42.2099820" lon="-8.7448420">
        <ele>11.8</ele>
        <time>2021-05-20T09:40:00Z</time>
      </trkpt>
      <trkpt lat="42.2099900" lon="-8.7448230">
        <ele>11.8</ele>
        <time>2021-05-20T09:40:01Z</time>
      </trkpt>
      <trkpt lat="42.2099950" lon="-8.7448040">
        <ele>11.8</ele>
        <time>2021-05-20T09:40:02Z</time>
      </trkpt>
      <trkpt lat="42.2100060" lon="-8.7447890">
        <ele>11.8</ele>
        <time>2021-05-20T09:40:03Z</time>
      </trkpt>
      <trkpt lat="42.2100160" lon="-8.7447670">
        <ele>11.8</ele>
        <time>2021-05-20T09:40:04Z</time>
      </trkpt>
      <trkpt lat="42.2100190" lon="-8.7447550">
        <ele>11.8</ele>
        <time>2021-05-20T09:40:05Z</time>
      </trkpt>
      <trkpt lat="42.2100220" lon="-8.7447420">
        <ele>11.8</ele>
        <time>2021-05-20T09:40:06Z</time>
      </trkpt>
      <trkpt lat="42.2100320" lon="-8.7447190">
        <ele>11.8</ele>
        <time>2021-05-20T09:40:07Z</time>
      </trkpt>
      <trkpt lat="42.2100380" lon="-8.7447090">
        <ele>11.8</ele>
        <time>2021-05-20T09:40:08Z</time>
      </trkpt>
      <trkpt lat="42.2100450" lon="-8.7446990">
        <ele>11.8</ele>
        <time>2021-05-20T09:40:09Z</time>
      </trkpt>
      <trkpt lat="42.2100570" lon="-8.7446760">
        <ele>11.8</ele>
        <time>2021-05-20T09:40:10Z</time>
      </trkpt>
      <trkpt lat="42.2100610" lon="-8.7446670">
        <ele>11.8</ele>
        <time>2021-05-20T09:40:11Z</time>
      </trkpt>
      <trkpt lat="42.2100650" lon="-8.7446590">
        <ele>11.8</ele>
        <time>2021-05-20T09:40:12Z</time>
      </trkpt>
      <trkpt lat="42.2100770" lon="-8.7446470">
        <ele>11.8</ele>
        <time>2021-05-20T09:40:13Z</time>
      </trkpt>
      <trkpt lat="42.2100820" lon="-8.7446330">
        <ele>11.8</ele>
        <time>2021-05-20T09:40:14Z</time>
      </trkpt>
      <trkpt lat="42.2100820" lon="-8.7446210">
        <ele>11.8</ele>
        <time>2021-05-20T09:40:15Z</time>
      </trkpt>
      <trkpt lat="42.2100840" lon="-8.7446010">
        <ele>11.8</ele>
        <time>2021-05-20T09:40:16Z</time>
      </trkpt>
      <trkpt lat="42.2100830" lon="-8.7445830">
        <ele>11.9</ele>
        <time>2021-05-20T09:40:17Z</time>
      </trkpt>
      <trkpt lat="42.2100770" lon="-8.7445550">
        <ele>11.9</ele>
        <time>2021-05-20T09:40:18Z</time>
      </trkpt>
      <trkpt lat="42.2100720" lon="-8.7445440">
        <ele>11.9</ele>
        <time>2021-05-20T09:40:19Z</time>
      </trkpt>
      <trkpt lat="42.2100680" lon="-8.7445330">
        <ele>11.9</ele>
        <time>2021-05-20T09:40:20Z</time>
      </trkpt>
      <trkpt lat="42.2100680" lon="-8.7445140">
        <ele>11.9</ele>
        <time>2021-05-20T09:40:21Z</time>
      </trkpt>
      <trkpt lat="42.2100650" lon="-8.7444910">
        <ele>11.9</ele>
        <time>2021-05-20T09:40:22Z</time>
      </trkpt>
      <trkpt lat="42.2100710" lon="-8.7444600">
        <ele>11.9</ele>
        <time>2021-05-20T09:40:23Z</time>
      </trkpt>
      <trkpt lat="42.2100740" lon="-8.7444520">
        <ele>11.9</ele>
        <time>2021-05-20T09:40:24Z</time>
      </trkpt>
      <trkpt lat="42.2100760" lon="-8.7444430">
        <ele>11.9</ele>
        <time>2021-05-20T09:40:25Z</time>
      </trkpt>
      <trkpt lat="42.2100810" lon="-8.7444200">
        <ele>12.0</ele>
        <time>2021-05-20T09:40:26Z</time>
      </trkpt>
      <trkpt lat="42.2100870" lon="-8.7444010">
        <ele>12.0</ele>
        <time>2021-05-20T09:40:27Z</time>
      </trkpt>
      <trkpt lat="42.2100910" lon="-8.7443730">
        <ele>12.0</ele>
        <time>2021-05-20T09:40:28Z</time>
      </trkpt>
      <trkpt lat="42.2100910" lon="-8.7443620">
        <ele>12.0</ele>
        <time>2021-05-20T09:40:29Z</time>
      </trkpt>
      <trkpt lat="42.2100920" lon="-8.7443500">
        <ele>12.0</ele>
        <time>2021-05-20T09:40:30Z</time>
      </trkpt>
      <trkpt lat="42.2100980" lon="-8.7443240">
        <ele>12.0</ele>
        <time>2021-05-20T09:40:31Z</time>
      </trkpt>
      <trkpt lat="42.2100970" lon="-8.7443080">
        <ele>12.0</ele>
        <time>2021-05-20T09:40:32Z</time>
      </trkpt>
      <trkpt lat="42.2101010" lon="-8.7442920">
        <ele>12.0</ele>
        <time>2021-05-20T09:40:33Z</time>
      </trkpt>
      <trkpt lat="42.2100990" lon="-8.7442790">
        <ele>12.0</ele>
        <time>2021-05-20T09:40:34Z</time>
      </trkpt>
      <trkpt lat="42.2100960" lon="-8.7442670">
        <ele>12.0</ele>
        <time>2021-05-20T09:40:35Z</time>
      </trkpt>
      <trkpt lat="42.2100940" lon="-8.7442440">
        <ele>12.0</ele>
        <time>2021-05-20T09:40:36Z</time>
      </trkpt>
      <trkpt lat="42.2100940" lon="-8.7442240">
        <ele>12.0</ele>
        <time>2021-05-20T09:40:37Z</time>
      </trkpt>
      <trkpt lat="42.2101010" lon="-8.7441960">
        <ele>12.0</ele>
        <time>2021-05-20T09:40:38Z</time>
      </trkpt>
      <trkpt lat="42.2101030" lon="-8.7441830">
        <ele>12.0</ele>
        <time>2021-05-20T09:40:39Z</time>
      </trkpt>
      <trkpt lat="42.2101050" lon="-8.7441710">
        <ele>12.0</ele>
        <time>2021-05-20T09:40:40Z</time>
      </trkpt>
      <trkpt lat="42.2101090" lon="-8.7441450">
        <ele>12.0</ele>
        <time>2021-05-20T09:40:41Z</time>
      </trkpt>
      <trkpt lat="42.2101110" lon="-8.7441340">
        <ele>12.0</ele>
        <time>2021-05-20T09:40:42Z</time>
      </trkpt>
      <trkpt lat="42.2101130" lon="-8.7441230">
        <ele>12.0</ele>
        <time>2021-05-20T09:40:43Z</time>
      </trkpt>
      <trkpt lat="42.2101200" lon="-8.7441030">
        <ele>12.1</ele>
        <time>2021-05-20T09:40:44Z</time>
      </trkpt>
      <trkpt lat="42.2101160" lon="-8.7440860">
        <ele>12.1</ele>
        <time>2021-05-20T09:40:45Z</time>
      </trkpt>
      <trkpt lat="42.2101090" lon="-8.7440720">
        <ele>12.1</ele>
        <time>2021-05-20T09:40:46Z</time>
      </trkpt>
      <trkpt lat="42.2101040" lon="-8.7440530">
        <ele>12.1</ele>
        <time>2021-05-20T09:40:47Z</time>
      </trkpt>
      <trkpt lat="42.2101120" lon="-8.7440240">
        <ele>12.1</ele>
        <time>2021-05-20T09:40:48Z</time>
      </trkpt>
      <trkpt lat="42.2101140" lon="-8.7440140">
        <ele>12.1</ele>
        <time>2021-05-20T09:40:49Z</time>
      </trkpt>
      <trkpt lat="42.2101160" lon="-8.7440030">
        <ele>12.1</ele>
        <time>2021-05-20T09:40:50Z</time>
      </trkpt>
      <trkpt lat="42.2101230" lon="-8.7439820">
        <ele>12.1</ele>
        <time>2021-05-20T09:40:51Z</time>
      </trkpt>
      <trkpt lat="42.2101220" lon="-8.7439560">
        <ele>12.1</ele>
        <time>2021-05-20T09:40:52Z</time>
      </trkpt>
      <trkpt lat="42.2101220" lon="-8.7439310">
        <ele>12.1</ele>
        <time>2021-05-20T09:40:53Z</time>
      </trkpt>
      <trkpt lat="42.2101210" lon="-8.7439190">
        <ele>12.1</ele>
        <time>2021-05-20T09:40:54Z</time>
      </trkpt>
      <trkpt lat="42.2101190" lon="-8.7439060">
        <ele>12.1</ele>
        <time>2021-05-20T09:40:55Z</time>
      </trkpt>
      <trkpt lat="42.2101160" lon="-8.7438840">
        <ele>12.1</ele>
        <time>2021-05-20T09:40:56Z</time>
      </trkpt>
      <trkpt lat="42.2101170" lon="-8.7438680">
        <ele>12.1</ele>
        <time>2021-05-20T09:40:57Z</time>
      </trkpt>
      <trkpt lat="42.2101200" lon="-8.7438450">
        <ele>12.1</ele>
        <time>2021-05-20T09:40:58Z</time>
      </trkpt>
      <trkpt lat="42.2101250" lon="-8.7438270">
        <ele>12.1</ele>
        <time>2021-05-20T09:40:59Z</time>
      </trkpt>
      <trkpt lat="42.2101260" lon="-8.7438040">
        <ele>12.1</ele>
        <time>2021-05-20T09:41:00Z</time>
      </trkpt>
      <trkpt lat="42.2101270" lon="-8.7437850">
        <ele>12.1</ele>
        <time>2021-05-20T09:41:01Z</time>
      </trkpt>
      <trkpt lat="42.2101300" lon="-8.7437690">
        <ele>12.1</ele>
        <time>2021-05-20T09:41:02Z</time>
      </trkpt>
      <trkpt lat="42.2101310" lon="-8.7437580">
        <ele>12.1</ele>
        <time>2021-05-20T09:41:03Z</time>
      </trkpt>
      <trkpt lat="42.2101370" lon="-8.7437410">
        <ele>12.1</ele>
        <time>2021-05-20T09:41:04Z</time>
      </trkpt>
      <trkpt lat="42.2101410" lon="-8.7437240">
        <ele>12.1</ele>
        <time>2021-05-20T09:41:05Z</time>
      </trkpt>
      <trkpt lat="42.2101450" lon="-8.7437030">
        <ele>12.1</ele>
        <time>2021-05-20T09:41:06Z</time>
      </trkpt>
      <trkpt lat="42.2101420" lon="-8.7436730">
        <ele>12.1</ele>
        <time>2021-05-20T09:41:07Z</time>
      </trkpt>
      <trkpt lat="42.2101420" lon="-8.7436640">
        <ele>12.1</ele>
        <time>2021-05-20T09:41:08Z</time>
      </trkpt>
      <trkpt lat="42.2101420" lon="-8.7436540">
        <ele>12.1</ele>
        <time>2021-05-20T09:41:09Z</time>
      </trkpt>
      <trkpt lat="42.2101430" lon="-8.7436240">
        <ele>12.1</ele>
        <time>2021-05-20T09:41:10Z</time>
      </trkpt>
      <trkpt lat="42.2101430" lon="-8.7436120">
        <ele>12.1</ele>
        <time>2021-05-20T09:41:11Z</time>
      </trkpt>
      <trkpt lat="42.2101420" lon="-8.7436010">
        <ele>12.1</ele>
        <time>2021-05-20T09:41:12Z</time>
      </trkpt>
      <trkpt lat="42.2101460" lon="-8.7435810">
        <ele>12.1</ele>
        <time>2021-05-20T09:41:13Z</time>
      </trkpt>
      <trkpt lat="42.2101490" lon="-8.7435650">
        <ele>12.1</ele>
        <time>2021-05-20T09:41:14Z</time>
      </trkpt>
      <trkpt lat="42.2101500" lon="-8.7435510">
        <ele>12.1</ele>
        <time>2021-05-20T09:41:15Z</time>
      </trkpt>
      <trkpt lat="42.2101570" lon="-8.7435300">
        <ele>12.1</ele>
        <time>2021-05-20T09:41:16Z</time>
      </trkpt>
      <trkpt lat="42.2101540" lon="-8.7435080">
        <ele>12.1</ele>
        <time>2021-05-20T09:41:17Z</time>
      </trkpt>
      <trkpt lat="42.2101560" lon="-8.7434910">
        <ele>12.0</ele>
        <time>2021-05-20T09:41:18Z</time>
      </trkpt>
      <trkpt lat="42.2101560" lon="-8.7434800">
        <ele>12.0</ele>
        <time>2021-05-20T09:41:19Z</time>
      </trkpt>
      <trkpt lat="42.2101580" lon="-8.7434620">
        <ele>12.0</ele>
        <time>2021-05-20T09:41:20Z</time>
      </trkpt>
      <trkpt lat="42.2101600" lon="-8.7434430">
        <ele>12.0</ele>
        <time>2021-05-20T09:41:21Z</time>
      </trkpt>
      <trkpt lat="42.2101590" lon="-8.7434260">
        <ele>12.0</ele>
        <time>2021-05-20T09:41:22Z</time>
      </trkpt>
      <trkpt lat="42.2101630" lon="-8.7434110">
        <ele>12.0</ele>
        <time>2021-05-20T09:41:23Z</time>
      </trkpt>
      <trkpt lat="42.2101660" lon="-8.7433950">
        <ele>12.0</ele>
        <time>2021-05-20T09:41:24Z</time>
      </trkpt>
      <trkpt lat="42.2101670" lon="-8.7433720">
        <ele>12.0</ele>
        <time>2021-05-20T09:41:25Z</time>
      </trkpt>
      <trkpt lat="42.2101730" lon="-8.7433580">
        <ele>12.0</ele>
        <time>2021-05-20T09:41:26Z</time>
      </trkpt>
      <trkpt lat="42.2101810" lon="-8.7433390">
        <ele>12.0</ele>
        <time>2021-05-20T09:41:27Z</time>
      </trkpt>
      <trkpt lat="42.2101790" lon="-8.7433220">
        <ele>12.0</ele>
        <time>2021-05-20T09:41:28Z</time>
      </trkpt>
      <trkpt lat="42.2101820" lon="-8.7433050">
        <ele>12.0</ele>
        <time>2021-05-20T09:41:29Z</time>
      </trkpt>
      <trkpt lat="42.2101850" lon="-8.7432850">
        <ele>12.0</ele>
        <time>2021-05-20T09:41:30Z</time>
      </trkpt>
      <trkpt lat="42.2101840" lon="-8.7432620">
        <ele>12.0</ele>
        <time>2021-05-20T09:41:31Z</time>
      </trkpt>
      <trkpt lat="42.2101930" lon="-8.7432410">
        <ele>12.0</ele>
        <time>2021-05-20T09:41:32Z</time>
      </trkpt>
      <trkpt lat="42.2101960" lon="-8.7432260">
        <ele>12.0</ele>
        <time>2021-05-20T09:41:33Z</time>
      </trkpt>
      <trkpt lat="42.2101980" lon="-8.7432040">
        <ele>12.0</ele>
        <time>2021-05-20T09:41:34Z</time>
      </trkpt>
      <trkpt lat="42.2102040" lon="-8.7431820">
        <ele>12.0</ele>
        <time>2021-05-20T09:41:35Z</time>
      </trkpt>
      <trkpt lat="42.2102080" lon="-8.7431660">
        <ele>12.0</ele>
        <time>2021-05-20T09:41:36Z</time>
      </trkpt>
      <trkpt lat="42.2102120" lon="-8.7431400">
        <ele>12.0</ele>
        <time>2021-05-20T09:41:37Z</time>
      </trkpt>
      <trkpt lat="42.2102140" lon="-8.7431280">
        <ele>12.0</ele>
        <time>2021-05-20T09:41:38Z</time>
      </trkpt>
      <trkpt lat="42.2102150" lon="-8.7431160">
        <ele>12.0</ele>
        <time>2021-05-20T09:41:39Z</time>
      </trkpt>
      <trkpt lat="42.2102150" lon="-8.7431050">
        <ele>12.0</ele>
        <time>2021-05-20T09:41:40Z</time>
      </trkpt>
      <trkpt lat="42.2102170" lon="-8.7430920">
        <ele>11.9</ele>
        <time>2021-05-20T09:41:41Z</time>
      </trkpt>
      <trkpt lat="42.2102230" lon="-8.7430670">
        <ele>11.9</ele>
        <time>2021-05-20T09:41:42Z</time>
      </trkpt>
      <trkpt lat="42.2102240" lon="-8.7430460">
        <ele>11.9</ele>
        <time>2021-05-20T09:41:43Z</time>
      </trkpt>
      <trkpt lat="42.2102290" lon="-8.7430270">
        <ele>11.9</ele>
        <time>2021-05-20T09:41:44Z</time>
      </trkpt>
      <trkpt lat="42.2102310" lon="-8.7430140">
        <ele>11.9</ele>
        <time>2021-05-20T09:41:45Z</time>
      </trkpt>
      <trkpt lat="42.2102310" lon="-8.7429930">
        <ele>11.9</ele>
        <time>2021-05-20T09:41:46Z</time>
      </trkpt>
      <trkpt lat="42.2102330" lon="-8.7429800">
        <ele>11.9</ele>
        <time>2021-05-20T09:41:47Z</time>
      </trkpt>
      <trkpt lat="42.2102350" lon="-8.7429590">
        <ele>11.9</ele>
        <time>2021-05-20T09:41:48Z</time>
      </trkpt>
      <trkpt lat="42.2102410" lon="-8.7429410">
        <ele>11.9</ele>
        <time>2021-05-20T09:41:49Z</time>
      </trkpt>
      <trkpt lat="42.2102460" lon="-8.7429140">
        <ele>11.9</ele>
        <time>2021-05-20T09:41:50Z</time>
      </trkpt>
      <trkpt lat="42.2102480" lon="-8.7429030">
        <ele>11.9</ele>
        <time>2021-05-20T09:41:51Z</time>
      </trkpt>
      <trkpt lat="42.2102500" lon="-8.7428910">
        <ele>11.9</ele>
        <time>2021-05-20T09:41:52Z</time>
      </trkpt>
      <trkpt lat="42.2102570" lon="-8.7428730">
        <ele>11.9</ele>
        <time>2021-05-20T09:41:53Z</time>
      </trkpt>
      <trkpt lat="42.2102570" lon="-8.7428610">
        <ele>11.9</ele>
        <time>2021-05-20T09:41:54Z</time>
      </trkpt>
      <trkpt lat="42.2102660" lon="-8.7428500">
        <ele>11.9</ele>
        <time>2021-05-20T09:41:55Z</time>
      </trkpt>
      <trkpt lat="42.2102700" lon="-8.7428350">
        <ele>11.9</ele>
        <time>2021-05-20T09:41:56Z</time>
      </trkpt>
      <trkpt lat="42.2102700" lon="-8.7428140">
        <ele>11.9</ele>
        <time>2021-05-20T09:41:57Z</time>
      </trkpt>
      <trkpt lat="42.2102710" lon="-8.7427920">
        <ele>12.0</ele>
        <time>2021-05-20T09:41:58Z</time>
      </trkpt>
      <trkpt lat="42.2102770" lon="-8.7427740">
        <ele>12.0</ele>
        <time>2021-05-20T09:41:59Z</time>
      </trkpt>
      <trkpt lat="42.2102800" lon="-8.7427570">
        <ele>12.0</ele>
        <time>2021-05-20T09:42:00Z</time>
      </trkpt>
      <trkpt lat="42.2102840" lon="-8.7427440">
        <ele>12.0</ele>
        <time>2021-05-20T09:42:01Z</time>
      </trkpt>
      <trkpt lat="42.2102860" lon="-8.7427330">
        <ele>12.0</ele>
        <time>2021-05-20T09:42:02Z</time>
      </trkpt>
      <trkpt lat="42.2102910" lon="-8.7427210">
        <ele>12.0</ele>
        <time>2021-05-20T09:42:03Z</time>
      </trkpt>
      <trkpt lat="42.2102960" lon="-8.7427030">
        <ele>12.0</ele>
        <time>2021-05-20T09:42:04Z</time>
      </trkpt>
      <trkpt lat="42.2103020" lon="-8.7426930">
        <ele>12.0</ele>
        <time>2021-05-20T09:42:05Z</time>
      </trkpt>
      <trkpt lat="42.2103170" lon="-8.7426700">
        <ele>12.0</ele>
        <time>2021-05-20T09:42:06Z</time>
      </trkpt>
      <trkpt lat="42.2103200" lon="-8.7426590">
        <ele>12.0</ele>
        <time>2021-05-20T09:42:07Z</time>
      </trkpt>
      <trkpt lat="42.2103230" lon="-8.7426490">
        <ele>12.0</ele>
        <time>2021-05-20T09:42:08Z</time>
      </trkpt>
      <trkpt lat="42.2103240" lon="-8.7426200">
        <ele>12.0</ele>
        <time>2021-05-20T09:42:09Z</time>
      </trkpt>
      <trkpt lat="42.2103270" lon="-8.7426080">
        <ele>12.0</ele>
        <time>2021-05-20T09:42:10Z</time>
      </trkpt>
      <trkpt lat="42.2103290" lon="-8.7425970">
        <ele>12.0</ele>
        <time>2021-05-20T09:42:11Z</time>
      </trkpt>
      <trkpt lat="42.2103330" lon="-8.7425780">
        <ele>12.0</ele>
        <time>2021-05-20T09:42:12Z</time>
      </trkpt>
      <trkpt lat="42.2103390" lon="-8.7425590">
        <ele>12.0</ele>
        <time>2021-05-20T09:42:13Z</time>
      </trkpt>
      <trkpt lat="42.2103390" lon="-8.7425390">
        <ele>12.0</ele>
        <time>2021-05-20T09:42:14Z</time>
      </trkpt>
      <trkpt lat="42.2103370" lon="-8.7425180">
        <ele>12.0</ele>
        <time>2021-05-20T09:42:15Z</time>
      </trkpt>
      <trkpt lat="42.2103400" lon="-8.7425050">
        <ele>12.1</ele>
        <time>2021-05-20T09:42:16Z</time>
      </trkpt>
      <trkpt lat="42.2103410" lon="-8.7424930">
        <ele>12.1</ele>
        <time>2021-05-20T09:42:17Z</time>
      </trkpt>
      <trkpt lat="42.2103500" lon="-8.7424760">
        <ele>12.1</ele>
        <time>2021-05-20T09:42:18Z</time>
      </trkpt>
      <trkpt lat="42.2103510" lon="-8.7424450">
        <ele>12.1</ele>
        <time>2021-05-20T09:42:19Z</time>
      </trkpt>
      <trkpt lat="42.2103500" lon="-8.7424310">
        <ele>12.1</ele>
        <time>2021-05-20T09:42:20Z</time>
      </trkpt>
      <trkpt lat="42.2103490" lon="-8.7424170">
        <ele>12.1</ele>
        <time>2021-05-20T09:42:21Z</time>
      </trkpt>
      <trkpt lat="42.2103400" lon="-8.7424060">
        <ele>12.1</ele>
        <time>2021-05-20T09:42:22Z</time>
      </trkpt>
      <trkpt lat="42.2103410" lon="-8.7423910">
        <ele>12.1</ele>
        <time>2021-05-20T09:42:23Z</time>
      </trkpt>
      <trkpt lat="42.2103520" lon="-8.7423800">
        <ele>12.1</ele>
        <time>2021-05-20T09:42:24Z</time>
      </trkpt>
      <trkpt lat="42.2103580" lon="-8.7423610">
        <ele>12.1</ele>
        <time>2021-05-20T09:42:25Z</time>
      </trkpt>
      <trkpt lat="42.2103600" lon="-8.7423390">
        <ele>12.0</ele>
        <time>2021-05-20T09:42:26Z</time>
      </trkpt>
      <trkpt lat="42.2103640" lon="-8.7423280">
        <ele>12.0</ele>
        <time>2021-05-20T09:42:27Z</time>
      </trkpt>
      <trkpt lat="42.2103710" lon="-8.7422960">
        <ele>12.0</ele>
        <time>2021-05-20T09:42:28Z</time>
      </trkpt>
      <trkpt lat="42.2103790" lon="-8.7422850">
        <ele>12.0</ele>
        <time>2021-05-20T09:42:29Z</time>
      </trkpt>
      <trkpt lat="42.2103830" lon="-8.7422710">
        <ele>12.0</ele>
        <time>2021-05-20T09:42:30Z</time>
      </trkpt>
      <trkpt lat="42.2103840" lon="-8.7422500">
        <ele>12.0</ele>
        <time>2021-05-20T09:42:31Z</time>
      </trkpt>
      <trkpt lat="42.2103850" lon="-8.7422160">
        <ele>12.0</ele>
        <time>2021-05-20T09:42:32Z</time>
      </trkpt>
      <trkpt lat="42.2103880" lon="-8.7422060">
        <ele>12.0</ele>
        <time>2021-05-20T09:42:33Z</time>
      </trkpt>
      <trkpt lat="42.2103910" lon="-8.7421950">
        <ele>12.0</ele>
        <time>2021-05-20T09:42:34Z</time>
      </trkpt>
      <trkpt lat="42.2104020" lon="-8.7421660">
        <ele>12.0</ele>
        <time>2021-05-20T09:42:35Z</time>
      </trkpt>
      <trkpt lat="42.2104060" lon="-8.7421510">
        <ele>12.0</ele>
        <time>2021-05-20T09:42:36Z</time>
      </trkpt>
      <trkpt lat="42.2104090" lon="-8.7421360">
        <ele>12.0</ele>
        <time>2021-05-20T09:42:37Z</time>
      </trkpt>
      <trkpt lat="42.2104170" lon="-8.7421170">
        <ele>12.0</ele>
        <time>2021-05-20T09:42:38Z</time>
      </trkpt>
      <trkpt lat="42.2104250" lon="-8.7420990">
        <ele>12.0</ele>
        <time>2021-05-20T09:42:39Z</time>
      </trkpt>
      <trkpt lat="42.2104300" lon="-8.7420730">
        <ele>12.0</ele>
        <time>2021-05-20T09:42:40Z</time>
      </trkpt>
      <trkpt lat="42.2104320" lon="-8.7420610">
        <ele>12.0</ele>
        <time>2021-05-20T09:42:41Z</time>
      </trkpt>
      <trkpt lat="42.2104340" lon="-8.7420480">
        <ele>11.9</ele>
        <time>2021-05-20T09:42:42Z</time>
      </trkpt>
      <trkpt lat="42.2104380" lon="-8.7420360">
        <ele>11.9</ele>
        <time>2021-05-20T09:42:43Z</time>
      </trkpt>
      <trkpt lat="42.2104400" lon="-8.7420220">
        <ele>11.9</ele>
        <time>2021-05-20T09:42:44Z</time>
      </trkpt>
      <trkpt lat="42.2104470" lon="-8.7420040">
        <ele>11.9</ele>
        <time>2021-05-20T09:42:45Z</time>
      </trkpt>
      <trkpt lat="42.2104530" lon="-8.7419860">
        <ele>11.9</ele>
        <time>2021-05-20T09:42:46Z</time>
      </trkpt>
      <trkpt lat="42.2104550" lon="-8.7419680">
        <ele>11.9</ele>
        <time>2021-05-20T09:42:47Z</time>
      </trkpt>
      <trkpt lat="42.2104590" lon="-8.7419520">
        <ele>11.9</ele>
        <time>2021-05-20T09:42:48Z</time>
      </trkpt>
      <trkpt lat="42.2104680" lon="-8.7419340">
        <ele>12.0</ele>
        <time>2021-05-20T09:42:49Z</time>
      </trkpt>
      <trkpt lat="42.2104660" lon="-8.7419280">
        <ele>12.0</ele>
        <time>2021-05-20T09:42:50Z</time>
      </trkpt>
      <trkpt lat="42.2104750" lon="-8.7419120">
        <ele>12.0</ele>
        <time>2021-05-20T09:42:51Z</time>
      </trkpt>
      <trkpt lat="42.2104780" lon="-8.7418980">
        <ele>12.0</ele>
        <time>2021-05-20T09:42:52Z</time>
      </trkpt>
      <trkpt lat="42.2104840" lon="-8.7418760">
        <ele>12.0</ele>
        <time>2021-05-20T09:42:53Z</time>
      </trkpt>
      <trkpt lat="42.2104800" lon="-8.7418560">
        <ele>12.0</ele>
        <time>2021-05-20T09:42:54Z</time>
      </trkpt>
      <trkpt lat="42.2104850" lon="-8.7418440">
        <ele>12.0</ele>
        <time>2021-05-20T09:42:55Z</time>
      </trkpt>
      <trkpt lat="42.2104840" lon="-8.7418290">
        <ele>12.0</ele>
        <time>2021-05-20T09:42:56Z</time>
      </trkpt>
      <trkpt lat="42.2104890" lon="-8.7418100">
        <ele>12.0</ele>
        <time>2021-05-20T09:42:57Z</time>
      </trkpt>
      <trkpt lat="42.2104970" lon="-8.7417950">
        <ele>12.0</ele>
        <time>2021-05-20T09:42:58Z</time>
      </trkpt>
      <trkpt lat="42.2105050" lon="-8.7417830">
        <ele>12.0</ele>
        <time>2021-05-20T09:42:59Z</time>
      </trkpt>
      <trkpt lat="42.2105010" lon="-8.7417710">
        <ele>12.0</ele>
        <time>2021-05-20T09:43:00Z</time>
      </trkpt>
      <trkpt lat="42.2105000" lon="-8.7417590">
        <ele>12.0</ele>
        <time>2021-05-20T09:43:01Z</time>
      </trkpt>
      <trkpt lat="42.2104970" lon="-8.7417460">
        <ele>12.0</ele>
        <time>2021-05-20T09:43:02Z</time>
      </trkpt>
      <trkpt lat="42.2105000" lon="-8.7417310">
        <ele>12.0</ele>
        <time>2021-05-20T09:43:03Z</time>
      </trkpt>
      <trkpt lat="42.2105090" lon="-8.7417040">
        <ele>12.0</ele>
        <time>2021-05-20T09:43:04Z</time>
      </trkpt>
      <trkpt lat="42.2105120" lon="-8.7416910">
        <ele>12.0</ele>
        <time>2021-05-20T09:43:05Z</time>
      </trkpt>
      <trkpt lat="42.2105160" lon="-8.7416790">
        <ele>12.0</ele>
        <time>2021-05-20T09:43:06Z</time>
      </trkpt>
      <trkpt lat="42.2105180" lon="-8.7416610">
        <ele>12.0</ele>
        <time>2021-05-20T09:43:07Z</time>
      </trkpt>
      <trkpt lat="42.2105210" lon="-8.7416380">
        <ele>12.1</ele>
        <time>2021-05-20T09:43:08Z</time>
      </trkpt>
      <trkpt lat="42.2105260" lon="-8.7416260">
        <ele>12.1</ele>
        <time>2021-05-20T09:43:09Z</time>
      </trkpt>
      <trkpt lat="42.2105280" lon="-8.7416020">
        <ele>12.1</ele>
        <time>2021-05-20T09:43:10Z</time>
      </trkpt>
      <trkpt lat="42.2105280" lon="-8.7415930">
        <ele>12.1</ele>
        <time>2021-05-20T09:43:11Z</time>
      </trkpt>
      <trkpt lat="42.2105380" lon="-8.7415800">
        <ele>12.1</ele>
        <time>2021-05-20T09:43:12Z</time>
      </trkpt>
      <trkpt lat="42.2105450" lon="-8.7415660">
        <ele>12.1</ele>
        <time>2021-05-20T09:43:13Z</time>
      </trkpt>
      <trkpt lat="42.2105560" lon="-8.7415460">
        <ele>12.1</ele>
        <time>2021-05-20T09:43:14Z</time>
      </trkpt>
      <trkpt lat="42.2105600" lon="-8.7415300">
        <ele>12.1</ele>
        <time>2021-05-20T09:43:15Z</time>
      </trkpt>
      <trkpt lat="42.2105590" lon="-8.7415110">
        <ele>12.1</ele>
        <time>2021-05-20T09:43:16Z</time>
      </trkpt>
      <trkpt lat="42.2105600" lon="-8.7414920">
        <ele>12.1</ele>
        <time>2021-05-20T09:43:17Z</time>
      </trkpt>
      <trkpt lat="42.2105630" lon="-8.7414720">
        <ele>12.1</ele>
        <time>2021-05-20T09:43:18Z</time>
      </trkpt>
      <trkpt lat="42.2105650" lon="-8.7414540">
        <ele>12.1</ele>
        <time>2021-05-20T09:43:19Z</time>
      </trkpt>
      <trkpt lat="42.2105700" lon="-8.7414350">
        <ele>12.2</ele>
        <time>2021-05-20T09:43:20Z</time>
      </trkpt>
      <trkpt lat="42.2105710" lon="-8.7414160">
        <ele>12.2</ele>
        <time>2021-05-20T09:43:21Z</time>
      </trkpt>
      <trkpt lat="42.2105830" lon="-8.7413910">
        <ele>12.2</ele>
        <time>2021-05-20T09:43:22Z</time>
      </trkpt>
      <trkpt lat="42.2105880" lon="-8.7413810">
        <ele>12.2</ele>
        <time>2021-05-20T09:43:23Z</time>
      </trkpt>
      <trkpt lat="42.2105940" lon="-8.7413710">
        <ele>12.2</ele>
        <time>2021-05-20T09:43:24Z</time>
      </trkpt>
      <trkpt lat="42.2105970" lon="-8.7413500">
        <ele>12.2</ele>
        <time>2021-05-20T09:43:25Z</time>
      </trkpt>
      <trkpt lat="42.2106050" lon="-8.7413330">
        <ele>12.2</ele>
        <time>2021-05-20T09:43:26Z</time>
      </trkpt>
      <trkpt lat="42.2106120" lon="-8.7413200">
        <ele>12.2</ele>
        <time>2021-05-20T09:43:27Z</time>
      </trkpt>
      <trkpt lat="42.2106230" lon="-8.7412950">
        <ele>12.2</ele>
        <time>2021-05-20T09:43:28Z</time>
      </trkpt>
      <trkpt lat="42.2106400" lon="-8.7412620">
        <ele>12.2</ele>
        <time>2021-05-20T09:43:29Z</time>
      </trkpt>
      <trkpt lat="42.2106410" lon="-8.7412510">
        <ele>12.3</ele>
        <time>2021-05-20T09:43:30Z</time>
      </trkpt>
      <trkpt lat="42.2106430" lon="-8.7412310">
        <ele>12.3</ele>
        <time>2021-05-20T09:43:31Z</time>
      </trkpt>
      <trkpt lat="42.2106460" lon="-8.7412140">
        <ele>12.3</ele>
        <time>2021-05-20T09:43:32Z</time>
      </trkpt>
      <trkpt lat="42.2106520" lon="-8.7411910">
        <ele>12.3</ele>
        <time>2021-05-20T09:43:33Z</time>
      </trkpt>
      <trkpt lat="42.2106560" lon="-8.7411710">
        <ele>12.3</ele>
        <time>2021-05-20T09:43:34Z</time>
      </trkpt>
      <trkpt lat="42.2106660" lon="-8.7411610">
        <ele>12.3</ele>
        <time>2021-05-20T09:43:35Z</time>
      </trkpt>
      <trkpt lat="42.2106710" lon="-8.7411490">
        <ele>12.3</ele>
        <time>2021-05-20T09:43:36Z</time>
      </trkpt>
      <trkpt lat="42.2106750" lon="-8.7411390">
        <ele>12.3</ele>
        <time>2021-05-20T09:43:37Z</time>
      </trkpt>
      <trkpt lat="42.2106860" lon="-8.7411160">
        <ele>12.3</ele>
        <time>2021-05-20T09:43:38Z</time>
      </trkpt>
      <trkpt lat="42.2106920" lon="-8.7411060">
        <ele>12.3</ele>
        <time>2021-05-20T09:43:39Z</time>
      </trkpt>
      <trkpt lat="42.2106970" lon="-8.7410970">
        <ele>12.4</ele>
        <time>2021-05-20T09:43:40Z</time>
      </trkpt>
      <trkpt lat="42.2107090" lon="-8.7410710">
        <ele>12.4</ele>
        <time>2021-05-20T09:43:41Z</time>
      </trkpt>
      <trkpt lat="42.2107110" lon="-8.7410610">
        <ele>12.4</ele>
        <time>2021-05-20T09:43:42Z</time>
      </trkpt>
      <trkpt lat="42.2107260" lon="-8.7410420">
        <ele>12.4</ele>
        <time>2021-05-20T09:43:43Z</time>
      </trkpt>
      <trkpt lat="42.2107330" lon="-8.7410320">
        <ele>12.4</ele>
        <time>2021-05-20T09:43:44Z</time>
      </trkpt>
      <trkpt lat="42.2107400" lon="-8.7410220">
        <ele>12.5</ele>
        <time>2021-05-20T09:43:45Z</time>
      </trkpt>
      <trkpt lat="42.2107510" lon="-8.7410130">
        <ele>12.5</ele>
        <time>2021-05-20T09:43:46Z</time>
      </trkpt>
      <trkpt lat="42.2107600" lon="-8.7409970">
        <ele>12.5</ele>
        <time>2021-05-20T09:43:47Z</time>
      </trkpt>
      <trkpt lat="42.2107680" lon="-8.7409820">
        <ele>12.5</ele>
        <time>2021-05-20T09:43:48Z</time>
      </trkpt>
      <trkpt lat="42.2107750" lon="-8.7409720">
        <ele>12.6</ele>
        <time>2021-05-20T09:43:49Z</time>
      </trkpt>
      <trkpt lat="42.2107810" lon="-8.7409580">
        <ele>12.6</ele>
        <time>2021-05-20T09:43:50Z</time>
      </trkpt>
      <trkpt lat="42.2108000" lon="-8.7409280">
        <ele>12.7</ele>
        <time>2021-05-20T09:43:51Z</time>
      </trkpt>
      <trkpt lat="42.2108070" lon="-8.7409150">
        <ele>12.7</ele>
        <time>2021-05-20T09:43:52Z</time>
      </trkpt>
      <trkpt lat="42.2108210" lon="-8.7408960">
        <ele>12.8</ele>
        <time>2021-05-20T09:43:53Z</time>
      </trkpt>
      <trkpt lat="42.2108220" lon="-8.7408780">
        <ele>12.8</ele>
        <time>2021-05-20T09:43:54Z</time>
      </trkpt>
      <trkpt lat="42.2108200" lon="-8.7408410">
        <ele>12.9</ele>
        <time>2021-05-20T09:43:55Z</time>
      </trkpt>
      <trkpt lat="42.2108240" lon="-8.7408270">
        <ele>13.0</ele>
        <time>2021-05-20T09:43:56Z</time>
      </trkpt>
      <trkpt lat="42.2108270" lon="-8.7408050">
        <ele>13.0</ele>
        <time>2021-05-20T09:43:57Z</time>
      </trkpt>
      <trkpt lat="42.2108340" lon="-8.7407900">
        <ele>13.1</ele>
        <time>2021-05-20T09:43:58Z</time>
      </trkpt>
      <trkpt lat="42.2108390" lon="-8.7407680">
        <ele>13.1</ele>
        <time>2021-05-20T09:43:59Z</time>
      </trkpt>
      <trkpt lat="42.2108440" lon="-8.7407530">
        <ele>13.2</ele>
        <time>2021-05-20T09:44:00Z</time>
      </trkpt>
      <trkpt lat="42.2108580" lon="-8.7407410">
        <ele>13.3</ele>
        <time>2021-05-20T09:44:01Z</time>
      </trkpt>
      <trkpt lat="42.2108670" lon="-8.7407270">
        <ele>13.3</ele>
        <time>2021-05-20T09:44:02Z</time>
      </trkpt>
      <trkpt lat="42.2108780" lon="-8.7407160">
        <ele>13.4</ele>
        <time>2021-05-20T09:44:03Z</time>
      </trkpt>
      <trkpt lat="42.2108890" lon="-8.7406940">
        <ele>13.5</ele>
        <time>2021-05-20T09:44:04Z</time>
      </trkpt>
      <trkpt lat="42.2108950" lon="-8.7406810">
        <ele>13.5</ele>
        <time>2021-05-20T09:44:05Z</time>
      </trkpt>
      <trkpt lat="42.2108960" lon="-8.7406720">
        <ele>13.5</ele>
        <time>2021-05-20T09:44:06Z</time>
      </trkpt>
      <trkpt lat="42.2109010" lon="-8.7406500">
        <ele>13.6</ele>
        <time>2021-05-20T09:44:07Z</time>
      </trkpt>
      <trkpt lat="42.2109070" lon="-8.7406330">
        <ele>13.6</ele>
        <time>2021-05-20T09:44:08Z</time>
      </trkpt>
      <trkpt lat="42.2109110" lon="-8.7406120">
        <ele>13.7</ele>
        <time>2021-05-20T09:44:09Z</time>
      </trkpt>
      <trkpt lat="42.2109240" lon="-8.7405910">
        <ele>13.7</ele>
        <time>2021-05-20T09:44:10Z</time>
      </trkpt>
      <trkpt lat="42.2109310" lon="-8.7405780">
        <ele>13.7</ele>
        <time>2021-05-20T09:44:11Z</time>
      </trkpt>
      <trkpt lat="42.2109400" lon="-8.7405620">
        <ele>13.7</ele>
        <time>2021-05-20T09:44:12Z</time>
      </trkpt>
      <trkpt lat="42.2109410" lon="-8.7405410">
        <ele>13.7</ele>
        <time>2021-05-20T09:44:13Z</time>
      </trkpt>
      <trkpt lat="42.2109370" lon="-8.7405080">
        <ele>13.8</ele>
        <time>2021-05-20T09:44:14Z</time>
      </trkpt>
      <trkpt lat="42.2109320" lon="-8.7404900">
        <ele>13.8</ele>
        <time>2021-05-20T09:44:15Z</time>
      </trkpt>
      <trkpt lat="42.2109200" lon="-8.7404520">
        <ele>13.9</ele>
        <time>2021-05-20T09:44:16Z</time>
      </trkpt>
      <trkpt lat="42.2109180" lon="-8.7404440">
        <ele>13.9</ele>
        <time>2021-05-20T09:44:17Z</time>
      </trkpt>
      <trkpt lat="42.2109230" lon="-8.7404210">
        <ele>13.9</ele>
        <time>2021-05-20T09:44:18Z</time>
      </trkpt>
      <trkpt lat="42.2109280" lon="-8.7404110">
        <ele>13.9</ele>
        <time>2021-05-20T09:44:19Z</time>
      </trkpt>
      <trkpt lat="42.2109320" lon="-8.7404000">
        <ele>13.9</ele>
        <time>2021-05-20T09:44:20Z</time>
      </trkpt>
      <trkpt lat="42.2109370" lon="-8.7403900">
        <ele>13.9</ele>
        <time>2021-05-20T09:44:21Z</time>
      </trkpt>
      <trkpt lat="42.2109410" lon="-8.7403790">
        <ele>13.9</ele>
        <time>2021-05-20T09:44:22Z</time>
      </trkpt>
      <trkpt lat="42.2109460" lon="-8.7403690">
        <ele>13.9</ele>
        <time>2021-05-20T09:44:23Z</time>
      </trkpt>
      <trkpt lat="42.2109500" lon="-8.7403580">
        <ele>13.9</ele>
        <time>2021-05-20T09:44:24Z</time>
      </trkpt>
      <trkpt lat="42.2109640" lon="-8.7403450">
        <ele>13.9</ele>
        <time>2021-05-20T09:44:25Z</time>
      </trkpt>
      <trkpt lat="42.2109720" lon="-8.7403350">
        <ele>13.9</ele>
        <time>2021-05-20T09:44:26Z</time>
      </trkpt>
      <trkpt lat="42.2109810" lon="-8.7403280">
        <ele>13.9</ele>
        <time>2021-05-20T09:44:27Z</time>
      </trkpt>
      <trkpt lat="42.2109860" lon="-8.7403160">
        <ele>13.9</ele>
        <time>2021-05-20T09:44:28Z</time>
      </trkpt>
      <trkpt lat="42.2109940" lon="-8.7403030">
        <ele>13.9</ele>
        <time>2021-05-20T09:44:29Z</time>
      </trkpt>
      <trkpt lat="42.2109940" lon="-8.7402980">
        <ele>13.9</ele>
        <time>2021-05-20T09:44:30Z</time>
      </trkpt>
      <trkpt lat="42.2109900" lon="-8.7402980">
        <ele>13.9</ele>
        <time>2021-05-20T09:44:31Z</time>
      </trkpt>
      <trkpt lat="42.2109890" lon="-8.7402990">
        <ele>13.9</ele>
        <time>2021-05-20T09:44:32Z</time>
      </trkpt>
      <trkpt lat="42.2109870" lon="-8.7403020">
        <ele>13.9</ele>
        <time>2021-05-20T09:44:33Z</time>
      </trkpt>
      <trkpt lat="42.2109860" lon="-8.7403070">
        <ele>13.9</ele>
        <time>2021-05-20T09:44:34Z</time>
      </trkpt>
      <trkpt lat="42.2109870" lon="-8.7403110">
        <ele>13.9</ele>
        <time>2021-05-20T09:44:35Z</time>
      </trkpt>
      <trkpt lat="42.2109840" lon="-8.7403200">
        <ele>13.9</ele>
        <time>2021-05-20T09:44:36Z</time>
      </trkpt>
      <trkpt lat="42.2109760" lon="-8.7403220">
        <ele>13.9</ele>
        <time>2021-05-20T09:44:37Z</time>
      </trkpt>
      <trkpt lat="42.2109730" lon="-8.7403250">
        <ele>13.9</ele>
        <time>2021-05-20T09:44:38Z</time>
      </trkpt>
      <trkpt lat="42.2109700" lon="-8.7403340">
        <ele>13.9</ele>
        <time>2021-05-20T09:44:39Z</time>
      </trkpt>
      <trkpt lat="42.2109700" lon="-8.7403340">
        <ele>13.9</ele>
        <time>2021-05-20T09:44:40Z</time>
      </trkpt>
      <trkpt lat="42.2109520" lon="-8.7403730">
        <ele>13.9</ele>
        <time>2021-05-20T09:44:41Z</time>
      </trkpt>
      <trkpt lat="42.2109500" lon="-8.7403730">
        <ele>13.9</ele>
        <time>2021-05-20T09:44:42Z</time>
      </trkpt>
      <trkpt lat="42.2109470" lon="-8.7403730">
        <ele>13.9</ele>
        <time>2021-05-20T09:44:43Z</time>
      </trkpt>
      <trkpt lat="42.2109440" lon="-8.7403730">
        <ele>13.9</ele>
        <time>2021-05-20T09:44:44Z</time>
      </trkpt>
      <trkpt lat="42.2109420" lon="-8.7403690">
        <ele>13.9</ele>
        <time>2021-05-20T09:44:45Z</time>
      </trkpt>
      <trkpt lat="42.2109400" lon="-8.7403720">
        <ele>13.9</ele>
        <time>2021-05-20T09:44:46Z</time>
      </trkpt>
      <trkpt lat="42.2109260" lon="-8.7403810">
        <ele>13.9</ele>
        <time>2021-05-20T09:44:47Z</time>
      </trkpt>
      <trkpt lat="42.2109210" lon="-8.7403890">
        <ele>13.9</ele>
        <time>2021-05-20T09:44:48Z</time>
      </trkpt>
      <trkpt lat="42.2109150" lon="-8.7404020">
        <ele>13.9</ele>
        <time>2021-05-20T09:44:49Z</time>
      </trkpt>
      <trkpt lat="42.2109150" lon="-8.7404000">
        <ele>13.9</ele>
        <time>2021-05-20T09:44:50Z</time>
      </trkpt>
      <trkpt lat="42.2109100" lon="-8.7404070">
        <ele>13.9</ele>
        <time>2021-05-20T09:44:51Z</time>
      </trkpt>
      <trkpt lat="42.2109050" lon="-8.7404170">
        <ele>13.9</ele>
        <time>2021-05-20T09:44:52Z</time>
      </trkpt>
      <trkpt lat="42.2109020" lon="-8.7404230">
        <ele>13.9</ele>
        <time>2021-05-20T09:44:53Z</time>
      </trkpt>
      <trkpt lat="42.2109000" lon="-8.7404280">
        <ele>13.9</ele>
        <time>2021-05-20T09:44:54Z</time>
      </trkpt>
      <trkpt lat="42.2108990" lon="-8.7404340">
        <ele>13.9</ele>
        <time>2021-05-20T09:44:55Z</time>
      </trkpt>
      <trkpt lat="42.2108960" lon="-8.7404430">
        <ele>13.9</ele>
        <time>2021-05-20T09:44:56Z</time>
      </trkpt>
      <trkpt lat="42.2108940" lon="-8.7404480">
        <ele>13.9</ele>
        <time>2021-05-20T09:44:57Z</time>
      </trkpt>
      <trkpt lat="42.2108940" lon="-8.7404510">
        <ele>13.9</ele>
        <time>2021-05-20T09:44:58Z</time>
      </trkpt>
      <trkpt lat="42.2108920" lon="-8.7404550">
        <ele>13.9</ele>
        <time>2021-05-20T09:44:59Z</time>
      </trkpt>
      <trkpt lat="42.2108910" lon="-8.7404610">
        <ele>13.9</ele>
        <time>2021-05-20T09:45:00Z</time>
      </trkpt>
      <trkpt lat="42.2108910" lon="-8.7404670">
        <ele>13.9</ele>
        <time>2021-05-20T09:45:01Z</time>
      </trkpt>
      <trkpt lat="42.2108930" lon="-8.7404740">
        <ele>13.9</ele>
        <time>2021-05-20T09:45:02Z</time>
      </trkpt>
      <trkpt lat="42.2108950" lon="-8.7404810">
        <ele>13.9</ele>
        <time>2021-05-20T09:45:04Z</time>
      </trkpt>
      <trkpt lat="42.2108990" lon="-8.7404840">
        <ele>13.9</ele>
        <time>2021-05-20T09:45:05Z</time>
      </trkpt>
      <trkpt lat="42.2109040" lon="-8.7404840">
        <ele>13.9</ele>
        <time>2021-05-20T09:45:06Z</time>
      </trkpt>
      <trkpt lat="42.2109030" lon="-8.7404890">
        <ele>13.9</ele>
        <time>2021-05-20T09:45:07Z</time>
      </trkpt>
      <trkpt lat="42.2109050" lon="-8.7404840">
        <ele>13.9</ele>
        <time>2021-05-20T09:45:08Z</time>
      </trkpt>
      <trkpt lat="42.2109050" lon="-8.7404780">
        <ele>13.9</ele>
        <time>2021-05-20T09:45:09Z</time>
      </trkpt>
      <trkpt lat="42.2109090" lon="-8.7404740">
        <ele>13.9</ele>
        <time>2021-05-20T09:45:10Z</time>
      </trkpt>
      <trkpt lat="42.2109070" lon="-8.7404700">
        <ele>13.9</ele>
        <time>2021-05-20T09:45:11Z</time>
      </trkpt>
      <trkpt lat="42.2109030" lon="-8.7404680">
        <ele>13.9</ele>
        <time>2021-05-20T09:45:12Z</time>
      </trkpt>
      <trkpt lat="42.2109020" lon="-8.7404720">
        <ele>13.9</ele>
        <time>2021-05-20T09:45:13Z</time>
      </trkpt>
      <trkpt lat="42.2109030" lon="-8.7404700">
        <ele>13.9</ele>
        <time>2021-05-20T09:45:14Z</time>
      </trkpt>
      <trkpt lat="42.2109020" lon="-8.7404620">
        <ele>13.9</ele>
        <time>2021-05-20T09:45:15Z</time>
      </trkpt>
      <trkpt lat="42.2108980" lon="-8.7404600">
        <ele>13.9</ele>
        <time>2021-05-20T09:45:16Z</time>
      </trkpt>
      <trkpt lat="42.2108930" lon="-8.7404630">
        <ele>13.9</ele>
        <time>2021-05-20T09:45:17Z</time>
      </trkpt>
      <trkpt lat="42.2108910" lon="-8.7404620">
        <ele>13.9</ele>
        <time>2021-05-20T09:45:18Z</time>
      </trkpt>
      <trkpt lat="42.2108910" lon="-8.7404550">
        <ele>13.9</ele>
        <time>2021-05-20T09:45:19Z</time>
      </trkpt>
      <trkpt lat="42.2108940" lon="-8.7404500">
        <ele>13.9</ele>
        <time>2021-05-20T09:45:20Z</time>
      </trkpt>
      <trkpt lat="42.2108950" lon="-8.7404480">
        <ele>13.9</ele>
        <time>2021-05-20T09:45:21Z</time>
      </trkpt>
      <trkpt lat="42.2108940" lon="-8.7404470">
        <ele>13.9</ele>
        <time>2021-05-20T09:45:22Z</time>
      </trkpt>
      <trkpt lat="42.2108940" lon="-8.7404430">
        <ele>13.9</ele>
        <time>2021-05-20T09:45:23Z</time>
      </trkpt>
      <trkpt lat="42.2108980" lon="-8.7404370">
        <ele>13.9</ele>
        <time>2021-05-20T09:45:24Z</time>
      </trkpt>
      <trkpt lat="42.2108900" lon="-8.7404370">
        <ele>13.9</ele>
        <time>2021-05-20T09:45:25Z</time>
      </trkpt>
      <trkpt lat="42.2108930" lon="-8.7404400">
        <ele>13.9</ele>
        <time>2021-05-20T09:45:26Z</time>
      </trkpt>
      <trkpt lat="42.2108990" lon="-8.7404380">
        <ele>13.9</ele>
        <time>2021-05-20T09:45:27Z</time>
      </trkpt>
      <trkpt lat="42.2109040" lon="-8.7404290">
        <ele>13.9</ele>
        <time>2021-05-20T09:45:28Z</time>
      </trkpt>
      <trkpt lat="42.2109110" lon="-8.7404220">
        <ele>13.9</ele>
        <time>2021-05-20T09:45:29Z</time>
      </trkpt>
      <trkpt lat="42.2109140" lon="-8.7404220">
        <ele>13.9</ele>
        <time>2021-05-20T09:45:30Z</time>
      </trkpt>
      <trkpt lat="42.2109130" lon="-8.7404190">
        <ele>13.9</ele>
        <time>2021-05-20T09:45:31Z</time>
      </trkpt>
      <trkpt lat="42.2109140" lon="-8.7404150">
        <ele>13.9</ele>
        <time>2021-05-20T09:45:32Z</time>
      </trkpt>
      <trkpt lat="42.2109130" lon="-8.7404070">
        <ele>13.9</ele>
        <time>2021-05-20T09:45:33Z</time>
      </trkpt>
      <trkpt lat="42.2109170" lon="-8.7404010">
        <ele>13.9</ele>
        <time>2021-05-20T09:45:34Z</time>
      </trkpt>
      <trkpt lat="42.2109320" lon="-8.7403860">
        <ele>13.9</ele>
        <time>2021-05-20T09:45:35Z</time>
      </trkpt>
      <trkpt lat="42.2109370" lon="-8.7403660">
        <ele>13.9</ele>
        <time>2021-05-20T09:45:36Z</time>
      </trkpt>
      <trkpt lat="42.2109410" lon="-8.7403560">
        <ele>13.9</ele>
        <time>2021-05-20T09:45:37Z</time>
      </trkpt>
      <trkpt lat="42.2109370" lon="-8.7403570">
        <ele>13.9</ele>
        <time>2021-05-20T09:45:38Z</time>
      </trkpt>
      <trkpt lat="42.2109370" lon="-8.7403570">
        <ele>13.9</ele>
        <time>2021-05-20T09:45:39Z</time>
      </trkpt>
      <trkpt lat="42.2109340" lon="-8.7403590">
        <ele>13.9</ele>
        <time>2021-05-20T09:45:40Z</time>
      </trkpt>
      <trkpt lat="42.2109330" lon="-8.7403540">
        <ele>13.9</ele>
        <time>2021-05-20T09:45:41Z</time>
      </trkpt>
      <trkpt lat="42.2109290" lon="-8.7403520">
        <ele>13.9</ele>
        <time>2021-05-20T09:45:42Z</time>
      </trkpt>
      <trkpt lat="42.2109260" lon="-8.7403510">
        <ele>13.9</ele>
        <time>2021-05-20T09:45:43Z</time>
      </trkpt>
      <trkpt lat="42.2109240" lon="-8.7403470">
        <ele>13.9</ele>
        <time>2021-05-20T09:45:44Z</time>
      </trkpt>
      <trkpt lat="42.2109220" lon="-8.7403480">
        <ele>13.9</ele>
        <time>2021-05-20T09:45:45Z</time>
      </trkpt>
      <trkpt lat="42.2109200" lon="-8.7403510">
        <ele>13.9</ele>
        <time>2021-05-20T09:45:46Z</time>
      </trkpt>
      <trkpt lat="42.2109150" lon="-8.7403520">
        <ele>13.9</ele>
        <time>2021-05-20T09:45:47Z</time>
      </trkpt>
      <trkpt lat="42.2109110" lon="-8.7403560">
        <ele>13.9</ele>
        <time>2021-05-20T09:45:48Z</time>
      </trkpt>
      <trkpt lat="42.2109070" lon="-8.7403640">
        <ele>13.9</ele>
        <time>2021-05-20T09:45:49Z</time>
      </trkpt>
      <trkpt lat="42.2109000" lon="-8.7403610">
        <ele>13.9</ele>
        <time>2021-05-20T09:45:50Z</time>
      </trkpt>
      <trkpt lat="42.2108980" lon="-8.7403640">
        <ele>13.9</ele>
        <time>2021-05-20T09:45:51Z</time>
      </trkpt>
      <trkpt lat="42.2108950" lon="-8.7403690">
        <ele>13.9</ele>
        <time>2021-05-20T09:45:52Z</time>
      </trkpt>
      <trkpt lat="42.2108940" lon="-8.7403650">
        <ele>13.9</ele>
        <time>2021-05-20T09:45:53Z</time>
      </trkpt>
      <trkpt lat="42.2108930" lon="-8.7403610">
        <ele>13.9</ele>
        <time>2021-05-20T09:45:54Z</time>
      </trkpt>
      <trkpt lat="42.2108920" lon="-8.7403590">
        <ele>13.9</ele>
        <time>2021-05-20T09:45:55Z</time>
      </trkpt>
      <trkpt lat="42.2108940" lon="-8.7403560">
        <ele>13.9</ele>
        <time>2021-05-20T09:45:56Z</time>
      </trkpt>
      <trkpt lat="42.2108970" lon="-8.7403560">
        <ele>13.9</ele>
        <time>2021-05-20T09:45:57Z</time>
      </trkpt>
      <trkpt lat="42.2109010" lon="-8.7403570">
        <ele>13.9</ele>
        <time>2021-05-20T09:45:58Z</time>
      </trkpt>
      <trkpt lat="42.2109020" lon="-8.7403530">
        <ele>13.9</ele>
        <time>2021-05-20T09:45:59Z</time>
      </trkpt>
      <trkpt lat="42.2109020" lon="-8.7403540">
        <ele>13.9</ele>
        <time>2021-05-20T09:46:00Z</time>
      </trkpt>
      <trkpt lat="42.2109000" lon="-8.7403580">
        <ele>13.9</ele>
        <time>2021-05-20T09:46:01Z</time>
      </trkpt>
      <trkpt lat="42.2109010" lon="-8.7403600">
        <ele>13.9</ele>
        <time>2021-05-20T09:46:02Z</time>
      </trkpt>
      <trkpt lat="42.2109020" lon="-8.7403630">
        <ele>13.9</ele>
        <time>2021-05-20T09:46:03Z</time>
      </trkpt>
      <trkpt lat="42.2109050" lon="-8.7403600">
        <ele>13.9</ele>
        <time>2021-05-20T09:46:04Z</time>
      </trkpt>
      <trkpt lat="42.2109070" lon="-8.7403640">
        <ele>13.9</ele>
        <time>2021-05-20T09:46:05Z</time>
      </trkpt>
      <trkpt lat="42.2109100" lon="-8.7403630">
        <ele>13.9</ele>
        <time>2021-05-20T09:46:06Z</time>
      </trkpt>
      <trkpt lat="42.2109110" lon="-8.7403630">
        <ele>13.9</ele>
        <time>2021-05-20T09:46:07Z</time>
      </trkpt>
      <trkpt lat="42.2109120" lon="-8.7403640">
        <ele>13.9</ele>
        <time>2021-05-20T09:46:08Z</time>
      </trkpt>
      <trkpt lat="42.2109120" lon="-8.7403670">
        <ele>13.9</ele>
        <time>2021-05-20T09:46:09Z</time>
      </trkpt>
      <trkpt lat="42.2109150" lon="-8.7403660">
        <ele>13.9</ele>
        <time>2021-05-20T09:46:10Z</time>
      </trkpt>
      <trkpt lat="42.2109150" lon="-8.7403660">
        <ele>13.9</ele>
        <time>2021-05-20T09:46:11Z</time>
      </trkpt>
      <trkpt lat="42.2109210" lon="-8.7403720">
        <ele>13.9</ele>
        <time>2021-05-20T09:46:12Z</time>
      </trkpt>
      <trkpt lat="42.2109250" lon="-8.7403740">
        <ele>13.9</ele>
        <time>2021-05-20T09:46:13Z</time>
      </trkpt>
      <trkpt lat="42.2109270" lon="-8.7403760">
        <ele>13.9</ele>
        <time>2021-05-20T09:46:14Z</time>
      </trkpt>
      <trkpt lat="42.2109300" lon="-8.7403750">
        <ele>13.9</ele>
        <time>2021-05-20T09:46:15Z</time>
      </trkpt>
      <trkpt lat="42.2109320" lon="-8.7403800">
        <ele>13.9</ele>
        <time>2021-05-20T09:46:16Z</time>
      </trkpt>
      <trkpt lat="42.2109350" lon="-8.7403820">
        <ele>13.9</ele>
        <time>2021-05-20T09:46:17Z</time>
      </trkpt>
      <trkpt lat="42.2109350" lon="-8.7403870">
        <ele>13.9</ele>
        <time>2021-05-20T09:46:18Z</time>
      </trkpt>
      <trkpt lat="42.2109360" lon="-8.7403910">
        <ele>13.9</ele>
        <time>2021-05-20T09:46:19Z</time>
      </trkpt>
      <trkpt lat="42.2109390" lon="-8.7403930">
        <ele>13.9</ele>
        <time>2021-05-20T09:46:20Z</time>
      </trkpt>
      <trkpt lat="42.2109420" lon="-8.7403940">
        <ele>13.9</ele>
        <time>2021-05-20T09:46:21Z</time>
      </trkpt>
      <trkpt lat="42.2109410" lon="-8.7403980">
        <ele>13.9</ele>
        <time>2021-05-20T09:46:22Z</time>
      </trkpt>
      <trkpt lat="42.2109430" lon="-8.7404010">
        <ele>13.9</ele>
        <time>2021-05-20T09:46:23Z</time>
      </trkpt>
      <trkpt lat="42.2109450" lon="-8.7404060">
        <ele>13.9</ele>
        <time>2021-05-20T09:46:24Z</time>
      </trkpt>
      <trkpt lat="42.2109460" lon="-8.7404110">
        <ele>13.9</ele>
        <time>2021-05-20T09:46:25Z</time>
      </trkpt>
      <trkpt lat="42.2109440" lon="-8.7404160">
        <ele>13.9</ele>
        <time>2021-05-20T09:46:26Z</time>
      </trkpt>
      <trkpt lat="42.2109470" lon="-8.7404170">
        <ele>13.9</ele>
        <time>2021-05-20T09:46:27Z</time>
      </trkpt>
      <trkpt lat="42.2109490" lon="-8.7404190">
        <ele>13.9</ele>
        <time>2021-05-20T09:46:28Z</time>
      </trkpt>
      <trkpt lat="42.2109480" lon="-8.7404180">
        <ele>13.9</ele>
        <time>2021-05-20T09:46:29Z</time>
      </trkpt>
      <trkpt lat="42.2109490" lon="-8.7404200">
        <ele>13.9</ele>
        <time>2021-05-20T09:46:30Z</time>
      </trkpt>
      <trkpt lat="42.2109500" lon="-8.7404210">
        <ele>13.9</ele>
        <time>2021-05-20T09:46:31Z</time>
      </trkpt>
      <trkpt lat="42.2109510" lon="-8.7404230">
        <ele>13.9</ele>
        <time>2021-05-20T09:46:32Z</time>
      </trkpt>
      <trkpt lat="42.2109480" lon="-8.7404310">
        <ele>13.9</ele>
        <time>2021-05-20T09:46:33Z</time>
      </trkpt>
      <trkpt lat="42.2109450" lon="-8.7404330">
        <ele>13.9</ele>
        <time>2021-05-20T09:46:34Z</time>
      </trkpt>
      <trkpt lat="42.2109410" lon="-8.7404330">
        <ele>13.9</ele>
        <time>2021-05-20T09:46:35Z</time>
      </trkpt>
      <trkpt lat="42.2109400" lon="-8.7404310">
        <ele>13.9</ele>
        <time>2021-05-20T09:46:36Z</time>
      </trkpt>
      <trkpt lat="42.2109380" lon="-8.7404290">
        <ele>13.9</ele>
        <time>2021-05-20T09:46:37Z</time>
      </trkpt>
      <trkpt lat="42.2109390" lon="-8.7404210">
        <ele>13.9</ele>
        <time>2021-05-20T09:46:38Z</time>
      </trkpt>
      <trkpt lat="42.2109400" lon="-8.7404190">
        <ele>13.9</ele>
        <time>2021-05-20T09:46:39Z</time>
      </trkpt>
      <trkpt lat="42.2109390" lon="-8.7404210">
        <ele>13.9</ele>
        <time>2021-05-20T09:46:40Z</time>
      </trkpt>
      <trkpt lat="42.2109390" lon="-8.7404210">
        <ele>13.9</ele>
        <time>2021-05-20T09:46:41Z</time>
      </trkpt>
      <trkpt lat="42.2109380" lon="-8.7404210">
        <ele>13.9</ele>
        <time>2021-05-20T09:46:42Z</time>
      </trkpt>
      <trkpt lat="42.2109360" lon="-8.7404230">
        <ele>13.9</ele>
        <time>2021-05-20T09:46:43Z</time>
      </trkpt>
      <trkpt lat="42.2109350" lon="-8.7404220">
        <ele>13.9</ele>
        <time>2021-05-20T09:46:44Z</time>
      </trkpt>
      <trkpt lat="42.2109350" lon="-8.7404200">
        <ele>13.9</ele>
        <time>2021-05-20T09:46:45Z</time>
      </trkpt>
      <trkpt lat="42.2109350" lon="-8.7404140">
        <ele>13.9</ele>
        <time>2021-05-20T09:46:46Z</time>
      </trkpt>
      <trkpt lat="42.2109320" lon="-8.7404180">
        <ele>13.9</ele>
        <time>2021-05-20T09:46:47Z</time>
      </trkpt>
      <trkpt lat="42.2109300" lon="-8.7404200">
        <ele>13.9</ele>
        <time>2021-05-20T09:46:48Z</time>
      </trkpt>
      <trkpt lat="42.2109320" lon="-8.7404170">
        <ele>13.9</ele>
        <time>2021-05-20T09:46:49Z</time>
      </trkpt>
      <trkpt lat="42.2109300" lon="-8.7404150">
        <ele>13.9</ele>
        <time>2021-05-20T09:46:50Z</time>
      </trkpt>
      <trkpt lat="42.2109260" lon="-8.7404130">
        <ele>13.9</ele>
        <time>2021-05-20T09:46:51Z</time>
      </trkpt>
      <trkpt lat="42.2109220" lon="-8.7404090">
        <ele>13.9</ele>
        <time>2021-05-20T09:46:52Z</time>
      </trkpt>
      <trkpt lat="42.2109240" lon="-8.7404060">
        <ele>13.9</ele>
        <time>2021-05-20T09:46:53Z</time>
      </trkpt>
      <trkpt lat="42.2109220" lon="-8.7403980">
        <ele>13.9</ele>
        <time>2021-05-20T09:46:54Z</time>
      </trkpt>
      <trkpt lat="42.2109200" lon="-8.7403920">
        <ele>13.9</ele>
        <time>2021-05-20T09:46:55Z</time>
      </trkpt>
      <trkpt lat="42.2109200" lon="-8.7403920">
        <ele>13.9</ele>
        <time>2021-05-20T09:46:56Z</time>
      </trkpt>
      <trkpt lat="42.2109200" lon="-8.7403860">
        <ele>13.9</ele>
        <time>2021-05-20T09:46:57Z</time>
      </trkpt>
      <trkpt lat="42.2109180" lon="-8.7403810">
        <ele>13.9</ele>
        <time>2021-05-20T09:46:58Z</time>
      </trkpt>
      <trkpt lat="42.2109190" lon="-8.7403780">
        <ele>13.9</ele>
        <time>2021-05-20T09:46:59Z</time>
      </trkpt>
      <trkpt lat="42.2109210" lon="-8.7403690">
        <ele>13.9</ele>
        <time>2021-05-20T09:47:00Z</time>
      </trkpt>
      <trkpt lat="42.2109240" lon="-8.7403600">
        <ele>13.9</ele>
        <time>2021-05-20T09:47:01Z</time>
      </trkpt>
      <trkpt lat="42.2109250" lon="-8.7403530">
        <ele>13.9</ele>
        <time>2021-05-20T09:47:02Z</time>
      </trkpt>
      <trkpt lat="42.2109220" lon="-8.7403530">
        <ele>13.9</ele>
        <time>2021-05-20T09:47:03Z</time>
      </trkpt>
      <trkpt lat="42.2109170" lon="-8.7403500">
        <ele>13.9</ele>
        <time>2021-05-20T09:47:04Z</time>
      </trkpt>
      <trkpt lat="42.2109140" lon="-8.7403460">
        <ele>13.9</ele>
        <time>2021-05-20T09:47:05Z</time>
      </trkpt>
      <trkpt lat="42.2109140" lon="-8.7403430">
        <ele>13.9</ele>
        <time>2021-05-20T09:47:06Z</time>
      </trkpt>
      <trkpt lat="42.2109120" lon="-8.7403390">
        <ele>13.9</ele>
        <time>2021-05-20T09:47:07Z</time>
      </trkpt>
      <trkpt lat="42.2109140" lon="-8.7403340">
        <ele>13.9</ele>
        <time>2021-05-20T09:47:08Z</time>
      </trkpt>
      <trkpt lat="42.2109130" lon="-8.7403270">
        <ele>13.9</ele>
        <time>2021-05-20T09:47:09Z</time>
      </trkpt>
      <trkpt lat="42.2109110" lon="-8.7403200">
        <ele>13.9</ele>
        <time>2021-05-20T09:47:10Z</time>
      </trkpt>
      <trkpt lat="42.2109050" lon="-8.7403230">
        <ele>13.9</ele>
        <time>2021-05-20T09:47:11Z</time>
      </trkpt>
      <trkpt lat="42.2109030" lon="-8.7403240">
        <ele>13.9</ele>
        <time>2021-05-20T09:47:12Z</time>
      </trkpt>
      <trkpt lat="42.2109030" lon="-8.7403240">
        <ele>13.9</ele>
        <time>2021-05-20T09:47:13Z</time>
      </trkpt>
      <trkpt lat="42.2109000" lon="-8.7403250">
        <ele>13.9</ele>
        <time>2021-05-20T09:47:14Z</time>
      </trkpt>
      <trkpt lat="42.2108960" lon="-8.7403270">
        <ele>13.9</ele>
        <time>2021-05-20T09:47:15Z</time>
      </trkpt>
      <trkpt lat="42.2108950" lon="-8.7403280">
        <ele>13.9</ele>
        <time>2021-05-20T09:47:16Z</time>
      </trkpt>
      <trkpt lat="42.2108910" lon="-8.7403290">
        <ele>13.9</ele>
        <time>2021-05-20T09:47:17Z</time>
      </trkpt>
      <trkpt lat="42.2108920" lon="-8.7403290">
        <ele>13.9</ele>
        <time>2021-05-20T09:47:18Z</time>
      </trkpt>
      <trkpt lat="42.2108950" lon="-8.7403260">
        <ele>13.9</ele>
        <time>2021-05-20T09:47:19Z</time>
      </trkpt>
      <trkpt lat="42.2108970" lon="-8.7403290">
        <ele>13.9</ele>
        <time>2021-05-20T09:47:20Z</time>
      </trkpt>
      <trkpt lat="42.2108950" lon="-8.7403370">
        <ele>13.9</ele>
        <time>2021-05-20T09:47:21Z</time>
      </trkpt>
      <trkpt lat="42.2108930" lon="-8.7403410">
        <ele>13.9</ele>
        <time>2021-05-20T09:47:22Z</time>
      </trkpt>
      <trkpt lat="42.2108960" lon="-8.7403370">
        <ele>13.9</ele>
        <time>2021-05-20T09:47:23Z</time>
      </trkpt>
      <trkpt lat="42.2108950" lon="-8.7403370">
        <ele>13.9</ele>
        <time>2021-05-20T09:47:24Z</time>
      </trkpt>
      <trkpt lat="42.2108950" lon="-8.7403370">
        <ele>13.9</ele>
        <time>2021-05-20T09:47:25Z</time>
      </trkpt>
      <trkpt lat="42.2108980" lon="-8.7403410">
        <ele>13.9</ele>
        <time>2021-05-20T09:47:26Z</time>
      </trkpt>
      <trkpt lat="42.2108970" lon="-8.7403410">
        <ele>13.9</ele>
        <time>2021-05-20T09:47:27Z</time>
      </trkpt>
      <trkpt lat="42.2109010" lon="-8.7403350">
        <ele>13.9</ele>
        <time>2021-05-20T09:47:28Z</time>
      </trkpt>
      <trkpt lat="42.2109050" lon="-8.7403260">
        <ele>13.9</ele>
        <time>2021-05-20T09:47:29Z</time>
      </trkpt>
      <trkpt lat="42.2109080" lon="-8.7403210">
        <ele>13.9</ele>
        <time>2021-05-20T09:47:30Z</time>
      </trkpt>
      <trkpt lat="42.2109090" lon="-8.7403210">
        <ele>13.9</ele>
        <time>2021-05-20T09:47:31Z</time>
      </trkpt>
      <trkpt lat="42.2109080" lon="-8.7403240">
        <ele>13.9</ele>
        <time>2021-05-20T09:47:32Z</time>
      </trkpt>
      <trkpt lat="42.2109080" lon="-8.7403240">
        <ele>13.9</ele>
        <time>2021-05-20T09:47:33Z</time>
      </trkpt>
      <trkpt lat="42.2109100" lon="-8.7403180">
        <ele>13.9</ele>
        <time>2021-05-20T09:47:34Z</time>
      </trkpt>
      <trkpt lat="42.2109130" lon="-8.7403140">
        <ele>13.9</ele>
        <time>2021-05-20T09:47:35Z</time>
      </trkpt>
      <trkpt lat="42.2109120" lon="-8.7403140">
        <ele>13.9</ele>
        <time>2021-05-20T09:47:36Z</time>
      </trkpt>
      <trkpt lat="42.2109130" lon="-8.7403160">
        <ele>13.9</ele>
        <time>2021-05-20T09:47:37Z</time>
      </trkpt>
      <trkpt lat="42.2109150" lon="-8.7403190">
        <ele>13.9</ele>
        <time>2021-05-20T09:47:38Z</time>
      </trkpt>
      <trkpt lat="42.2109180" lon="-8.7403200">
        <ele>13.9</ele>
        <time>2021-05-20T09:47:39Z</time>
      </trkpt>
      <trkpt lat="42.2109220" lon="-8.7403210">
        <ele>13.9</ele>
        <time>2021-05-20T09:47:40Z</time>
      </trkpt>
      <trkpt lat="42.2109230" lon="-8.7403250">
        <ele>13.9</ele>
        <time>2021-05-20T09:47:41Z</time>
      </trkpt>
      <trkpt lat="42.2109230" lon="-8.7403250">
        <ele>13.9</ele>
        <time>2021-05-20T09:47:42Z</time>
      </trkpt>
      <trkpt lat="42.2109300" lon="-8.7403280">
        <ele>13.9</ele>
        <time>2021-05-20T09:47:43Z</time>
      </trkpt>
      <trkpt lat="42.2109300" lon="-8.7403300">
        <ele>13.9</ele>
        <time>2021-05-20T09:47:44Z</time>
      </trkpt>
      <trkpt lat="42.2109310" lon="-8.7403350">
        <ele>13.9</ele>
        <time>2021-05-20T09:47:45Z</time>
      </trkpt>
      <trkpt lat="42.2109350" lon="-8.7403300">
        <ele>13.9</ele>
        <time>2021-05-20T09:47:46Z</time>
      </trkpt>
      <trkpt lat="42.2109400" lon="-8.7403230">
        <ele>13.9</ele>
        <time>2021-05-20T09:47:47Z</time>
      </trkpt>
      <trkpt lat="42.2109390" lon="-8.7403250">
        <ele>13.9</ele>
        <time>2021-05-20T09:47:48Z</time>
      </trkpt>
      <trkpt lat="42.2109390" lon="-8.7403200">
        <ele>13.9</ele>
        <time>2021-05-20T09:47:49Z</time>
      </trkpt>
      <trkpt lat="42.2109420" lon="-8.7403120">
        <ele>13.9</ele>
        <time>2021-05-20T09:47:50Z</time>
      </trkpt>
      <trkpt lat="42.2109440" lon="-8.7403090">
        <ele>13.9</ele>
        <time>2021-05-20T09:47:51Z</time>
      </trkpt>
      <trkpt lat="42.2109470" lon="-8.7402990">
        <ele>13.9</ele>
        <time>2021-05-20T09:47:52Z</time>
      </trkpt>
      <trkpt lat="42.2109530" lon="-8.7403010">
        <ele>13.9</ele>
        <time>2021-05-20T09:47:53Z</time>
      </trkpt>
      <trkpt lat="42.2109510" lon="-8.7403110">
        <ele>13.9</ele>
        <time>2021-05-20T09:47:54Z</time>
      </trkpt>
      <trkpt lat="42.2109520" lon="-8.7403200">
        <ele>13.9</ele>
        <time>2021-05-20T09:47:55Z</time>
      </trkpt>
      <trkpt lat="42.2109500" lon="-8.7403230">
        <ele>13.9</ele>
        <time>2021-05-20T09:47:56Z</time>
      </trkpt>
      <trkpt lat="42.2109500" lon="-8.7403230">
        <ele>13.9</ele>
        <time>2021-05-20T09:47:57Z</time>
      </trkpt>
      <trkpt lat="42.2109490" lon="-8.7403260">
        <ele>13.9</ele>
        <time>2021-05-20T09:47:58Z</time>
      </trkpt>
      <trkpt lat="42.2109470" lon="-8.7403300">
        <ele>13.9</ele>
        <time>2021-05-20T09:47:59Z</time>
      </trkpt>
      <trkpt lat="42.2109450" lon="-8.7403350">
        <ele>13.9</ele>
        <time>2021-05-20T09:48:00Z</time>
      </trkpt>
      <trkpt lat="42.2109440" lon="-8.7403390">
        <ele>13.9</ele>
        <time>2021-05-20T09:48:01Z</time>
      </trkpt>
      <trkpt lat="42.2109420" lon="-8.7403430">
        <ele>13.9</ele>
        <time>2021-05-20T09:48:02Z</time>
      </trkpt>
      <trkpt lat="42.2109370" lon="-8.7403540">
        <ele>13.9</ele>
        <time>2021-05-20T09:48:03Z</time>
      </trkpt>
      <trkpt lat="42.2109370" lon="-8.7403560">
        <ele>13.9</ele>
        <time>2021-05-20T09:48:04Z</time>
      </trkpt>
      <trkpt lat="42.2109320" lon="-8.7403640">
        <ele>13.9</ele>
        <time>2021-05-20T09:48:05Z</time>
      </trkpt>
      <trkpt lat="42.2109320" lon="-8.7403640">
        <ele>13.9</ele>
        <time>2021-05-20T09:48:06Z</time>
      </trkpt>
      <trkpt lat="42.2109290" lon="-8.7403810">
        <ele>13.9</ele>
        <time>2021-05-20T09:48:08Z</time>
      </trkpt>
      <trkpt lat="42.2109290" lon="-8.7403810">
        <ele>13.9</ele>
        <time>2021-05-20T09:48:09Z</time>
      </trkpt>
      <trkpt lat="42.2109290" lon="-8.7403810">
        <ele>13.9</ele>
        <time>2021-05-20T09:48:10Z</time>
      </trkpt>
      <trkpt lat="42.2109270" lon="-8.7403920">
        <ele>13.9</ele>
        <time>2021-05-20T09:48:11Z</time>
      </trkpt>
      <trkpt lat="42.2109270" lon="-8.7403920">
        <ele>13.9</ele>
        <time>2021-05-20T09:48:12Z</time>
      </trkpt>
      <trkpt lat="42.2109270" lon="-8.7403920">
        <ele>13.9</ele>
        <time>2021-05-20T09:48:13Z</time>
      </trkpt>
      <trkpt lat="42.2109270" lon="-8.7403920">
        <ele>13.9</ele>
        <time>2021-05-20T09:48:14Z</time>
      </trkpt>
      <trkpt lat="42.2109290" lon="-8.7403970">
        <ele>13.9</ele>
        <time>2021-05-20T09:48:15Z</time>
      </trkpt>
      <trkpt lat="42.2109270" lon="-8.7403980">
        <ele>13.9</ele>
        <time>2021-05-20T09:48:16Z</time>
      </trkpt>
      <trkpt lat="42.2109230" lon="-8.7404000">
        <ele>13.9</ele>
        <time>2021-05-20T09:48:17Z</time>
      </trkpt>
      <trkpt lat="42.2109230" lon="-8.7404000">
        <ele>13.9</ele>
        <time>2021-05-20T09:48:18Z</time>
      </trkpt>
      <trkpt lat="42.2109210" lon="-8.7403970">
        <ele>13.9</ele>
        <time>2021-05-20T09:48:19Z</time>
      </trkpt>
      <trkpt lat="42.2109190" lon="-8.7403950">
        <ele>13.9</ele>
        <time>2021-05-20T09:48:20Z</time>
      </trkpt>
      <trkpt lat="42.2109190" lon="-8.7403950">
        <ele>13.9</ele>
        <time>2021-05-20T09:48:21Z</time>
      </trkpt>
      <trkpt lat="42.2109190" lon="-8.7403950">
        <ele>13.9</ele>
        <time>2021-05-20T09:48:22Z</time>
      </trkpt>
      <trkpt lat="42.2109190" lon="-8.7403950">
        <ele>13.9</ele>
        <time>2021-05-20T09:48:23Z</time>
      </trkpt>
      <trkpt lat="42.2109100" lon="-8.7403730">
        <ele>13.9</ele>
        <time>2021-05-20T09:48:24Z</time>
      </trkpt>
      <trkpt lat="42.2109100" lon="-8.7403730">
        <ele>13.9</ele>
        <time>2021-05-20T09:48:25Z</time>
      </trkpt>
      <trkpt lat="42.2109120" lon="-8.7403660">
        <ele>13.9</ele>
        <time>2021-05-20T09:48:26Z</time>
      </trkpt>
      <trkpt lat="42.2109120" lon="-8.7403660">
        <ele>13.9</ele>
        <time>2021-05-20T09:48:27Z</time>
      </trkpt>
      <trkpt lat="42.2109120" lon="-8.7403660">
        <ele>13.9</ele>
        <time>2021-05-20T09:48:28Z</time>
      </trkpt>
      <trkpt lat="42.2109120" lon="-8.7403660">
        <ele>13.9</ele>
        <time>2021-05-20T09:48:29Z</time>
      </trkpt>
      <trkpt lat="42.2109120" lon="-8.7403660">
        <ele>13.9</ele>
        <time>2021-05-20T09:48:30Z</time>
      </trkpt>
      <trkpt lat="42.2109120" lon="-8.7403660">
        <ele>13.9</ele>
        <time>2021-05-20T09:48:31Z</time>
      </trkpt>
      <trkpt lat="42.2109190" lon="-8.7403430">
        <ele>13.9</ele>
        <time>2021-05-20T09:48:32Z</time>
      </trkpt>
      <trkpt lat="42.2109210" lon="-8.7403430">
        <ele>13.8</ele>
        <time>2021-05-20T09:48:33Z</time>
      </trkpt>
      <trkpt lat="42.2109210" lon="-8.7403430">
        <ele>13.8</ele>
        <time>2021-05-20T09:48:34Z</time>
      </trkpt>
      <trkpt lat="42.2109250" lon="-8.7403390">
        <ele>13.8</ele>
        <time>2021-05-20T09:48:35Z</time>
      </trkpt>
      <trkpt lat="42.2109260" lon="-8.7403370">
        <ele>13.8</ele>
        <time>2021-05-20T09:48:36Z</time>
      </trkpt>
      <trkpt lat="42.2109250" lon="-8.7403380">
        <ele>13.8</ele>
        <time>2021-05-20T09:48:37Z</time>
      </trkpt>
      <trkpt lat="42.2109180" lon="-8.7403380">
        <ele>13.8</ele>
        <time>2021-05-20T09:48:38Z</time>
      </trkpt>
      <trkpt lat="42.2109180" lon="-8.7403330">
        <ele>13.8</ele>
        <time>2021-05-20T09:48:39Z</time>
      </trkpt>
      <trkpt lat="42.2109090" lon="-8.7403430">
        <ele>13.8</ele>
        <time>2021-05-20T09:48:40Z</time>
      </trkpt>
      <trkpt lat="42.2108890" lon="-8.7403430">
        <ele>13.8</ele>
        <time>2021-05-20T09:48:41Z</time>
      </trkpt>
      <trkpt lat="42.2108810" lon="-8.7403380">
        <ele>13.8</ele>
        <time>2021-05-20T09:48:42Z</time>
      </trkpt>
      <trkpt lat="42.2108750" lon="-8.7403340">
        <ele>13.8</ele>
        <time>2021-05-20T09:48:43Z</time>
      </trkpt>
      <trkpt lat="42.2108620" lon="-8.7403410">
        <ele>13.8</ele>
        <time>2021-05-20T09:48:44Z</time>
      </trkpt>
      <trkpt lat="42.2108580" lon="-8.7403450">
        <ele>13.8</ele>
        <time>2021-05-20T09:48:45Z</time>
      </trkpt>
      <trkpt lat="42.2108550" lon="-8.7403410">
        <ele>13.8</ele>
        <time>2021-05-20T09:48:46Z</time>
      </trkpt>
      <trkpt lat="42.2108500" lon="-8.7403390">
        <ele>13.8</ele>
        <time>2021-05-20T09:48:47Z</time>
      </trkpt>
      <trkpt lat="42.2108360" lon="-8.7403440">
        <ele>13.8</ele>
        <time>2021-05-20T09:48:48Z</time>
      </trkpt>
      <trkpt lat="42.2108260" lon="-8.7403410">
        <ele>13.8</ele>
        <time>2021-05-20T09:48:49Z</time>
      </trkpt>
      <trkpt lat="42.2108230" lon="-8.7403350">
        <ele>13.8</ele>
        <time>2021-05-20T09:48:50Z</time>
      </trkpt>
      <trkpt lat="42.2108240" lon="-8.7403310">
        <ele>13.8</ele>
        <time>2021-05-20T09:48:51Z</time>
      </trkpt>
      <trkpt lat="42.2108130" lon="-8.7403260">
        <ele>13.8</ele>
        <time>2021-05-20T09:48:52Z</time>
      </trkpt>
      <trkpt lat="42.2108120" lon="-8.7403200">
        <ele>13.8</ele>
        <time>2021-05-20T09:48:53Z</time>
      </trkpt>
      <trkpt lat="42.2108090" lon="-8.7403120">
        <ele>13.8</ele>
        <time>2021-05-20T09:48:54Z</time>
      </trkpt>
      <trkpt lat="42.2107990" lon="-8.7403000">
        <ele>13.8</ele>
        <time>2021-05-20T09:48:55Z</time>
      </trkpt>
      <trkpt lat="42.2107920" lon="-8.7402830">
        <ele>13.8</ele>
        <time>2021-05-20T09:48:56Z</time>
      </trkpt>
      <trkpt lat="42.2107850" lon="-8.7402710">
        <ele>13.8</ele>
        <time>2021-05-20T09:48:57Z</time>
      </trkpt>
      <trkpt lat="42.2107800" lon="-8.7402540">
        <ele>13.8</ele>
        <time>2021-05-20T09:48:58Z</time>
      </trkpt>
      <trkpt lat="42.2107820" lon="-8.7402480">
        <ele>13.8</ele>
        <time>2021-05-20T09:48:59Z</time>
      </trkpt>
      <trkpt lat="42.2107780" lon="-8.7402300">
        <ele>13.8</ele>
        <time>2021-05-20T09:49:00Z</time>
      </trkpt>
      <trkpt lat="42.2107750" lon="-8.7402190">
        <ele>13.8</ele>
        <time>2021-05-20T09:49:01Z</time>
      </trkpt>
      <trkpt lat="42.2107760" lon="-8.7402100">
        <ele>13.8</ele>
        <time>2021-05-20T09:49:02Z</time>
      </trkpt>
      <trkpt lat="42.2107820" lon="-8.7401900">
        <ele>13.8</ele>
        <time>2021-05-20T09:49:03Z</time>
      </trkpt>
      <trkpt lat="42.2107840" lon="-8.7401820">
        <ele>13.8</ele>
        <time>2021-05-20T09:49:04Z</time>
      </trkpt>
      <trkpt lat="42.2107820" lon="-8.7401690">
        <ele>13.8</ele>
        <time>2021-05-20T09:49:05Z</time>
      </trkpt>
      <trkpt lat="42.2107910" lon="-8.7401370">
        <ele>13.8</ele>
        <time>2021-05-20T09:49:06Z</time>
      </trkpt>
      <trkpt lat="42.2107930" lon="-8.7401230">
        <ele>13.8</ele>
        <time>2021-05-20T09:49:07Z</time>
      </trkpt>
      <trkpt lat="42.2107950" lon="-8.7401100">
        <ele>13.8</ele>
        <time>2021-05-20T09:49:08Z</time>
      </trkpt>
      <trkpt lat="42.2108070" lon="-8.7401010">
        <ele>13.8</ele>
        <time>2021-05-20T09:49:09Z</time>
      </trkpt>
      <trkpt lat="42.2108080" lon="-8.7400890">
        <ele>13.8</ele>
        <time>2021-05-20T09:49:10Z</time>
      </trkpt>
      <trkpt lat="42.2108070" lon="-8.7400660">
        <ele>13.8</ele>
        <time>2021-05-20T09:49:11Z</time>
      </trkpt>
      <trkpt lat="42.2108230" lon="-8.7400450">
        <ele>13.8</ele>
        <time>2021-05-20T09:49:12Z</time>
      </trkpt>
      <trkpt lat="42.2108280" lon="-8.7400380">
        <ele>13.8</ele>
        <time>2021-05-20T09:49:13Z</time>
      </trkpt>
      <trkpt lat="42.2108340" lon="-8.7400320">
        <ele>13.8</ele>
        <time>2021-05-20T09:49:14Z</time>
      </trkpt>
      <trkpt lat="42.2108440" lon="-8.7400130">
        <ele>13.8</ele>
        <time>2021-05-20T09:49:15Z</time>
      </trkpt>
      <trkpt lat="42.2108460" lon="-8.7400000">
        <ele>13.8</ele>
        <time>2021-05-20T09:49:16Z</time>
      </trkpt>
      <trkpt lat="42.2108490" lon="-8.7399870">
        <ele>13.8</ele>
        <time>2021-05-20T09:49:17Z</time>
      </trkpt>
      <trkpt lat="42.2108650" lon="-8.7399640">
        <ele>13.8</ele>
        <time>2021-05-20T09:49:18Z</time>
      </trkpt>
      <trkpt lat="42.2108700" lon="-8.7399560">
        <ele>13.8</ele>
        <time>2021-05-20T09:49:19Z</time>
      </trkpt>
      <trkpt lat="42.2108760" lon="-8.7399490">
        <ele>13.8</ele>
        <time>2021-05-20T09:49:20Z</time>
      </trkpt>
      <trkpt lat="42.2108800" lon="-8.7399340">
        <ele>13.8</ele>
        <time>2021-05-20T09:49:21Z</time>
      </trkpt>
      <trkpt lat="42.2108950" lon="-8.7399160">
        <ele>13.8</ele>
        <time>2021-05-20T09:49:22Z</time>
      </trkpt>
      <trkpt lat="42.2109030" lon="-8.7399000">
        <ele>13.8</ele>
        <time>2021-05-20T09:49:23Z</time>
      </trkpt>
      <trkpt lat="42.2109020" lon="-8.7398870">
        <ele>13.8</ele>
        <time>2021-05-20T09:49:24Z</time>
      </trkpt>
      <trkpt lat="42.2108970" lon="-8.7398690">
        <ele>13.8</ele>
        <time>2021-05-20T09:49:25Z</time>
      </trkpt>
      <trkpt lat="42.2108960" lon="-8.7398480">
        <ele>13.8</ele>
        <time>2021-05-20T09:49:26Z</time>
      </trkpt>
      <trkpt lat="42.2108900" lon="-8.7398320">
        <ele>13.8</ele>
        <time>2021-05-20T09:49:27Z</time>
      </trkpt>
      <trkpt lat="42.2108780" lon="-8.7398070">
        <ele>13.8</ele>
        <time>2021-05-20T09:49:28Z</time>
      </trkpt>
      <trkpt lat="42.2108760" lon="-8.7397930">
        <ele>13.8</ele>
        <time>2021-05-20T09:49:29Z</time>
      </trkpt>
      <trkpt lat="42.2108730" lon="-8.7397790">
        <ele>13.8</ele>
        <time>2021-05-20T09:49:30Z</time>
      </trkpt>
      <trkpt lat="42.2108850" lon="-8.7397680">
        <ele>13.8</ele>
        <time>2021-05-20T09:49:31Z</time>
      </trkpt>
      <trkpt lat="42.2108870" lon="-8.7397560">
        <ele>13.8</ele>
        <time>2021-05-20T09:49:32Z</time>
      </trkpt>
      <trkpt lat="42.2108960" lon="-8.7397540">
        <ele>13.8</ele>
        <time>2021-05-20T09:49:33Z</time>
      </trkpt>
      <trkpt lat="42.2108980" lon="-8.7397330">
        <ele>13.8</ele>
        <time>2021-05-20T09:49:34Z</time>
      </trkpt>
      <trkpt lat="42.2109020" lon="-8.7397170">
        <ele>13.8</ele>
        <time>2021-05-20T09:49:35Z</time>
      </trkpt>
      <trkpt lat="42.2109010" lon="-8.7396960">
        <ele>13.8</ele>
        <time>2021-05-20T09:49:36Z</time>
      </trkpt>
      <trkpt lat="42.2109040" lon="-8.7396790">
        <ele>13.8</ele>
        <time>2021-05-20T09:49:37Z</time>
      </trkpt>
      <trkpt lat="42.2109090" lon="-8.7396480">
        <ele>13.8</ele>
        <time>2021-05-20T09:49:38Z</time>
      </trkpt>
      <trkpt lat="42.2109090" lon="-8.7396350">
        <ele>13.8</ele>
        <time>2021-05-20T09:49:39Z</time>
      </trkpt>
      <trkpt lat="42.2109100" lon="-8.7396230">
        <ele>13.8</ele>
        <time>2021-05-20T09:49:40Z</time>
      </trkpt>
      <trkpt lat="42.2109110" lon="-8.7396070">
        <ele>13.8</ele>
        <time>2021-05-20T09:49:41Z</time>
      </trkpt>
      <trkpt lat="42.2109020" lon="-8.7395880">
        <ele>13.8</ele>
        <time>2021-05-20T09:49:42Z</time>
      </trkpt>
      <trkpt lat="42.2109050" lon="-8.7395780">
        <ele>13.8</ele>
        <time>2021-05-20T09:49:43Z</time>
      </trkpt>
      <trkpt lat="42.2109080" lon="-8.7395650">
        <ele>13.8</ele>
        <time>2021-05-20T09:49:44Z</time>
      </trkpt>
      <trkpt lat="42.2109050" lon="-8.7395480">
        <ele>13.8</ele>
        <time>2021-05-20T09:49:45Z</time>
      </trkpt>
      <trkpt lat="42.2109110" lon="-8.7395360">
        <ele>13.9</ele>
        <time>2021-05-20T09:49:46Z</time>
      </trkpt>
      <trkpt lat="42.2109160" lon="-8.7395290">
        <ele>13.9</ele>
        <time>2021-05-20T09:49:47Z</time>
      </trkpt>
      <trkpt lat="42.2109160" lon="-8.7395100">
        <ele>13.9</ele>
        <time>2021-05-20T09:49:48Z</time>
      </trkpt>
      <trkpt lat="42.2109150" lon="-8.7394890">
        <ele>13.9</ele>
        <time>2021-05-20T09:49:49Z</time>
      </trkpt>
      <trkpt lat="42.2109160" lon="-8.7394800">
        <ele>13.9</ele>
        <time>2021-05-20T09:49:50Z</time>
      </trkpt>
      <trkpt lat="42.2109140" lon="-8.7394630">
        <ele>13.9</ele>
        <time>2021-05-20T09:49:51Z</time>
      </trkpt>
      <trkpt lat="42.2109190" lon="-8.7394520">
        <ele>13.9</ele>
        <time>2021-05-20T09:49:52Z</time>
      </trkpt>
      <trkpt lat="42.2109250" lon="-8.7394300">
        <ele>13.9</ele>
        <time>2021-05-20T09:49:53Z</time>
      </trkpt>
      <trkpt lat="42.2109320" lon="-8.7394220">
        <ele>13.9</ele>
        <time>2021-05-20T09:49:54Z</time>
      </trkpt>
      <trkpt lat="42.2109320" lon="-8.7394170">
        <ele>13.9</ele>
        <time>2021-05-20T09:49:55Z</time>
      </trkpt>
      <trkpt lat="42.2109300" lon="-8.7394460">
        <ele>13.9</ele>
        <time>2021-05-20T09:49:57Z</time>
      </trkpt>
      <trkpt lat="42.2109260" lon="-8.7394550">
        <ele>13.9</ele>
        <time>2021-05-20T09:49:58Z</time>
      </trkpt>
      <trkpt lat="42.2109240" lon="-8.7394580">
        <ele>13.9</ele>
        <time>2021-05-20T09:49:59Z</time>
      </trkpt>
      <trkpt lat="42.2109250" lon="-8.7394530">
        <ele>13.9</ele>
        <time>2021-05-20T09:50:01Z</time>
      </trkpt>
      <trkpt lat="42.2109270" lon="-8.7394270">
        <ele>13.9</ele>
        <time>2021-05-20T09:50:02Z</time>
      </trkpt>
      <trkpt lat="42.2109320" lon="-8.7394200">
        <ele>13.9</ele>
        <time>2021-05-20T09:50:03Z</time>
      </trkpt>
      <trkpt lat="42.2109370" lon="-8.7394040">
        <ele>13.9</ele>
        <time>2021-05-20T09:50:04Z</time>
      </trkpt>
      <trkpt lat="42.2109430" lon="-8.7393860">
        <ele>13.9</ele>
        <time>2021-05-20T09:50:05Z</time>
      </trkpt>
      <trkpt lat="42.2109410" lon="-8.7393930">
        <ele>13.9</ele>
        <time>2021-05-20T09:50:06Z</time>
      </trkpt>
      <trkpt lat="42.2109410" lon="-8.7393960">
        <ele>13.9</ele>
        <time>2021-05-20T09:50:07Z</time>
      </trkpt>
      <trkpt lat="42.2109380" lon="-8.7393960">
        <ele>13.9</ele>
        <time>2021-05-20T09:50:08Z</time>
      </trkpt>
      <trkpt lat="42.2109350" lon="-8.7393970">
        <ele>13.9</ele>
        <time>2021-05-20T09:50:09Z</time>
      </trkpt>
      <trkpt lat="42.2109310" lon="-8.7393960">
        <ele>13.9</ele>
        <time>2021-05-20T09:50:10Z</time>
      </trkpt>
      <trkpt lat="42.2109330" lon="-8.7393940">
        <ele>13.9</ele>
        <time>2021-05-20T09:50:11Z</time>
      </trkpt>
      <trkpt lat="42.2109270" lon="-8.7393890">
        <ele>13.9</ele>
        <time>2021-05-20T09:50:12Z</time>
      </trkpt>
      <trkpt lat="42.2109320" lon="-8.7393920">
        <ele>13.9</ele>
        <time>2021-05-20T09:50:13Z</time>
      </trkpt>
      <trkpt lat="42.2109290" lon="-8.7393920">
        <ele>13.9</ele>
        <time>2021-05-20T09:50:14Z</time>
      </trkpt>
      <trkpt lat="42.2109280" lon="-8.7393860">
        <ele>13.9</ele>
        <time>2021-05-20T09:50:15Z</time>
      </trkpt>
      <trkpt lat="42.2109340" lon="-8.7393610">
        <ele>13.9</ele>
        <time>2021-05-20T09:50:16Z</time>
      </trkpt>
      <trkpt lat="42.2109380" lon="-8.7393590">
        <ele>13.9</ele>
        <time>2021-05-20T09:50:17Z</time>
      </trkpt>
      <trkpt lat="42.2109480" lon="-8.7393400">
        <ele>13.9</ele>
        <time>2021-05-20T09:50:18Z</time>
      </trkpt>
      <trkpt lat="42.2109530" lon="-8.7393300">
        <ele>13.9</ele>
        <time>2021-05-20T09:50:19Z</time>
      </trkpt>
      <trkpt lat="42.2109600" lon="-8.7393190">
        <ele>14.0</ele>
        <time>2021-05-20T09:50:20Z</time>
      </trkpt>
      <trkpt lat="42.2109700" lon="-8.7393090">
        <ele>14.0</ele>
        <time>2021-05-20T09:50:21Z</time>
      </trkpt>
      <trkpt lat="42.2109820" lon="-8.7392910">
        <ele>14.0</ele>
        <time>2021-05-20T09:50:22Z</time>
      </trkpt>
      <trkpt lat="42.2110010" lon="-8.7392850">
        <ele>14.0</ele>
        <time>2021-05-20T09:50:23Z</time>
      </trkpt>
      <trkpt lat="42.2110280" lon="-8.7392660">
        <ele>14.0</ele>
        <time>2021-05-20T09:50:24Z</time>
      </trkpt>
      <trkpt lat="42.2110340" lon="-8.7392620">
        <ele>14.0</ele>
        <time>2021-05-20T09:50:25Z</time>
      </trkpt>
      <trkpt lat="42.2110400" lon="-8.7392440">
        <ele>14.0</ele>
        <time>2021-05-20T09:50:26Z</time>
      </trkpt>
      <trkpt lat="42.2110510" lon="-8.7392330">
        <ele>14.0</ele>
        <time>2021-05-20T09:50:27Z</time>
      </trkpt>
      <trkpt lat="42.2110690" lon="-8.7392010">
        <ele>14.0</ele>
        <time>2021-05-20T09:50:28Z</time>
      </trkpt>
      <trkpt lat="42.2110770" lon="-8.7391910">
        <ele>14.0</ele>
        <time>2021-05-20T09:50:29Z</time>
      </trkpt>
      <trkpt lat="42.2110970" lon="-8.7391800">
        <ele>14.0</ele>
        <time>2021-05-20T09:50:30Z</time>
      </trkpt>
      <trkpt lat="42.2111030" lon="-8.7391720">
        <ele>14.0</ele>
        <time>2021-05-20T09:50:31Z</time>
      </trkpt>
      <trkpt lat="42.2111110" lon="-8.7391540">
        <ele>14.0</ele>
        <time>2021-05-20T09:50:32Z</time>
      </trkpt>
      <trkpt lat="42.2111200" lon="-8.7391390">
        <ele>14.0</ele>
        <time>2021-05-20T09:50:33Z</time>
      </trkpt>
      <trkpt lat="42.2111180" lon="-8.7391270">
        <ele>14.0</ele>
        <time>2021-05-20T09:50:34Z</time>
      </trkpt>
      <trkpt lat="42.2111240" lon="-8.7391150">
        <ele>14.0</ele>
        <time>2021-05-20T09:50:35Z</time>
      </trkpt>
      <trkpt lat="42.2111330" lon="-8.7390940">
        <ele>14.1</ele>
        <time>2021-05-20T09:50:36Z</time>
      </trkpt>
      <trkpt lat="42.2111350" lon="-8.7390690">
        <ele>14.1</ele>
        <time>2021-05-20T09:50:37Z</time>
      </trkpt>
      <trkpt lat="42.2111390" lon="-8.7390560">
        <ele>14.1</ele>
        <time>2021-05-20T09:50:38Z</time>
      </trkpt>
      <trkpt lat="42.2111440" lon="-8.7390430">
        <ele>14.1</ele>
        <time>2021-05-20T09:50:39Z</time>
      </trkpt>
      <trkpt lat="42.2111560" lon="-8.7390310">
        <ele>14.1</ele>
        <time>2021-05-20T09:50:40Z</time>
      </trkpt>
      <trkpt lat="42.2111630" lon="-8.7390140">
        <ele>14.1</ele>
        <time>2021-05-20T09:50:41Z</time>
      </trkpt>
      <trkpt lat="42.2111720" lon="-8.7390000">
        <ele>14.1</ele>
        <time>2021-05-20T09:50:42Z</time>
      </trkpt>
      <trkpt lat="42.2111840" lon="-8.7389860">
        <ele>14.1</ele>
        <time>2021-05-20T09:50:43Z</time>
      </trkpt>
      <trkpt lat="42.2111860" lon="-8.7389650">
        <ele>14.1</ele>
        <time>2021-05-20T09:50:44Z</time>
      </trkpt>
      <trkpt lat="42.2111900" lon="-8.7389490">
        <ele>14.1</ele>
        <time>2021-05-20T09:50:45Z</time>
      </trkpt>
      <trkpt lat="42.2111940" lon="-8.7389330">
        <ele>14.1</ele>
        <time>2021-05-20T09:50:46Z</time>
      </trkpt>
      <trkpt lat="42.2112020" lon="-8.7389030">
        <ele>14.2</ele>
        <time>2021-05-20T09:50:47Z</time>
      </trkpt>
      <trkpt lat="42.2112100" lon="-8.7388640">
        <ele>14.2</ele>
        <time>2021-05-20T09:50:48Z</time>
      </trkpt>
      <trkpt lat="42.2112120" lon="-8.7388520">
        <ele>14.2</ele>
        <time>2021-05-20T09:50:49Z</time>
      </trkpt>
      <trkpt lat="42.2112130" lon="-8.7388240">
        <ele>14.2</ele>
        <time>2021-05-20T09:50:50Z</time>
      </trkpt>
      <trkpt lat="42.2112140" lon="-8.7388130">
        <ele>14.2</ele>
        <time>2021-05-20T09:50:51Z</time>
      </trkpt>
      <trkpt lat="42.2112140" lon="-8.7388010">
        <ele>14.2</ele>
        <time>2021-05-20T09:50:52Z</time>
      </trkpt>
      <trkpt lat="42.2112150" lon="-8.7387840">
        <ele>14.2</ele>
        <time>2021-05-20T09:50:53Z</time>
      </trkpt>
      <trkpt lat="42.2112150" lon="-8.7387740">
        <ele>14.2</ele>
        <time>2021-05-20T09:50:54Z</time>
      </trkpt>
      <trkpt lat="42.2112190" lon="-8.7387570">
        <ele>14.2</ele>
        <time>2021-05-20T09:50:55Z</time>
      </trkpt>
      <trkpt lat="42.2112180" lon="-8.7387240">
        <ele>14.2</ele>
        <time>2021-05-20T09:50:56Z</time>
      </trkpt>
      <trkpt lat="42.2112200" lon="-8.7387120">
        <ele>14.3</ele>
        <time>2021-05-20T09:50:57Z</time>
      </trkpt>
      <trkpt lat="42.2112210" lon="-8.7387000">
        <ele>14.3</ele>
        <time>2021-05-20T09:50:58Z</time>
      </trkpt>
      <trkpt lat="42.2112280" lon="-8.7386970">
        <ele>14.3</ele>
        <time>2021-05-20T09:50:59Z</time>
      </trkpt>
      <trkpt lat="42.2112360" lon="-8.7386880">
        <ele>14.3</ele>
        <time>2021-05-20T09:51:00Z</time>
      </trkpt>
      <trkpt lat="42.2112440" lon="-8.7386660">
        <ele>14.3</ele>
        <time>2021-05-20T09:51:01Z</time>
      </trkpt>
      <trkpt lat="42.2112520" lon="-8.7386510">
        <ele>14.3</ele>
        <time>2021-05-20T09:51:02Z</time>
      </trkpt>
      <trkpt lat="42.2112540" lon="-8.7386360">
        <ele>14.3</ele>
        <time>2021-05-20T09:51:03Z</time>
      </trkpt>
      <trkpt lat="42.2112660" lon="-8.7386330">
        <ele>14.3</ele>
        <time>2021-05-20T09:51:04Z</time>
      </trkpt>
      <trkpt lat="42.2112740" lon="-8.7386180">
        <ele>14.3</ele>
        <time>2021-05-20T09:51:05Z</time>
      </trkpt>
      <trkpt lat="42.2112880" lon="-8.7386020">
        <ele>14.3</ele>
        <time>2021-05-20T09:51:06Z</time>
      </trkpt>
      <trkpt lat="42.2112890" lon="-8.7385990">
        <ele>14.3</ele>
        <time>2021-05-20T09:51:07Z</time>
      </trkpt>
      <trkpt lat="42.2112970" lon="-8.7385940">
        <ele>14.3</ele>
        <time>2021-05-20T09:51:08Z</time>
      </trkpt>
      <trkpt lat="42.2113050" lon="-8.7385850">
        <ele>14.3</ele>
        <time>2021-05-20T09:51:09Z</time>
      </trkpt>
      <trkpt lat="42.2113140" lon="-8.7385780">
        <ele>14.3</ele>
        <time>2021-05-20T09:51:10Z</time>
      </trkpt>
      <trkpt lat="42.2113220" lon="-8.7385750">
        <ele>14.3</ele>
        <time>2021-05-20T09:51:11Z</time>
      </trkpt>
      <trkpt lat="42.2113280" lon="-8.7385670">
        <ele>14.3</ele>
        <time>2021-05-20T09:51:12Z</time>
      </trkpt>
      <trkpt lat="42.2113180" lon="-8.7385580">
        <ele>14.3</ele>
        <time>2021-05-20T09:51:13Z</time>
      </trkpt>
      <trkpt lat="42.2113240" lon="-8.7385410">
        <ele>14.3</ele>
        <time>2021-05-20T09:51:14Z</time>
      </trkpt>
      <trkpt lat="42.2113320" lon="-8.7385130">
        <ele>14.3</ele>
        <time>2021-05-20T09:51:15Z</time>
      </trkpt>
      <trkpt lat="42.2113360" lon="-8.7385030">
        <ele>14.3</ele>
        <time>2021-05-20T09:51:16Z</time>
      </trkpt>
      <trkpt lat="42.2113400" lon="-8.7384940">
        <ele>14.3</ele>
        <time>2021-05-20T09:51:17Z</time>
      </trkpt>
      <trkpt lat="42.2113460" lon="-8.7384880">
        <ele>14.3</ele>
        <time>2021-05-20T09:51:18Z</time>
      </trkpt>
      <trkpt lat="42.2113490" lon="-8.7384710">
        <ele>14.3</ele>
        <time>2021-05-20T09:51:19Z</time>
      </trkpt>
      <trkpt lat="42.2113450" lon="-8.7384510">
        <ele>14.3</ele>
        <time>2021-05-20T09:51:20Z</time>
      </trkpt>
      <trkpt lat="42.2113490" lon="-8.7384270">
        <ele>14.4</ele>
        <time>2021-05-20T09:51:21Z</time>
      </trkpt>
      <trkpt lat="42.2113460" lon="-8.7384090">
        <ele>14.4</ele>
        <time>2021-05-20T09:51:22Z</time>
      </trkpt>
      <trkpt lat="42.2113470" lon="-8.7383910">
        <ele>14.4</ele>
        <time>2021-05-20T09:51:23Z</time>
      </trkpt>
      <trkpt lat="42.2113490" lon="-8.7383840">
        <ele>14.4</ele>
        <time>2021-05-20T09:51:24Z</time>
      </trkpt>
      <trkpt lat="42.2113510" lon="-8.7383760">
        <ele>14.4</ele>
        <time>2021-05-20T09:51:25Z</time>
      </trkpt>
      <trkpt lat="42.2113530" lon="-8.7383690">
        <ele>14.4</ele>
        <time>2021-05-20T09:51:26Z</time>
      </trkpt>
      <trkpt lat="42.2113550" lon="-8.7383620">
        <ele>14.4</ele>
        <time>2021-05-20T09:51:27Z</time>
      </trkpt>
      <trkpt lat="42.2113460" lon="-8.7383150">
        <ele>14.4</ele>
        <time>2021-05-20T09:51:29Z</time>
      </trkpt>
      <trkpt lat="42.2113450" lon="-8.7383000">
        <ele>14.5</ele>
        <time>2021-05-20T09:51:30Z</time>
      </trkpt>
      <trkpt lat="42.2113500" lon="-8.7382820">
        <ele>14.5</ele>
        <time>2021-05-20T09:51:32Z</time>
      </trkpt>
      <trkpt lat="42.2113570" lon="-8.7382650">
        <ele>14.5</ele>
        <time>2021-05-20T09:51:33Z</time>
      </trkpt>
      <trkpt lat="42.2113560" lon="-8.7382460">
        <ele>14.5</ele>
        <time>2021-05-20T09:51:34Z</time>
      </trkpt>
      <trkpt lat="42.2113590" lon="-8.7382180">
        <ele>14.5</ele>
        <time>2021-05-20T09:51:35Z</time>
      </trkpt>
      <trkpt lat="42.2113720" lon="-8.7381840">
        <ele>14.5</ele>
        <time>2021-05-20T09:51:36Z</time>
      </trkpt>
      <trkpt lat="42.2113820" lon="-8.7381800">
        <ele>14.6</ele>
        <time>2021-05-20T09:51:37Z</time>
      </trkpt>
      <trkpt lat="42.2113950" lon="-8.7381770">
        <ele>14.6</ele>
        <time>2021-05-20T09:51:38Z</time>
      </trkpt>
      <trkpt lat="42.2113970" lon="-8.7381680">
        <ele>14.6</ele>
        <time>2021-05-20T09:51:39Z</time>
      </trkpt>
      <trkpt lat="42.2114080" lon="-8.7381410">
        <ele>14.6</ele>
        <time>2021-05-20T09:51:40Z</time>
      </trkpt>
      <trkpt lat="42.2114170" lon="-8.7381260">
        <ele>14.6</ele>
        <time>2021-05-20T09:51:41Z</time>
      </trkpt>
      <trkpt lat="42.2114250" lon="-8.7381100">
        <ele>14.6</ele>
        <time>2021-05-20T09:51:42Z</time>
      </trkpt>
      <trkpt lat="42.2114590" lon="-8.7380960">
        <ele>14.6</ele>
        <time>2021-05-20T09:51:43Z</time>
      </trkpt>
      <trkpt lat="42.2114740" lon="-8.7380880">
        <ele>14.7</ele>
        <time>2021-05-20T09:51:44Z</time>
      </trkpt>
      <trkpt lat="42.2115040" lon="-8.7380860">
        <ele>14.7</ele>
        <time>2021-05-20T09:51:45Z</time>
      </trkpt>
      <trkpt lat="42.2115170" lon="-8.7380840">
        <ele>14.7</ele>
        <time>2021-05-20T09:51:46Z</time>
      </trkpt>
      <trkpt lat="42.2115360" lon="-8.7380760">
        <ele>14.7</ele>
        <time>2021-05-20T09:51:47Z</time>
      </trkpt>
      <trkpt lat="42.2115560" lon="-8.7380750">
        <ele>14.7</ele>
        <time>2021-05-20T09:51:48Z</time>
      </trkpt>
      <trkpt lat="42.2115700" lon="-8.7380730">
        <ele>14.7</ele>
        <time>2021-05-20T09:51:49Z</time>
      </trkpt>
      <trkpt lat="42.2115770" lon="-8.7380720">
        <ele>14.7</ele>
        <time>2021-05-20T09:51:50Z</time>
      </trkpt>
      <trkpt lat="42.2115860" lon="-8.7380760">
        <ele>14.7</ele>
        <time>2021-05-20T09:51:51Z</time>
      </trkpt>
      <trkpt lat="42.2115880" lon="-8.7380830">
        <ele>14.7</ele>
        <time>2021-05-20T09:51:52Z</time>
      </trkpt>
      <trkpt lat="42.2116030" lon="-8.7380870">
        <ele>14.8</ele>
        <time>2021-05-20T09:51:53Z</time>
      </trkpt>
      <trkpt lat="42.2116160" lon="-8.7380910">
        <ele>14.8</ele>
        <time>2021-05-20T09:51:54Z</time>
      </trkpt>
      <trkpt lat="42.2116220" lon="-8.7381010">
        <ele>14.8</ele>
        <time>2021-05-20T09:51:55Z</time>
      </trkpt>
      <trkpt lat="42.2116260" lon="-8.7380980">
        <ele>14.8</ele>
        <time>2021-05-20T09:51:56Z</time>
      </trkpt>
      <trkpt lat="42.2116310" lon="-8.7380890">
        <ele>14.8</ele>
        <time>2021-05-20T09:51:57Z</time>
      </trkpt>
      <trkpt lat="42.2116360" lon="-8.7380850">
        <ele>14.8</ele>
        <time>2021-05-20T09:51:58Z</time>
      </trkpt>
      <trkpt lat="42.2116430" lon="-8.7380910">
        <ele>14.8</ele>
        <time>2021-05-20T09:51:59Z</time>
      </trkpt>
      <trkpt lat="42.2116580" lon="-8.7380980">
        <ele>14.8</ele>
        <time>2021-05-20T09:52:00Z</time>
      </trkpt>
      <trkpt lat="42.2116640" lon="-8.7380950">
        <ele>14.8</ele>
        <time>2021-05-20T09:52:01Z</time>
      </trkpt>
      <trkpt lat="42.2116690" lon="-8.7380940">
        <ele>14.8</ele>
        <time>2021-05-20T09:52:02Z</time>
      </trkpt>
      <trkpt lat="42.2116780" lon="-8.7381020">
        <ele>14.8</ele>
        <time>2021-05-20T09:52:03Z</time>
      </trkpt>
      <trkpt lat="42.2116850" lon="-8.7381080">
        <ele>15.0</ele>
        <time>2021-05-20T09:52:04Z</time>
      </trkpt>
      <trkpt lat="42.2116890" lon="-8.7381130">
        <ele>15.0</ele>
        <time>2021-05-20T09:52:05Z</time>
      </trkpt>
      <trkpt lat="42.2116870" lon="-8.7381110">
        <ele>15.0</ele>
        <time>2021-05-20T09:52:06Z</time>
      </trkpt>
      <trkpt lat="42.2116910" lon="-8.7381090">
        <ele>15.0</ele>
        <time>2021-05-20T09:52:07Z</time>
      </trkpt>
      <trkpt lat="42.2117030" lon="-8.7381090">
        <ele>15.0</ele>
        <time>2021-05-20T09:52:08Z</time>
      </trkpt>
      <trkpt lat="42.2117070" lon="-8.7381050">
        <ele>15.0</ele>
        <time>2021-05-20T09:52:09Z</time>
      </trkpt>
      <trkpt lat="42.2117000" lon="-8.7381000">
        <ele>15.0</ele>
        <time>2021-05-20T09:52:10Z</time>
      </trkpt>
      <trkpt lat="42.2117030" lon="-8.7380900">
        <ele>15.0</ele>
        <time>2021-05-20T09:52:11Z</time>
      </trkpt>
      <trkpt lat="42.2116980" lon="-8.7380820">
        <ele>15.0</ele>
        <time>2021-05-20T09:52:12Z</time>
      </trkpt>
      <trkpt lat="42.2116940" lon="-8.7380770">
        <ele>14.9</ele>
        <time>2021-05-20T09:52:13Z</time>
      </trkpt>
      <trkpt lat="42.2116890" lon="-8.7380740">
        <ele>14.9</ele>
        <time>2021-05-20T09:52:14Z</time>
      </trkpt>
      <trkpt lat="42.2116900" lon="-8.7380610">
        <ele>14.9</ele>
        <time>2021-05-20T09:52:15Z</time>
      </trkpt>
      <trkpt lat="42.2116840" lon="-8.7380610">
        <ele>14.9</ele>
        <time>2021-05-20T09:52:16Z</time>
      </trkpt>
      <trkpt lat="42.2116830" lon="-8.7380600">
        <ele>14.9</ele>
        <time>2021-05-20T09:52:17Z</time>
      </trkpt>
      <trkpt lat="42.2116720" lon="-8.7380560">
        <ele>14.9</ele>
        <time>2021-05-20T09:52:18Z</time>
      </trkpt>
      <trkpt lat="42.2116670" lon="-8.7380420">
        <ele>14.9</ele>
        <time>2021-05-20T09:52:19Z</time>
      </trkpt>
      <trkpt lat="42.2116540" lon="-8.7380410">
        <ele>14.9</ele>
        <time>2021-05-20T09:52:20Z</time>
      </trkpt>
      <trkpt lat="42.2116470" lon="-8.7380480">
        <ele>14.9</ele>
        <time>2021-05-20T09:52:21Z</time>
      </trkpt>
      <trkpt lat="42.2116380" lon="-8.7380500">
        <ele>14.9</ele>
        <time>2021-05-20T09:52:22Z</time>
      </trkpt>
      <trkpt lat="42.2116090" lon="-8.7380640">
        <ele>15.0</ele>
        <time>2021-05-20T09:52:23Z</time>
      </trkpt>
      <trkpt lat="42.2116020" lon="-8.7380720">
        <ele>15.0</ele>
        <time>2021-05-20T09:52:24Z</time>
      </trkpt>
      <trkpt lat="42.2115960" lon="-8.7380790">
        <ele>15.0</ele>
        <time>2021-05-20T09:52:25Z</time>
      </trkpt>
      <trkpt lat="42.2115920" lon="-8.7380870">
        <ele>15.0</ele>
        <time>2021-05-20T09:52:26Z</time>
      </trkpt>
      <trkpt lat="42.2115870" lon="-8.7380840">
        <ele>15.0</ele>
        <time>2021-05-20T09:52:27Z</time>
      </trkpt>
      <trkpt lat="42.2115870" lon="-8.7380770">
        <ele>15.0</ele>
        <time>2021-05-20T09:52:28Z</time>
      </trkpt>
      <trkpt lat="42.2115920" lon="-8.7380700">
        <ele>15.0</ele>
        <time>2021-05-20T09:52:29Z</time>
      </trkpt>
      <trkpt lat="42.2115870" lon="-8.7380660">
        <ele>15.0</ele>
        <time>2021-05-20T09:52:30Z</time>
      </trkpt>
      <trkpt lat="42.2115910" lon="-8.7380780">
        <ele>15.0</ele>
        <time>2021-05-20T09:52:31Z</time>
      </trkpt>
      <trkpt lat="42.2116010" lon="-8.7380940">
        <ele>15.0</ele>
        <time>2021-05-20T09:52:32Z</time>
      </trkpt>
      <trkpt lat="42.2116110" lon="-8.7381020">
        <ele>15.0</ele>
        <time>2021-05-20T09:52:33Z</time>
      </trkpt>
      <trkpt lat="42.2116100" lon="-8.7381050">
        <ele>15.0</ele>
        <time>2021-05-20T09:52:34Z</time>
      </trkpt>
      <trkpt lat="42.2116110" lon="-8.7380990">
        <ele>15.0</ele>
        <time>2021-05-20T09:52:35Z</time>
      </trkpt>
      <trkpt lat="42.2116110" lon="-8.7380920">
        <ele>15.0</ele>
        <time>2021-05-20T09:52:36Z</time>
      </trkpt>
      <trkpt lat="42.2116100" lon="-8.7380860">
        <ele>15.0</ele>
        <time>2021-05-20T09:52:37Z</time>
      </trkpt>
      <trkpt lat="42.2116120" lon="-8.7380790">
        <ele>15.0</ele>
        <time>2021-05-20T09:52:38Z</time>
      </trkpt>
      <trkpt lat="42.2116170" lon="-8.7380790">
        <ele>15.0</ele>
        <time>2021-05-20T09:52:39Z</time>
      </trkpt>
      <trkpt lat="42.2116270" lon="-8.7380720">
        <ele>15.0</ele>
        <time>2021-05-20T09:52:40Z</time>
      </trkpt>
      <trkpt lat="42.2116290" lon="-8.7380540">
        <ele>15.0</ele>
        <time>2021-05-20T09:52:41Z</time>
      </trkpt>
      <trkpt lat="42.2116380" lon="-8.7380370">
        <ele>15.0</ele>
        <time>2021-05-20T09:52:42Z</time>
      </trkpt>
      <trkpt lat="42.2116460" lon="-8.7380180">
        <ele>15.0</ele>
        <time>2021-05-20T09:52:43Z</time>
      </trkpt>
      <trkpt lat="42.2116470" lon="-8.7380080">
        <ele>15.0</ele>
        <time>2021-05-20T09:52:44Z</time>
      </trkpt>
      <trkpt lat="42.2116500" lon="-8.7380020">
        <ele>15.0</ele>
        <time>2021-05-20T09:52:45Z</time>
      </trkpt>
      <trkpt lat="42.2116540" lon="-8.7379740">
        <ele>15.0</ele>
        <time>2021-05-20T09:52:46Z</time>
      </trkpt>
      <trkpt lat="42.2116570" lon="-8.7379640">
        <ele>15.0</ele>
        <time>2021-05-20T09:52:47Z</time>
      </trkpt>
      <trkpt lat="42.2116590" lon="-8.7379530">
        <ele>15.0</ele>
        <time>2021-05-20T09:52:48Z</time>
      </trkpt>
      <trkpt lat="42.2116690" lon="-8.7379480">
        <ele>15.0</ele>
        <time>2021-05-20T09:52:49Z</time>
      </trkpt>
      <trkpt lat="42.2116740" lon="-8.7379420">
        <ele>15.0</ele>
        <time>2021-05-20T09:52:50Z</time>
      </trkpt>
      <trkpt lat="42.2116870" lon="-8.7379360">
        <ele>15.0</ele>
        <time>2021-05-20T09:52:51Z</time>
      </trkpt>
      <trkpt lat="42.2116990" lon="-8.7379250">
        <ele>15.0</ele>
        <time>2021-05-20T09:52:52Z</time>
      </trkpt>
      <trkpt lat="42.2117160" lon="-8.7378950">
        <ele>15.0</ele>
        <time>2021-05-20T09:52:53Z</time>
      </trkpt>
      <trkpt lat="42.2117240" lon="-8.7378720">
        <ele>15.0</ele>
        <time>2021-05-20T09:52:54Z</time>
      </trkpt>
      <trkpt lat="42.2117360" lon="-8.7378390">
        <ele>15.0</ele>
        <time>2021-05-20T09:52:55Z</time>
      </trkpt>
      <trkpt lat="42.2117400" lon="-8.7378270">
        <ele>15.0</ele>
        <time>2021-05-20T09:52:56Z</time>
      </trkpt>
      <trkpt lat="42.2117510" lon="-8.7378090">
        <ele>14.9</ele>
        <time>2021-05-20T09:52:57Z</time>
      </trkpt>
      <trkpt lat="42.2117570" lon="-8.7377970">
        <ele>14.9</ele>
        <time>2021-05-20T09:52:58Z</time>
      </trkpt>
      <trkpt lat="42.2117840" lon="-8.7377680">
        <ele>14.9</ele>
        <time>2021-05-20T09:52:59Z</time>
      </trkpt>
      <trkpt lat="42.2117880" lon="-8.7377560">
        <ele>14.9</ele>
        <time>2021-05-20T09:53:00Z</time>
      </trkpt>
      <trkpt lat="42.2117830" lon="-8.7377370">
        <ele>14.9</ele>
        <time>2021-05-20T09:53:01Z</time>
      </trkpt>
      <trkpt lat="42.2117830" lon="-8.7377290">
        <ele>14.9</ele>
        <time>2021-05-20T09:53:02Z</time>
      </trkpt>
      <trkpt lat="42.2117830" lon="-8.7377210">
        <ele>14.9</ele>
        <time>2021-05-20T09:53:03Z</time>
      </trkpt>
      <trkpt lat="42.2117850" lon="-8.7377090">
        <ele>14.9</ele>
        <time>2021-05-20T09:53:04Z</time>
      </trkpt>
      <trkpt lat="42.2117790" lon="-8.7376840">
        <ele>14.9</ele>
        <time>2021-05-20T09:53:05Z</time>
      </trkpt>
      <trkpt lat="42.2117770" lon="-8.7376700">
        <ele>15.0</ele>
        <time>2021-05-20T09:53:06Z</time>
      </trkpt>
      <trkpt lat="42.2117740" lon="-8.7376550">
        <ele>15.0</ele>
        <time>2021-05-20T09:53:07Z</time>
      </trkpt>
      <trkpt lat="42.2117720" lon="-8.7376270">
        <ele>15.0</ele>
        <time>2021-05-20T09:53:08Z</time>
      </trkpt>
      <trkpt lat="42.2117700" lon="-8.7376150">
        <ele>15.0</ele>
        <time>2021-05-20T09:53:09Z</time>
      </trkpt>
      <trkpt lat="42.2117670" lon="-8.7376020">
        <ele>15.0</ele>
        <time>2021-05-20T09:53:10Z</time>
      </trkpt>
      <trkpt lat="42.2117740" lon="-8.7375710">
        <ele>15.0</ele>
        <time>2021-05-20T09:53:11Z</time>
      </trkpt>
      <trkpt lat="42.2117790" lon="-8.7375640">
        <ele>15.0</ele>
        <time>2021-05-20T09:53:12Z</time>
      </trkpt>
      <trkpt lat="42.2117830" lon="-8.7375580">
        <ele>15.0</ele>
        <time>2021-05-20T09:53:13Z</time>
      </trkpt>
      <trkpt lat="42.2117830" lon="-8.7375400">
        <ele>15.0</ele>
        <time>2021-05-20T09:53:14Z</time>
      </trkpt>
      <trkpt lat="42.2117750" lon="-8.7375230">
        <ele>15.0</ele>
        <time>2021-05-20T09:53:15Z</time>
      </trkpt>
      <trkpt lat="42.2117660" lon="-8.7374830">
        <ele>15.0</ele>
        <time>2021-05-20T09:53:16Z</time>
      </trkpt>
      <trkpt lat="42.2117630" lon="-8.7374670">
        <ele>15.0</ele>
        <time>2021-05-20T09:53:17Z</time>
      </trkpt>
      <trkpt lat="42.2117620" lon="-8.7374440">
        <ele>15.0</ele>
        <time>2021-05-20T09:53:18Z</time>
      </trkpt>
      <trkpt lat="42.2117590" lon="-8.7374220">
        <ele>15.0</ele>
        <time>2021-05-20T09:53:19Z</time>
      </trkpt>
      <trkpt lat="42.2117610" lon="-8.7373920">
        <ele>15.0</ele>
        <time>2021-05-20T09:53:20Z</time>
      </trkpt>
      <trkpt lat="42.2117610" lon="-8.7373790">
        <ele>15.0</ele>
        <time>2021-05-20T09:53:22Z</time>
      </trkpt>
      <trkpt lat="42.2117600" lon="-8.7373660">
        <ele>15.0</ele>
        <time>2021-05-20T09:53:23Z</time>
      </trkpt>
      <trkpt lat="42.2117590" lon="-8.7373440">
        <ele>15.0</ele>
        <time>2021-05-20T09:53:24Z</time>
      </trkpt>
      <trkpt lat="42.2117550" lon="-8.7373180">
        <ele>15.0</ele>
        <time>2021-05-20T09:53:25Z</time>
      </trkpt>
      <trkpt lat="42.2117550" lon="-8.7372750">
        <ele>15.0</ele>
        <time>2021-05-20T09:53:26Z</time>
      </trkpt>
      <trkpt lat="42.2117560" lon="-8.7372620">
        <ele>15.0</ele>
        <time>2021-05-20T09:53:27Z</time>
      </trkpt>
      <trkpt lat="42.2117620" lon="-8.7372440">
        <ele>15.0</ele>
        <time>2021-05-20T09:53:28Z</time>
      </trkpt>
      <trkpt lat="42.2117610" lon="-8.7372160">
        <ele>15.0</ele>
        <time>2021-05-20T09:53:29Z</time>
      </trkpt>
      <trkpt lat="42.2117580" lon="-8.7372000">
        <ele>15.0</ele>
        <time>2021-05-20T09:53:30Z</time>
      </trkpt>
      <trkpt lat="42.2117610" lon="-8.7371930">
        <ele>15.0</ele>
        <time>2021-05-20T09:53:31Z</time>
      </trkpt>
      <trkpt lat="42.2117710" lon="-8.7371800">
        <ele>15.0</ele>
        <time>2021-05-20T09:53:32Z</time>
      </trkpt>
      <trkpt lat="42.2117940" lon="-8.7371810">
        <ele>15.0</ele>
        <time>2021-05-20T09:53:33Z</time>
      </trkpt>
      <trkpt lat="42.2118050" lon="-8.7371720">
        <ele>15.0</ele>
        <time>2021-05-20T09:53:34Z</time>
      </trkpt>
      <trkpt lat="42.2118230" lon="-8.7371530">
        <ele>15.0</ele>
        <time>2021-05-20T09:53:35Z</time>
      </trkpt>
      <trkpt lat="42.2118300" lon="-8.7371500">
        <ele>15.0</ele>
        <time>2021-05-20T09:53:36Z</time>
      </trkpt>
      <trkpt lat="42.2118370" lon="-8.7371460">
        <ele>15.0</ele>
        <time>2021-05-20T09:53:37Z</time>
      </trkpt>
      <trkpt lat="42.2118650" lon="-8.7371390">
        <ele>15.0</ele>
        <time>2021-05-20T09:53:38Z</time>
      </trkpt>
      <trkpt lat="42.2118810" lon="-8.7371370">
        <ele>15.0</ele>
        <time>2021-05-20T09:53:39Z</time>
      </trkpt>
      <trkpt lat="42.2118960" lon="-8.7371160">
        <ele>15.0</ele>
        <time>2021-05-20T09:53:40Z</time>
      </trkpt>
      <trkpt lat="42.2119050" lon="-8.7371100">
        <ele>15.0</ele>
        <time>2021-05-20T09:53:41Z</time>
      </trkpt>
      <trkpt lat="42.2119140" lon="-8.7371030">
        <ele>15.0</ele>
        <time>2021-05-20T09:53:42Z</time>
      </trkpt>
      <trkpt lat="42.2119380" lon="-8.7370870">
        <ele>15.0</ele>
        <time>2021-05-20T09:53:43Z</time>
      </trkpt>
      <trkpt lat="42.2119680" lon="-8.7370730">
        <ele>15.0</ele>
        <time>2021-05-20T09:53:44Z</time>
      </trkpt>
      <trkpt lat="42.2120190" lon="-8.7370380">
        <ele>15.0</ele>
        <time>2021-05-20T09:53:45Z</time>
      </trkpt>
      <trkpt lat="42.2120300" lon="-8.7370020">
        <ele>15.0</ele>
        <time>2021-05-20T09:53:46Z</time>
      </trkpt>
      <trkpt lat="42.2120430" lon="-8.7369860">
        <ele>15.0</ele>
        <time>2021-05-20T09:53:47Z</time>
      </trkpt>
      <trkpt lat="42.2120720" lon="-8.7369600">
        <ele>15.3</ele>
        <time>2021-05-20T09:53:48Z</time>
      </trkpt>
      <trkpt lat="42.2121220" lon="-8.7369530">
        <ele>15.5</ele>
        <time>2021-05-20T09:53:49Z</time>
      </trkpt>
      <trkpt lat="42.2121540" lon="-8.7369410">
        <ele>15.7</ele>
        <time>2021-05-20T09:53:50Z</time>
      </trkpt>
      <trkpt lat="42.2121700" lon="-8.7369320">
        <ele>15.7</ele>
        <time>2021-05-20T09:53:51Z</time>
      </trkpt>
      <trkpt lat="42.2121790" lon="-8.7369130">
        <ele>15.8</ele>
        <time>2021-05-20T09:53:52Z</time>
      </trkpt>
      <trkpt lat="42.2121880" lon="-8.7369030">
        <ele>16.0</ele>
        <time>2021-05-20T09:53:53Z</time>
      </trkpt>
      <trkpt lat="42.2121960" lon="-8.7368920">
        <ele>16.0</ele>
        <time>2021-05-20T09:53:54Z</time>
      </trkpt>
      <trkpt lat="42.2122240" lon="-8.7368670">
        <ele>16.4</ele>
        <time>2021-05-20T09:53:55Z</time>
      </trkpt>
      <trkpt lat="42.2122610" lon="-8.7368500">
        <ele>16.8</ele>
        <time>2021-05-20T09:53:56Z</time>
      </trkpt>
      <trkpt lat="42.2122930" lon="-8.7368350">
        <ele>17.1</ele>
        <time>2021-05-20T09:53:57Z</time>
      </trkpt>
      <trkpt lat="42.2122990" lon="-8.7368220">
        <ele>17.2</ele>
        <time>2021-05-20T09:53:58Z</time>
      </trkpt>
      <trkpt lat="42.2123040" lon="-8.7368190">
        <ele>17.2</ele>
        <time>2021-05-20T09:53:59Z</time>
      </trkpt>
      <trkpt lat="42.2123140" lon="-8.7368060">
        <ele>17.5</ele>
        <time>2021-05-20T09:54:00Z</time>
      </trkpt>
      <trkpt lat="42.2123150" lon="-8.7367870">
        <ele>17.6</ele>
        <time>2021-05-20T09:54:01Z</time>
      </trkpt>
      <trkpt lat="42.2123180" lon="-8.7367770">
        <ele>17.6</ele>
        <time>2021-05-20T09:54:02Z</time>
      </trkpt>
      <trkpt lat="42.2123210" lon="-8.7367670">
        <ele>17.6</ele>
        <time>2021-05-20T09:54:03Z</time>
      </trkpt>
      <trkpt lat="42.2123240" lon="-8.7367570">
        <ele>17.5</ele>
        <time>2021-05-20T09:54:04Z</time>
      </trkpt>
      <trkpt lat="42.2123220" lon="-8.7367520">
        <ele>17.5</ele>
        <time>2021-05-20T09:54:05Z</time>
      </trkpt>
      <trkpt lat="42.2123200" lon="-8.7367430">
        <ele>17.7</ele>
        <time>2021-05-20T09:54:06Z</time>
      </trkpt>
      <trkpt lat="42.2123230" lon="-8.7367300">
        <ele>17.7</ele>
        <time>2021-05-20T09:54:07Z</time>
      </trkpt>
      <trkpt lat="42.2123320" lon="-8.7367200">
        <ele>17.6</ele>
        <time>2021-05-20T09:54:08Z</time>
      </trkpt>
      <trkpt lat="42.2123350" lon="-8.7367100">
        <ele>17.6</ele>
        <time>2021-05-20T09:54:09Z</time>
      </trkpt>
      <trkpt lat="42.2123400" lon="-8.7367050">
        <ele>17.8</ele>
        <time>2021-05-20T09:54:10Z</time>
      </trkpt>
      <trkpt lat="42.2123550" lon="-8.7366900">
        <ele>18.0</ele>
        <time>2021-05-20T09:54:11Z</time>
      </trkpt>
      <trkpt lat="42.2123750" lon="-8.7366690">
        <ele>18.2</ele>
        <time>2021-05-20T09:54:12Z</time>
      </trkpt>
      <trkpt lat="42.2123720" lon="-8.7366560">
        <ele>18.1</ele>
        <time>2021-05-20T09:54:13Z</time>
      </trkpt>
      <trkpt lat="42.2123680" lon="-8.7366420">
        <ele>18.1</ele>
        <time>2021-05-20T09:54:14Z</time>
      </trkpt>
      <trkpt lat="42.2123850" lon="-8.7366010">
        <ele>18.4</ele>
        <time>2021-05-20T09:54:15Z</time>
      </trkpt>
      <trkpt lat="42.2124020" lon="-8.7365830">
        <ele>18.4</ele>
        <time>2021-05-20T09:54:16Z</time>
      </trkpt>
      <trkpt lat="42.2124450" lon="-8.7365670">
        <ele>19.0</ele>
        <time>2021-05-20T09:54:17Z</time>
      </trkpt>
      <trkpt lat="42.2124800" lon="-8.7365430">
        <ele>19.2</ele>
        <time>2021-05-20T09:54:18Z</time>
      </trkpt>
      <trkpt lat="42.2124970" lon="-8.7365360">
        <ele>19.2</ele>
        <time>2021-05-20T09:54:19Z</time>
      </trkpt>
      <trkpt lat="42.2125290" lon="-8.7365180">
        <ele>19.6</ele>
        <time>2021-05-20T09:54:20Z</time>
      </trkpt>
      <trkpt lat="42.2125380" lon="-8.7365130">
        <ele>19.7</ele>
        <time>2021-05-20T09:54:21Z</time>
      </trkpt>
      <trkpt lat="42.2125440" lon="-8.7364930">
        <ele>19.7</ele>
        <time>2021-05-20T09:54:22Z</time>
      </trkpt>
      <trkpt lat="42.2125420" lon="-8.7364830">
        <ele>19.9</ele>
        <time>2021-05-20T09:54:23Z</time>
      </trkpt>
      <trkpt lat="42.2125400" lon="-8.7364720">
        <ele>19.9</ele>
        <time>2021-05-20T09:54:24Z</time>
      </trkpt>
      <trkpt lat="42.2125380" lon="-8.7364620">
        <ele>19.9</ele>
        <time>2021-05-20T09:54:25Z</time>
      </trkpt>
      <trkpt lat="42.2125380" lon="-8.7364570">
        <ele>19.9</ele>
        <time>2021-05-20T09:54:26Z</time>
      </trkpt>
      <trkpt lat="42.2125370" lon="-8.7364480">
        <ele>20.1</ele>
        <time>2021-05-20T09:54:27Z</time>
      </trkpt>
      <trkpt lat="42.2125320" lon="-8.7364400">
        <ele>20.1</ele>
        <time>2021-05-20T09:54:28Z</time>
      </trkpt>
      <trkpt lat="42.2125280" lon="-8.7364360">
        <ele>19.8</ele>
        <time>2021-05-20T09:54:29Z</time>
      </trkpt>
      <trkpt lat="42.2125190" lon="-8.7364310">
        <ele>19.8</ele>
        <time>2021-05-20T09:54:30Z</time>
      </trkpt>
      <trkpt lat="42.2125170" lon="-8.7364310">
        <ele>19.8</ele>
        <time>2021-05-20T09:54:31Z</time>
      </trkpt>
      <trkpt lat="42.2125140" lon="-8.7364320">
        <ele>19.8</ele>
        <time>2021-05-20T09:54:32Z</time>
      </trkpt>
      <trkpt lat="42.2125160" lon="-8.7364270">
        <ele>19.8</ele>
        <time>2021-05-20T09:54:33Z</time>
      </trkpt>
      <trkpt lat="42.2124860" lon="-8.7364250">
        <ele>19.5</ele>
        <time>2021-05-20T09:54:34Z</time>
      </trkpt>
      <trkpt lat="42.2124580" lon="-8.7364340">
        <ele>19.3</ele>
        <time>2021-05-20T09:54:35Z</time>
      </trkpt>
      <trkpt lat="42.2124480" lon="-8.7364360">
        <ele>19.3</ele>
        <time>2021-05-20T09:54:36Z</time>
      </trkpt>
      <trkpt lat="42.2124290" lon="-8.7364270">
        <ele>19.0</ele>
        <time>2021-05-20T09:54:37Z</time>
      </trkpt>
      <trkpt lat="42.2124170" lon="-8.7364150">
        <ele>19.0</ele>
        <time>2021-05-20T09:54:38Z</time>
      </trkpt>
      <trkpt lat="42.2124040" lon="-8.7364040">
        <ele>18.9</ele>
        <time>2021-05-20T09:54:39Z</time>
      </trkpt>
      <trkpt lat="42.2123690" lon="-8.7363790">
        <ele>18.6</ele>
        <time>2021-05-20T09:54:40Z</time>
      </trkpt>
      <trkpt lat="42.2123480" lon="-8.7363730">
        <ele>18.6</ele>
        <time>2021-05-20T09:54:41Z</time>
      </trkpt>
      <trkpt lat="42.2123500" lon="-8.7363590">
        <ele>18.8</ele>
        <time>2021-05-20T09:54:42Z</time>
      </trkpt>
      <trkpt lat="42.2123470" lon="-8.7363460">
        <ele>18.7</ele>
        <time>2021-05-20T09:54:43Z</time>
      </trkpt>
      <trkpt lat="42.2123440" lon="-8.7363290">
        <ele>18.7</ele>
        <time>2021-05-20T09:54:44Z</time>
      </trkpt>
      <trkpt lat="42.2123390" lon="-8.7362930">
        <ele>18.6</ele>
        <time>2021-05-20T09:54:45Z</time>
      </trkpt>
      <trkpt lat="42.2123310" lon="-8.7362800">
        <ele>18.6</ele>
        <time>2021-05-20T09:54:46Z</time>
      </trkpt>
      <trkpt lat="42.2123190" lon="-8.7362700">
        <ele>18.7</ele>
        <time>2021-05-20T09:54:47Z</time>
      </trkpt>
      <trkpt lat="42.2123000" lon="-8.7362580">
        <ele>18.4</ele>
        <time>2021-05-20T09:54:48Z</time>
      </trkpt>
      <trkpt lat="42.2122860" lon="-8.7362420">
        <ele>18.4</ele>
        <time>2021-05-20T09:54:49Z</time>
      </trkpt>
      <trkpt lat="42.2122750" lon="-8.7362320">
        <ele>18.2</ele>
        <time>2021-05-20T09:54:50Z</time>
      </trkpt>
      <trkpt lat="42.2122650" lon="-8.7362310">
        <ele>18.2</ele>
        <time>2021-05-20T09:54:51Z</time>
      </trkpt>
      <trkpt lat="42.2122710" lon="-8.7362180">
        <ele>18.2</ele>
        <time>2021-05-20T09:54:52Z</time>
      </trkpt>
      <trkpt lat="42.2122800" lon="-8.7362050">
        <ele>18.5</ele>
        <time>2021-05-20T09:54:53Z</time>
      </trkpt>
      <trkpt lat="42.2122650" lon="-8.7361900">
        <ele>18.3</ele>
        <time>2021-05-20T09:54:54Z</time>
      </trkpt>
      <trkpt lat="42.2122670" lon="-8.7361680">
        <ele>18.3</ele>
        <time>2021-05-20T09:54:55Z</time>
      </trkpt>
      <trkpt lat="42.2122720" lon="-8.7361490">
        <ele>18.3</ele>
        <time>2021-05-20T09:54:56Z</time>
      </trkpt>
      <trkpt lat="42.2122830" lon="-8.7361160">
        <ele>18.7</ele>
        <time>2021-05-20T09:54:57Z</time>
      </trkpt>
      <trkpt lat="42.2122890" lon="-8.7361040">
        <ele>18.8</ele>
        <time>2021-05-20T09:54:58Z</time>
      </trkpt>
      <trkpt lat="42.2123340" lon="-8.7360600">
        <ele>19.3</ele>
        <time>2021-05-20T09:54:59Z</time>
      </trkpt>
      <trkpt lat="42.2123460" lon="-8.7360320">
        <ele>19.6</ele>
        <time>2021-05-20T09:55:00Z</time>
      </trkpt>
      <trkpt lat="42.2123730" lon="-8.7360000">
        <ele>20.0</ele>
        <time>2021-05-20T09:55:01Z</time>
      </trkpt>
      <trkpt lat="42.2123810" lon="-8.7359900">
        <ele>20.0</ele>
        <time>2021-05-20T09:55:02Z</time>
      </trkpt>
      <trkpt lat="42.2123990" lon="-8.7359640">
        <ele>20.2</ele>
        <time>2021-05-20T09:55:03Z</time>
      </trkpt>
      <trkpt lat="42.2124090" lon="-8.7359580">
        <ele>20.4</ele>
        <time>2021-05-20T09:55:04Z</time>
      </trkpt>
      <trkpt lat="42.2124190" lon="-8.7359390">
        <ele>20.4</ele>
        <time>2021-05-20T09:55:05Z</time>
      </trkpt>
      <trkpt lat="42.2124220" lon="-8.7359220">
        <ele>20.6</ele>
        <time>2021-05-20T09:55:06Z</time>
      </trkpt>
      <trkpt lat="42.2124210" lon="-8.7358920">
        <ele>20.6</ele>
        <time>2021-05-20T09:55:07Z</time>
      </trkpt>
      <trkpt lat="42.2124180" lon="-8.7358830">
        <ele>20.8</ele>
        <time>2021-05-20T09:55:08Z</time>
      </trkpt>
      <trkpt lat="42.2124150" lon="-8.7358730">
        <ele>20.8</ele>
        <time>2021-05-20T09:55:09Z</time>
      </trkpt>
      <trkpt lat="42.2123960" lon="-8.7358530">
        <ele>20.6</ele>
        <time>2021-05-20T09:55:10Z</time>
      </trkpt>
      <trkpt lat="42.2123830" lon="-8.7358460">
        <ele>20.9</ele>
        <time>2021-05-20T09:55:11Z</time>
      </trkpt>
      <trkpt lat="42.2123790" lon="-8.7358380">
        <ele>20.9</ele>
        <time>2021-05-20T09:55:12Z</time>
      </trkpt>
      <trkpt lat="42.2123860" lon="-8.7358280">
        <ele>20.9</ele>
        <time>2021-05-20T09:55:13Z</time>
      </trkpt>
      <trkpt lat="42.2123810" lon="-8.7358220">
        <ele>20.9</ele>
        <time>2021-05-20T09:55:14Z</time>
      </trkpt>
      <trkpt lat="42.2123900" lon="-8.7358030">
        <ele>21.2</ele>
        <time>2021-05-20T09:55:15Z</time>
      </trkpt>
      <trkpt lat="42.2123870" lon="-8.7357790">
        <ele>21.2</ele>
        <time>2021-05-20T09:55:16Z</time>
      </trkpt>
      <trkpt lat="42.2123900" lon="-8.7357560">
        <ele>21.5</ele>
        <time>2021-05-20T09:55:17Z</time>
      </trkpt>
      <trkpt lat="42.2123990" lon="-8.7357130">
        <ele>21.7</ele>
        <time>2021-05-20T09:55:18Z</time>
      </trkpt>
      <trkpt lat="42.2123960" lon="-8.7356990">
        <ele>21.7</ele>
        <time>2021-05-20T09:55:19Z</time>
      </trkpt>
      <trkpt lat="42.2123790" lon="-8.7356660">
        <ele>22.0</ele>
        <time>2021-05-20T09:55:20Z</time>
      </trkpt>
      <trkpt lat="42.2123750" lon="-8.7356580">
        <ele>22.0</ele>
        <time>2021-05-20T09:55:21Z</time>
      </trkpt>
      <trkpt lat="42.2123770" lon="-8.7356330">
        <ele>22.0</ele>
        <time>2021-05-20T09:55:22Z</time>
      </trkpt>
      <trkpt lat="42.2123830" lon="-8.7356130">
        <ele>22.2</ele>
        <time>2021-05-20T09:55:23Z</time>
      </trkpt>
      <trkpt lat="42.2123850" lon="-8.7355860">
        <ele>22.4</ele>
        <time>2021-05-20T09:55:24Z</time>
      </trkpt>
      <trkpt lat="42.2123910" lon="-8.7355660">
        <ele>22.4</ele>
        <time>2021-05-20T09:55:25Z</time>
      </trkpt>
      <trkpt lat="42.2123980" lon="-8.7355480">
        <ele>22.4</ele>
        <time>2021-05-20T09:55:26Z</time>
      </trkpt>
      <trkpt lat="42.2124100" lon="-8.7355370">
        <ele>22.5</ele>
        <time>2021-05-20T09:55:27Z</time>
      </trkpt>
      <trkpt lat="42.2124220" lon="-8.7355250">
        <ele>22.5</ele>
        <time>2021-05-20T09:55:28Z</time>
      </trkpt>
      <trkpt lat="42.2124250" lon="-8.7355030">
        <ele>22.6</ele>
        <time>2021-05-20T09:55:30Z</time>
      </trkpt>
      <trkpt lat="42.2124220" lon="-8.7354880">
        <ele>22.6</ele>
        <time>2021-05-20T09:55:31Z</time>
      </trkpt>
      <trkpt lat="42.2124260" lon="-8.7354670">
        <ele>22.6</ele>
        <time>2021-05-20T09:55:32Z</time>
      </trkpt>
      <trkpt lat="42.2124340" lon="-8.7354580">
        <ele>22.7</ele>
        <time>2021-05-20T09:55:33Z</time>
      </trkpt>
      <trkpt lat="42.2124420" lon="-8.7354490">
        <ele>22.5</ele>
        <time>2021-05-20T09:55:34Z</time>
      </trkpt>
      <trkpt lat="42.2124500" lon="-8.7354400">
        <ele>22.5</ele>
        <time>2021-05-20T09:55:35Z</time>
      </trkpt>
      <trkpt lat="42.2124650" lon="-8.7354160">
        <ele>22.6</ele>
        <time>2021-05-20T09:55:36Z</time>
      </trkpt>
      <trkpt lat="42.2124700" lon="-8.7354090">
        <ele>22.4</ele>
        <time>2021-05-20T09:55:37Z</time>
      </trkpt>
      <trkpt lat="42.2124750" lon="-8.7354020">
        <ele>22.4</ele>
        <time>2021-05-20T09:55:38Z</time>
      </trkpt>
      <trkpt lat="42.2124810" lon="-8.7353770">
        <ele>22.4</ele>
        <time>2021-05-20T09:55:39Z</time>
      </trkpt>
      <trkpt lat="42.2124750" lon="-8.7353630">
        <ele>22.4</ele>
        <time>2021-05-20T09:55:40Z</time>
      </trkpt>
      <trkpt lat="42.2124700" lon="-8.7353410">
        <ele>22.4</ele>
        <time>2021-05-20T09:55:41Z</time>
      </trkpt>
      <trkpt lat="42.2124670" lon="-8.7353260">
        <ele>22.5</ele>
        <time>2021-05-20T09:55:42Z</time>
      </trkpt>
      <trkpt lat="42.2124680" lon="-8.7353030">
        <ele>22.4</ele>
        <time>2021-05-20T09:55:43Z</time>
      </trkpt>
      <trkpt lat="42.2124740" lon="-8.7352930">
        <ele>22.4</ele>
        <time>2021-05-20T09:55:44Z</time>
      </trkpt>
      <trkpt lat="42.2124790" lon="-8.7352820">
        <ele>22.3</ele>
        <time>2021-05-20T09:55:45Z</time>
      </trkpt>
      <trkpt lat="42.2124840" lon="-8.7352720">
        <ele>22.3</ele>
        <time>2021-05-20T09:55:46Z</time>
      </trkpt>
      <trkpt lat="42.2125240" lon="-8.7352520">
        <ele>22.2</ele>
        <time>2021-05-20T09:55:47Z</time>
      </trkpt>
      <trkpt lat="42.2125420" lon="-8.7352430">
        <ele>22.1</ele>
        <time>2021-05-20T09:55:48Z</time>
      </trkpt>
      <trkpt lat="42.2125360" lon="-8.7352250">
        <ele>22.1</ele>
        <time>2021-05-20T09:55:49Z</time>
      </trkpt>
      <trkpt lat="42.2125290" lon="-8.7352090">
        <ele>22.1</ele>
        <time>2021-05-20T09:55:50Z</time>
      </trkpt>
      <trkpt lat="42.2125240" lon="-8.7351840">
        <ele>22.1</ele>
        <time>2021-05-20T09:55:51Z</time>
      </trkpt>
      <trkpt lat="42.2125210" lon="-8.7351720">
        <ele>22.1</ele>
        <time>2021-05-20T09:55:52Z</time>
      </trkpt>
      <trkpt lat="42.2125180" lon="-8.7351600">
        <ele>22.1</ele>
        <time>2021-05-20T09:55:53Z</time>
      </trkpt>
      <trkpt lat="42.2125070" lon="-8.7351460">
        <ele>22.0</ele>
        <time>2021-05-20T09:55:54Z</time>
      </trkpt>
      <trkpt lat="42.2124980" lon="-8.7351310">
        <ele>22.1</ele>
        <time>2021-05-20T09:55:55Z</time>
      </trkpt>
      <trkpt lat="42.2124890" lon="-8.7351060">
        <ele>22.1</ele>
        <time>2021-05-20T09:55:56Z</time>
      </trkpt>
      <trkpt lat="42.2124840" lon="-8.7350970">
        <ele>22.1</ele>
        <time>2021-05-20T09:55:57Z</time>
      </trkpt>
      <trkpt lat="42.2124790" lon="-8.7350870">
        <ele>22.1</ele>
        <time>2021-05-20T09:55:58Z</time>
      </trkpt>
      <trkpt lat="42.2124750" lon="-8.7350710">
        <ele>22.0</ele>
        <time>2021-05-20T09:55:59Z</time>
      </trkpt>
      <trkpt lat="42.2124710" lon="-8.7350520">
        <ele>22.0</ele>
        <time>2021-05-20T09:56:00Z</time>
      </trkpt>
      <trkpt lat="42.2124660" lon="-8.7350350">
        <ele>22.1</ele>
        <time>2021-05-20T09:56:01Z</time>
      </trkpt>
      <trkpt lat="42.2124890" lon="-8.7350100">
        <ele>22.0</ele>
        <time>2021-05-20T09:56:02Z</time>
      </trkpt>
      <trkpt lat="42.2125110" lon="-8.7349760">
        <ele>21.9</ele>
        <time>2021-05-20T09:56:03Z</time>
      </trkpt>
      <trkpt lat="42.2125170" lon="-8.7349650">
        <ele>21.9</ele>
        <time>2021-05-20T09:56:04Z</time>
      </trkpt>
      <trkpt lat="42.2125180" lon="-8.7349500">
        <ele>21.9</ele>
        <time>2021-05-20T09:56:05Z</time>
      </trkpt>
      <trkpt lat="42.2125200" lon="-8.7349370">
        <ele>21.9</ele>
        <time>2021-05-20T09:56:06Z</time>
      </trkpt>
      <trkpt lat="42.2125230" lon="-8.7349240">
        <ele>21.9</ele>
        <time>2021-05-20T09:56:07Z</time>
      </trkpt>
      <trkpt lat="42.2125290" lon="-8.7349080">
        <ele>21.9</ele>
        <time>2021-05-20T09:56:08Z</time>
      </trkpt>
      <trkpt lat="42.2125330" lon="-8.7348980">
        <ele>21.8</ele>
        <time>2021-05-20T09:56:09Z</time>
      </trkpt>
      <trkpt lat="42.2125350" lon="-8.7348840">
        <ele>21.8</ele>
        <time>2021-05-20T09:56:10Z</time>
      </trkpt>
      <trkpt lat="42.2125280" lon="-8.7348550">
        <ele>21.9</ele>
        <time>2021-05-20T09:56:11Z</time>
      </trkpt>
      <trkpt lat="42.2125260" lon="-8.7348450">
        <ele>21.8</ele>
        <time>2021-05-20T09:56:12Z</time>
      </trkpt>
      <trkpt lat="42.2125230" lon="-8.7348340">
        <ele>21.8</ele>
        <time>2021-05-20T09:56:13Z</time>
      </trkpt>
      <trkpt lat="42.2125130" lon="-8.7348080">
        <ele>21.8</ele>
        <time>2021-05-20T09:56:14Z</time>
      </trkpt>
      <trkpt lat="42.2125070" lon="-8.7347990">
        <ele>21.8</ele>
        <time>2021-05-20T09:56:15Z</time>
      </trkpt>
      <trkpt lat="42.2125020" lon="-8.7347900">
        <ele>21.8</ele>
        <time>2021-05-20T09:56:16Z</time>
      </trkpt>
      <trkpt lat="42.2124810" lon="-8.7347710">
        <ele>21.9</ele>
        <time>2021-05-20T09:56:17Z</time>
      </trkpt>
      <trkpt lat="42.2124700" lon="-8.7347680">
        <ele>21.9</ele>
        <time>2021-05-20T09:56:18Z</time>
      </trkpt>
      <trkpt lat="42.2124590" lon="-8.7347650">
        <ele>21.9</ele>
        <time>2021-05-20T09:56:19Z</time>
      </trkpt>
      <trkpt lat="42.2124320" lon="-8.7347430">
        <ele>21.9</ele>
        <time>2021-05-20T09:56:20Z</time>
      </trkpt>
      <trkpt lat="42.2124250" lon="-8.7347360">
        <ele>21.9</ele>
        <time>2021-05-20T09:56:21Z</time>
      </trkpt>
      <trkpt lat="42.2124000" lon="-8.7347140">
        <ele>21.9</ele>
        <time>2021-05-20T09:56:22Z</time>
      </trkpt>
      <trkpt lat="42.2123840" lon="-8.7347040">
        <ele>21.9</ele>
        <time>2021-05-20T09:56:23Z</time>
      </trkpt>
      <trkpt lat="42.2123630" lon="-8.7346710">
        <ele>21.9</ele>
        <time>2021-05-20T09:56:24Z</time>
      </trkpt>
      <trkpt lat="42.2123570" lon="-8.7346610">
        <ele>21.9</ele>
        <time>2021-05-20T09:56:25Z</time>
      </trkpt>
      <trkpt lat="42.2123380" lon="-8.7346380">
        <ele>21.9</ele>
        <time>2021-05-20T09:56:26Z</time>
      </trkpt>
      <trkpt lat="42.2123280" lon="-8.7346330">
        <ele>21.8</ele>
        <time>2021-05-20T09:56:27Z</time>
      </trkpt>
      <trkpt lat="42.2123170" lon="-8.7346270">
        <ele>21.8</ele>
        <time>2021-05-20T09:56:28Z</time>
      </trkpt>
      <trkpt lat="42.2122920" lon="-8.7346030">
        <ele>21.8</ele>
        <time>2021-05-20T09:56:29Z</time>
      </trkpt>
      <trkpt lat="42.2122860" lon="-8.7345980">
        <ele>21.8</ele>
        <time>2021-05-20T09:56:30Z</time>
      </trkpt>
      <trkpt lat="42.2122690" lon="-8.7345660">
        <ele>21.8</ele>
        <time>2021-05-20T09:56:31Z</time>
      </trkpt>
      <trkpt lat="42.2122640" lon="-8.7345570">
        <ele>21.7</ele>
        <time>2021-05-20T09:56:32Z</time>
      </trkpt>
      <trkpt lat="42.2122480" lon="-8.7345170">
        <ele>21.7</ele>
        <time>2021-05-20T09:56:33Z</time>
      </trkpt>
      <trkpt lat="42.2122390" lon="-8.7345020">
        <ele>21.6</ele>
        <time>2021-05-20T09:56:34Z</time>
      </trkpt>
      <trkpt lat="42.2122380" lon="-8.7344770">
        <ele>21.6</ele>
        <time>2021-05-20T09:56:35Z</time>
      </trkpt>
      <trkpt lat="42.2122140" lon="-8.7344780">
        <ele>21.6</ele>
        <time>2021-05-20T09:56:36Z</time>
      </trkpt>
      <trkpt lat="42.2121920" lon="-8.7344740">
        <ele>21.5</ele>
        <time>2021-05-20T09:56:37Z</time>
      </trkpt>
      <trkpt lat="42.2121810" lon="-8.7344710">
        <ele>21.5</ele>
        <time>2021-05-20T09:56:38Z</time>
      </trkpt>
      <trkpt lat="42.2121690" lon="-8.7344670">
        <ele>21.5</ele>
        <time>2021-05-20T09:56:39Z</time>
      </trkpt>
      <trkpt lat="42.2121640" lon="-8.7344630">
        <ele>21.4</ele>
        <time>2021-05-20T09:56:40Z</time>
      </trkpt>
      <trkpt lat="42.2121400" lon="-8.7344450">
        <ele>21.4</ele>
        <time>2021-05-20T09:56:41Z</time>
      </trkpt>
      <trkpt lat="42.2121250" lon="-8.7344420">
        <ele>21.4</ele>
        <time>2021-05-20T09:56:42Z</time>
      </trkpt>
      <trkpt lat="42.2121150" lon="-8.7344310">
        <ele>21.2</ele>
        <time>2021-05-20T09:56:43Z</time>
      </trkpt>
      <trkpt lat="42.2120990" lon="-8.7344100">
        <ele>21.2</ele>
        <time>2021-05-20T09:56:44Z</time>
      </trkpt>
      <trkpt lat="42.2120960" lon="-8.7344040">
        <ele>21.2</ele>
        <time>2021-05-20T09:56:45Z</time>
      </trkpt>
      <trkpt lat="42.2120920" lon="-8.7343980">
        <ele>21.2</ele>
        <time>2021-05-20T09:56:46Z</time>
      </trkpt>
      <trkpt lat="42.2120890" lon="-8.7343920">
        <ele>21.2</ele>
        <time>2021-05-20T09:56:47Z</time>
      </trkpt>
      <trkpt lat="42.2120840" lon="-8.7343920">
        <ele>21.1</ele>
        <time>2021-05-20T09:56:48Z</time>
      </trkpt>
      <trkpt lat="42.2120930" lon="-8.7343880">
        <ele>21.1</ele>
        <time>2021-05-20T09:56:49Z</time>
      </trkpt>
      <trkpt lat="42.2120850" lon="-8.7343830">
        <ele>21.1</ele>
        <time>2021-05-20T09:56:50Z</time>
      </trkpt>
      <trkpt lat="42.2120840" lon="-8.7343770">
        <ele>21.0</ele>
        <time>2021-05-20T09:56:51Z</time>
      </trkpt>
      <trkpt lat="42.2120850" lon="-8.7343690">
        <ele>21.0</ele>
        <time>2021-05-20T09:56:52Z</time>
      </trkpt>
      <trkpt lat="42.2121090" lon="-8.7343620">
        <ele>21.1</ele>
        <time>2021-05-20T09:56:53Z</time>
      </trkpt>
      <trkpt lat="42.2121300" lon="-8.7343560">
        <ele>21.1</ele>
        <time>2021-05-20T09:56:54Z</time>
      </trkpt>
      <trkpt lat="42.2121360" lon="-8.7343490">
        <ele>21.1</ele>
        <time>2021-05-20T09:56:55Z</time>
      </trkpt>
      <trkpt lat="42.2121450" lon="-8.7343380">
        <ele>21.1</ele>
        <time>2021-05-20T09:56:56Z</time>
      </trkpt>
      <trkpt lat="42.2121380" lon="-8.7343240">
        <ele>21.1</ele>
        <time>2021-05-20T09:56:57Z</time>
      </trkpt>
      <trkpt lat="42.2121250" lon="-8.7343150">
        <ele>21.1</ele>
        <time>2021-05-20T09:56:58Z</time>
      </trkpt>
      <trkpt lat="42.2121070" lon="-8.7343040">
        <ele>21.0</ele>
        <time>2021-05-20T09:56:59Z</time>
      </trkpt>
      <trkpt lat="42.2120970" lon="-8.7342950">
        <ele>20.9</ele>
        <time>2021-05-20T09:57:00Z</time>
      </trkpt>
      <trkpt lat="42.2120870" lon="-8.7342870">
        <ele>20.9</ele>
        <time>2021-05-20T09:57:01Z</time>
      </trkpt>
      <trkpt lat="42.2120870" lon="-8.7342450">
        <ele>20.9</ele>
        <time>2021-05-20T09:57:02Z</time>
      </trkpt>
      <trkpt lat="42.2120940" lon="-8.7341870">
        <ele>20.8</ele>
        <time>2021-05-20T09:57:03Z</time>
      </trkpt>
      <trkpt lat="42.2121100" lon="-8.7341290">
        <ele>20.7</ele>
        <time>2021-05-20T09:57:04Z</time>
      </trkpt>
      <trkpt lat="42.2121300" lon="-8.7340460">
        <ele>20.7</ele>
        <time>2021-05-20T09:57:05Z</time>
      </trkpt>
      <trkpt lat="42.2121740" lon="-8.7340040">
        <ele>20.7</ele>
        <time>2021-05-20T09:57:06Z</time>
      </trkpt>
      <trkpt lat="42.2122560" lon="-8.7339240">
        <ele>20.9</ele>
        <time>2021-05-20T09:57:07Z</time>
      </trkpt>
      <trkpt lat="42.2122700" lon="-8.7338820">
        <ele>20.9</ele>
        <time>2021-05-20T09:57:08Z</time>
      </trkpt>
      <trkpt lat="42.2122770" lon="-8.7338740">
        <ele>20.9</ele>
        <time>2021-05-20T09:57:09Z</time>
      </trkpt>
      <trkpt lat="42.2122520" lon="-8.7338590">
        <ele>20.9</ele>
        <time>2021-05-20T09:57:10Z</time>
      </trkpt>
      <trkpt lat="42.2122170" lon="-8.7338380">
        <ele>20.8</ele>
        <time>2021-05-20T09:57:11Z</time>
      </trkpt>
      <trkpt lat="42.2121960" lon="-8.7338020">
        <ele>20.7</ele>
        <time>2021-05-20T09:57:12Z</time>
      </trkpt>
      <trkpt lat="42.2121890" lon="-8.7337880">
        <ele>20.7</ele>
        <time>2021-05-20T09:57:13Z</time>
      </trkpt>
      <trkpt lat="42.2121680" lon="-8.7337570">
        <ele>20.6</ele>
        <time>2021-05-20T09:57:14Z</time>
      </trkpt>
      <trkpt lat="42.2122090" lon="-8.7336680">
        <ele>20.8</ele>
        <time>2021-05-20T09:57:15Z</time>
      </trkpt>
      <trkpt lat="42.2122030" lon="-8.7336270">
        <ele>20.9</ele>
        <time>2021-05-20T09:57:16Z</time>
      </trkpt>
      <trkpt lat="42.2122520" lon="-8.7335760">
        <ele>21.4</ele>
        <time>2021-05-20T09:57:17Z</time>
      </trkpt>
      <trkpt lat="42.2122490" lon="-8.7335380">
        <ele>21.4</ele>
        <time>2021-05-20T09:57:18Z</time>
      </trkpt>
      <trkpt lat="42.2122610" lon="-8.7334920">
        <ele>21.4</ele>
        <time>2021-05-20T09:57:19Z</time>
      </trkpt>
      <trkpt lat="42.2122630" lon="-8.7334760">
        <ele>21.4</ele>
        <time>2021-05-20T09:57:20Z</time>
      </trkpt>
      <trkpt lat="42.2122730" lon="-8.7334510">
        <ele>21.4</ele>
        <time>2021-05-20T09:57:21Z</time>
      </trkpt>
      <trkpt lat="42.2122640" lon="-8.7334390">
        <ele>21.4</ele>
        <time>2021-05-20T09:57:22Z</time>
      </trkpt>
      <trkpt lat="42.2122540" lon="-8.7334290">
        <ele>21.4</ele>
        <time>2021-05-20T09:57:23Z</time>
      </trkpt>
      <trkpt lat="42.2122510" lon="-8.7334360">
        <ele>21.4</ele>
        <time>2021-05-20T09:57:24Z</time>
      </trkpt>
      <trkpt lat="42.2122390" lon="-8.7334520">
        <ele>21.1</ele>
        <time>2021-05-20T09:57:25Z</time>
      </trkpt>
      <trkpt lat="42.2122770" lon="-8.7334630">
        <ele>21.5</ele>
        <time>2021-05-20T09:57:26Z</time>
      </trkpt>
      <trkpt lat="42.2123100" lon="-8.7334690">
        <ele>21.7</ele>
        <time>2021-05-20T09:57:27Z</time>
      </trkpt>
      <trkpt lat="42.2122970" lon="-8.7334760">
        <ele>21.5</ele>
        <time>2021-05-20T09:57:28Z</time>
      </trkpt>
      <trkpt lat="42.2123020" lon="-8.7334850">
        <ele>21.5</ele>
        <time>2021-05-20T09:57:29Z</time>
      </trkpt>
      <trkpt lat="42.2122970" lon="-8.7334850">
        <ele>21.5</ele>
        <time>2021-05-20T09:57:30Z</time>
      </trkpt>
      <trkpt lat="42.2122850" lon="-8.7334750">
        <ele>21.5</ele>
        <time>2021-05-20T09:57:31Z</time>
      </trkpt>
      <trkpt lat="42.2123000" lon="-8.7334570">
        <ele>21.5</ele>
        <time>2021-05-20T09:57:32Z</time>
      </trkpt>
      <trkpt lat="42.2123220" lon="-8.7334330">
        <ele>21.6</ele>
        <time>2021-05-20T09:57:33Z</time>
      </trkpt>
      <trkpt lat="42.2122950" lon="-8.7334140">
        <ele>21.5</ele>
        <time>2021-05-20T09:57:34Z</time>
      </trkpt>
      <trkpt lat="42.2123020" lon="-8.7334180">
        <ele>21.4</ele>
        <time>2021-05-20T09:57:35Z</time>
      </trkpt>
      <trkpt lat="42.2123200" lon="-8.7334110">
        <ele>21.6</ele>
        <time>2021-05-20T09:57:36Z</time>
      </trkpt>
      <trkpt lat="42.2123390" lon="-8.7334040">
        <ele>21.6</ele>
        <time>2021-05-20T09:57:37Z</time>
      </trkpt>
      <trkpt lat="42.2123300" lon="-8.7333870">
        <ele>21.5</ele>
        <time>2021-05-20T09:57:38Z</time>
      </trkpt>
      <trkpt lat="42.2123250" lon="-8.7333660">
        <ele>21.5</ele>
        <time>2021-05-20T09:57:39Z</time>
      </trkpt>
      <trkpt lat="42.2123610" lon="-8.7333410">
        <ele>21.6</ele>
        <time>2021-05-20T09:57:40Z</time>
      </trkpt>
      <trkpt lat="42.2124060" lon="-8.7333170">
        <ele>21.8</ele>
        <time>2021-05-20T09:57:41Z</time>
      </trkpt>
      <trkpt lat="42.2124590" lon="-8.7333100">
        <ele>21.7</ele>
        <time>2021-05-20T09:57:42Z</time>
      </trkpt>
      <trkpt lat="42.2125000" lon="-8.7332800">
        <ele>21.8</ele>
        <time>2021-05-20T09:57:43Z</time>
      </trkpt>
      <trkpt lat="42.2125440" lon="-8.7332560">
        <ele>21.8</ele>
        <time>2021-05-20T09:57:44Z</time>
      </trkpt>
      <trkpt lat="42.2125820" lon="-8.7332430">
        <ele>21.8</ele>
        <time>2021-05-20T09:57:45Z</time>
      </trkpt>
      <trkpt lat="42.2126100" lon="-8.7332480">
        <ele>21.8</ele>
        <time>2021-05-20T09:57:46Z</time>
      </trkpt>
      <trkpt lat="42.2126280" lon="-8.7332210">
        <ele>21.7</ele>
        <time>2021-05-20T09:57:47Z</time>
      </trkpt>
      <trkpt lat="42.2126380" lon="-8.7332110">
        <ele>21.6</ele>
        <time>2021-05-20T09:57:48Z</time>
      </trkpt>
      <trkpt lat="42.2126740" lon="-8.7331800">
        <ele>21.6</ele>
        <time>2021-05-20T09:57:49Z</time>
      </trkpt>
      <trkpt lat="42.2127130" lon="-8.7331540">
        <ele>21.6</ele>
        <time>2021-05-20T09:57:50Z</time>
      </trkpt>
      <trkpt lat="42.2127420" lon="-8.7331200">
        <ele>21.5</ele>
        <time>2021-05-20T09:57:51Z</time>
      </trkpt>
      <trkpt lat="42.2127530" lon="-8.7331090">
        <ele>21.5</ele>
        <time>2021-05-20T09:57:52Z</time>
      </trkpt>
      <trkpt lat="42.2127710" lon="-8.7330680">
        <ele>21.5</ele>
        <time>2021-05-20T09:57:54Z</time>
      </trkpt>
      <trkpt lat="42.2127780" lon="-8.7330570">
        <ele>21.4</ele>
        <time>2021-05-20T09:57:55Z</time>
      </trkpt>
      <trkpt lat="42.2127770" lon="-8.7330400">
        <ele>21.4</ele>
        <time>2021-05-20T09:57:56Z</time>
      </trkpt>
      <trkpt lat="42.2127830" lon="-8.7330190">
        <ele>21.4</ele>
        <time>2021-05-20T09:57:57Z</time>
      </trkpt>
      <trkpt lat="42.2127930" lon="-8.7329850">
        <ele>21.4</ele>
        <time>2021-05-20T09:57:58Z</time>
      </trkpt>
      <trkpt lat="42.2127820" lon="-8.7329330">
        <ele>21.2</ele>
        <time>2021-05-20T09:57:59Z</time>
      </trkpt>
      <trkpt lat="42.2127900" lon="-8.7328840">
        <ele>21.1</ele>
        <time>2021-05-20T09:58:00Z</time>
      </trkpt>
      <trkpt lat="42.2127900" lon="-8.7328670">
        <ele>21.1</ele>
        <time>2021-05-20T09:58:01Z</time>
      </trkpt>
      <trkpt lat="42.2127890" lon="-8.7328280">
        <ele>21.0</ele>
        <time>2021-05-20T09:58:02Z</time>
      </trkpt>
      <trkpt lat="42.2127890" lon="-8.7328150">
        <ele>21.0</ele>
        <time>2021-05-20T09:58:03Z</time>
      </trkpt>
      <trkpt lat="42.2127970" lon="-8.7327980">
        <ele>20.8</ele>
        <time>2021-05-20T09:58:04Z</time>
      </trkpt>
      <trkpt lat="42.2128000" lon="-8.7327960">
        <ele>20.8</ele>
        <time>2021-05-20T09:58:05Z</time>
      </trkpt>
      <trkpt lat="42.2128000" lon="-8.7327900">
        <ele>20.8</ele>
        <time>2021-05-20T09:58:06Z</time>
      </trkpt>
      <trkpt lat="42.2128060" lon="-8.7327900">
        <ele>20.8</ele>
        <time>2021-05-20T09:58:07Z</time>
      </trkpt>
      <trkpt lat="42.2128160" lon="-8.7327890">
        <ele>20.8</ele>
        <time>2021-05-20T09:58:08Z</time>
      </trkpt>
      <trkpt lat="42.2128220" lon="-8.7327920">
        <ele>20.9</ele>
        <time>2021-05-20T09:58:09Z</time>
      </trkpt>
      <trkpt lat="42.2128210" lon="-8.7327950">
        <ele>20.8</ele>
        <time>2021-05-20T09:58:10Z</time>
      </trkpt>
      <trkpt lat="42.2128270" lon="-8.7328000">
        <ele>20.8</ele>
        <time>2021-05-20T09:58:11Z</time>
      </trkpt>
      <trkpt lat="42.2128320" lon="-8.7328030">
        <ele>21.0</ele>
        <time>2021-05-20T09:58:12Z</time>
      </trkpt>
      <trkpt lat="42.2128290" lon="-8.7328020">
        <ele>21.0</ele>
        <time>2021-05-20T09:58:13Z</time>
      </trkpt>
      <trkpt lat="42.2128180" lon="-8.7327910">
        <ele>20.8</ele>
        <time>2021-05-20T09:58:14Z</time>
      </trkpt>
      <trkpt lat="42.2128260" lon="-8.7327840">
        <ele>20.8</ele>
        <time>2021-05-20T09:58:15Z</time>
      </trkpt>
      <trkpt lat="42.2128160" lon="-8.7327710">
        <ele>20.7</ele>
        <time>2021-05-20T09:58:16Z</time>
      </trkpt>
      <trkpt lat="42.2128240" lon="-8.7327730">
        <ele>20.8</ele>
        <time>2021-05-20T09:58:17Z</time>
      </trkpt>
      <trkpt lat="42.2128380" lon="-8.7327740">
        <ele>20.8</ele>
        <time>2021-05-20T09:58:18Z</time>
      </trkpt>
      <trkpt lat="42.2128450" lon="-8.7327730">
        <ele>20.8</ele>
        <time>2021-05-20T09:58:19Z</time>
      </trkpt>
      <trkpt lat="42.2128470" lon="-8.7327700">
        <ele>20.7</ele>
        <time>2021-05-20T09:58:20Z</time>
      </trkpt>
      <trkpt lat="42.2128560" lon="-8.7327560">
        <ele>20.6</ele>
        <time>2021-05-20T09:58:21Z</time>
      </trkpt>
      <trkpt lat="42.2128470" lon="-8.7327640">
        <ele>20.7</ele>
        <time>2021-05-20T09:58:22Z</time>
      </trkpt>
      <trkpt lat="42.2128560" lon="-8.7327560">
        <ele>20.6</ele>
        <time>2021-05-20T09:58:23Z</time>
      </trkpt>
      <trkpt lat="42.2128590" lon="-8.7327540">
        <ele>20.6</ele>
        <time>2021-05-20T09:58:24Z</time>
      </trkpt>
      <trkpt lat="42.2128640" lon="-8.7327550">
        <ele>20.6</ele>
        <time>2021-05-20T09:58:25Z</time>
      </trkpt>
      <trkpt lat="42.2128630" lon="-8.7327520">
        <ele>20.6</ele>
        <time>2021-05-20T09:58:26Z</time>
      </trkpt>
      <trkpt lat="42.2128630" lon="-8.7327470">
        <ele>20.6</ele>
        <time>2021-05-20T09:58:27Z</time>
      </trkpt>
      <trkpt lat="42.2128650" lon="-8.7327560">
        <ele>20.5</ele>
        <time>2021-05-20T09:58:28Z</time>
      </trkpt>
      <trkpt lat="42.2128740" lon="-8.7327610">
        <ele>20.7</ele>
        <time>2021-05-20T09:58:29Z</time>
      </trkpt>
      <trkpt lat="42.2128800" lon="-8.7327630">
        <ele>20.7</ele>
        <time>2021-05-20T09:58:30Z</time>
      </trkpt>
      <trkpt lat="42.2129010" lon="-8.7327620">
        <ele>20.8</ele>
        <time>2021-05-20T09:58:31Z</time>
      </trkpt>
      <trkpt lat="42.2128980" lon="-8.7327760">
        <ele>20.8</ele>
        <time>2021-05-20T09:58:32Z</time>
      </trkpt>
      <trkpt lat="42.2129070" lon="-8.7327770">
        <ele>20.8</ele>
        <time>2021-05-20T09:58:33Z</time>
      </trkpt>
      <trkpt lat="42.2129100" lon="-8.7327850">
        <ele>20.8</ele>
        <time>2021-05-20T09:58:34Z</time>
      </trkpt>
      <trkpt lat="42.2129130" lon="-8.7327920">
        <ele>20.8</ele>
        <time>2021-05-20T09:58:35Z</time>
      </trkpt>
      <trkpt lat="42.2129220" lon="-8.7327980">
        <ele>20.8</ele>
        <time>2021-05-20T09:58:36Z</time>
      </trkpt>
      <trkpt lat="42.2129320" lon="-8.7328050">
        <ele>21.0</ele>
        <time>2021-05-20T09:58:37Z</time>
      </trkpt>
      <trkpt lat="42.2129430" lon="-8.7327960">
        <ele>20.8</ele>
        <time>2021-05-20T09:58:38Z</time>
      </trkpt>
      <trkpt lat="42.2129490" lon="-8.7327890">
        <ele>20.8</ele>
        <time>2021-05-20T09:58:39Z</time>
      </trkpt>
      <trkpt lat="42.2129630" lon="-8.7327570">
        <ele>20.6</ele>
        <time>2021-05-20T09:58:40Z</time>
      </trkpt>
      <trkpt lat="42.2129710" lon="-8.7327390">
        <ele>20.6</ele>
        <time>2021-05-20T09:58:41Z</time>
      </trkpt>
      <trkpt lat="42.2129820" lon="-8.7326970">
        <ele>20.3</ele>
        <time>2021-05-20T09:58:42Z</time>
      </trkpt>
      <trkpt lat="42.2129840" lon="-8.7326870">
        <ele>20.3</ele>
        <time>2021-05-20T09:58:43Z</time>
      </trkpt>
      <trkpt lat="42.2129870" lon="-8.7326500">
        <ele>20.1</ele>
        <time>2021-05-20T09:58:44Z</time>
      </trkpt>
      <trkpt lat="42.2129840" lon="-8.7326380">
        <ele>20.0</ele>
        <time>2021-05-20T09:58:45Z</time>
      </trkpt>
      <trkpt lat="42.2129820" lon="-8.7326270">
        <ele>19.7</ele>
        <time>2021-05-20T09:58:46Z</time>
      </trkpt>
      <trkpt lat="42.2129830" lon="-8.7325880">
        <ele>19.7</ele>
        <time>2021-05-20T09:58:47Z</time>
      </trkpt>
      <trkpt lat="42.2129780" lon="-8.7325680">
        <ele>19.4</ele>
        <time>2021-05-20T09:58:48Z</time>
      </trkpt>
      <trkpt lat="42.2129770" lon="-8.7325330">
        <ele>19.0</ele>
        <time>2021-05-20T09:58:49Z</time>
      </trkpt>
      <trkpt lat="42.2129780" lon="-8.7325180">
        <ele>19.0</ele>
        <time>2021-05-20T09:58:50Z</time>
      </trkpt>
      <trkpt lat="42.2129800" lon="-8.7325040">
        <ele>19.0</ele>
        <time>2021-05-20T09:58:51Z</time>
      </trkpt>
      <trkpt lat="42.2129690" lon="-8.7324800">
        <ele>18.6</ele>
        <time>2021-05-20T09:58:52Z</time>
      </trkpt>
      <trkpt lat="42.2129570" lon="-8.7324690">
        <ele>18.6</ele>
        <time>2021-05-20T09:58:53Z</time>
      </trkpt>
      <trkpt lat="42.2129500" lon="-8.7324290">
        <ele>18.2</ele>
        <time>2021-05-20T09:58:54Z</time>
      </trkpt>
      <trkpt lat="42.2129480" lon="-8.7324120">
        <ele>17.8</ele>
        <time>2021-05-20T09:58:55Z</time>
      </trkpt>
      <trkpt lat="42.2129300" lon="-8.7323870">
        <ele>17.7</ele>
        <time>2021-05-20T09:58:56Z</time>
      </trkpt>
      <trkpt lat="42.2129140" lon="-8.7323760">
        <ele>17.7</ele>
        <time>2021-05-20T09:58:57Z</time>
      </trkpt>
      <trkpt lat="42.2128990" lon="-8.7323660">
        <ele>17.3</ele>
        <time>2021-05-20T09:58:58Z</time>
      </trkpt>
      <trkpt lat="42.2128700" lon="-8.7323590">
        <ele>17.2</ele>
        <time>2021-05-20T09:58:59Z</time>
      </trkpt>
      <trkpt lat="42.2128610" lon="-8.7323630">
        <ele>17.2</ele>
        <time>2021-05-20T09:59:00Z</time>
      </trkpt>
      <trkpt lat="42.2128560" lon="-8.7323630">
        <ele>17.2</ele>
        <time>2021-05-20T09:59:01Z</time>
      </trkpt>
      <trkpt lat="42.2128590" lon="-8.7323540">
        <ele>17.2</ele>
        <time>2021-05-20T09:59:02Z</time>
      </trkpt>
      <trkpt lat="42.2128650" lon="-8.7323300">
        <ele>17.2</ele>
        <time>2021-05-20T09:59:03Z</time>
      </trkpt>
      <trkpt lat="42.2128710" lon="-8.7323270">
        <ele>17.2</ele>
        <time>2021-05-20T09:59:04Z</time>
      </trkpt>
      <trkpt lat="42.2128740" lon="-8.7323210">
        <ele>17.2</ele>
        <time>2021-05-20T09:59:05Z</time>
      </trkpt>
      <trkpt lat="42.2128740" lon="-8.7323210">
        <ele>17.2</ele>
        <time>2021-05-20T09:59:06Z</time>
      </trkpt>
      <trkpt lat="42.2128700" lon="-8.7323190">
        <ele>17.2</ele>
        <time>2021-05-20T09:59:07Z</time>
      </trkpt>
      <trkpt lat="42.2128720" lon="-8.7323120">
        <ele>17.2</ele>
        <time>2021-05-20T09:59:08Z</time>
      </trkpt>
      <trkpt lat="42.2128750" lon="-8.7323090">
        <ele>17.2</ele>
        <time>2021-05-20T09:59:09Z</time>
      </trkpt>
      <trkpt lat="42.2128840" lon="-8.7323100">
        <ele>17.3</ele>
        <time>2021-05-20T09:59:10Z</time>
      </trkpt>
      <trkpt lat="42.2128910" lon="-8.7323050">
        <ele>17.3</ele>
        <time>2021-05-20T09:59:11Z</time>
      </trkpt>
      <trkpt lat="42.2128930" lon="-8.7323100">
        <ele>17.3</ele>
        <time>2021-05-20T09:59:12Z</time>
      </trkpt>
      <trkpt lat="42.2128960" lon="-8.7323040">
        <ele>17.3</ele>
        <time>2021-05-20T09:59:13Z</time>
      </trkpt>
      <trkpt lat="42.2128970" lon="-8.7323040">
        <ele>17.3</ele>
        <time>2021-05-20T09:59:14Z</time>
      </trkpt>
      <trkpt lat="42.2129100" lon="-8.7323160">
        <ele>17.3</ele>
        <time>2021-05-20T09:59:15Z</time>
      </trkpt>
      <trkpt lat="42.2129230" lon="-8.7323180">
        <ele>17.3</ele>
        <time>2021-05-20T09:59:16Z</time>
      </trkpt>
      <trkpt lat="42.2129340" lon="-8.7323230">
        <ele>17.3</ele>
        <time>2021-05-20T09:59:17Z</time>
      </trkpt>
      <trkpt lat="42.2129230" lon="-8.7323250">
        <ele>17.3</ele>
        <time>2021-05-20T09:59:18Z</time>
      </trkpt>
      <trkpt lat="42.2129290" lon="-8.7323260">
        <ele>17.3</ele>
        <time>2021-05-20T09:59:19Z</time>
      </trkpt>
      <trkpt lat="42.2129430" lon="-8.7323260">
        <ele>17.3</ele>
        <time>2021-05-20T09:59:20Z</time>
      </trkpt>
      <trkpt lat="42.2129460" lon="-8.7323220">
        <ele>17.3</ele>
        <time>2021-05-20T09:59:21Z</time>
      </trkpt>
      <trkpt lat="42.2129530" lon="-8.7323050">
        <ele>17.3</ele>
        <time>2021-05-20T09:59:22Z</time>
      </trkpt>
      <trkpt lat="42.2129500" lon="-8.7323270">
        <ele>17.3</ele>
        <time>2021-05-20T09:59:23Z</time>
      </trkpt>
      <trkpt lat="42.2129530" lon="-8.7323330">
        <ele>17.3</ele>
        <time>2021-05-20T09:59:24Z</time>
      </trkpt>
      <trkpt lat="42.2129600" lon="-8.7323320">
        <ele>17.3</ele>
        <time>2021-05-20T09:59:25Z</time>
      </trkpt>
      <trkpt lat="42.2129710" lon="-8.7323210">
        <ele>17.3</ele>
        <time>2021-05-20T09:59:26Z</time>
      </trkpt>
      <trkpt lat="42.2129770" lon="-8.7323100">
        <ele>17.3</ele>
        <time>2021-05-20T09:59:27Z</time>
      </trkpt>
      <trkpt lat="42.2129760" lon="-8.7322950">
        <ele>17.3</ele>
        <time>2021-05-20T09:59:28Z</time>
      </trkpt>
      <trkpt lat="42.2129860" lon="-8.7322920">
        <ele>17.3</ele>
        <time>2021-05-20T09:59:29Z</time>
      </trkpt>
      <trkpt lat="42.2129890" lon="-8.7322910">
        <ele>17.3</ele>
        <time>2021-05-20T09:59:30Z</time>
      </trkpt>
      <trkpt lat="42.2129970" lon="-8.7322870">
        <ele>17.3</ele>
        <time>2021-05-20T09:59:31Z</time>
      </trkpt>
      <trkpt lat="42.2130010" lon="-8.7322810">
        <ele>17.3</ele>
        <time>2021-05-20T09:59:32Z</time>
      </trkpt>
      <trkpt lat="42.2130130" lon="-8.7322830">
        <ele>17.3</ele>
        <time>2021-05-20T09:59:33Z</time>
      </trkpt>
      <trkpt lat="42.2130250" lon="-8.7322770">
        <ele>17.3</ele>
        <time>2021-05-20T09:59:35Z</time>
      </trkpt>
      <trkpt lat="42.2130300" lon="-8.7322690">
        <ele>17.3</ele>
        <time>2021-05-20T09:59:36Z</time>
      </trkpt>
      <trkpt lat="42.2130360" lon="-8.7322640">
        <ele>17.3</ele>
        <time>2021-05-20T09:59:37Z</time>
      </trkpt>
      <trkpt lat="42.2130410" lon="-8.7322640">
        <ele>17.3</ele>
        <time>2021-05-20T09:59:38Z</time>
      </trkpt>
      <trkpt lat="42.2130430" lon="-8.7322620">
        <ele>17.3</ele>
        <time>2021-05-20T09:59:39Z</time>
      </trkpt>
      <trkpt lat="42.2130480" lon="-8.7322590">
        <ele>17.3</ele>
        <time>2021-05-20T09:59:40Z</time>
      </trkpt>
      <trkpt lat="42.2130590" lon="-8.7322560">
        <ele>17.3</ele>
        <time>2021-05-20T09:59:41Z</time>
      </trkpt>
      <trkpt lat="42.2130620" lon="-8.7322410">
        <ele>17.3</ele>
        <time>2021-05-20T09:59:42Z</time>
      </trkpt>
      <trkpt lat="42.2130650" lon="-8.7322270">
        <ele>17.3</ele>
        <time>2021-05-20T09:59:43Z</time>
      </trkpt>
      <trkpt lat="42.2130760" lon="-8.7322210">
        <ele>17.3</ele>
        <time>2021-05-20T09:59:44Z</time>
      </trkpt>
      <trkpt lat="42.2130750" lon="-8.7322260">
        <ele>17.3</ele>
        <time>2021-05-20T09:59:45Z</time>
      </trkpt>
      <trkpt lat="42.2130870" lon="-8.7322210">
        <ele>17.3</ele>
        <time>2021-05-20T09:59:46Z</time>
      </trkpt>
      <trkpt lat="42.2130940" lon="-8.7322160">
        <ele>17.3</ele>
        <time>2021-05-20T09:59:47Z</time>
      </trkpt>
      <trkpt lat="42.2131050" lon="-8.7322120">
        <ele>17.3</ele>
        <time>2021-05-20T09:59:48Z</time>
      </trkpt>
      <trkpt lat="42.2131190" lon="-8.7322180">
        <ele>17.3</ele>
        <time>2021-05-20T09:59:49Z</time>
      </trkpt>
      <trkpt lat="42.2131280" lon="-8.7322110">
        <ele>17.3</ele>
        <time>2021-05-20T09:59:50Z</time>
      </trkpt>
      <trkpt lat="42.2131200" lon="-8.7321950">
        <ele>17.3</ele>
        <time>2021-05-20T09:59:51Z</time>
      </trkpt>
      <trkpt lat="42.2131160" lon="-8.7322030">
        <ele>17.3</ele>
        <time>2021-05-20T09:59:52Z</time>
      </trkpt>
      <trkpt lat="42.2131190" lon="-8.7321950">
        <ele>17.3</ele>
        <time>2021-05-20T09:59:53Z</time>
      </trkpt>
      <trkpt lat="42.2131240" lon="-8.7321810">
        <ele>17.3</ele>
        <time>2021-05-20T09:59:54Z</time>
      </trkpt>
      <trkpt lat="42.2131280" lon="-8.7321870">
        <ele>17.3</ele>
        <time>2021-05-20T09:59:55Z</time>
      </trkpt>
      <trkpt lat="42.2131250" lon="-8.7321790">
        <ele>17.3</ele>
        <time>2021-05-20T09:59:56Z</time>
      </trkpt>
      <trkpt lat="42.2131280" lon="-8.7321720">
        <ele>17.3</ele>
        <time>2021-05-20T09:59:57Z</time>
      </trkpt>
      <trkpt lat="42.2131310" lon="-8.7321620">
        <ele>17.3</ele>
        <time>2021-05-20T09:59:58Z</time>
      </trkpt>
      <trkpt lat="42.2131390" lon="-8.7321470">
        <ele>17.3</ele>
        <time>2021-05-20T09:59:59Z</time>
      </trkpt>
      <trkpt lat="42.2131460" lon="-8.7321420">
        <ele>17.3</ele>
        <time>2021-05-20T10:00:00Z</time>
      </trkpt>
      <trkpt lat="42.2131530" lon="-8.7321420">
        <ele>17.3</ele>
        <time>2021-05-20T10:00:01Z</time>
      </trkpt>
      <trkpt lat="42.2131710" lon="-8.7321360">
        <ele>17.3</ele>
        <time>2021-05-20T10:00:02Z</time>
      </trkpt>
      <trkpt lat="42.2131690" lon="-8.7321390">
        <ele>17.3</ele>
        <time>2021-05-20T10:00:03Z</time>
      </trkpt>
      <trkpt lat="42.2131730" lon="-8.7321440">
        <ele>17.3</ele>
        <time>2021-05-20T10:00:04Z</time>
      </trkpt>
      <trkpt lat="42.2131750" lon="-8.7321460">
        <ele>17.3</ele>
        <time>2021-05-20T10:00:05Z</time>
      </trkpt>
      <trkpt lat="42.2131810" lon="-8.7321570">
        <ele>17.3</ele>
        <time>2021-05-20T10:00:06Z</time>
      </trkpt>
      <trkpt lat="42.2131730" lon="-8.7321520">
        <ele>17.3</ele>
        <time>2021-05-20T10:00:07Z</time>
      </trkpt>
      <trkpt lat="42.2131740" lon="-8.7321620">
        <ele>17.3</ele>
        <time>2021-05-20T10:00:08Z</time>
      </trkpt>
      <trkpt lat="42.2131760" lon="-8.7321710">
        <ele>17.3</ele>
        <time>2021-05-20T10:00:09Z</time>
      </trkpt>
      <trkpt lat="42.2131770" lon="-8.7321800">
        <ele>17.3</ele>
        <time>2021-05-20T10:00:10Z</time>
      </trkpt>
      <trkpt lat="42.2131770" lon="-8.7321870">
        <ele>17.3</ele>
        <time>2021-05-20T10:00:11Z</time>
      </trkpt>
      <trkpt lat="42.2131730" lon="-8.7321960">
        <ele>17.3</ele>
        <time>2021-05-20T10:00:12Z</time>
      </trkpt>
      <trkpt lat="42.2131700" lon="-8.7322020">
        <ele>17.3</ele>
        <time>2021-05-20T10:00:13Z</time>
      </trkpt>
      <trkpt lat="42.2131740" lon="-8.7322050">
        <ele>17.3</ele>
        <time>2021-05-20T10:00:14Z</time>
      </trkpt>
      <trkpt lat="42.2131770" lon="-8.7322030">
        <ele>17.3</ele>
        <time>2021-05-20T10:00:15Z</time>
      </trkpt>
      <trkpt lat="42.2131730" lon="-8.7321970">
        <ele>17.3</ele>
        <time>2021-05-20T10:00:16Z</time>
      </trkpt>
      <trkpt lat="42.2131690" lon="-8.7321890">
        <ele>17.3</ele>
        <time>2021-05-20T10:00:17Z</time>
      </trkpt>
      <trkpt lat="42.2131650" lon="-8.7321800">
        <ele>17.3</ele>
        <time>2021-05-20T10:00:18Z</time>
      </trkpt>
      <trkpt lat="42.2131590" lon="-8.7321740">
        <ele>17.3</ele>
        <time>2021-05-20T10:00:19Z</time>
      </trkpt>
      <trkpt lat="42.2131660" lon="-8.7321720">
        <ele>17.4</ele>
        <time>2021-05-20T10:00:20Z</time>
      </trkpt>
      <trkpt lat="42.2131760" lon="-8.7321680">
        <ele>17.4</ele>
        <time>2021-05-20T10:00:21Z</time>
      </trkpt>
      <trkpt lat="42.2131740" lon="-8.7321780">
        <ele>17.4</ele>
        <time>2021-05-20T10:00:22Z</time>
      </trkpt>
      <trkpt lat="42.2131700" lon="-8.7321810">
        <ele>17.4</ele>
        <time>2021-05-20T10:00:23Z</time>
      </trkpt>
      <trkpt lat="42.2131760" lon="-8.7321740">
        <ele>17.4</ele>
        <time>2021-05-20T10:00:24Z</time>
      </trkpt>
      <trkpt lat="42.2131710" lon="-8.7321790">
        <ele>17.4</ele>
        <time>2021-05-20T10:00:25Z</time>
      </trkpt>
      <trkpt lat="42.2131630" lon="-8.7321840">
        <ele>17.4</ele>
        <time>2021-05-20T10:00:26Z</time>
      </trkpt>
      <trkpt lat="42.2131700" lon="-8.7321930">
        <ele>17.4</ele>
        <time>2021-05-20T10:00:27Z</time>
      </trkpt>
      <trkpt lat="42.2131720" lon="-8.7321990">
        <ele>17.4</ele>
        <time>2021-05-20T10:00:28Z</time>
      </trkpt>
      <trkpt lat="42.2131680" lon="-8.7322080">
        <ele>17.4</ele>
        <time>2021-05-20T10:00:29Z</time>
      </trkpt>
      <trkpt lat="42.2131620" lon="-8.7322200">
        <ele>17.4</ele>
        <time>2021-05-20T10:00:30Z</time>
      </trkpt>
      <trkpt lat="42.2131560" lon="-8.7322280">
        <ele>17.4</ele>
        <time>2021-05-20T10:00:31Z</time>
      </trkpt>
      <trkpt lat="42.2131550" lon="-8.7322290">
        <ele>17.4</ele>
        <time>2021-05-20T10:00:32Z</time>
      </trkpt>
      <trkpt lat="42.2131430" lon="-8.7322410">
        <ele>17.4</ele>
        <time>2021-05-20T10:00:33Z</time>
      </trkpt>
      <trkpt lat="42.2131410" lon="-8.7322470">
        <ele>17.4</ele>
        <time>2021-05-20T10:00:34Z</time>
      </trkpt>
      <trkpt lat="42.2131600" lon="-8.7322530">
        <ele>17.4</ele>
        <time>2021-05-20T10:00:35Z</time>
      </trkpt>
      <trkpt lat="42.2131720" lon="-8.7322540">
        <ele>17.4</ele>
        <time>2021-05-20T10:00:36Z</time>
      </trkpt>
      <trkpt lat="42.2131850" lon="-8.7322540">
        <ele>17.4</ele>
        <time>2021-05-20T10:00:37Z</time>
      </trkpt>
      <trkpt lat="42.2132010" lon="-8.7322670">
        <ele>17.4</ele>
        <time>2021-05-20T10:00:38Z</time>
      </trkpt>
      <trkpt lat="42.2131920" lon="-8.7322950">
        <ele>17.4</ele>
        <time>2021-05-20T10:00:39Z</time>
      </trkpt>
      <trkpt lat="42.2131990" lon="-8.7322960">
        <ele>17.4</ele>
        <time>2021-05-20T10:00:40Z</time>
      </trkpt>
      <trkpt lat="42.2132080" lon="-8.7322960">
        <ele>17.4</ele>
        <time>2021-05-20T10:00:41Z</time>
      </trkpt>
      <trkpt lat="42.2132130" lon="-8.7322920">
        <ele>17.4</ele>
        <time>2021-05-20T10:00:42Z</time>
      </trkpt>
      <trkpt lat="42.2132020" lon="-8.7322900">
        <ele>17.4</ele>
        <time>2021-05-20T10:00:43Z</time>
      </trkpt>
      <trkpt lat="42.2131910" lon="-8.7322830">
        <ele>17.4</ele>
        <time>2021-05-20T10:00:44Z</time>
      </trkpt>
      <trkpt lat="42.2131800" lon="-8.7322860">
        <ele>17.4</ele>
        <time>2021-05-20T10:00:45Z</time>
      </trkpt>
      <trkpt lat="42.2131710" lon="-8.7322890">
        <ele>17.4</ele>
        <time>2021-05-20T10:00:46Z</time>
      </trkpt>
      <trkpt lat="42.2131660" lon="-8.7322900">
        <ele>17.4</ele>
        <time>2021-05-20T10:00:47Z</time>
      </trkpt>
      <trkpt lat="42.2131680" lon="-8.7322880">
        <ele>17.4</ele>
        <time>2021-05-20T10:00:48Z</time>
      </trkpt>
      <trkpt lat="42.2131640" lon="-8.7322790">
        <ele>17.4</ele>
        <time>2021-05-20T10:00:49Z</time>
      </trkpt>
      <trkpt lat="42.2131610" lon="-8.7322700">
        <ele>17.4</ele>
        <time>2021-05-20T10:00:50Z</time>
      </trkpt>
      <trkpt lat="42.2131580" lon="-8.7322620">
        <ele>17.4</ele>
        <time>2021-05-20T10:00:51Z</time>
      </trkpt>
      <trkpt lat="42.2131540" lon="-8.7322530">
        <ele>17.4</ele>
        <time>2021-05-20T10:00:52Z</time>
      </trkpt>
      <trkpt lat="42.2131510" lon="-8.7322440">
        <ele>17.4</ele>
        <time>2021-05-20T10:00:53Z</time>
      </trkpt>
      <trkpt lat="42.2131530" lon="-8.7322460">
        <ele>17.4</ele>
        <time>2021-05-20T10:00:54Z</time>
      </trkpt>
      <trkpt lat="42.2131610" lon="-8.7322430">
        <ele>17.4</ele>
        <time>2021-05-20T10:00:55Z</time>
      </trkpt>
      <trkpt lat="42.2131770" lon="-8.7322320">
        <ele>17.4</ele>
        <time>2021-05-20T10:00:56Z</time>
      </trkpt>
      <trkpt lat="42.2131970" lon="-8.7322020">
        <ele>17.4</ele>
        <time>2021-05-20T10:00:57Z</time>
      </trkpt>
      <trkpt lat="42.2132010" lon="-8.7321900">
        <ele>17.4</ele>
        <time>2021-05-20T10:00:58Z</time>
      </trkpt>
      <trkpt lat="42.2132100" lon="-8.7321790">
        <ele>17.4</ele>
        <time>2021-05-20T10:00:59Z</time>
      </trkpt>
      <trkpt lat="42.2132320" lon="-8.7321690">
        <ele>17.4</ele>
        <time>2021-05-20T10:01:00Z</time>
      </trkpt>
      <trkpt lat="42.2132420" lon="-8.7321770">
        <ele>17.5</ele>
        <time>2021-05-20T10:01:01Z</time>
      </trkpt>
      <trkpt lat="42.2132590" lon="-8.7321670">
        <ele>17.5</ele>
        <time>2021-05-20T10:01:02Z</time>
      </trkpt>
      <trkpt lat="42.2132720" lon="-8.7321630">
        <ele>17.5</ele>
        <time>2021-05-20T10:01:03Z</time>
      </trkpt>
      <trkpt lat="42.2132900" lon="-8.7321670">
        <ele>17.5</ele>
        <time>2021-05-20T10:01:04Z</time>
      </trkpt>
      <trkpt lat="42.2133180" lon="-8.7321730">
        <ele>17.5</ele>
        <time>2021-05-20T10:01:05Z</time>
      </trkpt>
      <trkpt lat="42.2133290" lon="-8.7321760">
        <ele>17.5</ele>
        <time>2021-05-20T10:01:06Z</time>
      </trkpt>
      <trkpt lat="42.2133510" lon="-8.7321840">
        <ele>17.5</ele>
        <time>2021-05-20T10:01:07Z</time>
      </trkpt>
      <trkpt lat="42.2133600" lon="-8.7321920">
        <ele>17.5</ele>
        <time>2021-05-20T10:01:08Z</time>
      </trkpt>
      <trkpt lat="42.2133700" lon="-8.7322000">
        <ele>17.5</ele>
        <time>2021-05-20T10:01:09Z</time>
      </trkpt>
      <trkpt lat="42.2133870" lon="-8.7322170">
        <ele>17.5</ele>
        <time>2021-05-20T10:01:10Z</time>
      </trkpt>
      <trkpt lat="42.2133920" lon="-8.7322270">
        <ele>17.5</ele>
        <time>2021-05-20T10:01:11Z</time>
      </trkpt>
      <trkpt lat="42.2133980" lon="-8.7322360">
        <ele>17.5</ele>
        <time>2021-05-20T10:01:12Z</time>
      </trkpt>
      <trkpt lat="42.2134070" lon="-8.7322540">
        <ele>17.5</ele>
        <time>2021-05-20T10:01:13Z</time>
      </trkpt>
      <trkpt lat="42.2134170" lon="-8.7322530">
        <ele>17.5</ele>
        <time>2021-05-20T10:01:14Z</time>
      </trkpt>
      <trkpt lat="42.2134270" lon="-8.7322530">
        <ele>17.5</ele>
        <time>2021-05-20T10:01:15Z</time>
      </trkpt>
      <trkpt lat="42.2134360" lon="-8.7322460">
        <ele>17.5</ele>
        <time>2021-05-20T10:01:16Z</time>
      </trkpt>
      <trkpt lat="42.2134590" lon="-8.7322480">
        <ele>17.5</ele>
        <time>2021-05-20T10:01:17Z</time>
      </trkpt>
      <trkpt lat="42.2134710" lon="-8.7322480">
        <ele>17.5</ele>
        <time>2021-05-20T10:01:18Z</time>
      </trkpt>
      <trkpt lat="42.2134800" lon="-8.7322500">
        <ele>17.5</ele>
        <time>2021-05-20T10:01:19Z</time>
      </trkpt>
      <trkpt lat="42.2134880" lon="-8.7322530">
        <ele>17.5</ele>
        <time>2021-05-20T10:01:20Z</time>
      </trkpt>
      <trkpt lat="42.2134960" lon="-8.7322550">
        <ele>17.5</ele>
        <time>2021-05-20T10:01:21Z</time>
      </trkpt>
      <trkpt lat="42.2135280" lon="-8.7322550">
        <ele>17.5</ele>
        <time>2021-05-20T10:01:22Z</time>
      </trkpt>
      <trkpt lat="42.2135350" lon="-8.7322510">
        <ele>17.5</ele>
        <time>2021-05-20T10:01:23Z</time>
      </trkpt>
      <trkpt lat="42.2135430" lon="-8.7322480">
        <ele>17.6</ele>
        <time>2021-05-20T10:01:24Z</time>
      </trkpt>
      <trkpt lat="42.2135560" lon="-8.7322410">
        <ele>17.6</ele>
        <time>2021-05-20T10:01:25Z</time>
      </trkpt>
      <trkpt lat="42.2135620" lon="-8.7322390">
        <ele>17.6</ele>
        <time>2021-05-20T10:01:26Z</time>
      </trkpt>
      <trkpt lat="42.2135670" lon="-8.7322380">
        <ele>17.6</ele>
        <time>2021-05-20T10:01:27Z</time>
      </trkpt>
      <trkpt lat="42.2135730" lon="-8.7322360">
        <ele>17.6</ele>
        <time>2021-05-20T10:01:28Z</time>
      </trkpt>
      <trkpt lat="42.2135790" lon="-8.7322350">
        <ele>17.6</ele>
        <time>2021-05-20T10:01:29Z</time>
      </trkpt>
      <trkpt lat="42.2136130" lon="-8.7322420">
        <ele>17.6</ele>
        <time>2021-05-20T10:01:30Z</time>
      </trkpt>
      <trkpt lat="42.2136270" lon="-8.7322440">
        <ele>17.6</ele>
        <time>2021-05-20T10:01:31Z</time>
      </trkpt>
      <trkpt lat="42.2136400" lon="-8.7322410">
        <ele>17.6</ele>
        <time>2021-05-20T10:01:32Z</time>
      </trkpt>
      <trkpt lat="42.2136550" lon="-8.7322520">
        <ele>17.6</ele>
        <time>2021-05-20T10:01:33Z</time>
      </trkpt>
      <trkpt lat="42.2136730" lon="-8.7322620">
        <ele>17.6</ele>
        <time>2021-05-20T10:01:34Z</time>
      </trkpt>
      <trkpt lat="42.2136810" lon="-8.7322670">
        <ele>17.6</ele>
        <time>2021-05-20T10:01:35Z</time>
      </trkpt>
      <trkpt lat="42.2136890" lon="-8.7322710">
        <ele>17.6</ele>
        <time>2021-05-20T10:01:36Z</time>
      </trkpt>
      <trkpt lat="42.2136910" lon="-8.7322810">
        <ele>17.6</ele>
        <time>2021-05-20T10:01:37Z</time>
      </trkpt>
      <trkpt lat="42.2136910" lon="-8.7322840">
        <ele>17.6</ele>
        <time>2021-05-20T10:01:38Z</time>
      </trkpt>
      <trkpt lat="42.2136910" lon="-8.7322870">
        <ele>17.6</ele>
        <time>2021-05-20T10:01:39Z</time>
      </trkpt>
      <trkpt lat="42.2136980" lon="-8.7322900">
        <ele>17.6</ele>
        <time>2021-05-20T10:01:40Z</time>
      </trkpt>
      <trkpt lat="42.2136990" lon="-8.7323000">
        <ele>17.6</ele>
        <time>2021-05-20T10:01:41Z</time>
      </trkpt>
      <trkpt lat="42.2137020" lon="-8.7323100">
        <ele>17.6</ele>
        <time>2021-05-20T10:01:42Z</time>
      </trkpt>
      <trkpt lat="42.2137050" lon="-8.7323250">
        <ele>17.7</ele>
        <time>2021-05-20T10:01:43Z</time>
      </trkpt>
      <trkpt lat="42.2137100" lon="-8.7323340">
        <ele>17.7</ele>
        <time>2021-05-20T10:01:44Z</time>
      </trkpt>
      <trkpt lat="42.2137070" lon="-8.7323410">
        <ele>17.7</ele>
        <time>2021-05-20T10:01:45Z</time>
      </trkpt>
      <trkpt lat="42.2137040" lon="-8.7323450">
        <ele>17.7</ele>
        <time>2021-05-20T10:01:47Z</time>
      </trkpt>
      <trkpt lat="42.2137210" lon="-8.7323370">
        <ele>17.7</ele>
        <time>2021-05-20T10:01:48Z</time>
      </trkpt>
      <trkpt lat="42.2137360" lon="-8.7323370">
        <ele>17.7</ele>
        <time>2021-05-20T10:01:49Z</time>
      </trkpt>
      <trkpt lat="42.2137400" lon="-8.7323400">
        <ele>17.7</ele>
        <time>2021-05-20T10:01:50Z</time>
      </trkpt>
      <trkpt lat="42.2137420" lon="-8.7323380">
        <ele>17.7</ele>
        <time>2021-05-20T10:01:51Z</time>
      </trkpt>
      <trkpt lat="42.2137520" lon="-8.7323300">
        <ele>17.7</ele>
        <time>2021-05-20T10:01:52Z</time>
      </trkpt>
      <trkpt lat="42.2137790" lon="-8.7323140">
        <ele>17.7</ele>
        <time>2021-05-20T10:01:53Z</time>
      </trkpt>
      <trkpt lat="42.2137920" lon="-8.7323100">
        <ele>17.7</ele>
        <time>2021-05-20T10:01:54Z</time>
      </trkpt>
      <trkpt lat="42.2138230" lon="-8.7323100">
        <ele>17.7</ele>
        <time>2021-05-20T10:01:55Z</time>
      </trkpt>
      <trkpt lat="42.2138330" lon="-8.7323090">
        <ele>17.7</ele>
        <time>2021-05-20T10:01:56Z</time>
      </trkpt>
      <trkpt lat="42.2138550" lon="-8.7323080">
        <ele>17.8</ele>
        <time>2021-05-20T10:01:57Z</time>
      </trkpt>
      <trkpt lat="42.2138630" lon="-8.7323060">
        <ele>17.8</ele>
        <time>2021-05-20T10:01:58Z</time>
      </trkpt>
      <trkpt lat="42.2138700" lon="-8.7323030">
        <ele>17.8</ele>
        <time>2021-05-20T10:01:59Z</time>
      </trkpt>
      <trkpt lat="42.2139010" lon="-8.7322950">
        <ele>17.8</ele>
        <time>2021-05-20T10:02:00Z</time>
      </trkpt>
      <trkpt lat="42.2139100" lon="-8.7322930">
        <ele>17.8</ele>
        <time>2021-05-20T10:02:01Z</time>
      </trkpt>
      <trkpt lat="42.2139470" lon="-8.7322920">
        <ele>17.9</ele>
        <time>2021-05-20T10:02:02Z</time>
      </trkpt>
      <trkpt lat="42.2139560" lon="-8.7322900">
        <ele>17.9</ele>
        <time>2021-05-20T10:02:03Z</time>
      </trkpt>
      <trkpt lat="42.2139640" lon="-8.7322750">
        <ele>17.9</ele>
        <time>2021-05-20T10:02:04Z</time>
      </trkpt>
      <trkpt lat="42.2139710" lon="-8.7322750">
        <ele>17.9</ele>
        <time>2021-05-20T10:02:05Z</time>
      </trkpt>
      <trkpt lat="42.2139850" lon="-8.7322780">
        <ele>17.9</ele>
        <time>2021-05-20T10:02:06Z</time>
      </trkpt>
      <trkpt lat="42.2140050" lon="-8.7322790">
        <ele>17.9</ele>
        <time>2021-05-20T10:02:07Z</time>
      </trkpt>
      <trkpt lat="42.2140210" lon="-8.7322730">
        <ele>17.9</ele>
        <time>2021-05-20T10:02:08Z</time>
      </trkpt>
      <trkpt lat="42.2140340" lon="-8.7322700">
        <ele>18.0</ele>
        <time>2021-05-20T10:02:09Z</time>
      </trkpt>
      <trkpt lat="42.2140500" lon="-8.7322740">
        <ele>18.0</ele>
        <time>2021-05-20T10:02:10Z</time>
      </trkpt>
      <trkpt lat="42.2140550" lon="-8.7322670">
        <ele>18.0</ele>
        <time>2021-05-20T10:02:11Z</time>
      </trkpt>
      <trkpt lat="42.2140730" lon="-8.7322680">
        <ele>18.0</ele>
        <time>2021-05-20T10:02:12Z</time>
      </trkpt>
      <trkpt lat="42.2140780" lon="-8.7322740">
        <ele>18.0</ele>
        <time>2021-05-20T10:02:13Z</time>
      </trkpt>
      <trkpt lat="42.2140820" lon="-8.7322720">
        <ele>18.0</ele>
        <time>2021-05-20T10:02:14Z</time>
      </trkpt>
      <trkpt lat="42.2140950" lon="-8.7322750">
        <ele>18.0</ele>
        <time>2021-05-20T10:02:15Z</time>
      </trkpt>
      <trkpt lat="42.2141100" lon="-8.7322700">
        <ele>18.1</ele>
        <time>2021-05-20T10:02:16Z</time>
      </trkpt>
      <trkpt lat="42.2141340" lon="-8.7322740">
        <ele>18.1</ele>
        <time>2021-05-20T10:02:17Z</time>
      </trkpt>
      <trkpt lat="42.2141410" lon="-8.7322820">
        <ele>18.1</ele>
        <time>2021-05-20T10:02:18Z</time>
      </trkpt>
      <trkpt lat="42.2141470" lon="-8.7322890">
        <ele>18.1</ele>
        <time>2021-05-20T10:02:19Z</time>
      </trkpt>
      <trkpt lat="42.2141540" lon="-8.7323070">
        <ele>18.2</ele>
        <time>2021-05-20T10:02:20Z</time>
      </trkpt>
      <trkpt lat="42.2141660" lon="-8.7323160">
        <ele>18.2</ele>
        <time>2021-05-20T10:02:21Z</time>
      </trkpt>
      <trkpt lat="42.2141980" lon="-8.7323300">
        <ele>18.2</ele>
        <time>2021-05-20T10:02:22Z</time>
      </trkpt>
      <trkpt lat="42.2142090" lon="-8.7323390">
        <ele>18.2</ele>
        <time>2021-05-20T10:02:23Z</time>
      </trkpt>
      <trkpt lat="42.2142270" lon="-8.7323500">
        <ele>18.3</ele>
        <time>2021-05-20T10:02:24Z</time>
      </trkpt>
      <trkpt lat="42.2142560" lon="-8.7323520">
        <ele>18.3</ele>
        <time>2021-05-20T10:02:25Z</time>
      </trkpt>
      <trkpt lat="42.2142680" lon="-8.7323480">
        <ele>18.3</ele>
        <time>2021-05-20T10:02:26Z</time>
      </trkpt>
      <trkpt lat="42.2142870" lon="-8.7323540">
        <ele>18.4</ele>
        <time>2021-05-20T10:02:27Z</time>
      </trkpt>
      <trkpt lat="42.2142960" lon="-8.7323550">
        <ele>18.4</ele>
        <time>2021-05-20T10:02:28Z</time>
      </trkpt>
      <trkpt lat="42.2143050" lon="-8.7323560">
        <ele>18.4</ele>
        <time>2021-05-20T10:02:29Z</time>
      </trkpt>
      <trkpt lat="42.2143230" lon="-8.7323570">
        <ele>18.4</ele>
        <time>2021-05-20T10:02:30Z</time>
      </trkpt>
      <trkpt lat="42.2143400" lon="-8.7323660">
        <ele>18.5</ele>
        <time>2021-05-20T10:02:31Z</time>
      </trkpt>
      <trkpt lat="42.2143680" lon="-8.7323550">
        <ele>18.5</ele>
        <time>2021-05-20T10:02:32Z</time>
      </trkpt>
      <trkpt lat="42.2143800" lon="-8.7323500">
        <ele>18.5</ele>
        <time>2021-05-20T10:02:33Z</time>
      </trkpt>
      <trkpt lat="42.2144150" lon="-8.7323320">
        <ele>18.6</ele>
        <time>2021-05-20T10:02:34Z</time>
      </trkpt>
      <trkpt lat="42.2144420" lon="-8.7323220">
        <ele>18.6</ele>
        <time>2021-05-20T10:02:35Z</time>
      </trkpt>
      <trkpt lat="42.2144810" lon="-8.7323070">
        <ele>18.7</ele>
        <time>2021-05-20T10:02:36Z</time>
      </trkpt>
      <trkpt lat="42.2145210" lon="-8.7322950">
        <ele>18.8</ele>
        <time>2021-05-20T10:02:37Z</time>
      </trkpt>
      <trkpt lat="42.2145570" lon="-8.7322810">
        <ele>18.9</ele>
        <time>2021-05-20T10:02:38Z</time>
      </trkpt>
      <trkpt lat="42.2145690" lon="-8.7322760">
        <ele>18.9</ele>
        <time>2021-05-20T10:02:39Z</time>
      </trkpt>
      <trkpt lat="42.2146000" lon="-8.7322700">
        <ele>19.0</ele>
        <time>2021-05-20T10:02:40Z</time>
      </trkpt>
      <trkpt lat="42.2146340" lon="-8.7322620">
        <ele>19.1</ele>
        <time>2021-05-20T10:02:41Z</time>
      </trkpt>
      <trkpt lat="42.2146450" lon="-8.7322570">
        <ele>19.1</ele>
        <time>2021-05-20T10:02:42Z</time>
      </trkpt>
      <trkpt lat="42.2147030" lon="-8.7322340">
        <ele>19.2</ele>
        <time>2021-05-20T10:02:43Z</time>
      </trkpt>
      <trkpt lat="42.2147020" lon="-8.7322340">
        <ele>19.2</ele>
        <time>2021-05-20T10:02:44Z</time>
      </trkpt>
      <trkpt lat="42.2147140" lon="-8.7322260">
        <ele>19.3</ele>
        <time>2021-05-20T10:02:45Z</time>
      </trkpt>
      <trkpt lat="42.2147250" lon="-8.7322180">
        <ele>19.3</ele>
        <time>2021-05-20T10:02:46Z</time>
      </trkpt>
      <trkpt lat="42.2147370" lon="-8.7322100">
        <ele>19.3</ele>
        <time>2021-05-20T10:02:47Z</time>
      </trkpt>
      <trkpt lat="42.2147570" lon="-8.7322220">
        <ele>19.4</ele>
        <time>2021-05-20T10:02:48Z</time>
      </trkpt>
      <trkpt lat="42.2147690" lon="-8.7322200">
        <ele>19.4</ele>
        <time>2021-05-20T10:02:49Z</time>
      </trkpt>
      <trkpt lat="42.2147820" lon="-8.7322190">
        <ele>19.4</ele>
        <time>2021-05-20T10:02:50Z</time>
      </trkpt>
      <trkpt lat="42.2147910" lon="-8.7322250">
        <ele>19.4</ele>
        <time>2021-05-20T10:02:51Z</time>
      </trkpt>
      <trkpt lat="42.2148080" lon="-8.7322220">
        <ele>19.5</ele>
        <time>2021-05-20T10:02:52Z</time>
      </trkpt>
      <trkpt lat="42.2148110" lon="-8.7322200">
        <ele>19.5</ele>
        <time>2021-05-20T10:02:53Z</time>
      </trkpt>
      <trkpt lat="42.2148100" lon="-8.7322380">
        <ele>19.5</ele>
        <time>2021-05-20T10:02:54Z</time>
      </trkpt>
      <trkpt lat="42.2148070" lon="-8.7322470">
        <ele>19.5</ele>
        <time>2021-05-20T10:02:55Z</time>
      </trkpt>
      <trkpt lat="42.2148160" lon="-8.7322470">
        <ele>19.6</ele>
        <time>2021-05-20T10:02:56Z</time>
      </trkpt>
      <trkpt lat="42.2148190" lon="-8.7322650">
        <ele>19.6</ele>
        <time>2021-05-20T10:02:57Z</time>
      </trkpt>
      <trkpt lat="42.2148290" lon="-8.7322770">
        <ele>19.6</ele>
        <time>2021-05-20T10:02:58Z</time>
      </trkpt>
      <trkpt lat="42.2148360" lon="-8.7322900">
        <ele>19.6</ele>
        <time>2021-05-20T10:02:59Z</time>
      </trkpt>
      <trkpt lat="42.2148370" lon="-8.7322980">
        <ele>19.7</ele>
        <time>2021-05-20T10:03:00Z</time>
      </trkpt>
      <trkpt lat="42.2148500" lon="-8.7323180">
        <ele>19.7</ele>
        <time>2021-05-20T10:03:01Z</time>
      </trkpt>
      <trkpt lat="42.2148570" lon="-8.7323250">
        <ele>19.7</ele>
        <time>2021-05-20T10:03:02Z</time>
      </trkpt>
      <trkpt lat="42.2148650" lon="-8.7323310">
        <ele>19.7</ele>
        <time>2021-05-20T10:03:03Z</time>
      </trkpt>
      <trkpt lat="42.2148730" lon="-8.7323390">
        <ele>19.8</ele>
        <time>2021-05-20T10:03:04Z</time>
      </trkpt>
      <trkpt lat="42.2148800" lon="-8.7323390">
        <ele>19.8</ele>
        <time>2021-05-20T10:03:05Z</time>
      </trkpt>
      <trkpt lat="42.2148990" lon="-8.7323350">
        <ele>19.8</ele>
        <time>2021-05-20T10:03:06Z</time>
      </trkpt>
      <trkpt lat="42.2149300" lon="-8.7323320">
        <ele>19.9</ele>
        <time>2021-05-20T10:03:07Z</time>
      </trkpt>
      <trkpt lat="42.2149510" lon="-8.7323390">
        <ele>20.0</ele>
        <time>2021-05-20T10:03:08Z</time>
      </trkpt>
      <trkpt lat="42.2149600" lon="-8.7323420">
        <ele>20.0</ele>
        <time>2021-05-20T10:03:09Z</time>
      </trkpt>
      <trkpt lat="42.2149690" lon="-8.7323460">
        <ele>20.0</ele>
        <time>2021-05-20T10:03:10Z</time>
      </trkpt>
      <trkpt lat="42.2149730" lon="-8.7323460">
        <ele>20.0</ele>
        <time>2021-05-20T10:03:11Z</time>
      </trkpt>
      <trkpt lat="42.2149820" lon="-8.7323450">
        <ele>20.0</ele>
        <time>2021-05-20T10:03:12Z</time>
      </trkpt>
      <trkpt lat="42.2149910" lon="-8.7323470">
        <ele>20.1</ele>
        <time>2021-05-20T10:03:13Z</time>
      </trkpt>
      <trkpt lat="42.2149890" lon="-8.7323490">
        <ele>20.1</ele>
        <time>2021-05-20T10:03:14Z</time>
      </trkpt>
      <trkpt lat="42.2149940" lon="-8.7323490">
        <ele>20.1</ele>
        <time>2021-05-20T10:03:15Z</time>
      </trkpt>
      <trkpt lat="42.2149980" lon="-8.7323560">
        <ele>20.1</ele>
        <time>2021-05-20T10:03:16Z</time>
      </trkpt>
      <trkpt lat="42.2150090" lon="-8.7323670">
        <ele>20.1</ele>
        <time>2021-05-20T10:03:17Z</time>
      </trkpt>
      <trkpt lat="42.2150120" lon="-8.7323780">
        <ele>20.1</ele>
        <time>2021-05-20T10:03:18Z</time>
      </trkpt>
      <trkpt lat="42.2150150" lon="-8.7323900">
        <ele>20.2</ele>
        <time>2021-05-20T10:03:19Z</time>
      </trkpt>
      <trkpt lat="42.2150180" lon="-8.7324020">
        <ele>20.2</ele>
        <time>2021-05-20T10:03:20Z</time>
      </trkpt>
      <trkpt lat="42.2150240" lon="-8.7324170">
        <ele>20.2</ele>
        <time>2021-05-20T10:03:21Z</time>
      </trkpt>
      <trkpt lat="42.2150340" lon="-8.7324320">
        <ele>20.2</ele>
        <time>2021-05-20T10:03:22Z</time>
      </trkpt>
      <trkpt lat="42.2150630" lon="-8.7324720">
        <ele>20.3</ele>
        <time>2021-05-20T10:03:23Z</time>
      </trkpt>
      <trkpt lat="42.2150780" lon="-8.7324960">
        <ele>20.4</ele>
        <time>2021-05-20T10:03:24Z</time>
      </trkpt>
      <trkpt lat="42.2150890" lon="-8.7325040">
        <ele>20.4</ele>
        <time>2021-05-20T10:03:25Z</time>
      </trkpt>
      <trkpt lat="42.2151000" lon="-8.7325130">
        <ele>20.4</ele>
        <time>2021-05-20T10:03:26Z</time>
      </trkpt>
      <trkpt lat="42.2151110" lon="-8.7325220">
        <ele>20.5</ele>
        <time>2021-05-20T10:03:27Z</time>
      </trkpt>
      <trkpt lat="42.2151390" lon="-8.7325450">
        <ele>20.6</ele>
        <time>2021-05-20T10:03:28Z</time>
      </trkpt>
      <trkpt lat="42.2151690" lon="-8.7325530">
        <ele>20.6</ele>
        <time>2021-05-20T10:03:29Z</time>
      </trkpt>
      <trkpt lat="42.2151760" lon="-8.7325570">
        <ele>20.6</ele>
        <time>2021-05-20T10:03:30Z</time>
      </trkpt>
      <trkpt lat="42.2151970" lon="-8.7325590">
        <ele>20.7</ele>
        <time>2021-05-20T10:03:31Z</time>
      </trkpt>
      <trkpt lat="42.2151980" lon="-8.7325550">
        <ele>20.7</ele>
        <time>2021-05-20T10:03:32Z</time>
      </trkpt>
      <trkpt lat="42.2151970" lon="-8.7325230">
        <ele>20.7</ele>
        <time>2021-05-20T10:03:33Z</time>
      </trkpt>
      <trkpt lat="42.2152000" lon="-8.7325090">
        <ele>20.8</ele>
        <time>2021-05-20T10:03:34Z</time>
      </trkpt>
      <trkpt lat="42.2152050" lon="-8.7324850">
        <ele>20.8</ele>
        <time>2021-05-20T10:03:35Z</time>
      </trkpt>
      <trkpt lat="42.2152060" lon="-8.7324370">
        <ele>20.8</ele>
        <time>2021-05-20T10:03:36Z</time>
      </trkpt>
      <trkpt lat="42.2152050" lon="-8.7324210">
        <ele>20.8</ele>
        <time>2021-05-20T10:03:37Z</time>
      </trkpt>
      <trkpt lat="42.2152100" lon="-8.7323710">
        <ele>20.9</ele>
        <time>2021-05-20T10:03:38Z</time>
      </trkpt>
      <trkpt lat="42.2152180" lon="-8.7323530">
        <ele>20.9</ele>
        <time>2021-05-20T10:03:39Z</time>
      </trkpt>
      <trkpt lat="42.2152300" lon="-8.7323120">
        <ele>21.0</ele>
        <time>2021-05-20T10:03:40Z</time>
      </trkpt>
      <trkpt lat="42.2152350" lon="-8.7323060">
        <ele>21.0</ele>
        <time>2021-05-20T10:03:41Z</time>
      </trkpt>
      <trkpt lat="42.2152480" lon="-8.7322790">
        <ele>21.0</ele>
        <time>2021-05-20T10:03:42Z</time>
      </trkpt>
      <trkpt lat="42.2152560" lon="-8.7322650">
        <ele>21.0</ele>
        <time>2021-05-20T10:03:43Z</time>
      </trkpt>
      <trkpt lat="42.2152550" lon="-8.7322520">
        <ele>21.0</ele>
        <time>2021-05-20T10:03:44Z</time>
      </trkpt>
      <trkpt lat="42.2152730" lon="-8.7322300">
        <ele>21.1</ele>
        <time>2021-05-20T10:03:45Z</time>
      </trkpt>
      <trkpt lat="42.2152880" lon="-8.7322150">
        <ele>21.1</ele>
        <time>2021-05-20T10:03:46Z</time>
      </trkpt>
      <trkpt lat="42.2152980" lon="-8.7322080">
        <ele>21.2</ele>
        <time>2021-05-20T10:03:48Z</time>
      </trkpt>
      <trkpt lat="42.2153120" lon="-8.7322040">
        <ele>21.2</ele>
        <time>2021-05-20T10:03:49Z</time>
      </trkpt>
      <trkpt lat="42.2153210" lon="-8.7322000">
        <ele>21.2</ele>
        <time>2021-05-20T10:03:50Z</time>
      </trkpt>
      <trkpt lat="42.2153330" lon="-8.7321950">
        <ele>21.2</ele>
        <time>2021-05-20T10:03:51Z</time>
      </trkpt>
      <trkpt lat="42.2153420" lon="-8.7321840">
        <ele>21.2</ele>
        <time>2021-05-20T10:03:52Z</time>
      </trkpt>
      <trkpt lat="42.2153430" lon="-8.7321810">
        <ele>21.2</ele>
        <time>2021-05-20T10:03:53Z</time>
      </trkpt>
      <trkpt lat="42.2153180" lon="-8.7321760">
        <ele>21.1</ele>
        <time>2021-05-20T10:03:54Z</time>
      </trkpt>
      <trkpt lat="42.2153080" lon="-8.7321680">
        <ele>21.1</ele>
        <time>2021-05-20T10:03:55Z</time>
      </trkpt>
      <trkpt lat="42.2153220" lon="-8.7321540">
        <ele>21.1</ele>
        <time>2021-05-20T10:03:56Z</time>
      </trkpt>
      <trkpt lat="42.2153410" lon="-8.7321510">
        <ele>21.1</ele>
        <time>2021-05-20T10:03:57Z</time>
      </trkpt>
      <trkpt lat="42.2153570" lon="-8.7321460">
        <ele>21.1</ele>
        <time>2021-05-20T10:03:58Z</time>
      </trkpt>
      <trkpt lat="42.2153680" lon="-8.7321410">
        <ele>21.1</ele>
        <time>2021-05-20T10:03:59Z</time>
      </trkpt>
      <trkpt lat="42.2153740" lon="-8.7321400">
        <ele>21.1</ele>
        <time>2021-05-20T10:04:00Z</time>
      </trkpt>
      <trkpt lat="42.2153670" lon="-8.7321370">
        <ele>21.1</ele>
        <time>2021-05-20T10:04:01Z</time>
      </trkpt>
      <trkpt lat="42.2153650" lon="-8.7321300">
        <ele>21.1</ele>
        <time>2021-05-20T10:04:02Z</time>
      </trkpt>
      <trkpt lat="42.2153490" lon="-8.7321320">
        <ele>21.1</ele>
        <time>2021-05-20T10:04:03Z</time>
      </trkpt>
      <trkpt lat="42.2153370" lon="-8.7321330">
        <ele>21.1</ele>
        <time>2021-05-20T10:04:04Z</time>
      </trkpt>
      <trkpt lat="42.2153280" lon="-8.7321390">
        <ele>21.1</ele>
        <time>2021-05-20T10:04:05Z</time>
      </trkpt>
      <trkpt lat="42.2153170" lon="-8.7321450">
        <ele>21.1</ele>
        <time>2021-05-20T10:04:06Z</time>
      </trkpt>
      <trkpt lat="42.2153260" lon="-8.7321450">
        <ele>21.1</ele>
        <time>2021-05-20T10:04:07Z</time>
      </trkpt>
      <trkpt lat="42.2153290" lon="-8.7321430">
        <ele>21.1</ele>
        <time>2021-05-20T10:04:08Z</time>
      </trkpt>
      <trkpt lat="42.2153310" lon="-8.7321500">
        <ele>21.1</ele>
        <time>2021-05-20T10:04:09Z</time>
      </trkpt>
      <trkpt lat="42.2153400" lon="-8.7321470">
        <ele>21.1</ele>
        <time>2021-05-20T10:04:10Z</time>
      </trkpt>
      <trkpt lat="42.2153410" lon="-8.7321460">
        <ele>21.1</ele>
        <time>2021-05-20T10:04:11Z</time>
      </trkpt>
      <trkpt lat="42.2153350" lon="-8.7321320">
        <ele>21.1</ele>
        <time>2021-05-20T10:04:12Z</time>
      </trkpt>
      <trkpt lat="42.2153320" lon="-8.7321320">
        <ele>21.1</ele>
        <time>2021-05-20T10:04:13Z</time>
      </trkpt>
      <trkpt lat="42.2153200" lon="-8.7321350">
        <ele>21.1</ele>
        <time>2021-05-20T10:04:14Z</time>
      </trkpt>
      <trkpt lat="42.2153150" lon="-8.7321350">
        <ele>21.1</ele>
        <time>2021-05-20T10:04:15Z</time>
      </trkpt>
      <trkpt lat="42.2153100" lon="-8.7321340">
        <ele>21.1</ele>
        <time>2021-05-20T10:04:16Z</time>
      </trkpt>
      <trkpt lat="42.2153040" lon="-8.7321340">
        <ele>21.1</ele>
        <time>2021-05-20T10:04:17Z</time>
      </trkpt>
      <trkpt lat="42.2152950" lon="-8.7321370">
        <ele>21.1</ele>
        <time>2021-05-20T10:04:18Z</time>
      </trkpt>
      <trkpt lat="42.2152820" lon="-8.7321410">
        <ele>21.1</ele>
        <time>2021-05-20T10:04:19Z</time>
      </trkpt>
      <trkpt lat="42.2152750" lon="-8.7321440">
        <ele>21.1</ele>
        <time>2021-05-20T10:04:20Z</time>
      </trkpt>
      <trkpt lat="42.2152710" lon="-8.7321460">
        <ele>21.1</ele>
        <time>2021-05-20T10:04:21Z</time>
      </trkpt>
      <trkpt lat="42.2152710" lon="-8.7321460">
        <ele>21.1</ele>
        <time>2021-05-20T10:04:22Z</time>
      </trkpt>
      <trkpt lat="42.2152770" lon="-8.7321440">
        <ele>21.1</ele>
        <time>2021-05-20T10:04:23Z</time>
      </trkpt>
      <trkpt lat="42.2152850" lon="-8.7321360">
        <ele>21.1</ele>
        <time>2021-05-20T10:04:24Z</time>
      </trkpt>
      <trkpt lat="42.2153000" lon="-8.7321260">
        <ele>21.0</ele>
        <time>2021-05-20T10:04:25Z</time>
      </trkpt>
      <trkpt lat="42.2152920" lon="-8.7321230">
        <ele>21.0</ele>
        <time>2021-05-20T10:04:26Z</time>
      </trkpt>
      <trkpt lat="42.2152780" lon="-8.7321240">
        <ele>21.0</ele>
        <time>2021-05-20T10:04:27Z</time>
      </trkpt>
      <trkpt lat="42.2152740" lon="-8.7321220">
        <ele>21.0</ele>
        <time>2021-05-20T10:04:28Z</time>
      </trkpt>
      <trkpt lat="42.2152830" lon="-8.7321240">
        <ele>21.0</ele>
        <time>2021-05-20T10:04:29Z</time>
      </trkpt>
      <trkpt lat="42.2152720" lon="-8.7321390">
        <ele>21.0</ele>
        <time>2021-05-20T10:04:30Z</time>
      </trkpt>
      <trkpt lat="42.2152610" lon="-8.7321540">
        <ele>21.0</ele>
        <time>2021-05-20T10:04:31Z</time>
      </trkpt>
      <trkpt lat="42.2152470" lon="-8.7321670">
        <ele>21.0</ele>
        <time>2021-05-20T10:04:32Z</time>
      </trkpt>
      <trkpt lat="42.2152370" lon="-8.7321750">
        <ele>21.0</ele>
        <time>2021-05-20T10:04:33Z</time>
      </trkpt>
      <trkpt lat="42.2152370" lon="-8.7321750">
        <ele>21.0</ele>
        <time>2021-05-20T10:04:34Z</time>
      </trkpt>
      <trkpt lat="42.2152370" lon="-8.7321700">
        <ele>21.0</ele>
        <time>2021-05-20T10:04:35Z</time>
      </trkpt>
      <trkpt lat="42.2152390" lon="-8.7321610">
        <ele>21.0</ele>
        <time>2021-05-20T10:04:36Z</time>
      </trkpt>
      <trkpt lat="42.2152420" lon="-8.7321550">
        <ele>21.0</ele>
        <time>2021-05-20T10:04:37Z</time>
      </trkpt>
      <trkpt lat="42.2152390" lon="-8.7321510">
        <ele>21.0</ele>
        <time>2021-05-20T10:04:38Z</time>
      </trkpt>
      <trkpt lat="42.2152370" lon="-8.7321470">
        <ele>20.9</ele>
        <time>2021-05-20T10:04:39Z</time>
      </trkpt>
      <trkpt lat="42.2152280" lon="-8.7321460">
        <ele>20.9</ele>
        <time>2021-05-20T10:04:40Z</time>
      </trkpt>
      <trkpt lat="42.2152190" lon="-8.7321490">
        <ele>20.9</ele>
        <time>2021-05-20T10:04:41Z</time>
      </trkpt>
      <trkpt lat="42.2152190" lon="-8.7321440">
        <ele>20.9</ele>
        <time>2021-05-20T10:04:42Z</time>
      </trkpt>
      <trkpt lat="42.2152180" lon="-8.7321430">
        <ele>20.9</ele>
        <time>2021-05-20T10:04:43Z</time>
      </trkpt>
      <trkpt lat="42.2152270" lon="-8.7321350">
        <ele>20.9</ele>
        <time>2021-05-20T10:04:44Z</time>
      </trkpt>
      <trkpt lat="42.2152310" lon="-8.7321300">
        <ele>20.9</ele>
        <time>2021-05-20T10:04:45Z</time>
      </trkpt>
      <trkpt lat="42.2152280" lon="-8.7321290">
        <ele>20.9</ele>
        <time>2021-05-20T10:04:46Z</time>
      </trkpt>
      <trkpt lat="42.2152330" lon="-8.7321270">
        <ele>20.9</ele>
        <time>2021-05-20T10:04:47Z</time>
      </trkpt>
      <trkpt lat="42.2152270" lon="-8.7321300">
        <ele>20.9</ele>
        <time>2021-05-20T10:04:48Z</time>
      </trkpt>
      <trkpt lat="42.2152230" lon="-8.7321310">
        <ele>20.9</ele>
        <time>2021-05-20T10:04:49Z</time>
      </trkpt>
      <trkpt lat="42.2152200" lon="-8.7321320">
        <ele>20.9</ele>
        <time>2021-05-20T10:04:50Z</time>
      </trkpt>
      <trkpt lat="42.2152200" lon="-8.7321350">
        <ele>20.9</ele>
        <time>2021-05-20T10:04:51Z</time>
      </trkpt>
      <trkpt lat="42.2152140" lon="-8.7321340">
        <ele>20.9</ele>
        <time>2021-05-20T10:04:52Z</time>
      </trkpt>
      <trkpt lat="42.2152210" lon="-8.7321350">
        <ele>20.9</ele>
        <time>2021-05-20T10:04:53Z</time>
      </trkpt>
      <trkpt lat="42.2152200" lon="-8.7321390">
        <ele>20.9</ele>
        <time>2021-05-20T10:04:54Z</time>
      </trkpt>
      <trkpt lat="42.2152290" lon="-8.7321370">
        <ele>20.9</ele>
        <time>2021-05-20T10:04:55Z</time>
      </trkpt>
      <trkpt lat="42.2152280" lon="-8.7321320">
        <ele>20.9</ele>
        <time>2021-05-20T10:04:56Z</time>
      </trkpt>
      <trkpt lat="42.2152230" lon="-8.7321330">
        <ele>20.9</ele>
        <time>2021-05-20T10:04:57Z</time>
      </trkpt>
      <trkpt lat="42.2152170" lon="-8.7321350">
        <ele>20.9</ele>
        <time>2021-05-20T10:04:58Z</time>
      </trkpt>
      <trkpt lat="42.2152240" lon="-8.7321370">
        <ele>20.9</ele>
        <time>2021-05-20T10:04:59Z</time>
      </trkpt>
      <trkpt lat="42.2152360" lon="-8.7321480">
        <ele>20.9</ele>
        <time>2021-05-20T10:05:00Z</time>
      </trkpt>
      <trkpt lat="42.2152190" lon="-8.7321720">
        <ele>20.8</ele>
        <time>2021-05-20T10:05:01Z</time>
      </trkpt>
      <trkpt lat="42.2152360" lon="-8.7321740">
        <ele>20.8</ele>
        <time>2021-05-20T10:05:02Z</time>
      </trkpt>
      <trkpt lat="42.2152380" lon="-8.7321780">
        <ele>20.8</ele>
        <time>2021-05-20T10:05:03Z</time>
      </trkpt>
      <trkpt lat="42.2152320" lon="-8.7321850">
        <ele>20.8</ele>
        <time>2021-05-20T10:05:04Z</time>
      </trkpt>
      <trkpt lat="42.2152250" lon="-8.7321930">
        <ele>20.8</ele>
        <time>2021-05-20T10:05:05Z</time>
      </trkpt>
      <trkpt lat="42.2152190" lon="-8.7322020">
        <ele>20.8</ele>
        <time>2021-05-20T10:05:06Z</time>
      </trkpt>
      <trkpt lat="42.2152120" lon="-8.7322100">
        <ele>20.8</ele>
        <time>2021-05-20T10:05:07Z</time>
      </trkpt>
      <trkpt lat="42.2152050" lon="-8.7322180">
        <ele>20.8</ele>
        <time>2021-05-20T10:05:08Z</time>
      </trkpt>
      <trkpt lat="42.2151950" lon="-8.7322330">
        <ele>20.7</ele>
        <time>2021-05-20T10:05:09Z</time>
      </trkpt>
      <trkpt lat="42.2151840" lon="-8.7322320">
        <ele>20.7</ele>
        <time>2021-05-20T10:05:10Z</time>
      </trkpt>
      <trkpt lat="42.2151740" lon="-8.7322400">
        <ele>20.7</ele>
        <time>2021-05-20T10:05:11Z</time>
      </trkpt>
      <trkpt lat="42.2151570" lon="-8.7322510">
        <ele>20.6</ele>
        <time>2021-05-20T10:05:12Z</time>
      </trkpt>
      <trkpt lat="42.2151500" lon="-8.7322650">
        <ele>20.6</ele>
        <time>2021-05-20T10:05:13Z</time>
      </trkpt>
      <trkpt lat="42.2151440" lon="-8.7322800">
        <ele>20.6</ele>
        <time>2021-05-20T10:05:14Z</time>
      </trkpt>
      <trkpt lat="42.2151360" lon="-8.7322880">
        <ele>20.5</ele>
        <time>2021-05-20T10:05:15Z</time>
      </trkpt>
      <trkpt lat="42.2151300" lon="-8.7322930">
        <ele>20.5</ele>
        <time>2021-05-20T10:05:16Z</time>
      </trkpt>
      <trkpt lat="42.2151250" lon="-8.7322990">
        <ele>20.5</ele>
        <time>2021-05-20T10:05:17Z</time>
      </trkpt>
      <trkpt lat="42.2151190" lon="-8.7323040">
        <ele>20.5</ele>
        <time>2021-05-20T10:05:18Z</time>
      </trkpt>
      <trkpt lat="42.2151130" lon="-8.7323090">
        <ele>20.5</ele>
        <time>2021-05-20T10:05:19Z</time>
      </trkpt>
      <trkpt lat="42.2151070" lon="-8.7323140">
        <ele>20.5</ele>
        <time>2021-05-20T10:05:20Z</time>
      </trkpt>
      <trkpt lat="42.2151020" lon="-8.7323200">
        <ele>20.5</ele>
        <time>2021-05-20T10:05:21Z</time>
      </trkpt>
      <trkpt lat="42.2150960" lon="-8.7323250">
        <ele>20.5</ele>
        <time>2021-05-20T10:05:22Z</time>
      </trkpt>
      <trkpt lat="42.2150900" lon="-8.7323300">
        <ele>20.5</ele>
        <time>2021-05-20T10:05:23Z</time>
      </trkpt>
      <trkpt lat="42.2150730" lon="-8.7323420">
        <ele>20.5</ele>
        <time>2021-05-20T10:05:24Z</time>
      </trkpt>
      <trkpt lat="42.2150610" lon="-8.7323430">
        <ele>20.5</ele>
        <time>2021-05-20T10:05:25Z</time>
      </trkpt>
      <trkpt lat="42.2150560" lon="-8.7323480">
        <ele>20.5</ele>
        <time>2021-05-20T10:05:26Z</time>
      </trkpt>
      <trkpt lat="42.2150470" lon="-8.7323590">
        <ele>20.5</ele>
        <time>2021-05-20T10:05:27Z</time>
      </trkpt>
      <trkpt lat="42.2150400" lon="-8.7323740">
        <ele>20.5</ele>
        <time>2021-05-20T10:05:28Z</time>
      </trkpt>
      <trkpt lat="42.2150220" lon="-8.7324000">
        <ele>20.5</ele>
        <time>2021-05-20T10:05:29Z</time>
      </trkpt>
      <trkpt lat="42.2150190" lon="-8.7324190">
        <ele>20.5</ele>
        <time>2021-05-20T10:05:30Z</time>
      </trkpt>
      <trkpt lat="42.2150150" lon="-8.7324370">
        <ele>20.4</ele>
        <time>2021-05-20T10:05:31Z</time>
      </trkpt>
      <trkpt lat="42.2150150" lon="-8.7324530">
        <ele>20.4</ele>
        <time>2021-05-20T10:05:32Z</time>
      </trkpt>
      <trkpt lat="42.2150110" lon="-8.7324690">
        <ele>20.4</ele>
        <time>2021-05-20T10:05:33Z</time>
      </trkpt>
      <trkpt lat="42.2150070" lon="-8.7324760">
        <ele>20.4</ele>
        <time>2021-05-20T10:05:34Z</time>
      </trkpt>
      <trkpt lat="42.2150080" lon="-8.7324960">
        <ele>20.4</ele>
        <time>2021-05-20T10:05:35Z</time>
      </trkpt>
      <trkpt lat="42.2150090" lon="-8.7325170">
        <ele>20.4</ele>
        <time>2021-05-20T10:05:36Z</time>
      </trkpt>
      <trkpt lat="42.2150100" lon="-8.7325370">
        <ele>20.4</ele>
        <time>2021-05-20T10:05:37Z</time>
      </trkpt>
      <trkpt lat="42.2150080" lon="-8.7325380">
        <ele>20.4</ele>
        <time>2021-05-20T10:05:38Z</time>
      </trkpt>
      <trkpt lat="42.2150080" lon="-8.7325380">
        <ele>20.4</ele>
        <time>2021-05-20T10:05:39Z</time>
      </trkpt>
      <trkpt lat="42.2150050" lon="-8.7325450">
        <ele>20.4</ele>
        <time>2021-05-20T10:05:40Z</time>
      </trkpt>
      <trkpt lat="42.2150090" lon="-8.7325450">
        <ele>20.4</ele>
        <time>2021-05-20T10:05:41Z</time>
      </trkpt>
      <trkpt lat="42.2150100" lon="-8.7325460">
        <ele>20.4</ele>
        <time>2021-05-20T10:05:42Z</time>
      </trkpt>
      <trkpt lat="42.2150070" lon="-8.7325340">
        <ele>20.4</ele>
        <time>2021-05-20T10:05:43Z</time>
      </trkpt>
      <trkpt lat="42.2150030" lon="-8.7325330">
        <ele>20.4</ele>
        <time>2021-05-20T10:05:44Z</time>
      </trkpt>
      <trkpt lat="42.2149990" lon="-8.7325300">
        <ele>20.4</ele>
        <time>2021-05-20T10:05:45Z</time>
      </trkpt>
      <trkpt lat="42.2149920" lon="-8.7325180">
        <ele>20.4</ele>
        <time>2021-05-20T10:05:46Z</time>
      </trkpt>
      <trkpt lat="42.2149900" lon="-8.7325170">
        <ele>20.4</ele>
        <time>2021-05-20T10:05:47Z</time>
      </trkpt>
      <trkpt lat="42.2149880" lon="-8.7325140">
        <ele>20.4</ele>
        <time>2021-05-20T10:05:48Z</time>
      </trkpt>
      <trkpt lat="42.2149830" lon="-8.7325060">
        <ele>20.4</ele>
        <time>2021-05-20T10:05:49Z</time>
      </trkpt>
      <trkpt lat="42.2149860" lon="-8.7325040">
        <ele>20.4</ele>
        <time>2021-05-20T10:05:50Z</time>
      </trkpt>
      <trkpt lat="42.2149860" lon="-8.7325070">
        <ele>20.4</ele>
        <time>2021-05-20T10:05:51Z</time>
      </trkpt>
      <trkpt lat="42.2149860" lon="-8.7325090">
        <ele>20.4</ele>
        <time>2021-05-20T10:05:52Z</time>
      </trkpt>
      <trkpt lat="42.2149860" lon="-8.7325080">
        <ele>20.4</ele>
        <time>2021-05-20T10:05:53Z</time>
      </trkpt>
      <trkpt lat="42.2149840" lon="-8.7325100">
        <ele>20.4</ele>
        <time>2021-05-20T10:05:54Z</time>
      </trkpt>
      <trkpt lat="42.2149800" lon="-8.7325130">
        <ele>20.4</ele>
        <time>2021-05-20T10:05:55Z</time>
      </trkpt>
      <trkpt lat="42.2149790" lon="-8.7325140">
        <ele>20.4</ele>
        <time>2021-05-20T10:05:56Z</time>
      </trkpt>
      <trkpt lat="42.2149620" lon="-8.7324990">
        <ele>20.4</ele>
        <time>2021-05-20T10:05:57Z</time>
      </trkpt>
      <trkpt lat="42.2149590" lon="-8.7324940">
        <ele>20.4</ele>
        <time>2021-05-20T10:05:58Z</time>
      </trkpt>
      <trkpt lat="42.2149580" lon="-8.7324910">
        <ele>20.4</ele>
        <time>2021-05-20T10:05:59Z</time>
      </trkpt>
      <trkpt lat="42.2149550" lon="-8.7324880">
        <ele>20.4</ele>
        <time>2021-05-20T10:06:00Z</time>
      </trkpt>
      <trkpt lat="42.2149550" lon="-8.7324880">
        <ele>20.4</ele>
        <time>2021-05-20T10:06:01Z</time>
      </trkpt>
      <trkpt lat="42.2149550" lon="-8.7324880">
        <ele>20.4</ele>
        <time>2021-05-20T10:06:02Z</time>
      </trkpt>
      <trkpt lat="42.2149550" lon="-8.7324880">
        <ele>20.4</ele>
        <time>2021-05-20T10:06:03Z</time>
      </trkpt>
      <trkpt lat="42.2149550" lon="-8.7324880">
        <ele>20.4</ele>
        <time>2021-05-20T10:06:04Z</time>
      </trkpt>
      <trkpt lat="42.2149550" lon="-8.7324880">
        <ele>20.4</ele>
        <time>2021-05-20T10:06:05Z</time>
      </trkpt>
      <trkpt lat="42.2149550" lon="-8.7324880">
        <ele>20.4</ele>
        <time>2021-05-20T10:06:06Z</time>
      </trkpt>
      <trkpt lat="42.2149550" lon="-8.7324880">
        <ele>20.4</ele>
        <time>2021-05-20T10:06:07Z</time>
      </trkpt>
      <trkpt lat="42.2149550" lon="-8.7324880">
        <ele>20.4</ele>
        <time>2021-05-20T10:06:08Z</time>
      </trkpt>
      <trkpt lat="42.2149550" lon="-8.7324880">
        <ele>20.4</ele>
        <time>2021-05-20T10:06:09Z</time>
      </trkpt>
      <trkpt lat="42.2149550" lon="-8.7324880">
        <ele>20.4</ele>
        <time>2021-05-20T10:06:10Z</time>
      </trkpt>
      <trkpt lat="42.2149550" lon="-8.7324880">
        <ele>20.4</ele>
        <time>2021-05-20T10:06:11Z</time>
      </trkpt>
      <trkpt lat="42.2149550" lon="-8.7324880">
        <ele>20.4</ele>
        <time>2021-05-20T10:06:13Z</time>
      </trkpt>
      <trkpt lat="42.2149550" lon="-8.7324880">
        <ele>20.4</ele>
        <time>2021-05-20T10:06:14Z</time>
      </trkpt>
      <trkpt lat="42.2149550" lon="-8.7324880">
        <ele>20.4</ele>
        <time>2021-05-20T10:06:15Z</time>
      </trkpt>
      <trkpt lat="42.2149390" lon="-8.7324640">
        <ele>20.4</ele>
        <time>2021-05-20T10:06:16Z</time>
      </trkpt>
      <trkpt lat="42.2149380" lon="-8.7324630">
        <ele>20.4</ele>
        <time>2021-05-20T10:06:17Z</time>
      </trkpt>
      <trkpt lat="42.2149360" lon="-8.7324610">
        <ele>20.4</ele>
        <time>2021-05-20T10:06:18Z</time>
      </trkpt>
      <trkpt lat="42.2149330" lon="-8.7324560">
        <ele>20.4</ele>
        <time>2021-05-20T10:06:19Z</time>
      </trkpt>
      <trkpt lat="42.2149310" lon="-8.7324540">
        <ele>20.4</ele>
        <time>2021-05-20T10:06:20Z</time>
      </trkpt>
      <trkpt lat="42.2149310" lon="-8.7324530">
        <ele>20.4</ele>
        <time>2021-05-20T10:06:21Z</time>
      </trkpt>
      <trkpt lat="42.2149310" lon="-8.7324530">
        <ele>20.4</ele>
        <time>2021-05-20T10:06:22Z</time>
      </trkpt>
      <trkpt lat="42.2149290" lon="-8.7324560">
        <ele>20.4</ele>
        <time>2021-05-20T10:06:23Z</time>
      </trkpt>
      <trkpt lat="42.2149300" lon="-8.7324560">
        <ele>20.4</ele>
        <time>2021-05-20T10:06:24Z</time>
      </trkpt>
      <trkpt lat="42.2149310" lon="-8.7324570">
        <ele>20.4</ele>
        <time>2021-05-20T10:06:25Z</time>
      </trkpt>
      <trkpt lat="42.2149270" lon="-8.7324530">
        <ele>20.4</ele>
        <time>2021-05-20T10:06:26Z</time>
      </trkpt>
      <trkpt lat="42.2149300" lon="-8.7324540">
        <ele>20.4</ele>
        <time>2021-05-20T10:06:27Z</time>
      </trkpt>
      <trkpt lat="42.2149340" lon="-8.7324570">
        <ele>20.4</ele>
        <time>2021-05-20T10:06:28Z</time>
      </trkpt>
      <trkpt lat="42.2149350" lon="-8.7324520">
        <ele>20.4</ele>
        <time>2021-05-20T10:06:29Z</time>
      </trkpt>
      <trkpt lat="42.2149400" lon="-8.7324550">
        <ele>20.4</ele>
        <time>2021-05-20T10:06:30Z</time>
      </trkpt>
      <trkpt lat="42.2149460" lon="-8.7324540">
        <ele>20.4</ele>
        <time>2021-05-20T10:06:31Z</time>
      </trkpt>
      <trkpt lat="42.2149460" lon="-8.7324540">
        <ele>20.4</ele>
        <time>2021-05-20T10:06:32Z</time>
      </trkpt>
      <trkpt lat="42.2149430" lon="-8.7324340">
        <ele>20.4</ele>
        <time>2021-05-20T10:06:33Z</time>
      </trkpt>
      <trkpt lat="42.2149470" lon="-8.7324260">
        <ele>20.4</ele>
        <time>2021-05-20T10:06:34Z</time>
      </trkpt>
      <trkpt lat="42.2149410" lon="-8.7324230">
        <ele>20.4</ele>
        <time>2021-05-20T10:06:35Z</time>
      </trkpt>
      <trkpt lat="42.2149400" lon="-8.7324210">
        <ele>20.4</ele>
        <time>2021-05-20T10:06:36Z</time>
      </trkpt>
      <trkpt lat="42.2149450" lon="-8.7324280">
        <ele>20.4</ele>
        <time>2021-05-20T10:06:37Z</time>
      </trkpt>
      <trkpt lat="42.2149470" lon="-8.7324360">
        <ele>20.4</ele>
        <time>2021-05-20T10:06:38Z</time>
      </trkpt>
      <trkpt lat="42.2149510" lon="-8.7324420">
        <ele>20.4</ele>
        <time>2021-05-20T10:06:39Z</time>
      </trkpt>
      <trkpt lat="42.2149540" lon="-8.7324570">
        <ele>20.4</ele>
        <time>2021-05-20T10:06:40Z</time>
      </trkpt>
      <trkpt lat="42.2149570" lon="-8.7324660">
        <ele>20.4</ele>
        <time>2021-05-20T10:06:41Z</time>
      </trkpt>
      <trkpt lat="42.2149590" lon="-8.7324650">
        <ele>20.4</ele>
        <time>2021-05-20T10:06:42Z</time>
      </trkpt>
      <trkpt lat="42.2149590" lon="-8.7324660">
        <ele>20.4</ele>
        <time>2021-05-20T10:06:43Z</time>
      </trkpt>
      <trkpt lat="42.2149590" lon="-8.7324630">
        <ele>20.4</ele>
        <time>2021-05-20T10:06:44Z</time>
      </trkpt>
      <trkpt lat="42.2149570" lon="-8.7324680">
        <ele>20.4</ele>
        <time>2021-05-20T10:06:45Z</time>
      </trkpt>
      <trkpt lat="42.2149550" lon="-8.7324690">
        <ele>20.4</ele>
        <time>2021-05-20T10:06:46Z</time>
      </trkpt>
      <trkpt lat="42.2149500" lon="-8.7324770">
        <ele>20.4</ele>
        <time>2021-05-20T10:06:47Z</time>
      </trkpt>
      <trkpt lat="42.2149460" lon="-8.7324800">
        <ele>20.4</ele>
        <time>2021-05-20T10:06:48Z</time>
      </trkpt>
      <trkpt lat="42.2149380" lon="-8.7324880">
        <ele>20.4</ele>
        <time>2021-05-20T10:06:49Z</time>
      </trkpt>
      <trkpt lat="42.2149390" lon="-8.7324820">
        <ele>20.4</ele>
        <time>2021-05-20T10:06:50Z</time>
      </trkpt>
      <trkpt lat="42.2149450" lon="-8.7324700">
        <ele>20.4</ele>
        <time>2021-05-20T10:06:51Z</time>
      </trkpt>
      <trkpt lat="42.2149420" lon="-8.7324730">
        <ele>20.4</ele>
        <time>2021-05-20T10:06:52Z</time>
      </trkpt>
      <trkpt lat="42.2149480" lon="-8.7324630">
        <ele>20.4</ele>
        <time>2021-05-20T10:06:53Z</time>
      </trkpt>
      <trkpt lat="42.2149510" lon="-8.7324490">
        <ele>20.4</ele>
        <time>2021-05-20T10:06:54Z</time>
      </trkpt>
      <trkpt lat="42.2149480" lon="-8.7324570">
        <ele>20.4</ele>
        <time>2021-05-20T10:06:55Z</time>
      </trkpt>
      <trkpt lat="42.2149450" lon="-8.7324710">
        <ele>20.4</ele>
        <time>2021-05-20T10:06:56Z</time>
      </trkpt>
      <trkpt lat="42.2149380" lon="-8.7324740">
        <ele>20.4</ele>
        <time>2021-05-20T10:06:57Z</time>
      </trkpt>
      <trkpt lat="42.2149350" lon="-8.7324690">
        <ele>20.4</ele>
        <time>2021-05-20T10:06:58Z</time>
      </trkpt>
      <trkpt lat="42.2149400" lon="-8.7324630">
        <ele>20.4</ele>
        <time>2021-05-20T10:06:59Z</time>
      </trkpt>
      <trkpt lat="42.2149490" lon="-8.7324530">
        <ele>20.4</ele>
        <time>2021-05-20T10:07:00Z</time>
      </trkpt>
      <trkpt lat="42.2149540" lon="-8.7324580">
        <ele>20.4</ele>
        <time>2021-05-20T10:07:01Z</time>
      </trkpt>
      <trkpt lat="42.2149570" lon="-8.7324570">
        <ele>20.4</ele>
        <time>2021-05-20T10:07:02Z</time>
      </trkpt>
      <trkpt lat="42.2149550" lon="-8.7324520">
        <ele>20.4</ele>
        <time>2021-05-20T10:07:03Z</time>
      </trkpt>
      <trkpt lat="42.2149400" lon="-8.7324700">
        <ele>20.4</ele>
        <time>2021-05-20T10:07:04Z</time>
      </trkpt>
      <trkpt lat="42.2149460" lon="-8.7324740">
        <ele>20.4</ele>
        <time>2021-05-20T10:07:05Z</time>
      </trkpt>
      <trkpt lat="42.2149380" lon="-8.7324750">
        <ele>20.4</ele>
        <time>2021-05-20T10:07:06Z</time>
      </trkpt>
      <trkpt lat="42.2149340" lon="-8.7324620">
        <ele>20.4</ele>
        <time>2021-05-20T10:07:07Z</time>
      </trkpt>
      <trkpt lat="42.2149290" lon="-8.7324600">
        <ele>20.4</ele>
        <time>2021-05-20T10:07:08Z</time>
      </trkpt>
      <trkpt lat="42.2149350" lon="-8.7324660">
        <ele>20.4</ele>
        <time>2021-05-20T10:07:09Z</time>
      </trkpt>
      <trkpt lat="42.2149320" lon="-8.7324410">
        <ele>20.4</ele>
        <time>2021-05-20T10:07:10Z</time>
      </trkpt>
      <trkpt lat="42.2149380" lon="-8.7324570">
        <ele>20.4</ele>
        <time>2021-05-20T10:07:11Z</time>
      </trkpt>
      <trkpt lat="42.2149500" lon="-8.7324610">
        <ele>20.4</ele>
        <time>2021-05-20T10:07:12Z</time>
      </trkpt>
      <trkpt lat="42.2149560" lon="-8.7324670">
        <ele>20.3</ele>
        <time>2021-05-20T10:07:13Z</time>
      </trkpt>
      <trkpt lat="42.2149610" lon="-8.7324810">
        <ele>20.3</ele>
        <time>2021-05-20T10:07:14Z</time>
      </trkpt>
      <trkpt lat="42.2149640" lon="-8.7324810">
        <ele>20.3</ele>
        <time>2021-05-20T10:07:15Z</time>
      </trkpt>
      <trkpt lat="42.2149670" lon="-8.7324690">
        <ele>20.3</ele>
        <time>2021-05-20T10:07:16Z</time>
      </trkpt>
      <trkpt lat="42.2149680" lon="-8.7324550">
        <ele>20.3</ele>
        <time>2021-05-20T10:07:17Z</time>
      </trkpt>
      <trkpt lat="42.2149700" lon="-8.7324510">
        <ele>20.3</ele>
        <time>2021-05-20T10:07:18Z</time>
      </trkpt>
      <trkpt lat="42.2149840" lon="-8.7324520">
        <ele>20.3</ele>
        <time>2021-05-20T10:07:19Z</time>
      </trkpt>
      <trkpt lat="42.2149930" lon="-8.7324490">
        <ele>20.3</ele>
        <time>2021-05-20T10:07:20Z</time>
      </trkpt>
      <trkpt lat="42.2149990" lon="-8.7324500">
        <ele>20.3</ele>
        <time>2021-05-20T10:07:21Z</time>
      </trkpt>
      <trkpt lat="42.2150030" lon="-8.7324390">
        <ele>20.3</ele>
        <time>2021-05-20T10:07:22Z</time>
      </trkpt>
      <trkpt lat="42.2150070" lon="-8.7324460">
        <ele>20.3</ele>
        <time>2021-05-20T10:07:23Z</time>
      </trkpt>
      <trkpt lat="42.2150140" lon="-8.7324370">
        <ele>20.3</ele>
        <time>2021-05-20T10:07:24Z</time>
      </trkpt>
      <trkpt lat="42.2150340" lon="-8.7324450">
        <ele>20.3</ele>
        <time>2021-05-20T10:07:25Z</time>
      </trkpt>
      <trkpt lat="42.2150400" lon="-8.7324550">
        <ele>20.3</ele>
        <time>2021-05-20T10:07:26Z</time>
      </trkpt>
      <trkpt lat="42.2150470" lon="-8.7324650">
        <ele>20.3</ele>
        <time>2021-05-20T10:07:27Z</time>
      </trkpt>
      <trkpt lat="42.2150480" lon="-8.7324610">
        <ele>20.3</ele>
        <time>2021-05-20T10:07:28Z</time>
      </trkpt>
      <trkpt lat="42.2150520" lon="-8.7324660">
        <ele>20.3</ele>
        <time>2021-05-20T10:07:29Z</time>
      </trkpt>
      <trkpt lat="42.2150400" lon="-8.7324510">
        <ele>20.3</ele>
        <time>2021-05-20T10:07:30Z</time>
      </trkpt>
      <trkpt lat="42.2150310" lon="-8.7324420">
        <ele>20.3</ele>
        <time>2021-05-20T10:07:31Z</time>
      </trkpt>
      <trkpt lat="42.2150590" lon="-8.7324320">
        <ele>20.3</ele>
        <time>2021-05-20T10:07:32Z</time>
      </trkpt>
      <trkpt lat="42.2150880" lon="-8.7324280">
        <ele>20.4</ele>
        <time>2021-05-20T10:07:33Z</time>
      </trkpt>
      <trkpt lat="42.2151250" lon="-8.7324250">
        <ele>20.5</ele>
        <time>2021-05-20T10:07:34Z</time>
      </trkpt>
      <trkpt lat="42.2151520" lon="-8.7324170">
        <ele>20.6</ele>
        <time>2021-05-20T10:07:35Z</time>
      </trkpt>
      <trkpt lat="42.2151690" lon="-8.7324220">
        <ele>20.7</ele>
        <time>2021-05-20T10:07:36Z</time>
      </trkpt>
      <trkpt lat="42.2151830" lon="-8.7324220">
        <ele>20.7</ele>
        <time>2021-05-20T10:07:37Z</time>
      </trkpt>
      <trkpt lat="42.2151980" lon="-8.7324150">
        <ele>20.8</ele>
        <time>2021-05-20T10:07:38Z</time>
      </trkpt>
      <trkpt lat="42.2152180" lon="-8.7324100">
        <ele>20.8</ele>
        <time>2021-05-20T10:07:39Z</time>
      </trkpt>
      <trkpt lat="42.2152360" lon="-8.7324140">
        <ele>20.9</ele>
        <time>2021-05-20T10:07:40Z</time>
      </trkpt>
      <trkpt lat="42.2152440" lon="-8.7324260">
        <ele>21.0</ele>
        <time>2021-05-20T10:07:41Z</time>
      </trkpt>
      <trkpt lat="42.2152670" lon="-8.7324350">
        <ele>21.1</ele>
        <time>2021-05-20T10:07:42Z</time>
      </trkpt>
      <trkpt lat="42.2152760" lon="-8.7324390">
        <ele>21.1</ele>
        <time>2021-05-20T10:07:43Z</time>
      </trkpt>
      <trkpt lat="42.2152850" lon="-8.7324440">
        <ele>21.1</ele>
        <time>2021-05-20T10:07:44Z</time>
      </trkpt>
      <trkpt lat="42.2152840" lon="-8.7324490">
        <ele>21.1</ele>
        <time>2021-05-20T10:07:45Z</time>
      </trkpt>
      <trkpt lat="42.2153000" lon="-8.7324440">
        <ele>21.1</ele>
        <time>2021-05-20T10:07:46Z</time>
      </trkpt>
      <trkpt lat="42.2153200" lon="-8.7324470">
        <ele>21.1</ele>
        <time>2021-05-20T10:07:47Z</time>
      </trkpt>
      <trkpt lat="42.2153290" lon="-8.7324370">
        <ele>21.1</ele>
        <time>2021-05-20T10:07:48Z</time>
      </trkpt>
      <trkpt lat="42.2153370" lon="-8.7324390">
        <ele>21.1</ele>
        <time>2021-05-20T10:07:49Z</time>
      </trkpt>
      <trkpt lat="42.2153460" lon="-8.7324360">
        <ele>21.1</ele>
        <time>2021-05-20T10:07:50Z</time>
      </trkpt>
      <trkpt lat="42.2153580" lon="-8.7324420">
        <ele>21.2</ele>
        <time>2021-05-20T10:07:51Z</time>
      </trkpt>
      <trkpt lat="42.2153750" lon="-8.7324380">
        <ele>21.2</ele>
        <time>2021-05-20T10:07:52Z</time>
      </trkpt>
      <trkpt lat="42.2153810" lon="-8.7324400">
        <ele>21.2</ele>
        <time>2021-05-20T10:07:53Z</time>
      </trkpt>
      <trkpt lat="42.2153920" lon="-8.7324380">
        <ele>21.2</ele>
        <time>2021-05-20T10:07:54Z</time>
      </trkpt>
      <trkpt lat="42.2154020" lon="-8.7324340">
        <ele>21.2</ele>
        <time>2021-05-20T10:07:55Z</time>
      </trkpt>
      <trkpt lat="42.2154120" lon="-8.7324270">
        <ele>21.2</ele>
        <time>2021-05-20T10:07:56Z</time>
      </trkpt>
      <trkpt lat="42.2153890" lon="-8.7324290">
        <ele>21.2</ele>
        <time>2021-05-20T10:07:57Z</time>
      </trkpt>
      <trkpt lat="42.2153680" lon="-8.7324220">
        <ele>21.2</ele>
        <time>2021-05-20T10:07:58Z</time>
      </trkpt>
      <trkpt lat="42.2153370" lon="-8.7324040">
        <ele>21.2</ele>
        <time>2021-05-20T10:07:59Z</time>
      </trkpt>
      <trkpt lat="42.2153270" lon="-8.7323970">
        <ele>21.2</ele>
        <time>2021-05-20T10:08:00Z</time>
      </trkpt>
      <trkpt lat="42.2153050" lon="-8.7323670">
        <ele>21.2</ele>
        <time>2021-05-20T10:08:01Z</time>
      </trkpt>
      <trkpt lat="42.2152940" lon="-8.7323570">
        <ele>21.1</ele>
        <time>2021-05-20T10:08:02Z</time>
      </trkpt>
      <trkpt lat="42.2152650" lon="-8.7323270">
        <ele>20.8</ele>
        <time>2021-05-20T10:08:03Z</time>
      </trkpt>
      <trkpt lat="42.2152530" lon="-8.7323180">
        <ele>20.8</ele>
        <time>2021-05-20T10:08:04Z</time>
      </trkpt>
      <trkpt lat="42.2152420" lon="-8.7323070">
        <ele>20.7</ele>
        <time>2021-05-20T10:08:05Z</time>
      </trkpt>
      <trkpt lat="42.2152460" lon="-8.7322910">
        <ele>20.6</ele>
        <time>2021-05-20T10:08:06Z</time>
      </trkpt>
      <trkpt lat="42.2152390" lon="-8.7322750">
        <ele>20.5</ele>
        <time>2021-05-20T10:08:07Z</time>
      </trkpt>
      <trkpt lat="42.2152400" lon="-8.7322640">
        <ele>20.5</ele>
        <time>2021-05-20T10:08:08Z</time>
      </trkpt>
      <trkpt lat="42.2152420" lon="-8.7322480">
        <ele>20.4</ele>
        <time>2021-05-20T10:08:09Z</time>
      </trkpt>
      <trkpt lat="42.2152380" lon="-8.7322400">
        <ele>20.4</ele>
        <time>2021-05-20T10:08:10Z</time>
      </trkpt>
      <trkpt lat="42.2152300" lon="-8.7322430">
        <ele>20.3</ele>
        <time>2021-05-20T10:08:11Z</time>
      </trkpt>
      <trkpt lat="42.2152290" lon="-8.7322390">
        <ele>20.3</ele>
        <time>2021-05-20T10:08:12Z</time>
      </trkpt>
      <trkpt lat="42.2152190" lon="-8.7322130">
        <ele>20.2</ele>
        <time>2021-05-20T10:08:13Z</time>
      </trkpt>
      <trkpt lat="42.2152180" lon="-8.7321900">
        <ele>20.1</ele>
        <time>2021-05-20T10:08:14Z</time>
      </trkpt>
      <trkpt lat="42.2152180" lon="-8.7321680">
        <ele>20.0</ele>
        <time>2021-05-20T10:08:15Z</time>
      </trkpt>
      <trkpt lat="42.2152030" lon="-8.7321440">
        <ele>19.9</ele>
        <time>2021-05-20T10:08:16Z</time>
      </trkpt>
      <trkpt lat="42.2151950" lon="-8.7321430">
        <ele>19.8</ele>
        <time>2021-05-20T10:08:17Z</time>
      </trkpt>
      <trkpt lat="42.2151750" lon="-8.7321310">
        <ele>19.7</ele>
        <time>2021-05-20T10:08:18Z</time>
      </trkpt>
      <trkpt lat="42.2151720" lon="-8.7321160">
        <ele>19.6</ele>
        <time>2021-05-20T10:08:19Z</time>
      </trkpt>
      <trkpt lat="42.2151560" lon="-8.7320810">
        <ele>19.5</ele>
        <time>2021-05-20T10:08:20Z</time>
      </trkpt>
      <trkpt lat="42.2151520" lon="-8.7320730">
        <ele>19.4</ele>
        <time>2021-05-20T10:08:21Z</time>
      </trkpt>
      <trkpt lat="42.2151320" lon="-8.7320460">
        <ele>19.3</ele>
        <time>2021-05-20T10:08:22Z</time>
      </trkpt>
      <trkpt lat="42.2151200" lon="-8.7320350">
        <ele>19.2</ele>
        <time>2021-05-20T10:08:23Z</time>
      </trkpt>
      <trkpt lat="42.2151080" lon="-8.7319980">
        <ele>19.1</ele>
        <time>2021-05-20T10:08:24Z</time>
      </trkpt>
      <trkpt lat="42.2151070" lon="-8.7319820">
        <ele>19.1</ele>
        <time>2021-05-20T10:08:25Z</time>
      </trkpt>
      <trkpt lat="42.2151050" lon="-8.7319700">
        <ele>19.0</ele>
        <time>2021-05-20T10:08:26Z</time>
      </trkpt>
      <trkpt lat="42.2151080" lon="-8.7319500">
        <ele>19.0</ele>
        <time>2021-05-20T10:08:27Z</time>
      </trkpt>
      <trkpt lat="42.2151070" lon="-8.7319360">
        <ele>18.9</ele>
        <time>2021-05-20T10:08:28Z</time>
      </trkpt>
      <trkpt lat="42.2151080" lon="-8.7319180">
        <ele>18.9</ele>
        <time>2021-05-20T10:08:29Z</time>
      </trkpt>
      <trkpt lat="42.2151130" lon="-8.7319090">
        <ele>18.9</ele>
        <time>2021-05-20T10:08:30Z</time>
      </trkpt>
      <trkpt lat="42.2151090" lon="-8.7318910">
        <ele>18.8</ele>
        <time>2021-05-20T10:08:31Z</time>
      </trkpt>
      <trkpt lat="42.2151300" lon="-8.7318640">
        <ele>18.8</ele>
        <time>2021-05-20T10:08:32Z</time>
      </trkpt>
      <trkpt lat="42.2151420" lon="-8.7318470">
        <ele>18.7</ele>
        <time>2021-05-20T10:08:33Z</time>
      </trkpt>
      <trkpt lat="42.2151660" lon="-8.7318220">
        <ele>18.6</ele>
        <time>2021-05-20T10:08:34Z</time>
      </trkpt>
      <trkpt lat="42.2151960" lon="-8.7317970">
        <ele>18.6</ele>
        <time>2021-05-20T10:08:35Z</time>
      </trkpt>
      <trkpt lat="42.2152200" lon="-8.7317710">
        <ele>18.5</ele>
        <time>2021-05-20T10:08:36Z</time>
      </trkpt>
      <trkpt lat="42.2152260" lon="-8.7317670">
        <ele>18.5</ele>
        <time>2021-05-20T10:08:37Z</time>
      </trkpt>
      <trkpt lat="42.2152400" lon="-8.7317490">
        <ele>18.5</ele>
        <time>2021-05-20T10:08:38Z</time>
      </trkpt>
      <trkpt lat="42.2152460" lon="-8.7317280">
        <ele>18.5</ele>
        <time>2021-05-20T10:08:39Z</time>
      </trkpt>
      <trkpt lat="42.2152430" lon="-8.7317070">
        <ele>18.4</ele>
        <time>2021-05-20T10:08:40Z</time>
      </trkpt>
      <trkpt lat="42.2152610" lon="-8.7316900">
        <ele>18.4</ele>
        <time>2021-05-20T10:08:41Z</time>
      </trkpt>
      <trkpt lat="42.2152690" lon="-8.7316840">
        <ele>18.4</ele>
        <time>2021-05-20T10:08:42Z</time>
      </trkpt>
      <trkpt lat="42.2152690" lon="-8.7316690">
        <ele>18.4</ele>
        <time>2021-05-20T10:08:43Z</time>
      </trkpt>
      <trkpt lat="42.2152700" lon="-8.7316700">
        <ele>18.4</ele>
        <time>2021-05-20T10:08:44Z</time>
      </trkpt>
      <trkpt lat="42.2152730" lon="-8.7316430">
        <ele>18.4</ele>
        <time>2021-05-20T10:08:45Z</time>
      </trkpt>
      <trkpt lat="42.2152750" lon="-8.7316170">
        <ele>18.4</ele>
        <time>2021-05-20T10:08:46Z</time>
      </trkpt>
      <trkpt lat="42.2152780" lon="-8.7316030">
        <ele>18.3</ele>
        <time>2021-05-20T10:08:47Z</time>
      </trkpt>
      <trkpt lat="42.2152800" lon="-8.7315880">
        <ele>18.3</ele>
        <time>2021-05-20T10:08:48Z</time>
      </trkpt>
      <trkpt lat="42.2152810" lon="-8.7315650">
        <ele>18.3</ele>
        <time>2021-05-20T10:08:49Z</time>
      </trkpt>
      <trkpt lat="42.2152800" lon="-8.7315530">
        <ele>18.3</ele>
        <time>2021-05-20T10:08:50Z</time>
      </trkpt>
      <trkpt lat="42.2152900" lon="-8.7315420">
        <ele>18.3</ele>
        <time>2021-05-20T10:08:51Z</time>
      </trkpt>
      <trkpt lat="42.2152910" lon="-8.7315240">
        <ele>18.3</ele>
        <time>2021-05-20T10:08:52Z</time>
      </trkpt>
      <trkpt lat="42.2153020" lon="-8.7315030">
        <ele>18.3</ele>
        <time>2021-05-20T10:08:53Z</time>
      </trkpt>
      <trkpt lat="42.2152990" lon="-8.7314940">
        <ele>18.3</ele>
        <time>2021-05-20T10:08:54Z</time>
      </trkpt>
      <trkpt lat="42.2152980" lon="-8.7314760">
        <ele>18.3</ele>
        <time>2021-05-20T10:08:55Z</time>
      </trkpt>
      <trkpt lat="42.2153030" lon="-8.7314630">
        <ele>18.3</ele>
        <time>2021-05-20T10:08:56Z</time>
      </trkpt>
      <trkpt lat="42.2153120" lon="-8.7314380">
        <ele>18.3</ele>
        <time>2021-05-20T10:08:57Z</time>
      </trkpt>
      <trkpt lat="42.2153090" lon="-8.7314310">
        <ele>18.3</ele>
        <time>2021-05-20T10:08:58Z</time>
      </trkpt>
      <trkpt lat="42.2153090" lon="-8.7314220">
        <ele>18.3</ele>
        <time>2021-05-20T10:08:59Z</time>
      </trkpt>
      <trkpt lat="42.2153170" lon="-8.7313970">
        <ele>18.3</ele>
        <time>2021-05-20T10:09:00Z</time>
      </trkpt>
      <trkpt lat="42.2153310" lon="-8.7313950">
        <ele>18.3</ele>
        <time>2021-05-20T10:09:01Z</time>
      </trkpt>
      <trkpt lat="42.2153400" lon="-8.7313790">
        <ele>18.3</ele>
        <time>2021-05-20T10:09:02Z</time>
      </trkpt>
      <trkpt lat="42.2153420" lon="-8.7313610">
        <ele>18.3</ele>
        <time>2021-05-20T10:09:03Z</time>
      </trkpt>
      <trkpt lat="42.2153530" lon="-8.7313350">
        <ele>18.3</ele>
        <time>2021-05-20T10:09:04Z</time>
      </trkpt>
      <trkpt lat="42.2153580" lon="-8.7313260">
        <ele>18.3</ele>
        <time>2021-05-20T10:09:05Z</time>
      </trkpt>
      <trkpt lat="42.2153630" lon="-8.7313160">
        <ele>18.3</ele>
        <time>2021-05-20T10:09:06Z</time>
      </trkpt>
      <trkpt lat="42.2153690" lon="-8.7313030">
        <ele>18.3</ele>
        <time>2021-05-20T10:09:07Z</time>
      </trkpt>
      <trkpt lat="42.2153750" lon="-8.7313000">
        <ele>18.3</ele>
        <time>2021-05-20T10:09:08Z</time>
      </trkpt>
      <trkpt lat="42.2153820" lon="-8.7312880">
        <ele>18.3</ele>
        <time>2021-05-20T10:09:09Z</time>
      </trkpt>
      <trkpt lat="42.2153910" lon="-8.7312820">
        <ele>18.3</ele>
        <time>2021-05-20T10:09:10Z</time>
      </trkpt>
      <trkpt lat="42.2154090" lon="-8.7312760">
        <ele>18.3</ele>
        <time>2021-05-20T10:09:11Z</time>
      </trkpt>
      <trkpt lat="42.2154180" lon="-8.7312640">
        <ele>18.3</ele>
        <time>2021-05-20T10:09:12Z</time>
      </trkpt>
      <trkpt lat="42.2154260" lon="-8.7312370">
        <ele>18.3</ele>
        <time>2021-05-20T10:09:13Z</time>
      </trkpt>
      <trkpt lat="42.2154250" lon="-8.7312090">
        <ele>18.3</ele>
        <time>2021-05-20T10:09:14Z</time>
      </trkpt>
      <trkpt lat="42.2154300" lon="-8.7311940">
        <ele>18.3</ele>
        <time>2021-05-20T10:09:15Z</time>
      </trkpt>
      <trkpt lat="42.2154340" lon="-8.7311780">
        <ele>18.3</ele>
        <time>2021-05-20T10:09:16Z</time>
      </trkpt>
      <trkpt lat="42.2154430" lon="-8.7311580">
        <ele>18.3</ele>
        <time>2021-05-20T10:09:17Z</time>
      </trkpt>
      <trkpt lat="42.2154530" lon="-8.7311440">
        <ele>18.3</ele>
        <time>2021-05-20T10:09:18Z</time>
      </trkpt>
      <trkpt lat="42.2154660" lon="-8.7311300">
        <ele>18.3</ele>
        <time>2021-05-20T10:09:19Z</time>
      </trkpt>
      <trkpt lat="42.2154770" lon="-8.7311130">
        <ele>18.3</ele>
        <time>2021-05-20T10:09:20Z</time>
      </trkpt>
      <trkpt lat="42.2154890" lon="-8.7311010">
        <ele>18.3</ele>
        <time>2021-05-20T10:09:21Z</time>
      </trkpt>
      <trkpt lat="42.2155020" lon="-8.7310870">
        <ele>18.3</ele>
        <time>2021-05-20T10:09:22Z</time>
      </trkpt>
      <trkpt lat="42.2155150" lon="-8.7310760">
        <ele>18.3</ele>
        <time>2021-05-20T10:09:23Z</time>
      </trkpt>
      <trkpt lat="42.2155270" lon="-8.7310630">
        <ele>18.3</ele>
        <time>2021-05-20T10:09:24Z</time>
      </trkpt>
      <trkpt lat="42.2155400" lon="-8.7310500">
        <ele>18.3</ele>
        <time>2021-05-20T10:09:25Z</time>
      </trkpt>
      <trkpt lat="42.2155520" lon="-8.7310380">
        <ele>18.3</ele>
        <time>2021-05-20T10:09:26Z</time>
      </trkpt>
      <trkpt lat="42.2155620" lon="-8.7310250">
        <ele>18.3</ele>
        <time>2021-05-20T10:09:27Z</time>
      </trkpt>
      <trkpt lat="42.2155770" lon="-8.7310190">
        <ele>18.3</ele>
        <time>2021-05-20T10:09:28Z</time>
      </trkpt>
      <trkpt lat="42.2155940" lon="-8.7309990">
        <ele>18.4</ele>
        <time>2021-05-20T10:09:29Z</time>
      </trkpt>
      <trkpt lat="42.2156040" lon="-8.7309910">
        <ele>18.4</ele>
        <time>2021-05-20T10:09:30Z</time>
      </trkpt>
      <trkpt lat="42.2156130" lon="-8.7309830">
        <ele>18.4</ele>
        <time>2021-05-20T10:09:31Z</time>
      </trkpt>
      <trkpt lat="42.2156240" lon="-8.7309810">
        <ele>18.4</ele>
        <time>2021-05-20T10:09:32Z</time>
      </trkpt>
      <trkpt lat="42.2156390" lon="-8.7309680">
        <ele>18.4</ele>
        <time>2021-05-20T10:09:33Z</time>
      </trkpt>
      <trkpt lat="42.2156510" lon="-8.7309580">
        <ele>18.4</ele>
        <time>2021-05-20T10:09:34Z</time>
      </trkpt>
      <trkpt lat="42.2156680" lon="-8.7309500">
        <ele>18.4</ele>
        <time>2021-05-20T10:09:35Z</time>
      </trkpt>
      <trkpt lat="42.2156820" lon="-8.7309410">
        <ele>18.4</ele>
        <time>2021-05-20T10:09:36Z</time>
      </trkpt>
      <trkpt lat="42.2156940" lon="-8.7309260">
        <ele>18.4</ele>
        <time>2021-05-20T10:09:37Z</time>
      </trkpt>
      <trkpt lat="42.2157060" lon="-8.7309100">
        <ele>18.5</ele>
        <time>2021-05-20T10:09:38Z</time>
      </trkpt>
      <trkpt lat="42.2157240" lon="-8.7309020">
        <ele>18.5</ele>
        <time>2021-05-20T10:09:39Z</time>
      </trkpt>
      <trkpt lat="42.2157390" lon="-8.7308960">
        <ele>18.5</ele>
        <time>2021-05-20T10:09:40Z</time>
      </trkpt>
      <trkpt lat="42.2157490" lon="-8.7308800">
        <ele>18.5</ele>
        <time>2021-05-20T10:09:41Z</time>
      </trkpt>
      <trkpt lat="42.2157650" lon="-8.7308710">
        <ele>18.5</ele>
        <time>2021-05-20T10:09:42Z</time>
      </trkpt>
      <trkpt lat="42.2157810" lon="-8.7308630">
        <ele>18.5</ele>
        <time>2021-05-20T10:09:43Z</time>
      </trkpt>
      <trkpt lat="42.2157920" lon="-8.7308510">
        <ele>18.5</ele>
        <time>2021-05-20T10:09:44Z</time>
      </trkpt>
      <trkpt lat="42.2158080" lon="-8.7308420">
        <ele>18.5</ele>
        <time>2021-05-20T10:09:45Z</time>
      </trkpt>
      <trkpt lat="42.2158230" lon="-8.7308290">
        <ele>18.5</ele>
        <time>2021-05-20T10:09:46Z</time>
      </trkpt>
      <trkpt lat="42.2158350" lon="-8.7308230">
        <ele>18.6</ele>
        <time>2021-05-20T10:09:47Z</time>
      </trkpt>
      <trkpt lat="42.2158440" lon="-8.7308160">
        <ele>18.6</ele>
        <time>2021-05-20T10:09:48Z</time>
      </trkpt>
      <trkpt lat="42.2158630" lon="-8.7308070">
        <ele>18.6</ele>
        <time>2021-05-20T10:09:49Z</time>
      </trkpt>
      <trkpt lat="42.2158840" lon="-8.7307970">
        <ele>18.6</ele>
        <time>2021-05-20T10:09:50Z</time>
      </trkpt>
      <trkpt lat="42.2158920" lon="-8.7307910">
        <ele>18.6</ele>
        <time>2021-05-20T10:09:51Z</time>
      </trkpt>
      <trkpt lat="42.2158990" lon="-8.7307860">
        <ele>18.6</ele>
        <time>2021-05-20T10:09:52Z</time>
      </trkpt>
      <trkpt lat="42.2159070" lon="-8.7307800">
        <ele>18.6</ele>
        <time>2021-05-20T10:09:53Z</time>
      </trkpt>
      <trkpt lat="42.2159190" lon="-8.7307710">
        <ele>18.6</ele>
        <time>2021-05-20T10:09:54Z</time>
      </trkpt>
      <trkpt lat="42.2159270" lon="-8.7307640">
        <ele>18.6</ele>
        <time>2021-05-20T10:09:55Z</time>
      </trkpt>
      <trkpt lat="42.2159330" lon="-8.7307520">
        <ele>18.6</ele>
        <time>2021-05-20T10:09:56Z</time>
      </trkpt>
      <trkpt lat="42.2159430" lon="-8.7307450">
        <ele>18.6</ele>
        <time>2021-05-20T10:09:57Z</time>
      </trkpt>
      <trkpt lat="42.2159550" lon="-8.7307380">
        <ele>18.6</ele>
        <time>2021-05-20T10:09:58Z</time>
      </trkpt>
      <trkpt lat="42.2159750" lon="-8.7307230">
        <ele>18.6</ele>
        <time>2021-05-20T10:09:59Z</time>
      </trkpt>
      <trkpt lat="42.2159830" lon="-8.7307190">
        <ele>18.6</ele>
        <time>2021-05-20T10:10:00Z</time>
      </trkpt>
      <trkpt lat="42.2159900" lon="-8.7307150">
        <ele>18.6</ele>
        <time>2021-05-20T10:10:01Z</time>
      </trkpt>
      <trkpt lat="42.2159970" lon="-8.7307090">
        <ele>18.6</ele>
        <time>2021-05-20T10:10:02Z</time>
      </trkpt>
      <trkpt lat="42.2159830" lon="-8.7307070">
        <ele>18.6</ele>
        <time>2021-05-20T10:10:03Z</time>
      </trkpt>
      <trkpt lat="42.2159850" lon="-8.7307110">
        <ele>18.6</ele>
        <time>2021-05-20T10:10:04Z</time>
      </trkpt>
      <trkpt lat="42.2159960" lon="-8.7307080">
        <ele>18.6</ele>
        <time>2021-05-20T10:10:05Z</time>
      </trkpt>
      <trkpt lat="42.2160020" lon="-8.7307010">
        <ele>18.6</ele>
        <time>2021-05-20T10:10:06Z</time>
      </trkpt>
      <trkpt lat="42.2160230" lon="-8.7306970">
        <ele>18.6</ele>
        <time>2021-05-20T10:10:07Z</time>
      </trkpt>
      <trkpt lat="42.2160330" lon="-8.7306890">
        <ele>18.6</ele>
        <time>2021-05-20T10:10:08Z</time>
      </trkpt>
      <trkpt lat="42.2160500" lon="-8.7306810">
        <ele>18.6</ele>
        <time>2021-05-20T10:10:09Z</time>
      </trkpt>
      <trkpt lat="42.2160620" lon="-8.7306730">
        <ele>18.6</ele>
        <time>2021-05-20T10:10:10Z</time>
      </trkpt>
      <trkpt lat="42.2160760" lon="-8.7306690">
        <ele>18.6</ele>
        <time>2021-05-20T10:10:11Z</time>
      </trkpt>
      <trkpt lat="42.2160900" lon="-8.7306590">
        <ele>18.6</ele>
        <time>2021-05-20T10:10:12Z</time>
      </trkpt>
      <trkpt lat="42.2161050" lon="-8.7306500">
        <ele>18.6</ele>
        <time>2021-05-20T10:10:13Z</time>
      </trkpt>
      <trkpt lat="42.2161190" lon="-8.7306400">
        <ele>18.6</ele>
        <time>2021-05-20T10:10:14Z</time>
      </trkpt>
      <trkpt lat="42.2161290" lon="-8.7306270">
        <ele>18.6</ele>
        <time>2021-05-20T10:10:15Z</time>
      </trkpt>
      <trkpt lat="42.2161420" lon="-8.7306120">
        <ele>18.6</ele>
        <time>2021-05-20T10:10:16Z</time>
      </trkpt>
      <trkpt lat="42.2161530" lon="-8.7305940">
        <ele>18.6</ele>
        <time>2021-05-20T10:10:17Z</time>
      </trkpt>
      <trkpt lat="42.2161700" lon="-8.7305770">
        <ele>18.6</ele>
        <time>2021-05-20T10:10:18Z</time>
      </trkpt>
      <trkpt lat="42.2161780" lon="-8.7305710">
        <ele>18.6</ele>
        <time>2021-05-20T10:10:19Z</time>
      </trkpt>
      <trkpt lat="42.2161850" lon="-8.7305650">
        <ele>18.6</ele>
        <time>2021-05-20T10:10:20Z</time>
      </trkpt>
      <trkpt lat="42.2161880" lon="-8.7305610">
        <ele>18.6</ele>
        <time>2021-05-20T10:10:21Z</time>
      </trkpt>
      <trkpt lat="42.2161940" lon="-8.7305510">
        <ele>18.6</ele>
        <time>2021-05-20T10:10:22Z</time>
      </trkpt>
      <trkpt lat="42.2162070" lon="-8.7305390">
        <ele>18.6</ele>
        <time>2021-05-20T10:10:23Z</time>
      </trkpt>
      <trkpt lat="42.2162190" lon="-8.7305250">
        <ele>18.6</ele>
        <time>2021-05-20T10:10:24Z</time>
      </trkpt>
      <trkpt lat="42.2162250" lon="-8.7305180">
        <ele>18.6</ele>
        <time>2021-05-20T10:10:25Z</time>
      </trkpt>
      <trkpt lat="42.2162300" lon="-8.7305100">
        <ele>18.6</ele>
        <time>2021-05-20T10:10:26Z</time>
      </trkpt>
      <trkpt lat="42.2162360" lon="-8.7305020">
        <ele>18.6</ele>
        <time>2021-05-20T10:10:27Z</time>
      </trkpt>
      <trkpt lat="42.2162450" lon="-8.7304990">
        <ele>18.6</ele>
        <time>2021-05-20T10:10:28Z</time>
      </trkpt>
      <trkpt lat="42.2162590" lon="-8.7304960">
        <ele>18.6</ele>
        <time>2021-05-20T10:10:29Z</time>
      </trkpt>
      <trkpt lat="42.2162690" lon="-8.7304930">
        <ele>18.6</ele>
        <time>2021-05-20T10:10:30Z</time>
      </trkpt>
      <trkpt lat="42.2162830" lon="-8.7304990">
        <ele>18.6</ele>
        <time>2021-05-20T10:10:31Z</time>
      </trkpt>
      <trkpt lat="42.2162940" lon="-8.7304950">
        <ele>18.6</ele>
        <time>2021-05-20T10:10:32Z</time>
      </trkpt>
      <trkpt lat="42.2163040" lon="-8.7304840">
        <ele>18.6</ele>
        <time>2021-05-20T10:10:33Z</time>
      </trkpt>
      <trkpt lat="42.2163270" lon="-8.7304880">
        <ele>18.6</ele>
        <time>2021-05-20T10:10:34Z</time>
      </trkpt>
      <trkpt lat="42.2163340" lon="-8.7304860">
        <ele>18.6</ele>
        <time>2021-05-20T10:10:35Z</time>
      </trkpt>
      <trkpt lat="42.2163420" lon="-8.7304850">
        <ele>18.6</ele>
        <time>2021-05-20T10:10:36Z</time>
      </trkpt>
      <trkpt lat="42.2163570" lon="-8.7304750">
        <ele>18.6</ele>
        <time>2021-05-20T10:10:37Z</time>
      </trkpt>
      <trkpt lat="42.2163640" lon="-8.7304660">
        <ele>18.6</ele>
        <time>2021-05-20T10:10:38Z</time>
      </trkpt>
      <trkpt lat="42.2163710" lon="-8.7304620">
        <ele>18.6</ele>
        <time>2021-05-20T10:10:39Z</time>
      </trkpt>
      <trkpt lat="42.2163840" lon="-8.7304550">
        <ele>18.6</ele>
        <time>2021-05-20T10:10:40Z</time>
      </trkpt>
      <trkpt lat="42.2163900" lon="-8.7304490">
        <ele>18.6</ele>
        <time>2021-05-20T10:10:41Z</time>
      </trkpt>
      <trkpt lat="42.2163970" lon="-8.7304440">
        <ele>18.6</ele>
        <time>2021-05-20T10:10:42Z</time>
      </trkpt>
      <trkpt lat="42.2164030" lon="-8.7304380">
        <ele>18.6</ele>
        <time>2021-05-20T10:10:43Z</time>
      </trkpt>
      <trkpt lat="42.2164150" lon="-8.7304230">
        <ele>18.6</ele>
        <time>2021-05-20T10:10:44Z</time>
      </trkpt>
      <trkpt lat="42.2164260" lon="-8.7304130">
        <ele>18.6</ele>
        <time>2021-05-20T10:10:45Z</time>
      </trkpt>
      <trkpt lat="42.2164310" lon="-8.7304070">
        <ele>18.6</ele>
        <time>2021-05-20T10:10:46Z</time>
      </trkpt>
      <trkpt lat="42.2164510" lon="-8.7303950">
        <ele>18.6</ele>
        <time>2021-05-20T10:10:47Z</time>
      </trkpt>
      <trkpt lat="42.2164690" lon="-8.7303830">
        <ele>18.6</ele>
        <time>2021-05-20T10:10:48Z</time>
      </trkpt>
      <trkpt lat="42.2164790" lon="-8.7303770">
        <ele>18.6</ele>
        <time>2021-05-20T10:10:49Z</time>
      </trkpt>
      <trkpt lat="42.2164890" lon="-8.7303720">
        <ele>18.6</ele>
        <time>2021-05-20T10:10:50Z</time>
      </trkpt>
      <trkpt lat="42.2165080" lon="-8.7303650">
        <ele>18.6</ele>
        <time>2021-05-20T10:10:51Z</time>
      </trkpt>
      <trkpt lat="42.2165170" lon="-8.7303550">
        <ele>18.6</ele>
        <time>2021-05-20T10:10:52Z</time>
      </trkpt>
      <trkpt lat="42.2165260" lon="-8.7303440">
        <ele>18.6</ele>
        <time>2021-05-20T10:10:53Z</time>
      </trkpt>
      <trkpt lat="42.2165390" lon="-8.7303320">
        <ele>18.6</ele>
        <time>2021-05-20T10:10:54Z</time>
      </trkpt>
      <trkpt lat="42.2165500" lon="-8.7303220">
        <ele>18.6</ele>
        <time>2021-05-20T10:10:55Z</time>
      </trkpt>
      <trkpt lat="42.2165760" lon="-8.7303100">
        <ele>18.6</ele>
        <time>2021-05-20T10:10:56Z</time>
      </trkpt>
      <trkpt lat="42.2165850" lon="-8.7303040">
        <ele>18.6</ele>
        <time>2021-05-20T10:10:57Z</time>
      </trkpt>
      <trkpt lat="42.2166030" lon="-8.7302950">
        <ele>18.6</ele>
        <time>2021-05-20T10:10:58Z</time>
      </trkpt>
      <trkpt lat="42.2166140" lon="-8.7302870">
        <ele>18.6</ele>
        <time>2021-05-20T10:10:59Z</time>
      </trkpt>
      <trkpt lat="42.2166260" lon="-8.7302720">
        <ele>18.6</ele>
        <time>2021-05-20T10:11:00Z</time>
      </trkpt>
      <trkpt lat="42.2166360" lon="-8.7302610">
        <ele>18.6</ele>
        <time>2021-05-20T10:11:01Z</time>
      </trkpt>
      <trkpt lat="42.2166520" lon="-8.7302510">
        <ele>18.6</ele>
        <time>2021-05-20T10:11:02Z</time>
      </trkpt>
      <trkpt lat="42.2166670" lon="-8.7302440">
        <ele>18.7</ele>
        <time>2021-05-20T10:11:03Z</time>
      </trkpt>
      <trkpt lat="42.2166740" lon="-8.7302310">
        <ele>18.7</ele>
        <time>2021-05-20T10:11:04Z</time>
      </trkpt>
      <trkpt lat="42.2166840" lon="-8.7302150">
        <ele>18.7</ele>
        <time>2021-05-20T10:11:05Z</time>
      </trkpt>
      <trkpt lat="42.2167000" lon="-8.7302000">
        <ele>18.7</ele>
        <time>2021-05-20T10:11:06Z</time>
      </trkpt>
      <trkpt lat="42.2167080" lon="-8.7301940">
        <ele>18.7</ele>
        <time>2021-05-20T10:11:07Z</time>
      </trkpt>
      <trkpt lat="42.2167150" lon="-8.7301880">
        <ele>18.7</ele>
        <time>2021-05-20T10:11:08Z</time>
      </trkpt>
      <trkpt lat="42.2167290" lon="-8.7301850">
        <ele>18.7</ele>
        <time>2021-05-20T10:11:09Z</time>
      </trkpt>
      <trkpt lat="42.2167420" lon="-8.7301740">
        <ele>18.7</ele>
        <time>2021-05-20T10:11:10Z</time>
      </trkpt>
      <trkpt lat="42.2167610" lon="-8.7301590">
        <ele>18.7</ele>
        <time>2021-05-20T10:11:11Z</time>
      </trkpt>
      <trkpt lat="42.2167700" lon="-8.7301550">
        <ele>18.7</ele>
        <time>2021-05-20T10:11:12Z</time>
      </trkpt>
      <trkpt lat="42.2167780" lon="-8.7301520">
        <ele>18.7</ele>
        <time>2021-05-20T10:11:13Z</time>
      </trkpt>
      <trkpt lat="42.2167860" lon="-8.7301330">
        <ele>18.7</ele>
        <time>2021-05-20T10:11:14Z</time>
      </trkpt>
      <trkpt lat="42.2167960" lon="-8.7301200">
        <ele>18.7</ele>
        <time>2021-05-20T10:11:15Z</time>
      </trkpt>
      <trkpt lat="42.2168140" lon="-8.7301120">
        <ele>18.7</ele>
        <time>2021-05-20T10:11:16Z</time>
      </trkpt>
      <trkpt lat="42.2168210" lon="-8.7301050">
        <ele>18.7</ele>
        <time>2021-05-20T10:11:17Z</time>
      </trkpt>
      <trkpt lat="42.2168290" lon="-8.7300980">
        <ele>18.7</ele>
        <time>2021-05-20T10:11:18Z</time>
      </trkpt>
      <trkpt lat="42.2168510" lon="-8.7300720">
        <ele>18.7</ele>
        <time>2021-05-20T10:11:19Z</time>
      </trkpt>
      <trkpt lat="42.2168580" lon="-8.7300630">
        <ele>18.7</ele>
        <time>2021-05-20T10:11:20Z</time>
      </trkpt>
      <trkpt lat="42.2168740" lon="-8.7300480">
        <ele>18.8</ele>
        <time>2021-05-20T10:11:21Z</time>
      </trkpt>
      <trkpt lat="42.2168820" lon="-8.7300500">
        <ele>18.8</ele>
        <time>2021-05-20T10:11:22Z</time>
      </trkpt>
      <trkpt lat="42.2168870" lon="-8.7300490">
        <ele>18.8</ele>
        <time>2021-05-20T10:11:23Z</time>
      </trkpt>
      <trkpt lat="42.2168990" lon="-8.7300350">
        <ele>18.8</ele>
        <time>2021-05-20T10:11:24Z</time>
      </trkpt>
      <trkpt lat="42.2169110" lon="-8.7300240">
        <ele>18.8</ele>
        <time>2021-05-20T10:11:25Z</time>
      </trkpt>
      <trkpt lat="42.2169280" lon="-8.7300180">
        <ele>18.7</ele>
        <time>2021-05-20T10:11:26Z</time>
      </trkpt>
      <trkpt lat="42.2169420" lon="-8.7300010">
        <ele>18.7</ele>
        <time>2021-05-20T10:11:27Z</time>
      </trkpt>
      <trkpt lat="42.2169540" lon="-8.7299890">
        <ele>18.7</ele>
        <time>2021-05-20T10:11:28Z</time>
      </trkpt>
      <trkpt lat="42.2169620" lon="-8.7299740">
        <ele>18.7</ele>
        <time>2021-05-20T10:11:29Z</time>
      </trkpt>
      <trkpt lat="42.2169720" lon="-8.7299580">
        <ele>18.7</ele>
        <time>2021-05-20T10:11:30Z</time>
      </trkpt>
      <trkpt lat="42.2169860" lon="-8.7299450">
        <ele>18.7</ele>
        <time>2021-05-20T10:11:31Z</time>
      </trkpt>
      <trkpt lat="42.2169850" lon="-8.7299270">
        <ele>18.7</ele>
        <time>2021-05-20T10:11:32Z</time>
      </trkpt>
      <trkpt lat="42.2169870" lon="-8.7299110">
        <ele>18.7</ele>
        <time>2021-05-20T10:11:33Z</time>
      </trkpt>
      <trkpt lat="42.2169890" lon="-8.7298950">
        <ele>18.7</ele>
        <time>2021-05-20T10:11:34Z</time>
      </trkpt>
      <trkpt lat="42.2170020" lon="-8.7298710">
        <ele>18.7</ele>
        <time>2021-05-20T10:11:35Z</time>
      </trkpt>
      <trkpt lat="42.2170070" lon="-8.7298660">
        <ele>18.7</ele>
        <time>2021-05-20T10:11:36Z</time>
      </trkpt>
      <trkpt lat="42.2170130" lon="-8.7298600">
        <ele>18.7</ele>
        <time>2021-05-20T10:11:37Z</time>
      </trkpt>
      <trkpt lat="42.2170180" lon="-8.7298540">
        <ele>18.7</ele>
        <time>2021-05-20T10:11:38Z</time>
      </trkpt>
      <trkpt lat="42.2170340" lon="-8.7298300">
        <ele>18.7</ele>
        <time>2021-05-20T10:11:39Z</time>
      </trkpt>
      <trkpt lat="42.2170410" lon="-8.7298210">
        <ele>18.7</ele>
        <time>2021-05-20T10:11:40Z</time>
      </trkpt>
      <trkpt lat="42.2170480" lon="-8.7298120">
        <ele>18.7</ele>
        <time>2021-05-20T10:11:41Z</time>
      </trkpt>
      <trkpt lat="42.2170580" lon="-8.7297990">
        <ele>18.7</ele>
        <time>2021-05-20T10:11:42Z</time>
      </trkpt>
      <trkpt lat="42.2170720" lon="-8.7297790">
        <ele>18.8</ele>
        <time>2021-05-20T10:11:43Z</time>
      </trkpt>
      <trkpt lat="42.2170830" lon="-8.7297650">
        <ele>18.8</ele>
        <time>2021-05-20T10:11:44Z</time>
      </trkpt>
      <trkpt lat="42.2170950" lon="-8.7297450">
        <ele>18.8</ele>
        <time>2021-05-20T10:11:45Z</time>
      </trkpt>
      <trkpt lat="42.2170990" lon="-8.7297260">
        <ele>18.8</ele>
        <time>2021-05-20T10:11:46Z</time>
      </trkpt>
      <trkpt lat="42.2171100" lon="-8.7297130">
        <ele>18.8</ele>
        <time>2021-05-20T10:11:47Z</time>
      </trkpt>
      <trkpt lat="42.2171290" lon="-8.7296950">
        <ele>18.9</ele>
        <time>2021-05-20T10:11:48Z</time>
      </trkpt>
      <trkpt lat="42.2171360" lon="-8.7296870">
        <ele>18.9</ele>
        <time>2021-05-20T10:11:49Z</time>
      </trkpt>
      <trkpt lat="42.2171440" lon="-8.7296800">
        <ele>18.9</ele>
        <time>2021-05-20T10:11:50Z</time>
      </trkpt>
      <trkpt lat="42.2171560" lon="-8.7296620">
        <ele>18.9</ele>
        <time>2021-05-20T10:11:51Z</time>
      </trkpt>
      <trkpt lat="42.2171600" lon="-8.7296450">
        <ele>18.9</ele>
        <time>2021-05-20T10:11:52Z</time>
      </trkpt>
      <trkpt lat="42.2171640" lon="-8.7296270">
        <ele>19.0</ele>
        <time>2021-05-20T10:11:53Z</time>
      </trkpt>
      <trkpt lat="42.2171730" lon="-8.7296060">
        <ele>19.0</ele>
        <time>2021-05-20T10:11:54Z</time>
      </trkpt>
      <trkpt lat="42.2171770" lon="-8.7295860">
        <ele>19.0</ele>
        <time>2021-05-20T10:11:55Z</time>
      </trkpt>
      <trkpt lat="42.2171820" lon="-8.7295700">
        <ele>19.1</ele>
        <time>2021-05-20T10:11:56Z</time>
      </trkpt>
      <trkpt lat="42.2171870" lon="-8.7295570">
        <ele>19.1</ele>
        <time>2021-05-20T10:11:57Z</time>
      </trkpt>
      <trkpt lat="42.2171930" lon="-8.7295440">
        <ele>19.1</ele>
        <time>2021-05-20T10:11:58Z</time>
      </trkpt>
      <trkpt lat="42.2171960" lon="-8.7295270">
        <ele>19.1</ele>
        <time>2021-05-20T10:11:59Z</time>
      </trkpt>
      <trkpt lat="42.2172010" lon="-8.7295110">
        <ele>19.1</ele>
        <time>2021-05-20T10:12:00Z</time>
      </trkpt>
      <trkpt lat="42.2172120" lon="-8.7294870">
        <ele>19.2</ele>
        <time>2021-05-20T10:12:01Z</time>
      </trkpt>
      <trkpt lat="42.2172160" lon="-8.7294680">
        <ele>19.2</ele>
        <time>2021-05-20T10:12:02Z</time>
      </trkpt>
      <trkpt lat="42.2172180" lon="-8.7294470">
        <ele>19.3</ele>
        <time>2021-05-20T10:12:03Z</time>
      </trkpt>
      <trkpt lat="42.2172220" lon="-8.7294330">
        <ele>19.3</ele>
        <time>2021-05-20T10:12:04Z</time>
      </trkpt>
      <trkpt lat="42.2172290" lon="-8.7294140">
        <ele>19.3</ele>
        <time>2021-05-20T10:12:05Z</time>
      </trkpt>
      <trkpt lat="42.2172330" lon="-8.7294030">
        <ele>19.3</ele>
        <time>2021-05-20T10:12:06Z</time>
      </trkpt>
      <trkpt lat="42.2172350" lon="-8.7293880">
        <ele>19.4</ele>
        <time>2021-05-20T10:12:07Z</time>
      </trkpt>
      <trkpt lat="42.2172390" lon="-8.7293790">
        <ele>19.4</ele>
        <time>2021-05-20T10:12:08Z</time>
      </trkpt>
      <trkpt lat="42.2172420" lon="-8.7293650">
        <ele>19.4</ele>
        <time>2021-05-20T10:12:09Z</time>
      </trkpt>
      <trkpt lat="42.2172540" lon="-8.7293430">
        <ele>19.5</ele>
        <time>2021-05-20T10:12:10Z</time>
      </trkpt>
      <trkpt lat="42.2172610" lon="-8.7293340">
        <ele>19.5</ele>
        <time>2021-05-20T10:12:11Z</time>
      </trkpt>
      <trkpt lat="42.2172680" lon="-8.7293250">
        <ele>19.5</ele>
        <time>2021-05-20T10:12:12Z</time>
      </trkpt>
      <trkpt lat="42.2172790" lon="-8.7292980">
        <ele>19.6</ele>
        <time>2021-05-20T10:12:13Z</time>
      </trkpt>
      <trkpt lat="42.2172840" lon="-8.7292880">
        <ele>19.6</ele>
        <time>2021-05-20T10:12:14Z</time>
      </trkpt>
      <trkpt lat="42.2172890" lon="-8.7292770">
        <ele>19.6</ele>
        <time>2021-05-20T10:12:15Z</time>
      </trkpt>
      <trkpt lat="42.2172980" lon="-8.7292640">
        <ele>19.7</ele>
        <time>2021-05-20T10:12:16Z</time>
      </trkpt>
      <trkpt lat="42.2173020" lon="-8.7292520">
        <ele>19.7</ele>
        <time>2021-05-20T10:12:17Z</time>
      </trkpt>
      <trkpt lat="42.2173050" lon="-8.7292380">
        <ele>19.7</ele>
        <time>2021-05-20T10:12:18Z</time>
      </trkpt>
      <trkpt lat="42.2173040" lon="-8.7292140">
        <ele>19.8</ele>
        <time>2021-05-20T10:12:19Z</time>
      </trkpt>
      <trkpt lat="42.2173100" lon="-8.7291960">
        <ele>19.8</ele>
        <time>2021-05-20T10:12:20Z</time>
      </trkpt>
      <trkpt lat="42.2173130" lon="-8.7291740">
        <ele>19.9</ele>
        <time>2021-05-20T10:12:21Z</time>
      </trkpt>
      <trkpt lat="42.2173160" lon="-8.7291650">
        <ele>19.9</ele>
        <time>2021-05-20T10:12:22Z</time>
      </trkpt>
      <trkpt lat="42.2173180" lon="-8.7291550">
        <ele>19.9</ele>
        <time>2021-05-20T10:12:23Z</time>
      </trkpt>
      <trkpt lat="42.2173210" lon="-8.7291460">
        <ele>19.9</ele>
        <time>2021-05-20T10:12:24Z</time>
      </trkpt>
      <trkpt lat="42.2173290" lon="-8.7291190">
        <ele>20.0</ele>
        <time>2021-05-20T10:12:25Z</time>
      </trkpt>
      <trkpt lat="42.2173340" lon="-8.7291070">
        <ele>20.1</ele>
        <time>2021-05-20T10:12:26Z</time>
      </trkpt>
      <trkpt lat="42.2173380" lon="-8.7290940">
        <ele>20.1</ele>
        <time>2021-05-20T10:12:27Z</time>
      </trkpt>
      <trkpt lat="42.2173540" lon="-8.7290650">
        <ele>20.2</ele>
        <time>2021-05-20T10:12:28Z</time>
      </trkpt>
      <trkpt lat="42.2173600" lon="-8.7290550">
        <ele>20.2</ele>
        <time>2021-05-20T10:12:29Z</time>
      </trkpt>
      <trkpt lat="42.2173820" lon="-8.7290210">
        <ele>20.3</ele>
        <time>2021-05-20T10:12:30Z</time>
      </trkpt>
      <trkpt lat="42.2173860" lon="-8.7290090">
        <ele>20.4</ele>
        <time>2021-05-20T10:12:31Z</time>
      </trkpt>
      <trkpt lat="42.2173910" lon="-8.7289890">
        <ele>20.4</ele>
        <time>2021-05-20T10:12:32Z</time>
      </trkpt>
      <trkpt lat="42.2174010" lon="-8.7289750">
        <ele>20.5</ele>
        <time>2021-05-20T10:12:33Z</time>
      </trkpt>
      <trkpt lat="42.2174070" lon="-8.7289590">
        <ele>20.6</ele>
        <time>2021-05-20T10:12:34Z</time>
      </trkpt>
      <trkpt lat="42.2174090" lon="-8.7289450">
        <ele>20.6</ele>
        <time>2021-05-20T10:12:35Z</time>
      </trkpt>
      <trkpt lat="42.2174100" lon="-8.7289320">
        <ele>20.6</ele>
        <time>2021-05-20T10:12:36Z</time>
      </trkpt>
      <trkpt lat="42.2174200" lon="-8.7288980">
        <ele>20.7</ele>
        <time>2021-05-20T10:12:37Z</time>
      </trkpt>
      <trkpt lat="42.2174220" lon="-8.7288850">
        <ele>20.8</ele>
        <time>2021-05-20T10:12:38Z</time>
      </trkpt>
      <trkpt lat="42.2174290" lon="-8.7288700">
        <ele>20.8</ele>
        <time>2021-05-20T10:12:39Z</time>
      </trkpt>
      <trkpt lat="42.2174410" lon="-8.7288530">
        <ele>20.9</ele>
        <time>2021-05-20T10:12:40Z</time>
      </trkpt>
      <trkpt lat="42.2174410" lon="-8.7288230">
        <ele>21.0</ele>
        <time>2021-05-20T10:12:41Z</time>
      </trkpt>
      <trkpt lat="42.2174420" lon="-8.7288120">
        <ele>21.0</ele>
        <time>2021-05-20T10:12:42Z</time>
      </trkpt>
      <trkpt lat="42.2174440" lon="-8.7288000">
        <ele>21.1</ele>
        <time>2021-05-20T10:12:43Z</time>
      </trkpt>
      <trkpt lat="42.2174510" lon="-8.7287740">
        <ele>21.1</ele>
        <time>2021-05-20T10:12:44Z</time>
      </trkpt>
      <trkpt lat="42.2174550" lon="-8.7287640">
        <ele>21.2</ele>
        <time>2021-05-20T10:12:45Z</time>
      </trkpt>
      <trkpt lat="42.2174580" lon="-8.7287530">
        <ele>21.2</ele>
        <time>2021-05-20T10:12:46Z</time>
      </trkpt>
      <trkpt lat="42.2174630" lon="-8.7287340">
        <ele>21.3</ele>
        <time>2021-05-20T10:12:47Z</time>
      </trkpt>
      <trkpt lat="42.2174650" lon="-8.7287210">
        <ele>21.3</ele>
        <time>2021-05-20T10:12:48Z</time>
      </trkpt>
      <trkpt lat="42.2174650" lon="-8.7287060">
        <ele>21.4</ele>
        <time>2021-05-20T10:12:49Z</time>
      </trkpt>
      <trkpt lat="42.2174670" lon="-8.7286880">
        <ele>21.4</ele>
        <time>2021-05-20T10:12:50Z</time>
      </trkpt>
      <trkpt lat="42.2174750" lon="-8.7286670">
        <ele>21.5</ele>
        <time>2021-05-20T10:12:51Z</time>
      </trkpt>
      <trkpt lat="42.2174790" lon="-8.7286420">
        <ele>21.6</ele>
        <time>2021-05-20T10:12:52Z</time>
      </trkpt>
      <trkpt lat="42.2174820" lon="-8.7286300">
        <ele>21.6</ele>
        <time>2021-05-20T10:12:53Z</time>
      </trkpt>
      <trkpt lat="42.2174860" lon="-8.7286190">
        <ele>21.6</ele>
        <time>2021-05-20T10:12:54Z</time>
      </trkpt>
      <trkpt lat="42.2174830" lon="-8.7286120">
        <ele>21.7</ele>
        <time>2021-05-20T10:12:55Z</time>
      </trkpt>
      <trkpt lat="42.2174840" lon="-8.7285970">
        <ele>21.7</ele>
        <time>2021-05-20T10:12:56Z</time>
      </trkpt>
      <trkpt lat="42.2174810" lon="-8.7285770">
        <ele>21.8</ele>
        <time>2021-05-20T10:12:57Z</time>
      </trkpt>
      <trkpt lat="42.2174870" lon="-8.7285530">
        <ele>21.8</ele>
        <time>2021-05-20T10:12:58Z</time>
      </trkpt>
      <trkpt lat="42.2174890" lon="-8.7285340">
        <ele>21.9</ele>
        <time>2021-05-20T10:12:59Z</time>
      </trkpt>
      <trkpt lat="42.2174920" lon="-8.7285100">
        <ele>22.0</ele>
        <time>2021-05-20T10:13:00Z</time>
      </trkpt>
      <trkpt lat="42.2174920" lon="-8.7284950">
        <ele>22.0</ele>
        <time>2021-05-20T10:13:01Z</time>
      </trkpt>
      <trkpt lat="42.2174910" lon="-8.7284810">
        <ele>22.0</ele>
        <time>2021-05-20T10:13:02Z</time>
      </trkpt>
      <trkpt lat="42.2174910" lon="-8.7284660">
        <ele>22.1</ele>
        <time>2021-05-20T10:13:03Z</time>
      </trkpt>
      <trkpt lat="42.2174910" lon="-8.7284540">
        <ele>22.1</ele>
        <time>2021-05-20T10:13:04Z</time>
      </trkpt>
      <trkpt lat="42.2174950" lon="-8.7284470">
        <ele>22.1</ele>
        <time>2021-05-20T10:13:05Z</time>
      </trkpt>
      <trkpt lat="42.2174980" lon="-8.7284330">
        <ele>22.2</ele>
        <time>2021-05-20T10:13:06Z</time>
      </trkpt>
      <trkpt lat="42.2175030" lon="-8.7284090">
        <ele>22.2</ele>
        <time>2021-05-20T10:13:07Z</time>
      </trkpt>
      <trkpt lat="42.2175050" lon="-8.7283860">
        <ele>22.3</ele>
        <time>2021-05-20T10:13:08Z</time>
      </trkpt>
      <trkpt lat="42.2175080" lon="-8.7283660">
        <ele>22.3</ele>
        <time>2021-05-20T10:13:09Z</time>
      </trkpt>
      <trkpt lat="42.2175150" lon="-8.7283470">
        <ele>22.3</ele>
        <time>2021-05-20T10:13:10Z</time>
      </trkpt>
      <trkpt lat="42.2175150" lon="-8.7283330">
        <ele>22.4</ele>
        <time>2021-05-20T10:13:11Z</time>
      </trkpt>
      <trkpt lat="42.2175150" lon="-8.7283230">
        <ele>22.4</ele>
        <time>2021-05-20T10:13:12Z</time>
      </trkpt>
      <trkpt lat="42.2175200" lon="-8.7283020">
        <ele>22.4</ele>
        <time>2021-05-20T10:13:13Z</time>
      </trkpt>
      <trkpt lat="42.2175270" lon="-8.7282820">
        <ele>22.5</ele>
        <time>2021-05-20T10:13:14Z</time>
      </trkpt>
      <trkpt lat="42.2175370" lon="-8.7282630">
        <ele>22.5</ele>
        <time>2021-05-20T10:13:15Z</time>
      </trkpt>
      <trkpt lat="42.2175400" lon="-8.7282430">
        <ele>22.6</ele>
        <time>2021-05-20T10:13:16Z</time>
      </trkpt>
      <trkpt lat="42.2175420" lon="-8.7282230">
        <ele>22.6</ele>
        <time>2021-05-20T10:13:17Z</time>
      </trkpt>
      <trkpt lat="42.2175510" lon="-8.7282050">
        <ele>22.7</ele>
        <time>2021-05-20T10:13:18Z</time>
      </trkpt>
      <trkpt lat="42.2175590" lon="-8.7281790">
        <ele>22.7</ele>
        <time>2021-05-20T10:13:19Z</time>
      </trkpt>
      <trkpt lat="42.2175600" lon="-8.7281660">
        <ele>22.7</ele>
        <time>2021-05-20T10:13:20Z</time>
      </trkpt>
      <trkpt lat="42.2175620" lon="-8.7281540">
        <ele>22.8</ele>
        <time>2021-05-20T10:13:21Z</time>
      </trkpt>
      <trkpt lat="42.2175590" lon="-8.7281410">
        <ele>22.8</ele>
        <time>2021-05-20T10:13:22Z</time>
      </trkpt>
      <trkpt lat="42.2175500" lon="-8.7281250">
        <ele>22.8</ele>
        <time>2021-05-20T10:13:23Z</time>
      </trkpt>
      <trkpt lat="42.2175490" lon="-8.7281110">
        <ele>22.8</ele>
        <time>2021-05-20T10:13:24Z</time>
      </trkpt>
      <trkpt lat="42.2175590" lon="-8.7280910">
        <ele>22.9</ele>
        <time>2021-05-20T10:13:25Z</time>
      </trkpt>
      <trkpt lat="42.2175640" lon="-8.7280790">
        <ele>22.9</ele>
        <time>2021-05-20T10:13:26Z</time>
      </trkpt>
      <trkpt lat="42.2175660" lon="-8.7280510">
        <ele>22.9</ele>
        <time>2021-05-20T10:13:27Z</time>
      </trkpt>
      <trkpt lat="42.2175680" lon="-8.7280380">
        <ele>23.0</ele>
        <time>2021-05-20T10:13:28Z</time>
      </trkpt>
      <trkpt lat="42.2175730" lon="-8.7280100">
        <ele>23.0</ele>
        <time>2021-05-20T10:13:29Z</time>
      </trkpt>
      <trkpt lat="42.2175740" lon="-8.7279990">
        <ele>23.0</ele>
        <time>2021-05-20T10:13:30Z</time>
      </trkpt>
      <trkpt lat="42.2175750" lon="-8.7279880">
        <ele>23.0</ele>
        <time>2021-05-20T10:13:31Z</time>
      </trkpt>
      <trkpt lat="42.2175730" lon="-8.7279630">
        <ele>23.1</ele>
        <time>2021-05-20T10:13:32Z</time>
      </trkpt>
      <trkpt lat="42.2175730" lon="-8.7279500">
        <ele>23.1</ele>
        <time>2021-05-20T10:13:33Z</time>
      </trkpt>
      <trkpt lat="42.2175720" lon="-8.7279380">
        <ele>23.1</ele>
        <time>2021-05-20T10:13:34Z</time>
      </trkpt>
      <trkpt lat="42.2175710" lon="-8.7279170">
        <ele>23.1</ele>
        <time>2021-05-20T10:13:35Z</time>
      </trkpt>
      <trkpt lat="42.2175710" lon="-8.7278980">
        <ele>23.2</ele>
        <time>2021-05-20T10:13:36Z</time>
      </trkpt>
      <trkpt lat="42.2175690" lon="-8.7278820">
        <ele>23.2</ele>
        <time>2021-05-20T10:13:37Z</time>
      </trkpt>
      <trkpt lat="42.2175630" lon="-8.7278750">
        <ele>23.2</ele>
        <time>2021-05-20T10:13:38Z</time>
      </trkpt>
      <trkpt lat="42.2175740" lon="-8.7278520">
        <ele>23.2</ele>
        <time>2021-05-20T10:13:39Z</time>
      </trkpt>
      <trkpt lat="42.2175810" lon="-8.7278390">
        <ele>23.3</ele>
        <time>2021-05-20T10:13:40Z</time>
      </trkpt>
      <trkpt lat="42.2175800" lon="-8.7278160">
        <ele>23.3</ele>
        <time>2021-05-20T10:13:41Z</time>
      </trkpt>
      <trkpt lat="42.2175690" lon="-8.7278070">
        <ele>23.3</ele>
        <time>2021-05-20T10:13:42Z</time>
      </trkpt>
      <trkpt lat="42.2175580" lon="-8.7277920">
        <ele>23.3</ele>
        <time>2021-05-20T10:13:43Z</time>
      </trkpt>
      <trkpt lat="42.2175530" lon="-8.7277800">
        <ele>23.3</ele>
        <time>2021-05-20T10:13:44Z</time>
      </trkpt>
      <trkpt lat="42.2175540" lon="-8.7277660">
        <ele>23.3</ele>
        <time>2021-05-20T10:13:45Z</time>
      </trkpt>
      <trkpt lat="42.2175520" lon="-8.7277440">
        <ele>23.4</ele>
        <time>2021-05-20T10:13:46Z</time>
      </trkpt>
      <trkpt lat="42.2175480" lon="-8.7277270">
        <ele>23.4</ele>
        <time>2021-05-20T10:13:47Z</time>
      </trkpt>
      <trkpt lat="42.2175460" lon="-8.7277150">
        <ele>23.4</ele>
        <time>2021-05-20T10:13:48Z</time>
      </trkpt>
      <trkpt lat="42.2175370" lon="-8.7277060">
        <ele>23.4</ele>
        <time>2021-05-20T10:13:49Z</time>
      </trkpt>
      <trkpt lat="42.2175280" lon="-8.7276930">
        <ele>23.4</ele>
        <time>2021-05-20T10:13:50Z</time>
      </trkpt>
      <trkpt lat="42.2175220" lon="-8.7276840">
        <ele>23.4</ele>
        <time>2021-05-20T10:13:51Z</time>
      </trkpt>
      <trkpt lat="42.2175160" lon="-8.7276750">
        <ele>23.5</ele>
        <time>2021-05-20T10:13:52Z</time>
      </trkpt>
      <trkpt lat="42.2175120" lon="-8.7276580">
        <ele>23.5</ele>
        <time>2021-05-20T10:13:53Z</time>
      </trkpt>
      <trkpt lat="42.2175080" lon="-8.7276360">
        <ele>23.5</ele>
        <time>2021-05-20T10:13:54Z</time>
      </trkpt>
      <trkpt lat="42.2175050" lon="-8.7275950">
        <ele>23.5</ele>
        <time>2021-05-20T10:13:55Z</time>
      </trkpt>
      <trkpt lat="42.2174930" lon="-8.7275690">
        <ele>23.4</ele>
        <time>2021-05-20T10:13:56Z</time>
      </trkpt>
      <trkpt lat="42.2174890" lon="-8.7275580">
        <ele>23.4</ele>
        <time>2021-05-20T10:13:57Z</time>
      </trkpt>
      <trkpt lat="42.2174850" lon="-8.7275470">
        <ele>23.3</ele>
        <time>2021-05-20T10:13:58Z</time>
      </trkpt>
      <trkpt lat="42.2174750" lon="-8.7275520">
        <ele>23.3</ele>
        <time>2021-05-20T10:13:59Z</time>
      </trkpt>
      <trkpt lat="42.2174430" lon="-8.7275440">
        <ele>23.2</ele>
        <time>2021-05-20T10:14:01Z</time>
      </trkpt>
      <trkpt lat="42.2174280" lon="-8.7275470">
        <ele>23.1</ele>
        <time>2021-05-20T10:14:03Z</time>
      </trkpt>
      <trkpt lat="42.2174140" lon="-8.7275450">
        <ele>23.0</ele>
        <time>2021-05-20T10:14:04Z</time>
      </trkpt>
      <trkpt lat="42.2173990" lon="-8.7275350">
        <ele>23.0</ele>
        <time>2021-05-20T10:14:05Z</time>
      </trkpt>
      <trkpt lat="42.2173860" lon="-8.7275240">
        <ele>22.9</ele>
        <time>2021-05-20T10:14:06Z</time>
      </trkpt>
      <trkpt lat="42.2173750" lon="-8.7275230">
        <ele>22.8</ele>
        <time>2021-05-20T10:14:07Z</time>
      </trkpt>
      <trkpt lat="42.2173660" lon="-8.7275190">
        <ele>22.8</ele>
        <time>2021-05-20T10:14:08Z</time>
      </trkpt>
      <trkpt lat="42.2173540" lon="-8.7275120">
        <ele>22.8</ele>
        <time>2021-05-20T10:14:09Z</time>
      </trkpt>
      <trkpt lat="42.2173420" lon="-8.7275090">
        <ele>22.7</ele>
        <time>2021-05-20T10:14:10Z</time>
      </trkpt>
      <trkpt lat="42.2173390" lon="-8.7275100">
        <ele>22.7</ele>
        <time>2021-05-20T10:14:11Z</time>
      </trkpt>
      <trkpt lat="42.2173170" lon="-8.7275060">
        <ele>22.6</ele>
        <time>2021-05-20T10:14:12Z</time>
      </trkpt>
      <trkpt lat="42.2173080" lon="-8.7275030">
        <ele>22.6</ele>
        <time>2021-05-20T10:14:13Z</time>
      </trkpt>
      <trkpt lat="42.2173000" lon="-8.7275010">
        <ele>22.6</ele>
        <time>2021-05-20T10:14:14Z</time>
      </trkpt>
      <trkpt lat="42.2172810" lon="-8.7274940">
        <ele>22.5</ele>
        <time>2021-05-20T10:14:16Z</time>
      </trkpt>
      <trkpt lat="42.2172690" lon="-8.7274920">
        <ele>22.5</ele>
        <time>2021-05-20T10:14:17Z</time>
      </trkpt>
      <trkpt lat="42.2172590" lon="-8.7274910">
        <ele>22.4</ele>
        <time>2021-05-20T10:14:18Z</time>
      </trkpt>
      <trkpt lat="42.2172420" lon="-8.7274820">
        <ele>22.4</ele>
        <time>2021-05-20T10:14:19Z</time>
      </trkpt>
      <trkpt lat="42.2172310" lon="-8.7274790">
        <ele>22.3</ele>
        <time>2021-05-20T10:14:20Z</time>
      </trkpt>
      <trkpt lat="42.2172110" lon="-8.7274700">
        <ele>22.2</ele>
        <time>2021-05-20T10:14:21Z</time>
      </trkpt>
      <trkpt lat="42.2171920" lon="-8.7274530">
        <ele>22.2</ele>
        <time>2021-05-20T10:14:22Z</time>
      </trkpt>
      <trkpt lat="42.2171820" lon="-8.7274470">
        <ele>22.2</ele>
        <time>2021-05-20T10:14:23Z</time>
      </trkpt>
      <trkpt lat="42.2171720" lon="-8.7274420">
        <ele>22.2</ele>
        <time>2021-05-20T10:14:24Z</time>
      </trkpt>
      <trkpt lat="42.2171510" lon="-8.7274440">
        <ele>22.1</ele>
        <time>2021-05-20T10:14:25Z</time>
      </trkpt>
      <trkpt lat="42.2171430" lon="-8.7274440">
        <ele>22.1</ele>
        <time>2021-05-20T10:14:26Z</time>
      </trkpt>
      <trkpt lat="42.2171290" lon="-8.7274400">
        <ele>22.1</ele>
        <time>2021-05-20T10:14:27Z</time>
      </trkpt>
      <trkpt lat="42.2171120" lon="-8.7274400">
        <ele>22.0</ele>
        <time>2021-05-20T10:14:28Z</time>
      </trkpt>
      <trkpt lat="42.2170910" lon="-8.7274350">
        <ele>22.0</ele>
        <time>2021-05-20T10:14:29Z</time>
      </trkpt>
      <trkpt lat="42.2170820" lon="-8.7274330">
        <ele>22.0</ele>
        <time>2021-05-20T10:14:30Z</time>
      </trkpt>
      <trkpt lat="42.2170740" lon="-8.7274320">
        <ele>22.0</ele>
        <time>2021-05-20T10:14:31Z</time>
      </trkpt>
      <trkpt lat="42.2170610" lon="-8.7274260">
        <ele>21.9</ele>
        <time>2021-05-20T10:14:32Z</time>
      </trkpt>
      <trkpt lat="42.2170470" lon="-8.7274210">
        <ele>21.9</ele>
        <time>2021-05-20T10:14:33Z</time>
      </trkpt>
      <trkpt lat="42.2170370" lon="-8.7274190">
        <ele>21.9</ele>
        <time>2021-05-20T10:14:34Z</time>
      </trkpt>
      <trkpt lat="42.2170250" lon="-8.7274190">
        <ele>21.9</ele>
        <time>2021-05-20T10:14:35Z</time>
      </trkpt>
      <trkpt lat="42.2170110" lon="-8.7274170">
        <ele>21.9</ele>
        <time>2021-05-20T10:14:36Z</time>
      </trkpt>
      <trkpt lat="42.2170100" lon="-8.7274110">
        <ele>21.9</ele>
        <time>2021-05-20T10:14:37Z</time>
      </trkpt>
      <trkpt lat="42.2169990" lon="-8.7274050">
        <ele>21.8</ele>
        <time>2021-05-20T10:14:38Z</time>
      </trkpt>
      <trkpt lat="42.2169850" lon="-8.7273990">
        <ele>21.8</ele>
        <time>2021-05-20T10:14:39Z</time>
      </trkpt>
      <trkpt lat="42.2169710" lon="-8.7273890">
        <ele>21.8</ele>
        <time>2021-05-20T10:14:40Z</time>
      </trkpt>
      <trkpt lat="42.2169650" lon="-8.7273790">
        <ele>21.8</ele>
        <time>2021-05-20T10:14:41Z</time>
      </trkpt>
      <trkpt lat="42.2169550" lon="-8.7273710">
        <ele>21.8</ele>
        <time>2021-05-20T10:14:42Z</time>
      </trkpt>
      <trkpt lat="42.2169390" lon="-8.7273620">
        <ele>21.8</ele>
        <time>2021-05-20T10:14:43Z</time>
      </trkpt>
      <trkpt lat="42.2169240" lon="-8.7273610">
        <ele>21.8</ele>
        <time>2021-05-20T10:14:44Z</time>
      </trkpt>
      <trkpt lat="42.2169110" lon="-8.7273560">
        <ele>21.8</ele>
        <time>2021-05-20T10:14:45Z</time>
      </trkpt>
      <trkpt lat="42.2169040" lon="-8.7273540">
        <ele>21.8</ele>
        <time>2021-05-20T10:14:46Z</time>
      </trkpt>
      <trkpt lat="42.2168930" lon="-8.7273460">
        <ele>21.8</ele>
        <time>2021-05-20T10:14:47Z</time>
      </trkpt>
      <trkpt lat="42.2168770" lon="-8.7273460">
        <ele>21.8</ele>
        <time>2021-05-20T10:14:48Z</time>
      </trkpt>
      <trkpt lat="42.2168610" lon="-8.7273310">
        <ele>21.8</ele>
        <time>2021-05-20T10:14:49Z</time>
      </trkpt>
      <trkpt lat="42.2168390" lon="-8.7273320">
        <ele>21.8</ele>
        <time>2021-05-20T10:14:50Z</time>
      </trkpt>
      <trkpt lat="42.2168300" lon="-8.7273220">
        <ele>21.8</ele>
        <time>2021-05-20T10:14:51Z</time>
      </trkpt>
      <trkpt lat="42.2168180" lon="-8.7273290">
        <ele>21.8</ele>
        <time>2021-05-20T10:14:52Z</time>
      </trkpt>
      <trkpt lat="42.2168070" lon="-8.7273210">
        <ele>21.8</ele>
        <time>2021-05-20T10:14:53Z</time>
      </trkpt>
      <trkpt lat="42.2167950" lon="-8.7273160">
        <ele>21.8</ele>
        <time>2021-05-20T10:14:54Z</time>
      </trkpt>
      <trkpt lat="42.2167860" lon="-8.7273060">
        <ele>21.8</ele>
        <time>2021-05-20T10:14:55Z</time>
      </trkpt>
      <trkpt lat="42.2167760" lon="-8.7273020">
        <ele>21.8</ele>
        <time>2021-05-20T10:14:56Z</time>
      </trkpt>
      <trkpt lat="42.2167620" lon="-8.7273020">
        <ele>21.9</ele>
        <time>2021-05-20T10:14:57Z</time>
      </trkpt>
      <trkpt lat="42.2167550" lon="-8.7273000">
        <ele>21.9</ele>
        <time>2021-05-20T10:14:58Z</time>
      </trkpt>
      <trkpt lat="42.2167490" lon="-8.7272970">
        <ele>21.9</ele>
        <time>2021-05-20T10:14:59Z</time>
      </trkpt>
      <trkpt lat="42.2167370" lon="-8.7272930">
        <ele>21.9</ele>
        <time>2021-05-20T10:15:00Z</time>
      </trkpt>
      <trkpt lat="42.2167340" lon="-8.7272880">
        <ele>19.3</ele>
        <time>2021-05-20T10:15:01Z</time>
      </trkpt>
      <trkpt lat="42.2167260" lon="-8.7272820">
        <ele>19.3</ele>
        <time>2021-05-20T10:15:02Z</time>
      </trkpt>
      <trkpt lat="42.2167200" lon="-8.7272770">
        <ele>19.2</ele>
        <time>2021-05-20T10:15:03Z</time>
      </trkpt>
      <trkpt lat="42.2167180" lon="-8.7272740">
        <ele>19.2</ele>
        <time>2021-05-20T10:15:04Z</time>
      </trkpt>
      <trkpt lat="42.2167160" lon="-8.7272740">
        <ele>19.2</ele>
        <time>2021-05-20T10:15:05Z</time>
      </trkpt>
      <trkpt lat="42.2167150" lon="-8.7272720">
        <ele>19.2</ele>
        <time>2021-05-20T10:15:06Z</time>
      </trkpt>
      <trkpt lat="42.2167120" lon="-8.7272660">
        <ele>19.2</ele>
        <time>2021-05-20T10:15:07Z</time>
      </trkpt>
      <trkpt lat="42.2166980" lon="-8.7272630">
        <ele>19.2</ele>
        <time>2021-05-20T10:15:08Z</time>
      </trkpt>
      <trkpt lat="42.2166930" lon="-8.7272630">
        <ele>19.2</ele>
        <time>2021-05-20T10:15:09Z</time>
      </trkpt>
      <trkpt lat="42.2166930" lon="-8.7272530">
        <ele>19.2</ele>
        <time>2021-05-20T10:15:10Z</time>
      </trkpt>
      <trkpt lat="42.2166930" lon="-8.7272410">
        <ele>19.2</ele>
        <time>2021-05-20T10:15:11Z</time>
      </trkpt>
      <trkpt lat="42.2166950" lon="-8.7272320">
        <ele>19.2</ele>
        <time>2021-05-20T10:15:12Z</time>
      </trkpt>
      <trkpt lat="42.2166960" lon="-8.7272230">
        <ele>19.1</ele>
        <time>2021-05-20T10:15:13Z</time>
      </trkpt>
      <trkpt lat="42.2166930" lon="-8.7272220">
        <ele>19.1</ele>
        <time>2021-05-20T10:15:14Z</time>
      </trkpt>
      <trkpt lat="42.2166890" lon="-8.7272260">
        <ele>19.1</ele>
        <time>2021-05-20T10:15:15Z</time>
      </trkpt>
      <trkpt lat="42.2166860" lon="-8.7272240">
        <ele>19.1</ele>
        <time>2021-05-20T10:15:16Z</time>
      </trkpt>
      <trkpt lat="42.2166810" lon="-8.7272200">
        <ele>19.1</ele>
        <time>2021-05-20T10:15:17Z</time>
      </trkpt>
      <trkpt lat="42.2166760" lon="-8.7272240">
        <ele>19.1</ele>
        <time>2021-05-20T10:15:18Z</time>
      </trkpt>
      <trkpt lat="42.2166720" lon="-8.7272310">
        <ele>19.1</ele>
        <time>2021-05-20T10:15:19Z</time>
      </trkpt>
      <trkpt lat="42.2166710" lon="-8.7272250">
        <ele>19.1</ele>
        <time>2021-05-20T10:15:20Z</time>
      </trkpt>
      <trkpt lat="42.2166690" lon="-8.7272250">
        <ele>19.1</ele>
        <time>2021-05-20T10:15:21Z</time>
      </trkpt>
      <trkpt lat="42.2166700" lon="-8.7272220">
        <ele>19.1</ele>
        <time>2021-05-20T10:15:22Z</time>
      </trkpt>
      <trkpt lat="42.2166750" lon="-8.7272230">
        <ele>19.1</ele>
        <time>2021-05-20T10:15:23Z</time>
      </trkpt>
      <trkpt lat="42.2166810" lon="-8.7272270">
        <ele>19.1</ele>
        <time>2021-05-20T10:15:24Z</time>
      </trkpt>
      <trkpt lat="42.2166830" lon="-8.7272270">
        <ele>19.1</ele>
        <time>2021-05-20T10:15:25Z</time>
      </trkpt>
      <trkpt lat="42.2166870" lon="-8.7272240">
        <ele>19.0</ele>
        <time>2021-05-20T10:15:26Z</time>
      </trkpt>
      <trkpt lat="42.2166930" lon="-8.7272210">
        <ele>19.0</ele>
        <time>2021-05-20T10:15:27Z</time>
      </trkpt>
      <trkpt lat="42.2166950" lon="-8.7272170">
        <ele>19.0</ele>
        <time>2021-05-20T10:15:28Z</time>
      </trkpt>
      <trkpt lat="42.2166990" lon="-8.7272120">
        <ele>19.0</ele>
        <time>2021-05-20T10:15:29Z</time>
      </trkpt>
      <trkpt lat="42.2166990" lon="-8.7272070">
        <ele>19.0</ele>
        <time>2021-05-20T10:15:30Z</time>
      </trkpt>
      <trkpt lat="42.2167020" lon="-8.7271990">
        <ele>19.0</ele>
        <time>2021-05-20T10:15:31Z</time>
      </trkpt>
      <trkpt lat="42.2167030" lon="-8.7271960">
        <ele>19.0</ele>
        <time>2021-05-20T10:15:32Z</time>
      </trkpt>
      <trkpt lat="42.2166920" lon="-8.7272050">
        <ele>19.0</ele>
        <time>2021-05-20T10:15:33Z</time>
      </trkpt>
      <trkpt lat="42.2166830" lon="-8.7272130">
        <ele>19.0</ele>
        <time>2021-05-20T10:15:34Z</time>
      </trkpt>
      <trkpt lat="42.2166730" lon="-8.7272200">
        <ele>18.9</ele>
        <time>2021-05-20T10:15:35Z</time>
      </trkpt>
      <trkpt lat="42.2166630" lon="-8.7272270">
        <ele>18.9</ele>
        <time>2021-05-20T10:15:36Z</time>
      </trkpt>
      <trkpt lat="42.2166590" lon="-8.7272300">
        <ele>18.9</ele>
        <time>2021-05-20T10:15:37Z</time>
      </trkpt>
      <trkpt lat="42.2166600" lon="-8.7272300">
        <ele>18.9</ele>
        <time>2021-05-20T10:15:38Z</time>
      </trkpt>
      <trkpt lat="42.2166580" lon="-8.7272290">
        <ele>18.9</ele>
        <time>2021-05-20T10:15:39Z</time>
      </trkpt>
      <trkpt lat="42.2166580" lon="-8.7272270">
        <ele>18.9</ele>
        <time>2021-05-20T10:15:40Z</time>
      </trkpt>
      <trkpt lat="42.2166560" lon="-8.7272240">
        <ele>18.9</ele>
        <time>2021-05-20T10:15:41Z</time>
      </trkpt>
      <trkpt lat="42.2166590" lon="-8.7272210">
        <ele>18.9</ele>
        <time>2021-05-20T10:15:42Z</time>
      </trkpt>
      <trkpt lat="42.2166620" lon="-8.7272180">
        <ele>18.9</ele>
        <time>2021-05-20T10:15:43Z</time>
      </trkpt>
      <trkpt lat="42.2166610" lon="-8.7272190">
        <ele>18.9</ele>
        <time>2021-05-20T10:15:44Z</time>
      </trkpt>
      <trkpt lat="42.2166620" lon="-8.7272170">
        <ele>18.9</ele>
        <time>2021-05-20T10:15:45Z</time>
      </trkpt>
      <trkpt lat="42.2166620" lon="-8.7272170">
        <ele>18.9</ele>
        <time>2021-05-20T10:15:46Z</time>
      </trkpt>
      <trkpt lat="42.2166590" lon="-8.7272250">
        <ele>18.9</ele>
        <time>2021-05-20T10:15:47Z</time>
      </trkpt>
      <trkpt lat="42.2166590" lon="-8.7272310">
        <ele>18.9</ele>
        <time>2021-05-20T10:15:48Z</time>
      </trkpt>
      <trkpt lat="42.2166520" lon="-8.7272350">
        <ele>18.9</ele>
        <time>2021-05-20T10:15:49Z</time>
      </trkpt>
      <trkpt lat="42.2166400" lon="-8.7272310">
        <ele>18.8</ele>
        <time>2021-05-20T10:15:50Z</time>
      </trkpt>
      <trkpt lat="42.2166330" lon="-8.7272320">
        <ele>18.8</ele>
        <time>2021-05-20T10:15:51Z</time>
      </trkpt>
      <trkpt lat="42.2166320" lon="-8.7272260">
        <ele>18.8</ele>
        <time>2021-05-20T10:15:52Z</time>
      </trkpt>
      <trkpt lat="42.2166270" lon="-8.7272180">
        <ele>18.8</ele>
        <time>2021-05-20T10:15:53Z</time>
      </trkpt>
      <trkpt lat="42.2166160" lon="-8.7272260">
        <ele>18.8</ele>
        <time>2021-05-20T10:15:54Z</time>
      </trkpt>
      <trkpt lat="42.2166400" lon="-8.7272280">
        <ele>18.7</ele>
        <time>2021-05-20T10:15:55Z</time>
      </trkpt>
      <trkpt lat="42.2166490" lon="-8.7272330">
        <ele>18.7</ele>
        <time>2021-05-20T10:15:56Z</time>
      </trkpt>
      <trkpt lat="42.2166670" lon="-8.7272220">
        <ele>18.7</ele>
        <time>2021-05-20T10:15:57Z</time>
      </trkpt>
      <trkpt lat="42.2166770" lon="-8.7272120">
        <ele>18.7</ele>
        <time>2021-05-20T10:15:58Z</time>
      </trkpt>
      <trkpt lat="42.2166720" lon="-8.7272130">
        <ele>18.7</ele>
        <time>2021-05-20T10:15:59Z</time>
      </trkpt>
      <trkpt lat="42.2166720" lon="-8.7272150">
        <ele>18.7</ele>
        <time>2021-05-20T10:16:00Z</time>
      </trkpt>
      <trkpt lat="42.2166750" lon="-8.7272230">
        <ele>18.6</ele>
        <time>2021-05-20T10:16:01Z</time>
      </trkpt>
      <trkpt lat="42.2166780" lon="-8.7272170">
        <ele>18.6</ele>
        <time>2021-05-20T10:16:02Z</time>
      </trkpt>
      <trkpt lat="42.2166950" lon="-8.7272080">
        <ele>18.6</ele>
        <time>2021-05-20T10:16:03Z</time>
      </trkpt>
      <trkpt lat="42.2167090" lon="-8.7271920">
        <ele>18.6</ele>
        <time>2021-05-20T10:16:04Z</time>
      </trkpt>
      <trkpt lat="42.2167190" lon="-8.7271950">
        <ele>18.6</ele>
        <time>2021-05-20T10:16:05Z</time>
      </trkpt>
      <trkpt lat="42.2167260" lon="-8.7271870">
        <ele>18.5</ele>
        <time>2021-05-20T10:16:06Z</time>
      </trkpt>
      <trkpt lat="42.2167400" lon="-8.7271810">
        <ele>18.5</ele>
        <time>2021-05-20T10:16:07Z</time>
      </trkpt>
      <trkpt lat="42.2167510" lon="-8.7271740">
        <ele>18.5</ele>
        <time>2021-05-20T10:16:08Z</time>
      </trkpt>
      <trkpt lat="42.2167550" lon="-8.7271710">
        <ele>18.5</ele>
        <time>2021-05-20T10:16:09Z</time>
      </trkpt>
      <trkpt lat="42.2167680" lon="-8.7271640">
        <ele>18.5</ele>
        <time>2021-05-20T10:16:10Z</time>
      </trkpt>
      <trkpt lat="42.2167780" lon="-8.7271610">
        <ele>18.2</ele>
        <time>2021-05-20T10:16:11Z</time>
      </trkpt>
      <trkpt lat="42.2167840" lon="-8.7271670">
        <ele>18.2</ele>
        <time>2021-05-20T10:16:12Z</time>
      </trkpt>
      <trkpt lat="42.2167820" lon="-8.7271730">
        <ele>18.2</ele>
        <time>2021-05-20T10:16:13Z</time>
      </trkpt>
      <trkpt lat="42.2167780" lon="-8.7271740">
        <ele>18.2</ele>
        <time>2021-05-20T10:16:14Z</time>
      </trkpt>
      <trkpt lat="42.2167750" lon="-8.7271760">
        <ele>18.2</ele>
        <time>2021-05-20T10:16:15Z</time>
      </trkpt>
      <trkpt lat="42.2167820" lon="-8.7271690">
        <ele>18.2</ele>
        <time>2021-05-20T10:16:16Z</time>
      </trkpt>
      <trkpt lat="42.2167840" lon="-8.7271670">
        <ele>18.2</ele>
        <time>2021-05-20T10:16:17Z</time>
      </trkpt>
      <trkpt lat="42.2167840" lon="-8.7271640">
        <ele>18.2</ele>
        <time>2021-05-20T10:16:18Z</time>
      </trkpt>
      <trkpt lat="42.2167760" lon="-8.7271650">
        <ele>18.2</ele>
        <time>2021-05-20T10:16:19Z</time>
      </trkpt>
      <trkpt lat="42.2167740" lon="-8.7271690">
        <ele>18.2</ele>
        <time>2021-05-20T10:16:20Z</time>
      </trkpt>
      <trkpt lat="42.2167780" lon="-8.7271590">
        <ele>18.2</ele>
        <time>2021-05-20T10:16:21Z</time>
      </trkpt>
      <trkpt lat="42.2167910" lon="-8.7271460">
        <ele>18.2</ele>
        <time>2021-05-20T10:16:22Z</time>
      </trkpt>
      <trkpt lat="42.2167880" lon="-8.7271400">
        <ele>18.2</ele>
        <time>2021-05-20T10:16:23Z</time>
      </trkpt>
      <trkpt lat="42.2167960" lon="-8.7271260">
        <ele>18.2</ele>
        <time>2021-05-20T10:16:24Z</time>
      </trkpt>
      <trkpt lat="42.2168020" lon="-8.7271160">
        <ele>18.2</ele>
        <time>2021-05-20T10:16:25Z</time>
      </trkpt>
      <trkpt lat="42.2168060" lon="-8.7271090">
        <ele>18.2</ele>
        <time>2021-05-20T10:16:26Z</time>
      </trkpt>
      <trkpt lat="42.2168110" lon="-8.7270950">
        <ele>18.2</ele>
        <time>2021-05-20T10:16:27Z</time>
      </trkpt>
      <trkpt lat="42.2168170" lon="-8.7270730">
        <ele>18.2</ele>
        <time>2021-05-20T10:16:28Z</time>
      </trkpt>
      <trkpt lat="42.2168230" lon="-8.7270590">
        <ele>18.2</ele>
        <time>2021-05-20T10:16:29Z</time>
      </trkpt>
      <trkpt lat="42.2168280" lon="-8.7270440">
        <ele>18.2</ele>
        <time>2021-05-20T10:16:30Z</time>
      </trkpt>
      <trkpt lat="42.2168350" lon="-8.7270160">
        <ele>18.2</ele>
        <time>2021-05-20T10:16:31Z</time>
      </trkpt>
      <trkpt lat="42.2168330" lon="-8.7270050">
        <ele>18.2</ele>
        <time>2021-05-20T10:16:32Z</time>
      </trkpt>
      <trkpt lat="42.2168320" lon="-8.7269940">
        <ele>18.2</ele>
        <time>2021-05-20T10:16:33Z</time>
      </trkpt>
      <trkpt lat="42.2168370" lon="-8.7269770">
        <ele>18.2</ele>
        <time>2021-05-20T10:16:34Z</time>
      </trkpt>
      <trkpt lat="42.2168390" lon="-8.7269660">
        <ele>18.2</ele>
        <time>2021-05-20T10:16:35Z</time>
      </trkpt>
      <trkpt lat="42.2168360" lon="-8.7269570">
        <ele>18.2</ele>
        <time>2021-05-20T10:16:36Z</time>
      </trkpt>
      <trkpt lat="42.2168460" lon="-8.7269440">
        <ele>18.2</ele>
        <time>2021-05-20T10:16:37Z</time>
      </trkpt>
      <trkpt lat="42.2168510" lon="-8.7269350">
        <ele>18.2</ele>
        <time>2021-05-20T10:16:38Z</time>
      </trkpt>
      <trkpt lat="42.2168550" lon="-8.7269250">
        <ele>18.2</ele>
        <time>2021-05-20T10:16:39Z</time>
      </trkpt>
      <trkpt lat="42.2168590" lon="-8.7269160">
        <ele>18.2</ele>
        <time>2021-05-20T10:16:40Z</time>
      </trkpt>
      <trkpt lat="42.2168740" lon="-8.7269010">
        <ele>18.2</ele>
        <time>2021-05-20T10:16:41Z</time>
      </trkpt>
      <trkpt lat="42.2168780" lon="-8.7268930">
        <ele>18.2</ele>
        <time>2021-05-20T10:16:42Z</time>
      </trkpt>
      <trkpt lat="42.2168820" lon="-8.7268800">
        <ele>18.2</ele>
        <time>2021-05-20T10:16:43Z</time>
      </trkpt>
      <trkpt lat="42.2168880" lon="-8.7268460">
        <ele>18.2</ele>
        <time>2021-05-20T10:16:44Z</time>
      </trkpt>
      <trkpt lat="42.2168880" lon="-8.7268300">
        <ele>18.2</ele>
        <time>2021-05-20T10:16:45Z</time>
      </trkpt>
      <trkpt lat="42.2168910" lon="-8.7268010">
        <ele>18.2</ele>
        <time>2021-05-20T10:16:46Z</time>
      </trkpt>
      <trkpt lat="42.2168910" lon="-8.7267900">
        <ele>18.2</ele>
        <time>2021-05-20T10:16:47Z</time>
      </trkpt>
      <trkpt lat="42.2168970" lon="-8.7267750">
        <ele>18.2</ele>
        <time>2021-05-20T10:16:48Z</time>
      </trkpt>
      <trkpt lat="42.2168960" lon="-8.7267620">
        <ele>18.2</ele>
        <time>2021-05-20T10:16:49Z</time>
      </trkpt>
      <trkpt lat="42.2168910" lon="-8.7267530">
        <ele>18.2</ele>
        <time>2021-05-20T10:16:50Z</time>
      </trkpt>
      <trkpt lat="42.2168960" lon="-8.7267290">
        <ele>18.2</ele>
        <time>2021-05-20T10:16:51Z</time>
      </trkpt>
      <trkpt lat="42.2169020" lon="-8.7267100">
        <ele>18.2</ele>
        <time>2021-05-20T10:16:52Z</time>
      </trkpt>
      <trkpt lat="42.2169140" lon="-8.7266960">
        <ele>18.2</ele>
        <time>2021-05-20T10:16:53Z</time>
      </trkpt>
      <trkpt lat="42.2169170" lon="-8.7266920">
        <ele>18.2</ele>
        <time>2021-05-20T10:16:54Z</time>
      </trkpt>
      <trkpt lat="42.2169210" lon="-8.7266790">
        <ele>18.2</ele>
        <time>2021-05-20T10:16:55Z</time>
      </trkpt>
      <trkpt lat="42.2169260" lon="-8.7266530">
        <ele>18.2</ele>
        <time>2021-05-20T10:16:56Z</time>
      </trkpt>
      <trkpt lat="42.2169290" lon="-8.7266520">
        <ele>18.2</ele>
        <time>2021-05-20T10:16:57Z</time>
      </trkpt>
      <trkpt lat="42.2169360" lon="-8.7266170">
        <ele>18.2</ele>
        <time>2021-05-20T10:16:59Z</time>
      </trkpt>
      <trkpt lat="42.2169330" lon="-8.7265980">
        <ele>18.2</ele>
        <time>2021-05-20T10:17:00Z</time>
      </trkpt>
      <trkpt lat="42.2169350" lon="-8.7265780">
        <ele>18.2</ele>
        <time>2021-05-20T10:17:01Z</time>
      </trkpt>
      <trkpt lat="42.2169390" lon="-8.7265560">
        <ele>18.2</ele>
        <time>2021-05-20T10:17:02Z</time>
      </trkpt>
      <trkpt lat="42.2169410" lon="-8.7265430">
        <ele>18.2</ele>
        <time>2021-05-20T10:17:03Z</time>
      </trkpt>
      <trkpt lat="42.2169450" lon="-8.7265300">
        <ele>18.2</ele>
        <time>2021-05-20T10:17:04Z</time>
      </trkpt>
      <trkpt lat="42.2169530" lon="-8.7265180">
        <ele>18.2</ele>
        <time>2021-05-20T10:17:05Z</time>
      </trkpt>
      <trkpt lat="42.2169580" lon="-8.7265040">
        <ele>18.2</ele>
        <time>2021-05-20T10:17:06Z</time>
      </trkpt>
      <trkpt lat="42.2169650" lon="-8.7264900">
        <ele>18.2</ele>
        <time>2021-05-20T10:17:07Z</time>
      </trkpt>
      <trkpt lat="42.2169700" lon="-8.7264620">
        <ele>18.2</ele>
        <time>2021-05-20T10:17:08Z</time>
      </trkpt>
      <trkpt lat="42.2169780" lon="-8.7264220">
        <ele>18.2</ele>
        <time>2021-05-20T10:17:09Z</time>
      </trkpt>
      <trkpt lat="42.2169820" lon="-8.7264090">
        <ele>18.2</ele>
        <time>2021-05-20T10:17:10Z</time>
      </trkpt>
      <trkpt lat="42.2169850" lon="-8.7263820">
        <ele>18.2</ele>
        <time>2021-05-20T10:17:11Z</time>
      </trkpt>
      <trkpt lat="42.2169870" lon="-8.7263690">
        <ele>18.2</ele>
        <time>2021-05-20T10:17:12Z</time>
      </trkpt>
      <trkpt lat="42.2169880" lon="-8.7263570">
        <ele>18.2</ele>
        <time>2021-05-20T10:17:13Z</time>
      </trkpt>
      <trkpt lat="42.2169950" lon="-8.7263410">
        <ele>18.2</ele>
        <time>2021-05-20T10:17:14Z</time>
      </trkpt>
      <trkpt lat="42.2170020" lon="-8.7263250">
        <ele>18.2</ele>
        <time>2021-05-20T10:17:15Z</time>
      </trkpt>
      <trkpt lat="42.2169990" lon="-8.7263140">
        <ele>18.2</ele>
        <time>2021-05-20T10:17:16Z</time>
      </trkpt>
      <trkpt lat="42.2170060" lon="-8.7262970">
        <ele>18.2</ele>
        <time>2021-05-20T10:17:17Z</time>
      </trkpt>
      <trkpt lat="42.2170140" lon="-8.7262810">
        <ele>18.2</ele>
        <time>2021-05-20T10:17:18Z</time>
      </trkpt>
      <trkpt lat="42.2170200" lon="-8.7262640">
        <ele>18.2</ele>
        <time>2021-05-20T10:17:19Z</time>
      </trkpt>
      <trkpt lat="42.2170250" lon="-8.7262600">
        <ele>18.2</ele>
        <time>2021-05-20T10:17:20Z</time>
      </trkpt>
      <trkpt lat="42.2170340" lon="-8.7262480">
        <ele>18.2</ele>
        <time>2021-05-20T10:17:21Z</time>
      </trkpt>
      <trkpt lat="42.2170400" lon="-8.7262250">
        <ele>18.2</ele>
        <time>2021-05-20T10:17:22Z</time>
      </trkpt>
      <trkpt lat="42.2170420" lon="-8.7262150">
        <ele>18.2</ele>
        <time>2021-05-20T10:17:23Z</time>
      </trkpt>
      <trkpt lat="42.2170450" lon="-8.7262060">
        <ele>18.2</ele>
        <time>2021-05-20T10:17:24Z</time>
      </trkpt>
      <trkpt lat="42.2170470" lon="-8.7261960">
        <ele>18.2</ele>
        <time>2021-05-20T10:17:25Z</time>
      </trkpt>
      <trkpt lat="42.2170500" lon="-8.7261680">
        <ele>18.2</ele>
        <time>2021-05-20T10:17:26Z</time>
      </trkpt>
      <trkpt lat="42.2170530" lon="-8.7261480">
        <ele>18.2</ele>
        <time>2021-05-20T10:17:27Z</time>
      </trkpt>
      <trkpt lat="42.2170540" lon="-8.7261330">
        <ele>18.2</ele>
        <time>2021-05-20T10:17:28Z</time>
      </trkpt>
      <trkpt lat="42.2170550" lon="-8.7261200">
        <ele>18.2</ele>
        <time>2021-05-20T10:17:29Z</time>
      </trkpt>
      <trkpt lat="42.2170530" lon="-8.7261050">
        <ele>18.2</ele>
        <time>2021-05-20T10:17:30Z</time>
      </trkpt>
      <trkpt lat="42.2170600" lon="-8.7260850">
        <ele>18.2</ele>
        <time>2021-05-20T10:17:31Z</time>
      </trkpt>
      <trkpt lat="42.2170610" lon="-8.7260690">
        <ele>18.2</ele>
        <time>2021-05-20T10:17:32Z</time>
      </trkpt>
      <trkpt lat="42.2170640" lon="-8.7260560">
        <ele>18.2</ele>
        <time>2021-05-20T10:17:33Z</time>
      </trkpt>
      <trkpt lat="42.2170710" lon="-8.7260410">
        <ele>18.2</ele>
        <time>2021-05-20T10:17:34Z</time>
      </trkpt>
      <trkpt lat="42.2170780" lon="-8.7260270">
        <ele>18.2</ele>
        <time>2021-05-20T10:17:35Z</time>
      </trkpt>
      <trkpt lat="42.2170800" lon="-8.7260230">
        <ele>18.2</ele>
        <time>2021-05-20T10:17:36Z</time>
      </trkpt>
      <trkpt lat="42.2170820" lon="-8.7260080">
        <ele>18.2</ele>
        <time>2021-05-20T10:17:37Z</time>
      </trkpt>
      <trkpt lat="42.2170860" lon="-8.7259820">
        <ele>18.2</ele>
        <time>2021-05-20T10:17:38Z</time>
      </trkpt>
      <trkpt lat="42.2170880" lon="-8.7259500">
        <ele>18.2</ele>
        <time>2021-05-20T10:17:39Z</time>
      </trkpt>
      <trkpt lat="42.2170890" lon="-8.7259400">
        <ele>18.2</ele>
        <time>2021-05-20T10:17:40Z</time>
      </trkpt>
      <trkpt lat="42.2170910" lon="-8.7259300">
        <ele>18.2</ele>
        <time>2021-05-20T10:17:41Z</time>
      </trkpt>
      <trkpt lat="42.2171050" lon="-8.7258910">
        <ele>18.2</ele>
        <time>2021-05-20T10:17:42Z</time>
      </trkpt>
      <trkpt lat="42.2171090" lon="-8.7258820">
        <ele>18.2</ele>
        <time>2021-05-20T10:17:43Z</time>
      </trkpt>
      <trkpt lat="42.2171130" lon="-8.7258600">
        <ele>18.2</ele>
        <time>2021-05-20T10:17:44Z</time>
      </trkpt>
      <trkpt lat="42.2171170" lon="-8.7258510">
        <ele>18.2</ele>
        <time>2021-05-20T10:17:45Z</time>
      </trkpt>
      <trkpt lat="42.2171190" lon="-8.7258380">
        <ele>18.2</ele>
        <time>2021-05-20T10:17:46Z</time>
      </trkpt>
      <trkpt lat="42.2171170" lon="-8.7258210">
        <ele>18.2</ele>
        <time>2021-05-20T10:17:47Z</time>
      </trkpt>
      <trkpt lat="42.2171150" lon="-8.7258020">
        <ele>18.2</ele>
        <time>2021-05-20T10:17:48Z</time>
      </trkpt>
      <trkpt lat="42.2171150" lon="-8.7257670">
        <ele>18.2</ele>
        <time>2021-05-20T10:17:49Z</time>
      </trkpt>
      <trkpt lat="42.2171180" lon="-8.7257530">
        <ele>18.2</ele>
        <time>2021-05-20T10:17:50Z</time>
      </trkpt>
      <trkpt lat="42.2171200" lon="-8.7257390">
        <ele>18.2</ele>
        <time>2021-05-20T10:17:51Z</time>
      </trkpt>
      <trkpt lat="42.2171250" lon="-8.7257100">
        <ele>18.2</ele>
        <time>2021-05-20T10:17:52Z</time>
      </trkpt>
      <trkpt lat="42.2171340" lon="-8.7256960">
        <ele>18.2</ele>
        <time>2021-05-20T10:17:53Z</time>
      </trkpt>
      <trkpt lat="42.2171300" lon="-8.7256710">
        <ele>18.2</ele>
        <time>2021-05-20T10:17:54Z</time>
      </trkpt>
      <trkpt lat="42.2171290" lon="-8.7256630">
        <ele>18.2</ele>
        <time>2021-05-20T10:17:55Z</time>
      </trkpt>
      <trkpt lat="42.2171290" lon="-8.7256540">
        <ele>18.2</ele>
        <time>2021-05-20T10:17:56Z</time>
      </trkpt>
      <trkpt lat="42.2171280" lon="-8.7256460">
        <ele>18.2</ele>
        <time>2021-05-20T10:17:57Z</time>
      </trkpt>
      <trkpt lat="42.2171330" lon="-8.7256370">
        <ele>18.2</ele>
        <time>2021-05-20T10:17:58Z</time>
      </trkpt>
      <trkpt lat="42.2171290" lon="-8.7256380">
        <ele>18.2</ele>
        <time>2021-05-20T10:17:59Z</time>
      </trkpt>
      <trkpt lat="42.2171350" lon="-8.7256220">
        <ele>18.2</ele>
        <time>2021-05-20T10:18:00Z</time>
      </trkpt>
      <trkpt lat="42.2171340" lon="-8.7256130">
        <ele>18.2</ele>
        <time>2021-05-20T10:18:01Z</time>
      </trkpt>
      <trkpt lat="42.2171370" lon="-8.7256050">
        <ele>18.2</ele>
        <time>2021-05-20T10:18:02Z</time>
      </trkpt>
      <trkpt lat="42.2171480" lon="-8.7255700">
        <ele>18.2</ele>
        <time>2021-05-20T10:18:03Z</time>
      </trkpt>
      <trkpt lat="42.2171540" lon="-8.7255590">
        <ele>18.2</ele>
        <time>2021-05-20T10:18:04Z</time>
      </trkpt>
      <trkpt lat="42.2171640" lon="-8.7255140">
        <ele>18.1</ele>
        <time>2021-05-20T10:18:05Z</time>
      </trkpt>
      <trkpt lat="42.2171670" lon="-8.7255030">
        <ele>18.1</ele>
        <time>2021-05-20T10:18:06Z</time>
      </trkpt>
      <trkpt lat="42.2171730" lon="-8.7254750">
        <ele>18.1</ele>
        <time>2021-05-20T10:18:07Z</time>
      </trkpt>
      <trkpt lat="42.2171750" lon="-8.7254640">
        <ele>18.1</ele>
        <time>2021-05-20T10:18:08Z</time>
      </trkpt>
      <trkpt lat="42.2171800" lon="-8.7254440">
        <ele>18.1</ele>
        <time>2021-05-20T10:18:09Z</time>
      </trkpt>
      <trkpt lat="42.2171820" lon="-8.7254300">
        <ele>18.1</ele>
        <time>2021-05-20T10:18:10Z</time>
      </trkpt>
      <trkpt lat="42.2171840" lon="-8.7254190">
        <ele>18.1</ele>
        <time>2021-05-20T10:18:11Z</time>
      </trkpt>
      <trkpt lat="42.2171940" lon="-8.7254120">
        <ele>18.1</ele>
        <time>2021-05-20T10:18:12Z</time>
      </trkpt>
      <trkpt lat="42.2172100" lon="-8.7253970">
        <ele>18.1</ele>
        <time>2021-05-20T10:18:13Z</time>
      </trkpt>
      <trkpt lat="42.2172220" lon="-8.7253730">
        <ele>18.1</ele>
        <time>2021-05-20T10:18:14Z</time>
      </trkpt>
      <trkpt lat="42.2172290" lon="-8.7253680">
        <ele>18.1</ele>
        <time>2021-05-20T10:18:15Z</time>
      </trkpt>
      <trkpt lat="42.2172300" lon="-8.7253590">
        <ele>18.1</ele>
        <time>2021-05-20T10:18:16Z</time>
      </trkpt>
      <trkpt lat="42.2172330" lon="-8.7253490">
        <ele>18.1</ele>
        <time>2021-05-20T10:18:17Z</time>
      </trkpt>
      <trkpt lat="42.2172410" lon="-8.7253300">
        <ele>18.1</ele>
        <time>2021-05-20T10:18:18Z</time>
      </trkpt>
      <trkpt lat="42.2172510" lon="-8.7253060">
        <ele>18.1</ele>
        <time>2021-05-20T10:18:19Z</time>
      </trkpt>
      <trkpt lat="42.2172600" lon="-8.7252950">
        <ele>18.1</ele>
        <time>2021-05-20T10:18:20Z</time>
      </trkpt>
      <trkpt lat="42.2172760" lon="-8.7252810">
        <ele>18.1</ele>
        <time>2021-05-20T10:18:21Z</time>
      </trkpt>
      <trkpt lat="42.2172840" lon="-8.7252600">
        <ele>18.2</ele>
        <time>2021-05-20T10:18:22Z</time>
      </trkpt>
      <trkpt lat="42.2172870" lon="-8.7252410">
        <ele>18.2</ele>
        <time>2021-05-20T10:18:23Z</time>
      </trkpt>
      <trkpt lat="42.2172940" lon="-8.7252250">
        <ele>18.2</ele>
        <time>2021-05-20T10:18:24Z</time>
      </trkpt>
      <trkpt lat="42.2173070" lon="-8.7252090">
        <ele>18.2</ele>
        <time>2021-05-20T10:18:25Z</time>
      </trkpt>
      <trkpt lat="42.2173140" lon="-8.7251900">
        <ele>18.2</ele>
        <time>2021-05-20T10:18:26Z</time>
      </trkpt>
      <trkpt lat="42.2173200" lon="-8.7251690">
        <ele>18.2</ele>
        <time>2021-05-20T10:18:27Z</time>
      </trkpt>
      <trkpt lat="42.2173200" lon="-8.7251590">
        <ele>18.2</ele>
        <time>2021-05-20T10:18:28Z</time>
      </trkpt>
      <trkpt lat="42.2173140" lon="-8.7251480">
        <ele>18.3</ele>
        <time>2021-05-20T10:18:29Z</time>
      </trkpt>
      <trkpt lat="42.2173170" lon="-8.7251320">
        <ele>18.3</ele>
        <time>2021-05-20T10:18:30Z</time>
      </trkpt>
      <trkpt lat="42.2173140" lon="-8.7251200">
        <ele>18.3</ele>
        <time>2021-05-20T10:18:31Z</time>
      </trkpt>
      <trkpt lat="42.2173140" lon="-8.7251080">
        <ele>18.3</ele>
        <time>2021-05-20T10:18:32Z</time>
      </trkpt>
      <trkpt lat="42.2173100" lon="-8.7251010">
        <ele>18.3</ele>
        <time>2021-05-20T10:18:33Z</time>
      </trkpt>
      <trkpt lat="42.2173130" lon="-8.7250840">
        <ele>18.3</ele>
        <time>2021-05-20T10:18:34Z</time>
      </trkpt>
      <trkpt lat="42.2173110" lon="-8.7250640">
        <ele>18.3</ele>
        <time>2021-05-20T10:18:35Z</time>
      </trkpt>
      <trkpt lat="42.2173090" lon="-8.7250530">
        <ele>18.3</ele>
        <time>2021-05-20T10:18:36Z</time>
      </trkpt>
      <trkpt lat="42.2173110" lon="-8.7250390">
        <ele>18.3</ele>
        <time>2021-05-20T10:18:37Z</time>
      </trkpt>
      <trkpt lat="42.2173120" lon="-8.7250240">
        <ele>18.4</ele>
        <time>2021-05-20T10:18:38Z</time>
      </trkpt>
      <trkpt lat="42.2173120" lon="-8.7250160">
        <ele>18.4</ele>
        <time>2021-05-20T10:18:39Z</time>
      </trkpt>
      <trkpt lat="42.2173170" lon="-8.7250070">
        <ele>18.4</ele>
        <time>2021-05-20T10:18:40Z</time>
      </trkpt>
      <trkpt lat="42.2173220" lon="-8.7249860">
        <ele>18.4</ele>
        <time>2021-05-20T10:18:41Z</time>
      </trkpt>
      <trkpt lat="42.2173180" lon="-8.7249430">
        <ele>18.4</ele>
        <time>2021-05-20T10:18:42Z</time>
      </trkpt>
      <trkpt lat="42.2173160" lon="-8.7249330">
        <ele>18.4</ele>
        <time>2021-05-20T10:18:43Z</time>
      </trkpt>
      <trkpt lat="42.2173120" lon="-8.7249090">
        <ele>18.4</ele>
        <time>2021-05-20T10:18:44Z</time>
      </trkpt>
      <trkpt lat="42.2173110" lon="-8.7248930">
        <ele>18.4</ele>
        <time>2021-05-20T10:18:45Z</time>
      </trkpt>
      <trkpt lat="42.2173100" lon="-8.7248780">
        <ele>18.5</ele>
        <time>2021-05-20T10:18:46Z</time>
      </trkpt>
      <trkpt lat="42.2173100" lon="-8.7248520">
        <ele>18.5</ele>
        <time>2021-05-20T10:18:47Z</time>
      </trkpt>
      <trkpt lat="42.2173110" lon="-8.7248410">
        <ele>18.5</ele>
        <time>2021-05-20T10:18:48Z</time>
      </trkpt>
      <trkpt lat="42.2173090" lon="-8.7248310">
        <ele>18.5</ele>
        <time>2021-05-20T10:18:49Z</time>
      </trkpt>
      <trkpt lat="42.2173060" lon="-8.7248300">
        <ele>18.5</ele>
        <time>2021-05-20T10:18:50Z</time>
      </trkpt>
      <trkpt lat="42.2173020" lon="-8.7248200">
        <ele>18.5</ele>
        <time>2021-05-20T10:18:51Z</time>
      </trkpt>
      <trkpt lat="42.2173010" lon="-8.7248040">
        <ele>18.5</ele>
        <time>2021-05-20T10:18:52Z</time>
      </trkpt>
      <trkpt lat="42.2172940" lon="-8.7247830">
        <ele>18.5</ele>
        <time>2021-05-20T10:18:54Z</time>
      </trkpt>
      <trkpt lat="42.2172900" lon="-8.7247640">
        <ele>18.5</ele>
        <time>2021-05-20T10:18:55Z</time>
      </trkpt>
      <trkpt lat="42.2172820" lon="-8.7247440">
        <ele>18.5</ele>
        <time>2021-05-20T10:18:56Z</time>
      </trkpt>
      <trkpt lat="42.2172740" lon="-8.7247340">
        <ele>18.5</ele>
        <time>2021-05-20T10:18:57Z</time>
      </trkpt>
      <trkpt lat="42.2172750" lon="-8.7247260">
        <ele>18.5</ele>
        <time>2021-05-20T10:18:58Z</time>
      </trkpt>
      <trkpt lat="42.2172730" lon="-8.7247190">
        <ele>18.5</ele>
        <time>2021-05-20T10:18:59Z</time>
      </trkpt>
      <trkpt lat="42.2172700" lon="-8.7247060">
        <ele>18.5</ele>
        <time>2021-05-20T10:19:00Z</time>
      </trkpt>
      <trkpt lat="42.2172660" lon="-8.7246910">
        <ele>18.5</ele>
        <time>2021-05-20T10:19:01Z</time>
      </trkpt>
      <trkpt lat="42.2172660" lon="-8.7246730">
        <ele>18.5</ele>
        <time>2021-05-20T10:19:02Z</time>
      </trkpt>
      <trkpt lat="42.2172560" lon="-8.7246560">
        <ele>18.5</ele>
        <time>2021-05-20T10:19:03Z</time>
      </trkpt>
      <trkpt lat="42.2172430" lon="-8.7246300">
        <ele>18.5</ele>
        <time>2021-05-20T10:19:04Z</time>
      </trkpt>
      <trkpt lat="42.2172360" lon="-8.7246210">
        <ele>18.5</ele>
        <time>2021-05-20T10:19:05Z</time>
      </trkpt>
      <trkpt lat="42.2172300" lon="-8.7246110">
        <ele>18.5</ele>
        <time>2021-05-20T10:19:06Z</time>
      </trkpt>
      <trkpt lat="42.2172220" lon="-8.7245920">
        <ele>18.5</ele>
        <time>2021-05-20T10:19:07Z</time>
      </trkpt>
      <trkpt lat="42.2172160" lon="-8.7245830">
        <ele>18.5</ele>
        <time>2021-05-20T10:19:08Z</time>
      </trkpt>
      <trkpt lat="42.2172100" lon="-8.7245750">
        <ele>18.5</ele>
        <time>2021-05-20T10:19:09Z</time>
      </trkpt>
      <trkpt lat="42.2172040" lon="-8.7245660">
        <ele>18.5</ele>
        <time>2021-05-20T10:19:10Z</time>
      </trkpt>
      <trkpt lat="42.2171910" lon="-8.7245400">
        <ele>18.5</ele>
        <time>2021-05-20T10:19:11Z</time>
      </trkpt>
      <trkpt lat="42.2171850" lon="-8.7245250">
        <ele>18.5</ele>
        <time>2021-05-20T10:19:12Z</time>
      </trkpt>
      <trkpt lat="42.2171760" lon="-8.7245110">
        <ele>18.5</ele>
        <time>2021-05-20T10:19:13Z</time>
      </trkpt>
      <trkpt lat="42.2171680" lon="-8.7245000">
        <ele>18.5</ele>
        <time>2021-05-20T10:19:14Z</time>
      </trkpt>
      <trkpt lat="42.2171650" lon="-8.7244840">
        <ele>18.5</ele>
        <time>2021-05-20T10:19:15Z</time>
      </trkpt>
      <trkpt lat="42.2171530" lon="-8.7244660">
        <ele>18.5</ele>
        <time>2021-05-20T10:19:16Z</time>
      </trkpt>
      <trkpt lat="42.2171440" lon="-8.7244540">
        <ele>18.5</ele>
        <time>2021-05-20T10:19:17Z</time>
      </trkpt>
      <trkpt lat="42.2171300" lon="-8.7244160">
        <ele>18.5</ele>
        <time>2021-05-20T10:19:18Z</time>
      </trkpt>
      <trkpt lat="42.2171250" lon="-8.7244060">
        <ele>18.5</ele>
        <time>2021-05-20T10:19:19Z</time>
      </trkpt>
      <trkpt lat="42.2171160" lon="-8.7243860">
        <ele>18.5</ele>
        <time>2021-05-20T10:19:20Z</time>
      </trkpt>
      <trkpt lat="42.2171110" lon="-8.7243760">
        <ele>18.6</ele>
        <time>2021-05-20T10:19:21Z</time>
      </trkpt>
      <trkpt lat="42.2171050" lon="-8.7243690">
        <ele>18.6</ele>
        <time>2021-05-20T10:19:22Z</time>
      </trkpt>
      <trkpt lat="42.2170850" lon="-8.7243320">
        <ele>18.6</ele>
        <time>2021-05-20T10:19:23Z</time>
      </trkpt>
      <trkpt lat="42.2170770" lon="-8.7243180">
        <ele>18.6</ele>
        <time>2021-05-20T10:19:24Z</time>
      </trkpt>
      <trkpt lat="42.2170640" lon="-8.7242970">
        <ele>18.6</ele>
        <time>2021-05-20T10:19:25Z</time>
      </trkpt>
      <trkpt lat="42.2170610" lon="-8.7242790">
        <ele>18.6</ele>
        <time>2021-05-20T10:19:26Z</time>
      </trkpt>
      <trkpt lat="42.2170560" lon="-8.7242630">
        <ele>18.6</ele>
        <time>2021-05-20T10:19:27Z</time>
      </trkpt>
      <trkpt lat="42.2170500" lon="-8.7242540">
        <ele>18.6</ele>
        <time>2021-05-20T10:19:28Z</time>
      </trkpt>
      <trkpt lat="42.2170410" lon="-8.7242410">
        <ele>18.6</ele>
        <time>2021-05-20T10:19:29Z</time>
      </trkpt>
      <trkpt lat="42.2170350" lon="-8.7242290">
        <ele>18.6</ele>
        <time>2021-05-20T10:19:30Z</time>
      </trkpt>
      <trkpt lat="42.2170280" lon="-8.7242220">
        <ele>18.6</ele>
        <time>2021-05-20T10:19:31Z</time>
      </trkpt>
      <trkpt lat="42.2170210" lon="-8.7242140">
        <ele>18.6</ele>
        <time>2021-05-20T10:19:32Z</time>
      </trkpt>
      <trkpt lat="42.2170140" lon="-8.7242070">
        <ele>18.6</ele>
        <time>2021-05-20T10:19:33Z</time>
      </trkpt>
      <trkpt lat="42.2170030" lon="-8.7241970">
        <ele>18.6</ele>
        <time>2021-05-20T10:19:34Z</time>
      </trkpt>
      <trkpt lat="42.2169920" lon="-8.7241870">
        <ele>18.6</ele>
        <time>2021-05-20T10:19:35Z</time>
      </trkpt>
      <trkpt lat="42.2169880" lon="-8.7241770">
        <ele>18.6</ele>
        <time>2021-05-20T10:19:36Z</time>
      </trkpt>
      <trkpt lat="42.2169860" lon="-8.7241590">
        <ele>18.7</ele>
        <time>2021-05-20T10:19:37Z</time>
      </trkpt>
      <trkpt lat="42.2169840" lon="-8.7241490">
        <ele>18.7</ele>
        <time>2021-05-20T10:19:38Z</time>
      </trkpt>
      <trkpt lat="42.2169760" lon="-8.7241330">
        <ele>18.7</ele>
        <time>2021-05-20T10:19:39Z</time>
      </trkpt>
      <trkpt lat="42.2169670" lon="-8.7241200">
        <ele>18.7</ele>
        <time>2021-05-20T10:19:40Z</time>
      </trkpt>
      <trkpt lat="42.2169600" lon="-8.7241120">
        <ele>18.7</ele>
        <time>2021-05-20T10:19:41Z</time>
      </trkpt>
      <trkpt lat="42.2169520" lon="-8.7241030">
        <ele>18.7</ele>
        <time>2021-05-20T10:19:42Z</time>
      </trkpt>
      <trkpt lat="42.2169440" lon="-8.7240950">
        <ele>18.7</ele>
        <time>2021-05-20T10:19:43Z</time>
      </trkpt>
      <trkpt lat="42.2169230" lon="-8.7240700">
        <ele>18.8</ele>
        <time>2021-05-20T10:19:44Z</time>
      </trkpt>
      <trkpt lat="42.2169150" lon="-8.7240660">
        <ele>18.8</ele>
        <time>2021-05-20T10:19:45Z</time>
      </trkpt>
      <trkpt lat="42.2168920" lon="-8.7240380">
        <ele>18.8</ele>
        <time>2021-05-20T10:19:46Z</time>
      </trkpt>
      <trkpt lat="42.2168820" lon="-8.7240300">
        <ele>18.8</ele>
        <time>2021-05-20T10:19:47Z</time>
      </trkpt>
      <trkpt lat="42.2168770" lon="-8.7240220">
        <ele>18.8</ele>
        <time>2021-05-20T10:19:48Z</time>
      </trkpt>
      <trkpt lat="42.2168750" lon="-8.7240120">
        <ele>18.9</ele>
        <time>2021-05-20T10:19:49Z</time>
      </trkpt>
      <trkpt lat="42.2168600" lon="-8.7239940">
        <ele>18.9</ele>
        <time>2021-05-20T10:19:50Z</time>
      </trkpt>
      <trkpt lat="42.2168490" lon="-8.7239740">
        <ele>18.9</ele>
        <time>2021-05-20T10:19:51Z</time>
      </trkpt>
      <trkpt lat="42.2168460" lon="-8.7239650">
        <ele>18.9</ele>
        <time>2021-05-20T10:19:52Z</time>
      </trkpt>
      <trkpt lat="42.2168420" lon="-8.7239570">
        <ele>18.9</ele>
        <time>2021-05-20T10:19:53Z</time>
      </trkpt>
      <trkpt lat="42.2168380" lon="-8.7239480">
        <ele>19.0</ele>
        <time>2021-05-20T10:19:54Z</time>
      </trkpt>
      <trkpt lat="42.2168270" lon="-8.7239360">
        <ele>19.0</ele>
        <time>2021-05-20T10:19:55Z</time>
      </trkpt>
      <trkpt lat="42.2168190" lon="-8.7239310">
        <ele>19.0</ele>
        <time>2021-05-20T10:19:56Z</time>
      </trkpt>
      <trkpt lat="42.2168130" lon="-8.7239170">
        <ele>19.0</ele>
        <time>2021-05-20T10:19:57Z</time>
      </trkpt>
      <trkpt lat="42.2167980" lon="-8.7239030">
        <ele>19.1</ele>
        <time>2021-05-20T10:19:58Z</time>
      </trkpt>
      <trkpt lat="42.2167880" lon="-8.7238930">
        <ele>19.1</ele>
        <time>2021-05-20T10:19:59Z</time>
      </trkpt>
      <trkpt lat="42.2167790" lon="-8.7238830">
        <ele>19.1</ele>
        <time>2021-05-20T10:20:00Z</time>
      </trkpt>
      <trkpt lat="42.2167670" lon="-8.7238690">
        <ele>19.1</ele>
        <time>2021-05-20T10:20:01Z</time>
      </trkpt>
      <trkpt lat="42.2167600" lon="-8.7238570">
        <ele>19.1</ele>
        <time>2021-05-20T10:20:02Z</time>
      </trkpt>
      <trkpt lat="42.2167570" lon="-8.7238480">
        <ele>19.1</ele>
        <time>2021-05-20T10:20:03Z</time>
      </trkpt>
      <trkpt lat="42.2167550" lon="-8.7238370">
        <ele>19.2</ele>
        <time>2021-05-20T10:20:04Z</time>
      </trkpt>
      <trkpt lat="42.2167470" lon="-8.7238260">
        <ele>19.2</ele>
        <time>2021-05-20T10:20:05Z</time>
      </trkpt>
      <trkpt lat="42.2167470" lon="-8.7238130">
        <ele>19.2</ele>
        <time>2021-05-20T10:20:06Z</time>
      </trkpt>
      <trkpt lat="42.2167370" lon="-8.7237900">
        <ele>19.2</ele>
        <time>2021-05-20T10:20:07Z</time>
      </trkpt>
      <trkpt lat="42.2167320" lon="-8.7237760">
        <ele>19.2</ele>
        <time>2021-05-20T10:20:08Z</time>
      </trkpt>
      <trkpt lat="42.2167240" lon="-8.7237580">
        <ele>19.3</ele>
        <time>2021-05-20T10:20:09Z</time>
      </trkpt>
      <trkpt lat="42.2167200" lon="-8.7237390">
        <ele>19.3</ele>
        <time>2021-05-20T10:20:10Z</time>
      </trkpt>
      <trkpt lat="42.2167320" lon="-8.7236950">
        <ele>19.3</ele>
        <time>2021-05-20T10:20:11Z</time>
      </trkpt>
      <trkpt lat="42.2167370" lon="-8.7236750">
        <ele>19.3</ele>
        <time>2021-05-20T10:20:12Z</time>
      </trkpt>
      <trkpt lat="42.2167430" lon="-8.7236510">
        <ele>19.3</ele>
        <time>2021-05-20T10:20:13Z</time>
      </trkpt>
      <trkpt lat="42.2167470" lon="-8.7236410">
        <ele>19.3</ele>
        <time>2021-05-20T10:20:14Z</time>
      </trkpt>
      <trkpt lat="42.2167460" lon="-8.7236230">
        <ele>19.3</ele>
        <time>2021-05-20T10:20:15Z</time>
      </trkpt>
      <trkpt lat="42.2167420" lon="-8.7236130">
        <ele>19.3</ele>
        <time>2021-05-20T10:20:16Z</time>
      </trkpt>
      <trkpt lat="42.2167440" lon="-8.7235920">
        <ele>19.3</ele>
        <time>2021-05-20T10:20:17Z</time>
      </trkpt>
      <trkpt lat="42.2167440" lon="-8.7235840">
        <ele>19.3</ele>
        <time>2021-05-20T10:20:18Z</time>
      </trkpt>
      <trkpt lat="42.2167500" lon="-8.7235740">
        <ele>19.3</ele>
        <time>2021-05-20T10:20:19Z</time>
      </trkpt>
      <trkpt lat="42.2167630" lon="-8.7235480">
        <ele>19.3</ele>
        <time>2021-05-20T10:20:20Z</time>
      </trkpt>
      <trkpt lat="42.2167680" lon="-8.7235390">
        <ele>19.3</ele>
        <time>2021-05-20T10:20:21Z</time>
      </trkpt>
      <trkpt lat="42.2167730" lon="-8.7235290">
        <ele>19.3</ele>
        <time>2021-05-20T10:20:22Z</time>
      </trkpt>
      <trkpt lat="42.2167800" lon="-8.7235230">
        <ele>19.3</ele>
        <time>2021-05-20T10:20:23Z</time>
      </trkpt>
      <trkpt lat="42.2167930" lon="-8.7235130">
        <ele>19.2</ele>
        <time>2021-05-20T10:20:24Z</time>
      </trkpt>
      <trkpt lat="42.2168000" lon="-8.7235060">
        <ele>19.2</ele>
        <time>2021-05-20T10:20:25Z</time>
      </trkpt>
      <trkpt lat="42.2168220" lon="-8.7234830">
        <ele>19.2</ele>
        <time>2021-05-20T10:20:26Z</time>
      </trkpt>
      <trkpt lat="42.2168290" lon="-8.7234760">
        <ele>19.2</ele>
        <time>2021-05-20T10:20:27Z</time>
      </trkpt>
      <trkpt lat="42.2168410" lon="-8.7234640">
        <ele>19.2</ele>
        <time>2021-05-20T10:20:28Z</time>
      </trkpt>
      <trkpt lat="42.2168410" lon="-8.7234540">
        <ele>19.1</ele>
        <time>2021-05-20T10:20:29Z</time>
      </trkpt>
      <trkpt lat="42.2168470" lon="-8.7234410">
        <ele>19.1</ele>
        <time>2021-05-20T10:20:30Z</time>
      </trkpt>
      <trkpt lat="42.2168650" lon="-8.7234290">
        <ele>19.1</ele>
        <time>2021-05-20T10:20:31Z</time>
      </trkpt>
      <trkpt lat="42.2168770" lon="-8.7234140">
        <ele>19.1</ele>
        <time>2021-05-20T10:20:32Z</time>
      </trkpt>
      <trkpt lat="42.2168880" lon="-8.7234050">
        <ele>19.0</ele>
        <time>2021-05-20T10:20:33Z</time>
      </trkpt>
      <trkpt lat="42.2168910" lon="-8.7234020">
        <ele>19.0</ele>
        <time>2021-05-20T10:20:35Z</time>
      </trkpt>
      <trkpt lat="42.2169000" lon="-8.7233850">
        <ele>19.0</ele>
        <time>2021-05-20T10:20:36Z</time>
      </trkpt>
      <trkpt lat="42.2169130" lon="-8.7233740">
        <ele>19.0</ele>
        <time>2021-05-20T10:20:37Z</time>
      </trkpt>
      <trkpt lat="42.2169240" lon="-8.7233570">
        <ele>18.9</ele>
        <time>2021-05-20T10:20:38Z</time>
      </trkpt>
      <trkpt lat="42.2169370" lon="-8.7233500">
        <ele>18.9</ele>
        <time>2021-05-20T10:20:39Z</time>
      </trkpt>
      <trkpt lat="42.2169470" lon="-8.7233450">
        <ele>18.9</ele>
        <time>2021-05-20T10:20:40Z</time>
      </trkpt>
      <trkpt lat="42.2169530" lon="-8.7233420">
        <ele>18.9</ele>
        <time>2021-05-20T10:20:41Z</time>
      </trkpt>
      <trkpt lat="42.2169740" lon="-8.7233230">
        <ele>18.8</ele>
        <time>2021-05-20T10:20:42Z</time>
      </trkpt>
      <trkpt lat="42.2169800" lon="-8.7233180">
        <ele>18.8</ele>
        <time>2021-05-20T10:20:43Z</time>
      </trkpt>
      <trkpt lat="42.2169850" lon="-8.7233130">
        <ele>18.8</ele>
        <time>2021-05-20T10:20:44Z</time>
      </trkpt>
      <trkpt lat="42.2170040" lon="-8.7233000">
        <ele>18.8</ele>
        <time>2021-05-20T10:20:45Z</time>
      </trkpt>
      <trkpt lat="42.2170100" lon="-8.7232930">
        <ele>18.8</ele>
        <time>2021-05-20T10:20:46Z</time>
      </trkpt>
      <trkpt lat="42.2170170" lon="-8.7232850">
        <ele>18.7</ele>
        <time>2021-05-20T10:20:47Z</time>
      </trkpt>
      <trkpt lat="42.2170330" lon="-8.7232760">
        <ele>18.7</ele>
        <time>2021-05-20T10:20:48Z</time>
      </trkpt>
      <trkpt lat="42.2170360" lon="-8.7232700">
        <ele>18.7</ele>
        <time>2021-05-20T10:20:49Z</time>
      </trkpt>
      <trkpt lat="42.2170450" lon="-8.7232670">
        <ele>18.7</ele>
        <time>2021-05-20T10:20:50Z</time>
      </trkpt>
      <trkpt lat="42.2170520" lon="-8.7232570">
        <ele>18.7</ele>
        <time>2021-05-20T10:20:51Z</time>
      </trkpt>
      <trkpt lat="42.2170590" lon="-8.7232420">
        <ele>18.6</ele>
        <time>2021-05-20T10:20:52Z</time>
      </trkpt>
      <trkpt lat="42.2170670" lon="-8.7232320">
        <ele>18.6</ele>
        <time>2021-05-20T10:20:53Z</time>
      </trkpt>
      <trkpt lat="42.2170970" lon="-8.7232180">
        <ele>18.6</ele>
        <time>2021-05-20T10:20:54Z</time>
      </trkpt>
      <trkpt lat="42.2171030" lon="-8.7232140">
        <ele>18.6</ele>
        <time>2021-05-20T10:20:55Z</time>
      </trkpt>
      <trkpt lat="42.2171370" lon="-8.7232070">
        <ele>18.6</ele>
        <time>2021-05-20T10:20:56Z</time>
      </trkpt>
      <trkpt lat="42.2171440" lon="-8.7232040">
        <ele>18.6</ele>
        <time>2021-05-20T10:20:57Z</time>
      </trkpt>
      <trkpt lat="42.2171480" lon="-8.7231980">
        <ele>18.6</ele>
        <time>2021-05-20T10:20:58Z</time>
      </trkpt>
      <trkpt lat="42.2171520" lon="-8.7231740">
        <ele>18.6</ele>
        <time>2021-05-20T10:20:59Z</time>
      </trkpt>
      <trkpt lat="42.2171540" lon="-8.7231600">
        <ele>18.6</ele>
        <time>2021-05-20T10:21:00Z</time>
      </trkpt>
      <trkpt lat="42.2171630" lon="-8.7231470">
        <ele>18.6</ele>
        <time>2021-05-20T10:21:01Z</time>
      </trkpt>
      <trkpt lat="42.2171700" lon="-8.7231380">
        <ele>18.6</ele>
        <time>2021-05-20T10:21:02Z</time>
      </trkpt>
      <trkpt lat="42.2171740" lon="-8.7231270">
        <ele>18.6</ele>
        <time>2021-05-20T10:21:03Z</time>
      </trkpt>
      <trkpt lat="42.2171770" lon="-8.7231190">
        <ele>18.6</ele>
        <time>2021-05-20T10:21:04Z</time>
      </trkpt>
      <trkpt lat="42.2171760" lon="-8.7231020">
        <ele>18.6</ele>
        <time>2021-05-20T10:21:05Z</time>
      </trkpt>
      <trkpt lat="42.2171750" lon="-8.7230830">
        <ele>18.6</ele>
        <time>2021-05-20T10:21:06Z</time>
      </trkpt>
      <trkpt lat="42.2171700" lon="-8.7230700">
        <ele>18.6</ele>
        <time>2021-05-20T10:21:07Z</time>
      </trkpt>
      <trkpt lat="42.2171680" lon="-8.7230560">
        <ele>18.6</ele>
        <time>2021-05-20T10:21:08Z</time>
      </trkpt>
      <trkpt lat="42.2171630" lon="-8.7230450">
        <ele>18.6</ele>
        <time>2021-05-20T10:21:09Z</time>
      </trkpt>
      <trkpt lat="42.2171600" lon="-8.7230310">
        <ele>18.6</ele>
        <time>2021-05-20T10:21:10Z</time>
      </trkpt>
      <trkpt lat="42.2171600" lon="-8.7230170">
        <ele>18.7</ele>
        <time>2021-05-20T10:21:11Z</time>
      </trkpt>
      <trkpt lat="42.2171580" lon="-8.7229990">
        <ele>18.7</ele>
        <time>2021-05-20T10:21:12Z</time>
      </trkpt>
      <trkpt lat="42.2171510" lon="-8.7229830">
        <ele>18.7</ele>
        <time>2021-05-20T10:21:13Z</time>
      </trkpt>
      <trkpt lat="42.2171460" lon="-8.7229750">
        <ele>18.8</ele>
        <time>2021-05-20T10:21:14Z</time>
      </trkpt>
      <trkpt lat="42.2171370" lon="-8.7229650">
        <ele>18.8</ele>
        <time>2021-05-20T10:21:15Z</time>
      </trkpt>
      <trkpt lat="42.2171300" lon="-8.7229480">
        <ele>18.8</ele>
        <time>2021-05-20T10:21:16Z</time>
      </trkpt>
      <trkpt lat="42.2171260" lon="-8.7229280">
        <ele>18.9</ele>
        <time>2021-05-20T10:21:17Z</time>
      </trkpt>
      <trkpt lat="42.2171230" lon="-8.7229210">
        <ele>18.9</ele>
        <time>2021-05-20T10:21:18Z</time>
      </trkpt>
      <trkpt lat="42.2171210" lon="-8.7229000">
        <ele>18.9</ele>
        <time>2021-05-20T10:21:19Z</time>
      </trkpt>
      <trkpt lat="42.2171180" lon="-8.7228910">
        <ele>19.0</ele>
        <time>2021-05-20T10:21:20Z</time>
      </trkpt>
      <trkpt lat="42.2171180" lon="-8.7228730">
        <ele>19.0</ele>
        <time>2021-05-20T10:21:21Z</time>
      </trkpt>
      <trkpt lat="42.2171110" lon="-8.7228590">
        <ele>19.1</ele>
        <time>2021-05-20T10:21:22Z</time>
      </trkpt>
      <trkpt lat="42.2171020" lon="-8.7228520">
        <ele>19.1</ele>
        <time>2021-05-20T10:21:23Z</time>
      </trkpt>
      <trkpt lat="42.2171000" lon="-8.7228230">
        <ele>19.2</ele>
        <time>2021-05-20T10:21:24Z</time>
      </trkpt>
      <trkpt lat="42.2170980" lon="-8.7228100">
        <ele>19.2</ele>
        <time>2021-05-20T10:21:25Z</time>
      </trkpt>
      <trkpt lat="42.2170970" lon="-8.7227970">
        <ele>19.3</ele>
        <time>2021-05-20T10:21:26Z</time>
      </trkpt>
      <trkpt lat="42.2170890" lon="-8.7227780">
        <ele>19.3</ele>
        <time>2021-05-20T10:21:27Z</time>
      </trkpt>
      <trkpt lat="42.2170820" lon="-8.7227650">
        <ele>19.4</ele>
        <time>2021-05-20T10:21:28Z</time>
      </trkpt>
      <trkpt lat="42.2170720" lon="-8.7227460">
        <ele>19.4</ele>
        <time>2021-05-20T10:21:29Z</time>
      </trkpt>
      <trkpt lat="42.2170710" lon="-8.7227260">
        <ele>19.5</ele>
        <time>2021-05-20T10:21:30Z</time>
      </trkpt>
      <trkpt lat="42.2170740" lon="-8.7226980">
        <ele>19.6</ele>
        <time>2021-05-20T10:21:31Z</time>
      </trkpt>
      <trkpt lat="42.2170770" lon="-8.7226930">
        <ele>19.6</ele>
        <time>2021-05-20T10:21:32Z</time>
      </trkpt>
      <trkpt lat="42.2170790" lon="-8.7226870">
        <ele>19.6</ele>
        <time>2021-05-20T10:21:33Z</time>
      </trkpt>
      <trkpt lat="42.2170820" lon="-8.7226820">
        <ele>19.6</ele>
        <time>2021-05-20T10:21:34Z</time>
      </trkpt>
      <trkpt lat="42.2170850" lon="-8.7226760">
        <ele>19.6</ele>
        <time>2021-05-20T10:21:35Z</time>
      </trkpt>
      <trkpt lat="42.2170860" lon="-8.7226470">
        <ele>19.7</ele>
        <time>2021-05-20T10:21:36Z</time>
      </trkpt>
      <trkpt lat="42.2170870" lon="-8.7226400">
        <ele>19.7</ele>
        <time>2021-05-20T10:21:37Z</time>
      </trkpt>
      <trkpt lat="42.2170880" lon="-8.7226330">
        <ele>19.7</ele>
        <time>2021-05-20T10:21:38Z</time>
      </trkpt>
      <trkpt lat="42.2170890" lon="-8.7226260">
        <ele>19.7</ele>
        <time>2021-05-20T10:21:39Z</time>
      </trkpt>
      <trkpt lat="42.2170810" lon="-8.7226120">
        <ele>19.7</ele>
        <time>2021-05-20T10:21:40Z</time>
      </trkpt>
      <trkpt lat="42.2170690" lon="-8.7225890">
        <ele>19.7</ele>
        <time>2021-05-20T10:21:41Z</time>
      </trkpt>
      <trkpt lat="42.2170630" lon="-8.7225690">
        <ele>19.7</ele>
        <time>2021-05-20T10:21:42Z</time>
      </trkpt>
      <trkpt lat="42.2170640" lon="-8.7225440">
        <ele>19.7</ele>
        <time>2021-05-20T10:21:43Z</time>
      </trkpt>
      <trkpt lat="42.2170630" lon="-8.7225230">
        <ele>19.7</ele>
        <time>2021-05-20T10:21:44Z</time>
      </trkpt>
      <trkpt lat="42.2170680" lon="-8.7225020">
        <ele>19.7</ele>
        <time>2021-05-20T10:21:45Z</time>
      </trkpt>
      <trkpt lat="42.2170750" lon="-8.7224770">
        <ele>19.7</ele>
        <time>2021-05-20T10:21:46Z</time>
      </trkpt>
      <trkpt lat="42.2170800" lon="-8.7224660">
        <ele>19.7</ele>
        <time>2021-05-20T10:21:47Z</time>
      </trkpt>
      <trkpt lat="42.2170850" lon="-8.7224560">
        <ele>19.7</ele>
        <time>2021-05-20T10:21:48Z</time>
      </trkpt>
      <trkpt lat="42.2170980" lon="-8.7224380">
        <ele>19.7</ele>
        <time>2021-05-20T10:21:49Z</time>
      </trkpt>
      <trkpt lat="42.2171020" lon="-8.7224270">
        <ele>19.7</ele>
        <time>2021-05-20T10:21:50Z</time>
      </trkpt>
      <trkpt lat="42.2171090" lon="-8.7224110">
        <ele>19.6</ele>
        <time>2021-05-20T10:21:51Z</time>
      </trkpt>
      <trkpt lat="42.2171120" lon="-8.7224000">
        <ele>19.6</ele>
        <time>2021-05-20T10:21:52Z</time>
      </trkpt>
      <trkpt lat="42.2171180" lon="-8.7223840">
        <ele>19.6</ele>
        <time>2021-05-20T10:21:53Z</time>
      </trkpt>
      <trkpt lat="42.2171210" lon="-8.7223700">
        <ele>19.6</ele>
        <time>2021-05-20T10:21:54Z</time>
      </trkpt>
      <trkpt lat="42.2171190" lon="-8.7223650">
        <ele>19.6</ele>
        <time>2021-05-20T10:21:55Z</time>
      </trkpt>
      <trkpt lat="42.2171210" lon="-8.7223540">
        <ele>19.6</ele>
        <time>2021-05-20T10:21:56Z</time>
      </trkpt>
      <trkpt lat="42.2171230" lon="-8.7223380">
        <ele>19.6</ele>
        <time>2021-05-20T10:21:57Z</time>
      </trkpt>
      <trkpt lat="42.2171240" lon="-8.7223290">
        <ele>19.6</ele>
        <time>2021-05-20T10:21:58Z</time>
      </trkpt>
      <trkpt lat="42.2171170" lon="-8.7223240">
        <ele>19.6</ele>
        <time>2021-05-20T10:21:59Z</time>
      </trkpt>
      <trkpt lat="42.2171220" lon="-8.7223240">
        <ele>19.6</ele>
        <time>2021-05-20T10:22:00Z</time>
      </trkpt>
      <trkpt lat="42.2171290" lon="-8.7223110">
        <ele>19.6</ele>
        <time>2021-05-20T10:22:01Z</time>
      </trkpt>
      <trkpt lat="42.2171290" lon="-8.7222980">
        <ele>19.6</ele>
        <time>2021-05-20T10:22:02Z</time>
      </trkpt>
      <trkpt lat="42.2171370" lon="-8.7222740">
        <ele>19.6</ele>
        <time>2021-05-20T10:22:03Z</time>
      </trkpt>
      <trkpt lat="42.2171440" lon="-8.7222620">
        <ele>19.6</ele>
        <time>2021-05-20T10:22:04Z</time>
      </trkpt>
      <trkpt lat="42.2171520" lon="-8.7222500">
        <ele>19.6</ele>
        <time>2021-05-20T10:22:05Z</time>
      </trkpt>
      <trkpt lat="42.2171670" lon="-8.7222420">
        <ele>19.6</ele>
        <time>2021-05-20T10:22:06Z</time>
      </trkpt>
      <trkpt lat="42.2171840" lon="-8.7222320">
        <ele>19.6</ele>
        <time>2021-05-20T10:22:07Z</time>
      </trkpt>
      <trkpt lat="42.2172030" lon="-8.7222130">
        <ele>19.6</ele>
        <time>2021-05-20T10:22:08Z</time>
      </trkpt>
      <trkpt lat="42.2172120" lon="-8.7222080">
        <ele>19.6</ele>
        <time>2021-05-20T10:22:09Z</time>
      </trkpt>
      <trkpt lat="42.2172220" lon="-8.7222020">
        <ele>19.6</ele>
        <time>2021-05-20T10:22:10Z</time>
      </trkpt>
      <trkpt lat="42.2172400" lon="-8.7221880">
        <ele>19.7</ele>
        <time>2021-05-20T10:22:11Z</time>
      </trkpt>
      <trkpt lat="42.2172490" lon="-8.7221780">
        <ele>19.7</ele>
        <time>2021-05-20T10:22:12Z</time>
      </trkpt>
      <trkpt lat="42.2172570" lon="-8.7221680">
        <ele>19.7</ele>
        <time>2021-05-20T10:22:13Z</time>
      </trkpt>
      <trkpt lat="42.2172820" lon="-8.7221520">
        <ele>19.7</ele>
        <time>2021-05-20T10:22:14Z</time>
      </trkpt>
      <trkpt lat="42.2173000" lon="-8.7221310">
        <ele>19.7</ele>
        <time>2021-05-20T10:22:15Z</time>
      </trkpt>
      <trkpt lat="42.2173030" lon="-8.7221220">
        <ele>19.7</ele>
        <time>2021-05-20T10:22:16Z</time>
      </trkpt>
      <trkpt lat="42.2173070" lon="-8.7221140">
        <ele>19.7</ele>
        <time>2021-05-20T10:22:17Z</time>
      </trkpt>
      <trkpt lat="42.2173200" lon="-8.7221070">
        <ele>19.8</ele>
        <time>2021-05-20T10:22:18Z</time>
      </trkpt>
      <trkpt lat="42.2173290" lon="-8.7221090">
        <ele>19.8</ele>
        <time>2021-05-20T10:22:19Z</time>
      </trkpt>
      <trkpt lat="42.2173330" lon="-8.7221020">
        <ele>19.8</ele>
        <time>2021-05-20T10:22:20Z</time>
      </trkpt>
      <trkpt lat="42.2173410" lon="-8.7220960">
        <ele>19.8</ele>
        <time>2021-05-20T10:22:21Z</time>
      </trkpt>
      <trkpt lat="42.2173510" lon="-8.7220860">
        <ele>19.8</ele>
        <time>2021-05-20T10:22:22Z</time>
      </trkpt>
      <trkpt lat="42.2173600" lon="-8.7220880">
        <ele>19.8</ele>
        <time>2021-05-20T10:22:23Z</time>
      </trkpt>
      <trkpt lat="42.2173740" lon="-8.7220750">
        <ele>19.9</ele>
        <time>2021-05-20T10:22:24Z</time>
      </trkpt>
      <trkpt lat="42.2173830" lon="-8.7220640">
        <ele>19.9</ele>
        <time>2021-05-20T10:22:25Z</time>
      </trkpt>
      <trkpt lat="42.2173920" lon="-8.7220530">
        <ele>19.9</ele>
        <time>2021-05-20T10:22:26Z</time>
      </trkpt>
      <trkpt lat="42.2173990" lon="-8.7220450">
        <ele>19.9</ele>
        <time>2021-05-20T10:22:27Z</time>
      </trkpt>
      <trkpt lat="42.2174110" lon="-8.7220410">
        <ele>20.0</ele>
        <time>2021-05-20T10:22:28Z</time>
      </trkpt>
      <trkpt lat="42.2174190" lon="-8.7220380">
        <ele>20.0</ele>
        <time>2021-05-20T10:22:29Z</time>
      </trkpt>
      <trkpt lat="42.2174410" lon="-8.7220260">
        <ele>20.1</ele>
        <time>2021-05-20T10:22:30Z</time>
      </trkpt>
      <trkpt lat="42.2174530" lon="-8.7220200">
        <ele>20.1</ele>
        <time>2021-05-20T10:22:31Z</time>
      </trkpt>
      <trkpt lat="42.2174660" lon="-8.7220130">
        <ele>20.2</ele>
        <time>2021-05-20T10:22:32Z</time>
      </trkpt>
      <trkpt lat="42.2174810" lon="-8.7220150">
        <ele>20.3</ele>
        <time>2021-05-20T10:22:33Z</time>
      </trkpt>
      <trkpt lat="42.2174950" lon="-8.7220070">
        <ele>20.3</ele>
        <time>2021-05-20T10:22:34Z</time>
      </trkpt>
      <trkpt lat="42.2175140" lon="-8.7219860">
        <ele>20.4</ele>
        <time>2021-05-20T10:22:35Z</time>
      </trkpt>
      <trkpt lat="42.2175240" lon="-8.7219810">
        <ele>20.5</ele>
        <time>2021-05-20T10:22:36Z</time>
      </trkpt>
      <trkpt lat="42.2175350" lon="-8.7219750">
        <ele>20.5</ele>
        <time>2021-05-20T10:22:37Z</time>
      </trkpt>
      <trkpt lat="42.2175450" lon="-8.7219710">
        <ele>20.5</ele>
        <time>2021-05-20T10:22:38Z</time>
      </trkpt>
      <trkpt lat="42.2175630" lon="-8.7219650">
        <ele>20.6</ele>
        <time>2021-05-20T10:22:39Z</time>
      </trkpt>
      <trkpt lat="42.2175940" lon="-8.7219460">
        <ele>20.7</ele>
        <time>2021-05-20T10:22:40Z</time>
      </trkpt>
      <trkpt lat="42.2176070" lon="-8.7219360">
        <ele>20.8</ele>
        <time>2021-05-20T10:22:41Z</time>
      </trkpt>
      <trkpt lat="42.2176150" lon="-8.7219220">
        <ele>20.7</ele>
        <time>2021-05-20T10:22:42Z</time>
      </trkpt>
      <trkpt lat="42.2176230" lon="-8.7219170">
        <ele>20.7</ele>
        <time>2021-05-20T10:22:43Z</time>
      </trkpt>
      <trkpt lat="42.2176320" lon="-8.7219080">
        <ele>20.7</ele>
        <time>2021-05-20T10:22:44Z</time>
      </trkpt>
      <trkpt lat="42.2176360" lon="-8.7218960">
        <ele>20.7</ele>
        <time>2021-05-20T10:22:45Z</time>
      </trkpt>
      <trkpt lat="42.2176340" lon="-8.7218860">
        <ele>20.7</ele>
        <time>2021-05-20T10:22:46Z</time>
      </trkpt>
      <trkpt lat="42.2176530" lon="-8.7218700">
        <ele>20.6</ele>
        <time>2021-05-20T10:22:47Z</time>
      </trkpt>
      <trkpt lat="42.2176620" lon="-8.7218610">
        <ele>20.6</ele>
        <time>2021-05-20T10:22:48Z</time>
      </trkpt>
      <trkpt lat="42.2176640" lon="-8.7218500">
        <ele>20.6</ele>
        <time>2021-05-20T10:22:49Z</time>
      </trkpt>
      <trkpt lat="42.2176770" lon="-8.7218340">
        <ele>20.5</ele>
        <time>2021-05-20T10:22:50Z</time>
      </trkpt>
      <trkpt lat="42.2176830" lon="-8.7218210">
        <ele>20.5</ele>
        <time>2021-05-20T10:22:51Z</time>
      </trkpt>
      <trkpt lat="42.2176890" lon="-8.7218150">
        <ele>20.5</ele>
        <time>2021-05-20T10:22:52Z</time>
      </trkpt>
      <trkpt lat="42.2176940" lon="-8.7218080">
        <ele>20.4</ele>
        <time>2021-05-20T10:22:53Z</time>
      </trkpt>
      <trkpt lat="42.2177000" lon="-8.7218020">
        <ele>20.4</ele>
        <time>2021-05-20T10:22:54Z</time>
      </trkpt>
      <trkpt lat="42.2177060" lon="-8.7217960">
        <ele>20.4</ele>
        <time>2021-05-20T10:22:55Z</time>
      </trkpt>
      <trkpt lat="42.2177150" lon="-8.7217920">
        <ele>20.3</ele>
        <time>2021-05-20T10:22:56Z</time>
      </trkpt>
      <trkpt lat="42.2177200" lon="-8.7217880">
        <ele>20.3</ele>
        <time>2021-05-20T10:22:57Z</time>
      </trkpt>
      <trkpt lat="42.2177260" lon="-8.7217760">
        <ele>20.3</ele>
        <time>2021-05-20T10:22:58Z</time>
      </trkpt>
      <trkpt lat="42.2177280" lon="-8.7217730">
        <ele>20.2</ele>
        <time>2021-05-20T10:22:59Z</time>
      </trkpt>
      <trkpt lat="42.2177380" lon="-8.7217650">
        <ele>20.2</ele>
        <time>2021-05-20T10:23:00Z</time>
      </trkpt>
      <trkpt lat="42.2177460" lon="-8.7217580">
        <ele>20.1</ele>
        <time>2021-05-20T10:23:01Z</time>
      </trkpt>
      <trkpt lat="42.2177540" lon="-8.7217500">
        <ele>20.1</ele>
        <time>2021-05-20T10:23:02Z</time>
      </trkpt>
      <trkpt lat="42.2177630" lon="-8.7217460">
        <ele>20.0</ele>
        <time>2021-05-20T10:23:03Z</time>
      </trkpt>
      <trkpt lat="42.2177720" lon="-8.7217410">
        <ele>20.0</ele>
        <time>2021-05-20T10:23:04Z</time>
      </trkpt>
      <trkpt lat="42.2177820" lon="-8.7217310">
        <ele>19.9</ele>
        <time>2021-05-20T10:23:05Z</time>
      </trkpt>
      <trkpt lat="42.2177960" lon="-8.7217170">
        <ele>19.9</ele>
        <time>2021-05-20T10:23:06Z</time>
      </trkpt>
      <trkpt lat="42.2178020" lon="-8.7217130">
        <ele>19.8</ele>
        <time>2021-05-20T10:23:07Z</time>
      </trkpt>
      <trkpt lat="42.2178080" lon="-8.7217080">
        <ele>19.8</ele>
        <time>2021-05-20T10:23:08Z</time>
      </trkpt>
      <trkpt lat="42.2178140" lon="-8.7217030">
        <ele>19.8</ele>
        <time>2021-05-20T10:23:09Z</time>
      </trkpt>
      <trkpt lat="42.2178230" lon="-8.7216940">
        <ele>19.7</ele>
        <time>2021-05-20T10:23:10Z</time>
      </trkpt>
      <trkpt lat="42.2178340" lon="-8.7216860">
        <ele>19.7</ele>
        <time>2021-05-20T10:23:11Z</time>
      </trkpt>
      <trkpt lat="42.2178450" lon="-8.7216850">
        <ele>19.6</ele>
        <time>2021-05-20T10:23:12Z</time>
      </trkpt>
      <trkpt lat="42.2178520" lon="-8.7216730">
        <ele>19.6</ele>
        <time>2021-05-20T10:23:13Z</time>
      </trkpt>
      <trkpt lat="42.2178630" lon="-8.7216680">
        <ele>19.5</ele>
        <time>2021-05-20T10:23:14Z</time>
      </trkpt>
      <trkpt lat="42.2178750" lon="-8.7216650">
        <ele>19.5</ele>
        <time>2021-05-20T10:23:15Z</time>
      </trkpt>
      <trkpt lat="42.2178890" lon="-8.7216620">
        <ele>19.5</ele>
        <time>2021-05-20T10:23:16Z</time>
      </trkpt>
      <trkpt lat="42.2178960" lon="-8.7216600">
        <ele>19.4</ele>
        <time>2021-05-20T10:23:17Z</time>
      </trkpt>
      <trkpt lat="42.2179080" lon="-8.7216550">
        <ele>19.4</ele>
        <time>2021-05-20T10:23:18Z</time>
      </trkpt>
      <trkpt lat="42.2179200" lon="-8.7216510">
        <ele>19.4</ele>
        <time>2021-05-20T10:23:19Z</time>
      </trkpt>
      <trkpt lat="42.2179280" lon="-8.7216440">
        <ele>19.4</ele>
        <time>2021-05-20T10:23:20Z</time>
      </trkpt>
      <trkpt lat="42.2179390" lon="-8.7216310">
        <ele>19.3</ele>
        <time>2021-05-20T10:23:21Z</time>
      </trkpt>
      <trkpt lat="42.2179490" lon="-8.7216170">
        <ele>19.3</ele>
        <time>2021-05-20T10:23:22Z</time>
      </trkpt>
      <trkpt lat="42.2179640" lon="-8.7216140">
        <ele>19.3</ele>
        <time>2021-05-20T10:23:23Z</time>
      </trkpt>
      <trkpt lat="42.2179750" lon="-8.7216150">
        <ele>19.3</ele>
        <time>2021-05-20T10:23:24Z</time>
      </trkpt>
      <trkpt lat="42.2179880" lon="-8.7216160">
        <ele>19.3</ele>
        <time>2021-05-20T10:23:25Z</time>
      </trkpt>
      <trkpt lat="42.2179960" lon="-8.7216130">
        <ele>19.3</ele>
        <time>2021-05-20T10:23:26Z</time>
      </trkpt>
      <trkpt lat="42.2180040" lon="-8.7216140">
        <ele>19.3</ele>
        <time>2021-05-20T10:23:27Z</time>
      </trkpt>
      <trkpt lat="42.2180140" lon="-8.7216140">
        <ele>19.2</ele>
        <time>2021-05-20T10:23:28Z</time>
      </trkpt>
      <trkpt lat="42.2180160" lon="-8.7216150">
        <ele>19.2</ele>
        <time>2021-05-20T10:23:29Z</time>
      </trkpt>
      <trkpt lat="42.2180240" lon="-8.7216120">
        <ele>19.2</ele>
        <time>2021-05-20T10:23:30Z</time>
      </trkpt>
      <trkpt lat="42.2180410" lon="-8.7216150">
        <ele>19.2</ele>
        <time>2021-05-20T10:23:31Z</time>
      </trkpt>
      <trkpt lat="42.2180590" lon="-8.7216090">
        <ele>19.2</ele>
        <time>2021-05-20T10:23:32Z</time>
      </trkpt>
      <trkpt lat="42.2180780" lon="-8.7216000">
        <ele>19.2</ele>
        <time>2021-05-20T10:23:33Z</time>
      </trkpt>
      <trkpt lat="42.2180870" lon="-8.7215940">
        <ele>19.2</ele>
        <time>2021-05-20T10:23:34Z</time>
      </trkpt>
      <trkpt lat="42.2180950" lon="-8.7215880">
        <ele>19.2</ele>
        <time>2021-05-20T10:23:35Z</time>
      </trkpt>
      <trkpt lat="42.2181060" lon="-8.7215830">
        <ele>19.2</ele>
        <time>2021-05-20T10:23:36Z</time>
      </trkpt>
      <trkpt lat="42.2181120" lon="-8.7215830">
        <ele>19.2</ele>
        <time>2021-05-20T10:23:37Z</time>
      </trkpt>
      <trkpt lat="42.2181140" lon="-8.7215870">
        <ele>19.2</ele>
        <time>2021-05-20T10:23:38Z</time>
      </trkpt>
      <trkpt lat="42.2181250" lon="-8.7215860">
        <ele>19.3</ele>
        <time>2021-05-20T10:23:39Z</time>
      </trkpt>
      <trkpt lat="42.2181290" lon="-8.7215730">
        <ele>19.3</ele>
        <time>2021-05-20T10:23:40Z</time>
      </trkpt>
      <trkpt lat="42.2181370" lon="-8.7215660">
        <ele>19.3</ele>
        <time>2021-05-20T10:23:41Z</time>
      </trkpt>
      <trkpt lat="42.2181440" lon="-8.7215580">
        <ele>19.3</ele>
        <time>2021-05-20T10:23:42Z</time>
      </trkpt>
      <trkpt lat="42.2181510" lon="-8.7215510">
        <ele>19.3</ele>
        <time>2021-05-20T10:23:43Z</time>
      </trkpt>
      <trkpt lat="42.2181700" lon="-8.7215410">
        <ele>19.3</ele>
        <time>2021-05-20T10:23:44Z</time>
      </trkpt>
      <trkpt lat="42.2181790" lon="-8.7215380">
        <ele>19.3</ele>
        <time>2021-05-20T10:23:45Z</time>
      </trkpt>
      <trkpt lat="42.2181870" lon="-8.7215350">
        <ele>19.3</ele>
        <time>2021-05-20T10:23:46Z</time>
      </trkpt>
      <trkpt lat="42.2182060" lon="-8.7215220">
        <ele>19.3</ele>
        <time>2021-05-20T10:23:47Z</time>
      </trkpt>
      <trkpt lat="42.2182180" lon="-8.7215080">
        <ele>19.3</ele>
        <time>2021-05-20T10:23:48Z</time>
      </trkpt>
      <trkpt lat="42.2182290" lon="-8.7214970">
        <ele>19.3</ele>
        <time>2021-05-20T10:23:49Z</time>
      </trkpt>
      <trkpt lat="42.2182340" lon="-8.7214890">
        <ele>19.4</ele>
        <time>2021-05-20T10:23:50Z</time>
      </trkpt>
      <trkpt lat="42.2182460" lon="-8.7214800">
        <ele>19.4</ele>
        <time>2021-05-20T10:23:51Z</time>
      </trkpt>
      <trkpt lat="42.2182590" lon="-8.7214590">
        <ele>19.4</ele>
        <time>2021-05-20T10:23:52Z</time>
      </trkpt>
      <trkpt lat="42.2182660" lon="-8.7214510">
        <ele>19.4</ele>
        <time>2021-05-20T10:23:53Z</time>
      </trkpt>
      <trkpt lat="42.2182720" lon="-8.7214440">
        <ele>19.4</ele>
        <time>2021-05-20T10:23:54Z</time>
      </trkpt>
      <trkpt lat="42.2182810" lon="-8.7214370">
        <ele>19.4</ele>
        <time>2021-05-20T10:23:55Z</time>
      </trkpt>
      <trkpt lat="42.2182840" lon="-8.7214380">
        <ele>19.4</ele>
        <time>2021-05-20T10:23:56Z</time>
      </trkpt>
      <trkpt lat="42.2182890" lon="-8.7214310">
        <ele>19.4</ele>
        <time>2021-05-20T10:23:57Z</time>
      </trkpt>
      <trkpt lat="42.2183010" lon="-8.7214220">
        <ele>19.4</ele>
        <time>2021-05-20T10:23:58Z</time>
      </trkpt>
      <trkpt lat="42.2183180" lon="-8.7214150">
        <ele>19.5</ele>
        <time>2021-05-20T10:23:59Z</time>
      </trkpt>
      <trkpt lat="42.2183180" lon="-8.7214090">
        <ele>19.5</ele>
        <time>2021-05-20T10:24:00Z</time>
      </trkpt>
      <trkpt lat="42.2183280" lon="-8.7214000">
        <ele>19.5</ele>
        <time>2021-05-20T10:24:01Z</time>
      </trkpt>
      <trkpt lat="42.2183440" lon="-8.7213950">
        <ele>19.5</ele>
        <time>2021-05-20T10:24:02Z</time>
      </trkpt>
      <trkpt lat="42.2183590" lon="-8.7213930">
        <ele>19.5</ele>
        <time>2021-05-20T10:24:03Z</time>
      </trkpt>
      <trkpt lat="42.2183770" lon="-8.7213870">
        <ele>19.5</ele>
        <time>2021-05-20T10:24:04Z</time>
      </trkpt>
      <trkpt lat="42.2183890" lon="-8.7213710">
        <ele>19.5</ele>
        <time>2021-05-20T10:24:05Z</time>
      </trkpt>
      <trkpt lat="42.2183910" lon="-8.7213610">
        <ele>19.5</ele>
        <time>2021-05-20T10:24:06Z</time>
      </trkpt>
      <trkpt lat="42.2184020" lon="-8.7213540">
        <ele>19.5</ele>
        <time>2021-05-20T10:24:07Z</time>
      </trkpt>
      <trkpt lat="42.2184140" lon="-8.7213510">
        <ele>19.5</ele>
        <time>2021-05-20T10:24:08Z</time>
      </trkpt>
      <trkpt lat="42.2184150" lon="-8.7213470">
        <ele>19.5</ele>
        <time>2021-05-20T10:24:09Z</time>
      </trkpt>
      <trkpt lat="42.2184240" lon="-8.7213450">
        <ele>19.6</ele>
        <time>2021-05-20T10:24:10Z</time>
      </trkpt>
      <trkpt lat="42.2184310" lon="-8.7213390">
        <ele>19.6</ele>
        <time>2021-05-20T10:24:11Z</time>
      </trkpt>
      <trkpt lat="42.2184390" lon="-8.7213300">
        <ele>19.6</ele>
        <time>2021-05-20T10:24:12Z</time>
      </trkpt>
      <trkpt lat="42.2184540" lon="-8.7213130">
        <ele>19.6</ele>
        <time>2021-05-20T10:24:13Z</time>
      </trkpt>
      <trkpt lat="42.2184620" lon="-8.7213040">
        <ele>19.6</ele>
        <time>2021-05-20T10:24:14Z</time>
      </trkpt>
      <trkpt lat="42.2184690" lon="-8.7212950">
        <ele>19.6</ele>
        <time>2021-05-20T10:24:15Z</time>
      </trkpt>
      <trkpt lat="42.2184920" lon="-8.7212730">
        <ele>19.6</ele>
        <time>2021-05-20T10:24:16Z</time>
      </trkpt>
      <trkpt lat="42.2184990" lon="-8.7212650">
        <ele>19.6</ele>
        <time>2021-05-20T10:24:17Z</time>
      </trkpt>
      <trkpt lat="42.2185260" lon="-8.7212460">
        <ele>19.6</ele>
        <time>2021-05-20T10:24:18Z</time>
      </trkpt>
      <trkpt lat="42.2185320" lon="-8.7212420">
        <ele>19.6</ele>
        <time>2021-05-20T10:24:19Z</time>
      </trkpt>
      <trkpt lat="42.2185460" lon="-8.7212400">
        <ele>19.6</ele>
        <time>2021-05-20T10:24:20Z</time>
      </trkpt>
      <trkpt lat="42.2185640" lon="-8.7212310">
        <ele>19.6</ele>
        <time>2021-05-20T10:24:21Z</time>
      </trkpt>
      <trkpt lat="42.2186050" lon="-8.7212090">
        <ele>19.6</ele>
        <time>2021-05-20T10:24:22Z</time>
      </trkpt>
      <trkpt lat="42.2186210" lon="-8.7211980">
        <ele>19.6</ele>
        <time>2021-05-20T10:24:23Z</time>
      </trkpt>
      <trkpt lat="42.2186390" lon="-8.7211860">
        <ele>19.7</ele>
        <time>2021-05-20T10:24:24Z</time>
      </trkpt>
      <trkpt lat="42.2186520" lon="-8.7211790">
        <ele>19.7</ele>
        <time>2021-05-20T10:24:25Z</time>
      </trkpt>
      <trkpt lat="42.2186720" lon="-8.7211730">
        <ele>19.7</ele>
        <time>2021-05-20T10:24:26Z</time>
      </trkpt>
      <trkpt lat="42.2186840" lon="-8.7211710">
        <ele>19.7</ele>
        <time>2021-05-20T10:24:27Z</time>
      </trkpt>
      <trkpt lat="42.2186960" lon="-8.7211730">
        <ele>19.7</ele>
        <time>2021-05-20T10:24:29Z</time>
      </trkpt>
      <trkpt lat="42.2187070" lon="-8.7211760">
        <ele>19.7</ele>
        <time>2021-05-20T10:24:30Z</time>
      </trkpt>
      <trkpt lat="42.2187150" lon="-8.7211720">
        <ele>19.7</ele>
        <time>2021-05-20T10:24:31Z</time>
      </trkpt>
      <trkpt lat="42.2187260" lon="-8.7211700">
        <ele>19.7</ele>
        <time>2021-05-20T10:24:32Z</time>
      </trkpt>
      <trkpt lat="42.2187360" lon="-8.7211670">
        <ele>19.7</ele>
        <time>2021-05-20T10:24:33Z</time>
      </trkpt>
      <trkpt lat="42.2187460" lon="-8.7211640">
        <ele>19.7</ele>
        <time>2021-05-20T10:24:34Z</time>
      </trkpt>
      <trkpt lat="42.2187630" lon="-8.7211630">
        <ele>19.7</ele>
        <time>2021-05-20T10:24:35Z</time>
      </trkpt>
      <trkpt lat="42.2187750" lon="-8.7211640">
        <ele>19.7</ele>
        <time>2021-05-20T10:24:36Z</time>
      </trkpt>
      <trkpt lat="42.2187960" lon="-8.7211700">
        <ele>19.8</ele>
        <time>2021-05-20T10:24:37Z</time>
      </trkpt>
      <trkpt lat="42.2188040" lon="-8.7211690">
        <ele>19.8</ele>
        <time>2021-05-20T10:24:38Z</time>
      </trkpt>
      <trkpt lat="42.2188240" lon="-8.7211700">
        <ele>19.8</ele>
        <time>2021-05-20T10:24:39Z</time>
      </trkpt>
      <trkpt lat="42.2188460" lon="-8.7211580">
        <ele>19.8</ele>
        <time>2021-05-20T10:24:41Z</time>
      </trkpt>
      <trkpt lat="42.2188560" lon="-8.7211520">
        <ele>19.8</ele>
        <time>2021-05-20T10:24:42Z</time>
      </trkpt>
      <trkpt lat="42.2188640" lon="-8.7211510">
        <ele>19.9</ele>
        <time>2021-05-20T10:24:43Z</time>
      </trkpt>
      <trkpt lat="42.2188770" lon="-8.7211510">
        <ele>19.9</ele>
        <time>2021-05-20T10:24:44Z</time>
      </trkpt>
      <trkpt lat="42.2188930" lon="-8.7211610">
        <ele>19.9</ele>
        <time>2021-05-20T10:24:45Z</time>
      </trkpt>
      <trkpt lat="42.2189150" lon="-8.7211700">
        <ele>19.9</ele>
        <time>2021-05-20T10:24:47Z</time>
      </trkpt>
      <trkpt lat="42.2189280" lon="-8.7211730">
        <ele>19.9</ele>
        <time>2021-05-20T10:24:48Z</time>
      </trkpt>
      <trkpt lat="42.2189420" lon="-8.7211730">
        <ele>20.0</ele>
        <time>2021-05-20T10:24:49Z</time>
      </trkpt>
      <trkpt lat="42.2189510" lon="-8.7211750">
        <ele>20.0</ele>
        <time>2021-05-20T10:24:50Z</time>
      </trkpt>
      <trkpt lat="42.2189550" lon="-8.7211850">
        <ele>20.0</ele>
        <time>2021-05-20T10:24:51Z</time>
      </trkpt>
      <trkpt lat="42.2189670" lon="-8.7211900">
        <ele>20.0</ele>
        <time>2021-05-20T10:24:52Z</time>
      </trkpt>
      <trkpt lat="42.2189810" lon="-8.7212040">
        <ele>20.0</ele>
        <time>2021-05-20T10:24:53Z</time>
      </trkpt>
      <trkpt lat="42.2189980" lon="-8.7212050">
        <ele>20.0</ele>
        <time>2021-05-20T10:24:54Z</time>
      </trkpt>
      <trkpt lat="42.2190070" lon="-8.7212040">
        <ele>20.1</ele>
        <time>2021-05-20T10:24:55Z</time>
      </trkpt>
      <trkpt lat="42.2190100" lon="-8.7212030">
        <ele>20.1</ele>
        <time>2021-05-20T10:24:56Z</time>
      </trkpt>
      <trkpt lat="42.2190230" lon="-8.7212150">
        <ele>20.1</ele>
        <time>2021-05-20T10:24:57Z</time>
      </trkpt>
      <trkpt lat="42.2190350" lon="-8.7212280">
        <ele>20.1</ele>
        <time>2021-05-20T10:24:58Z</time>
      </trkpt>
      <trkpt lat="42.2190470" lon="-8.7212370">
        <ele>20.1</ele>
        <time>2021-05-20T10:24:59Z</time>
      </trkpt>
      <trkpt lat="42.2190660" lon="-8.7212390">
        <ele>20.1</ele>
        <time>2021-05-20T10:25:00Z</time>
      </trkpt>
      <trkpt lat="42.2190840" lon="-8.7212460">
        <ele>20.1</ele>
        <time>2021-05-20T10:25:01Z</time>
      </trkpt>
      <trkpt lat="42.2190890" lon="-8.7212600">
        <ele>20.1</ele>
        <time>2021-05-20T10:25:02Z</time>
      </trkpt>
      <trkpt lat="42.2190990" lon="-8.7212650">
        <ele>20.1</ele>
        <time>2021-05-20T10:25:03Z</time>
      </trkpt>
      <trkpt lat="42.2191110" lon="-8.7212710">
        <ele>20.1</ele>
        <time>2021-05-20T10:25:04Z</time>
      </trkpt>
      <trkpt lat="42.2191180" lon="-8.7212750">
        <ele>20.1</ele>
        <time>2021-05-20T10:25:05Z</time>
      </trkpt>
      <trkpt lat="42.2191220" lon="-8.7212770">
        <ele>20.1</ele>
        <time>2021-05-20T10:25:06Z</time>
      </trkpt>
      <trkpt lat="42.2191310" lon="-8.7212780">
        <ele>20.1</ele>
        <time>2021-05-20T10:25:07Z</time>
      </trkpt>
      <trkpt lat="42.2191450" lon="-8.7212840">
        <ele>20.1</ele>
        <time>2021-05-20T10:25:08Z</time>
      </trkpt>
      <trkpt lat="42.2191610" lon="-8.7212950">
        <ele>20.2</ele>
        <time>2021-05-20T10:25:09Z</time>
      </trkpt>
      <trkpt lat="42.2191750" lon="-8.7213040">
        <ele>20.2</ele>
        <time>2021-05-20T10:25:10Z</time>
      </trkpt>
      <trkpt lat="42.2191870" lon="-8.7213140">
        <ele>20.2</ele>
        <time>2021-05-20T10:25:11Z</time>
      </trkpt>
      <trkpt lat="42.2192010" lon="-8.7213240">
        <ele>20.2</ele>
        <time>2021-05-20T10:25:12Z</time>
      </trkpt>
      <trkpt lat="42.2192150" lon="-8.7213280">
        <ele>20.2</ele>
        <time>2021-05-20T10:25:13Z</time>
      </trkpt>
      <trkpt lat="42.2192280" lon="-8.7213340">
        <ele>20.2</ele>
        <time>2021-05-20T10:25:14Z</time>
      </trkpt>
      <trkpt lat="42.2192510" lon="-8.7213420">
        <ele>20.2</ele>
        <time>2021-05-20T10:25:15Z</time>
      </trkpt>
      <trkpt lat="42.2192620" lon="-8.7213470">
        <ele>20.2</ele>
        <time>2021-05-20T10:25:16Z</time>
      </trkpt>
      <trkpt lat="42.2192740" lon="-8.7213520">
        <ele>20.2</ele>
        <time>2021-05-20T10:25:17Z</time>
      </trkpt>
      <trkpt lat="42.2192850" lon="-8.7213660">
        <ele>20.2</ele>
        <time>2021-05-20T10:25:18Z</time>
      </trkpt>
      <trkpt lat="42.2192980" lon="-8.7213690">
        <ele>20.2</ele>
        <time>2021-05-20T10:25:19Z</time>
      </trkpt>
      <trkpt lat="42.2193190" lon="-8.7213760">
        <ele>20.2</ele>
        <time>2021-05-20T10:25:20Z</time>
      </trkpt>
      <trkpt lat="42.2193290" lon="-8.7213810">
        <ele>20.2</ele>
        <time>2021-05-20T10:25:21Z</time>
      </trkpt>
      <trkpt lat="42.2193390" lon="-8.7213850">
        <ele>20.2</ele>
        <time>2021-05-20T10:25:22Z</time>
      </trkpt>
      <trkpt lat="42.2193670" lon="-8.7214040">
        <ele>20.2</ele>
        <time>2021-05-20T10:25:23Z</time>
      </trkpt>
      <trkpt lat="42.2193770" lon="-8.7214110">
        <ele>20.2</ele>
        <time>2021-05-20T10:25:24Z</time>
      </trkpt>
      <trkpt lat="42.2193930" lon="-8.7214360">
        <ele>20.2</ele>
        <time>2021-05-20T10:25:25Z</time>
      </trkpt>
      <trkpt lat="42.2194000" lon="-8.7214410">
        <ele>20.2</ele>
        <time>2021-05-20T10:25:26Z</time>
      </trkpt>
      <trkpt lat="42.2194080" lon="-8.7214450">
        <ele>20.2</ele>
        <time>2021-05-20T10:25:27Z</time>
      </trkpt>
      <trkpt lat="42.2194230" lon="-8.7214560">
        <ele>20.2</ele>
        <time>2021-05-20T10:25:28Z</time>
      </trkpt>
      <trkpt lat="42.2194300" lon="-8.7214710">
        <ele>20.2</ele>
        <time>2021-05-20T10:25:29Z</time>
      </trkpt>
      <trkpt lat="42.2194560" lon="-8.7214840">
        <ele>20.2</ele>
        <time>2021-05-20T10:25:30Z</time>
      </trkpt>
      <trkpt lat="42.2194650" lon="-8.7214900">
        <ele>20.2</ele>
        <time>2021-05-20T10:25:31Z</time>
      </trkpt>
      <trkpt lat="42.2194780" lon="-8.7214960">
        <ele>20.2</ele>
        <time>2021-05-20T10:25:32Z</time>
      </trkpt>
      <trkpt lat="42.2194920" lon="-8.7215060">
        <ele>20.2</ele>
        <time>2021-05-20T10:25:33Z</time>
      </trkpt>
      <trkpt lat="42.2195000" lon="-8.7215130">
        <ele>20.2</ele>
        <time>2021-05-20T10:25:34Z</time>
      </trkpt>
      <trkpt lat="42.2195090" lon="-8.7215120">
        <ele>20.2</ele>
        <time>2021-05-20T10:25:35Z</time>
      </trkpt>
      <trkpt lat="42.2195140" lon="-8.7215110">
        <ele>20.2</ele>
        <time>2021-05-20T10:25:36Z</time>
      </trkpt>
      <trkpt lat="42.2195210" lon="-8.7215110">
        <ele>20.2</ele>
        <time>2021-05-20T10:25:37Z</time>
      </trkpt>
      <trkpt lat="42.2195310" lon="-8.7215110">
        <ele>20.2</ele>
        <time>2021-05-20T10:25:38Z</time>
      </trkpt>
      <trkpt lat="42.2195420" lon="-8.7215100">
        <ele>20.2</ele>
        <time>2021-05-20T10:25:39Z</time>
      </trkpt>
      <trkpt lat="42.2195550" lon="-8.7215100">
        <ele>20.2</ele>
        <time>2021-05-20T10:25:40Z</time>
      </trkpt>
      <trkpt lat="42.2195580" lon="-8.7215190">
        <ele>20.2</ele>
        <time>2021-05-20T10:25:41Z</time>
      </trkpt>
      <trkpt lat="42.2195630" lon="-8.7215240">
        <ele>20.2</ele>
        <time>2021-05-20T10:25:42Z</time>
      </trkpt>
      <trkpt lat="42.2195700" lon="-8.7215200">
        <ele>20.2</ele>
        <time>2021-05-20T10:25:43Z</time>
      </trkpt>
      <trkpt lat="42.2195800" lon="-8.7215120">
        <ele>20.2</ele>
        <time>2021-05-20T10:25:44Z</time>
      </trkpt>
      <trkpt lat="42.2195910" lon="-8.7215050">
        <ele>20.2</ele>
        <time>2021-05-20T10:25:45Z</time>
      </trkpt>
      <trkpt lat="42.2196010" lon="-8.7215030">
        <ele>20.2</ele>
        <time>2021-05-20T10:25:46Z</time>
      </trkpt>
      <trkpt lat="42.2196200" lon="-8.7214980">
        <ele>20.2</ele>
        <time>2021-05-20T10:25:47Z</time>
      </trkpt>
      <trkpt lat="42.2196250" lon="-8.7214970">
        <ele>20.2</ele>
        <time>2021-05-20T10:25:48Z</time>
      </trkpt>
      <trkpt lat="42.2196270" lon="-8.7214920">
        <ele>20.2</ele>
        <time>2021-05-20T10:25:49Z</time>
      </trkpt>
      <trkpt lat="42.2196320" lon="-8.7214780">
        <ele>20.2</ele>
        <time>2021-05-20T10:25:50Z</time>
      </trkpt>
      <trkpt lat="42.2196270" lon="-8.7214610">
        <ele>20.2</ele>
        <time>2021-05-20T10:25:51Z</time>
      </trkpt>
      <trkpt lat="42.2196430" lon="-8.7214290">
        <ele>20.2</ele>
        <time>2021-05-20T10:25:52Z</time>
      </trkpt>
      <trkpt lat="42.2196490" lon="-8.7214190">
        <ele>20.3</ele>
        <time>2021-05-20T10:25:53Z</time>
      </trkpt>
      <trkpt lat="42.2196560" lon="-8.7214100">
        <ele>20.3</ele>
        <time>2021-05-20T10:25:54Z</time>
      </trkpt>
      <trkpt lat="42.2196750" lon="-8.7213800">
        <ele>20.3</ele>
        <time>2021-05-20T10:25:55Z</time>
      </trkpt>
      <trkpt lat="42.2196940" lon="-8.7213480">
        <ele>20.3</ele>
        <time>2021-05-20T10:25:56Z</time>
      </trkpt>
      <trkpt lat="42.2197000" lon="-8.7213400">
        <ele>20.3</ele>
        <time>2021-05-20T10:25:57Z</time>
      </trkpt>
      <trkpt lat="42.2197070" lon="-8.7213230">
        <ele>20.3</ele>
        <time>2021-05-20T10:25:58Z</time>
      </trkpt>
      <trkpt lat="42.2197110" lon="-8.7213120">
        <ele>20.3</ele>
        <time>2021-05-20T10:25:59Z</time>
      </trkpt>
      <trkpt lat="42.2197120" lon="-8.7213130">
        <ele>20.3</ele>
        <time>2021-05-20T10:26:00Z</time>
      </trkpt>
      <trkpt lat="42.2197180" lon="-8.7213040">
        <ele>20.3</ele>
        <time>2021-05-20T10:26:01Z</time>
      </trkpt>
      <trkpt lat="42.2197320" lon="-8.7212930">
        <ele>20.3</ele>
        <time>2021-05-20T10:26:02Z</time>
      </trkpt>
      <trkpt lat="42.2197360" lon="-8.7212710">
        <ele>20.3</ele>
        <time>2021-05-20T10:26:03Z</time>
      </trkpt>
      <trkpt lat="42.2197580" lon="-8.7212330">
        <ele>20.3</ele>
        <time>2021-05-20T10:26:04Z</time>
      </trkpt>
      <trkpt lat="42.2197660" lon="-8.7212210">
        <ele>20.3</ele>
        <time>2021-05-20T10:26:05Z</time>
      </trkpt>
      <trkpt lat="42.2197860" lon="-8.7211880">
        <ele>20.3</ele>
        <time>2021-05-20T10:26:06Z</time>
      </trkpt>
      <trkpt lat="42.2197910" lon="-8.7211750">
        <ele>20.3</ele>
        <time>2021-05-20T10:26:07Z</time>
      </trkpt>
      <trkpt lat="42.2198040" lon="-8.7211540">
        <ele>20.3</ele>
        <time>2021-05-20T10:26:08Z</time>
      </trkpt>
      <trkpt lat="42.2198070" lon="-8.7211340">
        <ele>20.3</ele>
        <time>2021-05-20T10:26:09Z</time>
      </trkpt>
      <trkpt lat="42.2198110" lon="-8.7211190">
        <ele>20.3</ele>
        <time>2021-05-20T10:26:10Z</time>
      </trkpt>
      <trkpt lat="42.2198120" lon="-8.7210950">
        <ele>20.3</ele>
        <time>2021-05-20T10:26:11Z</time>
      </trkpt>
      <trkpt lat="42.2197850" lon="-8.7210760">
        <ele>20.4</ele>
        <time>2021-05-20T10:26:12Z</time>
      </trkpt>
      <trkpt lat="42.2197800" lon="-8.7210700">
        <ele>20.4</ele>
        <time>2021-05-20T10:26:13Z</time>
      </trkpt>
      <trkpt lat="42.2197610" lon="-8.7210520">
        <ele>20.4</ele>
        <time>2021-05-20T10:26:14Z</time>
      </trkpt>
      <trkpt lat="42.2197570" lon="-8.7210400">
        <ele>20.4</ele>
        <time>2021-05-20T10:26:15Z</time>
      </trkpt>
      <trkpt lat="42.2197520" lon="-8.7210290">
        <ele>20.4</ele>
        <time>2021-05-20T10:26:16Z</time>
      </trkpt>
      <trkpt lat="42.2197440" lon="-8.7210100">
        <ele>20.4</ele>
        <time>2021-05-20T10:26:17Z</time>
      </trkpt>
      <trkpt lat="42.2197460" lon="-8.7209890">
        <ele>20.4</ele>
        <time>2021-05-20T10:26:18Z</time>
      </trkpt>
      <trkpt lat="42.2197390" lon="-8.7209750">
        <ele>20.4</ele>
        <time>2021-05-20T10:26:19Z</time>
      </trkpt>
      <trkpt lat="42.2197250" lon="-8.7209640">
        <ele>20.4</ele>
        <time>2021-05-20T10:26:20Z</time>
      </trkpt>
      <trkpt lat="42.2197270" lon="-8.7209480">
        <ele>20.4</ele>
        <time>2021-05-20T10:26:21Z</time>
      </trkpt>
      <trkpt lat="42.2197250" lon="-8.7209440">
        <ele>20.5</ele>
        <time>2021-05-20T10:26:22Z</time>
      </trkpt>
      <trkpt lat="42.2197220" lon="-8.7209370">
        <ele>20.5</ele>
        <time>2021-05-20T10:26:23Z</time>
      </trkpt>
      <trkpt lat="42.2197180" lon="-8.7209170">
        <ele>20.5</ele>
        <time>2021-05-20T10:26:24Z</time>
      </trkpt>
      <trkpt lat="42.2197130" lon="-8.7208890">
        <ele>20.5</ele>
        <time>2021-05-20T10:26:25Z</time>
      </trkpt>
      <trkpt lat="42.2197100" lon="-8.7208800">
        <ele>20.5</ele>
        <time>2021-05-20T10:26:26Z</time>
      </trkpt>
      <trkpt lat="42.2197080" lon="-8.7208700">
        <ele>20.5</ele>
        <time>2021-05-20T10:26:27Z</time>
      </trkpt>
      <trkpt lat="42.2197020" lon="-8.7208520">
        <ele>20.5</ele>
        <time>2021-05-20T10:26:28Z</time>
      </trkpt>
      <trkpt lat="42.2196890" lon="-8.7208150">
        <ele>20.5</ele>
        <time>2021-05-20T10:26:29Z</time>
      </trkpt>
      <trkpt lat="42.2196850" lon="-8.7208040">
        <ele>20.5</ele>
        <time>2021-05-20T10:26:30Z</time>
      </trkpt>
      <trkpt lat="42.2196770" lon="-8.7207950">
        <ele>20.5</ele>
        <time>2021-05-20T10:26:31Z</time>
      </trkpt>
      <trkpt lat="42.2196790" lon="-8.7207720">
        <ele>20.6</ele>
        <time>2021-05-20T10:26:32Z</time>
      </trkpt>
      <trkpt lat="42.2196770" lon="-8.7207580">
        <ele>20.6</ele>
        <time>2021-05-20T10:26:33Z</time>
      </trkpt>
      <trkpt lat="42.2196750" lon="-8.7207440">
        <ele>20.6</ele>
        <time>2021-05-20T10:26:34Z</time>
      </trkpt>
      <trkpt lat="42.2196720" lon="-8.7207180">
        <ele>20.6</ele>
        <time>2021-05-20T10:26:35Z</time>
      </trkpt>
      <trkpt lat="42.2196720" lon="-8.7207030">
        <ele>20.6</ele>
        <time>2021-05-20T10:26:36Z</time>
      </trkpt>
      <trkpt lat="42.2196710" lon="-8.7206890">
        <ele>20.6</ele>
        <time>2021-05-20T10:26:37Z</time>
      </trkpt>
      <trkpt lat="42.2196720" lon="-8.7206560">
        <ele>20.6</ele>
        <time>2021-05-20T10:26:38Z</time>
      </trkpt>
      <trkpt lat="42.2196720" lon="-8.7206520">
        <ele>20.6</ele>
        <time>2021-05-20T10:26:39Z</time>
      </trkpt>
      <trkpt lat="42.2196640" lon="-8.7206130">
        <ele>20.6</ele>
        <time>2021-05-20T10:26:40Z</time>
      </trkpt>
      <trkpt lat="42.2196580" lon="-8.7206000">
        <ele>20.6</ele>
        <time>2021-05-20T10:26:41Z</time>
      </trkpt>
      <trkpt lat="42.2196570" lon="-8.7205850">
        <ele>20.6</ele>
        <time>2021-05-20T10:26:42Z</time>
      </trkpt>
      <trkpt lat="42.2196520" lon="-8.7205590">
        <ele>20.6</ele>
        <time>2021-05-20T10:26:43Z</time>
      </trkpt>
      <trkpt lat="42.2196550" lon="-8.7205190">
        <ele>20.6</ele>
        <time>2021-05-20T10:26:44Z</time>
      </trkpt>
      <trkpt lat="42.2196560" lon="-8.7205000">
        <ele>20.6</ele>
        <time>2021-05-20T10:26:45Z</time>
      </trkpt>
      <trkpt lat="42.2196450" lon="-8.7204780">
        <ele>20.6</ele>
        <time>2021-05-20T10:26:46Z</time>
      </trkpt>
      <trkpt lat="42.2196420" lon="-8.7204400">
        <ele>20.6</ele>
        <time>2021-05-20T10:26:47Z</time>
      </trkpt>
      <trkpt lat="42.2196440" lon="-8.7204260">
        <ele>20.6</ele>
        <time>2021-05-20T10:26:48Z</time>
      </trkpt>
      <trkpt lat="42.2196320" lon="-8.7204010">
        <ele>20.7</ele>
        <time>2021-05-20T10:26:49Z</time>
      </trkpt>
      <trkpt lat="42.2196260" lon="-8.7203910">
        <ele>20.7</ele>
        <time>2021-05-20T10:26:50Z</time>
      </trkpt>
      <trkpt lat="42.2196200" lon="-8.7203820">
        <ele>20.7</ele>
        <time>2021-05-20T10:26:51Z</time>
      </trkpt>
      <trkpt lat="42.2196120" lon="-8.7203680">
        <ele>20.7</ele>
        <time>2021-05-20T10:26:52Z</time>
      </trkpt>
      <trkpt lat="42.2196080" lon="-8.7203590">
        <ele>20.7</ele>
        <time>2021-05-20T10:26:53Z</time>
      </trkpt>
      <trkpt lat="42.2196030" lon="-8.7203410">
        <ele>20.7</ele>
        <time>2021-05-20T10:26:54Z</time>
      </trkpt>
      <trkpt lat="42.2195990" lon="-8.7203160">
        <ele>20.7</ele>
        <time>2021-05-20T10:26:55Z</time>
      </trkpt>
      <trkpt lat="42.2195980" lon="-8.7203020">
        <ele>20.7</ele>
        <time>2021-05-20T10:26:56Z</time>
      </trkpt>
      <trkpt lat="42.2195970" lon="-8.7202870">
        <ele>20.7</ele>
        <time>2021-05-20T10:26:57Z</time>
      </trkpt>
      <trkpt lat="42.2196030" lon="-8.7202740">
        <ele>20.7</ele>
        <time>2021-05-20T10:26:58Z</time>
      </trkpt>
      <trkpt lat="42.2196020" lon="-8.7202590">
        <ele>20.7</ele>
        <time>2021-05-20T10:26:59Z</time>
      </trkpt>
      <trkpt lat="42.2195960" lon="-8.7202410">
        <ele>20.7</ele>
        <time>2021-05-20T10:27:00Z</time>
      </trkpt>
      <trkpt lat="42.2195870" lon="-8.7202300">
        <ele>20.7</ele>
        <time>2021-05-20T10:27:01Z</time>
      </trkpt>
      <trkpt lat="42.2195780" lon="-8.7202250">
        <ele>20.7</ele>
        <time>2021-05-20T10:27:02Z</time>
      </trkpt>
      <trkpt lat="42.2195740" lon="-8.7202120">
        <ele>20.7</ele>
        <time>2021-05-20T10:27:03Z</time>
      </trkpt>
      <trkpt lat="42.2195570" lon="-8.7201950">
        <ele>20.7</ele>
        <time>2021-05-20T10:27:04Z</time>
      </trkpt>
      <trkpt lat="42.2195500" lon="-8.7201860">
        <ele>20.8</ele>
        <time>2021-05-20T10:27:05Z</time>
      </trkpt>
      <trkpt lat="42.2195380" lon="-8.7201780">
        <ele>20.8</ele>
        <time>2021-05-20T10:27:06Z</time>
      </trkpt>
      <trkpt lat="42.2195270" lon="-8.7201630">
        <ele>20.8</ele>
        <time>2021-05-20T10:27:07Z</time>
      </trkpt>
      <trkpt lat="42.2195130" lon="-8.7201420">
        <ele>20.8</ele>
        <time>2021-05-20T10:27:08Z</time>
      </trkpt>
      <trkpt lat="42.2195050" lon="-8.7201300">
        <ele>20.8</ele>
        <time>2021-05-20T10:27:09Z</time>
      </trkpt>
      <trkpt lat="42.2195030" lon="-8.7201100">
        <ele>20.8</ele>
        <time>2021-05-20T10:27:10Z</time>
      </trkpt>
      <trkpt lat="42.2194990" lon="-8.7201050">
        <ele>20.8</ele>
        <time>2021-05-20T10:27:11Z</time>
      </trkpt>
      <trkpt lat="42.2194860" lon="-8.7200890">
        <ele>20.9</ele>
        <time>2021-05-20T10:27:12Z</time>
      </trkpt>
      <trkpt lat="42.2194710" lon="-8.7200690">
        <ele>20.9</ele>
        <time>2021-05-20T10:27:13Z</time>
      </trkpt>
      <trkpt lat="42.2194730" lon="-8.7200520">
        <ele>20.9</ele>
        <time>2021-05-20T10:27:14Z</time>
      </trkpt>
      <trkpt lat="42.2194620" lon="-8.7200330">
        <ele>20.9</ele>
        <time>2021-05-20T10:27:15Z</time>
      </trkpt>
      <trkpt lat="42.2194590" lon="-8.7200260">
        <ele>20.9</ele>
        <time>2021-05-20T10:27:16Z</time>
      </trkpt>
      <trkpt lat="42.2194560" lon="-8.7200180">
        <ele>20.9</ele>
        <time>2021-05-20T10:27:17Z</time>
      </trkpt>
      <trkpt lat="42.2194530" lon="-8.7200110">
        <ele>21.0</ele>
        <time>2021-05-20T10:27:18Z</time>
      </trkpt>
      <trkpt lat="42.2194480" lon="-8.7199950">
        <ele>21.0</ele>
        <time>2021-05-20T10:27:19Z</time>
      </trkpt>
      <trkpt lat="42.2194460" lon="-8.7199820">
        <ele>21.0</ele>
        <time>2021-05-20T10:27:20Z</time>
      </trkpt>
      <trkpt lat="42.2194410" lon="-8.7199680">
        <ele>21.0</ele>
        <time>2021-05-20T10:27:21Z</time>
      </trkpt>
      <trkpt lat="42.2194360" lon="-8.7199550">
        <ele>21.0</ele>
        <time>2021-05-20T10:27:22Z</time>
      </trkpt>
      <trkpt lat="42.2194330" lon="-8.7199380">
        <ele>21.0</ele>
        <time>2021-05-20T10:27:23Z</time>
      </trkpt>
      <trkpt lat="42.2194260" lon="-8.7199340">
        <ele>21.0</ele>
        <time>2021-05-20T10:27:24Z</time>
      </trkpt>
      <trkpt lat="42.2194250" lon="-8.7199170">
        <ele>21.1</ele>
        <time>2021-05-20T10:27:25Z</time>
      </trkpt>
      <trkpt lat="42.2194230" lon="-8.7199180">
        <ele>21.1</ele>
        <time>2021-05-20T10:27:27Z</time>
      </trkpt>
      <trkpt lat="42.2194150" lon="-8.7199110">
        <ele>21.1</ele>
        <time>2021-05-20T10:27:28Z</time>
      </trkpt>
      <trkpt lat="42.2194110" lon="-8.7199080">
        <ele>21.1</ele>
        <time>2021-05-20T10:27:29Z</time>
      </trkpt>
      <trkpt lat="42.2194080" lon="-8.7199040">
        <ele>21.1</ele>
        <time>2021-05-20T10:27:30Z</time>
      </trkpt>
      <trkpt lat="42.2193940" lon="-8.7198920">
        <ele>21.1</ele>
        <time>2021-05-20T10:27:31Z</time>
      </trkpt>
      <trkpt lat="42.2193860" lon="-8.7198880">
        <ele>21.1</ele>
        <time>2021-05-20T10:27:32Z</time>
      </trkpt>
      <trkpt lat="42.2193780" lon="-8.7198850">
        <ele>21.1</ele>
        <time>2021-05-20T10:27:33Z</time>
      </trkpt>
      <trkpt lat="42.2193700" lon="-8.7198820">
        <ele>21.1</ele>
        <time>2021-05-20T10:27:34Z</time>
      </trkpt>
      <trkpt lat="42.2193530" lon="-8.7198690">
        <ele>21.2</ele>
        <time>2021-05-20T10:27:35Z</time>
      </trkpt>
      <trkpt lat="42.2193440" lon="-8.7198640">
        <ele>21.2</ele>
        <time>2021-05-20T10:27:36Z</time>
      </trkpt>
      <trkpt lat="42.2193340" lon="-8.7198580">
        <ele>21.2</ele>
        <time>2021-05-20T10:27:37Z</time>
      </trkpt>
      <trkpt lat="42.2193040" lon="-8.7198510">
        <ele>21.2</ele>
        <time>2021-05-20T10:27:38Z</time>
      </trkpt>
      <trkpt lat="42.2192930" lon="-8.7198470">
        <ele>21.3</ele>
        <time>2021-05-20T10:27:39Z</time>
      </trkpt>
      <trkpt lat="42.2192780" lon="-8.7198290">
        <ele>21.3</ele>
        <time>2021-05-20T10:27:40Z</time>
      </trkpt>
      <trkpt lat="42.2192720" lon="-8.7198200">
        <ele>21.3</ele>
        <time>2021-05-20T10:27:41Z</time>
      </trkpt>
      <trkpt lat="42.2192650" lon="-8.7198120">
        <ele>21.3</ele>
        <time>2021-05-20T10:27:42Z</time>
      </trkpt>
      <trkpt lat="42.2192560" lon="-8.7198080">
        <ele>21.3</ele>
        <time>2021-05-20T10:27:43Z</time>
      </trkpt>
      <trkpt lat="42.2192490" lon="-8.7198000">
        <ele>21.3</ele>
        <time>2021-05-20T10:27:44Z</time>
      </trkpt>
      <trkpt lat="42.2192420" lon="-8.7197940">
        <ele>21.3</ele>
        <time>2021-05-20T10:27:45Z</time>
      </trkpt>
      <trkpt lat="42.2192390" lon="-8.7197850">
        <ele>21.4</ele>
        <time>2021-05-20T10:27:46Z</time>
      </trkpt>
      <trkpt lat="42.2192460" lon="-8.7197810">
        <ele>21.4</ele>
        <time>2021-05-20T10:27:47Z</time>
      </trkpt>
      <trkpt lat="42.2192470" lon="-8.7197770">
        <ele>21.4</ele>
        <time>2021-05-20T10:27:48Z</time>
      </trkpt>
      <trkpt lat="42.2192500" lon="-8.7197730">
        <ele>21.4</ele>
        <time>2021-05-20T10:27:49Z</time>
      </trkpt>
      <trkpt lat="42.2192440" lon="-8.7197740">
        <ele>21.4</ele>
        <time>2021-05-20T10:27:50Z</time>
      </trkpt>
      <trkpt lat="42.2192430" lon="-8.7197770">
        <ele>21.4</ele>
        <time>2021-05-20T10:27:51Z</time>
      </trkpt>
      <trkpt lat="42.2192420" lon="-8.7197690">
        <ele>21.4</ele>
        <time>2021-05-20T10:27:52Z</time>
      </trkpt>
      <trkpt lat="42.2192440" lon="-8.7197660">
        <ele>21.4</ele>
        <time>2021-05-20T10:27:53Z</time>
      </trkpt>
      <trkpt lat="42.2192450" lon="-8.7197530">
        <ele>21.4</ele>
        <time>2021-05-20T10:27:54Z</time>
      </trkpt>
      <trkpt lat="42.2192390" lon="-8.7197470">
        <ele>21.4</ele>
        <time>2021-05-20T10:27:55Z</time>
      </trkpt>
      <trkpt lat="42.2192320" lon="-8.7197400">
        <ele>21.4</ele>
        <time>2021-05-20T10:27:56Z</time>
      </trkpt>
      <trkpt lat="42.2192320" lon="-8.7197360">
        <ele>21.4</ele>
        <time>2021-05-20T10:27:57Z</time>
      </trkpt>
      <trkpt lat="42.2192250" lon="-8.7197270">
        <ele>21.5</ele>
        <time>2021-05-20T10:27:58Z</time>
      </trkpt>
      <trkpt lat="42.2192300" lon="-8.7197070">
        <ele>21.5</ele>
        <time>2021-05-20T10:27:59Z</time>
      </trkpt>
      <trkpt lat="42.2192230" lon="-8.7196950">
        <ele>21.5</ele>
        <time>2021-05-20T10:28:00Z</time>
      </trkpt>
      <trkpt lat="42.2192030" lon="-8.7196910">
        <ele>21.5</ele>
        <time>2021-05-20T10:28:01Z</time>
      </trkpt>
      <trkpt lat="42.2191900" lon="-8.7196850">
        <ele>21.6</ele>
        <time>2021-05-20T10:28:02Z</time>
      </trkpt>
      <trkpt lat="42.2191850" lon="-8.7196810">
        <ele>21.6</ele>
        <time>2021-05-20T10:28:03Z</time>
      </trkpt>
      <trkpt lat="42.2191800" lon="-8.7196780">
        <ele>21.6</ele>
        <time>2021-05-20T10:28:04Z</time>
      </trkpt>
      <trkpt lat="42.2191750" lon="-8.7196740">
        <ele>21.6</ele>
        <time>2021-05-20T10:28:05Z</time>
      </trkpt>
      <trkpt lat="42.2191700" lon="-8.7196700">
        <ele>21.6</ele>
        <time>2021-05-20T10:28:06Z</time>
      </trkpt>
      <trkpt lat="42.2191640" lon="-8.7196640">
        <ele>21.6</ele>
        <time>2021-05-20T10:28:07Z</time>
      </trkpt>
      <trkpt lat="42.2191740" lon="-8.7196550">
        <ele>21.6</ele>
        <time>2021-05-20T10:28:08Z</time>
      </trkpt>
      <trkpt lat="42.2191680" lon="-8.7196460">
        <ele>21.6</ele>
        <time>2021-05-20T10:28:09Z</time>
      </trkpt>
      <trkpt lat="42.2191710" lon="-8.7196420">
        <ele>21.6</ele>
        <time>2021-05-20T10:28:10Z</time>
      </trkpt>
      <trkpt lat="42.2191750" lon="-8.7196310">
        <ele>21.6</ele>
        <time>2021-05-20T10:28:11Z</time>
      </trkpt>
      <trkpt lat="42.2191830" lon="-8.7196210">
        <ele>21.7</ele>
        <time>2021-05-20T10:28:12Z</time>
      </trkpt>
      <trkpt lat="42.2191820" lon="-8.7196210">
        <ele>21.7</ele>
        <time>2021-05-20T10:28:13Z</time>
      </trkpt>
      <trkpt lat="42.2191700" lon="-8.7196180">
        <ele>21.7</ele>
        <time>2021-05-20T10:28:14Z</time>
      </trkpt>
      <trkpt lat="42.2191600" lon="-8.7196280">
        <ele>21.7</ele>
        <time>2021-05-20T10:28:15Z</time>
      </trkpt>
      <trkpt lat="42.2191600" lon="-8.7196270">
        <ele>21.7</ele>
        <time>2021-05-20T10:28:16Z</time>
      </trkpt>
      <trkpt lat="42.2191690" lon="-8.7196250">
        <ele>21.7</ele>
        <time>2021-05-20T10:28:17Z</time>
      </trkpt>
      <trkpt lat="42.2191860" lon="-8.7196170">
        <ele>21.7</ele>
        <time>2021-05-20T10:28:18Z</time>
      </trkpt>
      <trkpt lat="42.2191950" lon="-8.7196120">
        <ele>21.8</ele>
        <time>2021-05-20T10:28:19Z</time>
      </trkpt>
      <trkpt lat="42.2191890" lon="-8.7196110">
        <ele>21.8</ele>
        <time>2021-05-20T10:28:20Z</time>
      </trkpt>
      <trkpt lat="42.2191870" lon="-8.7195990">
        <ele>21.8</ele>
        <time>2021-05-20T10:28:21Z</time>
      </trkpt>
      <trkpt lat="42.2191640" lon="-8.7196000">
        <ele>21.8</ele>
        <time>2021-05-20T10:28:22Z</time>
      </trkpt>
      <trkpt lat="42.2191500" lon="-8.7195990">
        <ele>21.8</ele>
        <time>2021-05-20T10:28:23Z</time>
      </trkpt>
      <trkpt lat="42.2190910" lon="-8.7196420">
        <ele>21.9</ele>
        <time>2021-05-20T10:28:24Z</time>
      </trkpt>
      <trkpt lat="42.2190870" lon="-8.7196530">
        <ele>21.9</ele>
        <time>2021-05-20T10:28:25Z</time>
      </trkpt>
      <trkpt lat="42.2190910" lon="-8.7196640">
        <ele>21.9</ele>
        <time>2021-05-20T10:28:26Z</time>
      </trkpt>
      <trkpt lat="42.2191010" lon="-8.7196570">
        <ele>21.9</ele>
        <time>2021-05-20T10:28:27Z</time>
      </trkpt>
      <trkpt lat="42.2191140" lon="-8.7196510">
        <ele>21.9</ele>
        <time>2021-05-20T10:28:28Z</time>
      </trkpt>
      <trkpt lat="42.2191180" lon="-8.7196300">
        <ele>21.9</ele>
        <time>2021-05-20T10:28:29Z</time>
      </trkpt>
      <trkpt lat="42.2191130" lon="-8.7196160">
        <ele>22.0</ele>
        <time>2021-05-20T10:28:30Z</time>
      </trkpt>
      <trkpt lat="42.2191130" lon="-8.7196160">
        <ele>22.0</ele>
        <time>2021-05-20T10:28:31Z</time>
      </trkpt>
      <trkpt lat="42.2191330" lon="-8.7196080">
        <ele>22.0</ele>
        <time>2021-05-20T10:28:32Z</time>
      </trkpt>
      <trkpt lat="42.2191380" lon="-8.7196050">
        <ele>22.0</ele>
        <time>2021-05-20T10:28:33Z</time>
      </trkpt>
      <trkpt lat="42.2191290" lon="-8.7195960">
        <ele>22.0</ele>
        <time>2021-05-20T10:28:34Z</time>
      </trkpt>
      <trkpt lat="42.2191300" lon="-8.7195790">
        <ele>22.0</ele>
        <time>2021-05-20T10:28:35Z</time>
      </trkpt>
      <trkpt lat="42.2191300" lon="-8.7195790">
        <ele>22.0</ele>
        <time>2021-05-20T10:28:36Z</time>
      </trkpt>
      <trkpt lat="42.2191290" lon="-8.7195630">
        <ele>22.0</ele>
        <time>2021-05-20T10:28:37Z</time>
      </trkpt>
      <trkpt lat="42.2191310" lon="-8.7195580">
        <ele>22.0</ele>
        <time>2021-05-20T10:28:38Z</time>
      </trkpt>
      <trkpt lat="42.2191450" lon="-8.7195440">
        <ele>22.0</ele>
        <time>2021-05-20T10:28:39Z</time>
      </trkpt>
      <trkpt lat="42.2191580" lon="-8.7195310">
        <ele>22.0</ele>
        <time>2021-05-20T10:28:40Z</time>
      </trkpt>
      <trkpt lat="42.2191710" lon="-8.7195200">
        <ele>22.1</ele>
        <time>2021-05-20T10:28:41Z</time>
      </trkpt>
      <trkpt lat="42.2191800" lon="-8.7195270">
        <ele>22.1</ele>
        <time>2021-05-20T10:28:42Z</time>
      </trkpt>
      <trkpt lat="42.2191930" lon="-8.7195210">
        <ele>22.1</ele>
        <time>2021-05-20T10:28:43Z</time>
      </trkpt>
      <trkpt lat="42.2192130" lon="-8.7195280">
        <ele>22.1</ele>
        <time>2021-05-20T10:28:44Z</time>
      </trkpt>
      <trkpt lat="42.2192180" lon="-8.7195390">
        <ele>22.1</ele>
        <time>2021-05-20T10:28:45Z</time>
      </trkpt>
      <trkpt lat="42.2192180" lon="-8.7195500">
        <ele>22.1</ele>
        <time>2021-05-20T10:28:46Z</time>
      </trkpt>
      <trkpt lat="42.2192220" lon="-8.7195580">
        <ele>22.1</ele>
        <time>2021-05-20T10:28:47Z</time>
      </trkpt>
      <trkpt lat="42.2192110" lon="-8.7195710">
        <ele>22.1</ele>
        <time>2021-05-20T10:28:48Z</time>
      </trkpt>
      <trkpt lat="42.2191990" lon="-8.7195770">
        <ele>22.1</ele>
        <time>2021-05-20T10:28:49Z</time>
      </trkpt>
      <trkpt lat="42.2191980" lon="-8.7195840">
        <ele>22.2</ele>
        <time>2021-05-20T10:28:50Z</time>
      </trkpt>
      <trkpt lat="42.2191880" lon="-8.7196040">
        <ele>22.2</ele>
        <time>2021-05-20T10:28:51Z</time>
      </trkpt>
      <trkpt lat="42.2191780" lon="-8.7196150">
        <ele>22.2</ele>
        <time>2021-05-20T10:28:52Z</time>
      </trkpt>
      <trkpt lat="42.2191630" lon="-8.7196230">
        <ele>22.2</ele>
        <time>2021-05-20T10:28:53Z</time>
      </trkpt>
      <trkpt lat="42.2191550" lon="-8.7196260">
        <ele>22.2</ele>
        <time>2021-05-20T10:28:54Z</time>
      </trkpt>
      <trkpt lat="42.2191670" lon="-8.7196150">
        <ele>22.2</ele>
        <time>2021-05-20T10:28:55Z</time>
      </trkpt>
      <trkpt lat="42.2191510" lon="-8.7196220">
        <ele>22.3</ele>
        <time>2021-05-20T10:28:56Z</time>
      </trkpt>
      <trkpt lat="42.2191330" lon="-8.7196140">
        <ele>22.3</ele>
        <time>2021-05-20T10:28:57Z</time>
      </trkpt>
      <trkpt lat="42.2191260" lon="-8.7196130">
        <ele>22.3</ele>
        <time>2021-05-20T10:28:58Z</time>
      </trkpt>
      <trkpt lat="42.2191350" lon="-8.7196270">
        <ele>22.3</ele>
        <time>2021-05-20T10:28:59Z</time>
      </trkpt>
      <trkpt lat="42.2191410" lon="-8.7196430">
        <ele>22.3</ele>
        <time>2021-05-20T10:29:00Z</time>
      </trkpt>
      <trkpt lat="42.2191440" lon="-8.7196450">
        <ele>22.3</ele>
        <time>2021-05-20T10:29:01Z</time>
      </trkpt>
      <trkpt lat="42.2191410" lon="-8.7196470">
        <ele>22.4</ele>
        <time>2021-05-20T10:29:02Z</time>
      </trkpt>
      <trkpt lat="42.2191440" lon="-8.7196480">
        <ele>22.4</ele>
        <time>2021-05-20T10:29:03Z</time>
      </trkpt>
      <trkpt lat="42.2191300" lon="-8.7196520">
        <ele>22.4</ele>
        <time>2021-05-20T10:29:04Z</time>
      </trkpt>
      <trkpt lat="42.2191210" lon="-8.7196620">
        <ele>22.4</ele>
        <time>2021-05-20T10:29:05Z</time>
      </trkpt>
      <trkpt lat="42.2191120" lon="-8.7196540">
        <ele>22.4</ele>
        <time>2021-05-20T10:29:06Z</time>
      </trkpt>
      <trkpt lat="42.2191070" lon="-8.7196570">
        <ele>22.4</ele>
        <time>2021-05-20T10:29:07Z</time>
      </trkpt>
      <trkpt lat="42.2191070" lon="-8.7196530">
        <ele>22.4</ele>
        <time>2021-05-20T10:29:08Z</time>
      </trkpt>
      <trkpt lat="42.2191050" lon="-8.7196550">
        <ele>22.4</ele>
        <time>2021-05-20T10:29:09Z</time>
      </trkpt>
      <trkpt lat="42.2191010" lon="-8.7196490">
        <ele>22.4</ele>
        <time>2021-05-20T10:29:11Z</time>
      </trkpt>
      <trkpt lat="42.2190950" lon="-8.7196550">
        <ele>22.4</ele>
        <time>2021-05-20T10:29:12Z</time>
      </trkpt>
      <trkpt lat="42.2190740" lon="-8.7196710">
        <ele>22.5</ele>
        <time>2021-05-20T10:29:13Z</time>
      </trkpt>
      <trkpt lat="42.2190630" lon="-8.7196750">
        <ele>22.5</ele>
        <time>2021-05-20T10:29:14Z</time>
      </trkpt>
      <trkpt lat="42.2190720" lon="-8.7196780">
        <ele>22.5</ele>
        <time>2021-05-20T10:29:15Z</time>
      </trkpt>
      <trkpt lat="42.2190880" lon="-8.7196770">
        <ele>22.5</ele>
        <time>2021-05-20T10:29:16Z</time>
      </trkpt>
      <trkpt lat="42.2191040" lon="-8.7196740">
        <ele>22.6</ele>
        <time>2021-05-20T10:29:17Z</time>
      </trkpt>
      <trkpt lat="42.2190870" lon="-8.7196700">
        <ele>22.6</ele>
        <time>2021-05-20T10:29:18Z</time>
      </trkpt>
      <trkpt lat="42.2190720" lon="-8.7196660">
        <ele>22.6</ele>
        <time>2021-05-20T10:29:19Z</time>
      </trkpt>
      <trkpt lat="42.2190540" lon="-8.7196570">
        <ele>22.6</ele>
        <time>2021-05-20T10:29:20Z</time>
      </trkpt>
      <trkpt lat="42.2190470" lon="-8.7196540">
        <ele>22.7</ele>
        <time>2021-05-20T10:29:21Z</time>
      </trkpt>
      <trkpt lat="42.2190410" lon="-8.7196500">
        <ele>22.7</ele>
        <time>2021-05-20T10:29:22Z</time>
      </trkpt>
      <trkpt lat="42.2190340" lon="-8.7196470">
        <ele>22.7</ele>
        <time>2021-05-20T10:29:23Z</time>
      </trkpt>
      <trkpt lat="42.2190250" lon="-8.7196460">
        <ele>22.7</ele>
        <time>2021-05-20T10:29:24Z</time>
      </trkpt>
      <trkpt lat="42.2190170" lon="-8.7196480">
        <ele>22.7</ele>
        <time>2021-05-20T10:29:25Z</time>
      </trkpt>
      <trkpt lat="42.2190100" lon="-8.7196500">
        <ele>22.7</ele>
        <time>2021-05-20T10:29:26Z</time>
      </trkpt>
      <trkpt lat="42.2190020" lon="-8.7196520">
        <ele>22.7</ele>
        <time>2021-05-20T10:29:27Z</time>
      </trkpt>
      <trkpt lat="42.2189950" lon="-8.7196540">
        <ele>22.7</ele>
        <time>2021-05-20T10:29:28Z</time>
      </trkpt>
      <trkpt lat="42.2189930" lon="-8.7196540">
        <ele>22.7</ele>
        <time>2021-05-20T10:29:29Z</time>
      </trkpt>
      <trkpt lat="42.2189620" lon="-8.7196650">
        <ele>22.8</ele>
        <time>2021-05-20T10:29:30Z</time>
      </trkpt>
      <trkpt lat="42.2189590" lon="-8.7196640">
        <ele>22.8</ele>
        <time>2021-05-20T10:29:31Z</time>
      </trkpt>
      <trkpt lat="42.2189500" lon="-8.7196600">
        <ele>22.8</ele>
        <time>2021-05-20T10:29:32Z</time>
      </trkpt>
      <trkpt lat="42.2189470" lon="-8.7196580">
        <ele>22.8</ele>
        <time>2021-05-20T10:29:33Z</time>
      </trkpt>
      <trkpt lat="42.2189470" lon="-8.7196620">
        <ele>22.8</ele>
        <time>2021-05-20T10:29:34Z</time>
      </trkpt>
      <trkpt lat="42.2189580" lon="-8.7196590">
        <ele>22.8</ele>
        <time>2021-05-20T10:29:35Z</time>
      </trkpt>
      <trkpt lat="42.2189540" lon="-8.7196620">
        <ele>22.8</ele>
        <time>2021-05-20T10:29:36Z</time>
      </trkpt>
      <trkpt lat="42.2189510" lon="-8.7196620">
        <ele>22.8</ele>
        <time>2021-05-20T10:29:37Z</time>
      </trkpt>
      <trkpt lat="42.2189540" lon="-8.7196570">
        <ele>22.8</ele>
        <time>2021-05-20T10:29:38Z</time>
      </trkpt>
      <trkpt lat="42.2189730" lon="-8.7196510">
        <ele>22.9</ele>
        <time>2021-05-20T10:29:39Z</time>
      </trkpt>
      <trkpt lat="42.2189730" lon="-8.7196480">
        <ele>22.9</ele>
        <time>2021-05-20T10:29:40Z</time>
      </trkpt>
      <trkpt lat="42.2189840" lon="-8.7196420">
        <ele>22.9</ele>
        <time>2021-05-20T10:29:41Z</time>
      </trkpt>
      <trkpt lat="42.2189770" lon="-8.7196470">
        <ele>22.9</ele>
        <time>2021-05-20T10:29:42Z</time>
      </trkpt>
      <trkpt lat="42.2189770" lon="-8.7196420">
        <ele>22.9</ele>
        <time>2021-05-20T10:29:43Z</time>
      </trkpt>
      <trkpt lat="42.2189890" lon="-8.7196280">
        <ele>22.9</ele>
        <time>2021-05-20T10:29:44Z</time>
      </trkpt>
      <trkpt lat="42.2189950" lon="-8.7196190">
        <ele>22.9</ele>
        <time>2021-05-20T10:29:45Z</time>
      </trkpt>
      <trkpt lat="42.2189910" lon="-8.7196250">
        <ele>22.9</ele>
        <time>2021-05-20T10:29:46Z</time>
      </trkpt>
      <trkpt lat="42.2189900" lon="-8.7196200">
        <ele>22.9</ele>
        <time>2021-05-20T10:29:47Z</time>
      </trkpt>
      <trkpt lat="42.2189910" lon="-8.7196180">
        <ele>22.9</ele>
        <time>2021-05-20T10:29:48Z</time>
      </trkpt>
      <trkpt lat="42.2189940" lon="-8.7196130">
        <ele>23.0</ele>
        <time>2021-05-20T10:29:49Z</time>
      </trkpt>
      <trkpt lat="42.2189910" lon="-8.7196100">
        <ele>23.0</ele>
        <time>2021-05-20T10:29:50Z</time>
      </trkpt>
      <trkpt lat="42.2189850" lon="-8.7196050">
        <ele>23.0</ele>
        <time>2021-05-20T10:29:51Z</time>
      </trkpt>
      <trkpt lat="42.2190050" lon="-8.7195930">
        <ele>23.0</ele>
        <time>2021-05-20T10:29:52Z</time>
      </trkpt>
      <trkpt lat="42.2190050" lon="-8.7195920">
        <ele>23.0</ele>
        <time>2021-05-20T10:29:53Z</time>
      </trkpt>
      <trkpt lat="42.2190180" lon="-8.7195910">
        <ele>23.0</ele>
        <time>2021-05-20T10:29:54Z</time>
      </trkpt>
      <trkpt lat="42.2190380" lon="-8.7195760">
        <ele>23.0</ele>
        <time>2021-05-20T10:29:55Z</time>
      </trkpt>
      <trkpt lat="42.2190540" lon="-8.7195690">
        <ele>23.0</ele>
        <time>2021-05-20T10:29:56Z</time>
      </trkpt>
      <trkpt lat="42.2190510" lon="-8.7195680">
        <ele>23.1</ele>
        <time>2021-05-20T10:29:57Z</time>
      </trkpt>
      <trkpt lat="42.2190530" lon="-8.7195490">
        <ele>23.1</ele>
        <time>2021-05-20T10:29:58Z</time>
      </trkpt>
      <trkpt lat="42.2190440" lon="-8.7195390">
        <ele>23.1</ele>
        <time>2021-05-20T10:29:59Z</time>
      </trkpt>
      <trkpt lat="42.2190490" lon="-8.7195330">
        <ele>23.1</ele>
        <time>2021-05-20T10:30:00Z</time>
      </trkpt>
      <trkpt lat="42.2190590" lon="-8.7195340">
        <ele>23.1</ele>
        <time>2021-05-20T10:30:01Z</time>
      </trkpt>
      <trkpt lat="42.2190630" lon="-8.7195170">
        <ele>23.1</ele>
        <time>2021-05-20T10:30:02Z</time>
      </trkpt>
      <trkpt lat="42.2190640" lon="-8.7194930">
        <ele>23.1</ele>
        <time>2021-05-20T10:30:03Z</time>
      </trkpt>
      <trkpt lat="42.2190600" lon="-8.7194960">
        <ele>23.1</ele>
        <time>2021-05-20T10:30:04Z</time>
      </trkpt>
      <trkpt lat="42.2190580" lon="-8.7194840">
        <ele>23.1</ele>
        <time>2021-05-20T10:30:05Z</time>
      </trkpt>
      <trkpt lat="42.2190550" lon="-8.7194860">
        <ele>23.1</ele>
        <time>2021-05-20T10:30:06Z</time>
      </trkpt>
      <trkpt lat="42.2190540" lon="-8.7194870">
        <ele>23.1</ele>
        <time>2021-05-20T10:30:07Z</time>
      </trkpt>
      <trkpt lat="42.2190480" lon="-8.7194710">
        <ele>23.2</ele>
        <time>2021-05-20T10:30:08Z</time>
      </trkpt>
      <trkpt lat="42.2190450" lon="-8.7194670">
        <ele>23.2</ele>
        <time>2021-05-20T10:30:09Z</time>
      </trkpt>
      <trkpt lat="42.2190390" lon="-8.7194620">
        <ele>23.2</ele>
        <time>2021-05-20T10:30:10Z</time>
      </trkpt>
      <trkpt lat="42.2190410" lon="-8.7194500">
        <ele>23.2</ele>
        <time>2021-05-20T10:30:11Z</time>
      </trkpt>
      <trkpt lat="42.2190370" lon="-8.7194440">
        <ele>23.2</ele>
        <time>2021-05-20T10:30:12Z</time>
      </trkpt>
      <trkpt lat="42.2190320" lon="-8.7194340">
        <ele>23.2</ele>
        <time>2021-05-20T10:30:13Z</time>
      </trkpt>
      <trkpt lat="42.2190260" lon="-8.7194340">
        <ele>23.2</ele>
        <time>2021-05-20T10:30:14Z</time>
      </trkpt>
      <trkpt lat="42.2190250" lon="-8.7194340">
        <ele>23.2</ele>
        <time>2021-05-20T10:30:15Z</time>
      </trkpt>
      <trkpt lat="42.2190250" lon="-8.7194230">
        <ele>23.2</ele>
        <time>2021-05-20T10:30:16Z</time>
      </trkpt>
      <trkpt lat="42.2190170" lon="-8.7193990">
        <ele>23.2</ele>
        <time>2021-05-20T10:30:17Z</time>
      </trkpt>
      <trkpt lat="42.2190110" lon="-8.7193910">
        <ele>23.2</ele>
        <time>2021-05-20T10:30:18Z</time>
      </trkpt>
      <trkpt lat="42.2190090" lon="-8.7193820">
        <ele>23.2</ele>
        <time>2021-05-20T10:30:19Z</time>
      </trkpt>
      <trkpt lat="42.2189970" lon="-8.7193750">
        <ele>23.2</ele>
        <time>2021-05-20T10:30:20Z</time>
      </trkpt>
      <trkpt lat="42.2189960" lon="-8.7193510">
        <ele>23.2</ele>
        <time>2021-05-20T10:30:21Z</time>
      </trkpt>
      <trkpt lat="42.2189980" lon="-8.7193290">
        <ele>23.2</ele>
        <time>2021-05-20T10:30:22Z</time>
      </trkpt>
      <trkpt lat="42.2189980" lon="-8.7193200">
        <ele>23.2</ele>
        <time>2021-05-20T10:30:23Z</time>
      </trkpt>
      <trkpt lat="42.2189950" lon="-8.7193080">
        <ele>23.2</ele>
        <time>2021-05-20T10:30:24Z</time>
      </trkpt>
      <trkpt lat="42.2189890" lon="-8.7192940">
        <ele>23.3</ele>
        <time>2021-05-20T10:30:25Z</time>
      </trkpt>
      <trkpt lat="42.2189940" lon="-8.7192710">
        <ele>23.3</ele>
        <time>2021-05-20T10:30:26Z</time>
      </trkpt>
      <trkpt lat="42.2189980" lon="-8.7192570">
        <ele>23.3</ele>
        <time>2021-05-20T10:30:27Z</time>
      </trkpt>
      <trkpt lat="42.2189900" lon="-8.7192440">
        <ele>23.3</ele>
        <time>2021-05-20T10:30:28Z</time>
      </trkpt>
      <trkpt lat="42.2189850" lon="-8.7192270">
        <ele>23.3</ele>
        <time>2021-05-20T10:30:29Z</time>
      </trkpt>
      <trkpt lat="42.2189750" lon="-8.7192040">
        <ele>23.3</ele>
        <time>2021-05-20T10:30:30Z</time>
      </trkpt>
      <trkpt lat="42.2189640" lon="-8.7191910">
        <ele>23.3</ele>
        <time>2021-05-20T10:30:31Z</time>
      </trkpt>
      <trkpt lat="42.2189560" lon="-8.7191860">
        <ele>23.3</ele>
        <time>2021-05-20T10:30:32Z</time>
      </trkpt>
      <trkpt lat="42.2189530" lon="-8.7191710">
        <ele>23.3</ele>
        <time>2021-05-20T10:30:33Z</time>
      </trkpt>
      <trkpt lat="42.2189480" lon="-8.7191670">
        <ele>23.3</ele>
        <time>2021-05-20T10:30:34Z</time>
      </trkpt>
      <trkpt lat="42.2189400" lon="-8.7191550">
        <ele>23.3</ele>
        <time>2021-05-20T10:30:35Z</time>
      </trkpt>
      <trkpt lat="42.2189400" lon="-8.7191400">
        <ele>23.3</ele>
        <time>2021-05-20T10:30:36Z</time>
      </trkpt>
      <trkpt lat="42.2189450" lon="-8.7191240">
        <ele>23.3</ele>
        <time>2021-05-20T10:30:37Z</time>
      </trkpt>
      <trkpt lat="42.2189460" lon="-8.7191120">
        <ele>23.3</ele>
        <time>2021-05-20T10:30:38Z</time>
      </trkpt>
      <trkpt lat="42.2189480" lon="-8.7190830">
        <ele>23.3</ele>
        <time>2021-05-20T10:30:39Z</time>
      </trkpt>
      <trkpt lat="42.2189470" lon="-8.7190710">
        <ele>23.3</ele>
        <time>2021-05-20T10:30:40Z</time>
      </trkpt>
      <trkpt lat="42.2189450" lon="-8.7190580">
        <ele>23.3</ele>
        <time>2021-05-20T10:30:41Z</time>
      </trkpt>
      <trkpt lat="42.2189550" lon="-8.7190250">
        <ele>23.3</ele>
        <time>2021-05-20T10:30:42Z</time>
      </trkpt>
      <trkpt lat="42.2189630" lon="-8.7190130">
        <ele>23.3</ele>
        <time>2021-05-20T10:30:43Z</time>
      </trkpt>
      <trkpt lat="42.2189500" lon="-8.7189880">
        <ele>23.3</ele>
        <time>2021-05-20T10:30:44Z</time>
      </trkpt>
      <trkpt lat="42.2189460" lon="-8.7189770">
        <ele>23.3</ele>
        <time>2021-05-20T10:30:45Z</time>
      </trkpt>
      <trkpt lat="42.2189420" lon="-8.7189660">
        <ele>23.3</ele>
        <time>2021-05-20T10:30:46Z</time>
      </trkpt>
      <trkpt lat="42.2189380" lon="-8.7189550">
        <ele>23.3</ele>
        <time>2021-05-20T10:30:47Z</time>
      </trkpt>
      <trkpt lat="42.2189450" lon="-8.7189270">
        <ele>23.3</ele>
        <time>2021-05-20T10:30:48Z</time>
      </trkpt>
      <trkpt lat="42.2189510" lon="-8.7189140">
        <ele>23.4</ele>
        <time>2021-05-20T10:30:49Z</time>
      </trkpt>
      <trkpt lat="42.2189560" lon="-8.7189010">
        <ele>23.4</ele>
        <time>2021-05-20T10:30:50Z</time>
      </trkpt>
      <trkpt lat="42.2189460" lon="-8.7188820">
        <ele>23.4</ele>
        <time>2021-05-20T10:30:51Z</time>
      </trkpt>
      <trkpt lat="42.2189530" lon="-8.7188710">
        <ele>23.4</ele>
        <time>2021-05-20T10:30:52Z</time>
      </trkpt>
      <trkpt lat="42.2189540" lon="-8.7188550">
        <ele>23.4</ele>
        <time>2021-05-20T10:30:53Z</time>
      </trkpt>
      <trkpt lat="42.2189720" lon="-8.7188170">
        <ele>23.4</ele>
        <time>2021-05-20T10:30:54Z</time>
      </trkpt>
      <trkpt lat="42.2189790" lon="-8.7188030">
        <ele>23.4</ele>
        <time>2021-05-20T10:30:55Z</time>
      </trkpt>
      <trkpt lat="42.2189960" lon="-8.7187670">
        <ele>23.4</ele>
        <time>2021-05-20T10:30:56Z</time>
      </trkpt>
      <trkpt lat="42.2189980" lon="-8.7187540">
        <ele>23.4</ele>
        <time>2021-05-20T10:30:57Z</time>
      </trkpt>
      <trkpt lat="42.2190000" lon="-8.7187330">
        <ele>23.4</ele>
        <time>2021-05-20T10:30:59Z</time>
      </trkpt>
      <trkpt lat="42.2189970" lon="-8.7187110">
        <ele>23.4</ele>
        <time>2021-05-20T10:31:00Z</time>
      </trkpt>
      <trkpt lat="42.2189950" lon="-8.7186820">
        <ele>23.4</ele>
        <time>2021-05-20T10:31:01Z</time>
      </trkpt>
      <trkpt lat="42.2189930" lon="-8.7186710">
        <ele>23.4</ele>
        <time>2021-05-20T10:31:02Z</time>
      </trkpt>
      <trkpt lat="42.2189900" lon="-8.7186610">
        <ele>23.4</ele>
        <time>2021-05-20T10:31:03Z</time>
      </trkpt>
      <trkpt lat="42.2189930" lon="-8.7186390">
        <ele>23.4</ele>
        <time>2021-05-20T10:31:04Z</time>
      </trkpt>
      <trkpt lat="42.2189860" lon="-8.7186280">
        <ele>23.4</ele>
        <time>2021-05-20T10:31:05Z</time>
      </trkpt>
      <trkpt lat="42.2189740" lon="-8.7186170">
        <ele>23.4</ele>
        <time>2021-05-20T10:31:06Z</time>
      </trkpt>
      <trkpt lat="42.2189690" lon="-8.7185890">
        <ele>23.5</ele>
        <time>2021-05-20T10:31:07Z</time>
      </trkpt>
      <trkpt lat="42.2189710" lon="-8.7185780">
        <ele>23.5</ele>
        <time>2021-05-20T10:31:08Z</time>
      </trkpt>
      <trkpt lat="42.2189740" lon="-8.7185670">
        <ele>23.5</ele>
        <time>2021-05-20T10:31:09Z</time>
      </trkpt>
      <trkpt lat="42.2189850" lon="-8.7185430">
        <ele>23.5</ele>
        <time>2021-05-20T10:31:10Z</time>
      </trkpt>
      <trkpt lat="42.2189880" lon="-8.7185310">
        <ele>23.5</ele>
        <time>2021-05-20T10:31:11Z</time>
      </trkpt>
      <trkpt lat="42.2189850" lon="-8.7185040">
        <ele>23.5</ele>
        <time>2021-05-20T10:31:12Z</time>
      </trkpt>
      <trkpt lat="42.2189810" lon="-8.7184880">
        <ele>23.5</ele>
        <time>2021-05-20T10:31:13Z</time>
      </trkpt>
      <trkpt lat="42.2189780" lon="-8.7184730">
        <ele>23.5</ele>
        <time>2021-05-20T10:31:14Z</time>
      </trkpt>
      <trkpt lat="42.2189810" lon="-8.7184410">
        <ele>23.5</ele>
        <time>2021-05-20T10:31:15Z</time>
      </trkpt>
      <trkpt lat="42.2189820" lon="-8.7184260">
        <ele>23.5</ele>
        <time>2021-05-20T10:31:16Z</time>
      </trkpt>
      <trkpt lat="42.2189830" lon="-8.7184110">
        <ele>23.5</ele>
        <time>2021-05-20T10:31:17Z</time>
      </trkpt>
      <trkpt lat="42.2189870" lon="-8.7183930">
        <ele>23.5</ele>
        <time>2021-05-20T10:31:18Z</time>
      </trkpt>
      <trkpt lat="42.2189860" lon="-8.7183730">
        <ele>23.5</ele>
        <time>2021-05-20T10:31:19Z</time>
      </trkpt>
      <trkpt lat="42.2189920" lon="-8.7183550">
        <ele>23.5</ele>
        <time>2021-05-20T10:31:20Z</time>
      </trkpt>
      <trkpt lat="42.2189970" lon="-8.7183400">
        <ele>23.5</ele>
        <time>2021-05-20T10:31:21Z</time>
      </trkpt>
      <trkpt lat="42.2189950" lon="-8.7183290">
        <ele>23.5</ele>
        <time>2021-05-20T10:31:22Z</time>
      </trkpt>
      <trkpt lat="42.2189880" lon="-8.7183090">
        <ele>23.5</ele>
        <time>2021-05-20T10:31:23Z</time>
      </trkpt>
      <trkpt lat="42.2189780" lon="-8.7182940">
        <ele>23.5</ele>
        <time>2021-05-20T10:31:24Z</time>
      </trkpt>
      <trkpt lat="42.2189780" lon="-8.7182740">
        <ele>23.5</ele>
        <time>2021-05-20T10:31:25Z</time>
      </trkpt>
      <trkpt lat="42.2189670" lon="-8.7182520">
        <ele>23.5</ele>
        <time>2021-05-20T10:31:26Z</time>
      </trkpt>
      <trkpt lat="42.2189650" lon="-8.7182290">
        <ele>23.5</ele>
        <time>2021-05-20T10:31:27Z</time>
      </trkpt>
      <trkpt lat="42.2189610" lon="-8.7182130">
        <ele>23.5</ele>
        <time>2021-05-20T10:31:28Z</time>
      </trkpt>
      <trkpt lat="42.2189630" lon="-8.7181940">
        <ele>23.5</ele>
        <time>2021-05-20T10:31:29Z</time>
      </trkpt>
      <trkpt lat="42.2189600" lon="-8.7181740">
        <ele>23.5</ele>
        <time>2021-05-20T10:31:30Z</time>
      </trkpt>
      <trkpt lat="42.2189590" lon="-8.7181560">
        <ele>23.5</ele>
        <time>2021-05-20T10:31:31Z</time>
      </trkpt>
      <trkpt lat="42.2189590" lon="-8.7181370">
        <ele>23.5</ele>
        <time>2021-05-20T10:31:32Z</time>
      </trkpt>
      <trkpt lat="42.2189570" lon="-8.7181260">
        <ele>23.5</ele>
        <time>2021-05-20T10:31:33Z</time>
      </trkpt>
      <trkpt lat="42.2189560" lon="-8.7181110">
        <ele>23.5</ele>
        <time>2021-05-20T10:31:34Z</time>
      </trkpt>
      <trkpt lat="42.2189520" lon="-8.7180920">
        <ele>23.5</ele>
        <time>2021-05-20T10:31:35Z</time>
      </trkpt>
      <trkpt lat="42.2189580" lon="-8.7180750">
        <ele>23.5</ele>
        <time>2021-05-20T10:31:36Z</time>
      </trkpt>
      <trkpt lat="42.2189550" lon="-8.7180720">
        <ele>23.5</ele>
        <time>2021-05-20T10:31:37Z</time>
      </trkpt>
      <trkpt lat="42.2189540" lon="-8.7180760">
        <ele>23.5</ele>
        <time>2021-05-20T10:31:38Z</time>
      </trkpt>
      <trkpt lat="42.2189430" lon="-8.7180750">
        <ele>23.5</ele>
        <time>2021-05-20T10:31:39Z</time>
      </trkpt>
      <trkpt lat="42.2189400" lon="-8.7180810">
        <ele>23.5</ele>
        <time>2021-05-20T10:31:40Z</time>
      </trkpt>
      <trkpt lat="42.2189380" lon="-8.7180770">
        <ele>23.5</ele>
        <time>2021-05-20T10:31:41Z</time>
      </trkpt>
      <trkpt lat="42.2189360" lon="-8.7180760">
        <ele>23.5</ele>
        <time>2021-05-20T10:31:42Z</time>
      </trkpt>
      <trkpt lat="42.2189360" lon="-8.7180760">
        <ele>23.5</ele>
        <time>2021-05-20T10:31:43Z</time>
      </trkpt>
      <trkpt lat="42.2189380" lon="-8.7180770">
        <ele>23.5</ele>
        <time>2021-05-20T10:31:44Z</time>
      </trkpt>
      <trkpt lat="42.2189370" lon="-8.7180750">
        <ele>23.5</ele>
        <time>2021-05-20T10:31:45Z</time>
      </trkpt>
      <trkpt lat="42.2189370" lon="-8.7180800">
        <ele>23.5</ele>
        <time>2021-05-20T10:31:46Z</time>
      </trkpt>
      <trkpt lat="42.2189370" lon="-8.7180770">
        <ele>23.5</ele>
        <time>2021-05-20T10:31:47Z</time>
      </trkpt>
      <trkpt lat="42.2189400" lon="-8.7180680">
        <ele>23.5</ele>
        <time>2021-05-20T10:31:48Z</time>
      </trkpt>
      <trkpt lat="42.2189490" lon="-8.7180580">
        <ele>23.5</ele>
        <time>2021-05-20T10:31:49Z</time>
      </trkpt>
      <trkpt lat="42.2189540" lon="-8.7180460">
        <ele>23.5</ele>
        <time>2021-05-20T10:31:50Z</time>
      </trkpt>
      <trkpt lat="42.2189690" lon="-8.7180410">
        <ele>23.5</ele>
        <time>2021-05-20T10:31:51Z</time>
      </trkpt>
      <trkpt lat="42.2189730" lon="-8.7180510">
        <ele>23.5</ele>
        <time>2021-05-20T10:31:52Z</time>
      </trkpt>
      <trkpt lat="42.2189730" lon="-8.7180530">
        <ele>23.5</ele>
        <time>2021-05-20T10:31:53Z</time>
      </trkpt>
      <trkpt lat="42.2189850" lon="-8.7180450">
        <ele>23.5</ele>
        <time>2021-05-20T10:31:54Z</time>
      </trkpt>
      <trkpt lat="42.2189960" lon="-8.7180340">
        <ele>23.5</ele>
        <time>2021-05-20T10:31:55Z</time>
      </trkpt>
      <trkpt lat="42.2189940" lon="-8.7180130">
        <ele>23.5</ele>
        <time>2021-05-20T10:31:56Z</time>
      </trkpt>
      <trkpt lat="42.2189960" lon="-8.7180010">
        <ele>23.5</ele>
        <time>2021-05-20T10:31:57Z</time>
      </trkpt>
      <trkpt lat="42.2189990" lon="-8.7179620">
        <ele>23.5</ele>
        <time>2021-05-20T10:31:58Z</time>
      </trkpt>
      <trkpt lat="42.2190000" lon="-8.7179510">
        <ele>23.5</ele>
        <time>2021-05-20T10:31:59Z</time>
      </trkpt>
      <trkpt lat="42.2189930" lon="-8.7179370">
        <ele>23.4</ele>
        <time>2021-05-20T10:32:00Z</time>
      </trkpt>
      <trkpt lat="42.2189910" lon="-8.7179340">
        <ele>23.4</ele>
        <time>2021-05-20T10:32:01Z</time>
      </trkpt>
      <trkpt lat="42.2189890" lon="-8.7179110">
        <ele>23.4</ele>
        <time>2021-05-20T10:32:02Z</time>
      </trkpt>
      <trkpt lat="42.2189820" lon="-8.7178980">
        <ele>23.4</ele>
        <time>2021-05-20T10:32:03Z</time>
      </trkpt>
      <trkpt lat="42.2189600" lon="-8.7178910">
        <ele>23.4</ele>
        <time>2021-05-20T10:32:04Z</time>
      </trkpt>
      <trkpt lat="42.2189450" lon="-8.7178750">
        <ele>23.3</ele>
        <time>2021-05-20T10:32:05Z</time>
      </trkpt>
      <trkpt lat="42.2189540" lon="-8.7178490">
        <ele>23.3</ele>
        <time>2021-05-20T10:32:06Z</time>
      </trkpt>
      <trkpt lat="42.2189600" lon="-8.7178330">
        <ele>23.3</ele>
        <time>2021-05-20T10:32:07Z</time>
      </trkpt>
      <trkpt lat="42.2189640" lon="-8.7178240">
        <ele>23.3</ele>
        <time>2021-05-20T10:32:08Z</time>
      </trkpt>
      <trkpt lat="42.2189680" lon="-8.7178150">
        <ele>23.3</ele>
        <time>2021-05-20T10:32:09Z</time>
      </trkpt>
      <trkpt lat="42.2189740" lon="-8.7178000">
        <ele>23.2</ele>
        <time>2021-05-20T10:32:10Z</time>
      </trkpt>
      <trkpt lat="42.2189720" lon="-8.7177860">
        <ele>23.2</ele>
        <time>2021-05-20T10:32:11Z</time>
      </trkpt>
      <trkpt lat="42.2189710" lon="-8.7177700">
        <ele>23.2</ele>
        <time>2021-05-20T10:32:12Z</time>
      </trkpt>
      <trkpt lat="42.2189670" lon="-8.7177380">
        <ele>23.2</ele>
        <time>2021-05-20T10:32:13Z</time>
      </trkpt>
      <trkpt lat="42.2189650" lon="-8.7177260">
        <ele>23.2</ele>
        <time>2021-05-20T10:32:14Z</time>
      </trkpt>
      <trkpt lat="42.2189640" lon="-8.7177140">
        <ele>23.2</ele>
        <time>2021-05-20T10:32:15Z</time>
      </trkpt>
      <trkpt lat="42.2189650" lon="-8.7177020">
        <ele>23.2</ele>
        <time>2021-05-20T10:32:16Z</time>
      </trkpt>
      <trkpt lat="42.2189690" lon="-8.7176860">
        <ele>23.1</ele>
        <time>2021-05-20T10:32:17Z</time>
      </trkpt>
      <trkpt lat="42.2189740" lon="-8.7176710">
        <ele>23.1</ele>
        <time>2021-05-20T10:32:18Z</time>
      </trkpt>
      <trkpt lat="42.2189770" lon="-8.7176560">
        <ele>23.1</ele>
        <time>2021-05-20T10:32:19Z</time>
      </trkpt>
      <trkpt lat="42.2189790" lon="-8.7176340">
        <ele>23.1</ele>
        <time>2021-05-20T10:32:20Z</time>
      </trkpt>
      <trkpt lat="42.2189820" lon="-8.7176190">
        <ele>23.1</ele>
        <time>2021-05-20T10:32:21Z</time>
      </trkpt>
      <trkpt lat="42.2189850" lon="-8.7176050">
        <ele>23.1</ele>
        <time>2021-05-20T10:32:22Z</time>
      </trkpt>
      <trkpt lat="42.2189930" lon="-8.7175910">
        <ele>23.1</ele>
        <time>2021-05-20T10:32:23Z</time>
      </trkpt>
      <trkpt lat="42.2189960" lon="-8.7175790">
        <ele>23.1</ele>
        <time>2021-05-20T10:32:24Z</time>
      </trkpt>
      <trkpt lat="42.2189980" lon="-8.7175690">
        <ele>23.1</ele>
        <time>2021-05-20T10:32:25Z</time>
      </trkpt>
      <trkpt lat="42.2190020" lon="-8.7175460">
        <ele>23.0</ele>
        <time>2021-05-20T10:32:26Z</time>
      </trkpt>
      <trkpt lat="42.2190060" lon="-8.7175250">
        <ele>23.0</ele>
        <time>2021-05-20T10:32:27Z</time>
      </trkpt>
      <trkpt lat="42.2190110" lon="-8.7175030">
        <ele>23.0</ele>
        <time>2021-05-20T10:32:28Z</time>
      </trkpt>
      <trkpt lat="42.2190200" lon="-8.7174840">
        <ele>23.0</ele>
        <time>2021-05-20T10:32:29Z</time>
      </trkpt>
      <trkpt lat="42.2190290" lon="-8.7174660">
        <ele>23.0</ele>
        <time>2021-05-20T10:32:30Z</time>
      </trkpt>
      <trkpt lat="42.2190330" lon="-8.7174390">
        <ele>23.0</ele>
        <time>2021-05-20T10:32:31Z</time>
      </trkpt>
      <trkpt lat="42.2190340" lon="-8.7174270">
        <ele>23.0</ele>
        <time>2021-05-20T10:32:32Z</time>
      </trkpt>
      <trkpt lat="42.2190360" lon="-8.7174160">
        <ele>23.0</ele>
        <time>2021-05-20T10:32:33Z</time>
      </trkpt>
      <trkpt lat="42.2190410" lon="-8.7173860">
        <ele>22.9</ele>
        <time>2021-05-20T10:32:34Z</time>
      </trkpt>
      <trkpt lat="42.2190410" lon="-8.7173760">
        <ele>22.9</ele>
        <time>2021-05-20T10:32:35Z</time>
      </trkpt>
      <trkpt lat="42.2190410" lon="-8.7173650">
        <ele>22.9</ele>
        <time>2021-05-20T10:32:36Z</time>
      </trkpt>
      <trkpt lat="42.2190460" lon="-8.7173430">
        <ele>22.9</ele>
        <time>2021-05-20T10:32:37Z</time>
      </trkpt>
      <trkpt lat="42.2190510" lon="-8.7173260">
        <ele>22.9</ele>
        <time>2021-05-20T10:32:38Z</time>
      </trkpt>
      <trkpt lat="42.2190530" lon="-8.7173060">
        <ele>22.9</ele>
        <time>2021-05-20T10:32:39Z</time>
      </trkpt>
      <trkpt lat="42.2190560" lon="-8.7172990">
        <ele>22.9</ele>
        <time>2021-05-20T10:32:40Z</time>
      </trkpt>
      <trkpt lat="42.2190550" lon="-8.7172890">
        <ele>22.9</ele>
        <time>2021-05-20T10:32:41Z</time>
      </trkpt>
      <trkpt lat="42.2190590" lon="-8.7172720">
        <ele>22.9</ele>
        <time>2021-05-20T10:32:42Z</time>
      </trkpt>
      <trkpt lat="42.2190710" lon="-8.7172510">
        <ele>22.9</ele>
        <time>2021-05-20T10:32:43Z</time>
      </trkpt>
      <trkpt lat="42.2190770" lon="-8.7172200">
        <ele>22.9</ele>
        <time>2021-05-20T10:32:44Z</time>
      </trkpt>
      <trkpt lat="42.2190780" lon="-8.7172110">
        <ele>22.9</ele>
        <time>2021-05-20T10:32:45Z</time>
      </trkpt>
      <trkpt lat="42.2190780" lon="-8.7172010">
        <ele>22.9</ele>
        <time>2021-05-20T10:32:46Z</time>
      </trkpt>
      <trkpt lat="42.2190810" lon="-8.7171720">
        <ele>22.9</ele>
        <time>2021-05-20T10:32:47Z</time>
      </trkpt>
      <trkpt lat="42.2190820" lon="-8.7171610">
        <ele>22.9</ele>
        <time>2021-05-20T10:32:48Z</time>
      </trkpt>
      <trkpt lat="42.2190840" lon="-8.7171510">
        <ele>22.9</ele>
        <time>2021-05-20T10:32:49Z</time>
      </trkpt>
      <trkpt lat="42.2190830" lon="-8.7171370">
        <ele>22.9</ele>
        <time>2021-05-20T10:32:50Z</time>
      </trkpt>
      <trkpt lat="42.2190830" lon="-8.7171210">
        <ele>22.9</ele>
        <time>2021-05-20T10:32:51Z</time>
      </trkpt>
      <trkpt lat="42.2190850" lon="-8.7171050">
        <ele>23.0</ele>
        <time>2021-05-20T10:32:52Z</time>
      </trkpt>
      <trkpt lat="42.2190770" lon="-8.7170910">
        <ele>23.0</ele>
        <time>2021-05-20T10:32:53Z</time>
      </trkpt>
      <trkpt lat="42.2190640" lon="-8.7170740">
        <ele>23.0</ele>
        <time>2021-05-20T10:32:54Z</time>
      </trkpt>
      <trkpt lat="42.2190410" lon="-8.7170490">
        <ele>23.0</ele>
        <time>2021-05-20T10:32:55Z</time>
      </trkpt>
      <trkpt lat="42.2190350" lon="-8.7170380">
        <ele>23.0</ele>
        <time>2021-05-20T10:32:56Z</time>
      </trkpt>
      <trkpt lat="42.2190270" lon="-8.7170270">
        <ele>23.0</ele>
        <time>2021-05-20T10:32:57Z</time>
      </trkpt>
      <trkpt lat="42.2190120" lon="-8.7170190">
        <ele>23.0</ele>
        <time>2021-05-20T10:32:58Z</time>
      </trkpt>
      <trkpt lat="42.2189900" lon="-8.7170060">
        <ele>23.0</ele>
        <time>2021-05-20T10:32:59Z</time>
      </trkpt>
      <trkpt lat="42.2189830" lon="-8.7170010">
        <ele>23.0</ele>
        <time>2021-05-20T10:33:00Z</time>
      </trkpt>
      <trkpt lat="42.2189750" lon="-8.7169950">
        <ele>23.0</ele>
        <time>2021-05-20T10:33:01Z</time>
      </trkpt>
      <trkpt lat="42.2189610" lon="-8.7169880">
        <ele>23.0</ele>
        <time>2021-05-20T10:33:02Z</time>
      </trkpt>
      <trkpt lat="42.2189490" lon="-8.7169820">
        <ele>23.1</ele>
        <time>2021-05-20T10:33:03Z</time>
      </trkpt>
      <trkpt lat="42.2189440" lon="-8.7169830">
        <ele>23.1</ele>
        <time>2021-05-20T10:33:04Z</time>
      </trkpt>
      <trkpt lat="42.2189300" lon="-8.7169810">
        <ele>23.1</ele>
        <time>2021-05-20T10:33:05Z</time>
      </trkpt>
      <trkpt lat="42.2189160" lon="-8.7169780">
        <ele>23.1</ele>
        <time>2021-05-20T10:33:06Z</time>
      </trkpt>
      <trkpt lat="42.2189040" lon="-8.7169750">
        <ele>23.1</ele>
        <time>2021-05-20T10:33:07Z</time>
      </trkpt>
      <trkpt lat="42.2188890" lon="-8.7169720">
        <ele>23.1</ele>
        <time>2021-05-20T10:33:08Z</time>
      </trkpt>
      <trkpt lat="42.2188720" lon="-8.7169670">
        <ele>23.2</ele>
        <time>2021-05-20T10:33:09Z</time>
      </trkpt>
      <trkpt lat="42.2188630" lon="-8.7169650">
        <ele>23.2</ele>
        <time>2021-05-20T10:33:10Z</time>
      </trkpt>
      <trkpt lat="42.2188530" lon="-8.7169620">
        <ele>23.2</ele>
        <time>2021-05-20T10:33:11Z</time>
      </trkpt>
      <trkpt lat="42.2188370" lon="-8.7169530">
        <ele>23.2</ele>
        <time>2021-05-20T10:33:12Z</time>
      </trkpt>
      <trkpt lat="42.2188260" lon="-8.7169560">
        <ele>23.2</ele>
        <time>2021-05-20T10:33:13Z</time>
      </trkpt>
      <trkpt lat="42.2188120" lon="-8.7169610">
        <ele>23.3</ele>
        <time>2021-05-20T10:33:14Z</time>
      </trkpt>
      <trkpt lat="42.2188020" lon="-8.7169660">
        <ele>23.3</ele>
        <time>2021-05-20T10:33:15Z</time>
      </trkpt>
      <trkpt lat="42.2187930" lon="-8.7169670">
        <ele>23.3</ele>
        <time>2021-05-20T10:33:16Z</time>
      </trkpt>
      <trkpt lat="42.2187840" lon="-8.7169680">
        <ele>23.3</ele>
        <time>2021-05-20T10:33:17Z</time>
      </trkpt>
      <trkpt lat="42.2187750" lon="-8.7169670">
        <ele>23.3</ele>
        <time>2021-05-20T10:33:18Z</time>
      </trkpt>
      <trkpt lat="42.2187590" lon="-8.7169680">
        <ele>23.4</ele>
        <time>2021-05-20T10:33:19Z</time>
      </trkpt>
      <trkpt lat="42.2187450" lon="-8.7169650">
        <ele>23.4</ele>
        <time>2021-05-20T10:33:20Z</time>
      </trkpt>
      <trkpt lat="42.2187280" lon="-8.7169530">
        <ele>23.4</ele>
        <time>2021-05-20T10:33:21Z</time>
      </trkpt>
      <trkpt lat="42.2187110" lon="-8.7169410">
        <ele>23.5</ele>
        <time>2021-05-20T10:33:22Z</time>
      </trkpt>
      <trkpt lat="42.2187030" lon="-8.7169350">
        <ele>23.5</ele>
        <time>2021-05-20T10:33:23Z</time>
      </trkpt>
      <trkpt lat="42.2186960" lon="-8.7169300">
        <ele>23.5</ele>
        <time>2021-05-20T10:33:24Z</time>
      </trkpt>
      <trkpt lat="42.2186810" lon="-8.7169140">
        <ele>23.5</ele>
        <time>2021-05-20T10:33:25Z</time>
      </trkpt>
      <trkpt lat="42.2186700" lon="-8.7169040">
        <ele>23.6</ele>
        <time>2021-05-20T10:33:26Z</time>
      </trkpt>
      <trkpt lat="42.2186600" lon="-8.7168950">
        <ele>23.6</ele>
        <time>2021-05-20T10:33:27Z</time>
      </trkpt>
      <trkpt lat="42.2186510" lon="-8.7168840">
        <ele>23.6</ele>
        <time>2021-05-20T10:33:28Z</time>
      </trkpt>
      <trkpt lat="42.2186430" lon="-8.7168760">
        <ele>23.6</ele>
        <time>2021-05-20T10:33:29Z</time>
      </trkpt>
      <trkpt lat="42.2186400" lon="-8.7168580">
        <ele>23.7</ele>
        <time>2021-05-20T10:33:30Z</time>
      </trkpt>
      <trkpt lat="42.2186370" lon="-8.7168360">
        <ele>23.7</ele>
        <time>2021-05-20T10:33:31Z</time>
      </trkpt>
      <trkpt lat="42.2186330" lon="-8.7168140">
        <ele>23.7</ele>
        <time>2021-05-20T10:33:32Z</time>
      </trkpt>
      <trkpt lat="42.2186350" lon="-8.7167960">
        <ele>23.7</ele>
        <time>2021-05-20T10:33:33Z</time>
      </trkpt>
      <trkpt lat="42.2186330" lon="-8.7167890">
        <ele>23.7</ele>
        <time>2021-05-20T10:33:34Z</time>
      </trkpt>
      <trkpt lat="42.2186380" lon="-8.7167740">
        <ele>23.8</ele>
        <time>2021-05-20T10:33:35Z</time>
      </trkpt>
      <trkpt lat="42.2186380" lon="-8.7167570">
        <ele>23.8</ele>
        <time>2021-05-20T10:33:36Z</time>
      </trkpt>
      <trkpt lat="42.2186420" lon="-8.7167290">
        <ele>23.8</ele>
        <time>2021-05-20T10:33:37Z</time>
      </trkpt>
      <trkpt lat="42.2186440" lon="-8.7167170">
        <ele>23.8</ele>
        <time>2021-05-20T10:33:38Z</time>
      </trkpt>
      <trkpt lat="42.2186470" lon="-8.7167050">
        <ele>23.8</ele>
        <time>2021-05-20T10:33:39Z</time>
      </trkpt>
      <trkpt lat="42.2186500" lon="-8.7166790">
        <ele>23.9</ele>
        <time>2021-05-20T10:33:40Z</time>
      </trkpt>
      <trkpt lat="42.2186530" lon="-8.7166670">
        <ele>23.9</ele>
        <time>2021-05-20T10:33:41Z</time>
      </trkpt>
      <trkpt lat="42.2186550" lon="-8.7166560">
        <ele>23.9</ele>
        <time>2021-05-20T10:33:42Z</time>
      </trkpt>
      <trkpt lat="42.2186570" lon="-8.7166420">
        <ele>23.9</ele>
        <time>2021-05-20T10:33:43Z</time>
      </trkpt>
      <trkpt lat="42.2186540" lon="-8.7166300">
        <ele>23.9</ele>
        <time>2021-05-20T10:33:44Z</time>
      </trkpt>
      <trkpt lat="42.2186570" lon="-8.7166070">
        <ele>23.9</ele>
        <time>2021-05-20T10:33:45Z</time>
      </trkpt>
      <trkpt lat="42.2186610" lon="-8.7165810">
        <ele>23.9</ele>
        <time>2021-05-20T10:33:46Z</time>
      </trkpt>
      <trkpt lat="42.2186600" lon="-8.7165580">
        <ele>24.0</ele>
        <time>2021-05-20T10:33:47Z</time>
      </trkpt>
      <trkpt lat="42.2186660" lon="-8.7165390">
        <ele>24.0</ele>
        <time>2021-05-20T10:33:48Z</time>
      </trkpt>
      <trkpt lat="42.2186730" lon="-8.7165200">
        <ele>23.9</ele>
        <time>2021-05-20T10:33:49Z</time>
      </trkpt>
      <trkpt lat="42.2186800" lon="-8.7164960">
        <ele>23.9</ele>
        <time>2021-05-20T10:33:50Z</time>
      </trkpt>
      <trkpt lat="42.2186850" lon="-8.7164820">
        <ele>23.9</ele>
        <time>2021-05-20T10:33:51Z</time>
      </trkpt>
      <trkpt lat="42.2186900" lon="-8.7164690">
        <ele>23.9</ele>
        <time>2021-05-20T10:33:52Z</time>
      </trkpt>
      <trkpt lat="42.2186930" lon="-8.7164630">
        <ele>23.9</ele>
        <time>2021-05-20T10:33:53Z</time>
      </trkpt>
      <trkpt lat="42.2186990" lon="-8.7164530">
        <ele>23.9</ele>
        <time>2021-05-20T10:33:54Z</time>
      </trkpt>
      <trkpt lat="42.2187080" lon="-8.7164410">
        <ele>23.9</ele>
        <time>2021-05-20T10:33:55Z</time>
      </trkpt>
      <trkpt lat="42.2187200" lon="-8.7164190">
        <ele>23.9</ele>
        <time>2021-05-20T10:33:56Z</time>
      </trkpt>
      <trkpt lat="42.2187250" lon="-8.7164090">
        <ele>23.9</ele>
        <time>2021-05-20T10:33:57Z</time>
      </trkpt>
      <trkpt lat="42.2187300" lon="-8.7163990">
        <ele>23.9</ele>
        <time>2021-05-20T10:33:58Z</time>
      </trkpt>
      <trkpt lat="42.2187390" lon="-8.7163810">
        <ele>23.9</ele>
        <time>2021-05-20T10:33:59Z</time>
      </trkpt>
      <trkpt lat="42.2187460" lon="-8.7163710">
        <ele>23.9</ele>
        <time>2021-05-20T10:34:00Z</time>
      </trkpt>
      <trkpt lat="42.2187520" lon="-8.7163620">
        <ele>23.9</ele>
        <time>2021-05-20T10:34:01Z</time>
      </trkpt>
      <trkpt lat="42.2187570" lon="-8.7163450">
        <ele>23.9</ele>
        <time>2021-05-20T10:34:02Z</time>
      </trkpt>
      <trkpt lat="42.2187650" lon="-8.7163240">
        <ele>23.9</ele>
        <time>2021-05-20T10:34:03Z</time>
      </trkpt>
      <trkpt lat="42.2187710" lon="-8.7163050">
        <ele>23.9</ele>
        <time>2021-05-20T10:34:04Z</time>
      </trkpt>
      <trkpt lat="42.2187760" lon="-8.7162940">
        <ele>23.9</ele>
        <time>2021-05-20T10:34:05Z</time>
      </trkpt>
      <trkpt lat="42.2187810" lon="-8.7162820">
        <ele>23.9</ele>
        <time>2021-05-20T10:34:06Z</time>
      </trkpt>
      <trkpt lat="42.2187860" lon="-8.7162670">
        <ele>23.9</ele>
        <time>2021-05-20T10:34:07Z</time>
      </trkpt>
      <trkpt lat="42.2187880" lon="-8.7162480">
        <ele>23.9</ele>
        <time>2021-05-20T10:34:08Z</time>
      </trkpt>
      <trkpt lat="42.2187880" lon="-8.7162380">
        <ele>23.9</ele>
        <time>2021-05-20T10:34:09Z</time>
      </trkpt>
      <trkpt lat="42.2187940" lon="-8.7162240">
        <ele>24.0</ele>
        <time>2021-05-20T10:34:10Z</time>
      </trkpt>
      <trkpt lat="42.2187980" lon="-8.7162110">
        <ele>24.0</ele>
        <time>2021-05-20T10:34:11Z</time>
      </trkpt>
      <trkpt lat="42.2188010" lon="-8.7161960">
        <ele>24.0</ele>
        <time>2021-05-20T10:34:12Z</time>
      </trkpt>
      <trkpt lat="42.2188060" lon="-8.7161950">
        <ele>24.0</ele>
        <time>2021-05-20T10:34:13Z</time>
      </trkpt>
      <trkpt lat="42.2188160" lon="-8.7161890">
        <ele>24.0</ele>
        <time>2021-05-20T10:34:14Z</time>
      </trkpt>
      <trkpt lat="42.2188240" lon="-8.7161740">
        <ele>24.0</ele>
        <time>2021-05-20T10:34:15Z</time>
      </trkpt>
      <trkpt lat="42.2188360" lon="-8.7161610">
        <ele>24.0</ele>
        <time>2021-05-20T10:34:16Z</time>
      </trkpt>
      <trkpt lat="42.2188500" lon="-8.7161470">
        <ele>24.0</ele>
        <time>2021-05-20T10:34:17Z</time>
      </trkpt>
      <trkpt lat="42.2188610" lon="-8.7161310">
        <ele>24.0</ele>
        <time>2021-05-20T10:34:18Z</time>
      </trkpt>
      <trkpt lat="42.2188680" lon="-8.7161180">
        <ele>24.0</ele>
        <time>2021-05-20T10:34:19Z</time>
      </trkpt>
      <trkpt lat="42.2188730" lon="-8.7161110">
        <ele>24.0</ele>
        <time>2021-05-20T10:34:20Z</time>
      </trkpt>
      <trkpt lat="42.2188780" lon="-8.7161030">
        <ele>24.0</ele>
        <time>2021-05-20T10:34:21Z</time>
      </trkpt>
      <trkpt lat="42.2188830" lon="-8.7160980">
        <ele>24.0</ele>
        <time>2021-05-20T10:34:22Z</time>
      </trkpt>
      <trkpt lat="42.2188890" lon="-8.7160910">
        <ele>24.0</ele>
        <time>2021-05-20T10:34:23Z</time>
      </trkpt>
      <trkpt lat="42.2189010" lon="-8.7160780">
        <ele>24.0</ele>
        <time>2021-05-20T10:34:24Z</time>
      </trkpt>
      <trkpt lat="42.2189050" lon="-8.7160670">
        <ele>24.0</ele>
        <time>2021-05-20T10:34:25Z</time>
      </trkpt>
      <trkpt lat="42.2189130" lon="-8.7160590">
        <ele>23.9</ele>
        <time>2021-05-20T10:34:26Z</time>
      </trkpt>
      <trkpt lat="42.2189130" lon="-8.7160550">
        <ele>23.9</ele>
        <time>2021-05-20T10:34:27Z</time>
      </trkpt>
      <trkpt lat="42.2189210" lon="-8.7160490">
        <ele>23.9</ele>
        <time>2021-05-20T10:34:28Z</time>
      </trkpt>
      <trkpt lat="42.2189340" lon="-8.7160350">
        <ele>23.9</ele>
        <time>2021-05-20T10:34:29Z</time>
      </trkpt>
      <trkpt lat="42.2189430" lon="-8.7160380">
        <ele>23.8</ele>
        <time>2021-05-20T10:34:30Z</time>
      </trkpt>
      <trkpt lat="42.2189510" lon="-8.7160370">
        <ele>23.8</ele>
        <time>2021-05-20T10:34:31Z</time>
      </trkpt>
      <trkpt lat="42.2189620" lon="-8.7160230">
        <ele>23.8</ele>
        <time>2021-05-20T10:34:32Z</time>
      </trkpt>
      <trkpt lat="42.2189780" lon="-8.7160130">
        <ele>23.7</ele>
        <time>2021-05-20T10:34:33Z</time>
      </trkpt>
      <trkpt lat="42.2189850" lon="-8.7160110">
        <ele>23.6</ele>
        <time>2021-05-20T10:34:34Z</time>
      </trkpt>
      <trkpt lat="42.2189930" lon="-8.7160080">
        <ele>23.6</ele>
        <time>2021-05-20T10:34:35Z</time>
      </trkpt>
      <trkpt lat="42.2190000" lon="-8.7160060">
        <ele>23.6</ele>
        <time>2021-05-20T10:34:36Z</time>
      </trkpt>
      <trkpt lat="42.2190070" lon="-8.7159960">
        <ele>23.5</ele>
        <time>2021-05-20T10:34:37Z</time>
      </trkpt>
      <trkpt lat="42.2190130" lon="-8.7159910">
        <ele>23.5</ele>
        <time>2021-05-20T10:34:38Z</time>
      </trkpt>
      <trkpt lat="42.2190230" lon="-8.7159790">
        <ele>23.4</ele>
        <time>2021-05-20T10:34:39Z</time>
      </trkpt>
      <trkpt lat="42.2190400" lon="-8.7159720">
        <ele>23.3</ele>
        <time>2021-05-20T10:34:40Z</time>
      </trkpt>
      <trkpt lat="42.2190500" lon="-8.7159620">
        <ele>23.2</ele>
        <time>2021-05-20T10:34:41Z</time>
      </trkpt>
      <trkpt lat="42.2190570" lon="-8.7159520">
        <ele>23.2</ele>
        <time>2021-05-20T10:34:42Z</time>
      </trkpt>
      <trkpt lat="42.2190680" lon="-8.7159420">
        <ele>23.2</ele>
        <time>2021-05-20T10:34:43Z</time>
      </trkpt>
      <trkpt lat="42.2190710" lon="-8.7159280">
        <ele>23.1</ele>
        <time>2021-05-20T10:34:44Z</time>
      </trkpt>
      <trkpt lat="42.2190770" lon="-8.7159150">
        <ele>23.1</ele>
        <time>2021-05-20T10:34:45Z</time>
      </trkpt>
      <trkpt lat="42.2190800" lon="-8.7159130">
        <ele>23.1</ele>
        <time>2021-05-20T10:34:46Z</time>
      </trkpt>
      <trkpt lat="42.2190840" lon="-8.7159120">
        <ele>23.1</ele>
        <time>2021-05-20T10:34:47Z</time>
      </trkpt>
      <trkpt lat="42.2190870" lon="-8.7159100">
        <ele>23.1</ele>
        <time>2021-05-20T10:34:48Z</time>
      </trkpt>
      <trkpt lat="42.2190910" lon="-8.7159090">
        <ele>23.1</ele>
        <time>2021-05-20T10:34:49Z</time>
      </trkpt>
      <trkpt lat="42.2190940" lon="-8.7159070">
        <ele>23.1</ele>
        <time>2021-05-20T10:34:50Z</time>
      </trkpt>
      <trkpt lat="42.2190980" lon="-8.7159060">
        <ele>23.1</ele>
        <time>2021-05-20T10:34:51Z</time>
      </trkpt>
      <trkpt lat="42.2191010" lon="-8.7159040">
        <ele>23.1</ele>
        <time>2021-05-20T10:34:52Z</time>
      </trkpt>
      <trkpt lat="42.2191050" lon="-8.7159030">
        <ele>23.1</ele>
        <time>2021-05-20T10:34:53Z</time>
      </trkpt>
      <trkpt lat="42.2190970" lon="-8.7159010">
        <ele>23.0</ele>
        <time>2021-05-20T10:34:54Z</time>
      </trkpt>
      <trkpt lat="42.2190940" lon="-8.7158960">
        <ele>23.0</ele>
        <time>2021-05-20T10:34:55Z</time>
      </trkpt>
      <trkpt lat="42.2190870" lon="-8.7158870">
        <ele>23.0</ele>
        <time>2021-05-20T10:34:56Z</time>
      </trkpt>
      <trkpt lat="42.2190830" lon="-8.7158840">
        <ele>23.0</ele>
        <time>2021-05-20T10:34:57Z</time>
      </trkpt>
      <trkpt lat="42.2190770" lon="-8.7158810">
        <ele>23.0</ele>
        <time>2021-05-20T10:34:58Z</time>
      </trkpt>
      <trkpt lat="42.2190720" lon="-8.7158810">
        <ele>23.0</ele>
        <time>2021-05-20T10:34:59Z</time>
      </trkpt>
      <trkpt lat="42.2190730" lon="-8.7158740">
        <ele>23.0</ele>
        <time>2021-05-20T10:35:00Z</time>
      </trkpt>
      <trkpt lat="42.2190770" lon="-8.7158730">
        <ele>23.0</ele>
        <time>2021-05-20T10:35:01Z</time>
      </trkpt>
      <trkpt lat="42.2190820" lon="-8.7158770">
        <ele>23.0</ele>
        <time>2021-05-20T10:35:02Z</time>
      </trkpt>
      <trkpt lat="42.2190900" lon="-8.7158820">
        <ele>23.0</ele>
        <time>2021-05-20T10:35:03Z</time>
      </trkpt>
      <trkpt lat="42.2191000" lon="-8.7158810">
        <ele>23.0</ele>
        <time>2021-05-20T10:35:04Z</time>
      </trkpt>
      <trkpt lat="42.2191080" lon="-8.7158870">
        <ele>23.0</ele>
        <time>2021-05-20T10:35:05Z</time>
      </trkpt>
      <trkpt lat="42.2191160" lon="-8.7158870">
        <ele>23.0</ele>
        <time>2021-05-20T10:35:06Z</time>
      </trkpt>
      <trkpt lat="42.2191200" lon="-8.7158830">
        <ele>23.0</ele>
        <time>2021-05-20T10:35:07Z</time>
      </trkpt>
      <trkpt lat="42.2191210" lon="-8.7158890">
        <ele>22.9</ele>
        <time>2021-05-20T10:35:08Z</time>
      </trkpt>
      <trkpt lat="42.2191340" lon="-8.7158840">
        <ele>22.9</ele>
        <time>2021-05-20T10:35:09Z</time>
      </trkpt>
      <trkpt lat="42.2191390" lon="-8.7158820">
        <ele>22.9</ele>
        <time>2021-05-20T10:35:10Z</time>
      </trkpt>
      <trkpt lat="42.2191410" lon="-8.7158750">
        <ele>22.9</ele>
        <time>2021-05-20T10:35:11Z</time>
      </trkpt>
      <trkpt lat="42.2191380" lon="-8.7158760">
        <ele>22.9</ele>
        <time>2021-05-20T10:35:12Z</time>
      </trkpt>
      <trkpt lat="42.2191380" lon="-8.7158720">
        <ele>22.9</ele>
        <time>2021-05-20T10:35:13Z</time>
      </trkpt>
      <trkpt lat="42.2191360" lon="-8.7158710">
        <ele>22.9</ele>
        <time>2021-05-20T10:35:14Z</time>
      </trkpt>
      <trkpt lat="42.2191300" lon="-8.7158650">
        <ele>22.9</ele>
        <time>2021-05-20T10:35:15Z</time>
      </trkpt>
      <trkpt lat="42.2191290" lon="-8.7158650">
        <ele>22.9</ele>
        <time>2021-05-20T10:35:16Z</time>
      </trkpt>
      <trkpt lat="42.2191310" lon="-8.7158650">
        <ele>22.9</ele>
        <time>2021-05-20T10:35:17Z</time>
      </trkpt>
      <trkpt lat="42.2191330" lon="-8.7158650">
        <ele>22.9</ele>
        <time>2021-05-20T10:35:18Z</time>
      </trkpt>
      <trkpt lat="42.2191300" lon="-8.7158590">
        <ele>22.9</ele>
        <time>2021-05-20T10:35:19Z</time>
      </trkpt>
      <trkpt lat="42.2191330" lon="-8.7158560">
        <ele>22.9</ele>
        <time>2021-05-20T10:35:20Z</time>
      </trkpt>
      <trkpt lat="42.2191380" lon="-8.7158470">
        <ele>22.8</ele>
        <time>2021-05-20T10:35:21Z</time>
      </trkpt>
      <trkpt lat="42.2191420" lon="-8.7158420">
        <ele>22.8</ele>
        <time>2021-05-20T10:35:22Z</time>
      </trkpt>
      <trkpt lat="42.2191480" lon="-8.7158420">
        <ele>22.8</ele>
        <time>2021-05-20T10:35:23Z</time>
      </trkpt>
      <trkpt lat="42.2191550" lon="-8.7158450">
        <ele>22.8</ele>
        <time>2021-05-20T10:35:24Z</time>
      </trkpt>
      <trkpt lat="42.2191630" lon="-8.7158400">
        <ele>22.8</ele>
        <time>2021-05-20T10:35:25Z</time>
      </trkpt>
      <trkpt lat="42.2191620" lon="-8.7158440">
        <ele>22.8</ele>
        <time>2021-05-20T10:35:26Z</time>
      </trkpt>
      <trkpt lat="42.2191750" lon="-8.7158410">
        <ele>22.7</ele>
        <time>2021-05-20T10:35:27Z</time>
      </trkpt>
      <trkpt lat="42.2191810" lon="-8.7158590">
        <ele>22.7</ele>
        <time>2021-05-20T10:35:28Z</time>
      </trkpt>
      <trkpt lat="42.2191860" lon="-8.7158780">
        <ele>22.7</ele>
        <time>2021-05-20T10:35:29Z</time>
      </trkpt>
      <trkpt lat="42.2191970" lon="-8.7158990">
        <ele>22.7</ele>
        <time>2021-05-20T10:35:30Z</time>
      </trkpt>
      <trkpt lat="42.2192040" lon="-8.7159090">
        <ele>22.7</ele>
        <time>2021-05-20T10:35:31Z</time>
      </trkpt>
      <trkpt lat="42.2192100" lon="-8.7159180">
        <ele>22.6</ele>
        <time>2021-05-20T10:35:32Z</time>
      </trkpt>
      <trkpt lat="42.2192150" lon="-8.7159250">
        <ele>22.6</ele>
        <time>2021-05-20T10:35:33Z</time>
      </trkpt>
      <trkpt lat="42.2192180" lon="-8.7159350">
        <ele>22.6</ele>
        <time>2021-05-20T10:35:34Z</time>
      </trkpt>
      <trkpt lat="42.2192300" lon="-8.7159420">
        <ele>22.6</ele>
        <time>2021-05-20T10:35:35Z</time>
      </trkpt>
      <trkpt lat="42.2192370" lon="-8.7159480">
        <ele>22.6</ele>
        <time>2021-05-20T10:35:36Z</time>
      </trkpt>
      <trkpt lat="42.2192420" lon="-8.7159520">
        <ele>22.6</ele>
        <time>2021-05-20T10:35:37Z</time>
      </trkpt>
      <trkpt lat="42.2192500" lon="-8.7159620">
        <ele>22.6</ele>
        <time>2021-05-20T10:35:38Z</time>
      </trkpt>
      <trkpt lat="42.2192540" lon="-8.7159700">
        <ele>22.6</ele>
        <time>2021-05-20T10:35:39Z</time>
      </trkpt>
      <trkpt lat="42.2192620" lon="-8.7159790">
        <ele>22.6</ele>
        <time>2021-05-20T10:35:40Z</time>
      </trkpt>
      <trkpt lat="42.2192740" lon="-8.7159990">
        <ele>22.6</ele>
        <time>2021-05-20T10:35:41Z</time>
      </trkpt>
      <trkpt lat="42.2192840" lon="-8.7160150">
        <ele>22.6</ele>
        <time>2021-05-20T10:35:42Z</time>
      </trkpt>
      <trkpt lat="42.2192970" lon="-8.7160290">
        <ele>22.6</ele>
        <time>2021-05-20T10:35:43Z</time>
      </trkpt>
      <trkpt lat="42.2193080" lon="-8.7160490">
        <ele>22.6</ele>
        <time>2021-05-20T10:35:44Z</time>
      </trkpt>
      <trkpt lat="42.2193150" lon="-8.7160600">
        <ele>22.6</ele>
        <time>2021-05-20T10:35:45Z</time>
      </trkpt>
      <trkpt lat="42.2193300" lon="-8.7160790">
        <ele>22.7</ele>
        <time>2021-05-20T10:35:46Z</time>
      </trkpt>
      <trkpt lat="42.2193370" lon="-8.7160850">
        <ele>22.7</ele>
        <time>2021-05-20T10:35:47Z</time>
      </trkpt>
      <trkpt lat="42.2193440" lon="-8.7160910">
        <ele>22.7</ele>
        <time>2021-05-20T10:35:48Z</time>
      </trkpt>
      <trkpt lat="42.2193590" lon="-8.7161080">
        <ele>22.7</ele>
        <time>2021-05-20T10:35:49Z</time>
      </trkpt>
      <trkpt lat="42.2193660" lon="-8.7161160">
        <ele>22.7</ele>
        <time>2021-05-20T10:35:50Z</time>
      </trkpt>
      <trkpt lat="42.2193740" lon="-8.7161240">
        <ele>22.7</ele>
        <time>2021-05-20T10:35:51Z</time>
      </trkpt>
      <trkpt lat="42.2193870" lon="-8.7161330">
        <ele>22.7</ele>
        <time>2021-05-20T10:35:52Z</time>
      </trkpt>
      <trkpt lat="42.2194020" lon="-8.7161430">
        <ele>22.8</ele>
        <time>2021-05-20T10:35:53Z</time>
      </trkpt>
      <trkpt lat="42.2194140" lon="-8.7161530">
        <ele>22.8</ele>
        <time>2021-05-20T10:35:54Z</time>
      </trkpt>
      <trkpt lat="42.2194270" lon="-8.7161650">
        <ele>22.8</ele>
        <time>2021-05-20T10:35:55Z</time>
      </trkpt>
      <trkpt lat="42.2194440" lon="-8.7161830">
        <ele>22.9</ele>
        <time>2021-05-20T10:35:56Z</time>
      </trkpt>
      <trkpt lat="42.2194520" lon="-8.7161890">
        <ele>22.9</ele>
        <time>2021-05-20T10:35:57Z</time>
      </trkpt>
      <trkpt lat="42.2194600" lon="-8.7161960">
        <ele>22.9</ele>
        <time>2021-05-20T10:35:58Z</time>
      </trkpt>
      <trkpt lat="42.2194780" lon="-8.7162120">
        <ele>23.0</ele>
        <time>2021-05-20T10:35:59Z</time>
      </trkpt>
      <trkpt lat="42.2194860" lon="-8.7162170">
        <ele>23.0</ele>
        <time>2021-05-20T10:36:00Z</time>
      </trkpt>
      <trkpt lat="42.2194950" lon="-8.7162230">
        <ele>23.0</ele>
        <time>2021-05-20T10:36:01Z</time>
      </trkpt>
      <trkpt lat="42.2195110" lon="-8.7162420">
        <ele>23.1</ele>
        <time>2021-05-20T10:36:02Z</time>
      </trkpt>
      <trkpt lat="42.2195170" lon="-8.7162510">
        <ele>23.1</ele>
        <time>2021-05-20T10:36:03Z</time>
      </trkpt>
      <trkpt lat="42.2195220" lon="-8.7162590">
        <ele>23.1</ele>
        <time>2021-05-20T10:36:04Z</time>
      </trkpt>
      <trkpt lat="42.2195340" lon="-8.7162720">
        <ele>23.2</ele>
        <time>2021-05-20T10:36:05Z</time>
      </trkpt>
      <trkpt lat="42.2195420" lon="-8.7162850">
        <ele>23.2</ele>
        <time>2021-05-20T10:36:06Z</time>
      </trkpt>
      <trkpt lat="42.2195490" lon="-8.7162970">
        <ele>23.2</ele>
        <time>2021-05-20T10:36:07Z</time>
      </trkpt>
      <trkpt lat="42.2195510" lon="-8.7163020">
        <ele>23.2</ele>
        <time>2021-05-20T10:36:08Z</time>
      </trkpt>
      <trkpt lat="42.2195550" lon="-8.7163090">
        <ele>23.3</ele>
        <time>2021-05-20T10:36:09Z</time>
      </trkpt>
      <trkpt lat="42.2195690" lon="-8.7163190">
        <ele>23.3</ele>
        <time>2021-05-20T10:36:10Z</time>
      </trkpt>
      <trkpt lat="42.2195770" lon="-8.7163440">
        <ele>23.4</ele>
        <time>2021-05-20T10:36:11Z</time>
      </trkpt>
      <trkpt lat="42.2195790" lon="-8.7163570">
        <ele>23.4</ele>
        <time>2021-05-20T10:36:12Z</time>
      </trkpt>
      <trkpt lat="42.2195820" lon="-8.7163690">
        <ele>23.4</ele>
        <time>2021-05-20T10:36:13Z</time>
      </trkpt>
      <trkpt lat="42.2195940" lon="-8.7163820">
        <ele>23.5</ele>
        <time>2021-05-20T10:36:14Z</time>
      </trkpt>
      <trkpt lat="42.2196000" lon="-8.7163900">
        <ele>23.5</ele>
        <time>2021-05-20T10:36:15Z</time>
      </trkpt>
      <trkpt lat="42.2196060" lon="-8.7163990">
        <ele>23.6</ele>
        <time>2021-05-20T10:36:16Z</time>
      </trkpt>
      <trkpt lat="42.2196120" lon="-8.7164080">
        <ele>23.6</ele>
        <time>2021-05-20T10:36:17Z</time>
      </trkpt>
      <trkpt lat="42.2196210" lon="-8.7164180">
        <ele>23.7</ele>
        <time>2021-05-20T10:36:18Z</time>
      </trkpt>
      <trkpt lat="42.2196270" lon="-8.7164160">
        <ele>23.7</ele>
        <time>2021-05-20T10:36:19Z</time>
      </trkpt>
      <trkpt lat="42.2196350" lon="-8.7164180">
        <ele>23.7</ele>
        <time>2021-05-20T10:36:20Z</time>
      </trkpt>
      <trkpt lat="42.2196400" lon="-8.7164220">
        <ele>23.8</ele>
        <time>2021-05-20T10:36:21Z</time>
      </trkpt>
      <trkpt lat="42.2196460" lon="-8.7164300">
        <ele>23.8</ele>
        <time>2021-05-20T10:36:22Z</time>
      </trkpt>
      <trkpt lat="42.2196540" lon="-8.7164410">
        <ele>23.9</ele>
        <time>2021-05-20T10:36:23Z</time>
      </trkpt>
      <trkpt lat="42.2196630" lon="-8.7164520">
        <ele>23.9</ele>
        <time>2021-05-20T10:36:24Z</time>
      </trkpt>
      <trkpt lat="42.2196720" lon="-8.7164640">
        <ele>24.0</ele>
        <time>2021-05-20T10:36:25Z</time>
      </trkpt>
      <trkpt lat="42.2196750" lon="-8.7164690">
        <ele>24.0</ele>
        <time>2021-05-20T10:36:26Z</time>
      </trkpt>
      <trkpt lat="42.2196790" lon="-8.7164730">
        <ele>24.1</ele>
        <time>2021-05-20T10:36:27Z</time>
      </trkpt>
      <trkpt lat="42.2196840" lon="-8.7164700">
        <ele>24.1</ele>
        <time>2021-05-20T10:36:28Z</time>
      </trkpt>
      <trkpt lat="42.2196930" lon="-8.7164680">
        <ele>24.1</ele>
        <time>2021-05-20T10:36:29Z</time>
      </trkpt>
      <trkpt lat="42.2196970" lon="-8.7164590">
        <ele>24.2</ele>
        <time>2021-05-20T10:36:30Z</time>
      </trkpt>
      <trkpt lat="42.2197060" lon="-8.7164500">
        <ele>24.2</ele>
        <time>2021-05-20T10:36:31Z</time>
      </trkpt>
      <trkpt lat="42.2197270" lon="-8.7164510">
        <ele>24.4</ele>
        <time>2021-05-20T10:36:32Z</time>
      </trkpt>
      <trkpt lat="42.2197560" lon="-8.7164780">
        <ele>24.5</ele>
        <time>2021-05-20T10:36:33Z</time>
      </trkpt>
      <trkpt lat="42.2197970" lon="-8.7165850">
        <ele>25.0</ele>
        <time>2021-05-20T10:36:34Z</time>
      </trkpt>
      <trkpt lat="42.2198580" lon="-8.7166690">
        <ele>25.7</ele>
        <time>2021-05-20T10:36:35Z</time>
      </trkpt>
      <trkpt lat="42.2199030" lon="-8.7166760">
        <ele>25.9</ele>
        <time>2021-05-20T10:36:36Z</time>
      </trkpt>
      <trkpt lat="42.2198910" lon="-8.7165910">
        <ele>26.3</ele>
        <time>2021-05-20T10:36:37Z</time>
      </trkpt>
      <trkpt lat="42.2198980" lon="-8.7165860">
        <ele>26.4</ele>
        <time>2021-05-20T10:36:38Z</time>
      </trkpt>
      <trkpt lat="42.2198920" lon="-8.7166050">
        <ele>26.5</ele>
        <time>2021-05-20T10:36:39Z</time>
      </trkpt>
      <trkpt lat="42.2199020" lon="-8.7166150">
        <ele>26.5</ele>
        <time>2021-05-20T10:36:40Z</time>
      </trkpt>
      <trkpt lat="42.2198970" lon="-8.7166300">
        <ele>26.6</ele>
        <time>2021-05-20T10:36:41Z</time>
      </trkpt>
      <trkpt lat="42.2198950" lon="-8.7166410">
        <ele>26.7</ele>
        <time>2021-05-20T10:36:42Z</time>
      </trkpt>
      <trkpt lat="42.2199060" lon="-8.7166480">
        <ele>26.7</ele>
        <time>2021-05-20T10:36:43Z</time>
      </trkpt>
      <trkpt lat="42.2199250" lon="-8.7166520">
        <ele>26.9</ele>
        <time>2021-05-20T10:36:44Z</time>
      </trkpt>
      <trkpt lat="42.2199320" lon="-8.7166580">
        <ele>26.9</ele>
        <time>2021-05-20T10:36:45Z</time>
      </trkpt>
      <trkpt lat="42.2199470" lon="-8.7166620">
        <ele>27.0</ele>
        <time>2021-05-20T10:36:46Z</time>
      </trkpt>
      <trkpt lat="42.2199520" lon="-8.7166700">
        <ele>27.1</ele>
        <time>2021-05-20T10:36:47Z</time>
      </trkpt>
      <trkpt lat="42.2199580" lon="-8.7166720">
        <ele>27.1</ele>
        <time>2021-05-20T10:36:48Z</time>
      </trkpt>
      <trkpt lat="42.2199680" lon="-8.7166830">
        <ele>27.2</ele>
        <time>2021-05-20T10:36:49Z</time>
      </trkpt>
      <trkpt lat="42.2199640" lon="-8.7166910">
        <ele>27.2</ele>
        <time>2021-05-20T10:36:50Z</time>
      </trkpt>
      <trkpt lat="42.2199730" lon="-8.7166930">
        <ele>27.3</ele>
        <time>2021-05-20T10:36:51Z</time>
      </trkpt>
      <trkpt lat="42.2199860" lon="-8.7167000">
        <ele>27.4</ele>
        <time>2021-05-20T10:36:52Z</time>
      </trkpt>
      <trkpt lat="42.2200010" lon="-8.7167050">
        <ele>27.5</ele>
        <time>2021-05-20T10:36:53Z</time>
      </trkpt>
      <trkpt lat="42.2200120" lon="-8.7167090">
        <ele>27.5</ele>
        <time>2021-05-20T10:36:54Z</time>
      </trkpt>
      <trkpt lat="42.2200280" lon="-8.7167130">
        <ele>27.6</ele>
        <time>2021-05-20T10:36:55Z</time>
      </trkpt>
      <trkpt lat="42.2200460" lon="-8.7167190">
        <ele>27.8</ele>
        <time>2021-05-20T10:36:56Z</time>
      </trkpt>
      <trkpt lat="42.2200610" lon="-8.7167250">
        <ele>27.9</ele>
        <time>2021-05-20T10:36:57Z</time>
      </trkpt>
      <trkpt lat="42.2200740" lon="-8.7167340">
        <ele>28.0</ele>
        <time>2021-05-20T10:36:58Z</time>
      </trkpt>
      <trkpt lat="42.2200840" lon="-8.7167400">
        <ele>28.0</ele>
        <time>2021-05-20T10:36:59Z</time>
      </trkpt>
      <trkpt lat="42.2200940" lon="-8.7167420">
        <ele>28.1</ele>
        <time>2021-05-20T10:37:00Z</time>
      </trkpt>
      <trkpt lat="42.2200950" lon="-8.7167590">
        <ele>28.2</ele>
        <time>2021-05-20T10:37:01Z</time>
      </trkpt>
      <trkpt lat="42.2200980" lon="-8.7167710">
        <ele>28.3</ele>
        <time>2021-05-20T10:37:02Z</time>
      </trkpt>
      <trkpt lat="42.2201070" lon="-8.7167770">
        <ele>28.3</ele>
        <time>2021-05-20T10:37:03Z</time>
      </trkpt>
      <trkpt lat="42.2201180" lon="-8.7167860">
        <ele>28.4</ele>
        <time>2021-05-20T10:37:04Z</time>
      </trkpt>
      <trkpt lat="42.2201290" lon="-8.7167940">
        <ele>28.5</ele>
        <time>2021-05-20T10:37:05Z</time>
      </trkpt>
      <trkpt lat="42.2201360" lon="-8.7168030">
        <ele>28.6</ele>
        <time>2021-05-20T10:37:06Z</time>
      </trkpt>
      <trkpt lat="42.2201560" lon="-8.7168130">
        <ele>28.7</ele>
        <time>2021-05-20T10:37:07Z</time>
      </trkpt>
      <trkpt lat="42.2201640" lon="-8.7168150">
        <ele>28.8</ele>
        <time>2021-05-20T10:37:08Z</time>
      </trkpt>
      <trkpt lat="42.2201710" lon="-8.7168180">
        <ele>28.8</ele>
        <time>2021-05-20T10:37:09Z</time>
      </trkpt>
      <trkpt lat="42.2201890" lon="-8.7168300">
        <ele>29.0</ele>
        <time>2021-05-20T10:37:10Z</time>
      </trkpt>
      <trkpt lat="42.2201980" lon="-8.7168370">
        <ele>29.0</ele>
        <time>2021-05-20T10:37:11Z</time>
      </trkpt>
      <trkpt lat="42.2202060" lon="-8.7168450">
        <ele>29.1</ele>
        <time>2021-05-20T10:37:12Z</time>
      </trkpt>
      <trkpt lat="42.2202100" lon="-8.7168500">
        <ele>29.1</ele>
        <time>2021-05-20T10:37:13Z</time>
      </trkpt>
      <trkpt lat="42.2202200" lon="-8.7168620">
        <ele>29.7</ele>
        <time>2021-05-20T10:37:14Z</time>
      </trkpt>
      <trkpt lat="42.2202360" lon="-8.7168680">
        <ele>29.8</ele>
        <time>2021-05-20T10:37:15Z</time>
      </trkpt>
      <trkpt lat="42.2202440" lon="-8.7168750">
        <ele>29.9</ele>
        <time>2021-05-20T10:37:16Z</time>
      </trkpt>
      <trkpt lat="42.2202560" lon="-8.7168840">
        <ele>30.0</ele>
        <time>2021-05-20T10:37:17Z</time>
      </trkpt>
      <trkpt lat="42.2202610" lon="-8.7168940">
        <ele>30.1</ele>
        <time>2021-05-20T10:37:18Z</time>
      </trkpt>
      <trkpt lat="42.2202710" lon="-8.7168960">
        <ele>30.2</ele>
        <time>2021-05-20T10:37:19Z</time>
      </trkpt>
      <trkpt lat="42.2202810" lon="-8.7169010">
        <ele>30.3</ele>
        <time>2021-05-20T10:37:20Z</time>
      </trkpt>
      <trkpt lat="42.2202930" lon="-8.7169090">
        <ele>30.5</ele>
        <time>2021-05-20T10:37:21Z</time>
      </trkpt>
      <trkpt lat="42.2202900" lon="-8.7169160">
        <ele>30.5</ele>
        <time>2021-05-20T10:37:22Z</time>
      </trkpt>
      <trkpt lat="42.2202920" lon="-8.7169240">
        <ele>30.6</ele>
        <time>2021-05-20T10:37:23Z</time>
      </trkpt>
      <trkpt lat="42.2203110" lon="-8.7169230">
        <ele>30.7</ele>
        <time>2021-05-20T10:37:24Z</time>
      </trkpt>
      <trkpt lat="42.2203210" lon="-8.7169230">
        <ele>30.8</ele>
        <time>2021-05-20T10:37:25Z</time>
      </trkpt>
      <trkpt lat="42.2203360" lon="-8.7169200">
        <ele>31.0</ele>
        <time>2021-05-20T10:37:26Z</time>
      </trkpt>
      <trkpt lat="42.2203350" lon="-8.7169180">
        <ele>31.0</ele>
        <time>2021-05-20T10:37:27Z</time>
      </trkpt>
      <trkpt lat="42.2203510" lon="-8.7169160">
        <ele>31.2</ele>
        <time>2021-05-20T10:37:28Z</time>
      </trkpt>
      <trkpt lat="42.2203580" lon="-8.7169090">
        <ele>31.2</ele>
        <time>2021-05-20T10:37:29Z</time>
      </trkpt>
      <trkpt lat="42.2203710" lon="-8.7169060">
        <ele>31.4</ele>
        <time>2021-05-20T10:37:30Z</time>
      </trkpt>
      <trkpt lat="42.2203830" lon="-8.7169040">
        <ele>31.5</ele>
        <time>2021-05-20T10:37:31Z</time>
      </trkpt>
      <trkpt lat="42.2203920" lon="-8.7169000">
        <ele>31.6</ele>
        <time>2021-05-20T10:37:32Z</time>
      </trkpt>
      <trkpt lat="42.2203990" lon="-8.7168940">
        <ele>31.7</ele>
        <time>2021-05-20T10:37:33Z</time>
      </trkpt>
      <trkpt lat="42.2204010" lon="-8.7168900">
        <ele>31.7</ele>
        <time>2021-05-20T10:37:34Z</time>
      </trkpt>
      <trkpt lat="42.2204140" lon="-8.7168820">
        <ele>31.8</ele>
        <time>2021-05-20T10:37:35Z</time>
      </trkpt>
      <trkpt lat="42.2204200" lon="-8.7168740">
        <ele>31.9</ele>
        <time>2021-05-20T10:37:36Z</time>
      </trkpt>
      <trkpt lat="42.2204260" lon="-8.7168630">
        <ele>32.0</ele>
        <time>2021-05-20T10:37:37Z</time>
      </trkpt>
      <trkpt lat="42.2204440" lon="-8.7168560">
        <ele>32.2</ele>
        <time>2021-05-20T10:37:38Z</time>
      </trkpt>
      <trkpt lat="42.2204490" lon="-8.7168480">
        <ele>32.3</ele>
        <time>2021-05-20T10:37:39Z</time>
      </trkpt>
      <trkpt lat="42.2204610" lon="-8.7168400">
        <ele>32.4</ele>
        <time>2021-05-20T10:37:40Z</time>
      </trkpt>
      <trkpt lat="42.2204720" lon="-8.7168360">
        <ele>32.5</ele>
        <time>2021-05-20T10:37:41Z</time>
      </trkpt>
      <trkpt lat="42.2204850" lon="-8.7168280">
        <ele>32.7</ele>
        <time>2021-05-20T10:37:42Z</time>
      </trkpt>
      <trkpt lat="42.2204910" lon="-8.7168220">
        <ele>32.8</ele>
        <time>2021-05-20T10:37:43Z</time>
      </trkpt>
      <trkpt lat="42.2205000" lon="-8.7168140">
        <ele>32.9</ele>
        <time>2021-05-20T10:37:44Z</time>
      </trkpt>
      <trkpt lat="42.2205080" lon="-8.7168040">
        <ele>33.0</ele>
        <time>2021-05-20T10:37:45Z</time>
      </trkpt>
      <trkpt lat="42.2205210" lon="-8.7167980">
        <ele>33.1</ele>
        <time>2021-05-20T10:37:46Z</time>
      </trkpt>
      <trkpt lat="42.2205270" lon="-8.7167930">
        <ele>33.2</ele>
        <time>2021-05-20T10:37:47Z</time>
      </trkpt>
      <trkpt lat="42.2205380" lon="-8.7167870">
        <ele>33.3</ele>
        <time>2021-05-20T10:37:48Z</time>
      </trkpt>
      <trkpt lat="42.2205470" lon="-8.7167830">
        <ele>33.4</ele>
        <time>2021-05-20T10:37:49Z</time>
      </trkpt>
      <trkpt lat="42.2205580" lon="-8.7167740">
        <ele>33.5</ele>
        <time>2021-05-20T10:37:50Z</time>
      </trkpt>
      <trkpt lat="42.2205700" lon="-8.7167700">
        <ele>33.6</ele>
        <time>2021-05-20T10:37:51Z</time>
      </trkpt>
      <trkpt lat="42.2205770" lon="-8.7167670">
        <ele>33.7</ele>
        <time>2021-05-20T10:37:52Z</time>
      </trkpt>
      <trkpt lat="42.2205850" lon="-8.7167600">
        <ele>33.8</ele>
        <time>2021-05-20T10:37:53Z</time>
      </trkpt>
      <trkpt lat="42.2206090" lon="-8.7167490">
        <ele>34.1</ele>
        <time>2021-05-20T10:37:54Z</time>
      </trkpt>
      <trkpt lat="42.2206210" lon="-8.7167440">
        <ele>34.2</ele>
        <time>2021-05-20T10:37:55Z</time>
      </trkpt>
      <trkpt lat="42.2206200" lon="-8.7167450">
        <ele>34.2</ele>
        <time>2021-05-20T10:37:56Z</time>
      </trkpt>
      <trkpt lat="42.2206280" lon="-8.7167370">
        <ele>34.3</ele>
        <time>2021-05-20T10:37:57Z</time>
      </trkpt>
      <trkpt lat="42.2206380" lon="-8.7167380">
        <ele>34.4</ele>
        <time>2021-05-20T10:37:58Z</time>
      </trkpt>
      <trkpt lat="42.2206470" lon="-8.7167360">
        <ele>34.5</ele>
        <time>2021-05-20T10:37:59Z</time>
      </trkpt>
      <trkpt lat="42.2206550" lon="-8.7167300">
        <ele>34.6</ele>
        <time>2021-05-20T10:38:00Z</time>
      </trkpt>
      <trkpt lat="42.2206660" lon="-8.7167280">
        <ele>34.7</ele>
        <time>2021-05-20T10:38:01Z</time>
      </trkpt>
      <trkpt lat="42.2206830" lon="-8.7167270">
        <ele>34.8</ele>
        <time>2021-05-20T10:38:02Z</time>
      </trkpt>
      <trkpt lat="42.2206940" lon="-8.7167250">
        <ele>35.0</ele>
        <time>2021-05-20T10:38:03Z</time>
      </trkpt>
      <trkpt lat="42.2207020" lon="-8.7167250">
        <ele>35.0</ele>
        <time>2021-05-20T10:38:04Z</time>
      </trkpt>
      <trkpt lat="42.2207090" lon="-8.7167260">
        <ele>35.1</ele>
        <time>2021-05-20T10:38:05Z</time>
      </trkpt>
      <trkpt lat="42.2207160" lon="-8.7167270">
        <ele>35.2</ele>
        <time>2021-05-20T10:38:06Z</time>
      </trkpt>
      <trkpt lat="42.2207230" lon="-8.7167280">
        <ele>35.2</ele>
        <time>2021-05-20T10:38:07Z</time>
      </trkpt>
      <trkpt lat="42.2207310" lon="-8.7167280">
        <ele>35.3</ele>
        <time>2021-05-20T10:38:08Z</time>
      </trkpt>
      <trkpt lat="42.2207380" lon="-8.7167290">
        <ele>35.4</ele>
        <time>2021-05-20T10:38:09Z</time>
      </trkpt>
      <trkpt lat="42.2207450" lon="-8.7167300">
        <ele>35.5</ele>
        <time>2021-05-20T10:38:10Z</time>
      </trkpt>
      <trkpt lat="42.2207460" lon="-8.7167360">
        <ele>35.5</ele>
        <time>2021-05-20T10:38:11Z</time>
      </trkpt>
      <trkpt lat="42.2207490" lon="-8.7167370">
        <ele>35.5</ele>
        <time>2021-05-20T10:38:12Z</time>
      </trkpt>
      <trkpt lat="42.2207560" lon="-8.7167380">
        <ele>35.6</ele>
        <time>2021-05-20T10:38:13Z</time>
      </trkpt>
      <trkpt lat="42.2207630" lon="-8.7167430">
        <ele>35.7</ele>
        <time>2021-05-20T10:38:14Z</time>
      </trkpt>
      <trkpt lat="42.2207740" lon="-8.7167440">
        <ele>35.8</ele>
        <time>2021-05-20T10:38:15Z</time>
      </trkpt>
      <trkpt lat="42.2207740" lon="-8.7167450">
        <ele>35.8</ele>
        <time>2021-05-20T10:38:16Z</time>
      </trkpt>
      <trkpt lat="42.2207770" lon="-8.7167470">
        <ele>35.8</ele>
        <time>2021-05-20T10:38:17Z</time>
      </trkpt>
      <trkpt lat="42.2207800" lon="-8.7167490">
        <ele>35.9</ele>
        <time>2021-05-20T10:38:18Z</time>
      </trkpt>
      <trkpt lat="42.2207830" lon="-8.7167470">
        <ele>35.9</ele>
        <time>2021-05-20T10:38:19Z</time>
      </trkpt>
      <trkpt lat="42.2207910" lon="-8.7167430">
        <ele>36.0</ele>
        <time>2021-05-20T10:38:20Z</time>
      </trkpt>
      <trkpt lat="42.2207980" lon="-8.7167400">
        <ele>36.1</ele>
        <time>2021-05-20T10:38:21Z</time>
      </trkpt>
      <trkpt lat="42.2208090" lon="-8.7167440">
        <ele>36.2</ele>
        <time>2021-05-20T10:38:22Z</time>
      </trkpt>
      <trkpt lat="42.2208310" lon="-8.7167380">
        <ele>36.4</ele>
        <time>2021-05-20T10:38:23Z</time>
      </trkpt>
      <trkpt lat="42.2208380" lon="-8.7167380">
        <ele>36.5</ele>
        <time>2021-05-20T10:38:24Z</time>
      </trkpt>
      <trkpt lat="42.2208460" lon="-8.7167390">
        <ele>36.6</ele>
        <time>2021-05-20T10:38:25Z</time>
      </trkpt>
      <trkpt lat="42.2208570" lon="-8.7167410">
        <ele>36.7</ele>
        <time>2021-05-20T10:38:26Z</time>
      </trkpt>
      <trkpt lat="42.2208610" lon="-8.7167440">
        <ele>36.7</ele>
        <time>2021-05-20T10:38:27Z</time>
      </trkpt>
      <trkpt lat="42.2208740" lon="-8.7167510">
        <ele>36.9</ele>
        <time>2021-05-20T10:38:28Z</time>
      </trkpt>
      <trkpt lat="42.2208810" lon="-8.7167470">
        <ele>37.0</ele>
        <time>2021-05-20T10:38:29Z</time>
      </trkpt>
      <trkpt lat="42.2208940" lon="-8.7167430">
        <ele>37.1</ele>
        <time>2021-05-20T10:38:30Z</time>
      </trkpt>
      <trkpt lat="42.2209030" lon="-8.7167360">
        <ele>37.2</ele>
        <time>2021-05-20T10:38:31Z</time>
      </trkpt>
      <trkpt lat="42.2209090" lon="-8.7167280">
        <ele>37.3</ele>
        <time>2021-05-20T10:38:32Z</time>
      </trkpt>
      <trkpt lat="42.2209140" lon="-8.7167250">
        <ele>37.4</ele>
        <time>2021-05-20T10:38:33Z</time>
      </trkpt>
      <trkpt lat="42.2209240" lon="-8.7167150">
        <ele>37.5</ele>
        <time>2021-05-20T10:38:34Z</time>
      </trkpt>
      <trkpt lat="42.2209300" lon="-8.7167170">
        <ele>37.6</ele>
        <time>2021-05-20T10:38:35Z</time>
      </trkpt>
      <trkpt lat="42.2209450" lon="-8.7167190">
        <ele>37.7</ele>
        <time>2021-05-20T10:38:36Z</time>
      </trkpt>
      <trkpt lat="42.2209590" lon="-8.7167180">
        <ele>37.9</ele>
        <time>2021-05-20T10:38:37Z</time>
      </trkpt>
      <trkpt lat="42.2209720" lon="-8.7167190">
        <ele>38.1</ele>
        <time>2021-05-20T10:38:38Z</time>
      </trkpt>
      <trkpt lat="42.2209780" lon="-8.7167210">
        <ele>38.2</ele>
        <time>2021-05-20T10:38:39Z</time>
      </trkpt>
      <trkpt lat="42.2209850" lon="-8.7167290">
        <ele>38.3</ele>
        <time>2021-05-20T10:38:40Z</time>
      </trkpt>
      <trkpt lat="42.2209810" lon="-8.7167350">
        <ele>38.4</ele>
        <time>2021-05-20T10:38:41Z</time>
      </trkpt>
      <trkpt lat="42.2209810" lon="-8.7167410">
        <ele>38.4</ele>
        <time>2021-05-20T10:38:42Z</time>
      </trkpt>
      <trkpt lat="42.2209960" lon="-8.7167470">
        <ele>38.6</ele>
        <time>2021-05-20T10:38:43Z</time>
      </trkpt>
      <trkpt lat="42.2209950" lon="-8.7167510">
        <ele>38.7</ele>
        <time>2021-05-20T10:38:44Z</time>
      </trkpt>
      <trkpt lat="42.2210040" lon="-8.7167490">
        <ele>38.8</ele>
        <time>2021-05-20T10:38:45Z</time>
      </trkpt>
      <trkpt lat="42.2210160" lon="-8.7167540">
        <ele>38.9</ele>
        <time>2021-05-20T10:38:46Z</time>
      </trkpt>
      <trkpt lat="42.2210370" lon="-8.7167480">
        <ele>39.2</ele>
        <time>2021-05-20T10:38:47Z</time>
      </trkpt>
      <trkpt lat="42.2210460" lon="-8.7167450">
        <ele>39.3</ele>
        <time>2021-05-20T10:38:48Z</time>
      </trkpt>
      <trkpt lat="42.2210550" lon="-8.7167430">
        <ele>39.5</ele>
        <time>2021-05-20T10:38:49Z</time>
      </trkpt>
      <trkpt lat="42.2210700" lon="-8.7167320">
        <ele>39.7</ele>
        <time>2021-05-20T10:38:50Z</time>
      </trkpt>
      <trkpt lat="42.2210870" lon="-8.7167270">
        <ele>39.9</ele>
        <time>2021-05-20T10:38:51Z</time>
      </trkpt>
      <trkpt lat="42.2211010" lon="-8.7167210">
        <ele>40.1</ele>
        <time>2021-05-20T10:38:52Z</time>
      </trkpt>
      <trkpt lat="42.2211170" lon="-8.7167130">
        <ele>40.3</ele>
        <time>2021-05-20T10:38:53Z</time>
      </trkpt>
      <trkpt lat="42.2211320" lon="-8.7167120">
        <ele>40.5</ele>
        <time>2021-05-20T10:38:54Z</time>
      </trkpt>
      <trkpt lat="42.2211480" lon="-8.7167040">
        <ele>40.7</ele>
        <time>2021-05-20T10:38:55Z</time>
      </trkpt>
      <trkpt lat="42.2211670" lon="-8.7166980">
        <ele>41.0</ele>
        <time>2021-05-20T10:38:56Z</time>
      </trkpt>
      <trkpt lat="42.2211750" lon="-8.7166940">
        <ele>41.1</ele>
        <time>2021-05-20T10:38:57Z</time>
      </trkpt>
      <trkpt lat="42.2211840" lon="-8.7166910">
        <ele>41.2</ele>
        <time>2021-05-20T10:38:58Z</time>
      </trkpt>
      <trkpt lat="42.2211920" lon="-8.7166870">
        <ele>41.3</ele>
        <time>2021-05-20T10:38:59Z</time>
      </trkpt>
      <trkpt lat="42.2212010" lon="-8.7166850">
        <ele>41.4</ele>
        <time>2021-05-20T10:39:00Z</time>
      </trkpt>
      <trkpt lat="42.2212020" lon="-8.7166910">
        <ele>41.5</ele>
        <time>2021-05-20T10:39:01Z</time>
      </trkpt>
      <trkpt lat="42.2212220" lon="-8.7166840">
        <ele>41.7</ele>
        <time>2021-05-20T10:39:02Z</time>
      </trkpt>
      <trkpt lat="42.2212260" lon="-8.7166830">
        <ele>41.8</ele>
        <time>2021-05-20T10:39:03Z</time>
      </trkpt>
      <trkpt lat="42.2212410" lon="-8.7166890">
        <ele>42.0</ele>
        <time>2021-05-20T10:39:04Z</time>
      </trkpt>
      <trkpt lat="42.2212550" lon="-8.7166920">
        <ele>42.2</ele>
        <time>2021-05-20T10:39:05Z</time>
      </trkpt>
      <trkpt lat="42.2212700" lon="-8.7166930">
        <ele>42.3</ele>
        <time>2021-05-20T10:39:06Z</time>
      </trkpt>
      <trkpt lat="42.2212860" lon="-8.7166930">
        <ele>42.6</ele>
        <time>2021-05-20T10:39:07Z</time>
      </trkpt>
      <trkpt lat="42.2212980" lon="-8.7166920">
        <ele>42.7</ele>
        <time>2021-05-20T10:39:08Z</time>
      </trkpt>
      <trkpt lat="42.2213100" lon="-8.7166890">
        <ele>42.9</ele>
        <time>2021-05-20T10:39:09Z</time>
      </trkpt>
      <trkpt lat="42.2213210" lon="-8.7166840">
        <ele>43.0</ele>
        <time>2021-05-20T10:39:10Z</time>
      </trkpt>
      <trkpt lat="42.2213290" lon="-8.7166830">
        <ele>43.1</ele>
        <time>2021-05-20T10:39:11Z</time>
      </trkpt>
      <trkpt lat="42.2213400" lon="-8.7166870">
        <ele>43.3</ele>
        <time>2021-05-20T10:39:12Z</time>
      </trkpt>
      <trkpt lat="42.2213520" lon="-8.7166860">
        <ele>43.5</ele>
        <time>2021-05-20T10:39:13Z</time>
      </trkpt>
      <trkpt lat="42.2213690" lon="-8.7166970">
        <ele>43.7</ele>
        <time>2021-05-20T10:39:14Z</time>
      </trkpt>
      <trkpt lat="42.2213770" lon="-8.7167020">
        <ele>43.8</ele>
        <time>2021-05-20T10:39:15Z</time>
      </trkpt>
      <trkpt lat="42.2213860" lon="-8.7167070">
        <ele>44.0</ele>
        <time>2021-05-20T10:39:16Z</time>
      </trkpt>
      <trkpt lat="42.2213940" lon="-8.7167150">
        <ele>44.1</ele>
        <time>2021-05-20T10:39:17Z</time>
      </trkpt>
      <trkpt lat="42.2213990" lon="-8.7167220">
        <ele>44.2</ele>
        <time>2021-05-20T10:39:18Z</time>
      </trkpt>
      <trkpt lat="42.2214140" lon="-8.7167310">
        <ele>44.4</ele>
        <time>2021-05-20T10:39:19Z</time>
      </trkpt>
      <trkpt lat="42.2214270" lon="-8.7167330">
        <ele>44.6</ele>
        <time>2021-05-20T10:39:20Z</time>
      </trkpt>
      <trkpt lat="42.2214340" lon="-8.7167390">
        <ele>44.7</ele>
        <time>2021-05-20T10:39:21Z</time>
      </trkpt>
      <trkpt lat="42.2214420" lon="-8.7167410">
        <ele>44.8</ele>
        <time>2021-05-20T10:39:22Z</time>
      </trkpt>
      <trkpt lat="42.2214510" lon="-8.7167400">
        <ele>45.0</ele>
        <time>2021-05-20T10:39:23Z</time>
      </trkpt>
      <trkpt lat="42.2214600" lon="-8.7167290">
        <ele>45.1</ele>
        <time>2021-05-20T10:39:24Z</time>
      </trkpt>
      <trkpt lat="42.2214700" lon="-8.7167280">
        <ele>45.3</ele>
        <time>2021-05-20T10:39:25Z</time>
      </trkpt>
      <trkpt lat="42.2214780" lon="-8.7167300">
        <ele>45.4</ele>
        <time>2021-05-20T10:39:26Z</time>
      </trkpt>
      <trkpt lat="42.2214890" lon="-8.7167310">
        <ele>45.5</ele>
        <time>2021-05-20T10:39:27Z</time>
      </trkpt>
      <trkpt lat="42.2214950" lon="-8.7167270">
        <ele>45.6</ele>
        <time>2021-05-20T10:39:28Z</time>
      </trkpt>
      <trkpt lat="42.2215010" lon="-8.7167240">
        <ele>45.7</ele>
        <time>2021-05-20T10:39:29Z</time>
      </trkpt>
      <trkpt lat="42.2215100" lon="-8.7167170">
        <ele>45.9</ele>
        <time>2021-05-20T10:39:30Z</time>
      </trkpt>
      <trkpt lat="42.2215150" lon="-8.7167180">
        <ele>45.9</ele>
        <time>2021-05-20T10:39:31Z</time>
      </trkpt>
      <trkpt lat="42.2215230" lon="-8.7167130">
        <ele>46.1</ele>
        <time>2021-05-20T10:39:32Z</time>
      </trkpt>
      <trkpt lat="42.2215330" lon="-8.7167130">
        <ele>46.2</ele>
        <time>2021-05-20T10:39:33Z</time>
      </trkpt>
      <trkpt lat="42.2215380" lon="-8.7167100">
        <ele>46.3</ele>
        <time>2021-05-20T10:39:34Z</time>
      </trkpt>
      <trkpt lat="42.2215460" lon="-8.7167050">
        <ele>46.4</ele>
        <time>2021-05-20T10:39:35Z</time>
      </trkpt>
      <trkpt lat="42.2215640" lon="-8.7167020">
        <ele>46.7</ele>
        <time>2021-05-20T10:39:36Z</time>
      </trkpt>
      <trkpt lat="42.2215820" lon="-8.7167110">
        <ele>46.9</ele>
        <time>2021-05-20T10:39:37Z</time>
      </trkpt>
      <trkpt lat="42.2215890" lon="-8.7167130">
        <ele>47.0</ele>
        <time>2021-05-20T10:39:38Z</time>
      </trkpt>
      <trkpt lat="42.2215950" lon="-8.7167150">
        <ele>47.1</ele>
        <time>2021-05-20T10:39:39Z</time>
      </trkpt>
      <trkpt lat="42.2216010" lon="-8.7167170">
        <ele>47.2</ele>
        <time>2021-05-20T10:39:40Z</time>
      </trkpt>
      <trkpt lat="42.2216060" lon="-8.7167150">
        <ele>47.3</ele>
        <time>2021-05-20T10:39:41Z</time>
      </trkpt>
      <trkpt lat="42.2216200" lon="-8.7167100">
        <ele>47.5</ele>
        <time>2021-05-20T10:39:42Z</time>
      </trkpt>
      <trkpt lat="42.2216330" lon="-8.7167060">
        <ele>47.7</ele>
        <time>2021-05-20T10:39:43Z</time>
      </trkpt>
      <trkpt lat="42.2216430" lon="-8.7167080">
        <ele>47.8</ele>
        <time>2021-05-20T10:39:44Z</time>
      </trkpt>
      <trkpt lat="42.2216600" lon="-8.7167060">
        <ele>48.0</ele>
        <time>2021-05-20T10:39:45Z</time>
      </trkpt>
      <trkpt lat="42.2216770" lon="-8.7167070">
        <ele>48.3</ele>
        <time>2021-05-20T10:39:46Z</time>
      </trkpt>
      <trkpt lat="42.2216770" lon="-8.7167150">
        <ele>48.3</ele>
        <time>2021-05-20T10:39:47Z</time>
      </trkpt>
      <trkpt lat="42.2216870" lon="-8.7167160">
        <ele>48.5</ele>
        <time>2021-05-20T10:39:48Z</time>
      </trkpt>
      <trkpt lat="42.2217060" lon="-8.7167210">
        <ele>48.7</ele>
        <time>2021-05-20T10:39:49Z</time>
      </trkpt>
      <trkpt lat="42.2217150" lon="-8.7167240">
        <ele>48.9</ele>
        <time>2021-05-20T10:39:50Z</time>
      </trkpt>
      <trkpt lat="42.2217240" lon="-8.7167270">
        <ele>49.0</ele>
        <time>2021-05-20T10:39:51Z</time>
      </trkpt>
      <trkpt lat="42.2217310" lon="-8.7167310">
        <ele>49.1</ele>
        <time>2021-05-20T10:39:52Z</time>
      </trkpt>
      <trkpt lat="42.2217450" lon="-8.7167350">
        <ele>49.3</ele>
        <time>2021-05-20T10:39:53Z</time>
      </trkpt>
      <trkpt lat="42.2217530" lon="-8.7167340">
        <ele>49.4</ele>
        <time>2021-05-20T10:39:54Z</time>
      </trkpt>
      <trkpt lat="42.2217660" lon="-8.7167410">
        <ele>49.6</ele>
        <time>2021-05-20T10:39:55Z</time>
      </trkpt>
      <trkpt lat="42.2217810" lon="-8.7167390">
        <ele>49.8</ele>
        <time>2021-05-20T10:39:56Z</time>
      </trkpt>
      <trkpt lat="42.2217860" lon="-8.7167440">
        <ele>49.9</ele>
        <time>2021-05-20T10:39:57Z</time>
      </trkpt>
      <trkpt lat="42.2217970" lon="-8.7167470">
        <ele>50.0</ele>
        <time>2021-05-20T10:39:58Z</time>
      </trkpt>
      <trkpt lat="42.2218100" lon="-8.7167480">
        <ele>50.2</ele>
        <time>2021-05-20T10:39:59Z</time>
      </trkpt>
      <trkpt lat="42.2218270" lon="-8.7167520">
        <ele>50.4</ele>
        <time>2021-05-20T10:40:00Z</time>
      </trkpt>
      <trkpt lat="42.2218400" lon="-8.7167530">
        <ele>50.6</ele>
        <time>2021-05-20T10:40:01Z</time>
      </trkpt>
      <trkpt lat="42.2218520" lon="-8.7167530">
        <ele>50.7</ele>
        <time>2021-05-20T10:40:02Z</time>
      </trkpt>
      <trkpt lat="42.2218520" lon="-8.7167490">
        <ele>50.8</ele>
        <time>2021-05-20T10:40:03Z</time>
      </trkpt>
      <trkpt lat="42.2218570" lon="-8.7167440">
        <ele>50.9</ele>
        <time>2021-05-20T10:40:04Z</time>
      </trkpt>
      <trkpt lat="42.2218670" lon="-8.7167470">
        <ele>51.0</ele>
        <time>2021-05-20T10:40:05Z</time>
      </trkpt>
      <trkpt lat="42.2218760" lon="-8.7167600">
        <ele>51.2</ele>
        <time>2021-05-20T10:40:06Z</time>
      </trkpt>
      <trkpt lat="42.2218870" lon="-8.7167600">
        <ele>51.3</ele>
        <time>2021-05-20T10:40:07Z</time>
      </trkpt>
      <trkpt lat="42.2218840" lon="-8.7167670">
        <ele>51.4</ele>
        <time>2021-05-20T10:40:08Z</time>
      </trkpt>
      <trkpt lat="42.2218960" lon="-8.7167700">
        <ele>51.5</ele>
        <time>2021-05-20T10:40:09Z</time>
      </trkpt>
      <trkpt lat="42.2219140" lon="-8.7167790">
        <ele>51.8</ele>
        <time>2021-05-20T10:40:10Z</time>
      </trkpt>
      <trkpt lat="42.2219220" lon="-8.7167830">
        <ele>51.9</ele>
        <time>2021-05-20T10:40:11Z</time>
      </trkpt>
      <trkpt lat="42.2219410" lon="-8.7167720">
        <ele>52.2</ele>
        <time>2021-05-20T10:40:12Z</time>
      </trkpt>
      <trkpt lat="42.2219550" lon="-8.7167750">
        <ele>52.3</ele>
        <time>2021-05-20T10:40:13Z</time>
      </trkpt>
      <trkpt lat="42.2219720" lon="-8.7167770">
        <ele>52.6</ele>
        <time>2021-05-20T10:40:14Z</time>
      </trkpt>
      <trkpt lat="42.2219720" lon="-8.7167850">
        <ele>52.6</ele>
        <time>2021-05-20T10:40:15Z</time>
      </trkpt>
      <trkpt lat="42.2219870" lon="-8.7167900">
        <ele>52.8</ele>
        <time>2021-05-20T10:40:16Z</time>
      </trkpt>
      <trkpt lat="42.2220000" lon="-8.7167980">
        <ele>53.0</ele>
        <time>2021-05-20T10:40:17Z</time>
      </trkpt>
      <trkpt lat="42.2220090" lon="-8.7168000">
        <ele>53.1</ele>
        <time>2021-05-20T10:40:18Z</time>
      </trkpt>
      <trkpt lat="42.2220160" lon="-8.7168020">
        <ele>53.2</ele>
        <time>2021-05-20T10:40:19Z</time>
      </trkpt>
      <trkpt lat="42.2220280" lon="-8.7168060">
        <ele>53.4</ele>
        <time>2021-05-20T10:40:20Z</time>
      </trkpt>
      <trkpt lat="42.2220410" lon="-8.7168080">
        <ele>53.5</ele>
        <time>2021-05-20T10:40:21Z</time>
      </trkpt>
      <trkpt lat="42.2220440" lon="-8.7168130">
        <ele>53.6</ele>
        <time>2021-05-20T10:40:22Z</time>
      </trkpt>
      <trkpt lat="42.2220570" lon="-8.7168140">
        <ele>53.7</ele>
        <time>2021-05-20T10:40:23Z</time>
      </trkpt>
      <trkpt lat="42.2220600" lon="-8.7168230">
        <ele>53.8</ele>
        <time>2021-05-20T10:40:24Z</time>
      </trkpt>
      <trkpt lat="42.2220660" lon="-8.7168220">
        <ele>53.9</ele>
        <time>2021-05-20T10:40:25Z</time>
      </trkpt>
      <trkpt lat="42.2220760" lon="-8.7168250">
        <ele>54.0</ele>
        <time>2021-05-20T10:40:26Z</time>
      </trkpt>
      <trkpt lat="42.2220810" lon="-8.7168310">
        <ele>54.1</ele>
        <time>2021-05-20T10:40:27Z</time>
      </trkpt>
      <trkpt lat="42.2220940" lon="-8.7168340">
        <ele>54.3</ele>
        <time>2021-05-20T10:40:28Z</time>
      </trkpt>
      <trkpt lat="42.2221100" lon="-8.7168360">
        <ele>54.5</ele>
        <time>2021-05-20T10:40:29Z</time>
      </trkpt>
      <trkpt lat="42.2221190" lon="-8.7168370">
        <ele>54.6</ele>
        <time>2021-05-20T10:40:30Z</time>
      </trkpt>
      <trkpt lat="42.2221230" lon="-8.7168410">
        <ele>54.6</ele>
        <time>2021-05-20T10:40:31Z</time>
      </trkpt>
      <trkpt lat="42.2221280" lon="-8.7168470">
        <ele>54.7</ele>
        <time>2021-05-20T10:40:32Z</time>
      </trkpt>
      <trkpt lat="42.2221340" lon="-8.7168470">
        <ele>54.8</ele>
        <time>2021-05-20T10:40:33Z</time>
      </trkpt>
      <trkpt lat="42.2221410" lon="-8.7168470">
        <ele>54.9</ele>
        <time>2021-05-20T10:40:34Z</time>
      </trkpt>
      <trkpt lat="42.2221610" lon="-8.7168520">
        <ele>55.1</ele>
        <time>2021-05-20T10:40:35Z</time>
      </trkpt>
      <trkpt lat="42.2221710" lon="-8.7168520">
        <ele>55.3</ele>
        <time>2021-05-20T10:40:36Z</time>
      </trkpt>
      <trkpt lat="42.2221820" lon="-8.7168530">
        <ele>55.4</ele>
        <time>2021-05-20T10:40:37Z</time>
      </trkpt>
      <trkpt lat="42.2221940" lon="-8.7168590">
        <ele>55.6</ele>
        <time>2021-05-20T10:40:38Z</time>
      </trkpt>
      <trkpt lat="42.2222140" lon="-8.7168490">
        <ele>55.9</ele>
        <time>2021-05-20T10:40:39Z</time>
      </trkpt>
      <trkpt lat="42.2222340" lon="-8.7168500">
        <ele>56.1</ele>
        <time>2021-05-20T10:40:40Z</time>
      </trkpt>
      <trkpt lat="42.2222450" lon="-8.7168490">
        <ele>56.2</ele>
        <time>2021-05-20T10:40:41Z</time>
      </trkpt>
      <trkpt lat="42.2222550" lon="-8.7168470">
        <ele>56.4</ele>
        <time>2021-05-20T10:40:42Z</time>
      </trkpt>
      <trkpt lat="42.2222620" lon="-8.7168450">
        <ele>56.5</ele>
        <time>2021-05-20T10:40:43Z</time>
      </trkpt>
      <trkpt lat="42.2222710" lon="-8.7168380">
        <ele>56.6</ele>
        <time>2021-05-20T10:40:44Z</time>
      </trkpt>
      <trkpt lat="42.2222860" lon="-8.7168370">
        <ele>56.8</ele>
        <time>2021-05-20T10:40:45Z</time>
      </trkpt>
      <trkpt lat="42.2223090" lon="-8.7168360">
        <ele>57.1</ele>
        <time>2021-05-20T10:40:46Z</time>
      </trkpt>
      <trkpt lat="42.2223170" lon="-8.7168410">
        <ele>57.2</ele>
        <time>2021-05-20T10:40:47Z</time>
      </trkpt>
      <trkpt lat="42.2223250" lon="-8.7168470">
        <ele>57.3</ele>
        <time>2021-05-20T10:40:48Z</time>
      </trkpt>
      <trkpt lat="42.2223440" lon="-8.7168530">
        <ele>57.5</ele>
        <time>2021-05-20T10:40:49Z</time>
      </trkpt>
      <trkpt lat="42.2223510" lon="-8.7168560">
        <ele>57.6</ele>
        <time>2021-05-20T10:40:50Z</time>
      </trkpt>
      <trkpt lat="42.2223590" lon="-8.7168600">
        <ele>57.7</ele>
        <time>2021-05-20T10:40:51Z</time>
      </trkpt>
      <trkpt lat="42.2223660" lon="-8.7168640">
        <ele>57.8</ele>
        <time>2021-05-20T10:40:52Z</time>
      </trkpt>
      <trkpt lat="42.2223730" lon="-8.7168700">
        <ele>57.9</ele>
        <time>2021-05-20T10:40:53Z</time>
      </trkpt>
      <trkpt lat="42.2223820" lon="-8.7168680">
        <ele>58.0</ele>
        <time>2021-05-20T10:40:54Z</time>
      </trkpt>
      <trkpt lat="42.2223970" lon="-8.7168700">
        <ele>58.2</ele>
        <time>2021-05-20T10:40:55Z</time>
      </trkpt>
      <trkpt lat="42.2224070" lon="-8.7168630">
        <ele>58.3</ele>
        <time>2021-05-20T10:40:56Z</time>
      </trkpt>
      <trkpt lat="42.2224130" lon="-8.7168700">
        <ele>58.4</ele>
        <time>2021-05-20T10:40:57Z</time>
      </trkpt>
      <trkpt lat="42.2224240" lon="-8.7168830">
        <ele>58.6</ele>
        <time>2021-05-20T10:40:58Z</time>
      </trkpt>
      <trkpt lat="42.2224300" lon="-8.7168950">
        <ele>58.7</ele>
        <time>2021-05-20T10:40:59Z</time>
      </trkpt>
      <trkpt lat="42.2224330" lon="-8.7168940">
        <ele>58.7</ele>
        <time>2021-05-20T10:41:00Z</time>
      </trkpt>
      <trkpt lat="42.2224340" lon="-8.7169010">
        <ele>58.8</ele>
        <time>2021-05-20T10:41:01Z</time>
      </trkpt>
      <trkpt lat="42.2224420" lon="-8.7169150">
        <ele>58.9</ele>
        <time>2021-05-20T10:41:02Z</time>
      </trkpt>
      <trkpt lat="42.2224510" lon="-8.7169190">
        <ele>59.1</ele>
        <time>2021-05-20T10:41:03Z</time>
      </trkpt>
      <trkpt lat="42.2224640" lon="-8.7169240">
        <ele>59.2</ele>
        <time>2021-05-20T10:41:04Z</time>
      </trkpt>
      <trkpt lat="42.2224720" lon="-8.7169320">
        <ele>59.3</ele>
        <time>2021-05-20T10:41:05Z</time>
      </trkpt>
      <trkpt lat="42.2224760" lon="-8.7169310">
        <ele>59.4</ele>
        <time>2021-05-20T10:41:06Z</time>
      </trkpt>
      <trkpt lat="42.2224850" lon="-8.7169380">
        <ele>59.4</ele>
        <time>2021-05-20T10:41:07Z</time>
      </trkpt>
      <trkpt lat="42.2224910" lon="-8.7169460">
        <ele>59.5</ele>
        <time>2021-05-20T10:41:08Z</time>
      </trkpt>
      <trkpt lat="42.2224980" lon="-8.7169430">
        <ele>59.6</ele>
        <time>2021-05-20T10:41:09Z</time>
      </trkpt>
      <trkpt lat="42.2225030" lon="-8.7169460">
        <ele>59.6</ele>
        <time>2021-05-20T10:41:10Z</time>
      </trkpt>
      <trkpt lat="42.2225050" lon="-8.7169450">
        <ele>59.7</ele>
        <time>2021-05-20T10:41:11Z</time>
      </trkpt>
      <trkpt lat="42.2225190" lon="-8.7169500">
        <ele>59.8</ele>
        <time>2021-05-20T10:41:12Z</time>
      </trkpt>
      <trkpt lat="42.2225220" lon="-8.7169490">
        <ele>59.8</ele>
        <time>2021-05-20T10:41:13Z</time>
      </trkpt>
      <trkpt lat="42.2225330" lon="-8.7169460">
        <ele>59.9</ele>
        <time>2021-05-20T10:41:14Z</time>
      </trkpt>
      <trkpt lat="42.2225460" lon="-8.7169500">
        <ele>60.0</ele>
        <time>2021-05-20T10:41:15Z</time>
      </trkpt>
      <trkpt lat="42.2225570" lon="-8.7169430">
        <ele>60.1</ele>
        <time>2021-05-20T10:41:16Z</time>
      </trkpt>
      <trkpt lat="42.2225670" lon="-8.7169500">
        <ele>60.2</ele>
        <time>2021-05-20T10:41:17Z</time>
      </trkpt>
      <trkpt lat="42.2225770" lon="-8.7169520">
        <ele>60.3</ele>
        <time>2021-05-20T10:41:18Z</time>
      </trkpt>
      <trkpt lat="42.2225930" lon="-8.7169410">
        <ele>60.4</ele>
        <time>2021-05-20T10:41:19Z</time>
      </trkpt>
      <trkpt lat="42.2226030" lon="-8.7169360">
        <ele>60.5</ele>
        <time>2021-05-20T10:41:20Z</time>
      </trkpt>
      <trkpt lat="42.2226140" lon="-8.7169360">
        <ele>60.6</ele>
        <time>2021-05-20T10:41:21Z</time>
      </trkpt>
      <trkpt lat="42.2226180" lon="-8.7169400">
        <ele>60.6</ele>
        <time>2021-05-20T10:41:22Z</time>
      </trkpt>
      <trkpt lat="42.2226270" lon="-8.7169510">
        <ele>60.7</ele>
        <time>2021-05-20T10:41:23Z</time>
      </trkpt>
      <trkpt lat="42.2226350" lon="-8.7169530">
        <ele>60.8</ele>
        <time>2021-05-20T10:41:24Z</time>
      </trkpt>
      <trkpt lat="42.2226530" lon="-8.7169450">
        <ele>60.9</ele>
        <time>2021-05-20T10:41:25Z</time>
      </trkpt>
      <trkpt lat="42.2226700" lon="-8.7169440">
        <ele>61.1</ele>
        <time>2021-05-20T10:41:26Z</time>
      </trkpt>
      <trkpt lat="42.2226740" lon="-8.7169430">
        <ele>61.1</ele>
        <time>2021-05-20T10:41:27Z</time>
      </trkpt>
      <trkpt lat="42.2226870" lon="-8.7169410">
        <ele>61.2</ele>
        <time>2021-05-20T10:41:28Z</time>
      </trkpt>
      <trkpt lat="42.2227080" lon="-8.7169410">
        <ele>61.4</ele>
        <time>2021-05-20T10:41:29Z</time>
      </trkpt>
      <trkpt lat="42.2227210" lon="-8.7169410">
        <ele>61.5</ele>
        <time>2021-05-20T10:41:30Z</time>
      </trkpt>
      <trkpt lat="42.2227350" lon="-8.7169370">
        <ele>61.6</ele>
        <time>2021-05-20T10:41:31Z</time>
      </trkpt>
      <trkpt lat="42.2227470" lon="-8.7169350">
        <ele>61.7</ele>
        <time>2021-05-20T10:41:32Z</time>
      </trkpt>
      <trkpt lat="42.2227580" lon="-8.7169340">
        <ele>61.7</ele>
        <time>2021-05-20T10:41:33Z</time>
      </trkpt>
      <trkpt lat="42.2227700" lon="-8.7169320">
        <ele>61.8</ele>
        <time>2021-05-20T10:41:34Z</time>
      </trkpt>
      <trkpt lat="42.2227930" lon="-8.7169280">
        <ele>62.0</ele>
        <time>2021-05-20T10:41:35Z</time>
      </trkpt>
      <trkpt lat="42.2228060" lon="-8.7169220">
        <ele>62.1</ele>
        <time>2021-05-20T10:41:36Z</time>
      </trkpt>
      <trkpt lat="42.2228170" lon="-8.7169100">
        <ele>62.2</ele>
        <time>2021-05-20T10:41:37Z</time>
      </trkpt>
      <trkpt lat="42.2228230" lon="-8.7169080">
        <ele>62.2</ele>
        <time>2021-05-20T10:41:38Z</time>
      </trkpt>
      <trkpt lat="42.2228340" lon="-8.7169070">
        <ele>62.3</ele>
        <time>2021-05-20T10:41:39Z</time>
      </trkpt>
      <trkpt lat="42.2228460" lon="-8.7169000">
        <ele>62.4</ele>
        <time>2021-05-20T10:41:40Z</time>
      </trkpt>
      <trkpt lat="42.2228540" lon="-8.7168990">
        <ele>62.4</ele>
        <time>2021-05-20T10:41:41Z</time>
      </trkpt>
      <trkpt lat="42.2228610" lon="-8.7168930">
        <ele>62.5</ele>
        <time>2021-05-20T10:41:42Z</time>
      </trkpt>
      <trkpt lat="42.2228730" lon="-8.7168880">
        <ele>62.5</ele>
        <time>2021-05-20T10:41:43Z</time>
      </trkpt>
      <trkpt lat="42.2228890" lon="-8.7168770">
        <ele>62.6</ele>
        <time>2021-05-20T10:41:44Z</time>
      </trkpt>
      <trkpt lat="42.2229000" lon="-8.7168680">
        <ele>62.7</ele>
        <time>2021-05-20T10:41:45Z</time>
      </trkpt>
      <trkpt lat="42.2229160" lon="-8.7168580">
        <ele>62.8</ele>
        <time>2021-05-20T10:41:46Z</time>
      </trkpt>
      <trkpt lat="42.2229250" lon="-8.7168500">
        <ele>62.9</ele>
        <time>2021-05-20T10:41:47Z</time>
      </trkpt>
      <trkpt lat="42.2229320" lon="-8.7168450">
        <ele>62.9</ele>
        <time>2021-05-20T10:41:48Z</time>
      </trkpt>
      <trkpt lat="42.2229410" lon="-8.7168370">
        <ele>63.0</ele>
        <time>2021-05-20T10:41:49Z</time>
      </trkpt>
      <trkpt lat="42.2229530" lon="-8.7168330">
        <ele>63.1</ele>
        <time>2021-05-20T10:41:50Z</time>
      </trkpt>
      <trkpt lat="42.2229590" lon="-8.7168280">
        <ele>63.1</ele>
        <time>2021-05-20T10:41:51Z</time>
      </trkpt>
      <trkpt lat="42.2229730" lon="-8.7168190">
        <ele>63.2</ele>
        <time>2021-05-20T10:41:52Z</time>
      </trkpt>
      <trkpt lat="42.2229930" lon="-8.7168160">
        <ele>63.3</ele>
        <time>2021-05-20T10:41:53Z</time>
      </trkpt>
      <trkpt lat="42.2230000" lon="-8.7168140">
        <ele>63.3</ele>
        <time>2021-05-20T10:41:54Z</time>
      </trkpt>
      <trkpt lat="42.2230090" lon="-8.7168120">
        <ele>63.4</ele>
        <time>2021-05-20T10:41:55Z</time>
      </trkpt>
      <trkpt lat="42.2230190" lon="-8.7168070">
        <ele>63.4</ele>
        <time>2021-05-20T10:41:56Z</time>
      </trkpt>
      <trkpt lat="42.2230320" lon="-8.7168000">
        <ele>63.5</ele>
        <time>2021-05-20T10:41:57Z</time>
      </trkpt>
      <trkpt lat="42.2230400" lon="-8.7167930">
        <ele>63.5</ele>
        <time>2021-05-20T10:41:58Z</time>
      </trkpt>
      <trkpt lat="42.2230520" lon="-8.7167880">
        <ele>63.6</ele>
        <time>2021-05-20T10:41:59Z</time>
      </trkpt>
      <trkpt lat="42.2230610" lon="-8.7167850">
        <ele>63.7</ele>
        <time>2021-05-20T10:42:00Z</time>
      </trkpt>
      <trkpt lat="42.2230710" lon="-8.7167820">
        <ele>63.7</ele>
        <time>2021-05-20T10:42:01Z</time>
      </trkpt>
      <trkpt lat="42.2230850" lon="-8.7167780">
        <ele>63.8</ele>
        <time>2021-05-20T10:42:02Z</time>
      </trkpt>
      <trkpt lat="42.2230980" lon="-8.7167730">
        <ele>63.9</ele>
        <time>2021-05-20T10:42:03Z</time>
      </trkpt>
      <trkpt lat="42.2231100" lon="-8.7167640">
        <ele>63.9</ele>
        <time>2021-05-20T10:42:04Z</time>
      </trkpt>
      <trkpt lat="42.2231110" lon="-8.7167590">
        <ele>64.0</ele>
        <time>2021-05-20T10:42:05Z</time>
      </trkpt>
      <trkpt lat="42.2231270" lon="-8.7167510">
        <ele>64.0</ele>
        <time>2021-05-20T10:42:06Z</time>
      </trkpt>
      <trkpt lat="42.2231450" lon="-8.7167310">
        <ele>64.2</ele>
        <time>2021-05-20T10:42:07Z</time>
      </trkpt>
      <trkpt lat="42.2231520" lon="-8.7167220">
        <ele>64.2</ele>
        <time>2021-05-20T10:42:08Z</time>
      </trkpt>
      <trkpt lat="42.2231590" lon="-8.7167120">
        <ele>64.3</ele>
        <time>2021-05-20T10:42:09Z</time>
      </trkpt>
      <trkpt lat="42.2231670" lon="-8.7167030">
        <ele>64.3</ele>
        <time>2021-05-20T10:42:10Z</time>
      </trkpt>
      <trkpt lat="42.2231810" lon="-8.7166920">
        <ele>64.4</ele>
        <time>2021-05-20T10:42:11Z</time>
      </trkpt>
      <trkpt lat="42.2231890" lon="-8.7166850">
        <ele>64.5</ele>
        <time>2021-05-20T10:42:12Z</time>
      </trkpt>
      <trkpt lat="42.2232000" lon="-8.7166770">
        <ele>64.5</ele>
        <time>2021-05-20T10:42:13Z</time>
      </trkpt>
      <trkpt lat="42.2232080" lon="-8.7166700">
        <ele>64.6</ele>
        <time>2021-05-20T10:42:14Z</time>
      </trkpt>
      <trkpt lat="42.2232220" lon="-8.7166700">
        <ele>64.7</ele>
        <time>2021-05-20T10:42:15Z</time>
      </trkpt>
      <trkpt lat="42.2232370" lon="-8.7166750">
        <ele>64.7</ele>
        <time>2021-05-20T10:42:16Z</time>
      </trkpt>
      <trkpt lat="42.2232440" lon="-8.7166700">
        <ele>64.8</ele>
        <time>2021-05-20T10:42:17Z</time>
      </trkpt>
      <trkpt lat="42.2232530" lon="-8.7166640">
        <ele>64.8</ele>
        <time>2021-05-20T10:42:18Z</time>
      </trkpt>
      <trkpt lat="42.2232590" lon="-8.7166700">
        <ele>64.9</ele>
        <time>2021-05-20T10:42:19Z</time>
      </trkpt>
      <trkpt lat="42.2232690" lon="-8.7166710">
        <ele>64.9</ele>
        <time>2021-05-20T10:42:20Z</time>
      </trkpt>
      <trkpt lat="42.2232820" lon="-8.7166630">
        <ele>65.0</ele>
        <time>2021-05-20T10:42:21Z</time>
      </trkpt>
      <trkpt lat="42.2232950" lon="-8.7166490">
        <ele>65.1</ele>
        <time>2021-05-20T10:42:22Z</time>
      </trkpt>
      <trkpt lat="42.2233000" lon="-8.7166310">
        <ele>65.2</ele>
        <time>2021-05-20T10:42:23Z</time>
      </trkpt>
      <trkpt lat="42.2233120" lon="-8.7166280">
        <ele>65.3</ele>
        <time>2021-05-20T10:42:24Z</time>
      </trkpt>
      <trkpt lat="42.2233240" lon="-8.7166160">
        <ele>65.4</ele>
        <time>2021-05-20T10:42:25Z</time>
      </trkpt>
      <trkpt lat="42.2233320" lon="-8.7166110">
        <ele>65.4</ele>
        <time>2021-05-20T10:42:26Z</time>
      </trkpt>
      <trkpt lat="42.2233420" lon="-8.7166010">
        <ele>65.6</ele>
        <time>2021-05-20T10:42:27Z</time>
      </trkpt>
      <trkpt lat="42.2233570" lon="-8.7166000">
        <ele>65.6</ele>
        <time>2021-05-20T10:42:28Z</time>
      </trkpt>
      <trkpt lat="42.2233660" lon="-8.7166000">
        <ele>65.7</ele>
        <time>2021-05-20T10:42:29Z</time>
      </trkpt>
      <trkpt lat="42.2233780" lon="-8.7165970">
        <ele>65.8</ele>
        <time>2021-05-20T10:42:30Z</time>
      </trkpt>
      <trkpt lat="42.2233900" lon="-8.7165930">
        <ele>65.8</ele>
        <time>2021-05-20T10:42:31Z</time>
      </trkpt>
      <trkpt lat="42.2233970" lon="-8.7165920">
        <ele>65.9</ele>
        <time>2021-05-20T10:42:32Z</time>
      </trkpt>
      <trkpt lat="42.2234080" lon="-8.7165980">
        <ele>65.9</ele>
        <time>2021-05-20T10:42:33Z</time>
      </trkpt>
      <trkpt lat="42.2234220" lon="-8.7166010">
        <ele>66.0</ele>
        <time>2021-05-20T10:42:34Z</time>
      </trkpt>
      <trkpt lat="42.2234290" lon="-8.7165930">
        <ele>66.1</ele>
        <time>2021-05-20T10:42:35Z</time>
      </trkpt>
      <trkpt lat="42.2234370" lon="-8.7165910">
        <ele>66.1</ele>
        <time>2021-05-20T10:42:36Z</time>
      </trkpt>
      <trkpt lat="42.2234470" lon="-8.7165800">
        <ele>66.2</ele>
        <time>2021-05-20T10:42:37Z</time>
      </trkpt>
      <trkpt lat="42.2234600" lon="-8.7165740">
        <ele>66.3</ele>
        <time>2021-05-20T10:42:38Z</time>
      </trkpt>
      <trkpt lat="42.2234670" lon="-8.7165650">
        <ele>66.3</ele>
        <time>2021-05-20T10:42:39Z</time>
      </trkpt>
      <trkpt lat="42.2234760" lon="-8.7165650">
        <ele>66.4</ele>
        <time>2021-05-20T10:42:40Z</time>
      </trkpt>
      <trkpt lat="42.2234920" lon="-8.7165540">
        <ele>66.5</ele>
        <time>2021-05-20T10:42:41Z</time>
      </trkpt>
      <trkpt lat="42.2235080" lon="-8.7165560">
        <ele>66.5</ele>
        <time>2021-05-20T10:42:42Z</time>
      </trkpt>
      <trkpt lat="42.2235140" lon="-8.7165540">
        <ele>66.6</ele>
        <time>2021-05-20T10:42:43Z</time>
      </trkpt>
      <trkpt lat="42.2235210" lon="-8.7165590">
        <ele>66.6</ele>
        <time>2021-05-20T10:42:44Z</time>
      </trkpt>
      <trkpt lat="42.2235340" lon="-8.7165500">
        <ele>66.7</ele>
        <time>2021-05-20T10:42:45Z</time>
      </trkpt>
      <trkpt lat="42.2235440" lon="-8.7165510">
        <ele>66.8</ele>
        <time>2021-05-20T10:42:46Z</time>
      </trkpt>
      <trkpt lat="42.2235540" lon="-8.7165500">
        <ele>66.8</ele>
        <time>2021-05-20T10:42:47Z</time>
      </trkpt>
      <trkpt lat="42.2235610" lon="-8.7165410">
        <ele>67.0</ele>
        <time>2021-05-20T10:42:48Z</time>
      </trkpt>
      <trkpt lat="42.2235620" lon="-8.7165330">
        <ele>67.0</ele>
        <time>2021-05-20T10:42:49Z</time>
      </trkpt>
      <trkpt lat="42.2235630" lon="-8.7165260">
        <ele>67.0</ele>
        <time>2021-05-20T10:42:50Z</time>
      </trkpt>
      <trkpt lat="42.2235630" lon="-8.7165180">
        <ele>67.0</ele>
        <time>2021-05-20T10:42:51Z</time>
      </trkpt>
      <trkpt lat="42.2235640" lon="-8.7165100">
        <ele>67.1</ele>
        <time>2021-05-20T10:42:52Z</time>
      </trkpt>
      <trkpt lat="42.2235650" lon="-8.7165020">
        <ele>67.1</ele>
        <time>2021-05-20T10:42:53Z</time>
      </trkpt>
      <trkpt lat="42.2235610" lon="-8.7164800">
        <ele>67.2</ele>
        <time>2021-05-20T10:42:54Z</time>
      </trkpt>
      <trkpt lat="42.2235570" lon="-8.7164620">
        <ele>67.3</ele>
        <time>2021-05-20T10:42:55Z</time>
      </trkpt>
      <trkpt lat="42.2235510" lon="-8.7164420">
        <ele>67.4</ele>
        <time>2021-05-20T10:42:56Z</time>
      </trkpt>
      <trkpt lat="42.2235460" lon="-8.7164320">
        <ele>67.4</ele>
        <time>2021-05-20T10:42:57Z</time>
      </trkpt>
      <trkpt lat="42.2235460" lon="-8.7164190">
        <ele>67.4</ele>
        <time>2021-05-20T10:42:58Z</time>
      </trkpt>
      <trkpt lat="42.2235460" lon="-8.7164120">
        <ele>67.5</ele>
        <time>2021-05-20T10:42:59Z</time>
      </trkpt>
      <trkpt lat="42.2235520" lon="-8.7164010">
        <ele>67.5</ele>
        <time>2021-05-20T10:43:00Z</time>
      </trkpt>
      <trkpt lat="42.2235530" lon="-8.7163920">
        <ele>67.5</ele>
        <time>2021-05-20T10:43:01Z</time>
      </trkpt>
      <trkpt lat="42.2235540" lon="-8.7163820">
        <ele>67.6</ele>
        <time>2021-05-20T10:43:02Z</time>
      </trkpt>
      <trkpt lat="42.2235520" lon="-8.7163740">
        <ele>67.6</ele>
        <time>2021-05-20T10:43:03Z</time>
      </trkpt>
      <trkpt lat="42.2235510" lon="-8.7163640">
        <ele>67.6</ele>
        <time>2021-05-20T10:43:04Z</time>
      </trkpt>
      <trkpt lat="42.2235460" lon="-8.7163560">
        <ele>67.7</ele>
        <time>2021-05-20T10:43:05Z</time>
      </trkpt>
      <trkpt lat="42.2235440" lon="-8.7163500">
        <ele>67.7</ele>
        <time>2021-05-20T10:43:06Z</time>
      </trkpt>
      <trkpt lat="42.2235440" lon="-8.7163510">
        <ele>67.7</ele>
        <time>2021-05-20T10:43:07Z</time>
      </trkpt>
      <trkpt lat="42.2235420" lon="-8.7163460">
        <ele>67.7</ele>
        <time>2021-05-20T10:43:08Z</time>
      </trkpt>
      <trkpt lat="42.2235440" lon="-8.7163450">
        <ele>67.7</ele>
        <time>2021-05-20T10:43:09Z</time>
      </trkpt>
      <trkpt lat="42.2235440" lon="-8.7163460">
        <ele>67.7</ele>
        <time>2021-05-20T10:43:10Z</time>
      </trkpt>
      <trkpt lat="42.2235420" lon="-8.7163500">
        <ele>67.7</ele>
        <time>2021-05-20T10:43:11Z</time>
      </trkpt>
      <trkpt lat="42.2235410" lon="-8.7163540">
        <ele>67.7</ele>
        <time>2021-05-20T10:43:12Z</time>
      </trkpt>
      <trkpt lat="42.2235380" lon="-8.7163500">
        <ele>67.8</ele>
        <time>2021-05-20T10:43:13Z</time>
      </trkpt>
      <trkpt lat="42.2235380" lon="-8.7163490">
        <ele>67.8</ele>
        <time>2021-05-20T10:43:14Z</time>
      </trkpt>
      <trkpt lat="42.2235400" lon="-8.7163450">
        <ele>67.8</ele>
        <time>2021-05-20T10:43:15Z</time>
      </trkpt>
      <trkpt lat="42.2235420" lon="-8.7163440">
        <ele>67.8</ele>
        <time>2021-05-20T10:43:16Z</time>
      </trkpt>
      <trkpt lat="42.2235430" lon="-8.7163410">
        <ele>67.9</ele>
        <time>2021-05-20T10:43:17Z</time>
      </trkpt>
      <trkpt lat="42.2235450" lon="-8.7163400">
        <ele>67.9</ele>
        <time>2021-05-20T10:43:18Z</time>
      </trkpt>
      <trkpt lat="42.2235430" lon="-8.7163380">
        <ele>67.9</ele>
        <time>2021-05-20T10:43:19Z</time>
      </trkpt>
      <trkpt lat="42.2235430" lon="-8.7163350">
        <ele>67.9</ele>
        <time>2021-05-20T10:43:20Z</time>
      </trkpt>
      <trkpt lat="42.2235430" lon="-8.7163310">
        <ele>67.9</ele>
        <time>2021-05-20T10:43:21Z</time>
      </trkpt>
      <trkpt lat="42.2235400" lon="-8.7163270">
        <ele>67.9</ele>
        <time>2021-05-20T10:43:22Z</time>
      </trkpt>
      <trkpt lat="42.2235370" lon="-8.7163220">
        <ele>67.9</ele>
        <time>2021-05-20T10:43:23Z</time>
      </trkpt>
      <trkpt lat="42.2235370" lon="-8.7163190">
        <ele>67.9</ele>
        <time>2021-05-20T10:43:24Z</time>
      </trkpt>
      <trkpt lat="42.2235360" lon="-8.7163150">
        <ele>68.0</ele>
        <time>2021-05-20T10:43:25Z</time>
      </trkpt>
      <trkpt lat="42.2235330" lon="-8.7163150">
        <ele>68.0</ele>
        <time>2021-05-20T10:43:26Z</time>
      </trkpt>
      <trkpt lat="42.2235300" lon="-8.7163120">
        <ele>68.0</ele>
        <time>2021-05-20T10:43:27Z</time>
      </trkpt>
      <trkpt lat="42.2235280" lon="-8.7163160">
        <ele>68.0</ele>
        <time>2021-05-20T10:43:28Z</time>
      </trkpt>
      <trkpt lat="42.2235290" lon="-8.7163200">
        <ele>68.0</ele>
        <time>2021-05-20T10:43:29Z</time>
      </trkpt>
      <trkpt lat="42.2235300" lon="-8.7163250">
        <ele>68.0</ele>
        <time>2021-05-20T10:43:30Z</time>
      </trkpt>
      <trkpt lat="42.2235310" lon="-8.7163300">
        <ele>68.0</ele>
        <time>2021-05-20T10:43:31Z</time>
      </trkpt>
      <trkpt lat="42.2235320" lon="-8.7163340">
        <ele>68.1</ele>
        <time>2021-05-20T10:43:32Z</time>
      </trkpt>
      <trkpt lat="42.2235330" lon="-8.7163390">
        <ele>68.1</ele>
        <time>2021-05-20T10:43:33Z</time>
      </trkpt>
      <trkpt lat="42.2235340" lon="-8.7163430">
        <ele>68.1</ele>
        <time>2021-05-20T10:43:34Z</time>
      </trkpt>
      <trkpt lat="42.2235350" lon="-8.7163480">
        <ele>68.2</ele>
        <time>2021-05-20T10:43:35Z</time>
      </trkpt>
      <trkpt lat="42.2235360" lon="-8.7163530">
        <ele>68.2</ele>
        <time>2021-05-20T10:43:36Z</time>
      </trkpt>
      <trkpt lat="42.2235370" lon="-8.7163570">
        <ele>68.2</ele>
        <time>2021-05-20T10:43:37Z</time>
      </trkpt>
      <trkpt lat="42.2235380" lon="-8.7163620">
        <ele>68.2</ele>
        <time>2021-05-20T10:43:38Z</time>
      </trkpt>
      <trkpt lat="42.2235440" lon="-8.7163750">
        <ele>68.3</ele>
        <time>2021-05-20T10:43:39Z</time>
      </trkpt>
      <trkpt lat="42.2235480" lon="-8.7163810">
        <ele>68.3</ele>
        <time>2021-05-20T10:43:40Z</time>
      </trkpt>
      <trkpt lat="42.2235610" lon="-8.7163870">
        <ele>68.4</ele>
        <time>2021-05-20T10:43:41Z</time>
      </trkpt>
      <trkpt lat="42.2235910" lon="-8.7164150">
        <ele>68.5</ele>
        <time>2021-05-20T10:43:42Z</time>
      </trkpt>
      <trkpt lat="42.2236030" lon="-8.7164210">
        <ele>68.6</ele>
        <time>2021-05-20T10:43:43Z</time>
      </trkpt>
      <trkpt lat="42.2236140" lon="-8.7164330">
        <ele>68.6</ele>
        <time>2021-05-20T10:43:44Z</time>
      </trkpt>
      <trkpt lat="42.2236230" lon="-8.7164480">
        <ele>68.7</ele>
        <time>2021-05-20T10:43:45Z</time>
      </trkpt>
      <trkpt lat="42.2236320" lon="-8.7164590">
        <ele>68.7</ele>
        <time>2021-05-20T10:43:46Z</time>
      </trkpt>
      <trkpt lat="42.2236350" lon="-8.7164830">
        <ele>68.8</ele>
        <time>2021-05-20T10:43:47Z</time>
      </trkpt>
      <trkpt lat="42.2236450" lon="-8.7165050">
        <ele>68.9</ele>
        <time>2021-05-20T10:43:48Z</time>
      </trkpt>
      <trkpt lat="42.2236490" lon="-8.7165160">
        <ele>68.9</ele>
        <time>2021-05-20T10:43:49Z</time>
      </trkpt>
      <trkpt lat="42.2236540" lon="-8.7165260">
        <ele>68.9</ele>
        <time>2021-05-20T10:43:50Z</time>
      </trkpt>
      <trkpt lat="42.2236590" lon="-8.7165400">
        <ele>69.0</ele>
        <time>2021-05-20T10:43:51Z</time>
      </trkpt>
      <trkpt lat="42.2236690" lon="-8.7165500">
        <ele>69.0</ele>
        <time>2021-05-20T10:43:52Z</time>
      </trkpt>
      <trkpt lat="42.2236780" lon="-8.7165590">
        <ele>69.1</ele>
        <time>2021-05-20T10:43:53Z</time>
      </trkpt>
      <trkpt lat="42.2236870" lon="-8.7165690">
        <ele>69.1</ele>
        <time>2021-05-20T10:43:54Z</time>
      </trkpt>
      <trkpt lat="42.2236940" lon="-8.7165800">
        <ele>69.2</ele>
        <time>2021-05-20T10:43:55Z</time>
      </trkpt>
      <trkpt lat="42.2237020" lon="-8.7165890">
        <ele>69.2</ele>
        <time>2021-05-20T10:43:56Z</time>
      </trkpt>
      <trkpt lat="42.2237090" lon="-8.7166050">
        <ele>69.3</ele>
        <time>2021-05-20T10:43:57Z</time>
      </trkpt>
      <trkpt lat="42.2237200" lon="-8.7166190">
        <ele>69.3</ele>
        <time>2021-05-20T10:43:58Z</time>
      </trkpt>
      <trkpt lat="42.2237310" lon="-8.7166230">
        <ele>69.4</ele>
        <time>2021-05-20T10:43:59Z</time>
      </trkpt>
      <trkpt lat="42.2237440" lon="-8.7166280">
        <ele>69.5</ele>
        <time>2021-05-20T10:44:00Z</time>
      </trkpt>
      <trkpt lat="42.2237510" lon="-8.7166330">
        <ele>69.5</ele>
        <time>2021-05-20T10:44:01Z</time>
      </trkpt>
      <trkpt lat="42.2237660" lon="-8.7166370">
        <ele>69.5</ele>
        <time>2021-05-20T10:44:02Z</time>
      </trkpt>
      <trkpt lat="42.2237760" lon="-8.7166490">
        <ele>69.6</ele>
        <time>2021-05-20T10:44:03Z</time>
      </trkpt>
      <trkpt lat="42.2237890" lon="-8.7166530">
        <ele>69.7</ele>
        <time>2021-05-20T10:44:04Z</time>
      </trkpt>
      <trkpt lat="42.2238110" lon="-8.7166600">
        <ele>69.8</ele>
        <time>2021-05-20T10:44:05Z</time>
      </trkpt>
      <trkpt lat="42.2238330" lon="-8.7166670">
        <ele>69.8</ele>
        <time>2021-05-20T10:44:06Z</time>
      </trkpt>
      <trkpt lat="42.2238320" lon="-8.7166810">
        <ele>69.9</ele>
        <time>2021-05-20T10:44:07Z</time>
      </trkpt>
      <trkpt lat="42.2238320" lon="-8.7166960">
        <ele>69.9</ele>
        <time>2021-05-20T10:44:08Z</time>
      </trkpt>
      <trkpt lat="42.2238490" lon="-8.7166920">
        <ele>70.0</ele>
        <time>2021-05-20T10:44:09Z</time>
      </trkpt>
      <trkpt lat="42.2238460" lon="-8.7166970">
        <ele>70.0</ele>
        <time>2021-05-20T10:44:10Z</time>
      </trkpt>
      <trkpt lat="42.2238450" lon="-8.7167130">
        <ele>70.1</ele>
        <time>2021-05-20T10:44:11Z</time>
      </trkpt>
      <trkpt lat="42.2238390" lon="-8.7167330">
        <ele>70.1</ele>
        <time>2021-05-20T10:44:12Z</time>
      </trkpt>
      <trkpt lat="42.2238360" lon="-8.7167570">
        <ele>70.2</ele>
        <time>2021-05-20T10:44:13Z</time>
      </trkpt>
      <trkpt lat="42.2238360" lon="-8.7167760">
        <ele>70.3</ele>
        <time>2021-05-20T10:44:14Z</time>
      </trkpt>
      <trkpt lat="42.2238510" lon="-8.7167760">
        <ele>70.3</ele>
        <time>2021-05-20T10:44:15Z</time>
      </trkpt>
      <trkpt lat="42.2238680" lon="-8.7167750">
        <ele>70.4</ele>
        <time>2021-05-20T10:44:16Z</time>
      </trkpt>
      <trkpt lat="42.2238890" lon="-8.7167800">
        <ele>70.5</ele>
        <time>2021-05-20T10:44:17Z</time>
      </trkpt>
      <trkpt lat="42.2238980" lon="-8.7167780">
        <ele>70.6</ele>
        <time>2021-05-20T10:44:18Z</time>
      </trkpt>
      <trkpt lat="42.2239080" lon="-8.7167760">
        <ele>70.7</ele>
        <time>2021-05-20T10:44:19Z</time>
      </trkpt>
      <trkpt lat="42.2239240" lon="-8.7167940">
        <ele>70.8</ele>
        <time>2021-05-20T10:44:20Z</time>
      </trkpt>
      <trkpt lat="42.2239320" lon="-8.7168010">
        <ele>70.9</ele>
        <time>2021-05-20T10:44:21Z</time>
      </trkpt>
      <trkpt lat="42.2239390" lon="-8.7168070">
        <ele>70.9</ele>
        <time>2021-05-20T10:44:22Z</time>
      </trkpt>
      <trkpt lat="42.2239460" lon="-8.7168110">
        <ele>71.0</ele>
        <time>2021-05-20T10:44:23Z</time>
      </trkpt>
      <trkpt lat="42.2239560" lon="-8.7168120">
        <ele>71.0</ele>
        <time>2021-05-20T10:44:24Z</time>
      </trkpt>
      <trkpt lat="42.2239680" lon="-8.7168200">
        <ele>71.1</ele>
        <time>2021-05-20T10:44:25Z</time>
      </trkpt>
      <trkpt lat="42.2239820" lon="-8.7168410">
        <ele>71.3</ele>
        <time>2021-05-20T10:44:26Z</time>
      </trkpt>
      <trkpt lat="42.2239870" lon="-8.7168520">
        <ele>71.3</ele>
        <time>2021-05-20T10:44:27Z</time>
      </trkpt>
      <trkpt lat="42.2239920" lon="-8.7168620">
        <ele>71.4</ele>
        <time>2021-05-20T10:44:28Z</time>
      </trkpt>
      <trkpt lat="42.2240090" lon="-8.7168700">
        <ele>71.5</ele>
        <time>2021-05-20T10:44:29Z</time>
      </trkpt>
      <trkpt lat="42.2240190" lon="-8.7168670">
        <ele>71.6</ele>
        <time>2021-05-20T10:44:30Z</time>
      </trkpt>
      <trkpt lat="42.2240330" lon="-8.7168720">
        <ele>71.7</ele>
        <time>2021-05-20T10:44:31Z</time>
      </trkpt>
      <trkpt lat="42.2240450" lon="-8.7168770">
        <ele>71.8</ele>
        <time>2021-05-20T10:44:32Z</time>
      </trkpt>
      <trkpt lat="42.2240530" lon="-8.7168780">
        <ele>71.8</ele>
        <time>2021-05-20T10:44:33Z</time>
      </trkpt>
      <trkpt lat="42.2240650" lon="-8.7168770">
        <ele>71.9</ele>
        <time>2021-05-20T10:44:34Z</time>
      </trkpt>
      <trkpt lat="42.2240730" lon="-8.7168770">
        <ele>72.0</ele>
        <time>2021-05-20T10:44:35Z</time>
      </trkpt>
      <trkpt lat="42.2240820" lon="-8.7168650">
        <ele>72.0</ele>
        <time>2021-05-20T10:44:36Z</time>
      </trkpt>
      <trkpt lat="42.2240860" lon="-8.7168560">
        <ele>72.1</ele>
        <time>2021-05-20T10:44:37Z</time>
      </trkpt>
      <trkpt lat="42.2240900" lon="-8.7168460">
        <ele>72.1</ele>
        <time>2021-05-20T10:44:38Z</time>
      </trkpt>
      <trkpt lat="42.2240940" lon="-8.7168370">
        <ele>72.2</ele>
        <time>2021-05-20T10:44:39Z</time>
      </trkpt>
      <trkpt lat="42.2240980" lon="-8.7168270">
        <ele>72.3</ele>
        <time>2021-05-20T10:44:40Z</time>
      </trkpt>
      <trkpt lat="42.2240990" lon="-8.7168170">
        <ele>72.3</ele>
        <time>2021-05-20T10:44:41Z</time>
      </trkpt>
      <trkpt lat="42.2240990" lon="-8.7168070">
        <ele>72.4</ele>
        <time>2021-05-20T10:44:42Z</time>
      </trkpt>
      <trkpt lat="42.2241000" lon="-8.7167980">
        <ele>72.4</ele>
        <time>2021-05-20T10:44:43Z</time>
      </trkpt>
      <trkpt lat="42.2241000" lon="-8.7167880">
        <ele>72.5</ele>
        <time>2021-05-20T10:44:44Z</time>
      </trkpt>
      <trkpt lat="42.2241010" lon="-8.7167780">
        <ele>72.5</ele>
        <time>2021-05-20T10:44:45Z</time>
      </trkpt>
      <trkpt lat="42.2241010" lon="-8.7167780">
        <ele>72.5</ele>
        <time>2021-05-20T10:44:46Z</time>
      </trkpt>
      <trkpt lat="42.2241010" lon="-8.7167770">
        <ele>72.5</ele>
        <time>2021-05-20T10:44:47Z</time>
      </trkpt>
      <trkpt lat="42.2241010" lon="-8.7167770">
        <ele>72.5</ele>
        <time>2021-05-20T10:44:48Z</time>
      </trkpt>
      <trkpt lat="42.2240970" lon="-8.7167640">
        <ele>72.6</ele>
        <time>2021-05-20T10:44:49Z</time>
      </trkpt>
      <trkpt lat="42.2240980" lon="-8.7167640">
        <ele>72.6</ele>
        <time>2021-05-20T10:44:50Z</time>
      </trkpt>
      <trkpt lat="42.2240980" lon="-8.7167630">
        <ele>72.6</ele>
        <time>2021-05-20T10:44:51Z</time>
      </trkpt>
      <trkpt lat="42.2241080" lon="-8.7167720">
        <ele>72.7</ele>
        <time>2021-05-20T10:44:52Z</time>
      </trkpt>
      <trkpt lat="42.2241140" lon="-8.7167720">
        <ele>72.7</ele>
        <time>2021-05-20T10:44:53Z</time>
      </trkpt>
      <trkpt lat="42.2241200" lon="-8.7167740">
        <ele>72.8</ele>
        <time>2021-05-20T10:44:54Z</time>
      </trkpt>
      <trkpt lat="42.2241220" lon="-8.7167780">
        <ele>72.8</ele>
        <time>2021-05-20T10:44:55Z</time>
      </trkpt>
      <trkpt lat="42.2241320" lon="-8.7167880">
        <ele>72.9</ele>
        <time>2021-05-20T10:44:56Z</time>
      </trkpt>
      <trkpt lat="42.2241400" lon="-8.7167890">
        <ele>72.9</ele>
        <time>2021-05-20T10:44:57Z</time>
      </trkpt>
      <trkpt lat="42.2241570" lon="-8.7167980">
        <ele>73.1</ele>
        <time>2021-05-20T10:44:58Z</time>
      </trkpt>
      <trkpt lat="42.2241640" lon="-8.7167960">
        <ele>73.1</ele>
        <time>2021-05-20T10:44:59Z</time>
      </trkpt>
      <trkpt lat="42.2241770" lon="-8.7168070">
        <ele>73.2</ele>
        <time>2021-05-20T10:45:00Z</time>
      </trkpt>
      <trkpt lat="42.2241910" lon="-8.7168140">
        <ele>73.3</ele>
        <time>2021-05-20T10:45:01Z</time>
      </trkpt>
      <trkpt lat="42.2241960" lon="-8.7168180">
        <ele>73.4</ele>
        <time>2021-05-20T10:45:02Z</time>
      </trkpt>
      <trkpt lat="42.2242130" lon="-8.7168230">
        <ele>73.5</ele>
        <time>2021-05-20T10:45:03Z</time>
      </trkpt>
      <trkpt lat="42.2242200" lon="-8.7168330">
        <ele>73.6</ele>
        <time>2021-05-20T10:45:04Z</time>
      </trkpt>
      <trkpt lat="42.2242350" lon="-8.7168410">
        <ele>73.7</ele>
        <time>2021-05-20T10:45:05Z</time>
      </trkpt>
      <trkpt lat="42.2242450" lon="-8.7168450">
        <ele>73.8</ele>
        <time>2021-05-20T10:45:06Z</time>
      </trkpt>
      <trkpt lat="42.2242550" lon="-8.7168480">
        <ele>73.8</ele>
        <time>2021-05-20T10:45:07Z</time>
      </trkpt>
      <trkpt lat="42.2242620" lon="-8.7168490">
        <ele>73.9</ele>
        <time>2021-05-20T10:45:08Z</time>
      </trkpt>
      <trkpt lat="42.2242750" lon="-8.7168490">
        <ele>74.0</ele>
        <time>2021-05-20T10:45:09Z</time>
      </trkpt>
      <trkpt lat="42.2242860" lon="-8.7168480">
        <ele>74.1</ele>
        <time>2021-05-20T10:45:10Z</time>
      </trkpt>
      <trkpt lat="42.2243090" lon="-8.7168480">
        <ele>74.2</ele>
        <time>2021-05-20T10:45:11Z</time>
      </trkpt>
      <trkpt lat="42.2243200" lon="-8.7168500">
        <ele>74.3</ele>
        <time>2021-05-20T10:45:12Z</time>
      </trkpt>
      <trkpt lat="42.2243530" lon="-8.7168640">
        <ele>74.5</ele>
        <time>2021-05-20T10:45:13Z</time>
      </trkpt>
      <trkpt lat="42.2243680" lon="-8.7168660">
        <ele>74.7</ele>
        <time>2021-05-20T10:45:14Z</time>
      </trkpt>
      <trkpt lat="42.2243780" lon="-8.7168730">
        <ele>74.7</ele>
        <time>2021-05-20T10:45:15Z</time>
      </trkpt>
      <trkpt lat="42.2243890" lon="-8.7168730">
        <ele>74.8</ele>
        <time>2021-05-20T10:45:16Z</time>
      </trkpt>
      <trkpt lat="42.2244010" lon="-8.7168640">
        <ele>74.9</ele>
        <time>2021-05-20T10:45:17Z</time>
      </trkpt>
      <trkpt lat="42.2244160" lon="-8.7168490">
        <ele>75.1</ele>
        <time>2021-05-20T10:45:18Z</time>
      </trkpt>
      <trkpt lat="42.2244260" lon="-8.7168450">
        <ele>75.1</ele>
        <time>2021-05-20T10:45:19Z</time>
      </trkpt>
      <trkpt lat="42.2244350" lon="-8.7168420">
        <ele>75.2</ele>
        <time>2021-05-20T10:45:20Z</time>
      </trkpt>
      <trkpt lat="42.2244550" lon="-8.7168390">
        <ele>75.4</ele>
        <time>2021-05-20T10:45:21Z</time>
      </trkpt>
      <trkpt lat="42.2244680" lon="-8.7168330">
        <ele>75.5</ele>
        <time>2021-05-20T10:45:22Z</time>
      </trkpt>
      <trkpt lat="42.2244850" lon="-8.7168270">
        <ele>75.6</ele>
        <time>2021-05-20T10:45:23Z</time>
      </trkpt>
      <trkpt lat="42.2244920" lon="-8.7168330">
        <ele>75.7</ele>
        <time>2021-05-20T10:45:24Z</time>
      </trkpt>
      <trkpt lat="42.2244990" lon="-8.7168300">
        <ele>75.7</ele>
        <time>2021-05-20T10:45:25Z</time>
      </trkpt>
      <trkpt lat="42.2245190" lon="-8.7168300">
        <ele>75.9</ele>
        <time>2021-05-20T10:45:26Z</time>
      </trkpt>
      <trkpt lat="42.2245120" lon="-8.7168250">
        <ele>75.9</ele>
        <time>2021-05-20T10:45:27Z</time>
      </trkpt>
      <trkpt lat="42.2245220" lon="-8.7168270">
        <ele>76.0</ele>
        <time>2021-05-20T10:45:28Z</time>
      </trkpt>
      <trkpt lat="42.2245280" lon="-8.7168270">
        <ele>76.1</ele>
        <time>2021-05-20T10:45:29Z</time>
      </trkpt>
      <trkpt lat="42.2245390" lon="-8.7168240">
        <ele>76.2</ele>
        <time>2021-05-20T10:45:30Z</time>
      </trkpt>
      <trkpt lat="42.2245480" lon="-8.7168300">
        <ele>76.2</ele>
        <time>2021-05-20T10:45:31Z</time>
      </trkpt>
      <trkpt lat="42.2245570" lon="-8.7168350">
        <ele>76.3</ele>
        <time>2021-05-20T10:45:32Z</time>
      </trkpt>
      <trkpt lat="42.2245650" lon="-8.7168400">
        <ele>76.4</ele>
        <time>2021-05-20T10:45:33Z</time>
      </trkpt>
      <trkpt lat="42.2245740" lon="-8.7168450">
        <ele>76.5</ele>
        <time>2021-05-20T10:45:34Z</time>
      </trkpt>
      <trkpt lat="42.2245830" lon="-8.7168510">
        <ele>76.5</ele>
        <time>2021-05-20T10:45:35Z</time>
      </trkpt>
      <trkpt lat="42.2245920" lon="-8.7168560">
        <ele>76.6</ele>
        <time>2021-05-20T10:45:36Z</time>
      </trkpt>
      <trkpt lat="42.2246090" lon="-8.7168450">
        <ele>76.8</ele>
        <time>2021-05-20T10:45:37Z</time>
      </trkpt>
      <trkpt lat="42.2246180" lon="-8.7168430">
        <ele>76.8</ele>
        <time>2021-05-20T10:45:38Z</time>
      </trkpt>
      <trkpt lat="42.2246280" lon="-8.7168410">
        <ele>76.9</ele>
        <time>2021-05-20T10:45:39Z</time>
      </trkpt>
      <trkpt lat="42.2246370" lon="-8.7168390">
        <ele>77.0</ele>
        <time>2021-05-20T10:45:40Z</time>
      </trkpt>
      <trkpt lat="42.2246420" lon="-8.7168320">
        <ele>77.0</ele>
        <time>2021-05-20T10:45:41Z</time>
      </trkpt>
      <trkpt lat="42.2246440" lon="-8.7168210">
        <ele>77.1</ele>
        <time>2021-05-20T10:45:42Z</time>
      </trkpt>
      <trkpt lat="42.2246450" lon="-8.7168150">
        <ele>77.1</ele>
        <time>2021-05-20T10:45:43Z</time>
      </trkpt>
      <trkpt lat="42.2246540" lon="-8.7168060">
        <ele>77.2</ele>
        <time>2021-05-20T10:45:44Z</time>
      </trkpt>
      <trkpt lat="42.2246730" lon="-8.7167930">
        <ele>77.4</ele>
        <time>2021-05-20T10:45:45Z</time>
      </trkpt>
      <trkpt lat="42.2246790" lon="-8.7167890">
        <ele>77.5</ele>
        <time>2021-05-20T10:45:46Z</time>
      </trkpt>
      <trkpt lat="42.2246860" lon="-8.7167840">
        <ele>77.5</ele>
        <time>2021-05-20T10:45:47Z</time>
      </trkpt>
      <trkpt lat="42.2246930" lon="-8.7167900">
        <ele>77.6</ele>
        <time>2021-05-20T10:45:48Z</time>
      </trkpt>
      <trkpt lat="42.2247030" lon="-8.7167930">
        <ele>77.6</ele>
        <time>2021-05-20T10:45:49Z</time>
      </trkpt>
      <trkpt lat="42.2247150" lon="-8.7167890">
        <ele>77.7</ele>
        <time>2021-05-20T10:45:50Z</time>
      </trkpt>
      <trkpt lat="42.2247270" lon="-8.7167690">
        <ele>77.8</ele>
        <time>2021-05-20T10:45:51Z</time>
      </trkpt>
      <trkpt lat="42.2247280" lon="-8.7167590">
        <ele>77.9</ele>
        <time>2021-05-20T10:45:52Z</time>
      </trkpt>
      <trkpt lat="42.2247290" lon="-8.7167480">
        <ele>77.9</ele>
        <time>2021-05-20T10:45:53Z</time>
      </trkpt>
      <trkpt lat="42.2247300" lon="-8.7167380">
        <ele>78.0</ele>
        <time>2021-05-20T10:45:54Z</time>
      </trkpt>
      <trkpt lat="42.2247430" lon="-8.7167310">
        <ele>78.1</ele>
        <time>2021-05-20T10:45:55Z</time>
      </trkpt>
      <trkpt lat="42.2247620" lon="-8.7167240">
        <ele>78.2</ele>
        <time>2021-05-20T10:45:56Z</time>
      </trkpt>
      <trkpt lat="42.2247680" lon="-8.7167120">
        <ele>78.3</ele>
        <time>2021-05-20T10:45:57Z</time>
      </trkpt>
      <trkpt lat="42.2247690" lon="-8.7167040">
        <ele>78.3</ele>
        <time>2021-05-20T10:45:58Z</time>
      </trkpt>
      <trkpt lat="42.2247730" lon="-8.7167170">
        <ele>78.4</ele>
        <time>2021-05-20T10:45:59Z</time>
      </trkpt>
      <trkpt lat="42.2247870" lon="-8.7167170">
        <ele>78.5</ele>
        <time>2021-05-20T10:46:00Z</time>
      </trkpt>
      <trkpt lat="42.2247900" lon="-8.7167160">
        <ele>78.5</ele>
        <time>2021-05-20T10:46:01Z</time>
      </trkpt>
      <trkpt lat="42.2248080" lon="-8.7167080">
        <ele>78.6</ele>
        <time>2021-05-20T10:46:02Z</time>
      </trkpt>
      <trkpt lat="42.2248200" lon="-8.7167060">
        <ele>78.7</ele>
        <time>2021-05-20T10:46:03Z</time>
      </trkpt>
      <trkpt lat="42.2248310" lon="-8.7167030">
        <ele>78.8</ele>
        <time>2021-05-20T10:46:04Z</time>
      </trkpt>
      <trkpt lat="42.2248410" lon="-8.7167090">
        <ele>78.8</ele>
        <time>2021-05-20T10:46:05Z</time>
      </trkpt>
      <trkpt lat="42.2248490" lon="-8.7167030">
        <ele>78.9</ele>
        <time>2021-05-20T10:46:06Z</time>
      </trkpt>
      <trkpt lat="42.2248560" lon="-8.7167040">
        <ele>78.9</ele>
        <time>2021-05-20T10:46:07Z</time>
      </trkpt>
      <trkpt lat="42.2248660" lon="-8.7167140">
        <ele>79.0</ele>
        <time>2021-05-20T10:46:08Z</time>
      </trkpt>
      <trkpt lat="42.2248660" lon="-8.7167080">
        <ele>79.0</ele>
        <time>2021-05-20T10:46:09Z</time>
      </trkpt>
      <trkpt lat="42.2248780" lon="-8.7167040">
        <ele>79.1</ele>
        <time>2021-05-20T10:46:10Z</time>
      </trkpt>
      <trkpt lat="42.2248950" lon="-8.7167030">
        <ele>79.2</ele>
        <time>2021-05-20T10:46:11Z</time>
      </trkpt>
      <trkpt lat="42.2249130" lon="-8.7166990">
        <ele>79.3</ele>
        <time>2021-05-20T10:46:12Z</time>
      </trkpt>
      <trkpt lat="42.2249220" lon="-8.7167010">
        <ele>79.4</ele>
        <time>2021-05-20T10:46:13Z</time>
      </trkpt>
      <trkpt lat="42.2249320" lon="-8.7167030">
        <ele>79.4</ele>
        <time>2021-05-20T10:46:14Z</time>
      </trkpt>
      <trkpt lat="42.2249530" lon="-8.7167200">
        <ele>79.6</ele>
        <time>2021-05-20T10:46:15Z</time>
      </trkpt>
      <trkpt lat="42.2249610" lon="-8.7167210">
        <ele>79.6</ele>
        <time>2021-05-20T10:46:16Z</time>
      </trkpt>
      <trkpt lat="42.2249690" lon="-8.7167230">
        <ele>79.7</ele>
        <time>2021-05-20T10:46:17Z</time>
      </trkpt>
      <trkpt lat="42.2249870" lon="-8.7167340">
        <ele>79.8</ele>
        <time>2021-05-20T10:46:18Z</time>
      </trkpt>
      <trkpt lat="42.2249960" lon="-8.7167330">
        <ele>79.8</ele>
        <time>2021-05-20T10:46:19Z</time>
      </trkpt>
      <trkpt lat="42.2250090" lon="-8.7167390">
        <ele>79.9</ele>
        <time>2021-05-20T10:46:20Z</time>
      </trkpt>
      <trkpt lat="42.2250210" lon="-8.7167200">
        <ele>80.0</ele>
        <time>2021-05-20T10:46:21Z</time>
      </trkpt>
      <trkpt lat="42.2250290" lon="-8.7167200">
        <ele>80.1</ele>
        <time>2021-05-20T10:46:22Z</time>
      </trkpt>
      <trkpt lat="42.2250430" lon="-8.7167160">
        <ele>80.1</ele>
        <time>2021-05-20T10:46:23Z</time>
      </trkpt>
      <trkpt lat="42.2250460" lon="-8.7167130">
        <ele>80.2</ele>
        <time>2021-05-20T10:46:24Z</time>
      </trkpt>
      <trkpt lat="42.2250530" lon="-8.7167000">
        <ele>80.2</ele>
        <time>2021-05-20T10:46:25Z</time>
      </trkpt>
      <trkpt lat="42.2250580" lon="-8.7166970">
        <ele>80.3</ele>
        <time>2021-05-20T10:46:26Z</time>
      </trkpt>
      <trkpt lat="42.2250640" lon="-8.7166920">
        <ele>80.3</ele>
        <time>2021-05-20T10:46:27Z</time>
      </trkpt>
      <trkpt lat="42.2250720" lon="-8.7166940">
        <ele>80.3</ele>
        <time>2021-05-20T10:46:28Z</time>
      </trkpt>
      <trkpt lat="42.2250880" lon="-8.7167080">
        <ele>80.4</ele>
        <time>2021-05-20T10:46:29Z</time>
      </trkpt>
      <trkpt lat="42.2251020" lon="-8.7167070">
        <ele>80.5</ele>
        <time>2021-05-20T10:46:30Z</time>
      </trkpt>
      <trkpt lat="42.2251200" lon="-8.7167080">
        <ele>80.6</ele>
        <time>2021-05-20T10:46:31Z</time>
      </trkpt>
      <trkpt lat="42.2251230" lon="-8.7167130">
        <ele>80.7</ele>
        <time>2021-05-20T10:46:32Z</time>
      </trkpt>
      <trkpt lat="42.2251310" lon="-8.7167050">
        <ele>80.7</ele>
        <time>2021-05-20T10:46:33Z</time>
      </trkpt>
      <trkpt lat="42.2251420" lon="-8.7167280">
        <ele>80.8</ele>
        <time>2021-05-20T10:46:34Z</time>
      </trkpt>
      <trkpt lat="42.2251430" lon="-8.7167310">
        <ele>80.8</ele>
        <time>2021-05-20T10:46:35Z</time>
      </trkpt>
      <trkpt lat="42.2251580" lon="-8.7167420">
        <ele>80.9</ele>
        <time>2021-05-20T10:46:36Z</time>
      </trkpt>
      <trkpt lat="42.2251640" lon="-8.7167530">
        <ele>81.0</ele>
        <time>2021-05-20T10:46:37Z</time>
      </trkpt>
      <trkpt lat="42.2251660" lon="-8.7167530">
        <ele>81.0</ele>
        <time>2021-05-20T10:46:38Z</time>
      </trkpt>
      <trkpt lat="42.2251710" lon="-8.7167490">
        <ele>81.0</ele>
        <time>2021-05-20T10:46:39Z</time>
      </trkpt>
      <trkpt lat="42.2251730" lon="-8.7167490">
        <ele>81.0</ele>
        <time>2021-05-20T10:46:40Z</time>
      </trkpt>
      <trkpt lat="42.2251770" lon="-8.7167460">
        <ele>81.1</ele>
        <time>2021-05-20T10:46:41Z</time>
      </trkpt>
      <trkpt lat="42.2251770" lon="-8.7167470">
        <ele>81.1</ele>
        <time>2021-05-20T10:46:42Z</time>
      </trkpt>
      <trkpt lat="42.2251750" lon="-8.7167460">
        <ele>81.1</ele>
        <time>2021-05-20T10:46:43Z</time>
      </trkpt>
      <trkpt lat="42.2251760" lon="-8.7167430">
        <ele>81.1</ele>
        <time>2021-05-20T10:46:44Z</time>
      </trkpt>
      <trkpt lat="42.2251750" lon="-8.7167400">
        <ele>81.1</ele>
        <time>2021-05-20T10:46:45Z</time>
      </trkpt>
      <trkpt lat="42.2251760" lon="-8.7167380">
        <ele>81.1</ele>
        <time>2021-05-20T10:46:46Z</time>
      </trkpt>
      <trkpt lat="42.2251790" lon="-8.7167380">
        <ele>81.1</ele>
        <time>2021-05-20T10:46:47Z</time>
      </trkpt>
      <trkpt lat="42.2251880" lon="-8.7167410">
        <ele>81.2</ele>
        <time>2021-05-20T10:46:48Z</time>
      </trkpt>
      <trkpt lat="42.2251940" lon="-8.7167400">
        <ele>81.2</ele>
        <time>2021-05-20T10:46:49Z</time>
      </trkpt>
      <trkpt lat="42.2251780" lon="-8.7167440">
        <ele>81.3</ele>
        <time>2021-05-20T10:46:50Z</time>
      </trkpt>
      <trkpt lat="42.2251750" lon="-8.7167430">
        <ele>81.3</ele>
        <time>2021-05-20T10:46:51Z</time>
      </trkpt>
      <trkpt lat="42.2251750" lon="-8.7167420">
        <ele>81.3</ele>
        <time>2021-05-20T10:46:52Z</time>
      </trkpt>
      <trkpt lat="42.2251950" lon="-8.7167360">
        <ele>81.4</ele>
        <time>2021-05-20T10:46:53Z</time>
      </trkpt>
      <trkpt lat="42.2252090" lon="-8.7167370">
        <ele>81.5</ele>
        <time>2021-05-20T10:46:54Z</time>
      </trkpt>
      <trkpt lat="42.2252210" lon="-8.7167430">
        <ele>81.5</ele>
        <time>2021-05-20T10:46:55Z</time>
      </trkpt>
      <trkpt lat="42.2252200" lon="-8.7167490">
        <ele>81.5</ele>
        <time>2021-05-20T10:46:56Z</time>
      </trkpt>
      <trkpt lat="42.2252160" lon="-8.7167600">
        <ele>81.5</ele>
        <time>2021-05-20T10:46:57Z</time>
      </trkpt>
      <trkpt lat="42.2252180" lon="-8.7167660">
        <ele>81.5</ele>
        <time>2021-05-20T10:46:58Z</time>
      </trkpt>
      <trkpt lat="42.2252210" lon="-8.7167610">
        <ele>81.5</ele>
        <time>2021-05-20T10:46:59Z</time>
      </trkpt>
      <trkpt lat="42.2252220" lon="-8.7167580">
        <ele>81.5</ele>
        <time>2021-05-20T10:47:00Z</time>
      </trkpt>
      <trkpt lat="42.2252300" lon="-8.7167560">
        <ele>81.5</ele>
        <time>2021-05-20T10:47:01Z</time>
      </trkpt>
      <trkpt lat="42.2252370" lon="-8.7167570">
        <ele>81.6</ele>
        <time>2021-05-20T10:47:02Z</time>
      </trkpt>
      <trkpt lat="42.2252520" lon="-8.7167450">
        <ele>81.6</ele>
        <time>2021-05-20T10:47:03Z</time>
      </trkpt>
      <trkpt lat="42.2252560" lon="-8.7167350">
        <ele>81.6</ele>
        <time>2021-05-20T10:47:04Z</time>
      </trkpt>
      <trkpt lat="42.2252700" lon="-8.7167330">
        <ele>81.6</ele>
        <time>2021-05-20T10:47:05Z</time>
      </trkpt>
      <trkpt lat="42.2252720" lon="-8.7167240">
        <ele>81.6</ele>
        <time>2021-05-20T10:47:06Z</time>
      </trkpt>
      <trkpt lat="42.2252730" lon="-8.7167230">
        <ele>81.6</ele>
        <time>2021-05-20T10:47:07Z</time>
      </trkpt>
      <trkpt lat="42.2252780" lon="-8.7167260">
        <ele>81.6</ele>
        <time>2021-05-20T10:47:08Z</time>
      </trkpt>
      <trkpt lat="42.2252850" lon="-8.7167230">
        <ele>81.6</ele>
        <time>2021-05-20T10:47:09Z</time>
      </trkpt>
      <trkpt lat="42.2252960" lon="-8.7167310">
        <ele>81.6</ele>
        <time>2021-05-20T10:47:10Z</time>
      </trkpt>
      <trkpt lat="42.2253040" lon="-8.7167350">
        <ele>81.6</ele>
        <time>2021-05-20T10:47:11Z</time>
      </trkpt>
      <trkpt lat="42.2253260" lon="-8.7167370">
        <ele>81.7</ele>
        <time>2021-05-20T10:47:12Z</time>
      </trkpt>
      <trkpt lat="42.2253290" lon="-8.7167420">
        <ele>81.7</ele>
        <time>2021-05-20T10:47:13Z</time>
      </trkpt>
      <trkpt lat="42.2253330" lon="-8.7167460">
        <ele>81.7</ele>
        <time>2021-05-20T10:47:14Z</time>
      </trkpt>
      <trkpt lat="42.2253360" lon="-8.7167510">
        <ele>81.7</ele>
        <time>2021-05-20T10:47:15Z</time>
      </trkpt>
      <trkpt lat="42.2253390" lon="-8.7167550">
        <ele>81.7</ele>
        <time>2021-05-20T10:47:16Z</time>
      </trkpt>
      <trkpt lat="42.2253420" lon="-8.7167600">
        <ele>81.7</ele>
        <time>2021-05-20T10:47:17Z</time>
      </trkpt>
      <trkpt lat="42.2253540" lon="-8.7167620">
        <ele>81.7</ele>
        <time>2021-05-20T10:47:18Z</time>
      </trkpt>
      <trkpt lat="42.2253570" lon="-8.7167680">
        <ele>81.7</ele>
        <time>2021-05-20T10:47:19Z</time>
      </trkpt>
      <trkpt lat="42.2253630" lon="-8.7167720">
        <ele>81.7</ele>
        <time>2021-05-20T10:47:20Z</time>
      </trkpt>
      <trkpt lat="42.2253580" lon="-8.7167760">
        <ele>81.7</ele>
        <time>2021-05-20T10:47:21Z</time>
      </trkpt>
      <trkpt lat="42.2253530" lon="-8.7167760">
        <ele>81.7</ele>
        <time>2021-05-20T10:47:22Z</time>
      </trkpt>
      <trkpt lat="42.2253540" lon="-8.7167840">
        <ele>81.7</ele>
        <time>2021-05-20T10:47:23Z</time>
      </trkpt>
      <trkpt lat="42.2253490" lon="-8.7167860">
        <ele>81.7</ele>
        <time>2021-05-20T10:47:24Z</time>
      </trkpt>
      <trkpt lat="42.2253460" lon="-8.7167870">
        <ele>81.7</ele>
        <time>2021-05-20T10:47:25Z</time>
      </trkpt>
      <trkpt lat="42.2253440" lon="-8.7167850">
        <ele>81.7</ele>
        <time>2021-05-20T10:47:26Z</time>
      </trkpt>
      <trkpt lat="42.2253390" lon="-8.7167890">
        <ele>81.7</ele>
        <time>2021-05-20T10:47:27Z</time>
      </trkpt>
      <trkpt lat="42.2253330" lon="-8.7167940">
        <ele>81.7</ele>
        <time>2021-05-20T10:47:28Z</time>
      </trkpt>
      <trkpt lat="42.2253350" lon="-8.7167940">
        <ele>81.7</ele>
        <time>2021-05-20T10:47:29Z</time>
      </trkpt>
      <trkpt lat="42.2253380" lon="-8.7167950">
        <ele>81.7</ele>
        <time>2021-05-20T10:47:30Z</time>
      </trkpt>
      <trkpt lat="42.2253400" lon="-8.7167960">
        <ele>81.7</ele>
        <time>2021-05-20T10:47:31Z</time>
      </trkpt>
      <trkpt lat="42.2253430" lon="-8.7167960">
        <ele>81.7</ele>
        <time>2021-05-20T10:47:32Z</time>
      </trkpt>
      <trkpt lat="42.2253450" lon="-8.7167970">
        <ele>81.7</ele>
        <time>2021-05-20T10:47:33Z</time>
      </trkpt>
      <trkpt lat="42.2253480" lon="-8.7167980">
        <ele>81.7</ele>
        <time>2021-05-20T10:47:34Z</time>
      </trkpt>
      <trkpt lat="42.2253500" lon="-8.7167980">
        <ele>81.7</ele>
        <time>2021-05-20T10:47:35Z</time>
      </trkpt>
      <trkpt lat="42.2253530" lon="-8.7167990">
        <ele>81.7</ele>
        <time>2021-05-20T10:47:36Z</time>
      </trkpt>
      <trkpt lat="42.2253550" lon="-8.7167990">
        <ele>81.7</ele>
        <time>2021-05-20T10:47:37Z</time>
      </trkpt>
      <trkpt lat="42.2253580" lon="-8.7168000">
        <ele>81.7</ele>
        <time>2021-05-20T10:47:38Z</time>
      </trkpt>
      <trkpt lat="42.2253600" lon="-8.7168010">
        <ele>81.7</ele>
        <time>2021-05-20T10:47:39Z</time>
      </trkpt>
      <trkpt lat="42.2253630" lon="-8.7168010">
        <ele>81.7</ele>
        <time>2021-05-20T10:47:40Z</time>
      </trkpt>
      <trkpt lat="42.2253650" lon="-8.7168020">
        <ele>81.7</ele>
        <time>2021-05-20T10:47:41Z</time>
      </trkpt>
      <trkpt lat="42.2253680" lon="-8.7168030">
        <ele>81.7</ele>
        <time>2021-05-20T10:47:42Z</time>
      </trkpt>
      <trkpt lat="42.2253710" lon="-8.7168030">
        <ele>81.7</ele>
        <time>2021-05-20T10:47:43Z</time>
      </trkpt>
      <trkpt lat="42.2253730" lon="-8.7168040">
        <ele>81.7</ele>
        <time>2021-05-20T10:47:44Z</time>
      </trkpt>
      <trkpt lat="42.2253760" lon="-8.7168050">
        <ele>81.7</ele>
        <time>2021-05-20T10:47:45Z</time>
      </trkpt>
      <trkpt lat="42.2253780" lon="-8.7168050">
        <ele>81.7</ele>
        <time>2021-05-20T10:47:46Z</time>
      </trkpt>
      <trkpt lat="42.2253810" lon="-8.7168060">
        <ele>81.7</ele>
        <time>2021-05-20T10:47:47Z</time>
      </trkpt>
      <trkpt lat="42.2253830" lon="-8.7168070">
        <ele>81.7</ele>
        <time>2021-05-20T10:47:48Z</time>
      </trkpt>
      <trkpt lat="42.2253860" lon="-8.7168070">
        <ele>81.7</ele>
        <time>2021-05-20T10:47:49Z</time>
      </trkpt>
      <trkpt lat="42.2253880" lon="-8.7168080">
        <ele>81.7</ele>
        <time>2021-05-20T10:47:50Z</time>
      </trkpt>
      <trkpt lat="42.2253910" lon="-8.7168080">
        <ele>81.7</ele>
        <time>2021-05-20T10:47:51Z</time>
      </trkpt>
      <trkpt lat="42.2253930" lon="-8.7168090">
        <ele>81.7</ele>
        <time>2021-05-20T10:47:52Z</time>
      </trkpt>
      <trkpt lat="42.2253960" lon="-8.7168100">
        <ele>81.7</ele>
        <time>2021-05-20T10:47:53Z</time>
      </trkpt>
      <trkpt lat="42.2253980" lon="-8.7168100">
        <ele>81.7</ele>
        <time>2021-05-20T10:47:54Z</time>
      </trkpt>
      <trkpt lat="42.2254010" lon="-8.7168110">
        <ele>81.7</ele>
        <time>2021-05-20T10:47:55Z</time>
      </trkpt>
      <trkpt lat="42.2254030" lon="-8.7168120">
        <ele>81.7</ele>
        <time>2021-05-20T10:47:56Z</time>
      </trkpt>
      <trkpt lat="42.2254060" lon="-8.7168120">
        <ele>81.7</ele>
        <time>2021-05-20T10:47:57Z</time>
      </trkpt>
      <trkpt lat="42.2254090" lon="-8.7168130">
        <ele>81.7</ele>
        <time>2021-05-20T10:47:58Z</time>
      </trkpt>
      <trkpt lat="42.2254110" lon="-8.7168140">
        <ele>81.7</ele>
        <time>2021-05-20T10:47:59Z</time>
      </trkpt>
      <trkpt lat="42.2254140" lon="-8.7168140">
        <ele>81.8</ele>
        <time>2021-05-20T10:48:00Z</time>
      </trkpt>
      <trkpt lat="42.2254160" lon="-8.7168150">
        <ele>81.8</ele>
        <time>2021-05-20T10:48:01Z</time>
      </trkpt>
      <trkpt lat="42.2254190" lon="-8.7168160">
        <ele>81.8</ele>
        <time>2021-05-20T10:48:02Z</time>
      </trkpt>
      <trkpt lat="42.2254210" lon="-8.7168160">
        <ele>81.8</ele>
        <time>2021-05-20T10:48:03Z</time>
      </trkpt>
      <trkpt lat="42.2254240" lon="-8.7168170">
        <ele>81.8</ele>
        <time>2021-05-20T10:48:04Z</time>
      </trkpt>
      <trkpt lat="42.2254260" lon="-8.7168170">
        <ele>81.8</ele>
        <time>2021-05-20T10:48:05Z</time>
      </trkpt>
      <trkpt lat="42.2254290" lon="-8.7168180">
        <ele>81.8</ele>
        <time>2021-05-20T10:48:06Z</time>
      </trkpt>
      <trkpt lat="42.2254310" lon="-8.7168190">
        <ele>81.8</ele>
        <time>2021-05-20T10:48:07Z</time>
      </trkpt>
      <trkpt lat="42.2254340" lon="-8.7168190">
        <ele>81.8</ele>
        <time>2021-05-20T10:48:08Z</time>
      </trkpt>
      <trkpt lat="42.2254360" lon="-8.7168200">
        <ele>81.8</ele>
        <time>2021-05-20T10:48:09Z</time>
      </trkpt>
      <trkpt lat="42.2254390" lon="-8.7168210">
        <ele>81.8</ele>
        <time>2021-05-20T10:48:10Z</time>
      </trkpt>
      <trkpt lat="42.2254410" lon="-8.7168210">
        <ele>81.8</ele>
        <time>2021-05-20T10:48:11Z</time>
      </trkpt>
      <trkpt lat="42.2254440" lon="-8.7168220">
        <ele>81.8</ele>
        <time>2021-05-20T10:48:12Z</time>
      </trkpt>
      <trkpt lat="42.2254470" lon="-8.7168270">
        <ele>81.8</ele>
        <time>2021-05-20T10:48:13Z</time>
      </trkpt>
      <trkpt lat="42.2254510" lon="-8.7168360">
        <ele>81.8</ele>
        <time>2021-05-20T10:48:14Z</time>
      </trkpt>
      <trkpt lat="42.2254500" lon="-8.7168380">
        <ele>81.8</ele>
        <time>2021-05-20T10:48:15Z</time>
      </trkpt>
      <trkpt lat="42.2254500" lon="-8.7168380">
        <ele>81.8</ele>
        <time>2021-05-20T10:48:16Z</time>
      </trkpt>
      <trkpt lat="42.2254500" lon="-8.7168440">
        <ele>81.8</ele>
        <time>2021-05-20T10:48:17Z</time>
      </trkpt>
      <trkpt lat="42.2254480" lon="-8.7168440">
        <ele>81.8</ele>
        <time>2021-05-20T10:48:18Z</time>
      </trkpt>
      <trkpt lat="42.2254440" lon="-8.7168470">
        <ele>81.8</ele>
        <time>2021-05-20T10:48:19Z</time>
      </trkpt>
      <trkpt lat="42.2254400" lon="-8.7168530">
        <ele>81.8</ele>
        <time>2021-05-20T10:48:20Z</time>
      </trkpt>
      <trkpt lat="42.2254390" lon="-8.7168580">
        <ele>81.8</ele>
        <time>2021-05-20T10:48:21Z</time>
      </trkpt>
      <trkpt lat="42.2254370" lon="-8.7168590">
        <ele>81.8</ele>
        <time>2021-05-20T10:48:22Z</time>
      </trkpt>
      <trkpt lat="42.2254370" lon="-8.7168550">
        <ele>81.8</ele>
        <time>2021-05-20T10:48:23Z</time>
      </trkpt>
      <trkpt lat="42.2254370" lon="-8.7168500">
        <ele>81.8</ele>
        <time>2021-05-20T10:48:24Z</time>
      </trkpt>
      <trkpt lat="42.2254370" lon="-8.7168460">
        <ele>81.8</ele>
        <time>2021-05-20T10:48:25Z</time>
      </trkpt>
      <trkpt lat="42.2254360" lon="-8.7168420">
        <ele>81.8</ele>
        <time>2021-05-20T10:48:26Z</time>
      </trkpt>
      <trkpt lat="42.2254360" lon="-8.7168380">
        <ele>81.8</ele>
        <time>2021-05-20T10:48:27Z</time>
      </trkpt>
      <trkpt lat="42.2254360" lon="-8.7168330">
        <ele>81.8</ele>
        <time>2021-05-20T10:48:28Z</time>
      </trkpt>
      <trkpt lat="42.2254360" lon="-8.7168290">
        <ele>81.8</ele>
        <time>2021-05-20T10:48:29Z</time>
      </trkpt>
      <trkpt lat="42.2254360" lon="-8.7168250">
        <ele>81.8</ele>
        <time>2021-05-20T10:48:30Z</time>
      </trkpt>
      <trkpt lat="42.2254360" lon="-8.7168210">
        <ele>81.8</ele>
        <time>2021-05-20T10:48:31Z</time>
      </trkpt>
      <trkpt lat="42.2254360" lon="-8.7168160">
        <ele>81.8</ele>
        <time>2021-05-20T10:48:32Z</time>
      </trkpt>
      <trkpt lat="42.2254360" lon="-8.7168120">
        <ele>81.8</ele>
        <time>2021-05-20T10:48:33Z</time>
      </trkpt>
      <trkpt lat="42.2254350" lon="-8.7168080">
        <ele>81.8</ele>
        <time>2021-05-20T10:48:34Z</time>
      </trkpt>
      <trkpt lat="42.2254350" lon="-8.7168040">
        <ele>81.8</ele>
        <time>2021-05-20T10:48:35Z</time>
      </trkpt>
      <trkpt lat="42.2254350" lon="-8.7167990">
        <ele>81.8</ele>
        <time>2021-05-20T10:48:36Z</time>
      </trkpt>
      <trkpt lat="42.2254350" lon="-8.7167950">
        <ele>81.8</ele>
        <time>2021-05-20T10:48:37Z</time>
      </trkpt>
      <trkpt lat="42.2254380" lon="-8.7167850">
        <ele>81.8</ele>
        <time>2021-05-20T10:48:38Z</time>
      </trkpt>
      <trkpt lat="42.2254420" lon="-8.7167690">
        <ele>81.8</ele>
        <time>2021-05-20T10:48:39Z</time>
      </trkpt>
      <trkpt lat="42.2254270" lon="-8.7167700">
        <ele>81.8</ele>
        <time>2021-05-20T10:48:40Z</time>
      </trkpt>
      <trkpt lat="42.2254220" lon="-8.7167750">
        <ele>81.8</ele>
        <time>2021-05-20T10:48:41Z</time>
      </trkpt>
      <trkpt lat="42.2254050" lon="-8.7167810">
        <ele>81.8</ele>
        <time>2021-05-20T10:48:42Z</time>
      </trkpt>
      <trkpt lat="42.2253890" lon="-8.7167930">
        <ele>81.9</ele>
        <time>2021-05-20T10:48:43Z</time>
      </trkpt>
      <trkpt lat="42.2253810" lon="-8.7167910">
        <ele>81.9</ele>
        <time>2021-05-20T10:48:44Z</time>
      </trkpt>
      <trkpt lat="42.2253800" lon="-8.7167910">
        <ele>81.9</ele>
        <time>2021-05-20T10:48:45Z</time>
      </trkpt>
      <trkpt lat="42.2253800" lon="-8.7167890">
        <ele>81.9</ele>
        <time>2021-05-20T10:48:46Z</time>
      </trkpt>
      <trkpt lat="42.2253750" lon="-8.7167900">
        <ele>81.9</ele>
        <time>2021-05-20T10:48:47Z</time>
      </trkpt>
      <trkpt lat="42.2253710" lon="-8.7167880">
        <ele>81.9</ele>
        <time>2021-05-20T10:48:48Z</time>
      </trkpt>
      <trkpt lat="42.2253710" lon="-8.7167880">
        <ele>81.9</ele>
        <time>2021-05-20T10:48:49Z</time>
      </trkpt>
      <trkpt lat="42.2253710" lon="-8.7167880">
        <ele>81.9</ele>
        <time>2021-05-20T10:48:50Z</time>
      </trkpt>
      <trkpt lat="42.2253710" lon="-8.7167880">
        <ele>81.9</ele>
        <time>2021-05-20T10:48:51Z</time>
      </trkpt>
      <trkpt lat="42.2253710" lon="-8.7167880">
        <ele>81.9</ele>
        <time>2021-05-20T10:48:52Z</time>
      </trkpt>
      <trkpt lat="42.2253710" lon="-8.7167880">
        <ele>81.9</ele>
        <time>2021-05-20T10:48:53Z</time>
      </trkpt>
      <trkpt lat="42.2253710" lon="-8.7167880">
        <ele>81.9</ele>
        <time>2021-05-20T10:48:54Z</time>
      </trkpt>
      <trkpt lat="42.2253710" lon="-8.7167880">
        <ele>81.9</ele>
        <time>2021-05-20T10:48:55Z</time>
      </trkpt>
      <trkpt lat="42.2253710" lon="-8.7167880">
        <ele>81.9</ele>
        <time>2021-05-20T10:48:56Z</time>
      </trkpt>
      <trkpt lat="42.2253710" lon="-8.7167880">
        <ele>81.9</ele>
        <time>2021-05-20T10:48:57Z</time>
      </trkpt>
      <trkpt lat="42.2253710" lon="-8.7167880">
        <ele>81.9</ele>
        <time>2021-05-20T10:48:58Z</time>
      </trkpt>
      <trkpt lat="42.2253710" lon="-8.7167880">
        <ele>81.9</ele>
        <time>2021-05-20T10:48:59Z</time>
      </trkpt>
      <trkpt lat="42.2253710" lon="-8.7167880">
        <ele>81.9</ele>
        <time>2021-05-20T10:49:00Z</time>
      </trkpt>
      <trkpt lat="42.2253710" lon="-8.7167880">
        <ele>81.9</ele>
        <time>2021-05-20T10:49:01Z</time>
      </trkpt>
      <trkpt lat="42.2253710" lon="-8.7167880">
        <ele>81.9</ele>
        <time>2021-05-20T10:49:02Z</time>
      </trkpt>
      <trkpt lat="42.2253710" lon="-8.7167880">
        <ele>81.9</ele>
        <time>2021-05-20T10:49:03Z</time>
      </trkpt>
      <trkpt lat="42.2253720" lon="-8.7167880">
        <ele>81.9</ele>
        <time>2021-05-20T10:49:04Z</time>
      </trkpt>
      <trkpt lat="42.2253720" lon="-8.7167880">
        <ele>81.9</ele>
        <time>2021-05-20T10:49:05Z</time>
      </trkpt>
      <trkpt lat="42.2253720" lon="-8.7167880">
        <ele>81.9</ele>
        <time>2021-05-20T10:49:06Z</time>
      </trkpt>
      <trkpt lat="42.2253720" lon="-8.7167880">
        <ele>81.9</ele>
        <time>2021-05-20T10:49:07Z</time>
      </trkpt>
      <trkpt lat="42.2253720" lon="-8.7167880">
        <ele>81.9</ele>
        <time>2021-05-20T10:49:08Z</time>
      </trkpt>
      <trkpt lat="42.2253720" lon="-8.7167880">
        <ele>81.9</ele>
        <time>2021-05-20T10:49:09Z</time>
      </trkpt>
      <trkpt lat="42.2253720" lon="-8.7167880">
        <ele>81.9</ele>
        <time>2021-05-20T10:49:10Z</time>
      </trkpt>
      <trkpt lat="42.2253720" lon="-8.7167880">
        <ele>81.9</ele>
        <time>2021-05-20T10:49:11Z</time>
      </trkpt>
      <trkpt lat="42.2253720" lon="-8.7167880">
        <ele>81.9</ele>
        <time>2021-05-20T10:49:12Z</time>
      </trkpt>
      <trkpt lat="42.2253720" lon="-8.7167880">
        <ele>81.9</ele>
        <time>2021-05-20T10:49:13Z</time>
      </trkpt>
      <trkpt lat="42.2253720" lon="-8.7167880">
        <ele>81.9</ele>
        <time>2021-05-20T10:49:14Z</time>
      </trkpt>
      <trkpt lat="42.2253720" lon="-8.7167880">
        <ele>81.9</ele>
        <time>2021-05-20T10:49:15Z</time>
      </trkpt>
      <trkpt lat="42.2253720" lon="-8.7167870">
        <ele>81.9</ele>
        <time>2021-05-20T10:49:16Z</time>
      </trkpt>
      <trkpt lat="42.2253720" lon="-8.7167870">
        <ele>81.9</ele>
        <time>2021-05-20T10:49:17Z</time>
      </trkpt>
      <trkpt lat="42.2253720" lon="-8.7167870">
        <ele>81.9</ele>
        <time>2021-05-20T10:49:18Z</time>
      </trkpt>
      <trkpt lat="42.2253720" lon="-8.7167870">
        <ele>81.9</ele>
        <time>2021-05-20T10:49:19Z</time>
      </trkpt>
      <trkpt lat="42.2253720" lon="-8.7167870">
        <ele>81.9</ele>
        <time>2021-05-20T10:49:20Z</time>
      </trkpt>
      <trkpt lat="42.2253720" lon="-8.7167870">
        <ele>81.9</ele>
        <time>2021-05-20T10:49:21Z</time>
      </trkpt>
      <trkpt lat="42.2253720" lon="-8.7167870">
        <ele>81.9</ele>
        <time>2021-05-20T10:49:22Z</time>
      </trkpt>
      <trkpt lat="42.2253720" lon="-8.7167870">
        <ele>81.9</ele>
        <time>2021-05-20T10:49:23Z</time>
      </trkpt>
      <trkpt lat="42.2253720" lon="-8.7167870">
        <ele>81.9</ele>
        <time>2021-05-20T10:49:24Z</time>
      </trkpt>
      <trkpt lat="42.2253720" lon="-8.7167870">
        <ele>81.9</ele>
        <time>2021-05-20T10:49:25Z</time>
      </trkpt>
      <trkpt lat="42.2253720" lon="-8.7167870">
        <ele>81.9</ele>
        <time>2021-05-20T10:49:26Z</time>
      </trkpt>
      <trkpt lat="42.2253720" lon="-8.7167870">
        <ele>81.9</ele>
        <time>2021-05-20T10:49:27Z</time>
      </trkpt>
      <trkpt lat="42.2253720" lon="-8.7167870">
        <ele>81.9</ele>
        <time>2021-05-20T10:49:28Z</time>
      </trkpt>
      <trkpt lat="42.2253720" lon="-8.7167870">
        <ele>81.9</ele>
        <time>2021-05-20T10:49:29Z</time>
      </trkpt>
      <trkpt lat="42.2253720" lon="-8.7167870">
        <ele>81.9</ele>
        <time>2021-05-20T10:49:30Z</time>
      </trkpt>
      <trkpt lat="42.2253720" lon="-8.7167870">
        <ele>81.9</ele>
        <time>2021-05-20T10:49:31Z</time>
      </trkpt>
      <trkpt lat="42.2253720" lon="-8.7167870">
        <ele>81.9</ele>
        <time>2021-05-20T10:49:32Z</time>
      </trkpt>
      <trkpt lat="42.2253720" lon="-8.7167870">
        <ele>81.9</ele>
        <time>2021-05-20T10:49:33Z</time>
      </trkpt>
      <trkpt lat="42.2253720" lon="-8.7167870">
        <ele>81.9</ele>
        <time>2021-05-20T10:49:34Z</time>
      </trkpt>
      <trkpt lat="42.2253720" lon="-8.7167870">
        <ele>81.9</ele>
        <time>2021-05-20T10:49:35Z</time>
      </trkpt>
      <trkpt lat="42.2253720" lon="-8.7167870">
        <ele>81.9</ele>
        <time>2021-05-20T10:49:36Z</time>
      </trkpt>
      <trkpt lat="42.2253720" lon="-8.7167870">
        <ele>81.9</ele>
        <time>2021-05-20T10:49:37Z</time>
      </trkpt>
      <trkpt lat="42.2253730" lon="-8.7167870">
        <ele>81.9</ele>
        <time>2021-05-20T10:49:38Z</time>
      </trkpt>
      <trkpt lat="42.2253730" lon="-8.7167870">
        <ele>81.9</ele>
        <time>2021-05-20T10:49:39Z</time>
      </trkpt>
      <trkpt lat="42.2253730" lon="-8.7167870">
        <ele>81.9</ele>
        <time>2021-05-20T10:49:40Z</time>
      </trkpt>
      <trkpt lat="42.2253730" lon="-8.7167870">
        <ele>81.9</ele>
        <time>2021-05-20T10:49:41Z</time>
      </trkpt>
      <trkpt lat="42.2253730" lon="-8.7167870">
        <ele>81.9</ele>
        <time>2021-05-20T10:49:42Z</time>
      </trkpt>
      <trkpt lat="42.2253730" lon="-8.7167870">
        <ele>81.9</ele>
        <time>2021-05-20T10:49:43Z</time>
      </trkpt>
      <trkpt lat="42.2253730" lon="-8.7167870">
        <ele>81.9</ele>
        <time>2021-05-20T10:49:44Z</time>
      </trkpt>
      <trkpt lat="42.2253730" lon="-8.7167870">
        <ele>81.9</ele>
        <time>2021-05-20T10:49:45Z</time>
      </trkpt>
      <trkpt lat="42.2253730" lon="-8.7167870">
        <ele>81.9</ele>
        <time>2021-05-20T10:49:46Z</time>
      </trkpt>
      <trkpt lat="42.2253730" lon="-8.7167870">
        <ele>81.9</ele>
        <time>2021-05-20T10:49:47Z</time>
      </trkpt>
      <trkpt lat="42.2253730" lon="-8.7167870">
        <ele>81.9</ele>
        <time>2021-05-20T10:49:48Z</time>
      </trkpt>
      <trkpt lat="42.2253730" lon="-8.7167870">
        <ele>81.9</ele>
        <time>2021-05-20T10:49:49Z</time>
      </trkpt>
      <trkpt lat="42.2253730" lon="-8.7167870">
        <ele>81.9</ele>
        <time>2021-05-20T10:49:50Z</time>
      </trkpt>
      <trkpt lat="42.2253730" lon="-8.7167870">
        <ele>81.9</ele>
        <time>2021-05-20T10:49:51Z</time>
      </trkpt>
      <trkpt lat="42.2253730" lon="-8.7167870">
        <ele>81.9</ele>
        <time>2021-05-20T10:49:52Z</time>
      </trkpt>
      <trkpt lat="42.2253730" lon="-8.7167870">
        <ele>81.9</ele>
        <time>2021-05-20T10:49:53Z</time>
      </trkpt>
      <trkpt lat="42.2253730" lon="-8.7167870">
        <ele>81.9</ele>
        <time>2021-05-20T10:49:54Z</time>
      </trkpt>
      <trkpt lat="42.2253730" lon="-8.7167870">
        <ele>81.9</ele>
        <time>2021-05-20T10:49:55Z</time>
      </trkpt>
      <trkpt lat="42.2253730" lon="-8.7167870">
        <ele>81.9</ele>
        <time>2021-05-20T10:49:56Z</time>
      </trkpt>
      <trkpt lat="42.2253730" lon="-8.7167870">
        <ele>81.9</ele>
        <time>2021-05-20T10:49:57Z</time>
      </trkpt>
      <trkpt lat="42.2253730" lon="-8.7167870">
        <ele>81.9</ele>
        <time>2021-05-20T10:49:58Z</time>
      </trkpt>
      <trkpt lat="42.2253730" lon="-8.7167870">
        <ele>81.9</ele>
        <time>2021-05-20T10:49:59Z</time>
      </trkpt>
      <trkpt lat="42.2253730" lon="-8.7167870">
        <ele>81.9</ele>
        <time>2021-05-20T10:50:00Z</time>
      </trkpt>
      <trkpt lat="42.2253730" lon="-8.7167870">
        <ele>81.9</ele>
        <time>2021-05-20T10:50:01Z</time>
      </trkpt>
      <trkpt lat="42.2253730" lon="-8.7167870">
        <ele>81.9</ele>
        <time>2021-05-20T10:50:02Z</time>
      </trkpt>
      <trkpt lat="42.2253730" lon="-8.7167870">
        <ele>81.9</ele>
        <time>2021-05-20T10:50:03Z</time>
      </trkpt>
      <trkpt lat="42.2253730" lon="-8.7167870">
        <ele>81.9</ele>
        <time>2021-05-20T10:50:04Z</time>
      </trkpt>
      <trkpt lat="42.2253730" lon="-8.7167870">
        <ele>81.9</ele>
        <time>2021-05-20T10:50:05Z</time>
      </trkpt>
      <trkpt lat="42.2253730" lon="-8.7167870">
        <ele>81.9</ele>
        <time>2021-05-20T10:50:06Z</time>
      </trkpt>
      <trkpt lat="42.2253730" lon="-8.7167870">
        <ele>81.9</ele>
        <time>2021-05-20T10:50:07Z</time>
      </trkpt>
      <trkpt lat="42.2253730" lon="-8.7167870">
        <ele>81.9</ele>
        <time>2021-05-20T10:50:08Z</time>
      </trkpt>
      <trkpt lat="42.2253730" lon="-8.7167870">
        <ele>81.9</ele>
        <time>2021-05-20T10:50:09Z</time>
      </trkpt>
      <trkpt lat="42.2253730" lon="-8.7167870">
        <ele>81.9</ele>
        <time>2021-05-20T10:50:10Z</time>
      </trkpt>
      <trkpt lat="42.2253730" lon="-8.7167870">
        <ele>81.9</ele>
        <time>2021-05-20T10:50:11Z</time>
      </trkpt>
      <trkpt lat="42.2253740" lon="-8.7167860">
        <ele>81.9</ele>
        <time>2021-05-20T10:50:12Z</time>
      </trkpt>
      <trkpt lat="42.2253740" lon="-8.7167860">
        <ele>81.9</ele>
        <time>2021-05-20T10:50:13Z</time>
      </trkpt>
      <trkpt lat="42.2253740" lon="-8.7167860">
        <ele>81.9</ele>
        <time>2021-05-20T10:50:14Z</time>
      </trkpt>
      <trkpt lat="42.2253740" lon="-8.7167860">
        <ele>81.9</ele>
        <time>2021-05-20T10:50:15Z</time>
      </trkpt>
      <trkpt lat="42.2253740" lon="-8.7167860">
        <ele>81.9</ele>
        <time>2021-05-20T10:50:16Z</time>
      </trkpt>
      <trkpt lat="42.2253740" lon="-8.7167860">
        <ele>81.9</ele>
        <time>2021-05-20T10:50:17Z</time>
      </trkpt>
      <trkpt lat="42.2253740" lon="-8.7167860">
        <ele>81.9</ele>
        <time>2021-05-20T10:50:18Z</time>
      </trkpt>
      <trkpt lat="42.2253740" lon="-8.7167860">
        <ele>81.9</ele>
        <time>2021-05-20T10:50:19Z</time>
      </trkpt>
      <trkpt lat="42.2253740" lon="-8.7167860">
        <ele>81.9</ele>
        <time>2021-05-20T10:50:20Z</time>
      </trkpt>
      <trkpt lat="42.2253740" lon="-8.7167860">
        <ele>81.9</ele>
        <time>2021-05-20T10:50:21Z</time>
      </trkpt>
      <trkpt lat="42.2253740" lon="-8.7167860">
        <ele>81.9</ele>
        <time>2021-05-20T10:50:22Z</time>
      </trkpt>
      <trkpt lat="42.2253740" lon="-8.7167860">
        <ele>81.9</ele>
        <time>2021-05-20T10:50:23Z</time>
      </trkpt>
      <trkpt lat="42.2253740" lon="-8.7167860">
        <ele>81.9</ele>
        <time>2021-05-20T10:50:24Z</time>
      </trkpt>
      <trkpt lat="42.2253740" lon="-8.7167860">
        <ele>81.9</ele>
        <time>2021-05-20T10:50:25Z</time>
      </trkpt>
      <trkpt lat="42.2253740" lon="-8.7167860">
        <ele>81.9</ele>
        <time>2021-05-20T10:50:26Z</time>
      </trkpt>
      <trkpt lat="42.2253740" lon="-8.7167860">
        <ele>81.9</ele>
        <time>2021-05-20T10:50:27Z</time>
      </trkpt>
      <trkpt lat="42.2253740" lon="-8.7167860">
        <ele>81.9</ele>
        <time>2021-05-20T10:50:28Z</time>
      </trkpt>
      <trkpt lat="42.2253740" lon="-8.7167860">
        <ele>81.9</ele>
        <time>2021-05-20T10:50:29Z</time>
      </trkpt>
      <trkpt lat="42.2253740" lon="-8.7167860">
        <ele>81.9</ele>
        <time>2021-05-20T10:50:30Z</time>
      </trkpt>
      <trkpt lat="42.2253740" lon="-8.7167860">
        <ele>81.9</ele>
        <time>2021-05-20T10:50:31Z</time>
      </trkpt>
      <trkpt lat="42.2253740" lon="-8.7167860">
        <ele>81.9</ele>
        <time>2021-05-20T10:50:32Z</time>
      </trkpt>
      <trkpt lat="42.2253740" lon="-8.7167860">
        <ele>81.9</ele>
        <time>2021-05-20T10:50:33Z</time>
      </trkpt>
      <trkpt lat="42.2253740" lon="-8.7167860">
        <ele>81.9</ele>
        <time>2021-05-20T10:50:34Z</time>
      </trkpt>
      <trkpt lat="42.2253740" lon="-8.7167860">
        <ele>81.9</ele>
        <time>2021-05-20T10:50:35Z</time>
      </trkpt>
      <trkpt lat="42.2253740" lon="-8.7167860">
        <ele>81.9</ele>
        <time>2021-05-20T10:50:36Z</time>
      </trkpt>
      <trkpt lat="42.2253740" lon="-8.7167860">
        <ele>81.9</ele>
        <time>2021-05-20T10:50:37Z</time>
      </trkpt>
      <trkpt lat="42.2253740" lon="-8.7167860">
        <ele>81.9</ele>
        <time>2021-05-20T10:50:38Z</time>
      </trkpt>
      <trkpt lat="42.2253740" lon="-8.7167860">
        <ele>81.9</ele>
        <time>2021-05-20T10:50:39Z</time>
      </trkpt>
      <trkpt lat="42.2253740" lon="-8.7167860">
        <ele>81.9</ele>
        <time>2021-05-20T10:50:40Z</time>
      </trkpt>
      <trkpt lat="42.2253740" lon="-8.7167860">
        <ele>81.9</ele>
        <time>2021-05-20T10:50:41Z</time>
      </trkpt>
      <trkpt lat="42.2253740" lon="-8.7167860">
        <ele>81.9</ele>
        <time>2021-05-20T10:50:42Z</time>
      </trkpt>
      <trkpt lat="42.2253740" lon="-8.7167860">
        <ele>81.9</ele>
        <time>2021-05-20T10:50:43Z</time>
      </trkpt>
      <trkpt lat="42.2253740" lon="-8.7167860">
        <ele>81.9</ele>
        <time>2021-05-20T10:50:44Z</time>
      </trkpt>
      <trkpt lat="42.2253740" lon="-8.7167860">
        <ele>81.9</ele>
        <time>2021-05-20T10:50:45Z</time>
      </trkpt>
      <trkpt lat="42.2253750" lon="-8.7167860">
        <ele>81.9</ele>
        <time>2021-05-20T10:50:46Z</time>
      </trkpt>
      <trkpt lat="42.2253750" lon="-8.7167860">
        <ele>81.9</ele>
        <time>2021-05-20T10:50:47Z</time>
      </trkpt>
      <trkpt lat="42.2253750" lon="-8.7167860">
        <ele>81.9</ele>
        <time>2021-05-20T10:50:48Z</time>
      </trkpt>
      <trkpt lat="42.2253750" lon="-8.7167860">
        <ele>81.9</ele>
        <time>2021-05-20T10:50:49Z</time>
      </trkpt>
      <trkpt lat="42.2253750" lon="-8.7167860">
        <ele>81.9</ele>
        <time>2021-05-20T10:50:50Z</time>
      </trkpt>
      <trkpt lat="42.2253750" lon="-8.7167860">
        <ele>81.9</ele>
        <time>2021-05-20T10:50:51Z</time>
      </trkpt>
      <trkpt lat="42.2253750" lon="-8.7167860">
        <ele>81.9</ele>
        <time>2021-05-20T10:50:52Z</time>
      </trkpt>
      <trkpt lat="42.2253750" lon="-8.7167860">
        <ele>81.9</ele>
        <time>2021-05-20T10:50:53Z</time>
      </trkpt>
      <trkpt lat="42.2253750" lon="-8.7167860">
        <ele>81.9</ele>
        <time>2021-05-20T10:50:54Z</time>
      </trkpt>
      <trkpt lat="42.2253750" lon="-8.7167860">
        <ele>81.9</ele>
        <time>2021-05-20T10:50:55Z</time>
      </trkpt>
      <trkpt lat="42.2253750" lon="-8.7167860">
        <ele>81.9</ele>
        <time>2021-05-20T10:50:56Z</time>
      </trkpt>
      <trkpt lat="42.2253750" lon="-8.7167860">
        <ele>81.9</ele>
        <time>2021-05-20T10:50:57Z</time>
      </trkpt>
      <trkpt lat="42.2253750" lon="-8.7167860">
        <ele>81.9</ele>
        <time>2021-05-20T10:50:58Z</time>
      </trkpt>
      <trkpt lat="42.2253750" lon="-8.7167860">
        <ele>81.9</ele>
        <time>2021-05-20T10:50:59Z</time>
      </trkpt>
      <trkpt lat="42.2253750" lon="-8.7167860">
        <ele>81.9</ele>
        <time>2021-05-20T10:51:00Z</time>
      </trkpt>
      <trkpt lat="42.2253750" lon="-8.7167860">
        <ele>81.9</ele>
        <time>2021-05-20T10:51:01Z</time>
      </trkpt>
      <trkpt lat="42.2253750" lon="-8.7167860">
        <ele>81.9</ele>
        <time>2021-05-20T10:51:02Z</time>
      </trkpt>
      <trkpt lat="42.2253750" lon="-8.7167860">
        <ele>81.9</ele>
        <time>2021-05-20T10:51:03Z</time>
      </trkpt>
      <trkpt lat="42.2253750" lon="-8.7167860">
        <ele>81.9</ele>
        <time>2021-05-20T10:51:04Z</time>
      </trkpt>
      <trkpt lat="42.2253750" lon="-8.7167860">
        <ele>81.9</ele>
        <time>2021-05-20T10:51:05Z</time>
      </trkpt>
      <trkpt lat="42.2253750" lon="-8.7167860">
        <ele>81.9</ele>
        <time>2021-05-20T10:51:06Z</time>
      </trkpt>
      <trkpt lat="42.2253750" lon="-8.7167860">
        <ele>81.9</ele>
        <time>2021-05-20T10:51:07Z</time>
      </trkpt>
      <trkpt lat="42.2253750" lon="-8.7167850">
        <ele>81.9</ele>
        <time>2021-05-20T10:51:08Z</time>
      </trkpt>
      <trkpt lat="42.2253750" lon="-8.7167850">
        <ele>81.9</ele>
        <time>2021-05-20T10:51:09Z</time>
      </trkpt>
      <trkpt lat="42.2253750" lon="-8.7167850">
        <ele>81.9</ele>
        <time>2021-05-20T10:51:10Z</time>
      </trkpt>
      <trkpt lat="42.2253750" lon="-8.7167850">
        <ele>81.9</ele>
        <time>2021-05-20T10:51:11Z</time>
      </trkpt>
      <trkpt lat="42.2253750" lon="-8.7167850">
        <ele>81.9</ele>
        <time>2021-05-20T10:51:12Z</time>
      </trkpt>
      <trkpt lat="42.2253750" lon="-8.7167850">
        <ele>81.9</ele>
        <time>2021-05-20T10:51:13Z</time>
      </trkpt>
      <trkpt lat="42.2253750" lon="-8.7167850">
        <ele>81.9</ele>
        <time>2021-05-20T10:51:14Z</time>
      </trkpt>
      <trkpt lat="42.2253750" lon="-8.7167850">
        <ele>81.9</ele>
        <time>2021-05-20T10:51:15Z</time>
      </trkpt>
      <trkpt lat="42.2253750" lon="-8.7167850">
        <ele>81.9</ele>
        <time>2021-05-20T10:51:16Z</time>
      </trkpt>
      <trkpt lat="42.2253750" lon="-8.7167850">
        <ele>81.9</ele>
        <time>2021-05-20T10:51:17Z</time>
      </trkpt>
      <trkpt lat="42.2253750" lon="-8.7167850">
        <ele>81.9</ele>
        <time>2021-05-20T10:51:18Z</time>
      </trkpt>
      <trkpt lat="42.2253750" lon="-8.7167850">
        <ele>81.9</ele>
        <time>2021-05-20T10:51:19Z</time>
      </trkpt>
      <trkpt lat="42.2253760" lon="-8.7167850">
        <ele>81.9</ele>
        <time>2021-05-20T10:51:20Z</time>
      </trkpt>
      <trkpt lat="42.2253760" lon="-8.7167850">
        <ele>81.9</ele>
        <time>2021-05-20T10:51:21Z</time>
      </trkpt>
      <trkpt lat="42.2253760" lon="-8.7167850">
        <ele>81.9</ele>
        <time>2021-05-20T10:51:22Z</time>
      </trkpt>
      <trkpt lat="42.2253760" lon="-8.7167850">
        <ele>81.9</ele>
        <time>2021-05-20T10:51:23Z</time>
      </trkpt>
      <trkpt lat="42.2253760" lon="-8.7167850">
        <ele>81.9</ele>
        <time>2021-05-20T10:51:24Z</time>
      </trkpt>
      <trkpt lat="42.2253760" lon="-8.7167850">
        <ele>81.9</ele>
        <time>2021-05-20T10:51:25Z</time>
      </trkpt>
      <trkpt lat="42.2253760" lon="-8.7167850">
        <ele>81.9</ele>
        <time>2021-05-20T10:51:26Z</time>
      </trkpt>
      <trkpt lat="42.2253760" lon="-8.7167850">
        <ele>81.9</ele>
        <time>2021-05-20T10:51:27Z</time>
      </trkpt>
      <trkpt lat="42.2253760" lon="-8.7167850">
        <ele>81.9</ele>
        <time>2021-05-20T10:51:28Z</time>
      </trkpt>
      <trkpt lat="42.2253760" lon="-8.7167850">
        <ele>81.9</ele>
        <time>2021-05-20T10:51:29Z</time>
      </trkpt>
      <trkpt lat="42.2253760" lon="-8.7167850">
        <ele>81.9</ele>
        <time>2021-05-20T10:51:30Z</time>
      </trkpt>
      <trkpt lat="42.2253760" lon="-8.7167850">
        <ele>81.9</ele>
        <time>2021-05-20T10:51:31Z</time>
      </trkpt>
      <trkpt lat="42.2253760" lon="-8.7167850">
        <ele>81.9</ele>
        <time>2021-05-20T10:51:32Z</time>
      </trkpt>
      <trkpt lat="42.2253760" lon="-8.7167850">
        <ele>81.9</ele>
        <time>2021-05-20T10:51:33Z</time>
      </trkpt>
      <trkpt lat="42.2253760" lon="-8.7167850">
        <ele>81.9</ele>
        <time>2021-05-20T10:51:34Z</time>
      </trkpt>
      <trkpt lat="42.2253760" lon="-8.7167850">
        <ele>81.9</ele>
        <time>2021-05-20T10:51:35Z</time>
      </trkpt>
      <trkpt lat="42.2253760" lon="-8.7167850">
        <ele>81.9</ele>
        <time>2021-05-20T10:51:36Z</time>
      </trkpt>
      <trkpt lat="42.2253760" lon="-8.7167850">
        <ele>81.9</ele>
        <time>2021-05-20T10:51:37Z</time>
      </trkpt>
      <trkpt lat="42.2253760" lon="-8.7167850">
        <ele>81.9</ele>
        <time>2021-05-20T10:51:38Z</time>
      </trkpt>
      <trkpt lat="42.2253760" lon="-8.7167850">
        <ele>81.9</ele>
        <time>2021-05-20T10:51:39Z</time>
      </trkpt>
      <trkpt lat="42.2253760" lon="-8.7167850">
        <ele>81.9</ele>
        <time>2021-05-20T10:51:40Z</time>
      </trkpt>
      <trkpt lat="42.2253760" lon="-8.7167850">
        <ele>81.9</ele>
        <time>2021-05-20T10:51:41Z</time>
      </trkpt>
      <trkpt lat="42.2253760" lon="-8.7167850">
        <ele>81.9</ele>
        <time>2021-05-20T10:51:42Z</time>
      </trkpt>
      <trkpt lat="42.2253760" lon="-8.7167850">
        <ele>81.9</ele>
        <time>2021-05-20T10:51:43Z</time>
      </trkpt>
      <trkpt lat="42.2253760" lon="-8.7167850">
        <ele>81.9</ele>
        <time>2021-05-20T10:51:44Z</time>
      </trkpt>
      <trkpt lat="42.2253760" lon="-8.7167850">
        <ele>81.9</ele>
        <time>2021-05-20T10:51:45Z</time>
      </trkpt>
      <trkpt lat="42.2253760" lon="-8.7167850">
        <ele>81.9</ele>
        <time>2021-05-20T10:51:46Z</time>
      </trkpt>
      <trkpt lat="42.2253760" lon="-8.7167850">
        <ele>81.9</ele>
        <time>2021-05-20T10:51:47Z</time>
      </trkpt>
      <trkpt lat="42.2253760" lon="-8.7167850">
        <ele>81.9</ele>
        <time>2021-05-20T10:51:48Z</time>
      </trkpt>
      <trkpt lat="42.2253760" lon="-8.7167850">
        <ele>81.9</ele>
        <time>2021-05-20T10:51:49Z</time>
      </trkpt>
      <trkpt lat="42.2253760" lon="-8.7167850">
        <ele>81.9</ele>
        <time>2021-05-20T10:51:50Z</time>
      </trkpt>
      <trkpt lat="42.2253760" lon="-8.7167850">
        <ele>81.9</ele>
        <time>2021-05-20T10:51:51Z</time>
      </trkpt>
      <trkpt lat="42.2253760" lon="-8.7167850">
        <ele>81.9</ele>
        <time>2021-05-20T10:51:52Z</time>
      </trkpt>
      <trkpt lat="42.2253760" lon="-8.7167850">
        <ele>81.9</ele>
        <time>2021-05-20T10:51:53Z</time>
      </trkpt>
      <trkpt lat="42.2253770" lon="-8.7167850">
        <ele>81.9</ele>
        <time>2021-05-20T10:51:54Z</time>
      </trkpt>
      <trkpt lat="42.2253770" lon="-8.7167850">
        <ele>81.9</ele>
        <time>2021-05-20T10:51:55Z</time>
      </trkpt>
      <trkpt lat="42.2253770" lon="-8.7167850">
        <ele>81.9</ele>
        <time>2021-05-20T10:51:56Z</time>
      </trkpt>
      <trkpt lat="42.2253770" lon="-8.7167850">
        <ele>81.9</ele>
        <time>2021-05-20T10:51:57Z</time>
      </trkpt>
      <trkpt lat="42.2253770" lon="-8.7167850">
        <ele>81.9</ele>
        <time>2021-05-20T10:51:58Z</time>
      </trkpt>
      <trkpt lat="42.2253770" lon="-8.7167850">
        <ele>81.9</ele>
        <time>2021-05-20T10:51:59Z</time>
      </trkpt>
      <trkpt lat="42.2253770" lon="-8.7167850">
        <ele>81.9</ele>
        <time>2021-05-20T10:52:00Z</time>
      </trkpt>
      <trkpt lat="42.2253770" lon="-8.7167850">
        <ele>81.9</ele>
        <time>2021-05-20T10:52:01Z</time>
      </trkpt>
      <trkpt lat="42.2253770" lon="-8.7167850">
        <ele>81.9</ele>
        <time>2021-05-20T10:52:02Z</time>
      </trkpt>
      <trkpt lat="42.2253770" lon="-8.7167850">
        <ele>81.9</ele>
        <time>2021-05-20T10:52:03Z</time>
      </trkpt>
      <trkpt lat="42.2253770" lon="-8.7167840">
        <ele>81.9</ele>
        <time>2021-05-20T10:52:04Z</time>
      </trkpt>
      <trkpt lat="42.2253770" lon="-8.7167840">
        <ele>81.9</ele>
        <time>2021-05-20T10:52:05Z</time>
      </trkpt>
      <trkpt lat="42.2253770" lon="-8.7167840">
        <ele>81.9</ele>
        <time>2021-05-20T10:52:06Z</time>
      </trkpt>
      <trkpt lat="42.2253770" lon="-8.7167840">
        <ele>81.9</ele>
        <time>2021-05-20T10:52:07Z</time>
      </trkpt>
      <trkpt lat="42.2253770" lon="-8.7167840">
        <ele>81.9</ele>
        <time>2021-05-20T10:52:08Z</time>
      </trkpt>
      <trkpt lat="42.2253770" lon="-8.7167840">
        <ele>81.9</ele>
        <time>2021-05-20T10:52:09Z</time>
      </trkpt>
      <trkpt lat="42.2253770" lon="-8.7167840">
        <ele>81.9</ele>
        <time>2021-05-20T10:52:10Z</time>
      </trkpt>
      <trkpt lat="42.2253770" lon="-8.7167840">
        <ele>81.9</ele>
        <time>2021-05-20T10:52:11Z</time>
      </trkpt>
      <trkpt lat="42.2253770" lon="-8.7167840">
        <ele>81.9</ele>
        <time>2021-05-20T10:52:12Z</time>
      </trkpt>
      <trkpt lat="42.2253770" lon="-8.7167840">
        <ele>81.9</ele>
        <time>2021-05-20T10:52:13Z</time>
      </trkpt>
      <trkpt lat="42.2253770" lon="-8.7167840">
        <ele>81.9</ele>
        <time>2021-05-20T10:52:14Z</time>
      </trkpt>
      <trkpt lat="42.2253770" lon="-8.7167840">
        <ele>81.9</ele>
        <time>2021-05-20T10:52:15Z</time>
      </trkpt>
      <trkpt lat="42.2253770" lon="-8.7167840">
        <ele>81.9</ele>
        <time>2021-05-20T10:52:16Z</time>
      </trkpt>
      <trkpt lat="42.2253770" lon="-8.7167840">
        <ele>81.9</ele>
        <time>2021-05-20T10:52:17Z</time>
      </trkpt>
      <trkpt lat="42.2253770" lon="-8.7167840">
        <ele>81.9</ele>
        <time>2021-05-20T10:52:18Z</time>
      </trkpt>
      <trkpt lat="42.2253770" lon="-8.7167840">
        <ele>81.9</ele>
        <time>2021-05-20T10:52:19Z</time>
      </trkpt>
      <trkpt lat="42.2253770" lon="-8.7167840">
        <ele>81.9</ele>
        <time>2021-05-20T10:52:20Z</time>
      </trkpt>
      <trkpt lat="42.2253770" lon="-8.7167840">
        <ele>81.9</ele>
        <time>2021-05-20T10:52:21Z</time>
      </trkpt>
      <trkpt lat="42.2253770" lon="-8.7167840">
        <ele>81.9</ele>
        <time>2021-05-20T10:52:22Z</time>
      </trkpt>
      <trkpt lat="42.2253770" lon="-8.7167840">
        <ele>81.9</ele>
        <time>2021-05-20T10:52:23Z</time>
      </trkpt>
      <trkpt lat="42.2253770" lon="-8.7167840">
        <ele>81.9</ele>
        <time>2021-05-20T10:52:24Z</time>
      </trkpt>
      <trkpt lat="42.2253770" lon="-8.7167840">
        <ele>81.9</ele>
        <time>2021-05-20T10:52:25Z</time>
      </trkpt>
      <trkpt lat="42.2253770" lon="-8.7167840">
        <ele>81.9</ele>
        <time>2021-05-20T10:52:26Z</time>
      </trkpt>
      <trkpt lat="42.2253770" lon="-8.7167840">
        <ele>81.9</ele>
        <time>2021-05-20T10:52:27Z</time>
      </trkpt>
      <trkpt lat="42.2253780" lon="-8.7167840">
        <ele>81.9</ele>
        <time>2021-05-20T10:52:29Z</time>
      </trkpt>
      <trkpt lat="42.2253780" lon="-8.7167840">
        <ele>81.9</ele>
        <time>2021-05-20T10:52:30Z</time>
      </trkpt>
      <trkpt lat="42.2253780" lon="-8.7167840">
        <ele>81.9</ele>
        <time>2021-05-20T10:52:31Z</time>
      </trkpt>
      <trkpt lat="42.2253780" lon="-8.7167840">
        <ele>81.9</ele>
        <time>2021-05-20T10:52:32Z</time>
      </trkpt>
      <trkpt lat="42.2253780" lon="-8.7167840">
        <ele>81.9</ele>
        <time>2021-05-20T10:52:33Z</time>
      </trkpt>
      <trkpt lat="42.2253780" lon="-8.7167840">
        <ele>81.9</ele>
        <time>2021-05-20T10:52:34Z</time>
      </trkpt>
      <trkpt lat="42.2253780" lon="-8.7167840">
        <ele>81.9</ele>
        <time>2021-05-20T10:52:35Z</time>
      </trkpt>
      <trkpt lat="42.2253780" lon="-8.7167840">
        <ele>81.9</ele>
        <time>2021-05-20T10:52:36Z</time>
      </trkpt>
      <trkpt lat="42.2253780" lon="-8.7167840">
        <ele>81.9</ele>
        <time>2021-05-20T10:52:37Z</time>
      </trkpt>
      <trkpt lat="42.2253780" lon="-8.7167840">
        <ele>81.9</ele>
        <time>2021-05-20T10:52:38Z</time>
      </trkpt>
      <trkpt lat="42.2253780" lon="-8.7167840">
        <ele>81.9</ele>
        <time>2021-05-20T10:52:39Z</time>
      </trkpt>
      <trkpt lat="42.2253780" lon="-8.7167840">
        <ele>81.9</ele>
        <time>2021-05-20T10:52:40Z</time>
      </trkpt>
      <trkpt lat="42.2253780" lon="-8.7167840">
        <ele>81.9</ele>
        <time>2021-05-20T10:52:41Z</time>
      </trkpt>
      <trkpt lat="42.2253780" lon="-8.7167840">
        <ele>81.9</ele>
        <time>2021-05-20T10:52:42Z</time>
      </trkpt>
      <trkpt lat="42.2253780" lon="-8.7167840">
        <ele>81.9</ele>
        <time>2021-05-20T10:52:43Z</time>
      </trkpt>
      <trkpt lat="42.2253780" lon="-8.7167840">
        <ele>81.9</ele>
        <time>2021-05-20T10:52:44Z</time>
      </trkpt>
      <trkpt lat="42.2253780" lon="-8.7167840">
        <ele>81.9</ele>
        <time>2021-05-20T10:52:45Z</time>
      </trkpt>
      <trkpt lat="42.2253780" lon="-8.7167840">
        <ele>81.9</ele>
        <time>2021-05-20T10:52:46Z</time>
      </trkpt>
      <trkpt lat="42.2253780" lon="-8.7167840">
        <ele>81.9</ele>
        <time>2021-05-20T10:52:47Z</time>
      </trkpt>
      <trkpt lat="42.2253780" lon="-8.7167840">
        <ele>81.9</ele>
        <time>2021-05-20T10:52:48Z</time>
      </trkpt>
      <trkpt lat="42.2253780" lon="-8.7167840">
        <ele>81.9</ele>
        <time>2021-05-20T10:52:49Z</time>
      </trkpt>
      <trkpt lat="42.2253780" lon="-8.7167840">
        <ele>81.9</ele>
        <time>2021-05-20T10:52:50Z</time>
      </trkpt>
      <trkpt lat="42.2253780" lon="-8.7167840">
        <ele>81.9</ele>
        <time>2021-05-20T10:52:51Z</time>
      </trkpt>
      <trkpt lat="42.2253780" lon="-8.7167840">
        <ele>81.9</ele>
        <time>2021-05-20T10:52:52Z</time>
      </trkpt>
      <trkpt lat="42.2253780" lon="-8.7167840">
        <ele>81.9</ele>
        <time>2021-05-20T10:52:53Z</time>
      </trkpt>
      <trkpt lat="42.2253780" lon="-8.7167840">
        <ele>81.9</ele>
        <time>2021-05-20T10:52:54Z</time>
      </trkpt>
      <trkpt lat="42.2253780" lon="-8.7167840">
        <ele>81.9</ele>
        <time>2021-05-20T10:52:55Z</time>
      </trkpt>
      <trkpt lat="42.2253780" lon="-8.7167840">
        <ele>81.9</ele>
        <time>2021-05-20T10:52:56Z</time>
      </trkpt>
      <trkpt lat="42.2253780" lon="-8.7167840">
        <ele>81.9</ele>
        <time>2021-05-20T10:52:57Z</time>
      </trkpt>
      <trkpt lat="42.2253780" lon="-8.7167840">
        <ele>81.9</ele>
        <time>2021-05-20T10:52:58Z</time>
      </trkpt>
      <trkpt lat="42.2253780" lon="-8.7167840">
        <ele>81.9</ele>
        <time>2021-05-20T10:52:59Z</time>
      </trkpt>
      <trkpt lat="42.2253780" lon="-8.7167840">
        <ele>81.9</ele>
        <time>2021-05-20T10:53:00Z</time>
      </trkpt>
      <trkpt lat="42.2253780" lon="-8.7167830">
        <ele>81.9</ele>
        <time>2021-05-20T10:53:01Z</time>
      </trkpt>
      <trkpt lat="42.2253780" lon="-8.7167830">
        <ele>81.9</ele>
        <time>2021-05-20T10:53:02Z</time>
      </trkpt>
      <trkpt lat="42.2253790" lon="-8.7167830">
        <ele>81.9</ele>
        <time>2021-05-20T10:53:03Z</time>
      </trkpt>
      <trkpt lat="42.2253790" lon="-8.7167830">
        <ele>81.9</ele>
        <time>2021-05-20T10:53:04Z</time>
      </trkpt>
      <trkpt lat="42.2253790" lon="-8.7167830">
        <ele>81.9</ele>
        <time>2021-05-20T10:53:05Z</time>
      </trkpt>
      <trkpt lat="42.2253790" lon="-8.7167830">
        <ele>81.9</ele>
        <time>2021-05-20T10:53:06Z</time>
      </trkpt>
      <trkpt lat="42.2253790" lon="-8.7167830">
        <ele>81.9</ele>
        <time>2021-05-20T10:53:07Z</time>
      </trkpt>
      <trkpt lat="42.2253790" lon="-8.7167830">
        <ele>81.9</ele>
        <time>2021-05-20T10:53:08Z</time>
      </trkpt>
      <trkpt lat="42.2253790" lon="-8.7167830">
        <ele>81.9</ele>
        <time>2021-05-20T10:53:09Z</time>
      </trkpt>
      <trkpt lat="42.2253790" lon="-8.7167830">
        <ele>81.9</ele>
        <time>2021-05-20T10:53:10Z</time>
      </trkpt>
      <trkpt lat="42.2253790" lon="-8.7167830">
        <ele>81.9</ele>
        <time>2021-05-20T10:53:11Z</time>
      </trkpt>
      <trkpt lat="42.2253790" lon="-8.7167830">
        <ele>81.9</ele>
        <time>2021-05-20T10:53:12Z</time>
      </trkpt>
      <trkpt lat="42.2253790" lon="-8.7167830">
        <ele>81.9</ele>
        <time>2021-05-20T10:53:13Z</time>
      </trkpt>
      <trkpt lat="42.2253790" lon="-8.7167830">
        <ele>81.9</ele>
        <time>2021-05-20T10:53:14Z</time>
      </trkpt>
      <trkpt lat="42.2253790" lon="-8.7167830">
        <ele>81.9</ele>
        <time>2021-05-20T10:53:15Z</time>
      </trkpt>
      <trkpt lat="42.2253790" lon="-8.7167830">
        <ele>81.9</ele>
        <time>2021-05-20T10:53:16Z</time>
      </trkpt>
      <trkpt lat="42.2253790" lon="-8.7167830">
        <ele>81.9</ele>
        <time>2021-05-20T10:53:17Z</time>
      </trkpt>
      <trkpt lat="42.2253790" lon="-8.7167830">
        <ele>81.9</ele>
        <time>2021-05-20T10:53:18Z</time>
      </trkpt>
      <trkpt lat="42.2253790" lon="-8.7167830">
        <ele>81.9</ele>
        <time>2021-05-20T10:53:19Z</time>
      </trkpt>
      <trkpt lat="42.2253790" lon="-8.7167830">
        <ele>81.9</ele>
        <time>2021-05-20T10:53:20Z</time>
      </trkpt>
      <trkpt lat="42.2253790" lon="-8.7167830">
        <ele>81.9</ele>
        <time>2021-05-20T10:53:21Z</time>
      </trkpt>
      <trkpt lat="42.2253790" lon="-8.7167830">
        <ele>81.9</ele>
        <time>2021-05-20T10:53:22Z</time>
      </trkpt>
      <trkpt lat="42.2253790" lon="-8.7167830">
        <ele>81.9</ele>
        <time>2021-05-20T10:53:23Z</time>
      </trkpt>
      <trkpt lat="42.2253790" lon="-8.7167830">
        <ele>81.9</ele>
        <time>2021-05-20T10:53:24Z</time>
      </trkpt>
      <trkpt lat="42.2253790" lon="-8.7167830">
        <ele>81.9</ele>
        <time>2021-05-20T10:53:25Z</time>
      </trkpt>
      <trkpt lat="42.2253790" lon="-8.7167830">
        <ele>81.9</ele>
        <time>2021-05-20T10:53:26Z</time>
      </trkpt>
      <trkpt lat="42.2253790" lon="-8.7167830">
        <ele>81.9</ele>
        <time>2021-05-20T10:53:27Z</time>
      </trkpt>
      <trkpt lat="42.2253790" lon="-8.7167830">
        <ele>81.9</ele>
        <time>2021-05-20T10:53:28Z</time>
      </trkpt>
      <trkpt lat="42.2253790" lon="-8.7167830">
        <ele>81.9</ele>
        <time>2021-05-20T10:53:29Z</time>
      </trkpt>
      <trkpt lat="42.2253790" lon="-8.7167830">
        <ele>81.9</ele>
        <time>2021-05-20T10:53:30Z</time>
      </trkpt>
      <trkpt lat="42.2253790" lon="-8.7167830">
        <ele>81.9</ele>
        <time>2021-05-20T10:53:31Z</time>
      </trkpt>
      <trkpt lat="42.2253790" lon="-8.7167830">
        <ele>81.9</ele>
        <time>2021-05-20T10:53:32Z</time>
      </trkpt>
      <trkpt lat="42.2253790" lon="-8.7167830">
        <ele>81.9</ele>
        <time>2021-05-20T10:53:33Z</time>
      </trkpt>
      <trkpt lat="42.2253790" lon="-8.7167830">
        <ele>81.9</ele>
        <time>2021-05-20T10:53:34Z</time>
      </trkpt>
      <trkpt lat="42.2253790" lon="-8.7167830">
        <ele>81.9</ele>
        <time>2021-05-20T10:53:35Z</time>
      </trkpt>
      <trkpt lat="42.2253790" lon="-8.7167830">
        <ele>81.9</ele>
        <time>2021-05-20T10:53:36Z</time>
      </trkpt>
      <trkpt lat="42.2253800" lon="-8.7167830">
        <ele>81.9</ele>
        <time>2021-05-20T10:53:37Z</time>
      </trkpt>
      <trkpt lat="42.2253800" lon="-8.7167830">
        <ele>81.9</ele>
        <time>2021-05-20T10:53:38Z</time>
      </trkpt>
      <trkpt lat="42.2253800" lon="-8.7167830">
        <ele>81.9</ele>
        <time>2021-05-20T10:53:39Z</time>
      </trkpt>
      <trkpt lat="42.2253800" lon="-8.7167830">
        <ele>81.9</ele>
        <time>2021-05-20T10:53:40Z</time>
      </trkpt>
      <trkpt lat="42.2253800" lon="-8.7167830">
        <ele>81.9</ele>
        <time>2021-05-20T10:53:41Z</time>
      </trkpt>
      <trkpt lat="42.2253800" lon="-8.7167830">
        <ele>81.9</ele>
        <time>2021-05-20T10:53:42Z</time>
      </trkpt>
      <trkpt lat="42.2253800" lon="-8.7167830">
        <ele>81.9</ele>
        <time>2021-05-20T10:53:43Z</time>
      </trkpt>
      <trkpt lat="42.2253800" lon="-8.7167830">
        <ele>81.9</ele>
        <time>2021-05-20T10:53:44Z</time>
      </trkpt>
      <trkpt lat="42.2253800" lon="-8.7167830">
        <ele>81.9</ele>
        <time>2021-05-20T10:53:45Z</time>
      </trkpt>
      <trkpt lat="42.2253800" lon="-8.7167830">
        <ele>81.9</ele>
        <time>2021-05-20T10:53:46Z</time>
      </trkpt>
      <trkpt lat="42.2253800" lon="-8.7167830">
        <ele>81.9</ele>
        <time>2021-05-20T10:53:47Z</time>
      </trkpt>
      <trkpt lat="42.2253800" lon="-8.7167830">
        <ele>81.9</ele>
        <time>2021-05-20T10:53:48Z</time>
      </trkpt>
      <trkpt lat="42.2253800" lon="-8.7167830">
        <ele>81.9</ele>
        <time>2021-05-20T10:53:49Z</time>
      </trkpt>
      <trkpt lat="42.2253800" lon="-8.7167830">
        <ele>81.9</ele>
        <time>2021-05-20T10:53:50Z</time>
      </trkpt>
      <trkpt lat="42.2253800" lon="-8.7167830">
        <ele>81.9</ele>
        <time>2021-05-20T10:53:51Z</time>
      </trkpt>
      <trkpt lat="42.2253800" lon="-8.7167830">
        <ele>81.9</ele>
        <time>2021-05-20T10:53:52Z</time>
      </trkpt>
      <trkpt lat="42.2253800" lon="-8.7167830">
        <ele>81.9</ele>
        <time>2021-05-20T10:53:53Z</time>
      </trkpt>
      <trkpt lat="42.2253800" lon="-8.7167830">
        <ele>81.9</ele>
        <time>2021-05-20T10:53:54Z</time>
      </trkpt>
      <trkpt lat="42.2253800" lon="-8.7167830">
        <ele>81.9</ele>
        <time>2021-05-20T10:53:55Z</time>
      </trkpt>
      <trkpt lat="42.2253800" lon="-8.7167830">
        <ele>81.9</ele>
        <time>2021-05-20T10:53:56Z</time>
      </trkpt>
      <trkpt lat="42.2253800" lon="-8.7167820">
        <ele>81.9</ele>
        <time>2021-05-20T10:53:57Z</time>
      </trkpt>
      <trkpt lat="42.2253800" lon="-8.7167820">
        <ele>81.9</ele>
        <time>2021-05-20T10:53:58Z</time>
      </trkpt>
      <trkpt lat="42.2253800" lon="-8.7167820">
        <ele>81.9</ele>
        <time>2021-05-20T10:53:59Z</time>
      </trkpt>
      <trkpt lat="42.2253800" lon="-8.7167820">
        <ele>81.9</ele>
        <time>2021-05-20T10:54:00Z</time>
      </trkpt>
      <trkpt lat="42.2253800" lon="-8.7167820">
        <ele>81.9</ele>
        <time>2021-05-20T10:54:01Z</time>
      </trkpt>
      <trkpt lat="42.2253800" lon="-8.7167820">
        <ele>81.9</ele>
        <time>2021-05-20T10:54:02Z</time>
      </trkpt>
      <trkpt lat="42.2253800" lon="-8.7167820">
        <ele>81.9</ele>
        <time>2021-05-20T10:54:03Z</time>
      </trkpt>
      <trkpt lat="42.2253800" lon="-8.7167820">
        <ele>81.9</ele>
        <time>2021-05-20T10:54:04Z</time>
      </trkpt>
      <trkpt lat="42.2253800" lon="-8.7167820">
        <ele>81.9</ele>
        <time>2021-05-20T10:54:05Z</time>
      </trkpt>
      <trkpt lat="42.2253800" lon="-8.7167820">
        <ele>81.9</ele>
        <time>2021-05-20T10:54:06Z</time>
      </trkpt>
      <trkpt lat="42.2253800" lon="-8.7167820">
        <ele>81.9</ele>
        <time>2021-05-20T10:54:07Z</time>
      </trkpt>
      <trkpt lat="42.2253800" lon="-8.7167820">
        <ele>81.9</ele>
        <time>2021-05-20T10:54:08Z</time>
      </trkpt>
      <trkpt lat="42.2253800" lon="-8.7167820">
        <ele>81.9</ele>
        <time>2021-05-20T10:54:09Z</time>
      </trkpt>
      <trkpt lat="42.2253800" lon="-8.7167820">
        <ele>81.9</ele>
        <time>2021-05-20T10:54:10Z</time>
      </trkpt>
      <trkpt lat="42.2253810" lon="-8.7167820">
        <ele>81.9</ele>
        <time>2021-05-20T10:54:11Z</time>
      </trkpt>
      <trkpt lat="42.2253810" lon="-8.7167820">
        <ele>81.9</ele>
        <time>2021-05-20T10:54:12Z</time>
      </trkpt>
      <trkpt lat="42.2253810" lon="-8.7167820">
        <ele>81.9</ele>
        <time>2021-05-20T10:54:13Z</time>
      </trkpt>
      <trkpt lat="42.2253810" lon="-8.7167820">
        <ele>81.9</ele>
        <time>2021-05-20T10:54:14Z</time>
      </trkpt>
      <trkpt lat="42.2253810" lon="-8.7167820">
        <ele>81.9</ele>
        <time>2021-05-20T10:54:15Z</time>
      </trkpt>
      <trkpt lat="42.2253810" lon="-8.7167820">
        <ele>81.9</ele>
        <time>2021-05-20T10:54:16Z</time>
      </trkpt>
      <trkpt lat="42.2253810" lon="-8.7167820">
        <ele>81.9</ele>
        <time>2021-05-20T10:54:17Z</time>
      </trkpt>
      <trkpt lat="42.2253810" lon="-8.7167820">
        <ele>81.9</ele>
        <time>2021-05-20T10:54:18Z</time>
      </trkpt>
      <trkpt lat="42.2253810" lon="-8.7167820">
        <ele>81.9</ele>
        <time>2021-05-20T10:54:19Z</time>
      </trkpt>
      <trkpt lat="42.2253810" lon="-8.7167820">
        <ele>81.9</ele>
        <time>2021-05-20T10:54:20Z</time>
      </trkpt>
      <trkpt lat="42.2253810" lon="-8.7167820">
        <ele>81.9</ele>
        <time>2021-05-20T10:54:21Z</time>
      </trkpt>
      <trkpt lat="42.2253810" lon="-8.7167820">
        <ele>81.9</ele>
        <time>2021-05-20T10:54:22Z</time>
      </trkpt>
      <trkpt lat="42.2253810" lon="-8.7167820">
        <ele>81.9</ele>
        <time>2021-05-20T10:54:23Z</time>
      </trkpt>
      <trkpt lat="42.2253810" lon="-8.7167820">
        <ele>81.9</ele>
        <time>2021-05-20T10:54:24Z</time>
      </trkpt>
      <trkpt lat="42.2253810" lon="-8.7167820">
        <ele>81.9</ele>
        <time>2021-05-20T10:54:25Z</time>
      </trkpt>
      <trkpt lat="42.2253810" lon="-8.7167820">
        <ele>81.9</ele>
        <time>2021-05-20T10:54:26Z</time>
      </trkpt>
      <trkpt lat="42.2253810" lon="-8.7167820">
        <ele>81.9</ele>
        <time>2021-05-20T10:54:27Z</time>
      </trkpt>
      <trkpt lat="42.2253810" lon="-8.7167820">
        <ele>81.9</ele>
        <time>2021-05-20T10:54:28Z</time>
      </trkpt>
      <trkpt lat="42.2253810" lon="-8.7167820">
        <ele>81.9</ele>
        <time>2021-05-20T10:54:29Z</time>
      </trkpt>
      <trkpt lat="42.2253810" lon="-8.7167820">
        <ele>81.9</ele>
        <time>2021-05-20T10:54:30Z</time>
      </trkpt>
      <trkpt lat="42.2253810" lon="-8.7167820">
        <ele>81.9</ele>
        <time>2021-05-20T10:54:32Z</time>
      </trkpt>
      <trkpt lat="42.2253810" lon="-8.7167820">
        <ele>81.9</ele>
        <time>2021-05-20T10:54:33Z</time>
      </trkpt>
      <trkpt lat="42.2253810" lon="-8.7167820">
        <ele>81.9</ele>
        <time>2021-05-20T10:54:34Z</time>
      </trkpt>
      <trkpt lat="42.2253810" lon="-8.7167820">
        <ele>81.9</ele>
        <time>2021-05-20T10:54:35Z</time>
      </trkpt>
      <trkpt lat="42.2253810" lon="-8.7167820">
        <ele>81.9</ele>
        <time>2021-05-20T10:54:36Z</time>
      </trkpt>
      <trkpt lat="42.2253810" lon="-8.7167820">
        <ele>81.9</ele>
        <time>2021-05-20T10:54:37Z</time>
      </trkpt>
      <trkpt lat="42.2253810" lon="-8.7167820">
        <ele>81.9</ele>
        <time>2021-05-20T10:54:38Z</time>
      </trkpt>
      <trkpt lat="42.2253810" lon="-8.7167820">
        <ele>81.9</ele>
        <time>2021-05-20T10:54:39Z</time>
      </trkpt>
      <trkpt lat="42.2253810" lon="-8.7167820">
        <ele>81.9</ele>
        <time>2021-05-20T10:54:40Z</time>
      </trkpt>
      <trkpt lat="42.2253810" lon="-8.7167820">
        <ele>81.9</ele>
        <time>2021-05-20T10:54:41Z</time>
      </trkpt>
      <trkpt lat="42.2253810" lon="-8.7167820">
        <ele>81.9</ele>
        <time>2021-05-20T10:54:42Z</time>
      </trkpt>
      <trkpt lat="42.2253810" lon="-8.7167820">
        <ele>81.9</ele>
        <time>2021-05-20T10:54:43Z</time>
      </trkpt>
      <trkpt lat="42.2253810" lon="-8.7167820">
        <ele>81.9</ele>
        <time>2021-05-20T10:54:44Z</time>
      </trkpt>
      <trkpt lat="42.2253810" lon="-8.7167820">
        <ele>81.9</ele>
        <time>2021-05-20T10:54:45Z</time>
      </trkpt>
      <trkpt lat="42.2253820" lon="-8.7167820">
        <ele>81.9</ele>
        <time>2021-05-20T10:54:46Z</time>
      </trkpt>
      <trkpt lat="42.2253820" lon="-8.7167820">
        <ele>81.9</ele>
        <time>2021-05-20T10:54:47Z</time>
      </trkpt>
      <trkpt lat="42.2253820" lon="-8.7167820">
        <ele>81.9</ele>
        <time>2021-05-20T10:54:48Z</time>
      </trkpt>
      <trkpt lat="42.2253820" lon="-8.7167820">
        <ele>81.9</ele>
        <time>2021-05-20T10:54:49Z</time>
      </trkpt>
      <trkpt lat="42.2253820" lon="-8.7167820">
        <ele>81.9</ele>
        <time>2021-05-20T10:54:50Z</time>
      </trkpt>
      <trkpt lat="42.2253820" lon="-8.7167820">
        <ele>81.9</ele>
        <time>2021-05-20T10:54:51Z</time>
      </trkpt>
      <trkpt lat="42.2253820" lon="-8.7167820">
        <ele>81.9</ele>
        <time>2021-05-20T10:54:52Z</time>
      </trkpt>
      <trkpt lat="42.2253820" lon="-8.7167820">
        <ele>81.9</ele>
        <time>2021-05-20T10:54:53Z</time>
      </trkpt>
      <trkpt lat="42.2253820" lon="-8.7167810">
        <ele>81.9</ele>
        <time>2021-05-20T10:54:54Z</time>
      </trkpt>
      <trkpt lat="42.2253820" lon="-8.7167810">
        <ele>81.9</ele>
        <time>2021-05-20T10:54:55Z</time>
      </trkpt>
      <trkpt lat="42.2253820" lon="-8.7167810">
        <ele>81.9</ele>
        <time>2021-05-20T10:54:56Z</time>
      </trkpt>
      <trkpt lat="42.2253820" lon="-8.7167810">
        <ele>81.9</ele>
        <time>2021-05-20T10:54:57Z</time>
      </trkpt>
      <trkpt lat="42.2253820" lon="-8.7167810">
        <ele>81.9</ele>
        <time>2021-05-20T10:54:58Z</time>
      </trkpt>
      <trkpt lat="42.2253820" lon="-8.7167810">
        <ele>81.9</ele>
        <time>2021-05-20T10:54:59Z</time>
      </trkpt>
      <trkpt lat="42.2253820" lon="-8.7167810">
        <ele>81.9</ele>
        <time>2021-05-20T10:55:00Z</time>
      </trkpt>
      <trkpt lat="42.2253820" lon="-8.7167810">
        <ele>81.9</ele>
        <time>2021-05-20T10:55:01Z</time>
      </trkpt>
      <trkpt lat="42.2253820" lon="-8.7167810">
        <ele>81.9</ele>
        <time>2021-05-20T10:55:02Z</time>
      </trkpt>
      <trkpt lat="42.2253820" lon="-8.7167810">
        <ele>81.9</ele>
        <time>2021-05-20T10:55:03Z</time>
      </trkpt>
      <trkpt lat="42.2253820" lon="-8.7167810">
        <ele>81.9</ele>
        <time>2021-05-20T10:55:04Z</time>
      </trkpt>
      <trkpt lat="42.2253820" lon="-8.7167810">
        <ele>81.9</ele>
        <time>2021-05-20T10:55:05Z</time>
      </trkpt>
      <trkpt lat="42.2253820" lon="-8.7167810">
        <ele>81.9</ele>
        <time>2021-05-20T10:55:06Z</time>
      </trkpt>
      <trkpt lat="42.2253820" lon="-8.7167810">
        <ele>81.9</ele>
        <time>2021-05-20T10:55:07Z</time>
      </trkpt>
      <trkpt lat="42.2253820" lon="-8.7167810">
        <ele>81.9</ele>
        <time>2021-05-20T10:55:08Z</time>
      </trkpt>
      <trkpt lat="42.2253820" lon="-8.7167810">
        <ele>81.9</ele>
        <time>2021-05-20T10:55:09Z</time>
      </trkpt>
      <trkpt lat="42.2253820" lon="-8.7167810">
        <ele>81.9</ele>
        <time>2021-05-20T10:55:10Z</time>
      </trkpt>
      <trkpt lat="42.2253820" lon="-8.7167810">
        <ele>81.9</ele>
        <time>2021-05-20T10:55:11Z</time>
      </trkpt>
      <trkpt lat="42.2253820" lon="-8.7167810">
        <ele>81.9</ele>
        <time>2021-05-20T10:55:12Z</time>
      </trkpt>
      <trkpt lat="42.2253820" lon="-8.7167810">
        <ele>81.9</ele>
        <time>2021-05-20T10:55:13Z</time>
      </trkpt>
      <trkpt lat="42.2253820" lon="-8.7167810">
        <ele>81.9</ele>
        <time>2021-05-20T10:55:14Z</time>
      </trkpt>
      <trkpt lat="42.2253820" lon="-8.7167810">
        <ele>81.9</ele>
        <time>2021-05-20T10:55:15Z</time>
      </trkpt>
      <trkpt lat="42.2253820" lon="-8.7167810">
        <ele>81.9</ele>
        <time>2021-05-20T10:55:16Z</time>
      </trkpt>
      <trkpt lat="42.2253820" lon="-8.7167810">
        <ele>81.9</ele>
        <time>2021-05-20T10:55:17Z</time>
      </trkpt>
      <trkpt lat="42.2253820" lon="-8.7167810">
        <ele>81.9</ele>
        <time>2021-05-20T10:55:18Z</time>
      </trkpt>
      <trkpt lat="42.2253820" lon="-8.7167810">
        <ele>81.9</ele>
        <time>2021-05-20T10:55:19Z</time>
      </trkpt>
      <trkpt lat="42.2253830" lon="-8.7167810">
        <ele>81.9</ele>
        <time>2021-05-20T10:55:20Z</time>
      </trkpt>
      <trkpt lat="42.2253830" lon="-8.7167810">
        <ele>81.9</ele>
        <time>2021-05-20T10:55:21Z</time>
      </trkpt>
      <trkpt lat="42.2253830" lon="-8.7167810">
        <ele>81.9</ele>
        <time>2021-05-20T10:55:22Z</time>
      </trkpt>
      <trkpt lat="42.2253830" lon="-8.7167810">
        <ele>81.9</ele>
        <time>2021-05-20T10:55:23Z</time>
      </trkpt>
      <trkpt lat="42.2253830" lon="-8.7167810">
        <ele>81.9</ele>
        <time>2021-05-20T10:55:24Z</time>
      </trkpt>
      <trkpt lat="42.2253830" lon="-8.7167810">
        <ele>81.9</ele>
        <time>2021-05-20T10:55:25Z</time>
      </trkpt>
      <trkpt lat="42.2253830" lon="-8.7167810">
        <ele>81.9</ele>
        <time>2021-05-20T10:55:26Z</time>
      </trkpt>
      <trkpt lat="42.2253830" lon="-8.7167810">
        <ele>81.9</ele>
        <time>2021-05-20T10:55:27Z</time>
      </trkpt>
      <trkpt lat="42.2253830" lon="-8.7167810">
        <ele>81.9</ele>
        <time>2021-05-20T10:55:28Z</time>
      </trkpt>
      <trkpt lat="42.2253830" lon="-8.7167810">
        <ele>81.9</ele>
        <time>2021-05-20T10:55:29Z</time>
      </trkpt>
      <trkpt lat="42.2253830" lon="-8.7167810">
        <ele>81.9</ele>
        <time>2021-05-20T10:55:30Z</time>
      </trkpt>
      <trkpt lat="42.2253830" lon="-8.7167810">
        <ele>81.9</ele>
        <time>2021-05-20T10:55:31Z</time>
      </trkpt>
      <trkpt lat="42.2253830" lon="-8.7167810">
        <ele>81.9</ele>
        <time>2021-05-20T10:55:32Z</time>
      </trkpt>
      <trkpt lat="42.2253830" lon="-8.7167810">
        <ele>81.9</ele>
        <time>2021-05-20T10:55:33Z</time>
      </trkpt>
      <trkpt lat="42.2253830" lon="-8.7167810">
        <ele>81.9</ele>
        <time>2021-05-20T10:55:34Z</time>
      </trkpt>
      <trkpt lat="42.2253830" lon="-8.7167810">
        <ele>81.9</ele>
        <time>2021-05-20T10:55:35Z</time>
      </trkpt>
      <trkpt lat="42.2253830" lon="-8.7167810">
        <ele>81.9</ele>
        <time>2021-05-20T10:55:36Z</time>
      </trkpt>
      <trkpt lat="42.2253830" lon="-8.7167810">
        <ele>81.9</ele>
        <time>2021-05-20T10:55:37Z</time>
      </trkpt>
      <trkpt lat="42.2253830" lon="-8.7167810">
        <ele>81.9</ele>
        <time>2021-05-20T10:55:38Z</time>
      </trkpt>
      <trkpt lat="42.2253830" lon="-8.7167810">
        <ele>81.9</ele>
        <time>2021-05-20T10:55:39Z</time>
      </trkpt>
      <trkpt lat="42.2253830" lon="-8.7167810">
        <ele>81.9</ele>
        <time>2021-05-20T10:55:40Z</time>
      </trkpt>
      <trkpt lat="42.2253830" lon="-8.7167810">
        <ele>81.9</ele>
        <time>2021-05-20T10:55:41Z</time>
      </trkpt>
      <trkpt lat="42.2253830" lon="-8.7167810">
        <ele>81.9</ele>
        <time>2021-05-20T10:55:42Z</time>
      </trkpt>
      <trkpt lat="42.2253830" lon="-8.7167810">
        <ele>81.9</ele>
        <time>2021-05-20T10:55:43Z</time>
      </trkpt>
      <trkpt lat="42.2253830" lon="-8.7167810">
        <ele>81.9</ele>
        <time>2021-05-20T10:55:44Z</time>
      </trkpt>
      <trkpt lat="42.2253830" lon="-8.7167810">
        <ele>81.9</ele>
        <time>2021-05-20T10:55:45Z</time>
      </trkpt>
      <trkpt lat="42.2253830" lon="-8.7167810">
        <ele>81.9</ele>
        <time>2021-05-20T10:55:46Z</time>
      </trkpt>
      <trkpt lat="42.2253830" lon="-8.7167810">
        <ele>81.9</ele>
        <time>2021-05-20T10:55:47Z</time>
      </trkpt>
      <trkpt lat="42.2253830" lon="-8.7167810">
        <ele>81.9</ele>
        <time>2021-05-20T10:55:48Z</time>
      </trkpt>
      <trkpt lat="42.2253830" lon="-8.7167810">
        <ele>81.9</ele>
        <time>2021-05-20T10:55:49Z</time>
      </trkpt>
      <trkpt lat="42.2253830" lon="-8.7167800">
        <ele>81.9</ele>
        <time>2021-05-20T10:55:50Z</time>
      </trkpt>
      <trkpt lat="42.2253830" lon="-8.7167800">
        <ele>81.9</ele>
        <time>2021-05-20T10:55:51Z</time>
      </trkpt>
      <trkpt lat="42.2253830" lon="-8.7167800">
        <ele>81.9</ele>
        <time>2021-05-20T10:55:52Z</time>
      </trkpt>
      <trkpt lat="42.2253830" lon="-8.7167800">
        <ele>81.9</ele>
        <time>2021-05-20T10:55:53Z</time>
      </trkpt>
      <trkpt lat="42.2253840" lon="-8.7167800">
        <ele>81.9</ele>
        <time>2021-05-20T10:55:54Z</time>
      </trkpt>
      <trkpt lat="42.2253840" lon="-8.7167800">
        <ele>81.9</ele>
        <time>2021-05-20T10:55:55Z</time>
      </trkpt>
      <trkpt lat="42.2253840" lon="-8.7167800">
        <ele>81.9</ele>
        <time>2021-05-20T10:55:56Z</time>
      </trkpt>
      <trkpt lat="42.2253840" lon="-8.7167800">
        <ele>81.9</ele>
        <time>2021-05-20T10:55:57Z</time>
      </trkpt>
      <trkpt lat="42.2253840" lon="-8.7167800">
        <ele>81.9</ele>
        <time>2021-05-20T10:55:58Z</time>
      </trkpt>
      <trkpt lat="42.2253840" lon="-8.7167800">
        <ele>81.9</ele>
        <time>2021-05-20T10:55:59Z</time>
      </trkpt>
      <trkpt lat="42.2253840" lon="-8.7167800">
        <ele>81.9</ele>
        <time>2021-05-20T10:56:00Z</time>
      </trkpt>
      <trkpt lat="42.2253840" lon="-8.7167800">
        <ele>81.9</ele>
        <time>2021-05-20T10:56:01Z</time>
      </trkpt>
      <trkpt lat="42.2253840" lon="-8.7167800">
        <ele>81.9</ele>
        <time>2021-05-20T10:56:02Z</time>
      </trkpt>
      <trkpt lat="42.2253840" lon="-8.7167800">
        <ele>81.9</ele>
        <time>2021-05-20T10:56:03Z</time>
      </trkpt>
      <trkpt lat="42.2253840" lon="-8.7167800">
        <ele>81.9</ele>
        <time>2021-05-20T10:56:04Z</time>
      </trkpt>
      <trkpt lat="42.2253840" lon="-8.7167800">
        <ele>81.9</ele>
        <time>2021-05-20T10:56:05Z</time>
      </trkpt>
      <trkpt lat="42.2253840" lon="-8.7167800">
        <ele>81.9</ele>
        <time>2021-05-20T10:56:06Z</time>
      </trkpt>
      <trkpt lat="42.2253840" lon="-8.7167800">
        <ele>81.9</ele>
        <time>2021-05-20T10:56:07Z</time>
      </trkpt>
      <trkpt lat="42.2253840" lon="-8.7167800">
        <ele>81.9</ele>
        <time>2021-05-20T10:56:08Z</time>
      </trkpt>
      <trkpt lat="42.2253840" lon="-8.7167800">
        <ele>81.9</ele>
        <time>2021-05-20T10:56:09Z</time>
      </trkpt>
      <trkpt lat="42.2253840" lon="-8.7167800">
        <ele>81.9</ele>
        <time>2021-05-20T10:56:10Z</time>
      </trkpt>
      <trkpt lat="42.2253840" lon="-8.7167800">
        <ele>81.9</ele>
        <time>2021-05-20T10:56:11Z</time>
      </trkpt>
      <trkpt lat="42.2253840" lon="-8.7167800">
        <ele>81.9</ele>
        <time>2021-05-20T10:56:12Z</time>
      </trkpt>
      <trkpt lat="42.2253840" lon="-8.7167800">
        <ele>81.9</ele>
        <time>2021-05-20T10:56:13Z</time>
      </trkpt>
      <trkpt lat="42.2253840" lon="-8.7167800">
        <ele>81.9</ele>
        <time>2021-05-20T10:56:14Z</time>
      </trkpt>
      <trkpt lat="42.2253840" lon="-8.7167800">
        <ele>81.9</ele>
        <time>2021-05-20T10:56:15Z</time>
      </trkpt>
      <trkpt lat="42.2253840" lon="-8.7167800">
        <ele>81.9</ele>
        <time>2021-05-20T10:56:16Z</time>
      </trkpt>
      <trkpt lat="42.2253840" lon="-8.7167800">
        <ele>81.9</ele>
        <time>2021-05-20T10:56:17Z</time>
      </trkpt>
      <trkpt lat="42.2253840" lon="-8.7167800">
        <ele>81.9</ele>
        <time>2021-05-20T10:56:18Z</time>
      </trkpt>
      <trkpt lat="42.2253840" lon="-8.7167800">
        <ele>81.9</ele>
        <time>2021-05-20T10:56:19Z</time>
      </trkpt>
      <trkpt lat="42.2253840" lon="-8.7167800">
        <ele>81.9</ele>
        <time>2021-05-20T10:56:20Z</time>
      </trkpt>
      <trkpt lat="42.2253840" lon="-8.7167800">
        <ele>81.9</ele>
        <time>2021-05-20T10:56:21Z</time>
      </trkpt>
      <trkpt lat="42.2253840" lon="-8.7167800">
        <ele>81.9</ele>
        <time>2021-05-20T10:56:22Z</time>
      </trkpt>
      <trkpt lat="42.2253840" lon="-8.7167800">
        <ele>81.9</ele>
        <time>2021-05-20T10:56:23Z</time>
      </trkpt>
      <trkpt lat="42.2253840" lon="-8.7167800">
        <ele>81.9</ele>
        <time>2021-05-20T10:56:24Z</time>
      </trkpt>
      <trkpt lat="42.2253840" lon="-8.7167800">
        <ele>81.9</ele>
        <time>2021-05-20T10:56:25Z</time>
      </trkpt>
      <trkpt lat="42.2253840" lon="-8.7167800">
        <ele>81.9</ele>
        <time>2021-05-20T10:56:26Z</time>
      </trkpt>
      <trkpt lat="42.2253850" lon="-8.7167800">
        <ele>81.9</ele>
        <time>2021-05-20T10:56:27Z</time>
      </trkpt>
      <trkpt lat="42.2253850" lon="-8.7167800">
        <ele>81.9</ele>
        <time>2021-05-20T10:56:28Z</time>
      </trkpt>
      <trkpt lat="42.2253850" lon="-8.7167800">
        <ele>81.9</ele>
        <time>2021-05-20T10:56:29Z</time>
      </trkpt>
      <trkpt lat="42.2253850" lon="-8.7167800">
        <ele>81.9</ele>
        <time>2021-05-20T10:56:30Z</time>
      </trkpt>
      <trkpt lat="42.2253850" lon="-8.7167800">
        <ele>81.9</ele>
        <time>2021-05-20T10:56:31Z</time>
      </trkpt>
      <trkpt lat="42.2253850" lon="-8.7167800">
        <ele>81.9</ele>
        <time>2021-05-20T10:56:32Z</time>
      </trkpt>
      <trkpt lat="42.2253850" lon="-8.7167800">
        <ele>81.9</ele>
        <time>2021-05-20T10:56:33Z</time>
      </trkpt>
      <trkpt lat="42.2253850" lon="-8.7167800">
        <ele>81.9</ele>
        <time>2021-05-20T10:56:34Z</time>
      </trkpt>
      <trkpt lat="42.2253850" lon="-8.7167800">
        <ele>81.9</ele>
        <time>2021-05-20T10:56:35Z</time>
      </trkpt>
      <trkpt lat="42.2253850" lon="-8.7167800">
        <ele>81.9</ele>
        <time>2021-05-20T10:56:36Z</time>
      </trkpt>
      <trkpt lat="42.2253850" lon="-8.7167800">
        <ele>81.9</ele>
        <time>2021-05-20T10:56:37Z</time>
      </trkpt>
      <trkpt lat="42.2253850" lon="-8.7167800">
        <ele>81.9</ele>
        <time>2021-05-20T10:56:38Z</time>
      </trkpt>
      <trkpt lat="42.2253850" lon="-8.7167800">
        <ele>81.9</ele>
        <time>2021-05-20T10:56:39Z</time>
      </trkpt>
      <trkpt lat="42.2253850" lon="-8.7167800">
        <ele>81.9</ele>
        <time>2021-05-20T10:56:40Z</time>
      </trkpt>
      <trkpt lat="42.2253850" lon="-8.7167800">
        <ele>81.9</ele>
        <time>2021-05-20T10:56:41Z</time>
      </trkpt>
      <trkpt lat="42.2253850" lon="-8.7167800">
        <ele>81.9</ele>
        <time>2021-05-20T10:56:42Z</time>
      </trkpt>
      <trkpt lat="42.2253850" lon="-8.7167800">
        <ele>81.9</ele>
        <time>2021-05-20T10:56:43Z</time>
      </trkpt>
      <trkpt lat="42.2253850" lon="-8.7167800">
        <ele>81.9</ele>
        <time>2021-05-20T10:56:44Z</time>
      </trkpt>
      <trkpt lat="42.2253850" lon="-8.7167800">
        <ele>81.9</ele>
        <time>2021-05-20T10:56:45Z</time>
      </trkpt>
      <trkpt lat="42.2253850" lon="-8.7167790">
        <ele>81.9</ele>
        <time>2021-05-20T10:56:46Z</time>
      </trkpt>
      <trkpt lat="42.2253850" lon="-8.7167790">
        <ele>81.9</ele>
        <time>2021-05-20T10:56:47Z</time>
      </trkpt>
      <trkpt lat="42.2253850" lon="-8.7167790">
        <ele>81.9</ele>
        <time>2021-05-20T10:56:48Z</time>
      </trkpt>
      <trkpt lat="42.2253850" lon="-8.7167790">
        <ele>81.9</ele>
        <time>2021-05-20T10:56:49Z</time>
      </trkpt>
      <trkpt lat="42.2253850" lon="-8.7167790">
        <ele>81.9</ele>
        <time>2021-05-20T10:56:50Z</time>
      </trkpt>
      <trkpt lat="42.2253850" lon="-8.7167790">
        <ele>81.9</ele>
        <time>2021-05-20T10:56:51Z</time>
      </trkpt>
      <trkpt lat="42.2253850" lon="-8.7167790">
        <ele>81.9</ele>
        <time>2021-05-20T10:56:52Z</time>
      </trkpt>
      <trkpt lat="42.2253850" lon="-8.7167790">
        <ele>81.9</ele>
        <time>2021-05-20T10:56:53Z</time>
      </trkpt>
      <trkpt lat="42.2253850" lon="-8.7167790">
        <ele>81.9</ele>
        <time>2021-05-20T10:56:54Z</time>
      </trkpt>
      <trkpt lat="42.2253850" lon="-8.7167790">
        <ele>81.9</ele>
        <time>2021-05-20T10:56:55Z</time>
      </trkpt>
      <trkpt lat="42.2253850" lon="-8.7167790">
        <ele>81.9</ele>
        <time>2021-05-20T10:56:56Z</time>
      </trkpt>
      <trkpt lat="42.2253850" lon="-8.7167790">
        <ele>81.9</ele>
        <time>2021-05-20T10:56:57Z</time>
      </trkpt>
      <trkpt lat="42.2253850" lon="-8.7167790">
        <ele>81.9</ele>
        <time>2021-05-20T10:56:58Z</time>
      </trkpt>
      <trkpt lat="42.2253850" lon="-8.7167790">
        <ele>81.9</ele>
        <time>2021-05-20T10:56:59Z</time>
      </trkpt>
      <trkpt lat="42.2253850" lon="-8.7167790">
        <ele>81.9</ele>
        <time>2021-05-20T10:57:00Z</time>
      </trkpt>
      <trkpt lat="42.2253860" lon="-8.7167790">
        <ele>81.9</ele>
        <time>2021-05-20T10:57:01Z</time>
      </trkpt>
      <trkpt lat="42.2253860" lon="-8.7167790">
        <ele>81.9</ele>
        <time>2021-05-20T10:57:02Z</time>
      </trkpt>
      <trkpt lat="42.2253860" lon="-8.7167790">
        <ele>81.9</ele>
        <time>2021-05-20T10:57:03Z</time>
      </trkpt>
      <trkpt lat="42.2253860" lon="-8.7167790">
        <ele>81.9</ele>
        <time>2021-05-20T10:57:04Z</time>
      </trkpt>
      <trkpt lat="42.2253860" lon="-8.7167790">
        <ele>81.9</ele>
        <time>2021-05-20T10:57:05Z</time>
      </trkpt>
      <trkpt lat="42.2253860" lon="-8.7167790">
        <ele>81.9</ele>
        <time>2021-05-20T10:57:06Z</time>
      </trkpt>
      <trkpt lat="42.2253860" lon="-8.7167790">
        <ele>81.9</ele>
        <time>2021-05-20T10:57:07Z</time>
      </trkpt>
      <trkpt lat="42.2253860" lon="-8.7167790">
        <ele>81.9</ele>
        <time>2021-05-20T10:57:08Z</time>
      </trkpt>
      <trkpt lat="42.2253860" lon="-8.7167790">
        <ele>81.9</ele>
        <time>2021-05-20T10:57:09Z</time>
      </trkpt>
      <trkpt lat="42.2253860" lon="-8.7167790">
        <ele>81.9</ele>
        <time>2021-05-20T10:57:10Z</time>
      </trkpt>
      <trkpt lat="42.2253860" lon="-8.7167790">
        <ele>81.9</ele>
        <time>2021-05-20T10:57:11Z</time>
      </trkpt>
      <trkpt lat="42.2253860" lon="-8.7167790">
        <ele>81.9</ele>
        <time>2021-05-20T10:57:12Z</time>
      </trkpt>
      <trkpt lat="42.2253860" lon="-8.7167790">
        <ele>81.9</ele>
        <time>2021-05-20T10:57:13Z</time>
      </trkpt>
      <trkpt lat="42.2253860" lon="-8.7167790">
        <ele>81.9</ele>
        <time>2021-05-20T10:57:14Z</time>
      </trkpt>
      <trkpt lat="42.2253860" lon="-8.7167790">
        <ele>81.9</ele>
        <time>2021-05-20T10:57:15Z</time>
      </trkpt>
      <trkpt lat="42.2253860" lon="-8.7167790">
        <ele>81.9</ele>
        <time>2021-05-20T10:57:16Z</time>
      </trkpt>
      <trkpt lat="42.2253860" lon="-8.7167790">
        <ele>81.9</ele>
        <time>2021-05-20T10:57:17Z</time>
      </trkpt>
      <trkpt lat="42.2253860" lon="-8.7167790">
        <ele>81.9</ele>
        <time>2021-05-20T10:57:18Z</time>
      </trkpt>
      <trkpt lat="42.2253860" lon="-8.7167790">
        <ele>81.9</ele>
        <time>2021-05-20T10:57:19Z</time>
      </trkpt>
      <trkpt lat="42.2253860" lon="-8.7167790">
        <ele>81.9</ele>
        <time>2021-05-20T10:57:20Z</time>
      </trkpt>
      <trkpt lat="42.2253860" lon="-8.7167790">
        <ele>81.9</ele>
        <time>2021-05-20T10:57:21Z</time>
      </trkpt>
      <trkpt lat="42.2253860" lon="-8.7167790">
        <ele>81.9</ele>
        <time>2021-05-20T10:57:22Z</time>
      </trkpt>
      <trkpt lat="42.2253860" lon="-8.7167790">
        <ele>81.9</ele>
        <time>2021-05-20T10:57:23Z</time>
      </trkpt>
      <trkpt lat="42.2253860" lon="-8.7167790">
        <ele>81.9</ele>
        <time>2021-05-20T10:57:24Z</time>
      </trkpt>
      <trkpt lat="42.2253860" lon="-8.7167790">
        <ele>81.9</ele>
        <time>2021-05-20T10:57:25Z</time>
      </trkpt>
      <trkpt lat="42.2253860" lon="-8.7167790">
        <ele>81.9</ele>
        <time>2021-05-20T10:57:26Z</time>
      </trkpt>
      <trkpt lat="42.2253860" lon="-8.7167790">
        <ele>81.9</ele>
        <time>2021-05-20T10:57:27Z</time>
      </trkpt>
      <trkpt lat="42.2253860" lon="-8.7167790">
        <ele>81.9</ele>
        <time>2021-05-20T10:57:28Z</time>
      </trkpt>
      <trkpt lat="42.2253860" lon="-8.7167790">
        <ele>81.9</ele>
        <time>2021-05-20T10:57:29Z</time>
      </trkpt>
      <trkpt lat="42.2253860" lon="-8.7167790">
        <ele>81.9</ele>
        <time>2021-05-20T10:57:30Z</time>
      </trkpt>
      <trkpt lat="42.2253860" lon="-8.7167790">
        <ele>81.9</ele>
        <time>2021-05-20T10:57:31Z</time>
      </trkpt>
      <trkpt lat="42.2253860" lon="-8.7167790">
        <ele>81.9</ele>
        <time>2021-05-20T10:57:32Z</time>
      </trkpt>
      <trkpt lat="42.2253860" lon="-8.7167790">
        <ele>81.9</ele>
        <time>2021-05-20T10:57:33Z</time>
      </trkpt>
      <trkpt lat="42.2253860" lon="-8.7167790">
        <ele>81.9</ele>
        <time>2021-05-20T10:57:34Z</time>
      </trkpt>
      <trkpt lat="42.2253870" lon="-8.7167790">
        <ele>81.9</ele>
        <time>2021-05-20T10:57:35Z</time>
      </trkpt>
      <trkpt lat="42.2253870" lon="-8.7167790">
        <ele>81.9</ele>
        <time>2021-05-20T10:57:36Z</time>
      </trkpt>
      <trkpt lat="42.2253870" lon="-8.7167790">
        <ele>81.9</ele>
        <time>2021-05-20T10:57:37Z</time>
      </trkpt>
      <trkpt lat="42.2253870" lon="-8.7167790">
        <ele>81.9</ele>
        <time>2021-05-20T10:57:38Z</time>
      </trkpt>
      <trkpt lat="42.2253870" lon="-8.7167790">
        <ele>81.9</ele>
        <time>2021-05-20T10:57:39Z</time>
      </trkpt>
      <trkpt lat="42.2253870" lon="-8.7167790">
        <ele>81.9</ele>
        <time>2021-05-20T10:57:40Z</time>
      </trkpt>
      <trkpt lat="42.2253870" lon="-8.7167790">
        <ele>81.9</ele>
        <time>2021-05-20T10:57:41Z</time>
      </trkpt>
      <trkpt lat="42.2253870" lon="-8.7167780">
        <ele>81.9</ele>
        <time>2021-05-20T10:57:42Z</time>
      </trkpt>
      <trkpt lat="42.2253870" lon="-8.7167780">
        <ele>81.9</ele>
        <time>2021-05-20T10:57:43Z</time>
      </trkpt>
      <trkpt lat="42.2253870" lon="-8.7167780">
        <ele>81.9</ele>
        <time>2021-05-20T10:57:44Z</time>
      </trkpt>
      <trkpt lat="42.2253870" lon="-8.7167780">
        <ele>81.9</ele>
        <time>2021-05-20T10:57:45Z</time>
      </trkpt>
      <trkpt lat="42.2253870" lon="-8.7167780">
        <ele>81.9</ele>
        <time>2021-05-20T10:57:46Z</time>
      </trkpt>
      <trkpt lat="42.2253870" lon="-8.7167780">
        <ele>81.9</ele>
        <time>2021-05-20T10:57:47Z</time>
      </trkpt>
      <trkpt lat="42.2253870" lon="-8.7167780">
        <ele>81.9</ele>
        <time>2021-05-20T10:57:48Z</time>
      </trkpt>
      <trkpt lat="42.2253870" lon="-8.7167780">
        <ele>81.9</ele>
        <time>2021-05-20T10:57:49Z</time>
      </trkpt>
      <trkpt lat="42.2253870" lon="-8.7167780">
        <ele>81.9</ele>
        <time>2021-05-20T10:57:50Z</time>
      </trkpt>
      <trkpt lat="42.2253870" lon="-8.7167780">
        <ele>81.9</ele>
        <time>2021-05-20T10:57:51Z</time>
      </trkpt>
      <trkpt lat="42.2253870" lon="-8.7167780">
        <ele>81.9</ele>
        <time>2021-05-20T10:57:52Z</time>
      </trkpt>
      <trkpt lat="42.2253870" lon="-8.7167780">
        <ele>81.9</ele>
        <time>2021-05-20T10:57:53Z</time>
      </trkpt>
      <trkpt lat="42.2253870" lon="-8.7167780">
        <ele>81.9</ele>
        <time>2021-05-20T10:57:54Z</time>
      </trkpt>
      <trkpt lat="42.2253870" lon="-8.7167780">
        <ele>81.9</ele>
        <time>2021-05-20T10:57:55Z</time>
      </trkpt>
      <trkpt lat="42.2253870" lon="-8.7167780">
        <ele>81.9</ele>
        <time>2021-05-20T10:57:56Z</time>
      </trkpt>
      <trkpt lat="42.2253870" lon="-8.7167780">
        <ele>81.9</ele>
        <time>2021-05-20T10:57:57Z</time>
      </trkpt>
      <trkpt lat="42.2253870" lon="-8.7167780">
        <ele>81.9</ele>
        <time>2021-05-20T10:57:58Z</time>
      </trkpt>
      <trkpt lat="42.2253870" lon="-8.7167780">
        <ele>81.9</ele>
        <time>2021-05-20T10:57:59Z</time>
      </trkpt>
      <trkpt lat="42.2253870" lon="-8.7167780">
        <ele>81.9</ele>
        <time>2021-05-20T10:58:00Z</time>
      </trkpt>
      <trkpt lat="42.2253870" lon="-8.7167780">
        <ele>81.9</ele>
        <time>2021-05-20T10:58:01Z</time>
      </trkpt>
      <trkpt lat="42.2253870" lon="-8.7167780">
        <ele>81.9</ele>
        <time>2021-05-20T10:58:02Z</time>
      </trkpt>
      <trkpt lat="42.2253870" lon="-8.7167780">
        <ele>81.9</ele>
        <time>2021-05-20T10:58:03Z</time>
      </trkpt>
      <trkpt lat="42.2253870" lon="-8.7167780">
        <ele>81.9</ele>
        <time>2021-05-20T10:58:04Z</time>
      </trkpt>
      <trkpt lat="42.2253870" lon="-8.7167780">
        <ele>81.9</ele>
        <time>2021-05-20T10:58:05Z</time>
      </trkpt>
      <trkpt lat="42.2253870" lon="-8.7167780">
        <ele>81.9</ele>
        <time>2021-05-20T10:58:06Z</time>
      </trkpt>
      <trkpt lat="42.2253870" lon="-8.7167780">
        <ele>81.9</ele>
        <time>2021-05-20T10:58:07Z</time>
      </trkpt>
      <trkpt lat="42.2253870" lon="-8.7167780">
        <ele>81.9</ele>
        <time>2021-05-20T10:58:08Z</time>
      </trkpt>
      <trkpt lat="42.2253880" lon="-8.7167780">
        <ele>81.9</ele>
        <time>2021-05-20T10:58:09Z</time>
      </trkpt>
      <trkpt lat="42.2253880" lon="-8.7167780">
        <ele>81.9</ele>
        <time>2021-05-20T10:58:10Z</time>
      </trkpt>
      <trkpt lat="42.2253880" lon="-8.7167780">
        <ele>81.9</ele>
        <time>2021-05-20T10:58:11Z</time>
      </trkpt>
      <trkpt lat="42.2253880" lon="-8.7167780">
        <ele>81.9</ele>
        <time>2021-05-20T10:58:12Z</time>
      </trkpt>
      <trkpt lat="42.2253880" lon="-8.7167780">
        <ele>81.9</ele>
        <time>2021-05-20T10:58:13Z</time>
      </trkpt>
      <trkpt lat="42.2253880" lon="-8.7167780">
        <ele>81.9</ele>
        <time>2021-05-20T10:58:14Z</time>
      </trkpt>
      <trkpt lat="42.2253880" lon="-8.7167780">
        <ele>81.9</ele>
        <time>2021-05-20T10:58:15Z</time>
      </trkpt>
      <trkpt lat="42.2253880" lon="-8.7167780">
        <ele>81.9</ele>
        <time>2021-05-20T10:58:16Z</time>
      </trkpt>
      <trkpt lat="42.2253880" lon="-8.7167780">
        <ele>81.9</ele>
        <time>2021-05-20T10:58:17Z</time>
      </trkpt>
      <trkpt lat="42.2253880" lon="-8.7167780">
        <ele>81.9</ele>
        <time>2021-05-20T10:58:18Z</time>
      </trkpt>
      <trkpt lat="42.2253880" lon="-8.7167780">
        <ele>81.9</ele>
        <time>2021-05-20T10:58:19Z</time>
      </trkpt>
      <trkpt lat="42.2253880" lon="-8.7167780">
        <ele>81.9</ele>
        <time>2021-05-20T10:58:20Z</time>
      </trkpt>
      <trkpt lat="42.2253880" lon="-8.7167780">
        <ele>81.9</ele>
        <time>2021-05-20T10:58:21Z</time>
      </trkpt>
      <trkpt lat="42.2253880" lon="-8.7167780">
        <ele>81.9</ele>
        <time>2021-05-20T10:58:22Z</time>
      </trkpt>
      <trkpt lat="42.2253880" lon="-8.7167780">
        <ele>81.9</ele>
        <time>2021-05-20T10:58:23Z</time>
      </trkpt>
      <trkpt lat="42.2253880" lon="-8.7167780">
        <ele>81.9</ele>
        <time>2021-05-20T10:58:24Z</time>
      </trkpt>
      <trkpt lat="42.2253880" lon="-8.7167780">
        <ele>81.9</ele>
        <time>2021-05-20T10:58:25Z</time>
      </trkpt>
      <trkpt lat="42.2253880" lon="-8.7167780">
        <ele>81.9</ele>
        <time>2021-05-20T10:58:26Z</time>
      </trkpt>
      <trkpt lat="42.2253880" lon="-8.7167780">
        <ele>81.9</ele>
        <time>2021-05-20T10:58:27Z</time>
      </trkpt>
      <trkpt lat="42.2253880" lon="-8.7167780">
        <ele>81.9</ele>
        <time>2021-05-20T10:58:28Z</time>
      </trkpt>
      <trkpt lat="42.2253880" lon="-8.7167780">
        <ele>81.9</ele>
        <time>2021-05-20T10:58:29Z</time>
      </trkpt>
      <trkpt lat="42.2253880" lon="-8.7167780">
        <ele>81.9</ele>
        <time>2021-05-20T10:58:30Z</time>
      </trkpt>
      <trkpt lat="42.2253880" lon="-8.7167780">
        <ele>81.9</ele>
        <time>2021-05-20T10:58:31Z</time>
      </trkpt>
      <trkpt lat="42.2253880" lon="-8.7167780">
        <ele>81.9</ele>
        <time>2021-05-20T10:58:32Z</time>
      </trkpt>
      <trkpt lat="42.2253880" lon="-8.7167780">
        <ele>81.9</ele>
        <time>2021-05-20T10:58:33Z</time>
      </trkpt>
      <trkpt lat="42.2253880" lon="-8.7167780">
        <ele>81.9</ele>
        <time>2021-05-20T10:58:34Z</time>
      </trkpt>
      <trkpt lat="42.2253880" lon="-8.7167780">
        <ele>81.9</ele>
        <time>2021-05-20T10:58:35Z</time>
      </trkpt>
      <trkpt lat="42.2253880" lon="-8.7167780">
        <ele>81.9</ele>
        <time>2021-05-20T10:58:36Z</time>
      </trkpt>
      <trkpt lat="42.2253880" lon="-8.7167780">
        <ele>81.9</ele>
        <time>2021-05-20T10:58:37Z</time>
      </trkpt>
      <trkpt lat="42.2253880" lon="-8.7167770">
        <ele>81.9</ele>
        <time>2021-05-20T10:58:38Z</time>
      </trkpt>
      <trkpt lat="42.2253880" lon="-8.7167770">
        <ele>81.9</ele>
        <time>2021-05-20T10:58:39Z</time>
      </trkpt>
      <trkpt lat="42.2253880" lon="-8.7167770">
        <ele>81.9</ele>
        <time>2021-05-20T10:58:40Z</time>
      </trkpt>
      <trkpt lat="42.2253880" lon="-8.7167770">
        <ele>81.9</ele>
        <time>2021-05-20T10:58:41Z</time>
      </trkpt>
      <trkpt lat="42.2253880" lon="-8.7167770">
        <ele>81.9</ele>
        <time>2021-05-20T10:58:42Z</time>
      </trkpt>
      <trkpt lat="42.2253890" lon="-8.7167770">
        <ele>81.9</ele>
        <time>2021-05-20T10:58:43Z</time>
      </trkpt>
      <trkpt lat="42.2253890" lon="-8.7167770">
        <ele>81.9</ele>
        <time>2021-05-20T10:58:44Z</time>
      </trkpt>
      <trkpt lat="42.2253890" lon="-8.7167770">
        <ele>81.9</ele>
        <time>2021-05-20T10:58:45Z</time>
      </trkpt>
      <trkpt lat="42.2253890" lon="-8.7167770">
        <ele>81.9</ele>
        <time>2021-05-20T10:58:46Z</time>
      </trkpt>
      <trkpt lat="42.2253890" lon="-8.7167770">
        <ele>81.9</ele>
        <time>2021-05-20T10:58:47Z</time>
      </trkpt>
      <trkpt lat="42.2253890" lon="-8.7167770">
        <ele>81.9</ele>
        <time>2021-05-20T10:58:48Z</time>
      </trkpt>
      <trkpt lat="42.2253890" lon="-8.7167770">
        <ele>81.9</ele>
        <time>2021-05-20T10:58:49Z</time>
      </trkpt>
      <trkpt lat="42.2253890" lon="-8.7167770">
        <ele>81.9</ele>
        <time>2021-05-20T10:58:50Z</time>
      </trkpt>
      <trkpt lat="42.2253890" lon="-8.7167770">
        <ele>81.9</ele>
        <time>2021-05-20T10:58:51Z</time>
      </trkpt>
      <trkpt lat="42.2253890" lon="-8.7167770">
        <ele>81.9</ele>
        <time>2021-05-20T10:58:52Z</time>
      </trkpt>
      <trkpt lat="42.2253890" lon="-8.7167770">
        <ele>81.9</ele>
        <time>2021-05-20T10:58:53Z</time>
      </trkpt>
      <trkpt lat="42.2253890" lon="-8.7167770">
        <ele>81.9</ele>
        <time>2021-05-20T10:58:54Z</time>
      </trkpt>
      <trkpt lat="42.2253890" lon="-8.7167770">
        <ele>81.9</ele>
        <time>2021-05-20T10:58:55Z</time>
      </trkpt>
      <trkpt lat="42.2253890" lon="-8.7167770">
        <ele>81.9</ele>
        <time>2021-05-20T10:58:56Z</time>
      </trkpt>
      <trkpt lat="42.2253890" lon="-8.7167770">
        <ele>81.9</ele>
        <time>2021-05-20T10:58:57Z</time>
      </trkpt>
      <trkpt lat="42.2253890" lon="-8.7167770">
        <ele>81.9</ele>
        <time>2021-05-20T10:58:58Z</time>
      </trkpt>
      <trkpt lat="42.2253890" lon="-8.7167770">
        <ele>81.9</ele>
        <time>2021-05-20T10:58:59Z</time>
      </trkpt>
      <trkpt lat="42.2253890" lon="-8.7167770">
        <ele>81.9</ele>
        <time>2021-05-20T10:59:00Z</time>
      </trkpt>
      <trkpt lat="42.2253890" lon="-8.7167770">
        <ele>81.9</ele>
        <time>2021-05-20T10:59:01Z</time>
      </trkpt>
      <trkpt lat="42.2253890" lon="-8.7167770">
        <ele>81.9</ele>
        <time>2021-05-20T10:59:02Z</time>
      </trkpt>
      <trkpt lat="42.2253890" lon="-8.7167770">
        <ele>81.9</ele>
        <time>2021-05-20T10:59:03Z</time>
      </trkpt>
      <trkpt lat="42.2253890" lon="-8.7167770">
        <ele>81.9</ele>
        <time>2021-05-20T10:59:04Z</time>
      </trkpt>
      <trkpt lat="42.2253890" lon="-8.7167770">
        <ele>81.9</ele>
        <time>2021-05-20T10:59:05Z</time>
      </trkpt>
      <trkpt lat="42.2253890" lon="-8.7167770">
        <ele>81.9</ele>
        <time>2021-05-20T10:59:06Z</time>
      </trkpt>
      <trkpt lat="42.2253890" lon="-8.7167770">
        <ele>81.9</ele>
        <time>2021-05-20T10:59:07Z</time>
      </trkpt>
      <trkpt lat="42.2253890" lon="-8.7167770">
        <ele>81.9</ele>
        <time>2021-05-20T10:59:08Z</time>
      </trkpt>
      <trkpt lat="42.2253890" lon="-8.7167770">
        <ele>81.9</ele>
        <time>2021-05-20T10:59:09Z</time>
      </trkpt>
      <trkpt lat="42.2253890" lon="-8.7167770">
        <ele>81.9</ele>
        <time>2021-05-20T10:59:10Z</time>
      </trkpt>
      <trkpt lat="42.2253890" lon="-8.7167770">
        <ele>81.9</ele>
        <time>2021-05-20T10:59:11Z</time>
      </trkpt>
      <trkpt lat="42.2253890" lon="-8.7167770">
        <ele>81.9</ele>
        <time>2021-05-20T10:59:12Z</time>
      </trkpt>
      <trkpt lat="42.2253890" lon="-8.7167770">
        <ele>81.9</ele>
        <time>2021-05-20T10:59:13Z</time>
      </trkpt>
      <trkpt lat="42.2253890" lon="-8.7167770">
        <ele>81.9</ele>
        <time>2021-05-20T10:59:14Z</time>
      </trkpt>
      <trkpt lat="42.2253890" lon="-8.7167770">
        <ele>81.9</ele>
        <time>2021-05-20T10:59:15Z</time>
      </trkpt>
      <trkpt lat="42.2253890" lon="-8.7167770">
        <ele>81.9</ele>
        <time>2021-05-20T10:59:16Z</time>
      </trkpt>
      <trkpt lat="42.2253900" lon="-8.7167770">
        <ele>81.9</ele>
        <time>2021-05-20T10:59:17Z</time>
      </trkpt>
      <trkpt lat="42.2253900" lon="-8.7167770">
        <ele>81.9</ele>
        <time>2021-05-20T10:59:18Z</time>
      </trkpt>
      <trkpt lat="42.2253900" lon="-8.7167770">
        <ele>81.9</ele>
        <time>2021-05-20T10:59:19Z</time>
      </trkpt>
      <trkpt lat="42.2253900" lon="-8.7167770">
        <ele>81.9</ele>
        <time>2021-05-20T10:59:20Z</time>
      </trkpt>
      <trkpt lat="42.2253900" lon="-8.7167770">
        <ele>81.9</ele>
        <time>2021-05-20T10:59:21Z</time>
      </trkpt>
      <trkpt lat="42.2253900" lon="-8.7167770">
        <ele>81.9</ele>
        <time>2021-05-20T10:59:22Z</time>
      </trkpt>
      <trkpt lat="42.2253900" lon="-8.7167770">
        <ele>81.9</ele>
        <time>2021-05-20T10:59:23Z</time>
      </trkpt>
      <trkpt lat="42.2253900" lon="-8.7167770">
        <ele>81.9</ele>
        <time>2021-05-20T10:59:24Z</time>
      </trkpt>
      <trkpt lat="42.2253900" lon="-8.7167770">
        <ele>81.9</ele>
        <time>2021-05-20T10:59:25Z</time>
      </trkpt>
      <trkpt lat="42.2253900" lon="-8.7167770">
        <ele>81.9</ele>
        <time>2021-05-20T10:59:26Z</time>
      </trkpt>
      <trkpt lat="42.2253900" lon="-8.7167770">
        <ele>81.9</ele>
        <time>2021-05-20T10:59:27Z</time>
      </trkpt>
      <trkpt lat="42.2253900" lon="-8.7167770">
        <ele>81.9</ele>
        <time>2021-05-20T10:59:28Z</time>
      </trkpt>
      <trkpt lat="42.2253900" lon="-8.7167770">
        <ele>81.9</ele>
        <time>2021-05-20T10:59:29Z</time>
      </trkpt>
      <trkpt lat="42.2253900" lon="-8.7167770">
        <ele>81.9</ele>
        <time>2021-05-20T10:59:30Z</time>
      </trkpt>
      <trkpt lat="42.2253900" lon="-8.7167770">
        <ele>81.9</ele>
        <time>2021-05-20T10:59:31Z</time>
      </trkpt>
      <trkpt lat="42.2253900" lon="-8.7167770">
        <ele>81.9</ele>
        <time>2021-05-20T10:59:32Z</time>
      </trkpt>
      <trkpt lat="42.2253900" lon="-8.7167770">
        <ele>81.9</ele>
        <time>2021-05-20T10:59:33Z</time>
      </trkpt>
      <trkpt lat="42.2253900" lon="-8.7167760">
        <ele>81.9</ele>
        <time>2021-05-20T10:59:34Z</time>
      </trkpt>
      <trkpt lat="42.2253900" lon="-8.7167760">
        <ele>81.9</ele>
        <time>2021-05-20T10:59:35Z</time>
      </trkpt>
      <trkpt lat="42.2253900" lon="-8.7167760">
        <ele>81.9</ele>
        <time>2021-05-20T10:59:36Z</time>
      </trkpt>
      <trkpt lat="42.2253900" lon="-8.7167760">
        <ele>81.9</ele>
        <time>2021-05-20T10:59:37Z</time>
      </trkpt>
      <trkpt lat="42.2253900" lon="-8.7167760">
        <ele>81.9</ele>
        <time>2021-05-20T10:59:38Z</time>
      </trkpt>
      <trkpt lat="42.2253900" lon="-8.7167760">
        <ele>81.9</ele>
        <time>2021-05-20T10:59:39Z</time>
      </trkpt>
      <trkpt lat="42.2253900" lon="-8.7167760">
        <ele>81.9</ele>
        <time>2021-05-20T10:59:40Z</time>
      </trkpt>
      <trkpt lat="42.2253900" lon="-8.7167760">
        <ele>81.9</ele>
        <time>2021-05-20T10:59:41Z</time>
      </trkpt>
      <trkpt lat="42.2253900" lon="-8.7167760">
        <ele>81.9</ele>
        <time>2021-05-20T10:59:42Z</time>
      </trkpt>
      <trkpt lat="42.2253900" lon="-8.7167760">
        <ele>81.9</ele>
        <time>2021-05-20T10:59:43Z</time>
      </trkpt>
      <trkpt lat="42.2253900" lon="-8.7167760">
        <ele>81.9</ele>
        <time>2021-05-20T10:59:44Z</time>
      </trkpt>
      <trkpt lat="42.2253900" lon="-8.7167760">
        <ele>81.9</ele>
        <time>2021-05-20T10:59:45Z</time>
      </trkpt>
      <trkpt lat="42.2253900" lon="-8.7167760">
        <ele>81.9</ele>
        <time>2021-05-20T10:59:46Z</time>
      </trkpt>
      <trkpt lat="42.2253900" lon="-8.7167760">
        <ele>81.9</ele>
        <time>2021-05-20T10:59:47Z</time>
      </trkpt>
      <trkpt lat="42.2253900" lon="-8.7167760">
        <ele>81.9</ele>
        <time>2021-05-20T10:59:48Z</time>
      </trkpt>
      <trkpt lat="42.2253900" lon="-8.7167760">
        <ele>81.9</ele>
        <time>2021-05-20T10:59:49Z</time>
      </trkpt>
      <trkpt lat="42.2253900" lon="-8.7167760">
        <ele>81.9</ele>
        <time>2021-05-20T10:59:50Z</time>
      </trkpt>
      <trkpt lat="42.2253910" lon="-8.7167760">
        <ele>81.9</ele>
        <time>2021-05-20T10:59:51Z</time>
      </trkpt>
      <trkpt lat="42.2253910" lon="-8.7167760">
        <ele>81.9</ele>
        <time>2021-05-20T10:59:52Z</time>
      </trkpt>
      <trkpt lat="42.2253910" lon="-8.7167760">
        <ele>81.9</ele>
        <time>2021-05-20T10:59:53Z</time>
      </trkpt>
      <trkpt lat="42.2253910" lon="-8.7167760">
        <ele>81.9</ele>
        <time>2021-05-20T10:59:54Z</time>
      </trkpt>
      <trkpt lat="42.2253910" lon="-8.7167760">
        <ele>81.9</ele>
        <time>2021-05-20T10:59:55Z</time>
      </trkpt>
      <trkpt lat="42.2253910" lon="-8.7167760">
        <ele>81.9</ele>
        <time>2021-05-20T10:59:56Z</time>
      </trkpt>
      <trkpt lat="42.2253910" lon="-8.7167760">
        <ele>81.9</ele>
        <time>2021-05-20T10:59:57Z</time>
      </trkpt>
      <trkpt lat="42.2253910" lon="-8.7167760">
        <ele>81.9</ele>
        <time>2021-05-20T10:59:58Z</time>
      </trkpt>
      <trkpt lat="42.2253910" lon="-8.7167760">
        <ele>81.9</ele>
        <time>2021-05-20T10:59:59Z</time>
      </trkpt>
      <trkpt lat="42.2253910" lon="-8.7167760">
        <ele>81.9</ele>
        <time>2021-05-20T11:00:00Z</time>
      </trkpt>
      <trkpt lat="42.2253910" lon="-8.7167760">
        <ele>81.9</ele>
        <time>2021-05-20T11:00:01Z</time>
      </trkpt>
      <trkpt lat="42.2253910" lon="-8.7167760">
        <ele>81.9</ele>
        <time>2021-05-20T11:00:02Z</time>
      </trkpt>
      <trkpt lat="42.2253910" lon="-8.7167760">
        <ele>81.9</ele>
        <time>2021-05-20T11:00:03Z</time>
      </trkpt>
      <trkpt lat="42.2253910" lon="-8.7167760">
        <ele>81.9</ele>
        <time>2021-05-20T11:00:04Z</time>
      </trkpt>
      <trkpt lat="42.2253910" lon="-8.7167760">
        <ele>81.9</ele>
        <time>2021-05-20T11:00:05Z</time>
      </trkpt>
      <trkpt lat="42.2253910" lon="-8.7167760">
        <ele>81.9</ele>
        <time>2021-05-20T11:00:06Z</time>
      </trkpt>
      <trkpt lat="42.2253910" lon="-8.7167760">
        <ele>81.9</ele>
        <time>2021-05-20T11:00:07Z</time>
      </trkpt>
      <trkpt lat="42.2253910" lon="-8.7167760">
        <ele>81.9</ele>
        <time>2021-05-20T11:00:08Z</time>
      </trkpt>
      <trkpt lat="42.2253910" lon="-8.7167760">
        <ele>81.9</ele>
        <time>2021-05-20T11:00:09Z</time>
      </trkpt>
      <trkpt lat="42.2253910" lon="-8.7167760">
        <ele>81.9</ele>
        <time>2021-05-20T11:00:10Z</time>
      </trkpt>
      <trkpt lat="42.2253910" lon="-8.7167760">
        <ele>81.9</ele>
        <time>2021-05-20T11:00:11Z</time>
      </trkpt>
      <trkpt lat="42.2253910" lon="-8.7167760">
        <ele>81.9</ele>
        <time>2021-05-20T11:00:12Z</time>
      </trkpt>
      <trkpt lat="42.2253910" lon="-8.7167760">
        <ele>81.9</ele>
        <time>2021-05-20T11:00:13Z</time>
      </trkpt>
      <trkpt lat="42.2253910" lon="-8.7167760">
        <ele>81.9</ele>
        <time>2021-05-20T11:00:14Z</time>
      </trkpt>
      <trkpt lat="42.2253910" lon="-8.7167760">
        <ele>81.9</ele>
        <time>2021-05-20T11:00:15Z</time>
      </trkpt>
      <trkpt lat="42.2253910" lon="-8.7167760">
        <ele>81.9</ele>
        <time>2021-05-20T11:00:16Z</time>
      </trkpt>
      <trkpt lat="42.2253910" lon="-8.7167760">
        <ele>81.9</ele>
        <time>2021-05-20T11:00:17Z</time>
      </trkpt>
      <trkpt lat="42.2253910" lon="-8.7167760">
        <ele>81.9</ele>
        <time>2021-05-20T11:00:18Z</time>
      </trkpt>
      <trkpt lat="42.2253910" lon="-8.7167760">
        <ele>81.9</ele>
        <time>2021-05-20T11:00:19Z</time>
      </trkpt>
      <trkpt lat="42.2253910" lon="-8.7167760">
        <ele>81.9</ele>
        <time>2021-05-20T11:00:20Z</time>
      </trkpt>
      <trkpt lat="42.2253910" lon="-8.7167760">
        <ele>81.9</ele>
        <time>2021-05-20T11:00:21Z</time>
      </trkpt>
      <trkpt lat="42.2253910" lon="-8.7167760">
        <ele>81.9</ele>
        <time>2021-05-20T11:00:22Z</time>
      </trkpt>
      <trkpt lat="42.2253910" lon="-8.7167760">
        <ele>81.9</ele>
        <time>2021-05-20T11:00:23Z</time>
      </trkpt>
      <trkpt lat="42.2253910" lon="-8.7167760">
        <ele>81.9</ele>
        <time>2021-05-20T11:00:24Z</time>
      </trkpt>
      <trkpt lat="42.2253920" lon="-8.7167760">
        <ele>81.9</ele>
        <time>2021-05-20T11:00:25Z</time>
      </trkpt>
      <trkpt lat="42.2253920" lon="-8.7167760">
        <ele>81.9</ele>
        <time>2021-05-20T11:00:26Z</time>
      </trkpt>
      <trkpt lat="42.2253920" lon="-8.7167760">
        <ele>81.9</ele>
        <time>2021-05-20T11:00:27Z</time>
      </trkpt>
      <trkpt lat="42.2253920" lon="-8.7167760">
        <ele>81.9</ele>
        <time>2021-05-20T11:00:28Z</time>
      </trkpt>
      <trkpt lat="42.2253920" lon="-8.7167760">
        <ele>81.9</ele>
        <time>2021-05-20T11:00:29Z</time>
      </trkpt>
      <trkpt lat="42.2253920" lon="-8.7167750">
        <ele>81.9</ele>
        <time>2021-05-20T11:00:30Z</time>
      </trkpt>
      <trkpt lat="42.2253920" lon="-8.7167750">
        <ele>81.9</ele>
        <time>2021-05-20T11:00:31Z</time>
      </trkpt>
      <trkpt lat="42.2253920" lon="-8.7167750">
        <ele>81.9</ele>
        <time>2021-05-20T11:00:32Z</time>
      </trkpt>
      <trkpt lat="42.2253920" lon="-8.7167750">
        <ele>81.9</ele>
        <time>2021-05-20T11:00:33Z</time>
      </trkpt>
      <trkpt lat="42.2253920" lon="-8.7167750">
        <ele>81.9</ele>
        <time>2021-05-20T11:00:34Z</time>
      </trkpt>
      <trkpt lat="42.2253920" lon="-8.7167750">
        <ele>81.9</ele>
        <time>2021-05-20T11:00:35Z</time>
      </trkpt>
      <trkpt lat="42.2253920" lon="-8.7167750">
        <ele>81.9</ele>
        <time>2021-05-20T11:00:36Z</time>
      </trkpt>
      <trkpt lat="42.2253920" lon="-8.7167750">
        <ele>81.9</ele>
        <time>2021-05-20T11:00:37Z</time>
      </trkpt>
      <trkpt lat="42.2253920" lon="-8.7167750">
        <ele>81.9</ele>
        <time>2021-05-20T11:00:38Z</time>
      </trkpt>
      <trkpt lat="42.2253920" lon="-8.7167750">
        <ele>81.9</ele>
        <time>2021-05-20T11:00:39Z</time>
      </trkpt>
      <trkpt lat="42.2253920" lon="-8.7167750">
        <ele>81.9</ele>
        <time>2021-05-20T11:00:40Z</time>
      </trkpt>
      <trkpt lat="42.2253920" lon="-8.7167750">
        <ele>81.9</ele>
        <time>2021-05-20T11:00:41Z</time>
      </trkpt>
      <trkpt lat="42.2253920" lon="-8.7167750">
        <ele>81.9</ele>
        <time>2021-05-20T11:00:42Z</time>
      </trkpt>
      <trkpt lat="42.2253920" lon="-8.7167750">
        <ele>81.9</ele>
        <time>2021-05-20T11:00:43Z</time>
      </trkpt>
      <trkpt lat="42.2253920" lon="-8.7167750">
        <ele>81.9</ele>
        <time>2021-05-20T11:00:44Z</time>
      </trkpt>
      <trkpt lat="42.2253920" lon="-8.7167750">
        <ele>81.9</ele>
        <time>2021-05-20T11:00:45Z</time>
      </trkpt>
      <trkpt lat="42.2253920" lon="-8.7167750">
        <ele>81.9</ele>
        <time>2021-05-20T11:00:46Z</time>
      </trkpt>
      <trkpt lat="42.2253920" lon="-8.7167750">
        <ele>81.9</ele>
        <time>2021-05-20T11:00:47Z</time>
      </trkpt>
      <trkpt lat="42.2253920" lon="-8.7167750">
        <ele>81.9</ele>
        <time>2021-05-20T11:00:48Z</time>
      </trkpt>
      <trkpt lat="42.2253920" lon="-8.7167750">
        <ele>81.9</ele>
        <time>2021-05-20T11:00:49Z</time>
      </trkpt>
      <trkpt lat="42.2253920" lon="-8.7167750">
        <ele>81.9</ele>
        <time>2021-05-20T11:00:50Z</time>
      </trkpt>
      <trkpt lat="42.2253920" lon="-8.7167750">
        <ele>81.9</ele>
        <time>2021-05-20T11:00:51Z</time>
      </trkpt>
      <trkpt lat="42.2253920" lon="-8.7167750">
        <ele>81.9</ele>
        <time>2021-05-20T11:00:52Z</time>
      </trkpt>
      <trkpt lat="42.2253920" lon="-8.7167750">
        <ele>81.9</ele>
        <time>2021-05-20T11:00:53Z</time>
      </trkpt>
      <trkpt lat="42.2253920" lon="-8.7167750">
        <ele>81.9</ele>
        <time>2021-05-20T11:00:54Z</time>
      </trkpt>
      <trkpt lat="42.2253920" lon="-8.7167750">
        <ele>81.9</ele>
        <time>2021-05-20T11:00:55Z</time>
      </trkpt>
      <trkpt lat="42.2253920" lon="-8.7167750">
        <ele>81.9</ele>
        <time>2021-05-20T11:00:56Z</time>
      </trkpt>
      <trkpt lat="42.2253920" lon="-8.7167750">
        <ele>81.9</ele>
        <time>2021-05-20T11:00:57Z</time>
      </trkpt>
      <trkpt lat="42.2253920" lon="-8.7167750">
        <ele>81.9</ele>
        <time>2021-05-20T11:00:58Z</time>
      </trkpt>
      <trkpt lat="42.2253930" lon="-8.7167750">
        <ele>81.9</ele>
        <time>2021-05-20T11:00:59Z</time>
      </trkpt>
      <trkpt lat="42.2253930" lon="-8.7167750">
        <ele>81.9</ele>
        <time>2021-05-20T11:01:00Z</time>
      </trkpt>
      <trkpt lat="42.2253930" lon="-8.7167750">
        <ele>81.9</ele>
        <time>2021-05-20T11:01:01Z</time>
      </trkpt>
      <trkpt lat="42.2253930" lon="-8.7167750">
        <ele>81.9</ele>
        <time>2021-05-20T11:01:02Z</time>
      </trkpt>
      <trkpt lat="42.2253930" lon="-8.7167750">
        <ele>81.9</ele>
        <time>2021-05-20T11:01:03Z</time>
      </trkpt>
      <trkpt lat="42.2253930" lon="-8.7167750">
        <ele>81.9</ele>
        <time>2021-05-20T11:01:04Z</time>
      </trkpt>
      <trkpt lat="42.2253930" lon="-8.7167750">
        <ele>81.9</ele>
        <time>2021-05-20T11:01:05Z</time>
      </trkpt>
      <trkpt lat="42.2253930" lon="-8.7167750">
        <ele>81.9</ele>
        <time>2021-05-20T11:01:06Z</time>
      </trkpt>
      <trkpt lat="42.2253930" lon="-8.7167750">
        <ele>81.9</ele>
        <time>2021-05-20T11:01:07Z</time>
      </trkpt>
      <trkpt lat="42.2253930" lon="-8.7167750">
        <ele>81.9</ele>
        <time>2021-05-20T11:01:08Z</time>
      </trkpt>
      <trkpt lat="42.2253930" lon="-8.7167750">
        <ele>81.9</ele>
        <time>2021-05-20T11:01:09Z</time>
      </trkpt>
      <trkpt lat="42.2253930" lon="-8.7167750">
        <ele>81.9</ele>
        <time>2021-05-20T11:01:10Z</time>
      </trkpt>
      <trkpt lat="42.2253930" lon="-8.7167750">
        <ele>81.9</ele>
        <time>2021-05-20T11:01:11Z</time>
      </trkpt>
      <trkpt lat="42.2253930" lon="-8.7167750">
        <ele>81.9</ele>
        <time>2021-05-20T11:01:12Z</time>
      </trkpt>
      <trkpt lat="42.2253930" lon="-8.7167750">
        <ele>81.9</ele>
        <time>2021-05-20T11:01:13Z</time>
      </trkpt>
      <trkpt lat="42.2253930" lon="-8.7167750">
        <ele>81.9</ele>
        <time>2021-05-20T11:01:14Z</time>
      </trkpt>
      <trkpt lat="42.2253930" lon="-8.7167750">
        <ele>81.9</ele>
        <time>2021-05-20T11:01:15Z</time>
      </trkpt>
      <trkpt lat="42.2253930" lon="-8.7167750">
        <ele>81.9</ele>
        <time>2021-05-20T11:01:16Z</time>
      </trkpt>
      <trkpt lat="42.2253930" lon="-8.7167750">
        <ele>81.9</ele>
        <time>2021-05-20T11:01:17Z</time>
      </trkpt>
      <trkpt lat="42.2253930" lon="-8.7167750">
        <ele>81.9</ele>
        <time>2021-05-20T11:01:18Z</time>
      </trkpt>
      <trkpt lat="42.2253930" lon="-8.7167750">
        <ele>81.9</ele>
        <time>2021-05-20T11:01:19Z</time>
      </trkpt>
      <trkpt lat="42.2253930" lon="-8.7167750">
        <ele>81.9</ele>
        <time>2021-05-20T11:01:20Z</time>
      </trkpt>
      <trkpt lat="42.2253930" lon="-8.7167750">
        <ele>81.9</ele>
        <time>2021-05-20T11:01:21Z</time>
      </trkpt>
      <trkpt lat="42.2253930" lon="-8.7167750">
        <ele>81.9</ele>
        <time>2021-05-20T11:01:22Z</time>
      </trkpt>
      <trkpt lat="42.2253930" lon="-8.7167750">
        <ele>81.9</ele>
        <time>2021-05-20T11:01:23Z</time>
      </trkpt>
      <trkpt lat="42.2253930" lon="-8.7167750">
        <ele>81.9</ele>
        <time>2021-05-20T11:01:24Z</time>
      </trkpt>
      <trkpt lat="42.2253930" lon="-8.7167750">
        <ele>81.9</ele>
        <time>2021-05-20T11:01:25Z</time>
      </trkpt>
      <trkpt lat="42.2253930" lon="-8.7167740">
        <ele>81.9</ele>
        <time>2021-05-20T11:01:26Z</time>
      </trkpt>
      <trkpt lat="42.2253930" lon="-8.7167740">
        <ele>81.9</ele>
        <time>2021-05-20T11:01:27Z</time>
      </trkpt>
      <trkpt lat="42.2253930" lon="-8.7167740">
        <ele>81.9</ele>
        <time>2021-05-20T11:01:28Z</time>
      </trkpt>
      <trkpt lat="42.2253930" lon="-8.7167740">
        <ele>81.9</ele>
        <time>2021-05-20T11:01:29Z</time>
      </trkpt>
      <trkpt lat="42.2253930" lon="-8.7167740">
        <ele>81.9</ele>
        <time>2021-05-20T11:01:30Z</time>
      </trkpt>
      <trkpt lat="42.2253930" lon="-8.7167740">
        <ele>81.9</ele>
        <time>2021-05-20T11:01:31Z</time>
      </trkpt>
      <trkpt lat="42.2253930" lon="-8.7167740">
        <ele>81.9</ele>
        <time>2021-05-20T11:01:32Z</time>
      </trkpt>
      <trkpt lat="42.2253940" lon="-8.7167740">
        <ele>81.9</ele>
        <time>2021-05-20T11:01:33Z</time>
      </trkpt>
      <trkpt lat="42.2253940" lon="-8.7167740">
        <ele>81.9</ele>
        <time>2021-05-20T11:01:34Z</time>
      </trkpt>
      <trkpt lat="42.2253940" lon="-8.7167740">
        <ele>81.9</ele>
        <time>2021-05-20T11:01:35Z</time>
      </trkpt>
      <trkpt lat="42.2253940" lon="-8.7167740">
        <ele>81.9</ele>
        <time>2021-05-20T11:01:36Z</time>
      </trkpt>
      <trkpt lat="42.2253940" lon="-8.7167740">
        <ele>81.9</ele>
        <time>2021-05-20T11:01:37Z</time>
      </trkpt>
      <trkpt lat="42.2253940" lon="-8.7167740">
        <ele>81.9</ele>
        <time>2021-05-20T11:01:38Z</time>
      </trkpt>
      <trkpt lat="42.2253940" lon="-8.7167740">
        <ele>81.9</ele>
        <time>2021-05-20T11:01:39Z</time>
      </trkpt>
      <trkpt lat="42.2253940" lon="-8.7167740">
        <ele>81.9</ele>
        <time>2021-05-20T11:01:40Z</time>
      </trkpt>
      <trkpt lat="42.2253940" lon="-8.7167740">
        <ele>81.9</ele>
        <time>2021-05-20T11:01:41Z</time>
      </trkpt>
      <trkpt lat="42.2253940" lon="-8.7167740">
        <ele>81.9</ele>
        <time>2021-05-20T11:01:42Z</time>
      </trkpt>
      <trkpt lat="42.2253940" lon="-8.7167740">
        <ele>81.9</ele>
        <time>2021-05-20T11:01:43Z</time>
      </trkpt>
      <trkpt lat="42.2253940" lon="-8.7167740">
        <ele>81.9</ele>
        <time>2021-05-20T11:01:44Z</time>
      </trkpt>
      <trkpt lat="42.2253940" lon="-8.7167740">
        <ele>81.9</ele>
        <time>2021-05-20T11:01:45Z</time>
      </trkpt>
      <trkpt lat="42.2253940" lon="-8.7167740">
        <ele>81.9</ele>
        <time>2021-05-20T11:01:46Z</time>
      </trkpt>
      <trkpt lat="42.2253940" lon="-8.7167740">
        <ele>81.9</ele>
        <time>2021-05-20T11:01:47Z</time>
      </trkpt>
      <trkpt lat="42.2253940" lon="-8.7167740">
        <ele>81.9</ele>
        <time>2021-05-20T11:01:48Z</time>
      </trkpt>
      <trkpt lat="42.2253940" lon="-8.7167740">
        <ele>81.9</ele>
        <time>2021-05-20T11:01:49Z</time>
      </trkpt>
      <trkpt lat="42.2253940" lon="-8.7167740">
        <ele>81.9</ele>
        <time>2021-05-20T11:01:50Z</time>
      </trkpt>
      <trkpt lat="42.2253940" lon="-8.7167740">
        <ele>81.9</ele>
        <time>2021-05-20T11:01:51Z</time>
      </trkpt>
      <trkpt lat="42.2253940" lon="-8.7167740">
        <ele>81.9</ele>
        <time>2021-05-20T11:01:52Z</time>
      </trkpt>
      <trkpt lat="42.2253940" lon="-8.7167740">
        <ele>81.9</ele>
        <time>2021-05-20T11:01:53Z</time>
      </trkpt>
      <trkpt lat="42.2253940" lon="-8.7167740">
        <ele>81.9</ele>
        <time>2021-05-20T11:01:54Z</time>
      </trkpt>
      <trkpt lat="42.2253940" lon="-8.7167740">
        <ele>81.9</ele>
        <time>2021-05-20T11:01:55Z</time>
      </trkpt>
      <trkpt lat="42.2253940" lon="-8.7167740">
        <ele>81.9</ele>
        <time>2021-05-20T11:01:56Z</time>
      </trkpt>
      <trkpt lat="42.2253940" lon="-8.7167740">
        <ele>81.9</ele>
        <time>2021-05-20T11:01:57Z</time>
      </trkpt>
      <trkpt lat="42.2253940" lon="-8.7167740">
        <ele>81.9</ele>
        <time>2021-05-20T11:01:58Z</time>
      </trkpt>
      <trkpt lat="42.2253940" lon="-8.7167740">
        <ele>81.9</ele>
        <time>2021-05-20T11:01:59Z</time>
      </trkpt>
      <trkpt lat="42.2253940" lon="-8.7167740">
        <ele>81.9</ele>
        <time>2021-05-20T11:02:00Z</time>
      </trkpt>
      <trkpt lat="42.2253940" lon="-8.7167740">
        <ele>81.9</ele>
        <time>2021-05-20T11:02:01Z</time>
      </trkpt>
      <trkpt lat="42.2253940" lon="-8.7167740">
        <ele>81.9</ele>
        <time>2021-05-20T11:02:02Z</time>
      </trkpt>
      <trkpt lat="42.2253940" lon="-8.7167740">
        <ele>81.9</ele>
        <time>2021-05-20T11:02:03Z</time>
      </trkpt>
      <trkpt lat="42.2253940" lon="-8.7167740">
        <ele>81.9</ele>
        <time>2021-05-20T11:02:04Z</time>
      </trkpt>
      <trkpt lat="42.2253940" lon="-8.7167740">
        <ele>81.9</ele>
        <time>2021-05-20T11:02:05Z</time>
      </trkpt>
      <trkpt lat="42.2253940" lon="-8.7167740">
        <ele>81.9</ele>
        <time>2021-05-20T11:02:06Z</time>
      </trkpt>
      <trkpt lat="42.2253950" lon="-8.7167740">
        <ele>81.9</ele>
        <time>2021-05-20T11:02:07Z</time>
      </trkpt>
      <trkpt lat="42.2253950" lon="-8.7167740">
        <ele>81.9</ele>
        <time>2021-05-20T11:02:08Z</time>
      </trkpt>
      <trkpt lat="42.2253950" lon="-8.7167740">
        <ele>81.9</ele>
        <time>2021-05-20T11:02:09Z</time>
      </trkpt>
      <trkpt lat="42.2253950" lon="-8.7167740">
        <ele>81.9</ele>
        <time>2021-05-20T11:02:10Z</time>
      </trkpt>
      <trkpt lat="42.2253950" lon="-8.7167740">
        <ele>81.9</ele>
        <time>2021-05-20T11:02:11Z</time>
      </trkpt>
      <trkpt lat="42.2253950" lon="-8.7167740">
        <ele>81.9</ele>
        <time>2021-05-20T11:02:12Z</time>
      </trkpt>
      <trkpt lat="42.2253950" lon="-8.7167740">
        <ele>81.9</ele>
        <time>2021-05-20T11:02:13Z</time>
      </trkpt>
      <trkpt lat="42.2253950" lon="-8.7167740">
        <ele>81.9</ele>
        <time>2021-05-20T11:02:14Z</time>
      </trkpt>
      <trkpt lat="42.2253950" lon="-8.7167740">
        <ele>81.9</ele>
        <time>2021-05-20T11:02:15Z</time>
      </trkpt>
      <trkpt lat="42.2253950" lon="-8.7167740">
        <ele>81.9</ele>
        <time>2021-05-20T11:02:16Z</time>
      </trkpt>
      <trkpt lat="42.2253950" lon="-8.7167740">
        <ele>81.9</ele>
        <time>2021-05-20T11:02:17Z</time>
      </trkpt>
      <trkpt lat="42.2253950" lon="-8.7167740">
        <ele>81.9</ele>
        <time>2021-05-20T11:02:18Z</time>
      </trkpt>
      <trkpt lat="42.2253950" lon="-8.7167740">
        <ele>81.9</ele>
        <time>2021-05-20T11:02:19Z</time>
      </trkpt>
      <trkpt lat="42.2253950" lon="-8.7167740">
        <ele>81.9</ele>
        <time>2021-05-20T11:02:20Z</time>
      </trkpt>
      <trkpt lat="42.2253950" lon="-8.7167740">
        <ele>81.9</ele>
        <time>2021-05-20T11:02:21Z</time>
      </trkpt>
      <trkpt lat="42.2253950" lon="-8.7167730">
        <ele>81.9</ele>
        <time>2021-05-20T11:02:22Z</time>
      </trkpt>
      <trkpt lat="42.2253950" lon="-8.7167730">
        <ele>81.9</ele>
        <time>2021-05-20T11:02:23Z</time>
      </trkpt>
      <trkpt lat="42.2253950" lon="-8.7167730">
        <ele>81.9</ele>
        <time>2021-05-20T11:02:24Z</time>
      </trkpt>
      <trkpt lat="42.2253950" lon="-8.7167730">
        <ele>81.9</ele>
        <time>2021-05-20T11:02:25Z</time>
      </trkpt>
      <trkpt lat="42.2253950" lon="-8.7167730">
        <ele>81.9</ele>
        <time>2021-05-20T11:02:26Z</time>
      </trkpt>
      <trkpt lat="42.2253950" lon="-8.7167730">
        <ele>81.9</ele>
        <time>2021-05-20T11:02:27Z</time>
      </trkpt>
      <trkpt lat="42.2253950" lon="-8.7167730">
        <ele>81.9</ele>
        <time>2021-05-20T11:02:28Z</time>
      </trkpt>
      <trkpt lat="42.2253950" lon="-8.7167730">
        <ele>81.9</ele>
        <time>2021-05-20T11:02:29Z</time>
      </trkpt>
      <trkpt lat="42.2253950" lon="-8.7167730">
        <ele>81.9</ele>
        <time>2021-05-20T11:02:30Z</time>
      </trkpt>
      <trkpt lat="42.2253950" lon="-8.7167730">
        <ele>81.9</ele>
        <time>2021-05-20T11:02:31Z</time>
      </trkpt>
      <trkpt lat="42.2253950" lon="-8.7167730">
        <ele>81.9</ele>
        <time>2021-05-20T11:02:32Z</time>
      </trkpt>
      <trkpt lat="42.2253950" lon="-8.7167730">
        <ele>81.9</ele>
        <time>2021-05-20T11:02:33Z</time>
      </trkpt>
      <trkpt lat="42.2253950" lon="-8.7167730">
        <ele>81.9</ele>
        <time>2021-05-20T11:02:34Z</time>
      </trkpt>
      <trkpt lat="42.2253950" lon="-8.7167730">
        <ele>81.9</ele>
        <time>2021-05-20T11:02:35Z</time>
      </trkpt>
      <trkpt lat="42.2253950" lon="-8.7167730">
        <ele>81.9</ele>
        <time>2021-05-20T11:02:36Z</time>
      </trkpt>
      <trkpt lat="42.2253950" lon="-8.7167730">
        <ele>81.9</ele>
        <time>2021-05-20T11:02:37Z</time>
      </trkpt>
      <trkpt lat="42.2253950" lon="-8.7167730">
        <ele>81.9</ele>
        <time>2021-05-20T11:02:38Z</time>
      </trkpt>
      <trkpt lat="42.2253950" lon="-8.7167730">
        <ele>81.9</ele>
        <time>2021-05-20T11:02:39Z</time>
      </trkpt>
      <trkpt lat="42.2253950" lon="-8.7167730">
        <ele>81.9</ele>
        <time>2021-05-20T11:02:40Z</time>
      </trkpt>
      <trkpt lat="42.2253960" lon="-8.7167730">
        <ele>81.9</ele>
        <time>2021-05-20T11:02:41Z</time>
      </trkpt>
      <trkpt lat="42.2253960" lon="-8.7167730">
        <ele>81.9</ele>
        <time>2021-05-20T11:02:42Z</time>
      </trkpt>
      <trkpt lat="42.2253960" lon="-8.7167730">
        <ele>81.9</ele>
        <time>2021-05-20T11:02:43Z</time>
      </trkpt>
      <trkpt lat="42.2253960" lon="-8.7167730">
        <ele>81.9</ele>
        <time>2021-05-20T11:02:44Z</time>
      </trkpt>
      <trkpt lat="42.2253960" lon="-8.7167730">
        <ele>81.9</ele>
        <time>2021-05-20T11:02:45Z</time>
      </trkpt>
      <trkpt lat="42.2253960" lon="-8.7167730">
        <ele>81.9</ele>
        <time>2021-05-20T11:02:46Z</time>
      </trkpt>
      <trkpt lat="42.2253960" lon="-8.7167730">
        <ele>81.9</ele>
        <time>2021-05-20T11:02:47Z</time>
      </trkpt>
      <trkpt lat="42.2253960" lon="-8.7167730">
        <ele>81.9</ele>
        <time>2021-05-20T11:02:48Z</time>
      </trkpt>
      <trkpt lat="42.2253960" lon="-8.7167730">
        <ele>81.9</ele>
        <time>2021-05-20T11:02:49Z</time>
      </trkpt>
      <trkpt lat="42.2253960" lon="-8.7167730">
        <ele>81.9</ele>
        <time>2021-05-20T11:02:50Z</time>
      </trkpt>
      <trkpt lat="42.2253960" lon="-8.7167730">
        <ele>81.9</ele>
        <time>2021-05-20T11:02:51Z</time>
      </trkpt>
      <trkpt lat="42.2253960" lon="-8.7167730">
        <ele>81.9</ele>
        <time>2021-05-20T11:02:52Z</time>
      </trkpt>
      <trkpt lat="42.2253960" lon="-8.7167730">
        <ele>81.9</ele>
        <time>2021-05-20T11:02:53Z</time>
      </trkpt>
      <trkpt lat="42.2253960" lon="-8.7167730">
        <ele>81.9</ele>
        <time>2021-05-20T11:02:54Z</time>
      </trkpt>
      <trkpt lat="42.2253960" lon="-8.7167730">
        <ele>81.9</ele>
        <time>2021-05-20T11:02:55Z</time>
      </trkpt>
      <trkpt lat="42.2253960" lon="-8.7167730">
        <ele>81.9</ele>
        <time>2021-05-20T11:02:56Z</time>
      </trkpt>
      <trkpt lat="42.2253960" lon="-8.7167730">
        <ele>81.9</ele>
        <time>2021-05-20T11:02:57Z</time>
      </trkpt>
      <trkpt lat="42.2253960" lon="-8.7167730">
        <ele>81.9</ele>
        <time>2021-05-20T11:02:58Z</time>
      </trkpt>
      <trkpt lat="42.2253960" lon="-8.7167730">
        <ele>81.9</ele>
        <time>2021-05-20T11:02:59Z</time>
      </trkpt>
      <trkpt lat="42.2253960" lon="-8.7167730">
        <ele>81.9</ele>
        <time>2021-05-20T11:03:00Z</time>
      </trkpt>
      <trkpt lat="42.2253960" lon="-8.7167730">
        <ele>81.9</ele>
        <time>2021-05-20T11:03:01Z</time>
      </trkpt>
      <trkpt lat="42.2253960" lon="-8.7167730">
        <ele>81.9</ele>
        <time>2021-05-20T11:03:02Z</time>
      </trkpt>
      <trkpt lat="42.2253960" lon="-8.7167730">
        <ele>81.9</ele>
        <time>2021-05-20T11:03:03Z</time>
      </trkpt>
      <trkpt lat="42.2253960" lon="-8.7167730">
        <ele>81.9</ele>
        <time>2021-05-20T11:03:04Z</time>
      </trkpt>
      <trkpt lat="42.2253960" lon="-8.7167730">
        <ele>81.9</ele>
        <time>2021-05-20T11:03:05Z</time>
      </trkpt>
      <trkpt lat="42.2253960" lon="-8.7167730">
        <ele>81.9</ele>
        <time>2021-05-20T11:03:06Z</time>
      </trkpt>
      <trkpt lat="42.2253960" lon="-8.7167730">
        <ele>81.9</ele>
        <time>2021-05-20T11:03:07Z</time>
      </trkpt>
      <trkpt lat="42.2253960" lon="-8.7167730">
        <ele>81.9</ele>
        <time>2021-05-20T11:03:08Z</time>
      </trkpt>
      <trkpt lat="42.2253960" lon="-8.7167730">
        <ele>81.9</ele>
        <time>2021-05-20T11:03:09Z</time>
      </trkpt>
      <trkpt lat="42.2253960" lon="-8.7167730">
        <ele>81.9</ele>
        <time>2021-05-20T11:03:10Z</time>
      </trkpt>
      <trkpt lat="42.2253960" lon="-8.7167730">
        <ele>81.9</ele>
        <time>2021-05-20T11:03:11Z</time>
      </trkpt>
      <trkpt lat="42.2253960" lon="-8.7167730">
        <ele>81.9</ele>
        <time>2021-05-20T11:03:12Z</time>
      </trkpt>
      <trkpt lat="42.2253960" lon="-8.7167730">
        <ele>81.9</ele>
        <time>2021-05-20T11:03:13Z</time>
      </trkpt>
      <trkpt lat="42.2253970" lon="-8.7167730">
        <ele>81.9</ele>
        <time>2021-05-20T11:03:14Z</time>
      </trkpt>
      <trkpt lat="42.2253970" lon="-8.7167730">
        <ele>81.9</ele>
        <time>2021-05-20T11:03:15Z</time>
      </trkpt>
      <trkpt lat="42.2253970" lon="-8.7167730">
        <ele>81.9</ele>
        <time>2021-05-20T11:03:16Z</time>
      </trkpt>
      <trkpt lat="42.2253970" lon="-8.7167730">
        <ele>81.9</ele>
        <time>2021-05-20T11:03:17Z</time>
      </trkpt>
      <trkpt lat="42.2253970" lon="-8.7167720">
        <ele>81.9</ele>
        <time>2021-05-20T11:03:18Z</time>
      </trkpt>
      <trkpt lat="42.2253970" lon="-8.7167720">
        <ele>81.9</ele>
        <time>2021-05-20T11:03:19Z</time>
      </trkpt>
      <trkpt lat="42.2253970" lon="-8.7167720">
        <ele>81.9</ele>
        <time>2021-05-20T11:03:20Z</time>
      </trkpt>
      <trkpt lat="42.2253970" lon="-8.7167720">
        <ele>81.9</ele>
        <time>2021-05-20T11:03:21Z</time>
      </trkpt>
      <trkpt lat="42.2253970" lon="-8.7167720">
        <ele>81.9</ele>
        <time>2021-05-20T11:03:22Z</time>
      </trkpt>
      <trkpt lat="42.2253970" lon="-8.7167720">
        <ele>81.9</ele>
        <time>2021-05-20T11:03:23Z</time>
      </trkpt>
      <trkpt lat="42.2253970" lon="-8.7167720">
        <ele>81.9</ele>
        <time>2021-05-20T11:03:24Z</time>
      </trkpt>
      <trkpt lat="42.2253970" lon="-8.7167720">
        <ele>81.9</ele>
        <time>2021-05-20T11:03:25Z</time>
      </trkpt>
      <trkpt lat="42.2253970" lon="-8.7167720">
        <ele>81.9</ele>
        <time>2021-05-20T11:03:26Z</time>
      </trkpt>
      <trkpt lat="42.2253970" lon="-8.7167720">
        <ele>81.9</ele>
        <time>2021-05-20T11:03:27Z</time>
      </trkpt>
      <trkpt lat="42.2253970" lon="-8.7167720">
        <ele>81.9</ele>
        <time>2021-05-20T11:03:28Z</time>
      </trkpt>
      <trkpt lat="42.2253970" lon="-8.7167720">
        <ele>81.9</ele>
        <time>2021-05-20T11:03:29Z</time>
      </trkpt>
      <trkpt lat="42.2253970" lon="-8.7167720">
        <ele>81.9</ele>
        <time>2021-05-20T11:03:30Z</time>
      </trkpt>
      <trkpt lat="42.2253970" lon="-8.7167720">
        <ele>81.9</ele>
        <time>2021-05-20T11:03:31Z</time>
      </trkpt>
      <trkpt lat="42.2253970" lon="-8.7167720">
        <ele>81.9</ele>
        <time>2021-05-20T11:03:32Z</time>
      </trkpt>
      <trkpt lat="42.2253970" lon="-8.7167720">
        <ele>81.9</ele>
        <time>2021-05-20T11:03:33Z</time>
      </trkpt>
      <trkpt lat="42.2253970" lon="-8.7167720">
        <ele>81.9</ele>
        <time>2021-05-20T11:03:34Z</time>
      </trkpt>
      <trkpt lat="42.2253970" lon="-8.7167720">
        <ele>81.9</ele>
        <time>2021-05-20T11:03:35Z</time>
      </trkpt>
      <trkpt lat="42.2253970" lon="-8.7167720">
        <ele>81.9</ele>
        <time>2021-05-20T11:03:36Z</time>
      </trkpt>
      <trkpt lat="42.2253970" lon="-8.7167720">
        <ele>81.9</ele>
        <time>2021-05-20T11:03:37Z</time>
      </trkpt>
      <trkpt lat="42.2253970" lon="-8.7167720">
        <ele>81.9</ele>
        <time>2021-05-20T11:03:38Z</time>
      </trkpt>
      <trkpt lat="42.2253970" lon="-8.7167720">
        <ele>81.9</ele>
        <time>2021-05-20T11:03:39Z</time>
      </trkpt>
      <trkpt lat="42.2253970" lon="-8.7167720">
        <ele>81.8</ele>
        <time>2021-05-20T11:03:40Z</time>
      </trkpt>
      <trkpt lat="42.2253970" lon="-8.7167720">
        <ele>81.8</ele>
        <time>2021-05-20T11:03:41Z</time>
      </trkpt>
      <trkpt lat="42.2253970" lon="-8.7167720">
        <ele>81.8</ele>
        <time>2021-05-20T11:03:42Z</time>
      </trkpt>
      <trkpt lat="42.2253970" lon="-8.7167720">
        <ele>81.8</ele>
        <time>2021-05-20T11:03:43Z</time>
      </trkpt>
      <trkpt lat="42.2253970" lon="-8.7167720">
        <ele>81.8</ele>
        <time>2021-05-20T11:03:44Z</time>
      </trkpt>
      <trkpt lat="42.2253970" lon="-8.7167720">
        <ele>81.8</ele>
        <time>2021-05-20T11:03:45Z</time>
      </trkpt>
      <trkpt lat="42.2253970" lon="-8.7167720">
        <ele>81.8</ele>
        <time>2021-05-20T11:03:46Z</time>
      </trkpt>
      <trkpt lat="42.2253970" lon="-8.7167720">
        <ele>81.8</ele>
        <time>2021-05-20T11:03:47Z</time>
      </trkpt>
      <trkpt lat="42.2253980" lon="-8.7167720">
        <ele>81.8</ele>
        <time>2021-05-20T11:03:48Z</time>
      </trkpt>
      <trkpt lat="42.2253980" lon="-8.7167720">
        <ele>81.8</ele>
        <time>2021-05-20T11:03:49Z</time>
      </trkpt>
      <trkpt lat="42.2253980" lon="-8.7167720">
        <ele>81.8</ele>
        <time>2021-05-20T11:03:50Z</time>
      </trkpt>
      <trkpt lat="42.2253980" lon="-8.7167720">
        <ele>81.8</ele>
        <time>2021-05-20T11:03:51Z</time>
      </trkpt>
      <trkpt lat="42.2253980" lon="-8.7167720">
        <ele>81.8</ele>
        <time>2021-05-20T11:03:52Z</time>
      </trkpt>
      <trkpt lat="42.2253980" lon="-8.7167720">
        <ele>81.8</ele>
        <time>2021-05-20T11:03:53Z</time>
      </trkpt>
      <trkpt lat="42.2253980" lon="-8.7167720">
        <ele>81.8</ele>
        <time>2021-05-20T11:03:54Z</time>
      </trkpt>
      <trkpt lat="42.2253980" lon="-8.7167720">
        <ele>81.8</ele>
        <time>2021-05-20T11:03:55Z</time>
      </trkpt>
      <trkpt lat="42.2253980" lon="-8.7167720">
        <ele>81.8</ele>
        <time>2021-05-20T11:03:56Z</time>
      </trkpt>
      <trkpt lat="42.2253980" lon="-8.7167720">
        <ele>81.8</ele>
        <time>2021-05-20T11:03:57Z</time>
      </trkpt>
      <trkpt lat="42.2253980" lon="-8.7167720">
        <ele>81.8</ele>
        <time>2021-05-20T11:03:58Z</time>
      </trkpt>
      <trkpt lat="42.2253980" lon="-8.7167720">
        <ele>81.8</ele>
        <time>2021-05-20T11:03:59Z</time>
      </trkpt>
      <trkpt lat="42.2253980" lon="-8.7167720">
        <ele>81.8</ele>
        <time>2021-05-20T11:04:00Z</time>
      </trkpt>
      <trkpt lat="42.2253980" lon="-8.7167720">
        <ele>81.8</ele>
        <time>2021-05-20T11:04:01Z</time>
      </trkpt>
      <trkpt lat="42.2253980" lon="-8.7167720">
        <ele>81.8</ele>
        <time>2021-05-20T11:04:02Z</time>
      </trkpt>
      <trkpt lat="42.2253980" lon="-8.7167720">
        <ele>81.8</ele>
        <time>2021-05-20T11:04:03Z</time>
      </trkpt>
      <trkpt lat="42.2253980" lon="-8.7167720">
        <ele>81.8</ele>
        <time>2021-05-20T11:04:04Z</time>
      </trkpt>
      <trkpt lat="42.2253980" lon="-8.7167720">
        <ele>81.8</ele>
        <time>2021-05-20T11:04:05Z</time>
      </trkpt>
      <trkpt lat="42.2253980" lon="-8.7167720">
        <ele>81.8</ele>
        <time>2021-05-20T11:04:06Z</time>
      </trkpt>
      <trkpt lat="42.2253980" lon="-8.7167720">
        <ele>81.8</ele>
        <time>2021-05-20T11:04:07Z</time>
      </trkpt>
      <trkpt lat="42.2253980" lon="-8.7167720">
        <ele>81.8</ele>
        <time>2021-05-20T11:04:08Z</time>
      </trkpt>
      <trkpt lat="42.2253980" lon="-8.7167720">
        <ele>81.8</ele>
        <time>2021-05-20T11:04:09Z</time>
      </trkpt>
      <trkpt lat="42.2253980" lon="-8.7167720">
        <ele>81.8</ele>
        <time>2021-05-20T11:04:10Z</time>
      </trkpt>
      <trkpt lat="42.2253980" lon="-8.7167720">
        <ele>81.8</ele>
        <time>2021-05-20T11:04:11Z</time>
      </trkpt>
      <trkpt lat="42.2253980" lon="-8.7167720">
        <ele>81.8</ele>
        <time>2021-05-20T11:04:12Z</time>
      </trkpt>
      <trkpt lat="42.2253980" lon="-8.7167720">
        <ele>81.8</ele>
        <time>2021-05-20T11:04:13Z</time>
      </trkpt>
      <trkpt lat="42.2253980" lon="-8.7167710">
        <ele>81.8</ele>
        <time>2021-05-20T11:04:14Z</time>
      </trkpt>
      <trkpt lat="42.2253980" lon="-8.7167710">
        <ele>81.8</ele>
        <time>2021-05-20T11:04:15Z</time>
      </trkpt>
      <trkpt lat="42.2253980" lon="-8.7167710">
        <ele>81.8</ele>
        <time>2021-05-20T11:04:16Z</time>
      </trkpt>
      <trkpt lat="42.2253980" lon="-8.7167710">
        <ele>81.8</ele>
        <time>2021-05-20T11:04:17Z</time>
      </trkpt>
      <trkpt lat="42.2253980" lon="-8.7167710">
        <ele>81.8</ele>
        <time>2021-05-20T11:04:18Z</time>
      </trkpt>
      <trkpt lat="42.2253980" lon="-8.7167710">
        <ele>81.8</ele>
        <time>2021-05-20T11:04:19Z</time>
      </trkpt>
      <trkpt lat="42.2253980" lon="-8.7167710">
        <ele>81.8</ele>
        <time>2021-05-20T11:04:20Z</time>
      </trkpt>
      <trkpt lat="42.2253980" lon="-8.7167710">
        <ele>81.8</ele>
        <time>2021-05-20T11:04:21Z</time>
      </trkpt>
      <trkpt lat="42.2253990" lon="-8.7167710">
        <ele>81.8</ele>
        <time>2021-05-20T11:04:22Z</time>
      </trkpt>
      <trkpt lat="42.2253990" lon="-8.7167710">
        <ele>81.8</ele>
        <time>2021-05-20T11:04:23Z</time>
      </trkpt>
      <trkpt lat="42.2253990" lon="-8.7167710">
        <ele>81.8</ele>
        <time>2021-05-20T11:04:24Z</time>
      </trkpt>
      <trkpt lat="42.2253990" lon="-8.7167710">
        <ele>81.8</ele>
        <time>2021-05-20T11:04:25Z</time>
      </trkpt>
      <trkpt lat="42.2253990" lon="-8.7167710">
        <ele>81.8</ele>
        <time>2021-05-20T11:04:26Z</time>
      </trkpt>
      <trkpt lat="42.2253990" lon="-8.7167710">
        <ele>81.8</ele>
        <time>2021-05-20T11:04:27Z</time>
      </trkpt>
      <trkpt lat="42.2253990" lon="-8.7167710">
        <ele>81.8</ele>
        <time>2021-05-20T11:04:28Z</time>
      </trkpt>
      <trkpt lat="42.2253990" lon="-8.7167710">
        <ele>81.8</ele>
        <time>2021-05-20T11:04:29Z</time>
      </trkpt>
      <trkpt lat="42.2253990" lon="-8.7167710">
        <ele>81.8</ele>
        <time>2021-05-20T11:04:30Z</time>
      </trkpt>
      <trkpt lat="42.2253990" lon="-8.7167710">
        <ele>81.8</ele>
        <time>2021-05-20T11:04:31Z</time>
      </trkpt>
      <trkpt lat="42.2253990" lon="-8.7167710">
        <ele>81.8</ele>
        <time>2021-05-20T11:04:32Z</time>
      </trkpt>
      <trkpt lat="42.2253990" lon="-8.7167710">
        <ele>81.8</ele>
        <time>2021-05-20T11:04:33Z</time>
      </trkpt>
      <trkpt lat="42.2253990" lon="-8.7167710">
        <ele>81.8</ele>
        <time>2021-05-20T11:04:34Z</time>
      </trkpt>
      <trkpt lat="42.2253990" lon="-8.7167710">
        <ele>81.8</ele>
        <time>2021-05-20T11:04:35Z</time>
      </trkpt>
      <trkpt lat="42.2253990" lon="-8.7167710">
        <ele>81.8</ele>
        <time>2021-05-20T11:04:36Z</time>
      </trkpt>
      <trkpt lat="42.2253990" lon="-8.7167710">
        <ele>81.8</ele>
        <time>2021-05-20T11:04:37Z</time>
      </trkpt>
      <trkpt lat="42.2253990" lon="-8.7167710">
        <ele>81.8</ele>
        <time>2021-05-20T11:04:38Z</time>
      </trkpt>
      <trkpt lat="42.2253990" lon="-8.7167710">
        <ele>81.8</ele>
        <time>2021-05-20T11:04:39Z</time>
      </trkpt>
      <trkpt lat="42.2253990" lon="-8.7167710">
        <ele>81.8</ele>
        <time>2021-05-20T11:04:40Z</time>
      </trkpt>
      <trkpt lat="42.2253990" lon="-8.7167710">
        <ele>81.8</ele>
        <time>2021-05-20T11:04:41Z</time>
      </trkpt>
      <trkpt lat="42.2253990" lon="-8.7167710">
        <ele>81.8</ele>
        <time>2021-05-20T11:04:42Z</time>
      </trkpt>
      <trkpt lat="42.2253990" lon="-8.7167710">
        <ele>81.8</ele>
        <time>2021-05-20T11:04:43Z</time>
      </trkpt>
      <trkpt lat="42.2253990" lon="-8.7167710">
        <ele>81.8</ele>
        <time>2021-05-20T11:04:44Z</time>
      </trkpt>
      <trkpt lat="42.2253990" lon="-8.7167710">
        <ele>81.8</ele>
        <time>2021-05-20T11:04:45Z</time>
      </trkpt>
      <trkpt lat="42.2253990" lon="-8.7167710">
        <ele>81.8</ele>
        <time>2021-05-20T11:04:46Z</time>
      </trkpt>
      <trkpt lat="42.2253990" lon="-8.7167710">
        <ele>81.8</ele>
        <time>2021-05-20T11:04:47Z</time>
      </trkpt>
      <trkpt lat="42.2253990" lon="-8.7167710">
        <ele>81.8</ele>
        <time>2021-05-20T11:04:48Z</time>
      </trkpt>
      <trkpt lat="42.2253990" lon="-8.7167710">
        <ele>81.8</ele>
        <time>2021-05-20T11:04:49Z</time>
      </trkpt>
      <trkpt lat="42.2253990" lon="-8.7167710">
        <ele>81.8</ele>
        <time>2021-05-20T11:04:50Z</time>
      </trkpt>
      <trkpt lat="42.2253990" lon="-8.7167710">
        <ele>81.8</ele>
        <time>2021-05-20T11:04:51Z</time>
      </trkpt>
      <trkpt lat="42.2253990" lon="-8.7167710">
        <ele>81.8</ele>
        <time>2021-05-20T11:04:52Z</time>
      </trkpt>
      <trkpt lat="42.2253990" lon="-8.7167710">
        <ele>81.8</ele>
        <time>2021-05-20T11:04:53Z</time>
      </trkpt>
      <trkpt lat="42.2253990" lon="-8.7167710">
        <ele>81.8</ele>
        <time>2021-05-20T11:04:54Z</time>
      </trkpt>
      <trkpt lat="42.2253990" lon="-8.7167710">
        <ele>81.8</ele>
        <time>2021-05-20T11:04:55Z</time>
      </trkpt>
      <trkpt lat="42.2254000" lon="-8.7167710">
        <ele>81.8</ele>
        <time>2021-05-20T11:04:56Z</time>
      </trkpt>
      <trkpt lat="42.2254000" lon="-8.7167710">
        <ele>81.8</ele>
        <time>2021-05-20T11:04:57Z</time>
      </trkpt>
      <trkpt lat="42.2254000" lon="-8.7167710">
        <ele>81.8</ele>
        <time>2021-05-20T11:04:58Z</time>
      </trkpt>
      <trkpt lat="42.2254000" lon="-8.7167710">
        <ele>81.8</ele>
        <time>2021-05-20T11:04:59Z</time>
      </trkpt>
      <trkpt lat="42.2254000" lon="-8.7167710">
        <ele>81.8</ele>
        <time>2021-05-20T11:05:00Z</time>
      </trkpt>
      <trkpt lat="42.2254000" lon="-8.7167710">
        <ele>81.8</ele>
        <time>2021-05-20T11:05:01Z</time>
      </trkpt>
      <trkpt lat="42.2254000" lon="-8.7167710">
        <ele>81.8</ele>
        <time>2021-05-20T11:05:02Z</time>
      </trkpt>
      <trkpt lat="42.2254000" lon="-8.7167710">
        <ele>81.8</ele>
        <time>2021-05-20T11:05:03Z</time>
      </trkpt>
      <trkpt lat="42.2254000" lon="-8.7167710">
        <ele>81.8</ele>
        <time>2021-05-20T11:05:04Z</time>
      </trkpt>
      <trkpt lat="42.2254000" lon="-8.7167710">
        <ele>81.8</ele>
        <time>2021-05-20T11:05:05Z</time>
      </trkpt>
      <trkpt lat="42.2254000" lon="-8.7167710">
        <ele>81.8</ele>
        <time>2021-05-20T11:05:06Z</time>
      </trkpt>
      <trkpt lat="42.2254000" lon="-8.7167710">
        <ele>81.8</ele>
        <time>2021-05-20T11:05:07Z</time>
      </trkpt>
      <trkpt lat="42.2254000" lon="-8.7167710">
        <ele>81.8</ele>
        <time>2021-05-20T11:05:08Z</time>
      </trkpt>
      <trkpt lat="42.2254000" lon="-8.7167710">
        <ele>81.8</ele>
        <time>2021-05-20T11:05:09Z</time>
      </trkpt>
      <trkpt lat="42.2254000" lon="-8.7167700">
        <ele>81.8</ele>
        <time>2021-05-20T11:05:10Z</time>
      </trkpt>
      <trkpt lat="42.2254000" lon="-8.7167700">
        <ele>81.8</ele>
        <time>2021-05-20T11:05:11Z</time>
      </trkpt>
      <trkpt lat="42.2254000" lon="-8.7167700">
        <ele>81.8</ele>
        <time>2021-05-20T11:05:12Z</time>
      </trkpt>
      <trkpt lat="42.2254000" lon="-8.7167700">
        <ele>81.8</ele>
        <time>2021-05-20T11:05:13Z</time>
      </trkpt>
      <trkpt lat="42.2254000" lon="-8.7167700">
        <ele>81.8</ele>
        <time>2021-05-20T11:05:14Z</time>
      </trkpt>
      <trkpt lat="42.2254000" lon="-8.7167700">
        <ele>81.8</ele>
        <time>2021-05-20T11:05:15Z</time>
      </trkpt>
      <trkpt lat="42.2254000" lon="-8.7167700">
        <ele>81.8</ele>
        <time>2021-05-20T11:05:16Z</time>
      </trkpt>
      <trkpt lat="42.2254000" lon="-8.7167700">
        <ele>81.8</ele>
        <time>2021-05-20T11:05:17Z</time>
      </trkpt>
      <trkpt lat="42.2254000" lon="-8.7167700">
        <ele>81.8</ele>
        <time>2021-05-20T11:05:18Z</time>
      </trkpt>
      <trkpt lat="42.2254000" lon="-8.7167700">
        <ele>81.8</ele>
        <time>2021-05-20T11:05:19Z</time>
      </trkpt>
      <trkpt lat="42.2254000" lon="-8.7167700">
        <ele>81.8</ele>
        <time>2021-05-20T11:05:20Z</time>
      </trkpt>
      <trkpt lat="42.2254000" lon="-8.7167700">
        <ele>81.8</ele>
        <time>2021-05-20T11:05:21Z</time>
      </trkpt>
      <trkpt lat="42.2254000" lon="-8.7167700">
        <ele>81.8</ele>
        <time>2021-05-20T11:05:22Z</time>
      </trkpt>
      <trkpt lat="42.2254000" lon="-8.7167700">
        <ele>81.8</ele>
        <time>2021-05-20T11:05:23Z</time>
      </trkpt>
      <trkpt lat="42.2254000" lon="-8.7167700">
        <ele>81.8</ele>
        <time>2021-05-20T11:05:24Z</time>
      </trkpt>
      <trkpt lat="42.2254000" lon="-8.7167700">
        <ele>81.8</ele>
        <time>2021-05-20T11:05:25Z</time>
      </trkpt>
      <trkpt lat="42.2254000" lon="-8.7167700">
        <ele>81.8</ele>
        <time>2021-05-20T11:05:26Z</time>
      </trkpt>
      <trkpt lat="42.2254000" lon="-8.7167700">
        <ele>81.8</ele>
        <time>2021-05-20T11:05:27Z</time>
      </trkpt>
      <trkpt lat="42.2254000" lon="-8.7167700">
        <ele>81.8</ele>
        <time>2021-05-20T11:05:28Z</time>
      </trkpt>
      <trkpt lat="42.2254000" lon="-8.7167700">
        <ele>81.8</ele>
        <time>2021-05-20T11:05:29Z</time>
      </trkpt>
      <trkpt lat="42.2254010" lon="-8.7167700">
        <ele>81.8</ele>
        <time>2021-05-20T11:05:30Z</time>
      </trkpt>
      <trkpt lat="42.2254010" lon="-8.7167700">
        <ele>81.8</ele>
        <time>2021-05-20T11:05:31Z</time>
      </trkpt>
      <trkpt lat="42.2254010" lon="-8.7167700">
        <ele>81.8</ele>
        <time>2021-05-20T11:05:32Z</time>
      </trkpt>
      <trkpt lat="42.2254010" lon="-8.7167700">
        <ele>81.8</ele>
        <time>2021-05-20T11:05:33Z</time>
      </trkpt>
      <trkpt lat="42.2254010" lon="-8.7167700">
        <ele>81.8</ele>
        <time>2021-05-20T11:05:34Z</time>
      </trkpt>
      <trkpt lat="42.2254010" lon="-8.7167700">
        <ele>81.8</ele>
        <time>2021-05-20T11:05:35Z</time>
      </trkpt>
      <trkpt lat="42.2254010" lon="-8.7167700">
        <ele>81.8</ele>
        <time>2021-05-20T11:05:36Z</time>
      </trkpt>
      <trkpt lat="42.2254010" lon="-8.7167700">
        <ele>81.8</ele>
        <time>2021-05-20T11:05:37Z</time>
      </trkpt>
      <trkpt lat="42.2254010" lon="-8.7167700">
        <ele>81.8</ele>
        <time>2021-05-20T11:05:38Z</time>
      </trkpt>
      <trkpt lat="42.2254010" lon="-8.7167700">
        <ele>81.8</ele>
        <time>2021-05-20T11:05:39Z</time>
      </trkpt>
      <trkpt lat="42.2254010" lon="-8.7167700">
        <ele>81.8</ele>
        <time>2021-05-20T11:05:40Z</time>
      </trkpt>
      <trkpt lat="42.2254010" lon="-8.7167700">
        <ele>81.8</ele>
        <time>2021-05-20T11:05:41Z</time>
      </trkpt>
      <trkpt lat="42.2254010" lon="-8.7167700">
        <ele>81.8</ele>
        <time>2021-05-20T11:05:42Z</time>
      </trkpt>
      <trkpt lat="42.2254010" lon="-8.7167700">
        <ele>81.8</ele>
        <time>2021-05-20T11:05:43Z</time>
      </trkpt>
      <trkpt lat="42.2254010" lon="-8.7167700">
        <ele>81.8</ele>
        <time>2021-05-20T11:05:44Z</time>
      </trkpt>
      <trkpt lat="42.2254010" lon="-8.7167700">
        <ele>81.8</ele>
        <time>2021-05-20T11:05:45Z</time>
      </trkpt>
      <trkpt lat="42.2254010" lon="-8.7167700">
        <ele>81.8</ele>
        <time>2021-05-20T11:05:46Z</time>
      </trkpt>
      <trkpt lat="42.2254010" lon="-8.7167700">
        <ele>81.8</ele>
        <time>2021-05-20T11:05:47Z</time>
      </trkpt>
      <trkpt lat="42.2254010" lon="-8.7167700">
        <ele>81.8</ele>
        <time>2021-05-20T11:05:48Z</time>
      </trkpt>
      <trkpt lat="42.2254010" lon="-8.7167700">
        <ele>81.8</ele>
        <time>2021-05-20T11:05:49Z</time>
      </trkpt>
      <trkpt lat="42.2254010" lon="-8.7167700">
        <ele>81.8</ele>
        <time>2021-05-20T11:05:50Z</time>
      </trkpt>
      <trkpt lat="42.2254010" lon="-8.7167700">
        <ele>81.8</ele>
        <time>2021-05-20T11:05:51Z</time>
      </trkpt>
      <trkpt lat="42.2254010" lon="-8.7167700">
        <ele>81.8</ele>
        <time>2021-05-20T11:05:52Z</time>
      </trkpt>
      <trkpt lat="42.2254010" lon="-8.7167700">
        <ele>81.8</ele>
        <time>2021-05-20T11:05:53Z</time>
      </trkpt>
      <trkpt lat="42.2254010" lon="-8.7167700">
        <ele>81.8</ele>
        <time>2021-05-20T11:05:54Z</time>
      </trkpt>
      <trkpt lat="42.2254010" lon="-8.7167700">
        <ele>81.8</ele>
        <time>2021-05-20T11:05:55Z</time>
      </trkpt>
      <trkpt lat="42.2254010" lon="-8.7167700">
        <ele>81.8</ele>
        <time>2021-05-20T11:05:56Z</time>
      </trkpt>
      <trkpt lat="42.2254010" lon="-8.7167700">
        <ele>81.8</ele>
        <time>2021-05-20T11:05:57Z</time>
      </trkpt>
      <trkpt lat="42.2254010" lon="-8.7167700">
        <ele>81.8</ele>
        <time>2021-05-20T11:05:58Z</time>
      </trkpt>
      <trkpt lat="42.2254010" lon="-8.7167700">
        <ele>81.8</ele>
        <time>2021-05-20T11:05:59Z</time>
      </trkpt>
      <trkpt lat="42.2254010" lon="-8.7167700">
        <ele>81.8</ele>
        <time>2021-05-20T11:06:00Z</time>
      </trkpt>
      <trkpt lat="42.2254010" lon="-8.7167700">
        <ele>81.8</ele>
        <time>2021-05-20T11:06:01Z</time>
      </trkpt>
      <trkpt lat="42.2254010" lon="-8.7167700">
        <ele>81.8</ele>
        <time>2021-05-20T11:06:02Z</time>
      </trkpt>
      <trkpt lat="42.2254010" lon="-8.7167700">
        <ele>81.8</ele>
        <time>2021-05-20T11:06:03Z</time>
      </trkpt>
      <trkpt lat="42.2254020" lon="-8.7167700">
        <ele>81.8</ele>
        <time>2021-05-20T11:06:04Z</time>
      </trkpt>
      <trkpt lat="42.2254020" lon="-8.7167700">
        <ele>81.8</ele>
        <time>2021-05-20T11:06:05Z</time>
      </trkpt>
      <trkpt lat="42.2254020" lon="-8.7167690">
        <ele>81.8</ele>
        <time>2021-05-20T11:06:06Z</time>
      </trkpt>
      <trkpt lat="42.2254020" lon="-8.7167690">
        <ele>81.8</ele>
        <time>2021-05-20T11:06:07Z</time>
      </trkpt>
      <trkpt lat="42.2254020" lon="-8.7167690">
        <ele>81.8</ele>
        <time>2021-05-20T11:06:08Z</time>
      </trkpt>
      <trkpt lat="42.2254020" lon="-8.7167690">
        <ele>81.8</ele>
        <time>2021-05-20T11:06:09Z</time>
      </trkpt>
      <trkpt lat="42.2254020" lon="-8.7167690">
        <ele>81.8</ele>
        <time>2021-05-20T11:06:10Z</time>
      </trkpt>
      <trkpt lat="42.2254020" lon="-8.7167690">
        <ele>81.8</ele>
        <time>2021-05-20T11:06:11Z</time>
      </trkpt>
      <trkpt lat="42.2254020" lon="-8.7167690">
        <ele>81.8</ele>
        <time>2021-05-20T11:06:12Z</time>
      </trkpt>
      <trkpt lat="42.2254020" lon="-8.7167690">
        <ele>81.8</ele>
        <time>2021-05-20T11:06:13Z</time>
      </trkpt>
      <trkpt lat="42.2254020" lon="-8.7167690">
        <ele>81.8</ele>
        <time>2021-05-20T11:06:14Z</time>
      </trkpt>
      <trkpt lat="42.2254020" lon="-8.7167690">
        <ele>81.8</ele>
        <time>2021-05-20T11:06:15Z</time>
      </trkpt>
      <trkpt lat="42.2254020" lon="-8.7167690">
        <ele>81.8</ele>
        <time>2021-05-20T11:06:16Z</time>
      </trkpt>
      <trkpt lat="42.2254020" lon="-8.7167690">
        <ele>81.8</ele>
        <time>2021-05-20T11:06:17Z</time>
      </trkpt>
      <trkpt lat="42.2254020" lon="-8.7167690">
        <ele>81.8</ele>
        <time>2021-05-20T11:06:18Z</time>
      </trkpt>
      <trkpt lat="42.2254020" lon="-8.7167690">
        <ele>81.8</ele>
        <time>2021-05-20T11:06:19Z</time>
      </trkpt>
      <trkpt lat="42.2254020" lon="-8.7167690">
        <ele>81.8</ele>
        <time>2021-05-20T11:06:20Z</time>
      </trkpt>
      <trkpt lat="42.2254020" lon="-8.7167690">
        <ele>81.8</ele>
        <time>2021-05-20T11:06:21Z</time>
      </trkpt>
      <trkpt lat="42.2254020" lon="-8.7167690">
        <ele>81.8</ele>
        <time>2021-05-20T11:06:22Z</time>
      </trkpt>
      <trkpt lat="42.2254020" lon="-8.7167690">
        <ele>81.8</ele>
        <time>2021-05-20T11:06:23Z</time>
      </trkpt>
      <trkpt lat="42.2254020" lon="-8.7167690">
        <ele>81.8</ele>
        <time>2021-05-20T11:06:25Z</time>
      </trkpt>
      <trkpt lat="42.2254020" lon="-8.7167690">
        <ele>81.8</ele>
        <time>2021-05-20T11:06:26Z</time>
      </trkpt>
      <trkpt lat="42.2254020" lon="-8.7167690">
        <ele>81.8</ele>
        <time>2021-05-20T11:06:27Z</time>
      </trkpt>
      <trkpt lat="42.2254020" lon="-8.7167690">
        <ele>81.8</ele>
        <time>2021-05-20T11:06:28Z</time>
      </trkpt>
      <trkpt lat="42.2254020" lon="-8.7167690">
        <ele>81.8</ele>
        <time>2021-05-20T11:06:29Z</time>
      </trkpt>
      <trkpt lat="42.2254020" lon="-8.7167690">
        <ele>81.8</ele>
        <time>2021-05-20T11:06:30Z</time>
      </trkpt>
      <trkpt lat="42.2254020" lon="-8.7167690">
        <ele>81.8</ele>
        <time>2021-05-20T11:06:31Z</time>
      </trkpt>
      <trkpt lat="42.2254020" lon="-8.7167690">
        <ele>81.8</ele>
        <time>2021-05-20T11:06:32Z</time>
      </trkpt>
      <trkpt lat="42.2254020" lon="-8.7167690">
        <ele>81.8</ele>
        <time>2021-05-20T11:06:33Z</time>
      </trkpt>
      <trkpt lat="42.2254020" lon="-8.7167690">
        <ele>81.8</ele>
        <time>2021-05-20T11:06:34Z</time>
      </trkpt>
      <trkpt lat="42.2254020" lon="-8.7167690">
        <ele>81.8</ele>
        <time>2021-05-20T11:06:35Z</time>
      </trkpt>
      <trkpt lat="42.2254020" lon="-8.7167690">
        <ele>81.8</ele>
        <time>2021-05-20T11:06:36Z</time>
      </trkpt>
      <trkpt lat="42.2254020" lon="-8.7167690">
        <ele>81.8</ele>
        <time>2021-05-20T11:06:37Z</time>
      </trkpt>
      <trkpt lat="42.2254020" lon="-8.7167690">
        <ele>81.8</ele>
        <time>2021-05-20T11:06:38Z</time>
      </trkpt>
      <trkpt lat="42.2254030" lon="-8.7167690">
        <ele>81.8</ele>
        <time>2021-05-20T11:06:39Z</time>
      </trkpt>
      <trkpt lat="42.2254030" lon="-8.7167690">
        <ele>81.8</ele>
        <time>2021-05-20T11:06:40Z</time>
      </trkpt>
      <trkpt lat="42.2254030" lon="-8.7167690">
        <ele>81.8</ele>
        <time>2021-05-20T11:06:41Z</time>
      </trkpt>
      <trkpt lat="42.2254030" lon="-8.7167690">
        <ele>81.8</ele>
        <time>2021-05-20T11:06:42Z</time>
      </trkpt>
      <trkpt lat="42.2254030" lon="-8.7167690">
        <ele>81.8</ele>
        <time>2021-05-20T11:06:43Z</time>
      </trkpt>
      <trkpt lat="42.2254030" lon="-8.7167690">
        <ele>81.8</ele>
        <time>2021-05-20T11:06:44Z</time>
      </trkpt>
      <trkpt lat="42.2254030" lon="-8.7167690">
        <ele>81.8</ele>
        <time>2021-05-20T11:06:45Z</time>
      </trkpt>
      <trkpt lat="42.2254030" lon="-8.7167690">
        <ele>81.8</ele>
        <time>2021-05-20T11:06:46Z</time>
      </trkpt>
      <trkpt lat="42.2254030" lon="-8.7167690">
        <ele>81.8</ele>
        <time>2021-05-20T11:06:47Z</time>
      </trkpt>
      <trkpt lat="42.2254030" lon="-8.7167690">
        <ele>81.8</ele>
        <time>2021-05-20T11:06:48Z</time>
      </trkpt>
      <trkpt lat="42.2254030" lon="-8.7167690">
        <ele>81.8</ele>
        <time>2021-05-20T11:06:49Z</time>
      </trkpt>
      <trkpt lat="42.2254030" lon="-8.7167690">
        <ele>81.8</ele>
        <time>2021-05-20T11:06:50Z</time>
      </trkpt>
      <trkpt lat="42.2254030" lon="-8.7167690">
        <ele>81.8</ele>
        <time>2021-05-20T11:06:51Z</time>
      </trkpt>
      <trkpt lat="42.2254030" lon="-8.7167690">
        <ele>81.8</ele>
        <time>2021-05-20T11:06:52Z</time>
      </trkpt>
      <trkpt lat="42.2254030" lon="-8.7167690">
        <ele>81.8</ele>
        <time>2021-05-20T11:06:53Z</time>
      </trkpt>
      <trkpt lat="42.2254030" lon="-8.7167690">
        <ele>81.8</ele>
        <time>2021-05-20T11:06:54Z</time>
      </trkpt>
      <trkpt lat="42.2254030" lon="-8.7167690">
        <ele>81.8</ele>
        <time>2021-05-20T11:06:55Z</time>
      </trkpt>
      <trkpt lat="42.2254030" lon="-8.7167690">
        <ele>81.8</ele>
        <time>2021-05-20T11:06:56Z</time>
      </trkpt>
      <trkpt lat="42.2254030" lon="-8.7167690">
        <ele>81.8</ele>
        <time>2021-05-20T11:06:57Z</time>
      </trkpt>
      <trkpt lat="42.2254030" lon="-8.7167690">
        <ele>81.8</ele>
        <time>2021-05-20T11:06:58Z</time>
      </trkpt>
      <trkpt lat="42.2254030" lon="-8.7167690">
        <ele>81.8</ele>
        <time>2021-05-20T11:06:59Z</time>
      </trkpt>
      <trkpt lat="42.2254030" lon="-8.7167690">
        <ele>81.8</ele>
        <time>2021-05-20T11:07:00Z</time>
      </trkpt>
      <trkpt lat="42.2254030" lon="-8.7167690">
        <ele>81.8</ele>
        <time>2021-05-20T11:07:01Z</time>
      </trkpt>
      <trkpt lat="42.2254030" lon="-8.7167690">
        <ele>81.8</ele>
        <time>2021-05-20T11:07:02Z</time>
      </trkpt>
      <trkpt lat="42.2254030" lon="-8.7167680">
        <ele>81.8</ele>
        <time>2021-05-20T11:07:03Z</time>
      </trkpt>
      <trkpt lat="42.2254030" lon="-8.7167680">
        <ele>81.8</ele>
        <time>2021-05-20T11:07:04Z</time>
      </trkpt>
      <trkpt lat="42.2254030" lon="-8.7167680">
        <ele>81.8</ele>
        <time>2021-05-20T11:07:05Z</time>
      </trkpt>
      <trkpt lat="42.2254030" lon="-8.7167680">
        <ele>81.8</ele>
        <time>2021-05-20T11:07:06Z</time>
      </trkpt>
      <trkpt lat="42.2254030" lon="-8.7167680">
        <ele>81.8</ele>
        <time>2021-05-20T11:07:07Z</time>
      </trkpt>
      <trkpt lat="42.2254030" lon="-8.7167680">
        <ele>81.8</ele>
        <time>2021-05-20T11:07:08Z</time>
      </trkpt>
      <trkpt lat="42.2254030" lon="-8.7167680">
        <ele>81.8</ele>
        <time>2021-05-20T11:07:09Z</time>
      </trkpt>
      <trkpt lat="42.2254030" lon="-8.7167680">
        <ele>81.8</ele>
        <time>2021-05-20T11:07:10Z</time>
      </trkpt>
      <trkpt lat="42.2254030" lon="-8.7167680">
        <ele>81.8</ele>
        <time>2021-05-20T11:07:11Z</time>
      </trkpt>
      <trkpt lat="42.2254030" lon="-8.7167680">
        <ele>81.8</ele>
        <time>2021-05-20T11:07:12Z</time>
      </trkpt>
      <trkpt lat="42.2254040" lon="-8.7167680">
        <ele>81.8</ele>
        <time>2021-05-20T11:07:13Z</time>
      </trkpt>
      <trkpt lat="42.2254040" lon="-8.7167680">
        <ele>81.8</ele>
        <time>2021-05-20T11:07:14Z</time>
      </trkpt>
      <trkpt lat="42.2254040" lon="-8.7167680">
        <ele>81.8</ele>
        <time>2021-05-20T11:07:15Z</time>
      </trkpt>
      <trkpt lat="42.2254040" lon="-8.7167680">
        <ele>81.8</ele>
        <time>2021-05-20T11:07:16Z</time>
      </trkpt>
      <trkpt lat="42.2254040" lon="-8.7167680">
        <ele>81.8</ele>
        <time>2021-05-20T11:07:17Z</time>
      </trkpt>
      <trkpt lat="42.2254040" lon="-8.7167680">
        <ele>81.8</ele>
        <time>2021-05-20T11:07:18Z</time>
      </trkpt>
      <trkpt lat="42.2254040" lon="-8.7167680">
        <ele>81.8</ele>
        <time>2021-05-20T11:07:19Z</time>
      </trkpt>
      <trkpt lat="42.2254040" lon="-8.7167680">
        <ele>81.8</ele>
        <time>2021-05-20T11:07:20Z</time>
      </trkpt>
      <trkpt lat="42.2254040" lon="-8.7167680">
        <ele>81.8</ele>
        <time>2021-05-20T11:07:21Z</time>
      </trkpt>
      <trkpt lat="42.2254040" lon="-8.7167680">
        <ele>81.8</ele>
        <time>2021-05-20T11:07:22Z</time>
      </trkpt>
      <trkpt lat="42.2254040" lon="-8.7167680">
        <ele>81.8</ele>
        <time>2021-05-20T11:07:23Z</time>
      </trkpt>
      <trkpt lat="42.2254040" lon="-8.7167680">
        <ele>81.8</ele>
        <time>2021-05-20T11:07:24Z</time>
      </trkpt>
      <trkpt lat="42.2254040" lon="-8.7167680">
        <ele>81.8</ele>
        <time>2021-05-20T11:07:25Z</time>
      </trkpt>
      <trkpt lat="42.2254040" lon="-8.7167680">
        <ele>81.8</ele>
        <time>2021-05-20T11:07:26Z</time>
      </trkpt>
      <trkpt lat="42.2254040" lon="-8.7167680">
        <ele>81.8</ele>
        <time>2021-05-20T11:07:27Z</time>
      </trkpt>
      <trkpt lat="42.2254040" lon="-8.7167680">
        <ele>81.8</ele>
        <time>2021-05-20T11:07:28Z</time>
      </trkpt>
      <trkpt lat="42.2254040" lon="-8.7167680">
        <ele>81.8</ele>
        <time>2021-05-20T11:07:29Z</time>
      </trkpt>
      <trkpt lat="42.2254040" lon="-8.7167680">
        <ele>81.8</ele>
        <time>2021-05-20T11:07:30Z</time>
      </trkpt>
      <trkpt lat="42.2254040" lon="-8.7167680">
        <ele>81.8</ele>
        <time>2021-05-20T11:07:31Z</time>
      </trkpt>
      <trkpt lat="42.2254040" lon="-8.7167680">
        <ele>81.8</ele>
        <time>2021-05-20T11:07:32Z</time>
      </trkpt>
      <trkpt lat="42.2254040" lon="-8.7167680">
        <ele>81.8</ele>
        <time>2021-05-20T11:07:33Z</time>
      </trkpt>
      <trkpt lat="42.2254040" lon="-8.7167680">
        <ele>81.8</ele>
        <time>2021-05-20T11:07:34Z</time>
      </trkpt>
      <trkpt lat="42.2254040" lon="-8.7167680">
        <ele>81.8</ele>
        <time>2021-05-20T11:07:35Z</time>
      </trkpt>
      <trkpt lat="42.2254040" lon="-8.7167680">
        <ele>81.8</ele>
        <time>2021-05-20T11:07:36Z</time>
      </trkpt>
      <trkpt lat="42.2254040" lon="-8.7167680">
        <ele>81.8</ele>
        <time>2021-05-20T11:07:37Z</time>
      </trkpt>
      <trkpt lat="42.2254040" lon="-8.7167680">
        <ele>81.8</ele>
        <time>2021-05-20T11:07:38Z</time>
      </trkpt>
      <trkpt lat="42.2254040" lon="-8.7167680">
        <ele>81.8</ele>
        <time>2021-05-20T11:07:39Z</time>
      </trkpt>
      <trkpt lat="42.2254040" lon="-8.7167680">
        <ele>81.8</ele>
        <time>2021-05-20T11:07:40Z</time>
      </trkpt>
      <trkpt lat="42.2254040" lon="-8.7167680">
        <ele>81.8</ele>
        <time>2021-05-20T11:07:41Z</time>
      </trkpt>
      <trkpt lat="42.2254040" lon="-8.7167680">
        <ele>81.8</ele>
        <time>2021-05-20T11:07:42Z</time>
      </trkpt>
      <trkpt lat="42.2254040" lon="-8.7167680">
        <ele>81.8</ele>
        <time>2021-05-20T11:07:43Z</time>
      </trkpt>
      <trkpt lat="42.2254040" lon="-8.7167680">
        <ele>81.8</ele>
        <time>2021-05-20T11:07:44Z</time>
      </trkpt>
      <trkpt lat="42.2254040" lon="-8.7167680">
        <ele>81.8</ele>
        <time>2021-05-20T11:07:45Z</time>
      </trkpt>
      <trkpt lat="42.2254040" lon="-8.7167680">
        <ele>81.8</ele>
        <time>2021-05-20T11:07:46Z</time>
      </trkpt>
      <trkpt lat="42.2254050" lon="-8.7167680">
        <ele>81.8</ele>
        <time>2021-05-20T11:07:47Z</time>
      </trkpt>
      <trkpt lat="42.2254050" lon="-8.7167680">
        <ele>81.8</ele>
        <time>2021-05-20T11:07:48Z</time>
      </trkpt>
      <trkpt lat="42.2254050" lon="-8.7167680">
        <ele>81.8</ele>
        <time>2021-05-20T11:07:49Z</time>
      </trkpt>
      <trkpt lat="42.2254050" lon="-8.7167680">
        <ele>81.8</ele>
        <time>2021-05-20T11:07:50Z</time>
      </trkpt>
      <trkpt lat="42.2254050" lon="-8.7167680">
        <ele>81.8</ele>
        <time>2021-05-20T11:07:51Z</time>
      </trkpt>
      <trkpt lat="42.2254050" lon="-8.7167680">
        <ele>81.8</ele>
        <time>2021-05-20T11:07:52Z</time>
      </trkpt>
      <trkpt lat="42.2254050" lon="-8.7167680">
        <ele>81.8</ele>
        <time>2021-05-20T11:07:53Z</time>
      </trkpt>
      <trkpt lat="42.2254050" lon="-8.7167680">
        <ele>81.8</ele>
        <time>2021-05-20T11:07:54Z</time>
      </trkpt>
      <trkpt lat="42.2254050" lon="-8.7167680">
        <ele>81.8</ele>
        <time>2021-05-20T11:07:55Z</time>
      </trkpt>
      <trkpt lat="42.2254050" lon="-8.7167680">
        <ele>81.8</ele>
        <time>2021-05-20T11:07:56Z</time>
      </trkpt>
      <trkpt lat="42.2254050" lon="-8.7167680">
        <ele>81.8</ele>
        <time>2021-05-20T11:07:57Z</time>
      </trkpt>
      <trkpt lat="42.2254050" lon="-8.7167680">
        <ele>81.8</ele>
        <time>2021-05-20T11:07:58Z</time>
      </trkpt>
      <trkpt lat="42.2254050" lon="-8.7167670">
        <ele>81.8</ele>
        <time>2021-05-20T11:07:59Z</time>
      </trkpt>
      <trkpt lat="42.2254050" lon="-8.7167670">
        <ele>81.8</ele>
        <time>2021-05-20T11:08:00Z</time>
      </trkpt>
      <trkpt lat="42.2254050" lon="-8.7167670">
        <ele>81.8</ele>
        <time>2021-05-20T11:08:01Z</time>
      </trkpt>
      <trkpt lat="42.2254050" lon="-8.7167670">
        <ele>81.8</ele>
        <time>2021-05-20T11:08:02Z</time>
      </trkpt>
      <trkpt lat="42.2254050" lon="-8.7167670">
        <ele>81.8</ele>
        <time>2021-05-20T11:08:03Z</time>
      </trkpt>
      <trkpt lat="42.2254050" lon="-8.7167670">
        <ele>81.8</ele>
        <time>2021-05-20T11:08:04Z</time>
      </trkpt>
      <trkpt lat="42.2254050" lon="-8.7167670">
        <ele>81.8</ele>
        <time>2021-05-20T11:08:05Z</time>
      </trkpt>
      <trkpt lat="42.2254050" lon="-8.7167670">
        <ele>81.8</ele>
        <time>2021-05-20T11:08:06Z</time>
      </trkpt>
      <trkpt lat="42.2254050" lon="-8.7167670">
        <ele>81.8</ele>
        <time>2021-05-20T11:08:07Z</time>
      </trkpt>
      <trkpt lat="42.2254050" lon="-8.7167670">
        <ele>81.8</ele>
        <time>2021-05-20T11:08:08Z</time>
      </trkpt>
      <trkpt lat="42.2254050" lon="-8.7167670">
        <ele>81.8</ele>
        <time>2021-05-20T11:08:09Z</time>
      </trkpt>
      <trkpt lat="42.2254050" lon="-8.7167670">
        <ele>81.8</ele>
        <time>2021-05-20T11:08:10Z</time>
      </trkpt>
      <trkpt lat="42.2254050" lon="-8.7167670">
        <ele>81.8</ele>
        <time>2021-05-20T11:08:11Z</time>
      </trkpt>
      <trkpt lat="42.2254050" lon="-8.7167670">
        <ele>81.8</ele>
        <time>2021-05-20T11:08:12Z</time>
      </trkpt>
      <trkpt lat="42.2254050" lon="-8.7167670">
        <ele>81.8</ele>
        <time>2021-05-20T11:08:13Z</time>
      </trkpt>
      <trkpt lat="42.2254050" lon="-8.7167670">
        <ele>81.8</ele>
        <time>2021-05-20T11:08:14Z</time>
      </trkpt>
      <trkpt lat="42.2254050" lon="-8.7167670">
        <ele>81.8</ele>
        <time>2021-05-20T11:08:15Z</time>
      </trkpt>
      <trkpt lat="42.2254050" lon="-8.7167670">
        <ele>81.8</ele>
        <time>2021-05-20T11:08:16Z</time>
      </trkpt>
      <trkpt lat="42.2254050" lon="-8.7167670">
        <ele>81.8</ele>
        <time>2021-05-20T11:08:17Z</time>
      </trkpt>
      <trkpt lat="42.2254050" lon="-8.7167670">
        <ele>81.8</ele>
        <time>2021-05-20T11:08:18Z</time>
      </trkpt>
      <trkpt lat="42.2254050" lon="-8.7167670">
        <ele>81.8</ele>
        <time>2021-05-20T11:08:19Z</time>
      </trkpt>
      <trkpt lat="42.2254050" lon="-8.7167670">
        <ele>81.8</ele>
        <time>2021-05-20T11:08:20Z</time>
      </trkpt>
      <trkpt lat="42.2254060" lon="-8.7167670">
        <ele>81.8</ele>
        <time>2021-05-20T11:08:21Z</time>
      </trkpt>
      <trkpt lat="42.2254060" lon="-8.7167670">
        <ele>81.8</ele>
        <time>2021-05-20T11:08:22Z</time>
      </trkpt>
      <trkpt lat="42.2254060" lon="-8.7167670">
        <ele>81.8</ele>
        <time>2021-05-20T11:08:23Z</time>
      </trkpt>
      <trkpt lat="42.2254060" lon="-8.7167670">
        <ele>81.8</ele>
        <time>2021-05-20T11:08:24Z</time>
      </trkpt>
      <trkpt lat="42.2254060" lon="-8.7167670">
        <ele>81.8</ele>
        <time>2021-05-20T11:08:25Z</time>
      </trkpt>
      <trkpt lat="42.2254060" lon="-8.7167670">
        <ele>81.8</ele>
        <time>2021-05-20T11:08:26Z</time>
      </trkpt>
      <trkpt lat="42.2254060" lon="-8.7167670">
        <ele>81.8</ele>
        <time>2021-05-20T11:08:27Z</time>
      </trkpt>
      <trkpt lat="42.2254060" lon="-8.7167670">
        <ele>81.8</ele>
        <time>2021-05-20T11:08:28Z</time>
      </trkpt>
      <trkpt lat="42.2254060" lon="-8.7167670">
        <ele>81.8</ele>
        <time>2021-05-20T11:08:29Z</time>
      </trkpt>
      <trkpt lat="42.2254060" lon="-8.7167670">
        <ele>81.8</ele>
        <time>2021-05-20T11:08:30Z</time>
      </trkpt>
      <trkpt lat="42.2254060" lon="-8.7167670">
        <ele>81.8</ele>
        <time>2021-05-20T11:08:31Z</time>
      </trkpt>
      <trkpt lat="42.2254060" lon="-8.7167670">
        <ele>81.8</ele>
        <time>2021-05-20T11:08:32Z</time>
      </trkpt>
      <trkpt lat="42.2254060" lon="-8.7167670">
        <ele>81.8</ele>
        <time>2021-05-20T11:08:33Z</time>
      </trkpt>
      <trkpt lat="42.2254060" lon="-8.7167670">
        <ele>81.8</ele>
        <time>2021-05-20T11:08:34Z</time>
      </trkpt>
      <trkpt lat="42.2254060" lon="-8.7167670">
        <ele>81.8</ele>
        <time>2021-05-20T11:08:36Z</time>
      </trkpt>
      <trkpt lat="42.2254060" lon="-8.7167670">
        <ele>81.8</ele>
        <time>2021-05-20T11:08:37Z</time>
      </trkpt>
      <trkpt lat="42.2254060" lon="-8.7167670">
        <ele>81.8</ele>
        <time>2021-05-20T11:08:39Z</time>
      </trkpt>
      <trkpt lat="42.2254060" lon="-8.7167670">
        <ele>81.8</ele>
        <time>2021-05-20T11:08:40Z</time>
      </trkpt>
      <trkpt lat="42.2254060" lon="-8.7167670">
        <ele>81.8</ele>
        <time>2021-05-20T11:08:41Z</time>
      </trkpt>
      <trkpt lat="42.2254060" lon="-8.7167670">
        <ele>81.8</ele>
        <time>2021-05-20T11:08:42Z</time>
      </trkpt>
      <trkpt lat="42.2254060" lon="-8.7167670">
        <ele>81.8</ele>
        <time>2021-05-20T11:08:43Z</time>
      </trkpt>
      <trkpt lat="42.2254060" lon="-8.7167670">
        <ele>81.8</ele>
        <time>2021-05-20T11:08:44Z</time>
      </trkpt>
      <trkpt lat="42.2254060" lon="-8.7167670">
        <ele>81.8</ele>
        <time>2021-05-20T11:08:45Z</time>
      </trkpt>
      <trkpt lat="42.2254060" lon="-8.7167670">
        <ele>81.8</ele>
        <time>2021-05-20T11:08:46Z</time>
      </trkpt>
      <trkpt lat="42.2254060" lon="-8.7167670">
        <ele>81.8</ele>
        <time>2021-05-20T11:08:47Z</time>
      </trkpt>
      <trkpt lat="42.2254060" lon="-8.7167670">
        <ele>81.8</ele>
        <time>2021-05-20T11:08:48Z</time>
      </trkpt>
      <trkpt lat="42.2254060" lon="-8.7167670">
        <ele>81.8</ele>
        <time>2021-05-20T11:08:49Z</time>
      </trkpt>
      <trkpt lat="42.2254060" lon="-8.7167670">
        <ele>81.8</ele>
        <time>2021-05-20T11:08:50Z</time>
      </trkpt>
      <trkpt lat="42.2254060" lon="-8.7167670">
        <ele>81.8</ele>
        <time>2021-05-20T11:08:51Z</time>
      </trkpt>
      <trkpt lat="42.2254060" lon="-8.7167670">
        <ele>81.8</ele>
        <time>2021-05-20T11:08:52Z</time>
      </trkpt>
      <trkpt lat="42.2254060" lon="-8.7167670">
        <ele>81.8</ele>
        <time>2021-05-20T11:08:53Z</time>
      </trkpt>
      <trkpt lat="42.2254060" lon="-8.7167670">
        <ele>81.8</ele>
        <time>2021-05-20T11:08:54Z</time>
      </trkpt>
      <trkpt lat="42.2254060" lon="-8.7167670">
        <ele>81.8</ele>
        <time>2021-05-20T11:08:55Z</time>
      </trkpt>
      <trkpt lat="42.2254060" lon="-8.7167670">
        <ele>81.8</ele>
        <time>2021-05-20T11:08:56Z</time>
      </trkpt>
      <trkpt lat="42.2254070" lon="-8.7167660">
        <ele>81.8</ele>
        <time>2021-05-20T11:08:57Z</time>
      </trkpt>
      <trkpt lat="42.2254070" lon="-8.7167660">
        <ele>81.8</ele>
        <time>2021-05-20T11:08:58Z</time>
      </trkpt>
      <trkpt lat="42.2254070" lon="-8.7167660">
        <ele>81.8</ele>
        <time>2021-05-20T11:08:59Z</time>
      </trkpt>
      <trkpt lat="42.2254070" lon="-8.7167660">
        <ele>81.8</ele>
        <time>2021-05-20T11:09:00Z</time>
      </trkpt>
      <trkpt lat="42.2254070" lon="-8.7167660">
        <ele>81.8</ele>
        <time>2021-05-20T11:09:01Z</time>
      </trkpt>
      <trkpt lat="42.2254070" lon="-8.7167660">
        <ele>81.8</ele>
        <time>2021-05-20T11:09:02Z</time>
      </trkpt>
      <trkpt lat="42.2254070" lon="-8.7167660">
        <ele>81.8</ele>
        <time>2021-05-20T11:09:03Z</time>
      </trkpt>
      <trkpt lat="42.2254070" lon="-8.7167660">
        <ele>81.8</ele>
        <time>2021-05-20T11:09:04Z</time>
      </trkpt>
      <trkpt lat="42.2254070" lon="-8.7167660">
        <ele>81.8</ele>
        <time>2021-05-20T11:09:05Z</time>
      </trkpt>
      <trkpt lat="42.2254070" lon="-8.7167660">
        <ele>81.8</ele>
        <time>2021-05-20T11:09:06Z</time>
      </trkpt>
      <trkpt lat="42.2254070" lon="-8.7167660">
        <ele>81.8</ele>
        <time>2021-05-20T11:09:07Z</time>
      </trkpt>
      <trkpt lat="42.2254070" lon="-8.7167660">
        <ele>81.8</ele>
        <time>2021-05-20T11:09:08Z</time>
      </trkpt>
      <trkpt lat="42.2254070" lon="-8.7167660">
        <ele>81.8</ele>
        <time>2021-05-20T11:09:09Z</time>
      </trkpt>
      <trkpt lat="42.2254070" lon="-8.7167660">
        <ele>81.8</ele>
        <time>2021-05-20T11:09:10Z</time>
      </trkpt>
      <trkpt lat="42.2254070" lon="-8.7167660">
        <ele>81.8</ele>
        <time>2021-05-20T11:09:11Z</time>
      </trkpt>
      <trkpt lat="42.2254070" lon="-8.7167660">
        <ele>81.8</ele>
        <time>2021-05-20T11:09:12Z</time>
      </trkpt>
      <trkpt lat="42.2254070" lon="-8.7167660">
        <ele>81.8</ele>
        <time>2021-05-20T11:09:13Z</time>
      </trkpt>
      <trkpt lat="42.2254070" lon="-8.7167660">
        <ele>81.8</ele>
        <time>2021-05-20T11:09:14Z</time>
      </trkpt>
      <trkpt lat="42.2254070" lon="-8.7167660">
        <ele>81.8</ele>
        <time>2021-05-20T11:09:15Z</time>
      </trkpt>
      <trkpt lat="42.2254070" lon="-8.7167660">
        <ele>81.8</ele>
        <time>2021-05-20T11:09:16Z</time>
      </trkpt>
      <trkpt lat="42.2254070" lon="-8.7167660">
        <ele>81.8</ele>
        <time>2021-05-20T11:09:17Z</time>
      </trkpt>
      <trkpt lat="42.2254070" lon="-8.7167660">
        <ele>81.8</ele>
        <time>2021-05-20T11:09:18Z</time>
      </trkpt>
      <trkpt lat="42.2254070" lon="-8.7167660">
        <ele>81.8</ele>
        <time>2021-05-20T11:09:19Z</time>
      </trkpt>
      <trkpt lat="42.2254070" lon="-8.7167660">
        <ele>81.8</ele>
        <time>2021-05-20T11:09:20Z</time>
      </trkpt>
      <trkpt lat="42.2254070" lon="-8.7167660">
        <ele>81.8</ele>
        <time>2021-05-20T11:09:21Z</time>
      </trkpt>
      <trkpt lat="42.2254070" lon="-8.7167660">
        <ele>81.8</ele>
        <time>2021-05-20T11:09:22Z</time>
      </trkpt>
      <trkpt lat="42.2254070" lon="-8.7167660">
        <ele>81.8</ele>
        <time>2021-05-20T11:09:23Z</time>
      </trkpt>
      <trkpt lat="42.2254070" lon="-8.7167660">
        <ele>81.8</ele>
        <time>2021-05-20T11:09:24Z</time>
      </trkpt>
      <trkpt lat="42.2254070" lon="-8.7167660">
        <ele>81.8</ele>
        <time>2021-05-20T11:09:25Z</time>
      </trkpt>
      <trkpt lat="42.2254070" lon="-8.7167660">
        <ele>81.8</ele>
        <time>2021-05-20T11:09:26Z</time>
      </trkpt>
      <trkpt lat="42.2254070" lon="-8.7167660">
        <ele>81.8</ele>
        <time>2021-05-20T11:09:27Z</time>
      </trkpt>
      <trkpt lat="42.2254070" lon="-8.7167660">
        <ele>81.8</ele>
        <time>2021-05-20T11:09:28Z</time>
      </trkpt>
      <trkpt lat="42.2254070" lon="-8.7167660">
        <ele>81.8</ele>
        <time>2021-05-20T11:09:29Z</time>
      </trkpt>
      <trkpt lat="42.2254070" lon="-8.7167660">
        <ele>81.8</ele>
        <time>2021-05-20T11:09:30Z</time>
      </trkpt>
      <trkpt lat="42.2254080" lon="-8.7167660">
        <ele>81.8</ele>
        <time>2021-05-20T11:09:31Z</time>
      </trkpt>
      <trkpt lat="42.2254080" lon="-8.7167660">
        <ele>81.8</ele>
        <time>2021-05-20T11:09:32Z</time>
      </trkpt>
      <trkpt lat="42.2254080" lon="-8.7167660">
        <ele>81.8</ele>
        <time>2021-05-20T11:09:33Z</time>
      </trkpt>
      <trkpt lat="42.2254080" lon="-8.7167660">
        <ele>81.8</ele>
        <time>2021-05-20T11:09:34Z</time>
      </trkpt>
      <trkpt lat="42.2254080" lon="-8.7167660">
        <ele>81.8</ele>
        <time>2021-05-20T11:09:35Z</time>
      </trkpt>
      <trkpt lat="42.2254080" lon="-8.7167660">
        <ele>81.8</ele>
        <time>2021-05-20T11:09:36Z</time>
      </trkpt>
      <trkpt lat="42.2254080" lon="-8.7167660">
        <ele>81.8</ele>
        <time>2021-05-20T11:09:37Z</time>
      </trkpt>
      <trkpt lat="42.2254080" lon="-8.7167660">
        <ele>81.8</ele>
        <time>2021-05-20T11:09:38Z</time>
      </trkpt>
      <trkpt lat="42.2254080" lon="-8.7167660">
        <ele>81.8</ele>
        <time>2021-05-20T11:09:39Z</time>
      </trkpt>
      <trkpt lat="42.2254080" lon="-8.7167660">
        <ele>81.8</ele>
        <time>2021-05-20T11:09:40Z</time>
      </trkpt>
      <trkpt lat="42.2254080" lon="-8.7167660">
        <ele>81.8</ele>
        <time>2021-05-20T11:09:41Z</time>
      </trkpt>
      <trkpt lat="42.2254080" lon="-8.7167660">
        <ele>81.8</ele>
        <time>2021-05-20T11:09:42Z</time>
      </trkpt>
      <trkpt lat="42.2254080" lon="-8.7167660">
        <ele>81.8</ele>
        <time>2021-05-20T11:09:43Z</time>
      </trkpt>
      <trkpt lat="42.2254080" lon="-8.7167660">
        <ele>81.8</ele>
        <time>2021-05-20T11:09:44Z</time>
      </trkpt>
      <trkpt lat="42.2254080" lon="-8.7167660">
        <ele>81.8</ele>
        <time>2021-05-20T11:09:45Z</time>
      </trkpt>
      <trkpt lat="42.2254080" lon="-8.7167660">
        <ele>81.8</ele>
        <time>2021-05-20T11:09:46Z</time>
      </trkpt>
      <trkpt lat="42.2254080" lon="-8.7167660">
        <ele>81.8</ele>
        <time>2021-05-20T11:09:47Z</time>
      </trkpt>
      <trkpt lat="42.2254080" lon="-8.7167660">
        <ele>81.8</ele>
        <time>2021-05-20T11:09:48Z</time>
      </trkpt>
      <trkpt lat="42.2254080" lon="-8.7167660">
        <ele>81.8</ele>
        <time>2021-05-20T11:09:49Z</time>
      </trkpt>
      <trkpt lat="42.2254080" lon="-8.7167660">
        <ele>81.8</ele>
        <time>2021-05-20T11:09:50Z</time>
      </trkpt>
      <trkpt lat="42.2254080" lon="-8.7167660">
        <ele>81.8</ele>
        <time>2021-05-20T11:09:51Z</time>
      </trkpt>
      <trkpt lat="42.2254080" lon="-8.7167660">
        <ele>81.8</ele>
        <time>2021-05-20T11:09:52Z</time>
      </trkpt>
      <trkpt lat="42.2254080" lon="-8.7167650">
        <ele>81.8</ele>
        <time>2021-05-20T11:09:53Z</time>
      </trkpt>
      <trkpt lat="42.2254080" lon="-8.7167650">
        <ele>81.8</ele>
        <time>2021-05-20T11:09:54Z</time>
      </trkpt>
      <trkpt lat="42.2254080" lon="-8.7167650">
        <ele>81.8</ele>
        <time>2021-05-20T11:09:55Z</time>
      </trkpt>
      <trkpt lat="42.2254080" lon="-8.7167650">
        <ele>81.8</ele>
        <time>2021-05-20T11:09:56Z</time>
      </trkpt>
      <trkpt lat="42.2254080" lon="-8.7167650">
        <ele>81.8</ele>
        <time>2021-05-20T11:09:57Z</time>
      </trkpt>
      <trkpt lat="42.2254080" lon="-8.7167650">
        <ele>81.8</ele>
        <time>2021-05-20T11:09:58Z</time>
      </trkpt>
      <trkpt lat="42.2254080" lon="-8.7167650">
        <ele>81.8</ele>
        <time>2021-05-20T11:09:59Z</time>
      </trkpt>
      <trkpt lat="42.2254080" lon="-8.7167650">
        <ele>81.8</ele>
        <time>2021-05-20T11:10:00Z</time>
      </trkpt>
      <trkpt lat="42.2254080" lon="-8.7167650">
        <ele>81.8</ele>
        <time>2021-05-20T11:10:01Z</time>
      </trkpt>
      <trkpt lat="42.2254080" lon="-8.7167650">
        <ele>81.8</ele>
        <time>2021-05-20T11:10:02Z</time>
      </trkpt>
      <trkpt lat="42.2254080" lon="-8.7167650">
        <ele>81.8</ele>
        <time>2021-05-20T11:10:03Z</time>
      </trkpt>
      <trkpt lat="42.2254080" lon="-8.7167650">
        <ele>81.8</ele>
        <time>2021-05-20T11:10:04Z</time>
      </trkpt>
      <trkpt lat="42.2254090" lon="-8.7167650">
        <ele>81.8</ele>
        <time>2021-05-20T11:10:05Z</time>
      </trkpt>
      <trkpt lat="42.2254090" lon="-8.7167650">
        <ele>81.8</ele>
        <time>2021-05-20T11:10:06Z</time>
      </trkpt>
      <trkpt lat="42.2254090" lon="-8.7167650">
        <ele>81.8</ele>
        <time>2021-05-20T11:10:07Z</time>
      </trkpt>
      <trkpt lat="42.2254090" lon="-8.7167650">
        <ele>81.8</ele>
        <time>2021-05-20T11:10:08Z</time>
      </trkpt>
      <trkpt lat="42.2254090" lon="-8.7167650">
        <ele>81.8</ele>
        <time>2021-05-20T11:10:09Z</time>
      </trkpt>
      <trkpt lat="42.2254090" lon="-8.7167650">
        <ele>81.8</ele>
        <time>2021-05-20T11:10:10Z</time>
      </trkpt>
      <trkpt lat="42.2254090" lon="-8.7167650">
        <ele>81.8</ele>
        <time>2021-05-20T11:10:11Z</time>
      </trkpt>
      <trkpt lat="42.2254090" lon="-8.7167650">
        <ele>81.8</ele>
        <time>2021-05-20T11:10:12Z</time>
      </trkpt>
      <trkpt lat="42.2254090" lon="-8.7167650">
        <ele>81.8</ele>
        <time>2021-05-20T11:10:13Z</time>
      </trkpt>
      <trkpt lat="42.2254090" lon="-8.7167650">
        <ele>81.8</ele>
        <time>2021-05-20T11:10:14Z</time>
      </trkpt>
      <trkpt lat="42.2254090" lon="-8.7167650">
        <ele>81.8</ele>
        <time>2021-05-20T11:10:15Z</time>
      </trkpt>
      <trkpt lat="42.2254090" lon="-8.7167650">
        <ele>81.8</ele>
        <time>2021-05-20T11:10:16Z</time>
      </trkpt>
      <trkpt lat="42.2254090" lon="-8.7167650">
        <ele>81.8</ele>
        <time>2021-05-20T11:10:17Z</time>
      </trkpt>
      <trkpt lat="42.2254090" lon="-8.7167650">
        <ele>81.8</ele>
        <time>2021-05-20T11:10:18Z</time>
      </trkpt>
      <trkpt lat="42.2254090" lon="-8.7167650">
        <ele>81.8</ele>
        <time>2021-05-20T11:10:19Z</time>
      </trkpt>
      <trkpt lat="42.2254090" lon="-8.7167650">
        <ele>81.8</ele>
        <time>2021-05-20T11:10:20Z</time>
      </trkpt>
      <trkpt lat="42.2254090" lon="-8.7167650">
        <ele>81.8</ele>
        <time>2021-05-20T11:10:21Z</time>
      </trkpt>
      <trkpt lat="42.2254070" lon="-8.7167660">
        <ele>81.8</ele>
        <time>2021-05-20T11:10:22Z</time>
      </trkpt>
      <trkpt lat="42.2254080" lon="-8.7167660">
        <ele>81.8</ele>
        <time>2021-05-20T11:10:23Z</time>
      </trkpt>
      <trkpt lat="42.2254080" lon="-8.7167660">
        <ele>81.8</ele>
        <time>2021-05-20T11:10:24Z</time>
      </trkpt>
      <trkpt lat="42.2254080" lon="-8.7167660">
        <ele>81.8</ele>
        <time>2021-05-20T11:10:25Z</time>
      </trkpt>
      <trkpt lat="42.2254080" lon="-8.7167660">
        <ele>81.8</ele>
        <time>2021-05-20T11:10:26Z</time>
      </trkpt>
      <trkpt lat="42.2254080" lon="-8.7167660">
        <ele>81.8</ele>
        <time>2021-05-20T11:10:27Z</time>
      </trkpt>
      <trkpt lat="42.2254080" lon="-8.7167660">
        <ele>81.8</ele>
        <time>2021-05-20T11:10:28Z</time>
      </trkpt>
      <trkpt lat="42.2254080" lon="-8.7167660">
        <ele>81.8</ele>
        <time>2021-05-20T11:10:29Z</time>
      </trkpt>
      <trkpt lat="42.2254080" lon="-8.7167660">
        <ele>81.8</ele>
        <time>2021-05-20T11:10:30Z</time>
      </trkpt>
      <trkpt lat="42.2254080" lon="-8.7167660">
        <ele>81.8</ele>
        <time>2021-05-20T11:10:31Z</time>
      </trkpt>
      <trkpt lat="42.2254040" lon="-8.7167570">
        <ele>81.8</ele>
        <time>2021-05-20T11:10:32Z</time>
      </trkpt>
      <trkpt lat="42.2254030" lon="-8.7167590">
        <ele>81.8</ele>
        <time>2021-05-20T11:10:33Z</time>
      </trkpt>
      <trkpt lat="42.2254020" lon="-8.7167590">
        <ele>81.8</ele>
        <time>2021-05-20T11:10:34Z</time>
      </trkpt>
      <trkpt lat="42.2254020" lon="-8.7167600">
        <ele>81.8</ele>
        <time>2021-05-20T11:10:35Z</time>
      </trkpt>
      <trkpt lat="42.2254030" lon="-8.7167560">
        <ele>81.8</ele>
        <time>2021-05-20T11:10:36Z</time>
      </trkpt>
      <trkpt lat="42.2254060" lon="-8.7167530">
        <ele>81.8</ele>
        <time>2021-05-20T11:10:37Z</time>
      </trkpt>
      <trkpt lat="42.2254080" lon="-8.7167520">
        <ele>81.8</ele>
        <time>2021-05-20T11:10:38Z</time>
      </trkpt>
      <trkpt lat="42.2254080" lon="-8.7167510">
        <ele>81.8</ele>
        <time>2021-05-20T11:10:39Z</time>
      </trkpt>
      <trkpt lat="42.2254100" lon="-8.7167520">
        <ele>81.8</ele>
        <time>2021-05-20T11:10:40Z</time>
      </trkpt>
      <trkpt lat="42.2254100" lon="-8.7167500">
        <ele>81.8</ele>
        <time>2021-05-20T11:10:41Z</time>
      </trkpt>
      <trkpt lat="42.2254110" lon="-8.7167500">
        <ele>81.8</ele>
        <time>2021-05-20T11:10:42Z</time>
      </trkpt>
      <trkpt lat="42.2254120" lon="-8.7167480">
        <ele>81.8</ele>
        <time>2021-05-20T11:10:43Z</time>
      </trkpt>
      <trkpt lat="42.2254130" lon="-8.7167460">
        <ele>81.8</ele>
        <time>2021-05-20T11:10:44Z</time>
      </trkpt>
      <trkpt lat="42.2254150" lon="-8.7167440">
        <ele>81.8</ele>
        <time>2021-05-20T11:10:45Z</time>
      </trkpt>
      <trkpt lat="42.2254170" lon="-8.7167440">
        <ele>81.8</ele>
        <time>2021-05-20T11:10:46Z</time>
      </trkpt>
      <trkpt lat="42.2254160" lon="-8.7167420">
        <ele>81.8</ele>
        <time>2021-05-20T11:10:47Z</time>
      </trkpt>
      <trkpt lat="42.2254160" lon="-8.7167400">
        <ele>81.8</ele>
        <time>2021-05-20T11:10:48Z</time>
      </trkpt>
      <trkpt lat="42.2254150" lon="-8.7167410">
        <ele>81.8</ele>
        <time>2021-05-20T11:10:49Z</time>
      </trkpt>
      <trkpt lat="42.2254160" lon="-8.7167410">
        <ele>81.8</ele>
        <time>2021-05-20T11:10:50Z</time>
      </trkpt>
      <trkpt lat="42.2254150" lon="-8.7167410">
        <ele>81.8</ele>
        <time>2021-05-20T11:10:51Z</time>
      </trkpt>
      <trkpt lat="42.2254160" lon="-8.7167420">
        <ele>81.8</ele>
        <time>2021-05-20T11:10:52Z</time>
      </trkpt>
      <trkpt lat="42.2254160" lon="-8.7167420">
        <ele>81.8</ele>
        <time>2021-05-20T11:10:53Z</time>
      </trkpt>
      <trkpt lat="42.2254130" lon="-8.7167420">
        <ele>81.8</ele>
        <time>2021-05-20T11:10:55Z</time>
      </trkpt>
      <trkpt lat="42.2254110" lon="-8.7167430">
        <ele>81.8</ele>
        <time>2021-05-20T11:10:56Z</time>
      </trkpt>
      <trkpt lat="42.2254090" lon="-8.7167440">
        <ele>81.8</ele>
        <time>2021-05-20T11:10:57Z</time>
      </trkpt>
      <trkpt lat="42.2254080" lon="-8.7167430">
        <ele>81.8</ele>
        <time>2021-05-20T11:10:58Z</time>
      </trkpt>
      <trkpt lat="42.2254060" lon="-8.7167430">
        <ele>81.8</ele>
        <time>2021-05-20T11:10:59Z</time>
      </trkpt>
      <trkpt lat="42.2254070" lon="-8.7167430">
        <ele>81.8</ele>
        <time>2021-05-20T11:11:00Z</time>
      </trkpt>
      <trkpt lat="42.2254080" lon="-8.7167430">
        <ele>81.8</ele>
        <time>2021-05-20T11:11:01Z</time>
      </trkpt>
      <trkpt lat="42.2254100" lon="-8.7167410">
        <ele>81.8</ele>
        <time>2021-05-20T11:11:02Z</time>
      </trkpt>
      <trkpt lat="42.2254100" lon="-8.7167410">
        <ele>81.8</ele>
        <time>2021-05-20T11:11:03Z</time>
      </trkpt>
      <trkpt lat="42.2254120" lon="-8.7167420">
        <ele>81.8</ele>
        <time>2021-05-20T11:11:04Z</time>
      </trkpt>
      <trkpt lat="42.2254120" lon="-8.7167420">
        <ele>81.8</ele>
        <time>2021-05-20T11:11:05Z</time>
      </trkpt>
      <trkpt lat="42.2254130" lon="-8.7167420">
        <ele>81.8</ele>
        <time>2021-05-20T11:11:06Z</time>
      </trkpt>
      <trkpt lat="42.2254130" lon="-8.7167410">
        <ele>81.8</ele>
        <time>2021-05-20T11:11:07Z</time>
      </trkpt>
      <trkpt lat="42.2254160" lon="-8.7167410">
        <ele>81.8</ele>
        <time>2021-05-20T11:11:08Z</time>
      </trkpt>
      <trkpt lat="42.2254160" lon="-8.7167410">
        <ele>81.8</ele>
        <time>2021-05-20T11:11:09Z</time>
      </trkpt>
      <trkpt lat="42.2254170" lon="-8.7167410">
        <ele>81.8</ele>
        <time>2021-05-20T11:11:10Z</time>
      </trkpt>
      <trkpt lat="42.2254200" lon="-8.7167410">
        <ele>81.8</ele>
        <time>2021-05-20T11:11:11Z</time>
      </trkpt>
      <trkpt lat="42.2254200" lon="-8.7167390">
        <ele>81.8</ele>
        <time>2021-05-20T11:11:12Z</time>
      </trkpt>
      <trkpt lat="42.2254190" lon="-8.7167390">
        <ele>81.8</ele>
        <time>2021-05-20T11:11:13Z</time>
      </trkpt>
      <trkpt lat="42.2254190" lon="-8.7167390">
        <ele>81.8</ele>
        <time>2021-05-20T11:11:14Z</time>
      </trkpt>
      <trkpt lat="42.2254150" lon="-8.7167390">
        <ele>81.8</ele>
        <time>2021-05-20T11:11:15Z</time>
      </trkpt>
      <trkpt lat="42.2254150" lon="-8.7167380">
        <ele>81.8</ele>
        <time>2021-05-20T11:11:16Z</time>
      </trkpt>
      <trkpt lat="42.2254150" lon="-8.7167370">
        <ele>81.8</ele>
        <time>2021-05-20T11:11:17Z</time>
      </trkpt>
      <trkpt lat="42.2254130" lon="-8.7167370">
        <ele>81.8</ele>
        <time>2021-05-20T11:11:18Z</time>
      </trkpt>
      <trkpt lat="42.2254130" lon="-8.7167360">
        <ele>81.8</ele>
        <time>2021-05-20T11:11:19Z</time>
      </trkpt>
      <trkpt lat="42.2254110" lon="-8.7167360">
        <ele>81.8</ele>
        <time>2021-05-20T11:11:20Z</time>
      </trkpt>
      <trkpt lat="42.2254120" lon="-8.7167360">
        <ele>81.8</ele>
        <time>2021-05-20T11:11:21Z</time>
      </trkpt>
      <trkpt lat="42.2254130" lon="-8.7167370">
        <ele>81.8</ele>
        <time>2021-05-20T11:11:22Z</time>
      </trkpt>
      <trkpt lat="42.2254140" lon="-8.7167360">
        <ele>81.8</ele>
        <time>2021-05-20T11:11:23Z</time>
      </trkpt>
      <trkpt lat="42.2254120" lon="-8.7167330">
        <ele>81.8</ele>
        <time>2021-05-20T11:11:24Z</time>
      </trkpt>
      <trkpt lat="42.2254080" lon="-8.7167390">
        <ele>81.8</ele>
        <time>2021-05-20T11:11:25Z</time>
      </trkpt>
      <trkpt lat="42.2254090" lon="-8.7167370">
        <ele>81.8</ele>
        <time>2021-05-20T11:11:26Z</time>
      </trkpt>
      <trkpt lat="42.2254090" lon="-8.7167400">
        <ele>81.8</ele>
        <time>2021-05-20T11:11:27Z</time>
      </trkpt>
      <trkpt lat="42.2254080" lon="-8.7167440">
        <ele>81.8</ele>
        <time>2021-05-20T11:11:28Z</time>
      </trkpt>
      <trkpt lat="42.2254090" lon="-8.7167490">
        <ele>81.8</ele>
        <time>2021-05-20T11:11:29Z</time>
      </trkpt>
      <trkpt lat="42.2254070" lon="-8.7167510">
        <ele>81.8</ele>
        <time>2021-05-20T11:11:30Z</time>
      </trkpt>
      <trkpt lat="42.2254060" lon="-8.7167520">
        <ele>81.8</ele>
        <time>2021-05-20T11:11:31Z</time>
      </trkpt>
      <trkpt lat="42.2254080" lon="-8.7167530">
        <ele>81.8</ele>
        <time>2021-05-20T11:11:32Z</time>
      </trkpt>
      <trkpt lat="42.2254070" lon="-8.7167520">
        <ele>81.8</ele>
        <time>2021-05-20T11:11:33Z</time>
      </trkpt>
      <trkpt lat="42.2254050" lon="-8.7167510">
        <ele>81.8</ele>
        <time>2021-05-20T11:11:34Z</time>
      </trkpt>
      <trkpt lat="42.2254050" lon="-8.7167500">
        <ele>81.8</ele>
        <time>2021-05-20T11:11:35Z</time>
      </trkpt>
      <trkpt lat="42.2254060" lon="-8.7167490">
        <ele>81.8</ele>
        <time>2021-05-20T11:11:36Z</time>
      </trkpt>
      <trkpt lat="42.2254070" lon="-8.7167490">
        <ele>81.8</ele>
        <time>2021-05-20T11:11:37Z</time>
      </trkpt>
      <trkpt lat="42.2254090" lon="-8.7167480">
        <ele>81.8</ele>
        <time>2021-05-20T11:11:38Z</time>
      </trkpt>
      <trkpt lat="42.2254100" lon="-8.7167490">
        <ele>81.8</ele>
        <time>2021-05-20T11:11:39Z</time>
      </trkpt>
      <trkpt lat="42.2254090" lon="-8.7167470">
        <ele>81.8</ele>
        <time>2021-05-20T11:11:40Z</time>
      </trkpt>
      <trkpt lat="42.2254080" lon="-8.7167470">
        <ele>81.8</ele>
        <time>2021-05-20T11:11:41Z</time>
      </trkpt>
      <trkpt lat="42.2254080" lon="-8.7167480">
        <ele>81.8</ele>
        <time>2021-05-20T11:11:42Z</time>
      </trkpt>
      <trkpt lat="42.2254080" lon="-8.7167480">
        <ele>81.8</ele>
        <time>2021-05-20T11:11:43Z</time>
      </trkpt>
      <trkpt lat="42.2254060" lon="-8.7167490">
        <ele>81.8</ele>
        <time>2021-05-20T11:11:44Z</time>
      </trkpt>
      <trkpt lat="42.2254070" lon="-8.7167480">
        <ele>81.8</ele>
        <time>2021-05-20T11:11:45Z</time>
      </trkpt>
      <trkpt lat="42.2254070" lon="-8.7167470">
        <ele>81.8</ele>
        <time>2021-05-20T11:11:46Z</time>
      </trkpt>
      <trkpt lat="42.2254050" lon="-8.7167480">
        <ele>81.8</ele>
        <time>2021-05-20T11:11:47Z</time>
      </trkpt>
      <trkpt lat="42.2254030" lon="-8.7167480">
        <ele>81.8</ele>
        <time>2021-05-20T11:11:48Z</time>
      </trkpt>
      <trkpt lat="42.2254010" lon="-8.7167480">
        <ele>81.8</ele>
        <time>2021-05-20T11:11:49Z</time>
      </trkpt>
      <trkpt lat="42.2253980" lon="-8.7167470">
        <ele>81.8</ele>
        <time>2021-05-20T11:11:50Z</time>
      </trkpt>
      <trkpt lat="42.2253970" lon="-8.7167460">
        <ele>81.8</ele>
        <time>2021-05-20T11:11:51Z</time>
      </trkpt>
      <trkpt lat="42.2253980" lon="-8.7167450">
        <ele>81.8</ele>
        <time>2021-05-20T11:11:52Z</time>
      </trkpt>
      <trkpt lat="42.2253960" lon="-8.7167450">
        <ele>81.8</ele>
        <time>2021-05-20T11:11:53Z</time>
      </trkpt>
      <trkpt lat="42.2253950" lon="-8.7167460">
        <ele>81.8</ele>
        <time>2021-05-20T11:11:54Z</time>
      </trkpt>
      <trkpt lat="42.2253930" lon="-8.7167460">
        <ele>81.8</ele>
        <time>2021-05-20T11:11:55Z</time>
      </trkpt>
      <trkpt lat="42.2253910" lon="-8.7167450">
        <ele>81.8</ele>
        <time>2021-05-20T11:11:56Z</time>
      </trkpt>
      <trkpt lat="42.2253890" lon="-8.7167440">
        <ele>81.8</ele>
        <time>2021-05-20T11:11:57Z</time>
      </trkpt>
      <trkpt lat="42.2253900" lon="-8.7167430">
        <ele>81.8</ele>
        <time>2021-05-20T11:11:58Z</time>
      </trkpt>
      <trkpt lat="42.2253880" lon="-8.7167420">
        <ele>81.8</ele>
        <time>2021-05-20T11:11:59Z</time>
      </trkpt>
      <trkpt lat="42.2253870" lon="-8.7167410">
        <ele>81.8</ele>
        <time>2021-05-20T11:12:00Z</time>
      </trkpt>
      <trkpt lat="42.2253850" lon="-8.7167410">
        <ele>81.8</ele>
        <time>2021-05-20T11:12:01Z</time>
      </trkpt>
      <trkpt lat="42.2253870" lon="-8.7167400">
        <ele>81.8</ele>
        <time>2021-05-20T11:12:02Z</time>
      </trkpt>
      <trkpt lat="42.2253870" lon="-8.7167380">
        <ele>81.8</ele>
        <time>2021-05-20T11:12:03Z</time>
      </trkpt>
      <trkpt lat="42.2253860" lon="-8.7167370">
        <ele>81.8</ele>
        <time>2021-05-20T11:12:04Z</time>
      </trkpt>
      <trkpt lat="42.2253850" lon="-8.7167350">
        <ele>81.8</ele>
        <time>2021-05-20T11:12:05Z</time>
      </trkpt>
      <trkpt lat="42.2253870" lon="-8.7167360">
        <ele>81.8</ele>
        <time>2021-05-20T11:12:06Z</time>
      </trkpt>
      <trkpt lat="42.2253870" lon="-8.7167360">
        <ele>81.8</ele>
        <time>2021-05-20T11:12:07Z</time>
      </trkpt>
      <trkpt lat="42.2253870" lon="-8.7167370">
        <ele>81.8</ele>
        <time>2021-05-20T11:12:08Z</time>
      </trkpt>
      <trkpt lat="42.2253870" lon="-8.7167380">
        <ele>81.8</ele>
        <time>2021-05-20T11:12:09Z</time>
      </trkpt>
      <trkpt lat="42.2253860" lon="-8.7167390">
        <ele>81.8</ele>
        <time>2021-05-20T11:12:10Z</time>
      </trkpt>
      <trkpt lat="42.2253840" lon="-8.7167400">
        <ele>81.8</ele>
        <time>2021-05-20T11:12:11Z</time>
      </trkpt>
      <trkpt lat="42.2253830" lon="-8.7167400">
        <ele>81.8</ele>
        <time>2021-05-20T11:12:12Z</time>
      </trkpt>
      <trkpt lat="42.2253820" lon="-8.7167410">
        <ele>81.8</ele>
        <time>2021-05-20T11:12:13Z</time>
      </trkpt>
      <trkpt lat="42.2253800" lon="-8.7167410">
        <ele>81.8</ele>
        <time>2021-05-20T11:12:14Z</time>
      </trkpt>
      <trkpt lat="42.2253800" lon="-8.7167410">
        <ele>81.8</ele>
        <time>2021-05-20T11:12:15Z</time>
      </trkpt>
      <trkpt lat="42.2253800" lon="-8.7167410">
        <ele>81.8</ele>
        <time>2021-05-20T11:12:16Z</time>
      </trkpt>
      <trkpt lat="42.2253800" lon="-8.7167450">
        <ele>81.8</ele>
        <time>2021-05-20T11:12:17Z</time>
      </trkpt>
      <trkpt lat="42.2253810" lon="-8.7167470">
        <ele>81.8</ele>
        <time>2021-05-20T11:12:18Z</time>
      </trkpt>
      <trkpt lat="42.2253780" lon="-8.7167450">
        <ele>81.8</ele>
        <time>2021-05-20T11:12:19Z</time>
      </trkpt>
      <trkpt lat="42.2253810" lon="-8.7167470">
        <ele>81.8</ele>
        <time>2021-05-20T11:12:20Z</time>
      </trkpt>
      <trkpt lat="42.2253820" lon="-8.7167490">
        <ele>81.8</ele>
        <time>2021-05-20T11:12:21Z</time>
      </trkpt>
      <trkpt lat="42.2253800" lon="-8.7167460">
        <ele>81.8</ele>
        <time>2021-05-20T11:12:22Z</time>
      </trkpt>
      <trkpt lat="42.2253810" lon="-8.7167460">
        <ele>81.8</ele>
        <time>2021-05-20T11:12:23Z</time>
      </trkpt>
      <trkpt lat="42.2253800" lon="-8.7167450">
        <ele>81.8</ele>
        <time>2021-05-20T11:12:24Z</time>
      </trkpt>
      <trkpt lat="42.2253780" lon="-8.7167440">
        <ele>81.8</ele>
        <time>2021-05-20T11:12:25Z</time>
      </trkpt>
      <trkpt lat="42.2253800" lon="-8.7167460">
        <ele>81.8</ele>
        <time>2021-05-20T11:12:26Z</time>
      </trkpt>
      <trkpt lat="42.2253800" lon="-8.7167450">
        <ele>81.8</ele>
        <time>2021-05-20T11:12:27Z</time>
      </trkpt>
      <trkpt lat="42.2253810" lon="-8.7167450">
        <ele>81.8</ele>
        <time>2021-05-20T11:12:28Z</time>
      </trkpt>
      <trkpt lat="42.2253790" lon="-8.7167460">
        <ele>81.8</ele>
        <time>2021-05-20T11:12:29Z</time>
      </trkpt>
      <trkpt lat="42.2253780" lon="-8.7167450">
        <ele>81.8</ele>
        <time>2021-05-20T11:12:30Z</time>
      </trkpt>
      <trkpt lat="42.2253780" lon="-8.7167480">
        <ele>81.8</ele>
        <time>2021-05-20T11:12:31Z</time>
      </trkpt>
      <trkpt lat="42.2253780" lon="-8.7167480">
        <ele>81.8</ele>
        <time>2021-05-20T11:12:32Z</time>
      </trkpt>
      <trkpt lat="42.2253740" lon="-8.7167490">
        <ele>81.8</ele>
        <time>2021-05-20T11:12:33Z</time>
      </trkpt>
      <trkpt lat="42.2253710" lon="-8.7167490">
        <ele>81.8</ele>
        <time>2021-05-20T11:12:34Z</time>
      </trkpt>
      <trkpt lat="42.2253720" lon="-8.7167490">
        <ele>81.8</ele>
        <time>2021-05-20T11:12:35Z</time>
      </trkpt>
      <trkpt lat="42.2253680" lon="-8.7167470">
        <ele>81.8</ele>
        <time>2021-05-20T11:12:36Z</time>
      </trkpt>
      <trkpt lat="42.2253610" lon="-8.7167490">
        <ele>81.8</ele>
        <time>2021-05-20T11:12:37Z</time>
      </trkpt>
      <trkpt lat="42.2253620" lon="-8.7167480">
        <ele>81.8</ele>
        <time>2021-05-20T11:12:38Z</time>
      </trkpt>
      <trkpt lat="42.2253670" lon="-8.7167490">
        <ele>81.8</ele>
        <time>2021-05-20T11:12:39Z</time>
      </trkpt>
      <trkpt lat="42.2253700" lon="-8.7167490">
        <ele>81.8</ele>
        <time>2021-05-20T11:12:40Z</time>
      </trkpt>
      <trkpt lat="42.2253700" lon="-8.7167480">
        <ele>81.8</ele>
        <time>2021-05-20T11:12:41Z</time>
      </trkpt>
      <trkpt lat="42.2253680" lon="-8.7167470">
        <ele>81.8</ele>
        <time>2021-05-20T11:12:42Z</time>
      </trkpt>
      <trkpt lat="42.2253650" lon="-8.7167470">
        <ele>81.8</ele>
        <time>2021-05-20T11:12:43Z</time>
      </trkpt>
      <trkpt lat="42.2253650" lon="-8.7167470">
        <ele>81.8</ele>
        <time>2021-05-20T11:12:44Z</time>
      </trkpt>
      <trkpt lat="42.2253600" lon="-8.7167460">
        <ele>81.8</ele>
        <time>2021-05-20T11:12:45Z</time>
      </trkpt>
      <trkpt lat="42.2253570" lon="-8.7167460">
        <ele>81.8</ele>
        <time>2021-05-20T11:12:46Z</time>
      </trkpt>
      <trkpt lat="42.2253540" lon="-8.7167450">
        <ele>81.8</ele>
        <time>2021-05-20T11:12:47Z</time>
      </trkpt>
      <trkpt lat="42.2253540" lon="-8.7167450">
        <ele>81.8</ele>
        <time>2021-05-20T11:12:48Z</time>
      </trkpt>
      <trkpt lat="42.2253520" lon="-8.7167450">
        <ele>81.8</ele>
        <time>2021-05-20T11:12:49Z</time>
      </trkpt>
      <trkpt lat="42.2253520" lon="-8.7167450">
        <ele>81.8</ele>
        <time>2021-05-20T11:12:50Z</time>
      </trkpt>
      <trkpt lat="42.2253510" lon="-8.7167430">
        <ele>81.8</ele>
        <time>2021-05-20T11:12:51Z</time>
      </trkpt>
      <trkpt lat="42.2253540" lon="-8.7167430">
        <ele>81.8</ele>
        <time>2021-05-20T11:12:52Z</time>
      </trkpt>
      <trkpt lat="42.2253530" lon="-8.7167450">
        <ele>81.8</ele>
        <time>2021-05-20T11:12:53Z</time>
      </trkpt>
      <trkpt lat="42.2253530" lon="-8.7167440">
        <ele>81.8</ele>
        <time>2021-05-20T11:12:54Z</time>
      </trkpt>
      <trkpt lat="42.2253510" lon="-8.7167470">
        <ele>81.8</ele>
        <time>2021-05-20T11:12:55Z</time>
      </trkpt>
      <trkpt lat="42.2253500" lon="-8.7167450">
        <ele>81.8</ele>
        <time>2021-05-20T11:12:56Z</time>
      </trkpt>
      <trkpt lat="42.2253540" lon="-8.7167450">
        <ele>81.8</ele>
        <time>2021-05-20T11:12:57Z</time>
      </trkpt>
      <trkpt lat="42.2253570" lon="-8.7167470">
        <ele>81.8</ele>
        <time>2021-05-20T11:12:58Z</time>
      </trkpt>
      <trkpt lat="42.2253570" lon="-8.7167490">
        <ele>81.8</ele>
        <time>2021-05-20T11:12:59Z</time>
      </trkpt>
      <trkpt lat="42.2253580" lon="-8.7167520">
        <ele>81.8</ele>
        <time>2021-05-20T11:13:00Z</time>
      </trkpt>
      <trkpt lat="42.2253560" lon="-8.7167530">
        <ele>81.8</ele>
        <time>2021-05-20T11:13:01Z</time>
      </trkpt>
      <trkpt lat="42.2253560" lon="-8.7167540">
        <ele>81.8</ele>
        <time>2021-05-20T11:13:02Z</time>
      </trkpt>
      <trkpt lat="42.2253560" lon="-8.7167560">
        <ele>81.8</ele>
        <time>2021-05-20T11:13:03Z</time>
      </trkpt>
      <trkpt lat="42.2253560" lon="-8.7167570">
        <ele>81.8</ele>
        <time>2021-05-20T11:13:04Z</time>
      </trkpt>
      <trkpt lat="42.2253590" lon="-8.7167600">
        <ele>81.8</ele>
        <time>2021-05-20T11:13:05Z</time>
      </trkpt>
      <trkpt lat="42.2253600" lon="-8.7167610">
        <ele>81.8</ele>
        <time>2021-05-20T11:13:06Z</time>
      </trkpt>
      <trkpt lat="42.2253600" lon="-8.7167610">
        <ele>81.8</ele>
        <time>2021-05-20T11:13:07Z</time>
      </trkpt>
      <trkpt lat="42.2253600" lon="-8.7167630">
        <ele>81.8</ele>
        <time>2021-05-20T11:13:08Z</time>
      </trkpt>
      <trkpt lat="42.2253630" lon="-8.7167640">
        <ele>81.8</ele>
        <time>2021-05-20T11:13:09Z</time>
      </trkpt>
      <trkpt lat="42.2253650" lon="-8.7167630">
        <ele>81.8</ele>
        <time>2021-05-20T11:13:10Z</time>
      </trkpt>
      <trkpt lat="42.2253670" lon="-8.7167640">
        <ele>81.8</ele>
        <time>2021-05-20T11:13:11Z</time>
      </trkpt>
      <trkpt lat="42.2253660" lon="-8.7167610">
        <ele>81.8</ele>
        <time>2021-05-20T11:13:12Z</time>
      </trkpt>
      <trkpt lat="42.2253670" lon="-8.7167600">
        <ele>81.8</ele>
        <time>2021-05-20T11:13:13Z</time>
      </trkpt>
      <trkpt lat="42.2253720" lon="-8.7167600">
        <ele>81.8</ele>
        <time>2021-05-20T11:13:14Z</time>
      </trkpt>
      <trkpt lat="42.2253710" lon="-8.7167600">
        <ele>81.8</ele>
        <time>2021-05-20T11:13:15Z</time>
      </trkpt>
      <trkpt lat="42.2253730" lon="-8.7167600">
        <ele>81.8</ele>
        <time>2021-05-20T11:13:16Z</time>
      </trkpt>
      <trkpt lat="42.2253740" lon="-8.7167580">
        <ele>81.8</ele>
        <time>2021-05-20T11:13:17Z</time>
      </trkpt>
      <trkpt lat="42.2253740" lon="-8.7167570">
        <ele>81.8</ele>
        <time>2021-05-20T11:13:18Z</time>
      </trkpt>
      <trkpt lat="42.2253730" lon="-8.7167530">
        <ele>81.8</ele>
        <time>2021-05-20T11:13:19Z</time>
      </trkpt>
      <trkpt lat="42.2253750" lon="-8.7167520">
        <ele>81.8</ele>
        <time>2021-05-20T11:13:20Z</time>
      </trkpt>
      <trkpt lat="42.2253760" lon="-8.7167510">
        <ele>81.8</ele>
        <time>2021-05-20T11:13:21Z</time>
      </trkpt>
      <trkpt lat="42.2253760" lon="-8.7167510">
        <ele>81.8</ele>
        <time>2021-05-20T11:13:22Z</time>
      </trkpt>
      <trkpt lat="42.2253760" lon="-8.7167510">
        <ele>81.8</ele>
        <time>2021-05-20T11:13:23Z</time>
      </trkpt>
      <trkpt lat="42.2253760" lon="-8.7167510">
        <ele>81.8</ele>
        <time>2021-05-20T11:13:24Z</time>
      </trkpt>
      <trkpt lat="42.2253810" lon="-8.7167500">
        <ele>81.8</ele>
        <time>2021-05-20T11:13:25Z</time>
      </trkpt>
      <trkpt lat="42.2253810" lon="-8.7167510">
        <ele>81.8</ele>
        <time>2021-05-20T11:13:26Z</time>
      </trkpt>
      <trkpt lat="42.2253820" lon="-8.7167500">
        <ele>81.8</ele>
        <time>2021-05-20T11:13:27Z</time>
      </trkpt>
      <trkpt lat="42.2253830" lon="-8.7167500">
        <ele>81.8</ele>
        <time>2021-05-20T11:13:28Z</time>
      </trkpt>
      <trkpt lat="42.2253850" lon="-8.7167520">
        <ele>81.8</ele>
        <time>2021-05-20T11:13:29Z</time>
      </trkpt>
      <trkpt lat="42.2253860" lon="-8.7167510">
        <ele>81.8</ele>
        <time>2021-05-20T11:13:30Z</time>
      </trkpt>
      <trkpt lat="42.2253870" lon="-8.7167510">
        <ele>81.8</ele>
        <time>2021-05-20T11:13:31Z</time>
      </trkpt>
      <trkpt lat="42.2253910" lon="-8.7167520">
        <ele>81.8</ele>
        <time>2021-05-20T11:13:32Z</time>
      </trkpt>
      <trkpt lat="42.2253930" lon="-8.7167500">
        <ele>81.8</ele>
        <time>2021-05-20T11:13:34Z</time>
      </trkpt>
      <trkpt lat="42.2253950" lon="-8.7167520">
        <ele>81.8</ele>
        <time>2021-05-20T11:13:35Z</time>
      </trkpt>
      <trkpt lat="42.2253950" lon="-8.7167520">
        <ele>81.8</ele>
        <time>2021-05-20T11:13:37Z</time>
      </trkpt>
      <trkpt lat="42.2253940" lon="-8.7167500">
        <ele>81.8</ele>
        <time>2021-05-20T11:13:38Z</time>
      </trkpt>
      <trkpt lat="42.2253930" lon="-8.7167500">
        <ele>81.8</ele>
        <time>2021-05-20T11:13:39Z</time>
      </trkpt>
      <trkpt lat="42.2253910" lon="-8.7167510">
        <ele>81.8</ele>
        <time>2021-05-20T11:13:40Z</time>
      </trkpt>
      <trkpt lat="42.2253920" lon="-8.7167510">
        <ele>81.8</ele>
        <time>2021-05-20T11:13:41Z</time>
      </trkpt>
      <trkpt lat="42.2253910" lon="-8.7167500">
        <ele>81.8</ele>
        <time>2021-05-20T11:13:42Z</time>
      </trkpt>
      <trkpt lat="42.2253900" lon="-8.7167510">
        <ele>81.8</ele>
        <time>2021-05-20T11:13:43Z</time>
      </trkpt>
      <trkpt lat="42.2253900" lon="-8.7167520">
        <ele>81.8</ele>
        <time>2021-05-20T11:13:44Z</time>
      </trkpt>
      <trkpt lat="42.2253880" lon="-8.7167530">
        <ele>81.8</ele>
        <time>2021-05-20T11:13:45Z</time>
      </trkpt>
      <trkpt lat="42.2253880" lon="-8.7167530">
        <ele>81.8</ele>
        <time>2021-05-20T11:13:46Z</time>
      </trkpt>
      <trkpt lat="42.2253870" lon="-8.7167520">
        <ele>81.8</ele>
        <time>2021-05-20T11:13:47Z</time>
      </trkpt>
      <trkpt lat="42.2253870" lon="-8.7167530">
        <ele>81.8</ele>
        <time>2021-05-20T11:13:48Z</time>
      </trkpt>
      <trkpt lat="42.2253860" lon="-8.7167510">
        <ele>81.8</ele>
        <time>2021-05-20T11:13:49Z</time>
      </trkpt>
      <trkpt lat="42.2253860" lon="-8.7167510">
        <ele>81.8</ele>
        <time>2021-05-20T11:13:50Z</time>
      </trkpt>
      <trkpt lat="42.2253830" lon="-8.7167510">
        <ele>81.8</ele>
        <time>2021-05-20T11:13:51Z</time>
      </trkpt>
      <trkpt lat="42.2253820" lon="-8.7167520">
        <ele>81.8</ele>
        <time>2021-05-20T11:13:52Z</time>
      </trkpt>
      <trkpt lat="42.2253820" lon="-8.7167540">
        <ele>81.8</ele>
        <time>2021-05-20T11:13:53Z</time>
      </trkpt>
      <trkpt lat="42.2253810" lon="-8.7167560">
        <ele>81.8</ele>
        <time>2021-05-20T11:13:54Z</time>
      </trkpt>
      <trkpt lat="42.2253800" lon="-8.7167570">
        <ele>81.8</ele>
        <time>2021-05-20T11:13:55Z</time>
      </trkpt>
      <trkpt lat="42.2253820" lon="-8.7167560">
        <ele>81.8</ele>
        <time>2021-05-20T11:13:56Z</time>
      </trkpt>
      <trkpt lat="42.2253820" lon="-8.7167570">
        <ele>81.8</ele>
        <time>2021-05-20T11:13:57Z</time>
      </trkpt>
      <trkpt lat="42.2253820" lon="-8.7167570">
        <ele>81.8</ele>
        <time>2021-05-20T11:13:58Z</time>
      </trkpt>
      <trkpt lat="42.2253820" lon="-8.7167580">
        <ele>81.8</ele>
        <time>2021-05-20T11:13:59Z</time>
      </trkpt>
      <trkpt lat="42.2253820" lon="-8.7167580">
        <ele>81.8</ele>
        <time>2021-05-20T11:14:00Z</time>
      </trkpt>
      <trkpt lat="42.2253820" lon="-8.7167570">
        <ele>81.8</ele>
        <time>2021-05-20T11:14:01Z</time>
      </trkpt>
      <trkpt lat="42.2253820" lon="-8.7167570">
        <ele>81.8</ele>
        <time>2021-05-20T11:14:02Z</time>
      </trkpt>
      <trkpt lat="42.2253800" lon="-8.7167570">
        <ele>81.8</ele>
        <time>2021-05-20T11:14:03Z</time>
      </trkpt>
      <trkpt lat="42.2253770" lon="-8.7167580">
        <ele>81.8</ele>
        <time>2021-05-20T11:14:04Z</time>
      </trkpt>
      <trkpt lat="42.2253740" lon="-8.7167590">
        <ele>81.8</ele>
        <time>2021-05-20T11:14:05Z</time>
      </trkpt>
      <trkpt lat="42.2253740" lon="-8.7167590">
        <ele>81.8</ele>
        <time>2021-05-20T11:14:06Z</time>
      </trkpt>
      <trkpt lat="42.2253750" lon="-8.7167580">
        <ele>81.8</ele>
        <time>2021-05-20T11:14:07Z</time>
      </trkpt>
      <trkpt lat="42.2253750" lon="-8.7167580">
        <ele>81.8</ele>
        <time>2021-05-20T11:14:08Z</time>
      </trkpt>
      <trkpt lat="42.2253760" lon="-8.7167600">
        <ele>81.8</ele>
        <time>2021-05-20T11:14:09Z</time>
      </trkpt>
      <trkpt lat="42.2253760" lon="-8.7167620">
        <ele>81.8</ele>
        <time>2021-05-20T11:14:10Z</time>
      </trkpt>
      <trkpt lat="42.2253770" lon="-8.7167620">
        <ele>81.8</ele>
        <time>2021-05-20T11:14:11Z</time>
      </trkpt>
      <trkpt lat="42.2253790" lon="-8.7167620">
        <ele>81.8</ele>
        <time>2021-05-20T11:14:12Z</time>
      </trkpt>
      <trkpt lat="42.2253800" lon="-8.7167640">
        <ele>81.8</ele>
        <time>2021-05-20T11:14:13Z</time>
      </trkpt>
      <trkpt lat="42.2253800" lon="-8.7167640">
        <ele>81.8</ele>
        <time>2021-05-20T11:14:14Z</time>
      </trkpt>
      <trkpt lat="42.2253840" lon="-8.7167630">
        <ele>81.8</ele>
        <time>2021-05-20T11:14:15Z</time>
      </trkpt>
      <trkpt lat="42.2253890" lon="-8.7167590">
        <ele>81.8</ele>
        <time>2021-05-20T11:14:16Z</time>
      </trkpt>
      <trkpt lat="42.2253880" lon="-8.7167610">
        <ele>81.8</ele>
        <time>2021-05-20T11:14:17Z</time>
      </trkpt>
      <trkpt lat="42.2253910" lon="-8.7167570">
        <ele>81.8</ele>
        <time>2021-05-20T11:14:18Z</time>
      </trkpt>
      <trkpt lat="42.2253940" lon="-8.7167560">
        <ele>81.8</ele>
        <time>2021-05-20T11:14:19Z</time>
      </trkpt>
      <trkpt lat="42.2253960" lon="-8.7167570">
        <ele>81.8</ele>
        <time>2021-05-20T11:14:20Z</time>
      </trkpt>
      <trkpt lat="42.2253990" lon="-8.7167570">
        <ele>81.8</ele>
        <time>2021-05-20T11:14:21Z</time>
      </trkpt>
      <trkpt lat="42.2254010" lon="-8.7167560">
        <ele>81.8</ele>
        <time>2021-05-20T11:14:22Z</time>
      </trkpt>
      <trkpt lat="42.2254010" lon="-8.7167560">
        <ele>81.8</ele>
        <time>2021-05-20T11:14:23Z</time>
      </trkpt>
      <trkpt lat="42.2254010" lon="-8.7167560">
        <ele>81.8</ele>
        <time>2021-05-20T11:14:24Z</time>
      </trkpt>
      <trkpt lat="42.2254060" lon="-8.7167550">
        <ele>81.8</ele>
        <time>2021-05-20T11:14:25Z</time>
      </trkpt>
      <trkpt lat="42.2254090" lon="-8.7167550">
        <ele>81.8</ele>
        <time>2021-05-20T11:14:26Z</time>
      </trkpt>
      <trkpt lat="42.2254120" lon="-8.7167540">
        <ele>81.8</ele>
        <time>2021-05-20T11:14:27Z</time>
      </trkpt>
      <trkpt lat="42.2254130" lon="-8.7167540">
        <ele>81.8</ele>
        <time>2021-05-20T11:14:28Z</time>
      </trkpt>
      <trkpt lat="42.2254140" lon="-8.7167560">
        <ele>81.8</ele>
        <time>2021-05-20T11:14:29Z</time>
      </trkpt>
      <trkpt lat="42.2254130" lon="-8.7167580">
        <ele>81.8</ele>
        <time>2021-05-20T11:14:30Z</time>
      </trkpt>
      <trkpt lat="42.2254090" lon="-8.7167600">
        <ele>81.8</ele>
        <time>2021-05-20T11:14:31Z</time>
      </trkpt>
      <trkpt lat="42.2254090" lon="-8.7167610">
        <ele>81.8</ele>
        <time>2021-05-20T11:14:32Z</time>
      </trkpt>
      <trkpt lat="42.2254060" lon="-8.7167650">
        <ele>81.8</ele>
        <time>2021-05-20T11:14:33Z</time>
      </trkpt>
      <trkpt lat="42.2254090" lon="-8.7167640">
        <ele>81.8</ele>
        <time>2021-05-20T11:14:34Z</time>
      </trkpt>
      <trkpt lat="42.2254060" lon="-8.7167670">
        <ele>81.8</ele>
        <time>2021-05-20T11:14:35Z</time>
      </trkpt>
      <trkpt lat="42.2254050" lon="-8.7167640">
        <ele>81.8</ele>
        <time>2021-05-20T11:14:36Z</time>
      </trkpt>
      <trkpt lat="42.2254020" lon="-8.7167680">
        <ele>81.8</ele>
        <time>2021-05-20T11:14:37Z</time>
      </trkpt>
      <trkpt lat="42.2254010" lon="-8.7167640">
        <ele>81.8</ele>
        <time>2021-05-20T11:14:38Z</time>
      </trkpt>
      <trkpt lat="42.2253950" lon="-8.7167700">
        <ele>81.8</ele>
        <time>2021-05-20T11:14:39Z</time>
      </trkpt>
      <trkpt lat="42.2253920" lon="-8.7167670">
        <ele>81.8</ele>
        <time>2021-05-20T11:14:40Z</time>
      </trkpt>
      <trkpt lat="42.2253910" lon="-8.7167670">
        <ele>81.8</ele>
        <time>2021-05-20T11:14:41Z</time>
      </trkpt>
      <trkpt lat="42.2253930" lon="-8.7167690">
        <ele>81.8</ele>
        <time>2021-05-20T11:14:42Z</time>
      </trkpt>
      <trkpt lat="42.2253960" lon="-8.7167660">
        <ele>81.8</ele>
        <time>2021-05-20T11:14:43Z</time>
      </trkpt>
      <trkpt lat="42.2253980" lon="-8.7167650">
        <ele>81.8</ele>
        <time>2021-05-20T11:14:44Z</time>
      </trkpt>
      <trkpt lat="42.2254010" lon="-8.7167640">
        <ele>81.8</ele>
        <time>2021-05-20T11:14:45Z</time>
      </trkpt>
      <trkpt lat="42.2254020" lon="-8.7167620">
        <ele>81.8</ele>
        <time>2021-05-20T11:14:46Z</time>
      </trkpt>
      <trkpt lat="42.2254040" lon="-8.7167640">
        <ele>81.8</ele>
        <time>2021-05-20T11:14:47Z</time>
      </trkpt>
      <trkpt lat="42.2254060" lon="-8.7167630">
        <ele>81.8</ele>
        <time>2021-05-20T11:14:48Z</time>
      </trkpt>
      <trkpt lat="42.2254060" lon="-8.7167630">
        <ele>81.8</ele>
        <time>2021-05-20T11:14:49Z</time>
      </trkpt>
      <trkpt lat="42.2254090" lon="-8.7167610">
        <ele>81.8</ele>
        <time>2021-05-20T11:14:50Z</time>
      </trkpt>
      <trkpt lat="42.2254090" lon="-8.7167650">
        <ele>81.8</ele>
        <time>2021-05-20T11:14:51Z</time>
      </trkpt>
      <trkpt lat="42.2254090" lon="-8.7167650">
        <ele>81.8</ele>
        <time>2021-05-20T11:14:52Z</time>
      </trkpt>
      <trkpt lat="42.2254070" lon="-8.7167660">
        <ele>81.8</ele>
        <time>2021-05-20T11:14:53Z</time>
      </trkpt>
      <trkpt lat="42.2254040" lon="-8.7167670">
        <ele>81.8</ele>
        <time>2021-05-20T11:14:54Z</time>
      </trkpt>
      <trkpt lat="42.2254060" lon="-8.7167690">
        <ele>81.8</ele>
        <time>2021-05-20T11:14:55Z</time>
      </trkpt>
      <trkpt lat="42.2254050" lon="-8.7167670">
        <ele>81.8</ele>
        <time>2021-05-20T11:14:56Z</time>
      </trkpt>
      <trkpt lat="42.2254030" lon="-8.7167660">
        <ele>81.8</ele>
        <time>2021-05-20T11:14:57Z</time>
      </trkpt>
      <trkpt lat="42.2254030" lon="-8.7167660">
        <ele>81.8</ele>
        <time>2021-05-20T11:14:58Z</time>
      </trkpt>
      <trkpt lat="42.2254010" lon="-8.7167670">
        <ele>81.8</ele>
        <time>2021-05-20T11:14:59Z</time>
      </trkpt>
      <trkpt lat="42.2254000" lon="-8.7167660">
        <ele>81.8</ele>
        <time>2021-05-20T11:15:00Z</time>
      </trkpt>
      <trkpt lat="42.2253950" lon="-8.7167630">
        <ele>81.8</ele>
        <time>2021-05-20T11:15:01Z</time>
      </trkpt>
      <trkpt lat="42.2253920" lon="-8.7167640">
        <ele>81.8</ele>
        <time>2021-05-20T11:15:02Z</time>
      </trkpt>
      <trkpt lat="42.2253890" lon="-8.7167640">
        <ele>81.8</ele>
        <time>2021-05-20T11:15:03Z</time>
      </trkpt>
      <trkpt lat="42.2253890" lon="-8.7167630">
        <ele>81.8</ele>
        <time>2021-05-20T11:15:04Z</time>
      </trkpt>
      <trkpt lat="42.2253910" lon="-8.7167610">
        <ele>81.8</ele>
        <time>2021-05-20T11:15:05Z</time>
      </trkpt>
      <trkpt lat="42.2253890" lon="-8.7167600">
        <ele>81.8</ele>
        <time>2021-05-20T11:15:06Z</time>
      </trkpt>
      <trkpt lat="42.2253890" lon="-8.7167590">
        <ele>81.8</ele>
        <time>2021-05-20T11:15:07Z</time>
      </trkpt>
      <trkpt lat="42.2253900" lon="-8.7167610">
        <ele>81.8</ele>
        <time>2021-05-20T11:15:08Z</time>
      </trkpt>
      <trkpt lat="42.2253890" lon="-8.7167600">
        <ele>81.8</ele>
        <time>2021-05-20T11:15:09Z</time>
      </trkpt>
      <trkpt lat="42.2253890" lon="-8.7167580">
        <ele>81.8</ele>
        <time>2021-05-20T11:15:10Z</time>
      </trkpt>
      <trkpt lat="42.2253870" lon="-8.7167560">
        <ele>81.8</ele>
        <time>2021-05-20T11:15:11Z</time>
      </trkpt>
      <trkpt lat="42.2253860" lon="-8.7167550">
        <ele>81.8</ele>
        <time>2021-05-20T11:15:12Z</time>
      </trkpt>
      <trkpt lat="42.2253860" lon="-8.7167550">
        <ele>81.8</ele>
        <time>2021-05-20T11:15:13Z</time>
      </trkpt>
      <trkpt lat="42.2253870" lon="-8.7167530">
        <ele>81.8</ele>
        <time>2021-05-20T11:15:14Z</time>
      </trkpt>
      <trkpt lat="42.2253850" lon="-8.7167530">
        <ele>81.8</ele>
        <time>2021-05-20T11:15:15Z</time>
      </trkpt>
      <trkpt lat="42.2253850" lon="-8.7167520">
        <ele>81.8</ele>
        <time>2021-05-20T11:15:16Z</time>
      </trkpt>
      <trkpt lat="42.2253860" lon="-8.7167500">
        <ele>81.8</ele>
        <time>2021-05-20T11:15:17Z</time>
      </trkpt>
      <trkpt lat="42.2253860" lon="-8.7167500">
        <ele>81.8</ele>
        <time>2021-05-20T11:15:18Z</time>
      </trkpt>
      <trkpt lat="42.2253910" lon="-8.7167500">
        <ele>81.8</ele>
        <time>2021-05-20T11:15:19Z</time>
      </trkpt>
      <trkpt lat="42.2253870" lon="-8.7167520">
        <ele>81.8</ele>
        <time>2021-05-20T11:15:20Z</time>
      </trkpt>
      <trkpt lat="42.2253910" lon="-8.7167520">
        <ele>81.8</ele>
        <time>2021-05-20T11:15:21Z</time>
      </trkpt>
      <trkpt lat="42.2253910" lon="-8.7167520">
        <ele>81.8</ele>
        <time>2021-05-20T11:15:22Z</time>
      </trkpt>
      <trkpt lat="42.2253930" lon="-8.7167480">
        <ele>81.8</ele>
        <time>2021-05-20T11:15:23Z</time>
      </trkpt>
      <trkpt lat="42.2253930" lon="-8.7167480">
        <ele>81.8</ele>
        <time>2021-05-20T11:15:24Z</time>
      </trkpt>
      <trkpt lat="42.2253930" lon="-8.7167480">
        <ele>81.8</ele>
        <time>2021-05-20T11:15:25Z</time>
      </trkpt>
      <trkpt lat="42.2253930" lon="-8.7167480">
        <ele>81.8</ele>
        <time>2021-05-20T11:15:26Z</time>
      </trkpt>
      <trkpt lat="42.2253900" lon="-8.7167470">
        <ele>81.8</ele>
        <time>2021-05-20T11:15:27Z</time>
      </trkpt>
      <trkpt lat="42.2253850" lon="-8.7167460">
        <ele>81.8</ele>
        <time>2021-05-20T11:15:28Z</time>
      </trkpt>
      <trkpt lat="42.2253850" lon="-8.7167460">
        <ele>81.8</ele>
        <time>2021-05-20T11:15:29Z</time>
      </trkpt>
      <trkpt lat="42.2253820" lon="-8.7167450">
        <ele>81.8</ele>
        <time>2021-05-20T11:15:31Z</time>
      </trkpt>
      <trkpt lat="42.2253820" lon="-8.7167450">
        <ele>81.8</ele>
        <time>2021-05-20T11:15:32Z</time>
      </trkpt>
      <trkpt lat="42.2253820" lon="-8.7167450">
        <ele>81.8</ele>
        <time>2021-05-20T11:15:33Z</time>
      </trkpt>
      <trkpt lat="42.2253820" lon="-8.7167450">
        <ele>81.8</ele>
        <time>2021-05-20T11:15:34Z</time>
      </trkpt>
      <trkpt lat="42.2253820" lon="-8.7167450">
        <ele>81.8</ele>
        <time>2021-05-20T11:15:35Z</time>
      </trkpt>
      <trkpt lat="42.2253820" lon="-8.7167450">
        <ele>81.8</ele>
        <time>2021-05-20T11:15:36Z</time>
      </trkpt>
      <trkpt lat="42.2253820" lon="-8.7167450">
        <ele>81.8</ele>
        <time>2021-05-20T11:15:37Z</time>
      </trkpt>
      <trkpt lat="42.2253820" lon="-8.7167450">
        <ele>81.8</ele>
        <time>2021-05-20T11:15:38Z</time>
      </trkpt>
      <trkpt lat="42.2253710" lon="-8.7167490">
        <ele>81.8</ele>
        <time>2021-05-20T11:15:39Z</time>
      </trkpt>
      <trkpt lat="42.2253710" lon="-8.7167490">
        <ele>81.8</ele>
        <time>2021-05-20T11:15:40Z</time>
      </trkpt>
      <trkpt lat="42.2253710" lon="-8.7167490">
        <ele>81.8</ele>
        <time>2021-05-20T11:15:41Z</time>
      </trkpt>
      <trkpt lat="42.2253710" lon="-8.7167490">
        <ele>81.8</ele>
        <time>2021-05-20T11:15:42Z</time>
      </trkpt>
      <trkpt lat="42.2253710" lon="-8.7167490">
        <ele>81.8</ele>
        <time>2021-05-20T11:15:43Z</time>
      </trkpt>
      <trkpt lat="42.2253670" lon="-8.7167540">
        <ele>81.8</ele>
        <time>2021-05-20T11:15:44Z</time>
      </trkpt>
      <trkpt lat="42.2253650" lon="-8.7167550">
        <ele>81.8</ele>
        <time>2021-05-20T11:15:45Z</time>
      </trkpt>
      <trkpt lat="42.2253640" lon="-8.7167570">
        <ele>81.8</ele>
        <time>2021-05-20T11:15:46Z</time>
      </trkpt>
      <trkpt lat="42.2253640" lon="-8.7167570">
        <ele>81.8</ele>
        <time>2021-05-20T11:15:47Z</time>
      </trkpt>
      <trkpt lat="42.2253600" lon="-8.7167610">
        <ele>81.8</ele>
        <time>2021-05-20T11:15:48Z</time>
      </trkpt>
      <trkpt lat="42.2253600" lon="-8.7167610">
        <ele>81.8</ele>
        <time>2021-05-20T11:15:49Z</time>
      </trkpt>
      <trkpt lat="42.2253600" lon="-8.7167610">
        <ele>81.8</ele>
        <time>2021-05-20T11:15:50Z</time>
      </trkpt>
      <trkpt lat="42.2253600" lon="-8.7167610">
        <ele>81.8</ele>
        <time>2021-05-20T11:15:51Z</time>
      </trkpt>
      <trkpt lat="42.2253600" lon="-8.7167610">
        <ele>81.8</ele>
        <time>2021-05-20T11:15:52Z</time>
      </trkpt>
      <trkpt lat="42.2253600" lon="-8.7167610">
        <ele>81.8</ele>
        <time>2021-05-20T11:15:53Z</time>
      </trkpt>
      <trkpt lat="42.2253600" lon="-8.7167610">
        <ele>81.8</ele>
        <time>2021-05-20T11:15:54Z</time>
      </trkpt>
      <trkpt lat="42.2253600" lon="-8.7167610">
        <ele>81.8</ele>
        <time>2021-05-20T11:15:55Z</time>
      </trkpt>
      <trkpt lat="42.2253600" lon="-8.7167610">
        <ele>81.8</ele>
        <time>2021-05-20T11:15:56Z</time>
      </trkpt>
      <trkpt lat="42.2253600" lon="-8.7167610">
        <ele>81.8</ele>
        <time>2021-05-20T11:15:57Z</time>
      </trkpt>
      <trkpt lat="42.2253600" lon="-8.7167610">
        <ele>81.8</ele>
        <time>2021-05-20T11:15:58Z</time>
      </trkpt>
      <trkpt lat="42.2253600" lon="-8.7167610">
        <ele>81.8</ele>
        <time>2021-05-20T11:15:59Z</time>
      </trkpt>
      <trkpt lat="42.2253600" lon="-8.7167610">
        <ele>81.8</ele>
        <time>2021-05-20T11:16:00Z</time>
      </trkpt>
      <trkpt lat="42.2253600" lon="-8.7167610">
        <ele>81.8</ele>
        <time>2021-05-20T11:16:01Z</time>
      </trkpt>
      <trkpt lat="42.2253600" lon="-8.7167610">
        <ele>81.8</ele>
        <time>2021-05-20T11:16:02Z</time>
      </trkpt>
      <trkpt lat="42.2253600" lon="-8.7167610">
        <ele>81.8</ele>
        <time>2021-05-20T11:16:03Z</time>
      </trkpt>
      <trkpt lat="42.2253600" lon="-8.7167610">
        <ele>81.8</ele>
        <time>2021-05-20T11:16:04Z</time>
      </trkpt>
      <trkpt lat="42.2253300" lon="-8.7167620">
        <ele>81.8</ele>
        <time>2021-05-20T11:16:05Z</time>
      </trkpt>
      <trkpt lat="42.2253290" lon="-8.7167610">
        <ele>81.8</ele>
        <time>2021-05-20T11:16:06Z</time>
      </trkpt>
      <trkpt lat="42.2253290" lon="-8.7167610">
        <ele>81.8</ele>
        <time>2021-05-20T11:16:07Z</time>
      </trkpt>
      <trkpt lat="42.2253290" lon="-8.7167610">
        <ele>81.8</ele>
        <time>2021-05-20T11:16:08Z</time>
      </trkpt>
      <trkpt lat="42.2253290" lon="-8.7167600">
        <ele>81.8</ele>
        <time>2021-05-20T11:16:09Z</time>
      </trkpt>
      <trkpt lat="42.2253300" lon="-8.7167600">
        <ele>81.8</ele>
        <time>2021-05-20T11:16:10Z</time>
      </trkpt>
      <trkpt lat="42.2253310" lon="-8.7167600">
        <ele>81.8</ele>
        <time>2021-05-20T11:16:11Z</time>
      </trkpt>
      <trkpt lat="42.2253320" lon="-8.7167610">
        <ele>81.8</ele>
        <time>2021-05-20T11:16:12Z</time>
      </trkpt>
      <trkpt lat="42.2253330" lon="-8.7167610">
        <ele>81.8</ele>
        <time>2021-05-20T11:16:13Z</time>
      </trkpt>
      <trkpt lat="42.2253310" lon="-8.7167620">
        <ele>81.8</ele>
        <time>2021-05-20T11:16:14Z</time>
      </trkpt>
      <trkpt lat="42.2253300" lon="-8.7167600">
        <ele>81.8</ele>
        <time>2021-05-20T11:16:15Z</time>
      </trkpt>
      <trkpt lat="42.2253310" lon="-8.7167590">
        <ele>81.8</ele>
        <time>2021-05-20T11:16:16Z</time>
      </trkpt>
      <trkpt lat="42.2253310" lon="-8.7167590">
        <ele>81.8</ele>
        <time>2021-05-20T11:16:17Z</time>
      </trkpt>
      <trkpt lat="42.2253340" lon="-8.7167570">
        <ele>81.8</ele>
        <time>2021-05-20T11:16:18Z</time>
      </trkpt>
      <trkpt lat="42.2253350" lon="-8.7167570">
        <ele>81.8</ele>
        <time>2021-05-20T11:16:19Z</time>
      </trkpt>
      <trkpt lat="42.2253350" lon="-8.7167550">
        <ele>81.8</ele>
        <time>2021-05-20T11:16:20Z</time>
      </trkpt>
      <trkpt lat="42.2253410" lon="-8.7167570">
        <ele>81.8</ele>
        <time>2021-05-20T11:16:21Z</time>
      </trkpt>
      <trkpt lat="42.2253480" lon="-8.7167550">
        <ele>81.8</ele>
        <time>2021-05-20T11:16:22Z</time>
      </trkpt>
      <trkpt lat="42.2253500" lon="-8.7167550">
        <ele>81.8</ele>
        <time>2021-05-20T11:16:23Z</time>
      </trkpt>
      <trkpt lat="42.2253500" lon="-8.7167560">
        <ele>81.8</ele>
        <time>2021-05-20T11:16:24Z</time>
      </trkpt>
      <trkpt lat="42.2253530" lon="-8.7167560">
        <ele>81.8</ele>
        <time>2021-05-20T11:16:25Z</time>
      </trkpt>
      <trkpt lat="42.2253530" lon="-8.7167560">
        <ele>81.8</ele>
        <time>2021-05-20T11:16:26Z</time>
      </trkpt>
      <trkpt lat="42.2253530" lon="-8.7167570">
        <ele>81.8</ele>
        <time>2021-05-20T11:16:27Z</time>
      </trkpt>
      <trkpt lat="42.2253540" lon="-8.7167580">
        <ele>81.8</ele>
        <time>2021-05-20T11:16:28Z</time>
      </trkpt>
      <trkpt lat="42.2253540" lon="-8.7167580">
        <ele>81.8</ele>
        <time>2021-05-20T11:16:29Z</time>
      </trkpt>
      <trkpt lat="42.2253540" lon="-8.7167580">
        <ele>81.8</ele>
        <time>2021-05-20T11:16:30Z</time>
      </trkpt>
      <trkpt lat="42.2253510" lon="-8.7167610">
        <ele>81.8</ele>
        <time>2021-05-20T11:16:31Z</time>
      </trkpt>
      <trkpt lat="42.2253490" lon="-8.7167610">
        <ele>81.8</ele>
        <time>2021-05-20T11:16:32Z</time>
      </trkpt>
      <trkpt lat="42.2253440" lon="-8.7167630">
        <ele>81.8</ele>
        <time>2021-05-20T11:16:33Z</time>
      </trkpt>
      <trkpt lat="42.2253420" lon="-8.7167630">
        <ele>81.8</ele>
        <time>2021-05-20T11:16:34Z</time>
      </trkpt>
      <trkpt lat="42.2253410" lon="-8.7167640">
        <ele>81.8</ele>
        <time>2021-05-20T11:16:35Z</time>
      </trkpt>
      <trkpt lat="42.2253390" lon="-8.7167640">
        <ele>81.8</ele>
        <time>2021-05-20T11:16:36Z</time>
      </trkpt>
      <trkpt lat="42.2253400" lon="-8.7167640">
        <ele>81.8</ele>
        <time>2021-05-20T11:16:37Z</time>
      </trkpt>
      <trkpt lat="42.2253390" lon="-8.7167630">
        <ele>81.8</ele>
        <time>2021-05-20T11:16:38Z</time>
      </trkpt>
      <trkpt lat="42.2253420" lon="-8.7167640">
        <ele>81.8</ele>
        <time>2021-05-20T11:16:39Z</time>
      </trkpt>
      <trkpt lat="42.2253420" lon="-8.7167630">
        <ele>81.8</ele>
        <time>2021-05-20T11:16:40Z</time>
      </trkpt>
      <trkpt lat="42.2253450" lon="-8.7167630">
        <ele>81.8</ele>
        <time>2021-05-20T11:16:41Z</time>
      </trkpt>
      <trkpt lat="42.2253450" lon="-8.7167630">
        <ele>81.8</ele>
        <time>2021-05-20T11:16:42Z</time>
      </trkpt>
      <trkpt lat="42.2253460" lon="-8.7167650">
        <ele>81.8</ele>
        <time>2021-05-20T11:16:43Z</time>
      </trkpt>
      <trkpt lat="42.2253430" lon="-8.7167650">
        <ele>81.8</ele>
        <time>2021-05-20T11:16:44Z</time>
      </trkpt>
      <trkpt lat="42.2253450" lon="-8.7167660">
        <ele>81.8</ele>
        <time>2021-05-20T11:16:45Z</time>
      </trkpt>
      <trkpt lat="42.2253460" lon="-8.7167680">
        <ele>81.8</ele>
        <time>2021-05-20T11:16:46Z</time>
      </trkpt>
      <trkpt lat="42.2253460" lon="-8.7167680">
        <ele>81.8</ele>
        <time>2021-05-20T11:16:47Z</time>
      </trkpt>
      <trkpt lat="42.2253460" lon="-8.7167690">
        <ele>81.8</ele>
        <time>2021-05-20T11:16:48Z</time>
      </trkpt>
      <trkpt lat="42.2253460" lon="-8.7167690">
        <ele>81.8</ele>
        <time>2021-05-20T11:16:49Z</time>
      </trkpt>
      <trkpt lat="42.2253460" lon="-8.7167690">
        <ele>81.8</ele>
        <time>2021-05-20T11:16:50Z</time>
      </trkpt>
      <trkpt lat="42.2253460" lon="-8.7167690">
        <ele>81.8</ele>
        <time>2021-05-20T11:16:51Z</time>
      </trkpt>
      <trkpt lat="42.2253460" lon="-8.7167690">
        <ele>81.8</ele>
        <time>2021-05-20T11:16:52Z</time>
      </trkpt>
      <trkpt lat="42.2253500" lon="-8.7167660">
        <ele>81.8</ele>
        <time>2021-05-20T11:16:53Z</time>
      </trkpt>
      <trkpt lat="42.2253480" lon="-8.7167680">
        <ele>81.8</ele>
        <time>2021-05-20T11:16:54Z</time>
      </trkpt>
      <trkpt lat="42.2253490" lon="-8.7167700">
        <ele>81.8</ele>
        <time>2021-05-20T11:16:55Z</time>
      </trkpt>
      <trkpt lat="42.2253510" lon="-8.7167700">
        <ele>81.8</ele>
        <time>2021-05-20T11:16:56Z</time>
      </trkpt>
      <trkpt lat="42.2253520" lon="-8.7167700">
        <ele>81.8</ele>
        <time>2021-05-20T11:16:57Z</time>
      </trkpt>
      <trkpt lat="42.2253530" lon="-8.7167680">
        <ele>81.8</ele>
        <time>2021-05-20T11:16:58Z</time>
      </trkpt>
      <trkpt lat="42.2253540" lon="-8.7167670">
        <ele>81.8</ele>
        <time>2021-05-20T11:16:59Z</time>
      </trkpt>
      <trkpt lat="42.2253570" lon="-8.7167680">
        <ele>81.8</ele>
        <time>2021-05-20T11:17:00Z</time>
      </trkpt>
      <trkpt lat="42.2253590" lon="-8.7167680">
        <ele>81.8</ele>
        <time>2021-05-20T11:17:01Z</time>
      </trkpt>
      <trkpt lat="42.2253630" lon="-8.7167660">
        <ele>81.8</ele>
        <time>2021-05-20T11:17:02Z</time>
      </trkpt>
      <trkpt lat="42.2253630" lon="-8.7167640">
        <ele>81.8</ele>
        <time>2021-05-20T11:17:03Z</time>
      </trkpt>
      <trkpt lat="42.2253630" lon="-8.7167640">
        <ele>81.8</ele>
        <time>2021-05-20T11:17:04Z</time>
      </trkpt>
      <trkpt lat="42.2253700" lon="-8.7167620">
        <ele>81.8</ele>
        <time>2021-05-20T11:17:05Z</time>
      </trkpt>
      <trkpt lat="42.2253740" lon="-8.7167640">
        <ele>81.8</ele>
        <time>2021-05-20T11:17:06Z</time>
      </trkpt>
      <trkpt lat="42.2253720" lon="-8.7167630">
        <ele>81.8</ele>
        <time>2021-05-20T11:17:07Z</time>
      </trkpt>
      <trkpt lat="42.2253710" lon="-8.7167630">
        <ele>81.8</ele>
        <time>2021-05-20T11:17:08Z</time>
      </trkpt>
      <trkpt lat="42.2253730" lon="-8.7167630">
        <ele>81.8</ele>
        <time>2021-05-20T11:17:09Z</time>
      </trkpt>
      <trkpt lat="42.2253730" lon="-8.7167620">
        <ele>81.8</ele>
        <time>2021-05-20T11:17:10Z</time>
      </trkpt>
      <trkpt lat="42.2253760" lon="-8.7167630">
        <ele>81.8</ele>
        <time>2021-05-20T11:17:11Z</time>
      </trkpt>
      <trkpt lat="42.2253750" lon="-8.7167620">
        <ele>81.8</ele>
        <time>2021-05-20T11:17:12Z</time>
      </trkpt>
      <trkpt lat="42.2253750" lon="-8.7167640">
        <ele>81.8</ele>
        <time>2021-05-20T11:17:13Z</time>
      </trkpt>
      <trkpt lat="42.2253740" lon="-8.7167640">
        <ele>81.8</ele>
        <time>2021-05-20T11:17:14Z</time>
      </trkpt>
      <trkpt lat="42.2253740" lon="-8.7167630">
        <ele>81.8</ele>
        <time>2021-05-20T11:17:16Z</time>
      </trkpt>
      <trkpt lat="42.2253730" lon="-8.7167620">
        <ele>81.8</ele>
        <time>2021-05-20T11:17:17Z</time>
      </trkpt>
      <trkpt lat="42.2253710" lon="-8.7167610">
        <ele>81.8</ele>
        <time>2021-05-20T11:17:18Z</time>
      </trkpt>
      <trkpt lat="42.2253720" lon="-8.7167580">
        <ele>81.8</ele>
        <time>2021-05-20T11:17:19Z</time>
      </trkpt>
      <trkpt lat="42.2253750" lon="-8.7167580">
        <ele>81.8</ele>
        <time>2021-05-20T11:17:20Z</time>
      </trkpt>
      <trkpt lat="42.2253770" lon="-8.7167570">
        <ele>81.8</ele>
        <time>2021-05-20T11:17:21Z</time>
      </trkpt>
      <trkpt lat="42.2253780" lon="-8.7167570">
        <ele>81.8</ele>
        <time>2021-05-20T11:17:22Z</time>
      </trkpt>
      <trkpt lat="42.2253780" lon="-8.7167580">
        <ele>81.8</ele>
        <time>2021-05-20T11:17:23Z</time>
      </trkpt>
      <trkpt lat="42.2253780" lon="-8.7167590">
        <ele>81.8</ele>
        <time>2021-05-20T11:17:24Z</time>
      </trkpt>
      <trkpt lat="42.2253770" lon="-8.7167580">
        <ele>81.8</ele>
        <time>2021-05-20T11:17:25Z</time>
      </trkpt>
      <trkpt lat="42.2253730" lon="-8.7167580">
        <ele>81.8</ele>
        <time>2021-05-20T11:17:26Z</time>
      </trkpt>
      <trkpt lat="42.2253730" lon="-8.7167610">
        <ele>81.8</ele>
        <time>2021-05-20T11:17:27Z</time>
      </trkpt>
      <trkpt lat="42.2253730" lon="-8.7167610">
        <ele>81.8</ele>
        <time>2021-05-20T11:17:28Z</time>
      </trkpt>
      <trkpt lat="42.2253720" lon="-8.7167630">
        <ele>81.8</ele>
        <time>2021-05-20T11:17:29Z</time>
      </trkpt>
      <trkpt lat="42.2253720" lon="-8.7167630">
        <ele>81.8</ele>
        <time>2021-05-20T11:17:30Z</time>
      </trkpt>
      <trkpt lat="42.2253720" lon="-8.7167630">
        <ele>81.8</ele>
        <time>2021-05-20T11:17:31Z</time>
      </trkpt>
      <trkpt lat="42.2253720" lon="-8.7167630">
        <ele>81.8</ele>
        <time>2021-05-20T11:17:32Z</time>
      </trkpt>
      <trkpt lat="42.2253730" lon="-8.7167650">
        <ele>81.8</ele>
        <time>2021-05-20T11:17:33Z</time>
      </trkpt>
      <trkpt lat="42.2253730" lon="-8.7167650">
        <ele>81.8</ele>
        <time>2021-05-20T11:17:34Z</time>
      </trkpt>
      <trkpt lat="42.2253740" lon="-8.7167640">
        <ele>81.8</ele>
        <time>2021-05-20T11:17:35Z</time>
      </trkpt>
      <trkpt lat="42.2253740" lon="-8.7167650">
        <ele>81.8</ele>
        <time>2021-05-20T11:17:36Z</time>
      </trkpt>
      <trkpt lat="42.2253740" lon="-8.7167650">
        <ele>81.8</ele>
        <time>2021-05-20T11:17:37Z</time>
      </trkpt>
      <trkpt lat="42.2253760" lon="-8.7167650">
        <ele>81.8</ele>
        <time>2021-05-20T11:17:38Z</time>
      </trkpt>
      <trkpt lat="42.2253750" lon="-8.7167660">
        <ele>81.8</ele>
        <time>2021-05-20T11:17:39Z</time>
      </trkpt>
      <trkpt lat="42.2253750" lon="-8.7167660">
        <ele>81.8</ele>
        <time>2021-05-20T11:17:40Z</time>
      </trkpt>
      <trkpt lat="42.2253740" lon="-8.7167650">
        <ele>81.8</ele>
        <time>2021-05-20T11:17:41Z</time>
      </trkpt>
      <trkpt lat="42.2253750" lon="-8.7167650">
        <ele>81.8</ele>
        <time>2021-05-20T11:17:42Z</time>
      </trkpt>
      <trkpt lat="42.2253740" lon="-8.7167640">
        <ele>81.8</ele>
        <time>2021-05-20T11:17:43Z</time>
      </trkpt>
      <trkpt lat="42.2253720" lon="-8.7167650">
        <ele>81.8</ele>
        <time>2021-05-20T11:17:44Z</time>
      </trkpt>
      <trkpt lat="42.2253740" lon="-8.7167670">
        <ele>81.8</ele>
        <time>2021-05-20T11:17:45Z</time>
      </trkpt>
      <trkpt lat="42.2253740" lon="-8.7167660">
        <ele>81.8</ele>
        <time>2021-05-20T11:17:46Z</time>
      </trkpt>
      <trkpt lat="42.2253730" lon="-8.7167640">
        <ele>81.8</ele>
        <time>2021-05-20T11:17:47Z</time>
      </trkpt>
      <trkpt lat="42.2253720" lon="-8.7167620">
        <ele>81.8</ele>
        <time>2021-05-20T11:17:48Z</time>
      </trkpt>
      <trkpt lat="42.2253720" lon="-8.7167590">
        <ele>81.8</ele>
        <time>2021-05-20T11:17:49Z</time>
      </trkpt>
      <trkpt lat="42.2253700" lon="-8.7167590">
        <ele>81.8</ele>
        <time>2021-05-20T11:17:50Z</time>
      </trkpt>
      <trkpt lat="42.2253700" lon="-8.7167610">
        <ele>81.8</ele>
        <time>2021-05-20T11:17:51Z</time>
      </trkpt>
      <trkpt lat="42.2253700" lon="-8.7167610">
        <ele>81.8</ele>
        <time>2021-05-20T11:17:52Z</time>
      </trkpt>
      <trkpt lat="42.2253700" lon="-8.7167630">
        <ele>81.8</ele>
        <time>2021-05-20T11:17:53Z</time>
      </trkpt>
      <trkpt lat="42.2253700" lon="-8.7167650">
        <ele>81.8</ele>
        <time>2021-05-20T11:17:54Z</time>
      </trkpt>
      <trkpt lat="42.2253710" lon="-8.7167660">
        <ele>81.8</ele>
        <time>2021-05-20T11:17:55Z</time>
      </trkpt>
      <trkpt lat="42.2253710" lon="-8.7167660">
        <ele>81.8</ele>
        <time>2021-05-20T11:17:56Z</time>
      </trkpt>
      <trkpt lat="42.2253750" lon="-8.7167670">
        <ele>81.8</ele>
        <time>2021-05-20T11:17:57Z</time>
      </trkpt>
      <trkpt lat="42.2253750" lon="-8.7167670">
        <ele>81.8</ele>
        <time>2021-05-20T11:17:58Z</time>
      </trkpt>
      <trkpt lat="42.2253780" lon="-8.7167670">
        <ele>81.8</ele>
        <time>2021-05-20T11:17:59Z</time>
      </trkpt>
      <trkpt lat="42.2253790" lon="-8.7167680">
        <ele>81.8</ele>
        <time>2021-05-20T11:18:00Z</time>
      </trkpt>
      <trkpt lat="42.2253800" lon="-8.7167690">
        <ele>81.8</ele>
        <time>2021-05-20T11:18:01Z</time>
      </trkpt>
      <trkpt lat="42.2253800" lon="-8.7167690">
        <ele>81.8</ele>
        <time>2021-05-20T11:18:02Z</time>
      </trkpt>
      <trkpt lat="42.2253800" lon="-8.7167690">
        <ele>81.8</ele>
        <time>2021-05-20T11:18:03Z</time>
      </trkpt>
      <trkpt lat="42.2253800" lon="-8.7167690">
        <ele>81.8</ele>
        <time>2021-05-20T11:18:04Z</time>
      </trkpt>
      <trkpt lat="42.2253820" lon="-8.7167700">
        <ele>81.8</ele>
        <time>2021-05-20T11:18:05Z</time>
      </trkpt>
      <trkpt lat="42.2253810" lon="-8.7167690">
        <ele>81.8</ele>
        <time>2021-05-20T11:18:06Z</time>
      </trkpt>
      <trkpt lat="42.2253810" lon="-8.7167700">
        <ele>81.8</ele>
        <time>2021-05-20T11:18:07Z</time>
      </trkpt>
      <trkpt lat="42.2253820" lon="-8.7167710">
        <ele>81.8</ele>
        <time>2021-05-20T11:18:08Z</time>
      </trkpt>
      <trkpt lat="42.2253810" lon="-8.7167700">
        <ele>81.8</ele>
        <time>2021-05-20T11:18:09Z</time>
      </trkpt>
      <trkpt lat="42.2253810" lon="-8.7167700">
        <ele>81.8</ele>
        <time>2021-05-20T11:18:10Z</time>
      </trkpt>
      <trkpt lat="42.2253830" lon="-8.7167730">
        <ele>81.8</ele>
        <time>2021-05-20T11:18:11Z</time>
      </trkpt>
      <trkpt lat="42.2253840" lon="-8.7167700">
        <ele>81.8</ele>
        <time>2021-05-20T11:18:12Z</time>
      </trkpt>
      <trkpt lat="42.2253840" lon="-8.7167700">
        <ele>81.8</ele>
        <time>2021-05-20T11:18:13Z</time>
      </trkpt>
      <trkpt lat="42.2253880" lon="-8.7167710">
        <ele>81.8</ele>
        <time>2021-05-20T11:18:14Z</time>
      </trkpt>
      <trkpt lat="42.2253870" lon="-8.7167720">
        <ele>81.8</ele>
        <time>2021-05-20T11:18:15Z</time>
      </trkpt>
      <trkpt lat="42.2253870" lon="-8.7167720">
        <ele>81.8</ele>
        <time>2021-05-20T11:18:16Z</time>
      </trkpt>
      <trkpt lat="42.2253900" lon="-8.7167720">
        <ele>81.7</ele>
        <time>2021-05-20T11:18:17Z</time>
      </trkpt>
      <trkpt lat="42.2253890" lon="-8.7167690">
        <ele>81.7</ele>
        <time>2021-05-20T11:18:18Z</time>
      </trkpt>
      <trkpt lat="42.2253900" lon="-8.7167700">
        <ele>81.7</ele>
        <time>2021-05-20T11:18:19Z</time>
      </trkpt>
      <trkpt lat="42.2253890" lon="-8.7167710">
        <ele>81.7</ele>
        <time>2021-05-20T11:18:20Z</time>
      </trkpt>
      <trkpt lat="42.2253900" lon="-8.7167730">
        <ele>81.7</ele>
        <time>2021-05-20T11:18:21Z</time>
      </trkpt>
      <trkpt lat="42.2253910" lon="-8.7167740">
        <ele>81.7</ele>
        <time>2021-05-20T11:18:22Z</time>
      </trkpt>
      <trkpt lat="42.2253920" lon="-8.7167750">
        <ele>81.7</ele>
        <time>2021-05-20T11:18:23Z</time>
      </trkpt>
      <trkpt lat="42.2253920" lon="-8.7167730">
        <ele>81.7</ele>
        <time>2021-05-20T11:18:24Z</time>
      </trkpt>
      <trkpt lat="42.2253920" lon="-8.7167770">
        <ele>81.7</ele>
        <time>2021-05-20T11:18:25Z</time>
      </trkpt>
      <trkpt lat="42.2253920" lon="-8.7167740">
        <ele>81.7</ele>
        <time>2021-05-20T11:18:26Z</time>
      </trkpt>
      <trkpt lat="42.2253920" lon="-8.7167740">
        <ele>81.7</ele>
        <time>2021-05-20T11:18:27Z</time>
      </trkpt>
      <trkpt lat="42.2253920" lon="-8.7167740">
        <ele>81.7</ele>
        <time>2021-05-20T11:18:28Z</time>
      </trkpt>
      <trkpt lat="42.2253920" lon="-8.7167740">
        <ele>81.7</ele>
        <time>2021-05-20T11:18:29Z</time>
      </trkpt>
      <trkpt lat="42.2253920" lon="-8.7167740">
        <ele>81.7</ele>
        <time>2021-05-20T11:18:30Z</time>
      </trkpt>
      <trkpt lat="42.2253920" lon="-8.7167740">
        <ele>81.7</ele>
        <time>2021-05-20T11:18:31Z</time>
      </trkpt>
      <trkpt lat="42.2253920" lon="-8.7167740">
        <ele>81.7</ele>
        <time>2021-05-20T11:18:32Z</time>
      </trkpt>
      <trkpt lat="42.2253920" lon="-8.7167740">
        <ele>81.7</ele>
        <time>2021-05-20T11:18:33Z</time>
      </trkpt>
      <trkpt lat="42.2253920" lon="-8.7167740">
        <ele>81.7</ele>
        <time>2021-05-20T11:18:34Z</time>
      </trkpt>
      <trkpt lat="42.2253920" lon="-8.7167740">
        <ele>81.7</ele>
        <time>2021-05-20T11:18:35Z</time>
      </trkpt>
      <trkpt lat="42.2253920" lon="-8.7167740">
        <ele>81.7</ele>
        <time>2021-05-20T11:18:36Z</time>
      </trkpt>
      <trkpt lat="42.2253920" lon="-8.7167740">
        <ele>81.7</ele>
        <time>2021-05-20T11:18:37Z</time>
      </trkpt>
      <trkpt lat="42.2253920" lon="-8.7167740">
        <ele>81.7</ele>
        <time>2021-05-20T11:18:38Z</time>
      </trkpt>
      <trkpt lat="42.2253920" lon="-8.7167740">
        <ele>81.7</ele>
        <time>2021-05-20T11:18:39Z</time>
      </trkpt>
      <trkpt lat="42.2253920" lon="-8.7167740">
        <ele>81.7</ele>
        <time>2021-05-20T11:18:40Z</time>
      </trkpt>
      <trkpt lat="42.2253920" lon="-8.7167740">
        <ele>81.7</ele>
        <time>2021-05-20T11:18:41Z</time>
      </trkpt>
      <trkpt lat="42.2253920" lon="-8.7167740">
        <ele>81.7</ele>
        <time>2021-05-20T11:18:42Z</time>
      </trkpt>
      <trkpt lat="42.2253920" lon="-8.7167740">
        <ele>81.7</ele>
        <time>2021-05-20T11:18:43Z</time>
      </trkpt>
      <trkpt lat="42.2253920" lon="-8.7167740">
        <ele>81.7</ele>
        <time>2021-05-20T11:18:44Z</time>
      </trkpt>
      <trkpt lat="42.2253920" lon="-8.7167740">
        <ele>81.7</ele>
        <time>2021-05-20T11:18:45Z</time>
      </trkpt>
      <trkpt lat="42.2253920" lon="-8.7167740">
        <ele>81.7</ele>
        <time>2021-05-20T11:18:46Z</time>
      </trkpt>
      <trkpt lat="42.2253920" lon="-8.7167740">
        <ele>81.7</ele>
        <time>2021-05-20T11:18:47Z</time>
      </trkpt>
      <trkpt lat="42.2253920" lon="-8.7167740">
        <ele>81.7</ele>
        <time>2021-05-20T11:18:48Z</time>
      </trkpt>
      <trkpt lat="42.2253920" lon="-8.7167740">
        <ele>81.7</ele>
        <time>2021-05-20T11:18:49Z</time>
      </trkpt>
      <trkpt lat="42.2253920" lon="-8.7167740">
        <ele>81.7</ele>
        <time>2021-05-20T11:18:50Z</time>
      </trkpt>
      <trkpt lat="42.2253920" lon="-8.7167740">
        <ele>81.7</ele>
        <time>2021-05-20T11:18:51Z</time>
      </trkpt>
      <trkpt lat="42.2253920" lon="-8.7167740">
        <ele>81.7</ele>
        <time>2021-05-20T11:18:52Z</time>
      </trkpt>
      <trkpt lat="42.2253920" lon="-8.7167740">
        <ele>81.7</ele>
        <time>2021-05-20T11:18:53Z</time>
      </trkpt>
      <trkpt lat="42.2253920" lon="-8.7167740">
        <ele>81.7</ele>
        <time>2021-05-20T11:18:54Z</time>
      </trkpt>
      <trkpt lat="42.2253650" lon="-8.7167900">
        <ele>81.7</ele>
        <time>2021-05-20T11:18:55Z</time>
      </trkpt>
      <trkpt lat="42.2253650" lon="-8.7167900">
        <ele>81.7</ele>
        <time>2021-05-20T11:18:56Z</time>
      </trkpt>
      <trkpt lat="42.2253650" lon="-8.7167900">
        <ele>81.7</ele>
        <time>2021-05-20T11:18:57Z</time>
      </trkpt>
      <trkpt lat="42.2253650" lon="-8.7167900">
        <ele>81.7</ele>
        <time>2021-05-20T11:18:58Z</time>
      </trkpt>
      <trkpt lat="42.2253650" lon="-8.7167900">
        <ele>81.7</ele>
        <time>2021-05-20T11:18:59Z</time>
      </trkpt>
      <trkpt lat="42.2253650" lon="-8.7167900">
        <ele>81.7</ele>
        <time>2021-05-20T11:19:00Z</time>
      </trkpt>
      <trkpt lat="42.2253650" lon="-8.7167900">
        <ele>81.7</ele>
        <time>2021-05-20T11:19:01Z</time>
      </trkpt>
      <trkpt lat="42.2253650" lon="-8.7167900">
        <ele>81.7</ele>
        <time>2021-05-20T11:19:02Z</time>
      </trkpt>
      <trkpt lat="42.2253650" lon="-8.7167900">
        <ele>81.7</ele>
        <time>2021-05-20T11:19:03Z</time>
      </trkpt>
      <trkpt lat="42.2253610" lon="-8.7167900">
        <ele>81.7</ele>
        <time>2021-05-20T11:19:04Z</time>
      </trkpt>
      <trkpt lat="42.2253610" lon="-8.7167900">
        <ele>81.7</ele>
        <time>2021-05-20T11:19:05Z</time>
      </trkpt>
      <trkpt lat="42.2253610" lon="-8.7167900">
        <ele>81.7</ele>
        <time>2021-05-20T11:19:06Z</time>
      </trkpt>
      <trkpt lat="42.2253610" lon="-8.7167900">
        <ele>81.7</ele>
        <time>2021-05-20T11:19:07Z</time>
      </trkpt>
      <trkpt lat="42.2253610" lon="-8.7167900">
        <ele>81.7</ele>
        <time>2021-05-20T11:19:08Z</time>
      </trkpt>
      <trkpt lat="42.2253610" lon="-8.7167900">
        <ele>81.7</ele>
        <time>2021-05-20T11:19:09Z</time>
      </trkpt>
      <trkpt lat="42.2253610" lon="-8.7167900">
        <ele>81.7</ele>
        <time>2021-05-20T11:19:10Z</time>
      </trkpt>
      <trkpt lat="42.2253610" lon="-8.7167900">
        <ele>81.7</ele>
        <time>2021-05-20T11:19:11Z</time>
      </trkpt>
      <trkpt lat="42.2253610" lon="-8.7167900">
        <ele>81.7</ele>
        <time>2021-05-20T11:19:12Z</time>
      </trkpt>
      <trkpt lat="42.2253610" lon="-8.7167900">
        <ele>81.7</ele>
        <time>2021-05-20T11:19:13Z</time>
      </trkpt>
      <trkpt lat="42.2253610" lon="-8.7167900">
        <ele>81.7</ele>
        <time>2021-05-20T11:19:14Z</time>
      </trkpt>
      <trkpt lat="42.2253610" lon="-8.7167900">
        <ele>81.7</ele>
        <time>2021-05-20T11:19:15Z</time>
      </trkpt>
      <trkpt lat="42.2253610" lon="-8.7167900">
        <ele>81.7</ele>
        <time>2021-05-20T11:19:16Z</time>
      </trkpt>
      <trkpt lat="42.2253610" lon="-8.7167900">
        <ele>81.7</ele>
        <time>2021-05-20T11:19:17Z</time>
      </trkpt>
      <trkpt lat="42.2253610" lon="-8.7167900">
        <ele>81.7</ele>
        <time>2021-05-20T11:19:18Z</time>
      </trkpt>
      <trkpt lat="42.2253610" lon="-8.7167900">
        <ele>81.7</ele>
        <time>2021-05-20T11:19:19Z</time>
      </trkpt>
      <trkpt lat="42.2253610" lon="-8.7167900">
        <ele>81.7</ele>
        <time>2021-05-20T11:19:20Z</time>
      </trkpt>
      <trkpt lat="42.2253610" lon="-8.7167900">
        <ele>81.7</ele>
        <time>2021-05-20T11:19:21Z</time>
      </trkpt>
      <trkpt lat="42.2253610" lon="-8.7167900">
        <ele>81.7</ele>
        <time>2021-05-20T11:19:22Z</time>
      </trkpt>
      <trkpt lat="42.2253510" lon="-8.7167820">
        <ele>81.7</ele>
        <time>2021-05-20T11:19:23Z</time>
      </trkpt>
      <trkpt lat="42.2253510" lon="-8.7167810">
        <ele>81.7</ele>
        <time>2021-05-20T11:19:24Z</time>
      </trkpt>
      <trkpt lat="42.2253530" lon="-8.7167800">
        <ele>81.7</ele>
        <time>2021-05-20T11:19:25Z</time>
      </trkpt>
      <trkpt lat="42.2253520" lon="-8.7167770">
        <ele>81.7</ele>
        <time>2021-05-20T11:19:26Z</time>
      </trkpt>
      <trkpt lat="42.2253540" lon="-8.7167780">
        <ele>81.7</ele>
        <time>2021-05-20T11:19:27Z</time>
      </trkpt>
      <trkpt lat="42.2253560" lon="-8.7167790">
        <ele>81.7</ele>
        <time>2021-05-20T11:19:28Z</time>
      </trkpt>
      <trkpt lat="42.2253570" lon="-8.7167780">
        <ele>81.7</ele>
        <time>2021-05-20T11:19:29Z</time>
      </trkpt>
      <trkpt lat="42.2253580" lon="-8.7167780">
        <ele>81.7</ele>
        <time>2021-05-20T11:19:30Z</time>
      </trkpt>
      <trkpt lat="42.2253600" lon="-8.7167790">
        <ele>81.7</ele>
        <time>2021-05-20T11:19:31Z</time>
      </trkpt>
      <trkpt lat="42.2253620" lon="-8.7167790">
        <ele>81.7</ele>
        <time>2021-05-20T11:19:32Z</time>
      </trkpt>
      <trkpt lat="42.2253630" lon="-8.7167800">
        <ele>81.7</ele>
        <time>2021-05-20T11:19:33Z</time>
      </trkpt>
      <trkpt lat="42.2253630" lon="-8.7167800">
        <ele>81.7</ele>
        <time>2021-05-20T11:19:34Z</time>
      </trkpt>
      <trkpt lat="42.2253630" lon="-8.7167740">
        <ele>81.7</ele>
        <time>2021-05-20T11:19:35Z</time>
      </trkpt>
      <trkpt lat="42.2253600" lon="-8.7167740">
        <ele>81.7</ele>
        <time>2021-05-20T11:19:36Z</time>
      </trkpt>
      <trkpt lat="42.2253600" lon="-8.7167740">
        <ele>81.7</ele>
        <time>2021-05-20T11:19:37Z</time>
      </trkpt>
      <trkpt lat="42.2253600" lon="-8.7167740">
        <ele>81.7</ele>
        <time>2021-05-20T11:19:38Z</time>
      </trkpt>
      <trkpt lat="42.2253600" lon="-8.7167740">
        <ele>81.7</ele>
        <time>2021-05-20T11:19:39Z</time>
      </trkpt>
      <trkpt lat="42.2253650" lon="-8.7167750">
        <ele>81.7</ele>
        <time>2021-05-20T11:19:40Z</time>
      </trkpt>
      <trkpt lat="42.2253650" lon="-8.7167750">
        <ele>81.7</ele>
        <time>2021-05-20T11:19:41Z</time>
      </trkpt>
      <trkpt lat="42.2253650" lon="-8.7167750">
        <ele>81.7</ele>
        <time>2021-05-20T11:19:42Z</time>
      </trkpt>
      <trkpt lat="42.2253670" lon="-8.7167680">
        <ele>81.7</ele>
        <time>2021-05-20T11:19:43Z</time>
      </trkpt>
      <trkpt lat="42.2253670" lon="-8.7167680">
        <ele>81.7</ele>
        <time>2021-05-20T11:19:44Z</time>
      </trkpt>
      <trkpt lat="42.2253660" lon="-8.7167660">
        <ele>81.7</ele>
        <time>2021-05-20T11:19:45Z</time>
      </trkpt>
      <trkpt lat="42.2253680" lon="-8.7167660">
        <ele>81.7</ele>
        <time>2021-05-20T11:19:46Z</time>
      </trkpt>
      <trkpt lat="42.2253690" lon="-8.7167640">
        <ele>81.7</ele>
        <time>2021-05-20T11:19:47Z</time>
      </trkpt>
      <trkpt lat="42.2253680" lon="-8.7167630">
        <ele>81.7</ele>
        <time>2021-05-20T11:19:48Z</time>
      </trkpt>
      <trkpt lat="42.2253710" lon="-8.7167630">
        <ele>81.7</ele>
        <time>2021-05-20T11:19:49Z</time>
      </trkpt>
      <trkpt lat="42.2253710" lon="-8.7167610">
        <ele>81.7</ele>
        <time>2021-05-20T11:19:50Z</time>
      </trkpt>
      <trkpt lat="42.2253710" lon="-8.7167620">
        <ele>81.7</ele>
        <time>2021-05-20T11:19:51Z</time>
      </trkpt>
      <trkpt lat="42.2253700" lon="-8.7167600">
        <ele>81.7</ele>
        <time>2021-05-20T11:19:52Z</time>
      </trkpt>
      <trkpt lat="42.2253690" lon="-8.7167610">
        <ele>81.7</ele>
        <time>2021-05-20T11:19:53Z</time>
      </trkpt>
      <trkpt lat="42.2253660" lon="-8.7167620">
        <ele>81.7</ele>
        <time>2021-05-20T11:19:54Z</time>
      </trkpt>
      <trkpt lat="42.2253650" lon="-8.7167620">
        <ele>81.7</ele>
        <time>2021-05-20T11:19:55Z</time>
      </trkpt>
      <trkpt lat="42.2253650" lon="-8.7167620">
        <ele>81.7</ele>
        <time>2021-05-20T11:19:56Z</time>
      </trkpt>
      <trkpt lat="42.2253580" lon="-8.7167570">
        <ele>81.7</ele>
        <time>2021-05-20T11:19:57Z</time>
      </trkpt>
      <trkpt lat="42.2253510" lon="-8.7167530">
        <ele>81.7</ele>
        <time>2021-05-20T11:19:58Z</time>
      </trkpt>
      <trkpt lat="42.2253500" lon="-8.7167520">
        <ele>81.7</ele>
        <time>2021-05-20T11:19:59Z</time>
      </trkpt>
      <trkpt lat="42.2253480" lon="-8.7167520">
        <ele>81.7</ele>
        <time>2021-05-20T11:20:00Z</time>
      </trkpt>
      <trkpt lat="42.2253490" lon="-8.7167540">
        <ele>81.7</ele>
        <time>2021-05-20T11:20:01Z</time>
      </trkpt>
      <trkpt lat="42.2253470" lon="-8.7167540">
        <ele>81.7</ele>
        <time>2021-05-20T11:20:02Z</time>
      </trkpt>
      <trkpt lat="42.2253470" lon="-8.7167540">
        <ele>81.7</ele>
        <time>2021-05-20T11:20:03Z</time>
      </trkpt>
      <trkpt lat="42.2253470" lon="-8.7167540">
        <ele>81.7</ele>
        <time>2021-05-20T11:20:04Z</time>
      </trkpt>
      <trkpt lat="42.2253470" lon="-8.7167540">
        <ele>81.7</ele>
        <time>2021-05-20T11:20:05Z</time>
      </trkpt>
      <trkpt lat="42.2253470" lon="-8.7167540">
        <ele>81.7</ele>
        <time>2021-05-20T11:20:06Z</time>
      </trkpt>
      <trkpt lat="42.2253470" lon="-8.7167540">
        <ele>81.7</ele>
        <time>2021-05-20T11:20:07Z</time>
      </trkpt>
      <trkpt lat="42.2253470" lon="-8.7167540">
        <ele>81.7</ele>
        <time>2021-05-20T11:20:08Z</time>
      </trkpt>
      <trkpt lat="42.2253390" lon="-8.7167420">
        <ele>81.7</ele>
        <time>2021-05-20T11:20:09Z</time>
      </trkpt>
      <trkpt lat="42.2253380" lon="-8.7167410">
        <ele>81.7</ele>
        <time>2021-05-20T11:20:10Z</time>
      </trkpt>
      <trkpt lat="42.2253370" lon="-8.7167410">
        <ele>81.7</ele>
        <time>2021-05-20T11:20:11Z</time>
      </trkpt>
      <trkpt lat="42.2253360" lon="-8.7167400">
        <ele>81.7</ele>
        <time>2021-05-20T11:20:12Z</time>
      </trkpt>
      <trkpt lat="42.2253380" lon="-8.7167390">
        <ele>81.7</ele>
        <time>2021-05-20T11:20:13Z</time>
      </trkpt>
      <trkpt lat="42.2253370" lon="-8.7167390">
        <ele>81.7</ele>
        <time>2021-05-20T11:20:14Z</time>
      </trkpt>
      <trkpt lat="42.2253360" lon="-8.7167340">
        <ele>81.7</ele>
        <time>2021-05-20T11:20:15Z</time>
      </trkpt>
      <trkpt lat="42.2253360" lon="-8.7167340">
        <ele>81.7</ele>
        <time>2021-05-20T11:20:16Z</time>
      </trkpt>
      <trkpt lat="42.2253380" lon="-8.7167290">
        <ele>81.7</ele>
        <time>2021-05-20T11:20:17Z</time>
      </trkpt>
      <trkpt lat="42.2253380" lon="-8.7167290">
        <ele>81.7</ele>
        <time>2021-05-20T11:20:18Z</time>
      </trkpt>
      <trkpt lat="42.2253360" lon="-8.7167260">
        <ele>81.7</ele>
        <time>2021-05-20T11:20:19Z</time>
      </trkpt>
      <trkpt lat="42.2253360" lon="-8.7167260">
        <ele>81.7</ele>
        <time>2021-05-20T11:20:20Z</time>
      </trkpt>
      <trkpt lat="42.2253390" lon="-8.7167220">
        <ele>81.7</ele>
        <time>2021-05-20T11:20:21Z</time>
      </trkpt>
      <trkpt lat="42.2253360" lon="-8.7167200">
        <ele>81.7</ele>
        <time>2021-05-20T11:20:22Z</time>
      </trkpt>
      <trkpt lat="42.2253340" lon="-8.7167170">
        <ele>81.7</ele>
        <time>2021-05-20T11:20:23Z</time>
      </trkpt>
      <trkpt lat="42.2253340" lon="-8.7167160">
        <ele>81.7</ele>
        <time>2021-05-20T11:20:24Z</time>
      </trkpt>
      <trkpt lat="42.2253350" lon="-8.7167140">
        <ele>81.7</ele>
        <time>2021-05-20T11:20:25Z</time>
      </trkpt>
      <trkpt lat="42.2253310" lon="-8.7167100">
        <ele>81.7</ele>
        <time>2021-05-20T11:20:26Z</time>
      </trkpt>
      <trkpt lat="42.2253330" lon="-8.7167100">
        <ele>81.7</ele>
        <time>2021-05-20T11:20:27Z</time>
      </trkpt>
      <trkpt lat="42.2253330" lon="-8.7167100">
        <ele>81.7</ele>
        <time>2021-05-20T11:20:28Z</time>
      </trkpt>
      <trkpt lat="42.2253330" lon="-8.7167100">
        <ele>81.7</ele>
        <time>2021-05-20T11:20:29Z</time>
      </trkpt>
      <trkpt lat="42.2253390" lon="-8.7167110">
        <ele>81.7</ele>
        <time>2021-05-20T11:20:30Z</time>
      </trkpt>
      <trkpt lat="42.2253410" lon="-8.7167120">
        <ele>81.7</ele>
        <time>2021-05-20T11:20:31Z</time>
      </trkpt>
      <trkpt lat="42.2253410" lon="-8.7167120">
        <ele>81.7</ele>
        <time>2021-05-20T11:20:32Z</time>
      </trkpt>
      <trkpt lat="42.2253420" lon="-8.7167110">
        <ele>81.7</ele>
        <time>2021-05-20T11:20:33Z</time>
      </trkpt>
      <trkpt lat="42.2253420" lon="-8.7167090">
        <ele>81.7</ele>
        <time>2021-05-20T11:20:34Z</time>
      </trkpt>
      <trkpt lat="42.2253430" lon="-8.7167110">
        <ele>81.7</ele>
        <time>2021-05-20T11:20:35Z</time>
      </trkpt>
      <trkpt lat="42.2253430" lon="-8.7167100">
        <ele>81.7</ele>
        <time>2021-05-20T11:20:36Z</time>
      </trkpt>
      <trkpt lat="42.2253430" lon="-8.7167140">
        <ele>81.7</ele>
        <time>2021-05-20T11:20:37Z</time>
      </trkpt>
      <trkpt lat="42.2253430" lon="-8.7167140">
        <ele>81.7</ele>
        <time>2021-05-20T11:20:38Z</time>
      </trkpt>
      <trkpt lat="42.2253430" lon="-8.7167140">
        <ele>81.7</ele>
        <time>2021-05-20T11:20:39Z</time>
      </trkpt>
      <trkpt lat="42.2253430" lon="-8.7167140">
        <ele>81.7</ele>
        <time>2021-05-20T11:20:40Z</time>
      </trkpt>
      <trkpt lat="42.2253470" lon="-8.7167160">
        <ele>81.7</ele>
        <time>2021-05-20T11:20:41Z</time>
      </trkpt>
      <trkpt lat="42.2253470" lon="-8.7167160">
        <ele>81.7</ele>
        <time>2021-05-20T11:20:42Z</time>
      </trkpt>
      <trkpt lat="42.2253480" lon="-8.7167130">
        <ele>81.7</ele>
        <time>2021-05-20T11:20:43Z</time>
      </trkpt>
      <trkpt lat="42.2253510" lon="-8.7167130">
        <ele>81.7</ele>
        <time>2021-05-20T11:20:44Z</time>
      </trkpt>
      <trkpt lat="42.2253510" lon="-8.7167130">
        <ele>81.7</ele>
        <time>2021-05-20T11:20:45Z</time>
      </trkpt>
      <trkpt lat="42.2253530" lon="-8.7167110">
        <ele>81.7</ele>
        <time>2021-05-20T11:20:46Z</time>
      </trkpt>
      <trkpt lat="42.2253540" lon="-8.7167090">
        <ele>81.7</ele>
        <time>2021-05-20T11:20:47Z</time>
      </trkpt>
      <trkpt lat="42.2253540" lon="-8.7167090">
        <ele>81.7</ele>
        <time>2021-05-20T11:20:48Z</time>
      </trkpt>
      <trkpt lat="42.2253540" lon="-8.7167090">
        <ele>81.7</ele>
        <time>2021-05-20T11:20:49Z</time>
      </trkpt>
      <trkpt lat="42.2253540" lon="-8.7167090">
        <ele>81.7</ele>
        <time>2021-05-20T11:20:50Z</time>
      </trkpt>
      <trkpt lat="42.2253540" lon="-8.7167090">
        <ele>81.7</ele>
        <time>2021-05-20T11:20:51Z</time>
      </trkpt>
      <trkpt lat="42.2253610" lon="-8.7167070">
        <ele>81.7</ele>
        <time>2021-05-20T11:20:52Z</time>
      </trkpt>
      <trkpt lat="42.2253620" lon="-8.7167080">
        <ele>81.7</ele>
        <time>2021-05-20T11:20:53Z</time>
      </trkpt>
      <trkpt lat="42.2253630" lon="-8.7167100">
        <ele>81.7</ele>
        <time>2021-05-20T11:20:54Z</time>
      </trkpt>
      <trkpt lat="42.2253630" lon="-8.7167110">
        <ele>81.7</ele>
        <time>2021-05-20T11:20:55Z</time>
      </trkpt>
      <trkpt lat="42.2253640" lon="-8.7167130">
        <ele>81.7</ele>
        <time>2021-05-20T11:20:56Z</time>
      </trkpt>
      <trkpt lat="42.2253650" lon="-8.7167140">
        <ele>81.7</ele>
        <time>2021-05-20T11:20:57Z</time>
      </trkpt>
      <trkpt lat="42.2253660" lon="-8.7167160">
        <ele>81.7</ele>
        <time>2021-05-20T11:20:58Z</time>
      </trkpt>
      <trkpt lat="42.2253670" lon="-8.7167170">
        <ele>81.7</ele>
        <time>2021-05-20T11:20:59Z</time>
      </trkpt>
      <trkpt lat="42.2253680" lon="-8.7167190">
        <ele>81.7</ele>
        <time>2021-05-20T11:21:00Z</time>
      </trkpt>
      <trkpt lat="42.2253680" lon="-8.7167200">
        <ele>81.7</ele>
        <time>2021-05-20T11:21:01Z</time>
      </trkpt>
      <trkpt lat="42.2253690" lon="-8.7167220">
        <ele>81.7</ele>
        <time>2021-05-20T11:21:02Z</time>
      </trkpt>
      <trkpt lat="42.2253700" lon="-8.7167230">
        <ele>81.7</ele>
        <time>2021-05-20T11:21:03Z</time>
      </trkpt>
      <trkpt lat="42.2253710" lon="-8.7167250">
        <ele>81.7</ele>
        <time>2021-05-20T11:21:04Z</time>
      </trkpt>
      <trkpt lat="42.2253720" lon="-8.7167260">
        <ele>81.7</ele>
        <time>2021-05-20T11:21:05Z</time>
      </trkpt>
      <trkpt lat="42.2253730" lon="-8.7167280">
        <ele>81.7</ele>
        <time>2021-05-20T11:21:06Z</time>
      </trkpt>
      <trkpt lat="42.2253730" lon="-8.7167290">
        <ele>81.7</ele>
        <time>2021-05-20T11:21:07Z</time>
      </trkpt>
      <trkpt lat="42.2253740" lon="-8.7167310">
        <ele>81.7</ele>
        <time>2021-05-20T11:21:08Z</time>
      </trkpt>
      <trkpt lat="42.2253750" lon="-8.7167320">
        <ele>81.7</ele>
        <time>2021-05-20T11:21:09Z</time>
      </trkpt>
      <trkpt lat="42.2253760" lon="-8.7167340">
        <ele>81.7</ele>
        <time>2021-05-20T11:21:10Z</time>
      </trkpt>
      <trkpt lat="42.2253770" lon="-8.7167350">
        <ele>81.7</ele>
        <time>2021-05-20T11:21:11Z</time>
      </trkpt>
      <trkpt lat="42.2253780" lon="-8.7167370">
        <ele>81.7</ele>
        <time>2021-05-20T11:21:12Z</time>
      </trkpt>
      <trkpt lat="42.2253780" lon="-8.7167380">
        <ele>81.7</ele>
        <time>2021-05-20T11:21:13Z</time>
      </trkpt>
      <trkpt lat="42.2253790" lon="-8.7167400">
        <ele>81.7</ele>
        <time>2021-05-20T11:21:14Z</time>
      </trkpt>
      <trkpt lat="42.2253800" lon="-8.7167410">
        <ele>81.7</ele>
        <time>2021-05-20T11:21:15Z</time>
      </trkpt>
      <trkpt lat="42.2253810" lon="-8.7167430">
        <ele>81.7</ele>
        <time>2021-05-20T11:21:16Z</time>
      </trkpt>
      <trkpt lat="42.2253820" lon="-8.7167440">
        <ele>81.7</ele>
        <time>2021-05-20T11:21:17Z</time>
      </trkpt>
      <trkpt lat="42.2253830" lon="-8.7167460">
        <ele>81.7</ele>
        <time>2021-05-20T11:21:18Z</time>
      </trkpt>
      <trkpt lat="42.2253830" lon="-8.7167470">
        <ele>81.7</ele>
        <time>2021-05-20T11:21:19Z</time>
      </trkpt>
      <trkpt lat="42.2253840" lon="-8.7167490">
        <ele>81.7</ele>
        <time>2021-05-20T11:21:20Z</time>
      </trkpt>
      <trkpt lat="42.2253850" lon="-8.7167500">
        <ele>81.7</ele>
        <time>2021-05-20T11:21:21Z</time>
      </trkpt>
      <trkpt lat="42.2253830" lon="-8.7167530">
        <ele>81.7</ele>
        <time>2021-05-20T11:21:22Z</time>
      </trkpt>
      <trkpt lat="42.2253830" lon="-8.7167540">
        <ele>81.7</ele>
        <time>2021-05-20T11:21:23Z</time>
      </trkpt>
      <trkpt lat="42.2253840" lon="-8.7167550">
        <ele>81.7</ele>
        <time>2021-05-20T11:21:24Z</time>
      </trkpt>
      <trkpt lat="42.2253840" lon="-8.7167550">
        <ele>81.7</ele>
        <time>2021-05-20T11:21:25Z</time>
      </trkpt>
      <trkpt lat="42.2253840" lon="-8.7167560">
        <ele>81.7</ele>
        <time>2021-05-20T11:21:26Z</time>
      </trkpt>
      <trkpt lat="42.2253840" lon="-8.7167570">
        <ele>81.7</ele>
        <time>2021-05-20T11:21:27Z</time>
      </trkpt>
      <trkpt lat="42.2253840" lon="-8.7167580">
        <ele>81.7</ele>
        <time>2021-05-20T11:21:28Z</time>
      </trkpt>
      <trkpt lat="42.2253840" lon="-8.7167590">
        <ele>81.7</ele>
        <time>2021-05-20T11:21:29Z</time>
      </trkpt>
      <trkpt lat="42.2253850" lon="-8.7167600">
        <ele>81.7</ele>
        <time>2021-05-20T11:21:30Z</time>
      </trkpt>
      <trkpt lat="42.2253850" lon="-8.7167600">
        <ele>81.7</ele>
        <time>2021-05-20T11:21:31Z</time>
      </trkpt>
      <trkpt lat="42.2253850" lon="-8.7167610">
        <ele>81.7</ele>
        <time>2021-05-20T11:21:32Z</time>
      </trkpt>
      <trkpt lat="42.2253850" lon="-8.7167620">
        <ele>81.7</ele>
        <time>2021-05-20T11:21:33Z</time>
      </trkpt>
      <trkpt lat="42.2253850" lon="-8.7167630">
        <ele>81.7</ele>
        <time>2021-05-20T11:21:34Z</time>
      </trkpt>
      <trkpt lat="42.2253860" lon="-8.7167640">
        <ele>81.7</ele>
        <time>2021-05-20T11:21:35Z</time>
      </trkpt>
      <trkpt lat="42.2253860" lon="-8.7167650">
        <ele>81.7</ele>
        <time>2021-05-20T11:21:36Z</time>
      </trkpt>
      <trkpt lat="42.2253860" lon="-8.7167650">
        <ele>81.7</ele>
        <time>2021-05-20T11:21:37Z</time>
      </trkpt>
      <trkpt lat="42.2253860" lon="-8.7167660">
        <ele>81.7</ele>
        <time>2021-05-20T11:21:38Z</time>
      </trkpt>
      <trkpt lat="42.2253860" lon="-8.7167670">
        <ele>81.7</ele>
        <time>2021-05-20T11:21:39Z</time>
      </trkpt>
      <trkpt lat="42.2253870" lon="-8.7167680">
        <ele>81.7</ele>
        <time>2021-05-20T11:21:40Z</time>
      </trkpt>
      <trkpt lat="42.2253870" lon="-8.7167690">
        <ele>81.7</ele>
        <time>2021-05-20T11:21:41Z</time>
      </trkpt>
      <trkpt lat="42.2253870" lon="-8.7167700">
        <ele>81.7</ele>
        <time>2021-05-20T11:21:42Z</time>
      </trkpt>
      <trkpt lat="42.2253870" lon="-8.7167710">
        <ele>81.7</ele>
        <time>2021-05-20T11:21:43Z</time>
      </trkpt>
      <trkpt lat="42.2253870" lon="-8.7167710">
        <ele>81.7</ele>
        <time>2021-05-20T11:21:44Z</time>
      </trkpt>
      <trkpt lat="42.2253870" lon="-8.7167720">
        <ele>81.7</ele>
        <time>2021-05-20T11:21:45Z</time>
      </trkpt>
      <trkpt lat="42.2253880" lon="-8.7167730">
        <ele>81.7</ele>
        <time>2021-05-20T11:21:46Z</time>
      </trkpt>
      <trkpt lat="42.2253880" lon="-8.7167740">
        <ele>81.7</ele>
        <time>2021-05-20T11:21:47Z</time>
      </trkpt>
      <trkpt lat="42.2253880" lon="-8.7167750">
        <ele>81.7</ele>
        <time>2021-05-20T11:21:48Z</time>
      </trkpt>
      <trkpt lat="42.2253880" lon="-8.7167760">
        <ele>81.7</ele>
        <time>2021-05-20T11:21:49Z</time>
      </trkpt>
      <trkpt lat="42.2253880" lon="-8.7167760">
        <ele>81.7</ele>
        <time>2021-05-20T11:21:50Z</time>
      </trkpt>
      <trkpt lat="42.2253890" lon="-8.7167770">
        <ele>81.7</ele>
        <time>2021-05-20T11:21:51Z</time>
      </trkpt>
      <trkpt lat="42.2253890" lon="-8.7167780">
        <ele>81.7</ele>
        <time>2021-05-20T11:21:52Z</time>
      </trkpt>
      <trkpt lat="42.2253890" lon="-8.7167790">
        <ele>81.7</ele>
        <time>2021-05-20T11:21:53Z</time>
      </trkpt>
      <trkpt lat="42.2253890" lon="-8.7167800">
        <ele>81.7</ele>
        <time>2021-05-20T11:21:54Z</time>
      </trkpt>
      <trkpt lat="42.2253890" lon="-8.7167810">
        <ele>81.7</ele>
        <time>2021-05-20T11:21:55Z</time>
      </trkpt>
      <trkpt lat="42.2253900" lon="-8.7167810">
        <ele>81.7</ele>
        <time>2021-05-20T11:21:56Z</time>
      </trkpt>
      <trkpt lat="42.2253900" lon="-8.7167820">
        <ele>81.7</ele>
        <time>2021-05-20T11:21:57Z</time>
      </trkpt>
      <trkpt lat="42.2253900" lon="-8.7167830">
        <ele>81.7</ele>
        <time>2021-05-20T11:21:58Z</time>
      </trkpt>
      <trkpt lat="42.2253900" lon="-8.7167840">
        <ele>81.7</ele>
        <time>2021-05-20T11:21:59Z</time>
      </trkpt>
      <trkpt lat="42.2253900" lon="-8.7167850">
        <ele>81.7</ele>
        <time>2021-05-20T11:22:00Z</time>
      </trkpt>
      <trkpt lat="42.2253900" lon="-8.7167860">
        <ele>81.7</ele>
        <time>2021-05-20T11:22:01Z</time>
      </trkpt>
      <trkpt lat="42.2253910" lon="-8.7167870">
        <ele>81.7</ele>
        <time>2021-05-20T11:22:02Z</time>
      </trkpt>
      <trkpt lat="42.2253910" lon="-8.7167870">
        <ele>81.7</ele>
        <time>2021-05-20T11:22:03Z</time>
      </trkpt>
      <trkpt lat="42.2253910" lon="-8.7167880">
        <ele>81.7</ele>
        <time>2021-05-20T11:22:04Z</time>
      </trkpt>
      <trkpt lat="42.2253910" lon="-8.7167890">
        <ele>81.7</ele>
        <time>2021-05-20T11:22:05Z</time>
      </trkpt>
      <trkpt lat="42.2253910" lon="-8.7167900">
        <ele>81.7</ele>
        <time>2021-05-20T11:22:06Z</time>
      </trkpt>
      <trkpt lat="42.2253920" lon="-8.7167910">
        <ele>81.7</ele>
        <time>2021-05-20T11:22:07Z</time>
      </trkpt>
      <trkpt lat="42.2253920" lon="-8.7167920">
        <ele>81.7</ele>
        <time>2021-05-20T11:22:08Z</time>
      </trkpt>
      <trkpt lat="42.2253920" lon="-8.7167920">
        <ele>81.7</ele>
        <time>2021-05-20T11:22:09Z</time>
      </trkpt>
      <trkpt lat="42.2253920" lon="-8.7167930">
        <ele>81.7</ele>
        <time>2021-05-20T11:22:10Z</time>
      </trkpt>
      <trkpt lat="42.2253920" lon="-8.7167940">
        <ele>81.7</ele>
        <time>2021-05-20T11:22:11Z</time>
      </trkpt>
      <trkpt lat="42.2253920" lon="-8.7167950">
        <ele>81.7</ele>
        <time>2021-05-20T11:22:12Z</time>
      </trkpt>
      <trkpt lat="42.2253930" lon="-8.7167960">
        <ele>81.7</ele>
        <time>2021-05-20T11:22:13Z</time>
      </trkpt>
      <trkpt lat="42.2253930" lon="-8.7167970">
        <ele>81.7</ele>
        <time>2021-05-20T11:22:14Z</time>
      </trkpt>
      <trkpt lat="42.2253930" lon="-8.7167980">
        <ele>81.7</ele>
        <time>2021-05-20T11:22:15Z</time>
      </trkpt>
      <trkpt lat="42.2253930" lon="-8.7167980">
        <ele>81.7</ele>
        <time>2021-05-20T11:22:16Z</time>
      </trkpt>
      <trkpt lat="42.2253930" lon="-8.7167990">
        <ele>81.7</ele>
        <time>2021-05-20T11:22:17Z</time>
      </trkpt>
      <trkpt lat="42.2253940" lon="-8.7168000">
        <ele>81.7</ele>
        <time>2021-05-20T11:22:18Z</time>
      </trkpt>
      <trkpt lat="42.2253940" lon="-8.7168010">
        <ele>81.7</ele>
        <time>2021-05-20T11:22:19Z</time>
      </trkpt>
      <trkpt lat="42.2253940" lon="-8.7168020">
        <ele>81.7</ele>
        <time>2021-05-20T11:22:20Z</time>
      </trkpt>
      <trkpt lat="42.2253940" lon="-8.7168030">
        <ele>81.7</ele>
        <time>2021-05-20T11:22:21Z</time>
      </trkpt>
      <trkpt lat="42.2253940" lon="-8.7168030">
        <ele>81.7</ele>
        <time>2021-05-20T11:22:22Z</time>
      </trkpt>
      <trkpt lat="42.2253950" lon="-8.7168040">
        <ele>81.7</ele>
        <time>2021-05-20T11:22:23Z</time>
      </trkpt>
      <trkpt lat="42.2253950" lon="-8.7168050">
        <ele>81.7</ele>
        <time>2021-05-20T11:22:24Z</time>
      </trkpt>
      <trkpt lat="42.2253950" lon="-8.7168060">
        <ele>81.7</ele>
        <time>2021-05-20T11:22:25Z</time>
      </trkpt>
      <trkpt lat="42.2253950" lon="-8.7168070">
        <ele>81.7</ele>
        <time>2021-05-20T11:22:26Z</time>
      </trkpt>
      <trkpt lat="42.2253950" lon="-8.7168080">
        <ele>81.7</ele>
        <time>2021-05-20T11:22:27Z</time>
      </trkpt>
      <trkpt lat="42.2253950" lon="-8.7168080">
        <ele>81.7</ele>
        <time>2021-05-20T11:22:28Z</time>
      </trkpt>
      <trkpt lat="42.2253960" lon="-8.7168090">
        <ele>81.7</ele>
        <time>2021-05-20T11:22:29Z</time>
      </trkpt>
      <trkpt lat="42.2253960" lon="-8.7168100">
        <ele>81.7</ele>
        <time>2021-05-20T11:22:30Z</time>
      </trkpt>
      <trkpt lat="42.2253960" lon="-8.7168110">
        <ele>81.7</ele>
        <time>2021-05-20T11:22:31Z</time>
      </trkpt>
      <trkpt lat="42.2253970" lon="-8.7168110">
        <ele>81.7</ele>
        <time>2021-05-20T11:22:32Z</time>
      </trkpt>
      <trkpt lat="42.2253970" lon="-8.7168100">
        <ele>81.7</ele>
        <time>2021-05-20T11:22:33Z</time>
      </trkpt>
      <trkpt lat="42.2253970" lon="-8.7168100">
        <ele>81.7</ele>
        <time>2021-05-20T11:22:34Z</time>
      </trkpt>
      <trkpt lat="42.2253970" lon="-8.7168100">
        <ele>81.7</ele>
        <time>2021-05-20T11:22:35Z</time>
      </trkpt>
      <trkpt lat="42.2253970" lon="-8.7168100">
        <ele>81.7</ele>
        <time>2021-05-20T11:22:36Z</time>
      </trkpt>
      <trkpt lat="42.2253970" lon="-8.7168100">
        <ele>81.7</ele>
        <time>2021-05-20T11:22:37Z</time>
      </trkpt>
      <trkpt lat="42.2253970" lon="-8.7168100">
        <ele>81.7</ele>
        <time>2021-05-20T11:22:38Z</time>
      </trkpt>
      <trkpt lat="42.2253970" lon="-8.7168100">
        <ele>81.7</ele>
        <time>2021-05-20T11:22:39Z</time>
      </trkpt>
      <trkpt lat="42.2253970" lon="-8.7168100">
        <ele>81.7</ele>
        <time>2021-05-20T11:22:40Z</time>
      </trkpt>
      <trkpt lat="42.2253970" lon="-8.7168100">
        <ele>81.7</ele>
        <time>2021-05-20T11:22:41Z</time>
      </trkpt>
      <trkpt lat="42.2253970" lon="-8.7168100">
        <ele>81.7</ele>
        <time>2021-05-20T11:22:42Z</time>
      </trkpt>
      <trkpt lat="42.2253970" lon="-8.7168100">
        <ele>81.7</ele>
        <time>2021-05-20T11:22:43Z</time>
      </trkpt>
      <trkpt lat="42.2253970" lon="-8.7168100">
        <ele>81.7</ele>
        <time>2021-05-20T11:22:44Z</time>
      </trkpt>
      <trkpt lat="42.2253970" lon="-8.7168100">
        <ele>81.7</ele>
        <time>2021-05-20T11:22:45Z</time>
      </trkpt>
      <trkpt lat="42.2253970" lon="-8.7168100">
        <ele>81.7</ele>
        <time>2021-05-20T11:22:46Z</time>
      </trkpt>
      <trkpt lat="42.2253970" lon="-8.7168100">
        <ele>81.7</ele>
        <time>2021-05-20T11:22:47Z</time>
      </trkpt>
      <trkpt lat="42.2253970" lon="-8.7168100">
        <ele>81.7</ele>
        <time>2021-05-20T11:22:48Z</time>
      </trkpt>
      <trkpt lat="42.2253970" lon="-8.7168100">
        <ele>81.7</ele>
        <time>2021-05-20T11:22:49Z</time>
      </trkpt>
      <trkpt lat="42.2253970" lon="-8.7168100">
        <ele>81.7</ele>
        <time>2021-05-20T11:22:50Z</time>
      </trkpt>
      <trkpt lat="42.2253970" lon="-8.7168100">
        <ele>81.7</ele>
        <time>2021-05-20T11:22:51Z</time>
      </trkpt>
      <trkpt lat="42.2253970" lon="-8.7168100">
        <ele>81.7</ele>
        <time>2021-05-20T11:22:52Z</time>
      </trkpt>
      <trkpt lat="42.2253970" lon="-8.7168100">
        <ele>81.7</ele>
        <time>2021-05-20T11:22:53Z</time>
      </trkpt>
      <trkpt lat="42.2253970" lon="-8.7168100">
        <ele>81.7</ele>
        <time>2021-05-20T11:22:54Z</time>
      </trkpt>
      <trkpt lat="42.2253970" lon="-8.7168100">
        <ele>81.7</ele>
        <time>2021-05-20T11:22:55Z</time>
      </trkpt>
      <trkpt lat="42.2253970" lon="-8.7168100">
        <ele>81.7</ele>
        <time>2021-05-20T11:22:56Z</time>
      </trkpt>
      <trkpt lat="42.2253970" lon="-8.7168100">
        <ele>81.7</ele>
        <time>2021-05-20T11:22:57Z</time>
      </trkpt>
      <trkpt lat="42.2253970" lon="-8.7168100">
        <ele>81.7</ele>
        <time>2021-05-20T11:22:58Z</time>
      </trkpt>
      <trkpt lat="42.2253970" lon="-8.7168100">
        <ele>81.7</ele>
        <time>2021-05-20T11:22:59Z</time>
      </trkpt>
      <trkpt lat="42.2253970" lon="-8.7168100">
        <ele>81.7</ele>
        <time>2021-05-20T11:23:00Z</time>
      </trkpt>
      <trkpt lat="42.2253970" lon="-8.7168100">
        <ele>81.7</ele>
        <time>2021-05-20T11:23:01Z</time>
      </trkpt>
      <trkpt lat="42.2253970" lon="-8.7168100">
        <ele>81.7</ele>
        <time>2021-05-20T11:23:02Z</time>
      </trkpt>
      <trkpt lat="42.2253970" lon="-8.7168100">
        <ele>81.7</ele>
        <time>2021-05-20T11:23:03Z</time>
      </trkpt>
      <trkpt lat="42.2253970" lon="-8.7168100">
        <ele>81.7</ele>
        <time>2021-05-20T11:23:04Z</time>
      </trkpt>
      <trkpt lat="42.2253970" lon="-8.7168100">
        <ele>81.7</ele>
        <time>2021-05-20T11:23:05Z</time>
      </trkpt>
      <trkpt lat="42.2253970" lon="-8.7168100">
        <ele>81.7</ele>
        <time>2021-05-20T11:23:06Z</time>
      </trkpt>
      <trkpt lat="42.2253970" lon="-8.7168100">
        <ele>81.7</ele>
        <time>2021-05-20T11:23:07Z</time>
      </trkpt>
      <trkpt lat="42.2253970" lon="-8.7168100">
        <ele>81.7</ele>
        <time>2021-05-20T11:23:08Z</time>
      </trkpt>
      <trkpt lat="42.2253970" lon="-8.7168100">
        <ele>81.7</ele>
        <time>2021-05-20T11:23:09Z</time>
      </trkpt>
      <trkpt lat="42.2253970" lon="-8.7168100">
        <ele>81.7</ele>
        <time>2021-05-20T11:23:10Z</time>
      </trkpt>
      <trkpt lat="42.2253970" lon="-8.7168100">
        <ele>81.7</ele>
        <time>2021-05-20T11:23:11Z</time>
      </trkpt>
      <trkpt lat="42.2253970" lon="-8.7168100">
        <ele>81.7</ele>
        <time>2021-05-20T11:23:12Z</time>
      </trkpt>
      <trkpt lat="42.2253970" lon="-8.7168100">
        <ele>81.7</ele>
        <time>2021-05-20T11:23:13Z</time>
      </trkpt>
      <trkpt lat="42.2253970" lon="-8.7168100">
        <ele>81.7</ele>
        <time>2021-05-20T11:23:14Z</time>
      </trkpt>
      <trkpt lat="42.2253970" lon="-8.7168100">
        <ele>81.7</ele>
        <time>2021-05-20T11:23:15Z</time>
      </trkpt>
      <trkpt lat="42.2253970" lon="-8.7168100">
        <ele>81.7</ele>
        <time>2021-05-20T11:23:16Z</time>
      </trkpt>
      <trkpt lat="42.2253970" lon="-8.7168100">
        <ele>81.7</ele>
        <time>2021-05-20T11:23:17Z</time>
      </trkpt>
      <trkpt lat="42.2253970" lon="-8.7168100">
        <ele>81.7</ele>
        <time>2021-05-20T11:23:18Z</time>
      </trkpt>
      <trkpt lat="42.2253970" lon="-8.7168100">
        <ele>81.7</ele>
        <time>2021-05-20T11:23:19Z</time>
      </trkpt>
      <trkpt lat="42.2253970" lon="-8.7168100">
        <ele>81.7</ele>
        <time>2021-05-20T11:23:20Z</time>
      </trkpt>
      <trkpt lat="42.2253970" lon="-8.7168100">
        <ele>81.7</ele>
        <time>2021-05-20T11:23:21Z</time>
      </trkpt>
      <trkpt lat="42.2253970" lon="-8.7168100">
        <ele>81.7</ele>
        <time>2021-05-20T11:23:22Z</time>
      </trkpt>
      <trkpt lat="42.2253970" lon="-8.7168100">
        <ele>81.7</ele>
        <time>2021-05-20T11:23:23Z</time>
      </trkpt>
      <trkpt lat="42.2253970" lon="-8.7168100">
        <ele>81.7</ele>
        <time>2021-05-20T11:23:24Z</time>
      </trkpt>
      <trkpt lat="42.2253970" lon="-8.7168100">
        <ele>81.7</ele>
        <time>2021-05-20T11:23:25Z</time>
      </trkpt>
      <trkpt lat="42.2253970" lon="-8.7168100">
        <ele>81.7</ele>
        <time>2021-05-20T11:23:26Z</time>
      </trkpt>
      <trkpt lat="42.2253970" lon="-8.7168100">
        <ele>81.7</ele>
        <time>2021-05-20T11:23:27Z</time>
      </trkpt>
      <trkpt lat="42.2253970" lon="-8.7168100">
        <ele>81.7</ele>
        <time>2021-05-20T11:23:28Z</time>
      </trkpt>
      <trkpt lat="42.2253970" lon="-8.7168100">
        <ele>81.7</ele>
        <time>2021-05-20T11:23:29Z</time>
      </trkpt>
      <trkpt lat="42.2253970" lon="-8.7168100">
        <ele>81.7</ele>
        <time>2021-05-20T11:23:30Z</time>
      </trkpt>
      <trkpt lat="42.2253970" lon="-8.7168100">
        <ele>81.7</ele>
        <time>2021-05-20T11:23:31Z</time>
      </trkpt>
      <trkpt lat="42.2253850" lon="-8.7168020">
        <ele>81.7</ele>
        <time>2021-05-20T11:23:32Z</time>
      </trkpt>
      <trkpt lat="42.2253850" lon="-8.7168020">
        <ele>81.7</ele>
        <time>2021-05-20T11:23:33Z</time>
      </trkpt>
      <trkpt lat="42.2253850" lon="-8.7168020">
        <ele>81.7</ele>
        <time>2021-05-20T11:23:34Z</time>
      </trkpt>
      <trkpt lat="42.2253850" lon="-8.7168020">
        <ele>81.7</ele>
        <time>2021-05-20T11:23:35Z</time>
      </trkpt>
      <trkpt lat="42.2253850" lon="-8.7168020">
        <ele>81.7</ele>
        <time>2021-05-20T11:23:36Z</time>
      </trkpt>
      <trkpt lat="42.2253850" lon="-8.7168020">
        <ele>81.7</ele>
        <time>2021-05-20T11:23:37Z</time>
      </trkpt>
      <trkpt lat="42.2253850" lon="-8.7168020">
        <ele>81.7</ele>
        <time>2021-05-20T11:23:38Z</time>
      </trkpt>
      <trkpt lat="42.2253850" lon="-8.7168020">
        <ele>81.7</ele>
        <time>2021-05-20T11:23:39Z</time>
      </trkpt>
      <trkpt lat="42.2253850" lon="-8.7168020">
        <ele>81.7</ele>
        <time>2021-05-20T11:23:40Z</time>
      </trkpt>
      <trkpt lat="42.2253850" lon="-8.7168020">
        <ele>81.7</ele>
        <time>2021-05-20T11:23:41Z</time>
      </trkpt>
      <trkpt lat="42.2253850" lon="-8.7168020">
        <ele>81.7</ele>
        <time>2021-05-20T11:23:42Z</time>
      </trkpt>
      <trkpt lat="42.2253850" lon="-8.7168020">
        <ele>81.7</ele>
        <time>2021-05-20T11:23:43Z</time>
      </trkpt>
      <trkpt lat="42.2253850" lon="-8.7168020">
        <ele>81.7</ele>
        <time>2021-05-20T11:23:44Z</time>
      </trkpt>
      <trkpt lat="42.2253850" lon="-8.7168020">
        <ele>81.7</ele>
        <time>2021-05-20T11:23:45Z</time>
      </trkpt>
      <trkpt lat="42.2253850" lon="-8.7168020">
        <ele>81.7</ele>
        <time>2021-05-20T11:23:46Z</time>
      </trkpt>
      <trkpt lat="42.2253850" lon="-8.7168020">
        <ele>81.7</ele>
        <time>2021-05-20T11:23:47Z</time>
      </trkpt>
      <trkpt lat="42.2253850" lon="-8.7168020">
        <ele>81.7</ele>
        <time>2021-05-20T11:23:48Z</time>
      </trkpt>
      <trkpt lat="42.2253850" lon="-8.7168020">
        <ele>81.7</ele>
        <time>2021-05-20T11:23:49Z</time>
      </trkpt>
      <trkpt lat="42.2253850" lon="-8.7168020">
        <ele>81.7</ele>
        <time>2021-05-20T11:23:50Z</time>
      </trkpt>
      <trkpt lat="42.2253730" lon="-8.7167950">
        <ele>81.7</ele>
        <time>2021-05-20T11:23:51Z</time>
      </trkpt>
      <trkpt lat="42.2253730" lon="-8.7167960">
        <ele>81.7</ele>
        <time>2021-05-20T11:23:52Z</time>
      </trkpt>
      <trkpt lat="42.2253730" lon="-8.7167960">
        <ele>81.7</ele>
        <time>2021-05-20T11:23:53Z</time>
      </trkpt>
      <trkpt lat="42.2253730" lon="-8.7167960">
        <ele>81.7</ele>
        <time>2021-05-20T11:23:54Z</time>
      </trkpt>
      <trkpt lat="42.2253730" lon="-8.7167960">
        <ele>81.7</ele>
        <time>2021-05-20T11:23:55Z</time>
      </trkpt>
      <trkpt lat="42.2253730" lon="-8.7167960">
        <ele>81.7</ele>
        <time>2021-05-20T11:23:56Z</time>
      </trkpt>
      <trkpt lat="42.2253730" lon="-8.7167960">
        <ele>81.7</ele>
        <time>2021-05-20T11:23:57Z</time>
      </trkpt>
      <trkpt lat="42.2253730" lon="-8.7167960">
        <ele>81.7</ele>
        <time>2021-05-20T11:23:58Z</time>
      </trkpt>
      <trkpt lat="42.2253730" lon="-8.7167960">
        <ele>81.7</ele>
        <time>2021-05-20T11:23:59Z</time>
      </trkpt>
      <trkpt lat="42.2253730" lon="-8.7167960">
        <ele>81.7</ele>
        <time>2021-05-20T11:24:00Z</time>
      </trkpt>
      <trkpt lat="42.2253730" lon="-8.7167960">
        <ele>81.7</ele>
        <time>2021-05-20T11:24:01Z</time>
      </trkpt>
      <trkpt lat="42.2253620" lon="-8.7167940">
        <ele>81.7</ele>
        <time>2021-05-20T11:24:02Z</time>
      </trkpt>
      <trkpt lat="42.2253610" lon="-8.7167940">
        <ele>81.7</ele>
        <time>2021-05-20T11:24:03Z</time>
      </trkpt>
      <trkpt lat="42.2253610" lon="-8.7167940">
        <ele>81.7</ele>
        <time>2021-05-20T11:24:04Z</time>
      </trkpt>
      <trkpt lat="42.2253610" lon="-8.7167940">
        <ele>81.7</ele>
        <time>2021-05-20T11:24:05Z</time>
      </trkpt>
      <trkpt lat="42.2253610" lon="-8.7167940">
        <ele>81.7</ele>
        <time>2021-05-20T11:24:06Z</time>
      </trkpt>
      <trkpt lat="42.2253610" lon="-8.7167940">
        <ele>81.7</ele>
        <time>2021-05-20T11:24:07Z</time>
      </trkpt>
      <trkpt lat="42.2253610" lon="-8.7167940">
        <ele>81.7</ele>
        <time>2021-05-20T11:24:08Z</time>
      </trkpt>
      <trkpt lat="42.2253610" lon="-8.7167940">
        <ele>81.7</ele>
        <time>2021-05-20T11:24:09Z</time>
      </trkpt>
      <trkpt lat="42.2253610" lon="-8.7167940">
        <ele>81.7</ele>
        <time>2021-05-20T11:24:10Z</time>
      </trkpt>
      <trkpt lat="42.2253610" lon="-8.7167940">
        <ele>81.7</ele>
        <time>2021-05-20T11:24:11Z</time>
      </trkpt>
      <trkpt lat="42.2253610" lon="-8.7167940">
        <ele>81.7</ele>
        <time>2021-05-20T11:24:12Z</time>
      </trkpt>
      <trkpt lat="42.2253610" lon="-8.7167940">
        <ele>81.7</ele>
        <time>2021-05-20T11:24:13Z</time>
      </trkpt>
      <trkpt lat="42.2253610" lon="-8.7167940">
        <ele>81.7</ele>
        <time>2021-05-20T11:24:14Z</time>
      </trkpt>
      <trkpt lat="42.2253610" lon="-8.7167940">
        <ele>81.7</ele>
        <time>2021-05-20T11:24:15Z</time>
      </trkpt>
      <trkpt lat="42.2253610" lon="-8.7167940">
        <ele>81.7</ele>
        <time>2021-05-20T11:24:16Z</time>
      </trkpt>
      <trkpt lat="42.2253610" lon="-8.7167940">
        <ele>81.7</ele>
        <time>2021-05-20T11:24:17Z</time>
      </trkpt>
      <trkpt lat="42.2253610" lon="-8.7167940">
        <ele>81.7</ele>
        <time>2021-05-20T11:24:18Z</time>
      </trkpt>
      <trkpt lat="42.2253610" lon="-8.7167940">
        <ele>81.7</ele>
        <time>2021-05-20T11:24:19Z</time>
      </trkpt>
      <trkpt lat="42.2253610" lon="-8.7167940">
        <ele>81.7</ele>
        <time>2021-05-20T11:24:20Z</time>
      </trkpt>
      <trkpt lat="42.2253610" lon="-8.7167940">
        <ele>81.7</ele>
        <time>2021-05-20T11:24:21Z</time>
      </trkpt>
      <trkpt lat="42.2253610" lon="-8.7167940">
        <ele>81.7</ele>
        <time>2021-05-20T11:24:22Z</time>
      </trkpt>
      <trkpt lat="42.2253610" lon="-8.7167940">
        <ele>81.7</ele>
        <time>2021-05-20T11:24:23Z</time>
      </trkpt>
      <trkpt lat="42.2253610" lon="-8.7167940">
        <ele>81.8</ele>
        <time>2021-05-20T11:24:24Z</time>
      </trkpt>
      <trkpt lat="42.2253610" lon="-8.7167940">
        <ele>81.8</ele>
        <time>2021-05-20T11:24:25Z</time>
      </trkpt>
      <trkpt lat="42.2253610" lon="-8.7167940">
        <ele>81.8</ele>
        <time>2021-05-20T11:24:26Z</time>
      </trkpt>
      <trkpt lat="42.2253610" lon="-8.7167940">
        <ele>81.8</ele>
        <time>2021-05-20T11:24:27Z</time>
      </trkpt>
      <trkpt lat="42.2253610" lon="-8.7167940">
        <ele>81.8</ele>
        <time>2021-05-20T11:24:28Z</time>
      </trkpt>
      <trkpt lat="42.2253610" lon="-8.7167940">
        <ele>81.8</ele>
        <time>2021-05-20T11:24:29Z</time>
      </trkpt>
      <trkpt lat="42.2253610" lon="-8.7167940">
        <ele>81.8</ele>
        <time>2021-05-20T11:24:30Z</time>
      </trkpt>
      <trkpt lat="42.2253610" lon="-8.7167940">
        <ele>81.8</ele>
        <time>2021-05-20T11:24:31Z</time>
      </trkpt>
      <trkpt lat="42.2253610" lon="-8.7167940">
        <ele>81.8</ele>
        <time>2021-05-20T11:24:32Z</time>
      </trkpt>
      <trkpt lat="42.2253610" lon="-8.7167940">
        <ele>81.8</ele>
        <time>2021-05-20T11:24:33Z</time>
      </trkpt>
      <trkpt lat="42.2253610" lon="-8.7167940">
        <ele>81.8</ele>
        <time>2021-05-20T11:24:34Z</time>
      </trkpt>
      <trkpt lat="42.2253610" lon="-8.7167940">
        <ele>81.8</ele>
        <time>2021-05-20T11:24:35Z</time>
      </trkpt>
      <trkpt lat="42.2253610" lon="-8.7167940">
        <ele>81.8</ele>
        <time>2021-05-20T11:24:36Z</time>
      </trkpt>
      <trkpt lat="42.2253610" lon="-8.7167940">
        <ele>81.8</ele>
        <time>2021-05-20T11:24:37Z</time>
      </trkpt>
      <trkpt lat="42.2253610" lon="-8.7167940">
        <ele>81.8</ele>
        <time>2021-05-20T11:24:38Z</time>
      </trkpt>
      <trkpt lat="42.2253610" lon="-8.7167940">
        <ele>81.8</ele>
        <time>2021-05-20T11:24:39Z</time>
      </trkpt>
      <trkpt lat="42.2253610" lon="-8.7167940">
        <ele>81.8</ele>
        <time>2021-05-20T11:24:40Z</time>
      </trkpt>
      <trkpt lat="42.2253610" lon="-8.7167940">
        <ele>81.8</ele>
        <time>2021-05-20T11:24:41Z</time>
      </trkpt>
      <trkpt lat="42.2253610" lon="-8.7167940">
        <ele>81.8</ele>
        <time>2021-05-20T11:24:42Z</time>
      </trkpt>
      <trkpt lat="42.2253610" lon="-8.7167940">
        <ele>81.8</ele>
        <time>2021-05-20T11:24:43Z</time>
      </trkpt>
      <trkpt lat="42.2253610" lon="-8.7167940">
        <ele>81.8</ele>
        <time>2021-05-20T11:24:44Z</time>
      </trkpt>
      <trkpt lat="42.2253610" lon="-8.7167940">
        <ele>81.8</ele>
        <time>2021-05-20T11:24:45Z</time>
      </trkpt>
      <trkpt lat="42.2253610" lon="-8.7167940">
        <ele>81.8</ele>
        <time>2021-05-20T11:24:46Z</time>
      </trkpt>
      <trkpt lat="42.2253610" lon="-8.7167940">
        <ele>81.8</ele>
        <time>2021-05-20T11:24:47Z</time>
      </trkpt>
      <trkpt lat="42.2253610" lon="-8.7167940">
        <ele>81.8</ele>
        <time>2021-05-20T11:24:48Z</time>
      </trkpt>
      <trkpt lat="42.2253610" lon="-8.7167940">
        <ele>81.8</ele>
        <time>2021-05-20T11:24:49Z</time>
      </trkpt>
      <trkpt lat="42.2253610" lon="-8.7167940">
        <ele>81.8</ele>
        <time>2021-05-20T11:24:50Z</time>
      </trkpt>
      <trkpt lat="42.2253610" lon="-8.7167940">
        <ele>81.8</ele>
        <time>2021-05-20T11:24:51Z</time>
      </trkpt>
      <trkpt lat="42.2253610" lon="-8.7167940">
        <ele>81.8</ele>
        <time>2021-05-20T11:24:52Z</time>
      </trkpt>
      <trkpt lat="42.2253610" lon="-8.7167940">
        <ele>81.8</ele>
        <time>2021-05-20T11:24:53Z</time>
      </trkpt>
      <trkpt lat="42.2253610" lon="-8.7167940">
        <ele>81.8</ele>
        <time>2021-05-20T11:24:54Z</time>
      </trkpt>
      <trkpt lat="42.2253610" lon="-8.7167940">
        <ele>81.8</ele>
        <time>2021-05-20T11:24:55Z</time>
      </trkpt>
      <trkpt lat="42.2253610" lon="-8.7167940">
        <ele>81.8</ele>
        <time>2021-05-20T11:24:56Z</time>
      </trkpt>
      <trkpt lat="42.2253610" lon="-8.7167940">
        <ele>81.8</ele>
        <time>2021-05-20T11:24:57Z</time>
      </trkpt>
      <trkpt lat="42.2253610" lon="-8.7167940">
        <ele>81.8</ele>
        <time>2021-05-20T11:24:58Z</time>
      </trkpt>
      <trkpt lat="42.2253610" lon="-8.7167940">
        <ele>81.8</ele>
        <time>2021-05-20T11:24:59Z</time>
      </trkpt>
      <trkpt lat="42.2253610" lon="-8.7167940">
        <ele>81.8</ele>
        <time>2021-05-20T11:25:00Z</time>
      </trkpt>
      <trkpt lat="42.2253610" lon="-8.7167940">
        <ele>81.8</ele>
        <time>2021-05-20T11:25:01Z</time>
      </trkpt>
      <trkpt lat="42.2253610" lon="-8.7167940">
        <ele>81.8</ele>
        <time>2021-05-20T11:25:02Z</time>
      </trkpt>
      <trkpt lat="42.2253610" lon="-8.7167940">
        <ele>81.8</ele>
        <time>2021-05-20T11:25:03Z</time>
      </trkpt>
      <trkpt lat="42.2253610" lon="-8.7167940">
        <ele>81.8</ele>
        <time>2021-05-20T11:25:04Z</time>
      </trkpt>
      <trkpt lat="42.2253610" lon="-8.7167940">
        <ele>81.8</ele>
        <time>2021-05-20T11:25:05Z</time>
      </trkpt>
      <trkpt lat="42.2253610" lon="-8.7167940">
        <ele>81.8</ele>
        <time>2021-05-20T11:25:06Z</time>
      </trkpt>
      <trkpt lat="42.2253610" lon="-8.7167940">
        <ele>81.8</ele>
        <time>2021-05-20T11:25:07Z</time>
      </trkpt>
      <trkpt lat="42.2253610" lon="-8.7167940">
        <ele>81.8</ele>
        <time>2021-05-20T11:25:08Z</time>
      </trkpt>
      <trkpt lat="42.2253610" lon="-8.7167940">
        <ele>81.8</ele>
        <time>2021-05-20T11:25:09Z</time>
      </trkpt>
      <trkpt lat="42.2253610" lon="-8.7167940">
        <ele>81.8</ele>
        <time>2021-05-20T11:25:10Z</time>
      </trkpt>
      <trkpt lat="42.2253610" lon="-8.7167940">
        <ele>81.8</ele>
        <time>2021-05-20T11:25:11Z</time>
      </trkpt>
      <trkpt lat="42.2253610" lon="-8.7167940">
        <ele>81.8</ele>
        <time>2021-05-20T11:25:12Z</time>
      </trkpt>
      <trkpt lat="42.2253610" lon="-8.7167940">
        <ele>81.8</ele>
        <time>2021-05-20T11:25:13Z</time>
      </trkpt>
      <trkpt lat="42.2253610" lon="-8.7167940">
        <ele>81.8</ele>
        <time>2021-05-20T11:25:14Z</time>
      </trkpt>
      <trkpt lat="42.2253610" lon="-8.7167940">
        <ele>81.8</ele>
        <time>2021-05-20T11:25:15Z</time>
      </trkpt>
      <trkpt lat="42.2253610" lon="-8.7167940">
        <ele>81.8</ele>
        <time>2021-05-20T11:25:16Z</time>
      </trkpt>
      <trkpt lat="42.2253610" lon="-8.7167940">
        <ele>81.8</ele>
        <time>2021-05-20T11:25:17Z</time>
      </trkpt>
      <trkpt lat="42.2253610" lon="-8.7167940">
        <ele>81.8</ele>
        <time>2021-05-20T11:25:18Z</time>
      </trkpt>
      <trkpt lat="42.2253610" lon="-8.7167940">
        <ele>81.8</ele>
        <time>2021-05-20T11:25:19Z</time>
      </trkpt>
      <trkpt lat="42.2253610" lon="-8.7167940">
        <ele>81.8</ele>
        <time>2021-05-20T11:25:20Z</time>
      </trkpt>
      <trkpt lat="42.2253610" lon="-8.7167940">
        <ele>81.8</ele>
        <time>2021-05-20T11:25:21Z</time>
      </trkpt>
      <trkpt lat="42.2253610" lon="-8.7167940">
        <ele>81.8</ele>
        <time>2021-05-20T11:25:22Z</time>
      </trkpt>
      <trkpt lat="42.2253610" lon="-8.7167940">
        <ele>81.8</ele>
        <time>2021-05-20T11:25:23Z</time>
      </trkpt>
      <trkpt lat="42.2253610" lon="-8.7167940">
        <ele>81.8</ele>
        <time>2021-05-20T11:25:24Z</time>
      </trkpt>
      <trkpt lat="42.2253610" lon="-8.7167940">
        <ele>81.8</ele>
        <time>2021-05-20T11:25:25Z</time>
      </trkpt>
      <trkpt lat="42.2253610" lon="-8.7167940">
        <ele>81.8</ele>
        <time>2021-05-20T11:25:26Z</time>
      </trkpt>
      <trkpt lat="42.2253610" lon="-8.7167940">
        <ele>81.8</ele>
        <time>2021-05-20T11:25:27Z</time>
      </trkpt>
      <trkpt lat="42.2253610" lon="-8.7167940">
        <ele>81.8</ele>
        <time>2021-05-20T11:25:28Z</time>
      </trkpt>
      <trkpt lat="42.2253610" lon="-8.7167940">
        <ele>81.8</ele>
        <time>2021-05-20T11:25:29Z</time>
      </trkpt>
      <trkpt lat="42.2253610" lon="-8.7167940">
        <ele>81.8</ele>
        <time>2021-05-20T11:25:30Z</time>
      </trkpt>
      <trkpt lat="42.2253610" lon="-8.7167940">
        <ele>81.8</ele>
        <time>2021-05-20T11:25:31Z</time>
      </trkpt>
      <trkpt lat="42.2253610" lon="-8.7167940">
        <ele>81.8</ele>
        <time>2021-05-20T11:25:32Z</time>
      </trkpt>
      <trkpt lat="42.2253610" lon="-8.7167940">
        <ele>81.8</ele>
        <time>2021-05-20T11:25:33Z</time>
      </trkpt>
      <trkpt lat="42.2253610" lon="-8.7167940">
        <ele>81.8</ele>
        <time>2021-05-20T11:25:34Z</time>
      </trkpt>
      <trkpt lat="42.2253610" lon="-8.7167940">
        <ele>81.8</ele>
        <time>2021-05-20T11:25:35Z</time>
      </trkpt>
      <trkpt lat="42.2253610" lon="-8.7167940">
        <ele>81.8</ele>
        <time>2021-05-20T11:25:36Z</time>
      </trkpt>
      <trkpt lat="42.2253610" lon="-8.7167940">
        <ele>81.8</ele>
        <time>2021-05-20T11:25:37Z</time>
      </trkpt>
      <trkpt lat="42.2253610" lon="-8.7167940">
        <ele>81.8</ele>
        <time>2021-05-20T11:25:38Z</time>
      </trkpt>
      <trkpt lat="42.2253610" lon="-8.7167940">
        <ele>81.8</ele>
        <time>2021-05-20T11:25:39Z</time>
      </trkpt>
      <trkpt lat="42.2253610" lon="-8.7167940">
        <ele>81.8</ele>
        <time>2021-05-20T11:25:40Z</time>
      </trkpt>
      <trkpt lat="42.2253610" lon="-8.7167940">
        <ele>81.8</ele>
        <time>2021-05-20T11:25:41Z</time>
      </trkpt>
      <trkpt lat="42.2253610" lon="-8.7167940">
        <ele>81.8</ele>
        <time>2021-05-20T11:25:42Z</time>
      </trkpt>
      <trkpt lat="42.2253610" lon="-8.7167940">
        <ele>81.8</ele>
        <time>2021-05-20T11:25:43Z</time>
      </trkpt>
      <trkpt lat="42.2253610" lon="-8.7167940">
        <ele>81.8</ele>
        <time>2021-05-20T11:25:44Z</time>
      </trkpt>
      <trkpt lat="42.2253610" lon="-8.7167940">
        <ele>81.8</ele>
        <time>2021-05-20T11:25:45Z</time>
      </trkpt>
      <trkpt lat="42.2253610" lon="-8.7167940">
        <ele>81.8</ele>
        <time>2021-05-20T11:25:46Z</time>
      </trkpt>
      <trkpt lat="42.2253610" lon="-8.7167940">
        <ele>81.8</ele>
        <time>2021-05-20T11:25:47Z</time>
      </trkpt>
      <trkpt lat="42.2253610" lon="-8.7167940">
        <ele>81.8</ele>
        <time>2021-05-20T11:25:48Z</time>
      </trkpt>
      <trkpt lat="42.2253610" lon="-8.7167940">
        <ele>81.8</ele>
        <time>2021-05-20T11:25:49Z</time>
      </trkpt>
      <trkpt lat="42.2253610" lon="-8.7167940">
        <ele>81.8</ele>
        <time>2021-05-20T11:25:50Z</time>
      </trkpt>
      <trkpt lat="42.2253610" lon="-8.7167940">
        <ele>81.8</ele>
        <time>2021-05-20T11:25:51Z</time>
      </trkpt>
      <trkpt lat="42.2253610" lon="-8.7167940">
        <ele>81.8</ele>
        <time>2021-05-20T11:25:52Z</time>
      </trkpt>
      <trkpt lat="42.2253610" lon="-8.7167940">
        <ele>81.8</ele>
        <time>2021-05-20T11:25:53Z</time>
      </trkpt>
      <trkpt lat="42.2253610" lon="-8.7167940">
        <ele>81.8</ele>
        <time>2021-05-20T11:25:54Z</time>
      </trkpt>
      <trkpt lat="42.2253610" lon="-8.7167940">
        <ele>81.8</ele>
        <time>2021-05-20T11:25:55Z</time>
      </trkpt>
      <trkpt lat="42.2253610" lon="-8.7167940">
        <ele>81.8</ele>
        <time>2021-05-20T11:25:56Z</time>
      </trkpt>
      <trkpt lat="42.2253610" lon="-8.7167940">
        <ele>81.8</ele>
        <time>2021-05-20T11:25:57Z</time>
      </trkpt>
      <trkpt lat="42.2253610" lon="-8.7167940">
        <ele>81.8</ele>
        <time>2021-05-20T11:25:58Z</time>
      </trkpt>
      <trkpt lat="42.2253610" lon="-8.7167940">
        <ele>81.8</ele>
        <time>2021-05-20T11:25:59Z</time>
      </trkpt>
      <trkpt lat="42.2253610" lon="-8.7167940">
        <ele>81.8</ele>
        <time>2021-05-20T11:26:00Z</time>
      </trkpt>
      <trkpt lat="42.2253610" lon="-8.7167940">
        <ele>81.8</ele>
        <time>2021-05-20T11:26:01Z</time>
      </trkpt>
      <trkpt lat="42.2253610" lon="-8.7167940">
        <ele>81.8</ele>
        <time>2021-05-20T11:26:02Z</time>
      </trkpt>
      <trkpt lat="42.2253610" lon="-8.7167940">
        <ele>81.8</ele>
        <time>2021-05-20T11:26:03Z</time>
      </trkpt>
      <trkpt lat="42.2253610" lon="-8.7167940">
        <ele>81.8</ele>
        <time>2021-05-20T11:26:04Z</time>
      </trkpt>
      <trkpt lat="42.2253610" lon="-8.7167940">
        <ele>81.8</ele>
        <time>2021-05-20T11:26:05Z</time>
      </trkpt>
      <trkpt lat="42.2253610" lon="-8.7167940">
        <ele>81.8</ele>
        <time>2021-05-20T11:26:06Z</time>
      </trkpt>
      <trkpt lat="42.2253610" lon="-8.7167940">
        <ele>81.8</ele>
        <time>2021-05-20T11:26:07Z</time>
      </trkpt>
      <trkpt lat="42.2253610" lon="-8.7167940">
        <ele>81.8</ele>
        <time>2021-05-20T11:26:08Z</time>
      </trkpt>
      <trkpt lat="42.2253610" lon="-8.7167940">
        <ele>81.8</ele>
        <time>2021-05-20T11:26:09Z</time>
      </trkpt>
      <trkpt lat="42.2253610" lon="-8.7167940">
        <ele>81.8</ele>
        <time>2021-05-20T11:26:10Z</time>
      </trkpt>
      <trkpt lat="42.2253610" lon="-8.7167940">
        <ele>81.8</ele>
        <time>2021-05-20T11:26:11Z</time>
      </trkpt>
      <trkpt lat="42.2253570" lon="-8.7168030">
        <ele>81.8</ele>
        <time>2021-05-20T11:26:12Z</time>
      </trkpt>
      <trkpt lat="42.2253560" lon="-8.7168030">
        <ele>81.8</ele>
        <time>2021-05-20T11:26:13Z</time>
      </trkpt>
      <trkpt lat="42.2253560" lon="-8.7168030">
        <ele>81.8</ele>
        <time>2021-05-20T11:26:14Z</time>
      </trkpt>
      <trkpt lat="42.2253560" lon="-8.7168030">
        <ele>81.8</ele>
        <time>2021-05-20T11:26:15Z</time>
      </trkpt>
      <trkpt lat="42.2253560" lon="-8.7168030">
        <ele>81.8</ele>
        <time>2021-05-20T11:26:16Z</time>
      </trkpt>
      <trkpt lat="42.2253560" lon="-8.7168030">
        <ele>81.8</ele>
        <time>2021-05-20T11:26:17Z</time>
      </trkpt>
      <trkpt lat="42.2253560" lon="-8.7168030">
        <ele>81.8</ele>
        <time>2021-05-20T11:26:18Z</time>
      </trkpt>
      <trkpt lat="42.2253560" lon="-8.7168030">
        <ele>81.8</ele>
        <time>2021-05-20T11:26:19Z</time>
      </trkpt>
      <trkpt lat="42.2253560" lon="-8.7168030">
        <ele>81.8</ele>
        <time>2021-05-20T11:26:20Z</time>
      </trkpt>
      <trkpt lat="42.2253560" lon="-8.7168030">
        <ele>81.8</ele>
        <time>2021-05-20T11:26:21Z</time>
      </trkpt>
      <trkpt lat="42.2253550" lon="-8.7168040">
        <ele>81.8</ele>
        <time>2021-05-20T11:26:22Z</time>
      </trkpt>
      <trkpt lat="42.2253550" lon="-8.7168040">
        <ele>81.8</ele>
        <time>2021-05-20T11:26:23Z</time>
      </trkpt>
      <trkpt lat="42.2253550" lon="-8.7168040">
        <ele>81.8</ele>
        <time>2021-05-20T11:26:24Z</time>
      </trkpt>
      <trkpt lat="42.2253550" lon="-8.7168040">
        <ele>81.8</ele>
        <time>2021-05-20T11:26:25Z</time>
      </trkpt>
      <trkpt lat="42.2253550" lon="-8.7168040">
        <ele>81.8</ele>
        <time>2021-05-20T11:26:26Z</time>
      </trkpt>
      <trkpt lat="42.2253550" lon="-8.7168040">
        <ele>81.8</ele>
        <time>2021-05-20T11:26:27Z</time>
      </trkpt>
      <trkpt lat="42.2253550" lon="-8.7168040">
        <ele>81.8</ele>
        <time>2021-05-20T11:26:28Z</time>
      </trkpt>
      <trkpt lat="42.2253550" lon="-8.7168040">
        <ele>81.8</ele>
        <time>2021-05-20T11:26:29Z</time>
      </trkpt>
      <trkpt lat="42.2253550" lon="-8.7168040">
        <ele>81.8</ele>
        <time>2021-05-20T11:26:30Z</time>
      </trkpt>
      <trkpt lat="42.2253530" lon="-8.7167990">
        <ele>81.8</ele>
        <time>2021-05-20T11:26:31Z</time>
      </trkpt>
      <trkpt lat="42.2253530" lon="-8.7167990">
        <ele>81.8</ele>
        <time>2021-05-20T11:26:32Z</time>
      </trkpt>
      <trkpt lat="42.2253530" lon="-8.7167990">
        <ele>81.8</ele>
        <time>2021-05-20T11:26:33Z</time>
      </trkpt>
      <trkpt lat="42.2253530" lon="-8.7167990">
        <ele>81.8</ele>
        <time>2021-05-20T11:26:34Z</time>
      </trkpt>
      <trkpt lat="42.2253530" lon="-8.7167990">
        <ele>81.8</ele>
        <time>2021-05-20T11:26:35Z</time>
      </trkpt>
      <trkpt lat="42.2253530" lon="-8.7167990">
        <ele>81.8</ele>
        <time>2021-05-20T11:26:36Z</time>
      </trkpt>
      <trkpt lat="42.2253530" lon="-8.7167990">
        <ele>81.8</ele>
        <time>2021-05-20T11:26:37Z</time>
      </trkpt>
      <trkpt lat="42.2253530" lon="-8.7167990">
        <ele>81.8</ele>
        <time>2021-05-20T11:26:38Z</time>
      </trkpt>
      <trkpt lat="42.2253530" lon="-8.7167990">
        <ele>81.8</ele>
        <time>2021-05-20T11:26:39Z</time>
      </trkpt>
      <trkpt lat="42.2253530" lon="-8.7167990">
        <ele>81.8</ele>
        <time>2021-05-20T11:26:40Z</time>
      </trkpt>
      <trkpt lat="42.2253530" lon="-8.7167990">
        <ele>81.8</ele>
        <time>2021-05-20T11:26:41Z</time>
      </trkpt>
      <trkpt lat="42.2253530" lon="-8.7167990">
        <ele>81.8</ele>
        <time>2021-05-20T11:26:42Z</time>
      </trkpt>
      <trkpt lat="42.2253530" lon="-8.7167990">
        <ele>81.8</ele>
        <time>2021-05-20T11:26:43Z</time>
      </trkpt>
      <trkpt lat="42.2253530" lon="-8.7167990">
        <ele>81.8</ele>
        <time>2021-05-20T11:26:44Z</time>
      </trkpt>
      <trkpt lat="42.2253530" lon="-8.7167990">
        <ele>81.8</ele>
        <time>2021-05-20T11:26:45Z</time>
      </trkpt>
      <trkpt lat="42.2253530" lon="-8.7167990">
        <ele>81.8</ele>
        <time>2021-05-20T11:26:46Z</time>
      </trkpt>
      <trkpt lat="42.2253530" lon="-8.7167990">
        <ele>81.8</ele>
        <time>2021-05-20T11:26:47Z</time>
      </trkpt>
      <trkpt lat="42.2253530" lon="-8.7167990">
        <ele>81.8</ele>
        <time>2021-05-20T11:26:48Z</time>
      </trkpt>
      <trkpt lat="42.2253530" lon="-8.7167990">
        <ele>81.8</ele>
        <time>2021-05-20T11:26:49Z</time>
      </trkpt>
      <trkpt lat="42.2253530" lon="-8.7167990">
        <ele>81.8</ele>
        <time>2021-05-20T11:26:50Z</time>
      </trkpt>
      <trkpt lat="42.2253530" lon="-8.7167990">
        <ele>81.8</ele>
        <time>2021-05-20T11:26:51Z</time>
      </trkpt>
      <trkpt lat="42.2253530" lon="-8.7167990">
        <ele>81.8</ele>
        <time>2021-05-20T11:26:52Z</time>
      </trkpt>
      <trkpt lat="42.2253530" lon="-8.7167990">
        <ele>81.8</ele>
        <time>2021-05-20T11:26:53Z</time>
      </trkpt>
      <trkpt lat="42.2253530" lon="-8.7167990">
        <ele>81.8</ele>
        <time>2021-05-20T11:26:54Z</time>
      </trkpt>
      <trkpt lat="42.2253530" lon="-8.7167990">
        <ele>81.8</ele>
        <time>2021-05-20T11:26:55Z</time>
      </trkpt>
      <trkpt lat="42.2253530" lon="-8.7167990">
        <ele>81.8</ele>
        <time>2021-05-20T11:26:56Z</time>
      </trkpt>
      <trkpt lat="42.2253530" lon="-8.7167990">
        <ele>81.8</ele>
        <time>2021-05-20T11:26:57Z</time>
      </trkpt>
      <trkpt lat="42.2253530" lon="-8.7167990">
        <ele>81.8</ele>
        <time>2021-05-20T11:26:58Z</time>
      </trkpt>
      <trkpt lat="42.2253530" lon="-8.7167990">
        <ele>81.8</ele>
        <time>2021-05-20T11:26:59Z</time>
      </trkpt>
      <trkpt lat="42.2253530" lon="-8.7167990">
        <ele>81.8</ele>
        <time>2021-05-20T11:27:00Z</time>
      </trkpt>
      <trkpt lat="42.2253530" lon="-8.7167990">
        <ele>81.8</ele>
        <time>2021-05-20T11:27:01Z</time>
      </trkpt>
      <trkpt lat="42.2253530" lon="-8.7167990">
        <ele>81.8</ele>
        <time>2021-05-20T11:27:02Z</time>
      </trkpt>
      <trkpt lat="42.2253490" lon="-8.7168150">
        <ele>81.8</ele>
        <time>2021-05-20T11:27:03Z</time>
      </trkpt>
      <trkpt lat="42.2253480" lon="-8.7168150">
        <ele>81.8</ele>
        <time>2021-05-20T11:27:04Z</time>
      </trkpt>
      <trkpt lat="42.2253480" lon="-8.7168150">
        <ele>81.8</ele>
        <time>2021-05-20T11:27:05Z</time>
      </trkpt>
      <trkpt lat="42.2253480" lon="-8.7168150">
        <ele>81.8</ele>
        <time>2021-05-20T11:27:06Z</time>
      </trkpt>
      <trkpt lat="42.2253480" lon="-8.7168150">
        <ele>81.8</ele>
        <time>2021-05-20T11:27:07Z</time>
      </trkpt>
      <trkpt lat="42.2253480" lon="-8.7168150">
        <ele>81.8</ele>
        <time>2021-05-20T11:27:08Z</time>
      </trkpt>
      <trkpt lat="42.2253480" lon="-8.7168150">
        <ele>81.8</ele>
        <time>2021-05-20T11:27:09Z</time>
      </trkpt>
      <trkpt lat="42.2253480" lon="-8.7168150">
        <ele>81.8</ele>
        <time>2021-05-20T11:27:10Z</time>
      </trkpt>
      <trkpt lat="42.2253480" lon="-8.7168150">
        <ele>81.8</ele>
        <time>2021-05-20T11:27:11Z</time>
      </trkpt>
      <trkpt lat="42.2253480" lon="-8.7168150">
        <ele>81.8</ele>
        <time>2021-05-20T11:27:12Z</time>
      </trkpt>
      <trkpt lat="42.2253480" lon="-8.7168150">
        <ele>81.8</ele>
        <time>2021-05-20T11:27:13Z</time>
      </trkpt>
      <trkpt lat="42.2253480" lon="-8.7168150">
        <ele>81.8</ele>
        <time>2021-05-20T11:27:14Z</time>
      </trkpt>
      <trkpt lat="42.2253480" lon="-8.7168150">
        <ele>81.8</ele>
        <time>2021-05-20T11:27:15Z</time>
      </trkpt>
      <trkpt lat="42.2253480" lon="-8.7168150">
        <ele>81.8</ele>
        <time>2021-05-20T11:27:16Z</time>
      </trkpt>
      <trkpt lat="42.2253480" lon="-8.7168150">
        <ele>81.8</ele>
        <time>2021-05-20T11:27:17Z</time>
      </trkpt>
      <trkpt lat="42.2253480" lon="-8.7168150">
        <ele>81.8</ele>
        <time>2021-05-20T11:27:18Z</time>
      </trkpt>
      <trkpt lat="42.2253480" lon="-8.7168150">
        <ele>81.8</ele>
        <time>2021-05-20T11:27:19Z</time>
      </trkpt>
      <trkpt lat="42.2253480" lon="-8.7168150">
        <ele>81.8</ele>
        <time>2021-05-20T11:27:20Z</time>
      </trkpt>
      <trkpt lat="42.2253480" lon="-8.7168150">
        <ele>81.8</ele>
        <time>2021-05-20T11:27:21Z</time>
      </trkpt>
      <trkpt lat="42.2253480" lon="-8.7168150">
        <ele>81.8</ele>
        <time>2021-05-20T11:27:22Z</time>
      </trkpt>
      <trkpt lat="42.2253480" lon="-8.7168150">
        <ele>81.8</ele>
        <time>2021-05-20T11:27:23Z</time>
      </trkpt>
      <trkpt lat="42.2253480" lon="-8.7168150">
        <ele>81.8</ele>
        <time>2021-05-20T11:27:24Z</time>
      </trkpt>
      <trkpt lat="42.2253480" lon="-8.7168150">
        <ele>81.8</ele>
        <time>2021-05-20T11:27:25Z</time>
      </trkpt>
      <trkpt lat="42.2253480" lon="-8.7168150">
        <ele>81.8</ele>
        <time>2021-05-20T11:27:26Z</time>
      </trkpt>
      <trkpt lat="42.2253480" lon="-8.7168150">
        <ele>81.8</ele>
        <time>2021-05-20T11:27:27Z</time>
      </trkpt>
      <trkpt lat="42.2253480" lon="-8.7168150">
        <ele>81.8</ele>
        <time>2021-05-20T11:27:28Z</time>
      </trkpt>
      <trkpt lat="42.2253480" lon="-8.7168150">
        <ele>81.8</ele>
        <time>2021-05-20T11:27:29Z</time>
      </trkpt>
      <trkpt lat="42.2253480" lon="-8.7168150">
        <ele>81.8</ele>
        <time>2021-05-20T11:27:30Z</time>
      </trkpt>
      <trkpt lat="42.2253480" lon="-8.7168150">
        <ele>81.8</ele>
        <time>2021-05-20T11:27:31Z</time>
      </trkpt>
      <trkpt lat="42.2253480" lon="-8.7168150">
        <ele>81.8</ele>
        <time>2021-05-20T11:27:32Z</time>
      </trkpt>
      <trkpt lat="42.2253480" lon="-8.7168150">
        <ele>81.8</ele>
        <time>2021-05-20T11:27:33Z</time>
      </trkpt>
      <trkpt lat="42.2253480" lon="-8.7168150">
        <ele>81.8</ele>
        <time>2021-05-20T11:27:34Z</time>
      </trkpt>
      <trkpt lat="42.2253480" lon="-8.7168150">
        <ele>81.8</ele>
        <time>2021-05-20T11:27:35Z</time>
      </trkpt>
      <trkpt lat="42.2253470" lon="-8.7168080">
        <ele>81.8</ele>
        <time>2021-05-20T11:27:36Z</time>
      </trkpt>
      <trkpt lat="42.2253470" lon="-8.7168080">
        <ele>81.8</ele>
        <time>2021-05-20T11:27:37Z</time>
      </trkpt>
      <trkpt lat="42.2253470" lon="-8.7168080">
        <ele>81.8</ele>
        <time>2021-05-20T11:27:38Z</time>
      </trkpt>
      <trkpt lat="42.2253470" lon="-8.7168080">
        <ele>81.8</ele>
        <time>2021-05-20T11:27:39Z</time>
      </trkpt>
      <trkpt lat="42.2253470" lon="-8.7168080">
        <ele>81.8</ele>
        <time>2021-05-20T11:27:40Z</time>
      </trkpt>
      <trkpt lat="42.2253470" lon="-8.7168080">
        <ele>81.8</ele>
        <time>2021-05-20T11:27:41Z</time>
      </trkpt>
      <trkpt lat="42.2253470" lon="-8.7168080">
        <ele>81.8</ele>
        <time>2021-05-20T11:27:42Z</time>
      </trkpt>
      <trkpt lat="42.2253470" lon="-8.7168080">
        <ele>81.8</ele>
        <time>2021-05-20T11:27:43Z</time>
      </trkpt>
      <trkpt lat="42.2253470" lon="-8.7168080">
        <ele>81.8</ele>
        <time>2021-05-20T11:27:44Z</time>
      </trkpt>
      <trkpt lat="42.2253470" lon="-8.7168080">
        <ele>81.8</ele>
        <time>2021-05-20T11:27:45Z</time>
      </trkpt>
      <trkpt lat="42.2253470" lon="-8.7168080">
        <ele>81.8</ele>
        <time>2021-05-20T11:27:46Z</time>
      </trkpt>
      <trkpt lat="42.2253470" lon="-8.7168080">
        <ele>81.8</ele>
        <time>2021-05-20T11:27:47Z</time>
      </trkpt>
      <trkpt lat="42.2253470" lon="-8.7168080">
        <ele>81.8</ele>
        <time>2021-05-20T11:27:48Z</time>
      </trkpt>
      <trkpt lat="42.2253470" lon="-8.7168080">
        <ele>81.8</ele>
        <time>2021-05-20T11:27:49Z</time>
      </trkpt>
      <trkpt lat="42.2253470" lon="-8.7168080">
        <ele>81.8</ele>
        <time>2021-05-20T11:27:50Z</time>
      </trkpt>
      <trkpt lat="42.2253470" lon="-8.7168080">
        <ele>81.8</ele>
        <time>2021-05-20T11:27:51Z</time>
      </trkpt>
      <trkpt lat="42.2253470" lon="-8.7168080">
        <ele>81.8</ele>
        <time>2021-05-20T11:27:52Z</time>
      </trkpt>
      <trkpt lat="42.2253470" lon="-8.7168080">
        <ele>81.8</ele>
        <time>2021-05-20T11:27:53Z</time>
      </trkpt>
      <trkpt lat="42.2253470" lon="-8.7168080">
        <ele>81.8</ele>
        <time>2021-05-20T11:27:54Z</time>
      </trkpt>
      <trkpt lat="42.2253470" lon="-8.7168080">
        <ele>81.8</ele>
        <time>2021-05-20T11:27:55Z</time>
      </trkpt>
      <trkpt lat="42.2253470" lon="-8.7168080">
        <ele>81.8</ele>
        <time>2021-05-20T11:27:56Z</time>
      </trkpt>
      <trkpt lat="42.2253470" lon="-8.7168080">
        <ele>81.8</ele>
        <time>2021-05-20T11:27:57Z</time>
      </trkpt>
      <trkpt lat="42.2253470" lon="-8.7168080">
        <ele>81.8</ele>
        <time>2021-05-20T11:27:58Z</time>
      </trkpt>
      <trkpt lat="42.2253470" lon="-8.7168080">
        <ele>81.8</ele>
        <time>2021-05-20T11:27:59Z</time>
      </trkpt>
      <trkpt lat="42.2253470" lon="-8.7168080">
        <ele>81.8</ele>
        <time>2021-05-20T11:28:00Z</time>
      </trkpt>
      <trkpt lat="42.2253470" lon="-8.7168080">
        <ele>81.8</ele>
        <time>2021-05-20T11:28:01Z</time>
      </trkpt>
      <trkpt lat="42.2253470" lon="-8.7168080">
        <ele>81.8</ele>
        <time>2021-05-20T11:28:02Z</time>
      </trkpt>
      <trkpt lat="42.2253470" lon="-8.7168080">
        <ele>81.8</ele>
        <time>2021-05-20T11:28:03Z</time>
      </trkpt>
      <trkpt lat="42.2253470" lon="-8.7168080">
        <ele>81.8</ele>
        <time>2021-05-20T11:28:04Z</time>
      </trkpt>
      <trkpt lat="42.2253470" lon="-8.7168080">
        <ele>81.8</ele>
        <time>2021-05-20T11:28:05Z</time>
      </trkpt>
      <trkpt lat="42.2253470" lon="-8.7168080">
        <ele>81.8</ele>
        <time>2021-05-20T11:28:06Z</time>
      </trkpt>
      <trkpt lat="42.2253470" lon="-8.7168080">
        <ele>81.8</ele>
        <time>2021-05-20T11:28:07Z</time>
      </trkpt>
      <trkpt lat="42.2253470" lon="-8.7168080">
        <ele>81.8</ele>
        <time>2021-05-20T11:28:08Z</time>
      </trkpt>
      <trkpt lat="42.2253470" lon="-8.7168080">
        <ele>81.8</ele>
        <time>2021-05-20T11:28:09Z</time>
      </trkpt>
      <trkpt lat="42.2253470" lon="-8.7168080">
        <ele>81.8</ele>
        <time>2021-05-20T11:28:10Z</time>
      </trkpt>
      <trkpt lat="42.2253470" lon="-8.7168080">
        <ele>81.8</ele>
        <time>2021-05-20T11:28:11Z</time>
      </trkpt>
      <trkpt lat="42.2253470" lon="-8.7168080">
        <ele>81.8</ele>
        <time>2021-05-20T11:28:12Z</time>
      </trkpt>
      <trkpt lat="42.2253470" lon="-8.7168080">
        <ele>81.8</ele>
        <time>2021-05-20T11:28:13Z</time>
      </trkpt>
      <trkpt lat="42.2253470" lon="-8.7168080">
        <ele>81.8</ele>
        <time>2021-05-20T11:28:14Z</time>
      </trkpt>
      <trkpt lat="42.2253470" lon="-8.7168140">
        <ele>81.8</ele>
        <time>2021-05-20T11:28:15Z</time>
      </trkpt>
      <trkpt lat="42.2253470" lon="-8.7168150">
        <ele>81.8</ele>
        <time>2021-05-20T11:28:16Z</time>
      </trkpt>
      <trkpt lat="42.2253470" lon="-8.7168150">
        <ele>81.8</ele>
        <time>2021-05-20T11:28:17Z</time>
      </trkpt>
      <trkpt lat="42.2253470" lon="-8.7168150">
        <ele>81.8</ele>
        <time>2021-05-20T11:28:18Z</time>
      </trkpt>
      <trkpt lat="42.2253470" lon="-8.7168150">
        <ele>81.8</ele>
        <time>2021-05-20T11:28:19Z</time>
      </trkpt>
      <trkpt lat="42.2253470" lon="-8.7168150">
        <ele>81.8</ele>
        <time>2021-05-20T11:28:20Z</time>
      </trkpt>
      <trkpt lat="42.2253470" lon="-8.7168150">
        <ele>81.8</ele>
        <time>2021-05-20T11:28:21Z</time>
      </trkpt>
      <trkpt lat="42.2253470" lon="-8.7168150">
        <ele>81.8</ele>
        <time>2021-05-20T11:28:22Z</time>
      </trkpt>
      <trkpt lat="42.2253470" lon="-8.7168150">
        <ele>81.8</ele>
        <time>2021-05-20T11:28:23Z</time>
      </trkpt>
      <trkpt lat="42.2253470" lon="-8.7168150">
        <ele>81.8</ele>
        <time>2021-05-20T11:28:24Z</time>
      </trkpt>
      <trkpt lat="42.2253470" lon="-8.7168150">
        <ele>81.8</ele>
        <time>2021-05-20T11:28:25Z</time>
      </trkpt>
      <trkpt lat="42.2253470" lon="-8.7168150">
        <ele>81.8</ele>
        <time>2021-05-20T11:28:26Z</time>
      </trkpt>
      <trkpt lat="42.2253470" lon="-8.7168150">
        <ele>81.8</ele>
        <time>2021-05-20T11:28:27Z</time>
      </trkpt>
      <trkpt lat="42.2253470" lon="-8.7168150">
        <ele>81.8</ele>
        <time>2021-05-20T11:28:28Z</time>
      </trkpt>
      <trkpt lat="42.2253470" lon="-8.7168150">
        <ele>81.8</ele>
        <time>2021-05-20T11:28:29Z</time>
      </trkpt>
      <trkpt lat="42.2253470" lon="-8.7168150">
        <ele>81.8</ele>
        <time>2021-05-20T11:28:30Z</time>
      </trkpt>
      <trkpt lat="42.2253470" lon="-8.7168150">
        <ele>81.8</ele>
        <time>2021-05-20T11:28:31Z</time>
      </trkpt>
      <trkpt lat="42.2253470" lon="-8.7168150">
        <ele>81.8</ele>
        <time>2021-05-20T11:28:32Z</time>
      </trkpt>
      <trkpt lat="42.2253470" lon="-8.7168150">
        <ele>81.8</ele>
        <time>2021-05-20T11:28:33Z</time>
      </trkpt>
      <trkpt lat="42.2253470" lon="-8.7168150">
        <ele>81.8</ele>
        <time>2021-05-20T11:28:34Z</time>
      </trkpt>
      <trkpt lat="42.2253470" lon="-8.7168150">
        <ele>81.8</ele>
        <time>2021-05-20T11:28:35Z</time>
      </trkpt>
      <trkpt lat="42.2253470" lon="-8.7168150">
        <ele>81.8</ele>
        <time>2021-05-20T11:28:36Z</time>
      </trkpt>
      <trkpt lat="42.2253470" lon="-8.7168150">
        <ele>81.8</ele>
        <time>2021-05-20T11:28:37Z</time>
      </trkpt>
      <trkpt lat="42.2253470" lon="-8.7168150">
        <ele>81.8</ele>
        <time>2021-05-20T11:28:38Z</time>
      </trkpt>
      <trkpt lat="42.2253470" lon="-8.7168150">
        <ele>81.8</ele>
        <time>2021-05-20T11:28:39Z</time>
      </trkpt>
      <trkpt lat="42.2253470" lon="-8.7168150">
        <ele>81.8</ele>
        <time>2021-05-20T11:28:40Z</time>
      </trkpt>
      <trkpt lat="42.2253470" lon="-8.7168150">
        <ele>81.8</ele>
        <time>2021-05-20T11:28:41Z</time>
      </trkpt>
      <trkpt lat="42.2253470" lon="-8.7168150">
        <ele>81.8</ele>
        <time>2021-05-20T11:28:42Z</time>
      </trkpt>
      <trkpt lat="42.2253470" lon="-8.7168150">
        <ele>81.8</ele>
        <time>2021-05-20T11:28:43Z</time>
      </trkpt>
      <trkpt lat="42.2253470" lon="-8.7168150">
        <ele>81.8</ele>
        <time>2021-05-20T11:28:44Z</time>
      </trkpt>
      <trkpt lat="42.2253470" lon="-8.7168150">
        <ele>81.8</ele>
        <time>2021-05-20T11:28:45Z</time>
      </trkpt>
      <trkpt lat="42.2253470" lon="-8.7168150">
        <ele>81.8</ele>
        <time>2021-05-20T11:28:46Z</time>
      </trkpt>
      <trkpt lat="42.2253470" lon="-8.7168150">
        <ele>81.8</ele>
        <time>2021-05-20T11:28:47Z</time>
      </trkpt>
      <trkpt lat="42.2253470" lon="-8.7168150">
        <ele>81.8</ele>
        <time>2021-05-20T11:28:48Z</time>
      </trkpt>
      <trkpt lat="42.2253470" lon="-8.7168150">
        <ele>81.8</ele>
        <time>2021-05-20T11:28:49Z</time>
      </trkpt>
      <trkpt lat="42.2253470" lon="-8.7168150">
        <ele>81.8</ele>
        <time>2021-05-20T11:28:50Z</time>
      </trkpt>
      <trkpt lat="42.2253470" lon="-8.7168150">
        <ele>81.8</ele>
        <time>2021-05-20T11:28:51Z</time>
      </trkpt>
      <trkpt lat="42.2253470" lon="-8.7168150">
        <ele>81.8</ele>
        <time>2021-05-20T11:28:52Z</time>
      </trkpt>
      <trkpt lat="42.2253470" lon="-8.7168150">
        <ele>81.8</ele>
        <time>2021-05-20T11:28:53Z</time>
      </trkpt>
      <trkpt lat="42.2253470" lon="-8.7168150">
        <ele>81.8</ele>
        <time>2021-05-20T11:28:54Z</time>
      </trkpt>
      <trkpt lat="42.2253470" lon="-8.7168150">
        <ele>81.8</ele>
        <time>2021-05-20T11:28:55Z</time>
      </trkpt>
      <trkpt lat="42.2253470" lon="-8.7168150">
        <ele>81.8</ele>
        <time>2021-05-20T11:28:56Z</time>
      </trkpt>
      <trkpt lat="42.2253470" lon="-8.7168150">
        <ele>81.8</ele>
        <time>2021-05-20T11:28:57Z</time>
      </trkpt>
      <trkpt lat="42.2253470" lon="-8.7168150">
        <ele>81.8</ele>
        <time>2021-05-20T11:28:58Z</time>
      </trkpt>
      <trkpt lat="42.2253470" lon="-8.7168150">
        <ele>81.8</ele>
        <time>2021-05-20T11:28:59Z</time>
      </trkpt>
      <trkpt lat="42.2253460" lon="-8.7168300">
        <ele>81.8</ele>
        <time>2021-05-20T11:29:00Z</time>
      </trkpt>
      <trkpt lat="42.2253450" lon="-8.7168310">
        <ele>81.8</ele>
        <time>2021-05-20T11:29:01Z</time>
      </trkpt>
      <trkpt lat="42.2253450" lon="-8.7168310">
        <ele>81.8</ele>
        <time>2021-05-20T11:29:02Z</time>
      </trkpt>
      <trkpt lat="42.2253450" lon="-8.7168310">
        <ele>81.8</ele>
        <time>2021-05-20T11:29:03Z</time>
      </trkpt>
      <trkpt lat="42.2253450" lon="-8.7168310">
        <ele>81.8</ele>
        <time>2021-05-20T11:29:04Z</time>
      </trkpt>
      <trkpt lat="42.2253450" lon="-8.7168310">
        <ele>81.8</ele>
        <time>2021-05-20T11:29:05Z</time>
      </trkpt>
      <trkpt lat="42.2253450" lon="-8.7168310">
        <ele>81.8</ele>
        <time>2021-05-20T11:29:06Z</time>
      </trkpt>
      <trkpt lat="42.2253450" lon="-8.7168310">
        <ele>81.8</ele>
        <time>2021-05-20T11:29:07Z</time>
      </trkpt>
      <trkpt lat="42.2253450" lon="-8.7168310">
        <ele>81.8</ele>
        <time>2021-05-20T11:29:08Z</time>
      </trkpt>
      <trkpt lat="42.2253450" lon="-8.7168310">
        <ele>81.8</ele>
        <time>2021-05-20T11:29:09Z</time>
      </trkpt>
      <trkpt lat="42.2253450" lon="-8.7168310">
        <ele>81.8</ele>
        <time>2021-05-20T11:29:10Z</time>
      </trkpt>
      <trkpt lat="42.2253450" lon="-8.7168310">
        <ele>81.8</ele>
        <time>2021-05-20T11:29:11Z</time>
      </trkpt>
      <trkpt lat="42.2253450" lon="-8.7168310">
        <ele>81.8</ele>
        <time>2021-05-20T11:29:12Z</time>
      </trkpt>
      <trkpt lat="42.2253450" lon="-8.7168310">
        <ele>81.8</ele>
        <time>2021-05-20T11:29:13Z</time>
      </trkpt>
      <trkpt lat="42.2253450" lon="-8.7168310">
        <ele>81.8</ele>
        <time>2021-05-20T11:29:14Z</time>
      </trkpt>
      <trkpt lat="42.2253450" lon="-8.7168310">
        <ele>81.8</ele>
        <time>2021-05-20T11:29:15Z</time>
      </trkpt>
      <trkpt lat="42.2253450" lon="-8.7168310">
        <ele>81.8</ele>
        <time>2021-05-20T11:29:16Z</time>
      </trkpt>
      <trkpt lat="42.2253450" lon="-8.7168310">
        <ele>81.8</ele>
        <time>2021-05-20T11:29:17Z</time>
      </trkpt>
      <trkpt lat="42.2253450" lon="-8.7168310">
        <ele>81.8</ele>
        <time>2021-05-20T11:29:18Z</time>
      </trkpt>
      <trkpt lat="42.2253450" lon="-8.7168310">
        <ele>81.8</ele>
        <time>2021-05-20T11:29:19Z</time>
      </trkpt>
      <trkpt lat="42.2253450" lon="-8.7168310">
        <ele>81.8</ele>
        <time>2021-05-20T11:29:20Z</time>
      </trkpt>
      <trkpt lat="42.2253450" lon="-8.7168310">
        <ele>81.8</ele>
        <time>2021-05-20T11:29:21Z</time>
      </trkpt>
      <trkpt lat="42.2253450" lon="-8.7168310">
        <ele>81.8</ele>
        <time>2021-05-20T11:29:22Z</time>
      </trkpt>
      <trkpt lat="42.2253450" lon="-8.7168310">
        <ele>81.8</ele>
        <time>2021-05-20T11:29:23Z</time>
      </trkpt>
      <trkpt lat="42.2253450" lon="-8.7168310">
        <ele>81.8</ele>
        <time>2021-05-20T11:29:24Z</time>
      </trkpt>
      <trkpt lat="42.2253450" lon="-8.7168310">
        <ele>81.8</ele>
        <time>2021-05-20T11:29:25Z</time>
      </trkpt>
      <trkpt lat="42.2253450" lon="-8.7168310">
        <ele>81.8</ele>
        <time>2021-05-20T11:29:26Z</time>
      </trkpt>
      <trkpt lat="42.2253450" lon="-8.7168310">
        <ele>81.8</ele>
        <time>2021-05-20T11:29:27Z</time>
      </trkpt>
      <trkpt lat="42.2253450" lon="-8.7168310">
        <ele>81.8</ele>
        <time>2021-05-20T11:29:28Z</time>
      </trkpt>
      <trkpt lat="42.2253450" lon="-8.7168310">
        <ele>81.8</ele>
        <time>2021-05-20T11:29:29Z</time>
      </trkpt>
      <trkpt lat="42.2253450" lon="-8.7168310">
        <ele>81.8</ele>
        <time>2021-05-20T11:29:30Z</time>
      </trkpt>
      <trkpt lat="42.2253450" lon="-8.7168310">
        <ele>81.8</ele>
        <time>2021-05-20T11:29:31Z</time>
      </trkpt>
      <trkpt lat="42.2253450" lon="-8.7168310">
        <ele>81.8</ele>
        <time>2021-05-20T11:29:32Z</time>
      </trkpt>
      <trkpt lat="42.2253450" lon="-8.7168310">
        <ele>81.8</ele>
        <time>2021-05-20T11:29:33Z</time>
      </trkpt>
      <trkpt lat="42.2253450" lon="-8.7168310">
        <ele>81.8</ele>
        <time>2021-05-20T11:29:34Z</time>
      </trkpt>
      <trkpt lat="42.2253450" lon="-8.7168310">
        <ele>81.8</ele>
        <time>2021-05-20T11:29:35Z</time>
      </trkpt>
      <trkpt lat="42.2253450" lon="-8.7168310">
        <ele>81.8</ele>
        <time>2021-05-20T11:29:36Z</time>
      </trkpt>
      <trkpt lat="42.2253450" lon="-8.7168310">
        <ele>81.8</ele>
        <time>2021-05-20T11:29:37Z</time>
      </trkpt>
      <trkpt lat="42.2253450" lon="-8.7168310">
        <ele>81.8</ele>
        <time>2021-05-20T11:29:38Z</time>
      </trkpt>
      <trkpt lat="42.2253450" lon="-8.7168310">
        <ele>81.8</ele>
        <time>2021-05-20T11:29:39Z</time>
      </trkpt>
      <trkpt lat="42.2253450" lon="-8.7168310">
        <ele>81.8</ele>
        <time>2021-05-20T11:29:40Z</time>
      </trkpt>
      <trkpt lat="42.2253450" lon="-8.7168310">
        <ele>81.8</ele>
        <time>2021-05-20T11:29:41Z</time>
      </trkpt>
      <trkpt lat="42.2253380" lon="-8.7168380">
        <ele>81.8</ele>
        <time>2021-05-20T11:29:42Z</time>
      </trkpt>
      <trkpt lat="42.2253330" lon="-8.7168370">
        <ele>81.8</ele>
        <time>2021-05-20T11:29:43Z</time>
      </trkpt>
      <trkpt lat="42.2253350" lon="-8.7168370">
        <ele>81.8</ele>
        <time>2021-05-20T11:29:44Z</time>
      </trkpt>
      <trkpt lat="42.2253360" lon="-8.7168340">
        <ele>81.8</ele>
        <time>2021-05-20T11:29:45Z</time>
      </trkpt>
      <trkpt lat="42.2253360" lon="-8.7168320">
        <ele>81.8</ele>
        <time>2021-05-20T11:29:46Z</time>
      </trkpt>
      <trkpt lat="42.2253380" lon="-8.7168300">
        <ele>81.8</ele>
        <time>2021-05-20T11:29:47Z</time>
      </trkpt>
      <trkpt lat="42.2253360" lon="-8.7168280">
        <ele>81.8</ele>
        <time>2021-05-20T11:29:48Z</time>
      </trkpt>
      <trkpt lat="42.2253390" lon="-8.7168260">
        <ele>81.8</ele>
        <time>2021-05-20T11:29:49Z</time>
      </trkpt>
      <trkpt lat="42.2253420" lon="-8.7168230">
        <ele>81.8</ele>
        <time>2021-05-20T11:29:50Z</time>
      </trkpt>
      <trkpt lat="42.2253440" lon="-8.7168190">
        <ele>81.8</ele>
        <time>2021-05-20T11:29:51Z</time>
      </trkpt>
      <trkpt lat="42.2253460" lon="-8.7168160">
        <ele>81.8</ele>
        <time>2021-05-20T11:29:52Z</time>
      </trkpt>
      <trkpt lat="42.2253480" lon="-8.7168120">
        <ele>81.8</ele>
        <time>2021-05-20T11:29:53Z</time>
      </trkpt>
      <trkpt lat="42.2253530" lon="-8.7168080">
        <ele>81.8</ele>
        <time>2021-05-20T11:29:54Z</time>
      </trkpt>
      <trkpt lat="42.2253520" lon="-8.7168050">
        <ele>81.8</ele>
        <time>2021-05-20T11:29:55Z</time>
      </trkpt>
      <trkpt lat="42.2253530" lon="-8.7168020">
        <ele>81.8</ele>
        <time>2021-05-20T11:29:56Z</time>
      </trkpt>
      <trkpt lat="42.2253530" lon="-8.7168020">
        <ele>81.8</ele>
        <time>2021-05-20T11:29:57Z</time>
      </trkpt>
      <trkpt lat="42.2253600" lon="-8.7167940">
        <ele>81.8</ele>
        <time>2021-05-20T11:29:58Z</time>
      </trkpt>
      <trkpt lat="42.2253620" lon="-8.7167890">
        <ele>81.8</ele>
        <time>2021-05-20T11:29:59Z</time>
      </trkpt>
      <trkpt lat="42.2253620" lon="-8.7167900">
        <ele>81.8</ele>
        <time>2021-05-20T11:30:00Z</time>
      </trkpt>
      <trkpt lat="42.2253610" lon="-8.7167900">
        <ele>81.8</ele>
        <time>2021-05-20T11:30:01Z</time>
      </trkpt>
      <trkpt lat="42.2253610" lon="-8.7167900">
        <ele>81.8</ele>
        <time>2021-05-20T11:30:02Z</time>
      </trkpt>
      <trkpt lat="42.2253610" lon="-8.7167900">
        <ele>81.8</ele>
        <time>2021-05-20T11:30:03Z</time>
      </trkpt>
      <trkpt lat="42.2253610" lon="-8.7167910">
        <ele>81.8</ele>
        <time>2021-05-20T11:30:04Z</time>
      </trkpt>
      <trkpt lat="42.2253600" lon="-8.7167910">
        <ele>81.8</ele>
        <time>2021-05-20T11:30:05Z</time>
      </trkpt>
      <trkpt lat="42.2253600" lon="-8.7167910">
        <ele>81.8</ele>
        <time>2021-05-20T11:30:06Z</time>
      </trkpt>
      <trkpt lat="42.2253600" lon="-8.7167910">
        <ele>81.8</ele>
        <time>2021-05-20T11:30:07Z</time>
      </trkpt>
      <trkpt lat="42.2253600" lon="-8.7167920">
        <ele>81.8</ele>
        <time>2021-05-20T11:30:08Z</time>
      </trkpt>
      <trkpt lat="42.2253590" lon="-8.7167920">
        <ele>81.8</ele>
        <time>2021-05-20T11:30:09Z</time>
      </trkpt>
      <trkpt lat="42.2253590" lon="-8.7167920">
        <ele>81.8</ele>
        <time>2021-05-20T11:30:10Z</time>
      </trkpt>
      <trkpt lat="42.2253590" lon="-8.7167920">
        <ele>81.8</ele>
        <time>2021-05-20T11:30:11Z</time>
      </trkpt>
      <trkpt lat="42.2253590" lon="-8.7167930">
        <ele>81.8</ele>
        <time>2021-05-20T11:30:12Z</time>
      </trkpt>
      <trkpt lat="42.2253590" lon="-8.7167930">
        <ele>81.8</ele>
        <time>2021-05-20T11:30:13Z</time>
      </trkpt>
      <trkpt lat="42.2253580" lon="-8.7167930">
        <ele>81.8</ele>
        <time>2021-05-20T11:30:14Z</time>
      </trkpt>
      <trkpt lat="42.2253580" lon="-8.7167930">
        <ele>81.8</ele>
        <time>2021-05-20T11:30:15Z</time>
      </trkpt>
      <trkpt lat="42.2253580" lon="-8.7167940">
        <ele>81.8</ele>
        <time>2021-05-20T11:30:16Z</time>
      </trkpt>
      <trkpt lat="42.2253580" lon="-8.7167940">
        <ele>81.8</ele>
        <time>2021-05-20T11:30:17Z</time>
      </trkpt>
      <trkpt lat="42.2253570" lon="-8.7167940">
        <ele>81.8</ele>
        <time>2021-05-20T11:30:18Z</time>
      </trkpt>
      <trkpt lat="42.2253570" lon="-8.7167940">
        <ele>81.8</ele>
        <time>2021-05-20T11:30:19Z</time>
      </trkpt>
      <trkpt lat="42.2253570" lon="-8.7167950">
        <ele>81.8</ele>
        <time>2021-05-20T11:30:20Z</time>
      </trkpt>
      <trkpt lat="42.2253570" lon="-8.7167950">
        <ele>81.8</ele>
        <time>2021-05-20T11:30:21Z</time>
      </trkpt>
      <trkpt lat="42.2253560" lon="-8.7167950">
        <ele>81.8</ele>
        <time>2021-05-20T11:30:22Z</time>
      </trkpt>
      <trkpt lat="42.2253560" lon="-8.7167960">
        <ele>81.8</ele>
        <time>2021-05-20T11:30:23Z</time>
      </trkpt>
      <trkpt lat="42.2253560" lon="-8.7167960">
        <ele>81.8</ele>
        <time>2021-05-20T11:30:24Z</time>
      </trkpt>
      <trkpt lat="42.2253560" lon="-8.7167960">
        <ele>81.8</ele>
        <time>2021-05-20T11:30:25Z</time>
      </trkpt>
      <trkpt lat="42.2253560" lon="-8.7167960">
        <ele>81.8</ele>
        <time>2021-05-20T11:30:26Z</time>
      </trkpt>
      <trkpt lat="42.2253550" lon="-8.7167970">
        <ele>81.8</ele>
        <time>2021-05-20T11:30:27Z</time>
      </trkpt>
      <trkpt lat="42.2253550" lon="-8.7167970">
        <ele>81.8</ele>
        <time>2021-05-20T11:30:28Z</time>
      </trkpt>
      <trkpt lat="42.2253550" lon="-8.7167970">
        <ele>81.8</ele>
        <time>2021-05-20T11:30:29Z</time>
      </trkpt>
      <trkpt lat="42.2253550" lon="-8.7167970">
        <ele>81.8</ele>
        <time>2021-05-20T11:30:30Z</time>
      </trkpt>
      <trkpt lat="42.2253540" lon="-8.7167980">
        <ele>81.8</ele>
        <time>2021-05-20T11:30:31Z</time>
      </trkpt>
      <trkpt lat="42.2253540" lon="-8.7167980">
        <ele>81.8</ele>
        <time>2021-05-20T11:30:32Z</time>
      </trkpt>
      <trkpt lat="42.2253540" lon="-8.7167980">
        <ele>81.8</ele>
        <time>2021-05-20T11:30:33Z</time>
      </trkpt>
      <trkpt lat="42.2253540" lon="-8.7167980">
        <ele>81.8</ele>
        <time>2021-05-20T11:30:34Z</time>
      </trkpt>
      <trkpt lat="42.2253530" lon="-8.7167990">
        <ele>81.8</ele>
        <time>2021-05-20T11:30:35Z</time>
      </trkpt>
      <trkpt lat="42.2253530" lon="-8.7167990">
        <ele>81.8</ele>
        <time>2021-05-20T11:30:36Z</time>
      </trkpt>
      <trkpt lat="42.2253530" lon="-8.7167990">
        <ele>81.8</ele>
        <time>2021-05-20T11:30:37Z</time>
      </trkpt>
      <trkpt lat="42.2253530" lon="-8.7167990">
        <ele>81.8</ele>
        <time>2021-05-20T11:30:38Z</time>
      </trkpt>
      <trkpt lat="42.2253530" lon="-8.7168000">
        <ele>81.8</ele>
        <time>2021-05-20T11:30:39Z</time>
      </trkpt>
      <trkpt lat="42.2253520" lon="-8.7168000">
        <ele>81.8</ele>
        <time>2021-05-20T11:30:40Z</time>
      </trkpt>
      <trkpt lat="42.2253520" lon="-8.7168000">
        <ele>81.8</ele>
        <time>2021-05-20T11:30:41Z</time>
      </trkpt>
      <trkpt lat="42.2253520" lon="-8.7168000">
        <ele>81.8</ele>
        <time>2021-05-20T11:30:42Z</time>
      </trkpt>
      <trkpt lat="42.2253520" lon="-8.7168010">
        <ele>81.8</ele>
        <time>2021-05-20T11:30:43Z</time>
      </trkpt>
      <trkpt lat="42.2253510" lon="-8.7168010">
        <ele>81.8</ele>
        <time>2021-05-20T11:30:44Z</time>
      </trkpt>
      <trkpt lat="42.2253510" lon="-8.7168010">
        <ele>81.8</ele>
        <time>2021-05-20T11:30:45Z</time>
      </trkpt>
      <trkpt lat="42.2253510" lon="-8.7168010">
        <ele>81.8</ele>
        <time>2021-05-20T11:30:46Z</time>
      </trkpt>
      <trkpt lat="42.2253510" lon="-8.7168020">
        <ele>81.8</ele>
        <time>2021-05-20T11:30:47Z</time>
      </trkpt>
      <trkpt lat="42.2253500" lon="-8.7168020">
        <ele>81.8</ele>
        <time>2021-05-20T11:30:48Z</time>
      </trkpt>
      <trkpt lat="42.2253500" lon="-8.7168020">
        <ele>81.8</ele>
        <time>2021-05-20T11:30:49Z</time>
      </trkpt>
      <trkpt lat="42.2253500" lon="-8.7168030">
        <ele>81.8</ele>
        <time>2021-05-20T11:30:50Z</time>
      </trkpt>
      <trkpt lat="42.2253500" lon="-8.7168030">
        <ele>81.8</ele>
        <time>2021-05-20T11:30:51Z</time>
      </trkpt>
      <trkpt lat="42.2253500" lon="-8.7168030">
        <ele>81.8</ele>
        <time>2021-05-20T11:30:52Z</time>
      </trkpt>
      <trkpt lat="42.2253490" lon="-8.7168030">
        <ele>81.8</ele>
        <time>2021-05-20T11:30:53Z</time>
      </trkpt>
      <trkpt lat="42.2253490" lon="-8.7168040">
        <ele>81.8</ele>
        <time>2021-05-20T11:30:54Z</time>
      </trkpt>
      <trkpt lat="42.2253490" lon="-8.7168040">
        <ele>81.8</ele>
        <time>2021-05-20T11:30:55Z</time>
      </trkpt>
      <trkpt lat="42.2253490" lon="-8.7168040">
        <ele>81.8</ele>
        <time>2021-05-20T11:30:56Z</time>
      </trkpt>
      <trkpt lat="42.2253480" lon="-8.7168040">
        <ele>81.8</ele>
        <time>2021-05-20T11:30:57Z</time>
      </trkpt>
      <trkpt lat="42.2253480" lon="-8.7168050">
        <ele>81.8</ele>
        <time>2021-05-20T11:30:58Z</time>
      </trkpt>
      <trkpt lat="42.2253480" lon="-8.7168050">
        <ele>81.8</ele>
        <time>2021-05-20T11:30:59Z</time>
      </trkpt>
      <trkpt lat="42.2253480" lon="-8.7168050">
        <ele>81.8</ele>
        <time>2021-05-20T11:31:00Z</time>
      </trkpt>
      <trkpt lat="42.2253470" lon="-8.7168050">
        <ele>81.8</ele>
        <time>2021-05-20T11:31:01Z</time>
      </trkpt>
      <trkpt lat="42.2253470" lon="-8.7168060">
        <ele>81.8</ele>
        <time>2021-05-20T11:31:02Z</time>
      </trkpt>
      <trkpt lat="42.2253470" lon="-8.7168060">
        <ele>81.8</ele>
        <time>2021-05-20T11:31:03Z</time>
      </trkpt>
      <trkpt lat="42.2253470" lon="-8.7168060">
        <ele>81.8</ele>
        <time>2021-05-20T11:31:04Z</time>
      </trkpt>
      <trkpt lat="42.2253470" lon="-8.7168060">
        <ele>81.8</ele>
        <time>2021-05-20T11:31:05Z</time>
      </trkpt>
      <trkpt lat="42.2253460" lon="-8.7168070">
        <ele>81.8</ele>
        <time>2021-05-20T11:31:06Z</time>
      </trkpt>
      <trkpt lat="42.2253460" lon="-8.7168070">
        <ele>81.8</ele>
        <time>2021-05-20T11:31:07Z</time>
      </trkpt>
      <trkpt lat="42.2253460" lon="-8.7168070">
        <ele>81.8</ele>
        <time>2021-05-20T11:31:08Z</time>
      </trkpt>
      <trkpt lat="42.2253460" lon="-8.7168070">
        <ele>81.8</ele>
        <time>2021-05-20T11:31:09Z</time>
      </trkpt>
      <trkpt lat="42.2253450" lon="-8.7168080">
        <ele>81.8</ele>
        <time>2021-05-20T11:31:10Z</time>
      </trkpt>
      <trkpt lat="42.2253450" lon="-8.7168080">
        <ele>81.8</ele>
        <time>2021-05-20T11:31:11Z</time>
      </trkpt>
      <trkpt lat="42.2253450" lon="-8.7168080">
        <ele>81.8</ele>
        <time>2021-05-20T11:31:12Z</time>
      </trkpt>
      <trkpt lat="42.2253450" lon="-8.7168090">
        <ele>81.8</ele>
        <time>2021-05-20T11:31:13Z</time>
      </trkpt>
      <trkpt lat="42.2253440" lon="-8.7168090">
        <ele>81.8</ele>
        <time>2021-05-20T11:31:14Z</time>
      </trkpt>
      <trkpt lat="42.2253440" lon="-8.7168090">
        <ele>81.8</ele>
        <time>2021-05-20T11:31:15Z</time>
      </trkpt>
      <trkpt lat="42.2253440" lon="-8.7168090">
        <ele>81.8</ele>
        <time>2021-05-20T11:31:16Z</time>
      </trkpt>
      <trkpt lat="42.2253440" lon="-8.7168100">
        <ele>81.8</ele>
        <time>2021-05-20T11:31:17Z</time>
      </trkpt>
      <trkpt lat="42.2253440" lon="-8.7168100">
        <ele>81.8</ele>
        <time>2021-05-20T11:31:18Z</time>
      </trkpt>
      <trkpt lat="42.2253430" lon="-8.7168100">
        <ele>81.8</ele>
        <time>2021-05-20T11:31:19Z</time>
      </trkpt>
      <trkpt lat="42.2253430" lon="-8.7168100">
        <ele>81.8</ele>
        <time>2021-05-20T11:31:20Z</time>
      </trkpt>
      <trkpt lat="42.2253430" lon="-8.7168110">
        <ele>81.8</ele>
        <time>2021-05-20T11:31:21Z</time>
      </trkpt>
      <trkpt lat="42.2253430" lon="-8.7168110">
        <ele>81.8</ele>
        <time>2021-05-20T11:31:22Z</time>
      </trkpt>
      <trkpt lat="42.2253420" lon="-8.7168110">
        <ele>81.8</ele>
        <time>2021-05-20T11:31:23Z</time>
      </trkpt>
      <trkpt lat="42.2253420" lon="-8.7168110">
        <ele>81.8</ele>
        <time>2021-05-20T11:31:24Z</time>
      </trkpt>
      <trkpt lat="42.2253420" lon="-8.7168120">
        <ele>81.8</ele>
        <time>2021-05-20T11:31:25Z</time>
      </trkpt>
      <trkpt lat="42.2253420" lon="-8.7168120">
        <ele>81.8</ele>
        <time>2021-05-20T11:31:26Z</time>
      </trkpt>
      <trkpt lat="42.2253410" lon="-8.7168120">
        <ele>81.8</ele>
        <time>2021-05-20T11:31:27Z</time>
      </trkpt>
      <trkpt lat="42.2253410" lon="-8.7168120">
        <ele>81.8</ele>
        <time>2021-05-20T11:31:28Z</time>
      </trkpt>
      <trkpt lat="42.2253410" lon="-8.7168130">
        <ele>81.8</ele>
        <time>2021-05-20T11:31:29Z</time>
      </trkpt>
      <trkpt lat="42.2253410" lon="-8.7168130">
        <ele>81.8</ele>
        <time>2021-05-20T11:31:30Z</time>
      </trkpt>
      <trkpt lat="42.2253400" lon="-8.7168130">
        <ele>81.8</ele>
        <time>2021-05-20T11:31:31Z</time>
      </trkpt>
      <trkpt lat="42.2253400" lon="-8.7168130">
        <ele>81.8</ele>
        <time>2021-05-20T11:31:32Z</time>
      </trkpt>
      <trkpt lat="42.2253400" lon="-8.7168140">
        <ele>81.8</ele>
        <time>2021-05-20T11:31:33Z</time>
      </trkpt>
      <trkpt lat="42.2253400" lon="-8.7168140">
        <ele>81.8</ele>
        <time>2021-05-20T11:31:34Z</time>
      </trkpt>
      <trkpt lat="42.2253400" lon="-8.7168140">
        <ele>81.8</ele>
        <time>2021-05-20T11:31:35Z</time>
      </trkpt>
      <trkpt lat="42.2253390" lon="-8.7168140">
        <ele>81.8</ele>
        <time>2021-05-20T11:31:36Z</time>
      </trkpt>
      <trkpt lat="42.2253390" lon="-8.7168150">
        <ele>81.8</ele>
        <time>2021-05-20T11:31:37Z</time>
      </trkpt>
      <trkpt lat="42.2253390" lon="-8.7168150">
        <ele>81.8</ele>
        <time>2021-05-20T11:31:38Z</time>
      </trkpt>
      <trkpt lat="42.2253390" lon="-8.7168150">
        <ele>81.8</ele>
        <time>2021-05-20T11:31:39Z</time>
      </trkpt>
      <trkpt lat="42.2253380" lon="-8.7168160">
        <ele>81.8</ele>
        <time>2021-05-20T11:31:40Z</time>
      </trkpt>
      <trkpt lat="42.2253380" lon="-8.7168160">
        <ele>81.8</ele>
        <time>2021-05-20T11:31:41Z</time>
      </trkpt>
      <trkpt lat="42.2253380" lon="-8.7168160">
        <ele>81.8</ele>
        <time>2021-05-20T11:31:42Z</time>
      </trkpt>
      <trkpt lat="42.2253380" lon="-8.7168160">
        <ele>81.8</ele>
        <time>2021-05-20T11:31:43Z</time>
      </trkpt>
      <trkpt lat="42.2253370" lon="-8.7168170">
        <ele>81.8</ele>
        <time>2021-05-20T11:31:44Z</time>
      </trkpt>
      <trkpt lat="42.2253370" lon="-8.7168170">
        <ele>81.8</ele>
        <time>2021-05-20T11:31:45Z</time>
      </trkpt>
      <trkpt lat="42.2253370" lon="-8.7168170">
        <ele>81.8</ele>
        <time>2021-05-20T11:31:46Z</time>
      </trkpt>
      <trkpt lat="42.2253370" lon="-8.7168170">
        <ele>81.8</ele>
        <time>2021-05-20T11:31:47Z</time>
      </trkpt>
      <trkpt lat="42.2253370" lon="-8.7168180">
        <ele>81.8</ele>
        <time>2021-05-20T11:31:48Z</time>
      </trkpt>
      <trkpt lat="42.2253360" lon="-8.7168180">
        <ele>81.8</ele>
        <time>2021-05-20T11:31:49Z</time>
      </trkpt>
      <trkpt lat="42.2253360" lon="-8.7168180">
        <ele>81.8</ele>
        <time>2021-05-20T11:31:50Z</time>
      </trkpt>
      <trkpt lat="42.2253360" lon="-8.7168180">
        <ele>81.8</ele>
        <time>2021-05-20T11:31:51Z</time>
      </trkpt>
      <trkpt lat="42.2253360" lon="-8.7168190">
        <ele>81.8</ele>
        <time>2021-05-20T11:31:52Z</time>
      </trkpt>
      <trkpt lat="42.2253350" lon="-8.7168190">
        <ele>81.8</ele>
        <time>2021-05-20T11:31:53Z</time>
      </trkpt>
      <trkpt lat="42.2253350" lon="-8.7168190">
        <ele>81.8</ele>
        <time>2021-05-20T11:31:54Z</time>
      </trkpt>
      <trkpt lat="42.2253350" lon="-8.7168190">
        <ele>81.8</ele>
        <time>2021-05-20T11:31:55Z</time>
      </trkpt>
      <trkpt lat="42.2253350" lon="-8.7168200">
        <ele>81.8</ele>
        <time>2021-05-20T11:31:56Z</time>
      </trkpt>
      <trkpt lat="42.2253340" lon="-8.7168200">
        <ele>81.8</ele>
        <time>2021-05-20T11:31:57Z</time>
      </trkpt>
      <trkpt lat="42.2253340" lon="-8.7168200">
        <ele>81.8</ele>
        <time>2021-05-20T11:31:58Z</time>
      </trkpt>
      <trkpt lat="42.2253340" lon="-8.7168200">
        <ele>81.8</ele>
        <time>2021-05-20T11:31:59Z</time>
      </trkpt>
      <trkpt lat="42.2253340" lon="-8.7168210">
        <ele>81.8</ele>
        <time>2021-05-20T11:32:00Z</time>
      </trkpt>
      <trkpt lat="42.2253340" lon="-8.7168210">
        <ele>81.8</ele>
        <time>2021-05-20T11:32:01Z</time>
      </trkpt>
      <trkpt lat="42.2253330" lon="-8.7168210">
        <ele>81.8</ele>
        <time>2021-05-20T11:32:02Z</time>
      </trkpt>
      <trkpt lat="42.2253330" lon="-8.7168220">
        <ele>81.8</ele>
        <time>2021-05-20T11:32:03Z</time>
      </trkpt>
      <trkpt lat="42.2253330" lon="-8.7168220">
        <ele>81.8</ele>
        <time>2021-05-20T11:32:04Z</time>
      </trkpt>
      <trkpt lat="42.2253330" lon="-8.7168220">
        <ele>81.8</ele>
        <time>2021-05-20T11:32:05Z</time>
      </trkpt>
      <trkpt lat="42.2253320" lon="-8.7168220">
        <ele>81.8</ele>
        <time>2021-05-20T11:32:06Z</time>
      </trkpt>
      <trkpt lat="42.2253320" lon="-8.7168230">
        <ele>81.8</ele>
        <time>2021-05-20T11:32:07Z</time>
      </trkpt>
      <trkpt lat="42.2253320" lon="-8.7168230">
        <ele>81.8</ele>
        <time>2021-05-20T11:32:08Z</time>
      </trkpt>
      <trkpt lat="42.2253320" lon="-8.7168230">
        <ele>81.8</ele>
        <time>2021-05-20T11:32:09Z</time>
      </trkpt>
      <trkpt lat="42.2253310" lon="-8.7168230">
        <ele>81.8</ele>
        <time>2021-05-20T11:32:10Z</time>
      </trkpt>
      <trkpt lat="42.2253310" lon="-8.7168240">
        <ele>81.8</ele>
        <time>2021-05-20T11:32:11Z</time>
      </trkpt>
      <trkpt lat="42.2253310" lon="-8.7168240">
        <ele>81.8</ele>
        <time>2021-05-20T11:32:12Z</time>
      </trkpt>
      <trkpt lat="42.2253310" lon="-8.7168240">
        <ele>81.8</ele>
        <time>2021-05-20T11:32:13Z</time>
      </trkpt>
      <trkpt lat="42.2253310" lon="-8.7168240">
        <ele>81.8</ele>
        <time>2021-05-20T11:32:14Z</time>
      </trkpt>
      <trkpt lat="42.2253300" lon="-8.7168250">
        <ele>81.8</ele>
        <time>2021-05-20T11:32:15Z</time>
      </trkpt>
      <trkpt lat="42.2253300" lon="-8.7168250">
        <ele>81.8</ele>
        <time>2021-05-20T11:32:16Z</time>
      </trkpt>
      <trkpt lat="42.2253300" lon="-8.7168250">
        <ele>81.8</ele>
        <time>2021-05-20T11:32:17Z</time>
      </trkpt>
      <trkpt lat="42.2253300" lon="-8.7168250">
        <ele>81.8</ele>
        <time>2021-05-20T11:32:18Z</time>
      </trkpt>
      <trkpt lat="42.2253290" lon="-8.7168260">
        <ele>81.8</ele>
        <time>2021-05-20T11:32:19Z</time>
      </trkpt>
      <trkpt lat="42.2253290" lon="-8.7168260">
        <ele>81.8</ele>
        <time>2021-05-20T11:32:20Z</time>
      </trkpt>
      <trkpt lat="42.2253290" lon="-8.7168260">
        <ele>81.8</ele>
        <time>2021-05-20T11:32:21Z</time>
      </trkpt>
      <trkpt lat="42.2253290" lon="-8.7168260">
        <ele>81.8</ele>
        <time>2021-05-20T11:32:22Z</time>
      </trkpt>
      <trkpt lat="42.2253280" lon="-8.7168270">
        <ele>81.8</ele>
        <time>2021-05-20T11:32:23Z</time>
      </trkpt>
      <trkpt lat="42.2253280" lon="-8.7168270">
        <ele>81.8</ele>
        <time>2021-05-20T11:32:24Z</time>
      </trkpt>
      <trkpt lat="42.2253280" lon="-8.7168270">
        <ele>81.8</ele>
        <time>2021-05-20T11:32:25Z</time>
      </trkpt>
      <trkpt lat="42.2253280" lon="-8.7168270">
        <ele>81.8</ele>
        <time>2021-05-20T11:32:26Z</time>
      </trkpt>
      <trkpt lat="42.2253280" lon="-8.7168280">
        <ele>81.8</ele>
        <time>2021-05-20T11:32:27Z</time>
      </trkpt>
      <trkpt lat="42.2253270" lon="-8.7168280">
        <ele>81.8</ele>
        <time>2021-05-20T11:32:28Z</time>
      </trkpt>
      <trkpt lat="42.2253270" lon="-8.7168280">
        <ele>81.8</ele>
        <time>2021-05-20T11:32:29Z</time>
      </trkpt>
      <trkpt lat="42.2253270" lon="-8.7168290">
        <ele>81.8</ele>
        <time>2021-05-20T11:32:30Z</time>
      </trkpt>
      <trkpt lat="42.2253270" lon="-8.7168290">
        <ele>81.8</ele>
        <time>2021-05-20T11:32:31Z</time>
      </trkpt>
      <trkpt lat="42.2253260" lon="-8.7168290">
        <ele>81.8</ele>
        <time>2021-05-20T11:32:32Z</time>
      </trkpt>
      <trkpt lat="42.2253260" lon="-8.7168290">
        <ele>81.8</ele>
        <time>2021-05-20T11:32:33Z</time>
      </trkpt>
      <trkpt lat="42.2253260" lon="-8.7168300">
        <ele>81.8</ele>
        <time>2021-05-20T11:32:34Z</time>
      </trkpt>
      <trkpt lat="42.2253260" lon="-8.7168300">
        <ele>81.8</ele>
        <time>2021-05-20T11:32:35Z</time>
      </trkpt>
      <trkpt lat="42.2253250" lon="-8.7168300">
        <ele>81.8</ele>
        <time>2021-05-20T11:32:36Z</time>
      </trkpt>
      <trkpt lat="42.2253250" lon="-8.7168300">
        <ele>81.8</ele>
        <time>2021-05-20T11:32:37Z</time>
      </trkpt>
      <trkpt lat="42.2253250" lon="-8.7168310">
        <ele>81.8</ele>
        <time>2021-05-20T11:32:38Z</time>
      </trkpt>
      <trkpt lat="42.2253250" lon="-8.7168310">
        <ele>81.8</ele>
        <time>2021-05-20T11:32:39Z</time>
      </trkpt>
      <trkpt lat="42.2253250" lon="-8.7168310">
        <ele>81.8</ele>
        <time>2021-05-20T11:32:40Z</time>
      </trkpt>
      <trkpt lat="42.2253240" lon="-8.7168310">
        <ele>81.8</ele>
        <time>2021-05-20T11:32:41Z</time>
      </trkpt>
      <trkpt lat="42.2253240" lon="-8.7168320">
        <ele>81.8</ele>
        <time>2021-05-20T11:32:42Z</time>
      </trkpt>
      <trkpt lat="42.2253240" lon="-8.7168320">
        <ele>81.8</ele>
        <time>2021-05-20T11:32:43Z</time>
      </trkpt>
      <trkpt lat="42.2253240" lon="-8.7168320">
        <ele>81.8</ele>
        <time>2021-05-20T11:32:44Z</time>
      </trkpt>
      <trkpt lat="42.2253230" lon="-8.7168320">
        <ele>81.8</ele>
        <time>2021-05-20T11:32:45Z</time>
      </trkpt>
      <trkpt lat="42.2253230" lon="-8.7168330">
        <ele>81.8</ele>
        <time>2021-05-20T11:32:46Z</time>
      </trkpt>
      <trkpt lat="42.2253230" lon="-8.7168330">
        <ele>81.8</ele>
        <time>2021-05-20T11:32:47Z</time>
      </trkpt>
      <trkpt lat="42.2253230" lon="-8.7168330">
        <ele>81.8</ele>
        <time>2021-05-20T11:32:48Z</time>
      </trkpt>
      <trkpt lat="42.2253220" lon="-8.7168330">
        <ele>81.8</ele>
        <time>2021-05-20T11:32:49Z</time>
      </trkpt>
      <trkpt lat="42.2253220" lon="-8.7168340">
        <ele>81.8</ele>
        <time>2021-05-20T11:32:50Z</time>
      </trkpt>
      <trkpt lat="42.2253220" lon="-8.7168340">
        <ele>81.8</ele>
        <time>2021-05-20T11:32:51Z</time>
      </trkpt>
      <trkpt lat="42.2253200" lon="-8.7168330">
        <ele>81.8</ele>
        <time>2021-05-20T11:32:52Z</time>
      </trkpt>
      <trkpt lat="42.2253220" lon="-8.7168300">
        <ele>81.8</ele>
        <time>2021-05-20T11:32:53Z</time>
      </trkpt>
      <trkpt lat="42.2253270" lon="-8.7168350">
        <ele>81.8</ele>
        <time>2021-05-20T11:32:54Z</time>
      </trkpt>
      <trkpt lat="42.2253260" lon="-8.7168300">
        <ele>81.8</ele>
        <time>2021-05-20T11:32:55Z</time>
      </trkpt>
      <trkpt lat="42.2253270" lon="-8.7168260">
        <ele>81.8</ele>
        <time>2021-05-20T11:32:56Z</time>
      </trkpt>
      <trkpt lat="42.2253280" lon="-8.7168220">
        <ele>81.8</ele>
        <time>2021-05-20T11:32:57Z</time>
      </trkpt>
      <trkpt lat="42.2253270" lon="-8.7168180">
        <ele>81.8</ele>
        <time>2021-05-20T11:32:58Z</time>
      </trkpt>
      <trkpt lat="42.2253290" lon="-8.7168130">
        <ele>81.8</ele>
        <time>2021-05-20T11:32:59Z</time>
      </trkpt>
      <trkpt lat="42.2253320" lon="-8.7168080">
        <ele>81.8</ele>
        <time>2021-05-20T11:33:00Z</time>
      </trkpt>
      <trkpt lat="42.2253330" lon="-8.7168060">
        <ele>81.8</ele>
        <time>2021-05-20T11:33:01Z</time>
      </trkpt>
      <trkpt lat="42.2253300" lon="-8.7168010">
        <ele>81.8</ele>
        <time>2021-05-20T11:33:02Z</time>
      </trkpt>
      <trkpt lat="42.2253330" lon="-8.7167990">
        <ele>81.8</ele>
        <time>2021-05-20T11:33:03Z</time>
      </trkpt>
      <trkpt lat="42.2253350" lon="-8.7167950">
        <ele>81.8</ele>
        <time>2021-05-20T11:33:04Z</time>
      </trkpt>
      <trkpt lat="42.2253370" lon="-8.7167920">
        <ele>81.8</ele>
        <time>2021-05-20T11:33:05Z</time>
      </trkpt>
      <trkpt lat="42.2253390" lon="-8.7167870">
        <ele>81.8</ele>
        <time>2021-05-20T11:33:06Z</time>
      </trkpt>
      <trkpt lat="42.2253400" lon="-8.7167860">
        <ele>81.8</ele>
        <time>2021-05-20T11:33:07Z</time>
      </trkpt>
      <trkpt lat="42.2253390" lon="-8.7167830">
        <ele>81.8</ele>
        <time>2021-05-20T11:33:08Z</time>
      </trkpt>
      <trkpt lat="42.2253380" lon="-8.7167790">
        <ele>81.8</ele>
        <time>2021-05-20T11:33:09Z</time>
      </trkpt>
      <trkpt lat="42.2253410" lon="-8.7167770">
        <ele>81.8</ele>
        <time>2021-05-20T11:33:10Z</time>
      </trkpt>
      <trkpt lat="42.2253420" lon="-8.7167730">
        <ele>81.8</ele>
        <time>2021-05-20T11:33:11Z</time>
      </trkpt>
      <trkpt lat="42.2253410" lon="-8.7167710">
        <ele>81.8</ele>
        <time>2021-05-20T11:33:12Z</time>
      </trkpt>
      <trkpt lat="42.2253420" lon="-8.7167680">
        <ele>81.8</ele>
        <time>2021-05-20T11:33:13Z</time>
      </trkpt>
      <trkpt lat="42.2253420" lon="-8.7167680">
        <ele>81.8</ele>
        <time>2021-05-20T11:33:14Z</time>
      </trkpt>
      <trkpt lat="42.2253440" lon="-8.7167610">
        <ele>81.9</ele>
        <time>2021-05-20T11:33:15Z</time>
      </trkpt>
      <trkpt lat="42.2253440" lon="-8.7167610">
        <ele>81.9</ele>
        <time>2021-05-20T11:33:16Z</time>
      </trkpt>
      <trkpt lat="42.2253400" lon="-8.7167590">
        <ele>81.9</ele>
        <time>2021-05-20T11:33:17Z</time>
      </trkpt>
      <trkpt lat="42.2253410" lon="-8.7167540">
        <ele>81.9</ele>
        <time>2021-05-20T11:33:18Z</time>
      </trkpt>
      <trkpt lat="42.2253430" lon="-8.7167530">
        <ele>81.9</ele>
        <time>2021-05-20T11:33:19Z</time>
      </trkpt>
      <trkpt lat="42.2253460" lon="-8.7167520">
        <ele>81.9</ele>
        <time>2021-05-20T11:33:20Z</time>
      </trkpt>
      <trkpt lat="42.2253480" lon="-8.7167510">
        <ele>81.9</ele>
        <time>2021-05-20T11:33:21Z</time>
      </trkpt>
      <trkpt lat="42.2253480" lon="-8.7167520">
        <ele>81.9</ele>
        <time>2021-05-20T11:33:22Z</time>
      </trkpt>
      <trkpt lat="42.2253520" lon="-8.7167510">
        <ele>81.9</ele>
        <time>2021-05-20T11:33:23Z</time>
      </trkpt>
      <trkpt lat="42.2253510" lon="-8.7167520">
        <ele>81.9</ele>
        <time>2021-05-20T11:33:24Z</time>
      </trkpt>
      <trkpt lat="42.2253520" lon="-8.7167520">
        <ele>81.9</ele>
        <time>2021-05-20T11:33:25Z</time>
      </trkpt>
      <trkpt lat="42.2253520" lon="-8.7167550">
        <ele>81.9</ele>
        <time>2021-05-20T11:33:26Z</time>
      </trkpt>
      <trkpt lat="42.2253510" lon="-8.7167550">
        <ele>81.9</ele>
        <time>2021-05-20T11:33:27Z</time>
      </trkpt>
      <trkpt lat="42.2253510" lon="-8.7167560">
        <ele>81.9</ele>
        <time>2021-05-20T11:33:28Z</time>
      </trkpt>
      <trkpt lat="42.2253530" lon="-8.7167590">
        <ele>81.9</ele>
        <time>2021-05-20T11:33:29Z</time>
      </trkpt>
      <trkpt lat="42.2253500" lon="-8.7167580">
        <ele>81.9</ele>
        <time>2021-05-20T11:33:30Z</time>
      </trkpt>
      <trkpt lat="42.2253470" lon="-8.7167620">
        <ele>81.9</ele>
        <time>2021-05-20T11:33:31Z</time>
      </trkpt>
      <trkpt lat="42.2253530" lon="-8.7167630">
        <ele>81.9</ele>
        <time>2021-05-20T11:33:32Z</time>
      </trkpt>
      <trkpt lat="42.2253480" lon="-8.7167670">
        <ele>81.9</ele>
        <time>2021-05-20T11:33:33Z</time>
      </trkpt>
      <trkpt lat="42.2253520" lon="-8.7167700">
        <ele>81.9</ele>
        <time>2021-05-20T11:33:34Z</time>
      </trkpt>
      <trkpt lat="42.2253500" lon="-8.7167680">
        <ele>81.9</ele>
        <time>2021-05-20T11:33:35Z</time>
      </trkpt>
      <trkpt lat="42.2253490" lon="-8.7167740">
        <ele>81.9</ele>
        <time>2021-05-20T11:33:36Z</time>
      </trkpt>
      <trkpt lat="42.2253510" lon="-8.7167730">
        <ele>81.9</ele>
        <time>2021-05-20T11:33:37Z</time>
      </trkpt>
      <trkpt lat="42.2253510" lon="-8.7167690">
        <ele>81.9</ele>
        <time>2021-05-20T11:33:38Z</time>
      </trkpt>
      <trkpt lat="42.2253490" lon="-8.7167650">
        <ele>81.9</ele>
        <time>2021-05-20T11:33:39Z</time>
      </trkpt>
      <trkpt lat="42.2253510" lon="-8.7167620">
        <ele>81.9</ele>
        <time>2021-05-20T11:33:40Z</time>
      </trkpt>
      <trkpt lat="42.2253540" lon="-8.7167640">
        <ele>81.9</ele>
        <time>2021-05-20T11:33:41Z</time>
      </trkpt>
      <trkpt lat="42.2253560" lon="-8.7167620">
        <ele>81.9</ele>
        <time>2021-05-20T11:33:42Z</time>
      </trkpt>
      <trkpt lat="42.2253550" lon="-8.7167560">
        <ele>81.9</ele>
        <time>2021-05-20T11:33:43Z</time>
      </trkpt>
      <trkpt lat="42.2253550" lon="-8.7167560">
        <ele>81.9</ele>
        <time>2021-05-20T11:33:44Z</time>
      </trkpt>
      <trkpt lat="42.2253550" lon="-8.7167540">
        <ele>81.9</ele>
        <time>2021-05-20T11:33:45Z</time>
      </trkpt>
      <trkpt lat="42.2253550" lon="-8.7167550">
        <ele>81.9</ele>
        <time>2021-05-20T11:33:46Z</time>
      </trkpt>
      <trkpt lat="42.2253550" lon="-8.7167520">
        <ele>81.9</ele>
        <time>2021-05-20T11:33:47Z</time>
      </trkpt>
      <trkpt lat="42.2253540" lon="-8.7167520">
        <ele>81.9</ele>
        <time>2021-05-20T11:33:48Z</time>
      </trkpt>
      <trkpt lat="42.2253540" lon="-8.7167490">
        <ele>81.9</ele>
        <time>2021-05-20T11:33:49Z</time>
      </trkpt>
      <trkpt lat="42.2253540" lon="-8.7167500">
        <ele>81.9</ele>
        <time>2021-05-20T11:33:50Z</time>
      </trkpt>
      <trkpt lat="42.2253510" lon="-8.7167500">
        <ele>81.9</ele>
        <time>2021-05-20T11:33:51Z</time>
      </trkpt>
      <trkpt lat="42.2253520" lon="-8.7167560">
        <ele>81.9</ele>
        <time>2021-05-20T11:33:52Z</time>
      </trkpt>
      <trkpt lat="42.2253520" lon="-8.7167560">
        <ele>81.9</ele>
        <time>2021-05-20T11:33:53Z</time>
      </trkpt>
      <trkpt lat="42.2253520" lon="-8.7167550">
        <ele>81.9</ele>
        <time>2021-05-20T11:33:54Z</time>
      </trkpt>
      <trkpt lat="42.2253520" lon="-8.7167570">
        <ele>81.9</ele>
        <time>2021-05-20T11:33:55Z</time>
      </trkpt>
      <trkpt lat="42.2253520" lon="-8.7167600">
        <ele>81.9</ele>
        <time>2021-05-20T11:33:56Z</time>
      </trkpt>
      <trkpt lat="42.2253510" lon="-8.7167610">
        <ele>81.9</ele>
        <time>2021-05-20T11:33:57Z</time>
      </trkpt>
      <trkpt lat="42.2253520" lon="-8.7167620">
        <ele>81.9</ele>
        <time>2021-05-20T11:33:58Z</time>
      </trkpt>
      <trkpt lat="42.2253510" lon="-8.7167650">
        <ele>81.9</ele>
        <time>2021-05-20T11:33:59Z</time>
      </trkpt>
      <trkpt lat="42.2253520" lon="-8.7167650">
        <ele>81.9</ele>
        <time>2021-05-20T11:34:00Z</time>
      </trkpt>
      <trkpt lat="42.2253500" lon="-8.7167620">
        <ele>81.9</ele>
        <time>2021-05-20T11:34:01Z</time>
      </trkpt>
      <trkpt lat="42.2253510" lon="-8.7167630">
        <ele>81.9</ele>
        <time>2021-05-20T11:34:02Z</time>
      </trkpt>
      <trkpt lat="42.2253480" lon="-8.7167600">
        <ele>81.9</ele>
        <time>2021-05-20T11:34:03Z</time>
      </trkpt>
      <trkpt lat="42.2253500" lon="-8.7167610">
        <ele>81.9</ele>
        <time>2021-05-20T11:34:04Z</time>
      </trkpt>
      <trkpt lat="42.2253470" lon="-8.7167620">
        <ele>81.9</ele>
        <time>2021-05-20T11:34:05Z</time>
      </trkpt>
      <trkpt lat="42.2253450" lon="-8.7167610">
        <ele>81.9</ele>
        <time>2021-05-20T11:34:06Z</time>
      </trkpt>
      <trkpt lat="42.2253440" lon="-8.7167600">
        <ele>81.9</ele>
        <time>2021-05-20T11:34:07Z</time>
      </trkpt>
      <trkpt lat="42.2253420" lon="-8.7167580">
        <ele>81.9</ele>
        <time>2021-05-20T11:34:08Z</time>
      </trkpt>
      <trkpt lat="42.2253440" lon="-8.7167570">
        <ele>81.9</ele>
        <time>2021-05-20T11:34:09Z</time>
      </trkpt>
      <trkpt lat="42.2253450" lon="-8.7167590">
        <ele>81.9</ele>
        <time>2021-05-20T11:34:10Z</time>
      </trkpt>
      <trkpt lat="42.2253450" lon="-8.7167590">
        <ele>81.9</ele>
        <time>2021-05-20T11:34:11Z</time>
      </trkpt>
      <trkpt lat="42.2253430" lon="-8.7167620">
        <ele>81.9</ele>
        <time>2021-05-20T11:34:12Z</time>
      </trkpt>
      <trkpt lat="42.2253400" lon="-8.7167590">
        <ele>81.9</ele>
        <time>2021-05-20T11:34:13Z</time>
      </trkpt>
      <trkpt lat="42.2253410" lon="-8.7167610">
        <ele>81.9</ele>
        <time>2021-05-20T11:34:14Z</time>
      </trkpt>
      <trkpt lat="42.2253380" lon="-8.7167600">
        <ele>81.9</ele>
        <time>2021-05-20T11:34:15Z</time>
      </trkpt>
      <trkpt lat="42.2253380" lon="-8.7167580">
        <ele>81.9</ele>
        <time>2021-05-20T11:34:16Z</time>
      </trkpt>
      <trkpt lat="42.2253400" lon="-8.7167570">
        <ele>81.9</ele>
        <time>2021-05-20T11:34:17Z</time>
      </trkpt>
      <trkpt lat="42.2253410" lon="-8.7167560">
        <ele>81.9</ele>
        <time>2021-05-20T11:34:18Z</time>
      </trkpt>
      <trkpt lat="42.2253410" lon="-8.7167530">
        <ele>81.9</ele>
        <time>2021-05-20T11:34:19Z</time>
      </trkpt>
      <trkpt lat="42.2253390" lon="-8.7167520">
        <ele>81.9</ele>
        <time>2021-05-20T11:34:20Z</time>
      </trkpt>
      <trkpt lat="42.2253390" lon="-8.7167510">
        <ele>81.9</ele>
        <time>2021-05-20T11:34:21Z</time>
      </trkpt>
      <trkpt lat="42.2253380" lon="-8.7167510">
        <ele>81.9</ele>
        <time>2021-05-20T11:34:22Z</time>
      </trkpt>
      <trkpt lat="42.2253380" lon="-8.7167510">
        <ele>81.9</ele>
        <time>2021-05-20T11:34:23Z</time>
      </trkpt>
      <trkpt lat="42.2253400" lon="-8.7167500">
        <ele>81.9</ele>
        <time>2021-05-20T11:34:24Z</time>
      </trkpt>
      <trkpt lat="42.2253380" lon="-8.7167500">
        <ele>81.9</ele>
        <time>2021-05-20T11:34:25Z</time>
      </trkpt>
      <trkpt lat="42.2253460" lon="-8.7167570">
        <ele>81.9</ele>
        <time>2021-05-20T11:34:26Z</time>
      </trkpt>
      <trkpt lat="42.2253540" lon="-8.7167630">
        <ele>81.9</ele>
        <time>2021-05-20T11:34:27Z</time>
      </trkpt>
      <trkpt lat="42.2253540" lon="-8.7167650">
        <ele>81.9</ele>
        <time>2021-05-20T11:34:28Z</time>
      </trkpt>
      <trkpt lat="42.2253550" lon="-8.7167690">
        <ele>81.9</ele>
        <time>2021-05-20T11:34:29Z</time>
      </trkpt>
      <trkpt lat="42.2253530" lon="-8.7167700">
        <ele>81.9</ele>
        <time>2021-05-20T11:34:30Z</time>
      </trkpt>
      <trkpt lat="42.2253560" lon="-8.7167730">
        <ele>81.9</ele>
        <time>2021-05-20T11:34:31Z</time>
      </trkpt>
      <trkpt lat="42.2253540" lon="-8.7167740">
        <ele>81.9</ele>
        <time>2021-05-20T11:34:32Z</time>
      </trkpt>
      <trkpt lat="42.2253600" lon="-8.7167760">
        <ele>81.9</ele>
        <time>2021-05-20T11:34:33Z</time>
      </trkpt>
      <trkpt lat="42.2253590" lon="-8.7167790">
        <ele>81.9</ele>
        <time>2021-05-20T11:34:34Z</time>
      </trkpt>
      <trkpt lat="42.2253590" lon="-8.7167790">
        <ele>81.9</ele>
        <time>2021-05-20T11:34:35Z</time>
      </trkpt>
      <trkpt lat="42.2253530" lon="-8.7167770">
        <ele>81.9</ele>
        <time>2021-05-20T11:34:36Z</time>
      </trkpt>
      <trkpt lat="42.2253490" lon="-8.7167790">
        <ele>81.9</ele>
        <time>2021-05-20T11:34:37Z</time>
      </trkpt>
      <trkpt lat="42.2253480" lon="-8.7167790">
        <ele>81.9</ele>
        <time>2021-05-20T11:34:38Z</time>
      </trkpt>
      <trkpt lat="42.2253490" lon="-8.7167820">
        <ele>81.9</ele>
        <time>2021-05-20T11:34:39Z</time>
      </trkpt>
      <trkpt lat="42.2253500" lon="-8.7167830">
        <ele>81.9</ele>
        <time>2021-05-20T11:34:40Z</time>
      </trkpt>
      <trkpt lat="42.2253480" lon="-8.7167800">
        <ele>81.9</ele>
        <time>2021-05-20T11:34:41Z</time>
      </trkpt>
      <trkpt lat="42.2253460" lon="-8.7167780">
        <ele>81.9</ele>
        <time>2021-05-20T11:34:42Z</time>
      </trkpt>
      <trkpt lat="42.2253490" lon="-8.7167790">
        <ele>81.9</ele>
        <time>2021-05-20T11:34:43Z</time>
      </trkpt>
      <trkpt lat="42.2253470" lon="-8.7167770">
        <ele>81.9</ele>
        <time>2021-05-20T11:34:44Z</time>
      </trkpt>
      <trkpt lat="42.2253480" lon="-8.7167770">
        <ele>81.9</ele>
        <time>2021-05-20T11:34:45Z</time>
      </trkpt>
      <trkpt lat="42.2253460" lon="-8.7167770">
        <ele>81.9</ele>
        <time>2021-05-20T11:34:46Z</time>
      </trkpt>
      <trkpt lat="42.2253470" lon="-8.7167770">
        <ele>81.9</ele>
        <time>2021-05-20T11:34:47Z</time>
      </trkpt>
      <trkpt lat="42.2253470" lon="-8.7167780">
        <ele>81.9</ele>
        <time>2021-05-20T11:34:48Z</time>
      </trkpt>
      <trkpt lat="42.2253440" lon="-8.7167740">
        <ele>81.9</ele>
        <time>2021-05-20T11:34:49Z</time>
      </trkpt>
      <trkpt lat="42.2253440" lon="-8.7167760">
        <ele>81.9</ele>
        <time>2021-05-20T11:34:50Z</time>
      </trkpt>
      <trkpt lat="42.2253440" lon="-8.7167810">
        <ele>81.9</ele>
        <time>2021-05-20T11:34:51Z</time>
      </trkpt>
      <trkpt lat="42.2253450" lon="-8.7167790">
        <ele>81.9</ele>
        <time>2021-05-20T11:34:52Z</time>
      </trkpt>
      <trkpt lat="42.2253440" lon="-8.7167800">
        <ele>81.9</ele>
        <time>2021-05-20T11:34:53Z</time>
      </trkpt>
      <trkpt lat="42.2253450" lon="-8.7167760">
        <ele>81.9</ele>
        <time>2021-05-20T11:34:54Z</time>
      </trkpt>
      <trkpt lat="42.2253510" lon="-8.7167790">
        <ele>81.9</ele>
        <time>2021-05-20T11:34:55Z</time>
      </trkpt>
      <trkpt lat="42.2253560" lon="-8.7167790">
        <ele>81.9</ele>
        <time>2021-05-20T11:34:56Z</time>
      </trkpt>
      <trkpt lat="42.2253580" lon="-8.7167780">
        <ele>81.9</ele>
        <time>2021-05-20T11:34:57Z</time>
      </trkpt>
      <trkpt lat="42.2253560" lon="-8.7167760">
        <ele>81.9</ele>
        <time>2021-05-20T11:34:58Z</time>
      </trkpt>
      <trkpt lat="42.2253590" lon="-8.7167750">
        <ele>81.9</ele>
        <time>2021-05-20T11:34:59Z</time>
      </trkpt>
      <trkpt lat="42.2253600" lon="-8.7167760">
        <ele>81.9</ele>
        <time>2021-05-20T11:35:00Z</time>
      </trkpt>
      <trkpt lat="42.2253600" lon="-8.7167730">
        <ele>81.9</ele>
        <time>2021-05-20T11:35:01Z</time>
      </trkpt>
      <trkpt lat="42.2253610" lon="-8.7167740">
        <ele>81.9</ele>
        <time>2021-05-20T11:35:02Z</time>
      </trkpt>
      <trkpt lat="42.2253630" lon="-8.7167750">
        <ele>81.9</ele>
        <time>2021-05-20T11:35:03Z</time>
      </trkpt>
      <trkpt lat="42.2253650" lon="-8.7167750">
        <ele>81.9</ele>
        <time>2021-05-20T11:35:04Z</time>
      </trkpt>
      <trkpt lat="42.2253730" lon="-8.7167780">
        <ele>81.9</ele>
        <time>2021-05-20T11:35:05Z</time>
      </trkpt>
      <trkpt lat="42.2253770" lon="-8.7167770">
        <ele>81.9</ele>
        <time>2021-05-20T11:35:06Z</time>
      </trkpt>
      <trkpt lat="42.2253810" lon="-8.7167800">
        <ele>81.9</ele>
        <time>2021-05-20T11:35:07Z</time>
      </trkpt>
      <trkpt lat="42.2253820" lon="-8.7167820">
        <ele>81.9</ele>
        <time>2021-05-20T11:35:08Z</time>
      </trkpt>
      <trkpt lat="42.2253820" lon="-8.7167820">
        <ele>81.9</ele>
        <time>2021-05-20T11:35:09Z</time>
      </trkpt>
      <trkpt lat="42.2253850" lon="-8.7167780">
        <ele>81.9</ele>
        <time>2021-05-20T11:35:10Z</time>
      </trkpt>
      <trkpt lat="42.2253870" lon="-8.7167770">
        <ele>81.9</ele>
        <time>2021-05-20T11:35:11Z</time>
      </trkpt>
      <trkpt lat="42.2253860" lon="-8.7167740">
        <ele>81.9</ele>
        <time>2021-05-20T11:35:12Z</time>
      </trkpt>
      <trkpt lat="42.2253870" lon="-8.7167770">
        <ele>81.9</ele>
        <time>2021-05-20T11:35:13Z</time>
      </trkpt>
      <trkpt lat="42.2253900" lon="-8.7167780">
        <ele>81.9</ele>
        <time>2021-05-20T11:35:14Z</time>
      </trkpt>
      <trkpt lat="42.2253890" lon="-8.7167820">
        <ele>81.9</ele>
        <time>2021-05-20T11:35:15Z</time>
      </trkpt>
      <trkpt lat="42.2253840" lon="-8.7167780">
        <ele>81.9</ele>
        <time>2021-05-20T11:35:16Z</time>
      </trkpt>
      <trkpt lat="42.2253830" lon="-8.7167810">
        <ele>81.9</ele>
        <time>2021-05-20T11:35:17Z</time>
      </trkpt>
      <trkpt lat="42.2253820" lon="-8.7167820">
        <ele>81.9</ele>
        <time>2021-05-20T11:35:18Z</time>
      </trkpt>
      <trkpt lat="42.2253820" lon="-8.7167790">
        <ele>81.9</ele>
        <time>2021-05-20T11:35:19Z</time>
      </trkpt>
      <trkpt lat="42.2253830" lon="-8.7167800">
        <ele>81.9</ele>
        <time>2021-05-20T11:35:20Z</time>
      </trkpt>
      <trkpt lat="42.2253830" lon="-8.7167800">
        <ele>81.9</ele>
        <time>2021-05-20T11:35:21Z</time>
      </trkpt>
      <trkpt lat="42.2253830" lon="-8.7167800">
        <ele>81.9</ele>
        <time>2021-05-20T11:35:22Z</time>
      </trkpt>
      <trkpt lat="42.2253830" lon="-8.7167800">
        <ele>81.9</ele>
        <time>2021-05-20T11:35:23Z</time>
      </trkpt>
      <trkpt lat="42.2253830" lon="-8.7167800">
        <ele>81.9</ele>
        <time>2021-05-20T11:35:24Z</time>
      </trkpt>
      <trkpt lat="42.2253830" lon="-8.7167800">
        <ele>81.9</ele>
        <time>2021-05-20T11:35:25Z</time>
      </trkpt>
      <trkpt lat="42.2253830" lon="-8.7167800">
        <ele>81.9</ele>
        <time>2021-05-20T11:35:26Z</time>
      </trkpt>
      <trkpt lat="42.2253830" lon="-8.7167800">
        <ele>81.9</ele>
        <time>2021-05-20T11:35:27Z</time>
      </trkpt>
      <trkpt lat="42.2253830" lon="-8.7167800">
        <ele>81.9</ele>
        <time>2021-05-20T11:35:28Z</time>
      </trkpt>
      <trkpt lat="42.2253830" lon="-8.7167800">
        <ele>81.9</ele>
        <time>2021-05-20T11:35:29Z</time>
      </trkpt>
      <trkpt lat="42.2253830" lon="-8.7167800">
        <ele>81.9</ele>
        <time>2021-05-20T11:35:30Z</time>
      </trkpt>
      <trkpt lat="42.2253830" lon="-8.7167800">
        <ele>81.9</ele>
        <time>2021-05-20T11:35:31Z</time>
      </trkpt>
      <trkpt lat="42.2253830" lon="-8.7167800">
        <ele>81.9</ele>
        <time>2021-05-20T11:35:32Z</time>
      </trkpt>
      <trkpt lat="42.2253830" lon="-8.7167800">
        <ele>81.9</ele>
        <time>2021-05-20T11:35:33Z</time>
      </trkpt>
      <trkpt lat="42.2253830" lon="-8.7167800">
        <ele>81.9</ele>
        <time>2021-05-20T11:35:34Z</time>
      </trkpt>
      <trkpt lat="42.2253830" lon="-8.7167800">
        <ele>81.9</ele>
        <time>2021-05-20T11:35:35Z</time>
      </trkpt>
      <trkpt lat="42.2253830" lon="-8.7167800">
        <ele>81.9</ele>
        <time>2021-05-20T11:35:36Z</time>
      </trkpt>
      <trkpt lat="42.2253830" lon="-8.7167800">
        <ele>81.9</ele>
        <time>2021-05-20T11:35:37Z</time>
      </trkpt>
      <trkpt lat="42.2253700" lon="-8.7167930">
        <ele>81.9</ele>
        <time>2021-05-20T11:35:38Z</time>
      </trkpt>
      <trkpt lat="42.2253700" lon="-8.7167940">
        <ele>81.9</ele>
        <time>2021-05-20T11:35:39Z</time>
      </trkpt>
      <trkpt lat="42.2253670" lon="-8.7167970">
        <ele>81.9</ele>
        <time>2021-05-20T11:35:40Z</time>
      </trkpt>
      <trkpt lat="42.2253670" lon="-8.7167970">
        <ele>81.9</ele>
        <time>2021-05-20T11:35:41Z</time>
      </trkpt>
      <trkpt lat="42.2253700" lon="-8.7167910">
        <ele>81.9</ele>
        <time>2021-05-20T11:35:42Z</time>
      </trkpt>
      <trkpt lat="42.2253700" lon="-8.7167850">
        <ele>81.9</ele>
        <time>2021-05-20T11:35:43Z</time>
      </trkpt>
      <trkpt lat="42.2253740" lon="-8.7167820">
        <ele>81.9</ele>
        <time>2021-05-20T11:35:44Z</time>
      </trkpt>
      <trkpt lat="42.2253760" lon="-8.7167750">
        <ele>81.9</ele>
        <time>2021-05-20T11:35:45Z</time>
      </trkpt>
      <trkpt lat="42.2253790" lon="-8.7167690">
        <ele>81.9</ele>
        <time>2021-05-20T11:35:46Z</time>
      </trkpt>
      <trkpt lat="42.2253840" lon="-8.7167660">
        <ele>81.9</ele>
        <time>2021-05-20T11:35:47Z</time>
      </trkpt>
      <trkpt lat="42.2253840" lon="-8.7167660">
        <ele>81.9</ele>
        <time>2021-05-20T11:35:48Z</time>
      </trkpt>
      <trkpt lat="42.2253840" lon="-8.7167660">
        <ele>81.9</ele>
        <time>2021-05-20T11:35:49Z</time>
      </trkpt>
      <trkpt lat="42.2253840" lon="-8.7167660">
        <ele>81.9</ele>
        <time>2021-05-20T11:35:50Z</time>
      </trkpt>
      <trkpt lat="42.2253840" lon="-8.7167660">
        <ele>81.9</ele>
        <time>2021-05-20T11:35:51Z</time>
      </trkpt>
      <trkpt lat="42.2253840" lon="-8.7167660">
        <ele>81.9</ele>
        <time>2021-05-20T11:35:52Z</time>
      </trkpt>
      <trkpt lat="42.2253840" lon="-8.7167660">
        <ele>81.9</ele>
        <time>2021-05-20T11:35:53Z</time>
      </trkpt>
      <trkpt lat="42.2253840" lon="-8.7167660">
        <ele>81.9</ele>
        <time>2021-05-20T11:35:54Z</time>
      </trkpt>
      <trkpt lat="42.2253840" lon="-8.7167660">
        <ele>81.9</ele>
        <time>2021-05-20T11:35:55Z</time>
      </trkpt>
      <trkpt lat="42.2253840" lon="-8.7167660">
        <ele>81.9</ele>
        <time>2021-05-20T11:35:56Z</time>
      </trkpt>
      <trkpt lat="42.2253840" lon="-8.7167660">
        <ele>81.9</ele>
        <time>2021-05-20T11:35:57Z</time>
      </trkpt>
      <trkpt lat="42.2253840" lon="-8.7167660">
        <ele>81.9</ele>
        <time>2021-05-20T11:35:58Z</time>
      </trkpt>
      <trkpt lat="42.2253840" lon="-8.7167660">
        <ele>81.9</ele>
        <time>2021-05-20T11:35:59Z</time>
      </trkpt>
      <trkpt lat="42.2253840" lon="-8.7167660">
        <ele>81.9</ele>
        <time>2021-05-20T11:36:00Z</time>
      </trkpt>
      <trkpt lat="42.2253840" lon="-8.7167660">
        <ele>81.9</ele>
        <time>2021-05-20T11:36:01Z</time>
      </trkpt>
      <trkpt lat="42.2253840" lon="-8.7167660">
        <ele>81.9</ele>
        <time>2021-05-20T11:36:02Z</time>
      </trkpt>
      <trkpt lat="42.2253840" lon="-8.7167660">
        <ele>81.9</ele>
        <time>2021-05-20T11:36:03Z</time>
      </trkpt>
      <trkpt lat="42.2253840" lon="-8.7167660">
        <ele>81.9</ele>
        <time>2021-05-20T11:36:04Z</time>
      </trkpt>
      <trkpt lat="42.2253840" lon="-8.7167660">
        <ele>81.9</ele>
        <time>2021-05-20T11:36:05Z</time>
      </trkpt>
      <trkpt lat="42.2253840" lon="-8.7167660">
        <ele>81.9</ele>
        <time>2021-05-20T11:36:07Z</time>
      </trkpt>
      <trkpt lat="42.2253840" lon="-8.7167660">
        <ele>81.9</ele>
        <time>2021-05-20T11:36:08Z</time>
      </trkpt>
      <trkpt lat="42.2253840" lon="-8.7167660">
        <ele>81.9</ele>
        <time>2021-05-20T11:36:09Z</time>
      </trkpt>
      <trkpt lat="42.2253840" lon="-8.7167660">
        <ele>81.9</ele>
        <time>2021-05-20T11:36:10Z</time>
      </trkpt>
      <trkpt lat="42.2253840" lon="-8.7167660">
        <ele>81.9</ele>
        <time>2021-05-20T11:36:11Z</time>
      </trkpt>
      <trkpt lat="42.2253840" lon="-8.7167660">
        <ele>81.9</ele>
        <time>2021-05-20T11:36:12Z</time>
      </trkpt>
      <trkpt lat="42.2253840" lon="-8.7167660">
        <ele>81.9</ele>
        <time>2021-05-20T11:36:13Z</time>
      </trkpt>
      <trkpt lat="42.2253840" lon="-8.7167660">
        <ele>81.9</ele>
        <time>2021-05-20T11:36:14Z</time>
      </trkpt>
      <trkpt lat="42.2253840" lon="-8.7167660">
        <ele>81.9</ele>
        <time>2021-05-20T11:36:15Z</time>
      </trkpt>
      <trkpt lat="42.2253840" lon="-8.7167660">
        <ele>81.9</ele>
        <time>2021-05-20T11:36:16Z</time>
      </trkpt>
      <trkpt lat="42.2253840" lon="-8.7167660">
        <ele>81.9</ele>
        <time>2021-05-20T11:36:17Z</time>
      </trkpt>
      <trkpt lat="42.2253840" lon="-8.7167660">
        <ele>81.9</ele>
        <time>2021-05-20T11:36:18Z</time>
      </trkpt>
      <trkpt lat="42.2253840" lon="-8.7167660">
        <ele>81.9</ele>
        <time>2021-05-20T11:36:19Z</time>
      </trkpt>
      <trkpt lat="42.2253840" lon="-8.7167660">
        <ele>81.9</ele>
        <time>2021-05-20T11:36:20Z</time>
      </trkpt>
      <trkpt lat="42.2253840" lon="-8.7167660">
        <ele>81.9</ele>
        <time>2021-05-20T11:36:21Z</time>
      </trkpt>
      <trkpt lat="42.2253840" lon="-8.7167660">
        <ele>81.9</ele>
        <time>2021-05-20T11:36:22Z</time>
      </trkpt>
      <trkpt lat="42.2253840" lon="-8.7167660">
        <ele>81.9</ele>
        <time>2021-05-20T11:36:23Z</time>
      </trkpt>
      <trkpt lat="42.2253840" lon="-8.7167660">
        <ele>81.9</ele>
        <time>2021-05-20T11:36:24Z</time>
      </trkpt>
      <trkpt lat="42.2253840" lon="-8.7167660">
        <ele>81.9</ele>
        <time>2021-05-20T11:36:25Z</time>
      </trkpt>
      <trkpt lat="42.2253840" lon="-8.7167660">
        <ele>81.9</ele>
        <time>2021-05-20T11:36:26Z</time>
      </trkpt>
      <trkpt lat="42.2253840" lon="-8.7167660">
        <ele>81.9</ele>
        <time>2021-05-20T11:36:27Z</time>
      </trkpt>
      <trkpt lat="42.2253840" lon="-8.7167660">
        <ele>81.9</ele>
        <time>2021-05-20T11:36:28Z</time>
      </trkpt>
      <trkpt lat="42.2253840" lon="-8.7167660">
        <ele>81.9</ele>
        <time>2021-05-20T11:36:29Z</time>
      </trkpt>
      <trkpt lat="42.2253840" lon="-8.7167660">
        <ele>81.9</ele>
        <time>2021-05-20T11:36:30Z</time>
      </trkpt>
      <trkpt lat="42.2253840" lon="-8.7167660">
        <ele>81.9</ele>
        <time>2021-05-20T11:36:31Z</time>
      </trkpt>
      <trkpt lat="42.2253840" lon="-8.7167660">
        <ele>81.9</ele>
        <time>2021-05-20T11:36:32Z</time>
      </trkpt>
      <trkpt lat="42.2253840" lon="-8.7167660">
        <ele>81.9</ele>
        <time>2021-05-20T11:36:33Z</time>
      </trkpt>
      <trkpt lat="42.2253840" lon="-8.7167660">
        <ele>81.9</ele>
        <time>2021-05-20T11:36:34Z</time>
      </trkpt>
      <trkpt lat="42.2253840" lon="-8.7167660">
        <ele>81.9</ele>
        <time>2021-05-20T11:36:35Z</time>
      </trkpt>
      <trkpt lat="42.2253840" lon="-8.7167660">
        <ele>81.9</ele>
        <time>2021-05-20T11:36:36Z</time>
      </trkpt>
      <trkpt lat="42.2253840" lon="-8.7167660">
        <ele>81.9</ele>
        <time>2021-05-20T11:36:37Z</time>
      </trkpt>
      <trkpt lat="42.2253840" lon="-8.7167660">
        <ele>81.9</ele>
        <time>2021-05-20T11:36:38Z</time>
      </trkpt>
      <trkpt lat="42.2253840" lon="-8.7167660">
        <ele>81.9</ele>
        <time>2021-05-20T11:36:39Z</time>
      </trkpt>
      <trkpt lat="42.2253840" lon="-8.7167660">
        <ele>81.9</ele>
        <time>2021-05-20T11:36:40Z</time>
      </trkpt>
      <trkpt lat="42.2253840" lon="-8.7167660">
        <ele>81.9</ele>
        <time>2021-05-20T11:36:41Z</time>
      </trkpt>
      <trkpt lat="42.2253840" lon="-8.7167660">
        <ele>81.9</ele>
        <time>2021-05-20T11:36:42Z</time>
      </trkpt>
      <trkpt lat="42.2253840" lon="-8.7167660">
        <ele>81.9</ele>
        <time>2021-05-20T11:36:43Z</time>
      </trkpt>
      <trkpt lat="42.2253840" lon="-8.7167660">
        <ele>81.9</ele>
        <time>2021-05-20T11:36:44Z</time>
      </trkpt>
      <trkpt lat="42.2253840" lon="-8.7167660">
        <ele>81.9</ele>
        <time>2021-05-20T11:36:45Z</time>
      </trkpt>
      <trkpt lat="42.2253840" lon="-8.7167660">
        <ele>81.9</ele>
        <time>2021-05-20T11:36:46Z</time>
      </trkpt>
      <trkpt lat="42.2253840" lon="-8.7167660">
        <ele>81.9</ele>
        <time>2021-05-20T11:36:47Z</time>
      </trkpt>
      <trkpt lat="42.2253840" lon="-8.7167660">
        <ele>81.9</ele>
        <time>2021-05-20T11:36:48Z</time>
      </trkpt>
      <trkpt lat="42.2253840" lon="-8.7167660">
        <ele>81.9</ele>
        <time>2021-05-20T11:36:49Z</time>
      </trkpt>
      <trkpt lat="42.2253840" lon="-8.7167660">
        <ele>81.9</ele>
        <time>2021-05-20T11:36:50Z</time>
      </trkpt>
      <trkpt lat="42.2253840" lon="-8.7167660">
        <ele>81.9</ele>
        <time>2021-05-20T11:36:51Z</time>
      </trkpt>
      <trkpt lat="42.2253840" lon="-8.7167660">
        <ele>81.9</ele>
        <time>2021-05-20T11:36:52Z</time>
      </trkpt>
      <trkpt lat="42.2253840" lon="-8.7167660">
        <ele>81.9</ele>
        <time>2021-05-20T11:36:53Z</time>
      </trkpt>
      <trkpt lat="42.2253840" lon="-8.7167660">
        <ele>81.9</ele>
        <time>2021-05-20T11:36:54Z</time>
      </trkpt>
      <trkpt lat="42.2253840" lon="-8.7167660">
        <ele>81.9</ele>
        <time>2021-05-20T11:36:55Z</time>
      </trkpt>
      <trkpt lat="42.2253840" lon="-8.7167660">
        <ele>81.9</ele>
        <time>2021-05-20T11:36:56Z</time>
      </trkpt>
      <trkpt lat="42.2253840" lon="-8.7167660">
        <ele>81.9</ele>
        <time>2021-05-20T11:36:57Z</time>
      </trkpt>
      <trkpt lat="42.2253840" lon="-8.7167660">
        <ele>81.9</ele>
        <time>2021-05-20T11:36:58Z</time>
      </trkpt>
      <trkpt lat="42.2253840" lon="-8.7167660">
        <ele>81.9</ele>
        <time>2021-05-20T11:36:59Z</time>
      </trkpt>
      <trkpt lat="42.2253840" lon="-8.7167660">
        <ele>81.9</ele>
        <time>2021-05-20T11:37:00Z</time>
      </trkpt>
      <trkpt lat="42.2253840" lon="-8.7167660">
        <ele>81.9</ele>
        <time>2021-05-20T11:37:01Z</time>
      </trkpt>
      <trkpt lat="42.2253840" lon="-8.7167660">
        <ele>81.9</ele>
        <time>2021-05-20T11:37:02Z</time>
      </trkpt>
      <trkpt lat="42.2253840" lon="-8.7167660">
        <ele>81.9</ele>
        <time>2021-05-20T11:37:03Z</time>
      </trkpt>
      <trkpt lat="42.2253840" lon="-8.7167660">
        <ele>81.9</ele>
        <time>2021-05-20T11:37:04Z</time>
      </trkpt>
      <trkpt lat="42.2253840" lon="-8.7167660">
        <ele>81.9</ele>
        <time>2021-05-20T11:37:05Z</time>
      </trkpt>
      <trkpt lat="42.2253840" lon="-8.7167660">
        <ele>81.9</ele>
        <time>2021-05-20T11:37:06Z</time>
      </trkpt>
      <trkpt lat="42.2253840" lon="-8.7167660">
        <ele>81.9</ele>
        <time>2021-05-20T11:37:07Z</time>
      </trkpt>
      <trkpt lat="42.2253840" lon="-8.7167660">
        <ele>81.9</ele>
        <time>2021-05-20T11:37:08Z</time>
      </trkpt>
      <trkpt lat="42.2253840" lon="-8.7167660">
        <ele>81.9</ele>
        <time>2021-05-20T11:37:09Z</time>
      </trkpt>
      <trkpt lat="42.2253840" lon="-8.7167660">
        <ele>81.9</ele>
        <time>2021-05-20T11:37:10Z</time>
      </trkpt>
      <trkpt lat="42.2253840" lon="-8.7167660">
        <ele>81.9</ele>
        <time>2021-05-20T11:37:11Z</time>
      </trkpt>
      <trkpt lat="42.2253840" lon="-8.7167660">
        <ele>81.9</ele>
        <time>2021-05-20T11:37:12Z</time>
      </trkpt>
      <trkpt lat="42.2253840" lon="-8.7167660">
        <ele>81.9</ele>
        <time>2021-05-20T11:37:13Z</time>
      </trkpt>
      <trkpt lat="42.2253840" lon="-8.7167660">
        <ele>81.9</ele>
        <time>2021-05-20T11:37:14Z</time>
      </trkpt>
      <trkpt lat="42.2253840" lon="-8.7167660">
        <ele>81.9</ele>
        <time>2021-05-20T11:37:15Z</time>
      </trkpt>
      <trkpt lat="42.2253840" lon="-8.7167660">
        <ele>81.9</ele>
        <time>2021-05-20T11:37:16Z</time>
      </trkpt>
      <trkpt lat="42.2253840" lon="-8.7167660">
        <ele>81.9</ele>
        <time>2021-05-20T11:37:17Z</time>
      </trkpt>
      <trkpt lat="42.2253840" lon="-8.7167660">
        <ele>81.9</ele>
        <time>2021-05-20T11:37:18Z</time>
      </trkpt>
      <trkpt lat="42.2253840" lon="-8.7167660">
        <ele>81.9</ele>
        <time>2021-05-20T11:37:19Z</time>
      </trkpt>
      <trkpt lat="42.2253840" lon="-8.7167660">
        <ele>81.9</ele>
        <time>2021-05-20T11:37:20Z</time>
      </trkpt>
      <trkpt lat="42.2253840" lon="-8.7167660">
        <ele>81.9</ele>
        <time>2021-05-20T11:37:21Z</time>
      </trkpt>
      <trkpt lat="42.2253840" lon="-8.7167660">
        <ele>81.9</ele>
        <time>2021-05-20T11:37:22Z</time>
      </trkpt>
      <trkpt lat="42.2253840" lon="-8.7167660">
        <ele>81.9</ele>
        <time>2021-05-20T11:37:23Z</time>
      </trkpt>
      <trkpt lat="42.2253840" lon="-8.7167660">
        <ele>81.9</ele>
        <time>2021-05-20T11:37:24Z</time>
      </trkpt>
      <trkpt lat="42.2253840" lon="-8.7167660">
        <ele>81.9</ele>
        <time>2021-05-20T11:37:25Z</time>
      </trkpt>
      <trkpt lat="42.2253840" lon="-8.7167660">
        <ele>81.9</ele>
        <time>2021-05-20T11:37:26Z</time>
      </trkpt>
      <trkpt lat="42.2253840" lon="-8.7167660">
        <ele>81.9</ele>
        <time>2021-05-20T11:37:27Z</time>
      </trkpt>
      <trkpt lat="42.2253840" lon="-8.7167660">
        <ele>81.9</ele>
        <time>2021-05-20T11:37:28Z</time>
      </trkpt>
      <trkpt lat="42.2253840" lon="-8.7167660">
        <ele>81.9</ele>
        <time>2021-05-20T11:37:29Z</time>
      </trkpt>
      <trkpt lat="42.2253840" lon="-8.7167660">
        <ele>81.9</ele>
        <time>2021-05-20T11:37:30Z</time>
      </trkpt>
      <trkpt lat="42.2253840" lon="-8.7167660">
        <ele>81.9</ele>
        <time>2021-05-20T11:37:31Z</time>
      </trkpt>
      <trkpt lat="42.2253840" lon="-8.7167660">
        <ele>81.9</ele>
        <time>2021-05-20T11:37:32Z</time>
      </trkpt>
      <trkpt lat="42.2253840" lon="-8.7167660">
        <ele>81.9</ele>
        <time>2021-05-20T11:37:33Z</time>
      </trkpt>
      <trkpt lat="42.2253840" lon="-8.7167660">
        <ele>81.9</ele>
        <time>2021-05-20T11:37:34Z</time>
      </trkpt>
      <trkpt lat="42.2253840" lon="-8.7167660">
        <ele>81.9</ele>
        <time>2021-05-20T11:37:35Z</time>
      </trkpt>
      <trkpt lat="42.2253840" lon="-8.7167660">
        <ele>81.9</ele>
        <time>2021-05-20T11:37:36Z</time>
      </trkpt>
      <trkpt lat="42.2253840" lon="-8.7167660">
        <ele>81.9</ele>
        <time>2021-05-20T11:37:37Z</time>
      </trkpt>
      <trkpt lat="42.2253840" lon="-8.7167660">
        <ele>81.9</ele>
        <time>2021-05-20T11:37:38Z</time>
      </trkpt>
      <trkpt lat="42.2253840" lon="-8.7167660">
        <ele>81.9</ele>
        <time>2021-05-20T11:37:39Z</time>
      </trkpt>
      <trkpt lat="42.2253840" lon="-8.7167660">
        <ele>81.9</ele>
        <time>2021-05-20T11:37:40Z</time>
      </trkpt>
      <trkpt lat="42.2253840" lon="-8.7167660">
        <ele>81.9</ele>
        <time>2021-05-20T11:37:41Z</time>
      </trkpt>
      <trkpt lat="42.2253840" lon="-8.7167660">
        <ele>81.9</ele>
        <time>2021-05-20T11:37:42Z</time>
      </trkpt>
      <trkpt lat="42.2253840" lon="-8.7167660">
        <ele>81.9</ele>
        <time>2021-05-20T11:37:43Z</time>
      </trkpt>
      <trkpt lat="42.2253840" lon="-8.7167660">
        <ele>81.9</ele>
        <time>2021-05-20T11:37:44Z</time>
      </trkpt>
      <trkpt lat="42.2253840" lon="-8.7167660">
        <ele>81.9</ele>
        <time>2021-05-20T11:37:45Z</time>
      </trkpt>
      <trkpt lat="42.2253840" lon="-8.7167660">
        <ele>81.9</ele>
        <time>2021-05-20T11:37:46Z</time>
      </trkpt>
      <trkpt lat="42.2253840" lon="-8.7167660">
        <ele>81.9</ele>
        <time>2021-05-20T11:37:47Z</time>
      </trkpt>
      <trkpt lat="42.2253840" lon="-8.7167660">
        <ele>81.9</ele>
        <time>2021-05-20T11:37:48Z</time>
      </trkpt>
      <trkpt lat="42.2253840" lon="-8.7167660">
        <ele>81.9</ele>
        <time>2021-05-20T11:37:49Z</time>
      </trkpt>
      <trkpt lat="42.2253840" lon="-8.7167660">
        <ele>81.9</ele>
        <time>2021-05-20T11:37:50Z</time>
      </trkpt>
      <trkpt lat="42.2253840" lon="-8.7167660">
        <ele>81.9</ele>
        <time>2021-05-20T11:37:51Z</time>
      </trkpt>
      <trkpt lat="42.2253840" lon="-8.7167660">
        <ele>81.9</ele>
        <time>2021-05-20T11:37:52Z</time>
      </trkpt>
      <trkpt lat="42.2253840" lon="-8.7167660">
        <ele>81.9</ele>
        <time>2021-05-20T11:37:53Z</time>
      </trkpt>
      <trkpt lat="42.2253840" lon="-8.7167660">
        <ele>81.9</ele>
        <time>2021-05-20T11:37:54Z</time>
      </trkpt>
      <trkpt lat="42.2253840" lon="-8.7167660">
        <ele>81.9</ele>
        <time>2021-05-20T11:37:55Z</time>
      </trkpt>
      <trkpt lat="42.2253840" lon="-8.7167660">
        <ele>81.9</ele>
        <time>2021-05-20T11:37:56Z</time>
      </trkpt>
      <trkpt lat="42.2253840" lon="-8.7167660">
        <ele>81.9</ele>
        <time>2021-05-20T11:37:57Z</time>
      </trkpt>
      <trkpt lat="42.2253840" lon="-8.7167660">
        <ele>81.9</ele>
        <time>2021-05-20T11:37:58Z</time>
      </trkpt>
      <trkpt lat="42.2253840" lon="-8.7167660">
        <ele>81.9</ele>
        <time>2021-05-20T11:37:59Z</time>
      </trkpt>
      <trkpt lat="42.2253840" lon="-8.7167660">
        <ele>81.9</ele>
        <time>2021-05-20T11:38:00Z</time>
      </trkpt>
      <trkpt lat="42.2253840" lon="-8.7167660">
        <ele>81.9</ele>
        <time>2021-05-20T11:38:01Z</time>
      </trkpt>
      <trkpt lat="42.2253840" lon="-8.7167660">
        <ele>81.9</ele>
        <time>2021-05-20T11:38:02Z</time>
      </trkpt>
      <trkpt lat="42.2253840" lon="-8.7167660">
        <ele>81.9</ele>
        <time>2021-05-20T11:38:03Z</time>
      </trkpt>
      <trkpt lat="42.2253840" lon="-8.7167660">
        <ele>81.9</ele>
        <time>2021-05-20T11:38:04Z</time>
      </trkpt>
      <trkpt lat="42.2253840" lon="-8.7167660">
        <ele>81.9</ele>
        <time>2021-05-20T11:38:05Z</time>
      </trkpt>
      <trkpt lat="42.2253840" lon="-8.7167660">
        <ele>81.9</ele>
        <time>2021-05-20T11:38:06Z</time>
      </trkpt>
      <trkpt lat="42.2253840" lon="-8.7167660">
        <ele>81.9</ele>
        <time>2021-05-20T11:38:07Z</time>
      </trkpt>
      <trkpt lat="42.2253840" lon="-8.7167660">
        <ele>81.9</ele>
        <time>2021-05-20T11:38:08Z</time>
      </trkpt>
      <trkpt lat="42.2253840" lon="-8.7167660">
        <ele>81.9</ele>
        <time>2021-05-20T11:38:09Z</time>
      </trkpt>
      <trkpt lat="42.2253840" lon="-8.7167660">
        <ele>81.9</ele>
        <time>2021-05-20T11:38:10Z</time>
      </trkpt>
      <trkpt lat="42.2253840" lon="-8.7167660">
        <ele>81.9</ele>
        <time>2021-05-20T11:38:11Z</time>
      </trkpt>
      <trkpt lat="42.2253840" lon="-8.7167660">
        <ele>81.9</ele>
        <time>2021-05-20T11:38:12Z</time>
      </trkpt>
      <trkpt lat="42.2253840" lon="-8.7167660">
        <ele>81.9</ele>
        <time>2021-05-20T11:38:13Z</time>
      </trkpt>
      <trkpt lat="42.2253840" lon="-8.7167660">
        <ele>81.9</ele>
        <time>2021-05-20T11:38:14Z</time>
      </trkpt>
      <trkpt lat="42.2253840" lon="-8.7167660">
        <ele>81.9</ele>
        <time>2021-05-20T11:38:15Z</time>
      </trkpt>
      <trkpt lat="42.2253840" lon="-8.7167660">
        <ele>81.9</ele>
        <time>2021-05-20T11:38:16Z</time>
      </trkpt>
      <trkpt lat="42.2253840" lon="-8.7167660">
        <ele>81.9</ele>
        <time>2021-05-20T11:38:17Z</time>
      </trkpt>
      <trkpt lat="42.2253840" lon="-8.7167660">
        <ele>81.9</ele>
        <time>2021-05-20T11:38:18Z</time>
      </trkpt>
      <trkpt lat="42.2253840" lon="-8.7167660">
        <ele>81.9</ele>
        <time>2021-05-20T11:38:19Z</time>
      </trkpt>
      <trkpt lat="42.2253840" lon="-8.7167660">
        <ele>81.9</ele>
        <time>2021-05-20T11:38:20Z</time>
      </trkpt>
      <trkpt lat="42.2253840" lon="-8.7167660">
        <ele>81.9</ele>
        <time>2021-05-20T11:38:21Z</time>
      </trkpt>
      <trkpt lat="42.2253840" lon="-8.7167660">
        <ele>81.9</ele>
        <time>2021-05-20T11:38:22Z</time>
      </trkpt>
      <trkpt lat="42.2253840" lon="-8.7167660">
        <ele>81.9</ele>
        <time>2021-05-20T11:38:23Z</time>
      </trkpt>
      <trkpt lat="42.2253840" lon="-8.7167660">
        <ele>81.9</ele>
        <time>2021-05-20T11:38:24Z</time>
      </trkpt>
      <trkpt lat="42.2253840" lon="-8.7167660">
        <ele>81.9</ele>
        <time>2021-05-20T11:38:25Z</time>
      </trkpt>
      <trkpt lat="42.2253840" lon="-8.7167660">
        <ele>81.9</ele>
        <time>2021-05-20T11:38:26Z</time>
      </trkpt>
      <trkpt lat="42.2253840" lon="-8.7167660">
        <ele>81.9</ele>
        <time>2021-05-20T11:38:27Z</time>
      </trkpt>
      <trkpt lat="42.2253840" lon="-8.7167660">
        <ele>81.9</ele>
        <time>2021-05-20T11:38:28Z</time>
      </trkpt>
      <trkpt lat="42.2253840" lon="-8.7167660">
        <ele>81.9</ele>
        <time>2021-05-20T11:38:29Z</time>
      </trkpt>
      <trkpt lat="42.2253840" lon="-8.7167660">
        <ele>81.9</ele>
        <time>2021-05-20T11:38:30Z</time>
      </trkpt>
      <trkpt lat="42.2253840" lon="-8.7167660">
        <ele>81.9</ele>
        <time>2021-05-20T11:38:31Z</time>
      </trkpt>
      <trkpt lat="42.2253840" lon="-8.7167660">
        <ele>81.9</ele>
        <time>2021-05-20T11:38:32Z</time>
      </trkpt>
      <trkpt lat="42.2253840" lon="-8.7167660">
        <ele>81.9</ele>
        <time>2021-05-20T11:38:33Z</time>
      </trkpt>
      <trkpt lat="42.2253840" lon="-8.7167660">
        <ele>81.9</ele>
        <time>2021-05-20T11:38:34Z</time>
      </trkpt>
      <trkpt lat="42.2253840" lon="-8.7167660">
        <ele>81.9</ele>
        <time>2021-05-20T11:38:35Z</time>
      </trkpt>
      <trkpt lat="42.2253840" lon="-8.7167660">
        <ele>81.9</ele>
        <time>2021-05-20T11:38:36Z</time>
      </trkpt>
      <trkpt lat="42.2253840" lon="-8.7167660">
        <ele>81.9</ele>
        <time>2021-05-20T11:38:37Z</time>
      </trkpt>
      <trkpt lat="42.2253840" lon="-8.7167660">
        <ele>81.9</ele>
        <time>2021-05-20T11:38:38Z</time>
      </trkpt>
      <trkpt lat="42.2253840" lon="-8.7167660">
        <ele>81.9</ele>
        <time>2021-05-20T11:38:39Z</time>
      </trkpt>
      <trkpt lat="42.2253840" lon="-8.7167660">
        <ele>81.9</ele>
        <time>2021-05-20T11:38:40Z</time>
      </trkpt>
      <trkpt lat="42.2253840" lon="-8.7167660">
        <ele>81.9</ele>
        <time>2021-05-20T11:38:41Z</time>
      </trkpt>
      <trkpt lat="42.2253840" lon="-8.7167660">
        <ele>81.9</ele>
        <time>2021-05-20T11:38:42Z</time>
      </trkpt>
      <trkpt lat="42.2253840" lon="-8.7167660">
        <ele>81.9</ele>
        <time>2021-05-20T11:38:43Z</time>
      </trkpt>
      <trkpt lat="42.2253840" lon="-8.7167660">
        <ele>81.9</ele>
        <time>2021-05-20T11:38:44Z</time>
      </trkpt>
      <trkpt lat="42.2253840" lon="-8.7167660">
        <ele>81.9</ele>
        <time>2021-05-20T11:38:45Z</time>
      </trkpt>
      <trkpt lat="42.2253840" lon="-8.7167660">
        <ele>81.9</ele>
        <time>2021-05-20T11:38:46Z</time>
      </trkpt>
      <trkpt lat="42.2253840" lon="-8.7167660">
        <ele>81.9</ele>
        <time>2021-05-20T11:38:47Z</time>
      </trkpt>
      <trkpt lat="42.2253840" lon="-8.7167660">
        <ele>81.9</ele>
        <time>2021-05-20T11:38:48Z</time>
      </trkpt>
      <trkpt lat="42.2253840" lon="-8.7167660">
        <ele>81.9</ele>
        <time>2021-05-20T11:38:49Z</time>
      </trkpt>
      <trkpt lat="42.2253840" lon="-8.7167660">
        <ele>81.9</ele>
        <time>2021-05-20T11:38:50Z</time>
      </trkpt>
      <trkpt lat="42.2253840" lon="-8.7167660">
        <ele>81.9</ele>
        <time>2021-05-20T11:38:51Z</time>
      </trkpt>
      <trkpt lat="42.2253840" lon="-8.7167660">
        <ele>81.9</ele>
        <time>2021-05-20T11:38:52Z</time>
      </trkpt>
      <trkpt lat="42.2253840" lon="-8.7167660">
        <ele>81.9</ele>
        <time>2021-05-20T11:38:53Z</time>
      </trkpt>
      <trkpt lat="42.2253840" lon="-8.7167660">
        <ele>81.9</ele>
        <time>2021-05-20T11:38:54Z</time>
      </trkpt>
      <trkpt lat="42.2253840" lon="-8.7167660">
        <ele>81.9</ele>
        <time>2021-05-20T11:38:55Z</time>
      </trkpt>
      <trkpt lat="42.2253840" lon="-8.7167660">
        <ele>81.9</ele>
        <time>2021-05-20T11:38:56Z</time>
      </trkpt>
      <trkpt lat="42.2253840" lon="-8.7167660">
        <ele>81.9</ele>
        <time>2021-05-20T11:38:57Z</time>
      </trkpt>
      <trkpt lat="42.2253840" lon="-8.7167660">
        <ele>81.9</ele>
        <time>2021-05-20T11:38:58Z</time>
      </trkpt>
      <trkpt lat="42.2253840" lon="-8.7167660">
        <ele>81.9</ele>
        <time>2021-05-20T11:38:59Z</time>
      </trkpt>
      <trkpt lat="42.2253840" lon="-8.7167660">
        <ele>81.9</ele>
        <time>2021-05-20T11:39:00Z</time>
      </trkpt>
      <trkpt lat="42.2253840" lon="-8.7167660">
        <ele>81.9</ele>
        <time>2021-05-20T11:39:01Z</time>
      </trkpt>
      <trkpt lat="42.2253840" lon="-8.7167660">
        <ele>81.9</ele>
        <time>2021-05-20T11:39:02Z</time>
      </trkpt>
      <trkpt lat="42.2253840" lon="-8.7167660">
        <ele>81.9</ele>
        <time>2021-05-20T11:39:03Z</time>
      </trkpt>
      <trkpt lat="42.2253840" lon="-8.7167660">
        <ele>81.9</ele>
        <time>2021-05-20T11:39:04Z</time>
      </trkpt>
      <trkpt lat="42.2253840" lon="-8.7167660">
        <ele>81.9</ele>
        <time>2021-05-20T11:39:05Z</time>
      </trkpt>
      <trkpt lat="42.2253840" lon="-8.7167660">
        <ele>81.9</ele>
        <time>2021-05-20T11:39:06Z</time>
      </trkpt>
      <trkpt lat="42.2253840" lon="-8.7167660">
        <ele>81.9</ele>
        <time>2021-05-20T11:39:07Z</time>
      </trkpt>
      <trkpt lat="42.2253840" lon="-8.7167660">
        <ele>81.9</ele>
        <time>2021-05-20T11:39:08Z</time>
      </trkpt>
      <trkpt lat="42.2253840" lon="-8.7167660">
        <ele>81.9</ele>
        <time>2021-05-20T11:39:09Z</time>
      </trkpt>
      <trkpt lat="42.2253840" lon="-8.7167660">
        <ele>81.9</ele>
        <time>2021-05-20T11:39:10Z</time>
      </trkpt>
      <trkpt lat="42.2253840" lon="-8.7167660">
        <ele>81.9</ele>
        <time>2021-05-20T11:39:11Z</time>
      </trkpt>
      <trkpt lat="42.2253840" lon="-8.7167660">
        <ele>81.9</ele>
        <time>2021-05-20T11:39:12Z</time>
      </trkpt>
      <trkpt lat="42.2253840" lon="-8.7167660">
        <ele>81.9</ele>
        <time>2021-05-20T11:39:13Z</time>
      </trkpt>
      <trkpt lat="42.2253840" lon="-8.7167660">
        <ele>81.9</ele>
        <time>2021-05-20T11:39:14Z</time>
      </trkpt>
      <trkpt lat="42.2253840" lon="-8.7167660">
        <ele>81.9</ele>
        <time>2021-05-20T11:39:15Z</time>
      </trkpt>
      <trkpt lat="42.2253840" lon="-8.7167660">
        <ele>81.9</ele>
        <time>2021-05-20T11:39:16Z</time>
      </trkpt>
      <trkpt lat="42.2253840" lon="-8.7167660">
        <ele>81.9</ele>
        <time>2021-05-20T11:39:17Z</time>
      </trkpt>
      <trkpt lat="42.2253840" lon="-8.7167660">
        <ele>81.9</ele>
        <time>2021-05-20T11:39:18Z</time>
      </trkpt>
      <trkpt lat="42.2253840" lon="-8.7167660">
        <ele>81.9</ele>
        <time>2021-05-20T11:39:19Z</time>
      </trkpt>
      <trkpt lat="42.2253840" lon="-8.7167660">
        <ele>81.9</ele>
        <time>2021-05-20T11:39:20Z</time>
      </trkpt>
      <trkpt lat="42.2253840" lon="-8.7167660">
        <ele>81.9</ele>
        <time>2021-05-20T11:39:21Z</time>
      </trkpt>
      <trkpt lat="42.2253840" lon="-8.7167660">
        <ele>81.9</ele>
        <time>2021-05-20T11:39:22Z</time>
      </trkpt>
      <trkpt lat="42.2253840" lon="-8.7167660">
        <ele>81.9</ele>
        <time>2021-05-20T11:39:23Z</time>
      </trkpt>
      <trkpt lat="42.2253840" lon="-8.7167660">
        <ele>81.9</ele>
        <time>2021-05-20T11:39:24Z</time>
      </trkpt>
      <trkpt lat="42.2253840" lon="-8.7167660">
        <ele>81.9</ele>
        <time>2021-05-20T11:39:25Z</time>
      </trkpt>
      <trkpt lat="42.2253840" lon="-8.7167660">
        <ele>81.9</ele>
        <time>2021-05-20T11:39:26Z</time>
      </trkpt>
      <trkpt lat="42.2253840" lon="-8.7167660">
        <ele>81.9</ele>
        <time>2021-05-20T11:39:27Z</time>
      </trkpt>
      <trkpt lat="42.2253840" lon="-8.7167660">
        <ele>81.9</ele>
        <time>2021-05-20T11:39:28Z</time>
      </trkpt>
      <trkpt lat="42.2253840" lon="-8.7167660">
        <ele>81.9</ele>
        <time>2021-05-20T11:39:29Z</time>
      </trkpt>
      <trkpt lat="42.2253840" lon="-8.7167660">
        <ele>81.9</ele>
        <time>2021-05-20T11:39:30Z</time>
      </trkpt>
      <trkpt lat="42.2253840" lon="-8.7167660">
        <ele>81.9</ele>
        <time>2021-05-20T11:39:31Z</time>
      </trkpt>
      <trkpt lat="42.2253840" lon="-8.7167660">
        <ele>81.9</ele>
        <time>2021-05-20T11:39:32Z</time>
      </trkpt>
      <trkpt lat="42.2253840" lon="-8.7167660">
        <ele>81.9</ele>
        <time>2021-05-20T11:39:33Z</time>
      </trkpt>
      <trkpt lat="42.2253840" lon="-8.7167660">
        <ele>81.9</ele>
        <time>2021-05-20T11:39:34Z</time>
      </trkpt>
      <trkpt lat="42.2253840" lon="-8.7167660">
        <ele>81.9</ele>
        <time>2021-05-20T11:39:35Z</time>
      </trkpt>
      <trkpt lat="42.2253840" lon="-8.7167660">
        <ele>81.9</ele>
        <time>2021-05-20T11:39:36Z</time>
      </trkpt>
      <trkpt lat="42.2253840" lon="-8.7167660">
        <ele>81.9</ele>
        <time>2021-05-20T11:39:37Z</time>
      </trkpt>
      <trkpt lat="42.2253840" lon="-8.7167660">
        <ele>81.9</ele>
        <time>2021-05-20T11:39:38Z</time>
      </trkpt>
      <trkpt lat="42.2253840" lon="-8.7167660">
        <ele>81.9</ele>
        <time>2021-05-20T11:39:39Z</time>
      </trkpt>
      <trkpt lat="42.2253840" lon="-8.7167660">
        <ele>81.9</ele>
        <time>2021-05-20T11:39:40Z</time>
      </trkpt>
      <trkpt lat="42.2253840" lon="-8.7167660">
        <ele>81.9</ele>
        <time>2021-05-20T11:39:41Z</time>
      </trkpt>
      <trkpt lat="42.2253840" lon="-8.7167660">
        <ele>81.9</ele>
        <time>2021-05-20T11:39:42Z</time>
      </trkpt>
      <trkpt lat="42.2253840" lon="-8.7167660">
        <ele>81.9</ele>
        <time>2021-05-20T11:39:43Z</time>
      </trkpt>
      <trkpt lat="42.2253610" lon="-8.7168210">
        <ele>82.0</ele>
        <time>2021-05-20T11:39:44Z</time>
      </trkpt>
      <trkpt lat="42.2253570" lon="-8.7168190">
        <ele>82.0</ele>
        <time>2021-05-20T11:39:45Z</time>
      </trkpt>
      <trkpt lat="42.2253570" lon="-8.7168180">
        <ele>82.0</ele>
        <time>2021-05-20T11:39:46Z</time>
      </trkpt>
      <trkpt lat="42.2253580" lon="-8.7168160">
        <ele>82.0</ele>
        <time>2021-05-20T11:39:47Z</time>
      </trkpt>
      <trkpt lat="42.2253580" lon="-8.7168160">
        <ele>82.0</ele>
        <time>2021-05-20T11:39:48Z</time>
      </trkpt>
      <trkpt lat="42.2253570" lon="-8.7168150">
        <ele>82.0</ele>
        <time>2021-05-20T11:39:49Z</time>
      </trkpt>
      <trkpt lat="42.2253570" lon="-8.7168150">
        <ele>82.0</ele>
        <time>2021-05-20T11:39:50Z</time>
      </trkpt>
      <trkpt lat="42.2253590" lon="-8.7168130">
        <ele>82.0</ele>
        <time>2021-05-20T11:39:51Z</time>
      </trkpt>
      <trkpt lat="42.2253600" lon="-8.7168110">
        <ele>82.0</ele>
        <time>2021-05-20T11:39:52Z</time>
      </trkpt>
      <trkpt lat="42.2253660" lon="-8.7168100">
        <ele>82.0</ele>
        <time>2021-05-20T11:39:53Z</time>
      </trkpt>
      <trkpt lat="42.2253690" lon="-8.7168090">
        <ele>82.0</ele>
        <time>2021-05-20T11:39:54Z</time>
      </trkpt>
      <trkpt lat="42.2253660" lon="-8.7168050">
        <ele>82.0</ele>
        <time>2021-05-20T11:39:55Z</time>
      </trkpt>
      <trkpt lat="42.2253820" lon="-8.7168030">
        <ele>82.0</ele>
        <time>2021-05-20T11:39:56Z</time>
      </trkpt>
      <trkpt lat="42.2253880" lon="-8.7168040">
        <ele>82.0</ele>
        <time>2021-05-20T11:39:57Z</time>
      </trkpt>
      <trkpt lat="42.2253880" lon="-8.7168060">
        <ele>82.0</ele>
        <time>2021-05-20T11:39:58Z</time>
      </trkpt>
      <trkpt lat="42.2253860" lon="-8.7168050">
        <ele>82.0</ele>
        <time>2021-05-20T11:39:59Z</time>
      </trkpt>
      <trkpt lat="42.2253730" lon="-8.7167940">
        <ele>82.0</ele>
        <time>2021-05-20T11:40:00Z</time>
      </trkpt>
      <trkpt lat="42.2253680" lon="-8.7167850">
        <ele>82.0</ele>
        <time>2021-05-20T11:40:01Z</time>
      </trkpt>
      <trkpt lat="42.2253610" lon="-8.7167810">
        <ele>82.0</ele>
        <time>2021-05-20T11:40:02Z</time>
      </trkpt>
      <trkpt lat="42.2253540" lon="-8.7167770">
        <ele>82.0</ele>
        <time>2021-05-20T11:40:03Z</time>
      </trkpt>
      <trkpt lat="42.2253460" lon="-8.7167730">
        <ele>82.0</ele>
        <time>2021-05-20T11:40:04Z</time>
      </trkpt>
      <trkpt lat="42.2253430" lon="-8.7167730">
        <ele>82.0</ele>
        <time>2021-05-20T11:40:05Z</time>
      </trkpt>
      <trkpt lat="42.2253410" lon="-8.7167670">
        <ele>82.0</ele>
        <time>2021-05-20T11:40:06Z</time>
      </trkpt>
      <trkpt lat="42.2253330" lon="-8.7167620">
        <ele>82.0</ele>
        <time>2021-05-20T11:40:07Z</time>
      </trkpt>
      <trkpt lat="42.2253310" lon="-8.7167600">
        <ele>82.0</ele>
        <time>2021-05-20T11:40:08Z</time>
      </trkpt>
      <trkpt lat="42.2253310" lon="-8.7167600">
        <ele>82.0</ele>
        <time>2021-05-20T11:40:09Z</time>
      </trkpt>
      <trkpt lat="42.2253250" lon="-8.7167570">
        <ele>82.0</ele>
        <time>2021-05-20T11:40:10Z</time>
      </trkpt>
      <trkpt lat="42.2253260" lon="-8.7167570">
        <ele>82.0</ele>
        <time>2021-05-20T11:40:11Z</time>
      </trkpt>
      <trkpt lat="42.2253260" lon="-8.7167540">
        <ele>82.0</ele>
        <time>2021-05-20T11:40:12Z</time>
      </trkpt>
      <trkpt lat="42.2253170" lon="-8.7167510">
        <ele>82.0</ele>
        <time>2021-05-20T11:40:13Z</time>
      </trkpt>
      <trkpt lat="42.2253100" lon="-8.7167550">
        <ele>82.0</ele>
        <time>2021-05-20T11:40:14Z</time>
      </trkpt>
      <trkpt lat="42.2253100" lon="-8.7167580">
        <ele>82.0</ele>
        <time>2021-05-20T11:40:15Z</time>
      </trkpt>
      <trkpt lat="42.2253200" lon="-8.7167600">
        <ele>82.0</ele>
        <time>2021-05-20T11:40:16Z</time>
      </trkpt>
      <trkpt lat="42.2253230" lon="-8.7167620">
        <ele>82.0</ele>
        <time>2021-05-20T11:40:17Z</time>
      </trkpt>
      <trkpt lat="42.2253280" lon="-8.7167640">
        <ele>82.0</ele>
        <time>2021-05-20T11:40:18Z</time>
      </trkpt>
      <trkpt lat="42.2253280" lon="-8.7167640">
        <ele>82.0</ele>
        <time>2021-05-20T11:40:19Z</time>
      </trkpt>
      <trkpt lat="42.2253310" lon="-8.7167690">
        <ele>82.0</ele>
        <time>2021-05-20T11:40:20Z</time>
      </trkpt>
      <trkpt lat="42.2253350" lon="-8.7167720">
        <ele>82.0</ele>
        <time>2021-05-20T11:40:21Z</time>
      </trkpt>
      <trkpt lat="42.2253410" lon="-8.7167720">
        <ele>82.0</ele>
        <time>2021-05-20T11:40:22Z</time>
      </trkpt>
      <trkpt lat="42.2253450" lon="-8.7167720">
        <ele>82.0</ele>
        <time>2021-05-20T11:40:23Z</time>
      </trkpt>
      <trkpt lat="42.2253530" lon="-8.7167740">
        <ele>82.0</ele>
        <time>2021-05-20T11:40:24Z</time>
      </trkpt>
      <trkpt lat="42.2253580" lon="-8.7167790">
        <ele>82.0</ele>
        <time>2021-05-20T11:40:25Z</time>
      </trkpt>
      <trkpt lat="42.2253550" lon="-8.7167810">
        <ele>82.0</ele>
        <time>2021-05-20T11:40:26Z</time>
      </trkpt>
      <trkpt lat="42.2253610" lon="-8.7167750">
        <ele>82.0</ele>
        <time>2021-05-20T11:40:27Z</time>
      </trkpt>
      <trkpt lat="42.2253690" lon="-8.7167770">
        <ele>82.0</ele>
        <time>2021-05-20T11:40:28Z</time>
      </trkpt>
      <trkpt lat="42.2253690" lon="-8.7167880">
        <ele>82.0</ele>
        <time>2021-05-20T11:40:29Z</time>
      </trkpt>
      <trkpt lat="42.2253680" lon="-8.7167890">
        <ele>82.0</ele>
        <time>2021-05-20T11:40:30Z</time>
      </trkpt>
      <trkpt lat="42.2253680" lon="-8.7167890">
        <ele>82.0</ele>
        <time>2021-05-20T11:40:31Z</time>
      </trkpt>
      <trkpt lat="42.2253760" lon="-8.7167940">
        <ele>82.0</ele>
        <time>2021-05-20T11:40:32Z</time>
      </trkpt>
      <trkpt lat="42.2253760" lon="-8.7167940">
        <ele>82.0</ele>
        <time>2021-05-20T11:40:33Z</time>
      </trkpt>
      <trkpt lat="42.2253760" lon="-8.7167940">
        <ele>82.0</ele>
        <time>2021-05-20T11:40:34Z</time>
      </trkpt>
      <trkpt lat="42.2253780" lon="-8.7167990">
        <ele>82.0</ele>
        <time>2021-05-20T11:40:35Z</time>
      </trkpt>
      <trkpt lat="42.2253760" lon="-8.7167990">
        <ele>82.0</ele>
        <time>2021-05-20T11:40:36Z</time>
      </trkpt>
      <trkpt lat="42.2253820" lon="-8.7168010">
        <ele>82.0</ele>
        <time>2021-05-20T11:40:37Z</time>
      </trkpt>
      <trkpt lat="42.2253760" lon="-8.7168010">
        <ele>82.0</ele>
        <time>2021-05-20T11:40:38Z</time>
      </trkpt>
      <trkpt lat="42.2253710" lon="-8.7167970">
        <ele>82.0</ele>
        <time>2021-05-20T11:40:39Z</time>
      </trkpt>
      <trkpt lat="42.2253720" lon="-8.7167960">
        <ele>82.0</ele>
        <time>2021-05-20T11:40:40Z</time>
      </trkpt>
      <trkpt lat="42.2253720" lon="-8.7167960">
        <ele>82.0</ele>
        <time>2021-05-20T11:40:41Z</time>
      </trkpt>
      <trkpt lat="42.2253800" lon="-8.7167930">
        <ele>82.0</ele>
        <time>2021-05-20T11:40:42Z</time>
      </trkpt>
      <trkpt lat="42.2253840" lon="-8.7167890">
        <ele>82.0</ele>
        <time>2021-05-20T11:40:43Z</time>
      </trkpt>
      <trkpt lat="42.2253840" lon="-8.7167890">
        <ele>82.0</ele>
        <time>2021-05-20T11:40:44Z</time>
      </trkpt>
      <trkpt lat="42.2253880" lon="-8.7167820">
        <ele>82.0</ele>
        <time>2021-05-20T11:40:45Z</time>
      </trkpt>
      <trkpt lat="42.2253890" lon="-8.7167810">
        <ele>82.0</ele>
        <time>2021-05-20T11:40:46Z</time>
      </trkpt>
      <trkpt lat="42.2253840" lon="-8.7167800">
        <ele>82.0</ele>
        <time>2021-05-20T11:40:47Z</time>
      </trkpt>
      <trkpt lat="42.2253840" lon="-8.7167790">
        <ele>82.0</ele>
        <time>2021-05-20T11:40:48Z</time>
      </trkpt>
      <trkpt lat="42.2253880" lon="-8.7167770">
        <ele>82.0</ele>
        <time>2021-05-20T11:40:49Z</time>
      </trkpt>
      <trkpt lat="42.2253890" lon="-8.7167760">
        <ele>82.0</ele>
        <time>2021-05-20T11:40:50Z</time>
      </trkpt>
      <trkpt lat="42.2253930" lon="-8.7167720">
        <ele>82.0</ele>
        <time>2021-05-20T11:40:51Z</time>
      </trkpt>
      <trkpt lat="42.2253950" lon="-8.7167720">
        <ele>82.0</ele>
        <time>2021-05-20T11:40:52Z</time>
      </trkpt>
      <trkpt lat="42.2253960" lon="-8.7167710">
        <ele>82.0</ele>
        <time>2021-05-20T11:40:53Z</time>
      </trkpt>
      <trkpt lat="42.2253950" lon="-8.7167720">
        <ele>82.0</ele>
        <time>2021-05-20T11:40:54Z</time>
      </trkpt>
      <trkpt lat="42.2253950" lon="-8.7167700">
        <ele>82.0</ele>
        <time>2021-05-20T11:40:55Z</time>
      </trkpt>
      <trkpt lat="42.2253900" lon="-8.7167680">
        <ele>82.0</ele>
        <time>2021-05-20T11:40:56Z</time>
      </trkpt>
      <trkpt lat="42.2253870" lon="-8.7167660">
        <ele>82.0</ele>
        <time>2021-05-20T11:40:57Z</time>
      </trkpt>
      <trkpt lat="42.2253870" lon="-8.7167660">
        <ele>82.0</ele>
        <time>2021-05-20T11:40:58Z</time>
      </trkpt>
      <trkpt lat="42.2253870" lon="-8.7167630">
        <ele>82.0</ele>
        <time>2021-05-20T11:40:59Z</time>
      </trkpt>
      <trkpt lat="42.2253860" lon="-8.7167610">
        <ele>82.0</ele>
        <time>2021-05-20T11:41:00Z</time>
      </trkpt>
      <trkpt lat="42.2253880" lon="-8.7167610">
        <ele>82.0</ele>
        <time>2021-05-20T11:41:01Z</time>
      </trkpt>
      <trkpt lat="42.2253830" lon="-8.7167510">
        <ele>82.0</ele>
        <time>2021-05-20T11:41:02Z</time>
      </trkpt>
      <trkpt lat="42.2253820" lon="-8.7167500">
        <ele>82.0</ele>
        <time>2021-05-20T11:41:03Z</time>
      </trkpt>
      <trkpt lat="42.2253800" lon="-8.7167500">
        <ele>82.0</ele>
        <time>2021-05-20T11:41:04Z</time>
      </trkpt>
      <trkpt lat="42.2253780" lon="-8.7167510">
        <ele>82.0</ele>
        <time>2021-05-20T11:41:05Z</time>
      </trkpt>
      <trkpt lat="42.2253770" lon="-8.7167490">
        <ele>82.0</ele>
        <time>2021-05-20T11:41:06Z</time>
      </trkpt>
      <trkpt lat="42.2253760" lon="-8.7167510">
        <ele>82.0</ele>
        <time>2021-05-20T11:41:07Z</time>
      </trkpt>
      <trkpt lat="42.2253750" lon="-8.7167530">
        <ele>82.0</ele>
        <time>2021-05-20T11:41:08Z</time>
      </trkpt>
      <trkpt lat="42.2253730" lon="-8.7167520">
        <ele>82.0</ele>
        <time>2021-05-20T11:41:09Z</time>
      </trkpt>
      <trkpt lat="42.2253730" lon="-8.7167520">
        <ele>82.0</ele>
        <time>2021-05-20T11:41:10Z</time>
      </trkpt>
      <trkpt lat="42.2253730" lon="-8.7167520">
        <ele>82.0</ele>
        <time>2021-05-20T11:41:11Z</time>
      </trkpt>
      <trkpt lat="42.2253730" lon="-8.7167520">
        <ele>82.0</ele>
        <time>2021-05-20T11:41:12Z</time>
      </trkpt>
      <trkpt lat="42.2253580" lon="-8.7167520">
        <ele>82.0</ele>
        <time>2021-05-20T11:41:13Z</time>
      </trkpt>
      <trkpt lat="42.2253560" lon="-8.7167530">
        <ele>82.0</ele>
        <time>2021-05-20T11:41:14Z</time>
      </trkpt>
      <trkpt lat="42.2253600" lon="-8.7167590">
        <ele>82.0</ele>
        <time>2021-05-20T11:41:15Z</time>
      </trkpt>
      <trkpt lat="42.2253640" lon="-8.7167630">
        <ele>82.0</ele>
        <time>2021-05-20T11:41:16Z</time>
      </trkpt>
      <trkpt lat="42.2253610" lon="-8.7167600">
        <ele>82.0</ele>
        <time>2021-05-20T11:41:17Z</time>
      </trkpt>
      <trkpt lat="42.2253620" lon="-8.7167600">
        <ele>82.0</ele>
        <time>2021-05-20T11:41:18Z</time>
      </trkpt>
      <trkpt lat="42.2253650" lon="-8.7167650">
        <ele>82.0</ele>
        <time>2021-05-20T11:41:19Z</time>
      </trkpt>
      <trkpt lat="42.2253700" lon="-8.7167690">
        <ele>82.0</ele>
        <time>2021-05-20T11:41:20Z</time>
      </trkpt>
      <trkpt lat="42.2253730" lon="-8.7167650">
        <ele>82.0</ele>
        <time>2021-05-20T11:41:21Z</time>
      </trkpt>
      <trkpt lat="42.2253680" lon="-8.7167640">
        <ele>82.0</ele>
        <time>2021-05-20T11:41:22Z</time>
      </trkpt>
      <trkpt lat="42.2253650" lon="-8.7167650">
        <ele>82.0</ele>
        <time>2021-05-20T11:41:23Z</time>
      </trkpt>
      <trkpt lat="42.2253670" lon="-8.7167630">
        <ele>82.0</ele>
        <time>2021-05-20T11:41:24Z</time>
      </trkpt>
      <trkpt lat="42.2253670" lon="-8.7167630">
        <ele>82.0</ele>
        <time>2021-05-20T11:41:25Z</time>
      </trkpt>
      <trkpt lat="42.2253650" lon="-8.7167640">
        <ele>82.1</ele>
        <time>2021-05-20T11:41:26Z</time>
      </trkpt>
      <trkpt lat="42.2253650" lon="-8.7167640">
        <ele>82.1</ele>
        <time>2021-05-20T11:41:27Z</time>
      </trkpt>
      <trkpt lat="42.2253650" lon="-8.7167640">
        <ele>82.1</ele>
        <time>2021-05-20T11:41:28Z</time>
      </trkpt>
      <trkpt lat="42.2253650" lon="-8.7167640">
        <ele>82.1</ele>
        <time>2021-05-20T11:41:29Z</time>
      </trkpt>
      <trkpt lat="42.2253650" lon="-8.7167640">
        <ele>82.1</ele>
        <time>2021-05-20T11:41:30Z</time>
      </trkpt>
      <trkpt lat="42.2253460" lon="-8.7167570">
        <ele>82.1</ele>
        <time>2021-05-20T11:41:31Z</time>
      </trkpt>
      <trkpt lat="42.2253410" lon="-8.7167540">
        <ele>82.1</ele>
        <time>2021-05-20T11:41:32Z</time>
      </trkpt>
      <trkpt lat="42.2253360" lon="-8.7167500">
        <ele>82.1</ele>
        <time>2021-05-20T11:41:33Z</time>
      </trkpt>
      <trkpt lat="42.2253320" lon="-8.7167520">
        <ele>82.1</ele>
        <time>2021-05-20T11:41:34Z</time>
      </trkpt>
      <trkpt lat="42.2253350" lon="-8.7167610">
        <ele>82.1</ele>
        <time>2021-05-20T11:41:35Z</time>
      </trkpt>
      <trkpt lat="42.2253360" lon="-8.7167670">
        <ele>82.1</ele>
        <time>2021-05-20T11:41:36Z</time>
      </trkpt>
      <trkpt lat="42.2253390" lon="-8.7167710">
        <ele>82.1</ele>
        <time>2021-05-20T11:41:37Z</time>
      </trkpt>
      <trkpt lat="42.2253430" lon="-8.7167780">
        <ele>82.1</ele>
        <time>2021-05-20T11:41:38Z</time>
      </trkpt>
      <trkpt lat="42.2253400" lon="-8.7167870">
        <ele>82.1</ele>
        <time>2021-05-20T11:41:39Z</time>
      </trkpt>
      <trkpt lat="42.2253400" lon="-8.7167870">
        <ele>82.1</ele>
        <time>2021-05-20T11:41:40Z</time>
      </trkpt>
      <trkpt lat="42.2253400" lon="-8.7167880">
        <ele>82.1</ele>
        <time>2021-05-20T11:41:41Z</time>
      </trkpt>
      <trkpt lat="42.2253400" lon="-8.7167880">
        <ele>82.1</ele>
        <time>2021-05-20T11:41:42Z</time>
      </trkpt>
      <trkpt lat="42.2253400" lon="-8.7167880">
        <ele>82.1</ele>
        <time>2021-05-20T11:41:43Z</time>
      </trkpt>
      <trkpt lat="42.2253400" lon="-8.7167880">
        <ele>82.1</ele>
        <time>2021-05-20T11:41:44Z</time>
      </trkpt>
      <trkpt lat="42.2253460" lon="-8.7167870">
        <ele>82.1</ele>
        <time>2021-05-20T11:41:45Z</time>
      </trkpt>
      <trkpt lat="42.2253460" lon="-8.7167880">
        <ele>82.1</ele>
        <time>2021-05-20T11:41:46Z</time>
      </trkpt>
      <trkpt lat="42.2253460" lon="-8.7167880">
        <ele>82.1</ele>
        <time>2021-05-20T11:41:47Z</time>
      </trkpt>
      <trkpt lat="42.2253440" lon="-8.7167840">
        <ele>82.1</ele>
        <time>2021-05-20T11:41:48Z</time>
      </trkpt>
      <trkpt lat="42.2253450" lon="-8.7167830">
        <ele>82.1</ele>
        <time>2021-05-20T11:41:49Z</time>
      </trkpt>
      <trkpt lat="42.2253450" lon="-8.7167840">
        <ele>82.1</ele>
        <time>2021-05-20T11:41:50Z</time>
      </trkpt>
      <trkpt lat="42.2253450" lon="-8.7167840">
        <ele>82.1</ele>
        <time>2021-05-20T11:41:51Z</time>
      </trkpt>
      <trkpt lat="42.2253450" lon="-8.7167840">
        <ele>82.1</ele>
        <time>2021-05-20T11:41:52Z</time>
      </trkpt>
      <trkpt lat="42.2253510" lon="-8.7167840">
        <ele>82.1</ele>
        <time>2021-05-20T11:41:53Z</time>
      </trkpt>
      <trkpt lat="42.2253550" lon="-8.7167840">
        <ele>82.1</ele>
        <time>2021-05-20T11:41:54Z</time>
      </trkpt>
      <trkpt lat="42.2253550" lon="-8.7167840">
        <ele>82.1</ele>
        <time>2021-05-20T11:41:55Z</time>
      </trkpt>
      <trkpt lat="42.2253550" lon="-8.7167840">
        <ele>82.1</ele>
        <time>2021-05-20T11:41:56Z</time>
      </trkpt>
      <trkpt lat="42.2253640" lon="-8.7167880">
        <ele>82.1</ele>
        <time>2021-05-20T11:41:57Z</time>
      </trkpt>
      <trkpt lat="42.2253680" lon="-8.7167890">
        <ele>82.1</ele>
        <time>2021-05-20T11:41:58Z</time>
      </trkpt>
      <trkpt lat="42.2253670" lon="-8.7167960">
        <ele>82.1</ele>
        <time>2021-05-20T11:41:59Z</time>
      </trkpt>
      <trkpt lat="42.2253690" lon="-8.7168030">
        <ele>82.1</ele>
        <time>2021-05-20T11:42:00Z</time>
      </trkpt>
      <trkpt lat="42.2253700" lon="-8.7168000">
        <ele>82.1</ele>
        <time>2021-05-20T11:42:01Z</time>
      </trkpt>
      <trkpt lat="42.2253710" lon="-8.7167940">
        <ele>82.1</ele>
        <time>2021-05-20T11:42:02Z</time>
      </trkpt>
      <trkpt lat="42.2253750" lon="-8.7167950">
        <ele>82.1</ele>
        <time>2021-05-20T11:42:03Z</time>
      </trkpt>
      <trkpt lat="42.2253750" lon="-8.7167950">
        <ele>82.1</ele>
        <time>2021-05-20T11:42:04Z</time>
      </trkpt>
      <trkpt lat="42.2253740" lon="-8.7167960">
        <ele>82.1</ele>
        <time>2021-05-20T11:42:05Z</time>
      </trkpt>
      <trkpt lat="42.2253740" lon="-8.7168000">
        <ele>82.1</ele>
        <time>2021-05-20T11:42:06Z</time>
      </trkpt>
      <trkpt lat="42.2253730" lon="-8.7168040">
        <ele>82.1</ele>
        <time>2021-05-20T11:42:07Z</time>
      </trkpt>
      <trkpt lat="42.2253740" lon="-8.7168030">
        <ele>82.1</ele>
        <time>2021-05-20T11:42:08Z</time>
      </trkpt>
      <trkpt lat="42.2253720" lon="-8.7168020">
        <ele>82.1</ele>
        <time>2021-05-20T11:42:09Z</time>
      </trkpt>
      <trkpt lat="42.2253700" lon="-8.7168070">
        <ele>82.1</ele>
        <time>2021-05-20T11:42:10Z</time>
      </trkpt>
      <trkpt lat="42.2253680" lon="-8.7168060">
        <ele>82.1</ele>
        <time>2021-05-20T11:42:11Z</time>
      </trkpt>
      <trkpt lat="42.2253690" lon="-8.7168050">
        <ele>82.1</ele>
        <time>2021-05-20T11:42:12Z</time>
      </trkpt>
      <trkpt lat="42.2253690" lon="-8.7168050">
        <ele>82.1</ele>
        <time>2021-05-20T11:42:13Z</time>
      </trkpt>
      <trkpt lat="42.2253570" lon="-8.7168120">
        <ele>82.1</ele>
        <time>2021-05-20T11:42:14Z</time>
      </trkpt>
      <trkpt lat="42.2253560" lon="-8.7168110">
        <ele>82.1</ele>
        <time>2021-05-20T11:42:15Z</time>
      </trkpt>
      <trkpt lat="42.2253570" lon="-8.7168090">
        <ele>82.1</ele>
        <time>2021-05-20T11:42:16Z</time>
      </trkpt>
      <trkpt lat="42.2253570" lon="-8.7168080">
        <ele>82.1</ele>
        <time>2021-05-20T11:42:17Z</time>
      </trkpt>
      <trkpt lat="42.2253560" lon="-8.7168040">
        <ele>82.1</ele>
        <time>2021-05-20T11:42:18Z</time>
      </trkpt>
      <trkpt lat="42.2253550" lon="-8.7168030">
        <ele>82.1</ele>
        <time>2021-05-20T11:42:19Z</time>
      </trkpt>
      <trkpt lat="42.2253550" lon="-8.7167940">
        <ele>82.1</ele>
        <time>2021-05-20T11:42:20Z</time>
      </trkpt>
      <trkpt lat="42.2253530" lon="-8.7167920">
        <ele>82.1</ele>
        <time>2021-05-20T11:42:21Z</time>
      </trkpt>
      <trkpt lat="42.2253530" lon="-8.7167920">
        <ele>82.1</ele>
        <time>2021-05-20T11:42:22Z</time>
      </trkpt>
      <trkpt lat="42.2253580" lon="-8.7167950">
        <ele>82.1</ele>
        <time>2021-05-20T11:42:23Z</time>
      </trkpt>
      <trkpt lat="42.2253590" lon="-8.7167960">
        <ele>82.1</ele>
        <time>2021-05-20T11:42:24Z</time>
      </trkpt>
      <trkpt lat="42.2253590" lon="-8.7167970">
        <ele>82.1</ele>
        <time>2021-05-20T11:42:25Z</time>
      </trkpt>
      <trkpt lat="42.2253550" lon="-8.7167940">
        <ele>82.1</ele>
        <time>2021-05-20T11:42:26Z</time>
      </trkpt>
      <trkpt lat="42.2253560" lon="-8.7167930">
        <ele>82.1</ele>
        <time>2021-05-20T11:42:27Z</time>
      </trkpt>
      <trkpt lat="42.2253540" lon="-8.7167970">
        <ele>82.1</ele>
        <time>2021-05-20T11:42:28Z</time>
      </trkpt>
      <trkpt lat="42.2253540" lon="-8.7167970">
        <ele>82.1</ele>
        <time>2021-05-20T11:42:29Z</time>
      </trkpt>
      <trkpt lat="42.2253620" lon="-8.7168020">
        <ele>82.1</ele>
        <time>2021-05-20T11:42:30Z</time>
      </trkpt>
      <trkpt lat="42.2253670" lon="-8.7168030">
        <ele>82.1</ele>
        <time>2021-05-20T11:42:31Z</time>
      </trkpt>
      <trkpt lat="42.2253760" lon="-8.7167990">
        <ele>82.1</ele>
        <time>2021-05-20T11:42:32Z</time>
      </trkpt>
      <trkpt lat="42.2253840" lon="-8.7167990">
        <ele>82.1</ele>
        <time>2021-05-20T11:42:33Z</time>
      </trkpt>
      <trkpt lat="42.2253850" lon="-8.7167990">
        <ele>82.1</ele>
        <time>2021-05-20T11:42:34Z</time>
      </trkpt>
      <trkpt lat="42.2253940" lon="-8.7167930">
        <ele>82.1</ele>
        <time>2021-05-20T11:42:35Z</time>
      </trkpt>
      <trkpt lat="42.2253990" lon="-8.7167890">
        <ele>82.1</ele>
        <time>2021-05-20T11:42:36Z</time>
      </trkpt>
      <trkpt lat="42.2253990" lon="-8.7167890">
        <ele>82.1</ele>
        <time>2021-05-20T11:42:37Z</time>
      </trkpt>
      <trkpt lat="42.2254060" lon="-8.7167870">
        <ele>82.1</ele>
        <time>2021-05-20T11:42:38Z</time>
      </trkpt>
      <trkpt lat="42.2254150" lon="-8.7167950">
        <ele>82.1</ele>
        <time>2021-05-20T11:42:39Z</time>
      </trkpt>
      <trkpt lat="42.2254180" lon="-8.7168000">
        <ele>82.1</ele>
        <time>2021-05-20T11:42:40Z</time>
      </trkpt>
      <trkpt lat="42.2254160" lon="-8.7167980">
        <ele>82.1</ele>
        <time>2021-05-20T11:42:41Z</time>
      </trkpt>
      <trkpt lat="42.2254160" lon="-8.7167990">
        <ele>82.1</ele>
        <time>2021-05-20T11:42:42Z</time>
      </trkpt>
      <trkpt lat="42.2254160" lon="-8.7167990">
        <ele>82.1</ele>
        <time>2021-05-20T11:42:43Z</time>
      </trkpt>
      <trkpt lat="42.2254140" lon="-8.7167980">
        <ele>82.1</ele>
        <time>2021-05-20T11:42:44Z</time>
      </trkpt>
      <trkpt lat="42.2254050" lon="-8.7168000">
        <ele>82.1</ele>
        <time>2021-05-20T11:42:45Z</time>
      </trkpt>
      <trkpt lat="42.2253950" lon="-8.7168030">
        <ele>82.1</ele>
        <time>2021-05-20T11:42:46Z</time>
      </trkpt>
      <trkpt lat="42.2253880" lon="-8.7168040">
        <ele>82.1</ele>
        <time>2021-05-20T11:42:47Z</time>
      </trkpt>
      <trkpt lat="42.2253780" lon="-8.7168090">
        <ele>82.1</ele>
        <time>2021-05-20T11:42:48Z</time>
      </trkpt>
      <trkpt lat="42.2253690" lon="-8.7168100">
        <ele>82.1</ele>
        <time>2021-05-20T11:42:49Z</time>
      </trkpt>
      <trkpt lat="42.2253630" lon="-8.7168080">
        <ele>82.1</ele>
        <time>2021-05-20T11:42:50Z</time>
      </trkpt>
      <trkpt lat="42.2253580" lon="-8.7168050">
        <ele>82.1</ele>
        <time>2021-05-20T11:42:51Z</time>
      </trkpt>
      <trkpt lat="42.2253510" lon="-8.7167980">
        <ele>82.1</ele>
        <time>2021-05-20T11:42:52Z</time>
      </trkpt>
      <trkpt lat="42.2253460" lon="-8.7167940">
        <ele>82.1</ele>
        <time>2021-05-20T11:42:53Z</time>
      </trkpt>
      <trkpt lat="42.2253440" lon="-8.7167930">
        <ele>82.1</ele>
        <time>2021-05-20T11:42:54Z</time>
      </trkpt>
      <trkpt lat="42.2253430" lon="-8.7167840">
        <ele>82.1</ele>
        <time>2021-05-20T11:42:55Z</time>
      </trkpt>
      <trkpt lat="42.2253440" lon="-8.7167850">
        <ele>82.1</ele>
        <time>2021-05-20T11:42:56Z</time>
      </trkpt>
      <trkpt lat="42.2253440" lon="-8.7167870">
        <ele>82.1</ele>
        <time>2021-05-20T11:42:57Z</time>
      </trkpt>
      <trkpt lat="42.2253450" lon="-8.7167880">
        <ele>82.1</ele>
        <time>2021-05-20T11:42:58Z</time>
      </trkpt>
      <trkpt lat="42.2253450" lon="-8.7167900">
        <ele>82.1</ele>
        <time>2021-05-20T11:42:59Z</time>
      </trkpt>
      <trkpt lat="42.2253460" lon="-8.7167910">
        <ele>82.1</ele>
        <time>2021-05-20T11:43:00Z</time>
      </trkpt>
      <trkpt lat="42.2253460" lon="-8.7167930">
        <ele>82.1</ele>
        <time>2021-05-20T11:43:01Z</time>
      </trkpt>
      <trkpt lat="42.2253470" lon="-8.7167950">
        <ele>82.1</ele>
        <time>2021-05-20T11:43:02Z</time>
      </trkpt>
      <trkpt lat="42.2253470" lon="-8.7167960">
        <ele>82.1</ele>
        <time>2021-05-20T11:43:03Z</time>
      </trkpt>
      <trkpt lat="42.2253480" lon="-8.7167980">
        <ele>82.1</ele>
        <time>2021-05-20T11:43:04Z</time>
      </trkpt>
      <trkpt lat="42.2253480" lon="-8.7167990">
        <ele>82.1</ele>
        <time>2021-05-20T11:43:05Z</time>
      </trkpt>
      <trkpt lat="42.2253490" lon="-8.7168010">
        <ele>82.1</ele>
        <time>2021-05-20T11:43:06Z</time>
      </trkpt>
      <trkpt lat="42.2253490" lon="-8.7168020">
        <ele>82.1</ele>
        <time>2021-05-20T11:43:07Z</time>
      </trkpt>
      <trkpt lat="42.2253500" lon="-8.7168040">
        <ele>82.1</ele>
        <time>2021-05-20T11:43:08Z</time>
      </trkpt>
      <trkpt lat="42.2253500" lon="-8.7168060">
        <ele>82.1</ele>
        <time>2021-05-20T11:43:09Z</time>
      </trkpt>
      <trkpt lat="42.2253510" lon="-8.7168070">
        <ele>82.1</ele>
        <time>2021-05-20T11:43:10Z</time>
      </trkpt>
      <trkpt lat="42.2253510" lon="-8.7168090">
        <ele>82.1</ele>
        <time>2021-05-20T11:43:11Z</time>
      </trkpt>
      <trkpt lat="42.2253520" lon="-8.7168100">
        <ele>82.1</ele>
        <time>2021-05-20T11:43:12Z</time>
      </trkpt>
      <trkpt lat="42.2253520" lon="-8.7168120">
        <ele>82.1</ele>
        <time>2021-05-20T11:43:13Z</time>
      </trkpt>
      <trkpt lat="42.2253530" lon="-8.7168130">
        <ele>82.1</ele>
        <time>2021-05-20T11:43:14Z</time>
      </trkpt>
      <trkpt lat="42.2253530" lon="-8.7168150">
        <ele>82.1</ele>
        <time>2021-05-20T11:43:15Z</time>
      </trkpt>
      <trkpt lat="42.2253540" lon="-8.7168160">
        <ele>82.1</ele>
        <time>2021-05-20T11:43:16Z</time>
      </trkpt>
      <trkpt lat="42.2253540" lon="-8.7168180">
        <ele>82.1</ele>
        <time>2021-05-20T11:43:17Z</time>
      </trkpt>
      <trkpt lat="42.2253550" lon="-8.7168200">
        <ele>82.1</ele>
        <time>2021-05-20T11:43:18Z</time>
      </trkpt>
      <trkpt lat="42.2253550" lon="-8.7168210">
        <ele>82.1</ele>
        <time>2021-05-20T11:43:19Z</time>
      </trkpt>
      <trkpt lat="42.2253560" lon="-8.7168230">
        <ele>82.1</ele>
        <time>2021-05-20T11:43:20Z</time>
      </trkpt>
      <trkpt lat="42.2253560" lon="-8.7168240">
        <ele>82.1</ele>
        <time>2021-05-20T11:43:21Z</time>
      </trkpt>
      <trkpt lat="42.2253570" lon="-8.7168260">
        <ele>82.1</ele>
        <time>2021-05-20T11:43:22Z</time>
      </trkpt>
      <trkpt lat="42.2253570" lon="-8.7168270">
        <ele>82.1</ele>
        <time>2021-05-20T11:43:23Z</time>
      </trkpt>
      <trkpt lat="42.2253580" lon="-8.7168290">
        <ele>82.1</ele>
        <time>2021-05-20T11:43:24Z</time>
      </trkpt>
      <trkpt lat="42.2253580" lon="-8.7168310">
        <ele>82.1</ele>
        <time>2021-05-20T11:43:25Z</time>
      </trkpt>
      <trkpt lat="42.2253590" lon="-8.7168320">
        <ele>82.1</ele>
        <time>2021-05-20T11:43:26Z</time>
      </trkpt>
      <trkpt lat="42.2253590" lon="-8.7168340">
        <ele>82.1</ele>
        <time>2021-05-20T11:43:27Z</time>
      </trkpt>
      <trkpt lat="42.2253600" lon="-8.7168350">
        <ele>82.1</ele>
        <time>2021-05-20T11:43:28Z</time>
      </trkpt>
      <trkpt lat="42.2253600" lon="-8.7168370">
        <ele>82.1</ele>
        <time>2021-05-20T11:43:29Z</time>
      </trkpt>
      <trkpt lat="42.2253610" lon="-8.7168380">
        <ele>82.1</ele>
        <time>2021-05-20T11:43:30Z</time>
      </trkpt>
      <trkpt lat="42.2253610" lon="-8.7168400">
        <ele>82.1</ele>
        <time>2021-05-20T11:43:31Z</time>
      </trkpt>
      <trkpt lat="42.2253610" lon="-8.7168360">
        <ele>82.1</ele>
        <time>2021-05-20T11:43:32Z</time>
      </trkpt>
      <trkpt lat="42.2253590" lon="-8.7168350">
        <ele>82.1</ele>
        <time>2021-05-20T11:43:33Z</time>
      </trkpt>
      <trkpt lat="42.2253600" lon="-8.7168360">
        <ele>82.1</ele>
        <time>2021-05-20T11:43:34Z</time>
      </trkpt>
      <trkpt lat="42.2253610" lon="-8.7168340">
        <ele>82.1</ele>
        <time>2021-05-20T11:43:35Z</time>
      </trkpt>
      <trkpt lat="42.2253660" lon="-8.7168300">
        <ele>82.1</ele>
        <time>2021-05-20T11:43:36Z</time>
      </trkpt>
      <trkpt lat="42.2253690" lon="-8.7168280">
        <ele>82.2</ele>
        <time>2021-05-20T11:43:37Z</time>
      </trkpt>
      <trkpt lat="42.2253700" lon="-8.7168310">
        <ele>82.2</ele>
        <time>2021-05-20T11:43:38Z</time>
      </trkpt>
      <trkpt lat="42.2253710" lon="-8.7168310">
        <ele>82.2</ele>
        <time>2021-05-20T11:43:39Z</time>
      </trkpt>
      <trkpt lat="42.2253750" lon="-8.7168350">
        <ele>82.2</ele>
        <time>2021-05-20T11:43:40Z</time>
      </trkpt>
      <trkpt lat="42.2253750" lon="-8.7168370">
        <ele>82.2</ele>
        <time>2021-05-20T11:43:41Z</time>
      </trkpt>
      <trkpt lat="42.2253790" lon="-8.7168370">
        <ele>82.2</ele>
        <time>2021-05-20T11:43:42Z</time>
      </trkpt>
      <trkpt lat="42.2253840" lon="-8.7168360">
        <ele>82.2</ele>
        <time>2021-05-20T11:43:43Z</time>
      </trkpt>
      <trkpt lat="42.2253860" lon="-8.7168420">
        <ele>82.2</ele>
        <time>2021-05-20T11:43:44Z</time>
      </trkpt>
      <trkpt lat="42.2253860" lon="-8.7168450">
        <ele>82.2</ele>
        <time>2021-05-20T11:43:45Z</time>
      </trkpt>
      <trkpt lat="42.2253900" lon="-8.7168440">
        <ele>82.2</ele>
        <time>2021-05-20T11:43:46Z</time>
      </trkpt>
      <trkpt lat="42.2253920" lon="-8.7168400">
        <ele>82.2</ele>
        <time>2021-05-20T11:43:47Z</time>
      </trkpt>
      <trkpt lat="42.2254010" lon="-8.7168420">
        <ele>82.2</ele>
        <time>2021-05-20T11:43:48Z</time>
      </trkpt>
      <trkpt lat="42.2254070" lon="-8.7168430">
        <ele>82.2</ele>
        <time>2021-05-20T11:43:49Z</time>
      </trkpt>
      <trkpt lat="42.2254010" lon="-8.7168400">
        <ele>82.2</ele>
        <time>2021-05-20T11:43:50Z</time>
      </trkpt>
      <trkpt lat="42.2254030" lon="-8.7168380">
        <ele>82.2</ele>
        <time>2021-05-20T11:43:51Z</time>
      </trkpt>
      <trkpt lat="42.2254030" lon="-8.7168380">
        <ele>82.2</ele>
        <time>2021-05-20T11:43:52Z</time>
      </trkpt>
      <trkpt lat="42.2254030" lon="-8.7168380">
        <ele>82.2</ele>
        <time>2021-05-20T11:43:53Z</time>
      </trkpt>
      <trkpt lat="42.2254060" lon="-8.7168370">
        <ele>82.2</ele>
        <time>2021-05-20T11:43:54Z</time>
      </trkpt>
      <trkpt lat="42.2254070" lon="-8.7168320">
        <ele>82.2</ele>
        <time>2021-05-20T11:43:55Z</time>
      </trkpt>
      <trkpt lat="42.2254050" lon="-8.7168320">
        <ele>82.2</ele>
        <time>2021-05-20T11:43:56Z</time>
      </trkpt>
      <trkpt lat="42.2254080" lon="-8.7168260">
        <ele>82.2</ele>
        <time>2021-05-20T11:43:57Z</time>
      </trkpt>
      <trkpt lat="42.2254080" lon="-8.7168240">
        <ele>82.2</ele>
        <time>2021-05-20T11:43:58Z</time>
      </trkpt>
      <trkpt lat="42.2254110" lon="-8.7168290">
        <ele>82.2</ele>
        <time>2021-05-20T11:43:59Z</time>
      </trkpt>
      <trkpt lat="42.2254180" lon="-8.7168280">
        <ele>82.2</ele>
        <time>2021-05-20T11:44:00Z</time>
      </trkpt>
      <trkpt lat="42.2254270" lon="-8.7168210">
        <ele>82.2</ele>
        <time>2021-05-20T11:44:01Z</time>
      </trkpt>
      <trkpt lat="42.2254290" lon="-8.7168190">
        <ele>82.2</ele>
        <time>2021-05-20T11:44:02Z</time>
      </trkpt>
      <trkpt lat="42.2254290" lon="-8.7168190">
        <ele>82.2</ele>
        <time>2021-05-20T11:44:03Z</time>
      </trkpt>
      <trkpt lat="42.2254180" lon="-8.7168070">
        <ele>82.2</ele>
        <time>2021-05-20T11:44:04Z</time>
      </trkpt>
      <trkpt lat="42.2254230" lon="-8.7168030">
        <ele>82.2</ele>
        <time>2021-05-20T11:44:05Z</time>
      </trkpt>
      <trkpt lat="42.2254230" lon="-8.7168030">
        <ele>82.2</ele>
        <time>2021-05-20T11:44:06Z</time>
      </trkpt>
      <trkpt lat="42.2254230" lon="-8.7168030">
        <ele>82.2</ele>
        <time>2021-05-20T11:44:07Z</time>
      </trkpt>
      <trkpt lat="42.2254290" lon="-8.7167870">
        <ele>82.2</ele>
        <time>2021-05-20T11:44:08Z</time>
      </trkpt>
      <trkpt lat="42.2254320" lon="-8.7167810">
        <ele>82.2</ele>
        <time>2021-05-20T11:44:09Z</time>
      </trkpt>
      <trkpt lat="42.2254290" lon="-8.7167820">
        <ele>82.2</ele>
        <time>2021-05-20T11:44:10Z</time>
      </trkpt>
      <trkpt lat="42.2254260" lon="-8.7167840">
        <ele>82.2</ele>
        <time>2021-05-20T11:44:11Z</time>
      </trkpt>
      <trkpt lat="42.2254230" lon="-8.7167850">
        <ele>82.2</ele>
        <time>2021-05-20T11:44:12Z</time>
      </trkpt>
      <trkpt lat="42.2254200" lon="-8.7167860">
        <ele>82.2</ele>
        <time>2021-05-20T11:44:13Z</time>
      </trkpt>
      <trkpt lat="42.2254170" lon="-8.7167870">
        <ele>82.2</ele>
        <time>2021-05-20T11:44:14Z</time>
      </trkpt>
      <trkpt lat="42.2254140" lon="-8.7167890">
        <ele>82.2</ele>
        <time>2021-05-20T11:44:15Z</time>
      </trkpt>
      <trkpt lat="42.2254110" lon="-8.7167900">
        <ele>82.2</ele>
        <time>2021-05-20T11:44:16Z</time>
      </trkpt>
      <trkpt lat="42.2254080" lon="-8.7167910">
        <ele>82.2</ele>
        <time>2021-05-20T11:44:17Z</time>
      </trkpt>
      <trkpt lat="42.2254050" lon="-8.7167920">
        <ele>82.2</ele>
        <time>2021-05-20T11:44:18Z</time>
      </trkpt>
      <trkpt lat="42.2254020" lon="-8.7167940">
        <ele>82.2</ele>
        <time>2021-05-20T11:44:19Z</time>
      </trkpt>
      <trkpt lat="42.2253990" lon="-8.7167950">
        <ele>82.2</ele>
        <time>2021-05-20T11:44:20Z</time>
      </trkpt>
      <trkpt lat="42.2253960" lon="-8.7167960">
        <ele>82.2</ele>
        <time>2021-05-20T11:44:21Z</time>
      </trkpt>
      <trkpt lat="42.2253930" lon="-8.7167970">
        <ele>82.2</ele>
        <time>2021-05-20T11:44:22Z</time>
      </trkpt>
      <trkpt lat="42.2253900" lon="-8.7167990">
        <ele>82.2</ele>
        <time>2021-05-20T11:44:23Z</time>
      </trkpt>
      <trkpt lat="42.2253870" lon="-8.7168000">
        <ele>82.2</ele>
        <time>2021-05-20T11:44:24Z</time>
      </trkpt>
      <trkpt lat="42.2253840" lon="-8.7168010">
        <ele>82.2</ele>
        <time>2021-05-20T11:44:25Z</time>
      </trkpt>
      <trkpt lat="42.2253810" lon="-8.7168020">
        <ele>82.2</ele>
        <time>2021-05-20T11:44:26Z</time>
      </trkpt>
      <trkpt lat="42.2253780" lon="-8.7168040">
        <ele>82.2</ele>
        <time>2021-05-20T11:44:27Z</time>
      </trkpt>
      <trkpt lat="42.2253750" lon="-8.7168050">
        <ele>82.2</ele>
        <time>2021-05-20T11:44:28Z</time>
      </trkpt>
      <trkpt lat="42.2253720" lon="-8.7168060">
        <ele>82.1</ele>
        <time>2021-05-20T11:44:29Z</time>
      </trkpt>
      <trkpt lat="42.2253690" lon="-8.7168070">
        <ele>82.1</ele>
        <time>2021-05-20T11:44:30Z</time>
      </trkpt>
      <trkpt lat="42.2253660" lon="-8.7168090">
        <ele>82.1</ele>
        <time>2021-05-20T11:44:31Z</time>
      </trkpt>
      <trkpt lat="42.2253630" lon="-8.7168100">
        <ele>82.1</ele>
        <time>2021-05-20T11:44:32Z</time>
      </trkpt>
      <trkpt lat="42.2253600" lon="-8.7168110">
        <ele>82.1</ele>
        <time>2021-05-20T11:44:33Z</time>
      </trkpt>
      <trkpt lat="42.2253570" lon="-8.7168120">
        <ele>82.1</ele>
        <time>2021-05-20T11:44:35Z</time>
      </trkpt>
      <trkpt lat="42.2253540" lon="-8.7168140">
        <ele>82.1</ele>
        <time>2021-05-20T11:44:36Z</time>
      </trkpt>
      <trkpt lat="42.2253510" lon="-8.7168150">
        <ele>82.1</ele>
        <time>2021-05-20T11:44:37Z</time>
      </trkpt>
      <trkpt lat="42.2253480" lon="-8.7168160">
        <ele>82.1</ele>
        <time>2021-05-20T11:44:38Z</time>
      </trkpt>
      <trkpt lat="42.2253470" lon="-8.7168170">
        <ele>82.1</ele>
        <time>2021-05-20T11:44:39Z</time>
      </trkpt>
      <trkpt lat="42.2253470" lon="-8.7168170">
        <ele>82.1</ele>
        <time>2021-05-20T11:44:40Z</time>
      </trkpt>
      <trkpt lat="42.2253470" lon="-8.7168170">
        <ele>82.1</ele>
        <time>2021-05-20T11:44:41Z</time>
      </trkpt>
      <trkpt lat="42.2253470" lon="-8.7168170">
        <ele>82.1</ele>
        <time>2021-05-20T11:44:42Z</time>
      </trkpt>
      <trkpt lat="42.2253470" lon="-8.7168170">
        <ele>82.1</ele>
        <time>2021-05-20T11:44:43Z</time>
      </trkpt>
      <trkpt lat="42.2253470" lon="-8.7168170">
        <ele>82.1</ele>
        <time>2021-05-20T11:44:44Z</time>
      </trkpt>
      <trkpt lat="42.2253470" lon="-8.7168170">
        <ele>82.1</ele>
        <time>2021-05-20T11:44:45Z</time>
      </trkpt>
      <trkpt lat="42.2253470" lon="-8.7168170">
        <ele>82.1</ele>
        <time>2021-05-20T11:44:46Z</time>
      </trkpt>
      <trkpt lat="42.2253470" lon="-8.7168170">
        <ele>82.1</ele>
        <time>2021-05-20T11:44:47Z</time>
      </trkpt>
      <trkpt lat="42.2253470" lon="-8.7168170">
        <ele>82.1</ele>
        <time>2021-05-20T11:44:48Z</time>
      </trkpt>
      <trkpt lat="42.2253470" lon="-8.7168170">
        <ele>82.1</ele>
        <time>2021-05-20T11:44:49Z</time>
      </trkpt>
      <trkpt lat="42.2253470" lon="-8.7168170">
        <ele>82.1</ele>
        <time>2021-05-20T11:44:50Z</time>
      </trkpt>
      <trkpt lat="42.2253470" lon="-8.7168170">
        <ele>82.1</ele>
        <time>2021-05-20T11:44:51Z</time>
      </trkpt>
      <trkpt lat="42.2253470" lon="-8.7168170">
        <ele>82.1</ele>
        <time>2021-05-20T11:44:52Z</time>
      </trkpt>
      <trkpt lat="42.2253470" lon="-8.7168170">
        <ele>82.1</ele>
        <time>2021-05-20T11:44:53Z</time>
      </trkpt>
      <trkpt lat="42.2253470" lon="-8.7168170">
        <ele>82.1</ele>
        <time>2021-05-20T11:44:54Z</time>
      </trkpt>
      <trkpt lat="42.2253470" lon="-8.7168170">
        <ele>82.1</ele>
        <time>2021-05-20T11:44:55Z</time>
      </trkpt>
      <trkpt lat="42.2253470" lon="-8.7168170">
        <ele>82.1</ele>
        <time>2021-05-20T11:44:56Z</time>
      </trkpt>
      <trkpt lat="42.2253470" lon="-8.7168170">
        <ele>82.1</ele>
        <time>2021-05-20T11:44:57Z</time>
      </trkpt>
      <trkpt lat="42.2253470" lon="-8.7168170">
        <ele>82.1</ele>
        <time>2021-05-20T11:44:58Z</time>
      </trkpt>
      <trkpt lat="42.2253470" lon="-8.7168170">
        <ele>82.1</ele>
        <time>2021-05-20T11:44:59Z</time>
      </trkpt>
      <trkpt lat="42.2253470" lon="-8.7168170">
        <ele>82.1</ele>
        <time>2021-05-20T11:45:00Z</time>
      </trkpt>
      <trkpt lat="42.2253470" lon="-8.7168170">
        <ele>82.1</ele>
        <time>2021-05-20T11:45:01Z</time>
      </trkpt>
      <trkpt lat="42.2253470" lon="-8.7168170">
        <ele>82.1</ele>
        <time>2021-05-20T11:45:02Z</time>
      </trkpt>
      <trkpt lat="42.2253470" lon="-8.7168170">
        <ele>82.1</ele>
        <time>2021-05-20T11:45:03Z</time>
      </trkpt>
      <trkpt lat="42.2253470" lon="-8.7168170">
        <ele>82.0</ele>
        <time>2021-05-20T11:45:04Z</time>
      </trkpt>
      <trkpt lat="42.2253470" lon="-8.7168170">
        <ele>82.0</ele>
        <time>2021-05-20T11:45:05Z</time>
      </trkpt>
      <trkpt lat="42.2253470" lon="-8.7168170">
        <ele>82.0</ele>
        <time>2021-05-20T11:45:06Z</time>
      </trkpt>
      <trkpt lat="42.2253470" lon="-8.7168170">
        <ele>82.0</ele>
        <time>2021-05-20T11:45:07Z</time>
      </trkpt>
      <trkpt lat="42.2253470" lon="-8.7168170">
        <ele>82.0</ele>
        <time>2021-05-20T11:45:08Z</time>
      </trkpt>
      <trkpt lat="42.2253470" lon="-8.7168170">
        <ele>82.0</ele>
        <time>2021-05-20T11:45:09Z</time>
      </trkpt>
      <trkpt lat="42.2253470" lon="-8.7168170">
        <ele>82.0</ele>
        <time>2021-05-20T11:45:10Z</time>
      </trkpt>
      <trkpt lat="42.2253470" lon="-8.7168170">
        <ele>82.0</ele>
        <time>2021-05-20T11:45:11Z</time>
      </trkpt>
      <trkpt lat="42.2253470" lon="-8.7168170">
        <ele>82.0</ele>
        <time>2021-05-20T11:45:12Z</time>
      </trkpt>
      <trkpt lat="42.2253340" lon="-8.7168280">
        <ele>82.0</ele>
        <time>2021-05-20T11:45:13Z</time>
      </trkpt>
      <trkpt lat="42.2253380" lon="-8.7168220">
        <ele>82.0</ele>
        <time>2021-05-20T11:45:14Z</time>
      </trkpt>
      <trkpt lat="42.2253410" lon="-8.7168270">
        <ele>82.0</ele>
        <time>2021-05-20T11:45:15Z</time>
      </trkpt>
      <trkpt lat="42.2253380" lon="-8.7168290">
        <ele>82.0</ele>
        <time>2021-05-20T11:45:16Z</time>
      </trkpt>
      <trkpt lat="42.2253320" lon="-8.7168310">
        <ele>82.0</ele>
        <time>2021-05-20T11:45:17Z</time>
      </trkpt>
      <trkpt lat="42.2253340" lon="-8.7168340">
        <ele>82.0</ele>
        <time>2021-05-20T11:45:18Z</time>
      </trkpt>
      <trkpt lat="42.2253410" lon="-8.7168260">
        <ele>82.0</ele>
        <time>2021-05-20T11:45:19Z</time>
      </trkpt>
      <trkpt lat="42.2253430" lon="-8.7168230">
        <ele>82.1</ele>
        <time>2021-05-20T11:45:20Z</time>
      </trkpt>
      <trkpt lat="42.2253590" lon="-8.7168160">
        <ele>82.1</ele>
        <time>2021-05-20T11:45:21Z</time>
      </trkpt>
      <trkpt lat="42.2253710" lon="-8.7168160">
        <ele>82.1</ele>
        <time>2021-05-20T11:45:22Z</time>
      </trkpt>
      <trkpt lat="42.2253790" lon="-8.7168090">
        <ele>82.1</ele>
        <time>2021-05-20T11:45:23Z</time>
      </trkpt>
      <trkpt lat="42.2253800" lon="-8.7168000">
        <ele>82.1</ele>
        <time>2021-05-20T11:45:24Z</time>
      </trkpt>
      <trkpt lat="42.2253980" lon="-8.7168050">
        <ele>82.1</ele>
        <time>2021-05-20T11:45:25Z</time>
      </trkpt>
      <trkpt lat="42.2254050" lon="-8.7168040">
        <ele>82.1</ele>
        <time>2021-05-20T11:45:26Z</time>
      </trkpt>
      <trkpt lat="42.2254130" lon="-8.7168090">
        <ele>82.1</ele>
        <time>2021-05-20T11:45:27Z</time>
      </trkpt>
      <trkpt lat="42.2254200" lon="-8.7168100">
        <ele>82.1</ele>
        <time>2021-05-20T11:45:28Z</time>
      </trkpt>
      <trkpt lat="42.2254230" lon="-8.7168110">
        <ele>82.0</ele>
        <time>2021-05-20T11:45:29Z</time>
      </trkpt>
      <trkpt lat="42.2254200" lon="-8.7168150">
        <ele>82.0</ele>
        <time>2021-05-20T11:45:30Z</time>
      </trkpt>
      <trkpt lat="42.2254290" lon="-8.7168090">
        <ele>82.0</ele>
        <time>2021-05-20T11:45:31Z</time>
      </trkpt>
      <trkpt lat="42.2254340" lon="-8.7168090">
        <ele>82.0</ele>
        <time>2021-05-20T11:45:32Z</time>
      </trkpt>
      <trkpt lat="42.2254400" lon="-8.7168070">
        <ele>82.0</ele>
        <time>2021-05-20T11:45:33Z</time>
      </trkpt>
      <trkpt lat="42.2254410" lon="-8.7168050">
        <ele>82.0</ele>
        <time>2021-05-20T11:45:34Z</time>
      </trkpt>
      <trkpt lat="42.2254420" lon="-8.7168020">
        <ele>82.0</ele>
        <time>2021-05-20T11:45:35Z</time>
      </trkpt>
      <trkpt lat="42.2254440" lon="-8.7167990">
        <ele>82.0</ele>
        <time>2021-05-20T11:45:36Z</time>
      </trkpt>
      <trkpt lat="42.2254450" lon="-8.7167970">
        <ele>82.0</ele>
        <time>2021-05-20T11:45:37Z</time>
      </trkpt>
      <trkpt lat="42.2254460" lon="-8.7167940">
        <ele>82.0</ele>
        <time>2021-05-20T11:45:38Z</time>
      </trkpt>
      <trkpt lat="42.2254470" lon="-8.7167910">
        <ele>82.0</ele>
        <time>2021-05-20T11:45:39Z</time>
      </trkpt>
      <trkpt lat="42.2254480" lon="-8.7167890">
        <ele>82.0</ele>
        <time>2021-05-20T11:45:40Z</time>
      </trkpt>
      <trkpt lat="42.2254490" lon="-8.7167860">
        <ele>82.0</ele>
        <time>2021-05-20T11:45:41Z</time>
      </trkpt>
      <trkpt lat="42.2254510" lon="-8.7167840">
        <ele>82.0</ele>
        <time>2021-05-20T11:45:42Z</time>
      </trkpt>
      <trkpt lat="42.2254520" lon="-8.7167810">
        <ele>82.0</ele>
        <time>2021-05-20T11:45:43Z</time>
      </trkpt>
      <trkpt lat="42.2254530" lon="-8.7167780">
        <ele>82.0</ele>
        <time>2021-05-20T11:45:44Z</time>
      </trkpt>
      <trkpt lat="42.2254540" lon="-8.7167760">
        <ele>82.0</ele>
        <time>2021-05-20T11:45:45Z</time>
      </trkpt>
      <trkpt lat="42.2254550" lon="-8.7167730">
        <ele>82.0</ele>
        <time>2021-05-20T11:45:46Z</time>
      </trkpt>
      <trkpt lat="42.2254560" lon="-8.7167700">
        <ele>82.0</ele>
        <time>2021-05-20T11:45:47Z</time>
      </trkpt>
      <trkpt lat="42.2254570" lon="-8.7167680">
        <ele>82.0</ele>
        <time>2021-05-20T11:45:48Z</time>
      </trkpt>
      <trkpt lat="42.2254590" lon="-8.7167650">
        <ele>82.0</ele>
        <time>2021-05-20T11:45:49Z</time>
      </trkpt>
      <trkpt lat="42.2254600" lon="-8.7167620">
        <ele>82.0</ele>
        <time>2021-05-20T11:45:50Z</time>
      </trkpt>
      <trkpt lat="42.2254610" lon="-8.7167600">
        <ele>82.0</ele>
        <time>2021-05-20T11:45:51Z</time>
      </trkpt>
      <trkpt lat="42.2254620" lon="-8.7167570">
        <ele>82.0</ele>
        <time>2021-05-20T11:45:52Z</time>
      </trkpt>
      <trkpt lat="42.2254400" lon="-8.7167890">
        <ele>82.0</ele>
        <time>2021-05-20T11:45:53Z</time>
      </trkpt>
      <trkpt lat="42.2254320" lon="-8.7168070">
        <ele>82.0</ele>
        <time>2021-05-20T11:45:54Z</time>
      </trkpt>
      <trkpt lat="42.2254330" lon="-8.7168150">
        <ele>82.0</ele>
        <time>2021-05-20T11:45:55Z</time>
      </trkpt>
      <trkpt lat="42.2254450" lon="-8.7168260">
        <ele>82.0</ele>
        <time>2021-05-20T11:45:56Z</time>
      </trkpt>
      <trkpt lat="42.2254620" lon="-8.7168160">
        <ele>82.0</ele>
        <time>2021-05-20T11:45:57Z</time>
      </trkpt>
      <trkpt lat="42.2254740" lon="-8.7168050">
        <ele>82.0</ele>
        <time>2021-05-20T11:45:58Z</time>
      </trkpt>
      <trkpt lat="42.2254850" lon="-8.7167950">
        <ele>82.0</ele>
        <time>2021-05-20T11:45:59Z</time>
      </trkpt>
      <trkpt lat="42.2254970" lon="-8.7167840">
        <ele>82.0</ele>
        <time>2021-05-20T11:46:00Z</time>
      </trkpt>
      <trkpt lat="42.2255080" lon="-8.7167740">
        <ele>82.0</ele>
        <time>2021-05-20T11:46:01Z</time>
      </trkpt>
      <trkpt lat="42.2255190" lon="-8.7167260">
        <ele>82.0</ele>
        <time>2021-05-20T11:46:02Z</time>
      </trkpt>
      <trkpt lat="42.2255290" lon="-8.7166770">
        <ele>82.0</ele>
        <time>2021-05-20T11:46:03Z</time>
      </trkpt>
      <trkpt lat="42.2255200" lon="-8.7166610">
        <ele>82.0</ele>
        <time>2021-05-20T11:46:04Z</time>
      </trkpt>
      <trkpt lat="42.2255100" lon="-8.7166590">
        <ele>82.0</ele>
        <time>2021-05-20T11:46:05Z</time>
      </trkpt>
      <trkpt lat="42.2255010" lon="-8.7166560">
        <ele>82.0</ele>
        <time>2021-05-20T11:46:06Z</time>
      </trkpt>
      <trkpt lat="42.2254910" lon="-8.7166540">
        <ele>82.0</ele>
        <time>2021-05-20T11:46:07Z</time>
      </trkpt>
      <trkpt lat="42.2254820" lon="-8.7166520">
        <ele>82.0</ele>
        <time>2021-05-20T11:46:08Z</time>
      </trkpt>
      <trkpt lat="42.2254720" lon="-8.7166500">
        <ele>82.0</ele>
        <time>2021-05-20T11:46:09Z</time>
      </trkpt>
      <trkpt lat="42.2254630" lon="-8.7166470">
        <ele>82.0</ele>
        <time>2021-05-20T11:46:10Z</time>
      </trkpt>
      <trkpt lat="42.2254530" lon="-8.7166450">
        <ele>82.0</ele>
        <time>2021-05-20T11:46:11Z</time>
      </trkpt>
      <trkpt lat="42.2254440" lon="-8.7166430">
        <ele>82.0</ele>
        <time>2021-05-20T11:46:12Z</time>
      </trkpt>
      <trkpt lat="42.2254340" lon="-8.7166410">
        <ele>82.0</ele>
        <time>2021-05-20T11:46:13Z</time>
      </trkpt>
      <trkpt lat="42.2254250" lon="-8.7166380">
        <ele>82.0</ele>
        <time>2021-05-20T11:46:14Z</time>
      </trkpt>
      <trkpt lat="42.2254150" lon="-8.7166360">
        <ele>82.0</ele>
        <time>2021-05-20T11:46:15Z</time>
      </trkpt>
      <trkpt lat="42.2254060" lon="-8.7166340">
        <ele>82.0</ele>
        <time>2021-05-20T11:46:16Z</time>
      </trkpt>
      <trkpt lat="42.2254060" lon="-8.7166310">
        <ele>82.0</ele>
        <time>2021-05-20T11:46:17Z</time>
      </trkpt>
      <trkpt lat="42.2254060" lon="-8.7166310">
        <ele>82.0</ele>
        <time>2021-05-20T11:46:18Z</time>
      </trkpt>
      <trkpt lat="42.2254060" lon="-8.7166310">
        <ele>82.0</ele>
        <time>2021-05-20T11:46:19Z</time>
      </trkpt>
      <trkpt lat="42.2254060" lon="-8.7166310">
        <ele>82.0</ele>
        <time>2021-05-20T11:46:20Z</time>
      </trkpt>
      <trkpt lat="42.2254060" lon="-8.7166310">
        <ele>82.0</ele>
        <time>2021-05-20T11:46:21Z</time>
      </trkpt>
      <trkpt lat="42.2254060" lon="-8.7166310">
        <ele>82.0</ele>
        <time>2021-05-20T11:46:22Z</time>
      </trkpt>
      <trkpt lat="42.2254060" lon="-8.7166310">
        <ele>82.0</ele>
        <time>2021-05-20T11:46:23Z</time>
      </trkpt>
      <trkpt lat="42.2253870" lon="-8.7166530">
        <ele>82.0</ele>
        <time>2021-05-20T11:46:24Z</time>
      </trkpt>
      <trkpt lat="42.2253890" lon="-8.7166530">
        <ele>82.0</ele>
        <time>2021-05-20T11:46:25Z</time>
      </trkpt>
      <trkpt lat="42.2253940" lon="-8.7166530">
        <ele>82.0</ele>
        <time>2021-05-20T11:46:26Z</time>
      </trkpt>
      <trkpt lat="42.2254020" lon="-8.7166540">
        <ele>82.0</ele>
        <time>2021-05-20T11:46:27Z</time>
      </trkpt>
      <trkpt lat="42.2254080" lon="-8.7166560">
        <ele>82.0</ele>
        <time>2021-05-20T11:46:28Z</time>
      </trkpt>
      <trkpt lat="42.2254100" lon="-8.7166600">
        <ele>82.0</ele>
        <time>2021-05-20T11:46:29Z</time>
      </trkpt>
      <trkpt lat="42.2254160" lon="-8.7166620">
        <ele>82.0</ele>
        <time>2021-05-20T11:46:30Z</time>
      </trkpt>
      <trkpt lat="42.2254210" lon="-8.7166600">
        <ele>82.0</ele>
        <time>2021-05-20T11:46:31Z</time>
      </trkpt>
      <trkpt lat="42.2254300" lon="-8.7166580">
        <ele>82.0</ele>
        <time>2021-05-20T11:46:32Z</time>
      </trkpt>
      <trkpt lat="42.2254310" lon="-8.7166620">
        <ele>82.0</ele>
        <time>2021-05-20T11:46:33Z</time>
      </trkpt>
      <trkpt lat="42.2254320" lon="-8.7166580">
        <ele>82.0</ele>
        <time>2021-05-20T11:46:34Z</time>
      </trkpt>
      <trkpt lat="42.2254310" lon="-8.7166520">
        <ele>82.0</ele>
        <time>2021-05-20T11:46:35Z</time>
      </trkpt>
      <trkpt lat="42.2254390" lon="-8.7166600">
        <ele>82.0</ele>
        <time>2021-05-20T11:46:36Z</time>
      </trkpt>
      <trkpt lat="42.2254590" lon="-8.7166760">
        <ele>82.0</ele>
        <time>2021-05-20T11:46:37Z</time>
      </trkpt>
      <trkpt lat="42.2254720" lon="-8.7166660">
        <ele>82.0</ele>
        <time>2021-05-20T11:46:38Z</time>
      </trkpt>
      <trkpt lat="42.2254840" lon="-8.7166670">
        <ele>82.0</ele>
        <time>2021-05-20T11:46:39Z</time>
      </trkpt>
      <trkpt lat="42.2254880" lon="-8.7166700">
        <ele>82.0</ele>
        <time>2021-05-20T11:46:40Z</time>
      </trkpt>
      <trkpt lat="42.2255100" lon="-8.7166610">
        <ele>82.0</ele>
        <time>2021-05-20T11:46:41Z</time>
      </trkpt>
      <trkpt lat="42.2255210" lon="-8.7166460">
        <ele>82.0</ele>
        <time>2021-05-20T11:46:42Z</time>
      </trkpt>
      <trkpt lat="42.2255330" lon="-8.7166310">
        <ele>82.0</ele>
        <time>2021-05-20T11:46:43Z</time>
      </trkpt>
      <trkpt lat="42.2255440" lon="-8.7166160">
        <ele>82.0</ele>
        <time>2021-05-20T11:46:44Z</time>
      </trkpt>
      <trkpt lat="42.2255610" lon="-8.7165710">
        <ele>82.0</ele>
        <time>2021-05-20T11:46:45Z</time>
      </trkpt>
      <trkpt lat="42.2255600" lon="-8.7165550">
        <ele>82.0</ele>
        <time>2021-05-20T11:46:46Z</time>
      </trkpt>
      <trkpt lat="42.2255530" lon="-8.7165590">
        <ele>82.0</ele>
        <time>2021-05-20T11:46:47Z</time>
      </trkpt>
      <trkpt lat="42.2255530" lon="-8.7165640">
        <ele>82.0</ele>
        <time>2021-05-20T11:46:48Z</time>
      </trkpt>
      <trkpt lat="42.2255490" lon="-8.7165650">
        <ele>82.0</ele>
        <time>2021-05-20T11:46:49Z</time>
      </trkpt>
      <trkpt lat="42.2255420" lon="-8.7165660">
        <ele>82.0</ele>
        <time>2021-05-20T11:46:50Z</time>
      </trkpt>
      <trkpt lat="42.2255390" lon="-8.7165680">
        <ele>82.0</ele>
        <time>2021-05-20T11:46:51Z</time>
      </trkpt>
      <trkpt lat="42.2255360" lon="-8.7165660">
        <ele>82.0</ele>
        <time>2021-05-20T11:46:52Z</time>
      </trkpt>
      <trkpt lat="42.2255270" lon="-8.7165970">
        <ele>82.0</ele>
        <time>2021-05-20T11:46:53Z</time>
      </trkpt>
      <trkpt lat="42.2255350" lon="-8.7165750">
        <ele>82.0</ele>
        <time>2021-05-20T11:46:54Z</time>
      </trkpt>
      <trkpt lat="42.2255410" lon="-8.7166080">
        <ele>82.0</ele>
        <time>2021-05-20T11:46:55Z</time>
      </trkpt>
      <trkpt lat="42.2255160" lon="-8.7166480">
        <ele>82.0</ele>
        <time>2021-05-20T11:46:56Z</time>
      </trkpt>
      <trkpt lat="42.2255000" lon="-8.7166330">
        <ele>82.0</ele>
        <time>2021-05-20T11:46:57Z</time>
      </trkpt>
      <trkpt lat="42.2255060" lon="-8.7166750">
        <ele>82.1</ele>
        <time>2021-05-20T11:46:58Z</time>
      </trkpt>
      <trkpt lat="42.2254960" lon="-8.7166840">
        <ele>82.1</ele>
        <time>2021-05-20T11:46:59Z</time>
      </trkpt>
      <trkpt lat="42.2252420" lon="-8.7167340">
        <ele>82.1</ele>
        <time>2021-05-20T11:47:00Z</time>
      </trkpt>
      <trkpt lat="42.2252430" lon="-8.7167250">
        <ele>82.1</ele>
        <time>2021-05-20T11:47:01Z</time>
      </trkpt>
      <trkpt lat="42.2252730" lon="-8.7167570">
        <ele>82.1</ele>
        <time>2021-05-20T11:47:02Z</time>
      </trkpt>
      <trkpt lat="42.2252890" lon="-8.7167760">
        <ele>82.1</ele>
        <time>2021-05-20T11:47:03Z</time>
      </trkpt>
      <trkpt lat="42.2252940" lon="-8.7168070">
        <ele>82.1</ele>
        <time>2021-05-20T11:47:04Z</time>
      </trkpt>
      <trkpt lat="42.2253020" lon="-8.7168180">
        <ele>82.1</ele>
        <time>2021-05-20T11:47:05Z</time>
      </trkpt>
      <trkpt lat="42.2253300" lon="-8.7168170">
        <ele>82.1</ele>
        <time>2021-05-20T11:47:06Z</time>
      </trkpt>
      <trkpt lat="42.2253470" lon="-8.7168190">
        <ele>82.1</ele>
        <time>2021-05-20T11:47:07Z</time>
      </trkpt>
      <trkpt lat="42.2253560" lon="-8.7168150">
        <ele>82.1</ele>
        <time>2021-05-20T11:47:08Z</time>
      </trkpt>
      <trkpt lat="42.2253680" lon="-8.7168060">
        <ele>82.1</ele>
        <time>2021-05-20T11:47:09Z</time>
      </trkpt>
      <trkpt lat="42.2253790" lon="-8.7167970">
        <ele>82.1</ele>
        <time>2021-05-20T11:47:10Z</time>
      </trkpt>
      <trkpt lat="42.2253900" lon="-8.7167880">
        <ele>82.1</ele>
        <time>2021-05-20T11:47:11Z</time>
      </trkpt>
      <trkpt lat="42.2253960" lon="-8.7167710">
        <ele>82.1</ele>
        <time>2021-05-20T11:47:12Z</time>
      </trkpt>
      <trkpt lat="42.2254200" lon="-8.7167650">
        <ele>82.1</ele>
        <time>2021-05-20T11:47:13Z</time>
      </trkpt>
      <trkpt lat="42.2254160" lon="-8.7167600">
        <ele>82.1</ele>
        <time>2021-05-20T11:47:14Z</time>
      </trkpt>
      <trkpt lat="42.2254050" lon="-8.7167680">
        <ele>82.1</ele>
        <time>2021-05-20T11:47:15Z</time>
      </trkpt>
      <trkpt lat="42.2253900" lon="-8.7167790">
        <ele>82.1</ele>
        <time>2021-05-20T11:47:16Z</time>
      </trkpt>
      <trkpt lat="42.2253890" lon="-8.7167870">
        <ele>82.1</ele>
        <time>2021-05-20T11:47:17Z</time>
      </trkpt>
      <trkpt lat="42.2253860" lon="-8.7167880">
        <ele>82.1</ele>
        <time>2021-05-20T11:47:18Z</time>
      </trkpt>
      <trkpt lat="42.2253800" lon="-8.7167850">
        <ele>82.1</ele>
        <time>2021-05-20T11:47:19Z</time>
      </trkpt>
      <trkpt lat="42.2253700" lon="-8.7167890">
        <ele>82.1</ele>
        <time>2021-05-20T11:47:20Z</time>
      </trkpt>
      <trkpt lat="42.2253620" lon="-8.7167980">
        <ele>82.1</ele>
        <time>2021-05-20T11:47:21Z</time>
      </trkpt>
      <trkpt lat="42.2253600" lon="-8.7168100">
        <ele>82.1</ele>
        <time>2021-05-20T11:47:22Z</time>
      </trkpt>
      <trkpt lat="42.2253580" lon="-8.7168130">
        <ele>82.1</ele>
        <time>2021-05-20T11:47:23Z</time>
      </trkpt>
      <trkpt lat="42.2253540" lon="-8.7168090">
        <ele>82.1</ele>
        <time>2021-05-20T11:47:24Z</time>
      </trkpt>
      <trkpt lat="42.2253360" lon="-8.7168120">
        <ele>82.1</ele>
        <time>2021-05-20T11:47:25Z</time>
      </trkpt>
      <trkpt lat="42.2253370" lon="-8.7168070">
        <ele>82.1</ele>
        <time>2021-05-20T11:47:26Z</time>
      </trkpt>
      <trkpt lat="42.2253410" lon="-8.7168100">
        <ele>82.1</ele>
        <time>2021-05-20T11:47:27Z</time>
      </trkpt>
      <trkpt lat="42.2253320" lon="-8.7168060">
        <ele>82.1</ele>
        <time>2021-05-20T11:47:28Z</time>
      </trkpt>
      <trkpt lat="42.2253250" lon="-8.7168100">
        <ele>82.1</ele>
        <time>2021-05-20T11:47:29Z</time>
      </trkpt>
      <trkpt lat="42.2253210" lon="-8.7168110">
        <ele>82.1</ele>
        <time>2021-05-20T11:47:30Z</time>
      </trkpt>
      <trkpt lat="42.2253110" lon="-8.7168090">
        <ele>82.1</ele>
        <time>2021-05-20T11:47:31Z</time>
      </trkpt>
      <trkpt lat="42.2253070" lon="-8.7168000">
        <ele>82.1</ele>
        <time>2021-05-20T11:47:32Z</time>
      </trkpt>
      <trkpt lat="42.2253030" lon="-8.7167970">
        <ele>82.1</ele>
        <time>2021-05-20T11:47:33Z</time>
      </trkpt>
      <trkpt lat="42.2253030" lon="-8.7167940">
        <ele>82.1</ele>
        <time>2021-05-20T11:47:34Z</time>
      </trkpt>
      <trkpt lat="42.2253040" lon="-8.7167940">
        <ele>82.1</ele>
        <time>2021-05-20T11:47:35Z</time>
      </trkpt>
      <trkpt lat="42.2253090" lon="-8.7167960">
        <ele>82.1</ele>
        <time>2021-05-20T11:47:36Z</time>
      </trkpt>
      <trkpt lat="42.2253190" lon="-8.7167920">
        <ele>82.1</ele>
        <time>2021-05-20T11:47:37Z</time>
      </trkpt>
      <trkpt lat="42.2253220" lon="-8.7167770">
        <ele>82.1</ele>
        <time>2021-05-20T11:47:38Z</time>
      </trkpt>
      <trkpt lat="42.2253240" lon="-8.7167660">
        <ele>82.1</ele>
        <time>2021-05-20T11:47:39Z</time>
      </trkpt>
      <trkpt lat="42.2253260" lon="-8.7167640">
        <ele>82.1</ele>
        <time>2021-05-20T11:47:40Z</time>
      </trkpt>
      <trkpt lat="42.2253340" lon="-8.7167570">
        <ele>82.1</ele>
        <time>2021-05-20T11:47:41Z</time>
      </trkpt>
      <trkpt lat="42.2253380" lon="-8.7167480">
        <ele>82.1</ele>
        <time>2021-05-20T11:47:42Z</time>
      </trkpt>
      <trkpt lat="42.2253380" lon="-8.7167480">
        <ele>82.1</ele>
        <time>2021-05-20T11:47:43Z</time>
      </trkpt>
      <trkpt lat="42.2253380" lon="-8.7167440">
        <ele>82.1</ele>
        <time>2021-05-20T11:47:44Z</time>
      </trkpt>
      <trkpt lat="42.2253380" lon="-8.7167360">
        <ele>82.1</ele>
        <time>2021-05-20T11:47:45Z</time>
      </trkpt>
      <trkpt lat="42.2253310" lon="-8.7167290">
        <ele>82.1</ele>
        <time>2021-05-20T11:47:46Z</time>
      </trkpt>
      <trkpt lat="42.2253350" lon="-8.7167340">
        <ele>82.1</ele>
        <time>2021-05-20T11:47:47Z</time>
      </trkpt>
      <trkpt lat="42.2253380" lon="-8.7167320">
        <ele>82.1</ele>
        <time>2021-05-20T11:47:48Z</time>
      </trkpt>
      <trkpt lat="42.2253410" lon="-8.7167350">
        <ele>82.1</ele>
        <time>2021-05-20T11:47:49Z</time>
      </trkpt>
      <trkpt lat="42.2253410" lon="-8.7167370">
        <ele>82.1</ele>
        <time>2021-05-20T11:47:50Z</time>
      </trkpt>
      <trkpt lat="42.2253530" lon="-8.7167450">
        <ele>82.1</ele>
        <time>2021-05-20T11:47:51Z</time>
      </trkpt>
      <trkpt lat="42.2253600" lon="-8.7167480">
        <ele>82.1</ele>
        <time>2021-05-20T11:47:52Z</time>
      </trkpt>
      <trkpt lat="42.2253720" lon="-8.7167500">
        <ele>82.1</ele>
        <time>2021-05-20T11:47:53Z</time>
      </trkpt>
      <trkpt lat="42.2253750" lon="-8.7167530">
        <ele>82.1</ele>
        <time>2021-05-20T11:47:54Z</time>
      </trkpt>
      <trkpt lat="42.2253830" lon="-8.7167580">
        <ele>82.1</ele>
        <time>2021-05-20T11:47:55Z</time>
      </trkpt>
      <trkpt lat="42.2253920" lon="-8.7167570">
        <ele>82.1</ele>
        <time>2021-05-20T11:47:56Z</time>
      </trkpt>
      <trkpt lat="42.2254010" lon="-8.7167630">
        <ele>82.1</ele>
        <time>2021-05-20T11:47:57Z</time>
      </trkpt>
      <trkpt lat="42.2254100" lon="-8.7167630">
        <ele>82.1</ele>
        <time>2021-05-20T11:47:58Z</time>
      </trkpt>
      <trkpt lat="42.2254000" lon="-8.7167630">
        <ele>82.1</ele>
        <time>2021-05-20T11:47:59Z</time>
      </trkpt>
      <trkpt lat="42.2253970" lon="-8.7167680">
        <ele>82.1</ele>
        <time>2021-05-20T11:48:00Z</time>
      </trkpt>
      <trkpt lat="42.2253960" lon="-8.7167690">
        <ele>82.1</ele>
        <time>2021-05-20T11:48:01Z</time>
      </trkpt>
      <trkpt lat="42.2253990" lon="-8.7167720">
        <ele>82.1</ele>
        <time>2021-05-20T11:48:02Z</time>
      </trkpt>
      <trkpt lat="42.2254140" lon="-8.7167710">
        <ele>82.1</ele>
        <time>2021-05-20T11:48:03Z</time>
      </trkpt>
      <trkpt lat="42.2254160" lon="-8.7167730">
        <ele>82.1</ele>
        <time>2021-05-20T11:48:04Z</time>
      </trkpt>
      <trkpt lat="42.2254180" lon="-8.7167710">
        <ele>82.1</ele>
        <time>2021-05-20T11:48:05Z</time>
      </trkpt>
      <trkpt lat="42.2254260" lon="-8.7167700">
        <ele>82.1</ele>
        <time>2021-05-20T11:48:06Z</time>
      </trkpt>
      <trkpt lat="42.2254350" lon="-8.7167690">
        <ele>82.1</ele>
        <time>2021-05-20T11:48:07Z</time>
      </trkpt>
      <trkpt lat="42.2254340" lon="-8.7167730">
        <ele>82.1</ele>
        <time>2021-05-20T11:48:08Z</time>
      </trkpt>
      <trkpt lat="42.2254250" lon="-8.7167740">
        <ele>82.1</ele>
        <time>2021-05-20T11:48:09Z</time>
      </trkpt>
      <trkpt lat="42.2254030" lon="-8.7167710">
        <ele>82.1</ele>
        <time>2021-05-20T11:48:10Z</time>
      </trkpt>
      <trkpt lat="42.2253930" lon="-8.7167700">
        <ele>82.1</ele>
        <time>2021-05-20T11:48:11Z</time>
      </trkpt>
      <trkpt lat="42.2253940" lon="-8.7167640">
        <ele>82.1</ele>
        <time>2021-05-20T11:48:12Z</time>
      </trkpt>
      <trkpt lat="42.2253950" lon="-8.7167600">
        <ele>82.2</ele>
        <time>2021-05-20T11:48:13Z</time>
      </trkpt>
      <trkpt lat="42.2253950" lon="-8.7167620">
        <ele>82.2</ele>
        <time>2021-05-20T11:48:14Z</time>
      </trkpt>
      <trkpt lat="42.2253920" lon="-8.7167610">
        <ele>82.2</ele>
        <time>2021-05-20T11:48:15Z</time>
      </trkpt>
      <trkpt lat="42.2253940" lon="-8.7167630">
        <ele>82.2</ele>
        <time>2021-05-20T11:48:16Z</time>
      </trkpt>
      <trkpt lat="42.2253920" lon="-8.7167660">
        <ele>82.2</ele>
        <time>2021-05-20T11:48:17Z</time>
      </trkpt>
      <trkpt lat="42.2253900" lon="-8.7167690">
        <ele>82.2</ele>
        <time>2021-05-20T11:48:18Z</time>
      </trkpt>
      <trkpt lat="42.2253890" lon="-8.7167740">
        <ele>82.2</ele>
        <time>2021-05-20T11:48:19Z</time>
      </trkpt>
      <trkpt lat="42.2253920" lon="-8.7167680">
        <ele>82.2</ele>
        <time>2021-05-20T11:48:20Z</time>
      </trkpt>
      <trkpt lat="42.2253840" lon="-8.7167760">
        <ele>82.2</ele>
        <time>2021-05-20T11:48:21Z</time>
      </trkpt>
      <trkpt lat="42.2253840" lon="-8.7167830">
        <ele>82.2</ele>
        <time>2021-05-20T11:48:22Z</time>
      </trkpt>
      <trkpt lat="42.2253830" lon="-8.7167880">
        <ele>82.2</ele>
        <time>2021-05-20T11:48:23Z</time>
      </trkpt>
      <trkpt lat="42.2253790" lon="-8.7167920">
        <ele>82.2</ele>
        <time>2021-05-20T11:48:24Z</time>
      </trkpt>
      <trkpt lat="42.2253650" lon="-8.7168070">
        <ele>82.2</ele>
        <time>2021-05-20T11:48:25Z</time>
      </trkpt>
      <trkpt lat="42.2253550" lon="-8.7167970">
        <ele>82.2</ele>
        <time>2021-05-20T11:48:26Z</time>
      </trkpt>
      <trkpt lat="42.2253520" lon="-8.7167970">
        <ele>82.2</ele>
        <time>2021-05-20T11:48:27Z</time>
      </trkpt>
      <trkpt lat="42.2253500" lon="-8.7167960">
        <ele>82.2</ele>
        <time>2021-05-20T11:48:28Z</time>
      </trkpt>
      <trkpt lat="42.2253500" lon="-8.7167930">
        <ele>82.2</ele>
        <time>2021-05-20T11:48:29Z</time>
      </trkpt>
      <trkpt lat="42.2253550" lon="-8.7167910">
        <ele>82.2</ele>
        <time>2021-05-20T11:48:30Z</time>
      </trkpt>
      <trkpt lat="42.2253520" lon="-8.7168000">
        <ele>82.2</ele>
        <time>2021-05-20T11:48:31Z</time>
      </trkpt>
      <trkpt lat="42.2253550" lon="-8.7168020">
        <ele>82.2</ele>
        <time>2021-05-20T11:48:32Z</time>
      </trkpt>
      <trkpt lat="42.2253550" lon="-8.7168000">
        <ele>82.2</ele>
        <time>2021-05-20T11:48:33Z</time>
      </trkpt>
      <trkpt lat="42.2253570" lon="-8.7167980">
        <ele>82.2</ele>
        <time>2021-05-20T11:48:34Z</time>
      </trkpt>
      <trkpt lat="42.2253540" lon="-8.7167960">
        <ele>82.2</ele>
        <time>2021-05-20T11:48:35Z</time>
      </trkpt>
      <trkpt lat="42.2253530" lon="-8.7168000">
        <ele>82.2</ele>
        <time>2021-05-20T11:48:36Z</time>
      </trkpt>
      <trkpt lat="42.2253590" lon="-8.7168120">
        <ele>82.2</ele>
        <time>2021-05-20T11:48:37Z</time>
      </trkpt>
      <trkpt lat="42.2253620" lon="-8.7168130">
        <ele>82.2</ele>
        <time>2021-05-20T11:48:38Z</time>
      </trkpt>
      <trkpt lat="42.2253700" lon="-8.7168080">
        <ele>82.2</ele>
        <time>2021-05-20T11:48:39Z</time>
      </trkpt>
      <trkpt lat="42.2253690" lon="-8.7168010">
        <ele>82.2</ele>
        <time>2021-05-20T11:48:40Z</time>
      </trkpt>
      <trkpt lat="42.2253720" lon="-8.7168030">
        <ele>82.2</ele>
        <time>2021-05-20T11:48:41Z</time>
      </trkpt>
      <trkpt lat="42.2253790" lon="-8.7167960">
        <ele>82.2</ele>
        <time>2021-05-20T11:48:42Z</time>
      </trkpt>
      <trkpt lat="42.2253800" lon="-8.7167940">
        <ele>82.2</ele>
        <time>2021-05-20T11:48:43Z</time>
      </trkpt>
      <trkpt lat="42.2253790" lon="-8.7167810">
        <ele>82.2</ele>
        <time>2021-05-20T11:48:44Z</time>
      </trkpt>
      <trkpt lat="42.2253830" lon="-8.7167800">
        <ele>82.2</ele>
        <time>2021-05-20T11:48:45Z</time>
      </trkpt>
      <trkpt lat="42.2253840" lon="-8.7167760">
        <ele>82.2</ele>
        <time>2021-05-20T11:48:46Z</time>
      </trkpt>
      <trkpt lat="42.2253850" lon="-8.7167630">
        <ele>82.2</ele>
        <time>2021-05-20T11:48:47Z</time>
      </trkpt>
      <trkpt lat="42.2253840" lon="-8.7167560">
        <ele>82.2</ele>
        <time>2021-05-20T11:48:48Z</time>
      </trkpt>
      <trkpt lat="42.2253860" lon="-8.7167430">
        <ele>82.2</ele>
        <time>2021-05-20T11:48:49Z</time>
      </trkpt>
      <trkpt lat="42.2253860" lon="-8.7167430">
        <ele>82.2</ele>
        <time>2021-05-20T11:48:50Z</time>
      </trkpt>
      <trkpt lat="42.2253910" lon="-8.7167380">
        <ele>82.2</ele>
        <time>2021-05-20T11:48:51Z</time>
      </trkpt>
      <trkpt lat="42.2253970" lon="-8.7167350">
        <ele>82.2</ele>
        <time>2021-05-20T11:48:52Z</time>
      </trkpt>
      <trkpt lat="42.2253950" lon="-8.7167350">
        <ele>82.2</ele>
        <time>2021-05-20T11:48:53Z</time>
      </trkpt>
      <trkpt lat="42.2253960" lon="-8.7167350">
        <ele>82.2</ele>
        <time>2021-05-20T11:48:54Z</time>
      </trkpt>
      <trkpt lat="42.2253920" lon="-8.7167380">
        <ele>82.2</ele>
        <time>2021-05-20T11:48:55Z</time>
      </trkpt>
      <trkpt lat="42.2253920" lon="-8.7167410">
        <ele>82.2</ele>
        <time>2021-05-20T11:48:56Z</time>
      </trkpt>
      <trkpt lat="42.2253910" lon="-8.7167500">
        <ele>82.2</ele>
        <time>2021-05-20T11:48:57Z</time>
      </trkpt>
      <trkpt lat="42.2253850" lon="-8.7167540">
        <ele>82.2</ele>
        <time>2021-05-20T11:48:58Z</time>
      </trkpt>
      <trkpt lat="42.2253860" lon="-8.7167590">
        <ele>82.2</ele>
        <time>2021-05-20T11:48:59Z</time>
      </trkpt>
      <trkpt lat="42.2253750" lon="-8.7167480">
        <ele>82.2</ele>
        <time>2021-05-20T11:49:00Z</time>
      </trkpt>
      <trkpt lat="42.2253760" lon="-8.7167360">
        <ele>82.2</ele>
        <time>2021-05-20T11:49:01Z</time>
      </trkpt>
      <trkpt lat="42.2253700" lon="-8.7167360">
        <ele>82.2</ele>
        <time>2021-05-20T11:49:02Z</time>
      </trkpt>
      <trkpt lat="42.2253730" lon="-8.7167310">
        <ele>82.2</ele>
        <time>2021-05-20T11:49:03Z</time>
      </trkpt>
      <trkpt lat="42.2253660" lon="-8.7167280">
        <ele>82.2</ele>
        <time>2021-05-20T11:49:04Z</time>
      </trkpt>
      <trkpt lat="42.2253650" lon="-8.7167140">
        <ele>82.2</ele>
        <time>2021-05-20T11:49:05Z</time>
      </trkpt>
      <trkpt lat="42.2253630" lon="-8.7167210">
        <ele>82.2</ele>
        <time>2021-05-20T11:49:06Z</time>
      </trkpt>
      <trkpt lat="42.2253580" lon="-8.7167220">
        <ele>82.2</ele>
        <time>2021-05-20T11:49:07Z</time>
      </trkpt>
      <trkpt lat="42.2253570" lon="-8.7167210">
        <ele>82.2</ele>
        <time>2021-05-20T11:49:08Z</time>
      </trkpt>
      <trkpt lat="42.2253530" lon="-8.7167360">
        <ele>82.2</ele>
        <time>2021-05-20T11:49:09Z</time>
      </trkpt>
      <trkpt lat="42.2253550" lon="-8.7167400">
        <ele>82.2</ele>
        <time>2021-05-20T11:49:10Z</time>
      </trkpt>
      <trkpt lat="42.2253580" lon="-8.7167480">
        <ele>82.2</ele>
        <time>2021-05-20T11:49:11Z</time>
      </trkpt>
      <trkpt lat="42.2253530" lon="-8.7167480">
        <ele>82.2</ele>
        <time>2021-05-20T11:49:12Z</time>
      </trkpt>
      <trkpt lat="42.2253530" lon="-8.7167510">
        <ele>82.2</ele>
        <time>2021-05-20T11:49:13Z</time>
      </trkpt>
      <trkpt lat="42.2253510" lon="-8.7167600">
        <ele>82.2</ele>
        <time>2021-05-20T11:49:14Z</time>
      </trkpt>
      <trkpt lat="42.2253540" lon="-8.7167630">
        <ele>82.2</ele>
        <time>2021-05-20T11:49:15Z</time>
      </trkpt>
      <trkpt lat="42.2253590" lon="-8.7167670">
        <ele>82.2</ele>
        <time>2021-05-20T11:49:16Z</time>
      </trkpt>
      <trkpt lat="42.2253460" lon="-8.7167540">
        <ele>82.2</ele>
        <time>2021-05-20T11:49:17Z</time>
      </trkpt>
      <trkpt lat="42.2253540" lon="-8.7167550">
        <ele>82.2</ele>
        <time>2021-05-20T11:49:18Z</time>
      </trkpt>
      <trkpt lat="42.2253510" lon="-8.7167490">
        <ele>82.2</ele>
        <time>2021-05-20T11:49:19Z</time>
      </trkpt>
      <trkpt lat="42.2253570" lon="-8.7167570">
        <ele>82.2</ele>
        <time>2021-05-20T11:49:20Z</time>
      </trkpt>
      <trkpt lat="42.2253620" lon="-8.7167530">
        <ele>82.2</ele>
        <time>2021-05-20T11:49:21Z</time>
      </trkpt>
      <trkpt lat="42.2253620" lon="-8.7167550">
        <ele>82.2</ele>
        <time>2021-05-20T11:49:22Z</time>
      </trkpt>
      <trkpt lat="42.2253650" lon="-8.7167520">
        <ele>82.2</ele>
        <time>2021-05-20T11:49:23Z</time>
      </trkpt>
      <trkpt lat="42.2253670" lon="-8.7167500">
        <ele>82.2</ele>
        <time>2021-05-20T11:49:24Z</time>
      </trkpt>
      <trkpt lat="42.2253700" lon="-8.7167450">
        <ele>82.2</ele>
        <time>2021-05-20T11:49:25Z</time>
      </trkpt>
      <trkpt lat="42.2253720" lon="-8.7167430">
        <ele>82.2</ele>
        <time>2021-05-20T11:49:26Z</time>
      </trkpt>
      <trkpt lat="42.2253730" lon="-8.7167450">
        <ele>82.2</ele>
        <time>2021-05-20T11:49:27Z</time>
      </trkpt>
      <trkpt lat="42.2253730" lon="-8.7167470">
        <ele>82.2</ele>
        <time>2021-05-20T11:49:28Z</time>
      </trkpt>
      <trkpt lat="42.2253720" lon="-8.7167490">
        <ele>82.2</ele>
        <time>2021-05-20T11:49:29Z</time>
      </trkpt>
      <trkpt lat="42.2253720" lon="-8.7167510">
        <ele>82.2</ele>
        <time>2021-05-20T11:49:30Z</time>
      </trkpt>
      <trkpt lat="42.2253710" lon="-8.7167530">
        <ele>82.2</ele>
        <time>2021-05-20T11:49:31Z</time>
      </trkpt>
      <trkpt lat="42.2253710" lon="-8.7167550">
        <ele>82.2</ele>
        <time>2021-05-20T11:49:32Z</time>
      </trkpt>
      <trkpt lat="42.2253700" lon="-8.7167570">
        <ele>82.2</ele>
        <time>2021-05-20T11:49:33Z</time>
      </trkpt>
      <trkpt lat="42.2253700" lon="-8.7167590">
        <ele>82.2</ele>
        <time>2021-05-20T11:49:34Z</time>
      </trkpt>
      <trkpt lat="42.2253690" lon="-8.7167610">
        <ele>82.2</ele>
        <time>2021-05-20T11:49:35Z</time>
      </trkpt>
      <trkpt lat="42.2253680" lon="-8.7167630">
        <ele>82.2</ele>
        <time>2021-05-20T11:49:36Z</time>
      </trkpt>
      <trkpt lat="42.2253680" lon="-8.7167650">
        <ele>82.2</ele>
        <time>2021-05-20T11:49:37Z</time>
      </trkpt>
      <trkpt lat="42.2253670" lon="-8.7167670">
        <ele>82.2</ele>
        <time>2021-05-20T11:49:38Z</time>
      </trkpt>
      <trkpt lat="42.2253670" lon="-8.7167690">
        <ele>82.2</ele>
        <time>2021-05-20T11:49:39Z</time>
      </trkpt>
      <trkpt lat="42.2253660" lon="-8.7167710">
        <ele>82.2</ele>
        <time>2021-05-20T11:49:40Z</time>
      </trkpt>
      <trkpt lat="42.2253660" lon="-8.7167730">
        <ele>82.2</ele>
        <time>2021-05-20T11:49:41Z</time>
      </trkpt>
      <trkpt lat="42.2253650" lon="-8.7167750">
        <ele>82.2</ele>
        <time>2021-05-20T11:49:42Z</time>
      </trkpt>
      <trkpt lat="42.2253640" lon="-8.7167770">
        <ele>82.2</ele>
        <time>2021-05-20T11:49:43Z</time>
      </trkpt>
      <trkpt lat="42.2253640" lon="-8.7167790">
        <ele>82.2</ele>
        <time>2021-05-20T11:49:44Z</time>
      </trkpt>
      <trkpt lat="42.2253630" lon="-8.7167810">
        <ele>82.2</ele>
        <time>2021-05-20T11:49:45Z</time>
      </trkpt>
      <trkpt lat="42.2253630" lon="-8.7167830">
        <ele>82.2</ele>
        <time>2021-05-20T11:49:46Z</time>
      </trkpt>
      <trkpt lat="42.2253620" lon="-8.7167850">
        <ele>82.2</ele>
        <time>2021-05-20T11:49:47Z</time>
      </trkpt>
      <trkpt lat="42.2253620" lon="-8.7167870">
        <ele>82.2</ele>
        <time>2021-05-20T11:49:48Z</time>
      </trkpt>
      <trkpt lat="42.2253610" lon="-8.7167890">
        <ele>82.2</ele>
        <time>2021-05-20T11:49:49Z</time>
      </trkpt>
      <trkpt lat="42.2253610" lon="-8.7167910">
        <ele>82.2</ele>
        <time>2021-05-20T11:49:50Z</time>
      </trkpt>
      <trkpt lat="42.2253600" lon="-8.7167930">
        <ele>82.2</ele>
        <time>2021-05-20T11:49:51Z</time>
      </trkpt>
      <trkpt lat="42.2253610" lon="-8.7167950">
        <ele>82.2</ele>
        <time>2021-05-20T11:49:52Z</time>
      </trkpt>
      <trkpt lat="42.2253650" lon="-8.7167970">
        <ele>82.2</ele>
        <time>2021-05-20T11:49:53Z</time>
      </trkpt>
      <trkpt lat="42.2253650" lon="-8.7167970">
        <ele>82.2</ele>
        <time>2021-05-20T11:49:54Z</time>
      </trkpt>
      <trkpt lat="42.2253620" lon="-8.7167980">
        <ele>82.2</ele>
        <time>2021-05-20T11:49:55Z</time>
      </trkpt>
      <trkpt lat="42.2253570" lon="-8.7167970">
        <ele>82.2</ele>
        <time>2021-05-20T11:49:56Z</time>
      </trkpt>
      <trkpt lat="42.2253630" lon="-8.7168040">
        <ele>82.2</ele>
        <time>2021-05-20T11:49:57Z</time>
      </trkpt>
      <trkpt lat="42.2253620" lon="-8.7168050">
        <ele>82.2</ele>
        <time>2021-05-20T11:49:58Z</time>
      </trkpt>
      <trkpt lat="42.2253620" lon="-8.7168060">
        <ele>82.2</ele>
        <time>2021-05-20T11:49:59Z</time>
      </trkpt>
      <trkpt lat="42.2253620" lon="-8.7168060">
        <ele>82.2</ele>
        <time>2021-05-20T11:50:00Z</time>
      </trkpt>
      <trkpt lat="42.2253620" lon="-8.7168060">
        <ele>82.2</ele>
        <time>2021-05-20T11:50:01Z</time>
      </trkpt>
      <trkpt lat="42.2253560" lon="-8.7168050">
        <ele>82.2</ele>
        <time>2021-05-20T11:50:02Z</time>
      </trkpt>
      <trkpt lat="42.2253550" lon="-8.7168050">
        <ele>82.2</ele>
        <time>2021-05-20T11:50:03Z</time>
      </trkpt>
      <trkpt lat="42.2253560" lon="-8.7168040">
        <ele>82.2</ele>
        <time>2021-05-20T11:50:04Z</time>
      </trkpt>
      <trkpt lat="42.2253580" lon="-8.7168010">
        <ele>82.2</ele>
        <time>2021-05-20T11:50:05Z</time>
      </trkpt>
      <trkpt lat="42.2253560" lon="-8.7167990">
        <ele>82.2</ele>
        <time>2021-05-20T11:50:06Z</time>
      </trkpt>
      <trkpt lat="42.2253560" lon="-8.7167990">
        <ele>82.2</ele>
        <time>2021-05-20T11:50:07Z</time>
      </trkpt>
      <trkpt lat="42.2253560" lon="-8.7167990">
        <ele>82.2</ele>
        <time>2021-05-20T11:50:08Z</time>
      </trkpt>
      <trkpt lat="42.2253610" lon="-8.7167770">
        <ele>82.2</ele>
        <time>2021-05-20T11:50:09Z</time>
      </trkpt>
      <trkpt lat="42.2253620" lon="-8.7167780">
        <ele>82.2</ele>
        <time>2021-05-20T11:50:10Z</time>
      </trkpt>
      <trkpt lat="42.2253650" lon="-8.7167790">
        <ele>82.2</ele>
        <time>2021-05-20T11:50:11Z</time>
      </trkpt>
      <trkpt lat="42.2253670" lon="-8.7167780">
        <ele>82.2</ele>
        <time>2021-05-20T11:50:12Z</time>
      </trkpt>
      <trkpt lat="42.2253670" lon="-8.7167750">
        <ele>82.2</ele>
        <time>2021-05-20T11:50:13Z</time>
      </trkpt>
      <trkpt lat="42.2253680" lon="-8.7167710">
        <ele>82.2</ele>
        <time>2021-05-20T11:50:14Z</time>
      </trkpt>
      <trkpt lat="42.2253670" lon="-8.7167680">
        <ele>82.2</ele>
        <time>2021-05-20T11:50:15Z</time>
      </trkpt>
      <trkpt lat="42.2253620" lon="-8.7167560">
        <ele>82.2</ele>
        <time>2021-05-20T11:50:16Z</time>
      </trkpt>
      <trkpt lat="42.2253600" lon="-8.7167540">
        <ele>82.2</ele>
        <time>2021-05-20T11:50:17Z</time>
      </trkpt>
      <trkpt lat="42.2253600" lon="-8.7167540">
        <ele>82.2</ele>
        <time>2021-05-20T11:50:18Z</time>
      </trkpt>
      <trkpt lat="42.2253600" lon="-8.7167540">
        <ele>82.2</ele>
        <time>2021-05-20T11:50:19Z</time>
      </trkpt>
      <trkpt lat="42.2253530" lon="-8.7167480">
        <ele>82.2</ele>
        <time>2021-05-20T11:50:20Z</time>
      </trkpt>
      <trkpt lat="42.2253550" lon="-8.7167460">
        <ele>82.2</ele>
        <time>2021-05-20T11:50:21Z</time>
      </trkpt>
      <trkpt lat="42.2253550" lon="-8.7167460">
        <ele>82.2</ele>
        <time>2021-05-20T11:50:22Z</time>
      </trkpt>
      <trkpt lat="42.2253550" lon="-8.7167460">
        <ele>82.2</ele>
        <time>2021-05-20T11:50:23Z</time>
      </trkpt>
      <trkpt lat="42.2253580" lon="-8.7167470">
        <ele>82.2</ele>
        <time>2021-05-20T11:50:24Z</time>
      </trkpt>
      <trkpt lat="42.2253570" lon="-8.7167460">
        <ele>82.2</ele>
        <time>2021-05-20T11:50:25Z</time>
      </trkpt>
      <trkpt lat="42.2253520" lon="-8.7167420">
        <ele>82.2</ele>
        <time>2021-05-20T11:50:26Z</time>
      </trkpt>
      <trkpt lat="42.2253510" lon="-8.7167360">
        <ele>82.2</ele>
        <time>2021-05-20T11:50:27Z</time>
      </trkpt>
      <trkpt lat="42.2253510" lon="-8.7167350">
        <ele>82.2</ele>
        <time>2021-05-20T11:50:28Z</time>
      </trkpt>
      <trkpt lat="42.2253510" lon="-8.7167330">
        <ele>82.2</ele>
        <time>2021-05-20T11:50:29Z</time>
      </trkpt>
      <trkpt lat="42.2253520" lon="-8.7167330">
        <ele>82.2</ele>
        <time>2021-05-20T11:50:30Z</time>
      </trkpt>
      <trkpt lat="42.2253520" lon="-8.7167330">
        <ele>82.2</ele>
        <time>2021-05-20T11:50:31Z</time>
      </trkpt>
      <trkpt lat="42.2253520" lon="-8.7167330">
        <ele>82.2</ele>
        <time>2021-05-20T11:50:32Z</time>
      </trkpt>
      <trkpt lat="42.2253540" lon="-8.7167310">
        <ele>82.2</ele>
        <time>2021-05-20T11:50:33Z</time>
      </trkpt>
      <trkpt lat="42.2253520" lon="-8.7167310">
        <ele>82.2</ele>
        <time>2021-05-20T11:50:34Z</time>
      </trkpt>
      <trkpt lat="42.2253520" lon="-8.7167310">
        <ele>82.2</ele>
        <time>2021-05-20T11:50:35Z</time>
      </trkpt>
      <trkpt lat="42.2253520" lon="-8.7167310">
        <ele>82.2</ele>
        <time>2021-05-20T11:50:36Z</time>
      </trkpt>
      <trkpt lat="42.2253460" lon="-8.7167130">
        <ele>82.2</ele>
        <time>2021-05-20T11:50:37Z</time>
      </trkpt>
      <trkpt lat="42.2253470" lon="-8.7167150">
        <ele>82.2</ele>
        <time>2021-05-20T11:50:38Z</time>
      </trkpt>
      <trkpt lat="42.2253490" lon="-8.7167160">
        <ele>82.2</ele>
        <time>2021-05-20T11:50:39Z</time>
      </trkpt>
      <trkpt lat="42.2253500" lon="-8.7167180">
        <ele>82.2</ele>
        <time>2021-05-20T11:50:40Z</time>
      </trkpt>
      <trkpt lat="42.2253510" lon="-8.7167200">
        <ele>82.2</ele>
        <time>2021-05-20T11:50:41Z</time>
      </trkpt>
      <trkpt lat="42.2253530" lon="-8.7167220">
        <ele>82.2</ele>
        <time>2021-05-20T11:50:42Z</time>
      </trkpt>
      <trkpt lat="42.2253540" lon="-8.7167230">
        <ele>82.2</ele>
        <time>2021-05-20T11:50:43Z</time>
      </trkpt>
      <trkpt lat="42.2253560" lon="-8.7167250">
        <ele>82.2</ele>
        <time>2021-05-20T11:50:44Z</time>
      </trkpt>
      <trkpt lat="42.2253570" lon="-8.7167270">
        <ele>82.2</ele>
        <time>2021-05-20T11:50:45Z</time>
      </trkpt>
      <trkpt lat="42.2253580" lon="-8.7167290">
        <ele>82.2</ele>
        <time>2021-05-20T11:50:46Z</time>
      </trkpt>
      <trkpt lat="42.2253600" lon="-8.7167300">
        <ele>82.2</ele>
        <time>2021-05-20T11:50:47Z</time>
      </trkpt>
      <trkpt lat="42.2253610" lon="-8.7167320">
        <ele>82.2</ele>
        <time>2021-05-20T11:50:48Z</time>
      </trkpt>
      <trkpt lat="42.2253620" lon="-8.7167340">
        <ele>82.2</ele>
        <time>2021-05-20T11:50:49Z</time>
      </trkpt>
      <trkpt lat="42.2253640" lon="-8.7167360">
        <ele>82.2</ele>
        <time>2021-05-20T11:50:50Z</time>
      </trkpt>
      <trkpt lat="42.2253650" lon="-8.7167370">
        <ele>82.2</ele>
        <time>2021-05-20T11:50:51Z</time>
      </trkpt>
      <trkpt lat="42.2253670" lon="-8.7167390">
        <ele>82.2</ele>
        <time>2021-05-20T11:50:52Z</time>
      </trkpt>
      <trkpt lat="42.2253680" lon="-8.7167410">
        <ele>82.2</ele>
        <time>2021-05-20T11:50:53Z</time>
      </trkpt>
      <trkpt lat="42.2253690" lon="-8.7167430">
        <ele>82.2</ele>
        <time>2021-05-20T11:50:54Z</time>
      </trkpt>
      <trkpt lat="42.2253710" lon="-8.7167440">
        <ele>82.2</ele>
        <time>2021-05-20T11:50:55Z</time>
      </trkpt>
      <trkpt lat="42.2253720" lon="-8.7167460">
        <ele>82.2</ele>
        <time>2021-05-20T11:50:56Z</time>
      </trkpt>
      <trkpt lat="42.2253730" lon="-8.7167480">
        <ele>82.2</ele>
        <time>2021-05-20T11:50:57Z</time>
      </trkpt>
      <trkpt lat="42.2253750" lon="-8.7167500">
        <ele>82.2</ele>
        <time>2021-05-20T11:50:58Z</time>
      </trkpt>
      <trkpt lat="42.2253760" lon="-8.7167510">
        <ele>82.2</ele>
        <time>2021-05-20T11:50:59Z</time>
      </trkpt>
      <trkpt lat="42.2253780" lon="-8.7167530">
        <ele>82.2</ele>
        <time>2021-05-20T11:51:00Z</time>
      </trkpt>
      <trkpt lat="42.2253790" lon="-8.7167550">
        <ele>82.2</ele>
        <time>2021-05-20T11:51:01Z</time>
      </trkpt>
      <trkpt lat="42.2253800" lon="-8.7167570">
        <ele>82.2</ele>
        <time>2021-05-20T11:51:02Z</time>
      </trkpt>
      <trkpt lat="42.2253820" lon="-8.7167580">
        <ele>82.2</ele>
        <time>2021-05-20T11:51:03Z</time>
      </trkpt>
      <trkpt lat="42.2253830" lon="-8.7167600">
        <ele>82.2</ele>
        <time>2021-05-20T11:51:04Z</time>
      </trkpt>
      <trkpt lat="42.2253910" lon="-8.7167610">
        <ele>82.2</ele>
        <time>2021-05-20T11:51:05Z</time>
      </trkpt>
      <trkpt lat="42.2253940" lon="-8.7167620">
        <ele>82.2</ele>
        <time>2021-05-20T11:51:06Z</time>
      </trkpt>
      <trkpt lat="42.2253820" lon="-8.7167620">
        <ele>82.2</ele>
        <time>2021-05-20T11:51:07Z</time>
      </trkpt>
      <trkpt lat="42.2253820" lon="-8.7167590">
        <ele>82.2</ele>
        <time>2021-05-20T11:51:08Z</time>
      </trkpt>
      <trkpt lat="42.2253910" lon="-8.7167640">
        <ele>82.2</ele>
        <time>2021-05-20T11:51:09Z</time>
      </trkpt>
      <trkpt lat="42.2253960" lon="-8.7167640">
        <ele>82.2</ele>
        <time>2021-05-20T11:51:10Z</time>
      </trkpt>
      <trkpt lat="42.2253960" lon="-8.7167640">
        <ele>82.2</ele>
        <time>2021-05-20T11:51:11Z</time>
      </trkpt>
      <trkpt lat="42.2254020" lon="-8.7167700">
        <ele>82.2</ele>
        <time>2021-05-20T11:51:12Z</time>
      </trkpt>
      <trkpt lat="42.2254000" lon="-8.7167570">
        <ele>82.2</ele>
        <time>2021-05-20T11:51:13Z</time>
      </trkpt>
      <trkpt lat="42.2254020" lon="-8.7167430">
        <ele>82.2</ele>
        <time>2021-05-20T11:51:14Z</time>
      </trkpt>
      <trkpt lat="42.2254060" lon="-8.7167420">
        <ele>82.2</ele>
        <time>2021-05-20T11:51:15Z</time>
      </trkpt>
      <trkpt lat="42.2253990" lon="-8.7167370">
        <ele>82.2</ele>
        <time>2021-05-20T11:51:16Z</time>
      </trkpt>
      <trkpt lat="42.2254050" lon="-8.7167290">
        <ele>82.2</ele>
        <time>2021-05-20T11:51:17Z</time>
      </trkpt>
      <trkpt lat="42.2254050" lon="-8.7167140">
        <ele>82.2</ele>
        <time>2021-05-20T11:51:18Z</time>
      </trkpt>
      <trkpt lat="42.2254000" lon="-8.7167080">
        <ele>82.2</ele>
        <time>2021-05-20T11:51:19Z</time>
      </trkpt>
      <trkpt lat="42.2254090" lon="-8.7166950">
        <ele>82.2</ele>
        <time>2021-05-20T11:51:20Z</time>
      </trkpt>
      <trkpt lat="42.2254140" lon="-8.7166870">
        <ele>82.2</ele>
        <time>2021-05-20T11:51:21Z</time>
      </trkpt>
      <trkpt lat="42.2254140" lon="-8.7166800">
        <ele>82.2</ele>
        <time>2021-05-20T11:51:22Z</time>
      </trkpt>
      <trkpt lat="42.2254150" lon="-8.7166790">
        <ele>82.2</ele>
        <time>2021-05-20T11:51:23Z</time>
      </trkpt>
      <trkpt lat="42.2254110" lon="-8.7166790">
        <ele>82.2</ele>
        <time>2021-05-20T11:51:24Z</time>
      </trkpt>
      <trkpt lat="42.2254040" lon="-8.7166840">
        <ele>82.2</ele>
        <time>2021-05-20T11:51:25Z</time>
      </trkpt>
      <trkpt lat="42.2254000" lon="-8.7166850">
        <ele>82.2</ele>
        <time>2021-05-20T11:51:26Z</time>
      </trkpt>
      <trkpt lat="42.2253990" lon="-8.7166820">
        <ele>82.2</ele>
        <time>2021-05-20T11:51:27Z</time>
      </trkpt>
      <trkpt lat="42.2253870" lon="-8.7166770">
        <ele>82.2</ele>
        <time>2021-05-20T11:51:28Z</time>
      </trkpt>
      <trkpt lat="42.2253840" lon="-8.7166730">
        <ele>82.2</ele>
        <time>2021-05-20T11:51:29Z</time>
      </trkpt>
      <trkpt lat="42.2253820" lon="-8.7166720">
        <ele>82.2</ele>
        <time>2021-05-20T11:51:30Z</time>
      </trkpt>
      <trkpt lat="42.2253770" lon="-8.7166700">
        <ele>82.2</ele>
        <time>2021-05-20T11:51:31Z</time>
      </trkpt>
      <trkpt lat="42.2253720" lon="-8.7166700">
        <ele>82.2</ele>
        <time>2021-05-20T11:51:32Z</time>
      </trkpt>
      <trkpt lat="42.2253580" lon="-8.7166680">
        <ele>82.2</ele>
        <time>2021-05-20T11:51:33Z</time>
      </trkpt>
      <trkpt lat="42.2253450" lon="-8.7166730">
        <ele>82.2</ele>
        <time>2021-05-20T11:51:34Z</time>
      </trkpt>
      <trkpt lat="42.2253390" lon="-8.7166730">
        <ele>82.2</ele>
        <time>2021-05-20T11:51:35Z</time>
      </trkpt>
      <trkpt lat="42.2253360" lon="-8.7166740">
        <ele>82.2</ele>
        <time>2021-05-20T11:51:36Z</time>
      </trkpt>
      <trkpt lat="42.2253370" lon="-8.7166690">
        <ele>82.2</ele>
        <time>2021-05-20T11:51:37Z</time>
      </trkpt>
      <trkpt lat="42.2253420" lon="-8.7166410">
        <ele>82.2</ele>
        <time>2021-05-20T11:51:38Z</time>
      </trkpt>
      <trkpt lat="42.2253360" lon="-8.7166450">
        <ele>82.2</ele>
        <time>2021-05-20T11:51:39Z</time>
      </trkpt>
      <trkpt lat="42.2253260" lon="-8.7166510">
        <ele>82.2</ele>
        <time>2021-05-20T11:51:40Z</time>
      </trkpt>
      <trkpt lat="42.2253240" lon="-8.7166530">
        <ele>82.2</ele>
        <time>2021-05-20T11:51:41Z</time>
      </trkpt>
      <trkpt lat="42.2253210" lon="-8.7166540">
        <ele>82.2</ele>
        <time>2021-05-20T11:51:42Z</time>
      </trkpt>
      <trkpt lat="42.2253180" lon="-8.7166550">
        <ele>82.2</ele>
        <time>2021-05-20T11:51:43Z</time>
      </trkpt>
      <trkpt lat="42.2253160" lon="-8.7166570">
        <ele>82.2</ele>
        <time>2021-05-20T11:51:44Z</time>
      </trkpt>
      <trkpt lat="42.2253130" lon="-8.7166580">
        <ele>82.2</ele>
        <time>2021-05-20T11:51:45Z</time>
      </trkpt>
      <trkpt lat="42.2253100" lon="-8.7166600">
        <ele>82.2</ele>
        <time>2021-05-20T11:51:46Z</time>
      </trkpt>
      <trkpt lat="42.2253080" lon="-8.7166610">
        <ele>82.2</ele>
        <time>2021-05-20T11:51:47Z</time>
      </trkpt>
      <trkpt lat="42.2253050" lon="-8.7166620">
        <ele>82.2</ele>
        <time>2021-05-20T11:51:48Z</time>
      </trkpt>
      <trkpt lat="42.2253020" lon="-8.7166640">
        <ele>82.2</ele>
        <time>2021-05-20T11:51:49Z</time>
      </trkpt>
      <trkpt lat="42.2253000" lon="-8.7166650">
        <ele>82.2</ele>
        <time>2021-05-20T11:51:50Z</time>
      </trkpt>
      <trkpt lat="42.2252970" lon="-8.7166660">
        <ele>82.2</ele>
        <time>2021-05-20T11:51:51Z</time>
      </trkpt>
      <trkpt lat="42.2252950" lon="-8.7166680">
        <ele>82.2</ele>
        <time>2021-05-20T11:51:52Z</time>
      </trkpt>
      <trkpt lat="42.2252920" lon="-8.7166690">
        <ele>82.2</ele>
        <time>2021-05-20T11:51:53Z</time>
      </trkpt>
      <trkpt lat="42.2252890" lon="-8.7166710">
        <ele>82.2</ele>
        <time>2021-05-20T11:51:54Z</time>
      </trkpt>
      <trkpt lat="42.2252870" lon="-8.7166720">
        <ele>82.2</ele>
        <time>2021-05-20T11:51:55Z</time>
      </trkpt>
      <trkpt lat="42.2252840" lon="-8.7166730">
        <ele>82.2</ele>
        <time>2021-05-20T11:51:56Z</time>
      </trkpt>
      <trkpt lat="42.2252810" lon="-8.7166750">
        <ele>82.2</ele>
        <time>2021-05-20T11:51:57Z</time>
      </trkpt>
      <trkpt lat="42.2252790" lon="-8.7166760">
        <ele>82.2</ele>
        <time>2021-05-20T11:51:58Z</time>
      </trkpt>
      <trkpt lat="42.2252760" lon="-8.7166770">
        <ele>82.2</ele>
        <time>2021-05-20T11:51:59Z</time>
      </trkpt>
      <trkpt lat="42.2252730" lon="-8.7166790">
        <ele>82.2</ele>
        <time>2021-05-20T11:52:00Z</time>
      </trkpt>
      <trkpt lat="42.2252710" lon="-8.7166800">
        <ele>82.2</ele>
        <time>2021-05-20T11:52:01Z</time>
      </trkpt>
      <trkpt lat="42.2252680" lon="-8.7166820">
        <ele>82.3</ele>
        <time>2021-05-20T11:52:02Z</time>
      </trkpt>
      <trkpt lat="42.2252650" lon="-8.7166830">
        <ele>82.3</ele>
        <time>2021-05-20T11:52:03Z</time>
      </trkpt>
      <trkpt lat="42.2252630" lon="-8.7166840">
        <ele>82.3</ele>
        <time>2021-05-20T11:52:04Z</time>
      </trkpt>
      <trkpt lat="42.2252600" lon="-8.7166860">
        <ele>82.3</ele>
        <time>2021-05-20T11:52:05Z</time>
      </trkpt>
      <trkpt lat="42.2252570" lon="-8.7166870">
        <ele>82.3</ele>
        <time>2021-05-20T11:52:06Z</time>
      </trkpt>
      <trkpt lat="42.2252550" lon="-8.7166880">
        <ele>82.3</ele>
        <time>2021-05-20T11:52:07Z</time>
      </trkpt>
      <trkpt lat="42.2252520" lon="-8.7166900">
        <ele>82.3</ele>
        <time>2021-05-20T11:52:08Z</time>
      </trkpt>
      <trkpt lat="42.2252490" lon="-8.7166910">
        <ele>82.3</ele>
        <time>2021-05-20T11:52:09Z</time>
      </trkpt>
      <trkpt lat="42.2252470" lon="-8.7166930">
        <ele>82.3</ele>
        <time>2021-05-20T11:52:10Z</time>
      </trkpt>
      <trkpt lat="42.2252440" lon="-8.7166940">
        <ele>82.3</ele>
        <time>2021-05-20T11:52:11Z</time>
      </trkpt>
      <trkpt lat="42.2252420" lon="-8.7166950">
        <ele>82.3</ele>
        <time>2021-05-20T11:52:12Z</time>
      </trkpt>
      <trkpt lat="42.2252390" lon="-8.7166970">
        <ele>82.3</ele>
        <time>2021-05-20T11:52:13Z</time>
      </trkpt>
      <trkpt lat="42.2252360" lon="-8.7166980">
        <ele>82.3</ele>
        <time>2021-05-20T11:52:14Z</time>
      </trkpt>
      <trkpt lat="42.2252340" lon="-8.7166990">
        <ele>82.3</ele>
        <time>2021-05-20T11:52:15Z</time>
      </trkpt>
      <trkpt lat="42.2252310" lon="-8.7167010">
        <ele>82.3</ele>
        <time>2021-05-20T11:52:16Z</time>
      </trkpt>
      <trkpt lat="42.2252280" lon="-8.7167020">
        <ele>82.3</ele>
        <time>2021-05-20T11:52:17Z</time>
      </trkpt>
      <trkpt lat="42.2252260" lon="-8.7167040">
        <ele>82.3</ele>
        <time>2021-05-20T11:52:18Z</time>
      </trkpt>
      <trkpt lat="42.2252230" lon="-8.7167050">
        <ele>82.3</ele>
        <time>2021-05-20T11:52:19Z</time>
      </trkpt>
      <trkpt lat="42.2252200" lon="-8.7167060">
        <ele>82.3</ele>
        <time>2021-05-20T11:52:20Z</time>
      </trkpt>
      <trkpt lat="42.2252180" lon="-8.7167080">
        <ele>82.3</ele>
        <time>2021-05-20T11:52:21Z</time>
      </trkpt>
      <trkpt lat="42.2252150" lon="-8.7167090">
        <ele>82.3</ele>
        <time>2021-05-20T11:52:22Z</time>
      </trkpt>
      <trkpt lat="42.2252280" lon="-8.7167030">
        <ele>82.3</ele>
        <time>2021-05-20T11:52:23Z</time>
      </trkpt>
      <trkpt lat="42.2252370" lon="-8.7166910">
        <ele>82.3</ele>
        <time>2021-05-20T11:52:24Z</time>
      </trkpt>
      <trkpt lat="42.2252410" lon="-8.7166910">
        <ele>82.3</ele>
        <time>2021-05-20T11:52:25Z</time>
      </trkpt>
      <trkpt lat="42.2252430" lon="-8.7166820">
        <ele>82.3</ele>
        <time>2021-05-20T11:52:26Z</time>
      </trkpt>
      <trkpt lat="42.2252450" lon="-8.7166760">
        <ele>82.3</ele>
        <time>2021-05-20T11:52:27Z</time>
      </trkpt>
      <trkpt lat="42.2252480" lon="-8.7166720">
        <ele>82.3</ele>
        <time>2021-05-20T11:52:28Z</time>
      </trkpt>
      <trkpt lat="42.2252500" lon="-8.7166760">
        <ele>82.3</ele>
        <time>2021-05-20T11:52:29Z</time>
      </trkpt>
      <trkpt lat="42.2252480" lon="-8.7166630">
        <ele>82.3</ele>
        <time>2021-05-20T11:52:30Z</time>
      </trkpt>
      <trkpt lat="42.2252510" lon="-8.7166600">
        <ele>82.3</ele>
        <time>2021-05-20T11:52:31Z</time>
      </trkpt>
      <trkpt lat="42.2252600" lon="-8.7166530">
        <ele>82.3</ele>
        <time>2021-05-20T11:52:32Z</time>
      </trkpt>
      <trkpt lat="42.2252620" lon="-8.7166450">
        <ele>82.3</ele>
        <time>2021-05-20T11:52:33Z</time>
      </trkpt>
      <trkpt lat="42.2252650" lon="-8.7166460">
        <ele>82.3</ele>
        <time>2021-05-20T11:52:34Z</time>
      </trkpt>
      <trkpt lat="42.2252680" lon="-8.7166380">
        <ele>82.3</ele>
        <time>2021-05-20T11:52:35Z</time>
      </trkpt>
      <trkpt lat="42.2252780" lon="-8.7166330">
        <ele>82.3</ele>
        <time>2021-05-20T11:52:36Z</time>
      </trkpt>
      <trkpt lat="42.2252910" lon="-8.7166270">
        <ele>82.3</ele>
        <time>2021-05-20T11:52:37Z</time>
      </trkpt>
      <trkpt lat="42.2253010" lon="-8.7166240">
        <ele>82.3</ele>
        <time>2021-05-20T11:52:38Z</time>
      </trkpt>
      <trkpt lat="42.2253140" lon="-8.7166200">
        <ele>82.3</ele>
        <time>2021-05-20T11:52:39Z</time>
      </trkpt>
      <trkpt lat="42.2253210" lon="-8.7166090">
        <ele>82.3</ele>
        <time>2021-05-20T11:52:40Z</time>
      </trkpt>
      <trkpt lat="42.2253340" lon="-8.7165920">
        <ele>82.3</ele>
        <time>2021-05-20T11:52:41Z</time>
      </trkpt>
      <trkpt lat="42.2253390" lon="-8.7165870">
        <ele>82.3</ele>
        <time>2021-05-20T11:52:42Z</time>
      </trkpt>
      <trkpt lat="42.2253430" lon="-8.7165810">
        <ele>82.3</ele>
        <time>2021-05-20T11:52:43Z</time>
      </trkpt>
      <trkpt lat="42.2253480" lon="-8.7165760">
        <ele>82.3</ele>
        <time>2021-05-20T11:52:44Z</time>
      </trkpt>
      <trkpt lat="42.2253530" lon="-8.7165700">
        <ele>82.3</ele>
        <time>2021-05-20T11:52:45Z</time>
      </trkpt>
      <trkpt lat="42.2253630" lon="-8.7165600">
        <ele>82.3</ele>
        <time>2021-05-20T11:52:46Z</time>
      </trkpt>
      <trkpt lat="42.2253640" lon="-8.7165570">
        <ele>82.3</ele>
        <time>2021-05-20T11:52:47Z</time>
      </trkpt>
      <trkpt lat="42.2253690" lon="-8.7165520">
        <ele>82.3</ele>
        <time>2021-05-20T11:52:48Z</time>
      </trkpt>
      <trkpt lat="42.2253670" lon="-8.7165590">
        <ele>82.3</ele>
        <time>2021-05-20T11:52:49Z</time>
      </trkpt>
      <trkpt lat="42.2253770" lon="-8.7165520">
        <ele>82.3</ele>
        <time>2021-05-20T11:52:50Z</time>
      </trkpt>
      <trkpt lat="42.2253900" lon="-8.7165250">
        <ele>82.3</ele>
        <time>2021-05-20T11:52:51Z</time>
      </trkpt>
      <trkpt lat="42.2253940" lon="-8.7165190">
        <ele>82.3</ele>
        <time>2021-05-20T11:52:52Z</time>
      </trkpt>
      <trkpt lat="42.2253980" lon="-8.7165120">
        <ele>82.3</ele>
        <time>2021-05-20T11:52:53Z</time>
      </trkpt>
      <trkpt lat="42.2254010" lon="-8.7165060">
        <ele>82.3</ele>
        <time>2021-05-20T11:52:54Z</time>
      </trkpt>
      <trkpt lat="42.2254050" lon="-8.7165080">
        <ele>82.3</ele>
        <time>2021-05-20T11:52:55Z</time>
      </trkpt>
      <trkpt lat="42.2254140" lon="-8.7165020">
        <ele>82.3</ele>
        <time>2021-05-20T11:52:56Z</time>
      </trkpt>
      <trkpt lat="42.2254260" lon="-8.7164920">
        <ele>82.3</ele>
        <time>2021-05-20T11:52:57Z</time>
      </trkpt>
      <trkpt lat="42.2254300" lon="-8.7164860">
        <ele>82.4</ele>
        <time>2021-05-20T11:52:58Z</time>
      </trkpt>
      <trkpt lat="42.2254400" lon="-8.7164830">
        <ele>82.5</ele>
        <time>2021-05-20T11:52:59Z</time>
      </trkpt>
      <trkpt lat="42.2254430" lon="-8.7164840">
        <ele>82.5</ele>
        <time>2021-05-20T11:53:00Z</time>
      </trkpt>
      <trkpt lat="42.2254530" lon="-8.7164780">
        <ele>82.5</ele>
        <time>2021-05-20T11:53:01Z</time>
      </trkpt>
      <trkpt lat="42.2254830" lon="-8.7164620">
        <ele>82.8</ele>
        <time>2021-05-20T11:53:02Z</time>
      </trkpt>
      <trkpt lat="42.2254930" lon="-8.7164570">
        <ele>82.8</ele>
        <time>2021-05-20T11:53:03Z</time>
      </trkpt>
      <trkpt lat="42.2255090" lon="-8.7164520">
        <ele>82.9</ele>
        <time>2021-05-20T11:53:04Z</time>
      </trkpt>
      <trkpt lat="42.2255210" lon="-8.7164420">
        <ele>83.0</ele>
        <time>2021-05-20T11:53:05Z</time>
      </trkpt>
      <trkpt lat="42.2255350" lon="-8.7164400">
        <ele>83.1</ele>
        <time>2021-05-20T11:53:06Z</time>
      </trkpt>
      <trkpt lat="42.2255440" lon="-8.7164360">
        <ele>83.2</ele>
        <time>2021-05-20T11:53:07Z</time>
      </trkpt>
      <trkpt lat="42.2255540" lon="-8.7164310">
        <ele>83.2</ele>
        <time>2021-05-20T11:53:08Z</time>
      </trkpt>
      <trkpt lat="42.2255630" lon="-8.7164260">
        <ele>83.3</ele>
        <time>2021-05-20T11:53:09Z</time>
      </trkpt>
      <trkpt lat="42.2255890" lon="-8.7164130">
        <ele>83.5</ele>
        <time>2021-05-20T11:53:10Z</time>
      </trkpt>
      <trkpt lat="42.2255980" lon="-8.7164050">
        <ele>83.5</ele>
        <time>2021-05-20T11:53:11Z</time>
      </trkpt>
      <trkpt lat="42.2256170" lon="-8.7163940">
        <ele>83.7</ele>
        <time>2021-05-20T11:53:12Z</time>
      </trkpt>
      <trkpt lat="42.2256230" lon="-8.7163900">
        <ele>83.7</ele>
        <time>2021-05-20T11:53:13Z</time>
      </trkpt>
      <trkpt lat="42.2256280" lon="-8.7163860">
        <ele>83.7</ele>
        <time>2021-05-20T11:53:14Z</time>
      </trkpt>
      <trkpt lat="42.2256340" lon="-8.7163820">
        <ele>83.8</ele>
        <time>2021-05-20T11:53:15Z</time>
      </trkpt>
      <trkpt lat="42.2256530" lon="-8.7163650">
        <ele>83.9</ele>
        <time>2021-05-20T11:53:16Z</time>
      </trkpt>
      <trkpt lat="42.2256600" lon="-8.7163580">
        <ele>84.0</ele>
        <time>2021-05-20T11:53:17Z</time>
      </trkpt>
      <trkpt lat="42.2256670" lon="-8.7163520">
        <ele>84.0</ele>
        <time>2021-05-20T11:53:18Z</time>
      </trkpt>
      <trkpt lat="42.2256740" lon="-8.7163450">
        <ele>84.1</ele>
        <time>2021-05-20T11:53:19Z</time>
      </trkpt>
      <trkpt lat="42.2256810" lon="-8.7163380">
        <ele>84.1</ele>
        <time>2021-05-20T11:53:20Z</time>
      </trkpt>
      <trkpt lat="42.2256880" lon="-8.7163310">
        <ele>84.2</ele>
        <time>2021-05-20T11:53:21Z</time>
      </trkpt>
      <trkpt lat="42.2256950" lon="-8.7163250">
        <ele>84.2</ele>
        <time>2021-05-20T11:53:22Z</time>
      </trkpt>
      <trkpt lat="42.2257020" lon="-8.7163180">
        <ele>84.3</ele>
        <time>2021-05-20T11:53:23Z</time>
      </trkpt>
      <trkpt lat="42.2257100" lon="-8.7163110">
        <ele>84.3</ele>
        <time>2021-05-20T11:53:24Z</time>
      </trkpt>
      <trkpt lat="42.2257170" lon="-8.7163040">
        <ele>84.4</ele>
        <time>2021-05-20T11:53:25Z</time>
      </trkpt>
      <trkpt lat="42.2257240" lon="-8.7162980">
        <ele>84.4</ele>
        <time>2021-05-20T11:53:26Z</time>
      </trkpt>
      <trkpt lat="42.2257310" lon="-8.7162910">
        <ele>84.5</ele>
        <time>2021-05-20T11:53:27Z</time>
      </trkpt>
      <trkpt lat="42.2257380" lon="-8.7162840">
        <ele>84.5</ele>
        <time>2021-05-20T11:53:28Z</time>
      </trkpt>
      <trkpt lat="42.2257450" lon="-8.7162770">
        <ele>84.6</ele>
        <time>2021-05-20T11:53:29Z</time>
      </trkpt>
      <trkpt lat="42.2257520" lon="-8.7162710">
        <ele>84.6</ele>
        <time>2021-05-20T11:53:30Z</time>
      </trkpt>
      <trkpt lat="42.2257590" lon="-8.7162640">
        <ele>84.7</ele>
        <time>2021-05-20T11:53:31Z</time>
      </trkpt>
      <trkpt lat="42.2257660" lon="-8.7162570">
        <ele>84.7</ele>
        <time>2021-05-20T11:53:32Z</time>
      </trkpt>
      <trkpt lat="42.2257650" lon="-8.7162550">
        <ele>84.8</ele>
        <time>2021-05-20T11:53:33Z</time>
      </trkpt>
      <trkpt lat="42.2257810" lon="-8.7162490">
        <ele>84.9</ele>
        <time>2021-05-20T11:53:34Z</time>
      </trkpt>
      <trkpt lat="42.2257940" lon="-8.7162590">
        <ele>84.9</ele>
        <time>2021-05-20T11:53:35Z</time>
      </trkpt>
      <trkpt lat="42.2258020" lon="-8.7162560">
        <ele>85.0</ele>
        <time>2021-05-20T11:53:36Z</time>
      </trkpt>
      <trkpt lat="42.2258070" lon="-8.7162590">
        <ele>85.0</ele>
        <time>2021-05-20T11:53:37Z</time>
      </trkpt>
      <trkpt lat="42.2258180" lon="-8.7162610">
        <ele>85.1</ele>
        <time>2021-05-20T11:53:38Z</time>
      </trkpt>
      <trkpt lat="42.2258210" lon="-8.7162660">
        <ele>85.1</ele>
        <time>2021-05-20T11:53:39Z</time>
      </trkpt>
      <trkpt lat="42.2258290" lon="-8.7162720">
        <ele>85.2</ele>
        <time>2021-05-20T11:53:40Z</time>
      </trkpt>
      <trkpt lat="42.2258370" lon="-8.7162760">
        <ele>85.2</ele>
        <time>2021-05-20T11:53:41Z</time>
      </trkpt>
      <trkpt lat="42.2258480" lon="-8.7162710">
        <ele>85.3</ele>
        <time>2021-05-20T11:53:42Z</time>
      </trkpt>
      <trkpt lat="42.2258590" lon="-8.7162700">
        <ele>85.4</ele>
        <time>2021-05-20T11:53:43Z</time>
      </trkpt>
      <trkpt lat="42.2258640" lon="-8.7162730">
        <ele>85.4</ele>
        <time>2021-05-20T11:53:44Z</time>
      </trkpt>
      <trkpt lat="42.2258680" lon="-8.7162700">
        <ele>85.4</ele>
        <time>2021-05-20T11:53:45Z</time>
      </trkpt>
      <trkpt lat="42.2258700" lon="-8.7162690">
        <ele>85.4</ele>
        <time>2021-05-20T11:53:46Z</time>
      </trkpt>
      <trkpt lat="42.2258750" lon="-8.7162690">
        <ele>85.5</ele>
        <time>2021-05-20T11:53:47Z</time>
      </trkpt>
      <trkpt lat="42.2258850" lon="-8.7162700">
        <ele>85.5</ele>
        <time>2021-05-20T11:53:48Z</time>
      </trkpt>
      <trkpt lat="42.2258980" lon="-8.7162600">
        <ele>85.6</ele>
        <time>2021-05-20T11:53:49Z</time>
      </trkpt>
      <trkpt lat="42.2258990" lon="-8.7162620">
        <ele>85.6</ele>
        <time>2021-05-20T11:53:50Z</time>
      </trkpt>
      <trkpt lat="42.2259080" lon="-8.7162620">
        <ele>85.7</ele>
        <time>2021-05-20T11:53:51Z</time>
      </trkpt>
      <trkpt lat="42.2259150" lon="-8.7162570">
        <ele>85.7</ele>
        <time>2021-05-20T11:53:52Z</time>
      </trkpt>
      <trkpt lat="42.2259230" lon="-8.7162490">
        <ele>85.8</ele>
        <time>2021-05-20T11:53:53Z</time>
      </trkpt>
      <trkpt lat="42.2259260" lon="-8.7162410">
        <ele>85.8</ele>
        <time>2021-05-20T11:53:54Z</time>
      </trkpt>
      <trkpt lat="42.2259300" lon="-8.7162340">
        <ele>85.9</ele>
        <time>2021-05-20T11:53:55Z</time>
      </trkpt>
      <trkpt lat="42.2259370" lon="-8.7162270">
        <ele>85.9</ele>
        <time>2021-05-20T11:53:56Z</time>
      </trkpt>
      <trkpt lat="42.2259420" lon="-8.7162200">
        <ele>86.0</ele>
        <time>2021-05-20T11:53:57Z</time>
      </trkpt>
      <trkpt lat="42.2259570" lon="-8.7162080">
        <ele>86.1</ele>
        <time>2021-05-20T11:53:58Z</time>
      </trkpt>
      <trkpt lat="42.2259640" lon="-8.7162080">
        <ele>86.1</ele>
        <time>2021-05-20T11:53:59Z</time>
      </trkpt>
      <trkpt lat="42.2259590" lon="-8.7161990">
        <ele>86.1</ele>
        <time>2021-05-20T11:54:00Z</time>
      </trkpt>
      <trkpt lat="42.2259570" lon="-8.7161960">
        <ele>86.2</ele>
        <time>2021-05-20T11:54:01Z</time>
      </trkpt>
      <trkpt lat="42.2259660" lon="-8.7161950">
        <ele>86.2</ele>
        <time>2021-05-20T11:54:02Z</time>
      </trkpt>
      <trkpt lat="42.2259680" lon="-8.7161800">
        <ele>86.3</ele>
        <time>2021-05-20T11:54:03Z</time>
      </trkpt>
      <trkpt lat="42.2259690" lon="-8.7161690">
        <ele>86.3</ele>
        <time>2021-05-20T11:54:04Z</time>
      </trkpt>
      <trkpt lat="42.2259830" lon="-8.7161600">
        <ele>86.4</ele>
        <time>2021-05-20T11:54:05Z</time>
      </trkpt>
      <trkpt lat="42.2259950" lon="-8.7161480">
        <ele>86.5</ele>
        <time>2021-05-20T11:54:06Z</time>
      </trkpt>
      <trkpt lat="42.2260080" lon="-8.7161230">
        <ele>86.6</ele>
        <time>2021-05-20T11:54:07Z</time>
      </trkpt>
      <trkpt lat="42.2260150" lon="-8.7161170">
        <ele>86.7</ele>
        <time>2021-05-20T11:54:08Z</time>
      </trkpt>
      <trkpt lat="42.2260220" lon="-8.7161100">
        <ele>86.7</ele>
        <time>2021-05-20T11:54:09Z</time>
      </trkpt>
      <trkpt lat="42.2260330" lon="-8.7161100">
        <ele>86.8</ele>
        <time>2021-05-20T11:54:10Z</time>
      </trkpt>
      <trkpt lat="42.2260420" lon="-8.7161050">
        <ele>86.8</ele>
        <time>2021-05-20T11:54:11Z</time>
      </trkpt>
      <trkpt lat="42.2260500" lon="-8.7161010">
        <ele>86.9</ele>
        <time>2021-05-20T11:54:12Z</time>
      </trkpt>
      <trkpt lat="42.2260590" lon="-8.7160970">
        <ele>86.9</ele>
        <time>2021-05-20T11:54:13Z</time>
      </trkpt>
      <trkpt lat="42.2260670" lon="-8.7160930">
        <ele>87.0</ele>
        <time>2021-05-20T11:54:14Z</time>
      </trkpt>
      <trkpt lat="42.2260760" lon="-8.7160880">
        <ele>87.0</ele>
        <time>2021-05-20T11:54:15Z</time>
      </trkpt>
      <trkpt lat="42.2260840" lon="-8.7160840">
        <ele>87.1</ele>
        <time>2021-05-20T11:54:16Z</time>
      </trkpt>
      <trkpt lat="42.2260980" lon="-8.7160740">
        <ele>87.2</ele>
        <time>2021-05-20T11:54:17Z</time>
      </trkpt>
      <trkpt lat="42.2261070" lon="-8.7160630">
        <ele>87.2</ele>
        <time>2021-05-20T11:54:18Z</time>
      </trkpt>
      <trkpt lat="42.2261160" lon="-8.7160510">
        <ele>87.3</ele>
        <time>2021-05-20T11:54:19Z</time>
      </trkpt>
      <trkpt lat="42.2261250" lon="-8.7160390">
        <ele>87.4</ele>
        <time>2021-05-20T11:54:20Z</time>
      </trkpt>
      <trkpt lat="42.2261490" lon="-8.7160150">
        <ele>87.6</ele>
        <time>2021-05-20T11:54:21Z</time>
      </trkpt>
      <trkpt lat="42.2261770" lon="-8.7159950">
        <ele>87.7</ele>
        <time>2021-05-20T11:54:22Z</time>
      </trkpt>
      <trkpt lat="42.2261860" lon="-8.7159860">
        <ele>87.8</ele>
        <time>2021-05-20T11:54:23Z</time>
      </trkpt>
      <trkpt lat="42.2262020" lon="-8.7159910">
        <ele>87.9</ele>
        <time>2021-05-20T11:54:24Z</time>
      </trkpt>
      <trkpt lat="42.2262160" lon="-8.7159890">
        <ele>87.9</ele>
        <time>2021-05-20T11:54:25Z</time>
      </trkpt>
      <trkpt lat="42.2262210" lon="-8.7159810">
        <ele>88.0</ele>
        <time>2021-05-20T11:54:26Z</time>
      </trkpt>
      <trkpt lat="42.2262350" lon="-8.7159790">
        <ele>88.1</ele>
        <time>2021-05-20T11:54:27Z</time>
      </trkpt>
      <trkpt lat="42.2262470" lon="-8.7159720">
        <ele>88.1</ele>
        <time>2021-05-20T11:54:28Z</time>
      </trkpt>
      <trkpt lat="42.2262830" lon="-8.7159920">
        <ele>88.3</ele>
        <time>2021-05-20T11:54:29Z</time>
      </trkpt>
      <trkpt lat="42.2263100" lon="-8.7160130">
        <ele>88.5</ele>
        <time>2021-05-20T11:54:30Z</time>
      </trkpt>
      <trkpt lat="42.2263390" lon="-8.7160330">
        <ele>88.6</ele>
        <time>2021-05-20T11:54:31Z</time>
      </trkpt>
      <trkpt lat="42.2263440" lon="-8.7160380">
        <ele>88.7</ele>
        <time>2021-05-20T11:54:32Z</time>
      </trkpt>
      <trkpt lat="42.2263600" lon="-8.7160360">
        <ele>88.8</ele>
        <time>2021-05-20T11:54:33Z</time>
      </trkpt>
      <trkpt lat="42.2263670" lon="-8.7160380">
        <ele>88.9</ele>
        <time>2021-05-20T11:54:34Z</time>
      </trkpt>
      <trkpt lat="42.2263750" lon="-8.7160360">
        <ele>89.0</ele>
        <time>2021-05-20T11:54:35Z</time>
      </trkpt>
      <trkpt lat="42.2263780" lon="-8.7160230">
        <ele>89.1</ele>
        <time>2021-05-20T11:54:36Z</time>
      </trkpt>
      <trkpt lat="42.2263800" lon="-8.7160270">
        <ele>89.2</ele>
        <time>2021-05-20T11:54:37Z</time>
      </trkpt>
      <trkpt lat="42.2263770" lon="-8.7160130">
        <ele>89.4</ele>
        <time>2021-05-20T11:54:38Z</time>
      </trkpt>
      <trkpt lat="42.2263830" lon="-8.7160150">
        <ele>89.4</ele>
        <time>2021-05-20T11:54:39Z</time>
      </trkpt>
      <trkpt lat="42.2263900" lon="-8.7160180">
        <ele>89.6</ele>
        <time>2021-05-20T11:54:40Z</time>
      </trkpt>
      <trkpt lat="42.2263970" lon="-8.7160320">
        <ele>89.6</ele>
        <time>2021-05-20T11:54:41Z</time>
      </trkpt>
      <trkpt lat="42.2263870" lon="-8.7160240">
        <ele>89.7</ele>
        <time>2021-05-20T11:54:42Z</time>
      </trkpt>
      <trkpt lat="42.2263880" lon="-8.7160170">
        <ele>89.8</ele>
        <time>2021-05-20T11:54:43Z</time>
      </trkpt>
      <trkpt lat="42.2263940" lon="-8.7160140">
        <ele>90.0</ele>
        <time>2021-05-20T11:54:44Z</time>
      </trkpt>
      <trkpt lat="42.2263970" lon="-8.7160220">
        <ele>90.0</ele>
        <time>2021-05-20T11:54:45Z</time>
      </trkpt>
      <trkpt lat="42.2264050" lon="-8.7160370">
        <ele>90.1</ele>
        <time>2021-05-20T11:54:46Z</time>
      </trkpt>
      <trkpt lat="42.2264070" lon="-8.7160350">
        <ele>90.2</ele>
        <time>2021-05-20T11:54:47Z</time>
      </trkpt>
      <trkpt lat="42.2264090" lon="-8.7160270">
        <ele>90.3</ele>
        <time>2021-05-20T11:54:48Z</time>
      </trkpt>
      <trkpt lat="42.2264100" lon="-8.7160190">
        <ele>90.4</ele>
        <time>2021-05-20T11:54:49Z</time>
      </trkpt>
      <trkpt lat="42.2264110" lon="-8.7160100">
        <ele>90.5</ele>
        <time>2021-05-20T11:54:50Z</time>
      </trkpt>
      <trkpt lat="42.2264120" lon="-8.7160020">
        <ele>90.6</ele>
        <time>2021-05-20T11:54:51Z</time>
      </trkpt>
      <trkpt lat="42.2264140" lon="-8.7159940">
        <ele>90.7</ele>
        <time>2021-05-20T11:54:52Z</time>
      </trkpt>
      <trkpt lat="42.2264150" lon="-8.7159860">
        <ele>90.8</ele>
        <time>2021-05-20T11:54:53Z</time>
      </trkpt>
      <trkpt lat="42.2264210" lon="-8.7159770">
        <ele>91.0</ele>
        <time>2021-05-20T11:54:54Z</time>
      </trkpt>
      <trkpt lat="42.2264250" lon="-8.7159740">
        <ele>91.1</ele>
        <time>2021-05-20T11:54:55Z</time>
      </trkpt>
      <trkpt lat="42.2264260" lon="-8.7159800">
        <ele>91.1</ele>
        <time>2021-05-20T11:54:56Z</time>
      </trkpt>
      <trkpt lat="42.2264250" lon="-8.7159920">
        <ele>91.2</ele>
        <time>2021-05-20T11:54:57Z</time>
      </trkpt>
      <trkpt lat="42.2264340" lon="-8.7159830">
        <ele>91.3</ele>
        <time>2021-05-20T11:54:58Z</time>
      </trkpt>
      <trkpt lat="42.2264340" lon="-8.7159780">
        <ele>91.4</ele>
        <time>2021-05-20T11:54:59Z</time>
      </trkpt>
      <trkpt lat="42.2264370" lon="-8.7159810">
        <ele>91.5</ele>
        <time>2021-05-20T11:55:00Z</time>
      </trkpt>
      <trkpt lat="42.2264460" lon="-8.7159740">
        <ele>91.7</ele>
        <time>2021-05-20T11:55:01Z</time>
      </trkpt>
      <trkpt lat="42.2264500" lon="-8.7159720">
        <ele>91.7</ele>
        <time>2021-05-20T11:55:02Z</time>
      </trkpt>
      <trkpt lat="42.2264630" lon="-8.7159850">
        <ele>91.8</ele>
        <time>2021-05-20T11:55:03Z</time>
      </trkpt>
      <trkpt lat="42.2264660" lon="-8.7160050">
        <ele>91.9</ele>
        <time>2021-05-20T11:55:04Z</time>
      </trkpt>
      <trkpt lat="42.2264680" lon="-8.7160160">
        <ele>92.0</ele>
        <time>2021-05-20T11:55:05Z</time>
      </trkpt>
      <trkpt lat="42.2264740" lon="-8.7160230">
        <ele>92.1</ele>
        <time>2021-05-20T11:55:06Z</time>
      </trkpt>
      <trkpt lat="42.2264810" lon="-8.7160190">
        <ele>92.2</ele>
        <time>2021-05-20T11:55:07Z</time>
      </trkpt>
      <trkpt lat="42.2264790" lon="-8.7160280">
        <ele>92.2</ele>
        <time>2021-05-20T11:55:08Z</time>
      </trkpt>
      <trkpt lat="42.2264800" lon="-8.7160330">
        <ele>92.3</ele>
        <time>2021-05-20T11:55:09Z</time>
      </trkpt>
      <trkpt lat="42.2264860" lon="-8.7160320">
        <ele>92.5</ele>
        <time>2021-05-20T11:55:10Z</time>
      </trkpt>
      <trkpt lat="42.2264990" lon="-8.7160320">
        <ele>92.6</ele>
        <time>2021-05-20T11:55:11Z</time>
      </trkpt>
      <trkpt lat="42.2265040" lon="-8.7160660">
        <ele>92.6</ele>
        <time>2021-05-20T11:55:12Z</time>
      </trkpt>
      <trkpt lat="42.2265020" lon="-8.7160530">
        <ele>92.8</ele>
        <time>2021-05-20T11:55:13Z</time>
      </trkpt>
      <trkpt lat="42.2265280" lon="-8.7160370">
        <ele>92.9</ele>
        <time>2021-05-20T11:55:14Z</time>
      </trkpt>
      <trkpt lat="42.2265450" lon="-8.7160390">
        <ele>93.0</ele>
        <time>2021-05-20T11:55:15Z</time>
      </trkpt>
      <trkpt lat="42.2265570" lon="-8.7160380">
        <ele>93.1</ele>
        <time>2021-05-20T11:55:16Z</time>
      </trkpt>
      <trkpt lat="42.2265590" lon="-8.7160240">
        <ele>93.2</ele>
        <time>2021-05-20T11:55:17Z</time>
      </trkpt>
      <trkpt lat="42.2265760" lon="-8.7160060">
        <ele>93.4</ele>
        <time>2021-05-20T11:55:18Z</time>
      </trkpt>
      <trkpt lat="42.2265890" lon="-8.7159970">
        <ele>93.5</ele>
        <time>2021-05-20T11:55:19Z</time>
      </trkpt>
      <trkpt lat="42.2265870" lon="-8.7159740">
        <ele>93.6</ele>
        <time>2021-05-20T11:55:20Z</time>
      </trkpt>
      <trkpt lat="42.2265670" lon="-8.7159630">
        <ele>93.6</ele>
        <time>2021-05-20T11:55:21Z</time>
      </trkpt>
      <trkpt lat="42.2265630" lon="-8.7159620">
        <ele>93.6</ele>
        <time>2021-05-20T11:55:22Z</time>
      </trkpt>
      <trkpt lat="42.2265700" lon="-8.7159610">
        <ele>93.6</ele>
        <time>2021-05-20T11:55:23Z</time>
      </trkpt>
      <trkpt lat="42.2265770" lon="-8.7159690">
        <ele>93.6</ele>
        <time>2021-05-20T11:55:24Z</time>
      </trkpt>
      <trkpt lat="42.2265780" lon="-8.7159680">
        <ele>93.6</ele>
        <time>2021-05-20T11:55:25Z</time>
      </trkpt>
      <trkpt lat="42.2265830" lon="-8.7159770">
        <ele>93.6</ele>
        <time>2021-05-20T11:55:26Z</time>
      </trkpt>
      <trkpt lat="42.2265930" lon="-8.7159820">
        <ele>93.6</ele>
        <time>2021-05-20T11:55:27Z</time>
      </trkpt>
      <trkpt lat="42.2265930" lon="-8.7159880">
        <ele>93.6</ele>
        <time>2021-05-20T11:55:28Z</time>
      </trkpt>
      <trkpt lat="42.2266050" lon="-8.7159890">
        <ele>93.6</ele>
        <time>2021-05-20T11:55:29Z</time>
      </trkpt>
      <trkpt lat="42.2266090" lon="-8.7159940">
        <ele>93.6</ele>
        <time>2021-05-20T11:55:30Z</time>
      </trkpt>
      <trkpt lat="42.2266140" lon="-8.7160030">
        <ele>93.6</ele>
        <time>2021-05-20T11:55:31Z</time>
      </trkpt>
      <trkpt lat="42.2266200" lon="-8.7160060">
        <ele>93.6</ele>
        <time>2021-05-20T11:55:32Z</time>
      </trkpt>
      <trkpt lat="42.2266320" lon="-8.7160260">
        <ele>93.6</ele>
        <time>2021-05-20T11:55:33Z</time>
      </trkpt>
      <trkpt lat="42.2266380" lon="-8.7160350">
        <ele>93.7</ele>
        <time>2021-05-20T11:55:34Z</time>
      </trkpt>
      <trkpt lat="42.2266440" lon="-8.7160440">
        <ele>93.7</ele>
        <time>2021-05-20T11:55:35Z</time>
      </trkpt>
      <trkpt lat="42.2266510" lon="-8.7160550">
        <ele>93.7</ele>
        <time>2021-05-20T11:55:36Z</time>
      </trkpt>
      <trkpt lat="42.2266530" lon="-8.7160660">
        <ele>93.7</ele>
        <time>2021-05-20T11:55:37Z</time>
      </trkpt>
      <trkpt lat="42.2266600" lon="-8.7160770">
        <ele>93.7</ele>
        <time>2021-05-20T11:55:38Z</time>
      </trkpt>
      <trkpt lat="42.2266790" lon="-8.7160870">
        <ele>93.7</ele>
        <time>2021-05-20T11:55:39Z</time>
      </trkpt>
      <trkpt lat="42.2266890" lon="-8.7160850">
        <ele>93.7</ele>
        <time>2021-05-20T11:55:40Z</time>
      </trkpt>
      <trkpt lat="42.2267000" lon="-8.7160830">
        <ele>93.7</ele>
        <time>2021-05-20T11:55:41Z</time>
      </trkpt>
      <trkpt lat="42.2267310" lon="-8.7160580">
        <ele>93.6</ele>
        <time>2021-05-20T11:55:42Z</time>
      </trkpt>
      <trkpt lat="42.2267550" lon="-8.7160380">
        <ele>93.6</ele>
        <time>2021-05-20T11:55:43Z</time>
      </trkpt>
      <trkpt lat="42.2267810" lon="-8.7160200">
        <ele>93.7</ele>
        <time>2021-05-20T11:55:44Z</time>
      </trkpt>
      <trkpt lat="42.2267890" lon="-8.7160160">
        <ele>93.7</ele>
        <time>2021-05-20T11:55:45Z</time>
      </trkpt>
      <trkpt lat="42.2268090" lon="-8.7160020">
        <ele>93.7</ele>
        <time>2021-05-20T11:55:46Z</time>
      </trkpt>
      <trkpt lat="42.2268160" lon="-8.7159940">
        <ele>93.7</ele>
        <time>2021-05-20T11:55:47Z</time>
      </trkpt>
      <trkpt lat="42.2268230" lon="-8.7159860">
        <ele>93.7</ele>
        <time>2021-05-20T11:55:48Z</time>
      </trkpt>
      <trkpt lat="42.2268360" lon="-8.7159780">
        <ele>93.7</ele>
        <time>2021-05-20T11:55:49Z</time>
      </trkpt>
      <trkpt lat="42.2268380" lon="-8.7159810">
        <ele>93.7</ele>
        <time>2021-05-20T11:55:50Z</time>
      </trkpt>
      <trkpt lat="42.2268470" lon="-8.7159810">
        <ele>93.7</ele>
        <time>2021-05-20T11:55:51Z</time>
      </trkpt>
      <trkpt lat="42.2268560" lon="-8.7159760">
        <ele>93.7</ele>
        <time>2021-05-20T11:55:52Z</time>
      </trkpt>
      <trkpt lat="42.2268670" lon="-8.7159720">
        <ele>93.7</ele>
        <time>2021-05-20T11:55:53Z</time>
      </trkpt>
      <trkpt lat="42.2268740" lon="-8.7159710">
        <ele>93.7</ele>
        <time>2021-05-20T11:55:54Z</time>
      </trkpt>
      <trkpt lat="42.2268870" lon="-8.7159650">
        <ele>93.7</ele>
        <time>2021-05-20T11:55:55Z</time>
      </trkpt>
      <trkpt lat="42.2268910" lon="-8.7159620">
        <ele>93.7</ele>
        <time>2021-05-20T11:55:56Z</time>
      </trkpt>
      <trkpt lat="42.2268900" lon="-8.7159640">
        <ele>93.7</ele>
        <time>2021-05-20T11:55:57Z</time>
      </trkpt>
      <trkpt lat="42.2268870" lon="-8.7159670">
        <ele>93.7</ele>
        <time>2021-05-20T11:55:58Z</time>
      </trkpt>
      <trkpt lat="42.2268860" lon="-8.7159740">
        <ele>93.7</ele>
        <time>2021-05-20T11:55:59Z</time>
      </trkpt>
      <trkpt lat="42.2268970" lon="-8.7159780">
        <ele>93.8</ele>
        <time>2021-05-20T11:56:00Z</time>
      </trkpt>
      <trkpt lat="42.2269040" lon="-8.7159940">
        <ele>93.8</ele>
        <time>2021-05-20T11:56:01Z</time>
      </trkpt>
      <trkpt lat="42.2269020" lon="-8.7160200">
        <ele>93.9</ele>
        <time>2021-05-20T11:56:02Z</time>
      </trkpt>
      <trkpt lat="42.2268980" lon="-8.7160270">
        <ele>93.9</ele>
        <time>2021-05-20T11:56:03Z</time>
      </trkpt>
      <trkpt lat="42.2268950" lon="-8.7160330">
        <ele>93.9</ele>
        <time>2021-05-20T11:56:04Z</time>
      </trkpt>
      <trkpt lat="42.2268910" lon="-8.7160400">
        <ele>93.9</ele>
        <time>2021-05-20T11:56:05Z</time>
      </trkpt>
      <trkpt lat="42.2268930" lon="-8.7160380">
        <ele>93.9</ele>
        <time>2021-05-20T11:56:06Z</time>
      </trkpt>
      <trkpt lat="42.2268980" lon="-8.7160310">
        <ele>93.9</ele>
        <time>2021-05-20T11:56:07Z</time>
      </trkpt>
      <trkpt lat="42.2269020" lon="-8.7160250">
        <ele>94.0</ele>
        <time>2021-05-20T11:56:08Z</time>
      </trkpt>
      <trkpt lat="42.2269010" lon="-8.7160260">
        <ele>94.0</ele>
        <time>2021-05-20T11:56:09Z</time>
      </trkpt>
      <trkpt lat="42.2269020" lon="-8.7160270">
        <ele>94.0</ele>
        <time>2021-05-20T11:56:10Z</time>
      </trkpt>
      <trkpt lat="42.2268980" lon="-8.7160360">
        <ele>94.0</ele>
        <time>2021-05-20T11:56:11Z</time>
      </trkpt>
      <trkpt lat="42.2269050" lon="-8.7160320">
        <ele>94.0</ele>
        <time>2021-05-20T11:56:12Z</time>
      </trkpt>
      <trkpt lat="42.2269030" lon="-8.7160370">
        <ele>94.0</ele>
        <time>2021-05-20T11:56:13Z</time>
      </trkpt>
      <trkpt lat="42.2269030" lon="-8.7160400">
        <ele>94.0</ele>
        <time>2021-05-20T11:56:14Z</time>
      </trkpt>
      <trkpt lat="42.2269080" lon="-8.7160410">
        <ele>94.1</ele>
        <time>2021-05-20T11:56:15Z</time>
      </trkpt>
      <trkpt lat="42.2269120" lon="-8.7160530">
        <ele>94.1</ele>
        <time>2021-05-20T11:56:16Z</time>
      </trkpt>
      <trkpt lat="42.2269090" lon="-8.7160540">
        <ele>94.1</ele>
        <time>2021-05-20T11:56:17Z</time>
      </trkpt>
      <trkpt lat="42.2269060" lon="-8.7160640">
        <ele>94.1</ele>
        <time>2021-05-20T11:56:18Z</time>
      </trkpt>
      <trkpt lat="42.2269160" lon="-8.7160680">
        <ele>94.2</ele>
        <time>2021-05-20T11:56:19Z</time>
      </trkpt>
      <trkpt lat="42.2269190" lon="-8.7160800">
        <ele>94.2</ele>
        <time>2021-05-20T11:56:20Z</time>
      </trkpt>
      <trkpt lat="42.2269240" lon="-8.7160920">
        <ele>94.2</ele>
        <time>2021-05-20T11:56:21Z</time>
      </trkpt>
      <trkpt lat="42.2269290" lon="-8.7161070">
        <ele>94.3</ele>
        <time>2021-05-20T11:56:22Z</time>
      </trkpt>
      <trkpt lat="42.2269290" lon="-8.7161200">
        <ele>94.3</ele>
        <time>2021-05-20T11:56:23Z</time>
      </trkpt>
      <trkpt lat="42.2269300" lon="-8.7161360">
        <ele>94.4</ele>
        <time>2021-05-20T11:56:24Z</time>
      </trkpt>
      <trkpt lat="42.2269340" lon="-8.7161450">
        <ele>94.4</ele>
        <time>2021-05-20T11:56:25Z</time>
      </trkpt>
      <trkpt lat="42.2269290" lon="-8.7161740">
        <ele>94.5</ele>
        <time>2021-05-20T11:56:26Z</time>
      </trkpt>
      <trkpt lat="42.2269290" lon="-8.7161840">
        <ele>94.5</ele>
        <time>2021-05-20T11:56:27Z</time>
      </trkpt>
      <trkpt lat="42.2269300" lon="-8.7161940">
        <ele>94.6</ele>
        <time>2021-05-20T11:56:28Z</time>
      </trkpt>
      <trkpt lat="42.2269390" lon="-8.7162060">
        <ele>94.6</ele>
        <time>2021-05-20T11:56:29Z</time>
      </trkpt>
      <trkpt lat="42.2269440" lon="-8.7162050">
        <ele>94.6</ele>
        <time>2021-05-20T11:56:30Z</time>
      </trkpt>
      <trkpt lat="42.2269430" lon="-8.7162080">
        <ele>94.6</ele>
        <time>2021-05-20T11:56:31Z</time>
      </trkpt>
      <trkpt lat="42.2269490" lon="-8.7162110">
        <ele>94.7</ele>
        <time>2021-05-20T11:56:32Z</time>
      </trkpt>
      <trkpt lat="42.2269550" lon="-8.7162120">
        <ele>94.7</ele>
        <time>2021-05-20T11:56:33Z</time>
      </trkpt>
      <trkpt lat="42.2269740" lon="-8.7162150">
        <ele>94.8</ele>
        <time>2021-05-20T11:56:34Z</time>
      </trkpt>
      <trkpt lat="42.2269780" lon="-8.7162210">
        <ele>94.8</ele>
        <time>2021-05-20T11:56:35Z</time>
      </trkpt>
      <trkpt lat="42.2269830" lon="-8.7162260">
        <ele>94.8</ele>
        <time>2021-05-20T11:56:36Z</time>
      </trkpt>
      <trkpt lat="42.2269870" lon="-8.7162320">
        <ele>94.9</ele>
        <time>2021-05-20T11:56:37Z</time>
      </trkpt>
      <trkpt lat="42.2269920" lon="-8.7162380">
        <ele>94.9</ele>
        <time>2021-05-20T11:56:38Z</time>
      </trkpt>
      <trkpt lat="42.2270110" lon="-8.7162430">
        <ele>95.0</ele>
        <time>2021-05-20T11:56:39Z</time>
      </trkpt>
      <trkpt lat="42.2270240" lon="-8.7162430">
        <ele>95.0</ele>
        <time>2021-05-20T11:56:40Z</time>
      </trkpt>
      <trkpt lat="42.2270370" lon="-8.7162440">
        <ele>95.1</ele>
        <time>2021-05-20T11:56:41Z</time>
      </trkpt>
      <trkpt lat="42.2270570" lon="-8.7162420">
        <ele>95.2</ele>
        <time>2021-05-20T11:56:42Z</time>
      </trkpt>
      <trkpt lat="42.2270710" lon="-8.7162390">
        <ele>95.3</ele>
        <time>2021-05-20T11:56:43Z</time>
      </trkpt>
      <trkpt lat="42.2270840" lon="-8.7162310">
        <ele>95.3</ele>
        <time>2021-05-20T11:56:44Z</time>
      </trkpt>
      <trkpt lat="42.2270920" lon="-8.7162250">
        <ele>95.4</ele>
        <time>2021-05-20T11:56:45Z</time>
      </trkpt>
      <trkpt lat="42.2271040" lon="-8.7162180">
        <ele>95.5</ele>
        <time>2021-05-20T11:56:46Z</time>
      </trkpt>
      <trkpt lat="42.2271150" lon="-8.7162080">
        <ele>95.5</ele>
        <time>2021-05-20T11:56:47Z</time>
      </trkpt>
      <trkpt lat="42.2271310" lon="-8.7162020">
        <ele>95.6</ele>
        <time>2021-05-20T11:56:48Z</time>
      </trkpt>
      <trkpt lat="42.2271510" lon="-8.7161910">
        <ele>95.7</ele>
        <time>2021-05-20T11:56:49Z</time>
      </trkpt>
      <trkpt lat="42.2271620" lon="-8.7161870">
        <ele>95.8</ele>
        <time>2021-05-20T11:56:50Z</time>
      </trkpt>
      <trkpt lat="42.2271730" lon="-8.7161830">
        <ele>95.8</ele>
        <time>2021-05-20T11:56:51Z</time>
      </trkpt>
      <trkpt lat="42.2271930" lon="-8.7161730">
        <ele>96.0</ele>
        <time>2021-05-20T11:56:52Z</time>
      </trkpt>
      <trkpt lat="42.2272050" lon="-8.7161680">
        <ele>96.0</ele>
        <time>2021-05-20T11:56:53Z</time>
      </trkpt>
      <trkpt lat="42.2272160" lon="-8.7161590">
        <ele>96.1</ele>
        <time>2021-05-20T11:56:54Z</time>
      </trkpt>
      <trkpt lat="42.2272190" lon="-8.7161580">
        <ele>96.1</ele>
        <time>2021-05-20T11:56:55Z</time>
      </trkpt>
      <trkpt lat="42.2272320" lon="-8.7161520">
        <ele>96.2</ele>
        <time>2021-05-20T11:56:56Z</time>
      </trkpt>
      <trkpt lat="42.2272500" lon="-8.7161410">
        <ele>96.3</ele>
        <time>2021-05-20T11:56:57Z</time>
      </trkpt>
      <trkpt lat="42.2272660" lon="-8.7161450">
        <ele>96.4</ele>
        <time>2021-05-20T11:56:58Z</time>
      </trkpt>
      <trkpt lat="42.2272750" lon="-8.7161540">
        <ele>96.4</ele>
        <time>2021-05-20T11:56:59Z</time>
      </trkpt>
      <trkpt lat="42.2272950" lon="-8.7161680">
        <ele>96.5</ele>
        <time>2021-05-20T11:57:00Z</time>
      </trkpt>
      <trkpt lat="42.2273090" lon="-8.7161670">
        <ele>96.6</ele>
        <time>2021-05-20T11:57:01Z</time>
      </trkpt>
      <trkpt lat="42.2273240" lon="-8.7161680">
        <ele>96.7</ele>
        <time>2021-05-20T11:57:02Z</time>
      </trkpt>
      <trkpt lat="42.2273430" lon="-8.7161680">
        <ele>96.8</ele>
        <time>2021-05-20T11:57:03Z</time>
      </trkpt>
      <trkpt lat="42.2273530" lon="-8.7161680">
        <ele>96.8</ele>
        <time>2021-05-20T11:57:04Z</time>
      </trkpt>
      <trkpt lat="42.2273620" lon="-8.7161670">
        <ele>96.8</ele>
        <time>2021-05-20T11:57:05Z</time>
      </trkpt>
      <trkpt lat="42.2273710" lon="-8.7161660">
        <ele>96.9</ele>
        <time>2021-05-20T11:57:06Z</time>
      </trkpt>
      <trkpt lat="42.2273940" lon="-8.7161750">
        <ele>97.0</ele>
        <time>2021-05-20T11:57:07Z</time>
      </trkpt>
      <trkpt lat="42.2274030" lon="-8.7161770">
        <ele>97.1</ele>
        <time>2021-05-20T11:57:08Z</time>
      </trkpt>
      <trkpt lat="42.2274120" lon="-8.7161790">
        <ele>97.1</ele>
        <time>2021-05-20T11:57:09Z</time>
      </trkpt>
      <trkpt lat="42.2274290" lon="-8.7161910">
        <ele>97.2</ele>
        <time>2021-05-20T11:57:10Z</time>
      </trkpt>
      <trkpt lat="42.2274390" lon="-8.7161950">
        <ele>97.2</ele>
        <time>2021-05-20T11:57:11Z</time>
      </trkpt>
      <trkpt lat="42.2274660" lon="-8.7162110">
        <ele>97.4</ele>
        <time>2021-05-20T11:57:12Z</time>
      </trkpt>
      <trkpt lat="42.2274710" lon="-8.7162200">
        <ele>97.4</ele>
        <time>2021-05-20T11:57:13Z</time>
      </trkpt>
      <trkpt lat="42.2274990" lon="-8.7162390">
        <ele>97.6</ele>
        <time>2021-05-20T11:57:14Z</time>
      </trkpt>
      <trkpt lat="42.2275070" lon="-8.7162470">
        <ele>97.7</ele>
        <time>2021-05-20T11:57:15Z</time>
      </trkpt>
      <trkpt lat="42.2275270" lon="-8.7162600">
        <ele>97.9</ele>
        <time>2021-05-20T11:57:16Z</time>
      </trkpt>
      <trkpt lat="42.2275330" lon="-8.7162560">
        <ele>97.9</ele>
        <time>2021-05-20T11:57:17Z</time>
      </trkpt>
      <trkpt lat="42.2275450" lon="-8.7162480">
        <ele>98.0</ele>
        <time>2021-05-20T11:57:18Z</time>
      </trkpt>
      <trkpt lat="42.2275370" lon="-8.7162290">
        <ele>98.1</ele>
        <time>2021-05-20T11:57:19Z</time>
      </trkpt>
      <trkpt lat="42.2275360" lon="-8.7162230">
        <ele>98.1</ele>
        <time>2021-05-20T11:57:20Z</time>
      </trkpt>
      <trkpt lat="42.2275330" lon="-8.7162290">
        <ele>98.2</ele>
        <time>2021-05-20T11:57:21Z</time>
      </trkpt>
      <trkpt lat="42.2275450" lon="-8.7162300">
        <ele>98.2</ele>
        <time>2021-05-20T11:57:22Z</time>
      </trkpt>
      <trkpt lat="42.2275560" lon="-8.7162560">
        <ele>98.4</ele>
        <time>2021-05-20T11:57:23Z</time>
      </trkpt>
      <trkpt lat="42.2275670" lon="-8.7162660">
        <ele>98.4</ele>
        <time>2021-05-20T11:57:24Z</time>
      </trkpt>
      <trkpt lat="42.2275860" lon="-8.7162600">
        <ele>98.6</ele>
        <time>2021-05-20T11:57:25Z</time>
      </trkpt>
      <trkpt lat="42.2275950" lon="-8.7162540">
        <ele>98.6</ele>
        <time>2021-05-20T11:57:26Z</time>
      </trkpt>
      <trkpt lat="42.2276030" lon="-8.7162480">
        <ele>98.7</ele>
        <time>2021-05-20T11:57:27Z</time>
      </trkpt>
      <trkpt lat="42.2276050" lon="-8.7162460">
        <ele>98.7</ele>
        <time>2021-05-20T11:57:28Z</time>
      </trkpt>
      <trkpt lat="42.2276120" lon="-8.7162640">
        <ele>98.8</ele>
        <time>2021-05-20T11:57:29Z</time>
      </trkpt>
      <trkpt lat="42.2276210" lon="-8.7162810">
        <ele>98.9</ele>
        <time>2021-05-20T11:57:30Z</time>
      </trkpt>
      <trkpt lat="42.2276270" lon="-8.7162860">
        <ele>98.9</ele>
        <time>2021-05-20T11:57:31Z</time>
      </trkpt>
      <trkpt lat="42.2276410" lon="-8.7162820">
        <ele>99.0</ele>
        <time>2021-05-20T11:57:32Z</time>
      </trkpt>
      <trkpt lat="42.2276500" lon="-8.7162810">
        <ele>99.1</ele>
        <time>2021-05-20T11:57:33Z</time>
      </trkpt>
      <trkpt lat="42.2276630" lon="-8.7162900">
        <ele>99.2</ele>
        <time>2021-05-20T11:57:34Z</time>
      </trkpt>
      <trkpt lat="42.2276750" lon="-8.7162960">
        <ele>99.2</ele>
        <time>2021-05-20T11:57:35Z</time>
      </trkpt>
      <trkpt lat="42.2276860" lon="-8.7162930">
        <ele>99.3</ele>
        <time>2021-05-20T11:57:36Z</time>
      </trkpt>
      <trkpt lat="42.2277040" lon="-8.7162780">
        <ele>99.4</ele>
        <time>2021-05-20T11:57:37Z</time>
      </trkpt>
      <trkpt lat="42.2277120" lon="-8.7162640">
        <ele>99.5</ele>
        <time>2021-05-20T11:57:38Z</time>
      </trkpt>
      <trkpt lat="42.2277190" lon="-8.7162690">
        <ele>99.5</ele>
        <time>2021-05-20T11:57:39Z</time>
      </trkpt>
      <trkpt lat="42.2277310" lon="-8.7162730">
        <ele>99.6</ele>
        <time>2021-05-20T11:57:40Z</time>
      </trkpt>
      <trkpt lat="42.2277390" lon="-8.7162700">
        <ele>99.6</ele>
        <time>2021-05-20T11:57:41Z</time>
      </trkpt>
      <trkpt lat="42.2277480" lon="-8.7162660">
        <ele>99.7</ele>
        <time>2021-05-20T11:57:42Z</time>
      </trkpt>
      <trkpt lat="42.2277620" lon="-8.7162650">
        <ele>99.8</ele>
        <time>2021-05-20T11:57:43Z</time>
      </trkpt>
      <trkpt lat="42.2277670" lon="-8.7162570">
        <ele>99.8</ele>
        <time>2021-05-20T11:57:44Z</time>
      </trkpt>
      <trkpt lat="42.2277720" lon="-8.7162530">
        <ele>99.9</ele>
        <time>2021-05-20T11:57:45Z</time>
      </trkpt>
      <trkpt lat="42.2277760" lon="-8.7162490">
        <ele>99.9</ele>
        <time>2021-05-20T11:57:46Z</time>
      </trkpt>
      <trkpt lat="42.2277810" lon="-8.7162450">
        <ele>99.9</ele>
        <time>2021-05-20T11:57:47Z</time>
      </trkpt>
      <trkpt lat="42.2277860" lon="-8.7162410">
        <ele>99.9</ele>
        <time>2021-05-20T11:57:48Z</time>
      </trkpt>
      <trkpt lat="42.2277910" lon="-8.7162370">
        <ele>100.0</ele>
        <time>2021-05-20T11:57:49Z</time>
      </trkpt>
      <trkpt lat="42.2277960" lon="-8.7162330">
        <ele>100.0</ele>
        <time>2021-05-20T11:57:50Z</time>
      </trkpt>
      <trkpt lat="42.2278010" lon="-8.7162290">
        <ele>100.0</ele>
        <time>2021-05-20T11:57:51Z</time>
      </trkpt>
      <trkpt lat="42.2278050" lon="-8.7162240">
        <ele>100.1</ele>
        <time>2021-05-20T11:57:52Z</time>
      </trkpt>
      <trkpt lat="42.2278100" lon="-8.7162200">
        <ele>100.1</ele>
        <time>2021-05-20T11:57:53Z</time>
      </trkpt>
      <trkpt lat="42.2278150" lon="-8.7162160">
        <ele>100.1</ele>
        <time>2021-05-20T11:57:54Z</time>
      </trkpt>
      <trkpt lat="42.2278200" lon="-8.7162120">
        <ele>100.2</ele>
        <time>2021-05-20T11:57:55Z</time>
      </trkpt>
      <trkpt lat="42.2278250" lon="-8.7162080">
        <ele>100.2</ele>
        <time>2021-05-20T11:57:56Z</time>
      </trkpt>
      <trkpt lat="42.2278290" lon="-8.7162040">
        <ele>100.2</ele>
        <time>2021-05-20T11:57:57Z</time>
      </trkpt>
      <trkpt lat="42.2278340" lon="-8.7162000">
        <ele>100.3</ele>
        <time>2021-05-20T11:57:58Z</time>
      </trkpt>
      <trkpt lat="42.2278390" lon="-8.7161960">
        <ele>100.3</ele>
        <time>2021-05-20T11:57:59Z</time>
      </trkpt>
      <trkpt lat="42.2278570" lon="-8.7162040">
        <ele>100.4</ele>
        <time>2021-05-20T11:58:00Z</time>
      </trkpt>
      <trkpt lat="42.2278700" lon="-8.7162030">
        <ele>100.5</ele>
        <time>2021-05-20T11:58:01Z</time>
      </trkpt>
      <trkpt lat="42.2278870" lon="-8.7161950">
        <ele>100.6</ele>
        <time>2021-05-20T11:58:02Z</time>
      </trkpt>
      <trkpt lat="42.2278960" lon="-8.7161890">
        <ele>100.6</ele>
        <time>2021-05-20T11:58:03Z</time>
      </trkpt>
      <trkpt lat="42.2279050" lon="-8.7161840">
        <ele>100.7</ele>
        <time>2021-05-20T11:58:04Z</time>
      </trkpt>
      <trkpt lat="42.2279170" lon="-8.7161790">
        <ele>100.8</ele>
        <time>2021-05-20T11:58:05Z</time>
      </trkpt>
      <trkpt lat="42.2279290" lon="-8.7161790">
        <ele>100.8</ele>
        <time>2021-05-20T11:58:06Z</time>
      </trkpt>
      <trkpt lat="42.2279370" lon="-8.7161810">
        <ele>100.9</ele>
        <time>2021-05-20T11:58:07Z</time>
      </trkpt>
      <trkpt lat="42.2279460" lon="-8.7161800">
        <ele>100.9</ele>
        <time>2021-05-20T11:58:08Z</time>
      </trkpt>
      <trkpt lat="42.2279620" lon="-8.7161760">
        <ele>101.0</ele>
        <time>2021-05-20T11:58:09Z</time>
      </trkpt>
      <trkpt lat="42.2279680" lon="-8.7161780">
        <ele>101.1</ele>
        <time>2021-05-20T11:58:10Z</time>
      </trkpt>
      <trkpt lat="42.2279800" lon="-8.7161880">
        <ele>101.1</ele>
        <time>2021-05-20T11:58:11Z</time>
      </trkpt>
      <trkpt lat="42.2279990" lon="-8.7162000">
        <ele>101.2</ele>
        <time>2021-05-20T11:58:12Z</time>
      </trkpt>
      <trkpt lat="42.2280090" lon="-8.7162040">
        <ele>101.3</ele>
        <time>2021-05-20T11:58:13Z</time>
      </trkpt>
      <trkpt lat="42.2280220" lon="-8.7162040">
        <ele>101.4</ele>
        <time>2021-05-20T11:58:14Z</time>
      </trkpt>
      <trkpt lat="42.2280280" lon="-8.7162140">
        <ele>101.4</ele>
        <time>2021-05-20T11:58:15Z</time>
      </trkpt>
      <trkpt lat="42.2280410" lon="-8.7162290">
        <ele>101.5</ele>
        <time>2021-05-20T11:58:16Z</time>
      </trkpt>
      <trkpt lat="42.2280490" lon="-8.7162310">
        <ele>101.6</ele>
        <time>2021-05-20T11:58:17Z</time>
      </trkpt>
      <trkpt lat="42.2280570" lon="-8.7162330">
        <ele>101.6</ele>
        <time>2021-05-20T11:58:18Z</time>
      </trkpt>
      <trkpt lat="42.2280650" lon="-8.7162350">
        <ele>101.7</ele>
        <time>2021-05-20T11:58:19Z</time>
      </trkpt>
      <trkpt lat="42.2280720" lon="-8.7162360">
        <ele>101.7</ele>
        <time>2021-05-20T11:58:20Z</time>
      </trkpt>
      <trkpt lat="42.2280780" lon="-8.7162310">
        <ele>101.7</ele>
        <time>2021-05-20T11:58:21Z</time>
      </trkpt>
      <trkpt lat="42.2280860" lon="-8.7162250">
        <ele>101.8</ele>
        <time>2021-05-20T11:58:22Z</time>
      </trkpt>
      <trkpt lat="42.2280880" lon="-8.7162300">
        <ele>101.8</ele>
        <time>2021-05-20T11:58:23Z</time>
      </trkpt>
      <trkpt lat="42.2280980" lon="-8.7162300">
        <ele>101.9</ele>
        <time>2021-05-20T11:58:24Z</time>
      </trkpt>
      <trkpt lat="42.2281130" lon="-8.7162310">
        <ele>102.0</ele>
        <time>2021-05-20T11:58:25Z</time>
      </trkpt>
      <trkpt lat="42.2281250" lon="-8.7162340">
        <ele>102.0</ele>
        <time>2021-05-20T11:58:26Z</time>
      </trkpt>
      <trkpt lat="42.2281380" lon="-8.7162320">
        <ele>102.1</ele>
        <time>2021-05-20T11:58:27Z</time>
      </trkpt>
      <trkpt lat="42.2281420" lon="-8.7162360">
        <ele>102.1</ele>
        <time>2021-05-20T11:58:28Z</time>
      </trkpt>
      <trkpt lat="42.2281470" lon="-8.7162390">
        <ele>102.1</ele>
        <time>2021-05-20T11:58:29Z</time>
      </trkpt>
      <trkpt lat="42.2281510" lon="-8.7162420">
        <ele>102.2</ele>
        <time>2021-05-20T11:58:30Z</time>
      </trkpt>
      <trkpt lat="42.2281560" lon="-8.7162450">
        <ele>102.2</ele>
        <time>2021-05-20T11:58:31Z</time>
      </trkpt>
      <trkpt lat="42.2281600" lon="-8.7162490">
        <ele>102.2</ele>
        <time>2021-05-20T11:58:32Z</time>
      </trkpt>
      <trkpt lat="42.2281650" lon="-8.7162520">
        <ele>102.2</ele>
        <time>2021-05-20T11:58:33Z</time>
      </trkpt>
      <trkpt lat="42.2281790" lon="-8.7162670">
        <ele>102.3</ele>
        <time>2021-05-20T11:58:34Z</time>
      </trkpt>
      <trkpt lat="42.2281830" lon="-8.7162830">
        <ele>102.4</ele>
        <time>2021-05-20T11:58:35Z</time>
      </trkpt>
      <trkpt lat="42.2281860" lon="-8.7162980">
        <ele>102.4</ele>
        <time>2021-05-20T11:58:36Z</time>
      </trkpt>
      <trkpt lat="42.2281960" lon="-8.7163460">
        <ele>102.6</ele>
        <time>2021-05-20T11:58:37Z</time>
      </trkpt>
      <trkpt lat="42.2282000" lon="-8.7163850">
        <ele>102.8</ele>
        <time>2021-05-20T11:58:38Z</time>
      </trkpt>
      <trkpt lat="42.2282100" lon="-8.7164010">
        <ele>102.8</ele>
        <time>2021-05-20T11:58:39Z</time>
      </trkpt>
      <trkpt lat="42.2282230" lon="-8.7164100">
        <ele>102.9</ele>
        <time>2021-05-20T11:58:40Z</time>
      </trkpt>
      <trkpt lat="42.2282420" lon="-8.7164140">
        <ele>103.0</ele>
        <time>2021-05-20T11:58:41Z</time>
      </trkpt>
      <trkpt lat="42.2282590" lon="-8.7164030">
        <ele>103.1</ele>
        <time>2021-05-20T11:58:42Z</time>
      </trkpt>
      <trkpt lat="42.2282840" lon="-8.7164140">
        <ele>103.2</ele>
        <time>2021-05-20T11:58:43Z</time>
      </trkpt>
      <trkpt lat="42.2282930" lon="-8.7164210">
        <ele>103.3</ele>
        <time>2021-05-20T11:58:44Z</time>
      </trkpt>
      <trkpt lat="42.2283550" lon="-8.7164520">
        <ele>103.6</ele>
        <time>2021-05-20T11:58:45Z</time>
      </trkpt>
      <trkpt lat="42.2283770" lon="-8.7164510">
        <ele>103.7</ele>
        <time>2021-05-20T11:58:46Z</time>
      </trkpt>
      <trkpt lat="42.2284080" lon="-8.7164420">
        <ele>103.8</ele>
        <time>2021-05-20T11:58:47Z</time>
      </trkpt>
      <trkpt lat="42.2284160" lon="-8.7164410">
        <ele>103.8</ele>
        <time>2021-05-20T11:58:48Z</time>
      </trkpt>
      <trkpt lat="42.2284410" lon="-8.7163990">
        <ele>104.0</ele>
        <time>2021-05-20T11:58:49Z</time>
      </trkpt>
      <trkpt lat="42.2284560" lon="-8.7163680">
        <ele>104.1</ele>
        <time>2021-05-20T11:58:50Z</time>
      </trkpt>
      <trkpt lat="42.2284960" lon="-8.7163120">
        <ele>104.4</ele>
        <time>2021-05-20T11:58:51Z</time>
      </trkpt>
      <trkpt lat="42.2285330" lon="-8.7163060">
        <ele>104.6</ele>
        <time>2021-05-20T11:58:52Z</time>
      </trkpt>
      <trkpt lat="42.2285580" lon="-8.7162760">
        <ele>104.8</ele>
        <time>2021-05-20T11:58:53Z</time>
      </trkpt>
      <trkpt lat="42.2285800" lon="-8.7162480">
        <ele>105.3</ele>
        <time>2021-05-20T11:58:54Z</time>
      </trkpt>
      <trkpt lat="42.2285910" lon="-8.7162120">
        <ele>105.7</ele>
        <time>2021-05-20T11:58:55Z</time>
      </trkpt>
      <trkpt lat="42.2286210" lon="-8.7161820">
        <ele>106.4</ele>
        <time>2021-05-20T11:58:56Z</time>
      </trkpt>
      <trkpt lat="42.2286360" lon="-8.7161720">
        <ele>106.4</ele>
        <time>2021-05-20T11:58:57Z</time>
      </trkpt>
      <trkpt lat="42.2286760" lon="-8.7161710">
        <ele>106.4</ele>
        <time>2021-05-20T11:58:58Z</time>
      </trkpt>
      <trkpt lat="42.2286910" lon="-8.7161720">
        <ele>106.5</ele>
        <time>2021-05-20T11:58:59Z</time>
      </trkpt>
      <trkpt lat="42.2287200" lon="-8.7161740">
        <ele>106.5</ele>
        <time>2021-05-20T11:59:00Z</time>
      </trkpt>
      <trkpt lat="42.2287530" lon="-8.7161640">
        <ele>106.5</ele>
        <time>2021-05-20T11:59:01Z</time>
      </trkpt>
      <trkpt lat="42.2287620" lon="-8.7161610">
        <ele>106.5</ele>
        <time>2021-05-20T11:59:02Z</time>
      </trkpt>
      <trkpt lat="42.2287960" lon="-8.7161510">
        <ele>106.5</ele>
        <time>2021-05-20T11:59:03Z</time>
      </trkpt>
      <trkpt lat="42.2288070" lon="-8.7161480">
        <ele>106.5</ele>
        <time>2021-05-20T11:59:04Z</time>
      </trkpt>
      <trkpt lat="42.2288360" lon="-8.7161380">
        <ele>106.5</ele>
        <time>2021-05-20T11:59:05Z</time>
      </trkpt>
      <trkpt lat="42.2288540" lon="-8.7161350">
        <ele>106.5</ele>
        <time>2021-05-20T11:59:06Z</time>
      </trkpt>
      <trkpt lat="42.2288440" lon="-8.7161330">
        <ele>106.5</ele>
        <time>2021-05-20T11:59:07Z</time>
      </trkpt>
      <trkpt lat="42.2288290" lon="-8.7161310">
        <ele>106.5</ele>
        <time>2021-05-20T11:59:08Z</time>
      </trkpt>
      <trkpt lat="42.2288230" lon="-8.7161290">
        <ele>106.5</ele>
        <time>2021-05-20T11:59:09Z</time>
      </trkpt>
      <trkpt lat="42.2288280" lon="-8.7161530">
        <ele>106.5</ele>
        <time>2021-05-20T11:59:10Z</time>
      </trkpt>
      <trkpt lat="42.2288410" lon="-8.7161640">
        <ele>106.5</ele>
        <time>2021-05-20T11:59:11Z</time>
      </trkpt>
      <trkpt lat="42.2288530" lon="-8.7161750">
        <ele>106.5</ele>
        <time>2021-05-20T11:59:12Z</time>
      </trkpt>
      <trkpt lat="42.2288890" lon="-8.7161850">
        <ele>106.5</ele>
        <time>2021-05-20T11:59:13Z</time>
      </trkpt>
      <trkpt lat="42.2289120" lon="-8.7161910">
        <ele>106.5</ele>
        <time>2021-05-20T11:59:14Z</time>
      </trkpt>
      <trkpt lat="42.2288810" lon="-8.7162020">
        <ele>106.5</ele>
        <time>2021-05-20T11:59:15Z</time>
      </trkpt>
      <trkpt lat="42.2288890" lon="-8.7162130">
        <ele>106.5</ele>
        <time>2021-05-20T11:59:16Z</time>
      </trkpt>
      <trkpt lat="42.2288800" lon="-8.7162030">
        <ele>106.5</ele>
        <time>2021-05-20T11:59:17Z</time>
      </trkpt>
      <trkpt lat="42.2288880" lon="-8.7162000">
        <ele>106.5</ele>
        <time>2021-05-20T11:59:18Z</time>
      </trkpt>
      <trkpt lat="42.2289090" lon="-8.7162020">
        <ele>106.5</ele>
        <time>2021-05-20T11:59:19Z</time>
      </trkpt>
      <trkpt lat="42.2289120" lon="-8.7162120">
        <ele>106.5</ele>
        <time>2021-05-20T11:59:20Z</time>
      </trkpt>
      <trkpt lat="42.2289160" lon="-8.7162210">
        <ele>106.5</ele>
        <time>2021-05-20T11:59:21Z</time>
      </trkpt>
      <trkpt lat="42.2289200" lon="-8.7162220">
        <ele>106.5</ele>
        <time>2021-05-20T11:59:22Z</time>
      </trkpt>
      <trkpt lat="42.2289190" lon="-8.7162470">
        <ele>106.5</ele>
        <time>2021-05-20T11:59:23Z</time>
      </trkpt>
      <trkpt lat="42.2289230" lon="-8.7162500">
        <ele>106.5</ele>
        <time>2021-05-20T11:59:24Z</time>
      </trkpt>
      <trkpt lat="42.2289360" lon="-8.7162520">
        <ele>106.5</ele>
        <time>2021-05-20T11:59:25Z</time>
      </trkpt>
      <trkpt lat="42.2289300" lon="-8.7162540">
        <ele>106.5</ele>
        <time>2021-05-20T11:59:26Z</time>
      </trkpt>
      <trkpt lat="42.2289230" lon="-8.7162560">
        <ele>106.5</ele>
        <time>2021-05-20T11:59:27Z</time>
      </trkpt>
      <trkpt lat="42.2289300" lon="-8.7162520">
        <ele>106.5</ele>
        <time>2021-05-20T11:59:28Z</time>
      </trkpt>
      <trkpt lat="42.2289200" lon="-8.7162570">
        <ele>106.5</ele>
        <time>2021-05-20T11:59:29Z</time>
      </trkpt>
      <trkpt lat="42.2289290" lon="-8.7162560">
        <ele>106.5</ele>
        <time>2021-05-20T11:59:30Z</time>
      </trkpt>
      <trkpt lat="42.2289430" lon="-8.7162560">
        <ele>106.5</ele>
        <time>2021-05-20T11:59:31Z</time>
      </trkpt>
      <trkpt lat="42.2289420" lon="-8.7162540">
        <ele>106.5</ele>
        <time>2021-05-20T11:59:32Z</time>
      </trkpt>
      <trkpt lat="42.2289430" lon="-8.7162560">
        <ele>106.5</ele>
        <time>2021-05-20T11:59:33Z</time>
      </trkpt>
      <trkpt lat="42.2289420" lon="-8.7162570">
        <ele>106.5</ele>
        <time>2021-05-20T11:59:34Z</time>
      </trkpt>
      <trkpt lat="42.2289490" lon="-8.7162520">
        <ele>106.5</ele>
        <time>2021-05-20T11:59:35Z</time>
      </trkpt>
      <trkpt lat="42.2289540" lon="-8.7162500">
        <ele>106.5</ele>
        <time>2021-05-20T11:59:36Z</time>
      </trkpt>
      <trkpt lat="42.2289640" lon="-8.7162450">
        <ele>106.5</ele>
        <time>2021-05-20T11:59:37Z</time>
      </trkpt>
      <trkpt lat="42.2289710" lon="-8.7162480">
        <ele>106.5</ele>
        <time>2021-05-20T11:59:38Z</time>
      </trkpt>
      <trkpt lat="42.2289700" lon="-8.7162530">
        <ele>106.5</ele>
        <time>2021-05-20T11:59:39Z</time>
      </trkpt>
      <trkpt lat="42.2289720" lon="-8.7162500">
        <ele>106.5</ele>
        <time>2021-05-20T11:59:40Z</time>
      </trkpt>
      <trkpt lat="42.2289720" lon="-8.7162510">
        <ele>106.5</ele>
        <time>2021-05-20T11:59:41Z</time>
      </trkpt>
      <trkpt lat="42.2289760" lon="-8.7162450">
        <ele>106.5</ele>
        <time>2021-05-20T11:59:42Z</time>
      </trkpt>
      <trkpt lat="42.2289770" lon="-8.7162390">
        <ele>106.5</ele>
        <time>2021-05-20T11:59:43Z</time>
      </trkpt>
      <trkpt lat="42.2289690" lon="-8.7162270">
        <ele>106.5</ele>
        <time>2021-05-20T11:59:44Z</time>
      </trkpt>
      <trkpt lat="42.2289700" lon="-8.7162130">
        <ele>106.5</ele>
        <time>2021-05-20T11:59:45Z</time>
      </trkpt>
      <trkpt lat="42.2289710" lon="-8.7162140">
        <ele>106.5</ele>
        <time>2021-05-20T11:59:46Z</time>
      </trkpt>
      <trkpt lat="42.2289510" lon="-8.7162150">
        <ele>106.5</ele>
        <time>2021-05-20T11:59:47Z</time>
      </trkpt>
      <trkpt lat="42.2289490" lon="-8.7162180">
        <ele>106.5</ele>
        <time>2021-05-20T11:59:48Z</time>
      </trkpt>
      <trkpt lat="42.2289460" lon="-8.7162160">
        <ele>106.5</ele>
        <time>2021-05-20T11:59:49Z</time>
      </trkpt>
      <trkpt lat="42.2289400" lon="-8.7162020">
        <ele>106.5</ele>
        <time>2021-05-20T11:59:50Z</time>
      </trkpt>
      <trkpt lat="42.2289230" lon="-8.7161990">
        <ele>106.5</ele>
        <time>2021-05-20T11:59:51Z</time>
      </trkpt>
      <trkpt lat="42.2289110" lon="-8.7161870">
        <ele>106.5</ele>
        <time>2021-05-20T11:59:52Z</time>
      </trkpt>
      <trkpt lat="42.2289030" lon="-8.7161730">
        <ele>106.5</ele>
        <time>2021-05-20T11:59:53Z</time>
      </trkpt>
      <trkpt lat="42.2288940" lon="-8.7161580">
        <ele>106.5</ele>
        <time>2021-05-20T11:59:54Z</time>
      </trkpt>
      <trkpt lat="42.2288750" lon="-8.7161420">
        <ele>106.5</ele>
        <time>2021-05-20T11:59:55Z</time>
      </trkpt>
      <trkpt lat="42.2288390" lon="-8.7161330">
        <ele>106.5</ele>
        <time>2021-05-20T11:59:56Z</time>
      </trkpt>
      <trkpt lat="42.2288040" lon="-8.7161230">
        <ele>106.5</ele>
        <time>2021-05-20T11:59:57Z</time>
      </trkpt>
      <trkpt lat="42.2287430" lon="-8.7161080">
        <ele>106.5</ele>
        <time>2021-05-20T11:59:58Z</time>
      </trkpt>
      <trkpt lat="42.2286920" lon="-8.7160880">
        <ele>106.5</ele>
        <time>2021-05-20T11:59:59Z</time>
      </trkpt>
      <trkpt lat="42.2286590" lon="-8.7160730">
        <ele>106.4</ele>
        <time>2021-05-20T12:00:00Z</time>
      </trkpt>
      <trkpt lat="42.2286320" lon="-8.7160740">
        <ele>106.4</ele>
        <time>2021-05-20T12:00:01Z</time>
      </trkpt>
      <trkpt lat="42.2286180" lon="-8.7160720">
        <ele>104.9</ele>
        <time>2021-05-20T12:00:02Z</time>
      </trkpt>
      <trkpt lat="42.2286050" lon="-8.7160730">
        <ele>104.9</ele>
        <time>2021-05-20T12:00:03Z</time>
      </trkpt>
      <trkpt lat="42.2285910" lon="-8.7160690">
        <ele>104.9</ele>
        <time>2021-05-20T12:00:04Z</time>
      </trkpt>
      <trkpt lat="42.2285800" lon="-8.7160660">
        <ele>104.9</ele>
        <time>2021-05-20T12:00:05Z</time>
      </trkpt>
      <trkpt lat="42.2285640" lon="-8.7160650">
        <ele>105.0</ele>
        <time>2021-05-20T12:00:06Z</time>
      </trkpt>
      <trkpt lat="42.2285550" lon="-8.7160620">
        <ele>105.0</ele>
        <time>2021-05-20T12:00:07Z</time>
      </trkpt>
      <trkpt lat="42.2285460" lon="-8.7160650">
        <ele>105.0</ele>
        <time>2021-05-20T12:00:08Z</time>
      </trkpt>
      <trkpt lat="42.2285380" lon="-8.7160650">
        <ele>105.0</ele>
        <time>2021-05-20T12:00:09Z</time>
      </trkpt>
      <trkpt lat="42.2285300" lon="-8.7160550">
        <ele>105.0</ele>
        <time>2021-05-20T12:00:10Z</time>
      </trkpt>
      <trkpt lat="42.2285250" lon="-8.7160460">
        <ele>105.0</ele>
        <time>2021-05-20T12:00:11Z</time>
      </trkpt>
      <trkpt lat="42.2285200" lon="-8.7160490">
        <ele>105.0</ele>
        <time>2021-05-20T12:00:12Z</time>
      </trkpt>
      <trkpt lat="42.2285190" lon="-8.7160450">
        <ele>105.0</ele>
        <time>2021-05-20T12:00:13Z</time>
      </trkpt>
      <trkpt lat="42.2285190" lon="-8.7160370">
        <ele>105.0</ele>
        <time>2021-05-20T12:00:14Z</time>
      </trkpt>
      <trkpt lat="42.2285210" lon="-8.7160300">
        <ele>105.0</ele>
        <time>2021-05-20T12:00:15Z</time>
      </trkpt>
      <trkpt lat="42.2285220" lon="-8.7160260">
        <ele>105.0</ele>
        <time>2021-05-20T12:00:16Z</time>
      </trkpt>
      <trkpt lat="42.2285210" lon="-8.7160250">
        <ele>105.0</ele>
        <time>2021-05-20T12:00:17Z</time>
      </trkpt>
      <trkpt lat="42.2285300" lon="-8.7160100">
        <ele>105.1</ele>
        <time>2021-05-20T12:00:18Z</time>
      </trkpt>
      <trkpt lat="42.2285290" lon="-8.7160080">
        <ele>105.1</ele>
        <time>2021-05-20T12:00:19Z</time>
      </trkpt>
      <trkpt lat="42.2285210" lon="-8.7160130">
        <ele>105.1</ele>
        <time>2021-05-20T12:00:20Z</time>
      </trkpt>
      <trkpt lat="42.2285210" lon="-8.7160100">
        <ele>105.2</ele>
        <time>2021-05-20T12:00:21Z</time>
      </trkpt>
      <trkpt lat="42.2285130" lon="-8.7160170">
        <ele>105.2</ele>
        <time>2021-05-20T12:00:22Z</time>
      </trkpt>
      <trkpt lat="42.2285080" lon="-8.7160160">
        <ele>105.2</ele>
        <time>2021-05-20T12:00:23Z</time>
      </trkpt>
      <trkpt lat="42.2285000" lon="-8.7160190">
        <ele>105.3</ele>
        <time>2021-05-20T12:00:24Z</time>
      </trkpt>
      <trkpt lat="42.2285000" lon="-8.7160090">
        <ele>105.3</ele>
        <time>2021-05-20T12:00:25Z</time>
      </trkpt>
      <trkpt lat="42.2284920" lon="-8.7160080">
        <ele>105.4</ele>
        <time>2021-05-20T12:00:26Z</time>
      </trkpt>
      <trkpt lat="42.2284910" lon="-8.7160070">
        <ele>105.4</ele>
        <time>2021-05-20T12:00:27Z</time>
      </trkpt>
      <trkpt lat="42.2284930" lon="-8.7160050">
        <ele>105.4</ele>
        <time>2021-05-20T12:00:28Z</time>
      </trkpt>
      <trkpt lat="42.2284870" lon="-8.7160090">
        <ele>105.4</ele>
        <time>2021-05-20T12:00:29Z</time>
      </trkpt>
      <trkpt lat="42.2284870" lon="-8.7160110">
        <ele>105.4</ele>
        <time>2021-05-20T12:00:30Z</time>
      </trkpt>
      <trkpt lat="42.2284920" lon="-8.7160090">
        <ele>105.4</ele>
        <time>2021-05-20T12:00:31Z</time>
      </trkpt>
      <trkpt lat="42.2284910" lon="-8.7160120">
        <ele>105.5</ele>
        <time>2021-05-20T12:00:32Z</time>
      </trkpt>
      <trkpt lat="42.2284980" lon="-8.7160040">
        <ele>105.5</ele>
        <time>2021-05-20T12:00:33Z</time>
      </trkpt>
      <trkpt lat="42.2285080" lon="-8.7159910">
        <ele>105.6</ele>
        <time>2021-05-20T12:00:34Z</time>
      </trkpt>
      <trkpt lat="42.2285100" lon="-8.7159780">
        <ele>105.6</ele>
        <time>2021-05-20T12:00:35Z</time>
      </trkpt>
      <trkpt lat="42.2285180" lon="-8.7159740">
        <ele>105.7</ele>
        <time>2021-05-20T12:00:36Z</time>
      </trkpt>
      <trkpt lat="42.2285250" lon="-8.7159680">
        <ele>105.7</ele>
        <time>2021-05-20T12:00:37Z</time>
      </trkpt>
      <trkpt lat="42.2285160" lon="-8.7159720">
        <ele>105.8</ele>
        <time>2021-05-20T12:00:38Z</time>
      </trkpt>
      <trkpt lat="42.2285040" lon="-8.7159830">
        <ele>105.8</ele>
        <time>2021-05-20T12:00:39Z</time>
      </trkpt>
      <trkpt lat="42.2284970" lon="-8.7159880">
        <ele>105.9</ele>
        <time>2021-05-20T12:00:40Z</time>
      </trkpt>
      <trkpt lat="42.2284900" lon="-8.7159920">
        <ele>105.9</ele>
        <time>2021-05-20T12:00:41Z</time>
      </trkpt>
      <trkpt lat="42.2284900" lon="-8.7159950">
        <ele>105.9</ele>
        <time>2021-05-20T12:00:42Z</time>
      </trkpt>
      <trkpt lat="42.2284900" lon="-8.7159940">
        <ele>105.9</ele>
        <time>2021-05-20T12:00:43Z</time>
      </trkpt>
      <trkpt lat="42.2284930" lon="-8.7159950">
        <ele>106.0</ele>
        <time>2021-05-20T12:00:44Z</time>
      </trkpt>
      <trkpt lat="42.2284860" lon="-8.7160030">
        <ele>106.0</ele>
        <time>2021-05-20T12:00:45Z</time>
      </trkpt>
      <trkpt lat="42.2284870" lon="-8.7159970">
        <ele>106.0</ele>
        <time>2021-05-20T12:00:46Z</time>
      </trkpt>
      <trkpt lat="42.2284790" lon="-8.7160000">
        <ele>106.1</ele>
        <time>2021-05-20T12:00:47Z</time>
      </trkpt>
      <trkpt lat="42.2284770" lon="-8.7160030">
        <ele>106.1</ele>
        <time>2021-05-20T12:00:48Z</time>
      </trkpt>
      <trkpt lat="42.2284670" lon="-8.7160040">
        <ele>106.2</ele>
        <time>2021-05-20T12:00:49Z</time>
      </trkpt>
      <trkpt lat="42.2284670" lon="-8.7159950">
        <ele>106.2</ele>
        <time>2021-05-20T12:00:50Z</time>
      </trkpt>
      <trkpt lat="42.2284650" lon="-8.7159880">
        <ele>106.2</ele>
        <time>2021-05-20T12:00:51Z</time>
      </trkpt>
      <trkpt lat="42.2284600" lon="-8.7159790">
        <ele>106.3</ele>
        <time>2021-05-20T12:00:52Z</time>
      </trkpt>
      <trkpt lat="42.2284550" lon="-8.7159610">
        <ele>106.4</ele>
        <time>2021-05-20T12:00:53Z</time>
      </trkpt>
      <trkpt lat="42.2284530" lon="-8.7159470">
        <ele>106.4</ele>
        <time>2021-05-20T12:00:54Z</time>
      </trkpt>
      <trkpt lat="42.2284510" lon="-8.7159320">
        <ele>106.5</ele>
        <time>2021-05-20T12:00:55Z</time>
      </trkpt>
      <trkpt lat="42.2284490" lon="-8.7159180">
        <ele>106.6</ele>
        <time>2021-05-20T12:00:56Z</time>
      </trkpt>
      <trkpt lat="42.2284520" lon="-8.7158800">
        <ele>106.7</ele>
        <time>2021-05-20T12:00:57Z</time>
      </trkpt>
      <trkpt lat="42.2284520" lon="-8.7158600">
        <ele>106.8</ele>
        <time>2021-05-20T12:00:58Z</time>
      </trkpt>
      <trkpt lat="42.2284510" lon="-8.7158400">
        <ele>106.9</ele>
        <time>2021-05-20T12:00:59Z</time>
      </trkpt>
      <trkpt lat="42.2284510" lon="-8.7158250">
        <ele>107.0</ele>
        <time>2021-05-20T12:01:00Z</time>
      </trkpt>
      <trkpt lat="42.2284530" lon="-8.7158150">
        <ele>107.1</ele>
        <time>2021-05-20T12:01:01Z</time>
      </trkpt>
      <trkpt lat="42.2284560" lon="-8.7158060">
        <ele>107.1</ele>
        <time>2021-05-20T12:01:02Z</time>
      </trkpt>
      <trkpt lat="42.2284610" lon="-8.7157850">
        <ele>107.3</ele>
        <time>2021-05-20T12:01:03Z</time>
      </trkpt>
      <trkpt lat="42.2284610" lon="-8.7157720">
        <ele>107.3</ele>
        <time>2021-05-20T12:01:04Z</time>
      </trkpt>
      <trkpt lat="42.2284640" lon="-8.7157580">
        <ele>107.4</ele>
        <time>2021-05-20T12:01:05Z</time>
      </trkpt>
      <trkpt lat="42.2284620" lon="-8.7157420">
        <ele>107.5</ele>
        <time>2021-05-20T12:01:06Z</time>
      </trkpt>
      <trkpt lat="42.2284600" lon="-8.7157310">
        <ele>107.6</ele>
        <time>2021-05-20T12:01:07Z</time>
      </trkpt>
      <trkpt lat="42.2284590" lon="-8.7157220">
        <ele>107.6</ele>
        <time>2021-05-20T12:01:08Z</time>
      </trkpt>
      <trkpt lat="42.2284600" lon="-8.7156980">
        <ele>107.8</ele>
        <time>2021-05-20T12:01:09Z</time>
      </trkpt>
      <trkpt lat="42.2284570" lon="-8.7156840">
        <ele>107.9</ele>
        <time>2021-05-20T12:01:10Z</time>
      </trkpt>
      <trkpt lat="42.2284460" lon="-8.7156910">
        <ele>108.0</ele>
        <time>2021-05-20T12:01:11Z</time>
      </trkpt>
      <trkpt lat="42.2284380" lon="-8.7157000">
        <ele>108.1</ele>
        <time>2021-05-20T12:01:12Z</time>
      </trkpt>
      <trkpt lat="42.2284330" lon="-8.7157010">
        <ele>108.1</ele>
        <time>2021-05-20T12:01:13Z</time>
      </trkpt>
      <trkpt lat="42.2284250" lon="-8.7156940">
        <ele>108.2</ele>
        <time>2021-05-20T12:01:15Z</time>
      </trkpt>
      <trkpt lat="42.2284180" lon="-8.7156930">
        <ele>108.2</ele>
        <time>2021-05-20T12:01:16Z</time>
      </trkpt>
      <trkpt lat="42.2284150" lon="-8.7156770">
        <ele>108.3</ele>
        <time>2021-05-20T12:01:17Z</time>
      </trkpt>
      <trkpt lat="42.2284140" lon="-8.7156700">
        <ele>108.4</ele>
        <time>2021-05-20T12:01:18Z</time>
      </trkpt>
      <trkpt lat="42.2284070" lon="-8.7156690">
        <ele>108.5</ele>
        <time>2021-05-20T12:01:19Z</time>
      </trkpt>
      <trkpt lat="42.2284020" lon="-8.7156580">
        <ele>108.5</ele>
        <time>2021-05-20T12:01:20Z</time>
      </trkpt>
      <trkpt lat="42.2284040" lon="-8.7156450">
        <ele>108.6</ele>
        <time>2021-05-20T12:01:21Z</time>
      </trkpt>
      <trkpt lat="42.2284140" lon="-8.7156370">
        <ele>108.7</ele>
        <time>2021-05-20T12:01:22Z</time>
      </trkpt>
      <trkpt lat="42.2284110" lon="-8.7156340">
        <ele>108.8</ele>
        <time>2021-05-20T12:01:23Z</time>
      </trkpt>
      <trkpt lat="42.2283980" lon="-8.7156190">
        <ele>108.9</ele>
        <time>2021-05-20T12:01:24Z</time>
      </trkpt>
      <trkpt lat="42.2283910" lon="-8.7156060">
        <ele>109.0</ele>
        <time>2021-05-20T12:01:25Z</time>
      </trkpt>
      <trkpt lat="42.2283850" lon="-8.7155920">
        <ele>109.1</ele>
        <time>2021-05-20T12:01:26Z</time>
      </trkpt>
      <trkpt lat="42.2283780" lon="-8.7155790">
        <ele>109.2</ele>
        <time>2021-05-20T12:01:27Z</time>
      </trkpt>
      <trkpt lat="42.2283660" lon="-8.7155700">
        <ele>109.3</ele>
        <time>2021-05-20T12:01:28Z</time>
      </trkpt>
      <trkpt lat="42.2283560" lon="-8.7155440">
        <ele>109.5</ele>
        <time>2021-05-20T12:01:29Z</time>
      </trkpt>
      <trkpt lat="42.2283390" lon="-8.7155200">
        <ele>109.7</ele>
        <time>2021-05-20T12:01:30Z</time>
      </trkpt>
      <trkpt lat="42.2283310" lon="-8.7155070">
        <ele>109.8</ele>
        <time>2021-05-20T12:01:31Z</time>
      </trkpt>
      <trkpt lat="42.2283220" lon="-8.7154930">
        <ele>109.9</ele>
        <time>2021-05-20T12:01:32Z</time>
      </trkpt>
      <trkpt lat="42.2283240" lon="-8.7154530">
        <ele>110.1</ele>
        <time>2021-05-20T12:01:33Z</time>
      </trkpt>
      <trkpt lat="42.2283230" lon="-8.7154390">
        <ele>110.2</ele>
        <time>2021-05-20T12:01:34Z</time>
      </trkpt>
      <trkpt lat="42.2283260" lon="-8.7154180">
        <ele>110.3</ele>
        <time>2021-05-20T12:01:35Z</time>
      </trkpt>
      <trkpt lat="42.2283270" lon="-8.7154040">
        <ele>110.4</ele>
        <time>2021-05-20T12:01:36Z</time>
      </trkpt>
      <trkpt lat="42.2283290" lon="-8.7153950">
        <ele>110.4</ele>
        <time>2021-05-20T12:01:37Z</time>
      </trkpt>
      <trkpt lat="42.2283330" lon="-8.7153660">
        <ele>110.6</ele>
        <time>2021-05-20T12:01:38Z</time>
      </trkpt>
      <trkpt lat="42.2283380" lon="-8.7153480">
        <ele>110.7</ele>
        <time>2021-05-20T12:01:39Z</time>
      </trkpt>
      <trkpt lat="42.2283470" lon="-8.7153280">
        <ele>110.8</ele>
        <time>2021-05-20T12:01:40Z</time>
      </trkpt>
      <trkpt lat="42.2283500" lon="-8.7153190">
        <ele>110.9</ele>
        <time>2021-05-20T12:01:41Z</time>
      </trkpt>
      <trkpt lat="42.2283530" lon="-8.7153100">
        <ele>110.9</ele>
        <time>2021-05-20T12:01:42Z</time>
      </trkpt>
      <trkpt lat="42.2283560" lon="-8.7153010">
        <ele>111.0</ele>
        <time>2021-05-20T12:01:43Z</time>
      </trkpt>
      <trkpt lat="42.2283880" lon="-8.7152790">
        <ele>111.2</ele>
        <time>2021-05-20T12:01:44Z</time>
      </trkpt>
      <trkpt lat="42.2284100" lon="-8.7152470">
        <ele>111.4</ele>
        <time>2021-05-20T12:01:45Z</time>
      </trkpt>
      <trkpt lat="42.2284170" lon="-8.7152360">
        <ele>111.5</ele>
        <time>2021-05-20T12:01:46Z</time>
      </trkpt>
      <trkpt lat="42.2284340" lon="-8.7152120">
        <ele>111.6</ele>
        <time>2021-05-20T12:01:47Z</time>
      </trkpt>
      <trkpt lat="42.2284330" lon="-8.7151950">
        <ele>111.7</ele>
        <time>2021-05-20T12:01:48Z</time>
      </trkpt>
      <trkpt lat="42.2284250" lon="-8.7151790">
        <ele>111.8</ele>
        <time>2021-05-20T12:01:49Z</time>
      </trkpt>
      <trkpt lat="42.2284280" lon="-8.7151670">
        <ele>111.9</ele>
        <time>2021-05-20T12:01:50Z</time>
      </trkpt>
      <trkpt lat="42.2284300" lon="-8.7151540">
        <ele>111.9</ele>
        <time>2021-05-20T12:01:51Z</time>
      </trkpt>
      <trkpt lat="42.2284320" lon="-8.7151410">
        <ele>112.0</ele>
        <time>2021-05-20T12:01:52Z</time>
      </trkpt>
      <trkpt lat="42.2284290" lon="-8.7151190">
        <ele>112.1</ele>
        <time>2021-05-20T12:01:53Z</time>
      </trkpt>
      <trkpt lat="42.2284130" lon="-8.7151060">
        <ele>112.2</ele>
        <time>2021-05-20T12:01:54Z</time>
      </trkpt>
      <trkpt lat="42.2284010" lon="-8.7150910">
        <ele>112.3</ele>
        <time>2021-05-20T12:01:55Z</time>
      </trkpt>
      <trkpt lat="42.2283950" lon="-8.7150750">
        <ele>112.4</ele>
        <time>2021-05-20T12:01:56Z</time>
      </trkpt>
      <trkpt lat="42.2283780" lon="-8.7150590">
        <ele>112.6</ele>
        <time>2021-05-20T12:01:57Z</time>
      </trkpt>
      <trkpt lat="42.2283680" lon="-8.7150520">
        <ele>112.6</ele>
        <time>2021-05-20T12:01:58Z</time>
      </trkpt>
      <trkpt lat="42.2283650" lon="-8.7150430">
        <ele>112.7</ele>
        <time>2021-05-20T12:01:59Z</time>
      </trkpt>
      <trkpt lat="42.2283650" lon="-8.7150320">
        <ele>112.7</ele>
        <time>2021-05-20T12:02:00Z</time>
      </trkpt>
      <trkpt lat="42.2283660" lon="-8.7150070">
        <ele>112.9</ele>
        <time>2021-05-20T12:02:01Z</time>
      </trkpt>
      <trkpt lat="42.2283600" lon="-8.7149930">
        <ele>113.0</ele>
        <time>2021-05-20T12:02:02Z</time>
      </trkpt>
      <trkpt lat="42.2283590" lon="-8.7149700">
        <ele>113.1</ele>
        <time>2021-05-20T12:02:03Z</time>
      </trkpt>
      <trkpt lat="42.2283540" lon="-8.7149350">
        <ele>113.3</ele>
        <time>2021-05-20T12:02:04Z</time>
      </trkpt>
      <trkpt lat="42.2283490" lon="-8.7149210">
        <ele>113.3</ele>
        <time>2021-05-20T12:02:05Z</time>
      </trkpt>
      <trkpt lat="42.2283500" lon="-8.7149020">
        <ele>113.4</ele>
        <time>2021-05-20T12:02:06Z</time>
      </trkpt>
      <trkpt lat="42.2283570" lon="-8.7148770">
        <ele>113.6</ele>
        <time>2021-05-20T12:02:07Z</time>
      </trkpt>
      <trkpt lat="42.2283680" lon="-8.7148690">
        <ele>113.7</ele>
        <time>2021-05-20T12:02:08Z</time>
      </trkpt>
      <trkpt lat="42.2283710" lon="-8.7148680">
        <ele>113.7</ele>
        <time>2021-05-20T12:02:09Z</time>
      </trkpt>
      <trkpt lat="42.2283740" lon="-8.7148550">
        <ele>113.8</ele>
        <time>2021-05-20T12:02:10Z</time>
      </trkpt>
      <trkpt lat="42.2283800" lon="-8.7148400">
        <ele>113.9</ele>
        <time>2021-05-20T12:02:11Z</time>
      </trkpt>
      <trkpt lat="42.2283780" lon="-8.7148330">
        <ele>113.9</ele>
        <time>2021-05-20T12:02:12Z</time>
      </trkpt>
      <trkpt lat="42.2283770" lon="-8.7148200">
        <ele>114.0</ele>
        <time>2021-05-20T12:02:13Z</time>
      </trkpt>
      <trkpt lat="42.2283820" lon="-8.7148070">
        <ele>114.0</ele>
        <time>2021-05-20T12:02:14Z</time>
      </trkpt>
      <trkpt lat="42.2283870" lon="-8.7147970">
        <ele>114.1</ele>
        <time>2021-05-20T12:02:15Z</time>
      </trkpt>
      <trkpt lat="42.2283830" lon="-8.7147830">
        <ele>114.2</ele>
        <time>2021-05-20T12:02:16Z</time>
      </trkpt>
      <trkpt lat="42.2283780" lon="-8.7147710">
        <ele>114.3</ele>
        <time>2021-05-20T12:02:17Z</time>
      </trkpt>
      <trkpt lat="42.2283750" lon="-8.7147540">
        <ele>114.3</ele>
        <time>2021-05-20T12:02:18Z</time>
      </trkpt>
      <trkpt lat="42.2283790" lon="-8.7147340">
        <ele>114.5</ele>
        <time>2021-05-20T12:02:19Z</time>
      </trkpt>
      <trkpt lat="42.2283800" lon="-8.7147260">
        <ele>114.5</ele>
        <time>2021-05-20T12:02:20Z</time>
      </trkpt>
      <trkpt lat="42.2283820" lon="-8.7147120">
        <ele>114.6</ele>
        <time>2021-05-20T12:02:21Z</time>
      </trkpt>
      <trkpt lat="42.2283820" lon="-8.7147070">
        <ele>114.6</ele>
        <time>2021-05-20T12:02:22Z</time>
      </trkpt>
      <trkpt lat="42.2283920" lon="-8.7146960">
        <ele>114.7</ele>
        <time>2021-05-20T12:02:23Z</time>
      </trkpt>
      <trkpt lat="42.2283880" lon="-8.7146850">
        <ele>114.7</ele>
        <time>2021-05-20T12:02:24Z</time>
      </trkpt>
      <trkpt lat="42.2283920" lon="-8.7146680">
        <ele>114.8</ele>
        <time>2021-05-20T12:02:25Z</time>
      </trkpt>
      <trkpt lat="42.2283940" lon="-8.7146620">
        <ele>114.9</ele>
        <time>2021-05-20T12:02:26Z</time>
      </trkpt>
      <trkpt lat="42.2283970" lon="-8.7146530">
        <ele>114.9</ele>
        <time>2021-05-20T12:02:27Z</time>
      </trkpt>
      <trkpt lat="42.2283990" lon="-8.7146470">
        <ele>114.9</ele>
        <time>2021-05-20T12:02:28Z</time>
      </trkpt>
      <trkpt lat="42.2284010" lon="-8.7146310">
        <ele>115.0</ele>
        <time>2021-05-20T12:02:29Z</time>
      </trkpt>
      <trkpt lat="42.2284090" lon="-8.7146180">
        <ele>115.1</ele>
        <time>2021-05-20T12:02:30Z</time>
      </trkpt>
      <trkpt lat="42.2284140" lon="-8.7145980">
        <ele>115.2</ele>
        <time>2021-05-20T12:02:31Z</time>
      </trkpt>
      <trkpt lat="42.2284170" lon="-8.7145860">
        <ele>115.3</ele>
        <time>2021-05-20T12:02:32Z</time>
      </trkpt>
      <trkpt lat="42.2284270" lon="-8.7145670">
        <ele>115.4</ele>
        <time>2021-05-20T12:02:33Z</time>
      </trkpt>
      <trkpt lat="42.2284300" lon="-8.7145600">
        <ele>115.4</ele>
        <time>2021-05-20T12:02:34Z</time>
      </trkpt>
      <trkpt lat="42.2284370" lon="-8.7145380">
        <ele>115.6</ele>
        <time>2021-05-20T12:02:35Z</time>
      </trkpt>
      <trkpt lat="42.2284420" lon="-8.7145260">
        <ele>115.6</ele>
        <time>2021-05-20T12:02:36Z</time>
      </trkpt>
      <trkpt lat="42.2284560" lon="-8.7145110">
        <ele>115.8</ele>
        <time>2021-05-20T12:02:37Z</time>
      </trkpt>
      <trkpt lat="42.2284630" lon="-8.7144970">
        <ele>115.8</ele>
        <time>2021-05-20T12:02:38Z</time>
      </trkpt>
      <trkpt lat="42.2284730" lon="-8.7144760">
        <ele>116.0</ele>
        <time>2021-05-20T12:02:39Z</time>
      </trkpt>
      <trkpt lat="42.2284760" lon="-8.7144680">
        <ele>116.0</ele>
        <time>2021-05-20T12:02:40Z</time>
      </trkpt>
      <trkpt lat="42.2284800" lon="-8.7144590">
        <ele>116.1</ele>
        <time>2021-05-20T12:02:41Z</time>
      </trkpt>
      <trkpt lat="42.2284830" lon="-8.7144510">
        <ele>116.1</ele>
        <time>2021-05-20T12:02:42Z</time>
      </trkpt>
      <trkpt lat="42.2284810" lon="-8.7144430">
        <ele>116.2</ele>
        <time>2021-05-20T12:02:43Z</time>
      </trkpt>
      <trkpt lat="42.2284880" lon="-8.7144360">
        <ele>116.2</ele>
        <time>2021-05-20T12:02:44Z</time>
      </trkpt>
      <trkpt lat="42.2284790" lon="-8.7144210">
        <ele>116.3</ele>
        <time>2021-05-20T12:02:45Z</time>
      </trkpt>
      <trkpt lat="42.2284770" lon="-8.7144090">
        <ele>116.4</ele>
        <time>2021-05-20T12:02:46Z</time>
      </trkpt>
      <trkpt lat="42.2284690" lon="-8.7143980">
        <ele>116.4</ele>
        <time>2021-05-20T12:02:47Z</time>
      </trkpt>
      <trkpt lat="42.2284660" lon="-8.7143740">
        <ele>116.6</ele>
        <time>2021-05-20T12:02:48Z</time>
      </trkpt>
      <trkpt lat="42.2284620" lon="-8.7143670">
        <ele>116.6</ele>
        <time>2021-05-20T12:02:49Z</time>
      </trkpt>
      <trkpt lat="42.2284640" lon="-8.7143470">
        <ele>116.7</ele>
        <time>2021-05-20T12:02:50Z</time>
      </trkpt>
      <trkpt lat="42.2284560" lon="-8.7143380">
        <ele>116.8</ele>
        <time>2021-05-20T12:02:51Z</time>
      </trkpt>
      <trkpt lat="42.2284670" lon="-8.7143250">
        <ele>116.9</ele>
        <time>2021-05-20T12:02:52Z</time>
      </trkpt>
      <trkpt lat="42.2284660" lon="-8.7143160">
        <ele>116.9</ele>
        <time>2021-05-20T12:02:53Z</time>
      </trkpt>
      <trkpt lat="42.2284560" lon="-8.7142970">
        <ele>117.1</ele>
        <time>2021-05-20T12:02:54Z</time>
      </trkpt>
      <trkpt lat="42.2284530" lon="-8.7142620">
        <ele>117.2</ele>
        <time>2021-05-20T12:02:55Z</time>
      </trkpt>
      <trkpt lat="42.2284520" lon="-8.7142520">
        <ele>117.3</ele>
        <time>2021-05-20T12:02:56Z</time>
      </trkpt>
      <trkpt lat="42.2284500" lon="-8.7142420">
        <ele>117.3</ele>
        <time>2021-05-20T12:02:57Z</time>
      </trkpt>
      <trkpt lat="42.2284510" lon="-8.7142260">
        <ele>117.4</ele>
        <time>2021-05-20T12:02:58Z</time>
      </trkpt>
      <trkpt lat="42.2284550" lon="-8.7142130">
        <ele>117.5</ele>
        <time>2021-05-20T12:02:59Z</time>
      </trkpt>
      <trkpt lat="42.2284550" lon="-8.7141960">
        <ele>117.6</ele>
        <time>2021-05-20T12:03:00Z</time>
      </trkpt>
      <trkpt lat="42.2284630" lon="-8.7141710">
        <ele>117.7</ele>
        <time>2021-05-20T12:03:01Z</time>
      </trkpt>
      <trkpt lat="42.2284660" lon="-8.7141580">
        <ele>117.8</ele>
        <time>2021-05-20T12:03:02Z</time>
      </trkpt>
      <trkpt lat="42.2284690" lon="-8.7141460">
        <ele>117.8</ele>
        <time>2021-05-20T12:03:03Z</time>
      </trkpt>
      <trkpt lat="42.2284690" lon="-8.7141410">
        <ele>117.9</ele>
        <time>2021-05-20T12:03:04Z</time>
      </trkpt>
      <trkpt lat="42.2284610" lon="-8.7141260">
        <ele>118.0</ele>
        <time>2021-05-20T12:03:05Z</time>
      </trkpt>
      <trkpt lat="42.2284700" lon="-8.7141020">
        <ele>118.1</ele>
        <time>2021-05-20T12:03:06Z</time>
      </trkpt>
      <trkpt lat="42.2284710" lon="-8.7140830">
        <ele>118.2</ele>
        <time>2021-05-20T12:03:07Z</time>
      </trkpt>
      <trkpt lat="42.2284720" lon="-8.7140710">
        <ele>118.2</ele>
        <time>2021-05-20T12:03:08Z</time>
      </trkpt>
      <trkpt lat="42.2284800" lon="-8.7140640">
        <ele>118.3</ele>
        <time>2021-05-20T12:03:09Z</time>
      </trkpt>
      <trkpt lat="42.2284760" lon="-8.7140520">
        <ele>118.4</ele>
        <time>2021-05-20T12:03:10Z</time>
      </trkpt>
      <trkpt lat="42.2284720" lon="-8.7140440">
        <ele>118.4</ele>
        <time>2021-05-20T12:03:11Z</time>
      </trkpt>
      <trkpt lat="42.2284750" lon="-8.7140260">
        <ele>118.5</ele>
        <time>2021-05-20T12:03:12Z</time>
      </trkpt>
      <trkpt lat="42.2284770" lon="-8.7139980">
        <ele>118.6</ele>
        <time>2021-05-20T12:03:13Z</time>
      </trkpt>
      <trkpt lat="42.2284800" lon="-8.7139870">
        <ele>118.7</ele>
        <time>2021-05-20T12:03:14Z</time>
      </trkpt>
      <trkpt lat="42.2284820" lon="-8.7139760">
        <ele>118.7</ele>
        <time>2021-05-20T12:03:15Z</time>
      </trkpt>
      <trkpt lat="42.2284820" lon="-8.7139540">
        <ele>118.8</ele>
        <time>2021-05-20T12:03:16Z</time>
      </trkpt>
      <trkpt lat="42.2284970" lon="-8.7139410">
        <ele>118.9</ele>
        <time>2021-05-20T12:03:17Z</time>
      </trkpt>
      <trkpt lat="42.2284940" lon="-8.7139170">
        <ele>119.1</ele>
        <time>2021-05-20T12:03:18Z</time>
      </trkpt>
      <trkpt lat="42.2284970" lon="-8.7139040">
        <ele>119.1</ele>
        <time>2021-05-20T12:03:19Z</time>
      </trkpt>
      <trkpt lat="42.2285010" lon="-8.7138920">
        <ele>119.2</ele>
        <time>2021-05-20T12:03:20Z</time>
      </trkpt>
      <trkpt lat="42.2285080" lon="-8.7138720">
        <ele>119.3</ele>
        <time>2021-05-20T12:03:21Z</time>
      </trkpt>
      <trkpt lat="42.2285110" lon="-8.7138610">
        <ele>119.3</ele>
        <time>2021-05-20T12:03:22Z</time>
      </trkpt>
      <trkpt lat="42.2285090" lon="-8.7138510">
        <ele>119.4</ele>
        <time>2021-05-20T12:03:23Z</time>
      </trkpt>
      <trkpt lat="42.2285180" lon="-8.7138370">
        <ele>119.4</ele>
        <time>2021-05-20T12:03:24Z</time>
      </trkpt>
      <trkpt lat="42.2285200" lon="-8.7138210">
        <ele>119.5</ele>
        <time>2021-05-20T12:03:25Z</time>
      </trkpt>
      <trkpt lat="42.2285290" lon="-8.7138210">
        <ele>119.6</ele>
        <time>2021-05-20T12:03:26Z</time>
      </trkpt>
      <trkpt lat="42.2285190" lon="-8.7138060">
        <ele>119.6</ele>
        <time>2021-05-20T12:03:27Z</time>
      </trkpt>
      <trkpt lat="42.2285080" lon="-8.7137910">
        <ele>119.7</ele>
        <time>2021-05-20T12:03:28Z</time>
      </trkpt>
      <trkpt lat="42.2285020" lon="-8.7137690">
        <ele>119.8</ele>
        <time>2021-05-20T12:03:29Z</time>
      </trkpt>
      <trkpt lat="42.2285120" lon="-8.7137510">
        <ele>119.9</ele>
        <time>2021-05-20T12:03:30Z</time>
      </trkpt>
      <trkpt lat="42.2285120" lon="-8.7137250">
        <ele>120.0</ele>
        <time>2021-05-20T12:03:31Z</time>
      </trkpt>
      <trkpt lat="42.2285110" lon="-8.7137110">
        <ele>120.1</ele>
        <time>2021-05-20T12:03:32Z</time>
      </trkpt>
      <trkpt lat="42.2285100" lon="-8.7136980">
        <ele>120.1</ele>
        <time>2021-05-20T12:03:33Z</time>
      </trkpt>
      <trkpt lat="42.2285250" lon="-8.7136790">
        <ele>120.2</ele>
        <time>2021-05-20T12:03:34Z</time>
      </trkpt>
      <trkpt lat="42.2285160" lon="-8.7136630">
        <ele>120.3</ele>
        <time>2021-05-20T12:03:35Z</time>
      </trkpt>
      <trkpt lat="42.2285170" lon="-8.7136500">
        <ele>120.3</ele>
        <time>2021-05-20T12:03:36Z</time>
      </trkpt>
      <trkpt lat="42.2285060" lon="-8.7136380">
        <ele>120.3</ele>
        <time>2021-05-20T12:03:37Z</time>
      </trkpt>
      <trkpt lat="42.2285030" lon="-8.7136210">
        <ele>120.3</ele>
        <time>2021-05-20T12:03:38Z</time>
      </trkpt>
      <trkpt lat="42.2285070" lon="-8.7136070">
        <ele>120.3</ele>
        <time>2021-05-20T12:03:39Z</time>
      </trkpt>
      <trkpt lat="42.2285090" lon="-8.7135940">
        <ele>120.3</ele>
        <time>2021-05-20T12:03:40Z</time>
      </trkpt>
      <trkpt lat="42.2285120" lon="-8.7135820">
        <ele>120.3</ele>
        <time>2021-05-20T12:03:41Z</time>
      </trkpt>
      <trkpt lat="42.2285120" lon="-8.7135630">
        <ele>120.3</ele>
        <time>2021-05-20T12:03:42Z</time>
      </trkpt>
      <trkpt lat="42.2285130" lon="-8.7135270">
        <ele>120.4</ele>
        <time>2021-05-20T12:03:43Z</time>
      </trkpt>
      <trkpt lat="42.2285130" lon="-8.7135160">
        <ele>120.4</ele>
        <time>2021-05-20T12:03:44Z</time>
      </trkpt>
      <trkpt lat="42.2285130" lon="-8.7135060">
        <ele>120.4</ele>
        <time>2021-05-20T12:03:45Z</time>
      </trkpt>
      <trkpt lat="42.2285170" lon="-8.7134890">
        <ele>120.4</ele>
        <time>2021-05-20T12:03:46Z</time>
      </trkpt>
      <trkpt lat="42.2285190" lon="-8.7134810">
        <ele>120.4</ele>
        <time>2021-05-20T12:03:47Z</time>
      </trkpt>
      <trkpt lat="42.2285210" lon="-8.7134620">
        <ele>120.4</ele>
        <time>2021-05-20T12:03:48Z</time>
      </trkpt>
      <trkpt lat="42.2285230" lon="-8.7134490">
        <ele>120.4</ele>
        <time>2021-05-20T12:03:49Z</time>
      </trkpt>
      <trkpt lat="42.2285350" lon="-8.7134280">
        <ele>120.4</ele>
        <time>2021-05-20T12:03:50Z</time>
      </trkpt>
      <trkpt lat="42.2285270" lon="-8.7133890">
        <ele>120.5</ele>
        <time>2021-05-20T12:03:51Z</time>
      </trkpt>
      <trkpt lat="42.2285240" lon="-8.7133720">
        <ele>120.5</ele>
        <time>2021-05-20T12:03:52Z</time>
      </trkpt>
      <trkpt lat="42.2285210" lon="-8.7133480">
        <ele>120.5</ele>
        <time>2021-05-20T12:03:53Z</time>
      </trkpt>
      <trkpt lat="42.2285180" lon="-8.7133310">
        <ele>120.5</ele>
        <time>2021-05-20T12:03:54Z</time>
      </trkpt>
      <trkpt lat="42.2285170" lon="-8.7133090">
        <ele>120.5</ele>
        <time>2021-05-20T12:03:55Z</time>
      </trkpt>
      <trkpt lat="42.2285180" lon="-8.7132940">
        <ele>120.5</ele>
        <time>2021-05-20T12:03:56Z</time>
      </trkpt>
      <trkpt lat="42.2285230" lon="-8.7132740">
        <ele>120.5</ele>
        <time>2021-05-20T12:03:57Z</time>
      </trkpt>
      <trkpt lat="42.2285250" lon="-8.7132540">
        <ele>120.5</ele>
        <time>2021-05-20T12:03:58Z</time>
      </trkpt>
      <trkpt lat="42.2285270" lon="-8.7132390">
        <ele>120.5</ele>
        <time>2021-05-20T12:03:59Z</time>
      </trkpt>
      <trkpt lat="42.2285270" lon="-8.7132270">
        <ele>120.5</ele>
        <time>2021-05-20T12:04:00Z</time>
      </trkpt>
      <trkpt lat="42.2285300" lon="-8.7132100">
        <ele>120.5</ele>
        <time>2021-05-20T12:04:01Z</time>
      </trkpt>
      <trkpt lat="42.2285320" lon="-8.7131890">
        <ele>120.5</ele>
        <time>2021-05-20T12:04:02Z</time>
      </trkpt>
      <trkpt lat="42.2285310" lon="-8.7131790">
        <ele>120.5</ele>
        <time>2021-05-20T12:04:03Z</time>
      </trkpt>
      <trkpt lat="42.2285310" lon="-8.7131700">
        <ele>120.5</ele>
        <time>2021-05-20T12:04:04Z</time>
      </trkpt>
      <trkpt lat="42.2285300" lon="-8.7131610">
        <ele>120.5</ele>
        <time>2021-05-20T12:04:05Z</time>
      </trkpt>
      <trkpt lat="42.2285230" lon="-8.7131540">
        <ele>120.5</ele>
        <time>2021-05-20T12:04:06Z</time>
      </trkpt>
      <trkpt lat="42.2285240" lon="-8.7131370">
        <ele>120.5</ele>
        <time>2021-05-20T12:04:07Z</time>
      </trkpt>
      <trkpt lat="42.2285230" lon="-8.7131210">
        <ele>120.5</ele>
        <time>2021-05-20T12:04:08Z</time>
      </trkpt>
      <trkpt lat="42.2285250" lon="-8.7131040">
        <ele>120.5</ele>
        <time>2021-05-20T12:04:09Z</time>
      </trkpt>
      <trkpt lat="42.2285240" lon="-8.7130900">
        <ele>120.5</ele>
        <time>2021-05-20T12:04:10Z</time>
      </trkpt>
      <trkpt lat="42.2285250" lon="-8.7130880">
        <ele>120.5</ele>
        <time>2021-05-20T12:04:11Z</time>
      </trkpt>
      <trkpt lat="42.2285260" lon="-8.7130750">
        <ele>120.5</ele>
        <time>2021-05-20T12:04:12Z</time>
      </trkpt>
      <trkpt lat="42.2285200" lon="-8.7130600">
        <ele>120.6</ele>
        <time>2021-05-20T12:04:13Z</time>
      </trkpt>
      <trkpt lat="42.2285150" lon="-8.7130400">
        <ele>120.5</ele>
        <time>2021-05-20T12:04:14Z</time>
      </trkpt>
      <trkpt lat="42.2285120" lon="-8.7130300">
        <ele>120.5</ele>
        <time>2021-05-20T12:04:15Z</time>
      </trkpt>
      <trkpt lat="42.2285190" lon="-8.7130140">
        <ele>120.5</ele>
        <time>2021-05-20T12:04:16Z</time>
      </trkpt>
      <trkpt lat="42.2285400" lon="-8.7130040">
        <ele>120.5</ele>
        <time>2021-05-20T12:04:17Z</time>
      </trkpt>
      <trkpt lat="42.2285540" lon="-8.7129840">
        <ele>120.5</ele>
        <time>2021-05-20T12:04:18Z</time>
      </trkpt>
      <trkpt lat="42.2285640" lon="-8.7129750">
        <ele>120.5</ele>
        <time>2021-05-20T12:04:19Z</time>
      </trkpt>
      <trkpt lat="42.2285740" lon="-8.7129650">
        <ele>120.5</ele>
        <time>2021-05-20T12:04:20Z</time>
      </trkpt>
      <trkpt lat="42.2285880" lon="-8.7129520">
        <ele>120.4</ele>
        <time>2021-05-20T12:04:21Z</time>
      </trkpt>
      <trkpt lat="42.2285990" lon="-8.7129500">
        <ele>120.4</ele>
        <time>2021-05-20T12:04:22Z</time>
      </trkpt>
      <trkpt lat="42.2286100" lon="-8.7129480">
        <ele>120.4</ele>
        <time>2021-05-20T12:04:23Z</time>
      </trkpt>
      <trkpt lat="42.2286380" lon="-8.7129330">
        <ele>120.4</ele>
        <time>2021-05-20T12:04:24Z</time>
      </trkpt>
      <trkpt lat="42.2286450" lon="-8.7129280">
        <ele>120.4</ele>
        <time>2021-05-20T12:04:25Z</time>
      </trkpt>
      <trkpt lat="42.2286610" lon="-8.7129100">
        <ele>120.3</ele>
        <time>2021-05-20T12:04:26Z</time>
      </trkpt>
      <trkpt lat="42.2286670" lon="-8.7129000">
        <ele>120.3</ele>
        <time>2021-05-20T12:04:27Z</time>
      </trkpt>
      <trkpt lat="42.2286730" lon="-8.7128890">
        <ele>120.3</ele>
        <time>2021-05-20T12:04:28Z</time>
      </trkpt>
      <trkpt lat="42.2286790" lon="-8.7128660">
        <ele>120.3</ele>
        <time>2021-05-20T12:04:29Z</time>
      </trkpt>
      <trkpt lat="42.2286810" lon="-8.7128530">
        <ele>120.3</ele>
        <time>2021-05-20T12:04:30Z</time>
      </trkpt>
      <trkpt lat="42.2286830" lon="-8.7128410">
        <ele>120.2</ele>
        <time>2021-05-20T12:04:31Z</time>
      </trkpt>
      <trkpt lat="42.2286930" lon="-8.7128230">
        <ele>120.2</ele>
        <time>2021-05-20T12:04:32Z</time>
      </trkpt>
      <trkpt lat="42.2287040" lon="-8.7128060">
        <ele>120.2</ele>
        <time>2021-05-20T12:04:33Z</time>
      </trkpt>
      <trkpt lat="42.2287050" lon="-8.7127960">
        <ele>120.2</ele>
        <time>2021-05-20T12:04:34Z</time>
      </trkpt>
      <trkpt lat="42.2287190" lon="-8.7127860">
        <ele>120.2</ele>
        <time>2021-05-20T12:04:35Z</time>
      </trkpt>
      <trkpt lat="42.2287270" lon="-8.7127700">
        <ele>120.1</ele>
        <time>2021-05-20T12:04:36Z</time>
      </trkpt>
      <trkpt lat="42.2287340" lon="-8.7127540">
        <ele>120.1</ele>
        <time>2021-05-20T12:04:37Z</time>
      </trkpt>
      <trkpt lat="42.2287400" lon="-8.7127420">
        <ele>120.1</ele>
        <time>2021-05-20T12:04:38Z</time>
      </trkpt>
      <trkpt lat="42.2287410" lon="-8.7127260">
        <ele>120.1</ele>
        <time>2021-05-20T12:04:39Z</time>
      </trkpt>
      <trkpt lat="42.2287380" lon="-8.7126960">
        <ele>120.0</ele>
        <time>2021-05-20T12:04:40Z</time>
      </trkpt>
      <trkpt lat="42.2287350" lon="-8.7126800">
        <ele>120.0</ele>
        <time>2021-05-20T12:04:41Z</time>
      </trkpt>
      <trkpt lat="42.2287310" lon="-8.7126650">
        <ele>120.0</ele>
        <time>2021-05-20T12:04:42Z</time>
      </trkpt>
      <trkpt lat="42.2287230" lon="-8.7126480">
        <ele>119.9</ele>
        <time>2021-05-20T12:04:43Z</time>
      </trkpt>
      <trkpt lat="42.2287220" lon="-8.7126310">
        <ele>119.9</ele>
        <time>2021-05-20T12:04:44Z</time>
      </trkpt>
      <trkpt lat="42.2287150" lon="-8.7126220">
        <ele>119.9</ele>
        <time>2021-05-20T12:04:45Z</time>
      </trkpt>
      <trkpt lat="42.2287100" lon="-8.7125910">
        <ele>119.8</ele>
        <time>2021-05-20T12:04:46Z</time>
      </trkpt>
      <trkpt lat="42.2287060" lon="-8.7125850">
        <ele>119.8</ele>
        <time>2021-05-20T12:04:47Z</time>
      </trkpt>
      <trkpt lat="42.2287040" lon="-8.7125760">
        <ele>119.8</ele>
        <time>2021-05-20T12:04:48Z</time>
      </trkpt>
      <trkpt lat="42.2287000" lon="-8.7125540">
        <ele>119.7</ele>
        <time>2021-05-20T12:04:49Z</time>
      </trkpt>
      <trkpt lat="42.2287000" lon="-8.7125370">
        <ele>119.7</ele>
        <time>2021-05-20T12:04:50Z</time>
      </trkpt>
      <trkpt lat="42.2286990" lon="-8.7125200">
        <ele>119.7</ele>
        <time>2021-05-20T12:04:51Z</time>
      </trkpt>
      <trkpt lat="42.2286960" lon="-8.7125080">
        <ele>119.6</ele>
        <time>2021-05-20T12:04:52Z</time>
      </trkpt>
      <trkpt lat="42.2287020" lon="-8.7124900">
        <ele>119.6</ele>
        <time>2021-05-20T12:04:53Z</time>
      </trkpt>
      <trkpt lat="42.2287050" lon="-8.7124710">
        <ele>119.5</ele>
        <time>2021-05-20T12:04:54Z</time>
      </trkpt>
      <trkpt lat="42.2287040" lon="-8.7124450">
        <ele>119.5</ele>
        <time>2021-05-20T12:04:55Z</time>
      </trkpt>
      <trkpt lat="42.2287060" lon="-8.7124330">
        <ele>119.4</ele>
        <time>2021-05-20T12:04:56Z</time>
      </trkpt>
      <trkpt lat="42.2287080" lon="-8.7124200">
        <ele>119.4</ele>
        <time>2021-05-20T12:04:57Z</time>
      </trkpt>
      <trkpt lat="42.2287170" lon="-8.7124000">
        <ele>119.4</ele>
        <time>2021-05-20T12:04:58Z</time>
      </trkpt>
      <trkpt lat="42.2287150" lon="-8.7123930">
        <ele>119.3</ele>
        <time>2021-05-20T12:04:59Z</time>
      </trkpt>
      <trkpt lat="42.2287150" lon="-8.7123810">
        <ele>119.3</ele>
        <time>2021-05-20T12:05:00Z</time>
      </trkpt>
      <trkpt lat="42.2287120" lon="-8.7123700">
        <ele>119.3</ele>
        <time>2021-05-20T12:05:01Z</time>
      </trkpt>
      <trkpt lat="42.2287110" lon="-8.7123570">
        <ele>119.2</ele>
        <time>2021-05-20T12:05:02Z</time>
      </trkpt>
      <trkpt lat="42.2287090" lon="-8.7123470">
        <ele>119.2</ele>
        <time>2021-05-20T12:05:03Z</time>
      </trkpt>
      <trkpt lat="42.2287090" lon="-8.7123440">
        <ele>119.2</ele>
        <time>2021-05-20T12:05:04Z</time>
      </trkpt>
      <trkpt lat="42.2286990" lon="-8.7123270">
        <ele>119.2</ele>
        <time>2021-05-20T12:05:05Z</time>
      </trkpt>
      <trkpt lat="42.2286990" lon="-8.7123140">
        <ele>119.1</ele>
        <time>2021-05-20T12:05:06Z</time>
      </trkpt>
      <trkpt lat="42.2286980" lon="-8.7123000">
        <ele>119.1</ele>
        <time>2021-05-20T12:05:07Z</time>
      </trkpt>
      <trkpt lat="42.2286970" lon="-8.7122870">
        <ele>119.1</ele>
        <time>2021-05-20T12:05:08Z</time>
      </trkpt>
      <trkpt lat="42.2286930" lon="-8.7122790">
        <ele>119.0</ele>
        <time>2021-05-20T12:05:09Z</time>
      </trkpt>
      <trkpt lat="42.2286940" lon="-8.7122580">
        <ele>119.0</ele>
        <time>2021-05-20T12:05:10Z</time>
      </trkpt>
      <trkpt lat="42.2286910" lon="-8.7122400">
        <ele>119.0</ele>
        <time>2021-05-20T12:05:11Z</time>
      </trkpt>
      <trkpt lat="42.2286920" lon="-8.7122240">
        <ele>118.9</ele>
        <time>2021-05-20T12:05:12Z</time>
      </trkpt>
      <trkpt lat="42.2286940" lon="-8.7121970">
        <ele>118.9</ele>
        <time>2021-05-20T12:05:13Z</time>
      </trkpt>
      <trkpt lat="42.2287000" lon="-8.7121870">
        <ele>118.8</ele>
        <time>2021-05-20T12:05:14Z</time>
      </trkpt>
      <trkpt lat="42.2287020" lon="-8.7121680">
        <ele>118.8</ele>
        <time>2021-05-20T12:05:15Z</time>
      </trkpt>
      <trkpt lat="42.2286980" lon="-8.7121570">
        <ele>118.7</ele>
        <time>2021-05-20T12:05:16Z</time>
      </trkpt>
      <trkpt lat="42.2287070" lon="-8.7121380">
        <ele>118.6</ele>
        <time>2021-05-20T12:05:17Z</time>
      </trkpt>
      <trkpt lat="42.2287180" lon="-8.7121260">
        <ele>118.6</ele>
        <time>2021-05-20T12:05:18Z</time>
      </trkpt>
      <trkpt lat="42.2287290" lon="-8.7121140">
        <ele>118.5</ele>
        <time>2021-05-20T12:05:19Z</time>
      </trkpt>
      <trkpt lat="42.2287370" lon="-8.7121080">
        <ele>118.5</ele>
        <time>2021-05-20T12:05:20Z</time>
      </trkpt>
      <trkpt lat="42.2287400" lon="-8.7121000">
        <ele>118.4</ele>
        <time>2021-05-20T12:05:21Z</time>
      </trkpt>
      <trkpt lat="42.2287450" lon="-8.7120900">
        <ele>118.4</ele>
        <time>2021-05-20T12:05:22Z</time>
      </trkpt>
      <trkpt lat="42.2287480" lon="-8.7120820">
        <ele>118.4</ele>
        <time>2021-05-20T12:05:23Z</time>
      </trkpt>
      <trkpt lat="42.2287500" lon="-8.7120730">
        <ele>118.3</ele>
        <time>2021-05-20T12:05:24Z</time>
      </trkpt>
      <trkpt lat="42.2287560" lon="-8.7120600">
        <ele>118.3</ele>
        <time>2021-05-20T12:05:25Z</time>
      </trkpt>
      <trkpt lat="42.2287620" lon="-8.7120440">
        <ele>118.2</ele>
        <time>2021-05-20T12:05:26Z</time>
      </trkpt>
      <trkpt lat="42.2287690" lon="-8.7120370">
        <ele>118.2</ele>
        <time>2021-05-20T12:05:27Z</time>
      </trkpt>
      <trkpt lat="42.2287790" lon="-8.7120220">
        <ele>118.1</ele>
        <time>2021-05-20T12:05:28Z</time>
      </trkpt>
      <trkpt lat="42.2287800" lon="-8.7120120">
        <ele>118.0</ele>
        <time>2021-05-20T12:05:29Z</time>
      </trkpt>
      <trkpt lat="42.2287790" lon="-8.7119980">
        <ele>118.0</ele>
        <time>2021-05-20T12:05:30Z</time>
      </trkpt>
      <trkpt lat="42.2287840" lon="-8.7119790">
        <ele>117.9</ele>
        <time>2021-05-20T12:05:31Z</time>
      </trkpt>
      <trkpt lat="42.2287860" lon="-8.7119660">
        <ele>117.9</ele>
        <time>2021-05-20T12:05:32Z</time>
      </trkpt>
      <trkpt lat="42.2287920" lon="-8.7119610">
        <ele>117.8</ele>
        <time>2021-05-20T12:05:33Z</time>
      </trkpt>
      <trkpt lat="42.2287960" lon="-8.7119570">
        <ele>117.8</ele>
        <time>2021-05-20T12:05:34Z</time>
      </trkpt>
      <trkpt lat="42.2288040" lon="-8.7119360">
        <ele>117.7</ele>
        <time>2021-05-20T12:05:35Z</time>
      </trkpt>
      <trkpt lat="42.2288030" lon="-8.7119050">
        <ele>117.6</ele>
        <time>2021-05-20T12:05:36Z</time>
      </trkpt>
      <trkpt lat="42.2288040" lon="-8.7118920">
        <ele>117.6</ele>
        <time>2021-05-20T12:05:37Z</time>
      </trkpt>
      <trkpt lat="42.2288200" lon="-8.7118710">
        <ele>117.4</ele>
        <time>2021-05-20T12:05:38Z</time>
      </trkpt>
      <trkpt lat="42.2288240" lon="-8.7118590">
        <ele>117.4</ele>
        <time>2021-05-20T12:05:39Z</time>
      </trkpt>
      <trkpt lat="42.2288290" lon="-8.7118480">
        <ele>117.3</ele>
        <time>2021-05-20T12:05:40Z</time>
      </trkpt>
      <trkpt lat="42.2288450" lon="-8.7118390">
        <ele>117.2</ele>
        <time>2021-05-20T12:05:41Z</time>
      </trkpt>
      <trkpt lat="42.2288590" lon="-8.7118270">
        <ele>117.2</ele>
        <time>2021-05-20T12:05:42Z</time>
      </trkpt>
      <trkpt lat="42.2288860" lon="-8.7118030">
        <ele>117.0</ele>
        <time>2021-05-20T12:05:43Z</time>
      </trkpt>
      <trkpt lat="42.2288970" lon="-8.7118010">
        <ele>116.9</ele>
        <time>2021-05-20T12:05:44Z</time>
      </trkpt>
      <trkpt lat="42.2289110" lon="-8.7117780">
        <ele>116.8</ele>
        <time>2021-05-20T12:05:45Z</time>
      </trkpt>
      <trkpt lat="42.2289260" lon="-8.7117700">
        <ele>116.7</ele>
        <time>2021-05-20T12:05:46Z</time>
      </trkpt>
      <trkpt lat="42.2289400" lon="-8.7117580">
        <ele>116.6</ele>
        <time>2021-05-20T12:05:47Z</time>
      </trkpt>
      <trkpt lat="42.2289490" lon="-8.7117450">
        <ele>116.5</ele>
        <time>2021-05-20T12:05:48Z</time>
      </trkpt>
      <trkpt lat="42.2289700" lon="-8.7117260">
        <ele>116.4</ele>
        <time>2021-05-20T12:05:49Z</time>
      </trkpt>
      <trkpt lat="42.2289820" lon="-8.7117200">
        <ele>116.3</ele>
        <time>2021-05-20T12:05:50Z</time>
      </trkpt>
      <trkpt lat="42.2289880" lon="-8.7117100">
        <ele>116.3</ele>
        <time>2021-05-20T12:05:51Z</time>
      </trkpt>
      <trkpt lat="42.2290070" lon="-8.7116960">
        <ele>116.2</ele>
        <time>2021-05-20T12:05:52Z</time>
      </trkpt>
      <trkpt lat="42.2290150" lon="-8.7116750">
        <ele>116.1</ele>
        <time>2021-05-20T12:05:53Z</time>
      </trkpt>
      <trkpt lat="42.2290210" lon="-8.7116580">
        <ele>116.0</ele>
        <time>2021-05-20T12:05:54Z</time>
      </trkpt>
      <trkpt lat="42.2290130" lon="-8.7116280">
        <ele>115.9</ele>
        <time>2021-05-20T12:05:55Z</time>
      </trkpt>
      <trkpt lat="42.2290150" lon="-8.7116140">
        <ele>115.8</ele>
        <time>2021-05-20T12:05:56Z</time>
      </trkpt>
      <trkpt lat="42.2290340" lon="-8.7116020">
        <ele>115.7</ele>
        <time>2021-05-20T12:05:57Z</time>
      </trkpt>
      <trkpt lat="42.2290450" lon="-8.7115960">
        <ele>115.6</ele>
        <time>2021-05-20T12:05:58Z</time>
      </trkpt>
      <trkpt lat="42.2290560" lon="-8.7115900">
        <ele>115.6</ele>
        <time>2021-05-20T12:05:59Z</time>
      </trkpt>
      <trkpt lat="42.2290630" lon="-8.7115710">
        <ele>115.5</ele>
        <time>2021-05-20T12:06:00Z</time>
      </trkpt>
      <trkpt lat="42.2290650" lon="-8.7115640">
        <ele>115.5</ele>
        <time>2021-05-20T12:06:01Z</time>
      </trkpt>
      <trkpt lat="42.2290780" lon="-8.7115580">
        <ele>115.4</ele>
        <time>2021-05-20T12:06:02Z</time>
      </trkpt>
      <trkpt lat="42.2290890" lon="-8.7115430">
        <ele>115.3</ele>
        <time>2021-05-20T12:06:03Z</time>
      </trkpt>
      <trkpt lat="42.2290960" lon="-8.7115420">
        <ele>115.3</ele>
        <time>2021-05-20T12:06:04Z</time>
      </trkpt>
      <trkpt lat="42.2291030" lon="-8.7115270">
        <ele>115.2</ele>
        <time>2021-05-20T12:06:05Z</time>
      </trkpt>
      <trkpt lat="42.2291180" lon="-8.7115140">
        <ele>115.1</ele>
        <time>2021-05-20T12:06:06Z</time>
      </trkpt>
      <trkpt lat="42.2291260" lon="-8.7115070">
        <ele>115.1</ele>
        <time>2021-05-20T12:06:07Z</time>
      </trkpt>
      <trkpt lat="42.2291350" lon="-8.7115000">
        <ele>115.0</ele>
        <time>2021-05-20T12:06:08Z</time>
      </trkpt>
      <trkpt lat="42.2291500" lon="-8.7114760">
        <ele>114.9</ele>
        <time>2021-05-20T12:06:09Z</time>
      </trkpt>
      <trkpt lat="42.2291550" lon="-8.7114680">
        <ele>114.9</ele>
        <time>2021-05-20T12:06:10Z</time>
      </trkpt>
      <trkpt lat="42.2291610" lon="-8.7114610">
        <ele>114.9</ele>
        <time>2021-05-20T12:06:11Z</time>
      </trkpt>
      <trkpt lat="42.2291580" lon="-8.7114370">
        <ele>114.8</ele>
        <time>2021-05-20T12:06:12Z</time>
      </trkpt>
      <trkpt lat="42.2291710" lon="-8.7114250">
        <ele>114.7</ele>
        <time>2021-05-20T12:06:13Z</time>
      </trkpt>
      <trkpt lat="42.2291700" lon="-8.7114110">
        <ele>114.7</ele>
        <time>2021-05-20T12:06:14Z</time>
      </trkpt>
      <trkpt lat="42.2291650" lon="-8.7113980">
        <ele>114.6</ele>
        <time>2021-05-20T12:06:15Z</time>
      </trkpt>
      <trkpt lat="42.2291600" lon="-8.7113840">
        <ele>114.6</ele>
        <time>2021-05-20T12:06:16Z</time>
      </trkpt>
      <trkpt lat="42.2291560" lon="-8.7113630">
        <ele>114.5</ele>
        <time>2021-05-20T12:06:17Z</time>
      </trkpt>
      <trkpt lat="42.2291500" lon="-8.7113480">
        <ele>114.4</ele>
        <time>2021-05-20T12:06:18Z</time>
      </trkpt>
      <trkpt lat="42.2291540" lon="-8.7113350">
        <ele>114.4</ele>
        <time>2021-05-20T12:06:19Z</time>
      </trkpt>
      <trkpt lat="42.2291500" lon="-8.7113260">
        <ele>114.4</ele>
        <time>2021-05-20T12:06:20Z</time>
      </trkpt>
      <trkpt lat="42.2291490" lon="-8.7113110">
        <ele>114.3</ele>
        <time>2021-05-20T12:06:21Z</time>
      </trkpt>
      <trkpt lat="42.2291480" lon="-8.7112900">
        <ele>114.2</ele>
        <time>2021-05-20T12:06:22Z</time>
      </trkpt>
      <trkpt lat="42.2291470" lon="-8.7112700">
        <ele>114.2</ele>
        <time>2021-05-20T12:06:23Z</time>
      </trkpt>
      <trkpt lat="42.2291530" lon="-8.7112650">
        <ele>114.1</ele>
        <time>2021-05-20T12:06:24Z</time>
      </trkpt>
      <trkpt lat="42.2291580" lon="-8.7112420">
        <ele>114.1</ele>
        <time>2021-05-20T12:06:25Z</time>
      </trkpt>
      <trkpt lat="42.2291670" lon="-8.7112300">
        <ele>114.0</ele>
        <time>2021-05-20T12:06:26Z</time>
      </trkpt>
      <trkpt lat="42.2291880" lon="-8.7112020">
        <ele>113.9</ele>
        <time>2021-05-20T12:06:27Z</time>
      </trkpt>
      <trkpt lat="42.2291950" lon="-8.7111890">
        <ele>113.8</ele>
        <time>2021-05-20T12:06:28Z</time>
      </trkpt>
      <trkpt lat="42.2292070" lon="-8.7111760">
        <ele>113.7</ele>
        <time>2021-05-20T12:06:29Z</time>
      </trkpt>
      <trkpt lat="42.2292140" lon="-8.7111620">
        <ele>113.7</ele>
        <time>2021-05-20T12:06:30Z</time>
      </trkpt>
      <trkpt lat="42.2292190" lon="-8.7111390">
        <ele>113.6</ele>
        <time>2021-05-20T12:06:31Z</time>
      </trkpt>
      <trkpt lat="42.2292230" lon="-8.7111290">
        <ele>113.6</ele>
        <time>2021-05-20T12:06:32Z</time>
      </trkpt>
      <trkpt lat="42.2292260" lon="-8.7111180">
        <ele>113.5</ele>
        <time>2021-05-20T12:06:33Z</time>
      </trkpt>
      <trkpt lat="42.2292290" lon="-8.7111070">
        <ele>113.5</ele>
        <time>2021-05-20T12:06:34Z</time>
      </trkpt>
      <trkpt lat="42.2292250" lon="-8.7110840">
        <ele>113.4</ele>
        <time>2021-05-20T12:06:35Z</time>
      </trkpt>
      <trkpt lat="42.2292280" lon="-8.7110730">
        <ele>113.4</ele>
        <time>2021-05-20T12:06:36Z</time>
      </trkpt>
      <trkpt lat="42.2292300" lon="-8.7110650">
        <ele>113.3</ele>
        <time>2021-05-20T12:06:37Z</time>
      </trkpt>
      <trkpt lat="42.2292280" lon="-8.7110580">
        <ele>113.3</ele>
        <time>2021-05-20T12:06:38Z</time>
      </trkpt>
      <trkpt lat="42.2292270" lon="-8.7110430">
        <ele>113.2</ele>
        <time>2021-05-20T12:06:39Z</time>
      </trkpt>
      <trkpt lat="42.2292220" lon="-8.7110340">
        <ele>113.2</ele>
        <time>2021-05-20T12:06:40Z</time>
      </trkpt>
      <trkpt lat="42.2292190" lon="-8.7110220">
        <ele>113.2</ele>
        <time>2021-05-20T12:06:41Z</time>
      </trkpt>
      <trkpt lat="42.2292150" lon="-8.7110090">
        <ele>113.1</ele>
        <time>2021-05-20T12:06:42Z</time>
      </trkpt>
      <trkpt lat="42.2292140" lon="-8.7109960">
        <ele>113.1</ele>
        <time>2021-05-20T12:06:43Z</time>
      </trkpt>
      <trkpt lat="42.2292140" lon="-8.7109970">
        <ele>113.1</ele>
        <time>2021-05-20T12:06:44Z</time>
      </trkpt>
      <trkpt lat="42.2292170" lon="-8.7109850">
        <ele>113.0</ele>
        <time>2021-05-20T12:06:45Z</time>
      </trkpt>
      <trkpt lat="42.2292200" lon="-8.7109800">
        <ele>113.0</ele>
        <time>2021-05-20T12:06:46Z</time>
      </trkpt>
      <trkpt lat="42.2292180" lon="-8.7109660">
        <ele>112.9</ele>
        <time>2021-05-20T12:06:47Z</time>
      </trkpt>
      <trkpt lat="42.2292160" lon="-8.7109520">
        <ele>112.9</ele>
        <time>2021-05-20T12:06:48Z</time>
      </trkpt>
      <trkpt lat="42.2292160" lon="-8.7109380">
        <ele>112.8</ele>
        <time>2021-05-20T12:06:49Z</time>
      </trkpt>
      <trkpt lat="42.2292170" lon="-8.7109200">
        <ele>112.8</ele>
        <time>2021-05-20T12:06:50Z</time>
      </trkpt>
      <trkpt lat="42.2292120" lon="-8.7109080">
        <ele>112.7</ele>
        <time>2021-05-20T12:06:51Z</time>
      </trkpt>
      <trkpt lat="42.2292170" lon="-8.7108900">
        <ele>112.6</ele>
        <time>2021-05-20T12:06:52Z</time>
      </trkpt>
      <trkpt lat="42.2292230" lon="-8.7108760">
        <ele>112.6</ele>
        <time>2021-05-20T12:06:53Z</time>
      </trkpt>
      <trkpt lat="42.2292280" lon="-8.7108650">
        <ele>112.5</ele>
        <time>2021-05-20T12:06:54Z</time>
      </trkpt>
      <trkpt lat="42.2292250" lon="-8.7108460">
        <ele>112.4</ele>
        <time>2021-05-20T12:06:55Z</time>
      </trkpt>
      <trkpt lat="42.2292340" lon="-8.7108320">
        <ele>112.4</ele>
        <time>2021-05-20T12:06:56Z</time>
      </trkpt>
      <trkpt lat="42.2292440" lon="-8.7108230">
        <ele>112.3</ele>
        <time>2021-05-20T12:06:57Z</time>
      </trkpt>
      <trkpt lat="42.2292510" lon="-8.7108130">
        <ele>112.3</ele>
        <time>2021-05-20T12:06:58Z</time>
      </trkpt>
      <trkpt lat="42.2292660" lon="-8.7107930">
        <ele>112.1</ele>
        <time>2021-05-20T12:06:59Z</time>
      </trkpt>
      <trkpt lat="42.2292710" lon="-8.7107830">
        <ele>112.1</ele>
        <time>2021-05-20T12:07:00Z</time>
      </trkpt>
      <trkpt lat="42.2292750" lon="-8.7107720">
        <ele>112.0</ele>
        <time>2021-05-20T12:07:01Z</time>
      </trkpt>
      <trkpt lat="42.2292790" lon="-8.7107550">
        <ele>112.0</ele>
        <time>2021-05-20T12:07:02Z</time>
      </trkpt>
      <trkpt lat="42.2292740" lon="-8.7107440">
        <ele>111.9</ele>
        <time>2021-05-20T12:07:03Z</time>
      </trkpt>
      <trkpt lat="42.2292730" lon="-8.7107370">
        <ele>111.9</ele>
        <time>2021-05-20T12:07:04Z</time>
      </trkpt>
      <trkpt lat="42.2292750" lon="-8.7107260">
        <ele>111.9</ele>
        <time>2021-05-20T12:07:05Z</time>
      </trkpt>
      <trkpt lat="42.2292900" lon="-8.7107070">
        <ele>111.7</ele>
        <time>2021-05-20T12:07:06Z</time>
      </trkpt>
      <trkpt lat="42.2292980" lon="-8.7107010">
        <ele>111.7</ele>
        <time>2021-05-20T12:07:07Z</time>
      </trkpt>
      <trkpt lat="42.2293050" lon="-8.7107020">
        <ele>111.6</ele>
        <time>2021-05-20T12:07:08Z</time>
      </trkpt>
      <trkpt lat="42.2293120" lon="-8.7106960">
        <ele>111.6</ele>
        <time>2021-05-20T12:07:09Z</time>
      </trkpt>
      <trkpt lat="42.2293200" lon="-8.7106730">
        <ele>111.5</ele>
        <time>2021-05-20T12:07:10Z</time>
      </trkpt>
      <trkpt lat="42.2293220" lon="-8.7106580">
        <ele>111.4</ele>
        <time>2021-05-20T12:07:11Z</time>
      </trkpt>
      <trkpt lat="42.2293250" lon="-8.7106450">
        <ele>111.4</ele>
        <time>2021-05-20T12:07:12Z</time>
      </trkpt>
      <trkpt lat="42.2293260" lon="-8.7106320">
        <ele>111.3</ele>
        <time>2021-05-20T12:07:13Z</time>
      </trkpt>
      <trkpt lat="42.2293280" lon="-8.7106170">
        <ele>111.3</ele>
        <time>2021-05-20T12:07:14Z</time>
      </trkpt>
      <trkpt lat="42.2293230" lon="-8.7106080">
        <ele>111.2</ele>
        <time>2021-05-20T12:07:15Z</time>
      </trkpt>
      <trkpt lat="42.2293270" lon="-8.7105980">
        <ele>111.2</ele>
        <time>2021-05-20T12:07:16Z</time>
      </trkpt>
      <trkpt lat="42.2293210" lon="-8.7105870">
        <ele>111.1</ele>
        <time>2021-05-20T12:07:17Z</time>
      </trkpt>
      <trkpt lat="42.2293230" lon="-8.7105560">
        <ele>111.0</ele>
        <time>2021-05-20T12:07:18Z</time>
      </trkpt>
      <trkpt lat="42.2293250" lon="-8.7105470">
        <ele>110.9</ele>
        <time>2021-05-20T12:07:19Z</time>
      </trkpt>
      <trkpt lat="42.2293270" lon="-8.7105380">
        <ele>110.9</ele>
        <time>2021-05-20T12:07:20Z</time>
      </trkpt>
      <trkpt lat="42.2293240" lon="-8.7105320">
        <ele>110.9</ele>
        <time>2021-05-20T12:07:21Z</time>
      </trkpt>
      <trkpt lat="42.2293360" lon="-8.7105040">
        <ele>110.7</ele>
        <time>2021-05-20T12:07:22Z</time>
      </trkpt>
      <trkpt lat="42.2293360" lon="-8.7104940">
        <ele>110.7</ele>
        <time>2021-05-20T12:07:23Z</time>
      </trkpt>
      <trkpt lat="42.2293450" lon="-8.7104780">
        <ele>110.6</ele>
        <time>2021-05-20T12:07:24Z</time>
      </trkpt>
      <trkpt lat="42.2293470" lon="-8.7104690">
        <ele>110.6</ele>
        <time>2021-05-20T12:07:25Z</time>
      </trkpt>
      <trkpt lat="42.2293500" lon="-8.7104580">
        <ele>110.5</ele>
        <time>2021-05-20T12:07:26Z</time>
      </trkpt>
      <trkpt lat="42.2293550" lon="-8.7104470">
        <ele>110.5</ele>
        <time>2021-05-20T12:07:27Z</time>
      </trkpt>
      <trkpt lat="42.2293620" lon="-8.7104390">
        <ele>110.4</ele>
        <time>2021-05-20T12:07:28Z</time>
      </trkpt>
      <trkpt lat="42.2293670" lon="-8.7104410">
        <ele>110.4</ele>
        <time>2021-05-20T12:07:29Z</time>
      </trkpt>
      <trkpt lat="42.2293790" lon="-8.7104300">
        <ele>110.3</ele>
        <time>2021-05-20T12:07:30Z</time>
      </trkpt>
      <trkpt lat="42.2293990" lon="-8.7103960">
        <ele>110.2</ele>
        <time>2021-05-20T12:07:31Z</time>
      </trkpt>
      <trkpt lat="42.2294050" lon="-8.7103840">
        <ele>110.1</ele>
        <time>2021-05-20T12:07:32Z</time>
      </trkpt>
      <trkpt lat="42.2294160" lon="-8.7103650">
        <ele>110.0</ele>
        <time>2021-05-20T12:07:33Z</time>
      </trkpt>
      <trkpt lat="42.2294220" lon="-8.7103450">
        <ele>109.9</ele>
        <time>2021-05-20T12:07:34Z</time>
      </trkpt>
      <trkpt lat="42.2294280" lon="-8.7103330">
        <ele>109.9</ele>
        <time>2021-05-20T12:07:35Z</time>
      </trkpt>
      <trkpt lat="42.2294280" lon="-8.7103290">
        <ele>109.9</ele>
        <time>2021-05-20T12:07:36Z</time>
      </trkpt>
      <trkpt lat="42.2294330" lon="-8.7103240">
        <ele>109.8</ele>
        <time>2021-05-20T12:07:37Z</time>
      </trkpt>
      <trkpt lat="42.2294150" lon="-8.7103150">
        <ele>109.7</ele>
        <time>2021-05-20T12:07:38Z</time>
      </trkpt>
      <trkpt lat="42.2294190" lon="-8.7103150">
        <ele>109.7</ele>
        <time>2021-05-20T12:07:39Z</time>
      </trkpt>
      <trkpt lat="42.2294140" lon="-8.7103060">
        <ele>109.7</ele>
        <time>2021-05-20T12:07:40Z</time>
      </trkpt>
      <trkpt lat="42.2294180" lon="-8.7103120">
        <ele>109.6</ele>
        <time>2021-05-20T12:07:41Z</time>
      </trkpt>
      <trkpt lat="42.2294260" lon="-8.7103020">
        <ele>109.6</ele>
        <time>2021-05-20T12:07:42Z</time>
      </trkpt>
      <trkpt lat="42.2294310" lon="-8.7102810">
        <ele>109.5</ele>
        <time>2021-05-20T12:07:43Z</time>
      </trkpt>
      <trkpt lat="42.2294310" lon="-8.7102630">
        <ele>109.4</ele>
        <time>2021-05-20T12:07:44Z</time>
      </trkpt>
      <trkpt lat="42.2294430" lon="-8.7102490">
        <ele>109.4</ele>
        <time>2021-05-20T12:07:45Z</time>
      </trkpt>
      <trkpt lat="42.2294520" lon="-8.7102500">
        <ele>109.3</ele>
        <time>2021-05-20T12:07:46Z</time>
      </trkpt>
      <trkpt lat="42.2294620" lon="-8.7102450">
        <ele>109.3</ele>
        <time>2021-05-20T12:07:47Z</time>
      </trkpt>
      <trkpt lat="42.2294670" lon="-8.7102440">
        <ele>109.2</ele>
        <time>2021-05-20T12:07:48Z</time>
      </trkpt>
      <trkpt lat="42.2294760" lon="-8.7102480">
        <ele>109.2</ele>
        <time>2021-05-20T12:07:49Z</time>
      </trkpt>
      <trkpt lat="42.2294810" lon="-8.7102460">
        <ele>109.2</ele>
        <time>2021-05-20T12:07:50Z</time>
      </trkpt>
      <trkpt lat="42.2294900" lon="-8.7102410">
        <ele>109.1</ele>
        <time>2021-05-20T12:07:51Z</time>
      </trkpt>
      <trkpt lat="42.2294940" lon="-8.7102260">
        <ele>109.1</ele>
        <time>2021-05-20T12:07:52Z</time>
      </trkpt>
      <trkpt lat="42.2294950" lon="-8.7102150">
        <ele>109.0</ele>
        <time>2021-05-20T12:07:53Z</time>
      </trkpt>
      <trkpt lat="42.2294960" lon="-8.7102040">
        <ele>109.0</ele>
        <time>2021-05-20T12:07:54Z</time>
      </trkpt>
      <trkpt lat="42.2294970" lon="-8.7101930">
        <ele>109.0</ele>
        <time>2021-05-20T12:07:55Z</time>
      </trkpt>
      <trkpt lat="42.2295060" lon="-8.7101880">
        <ele>108.9</ele>
        <time>2021-05-20T12:07:56Z</time>
      </trkpt>
      <trkpt lat="42.2295100" lon="-8.7101770">
        <ele>108.9</ele>
        <time>2021-05-20T12:07:57Z</time>
      </trkpt>
      <trkpt lat="42.2295150" lon="-8.7101750">
        <ele>108.8</ele>
        <time>2021-05-20T12:07:58Z</time>
      </trkpt>
      <trkpt lat="42.2295200" lon="-8.7101630">
        <ele>108.8</ele>
        <time>2021-05-20T12:07:59Z</time>
      </trkpt>
      <trkpt lat="42.2295240" lon="-8.7101390">
        <ele>108.7</ele>
        <time>2021-05-20T12:08:00Z</time>
      </trkpt>
      <trkpt lat="42.2295340" lon="-8.7101230">
        <ele>108.6</ele>
        <time>2021-05-20T12:08:01Z</time>
      </trkpt>
      <trkpt lat="42.2295560" lon="-8.7101080">
        <ele>108.5</ele>
        <time>2021-05-20T12:08:02Z</time>
      </trkpt>
      <trkpt lat="42.2295630" lon="-8.7100990">
        <ele>108.5</ele>
        <time>2021-05-20T12:08:03Z</time>
      </trkpt>
      <trkpt lat="42.2295710" lon="-8.7100910">
        <ele>108.4</ele>
        <time>2021-05-20T12:08:04Z</time>
      </trkpt>
      <trkpt lat="42.2295780" lon="-8.7100780">
        <ele>108.4</ele>
        <time>2021-05-20T12:08:05Z</time>
      </trkpt>
      <trkpt lat="42.2295840" lon="-8.7100700">
        <ele>108.4</ele>
        <time>2021-05-20T12:08:06Z</time>
      </trkpt>
      <trkpt lat="42.2295920" lon="-8.7100670">
        <ele>108.3</ele>
        <time>2021-05-20T12:08:07Z</time>
      </trkpt>
      <trkpt lat="42.2296070" lon="-8.7100610">
        <ele>108.3</ele>
        <time>2021-05-20T12:08:08Z</time>
      </trkpt>
      <trkpt lat="42.2296170" lon="-8.7100530">
        <ele>108.2</ele>
        <time>2021-05-20T12:08:09Z</time>
      </trkpt>
      <trkpt lat="42.2296260" lon="-8.7100450">
        <ele>108.2</ele>
        <time>2021-05-20T12:08:10Z</time>
      </trkpt>
      <trkpt lat="42.2296300" lon="-8.7100290">
        <ele>108.1</ele>
        <time>2021-05-20T12:08:11Z</time>
      </trkpt>
      <trkpt lat="42.2296310" lon="-8.7100140">
        <ele>108.1</ele>
        <time>2021-05-20T12:08:12Z</time>
      </trkpt>
      <trkpt lat="42.2296320" lon="-8.7100020">
        <ele>108.0</ele>
        <time>2021-05-20T12:08:13Z</time>
      </trkpt>
      <trkpt lat="42.2296360" lon="-8.7099720">
        <ele>107.9</ele>
        <time>2021-05-20T12:08:14Z</time>
      </trkpt>
      <trkpt lat="42.2296360" lon="-8.7099610">
        <ele>107.9</ele>
        <time>2021-05-20T12:08:15Z</time>
      </trkpt>
      <trkpt lat="42.2296360" lon="-8.7099500">
        <ele>107.9</ele>
        <time>2021-05-20T12:08:16Z</time>
      </trkpt>
      <trkpt lat="42.2296370" lon="-8.7099030">
        <ele>107.7</ele>
        <time>2021-05-20T12:08:17Z</time>
      </trkpt>
      <trkpt lat="42.2296380" lon="-8.7098830">
        <ele>107.6</ele>
        <time>2021-05-20T12:08:18Z</time>
      </trkpt>
      <trkpt lat="42.2296390" lon="-8.7098470">
        <ele>107.5</ele>
        <time>2021-05-20T12:08:19Z</time>
      </trkpt>
      <trkpt lat="42.2296420" lon="-8.7098330">
        <ele>107.5</ele>
        <time>2021-05-20T12:08:20Z</time>
      </trkpt>
      <trkpt lat="42.2296630" lon="-8.7097970">
        <ele>107.3</ele>
        <time>2021-05-20T12:08:21Z</time>
      </trkpt>
      <trkpt lat="42.2296670" lon="-8.7097840">
        <ele>107.3</ele>
        <time>2021-05-20T12:08:22Z</time>
      </trkpt>
      <trkpt lat="42.2296770" lon="-8.7097430">
        <ele>107.1</ele>
        <time>2021-05-20T12:08:23Z</time>
      </trkpt>
      <trkpt lat="42.2296880" lon="-8.7097080">
        <ele>107.0</ele>
        <time>2021-05-20T12:08:24Z</time>
      </trkpt>
      <trkpt lat="42.2296930" lon="-8.7096960">
        <ele>106.9</ele>
        <time>2021-05-20T12:08:25Z</time>
      </trkpt>
      <trkpt lat="42.2297070" lon="-8.7096550">
        <ele>106.8</ele>
        <time>2021-05-20T12:08:26Z</time>
      </trkpt>
      <trkpt lat="42.2297090" lon="-8.7096440">
        <ele>106.8</ele>
        <time>2021-05-20T12:08:27Z</time>
      </trkpt>
      <trkpt lat="42.2297180" lon="-8.7096210">
        <ele>106.7</ele>
        <time>2021-05-20T12:08:28Z</time>
      </trkpt>
      <trkpt lat="42.2297190" lon="-8.7096090">
        <ele>106.6</ele>
        <time>2021-05-20T12:08:29Z</time>
      </trkpt>
      <trkpt lat="42.2297170" lon="-8.7095850">
        <ele>106.6</ele>
        <time>2021-05-20T12:08:30Z</time>
      </trkpt>
      <trkpt lat="42.2297190" lon="-8.7095710">
        <ele>106.5</ele>
        <time>2021-05-20T12:08:31Z</time>
      </trkpt>
      <trkpt lat="42.2297200" lon="-8.7095580">
        <ele>106.5</ele>
        <time>2021-05-20T12:08:32Z</time>
      </trkpt>
      <trkpt lat="42.2297390" lon="-8.7095480">
        <ele>106.4</ele>
        <time>2021-05-20T12:08:33Z</time>
      </trkpt>
      <trkpt lat="42.2297470" lon="-8.7095420">
        <ele>106.3</ele>
        <time>2021-05-20T12:08:34Z</time>
      </trkpt>
      <trkpt lat="42.2297550" lon="-8.7095370">
        <ele>106.3</ele>
        <time>2021-05-20T12:08:35Z</time>
      </trkpt>
      <trkpt lat="42.2297680" lon="-8.7095230">
        <ele>106.2</ele>
        <time>2021-05-20T12:08:36Z</time>
      </trkpt>
      <trkpt lat="42.2297770" lon="-8.7095140">
        <ele>106.2</ele>
        <time>2021-05-20T12:08:37Z</time>
      </trkpt>
      <trkpt lat="42.2297950" lon="-8.7094980">
        <ele>106.1</ele>
        <time>2021-05-20T12:08:38Z</time>
      </trkpt>
      <trkpt lat="42.2298080" lon="-8.7095000">
        <ele>106.0</ele>
        <time>2021-05-20T12:08:39Z</time>
      </trkpt>
      <trkpt lat="42.2298150" lon="-8.7095020">
        <ele>106.0</ele>
        <time>2021-05-20T12:08:40Z</time>
      </trkpt>
      <trkpt lat="42.2298170" lon="-8.7095050">
        <ele>106.0</ele>
        <time>2021-05-20T12:08:41Z</time>
      </trkpt>
      <trkpt lat="42.2298250" lon="-8.7094890">
        <ele>105.9</ele>
        <time>2021-05-20T12:08:42Z</time>
      </trkpt>
      <trkpt lat="42.2298270" lon="-8.7094860">
        <ele>105.9</ele>
        <time>2021-05-20T12:08:43Z</time>
      </trkpt>
      <trkpt lat="42.2298320" lon="-8.7094750">
        <ele>105.8</ele>
        <time>2021-05-20T12:08:44Z</time>
      </trkpt>
      <trkpt lat="42.2298400" lon="-8.7094750">
        <ele>105.8</ele>
        <time>2021-05-20T12:08:45Z</time>
      </trkpt>
      <trkpt lat="42.2298490" lon="-8.7094610">
        <ele>105.8</ele>
        <time>2021-05-20T12:08:46Z</time>
      </trkpt>
      <trkpt lat="42.2298400" lon="-8.7094720">
        <ele>105.8</ele>
        <time>2021-05-20T12:08:47Z</time>
      </trkpt>
      <trkpt lat="42.2298350" lon="-8.7094730">
        <ele>105.8</ele>
        <time>2021-05-20T12:08:48Z</time>
      </trkpt>
      <trkpt lat="42.2298290" lon="-8.7094680">
        <ele>105.8</ele>
        <time>2021-05-20T12:08:49Z</time>
      </trkpt>
      <trkpt lat="42.2298220" lon="-8.7094580">
        <ele>105.8</ele>
        <time>2021-05-20T12:08:50Z</time>
      </trkpt>
      <trkpt lat="42.2298160" lon="-8.7094470">
        <ele>105.8</ele>
        <time>2021-05-20T12:08:51Z</time>
      </trkpt>
      <trkpt lat="42.2298130" lon="-8.7094480">
        <ele>105.7</ele>
        <time>2021-05-20T12:08:52Z</time>
      </trkpt>
      <trkpt lat="42.2298060" lon="-8.7094320">
        <ele>105.7</ele>
        <time>2021-05-20T12:08:53Z</time>
      </trkpt>
      <trkpt lat="42.2298000" lon="-8.7094170">
        <ele>105.7</ele>
        <time>2021-05-20T12:08:54Z</time>
      </trkpt>
      <trkpt lat="42.2297950" lon="-8.7094190">
        <ele>105.7</ele>
        <time>2021-05-20T12:08:55Z</time>
      </trkpt>
      <trkpt lat="42.2297950" lon="-8.7094140">
        <ele>105.7</ele>
        <time>2021-05-20T12:08:56Z</time>
      </trkpt>
      <trkpt lat="42.2297990" lon="-8.7094160">
        <ele>105.7</ele>
        <time>2021-05-20T12:08:57Z</time>
      </trkpt>
      <trkpt lat="42.2297960" lon="-8.7094190">
        <ele>105.7</ele>
        <time>2021-05-20T12:08:58Z</time>
      </trkpt>
      <trkpt lat="42.2297830" lon="-8.7094280">
        <ele>105.7</ele>
        <time>2021-05-20T12:08:59Z</time>
      </trkpt>
      <trkpt lat="42.2297690" lon="-8.7094390">
        <ele>105.6</ele>
        <time>2021-05-20T12:09:00Z</time>
      </trkpt>
      <trkpt lat="42.2297660" lon="-8.7094490">
        <ele>105.6</ele>
        <time>2021-05-20T12:09:01Z</time>
      </trkpt>
      <trkpt lat="42.2297710" lon="-8.7094410">
        <ele>105.6</ele>
        <time>2021-05-20T12:09:02Z</time>
      </trkpt>
      <trkpt lat="42.2297770" lon="-8.7094320">
        <ele>105.6</ele>
        <time>2021-05-20T12:09:03Z</time>
      </trkpt>
      <trkpt lat="42.2297820" lon="-8.7094230">
        <ele>105.6</ele>
        <time>2021-05-20T12:09:04Z</time>
      </trkpt>
      <trkpt lat="42.2297880" lon="-8.7094140">
        <ele>105.6</ele>
        <time>2021-05-20T12:09:05Z</time>
      </trkpt>
      <trkpt lat="42.2297930" lon="-8.7094060">
        <ele>105.6</ele>
        <time>2021-05-20T12:09:06Z</time>
      </trkpt>
      <trkpt lat="42.2297990" lon="-8.7093970">
        <ele>105.6</ele>
        <time>2021-05-20T12:09:07Z</time>
      </trkpt>
      <trkpt lat="42.2298130" lon="-8.7093760">
        <ele>105.5</ele>
        <time>2021-05-20T12:09:08Z</time>
      </trkpt>
      <trkpt lat="42.2298210" lon="-8.7093640">
        <ele>105.5</ele>
        <time>2021-05-20T12:09:09Z</time>
      </trkpt>
      <trkpt lat="42.2298360" lon="-8.7093490">
        <ele>105.5</ele>
        <time>2021-05-20T12:09:10Z</time>
      </trkpt>
      <trkpt lat="42.2298410" lon="-8.7093430">
        <ele>105.5</ele>
        <time>2021-05-20T12:09:11Z</time>
      </trkpt>
      <trkpt lat="42.2298450" lon="-8.7093370">
        <ele>105.5</ele>
        <time>2021-05-20T12:09:12Z</time>
      </trkpt>
      <trkpt lat="42.2298490" lon="-8.7093310">
        <ele>105.5</ele>
        <time>2021-05-20T12:09:13Z</time>
      </trkpt>
      <trkpt lat="42.2298620" lon="-8.7093160">
        <ele>105.4</ele>
        <time>2021-05-20T12:09:14Z</time>
      </trkpt>
      <trkpt lat="42.2298670" lon="-8.7093100">
        <ele>105.4</ele>
        <time>2021-05-20T12:09:15Z</time>
      </trkpt>
      <trkpt lat="42.2298710" lon="-8.7093030">
        <ele>105.4</ele>
        <time>2021-05-20T12:09:16Z</time>
      </trkpt>
      <trkpt lat="42.2298760" lon="-8.7092970">
        <ele>105.4</ele>
        <time>2021-05-20T12:09:17Z</time>
      </trkpt>
      <trkpt lat="42.2298850" lon="-8.7092880">
        <ele>105.4</ele>
        <time>2021-05-20T12:09:18Z</time>
      </trkpt>
      <trkpt lat="42.2298920" lon="-8.7092850">
        <ele>105.4</ele>
        <time>2021-05-20T12:09:19Z</time>
      </trkpt>
      <trkpt lat="42.2298990" lon="-8.7092820">
        <ele>105.4</ele>
        <time>2021-05-20T12:09:20Z</time>
      </trkpt>
      <trkpt lat="42.2299050" lon="-8.7092780">
        <ele>105.3</ele>
        <time>2021-05-20T12:09:21Z</time>
      </trkpt>
      <trkpt lat="42.2299120" lon="-8.7092750">
        <ele>105.3</ele>
        <time>2021-05-20T12:09:22Z</time>
      </trkpt>
      <trkpt lat="42.2299190" lon="-8.7092720">
        <ele>105.3</ele>
        <time>2021-05-20T12:09:23Z</time>
      </trkpt>
      <trkpt lat="42.2299470" lon="-8.7092650">
        <ele>105.2</ele>
        <time>2021-05-20T12:09:24Z</time>
      </trkpt>
      <trkpt lat="42.2299650" lon="-8.7092460">
        <ele>105.2</ele>
        <time>2021-05-20T12:09:25Z</time>
      </trkpt>
      <trkpt lat="42.2299780" lon="-8.7092520">
        <ele>105.1</ele>
        <time>2021-05-20T12:09:26Z</time>
      </trkpt>
      <trkpt lat="42.2300010" lon="-8.7092370">
        <ele>105.1</ele>
        <time>2021-05-20T12:09:27Z</time>
      </trkpt>
      <trkpt lat="42.2300080" lon="-8.7092290">
        <ele>105.1</ele>
        <time>2021-05-20T12:09:28Z</time>
      </trkpt>
      <trkpt lat="42.2300160" lon="-8.7092200">
        <ele>105.0</ele>
        <time>2021-05-20T12:09:29Z</time>
      </trkpt>
      <trkpt lat="42.2300170" lon="-8.7092130">
        <ele>105.0</ele>
        <time>2021-05-20T12:09:30Z</time>
      </trkpt>
      <trkpt lat="42.2300270" lon="-8.7091850">
        <ele>105.0</ele>
        <time>2021-05-20T12:09:31Z</time>
      </trkpt>
      <trkpt lat="42.2300420" lon="-8.7091640">
        <ele>104.9</ele>
        <time>2021-05-20T12:09:32Z</time>
      </trkpt>
      <trkpt lat="42.2300490" lon="-8.7091590">
        <ele>104.9</ele>
        <time>2021-05-20T12:09:33Z</time>
      </trkpt>
      <trkpt lat="42.2300550" lon="-8.7091530">
        <ele>104.9</ele>
        <time>2021-05-20T12:09:34Z</time>
      </trkpt>
      <trkpt lat="42.2300850" lon="-8.7091360">
        <ele>104.8</ele>
        <time>2021-05-20T12:09:35Z</time>
      </trkpt>
      <trkpt lat="42.2300980" lon="-8.7091300">
        <ele>104.8</ele>
        <time>2021-05-20T12:09:36Z</time>
      </trkpt>
      <trkpt lat="42.2301250" lon="-8.7091300">
        <ele>104.8</ele>
        <time>2021-05-20T12:09:37Z</time>
      </trkpt>
      <trkpt lat="42.2301530" lon="-8.7091290">
        <ele>104.7</ele>
        <time>2021-05-20T12:09:38Z</time>
      </trkpt>
      <trkpt lat="42.2301640" lon="-8.7091230">
        <ele>104.7</ele>
        <time>2021-05-20T12:09:39Z</time>
      </trkpt>
      <trkpt lat="42.2301960" lon="-8.7091110">
        <ele>104.6</ele>
        <time>2021-05-20T12:09:40Z</time>
      </trkpt>
      <trkpt lat="42.2302040" lon="-8.7091060">
        <ele>104.6</ele>
        <time>2021-05-20T12:09:41Z</time>
      </trkpt>
      <trkpt lat="42.2302300" lon="-8.7090740">
        <ele>104.6</ele>
        <time>2021-05-20T12:09:42Z</time>
      </trkpt>
      <trkpt lat="42.2302400" lon="-8.7090610">
        <ele>104.6</ele>
        <time>2021-05-20T12:09:43Z</time>
      </trkpt>
      <trkpt lat="42.2302590" lon="-8.7090480">
        <ele>104.6</ele>
        <time>2021-05-20T12:09:44Z</time>
      </trkpt>
      <trkpt lat="42.2302680" lon="-8.7090420">
        <ele>104.6</ele>
        <time>2021-05-20T12:09:45Z</time>
      </trkpt>
      <trkpt lat="42.2302770" lon="-8.7090350">
        <ele>104.6</ele>
        <time>2021-05-20T12:09:46Z</time>
      </trkpt>
      <trkpt lat="42.2302860" lon="-8.7090150">
        <ele>104.6</ele>
        <time>2021-05-20T12:09:47Z</time>
      </trkpt>
      <trkpt lat="42.2302840" lon="-8.7090020">
        <ele>104.6</ele>
        <time>2021-05-20T12:09:48Z</time>
      </trkpt>
      <trkpt lat="42.2302740" lon="-8.7089900">
        <ele>104.6</ele>
        <time>2021-05-20T12:09:49Z</time>
      </trkpt>
      <trkpt lat="42.2302690" lon="-8.7089540">
        <ele>104.6</ele>
        <time>2021-05-20T12:09:50Z</time>
      </trkpt>
      <trkpt lat="42.2302730" lon="-8.7089270">
        <ele>104.6</ele>
        <time>2021-05-20T12:09:51Z</time>
      </trkpt>
      <trkpt lat="42.2302780" lon="-8.7089110">
        <ele>104.6</ele>
        <time>2021-05-20T12:09:52Z</time>
      </trkpt>
      <trkpt lat="42.2302850" lon="-8.7088930">
        <ele>104.6</ele>
        <time>2021-05-20T12:09:53Z</time>
      </trkpt>
      <trkpt lat="42.2302880" lon="-8.7088730">
        <ele>104.6</ele>
        <time>2021-05-20T12:09:54Z</time>
      </trkpt>
      <trkpt lat="42.2302940" lon="-8.7088530">
        <ele>104.6</ele>
        <time>2021-05-20T12:09:55Z</time>
      </trkpt>
      <trkpt lat="42.2303050" lon="-8.7088330">
        <ele>104.6</ele>
        <time>2021-05-20T12:09:56Z</time>
      </trkpt>
      <trkpt lat="42.2303080" lon="-8.7088130">
        <ele>104.6</ele>
        <time>2021-05-20T12:09:57Z</time>
      </trkpt>
      <trkpt lat="42.2303180" lon="-8.7087960">
        <ele>104.6</ele>
        <time>2021-05-20T12:09:58Z</time>
      </trkpt>
      <trkpt lat="42.2303340" lon="-8.7087660">
        <ele>104.6</ele>
        <time>2021-05-20T12:09:59Z</time>
      </trkpt>
      <trkpt lat="42.2303420" lon="-8.7087550">
        <ele>104.6</ele>
        <time>2021-05-20T12:10:00Z</time>
      </trkpt>
      <trkpt lat="42.2303600" lon="-8.7087480">
        <ele>104.6</ele>
        <time>2021-05-20T12:10:01Z</time>
      </trkpt>
      <trkpt lat="42.2303650" lon="-8.7087360">
        <ele>104.6</ele>
        <time>2021-05-20T12:10:02Z</time>
      </trkpt>
      <trkpt lat="42.2303770" lon="-8.7087210">
        <ele>104.6</ele>
        <time>2021-05-20T12:10:03Z</time>
      </trkpt>
      <trkpt lat="42.2303910" lon="-8.7087080">
        <ele>104.5</ele>
        <time>2021-05-20T12:10:04Z</time>
      </trkpt>
      <trkpt lat="42.2304040" lon="-8.7086910">
        <ele>104.5</ele>
        <time>2021-05-20T12:10:05Z</time>
      </trkpt>
      <trkpt lat="42.2304140" lon="-8.7086760">
        <ele>104.5</ele>
        <time>2021-05-20T12:10:06Z</time>
      </trkpt>
      <trkpt lat="42.2304220" lon="-8.7086470">
        <ele>104.5</ele>
        <time>2021-05-20T12:10:07Z</time>
      </trkpt>
      <trkpt lat="42.2304280" lon="-8.7086310">
        <ele>104.5</ele>
        <time>2021-05-20T12:10:08Z</time>
      </trkpt>
      <trkpt lat="42.2304330" lon="-8.7086150">
        <ele>104.5</ele>
        <time>2021-05-20T12:10:09Z</time>
      </trkpt>
      <trkpt lat="42.2304430" lon="-8.7085770">
        <ele>104.4</ele>
        <time>2021-05-20T12:10:10Z</time>
      </trkpt>
      <trkpt lat="42.2304450" lon="-8.7085680">
        <ele>104.4</ele>
        <time>2021-05-20T12:10:11Z</time>
      </trkpt>
      <trkpt lat="42.2304510" lon="-8.7085490">
        <ele>104.4</ele>
        <time>2021-05-20T12:10:12Z</time>
      </trkpt>
      <trkpt lat="42.2304550" lon="-8.7085230">
        <ele>104.4</ele>
        <time>2021-05-20T12:10:13Z</time>
      </trkpt>
      <trkpt lat="42.2304620" lon="-8.7084900">
        <ele>104.4</ele>
        <time>2021-05-20T12:10:14Z</time>
      </trkpt>
      <trkpt lat="42.2304650" lon="-8.7084690">
        <ele>104.3</ele>
        <time>2021-05-20T12:10:15Z</time>
      </trkpt>
      <trkpt lat="42.2304690" lon="-8.7084480">
        <ele>104.3</ele>
        <time>2021-05-20T12:10:16Z</time>
      </trkpt>
      <trkpt lat="42.2304780" lon="-8.7084040">
        <ele>104.3</ele>
        <time>2021-05-20T12:10:17Z</time>
      </trkpt>
      <trkpt lat="42.2304790" lon="-8.7083890">
        <ele>104.3</ele>
        <time>2021-05-20T12:10:18Z</time>
      </trkpt>
      <trkpt lat="42.2304800" lon="-8.7083690">
        <ele>104.3</ele>
        <time>2021-05-20T12:10:19Z</time>
      </trkpt>
      <trkpt lat="42.2304810" lon="-8.7083520">
        <ele>104.3</ele>
        <time>2021-05-20T12:10:20Z</time>
      </trkpt>
      <trkpt lat="42.2304910" lon="-8.7083180">
        <ele>104.2</ele>
        <time>2021-05-20T12:10:21Z</time>
      </trkpt>
      <trkpt lat="42.2304990" lon="-8.7082770">
        <ele>104.2</ele>
        <time>2021-05-20T12:10:22Z</time>
      </trkpt>
      <trkpt lat="42.2305000" lon="-8.7082640">
        <ele>104.2</ele>
        <time>2021-05-20T12:10:23Z</time>
      </trkpt>
      <trkpt lat="42.2304950" lon="-8.7082210">
        <ele>104.2</ele>
        <time>2021-05-20T12:10:24Z</time>
      </trkpt>
      <trkpt lat="42.2304910" lon="-8.7082020">
        <ele>104.2</ele>
        <time>2021-05-20T12:10:25Z</time>
      </trkpt>
      <trkpt lat="42.2304880" lon="-8.7081960">
        <ele>104.2</ele>
        <time>2021-05-20T12:10:26Z</time>
      </trkpt>
      <trkpt lat="42.2304940" lon="-8.7081770">
        <ele>104.2</ele>
        <time>2021-05-20T12:10:27Z</time>
      </trkpt>
      <trkpt lat="42.2304980" lon="-8.7081730">
        <ele>104.2</ele>
        <time>2021-05-20T12:10:28Z</time>
      </trkpt>
      <trkpt lat="42.2304910" lon="-8.7081640">
        <ele>104.2</ele>
        <time>2021-05-20T12:10:29Z</time>
      </trkpt>
      <trkpt lat="42.2305000" lon="-8.7081380">
        <ele>104.2</ele>
        <time>2021-05-20T12:10:30Z</time>
      </trkpt>
      <trkpt lat="42.2304960" lon="-8.7081340">
        <ele>104.2</ele>
        <time>2021-05-20T12:10:31Z</time>
      </trkpt>
      <trkpt lat="42.2304940" lon="-8.7081280">
        <ele>104.2</ele>
        <time>2021-05-20T12:10:32Z</time>
      </trkpt>
      <trkpt lat="42.2304970" lon="-8.7081120">
        <ele>104.2</ele>
        <time>2021-05-20T12:10:33Z</time>
      </trkpt>
      <trkpt lat="42.2305040" lon="-8.7080870">
        <ele>104.2</ele>
        <time>2021-05-20T12:10:34Z</time>
      </trkpt>
      <trkpt lat="42.2305000" lon="-8.7080780">
        <ele>104.2</ele>
        <time>2021-05-20T12:10:35Z</time>
      </trkpt>
      <trkpt lat="42.2305000" lon="-8.7080590">
        <ele>104.2</ele>
        <time>2021-05-20T12:10:36Z</time>
      </trkpt>
      <trkpt lat="42.2304980" lon="-8.7080580">
        <ele>104.2</ele>
        <time>2021-05-20T12:10:37Z</time>
      </trkpt>
      <trkpt lat="42.2304920" lon="-8.7080420">
        <ele>104.2</ele>
        <time>2021-05-20T12:10:38Z</time>
      </trkpt>
      <trkpt lat="42.2304890" lon="-8.7080290">
        <ele>104.1</ele>
        <time>2021-05-20T12:10:39Z</time>
      </trkpt>
      <trkpt lat="42.2304850" lon="-8.7080070">
        <ele>104.1</ele>
        <time>2021-05-20T12:10:40Z</time>
      </trkpt>
      <trkpt lat="42.2304840" lon="-8.7080010">
        <ele>104.1</ele>
        <time>2021-05-20T12:10:41Z</time>
      </trkpt>
      <trkpt lat="42.2304790" lon="-8.7079820">
        <ele>104.1</ele>
        <time>2021-05-20T12:10:42Z</time>
      </trkpt>
      <trkpt lat="42.2304700" lon="-8.7079570">
        <ele>104.1</ele>
        <time>2021-05-20T12:10:43Z</time>
      </trkpt>
      <trkpt lat="42.2304620" lon="-8.7079250">
        <ele>104.1</ele>
        <time>2021-05-20T12:10:44Z</time>
      </trkpt>
      <trkpt lat="42.2304580" lon="-8.7079090">
        <ele>104.1</ele>
        <time>2021-05-20T12:10:45Z</time>
      </trkpt>
      <trkpt lat="42.2304540" lon="-8.7078940">
        <ele>104.1</ele>
        <time>2021-05-20T12:10:46Z</time>
      </trkpt>
      <trkpt lat="42.2304430" lon="-8.7078810">
        <ele>104.1</ele>
        <time>2021-05-20T12:10:47Z</time>
      </trkpt>
      <trkpt lat="42.2304350" lon="-8.7078620">
        <ele>104.0</ele>
        <time>2021-05-20T12:10:48Z</time>
      </trkpt>
      <trkpt lat="42.2304620" lon="-8.7078200">
        <ele>104.0</ele>
        <time>2021-05-20T12:10:49Z</time>
      </trkpt>
      <trkpt lat="42.2304730" lon="-8.7077960">
        <ele>104.0</ele>
        <time>2021-05-20T12:10:50Z</time>
      </trkpt>
      <trkpt lat="42.2304710" lon="-8.7077470">
        <ele>104.0</ele>
        <time>2021-05-20T12:10:51Z</time>
      </trkpt>
      <trkpt lat="42.2304690" lon="-8.7077330">
        <ele>104.0</ele>
        <time>2021-05-20T12:10:52Z</time>
      </trkpt>
      <trkpt lat="42.2304650" lon="-8.7077260">
        <ele>104.0</ele>
        <time>2021-05-20T12:10:53Z</time>
      </trkpt>
      <trkpt lat="42.2304520" lon="-8.7077000">
        <ele>103.9</ele>
        <time>2021-05-20T12:10:54Z</time>
      </trkpt>
      <trkpt lat="42.2304460" lon="-8.7076810">
        <ele>103.9</ele>
        <time>2021-05-20T12:10:55Z</time>
      </trkpt>
      <trkpt lat="42.2304420" lon="-8.7076600">
        <ele>103.9</ele>
        <time>2021-05-20T12:10:56Z</time>
      </trkpt>
      <trkpt lat="42.2304300" lon="-8.7076200">
        <ele>103.9</ele>
        <time>2021-05-20T12:10:57Z</time>
      </trkpt>
      <trkpt lat="42.2304270" lon="-8.7076120">
        <ele>103.9</ele>
        <time>2021-05-20T12:10:58Z</time>
      </trkpt>
      <trkpt lat="42.2304190" lon="-8.7075980">
        <ele>103.9</ele>
        <time>2021-05-20T12:10:59Z</time>
      </trkpt>
      <trkpt lat="42.2304110" lon="-8.7075750">
        <ele>103.8</ele>
        <time>2021-05-20T12:11:00Z</time>
      </trkpt>
      <trkpt lat="42.2304320" lon="-8.7075690">
        <ele>103.8</ele>
        <time>2021-05-20T12:11:01Z</time>
      </trkpt>
      <trkpt lat="42.2304500" lon="-8.7075570">
        <ele>103.8</ele>
        <time>2021-05-20T12:11:02Z</time>
      </trkpt>
      <trkpt lat="42.2304670" lon="-8.7075460">
        <ele>103.8</ele>
        <time>2021-05-20T12:11:03Z</time>
      </trkpt>
      <trkpt lat="42.2304780" lon="-8.7075280">
        <ele>103.8</ele>
        <time>2021-05-20T12:11:04Z</time>
      </trkpt>
      <trkpt lat="42.2304850" lon="-8.7075090">
        <ele>103.8</ele>
        <time>2021-05-20T12:11:05Z</time>
      </trkpt>
      <trkpt lat="42.2304860" lon="-8.7074900">
        <ele>103.7</ele>
        <time>2021-05-20T12:11:06Z</time>
      </trkpt>
      <trkpt lat="42.2304890" lon="-8.7074780">
        <ele>103.7</ele>
        <time>2021-05-20T12:11:07Z</time>
      </trkpt>
      <trkpt lat="42.2304900" lon="-8.7074650">
        <ele>103.7</ele>
        <time>2021-05-20T12:11:08Z</time>
      </trkpt>
      <trkpt lat="42.2304910" lon="-8.7074360">
        <ele>103.7</ele>
        <time>2021-05-20T12:11:09Z</time>
      </trkpt>
      <trkpt lat="42.2304920" lon="-8.7074200">
        <ele>103.7</ele>
        <time>2021-05-20T12:11:10Z</time>
      </trkpt>
      <trkpt lat="42.2304920" lon="-8.7074050">
        <ele>103.7</ele>
        <time>2021-05-20T12:11:11Z</time>
      </trkpt>
      <trkpt lat="42.2304930" lon="-8.7073890">
        <ele>103.7</ele>
        <time>2021-05-20T12:11:12Z</time>
      </trkpt>
      <trkpt lat="42.2305070" lon="-8.7073350">
        <ele>103.6</ele>
        <time>2021-05-20T12:11:13Z</time>
      </trkpt>
      <trkpt lat="42.2305240" lon="-8.7072990">
        <ele>103.6</ele>
        <time>2021-05-20T12:11:14Z</time>
      </trkpt>
      <trkpt lat="42.2305290" lon="-8.7072880">
        <ele>103.6</ele>
        <time>2021-05-20T12:11:15Z</time>
      </trkpt>
      <trkpt lat="42.2305350" lon="-8.7072650">
        <ele>102.7</ele>
        <time>2021-05-20T12:11:16Z</time>
      </trkpt>
      <trkpt lat="42.2305500" lon="-8.7072510">
        <ele>102.7</ele>
        <time>2021-05-20T12:11:17Z</time>
      </trkpt>
      <trkpt lat="42.2305680" lon="-8.7072190">
        <ele>102.7</ele>
        <time>2021-05-20T12:11:18Z</time>
      </trkpt>
      <trkpt lat="42.2305740" lon="-8.7072100">
        <ele>102.7</ele>
        <time>2021-05-20T12:11:19Z</time>
      </trkpt>
      <trkpt lat="42.2305680" lon="-8.7071790">
        <ele>102.6</ele>
        <time>2021-05-20T12:11:20Z</time>
      </trkpt>
      <trkpt lat="42.2305620" lon="-8.7071650">
        <ele>102.6</ele>
        <time>2021-05-20T12:11:21Z</time>
      </trkpt>
      <trkpt lat="42.2305570" lon="-8.7071520">
        <ele>102.7</ele>
        <time>2021-05-20T12:11:22Z</time>
      </trkpt>
      <trkpt lat="42.2305570" lon="-8.7071560">
        <ele>102.7</ele>
        <time>2021-05-20T12:11:23Z</time>
      </trkpt>
      <trkpt lat="42.2305680" lon="-8.7071820">
        <ele>102.8</ele>
        <time>2021-05-20T12:11:24Z</time>
      </trkpt>
      <trkpt lat="42.2305740" lon="-8.7071960">
        <ele>102.8</ele>
        <time>2021-05-20T12:11:25Z</time>
      </trkpt>
      <trkpt lat="42.2305790" lon="-8.7072010">
        <ele>102.8</ele>
        <time>2021-05-20T12:11:26Z</time>
      </trkpt>
      <trkpt lat="42.2305850" lon="-8.7071860">
        <ele>102.8</ele>
        <time>2021-05-20T12:11:27Z</time>
      </trkpt>
      <trkpt lat="42.2305770" lon="-8.7071810">
        <ele>102.9</ele>
        <time>2021-05-20T12:11:28Z</time>
      </trkpt>
      <trkpt lat="42.2305730" lon="-8.7071710">
        <ele>102.9</ele>
        <time>2021-05-20T12:11:29Z</time>
      </trkpt>
      <trkpt lat="42.2305660" lon="-8.7071550">
        <ele>102.9</ele>
        <time>2021-05-20T12:11:30Z</time>
      </trkpt>
      <trkpt lat="42.2305460" lon="-8.7071370">
        <ele>102.9</ele>
        <time>2021-05-20T12:11:31Z</time>
      </trkpt>
      <trkpt lat="42.2305400" lon="-8.7071280">
        <ele>103.0</ele>
        <time>2021-05-20T12:11:32Z</time>
      </trkpt>
      <trkpt lat="42.2305350" lon="-8.7071180">
        <ele>103.0</ele>
        <time>2021-05-20T12:11:33Z</time>
      </trkpt>
      <trkpt lat="42.2305270" lon="-8.7071070">
        <ele>103.1</ele>
        <time>2021-05-20T12:11:34Z</time>
      </trkpt>
      <trkpt lat="42.2305180" lon="-8.7070860">
        <ele>103.1</ele>
        <time>2021-05-20T12:11:35Z</time>
      </trkpt>
      <trkpt lat="42.2304960" lon="-8.7070580">
        <ele>103.2</ele>
        <time>2021-05-20T12:11:36Z</time>
      </trkpt>
      <trkpt lat="42.2304880" lon="-8.7070550">
        <ele>103.3</ele>
        <time>2021-05-20T12:11:37Z</time>
      </trkpt>
      <trkpt lat="42.2304820" lon="-8.7070230">
        <ele>103.4</ele>
        <time>2021-05-20T12:11:38Z</time>
      </trkpt>
      <trkpt lat="42.2304780" lon="-8.7070130">
        <ele>103.4</ele>
        <time>2021-05-20T12:11:39Z</time>
      </trkpt>
      <trkpt lat="42.2304750" lon="-8.7070020">
        <ele>103.4</ele>
        <time>2021-05-20T12:11:40Z</time>
      </trkpt>
      <trkpt lat="42.2304650" lon="-8.7069710">
        <ele>103.4</ele>
        <time>2021-05-20T12:11:41Z</time>
      </trkpt>
      <trkpt lat="42.2304650" lon="-8.7069570">
        <ele>103.4</ele>
        <time>2021-05-20T12:11:42Z</time>
      </trkpt>
      <trkpt lat="42.2304540" lon="-8.7069440">
        <ele>103.4</ele>
        <time>2021-05-20T12:11:43Z</time>
      </trkpt>
      <trkpt lat="42.2304460" lon="-8.7069320">
        <ele>103.4</ele>
        <time>2021-05-20T12:11:44Z</time>
      </trkpt>
      <trkpt lat="42.2304380" lon="-8.7069200">
        <ele>103.4</ele>
        <time>2021-05-20T12:11:45Z</time>
      </trkpt>
      <trkpt lat="42.2304310" lon="-8.7069060">
        <ele>103.4</ele>
        <time>2021-05-20T12:11:46Z</time>
      </trkpt>
      <trkpt lat="42.2304270" lon="-8.7068910">
        <ele>103.4</ele>
        <time>2021-05-20T12:11:47Z</time>
      </trkpt>
      <trkpt lat="42.2304410" lon="-8.7068860">
        <ele>103.4</ele>
        <time>2021-05-20T12:11:48Z</time>
      </trkpt>
      <trkpt lat="42.2304430" lon="-8.7068930">
        <ele>103.4</ele>
        <time>2021-05-20T12:11:49Z</time>
      </trkpt>
      <trkpt lat="42.2304440" lon="-8.7068990">
        <ele>103.4</ele>
        <time>2021-05-20T12:11:50Z</time>
      </trkpt>
      <trkpt lat="42.2304420" lon="-8.7068950">
        <ele>103.4</ele>
        <time>2021-05-20T12:11:51Z</time>
      </trkpt>
      <trkpt lat="42.2304370" lon="-8.7068990">
        <ele>103.4</ele>
        <time>2021-05-20T12:11:52Z</time>
      </trkpt>
      <trkpt lat="42.2304340" lon="-8.7068960">
        <ele>103.4</ele>
        <time>2021-05-20T12:11:53Z</time>
      </trkpt>
      <trkpt lat="42.2304410" lon="-8.7068900">
        <ele>103.4</ele>
        <time>2021-05-20T12:11:54Z</time>
      </trkpt>
      <trkpt lat="42.2304510" lon="-8.7068850">
        <ele>103.4</ele>
        <time>2021-05-20T12:11:55Z</time>
      </trkpt>
      <trkpt lat="42.2304520" lon="-8.7069090">
        <ele>103.4</ele>
        <time>2021-05-20T12:11:56Z</time>
      </trkpt>
      <trkpt lat="42.2304590" lon="-8.7069140">
        <ele>103.4</ele>
        <time>2021-05-20T12:11:57Z</time>
      </trkpt>
      <trkpt lat="42.2304770" lon="-8.7069020">
        <ele>103.4</ele>
        <time>2021-05-20T12:11:58Z</time>
      </trkpt>
      <trkpt lat="42.2304680" lon="-8.7068940">
        <ele>103.4</ele>
        <time>2021-05-20T12:11:59Z</time>
      </trkpt>
      <trkpt lat="42.2304650" lon="-8.7068950">
        <ele>103.4</ele>
        <time>2021-05-20T12:12:00Z</time>
      </trkpt>
      <trkpt lat="42.2304610" lon="-8.7068950">
        <ele>103.4</ele>
        <time>2021-05-20T12:12:01Z</time>
      </trkpt>
      <trkpt lat="42.2304580" lon="-8.7068960">
        <ele>103.4</ele>
        <time>2021-05-20T12:12:02Z</time>
      </trkpt>
      <trkpt lat="42.2304540" lon="-8.7068960">
        <ele>103.4</ele>
        <time>2021-05-20T12:12:03Z</time>
      </trkpt>
      <trkpt lat="42.2304500" lon="-8.7068960">
        <ele>103.4</ele>
        <time>2021-05-20T12:12:04Z</time>
      </trkpt>
      <trkpt lat="42.2304470" lon="-8.7068970">
        <ele>103.4</ele>
        <time>2021-05-20T12:12:05Z</time>
      </trkpt>
      <trkpt lat="42.2304430" lon="-8.7068970">
        <ele>103.4</ele>
        <time>2021-05-20T12:12:06Z</time>
      </trkpt>
      <trkpt lat="42.2304400" lon="-8.7068980">
        <ele>103.4</ele>
        <time>2021-05-20T12:12:07Z</time>
      </trkpt>
      <trkpt lat="42.2304360" lon="-8.7068980">
        <ele>103.4</ele>
        <time>2021-05-20T12:12:08Z</time>
      </trkpt>
      <trkpt lat="42.2304230" lon="-8.7069150">
        <ele>103.4</ele>
        <time>2021-05-20T12:12:09Z</time>
      </trkpt>
      <trkpt lat="42.2304200" lon="-8.7069260">
        <ele>103.4</ele>
        <time>2021-05-20T12:12:10Z</time>
      </trkpt>
      <trkpt lat="42.2304260" lon="-8.7069300">
        <ele>103.4</ele>
        <time>2021-05-20T12:12:11Z</time>
      </trkpt>
      <trkpt lat="42.2304350" lon="-8.7069450">
        <ele>103.4</ele>
        <time>2021-05-20T12:12:12Z</time>
      </trkpt>
      <trkpt lat="42.2304380" lon="-8.7069480">
        <ele>103.4</ele>
        <time>2021-05-20T12:12:13Z</time>
      </trkpt>
      <trkpt lat="42.2304390" lon="-8.7069490">
        <ele>103.4</ele>
        <time>2021-05-20T12:12:14Z</time>
      </trkpt>
      <trkpt lat="42.2304510" lon="-8.7069610">
        <ele>103.4</ele>
        <time>2021-05-20T12:12:15Z</time>
      </trkpt>
      <trkpt lat="42.2304500" lon="-8.7069800">
        <ele>103.4</ele>
        <time>2021-05-20T12:12:16Z</time>
      </trkpt>
      <trkpt lat="42.2304480" lon="-8.7069860">
        <ele>103.4</ele>
        <time>2021-05-20T12:12:17Z</time>
      </trkpt>
      <trkpt lat="42.2304450" lon="-8.7069940">
        <ele>103.4</ele>
        <time>2021-05-20T12:12:18Z</time>
      </trkpt>
      <trkpt lat="42.2304540" lon="-8.7070000">
        <ele>103.4</ele>
        <time>2021-05-20T12:12:19Z</time>
      </trkpt>
      <trkpt lat="42.2304710" lon="-8.7070080">
        <ele>103.4</ele>
        <time>2021-05-20T12:12:20Z</time>
      </trkpt>
      <trkpt lat="42.2304850" lon="-8.7070240">
        <ele>103.4</ele>
        <time>2021-05-20T12:12:21Z</time>
      </trkpt>
      <trkpt lat="42.2304990" lon="-8.7070320">
        <ele>103.3</ele>
        <time>2021-05-20T12:12:22Z</time>
      </trkpt>
      <trkpt lat="42.2305110" lon="-8.7070330">
        <ele>103.3</ele>
        <time>2021-05-20T12:12:23Z</time>
      </trkpt>
      <trkpt lat="42.2305300" lon="-8.7070480">
        <ele>102.9</ele>
        <time>2021-05-20T12:12:24Z</time>
      </trkpt>
      <trkpt lat="42.2305520" lon="-8.7070840">
        <ele>102.8</ele>
        <time>2021-05-20T12:12:25Z</time>
      </trkpt>
      <trkpt lat="42.2305590" lon="-8.7070930">
        <ele>102.8</ele>
        <time>2021-05-20T12:12:26Z</time>
      </trkpt>
      <trkpt lat="42.2305890" lon="-8.7071050">
        <ele>102.6</ele>
        <time>2021-05-20T12:12:27Z</time>
      </trkpt>
      <trkpt lat="42.2306000" lon="-8.7071130">
        <ele>102.6</ele>
        <time>2021-05-20T12:12:28Z</time>
      </trkpt>
      <trkpt lat="42.2306270" lon="-8.7071290">
        <ele>102.5</ele>
        <time>2021-05-20T12:12:29Z</time>
      </trkpt>
      <trkpt lat="42.2306360" lon="-8.7071350">
        <ele>102.4</ele>
        <time>2021-05-20T12:12:30Z</time>
      </trkpt>
      <trkpt lat="42.2306600" lon="-8.7071590">
        <ele>102.3</ele>
        <time>2021-05-20T12:12:31Z</time>
      </trkpt>
      <trkpt lat="42.2306870" lon="-8.7071940">
        <ele>102.1</ele>
        <time>2021-05-20T12:12:32Z</time>
      </trkpt>
      <trkpt lat="42.2306940" lon="-8.7072080">
        <ele>102.1</ele>
        <time>2021-05-20T12:12:33Z</time>
      </trkpt>
      <trkpt lat="42.2307230" lon="-8.7072350">
        <ele>101.9</ele>
        <time>2021-05-20T12:12:34Z</time>
      </trkpt>
      <trkpt lat="42.2307310" lon="-8.7072440">
        <ele>101.9</ele>
        <time>2021-05-20T12:12:35Z</time>
      </trkpt>
      <trkpt lat="42.2307330" lon="-8.7072430">
        <ele>101.9</ele>
        <time>2021-05-20T12:12:36Z</time>
      </trkpt>
      <trkpt lat="42.2307400" lon="-8.7072390">
        <ele>101.9</ele>
        <time>2021-05-20T12:12:37Z</time>
      </trkpt>
      <trkpt lat="42.2307640" lon="-8.7072590">
        <ele>101.7</ele>
        <time>2021-05-20T12:12:38Z</time>
      </trkpt>
      <trkpt lat="42.2307900" lon="-8.7072830">
        <ele>101.6</ele>
        <time>2021-05-20T12:12:39Z</time>
      </trkpt>
      <trkpt lat="42.2308130" lon="-8.7073030">
        <ele>101.5</ele>
        <time>2021-05-20T12:12:40Z</time>
      </trkpt>
      <trkpt lat="42.2308240" lon="-8.7073080">
        <ele>101.5</ele>
        <time>2021-05-20T12:12:41Z</time>
      </trkpt>
      <trkpt lat="42.2308560" lon="-8.7073260">
        <ele>101.4</ele>
        <time>2021-05-20T12:12:42Z</time>
      </trkpt>
      <trkpt lat="42.2308900" lon="-8.7073380">
        <ele>101.3</ele>
        <time>2021-05-20T12:12:43Z</time>
      </trkpt>
      <trkpt lat="42.2309180" lon="-8.7073530">
        <ele>101.2</ele>
        <time>2021-05-20T12:12:44Z</time>
      </trkpt>
      <trkpt lat="42.2309390" lon="-8.7073720">
        <ele>101.1</ele>
        <time>2021-05-20T12:12:45Z</time>
      </trkpt>
      <trkpt lat="42.2309500" lon="-8.7073830">
        <ele>101.1</ele>
        <time>2021-05-20T12:12:46Z</time>
      </trkpt>
      <trkpt lat="42.2309620" lon="-8.7073910">
        <ele>101.0</ele>
        <time>2021-05-20T12:12:47Z</time>
      </trkpt>
      <trkpt lat="42.2309750" lon="-8.7074080">
        <ele>100.9</ele>
        <time>2021-05-20T12:12:48Z</time>
      </trkpt>
      <trkpt lat="42.2309820" lon="-8.7074290">
        <ele>100.9</ele>
        <time>2021-05-20T12:12:49Z</time>
      </trkpt>
      <trkpt lat="42.2309880" lon="-8.7074470">
        <ele>100.9</ele>
        <time>2021-05-20T12:12:50Z</time>
      </trkpt>
      <trkpt lat="42.2310170" lon="-8.7074550">
        <ele>100.8</ele>
        <time>2021-05-20T12:12:51Z</time>
      </trkpt>
      <trkpt lat="42.2310290" lon="-8.7074580">
        <ele>100.8</ele>
        <time>2021-05-20T12:12:52Z</time>
      </trkpt>
      <trkpt lat="42.2310480" lon="-8.7074600">
        <ele>100.7</ele>
        <time>2021-05-20T12:12:53Z</time>
      </trkpt>
      <trkpt lat="42.2310640" lon="-8.7074600">
        <ele>100.7</ele>
        <time>2021-05-20T12:12:54Z</time>
      </trkpt>
      <trkpt lat="42.2310770" lon="-8.7074510">
        <ele>100.7</ele>
        <time>2021-05-20T12:12:55Z</time>
      </trkpt>
      <trkpt lat="42.2310850" lon="-8.7074460">
        <ele>100.7</ele>
        <time>2021-05-20T12:12:56Z</time>
      </trkpt>
      <trkpt lat="42.2310930" lon="-8.7074330">
        <ele>100.7</ele>
        <time>2021-05-20T12:12:57Z</time>
      </trkpt>
      <trkpt lat="42.2311010" lon="-8.7074130">
        <ele>100.7</ele>
        <time>2021-05-20T12:12:58Z</time>
      </trkpt>
      <trkpt lat="42.2311050" lon="-8.7073940">
        <ele>100.7</ele>
        <time>2021-05-20T12:12:59Z</time>
      </trkpt>
      <trkpt lat="42.2311030" lon="-8.7073270">
        <ele>100.7</ele>
        <time>2021-05-20T12:13:00Z</time>
      </trkpt>
      <trkpt lat="42.2311110" lon="-8.7072680">
        <ele>100.7</ele>
        <time>2021-05-20T12:13:01Z</time>
      </trkpt>
      <trkpt lat="42.2311290" lon="-8.7071730">
        <ele>100.7</ele>
        <time>2021-05-20T12:13:02Z</time>
      </trkpt>
      <trkpt lat="42.2311480" lon="-8.7071170">
        <ele>100.8</ele>
        <time>2021-05-20T12:13:03Z</time>
      </trkpt>
      <trkpt lat="42.2311560" lon="-8.7070670">
        <ele>100.8</ele>
        <time>2021-05-20T12:13:04Z</time>
      </trkpt>
      <trkpt lat="42.2311640" lon="-8.7070240">
        <ele>100.8</ele>
        <time>2021-05-20T12:13:05Z</time>
      </trkpt>
      <trkpt lat="42.2311740" lon="-8.7069840">
        <ele>100.8</ele>
        <time>2021-05-20T12:13:06Z</time>
      </trkpt>
      <trkpt lat="42.2311860" lon="-8.7069500">
        <ele>100.8</ele>
        <time>2021-05-20T12:13:07Z</time>
      </trkpt>
      <trkpt lat="42.2311910" lon="-8.7069130">
        <ele>100.8</ele>
        <time>2021-05-20T12:13:08Z</time>
      </trkpt>
      <trkpt lat="42.2311920" lon="-8.7068720">
        <ele>100.8</ele>
        <time>2021-05-20T12:13:09Z</time>
      </trkpt>
      <trkpt lat="42.2312040" lon="-8.7068180">
        <ele>100.8</ele>
        <time>2021-05-20T12:13:10Z</time>
      </trkpt>
      <trkpt lat="42.2312090" lon="-8.7067930">
        <ele>100.9</ele>
        <time>2021-05-20T12:13:11Z</time>
      </trkpt>
      <trkpt lat="42.2312210" lon="-8.7067590">
        <ele>100.9</ele>
        <time>2021-05-20T12:13:12Z</time>
      </trkpt>
      <trkpt lat="42.2312270" lon="-8.7067510">
        <ele>100.9</ele>
        <time>2021-05-20T12:13:13Z</time>
      </trkpt>
      <trkpt lat="42.2312350" lon="-8.7067360">
        <ele>100.9</ele>
        <time>2021-05-20T12:13:14Z</time>
      </trkpt>
      <trkpt lat="42.2312320" lon="-8.7067080">
        <ele>100.9</ele>
        <time>2021-05-20T12:13:15Z</time>
      </trkpt>
      <trkpt lat="42.2312410" lon="-8.7066660">
        <ele>100.9</ele>
        <time>2021-05-20T12:13:16Z</time>
      </trkpt>
      <trkpt lat="42.2312450" lon="-8.7066540">
        <ele>100.9</ele>
        <time>2021-05-20T12:13:17Z</time>
      </trkpt>
      <trkpt lat="42.2312500" lon="-8.7066270">
        <ele>100.9</ele>
        <time>2021-05-20T12:13:18Z</time>
      </trkpt>
      <trkpt lat="42.2312510" lon="-8.7066060">
        <ele>100.9</ele>
        <time>2021-05-20T12:13:19Z</time>
      </trkpt>
      <trkpt lat="42.2312470" lon="-8.7065810">
        <ele>100.9</ele>
        <time>2021-05-20T12:13:20Z</time>
      </trkpt>
      <trkpt lat="42.2312430" lon="-8.7065670">
        <ele>101.0</ele>
        <time>2021-05-20T12:13:21Z</time>
      </trkpt>
      <trkpt lat="42.2312420" lon="-8.7065400">
        <ele>101.0</ele>
        <time>2021-05-20T12:13:22Z</time>
      </trkpt>
      <trkpt lat="42.2312350" lon="-8.7065220">
        <ele>101.0</ele>
        <time>2021-05-20T12:13:23Z</time>
      </trkpt>
      <trkpt lat="42.2312270" lon="-8.7064840">
        <ele>101.0</ele>
        <time>2021-05-20T12:13:24Z</time>
      </trkpt>
      <trkpt lat="42.2312220" lon="-8.7064670">
        <ele>101.0</ele>
        <time>2021-05-20T12:13:25Z</time>
      </trkpt>
      <trkpt lat="42.2312320" lon="-8.7064430">
        <ele>101.0</ele>
        <time>2021-05-20T12:13:26Z</time>
      </trkpt>
      <trkpt lat="42.2312630" lon="-8.7064160">
        <ele>101.0</ele>
        <time>2021-05-20T12:13:27Z</time>
      </trkpt>
      <trkpt lat="42.2312710" lon="-8.7064000">
        <ele>101.1</ele>
        <time>2021-05-20T12:13:28Z</time>
      </trkpt>
      <trkpt lat="42.2312690" lon="-8.7063610">
        <ele>101.1</ele>
        <time>2021-05-20T12:13:29Z</time>
      </trkpt>
      <trkpt lat="42.2312630" lon="-8.7063160">
        <ele>101.1</ele>
        <time>2021-05-20T12:13:30Z</time>
      </trkpt>
      <trkpt lat="42.2312660" lon="-8.7063030">
        <ele>101.1</ele>
        <time>2021-05-20T12:13:31Z</time>
      </trkpt>
      <trkpt lat="42.2312700" lon="-8.7062820">
        <ele>101.1</ele>
        <time>2021-05-20T12:13:32Z</time>
      </trkpt>
      <trkpt lat="42.2312650" lon="-8.7062600">
        <ele>101.1</ele>
        <time>2021-05-20T12:13:33Z</time>
      </trkpt>
      <trkpt lat="42.2312530" lon="-8.7062200">
        <ele>101.2</ele>
        <time>2021-05-20T12:13:34Z</time>
      </trkpt>
      <trkpt lat="42.2312400" lon="-8.7061960">
        <ele>101.2</ele>
        <time>2021-05-20T12:13:35Z</time>
      </trkpt>
      <trkpt lat="42.2312370" lon="-8.7061860">
        <ele>101.2</ele>
        <time>2021-05-20T12:13:36Z</time>
      </trkpt>
      <trkpt lat="42.2312330" lon="-8.7061750">
        <ele>101.2</ele>
        <time>2021-05-20T12:13:37Z</time>
      </trkpt>
      <trkpt lat="42.2312190" lon="-8.7061560">
        <ele>101.2</ele>
        <time>2021-05-20T12:13:38Z</time>
      </trkpt>
      <trkpt lat="42.2312100" lon="-8.7061440">
        <ele>101.2</ele>
        <time>2021-05-20T12:13:39Z</time>
      </trkpt>
      <trkpt lat="42.2311910" lon="-8.7061340">
        <ele>101.3</ele>
        <time>2021-05-20T12:13:40Z</time>
      </trkpt>
      <trkpt lat="42.2311850" lon="-8.7061240">
        <ele>101.3</ele>
        <time>2021-05-20T12:13:41Z</time>
      </trkpt>
      <trkpt lat="42.2311800" lon="-8.7061140">
        <ele>101.3</ele>
        <time>2021-05-20T12:13:42Z</time>
      </trkpt>
      <trkpt lat="42.2311860" lon="-8.7060780">
        <ele>101.3</ele>
        <time>2021-05-20T12:13:43Z</time>
      </trkpt>
      <trkpt lat="42.2311820" lon="-8.7060420">
        <ele>101.4</ele>
        <time>2021-05-20T12:13:44Z</time>
      </trkpt>
      <trkpt lat="42.2311860" lon="-8.7060200">
        <ele>101.4</ele>
        <time>2021-05-20T12:13:45Z</time>
      </trkpt>
      <trkpt lat="42.2311850" lon="-8.7060000">
        <ele>101.4</ele>
        <time>2021-05-20T12:13:46Z</time>
      </trkpt>
      <trkpt lat="42.2311780" lon="-8.7059840">
        <ele>101.4</ele>
        <time>2021-05-20T12:13:47Z</time>
      </trkpt>
      <trkpt lat="42.2311790" lon="-8.7059600">
        <ele>101.4</ele>
        <time>2021-05-20T12:13:48Z</time>
      </trkpt>
      <trkpt lat="42.2311830" lon="-8.7059350">
        <ele>101.5</ele>
        <time>2021-05-20T12:13:49Z</time>
      </trkpt>
      <trkpt lat="42.2311850" lon="-8.7059240">
        <ele>101.5</ele>
        <time>2021-05-20T12:13:50Z</time>
      </trkpt>
      <trkpt lat="42.2311880" lon="-8.7059120">
        <ele>101.5</ele>
        <time>2021-05-20T12:13:51Z</time>
      </trkpt>
      <trkpt lat="42.2311890" lon="-8.7058990">
        <ele>101.5</ele>
        <time>2021-05-20T12:13:52Z</time>
      </trkpt>
      <trkpt lat="42.2311830" lon="-8.7058920">
        <ele>101.5</ele>
        <time>2021-05-20T12:13:53Z</time>
      </trkpt>
      <trkpt lat="42.2311760" lon="-8.7058750">
        <ele>101.6</ele>
        <time>2021-05-20T12:13:54Z</time>
      </trkpt>
      <trkpt lat="42.2311730" lon="-8.7058520">
        <ele>101.6</ele>
        <time>2021-05-20T12:13:55Z</time>
      </trkpt>
      <trkpt lat="42.2311730" lon="-8.7058410">
        <ele>101.6</ele>
        <time>2021-05-20T12:13:56Z</time>
      </trkpt>
      <trkpt lat="42.2311730" lon="-8.7058310">
        <ele>101.6</ele>
        <time>2021-05-20T12:13:57Z</time>
      </trkpt>
      <trkpt lat="42.2311730" lon="-8.7058200">
        <ele>101.6</ele>
        <time>2021-05-20T12:13:58Z</time>
      </trkpt>
      <trkpt lat="42.2311680" lon="-8.7057990">
        <ele>101.7</ele>
        <time>2021-05-20T12:13:59Z</time>
      </trkpt>
      <trkpt lat="42.2311650" lon="-8.7057940">
        <ele>101.7</ele>
        <time>2021-05-20T12:14:00Z</time>
      </trkpt>
      <trkpt lat="42.2311860" lon="-8.7057990">
        <ele>101.7</ele>
        <time>2021-05-20T12:14:01Z</time>
      </trkpt>
      <trkpt lat="42.2311790" lon="-8.7057940">
        <ele>101.7</ele>
        <time>2021-05-20T12:14:02Z</time>
      </trkpt>
      <trkpt lat="42.2311860" lon="-8.7057900">
        <ele>101.7</ele>
        <time>2021-05-20T12:14:03Z</time>
      </trkpt>
      <trkpt lat="42.2311870" lon="-8.7057930">
        <ele>101.7</ele>
        <time>2021-05-20T12:14:04Z</time>
      </trkpt>
      <trkpt lat="42.2311890" lon="-8.7057870">
        <ele>101.8</ele>
        <time>2021-05-20T12:14:05Z</time>
      </trkpt>
      <trkpt lat="42.2311900" lon="-8.7057800">
        <ele>101.8</ele>
        <time>2021-05-20T12:14:06Z</time>
      </trkpt>
      <trkpt lat="42.2311850" lon="-8.7057610">
        <ele>101.8</ele>
        <time>2021-05-20T12:14:07Z</time>
      </trkpt>
      <trkpt lat="42.2311850" lon="-8.7057620">
        <ele>101.8</ele>
        <time>2021-05-20T12:14:08Z</time>
      </trkpt>
      <trkpt lat="42.2311820" lon="-8.7057580">
        <ele>101.8</ele>
        <time>2021-05-20T12:14:09Z</time>
      </trkpt>
      <trkpt lat="42.2311780" lon="-8.7057550">
        <ele>101.8</ele>
        <time>2021-05-20T12:14:10Z</time>
      </trkpt>
      <trkpt lat="42.2311760" lon="-8.7057560">
        <ele>101.8</ele>
        <time>2021-05-20T12:14:11Z</time>
      </trkpt>
      <trkpt lat="42.2311770" lon="-8.7057510">
        <ele>101.8</ele>
        <time>2021-05-20T12:14:12Z</time>
      </trkpt>
      <trkpt lat="42.2311750" lon="-8.7057480">
        <ele>101.8</ele>
        <time>2021-05-20T12:14:13Z</time>
      </trkpt>
      <trkpt lat="42.2311770" lon="-8.7057360">
        <ele>101.8</ele>
        <time>2021-05-20T12:14:14Z</time>
      </trkpt>
      <trkpt lat="42.2311730" lon="-8.7057280">
        <ele>101.9</ele>
        <time>2021-05-20T12:14:15Z</time>
      </trkpt>
      <trkpt lat="42.2311720" lon="-8.7057250">
        <ele>101.9</ele>
        <time>2021-05-20T12:14:16Z</time>
      </trkpt>
      <trkpt lat="42.2311740" lon="-8.7057170">
        <ele>101.9</ele>
        <time>2021-05-20T12:14:17Z</time>
      </trkpt>
      <trkpt lat="42.2311840" lon="-8.7057050">
        <ele>101.9</ele>
        <time>2021-05-20T12:14:18Z</time>
      </trkpt>
      <trkpt lat="42.2311750" lon="-8.7056850">
        <ele>101.9</ele>
        <time>2021-05-20T12:14:19Z</time>
      </trkpt>
      <trkpt lat="42.2311700" lon="-8.7056710">
        <ele>101.9</ele>
        <time>2021-05-20T12:14:20Z</time>
      </trkpt>
      <trkpt lat="42.2311640" lon="-8.7056580">
        <ele>102.0</ele>
        <time>2021-05-20T12:14:21Z</time>
      </trkpt>
      <trkpt lat="42.2311580" lon="-8.7056560">
        <ele>102.0</ele>
        <time>2021-05-20T12:14:22Z</time>
      </trkpt>
      <trkpt lat="42.2311540" lon="-8.7056490">
        <ele>102.0</ele>
        <time>2021-05-20T12:14:23Z</time>
      </trkpt>
      <trkpt lat="42.2311430" lon="-8.7056470">
        <ele>102.0</ele>
        <time>2021-05-20T12:14:24Z</time>
      </trkpt>
      <trkpt lat="42.2311380" lon="-8.7056270">
        <ele>102.0</ele>
        <time>2021-05-20T12:14:25Z</time>
      </trkpt>
      <trkpt lat="42.2311320" lon="-8.7056140">
        <ele>102.0</ele>
        <time>2021-05-20T12:14:26Z</time>
      </trkpt>
      <trkpt lat="42.2311270" lon="-8.7056040">
        <ele>102.0</ele>
        <time>2021-05-20T12:14:27Z</time>
      </trkpt>
      <trkpt lat="42.2311250" lon="-8.7055940">
        <ele>102.0</ele>
        <time>2021-05-20T12:14:28Z</time>
      </trkpt>
      <trkpt lat="42.2311290" lon="-8.7055830">
        <ele>102.0</ele>
        <time>2021-05-20T12:14:29Z</time>
      </trkpt>
      <trkpt lat="42.2311300" lon="-8.7055730">
        <ele>102.1</ele>
        <time>2021-05-20T12:14:30Z</time>
      </trkpt>
      <trkpt lat="42.2311310" lon="-8.7055640">
        <ele>102.1</ele>
        <time>2021-05-20T12:14:31Z</time>
      </trkpt>
      <trkpt lat="42.2311310" lon="-8.7055540">
        <ele>102.1</ele>
        <time>2021-05-20T12:14:32Z</time>
      </trkpt>
      <trkpt lat="42.2311320" lon="-8.7055440">
        <ele>102.1</ele>
        <time>2021-05-20T12:14:33Z</time>
      </trkpt>
      <trkpt lat="42.2311330" lon="-8.7055340">
        <ele>102.1</ele>
        <time>2021-05-20T12:14:34Z</time>
      </trkpt>
      <trkpt lat="42.2311350" lon="-8.7055300">
        <ele>102.1</ele>
        <time>2021-05-20T12:14:35Z</time>
      </trkpt>
      <trkpt lat="42.2311440" lon="-8.7055160">
        <ele>102.1</ele>
        <time>2021-05-20T12:14:36Z</time>
      </trkpt>
      <trkpt lat="42.2311480" lon="-8.7055140">
        <ele>102.1</ele>
        <time>2021-05-20T12:14:37Z</time>
      </trkpt>
      <trkpt lat="42.2311350" lon="-8.7054960">
        <ele>102.1</ele>
        <time>2021-05-20T12:14:38Z</time>
      </trkpt>
      <trkpt lat="42.2311210" lon="-8.7054530">
        <ele>102.1</ele>
        <time>2021-05-20T12:14:39Z</time>
      </trkpt>
      <trkpt lat="42.2311220" lon="-8.7054290">
        <ele>102.1</ele>
        <time>2021-05-20T12:14:40Z</time>
      </trkpt>
      <trkpt lat="42.2311290" lon="-8.7054160">
        <ele>102.2</ele>
        <time>2021-05-20T12:14:41Z</time>
      </trkpt>
      <trkpt lat="42.2311430" lon="-8.7053830">
        <ele>102.2</ele>
        <time>2021-05-20T12:14:42Z</time>
      </trkpt>
      <trkpt lat="42.2311460" lon="-8.7053670">
        <ele>102.2</ele>
        <time>2021-05-20T12:14:43Z</time>
      </trkpt>
      <trkpt lat="42.2311310" lon="-8.7053480">
        <ele>102.2</ele>
        <time>2021-05-20T12:14:44Z</time>
      </trkpt>
      <trkpt lat="42.2311320" lon="-8.7053320">
        <ele>102.2</ele>
        <time>2021-05-20T12:14:45Z</time>
      </trkpt>
      <trkpt lat="42.2311310" lon="-8.7053080">
        <ele>102.2</ele>
        <time>2021-05-20T12:14:46Z</time>
      </trkpt>
      <trkpt lat="42.2311140" lon="-8.7052920">
        <ele>102.3</ele>
        <time>2021-05-20T12:14:47Z</time>
      </trkpt>
      <trkpt lat="42.2311010" lon="-8.7052670">
        <ele>102.3</ele>
        <time>2021-05-20T12:14:48Z</time>
      </trkpt>
      <trkpt lat="42.2310980" lon="-8.7052560">
        <ele>102.3</ele>
        <time>2021-05-20T12:14:49Z</time>
      </trkpt>
      <trkpt lat="42.2310950" lon="-8.7052450">
        <ele>102.3</ele>
        <time>2021-05-20T12:14:50Z</time>
      </trkpt>
      <trkpt lat="42.2310810" lon="-8.7052130">
        <ele>102.3</ele>
        <time>2021-05-20T12:14:51Z</time>
      </trkpt>
      <trkpt lat="42.2310820" lon="-8.7052000">
        <ele>102.3</ele>
        <time>2021-05-20T12:14:52Z</time>
      </trkpt>
      <trkpt lat="42.2310820" lon="-8.7051880">
        <ele>102.3</ele>
        <time>2021-05-20T12:14:53Z</time>
      </trkpt>
      <trkpt lat="42.2310700" lon="-8.7051660">
        <ele>102.4</ele>
        <time>2021-05-20T12:14:54Z</time>
      </trkpt>
      <trkpt lat="42.2310740" lon="-8.7051450">
        <ele>102.4</ele>
        <time>2021-05-20T12:14:55Z</time>
      </trkpt>
      <trkpt lat="42.2310660" lon="-8.7051040">
        <ele>102.4</ele>
        <time>2021-05-20T12:14:56Z</time>
      </trkpt>
      <trkpt lat="42.2310660" lon="-8.7050910">
        <ele>102.4</ele>
        <time>2021-05-20T12:14:57Z</time>
      </trkpt>
      <trkpt lat="42.2310720" lon="-8.7050640">
        <ele>102.4</ele>
        <time>2021-05-20T12:14:58Z</time>
      </trkpt>
      <trkpt lat="42.2310750" lon="-8.7050500">
        <ele>102.4</ele>
        <time>2021-05-20T12:14:59Z</time>
      </trkpt>
      <trkpt lat="42.2310790" lon="-8.7050360">
        <ele>102.4</ele>
        <time>2021-05-20T12:15:00Z</time>
      </trkpt>
      <trkpt lat="42.2310800" lon="-8.7050100">
        <ele>102.5</ele>
        <time>2021-05-20T12:15:01Z</time>
      </trkpt>
      <trkpt lat="42.2310860" lon="-8.7049970">
        <ele>102.5</ele>
        <time>2021-05-20T12:15:02Z</time>
      </trkpt>
      <trkpt lat="42.2310920" lon="-8.7049720">
        <ele>102.5</ele>
        <time>2021-05-20T12:15:03Z</time>
      </trkpt>
      <trkpt lat="42.2310960" lon="-8.7049540">
        <ele>102.5</ele>
        <time>2021-05-20T12:15:04Z</time>
      </trkpt>
      <trkpt lat="42.2311040" lon="-8.7049380">
        <ele>102.5</ele>
        <time>2021-05-20T12:15:05Z</time>
      </trkpt>
      <trkpt lat="42.2311140" lon="-8.7049250">
        <ele>102.5</ele>
        <time>2021-05-20T12:15:06Z</time>
      </trkpt>
      <trkpt lat="42.2311040" lon="-8.7049020">
        <ele>102.5</ele>
        <time>2021-05-20T12:15:07Z</time>
      </trkpt>
      <trkpt lat="42.2310990" lon="-8.7048880">
        <ele>102.5</ele>
        <time>2021-05-20T12:15:08Z</time>
      </trkpt>
      <trkpt lat="42.2310950" lon="-8.7048730">
        <ele>102.6</ele>
        <time>2021-05-20T12:15:09Z</time>
      </trkpt>
      <trkpt lat="42.2310980" lon="-8.7048630">
        <ele>102.6</ele>
        <time>2021-05-20T12:15:10Z</time>
      </trkpt>
      <trkpt lat="42.2310970" lon="-8.7048410">
        <ele>102.6</ele>
        <time>2021-05-20T12:15:11Z</time>
      </trkpt>
      <trkpt lat="42.2310900" lon="-8.7048340">
        <ele>102.6</ele>
        <time>2021-05-20T12:15:12Z</time>
      </trkpt>
      <trkpt lat="42.2310910" lon="-8.7048170">
        <ele>102.6</ele>
        <time>2021-05-20T12:15:13Z</time>
      </trkpt>
      <trkpt lat="42.2310850" lon="-8.7047930">
        <ele>102.6</ele>
        <time>2021-05-20T12:15:14Z</time>
      </trkpt>
      <trkpt lat="42.2310880" lon="-8.7047890">
        <ele>102.6</ele>
        <time>2021-05-20T12:15:15Z</time>
      </trkpt>
      <trkpt lat="42.2310860" lon="-8.7047610">
        <ele>102.6</ele>
        <time>2021-05-20T12:15:16Z</time>
      </trkpt>
      <trkpt lat="42.2310920" lon="-8.7047490">
        <ele>102.6</ele>
        <time>2021-05-20T12:15:17Z</time>
      </trkpt>
      <trkpt lat="42.2310900" lon="-8.7047300">
        <ele>102.7</ele>
        <time>2021-05-20T12:15:18Z</time>
      </trkpt>
      <trkpt lat="42.2310870" lon="-8.7047150">
        <ele>102.7</ele>
        <time>2021-05-20T12:15:19Z</time>
      </trkpt>
      <trkpt lat="42.2310830" lon="-8.7047010">
        <ele>102.7</ele>
        <time>2021-05-20T12:15:20Z</time>
      </trkpt>
      <trkpt lat="42.2310800" lon="-8.7046870">
        <ele>102.7</ele>
        <time>2021-05-20T12:15:21Z</time>
      </trkpt>
      <trkpt lat="42.2310880" lon="-8.7046640">
        <ele>102.7</ele>
        <time>2021-05-20T12:15:22Z</time>
      </trkpt>
      <trkpt lat="42.2310890" lon="-8.7046510">
        <ele>102.7</ele>
        <time>2021-05-20T12:15:23Z</time>
      </trkpt>
      <trkpt lat="42.2310900" lon="-8.7046390">
        <ele>102.7</ele>
        <time>2021-05-20T12:15:24Z</time>
      </trkpt>
      <trkpt lat="42.2311000" lon="-8.7046230">
        <ele>102.7</ele>
        <time>2021-05-20T12:15:25Z</time>
      </trkpt>
      <trkpt lat="42.2311050" lon="-8.7046080">
        <ele>102.7</ele>
        <time>2021-05-20T12:15:26Z</time>
      </trkpt>
      <trkpt lat="42.2311090" lon="-8.7045940">
        <ele>102.8</ele>
        <time>2021-05-20T12:15:27Z</time>
      </trkpt>
      <trkpt lat="42.2311140" lon="-8.7045850">
        <ele>102.8</ele>
        <time>2021-05-20T12:15:28Z</time>
      </trkpt>
      <trkpt lat="42.2311190" lon="-8.7045600">
        <ele>102.8</ele>
        <time>2021-05-20T12:15:29Z</time>
      </trkpt>
      <trkpt lat="42.2311230" lon="-8.7045360">
        <ele>102.8</ele>
        <time>2021-05-20T12:15:30Z</time>
      </trkpt>
      <trkpt lat="42.2311270" lon="-8.7045190">
        <ele>102.8</ele>
        <time>2021-05-20T12:15:31Z</time>
      </trkpt>
      <trkpt lat="42.2311320" lon="-8.7045060">
        <ele>102.8</ele>
        <time>2021-05-20T12:15:32Z</time>
      </trkpt>
      <trkpt lat="42.2311260" lon="-8.7044930">
        <ele>102.8</ele>
        <time>2021-05-20T12:15:33Z</time>
      </trkpt>
      <trkpt lat="42.2311260" lon="-8.7044860">
        <ele>102.8</ele>
        <time>2021-05-20T12:15:34Z</time>
      </trkpt>
      <trkpt lat="42.2311280" lon="-8.7044710">
        <ele>102.9</ele>
        <time>2021-05-20T12:15:35Z</time>
      </trkpt>
      <trkpt lat="42.2311290" lon="-8.7044530">
        <ele>102.9</ele>
        <time>2021-05-20T12:15:36Z</time>
      </trkpt>
      <trkpt lat="42.2311320" lon="-8.7044390">
        <ele>102.9</ele>
        <time>2021-05-20T12:15:37Z</time>
      </trkpt>
      <trkpt lat="42.2311360" lon="-8.7044310">
        <ele>102.9</ele>
        <time>2021-05-20T12:15:38Z</time>
      </trkpt>
      <trkpt lat="42.2311460" lon="-8.7044030">
        <ele>102.9</ele>
        <time>2021-05-20T12:15:39Z</time>
      </trkpt>
      <trkpt lat="42.2311500" lon="-8.7043880">
        <ele>102.9</ele>
        <time>2021-05-20T12:15:40Z</time>
      </trkpt>
      <trkpt lat="42.2311530" lon="-8.7043730">
        <ele>102.9</ele>
        <time>2021-05-20T12:15:41Z</time>
      </trkpt>
      <trkpt lat="42.2311540" lon="-8.7043330">
        <ele>103.0</ele>
        <time>2021-05-20T12:15:42Z</time>
      </trkpt>
      <trkpt lat="42.2311510" lon="-8.7043180">
        <ele>103.0</ele>
        <time>2021-05-20T12:15:43Z</time>
      </trkpt>
      <trkpt lat="42.2311490" lon="-8.7042920">
        <ele>103.0</ele>
        <time>2021-05-20T12:15:45Z</time>
      </trkpt>
      <trkpt lat="42.2311420" lon="-8.7042750">
        <ele>103.0</ele>
        <time>2021-05-20T12:15:46Z</time>
      </trkpt>
      <trkpt lat="42.2311360" lon="-8.7042440">
        <ele>103.0</ele>
        <time>2021-05-20T12:15:47Z</time>
      </trkpt>
      <trkpt lat="42.2311260" lon="-8.7042360">
        <ele>103.0</ele>
        <time>2021-05-20T12:15:48Z</time>
      </trkpt>
      <trkpt lat="42.2311170" lon="-8.7042270">
        <ele>103.0</ele>
        <time>2021-05-20T12:15:49Z</time>
      </trkpt>
      <trkpt lat="42.2311010" lon="-8.7042220">
        <ele>103.0</ele>
        <time>2021-05-20T12:15:50Z</time>
      </trkpt>
      <trkpt lat="42.2311000" lon="-8.7042150">
        <ele>103.1</ele>
        <time>2021-05-20T12:15:51Z</time>
      </trkpt>
      <trkpt lat="42.2310850" lon="-8.7042140">
        <ele>103.1</ele>
        <time>2021-05-20T12:15:52Z</time>
      </trkpt>
      <trkpt lat="42.2310680" lon="-8.7041990">
        <ele>103.1</ele>
        <time>2021-05-20T12:15:53Z</time>
      </trkpt>
      <trkpt lat="42.2310640" lon="-8.7041890">
        <ele>103.1</ele>
        <time>2021-05-20T12:15:54Z</time>
      </trkpt>
      <trkpt lat="42.2310550" lon="-8.7041780">
        <ele>103.1</ele>
        <time>2021-05-20T12:15:55Z</time>
      </trkpt>
      <trkpt lat="42.2310450" lon="-8.7041740">
        <ele>103.1</ele>
        <time>2021-05-20T12:15:56Z</time>
      </trkpt>
      <trkpt lat="42.2310390" lon="-8.7041540">
        <ele>103.1</ele>
        <time>2021-05-20T12:15:57Z</time>
      </trkpt>
      <trkpt lat="42.2310360" lon="-8.7041450">
        <ele>103.1</ele>
        <time>2021-05-20T12:15:58Z</time>
      </trkpt>
      <trkpt lat="42.2310320" lon="-8.7041260">
        <ele>103.1</ele>
        <time>2021-05-20T12:15:59Z</time>
      </trkpt>
      <trkpt lat="42.2310360" lon="-8.7041170">
        <ele>103.1</ele>
        <time>2021-05-20T12:16:00Z</time>
      </trkpt>
      <trkpt lat="42.2310330" lon="-8.7040760">
        <ele>103.2</ele>
        <time>2021-05-20T12:16:01Z</time>
      </trkpt>
      <trkpt lat="42.2310310" lon="-8.7040680">
        <ele>103.2</ele>
        <time>2021-05-20T12:16:02Z</time>
      </trkpt>
      <trkpt lat="42.2310300" lon="-8.7040410">
        <ele>103.2</ele>
        <time>2021-05-20T12:16:03Z</time>
      </trkpt>
      <trkpt lat="42.2310260" lon="-8.7040270">
        <ele>103.3</ele>
        <time>2021-05-20T12:16:04Z</time>
      </trkpt>
      <trkpt lat="42.2310220" lon="-8.7040140">
        <ele>103.3</ele>
        <time>2021-05-20T12:16:05Z</time>
      </trkpt>
      <trkpt lat="42.2310270" lon="-8.7039750">
        <ele>103.3</ele>
        <time>2021-05-20T12:16:06Z</time>
      </trkpt>
      <trkpt lat="42.2310300" lon="-8.7039610">
        <ele>103.3</ele>
        <time>2021-05-20T12:16:07Z</time>
      </trkpt>
      <trkpt lat="42.2310330" lon="-8.7039330">
        <ele>103.4</ele>
        <time>2021-05-20T12:16:08Z</time>
      </trkpt>
      <trkpt lat="42.2310320" lon="-8.7039210">
        <ele>103.4</ele>
        <time>2021-05-20T12:16:09Z</time>
      </trkpt>
      <trkpt lat="42.2310300" lon="-8.7039090">
        <ele>103.4</ele>
        <time>2021-05-20T12:16:10Z</time>
      </trkpt>
      <trkpt lat="42.2310370" lon="-8.7038940">
        <ele>103.4</ele>
        <time>2021-05-20T12:16:11Z</time>
      </trkpt>
      <trkpt lat="42.2310400" lon="-8.7038690">
        <ele>103.5</ele>
        <time>2021-05-20T12:16:12Z</time>
      </trkpt>
      <trkpt lat="42.2310400" lon="-8.7038460">
        <ele>103.5</ele>
        <time>2021-05-20T12:16:13Z</time>
      </trkpt>
      <trkpt lat="42.2310400" lon="-8.7038200">
        <ele>103.5</ele>
        <time>2021-05-20T12:16:14Z</time>
      </trkpt>
      <trkpt lat="42.2310450" lon="-8.7037980">
        <ele>103.6</ele>
        <time>2021-05-20T12:16:15Z</time>
      </trkpt>
      <trkpt lat="42.2310480" lon="-8.7037830">
        <ele>103.6</ele>
        <time>2021-05-20T12:16:16Z</time>
      </trkpt>
      <trkpt lat="42.2310520" lon="-8.7037690">
        <ele>103.6</ele>
        <time>2021-05-20T12:16:17Z</time>
      </trkpt>
      <trkpt lat="42.2310610" lon="-8.7037440">
        <ele>103.6</ele>
        <time>2021-05-20T12:16:18Z</time>
      </trkpt>
      <trkpt lat="42.2310750" lon="-8.7037320">
        <ele>103.7</ele>
        <time>2021-05-20T12:16:19Z</time>
      </trkpt>
      <trkpt lat="42.2310740" lon="-8.7037060">
        <ele>103.7</ele>
        <time>2021-05-20T12:16:20Z</time>
      </trkpt>
      <trkpt lat="42.2310740" lon="-8.7036920">
        <ele>103.7</ele>
        <time>2021-05-20T12:16:21Z</time>
      </trkpt>
      <trkpt lat="42.2310730" lon="-8.7036790">
        <ele>103.7</ele>
        <time>2021-05-20T12:16:22Z</time>
      </trkpt>
      <trkpt lat="42.2310690" lon="-8.7036490">
        <ele>103.7</ele>
        <time>2021-05-20T12:16:23Z</time>
      </trkpt>
      <trkpt lat="42.2310670" lon="-8.7036330">
        <ele>103.8</ele>
        <time>2021-05-20T12:16:24Z</time>
      </trkpt>
      <trkpt lat="42.2310650" lon="-8.7036180">
        <ele>103.8</ele>
        <time>2021-05-20T12:16:25Z</time>
      </trkpt>
      <trkpt lat="42.2310590" lon="-8.7036080">
        <ele>103.8</ele>
        <time>2021-05-20T12:16:26Z</time>
      </trkpt>
      <trkpt lat="42.2310490" lon="-8.7036020">
        <ele>103.8</ele>
        <time>2021-05-20T12:16:27Z</time>
      </trkpt>
      <trkpt lat="42.2310570" lon="-8.7035850">
        <ele>103.8</ele>
        <time>2021-05-20T12:16:28Z</time>
      </trkpt>
      <trkpt lat="42.2310620" lon="-8.7035720">
        <ele>103.8</ele>
        <time>2021-05-20T12:16:29Z</time>
      </trkpt>
      <trkpt lat="42.2310700" lon="-8.7035240">
        <ele>103.9</ele>
        <time>2021-05-20T12:16:30Z</time>
      </trkpt>
      <trkpt lat="42.2310700" lon="-8.7035110">
        <ele>103.9</ele>
        <time>2021-05-20T12:16:31Z</time>
      </trkpt>
      <trkpt lat="42.2310730" lon="-8.7034960">
        <ele>103.9</ele>
        <time>2021-05-20T12:16:32Z</time>
      </trkpt>
      <trkpt lat="42.2310710" lon="-8.7034710">
        <ele>104.0</ele>
        <time>2021-05-20T12:16:33Z</time>
      </trkpt>
      <trkpt lat="42.2310830" lon="-8.7034630">
        <ele>104.0</ele>
        <time>2021-05-20T12:16:34Z</time>
      </trkpt>
      <trkpt lat="42.2310970" lon="-8.7034510">
        <ele>104.0</ele>
        <time>2021-05-20T12:16:35Z</time>
      </trkpt>
      <trkpt lat="42.2311050" lon="-8.7034290">
        <ele>104.0</ele>
        <time>2021-05-20T12:16:36Z</time>
      </trkpt>
      <trkpt lat="42.2311100" lon="-8.7034150">
        <ele>104.1</ele>
        <time>2021-05-20T12:16:37Z</time>
      </trkpt>
      <trkpt lat="42.2311160" lon="-8.7034020">
        <ele>104.1</ele>
        <time>2021-05-20T12:16:38Z</time>
      </trkpt>
      <trkpt lat="42.2311200" lon="-8.7033900">
        <ele>104.1</ele>
        <time>2021-05-20T12:16:39Z</time>
      </trkpt>
      <trkpt lat="42.2311290" lon="-8.7033680">
        <ele>104.1</ele>
        <time>2021-05-20T12:16:40Z</time>
      </trkpt>
      <trkpt lat="42.2311240" lon="-8.7033480">
        <ele>104.2</ele>
        <time>2021-05-20T12:16:41Z</time>
      </trkpt>
      <trkpt lat="42.2311300" lon="-8.7033230">
        <ele>104.2</ele>
        <time>2021-05-20T12:16:42Z</time>
      </trkpt>
      <trkpt lat="42.2311350" lon="-8.7033130">
        <ele>104.2</ele>
        <time>2021-05-20T12:16:43Z</time>
      </trkpt>
      <trkpt lat="42.2311360" lon="-8.7033050">
        <ele>104.2</ele>
        <time>2021-05-20T12:16:44Z</time>
      </trkpt>
      <trkpt lat="42.2311330" lon="-8.7032830">
        <ele>104.2</ele>
        <time>2021-05-20T12:16:45Z</time>
      </trkpt>
      <trkpt lat="42.2311340" lon="-8.7032400">
        <ele>104.3</ele>
        <time>2021-05-20T12:16:46Z</time>
      </trkpt>
      <trkpt lat="42.2311340" lon="-8.7032290">
        <ele>104.3</ele>
        <time>2021-05-20T12:16:47Z</time>
      </trkpt>
      <trkpt lat="42.2311220" lon="-8.7032140">
        <ele>104.3</ele>
        <time>2021-05-20T12:16:48Z</time>
      </trkpt>
      <trkpt lat="42.2311160" lon="-8.7031950">
        <ele>104.3</ele>
        <time>2021-05-20T12:16:49Z</time>
      </trkpt>
      <trkpt lat="42.2311160" lon="-8.7031820">
        <ele>104.4</ele>
        <time>2021-05-20T12:16:50Z</time>
      </trkpt>
      <trkpt lat="42.2311110" lon="-8.7031620">
        <ele>104.4</ele>
        <time>2021-05-20T12:16:51Z</time>
      </trkpt>
      <trkpt lat="42.2311140" lon="-8.7031480">
        <ele>104.4</ele>
        <time>2021-05-20T12:16:52Z</time>
      </trkpt>
      <trkpt lat="42.2311190" lon="-8.7031370">
        <ele>104.4</ele>
        <time>2021-05-20T12:16:53Z</time>
      </trkpt>
      <trkpt lat="42.2311250" lon="-8.7031090">
        <ele>104.4</ele>
        <time>2021-05-20T12:16:54Z</time>
      </trkpt>
      <trkpt lat="42.2311290" lon="-8.7030890">
        <ele>104.4</ele>
        <time>2021-05-20T12:16:55Z</time>
      </trkpt>
      <trkpt lat="42.2311360" lon="-8.7030730">
        <ele>104.4</ele>
        <time>2021-05-20T12:16:56Z</time>
      </trkpt>
      <trkpt lat="42.2311540" lon="-8.7030490">
        <ele>104.4</ele>
        <time>2021-05-20T12:16:57Z</time>
      </trkpt>
      <trkpt lat="42.2311660" lon="-8.7030380">
        <ele>104.4</ele>
        <time>2021-05-20T12:16:58Z</time>
      </trkpt>
      <trkpt lat="42.2311780" lon="-8.7030280">
        <ele>104.5</ele>
        <time>2021-05-20T12:16:59Z</time>
      </trkpt>
      <trkpt lat="42.2311830" lon="-8.7030130">
        <ele>104.5</ele>
        <time>2021-05-20T12:17:00Z</time>
      </trkpt>
      <trkpt lat="42.2311850" lon="-8.7030010">
        <ele>104.5</ele>
        <time>2021-05-20T12:17:01Z</time>
      </trkpt>
      <trkpt lat="42.2311860" lon="-8.7029890">
        <ele>104.5</ele>
        <time>2021-05-20T12:17:02Z</time>
      </trkpt>
      <trkpt lat="42.2311880" lon="-8.7029770">
        <ele>104.5</ele>
        <time>2021-05-20T12:17:03Z</time>
      </trkpt>
      <trkpt lat="42.2311840" lon="-8.7029680">
        <ele>104.5</ele>
        <time>2021-05-20T12:17:04Z</time>
      </trkpt>
      <trkpt lat="42.2311820" lon="-8.7029500">
        <ele>104.5</ele>
        <time>2021-05-20T12:17:05Z</time>
      </trkpt>
      <trkpt lat="42.2311770" lon="-8.7029390">
        <ele>104.5</ele>
        <time>2021-05-20T12:17:06Z</time>
      </trkpt>
      <trkpt lat="42.2311820" lon="-8.7029220">
        <ele>104.5</ele>
        <time>2021-05-20T12:17:07Z</time>
      </trkpt>
      <trkpt lat="42.2311860" lon="-8.7029070">
        <ele>104.5</ele>
        <time>2021-05-20T12:17:08Z</time>
      </trkpt>
      <trkpt lat="42.2311890" lon="-8.7028930">
        <ele>104.5</ele>
        <time>2021-05-20T12:17:09Z</time>
      </trkpt>
      <trkpt lat="42.2312010" lon="-8.7028550">
        <ele>104.6</ele>
        <time>2021-05-20T12:17:10Z</time>
      </trkpt>
      <trkpt lat="42.2312040" lon="-8.7028450">
        <ele>104.6</ele>
        <time>2021-05-20T12:17:11Z</time>
      </trkpt>
      <trkpt lat="42.2312080" lon="-8.7028290">
        <ele>104.6</ele>
        <time>2021-05-20T12:17:12Z</time>
      </trkpt>
      <trkpt lat="42.2312140" lon="-8.7028080">
        <ele>104.6</ele>
        <time>2021-05-20T12:17:13Z</time>
      </trkpt>
      <trkpt lat="42.2312130" lon="-8.7027750">
        <ele>104.6</ele>
        <time>2021-05-20T12:17:14Z</time>
      </trkpt>
      <trkpt lat="42.2312100" lon="-8.7027630">
        <ele>104.6</ele>
        <time>2021-05-20T12:17:15Z</time>
      </trkpt>
      <trkpt lat="42.2312070" lon="-8.7027500">
        <ele>104.6</ele>
        <time>2021-05-20T12:17:16Z</time>
      </trkpt>
      <trkpt lat="42.2311950" lon="-8.7027110">
        <ele>104.7</ele>
        <time>2021-05-20T12:17:17Z</time>
      </trkpt>
      <trkpt lat="42.2311940" lon="-8.7027040">
        <ele>104.7</ele>
        <time>2021-05-20T12:17:18Z</time>
      </trkpt>
      <trkpt lat="42.2311940" lon="-8.7026640">
        <ele>104.7</ele>
        <time>2021-05-20T12:17:19Z</time>
      </trkpt>
      <trkpt lat="42.2311940" lon="-8.7026490">
        <ele>104.7</ele>
        <time>2021-05-20T12:17:20Z</time>
      </trkpt>
      <trkpt lat="42.2311870" lon="-8.7026230">
        <ele>104.7</ele>
        <time>2021-05-20T12:17:21Z</time>
      </trkpt>
      <trkpt lat="42.2311870" lon="-8.7026150">
        <ele>104.7</ele>
        <time>2021-05-20T12:17:22Z</time>
      </trkpt>
      <trkpt lat="42.2311920" lon="-8.7026110">
        <ele>104.7</ele>
        <time>2021-05-20T12:17:23Z</time>
      </trkpt>
      <trkpt lat="42.2311880" lon="-8.7025970">
        <ele>104.8</ele>
        <time>2021-05-20T12:17:24Z</time>
      </trkpt>
      <trkpt lat="42.2311810" lon="-8.7025820">
        <ele>104.8</ele>
        <time>2021-05-20T12:17:25Z</time>
      </trkpt>
      <trkpt lat="42.2311800" lon="-8.7025710">
        <ele>104.8</ele>
        <time>2021-05-20T12:17:26Z</time>
      </trkpt>
      <trkpt lat="42.2311820" lon="-8.7025580">
        <ele>104.8</ele>
        <time>2021-05-20T12:17:27Z</time>
      </trkpt>
      <trkpt lat="42.2311830" lon="-8.7025360">
        <ele>104.8</ele>
        <time>2021-05-20T12:17:28Z</time>
      </trkpt>
      <trkpt lat="42.2311840" lon="-8.7025290">
        <ele>104.8</ele>
        <time>2021-05-20T12:17:29Z</time>
      </trkpt>
      <trkpt lat="42.2311860" lon="-8.7024950">
        <ele>104.8</ele>
        <time>2021-05-20T12:17:30Z</time>
      </trkpt>
      <trkpt lat="42.2311820" lon="-8.7024790">
        <ele>104.9</ele>
        <time>2021-05-20T12:17:31Z</time>
      </trkpt>
      <trkpt lat="42.2311850" lon="-8.7024580">
        <ele>104.9</ele>
        <time>2021-05-20T12:17:32Z</time>
      </trkpt>
      <trkpt lat="42.2311950" lon="-8.7024330">
        <ele>104.9</ele>
        <time>2021-05-20T12:17:33Z</time>
      </trkpt>
      <trkpt lat="42.2311990" lon="-8.7024230">
        <ele>104.9</ele>
        <time>2021-05-20T12:17:34Z</time>
      </trkpt>
      <trkpt lat="42.2312030" lon="-8.7024140">
        <ele>104.9</ele>
        <time>2021-05-20T12:17:35Z</time>
      </trkpt>
      <trkpt lat="42.2312070" lon="-8.7023970">
        <ele>104.9</ele>
        <time>2021-05-20T12:17:36Z</time>
      </trkpt>
      <trkpt lat="42.2312140" lon="-8.7023850">
        <ele>105.0</ele>
        <time>2021-05-20T12:17:37Z</time>
      </trkpt>
      <trkpt lat="42.2312110" lon="-8.7023780">
        <ele>105.0</ele>
        <time>2021-05-20T12:17:38Z</time>
      </trkpt>
      <trkpt lat="42.2312090" lon="-8.7023660">
        <ele>105.0</ele>
        <time>2021-05-20T12:17:39Z</time>
      </trkpt>
      <trkpt lat="42.2312120" lon="-8.7023550">
        <ele>105.0</ele>
        <time>2021-05-20T12:17:40Z</time>
      </trkpt>
      <trkpt lat="42.2312110" lon="-8.7023450">
        <ele>105.0</ele>
        <time>2021-05-20T12:17:41Z</time>
      </trkpt>
      <trkpt lat="42.2312130" lon="-8.7023420">
        <ele>105.0</ele>
        <time>2021-05-20T12:17:42Z</time>
      </trkpt>
      <trkpt lat="42.2312130" lon="-8.7023380">
        <ele>105.0</ele>
        <time>2021-05-20T12:17:43Z</time>
      </trkpt>
      <trkpt lat="42.2312090" lon="-8.7023330">
        <ele>105.0</ele>
        <time>2021-05-20T12:17:44Z</time>
      </trkpt>
      <trkpt lat="42.2312100" lon="-8.7023270">
        <ele>105.0</ele>
        <time>2021-05-20T12:17:45Z</time>
      </trkpt>
      <trkpt lat="42.2312110" lon="-8.7023270">
        <ele>105.0</ele>
        <time>2021-05-20T12:17:46Z</time>
      </trkpt>
      <trkpt lat="42.2312150" lon="-8.7023200">
        <ele>105.0</ele>
        <time>2021-05-20T12:17:47Z</time>
      </trkpt>
      <trkpt lat="42.2312110" lon="-8.7023170">
        <ele>105.0</ele>
        <time>2021-05-20T12:17:48Z</time>
      </trkpt>
      <trkpt lat="42.2312080" lon="-8.7023150">
        <ele>105.0</ele>
        <time>2021-05-20T12:17:49Z</time>
      </trkpt>
      <trkpt lat="42.2312040" lon="-8.7023130">
        <ele>105.0</ele>
        <time>2021-05-20T12:17:50Z</time>
      </trkpt>
      <trkpt lat="42.2312030" lon="-8.7023070">
        <ele>105.1</ele>
        <time>2021-05-20T12:17:51Z</time>
      </trkpt>
      <trkpt lat="42.2312050" lon="-8.7023110">
        <ele>105.1</ele>
        <time>2021-05-20T12:17:52Z</time>
      </trkpt>
      <trkpt lat="42.2311960" lon="-8.7023020">
        <ele>105.1</ele>
        <time>2021-05-20T12:17:53Z</time>
      </trkpt>
      <trkpt lat="42.2311880" lon="-8.7022950">
        <ele>105.1</ele>
        <time>2021-05-20T12:17:54Z</time>
      </trkpt>
      <trkpt lat="42.2311840" lon="-8.7022890">
        <ele>105.1</ele>
        <time>2021-05-20T12:17:55Z</time>
      </trkpt>
      <trkpt lat="42.2311840" lon="-8.7022810">
        <ele>105.1</ele>
        <time>2021-05-20T12:17:56Z</time>
      </trkpt>
      <trkpt lat="42.2311880" lon="-8.7022760">
        <ele>105.1</ele>
        <time>2021-05-20T12:17:57Z</time>
      </trkpt>
      <trkpt lat="42.2311850" lon="-8.7022590">
        <ele>105.1</ele>
        <time>2021-05-20T12:17:58Z</time>
      </trkpt>
      <trkpt lat="42.2311800" lon="-8.7022460">
        <ele>105.2</ele>
        <time>2021-05-20T12:17:59Z</time>
      </trkpt>
      <trkpt lat="42.2311760" lon="-8.7022340">
        <ele>105.2</ele>
        <time>2021-05-20T12:18:00Z</time>
      </trkpt>
      <trkpt lat="42.2311700" lon="-8.7022190">
        <ele>105.2</ele>
        <time>2021-05-20T12:18:01Z</time>
      </trkpt>
      <trkpt lat="42.2311630" lon="-8.7022060">
        <ele>105.2</ele>
        <time>2021-05-20T12:18:02Z</time>
      </trkpt>
      <trkpt lat="42.2311530" lon="-8.7021910">
        <ele>105.2</ele>
        <time>2021-05-20T12:18:03Z</time>
      </trkpt>
      <trkpt lat="42.2311420" lon="-8.7021800">
        <ele>105.2</ele>
        <time>2021-05-20T12:18:04Z</time>
      </trkpt>
      <trkpt lat="42.2311270" lon="-8.7021610">
        <ele>105.3</ele>
        <time>2021-05-20T12:18:05Z</time>
      </trkpt>
      <trkpt lat="42.2311240" lon="-8.7021620">
        <ele>105.3</ele>
        <time>2021-05-20T12:18:06Z</time>
      </trkpt>
      <trkpt lat="42.2311130" lon="-8.7021450">
        <ele>105.3</ele>
        <time>2021-05-20T12:18:07Z</time>
      </trkpt>
      <trkpt lat="42.2311060" lon="-8.7021340">
        <ele>105.4</ele>
        <time>2021-05-20T12:18:08Z</time>
      </trkpt>
      <trkpt lat="42.2311060" lon="-8.7021170">
        <ele>105.4</ele>
        <time>2021-05-20T12:18:09Z</time>
      </trkpt>
      <trkpt lat="42.2311030" lon="-8.7021040">
        <ele>105.4</ele>
        <time>2021-05-20T12:18:10Z</time>
      </trkpt>
      <trkpt lat="42.2311010" lon="-8.7020910">
        <ele>105.4</ele>
        <time>2021-05-20T12:18:11Z</time>
      </trkpt>
      <trkpt lat="42.2310980" lon="-8.7020780">
        <ele>105.4</ele>
        <time>2021-05-20T12:18:12Z</time>
      </trkpt>
      <trkpt lat="42.2310960" lon="-8.7020600">
        <ele>105.5</ele>
        <time>2021-05-20T12:18:13Z</time>
      </trkpt>
      <trkpt lat="42.2310900" lon="-8.7020450">
        <ele>105.5</ele>
        <time>2021-05-20T12:18:14Z</time>
      </trkpt>
      <trkpt lat="42.2310830" lon="-8.7020330">
        <ele>105.5</ele>
        <time>2021-05-20T12:18:15Z</time>
      </trkpt>
      <trkpt lat="42.2310880" lon="-8.7020240">
        <ele>105.5</ele>
        <time>2021-05-20T12:18:16Z</time>
      </trkpt>
      <trkpt lat="42.2310840" lon="-8.7020050">
        <ele>105.6</ele>
        <time>2021-05-20T12:18:17Z</time>
      </trkpt>
      <trkpt lat="42.2310840" lon="-8.7019930">
        <ele>105.6</ele>
        <time>2021-05-20T12:18:18Z</time>
      </trkpt>
      <trkpt lat="42.2310720" lon="-8.7019600">
        <ele>105.7</ele>
        <time>2021-05-20T12:18:19Z</time>
      </trkpt>
      <trkpt lat="42.2310660" lon="-8.7019410">
        <ele>105.8</ele>
        <time>2021-05-20T12:18:20Z</time>
      </trkpt>
      <trkpt lat="42.2310680" lon="-8.7019370">
        <ele>105.8</ele>
        <time>2021-05-20T12:18:21Z</time>
      </trkpt>
      <trkpt lat="42.2310730" lon="-8.7019160">
        <ele>105.8</ele>
        <time>2021-05-20T12:18:22Z</time>
      </trkpt>
      <trkpt lat="42.2310780" lon="-8.7018980">
        <ele>105.9</ele>
        <time>2021-05-20T12:18:23Z</time>
      </trkpt>
      <trkpt lat="42.2310760" lon="-8.7018910">
        <ele>105.9</ele>
        <time>2021-05-20T12:18:24Z</time>
      </trkpt>
      <trkpt lat="42.2310730" lon="-8.7018770">
        <ele>105.9</ele>
        <time>2021-05-20T12:18:25Z</time>
      </trkpt>
      <trkpt lat="42.2310680" lon="-8.7018640">
        <ele>106.0</ele>
        <time>2021-05-20T12:18:26Z</time>
      </trkpt>
      <trkpt lat="42.2310610" lon="-8.7018350">
        <ele>106.0</ele>
        <time>2021-05-20T12:18:27Z</time>
      </trkpt>
      <trkpt lat="42.2310520" lon="-8.7018200">
        <ele>106.1</ele>
        <time>2021-05-20T12:18:28Z</time>
      </trkpt>
      <trkpt lat="42.2310450" lon="-8.7017940">
        <ele>106.2</ele>
        <time>2021-05-20T12:18:29Z</time>
      </trkpt>
      <trkpt lat="42.2310340" lon="-8.7017710">
        <ele>106.2</ele>
        <time>2021-05-20T12:18:30Z</time>
      </trkpt>
      <trkpt lat="42.2310280" lon="-8.7017620">
        <ele>106.3</ele>
        <time>2021-05-20T12:18:31Z</time>
      </trkpt>
      <trkpt lat="42.2310220" lon="-8.7017540">
        <ele>106.3</ele>
        <time>2021-05-20T12:18:32Z</time>
      </trkpt>
      <trkpt lat="42.2310220" lon="-8.7017290">
        <ele>106.4</ele>
        <time>2021-05-20T12:18:33Z</time>
      </trkpt>
      <trkpt lat="42.2310290" lon="-8.7017160">
        <ele>106.4</ele>
        <time>2021-05-20T12:18:34Z</time>
      </trkpt>
      <trkpt lat="42.2310360" lon="-8.7017020">
        <ele>106.5</ele>
        <time>2021-05-20T12:18:35Z</time>
      </trkpt>
      <trkpt lat="42.2310420" lon="-8.7016840">
        <ele>106.5</ele>
        <time>2021-05-20T12:18:36Z</time>
      </trkpt>
      <trkpt lat="42.2310430" lon="-8.7016560">
        <ele>106.6</ele>
        <time>2021-05-20T12:18:37Z</time>
      </trkpt>
      <trkpt lat="42.2310370" lon="-8.7016460">
        <ele>106.7</ele>
        <time>2021-05-20T12:18:38Z</time>
      </trkpt>
      <trkpt lat="42.2310390" lon="-8.7016340">
        <ele>106.7</ele>
        <time>2021-05-20T12:18:39Z</time>
      </trkpt>
      <trkpt lat="42.2310330" lon="-8.7016120">
        <ele>106.8</ele>
        <time>2021-05-20T12:18:40Z</time>
      </trkpt>
      <trkpt lat="42.2310330" lon="-8.7015950">
        <ele>106.8</ele>
        <time>2021-05-20T12:18:41Z</time>
      </trkpt>
      <trkpt lat="42.2310370" lon="-8.7015720">
        <ele>106.9</ele>
        <time>2021-05-20T12:18:42Z</time>
      </trkpt>
      <trkpt lat="42.2310390" lon="-8.7015470">
        <ele>106.9</ele>
        <time>2021-05-20T12:18:43Z</time>
      </trkpt>
      <trkpt lat="42.2310360" lon="-8.7015360">
        <ele>107.0</ele>
        <time>2021-05-20T12:18:44Z</time>
      </trkpt>
      <trkpt lat="42.2310300" lon="-8.7015280">
        <ele>107.0</ele>
        <time>2021-05-20T12:18:45Z</time>
      </trkpt>
      <trkpt lat="42.2310370" lon="-8.7015050">
        <ele>107.1</ele>
        <time>2021-05-20T12:18:46Z</time>
      </trkpt>
      <trkpt lat="42.2310360" lon="-8.7014930">
        <ele>107.1</ele>
        <time>2021-05-20T12:18:47Z</time>
      </trkpt>
      <trkpt lat="42.2310330" lon="-8.7014700">
        <ele>107.2</ele>
        <time>2021-05-20T12:18:48Z</time>
      </trkpt>
      <trkpt lat="42.2310360" lon="-8.7014480">
        <ele>107.3</ele>
        <time>2021-05-20T12:18:49Z</time>
      </trkpt>
      <trkpt lat="42.2310380" lon="-8.7014230">
        <ele>107.3</ele>
        <time>2021-05-20T12:18:50Z</time>
      </trkpt>
      <trkpt lat="42.2310300" lon="-8.7014060">
        <ele>107.4</ele>
        <time>2021-05-20T12:18:51Z</time>
      </trkpt>
      <trkpt lat="42.2310320" lon="-8.7013770">
        <ele>107.5</ele>
        <time>2021-05-20T12:18:52Z</time>
      </trkpt>
      <trkpt lat="42.2310260" lon="-8.7013630">
        <ele>107.5</ele>
        <time>2021-05-20T12:18:53Z</time>
      </trkpt>
      <trkpt lat="42.2310260" lon="-8.7013320">
        <ele>107.6</ele>
        <time>2021-05-20T12:18:54Z</time>
      </trkpt>
      <trkpt lat="42.2310240" lon="-8.7013200">
        <ele>107.6</ele>
        <time>2021-05-20T12:18:55Z</time>
      </trkpt>
      <trkpt lat="42.2310230" lon="-8.7013070">
        <ele>107.7</ele>
        <time>2021-05-20T12:18:56Z</time>
      </trkpt>
      <trkpt lat="42.2310210" lon="-8.7012920">
        <ele>107.7</ele>
        <time>2021-05-20T12:18:57Z</time>
      </trkpt>
      <trkpt lat="42.2310240" lon="-8.7012750">
        <ele>107.8</ele>
        <time>2021-05-20T12:18:58Z</time>
      </trkpt>
      <trkpt lat="42.2310180" lon="-8.7012660">
        <ele>107.8</ele>
        <time>2021-05-20T12:18:59Z</time>
      </trkpt>
      <trkpt lat="42.2310180" lon="-8.7012520">
        <ele>107.8</ele>
        <time>2021-05-20T12:19:00Z</time>
      </trkpt>
      <trkpt lat="42.2309970" lon="-8.7012320">
        <ele>108.0</ele>
        <time>2021-05-20T12:19:01Z</time>
      </trkpt>
      <trkpt lat="42.2309820" lon="-8.7012210">
        <ele>108.0</ele>
        <time>2021-05-20T12:19:02Z</time>
      </trkpt>
      <trkpt lat="42.2309710" lon="-8.7012030">
        <ele>108.1</ele>
        <time>2021-05-20T12:19:03Z</time>
      </trkpt>
      <trkpt lat="42.2309670" lon="-8.7011860">
        <ele>108.2</ele>
        <time>2021-05-20T12:19:04Z</time>
      </trkpt>
      <trkpt lat="42.2309610" lon="-8.7011640">
        <ele>108.2</ele>
        <time>2021-05-20T12:19:05Z</time>
      </trkpt>
      <trkpt lat="42.2309530" lon="-8.7011510">
        <ele>108.3</ele>
        <time>2021-05-20T12:19:06Z</time>
      </trkpt>
      <trkpt lat="42.2309340" lon="-8.7011460">
        <ele>108.4</ele>
        <time>2021-05-20T12:19:07Z</time>
      </trkpt>
      <trkpt lat="42.2309130" lon="-8.7011300">
        <ele>108.5</ele>
        <time>2021-05-20T12:19:08Z</time>
      </trkpt>
      <trkpt lat="42.2309060" lon="-8.7011210">
        <ele>108.5</ele>
        <time>2021-05-20T12:19:09Z</time>
      </trkpt>
      <trkpt lat="42.2308990" lon="-8.7011130">
        <ele>108.5</ele>
        <time>2021-05-20T12:19:10Z</time>
      </trkpt>
      <trkpt lat="42.2308960" lon="-8.7011020">
        <ele>108.6</ele>
        <time>2021-05-20T12:19:11Z</time>
      </trkpt>
      <trkpt lat="42.2308990" lon="-8.7010840">
        <ele>108.6</ele>
        <time>2021-05-20T12:19:12Z</time>
      </trkpt>
      <trkpt lat="42.2309020" lon="-8.7010690">
        <ele>108.7</ele>
        <time>2021-05-20T12:19:13Z</time>
      </trkpt>
      <trkpt lat="42.2309060" lon="-8.7010490">
        <ele>108.8</ele>
        <time>2021-05-20T12:19:14Z</time>
      </trkpt>
      <trkpt lat="42.2309110" lon="-8.7010400">
        <ele>108.8</ele>
        <time>2021-05-20T12:19:15Z</time>
      </trkpt>
      <trkpt lat="42.2309100" lon="-8.7010250">
        <ele>108.8</ele>
        <time>2021-05-20T12:19:16Z</time>
      </trkpt>
      <trkpt lat="42.2309070" lon="-8.7010080">
        <ele>108.9</ele>
        <time>2021-05-20T12:19:17Z</time>
      </trkpt>
      <trkpt lat="42.2309060" lon="-8.7009950">
        <ele>108.9</ele>
        <time>2021-05-20T12:19:18Z</time>
      </trkpt>
      <trkpt lat="42.2309000" lon="-8.7009810">
        <ele>109.0</ele>
        <time>2021-05-20T12:19:19Z</time>
      </trkpt>
      <trkpt lat="42.2309090" lon="-8.7009640">
        <ele>109.1</ele>
        <time>2021-05-20T12:19:20Z</time>
      </trkpt>
      <trkpt lat="42.2309220" lon="-8.7009530">
        <ele>109.1</ele>
        <time>2021-05-20T12:19:21Z</time>
      </trkpt>
      <trkpt lat="42.2309520" lon="-8.7009110">
        <ele>109.3</ele>
        <time>2021-05-20T12:19:22Z</time>
      </trkpt>
      <trkpt lat="42.2309660" lon="-8.7008970">
        <ele>109.4</ele>
        <time>2021-05-20T12:19:23Z</time>
      </trkpt>
      <trkpt lat="42.2310210" lon="-8.7008640">
        <ele>109.6</ele>
        <time>2021-05-20T12:19:24Z</time>
      </trkpt>
      <trkpt lat="42.2310570" lon="-8.7008410">
        <ele>109.8</ele>
        <time>2021-05-20T12:19:25Z</time>
      </trkpt>
      <trkpt lat="42.2310680" lon="-8.7008330">
        <ele>109.9</ele>
        <time>2021-05-20T12:19:26Z</time>
      </trkpt>
      <trkpt lat="42.2310780" lon="-8.7008250">
        <ele>109.9</ele>
        <time>2021-05-20T12:19:27Z</time>
      </trkpt>
      <trkpt lat="42.2310900" lon="-8.7008180">
        <ele>110.0</ele>
        <time>2021-05-20T12:19:28Z</time>
      </trkpt>
      <trkpt lat="42.2310890" lon="-8.7008150">
        <ele>110.0</ele>
        <time>2021-05-20T12:19:29Z</time>
      </trkpt>
      <trkpt lat="42.2310860" lon="-8.7007930">
        <ele>110.1</ele>
        <time>2021-05-20T12:19:30Z</time>
      </trkpt>
      <trkpt lat="42.2310870" lon="-8.7007690">
        <ele>110.1</ele>
        <time>2021-05-20T12:19:31Z</time>
      </trkpt>
      <trkpt lat="42.2311010" lon="-8.7007530">
        <ele>110.2</ele>
        <time>2021-05-20T12:19:32Z</time>
      </trkpt>
      <trkpt lat="42.2311090" lon="-8.7007070">
        <ele>110.4</ele>
        <time>2021-05-20T12:19:33Z</time>
      </trkpt>
      <trkpt lat="42.2311120" lon="-8.7006890">
        <ele>110.8</ele>
        <time>2021-05-20T12:19:34Z</time>
      </trkpt>
      <trkpt lat="42.2311170" lon="-8.7006680">
        <ele>110.8</ele>
        <time>2021-05-20T12:19:35Z</time>
      </trkpt>
      <trkpt lat="42.2311320" lon="-8.7006550">
        <ele>110.9</ele>
        <time>2021-05-20T12:19:36Z</time>
      </trkpt>
      <trkpt lat="42.2311470" lon="-8.7006420">
        <ele>110.9</ele>
        <time>2021-05-20T12:19:37Z</time>
      </trkpt>
      <trkpt lat="42.2311920" lon="-8.7006060">
        <ele>111.1</ele>
        <time>2021-05-20T12:19:38Z</time>
      </trkpt>
      <trkpt lat="42.2312190" lon="-8.7005960">
        <ele>111.2</ele>
        <time>2021-05-20T12:19:39Z</time>
      </trkpt>
      <trkpt lat="42.2312180" lon="-8.7005970">
        <ele>111.3</ele>
        <time>2021-05-20T12:19:40Z</time>
      </trkpt>
      <trkpt lat="42.2312170" lon="-8.7005870">
        <ele>111.3</ele>
        <time>2021-05-20T12:19:41Z</time>
      </trkpt>
      <trkpt lat="42.2312290" lon="-8.7005770">
        <ele>111.3</ele>
        <time>2021-05-20T12:19:42Z</time>
      </trkpt>
      <trkpt lat="42.2312330" lon="-8.7005650">
        <ele>111.4</ele>
        <time>2021-05-20T12:19:43Z</time>
      </trkpt>
      <trkpt lat="42.2312530" lon="-8.7005550">
        <ele>111.5</ele>
        <time>2021-05-20T12:19:44Z</time>
      </trkpt>
      <trkpt lat="42.2312570" lon="-8.7005460">
        <ele>111.5</ele>
        <time>2021-05-20T12:19:45Z</time>
      </trkpt>
      <trkpt lat="42.2312610" lon="-8.7005360">
        <ele>111.5</ele>
        <time>2021-05-20T12:19:46Z</time>
      </trkpt>
      <trkpt lat="42.2312650" lon="-8.7005260">
        <ele>111.6</ele>
        <time>2021-05-20T12:19:47Z</time>
      </trkpt>
      <trkpt lat="42.2312640" lon="-8.7004950">
        <ele>111.7</ele>
        <time>2021-05-20T12:19:48Z</time>
      </trkpt>
      <trkpt lat="42.2312730" lon="-8.7004870">
        <ele>111.7</ele>
        <time>2021-05-20T12:19:49Z</time>
      </trkpt>
      <trkpt lat="42.2312840" lon="-8.7004560">
        <ele>111.8</ele>
        <time>2021-05-20T12:19:50Z</time>
      </trkpt>
      <trkpt lat="42.2312920" lon="-8.7004440">
        <ele>111.8</ele>
        <time>2021-05-20T12:19:51Z</time>
      </trkpt>
      <trkpt lat="42.2312990" lon="-8.7004330">
        <ele>111.9</ele>
        <time>2021-05-20T12:19:52Z</time>
      </trkpt>
      <trkpt lat="42.2313800" lon="-8.7004230">
        <ele>112.1</ele>
        <time>2021-05-20T12:19:53Z</time>
      </trkpt>
      <trkpt lat="42.2314010" lon="-8.7004190">
        <ele>112.2</ele>
        <time>2021-05-20T12:19:54Z</time>
      </trkpt>
      <trkpt lat="42.2314120" lon="-8.7004400">
        <ele>112.2</ele>
        <time>2021-05-20T12:19:55Z</time>
      </trkpt>
      <trkpt lat="42.2314430" lon="-8.7004650">
        <ele>112.4</ele>
        <time>2021-05-20T12:19:56Z</time>
      </trkpt>
      <trkpt lat="42.2314740" lon="-8.7004590">
        <ele>112.6</ele>
        <time>2021-05-20T12:19:57Z</time>
      </trkpt>
      <trkpt lat="42.2314820" lon="-8.7004570">
        <ele>112.6</ele>
        <time>2021-05-20T12:19:58Z</time>
      </trkpt>
      <trkpt lat="42.2314840" lon="-8.7004650">
        <ele>112.7</ele>
        <time>2021-05-20T12:19:59Z</time>
      </trkpt>
      <trkpt lat="42.2315020" lon="-8.7004700">
        <ele>112.8</ele>
        <time>2021-05-20T12:20:01Z</time>
      </trkpt>
      <trkpt lat="42.2314990" lon="-8.7004750">
        <ele>112.8</ele>
        <time>2021-05-20T12:20:02Z</time>
      </trkpt>
      <trkpt lat="42.2315080" lon="-8.7004760">
        <ele>112.9</ele>
        <time>2021-05-20T12:20:03Z</time>
      </trkpt>
      <trkpt lat="42.2315260" lon="-8.7004630">
        <ele>113.0</ele>
        <time>2021-05-20T12:20:04Z</time>
      </trkpt>
      <trkpt lat="42.2315270" lon="-8.7004650">
        <ele>113.0</ele>
        <time>2021-05-20T12:20:05Z</time>
      </trkpt>
      <trkpt lat="42.2315330" lon="-8.7004510">
        <ele>113.1</ele>
        <time>2021-05-20T12:20:06Z</time>
      </trkpt>
      <trkpt lat="42.2315560" lon="-8.7004280">
        <ele>113.2</ele>
        <time>2021-05-20T12:20:07Z</time>
      </trkpt>
      <trkpt lat="42.2315820" lon="-8.7004000">
        <ele>113.5</ele>
        <time>2021-05-20T12:20:08Z</time>
      </trkpt>
      <trkpt lat="42.2315880" lon="-8.7003950">
        <ele>113.5</ele>
        <time>2021-05-20T12:20:09Z</time>
      </trkpt>
      <trkpt lat="42.2316120" lon="-8.7003830">
        <ele>113.6</ele>
        <time>2021-05-20T12:20:10Z</time>
      </trkpt>
      <trkpt lat="42.2316250" lon="-8.7003780">
        <ele>113.7</ele>
        <time>2021-05-20T12:20:11Z</time>
      </trkpt>
      <trkpt lat="42.2316390" lon="-8.7003720">
        <ele>113.7</ele>
        <time>2021-05-20T12:20:12Z</time>
      </trkpt>
      <trkpt lat="42.2316380" lon="-8.7003940">
        <ele>113.8</ele>
        <time>2021-05-20T12:20:13Z</time>
      </trkpt>
      <trkpt lat="42.2316390" lon="-8.7004120">
        <ele>113.8</ele>
        <time>2021-05-20T12:20:14Z</time>
      </trkpt>
      <trkpt lat="42.2316420" lon="-8.7004100">
        <ele>113.8</ele>
        <time>2021-05-20T12:20:15Z</time>
      </trkpt>
      <trkpt lat="42.2316440" lon="-8.7004090">
        <ele>113.8</ele>
        <time>2021-05-20T12:20:16Z</time>
      </trkpt>
      <trkpt lat="42.2316480" lon="-8.7003860">
        <ele>113.9</ele>
        <time>2021-05-20T12:20:17Z</time>
      </trkpt>
      <trkpt lat="42.2316530" lon="-8.7003780">
        <ele>113.9</ele>
        <time>2021-05-20T12:20:18Z</time>
      </trkpt>
      <trkpt lat="42.2316620" lon="-8.7003610">
        <ele>113.9</ele>
        <time>2021-05-20T12:20:19Z</time>
      </trkpt>
      <trkpt lat="42.2316670" lon="-8.7003430">
        <ele>114.0</ele>
        <time>2021-05-20T12:20:20Z</time>
      </trkpt>
      <trkpt lat="42.2316720" lon="-8.7003240">
        <ele>114.0</ele>
        <time>2021-05-20T12:20:21Z</time>
      </trkpt>
      <trkpt lat="42.2316770" lon="-8.7003060">
        <ele>114.1</ele>
        <time>2021-05-20T12:20:22Z</time>
      </trkpt>
      <trkpt lat="42.2316820" lon="-8.7002870">
        <ele>114.1</ele>
        <time>2021-05-20T12:20:23Z</time>
      </trkpt>
      <trkpt lat="42.2316910" lon="-8.7002820">
        <ele>114.2</ele>
        <time>2021-05-20T12:20:24Z</time>
      </trkpt>
      <trkpt lat="42.2316910" lon="-8.7002820">
        <ele>114.2</ele>
        <time>2021-05-20T12:20:25Z</time>
      </trkpt>
      <trkpt lat="42.2317020" lon="-8.7002750">
        <ele>114.2</ele>
        <time>2021-05-20T12:20:26Z</time>
      </trkpt>
      <trkpt lat="42.2317040" lon="-8.7002650">
        <ele>114.2</ele>
        <time>2021-05-20T12:20:27Z</time>
      </trkpt>
      <trkpt lat="42.2317000" lon="-8.7002510">
        <ele>114.3</ele>
        <time>2021-05-20T12:20:28Z</time>
      </trkpt>
      <trkpt lat="42.2317000" lon="-8.7002410">
        <ele>114.3</ele>
        <time>2021-05-20T12:20:29Z</time>
      </trkpt>
      <trkpt lat="42.2317030" lon="-8.7002250">
        <ele>114.3</ele>
        <time>2021-05-20T12:20:30Z</time>
      </trkpt>
      <trkpt lat="42.2317030" lon="-8.7002140">
        <ele>114.4</ele>
        <time>2021-05-20T12:20:31Z</time>
      </trkpt>
      <trkpt lat="42.2317040" lon="-8.7002030">
        <ele>114.4</ele>
        <time>2021-05-20T12:20:32Z</time>
      </trkpt>
      <trkpt lat="42.2317040" lon="-8.7001920">
        <ele>114.4</ele>
        <time>2021-05-20T12:20:33Z</time>
      </trkpt>
      <trkpt lat="42.2317050" lon="-8.7001810">
        <ele>114.5</ele>
        <time>2021-05-20T12:20:34Z</time>
      </trkpt>
      <trkpt lat="42.2317050" lon="-8.7001700">
        <ele>114.5</ele>
        <time>2021-05-20T12:20:35Z</time>
      </trkpt>
      <trkpt lat="42.2317010" lon="-8.7001610">
        <ele>114.5</ele>
        <time>2021-05-20T12:20:36Z</time>
      </trkpt>
      <trkpt lat="42.2316960" lon="-8.7001670">
        <ele>114.6</ele>
        <time>2021-05-20T12:20:37Z</time>
      </trkpt>
      <trkpt lat="42.2316920" lon="-8.7001740">
        <ele>114.6</ele>
        <time>2021-05-20T12:20:38Z</time>
      </trkpt>
      <trkpt lat="42.2316870" lon="-8.7001810">
        <ele>114.6</ele>
        <time>2021-05-20T12:20:39Z</time>
      </trkpt>
      <trkpt lat="42.2316830" lon="-8.7001870">
        <ele>114.6</ele>
        <time>2021-05-20T12:20:40Z</time>
      </trkpt>
      <trkpt lat="42.2316780" lon="-8.7001940">
        <ele>114.7</ele>
        <time>2021-05-20T12:20:41Z</time>
      </trkpt>
      <trkpt lat="42.2316740" lon="-8.7002010">
        <ele>114.7</ele>
        <time>2021-05-20T12:20:42Z</time>
      </trkpt>
      <trkpt lat="42.2316690" lon="-8.7002070">
        <ele>114.7</ele>
        <time>2021-05-20T12:20:43Z</time>
      </trkpt>
      <trkpt lat="42.2316650" lon="-8.7002140">
        <ele>114.7</ele>
        <time>2021-05-20T12:20:44Z</time>
      </trkpt>
      <trkpt lat="42.2316640" lon="-8.7002100">
        <ele>114.7</ele>
        <time>2021-05-20T12:20:45Z</time>
      </trkpt>
      <trkpt lat="42.2316630" lon="-8.7002060">
        <ele>114.8</ele>
        <time>2021-05-20T12:20:46Z</time>
      </trkpt>
      <trkpt lat="42.2316640" lon="-8.7002010">
        <ele>114.8</ele>
        <time>2021-05-20T12:20:47Z</time>
      </trkpt>
      <trkpt lat="42.2316630" lon="-8.7002010">
        <ele>114.8</ele>
        <time>2021-05-20T12:20:48Z</time>
      </trkpt>
      <trkpt lat="42.2316450" lon="-8.7002130">
        <ele>114.9</ele>
        <time>2021-05-20T12:20:49Z</time>
      </trkpt>
      <trkpt lat="42.2316310" lon="-8.7002230">
        <ele>114.9</ele>
        <time>2021-05-20T12:20:50Z</time>
      </trkpt>
      <trkpt lat="42.2316320" lon="-8.7002230">
        <ele>114.9</ele>
        <time>2021-05-20T12:20:51Z</time>
      </trkpt>
      <trkpt lat="42.2316320" lon="-8.7002210">
        <ele>114.9</ele>
        <time>2021-05-20T12:20:52Z</time>
      </trkpt>
      <trkpt lat="42.2316290" lon="-8.7002170">
        <ele>114.9</ele>
        <time>2021-05-20T12:20:53Z</time>
      </trkpt>
      <trkpt lat="42.2316290" lon="-8.7002160">
        <ele>114.9</ele>
        <time>2021-05-20T12:20:54Z</time>
      </trkpt>
      <trkpt lat="42.2316280" lon="-8.7002320">
        <ele>115.0</ele>
        <time>2021-05-20T12:20:55Z</time>
      </trkpt>
      <trkpt lat="42.2316310" lon="-8.7002290">
        <ele>115.0</ele>
        <time>2021-05-20T12:20:56Z</time>
      </trkpt>
      <trkpt lat="42.2316310" lon="-8.7002290">
        <ele>115.0</ele>
        <time>2021-05-20T12:20:57Z</time>
      </trkpt>
      <trkpt lat="42.2316310" lon="-8.7002290">
        <ele>115.0</ele>
        <time>2021-05-20T12:20:58Z</time>
      </trkpt>
      <trkpt lat="42.2316310" lon="-8.7002290">
        <ele>115.0</ele>
        <time>2021-05-20T12:20:59Z</time>
      </trkpt>
      <trkpt lat="42.2316310" lon="-8.7002290">
        <ele>115.0</ele>
        <time>2021-05-20T12:21:00Z</time>
      </trkpt>
      <trkpt lat="42.2316310" lon="-8.7002290">
        <ele>115.0</ele>
        <time>2021-05-20T12:21:01Z</time>
      </trkpt>
      <trkpt lat="42.2316310" lon="-8.7002290">
        <ele>115.0</ele>
        <time>2021-05-20T12:21:02Z</time>
      </trkpt>
      <trkpt lat="42.2316270" lon="-8.7002450">
        <ele>115.1</ele>
        <time>2021-05-20T12:21:03Z</time>
      </trkpt>
      <trkpt lat="42.2316280" lon="-8.7002660">
        <ele>115.1</ele>
        <time>2021-05-20T12:21:04Z</time>
      </trkpt>
      <trkpt lat="42.2316300" lon="-8.7002710">
        <ele>115.2</ele>
        <time>2021-05-20T12:21:05Z</time>
      </trkpt>
      <trkpt lat="42.2316300" lon="-8.7002710">
        <ele>115.2</ele>
        <time>2021-05-20T12:21:06Z</time>
      </trkpt>
      <trkpt lat="42.2316320" lon="-8.7002740">
        <ele>115.2</ele>
        <time>2021-05-20T12:21:07Z</time>
      </trkpt>
      <trkpt lat="42.2316320" lon="-8.7002740">
        <ele>115.2</ele>
        <time>2021-05-20T12:21:08Z</time>
      </trkpt>
      <trkpt lat="42.2316320" lon="-8.7002740">
        <ele>115.2</ele>
        <time>2021-05-20T12:21:09Z</time>
      </trkpt>
      <trkpt lat="42.2316450" lon="-8.7002530">
        <ele>115.3</ele>
        <time>2021-05-20T12:21:10Z</time>
      </trkpt>
      <trkpt lat="42.2316450" lon="-8.7002530">
        <ele>115.3</ele>
        <time>2021-05-20T12:21:11Z</time>
      </trkpt>
      <trkpt lat="42.2316450" lon="-8.7002530">
        <ele>115.3</ele>
        <time>2021-05-20T12:21:12Z</time>
      </trkpt>
      <trkpt lat="42.2316450" lon="-8.7002530">
        <ele>115.3</ele>
        <time>2021-05-20T12:21:13Z</time>
      </trkpt>
      <trkpt lat="42.2316440" lon="-8.7002370">
        <ele>115.3</ele>
        <time>2021-05-20T12:21:14Z</time>
      </trkpt>
      <trkpt lat="42.2316480" lon="-8.7002320">
        <ele>115.3</ele>
        <time>2021-05-20T12:21:15Z</time>
      </trkpt>
      <trkpt lat="42.2316520" lon="-8.7002320">
        <ele>115.3</ele>
        <time>2021-05-20T12:21:16Z</time>
      </trkpt>
      <trkpt lat="42.2316500" lon="-8.7002350">
        <ele>115.4</ele>
        <time>2021-05-20T12:21:17Z</time>
      </trkpt>
      <trkpt lat="42.2316500" lon="-8.7002490">
        <ele>115.4</ele>
        <time>2021-05-20T12:21:18Z</time>
      </trkpt>
      <trkpt lat="42.2316470" lon="-8.7002550">
        <ele>115.4</ele>
        <time>2021-05-20T12:21:19Z</time>
      </trkpt>
      <trkpt lat="42.2316460" lon="-8.7002580">
        <ele>115.4</ele>
        <time>2021-05-20T12:21:20Z</time>
      </trkpt>
      <trkpt lat="42.2316490" lon="-8.7002680">
        <ele>115.5</ele>
        <time>2021-05-20T12:21:21Z</time>
      </trkpt>
      <trkpt lat="42.2316490" lon="-8.7002750">
        <ele>115.5</ele>
        <time>2021-05-20T12:21:22Z</time>
      </trkpt>
      <trkpt lat="42.2316430" lon="-8.7002850">
        <ele>115.5</ele>
        <time>2021-05-20T12:21:23Z</time>
      </trkpt>
      <trkpt lat="42.2316480" lon="-8.7002880">
        <ele>115.6</ele>
        <time>2021-05-20T12:21:24Z</time>
      </trkpt>
      <trkpt lat="42.2316630" lon="-8.7002890">
        <ele>115.6</ele>
        <time>2021-05-20T12:21:25Z</time>
      </trkpt>
      <trkpt lat="42.2316680" lon="-8.7003140">
        <ele>115.7</ele>
        <time>2021-05-20T12:21:26Z</time>
      </trkpt>
      <trkpt lat="42.2316640" lon="-8.7003400">
        <ele>115.8</ele>
        <time>2021-05-20T12:21:27Z</time>
      </trkpt>
      <trkpt lat="42.2316680" lon="-8.7003460">
        <ele>115.8</ele>
        <time>2021-05-20T12:21:28Z</time>
      </trkpt>
      <trkpt lat="42.2316700" lon="-8.7003560">
        <ele>115.9</ele>
        <time>2021-05-20T12:21:29Z</time>
      </trkpt>
      <trkpt lat="42.2316690" lon="-8.7003710">
        <ele>115.9</ele>
        <time>2021-05-20T12:21:30Z</time>
      </trkpt>
      <trkpt lat="42.2316770" lon="-8.7003770">
        <ele>115.9</ele>
        <time>2021-05-20T12:21:31Z</time>
      </trkpt>
      <trkpt lat="42.2316860" lon="-8.7003770">
        <ele>116.0</ele>
        <time>2021-05-20T12:21:32Z</time>
      </trkpt>
      <trkpt lat="42.2316810" lon="-8.7003960">
        <ele>116.0</ele>
        <time>2021-05-20T12:21:33Z</time>
      </trkpt>
      <trkpt lat="42.2316780" lon="-8.7003970">
        <ele>116.1</ele>
        <time>2021-05-20T12:21:34Z</time>
      </trkpt>
      <trkpt lat="42.2316730" lon="-8.7003910">
        <ele>116.1</ele>
        <time>2021-05-20T12:21:35Z</time>
      </trkpt>
      <trkpt lat="42.2316750" lon="-8.7003920">
        <ele>116.1</ele>
        <time>2021-05-20T12:21:36Z</time>
      </trkpt>
      <trkpt lat="42.2316790" lon="-8.7003910">
        <ele>116.1</ele>
        <time>2021-05-20T12:21:37Z</time>
      </trkpt>
      <trkpt lat="42.2316860" lon="-8.7003910">
        <ele>116.1</ele>
        <time>2021-05-20T12:21:38Z</time>
      </trkpt>
      <trkpt lat="42.2316900" lon="-8.7003800">
        <ele>116.2</ele>
        <time>2021-05-20T12:21:39Z</time>
      </trkpt>
      <trkpt lat="42.2317050" lon="-8.7003730">
        <ele>116.3</ele>
        <time>2021-05-20T12:21:40Z</time>
      </trkpt>
      <trkpt lat="42.2317090" lon="-8.7003680">
        <ele>116.3</ele>
        <time>2021-05-20T12:21:41Z</time>
      </trkpt>
      <trkpt lat="42.2317080" lon="-8.7003670">
        <ele>116.3</ele>
        <time>2021-05-20T12:21:42Z</time>
      </trkpt>
      <trkpt lat="42.2317070" lon="-8.7003640">
        <ele>116.3</ele>
        <time>2021-05-20T12:21:43Z</time>
      </trkpt>
      <trkpt lat="42.2317100" lon="-8.7003710">
        <ele>116.3</ele>
        <time>2021-05-20T12:21:44Z</time>
      </trkpt>
      <trkpt lat="42.2317180" lon="-8.7003590">
        <ele>116.4</ele>
        <time>2021-05-20T12:21:45Z</time>
      </trkpt>
      <trkpt lat="42.2317170" lon="-8.7003490">
        <ele>116.4</ele>
        <time>2021-05-20T12:21:46Z</time>
      </trkpt>
      <trkpt lat="42.2317100" lon="-8.7003470">
        <ele>116.4</ele>
        <time>2021-05-20T12:21:47Z</time>
      </trkpt>
      <trkpt lat="42.2317120" lon="-8.7003300">
        <ele>116.5</ele>
        <time>2021-05-20T12:21:48Z</time>
      </trkpt>
      <trkpt lat="42.2317290" lon="-8.7003070">
        <ele>116.6</ele>
        <time>2021-05-20T12:21:49Z</time>
      </trkpt>
      <trkpt lat="42.2317370" lon="-8.7003020">
        <ele>116.6</ele>
        <time>2021-05-20T12:21:50Z</time>
      </trkpt>
      <trkpt lat="42.2317450" lon="-8.7002960">
        <ele>116.7</ele>
        <time>2021-05-20T12:21:51Z</time>
      </trkpt>
      <trkpt lat="42.2317530" lon="-8.7002980">
        <ele>116.7</ele>
        <time>2021-05-20T12:21:52Z</time>
      </trkpt>
      <trkpt lat="42.2317620" lon="-8.7002860">
        <ele>116.8</ele>
        <time>2021-05-20T12:21:53Z</time>
      </trkpt>
      <trkpt lat="42.2317730" lon="-8.7002830">
        <ele>116.8</ele>
        <time>2021-05-20T12:21:54Z</time>
      </trkpt>
      <trkpt lat="42.2317940" lon="-8.7002810">
        <ele>116.9</ele>
        <time>2021-05-20T12:21:55Z</time>
      </trkpt>
      <trkpt lat="42.2318020" lon="-8.7002780">
        <ele>116.9</ele>
        <time>2021-05-20T12:21:56Z</time>
      </trkpt>
      <trkpt lat="42.2318100" lon="-8.7002750">
        <ele>117.0</ele>
        <time>2021-05-20T12:21:57Z</time>
      </trkpt>
      <trkpt lat="42.2318210" lon="-8.7002730">
        <ele>117.0</ele>
        <time>2021-05-20T12:21:58Z</time>
      </trkpt>
      <trkpt lat="42.2318390" lon="-8.7002700">
        <ele>117.1</ele>
        <time>2021-05-20T12:21:59Z</time>
      </trkpt>
      <trkpt lat="42.2318450" lon="-8.7002530">
        <ele>117.2</ele>
        <time>2021-05-20T12:22:00Z</time>
      </trkpt>
      <trkpt lat="42.2318540" lon="-8.7002450">
        <ele>117.2</ele>
        <time>2021-05-20T12:22:01Z</time>
      </trkpt>
      <trkpt lat="42.2318560" lon="-8.7002330">
        <ele>117.2</ele>
        <time>2021-05-20T12:22:02Z</time>
      </trkpt>
      <trkpt lat="42.2318610" lon="-8.7002270">
        <ele>117.3</ele>
        <time>2021-05-20T12:22:03Z</time>
      </trkpt>
      <trkpt lat="42.2318660" lon="-8.7002290">
        <ele>117.3</ele>
        <time>2021-05-20T12:22:04Z</time>
      </trkpt>
      <trkpt lat="42.2318680" lon="-8.7002240">
        <ele>117.3</ele>
        <time>2021-05-20T12:22:05Z</time>
      </trkpt>
      <trkpt lat="42.2318840" lon="-8.7002220">
        <ele>117.4</ele>
        <time>2021-05-20T12:22:07Z</time>
      </trkpt>
      <trkpt lat="42.2319100" lon="-8.7002020">
        <ele>117.5</ele>
        <time>2021-05-20T12:22:08Z</time>
      </trkpt>
      <trkpt lat="42.2319250" lon="-8.7002060">
        <ele>117.6</ele>
        <time>2021-05-20T12:22:09Z</time>
      </trkpt>
      <trkpt lat="42.2319450" lon="-8.7001940">
        <ele>117.7</ele>
        <time>2021-05-20T12:22:10Z</time>
      </trkpt>
      <trkpt lat="42.2319740" lon="-8.7001860">
        <ele>117.8</ele>
        <time>2021-05-20T12:22:11Z</time>
      </trkpt>
      <trkpt lat="42.2319860" lon="-8.7001920">
        <ele>117.8</ele>
        <time>2021-05-20T12:22:12Z</time>
      </trkpt>
      <trkpt lat="42.2319880" lon="-8.7001810">
        <ele>117.9</ele>
        <time>2021-05-20T12:22:13Z</time>
      </trkpt>
      <trkpt lat="42.2320040" lon="-8.7001680">
        <ele>118.0</ele>
        <time>2021-05-20T12:22:14Z</time>
      </trkpt>
      <trkpt lat="42.2320160" lon="-8.7001730">
        <ele>118.0</ele>
        <time>2021-05-20T12:22:15Z</time>
      </trkpt>
      <trkpt lat="42.2320500" lon="-8.7001730">
        <ele>118.2</ele>
        <time>2021-05-20T12:22:16Z</time>
      </trkpt>
      <trkpt lat="42.2320610" lon="-8.7001760">
        <ele>118.2</ele>
        <time>2021-05-20T12:22:17Z</time>
      </trkpt>
      <trkpt lat="42.2320900" lon="-8.7001850">
        <ele>118.3</ele>
        <time>2021-05-20T12:22:18Z</time>
      </trkpt>
      <trkpt lat="42.2321250" lon="-8.7001950">
        <ele>118.5</ele>
        <time>2021-05-20T12:22:19Z</time>
      </trkpt>
      <trkpt lat="42.2321480" lon="-8.7001850">
        <ele>118.6</ele>
        <time>2021-05-20T12:22:20Z</time>
      </trkpt>
      <trkpt lat="42.2321500" lon="-8.7001780">
        <ele>118.6</ele>
        <time>2021-05-20T12:22:21Z</time>
      </trkpt>
      <trkpt lat="42.2321600" lon="-8.7001670">
        <ele>118.7</ele>
        <time>2021-05-20T12:22:22Z</time>
      </trkpt>
      <trkpt lat="42.2321750" lon="-8.7001600">
        <ele>118.8</ele>
        <time>2021-05-20T12:22:23Z</time>
      </trkpt>
      <trkpt lat="42.2322020" lon="-8.7001830">
        <ele>118.9</ele>
        <time>2021-05-20T12:22:24Z</time>
      </trkpt>
      <trkpt lat="42.2322260" lon="-8.7001840">
        <ele>119.0</ele>
        <time>2021-05-20T12:22:25Z</time>
      </trkpt>
      <trkpt lat="42.2322230" lon="-8.7001560">
        <ele>119.1</ele>
        <time>2021-05-20T12:22:26Z</time>
      </trkpt>
      <trkpt lat="42.2322250" lon="-8.7001370">
        <ele>119.2</ele>
        <time>2021-05-20T12:22:27Z</time>
      </trkpt>
      <trkpt lat="42.2322380" lon="-8.7001280">
        <ele>119.2</ele>
        <time>2021-05-20T12:22:28Z</time>
      </trkpt>
      <trkpt lat="42.2322520" lon="-8.7001390">
        <ele>119.3</ele>
        <time>2021-05-20T12:22:29Z</time>
      </trkpt>
      <trkpt lat="42.2322640" lon="-8.7001380">
        <ele>119.4</ele>
        <time>2021-05-20T12:22:30Z</time>
      </trkpt>
      <trkpt lat="42.2322780" lon="-8.7001420">
        <ele>119.4</ele>
        <time>2021-05-20T12:22:31Z</time>
      </trkpt>
      <trkpt lat="42.2322860" lon="-8.7001450">
        <ele>119.5</ele>
        <time>2021-05-20T12:22:32Z</time>
      </trkpt>
      <trkpt lat="42.2322990" lon="-8.7001470">
        <ele>119.5</ele>
        <time>2021-05-20T12:22:33Z</time>
      </trkpt>
      <trkpt lat="42.2323070" lon="-8.7001470">
        <ele>119.5</ele>
        <time>2021-05-20T12:22:34Z</time>
      </trkpt>
      <trkpt lat="42.2323160" lon="-8.7001480">
        <ele>119.6</ele>
        <time>2021-05-20T12:22:35Z</time>
      </trkpt>
      <trkpt lat="42.2323240" lon="-8.7001480">
        <ele>119.6</ele>
        <time>2021-05-20T12:22:36Z</time>
      </trkpt>
      <trkpt lat="42.2323460" lon="-8.7001480">
        <ele>119.7</ele>
        <time>2021-05-20T12:22:37Z</time>
      </trkpt>
      <trkpt lat="42.2323550" lon="-8.7001560">
        <ele>119.8</ele>
        <time>2021-05-20T12:22:38Z</time>
      </trkpt>
      <trkpt lat="42.2323680" lon="-8.7001490">
        <ele>119.8</ele>
        <time>2021-05-20T12:22:39Z</time>
      </trkpt>
      <trkpt lat="42.2323720" lon="-8.7001400">
        <ele>119.9</ele>
        <time>2021-05-20T12:22:40Z</time>
      </trkpt>
      <trkpt lat="42.2323850" lon="-8.7001330">
        <ele>119.9</ele>
        <time>2021-05-20T12:22:41Z</time>
      </trkpt>
      <trkpt lat="42.2323970" lon="-8.7001360">
        <ele>120.0</ele>
        <time>2021-05-20T12:22:42Z</time>
      </trkpt>
      <trkpt lat="42.2324090" lon="-8.7001220">
        <ele>120.0</ele>
        <time>2021-05-20T12:22:43Z</time>
      </trkpt>
      <trkpt lat="42.2324180" lon="-8.7001150">
        <ele>120.1</ele>
        <time>2021-05-20T12:22:44Z</time>
      </trkpt>
      <trkpt lat="42.2324250" lon="-8.7001060">
        <ele>120.1</ele>
        <time>2021-05-20T12:22:45Z</time>
      </trkpt>
      <trkpt lat="42.2324350" lon="-8.7001020">
        <ele>120.2</ele>
        <time>2021-05-20T12:22:46Z</time>
      </trkpt>
      <trkpt lat="42.2324440" lon="-8.7000980">
        <ele>120.3</ele>
        <time>2021-05-20T12:22:47Z</time>
      </trkpt>
      <trkpt lat="42.2324480" lon="-8.7001050">
        <ele>120.3</ele>
        <time>2021-05-20T12:22:48Z</time>
      </trkpt>
      <trkpt lat="42.2324530" lon="-8.7001020">
        <ele>120.3</ele>
        <time>2021-05-20T12:22:49Z</time>
      </trkpt>
      <trkpt lat="42.2324610" lon="-8.7000980">
        <ele>120.3</ele>
        <time>2021-05-20T12:22:50Z</time>
      </trkpt>
      <trkpt lat="42.2324700" lon="-8.7000910">
        <ele>120.4</ele>
        <time>2021-05-20T12:22:51Z</time>
      </trkpt>
      <trkpt lat="42.2324740" lon="-8.7000870">
        <ele>120.4</ele>
        <time>2021-05-20T12:22:52Z</time>
      </trkpt>
      <trkpt lat="42.2324740" lon="-8.7000880">
        <ele>120.4</ele>
        <time>2021-05-20T12:22:53Z</time>
      </trkpt>
      <trkpt lat="42.2324820" lon="-8.7000840">
        <ele>120.4</ele>
        <time>2021-05-20T12:22:54Z</time>
      </trkpt>
      <trkpt lat="42.2324830" lon="-8.7000760">
        <ele>120.5</ele>
        <time>2021-05-20T12:22:55Z</time>
      </trkpt>
      <trkpt lat="42.2324890" lon="-8.7000740">
        <ele>120.5</ele>
        <time>2021-05-20T12:22:56Z</time>
      </trkpt>
      <trkpt lat="42.2324990" lon="-8.7000640">
        <ele>120.5</ele>
        <time>2021-05-20T12:22:57Z</time>
      </trkpt>
      <trkpt lat="42.2325160" lon="-8.7000430">
        <ele>120.6</ele>
        <time>2021-05-20T12:22:58Z</time>
      </trkpt>
      <trkpt lat="42.2325230" lon="-8.7000330">
        <ele>120.6</ele>
        <time>2021-05-20T12:22:59Z</time>
      </trkpt>
      <trkpt lat="42.2325340" lon="-8.7000180">
        <ele>120.7</ele>
        <time>2021-05-20T12:23:00Z</time>
      </trkpt>
      <trkpt lat="42.2325410" lon="-8.7000120">
        <ele>120.7</ele>
        <time>2021-05-20T12:23:01Z</time>
      </trkpt>
      <trkpt lat="42.2325480" lon="-8.7000050">
        <ele>120.8</ele>
        <time>2021-05-20T12:23:02Z</time>
      </trkpt>
      <trkpt lat="42.2325550" lon="-8.6999990">
        <ele>120.8</ele>
        <time>2021-05-20T12:23:03Z</time>
      </trkpt>
      <trkpt lat="42.2325670" lon="-8.6999930">
        <ele>120.8</ele>
        <time>2021-05-20T12:23:04Z</time>
      </trkpt>
      <trkpt lat="42.2325760" lon="-8.6999860">
        <ele>120.9</ele>
        <time>2021-05-20T12:23:05Z</time>
      </trkpt>
      <trkpt lat="42.2325860" lon="-8.6999870">
        <ele>120.9</ele>
        <time>2021-05-20T12:23:06Z</time>
      </trkpt>
      <trkpt lat="42.2326050" lon="-8.7000000">
        <ele>121.0</ele>
        <time>2021-05-20T12:23:07Z</time>
      </trkpt>
      <trkpt lat="42.2326210" lon="-8.7000020">
        <ele>121.0</ele>
        <time>2021-05-20T12:23:08Z</time>
      </trkpt>
      <trkpt lat="42.2326380" lon="-8.7000030">
        <ele>121.0</ele>
        <time>2021-05-20T12:23:09Z</time>
      </trkpt>
      <trkpt lat="42.2326690" lon="-8.7000090">
        <ele>121.1</ele>
        <time>2021-05-20T12:23:10Z</time>
      </trkpt>
      <trkpt lat="42.2326780" lon="-8.7000120">
        <ele>121.2</ele>
        <time>2021-05-20T12:23:11Z</time>
      </trkpt>
      <trkpt lat="42.2326990" lon="-8.7000340">
        <ele>121.2</ele>
        <time>2021-05-20T12:23:12Z</time>
      </trkpt>
      <trkpt lat="42.2327090" lon="-8.7000320">
        <ele>121.3</ele>
        <time>2021-05-20T12:23:13Z</time>
      </trkpt>
      <trkpt lat="42.2327150" lon="-8.7000300">
        <ele>121.3</ele>
        <time>2021-05-20T12:23:14Z</time>
      </trkpt>
      <trkpt lat="42.2327210" lon="-8.7000300">
        <ele>121.3</ele>
        <time>2021-05-20T12:23:15Z</time>
      </trkpt>
      <trkpt lat="42.2327290" lon="-8.7000320">
        <ele>121.3</ele>
        <time>2021-05-20T12:23:16Z</time>
      </trkpt>
      <trkpt lat="42.2327300" lon="-8.7000340">
        <ele>121.3</ele>
        <time>2021-05-20T12:23:17Z</time>
      </trkpt>
      <trkpt lat="42.2327240" lon="-8.7000420">
        <ele>121.3</ele>
        <time>2021-05-20T12:23:18Z</time>
      </trkpt>
      <trkpt lat="42.2327240" lon="-8.7000520">
        <ele>121.4</ele>
        <time>2021-05-20T12:23:19Z</time>
      </trkpt>
      <trkpt lat="42.2327200" lon="-8.7000630">
        <ele>121.4</ele>
        <time>2021-05-20T12:23:20Z</time>
      </trkpt>
      <trkpt lat="42.2327170" lon="-8.7000690">
        <ele>121.4</ele>
        <time>2021-05-20T12:23:21Z</time>
      </trkpt>
      <trkpt lat="42.2327220" lon="-8.7000880">
        <ele>121.4</ele>
        <time>2021-05-20T12:23:22Z</time>
      </trkpt>
      <trkpt lat="42.2327290" lon="-8.7000970">
        <ele>121.5</ele>
        <time>2021-05-20T12:23:23Z</time>
      </trkpt>
      <trkpt lat="42.2327350" lon="-8.7001050">
        <ele>121.5</ele>
        <time>2021-05-20T12:23:24Z</time>
      </trkpt>
      <trkpt lat="42.2327410" lon="-8.7001140">
        <ele>121.5</ele>
        <time>2021-05-20T12:23:25Z</time>
      </trkpt>
      <trkpt lat="42.2327480" lon="-8.7001270">
        <ele>121.5</ele>
        <time>2021-05-20T12:23:26Z</time>
      </trkpt>
      <trkpt lat="42.2327540" lon="-8.7001330">
        <ele>121.5</ele>
        <time>2021-05-20T12:23:27Z</time>
      </trkpt>
      <trkpt lat="42.2327620" lon="-8.7001460">
        <ele>121.6</ele>
        <time>2021-05-20T12:23:28Z</time>
      </trkpt>
      <trkpt lat="42.2327590" lon="-8.7001470">
        <ele>121.6</ele>
        <time>2021-05-20T12:23:29Z</time>
      </trkpt>
      <trkpt lat="42.2327590" lon="-8.7001600">
        <ele>121.6</ele>
        <time>2021-05-20T12:23:30Z</time>
      </trkpt>
      <trkpt lat="42.2327640" lon="-8.7001790">
        <ele>121.6</ele>
        <time>2021-05-20T12:23:31Z</time>
      </trkpt>
      <trkpt lat="42.2327700" lon="-8.7001890">
        <ele>121.7</ele>
        <time>2021-05-20T12:23:32Z</time>
      </trkpt>
      <trkpt lat="42.2327690" lon="-8.7001740">
        <ele>121.7</ele>
        <time>2021-05-20T12:23:33Z</time>
      </trkpt>
      <trkpt lat="42.2327700" lon="-8.7001670">
        <ele>121.7</ele>
        <time>2021-05-20T12:23:34Z</time>
      </trkpt>
      <trkpt lat="42.2327720" lon="-8.7001610">
        <ele>121.7</ele>
        <time>2021-05-20T12:23:35Z</time>
      </trkpt>
      <trkpt lat="42.2327730" lon="-8.7001540">
        <ele>121.7</ele>
        <time>2021-05-20T12:23:36Z</time>
      </trkpt>
      <trkpt lat="42.2327750" lon="-8.7001470">
        <ele>121.7</ele>
        <time>2021-05-20T12:23:37Z</time>
      </trkpt>
      <trkpt lat="42.2327760" lon="-8.7001400">
        <ele>121.8</ele>
        <time>2021-05-20T12:23:38Z</time>
      </trkpt>
      <trkpt lat="42.2327860" lon="-8.7001210">
        <ele>121.8</ele>
        <time>2021-05-20T12:23:39Z</time>
      </trkpt>
      <trkpt lat="42.2327900" lon="-8.7001110">
        <ele>121.8</ele>
        <time>2021-05-20T12:23:40Z</time>
      </trkpt>
      <trkpt lat="42.2327940" lon="-8.7001020">
        <ele>121.8</ele>
        <time>2021-05-20T12:23:41Z</time>
      </trkpt>
      <trkpt lat="42.2327980" lon="-8.7000920">
        <ele>121.9</ele>
        <time>2021-05-20T12:23:42Z</time>
      </trkpt>
      <trkpt lat="42.2328140" lon="-8.7000750">
        <ele>121.9</ele>
        <time>2021-05-20T12:23:43Z</time>
      </trkpt>
      <trkpt lat="42.2328200" lon="-8.7000660">
        <ele>121.9</ele>
        <time>2021-05-20T12:23:44Z</time>
      </trkpt>
      <trkpt lat="42.2328270" lon="-8.7000580">
        <ele>121.9</ele>
        <time>2021-05-20T12:23:45Z</time>
      </trkpt>
      <trkpt lat="42.2328430" lon="-8.7000230">
        <ele>122.0</ele>
        <time>2021-05-20T12:23:46Z</time>
      </trkpt>
      <trkpt lat="42.2328680" lon="-8.7000100">
        <ele>122.1</ele>
        <time>2021-05-20T12:23:47Z</time>
      </trkpt>
      <trkpt lat="42.2328800" lon="-8.7000050">
        <ele>122.1</ele>
        <time>2021-05-20T12:23:48Z</time>
      </trkpt>
      <trkpt lat="42.2328850" lon="-8.7000130">
        <ele>122.1</ele>
        <time>2021-05-20T12:23:49Z</time>
      </trkpt>
      <trkpt lat="42.2328950" lon="-8.7000280">
        <ele>122.2</ele>
        <time>2021-05-20T12:23:50Z</time>
      </trkpt>
      <trkpt lat="42.2329090" lon="-8.7000350">
        <ele>122.2</ele>
        <time>2021-05-20T12:23:51Z</time>
      </trkpt>
      <trkpt lat="42.2329160" lon="-8.7000380">
        <ele>122.2</ele>
        <time>2021-05-20T12:23:52Z</time>
      </trkpt>
      <trkpt lat="42.2329170" lon="-8.7000350">
        <ele>122.2</ele>
        <time>2021-05-20T12:23:53Z</time>
      </trkpt>
      <trkpt lat="42.2329280" lon="-8.7000440">
        <ele>122.2</ele>
        <time>2021-05-20T12:23:54Z</time>
      </trkpt>
      <trkpt lat="42.2329400" lon="-8.7000530">
        <ele>122.3</ele>
        <time>2021-05-20T12:23:55Z</time>
      </trkpt>
      <trkpt lat="42.2329500" lon="-8.7000490">
        <ele>122.3</ele>
        <time>2021-05-20T12:23:56Z</time>
      </trkpt>
      <trkpt lat="42.2329660" lon="-8.7000340">
        <ele>122.3</ele>
        <time>2021-05-20T12:23:57Z</time>
      </trkpt>
      <trkpt lat="42.2330030" lon="-8.7000290">
        <ele>122.4</ele>
        <time>2021-05-20T12:23:58Z</time>
      </trkpt>
      <trkpt lat="42.2330130" lon="-8.7000210">
        <ele>122.4</ele>
        <time>2021-05-20T12:23:59Z</time>
      </trkpt>
      <trkpt lat="42.2330290" lon="-8.7000250">
        <ele>122.5</ele>
        <time>2021-05-20T12:24:00Z</time>
      </trkpt>
      <trkpt lat="42.2330430" lon="-8.7000390">
        <ele>122.5</ele>
        <time>2021-05-20T12:24:01Z</time>
      </trkpt>
      <trkpt lat="42.2330530" lon="-8.7000400">
        <ele>122.5</ele>
        <time>2021-05-20T12:24:02Z</time>
      </trkpt>
      <trkpt lat="42.2330620" lon="-8.7000430">
        <ele>122.6</ele>
        <time>2021-05-20T12:24:03Z</time>
      </trkpt>
      <trkpt lat="42.2330700" lon="-8.7000410">
        <ele>122.6</ele>
        <time>2021-05-20T12:24:04Z</time>
      </trkpt>
      <trkpt lat="42.2330840" lon="-8.7000420">
        <ele>122.6</ele>
        <time>2021-05-20T12:24:05Z</time>
      </trkpt>
      <trkpt lat="42.2330920" lon="-8.7000390">
        <ele>122.6</ele>
        <time>2021-05-20T12:24:06Z</time>
      </trkpt>
      <trkpt lat="42.2331050" lon="-8.7000320">
        <ele>122.6</ele>
        <time>2021-05-20T12:24:07Z</time>
      </trkpt>
      <trkpt lat="42.2331270" lon="-8.7000150">
        <ele>122.7</ele>
        <time>2021-05-20T12:24:08Z</time>
      </trkpt>
      <trkpt lat="42.2331360" lon="-8.7000150">
        <ele>122.7</ele>
        <time>2021-05-20T12:24:09Z</time>
      </trkpt>
      <trkpt lat="42.2331450" lon="-8.7000200">
        <ele>122.7</ele>
        <time>2021-05-20T12:24:10Z</time>
      </trkpt>
      <trkpt lat="42.2331530" lon="-8.7000170">
        <ele>122.8</ele>
        <time>2021-05-20T12:24:11Z</time>
      </trkpt>
      <trkpt lat="42.2331590" lon="-8.7000160">
        <ele>122.8</ele>
        <time>2021-05-20T12:24:12Z</time>
      </trkpt>
      <trkpt lat="42.2331640" lon="-8.7000280">
        <ele>122.8</ele>
        <time>2021-05-20T12:24:13Z</time>
      </trkpt>
      <trkpt lat="42.2331630" lon="-8.7000400">
        <ele>122.8</ele>
        <time>2021-05-20T12:24:14Z</time>
      </trkpt>
      <trkpt lat="42.2331650" lon="-8.7000530">
        <ele>122.8</ele>
        <time>2021-05-20T12:24:15Z</time>
      </trkpt>
      <trkpt lat="42.2331610" lon="-8.7000660">
        <ele>122.8</ele>
        <time>2021-05-20T12:24:16Z</time>
      </trkpt>
      <trkpt lat="42.2331400" lon="-8.7000900">
        <ele>122.9</ele>
        <time>2021-05-20T12:24:17Z</time>
      </trkpt>
      <trkpt lat="42.2331290" lon="-8.7001070">
        <ele>122.9</ele>
        <time>2021-05-20T12:24:18Z</time>
      </trkpt>
      <trkpt lat="42.2331260" lon="-8.7001130">
        <ele>122.9</ele>
        <time>2021-05-20T12:24:19Z</time>
      </trkpt>
      <trkpt lat="42.2331430" lon="-8.7001200">
        <ele>123.0</ele>
        <time>2021-05-20T12:24:20Z</time>
      </trkpt>
      <trkpt lat="42.2331430" lon="-8.7001240">
        <ele>123.0</ele>
        <time>2021-05-20T12:24:21Z</time>
      </trkpt>
      <trkpt lat="42.2331390" lon="-8.7001360">
        <ele>123.0</ele>
        <time>2021-05-20T12:24:22Z</time>
      </trkpt>
      <trkpt lat="42.2331350" lon="-8.7001630">
        <ele>123.0</ele>
        <time>2021-05-20T12:24:23Z</time>
      </trkpt>
      <trkpt lat="42.2331360" lon="-8.7001540">
        <ele>123.0</ele>
        <time>2021-05-20T12:24:24Z</time>
      </trkpt>
      <trkpt lat="42.2331220" lon="-8.7001290">
        <ele>123.1</ele>
        <time>2021-05-20T12:24:25Z</time>
      </trkpt>
      <trkpt lat="42.2331220" lon="-8.7001020">
        <ele>123.1</ele>
        <time>2021-05-20T12:24:26Z</time>
      </trkpt>
      <trkpt lat="42.2331250" lon="-8.7000910">
        <ele>123.1</ele>
        <time>2021-05-20T12:24:27Z</time>
      </trkpt>
      <trkpt lat="42.2331270" lon="-8.7000840">
        <ele>123.1</ele>
        <time>2021-05-20T12:24:28Z</time>
      </trkpt>
      <trkpt lat="42.2331290" lon="-8.7000780">
        <ele>123.1</ele>
        <time>2021-05-20T12:24:29Z</time>
      </trkpt>
      <trkpt lat="42.2331320" lon="-8.7000710">
        <ele>123.1</ele>
        <time>2021-05-20T12:24:30Z</time>
      </trkpt>
      <trkpt lat="42.2331340" lon="-8.7000650">
        <ele>123.1</ele>
        <time>2021-05-20T12:24:31Z</time>
      </trkpt>
      <trkpt lat="42.2331360" lon="-8.7000580">
        <ele>123.2</ele>
        <time>2021-05-20T12:24:32Z</time>
      </trkpt>
      <trkpt lat="42.2331380" lon="-8.7000520">
        <ele>123.2</ele>
        <time>2021-05-20T12:24:33Z</time>
      </trkpt>
      <trkpt lat="42.2331460" lon="-8.7000000">
        <ele>123.2</ele>
        <time>2021-05-20T12:24:34Z</time>
      </trkpt>
      <trkpt lat="42.2331590" lon="-8.6999430">
        <ele>123.3</ele>
        <time>2021-05-20T12:24:35Z</time>
      </trkpt>
      <trkpt lat="42.2331790" lon="-8.6999080">
        <ele>123.3</ele>
        <time>2021-05-20T12:24:36Z</time>
      </trkpt>
      <trkpt lat="42.2331970" lon="-8.6998740">
        <ele>123.5</ele>
        <time>2021-05-20T12:24:37Z</time>
      </trkpt>
      <trkpt lat="42.2332030" lon="-8.6998300">
        <ele>123.6</ele>
        <time>2021-05-20T12:24:38Z</time>
      </trkpt>
      <trkpt lat="42.2332160" lon="-8.6997940">
        <ele>123.7</ele>
        <time>2021-05-20T12:24:39Z</time>
      </trkpt>
      <trkpt lat="42.2332390" lon="-8.6997560">
        <ele>123.8</ele>
        <time>2021-05-20T12:24:40Z</time>
      </trkpt>
      <trkpt lat="42.2332650" lon="-8.6997210">
        <ele>123.9</ele>
        <time>2021-05-20T12:24:41Z</time>
      </trkpt>
      <trkpt lat="42.2332730" lon="-8.6997050">
        <ele>123.9</ele>
        <time>2021-05-20T12:24:42Z</time>
      </trkpt>
      <trkpt lat="42.2332980" lon="-8.6996810">
        <ele>124.0</ele>
        <time>2021-05-20T12:24:43Z</time>
      </trkpt>
      <trkpt lat="42.2333090" lon="-8.6996680">
        <ele>124.1</ele>
        <time>2021-05-20T12:24:44Z</time>
      </trkpt>
      <trkpt lat="42.2333250" lon="-8.6996470">
        <ele>124.1</ele>
        <time>2021-05-20T12:24:45Z</time>
      </trkpt>
      <trkpt lat="42.2333340" lon="-8.6996350">
        <ele>124.2</ele>
        <time>2021-05-20T12:24:46Z</time>
      </trkpt>
      <trkpt lat="42.2333440" lon="-8.6996220">
        <ele>124.2</ele>
        <time>2021-05-20T12:24:47Z</time>
      </trkpt>
      <trkpt lat="42.2333520" lon="-8.6996050">
        <ele>124.3</ele>
        <time>2021-05-20T12:24:48Z</time>
      </trkpt>
      <trkpt lat="42.2333650" lon="-8.6995890">
        <ele>124.3</ele>
        <time>2021-05-20T12:24:49Z</time>
      </trkpt>
      <trkpt lat="42.2333850" lon="-8.6995690">
        <ele>124.4</ele>
        <time>2021-05-20T12:24:50Z</time>
      </trkpt>
      <trkpt lat="42.2333900" lon="-8.6995570">
        <ele>124.4</ele>
        <time>2021-05-20T12:24:51Z</time>
      </trkpt>
      <trkpt lat="42.2334000" lon="-8.6995250">
        <ele>124.5</ele>
        <time>2021-05-20T12:24:52Z</time>
      </trkpt>
      <trkpt lat="42.2334010" lon="-8.6995160">
        <ele>124.6</ele>
        <time>2021-05-20T12:24:53Z</time>
      </trkpt>
      <trkpt lat="42.2334020" lon="-8.6995070">
        <ele>124.6</ele>
        <time>2021-05-20T12:24:54Z</time>
      </trkpt>
      <trkpt lat="42.2334020" lon="-8.6994880">
        <ele>124.6</ele>
        <time>2021-05-20T12:24:55Z</time>
      </trkpt>
      <trkpt lat="42.2334090" lon="-8.6994720">
        <ele>124.7</ele>
        <time>2021-05-20T12:24:56Z</time>
      </trkpt>
      <trkpt lat="42.2334190" lon="-8.6994590">
        <ele>124.7</ele>
        <time>2021-05-20T12:24:57Z</time>
      </trkpt>
      <trkpt lat="42.2334200" lon="-8.6994340">
        <ele>124.8</ele>
        <time>2021-05-20T12:24:58Z</time>
      </trkpt>
      <trkpt lat="42.2334160" lon="-8.6994130">
        <ele>124.9</ele>
        <time>2021-05-20T12:24:59Z</time>
      </trkpt>
      <trkpt lat="42.2334170" lon="-8.6993980">
        <ele>124.9</ele>
        <time>2021-05-20T12:25:00Z</time>
      </trkpt>
      <trkpt lat="42.2334180" lon="-8.6993820">
        <ele>125.0</ele>
        <time>2021-05-20T12:25:01Z</time>
      </trkpt>
      <trkpt lat="42.2334190" lon="-8.6993590">
        <ele>125.1</ele>
        <time>2021-05-20T12:25:02Z</time>
      </trkpt>
      <trkpt lat="42.2334200" lon="-8.6993380">
        <ele>125.1</ele>
        <time>2021-05-20T12:25:03Z</time>
      </trkpt>
      <trkpt lat="42.2334130" lon="-8.6993090">
        <ele>125.2</ele>
        <time>2021-05-20T12:25:04Z</time>
      </trkpt>
      <trkpt lat="42.2334080" lon="-8.6992970">
        <ele>125.3</ele>
        <time>2021-05-20T12:25:05Z</time>
      </trkpt>
      <trkpt lat="42.2334040" lon="-8.6992850">
        <ele>125.3</ele>
        <time>2021-05-20T12:25:06Z</time>
      </trkpt>
      <trkpt lat="42.2334070" lon="-8.6992690">
        <ele>125.4</ele>
        <time>2021-05-20T12:25:07Z</time>
      </trkpt>
      <trkpt lat="42.2334080" lon="-8.6992550">
        <ele>125.4</ele>
        <time>2021-05-20T12:25:08Z</time>
      </trkpt>
      <trkpt lat="42.2334140" lon="-8.6992400">
        <ele>125.5</ele>
        <time>2021-05-20T12:25:09Z</time>
      </trkpt>
      <trkpt lat="42.2334140" lon="-8.6992130">
        <ele>125.6</ele>
        <time>2021-05-20T12:25:10Z</time>
      </trkpt>
      <trkpt lat="42.2334130" lon="-8.6992000">
        <ele>125.6</ele>
        <time>2021-05-20T12:25:11Z</time>
      </trkpt>
      <trkpt lat="42.2334110" lon="-8.6991870">
        <ele>125.7</ele>
        <time>2021-05-20T12:25:12Z</time>
      </trkpt>
      <trkpt lat="42.2334140" lon="-8.6991770">
        <ele>125.7</ele>
        <time>2021-05-20T12:25:13Z</time>
      </trkpt>
      <trkpt lat="42.2334440" lon="-8.6991670">
        <ele>125.8</ele>
        <time>2021-05-20T12:25:14Z</time>
      </trkpt>
      <trkpt lat="42.2334400" lon="-8.6991470">
        <ele>125.9</ele>
        <time>2021-05-20T12:25:15Z</time>
      </trkpt>
      <trkpt lat="42.2334470" lon="-8.6991260">
        <ele>126.0</ele>
        <time>2021-05-20T12:25:16Z</time>
      </trkpt>
      <trkpt lat="42.2334600" lon="-8.6991180">
        <ele>126.1</ele>
        <time>2021-05-20T12:25:17Z</time>
      </trkpt>
      <trkpt lat="42.2334730" lon="-8.6990970">
        <ele>126.1</ele>
        <time>2021-05-20T12:25:18Z</time>
      </trkpt>
      <trkpt lat="42.2334930" lon="-8.6990760">
        <ele>126.3</ele>
        <time>2021-05-20T12:25:19Z</time>
      </trkpt>
      <trkpt lat="42.2335000" lon="-8.6990620">
        <ele>126.3</ele>
        <time>2021-05-20T12:25:20Z</time>
      </trkpt>
      <trkpt lat="42.2335130" lon="-8.6990430">
        <ele>126.4</ele>
        <time>2021-05-20T12:25:21Z</time>
      </trkpt>
      <trkpt lat="42.2335220" lon="-8.6990340">
        <ele>126.5</ele>
        <time>2021-05-20T12:25:22Z</time>
      </trkpt>
      <trkpt lat="42.2335300" lon="-8.6990240">
        <ele>126.5</ele>
        <time>2021-05-20T12:25:23Z</time>
      </trkpt>
      <trkpt lat="42.2335360" lon="-8.6990120">
        <ele>126.6</ele>
        <time>2021-05-20T12:25:24Z</time>
      </trkpt>
      <trkpt lat="42.2335460" lon="-8.6989920">
        <ele>126.6</ele>
        <time>2021-05-20T12:25:25Z</time>
      </trkpt>
      <trkpt lat="42.2335580" lon="-8.6989810">
        <ele>126.7</ele>
        <time>2021-05-20T12:25:26Z</time>
      </trkpt>
      <trkpt lat="42.2335690" lon="-8.6989560">
        <ele>126.7</ele>
        <time>2021-05-20T12:25:27Z</time>
      </trkpt>
      <trkpt lat="42.2335760" lon="-8.6989440">
        <ele>126.7</ele>
        <time>2021-05-20T12:25:28Z</time>
      </trkpt>
      <trkpt lat="42.2335890" lon="-8.6989260">
        <ele>126.8</ele>
        <time>2021-05-20T12:25:29Z</time>
      </trkpt>
      <trkpt lat="42.2335950" lon="-8.6989210">
        <ele>126.8</ele>
        <time>2021-05-20T12:25:30Z</time>
      </trkpt>
      <trkpt lat="42.2336040" lon="-8.6989080">
        <ele>126.8</ele>
        <time>2021-05-20T12:25:31Z</time>
      </trkpt>
      <trkpt lat="42.2336150" lon="-8.6988940">
        <ele>126.9</ele>
        <time>2021-05-20T12:25:32Z</time>
      </trkpt>
      <trkpt lat="42.2336210" lon="-8.6988740">
        <ele>126.9</ele>
        <time>2021-05-20T12:25:33Z</time>
      </trkpt>
      <trkpt lat="42.2336230" lon="-8.6988620">
        <ele>126.9</ele>
        <time>2021-05-20T12:25:34Z</time>
      </trkpt>
      <trkpt lat="42.2336260" lon="-8.6988490">
        <ele>127.0</ele>
        <time>2021-05-20T12:25:35Z</time>
      </trkpt>
      <trkpt lat="42.2336280" lon="-8.6988370">
        <ele>127.0</ele>
        <time>2021-05-20T12:25:36Z</time>
      </trkpt>
      <trkpt lat="42.2336320" lon="-8.6988100">
        <ele>127.1</ele>
        <time>2021-05-20T12:25:37Z</time>
      </trkpt>
      <trkpt lat="42.2336350" lon="-8.6987970">
        <ele>127.1</ele>
        <time>2021-05-20T12:25:38Z</time>
      </trkpt>
      <trkpt lat="42.2336380" lon="-8.6987830">
        <ele>127.1</ele>
        <time>2021-05-20T12:25:39Z</time>
      </trkpt>
      <trkpt lat="42.2336410" lon="-8.6987600">
        <ele>127.2</ele>
        <time>2021-05-20T12:25:40Z</time>
      </trkpt>
      <trkpt lat="42.2336420" lon="-8.6987450">
        <ele>127.2</ele>
        <time>2021-05-20T12:25:41Z</time>
      </trkpt>
      <trkpt lat="42.2336470" lon="-8.6987240">
        <ele>127.3</ele>
        <time>2021-05-20T12:25:42Z</time>
      </trkpt>
      <trkpt lat="42.2336500" lon="-8.6987000">
        <ele>127.4</ele>
        <time>2021-05-20T12:25:43Z</time>
      </trkpt>
      <trkpt lat="42.2336500" lon="-8.6986750">
        <ele>127.5</ele>
        <time>2021-05-20T12:25:44Z</time>
      </trkpt>
      <trkpt lat="42.2336520" lon="-8.6986610">
        <ele>127.5</ele>
        <time>2021-05-20T12:25:45Z</time>
      </trkpt>
      <trkpt lat="42.2336550" lon="-8.6986470">
        <ele>127.6</ele>
        <time>2021-05-20T12:25:46Z</time>
      </trkpt>
      <trkpt lat="42.2336570" lon="-8.6986280">
        <ele>127.7</ele>
        <time>2021-05-20T12:25:47Z</time>
      </trkpt>
      <trkpt lat="42.2336580" lon="-8.6986190">
        <ele>127.7</ele>
        <time>2021-05-20T12:25:48Z</time>
      </trkpt>
      <trkpt lat="42.2336600" lon="-8.6986090">
        <ele>127.8</ele>
        <time>2021-05-20T12:25:49Z</time>
      </trkpt>
      <trkpt lat="42.2336610" lon="-8.6985990">
        <ele>127.8</ele>
        <time>2021-05-20T12:25:50Z</time>
      </trkpt>
      <trkpt lat="42.2336670" lon="-8.6985870">
        <ele>127.9</ele>
        <time>2021-05-20T12:25:51Z</time>
      </trkpt>
      <trkpt lat="42.2336700" lon="-8.6985740">
        <ele>127.9</ele>
        <time>2021-05-20T12:25:52Z</time>
      </trkpt>
      <trkpt lat="42.2336730" lon="-8.6985580">
        <ele>128.0</ele>
        <time>2021-05-20T12:25:53Z</time>
      </trkpt>
      <trkpt lat="42.2336830" lon="-8.6985370">
        <ele>128.1</ele>
        <time>2021-05-20T12:25:54Z</time>
      </trkpt>
      <trkpt lat="42.2336860" lon="-8.6985280">
        <ele>128.2</ele>
        <time>2021-05-20T12:25:55Z</time>
      </trkpt>
      <trkpt lat="42.2336850" lon="-8.6985130">
        <ele>128.2</ele>
        <time>2021-05-20T12:25:56Z</time>
      </trkpt>
      <trkpt lat="42.2336860" lon="-8.6984960">
        <ele>128.3</ele>
        <time>2021-05-20T12:25:57Z</time>
      </trkpt>
      <trkpt lat="42.2336890" lon="-8.6984850">
        <ele>128.4</ele>
        <time>2021-05-20T12:25:58Z</time>
      </trkpt>
      <trkpt lat="42.2336840" lon="-8.6984720">
        <ele>128.4</ele>
        <time>2021-05-20T12:25:59Z</time>
      </trkpt>
      <trkpt lat="42.2336860" lon="-8.6984450">
        <ele>128.6</ele>
        <time>2021-05-20T12:26:00Z</time>
      </trkpt>
      <trkpt lat="42.2336880" lon="-8.6984340">
        <ele>128.6</ele>
        <time>2021-05-20T12:26:01Z</time>
      </trkpt>
      <trkpt lat="42.2336890" lon="-8.6984230">
        <ele>128.7</ele>
        <time>2021-05-20T12:26:02Z</time>
      </trkpt>
      <trkpt lat="42.2336920" lon="-8.6984050">
        <ele>128.8</ele>
        <time>2021-05-20T12:26:03Z</time>
      </trkpt>
      <trkpt lat="42.2336910" lon="-8.6983930">
        <ele>128.8</ele>
        <time>2021-05-20T12:26:04Z</time>
      </trkpt>
      <trkpt lat="42.2336940" lon="-8.6983760">
        <ele>128.9</ele>
        <time>2021-05-20T12:26:05Z</time>
      </trkpt>
      <trkpt lat="42.2336950" lon="-8.6983550">
        <ele>129.0</ele>
        <time>2021-05-20T12:26:06Z</time>
      </trkpt>
      <trkpt lat="42.2337050" lon="-8.6983420">
        <ele>129.0</ele>
        <time>2021-05-20T12:26:07Z</time>
      </trkpt>
      <trkpt lat="42.2337130" lon="-8.6983170">
        <ele>129.2</ele>
        <time>2021-05-20T12:26:08Z</time>
      </trkpt>
      <trkpt lat="42.2337180" lon="-8.6983060">
        <ele>129.2</ele>
        <time>2021-05-20T12:26:09Z</time>
      </trkpt>
      <trkpt lat="42.2337220" lon="-8.6982940">
        <ele>129.3</ele>
        <time>2021-05-20T12:26:10Z</time>
      </trkpt>
      <trkpt lat="42.2337350" lon="-8.6982780">
        <ele>129.3</ele>
        <time>2021-05-20T12:26:11Z</time>
      </trkpt>
      <trkpt lat="42.2337410" lon="-8.6982630">
        <ele>129.4</ele>
        <time>2021-05-20T12:26:12Z</time>
      </trkpt>
      <trkpt lat="42.2337500" lon="-8.6982530">
        <ele>129.5</ele>
        <time>2021-05-20T12:26:13Z</time>
      </trkpt>
      <trkpt lat="42.2337560" lon="-8.6982420">
        <ele>129.5</ele>
        <time>2021-05-20T12:26:14Z</time>
      </trkpt>
      <trkpt lat="42.2337620" lon="-8.6982300">
        <ele>129.5</ele>
        <time>2021-05-20T12:26:15Z</time>
      </trkpt>
      <trkpt lat="42.2337660" lon="-8.6982160">
        <ele>129.6</ele>
        <time>2021-05-20T12:26:16Z</time>
      </trkpt>
      <trkpt lat="42.2337700" lon="-8.6982050">
        <ele>129.6</ele>
        <time>2021-05-20T12:26:17Z</time>
      </trkpt>
      <trkpt lat="42.2337860" lon="-8.6981960">
        <ele>129.7</ele>
        <time>2021-05-20T12:26:18Z</time>
      </trkpt>
      <trkpt lat="42.2337970" lon="-8.6981830">
        <ele>129.7</ele>
        <time>2021-05-20T12:26:19Z</time>
      </trkpt>
      <trkpt lat="42.2338070" lon="-8.6981650">
        <ele>129.7</ele>
        <time>2021-05-20T12:26:20Z</time>
      </trkpt>
      <trkpt lat="42.2338120" lon="-8.6981610">
        <ele>129.7</ele>
        <time>2021-05-20T12:26:21Z</time>
      </trkpt>
      <trkpt lat="42.2338160" lon="-8.6981540">
        <ele>129.8</ele>
        <time>2021-05-20T12:26:22Z</time>
      </trkpt>
      <trkpt lat="42.2338150" lon="-8.6981420">
        <ele>129.8</ele>
        <time>2021-05-20T12:26:23Z</time>
      </trkpt>
      <trkpt lat="42.2338130" lon="-8.6981250">
        <ele>129.8</ele>
        <time>2021-05-20T12:26:24Z</time>
      </trkpt>
      <trkpt lat="42.2338190" lon="-8.6981080">
        <ele>129.8</ele>
        <time>2021-05-20T12:26:25Z</time>
      </trkpt>
      <trkpt lat="42.2338320" lon="-8.6980920">
        <ele>129.8</ele>
        <time>2021-05-20T12:26:26Z</time>
      </trkpt>
      <trkpt lat="42.2338420" lon="-8.6980810">
        <ele>129.8</ele>
        <time>2021-05-20T12:26:27Z</time>
      </trkpt>
      <trkpt lat="42.2338510" lon="-8.6980640">
        <ele>129.8</ele>
        <time>2021-05-20T12:26:28Z</time>
      </trkpt>
      <trkpt lat="42.2338540" lon="-8.6980420">
        <ele>129.8</ele>
        <time>2021-05-20T12:26:29Z</time>
      </trkpt>
      <trkpt lat="42.2338570" lon="-8.6980230">
        <ele>129.8</ele>
        <time>2021-05-20T12:26:30Z</time>
      </trkpt>
      <trkpt lat="42.2338600" lon="-8.6980080">
        <ele>129.7</ele>
        <time>2021-05-20T12:26:31Z</time>
      </trkpt>
      <trkpt lat="42.2338710" lon="-8.6979940">
        <ele>129.7</ele>
        <time>2021-05-20T12:26:32Z</time>
      </trkpt>
      <trkpt lat="42.2338750" lon="-8.6979880">
        <ele>129.7</ele>
        <time>2021-05-20T12:26:33Z</time>
      </trkpt>
      <trkpt lat="42.2338870" lon="-8.6979810">
        <ele>129.7</ele>
        <time>2021-05-20T12:26:34Z</time>
      </trkpt>
      <trkpt lat="42.2338880" lon="-8.6979600">
        <ele>129.6</ele>
        <time>2021-05-20T12:26:35Z</time>
      </trkpt>
      <trkpt lat="42.2338920" lon="-8.6979490">
        <ele>129.6</ele>
        <time>2021-05-20T12:26:36Z</time>
      </trkpt>
      <trkpt lat="42.2339020" lon="-8.6979330">
        <ele>129.6</ele>
        <time>2021-05-20T12:26:37Z</time>
      </trkpt>
      <trkpt lat="42.2339060" lon="-8.6979250">
        <ele>129.6</ele>
        <time>2021-05-20T12:26:38Z</time>
      </trkpt>
      <trkpt lat="42.2339090" lon="-8.6979160">
        <ele>129.5</ele>
        <time>2021-05-20T12:26:39Z</time>
      </trkpt>
      <trkpt lat="42.2339130" lon="-8.6979080">
        <ele>129.5</ele>
        <time>2021-05-20T12:26:40Z</time>
      </trkpt>
      <trkpt lat="42.2339170" lon="-8.6979000">
        <ele>129.5</ele>
        <time>2021-05-20T12:26:41Z</time>
      </trkpt>
      <trkpt lat="42.2339240" lon="-8.6978780">
        <ele>129.5</ele>
        <time>2021-05-20T12:26:42Z</time>
      </trkpt>
      <trkpt lat="42.2339270" lon="-8.6978660">
        <ele>129.4</ele>
        <time>2021-05-20T12:26:43Z</time>
      </trkpt>
      <trkpt lat="42.2339380" lon="-8.6978420">
        <ele>129.4</ele>
        <time>2021-05-20T12:26:44Z</time>
      </trkpt>
      <trkpt lat="42.2339510" lon="-8.6978320">
        <ele>129.3</ele>
        <time>2021-05-20T12:26:45Z</time>
      </trkpt>
      <trkpt lat="42.2339580" lon="-8.6978170">
        <ele>129.3</ele>
        <time>2021-05-20T12:26:46Z</time>
      </trkpt>
      <trkpt lat="42.2339670" lon="-8.6978080">
        <ele>129.2</ele>
        <time>2021-05-20T12:26:47Z</time>
      </trkpt>
      <trkpt lat="42.2339750" lon="-8.6977990">
        <ele>129.2</ele>
        <time>2021-05-20T12:26:48Z</time>
      </trkpt>
      <trkpt lat="42.2339830" lon="-8.6977900">
        <ele>129.2</ele>
        <time>2021-05-20T12:26:49Z</time>
      </trkpt>
      <trkpt lat="42.2339900" lon="-8.6977640">
        <ele>129.1</ele>
        <time>2021-05-20T12:26:50Z</time>
      </trkpt>
      <trkpt lat="42.2339970" lon="-8.6977560">
        <ele>129.1</ele>
        <time>2021-05-20T12:26:51Z</time>
      </trkpt>
      <trkpt lat="42.2340040" lon="-8.6977470">
        <ele>129.1</ele>
        <time>2021-05-20T12:26:52Z</time>
      </trkpt>
      <trkpt lat="42.2340340" lon="-8.6977360">
        <ele>129.0</ele>
        <time>2021-05-20T12:26:53Z</time>
      </trkpt>
      <trkpt lat="42.2340430" lon="-8.6977300">
        <ele>128.9</ele>
        <time>2021-05-20T12:26:54Z</time>
      </trkpt>
      <trkpt lat="42.2340690" lon="-8.6977210">
        <ele>128.8</ele>
        <time>2021-05-20T12:26:55Z</time>
      </trkpt>
      <trkpt lat="42.2340800" lon="-8.6977230">
        <ele>128.8</ele>
        <time>2021-05-20T12:26:56Z</time>
      </trkpt>
      <trkpt lat="42.2340920" lon="-8.6977140">
        <ele>128.8</ele>
        <time>2021-05-20T12:26:57Z</time>
      </trkpt>
      <trkpt lat="42.2341070" lon="-8.6977050">
        <ele>128.7</ele>
        <time>2021-05-20T12:26:58Z</time>
      </trkpt>
      <trkpt lat="42.2341290" lon="-8.6976970">
        <ele>128.6</ele>
        <time>2021-05-20T12:26:59Z</time>
      </trkpt>
      <trkpt lat="42.2341370" lon="-8.6976930">
        <ele>128.6</ele>
        <time>2021-05-20T12:27:00Z</time>
      </trkpt>
      <trkpt lat="42.2341440" lon="-8.6976880">
        <ele>128.6</ele>
        <time>2021-05-20T12:27:01Z</time>
      </trkpt>
      <trkpt lat="42.2341590" lon="-8.6976780">
        <ele>128.5</ele>
        <time>2021-05-20T12:27:02Z</time>
      </trkpt>
      <trkpt lat="42.2341680" lon="-8.6976680">
        <ele>128.5</ele>
        <time>2021-05-20T12:27:03Z</time>
      </trkpt>
      <trkpt lat="42.2341760" lon="-8.6976590">
        <ele>128.5</ele>
        <time>2021-05-20T12:27:04Z</time>
      </trkpt>
      <trkpt lat="42.2341970" lon="-8.6976520">
        <ele>128.4</ele>
        <time>2021-05-20T12:27:05Z</time>
      </trkpt>
      <trkpt lat="42.2342080" lon="-8.6976460">
        <ele>128.4</ele>
        <time>2021-05-20T12:27:06Z</time>
      </trkpt>
      <trkpt lat="42.2342190" lon="-8.6976410">
        <ele>128.3</ele>
        <time>2021-05-20T12:27:07Z</time>
      </trkpt>
      <trkpt lat="42.2342290" lon="-8.6976350">
        <ele>128.3</ele>
        <time>2021-05-20T12:27:08Z</time>
      </trkpt>
      <trkpt lat="42.2342340" lon="-8.6976200">
        <ele>128.3</ele>
        <time>2021-05-20T12:27:09Z</time>
      </trkpt>
      <trkpt lat="42.2342400" lon="-8.6976090">
        <ele>128.2</ele>
        <time>2021-05-20T12:27:10Z</time>
      </trkpt>
      <trkpt lat="42.2342490" lon="-8.6975890">
        <ele>128.2</ele>
        <time>2021-05-20T12:27:11Z</time>
      </trkpt>
      <trkpt lat="42.2342540" lon="-8.6975840">
        <ele>128.2</ele>
        <time>2021-05-20T12:27:12Z</time>
      </trkpt>
      <trkpt lat="42.2342610" lon="-8.6975830">
        <ele>128.1</ele>
        <time>2021-05-20T12:27:13Z</time>
      </trkpt>
      <trkpt lat="42.2342720" lon="-8.6975660">
        <ele>128.1</ele>
        <time>2021-05-20T12:27:14Z</time>
      </trkpt>
      <trkpt lat="42.2342800" lon="-8.6975700">
        <ele>128.1</ele>
        <time>2021-05-20T12:27:15Z</time>
      </trkpt>
      <trkpt lat="42.2342880" lon="-8.6975590">
        <ele>128.0</ele>
        <time>2021-05-20T12:27:16Z</time>
      </trkpt>
      <trkpt lat="42.2342970" lon="-8.6975540">
        <ele>128.0</ele>
        <time>2021-05-20T12:27:17Z</time>
      </trkpt>
      <trkpt lat="42.2343070" lon="-8.6975500">
        <ele>128.0</ele>
        <time>2021-05-20T12:27:18Z</time>
      </trkpt>
      <trkpt lat="42.2343190" lon="-8.6975360">
        <ele>127.9</ele>
        <time>2021-05-20T12:27:19Z</time>
      </trkpt>
      <trkpt lat="42.2343300" lon="-8.6975370">
        <ele>127.9</ele>
        <time>2021-05-20T12:27:20Z</time>
      </trkpt>
      <trkpt lat="42.2343450" lon="-8.6975220">
        <ele>127.8</ele>
        <time>2021-05-20T12:27:21Z</time>
      </trkpt>
      <trkpt lat="42.2343490" lon="-8.6975260">
        <ele>127.8</ele>
        <time>2021-05-20T12:27:22Z</time>
      </trkpt>
      <trkpt lat="42.2343630" lon="-8.6975150">
        <ele>127.8</ele>
        <time>2021-05-20T12:27:23Z</time>
      </trkpt>
      <trkpt lat="42.2343750" lon="-8.6975110">
        <ele>127.7</ele>
        <time>2021-05-20T12:27:24Z</time>
      </trkpt>
      <trkpt lat="42.2343920" lon="-8.6974900">
        <ele>127.7</ele>
        <time>2021-05-20T12:27:25Z</time>
      </trkpt>
      <trkpt lat="42.2343990" lon="-8.6974820">
        <ele>127.7</ele>
        <time>2021-05-20T12:27:26Z</time>
      </trkpt>
      <trkpt lat="42.2344050" lon="-8.6974730">
        <ele>127.6</ele>
        <time>2021-05-20T12:27:27Z</time>
      </trkpt>
      <trkpt lat="42.2344180" lon="-8.6974580">
        <ele>127.6</ele>
        <time>2021-05-20T12:27:28Z</time>
      </trkpt>
      <trkpt lat="42.2344310" lon="-8.6974400">
        <ele>127.6</ele>
        <time>2021-05-20T12:27:29Z</time>
      </trkpt>
      <trkpt lat="42.2344420" lon="-8.6974370">
        <ele>127.5</ele>
        <time>2021-05-20T12:27:30Z</time>
      </trkpt>
      <trkpt lat="42.2344480" lon="-8.6974240">
        <ele>127.5</ele>
        <time>2021-05-20T12:27:31Z</time>
      </trkpt>
      <trkpt lat="42.2344530" lon="-8.6974120">
        <ele>127.5</ele>
        <time>2021-05-20T12:27:32Z</time>
      </trkpt>
      <trkpt lat="42.2344580" lon="-8.6973990">
        <ele>127.5</ele>
        <time>2021-05-20T12:27:33Z</time>
      </trkpt>
      <trkpt lat="42.2344710" lon="-8.6973870">
        <ele>127.4</ele>
        <time>2021-05-20T12:27:34Z</time>
      </trkpt>
      <trkpt lat="42.2344830" lon="-8.6973750">
        <ele>127.4</ele>
        <time>2021-05-20T12:27:35Z</time>
      </trkpt>
      <trkpt lat="42.2344960" lon="-8.6973630">
        <ele>127.4</ele>
        <time>2021-05-20T12:27:36Z</time>
      </trkpt>
      <trkpt lat="42.2345080" lon="-8.6973510">
        <ele>127.4</ele>
        <time>2021-05-20T12:27:37Z</time>
      </trkpt>
      <trkpt lat="42.2345100" lon="-8.6973370">
        <ele>127.4</ele>
        <time>2021-05-20T12:27:38Z</time>
      </trkpt>
      <trkpt lat="42.2345220" lon="-8.6973280">
        <ele>127.3</ele>
        <time>2021-05-20T12:27:39Z</time>
      </trkpt>
      <trkpt lat="42.2345320" lon="-8.6973140">
        <ele>127.3</ele>
        <time>2021-05-20T12:27:40Z</time>
      </trkpt>
      <trkpt lat="42.2345410" lon="-8.6973010">
        <ele>127.3</ele>
        <time>2021-05-20T12:27:41Z</time>
      </trkpt>
      <trkpt lat="42.2345490" lon="-8.6972960">
        <ele>127.3</ele>
        <time>2021-05-20T12:27:42Z</time>
      </trkpt>
      <trkpt lat="42.2345540" lon="-8.6972790">
        <ele>127.3</ele>
        <time>2021-05-20T12:27:43Z</time>
      </trkpt>
      <trkpt lat="42.2345470" lon="-8.6972600">
        <ele>127.3</ele>
        <time>2021-05-20T12:27:44Z</time>
      </trkpt>
      <trkpt lat="42.2345430" lon="-8.6972400">
        <ele>127.3</ele>
        <time>2021-05-20T12:27:45Z</time>
      </trkpt>
      <trkpt lat="42.2345370" lon="-8.6972130">
        <ele>127.3</ele>
        <time>2021-05-20T12:27:46Z</time>
      </trkpt>
      <trkpt lat="42.2345420" lon="-8.6971960">
        <ele>127.3</ele>
        <time>2021-05-20T12:27:47Z</time>
      </trkpt>
      <trkpt lat="42.2345500" lon="-8.6971740">
        <ele>127.3</ele>
        <time>2021-05-20T12:27:48Z</time>
      </trkpt>
      <trkpt lat="42.2345570" lon="-8.6971650">
        <ele>127.3</ele>
        <time>2021-05-20T12:27:49Z</time>
      </trkpt>
      <trkpt lat="42.2345630" lon="-8.6971550">
        <ele>127.3</ele>
        <time>2021-05-20T12:27:50Z</time>
      </trkpt>
      <trkpt lat="42.2345710" lon="-8.6971420">
        <ele>127.3</ele>
        <time>2021-05-20T12:27:51Z</time>
      </trkpt>
      <trkpt lat="42.2345740" lon="-8.6971300">
        <ele>127.3</ele>
        <time>2021-05-20T12:27:52Z</time>
      </trkpt>
      <trkpt lat="42.2345810" lon="-8.6971140">
        <ele>127.3</ele>
        <time>2021-05-20T12:27:53Z</time>
      </trkpt>
      <trkpt lat="42.2345810" lon="-8.6971000">
        <ele>127.3</ele>
        <time>2021-05-20T12:27:54Z</time>
      </trkpt>
      <trkpt lat="42.2345940" lon="-8.6970930">
        <ele>127.3</ele>
        <time>2021-05-20T12:27:55Z</time>
      </trkpt>
      <trkpt lat="42.2345980" lon="-8.6970790">
        <ele>127.3</ele>
        <time>2021-05-20T12:27:56Z</time>
      </trkpt>
      <trkpt lat="42.2346000" lon="-8.6970660">
        <ele>127.3</ele>
        <time>2021-05-20T12:27:57Z</time>
      </trkpt>
      <trkpt lat="42.2346080" lon="-8.6970580">
        <ele>127.3</ele>
        <time>2021-05-20T12:27:58Z</time>
      </trkpt>
      <trkpt lat="42.2346100" lon="-8.6970530">
        <ele>127.3</ele>
        <time>2021-05-20T12:27:59Z</time>
      </trkpt>
      <trkpt lat="42.2346140" lon="-8.6970430">
        <ele>127.3</ele>
        <time>2021-05-20T12:28:00Z</time>
      </trkpt>
      <trkpt lat="42.2346190" lon="-8.6970270">
        <ele>127.3</ele>
        <time>2021-05-20T12:28:01Z</time>
      </trkpt>
      <trkpt lat="42.2346190" lon="-8.6970140">
        <ele>127.3</ele>
        <time>2021-05-20T12:28:02Z</time>
      </trkpt>
      <trkpt lat="42.2346230" lon="-8.6969980">
        <ele>127.3</ele>
        <time>2021-05-20T12:28:03Z</time>
      </trkpt>
      <trkpt lat="42.2346290" lon="-8.6969820">
        <ele>127.4</ele>
        <time>2021-05-20T12:28:04Z</time>
      </trkpt>
      <trkpt lat="42.2346320" lon="-8.6969690">
        <ele>127.4</ele>
        <time>2021-05-20T12:28:05Z</time>
      </trkpt>
      <trkpt lat="42.2346310" lon="-8.6969550">
        <ele>127.4</ele>
        <time>2021-05-20T12:28:06Z</time>
      </trkpt>
      <trkpt lat="42.2346380" lon="-8.6969380">
        <ele>127.4</ele>
        <time>2021-05-20T12:28:07Z</time>
      </trkpt>
      <trkpt lat="42.2346420" lon="-8.6969280">
        <ele>127.4</ele>
        <time>2021-05-20T12:28:08Z</time>
      </trkpt>
      <trkpt lat="42.2346490" lon="-8.6969120">
        <ele>127.4</ele>
        <time>2021-05-20T12:28:09Z</time>
      </trkpt>
      <trkpt lat="42.2346590" lon="-8.6968980">
        <ele>127.4</ele>
        <time>2021-05-20T12:28:10Z</time>
      </trkpt>
      <trkpt lat="42.2346690" lon="-8.6968810">
        <ele>127.4</ele>
        <time>2021-05-20T12:28:11Z</time>
      </trkpt>
      <trkpt lat="42.2346760" lon="-8.6968660">
        <ele>127.4</ele>
        <time>2021-05-20T12:28:12Z</time>
      </trkpt>
      <trkpt lat="42.2346870" lon="-8.6968460">
        <ele>127.5</ele>
        <time>2021-05-20T12:28:13Z</time>
      </trkpt>
      <trkpt lat="42.2346900" lon="-8.6968380">
        <ele>127.5</ele>
        <time>2021-05-20T12:28:14Z</time>
      </trkpt>
      <trkpt lat="42.2346930" lon="-8.6968280">
        <ele>127.5</ele>
        <time>2021-05-20T12:28:15Z</time>
      </trkpt>
      <trkpt lat="42.2347020" lon="-8.6968170">
        <ele>127.5</ele>
        <time>2021-05-20T12:28:16Z</time>
      </trkpt>
      <trkpt lat="42.2347060" lon="-8.6968070">
        <ele>127.5</ele>
        <time>2021-05-20T12:28:17Z</time>
      </trkpt>
      <trkpt lat="42.2347090" lon="-8.6967990">
        <ele>127.5</ele>
        <time>2021-05-20T12:28:18Z</time>
      </trkpt>
      <trkpt lat="42.2347160" lon="-8.6967780">
        <ele>127.5</ele>
        <time>2021-05-20T12:28:19Z</time>
      </trkpt>
      <trkpt lat="42.2347200" lon="-8.6967630">
        <ele>127.5</ele>
        <time>2021-05-20T12:28:20Z</time>
      </trkpt>
      <trkpt lat="42.2347230" lon="-8.6967510">
        <ele>127.5</ele>
        <time>2021-05-20T12:28:21Z</time>
      </trkpt>
      <trkpt lat="42.2347260" lon="-8.6967320">
        <ele>127.6</ele>
        <time>2021-05-20T12:28:22Z</time>
      </trkpt>
      <trkpt lat="42.2347280" lon="-8.6967160">
        <ele>127.6</ele>
        <time>2021-05-20T12:28:23Z</time>
      </trkpt>
      <trkpt lat="42.2347300" lon="-8.6966890">
        <ele>127.6</ele>
        <time>2021-05-20T12:28:24Z</time>
      </trkpt>
      <trkpt lat="42.2347280" lon="-8.6966800">
        <ele>127.6</ele>
        <time>2021-05-20T12:28:25Z</time>
      </trkpt>
      <trkpt lat="42.2347270" lon="-8.6966720">
        <ele>127.6</ele>
        <time>2021-05-20T12:28:26Z</time>
      </trkpt>
      <trkpt lat="42.2347250" lon="-8.6966630">
        <ele>127.6</ele>
        <time>2021-05-20T12:28:27Z</time>
      </trkpt>
      <trkpt lat="42.2347270" lon="-8.6966460">
        <ele>127.6</ele>
        <time>2021-05-20T12:28:28Z</time>
      </trkpt>
      <trkpt lat="42.2347250" lon="-8.6966220">
        <ele>127.6</ele>
        <time>2021-05-20T12:28:29Z</time>
      </trkpt>
      <trkpt lat="42.2347280" lon="-8.6966060">
        <ele>127.7</ele>
        <time>2021-05-20T12:28:30Z</time>
      </trkpt>
      <trkpt lat="42.2347270" lon="-8.6965920">
        <ele>127.7</ele>
        <time>2021-05-20T12:28:31Z</time>
      </trkpt>
      <trkpt lat="42.2347260" lon="-8.6965770">
        <ele>127.7</ele>
        <time>2021-05-20T12:28:32Z</time>
      </trkpt>
      <trkpt lat="42.2347240" lon="-8.6965540">
        <ele>127.7</ele>
        <time>2021-05-20T12:28:33Z</time>
      </trkpt>
      <trkpt lat="42.2347250" lon="-8.6965500">
        <ele>127.7</ele>
        <time>2021-05-20T12:28:34Z</time>
      </trkpt>
      <trkpt lat="42.2347290" lon="-8.6965400">
        <ele>127.7</ele>
        <time>2021-05-20T12:28:35Z</time>
      </trkpt>
      <trkpt lat="42.2347440" lon="-8.6965120">
        <ele>127.7</ele>
        <time>2021-05-20T12:28:36Z</time>
      </trkpt>
      <trkpt lat="42.2347490" lon="-8.6964960">
        <ele>127.7</ele>
        <time>2021-05-20T12:28:37Z</time>
      </trkpt>
      <trkpt lat="42.2347520" lon="-8.6964770">
        <ele>127.7</ele>
        <time>2021-05-20T12:28:38Z</time>
      </trkpt>
      <trkpt lat="42.2347530" lon="-8.6964580">
        <ele>127.7</ele>
        <time>2021-05-20T12:28:39Z</time>
      </trkpt>
      <trkpt lat="42.2347500" lon="-8.6964360">
        <ele>127.7</ele>
        <time>2021-05-20T12:28:40Z</time>
      </trkpt>
      <trkpt lat="42.2347460" lon="-8.6964200">
        <ele>127.7</ele>
        <time>2021-05-20T12:28:41Z</time>
      </trkpt>
      <trkpt lat="42.2347450" lon="-8.6963790">
        <ele>127.7</ele>
        <time>2021-05-20T12:28:42Z</time>
      </trkpt>
      <trkpt lat="42.2347420" lon="-8.6963710">
        <ele>127.7</ele>
        <time>2021-05-20T12:28:43Z</time>
      </trkpt>
      <trkpt lat="42.2347460" lon="-8.6963450">
        <ele>127.7</ele>
        <time>2021-05-20T12:28:44Z</time>
      </trkpt>
      <trkpt lat="42.2347420" lon="-8.6963280">
        <ele>127.7</ele>
        <time>2021-05-20T12:28:45Z</time>
      </trkpt>
      <trkpt lat="42.2347390" lon="-8.6963140">
        <ele>127.8</ele>
        <time>2021-05-20T12:28:46Z</time>
      </trkpt>
      <trkpt lat="42.2347400" lon="-8.6962880">
        <ele>127.8</ele>
        <time>2021-05-20T12:28:47Z</time>
      </trkpt>
      <trkpt lat="42.2347430" lon="-8.6962680">
        <ele>127.8</ele>
        <time>2021-05-20T12:28:48Z</time>
      </trkpt>
      <trkpt lat="42.2347370" lon="-8.6962460">
        <ele>127.8</ele>
        <time>2021-05-20T12:28:49Z</time>
      </trkpt>
      <trkpt lat="42.2347420" lon="-8.6962260">
        <ele>127.8</ele>
        <time>2021-05-20T12:28:50Z</time>
      </trkpt>
      <trkpt lat="42.2347420" lon="-8.6962140">
        <ele>127.9</ele>
        <time>2021-05-20T12:28:51Z</time>
      </trkpt>
      <trkpt lat="42.2347410" lon="-8.6962000">
        <ele>127.9</ele>
        <time>2021-05-20T12:28:52Z</time>
      </trkpt>
      <trkpt lat="42.2347270" lon="-8.6961790">
        <ele>127.9</ele>
        <time>2021-05-20T12:28:53Z</time>
      </trkpt>
      <trkpt lat="42.2347230" lon="-8.6961660">
        <ele>127.9</ele>
        <time>2021-05-20T12:28:54Z</time>
      </trkpt>
      <trkpt lat="42.2347180" lon="-8.6961530">
        <ele>127.9</ele>
        <time>2021-05-20T12:28:55Z</time>
      </trkpt>
      <trkpt lat="42.2347170" lon="-8.6961240">
        <ele>128.0</ele>
        <time>2021-05-20T12:28:56Z</time>
      </trkpt>
      <trkpt lat="42.2347170" lon="-8.6961160">
        <ele>128.0</ele>
        <time>2021-05-20T12:28:57Z</time>
      </trkpt>
      <trkpt lat="42.2347170" lon="-8.6961080">
        <ele>128.0</ele>
        <time>2021-05-20T12:28:58Z</time>
      </trkpt>
      <trkpt lat="42.2347170" lon="-8.6961000">
        <ele>128.0</ele>
        <time>2021-05-20T12:28:59Z</time>
      </trkpt>
      <trkpt lat="42.2347130" lon="-8.6960970">
        <ele>128.0</ele>
        <time>2021-05-20T12:29:00Z</time>
      </trkpt>
      <trkpt lat="42.2347200" lon="-8.6960850">
        <ele>128.3</ele>
        <time>2021-05-20T12:29:01Z</time>
      </trkpt>
      <trkpt lat="42.2347280" lon="-8.6960720">
        <ele>128.3</ele>
        <time>2021-05-20T12:29:02Z</time>
      </trkpt>
      <trkpt lat="42.2347310" lon="-8.6960650">
        <ele>128.3</ele>
        <time>2021-05-20T12:29:03Z</time>
      </trkpt>
      <trkpt lat="42.2347460" lon="-8.6960420">
        <ele>128.4</ele>
        <time>2021-05-20T12:29:04Z</time>
      </trkpt>
      <trkpt lat="42.2347520" lon="-8.6960360">
        <ele>128.4</ele>
        <time>2021-05-20T12:29:05Z</time>
      </trkpt>
      <trkpt lat="42.2347580" lon="-8.6960290">
        <ele>128.5</ele>
        <time>2021-05-20T12:29:06Z</time>
      </trkpt>
      <trkpt lat="42.2347660" lon="-8.6960300">
        <ele>128.5</ele>
        <time>2021-05-20T12:29:07Z</time>
      </trkpt>
      <trkpt lat="42.2347770" lon="-8.6960200">
        <ele>128.5</ele>
        <time>2021-05-20T12:29:08Z</time>
      </trkpt>
      <trkpt lat="42.2347880" lon="-8.6960160">
        <ele>128.6</ele>
        <time>2021-05-20T12:29:09Z</time>
      </trkpt>
      <trkpt lat="42.2348040" lon="-8.6960040">
        <ele>128.6</ele>
        <time>2021-05-20T12:29:10Z</time>
      </trkpt>
      <trkpt lat="42.2348160" lon="-8.6959900">
        <ele>128.7</ele>
        <time>2021-05-20T12:29:11Z</time>
      </trkpt>
      <trkpt lat="42.2348260" lon="-8.6959790">
        <ele>128.7</ele>
        <time>2021-05-20T12:29:12Z</time>
      </trkpt>
      <trkpt lat="42.2348390" lon="-8.6959700">
        <ele>128.8</ele>
        <time>2021-05-20T12:29:13Z</time>
      </trkpt>
      <trkpt lat="42.2348470" lon="-8.6959680">
        <ele>128.8</ele>
        <time>2021-05-20T12:29:14Z</time>
      </trkpt>
      <trkpt lat="42.2348680" lon="-8.6959730">
        <ele>128.8</ele>
        <time>2021-05-20T12:29:15Z</time>
      </trkpt>
      <trkpt lat="42.2348980" lon="-8.6959680">
        <ele>128.9</ele>
        <time>2021-05-20T12:29:16Z</time>
      </trkpt>
      <trkpt lat="42.2349090" lon="-8.6959600">
        <ele>128.9</ele>
        <time>2021-05-20T12:29:17Z</time>
      </trkpt>
      <trkpt lat="42.2349210" lon="-8.6959580">
        <ele>129.0</ele>
        <time>2021-05-20T12:29:18Z</time>
      </trkpt>
      <trkpt lat="42.2349330" lon="-8.6959550">
        <ele>129.0</ele>
        <time>2021-05-20T12:29:19Z</time>
      </trkpt>
      <trkpt lat="42.2349440" lon="-8.6959620">
        <ele>129.0</ele>
        <time>2021-05-20T12:29:20Z</time>
      </trkpt>
      <trkpt lat="42.2349580" lon="-8.6959560">
        <ele>129.1</ele>
        <time>2021-05-20T12:29:21Z</time>
      </trkpt>
      <trkpt lat="42.2349720" lon="-8.6959520">
        <ele>129.1</ele>
        <time>2021-05-20T12:29:22Z</time>
      </trkpt>
      <trkpt lat="42.2349870" lon="-8.6959490">
        <ele>129.1</ele>
        <time>2021-05-20T12:29:23Z</time>
      </trkpt>
      <trkpt lat="42.2350000" lon="-8.6959490">
        <ele>129.2</ele>
        <time>2021-05-20T12:29:24Z</time>
      </trkpt>
      <trkpt lat="42.2350220" lon="-8.6959450">
        <ele>129.2</ele>
        <time>2021-05-20T12:29:25Z</time>
      </trkpt>
      <trkpt lat="42.2350310" lon="-8.6959470">
        <ele>129.2</ele>
        <time>2021-05-20T12:29:26Z</time>
      </trkpt>
      <trkpt lat="42.2350390" lon="-8.6959480">
        <ele>129.3</ele>
        <time>2021-05-20T12:29:27Z</time>
      </trkpt>
      <trkpt lat="42.2350500" lon="-8.6959520">
        <ele>129.3</ele>
        <time>2021-05-20T12:29:28Z</time>
      </trkpt>
      <trkpt lat="42.2350600" lon="-8.6959560">
        <ele>129.3</ele>
        <time>2021-05-20T12:29:29Z</time>
      </trkpt>
      <trkpt lat="42.2350640" lon="-8.6959590">
        <ele>129.3</ele>
        <time>2021-05-20T12:29:30Z</time>
      </trkpt>
      <trkpt lat="42.2350640" lon="-8.6959580">
        <ele>129.3</ele>
        <time>2021-05-20T12:29:31Z</time>
      </trkpt>
      <trkpt lat="42.2350630" lon="-8.6959610">
        <ele>129.3</ele>
        <time>2021-05-20T12:29:32Z</time>
      </trkpt>
      <trkpt lat="42.2350690" lon="-8.6959620">
        <ele>129.3</ele>
        <time>2021-05-20T12:29:33Z</time>
      </trkpt>
      <trkpt lat="42.2350710" lon="-8.6959570">
        <ele>129.3</ele>
        <time>2021-05-20T12:29:34Z</time>
      </trkpt>
      <trkpt lat="42.2350680" lon="-8.6959540">
        <ele>129.3</ele>
        <time>2021-05-20T12:29:35Z</time>
      </trkpt>
      <trkpt lat="42.2350580" lon="-8.6959470">
        <ele>129.4</ele>
        <time>2021-05-20T12:29:36Z</time>
      </trkpt>
      <trkpt lat="42.2350530" lon="-8.6959410">
        <ele>129.4</ele>
        <time>2021-05-20T12:29:37Z</time>
      </trkpt>
      <trkpt lat="42.2350470" lon="-8.6959410">
        <ele>129.4</ele>
        <time>2021-05-20T12:29:38Z</time>
      </trkpt>
      <trkpt lat="42.2350370" lon="-8.6959500">
        <ele>129.4</ele>
        <time>2021-05-20T12:29:39Z</time>
      </trkpt>
      <trkpt lat="42.2350250" lon="-8.6959600">
        <ele>129.5</ele>
        <time>2021-05-20T12:29:40Z</time>
      </trkpt>
      <trkpt lat="42.2350240" lon="-8.6959600">
        <ele>129.5</ele>
        <time>2021-05-20T12:29:41Z</time>
      </trkpt>
      <trkpt lat="42.2350240" lon="-8.6959580">
        <ele>129.5</ele>
        <time>2021-05-20T12:29:42Z</time>
      </trkpt>
      <trkpt lat="42.2350250" lon="-8.6959580">
        <ele>129.5</ele>
        <time>2021-05-20T12:29:43Z</time>
      </trkpt>
      <trkpt lat="42.2350230" lon="-8.6959560">
        <ele>129.5</ele>
        <time>2021-05-20T12:29:44Z</time>
      </trkpt>
      <trkpt lat="42.2350240" lon="-8.6959510">
        <ele>129.5</ele>
        <time>2021-05-20T12:29:45Z</time>
      </trkpt>
      <trkpt lat="42.2350290" lon="-8.6959510">
        <ele>129.5</ele>
        <time>2021-05-20T12:29:46Z</time>
      </trkpt>
      <trkpt lat="42.2350280" lon="-8.6959530">
        <ele>129.5</ele>
        <time>2021-05-20T12:29:47Z</time>
      </trkpt>
      <trkpt lat="42.2350310" lon="-8.6959560">
        <ele>129.5</ele>
        <time>2021-05-20T12:29:48Z</time>
      </trkpt>
      <trkpt lat="42.2350320" lon="-8.6959500">
        <ele>129.5</ele>
        <time>2021-05-20T12:29:49Z</time>
      </trkpt>
      <trkpt lat="42.2350310" lon="-8.6959440">
        <ele>129.5</ele>
        <time>2021-05-20T12:29:50Z</time>
      </trkpt>
      <trkpt lat="42.2350280" lon="-8.6959410">
        <ele>129.5</ele>
        <time>2021-05-20T12:29:51Z</time>
      </trkpt>
      <trkpt lat="42.2350220" lon="-8.6959340">
        <ele>129.5</ele>
        <time>2021-05-20T12:29:52Z</time>
      </trkpt>
      <trkpt lat="42.2350140" lon="-8.6959200">
        <ele>129.6</ele>
        <time>2021-05-20T12:29:53Z</time>
      </trkpt>
      <trkpt lat="42.2350110" lon="-8.6959130">
        <ele>129.6</ele>
        <time>2021-05-20T12:29:54Z</time>
      </trkpt>
      <trkpt lat="42.2350130" lon="-8.6958970">
        <ele>129.6</ele>
        <time>2021-05-20T12:29:55Z</time>
      </trkpt>
      <trkpt lat="42.2350090" lon="-8.6958830">
        <ele>129.6</ele>
        <time>2021-05-20T12:29:56Z</time>
      </trkpt>
      <trkpt lat="42.2350050" lon="-8.6958760">
        <ele>129.6</ele>
        <time>2021-05-20T12:29:57Z</time>
      </trkpt>
      <trkpt lat="42.2350130" lon="-8.6958670">
        <ele>129.6</ele>
        <time>2021-05-20T12:29:58Z</time>
      </trkpt>
      <trkpt lat="42.2350150" lon="-8.6958450">
        <ele>129.7</ele>
        <time>2021-05-20T12:29:59Z</time>
      </trkpt>
      <trkpt lat="42.2350160" lon="-8.6958270">
        <ele>129.7</ele>
        <time>2021-05-20T12:30:00Z</time>
      </trkpt>
      <trkpt lat="42.2350180" lon="-8.6958240">
        <ele>129.7</ele>
        <time>2021-05-20T12:30:01Z</time>
      </trkpt>
      <trkpt lat="42.2350230" lon="-8.6958090">
        <ele>129.7</ele>
        <time>2021-05-20T12:30:02Z</time>
      </trkpt>
      <trkpt lat="42.2350250" lon="-8.6958010">
        <ele>129.7</ele>
        <time>2021-05-20T12:30:03Z</time>
      </trkpt>
      <trkpt lat="42.2350290" lon="-8.6957900">
        <ele>129.8</ele>
        <time>2021-05-20T12:30:04Z</time>
      </trkpt>
      <trkpt lat="42.2350390" lon="-8.6957870">
        <ele>129.8</ele>
        <time>2021-05-20T12:30:05Z</time>
      </trkpt>
      <trkpt lat="42.2350490" lon="-8.6957800">
        <ele>129.8</ele>
        <time>2021-05-20T12:30:06Z</time>
      </trkpt>
      <trkpt lat="42.2350740" lon="-8.6957810">
        <ele>129.8</ele>
        <time>2021-05-20T12:30:07Z</time>
      </trkpt>
      <trkpt lat="42.2350840" lon="-8.6957750">
        <ele>129.9</ele>
        <time>2021-05-20T12:30:08Z</time>
      </trkpt>
      <trkpt lat="42.2350950" lon="-8.6957700">
        <ele>129.8</ele>
        <time>2021-05-20T12:30:09Z</time>
      </trkpt>
      <trkpt lat="42.2351060" lon="-8.6957740">
        <ele>129.8</ele>
        <time>2021-05-20T12:30:10Z</time>
      </trkpt>
      <trkpt lat="42.2351220" lon="-8.6957650">
        <ele>129.8</ele>
        <time>2021-05-20T12:30:11Z</time>
      </trkpt>
      <trkpt lat="42.2351330" lon="-8.6957590">
        <ele>129.8</ele>
        <time>2021-05-20T12:30:12Z</time>
      </trkpt>
      <trkpt lat="42.2351410" lon="-8.6957650">
        <ele>129.8</ele>
        <time>2021-05-20T12:30:13Z</time>
      </trkpt>
      <trkpt lat="42.2351460" lon="-8.6957700">
        <ele>129.8</ele>
        <time>2021-05-20T12:30:14Z</time>
      </trkpt>
      <trkpt lat="42.2351490" lon="-8.6957810">
        <ele>129.8</ele>
        <time>2021-05-20T12:30:15Z</time>
      </trkpt>
      <trkpt lat="42.2351570" lon="-8.6957820">
        <ele>129.8</ele>
        <time>2021-05-20T12:30:16Z</time>
      </trkpt>
      <trkpt lat="42.2351720" lon="-8.6957890">
        <ele>129.8</ele>
        <time>2021-05-20T12:30:17Z</time>
      </trkpt>
      <trkpt lat="42.2351830" lon="-8.6957920">
        <ele>129.8</ele>
        <time>2021-05-20T12:30:18Z</time>
      </trkpt>
      <trkpt lat="42.2351900" lon="-8.6957890">
        <ele>129.8</ele>
        <time>2021-05-20T12:30:19Z</time>
      </trkpt>
      <trkpt lat="42.2352020" lon="-8.6957830">
        <ele>129.8</ele>
        <time>2021-05-20T12:30:20Z</time>
      </trkpt>
      <trkpt lat="42.2352030" lon="-8.6957780">
        <ele>129.8</ele>
        <time>2021-05-20T12:30:21Z</time>
      </trkpt>
      <trkpt lat="42.2352150" lon="-8.6957690">
        <ele>129.7</ele>
        <time>2021-05-20T12:30:22Z</time>
      </trkpt>
      <trkpt lat="42.2352250" lon="-8.6957590">
        <ele>129.7</ele>
        <time>2021-05-20T12:30:23Z</time>
      </trkpt>
      <trkpt lat="42.2352310" lon="-8.6957560">
        <ele>129.7</ele>
        <time>2021-05-20T12:30:24Z</time>
      </trkpt>
      <trkpt lat="42.2352410" lon="-8.6957500">
        <ele>129.7</ele>
        <time>2021-05-20T12:30:25Z</time>
      </trkpt>
      <trkpt lat="42.2352540" lon="-8.6957490">
        <ele>129.7</ele>
        <time>2021-05-20T12:30:26Z</time>
      </trkpt>
      <trkpt lat="42.2352660" lon="-8.6957450">
        <ele>129.7</ele>
        <time>2021-05-20T12:30:27Z</time>
      </trkpt>
      <trkpt lat="42.2352740" lon="-8.6957410">
        <ele>129.7</ele>
        <time>2021-05-20T12:30:28Z</time>
      </trkpt>
      <trkpt lat="42.2352800" lon="-8.6957410">
        <ele>129.7</ele>
        <time>2021-05-20T12:30:29Z</time>
      </trkpt>
      <trkpt lat="42.2352930" lon="-8.6957380">
        <ele>129.6</ele>
        <time>2021-05-20T12:30:30Z</time>
      </trkpt>
      <trkpt lat="42.2353060" lon="-8.6957340">
        <ele>129.6</ele>
        <time>2021-05-20T12:30:31Z</time>
      </trkpt>
      <trkpt lat="42.2353190" lon="-8.6957310">
        <ele>129.6</ele>
        <time>2021-05-20T12:30:32Z</time>
      </trkpt>
      <trkpt lat="42.2353240" lon="-8.6957310">
        <ele>129.6</ele>
        <time>2021-05-20T12:30:33Z</time>
      </trkpt>
      <trkpt lat="42.2353300" lon="-8.6957340">
        <ele>129.6</ele>
        <time>2021-05-20T12:30:34Z</time>
      </trkpt>
      <trkpt lat="42.2353380" lon="-8.6957330">
        <ele>129.5</ele>
        <time>2021-05-20T12:30:35Z</time>
      </trkpt>
      <trkpt lat="42.2353520" lon="-8.6957360">
        <ele>129.5</ele>
        <time>2021-05-20T12:30:36Z</time>
      </trkpt>
      <trkpt lat="42.2353710" lon="-8.6957310">
        <ele>129.5</ele>
        <time>2021-05-20T12:30:37Z</time>
      </trkpt>
      <trkpt lat="42.2353860" lon="-8.6957270">
        <ele>129.5</ele>
        <time>2021-05-20T12:30:38Z</time>
      </trkpt>
      <trkpt lat="42.2354050" lon="-8.6957220">
        <ele>129.4</ele>
        <time>2021-05-20T12:30:39Z</time>
      </trkpt>
      <trkpt lat="42.2354210" lon="-8.6957150">
        <ele>129.4</ele>
        <time>2021-05-20T12:30:40Z</time>
      </trkpt>
      <trkpt lat="42.2354300" lon="-8.6957000">
        <ele>129.4</ele>
        <time>2021-05-20T12:30:41Z</time>
      </trkpt>
      <trkpt lat="42.2354430" lon="-8.6956880">
        <ele>129.3</ele>
        <time>2021-05-20T12:30:42Z</time>
      </trkpt>
      <trkpt lat="42.2354530" lon="-8.6956780">
        <ele>129.3</ele>
        <time>2021-05-20T12:30:43Z</time>
      </trkpt>
      <trkpt lat="42.2354820" lon="-8.6956630">
        <ele>129.2</ele>
        <time>2021-05-20T12:30:44Z</time>
      </trkpt>
      <trkpt lat="42.2354930" lon="-8.6956570">
        <ele>129.2</ele>
        <time>2021-05-20T12:30:45Z</time>
      </trkpt>
      <trkpt lat="42.2355070" lon="-8.6956520">
        <ele>129.1</ele>
        <time>2021-05-20T12:30:46Z</time>
      </trkpt>
      <trkpt lat="42.2355190" lon="-8.6956430">
        <ele>129.1</ele>
        <time>2021-05-20T12:30:47Z</time>
      </trkpt>
      <trkpt lat="42.2355250" lon="-8.6956300">
        <ele>129.1</ele>
        <time>2021-05-20T12:30:48Z</time>
      </trkpt>
      <trkpt lat="42.2355340" lon="-8.6956190">
        <ele>129.1</ele>
        <time>2021-05-20T12:30:49Z</time>
      </trkpt>
      <trkpt lat="42.2355390" lon="-8.6956160">
        <ele>129.0</ele>
        <time>2021-05-20T12:30:50Z</time>
      </trkpt>
      <trkpt lat="42.2355610" lon="-8.6956150">
        <ele>129.0</ele>
        <time>2021-05-20T12:30:51Z</time>
      </trkpt>
      <trkpt lat="42.2355700" lon="-8.6956170">
        <ele>129.0</ele>
        <time>2021-05-20T12:30:52Z</time>
      </trkpt>
      <trkpt lat="42.2355780" lon="-8.6956190">
        <ele>129.0</ele>
        <time>2021-05-20T12:30:53Z</time>
      </trkpt>
      <trkpt lat="42.2355860" lon="-8.6956240">
        <ele>128.9</ele>
        <time>2021-05-20T12:30:54Z</time>
      </trkpt>
      <trkpt lat="42.2355900" lon="-8.6956250">
        <ele>128.9</ele>
        <time>2021-05-20T12:30:55Z</time>
      </trkpt>
      <trkpt lat="42.2356000" lon="-8.6956220">
        <ele>128.9</ele>
        <time>2021-05-20T12:30:56Z</time>
      </trkpt>
      <trkpt lat="42.2356060" lon="-8.6956110">
        <ele>128.9</ele>
        <time>2021-05-20T12:30:57Z</time>
      </trkpt>
      <trkpt lat="42.2356250" lon="-8.6955940">
        <ele>128.8</ele>
        <time>2021-05-20T12:30:58Z</time>
      </trkpt>
      <trkpt lat="42.2356340" lon="-8.6955920">
        <ele>128.8</ele>
        <time>2021-05-20T12:30:59Z</time>
      </trkpt>
      <trkpt lat="42.2356430" lon="-8.6955910">
        <ele>128.8</ele>
        <time>2021-05-20T12:31:00Z</time>
      </trkpt>
      <trkpt lat="42.2356650" lon="-8.6955890">
        <ele>128.7</ele>
        <time>2021-05-20T12:31:01Z</time>
      </trkpt>
      <trkpt lat="42.2356750" lon="-8.6955920">
        <ele>128.7</ele>
        <time>2021-05-20T12:31:02Z</time>
      </trkpt>
      <trkpt lat="42.2356920" lon="-8.6955900">
        <ele>128.6</ele>
        <time>2021-05-20T12:31:03Z</time>
      </trkpt>
      <trkpt lat="42.2357030" lon="-8.6955940">
        <ele>128.6</ele>
        <time>2021-05-20T12:31:04Z</time>
      </trkpt>
      <trkpt lat="42.2357290" lon="-8.6955930">
        <ele>128.5</ele>
        <time>2021-05-20T12:31:05Z</time>
      </trkpt>
      <trkpt lat="42.2357360" lon="-8.6955950">
        <ele>128.5</ele>
        <time>2021-05-20T12:31:06Z</time>
      </trkpt>
      <trkpt lat="42.2357440" lon="-8.6955980">
        <ele>128.5</ele>
        <time>2021-05-20T12:31:07Z</time>
      </trkpt>
      <trkpt lat="42.2357600" lon="-8.6955910">
        <ele>128.5</ele>
        <time>2021-05-20T12:31:08Z</time>
      </trkpt>
      <trkpt lat="42.2357730" lon="-8.6955890">
        <ele>128.4</ele>
        <time>2021-05-20T12:31:09Z</time>
      </trkpt>
      <trkpt lat="42.2358020" lon="-8.6955740">
        <ele>128.3</ele>
        <time>2021-05-20T12:31:10Z</time>
      </trkpt>
      <trkpt lat="42.2358110" lon="-8.6955700">
        <ele>128.3</ele>
        <time>2021-05-20T12:31:11Z</time>
      </trkpt>
      <trkpt lat="42.2358310" lon="-8.6955590">
        <ele>128.2</ele>
        <time>2021-05-20T12:31:12Z</time>
      </trkpt>
      <trkpt lat="42.2358410" lon="-8.6955580">
        <ele>128.2</ele>
        <time>2021-05-20T12:31:13Z</time>
      </trkpt>
      <trkpt lat="42.2358510" lon="-8.6955560">
        <ele>128.2</ele>
        <time>2021-05-20T12:31:14Z</time>
      </trkpt>
      <trkpt lat="42.2358710" lon="-8.6955380">
        <ele>128.1</ele>
        <time>2021-05-20T12:31:15Z</time>
      </trkpt>
      <trkpt lat="42.2358800" lon="-8.6955310">
        <ele>128.1</ele>
        <time>2021-05-20T12:31:16Z</time>
      </trkpt>
      <trkpt lat="42.2358900" lon="-8.6955230">
        <ele>128.0</ele>
        <time>2021-05-20T12:31:17Z</time>
      </trkpt>
      <trkpt lat="42.2358930" lon="-8.6955340">
        <ele>128.0</ele>
        <time>2021-05-20T12:31:18Z</time>
      </trkpt>
      <trkpt lat="42.2359030" lon="-8.6955360">
        <ele>128.0</ele>
        <time>2021-05-20T12:31:19Z</time>
      </trkpt>
      <trkpt lat="42.2359210" lon="-8.6955310">
        <ele>127.9</ele>
        <time>2021-05-20T12:31:20Z</time>
      </trkpt>
      <trkpt lat="42.2359320" lon="-8.6955150">
        <ele>127.9</ele>
        <time>2021-05-20T12:31:21Z</time>
      </trkpt>
      <trkpt lat="42.2359490" lon="-8.6955110">
        <ele>127.8</ele>
        <time>2021-05-20T12:31:22Z</time>
      </trkpt>
      <trkpt lat="42.2359640" lon="-8.6954980">
        <ele>127.8</ele>
        <time>2021-05-20T12:31:23Z</time>
      </trkpt>
      <trkpt lat="42.2359790" lon="-8.6954880">
        <ele>127.7</ele>
        <time>2021-05-20T12:31:24Z</time>
      </trkpt>
      <trkpt lat="42.2359880" lon="-8.6954850">
        <ele>127.7</ele>
        <time>2021-05-20T12:31:25Z</time>
      </trkpt>
      <trkpt lat="42.2360030" lon="-8.6954750">
        <ele>127.7</ele>
        <time>2021-05-20T12:31:26Z</time>
      </trkpt>
      <trkpt lat="42.2360100" lon="-8.6954750">
        <ele>127.7</ele>
        <time>2021-05-20T12:31:27Z</time>
      </trkpt>
      <trkpt lat="42.2360190" lon="-8.6954680">
        <ele>127.6</ele>
        <time>2021-05-20T12:31:28Z</time>
      </trkpt>
      <trkpt lat="42.2360300" lon="-8.6954610">
        <ele>127.6</ele>
        <time>2021-05-20T12:31:29Z</time>
      </trkpt>
      <trkpt lat="42.2360380" lon="-8.6954600">
        <ele>127.6</ele>
        <time>2021-05-20T12:31:30Z</time>
      </trkpt>
      <trkpt lat="42.2360510" lon="-8.6954480">
        <ele>127.6</ele>
        <time>2021-05-20T12:31:31Z</time>
      </trkpt>
      <trkpt lat="42.2360630" lon="-8.6954360">
        <ele>127.5</ele>
        <time>2021-05-20T12:31:32Z</time>
      </trkpt>
      <trkpt lat="42.2360720" lon="-8.6954350">
        <ele>127.5</ele>
        <time>2021-05-20T12:31:33Z</time>
      </trkpt>
      <trkpt lat="42.2360790" lon="-8.6954330">
        <ele>127.5</ele>
        <time>2021-05-20T12:31:34Z</time>
      </trkpt>
      <trkpt lat="42.2360830" lon="-8.6954250">
        <ele>127.5</ele>
        <time>2021-05-20T12:31:35Z</time>
      </trkpt>
      <trkpt lat="42.2360880" lon="-8.6954170">
        <ele>127.5</ele>
        <time>2021-05-20T12:31:36Z</time>
      </trkpt>
      <trkpt lat="42.2361160" lon="-8.6953790">
        <ele>127.4</ele>
        <time>2021-05-20T12:31:37Z</time>
      </trkpt>
      <trkpt lat="42.2361360" lon="-8.6953460">
        <ele>127.4</ele>
        <time>2021-05-20T12:31:38Z</time>
      </trkpt>
      <trkpt lat="42.2361640" lon="-8.6953140">
        <ele>127.3</ele>
        <time>2021-05-20T12:31:39Z</time>
      </trkpt>
      <trkpt lat="42.2361720" lon="-8.6953050">
        <ele>127.3</ele>
        <time>2021-05-20T12:31:40Z</time>
      </trkpt>
      <trkpt lat="42.2361880" lon="-8.6952830">
        <ele>127.3</ele>
        <time>2021-05-20T12:31:41Z</time>
      </trkpt>
      <trkpt lat="42.2361980" lon="-8.6952730">
        <ele>127.3</ele>
        <time>2021-05-20T12:31:42Z</time>
      </trkpt>
      <trkpt lat="42.2362060" lon="-8.6952580">
        <ele>127.3</ele>
        <time>2021-05-20T12:31:43Z</time>
      </trkpt>
      <trkpt lat="42.2362130" lon="-8.6952390">
        <ele>127.3</ele>
        <time>2021-05-20T12:31:44Z</time>
      </trkpt>
      <trkpt lat="42.2362250" lon="-8.6952230">
        <ele>127.3</ele>
        <time>2021-05-20T12:31:45Z</time>
      </trkpt>
      <trkpt lat="42.2362360" lon="-8.6952100">
        <ele>127.3</ele>
        <time>2021-05-20T12:31:46Z</time>
      </trkpt>
      <trkpt lat="42.2362560" lon="-8.6951840">
        <ele>127.3</ele>
        <time>2021-05-20T12:31:47Z</time>
      </trkpt>
      <trkpt lat="42.2362620" lon="-8.6951750">
        <ele>127.3</ele>
        <time>2021-05-20T12:31:48Z</time>
      </trkpt>
      <trkpt lat="42.2362800" lon="-8.6951550">
        <ele>127.3</ele>
        <time>2021-05-20T12:31:49Z</time>
      </trkpt>
      <trkpt lat="42.2362880" lon="-8.6951440">
        <ele>127.3</ele>
        <time>2021-05-20T12:31:50Z</time>
      </trkpt>
      <trkpt lat="42.2363070" lon="-8.6951290">
        <ele>127.3</ele>
        <time>2021-05-20T12:31:51Z</time>
      </trkpt>
      <trkpt lat="42.2363150" lon="-8.6951200">
        <ele>127.3</ele>
        <time>2021-05-20T12:31:52Z</time>
      </trkpt>
      <trkpt lat="42.2363240" lon="-8.6951110">
        <ele>127.3</ele>
        <time>2021-05-20T12:31:53Z</time>
      </trkpt>
      <trkpt lat="42.2363320" lon="-8.6950960">
        <ele>127.3</ele>
        <time>2021-05-20T12:31:54Z</time>
      </trkpt>
      <trkpt lat="42.2363340" lon="-8.6950810">
        <ele>127.3</ele>
        <time>2021-05-20T12:31:55Z</time>
      </trkpt>
      <trkpt lat="42.2363450" lon="-8.6950750">
        <ele>127.4</ele>
        <time>2021-05-20T12:31:56Z</time>
      </trkpt>
      <trkpt lat="42.2363480" lon="-8.6950650">
        <ele>127.4</ele>
        <time>2021-05-20T12:31:57Z</time>
      </trkpt>
      <trkpt lat="42.2363520" lon="-8.6950550">
        <ele>127.4</ele>
        <time>2021-05-20T12:31:58Z</time>
      </trkpt>
      <trkpt lat="42.2363580" lon="-8.6950430">
        <ele>127.4</ele>
        <time>2021-05-20T12:31:59Z</time>
      </trkpt>
      <trkpt lat="42.2363650" lon="-8.6950340">
        <ele>127.4</ele>
        <time>2021-05-20T12:32:00Z</time>
      </trkpt>
      <trkpt lat="42.2363720" lon="-8.6950210">
        <ele>127.4</ele>
        <time>2021-05-20T12:32:01Z</time>
      </trkpt>
      <trkpt lat="42.2363770" lon="-8.6950140">
        <ele>127.4</ele>
        <time>2021-05-20T12:32:02Z</time>
      </trkpt>
      <trkpt lat="42.2363930" lon="-8.6949970">
        <ele>127.5</ele>
        <time>2021-05-20T12:32:03Z</time>
      </trkpt>
      <trkpt lat="42.2364040" lon="-8.6949940">
        <ele>127.5</ele>
        <time>2021-05-20T12:32:04Z</time>
      </trkpt>
      <trkpt lat="42.2364140" lon="-8.6949900">
        <ele>127.5</ele>
        <time>2021-05-20T12:32:05Z</time>
      </trkpt>
      <trkpt lat="42.2364330" lon="-8.6949700">
        <ele>127.6</ele>
        <time>2021-05-20T12:32:06Z</time>
      </trkpt>
      <trkpt lat="42.2364360" lon="-8.6949610">
        <ele>127.6</ele>
        <time>2021-05-20T12:32:07Z</time>
      </trkpt>
      <trkpt lat="42.2364380" lon="-8.6949520">
        <ele>127.6</ele>
        <time>2021-05-20T12:32:08Z</time>
      </trkpt>
      <trkpt lat="42.2364460" lon="-8.6949330">
        <ele>127.6</ele>
        <time>2021-05-20T12:32:09Z</time>
      </trkpt>
      <trkpt lat="42.2364540" lon="-8.6949210">
        <ele>127.7</ele>
        <time>2021-05-20T12:32:10Z</time>
      </trkpt>
      <trkpt lat="42.2364680" lon="-8.6949170">
        <ele>127.7</ele>
        <time>2021-05-20T12:32:11Z</time>
      </trkpt>
      <trkpt lat="42.2364750" lon="-8.6949090">
        <ele>127.7</ele>
        <time>2021-05-20T12:32:12Z</time>
      </trkpt>
      <trkpt lat="42.2364810" lon="-8.6949050">
        <ele>127.7</ele>
        <time>2021-05-20T12:32:13Z</time>
      </trkpt>
      <trkpt lat="42.2364890" lon="-8.6948990">
        <ele>127.7</ele>
        <time>2021-05-20T12:32:14Z</time>
      </trkpt>
      <trkpt lat="42.2364940" lon="-8.6948960">
        <ele>127.8</ele>
        <time>2021-05-20T12:32:15Z</time>
      </trkpt>
      <trkpt lat="42.2365000" lon="-8.6948900">
        <ele>127.8</ele>
        <time>2021-05-20T12:32:16Z</time>
      </trkpt>
      <trkpt lat="42.2365050" lon="-8.6948800">
        <ele>127.8</ele>
        <time>2021-05-20T12:32:17Z</time>
      </trkpt>
      <trkpt lat="42.2365100" lon="-8.6948720">
        <ele>127.8</ele>
        <time>2021-05-20T12:32:18Z</time>
      </trkpt>
      <trkpt lat="42.2365140" lon="-8.6948630">
        <ele>127.8</ele>
        <time>2021-05-20T12:32:19Z</time>
      </trkpt>
      <trkpt lat="42.2365240" lon="-8.6948570">
        <ele>127.8</ele>
        <time>2021-05-20T12:32:20Z</time>
      </trkpt>
      <trkpt lat="42.2365270" lon="-8.6948470">
        <ele>127.9</ele>
        <time>2021-05-20T12:32:21Z</time>
      </trkpt>
      <trkpt lat="42.2365360" lon="-8.6948400">
        <ele>127.9</ele>
        <time>2021-05-20T12:32:22Z</time>
      </trkpt>
      <trkpt lat="42.2365460" lon="-8.6948450">
        <ele>127.9</ele>
        <time>2021-05-20T12:32:23Z</time>
      </trkpt>
      <trkpt lat="42.2365610" lon="-8.6948390">
        <ele>128.0</ele>
        <time>2021-05-20T12:32:24Z</time>
      </trkpt>
      <trkpt lat="42.2365800" lon="-8.6948300">
        <ele>128.0</ele>
        <time>2021-05-20T12:32:25Z</time>
      </trkpt>
      <trkpt lat="42.2365960" lon="-8.6948240">
        <ele>128.1</ele>
        <time>2021-05-20T12:32:26Z</time>
      </trkpt>
      <trkpt lat="42.2366060" lon="-8.6948140">
        <ele>128.1</ele>
        <time>2021-05-20T12:32:27Z</time>
      </trkpt>
      <trkpt lat="42.2366140" lon="-8.6947970">
        <ele>128.1</ele>
        <time>2021-05-20T12:32:28Z</time>
      </trkpt>
      <trkpt lat="42.2366190" lon="-8.6947870">
        <ele>128.2</ele>
        <time>2021-05-20T12:32:29Z</time>
      </trkpt>
      <trkpt lat="42.2366200" lon="-8.6947760">
        <ele>128.2</ele>
        <time>2021-05-20T12:32:30Z</time>
      </trkpt>
      <trkpt lat="42.2366320" lon="-8.6947630">
        <ele>128.2</ele>
        <time>2021-05-20T12:32:31Z</time>
      </trkpt>
      <trkpt lat="42.2366420" lon="-8.6947550">
        <ele>128.3</ele>
        <time>2021-05-20T12:32:32Z</time>
      </trkpt>
      <trkpt lat="42.2366600" lon="-8.6947380">
        <ele>128.3</ele>
        <time>2021-05-20T12:32:33Z</time>
      </trkpt>
      <trkpt lat="42.2366670" lon="-8.6947320">
        <ele>128.4</ele>
        <time>2021-05-20T12:32:34Z</time>
      </trkpt>
      <trkpt lat="42.2366740" lon="-8.6947250">
        <ele>128.4</ele>
        <time>2021-05-20T12:32:35Z</time>
      </trkpt>
      <trkpt lat="42.2366850" lon="-8.6947240">
        <ele>128.4</ele>
        <time>2021-05-20T12:32:36Z</time>
      </trkpt>
      <trkpt lat="42.2366940" lon="-8.6947240">
        <ele>128.5</ele>
        <time>2021-05-20T12:32:37Z</time>
      </trkpt>
      <trkpt lat="42.2367040" lon="-8.6947230">
        <ele>128.5</ele>
        <time>2021-05-20T12:32:38Z</time>
      </trkpt>
      <trkpt lat="42.2367140" lon="-8.6947220">
        <ele>128.5</ele>
        <time>2021-05-20T12:32:39Z</time>
      </trkpt>
      <trkpt lat="42.2367390" lon="-8.6947080">
        <ele>128.6</ele>
        <time>2021-05-20T12:32:40Z</time>
      </trkpt>
      <trkpt lat="42.2367480" lon="-8.6947020">
        <ele>128.7</ele>
        <time>2021-05-20T12:32:41Z</time>
      </trkpt>
      <trkpt lat="42.2367620" lon="-8.6946920">
        <ele>128.7</ele>
        <time>2021-05-20T12:32:42Z</time>
      </trkpt>
      <trkpt lat="42.2367640" lon="-8.6946870">
        <ele>128.7</ele>
        <time>2021-05-20T12:32:43Z</time>
      </trkpt>
      <trkpt lat="42.2367760" lon="-8.6946710">
        <ele>128.8</ele>
        <time>2021-05-20T12:32:44Z</time>
      </trkpt>
      <trkpt lat="42.2367920" lon="-8.6946510">
        <ele>128.9</ele>
        <time>2021-05-20T12:32:45Z</time>
      </trkpt>
      <trkpt lat="42.2367990" lon="-8.6946390">
        <ele>128.9</ele>
        <time>2021-05-20T12:32:46Z</time>
      </trkpt>
      <trkpt lat="42.2368060" lon="-8.6946280">
        <ele>129.0</ele>
        <time>2021-05-20T12:32:47Z</time>
      </trkpt>
      <trkpt lat="42.2368180" lon="-8.6946060">
        <ele>129.0</ele>
        <time>2021-05-20T12:32:48Z</time>
      </trkpt>
      <trkpt lat="42.2368270" lon="-8.6945950">
        <ele>129.1</ele>
        <time>2021-05-20T12:32:49Z</time>
      </trkpt>
      <trkpt lat="42.2368380" lon="-8.6945810">
        <ele>129.2</ele>
        <time>2021-05-20T12:32:50Z</time>
      </trkpt>
      <trkpt lat="42.2368530" lon="-8.6945680">
        <ele>129.2</ele>
        <time>2021-05-20T12:32:51Z</time>
      </trkpt>
      <trkpt lat="42.2368720" lon="-8.6945490">
        <ele>129.4</ele>
        <time>2021-05-20T12:32:52Z</time>
      </trkpt>
      <trkpt lat="42.2368760" lon="-8.6945380">
        <ele>129.4</ele>
        <time>2021-05-20T12:32:53Z</time>
      </trkpt>
      <trkpt lat="42.2368810" lon="-8.6945280">
        <ele>129.4</ele>
        <time>2021-05-20T12:32:54Z</time>
      </trkpt>
      <trkpt lat="42.2368850" lon="-8.6945100">
        <ele>129.5</ele>
        <time>2021-05-20T12:32:55Z</time>
      </trkpt>
      <trkpt lat="42.2368910" lon="-8.6944910">
        <ele>129.6</ele>
        <time>2021-05-20T12:32:56Z</time>
      </trkpt>
      <trkpt lat="42.2369010" lon="-8.6944680">
        <ele>129.7</ele>
        <time>2021-05-20T12:32:57Z</time>
      </trkpt>
      <trkpt lat="42.2369080" lon="-8.6944570">
        <ele>129.7</ele>
        <time>2021-05-20T12:32:58Z</time>
      </trkpt>
      <trkpt lat="42.2369140" lon="-8.6944470">
        <ele>129.8</ele>
        <time>2021-05-20T12:32:59Z</time>
      </trkpt>
      <trkpt lat="42.2369260" lon="-8.6944460">
        <ele>129.8</ele>
        <time>2021-05-20T12:33:00Z</time>
      </trkpt>
      <trkpt lat="42.2369410" lon="-8.6944290">
        <ele>129.9</ele>
        <time>2021-05-20T12:33:01Z</time>
      </trkpt>
      <trkpt lat="42.2369440" lon="-8.6944200">
        <ele>130.0</ele>
        <time>2021-05-20T12:33:02Z</time>
      </trkpt>
      <trkpt lat="42.2369480" lon="-8.6944110">
        <ele>130.0</ele>
        <time>2021-05-20T12:33:03Z</time>
      </trkpt>
      <trkpt lat="42.2369640" lon="-8.6944060">
        <ele>130.1</ele>
        <time>2021-05-20T12:33:04Z</time>
      </trkpt>
      <trkpt lat="42.2369780" lon="-8.6943930">
        <ele>130.2</ele>
        <time>2021-05-20T12:33:05Z</time>
      </trkpt>
      <trkpt lat="42.2369920" lon="-8.6943840">
        <ele>130.3</ele>
        <time>2021-05-20T12:33:06Z</time>
      </trkpt>
      <trkpt lat="42.2370090" lon="-8.6943790">
        <ele>130.4</ele>
        <time>2021-05-20T12:33:07Z</time>
      </trkpt>
      <trkpt lat="42.2370200" lon="-8.6943750">
        <ele>130.5</ele>
        <time>2021-05-20T12:33:08Z</time>
      </trkpt>
      <trkpt lat="42.2370310" lon="-8.6943690">
        <ele>130.5</ele>
        <time>2021-05-20T12:33:09Z</time>
      </trkpt>
      <trkpt lat="42.2370360" lon="-8.6943700">
        <ele>130.6</ele>
        <time>2021-05-20T12:33:10Z</time>
      </trkpt>
      <trkpt lat="42.2370520" lon="-8.6943660">
        <ele>130.7</ele>
        <time>2021-05-20T12:33:11Z</time>
      </trkpt>
      <trkpt lat="42.2370670" lon="-8.6943590">
        <ele>130.8</ele>
        <time>2021-05-20T12:33:12Z</time>
      </trkpt>
      <trkpt lat="42.2370800" lon="-8.6943490">
        <ele>130.9</ele>
        <time>2021-05-20T12:33:13Z</time>
      </trkpt>
      <trkpt lat="42.2370910" lon="-8.6943590">
        <ele>131.0</ele>
        <time>2021-05-20T12:33:14Z</time>
      </trkpt>
      <trkpt lat="42.2371080" lon="-8.6943580">
        <ele>131.1</ele>
        <time>2021-05-20T12:33:15Z</time>
      </trkpt>
      <trkpt lat="42.2371040" lon="-8.6943680">
        <ele>131.2</ele>
        <time>2021-05-20T12:33:16Z</time>
      </trkpt>
      <trkpt lat="42.2371080" lon="-8.6943720">
        <ele>131.2</ele>
        <time>2021-05-20T12:33:17Z</time>
      </trkpt>
      <trkpt lat="42.2371250" lon="-8.6943530">
        <ele>131.4</ele>
        <time>2021-05-20T12:33:18Z</time>
      </trkpt>
      <trkpt lat="42.2371320" lon="-8.6943670">
        <ele>131.5</ele>
        <time>2021-05-20T12:33:19Z</time>
      </trkpt>
      <trkpt lat="42.2371400" lon="-8.6943670">
        <ele>131.5</ele>
        <time>2021-05-20T12:33:20Z</time>
      </trkpt>
      <trkpt lat="42.2371520" lon="-8.6943640">
        <ele>131.6</ele>
        <time>2021-05-20T12:33:21Z</time>
      </trkpt>
      <trkpt lat="42.2371590" lon="-8.6943610">
        <ele>131.7</ele>
        <time>2021-05-20T12:33:22Z</time>
      </trkpt>
      <trkpt lat="42.2371700" lon="-8.6943580">
        <ele>131.8</ele>
        <time>2021-05-20T12:33:23Z</time>
      </trkpt>
      <trkpt lat="42.2371830" lon="-8.6943100">
        <ele>132.1</ele>
        <time>2021-05-20T12:33:24Z</time>
      </trkpt>
      <trkpt lat="42.2371900" lon="-8.6943050">
        <ele>132.2</ele>
        <time>2021-05-20T12:33:25Z</time>
      </trkpt>
      <trkpt lat="42.2372030" lon="-8.6943050">
        <ele>132.3</ele>
        <time>2021-05-20T12:33:26Z</time>
      </trkpt>
      <trkpt lat="42.2372190" lon="-8.6943000">
        <ele>132.4</ele>
        <time>2021-05-20T12:33:27Z</time>
      </trkpt>
      <trkpt lat="42.2372360" lon="-8.6942940">
        <ele>132.6</ele>
        <time>2021-05-20T12:33:28Z</time>
      </trkpt>
      <trkpt lat="42.2372420" lon="-8.6942900">
        <ele>132.6</ele>
        <time>2021-05-20T12:33:29Z</time>
      </trkpt>
      <trkpt lat="42.2372480" lon="-8.6942850">
        <ele>132.7</ele>
        <time>2021-05-20T12:33:30Z</time>
      </trkpt>
      <trkpt lat="42.2372540" lon="-8.6942800">
        <ele>132.8</ele>
        <time>2021-05-20T12:33:31Z</time>
      </trkpt>
      <trkpt lat="42.2372670" lon="-8.6942740">
        <ele>132.9</ele>
        <time>2021-05-20T12:33:32Z</time>
      </trkpt>
      <trkpt lat="42.2372830" lon="-8.6942650">
        <ele>133.0</ele>
        <time>2021-05-20T12:33:33Z</time>
      </trkpt>
      <trkpt lat="42.2372900" lon="-8.6942480">
        <ele>133.1</ele>
        <time>2021-05-20T12:33:34Z</time>
      </trkpt>
      <trkpt lat="42.2373060" lon="-8.6942370">
        <ele>133.3</ele>
        <time>2021-05-20T12:33:35Z</time>
      </trkpt>
      <trkpt lat="42.2373230" lon="-8.6942260">
        <ele>133.5</ele>
        <time>2021-05-20T12:33:36Z</time>
      </trkpt>
      <trkpt lat="42.2373290" lon="-8.6942210">
        <ele>133.5</ele>
        <time>2021-05-20T12:33:37Z</time>
      </trkpt>
      <trkpt lat="42.2373340" lon="-8.6942170">
        <ele>133.5</ele>
        <time>2021-05-20T12:33:38Z</time>
      </trkpt>
      <trkpt lat="42.2373390" lon="-8.6942120">
        <ele>133.5</ele>
        <time>2021-05-20T12:33:39Z</time>
      </trkpt>
      <trkpt lat="42.2373540" lon="-8.6942150">
        <ele>133.5</ele>
        <time>2021-05-20T12:33:40Z</time>
      </trkpt>
      <trkpt lat="42.2373700" lon="-8.6942030">
        <ele>133.5</ele>
        <time>2021-05-20T12:33:41Z</time>
      </trkpt>
      <trkpt lat="42.2373760" lon="-8.6941880">
        <ele>133.5</ele>
        <time>2021-05-20T12:33:42Z</time>
      </trkpt>
      <trkpt lat="42.2373930" lon="-8.6941770">
        <ele>133.6</ele>
        <time>2021-05-20T12:33:43Z</time>
      </trkpt>
      <trkpt lat="42.2374090" lon="-8.6941750">
        <ele>133.7</ele>
        <time>2021-05-20T12:33:44Z</time>
      </trkpt>
      <trkpt lat="42.2374160" lon="-8.6941710">
        <ele>133.7</ele>
        <time>2021-05-20T12:33:45Z</time>
      </trkpt>
      <trkpt lat="42.2374210" lon="-8.6941690">
        <ele>133.7</ele>
        <time>2021-05-20T12:33:46Z</time>
      </trkpt>
      <trkpt lat="42.2374270" lon="-8.6941710">
        <ele>133.8</ele>
        <time>2021-05-20T12:33:47Z</time>
      </trkpt>
      <trkpt lat="42.2374360" lon="-8.6941670">
        <ele>133.8</ele>
        <time>2021-05-20T12:33:48Z</time>
      </trkpt>
      <trkpt lat="42.2374420" lon="-8.6941630">
        <ele>133.9</ele>
        <time>2021-05-20T12:33:49Z</time>
      </trkpt>
      <trkpt lat="42.2374490" lon="-8.6941620">
        <ele>133.9</ele>
        <time>2021-05-20T12:33:50Z</time>
      </trkpt>
      <trkpt lat="42.2374580" lon="-8.6941600">
        <ele>133.9</ele>
        <time>2021-05-20T12:33:51Z</time>
      </trkpt>
      <trkpt lat="42.2374690" lon="-8.6941570">
        <ele>134.0</ele>
        <time>2021-05-20T12:33:52Z</time>
      </trkpt>
      <trkpt lat="42.2374830" lon="-8.6941520">
        <ele>134.1</ele>
        <time>2021-05-20T12:33:53Z</time>
      </trkpt>
      <trkpt lat="42.2374930" lon="-8.6941530">
        <ele>134.1</ele>
        <time>2021-05-20T12:33:54Z</time>
      </trkpt>
      <trkpt lat="42.2375030" lon="-8.6941500">
        <ele>134.1</ele>
        <time>2021-05-20T12:33:55Z</time>
      </trkpt>
      <trkpt lat="42.2375160" lon="-8.6941440">
        <ele>134.2</ele>
        <time>2021-05-20T12:33:56Z</time>
      </trkpt>
      <trkpt lat="42.2375240" lon="-8.6941440">
        <ele>134.3</ele>
        <time>2021-05-20T12:33:57Z</time>
      </trkpt>
      <trkpt lat="42.2375280" lon="-8.6941460">
        <ele>134.3</ele>
        <time>2021-05-20T12:33:58Z</time>
      </trkpt>
      <trkpt lat="42.2375370" lon="-8.6941470">
        <ele>134.3</ele>
        <time>2021-05-20T12:33:59Z</time>
      </trkpt>
      <trkpt lat="42.2375500" lon="-8.6941480">
        <ele>134.4</ele>
        <time>2021-05-20T12:34:00Z</time>
      </trkpt>
      <trkpt lat="42.2375710" lon="-8.6941460">
        <ele>134.5</ele>
        <time>2021-05-20T12:34:01Z</time>
      </trkpt>
      <trkpt lat="42.2375800" lon="-8.6941450">
        <ele>134.5</ele>
        <time>2021-05-20T12:34:02Z</time>
      </trkpt>
      <trkpt lat="42.2375900" lon="-8.6941430">
        <ele>134.6</ele>
        <time>2021-05-20T12:34:03Z</time>
      </trkpt>
      <trkpt lat="42.2376000" lon="-8.6941380">
        <ele>134.6</ele>
        <time>2021-05-20T12:34:04Z</time>
      </trkpt>
      <trkpt lat="42.2376170" lon="-8.6941360">
        <ele>134.7</ele>
        <time>2021-05-20T12:34:05Z</time>
      </trkpt>
      <trkpt lat="42.2376270" lon="-8.6941330">
        <ele>134.8</ele>
        <time>2021-05-20T12:34:06Z</time>
      </trkpt>
      <trkpt lat="42.2376400" lon="-8.6941290">
        <ele>134.8</ele>
        <time>2021-05-20T12:34:07Z</time>
      </trkpt>
      <trkpt lat="42.2376440" lon="-8.6941250">
        <ele>134.8</ele>
        <time>2021-05-20T12:34:08Z</time>
      </trkpt>
      <trkpt lat="42.2376760" lon="-8.6941220">
        <ele>135.0</ele>
        <time>2021-05-20T12:34:09Z</time>
      </trkpt>
      <trkpt lat="42.2376860" lon="-8.6941200">
        <ele>135.0</ele>
        <time>2021-05-20T12:34:10Z</time>
      </trkpt>
      <trkpt lat="42.2377020" lon="-8.6941150">
        <ele>135.1</ele>
        <time>2021-05-20T12:34:11Z</time>
      </trkpt>
      <trkpt lat="42.2377180" lon="-8.6941130">
        <ele>135.2</ele>
        <time>2021-05-20T12:34:12Z</time>
      </trkpt>
      <trkpt lat="42.2377310" lon="-8.6941100">
        <ele>135.2</ele>
        <time>2021-05-20T12:34:13Z</time>
      </trkpt>
      <trkpt lat="42.2377390" lon="-8.6941120">
        <ele>135.3</ele>
        <time>2021-05-20T12:34:14Z</time>
      </trkpt>
      <trkpt lat="42.2377500" lon="-8.6941090">
        <ele>135.3</ele>
        <time>2021-05-20T12:34:15Z</time>
      </trkpt>
      <trkpt lat="42.2377610" lon="-8.6941020">
        <ele>135.4</ele>
        <time>2021-05-20T12:34:16Z</time>
      </trkpt>
      <trkpt lat="42.2377710" lon="-8.6940960">
        <ele>135.4</ele>
        <time>2021-05-20T12:34:17Z</time>
      </trkpt>
      <trkpt lat="42.2377820" lon="-8.6940940">
        <ele>135.5</ele>
        <time>2021-05-20T12:34:18Z</time>
      </trkpt>
      <trkpt lat="42.2378080" lon="-8.6940900">
        <ele>135.6</ele>
        <time>2021-05-20T12:34:19Z</time>
      </trkpt>
      <trkpt lat="42.2378150" lon="-8.6940870">
        <ele>135.7</ele>
        <time>2021-05-20T12:34:20Z</time>
      </trkpt>
      <trkpt lat="42.2378220" lon="-8.6940830">
        <ele>135.7</ele>
        <time>2021-05-20T12:34:21Z</time>
      </trkpt>
      <trkpt lat="42.2378240" lon="-8.6940830">
        <ele>135.7</ele>
        <time>2021-05-20T12:34:22Z</time>
      </trkpt>
      <trkpt lat="42.2378280" lon="-8.6940830">
        <ele>135.7</ele>
        <time>2021-05-20T12:34:23Z</time>
      </trkpt>
      <trkpt lat="42.2378400" lon="-8.6940800">
        <ele>135.8</ele>
        <time>2021-05-20T12:34:24Z</time>
      </trkpt>
      <trkpt lat="42.2378470" lon="-8.6940910">
        <ele>135.8</ele>
        <time>2021-05-20T12:34:25Z</time>
      </trkpt>
      <trkpt lat="42.2378560" lon="-8.6940910">
        <ele>135.8</ele>
        <time>2021-05-20T12:34:26Z</time>
      </trkpt>
      <trkpt lat="42.2378690" lon="-8.6940920">
        <ele>135.9</ele>
        <time>2021-05-20T12:34:27Z</time>
      </trkpt>
      <trkpt lat="42.2378780" lon="-8.6940910">
        <ele>135.9</ele>
        <time>2021-05-20T12:34:28Z</time>
      </trkpt>
      <trkpt lat="42.2378880" lon="-8.6940880">
        <ele>136.0</ele>
        <time>2021-05-20T12:34:29Z</time>
      </trkpt>
      <trkpt lat="42.2379000" lon="-8.6940830">
        <ele>136.0</ele>
        <time>2021-05-20T12:34:30Z</time>
      </trkpt>
      <trkpt lat="42.2379180" lon="-8.6940760">
        <ele>136.1</ele>
        <time>2021-05-20T12:34:31Z</time>
      </trkpt>
      <trkpt lat="42.2379350" lon="-8.6940700">
        <ele>136.2</ele>
        <time>2021-05-20T12:34:32Z</time>
      </trkpt>
      <trkpt lat="42.2379410" lon="-8.6940680">
        <ele>136.2</ele>
        <time>2021-05-20T12:34:33Z</time>
      </trkpt>
      <trkpt lat="42.2379420" lon="-8.6940700">
        <ele>136.2</ele>
        <time>2021-05-20T12:34:34Z</time>
      </trkpt>
      <trkpt lat="42.2379430" lon="-8.6940750">
        <ele>136.2</ele>
        <time>2021-05-20T12:34:35Z</time>
      </trkpt>
      <trkpt lat="42.2379430" lon="-8.6940740">
        <ele>136.3</ele>
        <time>2021-05-20T12:34:36Z</time>
      </trkpt>
      <trkpt lat="42.2379470" lon="-8.6940630">
        <ele>136.3</ele>
        <time>2021-05-20T12:34:37Z</time>
      </trkpt>
      <trkpt lat="42.2379430" lon="-8.6940610">
        <ele>136.3</ele>
        <time>2021-05-20T12:34:38Z</time>
      </trkpt>
      <trkpt lat="42.2379410" lon="-8.6940580">
        <ele>136.3</ele>
        <time>2021-05-20T12:34:39Z</time>
      </trkpt>
      <trkpt lat="42.2379440" lon="-8.6940610">
        <ele>136.3</ele>
        <time>2021-05-20T12:34:40Z</time>
      </trkpt>
      <trkpt lat="42.2379440" lon="-8.6940610">
        <ele>136.3</ele>
        <time>2021-05-20T12:34:41Z</time>
      </trkpt>
      <trkpt lat="42.2379470" lon="-8.6940670">
        <ele>136.4</ele>
        <time>2021-05-20T12:34:42Z</time>
      </trkpt>
      <trkpt lat="42.2379470" lon="-8.6940610">
        <ele>136.4</ele>
        <time>2021-05-20T12:34:43Z</time>
      </trkpt>
      <trkpt lat="42.2379470" lon="-8.6940610">
        <ele>136.4</ele>
        <time>2021-05-20T12:34:44Z</time>
      </trkpt>
      <trkpt lat="42.2379490" lon="-8.6940580">
        <ele>136.4</ele>
        <time>2021-05-20T12:34:45Z</time>
      </trkpt>
      <trkpt lat="42.2379470" lon="-8.6940620">
        <ele>136.4</ele>
        <time>2021-05-20T12:34:46Z</time>
      </trkpt>
      <trkpt lat="42.2379470" lon="-8.6940650">
        <ele>136.4</ele>
        <time>2021-05-20T12:34:47Z</time>
      </trkpt>
      <trkpt lat="42.2379470" lon="-8.6940650">
        <ele>136.4</ele>
        <time>2021-05-20T12:34:48Z</time>
      </trkpt>
      <trkpt lat="42.2379390" lon="-8.6941040">
        <ele>136.5</ele>
        <time>2021-05-20T12:34:49Z</time>
      </trkpt>
      <trkpt lat="42.2379400" lon="-8.6941110">
        <ele>136.6</ele>
        <time>2021-05-20T12:34:50Z</time>
      </trkpt>
      <trkpt lat="42.2379420" lon="-8.6941060">
        <ele>136.6</ele>
        <time>2021-05-20T12:34:51Z</time>
      </trkpt>
      <trkpt lat="42.2379440" lon="-8.6941010">
        <ele>136.6</ele>
        <time>2021-05-20T12:34:53Z</time>
      </trkpt>
      <trkpt lat="42.2379430" lon="-8.6940970">
        <ele>136.6</ele>
        <time>2021-05-20T12:34:54Z</time>
      </trkpt>
      <trkpt lat="42.2379430" lon="-8.6940980">
        <ele>136.6</ele>
        <time>2021-05-20T12:34:55Z</time>
      </trkpt>
      <trkpt lat="42.2379450" lon="-8.6940960">
        <ele>136.6</ele>
        <time>2021-05-20T12:34:56Z</time>
      </trkpt>
      <trkpt lat="42.2379450" lon="-8.6940960">
        <ele>136.6</ele>
        <time>2021-05-20T12:34:57Z</time>
      </trkpt>
      <trkpt lat="42.2379450" lon="-8.6940900">
        <ele>136.7</ele>
        <time>2021-05-20T12:34:58Z</time>
      </trkpt>
      <trkpt lat="42.2379440" lon="-8.6941010">
        <ele>136.7</ele>
        <time>2021-05-20T12:34:59Z</time>
      </trkpt>
      <trkpt lat="42.2379490" lon="-8.6940920">
        <ele>136.7</ele>
        <time>2021-05-20T12:35:00Z</time>
      </trkpt>
      <trkpt lat="42.2379530" lon="-8.6940810">
        <ele>136.8</ele>
        <time>2021-05-20T12:35:01Z</time>
      </trkpt>
      <trkpt lat="42.2379530" lon="-8.6940640">
        <ele>136.8</ele>
        <time>2021-05-20T12:35:02Z</time>
      </trkpt>
      <trkpt lat="42.2379530" lon="-8.6940500">
        <ele>136.9</ele>
        <time>2021-05-20T12:35:03Z</time>
      </trkpt>
      <trkpt lat="42.2379530" lon="-8.6940500">
        <ele>136.9</ele>
        <time>2021-05-20T12:35:04Z</time>
      </trkpt>
      <trkpt lat="42.2379610" lon="-8.6940600">
        <ele>136.9</ele>
        <time>2021-05-20T12:35:05Z</time>
      </trkpt>
      <trkpt lat="42.2379610" lon="-8.6940540">
        <ele>136.9</ele>
        <time>2021-05-20T12:35:06Z</time>
      </trkpt>
      <trkpt lat="42.2379610" lon="-8.6940450">
        <ele>137.0</ele>
        <time>2021-05-20T12:35:07Z</time>
      </trkpt>
      <trkpt lat="42.2379610" lon="-8.6940510">
        <ele>137.0</ele>
        <time>2021-05-20T12:35:08Z</time>
      </trkpt>
      <trkpt lat="42.2379630" lon="-8.6940570">
        <ele>137.0</ele>
        <time>2021-05-20T12:35:09Z</time>
      </trkpt>
      <trkpt lat="42.2379620" lon="-8.6940610">
        <ele>137.0</ele>
        <time>2021-05-20T12:35:10Z</time>
      </trkpt>
      <trkpt lat="42.2379620" lon="-8.6940610">
        <ele>137.0</ele>
        <time>2021-05-20T12:35:11Z</time>
      </trkpt>
      <trkpt lat="42.2379620" lon="-8.6940610">
        <ele>137.0</ele>
        <time>2021-05-20T12:35:12Z</time>
      </trkpt>
      <trkpt lat="42.2379770" lon="-8.6940610">
        <ele>137.1</ele>
        <time>2021-05-20T12:35:13Z</time>
      </trkpt>
      <trkpt lat="42.2379680" lon="-8.6940690">
        <ele>137.1</ele>
        <time>2021-05-20T12:35:14Z</time>
      </trkpt>
      <trkpt lat="42.2379670" lon="-8.6940690">
        <ele>137.1</ele>
        <time>2021-05-20T12:35:15Z</time>
      </trkpt>
      <trkpt lat="42.2379600" lon="-8.6940660">
        <ele>137.1</ele>
        <time>2021-05-20T12:35:16Z</time>
      </trkpt>
      <trkpt lat="42.2379630" lon="-8.6940700">
        <ele>137.2</ele>
        <time>2021-05-20T12:35:17Z</time>
      </trkpt>
      <trkpt lat="42.2379610" lon="-8.6940700">
        <ele>137.2</ele>
        <time>2021-05-20T12:35:18Z</time>
      </trkpt>
      <trkpt lat="42.2379580" lon="-8.6940700">
        <ele>137.2</ele>
        <time>2021-05-20T12:35:19Z</time>
      </trkpt>
      <trkpt lat="42.2379570" lon="-8.6940630">
        <ele>137.2</ele>
        <time>2021-05-20T12:35:20Z</time>
      </trkpt>
      <trkpt lat="42.2379600" lon="-8.6940760">
        <ele>137.3</ele>
        <time>2021-05-20T12:35:21Z</time>
      </trkpt>
      <trkpt lat="42.2379580" lon="-8.6940780">
        <ele>137.3</ele>
        <time>2021-05-20T12:35:22Z</time>
      </trkpt>
      <trkpt lat="42.2379560" lon="-8.6940790">
        <ele>137.3</ele>
        <time>2021-05-20T12:35:23Z</time>
      </trkpt>
      <trkpt lat="42.2379570" lon="-8.6940810">
        <ele>137.3</ele>
        <time>2021-05-20T12:35:24Z</time>
      </trkpt>
      <trkpt lat="42.2379550" lon="-8.6940900">
        <ele>137.3</ele>
        <time>2021-05-20T12:35:25Z</time>
      </trkpt>
      <trkpt lat="42.2379540" lon="-8.6940810">
        <ele>137.3</ele>
        <time>2021-05-20T12:35:26Z</time>
      </trkpt>
      <trkpt lat="42.2379540" lon="-8.6940830">
        <ele>137.3</ele>
        <time>2021-05-20T12:35:27Z</time>
      </trkpt>
      <trkpt lat="42.2379630" lon="-8.6940860">
        <ele>137.4</ele>
        <time>2021-05-20T12:35:28Z</time>
      </trkpt>
      <trkpt lat="42.2379680" lon="-8.6940780">
        <ele>137.4</ele>
        <time>2021-05-20T12:35:29Z</time>
      </trkpt>
      <trkpt lat="42.2379520" lon="-8.6940680">
        <ele>137.5</ele>
        <time>2021-05-20T12:35:30Z</time>
      </trkpt>
      <trkpt lat="42.2379530" lon="-8.6940550">
        <ele>137.5</ele>
        <time>2021-05-20T12:35:31Z</time>
      </trkpt>
      <trkpt lat="42.2379660" lon="-8.6940420">
        <ele>137.6</ele>
        <time>2021-05-20T12:35:32Z</time>
      </trkpt>
      <trkpt lat="42.2379660" lon="-8.6940370">
        <ele>137.6</ele>
        <time>2021-05-20T12:35:33Z</time>
      </trkpt>
      <trkpt lat="42.2379720" lon="-8.6940370">
        <ele>137.6</ele>
        <time>2021-05-20T12:35:34Z</time>
      </trkpt>
      <trkpt lat="42.2379770" lon="-8.6940430">
        <ele>137.7</ele>
        <time>2021-05-20T12:35:35Z</time>
      </trkpt>
      <trkpt lat="42.2379830" lon="-8.6940400">
        <ele>137.7</ele>
        <time>2021-05-20T12:35:36Z</time>
      </trkpt>
      <trkpt lat="42.2379940" lon="-8.6940380">
        <ele>137.7</ele>
        <time>2021-05-20T12:35:37Z</time>
      </trkpt>
      <trkpt lat="42.2379970" lon="-8.6940290">
        <ele>137.8</ele>
        <time>2021-05-20T12:35:38Z</time>
      </trkpt>
      <trkpt lat="42.2380050" lon="-8.6940270">
        <ele>137.8</ele>
        <time>2021-05-20T12:35:39Z</time>
      </trkpt>
      <trkpt lat="42.2380150" lon="-8.6940280">
        <ele>137.8</ele>
        <time>2021-05-20T12:35:40Z</time>
      </trkpt>
      <trkpt lat="42.2380210" lon="-8.6940190">
        <ele>137.9</ele>
        <time>2021-05-20T12:35:41Z</time>
      </trkpt>
      <trkpt lat="42.2380280" lon="-8.6940170">
        <ele>137.9</ele>
        <time>2021-05-20T12:35:42Z</time>
      </trkpt>
      <trkpt lat="42.2380280" lon="-8.6940110">
        <ele>137.9</ele>
        <time>2021-05-20T12:35:43Z</time>
      </trkpt>
      <trkpt lat="42.2380270" lon="-8.6940080">
        <ele>137.9</ele>
        <time>2021-05-20T12:35:44Z</time>
      </trkpt>
      <trkpt lat="42.2380330" lon="-8.6939910">
        <ele>138.0</ele>
        <time>2021-05-20T12:35:45Z</time>
      </trkpt>
      <trkpt lat="42.2380370" lon="-8.6939910">
        <ele>138.0</ele>
        <time>2021-05-20T12:35:46Z</time>
      </trkpt>
      <trkpt lat="42.2380450" lon="-8.6939920">
        <ele>138.1</ele>
        <time>2021-05-20T12:35:47Z</time>
      </trkpt>
      <trkpt lat="42.2380660" lon="-8.6939900">
        <ele>138.1</ele>
        <time>2021-05-20T12:35:48Z</time>
      </trkpt>
      <trkpt lat="42.2380760" lon="-8.6939880">
        <ele>138.2</ele>
        <time>2021-05-20T12:35:49Z</time>
      </trkpt>
      <trkpt lat="42.2380850" lon="-8.6939870">
        <ele>138.2</ele>
        <time>2021-05-20T12:35:50Z</time>
      </trkpt>
      <trkpt lat="42.2380950" lon="-8.6939870">
        <ele>138.3</ele>
        <time>2021-05-20T12:35:51Z</time>
      </trkpt>
      <trkpt lat="42.2381020" lon="-8.6939870">
        <ele>138.3</ele>
        <time>2021-05-20T12:35:52Z</time>
      </trkpt>
      <trkpt lat="42.2381090" lon="-8.6939830">
        <ele>138.3</ele>
        <time>2021-05-20T12:35:53Z</time>
      </trkpt>
      <trkpt lat="42.2380990" lon="-8.6939880">
        <ele>138.4</ele>
        <time>2021-05-20T12:35:54Z</time>
      </trkpt>
      <trkpt lat="42.2380990" lon="-8.6939890">
        <ele>138.4</ele>
        <time>2021-05-20T12:35:55Z</time>
      </trkpt>
      <trkpt lat="42.2380950" lon="-8.6939900">
        <ele>138.4</ele>
        <time>2021-05-20T12:35:56Z</time>
      </trkpt>
      <trkpt lat="42.2380970" lon="-8.6939880">
        <ele>138.4</ele>
        <time>2021-05-20T12:35:57Z</time>
      </trkpt>
      <trkpt lat="42.2380960" lon="-8.6939870">
        <ele>138.4</ele>
        <time>2021-05-20T12:35:58Z</time>
      </trkpt>
      <trkpt lat="42.2380970" lon="-8.6939910">
        <ele>138.4</ele>
        <time>2021-05-20T12:35:59Z</time>
      </trkpt>
      <trkpt lat="42.2380930" lon="-8.6939940">
        <ele>138.4</ele>
        <time>2021-05-20T12:36:00Z</time>
      </trkpt>
      <trkpt lat="42.2381000" lon="-8.6939930">
        <ele>138.5</ele>
        <time>2021-05-20T12:36:01Z</time>
      </trkpt>
      <trkpt lat="42.2381050" lon="-8.6939930">
        <ele>138.5</ele>
        <time>2021-05-20T12:36:02Z</time>
      </trkpt>
      <trkpt lat="42.2381150" lon="-8.6939890">
        <ele>138.5</ele>
        <time>2021-05-20T12:36:03Z</time>
      </trkpt>
      <trkpt lat="42.2381260" lon="-8.6939770">
        <ele>138.6</ele>
        <time>2021-05-20T12:36:04Z</time>
      </trkpt>
      <trkpt lat="42.2381350" lon="-8.6939690">
        <ele>138.6</ele>
        <time>2021-05-20T12:36:05Z</time>
      </trkpt>
      <trkpt lat="42.2381370" lon="-8.6939720">
        <ele>138.6</ele>
        <time>2021-05-20T12:36:06Z</time>
      </trkpt>
      <trkpt lat="42.2381320" lon="-8.6939850">
        <ele>138.7</ele>
        <time>2021-05-20T12:36:07Z</time>
      </trkpt>
      <trkpt lat="42.2381310" lon="-8.6939870">
        <ele>138.7</ele>
        <time>2021-05-20T12:36:08Z</time>
      </trkpt>
      <trkpt lat="42.2381260" lon="-8.6939960">
        <ele>138.7</ele>
        <time>2021-05-20T12:36:09Z</time>
      </trkpt>
      <trkpt lat="42.2381170" lon="-8.6939970">
        <ele>138.7</ele>
        <time>2021-05-20T12:36:10Z</time>
      </trkpt>
      <trkpt lat="42.2381200" lon="-8.6940130">
        <ele>138.8</ele>
        <time>2021-05-20T12:36:11Z</time>
      </trkpt>
      <trkpt lat="42.2381230" lon="-8.6940170">
        <ele>138.8</ele>
        <time>2021-05-20T12:36:12Z</time>
      </trkpt>
      <trkpt lat="42.2381280" lon="-8.6940100">
        <ele>138.8</ele>
        <time>2021-05-20T12:36:13Z</time>
      </trkpt>
      <trkpt lat="42.2381310" lon="-8.6940000">
        <ele>138.9</ele>
        <time>2021-05-20T12:36:14Z</time>
      </trkpt>
      <trkpt lat="42.2381460" lon="-8.6939870">
        <ele>138.9</ele>
        <time>2021-05-20T12:36:15Z</time>
      </trkpt>
      <trkpt lat="42.2381640" lon="-8.6939770">
        <ele>139.0</ele>
        <time>2021-05-20T12:36:16Z</time>
      </trkpt>
      <trkpt lat="42.2381720" lon="-8.6939690">
        <ele>139.0</ele>
        <time>2021-05-20T12:36:17Z</time>
      </trkpt>
      <trkpt lat="42.2381810" lon="-8.6939610">
        <ele>139.1</ele>
        <time>2021-05-20T12:36:18Z</time>
      </trkpt>
      <trkpt lat="42.2381870" lon="-8.6939550">
        <ele>139.1</ele>
        <time>2021-05-20T12:36:19Z</time>
      </trkpt>
      <trkpt lat="42.2382010" lon="-8.6939510">
        <ele>139.1</ele>
        <time>2021-05-20T12:36:20Z</time>
      </trkpt>
      <trkpt lat="42.2382040" lon="-8.6939450">
        <ele>139.2</ele>
        <time>2021-05-20T12:36:21Z</time>
      </trkpt>
      <trkpt lat="42.2382110" lon="-8.6939430">
        <ele>139.2</ele>
        <time>2021-05-20T12:36:22Z</time>
      </trkpt>
      <trkpt lat="42.2382300" lon="-8.6939350">
        <ele>139.3</ele>
        <time>2021-05-20T12:36:23Z</time>
      </trkpt>
      <trkpt lat="42.2382400" lon="-8.6939300">
        <ele>139.3</ele>
        <time>2021-05-20T12:36:24Z</time>
      </trkpt>
      <trkpt lat="42.2382490" lon="-8.6939260">
        <ele>139.3</ele>
        <time>2021-05-20T12:36:25Z</time>
      </trkpt>
      <trkpt lat="42.2382580" lon="-8.6939210">
        <ele>139.4</ele>
        <time>2021-05-20T12:36:26Z</time>
      </trkpt>
      <trkpt lat="42.2382580" lon="-8.6939200">
        <ele>139.4</ele>
        <time>2021-05-20T12:36:27Z</time>
      </trkpt>
      <trkpt lat="42.2382710" lon="-8.6939090">
        <ele>139.4</ele>
        <time>2021-05-20T12:36:28Z</time>
      </trkpt>
      <trkpt lat="42.2382800" lon="-8.6939050">
        <ele>139.4</ele>
        <time>2021-05-20T12:36:29Z</time>
      </trkpt>
      <trkpt lat="42.2382850" lon="-8.6939010">
        <ele>139.4</ele>
        <time>2021-05-20T12:36:30Z</time>
      </trkpt>
      <trkpt lat="42.2382990" lon="-8.6938940">
        <ele>139.5</ele>
        <time>2021-05-20T12:36:31Z</time>
      </trkpt>
      <trkpt lat="42.2383140" lon="-8.6938920">
        <ele>139.5</ele>
        <time>2021-05-20T12:36:32Z</time>
      </trkpt>
      <trkpt lat="42.2383300" lon="-8.6938890">
        <ele>139.6</ele>
        <time>2021-05-20T12:36:33Z</time>
      </trkpt>
      <trkpt lat="42.2383410" lon="-8.6938870">
        <ele>139.6</ele>
        <time>2021-05-20T12:36:34Z</time>
      </trkpt>
      <trkpt lat="42.2383590" lon="-8.6938720">
        <ele>139.6</ele>
        <time>2021-05-20T12:36:35Z</time>
      </trkpt>
      <trkpt lat="42.2383690" lon="-8.6938680">
        <ele>139.7</ele>
        <time>2021-05-20T12:36:36Z</time>
      </trkpt>
      <trkpt lat="42.2383790" lon="-8.6938630">
        <ele>139.7</ele>
        <time>2021-05-20T12:36:37Z</time>
      </trkpt>
      <trkpt lat="42.2383940" lon="-8.6938570">
        <ele>139.7</ele>
        <time>2021-05-20T12:36:38Z</time>
      </trkpt>
      <trkpt lat="42.2384030" lon="-8.6938500">
        <ele>139.7</ele>
        <time>2021-05-20T12:36:39Z</time>
      </trkpt>
      <trkpt lat="42.2384110" lon="-8.6938470">
        <ele>139.8</ele>
        <time>2021-05-20T12:36:40Z</time>
      </trkpt>
      <trkpt lat="42.2384200" lon="-8.6938350">
        <ele>139.8</ele>
        <time>2021-05-20T12:36:41Z</time>
      </trkpt>
      <trkpt lat="42.2384300" lon="-8.6938360">
        <ele>139.8</ele>
        <time>2021-05-20T12:36:42Z</time>
      </trkpt>
      <trkpt lat="42.2384420" lon="-8.6938370">
        <ele>139.8</ele>
        <time>2021-05-20T12:36:43Z</time>
      </trkpt>
      <trkpt lat="42.2384600" lon="-8.6938320">
        <ele>139.8</ele>
        <time>2021-05-20T12:36:44Z</time>
      </trkpt>
      <trkpt lat="42.2384660" lon="-8.6938290">
        <ele>139.9</ele>
        <time>2021-05-20T12:36:45Z</time>
      </trkpt>
      <trkpt lat="42.2384730" lon="-8.6938250">
        <ele>139.9</ele>
        <time>2021-05-20T12:36:46Z</time>
      </trkpt>
      <trkpt lat="42.2384790" lon="-8.6938220">
        <ele>139.9</ele>
        <time>2021-05-20T12:36:47Z</time>
      </trkpt>
      <trkpt lat="42.2385070" lon="-8.6938080">
        <ele>139.9</ele>
        <time>2021-05-20T12:36:48Z</time>
      </trkpt>
      <trkpt lat="42.2385140" lon="-8.6938050">
        <ele>139.9</ele>
        <time>2021-05-20T12:36:49Z</time>
      </trkpt>
      <trkpt lat="42.2385220" lon="-8.6938020">
        <ele>139.9</ele>
        <time>2021-05-20T12:36:50Z</time>
      </trkpt>
      <trkpt lat="42.2385220" lon="-8.6937980">
        <ele>139.9</ele>
        <time>2021-05-20T12:36:51Z</time>
      </trkpt>
      <trkpt lat="42.2385340" lon="-8.6937960">
        <ele>139.9</ele>
        <time>2021-05-20T12:36:52Z</time>
      </trkpt>
      <trkpt lat="42.2385460" lon="-8.6937850">
        <ele>139.9</ele>
        <time>2021-05-20T12:36:53Z</time>
      </trkpt>
      <trkpt lat="42.2385660" lon="-8.6937710">
        <ele>140.0</ele>
        <time>2021-05-20T12:36:54Z</time>
      </trkpt>
      <trkpt lat="42.2385770" lon="-8.6937650">
        <ele>140.0</ele>
        <time>2021-05-20T12:36:55Z</time>
      </trkpt>
      <trkpt lat="42.2385990" lon="-8.6937570">
        <ele>140.0</ele>
        <time>2021-05-20T12:36:56Z</time>
      </trkpt>
      <trkpt lat="42.2386060" lon="-8.6937520">
        <ele>140.0</ele>
        <time>2021-05-20T12:36:57Z</time>
      </trkpt>
      <trkpt lat="42.2386120" lon="-8.6937470">
        <ele>140.0</ele>
        <time>2021-05-20T12:36:58Z</time>
      </trkpt>
      <trkpt lat="42.2386240" lon="-8.6937430">
        <ele>140.0</ele>
        <time>2021-05-20T12:36:59Z</time>
      </trkpt>
      <trkpt lat="42.2386370" lon="-8.6937370">
        <ele>140.0</ele>
        <time>2021-05-20T12:37:00Z</time>
      </trkpt>
      <trkpt lat="42.2386420" lon="-8.6937320">
        <ele>139.9</ele>
        <time>2021-05-20T12:37:01Z</time>
      </trkpt>
      <trkpt lat="42.2386440" lon="-8.6937250">
        <ele>139.9</ele>
        <time>2021-05-20T12:37:02Z</time>
      </trkpt>
      <trkpt lat="42.2386570" lon="-8.6937220">
        <ele>139.9</ele>
        <time>2021-05-20T12:37:03Z</time>
      </trkpt>
      <trkpt lat="42.2386650" lon="-8.6937160">
        <ele>139.9</ele>
        <time>2021-05-20T12:37:04Z</time>
      </trkpt>
      <trkpt lat="42.2386750" lon="-8.6937140">
        <ele>139.9</ele>
        <time>2021-05-20T12:37:05Z</time>
      </trkpt>
      <trkpt lat="42.2386740" lon="-8.6937220">
        <ele>139.9</ele>
        <time>2021-05-20T12:37:06Z</time>
      </trkpt>
      <trkpt lat="42.2386790" lon="-8.6937160">
        <ele>139.9</ele>
        <time>2021-05-20T12:37:07Z</time>
      </trkpt>
      <trkpt lat="42.2387050" lon="-8.6937030">
        <ele>139.9</ele>
        <time>2021-05-20T12:37:08Z</time>
      </trkpt>
      <trkpt lat="42.2387240" lon="-8.6936970">
        <ele>139.9</ele>
        <time>2021-05-20T12:37:09Z</time>
      </trkpt>
      <trkpt lat="42.2387330" lon="-8.6936940">
        <ele>139.9</ele>
        <time>2021-05-20T12:37:10Z</time>
      </trkpt>
      <trkpt lat="42.2387410" lon="-8.6936910">
        <ele>139.9</ele>
        <time>2021-05-20T12:37:11Z</time>
      </trkpt>
      <trkpt lat="42.2387450" lon="-8.6936840">
        <ele>139.8</ele>
        <time>2021-05-20T12:37:12Z</time>
      </trkpt>
      <trkpt lat="42.2387570" lon="-8.6936760">
        <ele>139.8</ele>
        <time>2021-05-20T12:37:13Z</time>
      </trkpt>
      <trkpt lat="42.2387710" lon="-8.6936690">
        <ele>139.8</ele>
        <time>2021-05-20T12:37:14Z</time>
      </trkpt>
      <trkpt lat="42.2387920" lon="-8.6936520">
        <ele>139.8</ele>
        <time>2021-05-20T12:37:15Z</time>
      </trkpt>
      <trkpt lat="42.2388010" lon="-8.6936470">
        <ele>139.7</ele>
        <time>2021-05-20T12:37:16Z</time>
      </trkpt>
      <trkpt lat="42.2388100" lon="-8.6936420">
        <ele>139.7</ele>
        <time>2021-05-20T12:37:17Z</time>
      </trkpt>
      <trkpt lat="42.2388310" lon="-8.6936330">
        <ele>139.7</ele>
        <time>2021-05-20T12:37:18Z</time>
      </trkpt>
      <trkpt lat="42.2388400" lon="-8.6936190">
        <ele>139.7</ele>
        <time>2021-05-20T12:37:19Z</time>
      </trkpt>
      <trkpt lat="42.2388440" lon="-8.6936110">
        <ele>139.6</ele>
        <time>2021-05-20T12:37:20Z</time>
      </trkpt>
      <trkpt lat="42.2388570" lon="-8.6935990">
        <ele>139.6</ele>
        <time>2021-05-20T12:37:21Z</time>
      </trkpt>
      <trkpt lat="42.2388620" lon="-8.6935890">
        <ele>139.6</ele>
        <time>2021-05-20T12:37:22Z</time>
      </trkpt>
      <trkpt lat="42.2388770" lon="-8.6935850">
        <ele>139.5</ele>
        <time>2021-05-20T12:37:23Z</time>
      </trkpt>
      <trkpt lat="42.2388840" lon="-8.6935810">
        <ele>139.5</ele>
        <time>2021-05-20T12:37:24Z</time>
      </trkpt>
      <trkpt lat="42.2388960" lon="-8.6935750">
        <ele>139.5</ele>
        <time>2021-05-20T12:37:25Z</time>
      </trkpt>
      <trkpt lat="42.2389050" lon="-8.6935690">
        <ele>139.5</ele>
        <time>2021-05-20T12:37:26Z</time>
      </trkpt>
      <trkpt lat="42.2389120" lon="-8.6935650">
        <ele>139.4</ele>
        <time>2021-05-20T12:37:27Z</time>
      </trkpt>
      <trkpt lat="42.2389200" lon="-8.6935580">
        <ele>139.4</ele>
        <time>2021-05-20T12:37:28Z</time>
      </trkpt>
      <trkpt lat="42.2389230" lon="-8.6935510">
        <ele>139.4</ele>
        <time>2021-05-20T12:37:29Z</time>
      </trkpt>
      <trkpt lat="42.2389340" lon="-8.6935400">
        <ele>139.3</ele>
        <time>2021-05-20T12:37:30Z</time>
      </trkpt>
      <trkpt lat="42.2389460" lon="-8.6935300">
        <ele>139.3</ele>
        <time>2021-05-20T12:37:31Z</time>
      </trkpt>
      <trkpt lat="42.2389530" lon="-8.6935270">
        <ele>139.2</ele>
        <time>2021-05-20T12:37:32Z</time>
      </trkpt>
      <trkpt lat="42.2389470" lon="-8.6935330">
        <ele>139.2</ele>
        <time>2021-05-20T12:37:33Z</time>
      </trkpt>
      <trkpt lat="42.2389530" lon="-8.6935250">
        <ele>139.2</ele>
        <time>2021-05-20T12:37:34Z</time>
      </trkpt>
      <trkpt lat="42.2389610" lon="-8.6935120">
        <ele>139.1</ele>
        <time>2021-05-20T12:37:35Z</time>
      </trkpt>
      <trkpt lat="42.2389700" lon="-8.6934970">
        <ele>139.1</ele>
        <time>2021-05-20T12:37:36Z</time>
      </trkpt>
      <trkpt lat="42.2389680" lon="-8.6934880">
        <ele>139.0</ele>
        <time>2021-05-20T12:37:37Z</time>
      </trkpt>
      <trkpt lat="42.2389780" lon="-8.6934710">
        <ele>139.0</ele>
        <time>2021-05-20T12:37:38Z</time>
      </trkpt>
      <trkpt lat="42.2389870" lon="-8.6934590">
        <ele>138.9</ele>
        <time>2021-05-20T12:37:39Z</time>
      </trkpt>
      <trkpt lat="42.2390030" lon="-8.6934490">
        <ele>138.8</ele>
        <time>2021-05-20T12:37:40Z</time>
      </trkpt>
      <trkpt lat="42.2390100" lon="-8.6934310">
        <ele>138.8</ele>
        <time>2021-05-20T12:37:41Z</time>
      </trkpt>
      <trkpt lat="42.2390150" lon="-8.6934210">
        <ele>138.7</ele>
        <time>2021-05-20T12:37:42Z</time>
      </trkpt>
      <trkpt lat="42.2390230" lon="-8.6934130">
        <ele>138.7</ele>
        <time>2021-05-20T12:37:43Z</time>
      </trkpt>
      <trkpt lat="42.2390290" lon="-8.6934000">
        <ele>138.6</ele>
        <time>2021-05-20T12:37:44Z</time>
      </trkpt>
      <trkpt lat="42.2390370" lon="-8.6933980">
        <ele>138.6</ele>
        <time>2021-05-20T12:37:45Z</time>
      </trkpt>
      <trkpt lat="42.2390360" lon="-8.6933880">
        <ele>138.6</ele>
        <time>2021-05-20T12:37:46Z</time>
      </trkpt>
      <trkpt lat="42.2390450" lon="-8.6933770">
        <ele>138.5</ele>
        <time>2021-05-20T12:37:47Z</time>
      </trkpt>
      <trkpt lat="42.2390560" lon="-8.6933740">
        <ele>138.5</ele>
        <time>2021-05-20T12:37:48Z</time>
      </trkpt>
      <trkpt lat="42.2390690" lon="-8.6933550">
        <ele>138.4</ele>
        <time>2021-05-20T12:37:49Z</time>
      </trkpt>
      <trkpt lat="42.2390770" lon="-8.6933450">
        <ele>138.4</ele>
        <time>2021-05-20T12:37:50Z</time>
      </trkpt>
      <trkpt lat="42.2390840" lon="-8.6933360">
        <ele>138.3</ele>
        <time>2021-05-20T12:37:51Z</time>
      </trkpt>
      <trkpt lat="42.2390980" lon="-8.6933330">
        <ele>138.3</ele>
        <time>2021-05-20T12:37:52Z</time>
      </trkpt>
      <trkpt lat="42.2391030" lon="-8.6933280">
        <ele>138.2</ele>
        <time>2021-05-20T12:37:53Z</time>
      </trkpt>
      <trkpt lat="42.2391080" lon="-8.6933230">
        <ele>138.2</ele>
        <time>2021-05-20T12:37:54Z</time>
      </trkpt>
      <trkpt lat="42.2391130" lon="-8.6933180">
        <ele>138.2</ele>
        <time>2021-05-20T12:37:55Z</time>
      </trkpt>
      <trkpt lat="42.2391180" lon="-8.6933130">
        <ele>138.1</ele>
        <time>2021-05-20T12:37:56Z</time>
      </trkpt>
      <trkpt lat="42.2391230" lon="-8.6933080">
        <ele>138.1</ele>
        <time>2021-05-20T12:37:57Z</time>
      </trkpt>
      <trkpt lat="42.2391360" lon="-8.6933070">
        <ele>138.1</ele>
        <time>2021-05-20T12:37:58Z</time>
      </trkpt>
      <trkpt lat="42.2391520" lon="-8.6933060">
        <ele>138.0</ele>
        <time>2021-05-20T12:37:59Z</time>
      </trkpt>
      <trkpt lat="42.2391850" lon="-8.6933180">
        <ele>137.8</ele>
        <time>2021-05-20T12:38:00Z</time>
      </trkpt>
      <trkpt lat="42.2391950" lon="-8.6933170">
        <ele>137.8</ele>
        <time>2021-05-20T12:38:01Z</time>
      </trkpt>
      <trkpt lat="42.2392100" lon="-8.6933150">
        <ele>137.7</ele>
        <time>2021-05-20T12:38:02Z</time>
      </trkpt>
      <trkpt lat="42.2392220" lon="-8.6933160">
        <ele>137.6</ele>
        <time>2021-05-20T12:38:03Z</time>
      </trkpt>
      <trkpt lat="42.2392260" lon="-8.6933200">
        <ele>137.6</ele>
        <time>2021-05-20T12:38:04Z</time>
      </trkpt>
      <trkpt lat="42.2392420" lon="-8.6933160">
        <ele>137.5</ele>
        <time>2021-05-20T12:38:05Z</time>
      </trkpt>
      <trkpt lat="42.2392570" lon="-8.6933060">
        <ele>137.4</ele>
        <time>2021-05-20T12:38:06Z</time>
      </trkpt>
      <trkpt lat="42.2392710" lon="-8.6933010">
        <ele>137.3</ele>
        <time>2021-05-20T12:38:07Z</time>
      </trkpt>
      <trkpt lat="42.2392800" lon="-8.6932850">
        <ele>137.3</ele>
        <time>2021-05-20T12:38:08Z</time>
      </trkpt>
      <trkpt lat="42.2392930" lon="-8.6932820">
        <ele>137.2</ele>
        <time>2021-05-20T12:38:09Z</time>
      </trkpt>
      <trkpt lat="42.2393040" lon="-8.6932670">
        <ele>137.1</ele>
        <time>2021-05-20T12:38:10Z</time>
      </trkpt>
      <trkpt lat="42.2393130" lon="-8.6932590">
        <ele>137.0</ele>
        <time>2021-05-20T12:38:11Z</time>
      </trkpt>
      <trkpt lat="42.2393140" lon="-8.6932480">
        <ele>137.0</ele>
        <time>2021-05-20T12:38:12Z</time>
      </trkpt>
      <trkpt lat="42.2393260" lon="-8.6932370">
        <ele>136.9</ele>
        <time>2021-05-20T12:38:13Z</time>
      </trkpt>
      <trkpt lat="42.2393620" lon="-8.6932350">
        <ele>136.7</ele>
        <time>2021-05-20T12:38:14Z</time>
      </trkpt>
      <trkpt lat="42.2393770" lon="-8.6932370">
        <ele>136.6</ele>
        <time>2021-05-20T12:38:15Z</time>
      </trkpt>
      <trkpt lat="42.2393830" lon="-8.6932430">
        <ele>136.5</ele>
        <time>2021-05-20T12:38:16Z</time>
      </trkpt>
      <trkpt lat="42.2393980" lon="-8.6932440">
        <ele>136.4</ele>
        <time>2021-05-20T12:38:17Z</time>
      </trkpt>
      <trkpt lat="42.2393990" lon="-8.6932460">
        <ele>136.4</ele>
        <time>2021-05-20T12:38:18Z</time>
      </trkpt>
      <trkpt lat="42.2394110" lon="-8.6932350">
        <ele>136.3</ele>
        <time>2021-05-20T12:38:19Z</time>
      </trkpt>
      <trkpt lat="42.2394210" lon="-8.6932350">
        <ele>136.3</ele>
        <time>2021-05-20T12:38:20Z</time>
      </trkpt>
      <trkpt lat="42.2394400" lon="-8.6932340">
        <ele>136.1</ele>
        <time>2021-05-20T12:38:21Z</time>
      </trkpt>
      <trkpt lat="42.2394570" lon="-8.6932210">
        <ele>136.0</ele>
        <time>2021-05-20T12:38:22Z</time>
      </trkpt>
      <trkpt lat="42.2394640" lon="-8.6932140">
        <ele>136.0</ele>
        <time>2021-05-20T12:38:23Z</time>
      </trkpt>
      <trkpt lat="42.2394720" lon="-8.6932080">
        <ele>135.9</ele>
        <time>2021-05-20T12:38:24Z</time>
      </trkpt>
      <trkpt lat="42.2394800" lon="-8.6932060">
        <ele>135.9</ele>
        <time>2021-05-20T12:38:25Z</time>
      </trkpt>
      <trkpt lat="42.2395010" lon="-8.6931920">
        <ele>135.7</ele>
        <time>2021-05-20T12:38:26Z</time>
      </trkpt>
      <trkpt lat="42.2395100" lon="-8.6931900">
        <ele>135.6</ele>
        <time>2021-05-20T12:38:27Z</time>
      </trkpt>
      <trkpt lat="42.2395250" lon="-8.6931850">
        <ele>135.5</ele>
        <time>2021-05-20T12:38:28Z</time>
      </trkpt>
      <trkpt lat="42.2395340" lon="-8.6931800">
        <ele>135.5</ele>
        <time>2021-05-20T12:38:29Z</time>
      </trkpt>
      <trkpt lat="42.2395600" lon="-8.6931670">
        <ele>135.3</ele>
        <time>2021-05-20T12:38:30Z</time>
      </trkpt>
      <trkpt lat="42.2395730" lon="-8.6931610">
        <ele>135.2</ele>
        <time>2021-05-20T12:38:31Z</time>
      </trkpt>
      <trkpt lat="42.2395880" lon="-8.6931620">
        <ele>135.1</ele>
        <time>2021-05-20T12:38:32Z</time>
      </trkpt>
      <trkpt lat="42.2395960" lon="-8.6931630">
        <ele>135.1</ele>
        <time>2021-05-20T12:38:33Z</time>
      </trkpt>
      <trkpt lat="42.2396040" lon="-8.6931630">
        <ele>135.0</ele>
        <time>2021-05-20T12:38:34Z</time>
      </trkpt>
      <trkpt lat="42.2396120" lon="-8.6931640">
        <ele>135.0</ele>
        <time>2021-05-20T12:38:35Z</time>
      </trkpt>
      <trkpt lat="42.2396220" lon="-8.6931650">
        <ele>134.9</ele>
        <time>2021-05-20T12:38:36Z</time>
      </trkpt>
      <trkpt lat="42.2396340" lon="-8.6931710">
        <ele>134.8</ele>
        <time>2021-05-20T12:38:37Z</time>
      </trkpt>
      <trkpt lat="42.2396450" lon="-8.6931700">
        <ele>134.8</ele>
        <time>2021-05-20T12:38:38Z</time>
      </trkpt>
      <trkpt lat="42.2396640" lon="-8.6931740">
        <ele>134.6</ele>
        <time>2021-05-20T12:38:39Z</time>
      </trkpt>
      <trkpt lat="42.2396800" lon="-8.6931760">
        <ele>134.5</ele>
        <time>2021-05-20T12:38:40Z</time>
      </trkpt>
      <trkpt lat="42.2396990" lon="-8.6931860">
        <ele>134.4</ele>
        <time>2021-05-20T12:38:41Z</time>
      </trkpt>
      <trkpt lat="42.2397070" lon="-8.6931880">
        <ele>134.4</ele>
        <time>2021-05-20T12:38:42Z</time>
      </trkpt>
      <trkpt lat="42.2397160" lon="-8.6931900">
        <ele>134.2</ele>
        <time>2021-05-20T12:38:43Z</time>
      </trkpt>
      <trkpt lat="42.2397350" lon="-8.6931900">
        <ele>134.2</ele>
        <time>2021-05-20T12:38:44Z</time>
      </trkpt>
      <trkpt lat="42.2397450" lon="-8.6931850">
        <ele>134.1</ele>
        <time>2021-05-20T12:38:45Z</time>
      </trkpt>
      <trkpt lat="42.2397560" lon="-8.6931800">
        <ele>134.1</ele>
        <time>2021-05-20T12:38:46Z</time>
      </trkpt>
      <trkpt lat="42.2397590" lon="-8.6931850">
        <ele>134.1</ele>
        <time>2021-05-20T12:38:47Z</time>
      </trkpt>
      <trkpt lat="42.2397730" lon="-8.6931780">
        <ele>134.0</ele>
        <time>2021-05-20T12:38:48Z</time>
      </trkpt>
      <trkpt lat="42.2397910" lon="-8.6931780">
        <ele>133.9</ele>
        <time>2021-05-20T12:38:49Z</time>
      </trkpt>
      <trkpt lat="42.2398080" lon="-8.6931830">
        <ele>133.9</ele>
        <time>2021-05-20T12:38:50Z</time>
      </trkpt>
      <trkpt lat="42.2398170" lon="-8.6931880">
        <ele>133.8</ele>
        <time>2021-05-20T12:38:51Z</time>
      </trkpt>
      <trkpt lat="42.2398250" lon="-8.6931930">
        <ele>133.8</ele>
        <time>2021-05-20T12:38:52Z</time>
      </trkpt>
      <trkpt lat="42.2398430" lon="-8.6931990">
        <ele>133.7</ele>
        <time>2021-05-20T12:38:53Z</time>
      </trkpt>
      <trkpt lat="42.2398520" lon="-8.6932030">
        <ele>133.7</ele>
        <time>2021-05-20T12:38:54Z</time>
      </trkpt>
      <trkpt lat="42.2398680" lon="-8.6932080">
        <ele>133.6</ele>
        <time>2021-05-20T12:38:55Z</time>
      </trkpt>
      <trkpt lat="42.2398780" lon="-8.6932110">
        <ele>133.6</ele>
        <time>2021-05-20T12:38:56Z</time>
      </trkpt>
      <trkpt lat="42.2398870" lon="-8.6932170">
        <ele>133.5</ele>
        <time>2021-05-20T12:38:57Z</time>
      </trkpt>
      <trkpt lat="42.2399110" lon="-8.6932180">
        <ele>133.4</ele>
        <time>2021-05-20T12:38:58Z</time>
      </trkpt>
      <trkpt lat="42.2399170" lon="-8.6932240">
        <ele>133.4</ele>
        <time>2021-05-20T12:38:59Z</time>
      </trkpt>
      <trkpt lat="42.2399230" lon="-8.6932290">
        <ele>133.4</ele>
        <time>2021-05-20T12:39:00Z</time>
      </trkpt>
      <trkpt lat="42.2399320" lon="-8.6932300">
        <ele>133.3</ele>
        <time>2021-05-20T12:39:01Z</time>
      </trkpt>
      <trkpt lat="42.2399450" lon="-8.6932330">
        <ele>133.3</ele>
        <time>2021-05-20T12:39:02Z</time>
      </trkpt>
      <trkpt lat="42.2399520" lon="-8.6932320">
        <ele>133.3</ele>
        <time>2021-05-20T12:39:03Z</time>
      </trkpt>
      <trkpt lat="42.2399670" lon="-8.6932500">
        <ele>133.2</ele>
        <time>2021-05-20T12:39:04Z</time>
      </trkpt>
      <trkpt lat="42.2399790" lon="-8.6932520">
        <ele>133.1</ele>
        <time>2021-05-20T12:39:05Z</time>
      </trkpt>
      <trkpt lat="42.2399900" lon="-8.6932540">
        <ele>133.1</ele>
        <time>2021-05-20T12:39:06Z</time>
      </trkpt>
      <trkpt lat="42.2400030" lon="-8.6932530">
        <ele>133.1</ele>
        <time>2021-05-20T12:39:07Z</time>
      </trkpt>
      <trkpt lat="42.2400060" lon="-8.6932530">
        <ele>133.0</ele>
        <time>2021-05-20T12:39:08Z</time>
      </trkpt>
      <trkpt lat="42.2400180" lon="-8.6932590">
        <ele>133.0</ele>
        <time>2021-05-20T12:39:09Z</time>
      </trkpt>
      <trkpt lat="42.2400370" lon="-8.6932690">
        <ele>132.9</ele>
        <time>2021-05-20T12:39:10Z</time>
      </trkpt>
      <trkpt lat="42.2400440" lon="-8.6932740">
        <ele>132.9</ele>
        <time>2021-05-20T12:39:11Z</time>
      </trkpt>
      <trkpt lat="42.2400520" lon="-8.6932790">
        <ele>132.9</ele>
        <time>2021-05-20T12:39:12Z</time>
      </trkpt>
      <trkpt lat="42.2400750" lon="-8.6932890">
        <ele>132.8</ele>
        <time>2021-05-20T12:39:13Z</time>
      </trkpt>
      <trkpt lat="42.2400860" lon="-8.6932940">
        <ele>132.7</ele>
        <time>2021-05-20T12:39:14Z</time>
      </trkpt>
      <trkpt lat="42.2400960" lon="-8.6932990">
        <ele>132.7</ele>
        <time>2021-05-20T12:39:15Z</time>
      </trkpt>
      <trkpt lat="42.2401070" lon="-8.6933020">
        <ele>132.7</ele>
        <time>2021-05-20T12:39:16Z</time>
      </trkpt>
      <trkpt lat="42.2401200" lon="-8.6933030">
        <ele>132.6</ele>
        <time>2021-05-20T12:39:17Z</time>
      </trkpt>
      <trkpt lat="42.2401260" lon="-8.6933070">
        <ele>132.6</ele>
        <time>2021-05-20T12:39:18Z</time>
      </trkpt>
      <trkpt lat="42.2401380" lon="-8.6933180">
        <ele>132.5</ele>
        <time>2021-05-20T12:39:19Z</time>
      </trkpt>
      <trkpt lat="42.2401510" lon="-8.6933190">
        <ele>132.5</ele>
        <time>2021-05-20T12:39:20Z</time>
      </trkpt>
      <trkpt lat="42.2401550" lon="-8.6933180">
        <ele>132.5</ele>
        <time>2021-05-20T12:39:21Z</time>
      </trkpt>
      <trkpt lat="42.2401840" lon="-8.6933270">
        <ele>132.4</ele>
        <time>2021-05-20T12:39:22Z</time>
      </trkpt>
      <trkpt lat="42.2401920" lon="-8.6933290">
        <ele>132.4</ele>
        <time>2021-05-20T12:39:23Z</time>
      </trkpt>
      <trkpt lat="42.2402040" lon="-8.6933360">
        <ele>132.3</ele>
        <time>2021-05-20T12:39:24Z</time>
      </trkpt>
      <trkpt lat="42.2402190" lon="-8.6933410">
        <ele>132.3</ele>
        <time>2021-05-20T12:39:25Z</time>
      </trkpt>
      <trkpt lat="42.2402280" lon="-8.6933520">
        <ele>132.2</ele>
        <time>2021-05-20T12:39:26Z</time>
      </trkpt>
      <trkpt lat="42.2402410" lon="-8.6933530">
        <ele>132.2</ele>
        <time>2021-05-20T12:39:27Z</time>
      </trkpt>
      <trkpt lat="42.2402530" lon="-8.6933490">
        <ele>132.2</ele>
        <time>2021-05-20T12:39:28Z</time>
      </trkpt>
      <trkpt lat="42.2402690" lon="-8.6933710">
        <ele>132.1</ele>
        <time>2021-05-20T12:39:29Z</time>
      </trkpt>
      <trkpt lat="42.2402770" lon="-8.6933750">
        <ele>132.1</ele>
        <time>2021-05-20T12:39:30Z</time>
      </trkpt>
      <trkpt lat="42.2402850" lon="-8.6933780">
        <ele>132.0</ele>
        <time>2021-05-20T12:39:31Z</time>
      </trkpt>
      <trkpt lat="42.2402990" lon="-8.6933860">
        <ele>132.0</ele>
        <time>2021-05-20T12:39:32Z</time>
      </trkpt>
      <trkpt lat="42.2403050" lon="-8.6933810">
        <ele>132.0</ele>
        <time>2021-05-20T12:39:33Z</time>
      </trkpt>
      <trkpt lat="42.2403120" lon="-8.6933860">
        <ele>132.0</ele>
        <time>2021-05-20T12:39:34Z</time>
      </trkpt>
      <trkpt lat="42.2403370" lon="-8.6933960">
        <ele>131.9</ele>
        <time>2021-05-20T12:39:35Z</time>
      </trkpt>
      <trkpt lat="42.2403470" lon="-8.6934010">
        <ele>131.9</ele>
        <time>2021-05-20T12:39:36Z</time>
      </trkpt>
      <trkpt lat="42.2403590" lon="-8.6934140">
        <ele>131.8</ele>
        <time>2021-05-20T12:39:37Z</time>
      </trkpt>
      <trkpt lat="42.2403690" lon="-8.6934200">
        <ele>131.8</ele>
        <time>2021-05-20T12:39:38Z</time>
      </trkpt>
      <trkpt lat="42.2403780" lon="-8.6934150">
        <ele>131.8</ele>
        <time>2021-05-20T12:39:39Z</time>
      </trkpt>
      <trkpt lat="42.2403810" lon="-8.6934130">
        <ele>131.8</ele>
        <time>2021-05-20T12:39:40Z</time>
      </trkpt>
      <trkpt lat="42.2403940" lon="-8.6934080">
        <ele>131.7</ele>
        <time>2021-05-20T12:39:41Z</time>
      </trkpt>
      <trkpt lat="42.2404060" lon="-8.6934100">
        <ele>131.7</ele>
        <time>2021-05-20T12:39:42Z</time>
      </trkpt>
      <trkpt lat="42.2404180" lon="-8.6934150">
        <ele>131.7</ele>
        <time>2021-05-20T12:39:43Z</time>
      </trkpt>
      <trkpt lat="42.2404310" lon="-8.6934140">
        <ele>131.6</ele>
        <time>2021-05-20T12:39:44Z</time>
      </trkpt>
      <trkpt lat="42.2404420" lon="-8.6934170">
        <ele>131.6</ele>
        <time>2021-05-20T12:39:45Z</time>
      </trkpt>
      <trkpt lat="42.2404530" lon="-8.6934180">
        <ele>131.6</ele>
        <time>2021-05-20T12:39:46Z</time>
      </trkpt>
      <trkpt lat="42.2404640" lon="-8.6934150">
        <ele>131.6</ele>
        <time>2021-05-20T12:39:47Z</time>
      </trkpt>
      <trkpt lat="42.2404720" lon="-8.6934090">
        <ele>131.5</ele>
        <time>2021-05-20T12:39:48Z</time>
      </trkpt>
      <trkpt lat="42.2404740" lon="-8.6934070">
        <ele>131.5</ele>
        <time>2021-05-20T12:39:49Z</time>
      </trkpt>
      <trkpt lat="42.2404820" lon="-8.6934020">
        <ele>131.5</ele>
        <time>2021-05-20T12:39:50Z</time>
      </trkpt>
      <trkpt lat="42.2404880" lon="-8.6934000">
        <ele>131.5</ele>
        <time>2021-05-20T12:39:51Z</time>
      </trkpt>
      <trkpt lat="42.2404880" lon="-8.6933980">
        <ele>131.5</ele>
        <time>2021-05-20T12:39:52Z</time>
      </trkpt>
      <trkpt lat="42.2404890" lon="-8.6934010">
        <ele>131.5</ele>
        <time>2021-05-20T12:39:53Z</time>
      </trkpt>
      <trkpt lat="42.2404850" lon="-8.6934150">
        <ele>131.5</ele>
        <time>2021-05-20T12:39:54Z</time>
      </trkpt>
      <trkpt lat="42.2404880" lon="-8.6934240">
        <ele>131.5</ele>
        <time>2021-05-20T12:39:55Z</time>
      </trkpt>
      <trkpt lat="42.2404870" lon="-8.6934290">
        <ele>131.4</ele>
        <time>2021-05-20T12:39:56Z</time>
      </trkpt>
      <trkpt lat="42.2404860" lon="-8.6934370">
        <ele>131.4</ele>
        <time>2021-05-20T12:39:57Z</time>
      </trkpt>
      <trkpt lat="42.2404860" lon="-8.6934320">
        <ele>131.4</ele>
        <time>2021-05-20T12:39:58Z</time>
      </trkpt>
      <trkpt lat="42.2404920" lon="-8.6934370">
        <ele>131.4</ele>
        <time>2021-05-20T12:39:59Z</time>
      </trkpt>
      <trkpt lat="42.2404910" lon="-8.6934460">
        <ele>131.4</ele>
        <time>2021-05-20T12:40:00Z</time>
      </trkpt>
      <trkpt lat="42.2404910" lon="-8.6934450">
        <ele>131.4</ele>
        <time>2021-05-20T12:40:01Z</time>
      </trkpt>
      <trkpt lat="42.2404920" lon="-8.6934450">
        <ele>131.4</ele>
        <time>2021-05-20T12:40:02Z</time>
      </trkpt>
      <trkpt lat="42.2404920" lon="-8.6934440">
        <ele>131.4</ele>
        <time>2021-05-20T12:40:03Z</time>
      </trkpt>
      <trkpt lat="42.2404920" lon="-8.6934440">
        <ele>131.4</ele>
        <time>2021-05-20T12:40:04Z</time>
      </trkpt>
      <trkpt lat="42.2404920" lon="-8.6934430">
        <ele>131.4</ele>
        <time>2021-05-20T12:40:05Z</time>
      </trkpt>
      <trkpt lat="42.2404920" lon="-8.6934430">
        <ele>131.4</ele>
        <time>2021-05-20T12:40:06Z</time>
      </trkpt>
      <trkpt lat="42.2404930" lon="-8.6934420">
        <ele>131.4</ele>
        <time>2021-05-20T12:40:07Z</time>
      </trkpt>
      <trkpt lat="42.2404930" lon="-8.6934420">
        <ele>131.4</ele>
        <time>2021-05-20T12:40:08Z</time>
      </trkpt>
      <trkpt lat="42.2404930" lon="-8.6934410">
        <ele>131.4</ele>
        <time>2021-05-20T12:40:09Z</time>
      </trkpt>
      <trkpt lat="42.2404930" lon="-8.6934410">
        <ele>131.4</ele>
        <time>2021-05-20T12:40:10Z</time>
      </trkpt>
      <trkpt lat="42.2404930" lon="-8.6934400">
        <ele>131.4</ele>
        <time>2021-05-20T12:40:11Z</time>
      </trkpt>
      <trkpt lat="42.2404940" lon="-8.6934400">
        <ele>131.4</ele>
        <time>2021-05-20T12:40:12Z</time>
      </trkpt>
      <trkpt lat="42.2404940" lon="-8.6934400">
        <ele>131.4</ele>
        <time>2021-05-20T12:40:13Z</time>
      </trkpt>
      <trkpt lat="42.2404940" lon="-8.6934390">
        <ele>131.4</ele>
        <time>2021-05-20T12:40:14Z</time>
      </trkpt>
      <trkpt lat="42.2404940" lon="-8.6934390">
        <ele>131.4</ele>
        <time>2021-05-20T12:40:15Z</time>
      </trkpt>
      <trkpt lat="42.2404940" lon="-8.6934380">
        <ele>131.4</ele>
        <time>2021-05-20T12:40:16Z</time>
      </trkpt>
      <trkpt lat="42.2404950" lon="-8.6934380">
        <ele>131.4</ele>
        <time>2021-05-20T12:40:17Z</time>
      </trkpt>
      <trkpt lat="42.2404950" lon="-8.6934370">
        <ele>131.4</ele>
        <time>2021-05-20T12:40:18Z</time>
      </trkpt>
      <trkpt lat="42.2404950" lon="-8.6934370">
        <ele>131.4</ele>
        <time>2021-05-20T12:40:19Z</time>
      </trkpt>
      <trkpt lat="42.2404950" lon="-8.6934360">
        <ele>131.4</ele>
        <time>2021-05-20T12:40:20Z</time>
      </trkpt>
      <trkpt lat="42.2404950" lon="-8.6934360">
        <ele>131.4</ele>
        <time>2021-05-20T12:40:21Z</time>
      </trkpt>
      <trkpt lat="42.2404960" lon="-8.6934350">
        <ele>131.4</ele>
        <time>2021-05-20T12:40:22Z</time>
      </trkpt>
      <trkpt lat="42.2404960" lon="-8.6934350">
        <ele>131.4</ele>
        <time>2021-05-20T12:40:23Z</time>
      </trkpt>
      <trkpt lat="42.2404960" lon="-8.6934340">
        <ele>131.4</ele>
        <time>2021-05-20T12:40:24Z</time>
      </trkpt>
      <trkpt lat="42.2404960" lon="-8.6934340">
        <ele>131.4</ele>
        <time>2021-05-20T12:40:25Z</time>
      </trkpt>
      <trkpt lat="42.2404960" lon="-8.6934340">
        <ele>131.4</ele>
        <time>2021-05-20T12:40:26Z</time>
      </trkpt>
      <trkpt lat="42.2404970" lon="-8.6934330">
        <ele>131.4</ele>
        <time>2021-05-20T12:40:27Z</time>
      </trkpt>
      <trkpt lat="42.2404970" lon="-8.6934330">
        <ele>131.4</ele>
        <time>2021-05-20T12:40:28Z</time>
      </trkpt>
      <trkpt lat="42.2404970" lon="-8.6934320">
        <ele>131.4</ele>
        <time>2021-05-20T12:40:29Z</time>
      </trkpt>
      <trkpt lat="42.2404970" lon="-8.6934320">
        <ele>131.4</ele>
        <time>2021-05-20T12:40:30Z</time>
      </trkpt>
      <trkpt lat="42.2404970" lon="-8.6934310">
        <ele>131.4</ele>
        <time>2021-05-20T12:40:31Z</time>
      </trkpt>
      <trkpt lat="42.2404980" lon="-8.6934310">
        <ele>131.4</ele>
        <time>2021-05-20T12:40:32Z</time>
      </trkpt>
      <trkpt lat="42.2404980" lon="-8.6934300">
        <ele>131.4</ele>
        <time>2021-05-20T12:40:33Z</time>
      </trkpt>
      <trkpt lat="42.2404980" lon="-8.6934300">
        <ele>131.4</ele>
        <time>2021-05-20T12:40:34Z</time>
      </trkpt>
      <trkpt lat="42.2404980" lon="-8.6934290">
        <ele>131.4</ele>
        <time>2021-05-20T12:40:35Z</time>
      </trkpt>
      <trkpt lat="42.2404980" lon="-8.6934290">
        <ele>131.4</ele>
        <time>2021-05-20T12:40:36Z</time>
      </trkpt>
      <trkpt lat="42.2404990" lon="-8.6934280">
        <ele>131.4</ele>
        <time>2021-05-20T12:40:37Z</time>
      </trkpt>
      <trkpt lat="42.2404990" lon="-8.6934280">
        <ele>131.4</ele>
        <time>2021-05-20T12:40:38Z</time>
      </trkpt>
      <trkpt lat="42.2404990" lon="-8.6934280">
        <ele>131.4</ele>
        <time>2021-05-20T12:40:39Z</time>
      </trkpt>
      <trkpt lat="42.2404990" lon="-8.6934270">
        <ele>131.4</ele>
        <time>2021-05-20T12:40:40Z</time>
      </trkpt>
      <trkpt lat="42.2404990" lon="-8.6934270">
        <ele>131.4</ele>
        <time>2021-05-20T12:40:41Z</time>
      </trkpt>
      <trkpt lat="42.2405000" lon="-8.6934260">
        <ele>131.4</ele>
        <time>2021-05-20T12:40:42Z</time>
      </trkpt>
      <trkpt lat="42.2405000" lon="-8.6934260">
        <ele>131.4</ele>
        <time>2021-05-20T12:40:43Z</time>
      </trkpt>
      <trkpt lat="42.2405000" lon="-8.6934250">
        <ele>131.4</ele>
        <time>2021-05-20T12:40:44Z</time>
      </trkpt>
      <trkpt lat="42.2405000" lon="-8.6934250">
        <ele>131.4</ele>
        <time>2021-05-20T12:40:45Z</time>
      </trkpt>
      <trkpt lat="42.2405000" lon="-8.6934240">
        <ele>131.4</ele>
        <time>2021-05-20T12:40:46Z</time>
      </trkpt>
      <trkpt lat="42.2405010" lon="-8.6934240">
        <ele>131.4</ele>
        <time>2021-05-20T12:40:47Z</time>
      </trkpt>
      <trkpt lat="42.2405010" lon="-8.6934230">
        <ele>131.4</ele>
        <time>2021-05-20T12:40:48Z</time>
      </trkpt>
      <trkpt lat="42.2405010" lon="-8.6934230">
        <ele>131.4</ele>
        <time>2021-05-20T12:40:49Z</time>
      </trkpt>
      <trkpt lat="42.2405010" lon="-8.6934220">
        <ele>131.4</ele>
        <time>2021-05-20T12:40:50Z</time>
      </trkpt>
      <trkpt lat="42.2405010" lon="-8.6934220">
        <ele>131.4</ele>
        <time>2021-05-20T12:40:51Z</time>
      </trkpt>
      <trkpt lat="42.2405020" lon="-8.6934220">
        <ele>131.3</ele>
        <time>2021-05-20T12:40:52Z</time>
      </trkpt>
      <trkpt lat="42.2405020" lon="-8.6934210">
        <ele>131.3</ele>
        <time>2021-05-20T12:40:53Z</time>
      </trkpt>
      <trkpt lat="42.2405020" lon="-8.6934210">
        <ele>131.3</ele>
        <time>2021-05-20T12:40:54Z</time>
      </trkpt>
      <trkpt lat="42.2405020" lon="-8.6934200">
        <ele>131.3</ele>
        <time>2021-05-20T12:40:55Z</time>
      </trkpt>
      <trkpt lat="42.2405020" lon="-8.6934200">
        <ele>131.3</ele>
        <time>2021-05-20T12:40:56Z</time>
      </trkpt>
      <trkpt lat="42.2405030" lon="-8.6934190">
        <ele>131.3</ele>
        <time>2021-05-20T12:40:57Z</time>
      </trkpt>
      <trkpt lat="42.2405030" lon="-8.6934190">
        <ele>131.3</ele>
        <time>2021-05-20T12:40:58Z</time>
      </trkpt>
      <trkpt lat="42.2405030" lon="-8.6934180">
        <ele>131.3</ele>
        <time>2021-05-20T12:40:59Z</time>
      </trkpt>
      <trkpt lat="42.2405030" lon="-8.6934180">
        <ele>131.3</ele>
        <time>2021-05-20T12:41:00Z</time>
      </trkpt>
      <trkpt lat="42.2405030" lon="-8.6934170">
        <ele>131.3</ele>
        <time>2021-05-20T12:41:01Z</time>
      </trkpt>
      <trkpt lat="42.2405040" lon="-8.6934170">
        <ele>131.3</ele>
        <time>2021-05-20T12:41:02Z</time>
      </trkpt>
      <trkpt lat="42.2405040" lon="-8.6934160">
        <ele>131.3</ele>
        <time>2021-05-20T12:41:03Z</time>
      </trkpt>
      <trkpt lat="42.2405040" lon="-8.6934160">
        <ele>131.3</ele>
        <time>2021-05-20T12:41:04Z</time>
      </trkpt>
      <trkpt lat="42.2405040" lon="-8.6934160">
        <ele>131.3</ele>
        <time>2021-05-20T12:41:05Z</time>
      </trkpt>
      <trkpt lat="42.2405040" lon="-8.6934150">
        <ele>131.3</ele>
        <time>2021-05-20T12:41:06Z</time>
      </trkpt>
      <trkpt lat="42.2405050" lon="-8.6934150">
        <ele>131.3</ele>
        <time>2021-05-20T12:41:07Z</time>
      </trkpt>
      <trkpt lat="42.2405050" lon="-8.6934140">
        <ele>131.3</ele>
        <time>2021-05-20T12:41:08Z</time>
      </trkpt>
      <trkpt lat="42.2405050" lon="-8.6934140">
        <ele>131.3</ele>
        <time>2021-05-20T12:41:09Z</time>
      </trkpt>
      <trkpt lat="42.2405050" lon="-8.6934130">
        <ele>131.3</ele>
        <time>2021-05-20T12:41:10Z</time>
      </trkpt>
      <trkpt lat="42.2405050" lon="-8.6934130">
        <ele>131.3</ele>
        <time>2021-05-20T12:41:11Z</time>
      </trkpt>
      <trkpt lat="42.2405060" lon="-8.6934120">
        <ele>131.3</ele>
        <time>2021-05-20T12:41:12Z</time>
      </trkpt>
      <trkpt lat="42.2405060" lon="-8.6934120">
        <ele>131.3</ele>
        <time>2021-05-20T12:41:13Z</time>
      </trkpt>
      <trkpt lat="42.2405060" lon="-8.6934110">
        <ele>131.3</ele>
        <time>2021-05-20T12:41:14Z</time>
      </trkpt>
      <trkpt lat="42.2405060" lon="-8.6934110">
        <ele>131.3</ele>
        <time>2021-05-20T12:41:15Z</time>
      </trkpt>
      <trkpt lat="42.2405060" lon="-8.6934100">
        <ele>131.3</ele>
        <time>2021-05-20T12:41:16Z</time>
      </trkpt>
      <trkpt lat="42.2405070" lon="-8.6934100">
        <ele>131.3</ele>
        <time>2021-05-20T12:41:17Z</time>
      </trkpt>
      <trkpt lat="42.2405070" lon="-8.6934100">
        <ele>131.3</ele>
        <time>2021-05-20T12:41:18Z</time>
      </trkpt>
      <trkpt lat="42.2405070" lon="-8.6934090">
        <ele>131.3</ele>
        <time>2021-05-20T12:41:19Z</time>
      </trkpt>
      <trkpt lat="42.2405070" lon="-8.6934090">
        <ele>131.3</ele>
        <time>2021-05-20T12:41:20Z</time>
      </trkpt>
      <trkpt lat="42.2405070" lon="-8.6934080">
        <ele>131.3</ele>
        <time>2021-05-20T12:41:21Z</time>
      </trkpt>
      <trkpt lat="42.2405080" lon="-8.6934080">
        <ele>131.3</ele>
        <time>2021-05-20T12:41:22Z</time>
      </trkpt>
      <trkpt lat="42.2405080" lon="-8.6934070">
        <ele>131.3</ele>
        <time>2021-05-20T12:41:23Z</time>
      </trkpt>
      <trkpt lat="42.2405080" lon="-8.6934070">
        <ele>131.3</ele>
        <time>2021-05-20T12:41:24Z</time>
      </trkpt>
      <trkpt lat="42.2405080" lon="-8.6934060">
        <ele>131.3</ele>
        <time>2021-05-20T12:41:25Z</time>
      </trkpt>
      <trkpt lat="42.2405080" lon="-8.6934060">
        <ele>131.3</ele>
        <time>2021-05-20T12:41:26Z</time>
      </trkpt>
      <trkpt lat="42.2405090" lon="-8.6934050">
        <ele>131.3</ele>
        <time>2021-05-20T12:41:27Z</time>
      </trkpt>
      <trkpt lat="42.2405090" lon="-8.6934050">
        <ele>131.3</ele>
        <time>2021-05-20T12:41:28Z</time>
      </trkpt>
      <trkpt lat="42.2405090" lon="-8.6934040">
        <ele>131.3</ele>
        <time>2021-05-20T12:41:29Z</time>
      </trkpt>
      <trkpt lat="42.2405090" lon="-8.6934040">
        <ele>131.3</ele>
        <time>2021-05-20T12:41:30Z</time>
      </trkpt>
      <trkpt lat="42.2405090" lon="-8.6934040">
        <ele>131.3</ele>
        <time>2021-05-20T12:41:31Z</time>
      </trkpt>
      <trkpt lat="42.2405100" lon="-8.6934030">
        <ele>131.3</ele>
        <time>2021-05-20T12:41:32Z</time>
      </trkpt>
      <trkpt lat="42.2405100" lon="-8.6934030">
        <ele>131.3</ele>
        <time>2021-05-20T12:41:33Z</time>
      </trkpt>
      <trkpt lat="42.2405100" lon="-8.6934020">
        <ele>131.3</ele>
        <time>2021-05-20T12:41:34Z</time>
      </trkpt>
      <trkpt lat="42.2405100" lon="-8.6934020">
        <ele>131.3</ele>
        <time>2021-05-20T12:41:35Z</time>
      </trkpt>
      <trkpt lat="42.2405100" lon="-8.6934010">
        <ele>131.3</ele>
        <time>2021-05-20T12:41:36Z</time>
      </trkpt>
      <trkpt lat="42.2405110" lon="-8.6934010">
        <ele>131.3</ele>
        <time>2021-05-20T12:41:37Z</time>
      </trkpt>
      <trkpt lat="42.2405110" lon="-8.6934000">
        <ele>131.3</ele>
        <time>2021-05-20T12:41:38Z</time>
      </trkpt>
      <trkpt lat="42.2405110" lon="-8.6934000">
        <ele>131.3</ele>
        <time>2021-05-20T12:41:39Z</time>
      </trkpt>
      <trkpt lat="42.2405110" lon="-8.6933990">
        <ele>131.3</ele>
        <time>2021-05-20T12:41:40Z</time>
      </trkpt>
      <trkpt lat="42.2405110" lon="-8.6933990">
        <ele>131.3</ele>
        <time>2021-05-20T12:41:41Z</time>
      </trkpt>
      <trkpt lat="42.2405120" lon="-8.6933980">
        <ele>131.3</ele>
        <time>2021-05-20T12:41:42Z</time>
      </trkpt>
      <trkpt lat="42.2405120" lon="-8.6933980">
        <ele>131.3</ele>
        <time>2021-05-20T12:41:43Z</time>
      </trkpt>
      <trkpt lat="42.2405120" lon="-8.6933980">
        <ele>131.3</ele>
        <time>2021-05-20T12:41:44Z</time>
      </trkpt>
      <trkpt lat="42.2405120" lon="-8.6933970">
        <ele>131.3</ele>
        <time>2021-05-20T12:41:45Z</time>
      </trkpt>
      <trkpt lat="42.2405120" lon="-8.6933970">
        <ele>131.3</ele>
        <time>2021-05-20T12:41:46Z</time>
      </trkpt>
      <trkpt lat="42.2405130" lon="-8.6933960">
        <ele>131.3</ele>
        <time>2021-05-20T12:41:47Z</time>
      </trkpt>
      <trkpt lat="42.2405130" lon="-8.6933960">
        <ele>131.3</ele>
        <time>2021-05-20T12:41:48Z</time>
      </trkpt>
      <trkpt lat="42.2405130" lon="-8.6933950">
        <ele>131.3</ele>
        <time>2021-05-20T12:41:49Z</time>
      </trkpt>
      <trkpt lat="42.2405130" lon="-8.6933950">
        <ele>131.3</ele>
        <time>2021-05-20T12:41:50Z</time>
      </trkpt>
      <trkpt lat="42.2405130" lon="-8.6933940">
        <ele>131.3</ele>
        <time>2021-05-20T12:41:51Z</time>
      </trkpt>
      <trkpt lat="42.2405140" lon="-8.6933940">
        <ele>131.3</ele>
        <time>2021-05-20T12:41:52Z</time>
      </trkpt>
      <trkpt lat="42.2405140" lon="-8.6933930">
        <ele>131.3</ele>
        <time>2021-05-20T12:41:53Z</time>
      </trkpt>
      <trkpt lat="42.2405140" lon="-8.6933930">
        <ele>131.3</ele>
        <time>2021-05-20T12:41:54Z</time>
      </trkpt>
      <trkpt lat="42.2405140" lon="-8.6933920">
        <ele>131.3</ele>
        <time>2021-05-20T12:41:55Z</time>
      </trkpt>
      <trkpt lat="42.2405140" lon="-8.6933920">
        <ele>131.3</ele>
        <time>2021-05-20T12:41:56Z</time>
      </trkpt>
      <trkpt lat="42.2405150" lon="-8.6933920">
        <ele>131.3</ele>
        <time>2021-05-20T12:41:57Z</time>
      </trkpt>
      <trkpt lat="42.2405150" lon="-8.6933910">
        <ele>131.3</ele>
        <time>2021-05-20T12:41:58Z</time>
      </trkpt>
      <trkpt lat="42.2405150" lon="-8.6933910">
        <ele>131.3</ele>
        <time>2021-05-20T12:41:59Z</time>
      </trkpt>
      <trkpt lat="42.2405150" lon="-8.6933900">
        <ele>131.3</ele>
        <time>2021-05-20T12:42:00Z</time>
      </trkpt>
      <trkpt lat="42.2405150" lon="-8.6933900">
        <ele>131.3</ele>
        <time>2021-05-20T12:42:01Z</time>
      </trkpt>
      <trkpt lat="42.2405160" lon="-8.6933890">
        <ele>131.3</ele>
        <time>2021-05-20T12:42:02Z</time>
      </trkpt>
      <trkpt lat="42.2405160" lon="-8.6933890">
        <ele>131.3</ele>
        <time>2021-05-20T12:42:03Z</time>
      </trkpt>
      <trkpt lat="42.2405160" lon="-8.6933880">
        <ele>131.3</ele>
        <time>2021-05-20T12:42:04Z</time>
      </trkpt>
      <trkpt lat="42.2405160" lon="-8.6933880">
        <ele>131.3</ele>
        <time>2021-05-20T12:42:05Z</time>
      </trkpt>
      <trkpt lat="42.2405160" lon="-8.6933870">
        <ele>131.3</ele>
        <time>2021-05-20T12:42:06Z</time>
      </trkpt>
      <trkpt lat="42.2405170" lon="-8.6933870">
        <ele>131.3</ele>
        <time>2021-05-20T12:42:07Z</time>
      </trkpt>
      <trkpt lat="42.2405170" lon="-8.6933860">
        <ele>131.3</ele>
        <time>2021-05-20T12:42:08Z</time>
      </trkpt>
      <trkpt lat="42.2405170" lon="-8.6933860">
        <ele>131.3</ele>
        <time>2021-05-20T12:42:09Z</time>
      </trkpt>
      <trkpt lat="42.2405300" lon="-8.6933890">
        <ele>131.3</ele>
        <time>2021-05-20T12:42:10Z</time>
      </trkpt>
      <trkpt lat="42.2405380" lon="-8.6933920">
        <ele>131.3</ele>
        <time>2021-05-20T12:42:11Z</time>
      </trkpt>
      <trkpt lat="42.2405480" lon="-8.6933910">
        <ele>131.3</ele>
        <time>2021-05-20T12:42:12Z</time>
      </trkpt>
      <trkpt lat="42.2405560" lon="-8.6933910">
        <ele>131.3</ele>
        <time>2021-05-20T12:42:13Z</time>
      </trkpt>
      <trkpt lat="42.2405700" lon="-8.6933850">
        <ele>131.2</ele>
        <time>2021-05-20T12:42:14Z</time>
      </trkpt>
      <trkpt lat="42.2405780" lon="-8.6933900">
        <ele>131.2</ele>
        <time>2021-05-20T12:42:15Z</time>
      </trkpt>
      <trkpt lat="42.2405880" lon="-8.6933890">
        <ele>131.2</ele>
        <time>2021-05-20T12:42:16Z</time>
      </trkpt>
      <trkpt lat="42.2405990" lon="-8.6933880">
        <ele>131.2</ele>
        <time>2021-05-20T12:42:17Z</time>
      </trkpt>
      <trkpt lat="42.2406060" lon="-8.6933910">
        <ele>131.2</ele>
        <time>2021-05-20T12:42:18Z</time>
      </trkpt>
      <trkpt lat="42.2406160" lon="-8.6933860">
        <ele>131.2</ele>
        <time>2021-05-20T12:42:19Z</time>
      </trkpt>
      <trkpt lat="42.2406270" lon="-8.6933840">
        <ele>131.2</ele>
        <time>2021-05-20T12:42:20Z</time>
      </trkpt>
      <trkpt lat="42.2406350" lon="-8.6933780">
        <ele>131.2</ele>
        <time>2021-05-20T12:42:21Z</time>
      </trkpt>
      <trkpt lat="42.2406540" lon="-8.6933690">
        <ele>131.2</ele>
        <time>2021-05-20T12:42:22Z</time>
      </trkpt>
      <trkpt lat="42.2406640" lon="-8.6933660">
        <ele>131.2</ele>
        <time>2021-05-20T12:42:23Z</time>
      </trkpt>
      <trkpt lat="42.2406740" lon="-8.6933620">
        <ele>131.2</ele>
        <time>2021-05-20T12:42:24Z</time>
      </trkpt>
      <trkpt lat="42.2406820" lon="-8.6933580">
        <ele>131.2</ele>
        <time>2021-05-20T12:42:25Z</time>
      </trkpt>
      <trkpt lat="42.2406950" lon="-8.6933640">
        <ele>131.2</ele>
        <time>2021-05-20T12:42:26Z</time>
      </trkpt>
      <trkpt lat="42.2407040" lon="-8.6933540">
        <ele>131.2</ele>
        <time>2021-05-20T12:42:27Z</time>
      </trkpt>
      <trkpt lat="42.2407190" lon="-8.6933470">
        <ele>131.2</ele>
        <time>2021-05-20T12:42:28Z</time>
      </trkpt>
      <trkpt lat="42.2407350" lon="-8.6933470">
        <ele>131.2</ele>
        <time>2021-05-20T12:42:29Z</time>
      </trkpt>
      <trkpt lat="42.2407400" lon="-8.6933470">
        <ele>131.2</ele>
        <time>2021-05-20T12:42:30Z</time>
      </trkpt>
      <trkpt lat="42.2407480" lon="-8.6933450">
        <ele>131.3</ele>
        <time>2021-05-20T12:42:31Z</time>
      </trkpt>
      <trkpt lat="42.2407660" lon="-8.6933410">
        <ele>131.3</ele>
        <time>2021-05-20T12:42:32Z</time>
      </trkpt>
      <trkpt lat="42.2407780" lon="-8.6933460">
        <ele>131.3</ele>
        <time>2021-05-20T12:42:33Z</time>
      </trkpt>
      <trkpt lat="42.2407910" lon="-8.6933520">
        <ele>131.3</ele>
        <time>2021-05-20T12:42:34Z</time>
      </trkpt>
      <trkpt lat="42.2407940" lon="-8.6933500">
        <ele>131.3</ele>
        <time>2021-05-20T12:42:35Z</time>
      </trkpt>
      <trkpt lat="42.2408090" lon="-8.6933500">
        <ele>131.3</ele>
        <time>2021-05-20T12:42:36Z</time>
      </trkpt>
      <trkpt lat="42.2408260" lon="-8.6933540">
        <ele>131.4</ele>
        <time>2021-05-20T12:42:37Z</time>
      </trkpt>
      <trkpt lat="42.2408310" lon="-8.6933610">
        <ele>131.4</ele>
        <time>2021-05-20T12:42:38Z</time>
      </trkpt>
      <trkpt lat="42.2408450" lon="-8.6933620">
        <ele>131.4</ele>
        <time>2021-05-20T12:42:39Z</time>
      </trkpt>
      <trkpt lat="42.2408540" lon="-8.6933610">
        <ele>131.4</ele>
        <time>2021-05-20T12:42:40Z</time>
      </trkpt>
      <trkpt lat="42.2408640" lon="-8.6933580">
        <ele>131.4</ele>
        <time>2021-05-20T12:42:41Z</time>
      </trkpt>
      <trkpt lat="42.2408760" lon="-8.6933570">
        <ele>131.5</ele>
        <time>2021-05-20T12:42:42Z</time>
      </trkpt>
      <trkpt lat="42.2408880" lon="-8.6933600">
        <ele>131.5</ele>
        <time>2021-05-20T12:42:43Z</time>
      </trkpt>
      <trkpt lat="42.2408960" lon="-8.6933620">
        <ele>131.5</ele>
        <time>2021-05-20T12:42:44Z</time>
      </trkpt>
      <trkpt lat="42.2409150" lon="-8.6933500">
        <ele>131.6</ele>
        <time>2021-05-20T12:42:45Z</time>
      </trkpt>
      <trkpt lat="42.2409230" lon="-8.6933490">
        <ele>131.6</ele>
        <time>2021-05-20T12:42:46Z</time>
      </trkpt>
      <trkpt lat="42.2409310" lon="-8.6933480">
        <ele>131.6</ele>
        <time>2021-05-20T12:42:47Z</time>
      </trkpt>
      <trkpt lat="42.2409450" lon="-8.6933440">
        <ele>131.7</ele>
        <time>2021-05-20T12:42:48Z</time>
      </trkpt>
      <trkpt lat="42.2409650" lon="-8.6933320">
        <ele>131.7</ele>
        <time>2021-05-20T12:42:49Z</time>
      </trkpt>
      <trkpt lat="42.2409720" lon="-8.6933280">
        <ele>131.8</ele>
        <time>2021-05-20T12:42:50Z</time>
      </trkpt>
      <trkpt lat="42.2409800" lon="-8.6933240">
        <ele>131.8</ele>
        <time>2021-05-20T12:42:51Z</time>
      </trkpt>
      <trkpt lat="42.2409920" lon="-8.6933190">
        <ele>131.8</ele>
        <time>2021-05-20T12:42:52Z</time>
      </trkpt>
      <trkpt lat="42.2410040" lon="-8.6933120">
        <ele>131.9</ele>
        <time>2021-05-20T12:42:53Z</time>
      </trkpt>
      <trkpt lat="42.2410060" lon="-8.6933200">
        <ele>131.9</ele>
        <time>2021-05-20T12:42:54Z</time>
      </trkpt>
      <trkpt lat="42.2410040" lon="-8.6933230">
        <ele>131.9</ele>
        <time>2021-05-20T12:42:55Z</time>
      </trkpt>
      <trkpt lat="42.2410140" lon="-8.6933110">
        <ele>132.0</ele>
        <time>2021-05-20T12:42:56Z</time>
      </trkpt>
      <trkpt lat="42.2410440" lon="-8.6932950">
        <ele>132.1</ele>
        <time>2021-05-20T12:42:57Z</time>
      </trkpt>
      <trkpt lat="42.2410500" lon="-8.6932890">
        <ele>132.1</ele>
        <time>2021-05-20T12:42:58Z</time>
      </trkpt>
      <trkpt lat="42.2410620" lon="-8.6932810">
        <ele>132.2</ele>
        <time>2021-05-20T12:42:59Z</time>
      </trkpt>
      <trkpt lat="42.2410730" lon="-8.6932770">
        <ele>132.3</ele>
        <time>2021-05-20T12:43:00Z</time>
      </trkpt>
      <trkpt lat="42.2410810" lon="-8.6932780">
        <ele>132.3</ele>
        <time>2021-05-20T12:43:01Z</time>
      </trkpt>
      <trkpt lat="42.2411010" lon="-8.6932550">
        <ele>132.4</ele>
        <time>2021-05-20T12:43:02Z</time>
      </trkpt>
      <trkpt lat="42.2411060" lon="-8.6932430">
        <ele>132.5</ele>
        <time>2021-05-20T12:43:03Z</time>
      </trkpt>
      <trkpt lat="42.2411300" lon="-8.6932200">
        <ele>132.6</ele>
        <time>2021-05-20T12:43:04Z</time>
      </trkpt>
      <trkpt lat="42.2411400" lon="-8.6932210">
        <ele>132.7</ele>
        <time>2021-05-20T12:43:05Z</time>
      </trkpt>
      <trkpt lat="42.2411660" lon="-8.6932120">
        <ele>132.8</ele>
        <time>2021-05-20T12:43:06Z</time>
      </trkpt>
      <trkpt lat="42.2411800" lon="-8.6932040">
        <ele>132.9</ele>
        <time>2021-05-20T12:43:07Z</time>
      </trkpt>
      <trkpt lat="42.2411870" lon="-8.6931960">
        <ele>132.9</ele>
        <time>2021-05-20T12:43:08Z</time>
      </trkpt>
      <trkpt lat="42.2411950" lon="-8.6931890">
        <ele>133.0</ele>
        <time>2021-05-20T12:43:09Z</time>
      </trkpt>
      <trkpt lat="42.2412020" lon="-8.6931820">
        <ele>133.0</ele>
        <time>2021-05-20T12:43:10Z</time>
      </trkpt>
      <trkpt lat="42.2412100" lon="-8.6931750">
        <ele>133.1</ele>
        <time>2021-05-20T12:43:11Z</time>
      </trkpt>
      <trkpt lat="42.2412280" lon="-8.6931590">
        <ele>133.2</ele>
        <time>2021-05-20T12:43:12Z</time>
      </trkpt>
      <trkpt lat="42.2412340" lon="-8.6931560">
        <ele>133.2</ele>
        <time>2021-05-20T12:43:13Z</time>
      </trkpt>
      <trkpt lat="42.2412390" lon="-8.6931520">
        <ele>133.3</ele>
        <time>2021-05-20T12:43:14Z</time>
      </trkpt>
      <trkpt lat="42.2412440" lon="-8.6931490">
        <ele>133.3</ele>
        <time>2021-05-20T12:43:15Z</time>
      </trkpt>
      <trkpt lat="42.2412560" lon="-8.6931460">
        <ele>133.4</ele>
        <time>2021-05-20T12:43:16Z</time>
      </trkpt>
      <trkpt lat="42.2412650" lon="-8.6931350">
        <ele>133.5</ele>
        <time>2021-05-20T12:43:17Z</time>
      </trkpt>
      <trkpt lat="42.2412710" lon="-8.6931290">
        <ele>133.5</ele>
        <time>2021-05-20T12:43:18Z</time>
      </trkpt>
      <trkpt lat="42.2412840" lon="-8.6931170">
        <ele>133.6</ele>
        <time>2021-05-20T12:43:19Z</time>
      </trkpt>
      <trkpt lat="42.2412950" lon="-8.6931090">
        <ele>133.7</ele>
        <time>2021-05-20T12:43:20Z</time>
      </trkpt>
      <trkpt lat="42.2413010" lon="-8.6931060">
        <ele>133.7</ele>
        <time>2021-05-20T12:43:21Z</time>
      </trkpt>
      <trkpt lat="42.2413170" lon="-8.6930870">
        <ele>133.8</ele>
        <time>2021-05-20T12:43:22Z</time>
      </trkpt>
      <trkpt lat="42.2413310" lon="-8.6930740">
        <ele>133.9</ele>
        <time>2021-05-20T12:43:23Z</time>
      </trkpt>
      <trkpt lat="42.2413420" lon="-8.6930660">
        <ele>134.0</ele>
        <time>2021-05-20T12:43:24Z</time>
      </trkpt>
      <trkpt lat="42.2413530" lon="-8.6930650">
        <ele>134.1</ele>
        <time>2021-05-20T12:43:25Z</time>
      </trkpt>
      <trkpt lat="42.2413550" lon="-8.6930570">
        <ele>134.1</ele>
        <time>2021-05-20T12:43:26Z</time>
      </trkpt>
      <trkpt lat="42.2413690" lon="-8.6930420">
        <ele>134.2</ele>
        <time>2021-05-20T12:43:27Z</time>
      </trkpt>
      <trkpt lat="42.2413820" lon="-8.6930320">
        <ele>134.3</ele>
        <time>2021-05-20T12:43:28Z</time>
      </trkpt>
      <trkpt lat="42.2413900" lon="-8.6930350">
        <ele>134.4</ele>
        <time>2021-05-20T12:43:29Z</time>
      </trkpt>
      <trkpt lat="42.2413950" lon="-8.6930230">
        <ele>134.4</ele>
        <time>2021-05-20T12:43:30Z</time>
      </trkpt>
      <trkpt lat="42.2414020" lon="-8.6930200">
        <ele>134.5</ele>
        <time>2021-05-20T12:43:31Z</time>
      </trkpt>
      <trkpt lat="42.2414100" lon="-8.6930160">
        <ele>134.5</ele>
        <time>2021-05-20T12:43:32Z</time>
      </trkpt>
      <trkpt lat="42.2414210" lon="-8.6930110">
        <ele>134.6</ele>
        <time>2021-05-20T12:43:33Z</time>
      </trkpt>
      <trkpt lat="42.2414400" lon="-8.6930060">
        <ele>134.7</ele>
        <time>2021-05-20T12:43:34Z</time>
      </trkpt>
      <trkpt lat="42.2414440" lon="-8.6930040">
        <ele>134.8</ele>
        <time>2021-05-20T12:43:35Z</time>
      </trkpt>
      <trkpt lat="42.2414550" lon="-8.6929960">
        <ele>134.8</ele>
        <time>2021-05-20T12:43:36Z</time>
      </trkpt>
      <trkpt lat="42.2414580" lon="-8.6930020">
        <ele>134.9</ele>
        <time>2021-05-20T12:43:37Z</time>
      </trkpt>
      <trkpt lat="42.2414640" lon="-8.6929960">
        <ele>134.9</ele>
        <time>2021-05-20T12:43:38Z</time>
      </trkpt>
      <trkpt lat="42.2414700" lon="-8.6929890">
        <ele>135.0</ele>
        <time>2021-05-20T12:43:39Z</time>
      </trkpt>
      <trkpt lat="42.2414750" lon="-8.6929820">
        <ele>135.0</ele>
        <time>2021-05-20T12:43:40Z</time>
      </trkpt>
      <trkpt lat="42.2414810" lon="-8.6929760">
        <ele>135.1</ele>
        <time>2021-05-20T12:43:41Z</time>
      </trkpt>
      <trkpt lat="42.2414870" lon="-8.6929690">
        <ele>135.1</ele>
        <time>2021-05-20T12:43:42Z</time>
      </trkpt>
      <trkpt lat="42.2415020" lon="-8.6929650">
        <ele>135.2</ele>
        <time>2021-05-20T12:43:43Z</time>
      </trkpt>
      <trkpt lat="42.2415120" lon="-8.6929600">
        <ele>135.3</ele>
        <time>2021-05-20T12:43:44Z</time>
      </trkpt>
      <trkpt lat="42.2415220" lon="-8.6929560">
        <ele>135.3</ele>
        <time>2021-05-20T12:43:45Z</time>
      </trkpt>
      <trkpt lat="42.2415320" lon="-8.6929510">
        <ele>135.4</ele>
        <time>2021-05-20T12:43:46Z</time>
      </trkpt>
      <trkpt lat="42.2415570" lon="-8.6929340">
        <ele>135.5</ele>
        <time>2021-05-20T12:43:47Z</time>
      </trkpt>
      <trkpt lat="42.2415650" lon="-8.6929280">
        <ele>135.6</ele>
        <time>2021-05-20T12:43:48Z</time>
      </trkpt>
      <trkpt lat="42.2415800" lon="-8.6929170">
        <ele>135.7</ele>
        <time>2021-05-20T12:43:49Z</time>
      </trkpt>
      <trkpt lat="42.2415910" lon="-8.6929070">
        <ele>135.8</ele>
        <time>2021-05-20T12:43:50Z</time>
      </trkpt>
      <trkpt lat="42.2415970" lon="-8.6929070">
        <ele>135.8</ele>
        <time>2021-05-20T12:43:51Z</time>
      </trkpt>
      <trkpt lat="42.2416040" lon="-8.6929060">
        <ele>135.9</ele>
        <time>2021-05-20T12:43:52Z</time>
      </trkpt>
      <trkpt lat="42.2416170" lon="-8.6929050">
        <ele>135.9</ele>
        <time>2021-05-20T12:43:53Z</time>
      </trkpt>
      <trkpt lat="42.2416250" lon="-8.6929030">
        <ele>136.0</ele>
        <time>2021-05-20T12:43:54Z</time>
      </trkpt>
      <trkpt lat="42.2416370" lon="-8.6928870">
        <ele>136.1</ele>
        <time>2021-05-20T12:43:55Z</time>
      </trkpt>
      <trkpt lat="42.2416430" lon="-8.6928810">
        <ele>136.1</ele>
        <time>2021-05-20T12:43:56Z</time>
      </trkpt>
      <trkpt lat="42.2416500" lon="-8.6928750">
        <ele>136.2</ele>
        <time>2021-05-20T12:43:57Z</time>
      </trkpt>
      <trkpt lat="42.2416560" lon="-8.6928690">
        <ele>136.2</ele>
        <time>2021-05-20T12:43:58Z</time>
      </trkpt>
      <trkpt lat="42.2416670" lon="-8.6928570">
        <ele>136.3</ele>
        <time>2021-05-20T12:43:59Z</time>
      </trkpt>
      <trkpt lat="42.2416810" lon="-8.6928350">
        <ele>136.4</ele>
        <time>2021-05-20T12:44:00Z</time>
      </trkpt>
      <trkpt lat="42.2417100" lon="-8.6928270">
        <ele>136.6</ele>
        <time>2021-05-20T12:44:01Z</time>
      </trkpt>
      <trkpt lat="42.2417300" lon="-8.6928180">
        <ele>136.7</ele>
        <time>2021-05-20T12:44:02Z</time>
      </trkpt>
      <trkpt lat="42.2417370" lon="-8.6928150">
        <ele>136.8</ele>
        <time>2021-05-20T12:44:03Z</time>
      </trkpt>
      <trkpt lat="42.2417540" lon="-8.6928140">
        <ele>136.9</ele>
        <time>2021-05-20T12:44:04Z</time>
      </trkpt>
      <trkpt lat="42.2417730" lon="-8.6928140">
        <ele>137.0</ele>
        <time>2021-05-20T12:44:05Z</time>
      </trkpt>
      <trkpt lat="42.2417960" lon="-8.6928080">
        <ele>137.1</ele>
        <time>2021-05-20T12:44:06Z</time>
      </trkpt>
      <trkpt lat="42.2418050" lon="-8.6928010">
        <ele>137.1</ele>
        <time>2021-05-20T12:44:07Z</time>
      </trkpt>
      <trkpt lat="42.2418140" lon="-8.6927950">
        <ele>137.2</ele>
        <time>2021-05-20T12:44:08Z</time>
      </trkpt>
      <trkpt lat="42.2418150" lon="-8.6927950">
        <ele>137.2</ele>
        <time>2021-05-20T12:44:09Z</time>
      </trkpt>
      <trkpt lat="42.2418250" lon="-8.6927810">
        <ele>137.3</ele>
        <time>2021-05-20T12:44:10Z</time>
      </trkpt>
      <trkpt lat="42.2418390" lon="-8.6927720">
        <ele>137.3</ele>
        <time>2021-05-20T12:44:11Z</time>
      </trkpt>
      <trkpt lat="42.2418450" lon="-8.6927690">
        <ele>137.4</ele>
        <time>2021-05-20T12:44:12Z</time>
      </trkpt>
      <trkpt lat="42.2418510" lon="-8.6927640">
        <ele>137.4</ele>
        <time>2021-05-20T12:44:13Z</time>
      </trkpt>
      <trkpt lat="42.2418650" lon="-8.6927570">
        <ele>137.5</ele>
        <time>2021-05-20T12:44:14Z</time>
      </trkpt>
      <trkpt lat="42.2418800" lon="-8.6927490">
        <ele>137.5</ele>
        <time>2021-05-20T12:44:15Z</time>
      </trkpt>
      <trkpt lat="42.2418910" lon="-8.6927440">
        <ele>137.6</ele>
        <time>2021-05-20T12:44:16Z</time>
      </trkpt>
      <trkpt lat="42.2418950" lon="-8.6927370">
        <ele>137.6</ele>
        <time>2021-05-20T12:44:17Z</time>
      </trkpt>
      <trkpt lat="42.2418960" lon="-8.6927280">
        <ele>137.6</ele>
        <time>2021-05-20T12:44:18Z</time>
      </trkpt>
      <trkpt lat="42.2419070" lon="-8.6927260">
        <ele>137.7</ele>
        <time>2021-05-20T12:44:19Z</time>
      </trkpt>
      <trkpt lat="42.2419080" lon="-8.6927240">
        <ele>137.7</ele>
        <time>2021-05-20T12:44:20Z</time>
      </trkpt>
      <trkpt lat="42.2419170" lon="-8.6927210">
        <ele>137.7</ele>
        <time>2021-05-20T12:44:21Z</time>
      </trkpt>
      <trkpt lat="42.2419410" lon="-8.6927130">
        <ele>137.8</ele>
        <time>2021-05-20T12:44:22Z</time>
      </trkpt>
      <trkpt lat="42.2419520" lon="-8.6927110">
        <ele>137.8</ele>
        <time>2021-05-20T12:44:23Z</time>
      </trkpt>
      <trkpt lat="42.2419700" lon="-8.6927040">
        <ele>137.8</ele>
        <time>2021-05-20T12:44:24Z</time>
      </trkpt>
      <trkpt lat="42.2419840" lon="-8.6927070">
        <ele>137.9</ele>
        <time>2021-05-20T12:44:25Z</time>
      </trkpt>
      <trkpt lat="42.2420150" lon="-8.6927210">
        <ele>137.9</ele>
        <time>2021-05-20T12:44:26Z</time>
      </trkpt>
      <trkpt lat="42.2420210" lon="-8.6927260">
        <ele>137.9</ele>
        <time>2021-05-20T12:44:27Z</time>
      </trkpt>
      <trkpt lat="42.2420400" lon="-8.6927290">
        <ele>138.0</ele>
        <time>2021-05-20T12:44:28Z</time>
      </trkpt>
      <trkpt lat="42.2420480" lon="-8.6927270">
        <ele>138.0</ele>
        <time>2021-05-20T12:44:29Z</time>
      </trkpt>
      <trkpt lat="42.2420570" lon="-8.6927250">
        <ele>138.0</ele>
        <time>2021-05-20T12:44:30Z</time>
      </trkpt>
      <trkpt lat="42.2420590" lon="-8.6927290">
        <ele>138.0</ele>
        <time>2021-05-20T12:44:31Z</time>
      </trkpt>
      <trkpt lat="42.2420670" lon="-8.6927310">
        <ele>138.0</ele>
        <time>2021-05-20T12:44:32Z</time>
      </trkpt>
      <trkpt lat="42.2420750" lon="-8.6927310">
        <ele>138.0</ele>
        <time>2021-05-20T12:44:33Z</time>
      </trkpt>
      <trkpt lat="42.2420880" lon="-8.6927240">
        <ele>138.1</ele>
        <time>2021-05-20T12:44:34Z</time>
      </trkpt>
      <trkpt lat="42.2421150" lon="-8.6927010">
        <ele>138.1</ele>
        <time>2021-05-20T12:44:35Z</time>
      </trkpt>
      <trkpt lat="42.2421250" lon="-8.6926880">
        <ele>138.2</ele>
        <time>2021-05-20T12:44:36Z</time>
      </trkpt>
      <trkpt lat="42.2421470" lon="-8.6926800">
        <ele>138.3</ele>
        <time>2021-05-20T12:44:37Z</time>
      </trkpt>
      <trkpt lat="42.2421570" lon="-8.6926800">
        <ele>138.3</ele>
        <time>2021-05-20T12:44:38Z</time>
      </trkpt>
      <trkpt lat="42.2421670" lon="-8.6926790">
        <ele>138.3</ele>
        <time>2021-05-20T12:44:39Z</time>
      </trkpt>
      <trkpt lat="42.2421740" lon="-8.6926780">
        <ele>138.4</ele>
        <time>2021-05-20T12:44:40Z</time>
      </trkpt>
      <trkpt lat="42.2421790" lon="-8.6926760">
        <ele>138.4</ele>
        <time>2021-05-20T12:44:41Z</time>
      </trkpt>
      <trkpt lat="42.2421970" lon="-8.6926660">
        <ele>138.5</ele>
        <time>2021-05-20T12:44:42Z</time>
      </trkpt>
      <trkpt lat="42.2422180" lon="-8.6926560">
        <ele>138.6</ele>
        <time>2021-05-20T12:44:43Z</time>
      </trkpt>
      <trkpt lat="42.2422270" lon="-8.6926510">
        <ele>138.6</ele>
        <time>2021-05-20T12:44:44Z</time>
      </trkpt>
      <trkpt lat="42.2422350" lon="-8.6926460">
        <ele>138.6</ele>
        <time>2021-05-20T12:44:45Z</time>
      </trkpt>
      <trkpt lat="42.2422460" lon="-8.6926360">
        <ele>138.7</ele>
        <time>2021-05-20T12:44:46Z</time>
      </trkpt>
      <trkpt lat="42.2422650" lon="-8.6926190">
        <ele>138.8</ele>
        <time>2021-05-20T12:44:47Z</time>
      </trkpt>
      <trkpt lat="42.2422750" lon="-8.6925970">
        <ele>139.0</ele>
        <time>2021-05-20T12:44:48Z</time>
      </trkpt>
      <trkpt lat="42.2422890" lon="-8.6925830">
        <ele>139.1</ele>
        <time>2021-05-20T12:44:49Z</time>
      </trkpt>
      <trkpt lat="42.2423090" lon="-8.6925680">
        <ele>139.2</ele>
        <time>2021-05-20T12:44:50Z</time>
      </trkpt>
      <trkpt lat="42.2423170" lon="-8.6925600">
        <ele>139.3</ele>
        <time>2021-05-20T12:44:51Z</time>
      </trkpt>
      <trkpt lat="42.2423240" lon="-8.6925530">
        <ele>139.4</ele>
        <time>2021-05-20T12:44:52Z</time>
      </trkpt>
      <trkpt lat="42.2423350" lon="-8.6925360">
        <ele>139.5</ele>
        <time>2021-05-20T12:44:53Z</time>
      </trkpt>
      <trkpt lat="42.2423430" lon="-8.6925230">
        <ele>139.6</ele>
        <time>2021-05-20T12:44:54Z</time>
      </trkpt>
      <trkpt lat="42.2423560" lon="-8.6925040">
        <ele>139.7</ele>
        <time>2021-05-20T12:44:55Z</time>
      </trkpt>
      <trkpt lat="42.2423690" lon="-8.6924950">
        <ele>139.8</ele>
        <time>2021-05-20T12:44:56Z</time>
      </trkpt>
      <trkpt lat="42.2423820" lon="-8.6924910">
        <ele>140.0</ele>
        <time>2021-05-20T12:44:57Z</time>
      </trkpt>
      <trkpt lat="42.2423890" lon="-8.6924720">
        <ele>140.1</ele>
        <time>2021-05-20T12:44:58Z</time>
      </trkpt>
      <trkpt lat="42.2423900" lon="-8.6924620">
        <ele>140.1</ele>
        <time>2021-05-20T12:44:59Z</time>
      </trkpt>
      <trkpt lat="42.2423990" lon="-8.6924470">
        <ele>140.3</ele>
        <time>2021-05-20T12:45:00Z</time>
      </trkpt>
      <trkpt lat="42.2424120" lon="-8.6924310">
        <ele>140.4</ele>
        <time>2021-05-20T12:45:01Z</time>
      </trkpt>
      <trkpt lat="42.2424210" lon="-8.6924170">
        <ele>140.5</ele>
        <time>2021-05-20T12:45:02Z</time>
      </trkpt>
      <trkpt lat="42.2424330" lon="-8.6924080">
        <ele>140.7</ele>
        <time>2021-05-20T12:45:03Z</time>
      </trkpt>
      <trkpt lat="42.2424370" lon="-8.6923960">
        <ele>140.8</ele>
        <time>2021-05-20T12:45:04Z</time>
      </trkpt>
      <trkpt lat="42.2424530" lon="-8.6923860">
        <ele>140.9</ele>
        <time>2021-05-20T12:45:05Z</time>
      </trkpt>
      <trkpt lat="42.2424570" lon="-8.6923820">
        <ele>141.0</ele>
        <time>2021-05-20T12:45:06Z</time>
      </trkpt>
      <trkpt lat="42.2424600" lon="-8.6923710">
        <ele>141.1</ele>
        <time>2021-05-20T12:45:07Z</time>
      </trkpt>
      <trkpt lat="42.2424700" lon="-8.6923610">
        <ele>141.2</ele>
        <time>2021-05-20T12:45:08Z</time>
      </trkpt>
      <trkpt lat="42.2424780" lon="-8.6923540">
        <ele>141.3</ele>
        <time>2021-05-20T12:45:09Z</time>
      </trkpt>
      <trkpt lat="42.2424860" lon="-8.6923510">
        <ele>141.3</ele>
        <time>2021-05-20T12:45:10Z</time>
      </trkpt>
      <trkpt lat="42.2424900" lon="-8.6923460">
        <ele>141.4</ele>
        <time>2021-05-20T12:45:11Z</time>
      </trkpt>
      <trkpt lat="42.2425040" lon="-8.6923360">
        <ele>141.5</ele>
        <time>2021-05-20T12:45:12Z</time>
      </trkpt>
      <trkpt lat="42.2425090" lon="-8.6923300">
        <ele>141.6</ele>
        <time>2021-05-20T12:45:13Z</time>
      </trkpt>
      <trkpt lat="42.2425160" lon="-8.6923270">
        <ele>141.7</ele>
        <time>2021-05-20T12:45:14Z</time>
      </trkpt>
      <trkpt lat="42.2425260" lon="-8.6923170">
        <ele>141.8</ele>
        <time>2021-05-20T12:45:15Z</time>
      </trkpt>
      <trkpt lat="42.2425250" lon="-8.6923140">
        <ele>141.8</ele>
        <time>2021-05-20T12:45:16Z</time>
      </trkpt>
      <trkpt lat="42.2425430" lon="-8.6923010">
        <ele>142.0</ele>
        <time>2021-05-20T12:45:17Z</time>
      </trkpt>
      <trkpt lat="42.2425480" lon="-8.6922900">
        <ele>142.1</ele>
        <time>2021-05-20T12:45:18Z</time>
      </trkpt>
      <trkpt lat="42.2425480" lon="-8.6922820">
        <ele>142.1</ele>
        <time>2021-05-20T12:45:19Z</time>
      </trkpt>
      <trkpt lat="42.2425620" lon="-8.6922700">
        <ele>142.3</ele>
        <time>2021-05-20T12:45:20Z</time>
      </trkpt>
      <trkpt lat="42.2425700" lon="-8.6922660">
        <ele>142.3</ele>
        <time>2021-05-20T12:45:21Z</time>
      </trkpt>
      <trkpt lat="42.2425790" lon="-8.6922610">
        <ele>142.4</ele>
        <time>2021-05-20T12:45:22Z</time>
      </trkpt>
      <trkpt lat="42.2425870" lon="-8.6922560">
        <ele>142.5</ele>
        <time>2021-05-20T12:45:23Z</time>
      </trkpt>
      <trkpt lat="42.2425990" lon="-8.6922460">
        <ele>142.6</ele>
        <time>2021-05-20T12:45:24Z</time>
      </trkpt>
      <trkpt lat="42.2426100" lon="-8.6922400">
        <ele>142.7</ele>
        <time>2021-05-20T12:45:25Z</time>
      </trkpt>
      <trkpt lat="42.2426170" lon="-8.6922290">
        <ele>142.8</ele>
        <time>2021-05-20T12:45:26Z</time>
      </trkpt>
      <trkpt lat="42.2426300" lon="-8.6922260">
        <ele>142.9</ele>
        <time>2021-05-20T12:45:27Z</time>
      </trkpt>
      <trkpt lat="42.2426480" lon="-8.6922140">
        <ele>143.0</ele>
        <time>2021-05-20T12:45:28Z</time>
      </trkpt>
      <trkpt lat="42.2426570" lon="-8.6921990">
        <ele>143.2</ele>
        <time>2021-05-20T12:45:29Z</time>
      </trkpt>
      <trkpt lat="42.2426590" lon="-8.6921920">
        <ele>143.2</ele>
        <time>2021-05-20T12:45:30Z</time>
      </trkpt>
      <trkpt lat="42.2426740" lon="-8.6921810">
        <ele>143.3</ele>
        <time>2021-05-20T12:45:31Z</time>
      </trkpt>
      <trkpt lat="42.2426830" lon="-8.6921700">
        <ele>143.4</ele>
        <time>2021-05-20T12:45:32Z</time>
      </trkpt>
      <trkpt lat="42.2426930" lon="-8.6921610">
        <ele>143.5</ele>
        <time>2021-05-20T12:45:33Z</time>
      </trkpt>
      <trkpt lat="42.2427010" lon="-8.6921590">
        <ele>143.5</ele>
        <time>2021-05-20T12:45:34Z</time>
      </trkpt>
      <trkpt lat="42.2427120" lon="-8.6921520">
        <ele>143.6</ele>
        <time>2021-05-20T12:45:35Z</time>
      </trkpt>
      <trkpt lat="42.2427190" lon="-8.6921440">
        <ele>143.7</ele>
        <time>2021-05-20T12:45:36Z</time>
      </trkpt>
      <trkpt lat="42.2427270" lon="-8.6921390">
        <ele>143.7</ele>
        <time>2021-05-20T12:45:37Z</time>
      </trkpt>
      <trkpt lat="42.2427370" lon="-8.6921290">
        <ele>143.8</ele>
        <time>2021-05-20T12:45:38Z</time>
      </trkpt>
      <trkpt lat="42.2427420" lon="-8.6921220">
        <ele>143.8</ele>
        <time>2021-05-20T12:45:39Z</time>
      </trkpt>
      <trkpt lat="42.2427540" lon="-8.6921120">
        <ele>143.9</ele>
        <time>2021-05-20T12:45:40Z</time>
      </trkpt>
      <trkpt lat="42.2427720" lon="-8.6921000">
        <ele>144.0</ele>
        <time>2021-05-20T12:45:41Z</time>
      </trkpt>
      <trkpt lat="42.2427790" lon="-8.6920940">
        <ele>144.0</ele>
        <time>2021-05-20T12:45:42Z</time>
      </trkpt>
      <trkpt lat="42.2427870" lon="-8.6920870">
        <ele>144.1</ele>
        <time>2021-05-20T12:45:43Z</time>
      </trkpt>
      <trkpt lat="42.2427960" lon="-8.6920730">
        <ele>144.2</ele>
        <time>2021-05-20T12:45:44Z</time>
      </trkpt>
      <trkpt lat="42.2428030" lon="-8.6920670">
        <ele>144.2</ele>
        <time>2021-05-20T12:45:45Z</time>
      </trkpt>
      <trkpt lat="42.2428090" lon="-8.6920610">
        <ele>144.3</ele>
        <time>2021-05-20T12:45:46Z</time>
      </trkpt>
      <trkpt lat="42.2428150" lon="-8.6920550">
        <ele>144.3</ele>
        <time>2021-05-20T12:45:47Z</time>
      </trkpt>
      <trkpt lat="42.2428280" lon="-8.6920520">
        <ele>144.4</ele>
        <time>2021-05-20T12:45:48Z</time>
      </trkpt>
      <trkpt lat="42.2428450" lon="-8.6920460">
        <ele>144.4</ele>
        <time>2021-05-20T12:45:49Z</time>
      </trkpt>
      <trkpt lat="42.2428630" lon="-8.6920260">
        <ele>144.5</ele>
        <time>2021-05-20T12:45:50Z</time>
      </trkpt>
      <trkpt lat="42.2428690" lon="-8.6920210">
        <ele>144.6</ele>
        <time>2021-05-20T12:45:51Z</time>
      </trkpt>
      <trkpt lat="42.2428740" lon="-8.6920150">
        <ele>144.6</ele>
        <time>2021-05-20T12:45:52Z</time>
      </trkpt>
      <trkpt lat="42.2428820" lon="-8.6920110">
        <ele>144.6</ele>
        <time>2021-05-20T12:45:53Z</time>
      </trkpt>
      <trkpt lat="42.2428810" lon="-8.6920100">
        <ele>144.7</ele>
        <time>2021-05-20T12:45:54Z</time>
      </trkpt>
      <trkpt lat="42.2428900" lon="-8.6920100">
        <ele>144.7</ele>
        <time>2021-05-20T12:45:55Z</time>
      </trkpt>
      <trkpt lat="42.2428900" lon="-8.6920140">
        <ele>144.7</ele>
        <time>2021-05-20T12:45:56Z</time>
      </trkpt>
      <trkpt lat="42.2428930" lon="-8.6920140">
        <ele>144.7</ele>
        <time>2021-05-20T12:45:57Z</time>
      </trkpt>
      <trkpt lat="42.2428930" lon="-8.6920140">
        <ele>144.7</ele>
        <time>2021-05-20T12:45:58Z</time>
      </trkpt>
      <trkpt lat="42.2428980" lon="-8.6920150">
        <ele>144.7</ele>
        <time>2021-05-20T12:45:59Z</time>
      </trkpt>
      <trkpt lat="42.2428970" lon="-8.6920140">
        <ele>144.8</ele>
        <time>2021-05-20T12:46:00Z</time>
      </trkpt>
      <trkpt lat="42.2428970" lon="-8.6920160">
        <ele>144.8</ele>
        <time>2021-05-20T12:46:01Z</time>
      </trkpt>
      <trkpt lat="42.2428980" lon="-8.6920140">
        <ele>144.8</ele>
        <time>2021-05-20T12:46:02Z</time>
      </trkpt>
      <trkpt lat="42.2428960" lon="-8.6920120">
        <ele>144.8</ele>
        <time>2021-05-20T12:46:03Z</time>
      </trkpt>
      <trkpt lat="42.2428980" lon="-8.6920250">
        <ele>144.8</ele>
        <time>2021-05-20T12:46:04Z</time>
      </trkpt>
      <trkpt lat="42.2428990" lon="-8.6920250">
        <ele>144.8</ele>
        <time>2021-05-20T12:46:05Z</time>
      </trkpt>
      <trkpt lat="42.2429020" lon="-8.6920240">
        <ele>144.8</ele>
        <time>2021-05-20T12:46:06Z</time>
      </trkpt>
      <trkpt lat="42.2429020" lon="-8.6920240">
        <ele>144.8</ele>
        <time>2021-05-20T12:46:07Z</time>
      </trkpt>
      <trkpt lat="42.2429050" lon="-8.6920220">
        <ele>144.9</ele>
        <time>2021-05-20T12:46:08Z</time>
      </trkpt>
      <trkpt lat="42.2429030" lon="-8.6920230">
        <ele>144.9</ele>
        <time>2021-05-20T12:46:09Z</time>
      </trkpt>
      <trkpt lat="42.2429030" lon="-8.6920250">
        <ele>144.9</ele>
        <time>2021-05-20T12:46:10Z</time>
      </trkpt>
      <trkpt lat="42.2429040" lon="-8.6920270">
        <ele>144.9</ele>
        <time>2021-05-20T12:46:11Z</time>
      </trkpt>
      <trkpt lat="42.2429010" lon="-8.6920250">
        <ele>144.9</ele>
        <time>2021-05-20T12:46:12Z</time>
      </trkpt>
      <trkpt lat="42.2429020" lon="-8.6920290">
        <ele>144.9</ele>
        <time>2021-05-20T12:46:13Z</time>
      </trkpt>
      <trkpt lat="42.2429070" lon="-8.6920320">
        <ele>144.9</ele>
        <time>2021-05-20T12:46:14Z</time>
      </trkpt>
      <trkpt lat="42.2429100" lon="-8.6920310">
        <ele>144.9</ele>
        <time>2021-05-20T12:46:15Z</time>
      </trkpt>
      <trkpt lat="42.2429150" lon="-8.6920300">
        <ele>145.0</ele>
        <time>2021-05-20T12:46:16Z</time>
      </trkpt>
      <trkpt lat="42.2429200" lon="-8.6920280">
        <ele>145.0</ele>
        <time>2021-05-20T12:46:17Z</time>
      </trkpt>
      <trkpt lat="42.2429230" lon="-8.6920260">
        <ele>145.0</ele>
        <time>2021-05-20T12:46:18Z</time>
      </trkpt>
      <trkpt lat="42.2429290" lon="-8.6920160">
        <ele>145.0</ele>
        <time>2021-05-20T12:46:19Z</time>
      </trkpt>
      <trkpt lat="42.2429350" lon="-8.6919970">
        <ele>145.1</ele>
        <time>2021-05-20T12:46:20Z</time>
      </trkpt>
      <trkpt lat="42.2429400" lon="-8.6919860">
        <ele>145.2</ele>
        <time>2021-05-20T12:46:21Z</time>
      </trkpt>
      <trkpt lat="42.2429440" lon="-8.6919770">
        <ele>145.2</ele>
        <time>2021-05-20T12:46:22Z</time>
      </trkpt>
      <trkpt lat="42.2429520" lon="-8.6919650">
        <ele>145.2</ele>
        <time>2021-05-20T12:46:23Z</time>
      </trkpt>
      <trkpt lat="42.2429530" lon="-8.6919500">
        <ele>145.3</ele>
        <time>2021-05-20T12:46:24Z</time>
      </trkpt>
      <trkpt lat="42.2429640" lon="-8.6919370">
        <ele>145.4</ele>
        <time>2021-05-20T12:46:25Z</time>
      </trkpt>
      <trkpt lat="42.2429680" lon="-8.6919290">
        <ele>145.4</ele>
        <time>2021-05-20T12:46:26Z</time>
      </trkpt>
      <trkpt lat="42.2429770" lon="-8.6919230">
        <ele>145.4</ele>
        <time>2021-05-20T12:46:27Z</time>
      </trkpt>
      <trkpt lat="42.2429870" lon="-8.6919170">
        <ele>145.5</ele>
        <time>2021-05-20T12:46:28Z</time>
      </trkpt>
      <trkpt lat="42.2429970" lon="-8.6919080">
        <ele>145.5</ele>
        <time>2021-05-20T12:46:29Z</time>
      </trkpt>
      <trkpt lat="42.2430150" lon="-8.6918970">
        <ele>145.6</ele>
        <time>2021-05-20T12:46:30Z</time>
      </trkpt>
      <trkpt lat="42.2430210" lon="-8.6918950">
        <ele>145.7</ele>
        <time>2021-05-20T12:46:31Z</time>
      </trkpt>
      <trkpt lat="42.2430390" lon="-8.6918970">
        <ele>145.7</ele>
        <time>2021-05-20T12:46:32Z</time>
      </trkpt>
      <trkpt lat="42.2430510" lon="-8.6918930">
        <ele>145.8</ele>
        <time>2021-05-20T12:46:33Z</time>
      </trkpt>
      <trkpt lat="42.2430600" lon="-8.6918870">
        <ele>145.9</ele>
        <time>2021-05-20T12:46:34Z</time>
      </trkpt>
      <trkpt lat="42.2430680" lon="-8.6918860">
        <ele>145.9</ele>
        <time>2021-05-20T12:46:35Z</time>
      </trkpt>
      <trkpt lat="42.2430810" lon="-8.6918750">
        <ele>146.0</ele>
        <time>2021-05-20T12:46:36Z</time>
      </trkpt>
      <trkpt lat="42.2430860" lon="-8.6918640">
        <ele>146.0</ele>
        <time>2021-05-20T12:46:37Z</time>
      </trkpt>
      <trkpt lat="42.2430970" lon="-8.6918580">
        <ele>146.1</ele>
        <time>2021-05-20T12:46:38Z</time>
      </trkpt>
      <trkpt lat="42.2431080" lon="-8.6918470">
        <ele>146.2</ele>
        <time>2021-05-20T12:46:39Z</time>
      </trkpt>
      <trkpt lat="42.2431180" lon="-8.6918430">
        <ele>146.2</ele>
        <time>2021-05-20T12:46:40Z</time>
      </trkpt>
      <trkpt lat="42.2431250" lon="-8.6918380">
        <ele>146.3</ele>
        <time>2021-05-20T12:46:41Z</time>
      </trkpt>
      <trkpt lat="42.2431360" lon="-8.6918240">
        <ele>146.4</ele>
        <time>2021-05-20T12:46:42Z</time>
      </trkpt>
      <trkpt lat="42.2431420" lon="-8.6918130">
        <ele>146.4</ele>
        <time>2021-05-20T12:46:43Z</time>
      </trkpt>
      <trkpt lat="42.2431530" lon="-8.6918010">
        <ele>146.5</ele>
        <time>2021-05-20T12:46:44Z</time>
      </trkpt>
      <trkpt lat="42.2431570" lon="-8.6917890">
        <ele>146.6</ele>
        <time>2021-05-20T12:46:45Z</time>
      </trkpt>
      <trkpt lat="42.2431670" lon="-8.6917700">
        <ele>146.7</ele>
        <time>2021-05-20T12:46:46Z</time>
      </trkpt>
      <trkpt lat="42.2431780" lon="-8.6917590">
        <ele>146.8</ele>
        <time>2021-05-20T12:46:47Z</time>
      </trkpt>
      <trkpt lat="42.2431870" lon="-8.6917420">
        <ele>146.9</ele>
        <time>2021-05-20T12:46:48Z</time>
      </trkpt>
      <trkpt lat="42.2431930" lon="-8.6917340">
        <ele>146.9</ele>
        <time>2021-05-20T12:46:49Z</time>
      </trkpt>
      <trkpt lat="42.2431980" lon="-8.6917250">
        <ele>147.0</ele>
        <time>2021-05-20T12:46:50Z</time>
      </trkpt>
      <trkpt lat="42.2432040" lon="-8.6917160">
        <ele>147.0</ele>
        <time>2021-05-20T12:46:51Z</time>
      </trkpt>
      <trkpt lat="42.2432100" lon="-8.6917120">
        <ele>147.1</ele>
        <time>2021-05-20T12:46:52Z</time>
      </trkpt>
      <trkpt lat="42.2432110" lon="-8.6917040">
        <ele>147.1</ele>
        <time>2021-05-20T12:46:53Z</time>
      </trkpt>
      <trkpt lat="42.2432160" lon="-8.6916930">
        <ele>147.2</ele>
        <time>2021-05-20T12:46:54Z</time>
      </trkpt>
      <trkpt lat="42.2432260" lon="-8.6916810">
        <ele>147.3</ele>
        <time>2021-05-20T12:46:55Z</time>
      </trkpt>
      <trkpt lat="42.2432400" lon="-8.6916700">
        <ele>147.4</ele>
        <time>2021-05-20T12:46:56Z</time>
      </trkpt>
      <trkpt lat="42.2432450" lon="-8.6916630">
        <ele>147.4</ele>
        <time>2021-05-20T12:46:57Z</time>
      </trkpt>
      <trkpt lat="42.2432510" lon="-8.6916550">
        <ele>147.5</ele>
        <time>2021-05-20T12:46:58Z</time>
      </trkpt>
      <trkpt lat="42.2432560" lon="-8.6916470">
        <ele>147.5</ele>
        <time>2021-05-20T12:46:59Z</time>
      </trkpt>
      <trkpt lat="42.2432670" lon="-8.6916370">
        <ele>147.6</ele>
        <time>2021-05-20T12:47:00Z</time>
      </trkpt>
      <trkpt lat="42.2432680" lon="-8.6916320">
        <ele>147.6</ele>
        <time>2021-05-20T12:47:01Z</time>
      </trkpt>
      <trkpt lat="42.2432710" lon="-8.6916250">
        <ele>147.7</ele>
        <time>2021-05-20T12:47:02Z</time>
      </trkpt>
      <trkpt lat="42.2432690" lon="-8.6916230">
        <ele>147.7</ele>
        <time>2021-05-20T12:47:03Z</time>
      </trkpt>
      <trkpt lat="42.2432740" lon="-8.6916060">
        <ele>147.8</ele>
        <time>2021-05-20T12:47:04Z</time>
      </trkpt>
      <trkpt lat="42.2432830" lon="-8.6915890">
        <ele>147.9</ele>
        <time>2021-05-20T12:47:05Z</time>
      </trkpt>
      <trkpt lat="42.2432980" lon="-8.6915730">
        <ele>148.0</ele>
        <time>2021-05-20T12:47:06Z</time>
      </trkpt>
      <trkpt lat="42.2433090" lon="-8.6915610">
        <ele>148.1</ele>
        <time>2021-05-20T12:47:07Z</time>
      </trkpt>
      <trkpt lat="42.2433240" lon="-8.6915450">
        <ele>148.2</ele>
        <time>2021-05-20T12:47:08Z</time>
      </trkpt>
      <trkpt lat="42.2433370" lon="-8.6915350">
        <ele>148.3</ele>
        <time>2021-05-20T12:47:09Z</time>
      </trkpt>
      <trkpt lat="42.2433520" lon="-8.6915190">
        <ele>148.5</ele>
        <time>2021-05-20T12:47:10Z</time>
      </trkpt>
      <trkpt lat="42.2433810" lon="-8.6915010">
        <ele>148.7</ele>
        <time>2021-05-20T12:47:11Z</time>
      </trkpt>
      <trkpt lat="42.2433870" lon="-8.6914960">
        <ele>148.8</ele>
        <time>2021-05-20T12:47:12Z</time>
      </trkpt>
      <trkpt lat="42.2434010" lon="-8.6914850">
        <ele>148.9</ele>
        <time>2021-05-20T12:47:13Z</time>
      </trkpt>
      <trkpt lat="42.2434060" lon="-8.6914790">
        <ele>148.9</ele>
        <time>2021-05-20T12:47:14Z</time>
      </trkpt>
      <trkpt lat="42.2434120" lon="-8.6914720">
        <ele>149.0</ele>
        <time>2021-05-20T12:47:15Z</time>
      </trkpt>
      <trkpt lat="42.2434170" lon="-8.6914660">
        <ele>149.0</ele>
        <time>2021-05-20T12:47:16Z</time>
      </trkpt>
      <trkpt lat="42.2434230" lon="-8.6914570">
        <ele>149.1</ele>
        <time>2021-05-20T12:47:17Z</time>
      </trkpt>
      <trkpt lat="42.2434310" lon="-8.6914510">
        <ele>149.2</ele>
        <time>2021-05-20T12:47:18Z</time>
      </trkpt>
      <trkpt lat="42.2434390" lon="-8.6914390">
        <ele>149.3</ele>
        <time>2021-05-20T12:47:19Z</time>
      </trkpt>
      <trkpt lat="42.2434490" lon="-8.6914300">
        <ele>149.3</ele>
        <time>2021-05-20T12:47:20Z</time>
      </trkpt>
      <trkpt lat="42.2434640" lon="-8.6914180">
        <ele>149.5</ele>
        <time>2021-05-20T12:47:21Z</time>
      </trkpt>
      <trkpt lat="42.2434690" lon="-8.6914130">
        <ele>149.5</ele>
        <time>2021-05-20T12:47:22Z</time>
      </trkpt>
      <trkpt lat="42.2434750" lon="-8.6914050">
        <ele>149.6</ele>
        <time>2021-05-20T12:47:23Z</time>
      </trkpt>
      <trkpt lat="42.2434840" lon="-8.6913970">
        <ele>149.7</ele>
        <time>2021-05-20T12:47:24Z</time>
      </trkpt>
      <trkpt lat="42.2434870" lon="-8.6913870">
        <ele>149.7</ele>
        <time>2021-05-20T12:47:25Z</time>
      </trkpt>
      <trkpt lat="42.2435000" lon="-8.6913670">
        <ele>149.9</ele>
        <time>2021-05-20T12:47:26Z</time>
      </trkpt>
      <trkpt lat="42.2435080" lon="-8.6913560">
        <ele>150.0</ele>
        <time>2021-05-20T12:47:27Z</time>
      </trkpt>
      <trkpt lat="42.2435160" lon="-8.6913460">
        <ele>150.1</ele>
        <time>2021-05-20T12:47:28Z</time>
      </trkpt>
      <trkpt lat="42.2435200" lon="-8.6913340">
        <ele>150.2</ele>
        <time>2021-05-20T12:47:29Z</time>
      </trkpt>
      <trkpt lat="42.2435290" lon="-8.6913160">
        <ele>150.3</ele>
        <time>2021-05-20T12:47:30Z</time>
      </trkpt>
      <trkpt lat="42.2435310" lon="-8.6913060">
        <ele>150.3</ele>
        <time>2021-05-20T12:47:31Z</time>
      </trkpt>
      <trkpt lat="42.2435330" lon="-8.6912930">
        <ele>150.4</ele>
        <time>2021-05-20T12:47:32Z</time>
      </trkpt>
      <trkpt lat="42.2435460" lon="-8.6912790">
        <ele>150.6</ele>
        <time>2021-05-20T12:47:33Z</time>
      </trkpt>
      <trkpt lat="42.2435520" lon="-8.6912720">
        <ele>150.6</ele>
        <time>2021-05-20T12:47:34Z</time>
      </trkpt>
      <trkpt lat="42.2435560" lon="-8.6912650">
        <ele>150.7</ele>
        <time>2021-05-20T12:47:35Z</time>
      </trkpt>
      <trkpt lat="42.2435610" lon="-8.6912550">
        <ele>150.7</ele>
        <time>2021-05-20T12:47:36Z</time>
      </trkpt>
      <trkpt lat="42.2435660" lon="-8.6912480">
        <ele>150.8</ele>
        <time>2021-05-20T12:47:37Z</time>
      </trkpt>
      <trkpt lat="42.2435720" lon="-8.6912350">
        <ele>150.9</ele>
        <time>2021-05-20T12:47:38Z</time>
      </trkpt>
      <trkpt lat="42.2435780" lon="-8.6912240">
        <ele>151.0</ele>
        <time>2021-05-20T12:47:39Z</time>
      </trkpt>
      <trkpt lat="42.2435780" lon="-8.6912180">
        <ele>151.0</ele>
        <time>2021-05-20T12:47:40Z</time>
      </trkpt>
      <trkpt lat="42.2435810" lon="-8.6912100">
        <ele>151.1</ele>
        <time>2021-05-20T12:47:41Z</time>
      </trkpt>
      <trkpt lat="42.2435880" lon="-8.6911910">
        <ele>151.1</ele>
        <time>2021-05-20T12:47:42Z</time>
      </trkpt>
      <trkpt lat="42.2436000" lon="-8.6911770">
        <ele>151.4</ele>
        <time>2021-05-20T12:47:43Z</time>
      </trkpt>
      <trkpt lat="42.2436040" lon="-8.6911710">
        <ele>151.4</ele>
        <time>2021-05-20T12:47:44Z</time>
      </trkpt>
      <trkpt lat="42.2436090" lon="-8.6911640">
        <ele>151.5</ele>
        <time>2021-05-20T12:47:45Z</time>
      </trkpt>
      <trkpt lat="42.2436130" lon="-8.6911570">
        <ele>151.6</ele>
        <time>2021-05-20T12:47:46Z</time>
      </trkpt>
      <trkpt lat="42.2436240" lon="-8.6911310">
        <ele>151.9</ele>
        <time>2021-05-20T12:47:47Z</time>
      </trkpt>
      <trkpt lat="42.2436280" lon="-8.6911210">
        <ele>152.0</ele>
        <time>2021-05-20T12:47:48Z</time>
      </trkpt>
      <trkpt lat="42.2436330" lon="-8.6911100">
        <ele>152.1</ele>
        <time>2021-05-20T12:47:49Z</time>
      </trkpt>
      <trkpt lat="42.2436350" lon="-8.6911040">
        <ele>152.2</ele>
        <time>2021-05-20T12:47:50Z</time>
      </trkpt>
      <trkpt lat="42.2436380" lon="-8.6910950">
        <ele>152.3</ele>
        <time>2021-05-20T12:47:51Z</time>
      </trkpt>
      <trkpt lat="42.2436490" lon="-8.6910760">
        <ele>152.5</ele>
        <time>2021-05-20T12:47:52Z</time>
      </trkpt>
      <trkpt lat="42.2436610" lon="-8.6910470">
        <ele>152.9</ele>
        <time>2021-05-20T12:47:53Z</time>
      </trkpt>
      <trkpt lat="42.2436650" lon="-8.6910350">
        <ele>153.0</ele>
        <time>2021-05-20T12:47:54Z</time>
      </trkpt>
      <trkpt lat="42.2436700" lon="-8.6910230">
        <ele>153.1</ele>
        <time>2021-05-20T12:47:55Z</time>
      </trkpt>
      <trkpt lat="42.2436730" lon="-8.6910030">
        <ele>153.3</ele>
        <time>2021-05-20T12:47:56Z</time>
      </trkpt>
      <trkpt lat="42.2436790" lon="-8.6909930">
        <ele>153.5</ele>
        <time>2021-05-20T12:47:57Z</time>
      </trkpt>
      <trkpt lat="42.2436860" lon="-8.6909830">
        <ele>153.6</ele>
        <time>2021-05-20T12:47:58Z</time>
      </trkpt>
      <trkpt lat="42.2436930" lon="-8.6909730">
        <ele>153.7</ele>
        <time>2021-05-20T12:48:00Z</time>
      </trkpt>
      <trkpt lat="42.2437000" lon="-8.6909630">
        <ele>153.9</ele>
        <time>2021-05-20T12:48:01Z</time>
      </trkpt>
      <trkpt lat="42.2437060" lon="-8.6909530">
        <ele>154.0</ele>
        <time>2021-05-20T12:48:02Z</time>
      </trkpt>
      <trkpt lat="42.2437130" lon="-8.6909430">
        <ele>154.1</ele>
        <time>2021-05-20T12:48:03Z</time>
      </trkpt>
      <trkpt lat="42.2437190" lon="-8.6909290">
        <ele>154.3</ele>
        <time>2021-05-20T12:48:04Z</time>
      </trkpt>
      <trkpt lat="42.2437250" lon="-8.6909270">
        <ele>154.4</ele>
        <time>2021-05-20T12:48:05Z</time>
      </trkpt>
      <trkpt lat="42.2437350" lon="-8.6909060">
        <ele>154.5</ele>
        <time>2021-05-20T12:48:06Z</time>
      </trkpt>
      <trkpt lat="42.2437450" lon="-8.6908880">
        <ele>154.6</ele>
        <time>2021-05-20T12:48:07Z</time>
      </trkpt>
      <trkpt lat="42.2437510" lon="-8.6908700">
        <ele>154.6</ele>
        <time>2021-05-20T12:48:08Z</time>
      </trkpt>
      <trkpt lat="42.2437590" lon="-8.6908420">
        <ele>154.7</ele>
        <time>2021-05-20T12:48:09Z</time>
      </trkpt>
      <trkpt lat="42.2437620" lon="-8.6908340">
        <ele>154.7</ele>
        <time>2021-05-20T12:48:10Z</time>
      </trkpt>
      <trkpt lat="42.2437650" lon="-8.6908250">
        <ele>154.7</ele>
        <time>2021-05-20T12:48:11Z</time>
      </trkpt>
      <trkpt lat="42.2437660" lon="-8.6908180">
        <ele>154.7</ele>
        <time>2021-05-20T12:48:12Z</time>
      </trkpt>
      <trkpt lat="42.2437760" lon="-8.6908010">
        <ele>154.8</ele>
        <time>2021-05-20T12:48:13Z</time>
      </trkpt>
      <trkpt lat="42.2437860" lon="-8.6907890">
        <ele>154.8</ele>
        <time>2021-05-20T12:48:14Z</time>
      </trkpt>
      <trkpt lat="42.2437990" lon="-8.6907650">
        <ele>154.8</ele>
        <time>2021-05-20T12:48:15Z</time>
      </trkpt>
      <trkpt lat="42.2438040" lon="-8.6907550">
        <ele>154.9</ele>
        <time>2021-05-20T12:48:16Z</time>
      </trkpt>
      <trkpt lat="42.2438100" lon="-8.6907440">
        <ele>154.9</ele>
        <time>2021-05-20T12:48:17Z</time>
      </trkpt>
      <trkpt lat="42.2438170" lon="-8.6907360">
        <ele>154.9</ele>
        <time>2021-05-20T12:48:18Z</time>
      </trkpt>
      <trkpt lat="42.2438240" lon="-8.6907260">
        <ele>154.9</ele>
        <time>2021-05-20T12:48:19Z</time>
      </trkpt>
      <trkpt lat="42.2438290" lon="-8.6907130">
        <ele>154.9</ele>
        <time>2021-05-20T12:48:20Z</time>
      </trkpt>
      <trkpt lat="42.2438420" lon="-8.6906750">
        <ele>155.0</ele>
        <time>2021-05-20T12:48:21Z</time>
      </trkpt>
      <trkpt lat="42.2438430" lon="-8.6906630">
        <ele>155.0</ele>
        <time>2021-05-20T12:48:22Z</time>
      </trkpt>
      <trkpt lat="42.2438470" lon="-8.6906490">
        <ele>155.0</ele>
        <time>2021-05-20T12:48:23Z</time>
      </trkpt>
      <trkpt lat="42.2438520" lon="-8.6906450">
        <ele>154.9</ele>
        <time>2021-05-20T12:48:24Z</time>
      </trkpt>
      <trkpt lat="42.2438610" lon="-8.6906440">
        <ele>154.9</ele>
        <time>2021-05-20T12:48:25Z</time>
      </trkpt>
      <trkpt lat="42.2438640" lon="-8.6906370">
        <ele>154.8</ele>
        <time>2021-05-20T12:48:26Z</time>
      </trkpt>
      <trkpt lat="42.2438630" lon="-8.6906270">
        <ele>154.8</ele>
        <time>2021-05-20T12:48:27Z</time>
      </trkpt>
      <trkpt lat="42.2438650" lon="-8.6906190">
        <ele>154.8</ele>
        <time>2021-05-20T12:48:28Z</time>
      </trkpt>
      <trkpt lat="42.2438660" lon="-8.6906140">
        <ele>154.8</ele>
        <time>2021-05-20T12:48:29Z</time>
      </trkpt>
      <trkpt lat="42.2438700" lon="-8.6906010">
        <ele>154.8</ele>
        <time>2021-05-20T12:48:30Z</time>
      </trkpt>
      <trkpt lat="42.2438670" lon="-8.6905990">
        <ele>154.8</ele>
        <time>2021-05-20T12:48:31Z</time>
      </trkpt>
      <trkpt lat="42.2438730" lon="-8.6905940">
        <ele>154.7</ele>
        <time>2021-05-20T12:48:32Z</time>
      </trkpt>
      <trkpt lat="42.2438740" lon="-8.6905950">
        <ele>154.7</ele>
        <time>2021-05-20T12:48:33Z</time>
      </trkpt>
      <trkpt lat="42.2438730" lon="-8.6905910">
        <ele>154.7</ele>
        <time>2021-05-20T12:48:34Z</time>
      </trkpt>
      <trkpt lat="42.2438760" lon="-8.6905890">
        <ele>154.7</ele>
        <time>2021-05-20T12:48:35Z</time>
      </trkpt>
      <trkpt lat="42.2438790" lon="-8.6905880">
        <ele>154.7</ele>
        <time>2021-05-20T12:48:36Z</time>
      </trkpt>
      <trkpt lat="42.2438840" lon="-8.6905870">
        <ele>154.7</ele>
        <time>2021-05-20T12:48:37Z</time>
      </trkpt>
      <trkpt lat="42.2438890" lon="-8.6905760">
        <ele>154.7</ele>
        <time>2021-05-20T12:48:38Z</time>
      </trkpt>
      <trkpt lat="42.2438930" lon="-8.6905670">
        <ele>154.6</ele>
        <time>2021-05-20T12:48:39Z</time>
      </trkpt>
      <trkpt lat="42.2438940" lon="-8.6905700">
        <ele>154.6</ele>
        <time>2021-05-20T12:48:40Z</time>
      </trkpt>
      <trkpt lat="42.2439020" lon="-8.6905660">
        <ele>154.6</ele>
        <time>2021-05-20T12:48:41Z</time>
      </trkpt>
      <trkpt lat="42.2439110" lon="-8.6905630">
        <ele>154.6</ele>
        <time>2021-05-20T12:48:42Z</time>
      </trkpt>
      <trkpt lat="42.2439220" lon="-8.6905510">
        <ele>154.5</ele>
        <time>2021-05-20T12:48:43Z</time>
      </trkpt>
      <trkpt lat="42.2439350" lon="-8.6905340">
        <ele>154.5</ele>
        <time>2021-05-20T12:48:44Z</time>
      </trkpt>
      <trkpt lat="42.2439420" lon="-8.6905230">
        <ele>154.5</ele>
        <time>2021-05-20T12:48:45Z</time>
      </trkpt>
      <trkpt lat="42.2439520" lon="-8.6905080">
        <ele>154.4</ele>
        <time>2021-05-20T12:48:46Z</time>
      </trkpt>
      <trkpt lat="42.2439580" lon="-8.6905020">
        <ele>154.4</ele>
        <time>2021-05-20T12:48:47Z</time>
      </trkpt>
      <trkpt lat="42.2439650" lon="-8.6904960">
        <ele>154.4</ele>
        <time>2021-05-20T12:48:48Z</time>
      </trkpt>
      <trkpt lat="42.2439710" lon="-8.6904900">
        <ele>154.4</ele>
        <time>2021-05-20T12:48:49Z</time>
      </trkpt>
      <trkpt lat="42.2439760" lon="-8.6904820">
        <ele>154.3</ele>
        <time>2021-05-20T12:48:50Z</time>
      </trkpt>
      <trkpt lat="42.2439830" lon="-8.6904750">
        <ele>154.3</ele>
        <time>2021-05-20T12:48:51Z</time>
      </trkpt>
      <trkpt lat="42.2439940" lon="-8.6904610">
        <ele>154.3</ele>
        <time>2021-05-20T12:48:52Z</time>
      </trkpt>
      <trkpt lat="42.2440100" lon="-8.6904470">
        <ele>154.2</ele>
        <time>2021-05-20T12:48:53Z</time>
      </trkpt>
      <trkpt lat="42.2440180" lon="-8.6904420">
        <ele>154.2</ele>
        <time>2021-05-20T12:48:54Z</time>
      </trkpt>
      <trkpt lat="42.2440270" lon="-8.6904370">
        <ele>154.2</ele>
        <time>2021-05-20T12:48:55Z</time>
      </trkpt>
      <trkpt lat="42.2440350" lon="-8.6904350">
        <ele>154.2</ele>
        <time>2021-05-20T12:48:56Z</time>
      </trkpt>
      <trkpt lat="42.2440470" lon="-8.6904260">
        <ele>154.1</ele>
        <time>2021-05-20T12:48:57Z</time>
      </trkpt>
      <trkpt lat="42.2440510" lon="-8.6904170">
        <ele>154.1</ele>
        <time>2021-05-20T12:48:58Z</time>
      </trkpt>
      <trkpt lat="42.2440660" lon="-8.6903980">
        <ele>154.1</ele>
        <time>2021-05-20T12:48:59Z</time>
      </trkpt>
      <trkpt lat="42.2440760" lon="-8.6903880">
        <ele>154.0</ele>
        <time>2021-05-20T12:49:00Z</time>
      </trkpt>
      <trkpt lat="42.2440870" lon="-8.6903740">
        <ele>154.0</ele>
        <time>2021-05-20T12:49:01Z</time>
      </trkpt>
      <trkpt lat="42.2440950" lon="-8.6903650">
        <ele>154.0</ele>
        <time>2021-05-20T12:49:02Z</time>
      </trkpt>
      <trkpt lat="42.2441030" lon="-8.6903550">
        <ele>154.0</ele>
        <time>2021-05-20T12:49:03Z</time>
      </trkpt>
      <trkpt lat="42.2441130" lon="-8.6903400">
        <ele>153.9</ele>
        <time>2021-05-20T12:49:04Z</time>
      </trkpt>
      <trkpt lat="42.2441250" lon="-8.6903290">
        <ele>153.9</ele>
        <time>2021-05-20T12:49:05Z</time>
      </trkpt>
      <trkpt lat="42.2441390" lon="-8.6903220">
        <ele>153.9</ele>
        <time>2021-05-20T12:49:06Z</time>
      </trkpt>
      <trkpt lat="42.2441420" lon="-8.6903050">
        <ele>153.8</ele>
        <time>2021-05-20T12:49:07Z</time>
      </trkpt>
      <trkpt lat="42.2441470" lon="-8.6902960">
        <ele>153.8</ele>
        <time>2021-05-20T12:49:08Z</time>
      </trkpt>
      <trkpt lat="42.2441590" lon="-8.6902850">
        <ele>153.8</ele>
        <time>2021-05-20T12:49:09Z</time>
      </trkpt>
      <trkpt lat="42.2441670" lon="-8.6902740">
        <ele>153.7</ele>
        <time>2021-05-20T12:49:10Z</time>
      </trkpt>
      <trkpt lat="42.2441740" lon="-8.6902680">
        <ele>153.7</ele>
        <time>2021-05-20T12:49:11Z</time>
      </trkpt>
      <trkpt lat="42.2441860" lon="-8.6902440">
        <ele>153.6</ele>
        <time>2021-05-20T12:49:12Z</time>
      </trkpt>
      <trkpt lat="42.2441910" lon="-8.6902360">
        <ele>153.6</ele>
        <time>2021-05-20T12:49:13Z</time>
      </trkpt>
      <trkpt lat="42.2441970" lon="-8.6902270">
        <ele>153.6</ele>
        <time>2021-05-20T12:49:14Z</time>
      </trkpt>
      <trkpt lat="42.2442090" lon="-8.6902160">
        <ele>153.5</ele>
        <time>2021-05-20T12:49:15Z</time>
      </trkpt>
      <trkpt lat="42.2442260" lon="-8.6902010">
        <ele>153.4</ele>
        <time>2021-05-20T12:49:16Z</time>
      </trkpt>
      <trkpt lat="42.2442370" lon="-8.6901790">
        <ele>153.3</ele>
        <time>2021-05-20T12:49:17Z</time>
      </trkpt>
      <trkpt lat="42.2442470" lon="-8.6901680">
        <ele>153.3</ele>
        <time>2021-05-20T12:49:18Z</time>
      </trkpt>
      <trkpt lat="42.2442640" lon="-8.6901500">
        <ele>153.2</ele>
        <time>2021-05-20T12:49:19Z</time>
      </trkpt>
      <trkpt lat="42.2442740" lon="-8.6901460">
        <ele>153.1</ele>
        <time>2021-05-20T12:49:20Z</time>
      </trkpt>
      <trkpt lat="42.2442830" lon="-8.6901410">
        <ele>153.1</ele>
        <time>2021-05-20T12:49:21Z</time>
      </trkpt>
      <trkpt lat="42.2443060" lon="-8.6901270">
        <ele>153.0</ele>
        <time>2021-05-20T12:49:22Z</time>
      </trkpt>
      <trkpt lat="42.2443110" lon="-8.6901230">
        <ele>152.9</ele>
        <time>2021-05-20T12:49:23Z</time>
      </trkpt>
      <trkpt lat="42.2443160" lon="-8.6901190">
        <ele>152.9</ele>
        <time>2021-05-20T12:49:24Z</time>
      </trkpt>
      <trkpt lat="42.2443380" lon="-8.6900970">
        <ele>152.8</ele>
        <time>2021-05-20T12:49:25Z</time>
      </trkpt>
      <trkpt lat="42.2443470" lon="-8.6900900">
        <ele>152.7</ele>
        <time>2021-05-20T12:49:26Z</time>
      </trkpt>
      <trkpt lat="42.2443570" lon="-8.6900750">
        <ele>152.6</ele>
        <time>2021-05-20T12:49:27Z</time>
      </trkpt>
      <trkpt lat="42.2443720" lon="-8.6900670">
        <ele>152.6</ele>
        <time>2021-05-20T12:49:28Z</time>
      </trkpt>
      <trkpt lat="42.2443850" lon="-8.6900600">
        <ele>152.5</ele>
        <time>2021-05-20T12:49:29Z</time>
      </trkpt>
      <trkpt lat="42.2443950" lon="-8.6900570">
        <ele>152.4</ele>
        <time>2021-05-20T12:49:30Z</time>
      </trkpt>
      <trkpt lat="42.2443990" lon="-8.6900560">
        <ele>152.4</ele>
        <time>2021-05-20T12:49:31Z</time>
      </trkpt>
      <trkpt lat="42.2444190" lon="-8.6900550">
        <ele>152.3</ele>
        <time>2021-05-20T12:49:32Z</time>
      </trkpt>
      <trkpt lat="42.2444280" lon="-8.6900550">
        <ele>152.3</ele>
        <time>2021-05-20T12:49:33Z</time>
      </trkpt>
      <trkpt lat="42.2444360" lon="-8.6900550">
        <ele>152.3</ele>
        <time>2021-05-20T12:49:34Z</time>
      </trkpt>
      <trkpt lat="42.2444470" lon="-8.6900580">
        <ele>152.2</ele>
        <time>2021-05-20T12:49:35Z</time>
      </trkpt>
      <trkpt lat="42.2444500" lon="-8.6900560">
        <ele>152.2</ele>
        <time>2021-05-20T12:49:36Z</time>
      </trkpt>
      <trkpt lat="42.2444590" lon="-8.6900530">
        <ele>152.1</ele>
        <time>2021-05-20T12:49:37Z</time>
      </trkpt>
      <trkpt lat="42.2444660" lon="-8.6900560">
        <ele>152.1</ele>
        <time>2021-05-20T12:49:38Z</time>
      </trkpt>
      <trkpt lat="42.2444870" lon="-8.6900540">
        <ele>152.0</ele>
        <time>2021-05-20T12:49:39Z</time>
      </trkpt>
      <trkpt lat="42.2444950" lon="-8.6900530">
        <ele>152.0</ele>
        <time>2021-05-20T12:49:40Z</time>
      </trkpt>
      <trkpt lat="42.2445030" lon="-8.6900520">
        <ele>152.0</ele>
        <time>2021-05-20T12:49:41Z</time>
      </trkpt>
      <trkpt lat="42.2445190" lon="-8.6900510">
        <ele>151.9</ele>
        <time>2021-05-20T12:49:42Z</time>
      </trkpt>
      <trkpt lat="42.2445270" lon="-8.6900500">
        <ele>151.9</ele>
        <time>2021-05-20T12:49:43Z</time>
      </trkpt>
      <trkpt lat="42.2445360" lon="-8.6900480">
        <ele>151.9</ele>
        <time>2021-05-20T12:49:44Z</time>
      </trkpt>
      <trkpt lat="42.2445440" lon="-8.6900470">
        <ele>151.8</ele>
        <time>2021-05-20T12:49:45Z</time>
      </trkpt>
      <trkpt lat="42.2445570" lon="-8.6900410">
        <ele>151.8</ele>
        <time>2021-05-20T12:49:46Z</time>
      </trkpt>
      <trkpt lat="42.2445640" lon="-8.6900370">
        <ele>151.8</ele>
        <time>2021-05-20T12:49:47Z</time>
      </trkpt>
      <trkpt lat="42.2445710" lon="-8.6900380">
        <ele>151.8</ele>
        <time>2021-05-20T12:49:48Z</time>
      </trkpt>
      <trkpt lat="42.2445970" lon="-8.6900290">
        <ele>151.7</ele>
        <time>2021-05-20T12:49:49Z</time>
      </trkpt>
      <trkpt lat="42.2446030" lon="-8.6900240">
        <ele>151.7</ele>
        <time>2021-05-20T12:49:50Z</time>
      </trkpt>
      <trkpt lat="42.2446090" lon="-8.6900190">
        <ele>151.7</ele>
        <time>2021-05-20T12:49:51Z</time>
      </trkpt>
      <trkpt lat="42.2446160" lon="-8.6900160">
        <ele>151.7</ele>
        <time>2021-05-20T12:49:52Z</time>
      </trkpt>
      <trkpt lat="42.2446270" lon="-8.6900090">
        <ele>151.7</ele>
        <time>2021-05-20T12:49:53Z</time>
      </trkpt>
      <trkpt lat="42.2446370" lon="-8.6900040">
        <ele>151.7</ele>
        <time>2021-05-20T12:49:54Z</time>
      </trkpt>
      <trkpt lat="42.2446530" lon="-8.6899960">
        <ele>151.7</ele>
        <time>2021-05-20T12:49:55Z</time>
      </trkpt>
      <trkpt lat="42.2446690" lon="-8.6899970">
        <ele>151.7</ele>
        <time>2021-05-20T12:49:56Z</time>
      </trkpt>
      <trkpt lat="42.2446910" lon="-8.6899950">
        <ele>151.8</ele>
        <time>2021-05-20T12:49:57Z</time>
      </trkpt>
      <trkpt lat="42.2447000" lon="-8.6899940">
        <ele>151.8</ele>
        <time>2021-05-20T12:49:58Z</time>
      </trkpt>
      <trkpt lat="42.2447080" lon="-8.6899920">
        <ele>151.8</ele>
        <time>2021-05-20T12:49:59Z</time>
      </trkpt>
      <trkpt lat="42.2447140" lon="-8.6899850">
        <ele>151.8</ele>
        <time>2021-05-20T12:50:00Z</time>
      </trkpt>
      <trkpt lat="42.2447220" lon="-8.6899770">
        <ele>151.9</ele>
        <time>2021-05-20T12:50:01Z</time>
      </trkpt>
      <trkpt lat="42.2447360" lon="-8.6899760">
        <ele>151.9</ele>
        <time>2021-05-20T12:50:02Z</time>
      </trkpt>
      <trkpt lat="42.2447500" lon="-8.6899750">
        <ele>152.0</ele>
        <time>2021-05-20T12:50:03Z</time>
      </trkpt>
      <trkpt lat="42.2447580" lon="-8.6899660">
        <ele>152.0</ele>
        <time>2021-05-20T12:50:04Z</time>
      </trkpt>
      <trkpt lat="42.2447710" lon="-8.6899630">
        <ele>152.1</ele>
        <time>2021-05-20T12:50:05Z</time>
      </trkpt>
      <trkpt lat="42.2447840" lon="-8.6899620">
        <ele>152.1</ele>
        <time>2021-05-20T12:50:06Z</time>
      </trkpt>
      <trkpt lat="42.2447910" lon="-8.6899560">
        <ele>152.1</ele>
        <time>2021-05-20T12:50:07Z</time>
      </trkpt>
      <trkpt lat="42.2447970" lon="-8.6899520">
        <ele>152.2</ele>
        <time>2021-05-20T12:50:08Z</time>
      </trkpt>
      <trkpt lat="42.2448020" lon="-8.6899500">
        <ele>152.2</ele>
        <time>2021-05-20T12:50:09Z</time>
      </trkpt>
      <trkpt lat="42.2448180" lon="-8.6899480">
        <ele>152.3</ele>
        <time>2021-05-20T12:50:10Z</time>
      </trkpt>
      <trkpt lat="42.2448290" lon="-8.6899480">
        <ele>152.3</ele>
        <time>2021-05-20T12:50:11Z</time>
      </trkpt>
      <trkpt lat="42.2448350" lon="-8.6899370">
        <ele>152.4</ele>
        <time>2021-05-20T12:50:12Z</time>
      </trkpt>
      <trkpt lat="42.2448580" lon="-8.6899300">
        <ele>152.5</ele>
        <time>2021-05-20T12:50:13Z</time>
      </trkpt>
      <trkpt lat="42.2448690" lon="-8.6899330">
        <ele>152.5</ele>
        <time>2021-05-20T12:50:14Z</time>
      </trkpt>
      <trkpt lat="42.2448770" lon="-8.6899290">
        <ele>152.6</ele>
        <time>2021-05-20T12:50:15Z</time>
      </trkpt>
      <trkpt lat="42.2448850" lon="-8.6899240">
        <ele>152.6</ele>
        <time>2021-05-20T12:50:16Z</time>
      </trkpt>
      <trkpt lat="42.2448960" lon="-8.6899160">
        <ele>152.7</ele>
        <time>2021-05-20T12:50:17Z</time>
      </trkpt>
      <trkpt lat="42.2449070" lon="-8.6899080">
        <ele>152.8</ele>
        <time>2021-05-20T12:50:18Z</time>
      </trkpt>
      <trkpt lat="42.2449150" lon="-8.6898960">
        <ele>152.8</ele>
        <time>2021-05-20T12:50:19Z</time>
      </trkpt>
      <trkpt lat="42.2449340" lon="-8.6898780">
        <ele>152.9</ele>
        <time>2021-05-20T12:50:20Z</time>
      </trkpt>
      <trkpt lat="42.2449400" lon="-8.6898740">
        <ele>153.0</ele>
        <time>2021-05-20T12:50:21Z</time>
      </trkpt>
      <trkpt lat="42.2449470" lon="-8.6898690">
        <ele>153.0</ele>
        <time>2021-05-20T12:50:22Z</time>
      </trkpt>
      <trkpt lat="42.2449600" lon="-8.6898590">
        <ele>153.1</ele>
        <time>2021-05-20T12:50:23Z</time>
      </trkpt>
      <trkpt lat="42.2449720" lon="-8.6898490">
        <ele>153.1</ele>
        <time>2021-05-20T12:50:24Z</time>
      </trkpt>
      <trkpt lat="42.2449780" lon="-8.6898390">
        <ele>153.2</ele>
        <time>2021-05-20T12:50:25Z</time>
      </trkpt>
      <trkpt lat="42.2449830" lon="-8.6898270">
        <ele>153.2</ele>
        <time>2021-05-20T12:50:26Z</time>
      </trkpt>
      <trkpt lat="42.2449950" lon="-8.6898130">
        <ele>153.3</ele>
        <time>2021-05-20T12:50:27Z</time>
      </trkpt>
      <trkpt lat="42.2450130" lon="-8.6897920">
        <ele>153.4</ele>
        <time>2021-05-20T12:50:28Z</time>
      </trkpt>
      <trkpt lat="42.2450200" lon="-8.6897840">
        <ele>153.4</ele>
        <time>2021-05-20T12:50:29Z</time>
      </trkpt>
      <trkpt lat="42.2450280" lon="-8.6897770">
        <ele>153.4</ele>
        <time>2021-05-20T12:50:30Z</time>
      </trkpt>
      <trkpt lat="42.2450400" lon="-8.6897650">
        <ele>153.5</ele>
        <time>2021-05-20T12:50:31Z</time>
      </trkpt>
      <trkpt lat="42.2450570" lon="-8.6897580">
        <ele>153.6</ele>
        <time>2021-05-20T12:50:32Z</time>
      </trkpt>
      <trkpt lat="42.2450660" lon="-8.6897480">
        <ele>153.6</ele>
        <time>2021-05-20T12:50:33Z</time>
      </trkpt>
      <trkpt lat="42.2450800" lon="-8.6897360">
        <ele>153.7</ele>
        <time>2021-05-20T12:50:34Z</time>
      </trkpt>
      <trkpt lat="42.2450980" lon="-8.6897270">
        <ele>153.7</ele>
        <time>2021-05-20T12:50:35Z</time>
      </trkpt>
      <trkpt lat="42.2451060" lon="-8.6897200">
        <ele>153.7</ele>
        <time>2021-05-20T12:50:37Z</time>
      </trkpt>
      <trkpt lat="42.2451130" lon="-8.6897140">
        <ele>153.8</ele>
        <time>2021-05-20T12:50:38Z</time>
      </trkpt>
      <trkpt lat="42.2451140" lon="-8.6897020">
        <ele>153.8</ele>
        <time>2021-05-20T12:50:39Z</time>
      </trkpt>
      <trkpt lat="42.2451200" lon="-8.6896910">
        <ele>153.8</ele>
        <time>2021-05-20T12:50:40Z</time>
      </trkpt>
      <trkpt lat="42.2451330" lon="-8.6896830">
        <ele>153.8</ele>
        <time>2021-05-20T12:50:41Z</time>
      </trkpt>
      <trkpt lat="42.2451470" lon="-8.6896630">
        <ele>153.9</ele>
        <time>2021-05-20T12:50:42Z</time>
      </trkpt>
      <trkpt lat="42.2451560" lon="-8.6896550">
        <ele>153.9</ele>
        <time>2021-05-20T12:50:43Z</time>
      </trkpt>
      <trkpt lat="42.2451640" lon="-8.6896470">
        <ele>153.9</ele>
        <time>2021-05-20T12:50:44Z</time>
      </trkpt>
      <trkpt lat="42.2451690" lon="-8.6896410">
        <ele>153.9</ele>
        <time>2021-05-20T12:50:45Z</time>
      </trkpt>
      <trkpt lat="42.2451780" lon="-8.6896350">
        <ele>154.0</ele>
        <time>2021-05-20T12:50:46Z</time>
      </trkpt>
      <trkpt lat="42.2451920" lon="-8.6896300">
        <ele>154.0</ele>
        <time>2021-05-20T12:50:47Z</time>
      </trkpt>
      <trkpt lat="42.2452180" lon="-8.6896170">
        <ele>154.0</ele>
        <time>2021-05-20T12:50:48Z</time>
      </trkpt>
      <trkpt lat="42.2452380" lon="-8.6896130">
        <ele>154.1</ele>
        <time>2021-05-20T12:50:49Z</time>
      </trkpt>
      <trkpt lat="42.2452520" lon="-8.6896090">
        <ele>154.1</ele>
        <time>2021-05-20T12:50:50Z</time>
      </trkpt>
      <trkpt lat="42.2452660" lon="-8.6896040">
        <ele>154.1</ele>
        <time>2021-05-20T12:50:51Z</time>
      </trkpt>
      <trkpt lat="42.2452790" lon="-8.6896040">
        <ele>154.2</ele>
        <time>2021-05-20T12:50:52Z</time>
      </trkpt>
      <trkpt lat="42.2452880" lon="-8.6896040">
        <ele>154.2</ele>
        <time>2021-05-20T12:50:53Z</time>
      </trkpt>
      <trkpt lat="42.2452990" lon="-8.6895940">
        <ele>154.2</ele>
        <time>2021-05-20T12:50:54Z</time>
      </trkpt>
      <trkpt lat="42.2453030" lon="-8.6895850">
        <ele>154.2</ele>
        <time>2021-05-20T12:50:55Z</time>
      </trkpt>
      <trkpt lat="42.2453100" lon="-8.6895810">
        <ele>154.2</ele>
        <time>2021-05-20T12:50:56Z</time>
      </trkpt>
      <trkpt lat="42.2453220" lon="-8.6895760">
        <ele>154.2</ele>
        <time>2021-05-20T12:50:57Z</time>
      </trkpt>
      <trkpt lat="42.2453310" lon="-8.6895700">
        <ele>154.3</ele>
        <time>2021-05-20T12:50:58Z</time>
      </trkpt>
      <trkpt lat="42.2453430" lon="-8.6895640">
        <ele>154.3</ele>
        <time>2021-05-20T12:50:59Z</time>
      </trkpt>
      <trkpt lat="42.2453520" lon="-8.6895600">
        <ele>154.3</ele>
        <time>2021-05-20T12:51:00Z</time>
      </trkpt>
      <trkpt lat="42.2453590" lon="-8.6895570">
        <ele>154.3</ele>
        <time>2021-05-20T12:51:01Z</time>
      </trkpt>
      <trkpt lat="42.2453670" lon="-8.6895480">
        <ele>154.3</ele>
        <time>2021-05-20T12:51:02Z</time>
      </trkpt>
      <trkpt lat="42.2453900" lon="-8.6895400">
        <ele>154.4</ele>
        <time>2021-05-20T12:51:03Z</time>
      </trkpt>
      <trkpt lat="42.2453880" lon="-8.6895400">
        <ele>154.4</ele>
        <time>2021-05-20T12:51:04Z</time>
      </trkpt>
      <trkpt lat="42.2453990" lon="-8.6895260">
        <ele>154.4</ele>
        <time>2021-05-20T12:51:05Z</time>
      </trkpt>
      <trkpt lat="42.2454200" lon="-8.6895230">
        <ele>154.4</ele>
        <time>2021-05-20T12:51:06Z</time>
      </trkpt>
      <trkpt lat="42.2454280" lon="-8.6895150">
        <ele>154.4</ele>
        <time>2021-05-20T12:51:07Z</time>
      </trkpt>
      <trkpt lat="42.2454360" lon="-8.6895110">
        <ele>154.4</ele>
        <time>2021-05-20T12:51:08Z</time>
      </trkpt>
      <trkpt lat="42.2454470" lon="-8.6895000">
        <ele>154.4</ele>
        <time>2021-05-20T12:51:09Z</time>
      </trkpt>
      <trkpt lat="42.2454550" lon="-8.6894930">
        <ele>154.4</ele>
        <time>2021-05-20T12:51:10Z</time>
      </trkpt>
      <trkpt lat="42.2454670" lon="-8.6894840">
        <ele>154.5</ele>
        <time>2021-05-20T12:51:11Z</time>
      </trkpt>
      <trkpt lat="42.2454770" lon="-8.6894770">
        <ele>154.5</ele>
        <time>2021-05-20T12:51:12Z</time>
      </trkpt>
      <trkpt lat="42.2454850" lon="-8.6894740">
        <ele>154.5</ele>
        <time>2021-05-20T12:51:13Z</time>
      </trkpt>
      <trkpt lat="42.2455010" lon="-8.6894580">
        <ele>154.5</ele>
        <time>2021-05-20T12:51:14Z</time>
      </trkpt>
      <trkpt lat="42.2455180" lon="-8.6894550">
        <ele>154.5</ele>
        <time>2021-05-20T12:51:15Z</time>
      </trkpt>
      <trkpt lat="42.2455260" lon="-8.6894500">
        <ele>154.5</ele>
        <time>2021-05-20T12:51:16Z</time>
      </trkpt>
      <trkpt lat="42.2455330" lon="-8.6894450">
        <ele>154.5</ele>
        <time>2021-05-20T12:51:17Z</time>
      </trkpt>
      <trkpt lat="42.2455400" lon="-8.6894400">
        <ele>154.6</ele>
        <time>2021-05-20T12:51:18Z</time>
      </trkpt>
      <trkpt lat="42.2455560" lon="-8.6894390">
        <ele>154.6</ele>
        <time>2021-05-20T12:51:19Z</time>
      </trkpt>
      <trkpt lat="42.2455720" lon="-8.6894280">
        <ele>154.6</ele>
        <time>2021-05-20T12:51:20Z</time>
      </trkpt>
      <trkpt lat="42.2455780" lon="-8.6894260">
        <ele>154.6</ele>
        <time>2021-05-20T12:51:21Z</time>
      </trkpt>
      <trkpt lat="42.2455910" lon="-8.6894200">
        <ele>154.6</ele>
        <time>2021-05-20T12:51:22Z</time>
      </trkpt>
      <trkpt lat="42.2456070" lon="-8.6894110">
        <ele>154.6</ele>
        <time>2021-05-20T12:51:23Z</time>
      </trkpt>
      <trkpt lat="42.2456220" lon="-8.6894030">
        <ele>154.6</ele>
        <time>2021-05-20T12:51:24Z</time>
      </trkpt>
      <trkpt lat="42.2456330" lon="-8.6893980">
        <ele>154.6</ele>
        <time>2021-05-20T12:51:25Z</time>
      </trkpt>
      <trkpt lat="42.2456410" lon="-8.6893930">
        <ele>154.7</ele>
        <time>2021-05-20T12:51:26Z</time>
      </trkpt>
      <trkpt lat="42.2456510" lon="-8.6893870">
        <ele>154.7</ele>
        <time>2021-05-20T12:51:27Z</time>
      </trkpt>
      <trkpt lat="42.2456660" lon="-8.6893790">
        <ele>154.7</ele>
        <time>2021-05-20T12:51:28Z</time>
      </trkpt>
      <trkpt lat="42.2456760" lon="-8.6893710">
        <ele>154.7</ele>
        <time>2021-05-20T12:51:29Z</time>
      </trkpt>
      <trkpt lat="42.2456900" lon="-8.6893650">
        <ele>154.7</ele>
        <time>2021-05-20T12:51:30Z</time>
      </trkpt>
      <trkpt lat="42.2456990" lon="-8.6893620">
        <ele>154.7</ele>
        <time>2021-05-20T12:51:31Z</time>
      </trkpt>
      <trkpt lat="42.2457150" lon="-8.6893550">
        <ele>154.7</ele>
        <time>2021-05-20T12:51:32Z</time>
      </trkpt>
      <trkpt lat="42.2457250" lon="-8.6893470">
        <ele>154.7</ele>
        <time>2021-05-20T12:51:33Z</time>
      </trkpt>
      <trkpt lat="42.2457470" lon="-8.6893410">
        <ele>154.7</ele>
        <time>2021-05-20T12:51:34Z</time>
      </trkpt>
      <trkpt lat="42.2457570" lon="-8.6893370">
        <ele>154.7</ele>
        <time>2021-05-20T12:51:35Z</time>
      </trkpt>
      <trkpt lat="42.2457720" lon="-8.6893290">
        <ele>154.7</ele>
        <time>2021-05-20T12:51:36Z</time>
      </trkpt>
      <trkpt lat="42.2457890" lon="-8.6893290">
        <ele>154.7</ele>
        <time>2021-05-20T12:51:37Z</time>
      </trkpt>
      <trkpt lat="42.2458090" lon="-8.6893170">
        <ele>154.7</ele>
        <time>2021-05-20T12:51:38Z</time>
      </trkpt>
      <trkpt lat="42.2458170" lon="-8.6893140">
        <ele>154.7</ele>
        <time>2021-05-20T12:51:39Z</time>
      </trkpt>
      <trkpt lat="42.2458260" lon="-8.6893100">
        <ele>154.7</ele>
        <time>2021-05-20T12:51:40Z</time>
      </trkpt>
      <trkpt lat="42.2458400" lon="-8.6893040">
        <ele>154.8</ele>
        <time>2021-05-20T12:51:41Z</time>
      </trkpt>
      <trkpt lat="42.2458490" lon="-8.6893070">
        <ele>154.8</ele>
        <time>2021-05-20T12:51:42Z</time>
      </trkpt>
      <trkpt lat="42.2458570" lon="-8.6892980">
        <ele>154.8</ele>
        <time>2021-05-20T12:51:43Z</time>
      </trkpt>
      <trkpt lat="42.2458600" lon="-8.6892950">
        <ele>154.8</ele>
        <time>2021-05-20T12:51:44Z</time>
      </trkpt>
      <trkpt lat="42.2458690" lon="-8.6892920">
        <ele>154.8</ele>
        <time>2021-05-20T12:51:45Z</time>
      </trkpt>
      <trkpt lat="42.2458750" lon="-8.6892870">
        <ele>154.8</ele>
        <time>2021-05-20T12:51:46Z</time>
      </trkpt>
      <trkpt lat="42.2458830" lon="-8.6892850">
        <ele>154.8</ele>
        <time>2021-05-20T12:51:47Z</time>
      </trkpt>
      <trkpt lat="42.2459020" lon="-8.6892740">
        <ele>154.8</ele>
        <time>2021-05-20T12:51:48Z</time>
      </trkpt>
      <trkpt lat="42.2459110" lon="-8.6892700">
        <ele>154.8</ele>
        <time>2021-05-20T12:51:49Z</time>
      </trkpt>
      <trkpt lat="42.2459190" lon="-8.6892650">
        <ele>154.7</ele>
        <time>2021-05-20T12:51:50Z</time>
      </trkpt>
      <trkpt lat="42.2459380" lon="-8.6892540">
        <ele>154.7</ele>
        <time>2021-05-20T12:51:51Z</time>
      </trkpt>
      <trkpt lat="42.2459470" lon="-8.6892470">
        <ele>154.7</ele>
        <time>2021-05-20T12:51:52Z</time>
      </trkpt>
      <trkpt lat="42.2459560" lon="-8.6892400">
        <ele>154.7</ele>
        <time>2021-05-20T12:51:53Z</time>
      </trkpt>
      <trkpt lat="42.2459720" lon="-8.6892410">
        <ele>154.7</ele>
        <time>2021-05-20T12:51:54Z</time>
      </trkpt>
      <trkpt lat="42.2459890" lon="-8.6892260">
        <ele>154.7</ele>
        <time>2021-05-20T12:51:55Z</time>
      </trkpt>
      <trkpt lat="42.2460020" lon="-8.6892200">
        <ele>154.7</ele>
        <time>2021-05-20T12:51:56Z</time>
      </trkpt>
      <trkpt lat="42.2460100" lon="-8.6892140">
        <ele>154.7</ele>
        <time>2021-05-20T12:51:57Z</time>
      </trkpt>
      <trkpt lat="42.2460170" lon="-8.6892090">
        <ele>154.7</ele>
        <time>2021-05-20T12:51:58Z</time>
      </trkpt>
      <trkpt lat="42.2460240" lon="-8.6892030">
        <ele>154.7</ele>
        <time>2021-05-20T12:51:59Z</time>
      </trkpt>
      <trkpt lat="42.2460410" lon="-8.6892010">
        <ele>154.7</ele>
        <time>2021-05-20T12:52:00Z</time>
      </trkpt>
      <trkpt lat="42.2460510" lon="-8.6891970">
        <ele>154.7</ele>
        <time>2021-05-20T12:52:01Z</time>
      </trkpt>
      <trkpt lat="42.2460610" lon="-8.6891940">
        <ele>154.7</ele>
        <time>2021-05-20T12:52:02Z</time>
      </trkpt>
      <trkpt lat="42.2460840" lon="-8.6891890">
        <ele>154.7</ele>
        <time>2021-05-20T12:52:03Z</time>
      </trkpt>
      <trkpt lat="42.2460930" lon="-8.6891800">
        <ele>154.7</ele>
        <time>2021-05-20T12:52:04Z</time>
      </trkpt>
      <trkpt lat="42.2461020" lon="-8.6891720">
        <ele>154.7</ele>
        <time>2021-05-20T12:52:05Z</time>
      </trkpt>
      <trkpt lat="42.2461220" lon="-8.6891530">
        <ele>154.7</ele>
        <time>2021-05-20T12:52:06Z</time>
      </trkpt>
      <trkpt lat="42.2461310" lon="-8.6891460">
        <ele>154.7</ele>
        <time>2021-05-20T12:52:07Z</time>
      </trkpt>
      <trkpt lat="42.2461390" lon="-8.6891390">
        <ele>154.7</ele>
        <time>2021-05-20T12:52:08Z</time>
      </trkpt>
      <trkpt lat="42.2461520" lon="-8.6891270">
        <ele>154.7</ele>
        <time>2021-05-20T12:52:09Z</time>
      </trkpt>
      <trkpt lat="42.2461610" lon="-8.6891220">
        <ele>154.7</ele>
        <time>2021-05-20T12:52:10Z</time>
      </trkpt>
      <trkpt lat="42.2461650" lon="-8.6891090">
        <ele>154.7</ele>
        <time>2021-05-20T12:52:11Z</time>
      </trkpt>
      <trkpt lat="42.2461780" lon="-8.6890980">
        <ele>154.7</ele>
        <time>2021-05-20T12:52:12Z</time>
      </trkpt>
      <trkpt lat="42.2461890" lon="-8.6890890">
        <ele>154.7</ele>
        <time>2021-05-20T12:52:13Z</time>
      </trkpt>
      <trkpt lat="42.2462030" lon="-8.6890770">
        <ele>154.7</ele>
        <time>2021-05-20T12:52:14Z</time>
      </trkpt>
      <trkpt lat="42.2462160" lon="-8.6890710">
        <ele>154.7</ele>
        <time>2021-05-20T12:52:15Z</time>
      </trkpt>
      <trkpt lat="42.2462300" lon="-8.6890640">
        <ele>154.7</ele>
        <time>2021-05-20T12:52:16Z</time>
      </trkpt>
      <trkpt lat="42.2462410" lon="-8.6890560">
        <ele>154.7</ele>
        <time>2021-05-20T12:52:17Z</time>
      </trkpt>
      <trkpt lat="42.2462510" lon="-8.6890460">
        <ele>154.7</ele>
        <time>2021-05-20T12:52:18Z</time>
      </trkpt>
      <trkpt lat="42.2462680" lon="-8.6890430">
        <ele>154.7</ele>
        <time>2021-05-20T12:52:19Z</time>
      </trkpt>
      <trkpt lat="42.2462790" lon="-8.6890320">
        <ele>154.7</ele>
        <time>2021-05-20T12:52:20Z</time>
      </trkpt>
      <trkpt lat="42.2462860" lon="-8.6890270">
        <ele>154.7</ele>
        <time>2021-05-20T12:52:21Z</time>
      </trkpt>
      <trkpt lat="42.2462930" lon="-8.6890220">
        <ele>154.7</ele>
        <time>2021-05-20T12:52:22Z</time>
      </trkpt>
      <trkpt lat="42.2463000" lon="-8.6890170">
        <ele>154.7</ele>
        <time>2021-05-20T12:52:23Z</time>
      </trkpt>
      <trkpt lat="42.2463090" lon="-8.6890120">
        <ele>154.7</ele>
        <time>2021-05-20T12:52:24Z</time>
      </trkpt>
      <trkpt lat="42.2463210" lon="-8.6890010">
        <ele>154.7</ele>
        <time>2021-05-20T12:52:25Z</time>
      </trkpt>
      <trkpt lat="42.2463300" lon="-8.6889890">
        <ele>154.7</ele>
        <time>2021-05-20T12:52:26Z</time>
      </trkpt>
      <trkpt lat="42.2463420" lon="-8.6889680">
        <ele>154.7</ele>
        <time>2021-05-20T12:52:27Z</time>
      </trkpt>
      <trkpt lat="42.2463480" lon="-8.6889600">
        <ele>154.7</ele>
        <time>2021-05-20T12:52:28Z</time>
      </trkpt>
      <trkpt lat="42.2463550" lon="-8.6889430">
        <ele>154.7</ele>
        <time>2021-05-20T12:52:29Z</time>
      </trkpt>
      <trkpt lat="42.2463550" lon="-8.6889400">
        <ele>154.7</ele>
        <time>2021-05-20T12:52:30Z</time>
      </trkpt>
      <trkpt lat="42.2463550" lon="-8.6889370">
        <ele>154.7</ele>
        <time>2021-05-20T12:52:31Z</time>
      </trkpt>
      <trkpt lat="42.2463550" lon="-8.6889350">
        <ele>154.7</ele>
        <time>2021-05-20T12:52:32Z</time>
      </trkpt>
      <trkpt lat="42.2463550" lon="-8.6889320">
        <ele>154.7</ele>
        <time>2021-05-20T12:52:33Z</time>
      </trkpt>
      <trkpt lat="42.2463550" lon="-8.6889290">
        <ele>154.7</ele>
        <time>2021-05-20T12:52:34Z</time>
      </trkpt>
      <trkpt lat="42.2463550" lon="-8.6889260">
        <ele>154.7</ele>
        <time>2021-05-20T12:52:35Z</time>
      </trkpt>
      <trkpt lat="42.2463550" lon="-8.6889230">
        <ele>154.7</ele>
        <time>2021-05-20T12:52:36Z</time>
      </trkpt>
      <trkpt lat="42.2463550" lon="-8.6889200">
        <ele>154.7</ele>
        <time>2021-05-20T12:52:37Z</time>
      </trkpt>
      <trkpt lat="42.2463550" lon="-8.6889180">
        <ele>154.7</ele>
        <time>2021-05-20T12:52:38Z</time>
      </trkpt>
      <trkpt lat="42.2463550" lon="-8.6889150">
        <ele>154.6</ele>
        <time>2021-05-20T12:52:39Z</time>
      </trkpt>
      <trkpt lat="42.2463550" lon="-8.6889120">
        <ele>154.6</ele>
        <time>2021-05-20T12:52:40Z</time>
      </trkpt>
      <trkpt lat="42.2463550" lon="-8.6889090">
        <ele>154.6</ele>
        <time>2021-05-20T12:52:41Z</time>
      </trkpt>
      <trkpt lat="42.2463700" lon="-8.6888920">
        <ele>154.6</ele>
        <time>2021-05-20T12:52:42Z</time>
      </trkpt>
      <trkpt lat="42.2463770" lon="-8.6888730">
        <ele>154.6</ele>
        <time>2021-05-20T12:52:43Z</time>
      </trkpt>
      <trkpt lat="42.2463830" lon="-8.6888580">
        <ele>154.6</ele>
        <time>2021-05-20T12:52:44Z</time>
      </trkpt>
      <trkpt lat="42.2463910" lon="-8.6888510">
        <ele>154.6</ele>
        <time>2021-05-20T12:52:46Z</time>
      </trkpt>
      <trkpt lat="42.2463920" lon="-8.6888420">
        <ele>154.6</ele>
        <time>2021-05-20T12:52:47Z</time>
      </trkpt>
      <trkpt lat="42.2464020" lon="-8.6888300">
        <ele>154.6</ele>
        <time>2021-05-20T12:52:48Z</time>
      </trkpt>
      <trkpt lat="42.2464140" lon="-8.6888180">
        <ele>154.6</ele>
        <time>2021-05-20T12:52:49Z</time>
      </trkpt>
      <trkpt lat="42.2464300" lon="-8.6887990">
        <ele>154.6</ele>
        <time>2021-05-20T12:52:50Z</time>
      </trkpt>
      <trkpt lat="42.2464390" lon="-8.6887890">
        <ele>154.6</ele>
        <time>2021-05-20T12:52:51Z</time>
      </trkpt>
      <trkpt lat="42.2464450" lon="-8.6887790">
        <ele>154.6</ele>
        <time>2021-05-20T12:52:52Z</time>
      </trkpt>
      <trkpt lat="42.2464470" lon="-8.6887840">
        <ele>154.6</ele>
        <time>2021-05-20T12:52:53Z</time>
      </trkpt>
      <trkpt lat="42.2464440" lon="-8.6887850">
        <ele>154.6</ele>
        <time>2021-05-20T12:52:54Z</time>
      </trkpt>
      <trkpt lat="42.2464440" lon="-8.6887850">
        <ele>154.6</ele>
        <time>2021-05-20T12:52:55Z</time>
      </trkpt>
      <trkpt lat="42.2464440" lon="-8.6887850">
        <ele>154.6</ele>
        <time>2021-05-20T12:52:56Z</time>
      </trkpt>
      <trkpt lat="42.2464490" lon="-8.6887780">
        <ele>154.6</ele>
        <time>2021-05-20T12:52:57Z</time>
      </trkpt>
      <trkpt lat="42.2464590" lon="-8.6887780">
        <ele>154.6</ele>
        <time>2021-05-20T12:52:58Z</time>
      </trkpt>
      <trkpt lat="42.2464700" lon="-8.6887720">
        <ele>154.6</ele>
        <time>2021-05-20T12:52:59Z</time>
      </trkpt>
      <trkpt lat="42.2464860" lon="-8.6887620">
        <ele>154.5</ele>
        <time>2021-05-20T12:53:00Z</time>
      </trkpt>
      <trkpt lat="42.2464880" lon="-8.6887550">
        <ele>154.5</ele>
        <time>2021-05-20T12:53:01Z</time>
      </trkpt>
      <trkpt lat="42.2464900" lon="-8.6887490">
        <ele>154.5</ele>
        <time>2021-05-20T12:53:02Z</time>
      </trkpt>
      <trkpt lat="42.2464910" lon="-8.6887420">
        <ele>154.5</ele>
        <time>2021-05-20T12:53:03Z</time>
      </trkpt>
      <trkpt lat="42.2464930" lon="-8.6887360">
        <ele>154.5</ele>
        <time>2021-05-20T12:53:04Z</time>
      </trkpt>
      <trkpt lat="42.2464950" lon="-8.6887290">
        <ele>154.5</ele>
        <time>2021-05-20T12:53:05Z</time>
      </trkpt>
      <trkpt lat="42.2464970" lon="-8.6887280">
        <ele>154.5</ele>
        <time>2021-05-20T12:53:06Z</time>
      </trkpt>
      <trkpt lat="42.2465050" lon="-8.6887160">
        <ele>154.5</ele>
        <time>2021-05-20T12:53:07Z</time>
      </trkpt>
      <trkpt lat="42.2465060" lon="-8.6887090">
        <ele>154.5</ele>
        <time>2021-05-20T12:53:08Z</time>
      </trkpt>
      <trkpt lat="42.2465160" lon="-8.6886990">
        <ele>154.5</ele>
        <time>2021-05-20T12:53:09Z</time>
      </trkpt>
      <trkpt lat="42.2465190" lon="-8.6886930">
        <ele>154.5</ele>
        <time>2021-05-20T12:53:10Z</time>
      </trkpt>
      <trkpt lat="42.2465250" lon="-8.6886720">
        <ele>154.5</ele>
        <time>2021-05-20T12:53:11Z</time>
      </trkpt>
      <trkpt lat="42.2465110" lon="-8.6886690">
        <ele>154.5</ele>
        <time>2021-05-20T12:53:12Z</time>
      </trkpt>
      <trkpt lat="42.2465120" lon="-8.6886660">
        <ele>154.5</ele>
        <time>2021-05-20T12:53:13Z</time>
      </trkpt>
      <trkpt lat="42.2465130" lon="-8.6886520">
        <ele>154.5</ele>
        <time>2021-05-20T12:53:14Z</time>
      </trkpt>
      <trkpt lat="42.2465280" lon="-8.6886390">
        <ele>154.5</ele>
        <time>2021-05-20T12:53:15Z</time>
      </trkpt>
      <trkpt lat="42.2465340" lon="-8.6886290">
        <ele>154.5</ele>
        <time>2021-05-20T12:53:16Z</time>
      </trkpt>
      <trkpt lat="42.2465310" lon="-8.6886250">
        <ele>154.5</ele>
        <time>2021-05-20T12:53:17Z</time>
      </trkpt>
      <trkpt lat="42.2465280" lon="-8.6885980">
        <ele>154.4</ele>
        <time>2021-05-20T12:53:18Z</time>
      </trkpt>
      <trkpt lat="42.2465270" lon="-8.6885850">
        <ele>154.4</ele>
        <time>2021-05-20T12:53:19Z</time>
      </trkpt>
      <trkpt lat="42.2465250" lon="-8.6885720">
        <ele>154.4</ele>
        <time>2021-05-20T12:53:20Z</time>
      </trkpt>
      <trkpt lat="42.2465260" lon="-8.6885400">
        <ele>154.4</ele>
        <time>2021-05-20T12:53:21Z</time>
      </trkpt>
      <trkpt lat="42.2465260" lon="-8.6885300">
        <ele>154.4</ele>
        <time>2021-05-20T12:53:22Z</time>
      </trkpt>
      <trkpt lat="42.2465250" lon="-8.6885210">
        <ele>154.4</ele>
        <time>2021-05-20T12:53:23Z</time>
      </trkpt>
      <trkpt lat="42.2465170" lon="-8.6885020">
        <ele>154.4</ele>
        <time>2021-05-20T12:53:24Z</time>
      </trkpt>
      <trkpt lat="42.2465160" lon="-8.6884890">
        <ele>154.4</ele>
        <time>2021-05-20T12:53:25Z</time>
      </trkpt>
      <trkpt lat="42.2465160" lon="-8.6884770">
        <ele>154.4</ele>
        <time>2021-05-20T12:53:26Z</time>
      </trkpt>
      <trkpt lat="42.2465160" lon="-8.6884560">
        <ele>154.4</ele>
        <time>2021-05-20T12:53:27Z</time>
      </trkpt>
      <trkpt lat="42.2465130" lon="-8.6884470">
        <ele>154.4</ele>
        <time>2021-05-20T12:53:28Z</time>
      </trkpt>
      <trkpt lat="42.2465100" lon="-8.6884060">
        <ele>154.4</ele>
        <time>2021-05-20T12:53:29Z</time>
      </trkpt>
      <trkpt lat="42.2465090" lon="-8.6883880">
        <ele>154.4</ele>
        <time>2021-05-20T12:53:30Z</time>
      </trkpt>
      <trkpt lat="42.2465070" lon="-8.6883660">
        <ele>154.4</ele>
        <time>2021-05-20T12:53:31Z</time>
      </trkpt>
      <trkpt lat="42.2465070" lon="-8.6883540">
        <ele>154.4</ele>
        <time>2021-05-20T12:53:32Z</time>
      </trkpt>
      <trkpt lat="42.2465050" lon="-8.6883430">
        <ele>154.4</ele>
        <time>2021-05-20T12:53:33Z</time>
      </trkpt>
      <trkpt lat="42.2465030" lon="-8.6883180">
        <ele>154.4</ele>
        <time>2021-05-20T12:53:34Z</time>
      </trkpt>
      <trkpt lat="42.2465010" lon="-8.6883040">
        <ele>154.4</ele>
        <time>2021-05-20T12:53:35Z</time>
      </trkpt>
      <trkpt lat="42.2465000" lon="-8.6882910">
        <ele>154.4</ele>
        <time>2021-05-20T12:53:36Z</time>
      </trkpt>
      <trkpt lat="42.2465040" lon="-8.6882680">
        <ele>154.4</ele>
        <time>2021-05-20T12:53:37Z</time>
      </trkpt>
      <trkpt lat="42.2465040" lon="-8.6882580">
        <ele>154.4</ele>
        <time>2021-05-20T12:53:38Z</time>
      </trkpt>
      <trkpt lat="42.2465090" lon="-8.6882460">
        <ele>154.4</ele>
        <time>2021-05-20T12:53:39Z</time>
      </trkpt>
      <trkpt lat="42.2465070" lon="-8.6882320">
        <ele>154.4</ele>
        <time>2021-05-20T12:53:40Z</time>
      </trkpt>
      <trkpt lat="42.2465090" lon="-8.6882070">
        <ele>154.4</ele>
        <time>2021-05-20T12:53:41Z</time>
      </trkpt>
      <trkpt lat="42.2465050" lon="-8.6881770">
        <ele>154.4</ele>
        <time>2021-05-20T12:53:42Z</time>
      </trkpt>
      <trkpt lat="42.2465030" lon="-8.6881610">
        <ele>154.4</ele>
        <time>2021-05-20T12:53:43Z</time>
      </trkpt>
      <trkpt lat="42.2465010" lon="-8.6881450">
        <ele>154.4</ele>
        <time>2021-05-20T12:53:44Z</time>
      </trkpt>
      <trkpt lat="42.2465060" lon="-8.6881360">
        <ele>154.4</ele>
        <time>2021-05-20T12:53:45Z</time>
      </trkpt>
      <trkpt lat="42.2465070" lon="-8.6881160">
        <ele>154.4</ele>
        <time>2021-05-20T12:53:46Z</time>
      </trkpt>
      <trkpt lat="42.2465050" lon="-8.6881040">
        <ele>154.4</ele>
        <time>2021-05-20T12:53:47Z</time>
      </trkpt>
      <trkpt lat="42.2465000" lon="-8.6881010">
        <ele>154.4</ele>
        <time>2021-05-20T12:53:48Z</time>
      </trkpt>
      <trkpt lat="42.2464980" lon="-8.6880870">
        <ele>154.4</ele>
        <time>2021-05-20T12:53:49Z</time>
      </trkpt>
      <trkpt lat="42.2464990" lon="-8.6880600">
        <ele>154.5</ele>
        <time>2021-05-20T12:53:50Z</time>
      </trkpt>
      <trkpt lat="42.2465030" lon="-8.6880430">
        <ele>154.5</ele>
        <time>2021-05-20T12:53:51Z</time>
      </trkpt>
      <trkpt lat="42.2464990" lon="-8.6880340">
        <ele>154.5</ele>
        <time>2021-05-20T12:53:52Z</time>
      </trkpt>
      <trkpt lat="42.2464990" lon="-8.6880110">
        <ele>154.5</ele>
        <time>2021-05-20T12:53:53Z</time>
      </trkpt>
      <trkpt lat="42.2464970" lon="-8.6880020">
        <ele>154.5</ele>
        <time>2021-05-20T12:53:54Z</time>
      </trkpt>
      <trkpt lat="42.2464970" lon="-8.6879880">
        <ele>154.5</ele>
        <time>2021-05-20T12:53:55Z</time>
      </trkpt>
      <trkpt lat="42.2464910" lon="-8.6879700">
        <ele>154.5</ele>
        <time>2021-05-20T12:53:56Z</time>
      </trkpt>
      <trkpt lat="42.2464830" lon="-8.6879460">
        <ele>154.5</ele>
        <time>2021-05-20T12:53:57Z</time>
      </trkpt>
      <trkpt lat="42.2464810" lon="-8.6879340">
        <ele>154.5</ele>
        <time>2021-05-20T12:53:58Z</time>
      </trkpt>
      <trkpt lat="42.2464800" lon="-8.6879210">
        <ele>154.5</ele>
        <time>2021-05-20T12:53:59Z</time>
      </trkpt>
      <trkpt lat="42.2464750" lon="-8.6879040">
        <ele>154.6</ele>
        <time>2021-05-20T12:54:00Z</time>
      </trkpt>
      <trkpt lat="42.2464700" lon="-8.6878900">
        <ele>154.6</ele>
        <time>2021-05-20T12:54:01Z</time>
      </trkpt>
      <trkpt lat="42.2464640" lon="-8.6878760">
        <ele>154.6</ele>
        <time>2021-05-20T12:54:02Z</time>
      </trkpt>
      <trkpt lat="42.2464640" lon="-8.6878680">
        <ele>154.6</ele>
        <time>2021-05-20T12:54:03Z</time>
      </trkpt>
      <trkpt lat="42.2464580" lon="-8.6878590">
        <ele>154.6</ele>
        <time>2021-05-20T12:54:04Z</time>
      </trkpt>
      <trkpt lat="42.2464590" lon="-8.6878520">
        <ele>154.6</ele>
        <time>2021-05-20T12:54:05Z</time>
      </trkpt>
      <trkpt lat="42.2464540" lon="-8.6878410">
        <ele>154.6</ele>
        <time>2021-05-20T12:54:06Z</time>
      </trkpt>
      <trkpt lat="42.2464460" lon="-8.6878340">
        <ele>154.6</ele>
        <time>2021-05-20T12:54:07Z</time>
      </trkpt>
      <trkpt lat="42.2464380" lon="-8.6878210">
        <ele>154.6</ele>
        <time>2021-05-20T12:54:08Z</time>
      </trkpt>
      <trkpt lat="42.2464300" lon="-8.6878050">
        <ele>154.6</ele>
        <time>2021-05-20T12:54:09Z</time>
      </trkpt>
      <trkpt lat="42.2464250" lon="-8.6877970">
        <ele>154.6</ele>
        <time>2021-05-20T12:54:10Z</time>
      </trkpt>
      <trkpt lat="42.2464200" lon="-8.6877890">
        <ele>154.6</ele>
        <time>2021-05-20T12:54:11Z</time>
      </trkpt>
      <trkpt lat="42.2464140" lon="-8.6877790">
        <ele>154.6</ele>
        <time>2021-05-20T12:54:12Z</time>
      </trkpt>
      <trkpt lat="42.2464080" lon="-8.6877710">
        <ele>154.7</ele>
        <time>2021-05-20T12:54:13Z</time>
      </trkpt>
      <trkpt lat="42.2463960" lon="-8.6877680">
        <ele>154.7</ele>
        <time>2021-05-20T12:54:14Z</time>
      </trkpt>
      <trkpt lat="42.2463910" lon="-8.6877590">
        <ele>154.7</ele>
        <time>2021-05-20T12:54:15Z</time>
      </trkpt>
      <trkpt lat="42.2463870" lon="-8.6877520">
        <ele>154.7</ele>
        <time>2021-05-20T12:54:16Z</time>
      </trkpt>
      <trkpt lat="42.2463830" lon="-8.6877480">
        <ele>154.7</ele>
        <time>2021-05-20T12:54:17Z</time>
      </trkpt>
      <trkpt lat="42.2463720" lon="-8.6877350">
        <ele>154.7</ele>
        <time>2021-05-20T12:54:18Z</time>
      </trkpt>
      <trkpt lat="42.2463680" lon="-8.6877320">
        <ele>154.7</ele>
        <time>2021-05-20T12:54:19Z</time>
      </trkpt>
      <trkpt lat="42.2463650" lon="-8.6877180">
        <ele>154.7</ele>
        <time>2021-05-20T12:54:20Z</time>
      </trkpt>
      <trkpt lat="42.2463520" lon="-8.6876920">
        <ele>154.7</ele>
        <time>2021-05-20T12:54:21Z</time>
      </trkpt>
      <trkpt lat="42.2463470" lon="-8.6876850">
        <ele>154.7</ele>
        <time>2021-05-20T12:54:22Z</time>
      </trkpt>
      <trkpt lat="42.2463430" lon="-8.6876790">
        <ele>154.7</ele>
        <time>2021-05-20T12:54:23Z</time>
      </trkpt>
      <trkpt lat="42.2463360" lon="-8.6876640">
        <ele>154.7</ele>
        <time>2021-05-20T12:54:24Z</time>
      </trkpt>
      <trkpt lat="42.2463280" lon="-8.6876560">
        <ele>154.7</ele>
        <time>2021-05-20T12:54:25Z</time>
      </trkpt>
      <trkpt lat="42.2463220" lon="-8.6876430">
        <ele>154.7</ele>
        <time>2021-05-20T12:54:26Z</time>
      </trkpt>
      <trkpt lat="42.2463110" lon="-8.6876280">
        <ele>154.7</ele>
        <time>2021-05-20T12:54:27Z</time>
      </trkpt>
      <trkpt lat="42.2462990" lon="-8.6876150">
        <ele>154.7</ele>
        <time>2021-05-20T12:54:28Z</time>
      </trkpt>
      <trkpt lat="42.2462840" lon="-8.6876010">
        <ele>154.7</ele>
        <time>2021-05-20T12:54:29Z</time>
      </trkpt>
      <trkpt lat="42.2462750" lon="-8.6875930">
        <ele>154.7</ele>
        <time>2021-05-20T12:54:30Z</time>
      </trkpt>
      <trkpt lat="42.2462660" lon="-8.6875860">
        <ele>154.7</ele>
        <time>2021-05-20T12:54:31Z</time>
      </trkpt>
      <trkpt lat="42.2462640" lon="-8.6875710">
        <ele>154.7</ele>
        <time>2021-05-20T12:54:32Z</time>
      </trkpt>
      <trkpt lat="42.2462540" lon="-8.6875530">
        <ele>154.7</ele>
        <time>2021-05-20T12:54:33Z</time>
      </trkpt>
      <trkpt lat="42.2462410" lon="-8.6875150">
        <ele>154.7</ele>
        <time>2021-05-20T12:54:34Z</time>
      </trkpt>
      <trkpt lat="42.2462370" lon="-8.6875070">
        <ele>154.7</ele>
        <time>2021-05-20T12:54:35Z</time>
      </trkpt>
      <trkpt lat="42.2462300" lon="-8.6875000">
        <ele>154.7</ele>
        <time>2021-05-20T12:54:36Z</time>
      </trkpt>
      <trkpt lat="42.2462190" lon="-8.6874920">
        <ele>154.7</ele>
        <time>2021-05-20T12:54:37Z</time>
      </trkpt>
      <trkpt lat="42.2462110" lon="-8.6874800">
        <ele>154.7</ele>
        <time>2021-05-20T12:54:38Z</time>
      </trkpt>
      <trkpt lat="42.2462000" lon="-8.6874640">
        <ele>154.7</ele>
        <time>2021-05-20T12:54:39Z</time>
      </trkpt>
      <trkpt lat="42.2461950" lon="-8.6874570">
        <ele>154.7</ele>
        <time>2021-05-20T12:54:40Z</time>
      </trkpt>
      <trkpt lat="42.2461900" lon="-8.6874510">
        <ele>154.7</ele>
        <time>2021-05-20T12:54:42Z</time>
      </trkpt>
      <trkpt lat="42.2461850" lon="-8.6874440">
        <ele>154.7</ele>
        <time>2021-05-20T12:54:43Z</time>
      </trkpt>
      <trkpt lat="42.2461680" lon="-8.6874270">
        <ele>154.7</ele>
        <time>2021-05-20T12:54:44Z</time>
      </trkpt>
      <trkpt lat="42.2461620" lon="-8.6874190">
        <ele>154.7</ele>
        <time>2021-05-20T12:54:45Z</time>
      </trkpt>
      <trkpt lat="42.2461550" lon="-8.6874120">
        <ele>154.7</ele>
        <time>2021-05-20T12:54:46Z</time>
      </trkpt>
      <trkpt lat="42.2461460" lon="-8.6874070">
        <ele>154.7</ele>
        <time>2021-05-20T12:54:47Z</time>
      </trkpt>
      <trkpt lat="42.2461340" lon="-8.6874030">
        <ele>154.7</ele>
        <time>2021-05-20T12:54:48Z</time>
      </trkpt>
      <trkpt lat="42.2461210" lon="-8.6873970">
        <ele>154.7</ele>
        <time>2021-05-20T12:54:49Z</time>
      </trkpt>
      <trkpt lat="42.2461060" lon="-8.6873880">
        <ele>154.8</ele>
        <time>2021-05-20T12:54:50Z</time>
      </trkpt>
      <trkpt lat="42.2460990" lon="-8.6873850">
        <ele>154.8</ele>
        <time>2021-05-20T12:54:51Z</time>
      </trkpt>
      <trkpt lat="42.2460920" lon="-8.6873830">
        <ele>154.8</ele>
        <time>2021-05-20T12:54:52Z</time>
      </trkpt>
      <trkpt lat="42.2460850" lon="-8.6873810">
        <ele>154.8</ele>
        <time>2021-05-20T12:54:53Z</time>
      </trkpt>
      <trkpt lat="42.2460740" lon="-8.6873690">
        <ele>154.8</ele>
        <time>2021-05-20T12:54:54Z</time>
      </trkpt>
      <trkpt lat="42.2460590" lon="-8.6873470">
        <ele>154.8</ele>
        <time>2021-05-20T12:54:55Z</time>
      </trkpt>
      <trkpt lat="42.2460440" lon="-8.6873390">
        <ele>154.8</ele>
        <time>2021-05-20T12:54:56Z</time>
      </trkpt>
      <trkpt lat="42.2460420" lon="-8.6873290">
        <ele>154.9</ele>
        <time>2021-05-20T12:54:57Z</time>
      </trkpt>
      <trkpt lat="42.2460340" lon="-8.6873150">
        <ele>154.9</ele>
        <time>2021-05-20T12:54:58Z</time>
      </trkpt>
      <trkpt lat="42.2460200" lon="-8.6873070">
        <ele>154.9</ele>
        <time>2021-05-20T12:54:59Z</time>
      </trkpt>
      <trkpt lat="42.2460170" lon="-8.6872990">
        <ele>154.9</ele>
        <time>2021-05-20T12:55:00Z</time>
      </trkpt>
      <trkpt lat="42.2460040" lon="-8.6872910">
        <ele>154.9</ele>
        <time>2021-05-20T12:55:01Z</time>
      </trkpt>
      <trkpt lat="42.2459900" lon="-8.6872860">
        <ele>154.9</ele>
        <time>2021-05-20T12:55:02Z</time>
      </trkpt>
      <trkpt lat="42.2459860" lon="-8.6872790">
        <ele>154.9</ele>
        <time>2021-05-20T12:55:03Z</time>
      </trkpt>
      <trkpt lat="42.2459720" lon="-8.6872710">
        <ele>154.9</ele>
        <time>2021-05-20T12:55:04Z</time>
      </trkpt>
      <trkpt lat="42.2459540" lon="-8.6872630">
        <ele>155.0</ele>
        <time>2021-05-20T12:55:05Z</time>
      </trkpt>
      <trkpt lat="42.2459500" lon="-8.6872620">
        <ele>155.0</ele>
        <time>2021-05-20T12:55:06Z</time>
      </trkpt>
      <trkpt lat="42.2459410" lon="-8.6872490">
        <ele>155.0</ele>
        <time>2021-05-20T12:55:07Z</time>
      </trkpt>
      <trkpt lat="42.2459210" lon="-8.6872410">
        <ele>155.0</ele>
        <time>2021-05-20T12:55:08Z</time>
      </trkpt>
      <trkpt lat="42.2459160" lon="-8.6872340">
        <ele>155.0</ele>
        <time>2021-05-20T12:55:09Z</time>
      </trkpt>
      <trkpt lat="42.2459070" lon="-8.6872110">
        <ele>155.0</ele>
        <time>2021-05-20T12:55:10Z</time>
      </trkpt>
      <trkpt lat="42.2458950" lon="-8.6872070">
        <ele>155.0</ele>
        <time>2021-05-20T12:55:11Z</time>
      </trkpt>
      <trkpt lat="42.2458790" lon="-8.6871990">
        <ele>155.0</ele>
        <time>2021-05-20T12:55:12Z</time>
      </trkpt>
      <trkpt lat="42.2458720" lon="-8.6871980">
        <ele>155.0</ele>
        <time>2021-05-20T12:55:13Z</time>
      </trkpt>
      <trkpt lat="42.2458650" lon="-8.6871960">
        <ele>155.0</ele>
        <time>2021-05-20T12:55:14Z</time>
      </trkpt>
      <trkpt lat="42.2458580" lon="-8.6871950">
        <ele>155.1</ele>
        <time>2021-05-20T12:55:15Z</time>
      </trkpt>
      <trkpt lat="42.2458380" lon="-8.6871830">
        <ele>155.1</ele>
        <time>2021-05-20T12:55:16Z</time>
      </trkpt>
      <trkpt lat="42.2458310" lon="-8.6871770">
        <ele>155.1</ele>
        <time>2021-05-20T12:55:17Z</time>
      </trkpt>
      <trkpt lat="42.2458230" lon="-8.6871710">
        <ele>155.1</ele>
        <time>2021-05-20T12:55:18Z</time>
      </trkpt>
      <trkpt lat="42.2458130" lon="-8.6871680">
        <ele>155.1</ele>
        <time>2021-05-20T12:55:19Z</time>
      </trkpt>
      <trkpt lat="42.2457940" lon="-8.6871560">
        <ele>155.1</ele>
        <time>2021-05-20T12:55:20Z</time>
      </trkpt>
      <trkpt lat="42.2457720" lon="-8.6871450">
        <ele>155.1</ele>
        <time>2021-05-20T12:55:21Z</time>
      </trkpt>
      <trkpt lat="42.2457670" lon="-8.6871390">
        <ele>155.1</ele>
        <time>2021-05-20T12:55:22Z</time>
      </trkpt>
      <trkpt lat="42.2457610" lon="-8.6871330">
        <ele>155.1</ele>
        <time>2021-05-20T12:55:23Z</time>
      </trkpt>
      <trkpt lat="42.2457460" lon="-8.6871290">
        <ele>155.1</ele>
        <time>2021-05-20T12:55:24Z</time>
      </trkpt>
      <trkpt lat="42.2457330" lon="-8.6871210">
        <ele>155.1</ele>
        <time>2021-05-20T12:55:25Z</time>
      </trkpt>
      <trkpt lat="42.2457190" lon="-8.6871130">
        <ele>155.1</ele>
        <time>2021-05-20T12:55:26Z</time>
      </trkpt>
      <trkpt lat="42.2457100" lon="-8.6870950">
        <ele>155.1</ele>
        <time>2021-05-20T12:55:27Z</time>
      </trkpt>
      <trkpt lat="42.2457000" lon="-8.6871060">
        <ele>155.1</ele>
        <time>2021-05-20T12:55:28Z</time>
      </trkpt>
      <trkpt lat="42.2456890" lon="-8.6870990">
        <ele>155.1</ele>
        <time>2021-05-20T12:55:29Z</time>
      </trkpt>
      <trkpt lat="42.2456770" lon="-8.6870910">
        <ele>155.1</ele>
        <time>2021-05-20T12:55:30Z</time>
      </trkpt>
      <trkpt lat="42.2456650" lon="-8.6870710">
        <ele>155.1</ele>
        <time>2021-05-20T12:55:31Z</time>
      </trkpt>
      <trkpt lat="42.2456590" lon="-8.6870630">
        <ele>155.1</ele>
        <time>2021-05-20T12:55:32Z</time>
      </trkpt>
      <trkpt lat="42.2456520" lon="-8.6870560">
        <ele>155.1</ele>
        <time>2021-05-20T12:55:33Z</time>
      </trkpt>
      <trkpt lat="42.2456450" lon="-8.6870490">
        <ele>155.1</ele>
        <time>2021-05-20T12:55:34Z</time>
      </trkpt>
      <trkpt lat="42.2456210" lon="-8.6870320">
        <ele>155.1</ele>
        <time>2021-05-20T12:55:35Z</time>
      </trkpt>
      <trkpt lat="42.2456010" lon="-8.6870190">
        <ele>155.1</ele>
        <time>2021-05-20T12:55:36Z</time>
      </trkpt>
      <trkpt lat="42.2455940" lon="-8.6870150">
        <ele>155.1</ele>
        <time>2021-05-20T12:55:37Z</time>
      </trkpt>
      <trkpt lat="42.2455870" lon="-8.6870100">
        <ele>155.1</ele>
        <time>2021-05-20T12:55:38Z</time>
      </trkpt>
      <trkpt lat="42.2455750" lon="-8.6869990">
        <ele>155.1</ele>
        <time>2021-05-20T12:55:39Z</time>
      </trkpt>
      <trkpt lat="42.2455690" lon="-8.6869960">
        <ele>155.1</ele>
        <time>2021-05-20T12:55:40Z</time>
      </trkpt>
      <trkpt lat="42.2455580" lon="-8.6869980">
        <ele>155.1</ele>
        <time>2021-05-20T12:55:41Z</time>
      </trkpt>
      <trkpt lat="42.2455490" lon="-8.6869950">
        <ele>155.1</ele>
        <time>2021-05-20T12:55:42Z</time>
      </trkpt>
      <trkpt lat="42.2455330" lon="-8.6869880">
        <ele>155.1</ele>
        <time>2021-05-20T12:55:43Z</time>
      </trkpt>
      <trkpt lat="42.2455260" lon="-8.6869840">
        <ele>155.1</ele>
        <time>2021-05-20T12:55:44Z</time>
      </trkpt>
      <trkpt lat="42.2455210" lon="-8.6869670">
        <ele>155.1</ele>
        <time>2021-05-20T12:55:45Z</time>
      </trkpt>
      <trkpt lat="42.2455100" lon="-8.6869590">
        <ele>155.1</ele>
        <time>2021-05-20T12:55:46Z</time>
      </trkpt>
      <trkpt lat="42.2455050" lon="-8.6869490">
        <ele>155.1</ele>
        <time>2021-05-20T12:55:47Z</time>
      </trkpt>
      <trkpt lat="42.2454980" lon="-8.6869390">
        <ele>155.1</ele>
        <time>2021-05-20T12:55:48Z</time>
      </trkpt>
      <trkpt lat="42.2454860" lon="-8.6869240">
        <ele>155.1</ele>
        <time>2021-05-20T12:55:49Z</time>
      </trkpt>
      <trkpt lat="42.2454790" lon="-8.6869130">
        <ele>155.1</ele>
        <time>2021-05-20T12:55:50Z</time>
      </trkpt>
      <trkpt lat="42.2454740" lon="-8.6869020">
        <ele>155.1</ele>
        <time>2021-05-20T12:55:51Z</time>
      </trkpt>
      <trkpt lat="42.2454770" lon="-8.6869000">
        <ele>155.1</ele>
        <time>2021-05-20T12:55:52Z</time>
      </trkpt>
      <trkpt lat="42.2454700" lon="-8.6868810">
        <ele>155.0</ele>
        <time>2021-05-20T12:55:53Z</time>
      </trkpt>
      <trkpt lat="42.2454640" lon="-8.6868700">
        <ele>155.0</ele>
        <time>2021-05-20T12:55:54Z</time>
      </trkpt>
      <trkpt lat="42.2454540" lon="-8.6868480">
        <ele>155.0</ele>
        <time>2021-05-20T12:55:55Z</time>
      </trkpt>
      <trkpt lat="42.2454410" lon="-8.6868210">
        <ele>155.0</ele>
        <time>2021-05-20T12:55:56Z</time>
      </trkpt>
      <trkpt lat="42.2454370" lon="-8.6868070">
        <ele>155.0</ele>
        <time>2021-05-20T12:55:57Z</time>
      </trkpt>
      <trkpt lat="42.2454340" lon="-8.6867940">
        <ele>155.0</ele>
        <time>2021-05-20T12:55:58Z</time>
      </trkpt>
      <trkpt lat="42.2454320" lon="-8.6867910">
        <ele>155.0</ele>
        <time>2021-05-20T12:55:59Z</time>
      </trkpt>
      <trkpt lat="42.2454280" lon="-8.6867700">
        <ele>155.0</ele>
        <time>2021-05-20T12:56:00Z</time>
      </trkpt>
      <trkpt lat="42.2454160" lon="-8.6867570">
        <ele>155.0</ele>
        <time>2021-05-20T12:56:01Z</time>
      </trkpt>
      <trkpt lat="42.2454060" lon="-8.6867260">
        <ele>155.0</ele>
        <time>2021-05-20T12:56:02Z</time>
      </trkpt>
      <trkpt lat="42.2454020" lon="-8.6867160">
        <ele>155.0</ele>
        <time>2021-05-20T12:56:03Z</time>
      </trkpt>
      <trkpt lat="42.2453970" lon="-8.6867060">
        <ele>155.0</ele>
        <time>2021-05-20T12:56:04Z</time>
      </trkpt>
      <trkpt lat="42.2453870" lon="-8.6867010">
        <ele>155.0</ele>
        <time>2021-05-20T12:56:05Z</time>
      </trkpt>
      <trkpt lat="42.2453790" lon="-8.6866920">
        <ele>155.0</ele>
        <time>2021-05-20T12:56:06Z</time>
      </trkpt>
      <trkpt lat="42.2453710" lon="-8.6866780">
        <ele>155.0</ele>
        <time>2021-05-20T12:56:07Z</time>
      </trkpt>
      <trkpt lat="42.2453580" lon="-8.6866640">
        <ele>155.0</ele>
        <time>2021-05-20T12:56:08Z</time>
      </trkpt>
      <trkpt lat="42.2453570" lon="-8.6866560">
        <ele>155.0</ele>
        <time>2021-05-20T12:56:09Z</time>
      </trkpt>
      <trkpt lat="42.2453550" lon="-8.6866370">
        <ele>154.9</ele>
        <time>2021-05-20T12:56:10Z</time>
      </trkpt>
      <trkpt lat="42.2453480" lon="-8.6866210">
        <ele>154.9</ele>
        <time>2021-05-20T12:56:11Z</time>
      </trkpt>
      <trkpt lat="42.2453430" lon="-8.6866010">
        <ele>154.9</ele>
        <time>2021-05-20T12:56:12Z</time>
      </trkpt>
      <trkpt lat="42.2453460" lon="-8.6865900">
        <ele>154.9</ele>
        <time>2021-05-20T12:56:13Z</time>
      </trkpt>
      <trkpt lat="42.2453510" lon="-8.6865750">
        <ele>154.9</ele>
        <time>2021-05-20T12:56:14Z</time>
      </trkpt>
      <trkpt lat="42.2453440" lon="-8.6865600">
        <ele>154.9</ele>
        <time>2021-05-20T12:56:15Z</time>
      </trkpt>
      <trkpt lat="42.2453350" lon="-8.6865380">
        <ele>154.9</ele>
        <time>2021-05-20T12:56:16Z</time>
      </trkpt>
      <trkpt lat="42.2453320" lon="-8.6865230">
        <ele>154.9</ele>
        <time>2021-05-20T12:56:17Z</time>
      </trkpt>
      <trkpt lat="42.2453280" lon="-8.6865080">
        <ele>154.9</ele>
        <time>2021-05-20T12:56:18Z</time>
      </trkpt>
      <trkpt lat="42.2453250" lon="-8.6864980">
        <ele>154.9</ele>
        <time>2021-05-20T12:56:19Z</time>
      </trkpt>
      <trkpt lat="42.2453130" lon="-8.6864680">
        <ele>154.9</ele>
        <time>2021-05-20T12:56:20Z</time>
      </trkpt>
      <trkpt lat="42.2453130" lon="-8.6864540">
        <ele>154.9</ele>
        <time>2021-05-20T12:56:21Z</time>
      </trkpt>
      <trkpt lat="42.2453080" lon="-8.6864420">
        <ele>154.9</ele>
        <time>2021-05-20T12:56:22Z</time>
      </trkpt>
      <trkpt lat="42.2453000" lon="-8.6864330">
        <ele>154.9</ele>
        <time>2021-05-20T12:56:23Z</time>
      </trkpt>
      <trkpt lat="42.2453000" lon="-8.6864230">
        <ele>154.9</ele>
        <time>2021-05-20T12:56:24Z</time>
      </trkpt>
      <trkpt lat="42.2452880" lon="-8.6864040">
        <ele>154.9</ele>
        <time>2021-05-20T12:56:25Z</time>
      </trkpt>
      <trkpt lat="42.2452930" lon="-8.6863890">
        <ele>154.9</ele>
        <time>2021-05-20T12:56:26Z</time>
      </trkpt>
      <trkpt lat="42.2452790" lon="-8.6863550">
        <ele>154.9</ele>
        <time>2021-05-20T12:56:27Z</time>
      </trkpt>
      <trkpt lat="42.2452770" lon="-8.6863460">
        <ele>154.9</ele>
        <time>2021-05-20T12:56:28Z</time>
      </trkpt>
      <trkpt lat="42.2452760" lon="-8.6863360">
        <ele>154.9</ele>
        <time>2021-05-20T12:56:29Z</time>
      </trkpt>
      <trkpt lat="42.2452730" lon="-8.6863240">
        <ele>154.9</ele>
        <time>2021-05-20T12:56:30Z</time>
      </trkpt>
      <trkpt lat="42.2452710" lon="-8.6863090">
        <ele>154.9</ele>
        <time>2021-05-20T12:56:31Z</time>
      </trkpt>
      <trkpt lat="42.2452580" lon="-8.6862950">
        <ele>154.9</ele>
        <time>2021-05-20T12:56:32Z</time>
      </trkpt>
      <trkpt lat="42.2452540" lon="-8.6862770">
        <ele>154.9</ele>
        <time>2021-05-20T12:56:33Z</time>
      </trkpt>
      <trkpt lat="42.2452540" lon="-8.6862640">
        <ele>154.9</ele>
        <time>2021-05-20T12:56:34Z</time>
      </trkpt>
      <trkpt lat="42.2452550" lon="-8.6862500">
        <ele>154.9</ele>
        <time>2021-05-20T12:56:35Z</time>
      </trkpt>
      <trkpt lat="42.2452550" lon="-8.6862370">
        <ele>154.9</ele>
        <time>2021-05-20T12:56:36Z</time>
      </trkpt>
      <trkpt lat="42.2452550" lon="-8.6862130">
        <ele>154.9</ele>
        <time>2021-05-20T12:56:37Z</time>
      </trkpt>
      <trkpt lat="42.2452550" lon="-8.6861960">
        <ele>154.9</ele>
        <time>2021-05-20T12:56:38Z</time>
      </trkpt>
      <trkpt lat="42.2452540" lon="-8.6861800">
        <ele>154.9</ele>
        <time>2021-05-20T12:56:39Z</time>
      </trkpt>
      <trkpt lat="42.2452520" lon="-8.6861630">
        <ele>154.9</ele>
        <time>2021-05-20T12:56:40Z</time>
      </trkpt>
      <trkpt lat="42.2452540" lon="-8.6861430">
        <ele>154.9</ele>
        <time>2021-05-20T12:56:41Z</time>
      </trkpt>
      <trkpt lat="42.2452490" lon="-8.6861210">
        <ele>154.9</ele>
        <time>2021-05-20T12:56:42Z</time>
      </trkpt>
      <trkpt lat="42.2452450" lon="-8.6861060">
        <ele>154.9</ele>
        <time>2021-05-20T12:56:43Z</time>
      </trkpt>
      <trkpt lat="42.2452360" lon="-8.6860780">
        <ele>154.9</ele>
        <time>2021-05-20T12:56:44Z</time>
      </trkpt>
      <trkpt lat="42.2452350" lon="-8.6860680">
        <ele>154.9</ele>
        <time>2021-05-20T12:56:45Z</time>
      </trkpt>
      <trkpt lat="42.2452340" lon="-8.6860590">
        <ele>154.9</ele>
        <time>2021-05-20T12:56:46Z</time>
      </trkpt>
      <trkpt lat="42.2452280" lon="-8.6860390">
        <ele>154.9</ele>
        <time>2021-05-20T12:56:47Z</time>
      </trkpt>
      <trkpt lat="42.2452280" lon="-8.6860220">
        <ele>154.9</ele>
        <time>2021-05-20T12:56:48Z</time>
      </trkpt>
      <trkpt lat="42.2452350" lon="-8.6860080">
        <ele>154.9</ele>
        <time>2021-05-20T12:56:49Z</time>
      </trkpt>
      <trkpt lat="42.2452350" lon="-8.6859980">
        <ele>154.9</ele>
        <time>2021-05-20T12:56:50Z</time>
      </trkpt>
      <trkpt lat="42.2452410" lon="-8.6859810">
        <ele>154.9</ele>
        <time>2021-05-20T12:56:51Z</time>
      </trkpt>
      <trkpt lat="42.2452400" lon="-8.6859530">
        <ele>154.9</ele>
        <time>2021-05-20T12:56:52Z</time>
      </trkpt>
      <trkpt lat="42.2452400" lon="-8.6859390">
        <ele>155.0</ele>
        <time>2021-05-20T12:56:53Z</time>
      </trkpt>
      <trkpt lat="42.2452390" lon="-8.6859260">
        <ele>155.0</ele>
        <time>2021-05-20T12:56:55Z</time>
      </trkpt>
      <trkpt lat="42.2452380" lon="-8.6859120">
        <ele>155.0</ele>
        <time>2021-05-20T12:56:56Z</time>
      </trkpt>
      <trkpt lat="42.2452380" lon="-8.6858880">
        <ele>155.0</ele>
        <time>2021-05-20T12:56:57Z</time>
      </trkpt>
      <trkpt lat="42.2452340" lon="-8.6858710">
        <ele>155.0</ele>
        <time>2021-05-20T12:56:58Z</time>
      </trkpt>
      <trkpt lat="42.2452340" lon="-8.6858580">
        <ele>155.0</ele>
        <time>2021-05-20T12:56:59Z</time>
      </trkpt>
      <trkpt lat="42.2452290" lon="-8.6858500">
        <ele>155.0</ele>
        <time>2021-05-20T12:57:00Z</time>
      </trkpt>
      <trkpt lat="42.2452260" lon="-8.6858290">
        <ele>155.0</ele>
        <time>2021-05-20T12:57:01Z</time>
      </trkpt>
      <trkpt lat="42.2452270" lon="-8.6858020">
        <ele>155.0</ele>
        <time>2021-05-20T12:57:02Z</time>
      </trkpt>
      <trkpt lat="42.2452280" lon="-8.6857900">
        <ele>155.0</ele>
        <time>2021-05-20T12:57:03Z</time>
      </trkpt>
      <trkpt lat="42.2452290" lon="-8.6857780">
        <ele>155.0</ele>
        <time>2021-05-20T12:57:04Z</time>
      </trkpt>
      <trkpt lat="42.2452240" lon="-8.6857620">
        <ele>155.0</ele>
        <time>2021-05-20T12:57:05Z</time>
      </trkpt>
      <trkpt lat="42.2452180" lon="-8.6857490">
        <ele>155.0</ele>
        <time>2021-05-20T12:57:06Z</time>
      </trkpt>
      <trkpt lat="42.2452170" lon="-8.6857430">
        <ele>155.0</ele>
        <time>2021-05-20T12:57:07Z</time>
      </trkpt>
      <trkpt lat="42.2452190" lon="-8.6857340">
        <ele>155.0</ele>
        <time>2021-05-20T12:57:08Z</time>
      </trkpt>
      <trkpt lat="42.2452160" lon="-8.6857100">
        <ele>155.0</ele>
        <time>2021-05-20T12:57:09Z</time>
      </trkpt>
      <trkpt lat="42.2452210" lon="-8.6856990">
        <ele>155.0</ele>
        <time>2021-05-20T12:57:10Z</time>
      </trkpt>
      <trkpt lat="42.2452170" lon="-8.6856730">
        <ele>155.0</ele>
        <time>2021-05-20T12:57:11Z</time>
      </trkpt>
      <trkpt lat="42.2452150" lon="-8.6856580">
        <ele>155.1</ele>
        <time>2021-05-20T12:57:12Z</time>
      </trkpt>
      <trkpt lat="42.2452120" lon="-8.6856430">
        <ele>155.1</ele>
        <time>2021-05-20T12:57:13Z</time>
      </trkpt>
      <trkpt lat="42.2452080" lon="-8.6856210">
        <ele>155.1</ele>
        <time>2021-05-20T12:57:14Z</time>
      </trkpt>
      <trkpt lat="42.2452040" lon="-8.6856040">
        <ele>155.1</ele>
        <time>2021-05-20T12:57:15Z</time>
      </trkpt>
      <trkpt lat="42.2451980" lon="-8.6855880">
        <ele>155.1</ele>
        <time>2021-05-20T12:57:16Z</time>
      </trkpt>
      <trkpt lat="42.2451940" lon="-8.6855650">
        <ele>155.1</ele>
        <time>2021-05-20T12:57:17Z</time>
      </trkpt>
      <trkpt lat="42.2451940" lon="-8.6855540">
        <ele>155.1</ele>
        <time>2021-05-20T12:57:18Z</time>
      </trkpt>
      <trkpt lat="42.2452010" lon="-8.6855350">
        <ele>155.1</ele>
        <time>2021-05-20T12:57:19Z</time>
      </trkpt>
      <trkpt lat="42.2451920" lon="-8.6855190">
        <ele>155.1</ele>
        <time>2021-05-20T12:57:20Z</time>
      </trkpt>
      <trkpt lat="42.2451850" lon="-8.6855060">
        <ele>155.1</ele>
        <time>2021-05-20T12:57:21Z</time>
      </trkpt>
      <trkpt lat="42.2451880" lon="-8.6854990">
        <ele>155.1</ele>
        <time>2021-05-20T12:57:22Z</time>
      </trkpt>
      <trkpt lat="42.2451870" lon="-8.6854720">
        <ele>155.1</ele>
        <time>2021-05-20T12:57:23Z</time>
      </trkpt>
      <trkpt lat="42.2451800" lon="-8.6854320">
        <ele>155.1</ele>
        <time>2021-05-20T12:57:24Z</time>
      </trkpt>
      <trkpt lat="42.2451760" lon="-8.6854180">
        <ele>155.0</ele>
        <time>2021-05-20T12:57:25Z</time>
      </trkpt>
      <trkpt lat="42.2451690" lon="-8.6854080">
        <ele>155.0</ele>
        <time>2021-05-20T12:57:26Z</time>
      </trkpt>
      <trkpt lat="42.2451620" lon="-8.6853870">
        <ele>155.0</ele>
        <time>2021-05-20T12:57:27Z</time>
      </trkpt>
      <trkpt lat="42.2451620" lon="-8.6853620">
        <ele>155.0</ele>
        <time>2021-05-20T12:57:28Z</time>
      </trkpt>
      <trkpt lat="42.2451610" lon="-8.6853470">
        <ele>155.0</ele>
        <time>2021-05-20T12:57:29Z</time>
      </trkpt>
      <trkpt lat="42.2451590" lon="-8.6853310">
        <ele>155.0</ele>
        <time>2021-05-20T12:57:30Z</time>
      </trkpt>
      <trkpt lat="42.2451530" lon="-8.6853160">
        <ele>155.0</ele>
        <time>2021-05-20T12:57:31Z</time>
      </trkpt>
      <trkpt lat="42.2451480" lon="-8.6852970">
        <ele>155.0</ele>
        <time>2021-05-20T12:57:32Z</time>
      </trkpt>
      <trkpt lat="42.2451430" lon="-8.6852590">
        <ele>155.0</ele>
        <time>2021-05-20T12:57:33Z</time>
      </trkpt>
      <trkpt lat="42.2451400" lon="-8.6852480">
        <ele>155.0</ele>
        <time>2021-05-20T12:57:34Z</time>
      </trkpt>
      <trkpt lat="42.2451360" lon="-8.6852410">
        <ele>155.0</ele>
        <time>2021-05-20T12:57:35Z</time>
      </trkpt>
      <trkpt lat="42.2451330" lon="-8.6852280">
        <ele>155.0</ele>
        <time>2021-05-20T12:57:36Z</time>
      </trkpt>
      <trkpt lat="42.2451270" lon="-8.6852110">
        <ele>155.0</ele>
        <time>2021-05-20T12:57:37Z</time>
      </trkpt>
      <trkpt lat="42.2451190" lon="-8.6851860">
        <ele>155.0</ele>
        <time>2021-05-20T12:57:38Z</time>
      </trkpt>
      <trkpt lat="42.2451120" lon="-8.6851750">
        <ele>155.0</ele>
        <time>2021-05-20T12:57:39Z</time>
      </trkpt>
      <trkpt lat="42.2451060" lon="-8.6851650">
        <ele>155.0</ele>
        <time>2021-05-20T12:57:40Z</time>
      </trkpt>
      <trkpt lat="42.2450940" lon="-8.6851350">
        <ele>155.0</ele>
        <time>2021-05-20T12:57:41Z</time>
      </trkpt>
      <trkpt lat="42.2450850" lon="-8.6851280">
        <ele>155.0</ele>
        <time>2021-05-20T12:57:42Z</time>
      </trkpt>
      <trkpt lat="42.2450790" lon="-8.6851120">
        <ele>155.0</ele>
        <time>2021-05-20T12:57:43Z</time>
      </trkpt>
      <trkpt lat="42.2450810" lon="-8.6851040">
        <ele>155.0</ele>
        <time>2021-05-20T12:57:44Z</time>
      </trkpt>
      <trkpt lat="42.2450760" lon="-8.6850850">
        <ele>154.9</ele>
        <time>2021-05-20T12:57:45Z</time>
      </trkpt>
      <trkpt lat="42.2450680" lon="-8.6850700">
        <ele>154.9</ele>
        <time>2021-05-20T12:57:46Z</time>
      </trkpt>
      <trkpt lat="42.2450650" lon="-8.6850590">
        <ele>154.9</ele>
        <time>2021-05-20T12:57:47Z</time>
      </trkpt>
      <trkpt lat="42.2450610" lon="-8.6850490">
        <ele>154.9</ele>
        <time>2021-05-20T12:57:48Z</time>
      </trkpt>
      <trkpt lat="42.2450570" lon="-8.6850390">
        <ele>154.9</ele>
        <time>2021-05-20T12:57:49Z</time>
      </trkpt>
      <trkpt lat="42.2450510" lon="-8.6850250">
        <ele>154.9</ele>
        <time>2021-05-20T12:57:50Z</time>
      </trkpt>
      <trkpt lat="42.2450490" lon="-8.6850120">
        <ele>154.9</ele>
        <time>2021-05-20T12:57:51Z</time>
      </trkpt>
      <trkpt lat="42.2450430" lon="-8.6849990">
        <ele>154.9</ele>
        <time>2021-05-20T12:57:52Z</time>
      </trkpt>
      <trkpt lat="42.2450380" lon="-8.6849640">
        <ele>155.0</ele>
        <time>2021-05-20T12:57:53Z</time>
      </trkpt>
      <trkpt lat="42.2450360" lon="-8.6849490">
        <ele>155.0</ele>
        <time>2021-05-20T12:57:54Z</time>
      </trkpt>
      <trkpt lat="42.2450330" lon="-8.6849320">
        <ele>155.0</ele>
        <time>2021-05-20T12:57:55Z</time>
      </trkpt>
      <trkpt lat="42.2450250" lon="-8.6849150">
        <ele>155.0</ele>
        <time>2021-05-20T12:57:56Z</time>
      </trkpt>
      <trkpt lat="42.2450130" lon="-8.6848920">
        <ele>155.0</ele>
        <time>2021-05-20T12:57:57Z</time>
      </trkpt>
      <trkpt lat="42.2450050" lon="-8.6848740">
        <ele>155.1</ele>
        <time>2021-05-20T12:57:58Z</time>
      </trkpt>
      <trkpt lat="42.2449980" lon="-8.6848390">
        <ele>155.1</ele>
        <time>2021-05-20T12:57:59Z</time>
      </trkpt>
      <trkpt lat="42.2449910" lon="-8.6848250">
        <ele>155.1</ele>
        <time>2021-05-20T12:58:00Z</time>
      </trkpt>
      <trkpt lat="42.2449890" lon="-8.6848050">
        <ele>155.2</ele>
        <time>2021-05-20T12:58:01Z</time>
      </trkpt>
      <trkpt lat="42.2449870" lon="-8.6847970">
        <ele>155.2</ele>
        <time>2021-05-20T12:58:02Z</time>
      </trkpt>
      <trkpt lat="42.2449760" lon="-8.6847820">
        <ele>155.2</ele>
        <time>2021-05-20T12:58:03Z</time>
      </trkpt>
      <trkpt lat="42.2449730" lon="-8.6847700">
        <ele>155.3</ele>
        <time>2021-05-20T12:58:04Z</time>
      </trkpt>
      <trkpt lat="42.2449710" lon="-8.6847510">
        <ele>155.3</ele>
        <time>2021-05-20T12:58:05Z</time>
      </trkpt>
      <trkpt lat="42.2449740" lon="-8.6847400">
        <ele>155.4</ele>
        <time>2021-05-20T12:58:06Z</time>
      </trkpt>
      <trkpt lat="42.2449730" lon="-8.6847100">
        <ele>155.4</ele>
        <time>2021-05-20T12:58:07Z</time>
      </trkpt>
      <trkpt lat="42.2449740" lon="-8.6846990">
        <ele>155.5</ele>
        <time>2021-05-20T12:58:08Z</time>
      </trkpt>
      <trkpt lat="42.2449760" lon="-8.6846870">
        <ele>155.5</ele>
        <time>2021-05-20T12:58:09Z</time>
      </trkpt>
      <trkpt lat="42.2449690" lon="-8.6846640">
        <ele>155.6</ele>
        <time>2021-05-20T12:58:10Z</time>
      </trkpt>
      <trkpt lat="42.2449680" lon="-8.6846540">
        <ele>155.6</ele>
        <time>2021-05-20T12:58:11Z</time>
      </trkpt>
      <trkpt lat="42.2449660" lon="-8.6846440">
        <ele>155.7</ele>
        <time>2021-05-20T12:58:12Z</time>
      </trkpt>
      <trkpt lat="42.2449640" lon="-8.6846340">
        <ele>155.7</ele>
        <time>2021-05-20T12:58:13Z</time>
      </trkpt>
      <trkpt lat="42.2449680" lon="-8.6846040">
        <ele>155.8</ele>
        <time>2021-05-20T12:58:14Z</time>
      </trkpt>
      <trkpt lat="42.2449690" lon="-8.6845970">
        <ele>155.9</ele>
        <time>2021-05-20T12:58:15Z</time>
      </trkpt>
      <trkpt lat="42.2449740" lon="-8.6845670">
        <ele>156.0</ele>
        <time>2021-05-20T12:58:16Z</time>
      </trkpt>
      <trkpt lat="42.2449720" lon="-8.6845580">
        <ele>156.0</ele>
        <time>2021-05-20T12:58:17Z</time>
      </trkpt>
      <trkpt lat="42.2449710" lon="-8.6845440">
        <ele>156.0</ele>
        <time>2021-05-20T12:58:18Z</time>
      </trkpt>
      <trkpt lat="42.2449710" lon="-8.6845290">
        <ele>156.1</ele>
        <time>2021-05-20T12:58:19Z</time>
      </trkpt>
      <trkpt lat="42.2449750" lon="-8.6845200">
        <ele>156.1</ele>
        <time>2021-05-20T12:58:20Z</time>
      </trkpt>
      <trkpt lat="42.2449770" lon="-8.6845200">
        <ele>156.2</ele>
        <time>2021-05-20T12:58:21Z</time>
      </trkpt>
      <trkpt lat="42.2449810" lon="-8.6845290">
        <ele>156.2</ele>
        <time>2021-05-20T12:58:22Z</time>
      </trkpt>
      <trkpt lat="42.2449880" lon="-8.6845270">
        <ele>156.2</ele>
        <time>2021-05-20T12:58:23Z</time>
      </trkpt>
      <trkpt lat="42.2449890" lon="-8.6845170">
        <ele>156.3</ele>
        <time>2021-05-20T12:58:24Z</time>
      </trkpt>
      <trkpt lat="42.2449960" lon="-8.6845120">
        <ele>156.3</ele>
        <time>2021-05-20T12:58:25Z</time>
      </trkpt>
      <trkpt lat="42.2450040" lon="-8.6845080">
        <ele>156.3</ele>
        <time>2021-05-20T12:58:26Z</time>
      </trkpt>
      <trkpt lat="42.2450090" lon="-8.6845100">
        <ele>156.4</ele>
        <time>2021-05-20T12:58:27Z</time>
      </trkpt>
      <trkpt lat="42.2450180" lon="-8.6844990">
        <ele>156.4</ele>
        <time>2021-05-20T12:58:28Z</time>
      </trkpt>
      <trkpt lat="42.2450210" lon="-8.6845000">
        <ele>156.4</ele>
        <time>2021-05-20T12:58:29Z</time>
      </trkpt>
      <trkpt lat="42.2450320" lon="-8.6844910">
        <ele>156.5</ele>
        <time>2021-05-20T12:58:30Z</time>
      </trkpt>
      <trkpt lat="42.2450330" lon="-8.6844800">
        <ele>156.5</ele>
        <time>2021-05-20T12:58:31Z</time>
      </trkpt>
      <trkpt lat="42.2450260" lon="-8.6844910">
        <ele>156.5</ele>
        <time>2021-05-20T12:58:32Z</time>
      </trkpt>
      <trkpt lat="42.2450220" lon="-8.6845070">
        <ele>156.6</ele>
        <time>2021-05-20T12:58:33Z</time>
      </trkpt>
      <trkpt lat="42.2450270" lon="-8.6845120">
        <ele>156.6</ele>
        <time>2021-05-20T12:58:34Z</time>
      </trkpt>
      <trkpt lat="42.2450210" lon="-8.6845360">
        <ele>156.7</ele>
        <time>2021-05-20T12:58:35Z</time>
      </trkpt>
      <trkpt lat="42.2450200" lon="-8.6845480">
        <ele>156.7</ele>
        <time>2021-05-20T12:58:36Z</time>
      </trkpt>
      <trkpt lat="42.2450150" lon="-8.6845620">
        <ele>156.7</ele>
        <time>2021-05-20T12:58:37Z</time>
      </trkpt>
      <trkpt lat="42.2450120" lon="-8.6845650">
        <ele>156.7</ele>
        <time>2021-05-20T12:58:38Z</time>
      </trkpt>
      <trkpt lat="42.2450170" lon="-8.6845580">
        <ele>156.7</ele>
        <time>2021-05-20T12:58:39Z</time>
      </trkpt>
      <trkpt lat="42.2450090" lon="-8.6845670">
        <ele>156.8</ele>
        <time>2021-05-20T12:58:40Z</time>
      </trkpt>
      <trkpt lat="42.2449970" lon="-8.6845630">
        <ele>156.8</ele>
        <time>2021-05-20T12:58:41Z</time>
      </trkpt>
      <trkpt lat="42.2449820" lon="-8.6845370">
        <ele>156.8</ele>
        <time>2021-05-20T12:58:42Z</time>
      </trkpt>
      <trkpt lat="42.2449770" lon="-8.6845290">
        <ele>156.8</ele>
        <time>2021-05-20T12:58:43Z</time>
      </trkpt>
      <trkpt lat="42.2449720" lon="-8.6845210">
        <ele>156.8</ele>
        <time>2021-05-20T12:58:44Z</time>
      </trkpt>
      <trkpt lat="42.2449690" lon="-8.6845060">
        <ele>156.8</ele>
        <time>2021-05-20T12:58:45Z</time>
      </trkpt>
      <trkpt lat="42.2449630" lon="-8.6845090">
        <ele>156.8</ele>
        <time>2021-05-20T12:58:46Z</time>
      </trkpt>
      <trkpt lat="42.2449480" lon="-8.6845200">
        <ele>156.8</ele>
        <time>2021-05-20T12:58:47Z</time>
      </trkpt>
      <trkpt lat="42.2449370" lon="-8.6845070">
        <ele>156.8</ele>
        <time>2021-05-20T12:58:49Z</time>
      </trkpt>
      <trkpt lat="42.2449400" lon="-8.6845030">
        <ele>156.8</ele>
        <time>2021-05-20T12:58:50Z</time>
      </trkpt>
      <trkpt lat="42.2449400" lon="-8.6845120">
        <ele>156.8</ele>
        <time>2021-05-20T12:58:51Z</time>
      </trkpt>
      <trkpt lat="42.2449390" lon="-8.6845100">
        <ele>156.8</ele>
        <time>2021-05-20T12:58:52Z</time>
      </trkpt>
      <trkpt lat="42.2449370" lon="-8.6845140">
        <ele>156.8</ele>
        <time>2021-05-20T12:58:53Z</time>
      </trkpt>
      <trkpt lat="42.2449390" lon="-8.6845220">
        <ele>156.8</ele>
        <time>2021-05-20T12:58:54Z</time>
      </trkpt>
      <trkpt lat="42.2449450" lon="-8.6845130">
        <ele>156.8</ele>
        <time>2021-05-20T12:58:55Z</time>
      </trkpt>
      <trkpt lat="42.2449520" lon="-8.6845010">
        <ele>156.8</ele>
        <time>2021-05-20T12:58:56Z</time>
      </trkpt>
      <trkpt lat="42.2449620" lon="-8.6844810">
        <ele>156.7</ele>
        <time>2021-05-20T12:58:57Z</time>
      </trkpt>
      <trkpt lat="42.2449780" lon="-8.6844710">
        <ele>156.7</ele>
        <time>2021-05-20T12:58:58Z</time>
      </trkpt>
      <trkpt lat="42.2449840" lon="-8.6844620">
        <ele>156.7</ele>
        <time>2021-05-20T12:58:59Z</time>
      </trkpt>
      <trkpt lat="42.2449890" lon="-8.6844520">
        <ele>156.6</ele>
        <time>2021-05-20T12:59:00Z</time>
      </trkpt>
      <trkpt lat="42.2449940" lon="-8.6844430">
        <ele>156.6</ele>
        <time>2021-05-20T12:59:01Z</time>
      </trkpt>
      <trkpt lat="42.2450000" lon="-8.6844310">
        <ele>156.6</ele>
        <time>2021-05-20T12:59:02Z</time>
      </trkpt>
      <trkpt lat="42.2450080" lon="-8.6844200">
        <ele>156.6</ele>
        <time>2021-05-20T12:59:03Z</time>
      </trkpt>
      <trkpt lat="42.2450150" lon="-8.6844080">
        <ele>156.5</ele>
        <time>2021-05-20T12:59:04Z</time>
      </trkpt>
      <trkpt lat="42.2450220" lon="-8.6843960">
        <ele>156.5</ele>
        <time>2021-05-20T12:59:05Z</time>
      </trkpt>
      <trkpt lat="42.2450270" lon="-8.6843950">
        <ele>156.5</ele>
        <time>2021-05-20T12:59:06Z</time>
      </trkpt>
      <trkpt lat="42.2450290" lon="-8.6844000">
        <ele>156.5</ele>
        <time>2021-05-20T12:59:07Z</time>
      </trkpt>
      <trkpt lat="42.2450320" lon="-8.6843990">
        <ele>156.4</ele>
        <time>2021-05-20T12:59:08Z</time>
      </trkpt>
      <trkpt lat="42.2450320" lon="-8.6843990">
        <ele>156.4</ele>
        <time>2021-05-20T12:59:09Z</time>
      </trkpt>
      <trkpt lat="42.2450330" lon="-8.6843920">
        <ele>156.4</ele>
        <time>2021-05-20T12:59:10Z</time>
      </trkpt>
      <trkpt lat="42.2450310" lon="-8.6843960">
        <ele>156.4</ele>
        <time>2021-05-20T12:59:11Z</time>
      </trkpt>
      <trkpt lat="42.2450240" lon="-8.6843880">
        <ele>156.4</ele>
        <time>2021-05-20T12:59:12Z</time>
      </trkpt>
      <trkpt lat="42.2450230" lon="-8.6843870">
        <ele>156.4</ele>
        <time>2021-05-20T12:59:13Z</time>
      </trkpt>
      <trkpt lat="42.2450260" lon="-8.6843870">
        <ele>156.4</ele>
        <time>2021-05-20T12:59:14Z</time>
      </trkpt>
      <trkpt lat="42.2450310" lon="-8.6843820">
        <ele>156.3</ele>
        <time>2021-05-20T12:59:15Z</time>
      </trkpt>
      <trkpt lat="42.2450390" lon="-8.6843850">
        <ele>156.3</ele>
        <time>2021-05-20T12:59:16Z</time>
      </trkpt>
      <trkpt lat="42.2450300" lon="-8.6843960">
        <ele>156.3</ele>
        <time>2021-05-20T12:59:17Z</time>
      </trkpt>
      <trkpt lat="42.2450320" lon="-8.6844020">
        <ele>156.2</ele>
        <time>2021-05-20T12:59:18Z</time>
      </trkpt>
      <trkpt lat="42.2450540" lon="-8.6843950">
        <ele>156.1</ele>
        <time>2021-05-20T12:59:19Z</time>
      </trkpt>
      <trkpt lat="42.2450670" lon="-8.6843940">
        <ele>156.1</ele>
        <time>2021-05-20T12:59:20Z</time>
      </trkpt>
      <trkpt lat="42.2450560" lon="-8.6844050">
        <ele>156.0</ele>
        <time>2021-05-20T12:59:21Z</time>
      </trkpt>
      <trkpt lat="42.2450440" lon="-8.6844160">
        <ele>156.0</ele>
        <time>2021-05-20T12:59:22Z</time>
      </trkpt>
      <trkpt lat="42.2450330" lon="-8.6844270">
        <ele>155.9</ele>
        <time>2021-05-20T12:59:23Z</time>
      </trkpt>
      <trkpt lat="42.2450210" lon="-8.6844380">
        <ele>155.9</ele>
        <time>2021-05-20T12:59:24Z</time>
      </trkpt>
      <trkpt lat="42.2450160" lon="-8.6844490">
        <ele>155.8</ele>
        <time>2021-05-20T12:59:25Z</time>
      </trkpt>
      <trkpt lat="42.2450110" lon="-8.6844600">
        <ele>155.8</ele>
        <time>2021-05-20T12:59:26Z</time>
      </trkpt>
      <trkpt lat="42.2450060" lon="-8.6844700">
        <ele>155.8</ele>
        <time>2021-05-20T12:59:27Z</time>
      </trkpt>
      <trkpt lat="42.2450010" lon="-8.6844810">
        <ele>155.7</ele>
        <time>2021-05-20T12:59:28Z</time>
      </trkpt>
      <trkpt lat="42.2449960" lon="-8.6844850">
        <ele>155.7</ele>
        <time>2021-05-20T12:59:29Z</time>
      </trkpt>
      <trkpt lat="42.2449920" lon="-8.6844890">
        <ele>155.7</ele>
        <time>2021-05-20T12:59:30Z</time>
      </trkpt>
      <trkpt lat="42.2449870" lon="-8.6844930">
        <ele>155.7</ele>
        <time>2021-05-20T12:59:31Z</time>
      </trkpt>
      <trkpt lat="42.2449820" lon="-8.6844960">
        <ele>155.7</ele>
        <time>2021-05-20T12:59:32Z</time>
      </trkpt>
      <trkpt lat="42.2449770" lon="-8.6845000">
        <ele>155.6</ele>
        <time>2021-05-20T12:59:33Z</time>
      </trkpt>
      <trkpt lat="42.2449730" lon="-8.6845040">
        <ele>155.6</ele>
        <time>2021-05-20T12:59:34Z</time>
      </trkpt>
      <trkpt lat="42.2449680" lon="-8.6845080">
        <ele>155.6</ele>
        <time>2021-05-20T12:59:35Z</time>
      </trkpt>
      <trkpt lat="42.2449670" lon="-8.6845120">
        <ele>155.6</ele>
        <time>2021-05-20T12:59:36Z</time>
      </trkpt>
      <trkpt lat="42.2449660" lon="-8.6845160">
        <ele>155.6</ele>
        <time>2021-05-20T12:59:37Z</time>
      </trkpt>
      <trkpt lat="42.2449650" lon="-8.6845190">
        <ele>155.6</ele>
        <time>2021-05-20T12:59:38Z</time>
      </trkpt>
      <trkpt lat="42.2449640" lon="-8.6845230">
        <ele>155.6</ele>
        <time>2021-05-20T12:59:39Z</time>
      </trkpt>
      <trkpt lat="42.2449630" lon="-8.6845270">
        <ele>155.6</ele>
        <time>2021-05-20T12:59:40Z</time>
      </trkpt>
      <trkpt lat="42.2449620" lon="-8.6845310">
        <ele>155.6</ele>
        <time>2021-05-20T12:59:41Z</time>
      </trkpt>
      <trkpt lat="42.2449610" lon="-8.6845350">
        <ele>155.5</ele>
        <time>2021-05-20T12:59:42Z</time>
      </trkpt>
      <trkpt lat="42.2449590" lon="-8.6845380">
        <ele>155.5</ele>
        <time>2021-05-20T12:59:43Z</time>
      </trkpt>
      <trkpt lat="42.2449580" lon="-8.6845420">
        <ele>155.5</ele>
        <time>2021-05-20T12:59:44Z</time>
      </trkpt>
      <trkpt lat="42.2449570" lon="-8.6845460">
        <ele>155.5</ele>
        <time>2021-05-20T12:59:45Z</time>
      </trkpt>
      <trkpt lat="42.2449560" lon="-8.6845500">
        <ele>155.5</ele>
        <time>2021-05-20T12:59:46Z</time>
      </trkpt>
      <trkpt lat="42.2449550" lon="-8.6845530">
        <ele>155.5</ele>
        <time>2021-05-20T12:59:47Z</time>
      </trkpt>
      <trkpt lat="42.2449540" lon="-8.6845570">
        <ele>155.5</ele>
        <time>2021-05-20T12:59:48Z</time>
      </trkpt>
      <trkpt lat="42.2449530" lon="-8.6845610">
        <ele>155.5</ele>
        <time>2021-05-20T12:59:49Z</time>
      </trkpt>
      <trkpt lat="42.2449510" lon="-8.6845780">
        <ele>155.5</ele>
        <time>2021-05-20T12:59:50Z</time>
      </trkpt>
      <trkpt lat="42.2449510" lon="-8.6845810">
        <ele>155.4</ele>
        <time>2021-05-20T12:59:51Z</time>
      </trkpt>
      <trkpt lat="42.2449590" lon="-8.6845800">
        <ele>155.4</ele>
        <time>2021-05-20T12:59:52Z</time>
      </trkpt>
      <trkpt lat="42.2449680" lon="-8.6845860">
        <ele>155.4</ele>
        <time>2021-05-20T12:59:53Z</time>
      </trkpt>
      <trkpt lat="42.2449670" lon="-8.6845860">
        <ele>155.4</ele>
        <time>2021-05-20T12:59:54Z</time>
      </trkpt>
      <trkpt lat="42.2449780" lon="-8.6845870">
        <ele>155.4</ele>
        <time>2021-05-20T12:59:55Z</time>
      </trkpt>
      <trkpt lat="42.2449770" lon="-8.6845920">
        <ele>155.4</ele>
        <time>2021-05-20T12:59:56Z</time>
      </trkpt>
      <trkpt lat="42.2449740" lon="-8.6845890">
        <ele>155.4</ele>
        <time>2021-05-20T12:59:57Z</time>
      </trkpt>
      <trkpt lat="42.2449700" lon="-8.6846000">
        <ele>155.3</ele>
        <time>2021-05-20T12:59:58Z</time>
      </trkpt>
      <trkpt lat="42.2449760" lon="-8.6846010">
        <ele>155.3</ele>
        <time>2021-05-20T12:59:59Z</time>
      </trkpt>
      <trkpt lat="42.2449810" lon="-8.6846000">
        <ele>155.3</ele>
        <time>2021-05-20T13:00:00Z</time>
      </trkpt>
      <trkpt lat="42.2449810" lon="-8.6846000">
        <ele>155.3</ele>
        <time>2021-05-20T13:00:01Z</time>
      </trkpt>
      <trkpt lat="42.2449810" lon="-8.6846000">
        <ele>155.3</ele>
        <time>2021-05-20T13:00:02Z</time>
      </trkpt>
      <trkpt lat="42.2449810" lon="-8.6846000">
        <ele>155.3</ele>
        <time>2021-05-20T13:00:03Z</time>
      </trkpt>
      <trkpt lat="42.2449810" lon="-8.6846000">
        <ele>155.3</ele>
        <time>2021-05-20T13:00:04Z</time>
      </trkpt>
      <trkpt lat="42.2449930" lon="-8.6845930">
        <ele>155.3</ele>
        <time>2021-05-20T13:00:05Z</time>
      </trkpt>
      <trkpt lat="42.2449960" lon="-8.6845920">
        <ele>155.3</ele>
        <time>2021-05-20T13:00:06Z</time>
      </trkpt>
      <trkpt lat="42.2450120" lon="-8.6845850">
        <ele>155.3</ele>
        <time>2021-05-20T13:00:07Z</time>
      </trkpt>
      <trkpt lat="42.2450040" lon="-8.6845850">
        <ele>155.2</ele>
        <time>2021-05-20T13:00:08Z</time>
      </trkpt>
      <trkpt lat="42.2450060" lon="-8.6845990">
        <ele>155.2</ele>
        <time>2021-05-20T13:00:09Z</time>
      </trkpt>
      <trkpt lat="42.2450080" lon="-8.6845970">
        <ele>155.2</ele>
        <time>2021-05-20T13:00:10Z</time>
      </trkpt>
      <trkpt lat="42.2450080" lon="-8.6845930">
        <ele>155.2</ele>
        <time>2021-05-20T13:00:11Z</time>
      </trkpt>
      <trkpt lat="42.2450150" lon="-8.6845840">
        <ele>155.2</ele>
        <time>2021-05-20T13:00:12Z</time>
      </trkpt>
      <trkpt lat="42.2450270" lon="-8.6845720">
        <ele>155.2</ele>
        <time>2021-05-20T13:00:13Z</time>
      </trkpt>
      <trkpt lat="42.2450360" lon="-8.6845790">
        <ele>155.2</ele>
        <time>2021-05-20T13:00:14Z</time>
      </trkpt>
      <trkpt lat="42.2450400" lon="-8.6845860">
        <ele>155.1</ele>
        <time>2021-05-20T13:00:15Z</time>
      </trkpt>
      <trkpt lat="42.2450390" lon="-8.6845870">
        <ele>155.1</ele>
        <time>2021-05-20T13:00:16Z</time>
      </trkpt>
      <trkpt lat="42.2450480" lon="-8.6845830">
        <ele>155.1</ele>
        <time>2021-05-20T13:00:17Z</time>
      </trkpt>
      <trkpt lat="42.2450540" lon="-8.6845760">
        <ele>155.1</ele>
        <time>2021-05-20T13:00:18Z</time>
      </trkpt>
      <trkpt lat="42.2450630" lon="-8.6845720">
        <ele>155.1</ele>
        <time>2021-05-20T13:00:19Z</time>
      </trkpt>
      <trkpt lat="42.2450690" lon="-8.6845700">
        <ele>155.1</ele>
        <time>2021-05-20T13:00:20Z</time>
      </trkpt>
      <trkpt lat="42.2450800" lon="-8.6845640">
        <ele>155.1</ele>
        <time>2021-05-20T13:00:21Z</time>
      </trkpt>
      <trkpt lat="42.2450920" lon="-8.6845580">
        <ele>155.1</ele>
        <time>2021-05-20T13:00:22Z</time>
      </trkpt>
      <trkpt lat="42.2450980" lon="-8.6845440">
        <ele>155.1</ele>
        <time>2021-05-20T13:00:23Z</time>
      </trkpt>
      <trkpt lat="42.2451180" lon="-8.6845420">
        <ele>155.0</ele>
        <time>2021-05-20T13:00:24Z</time>
      </trkpt>
      <trkpt lat="42.2451280" lon="-8.6845410">
        <ele>155.0</ele>
        <time>2021-05-20T13:00:25Z</time>
      </trkpt>
      <trkpt lat="42.2451380" lon="-8.6845410">
        <ele>155.0</ele>
        <time>2021-05-20T13:00:26Z</time>
      </trkpt>
      <trkpt lat="42.2451520" lon="-8.6845350">
        <ele>155.0</ele>
        <time>2021-05-20T13:00:27Z</time>
      </trkpt>
      <trkpt lat="42.2451630" lon="-8.6845260">
        <ele>155.0</ele>
        <time>2021-05-20T13:00:28Z</time>
      </trkpt>
      <trkpt lat="42.2451850" lon="-8.6845130">
        <ele>155.0</ele>
        <time>2021-05-20T13:00:29Z</time>
      </trkpt>
      <trkpt lat="42.2451920" lon="-8.6845060">
        <ele>155.0</ele>
        <time>2021-05-20T13:00:30Z</time>
      </trkpt>
      <trkpt lat="42.2451990" lon="-8.6844980">
        <ele>155.0</ele>
        <time>2021-05-20T13:00:31Z</time>
      </trkpt>
      <trkpt lat="42.2452070" lon="-8.6844930">
        <ele>155.0</ele>
        <time>2021-05-20T13:00:32Z</time>
      </trkpt>
      <trkpt lat="42.2452250" lon="-8.6844840">
        <ele>154.9</ele>
        <time>2021-05-20T13:00:33Z</time>
      </trkpt>
      <trkpt lat="42.2452400" lon="-8.6844760">
        <ele>154.9</ele>
        <time>2021-05-20T13:00:34Z</time>
      </trkpt>
      <trkpt lat="42.2452490" lon="-8.6844750">
        <ele>154.9</ele>
        <time>2021-05-20T13:00:35Z</time>
      </trkpt>
      <trkpt lat="42.2452550" lon="-8.6844800">
        <ele>154.9</ele>
        <time>2021-05-20T13:00:36Z</time>
      </trkpt>
      <trkpt lat="42.2452700" lon="-8.6844700">
        <ele>154.9</ele>
        <time>2021-05-20T13:00:37Z</time>
      </trkpt>
      <trkpt lat="42.2452770" lon="-8.6844710">
        <ele>154.9</ele>
        <time>2021-05-20T13:00:38Z</time>
      </trkpt>
      <trkpt lat="42.2452880" lon="-8.6844660">
        <ele>154.9</ele>
        <time>2021-05-20T13:00:39Z</time>
      </trkpt>
      <trkpt lat="42.2452930" lon="-8.6844590">
        <ele>154.9</ele>
        <time>2021-05-20T13:00:40Z</time>
      </trkpt>
      <trkpt lat="42.2453030" lon="-8.6844580">
        <ele>154.9</ele>
        <time>2021-05-20T13:00:41Z</time>
      </trkpt>
      <trkpt lat="42.2453140" lon="-8.6844440">
        <ele>154.9</ele>
        <time>2021-05-20T13:00:42Z</time>
      </trkpt>
      <trkpt lat="42.2453370" lon="-8.6844290">
        <ele>154.9</ele>
        <time>2021-05-20T13:00:43Z</time>
      </trkpt>
      <trkpt lat="42.2453480" lon="-8.6844250">
        <ele>154.9</ele>
        <time>2021-05-20T13:00:44Z</time>
      </trkpt>
      <trkpt lat="42.2453520" lon="-8.6844230">
        <ele>154.9</ele>
        <time>2021-05-20T13:00:45Z</time>
      </trkpt>
      <trkpt lat="42.2453660" lon="-8.6844250">
        <ele>154.9</ele>
        <time>2021-05-20T13:00:46Z</time>
      </trkpt>
      <trkpt lat="42.2453740" lon="-8.6844210">
        <ele>154.9</ele>
        <time>2021-05-20T13:00:47Z</time>
      </trkpt>
      <trkpt lat="42.2453900" lon="-8.6843950">
        <ele>154.9</ele>
        <time>2021-05-20T13:00:49Z</time>
      </trkpt>
      <trkpt lat="42.2454000" lon="-8.6843900">
        <ele>154.9</ele>
        <time>2021-05-20T13:00:51Z</time>
      </trkpt>
      <trkpt lat="42.2454040" lon="-8.6843820">
        <ele>154.9</ele>
        <time>2021-05-20T13:00:52Z</time>
      </trkpt>
      <trkpt lat="42.2454210" lon="-8.6843650">
        <ele>154.9</ele>
        <time>2021-05-20T13:00:53Z</time>
      </trkpt>
      <trkpt lat="42.2454330" lon="-8.6843590">
        <ele>155.0</ele>
        <time>2021-05-20T13:00:54Z</time>
      </trkpt>
      <trkpt lat="42.2454430" lon="-8.6843480">
        <ele>155.0</ele>
        <time>2021-05-20T13:00:55Z</time>
      </trkpt>
      <trkpt lat="42.2454620" lon="-8.6843290">
        <ele>155.0</ele>
        <time>2021-05-20T13:00:56Z</time>
      </trkpt>
      <trkpt lat="42.2454710" lon="-8.6843300">
        <ele>155.0</ele>
        <time>2021-05-20T13:00:57Z</time>
      </trkpt>
      <trkpt lat="42.2454750" lon="-8.6843260">
        <ele>155.0</ele>
        <time>2021-05-20T13:00:58Z</time>
      </trkpt>
      <trkpt lat="42.2454870" lon="-8.6843110">
        <ele>155.0</ele>
        <time>2021-05-20T13:00:59Z</time>
      </trkpt>
      <trkpt lat="42.2455070" lon="-8.6842970">
        <ele>155.0</ele>
        <time>2021-05-20T13:01:00Z</time>
      </trkpt>
      <trkpt lat="42.2455170" lon="-8.6842940">
        <ele>155.0</ele>
        <time>2021-05-20T13:01:01Z</time>
      </trkpt>
      <trkpt lat="42.2455260" lon="-8.6842900">
        <ele>155.0</ele>
        <time>2021-05-20T13:01:02Z</time>
      </trkpt>
      <trkpt lat="42.2455490" lon="-8.6842880">
        <ele>155.0</ele>
        <time>2021-05-20T13:01:03Z</time>
      </trkpt>
      <trkpt lat="42.2455580" lon="-8.6842830">
        <ele>155.1</ele>
        <time>2021-05-20T13:01:04Z</time>
      </trkpt>
      <trkpt lat="42.2455670" lon="-8.6842790">
        <ele>155.1</ele>
        <time>2021-05-20T13:01:05Z</time>
      </trkpt>
      <trkpt lat="42.2455770" lon="-8.6842750">
        <ele>155.1</ele>
        <time>2021-05-20T13:01:06Z</time>
      </trkpt>
      <trkpt lat="42.2455850" lon="-8.6842690">
        <ele>155.1</ele>
        <time>2021-05-20T13:01:07Z</time>
      </trkpt>
      <trkpt lat="42.2455960" lon="-8.6842600">
        <ele>155.1</ele>
        <time>2021-05-20T13:01:08Z</time>
      </trkpt>
      <trkpt lat="42.2456230" lon="-8.6842530">
        <ele>155.1</ele>
        <time>2021-05-20T13:01:09Z</time>
      </trkpt>
      <trkpt lat="42.2456300" lon="-8.6842470">
        <ele>155.1</ele>
        <time>2021-05-20T13:01:10Z</time>
      </trkpt>
      <trkpt lat="42.2456380" lon="-8.6842420">
        <ele>155.2</ele>
        <time>2021-05-20T13:01:11Z</time>
      </trkpt>
      <trkpt lat="42.2456440" lon="-8.6842390">
        <ele>155.2</ele>
        <time>2021-05-20T13:01:12Z</time>
      </trkpt>
      <trkpt lat="42.2456500" lon="-8.6842310">
        <ele>155.2</ele>
        <time>2021-05-20T13:01:13Z</time>
      </trkpt>
      <trkpt lat="42.2456630" lon="-8.6842230">
        <ele>155.2</ele>
        <time>2021-05-20T13:01:14Z</time>
      </trkpt>
      <trkpt lat="42.2456730" lon="-8.6842170">
        <ele>155.2</ele>
        <time>2021-05-20T13:01:15Z</time>
      </trkpt>
      <trkpt lat="42.2456790" lon="-8.6842120">
        <ele>155.2</ele>
        <time>2021-05-20T13:01:16Z</time>
      </trkpt>
      <trkpt lat="42.2456850" lon="-8.6842080">
        <ele>155.2</ele>
        <time>2021-05-20T13:01:17Z</time>
      </trkpt>
      <trkpt lat="42.2456910" lon="-8.6842030">
        <ele>155.2</ele>
        <time>2021-05-20T13:01:18Z</time>
      </trkpt>
      <trkpt lat="42.2456970" lon="-8.6841990">
        <ele>155.2</ele>
        <time>2021-05-20T13:01:19Z</time>
      </trkpt>
      <trkpt lat="42.2457200" lon="-8.6841780">
        <ele>155.3</ele>
        <time>2021-05-20T13:01:20Z</time>
      </trkpt>
      <trkpt lat="42.2457280" lon="-8.6841680">
        <ele>155.3</ele>
        <time>2021-05-20T13:01:21Z</time>
      </trkpt>
      <trkpt lat="42.2457490" lon="-8.6841630">
        <ele>155.3</ele>
        <time>2021-05-20T13:01:22Z</time>
      </trkpt>
      <trkpt lat="42.2457570" lon="-8.6841580">
        <ele>155.3</ele>
        <time>2021-05-20T13:01:23Z</time>
      </trkpt>
      <trkpt lat="42.2457650" lon="-8.6841530">
        <ele>155.3</ele>
        <time>2021-05-20T13:01:24Z</time>
      </trkpt>
      <trkpt lat="42.2457700" lon="-8.6841470">
        <ele>155.3</ele>
        <time>2021-05-20T13:01:25Z</time>
      </trkpt>
      <trkpt lat="42.2457900" lon="-8.6841290">
        <ele>155.3</ele>
        <time>2021-05-20T13:01:26Z</time>
      </trkpt>
      <trkpt lat="42.2458040" lon="-8.6841130">
        <ele>155.4</ele>
        <time>2021-05-20T13:01:27Z</time>
      </trkpt>
      <trkpt lat="42.2458130" lon="-8.6841060">
        <ele>155.4</ele>
        <time>2021-05-20T13:01:28Z</time>
      </trkpt>
      <trkpt lat="42.2458220" lon="-8.6841000">
        <ele>155.4</ele>
        <time>2021-05-20T13:01:29Z</time>
      </trkpt>
      <trkpt lat="42.2458460" lon="-8.6841000">
        <ele>155.4</ele>
        <time>2021-05-20T13:01:30Z</time>
      </trkpt>
      <trkpt lat="42.2458590" lon="-8.6841010">
        <ele>155.4</ele>
        <time>2021-05-20T13:01:31Z</time>
      </trkpt>
      <trkpt lat="42.2458800" lon="-8.6840950">
        <ele>155.4</ele>
        <time>2021-05-20T13:01:32Z</time>
      </trkpt>
      <trkpt lat="42.2459000" lon="-8.6840930">
        <ele>155.4</ele>
        <time>2021-05-20T13:01:33Z</time>
      </trkpt>
      <trkpt lat="42.2459080" lon="-8.6840920">
        <ele>155.4</ele>
        <time>2021-05-20T13:01:34Z</time>
      </trkpt>
      <trkpt lat="42.2459140" lon="-8.6840950">
        <ele>155.4</ele>
        <time>2021-05-20T13:01:35Z</time>
      </trkpt>
      <trkpt lat="42.2459200" lon="-8.6841010">
        <ele>155.4</ele>
        <time>2021-05-20T13:01:36Z</time>
      </trkpt>
      <trkpt lat="42.2459350" lon="-8.6841000">
        <ele>155.4</ele>
        <time>2021-05-20T13:01:37Z</time>
      </trkpt>
      <trkpt lat="42.2459480" lon="-8.6840940">
        <ele>155.4</ele>
        <time>2021-05-20T13:01:38Z</time>
      </trkpt>
      <trkpt lat="42.2459560" lon="-8.6840950">
        <ele>155.4</ele>
        <time>2021-05-20T13:01:39Z</time>
      </trkpt>
      <trkpt lat="42.2459600" lon="-8.6840990">
        <ele>155.4</ele>
        <time>2021-05-20T13:01:40Z</time>
      </trkpt>
      <trkpt lat="42.2459630" lon="-8.6841020">
        <ele>155.4</ele>
        <time>2021-05-20T13:01:41Z</time>
      </trkpt>
      <trkpt lat="42.2459810" lon="-8.6841050">
        <ele>155.4</ele>
        <time>2021-05-20T13:01:42Z</time>
      </trkpt>
      <trkpt lat="42.2459910" lon="-8.6841060">
        <ele>155.4</ele>
        <time>2021-05-20T13:01:43Z</time>
      </trkpt>
      <trkpt lat="42.2460000" lon="-8.6841080">
        <ele>155.4</ele>
        <time>2021-05-20T13:01:44Z</time>
      </trkpt>
      <trkpt lat="42.2460090" lon="-8.6841150">
        <ele>155.4</ele>
        <time>2021-05-20T13:01:45Z</time>
      </trkpt>
      <trkpt lat="42.2460130" lon="-8.6841190">
        <ele>155.4</ele>
        <time>2021-05-20T13:01:46Z</time>
      </trkpt>
      <trkpt lat="42.2460240" lon="-8.6841190">
        <ele>155.4</ele>
        <time>2021-05-20T13:01:47Z</time>
      </trkpt>
      <trkpt lat="42.2460320" lon="-8.6841130">
        <ele>155.4</ele>
        <time>2021-05-20T13:01:48Z</time>
      </trkpt>
      <trkpt lat="42.2460440" lon="-8.6841130">
        <ele>155.4</ele>
        <time>2021-05-20T13:01:49Z</time>
      </trkpt>
      <trkpt lat="42.2460530" lon="-8.6841030">
        <ele>155.4</ele>
        <time>2021-05-20T13:01:50Z</time>
      </trkpt>
      <trkpt lat="42.2460630" lon="-8.6841020">
        <ele>155.4</ele>
        <time>2021-05-20T13:01:51Z</time>
      </trkpt>
      <trkpt lat="42.2460720" lon="-8.6840930">
        <ele>155.4</ele>
        <time>2021-05-20T13:01:52Z</time>
      </trkpt>
      <trkpt lat="42.2460930" lon="-8.6840870">
        <ele>155.4</ele>
        <time>2021-05-20T13:01:53Z</time>
      </trkpt>
      <trkpt lat="42.2461110" lon="-8.6840790">
        <ele>155.4</ele>
        <time>2021-05-20T13:01:54Z</time>
      </trkpt>
      <trkpt lat="42.2461210" lon="-8.6840730">
        <ele>155.4</ele>
        <time>2021-05-20T13:01:55Z</time>
      </trkpt>
      <trkpt lat="42.2461300" lon="-8.6840670">
        <ele>155.4</ele>
        <time>2021-05-20T13:01:56Z</time>
      </trkpt>
      <trkpt lat="42.2461470" lon="-8.6840650">
        <ele>155.4</ele>
        <time>2021-05-20T13:01:57Z</time>
      </trkpt>
      <trkpt lat="42.2461580" lon="-8.6840560">
        <ele>155.4</ele>
        <time>2021-05-20T13:01:58Z</time>
      </trkpt>
      <trkpt lat="42.2461730" lon="-8.6840500">
        <ele>155.4</ele>
        <time>2021-05-20T13:01:59Z</time>
      </trkpt>
      <trkpt lat="42.2461850" lon="-8.6840380">
        <ele>155.4</ele>
        <time>2021-05-20T13:02:00Z</time>
      </trkpt>
      <trkpt lat="42.2461980" lon="-8.6840370">
        <ele>155.4</ele>
        <time>2021-05-20T13:02:01Z</time>
      </trkpt>
      <trkpt lat="42.2462090" lon="-8.6840350">
        <ele>155.4</ele>
        <time>2021-05-20T13:02:02Z</time>
      </trkpt>
      <trkpt lat="42.2462150" lon="-8.6840360">
        <ele>155.4</ele>
        <time>2021-05-20T13:02:03Z</time>
      </trkpt>
      <trkpt lat="42.2462350" lon="-8.6840350">
        <ele>155.4</ele>
        <time>2021-05-20T13:02:04Z</time>
      </trkpt>
      <trkpt lat="42.2462430" lon="-8.6840340">
        <ele>155.4</ele>
        <time>2021-05-20T13:02:05Z</time>
      </trkpt>
      <trkpt lat="42.2462520" lon="-8.6840330">
        <ele>155.4</ele>
        <time>2021-05-20T13:02:06Z</time>
      </trkpt>
      <trkpt lat="42.2462550" lon="-8.6840380">
        <ele>155.5</ele>
        <time>2021-05-20T13:02:07Z</time>
      </trkpt>
      <trkpt lat="42.2462660" lon="-8.6840220">
        <ele>155.5</ele>
        <time>2021-05-20T13:02:08Z</time>
      </trkpt>
      <trkpt lat="42.2462810" lon="-8.6840150">
        <ele>155.5</ele>
        <time>2021-05-20T13:02:09Z</time>
      </trkpt>
      <trkpt lat="42.2463070" lon="-8.6840080">
        <ele>155.5</ele>
        <time>2021-05-20T13:02:10Z</time>
      </trkpt>
      <trkpt lat="42.2463160" lon="-8.6840020">
        <ele>155.5</ele>
        <time>2021-05-20T13:02:11Z</time>
      </trkpt>
      <trkpt lat="42.2463240" lon="-8.6839950">
        <ele>155.5</ele>
        <time>2021-05-20T13:02:12Z</time>
      </trkpt>
      <trkpt lat="42.2463340" lon="-8.6839810">
        <ele>155.6</ele>
        <time>2021-05-20T13:02:13Z</time>
      </trkpt>
      <trkpt lat="42.2463410" lon="-8.6839750">
        <ele>155.6</ele>
        <time>2021-05-20T13:02:14Z</time>
      </trkpt>
      <trkpt lat="42.2463580" lon="-8.6839760">
        <ele>155.6</ele>
        <time>2021-05-20T13:02:15Z</time>
      </trkpt>
      <trkpt lat="42.2463660" lon="-8.6839700">
        <ele>155.6</ele>
        <time>2021-05-20T13:02:16Z</time>
      </trkpt>
      <trkpt lat="42.2463740" lon="-8.6839690">
        <ele>155.6</ele>
        <time>2021-05-20T13:02:17Z</time>
      </trkpt>
      <trkpt lat="42.2463880" lon="-8.6839710">
        <ele>155.6</ele>
        <time>2021-05-20T13:02:18Z</time>
      </trkpt>
      <trkpt lat="42.2463970" lon="-8.6839690">
        <ele>155.7</ele>
        <time>2021-05-20T13:02:19Z</time>
      </trkpt>
      <trkpt lat="42.2464120" lon="-8.6839550">
        <ele>155.7</ele>
        <time>2021-05-20T13:02:20Z</time>
      </trkpt>
      <trkpt lat="42.2464180" lon="-8.6839570">
        <ele>155.7</ele>
        <time>2021-05-20T13:02:21Z</time>
      </trkpt>
      <trkpt lat="42.2464250" lon="-8.6839580">
        <ele>155.7</ele>
        <time>2021-05-20T13:02:22Z</time>
      </trkpt>
      <trkpt lat="42.2464480" lon="-8.6839470">
        <ele>155.8</ele>
        <time>2021-05-20T13:02:23Z</time>
      </trkpt>
      <trkpt lat="42.2464630" lon="-8.6839490">
        <ele>155.8</ele>
        <time>2021-05-20T13:02:24Z</time>
      </trkpt>
      <trkpt lat="42.2464730" lon="-8.6839490">
        <ele>155.8</ele>
        <time>2021-05-20T13:02:25Z</time>
      </trkpt>
      <trkpt lat="42.2464820" lon="-8.6839500">
        <ele>155.8</ele>
        <time>2021-05-20T13:02:26Z</time>
      </trkpt>
      <trkpt lat="42.2464920" lon="-8.6839500">
        <ele>155.8</ele>
        <time>2021-05-20T13:02:27Z</time>
      </trkpt>
      <trkpt lat="42.2464950" lon="-8.6839530">
        <ele>155.8</ele>
        <time>2021-05-20T13:02:28Z</time>
      </trkpt>
      <trkpt lat="42.2465040" lon="-8.6839490">
        <ele>155.8</ele>
        <time>2021-05-20T13:02:29Z</time>
      </trkpt>
      <trkpt lat="42.2465180" lon="-8.6839400">
        <ele>155.9</ele>
        <time>2021-05-20T13:02:30Z</time>
      </trkpt>
      <trkpt lat="42.2465280" lon="-8.6839290">
        <ele>155.9</ele>
        <time>2021-05-20T13:02:31Z</time>
      </trkpt>
      <trkpt lat="42.2465400" lon="-8.6839220">
        <ele>155.9</ele>
        <time>2021-05-20T13:02:32Z</time>
      </trkpt>
      <trkpt lat="42.2465480" lon="-8.6839140">
        <ele>155.9</ele>
        <time>2021-05-20T13:02:33Z</time>
      </trkpt>
      <trkpt lat="42.2465670" lon="-8.6839010">
        <ele>156.0</ele>
        <time>2021-05-20T13:02:34Z</time>
      </trkpt>
      <trkpt lat="42.2465790" lon="-8.6838990">
        <ele>156.0</ele>
        <time>2021-05-20T13:02:35Z</time>
      </trkpt>
      <trkpt lat="42.2465910" lon="-8.6838920">
        <ele>156.0</ele>
        <time>2021-05-20T13:02:36Z</time>
      </trkpt>
      <trkpt lat="42.2466070" lon="-8.6838850">
        <ele>156.0</ele>
        <time>2021-05-20T13:02:37Z</time>
      </trkpt>
      <trkpt lat="42.2466110" lon="-8.6838850">
        <ele>156.0</ele>
        <time>2021-05-20T13:02:38Z</time>
      </trkpt>
      <trkpt lat="42.2466290" lon="-8.6838710">
        <ele>156.0</ele>
        <time>2021-05-20T13:02:39Z</time>
      </trkpt>
      <trkpt lat="42.2466400" lon="-8.6838640">
        <ele>156.0</ele>
        <time>2021-05-20T13:02:40Z</time>
      </trkpt>
      <trkpt lat="42.2466480" lon="-8.6838560">
        <ele>156.1</ele>
        <time>2021-05-20T13:02:41Z</time>
      </trkpt>
      <trkpt lat="42.2466560" lon="-8.6838410">
        <ele>156.1</ele>
        <time>2021-05-20T13:02:42Z</time>
      </trkpt>
      <trkpt lat="42.2466640" lon="-8.6838340">
        <ele>156.1</ele>
        <time>2021-05-20T13:02:43Z</time>
      </trkpt>
      <trkpt lat="42.2466720" lon="-8.6838260">
        <ele>156.1</ele>
        <time>2021-05-20T13:02:45Z</time>
      </trkpt>
      <trkpt lat="42.2466860" lon="-8.6838190">
        <ele>156.1</ele>
        <time>2021-05-20T13:02:46Z</time>
      </trkpt>
      <trkpt lat="42.2466940" lon="-8.6838110">
        <ele>156.1</ele>
        <time>2021-05-20T13:02:47Z</time>
      </trkpt>
      <trkpt lat="42.2467040" lon="-8.6837960">
        <ele>156.1</ele>
        <time>2021-05-20T13:02:48Z</time>
      </trkpt>
      <trkpt lat="42.2467160" lon="-8.6837890">
        <ele>156.1</ele>
        <time>2021-05-20T13:02:49Z</time>
      </trkpt>
      <trkpt lat="42.2467200" lon="-8.6837790">
        <ele>156.1</ele>
        <time>2021-05-20T13:02:50Z</time>
      </trkpt>
      <trkpt lat="42.2467360" lon="-8.6837460">
        <ele>156.1</ele>
        <time>2021-05-20T13:02:51Z</time>
      </trkpt>
      <trkpt lat="42.2467570" lon="-8.6837130">
        <ele>156.1</ele>
        <time>2021-05-20T13:02:52Z</time>
      </trkpt>
      <trkpt lat="42.2467620" lon="-8.6837060">
        <ele>156.1</ele>
        <time>2021-05-20T13:02:53Z</time>
      </trkpt>
      <trkpt lat="42.2467890" lon="-8.6836800">
        <ele>156.1</ele>
        <time>2021-05-20T13:02:54Z</time>
      </trkpt>
      <trkpt lat="42.2467970" lon="-8.6836680">
        <ele>156.1</ele>
        <time>2021-05-20T13:02:55Z</time>
      </trkpt>
      <trkpt lat="42.2468060" lon="-8.6836460">
        <ele>156.1</ele>
        <time>2021-05-20T13:02:56Z</time>
      </trkpt>
      <trkpt lat="42.2468060" lon="-8.6836430">
        <ele>156.1</ele>
        <time>2021-05-20T13:02:57Z</time>
      </trkpt>
      <trkpt lat="42.2468150" lon="-8.6836270">
        <ele>156.2</ele>
        <time>2021-05-20T13:02:58Z</time>
      </trkpt>
      <trkpt lat="42.2468200" lon="-8.6836090">
        <ele>156.2</ele>
        <time>2021-05-20T13:02:59Z</time>
      </trkpt>
      <trkpt lat="42.2468300" lon="-8.6835910">
        <ele>156.2</ele>
        <time>2021-05-20T13:03:00Z</time>
      </trkpt>
      <trkpt lat="42.2468510" lon="-8.6835690">
        <ele>156.2</ele>
        <time>2021-05-20T13:03:01Z</time>
      </trkpt>
      <trkpt lat="42.2468550" lon="-8.6835710">
        <ele>156.2</ele>
        <time>2021-05-20T13:03:02Z</time>
      </trkpt>
      <trkpt lat="42.2468650" lon="-8.6835660">
        <ele>156.2</ele>
        <time>2021-05-20T13:03:03Z</time>
      </trkpt>
      <trkpt lat="42.2468710" lon="-8.6835540">
        <ele>156.2</ele>
        <time>2021-05-20T13:03:04Z</time>
      </trkpt>
      <trkpt lat="42.2468760" lon="-8.6835400">
        <ele>156.2</ele>
        <time>2021-05-20T13:03:05Z</time>
      </trkpt>
      <trkpt lat="42.2468830" lon="-8.6835240">
        <ele>156.2</ele>
        <time>2021-05-20T13:03:06Z</time>
      </trkpt>
      <trkpt lat="42.2468930" lon="-8.6835150">
        <ele>156.2</ele>
        <time>2021-05-20T13:03:07Z</time>
      </trkpt>
      <trkpt lat="42.2468960" lon="-8.6835130">
        <ele>156.2</ele>
        <time>2021-05-20T13:03:08Z</time>
      </trkpt>
      <trkpt lat="42.2469100" lon="-8.6834840">
        <ele>156.2</ele>
        <time>2021-05-20T13:03:09Z</time>
      </trkpt>
      <trkpt lat="42.2469170" lon="-8.6834700">
        <ele>156.2</ele>
        <time>2021-05-20T13:03:10Z</time>
      </trkpt>
      <trkpt lat="42.2469310" lon="-8.6834520">
        <ele>156.2</ele>
        <time>2021-05-20T13:03:11Z</time>
      </trkpt>
      <trkpt lat="42.2469380" lon="-8.6834410">
        <ele>156.2</ele>
        <time>2021-05-20T13:03:12Z</time>
      </trkpt>
      <trkpt lat="42.2469450" lon="-8.6834300">
        <ele>156.2</ele>
        <time>2021-05-20T13:03:13Z</time>
      </trkpt>
      <trkpt lat="42.2469500" lon="-8.6834170">
        <ele>156.2</ele>
        <time>2021-05-20T13:03:14Z</time>
      </trkpt>
      <trkpt lat="42.2469620" lon="-8.6834060">
        <ele>156.2</ele>
        <time>2021-05-20T13:03:15Z</time>
      </trkpt>
      <trkpt lat="42.2469700" lon="-8.6834030">
        <ele>156.2</ele>
        <time>2021-05-20T13:03:16Z</time>
      </trkpt>
      <trkpt lat="42.2469670" lon="-8.6833990">
        <ele>156.2</ele>
        <time>2021-05-20T13:03:17Z</time>
      </trkpt>
      <trkpt lat="42.2469750" lon="-8.6833930">
        <ele>156.2</ele>
        <time>2021-05-20T13:03:18Z</time>
      </trkpt>
      <trkpt lat="42.2469790" lon="-8.6833850">
        <ele>156.2</ele>
        <time>2021-05-20T13:03:19Z</time>
      </trkpt>
      <trkpt lat="42.2469880" lon="-8.6833820">
        <ele>156.2</ele>
        <time>2021-05-20T13:03:20Z</time>
      </trkpt>
      <trkpt lat="42.2469950" lon="-8.6833720">
        <ele>156.2</ele>
        <time>2021-05-20T13:03:21Z</time>
      </trkpt>
      <trkpt lat="42.2470080" lon="-8.6833670">
        <ele>156.2</ele>
        <time>2021-05-20T13:03:22Z</time>
      </trkpt>
      <trkpt lat="42.2470060" lon="-8.6833530">
        <ele>156.2</ele>
        <time>2021-05-20T13:03:23Z</time>
      </trkpt>
      <trkpt lat="42.2470220" lon="-8.6833400">
        <ele>156.1</ele>
        <time>2021-05-20T13:03:24Z</time>
      </trkpt>
      <trkpt lat="42.2470280" lon="-8.6833300">
        <ele>156.1</ele>
        <time>2021-05-20T13:03:25Z</time>
      </trkpt>
      <trkpt lat="42.2470320" lon="-8.6833270">
        <ele>156.1</ele>
        <time>2021-05-20T13:03:26Z</time>
      </trkpt>
      <trkpt lat="42.2470380" lon="-8.6833240">
        <ele>156.1</ele>
        <time>2021-05-20T13:03:27Z</time>
      </trkpt>
      <trkpt lat="42.2470500" lon="-8.6833190">
        <ele>156.1</ele>
        <time>2021-05-20T13:03:28Z</time>
      </trkpt>
      <trkpt lat="42.2470660" lon="-8.6833150">
        <ele>156.1</ele>
        <time>2021-05-20T13:03:29Z</time>
      </trkpt>
      <trkpt lat="42.2470760" lon="-8.6833120">
        <ele>156.1</ele>
        <time>2021-05-20T13:03:30Z</time>
      </trkpt>
      <trkpt lat="42.2470860" lon="-8.6833080">
        <ele>156.1</ele>
        <time>2021-05-20T13:03:31Z</time>
      </trkpt>
      <trkpt lat="42.2471040" lon="-8.6833010">
        <ele>156.0</ele>
        <time>2021-05-20T13:03:32Z</time>
      </trkpt>
      <trkpt lat="42.2471120" lon="-8.6832980">
        <ele>156.0</ele>
        <time>2021-05-20T13:03:33Z</time>
      </trkpt>
      <trkpt lat="42.2471190" lon="-8.6832940">
        <ele>156.0</ele>
        <time>2021-05-20T13:03:34Z</time>
      </trkpt>
      <trkpt lat="42.2471260" lon="-8.6832910">
        <ele>156.0</ele>
        <time>2021-05-20T13:03:35Z</time>
      </trkpt>
      <trkpt lat="42.2471390" lon="-8.6832840">
        <ele>156.0</ele>
        <time>2021-05-20T13:03:36Z</time>
      </trkpt>
      <trkpt lat="42.2471540" lon="-8.6832770">
        <ele>156.0</ele>
        <time>2021-05-20T13:03:37Z</time>
      </trkpt>
      <trkpt lat="42.2471670" lon="-8.6832750">
        <ele>155.9</ele>
        <time>2021-05-20T13:03:38Z</time>
      </trkpt>
      <trkpt lat="42.2471760" lon="-8.6832760">
        <ele>155.9</ele>
        <time>2021-05-20T13:03:39Z</time>
      </trkpt>
      <trkpt lat="42.2471840" lon="-8.6832770">
        <ele>155.9</ele>
        <time>2021-05-20T13:03:40Z</time>
      </trkpt>
      <trkpt lat="42.2471920" lon="-8.6832780">
        <ele>155.9</ele>
        <time>2021-05-20T13:03:41Z</time>
      </trkpt>
      <trkpt lat="42.2472050" lon="-8.6832740">
        <ele>155.9</ele>
        <time>2021-05-20T13:03:42Z</time>
      </trkpt>
      <trkpt lat="42.2472110" lon="-8.6832790">
        <ele>155.9</ele>
        <time>2021-05-20T13:03:43Z</time>
      </trkpt>
      <trkpt lat="42.2472200" lon="-8.6832750">
        <ele>155.9</ele>
        <time>2021-05-20T13:03:44Z</time>
      </trkpt>
      <trkpt lat="42.2472360" lon="-8.6832650">
        <ele>155.9</ele>
        <time>2021-05-20T13:03:45Z</time>
      </trkpt>
      <trkpt lat="42.2472400" lon="-8.6832560">
        <ele>155.8</ele>
        <time>2021-05-20T13:03:46Z</time>
      </trkpt>
      <trkpt lat="42.2472500" lon="-8.6832510">
        <ele>155.8</ele>
        <time>2021-05-20T13:03:47Z</time>
      </trkpt>
      <trkpt lat="42.2472700" lon="-8.6832330">
        <ele>155.8</ele>
        <time>2021-05-20T13:03:48Z</time>
      </trkpt>
      <trkpt lat="42.2472720" lon="-8.6832380">
        <ele>155.8</ele>
        <time>2021-05-20T13:03:49Z</time>
      </trkpt>
      <trkpt lat="42.2472820" lon="-8.6832400">
        <ele>155.8</ele>
        <time>2021-05-20T13:03:50Z</time>
      </trkpt>
      <trkpt lat="42.2472890" lon="-8.6832240">
        <ele>155.8</ele>
        <time>2021-05-20T13:03:51Z</time>
      </trkpt>
      <trkpt lat="42.2473020" lon="-8.6832130">
        <ele>155.8</ele>
        <time>2021-05-20T13:03:52Z</time>
      </trkpt>
      <trkpt lat="42.2473100" lon="-8.6832140">
        <ele>155.8</ele>
        <time>2021-05-20T13:03:53Z</time>
      </trkpt>
      <trkpt lat="42.2473220" lon="-8.6832080">
        <ele>155.7</ele>
        <time>2021-05-20T13:03:54Z</time>
      </trkpt>
      <trkpt lat="42.2473370" lon="-8.6832030">
        <ele>155.7</ele>
        <time>2021-05-20T13:03:55Z</time>
      </trkpt>
      <trkpt lat="42.2473580" lon="-8.6831770">
        <ele>155.7</ele>
        <time>2021-05-20T13:03:56Z</time>
      </trkpt>
      <trkpt lat="42.2473670" lon="-8.6831650">
        <ele>155.7</ele>
        <time>2021-05-20T13:03:57Z</time>
      </trkpt>
      <trkpt lat="42.2473820" lon="-8.6831600">
        <ele>155.7</ele>
        <time>2021-05-20T13:03:58Z</time>
      </trkpt>
      <trkpt lat="42.2474150" lon="-8.6831370">
        <ele>155.7</ele>
        <time>2021-05-20T13:03:59Z</time>
      </trkpt>
      <trkpt lat="42.2474280" lon="-8.6831340">
        <ele>155.7</ele>
        <time>2021-05-20T13:04:00Z</time>
      </trkpt>
      <trkpt lat="42.2474430" lon="-8.6831350">
        <ele>155.7</ele>
        <time>2021-05-20T13:04:01Z</time>
      </trkpt>
      <trkpt lat="42.2474570" lon="-8.6831310">
        <ele>155.7</ele>
        <time>2021-05-20T13:04:02Z</time>
      </trkpt>
      <trkpt lat="42.2474700" lon="-8.6831280">
        <ele>155.7</ele>
        <time>2021-05-20T13:04:03Z</time>
      </trkpt>
      <trkpt lat="42.2474830" lon="-8.6831260">
        <ele>155.7</ele>
        <time>2021-05-20T13:04:04Z</time>
      </trkpt>
      <trkpt lat="42.2474910" lon="-8.6831220">
        <ele>155.7</ele>
        <time>2021-05-20T13:04:05Z</time>
      </trkpt>
      <trkpt lat="42.2475020" lon="-8.6831190">
        <ele>155.7</ele>
        <time>2021-05-20T13:04:06Z</time>
      </trkpt>
      <trkpt lat="42.2475090" lon="-8.6831050">
        <ele>155.7</ele>
        <time>2021-05-20T13:04:07Z</time>
      </trkpt>
      <trkpt lat="42.2475180" lon="-8.6830990">
        <ele>155.7</ele>
        <time>2021-05-20T13:04:08Z</time>
      </trkpt>
      <trkpt lat="42.2475380" lon="-8.6830870">
        <ele>155.7</ele>
        <time>2021-05-20T13:04:09Z</time>
      </trkpt>
      <trkpt lat="42.2475490" lon="-8.6830850">
        <ele>155.7</ele>
        <time>2021-05-20T13:04:10Z</time>
      </trkpt>
      <trkpt lat="42.2475590" lon="-8.6830830">
        <ele>155.7</ele>
        <time>2021-05-20T13:04:11Z</time>
      </trkpt>
      <trkpt lat="42.2475730" lon="-8.6830790">
        <ele>155.7</ele>
        <time>2021-05-20T13:04:12Z</time>
      </trkpt>
      <trkpt lat="42.2475850" lon="-8.6830690">
        <ele>155.7</ele>
        <time>2021-05-20T13:04:13Z</time>
      </trkpt>
      <trkpt lat="42.2475920" lon="-8.6830620">
        <ele>155.7</ele>
        <time>2021-05-20T13:04:14Z</time>
      </trkpt>
      <trkpt lat="42.2476100" lon="-8.6830590">
        <ele>155.7</ele>
        <time>2021-05-20T13:04:15Z</time>
      </trkpt>
      <trkpt lat="42.2476140" lon="-8.6830600">
        <ele>155.7</ele>
        <time>2021-05-20T13:04:16Z</time>
      </trkpt>
      <trkpt lat="42.2476230" lon="-8.6830540">
        <ele>155.7</ele>
        <time>2021-05-20T13:04:17Z</time>
      </trkpt>
      <trkpt lat="42.2476360" lon="-8.6830480">
        <ele>155.7</ele>
        <time>2021-05-20T13:04:18Z</time>
      </trkpt>
      <trkpt lat="42.2476430" lon="-8.6830520">
        <ele>155.7</ele>
        <time>2021-05-20T13:04:19Z</time>
      </trkpt>
      <trkpt lat="42.2476570" lon="-8.6830500">
        <ele>155.7</ele>
        <time>2021-05-20T13:04:20Z</time>
      </trkpt>
      <trkpt lat="42.2476660" lon="-8.6830440">
        <ele>155.7</ele>
        <time>2021-05-20T13:04:21Z</time>
      </trkpt>
      <trkpt lat="42.2476720" lon="-8.6830420">
        <ele>155.7</ele>
        <time>2021-05-20T13:04:22Z</time>
      </trkpt>
      <trkpt lat="42.2476820" lon="-8.6830340">
        <ele>155.7</ele>
        <time>2021-05-20T13:04:23Z</time>
      </trkpt>
      <trkpt lat="42.2476940" lon="-8.6830350">
        <ele>155.7</ele>
        <time>2021-05-20T13:04:24Z</time>
      </trkpt>
      <trkpt lat="42.2477070" lon="-8.6830320">
        <ele>155.7</ele>
        <time>2021-05-20T13:04:25Z</time>
      </trkpt>
      <trkpt lat="42.2477120" lon="-8.6830270">
        <ele>155.7</ele>
        <time>2021-05-20T13:04:26Z</time>
      </trkpt>
      <trkpt lat="42.2477330" lon="-8.6830210">
        <ele>155.7</ele>
        <time>2021-05-20T13:04:27Z</time>
      </trkpt>
      <trkpt lat="42.2477380" lon="-8.6830250">
        <ele>155.7</ele>
        <time>2021-05-20T13:04:28Z</time>
      </trkpt>
      <trkpt lat="42.2477500" lon="-8.6830200">
        <ele>155.7</ele>
        <time>2021-05-20T13:04:29Z</time>
      </trkpt>
      <trkpt lat="42.2477580" lon="-8.6830140">
        <ele>155.7</ele>
        <time>2021-05-20T13:04:30Z</time>
      </trkpt>
      <trkpt lat="42.2477650" lon="-8.6830090">
        <ele>155.7</ele>
        <time>2021-05-20T13:04:31Z</time>
      </trkpt>
      <trkpt lat="42.2477790" lon="-8.6830130">
        <ele>155.7</ele>
        <time>2021-05-20T13:04:32Z</time>
      </trkpt>
      <trkpt lat="42.2477960" lon="-8.6829980">
        <ele>155.7</ele>
        <time>2021-05-20T13:04:33Z</time>
      </trkpt>
      <trkpt lat="42.2478050" lon="-8.6829910">
        <ele>155.7</ele>
        <time>2021-05-20T13:04:34Z</time>
      </trkpt>
      <trkpt lat="42.2478230" lon="-8.6829800">
        <ele>155.7</ele>
        <time>2021-05-20T13:04:35Z</time>
      </trkpt>
      <trkpt lat="42.2478400" lon="-8.6829740">
        <ele>155.7</ele>
        <time>2021-05-20T13:04:36Z</time>
      </trkpt>
      <trkpt lat="42.2478470" lon="-8.6829730">
        <ele>155.7</ele>
        <time>2021-05-20T13:04:37Z</time>
      </trkpt>
      <trkpt lat="42.2478550" lon="-8.6829730">
        <ele>155.7</ele>
        <time>2021-05-20T13:04:38Z</time>
      </trkpt>
      <trkpt lat="42.2478620" lon="-8.6829720">
        <ele>155.7</ele>
        <time>2021-05-20T13:04:39Z</time>
      </trkpt>
      <trkpt lat="42.2478740" lon="-8.6829630">
        <ele>155.7</ele>
        <time>2021-05-20T13:04:40Z</time>
      </trkpt>
      <trkpt lat="42.2478810" lon="-8.6829590">
        <ele>155.7</ele>
        <time>2021-05-20T13:04:41Z</time>
      </trkpt>
      <trkpt lat="42.2478890" lon="-8.6829550">
        <ele>155.7</ele>
        <time>2021-05-20T13:04:42Z</time>
      </trkpt>
      <trkpt lat="42.2478960" lon="-8.6829510">
        <ele>155.7</ele>
        <time>2021-05-20T13:04:43Z</time>
      </trkpt>
      <trkpt lat="42.2479130" lon="-8.6829500">
        <ele>155.7</ele>
        <time>2021-05-20T13:04:44Z</time>
      </trkpt>
      <trkpt lat="42.2479250" lon="-8.6829370">
        <ele>155.7</ele>
        <time>2021-05-20T13:04:45Z</time>
      </trkpt>
      <trkpt lat="42.2479330" lon="-8.6829380">
        <ele>155.7</ele>
        <time>2021-05-20T13:04:46Z</time>
      </trkpt>
      <trkpt lat="42.2479430" lon="-8.6829450">
        <ele>155.7</ele>
        <time>2021-05-20T13:04:47Z</time>
      </trkpt>
      <trkpt lat="42.2479430" lon="-8.6829450">
        <ele>155.7</ele>
        <time>2021-05-20T13:04:48Z</time>
      </trkpt>
      <trkpt lat="42.2479580" lon="-8.6829340">
        <ele>155.7</ele>
        <time>2021-05-20T13:04:49Z</time>
      </trkpt>
      <trkpt lat="42.2479760" lon="-8.6829310">
        <ele>155.7</ele>
        <time>2021-05-20T13:04:50Z</time>
      </trkpt>
      <trkpt lat="42.2479930" lon="-8.6829260">
        <ele>155.7</ele>
        <time>2021-05-20T13:04:51Z</time>
      </trkpt>
      <trkpt lat="42.2480000" lon="-8.6829220">
        <ele>155.7</ele>
        <time>2021-05-20T13:04:52Z</time>
      </trkpt>
      <trkpt lat="42.2480110" lon="-8.6829200">
        <ele>155.7</ele>
        <time>2021-05-20T13:04:53Z</time>
      </trkpt>
      <trkpt lat="42.2480190" lon="-8.6829130">
        <ele>155.7</ele>
        <time>2021-05-20T13:04:55Z</time>
      </trkpt>
      <trkpt lat="42.2480290" lon="-8.6829060">
        <ele>155.7</ele>
        <time>2021-05-20T13:04:56Z</time>
      </trkpt>
      <trkpt lat="42.2480490" lon="-8.6829030">
        <ele>155.7</ele>
        <time>2021-05-20T13:04:57Z</time>
      </trkpt>
      <trkpt lat="42.2480700" lon="-8.6828980">
        <ele>155.7</ele>
        <time>2021-05-20T13:04:58Z</time>
      </trkpt>
      <trkpt lat="42.2480780" lon="-8.6828970">
        <ele>155.7</ele>
        <time>2021-05-20T13:04:59Z</time>
      </trkpt>
      <trkpt lat="42.2480870" lon="-8.6828960">
        <ele>155.7</ele>
        <time>2021-05-20T13:05:00Z</time>
      </trkpt>
      <trkpt lat="42.2481100" lon="-8.6828740">
        <ele>155.7</ele>
        <time>2021-05-20T13:05:01Z</time>
      </trkpt>
      <trkpt lat="42.2481160" lon="-8.6828630">
        <ele>155.7</ele>
        <time>2021-05-20T13:05:02Z</time>
      </trkpt>
      <trkpt lat="42.2481280" lon="-8.6828440">
        <ele>155.7</ele>
        <time>2021-05-20T13:05:03Z</time>
      </trkpt>
      <trkpt lat="42.2481420" lon="-8.6828350">
        <ele>155.7</ele>
        <time>2021-05-20T13:05:04Z</time>
      </trkpt>
      <trkpt lat="42.2481490" lon="-8.6828310">
        <ele>155.7</ele>
        <time>2021-05-20T13:05:05Z</time>
      </trkpt>
      <trkpt lat="42.2481550" lon="-8.6828300">
        <ele>155.7</ele>
        <time>2021-05-20T13:05:06Z</time>
      </trkpt>
      <trkpt lat="42.2481600" lon="-8.6828250">
        <ele>155.7</ele>
        <time>2021-05-20T13:05:07Z</time>
      </trkpt>
      <trkpt lat="42.2481740" lon="-8.6828220">
        <ele>155.7</ele>
        <time>2021-05-20T13:05:08Z</time>
      </trkpt>
      <trkpt lat="42.2481880" lon="-8.6828160">
        <ele>155.7</ele>
        <time>2021-05-20T13:05:09Z</time>
      </trkpt>
      <trkpt lat="42.2481990" lon="-8.6828110">
        <ele>155.7</ele>
        <time>2021-05-20T13:05:10Z</time>
      </trkpt>
      <trkpt lat="42.2482110" lon="-8.6828070">
        <ele>155.7</ele>
        <time>2021-05-20T13:05:11Z</time>
      </trkpt>
      <trkpt lat="42.2482190" lon="-8.6828030">
        <ele>155.7</ele>
        <time>2021-05-20T13:05:12Z</time>
      </trkpt>
      <trkpt lat="42.2482370" lon="-8.6827950">
        <ele>155.7</ele>
        <time>2021-05-20T13:05:13Z</time>
      </trkpt>
      <trkpt lat="42.2482470" lon="-8.6827870">
        <ele>155.7</ele>
        <time>2021-05-20T13:05:14Z</time>
      </trkpt>
      <trkpt lat="42.2482600" lon="-8.6827900">
        <ele>155.7</ele>
        <time>2021-05-20T13:05:15Z</time>
      </trkpt>
      <trkpt lat="42.2482720" lon="-8.6827800">
        <ele>155.7</ele>
        <time>2021-05-20T13:05:16Z</time>
      </trkpt>
      <trkpt lat="42.2482800" lon="-8.6827780">
        <ele>155.7</ele>
        <time>2021-05-20T13:05:17Z</time>
      </trkpt>
      <trkpt lat="42.2482920" lon="-8.6827740">
        <ele>155.7</ele>
        <time>2021-05-20T13:05:18Z</time>
      </trkpt>
      <trkpt lat="42.2483020" lon="-8.6827690">
        <ele>155.7</ele>
        <time>2021-05-20T13:05:19Z</time>
      </trkpt>
      <trkpt lat="42.2483050" lon="-8.6827770">
        <ele>155.7</ele>
        <time>2021-05-20T13:05:20Z</time>
      </trkpt>
      <trkpt lat="42.2483220" lon="-8.6827760">
        <ele>155.8</ele>
        <time>2021-05-20T13:05:21Z</time>
      </trkpt>
      <trkpt lat="42.2483320" lon="-8.6827690">
        <ele>155.8</ele>
        <time>2021-05-20T13:05:22Z</time>
      </trkpt>
      <trkpt lat="42.2483490" lon="-8.6827640">
        <ele>155.8</ele>
        <time>2021-05-20T13:05:23Z</time>
      </trkpt>
      <trkpt lat="42.2483670" lon="-8.6827640">
        <ele>155.8</ele>
        <time>2021-05-20T13:05:24Z</time>
      </trkpt>
      <trkpt lat="42.2483760" lon="-8.6827600">
        <ele>155.8</ele>
        <time>2021-05-20T13:05:25Z</time>
      </trkpt>
      <trkpt lat="42.2483870" lon="-8.6827510">
        <ele>155.8</ele>
        <time>2021-05-20T13:05:26Z</time>
      </trkpt>
      <trkpt lat="42.2483980" lon="-8.6827480">
        <ele>155.8</ele>
        <time>2021-05-20T13:05:27Z</time>
      </trkpt>
      <trkpt lat="42.2484040" lon="-8.6827490">
        <ele>155.8</ele>
        <time>2021-05-20T13:05:28Z</time>
      </trkpt>
      <trkpt lat="42.2484180" lon="-8.6827450">
        <ele>155.9</ele>
        <time>2021-05-20T13:05:29Z</time>
      </trkpt>
      <trkpt lat="42.2484300" lon="-8.6827300">
        <ele>155.9</ele>
        <time>2021-05-20T13:05:30Z</time>
      </trkpt>
      <trkpt lat="42.2484390" lon="-8.6827270">
        <ele>155.9</ele>
        <time>2021-05-20T13:05:31Z</time>
      </trkpt>
      <trkpt lat="42.2484500" lon="-8.6827240">
        <ele>155.9</ele>
        <time>2021-05-20T13:05:32Z</time>
      </trkpt>
      <trkpt lat="42.2484610" lon="-8.6827160">
        <ele>155.9</ele>
        <time>2021-05-20T13:05:33Z</time>
      </trkpt>
      <trkpt lat="42.2484800" lon="-8.6827150">
        <ele>156.0</ele>
        <time>2021-05-20T13:05:34Z</time>
      </trkpt>
      <trkpt lat="42.2484940" lon="-8.6827050">
        <ele>156.0</ele>
        <time>2021-05-20T13:05:35Z</time>
      </trkpt>
      <trkpt lat="42.2485070" lon="-8.6826980">
        <ele>156.0</ele>
        <time>2021-05-20T13:05:36Z</time>
      </trkpt>
      <trkpt lat="42.2485180" lon="-8.6826880">
        <ele>156.0</ele>
        <time>2021-05-20T13:05:37Z</time>
      </trkpt>
      <trkpt lat="42.2485250" lon="-8.6826840">
        <ele>156.0</ele>
        <time>2021-05-20T13:05:38Z</time>
      </trkpt>
      <trkpt lat="42.2485360" lon="-8.6826820">
        <ele>156.1</ele>
        <time>2021-05-20T13:05:39Z</time>
      </trkpt>
      <trkpt lat="42.2485460" lon="-8.6826790">
        <ele>156.1</ele>
        <time>2021-05-20T13:05:40Z</time>
      </trkpt>
      <trkpt lat="42.2485610" lon="-8.6826750">
        <ele>156.1</ele>
        <time>2021-05-20T13:05:41Z</time>
      </trkpt>
      <trkpt lat="42.2485690" lon="-8.6826680">
        <ele>156.1</ele>
        <time>2021-05-20T13:05:42Z</time>
      </trkpt>
      <trkpt lat="42.2485780" lon="-8.6826610">
        <ele>156.1</ele>
        <time>2021-05-20T13:05:43Z</time>
      </trkpt>
      <trkpt lat="42.2486010" lon="-8.6826530">
        <ele>156.2</ele>
        <time>2021-05-20T13:05:44Z</time>
      </trkpt>
      <trkpt lat="42.2486110" lon="-8.6826500">
        <ele>156.2</ele>
        <time>2021-05-20T13:05:45Z</time>
      </trkpt>
      <trkpt lat="42.2486210" lon="-8.6826480">
        <ele>156.2</ele>
        <time>2021-05-20T13:05:46Z</time>
      </trkpt>
      <trkpt lat="42.2486340" lon="-8.6826430">
        <ele>156.3</ele>
        <time>2021-05-20T13:05:47Z</time>
      </trkpt>
      <trkpt lat="42.2486470" lon="-8.6826280">
        <ele>156.3</ele>
        <time>2021-05-20T13:05:48Z</time>
      </trkpt>
      <trkpt lat="42.2486570" lon="-8.6826210">
        <ele>156.3</ele>
        <time>2021-05-20T13:05:49Z</time>
      </trkpt>
      <trkpt lat="42.2486730" lon="-8.6826130">
        <ele>156.4</ele>
        <time>2021-05-20T13:05:50Z</time>
      </trkpt>
      <trkpt lat="42.2486810" lon="-8.6826010">
        <ele>156.4</ele>
        <time>2021-05-20T13:05:51Z</time>
      </trkpt>
      <trkpt lat="42.2486990" lon="-8.6826000">
        <ele>156.5</ele>
        <time>2021-05-20T13:05:52Z</time>
      </trkpt>
      <trkpt lat="42.2487040" lon="-8.6825950">
        <ele>156.5</ele>
        <time>2021-05-20T13:05:53Z</time>
      </trkpt>
      <trkpt lat="42.2487140" lon="-8.6825960">
        <ele>156.6</ele>
        <time>2021-05-20T13:05:54Z</time>
      </trkpt>
      <trkpt lat="42.2487320" lon="-8.6825920">
        <ele>156.6</ele>
        <time>2021-05-20T13:05:55Z</time>
      </trkpt>
      <trkpt lat="42.2487430" lon="-8.6825760">
        <ele>156.7</ele>
        <time>2021-05-20T13:05:56Z</time>
      </trkpt>
      <trkpt lat="42.2487530" lon="-8.6825680">
        <ele>156.7</ele>
        <time>2021-05-20T13:05:57Z</time>
      </trkpt>
      <trkpt lat="42.2487720" lon="-8.6825590">
        <ele>156.8</ele>
        <time>2021-05-20T13:05:58Z</time>
      </trkpt>
      <trkpt lat="42.2487790" lon="-8.6825540">
        <ele>156.9</ele>
        <time>2021-05-20T13:05:59Z</time>
      </trkpt>
      <trkpt lat="42.2487950" lon="-8.6825450">
        <ele>156.9</ele>
        <time>2021-05-20T13:06:00Z</time>
      </trkpt>
      <trkpt lat="42.2488040" lon="-8.6825390">
        <ele>157.0</ele>
        <time>2021-05-20T13:06:01Z</time>
      </trkpt>
      <trkpt lat="42.2488120" lon="-8.6825330">
        <ele>157.0</ele>
        <time>2021-05-20T13:06:02Z</time>
      </trkpt>
      <trkpt lat="42.2488240" lon="-8.6825240">
        <ele>157.1</ele>
        <time>2021-05-20T13:06:03Z</time>
      </trkpt>
      <trkpt lat="42.2488380" lon="-8.6825220">
        <ele>157.1</ele>
        <time>2021-05-20T13:06:04Z</time>
      </trkpt>
      <trkpt lat="42.2488640" lon="-8.6825010">
        <ele>157.3</ele>
        <time>2021-05-20T13:06:05Z</time>
      </trkpt>
      <trkpt lat="42.2488700" lon="-8.6824950">
        <ele>157.3</ele>
        <time>2021-05-20T13:06:06Z</time>
      </trkpt>
      <trkpt lat="42.2488840" lon="-8.6824910">
        <ele>157.4</ele>
        <time>2021-05-20T13:06:07Z</time>
      </trkpt>
      <trkpt lat="42.2488940" lon="-8.6824840">
        <ele>157.4</ele>
        <time>2021-05-20T13:06:08Z</time>
      </trkpt>
      <trkpt lat="42.2488970" lon="-8.6824720">
        <ele>157.4</ele>
        <time>2021-05-20T13:06:09Z</time>
      </trkpt>
      <trkpt lat="42.2489120" lon="-8.6824650">
        <ele>157.5</ele>
        <time>2021-05-20T13:06:10Z</time>
      </trkpt>
      <trkpt lat="42.2489230" lon="-8.6824580">
        <ele>157.6</ele>
        <time>2021-05-20T13:06:11Z</time>
      </trkpt>
      <trkpt lat="42.2489370" lon="-8.6824430">
        <ele>157.6</ele>
        <time>2021-05-20T13:06:12Z</time>
      </trkpt>
      <trkpt lat="42.2489440" lon="-8.6824360">
        <ele>157.7</ele>
        <time>2021-05-20T13:06:13Z</time>
      </trkpt>
      <trkpt lat="42.2489520" lon="-8.6824290">
        <ele>157.7</ele>
        <time>2021-05-20T13:06:14Z</time>
      </trkpt>
      <trkpt lat="42.2489580" lon="-8.6824290">
        <ele>157.7</ele>
        <time>2021-05-20T13:06:15Z</time>
      </trkpt>
      <trkpt lat="42.2489670" lon="-8.6824160">
        <ele>157.8</ele>
        <time>2021-05-20T13:06:16Z</time>
      </trkpt>
      <trkpt lat="42.2489780" lon="-8.6824150">
        <ele>157.8</ele>
        <time>2021-05-20T13:06:17Z</time>
      </trkpt>
      <trkpt lat="42.2489880" lon="-8.6824070">
        <ele>157.8</ele>
        <time>2021-05-20T13:06:18Z</time>
      </trkpt>
      <trkpt lat="42.2489960" lon="-8.6824020">
        <ele>157.9</ele>
        <time>2021-05-20T13:06:19Z</time>
      </trkpt>
      <trkpt lat="42.2490100" lon="-8.6824000">
        <ele>157.9</ele>
        <time>2021-05-20T13:06:20Z</time>
      </trkpt>
      <trkpt lat="42.2490180" lon="-8.6823920">
        <ele>157.9</ele>
        <time>2021-05-20T13:06:21Z</time>
      </trkpt>
      <trkpt lat="42.2490330" lon="-8.6823890">
        <ele>158.0</ele>
        <time>2021-05-20T13:06:22Z</time>
      </trkpt>
      <trkpt lat="42.2490440" lon="-8.6823840">
        <ele>158.0</ele>
        <time>2021-05-20T13:06:23Z</time>
      </trkpt>
      <trkpt lat="42.2490500" lon="-8.6823790">
        <ele>158.0</ele>
        <time>2021-05-20T13:06:24Z</time>
      </trkpt>
      <trkpt lat="42.2490630" lon="-8.6823700">
        <ele>158.1</ele>
        <time>2021-05-20T13:06:25Z</time>
      </trkpt>
      <trkpt lat="42.2490750" lon="-8.6823640">
        <ele>158.1</ele>
        <time>2021-05-20T13:06:26Z</time>
      </trkpt>
      <trkpt lat="42.2490850" lon="-8.6823610">
        <ele>158.1</ele>
        <time>2021-05-20T13:06:27Z</time>
      </trkpt>
      <trkpt lat="42.2490910" lon="-8.6823590">
        <ele>158.1</ele>
        <time>2021-05-20T13:06:28Z</time>
      </trkpt>
      <trkpt lat="42.2490980" lon="-8.6823580">
        <ele>158.1</ele>
        <time>2021-05-20T13:06:29Z</time>
      </trkpt>
      <trkpt lat="42.2491090" lon="-8.6823510">
        <ele>158.1</ele>
        <time>2021-05-20T13:06:30Z</time>
      </trkpt>
      <trkpt lat="42.2491250" lon="-8.6823430">
        <ele>158.1</ele>
        <time>2021-05-20T13:06:31Z</time>
      </trkpt>
      <trkpt lat="42.2491360" lon="-8.6823350">
        <ele>158.2</ele>
        <time>2021-05-20T13:06:32Z</time>
      </trkpt>
      <trkpt lat="42.2491410" lon="-8.6823280">
        <ele>158.2</ele>
        <time>2021-05-20T13:06:33Z</time>
      </trkpt>
      <trkpt lat="42.2491530" lon="-8.6823210">
        <ele>158.2</ele>
        <time>2021-05-20T13:06:34Z</time>
      </trkpt>
      <trkpt lat="42.2491600" lon="-8.6823160">
        <ele>158.2</ele>
        <time>2021-05-20T13:06:35Z</time>
      </trkpt>
      <trkpt lat="42.2491790" lon="-8.6823030">
        <ele>158.2</ele>
        <time>2021-05-20T13:06:36Z</time>
      </trkpt>
      <trkpt lat="42.2491880" lon="-8.6822990">
        <ele>158.2</ele>
        <time>2021-05-20T13:06:37Z</time>
      </trkpt>
      <trkpt lat="42.2491960" lon="-8.6822950">
        <ele>158.2</ele>
        <time>2021-05-20T13:06:38Z</time>
      </trkpt>
      <trkpt lat="42.2492000" lon="-8.6822920">
        <ele>158.2</ele>
        <time>2021-05-20T13:06:39Z</time>
      </trkpt>
      <trkpt lat="42.2492120" lon="-8.6822870">
        <ele>158.2</ele>
        <time>2021-05-20T13:06:40Z</time>
      </trkpt>
      <trkpt lat="42.2492230" lon="-8.6822790">
        <ele>158.2</ele>
        <time>2021-05-20T13:06:41Z</time>
      </trkpt>
      <trkpt lat="42.2492280" lon="-8.6822770">
        <ele>158.2</ele>
        <time>2021-05-20T13:06:42Z</time>
      </trkpt>
      <trkpt lat="42.2492370" lon="-8.6822680">
        <ele>158.2</ele>
        <time>2021-05-20T13:06:43Z</time>
      </trkpt>
      <trkpt lat="42.2492490" lon="-8.6822570">
        <ele>158.2</ele>
        <time>2021-05-20T13:06:44Z</time>
      </trkpt>
      <trkpt lat="42.2492690" lon="-8.6822450">
        <ele>158.2</ele>
        <time>2021-05-20T13:06:45Z</time>
      </trkpt>
      <trkpt lat="42.2492770" lon="-8.6822420">
        <ele>158.2</ele>
        <time>2021-05-20T13:06:46Z</time>
      </trkpt>
      <trkpt lat="42.2492840" lon="-8.6822390">
        <ele>158.2</ele>
        <time>2021-05-20T13:06:47Z</time>
      </trkpt>
      <trkpt lat="42.2493080" lon="-8.6822290">
        <ele>158.2</ele>
        <time>2021-05-20T13:06:48Z</time>
      </trkpt>
      <trkpt lat="42.2493150" lon="-8.6822250">
        <ele>158.2</ele>
        <time>2021-05-20T13:06:49Z</time>
      </trkpt>
      <trkpt lat="42.2493230" lon="-8.6822210">
        <ele>158.2</ele>
        <time>2021-05-20T13:06:50Z</time>
      </trkpt>
      <trkpt lat="42.2493400" lon="-8.6822160">
        <ele>158.2</ele>
        <time>2021-05-20T13:06:51Z</time>
      </trkpt>
      <trkpt lat="42.2493500" lon="-8.6822030">
        <ele>158.2</ele>
        <time>2021-05-20T13:06:52Z</time>
      </trkpt>
      <trkpt lat="42.2493630" lon="-8.6821950">
        <ele>158.1</ele>
        <time>2021-05-20T13:06:53Z</time>
      </trkpt>
      <trkpt lat="42.2493690" lon="-8.6821840">
        <ele>158.1</ele>
        <time>2021-05-20T13:06:54Z</time>
      </trkpt>
      <trkpt lat="42.2493770" lon="-8.6821810">
        <ele>158.1</ele>
        <time>2021-05-20T13:06:55Z</time>
      </trkpt>
      <trkpt lat="42.2493980" lon="-8.6821680">
        <ele>158.1</ele>
        <time>2021-05-20T13:06:56Z</time>
      </trkpt>
      <trkpt lat="42.2494060" lon="-8.6821600">
        <ele>158.1</ele>
        <time>2021-05-20T13:06:57Z</time>
      </trkpt>
      <trkpt lat="42.2494150" lon="-8.6821530">
        <ele>158.1</ele>
        <time>2021-05-20T13:06:58Z</time>
      </trkpt>
      <trkpt lat="42.2494250" lon="-8.6821540">
        <ele>158.1</ele>
        <time>2021-05-20T13:06:59Z</time>
      </trkpt>
      <trkpt lat="42.2494400" lon="-8.6821440">
        <ele>158.1</ele>
        <time>2021-05-20T13:07:00Z</time>
      </trkpt>
      <trkpt lat="42.2494480" lon="-8.6821350">
        <ele>158.1</ele>
        <time>2021-05-20T13:07:01Z</time>
      </trkpt>
      <trkpt lat="42.2494550" lon="-8.6821340">
        <ele>158.1</ele>
        <time>2021-05-20T13:07:02Z</time>
      </trkpt>
      <trkpt lat="42.2494600" lon="-8.6821270">
        <ele>158.1</ele>
        <time>2021-05-20T13:07:03Z</time>
      </trkpt>
      <trkpt lat="42.2494740" lon="-8.6821200">
        <ele>158.0</ele>
        <time>2021-05-20T13:07:04Z</time>
      </trkpt>
      <trkpt lat="42.2494790" lon="-8.6821090">
        <ele>158.0</ele>
        <time>2021-05-20T13:07:05Z</time>
      </trkpt>
      <trkpt lat="42.2494890" lon="-8.6821020">
        <ele>158.0</ele>
        <time>2021-05-20T13:07:06Z</time>
      </trkpt>
      <trkpt lat="42.2495030" lon="-8.6820960">
        <ele>158.0</ele>
        <time>2021-05-20T13:07:07Z</time>
      </trkpt>
      <trkpt lat="42.2495150" lon="-8.6820850">
        <ele>158.0</ele>
        <time>2021-05-20T13:07:09Z</time>
      </trkpt>
      <trkpt lat="42.2495310" lon="-8.6820860">
        <ele>158.0</ele>
        <time>2021-05-20T13:07:10Z</time>
      </trkpt>
      <trkpt lat="42.2495500" lon="-8.6820840">
        <ele>158.0</ele>
        <time>2021-05-20T13:07:11Z</time>
      </trkpt>
      <trkpt lat="42.2495630" lon="-8.6820770">
        <ele>158.0</ele>
        <time>2021-05-20T13:07:12Z</time>
      </trkpt>
      <trkpt lat="42.2495760" lon="-8.6820790">
        <ele>158.0</ele>
        <time>2021-05-20T13:07:13Z</time>
      </trkpt>
      <trkpt lat="42.2495860" lon="-8.6820720">
        <ele>158.0</ele>
        <time>2021-05-20T13:07:14Z</time>
      </trkpt>
      <trkpt lat="42.2495920" lon="-8.6820650">
        <ele>158.0</ele>
        <time>2021-05-20T13:07:15Z</time>
      </trkpt>
      <trkpt lat="42.2496000" lon="-8.6820560">
        <ele>158.0</ele>
        <time>2021-05-20T13:07:16Z</time>
      </trkpt>
      <trkpt lat="42.2496140" lon="-8.6820510">
        <ele>158.0</ele>
        <time>2021-05-20T13:07:17Z</time>
      </trkpt>
      <trkpt lat="42.2496240" lon="-8.6820440">
        <ele>158.0</ele>
        <time>2021-05-20T13:07:18Z</time>
      </trkpt>
      <trkpt lat="42.2496340" lon="-8.6820430">
        <ele>158.0</ele>
        <time>2021-05-20T13:07:19Z</time>
      </trkpt>
      <trkpt lat="42.2496460" lon="-8.6820390">
        <ele>158.0</ele>
        <time>2021-05-20T13:07:20Z</time>
      </trkpt>
      <trkpt lat="42.2496570" lon="-8.6820350">
        <ele>158.0</ele>
        <time>2021-05-20T13:07:21Z</time>
      </trkpt>
      <trkpt lat="42.2496710" lon="-8.6820350">
        <ele>158.0</ele>
        <time>2021-05-20T13:07:22Z</time>
      </trkpt>
      <trkpt lat="42.2496790" lon="-8.6820320">
        <ele>158.0</ele>
        <time>2021-05-20T13:07:23Z</time>
      </trkpt>
      <trkpt lat="42.2496860" lon="-8.6820300">
        <ele>157.9</ele>
        <time>2021-05-20T13:07:24Z</time>
      </trkpt>
      <trkpt lat="42.2496940" lon="-8.6820270">
        <ele>157.9</ele>
        <time>2021-05-20T13:07:25Z</time>
      </trkpt>
      <trkpt lat="42.2497050" lon="-8.6820280">
        <ele>157.9</ele>
        <time>2021-05-20T13:07:26Z</time>
      </trkpt>
      <trkpt lat="42.2497140" lon="-8.6820290">
        <ele>157.9</ele>
        <time>2021-05-20T13:07:27Z</time>
      </trkpt>
      <trkpt lat="42.2497210" lon="-8.6820280">
        <ele>157.9</ele>
        <time>2021-05-20T13:07:28Z</time>
      </trkpt>
      <trkpt lat="42.2497340" lon="-8.6820210">
        <ele>157.9</ele>
        <time>2021-05-20T13:07:29Z</time>
      </trkpt>
      <trkpt lat="42.2497430" lon="-8.6820220">
        <ele>157.9</ele>
        <time>2021-05-20T13:07:30Z</time>
      </trkpt>
      <trkpt lat="42.2497460" lon="-8.6820230">
        <ele>157.9</ele>
        <time>2021-05-20T13:07:31Z</time>
      </trkpt>
      <trkpt lat="42.2497540" lon="-8.6820270">
        <ele>157.9</ele>
        <time>2021-05-20T13:07:32Z</time>
      </trkpt>
      <trkpt lat="42.2497710" lon="-8.6820230">
        <ele>157.9</ele>
        <time>2021-05-20T13:07:33Z</time>
      </trkpt>
      <trkpt lat="42.2497860" lon="-8.6820210">
        <ele>157.9</ele>
        <time>2021-05-20T13:07:34Z</time>
      </trkpt>
      <trkpt lat="42.2497990" lon="-8.6820260">
        <ele>157.9</ele>
        <time>2021-05-20T13:07:35Z</time>
      </trkpt>
      <trkpt lat="42.2498040" lon="-8.6820210">
        <ele>157.8</ele>
        <time>2021-05-20T13:07:36Z</time>
      </trkpt>
      <trkpt lat="42.2498200" lon="-8.6820160">
        <ele>157.8</ele>
        <time>2021-05-20T13:07:37Z</time>
      </trkpt>
      <trkpt lat="42.2498410" lon="-8.6820190">
        <ele>157.8</ele>
        <time>2021-05-20T13:07:38Z</time>
      </trkpt>
      <trkpt lat="42.2498500" lon="-8.6820190">
        <ele>157.8</ele>
        <time>2021-05-20T13:07:39Z</time>
      </trkpt>
      <trkpt lat="42.2498600" lon="-8.6820200">
        <ele>157.8</ele>
        <time>2021-05-20T13:07:40Z</time>
      </trkpt>
      <trkpt lat="42.2498730" lon="-8.6820180">
        <ele>157.7</ele>
        <time>2021-05-20T13:07:41Z</time>
      </trkpt>
      <trkpt lat="42.2498810" lon="-8.6820120">
        <ele>157.7</ele>
        <time>2021-05-20T13:07:42Z</time>
      </trkpt>
      <trkpt lat="42.2498900" lon="-8.6820050">
        <ele>157.7</ele>
        <time>2021-05-20T13:07:43Z</time>
      </trkpt>
      <trkpt lat="42.2499000" lon="-8.6819990">
        <ele>157.7</ele>
        <time>2021-05-20T13:07:44Z</time>
      </trkpt>
      <trkpt lat="42.2499090" lon="-8.6819970">
        <ele>157.6</ele>
        <time>2021-05-20T13:07:45Z</time>
      </trkpt>
      <trkpt lat="42.2499170" lon="-8.6819900">
        <ele>157.6</ele>
        <time>2021-05-20T13:07:46Z</time>
      </trkpt>
      <trkpt lat="42.2499260" lon="-8.6819880">
        <ele>157.6</ele>
        <time>2021-05-20T13:07:47Z</time>
      </trkpt>
      <trkpt lat="42.2499340" lon="-8.6819870">
        <ele>157.6</ele>
        <time>2021-05-20T13:07:48Z</time>
      </trkpt>
      <trkpt lat="42.2499450" lon="-8.6819810">
        <ele>157.5</ele>
        <time>2021-05-20T13:07:49Z</time>
      </trkpt>
      <trkpt lat="42.2499600" lon="-8.6819780">
        <ele>157.5</ele>
        <time>2021-05-20T13:07:50Z</time>
      </trkpt>
      <trkpt lat="42.2499800" lon="-8.6819730">
        <ele>157.4</ele>
        <time>2021-05-20T13:07:51Z</time>
      </trkpt>
      <trkpt lat="42.2499890" lon="-8.6819670">
        <ele>157.4</ele>
        <time>2021-05-20T13:07:52Z</time>
      </trkpt>
      <trkpt lat="42.2499970" lon="-8.6819670">
        <ele>157.3</ele>
        <time>2021-05-20T13:07:53Z</time>
      </trkpt>
      <trkpt lat="42.2500120" lon="-8.6819680">
        <ele>157.3</ele>
        <time>2021-05-20T13:07:54Z</time>
      </trkpt>
      <trkpt lat="42.2500190" lon="-8.6819650">
        <ele>157.3</ele>
        <time>2021-05-20T13:07:55Z</time>
      </trkpt>
      <trkpt lat="42.2500420" lon="-8.6819690">
        <ele>157.1</ele>
        <time>2021-05-20T13:07:56Z</time>
      </trkpt>
      <trkpt lat="42.2500520" lon="-8.6819730">
        <ele>157.1</ele>
        <time>2021-05-20T13:07:57Z</time>
      </trkpt>
      <trkpt lat="42.2500580" lon="-8.6819790">
        <ele>157.0</ele>
        <time>2021-05-20T13:07:58Z</time>
      </trkpt>
      <trkpt lat="42.2500670" lon="-8.6819870">
        <ele>157.0</ele>
        <time>2021-05-20T13:07:59Z</time>
      </trkpt>
      <trkpt lat="42.2500820" lon="-8.6819870">
        <ele>156.9</ele>
        <time>2021-05-20T13:08:00Z</time>
      </trkpt>
      <trkpt lat="42.2500940" lon="-8.6819930">
        <ele>156.8</ele>
        <time>2021-05-20T13:08:01Z</time>
      </trkpt>
      <trkpt lat="42.2501040" lon="-8.6819920">
        <ele>156.8</ele>
        <time>2021-05-20T13:08:02Z</time>
      </trkpt>
      <trkpt lat="42.2501160" lon="-8.6820030">
        <ele>156.7</ele>
        <time>2021-05-20T13:08:03Z</time>
      </trkpt>
      <trkpt lat="42.2501240" lon="-8.6820040">
        <ele>156.6</ele>
        <time>2021-05-20T13:08:04Z</time>
      </trkpt>
      <trkpt lat="42.2501370" lon="-8.6820030">
        <ele>156.5</ele>
        <time>2021-05-20T13:08:05Z</time>
      </trkpt>
      <trkpt lat="42.2501470" lon="-8.6820040">
        <ele>156.4</ele>
        <time>2021-05-20T13:08:06Z</time>
      </trkpt>
      <trkpt lat="42.2501570" lon="-8.6820050">
        <ele>156.4</ele>
        <time>2021-05-20T13:08:07Z</time>
      </trkpt>
      <trkpt lat="42.2501760" lon="-8.6820110">
        <ele>156.2</ele>
        <time>2021-05-20T13:08:08Z</time>
      </trkpt>
      <trkpt lat="42.2501860" lon="-8.6820110">
        <ele>156.2</ele>
        <time>2021-05-20T13:08:09Z</time>
      </trkpt>
      <trkpt lat="42.2501970" lon="-8.6820120">
        <ele>156.1</ele>
        <time>2021-05-20T13:08:10Z</time>
      </trkpt>
      <trkpt lat="42.2502240" lon="-8.6820080">
        <ele>155.9</ele>
        <time>2021-05-20T13:08:11Z</time>
      </trkpt>
      <trkpt lat="42.2502310" lon="-8.6820050">
        <ele>155.8</ele>
        <time>2021-05-20T13:08:12Z</time>
      </trkpt>
      <trkpt lat="42.2502380" lon="-8.6820020">
        <ele>155.8</ele>
        <time>2021-05-20T13:08:13Z</time>
      </trkpt>
      <trkpt lat="42.2502500" lon="-8.6819970">
        <ele>155.7</ele>
        <time>2021-05-20T13:08:14Z</time>
      </trkpt>
      <trkpt lat="42.2502620" lon="-8.6819970">
        <ele>155.6</ele>
        <time>2021-05-20T13:08:15Z</time>
      </trkpt>
      <trkpt lat="42.2502710" lon="-8.6819960">
        <ele>155.6</ele>
        <time>2021-05-20T13:08:16Z</time>
      </trkpt>
      <trkpt lat="42.2502900" lon="-8.6820020">
        <ele>155.4</ele>
        <time>2021-05-20T13:08:17Z</time>
      </trkpt>
      <trkpt lat="42.2502990" lon="-8.6819970">
        <ele>155.4</ele>
        <time>2021-05-20T13:08:18Z</time>
      </trkpt>
      <trkpt lat="42.2503220" lon="-8.6819850">
        <ele>155.2</ele>
        <time>2021-05-20T13:08:19Z</time>
      </trkpt>
      <trkpt lat="42.2503300" lon="-8.6819800">
        <ele>155.2</ele>
        <time>2021-05-20T13:08:20Z</time>
      </trkpt>
      <trkpt lat="42.2503390" lon="-8.6819750">
        <ele>155.1</ele>
        <time>2021-05-20T13:08:21Z</time>
      </trkpt>
      <trkpt lat="42.2503590" lon="-8.6819650">
        <ele>154.9</ele>
        <time>2021-05-20T13:08:22Z</time>
      </trkpt>
      <trkpt lat="42.2503690" lon="-8.6819630">
        <ele>154.9</ele>
        <time>2021-05-20T13:08:23Z</time>
      </trkpt>
      <trkpt lat="42.2503780" lon="-8.6819600">
        <ele>154.8</ele>
        <time>2021-05-20T13:08:24Z</time>
      </trkpt>
      <trkpt lat="42.2503840" lon="-8.6819550">
        <ele>154.8</ele>
        <time>2021-05-20T13:08:25Z</time>
      </trkpt>
      <trkpt lat="42.2504040" lon="-8.6819450">
        <ele>154.7</ele>
        <time>2021-05-20T13:08:26Z</time>
      </trkpt>
      <trkpt lat="42.2504130" lon="-8.6819410">
        <ele>154.6</ele>
        <time>2021-05-20T13:08:27Z</time>
      </trkpt>
      <trkpt lat="42.2504270" lon="-8.6819340">
        <ele>154.6</ele>
        <time>2021-05-20T13:08:28Z</time>
      </trkpt>
      <trkpt lat="42.2504310" lon="-8.6819270">
        <ele>154.5</ele>
        <time>2021-05-20T13:08:29Z</time>
      </trkpt>
      <trkpt lat="42.2504480" lon="-8.6819260">
        <ele>154.4</ele>
        <time>2021-05-20T13:08:30Z</time>
      </trkpt>
      <trkpt lat="42.2504560" lon="-8.6819210">
        <ele>154.4</ele>
        <time>2021-05-20T13:08:31Z</time>
      </trkpt>
      <trkpt lat="42.2504640" lon="-8.6819190">
        <ele>154.4</ele>
        <time>2021-05-20T13:08:32Z</time>
      </trkpt>
      <trkpt lat="42.2504790" lon="-8.6819050">
        <ele>154.3</ele>
        <time>2021-05-20T13:08:33Z</time>
      </trkpt>
      <trkpt lat="42.2504860" lon="-8.6818970">
        <ele>154.2</ele>
        <time>2021-05-20T13:08:34Z</time>
      </trkpt>
      <trkpt lat="42.2505010" lon="-8.6818950">
        <ele>154.2</ele>
        <time>2021-05-20T13:08:35Z</time>
      </trkpt>
      <trkpt lat="42.2505120" lon="-8.6818830">
        <ele>154.1</ele>
        <time>2021-05-20T13:08:36Z</time>
      </trkpt>
      <trkpt lat="42.2505210" lon="-8.6818810">
        <ele>154.1</ele>
        <time>2021-05-20T13:08:37Z</time>
      </trkpt>
      <trkpt lat="42.2505270" lon="-8.6818710">
        <ele>154.0</ele>
        <time>2021-05-20T13:08:38Z</time>
      </trkpt>
      <trkpt lat="42.2505450" lon="-8.6818660">
        <ele>154.0</ele>
        <time>2021-05-20T13:08:39Z</time>
      </trkpt>
      <trkpt lat="42.2505660" lon="-8.6818650">
        <ele>153.9</ele>
        <time>2021-05-20T13:08:40Z</time>
      </trkpt>
      <trkpt lat="42.2505760" lon="-8.6818620">
        <ele>153.9</ele>
        <time>2021-05-20T13:08:41Z</time>
      </trkpt>
      <trkpt lat="42.2505850" lon="-8.6818590">
        <ele>153.9</ele>
        <time>2021-05-20T13:08:42Z</time>
      </trkpt>
      <trkpt lat="42.2506000" lon="-8.6818430">
        <ele>154.0</ele>
        <time>2021-05-20T13:08:43Z</time>
      </trkpt>
      <trkpt lat="42.2506090" lon="-8.6818360">
        <ele>154.0</ele>
        <time>2021-05-20T13:08:44Z</time>
      </trkpt>
      <trkpt lat="42.2506170" lon="-8.6818300">
        <ele>154.0</ele>
        <time>2021-05-20T13:08:45Z</time>
      </trkpt>
      <trkpt lat="42.2506210" lon="-8.6818200">
        <ele>154.0</ele>
        <time>2021-05-20T13:08:46Z</time>
      </trkpt>
      <trkpt lat="42.2506290" lon="-8.6818140">
        <ele>154.0</ele>
        <time>2021-05-20T13:08:47Z</time>
      </trkpt>
      <trkpt lat="42.2506490" lon="-8.6818050">
        <ele>154.1</ele>
        <time>2021-05-20T13:08:48Z</time>
      </trkpt>
      <trkpt lat="42.2506610" lon="-8.6817990">
        <ele>154.1</ele>
        <time>2021-05-20T13:08:49Z</time>
      </trkpt>
      <trkpt lat="42.2506750" lon="-8.6817760">
        <ele>154.1</ele>
        <time>2021-05-20T13:08:50Z</time>
      </trkpt>
      <trkpt lat="42.2506790" lon="-8.6817760">
        <ele>154.2</ele>
        <time>2021-05-20T13:08:51Z</time>
      </trkpt>
      <trkpt lat="42.2506810" lon="-8.6817670">
        <ele>154.2</ele>
        <time>2021-05-20T13:08:52Z</time>
      </trkpt>
      <trkpt lat="42.2506890" lon="-8.6817560">
        <ele>154.2</ele>
        <time>2021-05-20T13:08:53Z</time>
      </trkpt>
      <trkpt lat="42.2506980" lon="-8.6817450">
        <ele>154.2</ele>
        <time>2021-05-20T13:08:54Z</time>
      </trkpt>
      <trkpt lat="42.2507050" lon="-8.6817340">
        <ele>154.3</ele>
        <time>2021-05-20T13:08:55Z</time>
      </trkpt>
      <trkpt lat="42.2507180" lon="-8.6817160">
        <ele>154.3</ele>
        <time>2021-05-20T13:08:56Z</time>
      </trkpt>
      <trkpt lat="42.2507280" lon="-8.6816980">
        <ele>154.4</ele>
        <time>2021-05-20T13:08:57Z</time>
      </trkpt>
      <trkpt lat="42.2507380" lon="-8.6816830">
        <ele>154.4</ele>
        <time>2021-05-20T13:08:58Z</time>
      </trkpt>
      <trkpt lat="42.2507550" lon="-8.6816740">
        <ele>154.4</ele>
        <time>2021-05-20T13:08:59Z</time>
      </trkpt>
      <trkpt lat="42.2507670" lon="-8.6816720">
        <ele>154.5</ele>
        <time>2021-05-20T13:09:00Z</time>
      </trkpt>
      <trkpt lat="42.2507760" lon="-8.6816710">
        <ele>154.5</ele>
        <time>2021-05-20T13:09:01Z</time>
      </trkpt>
      <trkpt lat="42.2507790" lon="-8.6816640">
        <ele>154.5</ele>
        <time>2021-05-20T13:09:02Z</time>
      </trkpt>
      <trkpt lat="42.2507820" lon="-8.6816630">
        <ele>154.5</ele>
        <time>2021-05-20T13:09:03Z</time>
      </trkpt>
      <trkpt lat="42.2507840" lon="-8.6816620">
        <ele>154.5</ele>
        <time>2021-05-20T13:09:04Z</time>
      </trkpt>
      <trkpt lat="42.2507840" lon="-8.6816650">
        <ele>154.5</ele>
        <time>2021-05-20T13:09:05Z</time>
      </trkpt>
      <trkpt lat="42.2507840" lon="-8.6816640">
        <ele>154.5</ele>
        <time>2021-05-20T13:09:06Z</time>
      </trkpt>
      <trkpt lat="42.2507840" lon="-8.6816620">
        <ele>154.5</ele>
        <time>2021-05-20T13:09:07Z</time>
      </trkpt>
      <trkpt lat="42.2507830" lon="-8.6816620">
        <ele>154.5</ele>
        <time>2021-05-20T13:09:08Z</time>
      </trkpt>
      <trkpt lat="42.2507830" lon="-8.6816620">
        <ele>154.5</ele>
        <time>2021-05-20T13:09:09Z</time>
      </trkpt>
      <trkpt lat="42.2507830" lon="-8.6816620">
        <ele>154.5</ele>
        <time>2021-05-20T13:09:10Z</time>
      </trkpt>
      <trkpt lat="42.2507690" lon="-8.6816700">
        <ele>154.6</ele>
        <time>2021-05-20T13:09:12Z</time>
      </trkpt>
      <trkpt lat="42.2507680" lon="-8.6816720">
        <ele>154.6</ele>
        <time>2021-05-20T13:09:13Z</time>
      </trkpt>
      <trkpt lat="42.2507670" lon="-8.6816730">
        <ele>154.6</ele>
        <time>2021-05-20T13:09:14Z</time>
      </trkpt>
      <trkpt lat="42.2507670" lon="-8.6816700">
        <ele>154.6</ele>
        <time>2021-05-20T13:09:15Z</time>
      </trkpt>
      <trkpt lat="42.2507690" lon="-8.6816690">
        <ele>154.6</ele>
        <time>2021-05-20T13:09:16Z</time>
      </trkpt>
      <trkpt lat="42.2507690" lon="-8.6816690">
        <ele>154.6</ele>
        <time>2021-05-20T13:09:17Z</time>
      </trkpt>
      <trkpt lat="42.2507690" lon="-8.6816740">
        <ele>154.6</ele>
        <time>2021-05-20T13:09:18Z</time>
      </trkpt>
      <trkpt lat="42.2507640" lon="-8.6816710">
        <ele>154.6</ele>
        <time>2021-05-20T13:09:19Z</time>
      </trkpt>
      <trkpt lat="42.2507670" lon="-8.6816740">
        <ele>154.6</ele>
        <time>2021-05-20T13:09:20Z</time>
      </trkpt>
      <trkpt lat="42.2507650" lon="-8.6816750">
        <ele>154.6</ele>
        <time>2021-05-20T13:09:21Z</time>
      </trkpt>
      <trkpt lat="42.2507670" lon="-8.6816780">
        <ele>154.6</ele>
        <time>2021-05-20T13:09:22Z</time>
      </trkpt>
      <trkpt lat="42.2507680" lon="-8.6816810">
        <ele>154.6</ele>
        <time>2021-05-20T13:09:23Z</time>
      </trkpt>
      <trkpt lat="42.2507690" lon="-8.6816790">
        <ele>154.7</ele>
        <time>2021-05-20T13:09:24Z</time>
      </trkpt>
      <trkpt lat="42.2507710" lon="-8.6816810">
        <ele>154.7</ele>
        <time>2021-05-20T13:09:25Z</time>
      </trkpt>
      <trkpt lat="42.2507720" lon="-8.6816830">
        <ele>154.7</ele>
        <time>2021-05-20T13:09:26Z</time>
      </trkpt>
      <trkpt lat="42.2507700" lon="-8.6816840">
        <ele>154.7</ele>
        <time>2021-05-20T13:09:27Z</time>
      </trkpt>
      <trkpt lat="42.2507730" lon="-8.6816830">
        <ele>154.7</ele>
        <time>2021-05-20T13:09:28Z</time>
      </trkpt>
      <trkpt lat="42.2507740" lon="-8.6816810">
        <ele>154.7</ele>
        <time>2021-05-20T13:09:29Z</time>
      </trkpt>
      <trkpt lat="42.2507750" lon="-8.6816820">
        <ele>154.7</ele>
        <time>2021-05-20T13:09:30Z</time>
      </trkpt>
      <trkpt lat="42.2507750" lon="-8.6816820">
        <ele>154.7</ele>
        <time>2021-05-20T13:09:31Z</time>
      </trkpt>
      <trkpt lat="42.2507770" lon="-8.6816810">
        <ele>154.7</ele>
        <time>2021-05-20T13:09:32Z</time>
      </trkpt>
      <trkpt lat="42.2507770" lon="-8.6816810">
        <ele>154.7</ele>
        <time>2021-05-20T13:09:33Z</time>
      </trkpt>
      <trkpt lat="42.2507770" lon="-8.6816820">
        <ele>154.7</ele>
        <time>2021-05-20T13:09:34Z</time>
      </trkpt>
      <trkpt lat="42.2507780" lon="-8.6816820">
        <ele>154.7</ele>
        <time>2021-05-20T13:09:35Z</time>
      </trkpt>
      <trkpt lat="42.2507800" lon="-8.6816820">
        <ele>154.7</ele>
        <time>2021-05-20T13:09:36Z</time>
      </trkpt>
      <trkpt lat="42.2507810" lon="-8.6816820">
        <ele>154.7</ele>
        <time>2021-05-20T13:09:37Z</time>
      </trkpt>
      <trkpt lat="42.2507780" lon="-8.6816800">
        <ele>154.7</ele>
        <time>2021-05-20T13:09:38Z</time>
      </trkpt>
      <trkpt lat="42.2507790" lon="-8.6816790">
        <ele>154.7</ele>
        <time>2021-05-20T13:09:39Z</time>
      </trkpt>
      <trkpt lat="42.2507790" lon="-8.6816810">
        <ele>154.7</ele>
        <time>2021-05-20T13:09:40Z</time>
      </trkpt>
      <trkpt lat="42.2507800" lon="-8.6816850">
        <ele>154.7</ele>
        <time>2021-05-20T13:09:41Z</time>
      </trkpt>
      <trkpt lat="42.2507790" lon="-8.6816930">
        <ele>154.7</ele>
        <time>2021-05-20T13:09:42Z</time>
      </trkpt>
      <trkpt lat="42.2507770" lon="-8.6816960">
        <ele>154.7</ele>
        <time>2021-05-20T13:09:43Z</time>
      </trkpt>
      <trkpt lat="42.2507790" lon="-8.6816910">
        <ele>154.7</ele>
        <time>2021-05-20T13:09:44Z</time>
      </trkpt>
      <trkpt lat="42.2507780" lon="-8.6816860">
        <ele>154.8</ele>
        <time>2021-05-20T13:09:45Z</time>
      </trkpt>
      <trkpt lat="42.2507770" lon="-8.6816880">
        <ele>154.8</ele>
        <time>2021-05-20T13:09:46Z</time>
      </trkpt>
      <trkpt lat="42.2507720" lon="-8.6816860">
        <ele>154.8</ele>
        <time>2021-05-20T13:09:47Z</time>
      </trkpt>
      <trkpt lat="42.2507740" lon="-8.6816870">
        <ele>154.8</ele>
        <time>2021-05-20T13:09:48Z</time>
      </trkpt>
      <trkpt lat="42.2507730" lon="-8.6816900">
        <ele>154.8</ele>
        <time>2021-05-20T13:09:49Z</time>
      </trkpt>
      <trkpt lat="42.2507720" lon="-8.6816890">
        <ele>154.8</ele>
        <time>2021-05-20T13:09:50Z</time>
      </trkpt>
      <trkpt lat="42.2507730" lon="-8.6816860">
        <ele>154.8</ele>
        <time>2021-05-20T13:09:51Z</time>
      </trkpt>
      <trkpt lat="42.2507730" lon="-8.6816850">
        <ele>154.8</ele>
        <time>2021-05-20T13:09:52Z</time>
      </trkpt>
      <trkpt lat="42.2507730" lon="-8.6816830">
        <ele>154.8</ele>
        <time>2021-05-20T13:09:53Z</time>
      </trkpt>
      <trkpt lat="42.2507740" lon="-8.6816800">
        <ele>154.8</ele>
        <time>2021-05-20T13:09:54Z</time>
      </trkpt>
      <trkpt lat="42.2507740" lon="-8.6816800">
        <ele>154.8</ele>
        <time>2021-05-20T13:09:55Z</time>
      </trkpt>
      <trkpt lat="42.2507730" lon="-8.6816810">
        <ele>154.8</ele>
        <time>2021-05-20T13:09:56Z</time>
      </trkpt>
      <trkpt lat="42.2507720" lon="-8.6816780">
        <ele>154.8</ele>
        <time>2021-05-20T13:09:57Z</time>
      </trkpt>
      <trkpt lat="42.2507700" lon="-8.6816780">
        <ele>154.8</ele>
        <time>2021-05-20T13:09:58Z</time>
      </trkpt>
      <trkpt lat="42.2507680" lon="-8.6816770">
        <ele>154.8</ele>
        <time>2021-05-20T13:09:59Z</time>
      </trkpt>
      <trkpt lat="42.2507670" lon="-8.6816770">
        <ele>154.8</ele>
        <time>2021-05-20T13:10:00Z</time>
      </trkpt>
      <trkpt lat="42.2507650" lon="-8.6816770">
        <ele>154.8</ele>
        <time>2021-05-20T13:10:01Z</time>
      </trkpt>
      <trkpt lat="42.2507640" lon="-8.6816750">
        <ele>154.8</ele>
        <time>2021-05-20T13:10:02Z</time>
      </trkpt>
      <trkpt lat="42.2507700" lon="-8.6816710">
        <ele>154.8</ele>
        <time>2021-05-20T13:10:03Z</time>
      </trkpt>
      <trkpt lat="42.2507700" lon="-8.6816660">
        <ele>154.8</ele>
        <time>2021-05-20T13:10:04Z</time>
      </trkpt>
      <trkpt lat="42.2507710" lon="-8.6816580">
        <ele>154.9</ele>
        <time>2021-05-20T13:10:05Z</time>
      </trkpt>
      <trkpt lat="42.2507710" lon="-8.6816660">
        <ele>154.9</ele>
        <time>2021-05-20T13:10:06Z</time>
      </trkpt>
      <trkpt lat="42.2507680" lon="-8.6816670">
        <ele>154.9</ele>
        <time>2021-05-20T13:10:07Z</time>
      </trkpt>
      <trkpt lat="42.2507670" lon="-8.6816700">
        <ele>154.9</ele>
        <time>2021-05-20T13:10:08Z</time>
      </trkpt>
      <trkpt lat="42.2507690" lon="-8.6816700">
        <ele>154.9</ele>
        <time>2021-05-20T13:10:09Z</time>
      </trkpt>
      <trkpt lat="42.2507660" lon="-8.6816680">
        <ele>154.9</ele>
        <time>2021-05-20T13:10:10Z</time>
      </trkpt>
      <trkpt lat="42.2507620" lon="-8.6816690">
        <ele>154.9</ele>
        <time>2021-05-20T13:10:11Z</time>
      </trkpt>
      <trkpt lat="42.2507610" lon="-8.6816680">
        <ele>154.9</ele>
        <time>2021-05-20T13:10:12Z</time>
      </trkpt>
      <trkpt lat="42.2507600" lon="-8.6816690">
        <ele>154.9</ele>
        <time>2021-05-20T13:10:13Z</time>
      </trkpt>
      <trkpt lat="42.2507580" lon="-8.6816710">
        <ele>154.9</ele>
        <time>2021-05-20T13:10:14Z</time>
      </trkpt>
      <trkpt lat="42.2507570" lon="-8.6816710">
        <ele>154.9</ele>
        <time>2021-05-20T13:10:15Z</time>
      </trkpt>
      <trkpt lat="42.2507570" lon="-8.6816650">
        <ele>154.9</ele>
        <time>2021-05-20T13:10:16Z</time>
      </trkpt>
      <trkpt lat="42.2507570" lon="-8.6816740">
        <ele>154.9</ele>
        <time>2021-05-20T13:10:17Z</time>
      </trkpt>
      <trkpt lat="42.2507570" lon="-8.6816740">
        <ele>154.9</ele>
        <time>2021-05-20T13:10:18Z</time>
      </trkpt>
      <trkpt lat="42.2507610" lon="-8.6816830">
        <ele>155.0</ele>
        <time>2021-05-20T13:10:19Z</time>
      </trkpt>
      <trkpt lat="42.2507610" lon="-8.6816830">
        <ele>155.0</ele>
        <time>2021-05-20T13:10:20Z</time>
      </trkpt>
      <trkpt lat="42.2507560" lon="-8.6816930">
        <ele>155.0</ele>
        <time>2021-05-20T13:10:21Z</time>
      </trkpt>
      <trkpt lat="42.2507560" lon="-8.6816930">
        <ele>155.0</ele>
        <time>2021-05-20T13:10:22Z</time>
      </trkpt>
      <trkpt lat="42.2507550" lon="-8.6816970">
        <ele>155.0</ele>
        <time>2021-05-20T13:10:23Z</time>
      </trkpt>
      <trkpt lat="42.2507550" lon="-8.6816970">
        <ele>155.0</ele>
        <time>2021-05-20T13:10:24Z</time>
      </trkpt>
      <trkpt lat="42.2507570" lon="-8.6816970">
        <ele>155.0</ele>
        <time>2021-05-20T13:10:25Z</time>
      </trkpt>
      <trkpt lat="42.2507540" lon="-8.6816990">
        <ele>155.0</ele>
        <time>2021-05-20T13:10:26Z</time>
      </trkpt>
      <trkpt lat="42.2507540" lon="-8.6816990">
        <ele>155.0</ele>
        <time>2021-05-20T13:10:27Z</time>
      </trkpt>
      <trkpt lat="42.2507570" lon="-8.6816950">
        <ele>155.0</ele>
        <time>2021-05-20T13:10:28Z</time>
      </trkpt>
      <trkpt lat="42.2507570" lon="-8.6816950">
        <ele>155.0</ele>
        <time>2021-05-20T13:10:29Z</time>
      </trkpt>
      <trkpt lat="42.2507600" lon="-8.6816900">
        <ele>155.0</ele>
        <time>2021-05-20T13:10:30Z</time>
      </trkpt>
      <trkpt lat="42.2507620" lon="-8.6816870">
        <ele>155.0</ele>
        <time>2021-05-20T13:10:31Z</time>
      </trkpt>
      <trkpt lat="42.2507620" lon="-8.6816870">
        <ele>155.0</ele>
        <time>2021-05-20T13:10:32Z</time>
      </trkpt>
      <trkpt lat="42.2507620" lon="-8.6816870">
        <ele>155.0</ele>
        <time>2021-05-20T13:10:33Z</time>
      </trkpt>
      <trkpt lat="42.2507660" lon="-8.6816850">
        <ele>155.0</ele>
        <time>2021-05-20T13:10:34Z</time>
      </trkpt>
      <trkpt lat="42.2507660" lon="-8.6816860">
        <ele>155.0</ele>
        <time>2021-05-20T13:10:35Z</time>
      </trkpt>
      <trkpt lat="42.2507690" lon="-8.6816860">
        <ele>155.0</ele>
        <time>2021-05-20T13:10:36Z</time>
      </trkpt>
      <trkpt lat="42.2507690" lon="-8.6816860">
        <ele>155.0</ele>
        <time>2021-05-20T13:10:37Z</time>
      </trkpt>
      <trkpt lat="42.2507690" lon="-8.6816860">
        <ele>155.0</ele>
        <time>2021-05-20T13:10:38Z</time>
      </trkpt>
      <trkpt lat="42.2507720" lon="-8.6816790">
        <ele>155.0</ele>
        <time>2021-05-20T13:10:39Z</time>
      </trkpt>
      <trkpt lat="42.2507770" lon="-8.6816710">
        <ele>155.1</ele>
        <time>2021-05-20T13:10:40Z</time>
      </trkpt>
      <trkpt lat="42.2507720" lon="-8.6816660">
        <ele>155.1</ele>
        <time>2021-05-20T13:10:41Z</time>
      </trkpt>
      <trkpt lat="42.2507740" lon="-8.6816680">
        <ele>155.1</ele>
        <time>2021-05-20T13:10:42Z</time>
      </trkpt>
      <trkpt lat="42.2507760" lon="-8.6816680">
        <ele>155.1</ele>
        <time>2021-05-20T13:10:43Z</time>
      </trkpt>
      <trkpt lat="42.2507750" lon="-8.6816720">
        <ele>155.1</ele>
        <time>2021-05-20T13:10:44Z</time>
      </trkpt>
      <trkpt lat="42.2507730" lon="-8.6816710">
        <ele>155.1</ele>
        <time>2021-05-20T13:10:45Z</time>
      </trkpt>
      <trkpt lat="42.2507640" lon="-8.6816680">
        <ele>155.1</ele>
        <time>2021-05-20T13:10:46Z</time>
      </trkpt>
      <trkpt lat="42.2507640" lon="-8.6816590">
        <ele>155.1</ele>
        <time>2021-05-20T13:10:47Z</time>
      </trkpt>
      <trkpt lat="42.2507590" lon="-8.6816470">
        <ele>155.1</ele>
        <time>2021-05-20T13:10:48Z</time>
      </trkpt>
      <trkpt lat="42.2507580" lon="-8.6816270">
        <ele>155.2</ele>
        <time>2021-05-20T13:10:49Z</time>
      </trkpt>
      <trkpt lat="42.2507700" lon="-8.6816260">
        <ele>155.2</ele>
        <time>2021-05-20T13:10:50Z</time>
      </trkpt>
      <trkpt lat="42.2507720" lon="-8.6816210">
        <ele>155.2</ele>
        <time>2021-05-20T13:10:51Z</time>
      </trkpt>
      <trkpt lat="42.2507740" lon="-8.6816220">
        <ele>155.2</ele>
        <time>2021-05-20T13:10:52Z</time>
      </trkpt>
      <trkpt lat="42.2507750" lon="-8.6816230">
        <ele>155.2</ele>
        <time>2021-05-20T13:10:53Z</time>
      </trkpt>
      <trkpt lat="42.2507730" lon="-8.6816240">
        <ele>155.2</ele>
        <time>2021-05-20T13:10:54Z</time>
      </trkpt>
      <trkpt lat="42.2507720" lon="-8.6816280">
        <ele>155.2</ele>
        <time>2021-05-20T13:10:55Z</time>
      </trkpt>
      <trkpt lat="42.2507730" lon="-8.6816290">
        <ele>155.2</ele>
        <time>2021-05-20T13:10:56Z</time>
      </trkpt>
      <trkpt lat="42.2507730" lon="-8.6816290">
        <ele>155.2</ele>
        <time>2021-05-20T13:10:57Z</time>
      </trkpt>
      <trkpt lat="42.2507720" lon="-8.6816290">
        <ele>155.2</ele>
        <time>2021-05-20T13:10:58Z</time>
      </trkpt>
      <trkpt lat="42.2507790" lon="-8.6816180">
        <ele>155.2</ele>
        <time>2021-05-20T13:10:59Z</time>
      </trkpt>
      <trkpt lat="42.2507790" lon="-8.6816040">
        <ele>155.3</ele>
        <time>2021-05-20T13:11:00Z</time>
      </trkpt>
      <trkpt lat="42.2507860" lon="-8.6815920">
        <ele>155.3</ele>
        <time>2021-05-20T13:11:01Z</time>
      </trkpt>
      <trkpt lat="42.2507860" lon="-8.6815810">
        <ele>155.3</ele>
        <time>2021-05-20T13:11:02Z</time>
      </trkpt>
      <trkpt lat="42.2507920" lon="-8.6815640">
        <ele>155.3</ele>
        <time>2021-05-20T13:11:03Z</time>
      </trkpt>
      <trkpt lat="42.2508030" lon="-8.6815460">
        <ele>155.4</ele>
        <time>2021-05-20T13:11:04Z</time>
      </trkpt>
      <trkpt lat="42.2508060" lon="-8.6815380">
        <ele>155.4</ele>
        <time>2021-05-20T13:11:05Z</time>
      </trkpt>
      <trkpt lat="42.2508100" lon="-8.6815290">
        <ele>155.4</ele>
        <time>2021-05-20T13:11:06Z</time>
      </trkpt>
      <trkpt lat="42.2508130" lon="-8.6815210">
        <ele>155.4</ele>
        <time>2021-05-20T13:11:07Z</time>
      </trkpt>
      <trkpt lat="42.2508150" lon="-8.6815050">
        <ele>155.4</ele>
        <time>2021-05-20T13:11:08Z</time>
      </trkpt>
      <trkpt lat="42.2508170" lon="-8.6814990">
        <ele>155.4</ele>
        <time>2021-05-20T13:11:09Z</time>
      </trkpt>
      <trkpt lat="42.2508260" lon="-8.6814810">
        <ele>155.5</ele>
        <time>2021-05-20T13:11:10Z</time>
      </trkpt>
      <trkpt lat="42.2508350" lon="-8.6814610">
        <ele>155.5</ele>
        <time>2021-05-20T13:11:11Z</time>
      </trkpt>
      <trkpt lat="42.2508370" lon="-8.6814390">
        <ele>155.5</ele>
        <time>2021-05-20T13:11:12Z</time>
      </trkpt>
      <trkpt lat="42.2508480" lon="-8.6814170">
        <ele>155.6</ele>
        <time>2021-05-20T13:11:13Z</time>
      </trkpt>
      <trkpt lat="42.2508530" lon="-8.6814050">
        <ele>155.6</ele>
        <time>2021-05-20T13:11:14Z</time>
      </trkpt>
      <trkpt lat="42.2508590" lon="-8.6813930">
        <ele>155.6</ele>
        <time>2021-05-20T13:11:15Z</time>
      </trkpt>
      <trkpt lat="42.2508580" lon="-8.6813800">
        <ele>155.6</ele>
        <time>2021-05-20T13:11:16Z</time>
      </trkpt>
      <trkpt lat="42.2508610" lon="-8.6813630">
        <ele>155.7</ele>
        <time>2021-05-20T13:11:17Z</time>
      </trkpt>
      <trkpt lat="42.2508660" lon="-8.6813490">
        <ele>155.7</ele>
        <time>2021-05-20T13:11:18Z</time>
      </trkpt>
      <trkpt lat="42.2508760" lon="-8.6813240">
        <ele>155.7</ele>
        <time>2021-05-20T13:11:19Z</time>
      </trkpt>
      <trkpt lat="42.2508820" lon="-8.6813130">
        <ele>155.7</ele>
        <time>2021-05-20T13:11:20Z</time>
      </trkpt>
      <trkpt lat="42.2508870" lon="-8.6813010">
        <ele>155.8</ele>
        <time>2021-05-20T13:11:21Z</time>
      </trkpt>
      <trkpt lat="42.2508900" lon="-8.6812860">
        <ele>155.8</ele>
        <time>2021-05-20T13:11:22Z</time>
      </trkpt>
      <trkpt lat="42.2508950" lon="-8.6812740">
        <ele>155.8</ele>
        <time>2021-05-20T13:11:23Z</time>
      </trkpt>
      <trkpt lat="42.2509010" lon="-8.6812590">
        <ele>155.8</ele>
        <time>2021-05-20T13:11:24Z</time>
      </trkpt>
      <trkpt lat="42.2509080" lon="-8.6812400">
        <ele>155.9</ele>
        <time>2021-05-20T13:11:25Z</time>
      </trkpt>
      <trkpt lat="42.2509100" lon="-8.6812250">
        <ele>155.9</ele>
        <time>2021-05-20T13:11:26Z</time>
      </trkpt>
      <trkpt lat="42.2509190" lon="-8.6811970">
        <ele>155.9</ele>
        <time>2021-05-20T13:11:27Z</time>
      </trkpt>
      <trkpt lat="42.2509230" lon="-8.6811850">
        <ele>156.0</ele>
        <time>2021-05-20T13:11:28Z</time>
      </trkpt>
      <trkpt lat="42.2509280" lon="-8.6811740">
        <ele>156.0</ele>
        <time>2021-05-20T13:11:29Z</time>
      </trkpt>
      <trkpt lat="42.2509430" lon="-8.6811610">
        <ele>156.0</ele>
        <time>2021-05-20T13:11:30Z</time>
      </trkpt>
      <trkpt lat="42.2509490" lon="-8.6811420">
        <ele>156.0</ele>
        <time>2021-05-20T13:11:31Z</time>
      </trkpt>
      <trkpt lat="42.2509580" lon="-8.6811280">
        <ele>156.1</ele>
        <time>2021-05-20T13:11:32Z</time>
      </trkpt>
      <trkpt lat="42.2509630" lon="-8.6811190">
        <ele>156.1</ele>
        <time>2021-05-20T13:11:33Z</time>
      </trkpt>
      <trkpt lat="42.2509670" lon="-8.6811100">
        <ele>156.1</ele>
        <time>2021-05-20T13:11:34Z</time>
      </trkpt>
      <trkpt lat="42.2509710" lon="-8.6811010">
        <ele>156.1</ele>
        <time>2021-05-20T13:11:35Z</time>
      </trkpt>
      <trkpt lat="42.2509640" lon="-8.6810870">
        <ele>156.1</ele>
        <time>2021-05-20T13:11:36Z</time>
      </trkpt>
      <trkpt lat="42.2509710" lon="-8.6810660">
        <ele>156.2</ele>
        <time>2021-05-20T13:11:37Z</time>
      </trkpt>
      <trkpt lat="42.2509760" lon="-8.6810530">
        <ele>156.2</ele>
        <time>2021-05-20T13:11:38Z</time>
      </trkpt>
      <trkpt lat="42.2509780" lon="-8.6810330">
        <ele>156.2</ele>
        <time>2021-05-20T13:11:39Z</time>
      </trkpt>
      <trkpt lat="42.2509900" lon="-8.6810160">
        <ele>156.2</ele>
        <time>2021-05-20T13:11:40Z</time>
      </trkpt>
      <trkpt lat="42.2509950" lon="-8.6810070">
        <ele>156.3</ele>
        <time>2021-05-20T13:11:41Z</time>
      </trkpt>
      <trkpt lat="42.2510020" lon="-8.6809940">
        <ele>156.3</ele>
        <time>2021-05-20T13:11:42Z</time>
      </trkpt>
      <trkpt lat="42.2510090" lon="-8.6809820">
        <ele>156.3</ele>
        <time>2021-05-20T13:11:43Z</time>
      </trkpt>
      <trkpt lat="42.2510170" lon="-8.6809680">
        <ele>156.3</ele>
        <time>2021-05-20T13:11:44Z</time>
      </trkpt>
      <trkpt lat="42.2510230" lon="-8.6809610">
        <ele>156.3</ele>
        <time>2021-05-20T13:11:45Z</time>
      </trkpt>
      <trkpt lat="42.2510290" lon="-8.6809430">
        <ele>156.4</ele>
        <time>2021-05-20T13:11:46Z</time>
      </trkpt>
      <trkpt lat="42.2510410" lon="-8.6809230">
        <ele>156.4</ele>
        <time>2021-05-20T13:11:47Z</time>
      </trkpt>
      <trkpt lat="42.2510490" lon="-8.6809190">
        <ele>156.4</ele>
        <time>2021-05-20T13:11:48Z</time>
      </trkpt>
      <trkpt lat="42.2510590" lon="-8.6809000">
        <ele>156.5</ele>
        <time>2021-05-20T13:11:49Z</time>
      </trkpt>
      <trkpt lat="42.2510660" lon="-8.6808860">
        <ele>156.5</ele>
        <time>2021-05-20T13:11:50Z</time>
      </trkpt>
      <trkpt lat="42.2510740" lon="-8.6808700">
        <ele>156.5</ele>
        <time>2021-05-20T13:11:51Z</time>
      </trkpt>
      <trkpt lat="42.2510810" lon="-8.6808610">
        <ele>156.5</ele>
        <time>2021-05-20T13:11:52Z</time>
      </trkpt>
      <trkpt lat="42.2510860" lon="-8.6808610">
        <ele>156.5</ele>
        <time>2021-05-20T13:11:53Z</time>
      </trkpt>
      <trkpt lat="42.2510970" lon="-8.6808470">
        <ele>156.6</ele>
        <time>2021-05-20T13:11:54Z</time>
      </trkpt>
      <trkpt lat="42.2511120" lon="-8.6808350">
        <ele>156.6</ele>
        <time>2021-05-20T13:11:55Z</time>
      </trkpt>
      <trkpt lat="42.2511140" lon="-8.6808210">
        <ele>156.6</ele>
        <time>2021-05-20T13:11:56Z</time>
      </trkpt>
      <trkpt lat="42.2511260" lon="-8.6808100">
        <ele>156.6</ele>
        <time>2021-05-20T13:11:57Z</time>
      </trkpt>
      <trkpt lat="42.2511360" lon="-8.6808020">
        <ele>156.7</ele>
        <time>2021-05-20T13:11:58Z</time>
      </trkpt>
      <trkpt lat="42.2511460" lon="-8.6807900">
        <ele>156.7</ele>
        <time>2021-05-20T13:11:59Z</time>
      </trkpt>
      <trkpt lat="42.2511480" lon="-8.6807810">
        <ele>156.7</ele>
        <time>2021-05-20T13:12:00Z</time>
      </trkpt>
      <trkpt lat="42.2511610" lon="-8.6807700">
        <ele>156.7</ele>
        <time>2021-05-20T13:12:01Z</time>
      </trkpt>
      <trkpt lat="42.2511820" lon="-8.6807570">
        <ele>156.8</ele>
        <time>2021-05-20T13:12:02Z</time>
      </trkpt>
      <trkpt lat="42.2511890" lon="-8.6807470">
        <ele>156.8</ele>
        <time>2021-05-20T13:12:03Z</time>
      </trkpt>
      <trkpt lat="42.2511960" lon="-8.6807370">
        <ele>156.8</ele>
        <time>2021-05-20T13:12:04Z</time>
      </trkpt>
      <trkpt lat="42.2512150" lon="-8.6807210">
        <ele>156.8</ele>
        <time>2021-05-20T13:12:06Z</time>
      </trkpt>
      <trkpt lat="42.2512240" lon="-8.6807150">
        <ele>156.8</ele>
        <time>2021-05-20T13:12:07Z</time>
      </trkpt>
      <trkpt lat="42.2512330" lon="-8.6807100">
        <ele>156.8</ele>
        <time>2021-05-20T13:12:08Z</time>
      </trkpt>
      <trkpt lat="42.2512470" lon="-8.6806910">
        <ele>156.9</ele>
        <time>2021-05-20T13:12:09Z</time>
      </trkpt>
      <trkpt lat="42.2512530" lon="-8.6806820">
        <ele>156.9</ele>
        <time>2021-05-20T13:12:10Z</time>
      </trkpt>
      <trkpt lat="42.2512600" lon="-8.6806730">
        <ele>156.9</ele>
        <time>2021-05-20T13:12:11Z</time>
      </trkpt>
      <trkpt lat="42.2512720" lon="-8.6806660">
        <ele>156.9</ele>
        <time>2021-05-20T13:12:12Z</time>
      </trkpt>
      <trkpt lat="42.2512800" lon="-8.6806530">
        <ele>156.9</ele>
        <time>2021-05-20T13:12:13Z</time>
      </trkpt>
      <trkpt lat="42.2512900" lon="-8.6806470">
        <ele>156.9</ele>
        <time>2021-05-20T13:12:14Z</time>
      </trkpt>
      <trkpt lat="42.2512990" lon="-8.6806390">
        <ele>156.9</ele>
        <time>2021-05-20T13:12:15Z</time>
      </trkpt>
      <trkpt lat="42.2513050" lon="-8.6806340">
        <ele>156.9</ele>
        <time>2021-05-20T13:12:16Z</time>
      </trkpt>
      <trkpt lat="42.2513140" lon="-8.6806270">
        <ele>156.9</ele>
        <time>2021-05-20T13:12:17Z</time>
      </trkpt>
      <trkpt lat="42.2513350" lon="-8.6806130">
        <ele>156.9</ele>
        <time>2021-05-20T13:12:18Z</time>
      </trkpt>
      <trkpt lat="42.2513400" lon="-8.6806060">
        <ele>157.0</ele>
        <time>2021-05-20T13:12:19Z</time>
      </trkpt>
      <trkpt lat="42.2513460" lon="-8.6805990">
        <ele>157.0</ele>
        <time>2021-05-20T13:12:20Z</time>
      </trkpt>
      <trkpt lat="42.2513530" lon="-8.6805890">
        <ele>157.0</ele>
        <time>2021-05-20T13:12:21Z</time>
      </trkpt>
      <trkpt lat="42.2513720" lon="-8.6805850">
        <ele>157.0</ele>
        <time>2021-05-20T13:12:22Z</time>
      </trkpt>
      <trkpt lat="42.2513870" lon="-8.6805630">
        <ele>157.0</ele>
        <time>2021-05-20T13:12:23Z</time>
      </trkpt>
      <trkpt lat="42.2513900" lon="-8.6805510">
        <ele>157.0</ele>
        <time>2021-05-20T13:12:24Z</time>
      </trkpt>
      <trkpt lat="42.2513950" lon="-8.6805380">
        <ele>157.0</ele>
        <time>2021-05-20T13:12:25Z</time>
      </trkpt>
      <trkpt lat="42.2514020" lon="-8.6805280">
        <ele>157.0</ele>
        <time>2021-05-20T13:12:26Z</time>
      </trkpt>
      <trkpt lat="42.2514140" lon="-8.6805230">
        <ele>157.0</ele>
        <time>2021-05-20T13:12:27Z</time>
      </trkpt>
      <trkpt lat="42.2514290" lon="-8.6805110">
        <ele>157.0</ele>
        <time>2021-05-20T13:12:28Z</time>
      </trkpt>
      <trkpt lat="42.2514340" lon="-8.6805020">
        <ele>157.0</ele>
        <time>2021-05-20T13:12:29Z</time>
      </trkpt>
      <trkpt lat="42.2514430" lon="-8.6804990">
        <ele>157.0</ele>
        <time>2021-05-20T13:12:30Z</time>
      </trkpt>
      <trkpt lat="42.2514630" lon="-8.6804870">
        <ele>157.0</ele>
        <time>2021-05-20T13:12:31Z</time>
      </trkpt>
      <trkpt lat="42.2514700" lon="-8.6804830">
        <ele>157.0</ele>
        <time>2021-05-20T13:12:32Z</time>
      </trkpt>
      <trkpt lat="42.2514770" lon="-8.6804800">
        <ele>157.0</ele>
        <time>2021-05-20T13:12:33Z</time>
      </trkpt>
      <trkpt lat="42.2514990" lon="-8.6804710">
        <ele>157.0</ele>
        <time>2021-05-20T13:12:34Z</time>
      </trkpt>
      <trkpt lat="42.2515050" lon="-8.6804670">
        <ele>157.0</ele>
        <time>2021-05-20T13:12:35Z</time>
      </trkpt>
      <trkpt lat="42.2515120" lon="-8.6804630">
        <ele>157.0</ele>
        <time>2021-05-20T13:12:36Z</time>
      </trkpt>
      <trkpt lat="42.2515230" lon="-8.6804610">
        <ele>157.0</ele>
        <time>2021-05-20T13:12:37Z</time>
      </trkpt>
      <trkpt lat="42.2515280" lon="-8.6804560">
        <ele>157.0</ele>
        <time>2021-05-20T13:12:38Z</time>
      </trkpt>
      <trkpt lat="42.2515330" lon="-8.6804450">
        <ele>157.0</ele>
        <time>2021-05-20T13:12:39Z</time>
      </trkpt>
      <trkpt lat="42.2515390" lon="-8.6804440">
        <ele>157.0</ele>
        <time>2021-05-20T13:12:40Z</time>
      </trkpt>
      <trkpt lat="42.2515440" lon="-8.6804430">
        <ele>157.0</ele>
        <time>2021-05-20T13:12:41Z</time>
      </trkpt>
      <trkpt lat="42.2515580" lon="-8.6804390">
        <ele>157.0</ele>
        <time>2021-05-20T13:12:42Z</time>
      </trkpt>
      <trkpt lat="42.2515700" lon="-8.6804360">
        <ele>157.1</ele>
        <time>2021-05-20T13:12:43Z</time>
      </trkpt>
      <trkpt lat="42.2515820" lon="-8.6804220">
        <ele>157.1</ele>
        <time>2021-05-20T13:12:44Z</time>
      </trkpt>
      <trkpt lat="42.2515950" lon="-8.6804180">
        <ele>157.1</ele>
        <time>2021-05-20T13:12:45Z</time>
      </trkpt>
      <trkpt lat="42.2516110" lon="-8.6803990">
        <ele>157.1</ele>
        <time>2021-05-20T13:12:46Z</time>
      </trkpt>
      <trkpt lat="42.2516170" lon="-8.6803920">
        <ele>157.1</ele>
        <time>2021-05-20T13:12:47Z</time>
      </trkpt>
      <trkpt lat="42.2516230" lon="-8.6803860">
        <ele>157.1</ele>
        <time>2021-05-20T13:12:48Z</time>
      </trkpt>
      <trkpt lat="42.2516390" lon="-8.6803860">
        <ele>157.1</ele>
        <time>2021-05-20T13:12:49Z</time>
      </trkpt>
      <trkpt lat="42.2516500" lon="-8.6803740">
        <ele>157.1</ele>
        <time>2021-05-20T13:12:50Z</time>
      </trkpt>
      <trkpt lat="42.2516620" lon="-8.6803650">
        <ele>157.1</ele>
        <time>2021-05-20T13:12:51Z</time>
      </trkpt>
      <trkpt lat="42.2516690" lon="-8.6803570">
        <ele>157.1</ele>
        <time>2021-05-20T13:12:52Z</time>
      </trkpt>
      <trkpt lat="42.2516820" lon="-8.6803500">
        <ele>157.1</ele>
        <time>2021-05-20T13:12:53Z</time>
      </trkpt>
      <trkpt lat="42.2516880" lon="-8.6803440">
        <ele>157.1</ele>
        <time>2021-05-20T13:12:54Z</time>
      </trkpt>
      <trkpt lat="42.2516930" lon="-8.6803380">
        <ele>157.1</ele>
        <time>2021-05-20T13:12:55Z</time>
      </trkpt>
      <trkpt lat="42.2517090" lon="-8.6803240">
        <ele>157.1</ele>
        <time>2021-05-20T13:12:56Z</time>
      </trkpt>
      <trkpt lat="42.2517270" lon="-8.6803160">
        <ele>157.1</ele>
        <time>2021-05-20T13:12:57Z</time>
      </trkpt>
      <trkpt lat="42.2517370" lon="-8.6803110">
        <ele>157.1</ele>
        <time>2021-05-20T13:12:58Z</time>
      </trkpt>
      <trkpt lat="42.2517460" lon="-8.6803070">
        <ele>157.1</ele>
        <time>2021-05-20T13:12:59Z</time>
      </trkpt>
      <trkpt lat="42.2517490" lon="-8.6802960">
        <ele>157.1</ele>
        <time>2021-05-20T13:13:00Z</time>
      </trkpt>
      <trkpt lat="42.2517580" lon="-8.6802870">
        <ele>157.1</ele>
        <time>2021-05-20T13:13:01Z</time>
      </trkpt>
      <trkpt lat="42.2517640" lon="-8.6802750">
        <ele>157.1</ele>
        <time>2021-05-20T13:13:02Z</time>
      </trkpt>
      <trkpt lat="42.2517790" lon="-8.6802670">
        <ele>157.1</ele>
        <time>2021-05-20T13:13:03Z</time>
      </trkpt>
      <trkpt lat="42.2517900" lon="-8.6802510">
        <ele>157.1</ele>
        <time>2021-05-20T13:13:04Z</time>
      </trkpt>
      <trkpt lat="42.2518100" lon="-8.6802330">
        <ele>157.1</ele>
        <time>2021-05-20T13:13:05Z</time>
      </trkpt>
      <trkpt lat="42.2518150" lon="-8.6802260">
        <ele>157.1</ele>
        <time>2021-05-20T13:13:06Z</time>
      </trkpt>
      <trkpt lat="42.2518200" lon="-8.6802200">
        <ele>157.1</ele>
        <time>2021-05-20T13:13:07Z</time>
      </trkpt>
      <trkpt lat="42.2518290" lon="-8.6802100">
        <ele>157.1</ele>
        <time>2021-05-20T13:13:08Z</time>
      </trkpt>
      <trkpt lat="42.2518410" lon="-8.6802050">
        <ele>157.1</ele>
        <time>2021-05-20T13:13:09Z</time>
      </trkpt>
      <trkpt lat="42.2518500" lon="-8.6801960">
        <ele>157.1</ele>
        <time>2021-05-20T13:13:10Z</time>
      </trkpt>
      <trkpt lat="42.2518690" lon="-8.6801780">
        <ele>157.1</ele>
        <time>2021-05-20T13:13:11Z</time>
      </trkpt>
      <trkpt lat="42.2518730" lon="-8.6801700">
        <ele>157.1</ele>
        <time>2021-05-20T13:13:12Z</time>
      </trkpt>
      <trkpt lat="42.2518780" lon="-8.6801620">
        <ele>157.1</ele>
        <time>2021-05-20T13:13:13Z</time>
      </trkpt>
      <trkpt lat="42.2518880" lon="-8.6801590">
        <ele>157.0</ele>
        <time>2021-05-20T13:13:14Z</time>
      </trkpt>
      <trkpt lat="42.2519020" lon="-8.6801510">
        <ele>157.0</ele>
        <time>2021-05-20T13:13:15Z</time>
      </trkpt>
      <trkpt lat="42.2519130" lon="-8.6801490">
        <ele>157.0</ele>
        <time>2021-05-20T13:13:16Z</time>
      </trkpt>
      <trkpt lat="42.2519160" lon="-8.6801460">
        <ele>157.0</ele>
        <time>2021-05-20T13:13:17Z</time>
      </trkpt>
      <trkpt lat="42.2519140" lon="-8.6801460">
        <ele>157.0</ele>
        <time>2021-05-20T13:13:18Z</time>
      </trkpt>
      <trkpt lat="42.2519080" lon="-8.6801460">
        <ele>157.0</ele>
        <time>2021-05-20T13:13:19Z</time>
      </trkpt>
      <trkpt lat="42.2519060" lon="-8.6801440">
        <ele>157.0</ele>
        <time>2021-05-20T13:13:20Z</time>
      </trkpt>
      <trkpt lat="42.2519070" lon="-8.6801410">
        <ele>157.0</ele>
        <time>2021-05-20T13:13:21Z</time>
      </trkpt>
      <trkpt lat="42.2519100" lon="-8.6801410">
        <ele>157.0</ele>
        <time>2021-05-20T13:13:22Z</time>
      </trkpt>
      <trkpt lat="42.2519130" lon="-8.6801390">
        <ele>157.0</ele>
        <time>2021-05-20T13:13:23Z</time>
      </trkpt>
      <trkpt lat="42.2519220" lon="-8.6801330">
        <ele>157.0</ele>
        <time>2021-05-20T13:13:24Z</time>
      </trkpt>
      <trkpt lat="42.2519390" lon="-8.6801300">
        <ele>157.0</ele>
        <time>2021-05-20T13:13:25Z</time>
      </trkpt>
      <trkpt lat="42.2519480" lon="-8.6801230">
        <ele>157.0</ele>
        <time>2021-05-20T13:13:26Z</time>
      </trkpt>
      <trkpt lat="42.2519560" lon="-8.6801160">
        <ele>157.0</ele>
        <time>2021-05-20T13:13:27Z</time>
      </trkpt>
      <trkpt lat="42.2519650" lon="-8.6801100">
        <ele>157.0</ele>
        <time>2021-05-20T13:13:28Z</time>
      </trkpt>
      <trkpt lat="42.2519860" lon="-8.6800950">
        <ele>156.9</ele>
        <time>2021-05-20T13:13:29Z</time>
      </trkpt>
      <trkpt lat="42.2519940" lon="-8.6800910">
        <ele>156.9</ele>
        <time>2021-05-20T13:13:30Z</time>
      </trkpt>
      <trkpt lat="42.2520030" lon="-8.6800860">
        <ele>156.9</ele>
        <time>2021-05-20T13:13:31Z</time>
      </trkpt>
      <trkpt lat="42.2520120" lon="-8.6800780">
        <ele>156.9</ele>
        <time>2021-05-20T13:13:32Z</time>
      </trkpt>
      <trkpt lat="42.2520220" lon="-8.6800720">
        <ele>156.9</ele>
        <time>2021-05-20T13:13:33Z</time>
      </trkpt>
      <trkpt lat="42.2520330" lon="-8.6800660">
        <ele>156.9</ele>
        <time>2021-05-20T13:13:34Z</time>
      </trkpt>
      <trkpt lat="42.2520520" lon="-8.6800490">
        <ele>156.9</ele>
        <time>2021-05-20T13:13:35Z</time>
      </trkpt>
      <trkpt lat="42.2520590" lon="-8.6800440">
        <ele>156.9</ele>
        <time>2021-05-20T13:13:36Z</time>
      </trkpt>
      <trkpt lat="42.2520650" lon="-8.6800390">
        <ele>156.9</ele>
        <time>2021-05-20T13:13:37Z</time>
      </trkpt>
      <trkpt lat="42.2520690" lon="-8.6800360">
        <ele>156.9</ele>
        <time>2021-05-20T13:13:38Z</time>
      </trkpt>
      <trkpt lat="42.2520880" lon="-8.6800190">
        <ele>156.8</ele>
        <time>2021-05-20T13:13:39Z</time>
      </trkpt>
      <trkpt lat="42.2520910" lon="-8.6800110">
        <ele>156.8</ele>
        <time>2021-05-20T13:13:40Z</time>
      </trkpt>
      <trkpt lat="42.2520960" lon="-8.6800020">
        <ele>156.8</ele>
        <time>2021-05-20T13:13:41Z</time>
      </trkpt>
      <trkpt lat="42.2520970" lon="-8.6800000">
        <ele>156.8</ele>
        <time>2021-05-20T13:13:42Z</time>
      </trkpt>
      <trkpt lat="42.2521110" lon="-8.6799880">
        <ele>156.8</ele>
        <time>2021-05-20T13:13:43Z</time>
      </trkpt>
      <trkpt lat="42.2521290" lon="-8.6799700">
        <ele>156.8</ele>
        <time>2021-05-20T13:13:44Z</time>
      </trkpt>
      <trkpt lat="42.2521350" lon="-8.6799650">
        <ele>156.8</ele>
        <time>2021-05-20T13:13:45Z</time>
      </trkpt>
      <trkpt lat="42.2521410" lon="-8.6799600">
        <ele>156.8</ele>
        <time>2021-05-20T13:13:46Z</time>
      </trkpt>
      <trkpt lat="42.2521630" lon="-8.6799480">
        <ele>156.7</ele>
        <time>2021-05-20T13:13:47Z</time>
      </trkpt>
      <trkpt lat="42.2521710" lon="-8.6799450">
        <ele>156.7</ele>
        <time>2021-05-20T13:13:48Z</time>
      </trkpt>
      <trkpt lat="42.2521790" lon="-8.6799420">
        <ele>156.7</ele>
        <time>2021-05-20T13:13:49Z</time>
      </trkpt>
      <trkpt lat="42.2522000" lon="-8.6799280">
        <ele>156.7</ele>
        <time>2021-05-20T13:13:50Z</time>
      </trkpt>
      <trkpt lat="42.2522090" lon="-8.6799240">
        <ele>156.7</ele>
        <time>2021-05-20T13:13:51Z</time>
      </trkpt>
      <trkpt lat="42.2522180" lon="-8.6799190">
        <ele>156.7</ele>
        <time>2021-05-20T13:13:52Z</time>
      </trkpt>
      <trkpt lat="42.2522270" lon="-8.6799010">
        <ele>156.7</ele>
        <time>2021-05-20T13:13:53Z</time>
      </trkpt>
      <trkpt lat="42.2522410" lon="-8.6798930">
        <ele>156.7</ele>
        <time>2021-05-20T13:13:54Z</time>
      </trkpt>
      <trkpt lat="42.2522630" lon="-8.6798740">
        <ele>156.7</ele>
        <time>2021-05-20T13:13:55Z</time>
      </trkpt>
      <trkpt lat="42.2522710" lon="-8.6798670">
        <ele>156.7</ele>
        <time>2021-05-20T13:13:56Z</time>
      </trkpt>
      <trkpt lat="42.2522790" lon="-8.6798590">
        <ele>156.7</ele>
        <time>2021-05-20T13:13:57Z</time>
      </trkpt>
      <trkpt lat="42.2522920" lon="-8.6798450">
        <ele>156.7</ele>
        <time>2021-05-20T13:13:58Z</time>
      </trkpt>
      <trkpt lat="42.2523040" lon="-8.6798390">
        <ele>156.7</ele>
        <time>2021-05-20T13:13:59Z</time>
      </trkpt>
      <trkpt lat="42.2523240" lon="-8.6798240">
        <ele>156.7</ele>
        <time>2021-05-20T13:14:00Z</time>
      </trkpt>
      <trkpt lat="42.2523310" lon="-8.6798200">
        <ele>156.7</ele>
        <time>2021-05-20T13:14:01Z</time>
      </trkpt>
      <trkpt lat="42.2523380" lon="-8.6798160">
        <ele>156.7</ele>
        <time>2021-05-20T13:14:02Z</time>
      </trkpt>
      <trkpt lat="42.2523440" lon="-8.6798100">
        <ele>156.7</ele>
        <time>2021-05-20T13:14:03Z</time>
      </trkpt>
      <trkpt lat="42.2523510" lon="-8.6798000">
        <ele>156.7</ele>
        <time>2021-05-20T13:14:04Z</time>
      </trkpt>
      <trkpt lat="42.2523600" lon="-8.6797920">
        <ele>156.7</ele>
        <time>2021-05-20T13:14:05Z</time>
      </trkpt>
      <trkpt lat="42.2523770" lon="-8.6797700">
        <ele>156.7</ele>
        <time>2021-05-20T13:14:06Z</time>
      </trkpt>
      <trkpt lat="42.2523850" lon="-8.6797640">
        <ele>156.7</ele>
        <time>2021-05-20T13:14:07Z</time>
      </trkpt>
      <trkpt lat="42.2523930" lon="-8.6797590">
        <ele>156.7</ele>
        <time>2021-05-20T13:14:08Z</time>
      </trkpt>
      <trkpt lat="42.2524100" lon="-8.6797610">
        <ele>156.7</ele>
        <time>2021-05-20T13:14:09Z</time>
      </trkpt>
      <trkpt lat="42.2524140" lon="-8.6797500">
        <ele>156.7</ele>
        <time>2021-05-20T13:14:10Z</time>
      </trkpt>
      <trkpt lat="42.2524220" lon="-8.6797420">
        <ele>156.7</ele>
        <time>2021-05-20T13:14:11Z</time>
      </trkpt>
      <trkpt lat="42.2524210" lon="-8.6797300">
        <ele>156.7</ele>
        <time>2021-05-20T13:14:12Z</time>
      </trkpt>
      <trkpt lat="42.2524280" lon="-8.6797260">
        <ele>156.7</ele>
        <time>2021-05-20T13:14:14Z</time>
      </trkpt>
      <trkpt lat="42.2524340" lon="-8.6797160">
        <ele>156.7</ele>
        <time>2021-05-20T13:14:15Z</time>
      </trkpt>
      <trkpt lat="42.2524400" lon="-8.6797110">
        <ele>156.7</ele>
        <time>2021-05-20T13:14:16Z</time>
      </trkpt>
      <trkpt lat="42.2524490" lon="-8.6797090">
        <ele>156.7</ele>
        <time>2021-05-20T13:14:17Z</time>
      </trkpt>
      <trkpt lat="42.2524640" lon="-8.6796980">
        <ele>156.7</ele>
        <time>2021-05-20T13:14:18Z</time>
      </trkpt>
      <trkpt lat="42.2524700" lon="-8.6796900">
        <ele>156.7</ele>
        <time>2021-05-20T13:14:19Z</time>
      </trkpt>
      <trkpt lat="42.2524810" lon="-8.6796830">
        <ele>156.7</ele>
        <time>2021-05-20T13:14:20Z</time>
      </trkpt>
      <trkpt lat="42.2524970" lon="-8.6796800">
        <ele>156.7</ele>
        <time>2021-05-20T13:14:21Z</time>
      </trkpt>
      <trkpt lat="42.2525090" lon="-8.6796520">
        <ele>156.7</ele>
        <time>2021-05-20T13:14:22Z</time>
      </trkpt>
      <trkpt lat="42.2525120" lon="-8.6796430">
        <ele>156.7</ele>
        <time>2021-05-20T13:14:23Z</time>
      </trkpt>
      <trkpt lat="42.2525160" lon="-8.6796330">
        <ele>156.7</ele>
        <time>2021-05-20T13:14:24Z</time>
      </trkpt>
      <trkpt lat="42.2525240" lon="-8.6796230">
        <ele>156.7</ele>
        <time>2021-05-20T13:14:25Z</time>
      </trkpt>
      <trkpt lat="42.2525330" lon="-8.6796170">
        <ele>156.7</ele>
        <time>2021-05-20T13:14:26Z</time>
      </trkpt>
      <trkpt lat="42.2525410" lon="-8.6796030">
        <ele>156.7</ele>
        <time>2021-05-20T13:14:27Z</time>
      </trkpt>
      <trkpt lat="42.2525580" lon="-8.6795820">
        <ele>156.7</ele>
        <time>2021-05-20T13:14:28Z</time>
      </trkpt>
      <trkpt lat="42.2525690" lon="-8.6795700">
        <ele>156.7</ele>
        <time>2021-05-20T13:14:29Z</time>
      </trkpt>
      <trkpt lat="42.2525750" lon="-8.6795660">
        <ele>156.7</ele>
        <time>2021-05-20T13:14:30Z</time>
      </trkpt>
      <trkpt lat="42.2525820" lon="-8.6795540">
        <ele>156.7</ele>
        <time>2021-05-20T13:14:31Z</time>
      </trkpt>
      <trkpt lat="42.2525900" lon="-8.6795460">
        <ele>156.7</ele>
        <time>2021-05-20T13:14:32Z</time>
      </trkpt>
      <trkpt lat="42.2525940" lon="-8.6795330">
        <ele>156.8</ele>
        <time>2021-05-20T13:14:33Z</time>
      </trkpt>
      <trkpt lat="42.2526020" lon="-8.6795300">
        <ele>156.8</ele>
        <time>2021-05-20T13:14:34Z</time>
      </trkpt>
      <trkpt lat="42.2526040" lon="-8.6795150">
        <ele>156.8</ele>
        <time>2021-05-20T13:14:35Z</time>
      </trkpt>
      <trkpt lat="42.2526210" lon="-8.6794960">
        <ele>156.8</ele>
        <time>2021-05-20T13:14:36Z</time>
      </trkpt>
      <trkpt lat="42.2526280" lon="-8.6794880">
        <ele>156.8</ele>
        <time>2021-05-20T13:14:37Z</time>
      </trkpt>
      <trkpt lat="42.2526350" lon="-8.6794810">
        <ele>156.8</ele>
        <time>2021-05-20T13:14:38Z</time>
      </trkpt>
      <trkpt lat="42.2526490" lon="-8.6794650">
        <ele>156.8</ele>
        <time>2021-05-20T13:14:39Z</time>
      </trkpt>
      <trkpt lat="42.2526550" lon="-8.6794540">
        <ele>156.8</ele>
        <time>2021-05-20T13:14:40Z</time>
      </trkpt>
      <trkpt lat="42.2526670" lon="-8.6794330">
        <ele>156.8</ele>
        <time>2021-05-20T13:14:41Z</time>
      </trkpt>
      <trkpt lat="42.2526730" lon="-8.6794230">
        <ele>156.8</ele>
        <time>2021-05-20T13:14:42Z</time>
      </trkpt>
      <trkpt lat="42.2526800" lon="-8.6794140">
        <ele>156.8</ele>
        <time>2021-05-20T13:14:43Z</time>
      </trkpt>
      <trkpt lat="42.2526850" lon="-8.6794080">
        <ele>156.8</ele>
        <time>2021-05-20T13:14:44Z</time>
      </trkpt>
      <trkpt lat="42.2526910" lon="-8.6793980">
        <ele>156.9</ele>
        <time>2021-05-20T13:14:45Z</time>
      </trkpt>
      <trkpt lat="42.2526980" lon="-8.6793860">
        <ele>156.9</ele>
        <time>2021-05-20T13:14:46Z</time>
      </trkpt>
      <trkpt lat="42.2527020" lon="-8.6793720">
        <ele>156.9</ele>
        <time>2021-05-20T13:14:47Z</time>
      </trkpt>
      <trkpt lat="42.2527100" lon="-8.6793510">
        <ele>156.9</ele>
        <time>2021-05-20T13:14:48Z</time>
      </trkpt>
      <trkpt lat="42.2527150" lon="-8.6793380">
        <ele>156.9</ele>
        <time>2021-05-20T13:14:49Z</time>
      </trkpt>
      <trkpt lat="42.2527230" lon="-8.6793210">
        <ele>156.9</ele>
        <time>2021-05-20T13:14:50Z</time>
      </trkpt>
      <trkpt lat="42.2527270" lon="-8.6793140">
        <ele>156.9</ele>
        <time>2021-05-20T13:14:51Z</time>
      </trkpt>
      <trkpt lat="42.2527370" lon="-8.6792990">
        <ele>156.9</ele>
        <time>2021-05-20T13:14:52Z</time>
      </trkpt>
      <trkpt lat="42.2527350" lon="-8.6792950">
        <ele>156.9</ele>
        <time>2021-05-20T13:14:53Z</time>
      </trkpt>
      <trkpt lat="42.2527410" lon="-8.6792780">
        <ele>156.9</ele>
        <time>2021-05-20T13:14:54Z</time>
      </trkpt>
      <trkpt lat="42.2527480" lon="-8.6792660">
        <ele>156.9</ele>
        <time>2021-05-20T13:14:55Z</time>
      </trkpt>
      <trkpt lat="42.2527530" lon="-8.6792440">
        <ele>156.9</ele>
        <time>2021-05-20T13:14:56Z</time>
      </trkpt>
      <trkpt lat="42.2527550" lon="-8.6792300">
        <ele>157.0</ele>
        <time>2021-05-20T13:14:57Z</time>
      </trkpt>
      <trkpt lat="42.2527590" lon="-8.6792090">
        <ele>157.0</ele>
        <time>2021-05-20T13:14:58Z</time>
      </trkpt>
      <trkpt lat="42.2527600" lon="-8.6791900">
        <ele>157.0</ele>
        <time>2021-05-20T13:14:59Z</time>
      </trkpt>
      <trkpt lat="42.2527680" lon="-8.6791730">
        <ele>157.0</ele>
        <time>2021-05-20T13:15:00Z</time>
      </trkpt>
      <trkpt lat="42.2527730" lon="-8.6791510">
        <ele>157.0</ele>
        <time>2021-05-20T13:15:01Z</time>
      </trkpt>
      <trkpt lat="42.2527740" lon="-8.6791370">
        <ele>157.0</ele>
        <time>2021-05-20T13:15:02Z</time>
      </trkpt>
      <trkpt lat="42.2527760" lon="-8.6791240">
        <ele>157.0</ele>
        <time>2021-05-20T13:15:03Z</time>
      </trkpt>
      <trkpt lat="42.2527830" lon="-8.6791110">
        <ele>157.0</ele>
        <time>2021-05-20T13:15:04Z</time>
      </trkpt>
      <trkpt lat="42.2527900" lon="-8.6790990">
        <ele>157.0</ele>
        <time>2021-05-20T13:15:05Z</time>
      </trkpt>
      <trkpt lat="42.2527910" lon="-8.6790810">
        <ele>157.0</ele>
        <time>2021-05-20T13:15:06Z</time>
      </trkpt>
      <trkpt lat="42.2528030" lon="-8.6790530">
        <ele>157.0</ele>
        <time>2021-05-20T13:15:07Z</time>
      </trkpt>
      <trkpt lat="42.2528040" lon="-8.6790440">
        <ele>157.0</ele>
        <time>2021-05-20T13:15:08Z</time>
      </trkpt>
      <trkpt lat="42.2528060" lon="-8.6790340">
        <ele>157.0</ele>
        <time>2021-05-20T13:15:09Z</time>
      </trkpt>
      <trkpt lat="42.2528170" lon="-8.6790020">
        <ele>157.0</ele>
        <time>2021-05-20T13:15:10Z</time>
      </trkpt>
      <trkpt lat="42.2528200" lon="-8.6789870">
        <ele>157.0</ele>
        <time>2021-05-20T13:15:11Z</time>
      </trkpt>
      <trkpt lat="42.2528230" lon="-8.6789730">
        <ele>156.9</ele>
        <time>2021-05-20T13:15:12Z</time>
      </trkpt>
      <trkpt lat="42.2528270" lon="-8.6789500">
        <ele>156.9</ele>
        <time>2021-05-20T13:15:13Z</time>
      </trkpt>
      <trkpt lat="42.2528290" lon="-8.6789380">
        <ele>156.9</ele>
        <time>2021-05-20T13:15:14Z</time>
      </trkpt>
      <trkpt lat="42.2528310" lon="-8.6789250">
        <ele>156.9</ele>
        <time>2021-05-20T13:15:15Z</time>
      </trkpt>
      <trkpt lat="42.2528330" lon="-8.6789150">
        <ele>156.9</ele>
        <time>2021-05-20T13:15:16Z</time>
      </trkpt>
      <trkpt lat="42.2528360" lon="-8.6789070">
        <ele>156.9</ele>
        <time>2021-05-20T13:15:17Z</time>
      </trkpt>
      <trkpt lat="42.2528420" lon="-8.6788850">
        <ele>156.8</ele>
        <time>2021-05-20T13:15:18Z</time>
      </trkpt>
      <trkpt lat="42.2528410" lon="-8.6788570">
        <ele>156.8</ele>
        <time>2021-05-20T13:15:19Z</time>
      </trkpt>
      <trkpt lat="42.2528420" lon="-8.6788450">
        <ele>156.8</ele>
        <time>2021-05-20T13:15:20Z</time>
      </trkpt>
      <trkpt lat="42.2528430" lon="-8.6788340">
        <ele>156.8</ele>
        <time>2021-05-20T13:15:21Z</time>
      </trkpt>
      <trkpt lat="42.2528410" lon="-8.6788210">
        <ele>156.7</ele>
        <time>2021-05-20T13:15:22Z</time>
      </trkpt>
      <trkpt lat="42.2528390" lon="-8.6788110">
        <ele>156.7</ele>
        <time>2021-05-20T13:15:23Z</time>
      </trkpt>
      <trkpt lat="42.2528420" lon="-8.6788000">
        <ele>156.7</ele>
        <time>2021-05-20T13:15:24Z</time>
      </trkpt>
      <trkpt lat="42.2528470" lon="-8.6787870">
        <ele>156.7</ele>
        <time>2021-05-20T13:15:25Z</time>
      </trkpt>
      <trkpt lat="42.2528520" lon="-8.6787610">
        <ele>156.6</ele>
        <time>2021-05-20T13:15:26Z</time>
      </trkpt>
      <trkpt lat="42.2528500" lon="-8.6787450">
        <ele>156.6</ele>
        <time>2021-05-20T13:15:27Z</time>
      </trkpt>
      <trkpt lat="42.2528570" lon="-8.6787380">
        <ele>156.6</ele>
        <time>2021-05-20T13:15:28Z</time>
      </trkpt>
      <trkpt lat="42.2528600" lon="-8.6787250">
        <ele>156.5</ele>
        <time>2021-05-20T13:15:29Z</time>
      </trkpt>
      <trkpt lat="42.2528630" lon="-8.6787120">
        <ele>156.5</ele>
        <time>2021-05-20T13:15:30Z</time>
      </trkpt>
      <trkpt lat="42.2528710" lon="-8.6786830">
        <ele>156.5</ele>
        <time>2021-05-20T13:15:31Z</time>
      </trkpt>
      <trkpt lat="42.2528750" lon="-8.6786720">
        <ele>156.4</ele>
        <time>2021-05-20T13:15:32Z</time>
      </trkpt>
      <trkpt lat="42.2528790" lon="-8.6786620">
        <ele>156.4</ele>
        <time>2021-05-20T13:15:33Z</time>
      </trkpt>
      <trkpt lat="42.2528750" lon="-8.6786340">
        <ele>156.3</ele>
        <time>2021-05-20T13:15:34Z</time>
      </trkpt>
      <trkpt lat="42.2528750" lon="-8.6786230">
        <ele>156.3</ele>
        <time>2021-05-20T13:15:35Z</time>
      </trkpt>
      <trkpt lat="42.2528760" lon="-8.6786110">
        <ele>156.3</ele>
        <time>2021-05-20T13:15:36Z</time>
      </trkpt>
      <trkpt lat="42.2528730" lon="-8.6785920">
        <ele>156.2</ele>
        <time>2021-05-20T13:15:37Z</time>
      </trkpt>
      <trkpt lat="42.2528780" lon="-8.6785790">
        <ele>156.2</ele>
        <time>2021-05-20T13:15:38Z</time>
      </trkpt>
      <trkpt lat="42.2528700" lon="-8.6785630">
        <ele>156.1</ele>
        <time>2021-05-20T13:15:39Z</time>
      </trkpt>
      <trkpt lat="42.2528730" lon="-8.6785440">
        <ele>156.1</ele>
        <time>2021-05-20T13:15:40Z</time>
      </trkpt>
      <trkpt lat="42.2528660" lon="-8.6785310">
        <ele>156.1</ele>
        <time>2021-05-20T13:15:41Z</time>
      </trkpt>
      <trkpt lat="42.2528670" lon="-8.6785150">
        <ele>156.0</ele>
        <time>2021-05-20T13:15:42Z</time>
      </trkpt>
      <trkpt lat="42.2528610" lon="-8.6785000">
        <ele>156.0</ele>
        <time>2021-05-20T13:15:43Z</time>
      </trkpt>
      <trkpt lat="42.2528650" lon="-8.6784910">
        <ele>156.0</ele>
        <time>2021-05-20T13:15:44Z</time>
      </trkpt>
      <trkpt lat="42.2528630" lon="-8.6784700">
        <ele>155.9</ele>
        <time>2021-05-20T13:15:45Z</time>
      </trkpt>
      <trkpt lat="42.2528660" lon="-8.6784450">
        <ele>155.9</ele>
        <time>2021-05-20T13:15:46Z</time>
      </trkpt>
      <trkpt lat="42.2528720" lon="-8.6784330">
        <ele>155.8</ele>
        <time>2021-05-20T13:15:47Z</time>
      </trkpt>
      <trkpt lat="42.2528790" lon="-8.6784210">
        <ele>155.8</ele>
        <time>2021-05-20T13:15:48Z</time>
      </trkpt>
      <trkpt lat="42.2528850" lon="-8.6783940">
        <ele>155.7</ele>
        <time>2021-05-20T13:15:50Z</time>
      </trkpt>
      <trkpt lat="42.2528890" lon="-8.6783810">
        <ele>155.7</ele>
        <time>2021-05-20T13:15:51Z</time>
      </trkpt>
      <trkpt lat="42.2528940" lon="-8.6783690">
        <ele>155.7</ele>
        <time>2021-05-20T13:15:52Z</time>
      </trkpt>
      <trkpt lat="42.2528950" lon="-8.6783450">
        <ele>155.6</ele>
        <time>2021-05-20T13:15:53Z</time>
      </trkpt>
      <trkpt lat="42.2529030" lon="-8.6783320">
        <ele>155.6</ele>
        <time>2021-05-20T13:15:54Z</time>
      </trkpt>
      <trkpt lat="42.2529100" lon="-8.6783180">
        <ele>155.6</ele>
        <time>2021-05-20T13:15:55Z</time>
      </trkpt>
      <trkpt lat="42.2529160" lon="-8.6783100">
        <ele>155.6</ele>
        <time>2021-05-20T13:15:56Z</time>
      </trkpt>
      <trkpt lat="42.2529220" lon="-8.6783010">
        <ele>155.6</ele>
        <time>2021-05-20T13:15:57Z</time>
      </trkpt>
      <trkpt lat="42.2529240" lon="-8.6782940">
        <ele>155.6</ele>
        <time>2021-05-20T13:15:58Z</time>
      </trkpt>
      <trkpt lat="42.2529290" lon="-8.6782740">
        <ele>155.6</ele>
        <time>2021-05-20T13:15:59Z</time>
      </trkpt>
      <trkpt lat="42.2529270" lon="-8.6782710">
        <ele>155.6</ele>
        <time>2021-05-20T13:16:00Z</time>
      </trkpt>
      <trkpt lat="42.2529260" lon="-8.6782700">
        <ele>155.6</ele>
        <time>2021-05-20T13:16:01Z</time>
      </trkpt>
      <trkpt lat="42.2529230" lon="-8.6782640">
        <ele>155.6</ele>
        <time>2021-05-20T13:16:02Z</time>
      </trkpt>
      <trkpt lat="42.2529160" lon="-8.6782480">
        <ele>155.6</ele>
        <time>2021-05-20T13:16:03Z</time>
      </trkpt>
      <trkpt lat="42.2529120" lon="-8.6782390">
        <ele>155.6</ele>
        <time>2021-05-20T13:16:04Z</time>
      </trkpt>
      <trkpt lat="42.2529080" lon="-8.6782290">
        <ele>155.6</ele>
        <time>2021-05-20T13:16:05Z</time>
      </trkpt>
      <trkpt lat="42.2529030" lon="-8.6782190">
        <ele>155.6</ele>
        <time>2021-05-20T13:16:06Z</time>
      </trkpt>
      <trkpt lat="42.2528990" lon="-8.6782100">
        <ele>155.6</ele>
        <time>2021-05-20T13:16:07Z</time>
      </trkpt>
      <trkpt lat="42.2528950" lon="-8.6782000">
        <ele>155.6</ele>
        <time>2021-05-20T13:16:08Z</time>
      </trkpt>
      <trkpt lat="42.2528950" lon="-8.6782000">
        <ele>155.6</ele>
        <time>2021-05-20T13:16:09Z</time>
      </trkpt>
      <trkpt lat="42.2528950" lon="-8.6782000">
        <ele>155.6</ele>
        <time>2021-05-20T13:16:10Z</time>
      </trkpt>
      <trkpt lat="42.2528960" lon="-8.6781780">
        <ele>155.6</ele>
        <time>2021-05-20T13:16:11Z</time>
      </trkpt>
      <trkpt lat="42.2529010" lon="-8.6781710">
        <ele>155.6</ele>
        <time>2021-05-20T13:16:12Z</time>
      </trkpt>
      <trkpt lat="42.2529050" lon="-8.6781780">
        <ele>155.6</ele>
        <time>2021-05-20T13:16:13Z</time>
      </trkpt>
      <trkpt lat="42.2529040" lon="-8.6781830">
        <ele>155.6</ele>
        <time>2021-05-20T13:16:14Z</time>
      </trkpt>
      <trkpt lat="42.2529010" lon="-8.6781880">
        <ele>155.6</ele>
        <time>2021-05-20T13:16:15Z</time>
      </trkpt>
      <trkpt lat="42.2528990" lon="-8.6781920">
        <ele>155.6</ele>
        <time>2021-05-20T13:16:16Z</time>
      </trkpt>
      <trkpt lat="42.2528990" lon="-8.6781980">
        <ele>155.6</ele>
        <time>2021-05-20T13:16:17Z</time>
      </trkpt>
      <trkpt lat="42.2529010" lon="-8.6782010">
        <ele>155.6</ele>
        <time>2021-05-20T13:16:18Z</time>
      </trkpt>
      <trkpt lat="42.2528960" lon="-8.6782060">
        <ele>155.6</ele>
        <time>2021-05-20T13:16:19Z</time>
      </trkpt>
      <trkpt lat="42.2528970" lon="-8.6782120">
        <ele>155.6</ele>
        <time>2021-05-20T13:16:20Z</time>
      </trkpt>
      <trkpt lat="42.2528990" lon="-8.6782160">
        <ele>155.6</ele>
        <time>2021-05-20T13:16:21Z</time>
      </trkpt>
      <trkpt lat="42.2528980" lon="-8.6782160">
        <ele>155.6</ele>
        <time>2021-05-20T13:16:22Z</time>
      </trkpt>
      <trkpt lat="42.2529030" lon="-8.6782150">
        <ele>155.6</ele>
        <time>2021-05-20T13:16:23Z</time>
      </trkpt>
      <trkpt lat="42.2529160" lon="-8.6782100">
        <ele>155.6</ele>
        <time>2021-05-20T13:16:24Z</time>
      </trkpt>
      <trkpt lat="42.2529260" lon="-8.6782030">
        <ele>155.6</ele>
        <time>2021-05-20T13:16:25Z</time>
      </trkpt>
      <trkpt lat="42.2529300" lon="-8.6781870">
        <ele>155.6</ele>
        <time>2021-05-20T13:16:26Z</time>
      </trkpt>
      <trkpt lat="42.2529400" lon="-8.6781810">
        <ele>155.6</ele>
        <time>2021-05-20T13:16:27Z</time>
      </trkpt>
      <trkpt lat="42.2529380" lon="-8.6781620">
        <ele>155.6</ele>
        <time>2021-05-20T13:16:28Z</time>
      </trkpt>
      <trkpt lat="42.2529500" lon="-8.6781600">
        <ele>155.6</ele>
        <time>2021-05-20T13:16:29Z</time>
      </trkpt>
      <trkpt lat="42.2529580" lon="-8.6781510">
        <ele>155.6</ele>
        <time>2021-05-20T13:16:30Z</time>
      </trkpt>
      <trkpt lat="42.2529560" lon="-8.6781370">
        <ele>155.6</ele>
        <time>2021-05-20T13:16:31Z</time>
      </trkpt>
      <trkpt lat="42.2529550" lon="-8.6781270">
        <ele>155.6</ele>
        <time>2021-05-20T13:16:32Z</time>
      </trkpt>
      <trkpt lat="42.2529470" lon="-8.6781180">
        <ele>155.6</ele>
        <time>2021-05-20T13:16:33Z</time>
      </trkpt>
      <trkpt lat="42.2529460" lon="-8.6781210">
        <ele>155.6</ele>
        <time>2021-05-20T13:16:34Z</time>
      </trkpt>
      <trkpt lat="42.2529350" lon="-8.6780970">
        <ele>155.6</ele>
        <time>2021-05-20T13:16:35Z</time>
      </trkpt>
      <trkpt lat="42.2529380" lon="-8.6780730">
        <ele>155.6</ele>
        <time>2021-05-20T13:16:36Z</time>
      </trkpt>
      <trkpt lat="42.2529420" lon="-8.6780700">
        <ele>155.6</ele>
        <time>2021-05-20T13:16:37Z</time>
      </trkpt>
      <trkpt lat="42.2529450" lon="-8.6780660">
        <ele>155.6</ele>
        <time>2021-05-20T13:16:38Z</time>
      </trkpt>
      <trkpt lat="42.2529480" lon="-8.6780620">
        <ele>155.6</ele>
        <time>2021-05-20T13:16:39Z</time>
      </trkpt>
      <trkpt lat="42.2529520" lon="-8.6780590">
        <ele>155.6</ele>
        <time>2021-05-20T13:16:40Z</time>
      </trkpt>
      <trkpt lat="42.2529550" lon="-8.6780550">
        <ele>155.6</ele>
        <time>2021-05-20T13:16:41Z</time>
      </trkpt>
      <trkpt lat="42.2529560" lon="-8.6780460">
        <ele>155.6</ele>
        <time>2021-05-20T13:16:42Z</time>
      </trkpt>
      <trkpt lat="42.2529530" lon="-8.6780310">
        <ele>155.6</ele>
        <time>2021-05-20T13:16:43Z</time>
      </trkpt>
      <trkpt lat="42.2529620" lon="-8.6780190">
        <ele>155.6</ele>
        <time>2021-05-20T13:16:44Z</time>
      </trkpt>
      <trkpt lat="42.2529680" lon="-8.6780000">
        <ele>155.6</ele>
        <time>2021-05-20T13:16:45Z</time>
      </trkpt>
      <trkpt lat="42.2529750" lon="-8.6779940">
        <ele>155.6</ele>
        <time>2021-05-20T13:16:46Z</time>
      </trkpt>
      <trkpt lat="42.2529800" lon="-8.6779870">
        <ele>155.6</ele>
        <time>2021-05-20T13:16:47Z</time>
      </trkpt>
      <trkpt lat="42.2529860" lon="-8.6779700">
        <ele>155.7</ele>
        <time>2021-05-20T13:16:48Z</time>
      </trkpt>
      <trkpt lat="42.2529910" lon="-8.6779460">
        <ele>155.7</ele>
        <time>2021-05-20T13:16:49Z</time>
      </trkpt>
      <trkpt lat="42.2530050" lon="-8.6779350">
        <ele>155.7</ele>
        <time>2021-05-20T13:16:50Z</time>
      </trkpt>
      <trkpt lat="42.2530130" lon="-8.6779230">
        <ele>155.7</ele>
        <time>2021-05-20T13:16:51Z</time>
      </trkpt>
      <trkpt lat="42.2530220" lon="-8.6778970">
        <ele>155.8</ele>
        <time>2021-05-20T13:16:52Z</time>
      </trkpt>
      <trkpt lat="42.2530260" lon="-8.6778870">
        <ele>155.8</ele>
        <time>2021-05-20T13:16:53Z</time>
      </trkpt>
      <trkpt lat="42.2530310" lon="-8.6778780">
        <ele>155.8</ele>
        <time>2021-05-20T13:16:54Z</time>
      </trkpt>
      <trkpt lat="42.2530300" lon="-8.6778720">
        <ele>155.8</ele>
        <time>2021-05-20T13:16:55Z</time>
      </trkpt>
      <trkpt lat="42.2530400" lon="-8.6778470">
        <ele>155.8</ele>
        <time>2021-05-20T13:16:56Z</time>
      </trkpt>
      <trkpt lat="42.2530470" lon="-8.6778390">
        <ele>155.9</ele>
        <time>2021-05-20T13:16:57Z</time>
      </trkpt>
      <trkpt lat="42.2530610" lon="-8.6778270">
        <ele>155.9</ele>
        <time>2021-05-20T13:16:58Z</time>
      </trkpt>
      <trkpt lat="42.2530640" lon="-8.6778080">
        <ele>155.9</ele>
        <time>2021-05-20T13:16:59Z</time>
      </trkpt>
      <trkpt lat="42.2530670" lon="-8.6777970">
        <ele>156.0</ele>
        <time>2021-05-20T13:17:00Z</time>
      </trkpt>
      <trkpt lat="42.2530770" lon="-8.6777890">
        <ele>156.0</ele>
        <time>2021-05-20T13:17:01Z</time>
      </trkpt>
      <trkpt lat="42.2530880" lon="-8.6777720">
        <ele>156.0</ele>
        <time>2021-05-20T13:17:02Z</time>
      </trkpt>
      <trkpt lat="42.2530980" lon="-8.6777550">
        <ele>156.1</ele>
        <time>2021-05-20T13:17:03Z</time>
      </trkpt>
      <trkpt lat="42.2531060" lon="-8.6777460">
        <ele>156.1</ele>
        <time>2021-05-20T13:17:04Z</time>
      </trkpt>
      <trkpt lat="42.2531090" lon="-8.6777360">
        <ele>156.1</ele>
        <time>2021-05-20T13:17:05Z</time>
      </trkpt>
      <trkpt lat="42.2531170" lon="-8.6777210">
        <ele>156.2</ele>
        <time>2021-05-20T13:17:06Z</time>
      </trkpt>
      <trkpt lat="42.2531200" lon="-8.6777030">
        <ele>156.2</ele>
        <time>2021-05-20T13:17:07Z</time>
      </trkpt>
      <trkpt lat="42.2531270" lon="-8.6776940">
        <ele>156.3</ele>
        <time>2021-05-20T13:17:08Z</time>
      </trkpt>
      <trkpt lat="42.2531270" lon="-8.6776810">
        <ele>156.3</ele>
        <time>2021-05-20T13:17:09Z</time>
      </trkpt>
      <trkpt lat="42.2531370" lon="-8.6776660">
        <ele>156.4</ele>
        <time>2021-05-20T13:17:10Z</time>
      </trkpt>
      <trkpt lat="42.2531440" lon="-8.6776650">
        <ele>156.4</ele>
        <time>2021-05-20T13:17:11Z</time>
      </trkpt>
      <trkpt lat="42.2531560" lon="-8.6776430">
        <ele>156.5</ele>
        <time>2021-05-20T13:17:12Z</time>
      </trkpt>
      <trkpt lat="42.2531620" lon="-8.6776310">
        <ele>156.5</ele>
        <time>2021-05-20T13:17:13Z</time>
      </trkpt>
      <trkpt lat="42.2531670" lon="-8.6776200">
        <ele>156.5</ele>
        <time>2021-05-20T13:17:14Z</time>
      </trkpt>
      <trkpt lat="42.2531710" lon="-8.6776030">
        <ele>156.6</ele>
        <time>2021-05-20T13:17:15Z</time>
      </trkpt>
      <trkpt lat="42.2531740" lon="-8.6775890">
        <ele>156.6</ele>
        <time>2021-05-20T13:17:16Z</time>
      </trkpt>
      <trkpt lat="42.2531820" lon="-8.6775800">
        <ele>156.7</ele>
        <time>2021-05-20T13:17:17Z</time>
      </trkpt>
      <trkpt lat="42.2531880" lon="-8.6775540">
        <ele>156.8</ele>
        <time>2021-05-20T13:17:18Z</time>
      </trkpt>
      <trkpt lat="42.2531920" lon="-8.6775410">
        <ele>156.8</ele>
        <time>2021-05-20T13:17:19Z</time>
      </trkpt>
      <trkpt lat="42.2531950" lon="-8.6775290">
        <ele>156.9</ele>
        <time>2021-05-20T13:17:20Z</time>
      </trkpt>
      <trkpt lat="42.2532080" lon="-8.6775130">
        <ele>156.9</ele>
        <time>2021-05-20T13:17:21Z</time>
      </trkpt>
      <trkpt lat="42.2532240" lon="-8.6775050">
        <ele>157.0</ele>
        <time>2021-05-20T13:17:22Z</time>
      </trkpt>
      <trkpt lat="42.2532250" lon="-8.6774950">
        <ele>157.1</ele>
        <time>2021-05-20T13:17:23Z</time>
      </trkpt>
      <trkpt lat="42.2532330" lon="-8.6774710">
        <ele>157.2</ele>
        <time>2021-05-20T13:17:24Z</time>
      </trkpt>
      <trkpt lat="42.2532330" lon="-8.6774610">
        <ele>157.2</ele>
        <time>2021-05-20T13:17:25Z</time>
      </trkpt>
      <trkpt lat="42.2532360" lon="-8.6774480">
        <ele>157.2</ele>
        <time>2021-05-20T13:17:26Z</time>
      </trkpt>
      <trkpt lat="42.2532510" lon="-8.6774320">
        <ele>157.3</ele>
        <time>2021-05-20T13:17:27Z</time>
      </trkpt>
      <trkpt lat="42.2532550" lon="-8.6774200">
        <ele>157.4</ele>
        <time>2021-05-20T13:17:28Z</time>
      </trkpt>
      <trkpt lat="42.2532660" lon="-8.6773990">
        <ele>157.5</ele>
        <time>2021-05-20T13:17:29Z</time>
      </trkpt>
      <trkpt lat="42.2532690" lon="-8.6773910">
        <ele>157.5</ele>
        <time>2021-05-20T13:17:30Z</time>
      </trkpt>
      <trkpt lat="42.2532780" lon="-8.6773730">
        <ele>157.6</ele>
        <time>2021-05-20T13:17:31Z</time>
      </trkpt>
      <trkpt lat="42.2532740" lon="-8.6773610">
        <ele>157.7</ele>
        <time>2021-05-20T13:17:32Z</time>
      </trkpt>
      <trkpt lat="42.2532810" lon="-8.6773480">
        <ele>157.7</ele>
        <time>2021-05-20T13:17:33Z</time>
      </trkpt>
      <trkpt lat="42.2532850" lon="-8.6773410">
        <ele>157.8</ele>
        <time>2021-05-20T13:17:34Z</time>
      </trkpt>
      <trkpt lat="42.2532900" lon="-8.6773250">
        <ele>157.8</ele>
        <time>2021-05-20T13:17:35Z</time>
      </trkpt>
      <trkpt lat="42.2532920" lon="-8.6773080">
        <ele>157.9</ele>
        <time>2021-05-20T13:17:36Z</time>
      </trkpt>
      <trkpt lat="42.2532990" lon="-8.6772980">
        <ele>158.0</ele>
        <time>2021-05-20T13:17:37Z</time>
      </trkpt>
      <trkpt lat="42.2533020" lon="-8.6772830">
        <ele>158.0</ele>
        <time>2021-05-20T13:17:38Z</time>
      </trkpt>
      <trkpt lat="42.2533050" lon="-8.6772710">
        <ele>158.1</ele>
        <time>2021-05-20T13:17:39Z</time>
      </trkpt>
      <trkpt lat="42.2533110" lon="-8.6772500">
        <ele>158.1</ele>
        <time>2021-05-20T13:17:40Z</time>
      </trkpt>
      <trkpt lat="42.2533180" lon="-8.6772430">
        <ele>158.2</ele>
        <time>2021-05-20T13:17:41Z</time>
      </trkpt>
      <trkpt lat="42.2533220" lon="-8.6772120">
        <ele>158.3</ele>
        <time>2021-05-20T13:17:42Z</time>
      </trkpt>
      <trkpt lat="42.2533290" lon="-8.6771980">
        <ele>158.4</ele>
        <time>2021-05-20T13:17:44Z</time>
      </trkpt>
      <trkpt lat="42.2533360" lon="-8.6771900">
        <ele>158.4</ele>
        <time>2021-05-20T13:17:45Z</time>
      </trkpt>
      <trkpt lat="42.2533470" lon="-8.6771740">
        <ele>158.5</ele>
        <time>2021-05-20T13:17:46Z</time>
      </trkpt>
      <trkpt lat="42.2533540" lon="-8.6771650">
        <ele>158.6</ele>
        <time>2021-05-20T13:17:47Z</time>
      </trkpt>
      <trkpt lat="42.2533640" lon="-8.6771460">
        <ele>158.7</ele>
        <time>2021-05-20T13:17:48Z</time>
      </trkpt>
      <trkpt lat="42.2533580" lon="-8.6771270">
        <ele>158.7</ele>
        <time>2021-05-20T13:17:49Z</time>
      </trkpt>
      <trkpt lat="42.2533630" lon="-8.6771190">
        <ele>158.8</ele>
        <time>2021-05-20T13:17:50Z</time>
      </trkpt>
      <trkpt lat="42.2533680" lon="-8.6771040">
        <ele>158.9</ele>
        <time>2021-05-20T13:17:51Z</time>
      </trkpt>
      <trkpt lat="42.2533710" lon="-8.6770930">
        <ele>158.9</ele>
        <time>2021-05-20T13:17:52Z</time>
      </trkpt>
      <trkpt lat="42.2533740" lon="-8.6770740">
        <ele>159.0</ele>
        <time>2021-05-20T13:17:53Z</time>
      </trkpt>
      <trkpt lat="42.2533820" lon="-8.6770560">
        <ele>159.1</ele>
        <time>2021-05-20T13:17:54Z</time>
      </trkpt>
      <trkpt lat="42.2533850" lon="-8.6770480">
        <ele>159.1</ele>
        <time>2021-05-20T13:17:55Z</time>
      </trkpt>
      <trkpt lat="42.2533970" lon="-8.6770290">
        <ele>159.2</ele>
        <time>2021-05-20T13:17:56Z</time>
      </trkpt>
      <trkpt lat="42.2533950" lon="-8.6770230">
        <ele>159.2</ele>
        <time>2021-05-20T13:17:57Z</time>
      </trkpt>
      <trkpt lat="42.2534100" lon="-8.6770070">
        <ele>159.3</ele>
        <time>2021-05-20T13:17:58Z</time>
      </trkpt>
      <trkpt lat="42.2534200" lon="-8.6769940">
        <ele>159.4</ele>
        <time>2021-05-20T13:17:59Z</time>
      </trkpt>
      <trkpt lat="42.2534300" lon="-8.6769900">
        <ele>159.5</ele>
        <time>2021-05-20T13:18:00Z</time>
      </trkpt>
      <trkpt lat="42.2534250" lon="-8.6769770">
        <ele>159.5</ele>
        <time>2021-05-20T13:18:01Z</time>
      </trkpt>
      <trkpt lat="42.2534240" lon="-8.6769720">
        <ele>159.6</ele>
        <time>2021-05-20T13:18:02Z</time>
      </trkpt>
      <trkpt lat="42.2534360" lon="-8.6769600">
        <ele>159.6</ele>
        <time>2021-05-20T13:18:03Z</time>
      </trkpt>
      <trkpt lat="42.2534480" lon="-8.6769490">
        <ele>159.7</ele>
        <time>2021-05-20T13:18:04Z</time>
      </trkpt>
      <trkpt lat="42.2534540" lon="-8.6769490">
        <ele>159.7</ele>
        <time>2021-05-20T13:18:05Z</time>
      </trkpt>
      <trkpt lat="42.2534610" lon="-8.6769500">
        <ele>159.8</ele>
        <time>2021-05-20T13:18:06Z</time>
      </trkpt>
      <trkpt lat="42.2534670" lon="-8.6769500">
        <ele>160.1</ele>
        <time>2021-05-20T13:18:07Z</time>
      </trkpt>
      <trkpt lat="42.2534730" lon="-8.6769500">
        <ele>160.1</ele>
        <time>2021-05-20T13:18:08Z</time>
      </trkpt>
      <trkpt lat="42.2534800" lon="-8.6769560">
        <ele>160.2</ele>
        <time>2021-05-20T13:18:09Z</time>
      </trkpt>
      <trkpt lat="42.2534870" lon="-8.6769560">
        <ele>160.2</ele>
        <time>2021-05-20T13:18:10Z</time>
      </trkpt>
      <trkpt lat="42.2534870" lon="-8.6769480">
        <ele>160.2</ele>
        <time>2021-05-20T13:18:11Z</time>
      </trkpt>
      <trkpt lat="42.2535020" lon="-8.6769410">
        <ele>160.2</ele>
        <time>2021-05-20T13:18:12Z</time>
      </trkpt>
      <trkpt lat="42.2535120" lon="-8.6769390">
        <ele>160.2</ele>
        <time>2021-05-20T13:18:13Z</time>
      </trkpt>
      <trkpt lat="42.2535220" lon="-8.6769400">
        <ele>160.2</ele>
        <time>2021-05-20T13:18:14Z</time>
      </trkpt>
      <trkpt lat="42.2535310" lon="-8.6769340">
        <ele>160.3</ele>
        <time>2021-05-20T13:18:15Z</time>
      </trkpt>
      <trkpt lat="42.2535370" lon="-8.6769250">
        <ele>160.3</ele>
        <time>2021-05-20T13:18:16Z</time>
      </trkpt>
      <trkpt lat="42.2535500" lon="-8.6769220">
        <ele>160.3</ele>
        <time>2021-05-20T13:18:17Z</time>
      </trkpt>
      <trkpt lat="42.2535590" lon="-8.6769140">
        <ele>160.3</ele>
        <time>2021-05-20T13:18:18Z</time>
      </trkpt>
      <trkpt lat="42.2535600" lon="-8.6769030">
        <ele>160.3</ele>
        <time>2021-05-20T13:18:19Z</time>
      </trkpt>
      <trkpt lat="42.2535720" lon="-8.6768950">
        <ele>160.3</ele>
        <time>2021-05-20T13:18:20Z</time>
      </trkpt>
      <trkpt lat="42.2535770" lon="-8.6768790">
        <ele>160.3</ele>
        <time>2021-05-20T13:18:21Z</time>
      </trkpt>
      <trkpt lat="42.2535920" lon="-8.6768580">
        <ele>160.3</ele>
        <time>2021-05-20T13:18:22Z</time>
      </trkpt>
      <trkpt lat="42.2535970" lon="-8.6768500">
        <ele>160.3</ele>
        <time>2021-05-20T13:18:23Z</time>
      </trkpt>
      <trkpt lat="42.2536020" lon="-8.6768430">
        <ele>160.3</ele>
        <time>2021-05-20T13:18:24Z</time>
      </trkpt>
      <trkpt lat="42.2536110" lon="-8.6768390">
        <ele>160.3</ele>
        <time>2021-05-20T13:18:25Z</time>
      </trkpt>
      <trkpt lat="42.2536170" lon="-8.6768200">
        <ele>160.2</ele>
        <time>2021-05-20T13:18:26Z</time>
      </trkpt>
      <trkpt lat="42.2536290" lon="-8.6768240">
        <ele>160.2</ele>
        <time>2021-05-20T13:18:27Z</time>
      </trkpt>
      <trkpt lat="42.2536350" lon="-8.6768100">
        <ele>160.2</ele>
        <time>2021-05-20T13:18:28Z</time>
      </trkpt>
      <trkpt lat="42.2536420" lon="-8.6768020">
        <ele>160.2</ele>
        <time>2021-05-20T13:18:29Z</time>
      </trkpt>
      <trkpt lat="42.2536500" lon="-8.6767940">
        <ele>160.1</ele>
        <time>2021-05-20T13:18:30Z</time>
      </trkpt>
      <trkpt lat="42.2536670" lon="-8.6767770">
        <ele>160.1</ele>
        <time>2021-05-20T13:18:31Z</time>
      </trkpt>
      <trkpt lat="42.2536740" lon="-8.6767710">
        <ele>160.1</ele>
        <time>2021-05-20T13:18:32Z</time>
      </trkpt>
      <trkpt lat="42.2536800" lon="-8.6767640">
        <ele>160.0</ele>
        <time>2021-05-20T13:18:33Z</time>
      </trkpt>
      <trkpt lat="42.2536840" lon="-8.6767580">
        <ele>160.0</ele>
        <time>2021-05-20T13:18:34Z</time>
      </trkpt>
      <trkpt lat="42.2536940" lon="-8.6767500">
        <ele>160.0</ele>
        <time>2021-05-20T13:18:35Z</time>
      </trkpt>
      <trkpt lat="42.2537070" lon="-8.6767410">
        <ele>159.9</ele>
        <time>2021-05-20T13:18:36Z</time>
      </trkpt>
      <trkpt lat="42.2537190" lon="-8.6767240">
        <ele>159.9</ele>
        <time>2021-05-20T13:18:37Z</time>
      </trkpt>
      <trkpt lat="42.2537280" lon="-8.6767160">
        <ele>159.8</ele>
        <time>2021-05-20T13:18:38Z</time>
      </trkpt>
      <trkpt lat="42.2537380" lon="-8.6767080">
        <ele>159.8</ele>
        <time>2021-05-20T13:18:39Z</time>
      </trkpt>
      <trkpt lat="42.2537570" lon="-8.6767030">
        <ele>159.7</ele>
        <time>2021-05-20T13:18:40Z</time>
      </trkpt>
      <trkpt lat="42.2537720" lon="-8.6766910">
        <ele>159.6</ele>
        <time>2021-05-20T13:18:41Z</time>
      </trkpt>
      <trkpt lat="42.2537780" lon="-8.6766830">
        <ele>159.6</ele>
        <time>2021-05-20T13:18:42Z</time>
      </trkpt>
      <trkpt lat="42.2537820" lon="-8.6766760">
        <ele>159.5</ele>
        <time>2021-05-20T13:18:43Z</time>
      </trkpt>
      <trkpt lat="42.2537940" lon="-8.6766700">
        <ele>159.5</ele>
        <time>2021-05-20T13:18:44Z</time>
      </trkpt>
      <trkpt lat="42.2538110" lon="-8.6766550">
        <ele>159.4</ele>
        <time>2021-05-20T13:18:45Z</time>
      </trkpt>
      <trkpt lat="42.2538180" lon="-8.6766480">
        <ele>159.3</ele>
        <time>2021-05-20T13:18:46Z</time>
      </trkpt>
      <trkpt lat="42.2538250" lon="-8.6766400">
        <ele>159.3</ele>
        <time>2021-05-20T13:18:47Z</time>
      </trkpt>
      <trkpt lat="42.2538370" lon="-8.6766390">
        <ele>159.3</ele>
        <time>2021-05-20T13:18:48Z</time>
      </trkpt>
      <trkpt lat="42.2538430" lon="-8.6766320">
        <ele>159.2</ele>
        <time>2021-05-20T13:18:49Z</time>
      </trkpt>
      <trkpt lat="42.2538540" lon="-8.6766230">
        <ele>159.2</ele>
        <time>2021-05-20T13:18:50Z</time>
      </trkpt>
      <trkpt lat="42.2538660" lon="-8.6766200">
        <ele>159.1</ele>
        <time>2021-05-20T13:18:51Z</time>
      </trkpt>
      <trkpt lat="42.2538760" lon="-8.6766120">
        <ele>159.1</ele>
        <time>2021-05-20T13:18:52Z</time>
      </trkpt>
      <trkpt lat="42.2538870" lon="-8.6766050">
        <ele>159.0</ele>
        <time>2021-05-20T13:18:53Z</time>
      </trkpt>
      <trkpt lat="42.2538940" lon="-8.6766020">
        <ele>159.0</ele>
        <time>2021-05-20T13:18:54Z</time>
      </trkpt>
      <trkpt lat="42.2539020" lon="-8.6765920">
        <ele>158.9</ele>
        <time>2021-05-20T13:18:55Z</time>
      </trkpt>
      <trkpt lat="42.2539180" lon="-8.6765890">
        <ele>158.8</ele>
        <time>2021-05-20T13:18:56Z</time>
      </trkpt>
      <trkpt lat="42.2539320" lon="-8.6765840">
        <ele>158.8</ele>
        <time>2021-05-20T13:18:57Z</time>
      </trkpt>
      <trkpt lat="42.2539470" lon="-8.6765760">
        <ele>158.7</ele>
        <time>2021-05-20T13:18:58Z</time>
      </trkpt>
      <trkpt lat="42.2539650" lon="-8.6765680">
        <ele>158.6</ele>
        <time>2021-05-20T13:18:59Z</time>
      </trkpt>
      <trkpt lat="42.2539650" lon="-8.6765580">
        <ele>158.6</ele>
        <time>2021-05-20T13:19:00Z</time>
      </trkpt>
      <trkpt lat="42.2539730" lon="-8.6765470">
        <ele>158.5</ele>
        <time>2021-05-20T13:19:01Z</time>
      </trkpt>
      <trkpt lat="42.2539810" lon="-8.6765420">
        <ele>158.5</ele>
        <time>2021-05-20T13:19:02Z</time>
      </trkpt>
      <trkpt lat="42.2539890" lon="-8.6765330">
        <ele>158.5</ele>
        <time>2021-05-20T13:19:03Z</time>
      </trkpt>
      <trkpt lat="42.2540010" lon="-8.6765250">
        <ele>158.4</ele>
        <time>2021-05-20T13:19:04Z</time>
      </trkpt>
      <trkpt lat="42.2540090" lon="-8.6765100">
        <ele>158.3</ele>
        <time>2021-05-20T13:19:05Z</time>
      </trkpt>
      <trkpt lat="42.2540130" lon="-8.6765040">
        <ele>158.3</ele>
        <time>2021-05-20T13:19:06Z</time>
      </trkpt>
      <trkpt lat="42.2540190" lon="-8.6764980">
        <ele>158.3</ele>
        <time>2021-05-20T13:19:07Z</time>
      </trkpt>
      <trkpt lat="42.2540320" lon="-8.6764920">
        <ele>158.2</ele>
        <time>2021-05-20T13:19:08Z</time>
      </trkpt>
      <trkpt lat="42.2540430" lon="-8.6764850">
        <ele>158.2</ele>
        <time>2021-05-20T13:19:09Z</time>
      </trkpt>
      <trkpt lat="42.2540520" lon="-8.6764760">
        <ele>158.1</ele>
        <time>2021-05-20T13:19:10Z</time>
      </trkpt>
      <trkpt lat="42.2540640" lon="-8.6764700">
        <ele>158.1</ele>
        <time>2021-05-20T13:19:11Z</time>
      </trkpt>
      <trkpt lat="42.2540720" lon="-8.6764620">
        <ele>158.0</ele>
        <time>2021-05-20T13:19:12Z</time>
      </trkpt>
      <trkpt lat="42.2540820" lon="-8.6764560">
        <ele>158.0</ele>
        <time>2021-05-20T13:19:13Z</time>
      </trkpt>
      <trkpt lat="42.2541010" lon="-8.6764400">
        <ele>157.9</ele>
        <time>2021-05-20T13:19:14Z</time>
      </trkpt>
      <trkpt lat="42.2541100" lon="-8.6764380">
        <ele>157.9</ele>
        <time>2021-05-20T13:19:15Z</time>
      </trkpt>
      <trkpt lat="42.2541200" lon="-8.6764350">
        <ele>157.8</ele>
        <time>2021-05-20T13:19:16Z</time>
      </trkpt>
      <trkpt lat="42.2541270" lon="-8.6764220">
        <ele>157.8</ele>
        <time>2021-05-20T13:19:17Z</time>
      </trkpt>
      <trkpt lat="42.2541360" lon="-8.6764130">
        <ele>157.7</ele>
        <time>2021-05-20T13:19:18Z</time>
      </trkpt>
      <trkpt lat="42.2541480" lon="-8.6764110">
        <ele>157.7</ele>
        <time>2021-05-20T13:19:19Z</time>
      </trkpt>
      <trkpt lat="42.2541670" lon="-8.6764010">
        <ele>157.6</ele>
        <time>2021-05-20T13:19:20Z</time>
      </trkpt>
      <trkpt lat="42.2541740" lon="-8.6763960">
        <ele>157.6</ele>
        <time>2021-05-20T13:19:21Z</time>
      </trkpt>
      <trkpt lat="42.2541820" lon="-8.6763910">
        <ele>157.6</ele>
        <time>2021-05-20T13:19:22Z</time>
      </trkpt>
      <trkpt lat="42.2541970" lon="-8.6763840">
        <ele>157.6</ele>
        <time>2021-05-20T13:19:23Z</time>
      </trkpt>
      <trkpt lat="42.2542130" lon="-8.6763720">
        <ele>157.6</ele>
        <time>2021-05-20T13:19:24Z</time>
      </trkpt>
      <trkpt lat="42.2542180" lon="-8.6763640">
        <ele>157.6</ele>
        <time>2021-05-20T13:19:25Z</time>
      </trkpt>
      <trkpt lat="42.2542300" lon="-8.6763560">
        <ele>157.5</ele>
        <time>2021-05-20T13:19:26Z</time>
      </trkpt>
      <trkpt lat="42.2542440" lon="-8.6763480">
        <ele>157.5</ele>
        <time>2021-05-20T13:19:27Z</time>
      </trkpt>
      <trkpt lat="42.2542600" lon="-8.6763320">
        <ele>157.5</ele>
        <time>2021-05-20T13:19:28Z</time>
      </trkpt>
      <trkpt lat="42.2542690" lon="-8.6763250">
        <ele>157.5</ele>
        <time>2021-05-20T13:19:29Z</time>
      </trkpt>
      <trkpt lat="42.2542770" lon="-8.6763180">
        <ele>157.5</ele>
        <time>2021-05-20T13:19:30Z</time>
      </trkpt>
      <trkpt lat="42.2542860" lon="-8.6763100">
        <ele>157.5</ele>
        <time>2021-05-20T13:19:31Z</time>
      </trkpt>
      <trkpt lat="42.2543030" lon="-8.6762940">
        <ele>157.5</ele>
        <time>2021-05-20T13:19:32Z</time>
      </trkpt>
      <trkpt lat="42.2543080" lon="-8.6762860">
        <ele>157.5</ele>
        <time>2021-05-20T13:19:33Z</time>
      </trkpt>
      <trkpt lat="42.2543220" lon="-8.6762770">
        <ele>157.5</ele>
        <time>2021-05-20T13:19:34Z</time>
      </trkpt>
      <trkpt lat="42.2543300" lon="-8.6762790">
        <ele>157.5</ele>
        <time>2021-05-20T13:19:36Z</time>
      </trkpt>
      <trkpt lat="42.2543410" lon="-8.6762610">
        <ele>157.5</ele>
        <time>2021-05-20T13:19:37Z</time>
      </trkpt>
      <trkpt lat="42.2543530" lon="-8.6762540">
        <ele>157.5</ele>
        <time>2021-05-20T13:19:38Z</time>
      </trkpt>
      <trkpt lat="42.2543620" lon="-8.6762380">
        <ele>157.5</ele>
        <time>2021-05-20T13:19:39Z</time>
      </trkpt>
      <trkpt lat="42.2543740" lon="-8.6762310">
        <ele>157.5</ele>
        <time>2021-05-20T13:19:40Z</time>
      </trkpt>
      <trkpt lat="42.2543770" lon="-8.6762160">
        <ele>157.5</ele>
        <time>2021-05-20T13:19:41Z</time>
      </trkpt>
      <trkpt lat="42.2543860" lon="-8.6762070">
        <ele>157.5</ele>
        <time>2021-05-20T13:19:42Z</time>
      </trkpt>
      <trkpt lat="42.2543920" lon="-8.6761940">
        <ele>157.5</ele>
        <time>2021-05-20T13:19:43Z</time>
      </trkpt>
      <trkpt lat="42.2544050" lon="-8.6761760">
        <ele>157.5</ele>
        <time>2021-05-20T13:19:44Z</time>
      </trkpt>
      <trkpt lat="42.2544110" lon="-8.6761670">
        <ele>157.5</ele>
        <time>2021-05-20T13:19:45Z</time>
      </trkpt>
      <trkpt lat="42.2544180" lon="-8.6761580">
        <ele>157.5</ele>
        <time>2021-05-20T13:19:46Z</time>
      </trkpt>
      <trkpt lat="42.2544350" lon="-8.6761480">
        <ele>157.5</ele>
        <time>2021-05-20T13:19:47Z</time>
      </trkpt>
      <trkpt lat="42.2544440" lon="-8.6761360">
        <ele>157.6</ele>
        <time>2021-05-20T13:19:48Z</time>
      </trkpt>
      <trkpt lat="42.2544530" lon="-8.6761210">
        <ele>157.6</ele>
        <time>2021-05-20T13:19:49Z</time>
      </trkpt>
      <trkpt lat="42.2544670" lon="-8.6761110">
        <ele>157.6</ele>
        <time>2021-05-20T13:19:50Z</time>
      </trkpt>
      <trkpt lat="42.2544770" lon="-8.6760990">
        <ele>157.6</ele>
        <time>2021-05-20T13:19:51Z</time>
      </trkpt>
      <trkpt lat="42.2544890" lon="-8.6760890">
        <ele>157.6</ele>
        <time>2021-05-20T13:19:52Z</time>
      </trkpt>
      <trkpt lat="42.2545020" lon="-8.6760810">
        <ele>157.6</ele>
        <time>2021-05-20T13:19:53Z</time>
      </trkpt>
      <trkpt lat="42.2545140" lon="-8.6760690">
        <ele>157.6</ele>
        <time>2021-05-20T13:19:54Z</time>
      </trkpt>
      <trkpt lat="42.2545310" lon="-8.6760500">
        <ele>157.7</ele>
        <time>2021-05-20T13:19:55Z</time>
      </trkpt>
      <trkpt lat="42.2545390" lon="-8.6760440">
        <ele>157.7</ele>
        <time>2021-05-20T13:19:56Z</time>
      </trkpt>
      <trkpt lat="42.2545480" lon="-8.6760380">
        <ele>157.7</ele>
        <time>2021-05-20T13:19:57Z</time>
      </trkpt>
      <trkpt lat="42.2545640" lon="-8.6760190">
        <ele>157.7</ele>
        <time>2021-05-20T13:19:58Z</time>
      </trkpt>
      <trkpt lat="42.2545700" lon="-8.6760110">
        <ele>157.7</ele>
        <time>2021-05-20T13:19:59Z</time>
      </trkpt>
      <trkpt lat="42.2545760" lon="-8.6760030">
        <ele>157.7</ele>
        <time>2021-05-20T13:20:00Z</time>
      </trkpt>
      <trkpt lat="42.2545860" lon="-8.6759900">
        <ele>157.7</ele>
        <time>2021-05-20T13:20:01Z</time>
      </trkpt>
      <trkpt lat="42.2545970" lon="-8.6759790">
        <ele>157.8</ele>
        <time>2021-05-20T13:20:02Z</time>
      </trkpt>
      <trkpt lat="42.2546050" lon="-8.6759620">
        <ele>157.8</ele>
        <time>2021-05-20T13:20:03Z</time>
      </trkpt>
      <trkpt lat="42.2546150" lon="-8.6759500">
        <ele>157.8</ele>
        <time>2021-05-20T13:20:04Z</time>
      </trkpt>
      <trkpt lat="42.2546260" lon="-8.6759400">
        <ele>157.8</ele>
        <time>2021-05-20T13:20:05Z</time>
      </trkpt>
      <trkpt lat="42.2546300" lon="-8.6759300">
        <ele>157.8</ele>
        <time>2021-05-20T13:20:06Z</time>
      </trkpt>
      <trkpt lat="42.2546350" lon="-8.6759180">
        <ele>157.8</ele>
        <time>2021-05-20T13:20:07Z</time>
      </trkpt>
      <trkpt lat="42.2546360" lon="-8.6759130">
        <ele>157.8</ele>
        <time>2021-05-20T13:20:08Z</time>
      </trkpt>
      <trkpt lat="42.2546420" lon="-8.6759070">
        <ele>157.8</ele>
        <time>2021-05-20T13:20:09Z</time>
      </trkpt>
      <trkpt lat="42.2546450" lon="-8.6758960">
        <ele>157.9</ele>
        <time>2021-05-20T13:20:10Z</time>
      </trkpt>
      <trkpt lat="42.2546570" lon="-8.6758880">
        <ele>157.9</ele>
        <time>2021-05-20T13:20:11Z</time>
      </trkpt>
      <trkpt lat="42.2546580" lon="-8.6758810">
        <ele>157.9</ele>
        <time>2021-05-20T13:20:12Z</time>
      </trkpt>
      <trkpt lat="42.2546660" lon="-8.6758680">
        <ele>157.9</ele>
        <time>2021-05-20T13:20:13Z</time>
      </trkpt>
      <trkpt lat="42.2546680" lon="-8.6758570">
        <ele>157.9</ele>
        <time>2021-05-20T13:20:14Z</time>
      </trkpt>
      <trkpt lat="42.2546700" lon="-8.6758450">
        <ele>157.9</ele>
        <time>2021-05-20T13:20:15Z</time>
      </trkpt>
      <trkpt lat="42.2546790" lon="-8.6758280">
        <ele>157.9</ele>
        <time>2021-05-20T13:20:16Z</time>
      </trkpt>
      <trkpt lat="42.2546750" lon="-8.6758240">
        <ele>157.9</ele>
        <time>2021-05-20T13:20:17Z</time>
      </trkpt>
      <trkpt lat="42.2546820" lon="-8.6758110">
        <ele>157.9</ele>
        <time>2021-05-20T13:20:18Z</time>
      </trkpt>
      <trkpt lat="42.2546780" lon="-8.6758040">
        <ele>158.0</ele>
        <time>2021-05-20T13:20:19Z</time>
      </trkpt>
      <trkpt lat="42.2546840" lon="-8.6757960">
        <ele>158.0</ele>
        <time>2021-05-20T13:20:20Z</time>
      </trkpt>
      <trkpt lat="42.2546920" lon="-8.6757860">
        <ele>158.0</ele>
        <time>2021-05-20T13:20:21Z</time>
      </trkpt>
      <trkpt lat="42.2546950" lon="-8.6757750">
        <ele>158.0</ele>
        <time>2021-05-20T13:20:22Z</time>
      </trkpt>
      <trkpt lat="42.2546990" lon="-8.6757620">
        <ele>158.0</ele>
        <time>2021-05-20T13:20:23Z</time>
      </trkpt>
      <trkpt lat="42.2546950" lon="-8.6757510">
        <ele>158.0</ele>
        <time>2021-05-20T13:20:24Z</time>
      </trkpt>
      <trkpt lat="42.2546850" lon="-8.6757370">
        <ele>158.0</ele>
        <time>2021-05-20T13:20:25Z</time>
      </trkpt>
      <trkpt lat="42.2546850" lon="-8.6757050">
        <ele>158.1</ele>
        <time>2021-05-20T13:20:26Z</time>
      </trkpt>
      <trkpt lat="42.2546840" lon="-8.6756920">
        <ele>158.1</ele>
        <time>2021-05-20T13:20:27Z</time>
      </trkpt>
      <trkpt lat="42.2546830" lon="-8.6756780">
        <ele>158.1</ele>
        <time>2021-05-20T13:20:28Z</time>
      </trkpt>
      <trkpt lat="42.2546830" lon="-8.6756640">
        <ele>158.1</ele>
        <time>2021-05-20T13:20:29Z</time>
      </trkpt>
      <trkpt lat="42.2546880" lon="-8.6756440">
        <ele>158.1</ele>
        <time>2021-05-20T13:20:30Z</time>
      </trkpt>
      <trkpt lat="42.2546940" lon="-8.6756370">
        <ele>158.1</ele>
        <time>2021-05-20T13:20:31Z</time>
      </trkpt>
      <trkpt lat="42.2547000" lon="-8.6756090">
        <ele>158.1</ele>
        <time>2021-05-20T13:20:32Z</time>
      </trkpt>
      <trkpt lat="42.2547030" lon="-8.6755960">
        <ele>158.1</ele>
        <time>2021-05-20T13:20:33Z</time>
      </trkpt>
      <trkpt lat="42.2547120" lon="-8.6755750">
        <ele>158.1</ele>
        <time>2021-05-20T13:20:34Z</time>
      </trkpt>
      <trkpt lat="42.2547250" lon="-8.6755680">
        <ele>158.1</ele>
        <time>2021-05-20T13:20:35Z</time>
      </trkpt>
      <trkpt lat="42.2547330" lon="-8.6755550">
        <ele>158.2</ele>
        <time>2021-05-20T13:20:36Z</time>
      </trkpt>
      <trkpt lat="42.2547450" lon="-8.6755400">
        <ele>158.2</ele>
        <time>2021-05-20T13:20:37Z</time>
      </trkpt>
      <trkpt lat="42.2547570" lon="-8.6755240">
        <ele>158.2</ele>
        <time>2021-05-20T13:20:38Z</time>
      </trkpt>
      <trkpt lat="42.2547600" lon="-8.6755030">
        <ele>158.2</ele>
        <time>2021-05-20T13:20:39Z</time>
      </trkpt>
      <trkpt lat="42.2547700" lon="-8.6754830">
        <ele>158.2</ele>
        <time>2021-05-20T13:20:40Z</time>
      </trkpt>
      <trkpt lat="42.2547760" lon="-8.6754720">
        <ele>158.2</ele>
        <time>2021-05-20T13:20:41Z</time>
      </trkpt>
      <trkpt lat="42.2547830" lon="-8.6754610">
        <ele>158.2</ele>
        <time>2021-05-20T13:20:42Z</time>
      </trkpt>
      <trkpt lat="42.2547890" lon="-8.6754530">
        <ele>158.2</ele>
        <time>2021-05-20T13:20:43Z</time>
      </trkpt>
      <trkpt lat="42.2547910" lon="-8.6754370">
        <ele>158.2</ele>
        <time>2021-05-20T13:20:44Z</time>
      </trkpt>
      <trkpt lat="42.2547960" lon="-8.6754210">
        <ele>158.2</ele>
        <time>2021-05-20T13:20:45Z</time>
      </trkpt>
      <trkpt lat="42.2548090" lon="-8.6754050">
        <ele>158.3</ele>
        <time>2021-05-20T13:20:46Z</time>
      </trkpt>
      <trkpt lat="42.2548310" lon="-8.6753780">
        <ele>158.3</ele>
        <time>2021-05-20T13:20:47Z</time>
      </trkpt>
      <trkpt lat="42.2548440" lon="-8.6753670">
        <ele>158.3</ele>
        <time>2021-05-20T13:20:48Z</time>
      </trkpt>
      <trkpt lat="42.2548450" lon="-8.6753490">
        <ele>158.3</ele>
        <time>2021-05-20T13:20:49Z</time>
      </trkpt>
      <trkpt lat="42.2548570" lon="-8.6753370">
        <ele>158.3</ele>
        <time>2021-05-20T13:20:50Z</time>
      </trkpt>
      <trkpt lat="42.2548660" lon="-8.6753300">
        <ele>158.3</ele>
        <time>2021-05-20T13:20:51Z</time>
      </trkpt>
      <trkpt lat="42.2548660" lon="-8.6753110">
        <ele>158.3</ele>
        <time>2021-05-20T13:20:52Z</time>
      </trkpt>
      <trkpt lat="42.2548770" lon="-8.6752990">
        <ele>158.3</ele>
        <time>2021-05-20T13:20:53Z</time>
      </trkpt>
      <trkpt lat="42.2548820" lon="-8.6752860">
        <ele>158.3</ele>
        <time>2021-05-20T13:20:54Z</time>
      </trkpt>
      <trkpt lat="42.2548910" lon="-8.6752610">
        <ele>158.3</ele>
        <time>2021-05-20T13:20:55Z</time>
      </trkpt>
      <trkpt lat="42.2548930" lon="-8.6752510">
        <ele>158.3</ele>
        <time>2021-05-20T13:20:56Z</time>
      </trkpt>
      <trkpt lat="42.2548950" lon="-8.6752400">
        <ele>158.3</ele>
        <time>2021-05-20T13:20:57Z</time>
      </trkpt>
      <trkpt lat="42.2548930" lon="-8.6752250">
        <ele>158.3</ele>
        <time>2021-05-20T13:20:58Z</time>
      </trkpt>
      <trkpt lat="42.2549010" lon="-8.6752260">
        <ele>158.3</ele>
        <time>2021-05-20T13:20:59Z</time>
      </trkpt>
      <trkpt lat="42.2549080" lon="-8.6752240">
        <ele>158.3</ele>
        <time>2021-05-20T13:21:00Z</time>
      </trkpt>
      <trkpt lat="42.2549170" lon="-8.6752130">
        <ele>158.3</ele>
        <time>2021-05-20T13:21:01Z</time>
      </trkpt>
      <trkpt lat="42.2549230" lon="-8.6752030">
        <ele>158.2</ele>
        <time>2021-05-20T13:21:02Z</time>
      </trkpt>
      <trkpt lat="42.2549300" lon="-8.6751890">
        <ele>158.2</ele>
        <time>2021-05-20T13:21:03Z</time>
      </trkpt>
      <trkpt lat="42.2549350" lon="-8.6751750">
        <ele>158.2</ele>
        <time>2021-05-20T13:21:04Z</time>
      </trkpt>
      <trkpt lat="42.2549360" lon="-8.6751630">
        <ele>158.2</ele>
        <time>2021-05-20T13:21:05Z</time>
      </trkpt>
      <trkpt lat="42.2549370" lon="-8.6751490">
        <ele>158.2</ele>
        <time>2021-05-20T13:21:06Z</time>
      </trkpt>
      <trkpt lat="42.2549410" lon="-8.6751370">
        <ele>158.2</ele>
        <time>2021-05-20T13:21:07Z</time>
      </trkpt>
      <trkpt lat="42.2549400" lon="-8.6751370">
        <ele>158.2</ele>
        <time>2021-05-20T13:21:08Z</time>
      </trkpt>
      <trkpt lat="42.2549390" lon="-8.6751400">
        <ele>158.2</ele>
        <time>2021-05-20T13:21:09Z</time>
      </trkpt>
      <trkpt lat="42.2549380" lon="-8.6751400">
        <ele>158.2</ele>
        <time>2021-05-20T13:21:10Z</time>
      </trkpt>
      <trkpt lat="42.2549360" lon="-8.6751400">
        <ele>158.2</ele>
        <time>2021-05-20T13:21:11Z</time>
      </trkpt>
      <trkpt lat="42.2549360" lon="-8.6751380">
        <ele>158.2</ele>
        <time>2021-05-20T13:21:12Z</time>
      </trkpt>
      <trkpt lat="42.2549410" lon="-8.6751290">
        <ele>158.2</ele>
        <time>2021-05-20T13:21:13Z</time>
      </trkpt>
      <trkpt lat="42.2549380" lon="-8.6751150">
        <ele>158.2</ele>
        <time>2021-05-20T13:21:14Z</time>
      </trkpt>
      <trkpt lat="42.2549390" lon="-8.6750940">
        <ele>158.2</ele>
        <time>2021-05-20T13:21:15Z</time>
      </trkpt>
      <trkpt lat="42.2549440" lon="-8.6750700">
        <ele>158.2</ele>
        <time>2021-05-20T13:21:16Z</time>
      </trkpt>
      <trkpt lat="42.2549460" lon="-8.6750610">
        <ele>158.2</ele>
        <time>2021-05-20T13:21:17Z</time>
      </trkpt>
      <trkpt lat="42.2549480" lon="-8.6750530">
        <ele>158.2</ele>
        <time>2021-05-20T13:21:18Z</time>
      </trkpt>
      <trkpt lat="42.2549500" lon="-8.6750440">
        <ele>158.2</ele>
        <time>2021-05-20T13:21:19Z</time>
      </trkpt>
      <trkpt lat="42.2549560" lon="-8.6750290">
        <ele>158.2</ele>
        <time>2021-05-20T13:21:20Z</time>
      </trkpt>
      <trkpt lat="42.2549600" lon="-8.6750170">
        <ele>158.2</ele>
        <time>2021-05-20T13:21:21Z</time>
      </trkpt>
      <trkpt lat="42.2549670" lon="-8.6750100">
        <ele>158.2</ele>
        <time>2021-05-20T13:21:22Z</time>
      </trkpt>
      <trkpt lat="42.2549840" lon="-8.6750040">
        <ele>158.2</ele>
        <time>2021-05-20T13:21:23Z</time>
      </trkpt>
      <trkpt lat="42.2549940" lon="-8.6749910">
        <ele>158.1</ele>
        <time>2021-05-20T13:21:24Z</time>
      </trkpt>
      <trkpt lat="42.2549990" lon="-8.6749760">
        <ele>158.1</ele>
        <time>2021-05-20T13:21:25Z</time>
      </trkpt>
      <trkpt lat="42.2550010" lon="-8.6749610">
        <ele>158.1</ele>
        <time>2021-05-20T13:21:26Z</time>
      </trkpt>
      <trkpt lat="42.2550030" lon="-8.6749490">
        <ele>158.1</ele>
        <time>2021-05-20T13:21:27Z</time>
      </trkpt>
      <trkpt lat="42.2550010" lon="-8.6749390">
        <ele>158.1</ele>
        <time>2021-05-20T13:21:28Z</time>
      </trkpt>
      <trkpt lat="42.2550030" lon="-8.6749190">
        <ele>158.1</ele>
        <time>2021-05-20T13:21:29Z</time>
      </trkpt>
      <trkpt lat="42.2550070" lon="-8.6749050">
        <ele>158.1</ele>
        <time>2021-05-20T13:21:30Z</time>
      </trkpt>
      <trkpt lat="42.2550060" lon="-8.6748860">
        <ele>158.1</ele>
        <time>2021-05-20T13:21:31Z</time>
      </trkpt>
      <trkpt lat="42.2550020" lon="-8.6748630">
        <ele>158.1</ele>
        <time>2021-05-20T13:21:32Z</time>
      </trkpt>
      <trkpt lat="42.2550010" lon="-8.6748570">
        <ele>158.1</ele>
        <time>2021-05-20T13:21:33Z</time>
      </trkpt>
      <trkpt lat="42.2550070" lon="-8.6748350">
        <ele>158.1</ele>
        <time>2021-05-20T13:21:35Z</time>
      </trkpt>
      <trkpt lat="42.2550110" lon="-8.6748160">
        <ele>158.1</ele>
        <time>2021-05-20T13:21:36Z</time>
      </trkpt>
      <trkpt lat="42.2550220" lon="-8.6747920">
        <ele>158.1</ele>
        <time>2021-05-20T13:21:37Z</time>
      </trkpt>
      <trkpt lat="42.2550260" lon="-8.6747820">
        <ele>158.1</ele>
        <time>2021-05-20T13:21:38Z</time>
      </trkpt>
      <trkpt lat="42.2550290" lon="-8.6747710">
        <ele>158.1</ele>
        <time>2021-05-20T13:21:39Z</time>
      </trkpt>
      <trkpt lat="42.2550430" lon="-8.6747620">
        <ele>158.1</ele>
        <time>2021-05-20T13:21:40Z</time>
      </trkpt>
      <trkpt lat="42.2550510" lon="-8.6747390">
        <ele>158.1</ele>
        <time>2021-05-20T13:21:41Z</time>
      </trkpt>
      <trkpt lat="42.2550490" lon="-8.6747260">
        <ele>158.1</ele>
        <time>2021-05-20T13:21:42Z</time>
      </trkpt>
      <trkpt lat="42.2550600" lon="-8.6747140">
        <ele>158.1</ele>
        <time>2021-05-20T13:21:43Z</time>
      </trkpt>
      <trkpt lat="42.2550620" lon="-8.6747030">
        <ele>158.1</ele>
        <time>2021-05-20T13:21:44Z</time>
      </trkpt>
      <trkpt lat="42.2550760" lon="-8.6746830">
        <ele>158.0</ele>
        <time>2021-05-20T13:21:45Z</time>
      </trkpt>
      <trkpt lat="42.2550800" lon="-8.6746660">
        <ele>158.0</ele>
        <time>2021-05-20T13:21:46Z</time>
      </trkpt>
      <trkpt lat="42.2550750" lon="-8.6746490">
        <ele>158.0</ele>
        <time>2021-05-20T13:21:47Z</time>
      </trkpt>
      <trkpt lat="42.2550840" lon="-8.6746320">
        <ele>158.0</ele>
        <time>2021-05-20T13:21:48Z</time>
      </trkpt>
      <trkpt lat="42.2550790" lon="-8.6746210">
        <ele>158.0</ele>
        <time>2021-05-20T13:21:49Z</time>
      </trkpt>
      <trkpt lat="42.2550990" lon="-8.6746040">
        <ele>158.0</ele>
        <time>2021-05-20T13:21:50Z</time>
      </trkpt>
      <trkpt lat="42.2551030" lon="-8.6745890">
        <ele>158.0</ele>
        <time>2021-05-20T13:21:51Z</time>
      </trkpt>
      <trkpt lat="42.2551100" lon="-8.6745650">
        <ele>158.0</ele>
        <time>2021-05-20T13:21:52Z</time>
      </trkpt>
      <trkpt lat="42.2551150" lon="-8.6745530">
        <ele>158.0</ele>
        <time>2021-05-20T13:21:53Z</time>
      </trkpt>
      <trkpt lat="42.2551190" lon="-8.6745420">
        <ele>158.0</ele>
        <time>2021-05-20T13:21:54Z</time>
      </trkpt>
      <trkpt lat="42.2551200" lon="-8.6745260">
        <ele>158.0</ele>
        <time>2021-05-20T13:21:55Z</time>
      </trkpt>
      <trkpt lat="42.2551170" lon="-8.6745090">
        <ele>158.0</ele>
        <time>2021-05-20T13:21:56Z</time>
      </trkpt>
      <trkpt lat="42.2551230" lon="-8.6744940">
        <ele>158.0</ele>
        <time>2021-05-20T13:21:57Z</time>
      </trkpt>
      <trkpt lat="42.2551350" lon="-8.6744690">
        <ele>158.0</ele>
        <time>2021-05-20T13:21:58Z</time>
      </trkpt>
      <trkpt lat="42.2551390" lon="-8.6744590">
        <ele>158.0</ele>
        <time>2021-05-20T13:21:59Z</time>
      </trkpt>
      <trkpt lat="42.2551420" lon="-8.6744490">
        <ele>158.0</ele>
        <time>2021-05-20T13:22:00Z</time>
      </trkpt>
      <trkpt lat="42.2551550" lon="-8.6744240">
        <ele>157.9</ele>
        <time>2021-05-20T13:22:01Z</time>
      </trkpt>
      <trkpt lat="42.2551560" lon="-8.6744120">
        <ele>157.9</ele>
        <time>2021-05-20T13:22:02Z</time>
      </trkpt>
      <trkpt lat="42.2551560" lon="-8.6744010">
        <ele>157.9</ele>
        <time>2021-05-20T13:22:03Z</time>
      </trkpt>
      <trkpt lat="42.2551680" lon="-8.6743920">
        <ele>157.9</ele>
        <time>2021-05-20T13:22:04Z</time>
      </trkpt>
      <trkpt lat="42.2551760" lon="-8.6743790">
        <ele>157.9</ele>
        <time>2021-05-20T13:22:05Z</time>
      </trkpt>
      <trkpt lat="42.2551790" lon="-8.6743690">
        <ele>157.9</ele>
        <time>2021-05-20T13:22:06Z</time>
      </trkpt>
      <trkpt lat="42.2551860" lon="-8.6743510">
        <ele>157.9</ele>
        <time>2021-05-20T13:22:07Z</time>
      </trkpt>
      <trkpt lat="42.2551870" lon="-8.6743320">
        <ele>157.9</ele>
        <time>2021-05-20T13:22:08Z</time>
      </trkpt>
      <trkpt lat="42.2551930" lon="-8.6743180">
        <ele>157.9</ele>
        <time>2021-05-20T13:22:09Z</time>
      </trkpt>
      <trkpt lat="42.2552050" lon="-8.6742960">
        <ele>157.8</ele>
        <time>2021-05-20T13:22:10Z</time>
      </trkpt>
      <trkpt lat="42.2552110" lon="-8.6742890">
        <ele>157.8</ele>
        <time>2021-05-20T13:22:11Z</time>
      </trkpt>
      <trkpt lat="42.2552170" lon="-8.6742770">
        <ele>157.8</ele>
        <time>2021-05-20T13:22:12Z</time>
      </trkpt>
      <trkpt lat="42.2552270" lon="-8.6742610">
        <ele>157.8</ele>
        <time>2021-05-20T13:22:13Z</time>
      </trkpt>
      <trkpt lat="42.2552330" lon="-8.6742390">
        <ele>157.8</ele>
        <time>2021-05-20T13:22:14Z</time>
      </trkpt>
      <trkpt lat="42.2552420" lon="-8.6742220">
        <ele>157.8</ele>
        <time>2021-05-20T13:22:15Z</time>
      </trkpt>
      <trkpt lat="42.2552530" lon="-8.6741970">
        <ele>157.8</ele>
        <time>2021-05-20T13:22:16Z</time>
      </trkpt>
      <trkpt lat="42.2552650" lon="-8.6741910">
        <ele>157.8</ele>
        <time>2021-05-20T13:22:17Z</time>
      </trkpt>
      <trkpt lat="42.2552760" lon="-8.6741840">
        <ele>157.7</ele>
        <time>2021-05-20T13:22:18Z</time>
      </trkpt>
      <trkpt lat="42.2552710" lon="-8.6741750">
        <ele>157.7</ele>
        <time>2021-05-20T13:22:19Z</time>
      </trkpt>
      <trkpt lat="42.2552820" lon="-8.6741700">
        <ele>157.7</ele>
        <time>2021-05-20T13:22:20Z</time>
      </trkpt>
      <trkpt lat="42.2552810" lon="-8.6741570">
        <ele>157.7</ele>
        <time>2021-05-20T13:22:21Z</time>
      </trkpt>
      <trkpt lat="42.2552870" lon="-8.6741420">
        <ele>157.7</ele>
        <time>2021-05-20T13:22:22Z</time>
      </trkpt>
      <trkpt lat="42.2552890" lon="-8.6741310">
        <ele>157.7</ele>
        <time>2021-05-20T13:22:23Z</time>
      </trkpt>
      <trkpt lat="42.2552970" lon="-8.6741150">
        <ele>157.7</ele>
        <time>2021-05-20T13:22:24Z</time>
      </trkpt>
      <trkpt lat="42.2553040" lon="-8.6741050">
        <ele>157.7</ele>
        <time>2021-05-20T13:22:25Z</time>
      </trkpt>
      <trkpt lat="42.2553000" lon="-8.6740930">
        <ele>157.7</ele>
        <time>2021-05-20T13:22:26Z</time>
      </trkpt>
      <trkpt lat="42.2553030" lon="-8.6740680">
        <ele>157.7</ele>
        <time>2021-05-20T13:22:27Z</time>
      </trkpt>
      <trkpt lat="42.2553090" lon="-8.6740480">
        <ele>157.7</ele>
        <time>2021-05-20T13:22:28Z</time>
      </trkpt>
      <trkpt lat="42.2553090" lon="-8.6740340">
        <ele>157.7</ele>
        <time>2021-05-20T13:22:29Z</time>
      </trkpt>
      <trkpt lat="42.2553100" lon="-8.6740210">
        <ele>157.6</ele>
        <time>2021-05-20T13:22:30Z</time>
      </trkpt>
      <trkpt lat="42.2553170" lon="-8.6740040">
        <ele>157.6</ele>
        <time>2021-05-20T13:22:31Z</time>
      </trkpt>
      <trkpt lat="42.2553190" lon="-8.6739970">
        <ele>157.6</ele>
        <time>2021-05-20T13:22:32Z</time>
      </trkpt>
      <trkpt lat="42.2553220" lon="-8.6739810">
        <ele>157.6</ele>
        <time>2021-05-20T13:22:33Z</time>
      </trkpt>
      <trkpt lat="42.2553290" lon="-8.6739600">
        <ele>157.6</ele>
        <time>2021-05-20T13:22:34Z</time>
      </trkpt>
      <trkpt lat="42.2553380" lon="-8.6739440">
        <ele>157.6</ele>
        <time>2021-05-20T13:22:35Z</time>
      </trkpt>
      <trkpt lat="42.2553510" lon="-8.6739240">
        <ele>157.6</ele>
        <time>2021-05-20T13:22:36Z</time>
      </trkpt>
      <trkpt lat="42.2553550" lon="-8.6739140">
        <ele>157.6</ele>
        <time>2021-05-20T13:22:37Z</time>
      </trkpt>
      <trkpt lat="42.2553600" lon="-8.6739040">
        <ele>157.6</ele>
        <time>2021-05-20T13:22:38Z</time>
      </trkpt>
      <trkpt lat="42.2553660" lon="-8.6738740">
        <ele>157.6</ele>
        <time>2021-05-20T13:22:39Z</time>
      </trkpt>
      <trkpt lat="42.2553690" lon="-8.6738610">
        <ele>157.6</ele>
        <time>2021-05-20T13:22:40Z</time>
      </trkpt>
      <trkpt lat="42.2553720" lon="-8.6738490">
        <ele>157.6</ele>
        <time>2021-05-20T13:22:41Z</time>
      </trkpt>
      <trkpt lat="42.2553860" lon="-8.6738210">
        <ele>157.5</ele>
        <time>2021-05-20T13:22:42Z</time>
      </trkpt>
      <trkpt lat="42.2553870" lon="-8.6738120">
        <ele>157.5</ele>
        <time>2021-05-20T13:22:43Z</time>
      </trkpt>
      <trkpt lat="42.2553880" lon="-8.6738020">
        <ele>157.5</ele>
        <time>2021-05-20T13:22:44Z</time>
      </trkpt>
      <trkpt lat="42.2553920" lon="-8.6737880">
        <ele>157.5</ele>
        <time>2021-05-20T13:22:45Z</time>
      </trkpt>
      <trkpt lat="42.2554000" lon="-8.6737630">
        <ele>157.5</ele>
        <time>2021-05-20T13:22:46Z</time>
      </trkpt>
      <trkpt lat="42.2554110" lon="-8.6737500">
        <ele>157.5</ele>
        <time>2021-05-20T13:22:47Z</time>
      </trkpt>
      <trkpt lat="42.2554210" lon="-8.6737350">
        <ele>157.5</ele>
        <time>2021-05-20T13:22:48Z</time>
      </trkpt>
      <trkpt lat="42.2554200" lon="-8.6737200">
        <ele>157.5</ele>
        <time>2021-05-20T13:22:49Z</time>
      </trkpt>
      <trkpt lat="42.2554300" lon="-8.6737000">
        <ele>157.5</ele>
        <time>2021-05-20T13:22:50Z</time>
      </trkpt>
      <trkpt lat="42.2554370" lon="-8.6736990">
        <ele>157.5</ele>
        <time>2021-05-20T13:22:51Z</time>
      </trkpt>
      <trkpt lat="42.2554420" lon="-8.6736720">
        <ele>157.5</ele>
        <time>2021-05-20T13:22:52Z</time>
      </trkpt>
      <trkpt lat="42.2554590" lon="-8.6736520">
        <ele>157.5</ele>
        <time>2021-05-20T13:22:53Z</time>
      </trkpt>
      <trkpt lat="42.2554680" lon="-8.6736310">
        <ele>157.6</ele>
        <time>2021-05-20T13:22:54Z</time>
      </trkpt>
      <trkpt lat="42.2554810" lon="-8.6736080">
        <ele>157.6</ele>
        <time>2021-05-20T13:22:55Z</time>
      </trkpt>
      <trkpt lat="42.2554840" lon="-8.6736010">
        <ele>157.6</ele>
        <time>2021-05-20T13:22:56Z</time>
      </trkpt>
      <trkpt lat="42.2554870" lon="-8.6735930">
        <ele>157.6</ele>
        <time>2021-05-20T13:22:57Z</time>
      </trkpt>
      <trkpt lat="42.2554900" lon="-8.6735860">
        <ele>157.6</ele>
        <time>2021-05-20T13:22:58Z</time>
      </trkpt>
      <trkpt lat="42.2554950" lon="-8.6735730">
        <ele>157.6</ele>
        <time>2021-05-20T13:22:59Z</time>
      </trkpt>
      <trkpt lat="42.2555000" lon="-8.6735660">
        <ele>157.6</ele>
        <time>2021-05-20T13:23:00Z</time>
      </trkpt>
      <trkpt lat="42.2555110" lon="-8.6735460">
        <ele>157.6</ele>
        <time>2021-05-20T13:23:01Z</time>
      </trkpt>
      <trkpt lat="42.2555050" lon="-8.6735320">
        <ele>157.6</ele>
        <time>2021-05-20T13:23:02Z</time>
      </trkpt>
      <trkpt lat="42.2554990" lon="-8.6735180">
        <ele>157.6</ele>
        <time>2021-05-20T13:23:03Z</time>
      </trkpt>
      <trkpt lat="42.2554980" lon="-8.6735020">
        <ele>157.6</ele>
        <time>2021-05-20T13:23:04Z</time>
      </trkpt>
      <trkpt lat="42.2555050" lon="-8.6734870">
        <ele>157.6</ele>
        <time>2021-05-20T13:23:05Z</time>
      </trkpt>
      <trkpt lat="42.2555080" lon="-8.6734740">
        <ele>157.6</ele>
        <time>2021-05-20T13:23:06Z</time>
      </trkpt>
      <trkpt lat="42.2555070" lon="-8.6734580">
        <ele>157.6</ele>
        <time>2021-05-20T13:23:07Z</time>
      </trkpt>
      <trkpt lat="42.2555090" lon="-8.6734460">
        <ele>157.6</ele>
        <time>2021-05-20T13:23:08Z</time>
      </trkpt>
      <trkpt lat="42.2555100" lon="-8.6734280">
        <ele>157.6</ele>
        <time>2021-05-20T13:23:09Z</time>
      </trkpt>
      <trkpt lat="42.2555110" lon="-8.6734170">
        <ele>157.7</ele>
        <time>2021-05-20T13:23:10Z</time>
      </trkpt>
      <trkpt lat="42.2555170" lon="-8.6733830">
        <ele>157.7</ele>
        <time>2021-05-20T13:23:11Z</time>
      </trkpt>
      <trkpt lat="42.2555170" lon="-8.6733740">
        <ele>157.7</ele>
        <time>2021-05-20T13:23:12Z</time>
      </trkpt>
      <trkpt lat="42.2555170" lon="-8.6733660">
        <ele>157.7</ele>
        <time>2021-05-20T13:23:13Z</time>
      </trkpt>
      <trkpt lat="42.2555140" lon="-8.6733480">
        <ele>157.7</ele>
        <time>2021-05-20T13:23:14Z</time>
      </trkpt>
      <trkpt lat="42.2555130" lon="-8.6733210">
        <ele>157.7</ele>
        <time>2021-05-20T13:23:15Z</time>
      </trkpt>
      <trkpt lat="42.2555130" lon="-8.6733060">
        <ele>157.7</ele>
        <time>2021-05-20T13:23:16Z</time>
      </trkpt>
      <trkpt lat="42.2555090" lon="-8.6732920">
        <ele>157.7</ele>
        <time>2021-05-20T13:23:17Z</time>
      </trkpt>
      <trkpt lat="42.2555070" lon="-8.6732810">
        <ele>157.7</ele>
        <time>2021-05-20T13:23:18Z</time>
      </trkpt>
      <trkpt lat="42.2555070" lon="-8.6732710">
        <ele>157.7</ele>
        <time>2021-05-20T13:23:19Z</time>
      </trkpt>
      <trkpt lat="42.2555070" lon="-8.6732570">
        <ele>157.7</ele>
        <time>2021-05-20T13:23:20Z</time>
      </trkpt>
      <trkpt lat="42.2555050" lon="-8.6732430">
        <ele>157.7</ele>
        <time>2021-05-20T13:23:21Z</time>
      </trkpt>
      <trkpt lat="42.2555010" lon="-8.6732250">
        <ele>157.7</ele>
        <time>2021-05-20T13:23:22Z</time>
      </trkpt>
      <trkpt lat="42.2554980" lon="-8.6732170">
        <ele>157.7</ele>
        <time>2021-05-20T13:23:23Z</time>
      </trkpt>
      <trkpt lat="42.2555010" lon="-8.6732140">
        <ele>157.7</ele>
        <time>2021-05-20T13:23:24Z</time>
      </trkpt>
      <trkpt lat="42.2554980" lon="-8.6732050">
        <ele>157.7</ele>
        <time>2021-05-20T13:23:25Z</time>
      </trkpt>
      <trkpt lat="42.2554900" lon="-8.6731910">
        <ele>157.7</ele>
        <time>2021-05-20T13:23:26Z</time>
      </trkpt>
      <trkpt lat="42.2554880" lon="-8.6731770">
        <ele>157.7</ele>
        <time>2021-05-20T13:23:27Z</time>
      </trkpt>
      <trkpt lat="42.2554890" lon="-8.6731720">
        <ele>157.7</ele>
        <time>2021-05-20T13:23:28Z</time>
      </trkpt>
      <trkpt lat="42.2554900" lon="-8.6731580">
        <ele>157.7</ele>
        <time>2021-05-20T13:23:29Z</time>
      </trkpt>
      <trkpt lat="42.2554960" lon="-8.6731280">
        <ele>157.7</ele>
        <time>2021-05-20T13:23:30Z</time>
      </trkpt>
      <trkpt lat="42.2554980" lon="-8.6731170">
        <ele>157.7</ele>
        <time>2021-05-20T13:23:31Z</time>
      </trkpt>
      <trkpt lat="42.2555000" lon="-8.6731070">
        <ele>157.6</ele>
        <time>2021-05-20T13:23:32Z</time>
      </trkpt>
      <trkpt lat="42.2555020" lon="-8.6731060">
        <ele>157.6</ele>
        <time>2021-05-20T13:23:33Z</time>
      </trkpt>
      <trkpt lat="42.2555030" lon="-8.6730920">
        <ele>157.6</ele>
        <time>2021-05-20T13:23:34Z</time>
      </trkpt>
      <trkpt lat="42.2554940" lon="-8.6730870">
        <ele>157.6</ele>
        <time>2021-05-20T13:23:35Z</time>
      </trkpt>
      <trkpt lat="42.2554930" lon="-8.6730910">
        <ele>157.6</ele>
        <time>2021-05-20T13:23:36Z</time>
      </trkpt>
      <trkpt lat="42.2554940" lon="-8.6730930">
        <ele>157.6</ele>
        <time>2021-05-20T13:23:37Z</time>
      </trkpt>
      <trkpt lat="42.2554940" lon="-8.6730880">
        <ele>157.6</ele>
        <time>2021-05-20T13:23:38Z</time>
      </trkpt>
      <trkpt lat="42.2554940" lon="-8.6730880">
        <ele>157.6</ele>
        <time>2021-05-20T13:23:39Z</time>
      </trkpt>
      <trkpt lat="42.2554990" lon="-8.6730790">
        <ele>157.6</ele>
        <time>2021-05-20T13:23:40Z</time>
      </trkpt>
      <trkpt lat="42.2554990" lon="-8.6730790">
        <ele>157.6</ele>
        <time>2021-05-20T13:23:41Z</time>
      </trkpt>
      <trkpt lat="42.2555030" lon="-8.6730750">
        <ele>157.6</ele>
        <time>2021-05-20T13:23:42Z</time>
      </trkpt>
      <trkpt lat="42.2555030" lon="-8.6730750">
        <ele>157.6</ele>
        <time>2021-05-20T13:23:43Z</time>
      </trkpt>
      <trkpt lat="42.2555090" lon="-8.6730620">
        <ele>157.6</ele>
        <time>2021-05-20T13:23:44Z</time>
      </trkpt>
      <trkpt lat="42.2555150" lon="-8.6730560">
        <ele>157.5</ele>
        <time>2021-05-20T13:23:45Z</time>
      </trkpt>
      <trkpt lat="42.2555200" lon="-8.6730510">
        <ele>157.5</ele>
        <time>2021-05-20T13:23:46Z</time>
      </trkpt>
      <trkpt lat="42.2555180" lon="-8.6730440">
        <ele>157.5</ele>
        <time>2021-05-20T13:23:47Z</time>
      </trkpt>
      <trkpt lat="42.2555230" lon="-8.6730260">
        <ele>157.5</ele>
        <time>2021-05-20T13:23:48Z</time>
      </trkpt>
      <trkpt lat="42.2555140" lon="-8.6730210">
        <ele>157.5</ele>
        <time>2021-05-20T13:23:49Z</time>
      </trkpt>
      <trkpt lat="42.2555170" lon="-8.6730120">
        <ele>157.5</ele>
        <time>2021-05-20T13:23:50Z</time>
      </trkpt>
      <trkpt lat="42.2555150" lon="-8.6730020">
        <ele>157.5</ele>
        <time>2021-05-20T13:23:51Z</time>
      </trkpt>
      <trkpt lat="42.2555120" lon="-8.6729990">
        <ele>157.5</ele>
        <time>2021-05-20T13:23:52Z</time>
      </trkpt>
      <trkpt lat="42.2555150" lon="-8.6729890">
        <ele>157.5</ele>
        <time>2021-05-20T13:23:53Z</time>
      </trkpt>
      <trkpt lat="42.2555180" lon="-8.6729690">
        <ele>157.5</ele>
        <time>2021-05-20T13:23:54Z</time>
      </trkpt>
      <trkpt lat="42.2555140" lon="-8.6729620">
        <ele>157.5</ele>
        <time>2021-05-20T13:23:55Z</time>
      </trkpt>
      <trkpt lat="42.2555160" lon="-8.6729420">
        <ele>157.5</ele>
        <time>2021-05-20T13:23:56Z</time>
      </trkpt>
      <trkpt lat="42.2555170" lon="-8.6729280">
        <ele>157.5</ele>
        <time>2021-05-20T13:23:57Z</time>
      </trkpt>
      <trkpt lat="42.2555210" lon="-8.6729110">
        <ele>157.5</ele>
        <time>2021-05-20T13:23:58Z</time>
      </trkpt>
      <trkpt lat="42.2555220" lon="-8.6729050">
        <ele>157.5</ele>
        <time>2021-05-20T13:23:59Z</time>
      </trkpt>
      <trkpt lat="42.2555270" lon="-8.6728820">
        <ele>157.6</ele>
        <time>2021-05-20T13:24:00Z</time>
      </trkpt>
      <trkpt lat="42.2555280" lon="-8.6728720">
        <ele>157.6</ele>
        <time>2021-05-20T13:24:01Z</time>
      </trkpt>
      <trkpt lat="42.2555360" lon="-8.6728670">
        <ele>157.6</ele>
        <time>2021-05-20T13:24:02Z</time>
      </trkpt>
      <trkpt lat="42.2555410" lon="-8.6728560">
        <ele>157.6</ele>
        <time>2021-05-20T13:24:03Z</time>
      </trkpt>
      <trkpt lat="42.2555430" lon="-8.6728450">
        <ele>157.6</ele>
        <time>2021-05-20T13:24:04Z</time>
      </trkpt>
      <trkpt lat="42.2555470" lon="-8.6728320">
        <ele>157.6</ele>
        <time>2021-05-20T13:24:05Z</time>
      </trkpt>
      <trkpt lat="42.2555540" lon="-8.6728100">
        <ele>157.6</ele>
        <time>2021-05-20T13:24:06Z</time>
      </trkpt>
      <trkpt lat="42.2555650" lon="-8.6727990">
        <ele>157.6</ele>
        <time>2021-05-20T13:24:07Z</time>
      </trkpt>
      <trkpt lat="42.2555750" lon="-8.6727760">
        <ele>157.7</ele>
        <time>2021-05-20T13:24:08Z</time>
      </trkpt>
      <trkpt lat="42.2555810" lon="-8.6727670">
        <ele>157.7</ele>
        <time>2021-05-20T13:24:10Z</time>
      </trkpt>
      <trkpt lat="42.2555860" lon="-8.6727570">
        <ele>157.7</ele>
        <time>2021-05-20T13:24:11Z</time>
      </trkpt>
      <trkpt lat="42.2555870" lon="-8.6727500">
        <ele>157.7</ele>
        <time>2021-05-20T13:24:12Z</time>
      </trkpt>
      <trkpt lat="42.2555980" lon="-8.6727360">
        <ele>157.7</ele>
        <time>2021-05-20T13:24:13Z</time>
      </trkpt>
      <trkpt lat="42.2556080" lon="-8.6727300">
        <ele>157.7</ele>
        <time>2021-05-20T13:24:14Z</time>
      </trkpt>
      <trkpt lat="42.2556200" lon="-8.6727210">
        <ele>157.7</ele>
        <time>2021-05-20T13:24:15Z</time>
      </trkpt>
      <trkpt lat="42.2556280" lon="-8.6727180">
        <ele>157.7</ele>
        <time>2021-05-20T13:24:16Z</time>
      </trkpt>
      <trkpt lat="42.2556350" lon="-8.6727070">
        <ele>157.7</ele>
        <time>2021-05-20T13:24:17Z</time>
      </trkpt>
      <trkpt lat="42.2556440" lon="-8.6726970">
        <ele>157.7</ele>
        <time>2021-05-20T13:24:18Z</time>
      </trkpt>
      <trkpt lat="42.2556610" lon="-8.6726870">
        <ele>157.7</ele>
        <time>2021-05-20T13:24:19Z</time>
      </trkpt>
      <trkpt lat="42.2556700" lon="-8.6726830">
        <ele>157.7</ele>
        <time>2021-05-20T13:24:20Z</time>
      </trkpt>
      <trkpt lat="42.2556810" lon="-8.6726770">
        <ele>157.7</ele>
        <time>2021-05-20T13:24:21Z</time>
      </trkpt>
      <trkpt lat="42.2556890" lon="-8.6726790">
        <ele>157.7</ele>
        <time>2021-05-20T13:24:22Z</time>
      </trkpt>
      <trkpt lat="42.2557020" lon="-8.6726720">
        <ele>157.7</ele>
        <time>2021-05-20T13:24:23Z</time>
      </trkpt>
      <trkpt lat="42.2557140" lon="-8.6726600">
        <ele>157.7</ele>
        <time>2021-05-20T13:24:24Z</time>
      </trkpt>
      <trkpt lat="42.2557180" lon="-8.6726610">
        <ele>157.7</ele>
        <time>2021-05-20T13:24:25Z</time>
      </trkpt>
      <trkpt lat="42.2557270" lon="-8.6726530">
        <ele>157.7</ele>
        <time>2021-05-20T13:24:26Z</time>
      </trkpt>
      <trkpt lat="42.2557450" lon="-8.6726430">
        <ele>157.6</ele>
        <time>2021-05-20T13:24:27Z</time>
      </trkpt>
      <trkpt lat="42.2557510" lon="-8.6726370">
        <ele>157.6</ele>
        <time>2021-05-20T13:24:28Z</time>
      </trkpt>
      <trkpt lat="42.2557660" lon="-8.6726270">
        <ele>157.6</ele>
        <time>2021-05-20T13:24:29Z</time>
      </trkpt>
      <trkpt lat="42.2557750" lon="-8.6726200">
        <ele>157.6</ele>
        <time>2021-05-20T13:24:30Z</time>
      </trkpt>
      <trkpt lat="42.2557960" lon="-8.6726020">
        <ele>157.6</ele>
        <time>2021-05-20T13:24:31Z</time>
      </trkpt>
      <trkpt lat="42.2558040" lon="-8.6725980">
        <ele>157.5</ele>
        <time>2021-05-20T13:24:32Z</time>
      </trkpt>
      <trkpt lat="42.2558120" lon="-8.6725950">
        <ele>157.5</ele>
        <time>2021-05-20T13:24:33Z</time>
      </trkpt>
      <trkpt lat="42.2558210" lon="-8.6725920">
        <ele>157.5</ele>
        <time>2021-05-20T13:24:34Z</time>
      </trkpt>
      <trkpt lat="42.2558340" lon="-8.6725890">
        <ele>157.5</ele>
        <time>2021-05-20T13:24:35Z</time>
      </trkpt>
      <trkpt lat="42.2558430" lon="-8.6725840">
        <ele>157.5</ele>
        <time>2021-05-20T13:24:36Z</time>
      </trkpt>
      <trkpt lat="42.2558470" lon="-8.6725840">
        <ele>157.5</ele>
        <time>2021-05-20T13:24:37Z</time>
      </trkpt>
      <trkpt lat="42.2558530" lon="-8.6725790">
        <ele>157.5</ele>
        <time>2021-05-20T13:24:38Z</time>
      </trkpt>
      <trkpt lat="42.2558720" lon="-8.6725770">
        <ele>157.4</ele>
        <time>2021-05-20T13:24:39Z</time>
      </trkpt>
      <trkpt lat="42.2558820" lon="-8.6725710">
        <ele>157.4</ele>
        <time>2021-05-20T13:24:40Z</time>
      </trkpt>
      <trkpt lat="42.2559000" lon="-8.6725610">
        <ele>157.4</ele>
        <time>2021-05-20T13:24:41Z</time>
      </trkpt>
      <trkpt lat="42.2559160" lon="-8.6725450">
        <ele>157.4</ele>
        <time>2021-05-20T13:24:42Z</time>
      </trkpt>
      <trkpt lat="42.2559250" lon="-8.6725360">
        <ele>157.3</ele>
        <time>2021-05-20T13:24:43Z</time>
      </trkpt>
      <trkpt lat="42.2559330" lon="-8.6725280">
        <ele>157.3</ele>
        <time>2021-05-20T13:24:44Z</time>
      </trkpt>
      <trkpt lat="42.2559540" lon="-8.6725110">
        <ele>157.3</ele>
        <time>2021-05-20T13:24:45Z</time>
      </trkpt>
      <trkpt lat="42.2559610" lon="-8.6725080">
        <ele>157.3</ele>
        <time>2021-05-20T13:24:46Z</time>
      </trkpt>
      <trkpt lat="42.2559690" lon="-8.6725040">
        <ele>157.3</ele>
        <time>2021-05-20T13:24:47Z</time>
      </trkpt>
      <trkpt lat="42.2559910" lon="-8.6724910">
        <ele>157.2</ele>
        <time>2021-05-20T13:24:48Z</time>
      </trkpt>
      <trkpt lat="42.2560020" lon="-8.6724850">
        <ele>157.2</ele>
        <time>2021-05-20T13:24:49Z</time>
      </trkpt>
      <trkpt lat="42.2560120" lon="-8.6724800">
        <ele>157.2</ele>
        <time>2021-05-20T13:24:50Z</time>
      </trkpt>
      <trkpt lat="42.2560310" lon="-8.6724690">
        <ele>157.2</ele>
        <time>2021-05-20T13:24:51Z</time>
      </trkpt>
      <trkpt lat="42.2560410" lon="-8.6724630">
        <ele>157.2</ele>
        <time>2021-05-20T13:24:52Z</time>
      </trkpt>
      <trkpt lat="42.2560500" lon="-8.6724570">
        <ele>157.1</ele>
        <time>2021-05-20T13:24:53Z</time>
      </trkpt>
      <trkpt lat="42.2560670" lon="-8.6724480">
        <ele>157.1</ele>
        <time>2021-05-20T13:24:54Z</time>
      </trkpt>
      <trkpt lat="42.2560790" lon="-8.6724440">
        <ele>157.1</ele>
        <time>2021-05-20T13:24:55Z</time>
      </trkpt>
      <trkpt lat="42.2560920" lon="-8.6724400">
        <ele>157.1</ele>
        <time>2021-05-20T13:24:56Z</time>
      </trkpt>
      <trkpt lat="42.2561050" lon="-8.6724320">
        <ele>157.1</ele>
        <time>2021-05-20T13:24:57Z</time>
      </trkpt>
      <trkpt lat="42.2561110" lon="-8.6724250">
        <ele>157.1</ele>
        <time>2021-05-20T13:24:58Z</time>
      </trkpt>
      <trkpt lat="42.2561310" lon="-8.6724060">
        <ele>157.1</ele>
        <time>2021-05-20T13:24:59Z</time>
      </trkpt>
      <trkpt lat="42.2561410" lon="-8.6723990">
        <ele>157.1</ele>
        <time>2021-05-20T13:25:00Z</time>
      </trkpt>
      <trkpt lat="42.2561530" lon="-8.6723960">
        <ele>157.1</ele>
        <time>2021-05-20T13:25:01Z</time>
      </trkpt>
      <trkpt lat="42.2561610" lon="-8.6723880">
        <ele>157.1</ele>
        <time>2021-05-20T13:25:02Z</time>
      </trkpt>
      <trkpt lat="42.2561730" lon="-8.6723870">
        <ele>157.1</ele>
        <time>2021-05-20T13:25:03Z</time>
      </trkpt>
      <trkpt lat="42.2561880" lon="-8.6723850">
        <ele>157.1</ele>
        <time>2021-05-20T13:25:04Z</time>
      </trkpt>
      <trkpt lat="42.2561960" lon="-8.6723830">
        <ele>157.1</ele>
        <time>2021-05-20T13:25:05Z</time>
      </trkpt>
      <trkpt lat="42.2562030" lon="-8.6723820">
        <ele>157.1</ele>
        <time>2021-05-20T13:25:06Z</time>
      </trkpt>
      <trkpt lat="42.2562110" lon="-8.6723800">
        <ele>157.1</ele>
        <time>2021-05-20T13:25:07Z</time>
      </trkpt>
      <trkpt lat="42.2562320" lon="-8.6723730">
        <ele>157.1</ele>
        <time>2021-05-20T13:25:08Z</time>
      </trkpt>
      <trkpt lat="42.2562400" lon="-8.6723710">
        <ele>157.1</ele>
        <time>2021-05-20T13:25:09Z</time>
      </trkpt>
      <trkpt lat="42.2562490" lon="-8.6723680">
        <ele>157.1</ele>
        <time>2021-05-20T13:25:10Z</time>
      </trkpt>
      <trkpt lat="42.2562730" lon="-8.6723660">
        <ele>157.1</ele>
        <time>2021-05-20T13:25:11Z</time>
      </trkpt>
      <trkpt lat="42.2562820" lon="-8.6723640">
        <ele>157.1</ele>
        <time>2021-05-20T13:25:12Z</time>
      </trkpt>
      <trkpt lat="42.2562910" lon="-8.6723630">
        <ele>157.1</ele>
        <time>2021-05-20T13:25:13Z</time>
      </trkpt>
      <trkpt lat="42.2562970" lon="-8.6723630">
        <ele>157.1</ele>
        <time>2021-05-20T13:25:14Z</time>
      </trkpt>
      <trkpt lat="42.2563070" lon="-8.6723570">
        <ele>157.1</ele>
        <time>2021-05-20T13:25:15Z</time>
      </trkpt>
      <trkpt lat="42.2563210" lon="-8.6723650">
        <ele>157.1</ele>
        <time>2021-05-20T13:25:16Z</time>
      </trkpt>
      <trkpt lat="42.2563440" lon="-8.6723570">
        <ele>157.1</ele>
        <time>2021-05-20T13:25:17Z</time>
      </trkpt>
      <trkpt lat="42.2563510" lon="-8.6723560">
        <ele>157.1</ele>
        <time>2021-05-20T13:25:18Z</time>
      </trkpt>
      <trkpt lat="42.2563570" lon="-8.6723550">
        <ele>157.1</ele>
        <time>2021-05-20T13:25:19Z</time>
      </trkpt>
      <trkpt lat="42.2563640" lon="-8.6723500">
        <ele>157.1</ele>
        <time>2021-05-20T13:25:20Z</time>
      </trkpt>
      <trkpt lat="42.2563720" lon="-8.6723470">
        <ele>157.1</ele>
        <time>2021-05-20T13:25:21Z</time>
      </trkpt>
      <trkpt lat="42.2563860" lon="-8.6723460">
        <ele>157.1</ele>
        <time>2021-05-20T13:25:22Z</time>
      </trkpt>
      <trkpt lat="42.2563960" lon="-8.6723500">
        <ele>157.1</ele>
        <time>2021-05-20T13:25:23Z</time>
      </trkpt>
      <trkpt lat="42.2564010" lon="-8.6723460">
        <ele>157.1</ele>
        <time>2021-05-20T13:25:24Z</time>
      </trkpt>
      <trkpt lat="42.2564090" lon="-8.6723380">
        <ele>157.1</ele>
        <time>2021-05-20T13:25:25Z</time>
      </trkpt>
      <trkpt lat="42.2564160" lon="-8.6723360">
        <ele>157.1</ele>
        <time>2021-05-20T13:25:26Z</time>
      </trkpt>
      <trkpt lat="42.2564270" lon="-8.6723340">
        <ele>157.1</ele>
        <time>2021-05-20T13:25:27Z</time>
      </trkpt>
      <trkpt lat="42.2564340" lon="-8.6723290">
        <ele>157.1</ele>
        <time>2021-05-20T13:25:28Z</time>
      </trkpt>
      <trkpt lat="42.2564430" lon="-8.6723260">
        <ele>157.1</ele>
        <time>2021-05-20T13:25:29Z</time>
      </trkpt>
      <trkpt lat="42.2564540" lon="-8.6723180">
        <ele>157.1</ele>
        <time>2021-05-20T13:25:30Z</time>
      </trkpt>
      <trkpt lat="42.2564750" lon="-8.6723180">
        <ele>157.1</ele>
        <time>2021-05-20T13:25:31Z</time>
      </trkpt>
      <trkpt lat="42.2564860" lon="-8.6723140">
        <ele>157.1</ele>
        <time>2021-05-20T13:25:32Z</time>
      </trkpt>
      <trkpt lat="42.2564860" lon="-8.6723100">
        <ele>157.1</ele>
        <time>2021-05-20T13:25:33Z</time>
      </trkpt>
      <trkpt lat="42.2565040" lon="-8.6723030">
        <ele>157.1</ele>
        <time>2021-05-20T13:25:34Z</time>
      </trkpt>
      <trkpt lat="42.2565110" lon="-8.6722980">
        <ele>157.2</ele>
        <time>2021-05-20T13:25:35Z</time>
      </trkpt>
      <trkpt lat="42.2565270" lon="-8.6722970">
        <ele>157.2</ele>
        <time>2021-05-20T13:25:36Z</time>
      </trkpt>
      <trkpt lat="42.2565330" lon="-8.6722870">
        <ele>157.2</ele>
        <time>2021-05-20T13:25:37Z</time>
      </trkpt>
      <trkpt lat="42.2565440" lon="-8.6722810">
        <ele>157.2</ele>
        <time>2021-05-20T13:25:38Z</time>
      </trkpt>
      <trkpt lat="42.2565570" lon="-8.6722740">
        <ele>157.2</ele>
        <time>2021-05-20T13:25:39Z</time>
      </trkpt>
      <trkpt lat="42.2565630" lon="-8.6722700">
        <ele>157.2</ele>
        <time>2021-05-20T13:25:40Z</time>
      </trkpt>
      <trkpt lat="42.2565750" lon="-8.6722640">
        <ele>157.3</ele>
        <time>2021-05-20T13:25:41Z</time>
      </trkpt>
      <trkpt lat="42.2565910" lon="-8.6722680">
        <ele>157.3</ele>
        <time>2021-05-20T13:25:42Z</time>
      </trkpt>
      <trkpt lat="42.2566110" lon="-8.6722610">
        <ele>157.3</ele>
        <time>2021-05-20T13:25:43Z</time>
      </trkpt>
      <trkpt lat="42.2566190" lon="-8.6722570">
        <ele>157.3</ele>
        <time>2021-05-20T13:25:44Z</time>
      </trkpt>
      <trkpt lat="42.2566280" lon="-8.6722530">
        <ele>157.4</ele>
        <time>2021-05-20T13:25:45Z</time>
      </trkpt>
      <trkpt lat="42.2566470" lon="-8.6722470">
        <ele>157.4</ele>
        <time>2021-05-20T13:25:46Z</time>
      </trkpt>
      <trkpt lat="42.2566580" lon="-8.6722410">
        <ele>157.4</ele>
        <time>2021-05-20T13:25:47Z</time>
      </trkpt>
      <trkpt lat="42.2566680" lon="-8.6722340">
        <ele>157.4</ele>
        <time>2021-05-20T13:25:48Z</time>
      </trkpt>
      <trkpt lat="42.2566780" lon="-8.6722250">
        <ele>157.5</ele>
        <time>2021-05-20T13:25:49Z</time>
      </trkpt>
      <trkpt lat="42.2566880" lon="-8.6722130">
        <ele>157.5</ele>
        <time>2021-05-20T13:25:50Z</time>
      </trkpt>
      <trkpt lat="42.2566920" lon="-8.6722140">
        <ele>157.5</ele>
        <time>2021-05-20T13:25:51Z</time>
      </trkpt>
      <trkpt lat="42.2567070" lon="-8.6722040">
        <ele>157.5</ele>
        <time>2021-05-20T13:25:52Z</time>
      </trkpt>
      <trkpt lat="42.2567140" lon="-8.6721920">
        <ele>157.5</ele>
        <time>2021-05-20T13:25:53Z</time>
      </trkpt>
      <trkpt lat="42.2567250" lon="-8.6721910">
        <ele>157.6</ele>
        <time>2021-05-20T13:25:54Z</time>
      </trkpt>
      <trkpt lat="42.2567390" lon="-8.6721910">
        <ele>157.6</ele>
        <time>2021-05-20T13:25:55Z</time>
      </trkpt>
      <trkpt lat="42.2567440" lon="-8.6721930">
        <ele>157.6</ele>
        <time>2021-05-20T13:25:56Z</time>
      </trkpt>
      <trkpt lat="42.2567640" lon="-8.6721850">
        <ele>157.7</ele>
        <time>2021-05-20T13:25:57Z</time>
      </trkpt>
      <trkpt lat="42.2567730" lon="-8.6721780">
        <ele>157.7</ele>
        <time>2021-05-20T13:25:58Z</time>
      </trkpt>
      <trkpt lat="42.2567810" lon="-8.6721800">
        <ele>157.7</ele>
        <time>2021-05-20T13:25:59Z</time>
      </trkpt>
      <trkpt lat="42.2567990" lon="-8.6721800">
        <ele>157.7</ele>
        <time>2021-05-20T13:26:00Z</time>
      </trkpt>
      <trkpt lat="42.2568060" lon="-8.6721780">
        <ele>157.7</ele>
        <time>2021-05-20T13:26:01Z</time>
      </trkpt>
      <trkpt lat="42.2568220" lon="-8.6721770">
        <ele>157.8</ele>
        <time>2021-05-20T13:26:02Z</time>
      </trkpt>
      <trkpt lat="42.2568300" lon="-8.6721770">
        <ele>157.8</ele>
        <time>2021-05-20T13:26:03Z</time>
      </trkpt>
      <trkpt lat="42.2568370" lon="-8.6721760">
        <ele>157.8</ele>
        <time>2021-05-20T13:26:04Z</time>
      </trkpt>
      <trkpt lat="42.2568450" lon="-8.6721750">
        <ele>157.8</ele>
        <time>2021-05-20T13:26:05Z</time>
      </trkpt>
      <trkpt lat="42.2568760" lon="-8.6721690">
        <ele>157.9</ele>
        <time>2021-05-20T13:26:06Z</time>
      </trkpt>
      <trkpt lat="42.2568860" lon="-8.6721660">
        <ele>157.9</ele>
        <time>2021-05-20T13:26:07Z</time>
      </trkpt>
      <trkpt lat="42.2569060" lon="-8.6721560">
        <ele>158.0</ele>
        <time>2021-05-20T13:26:08Z</time>
      </trkpt>
      <trkpt lat="42.2569150" lon="-8.6721510">
        <ele>158.0</ele>
        <time>2021-05-20T13:26:09Z</time>
      </trkpt>
      <trkpt lat="42.2569230" lon="-8.6721450">
        <ele>158.0</ele>
        <time>2021-05-20T13:26:10Z</time>
      </trkpt>
      <trkpt lat="42.2569420" lon="-8.6721390">
        <ele>158.0</ele>
        <time>2021-05-20T13:26:11Z</time>
      </trkpt>
      <trkpt lat="42.2569530" lon="-8.6721300">
        <ele>158.1</ele>
        <time>2021-05-20T13:26:12Z</time>
      </trkpt>
      <trkpt lat="42.2569630" lon="-8.6721220">
        <ele>158.1</ele>
        <time>2021-05-20T13:26:13Z</time>
      </trkpt>
      <trkpt lat="42.2569710" lon="-8.6721160">
        <ele>158.1</ele>
        <time>2021-05-20T13:26:14Z</time>
      </trkpt>
      <trkpt lat="42.2569830" lon="-8.6721070">
        <ele>158.1</ele>
        <time>2021-05-20T13:26:16Z</time>
      </trkpt>
      <trkpt lat="42.2569930" lon="-8.6720970">
        <ele>158.2</ele>
        <time>2021-05-20T13:26:17Z</time>
      </trkpt>
      <trkpt lat="42.2570020" lon="-8.6720900">
        <ele>158.2</ele>
        <time>2021-05-20T13:26:18Z</time>
      </trkpt>
      <trkpt lat="42.2570130" lon="-8.6720810">
        <ele>158.2</ele>
        <time>2021-05-20T13:26:19Z</time>
      </trkpt>
      <trkpt lat="42.2570320" lon="-8.6720660">
        <ele>158.2</ele>
        <time>2021-05-20T13:26:20Z</time>
      </trkpt>
      <trkpt lat="42.2570410" lon="-8.6720570">
        <ele>158.3</ele>
        <time>2021-05-20T13:26:21Z</time>
      </trkpt>
      <trkpt lat="42.2570500" lon="-8.6720480">
        <ele>158.3</ele>
        <time>2021-05-20T13:26:22Z</time>
      </trkpt>
      <trkpt lat="42.2570650" lon="-8.6720400">
        <ele>158.3</ele>
        <time>2021-05-20T13:26:23Z</time>
      </trkpt>
      <trkpt lat="42.2570780" lon="-8.6720270">
        <ele>158.3</ele>
        <time>2021-05-20T13:26:24Z</time>
      </trkpt>
      <trkpt lat="42.2570970" lon="-8.6720270">
        <ele>158.3</ele>
        <time>2021-05-20T13:26:25Z</time>
      </trkpt>
      <trkpt lat="42.2571010" lon="-8.6720260">
        <ele>158.3</ele>
        <time>2021-05-20T13:26:26Z</time>
      </trkpt>
      <trkpt lat="42.2571100" lon="-8.6720140">
        <ele>158.3</ele>
        <time>2021-05-20T13:26:27Z</time>
      </trkpt>
      <trkpt lat="42.2571250" lon="-8.6719930">
        <ele>158.3</ele>
        <time>2021-05-20T13:26:28Z</time>
      </trkpt>
      <trkpt lat="42.2571340" lon="-8.6719870">
        <ele>158.3</ele>
        <time>2021-05-20T13:26:29Z</time>
      </trkpt>
      <trkpt lat="42.2571430" lon="-8.6719800">
        <ele>158.3</ele>
        <time>2021-05-20T13:26:30Z</time>
      </trkpt>
      <trkpt lat="42.2571500" lon="-8.6719720">
        <ele>158.3</ele>
        <time>2021-05-20T13:26:31Z</time>
      </trkpt>
      <trkpt lat="42.2571650" lon="-8.6719570">
        <ele>158.3</ele>
        <time>2021-05-20T13:26:32Z</time>
      </trkpt>
      <trkpt lat="42.2571880" lon="-8.6719330">
        <ele>158.3</ele>
        <time>2021-05-20T13:26:33Z</time>
      </trkpt>
      <trkpt lat="42.2571980" lon="-8.6719250">
        <ele>158.3</ele>
        <time>2021-05-20T13:26:34Z</time>
      </trkpt>
      <trkpt lat="42.2572050" lon="-8.6719240">
        <ele>158.3</ele>
        <time>2021-05-20T13:26:35Z</time>
      </trkpt>
      <trkpt lat="42.2572210" lon="-8.6719220">
        <ele>158.3</ele>
        <time>2021-05-20T13:26:36Z</time>
      </trkpt>
      <trkpt lat="42.2572260" lon="-8.6719140">
        <ele>158.3</ele>
        <time>2021-05-20T13:26:37Z</time>
      </trkpt>
      <trkpt lat="42.2572370" lon="-8.6719060">
        <ele>158.3</ele>
        <time>2021-05-20T13:26:38Z</time>
      </trkpt>
      <trkpt lat="42.2572390" lon="-8.6719040">
        <ele>158.3</ele>
        <time>2021-05-20T13:26:39Z</time>
      </trkpt>
      <trkpt lat="42.2572590" lon="-8.6719110">
        <ele>158.3</ele>
        <time>2021-05-20T13:26:40Z</time>
      </trkpt>
      <trkpt lat="42.2572790" lon="-8.6719050">
        <ele>158.2</ele>
        <time>2021-05-20T13:26:41Z</time>
      </trkpt>
      <trkpt lat="42.2572820" lon="-8.6719070">
        <ele>158.2</ele>
        <time>2021-05-20T13:26:42Z</time>
      </trkpt>
      <trkpt lat="42.2572920" lon="-8.6719040">
        <ele>158.2</ele>
        <time>2021-05-20T13:26:43Z</time>
      </trkpt>
      <trkpt lat="42.2573090" lon="-8.6718870">
        <ele>158.2</ele>
        <time>2021-05-20T13:26:44Z</time>
      </trkpt>
      <trkpt lat="42.2573170" lon="-8.6718810">
        <ele>158.2</ele>
        <time>2021-05-20T13:26:45Z</time>
      </trkpt>
      <trkpt lat="42.2573240" lon="-8.6718740">
        <ele>158.2</ele>
        <time>2021-05-20T13:26:46Z</time>
      </trkpt>
      <trkpt lat="42.2573400" lon="-8.6718790">
        <ele>158.2</ele>
        <time>2021-05-20T13:26:47Z</time>
      </trkpt>
      <trkpt lat="42.2573520" lon="-8.6718790">
        <ele>158.2</ele>
        <time>2021-05-20T13:26:48Z</time>
      </trkpt>
      <trkpt lat="42.2573590" lon="-8.6718780">
        <ele>158.2</ele>
        <time>2021-05-20T13:26:49Z</time>
      </trkpt>
      <trkpt lat="42.2573660" lon="-8.6718620">
        <ele>158.2</ele>
        <time>2021-05-20T13:26:50Z</time>
      </trkpt>
      <trkpt lat="42.2573660" lon="-8.6718620">
        <ele>158.2</ele>
        <time>2021-05-20T13:26:51Z</time>
      </trkpt>
      <trkpt lat="42.2573760" lon="-8.6718470">
        <ele>158.2</ele>
        <time>2021-05-20T13:26:52Z</time>
      </trkpt>
      <trkpt lat="42.2573900" lon="-8.6718390">
        <ele>158.2</ele>
        <time>2021-05-20T13:26:53Z</time>
      </trkpt>
      <trkpt lat="42.2574050" lon="-8.6718300">
        <ele>158.2</ele>
        <time>2021-05-20T13:26:54Z</time>
      </trkpt>
      <trkpt lat="42.2574150" lon="-8.6718230">
        <ele>158.2</ele>
        <time>2021-05-20T13:26:55Z</time>
      </trkpt>
      <trkpt lat="42.2574270" lon="-8.6718280">
        <ele>158.2</ele>
        <time>2021-05-20T13:26:56Z</time>
      </trkpt>
      <trkpt lat="42.2574390" lon="-8.6718240">
        <ele>158.1</ele>
        <time>2021-05-20T13:26:57Z</time>
      </trkpt>
      <trkpt lat="42.2574620" lon="-8.6718150">
        <ele>158.1</ele>
        <time>2021-05-20T13:26:58Z</time>
      </trkpt>
      <trkpt lat="42.2574710" lon="-8.6718120">
        <ele>158.1</ele>
        <time>2021-05-20T13:26:59Z</time>
      </trkpt>
      <trkpt lat="42.2574800" lon="-8.6718090">
        <ele>158.1</ele>
        <time>2021-05-20T13:27:00Z</time>
      </trkpt>
      <trkpt lat="42.2575060" lon="-8.6717920">
        <ele>158.1</ele>
        <time>2021-05-20T13:27:01Z</time>
      </trkpt>
      <trkpt lat="42.2575150" lon="-8.6717900">
        <ele>158.1</ele>
        <time>2021-05-20T13:27:02Z</time>
      </trkpt>
      <trkpt lat="42.2575240" lon="-8.6717840">
        <ele>158.1</ele>
        <time>2021-05-20T13:27:03Z</time>
      </trkpt>
      <trkpt lat="42.2575420" lon="-8.6717840">
        <ele>158.1</ele>
        <time>2021-05-20T13:27:04Z</time>
      </trkpt>
      <trkpt lat="42.2575660" lon="-8.6717750">
        <ele>158.1</ele>
        <time>2021-05-20T13:27:05Z</time>
      </trkpt>
      <trkpt lat="42.2575670" lon="-8.6717690">
        <ele>158.1</ele>
        <time>2021-05-20T13:27:06Z</time>
      </trkpt>
      <trkpt lat="42.2575890" lon="-8.6717610">
        <ele>158.1</ele>
        <time>2021-05-20T13:27:07Z</time>
      </trkpt>
      <trkpt lat="42.2576010" lon="-8.6717600">
        <ele>158.1</ele>
        <time>2021-05-20T13:27:08Z</time>
      </trkpt>
      <trkpt lat="42.2576130" lon="-8.6717600">
        <ele>158.1</ele>
        <time>2021-05-20T13:27:09Z</time>
      </trkpt>
      <trkpt lat="42.2576200" lon="-8.6717580">
        <ele>158.1</ele>
        <time>2021-05-20T13:27:10Z</time>
      </trkpt>
      <trkpt lat="42.2576310" lon="-8.6717520">
        <ele>158.1</ele>
        <time>2021-05-20T13:27:11Z</time>
      </trkpt>
      <trkpt lat="42.2576440" lon="-8.6717500">
        <ele>158.1</ele>
        <time>2021-05-20T13:27:12Z</time>
      </trkpt>
      <trkpt lat="42.2576540" lon="-8.6717450">
        <ele>158.1</ele>
        <time>2021-05-20T13:27:13Z</time>
      </trkpt>
      <trkpt lat="42.2576670" lon="-8.6717460">
        <ele>158.1</ele>
        <time>2021-05-20T13:27:14Z</time>
      </trkpt>
      <trkpt lat="42.2576790" lon="-8.6717460">
        <ele>158.1</ele>
        <time>2021-05-20T13:27:15Z</time>
      </trkpt>
      <trkpt lat="42.2576850" lon="-8.6717440">
        <ele>158.1</ele>
        <time>2021-05-20T13:27:16Z</time>
      </trkpt>
      <trkpt lat="42.2577070" lon="-8.6717430">
        <ele>158.1</ele>
        <time>2021-05-20T13:27:17Z</time>
      </trkpt>
      <trkpt lat="42.2577210" lon="-8.6717360">
        <ele>158.0</ele>
        <time>2021-05-20T13:27:18Z</time>
      </trkpt>
      <trkpt lat="42.2577300" lon="-8.6717290">
        <ele>158.0</ele>
        <time>2021-05-20T13:27:19Z</time>
      </trkpt>
      <trkpt lat="42.2577400" lon="-8.6717350">
        <ele>158.0</ele>
        <time>2021-05-20T13:27:20Z</time>
      </trkpt>
      <trkpt lat="42.2577560" lon="-8.6717290">
        <ele>158.0</ele>
        <time>2021-05-20T13:27:21Z</time>
      </trkpt>
      <trkpt lat="42.2577700" lon="-8.6717220">
        <ele>158.0</ele>
        <time>2021-05-20T13:27:22Z</time>
      </trkpt>
      <trkpt lat="42.2577880" lon="-8.6717160">
        <ele>158.0</ele>
        <time>2021-05-20T13:27:23Z</time>
      </trkpt>
      <trkpt lat="42.2578010" lon="-8.6717100">
        <ele>158.0</ele>
        <time>2021-05-20T13:27:24Z</time>
      </trkpt>
      <trkpt lat="42.2578060" lon="-8.6717090">
        <ele>158.0</ele>
        <time>2021-05-20T13:27:25Z</time>
      </trkpt>
      <trkpt lat="42.2578240" lon="-8.6716980">
        <ele>158.0</ele>
        <time>2021-05-20T13:27:26Z</time>
      </trkpt>
      <trkpt lat="42.2578320" lon="-8.6716920">
        <ele>158.0</ele>
        <time>2021-05-20T13:27:27Z</time>
      </trkpt>
      <trkpt lat="42.2578450" lon="-8.6716920">
        <ele>158.0</ele>
        <time>2021-05-20T13:27:28Z</time>
      </trkpt>
      <trkpt lat="42.2578600" lon="-8.6716840">
        <ele>158.0</ele>
        <time>2021-05-20T13:27:29Z</time>
      </trkpt>
      <trkpt lat="42.2578850" lon="-8.6716710">
        <ele>158.0</ele>
        <time>2021-05-20T13:27:30Z</time>
      </trkpt>
      <trkpt lat="42.2578950" lon="-8.6716660">
        <ele>158.0</ele>
        <time>2021-05-20T13:27:31Z</time>
      </trkpt>
      <trkpt lat="42.2579130" lon="-8.6716570">
        <ele>158.0</ele>
        <time>2021-05-20T13:27:32Z</time>
      </trkpt>
      <trkpt lat="42.2579270" lon="-8.6716480">
        <ele>158.0</ele>
        <time>2021-05-20T13:27:33Z</time>
      </trkpt>
      <trkpt lat="42.2579430" lon="-8.6716360">
        <ele>158.0</ele>
        <time>2021-05-20T13:27:34Z</time>
      </trkpt>
      <trkpt lat="42.2579590" lon="-8.6716290">
        <ele>158.0</ele>
        <time>2021-05-20T13:27:35Z</time>
      </trkpt>
      <trkpt lat="42.2579740" lon="-8.6716270">
        <ele>157.9</ele>
        <time>2021-05-20T13:27:36Z</time>
      </trkpt>
      <trkpt lat="42.2579840" lon="-8.6716280">
        <ele>157.9</ele>
        <time>2021-05-20T13:27:37Z</time>
      </trkpt>
      <trkpt lat="42.2579830" lon="-8.6716270">
        <ele>157.9</ele>
        <time>2021-05-20T13:27:38Z</time>
      </trkpt>
      <trkpt lat="42.2579690" lon="-8.6716250">
        <ele>157.9</ele>
        <time>2021-05-20T13:27:39Z</time>
      </trkpt>
      <trkpt lat="42.2579670" lon="-8.6716210">
        <ele>157.9</ele>
        <time>2021-05-20T13:27:40Z</time>
      </trkpt>
      <trkpt lat="42.2579580" lon="-8.6716270">
        <ele>157.9</ele>
        <time>2021-05-20T13:27:41Z</time>
      </trkpt>
      <trkpt lat="42.2579510" lon="-8.6716240">
        <ele>157.9</ele>
        <time>2021-05-20T13:27:42Z</time>
      </trkpt>
      <trkpt lat="42.2579470" lon="-8.6716260">
        <ele>157.9</ele>
        <time>2021-05-20T13:27:43Z</time>
      </trkpt>
      <trkpt lat="42.2579460" lon="-8.6716250">
        <ele>157.9</ele>
        <time>2021-05-20T13:27:44Z</time>
      </trkpt>
      <trkpt lat="42.2579410" lon="-8.6716290">
        <ele>157.9</ele>
        <time>2021-05-20T13:27:45Z</time>
      </trkpt>
      <trkpt lat="42.2579380" lon="-8.6716340">
        <ele>157.9</ele>
        <time>2021-05-20T13:27:46Z</time>
      </trkpt>
      <trkpt lat="42.2579370" lon="-8.6716320">
        <ele>157.9</ele>
        <time>2021-05-20T13:27:47Z</time>
      </trkpt>
      <trkpt lat="42.2579340" lon="-8.6716280">
        <ele>157.9</ele>
        <time>2021-05-20T13:27:48Z</time>
      </trkpt>
      <trkpt lat="42.2579410" lon="-8.6716310">
        <ele>157.9</ele>
        <time>2021-05-20T13:27:49Z</time>
      </trkpt>
      <trkpt lat="42.2579510" lon="-8.6716320">
        <ele>157.9</ele>
        <time>2021-05-20T13:27:50Z</time>
      </trkpt>
      <trkpt lat="42.2579620" lon="-8.6716190">
        <ele>157.9</ele>
        <time>2021-05-20T13:27:51Z</time>
      </trkpt>
      <trkpt lat="42.2579760" lon="-8.6716050">
        <ele>157.8</ele>
        <time>2021-05-20T13:27:52Z</time>
      </trkpt>
      <trkpt lat="42.2579840" lon="-8.6716070">
        <ele>157.8</ele>
        <time>2021-05-20T13:27:53Z</time>
      </trkpt>
      <trkpt lat="42.2579960" lon="-8.6715890">
        <ele>157.8</ele>
        <time>2021-05-20T13:27:54Z</time>
      </trkpt>
      <trkpt lat="42.2580010" lon="-8.6715720">
        <ele>157.8</ele>
        <time>2021-05-20T13:27:55Z</time>
      </trkpt>
      <trkpt lat="42.2580200" lon="-8.6715500">
        <ele>157.8</ele>
        <time>2021-05-20T13:27:56Z</time>
      </trkpt>
      <trkpt lat="42.2580240" lon="-8.6715430">
        <ele>157.8</ele>
        <time>2021-05-20T13:27:57Z</time>
      </trkpt>
      <trkpt lat="42.2580290" lon="-8.6715350">
        <ele>157.8</ele>
        <time>2021-05-20T13:27:58Z</time>
      </trkpt>
      <trkpt lat="42.2580370" lon="-8.6715230">
        <ele>157.8</ele>
        <time>2021-05-20T13:28:00Z</time>
      </trkpt>
      <trkpt lat="42.2580510" lon="-8.6715100">
        <ele>157.8</ele>
        <time>2021-05-20T13:28:01Z</time>
      </trkpt>
      <trkpt lat="42.2580570" lon="-8.6714990">
        <ele>157.7</ele>
        <time>2021-05-20T13:28:02Z</time>
      </trkpt>
      <trkpt lat="42.2580670" lon="-8.6714860">
        <ele>157.7</ele>
        <time>2021-05-20T13:28:03Z</time>
      </trkpt>
      <trkpt lat="42.2580710" lon="-8.6714690">
        <ele>157.7</ele>
        <time>2021-05-20T13:28:04Z</time>
      </trkpt>
      <trkpt lat="42.2580810" lon="-8.6714550">
        <ele>157.7</ele>
        <time>2021-05-20T13:28:05Z</time>
      </trkpt>
      <trkpt lat="42.2580930" lon="-8.6714420">
        <ele>157.7</ele>
        <time>2021-05-20T13:28:06Z</time>
      </trkpt>
      <trkpt lat="42.2581030" lon="-8.6714340">
        <ele>157.7</ele>
        <time>2021-05-20T13:28:07Z</time>
      </trkpt>
      <trkpt lat="42.2581180" lon="-8.6714280">
        <ele>157.7</ele>
        <time>2021-05-20T13:28:08Z</time>
      </trkpt>
      <trkpt lat="42.2581280" lon="-8.6714100">
        <ele>157.7</ele>
        <time>2021-05-20T13:28:09Z</time>
      </trkpt>
      <trkpt lat="42.2581380" lon="-8.6713980">
        <ele>157.7</ele>
        <time>2021-05-20T13:28:10Z</time>
      </trkpt>
      <trkpt lat="42.2581470" lon="-8.6713880">
        <ele>157.7</ele>
        <time>2021-05-20T13:28:11Z</time>
      </trkpt>
      <trkpt lat="42.2581580" lon="-8.6713770">
        <ele>157.7</ele>
        <time>2021-05-20T13:28:12Z</time>
      </trkpt>
      <trkpt lat="42.2581620" lon="-8.6713670">
        <ele>157.7</ele>
        <time>2021-05-20T13:28:13Z</time>
      </trkpt>
      <trkpt lat="42.2581750" lon="-8.6713520">
        <ele>157.7</ele>
        <time>2021-05-20T13:28:14Z</time>
      </trkpt>
      <trkpt lat="42.2581800" lon="-8.6713370">
        <ele>157.7</ele>
        <time>2021-05-20T13:28:15Z</time>
      </trkpt>
      <trkpt lat="42.2581920" lon="-8.6713160">
        <ele>157.7</ele>
        <time>2021-05-20T13:28:16Z</time>
      </trkpt>
      <trkpt lat="42.2581980" lon="-8.6713080">
        <ele>157.7</ele>
        <time>2021-05-20T13:28:17Z</time>
      </trkpt>
      <trkpt lat="42.2582050" lon="-8.6712990">
        <ele>157.7</ele>
        <time>2021-05-20T13:28:18Z</time>
      </trkpt>
      <trkpt lat="42.2582230" lon="-8.6712930">
        <ele>157.7</ele>
        <time>2021-05-20T13:28:19Z</time>
      </trkpt>
      <trkpt lat="42.2582310" lon="-8.6712830">
        <ele>157.7</ele>
        <time>2021-05-20T13:28:20Z</time>
      </trkpt>
      <trkpt lat="42.2582360" lon="-8.6712780">
        <ele>157.7</ele>
        <time>2021-05-20T13:28:21Z</time>
      </trkpt>
      <trkpt lat="42.2582410" lon="-8.6712710">
        <ele>157.7</ele>
        <time>2021-05-20T13:28:22Z</time>
      </trkpt>
      <trkpt lat="42.2582510" lon="-8.6712620">
        <ele>157.7</ele>
        <time>2021-05-20T13:28:23Z</time>
      </trkpt>
      <trkpt lat="42.2582570" lon="-8.6712560">
        <ele>157.7</ele>
        <time>2021-05-20T13:28:24Z</time>
      </trkpt>
      <trkpt lat="42.2582710" lon="-8.6712370">
        <ele>157.7</ele>
        <time>2021-05-20T13:28:25Z</time>
      </trkpt>
      <trkpt lat="42.2582800" lon="-8.6712260">
        <ele>157.7</ele>
        <time>2021-05-20T13:28:26Z</time>
      </trkpt>
      <trkpt lat="42.2582870" lon="-8.6712080">
        <ele>157.7</ele>
        <time>2021-05-20T13:28:27Z</time>
      </trkpt>
      <trkpt lat="42.2583050" lon="-8.6711920">
        <ele>157.7</ele>
        <time>2021-05-20T13:28:28Z</time>
      </trkpt>
      <trkpt lat="42.2583130" lon="-8.6711840">
        <ele>157.7</ele>
        <time>2021-05-20T13:28:29Z</time>
      </trkpt>
      <trkpt lat="42.2583190" lon="-8.6711730">
        <ele>157.7</ele>
        <time>2021-05-20T13:28:30Z</time>
      </trkpt>
      <trkpt lat="42.2583280" lon="-8.6711670">
        <ele>157.7</ele>
        <time>2021-05-20T13:28:31Z</time>
      </trkpt>
      <trkpt lat="42.2583380" lon="-8.6711520">
        <ele>157.7</ele>
        <time>2021-05-20T13:28:32Z</time>
      </trkpt>
      <trkpt lat="42.2583440" lon="-8.6711450">
        <ele>157.7</ele>
        <time>2021-05-20T13:28:33Z</time>
      </trkpt>
      <trkpt lat="42.2583480" lon="-8.6711350">
        <ele>157.7</ele>
        <time>2021-05-20T13:28:34Z</time>
      </trkpt>
      <trkpt lat="42.2583580" lon="-8.6711270">
        <ele>157.7</ele>
        <time>2021-05-20T13:28:35Z</time>
      </trkpt>
      <trkpt lat="42.2583690" lon="-8.6711150">
        <ele>157.7</ele>
        <time>2021-05-20T13:28:36Z</time>
      </trkpt>
      <trkpt lat="42.2583750" lon="-8.6711030">
        <ele>157.7</ele>
        <time>2021-05-20T13:28:37Z</time>
      </trkpt>
      <trkpt lat="42.2583960" lon="-8.6710910">
        <ele>157.8</ele>
        <time>2021-05-20T13:28:38Z</time>
      </trkpt>
      <trkpt lat="42.2584010" lon="-8.6710860">
        <ele>157.8</ele>
        <time>2021-05-20T13:28:39Z</time>
      </trkpt>
      <trkpt lat="42.2584070" lon="-8.6710800">
        <ele>157.8</ele>
        <time>2021-05-20T13:28:40Z</time>
      </trkpt>
      <trkpt lat="42.2584210" lon="-8.6710700">
        <ele>157.8</ele>
        <time>2021-05-20T13:28:41Z</time>
      </trkpt>
      <trkpt lat="42.2584300" lon="-8.6710580">
        <ele>157.8</ele>
        <time>2021-05-20T13:28:42Z</time>
      </trkpt>
      <trkpt lat="42.2584400" lon="-8.6710530">
        <ele>157.8</ele>
        <time>2021-05-20T13:28:43Z</time>
      </trkpt>
      <trkpt lat="42.2584540" lon="-8.6710400">
        <ele>157.8</ele>
        <time>2021-05-20T13:28:44Z</time>
      </trkpt>
      <trkpt lat="42.2584650" lon="-8.6710370">
        <ele>157.8</ele>
        <time>2021-05-20T13:28:45Z</time>
      </trkpt>
      <trkpt lat="42.2584780" lon="-8.6710260">
        <ele>157.8</ele>
        <time>2021-05-20T13:28:46Z</time>
      </trkpt>
      <trkpt lat="42.2584860" lon="-8.6710210">
        <ele>157.8</ele>
        <time>2021-05-20T13:28:47Z</time>
      </trkpt>
      <trkpt lat="42.2584960" lon="-8.6710110">
        <ele>157.8</ele>
        <time>2021-05-20T13:28:48Z</time>
      </trkpt>
      <trkpt lat="42.2585030" lon="-8.6710080">
        <ele>157.8</ele>
        <time>2021-05-20T13:28:49Z</time>
      </trkpt>
      <trkpt lat="42.2585140" lon="-8.6710020">
        <ele>157.9</ele>
        <time>2021-05-20T13:28:50Z</time>
      </trkpt>
      <trkpt lat="42.2585320" lon="-8.6709910">
        <ele>157.9</ele>
        <time>2021-05-20T13:28:51Z</time>
      </trkpt>
      <trkpt lat="42.2585370" lon="-8.6709800">
        <ele>157.9</ele>
        <time>2021-05-20T13:28:52Z</time>
      </trkpt>
      <trkpt lat="42.2585570" lon="-8.6709670">
        <ele>157.9</ele>
        <time>2021-05-20T13:28:53Z</time>
      </trkpt>
      <trkpt lat="42.2585650" lon="-8.6709630">
        <ele>157.9</ele>
        <time>2021-05-20T13:28:54Z</time>
      </trkpt>
      <trkpt lat="42.2585740" lon="-8.6709590">
        <ele>157.9</ele>
        <time>2021-05-20T13:28:55Z</time>
      </trkpt>
      <trkpt lat="42.2585880" lon="-8.6709520">
        <ele>157.9</ele>
        <time>2021-05-20T13:28:56Z</time>
      </trkpt>
      <trkpt lat="42.2585980" lon="-8.6709450">
        <ele>157.9</ele>
        <time>2021-05-20T13:28:57Z</time>
      </trkpt>
      <trkpt lat="42.2586090" lon="-8.6709380">
        <ele>157.9</ele>
        <time>2021-05-20T13:28:58Z</time>
      </trkpt>
      <trkpt lat="42.2586130" lon="-8.6709320">
        <ele>157.9</ele>
        <time>2021-05-20T13:28:59Z</time>
      </trkpt>
      <trkpt lat="42.2586270" lon="-8.6709260">
        <ele>157.9</ele>
        <time>2021-05-20T13:29:00Z</time>
      </trkpt>
      <trkpt lat="42.2586350" lon="-8.6709130">
        <ele>157.9</ele>
        <time>2021-05-20T13:29:01Z</time>
      </trkpt>
      <trkpt lat="42.2586490" lon="-8.6708940">
        <ele>157.9</ele>
        <time>2021-05-20T13:29:02Z</time>
      </trkpt>
      <trkpt lat="42.2586560" lon="-8.6708860">
        <ele>157.9</ele>
        <time>2021-05-20T13:29:03Z</time>
      </trkpt>
      <trkpt lat="42.2586620" lon="-8.6708770">
        <ele>158.0</ele>
        <time>2021-05-20T13:29:04Z</time>
      </trkpt>
      <trkpt lat="42.2586770" lon="-8.6708640">
        <ele>158.0</ele>
        <time>2021-05-20T13:29:05Z</time>
      </trkpt>
      <trkpt lat="42.2586850" lon="-8.6708560">
        <ele>158.0</ele>
        <time>2021-05-20T13:29:06Z</time>
      </trkpt>
      <trkpt lat="42.2586920" lon="-8.6708470">
        <ele>158.0</ele>
        <time>2021-05-20T13:29:07Z</time>
      </trkpt>
      <trkpt lat="42.2587060" lon="-8.6708430">
        <ele>158.0</ele>
        <time>2021-05-20T13:29:08Z</time>
      </trkpt>
      <trkpt lat="42.2587110" lon="-8.6708380">
        <ele>158.0</ele>
        <time>2021-05-20T13:29:09Z</time>
      </trkpt>
      <trkpt lat="42.2587220" lon="-8.6708310">
        <ele>158.0</ele>
        <time>2021-05-20T13:29:10Z</time>
      </trkpt>
      <trkpt lat="42.2587430" lon="-8.6708200">
        <ele>158.0</ele>
        <time>2021-05-20T13:29:11Z</time>
      </trkpt>
      <trkpt lat="42.2587500" lon="-8.6708050">
        <ele>157.9</ele>
        <time>2021-05-20T13:29:12Z</time>
      </trkpt>
      <trkpt lat="42.2587790" lon="-8.6707840">
        <ele>157.9</ele>
        <time>2021-05-20T13:29:13Z</time>
      </trkpt>
      <trkpt lat="42.2587850" lon="-8.6707770">
        <ele>157.9</ele>
        <time>2021-05-20T13:29:14Z</time>
      </trkpt>
      <trkpt lat="42.2588000" lon="-8.6707650">
        <ele>157.9</ele>
        <time>2021-05-20T13:29:15Z</time>
      </trkpt>
      <trkpt lat="42.2588070" lon="-8.6707550">
        <ele>157.9</ele>
        <time>2021-05-20T13:29:16Z</time>
      </trkpt>
      <trkpt lat="42.2588140" lon="-8.6707460">
        <ele>157.9</ele>
        <time>2021-05-20T13:29:17Z</time>
      </trkpt>
      <trkpt lat="42.2588240" lon="-8.6707340">
        <ele>157.9</ele>
        <time>2021-05-20T13:29:18Z</time>
      </trkpt>
      <trkpt lat="42.2588340" lon="-8.6707200">
        <ele>157.8</ele>
        <time>2021-05-20T13:29:19Z</time>
      </trkpt>
      <trkpt lat="42.2588350" lon="-8.6707120">
        <ele>157.8</ele>
        <time>2021-05-20T13:29:20Z</time>
      </trkpt>
      <trkpt lat="42.2588480" lon="-8.6706970">
        <ele>157.8</ele>
        <time>2021-05-20T13:29:21Z</time>
      </trkpt>
      <trkpt lat="42.2588560" lon="-8.6706880">
        <ele>157.8</ele>
        <time>2021-05-20T13:29:22Z</time>
      </trkpt>
      <trkpt lat="42.2588660" lon="-8.6706720">
        <ele>157.8</ele>
        <time>2021-05-20T13:29:23Z</time>
      </trkpt>
      <trkpt lat="42.2588760" lon="-8.6706580">
        <ele>157.8</ele>
        <time>2021-05-20T13:29:24Z</time>
      </trkpt>
      <trkpt lat="42.2588880" lon="-8.6706440">
        <ele>157.7</ele>
        <time>2021-05-20T13:29:25Z</time>
      </trkpt>
      <trkpt lat="42.2588990" lon="-8.6706330">
        <ele>157.7</ele>
        <time>2021-05-20T13:29:26Z</time>
      </trkpt>
      <trkpt lat="42.2589110" lon="-8.6706260">
        <ele>157.7</ele>
        <time>2021-05-20T13:29:27Z</time>
      </trkpt>
      <trkpt lat="42.2589180" lon="-8.6706100">
        <ele>157.7</ele>
        <time>2021-05-20T13:29:28Z</time>
      </trkpt>
      <trkpt lat="42.2589280" lon="-8.6706050">
        <ele>157.7</ele>
        <time>2021-05-20T13:29:29Z</time>
      </trkpt>
      <trkpt lat="42.2589460" lon="-8.6705860">
        <ele>157.7</ele>
        <time>2021-05-20T13:29:30Z</time>
      </trkpt>
      <trkpt lat="42.2589510" lon="-8.6705780">
        <ele>157.7</ele>
        <time>2021-05-20T13:29:31Z</time>
      </trkpt>
      <trkpt lat="42.2589560" lon="-8.6705710">
        <ele>157.7</ele>
        <time>2021-05-20T13:29:32Z</time>
      </trkpt>
      <trkpt lat="42.2589670" lon="-8.6705640">
        <ele>157.7</ele>
        <time>2021-05-20T13:29:33Z</time>
      </trkpt>
      <trkpt lat="42.2589800" lon="-8.6705530">
        <ele>157.7</ele>
        <time>2021-05-20T13:29:34Z</time>
      </trkpt>
      <trkpt lat="42.2589990" lon="-8.6705470">
        <ele>157.7</ele>
        <time>2021-05-20T13:29:35Z</time>
      </trkpt>
      <trkpt lat="42.2590070" lon="-8.6705420">
        <ele>157.7</ele>
        <time>2021-05-20T13:29:36Z</time>
      </trkpt>
      <trkpt lat="42.2590160" lon="-8.6705370">
        <ele>157.7</ele>
        <time>2021-05-20T13:29:37Z</time>
      </trkpt>
      <trkpt lat="42.2590180" lon="-8.6705300">
        <ele>157.7</ele>
        <time>2021-05-20T13:29:38Z</time>
      </trkpt>
      <trkpt lat="42.2590340" lon="-8.6705210">
        <ele>157.7</ele>
        <time>2021-05-20T13:29:39Z</time>
      </trkpt>
      <trkpt lat="42.2590430" lon="-8.6705070">
        <ele>157.7</ele>
        <time>2021-05-20T13:29:40Z</time>
      </trkpt>
      <trkpt lat="42.2590590" lon="-8.6704880">
        <ele>157.7</ele>
        <time>2021-05-20T13:29:41Z</time>
      </trkpt>
      <trkpt lat="42.2590650" lon="-8.6704800">
        <ele>157.7</ele>
        <time>2021-05-20T13:29:42Z</time>
      </trkpt>
      <trkpt lat="42.2590710" lon="-8.6704720">
        <ele>157.7</ele>
        <time>2021-05-20T13:29:43Z</time>
      </trkpt>
      <trkpt lat="42.2590830" lon="-8.6704510">
        <ele>157.7</ele>
        <time>2021-05-20T13:29:44Z</time>
      </trkpt>
      <trkpt lat="42.2590880" lon="-8.6704410">
        <ele>157.7</ele>
        <time>2021-05-20T13:29:45Z</time>
      </trkpt>
      <trkpt lat="42.2590940" lon="-8.6704310">
        <ele>157.7</ele>
        <time>2021-05-20T13:29:46Z</time>
      </trkpt>
      <trkpt lat="42.2591050" lon="-8.6704170">
        <ele>157.7</ele>
        <time>2021-05-20T13:29:47Z</time>
      </trkpt>
      <trkpt lat="42.2591170" lon="-8.6704050">
        <ele>157.7</ele>
        <time>2021-05-20T13:29:48Z</time>
      </trkpt>
      <trkpt lat="42.2591330" lon="-8.6703820">
        <ele>157.7</ele>
        <time>2021-05-20T13:29:49Z</time>
      </trkpt>
      <trkpt lat="42.2591390" lon="-8.6703730">
        <ele>157.7</ele>
        <time>2021-05-20T13:29:50Z</time>
      </trkpt>
      <trkpt lat="42.2591440" lon="-8.6703640">
        <ele>157.7</ele>
        <time>2021-05-20T13:29:51Z</time>
      </trkpt>
      <trkpt lat="42.2591540" lon="-8.6703500">
        <ele>157.7</ele>
        <time>2021-05-20T13:29:52Z</time>
      </trkpt>
      <trkpt lat="42.2591640" lon="-8.6703410">
        <ele>157.7</ele>
        <time>2021-05-20T13:29:53Z</time>
      </trkpt>
      <trkpt lat="42.2591700" lon="-8.6703270">
        <ele>157.7</ele>
        <time>2021-05-20T13:29:54Z</time>
      </trkpt>
      <trkpt lat="42.2591790" lon="-8.6703070">
        <ele>157.7</ele>
        <time>2021-05-20T13:29:55Z</time>
      </trkpt>
      <trkpt lat="42.2591910" lon="-8.6702830">
        <ele>157.7</ele>
        <time>2021-05-20T13:29:56Z</time>
      </trkpt>
      <trkpt lat="42.2591960" lon="-8.6702750">
        <ele>157.7</ele>
        <time>2021-05-20T13:29:57Z</time>
      </trkpt>
      <trkpt lat="42.2592020" lon="-8.6702660">
        <ele>157.7</ele>
        <time>2021-05-20T13:29:58Z</time>
      </trkpt>
      <trkpt lat="42.2592100" lon="-8.6702430">
        <ele>157.7</ele>
        <time>2021-05-20T13:29:59Z</time>
      </trkpt>
      <trkpt lat="42.2592130" lon="-8.6702300">
        <ele>157.7</ele>
        <time>2021-05-20T13:30:00Z</time>
      </trkpt>
      <trkpt lat="42.2592170" lon="-8.6702180">
        <ele>157.7</ele>
        <time>2021-05-20T13:30:01Z</time>
      </trkpt>
      <trkpt lat="42.2592230" lon="-8.6701990">
        <ele>157.7</ele>
        <time>2021-05-20T13:30:02Z</time>
      </trkpt>
      <trkpt lat="42.2592280" lon="-8.6701930">
        <ele>157.7</ele>
        <time>2021-05-20T13:30:03Z</time>
      </trkpt>
      <trkpt lat="42.2592370" lon="-8.6701810">
        <ele>157.7</ele>
        <time>2021-05-20T13:30:04Z</time>
      </trkpt>
      <trkpt lat="42.2592410" lon="-8.6701640">
        <ele>157.7</ele>
        <time>2021-05-20T13:30:05Z</time>
      </trkpt>
      <trkpt lat="42.2592490" lon="-8.6701390">
        <ele>157.8</ele>
        <time>2021-05-20T13:30:06Z</time>
      </trkpt>
      <trkpt lat="42.2592620" lon="-8.6701200">
        <ele>157.8</ele>
        <time>2021-05-20T13:30:07Z</time>
      </trkpt>
      <trkpt lat="42.2592730" lon="-8.6701130">
        <ele>157.8</ele>
        <time>2021-05-20T13:30:08Z</time>
      </trkpt>
      <trkpt lat="42.2592820" lon="-8.6700970">
        <ele>157.8</ele>
        <time>2021-05-20T13:30:09Z</time>
      </trkpt>
      <trkpt lat="42.2592910" lon="-8.6700790">
        <ele>157.8</ele>
        <time>2021-05-20T13:30:10Z</time>
      </trkpt>
      <trkpt lat="42.2592940" lon="-8.6700750">
        <ele>157.8</ele>
        <time>2021-05-20T13:30:11Z</time>
      </trkpt>
      <trkpt lat="42.2593180" lon="-8.6700580">
        <ele>157.9</ele>
        <time>2021-05-20T13:30:12Z</time>
      </trkpt>
      <trkpt lat="42.2593290" lon="-8.6700450">
        <ele>157.9</ele>
        <time>2021-05-20T13:30:13Z</time>
      </trkpt>
      <trkpt lat="42.2593450" lon="-8.6700320">
        <ele>157.9</ele>
        <time>2021-05-20T13:30:15Z</time>
      </trkpt>
      <trkpt lat="42.2593580" lon="-8.6700180">
        <ele>157.9</ele>
        <time>2021-05-20T13:30:16Z</time>
      </trkpt>
      <trkpt lat="42.2593660" lon="-8.6700000">
        <ele>157.9</ele>
        <time>2021-05-20T13:30:17Z</time>
      </trkpt>
      <trkpt lat="42.2593790" lon="-8.6699940">
        <ele>158.0</ele>
        <time>2021-05-20T13:30:18Z</time>
      </trkpt>
      <trkpt lat="42.2593910" lon="-8.6699840">
        <ele>158.0</ele>
        <time>2021-05-20T13:30:19Z</time>
      </trkpt>
      <trkpt lat="42.2594040" lon="-8.6699770">
        <ele>158.0</ele>
        <time>2021-05-20T13:30:20Z</time>
      </trkpt>
      <trkpt lat="42.2594200" lon="-8.6699770">
        <ele>158.0</ele>
        <time>2021-05-20T13:30:21Z</time>
      </trkpt>
      <trkpt lat="42.2594260" lon="-8.6699610">
        <ele>158.1</ele>
        <time>2021-05-20T13:30:22Z</time>
      </trkpt>
      <trkpt lat="42.2594370" lon="-8.6699440">
        <ele>158.1</ele>
        <time>2021-05-20T13:30:23Z</time>
      </trkpt>
      <trkpt lat="42.2594510" lon="-8.6699340">
        <ele>158.1</ele>
        <time>2021-05-20T13:30:24Z</time>
      </trkpt>
      <trkpt lat="42.2594620" lon="-8.6699260">
        <ele>158.1</ele>
        <time>2021-05-20T13:30:25Z</time>
      </trkpt>
      <trkpt lat="42.2594760" lon="-8.6699160">
        <ele>158.2</ele>
        <time>2021-05-20T13:30:26Z</time>
      </trkpt>
      <trkpt lat="42.2594860" lon="-8.6699040">
        <ele>158.2</ele>
        <time>2021-05-20T13:30:27Z</time>
      </trkpt>
      <trkpt lat="42.2595010" lon="-8.6698810">
        <ele>158.2</ele>
        <time>2021-05-20T13:30:28Z</time>
      </trkpt>
      <trkpt lat="42.2595050" lon="-8.6698710">
        <ele>158.2</ele>
        <time>2021-05-20T13:30:29Z</time>
      </trkpt>
      <trkpt lat="42.2595100" lon="-8.6698620">
        <ele>158.2</ele>
        <time>2021-05-20T13:30:30Z</time>
      </trkpt>
      <trkpt lat="42.2595220" lon="-8.6698480">
        <ele>158.3</ele>
        <time>2021-05-20T13:30:31Z</time>
      </trkpt>
      <trkpt lat="42.2595340" lon="-8.6698320">
        <ele>158.3</ele>
        <time>2021-05-20T13:30:32Z</time>
      </trkpt>
      <trkpt lat="42.2595530" lon="-8.6698190">
        <ele>158.3</ele>
        <time>2021-05-20T13:30:33Z</time>
      </trkpt>
      <trkpt lat="42.2595600" lon="-8.6698140">
        <ele>158.3</ele>
        <time>2021-05-20T13:30:34Z</time>
      </trkpt>
      <trkpt lat="42.2595680" lon="-8.6698090">
        <ele>158.3</ele>
        <time>2021-05-20T13:30:35Z</time>
      </trkpt>
      <trkpt lat="42.2595750" lon="-8.6697970">
        <ele>158.4</ele>
        <time>2021-05-20T13:30:36Z</time>
      </trkpt>
      <trkpt lat="42.2595840" lon="-8.6697860">
        <ele>158.4</ele>
        <time>2021-05-20T13:30:37Z</time>
      </trkpt>
      <trkpt lat="42.2595940" lon="-8.6697770">
        <ele>158.4</ele>
        <time>2021-05-20T13:30:38Z</time>
      </trkpt>
      <trkpt lat="42.2596040" lon="-8.6697630">
        <ele>158.4</ele>
        <time>2021-05-20T13:30:39Z</time>
      </trkpt>
      <trkpt lat="42.2596150" lon="-8.6697490">
        <ele>158.4</ele>
        <time>2021-05-20T13:30:40Z</time>
      </trkpt>
      <trkpt lat="42.2596240" lon="-8.6697340">
        <ele>158.4</ele>
        <time>2021-05-20T13:30:41Z</time>
      </trkpt>
      <trkpt lat="42.2596330" lon="-8.6697180">
        <ele>158.5</ele>
        <time>2021-05-20T13:30:42Z</time>
      </trkpt>
      <trkpt lat="42.2596370" lon="-8.6697150">
        <ele>158.5</ele>
        <time>2021-05-20T13:30:43Z</time>
      </trkpt>
      <trkpt lat="42.2596430" lon="-8.6697130">
        <ele>158.5</ele>
        <time>2021-05-20T13:30:44Z</time>
      </trkpt>
      <trkpt lat="42.2596440" lon="-8.6697030">
        <ele>158.5</ele>
        <time>2021-05-20T13:30:45Z</time>
      </trkpt>
      <trkpt lat="42.2596540" lon="-8.6696960">
        <ele>158.5</ele>
        <time>2021-05-20T13:30:46Z</time>
      </trkpt>
      <trkpt lat="42.2596650" lon="-8.6696840">
        <ele>158.5</ele>
        <time>2021-05-20T13:30:47Z</time>
      </trkpt>
      <trkpt lat="42.2596660" lon="-8.6696740">
        <ele>158.5</ele>
        <time>2021-05-20T13:30:48Z</time>
      </trkpt>
      <trkpt lat="42.2596710" lon="-8.6696570">
        <ele>158.5</ele>
        <time>2021-05-20T13:30:49Z</time>
      </trkpt>
      <trkpt lat="42.2596710" lon="-8.6696460">
        <ele>158.6</ele>
        <time>2021-05-20T13:30:50Z</time>
      </trkpt>
      <trkpt lat="42.2596690" lon="-8.6696340">
        <ele>158.6</ele>
        <time>2021-05-20T13:30:51Z</time>
      </trkpt>
      <trkpt lat="42.2596700" lon="-8.6696250">
        <ele>158.6</ele>
        <time>2021-05-20T13:30:52Z</time>
      </trkpt>
      <trkpt lat="42.2596770" lon="-8.6696130">
        <ele>158.6</ele>
        <time>2021-05-20T13:30:53Z</time>
      </trkpt>
      <trkpt lat="42.2596800" lon="-8.6696040">
        <ele>158.6</ele>
        <time>2021-05-20T13:30:54Z</time>
      </trkpt>
      <trkpt lat="42.2596920" lon="-8.6695820">
        <ele>158.6</ele>
        <time>2021-05-20T13:30:55Z</time>
      </trkpt>
      <trkpt lat="42.2597020" lon="-8.6695560">
        <ele>158.6</ele>
        <time>2021-05-20T13:30:56Z</time>
      </trkpt>
      <trkpt lat="42.2597070" lon="-8.6695470">
        <ele>158.7</ele>
        <time>2021-05-20T13:30:57Z</time>
      </trkpt>
      <trkpt lat="42.2597110" lon="-8.6695390">
        <ele>158.7</ele>
        <time>2021-05-20T13:30:58Z</time>
      </trkpt>
      <trkpt lat="42.2597250" lon="-8.6695130">
        <ele>158.7</ele>
        <time>2021-05-20T13:30:59Z</time>
      </trkpt>
      <trkpt lat="42.2597290" lon="-8.6695020">
        <ele>158.7</ele>
        <time>2021-05-20T13:31:00Z</time>
      </trkpt>
      <trkpt lat="42.2597330" lon="-8.6694920">
        <ele>158.7</ele>
        <time>2021-05-20T13:31:01Z</time>
      </trkpt>
      <trkpt lat="42.2597410" lon="-8.6694650">
        <ele>158.7</ele>
        <time>2021-05-20T13:31:02Z</time>
      </trkpt>
      <trkpt lat="42.2597460" lon="-8.6694560">
        <ele>158.7</ele>
        <time>2021-05-20T13:31:03Z</time>
      </trkpt>
      <trkpt lat="42.2597500" lon="-8.6694470">
        <ele>158.7</ele>
        <time>2021-05-20T13:31:04Z</time>
      </trkpt>
      <trkpt lat="42.2597610" lon="-8.6694120">
        <ele>158.7</ele>
        <time>2021-05-20T13:31:05Z</time>
      </trkpt>
      <trkpt lat="42.2597660" lon="-8.6693970">
        <ele>158.8</ele>
        <time>2021-05-20T13:31:06Z</time>
      </trkpt>
      <trkpt lat="42.2597700" lon="-8.6693820">
        <ele>158.8</ele>
        <time>2021-05-20T13:31:07Z</time>
      </trkpt>
      <trkpt lat="42.2597770" lon="-8.6693590">
        <ele>158.8</ele>
        <time>2021-05-20T13:31:08Z</time>
      </trkpt>
      <trkpt lat="42.2597810" lon="-8.6693480">
        <ele>158.8</ele>
        <time>2021-05-20T13:31:09Z</time>
      </trkpt>
      <trkpt lat="42.2597860" lon="-8.6693380">
        <ele>158.8</ele>
        <time>2021-05-20T13:31:10Z</time>
      </trkpt>
      <trkpt lat="42.2597880" lon="-8.6693250">
        <ele>158.8</ele>
        <time>2021-05-20T13:31:11Z</time>
      </trkpt>
      <trkpt lat="42.2598060" lon="-8.6693160">
        <ele>158.8</ele>
        <time>2021-05-20T13:31:12Z</time>
      </trkpt>
      <trkpt lat="42.2598100" lon="-8.6693050">
        <ele>158.8</ele>
        <time>2021-05-20T13:31:13Z</time>
      </trkpt>
      <trkpt lat="42.2598220" lon="-8.6692840">
        <ele>158.8</ele>
        <time>2021-05-20T13:31:14Z</time>
      </trkpt>
      <trkpt lat="42.2598270" lon="-8.6692730">
        <ele>158.8</ele>
        <time>2021-05-20T13:31:15Z</time>
      </trkpt>
      <trkpt lat="42.2598350" lon="-8.6692490">
        <ele>158.8</ele>
        <time>2021-05-20T13:31:16Z</time>
      </trkpt>
      <trkpt lat="42.2598420" lon="-8.6692020">
        <ele>158.8</ele>
        <time>2021-05-20T13:31:17Z</time>
      </trkpt>
      <trkpt lat="42.2598440" lon="-8.6691870">
        <ele>158.8</ele>
        <time>2021-05-20T13:31:18Z</time>
      </trkpt>
      <trkpt lat="42.2598540" lon="-8.6691710">
        <ele>158.8</ele>
        <time>2021-05-20T13:31:19Z</time>
      </trkpt>
      <trkpt lat="42.2598660" lon="-8.6691600">
        <ele>158.9</ele>
        <time>2021-05-20T13:31:20Z</time>
      </trkpt>
      <trkpt lat="42.2598740" lon="-8.6691420">
        <ele>158.9</ele>
        <time>2021-05-20T13:31:21Z</time>
      </trkpt>
      <trkpt lat="42.2598800" lon="-8.6691340">
        <ele>158.9</ele>
        <time>2021-05-20T13:31:22Z</time>
      </trkpt>
      <trkpt lat="42.2598860" lon="-8.6691190">
        <ele>158.9</ele>
        <time>2021-05-20T13:31:23Z</time>
      </trkpt>
      <trkpt lat="42.2599000" lon="-8.6691010">
        <ele>158.9</ele>
        <time>2021-05-20T13:31:24Z</time>
      </trkpt>
      <trkpt lat="42.2599060" lon="-8.6690910">
        <ele>158.9</ele>
        <time>2021-05-20T13:31:25Z</time>
      </trkpt>
      <trkpt lat="42.2599120" lon="-8.6690820">
        <ele>158.9</ele>
        <time>2021-05-20T13:31:26Z</time>
      </trkpt>
      <trkpt lat="42.2599280" lon="-8.6690580">
        <ele>158.8</ele>
        <time>2021-05-20T13:31:27Z</time>
      </trkpt>
      <trkpt lat="42.2599320" lon="-8.6690500">
        <ele>158.8</ele>
        <time>2021-05-20T13:31:28Z</time>
      </trkpt>
      <trkpt lat="42.2599350" lon="-8.6690430">
        <ele>158.8</ele>
        <time>2021-05-20T13:31:29Z</time>
      </trkpt>
      <trkpt lat="42.2599380" lon="-8.6690290">
        <ele>158.8</ele>
        <time>2021-05-20T13:31:30Z</time>
      </trkpt>
      <trkpt lat="42.2599460" lon="-8.6690200">
        <ele>158.8</ele>
        <time>2021-05-20T13:31:31Z</time>
      </trkpt>
      <trkpt lat="42.2599550" lon="-8.6690060">
        <ele>158.8</ele>
        <time>2021-05-20T13:31:32Z</time>
      </trkpt>
      <trkpt lat="42.2599710" lon="-8.6689890">
        <ele>158.8</ele>
        <time>2021-05-20T13:31:33Z</time>
      </trkpt>
      <trkpt lat="42.2599820" lon="-8.6689780">
        <ele>158.8</ele>
        <time>2021-05-20T13:31:34Z</time>
      </trkpt>
      <trkpt lat="42.2599950" lon="-8.6689630">
        <ele>158.8</ele>
        <time>2021-05-20T13:31:35Z</time>
      </trkpt>
      <trkpt lat="42.2600050" lon="-8.6689470">
        <ele>158.8</ele>
        <time>2021-05-20T13:31:36Z</time>
      </trkpt>
      <trkpt lat="42.2600180" lon="-8.6689360">
        <ele>158.7</ele>
        <time>2021-05-20T13:31:37Z</time>
      </trkpt>
      <trkpt lat="42.2600360" lon="-8.6689280">
        <ele>158.7</ele>
        <time>2021-05-20T13:31:38Z</time>
      </trkpt>
      <trkpt lat="42.2600480" lon="-8.6689160">
        <ele>158.7</ele>
        <time>2021-05-20T13:31:39Z</time>
      </trkpt>
      <trkpt lat="42.2600580" lon="-8.6689040">
        <ele>158.7</ele>
        <time>2021-05-20T13:31:40Z</time>
      </trkpt>
      <trkpt lat="42.2600730" lon="-8.6689010">
        <ele>158.7</ele>
        <time>2021-05-20T13:31:41Z</time>
      </trkpt>
      <trkpt lat="42.2600870" lon="-8.6688940">
        <ele>158.7</ele>
        <time>2021-05-20T13:31:42Z</time>
      </trkpt>
      <trkpt lat="42.2600990" lon="-8.6688870">
        <ele>158.7</ele>
        <time>2021-05-20T13:31:43Z</time>
      </trkpt>
      <trkpt lat="42.2601100" lon="-8.6688740">
        <ele>158.7</ele>
        <time>2021-05-20T13:31:44Z</time>
      </trkpt>
      <trkpt lat="42.2601220" lon="-8.6688690">
        <ele>158.6</ele>
        <time>2021-05-20T13:31:45Z</time>
      </trkpt>
      <trkpt lat="42.2601360" lon="-8.6688620">
        <ele>158.6</ele>
        <time>2021-05-20T13:31:46Z</time>
      </trkpt>
      <trkpt lat="42.2601480" lon="-8.6688500">
        <ele>158.6</ele>
        <time>2021-05-20T13:31:47Z</time>
      </trkpt>
      <trkpt lat="42.2601640" lon="-8.6688520">
        <ele>158.6</ele>
        <time>2021-05-20T13:31:48Z</time>
      </trkpt>
      <trkpt lat="42.2601800" lon="-8.6688430">
        <ele>158.6</ele>
        <time>2021-05-20T13:31:49Z</time>
      </trkpt>
      <trkpt lat="42.2601960" lon="-8.6688400">
        <ele>158.6</ele>
        <time>2021-05-20T13:31:50Z</time>
      </trkpt>
      <trkpt lat="42.2602100" lon="-8.6688350">
        <ele>158.6</ele>
        <time>2021-05-20T13:31:51Z</time>
      </trkpt>
      <trkpt lat="42.2602250" lon="-8.6688330">
        <ele>158.6</ele>
        <time>2021-05-20T13:31:52Z</time>
      </trkpt>
      <trkpt lat="42.2602380" lon="-8.6688260">
        <ele>158.6</ele>
        <time>2021-05-20T13:31:53Z</time>
      </trkpt>
      <trkpt lat="42.2602530" lon="-8.6688280">
        <ele>158.5</ele>
        <time>2021-05-20T13:31:54Z</time>
      </trkpt>
      <trkpt lat="42.2602690" lon="-8.6688290">
        <ele>158.5</ele>
        <time>2021-05-20T13:31:55Z</time>
      </trkpt>
      <trkpt lat="42.2602840" lon="-8.6688270">
        <ele>158.5</ele>
        <time>2021-05-20T13:31:56Z</time>
      </trkpt>
      <trkpt lat="42.2602980" lon="-8.6688250">
        <ele>158.5</ele>
        <time>2021-05-20T13:31:57Z</time>
      </trkpt>
      <trkpt lat="42.2603110" lon="-8.6688220">
        <ele>158.5</ele>
        <time>2021-05-20T13:31:58Z</time>
      </trkpt>
      <trkpt lat="42.2603220" lon="-8.6688200">
        <ele>158.5</ele>
        <time>2021-05-20T13:31:59Z</time>
      </trkpt>
      <trkpt lat="42.2603280" lon="-8.6688190">
        <ele>158.5</ele>
        <time>2021-05-20T13:32:00Z</time>
      </trkpt>
      <trkpt lat="42.2603390" lon="-8.6688190">
        <ele>158.5</ele>
        <time>2021-05-20T13:32:01Z</time>
      </trkpt>
      <trkpt lat="42.2603460" lon="-8.6688150">
        <ele>158.5</ele>
        <time>2021-05-20T13:32:02Z</time>
      </trkpt>
      <trkpt lat="42.2603510" lon="-8.6688200">
        <ele>158.5</ele>
        <time>2021-05-20T13:32:03Z</time>
      </trkpt>
      <trkpt lat="42.2603530" lon="-8.6688160">
        <ele>158.5</ele>
        <time>2021-05-20T13:32:04Z</time>
      </trkpt>
      <trkpt lat="42.2603590" lon="-8.6688130">
        <ele>158.5</ele>
        <time>2021-05-20T13:32:05Z</time>
      </trkpt>
      <trkpt lat="42.2603610" lon="-8.6688150">
        <ele>158.5</ele>
        <time>2021-05-20T13:32:06Z</time>
      </trkpt>
      <trkpt lat="42.2603720" lon="-8.6688100">
        <ele>158.5</ele>
        <time>2021-05-20T13:32:07Z</time>
      </trkpt>
      <trkpt lat="42.2603860" lon="-8.6688090">
        <ele>158.5</ele>
        <time>2021-05-20T13:32:08Z</time>
      </trkpt>
      <trkpt lat="42.2603990" lon="-8.6688000">
        <ele>158.5</ele>
        <time>2021-05-20T13:32:09Z</time>
      </trkpt>
      <trkpt lat="42.2604120" lon="-8.6687920">
        <ele>158.5</ele>
        <time>2021-05-20T13:32:10Z</time>
      </trkpt>
      <trkpt lat="42.2604190" lon="-8.6687880">
        <ele>158.5</ele>
        <time>2021-05-20T13:32:11Z</time>
      </trkpt>
      <trkpt lat="42.2604260" lon="-8.6687860">
        <ele>158.5</ele>
        <time>2021-05-20T13:32:12Z</time>
      </trkpt>
      <trkpt lat="42.2604370" lon="-8.6687850">
        <ele>158.5</ele>
        <time>2021-05-20T13:32:13Z</time>
      </trkpt>
      <trkpt lat="42.2604510" lon="-8.6687730">
        <ele>158.5</ele>
        <time>2021-05-20T13:32:14Z</time>
      </trkpt>
      <trkpt lat="42.2604520" lon="-8.6687620">
        <ele>158.5</ele>
        <time>2021-05-20T13:32:15Z</time>
      </trkpt>
      <trkpt lat="42.2604600" lon="-8.6687530">
        <ele>158.5</ele>
        <time>2021-05-20T13:32:16Z</time>
      </trkpt>
      <trkpt lat="42.2604640" lon="-8.6687450">
        <ele>158.5</ele>
        <time>2021-05-20T13:32:17Z</time>
      </trkpt>
      <trkpt lat="42.2604710" lon="-8.6687320">
        <ele>158.5</ele>
        <time>2021-05-20T13:32:18Z</time>
      </trkpt>
      <trkpt lat="42.2604780" lon="-8.6687200">
        <ele>158.5</ele>
        <time>2021-05-20T13:32:19Z</time>
      </trkpt>
      <trkpt lat="42.2604890" lon="-8.6687090">
        <ele>158.5</ele>
        <time>2021-05-20T13:32:20Z</time>
      </trkpt>
      <trkpt lat="42.2604990" lon="-8.6687020">
        <ele>158.5</ele>
        <time>2021-05-20T13:32:21Z</time>
      </trkpt>
      <trkpt lat="42.2605070" lon="-8.6686920">
        <ele>158.5</ele>
        <time>2021-05-20T13:32:22Z</time>
      </trkpt>
      <trkpt lat="42.2605210" lon="-8.6686900">
        <ele>158.5</ele>
        <time>2021-05-20T13:32:23Z</time>
      </trkpt>
      <trkpt lat="42.2605300" lon="-8.6686810">
        <ele>158.5</ele>
        <time>2021-05-20T13:32:24Z</time>
      </trkpt>
      <trkpt lat="42.2605470" lon="-8.6686600">
        <ele>158.5</ele>
        <time>2021-05-20T13:32:25Z</time>
      </trkpt>
      <trkpt lat="42.2605510" lon="-8.6686490">
        <ele>158.5</ele>
        <time>2021-05-20T13:32:26Z</time>
      </trkpt>
      <trkpt lat="42.2605540" lon="-8.6686380">
        <ele>158.5</ele>
        <time>2021-05-20T13:32:27Z</time>
      </trkpt>
      <trkpt lat="42.2605590" lon="-8.6686320">
        <ele>158.5</ele>
        <time>2021-05-20T13:32:28Z</time>
      </trkpt>
      <trkpt lat="42.2605690" lon="-8.6686120">
        <ele>158.5</ele>
        <time>2021-05-20T13:32:29Z</time>
      </trkpt>
      <trkpt lat="42.2605710" lon="-8.6685980">
        <ele>158.5</ele>
        <time>2021-05-20T13:32:30Z</time>
      </trkpt>
      <trkpt lat="42.2605820" lon="-8.6685810">
        <ele>158.5</ele>
        <time>2021-05-20T13:32:32Z</time>
      </trkpt>
      <trkpt lat="42.2605920" lon="-8.6685710">
        <ele>158.5</ele>
        <time>2021-05-20T13:32:33Z</time>
      </trkpt>
      <trkpt lat="42.2605960" lon="-8.6685550">
        <ele>158.5</ele>
        <time>2021-05-20T13:32:34Z</time>
      </trkpt>
      <trkpt lat="42.2606070" lon="-8.6685560">
        <ele>158.5</ele>
        <time>2021-05-20T13:32:35Z</time>
      </trkpt>
      <trkpt lat="42.2606110" lon="-8.6685450">
        <ele>158.5</ele>
        <time>2021-05-20T13:32:36Z</time>
      </trkpt>
      <trkpt lat="42.2606140" lon="-8.6685400">
        <ele>158.5</ele>
        <time>2021-05-20T13:32:37Z</time>
      </trkpt>
      <trkpt lat="42.2606210" lon="-8.6685370">
        <ele>158.5</ele>
        <time>2021-05-20T13:32:38Z</time>
      </trkpt>
      <trkpt lat="42.2606190" lon="-8.6685390">
        <ele>158.5</ele>
        <time>2021-05-20T13:32:39Z</time>
      </trkpt>
      <trkpt lat="42.2606160" lon="-8.6685410">
        <ele>158.5</ele>
        <time>2021-05-20T13:32:40Z</time>
      </trkpt>
      <trkpt lat="42.2606190" lon="-8.6685400">
        <ele>158.5</ele>
        <time>2021-05-20T13:32:41Z</time>
      </trkpt>
      <trkpt lat="42.2606190" lon="-8.6685400">
        <ele>158.5</ele>
        <time>2021-05-20T13:32:42Z</time>
      </trkpt>
      <trkpt lat="42.2606190" lon="-8.6685420">
        <ele>158.5</ele>
        <time>2021-05-20T13:32:43Z</time>
      </trkpt>
      <trkpt lat="42.2606200" lon="-8.6685420">
        <ele>158.5</ele>
        <time>2021-05-20T13:32:44Z</time>
      </trkpt>
      <trkpt lat="42.2606210" lon="-8.6685490">
        <ele>158.5</ele>
        <time>2021-05-20T13:32:45Z</time>
      </trkpt>
      <trkpt lat="42.2606230" lon="-8.6685490">
        <ele>158.5</ele>
        <time>2021-05-20T13:32:46Z</time>
      </trkpt>
      <trkpt lat="42.2606270" lon="-8.6685480">
        <ele>158.5</ele>
        <time>2021-05-20T13:32:47Z</time>
      </trkpt>
      <trkpt lat="42.2606280" lon="-8.6685480">
        <ele>158.5</ele>
        <time>2021-05-20T13:32:48Z</time>
      </trkpt>
      <trkpt lat="42.2606260" lon="-8.6685470">
        <ele>158.5</ele>
        <time>2021-05-20T13:32:49Z</time>
      </trkpt>
      <trkpt lat="42.2606240" lon="-8.6685430">
        <ele>158.5</ele>
        <time>2021-05-20T13:32:50Z</time>
      </trkpt>
      <trkpt lat="42.2606250" lon="-8.6685420">
        <ele>158.5</ele>
        <time>2021-05-20T13:32:51Z</time>
      </trkpt>
      <trkpt lat="42.2606270" lon="-8.6685370">
        <ele>158.5</ele>
        <time>2021-05-20T13:32:52Z</time>
      </trkpt>
      <trkpt lat="42.2606240" lon="-8.6685340">
        <ele>158.5</ele>
        <time>2021-05-20T13:32:53Z</time>
      </trkpt>
      <trkpt lat="42.2606200" lon="-8.6685300">
        <ele>158.5</ele>
        <time>2021-05-20T13:32:54Z</time>
      </trkpt>
      <trkpt lat="42.2606200" lon="-8.6685310">
        <ele>158.5</ele>
        <time>2021-05-20T13:32:55Z</time>
      </trkpt>
      <trkpt lat="42.2606160" lon="-8.6685380">
        <ele>158.5</ele>
        <time>2021-05-20T13:32:56Z</time>
      </trkpt>
      <trkpt lat="42.2606130" lon="-8.6685410">
        <ele>158.5</ele>
        <time>2021-05-20T13:32:57Z</time>
      </trkpt>
      <trkpt lat="42.2606200" lon="-8.6685440">
        <ele>158.5</ele>
        <time>2021-05-20T13:32:58Z</time>
      </trkpt>
      <trkpt lat="42.2606230" lon="-8.6685430">
        <ele>158.5</ele>
        <time>2021-05-20T13:32:59Z</time>
      </trkpt>
      <trkpt lat="42.2606280" lon="-8.6685390">
        <ele>158.5</ele>
        <time>2021-05-20T13:33:00Z</time>
      </trkpt>
      <trkpt lat="42.2606300" lon="-8.6685320">
        <ele>158.5</ele>
        <time>2021-05-20T13:33:01Z</time>
      </trkpt>
      <trkpt lat="42.2606290" lon="-8.6685230">
        <ele>158.5</ele>
        <time>2021-05-20T13:33:02Z</time>
      </trkpt>
      <trkpt lat="42.2606280" lon="-8.6685220">
        <ele>158.5</ele>
        <time>2021-05-20T13:33:03Z</time>
      </trkpt>
      <trkpt lat="42.2606290" lon="-8.6685220">
        <ele>158.5</ele>
        <time>2021-05-20T13:33:04Z</time>
      </trkpt>
      <trkpt lat="42.2606310" lon="-8.6685190">
        <ele>158.5</ele>
        <time>2021-05-20T13:33:05Z</time>
      </trkpt>
      <trkpt lat="42.2606350" lon="-8.6685190">
        <ele>158.5</ele>
        <time>2021-05-20T13:33:06Z</time>
      </trkpt>
      <trkpt lat="42.2606400" lon="-8.6685170">
        <ele>158.5</ele>
        <time>2021-05-20T13:33:07Z</time>
      </trkpt>
      <trkpt lat="42.2606380" lon="-8.6685140">
        <ele>158.5</ele>
        <time>2021-05-20T13:33:08Z</time>
      </trkpt>
      <trkpt lat="42.2606320" lon="-8.6685210">
        <ele>158.5</ele>
        <time>2021-05-20T13:33:09Z</time>
      </trkpt>
      <trkpt lat="42.2606240" lon="-8.6685230">
        <ele>158.5</ele>
        <time>2021-05-20T13:33:10Z</time>
      </trkpt>
      <trkpt lat="42.2606260" lon="-8.6685160">
        <ele>158.5</ele>
        <time>2021-05-20T13:33:11Z</time>
      </trkpt>
      <trkpt lat="42.2606250" lon="-8.6685210">
        <ele>158.5</ele>
        <time>2021-05-20T13:33:12Z</time>
      </trkpt>
      <trkpt lat="42.2606230" lon="-8.6685200">
        <ele>158.5</ele>
        <time>2021-05-20T13:33:13Z</time>
      </trkpt>
      <trkpt lat="42.2606200" lon="-8.6685150">
        <ele>158.5</ele>
        <time>2021-05-20T13:33:14Z</time>
      </trkpt>
      <trkpt lat="42.2606160" lon="-8.6685180">
        <ele>158.5</ele>
        <time>2021-05-20T13:33:15Z</time>
      </trkpt>
      <trkpt lat="42.2606130" lon="-8.6685210">
        <ele>158.5</ele>
        <time>2021-05-20T13:33:16Z</time>
      </trkpt>
      <trkpt lat="42.2606120" lon="-8.6685210">
        <ele>158.5</ele>
        <time>2021-05-20T13:33:17Z</time>
      </trkpt>
      <trkpt lat="42.2606160" lon="-8.6685190">
        <ele>158.5</ele>
        <time>2021-05-20T13:33:18Z</time>
      </trkpt>
      <trkpt lat="42.2606170" lon="-8.6685180">
        <ele>158.5</ele>
        <time>2021-05-20T13:33:19Z</time>
      </trkpt>
      <trkpt lat="42.2606180" lon="-8.6685200">
        <ele>158.5</ele>
        <time>2021-05-20T13:33:20Z</time>
      </trkpt>
      <trkpt lat="42.2606180" lon="-8.6685250">
        <ele>158.6</ele>
        <time>2021-05-20T13:33:21Z</time>
      </trkpt>
      <trkpt lat="42.2606190" lon="-8.6685310">
        <ele>158.6</ele>
        <time>2021-05-20T13:33:22Z</time>
      </trkpt>
      <trkpt lat="42.2606200" lon="-8.6685360">
        <ele>158.6</ele>
        <time>2021-05-20T13:33:23Z</time>
      </trkpt>
      <trkpt lat="42.2606210" lon="-8.6685340">
        <ele>158.6</ele>
        <time>2021-05-20T13:33:24Z</time>
      </trkpt>
      <trkpt lat="42.2606220" lon="-8.6685330">
        <ele>158.6</ele>
        <time>2021-05-20T13:33:25Z</time>
      </trkpt>
      <trkpt lat="42.2606210" lon="-8.6685340">
        <ele>158.6</ele>
        <time>2021-05-20T13:33:26Z</time>
      </trkpt>
      <trkpt lat="42.2606200" lon="-8.6685330">
        <ele>158.6</ele>
        <time>2021-05-20T13:33:27Z</time>
      </trkpt>
      <trkpt lat="42.2606230" lon="-8.6685370">
        <ele>158.6</ele>
        <time>2021-05-20T13:33:28Z</time>
      </trkpt>
      <trkpt lat="42.2606250" lon="-8.6685340">
        <ele>158.6</ele>
        <time>2021-05-20T13:33:29Z</time>
      </trkpt>
      <trkpt lat="42.2606320" lon="-8.6685350">
        <ele>158.6</ele>
        <time>2021-05-20T13:33:30Z</time>
      </trkpt>
      <trkpt lat="42.2606330" lon="-8.6685340">
        <ele>158.6</ele>
        <time>2021-05-20T13:33:31Z</time>
      </trkpt>
      <trkpt lat="42.2606370" lon="-8.6685350">
        <ele>158.6</ele>
        <time>2021-05-20T13:33:32Z</time>
      </trkpt>
      <trkpt lat="42.2606390" lon="-8.6685300">
        <ele>158.6</ele>
        <time>2021-05-20T13:33:33Z</time>
      </trkpt>
      <trkpt lat="42.2606420" lon="-8.6685310">
        <ele>158.6</ele>
        <time>2021-05-20T13:33:34Z</time>
      </trkpt>
      <trkpt lat="42.2606410" lon="-8.6685160">
        <ele>158.6</ele>
        <time>2021-05-20T13:33:35Z</time>
      </trkpt>
      <trkpt lat="42.2606470" lon="-8.6685210">
        <ele>158.6</ele>
        <time>2021-05-20T13:33:36Z</time>
      </trkpt>
      <trkpt lat="42.2606520" lon="-8.6685190">
        <ele>158.6</ele>
        <time>2021-05-20T13:33:37Z</time>
      </trkpt>
      <trkpt lat="42.2606490" lon="-8.6685180">
        <ele>158.6</ele>
        <time>2021-05-20T13:33:38Z</time>
      </trkpt>
      <trkpt lat="42.2606440" lon="-8.6685180">
        <ele>158.6</ele>
        <time>2021-05-20T13:33:39Z</time>
      </trkpt>
      <trkpt lat="42.2606490" lon="-8.6684990">
        <ele>158.6</ele>
        <time>2021-05-20T13:33:40Z</time>
      </trkpt>
      <trkpt lat="42.2606580" lon="-8.6684930">
        <ele>158.7</ele>
        <time>2021-05-20T13:33:41Z</time>
      </trkpt>
      <trkpt lat="42.2606670" lon="-8.6684780">
        <ele>158.7</ele>
        <time>2021-05-20T13:33:42Z</time>
      </trkpt>
      <trkpt lat="42.2606740" lon="-8.6684740">
        <ele>158.7</ele>
        <time>2021-05-20T13:33:43Z</time>
      </trkpt>
      <trkpt lat="42.2606840" lon="-8.6684580">
        <ele>158.7</ele>
        <time>2021-05-20T13:33:44Z</time>
      </trkpt>
      <trkpt lat="42.2606880" lon="-8.6684480">
        <ele>158.7</ele>
        <time>2021-05-20T13:33:45Z</time>
      </trkpt>
      <trkpt lat="42.2606890" lon="-8.6684370">
        <ele>158.7</ele>
        <time>2021-05-20T13:33:46Z</time>
      </trkpt>
      <trkpt lat="42.2606990" lon="-8.6684260">
        <ele>158.7</ele>
        <time>2021-05-20T13:33:47Z</time>
      </trkpt>
      <trkpt lat="42.2607130" lon="-8.6684020">
        <ele>158.8</ele>
        <time>2021-05-20T13:33:48Z</time>
      </trkpt>
      <trkpt lat="42.2607180" lon="-8.6683920">
        <ele>158.8</ele>
        <time>2021-05-20T13:33:49Z</time>
      </trkpt>
      <trkpt lat="42.2607240" lon="-8.6683810">
        <ele>158.8</ele>
        <time>2021-05-20T13:33:50Z</time>
      </trkpt>
      <trkpt lat="42.2607310" lon="-8.6683710">
        <ele>158.8</ele>
        <time>2021-05-20T13:33:51Z</time>
      </trkpt>
      <trkpt lat="42.2607440" lon="-8.6683540">
        <ele>158.8</ele>
        <time>2021-05-20T13:33:52Z</time>
      </trkpt>
      <trkpt lat="42.2607430" lon="-8.6683490">
        <ele>158.8</ele>
        <time>2021-05-20T13:33:53Z</time>
      </trkpt>
      <trkpt lat="42.2607510" lon="-8.6683330">
        <ele>158.9</ele>
        <time>2021-05-20T13:33:54Z</time>
      </trkpt>
      <trkpt lat="42.2607590" lon="-8.6683200">
        <ele>158.9</ele>
        <time>2021-05-20T13:33:55Z</time>
      </trkpt>
      <trkpt lat="42.2607710" lon="-8.6682970">
        <ele>158.9</ele>
        <time>2021-05-20T13:33:56Z</time>
      </trkpt>
      <trkpt lat="42.2607780" lon="-8.6682860">
        <ele>158.9</ele>
        <time>2021-05-20T13:33:57Z</time>
      </trkpt>
      <trkpt lat="42.2607840" lon="-8.6682760">
        <ele>158.9</ele>
        <time>2021-05-20T13:33:58Z</time>
      </trkpt>
      <trkpt lat="42.2607940" lon="-8.6682610">
        <ele>159.0</ele>
        <time>2021-05-20T13:33:59Z</time>
      </trkpt>
      <trkpt lat="42.2607980" lon="-8.6682540">
        <ele>159.0</ele>
        <time>2021-05-20T13:34:00Z</time>
      </trkpt>
      <trkpt lat="42.2608010" lon="-8.6682450">
        <ele>159.0</ele>
        <time>2021-05-20T13:34:01Z</time>
      </trkpt>
      <trkpt lat="42.2608010" lon="-8.6682270">
        <ele>159.0</ele>
        <time>2021-05-20T13:34:02Z</time>
      </trkpt>
      <trkpt lat="42.2608200" lon="-8.6682070">
        <ele>159.1</ele>
        <time>2021-05-20T13:34:03Z</time>
      </trkpt>
      <trkpt lat="42.2608360" lon="-8.6681810">
        <ele>159.1</ele>
        <time>2021-05-20T13:34:04Z</time>
      </trkpt>
      <trkpt lat="42.2608440" lon="-8.6681670">
        <ele>159.1</ele>
        <time>2021-05-20T13:34:05Z</time>
      </trkpt>
      <trkpt lat="42.2608520" lon="-8.6681530">
        <ele>159.2</ele>
        <time>2021-05-20T13:34:06Z</time>
      </trkpt>
      <trkpt lat="42.2608600" lon="-8.6681330">
        <ele>159.2</ele>
        <time>2021-05-20T13:34:07Z</time>
      </trkpt>
      <trkpt lat="42.2608720" lon="-8.6681140">
        <ele>159.2</ele>
        <time>2021-05-20T13:34:08Z</time>
      </trkpt>
      <trkpt lat="42.2608750" lon="-8.6681040">
        <ele>159.2</ele>
        <time>2021-05-20T13:34:09Z</time>
      </trkpt>
      <trkpt lat="42.2608820" lon="-8.6680850">
        <ele>159.3</ele>
        <time>2021-05-20T13:34:10Z</time>
      </trkpt>
      <trkpt lat="42.2608860" lon="-8.6680730">
        <ele>159.3</ele>
        <time>2021-05-20T13:34:11Z</time>
      </trkpt>
      <trkpt lat="42.2608870" lon="-8.6680650">
        <ele>159.3</ele>
        <time>2021-05-20T13:34:12Z</time>
      </trkpt>
      <trkpt lat="42.2608930" lon="-8.6680500">
        <ele>159.3</ele>
        <time>2021-05-20T13:34:13Z</time>
      </trkpt>
      <trkpt lat="42.2609070" lon="-8.6680360">
        <ele>159.3</ele>
        <time>2021-05-20T13:34:14Z</time>
      </trkpt>
      <trkpt lat="42.2609160" lon="-8.6680210">
        <ele>159.4</ele>
        <time>2021-05-20T13:34:15Z</time>
      </trkpt>
      <trkpt lat="42.2609240" lon="-8.6680040">
        <ele>159.4</ele>
        <time>2021-05-20T13:34:16Z</time>
      </trkpt>
      <trkpt lat="42.2609330" lon="-8.6679950">
        <ele>159.4</ele>
        <time>2021-05-20T13:34:17Z</time>
      </trkpt>
      <trkpt lat="42.2609420" lon="-8.6679750">
        <ele>159.4</ele>
        <time>2021-05-20T13:34:18Z</time>
      </trkpt>
      <trkpt lat="42.2609580" lon="-8.6679520">
        <ele>159.4</ele>
        <time>2021-05-20T13:34:19Z</time>
      </trkpt>
      <trkpt lat="42.2609630" lon="-8.6679450">
        <ele>159.4</ele>
        <time>2021-05-20T13:34:20Z</time>
      </trkpt>
      <trkpt lat="42.2609690" lon="-8.6679370">
        <ele>159.4</ele>
        <time>2021-05-20T13:34:21Z</time>
      </trkpt>
      <trkpt lat="42.2609760" lon="-8.6679180">
        <ele>159.4</ele>
        <time>2021-05-20T13:34:22Z</time>
      </trkpt>
      <trkpt lat="42.2609820" lon="-8.6679080">
        <ele>159.4</ele>
        <time>2021-05-20T13:34:23Z</time>
      </trkpt>
      <trkpt lat="42.2609890" lon="-8.6678990">
        <ele>159.4</ele>
        <time>2021-05-20T13:34:24Z</time>
      </trkpt>
      <trkpt lat="42.2609950" lon="-8.6678890">
        <ele>159.4</ele>
        <time>2021-05-20T13:34:25Z</time>
      </trkpt>
      <trkpt lat="42.2610050" lon="-8.6678760">
        <ele>159.4</ele>
        <time>2021-05-20T13:34:26Z</time>
      </trkpt>
      <trkpt lat="42.2610220" lon="-8.6678590">
        <ele>159.4</ele>
        <time>2021-05-20T13:34:27Z</time>
      </trkpt>
      <trkpt lat="42.2610150" lon="-8.6678540">
        <ele>159.4</ele>
        <time>2021-05-20T13:34:28Z</time>
      </trkpt>
      <trkpt lat="42.2610250" lon="-8.6678380">
        <ele>159.5</ele>
        <time>2021-05-20T13:34:29Z</time>
      </trkpt>
      <trkpt lat="42.2610370" lon="-8.6678290">
        <ele>159.5</ele>
        <time>2021-05-20T13:34:30Z</time>
      </trkpt>
      <trkpt lat="42.2610450" lon="-8.6678180">
        <ele>159.5</ele>
        <time>2021-05-20T13:34:31Z</time>
      </trkpt>
      <trkpt lat="42.2610560" lon="-8.6677980">
        <ele>159.5</ele>
        <time>2021-05-20T13:34:32Z</time>
      </trkpt>
      <trkpt lat="42.2610590" lon="-8.6677920">
        <ele>159.5</ele>
        <time>2021-05-20T13:34:33Z</time>
      </trkpt>
      <trkpt lat="42.2610680" lon="-8.6677770">
        <ele>159.5</ele>
        <time>2021-05-20T13:34:34Z</time>
      </trkpt>
      <trkpt lat="42.2610760" lon="-8.6677630">
        <ele>159.5</ele>
        <time>2021-05-20T13:34:35Z</time>
      </trkpt>
      <trkpt lat="42.2610960" lon="-8.6677360">
        <ele>159.5</ele>
        <time>2021-05-20T13:34:36Z</time>
      </trkpt>
      <trkpt lat="42.2611040" lon="-8.6677260">
        <ele>159.5</ele>
        <time>2021-05-20T13:34:37Z</time>
      </trkpt>
      <trkpt lat="42.2611130" lon="-8.6677160">
        <ele>159.5</ele>
        <time>2021-05-20T13:34:38Z</time>
      </trkpt>
      <trkpt lat="42.2611190" lon="-8.6677110">
        <ele>159.5</ele>
        <time>2021-05-20T13:34:39Z</time>
      </trkpt>
      <trkpt lat="42.2611250" lon="-8.6676940">
        <ele>159.5</ele>
        <time>2021-05-20T13:34:40Z</time>
      </trkpt>
      <trkpt lat="42.2611310" lon="-8.6676790">
        <ele>159.5</ele>
        <time>2021-05-20T13:34:41Z</time>
      </trkpt>
      <trkpt lat="42.2611440" lon="-8.6676520">
        <ele>159.5</ele>
        <time>2021-05-20T13:34:43Z</time>
      </trkpt>
      <trkpt lat="42.2611490" lon="-8.6676460">
        <ele>159.5</ele>
        <time>2021-05-20T13:34:44Z</time>
      </trkpt>
      <trkpt lat="42.2611540" lon="-8.6676390">
        <ele>159.5</ele>
        <time>2021-05-20T13:34:45Z</time>
      </trkpt>
      <trkpt lat="42.2611690" lon="-8.6676230">
        <ele>159.5</ele>
        <time>2021-05-20T13:34:46Z</time>
      </trkpt>
      <trkpt lat="42.2611770" lon="-8.6676140">
        <ele>159.4</ele>
        <time>2021-05-20T13:34:47Z</time>
      </trkpt>
      <trkpt lat="42.2611850" lon="-8.6676060">
        <ele>159.4</ele>
        <time>2021-05-20T13:34:48Z</time>
      </trkpt>
      <trkpt lat="42.2611960" lon="-8.6675980">
        <ele>159.4</ele>
        <time>2021-05-20T13:34:49Z</time>
      </trkpt>
      <trkpt lat="42.2611980" lon="-8.6675870">
        <ele>159.4</ele>
        <time>2021-05-20T13:34:50Z</time>
      </trkpt>
      <trkpt lat="42.2612070" lon="-8.6675730">
        <ele>159.3</ele>
        <time>2021-05-20T13:34:51Z</time>
      </trkpt>
      <trkpt lat="42.2612190" lon="-8.6675520">
        <ele>159.3</ele>
        <time>2021-05-20T13:34:52Z</time>
      </trkpt>
      <trkpt lat="42.2612270" lon="-8.6675420">
        <ele>159.3</ele>
        <time>2021-05-20T13:34:53Z</time>
      </trkpt>
      <trkpt lat="42.2612340" lon="-8.6675310">
        <ele>159.2</ele>
        <time>2021-05-20T13:34:54Z</time>
      </trkpt>
      <trkpt lat="42.2612370" lon="-8.6675220">
        <ele>159.2</ele>
        <time>2021-05-20T13:34:55Z</time>
      </trkpt>
      <trkpt lat="42.2612430" lon="-8.6675120">
        <ele>159.2</ele>
        <time>2021-05-20T13:34:56Z</time>
      </trkpt>
      <trkpt lat="42.2612510" lon="-8.6675010">
        <ele>159.2</ele>
        <time>2021-05-20T13:34:57Z</time>
      </trkpt>
      <trkpt lat="42.2612600" lon="-8.6674890">
        <ele>159.2</ele>
        <time>2021-05-20T13:34:58Z</time>
      </trkpt>
      <trkpt lat="42.2612600" lon="-8.6674770">
        <ele>159.1</ele>
        <time>2021-05-20T13:34:59Z</time>
      </trkpt>
      <trkpt lat="42.2612660" lon="-8.6674610">
        <ele>159.1</ele>
        <time>2021-05-20T13:35:00Z</time>
      </trkpt>
      <trkpt lat="42.2612760" lon="-8.6674500">
        <ele>159.1</ele>
        <time>2021-05-20T13:35:01Z</time>
      </trkpt>
      <trkpt lat="42.2612880" lon="-8.6674330">
        <ele>159.0</ele>
        <time>2021-05-20T13:35:02Z</time>
      </trkpt>
      <trkpt lat="42.2612950" lon="-8.6674140">
        <ele>159.0</ele>
        <time>2021-05-20T13:35:03Z</time>
      </trkpt>
      <trkpt lat="42.2613000" lon="-8.6673970">
        <ele>159.0</ele>
        <time>2021-05-20T13:35:04Z</time>
      </trkpt>
      <trkpt lat="42.2613060" lon="-8.6673900">
        <ele>159.0</ele>
        <time>2021-05-20T13:35:05Z</time>
      </trkpt>
      <trkpt lat="42.2613230" lon="-8.6673740">
        <ele>158.9</ele>
        <time>2021-05-20T13:35:06Z</time>
      </trkpt>
      <trkpt lat="42.2613350" lon="-8.6673590">
        <ele>158.9</ele>
        <time>2021-05-20T13:35:07Z</time>
      </trkpt>
      <trkpt lat="42.2613400" lon="-8.6673380">
        <ele>158.9</ele>
        <time>2021-05-20T13:35:08Z</time>
      </trkpt>
      <trkpt lat="42.2613420" lon="-8.6673270">
        <ele>158.9</ele>
        <time>2021-05-20T13:35:09Z</time>
      </trkpt>
      <trkpt lat="42.2613440" lon="-8.6673200">
        <ele>158.9</ele>
        <time>2021-05-20T13:35:10Z</time>
      </trkpt>
      <trkpt lat="42.2613570" lon="-8.6673000">
        <ele>158.8</ele>
        <time>2021-05-20T13:35:11Z</time>
      </trkpt>
      <trkpt lat="42.2613640" lon="-8.6672840">
        <ele>158.8</ele>
        <time>2021-05-20T13:35:12Z</time>
      </trkpt>
      <trkpt lat="42.2613650" lon="-8.6672740">
        <ele>158.8</ele>
        <time>2021-05-20T13:35:13Z</time>
      </trkpt>
      <trkpt lat="42.2613630" lon="-8.6672570">
        <ele>158.8</ele>
        <time>2021-05-20T13:35:14Z</time>
      </trkpt>
      <trkpt lat="42.2613790" lon="-8.6672340">
        <ele>158.8</ele>
        <time>2021-05-20T13:35:15Z</time>
      </trkpt>
      <trkpt lat="42.2613820" lon="-8.6672270">
        <ele>158.8</ele>
        <time>2021-05-20T13:35:16Z</time>
      </trkpt>
      <trkpt lat="42.2613910" lon="-8.6672130">
        <ele>158.7</ele>
        <time>2021-05-20T13:35:17Z</time>
      </trkpt>
      <trkpt lat="42.2614080" lon="-8.6671930">
        <ele>158.7</ele>
        <time>2021-05-20T13:35:18Z</time>
      </trkpt>
      <trkpt lat="42.2614020" lon="-8.6671860">
        <ele>158.7</ele>
        <time>2021-05-20T13:35:19Z</time>
      </trkpt>
      <trkpt lat="42.2614160" lon="-8.6671660">
        <ele>158.7</ele>
        <time>2021-05-20T13:35:20Z</time>
      </trkpt>
      <trkpt lat="42.2614120" lon="-8.6671510">
        <ele>158.7</ele>
        <time>2021-05-20T13:35:21Z</time>
      </trkpt>
      <trkpt lat="42.2614200" lon="-8.6671370">
        <ele>158.7</ele>
        <time>2021-05-20T13:35:22Z</time>
      </trkpt>
      <trkpt lat="42.2614270" lon="-8.6671210">
        <ele>158.7</ele>
        <time>2021-05-20T13:35:23Z</time>
      </trkpt>
      <trkpt lat="42.2614370" lon="-8.6670940">
        <ele>158.6</ele>
        <time>2021-05-20T13:35:24Z</time>
      </trkpt>
      <trkpt lat="42.2614400" lon="-8.6670840">
        <ele>158.6</ele>
        <time>2021-05-20T13:35:25Z</time>
      </trkpt>
      <trkpt lat="42.2614420" lon="-8.6670750">
        <ele>158.6</ele>
        <time>2021-05-20T13:35:26Z</time>
      </trkpt>
      <trkpt lat="42.2614420" lon="-8.6670510">
        <ele>158.6</ele>
        <time>2021-05-20T13:35:27Z</time>
      </trkpt>
      <trkpt lat="42.2614400" lon="-8.6670380">
        <ele>158.6</ele>
        <time>2021-05-20T13:35:28Z</time>
      </trkpt>
      <trkpt lat="42.2614430" lon="-8.6669940">
        <ele>158.6</ele>
        <time>2021-05-20T13:35:29Z</time>
      </trkpt>
      <trkpt lat="42.2614410" lon="-8.6669830">
        <ele>158.6</ele>
        <time>2021-05-20T13:35:30Z</time>
      </trkpt>
      <trkpt lat="42.2614440" lon="-8.6669630">
        <ele>158.5</ele>
        <time>2021-05-20T13:35:31Z</time>
      </trkpt>
      <trkpt lat="42.2614450" lon="-8.6669450">
        <ele>158.5</ele>
        <time>2021-05-20T13:35:32Z</time>
      </trkpt>
      <trkpt lat="42.2614460" lon="-8.6669330">
        <ele>158.5</ele>
        <time>2021-05-20T13:35:33Z</time>
      </trkpt>
      <trkpt lat="42.2614440" lon="-8.6669180">
        <ele>158.5</ele>
        <time>2021-05-20T13:35:34Z</time>
      </trkpt>
      <trkpt lat="42.2614440" lon="-8.6669010">
        <ele>158.5</ele>
        <time>2021-05-20T13:35:35Z</time>
      </trkpt>
      <trkpt lat="42.2614430" lon="-8.6668850">
        <ele>158.5</ele>
        <time>2021-05-20T13:35:36Z</time>
      </trkpt>
      <trkpt lat="42.2614380" lon="-8.6668710">
        <ele>158.5</ele>
        <time>2021-05-20T13:35:37Z</time>
      </trkpt>
      <trkpt lat="42.2614330" lon="-8.6668580">
        <ele>158.5</ele>
        <time>2021-05-20T13:35:38Z</time>
      </trkpt>
      <trkpt lat="42.2614300" lon="-8.6668390">
        <ele>158.4</ele>
        <time>2021-05-20T13:35:39Z</time>
      </trkpt>
      <trkpt lat="42.2614230" lon="-8.6668240">
        <ele>158.4</ele>
        <time>2021-05-20T13:35:40Z</time>
      </trkpt>
      <trkpt lat="42.2614200" lon="-8.6668160">
        <ele>158.4</ele>
        <time>2021-05-20T13:35:41Z</time>
      </trkpt>
      <trkpt lat="42.2614150" lon="-8.6667970">
        <ele>158.4</ele>
        <time>2021-05-20T13:35:42Z</time>
      </trkpt>
      <trkpt lat="42.2614110" lon="-8.6667810">
        <ele>158.4</ele>
        <time>2021-05-20T13:35:43Z</time>
      </trkpt>
      <trkpt lat="42.2614060" lon="-8.6667640">
        <ele>158.4</ele>
        <time>2021-05-20T13:35:44Z</time>
      </trkpt>
      <trkpt lat="42.2614010" lon="-8.6667420">
        <ele>158.4</ele>
        <time>2021-05-20T13:35:45Z</time>
      </trkpt>
      <trkpt lat="42.2613940" lon="-8.6667160">
        <ele>158.3</ele>
        <time>2021-05-20T13:35:46Z</time>
      </trkpt>
      <trkpt lat="42.2613930" lon="-8.6667050">
        <ele>158.3</ele>
        <time>2021-05-20T13:35:47Z</time>
      </trkpt>
      <trkpt lat="42.2613920" lon="-8.6666940">
        <ele>158.3</ele>
        <time>2021-05-20T13:35:48Z</time>
      </trkpt>
      <trkpt lat="42.2613870" lon="-8.6666780">
        <ele>158.3</ele>
        <time>2021-05-20T13:35:49Z</time>
      </trkpt>
      <trkpt lat="42.2613810" lon="-8.6666690">
        <ele>158.3</ele>
        <time>2021-05-20T13:35:50Z</time>
      </trkpt>
      <trkpt lat="42.2613800" lon="-8.6666490">
        <ele>158.3</ele>
        <time>2021-05-20T13:35:51Z</time>
      </trkpt>
      <trkpt lat="42.2613720" lon="-8.6666340">
        <ele>158.3</ele>
        <time>2021-05-20T13:35:52Z</time>
      </trkpt>
      <trkpt lat="42.2613680" lon="-8.6666160">
        <ele>158.3</ele>
        <time>2021-05-20T13:35:53Z</time>
      </trkpt>
      <trkpt lat="42.2613630" lon="-8.6665990">
        <ele>158.2</ele>
        <time>2021-05-20T13:35:54Z</time>
      </trkpt>
      <trkpt lat="42.2613620" lon="-8.6665770">
        <ele>158.2</ele>
        <time>2021-05-20T13:35:55Z</time>
      </trkpt>
      <trkpt lat="42.2613480" lon="-8.6665610">
        <ele>158.2</ele>
        <time>2021-05-20T13:35:56Z</time>
      </trkpt>
      <trkpt lat="42.2613430" lon="-8.6665250">
        <ele>158.2</ele>
        <time>2021-05-20T13:35:57Z</time>
      </trkpt>
      <trkpt lat="42.2613400" lon="-8.6665130">
        <ele>158.2</ele>
        <time>2021-05-20T13:35:58Z</time>
      </trkpt>
      <trkpt lat="42.2613380" lon="-8.6664930">
        <ele>158.2</ele>
        <time>2021-05-20T13:35:59Z</time>
      </trkpt>
      <trkpt lat="42.2613270" lon="-8.6664760">
        <ele>158.2</ele>
        <time>2021-05-20T13:36:00Z</time>
      </trkpt>
      <trkpt lat="42.2613290" lon="-8.6664520">
        <ele>158.2</ele>
        <time>2021-05-20T13:36:01Z</time>
      </trkpt>
      <trkpt lat="42.2613150" lon="-8.6664390">
        <ele>158.1</ele>
        <time>2021-05-20T13:36:02Z</time>
      </trkpt>
      <trkpt lat="42.2613040" lon="-8.6664250">
        <ele>158.1</ele>
        <time>2021-05-20T13:36:03Z</time>
      </trkpt>
      <trkpt lat="42.2613050" lon="-8.6664040">
        <ele>158.1</ele>
        <time>2021-05-20T13:36:04Z</time>
      </trkpt>
      <trkpt lat="42.2612960" lon="-8.6664020">
        <ele>158.1</ele>
        <time>2021-05-20T13:36:05Z</time>
      </trkpt>
      <trkpt lat="42.2612900" lon="-8.6663860">
        <ele>158.1</ele>
        <time>2021-05-20T13:36:06Z</time>
      </trkpt>
      <trkpt lat="42.2612890" lon="-8.6663690">
        <ele>158.1</ele>
        <time>2021-05-20T13:36:07Z</time>
      </trkpt>
      <trkpt lat="42.2612780" lon="-8.6663440">
        <ele>158.1</ele>
        <time>2021-05-20T13:36:08Z</time>
      </trkpt>
      <trkpt lat="42.2612740" lon="-8.6663300">
        <ele>158.1</ele>
        <time>2021-05-20T13:36:09Z</time>
      </trkpt>
      <trkpt lat="42.2612710" lon="-8.6663150">
        <ele>158.1</ele>
        <time>2021-05-20T13:36:10Z</time>
      </trkpt>
      <trkpt lat="42.2612660" lon="-8.6663020">
        <ele>158.1</ele>
        <time>2021-05-20T13:36:11Z</time>
      </trkpt>
      <trkpt lat="42.2612620" lon="-8.6662960">
        <ele>158.1</ele>
        <time>2021-05-20T13:36:12Z</time>
      </trkpt>
      <trkpt lat="42.2612570" lon="-8.6662770">
        <ele>158.1</ele>
        <time>2021-05-20T13:36:13Z</time>
      </trkpt>
      <trkpt lat="42.2612510" lon="-8.6662440">
        <ele>158.1</ele>
        <time>2021-05-20T13:36:14Z</time>
      </trkpt>
      <trkpt lat="42.2612480" lon="-8.6662320">
        <ele>158.1</ele>
        <time>2021-05-20T13:36:15Z</time>
      </trkpt>
      <trkpt lat="42.2612450" lon="-8.6662190">
        <ele>158.1</ele>
        <time>2021-05-20T13:36:16Z</time>
      </trkpt>
      <trkpt lat="42.2612410" lon="-8.6662040">
        <ele>158.1</ele>
        <time>2021-05-20T13:36:17Z</time>
      </trkpt>
      <trkpt lat="42.2612360" lon="-8.6661940">
        <ele>158.1</ele>
        <time>2021-05-20T13:36:18Z</time>
      </trkpt>
      <trkpt lat="42.2612310" lon="-8.6661760">
        <ele>158.1</ele>
        <time>2021-05-20T13:36:19Z</time>
      </trkpt>
      <trkpt lat="42.2612240" lon="-8.6661540">
        <ele>158.1</ele>
        <time>2021-05-20T13:36:20Z</time>
      </trkpt>
      <trkpt lat="42.2612220" lon="-8.6661450">
        <ele>158.1</ele>
        <time>2021-05-20T13:36:21Z</time>
      </trkpt>
      <trkpt lat="42.2612190" lon="-8.6661350">
        <ele>158.1</ele>
        <time>2021-05-20T13:36:22Z</time>
      </trkpt>
      <trkpt lat="42.2612170" lon="-8.6661260">
        <ele>158.1</ele>
        <time>2021-05-20T13:36:23Z</time>
      </trkpt>
      <trkpt lat="42.2612100" lon="-8.6661020">
        <ele>158.1</ele>
        <time>2021-05-20T13:36:24Z</time>
      </trkpt>
      <trkpt lat="42.2612060" lon="-8.6660920">
        <ele>158.1</ele>
        <time>2021-05-20T13:36:25Z</time>
      </trkpt>
      <trkpt lat="42.2612060" lon="-8.6660740">
        <ele>158.1</ele>
        <time>2021-05-20T13:36:26Z</time>
      </trkpt>
      <trkpt lat="42.2611950" lon="-8.6660560">
        <ele>158.1</ele>
        <time>2021-05-20T13:36:27Z</time>
      </trkpt>
      <trkpt lat="42.2611900" lon="-8.6660490">
        <ele>158.1</ele>
        <time>2021-05-20T13:36:28Z</time>
      </trkpt>
      <trkpt lat="42.2611870" lon="-8.6660380">
        <ele>158.1</ele>
        <time>2021-05-20T13:36:29Z</time>
      </trkpt>
      <trkpt lat="42.2611820" lon="-8.6660210">
        <ele>158.1</ele>
        <time>2021-05-20T13:36:30Z</time>
      </trkpt>
      <trkpt lat="42.2611880" lon="-8.6660050">
        <ele>158.1</ele>
        <time>2021-05-20T13:36:31Z</time>
      </trkpt>
      <trkpt lat="42.2611860" lon="-8.6659840">
        <ele>158.1</ele>
        <time>2021-05-20T13:36:32Z</time>
      </trkpt>
      <trkpt lat="42.2611790" lon="-8.6659650">
        <ele>158.1</ele>
        <time>2021-05-20T13:36:33Z</time>
      </trkpt>
      <trkpt lat="42.2611770" lon="-8.6659460">
        <ele>158.1</ele>
        <time>2021-05-20T13:36:34Z</time>
      </trkpt>
      <trkpt lat="42.2611730" lon="-8.6659310">
        <ele>158.1</ele>
        <time>2021-05-20T13:36:35Z</time>
      </trkpt>
      <trkpt lat="42.2611680" lon="-8.6659080">
        <ele>158.1</ele>
        <time>2021-05-20T13:36:36Z</time>
      </trkpt>
      <trkpt lat="42.2611660" lon="-8.6658830">
        <ele>158.1</ele>
        <time>2021-05-20T13:36:37Z</time>
      </trkpt>
      <trkpt lat="42.2611640" lon="-8.6658700">
        <ele>158.1</ele>
        <time>2021-05-20T13:36:39Z</time>
      </trkpt>
      <trkpt lat="42.2611630" lon="-8.6658580">
        <ele>158.1</ele>
        <time>2021-05-20T13:36:40Z</time>
      </trkpt>
      <trkpt lat="42.2611510" lon="-8.6658420">
        <ele>158.1</ele>
        <time>2021-05-20T13:36:41Z</time>
      </trkpt>
      <trkpt lat="42.2611490" lon="-8.6658260">
        <ele>158.1</ele>
        <time>2021-05-20T13:36:42Z</time>
      </trkpt>
      <trkpt lat="42.2611400" lon="-8.6657980">
        <ele>158.1</ele>
        <time>2021-05-20T13:36:43Z</time>
      </trkpt>
      <trkpt lat="42.2611390" lon="-8.6657870">
        <ele>158.2</ele>
        <time>2021-05-20T13:36:44Z</time>
      </trkpt>
      <trkpt lat="42.2611390" lon="-8.6657750">
        <ele>158.2</ele>
        <time>2021-05-20T13:36:45Z</time>
      </trkpt>
      <trkpt lat="42.2611290" lon="-8.6657640">
        <ele>158.2</ele>
        <time>2021-05-20T13:36:46Z</time>
      </trkpt>
      <trkpt lat="42.2611340" lon="-8.6657460">
        <ele>158.2</ele>
        <time>2021-05-20T13:36:47Z</time>
      </trkpt>
      <trkpt lat="42.2611270" lon="-8.6657330">
        <ele>158.2</ele>
        <time>2021-05-20T13:36:48Z</time>
      </trkpt>
      <trkpt lat="42.2611250" lon="-8.6657100">
        <ele>158.2</ele>
        <time>2021-05-20T13:36:49Z</time>
      </trkpt>
      <trkpt lat="42.2611240" lon="-8.6657010">
        <ele>158.2</ele>
        <time>2021-05-20T13:36:50Z</time>
      </trkpt>
      <trkpt lat="42.2611240" lon="-8.6656850">
        <ele>158.2</ele>
        <time>2021-05-20T13:36:51Z</time>
      </trkpt>
      <trkpt lat="42.2611240" lon="-8.6656650">
        <ele>158.2</ele>
        <time>2021-05-20T13:36:52Z</time>
      </trkpt>
      <trkpt lat="42.2611200" lon="-8.6656580">
        <ele>158.2</ele>
        <time>2021-05-20T13:36:53Z</time>
      </trkpt>
      <trkpt lat="42.2611110" lon="-8.6656430">
        <ele>158.2</ele>
        <time>2021-05-20T13:36:54Z</time>
      </trkpt>
      <trkpt lat="42.2611030" lon="-8.6656170">
        <ele>158.2</ele>
        <time>2021-05-20T13:36:55Z</time>
      </trkpt>
      <trkpt lat="42.2611020" lon="-8.6656040">
        <ele>158.2</ele>
        <time>2021-05-20T13:36:56Z</time>
      </trkpt>
      <trkpt lat="42.2611010" lon="-8.6655920">
        <ele>158.2</ele>
        <time>2021-05-20T13:36:57Z</time>
      </trkpt>
      <trkpt lat="42.2610960" lon="-8.6655820">
        <ele>158.2</ele>
        <time>2021-05-20T13:36:58Z</time>
      </trkpt>
      <trkpt lat="42.2610960" lon="-8.6655670">
        <ele>158.2</ele>
        <time>2021-05-20T13:36:59Z</time>
      </trkpt>
      <trkpt lat="42.2610910" lon="-8.6655630">
        <ele>158.2</ele>
        <time>2021-05-20T13:37:00Z</time>
      </trkpt>
      <trkpt lat="42.2611040" lon="-8.6655460">
        <ele>158.2</ele>
        <time>2021-05-20T13:37:01Z</time>
      </trkpt>
      <trkpt lat="42.2611040" lon="-8.6655350">
        <ele>158.2</ele>
        <time>2021-05-20T13:37:02Z</time>
      </trkpt>
      <trkpt lat="42.2611110" lon="-8.6655210">
        <ele>158.2</ele>
        <time>2021-05-20T13:37:03Z</time>
      </trkpt>
      <trkpt lat="42.2611100" lon="-8.6655100">
        <ele>158.2</ele>
        <time>2021-05-20T13:37:04Z</time>
      </trkpt>
      <trkpt lat="42.2611110" lon="-8.6654900">
        <ele>158.2</ele>
        <time>2021-05-20T13:37:05Z</time>
      </trkpt>
      <trkpt lat="42.2611120" lon="-8.6654790">
        <ele>158.2</ele>
        <time>2021-05-20T13:37:06Z</time>
      </trkpt>
      <trkpt lat="42.2611120" lon="-8.6654670">
        <ele>158.2</ele>
        <time>2021-05-20T13:37:07Z</time>
      </trkpt>
      <trkpt lat="42.2611130" lon="-8.6654560">
        <ele>158.2</ele>
        <time>2021-05-20T13:37:08Z</time>
      </trkpt>
      <trkpt lat="42.2611090" lon="-8.6654430">
        <ele>158.2</ele>
        <time>2021-05-20T13:37:09Z</time>
      </trkpt>
      <trkpt lat="42.2611040" lon="-8.6654290">
        <ele>158.2</ele>
        <time>2021-05-20T13:37:10Z</time>
      </trkpt>
      <trkpt lat="42.2610990" lon="-8.6654110">
        <ele>158.2</ele>
        <time>2021-05-20T13:37:11Z</time>
      </trkpt>
      <trkpt lat="42.2610940" lon="-8.6653810">
        <ele>158.2</ele>
        <time>2021-05-20T13:37:12Z</time>
      </trkpt>
      <trkpt lat="42.2610900" lon="-8.6653720">
        <ele>158.2</ele>
        <time>2021-05-20T13:37:13Z</time>
      </trkpt>
      <trkpt lat="42.2610860" lon="-8.6653620">
        <ele>158.2</ele>
        <time>2021-05-20T13:37:14Z</time>
      </trkpt>
      <trkpt lat="42.2610750" lon="-8.6653530">
        <ele>158.2</ele>
        <time>2021-05-20T13:37:15Z</time>
      </trkpt>
      <trkpt lat="42.2610710" lon="-8.6653420">
        <ele>158.2</ele>
        <time>2021-05-20T13:37:16Z</time>
      </trkpt>
      <trkpt lat="42.2610670" lon="-8.6653220">
        <ele>158.2</ele>
        <time>2021-05-20T13:37:17Z</time>
      </trkpt>
      <trkpt lat="42.2610670" lon="-8.6653040">
        <ele>158.2</ele>
        <time>2021-05-20T13:37:18Z</time>
      </trkpt>
      <trkpt lat="42.2610650" lon="-8.6652810">
        <ele>158.2</ele>
        <time>2021-05-20T13:37:19Z</time>
      </trkpt>
      <trkpt lat="42.2610610" lon="-8.6652610">
        <ele>158.2</ele>
        <time>2021-05-20T13:37:20Z</time>
      </trkpt>
      <trkpt lat="42.2610580" lon="-8.6652500">
        <ele>158.2</ele>
        <time>2021-05-20T13:37:21Z</time>
      </trkpt>
      <trkpt lat="42.2610600" lon="-8.6652320">
        <ele>158.2</ele>
        <time>2021-05-20T13:37:22Z</time>
      </trkpt>
      <trkpt lat="42.2610580" lon="-8.6652100">
        <ele>158.1</ele>
        <time>2021-05-20T13:37:23Z</time>
      </trkpt>
      <trkpt lat="42.2610570" lon="-8.6652000">
        <ele>158.1</ele>
        <time>2021-05-20T13:37:24Z</time>
      </trkpt>
      <trkpt lat="42.2610590" lon="-8.6651830">
        <ele>158.1</ele>
        <time>2021-05-20T13:37:25Z</time>
      </trkpt>
      <trkpt lat="42.2610480" lon="-8.6651580">
        <ele>158.1</ele>
        <time>2021-05-20T13:37:26Z</time>
      </trkpt>
      <trkpt lat="42.2610460" lon="-8.6651410">
        <ele>158.1</ele>
        <time>2021-05-20T13:37:27Z</time>
      </trkpt>
      <trkpt lat="42.2610530" lon="-8.6651260">
        <ele>158.1</ele>
        <time>2021-05-20T13:37:28Z</time>
      </trkpt>
      <trkpt lat="42.2610480" lon="-8.6651130">
        <ele>158.1</ele>
        <time>2021-05-20T13:37:29Z</time>
      </trkpt>
      <trkpt lat="42.2610470" lon="-8.6651050">
        <ele>158.1</ele>
        <time>2021-05-20T13:37:30Z</time>
      </trkpt>
      <trkpt lat="42.2610400" lon="-8.6650960">
        <ele>158.1</ele>
        <time>2021-05-20T13:37:31Z</time>
      </trkpt>
      <trkpt lat="42.2610390" lon="-8.6650810">
        <ele>158.1</ele>
        <time>2021-05-20T13:37:32Z</time>
      </trkpt>
      <trkpt lat="42.2610310" lon="-8.6650620">
        <ele>158.1</ele>
        <time>2021-05-20T13:37:33Z</time>
      </trkpt>
      <trkpt lat="42.2610270" lon="-8.6650340">
        <ele>158.1</ele>
        <time>2021-05-20T13:37:34Z</time>
      </trkpt>
      <trkpt lat="42.2610230" lon="-8.6650130">
        <ele>158.1</ele>
        <time>2021-05-20T13:37:35Z</time>
      </trkpt>
      <trkpt lat="42.2610240" lon="-8.6649950">
        <ele>158.1</ele>
        <time>2021-05-20T13:37:36Z</time>
      </trkpt>
      <trkpt lat="42.2610290" lon="-8.6649800">
        <ele>158.1</ele>
        <time>2021-05-20T13:37:37Z</time>
      </trkpt>
      <trkpt lat="42.2610320" lon="-8.6649660">
        <ele>158.1</ele>
        <time>2021-05-20T13:37:38Z</time>
      </trkpt>
      <trkpt lat="42.2610320" lon="-8.6649440">
        <ele>158.1</ele>
        <time>2021-05-20T13:37:39Z</time>
      </trkpt>
      <trkpt lat="42.2610270" lon="-8.6649190">
        <ele>158.1</ele>
        <time>2021-05-20T13:37:40Z</time>
      </trkpt>
      <trkpt lat="42.2610200" lon="-8.6648980">
        <ele>158.1</ele>
        <time>2021-05-20T13:37:41Z</time>
      </trkpt>
      <trkpt lat="42.2610130" lon="-8.6648780">
        <ele>158.1</ele>
        <time>2021-05-20T13:37:42Z</time>
      </trkpt>
      <trkpt lat="42.2610100" lon="-8.6648640">
        <ele>158.1</ele>
        <time>2021-05-20T13:37:43Z</time>
      </trkpt>
      <trkpt lat="42.2610120" lon="-8.6648370">
        <ele>158.1</ele>
        <time>2021-05-20T13:37:44Z</time>
      </trkpt>
      <trkpt lat="42.2610190" lon="-8.6648200">
        <ele>158.1</ele>
        <time>2021-05-20T13:37:45Z</time>
      </trkpt>
      <trkpt lat="42.2610190" lon="-8.6648120">
        <ele>158.0</ele>
        <time>2021-05-20T13:37:46Z</time>
      </trkpt>
      <trkpt lat="42.2610240" lon="-8.6647950">
        <ele>158.0</ele>
        <time>2021-05-20T13:37:47Z</time>
      </trkpt>
      <trkpt lat="42.2610250" lon="-8.6647700">
        <ele>158.0</ele>
        <time>2021-05-20T13:37:48Z</time>
      </trkpt>
      <trkpt lat="42.2610320" lon="-8.6647480">
        <ele>158.0</ele>
        <time>2021-05-20T13:37:49Z</time>
      </trkpt>
      <trkpt lat="42.2610360" lon="-8.6647360">
        <ele>158.0</ele>
        <time>2021-05-20T13:37:50Z</time>
      </trkpt>
      <trkpt lat="42.2610400" lon="-8.6647230">
        <ele>158.0</ele>
        <time>2021-05-20T13:37:51Z</time>
      </trkpt>
      <trkpt lat="42.2610420" lon="-8.6647080">
        <ele>158.0</ele>
        <time>2021-05-20T13:37:52Z</time>
      </trkpt>
      <trkpt lat="42.2610510" lon="-8.6646860">
        <ele>158.0</ele>
        <time>2021-05-20T13:37:53Z</time>
      </trkpt>
      <trkpt lat="42.2610550" lon="-8.6646880">
        <ele>158.0</ele>
        <time>2021-05-20T13:37:54Z</time>
      </trkpt>
      <trkpt lat="42.2610640" lon="-8.6646730">
        <ele>158.0</ele>
        <time>2021-05-20T13:37:55Z</time>
      </trkpt>
      <trkpt lat="42.2610650" lon="-8.6646580">
        <ele>158.0</ele>
        <time>2021-05-20T13:37:56Z</time>
      </trkpt>
      <trkpt lat="42.2610760" lon="-8.6646410">
        <ele>158.0</ele>
        <time>2021-05-20T13:37:57Z</time>
      </trkpt>
      <trkpt lat="42.2610860" lon="-8.6646260">
        <ele>158.0</ele>
        <time>2021-05-20T13:37:58Z</time>
      </trkpt>
      <trkpt lat="42.2610950" lon="-8.6646110">
        <ele>158.0</ele>
        <time>2021-05-20T13:37:59Z</time>
      </trkpt>
      <trkpt lat="42.2611070" lon="-8.6646040">
        <ele>158.0</ele>
        <time>2021-05-20T13:38:00Z</time>
      </trkpt>
      <trkpt lat="42.2611200" lon="-8.6645870">
        <ele>158.0</ele>
        <time>2021-05-20T13:38:01Z</time>
      </trkpt>
      <trkpt lat="42.2611200" lon="-8.6645750">
        <ele>158.0</ele>
        <time>2021-05-20T13:38:02Z</time>
      </trkpt>
      <trkpt lat="42.2611220" lon="-8.6645660">
        <ele>158.0</ele>
        <time>2021-05-20T13:38:03Z</time>
      </trkpt>
      <trkpt lat="42.2611340" lon="-8.6645520">
        <ele>158.0</ele>
        <time>2021-05-20T13:38:04Z</time>
      </trkpt>
      <trkpt lat="42.2611450" lon="-8.6645270">
        <ele>158.0</ele>
        <time>2021-05-20T13:38:05Z</time>
      </trkpt>
      <trkpt lat="42.2611510" lon="-8.6645150">
        <ele>158.0</ele>
        <time>2021-05-20T13:38:06Z</time>
      </trkpt>
      <trkpt lat="42.2611570" lon="-8.6645020">
        <ele>158.0</ele>
        <time>2021-05-20T13:38:07Z</time>
      </trkpt>
      <trkpt lat="42.2611590" lon="-8.6644850">
        <ele>158.0</ele>
        <time>2021-05-20T13:38:08Z</time>
      </trkpt>
      <trkpt lat="42.2611580" lon="-8.6644630">
        <ele>158.0</ele>
        <time>2021-05-20T13:38:09Z</time>
      </trkpt>
      <trkpt lat="42.2611570" lon="-8.6644470">
        <ele>158.0</ele>
        <time>2021-05-20T13:38:10Z</time>
      </trkpt>
      <trkpt lat="42.2611590" lon="-8.6644410">
        <ele>158.0</ele>
        <time>2021-05-20T13:38:11Z</time>
      </trkpt>
      <trkpt lat="42.2611490" lon="-8.6644180">
        <ele>158.0</ele>
        <time>2021-05-20T13:38:12Z</time>
      </trkpt>
      <trkpt lat="42.2611550" lon="-8.6644010">
        <ele>158.0</ele>
        <time>2021-05-20T13:38:13Z</time>
      </trkpt>
      <trkpt lat="42.2611540" lon="-8.6643850">
        <ele>158.0</ele>
        <time>2021-05-20T13:38:14Z</time>
      </trkpt>
      <trkpt lat="42.2611580" lon="-8.6643760">
        <ele>158.0</ele>
        <time>2021-05-20T13:38:15Z</time>
      </trkpt>
      <trkpt lat="42.2611610" lon="-8.6643500">
        <ele>157.9</ele>
        <time>2021-05-20T13:38:16Z</time>
      </trkpt>
      <trkpt lat="42.2611620" lon="-8.6643380">
        <ele>157.9</ele>
        <time>2021-05-20T13:38:17Z</time>
      </trkpt>
      <trkpt lat="42.2611630" lon="-8.6643270">
        <ele>157.9</ele>
        <time>2021-05-20T13:38:18Z</time>
      </trkpt>
      <trkpt lat="42.2611660" lon="-8.6643050">
        <ele>157.9</ele>
        <time>2021-05-20T13:38:19Z</time>
      </trkpt>
      <trkpt lat="42.2611670" lon="-8.6642900">
        <ele>157.9</ele>
        <time>2021-05-20T13:38:20Z</time>
      </trkpt>
      <trkpt lat="42.2611720" lon="-8.6642740">
        <ele>157.9</ele>
        <time>2021-05-20T13:38:21Z</time>
      </trkpt>
      <trkpt lat="42.2611720" lon="-8.6642670">
        <ele>157.9</ele>
        <time>2021-05-20T13:38:22Z</time>
      </trkpt>
      <trkpt lat="42.2611780" lon="-8.6642490">
        <ele>157.9</ele>
        <time>2021-05-20T13:38:23Z</time>
      </trkpt>
      <trkpt lat="42.2611900" lon="-8.6642270">
        <ele>157.9</ele>
        <time>2021-05-20T13:38:24Z</time>
      </trkpt>
      <trkpt lat="42.2611950" lon="-8.6642160">
        <ele>157.9</ele>
        <time>2021-05-20T13:38:25Z</time>
      </trkpt>
      <trkpt lat="42.2612000" lon="-8.6642040">
        <ele>157.9</ele>
        <time>2021-05-20T13:38:26Z</time>
      </trkpt>
      <trkpt lat="42.2612090" lon="-8.6641960">
        <ele>157.9</ele>
        <time>2021-05-20T13:38:28Z</time>
      </trkpt>
      <trkpt lat="42.2612160" lon="-8.6641850">
        <ele>157.9</ele>
        <time>2021-05-20T13:38:29Z</time>
      </trkpt>
      <trkpt lat="42.2612220" lon="-8.6641700">
        <ele>157.9</ele>
        <time>2021-05-20T13:38:30Z</time>
      </trkpt>
      <trkpt lat="42.2612260" lon="-8.6641600">
        <ele>157.9</ele>
        <time>2021-05-20T13:38:31Z</time>
      </trkpt>
      <trkpt lat="42.2612280" lon="-8.6641440">
        <ele>157.9</ele>
        <time>2021-05-20T13:38:32Z</time>
      </trkpt>
      <trkpt lat="42.2612370" lon="-8.6641280">
        <ele>157.9</ele>
        <time>2021-05-20T13:38:33Z</time>
      </trkpt>
      <trkpt lat="42.2612440" lon="-8.6641160">
        <ele>157.9</ele>
        <time>2021-05-20T13:38:34Z</time>
      </trkpt>
      <trkpt lat="42.2612450" lon="-8.6641070">
        <ele>157.9</ele>
        <time>2021-05-20T13:38:35Z</time>
      </trkpt>
      <trkpt lat="42.2612510" lon="-8.6640990">
        <ele>157.9</ele>
        <time>2021-05-20T13:38:36Z</time>
      </trkpt>
      <trkpt lat="42.2612630" lon="-8.6640940">
        <ele>157.9</ele>
        <time>2021-05-20T13:38:37Z</time>
      </trkpt>
      <trkpt lat="42.2612820" lon="-8.6640750">
        <ele>157.9</ele>
        <time>2021-05-20T13:38:38Z</time>
      </trkpt>
      <trkpt lat="42.2612900" lon="-8.6640700">
        <ele>157.9</ele>
        <time>2021-05-20T13:38:39Z</time>
      </trkpt>
      <trkpt lat="42.2612970" lon="-8.6640640">
        <ele>157.9</ele>
        <time>2021-05-20T13:38:40Z</time>
      </trkpt>
      <trkpt lat="42.2613020" lon="-8.6640400">
        <ele>157.9</ele>
        <time>2021-05-20T13:38:41Z</time>
      </trkpt>
      <trkpt lat="42.2613080" lon="-8.6640350">
        <ele>157.9</ele>
        <time>2021-05-20T13:38:42Z</time>
      </trkpt>
      <trkpt lat="42.2613140" lon="-8.6640290">
        <ele>157.9</ele>
        <time>2021-05-20T13:38:43Z</time>
      </trkpt>
      <trkpt lat="42.2613260" lon="-8.6640180">
        <ele>157.9</ele>
        <time>2021-05-20T13:38:44Z</time>
      </trkpt>
      <trkpt lat="42.2613280" lon="-8.6640070">
        <ele>157.9</ele>
        <time>2021-05-20T13:38:45Z</time>
      </trkpt>
      <trkpt lat="42.2613190" lon="-8.6639870">
        <ele>157.9</ele>
        <time>2021-05-20T13:38:46Z</time>
      </trkpt>
      <trkpt lat="42.2613230" lon="-8.6639650">
        <ele>157.9</ele>
        <time>2021-05-20T13:38:47Z</time>
      </trkpt>
      <trkpt lat="42.2613260" lon="-8.6639550">
        <ele>157.9</ele>
        <time>2021-05-20T13:38:48Z</time>
      </trkpt>
      <trkpt lat="42.2613280" lon="-8.6639460">
        <ele>157.9</ele>
        <time>2021-05-20T13:38:49Z</time>
      </trkpt>
      <trkpt lat="42.2613310" lon="-8.6639360">
        <ele>157.9</ele>
        <time>2021-05-20T13:38:50Z</time>
      </trkpt>
      <trkpt lat="42.2613440" lon="-8.6639130">
        <ele>157.9</ele>
        <time>2021-05-20T13:38:51Z</time>
      </trkpt>
      <trkpt lat="42.2613470" lon="-8.6639020">
        <ele>157.9</ele>
        <time>2021-05-20T13:38:52Z</time>
      </trkpt>
      <trkpt lat="42.2613510" lon="-8.6638920">
        <ele>157.9</ele>
        <time>2021-05-20T13:38:53Z</time>
      </trkpt>
      <trkpt lat="42.2613520" lon="-8.6638820">
        <ele>157.9</ele>
        <time>2021-05-20T13:38:54Z</time>
      </trkpt>
      <trkpt lat="42.2613550" lon="-8.6638650">
        <ele>157.9</ele>
        <time>2021-05-20T13:38:55Z</time>
      </trkpt>
      <trkpt lat="42.2613540" lon="-8.6638540">
        <ele>157.9</ele>
        <time>2021-05-20T13:38:56Z</time>
      </trkpt>
      <trkpt lat="42.2613630" lon="-8.6638390">
        <ele>157.9</ele>
        <time>2021-05-20T13:38:57Z</time>
      </trkpt>
      <trkpt lat="42.2613630" lon="-8.6638270">
        <ele>157.9</ele>
        <time>2021-05-20T13:38:58Z</time>
      </trkpt>
      <trkpt lat="42.2613650" lon="-8.6638140">
        <ele>157.9</ele>
        <time>2021-05-20T13:38:59Z</time>
      </trkpt>
      <trkpt lat="42.2613670" lon="-8.6637970">
        <ele>157.9</ele>
        <time>2021-05-20T13:39:00Z</time>
      </trkpt>
      <trkpt lat="42.2613680" lon="-8.6637830">
        <ele>157.9</ele>
        <time>2021-05-20T13:39:01Z</time>
      </trkpt>
      <trkpt lat="42.2613710" lon="-8.6637710">
        <ele>157.9</ele>
        <time>2021-05-20T13:39:02Z</time>
      </trkpt>
      <trkpt lat="42.2613770" lon="-8.6637550">
        <ele>157.9</ele>
        <time>2021-05-20T13:39:03Z</time>
      </trkpt>
      <trkpt lat="42.2613750" lon="-8.6637440">
        <ele>157.9</ele>
        <time>2021-05-20T13:39:04Z</time>
      </trkpt>
      <trkpt lat="42.2613750" lon="-8.6637250">
        <ele>157.9</ele>
        <time>2021-05-20T13:39:05Z</time>
      </trkpt>
      <trkpt lat="42.2613720" lon="-8.6637060">
        <ele>157.8</ele>
        <time>2021-05-20T13:39:06Z</time>
      </trkpt>
      <trkpt lat="42.2613710" lon="-8.6637030">
        <ele>157.8</ele>
        <time>2021-05-20T13:39:07Z</time>
      </trkpt>
      <trkpt lat="42.2613740" lon="-8.6637000">
        <ele>157.8</ele>
        <time>2021-05-20T13:39:08Z</time>
      </trkpt>
      <trkpt lat="42.2613720" lon="-8.6637110">
        <ele>157.8</ele>
        <time>2021-05-20T13:39:09Z</time>
      </trkpt>
      <trkpt lat="42.2613690" lon="-8.6637280">
        <ele>157.8</ele>
        <time>2021-05-20T13:39:10Z</time>
      </trkpt>
      <trkpt lat="42.2613630" lon="-8.6637400">
        <ele>157.8</ele>
        <time>2021-05-20T13:39:11Z</time>
      </trkpt>
      <trkpt lat="42.2613620" lon="-8.6637360">
        <ele>157.8</ele>
        <time>2021-05-20T13:39:12Z</time>
      </trkpt>
      <trkpt lat="42.2613600" lon="-8.6637460">
        <ele>157.8</ele>
        <time>2021-05-20T13:39:13Z</time>
      </trkpt>
      <trkpt lat="42.2613560" lon="-8.6637660">
        <ele>157.8</ele>
        <time>2021-05-20T13:39:14Z</time>
      </trkpt>
      <trkpt lat="42.2613590" lon="-8.6637760">
        <ele>157.8</ele>
        <time>2021-05-20T13:39:15Z</time>
      </trkpt>
      <trkpt lat="42.2613550" lon="-8.6637780">
        <ele>157.8</ele>
        <time>2021-05-20T13:39:16Z</time>
      </trkpt>
      <trkpt lat="42.2613510" lon="-8.6637750">
        <ele>157.8</ele>
        <time>2021-05-20T13:39:17Z</time>
      </trkpt>
      <trkpt lat="42.2613510" lon="-8.6637680">
        <ele>157.8</ele>
        <time>2021-05-20T13:39:18Z</time>
      </trkpt>
      <trkpt lat="42.2613510" lon="-8.6637580">
        <ele>157.8</ele>
        <time>2021-05-20T13:39:19Z</time>
      </trkpt>
      <trkpt lat="42.2613530" lon="-8.6637540">
        <ele>157.8</ele>
        <time>2021-05-20T13:39:20Z</time>
      </trkpt>
      <trkpt lat="42.2613510" lon="-8.6637570">
        <ele>157.8</ele>
        <time>2021-05-20T13:39:21Z</time>
      </trkpt>
      <trkpt lat="42.2613520" lon="-8.6637650">
        <ele>157.8</ele>
        <time>2021-05-20T13:39:22Z</time>
      </trkpt>
      <trkpt lat="42.2613560" lon="-8.6637710">
        <ele>157.8</ele>
        <time>2021-05-20T13:39:23Z</time>
      </trkpt>
      <trkpt lat="42.2613560" lon="-8.6637780">
        <ele>157.8</ele>
        <time>2021-05-20T13:39:24Z</time>
      </trkpt>
      <trkpt lat="42.2613530" lon="-8.6637860">
        <ele>157.8</ele>
        <time>2021-05-20T13:39:25Z</time>
      </trkpt>
      <trkpt lat="42.2613490" lon="-8.6638030">
        <ele>157.8</ele>
        <time>2021-05-20T13:39:26Z</time>
      </trkpt>
      <trkpt lat="42.2613520" lon="-8.6638050">
        <ele>157.8</ele>
        <time>2021-05-20T13:39:27Z</time>
      </trkpt>
      <trkpt lat="42.2613540" lon="-8.6637910">
        <ele>157.8</ele>
        <time>2021-05-20T13:39:28Z</time>
      </trkpt>
      <trkpt lat="42.2613610" lon="-8.6637790">
        <ele>157.8</ele>
        <time>2021-05-20T13:39:29Z</time>
      </trkpt>
      <trkpt lat="42.2613640" lon="-8.6637730">
        <ele>157.8</ele>
        <time>2021-05-20T13:39:30Z</time>
      </trkpt>
      <trkpt lat="42.2613720" lon="-8.6637710">
        <ele>157.8</ele>
        <time>2021-05-20T13:39:31Z</time>
      </trkpt>
      <trkpt lat="42.2613680" lon="-8.6637710">
        <ele>157.8</ele>
        <time>2021-05-20T13:39:32Z</time>
      </trkpt>
      <trkpt lat="42.2613680" lon="-8.6637700">
        <ele>157.8</ele>
        <time>2021-05-20T13:39:33Z</time>
      </trkpt>
      <trkpt lat="42.2613610" lon="-8.6637630">
        <ele>157.8</ele>
        <time>2021-05-20T13:39:34Z</time>
      </trkpt>
      <trkpt lat="42.2613540" lon="-8.6637600">
        <ele>157.8</ele>
        <time>2021-05-20T13:39:35Z</time>
      </trkpt>
      <trkpt lat="42.2613500" lon="-8.6637610">
        <ele>157.8</ele>
        <time>2021-05-20T13:39:36Z</time>
      </trkpt>
      <trkpt lat="42.2613510" lon="-8.6637630">
        <ele>157.8</ele>
        <time>2021-05-20T13:39:37Z</time>
      </trkpt>
      <trkpt lat="42.2613390" lon="-8.6637630">
        <ele>157.8</ele>
        <time>2021-05-20T13:39:38Z</time>
      </trkpt>
      <trkpt lat="42.2613200" lon="-8.6637620">
        <ele>157.8</ele>
        <time>2021-05-20T13:39:39Z</time>
      </trkpt>
      <trkpt lat="42.2613070" lon="-8.6637610">
        <ele>157.8</ele>
        <time>2021-05-20T13:39:40Z</time>
      </trkpt>
      <trkpt lat="42.2612950" lon="-8.6637590">
        <ele>157.8</ele>
        <time>2021-05-20T13:39:41Z</time>
      </trkpt>
      <trkpt lat="42.2612990" lon="-8.6637620">
        <ele>157.8</ele>
        <time>2021-05-20T13:39:42Z</time>
      </trkpt>
      <trkpt lat="42.2613030" lon="-8.6637630">
        <ele>157.8</ele>
        <time>2021-05-20T13:39:43Z</time>
      </trkpt>
      <trkpt lat="42.2613060" lon="-8.6637640">
        <ele>157.8</ele>
        <time>2021-05-20T13:39:44Z</time>
      </trkpt>
      <trkpt lat="42.2613100" lon="-8.6637660">
        <ele>157.8</ele>
        <time>2021-05-20T13:39:45Z</time>
      </trkpt>
      <trkpt lat="42.2613130" lon="-8.6637670">
        <ele>157.8</ele>
        <time>2021-05-20T13:39:46Z</time>
      </trkpt>
      <trkpt lat="42.2613170" lon="-8.6637680">
        <ele>157.8</ele>
        <time>2021-05-20T13:39:47Z</time>
      </trkpt>
      <trkpt lat="42.2613200" lon="-8.6637690">
        <ele>157.8</ele>
        <time>2021-05-20T13:39:48Z</time>
      </trkpt>
      <trkpt lat="42.2613240" lon="-8.6637700">
        <ele>157.8</ele>
        <time>2021-05-20T13:39:49Z</time>
      </trkpt>
      <trkpt lat="42.2613270" lon="-8.6637710">
        <ele>157.8</ele>
        <time>2021-05-20T13:39:50Z</time>
      </trkpt>
      <trkpt lat="42.2613310" lon="-8.6637730">
        <ele>157.8</ele>
        <time>2021-05-20T13:39:51Z</time>
      </trkpt>
      <trkpt lat="42.2613340" lon="-8.6637740">
        <ele>157.8</ele>
        <time>2021-05-20T13:39:52Z</time>
      </trkpt>
      <trkpt lat="42.2613380" lon="-8.6637750">
        <ele>157.8</ele>
        <time>2021-05-20T13:39:53Z</time>
      </trkpt>
      <trkpt lat="42.2613410" lon="-8.6637760">
        <ele>157.8</ele>
        <time>2021-05-20T13:39:54Z</time>
      </trkpt>
      <trkpt lat="42.2613370" lon="-8.6637960">
        <ele>157.8</ele>
        <time>2021-05-20T13:39:55Z</time>
      </trkpt>
      <trkpt lat="42.2613370" lon="-8.6638070">
        <ele>157.8</ele>
        <time>2021-05-20T13:39:56Z</time>
      </trkpt>
      <trkpt lat="42.2613360" lon="-8.6638180">
        <ele>157.8</ele>
        <time>2021-05-20T13:39:57Z</time>
      </trkpt>
      <trkpt lat="42.2613350" lon="-8.6638290">
        <ele>157.8</ele>
        <time>2021-05-20T13:39:58Z</time>
      </trkpt>
      <trkpt lat="42.2613350" lon="-8.6638420">
        <ele>157.8</ele>
        <time>2021-05-20T13:39:59Z</time>
      </trkpt>
      <trkpt lat="42.2613300" lon="-8.6638580">
        <ele>157.8</ele>
        <time>2021-05-20T13:40:00Z</time>
      </trkpt>
      <trkpt lat="42.2613370" lon="-8.6638740">
        <ele>157.8</ele>
        <time>2021-05-20T13:40:01Z</time>
      </trkpt>
      <trkpt lat="42.2613320" lon="-8.6638860">
        <ele>157.8</ele>
        <time>2021-05-20T13:40:02Z</time>
      </trkpt>
      <trkpt lat="42.2613280" lon="-8.6638930">
        <ele>157.8</ele>
        <time>2021-05-20T13:40:03Z</time>
      </trkpt>
      <trkpt lat="42.2613240" lon="-8.6639040">
        <ele>157.8</ele>
        <time>2021-05-20T13:40:04Z</time>
      </trkpt>
      <trkpt lat="42.2613200" lon="-8.6639130">
        <ele>157.8</ele>
        <time>2021-05-20T13:40:05Z</time>
      </trkpt>
      <trkpt lat="42.2613150" lon="-8.6639140">
        <ele>157.8</ele>
        <time>2021-05-20T13:40:06Z</time>
      </trkpt>
      <trkpt lat="42.2613170" lon="-8.6639230">
        <ele>157.8</ele>
        <time>2021-05-20T13:40:07Z</time>
      </trkpt>
      <trkpt lat="42.2613180" lon="-8.6639330">
        <ele>157.8</ele>
        <time>2021-05-20T13:40:08Z</time>
      </trkpt>
      <trkpt lat="42.2613170" lon="-8.6639390">
        <ele>157.8</ele>
        <time>2021-05-20T13:40:09Z</time>
      </trkpt>
      <trkpt lat="42.2613170" lon="-8.6639490">
        <ele>157.8</ele>
        <time>2021-05-20T13:40:10Z</time>
      </trkpt>
      <trkpt lat="42.2613170" lon="-8.6639570">
        <ele>157.8</ele>
        <time>2021-05-20T13:40:11Z</time>
      </trkpt>
      <trkpt lat="42.2613190" lon="-8.6639590">
        <ele>157.8</ele>
        <time>2021-05-20T13:40:12Z</time>
      </trkpt>
      <trkpt lat="42.2613210" lon="-8.6639610">
        <ele>157.8</ele>
        <time>2021-05-20T13:40:13Z</time>
      </trkpt>
      <trkpt lat="42.2613240" lon="-8.6639640">
        <ele>157.8</ele>
        <time>2021-05-20T13:40:14Z</time>
      </trkpt>
      <trkpt lat="42.2613260" lon="-8.6639660">
        <ele>157.8</ele>
        <time>2021-05-20T13:40:15Z</time>
      </trkpt>
      <trkpt lat="42.2613280" lon="-8.6639680">
        <ele>157.8</ele>
        <time>2021-05-20T13:40:16Z</time>
      </trkpt>
      <trkpt lat="42.2613300" lon="-8.6639700">
        <ele>157.8</ele>
        <time>2021-05-20T13:40:17Z</time>
      </trkpt>
      <trkpt lat="42.2613320" lon="-8.6639720">
        <ele>157.8</ele>
        <time>2021-05-20T13:40:18Z</time>
      </trkpt>
      <trkpt lat="42.2613350" lon="-8.6639750">
        <ele>157.8</ele>
        <time>2021-05-20T13:40:19Z</time>
      </trkpt>
      <trkpt lat="42.2613370" lon="-8.6639770">
        <ele>157.8</ele>
        <time>2021-05-20T13:40:20Z</time>
      </trkpt>
      <trkpt lat="42.2613390" lon="-8.6639790">
        <ele>157.8</ele>
        <time>2021-05-20T13:40:21Z</time>
      </trkpt>
      <trkpt lat="42.2613410" lon="-8.6639810">
        <ele>157.8</ele>
        <time>2021-05-20T13:40:22Z</time>
      </trkpt>
      <trkpt lat="42.2613440" lon="-8.6639840">
        <ele>157.8</ele>
        <time>2021-05-20T13:40:23Z</time>
      </trkpt>
      <trkpt lat="42.2613460" lon="-8.6639860">
        <ele>157.8</ele>
        <time>2021-05-20T13:40:24Z</time>
      </trkpt>
      <trkpt lat="42.2613480" lon="-8.6639880">
        <ele>157.8</ele>
        <time>2021-05-20T13:40:25Z</time>
      </trkpt>
      <trkpt lat="42.2613500" lon="-8.6639900">
        <ele>157.8</ele>
        <time>2021-05-20T13:40:26Z</time>
      </trkpt>
      <trkpt lat="42.2613520" lon="-8.6639920">
        <ele>157.8</ele>
        <time>2021-05-20T13:40:27Z</time>
      </trkpt>
      <trkpt lat="42.2613550" lon="-8.6639950">
        <ele>157.8</ele>
        <time>2021-05-20T13:40:28Z</time>
      </trkpt>
      <trkpt lat="42.2613570" lon="-8.6639970">
        <ele>157.8</ele>
        <time>2021-05-20T13:40:29Z</time>
      </trkpt>
      <trkpt lat="42.2613590" lon="-8.6639990">
        <ele>157.8</ele>
        <time>2021-05-20T13:40:30Z</time>
      </trkpt>
      <trkpt lat="42.2613590" lon="-8.6639990">
        <ele>157.8</ele>
        <time>2021-05-20T13:40:32Z</time>
      </trkpt>
      <trkpt lat="42.2613480" lon="-8.6640020">
        <ele>157.8</ele>
        <time>2021-05-20T13:40:33Z</time>
      </trkpt>
      <trkpt lat="42.2613460" lon="-8.6640010">
        <ele>157.8</ele>
        <time>2021-05-20T13:40:34Z</time>
      </trkpt>
      <trkpt lat="42.2613580" lon="-8.6640050">
        <ele>157.8</ele>
        <time>2021-05-20T13:40:35Z</time>
      </trkpt>
      <trkpt lat="42.2613590" lon="-8.6640040">
        <ele>157.8</ele>
        <time>2021-05-20T13:40:36Z</time>
      </trkpt>
      <trkpt lat="42.2613600" lon="-8.6640020">
        <ele>157.8</ele>
        <time>2021-05-20T13:40:37Z</time>
      </trkpt>
      <trkpt lat="42.2613570" lon="-8.6639980">
        <ele>157.8</ele>
        <time>2021-05-20T13:40:38Z</time>
      </trkpt>
      <trkpt lat="42.2613540" lon="-8.6640020">
        <ele>157.8</ele>
        <time>2021-05-20T13:40:39Z</time>
      </trkpt>
      <trkpt lat="42.2613580" lon="-8.6639950">
        <ele>157.8</ele>
        <time>2021-05-20T13:40:40Z</time>
      </trkpt>
      <trkpt lat="42.2613510" lon="-8.6639780">
        <ele>157.8</ele>
        <time>2021-05-20T13:40:41Z</time>
      </trkpt>
      <trkpt lat="42.2613510" lon="-8.6639640">
        <ele>157.8</ele>
        <time>2021-05-20T13:40:42Z</time>
      </trkpt>
      <trkpt lat="42.2613590" lon="-8.6639380">
        <ele>157.8</ele>
        <time>2021-05-20T13:40:43Z</time>
      </trkpt>
      <trkpt lat="42.2613580" lon="-8.6639260">
        <ele>157.8</ele>
        <time>2021-05-20T13:40:44Z</time>
      </trkpt>
      <trkpt lat="42.2613580" lon="-8.6639130">
        <ele>157.8</ele>
        <time>2021-05-20T13:40:45Z</time>
      </trkpt>
      <trkpt lat="42.2613660" lon="-8.6638910">
        <ele>157.7</ele>
        <time>2021-05-20T13:40:46Z</time>
      </trkpt>
      <trkpt lat="42.2613700" lon="-8.6638780">
        <ele>157.7</ele>
        <time>2021-05-20T13:40:47Z</time>
      </trkpt>
      <trkpt lat="42.2613750" lon="-8.6638660">
        <ele>157.7</ele>
        <time>2021-05-20T13:40:48Z</time>
      </trkpt>
      <trkpt lat="42.2613740" lon="-8.6638530">
        <ele>157.7</ele>
        <time>2021-05-20T13:40:49Z</time>
      </trkpt>
      <trkpt lat="42.2613730" lon="-8.6638330">
        <ele>157.7</ele>
        <time>2021-05-20T13:40:50Z</time>
      </trkpt>
      <trkpt lat="42.2613750" lon="-8.6638200">
        <ele>157.7</ele>
        <time>2021-05-20T13:40:51Z</time>
      </trkpt>
      <trkpt lat="42.2613730" lon="-8.6638050">
        <ele>157.7</ele>
        <time>2021-05-20T13:40:52Z</time>
      </trkpt>
      <trkpt lat="42.2613730" lon="-8.6638000">
        <ele>157.7</ele>
        <time>2021-05-20T13:40:53Z</time>
      </trkpt>
      <trkpt lat="42.2613690" lon="-8.6638030">
        <ele>157.7</ele>
        <time>2021-05-20T13:40:54Z</time>
      </trkpt>
      <trkpt lat="42.2613660" lon="-8.6638090">
        <ele>157.7</ele>
        <time>2021-05-20T13:40:55Z</time>
      </trkpt>
      <trkpt lat="42.2613630" lon="-8.6638070">
        <ele>157.7</ele>
        <time>2021-05-20T13:40:56Z</time>
      </trkpt>
      <trkpt lat="42.2613610" lon="-8.6638030">
        <ele>157.7</ele>
        <time>2021-05-20T13:40:57Z</time>
      </trkpt>
      <trkpt lat="42.2613650" lon="-8.6638040">
        <ele>157.7</ele>
        <time>2021-05-20T13:40:58Z</time>
      </trkpt>
      <trkpt lat="42.2613650" lon="-8.6638080">
        <ele>157.7</ele>
        <time>2021-05-20T13:40:59Z</time>
      </trkpt>
      <trkpt lat="42.2613530" lon="-8.6638090">
        <ele>157.7</ele>
        <time>2021-05-20T13:41:00Z</time>
      </trkpt>
      <trkpt lat="42.2613560" lon="-8.6638130">
        <ele>157.7</ele>
        <time>2021-05-20T13:41:01Z</time>
      </trkpt>
      <trkpt lat="42.2613510" lon="-8.6638090">
        <ele>157.7</ele>
        <time>2021-05-20T13:41:02Z</time>
      </trkpt>
      <trkpt lat="42.2613570" lon="-8.6637980">
        <ele>157.7</ele>
        <time>2021-05-20T13:41:03Z</time>
      </trkpt>
      <trkpt lat="42.2613750" lon="-8.6637900">
        <ele>157.7</ele>
        <time>2021-05-20T13:41:04Z</time>
      </trkpt>
      <trkpt lat="42.2613840" lon="-8.6637920">
        <ele>157.7</ele>
        <time>2021-05-20T13:41:05Z</time>
      </trkpt>
      <trkpt lat="42.2613980" lon="-8.6638030">
        <ele>157.7</ele>
        <time>2021-05-20T13:41:06Z</time>
      </trkpt>
      <trkpt lat="42.2614010" lon="-8.6638040">
        <ele>157.7</ele>
        <time>2021-05-20T13:41:07Z</time>
      </trkpt>
      <trkpt lat="42.2614030" lon="-8.6638040">
        <ele>157.7</ele>
        <time>2021-05-20T13:41:08Z</time>
      </trkpt>
      <trkpt lat="42.2614010" lon="-8.6637960">
        <ele>157.7</ele>
        <time>2021-05-20T13:41:09Z</time>
      </trkpt>
      <trkpt lat="42.2614020" lon="-8.6637880">
        <ele>157.7</ele>
        <time>2021-05-20T13:41:10Z</time>
      </trkpt>
      <trkpt lat="42.2613930" lon="-8.6637830">
        <ele>157.7</ele>
        <time>2021-05-20T13:41:11Z</time>
      </trkpt>
      <trkpt lat="42.2613990" lon="-8.6637850">
        <ele>157.7</ele>
        <time>2021-05-20T13:41:12Z</time>
      </trkpt>
      <trkpt lat="42.2613970" lon="-8.6637940">
        <ele>157.7</ele>
        <time>2021-05-20T13:41:13Z</time>
      </trkpt>
      <trkpt lat="42.2613850" lon="-8.6638040">
        <ele>157.7</ele>
        <time>2021-05-20T13:41:14Z</time>
      </trkpt>
      <trkpt lat="42.2613770" lon="-8.6638070">
        <ele>157.7</ele>
        <time>2021-05-20T13:41:15Z</time>
      </trkpt>
      <trkpt lat="42.2613830" lon="-8.6637990">
        <ele>157.7</ele>
        <time>2021-05-20T13:41:16Z</time>
      </trkpt>
      <trkpt lat="42.2613870" lon="-8.6638050">
        <ele>157.7</ele>
        <time>2021-05-20T13:41:17Z</time>
      </trkpt>
      <trkpt lat="42.2613870" lon="-8.6638110">
        <ele>157.7</ele>
        <time>2021-05-20T13:41:18Z</time>
      </trkpt>
      <trkpt lat="42.2613930" lon="-8.6638080">
        <ele>157.7</ele>
        <time>2021-05-20T13:41:19Z</time>
      </trkpt>
      <trkpt lat="42.2614070" lon="-8.6638020">
        <ele>157.7</ele>
        <time>2021-05-20T13:41:20Z</time>
      </trkpt>
      <trkpt lat="42.2614150" lon="-8.6638070">
        <ele>157.7</ele>
        <time>2021-05-20T13:41:21Z</time>
      </trkpt>
      <trkpt lat="42.2614110" lon="-8.6638060">
        <ele>157.7</ele>
        <time>2021-05-20T13:41:22Z</time>
      </trkpt>
      <trkpt lat="42.2614070" lon="-8.6638050">
        <ele>157.7</ele>
        <time>2021-05-20T13:41:23Z</time>
      </trkpt>
      <trkpt lat="42.2614040" lon="-8.6638040">
        <ele>157.7</ele>
        <time>2021-05-20T13:41:24Z</time>
      </trkpt>
      <trkpt lat="42.2614000" lon="-8.6638040">
        <ele>157.7</ele>
        <time>2021-05-20T13:41:25Z</time>
      </trkpt>
      <trkpt lat="42.2613960" lon="-8.6638030">
        <ele>157.7</ele>
        <time>2021-05-20T13:41:26Z</time>
      </trkpt>
      <trkpt lat="42.2613920" lon="-8.6638020">
        <ele>157.7</ele>
        <time>2021-05-20T13:41:27Z</time>
      </trkpt>
      <trkpt lat="42.2613880" lon="-8.6638010">
        <ele>157.7</ele>
        <time>2021-05-20T13:41:28Z</time>
      </trkpt>
      <trkpt lat="42.2613840" lon="-8.6638000">
        <ele>157.7</ele>
        <time>2021-05-20T13:41:29Z</time>
      </trkpt>
      <trkpt lat="42.2613810" lon="-8.6637990">
        <ele>157.7</ele>
        <time>2021-05-20T13:41:30Z</time>
      </trkpt>
      <trkpt lat="42.2613770" lon="-8.6637990">
        <ele>157.7</ele>
        <time>2021-05-20T13:41:31Z</time>
      </trkpt>
      <trkpt lat="42.2613730" lon="-8.6637980">
        <ele>157.7</ele>
        <time>2021-05-20T13:41:32Z</time>
      </trkpt>
      <trkpt lat="42.2613690" lon="-8.6637970">
        <ele>157.7</ele>
        <time>2021-05-20T13:41:33Z</time>
      </trkpt>
      <trkpt lat="42.2613590" lon="-8.6637910">
        <ele>157.7</ele>
        <time>2021-05-20T13:41:34Z</time>
      </trkpt>
      <trkpt lat="42.2613550" lon="-8.6637850">
        <ele>157.7</ele>
        <time>2021-05-20T13:41:35Z</time>
      </trkpt>
      <trkpt lat="42.2613510" lon="-8.6637790">
        <ele>157.7</ele>
        <time>2021-05-20T13:41:36Z</time>
      </trkpt>
      <trkpt lat="42.2613480" lon="-8.6637740">
        <ele>157.7</ele>
        <time>2021-05-20T13:41:37Z</time>
      </trkpt>
      <trkpt lat="42.2613440" lon="-8.6637680">
        <ele>157.7</ele>
        <time>2021-05-20T13:41:38Z</time>
      </trkpt>
      <trkpt lat="42.2613400" lon="-8.6637620">
        <ele>157.7</ele>
        <time>2021-05-20T13:41:39Z</time>
      </trkpt>
      <trkpt lat="42.2613360" lon="-8.6637560">
        <ele>157.7</ele>
        <time>2021-05-20T13:41:40Z</time>
      </trkpt>
      <trkpt lat="42.2613320" lon="-8.6637540">
        <ele>157.7</ele>
        <time>2021-05-20T13:41:41Z</time>
      </trkpt>
      <trkpt lat="42.2613350" lon="-8.6637610">
        <ele>157.7</ele>
        <time>2021-05-20T13:41:42Z</time>
      </trkpt>
      <trkpt lat="42.2613340" lon="-8.6637650">
        <ele>157.7</ele>
        <time>2021-05-20T13:41:43Z</time>
      </trkpt>
      <trkpt lat="42.2613410" lon="-8.6637590">
        <ele>157.7</ele>
        <time>2021-05-20T13:41:44Z</time>
      </trkpt>
      <trkpt lat="42.2613410" lon="-8.6637590">
        <ele>157.7</ele>
        <time>2021-05-20T13:41:45Z</time>
      </trkpt>
      <trkpt lat="42.2613390" lon="-8.6637590">
        <ele>157.7</ele>
        <time>2021-05-20T13:41:46Z</time>
      </trkpt>
      <trkpt lat="42.2613390" lon="-8.6637590">
        <ele>157.7</ele>
        <time>2021-05-20T13:41:47Z</time>
      </trkpt>
      <trkpt lat="42.2613600" lon="-8.6637470">
        <ele>157.7</ele>
        <time>2021-05-20T13:41:48Z</time>
      </trkpt>
      <trkpt lat="42.2613630" lon="-8.6637420">
        <ele>157.7</ele>
        <time>2021-05-20T13:41:49Z</time>
      </trkpt>
      <trkpt lat="42.2613620" lon="-8.6637480">
        <ele>157.7</ele>
        <time>2021-05-20T13:41:50Z</time>
      </trkpt>
      <trkpt lat="42.2613590" lon="-8.6637520">
        <ele>157.7</ele>
        <time>2021-05-20T13:41:51Z</time>
      </trkpt>
      <trkpt lat="42.2613560" lon="-8.6637570">
        <ele>157.7</ele>
        <time>2021-05-20T13:41:52Z</time>
      </trkpt>
      <trkpt lat="42.2613530" lon="-8.6637610">
        <ele>157.7</ele>
        <time>2021-05-20T13:41:53Z</time>
      </trkpt>
      <trkpt lat="42.2613500" lon="-8.6637660">
        <ele>157.7</ele>
        <time>2021-05-20T13:41:54Z</time>
      </trkpt>
      <trkpt lat="42.2613470" lon="-8.6637700">
        <ele>157.7</ele>
        <time>2021-05-20T13:41:55Z</time>
      </trkpt>
      <trkpt lat="42.2613440" lon="-8.6637750">
        <ele>157.7</ele>
        <time>2021-05-20T13:41:56Z</time>
      </trkpt>
      <trkpt lat="42.2613410" lon="-8.6637790">
        <ele>157.7</ele>
        <time>2021-05-20T13:41:57Z</time>
      </trkpt>
      <trkpt lat="42.2613380" lon="-8.6637840">
        <ele>157.7</ele>
        <time>2021-05-20T13:41:58Z</time>
      </trkpt>
      <trkpt lat="42.2613470" lon="-8.6637870">
        <ele>157.7</ele>
        <time>2021-05-20T13:41:59Z</time>
      </trkpt>
      <trkpt lat="42.2613550" lon="-8.6637880">
        <ele>157.7</ele>
        <time>2021-05-20T13:42:00Z</time>
      </trkpt>
      <trkpt lat="42.2613630" lon="-8.6637880">
        <ele>157.7</ele>
        <time>2021-05-20T13:42:01Z</time>
      </trkpt>
      <trkpt lat="42.2613710" lon="-8.6637890">
        <ele>157.7</ele>
        <time>2021-05-20T13:42:02Z</time>
      </trkpt>
      <trkpt lat="42.2613790" lon="-8.6637900">
        <ele>157.7</ele>
        <time>2021-05-20T13:42:03Z</time>
      </trkpt>
      <trkpt lat="42.2613840" lon="-8.6637930">
        <ele>157.7</ele>
        <time>2021-05-20T13:42:04Z</time>
      </trkpt>
      <trkpt lat="42.2613720" lon="-8.6637890">
        <ele>157.7</ele>
        <time>2021-05-20T13:42:05Z</time>
      </trkpt>
      <trkpt lat="42.2613640" lon="-8.6638030">
        <ele>157.7</ele>
        <time>2021-05-20T13:42:06Z</time>
      </trkpt>
      <trkpt lat="42.2613520" lon="-8.6638060">
        <ele>157.7</ele>
        <time>2021-05-20T13:42:07Z</time>
      </trkpt>
      <trkpt lat="42.2613540" lon="-8.6638120">
        <ele>157.7</ele>
        <time>2021-05-20T13:42:08Z</time>
      </trkpt>
      <trkpt lat="42.2613530" lon="-8.6638150">
        <ele>157.7</ele>
        <time>2021-05-20T13:42:09Z</time>
      </trkpt>
      <trkpt lat="42.2613530" lon="-8.6638190">
        <ele>157.7</ele>
        <time>2021-05-20T13:42:10Z</time>
      </trkpt>
      <trkpt lat="42.2613530" lon="-8.6638220">
        <ele>157.7</ele>
        <time>2021-05-20T13:42:11Z</time>
      </trkpt>
      <trkpt lat="42.2613520" lon="-8.6638260">
        <ele>157.7</ele>
        <time>2021-05-20T13:42:12Z</time>
      </trkpt>
      <trkpt lat="42.2613520" lon="-8.6638290">
        <ele>157.7</ele>
        <time>2021-05-20T13:42:13Z</time>
      </trkpt>
      <trkpt lat="42.2613520" lon="-8.6638330">
        <ele>157.7</ele>
        <time>2021-05-20T13:42:14Z</time>
      </trkpt>
      <trkpt lat="42.2613510" lon="-8.6638360">
        <ele>157.7</ele>
        <time>2021-05-20T13:42:15Z</time>
      </trkpt>
      <trkpt lat="42.2613510" lon="-8.6638400">
        <ele>157.7</ele>
        <time>2021-05-20T13:42:16Z</time>
      </trkpt>
      <trkpt lat="42.2613500" lon="-8.6638430">
        <ele>157.7</ele>
        <time>2021-05-20T13:42:17Z</time>
      </trkpt>
      <trkpt lat="42.2613500" lon="-8.6638470">
        <ele>157.7</ele>
        <time>2021-05-20T13:42:18Z</time>
      </trkpt>
      <trkpt lat="42.2613500" lon="-8.6638500">
        <ele>157.7</ele>
        <time>2021-05-20T13:42:19Z</time>
      </trkpt>
      <trkpt lat="42.2613490" lon="-8.6638540">
        <ele>157.7</ele>
        <time>2021-05-20T13:42:20Z</time>
      </trkpt>
      <trkpt lat="42.2613490" lon="-8.6638570">
        <ele>157.7</ele>
        <time>2021-05-20T13:42:21Z</time>
      </trkpt>
      <trkpt lat="42.2613510" lon="-8.6638560">
        <ele>157.7</ele>
        <time>2021-05-20T13:42:23Z</time>
      </trkpt>
      <trkpt lat="42.2613450" lon="-8.6638750">
        <ele>157.7</ele>
        <time>2021-05-20T13:42:24Z</time>
      </trkpt>
      <trkpt lat="42.2613410" lon="-8.6638790">
        <ele>157.7</ele>
        <time>2021-05-20T13:42:25Z</time>
      </trkpt>
      <trkpt lat="42.2613380" lon="-8.6638830">
        <ele>157.7</ele>
        <time>2021-05-20T13:42:26Z</time>
      </trkpt>
      <trkpt lat="42.2613370" lon="-8.6638830">
        <ele>157.7</ele>
        <time>2021-05-20T13:42:27Z</time>
      </trkpt>
      <trkpt lat="42.2613400" lon="-8.6638940">
        <ele>157.7</ele>
        <time>2021-05-20T13:42:28Z</time>
      </trkpt>
      <trkpt lat="42.2613440" lon="-8.6638980">
        <ele>157.7</ele>
        <time>2021-05-20T13:42:29Z</time>
      </trkpt>
      <trkpt lat="42.2613500" lon="-8.6638980">
        <ele>157.7</ele>
        <time>2021-05-20T13:42:30Z</time>
      </trkpt>
      <trkpt lat="42.2613550" lon="-8.6638970">
        <ele>157.7</ele>
        <time>2021-05-20T13:42:31Z</time>
      </trkpt>
      <trkpt lat="42.2613600" lon="-8.6638970">
        <ele>157.7</ele>
        <time>2021-05-20T13:42:32Z</time>
      </trkpt>
      <trkpt lat="42.2613660" lon="-8.6638970">
        <ele>157.7</ele>
        <time>2021-05-20T13:42:33Z</time>
      </trkpt>
      <trkpt lat="42.2613710" lon="-8.6638970">
        <ele>157.7</ele>
        <time>2021-05-20T13:42:34Z</time>
      </trkpt>
      <trkpt lat="42.2613760" lon="-8.6638970">
        <ele>157.7</ele>
        <time>2021-05-20T13:42:35Z</time>
      </trkpt>
      <trkpt lat="42.2613810" lon="-8.6638960">
        <ele>157.7</ele>
        <time>2021-05-20T13:42:36Z</time>
      </trkpt>
      <trkpt lat="42.2613870" lon="-8.6638960">
        <ele>157.7</ele>
        <time>2021-05-20T13:42:37Z</time>
      </trkpt>
      <trkpt lat="42.2613920" lon="-8.6638960">
        <ele>157.7</ele>
        <time>2021-05-20T13:42:38Z</time>
      </trkpt>
      <trkpt lat="42.2613730" lon="-8.6638900">
        <ele>157.7</ele>
        <time>2021-05-20T13:42:39Z</time>
      </trkpt>
      <trkpt lat="42.2613590" lon="-8.6638880">
        <ele>157.7</ele>
        <time>2021-05-20T13:42:40Z</time>
      </trkpt>
      <trkpt lat="42.2613250" lon="-8.6638760">
        <ele>157.7</ele>
        <time>2021-05-20T13:42:41Z</time>
      </trkpt>
      <trkpt lat="42.2613130" lon="-8.6638690">
        <ele>157.7</ele>
        <time>2021-05-20T13:42:42Z</time>
      </trkpt>
      <trkpt lat="42.2613120" lon="-8.6638650">
        <ele>157.7</ele>
        <time>2021-05-20T13:42:43Z</time>
      </trkpt>
      <trkpt lat="42.2613070" lon="-8.6638680">
        <ele>157.7</ele>
        <time>2021-05-20T13:42:44Z</time>
      </trkpt>
      <trkpt lat="42.2613010" lon="-8.6638680">
        <ele>157.7</ele>
        <time>2021-05-20T13:42:45Z</time>
      </trkpt>
      <trkpt lat="42.2613010" lon="-8.6638670">
        <ele>157.7</ele>
        <time>2021-05-20T13:42:46Z</time>
      </trkpt>
      <trkpt lat="42.2612970" lon="-8.6638690">
        <ele>157.7</ele>
        <time>2021-05-20T13:42:47Z</time>
      </trkpt>
      <trkpt lat="42.2612810" lon="-8.6638630">
        <ele>157.7</ele>
        <time>2021-05-20T13:42:48Z</time>
      </trkpt>
      <trkpt lat="42.2612600" lon="-8.6638510">
        <ele>157.7</ele>
        <time>2021-05-20T13:42:49Z</time>
      </trkpt>
      <trkpt lat="42.2612660" lon="-8.6638350">
        <ele>157.7</ele>
        <time>2021-05-20T13:42:50Z</time>
      </trkpt>
      <trkpt lat="42.2612750" lon="-8.6638270">
        <ele>157.7</ele>
        <time>2021-05-20T13:42:51Z</time>
      </trkpt>
      <trkpt lat="42.2613030" lon="-8.6638210">
        <ele>157.7</ele>
        <time>2021-05-20T13:42:52Z</time>
      </trkpt>
      <trkpt lat="42.2613150" lon="-8.6638190">
        <ele>157.7</ele>
        <time>2021-05-20T13:42:53Z</time>
      </trkpt>
      <trkpt lat="42.2613330" lon="-8.6638220">
        <ele>157.7</ele>
        <time>2021-05-20T13:42:54Z</time>
      </trkpt>
      <trkpt lat="42.2613340" lon="-8.6638200">
        <ele>157.7</ele>
        <time>2021-05-20T13:42:55Z</time>
      </trkpt>
      <trkpt lat="42.2613480" lon="-8.6638210">
        <ele>157.7</ele>
        <time>2021-05-20T13:42:56Z</time>
      </trkpt>
      <trkpt lat="42.2613600" lon="-8.6638080">
        <ele>157.7</ele>
        <time>2021-05-20T13:42:57Z</time>
      </trkpt>
      <trkpt lat="42.2613680" lon="-8.6638050">
        <ele>157.7</ele>
        <time>2021-05-20T13:42:58Z</time>
      </trkpt>
      <trkpt lat="42.2613760" lon="-8.6638030">
        <ele>157.7</ele>
        <time>2021-05-20T13:42:59Z</time>
      </trkpt>
      <trkpt lat="42.2613840" lon="-8.6638000">
        <ele>157.7</ele>
        <time>2021-05-20T13:43:00Z</time>
      </trkpt>
      <trkpt lat="42.2613920" lon="-8.6637970">
        <ele>157.7</ele>
        <time>2021-05-20T13:43:01Z</time>
      </trkpt>
      <trkpt lat="42.2614100" lon="-8.6638010">
        <ele>157.7</ele>
        <time>2021-05-20T13:43:02Z</time>
      </trkpt>
      <trkpt lat="42.2614280" lon="-8.6638060">
        <ele>157.7</ele>
        <time>2021-05-20T13:43:03Z</time>
      </trkpt>
      <trkpt lat="42.2614280" lon="-8.6638060">
        <ele>157.7</ele>
        <time>2021-05-20T13:43:04Z</time>
      </trkpt>
      <trkpt lat="42.2614280" lon="-8.6638060">
        <ele>157.7</ele>
        <time>2021-05-20T13:43:05Z</time>
      </trkpt>
      <trkpt lat="42.2614420" lon="-8.6637990">
        <ele>157.7</ele>
        <time>2021-05-20T13:43:06Z</time>
      </trkpt>
      <trkpt lat="42.2614530" lon="-8.6637990">
        <ele>157.7</ele>
        <time>2021-05-20T13:43:07Z</time>
      </trkpt>
      <trkpt lat="42.2614550" lon="-8.6637940">
        <ele>157.7</ele>
        <time>2021-05-20T13:43:08Z</time>
      </trkpt>
      <trkpt lat="42.2614580" lon="-8.6637940">
        <ele>157.7</ele>
        <time>2021-05-20T13:43:09Z</time>
      </trkpt>
      <trkpt lat="42.2614610" lon="-8.6637880">
        <ele>157.7</ele>
        <time>2021-05-20T13:43:10Z</time>
      </trkpt>
      <trkpt lat="42.2614750" lon="-8.6637930">
        <ele>157.7</ele>
        <time>2021-05-20T13:43:11Z</time>
      </trkpt>
      <trkpt lat="42.2614840" lon="-8.6638080">
        <ele>157.7</ele>
        <time>2021-05-20T13:43:12Z</time>
      </trkpt>
      <trkpt lat="42.2614780" lon="-8.6638100">
        <ele>157.7</ele>
        <time>2021-05-20T13:43:13Z</time>
      </trkpt>
      <trkpt lat="42.2614740" lon="-8.6638290">
        <ele>157.7</ele>
        <time>2021-05-20T13:43:14Z</time>
      </trkpt>
      <trkpt lat="42.2614680" lon="-8.6638170">
        <ele>157.7</ele>
        <time>2021-05-20T13:43:15Z</time>
      </trkpt>
      <trkpt lat="42.2614680" lon="-8.6638170">
        <ele>157.7</ele>
        <time>2021-05-20T13:43:16Z</time>
      </trkpt>
      <trkpt lat="42.2614660" lon="-8.6638130">
        <ele>157.7</ele>
        <time>2021-05-20T13:43:17Z</time>
      </trkpt>
      <trkpt lat="42.2614650" lon="-8.6637830">
        <ele>157.7</ele>
        <time>2021-05-20T13:43:18Z</time>
      </trkpt>
      <trkpt lat="42.2614590" lon="-8.6637730">
        <ele>157.7</ele>
        <time>2021-05-20T13:43:19Z</time>
      </trkpt>
      <trkpt lat="42.2614420" lon="-8.6637710">
        <ele>157.7</ele>
        <time>2021-05-20T13:43:20Z</time>
      </trkpt>
      <trkpt lat="42.2614280" lon="-8.6637650">
        <ele>157.7</ele>
        <time>2021-05-20T13:43:21Z</time>
      </trkpt>
      <trkpt lat="42.2614130" lon="-8.6637590">
        <ele>157.7</ele>
        <time>2021-05-20T13:43:22Z</time>
      </trkpt>
      <trkpt lat="42.2613780" lon="-8.6637860">
        <ele>157.7</ele>
        <time>2021-05-20T13:43:23Z</time>
      </trkpt>
      <trkpt lat="42.2613130" lon="-8.6637970">
        <ele>157.7</ele>
        <time>2021-05-20T13:43:24Z</time>
      </trkpt>
      <trkpt lat="42.2612740" lon="-8.6638070">
        <ele>157.7</ele>
        <time>2021-05-20T13:43:25Z</time>
      </trkpt>
      <trkpt lat="42.2613470" lon="-8.6638090">
        <ele>157.7</ele>
        <time>2021-05-20T13:43:26Z</time>
      </trkpt>
      <trkpt lat="42.2613680" lon="-8.6638040">
        <ele>157.7</ele>
        <time>2021-05-20T13:43:27Z</time>
      </trkpt>
      <trkpt lat="42.2613700" lon="-8.6638040">
        <ele>157.7</ele>
        <time>2021-05-20T13:43:28Z</time>
      </trkpt>
      <trkpt lat="42.2613730" lon="-8.6638030">
        <ele>157.7</ele>
        <time>2021-05-20T13:43:29Z</time>
      </trkpt>
      <trkpt lat="42.2613760" lon="-8.6638030">
        <ele>157.7</ele>
        <time>2021-05-20T13:43:30Z</time>
      </trkpt>
      <trkpt lat="42.2613790" lon="-8.6638020">
        <ele>157.7</ele>
        <time>2021-05-20T13:43:31Z</time>
      </trkpt>
      <trkpt lat="42.2613810" lon="-8.6638020">
        <ele>157.7</ele>
        <time>2021-05-20T13:43:32Z</time>
      </trkpt>
      <trkpt lat="42.2613840" lon="-8.6638010">
        <ele>157.7</ele>
        <time>2021-05-20T13:43:33Z</time>
      </trkpt>
      <trkpt lat="42.2613870" lon="-8.6638010">
        <ele>157.7</ele>
        <time>2021-05-20T13:43:34Z</time>
      </trkpt>
      <trkpt lat="42.2613890" lon="-8.6638000">
        <ele>157.7</ele>
        <time>2021-05-20T13:43:35Z</time>
      </trkpt>
      <trkpt lat="42.2613920" lon="-8.6638000">
        <ele>157.7</ele>
        <time>2021-05-20T13:43:36Z</time>
      </trkpt>
      <trkpt lat="42.2613950" lon="-8.6637990">
        <ele>157.7</ele>
        <time>2021-05-20T13:43:37Z</time>
      </trkpt>
      <trkpt lat="42.2613970" lon="-8.6637990">
        <ele>157.7</ele>
        <time>2021-05-20T13:43:38Z</time>
      </trkpt>
      <trkpt lat="42.2614000" lon="-8.6637980">
        <ele>157.7</ele>
        <time>2021-05-20T13:43:39Z</time>
      </trkpt>
      <trkpt lat="42.2614030" lon="-8.6637970">
        <ele>157.7</ele>
        <time>2021-05-20T13:43:40Z</time>
      </trkpt>
      <trkpt lat="42.2614060" lon="-8.6637970">
        <ele>157.7</ele>
        <time>2021-05-20T13:43:41Z</time>
      </trkpt>
      <trkpt lat="42.2614080" lon="-8.6637960">
        <ele>157.7</ele>
        <time>2021-05-20T13:43:42Z</time>
      </trkpt>
      <trkpt lat="42.2614110" lon="-8.6637960">
        <ele>157.7</ele>
        <time>2021-05-20T13:43:43Z</time>
      </trkpt>
      <trkpt lat="42.2614140" lon="-8.6637950">
        <ele>157.7</ele>
        <time>2021-05-20T13:43:44Z</time>
      </trkpt>
      <trkpt lat="42.2614160" lon="-8.6637950">
        <ele>157.7</ele>
        <time>2021-05-20T13:43:45Z</time>
      </trkpt>
      <trkpt lat="42.2614190" lon="-8.6637940">
        <ele>157.7</ele>
        <time>2021-05-20T13:43:46Z</time>
      </trkpt>
      <trkpt lat="42.2614220" lon="-8.6637940">
        <ele>157.7</ele>
        <time>2021-05-20T13:43:47Z</time>
      </trkpt>
      <trkpt lat="42.2614250" lon="-8.6637930">
        <ele>157.7</ele>
        <time>2021-05-20T13:43:48Z</time>
      </trkpt>
      <trkpt lat="42.2614270" lon="-8.6637930">
        <ele>157.7</ele>
        <time>2021-05-20T13:43:49Z</time>
      </trkpt>
      <trkpt lat="42.2614300" lon="-8.6637920">
        <ele>157.7</ele>
        <time>2021-05-20T13:43:50Z</time>
      </trkpt>
      <trkpt lat="42.2614330" lon="-8.6637920">
        <ele>157.7</ele>
        <time>2021-05-20T13:43:51Z</time>
      </trkpt>
      <trkpt lat="42.2614350" lon="-8.6637910">
        <ele>157.7</ele>
        <time>2021-05-20T13:43:52Z</time>
      </trkpt>
      <trkpt lat="42.2614380" lon="-8.6637910">
        <ele>157.7</ele>
        <time>2021-05-20T13:43:53Z</time>
      </trkpt>
      <trkpt lat="42.2614410" lon="-8.6637900">
        <ele>157.7</ele>
        <time>2021-05-20T13:43:54Z</time>
      </trkpt>
      <trkpt lat="42.2614440" lon="-8.6637890">
        <ele>157.7</ele>
        <time>2021-05-20T13:43:55Z</time>
      </trkpt>
      <trkpt lat="42.2614460" lon="-8.6637890">
        <ele>157.7</ele>
        <time>2021-05-20T13:43:56Z</time>
      </trkpt>
      <trkpt lat="42.2614490" lon="-8.6637880">
        <ele>157.7</ele>
        <time>2021-05-20T13:43:57Z</time>
      </trkpt>
      <trkpt lat="42.2614520" lon="-8.6637880">
        <ele>157.7</ele>
        <time>2021-05-20T13:43:58Z</time>
      </trkpt>
      <trkpt lat="42.2614540" lon="-8.6637870">
        <ele>157.7</ele>
        <time>2021-05-20T13:43:59Z</time>
      </trkpt>
      <trkpt lat="42.2614570" lon="-8.6637870">
        <ele>157.7</ele>
        <time>2021-05-20T13:44:00Z</time>
      </trkpt>
      <trkpt lat="42.2614600" lon="-8.6637860">
        <ele>157.7</ele>
        <time>2021-05-20T13:44:01Z</time>
      </trkpt>
      <trkpt lat="42.2614620" lon="-8.6637860">
        <ele>157.7</ele>
        <time>2021-05-20T13:44:02Z</time>
      </trkpt>
      <trkpt lat="42.2614650" lon="-8.6637850">
        <ele>157.7</ele>
        <time>2021-05-20T13:44:03Z</time>
      </trkpt>
      <trkpt lat="42.2614680" lon="-8.6637850">
        <ele>157.7</ele>
        <time>2021-05-20T13:44:04Z</time>
      </trkpt>
      <trkpt lat="42.2614710" lon="-8.6637840">
        <ele>157.7</ele>
        <time>2021-05-20T13:44:05Z</time>
      </trkpt>
      <trkpt lat="42.2614730" lon="-8.6637840">
        <ele>157.7</ele>
        <time>2021-05-20T13:44:06Z</time>
      </trkpt>
      <trkpt lat="42.2614760" lon="-8.6637830">
        <ele>157.7</ele>
        <time>2021-05-20T13:44:07Z</time>
      </trkpt>
      <trkpt lat="42.2614280" lon="-8.6637900">
        <ele>157.7</ele>
        <time>2021-05-20T13:44:08Z</time>
      </trkpt>
      <trkpt lat="42.2614220" lon="-8.6637760">
        <ele>157.7</ele>
        <time>2021-05-20T13:44:09Z</time>
      </trkpt>
      <trkpt lat="42.2614150" lon="-8.6637610">
        <ele>157.7</ele>
        <time>2021-05-20T13:44:10Z</time>
      </trkpt>
      <trkpt lat="42.2614080" lon="-8.6637460">
        <ele>157.7</ele>
        <time>2021-05-20T13:44:11Z</time>
      </trkpt>
      <trkpt lat="42.2613860" lon="-8.6637460">
        <ele>157.7</ele>
        <time>2021-05-20T13:44:12Z</time>
      </trkpt>
      <trkpt lat="42.2613850" lon="-8.6637490">
        <ele>157.7</ele>
        <time>2021-05-20T13:44:13Z</time>
      </trkpt>
      <trkpt lat="42.2613850" lon="-8.6637510">
        <ele>157.7</ele>
        <time>2021-05-20T13:44:14Z</time>
      </trkpt>
      <trkpt lat="42.2613840" lon="-8.6637530">
        <ele>157.7</ele>
        <time>2021-05-20T13:44:15Z</time>
      </trkpt>
      <trkpt lat="42.2613830" lon="-8.6637550">
        <ele>157.7</ele>
        <time>2021-05-20T13:44:16Z</time>
      </trkpt>
      <trkpt lat="42.2613820" lon="-8.6637580">
        <ele>157.7</ele>
        <time>2021-05-20T13:44:18Z</time>
      </trkpt>
      <trkpt lat="42.2613820" lon="-8.6637600">
        <ele>157.7</ele>
        <time>2021-05-20T13:44:19Z</time>
      </trkpt>
      <trkpt lat="42.2613810" lon="-8.6637620">
        <ele>157.7</ele>
        <time>2021-05-20T13:44:20Z</time>
      </trkpt>
      <trkpt lat="42.2613800" lon="-8.6637640">
        <ele>157.7</ele>
        <time>2021-05-20T13:44:21Z</time>
      </trkpt>
      <trkpt lat="42.2613790" lon="-8.6637670">
        <ele>157.7</ele>
        <time>2021-05-20T13:44:22Z</time>
      </trkpt>
      <trkpt lat="42.2613790" lon="-8.6637690">
        <ele>157.7</ele>
        <time>2021-05-20T13:44:23Z</time>
      </trkpt>
      <trkpt lat="42.2613780" lon="-8.6637710">
        <ele>157.7</ele>
        <time>2021-05-20T13:44:24Z</time>
      </trkpt>
      <trkpt lat="42.2613770" lon="-8.6637730">
        <ele>157.7</ele>
        <time>2021-05-20T13:44:25Z</time>
      </trkpt>
      <trkpt lat="42.2613760" lon="-8.6637760">
        <ele>157.7</ele>
        <time>2021-05-20T13:44:26Z</time>
      </trkpt>
      <trkpt lat="42.2613750" lon="-8.6637780">
        <ele>157.7</ele>
        <time>2021-05-20T13:44:27Z</time>
      </trkpt>
      <trkpt lat="42.2613750" lon="-8.6637800">
        <ele>157.7</ele>
        <time>2021-05-20T13:44:28Z</time>
      </trkpt>
      <trkpt lat="42.2613740" lon="-8.6637820">
        <ele>157.7</ele>
        <time>2021-05-20T13:44:29Z</time>
      </trkpt>
      <trkpt lat="42.2613730" lon="-8.6637850">
        <ele>157.7</ele>
        <time>2021-05-20T13:44:31Z</time>
      </trkpt>
      <trkpt lat="42.2613720" lon="-8.6637870">
        <ele>157.7</ele>
        <time>2021-05-20T13:44:32Z</time>
      </trkpt>
      <trkpt lat="42.2613720" lon="-8.6637890">
        <ele>157.7</ele>
        <time>2021-05-20T13:44:33Z</time>
      </trkpt>
      <trkpt lat="42.2613710" lon="-8.6637910">
        <ele>157.7</ele>
        <time>2021-05-20T13:44:34Z</time>
      </trkpt>
      <trkpt lat="42.2613700" lon="-8.6637940">
        <ele>157.7</ele>
        <time>2021-05-20T13:44:35Z</time>
      </trkpt>
      <trkpt lat="42.2613690" lon="-8.6637960">
        <ele>157.7</ele>
        <time>2021-05-20T13:44:36Z</time>
      </trkpt>
      <trkpt lat="42.2613680" lon="-8.6637980">
        <ele>157.7</ele>
        <time>2021-05-20T13:44:37Z</time>
      </trkpt>
      <trkpt lat="42.2613680" lon="-8.6638000">
        <ele>157.7</ele>
        <time>2021-05-20T13:44:38Z</time>
      </trkpt>
      <trkpt lat="42.2613670" lon="-8.6638030">
        <ele>157.7</ele>
        <time>2021-05-20T13:44:39Z</time>
      </trkpt>
      <trkpt lat="42.2613660" lon="-8.6638050">
        <ele>157.7</ele>
        <time>2021-05-20T13:44:40Z</time>
      </trkpt>
      <trkpt lat="42.2613650" lon="-8.6638070">
        <ele>157.7</ele>
        <time>2021-05-20T13:44:41Z</time>
      </trkpt>
      <trkpt lat="42.2613650" lon="-8.6638090">
        <ele>157.7</ele>
        <time>2021-05-20T13:44:42Z</time>
      </trkpt>
      <trkpt lat="42.2613640" lon="-8.6638120">
        <ele>157.7</ele>
        <time>2021-05-20T13:44:43Z</time>
      </trkpt>
      <trkpt lat="42.2613630" lon="-8.6638140">
        <ele>157.7</ele>
        <time>2021-05-20T13:44:44Z</time>
      </trkpt>
      <trkpt lat="42.2613620" lon="-8.6638160">
        <ele>157.7</ele>
        <time>2021-05-20T13:44:45Z</time>
      </trkpt>
      <trkpt lat="42.2613620" lon="-8.6638180">
        <ele>157.7</ele>
        <time>2021-05-20T13:44:46Z</time>
      </trkpt>
      <trkpt lat="42.2613610" lon="-8.6638210">
        <ele>157.7</ele>
        <time>2021-05-20T13:44:47Z</time>
      </trkpt>
      <trkpt lat="42.2613600" lon="-8.6638230">
        <ele>157.7</ele>
        <time>2021-05-20T13:44:48Z</time>
      </trkpt>
      <trkpt lat="42.2613590" lon="-8.6638250">
        <ele>157.7</ele>
        <time>2021-05-20T13:44:49Z</time>
      </trkpt>
      <trkpt lat="42.2613580" lon="-8.6638270">
        <ele>157.7</ele>
        <time>2021-05-20T13:44:50Z</time>
      </trkpt>
      <trkpt lat="42.2613580" lon="-8.6638300">
        <ele>157.7</ele>
        <time>2021-05-20T13:44:51Z</time>
      </trkpt>
      <trkpt lat="42.2613570" lon="-8.6638320">
        <ele>157.7</ele>
        <time>2021-05-20T13:44:52Z</time>
      </trkpt>
      <trkpt lat="42.2613560" lon="-8.6638340">
        <ele>157.7</ele>
        <time>2021-05-20T13:44:53Z</time>
      </trkpt>
      <trkpt lat="42.2613550" lon="-8.6638360">
        <ele>157.7</ele>
        <time>2021-05-20T13:44:54Z</time>
      </trkpt>
      <trkpt lat="42.2613550" lon="-8.6638390">
        <ele>157.7</ele>
        <time>2021-05-20T13:44:55Z</time>
      </trkpt>
      <trkpt lat="42.2613540" lon="-8.6638410">
        <ele>157.7</ele>
        <time>2021-05-20T13:44:56Z</time>
      </trkpt>
      <trkpt lat="42.2613530" lon="-8.6638430">
        <ele>157.7</ele>
        <time>2021-05-20T13:44:57Z</time>
      </trkpt>
      <trkpt lat="42.2613670" lon="-8.6638470">
        <ele>157.7</ele>
        <time>2021-05-20T13:44:58Z</time>
      </trkpt>
      <trkpt lat="42.2613670" lon="-8.6638470">
        <ele>157.7</ele>
        <time>2021-05-20T13:44:59Z</time>
      </trkpt>
      <trkpt lat="42.2613670" lon="-8.6638470">
        <ele>157.7</ele>
        <time>2021-05-20T13:45:00Z</time>
      </trkpt>
      <trkpt lat="42.2613670" lon="-8.6638470">
        <ele>157.7</ele>
        <time>2021-05-20T13:45:01Z</time>
      </trkpt>
      <trkpt lat="42.2613670" lon="-8.6638470">
        <ele>157.7</ele>
        <time>2021-05-20T13:45:02Z</time>
      </trkpt>
      <trkpt lat="42.2613680" lon="-8.6638470">
        <ele>157.7</ele>
        <time>2021-05-20T13:45:03Z</time>
      </trkpt>
      <trkpt lat="42.2613680" lon="-8.6638470">
        <ele>157.7</ele>
        <time>2021-05-20T13:45:04Z</time>
      </trkpt>
      <trkpt lat="42.2613680" lon="-8.6638470">
        <ele>157.7</ele>
        <time>2021-05-20T13:45:05Z</time>
      </trkpt>
      <trkpt lat="42.2613680" lon="-8.6638460">
        <ele>157.7</ele>
        <time>2021-05-20T13:45:06Z</time>
      </trkpt>
      <trkpt lat="42.2613680" lon="-8.6638460">
        <ele>157.7</ele>
        <time>2021-05-20T13:45:07Z</time>
      </trkpt>
      <trkpt lat="42.2613680" lon="-8.6638460">
        <ele>157.7</ele>
        <time>2021-05-20T13:45:08Z</time>
      </trkpt>
      <trkpt lat="42.2613680" lon="-8.6638460">
        <ele>157.7</ele>
        <time>2021-05-20T13:45:09Z</time>
      </trkpt>
      <trkpt lat="42.2613680" lon="-8.6638460">
        <ele>157.7</ele>
        <time>2021-05-20T13:45:10Z</time>
      </trkpt>
      <trkpt lat="42.2613680" lon="-8.6638460">
        <ele>157.7</ele>
        <time>2021-05-20T13:45:11Z</time>
      </trkpt>
      <trkpt lat="42.2613680" lon="-8.6638460">
        <ele>157.7</ele>
        <time>2021-05-20T13:45:12Z</time>
      </trkpt>
      <trkpt lat="42.2613680" lon="-8.6638460">
        <ele>157.7</ele>
        <time>2021-05-20T13:45:13Z</time>
      </trkpt>
      <trkpt lat="42.2613680" lon="-8.6638460">
        <ele>157.7</ele>
        <time>2021-05-20T13:45:14Z</time>
      </trkpt>
      <trkpt lat="42.2613690" lon="-8.6638460">
        <ele>157.7</ele>
        <time>2021-05-20T13:45:15Z</time>
      </trkpt>
      <trkpt lat="42.2613690" lon="-8.6638460">
        <ele>157.7</ele>
        <time>2021-05-20T13:45:16Z</time>
      </trkpt>
      <trkpt lat="42.2613690" lon="-8.6638460">
        <ele>157.7</ele>
        <time>2021-05-20T13:45:17Z</time>
      </trkpt>
      <trkpt lat="42.2613690" lon="-8.6638460">
        <ele>157.7</ele>
        <time>2021-05-20T13:45:18Z</time>
      </trkpt>
      <trkpt lat="42.2613690" lon="-8.6638460">
        <ele>157.7</ele>
        <time>2021-05-20T13:45:19Z</time>
      </trkpt>
      <trkpt lat="42.2613690" lon="-8.6638460">
        <ele>157.7</ele>
        <time>2021-05-20T13:45:20Z</time>
      </trkpt>
      <trkpt lat="42.2613690" lon="-8.6638460">
        <ele>157.7</ele>
        <time>2021-05-20T13:45:21Z</time>
      </trkpt>
      <trkpt lat="42.2613690" lon="-8.6638460">
        <ele>157.7</ele>
        <time>2021-05-20T13:45:22Z</time>
      </trkpt>
      <trkpt lat="42.2613690" lon="-8.6638460">
        <ele>157.7</ele>
        <time>2021-05-20T13:45:23Z</time>
      </trkpt>
      <trkpt lat="42.2613690" lon="-8.6638450">
        <ele>157.7</ele>
        <time>2021-05-20T13:45:24Z</time>
      </trkpt>
      <trkpt lat="42.2613690" lon="-8.6638450">
        <ele>157.7</ele>
        <time>2021-05-20T13:45:25Z</time>
      </trkpt>
      <trkpt lat="42.2613690" lon="-8.6638450">
        <ele>157.7</ele>
        <time>2021-05-20T13:45:26Z</time>
      </trkpt>
      <trkpt lat="42.2613700" lon="-8.6638450">
        <ele>157.7</ele>
        <time>2021-05-20T13:45:27Z</time>
      </trkpt>
      <trkpt lat="42.2613700" lon="-8.6638450">
        <ele>157.7</ele>
        <time>2021-05-20T13:45:28Z</time>
      </trkpt>
      <trkpt lat="42.2613700" lon="-8.6638450">
        <ele>157.7</ele>
        <time>2021-05-20T13:45:29Z</time>
      </trkpt>
      <trkpt lat="42.2613700" lon="-8.6638450">
        <ele>157.7</ele>
        <time>2021-05-20T13:45:30Z</time>
      </trkpt>
      <trkpt lat="42.2613700" lon="-8.6638450">
        <ele>157.7</ele>
        <time>2021-05-20T13:45:31Z</time>
      </trkpt>
      <trkpt lat="42.2613700" lon="-8.6638450">
        <ele>157.7</ele>
        <time>2021-05-20T13:45:32Z</time>
      </trkpt>
      <trkpt lat="42.2613700" lon="-8.6638450">
        <ele>157.7</ele>
        <time>2021-05-20T13:45:33Z</time>
      </trkpt>
      <trkpt lat="42.2613700" lon="-8.6638450">
        <ele>157.7</ele>
        <time>2021-05-20T13:45:34Z</time>
      </trkpt>
      <trkpt lat="42.2613700" lon="-8.6638450">
        <ele>157.7</ele>
        <time>2021-05-20T13:45:35Z</time>
      </trkpt>
      <trkpt lat="42.2613700" lon="-8.6638450">
        <ele>157.7</ele>
        <time>2021-05-20T13:45:36Z</time>
      </trkpt>
      <trkpt lat="42.2613700" lon="-8.6638450">
        <ele>157.7</ele>
        <time>2021-05-20T13:45:37Z</time>
      </trkpt>
      <trkpt lat="42.2613700" lon="-8.6638450">
        <ele>157.7</ele>
        <time>2021-05-20T13:45:38Z</time>
      </trkpt>
      <trkpt lat="42.2613710" lon="-8.6638450">
        <ele>157.7</ele>
        <time>2021-05-20T13:45:39Z</time>
      </trkpt>
      <trkpt lat="42.2613710" lon="-8.6638450">
        <ele>157.7</ele>
        <time>2021-05-20T13:45:40Z</time>
      </trkpt>
      <trkpt lat="42.2613710" lon="-8.6638450">
        <ele>157.7</ele>
        <time>2021-05-20T13:45:41Z</time>
      </trkpt>
      <trkpt lat="42.2613710" lon="-8.6638440">
        <ele>157.7</ele>
        <time>2021-05-20T13:45:42Z</time>
      </trkpt>
      <trkpt lat="42.2613710" lon="-8.6638440">
        <ele>157.7</ele>
        <time>2021-05-20T13:45:43Z</time>
      </trkpt>
      <trkpt lat="42.2613710" lon="-8.6638440">
        <ele>157.7</ele>
        <time>2021-05-20T13:45:44Z</time>
      </trkpt>
      <trkpt lat="42.2613710" lon="-8.6638440">
        <ele>157.7</ele>
        <time>2021-05-20T13:45:45Z</time>
      </trkpt>
      <trkpt lat="42.2613710" lon="-8.6638440">
        <ele>157.7</ele>
        <time>2021-05-20T13:45:46Z</time>
      </trkpt>
      <trkpt lat="42.2613710" lon="-8.6638440">
        <ele>157.7</ele>
        <time>2021-05-20T13:45:47Z</time>
      </trkpt>
      <trkpt lat="42.2613710" lon="-8.6638440">
        <ele>157.7</ele>
        <time>2021-05-20T13:45:48Z</time>
      </trkpt>
      <trkpt lat="42.2613710" lon="-8.6638440">
        <ele>157.7</ele>
        <time>2021-05-20T13:45:49Z</time>
      </trkpt>
      <trkpt lat="42.2613710" lon="-8.6638440">
        <ele>157.7</ele>
        <time>2021-05-20T13:45:50Z</time>
      </trkpt>
      <trkpt lat="42.2613720" lon="-8.6638440">
        <ele>157.7</ele>
        <time>2021-05-20T13:45:51Z</time>
      </trkpt>
      <trkpt lat="42.2613720" lon="-8.6638440">
        <ele>157.7</ele>
        <time>2021-05-20T13:45:52Z</time>
      </trkpt>
      <trkpt lat="42.2613720" lon="-8.6638440">
        <ele>157.7</ele>
        <time>2021-05-20T13:45:53Z</time>
      </trkpt>
      <trkpt lat="42.2613720" lon="-8.6638440">
        <ele>157.7</ele>
        <time>2021-05-20T13:45:54Z</time>
      </trkpt>
      <trkpt lat="42.2613720" lon="-8.6638440">
        <ele>157.7</ele>
        <time>2021-05-20T13:45:55Z</time>
      </trkpt>
      <trkpt lat="42.2613720" lon="-8.6638440">
        <ele>157.7</ele>
        <time>2021-05-20T13:45:56Z</time>
      </trkpt>
      <trkpt lat="42.2613720" lon="-8.6638440">
        <ele>157.7</ele>
        <time>2021-05-20T13:45:57Z</time>
      </trkpt>
      <trkpt lat="42.2613720" lon="-8.6638440">
        <ele>157.7</ele>
        <time>2021-05-20T13:45:58Z</time>
      </trkpt>
      <trkpt lat="42.2613720" lon="-8.6638430">
        <ele>157.7</ele>
        <time>2021-05-20T13:45:59Z</time>
      </trkpt>
      <trkpt lat="42.2613720" lon="-8.6638430">
        <ele>157.7</ele>
        <time>2021-05-20T13:46:00Z</time>
      </trkpt>
      <trkpt lat="42.2613720" lon="-8.6638430">
        <ele>157.7</ele>
        <time>2021-05-20T13:46:01Z</time>
      </trkpt>
      <trkpt lat="42.2613730" lon="-8.6638430">
        <ele>157.7</ele>
        <time>2021-05-20T13:46:02Z</time>
      </trkpt>
      <trkpt lat="42.2613730" lon="-8.6638430">
        <ele>157.7</ele>
        <time>2021-05-20T13:46:03Z</time>
      </trkpt>
      <trkpt lat="42.2613730" lon="-8.6638430">
        <ele>157.7</ele>
        <time>2021-05-20T13:46:04Z</time>
      </trkpt>
      <trkpt lat="42.2613730" lon="-8.6638430">
        <ele>157.7</ele>
        <time>2021-05-20T13:46:05Z</time>
      </trkpt>
      <trkpt lat="42.2613730" lon="-8.6638430">
        <ele>157.7</ele>
        <time>2021-05-20T13:46:06Z</time>
      </trkpt>
      <trkpt lat="42.2613730" lon="-8.6638430">
        <ele>157.7</ele>
        <time>2021-05-20T13:46:07Z</time>
      </trkpt>
      <trkpt lat="42.2613730" lon="-8.6638430">
        <ele>157.7</ele>
        <time>2021-05-20T13:46:08Z</time>
      </trkpt>
      <trkpt lat="42.2613730" lon="-8.6638430">
        <ele>157.7</ele>
        <time>2021-05-20T13:46:09Z</time>
      </trkpt>
      <trkpt lat="42.2613730" lon="-8.6638430">
        <ele>157.7</ele>
        <time>2021-05-20T13:46:10Z</time>
      </trkpt>
      <trkpt lat="42.2613730" lon="-8.6638430">
        <ele>157.7</ele>
        <time>2021-05-20T13:46:11Z</time>
      </trkpt>
      <trkpt lat="42.2613730" lon="-8.6638430">
        <ele>157.7</ele>
        <time>2021-05-20T13:46:12Z</time>
      </trkpt>
      <trkpt lat="42.2613730" lon="-8.6638430">
        <ele>157.7</ele>
        <time>2021-05-20T13:46:13Z</time>
      </trkpt>
      <trkpt lat="42.2613740" lon="-8.6638430">
        <ele>157.7</ele>
        <time>2021-05-20T13:46:14Z</time>
      </trkpt>
      <trkpt lat="42.2613740" lon="-8.6638430">
        <ele>157.7</ele>
        <time>2021-05-20T13:46:15Z</time>
      </trkpt>
      <trkpt lat="42.2613740" lon="-8.6638430">
        <ele>157.7</ele>
        <time>2021-05-20T13:46:16Z</time>
      </trkpt>
      <trkpt lat="42.2613740" lon="-8.6638420">
        <ele>157.7</ele>
        <time>2021-05-20T13:46:17Z</time>
      </trkpt>
      <trkpt lat="42.2613740" lon="-8.6638420">
        <ele>157.7</ele>
        <time>2021-05-20T13:46:18Z</time>
      </trkpt>
      <trkpt lat="42.2613740" lon="-8.6638420">
        <ele>157.7</ele>
        <time>2021-05-20T13:46:19Z</time>
      </trkpt>
      <trkpt lat="42.2613740" lon="-8.6638420">
        <ele>157.7</ele>
        <time>2021-05-20T13:46:20Z</time>
      </trkpt>
      <trkpt lat="42.2613740" lon="-8.6638420">
        <ele>157.7</ele>
        <time>2021-05-20T13:46:21Z</time>
      </trkpt>
      <trkpt lat="42.2613740" lon="-8.6638420">
        <ele>157.7</ele>
        <time>2021-05-20T13:46:22Z</time>
      </trkpt>
      <trkpt lat="42.2613740" lon="-8.6638420">
        <ele>157.7</ele>
        <time>2021-05-20T13:46:23Z</time>
      </trkpt>
      <trkpt lat="42.2613740" lon="-8.6638420">
        <ele>157.7</ele>
        <time>2021-05-20T13:46:24Z</time>
      </trkpt>
      <trkpt lat="42.2613740" lon="-8.6638420">
        <ele>157.7</ele>
        <time>2021-05-20T13:46:25Z</time>
      </trkpt>
      <trkpt lat="42.2613750" lon="-8.6638420">
        <ele>157.7</ele>
        <time>2021-05-20T13:46:26Z</time>
      </trkpt>
      <trkpt lat="42.2613750" lon="-8.6638420">
        <ele>157.7</ele>
        <time>2021-05-20T13:46:27Z</time>
      </trkpt>
      <trkpt lat="42.2613750" lon="-8.6638420">
        <ele>157.7</ele>
        <time>2021-05-20T13:46:28Z</time>
      </trkpt>
      <trkpt lat="42.2613750" lon="-8.6638420">
        <ele>157.7</ele>
        <time>2021-05-20T13:46:29Z</time>
      </trkpt>
      <trkpt lat="42.2613750" lon="-8.6638420">
        <ele>157.7</ele>
        <time>2021-05-20T13:46:30Z</time>
      </trkpt>
      <trkpt lat="42.2613750" lon="-8.6638420">
        <ele>157.7</ele>
        <time>2021-05-20T13:46:31Z</time>
      </trkpt>
      <trkpt lat="42.2613750" lon="-8.6638420">
        <ele>157.7</ele>
        <time>2021-05-20T13:46:32Z</time>
      </trkpt>
      <trkpt lat="42.2613750" lon="-8.6638420">
        <ele>157.7</ele>
        <time>2021-05-20T13:46:33Z</time>
      </trkpt>
      <trkpt lat="42.2613750" lon="-8.6638420">
        <ele>157.7</ele>
        <time>2021-05-20T13:46:34Z</time>
      </trkpt>
      <trkpt lat="42.2613750" lon="-8.6638410">
        <ele>157.7</ele>
        <time>2021-05-20T13:46:35Z</time>
      </trkpt>
      <trkpt lat="42.2613750" lon="-8.6638410">
        <ele>157.7</ele>
        <time>2021-05-20T13:46:36Z</time>
      </trkpt>
      <trkpt lat="42.2613750" lon="-8.6638410">
        <ele>157.7</ele>
        <time>2021-05-20T13:46:37Z</time>
      </trkpt>
      <trkpt lat="42.2613760" lon="-8.6638410">
        <ele>157.7</ele>
        <time>2021-05-20T13:46:38Z</time>
      </trkpt>
      <trkpt lat="42.2613760" lon="-8.6638410">
        <ele>157.7</ele>
        <time>2021-05-20T13:46:39Z</time>
      </trkpt>
      <trkpt lat="42.2613760" lon="-8.6638410">
        <ele>157.7</ele>
        <time>2021-05-20T13:46:40Z</time>
      </trkpt>
      <trkpt lat="42.2613760" lon="-8.6638410">
        <ele>157.7</ele>
        <time>2021-05-20T13:46:41Z</time>
      </trkpt>
      <trkpt lat="42.2613760" lon="-8.6638410">
        <ele>157.7</ele>
        <time>2021-05-20T13:46:42Z</time>
      </trkpt>
      <trkpt lat="42.2613760" lon="-8.6638410">
        <ele>157.7</ele>
        <time>2021-05-20T13:46:43Z</time>
      </trkpt>
      <trkpt lat="42.2613760" lon="-8.6638410">
        <ele>157.7</ele>
        <time>2021-05-20T13:46:44Z</time>
      </trkpt>
      <trkpt lat="42.2613760" lon="-8.6638410">
        <ele>157.7</ele>
        <time>2021-05-20T13:46:45Z</time>
      </trkpt>
      <trkpt lat="42.2613760" lon="-8.6638410">
        <ele>157.7</ele>
        <time>2021-05-20T13:46:46Z</time>
      </trkpt>
      <trkpt lat="42.2613760" lon="-8.6638410">
        <ele>157.7</ele>
        <time>2021-05-20T13:46:47Z</time>
      </trkpt>
      <trkpt lat="42.2613760" lon="-8.6638410">
        <ele>157.7</ele>
        <time>2021-05-20T13:46:48Z</time>
      </trkpt>
      <trkpt lat="42.2613770" lon="-8.6638410">
        <ele>157.7</ele>
        <time>2021-05-20T13:46:49Z</time>
      </trkpt>
      <trkpt lat="42.2613770" lon="-8.6638410">
        <ele>157.7</ele>
        <time>2021-05-20T13:46:50Z</time>
      </trkpt>
      <trkpt lat="42.2613770" lon="-8.6638410">
        <ele>157.7</ele>
        <time>2021-05-20T13:46:51Z</time>
      </trkpt>
      <trkpt lat="42.2613770" lon="-8.6638400">
        <ele>157.7</ele>
        <time>2021-05-20T13:46:52Z</time>
      </trkpt>
      <trkpt lat="42.2613770" lon="-8.6638400">
        <ele>157.7</ele>
        <time>2021-05-20T13:46:53Z</time>
      </trkpt>
      <trkpt lat="42.2613770" lon="-8.6638400">
        <ele>157.7</ele>
        <time>2021-05-20T13:46:54Z</time>
      </trkpt>
      <trkpt lat="42.2613770" lon="-8.6638400">
        <ele>157.7</ele>
        <time>2021-05-20T13:46:55Z</time>
      </trkpt>
      <trkpt lat="42.2613770" lon="-8.6638400">
        <ele>157.7</ele>
        <time>2021-05-20T13:46:56Z</time>
      </trkpt>
      <trkpt lat="42.2613770" lon="-8.6638400">
        <ele>157.7</ele>
        <time>2021-05-20T13:46:57Z</time>
      </trkpt>
      <trkpt lat="42.2613770" lon="-8.6638400">
        <ele>157.7</ele>
        <time>2021-05-20T13:46:58Z</time>
      </trkpt>
      <trkpt lat="42.2613770" lon="-8.6638400">
        <ele>157.7</ele>
        <time>2021-05-20T13:46:59Z</time>
      </trkpt>
      <trkpt lat="42.2613770" lon="-8.6638400">
        <ele>157.7</ele>
        <time>2021-05-20T13:47:00Z</time>
      </trkpt>
      <trkpt lat="42.2613780" lon="-8.6638400">
        <ele>157.7</ele>
        <time>2021-05-20T13:47:01Z</time>
      </trkpt>
      <trkpt lat="42.2613780" lon="-8.6638400">
        <ele>157.7</ele>
        <time>2021-05-20T13:47:02Z</time>
      </trkpt>
      <trkpt lat="42.2613780" lon="-8.6638400">
        <ele>157.7</ele>
        <time>2021-05-20T13:47:03Z</time>
      </trkpt>
      <trkpt lat="42.2613780" lon="-8.6638400">
        <ele>157.7</ele>
        <time>2021-05-20T13:47:05Z</time>
      </trkpt>
      <trkpt lat="42.2613780" lon="-8.6638400">
        <ele>157.7</ele>
        <time>2021-05-20T13:47:06Z</time>
      </trkpt>
      <trkpt lat="42.2613780" lon="-8.6638400">
        <ele>157.7</ele>
        <time>2021-05-20T13:47:07Z</time>
      </trkpt>
      <trkpt lat="42.2613780" lon="-8.6638400">
        <ele>157.7</ele>
        <time>2021-05-20T13:47:08Z</time>
      </trkpt>
      <trkpt lat="42.2613780" lon="-8.6638400">
        <ele>157.7</ele>
        <time>2021-05-20T13:47:09Z</time>
      </trkpt>
      <trkpt lat="42.2613780" lon="-8.6638400">
        <ele>157.7</ele>
        <time>2021-05-20T13:47:10Z</time>
      </trkpt>
      <trkpt lat="42.2613780" lon="-8.6638390">
        <ele>157.7</ele>
        <time>2021-05-20T13:47:11Z</time>
      </trkpt>
      <trkpt lat="42.2613780" lon="-8.6638390">
        <ele>157.7</ele>
        <time>2021-05-20T13:47:12Z</time>
      </trkpt>
      <trkpt lat="42.2613780" lon="-8.6638390">
        <ele>157.7</ele>
        <time>2021-05-20T13:47:13Z</time>
      </trkpt>
      <trkpt lat="42.2613790" lon="-8.6638390">
        <ele>157.7</ele>
        <time>2021-05-20T13:47:14Z</time>
      </trkpt>
      <trkpt lat="42.2613790" lon="-8.6638390">
        <ele>157.7</ele>
        <time>2021-05-20T13:47:15Z</time>
      </trkpt>
      <trkpt lat="42.2613790" lon="-8.6638390">
        <ele>157.7</ele>
        <time>2021-05-20T13:47:16Z</time>
      </trkpt>
      <trkpt lat="42.2613790" lon="-8.6638390">
        <ele>157.7</ele>
        <time>2021-05-20T13:47:17Z</time>
      </trkpt>
      <trkpt lat="42.2613790" lon="-8.6638390">
        <ele>157.7</ele>
        <time>2021-05-20T13:47:18Z</time>
      </trkpt>
      <trkpt lat="42.2613790" lon="-8.6638390">
        <ele>157.7</ele>
        <time>2021-05-20T13:47:19Z</time>
      </trkpt>
      <trkpt lat="42.2613790" lon="-8.6638390">
        <ele>157.7</ele>
        <time>2021-05-20T13:47:20Z</time>
      </trkpt>
      <trkpt lat="42.2613790" lon="-8.6638390">
        <ele>157.7</ele>
        <time>2021-05-20T13:47:21Z</time>
      </trkpt>
      <trkpt lat="42.2613790" lon="-8.6638390">
        <ele>157.7</ele>
        <time>2021-05-20T13:47:22Z</time>
      </trkpt>
      <trkpt lat="42.2613790" lon="-8.6638390">
        <ele>157.7</ele>
        <time>2021-05-20T13:47:23Z</time>
      </trkpt>
      <trkpt lat="42.2613790" lon="-8.6638390">
        <ele>157.7</ele>
        <time>2021-05-20T13:47:24Z</time>
      </trkpt>
      <trkpt lat="42.2613790" lon="-8.6638390">
        <ele>157.7</ele>
        <time>2021-05-20T13:47:25Z</time>
      </trkpt>
      <trkpt lat="42.2613800" lon="-8.6638390">
        <ele>157.7</ele>
        <time>2021-05-20T13:47:26Z</time>
      </trkpt>
      <trkpt lat="42.2613800" lon="-8.6638390">
        <ele>157.7</ele>
        <time>2021-05-20T13:47:27Z</time>
      </trkpt>
      <trkpt lat="42.2613800" lon="-8.6638390">
        <ele>157.7</ele>
        <time>2021-05-20T13:47:28Z</time>
      </trkpt>
      <trkpt lat="42.2613800" lon="-8.6638380">
        <ele>157.7</ele>
        <time>2021-05-20T13:47:29Z</time>
      </trkpt>
      <trkpt lat="42.2613800" lon="-8.6638380">
        <ele>157.7</ele>
        <time>2021-05-20T13:47:30Z</time>
      </trkpt>
      <trkpt lat="42.2613800" lon="-8.6638380">
        <ele>157.7</ele>
        <time>2021-05-20T13:47:31Z</time>
      </trkpt>
      <trkpt lat="42.2613800" lon="-8.6638380">
        <ele>157.7</ele>
        <time>2021-05-20T13:47:32Z</time>
      </trkpt>
      <trkpt lat="42.2613800" lon="-8.6638380">
        <ele>157.7</ele>
        <time>2021-05-20T13:47:33Z</time>
      </trkpt>
      <trkpt lat="42.2613800" lon="-8.6638380">
        <ele>157.7</ele>
        <time>2021-05-20T13:47:34Z</time>
      </trkpt>
      <trkpt lat="42.2613800" lon="-8.6638380">
        <ele>157.7</ele>
        <time>2021-05-20T13:47:35Z</time>
      </trkpt>
      <trkpt lat="42.2613800" lon="-8.6638380">
        <ele>157.7</ele>
        <time>2021-05-20T13:47:36Z</time>
      </trkpt>
      <trkpt lat="42.2613800" lon="-8.6638380">
        <ele>157.7</ele>
        <time>2021-05-20T13:47:37Z</time>
      </trkpt>
      <trkpt lat="42.2613810" lon="-8.6638380">
        <ele>157.7</ele>
        <time>2021-05-20T13:47:38Z</time>
      </trkpt>
      <trkpt lat="42.2613810" lon="-8.6638380">
        <ele>157.7</ele>
        <time>2021-05-20T13:47:39Z</time>
      </trkpt>
      <trkpt lat="42.2613810" lon="-8.6638380">
        <ele>157.7</ele>
        <time>2021-05-20T13:47:40Z</time>
      </trkpt>
      <trkpt lat="42.2613810" lon="-8.6638380">
        <ele>157.7</ele>
        <time>2021-05-20T13:47:41Z</time>
      </trkpt>
      <trkpt lat="42.2613810" lon="-8.6638380">
        <ele>157.7</ele>
        <time>2021-05-20T13:47:42Z</time>
      </trkpt>
      <trkpt lat="42.2613810" lon="-8.6638380">
        <ele>157.7</ele>
        <time>2021-05-20T13:47:43Z</time>
      </trkpt>
      <trkpt lat="42.2613810" lon="-8.6638380">
        <ele>157.7</ele>
        <time>2021-05-20T13:47:44Z</time>
      </trkpt>
      <trkpt lat="42.2613810" lon="-8.6638380">
        <ele>157.7</ele>
        <time>2021-05-20T13:47:45Z</time>
      </trkpt>
      <trkpt lat="42.2613810" lon="-8.6638370">
        <ele>157.7</ele>
        <time>2021-05-20T13:47:46Z</time>
      </trkpt>
      <trkpt lat="42.2613810" lon="-8.6638370">
        <ele>157.7</ele>
        <time>2021-05-20T13:47:47Z</time>
      </trkpt>
      <trkpt lat="42.2613810" lon="-8.6638370">
        <ele>157.7</ele>
        <time>2021-05-20T13:47:48Z</time>
      </trkpt>
      <trkpt lat="42.2613820" lon="-8.6638370">
        <ele>157.7</ele>
        <time>2021-05-20T13:47:49Z</time>
      </trkpt>
      <trkpt lat="42.2613820" lon="-8.6638370">
        <ele>157.7</ele>
        <time>2021-05-20T13:47:50Z</time>
      </trkpt>
      <trkpt lat="42.2613820" lon="-8.6638370">
        <ele>157.7</ele>
        <time>2021-05-20T13:47:51Z</time>
      </trkpt>
      <trkpt lat="42.2613820" lon="-8.6638370">
        <ele>157.7</ele>
        <time>2021-05-20T13:47:52Z</time>
      </trkpt>
      <trkpt lat="42.2613820" lon="-8.6638370">
        <ele>157.7</ele>
        <time>2021-05-20T13:47:53Z</time>
      </trkpt>
      <trkpt lat="42.2613820" lon="-8.6638370">
        <ele>157.7</ele>
        <time>2021-05-20T13:47:54Z</time>
      </trkpt>
      <trkpt lat="42.2613820" lon="-8.6638370">
        <ele>157.7</ele>
        <time>2021-05-20T13:47:55Z</time>
      </trkpt>
      <trkpt lat="42.2613820" lon="-8.6638370">
        <ele>157.7</ele>
        <time>2021-05-20T13:47:56Z</time>
      </trkpt>
      <trkpt lat="42.2613820" lon="-8.6638370">
        <ele>157.7</ele>
        <time>2021-05-20T13:47:57Z</time>
      </trkpt>
      <trkpt lat="42.2613820" lon="-8.6638370">
        <ele>157.7</ele>
        <time>2021-05-20T13:47:58Z</time>
      </trkpt>
      <trkpt lat="42.2613820" lon="-8.6638370">
        <ele>157.7</ele>
        <time>2021-05-20T13:47:59Z</time>
      </trkpt>
      <trkpt lat="42.2613820" lon="-8.6638370">
        <ele>157.7</ele>
        <time>2021-05-20T13:48:00Z</time>
      </trkpt>
      <trkpt lat="42.2613830" lon="-8.6638370">
        <ele>157.7</ele>
        <time>2021-05-20T13:48:01Z</time>
      </trkpt>
      <trkpt lat="42.2613830" lon="-8.6638370">
        <ele>157.7</ele>
        <time>2021-05-20T13:48:02Z</time>
      </trkpt>
      <trkpt lat="42.2613830" lon="-8.6638370">
        <ele>157.7</ele>
        <time>2021-05-20T13:48:03Z</time>
      </trkpt>
      <trkpt lat="42.2613830" lon="-8.6638360">
        <ele>157.7</ele>
        <time>2021-05-20T13:48:04Z</time>
      </trkpt>
      <trkpt lat="42.2613830" lon="-8.6638360">
        <ele>157.7</ele>
        <time>2021-05-20T13:48:05Z</time>
      </trkpt>
      <trkpt lat="42.2613830" lon="-8.6638360">
        <ele>157.7</ele>
        <time>2021-05-20T13:48:06Z</time>
      </trkpt>
      <trkpt lat="42.2613830" lon="-8.6638360">
        <ele>157.7</ele>
        <time>2021-05-20T13:48:07Z</time>
      </trkpt>
      <trkpt lat="42.2613830" lon="-8.6638360">
        <ele>157.7</ele>
        <time>2021-05-20T13:48:08Z</time>
      </trkpt>
      <trkpt lat="42.2613830" lon="-8.6638360">
        <ele>157.7</ele>
        <time>2021-05-20T13:48:09Z</time>
      </trkpt>
      <trkpt lat="42.2613830" lon="-8.6638360">
        <ele>157.7</ele>
        <time>2021-05-20T13:48:10Z</time>
      </trkpt>
      <trkpt lat="42.2613830" lon="-8.6638360">
        <ele>157.7</ele>
        <time>2021-05-20T13:48:11Z</time>
      </trkpt>
      <trkpt lat="42.2613830" lon="-8.6638360">
        <ele>157.7</ele>
        <time>2021-05-20T13:48:12Z</time>
      </trkpt>
      <trkpt lat="42.2613840" lon="-8.6638360">
        <ele>157.7</ele>
        <time>2021-05-20T13:48:13Z</time>
      </trkpt>
      <trkpt lat="42.2613840" lon="-8.6638360">
        <ele>157.7</ele>
        <time>2021-05-20T13:48:14Z</time>
      </trkpt>
      <trkpt lat="42.2613840" lon="-8.6638360">
        <ele>157.7</ele>
        <time>2021-05-20T13:48:15Z</time>
      </trkpt>
      <trkpt lat="42.2613840" lon="-8.6638360">
        <ele>157.7</ele>
        <time>2021-05-20T13:48:16Z</time>
      </trkpt>
      <trkpt lat="42.2613840" lon="-8.6638360">
        <ele>157.7</ele>
        <time>2021-05-20T13:48:17Z</time>
      </trkpt>
      <trkpt lat="42.2613840" lon="-8.6638360">
        <ele>157.7</ele>
        <time>2021-05-20T13:48:18Z</time>
      </trkpt>
      <trkpt lat="42.2613840" lon="-8.6638360">
        <ele>157.7</ele>
        <time>2021-05-20T13:48:19Z</time>
      </trkpt>
      <trkpt lat="42.2613840" lon="-8.6638360">
        <ele>157.7</ele>
        <time>2021-05-20T13:48:20Z</time>
      </trkpt>
      <trkpt lat="42.2613840" lon="-8.6638360">
        <ele>157.7</ele>
        <time>2021-05-20T13:48:21Z</time>
      </trkpt>
      <trkpt lat="42.2613840" lon="-8.6638350">
        <ele>157.7</ele>
        <time>2021-05-20T13:48:22Z</time>
      </trkpt>
      <trkpt lat="42.2613840" lon="-8.6638350">
        <ele>157.7</ele>
        <time>2021-05-20T13:48:23Z</time>
      </trkpt>
      <trkpt lat="42.2613840" lon="-8.6638350">
        <ele>157.7</ele>
        <time>2021-05-20T13:48:24Z</time>
      </trkpt>
      <trkpt lat="42.2613850" lon="-8.6638350">
        <ele>157.7</ele>
        <time>2021-05-20T13:48:25Z</time>
      </trkpt>
      <trkpt lat="42.2613850" lon="-8.6638350">
        <ele>157.7</ele>
        <time>2021-05-20T13:48:26Z</time>
      </trkpt>
      <trkpt lat="42.2613850" lon="-8.6638350">
        <ele>157.7</ele>
        <time>2021-05-20T13:48:27Z</time>
      </trkpt>
      <trkpt lat="42.2613850" lon="-8.6638350">
        <ele>157.7</ele>
        <time>2021-05-20T13:48:28Z</time>
      </trkpt>
      <trkpt lat="42.2613850" lon="-8.6638350">
        <ele>157.7</ele>
        <time>2021-05-20T13:48:29Z</time>
      </trkpt>
      <trkpt lat="42.2613850" lon="-8.6638350">
        <ele>157.7</ele>
        <time>2021-05-20T13:48:30Z</time>
      </trkpt>
      <trkpt lat="42.2613850" lon="-8.6638350">
        <ele>157.7</ele>
        <time>2021-05-20T13:48:31Z</time>
      </trkpt>
      <trkpt lat="42.2613850" lon="-8.6638350">
        <ele>157.7</ele>
        <time>2021-05-20T13:48:32Z</time>
      </trkpt>
      <trkpt lat="42.2613850" lon="-8.6638350">
        <ele>157.7</ele>
        <time>2021-05-20T13:48:33Z</time>
      </trkpt>
      <trkpt lat="42.2613850" lon="-8.6638350">
        <ele>157.7</ele>
        <time>2021-05-20T13:48:34Z</time>
      </trkpt>
      <trkpt lat="42.2613850" lon="-8.6638350">
        <ele>157.7</ele>
        <time>2021-05-20T13:48:35Z</time>
      </trkpt>
      <trkpt lat="42.2613850" lon="-8.6638350">
        <ele>157.7</ele>
        <time>2021-05-20T13:48:36Z</time>
      </trkpt>
      <trkpt lat="42.2613860" lon="-8.6638350">
        <ele>157.7</ele>
        <time>2021-05-20T13:48:37Z</time>
      </trkpt>
      <trkpt lat="42.2613860" lon="-8.6638350">
        <ele>157.7</ele>
        <time>2021-05-20T13:48:38Z</time>
      </trkpt>
      <trkpt lat="42.2613860" lon="-8.6638340">
        <ele>157.7</ele>
        <time>2021-05-20T13:48:39Z</time>
      </trkpt>
      <trkpt lat="42.2613860" lon="-8.6638340">
        <ele>157.7</ele>
        <time>2021-05-20T13:48:40Z</time>
      </trkpt>
      <trkpt lat="42.2613860" lon="-8.6638340">
        <ele>157.7</ele>
        <time>2021-05-20T13:48:41Z</time>
      </trkpt>
      <trkpt lat="42.2613860" lon="-8.6638340">
        <ele>157.7</ele>
        <time>2021-05-20T13:48:42Z</time>
      </trkpt>
      <trkpt lat="42.2613860" lon="-8.6638340">
        <ele>157.7</ele>
        <time>2021-05-20T13:48:43Z</time>
      </trkpt>
      <trkpt lat="42.2613860" lon="-8.6638340">
        <ele>157.7</ele>
        <time>2021-05-20T13:48:44Z</time>
      </trkpt>
      <trkpt lat="42.2613860" lon="-8.6638340">
        <ele>157.7</ele>
        <time>2021-05-20T13:48:45Z</time>
      </trkpt>
      <trkpt lat="42.2613860" lon="-8.6638340">
        <ele>157.7</ele>
        <time>2021-05-20T13:48:46Z</time>
      </trkpt>
      <trkpt lat="42.2613860" lon="-8.6638340">
        <ele>157.7</ele>
        <time>2021-05-20T13:48:47Z</time>
      </trkpt>
      <trkpt lat="42.2613870" lon="-8.6638340">
        <ele>157.7</ele>
        <time>2021-05-20T13:48:48Z</time>
      </trkpt>
      <trkpt lat="42.2613870" lon="-8.6638340">
        <ele>157.7</ele>
        <time>2021-05-20T13:48:49Z</time>
      </trkpt>
      <trkpt lat="42.2613870" lon="-8.6638340">
        <ele>157.7</ele>
        <time>2021-05-20T13:48:50Z</time>
      </trkpt>
      <trkpt lat="42.2613870" lon="-8.6638340">
        <ele>157.7</ele>
        <time>2021-05-20T13:48:51Z</time>
      </trkpt>
      <trkpt lat="42.2613870" lon="-8.6638340">
        <ele>157.7</ele>
        <time>2021-05-20T13:48:52Z</time>
      </trkpt>
      <trkpt lat="42.2613870" lon="-8.6638340">
        <ele>157.7</ele>
        <time>2021-05-20T13:48:53Z</time>
      </trkpt>
      <trkpt lat="42.2613870" lon="-8.6638340">
        <ele>157.7</ele>
        <time>2021-05-20T13:48:54Z</time>
      </trkpt>
      <trkpt lat="42.2613870" lon="-8.6638340">
        <ele>157.7</ele>
        <time>2021-05-20T13:48:55Z</time>
      </trkpt>
      <trkpt lat="42.2613870" lon="-8.6638340">
        <ele>157.7</ele>
        <time>2021-05-20T13:48:56Z</time>
      </trkpt>
      <trkpt lat="42.2613870" lon="-8.6638330">
        <ele>157.7</ele>
        <time>2021-05-20T13:48:57Z</time>
      </trkpt>
      <trkpt lat="42.2613870" lon="-8.6638330">
        <ele>157.7</ele>
        <time>2021-05-20T13:48:58Z</time>
      </trkpt>
      <trkpt lat="42.2613870" lon="-8.6638330">
        <ele>157.7</ele>
        <time>2021-05-20T13:48:59Z</time>
      </trkpt>
      <trkpt lat="42.2613880" lon="-8.6638330">
        <ele>157.7</ele>
        <time>2021-05-20T13:49:00Z</time>
      </trkpt>
      <trkpt lat="42.2613880" lon="-8.6638330">
        <ele>157.7</ele>
        <time>2021-05-20T13:49:01Z</time>
      </trkpt>
      <trkpt lat="42.2613880" lon="-8.6638330">
        <ele>157.7</ele>
        <time>2021-05-20T13:49:02Z</time>
      </trkpt>
      <trkpt lat="42.2613880" lon="-8.6638330">
        <ele>157.7</ele>
        <time>2021-05-20T13:49:03Z</time>
      </trkpt>
      <trkpt lat="42.2613880" lon="-8.6638330">
        <ele>157.7</ele>
        <time>2021-05-20T13:49:04Z</time>
      </trkpt>
      <trkpt lat="42.2613880" lon="-8.6638330">
        <ele>157.7</ele>
        <time>2021-05-20T13:49:05Z</time>
      </trkpt>
      <trkpt lat="42.2613880" lon="-8.6638330">
        <ele>157.7</ele>
        <time>2021-05-20T13:49:06Z</time>
      </trkpt>
      <trkpt lat="42.2613880" lon="-8.6638330">
        <ele>157.7</ele>
        <time>2021-05-20T13:49:07Z</time>
      </trkpt>
      <trkpt lat="42.2613880" lon="-8.6638330">
        <ele>157.7</ele>
        <time>2021-05-20T13:49:08Z</time>
      </trkpt>
      <trkpt lat="42.2613880" lon="-8.6638330">
        <ele>157.7</ele>
        <time>2021-05-20T13:49:09Z</time>
      </trkpt>
      <trkpt lat="42.2613880" lon="-8.6638330">
        <ele>157.7</ele>
        <time>2021-05-20T13:49:10Z</time>
      </trkpt>
      <trkpt lat="42.2613880" lon="-8.6638330">
        <ele>157.7</ele>
        <time>2021-05-20T13:49:11Z</time>
      </trkpt>
      <trkpt lat="42.2613890" lon="-8.6638330">
        <ele>157.7</ele>
        <time>2021-05-20T13:49:12Z</time>
      </trkpt>
      <trkpt lat="42.2613890" lon="-8.6638330">
        <ele>157.7</ele>
        <time>2021-05-20T13:49:13Z</time>
      </trkpt>
      <trkpt lat="42.2613890" lon="-8.6638330">
        <ele>157.7</ele>
        <time>2021-05-20T13:49:14Z</time>
      </trkpt>
      <trkpt lat="42.2613890" lon="-8.6638320">
        <ele>157.7</ele>
        <time>2021-05-20T13:49:15Z</time>
      </trkpt>
      <trkpt lat="42.2613890" lon="-8.6638320">
        <ele>157.7</ele>
        <time>2021-05-20T13:49:16Z</time>
      </trkpt>
      <trkpt lat="42.2613890" lon="-8.6638320">
        <ele>157.7</ele>
        <time>2021-05-20T13:49:17Z</time>
      </trkpt>
      <trkpt lat="42.2613890" lon="-8.6638320">
        <ele>157.7</ele>
        <time>2021-05-20T13:49:18Z</time>
      </trkpt>
      <trkpt lat="42.2613890" lon="-8.6638320">
        <ele>157.7</ele>
        <time>2021-05-20T13:49:19Z</time>
      </trkpt>
      <trkpt lat="42.2613890" lon="-8.6638320">
        <ele>157.7</ele>
        <time>2021-05-20T13:49:20Z</time>
      </trkpt>
      <trkpt lat="42.2613890" lon="-8.6638320">
        <ele>157.7</ele>
        <time>2021-05-20T13:49:21Z</time>
      </trkpt>
      <trkpt lat="42.2613890" lon="-8.6638320">
        <ele>157.7</ele>
        <time>2021-05-20T13:49:22Z</time>
      </trkpt>
      <trkpt lat="42.2613890" lon="-8.6638320">
        <ele>157.7</ele>
        <time>2021-05-20T13:49:23Z</time>
      </trkpt>
      <trkpt lat="42.2613900" lon="-8.6638320">
        <ele>157.7</ele>
        <time>2021-05-20T13:49:25Z</time>
      </trkpt>
      <trkpt lat="42.2613900" lon="-8.6638320">
        <ele>157.7</ele>
        <time>2021-05-20T13:49:26Z</time>
      </trkpt>
      <trkpt lat="42.2613900" lon="-8.6638320">
        <ele>157.7</ele>
        <time>2021-05-20T13:49:27Z</time>
      </trkpt>
      <trkpt lat="42.2613900" lon="-8.6638320">
        <ele>157.7</ele>
        <time>2021-05-20T13:49:28Z</time>
      </trkpt>
      <trkpt lat="42.2613900" lon="-8.6638320">
        <ele>157.7</ele>
        <time>2021-05-20T13:49:29Z</time>
      </trkpt>
      <trkpt lat="42.2613900" lon="-8.6638320">
        <ele>157.7</ele>
        <time>2021-05-20T13:49:30Z</time>
      </trkpt>
      <trkpt lat="42.2613900" lon="-8.6638320">
        <ele>157.7</ele>
        <time>2021-05-20T13:49:31Z</time>
      </trkpt>
      <trkpt lat="42.2613900" lon="-8.6638320">
        <ele>157.7</ele>
        <time>2021-05-20T13:49:32Z</time>
      </trkpt>
      <trkpt lat="42.2613900" lon="-8.6638310">
        <ele>157.7</ele>
        <time>2021-05-20T13:49:33Z</time>
      </trkpt>
      <trkpt lat="42.2613900" lon="-8.6638310">
        <ele>157.7</ele>
        <time>2021-05-20T13:49:34Z</time>
      </trkpt>
      <trkpt lat="42.2613900" lon="-8.6638310">
        <ele>157.7</ele>
        <time>2021-05-20T13:49:35Z</time>
      </trkpt>
      <trkpt lat="42.2613910" lon="-8.6638310">
        <ele>157.7</ele>
        <time>2021-05-20T13:49:36Z</time>
      </trkpt>
      <trkpt lat="42.2613910" lon="-8.6638310">
        <ele>157.7</ele>
        <time>2021-05-20T13:49:37Z</time>
      </trkpt>
      <trkpt lat="42.2613910" lon="-8.6638310">
        <ele>157.7</ele>
        <time>2021-05-20T13:49:38Z</time>
      </trkpt>
      <trkpt lat="42.2613910" lon="-8.6638310">
        <ele>157.7</ele>
        <time>2021-05-20T13:49:39Z</time>
      </trkpt>
      <trkpt lat="42.2613910" lon="-8.6638310">
        <ele>157.7</ele>
        <time>2021-05-20T13:49:40Z</time>
      </trkpt>
      <trkpt lat="42.2613910" lon="-8.6638310">
        <ele>157.7</ele>
        <time>2021-05-20T13:49:41Z</time>
      </trkpt>
      <trkpt lat="42.2613910" lon="-8.6638310">
        <ele>157.7</ele>
        <time>2021-05-20T13:49:42Z</time>
      </trkpt>
      <trkpt lat="42.2613910" lon="-8.6638310">
        <ele>157.7</ele>
        <time>2021-05-20T13:49:43Z</time>
      </trkpt>
      <trkpt lat="42.2613910" lon="-8.6638310">
        <ele>157.7</ele>
        <time>2021-05-20T13:49:44Z</time>
      </trkpt>
      <trkpt lat="42.2613910" lon="-8.6638310">
        <ele>157.7</ele>
        <time>2021-05-20T13:49:45Z</time>
      </trkpt>
      <trkpt lat="42.2613910" lon="-8.6638310">
        <ele>157.7</ele>
        <time>2021-05-20T13:49:46Z</time>
      </trkpt>
      <trkpt lat="42.2613910" lon="-8.6638310">
        <ele>157.7</ele>
        <time>2021-05-20T13:49:47Z</time>
      </trkpt>
      <trkpt lat="42.2613920" lon="-8.6638310">
        <ele>157.7</ele>
        <time>2021-05-20T13:49:48Z</time>
      </trkpt>
      <trkpt lat="42.2613920" lon="-8.6638310">
        <ele>157.7</ele>
        <time>2021-05-20T13:49:49Z</time>
      </trkpt>
      <trkpt lat="42.2613920" lon="-8.6638310">
        <ele>157.7</ele>
        <time>2021-05-20T13:49:50Z</time>
      </trkpt>
      <trkpt lat="42.2613920" lon="-8.6638300">
        <ele>157.7</ele>
        <time>2021-05-20T13:49:51Z</time>
      </trkpt>
      <trkpt lat="42.2613920" lon="-8.6638300">
        <ele>157.7</ele>
        <time>2021-05-20T13:49:52Z</time>
      </trkpt>
      <trkpt lat="42.2613920" lon="-8.6638300">
        <ele>157.7</ele>
        <time>2021-05-20T13:49:53Z</time>
      </trkpt>
      <trkpt lat="42.2613920" lon="-8.6638300">
        <ele>157.7</ele>
        <time>2021-05-20T13:49:54Z</time>
      </trkpt>
      <trkpt lat="42.2613920" lon="-8.6638300">
        <ele>157.7</ele>
        <time>2021-05-20T13:49:55Z</time>
      </trkpt>
      <trkpt lat="42.2613920" lon="-8.6638300">
        <ele>157.7</ele>
        <time>2021-05-20T13:49:56Z</time>
      </trkpt>
      <trkpt lat="42.2613920" lon="-8.6638300">
        <ele>157.7</ele>
        <time>2021-05-20T13:49:57Z</time>
      </trkpt>
      <trkpt lat="42.2613920" lon="-8.6638300">
        <ele>157.7</ele>
        <time>2021-05-20T13:49:58Z</time>
      </trkpt>
      <trkpt lat="42.2613920" lon="-8.6638300">
        <ele>157.7</ele>
        <time>2021-05-20T13:49:59Z</time>
      </trkpt>
      <trkpt lat="42.2613930" lon="-8.6638300">
        <ele>157.7</ele>
        <time>2021-05-20T13:50:00Z</time>
      </trkpt>
      <trkpt lat="42.2613930" lon="-8.6638300">
        <ele>157.7</ele>
        <time>2021-05-20T13:50:01Z</time>
      </trkpt>
      <trkpt lat="42.2613930" lon="-8.6638300">
        <ele>157.7</ele>
        <time>2021-05-20T13:50:02Z</time>
      </trkpt>
      <trkpt lat="42.2613930" lon="-8.6638300">
        <ele>157.7</ele>
        <time>2021-05-20T13:50:03Z</time>
      </trkpt>
      <trkpt lat="42.2613930" lon="-8.6638300">
        <ele>157.7</ele>
        <time>2021-05-20T13:50:04Z</time>
      </trkpt>
      <trkpt lat="42.2613930" lon="-8.6638300">
        <ele>157.7</ele>
        <time>2021-05-20T13:50:05Z</time>
      </trkpt>
      <trkpt lat="42.2613930" lon="-8.6638300">
        <ele>157.7</ele>
        <time>2021-05-20T13:50:06Z</time>
      </trkpt>
      <trkpt lat="42.2613930" lon="-8.6638300">
        <ele>157.7</ele>
        <time>2021-05-20T13:50:07Z</time>
      </trkpt>
      <trkpt lat="42.2613930" lon="-8.6638300">
        <ele>157.7</ele>
        <time>2021-05-20T13:50:08Z</time>
      </trkpt>
      <trkpt lat="42.2613930" lon="-8.6638290">
        <ele>157.7</ele>
        <time>2021-05-20T13:50:09Z</time>
      </trkpt>
      <trkpt lat="42.2613930" lon="-8.6638290">
        <ele>157.7</ele>
        <time>2021-05-20T13:50:10Z</time>
      </trkpt>
      <trkpt lat="42.2613930" lon="-8.6638290">
        <ele>157.7</ele>
        <time>2021-05-20T13:50:11Z</time>
      </trkpt>
      <trkpt lat="42.2613940" lon="-8.6638290">
        <ele>157.7</ele>
        <time>2021-05-20T13:50:12Z</time>
      </trkpt>
      <trkpt lat="42.2613940" lon="-8.6638290">
        <ele>157.7</ele>
        <time>2021-05-20T13:50:13Z</time>
      </trkpt>
      <trkpt lat="42.2613940" lon="-8.6638290">
        <ele>157.7</ele>
        <time>2021-05-20T13:50:14Z</time>
      </trkpt>
      <trkpt lat="42.2613940" lon="-8.6638290">
        <ele>157.7</ele>
        <time>2021-05-20T13:50:15Z</time>
      </trkpt>
      <trkpt lat="42.2613940" lon="-8.6638290">
        <ele>157.7</ele>
        <time>2021-05-20T13:50:16Z</time>
      </trkpt>
      <trkpt lat="42.2613940" lon="-8.6638290">
        <ele>157.7</ele>
        <time>2021-05-20T13:50:17Z</time>
      </trkpt>
      <trkpt lat="42.2613940" lon="-8.6638290">
        <ele>157.7</ele>
        <time>2021-05-20T13:50:18Z</time>
      </trkpt>
      <trkpt lat="42.2613940" lon="-8.6638290">
        <ele>157.7</ele>
        <time>2021-05-20T13:50:19Z</time>
      </trkpt>
      <trkpt lat="42.2613940" lon="-8.6638290">
        <ele>157.7</ele>
        <time>2021-05-20T13:50:20Z</time>
      </trkpt>
      <trkpt lat="42.2613940" lon="-8.6638290">
        <ele>157.7</ele>
        <time>2021-05-20T13:50:21Z</time>
      </trkpt>
      <trkpt lat="42.2613940" lon="-8.6638290">
        <ele>157.7</ele>
        <time>2021-05-20T13:50:22Z</time>
      </trkpt>
      <trkpt lat="42.2613940" lon="-8.6638290">
        <ele>157.7</ele>
        <time>2021-05-20T13:50:23Z</time>
      </trkpt>
      <trkpt lat="42.2613950" lon="-8.6638290">
        <ele>157.7</ele>
        <time>2021-05-20T13:50:24Z</time>
      </trkpt>
      <trkpt lat="42.2613950" lon="-8.6638290">
        <ele>157.7</ele>
        <time>2021-05-20T13:50:25Z</time>
      </trkpt>
      <trkpt lat="42.2613950" lon="-8.6638290">
        <ele>157.7</ele>
        <time>2021-05-20T13:50:26Z</time>
      </trkpt>
      <trkpt lat="42.2613950" lon="-8.6638280">
        <ele>157.7</ele>
        <time>2021-05-20T13:50:27Z</time>
      </trkpt>
      <trkpt lat="42.2613950" lon="-8.6638280">
        <ele>157.7</ele>
        <time>2021-05-20T13:50:28Z</time>
      </trkpt>
      <trkpt lat="42.2613950" lon="-8.6638280">
        <ele>157.7</ele>
        <time>2021-05-20T13:50:29Z</time>
      </trkpt>
      <trkpt lat="42.2613950" lon="-8.6638280">
        <ele>157.7</ele>
        <time>2021-05-20T13:50:30Z</time>
      </trkpt>
      <trkpt lat="42.2613950" lon="-8.6638280">
        <ele>157.7</ele>
        <time>2021-05-20T13:50:31Z</time>
      </trkpt>
      <trkpt lat="42.2613950" lon="-8.6638280">
        <ele>157.7</ele>
        <time>2021-05-20T13:50:32Z</time>
      </trkpt>
      <trkpt lat="42.2613950" lon="-8.6638280">
        <ele>157.7</ele>
        <time>2021-05-20T13:50:33Z</time>
      </trkpt>
      <trkpt lat="42.2613950" lon="-8.6638280">
        <ele>157.7</ele>
        <time>2021-05-20T13:50:34Z</time>
      </trkpt>
      <trkpt lat="42.2613960" lon="-8.6638280">
        <ele>157.7</ele>
        <time>2021-05-20T13:50:35Z</time>
      </trkpt>
      <trkpt lat="42.2613960" lon="-8.6638280">
        <ele>157.7</ele>
        <time>2021-05-20T13:50:36Z</time>
      </trkpt>
      <trkpt lat="42.2613960" lon="-8.6638280">
        <ele>157.7</ele>
        <time>2021-05-20T13:50:37Z</time>
      </trkpt>
      <trkpt lat="42.2613960" lon="-8.6638280">
        <ele>157.7</ele>
        <time>2021-05-20T13:50:38Z</time>
      </trkpt>
      <trkpt lat="42.2613960" lon="-8.6638280">
        <ele>157.7</ele>
        <time>2021-05-20T13:50:39Z</time>
      </trkpt>
      <trkpt lat="42.2613960" lon="-8.6638280">
        <ele>157.7</ele>
        <time>2021-05-20T13:50:40Z</time>
      </trkpt>
      <trkpt lat="42.2613960" lon="-8.6638280">
        <ele>157.7</ele>
        <time>2021-05-20T13:50:41Z</time>
      </trkpt>
      <trkpt lat="42.2613960" lon="-8.6638280">
        <ele>157.7</ele>
        <time>2021-05-20T13:50:42Z</time>
      </trkpt>
      <trkpt lat="42.2613960" lon="-8.6638280">
        <ele>157.7</ele>
        <time>2021-05-20T13:50:43Z</time>
      </trkpt>
      <trkpt lat="42.2613960" lon="-8.6638270">
        <ele>157.7</ele>
        <time>2021-05-20T13:50:44Z</time>
      </trkpt>
      <trkpt lat="42.2613960" lon="-8.6638270">
        <ele>157.7</ele>
        <time>2021-05-20T13:50:45Z</time>
      </trkpt>
      <trkpt lat="42.2613960" lon="-8.6638270">
        <ele>157.7</ele>
        <time>2021-05-20T13:50:46Z</time>
      </trkpt>
      <trkpt lat="42.2613970" lon="-8.6638270">
        <ele>157.7</ele>
        <time>2021-05-20T13:50:47Z</time>
      </trkpt>
      <trkpt lat="42.2613970" lon="-8.6638270">
        <ele>157.7</ele>
        <time>2021-05-20T13:50:48Z</time>
      </trkpt>
      <trkpt lat="42.2613970" lon="-8.6638270">
        <ele>157.7</ele>
        <time>2021-05-20T13:50:49Z</time>
      </trkpt>
      <trkpt lat="42.2613970" lon="-8.6638270">
        <ele>157.7</ele>
        <time>2021-05-20T13:50:50Z</time>
      </trkpt>
      <trkpt lat="42.2613970" lon="-8.6638270">
        <ele>157.7</ele>
        <time>2021-05-20T13:50:51Z</time>
      </trkpt>
      <trkpt lat="42.2613970" lon="-8.6638270">
        <ele>157.7</ele>
        <time>2021-05-20T13:50:52Z</time>
      </trkpt>
      <trkpt lat="42.2613970" lon="-8.6638270">
        <ele>157.7</ele>
        <time>2021-05-20T13:50:53Z</time>
      </trkpt>
      <trkpt lat="42.2613970" lon="-8.6638270">
        <ele>157.7</ele>
        <time>2021-05-20T13:50:54Z</time>
      </trkpt>
      <trkpt lat="42.2613970" lon="-8.6638270">
        <ele>157.7</ele>
        <time>2021-05-20T13:50:55Z</time>
      </trkpt>
      <trkpt lat="42.2613970" lon="-8.6638270">
        <ele>157.7</ele>
        <time>2021-05-20T13:50:56Z</time>
      </trkpt>
      <trkpt lat="42.2613970" lon="-8.6638270">
        <ele>157.7</ele>
        <time>2021-05-20T13:50:57Z</time>
      </trkpt>
      <trkpt lat="42.2613970" lon="-8.6638270">
        <ele>157.7</ele>
        <time>2021-05-20T13:50:58Z</time>
      </trkpt>
      <trkpt lat="42.2613980" lon="-8.6638270">
        <ele>157.7</ele>
        <time>2021-05-20T13:50:59Z</time>
      </trkpt>
      <trkpt lat="42.2613980" lon="-8.6638270">
        <ele>157.7</ele>
        <time>2021-05-20T13:51:00Z</time>
      </trkpt>
      <trkpt lat="42.2613980" lon="-8.6638270">
        <ele>157.7</ele>
        <time>2021-05-20T13:51:01Z</time>
      </trkpt>
      <trkpt lat="42.2613980" lon="-8.6638260">
        <ele>157.7</ele>
        <time>2021-05-20T13:51:02Z</time>
      </trkpt>
      <trkpt lat="42.2613980" lon="-8.6638260">
        <ele>157.7</ele>
        <time>2021-05-20T13:51:03Z</time>
      </trkpt>
      <trkpt lat="42.2613980" lon="-8.6638260">
        <ele>157.7</ele>
        <time>2021-05-20T13:51:04Z</time>
      </trkpt>
      <trkpt lat="42.2613980" lon="-8.6638260">
        <ele>157.7</ele>
        <time>2021-05-20T13:51:05Z</time>
      </trkpt>
      <trkpt lat="42.2613980" lon="-8.6638260">
        <ele>157.7</ele>
        <time>2021-05-20T13:51:06Z</time>
      </trkpt>
      <trkpt lat="42.2613980" lon="-8.6638260">
        <ele>157.7</ele>
        <time>2021-05-20T13:51:08Z</time>
      </trkpt>
      <trkpt lat="42.2613980" lon="-8.6638260">
        <ele>157.7</ele>
        <time>2021-05-20T13:51:09Z</time>
      </trkpt>
      <trkpt lat="42.2613980" lon="-8.6638260">
        <ele>157.7</ele>
        <time>2021-05-20T13:51:10Z</time>
      </trkpt>
      <trkpt lat="42.2613980" lon="-8.6638260">
        <ele>157.7</ele>
        <time>2021-05-20T13:51:11Z</time>
      </trkpt>
      <trkpt lat="42.2613990" lon="-8.6638260">
        <ele>157.7</ele>
        <time>2021-05-20T13:51:12Z</time>
      </trkpt>
      <trkpt lat="42.2613990" lon="-8.6638260">
        <ele>157.7</ele>
        <time>2021-05-20T13:51:13Z</time>
      </trkpt>
      <trkpt lat="42.2613990" lon="-8.6638260">
        <ele>157.7</ele>
        <time>2021-05-20T13:51:14Z</time>
      </trkpt>
      <trkpt lat="42.2613990" lon="-8.6638260">
        <ele>157.7</ele>
        <time>2021-05-20T13:51:15Z</time>
      </trkpt>
      <trkpt lat="42.2613990" lon="-8.6638260">
        <ele>157.7</ele>
        <time>2021-05-20T13:51:16Z</time>
      </trkpt>
      <trkpt lat="42.2613990" lon="-8.6638260">
        <ele>157.7</ele>
        <time>2021-05-20T13:51:17Z</time>
      </trkpt>
      <trkpt lat="42.2613990" lon="-8.6638260">
        <ele>157.7</ele>
        <time>2021-05-20T13:51:18Z</time>
      </trkpt>
      <trkpt lat="42.2613990" lon="-8.6638260">
        <ele>157.7</ele>
        <time>2021-05-20T13:51:19Z</time>
      </trkpt>
      <trkpt lat="42.2613990" lon="-8.6638260">
        <ele>157.7</ele>
        <time>2021-05-20T13:51:20Z</time>
      </trkpt>
      <trkpt lat="42.2613990" lon="-8.6638250">
        <ele>157.7</ele>
        <time>2021-05-20T13:51:21Z</time>
      </trkpt>
      <trkpt lat="42.2613990" lon="-8.6638250">
        <ele>157.7</ele>
        <time>2021-05-20T13:51:22Z</time>
      </trkpt>
      <trkpt lat="42.2614000" lon="-8.6638250">
        <ele>157.7</ele>
        <time>2021-05-20T13:51:23Z</time>
      </trkpt>
      <trkpt lat="42.2614000" lon="-8.6638250">
        <ele>157.7</ele>
        <time>2021-05-20T13:51:24Z</time>
      </trkpt>
      <trkpt lat="42.2614000" lon="-8.6638250">
        <ele>157.7</ele>
        <time>2021-05-20T13:51:25Z</time>
      </trkpt>
      <trkpt lat="42.2614000" lon="-8.6638250">
        <ele>157.7</ele>
        <time>2021-05-20T13:51:26Z</time>
      </trkpt>
      <trkpt lat="42.2614000" lon="-8.6638250">
        <ele>157.7</ele>
        <time>2021-05-20T13:51:27Z</time>
      </trkpt>
      <trkpt lat="42.2614000" lon="-8.6638250">
        <ele>157.7</ele>
        <time>2021-05-20T13:51:28Z</time>
      </trkpt>
      <trkpt lat="42.2614000" lon="-8.6638250">
        <ele>157.7</ele>
        <time>2021-05-20T13:51:29Z</time>
      </trkpt>
      <trkpt lat="42.2614000" lon="-8.6638250">
        <ele>157.7</ele>
        <time>2021-05-20T13:51:30Z</time>
      </trkpt>
      <trkpt lat="42.2614000" lon="-8.6638250">
        <ele>157.7</ele>
        <time>2021-05-20T13:51:31Z</time>
      </trkpt>
      <trkpt lat="42.2614000" lon="-8.6638250">
        <ele>157.7</ele>
        <time>2021-05-20T13:51:32Z</time>
      </trkpt>
      <trkpt lat="42.2614000" lon="-8.6638250">
        <ele>157.7</ele>
        <time>2021-05-20T13:51:33Z</time>
      </trkpt>
      <trkpt lat="42.2614000" lon="-8.6638250">
        <ele>157.7</ele>
        <time>2021-05-20T13:51:34Z</time>
      </trkpt>
      <trkpt lat="42.2614010" lon="-8.6638250">
        <ele>157.7</ele>
        <time>2021-05-20T13:51:35Z</time>
      </trkpt>
      <trkpt lat="42.2614010" lon="-8.6638250">
        <ele>157.7</ele>
        <time>2021-05-20T13:51:36Z</time>
      </trkpt>
      <trkpt lat="42.2614010" lon="-8.6638250">
        <ele>157.7</ele>
        <time>2021-05-20T13:51:37Z</time>
      </trkpt>
      <trkpt lat="42.2614010" lon="-8.6638240">
        <ele>157.7</ele>
        <time>2021-05-20T13:51:38Z</time>
      </trkpt>
      <trkpt lat="42.2614010" lon="-8.6638240">
        <ele>157.7</ele>
        <time>2021-05-20T13:51:39Z</time>
      </trkpt>
      <trkpt lat="42.2614010" lon="-8.6638240">
        <ele>157.7</ele>
        <time>2021-05-20T13:51:40Z</time>
      </trkpt>
      <trkpt lat="42.2614010" lon="-8.6638240">
        <ele>157.7</ele>
        <time>2021-05-20T13:51:41Z</time>
      </trkpt>
      <trkpt lat="42.2614010" lon="-8.6638240">
        <ele>157.7</ele>
        <time>2021-05-20T13:51:42Z</time>
      </trkpt>
      <trkpt lat="42.2614010" lon="-8.6638240">
        <ele>157.7</ele>
        <time>2021-05-20T13:51:43Z</time>
      </trkpt>
      <trkpt lat="42.2614010" lon="-8.6638240">
        <ele>157.7</ele>
        <time>2021-05-20T13:51:44Z</time>
      </trkpt>
      <trkpt lat="42.2614010" lon="-8.6638240">
        <ele>157.7</ele>
        <time>2021-05-20T13:51:45Z</time>
      </trkpt>
      <trkpt lat="42.2614010" lon="-8.6638240">
        <ele>157.7</ele>
        <time>2021-05-20T13:51:46Z</time>
      </trkpt>
      <trkpt lat="42.2614020" lon="-8.6638240">
        <ele>157.7</ele>
        <time>2021-05-20T13:51:47Z</time>
      </trkpt>
      <trkpt lat="42.2614020" lon="-8.6638240">
        <ele>157.7</ele>
        <time>2021-05-20T13:51:48Z</time>
      </trkpt>
      <trkpt lat="42.2614020" lon="-8.6638240">
        <ele>157.7</ele>
        <time>2021-05-20T13:51:49Z</time>
      </trkpt>
      <trkpt lat="42.2614020" lon="-8.6638240">
        <ele>157.7</ele>
        <time>2021-05-20T13:51:50Z</time>
      </trkpt>
      <trkpt lat="42.2614020" lon="-8.6638240">
        <ele>157.7</ele>
        <time>2021-05-20T13:51:51Z</time>
      </trkpt>
      <trkpt lat="42.2614020" lon="-8.6638240">
        <ele>157.7</ele>
        <time>2021-05-20T13:51:52Z</time>
      </trkpt>
      <trkpt lat="42.2614020" lon="-8.6638240">
        <ele>157.7</ele>
        <time>2021-05-20T13:51:53Z</time>
      </trkpt>
      <trkpt lat="42.2614020" lon="-8.6638240">
        <ele>157.7</ele>
        <time>2021-05-20T13:51:54Z</time>
      </trkpt>
      <trkpt lat="42.2614020" lon="-8.6638240">
        <ele>157.7</ele>
        <time>2021-05-20T13:51:55Z</time>
      </trkpt>
      <trkpt lat="42.2614020" lon="-8.6638230">
        <ele>157.7</ele>
        <time>2021-05-20T13:51:56Z</time>
      </trkpt>
      <trkpt lat="42.2614020" lon="-8.6638230">
        <ele>157.7</ele>
        <time>2021-05-20T13:51:57Z</time>
      </trkpt>
      <trkpt lat="42.2614020" lon="-8.6638230">
        <ele>157.7</ele>
        <time>2021-05-20T13:51:58Z</time>
      </trkpt>
      <trkpt lat="42.2614030" lon="-8.6638230">
        <ele>157.7</ele>
        <time>2021-05-20T13:51:59Z</time>
      </trkpt>
      <trkpt lat="42.2614030" lon="-8.6638230">
        <ele>157.7</ele>
        <time>2021-05-20T13:52:00Z</time>
      </trkpt>
      <trkpt lat="42.2614030" lon="-8.6638230">
        <ele>157.7</ele>
        <time>2021-05-20T13:52:01Z</time>
      </trkpt>
      <trkpt lat="42.2614030" lon="-8.6638230">
        <ele>157.7</ele>
        <time>2021-05-20T13:52:02Z</time>
      </trkpt>
      <trkpt lat="42.2614030" lon="-8.6638230">
        <ele>157.7</ele>
        <time>2021-05-20T13:52:03Z</time>
      </trkpt>
      <trkpt lat="42.2614030" lon="-8.6638230">
        <ele>157.7</ele>
        <time>2021-05-20T13:52:04Z</time>
      </trkpt>
      <trkpt lat="42.2614030" lon="-8.6638230">
        <ele>157.7</ele>
        <time>2021-05-20T13:52:05Z</time>
      </trkpt>
      <trkpt lat="42.2614030" lon="-8.6638230">
        <ele>157.7</ele>
        <time>2021-05-20T13:52:06Z</time>
      </trkpt>
      <trkpt lat="42.2614030" lon="-8.6638230">
        <ele>157.7</ele>
        <time>2021-05-20T13:52:07Z</time>
      </trkpt>
      <trkpt lat="42.2614030" lon="-8.6638230">
        <ele>157.7</ele>
        <time>2021-05-20T13:52:08Z</time>
      </trkpt>
      <trkpt lat="42.2614030" lon="-8.6638230">
        <ele>157.7</ele>
        <time>2021-05-20T13:52:09Z</time>
      </trkpt>
      <trkpt lat="42.2614030" lon="-8.6638230">
        <ele>157.7</ele>
        <time>2021-05-20T13:52:10Z</time>
      </trkpt>
      <trkpt lat="42.2614040" lon="-8.6638230">
        <ele>157.7</ele>
        <time>2021-05-20T13:52:11Z</time>
      </trkpt>
      <trkpt lat="42.2614040" lon="-8.6638230">
        <ele>157.7</ele>
        <time>2021-05-20T13:52:12Z</time>
      </trkpt>
      <trkpt lat="42.2614040" lon="-8.6638230">
        <ele>157.7</ele>
        <time>2021-05-20T13:52:13Z</time>
      </trkpt>
      <trkpt lat="42.2614040" lon="-8.6638220">
        <ele>157.7</ele>
        <time>2021-05-20T13:52:14Z</time>
      </trkpt>
      <trkpt lat="42.2614040" lon="-8.6638220">
        <ele>157.7</ele>
        <time>2021-05-20T13:52:15Z</time>
      </trkpt>
      <trkpt lat="42.2614040" lon="-8.6638220">
        <ele>157.7</ele>
        <time>2021-05-20T13:52:16Z</time>
      </trkpt>
      <trkpt lat="42.2614040" lon="-8.6638220">
        <ele>157.7</ele>
        <time>2021-05-20T13:52:17Z</time>
      </trkpt>
      <trkpt lat="42.2614040" lon="-8.6638220">
        <ele>157.7</ele>
        <time>2021-05-20T13:52:18Z</time>
      </trkpt>
      <trkpt lat="42.2614040" lon="-8.6638220">
        <ele>157.7</ele>
        <time>2021-05-20T13:52:19Z</time>
      </trkpt>
      <trkpt lat="42.2614040" lon="-8.6638220">
        <ele>157.7</ele>
        <time>2021-05-20T13:52:20Z</time>
      </trkpt>
      <trkpt lat="42.2614040" lon="-8.6638220">
        <ele>157.7</ele>
        <time>2021-05-20T13:52:21Z</time>
      </trkpt>
      <trkpt lat="42.2614050" lon="-8.6638220">
        <ele>157.7</ele>
        <time>2021-05-20T13:52:22Z</time>
      </trkpt>
      <trkpt lat="42.2614050" lon="-8.6638220">
        <ele>157.7</ele>
        <time>2021-05-20T13:52:23Z</time>
      </trkpt>
      <trkpt lat="42.2614050" lon="-8.6638220">
        <ele>157.7</ele>
        <time>2021-05-20T13:52:24Z</time>
      </trkpt>
      <trkpt lat="42.2614050" lon="-8.6638220">
        <ele>157.7</ele>
        <time>2021-05-20T13:52:25Z</time>
      </trkpt>
      <trkpt lat="42.2614050" lon="-8.6638220">
        <ele>157.7</ele>
        <time>2021-05-20T13:52:26Z</time>
      </trkpt>
      <trkpt lat="42.2614050" lon="-8.6638220">
        <ele>157.7</ele>
        <time>2021-05-20T13:52:27Z</time>
      </trkpt>
      <trkpt lat="42.2614050" lon="-8.6638220">
        <ele>157.7</ele>
        <time>2021-05-20T13:52:28Z</time>
      </trkpt>
      <trkpt lat="42.2614050" lon="-8.6638220">
        <ele>157.7</ele>
        <time>2021-05-20T13:52:29Z</time>
      </trkpt>
      <trkpt lat="42.2614050" lon="-8.6638220">
        <ele>157.7</ele>
        <time>2021-05-20T13:52:30Z</time>
      </trkpt>
      <trkpt lat="42.2614050" lon="-8.6638210">
        <ele>157.7</ele>
        <time>2021-05-20T13:52:31Z</time>
      </trkpt>
      <trkpt lat="42.2614050" lon="-8.6638210">
        <ele>157.7</ele>
        <time>2021-05-20T13:52:32Z</time>
      </trkpt>
      <trkpt lat="42.2614050" lon="-8.6638210">
        <ele>157.7</ele>
        <time>2021-05-20T13:52:33Z</time>
      </trkpt>
      <trkpt lat="42.2614060" lon="-8.6638210">
        <ele>157.7</ele>
        <time>2021-05-20T13:52:34Z</time>
      </trkpt>
      <trkpt lat="42.2614060" lon="-8.6638210">
        <ele>157.7</ele>
        <time>2021-05-20T13:52:35Z</time>
      </trkpt>
      <trkpt lat="42.2614060" lon="-8.6638210">
        <ele>157.7</ele>
        <time>2021-05-20T13:52:36Z</time>
      </trkpt>
      <trkpt lat="42.2614060" lon="-8.6638210">
        <ele>157.7</ele>
        <time>2021-05-20T13:52:37Z</time>
      </trkpt>
      <trkpt lat="42.2614060" lon="-8.6638210">
        <ele>157.7</ele>
        <time>2021-05-20T13:52:38Z</time>
      </trkpt>
      <trkpt lat="42.2614060" lon="-8.6638210">
        <ele>157.7</ele>
        <time>2021-05-20T13:52:39Z</time>
      </trkpt>
      <trkpt lat="42.2614060" lon="-8.6638210">
        <ele>157.7</ele>
        <time>2021-05-20T13:52:40Z</time>
      </trkpt>
      <trkpt lat="42.2614060" lon="-8.6638210">
        <ele>157.7</ele>
        <time>2021-05-20T13:52:41Z</time>
      </trkpt>
      <trkpt lat="42.2614060" lon="-8.6638210">
        <ele>157.7</ele>
        <time>2021-05-20T13:52:42Z</time>
      </trkpt>
      <trkpt lat="42.2614060" lon="-8.6638210">
        <ele>157.7</ele>
        <time>2021-05-20T13:52:43Z</time>
      </trkpt>
      <trkpt lat="42.2614060" lon="-8.6638210">
        <ele>157.7</ele>
        <time>2021-05-20T13:52:44Z</time>
      </trkpt>
      <trkpt lat="42.2614060" lon="-8.6638210">
        <ele>157.7</ele>
        <time>2021-05-20T13:52:45Z</time>
      </trkpt>
      <trkpt lat="42.2614070" lon="-8.6638210">
        <ele>157.7</ele>
        <time>2021-05-20T13:52:46Z</time>
      </trkpt>
      <trkpt lat="42.2614070" lon="-8.6638210">
        <ele>157.7</ele>
        <time>2021-05-20T13:52:47Z</time>
      </trkpt>
      <trkpt lat="42.2614070" lon="-8.6638210">
        <ele>157.7</ele>
        <time>2021-05-20T13:52:48Z</time>
      </trkpt>
      <trkpt lat="42.2614070" lon="-8.6638200">
        <ele>157.7</ele>
        <time>2021-05-20T13:52:49Z</time>
      </trkpt>
      <trkpt lat="42.2614070" lon="-8.6638200">
        <ele>157.7</ele>
        <time>2021-05-20T13:52:50Z</time>
      </trkpt>
      <trkpt lat="42.2614070" lon="-8.6638200">
        <ele>157.7</ele>
        <time>2021-05-20T13:52:51Z</time>
      </trkpt>
      <trkpt lat="42.2614070" lon="-8.6638200">
        <ele>157.7</ele>
        <time>2021-05-20T13:52:52Z</time>
      </trkpt>
      <trkpt lat="42.2614070" lon="-8.6638200">
        <ele>157.7</ele>
        <time>2021-05-20T13:52:53Z</time>
      </trkpt>
      <trkpt lat="42.2614070" lon="-8.6638200">
        <ele>157.7</ele>
        <time>2021-05-20T13:52:54Z</time>
      </trkpt>
      <trkpt lat="42.2614070" lon="-8.6638200">
        <ele>157.7</ele>
        <time>2021-05-20T13:52:55Z</time>
      </trkpt>
      <trkpt lat="42.2614070" lon="-8.6638200">
        <ele>157.7</ele>
        <time>2021-05-20T13:52:56Z</time>
      </trkpt>
      <trkpt lat="42.2614070" lon="-8.6638200">
        <ele>157.7</ele>
        <time>2021-05-20T13:52:57Z</time>
      </trkpt>
      <trkpt lat="42.2614080" lon="-8.6638200">
        <ele>157.7</ele>
        <time>2021-05-20T13:52:58Z</time>
      </trkpt>
      <trkpt lat="42.2614080" lon="-8.6638200">
        <ele>157.7</ele>
        <time>2021-05-20T13:52:59Z</time>
      </trkpt>
      <trkpt lat="42.2614080" lon="-8.6638200">
        <ele>157.7</ele>
        <time>2021-05-20T13:53:00Z</time>
      </trkpt>
      <trkpt lat="42.2614080" lon="-8.6638200">
        <ele>157.7</ele>
        <time>2021-05-20T13:53:01Z</time>
      </trkpt>
      <trkpt lat="42.2614080" lon="-8.6638200">
        <ele>157.7</ele>
        <time>2021-05-20T13:53:02Z</time>
      </trkpt>
      <trkpt lat="42.2614080" lon="-8.6638200">
        <ele>157.7</ele>
        <time>2021-05-20T13:53:03Z</time>
      </trkpt>
      <trkpt lat="42.2614080" lon="-8.6638200">
        <ele>157.7</ele>
        <time>2021-05-20T13:53:04Z</time>
      </trkpt>
      <trkpt lat="42.2614080" lon="-8.6638200">
        <ele>157.7</ele>
        <time>2021-05-20T13:53:05Z</time>
      </trkpt>
      <trkpt lat="42.2614080" lon="-8.6638200">
        <ele>157.7</ele>
        <time>2021-05-20T13:53:06Z</time>
      </trkpt>
      <trkpt lat="42.2614080" lon="-8.6638190">
        <ele>157.7</ele>
        <time>2021-05-20T13:53:07Z</time>
      </trkpt>
      <trkpt lat="42.2614080" lon="-8.6638190">
        <ele>157.7</ele>
        <time>2021-05-20T13:53:08Z</time>
      </trkpt>
      <trkpt lat="42.2614080" lon="-8.6638190">
        <ele>157.7</ele>
        <time>2021-05-20T13:53:09Z</time>
      </trkpt>
      <trkpt lat="42.2614090" lon="-8.6638190">
        <ele>157.7</ele>
        <time>2021-05-20T13:53:10Z</time>
      </trkpt>
      <trkpt lat="42.2614090" lon="-8.6638190">
        <ele>157.7</ele>
        <time>2021-05-20T13:53:11Z</time>
      </trkpt>
      <trkpt lat="42.2614090" lon="-8.6638190">
        <ele>157.7</ele>
        <time>2021-05-20T13:53:12Z</time>
      </trkpt>
      <trkpt lat="42.2614090" lon="-8.6638190">
        <ele>157.7</ele>
        <time>2021-05-20T13:53:13Z</time>
      </trkpt>
      <trkpt lat="42.2614090" lon="-8.6638190">
        <ele>157.7</ele>
        <time>2021-05-20T13:53:14Z</time>
      </trkpt>
      <trkpt lat="42.2614090" lon="-8.6638190">
        <ele>157.7</ele>
        <time>2021-05-20T13:53:15Z</time>
      </trkpt>
      <trkpt lat="42.2614090" lon="-8.6638190">
        <ele>157.7</ele>
        <time>2021-05-20T13:53:16Z</time>
      </trkpt>
      <trkpt lat="42.2614090" lon="-8.6638190">
        <ele>157.7</ele>
        <time>2021-05-20T13:53:17Z</time>
      </trkpt>
      <trkpt lat="42.2614090" lon="-8.6638190">
        <ele>157.7</ele>
        <time>2021-05-20T13:53:18Z</time>
      </trkpt>
      <trkpt lat="42.2614090" lon="-8.6638190">
        <ele>157.7</ele>
        <time>2021-05-20T13:53:19Z</time>
      </trkpt>
      <trkpt lat="42.2614090" lon="-8.6638190">
        <ele>157.7</ele>
        <time>2021-05-20T13:53:20Z</time>
      </trkpt>
      <trkpt lat="42.2614100" lon="-8.6638190">
        <ele>157.7</ele>
        <time>2021-05-20T13:53:21Z</time>
      </trkpt>
      <trkpt lat="42.2614100" lon="-8.6638190">
        <ele>157.7</ele>
        <time>2021-05-20T13:53:22Z</time>
      </trkpt>
      <trkpt lat="42.2614100" lon="-8.6638190">
        <ele>157.7</ele>
        <time>2021-05-20T13:53:23Z</time>
      </trkpt>
      <trkpt lat="42.2614100" lon="-8.6638180">
        <ele>157.7</ele>
        <time>2021-05-20T13:53:24Z</time>
      </trkpt>
      <trkpt lat="42.2614100" lon="-8.6638180">
        <ele>157.7</ele>
        <time>2021-05-20T13:53:25Z</time>
      </trkpt>
      <trkpt lat="42.2614100" lon="-8.6638180">
        <ele>157.7</ele>
        <time>2021-05-20T13:53:26Z</time>
      </trkpt>
      <trkpt lat="42.2614100" lon="-8.6638180">
        <ele>157.7</ele>
        <time>2021-05-20T13:53:27Z</time>
      </trkpt>
      <trkpt lat="42.2614100" lon="-8.6638180">
        <ele>157.7</ele>
        <time>2021-05-20T13:53:29Z</time>
      </trkpt>
      <trkpt lat="42.2614100" lon="-8.6638180">
        <ele>157.7</ele>
        <time>2021-05-20T13:53:30Z</time>
      </trkpt>
      <trkpt lat="42.2614100" lon="-8.6638180">
        <ele>157.7</ele>
        <time>2021-05-20T13:53:31Z</time>
      </trkpt>
      <trkpt lat="42.2614100" lon="-8.6638180">
        <ele>157.7</ele>
        <time>2021-05-20T13:53:32Z</time>
      </trkpt>
      <trkpt lat="42.2614100" lon="-8.6638180">
        <ele>157.7</ele>
        <time>2021-05-20T13:53:33Z</time>
      </trkpt>
      <trkpt lat="42.2614110" lon="-8.6638180">
        <ele>157.7</ele>
        <time>2021-05-20T13:53:34Z</time>
      </trkpt>
      <trkpt lat="42.2614110" lon="-8.6638180">
        <ele>157.7</ele>
        <time>2021-05-20T13:53:35Z</time>
      </trkpt>
      <trkpt lat="42.2614110" lon="-8.6638180">
        <ele>157.7</ele>
        <time>2021-05-20T13:53:36Z</time>
      </trkpt>
      <trkpt lat="42.2614110" lon="-8.6638180">
        <ele>157.7</ele>
        <time>2021-05-20T13:53:37Z</time>
      </trkpt>
      <trkpt lat="42.2614110" lon="-8.6638180">
        <ele>157.7</ele>
        <time>2021-05-20T13:53:38Z</time>
      </trkpt>
      <trkpt lat="42.2614110" lon="-8.6638180">
        <ele>157.7</ele>
        <time>2021-05-20T13:53:39Z</time>
      </trkpt>
      <trkpt lat="42.2614110" lon="-8.6638180">
        <ele>157.7</ele>
        <time>2021-05-20T13:53:40Z</time>
      </trkpt>
      <trkpt lat="42.2614110" lon="-8.6638180">
        <ele>157.7</ele>
        <time>2021-05-20T13:53:41Z</time>
      </trkpt>
      <trkpt lat="42.2614110" lon="-8.6638180">
        <ele>157.7</ele>
        <time>2021-05-20T13:53:42Z</time>
      </trkpt>
      <trkpt lat="42.2614110" lon="-8.6638170">
        <ele>157.7</ele>
        <time>2021-05-20T13:53:43Z</time>
      </trkpt>
      <trkpt lat="42.2614110" lon="-8.6638170">
        <ele>157.7</ele>
        <time>2021-05-20T13:53:44Z</time>
      </trkpt>
      <trkpt lat="42.2614110" lon="-8.6638170">
        <ele>157.7</ele>
        <time>2021-05-20T13:53:45Z</time>
      </trkpt>
      <trkpt lat="42.2614120" lon="-8.6638170">
        <ele>157.7</ele>
        <time>2021-05-20T13:53:46Z</time>
      </trkpt>
      <trkpt lat="42.2614120" lon="-8.6638170">
        <ele>157.7</ele>
        <time>2021-05-20T13:53:47Z</time>
      </trkpt>
      <trkpt lat="42.2614120" lon="-8.6638170">
        <ele>157.7</ele>
        <time>2021-05-20T13:53:48Z</time>
      </trkpt>
      <trkpt lat="42.2614120" lon="-8.6638170">
        <ele>157.7</ele>
        <time>2021-05-20T13:53:49Z</time>
      </trkpt>
      <trkpt lat="42.2614120" lon="-8.6638170">
        <ele>157.7</ele>
        <time>2021-05-20T13:53:50Z</time>
      </trkpt>
      <trkpt lat="42.2614120" lon="-8.6638170">
        <ele>157.7</ele>
        <time>2021-05-20T13:53:51Z</time>
      </trkpt>
      <trkpt lat="42.2614120" lon="-8.6638170">
        <ele>157.7</ele>
        <time>2021-05-20T13:53:52Z</time>
      </trkpt>
      <trkpt lat="42.2614120" lon="-8.6638170">
        <ele>157.7</ele>
        <time>2021-05-20T13:53:53Z</time>
      </trkpt>
      <trkpt lat="42.2614120" lon="-8.6638170">
        <ele>157.7</ele>
        <time>2021-05-20T13:53:54Z</time>
      </trkpt>
      <trkpt lat="42.2614120" lon="-8.6638170">
        <ele>157.7</ele>
        <time>2021-05-20T13:53:55Z</time>
      </trkpt>
      <trkpt lat="42.2614120" lon="-8.6638170">
        <ele>157.7</ele>
        <time>2021-05-20T13:53:56Z</time>
      </trkpt>
      <trkpt lat="42.2614120" lon="-8.6638170">
        <ele>157.7</ele>
        <time>2021-05-20T13:53:57Z</time>
      </trkpt>
      <trkpt lat="42.2614130" lon="-8.6638170">
        <ele>157.7</ele>
        <time>2021-05-20T13:53:58Z</time>
      </trkpt>
      <trkpt lat="42.2614130" lon="-8.6638170">
        <ele>157.7</ele>
        <time>2021-05-20T13:53:59Z</time>
      </trkpt>
      <trkpt lat="42.2614130" lon="-8.6638170">
        <ele>157.7</ele>
        <time>2021-05-20T13:54:00Z</time>
      </trkpt>
      <trkpt lat="42.2614130" lon="-8.6638160">
        <ele>157.7</ele>
        <time>2021-05-20T13:54:01Z</time>
      </trkpt>
      <trkpt lat="42.2614130" lon="-8.6638160">
        <ele>157.7</ele>
        <time>2021-05-20T13:54:02Z</time>
      </trkpt>
      <trkpt lat="42.2614130" lon="-8.6638160">
        <ele>157.7</ele>
        <time>2021-05-20T13:54:03Z</time>
      </trkpt>
      <trkpt lat="42.2614130" lon="-8.6638160">
        <ele>157.7</ele>
        <time>2021-05-20T13:54:04Z</time>
      </trkpt>
      <trkpt lat="42.2614130" lon="-8.6638160">
        <ele>157.7</ele>
        <time>2021-05-20T13:54:05Z</time>
      </trkpt>
      <trkpt lat="42.2614130" lon="-8.6638160">
        <ele>157.7</ele>
        <time>2021-05-20T13:54:06Z</time>
      </trkpt>
      <trkpt lat="42.2614130" lon="-8.6638160">
        <ele>157.7</ele>
        <time>2021-05-20T13:54:07Z</time>
      </trkpt>
      <trkpt lat="42.2614130" lon="-8.6638160">
        <ele>157.7</ele>
        <time>2021-05-20T13:54:08Z</time>
      </trkpt>
      <trkpt lat="42.2614140" lon="-8.6638160">
        <ele>157.7</ele>
        <time>2021-05-20T13:54:09Z</time>
      </trkpt>
      <trkpt lat="42.2614140" lon="-8.6638160">
        <ele>157.7</ele>
        <time>2021-05-20T13:54:10Z</time>
      </trkpt>
      <trkpt lat="42.2614140" lon="-8.6638160">
        <ele>157.7</ele>
        <time>2021-05-20T13:54:11Z</time>
      </trkpt>
      <trkpt lat="42.2614140" lon="-8.6638160">
        <ele>157.7</ele>
        <time>2021-05-20T13:54:12Z</time>
      </trkpt>
      <trkpt lat="42.2614140" lon="-8.6638160">
        <ele>157.7</ele>
        <time>2021-05-20T13:54:13Z</time>
      </trkpt>
      <trkpt lat="42.2614140" lon="-8.6638160">
        <ele>157.7</ele>
        <time>2021-05-20T13:54:14Z</time>
      </trkpt>
      <trkpt lat="42.2614140" lon="-8.6638160">
        <ele>157.7</ele>
        <time>2021-05-20T13:54:15Z</time>
      </trkpt>
      <trkpt lat="42.2614140" lon="-8.6638160">
        <ele>157.7</ele>
        <time>2021-05-20T13:54:16Z</time>
      </trkpt>
      <trkpt lat="42.2614140" lon="-8.6638160">
        <ele>157.7</ele>
        <time>2021-05-20T13:54:17Z</time>
      </trkpt>
      <trkpt lat="42.2614140" lon="-8.6638150">
        <ele>157.7</ele>
        <time>2021-05-20T13:54:18Z</time>
      </trkpt>
      <trkpt lat="42.2614140" lon="-8.6638150">
        <ele>157.7</ele>
        <time>2021-05-20T13:54:19Z</time>
      </trkpt>
      <trkpt lat="42.2614140" lon="-8.6638150">
        <ele>157.7</ele>
        <time>2021-05-20T13:54:20Z</time>
      </trkpt>
      <trkpt lat="42.2614150" lon="-8.6638150">
        <ele>157.7</ele>
        <time>2021-05-20T13:54:21Z</time>
      </trkpt>
      <trkpt lat="42.2614150" lon="-8.6638150">
        <ele>157.7</ele>
        <time>2021-05-20T13:54:22Z</time>
      </trkpt>
      <trkpt lat="42.2614150" lon="-8.6638150">
        <ele>157.7</ele>
        <time>2021-05-20T13:54:23Z</time>
      </trkpt>
      <trkpt lat="42.2614150" lon="-8.6638150">
        <ele>157.7</ele>
        <time>2021-05-20T13:54:24Z</time>
      </trkpt>
      <trkpt lat="42.2614150" lon="-8.6638150">
        <ele>157.7</ele>
        <time>2021-05-20T13:54:25Z</time>
      </trkpt>
      <trkpt lat="42.2614150" lon="-8.6638150">
        <ele>157.7</ele>
        <time>2021-05-20T13:54:26Z</time>
      </trkpt>
      <trkpt lat="42.2614150" lon="-8.6638150">
        <ele>157.7</ele>
        <time>2021-05-20T13:54:27Z</time>
      </trkpt>
      <trkpt lat="42.2614150" lon="-8.6638150">
        <ele>157.7</ele>
        <time>2021-05-20T13:54:28Z</time>
      </trkpt>
      <trkpt lat="42.2614150" lon="-8.6638150">
        <ele>157.7</ele>
        <time>2021-05-20T13:54:29Z</time>
      </trkpt>
      <trkpt lat="42.2614150" lon="-8.6638150">
        <ele>157.7</ele>
        <time>2021-05-20T13:54:30Z</time>
      </trkpt>
      <trkpt lat="42.2614150" lon="-8.6638150">
        <ele>157.7</ele>
        <time>2021-05-20T13:54:31Z</time>
      </trkpt>
      <trkpt lat="42.2614150" lon="-8.6638150">
        <ele>157.7</ele>
        <time>2021-05-20T13:54:32Z</time>
      </trkpt>
      <trkpt lat="42.2614160" lon="-8.6638150">
        <ele>157.7</ele>
        <time>2021-05-20T13:54:33Z</time>
      </trkpt>
      <trkpt lat="42.2614160" lon="-8.6638150">
        <ele>157.7</ele>
        <time>2021-05-20T13:54:34Z</time>
      </trkpt>
      <trkpt lat="42.2614160" lon="-8.6638150">
        <ele>157.7</ele>
        <time>2021-05-20T13:54:35Z</time>
      </trkpt>
      <trkpt lat="42.2614160" lon="-8.6638140">
        <ele>157.7</ele>
        <time>2021-05-20T13:54:36Z</time>
      </trkpt>
      <trkpt lat="42.2614160" lon="-8.6638140">
        <ele>157.7</ele>
        <time>2021-05-20T13:54:37Z</time>
      </trkpt>
      <trkpt lat="42.2614160" lon="-8.6638140">
        <ele>157.7</ele>
        <time>2021-05-20T13:54:38Z</time>
      </trkpt>
      <trkpt lat="42.2614160" lon="-8.6638140">
        <ele>157.7</ele>
        <time>2021-05-20T13:54:39Z</time>
      </trkpt>
      <trkpt lat="42.2614160" lon="-8.6638140">
        <ele>157.7</ele>
        <time>2021-05-20T13:54:40Z</time>
      </trkpt>
      <trkpt lat="42.2614160" lon="-8.6638140">
        <ele>157.7</ele>
        <time>2021-05-20T13:54:41Z</time>
      </trkpt>
      <trkpt lat="42.2614160" lon="-8.6638140">
        <ele>157.7</ele>
        <time>2021-05-20T13:54:42Z</time>
      </trkpt>
      <trkpt lat="42.2614160" lon="-8.6638140">
        <ele>157.7</ele>
        <time>2021-05-20T13:54:43Z</time>
      </trkpt>
      <trkpt lat="42.2614160" lon="-8.6638140">
        <ele>157.7</ele>
        <time>2021-05-20T13:54:44Z</time>
      </trkpt>
      <trkpt lat="42.2614170" lon="-8.6638140">
        <ele>157.7</ele>
        <time>2021-05-20T13:54:45Z</time>
      </trkpt>
      <trkpt lat="42.2614170" lon="-8.6638140">
        <ele>157.7</ele>
        <time>2021-05-20T13:54:46Z</time>
      </trkpt>
      <trkpt lat="42.2614170" lon="-8.6638140">
        <ele>157.7</ele>
        <time>2021-05-20T13:54:47Z</time>
      </trkpt>
      <trkpt lat="42.2614170" lon="-8.6638140">
        <ele>157.7</ele>
        <time>2021-05-20T13:54:48Z</time>
      </trkpt>
      <trkpt lat="42.2614170" lon="-8.6638140">
        <ele>157.7</ele>
        <time>2021-05-20T13:54:49Z</time>
      </trkpt>
      <trkpt lat="42.2614170" lon="-8.6638140">
        <ele>157.7</ele>
        <time>2021-05-20T13:54:50Z</time>
      </trkpt>
      <trkpt lat="42.2614170" lon="-8.6638140">
        <ele>157.7</ele>
        <time>2021-05-20T13:54:51Z</time>
      </trkpt>
      <trkpt lat="42.2614170" lon="-8.6638140">
        <ele>157.7</ele>
        <time>2021-05-20T13:54:52Z</time>
      </trkpt>
      <trkpt lat="42.2614170" lon="-8.6638140">
        <ele>157.7</ele>
        <time>2021-05-20T13:54:53Z</time>
      </trkpt>
      <trkpt lat="42.2614170" lon="-8.6638130">
        <ele>157.7</ele>
        <time>2021-05-20T13:54:54Z</time>
      </trkpt>
      <trkpt lat="42.2614170" lon="-8.6638130">
        <ele>157.7</ele>
        <time>2021-05-20T13:54:55Z</time>
      </trkpt>
      <trkpt lat="42.2614170" lon="-8.6638130">
        <ele>157.7</ele>
        <time>2021-05-20T13:54:56Z</time>
      </trkpt>
      <trkpt lat="42.2614180" lon="-8.6638130">
        <ele>157.7</ele>
        <time>2021-05-20T13:54:57Z</time>
      </trkpt>
      <trkpt lat="42.2614180" lon="-8.6638130">
        <ele>157.7</ele>
        <time>2021-05-20T13:54:58Z</time>
      </trkpt>
      <trkpt lat="42.2614180" lon="-8.6638130">
        <ele>157.7</ele>
        <time>2021-05-20T13:54:59Z</time>
      </trkpt>
      <trkpt lat="42.2614180" lon="-8.6638130">
        <ele>157.7</ele>
        <time>2021-05-20T13:55:00Z</time>
      </trkpt>
      <trkpt lat="42.2614180" lon="-8.6638130">
        <ele>157.7</ele>
        <time>2021-05-20T13:55:01Z</time>
      </trkpt>
      <trkpt lat="42.2614180" lon="-8.6638130">
        <ele>157.7</ele>
        <time>2021-05-20T13:55:02Z</time>
      </trkpt>
      <trkpt lat="42.2614080" lon="-8.6638160">
        <ele>157.7</ele>
        <time>2021-05-20T13:55:03Z</time>
      </trkpt>
      <trkpt lat="42.2614080" lon="-8.6638150">
        <ele>157.7</ele>
        <time>2021-05-20T13:55:04Z</time>
      </trkpt>
      <trkpt lat="42.2614040" lon="-8.6638110">
        <ele>157.7</ele>
        <time>2021-05-20T13:55:05Z</time>
      </trkpt>
      <trkpt lat="42.2614040" lon="-8.6638100">
        <ele>157.7</ele>
        <time>2021-05-20T13:55:06Z</time>
      </trkpt>
      <trkpt lat="42.2614040" lon="-8.6638100">
        <ele>157.7</ele>
        <time>2021-05-20T13:55:07Z</time>
      </trkpt>
      <trkpt lat="42.2614040" lon="-8.6638100">
        <ele>157.7</ele>
        <time>2021-05-20T13:55:08Z</time>
      </trkpt>
      <trkpt lat="42.2614040" lon="-8.6638100">
        <ele>157.7</ele>
        <time>2021-05-20T13:55:09Z</time>
      </trkpt>
      <trkpt lat="42.2614390" lon="-8.6638050">
        <ele>157.6</ele>
        <time>2021-05-20T13:55:10Z</time>
      </trkpt>
      <trkpt lat="42.2614390" lon="-8.6638050">
        <ele>157.6</ele>
        <time>2021-05-20T13:55:11Z</time>
      </trkpt>
      <trkpt lat="42.2614390" lon="-8.6638050">
        <ele>157.6</ele>
        <time>2021-05-20T13:55:12Z</time>
      </trkpt>
      <trkpt lat="42.2614390" lon="-8.6638050">
        <ele>157.6</ele>
        <time>2021-05-20T13:55:13Z</time>
      </trkpt>
      <trkpt lat="42.2614390" lon="-8.6638050">
        <ele>157.6</ele>
        <time>2021-05-20T13:55:14Z</time>
      </trkpt>
      <trkpt lat="42.2614390" lon="-8.6638050">
        <ele>157.6</ele>
        <time>2021-05-20T13:55:15Z</time>
      </trkpt>
      <trkpt lat="42.2614390" lon="-8.6638050">
        <ele>157.6</ele>
        <time>2021-05-20T13:55:16Z</time>
      </trkpt>
      <trkpt lat="42.2614390" lon="-8.6638050">
        <ele>157.6</ele>
        <time>2021-05-20T13:55:17Z</time>
      </trkpt>
      <trkpt lat="42.2614390" lon="-8.6638050">
        <ele>157.6</ele>
        <time>2021-05-20T13:55:18Z</time>
      </trkpt>
      <trkpt lat="42.2614390" lon="-8.6638050">
        <ele>157.6</ele>
        <time>2021-05-20T13:55:19Z</time>
      </trkpt>
      <trkpt lat="42.2614390" lon="-8.6638050">
        <ele>157.6</ele>
        <time>2021-05-20T13:55:20Z</time>
      </trkpt>
      <trkpt lat="42.2614390" lon="-8.6638050">
        <ele>157.6</ele>
        <time>2021-05-20T13:55:21Z</time>
      </trkpt>
      <trkpt lat="42.2614440" lon="-8.6638050">
        <ele>157.6</ele>
        <time>2021-05-20T13:55:22Z</time>
      </trkpt>
      <trkpt lat="42.2614470" lon="-8.6638070">
        <ele>157.6</ele>
        <time>2021-05-20T13:55:23Z</time>
      </trkpt>
      <trkpt lat="42.2614460" lon="-8.6638070">
        <ele>157.6</ele>
        <time>2021-05-20T13:55:24Z</time>
      </trkpt>
      <trkpt lat="42.2614460" lon="-8.6638070">
        <ele>157.6</ele>
        <time>2021-05-20T13:55:25Z</time>
      </trkpt>
      <trkpt lat="42.2614400" lon="-8.6638020">
        <ele>157.6</ele>
        <time>2021-05-20T13:55:26Z</time>
      </trkpt>
      <trkpt lat="42.2614400" lon="-8.6638020">
        <ele>157.6</ele>
        <time>2021-05-20T13:55:27Z</time>
      </trkpt>
      <trkpt lat="42.2614400" lon="-8.6638020">
        <ele>157.6</ele>
        <time>2021-05-20T13:55:28Z</time>
      </trkpt>
      <trkpt lat="42.2614400" lon="-8.6638020">
        <ele>157.6</ele>
        <time>2021-05-20T13:55:29Z</time>
      </trkpt>
      <trkpt lat="42.2614400" lon="-8.6638020">
        <ele>157.6</ele>
        <time>2021-05-20T13:55:30Z</time>
      </trkpt>
      <trkpt lat="42.2614380" lon="-8.6638030">
        <ele>157.6</ele>
        <time>2021-05-20T13:55:31Z</time>
      </trkpt>
      <trkpt lat="42.2614420" lon="-8.6638030">
        <ele>157.6</ele>
        <time>2021-05-20T13:55:32Z</time>
      </trkpt>
      <trkpt lat="42.2614420" lon="-8.6638030">
        <ele>157.6</ele>
        <time>2021-05-20T13:55:33Z</time>
      </trkpt>
      <trkpt lat="42.2614420" lon="-8.6638030">
        <ele>157.6</ele>
        <time>2021-05-20T13:55:34Z</time>
      </trkpt>
      <trkpt lat="42.2614420" lon="-8.6638030">
        <ele>157.6</ele>
        <time>2021-05-20T13:55:35Z</time>
      </trkpt>
      <trkpt lat="42.2614420" lon="-8.6638030">
        <ele>157.6</ele>
        <time>2021-05-20T13:55:36Z</time>
      </trkpt>
      <trkpt lat="42.2614420" lon="-8.6638030">
        <ele>157.6</ele>
        <time>2021-05-20T13:55:37Z</time>
      </trkpt>
      <trkpt lat="42.2614220" lon="-8.6638170">
        <ele>157.6</ele>
        <time>2021-05-20T13:55:38Z</time>
      </trkpt>
      <trkpt lat="42.2614220" lon="-8.6638170">
        <ele>157.6</ele>
        <time>2021-05-20T13:55:39Z</time>
      </trkpt>
      <trkpt lat="42.2614210" lon="-8.6638210">
        <ele>157.6</ele>
        <time>2021-05-20T13:55:40Z</time>
      </trkpt>
      <trkpt lat="42.2614260" lon="-8.6638190">
        <ele>157.6</ele>
        <time>2021-05-20T13:55:41Z</time>
      </trkpt>
      <trkpt lat="42.2614240" lon="-8.6638190">
        <ele>157.6</ele>
        <time>2021-05-20T13:55:42Z</time>
      </trkpt>
      <trkpt lat="42.2614230" lon="-8.6638190">
        <ele>157.6</ele>
        <time>2021-05-20T13:55:43Z</time>
      </trkpt>
      <trkpt lat="42.2614130" lon="-8.6638130">
        <ele>157.6</ele>
        <time>2021-05-20T13:55:44Z</time>
      </trkpt>
      <trkpt lat="42.2614040" lon="-8.6638130">
        <ele>157.6</ele>
        <time>2021-05-20T13:55:45Z</time>
      </trkpt>
      <trkpt lat="42.2614020" lon="-8.6638130">
        <ele>157.6</ele>
        <time>2021-05-20T13:55:46Z</time>
      </trkpt>
      <trkpt lat="42.2613990" lon="-8.6638140">
        <ele>157.6</ele>
        <time>2021-05-20T13:55:47Z</time>
      </trkpt>
      <trkpt lat="42.2613970" lon="-8.6638150">
        <ele>157.6</ele>
        <time>2021-05-20T13:55:48Z</time>
      </trkpt>
      <trkpt lat="42.2613950" lon="-8.6638150">
        <ele>157.6</ele>
        <time>2021-05-20T13:55:49Z</time>
      </trkpt>
      <trkpt lat="42.2613930" lon="-8.6638160">
        <ele>157.6</ele>
        <time>2021-05-20T13:55:50Z</time>
      </trkpt>
      <trkpt lat="42.2613910" lon="-8.6638160">
        <ele>157.6</ele>
        <time>2021-05-20T13:55:51Z</time>
      </trkpt>
      <trkpt lat="42.2613880" lon="-8.6638170">
        <ele>157.6</ele>
        <time>2021-05-20T13:55:52Z</time>
      </trkpt>
      <trkpt lat="42.2613860" lon="-8.6638180">
        <ele>157.6</ele>
        <time>2021-05-20T13:55:53Z</time>
      </trkpt>
      <trkpt lat="42.2613840" lon="-8.6638180">
        <ele>157.6</ele>
        <time>2021-05-20T13:55:54Z</time>
      </trkpt>
      <trkpt lat="42.2613820" lon="-8.6638190">
        <ele>157.6</ele>
        <time>2021-05-20T13:55:55Z</time>
      </trkpt>
      <trkpt lat="42.2613790" lon="-8.6638200">
        <ele>157.6</ele>
        <time>2021-05-20T13:55:56Z</time>
      </trkpt>
      <trkpt lat="42.2613770" lon="-8.6638200">
        <ele>157.6</ele>
        <time>2021-05-20T13:55:57Z</time>
      </trkpt>
      <trkpt lat="42.2613750" lon="-8.6638210">
        <ele>157.6</ele>
        <time>2021-05-20T13:55:58Z</time>
      </trkpt>
      <trkpt lat="42.2613730" lon="-8.6638210">
        <ele>157.6</ele>
        <time>2021-05-20T13:55:59Z</time>
      </trkpt>
      <trkpt lat="42.2613710" lon="-8.6638220">
        <ele>157.6</ele>
        <time>2021-05-20T13:56:00Z</time>
      </trkpt>
      <trkpt lat="42.2613680" lon="-8.6638230">
        <ele>157.6</ele>
        <time>2021-05-20T13:56:01Z</time>
      </trkpt>
      <trkpt lat="42.2613660" lon="-8.6638230">
        <ele>157.6</ele>
        <time>2021-05-20T13:56:03Z</time>
      </trkpt>
      <trkpt lat="42.2613640" lon="-8.6638240">
        <ele>157.6</ele>
        <time>2021-05-20T13:56:04Z</time>
      </trkpt>
      <trkpt lat="42.2613640" lon="-8.6638240">
        <ele>157.6</ele>
        <time>2021-05-20T13:56:05Z</time>
      </trkpt>
      <trkpt lat="42.2613640" lon="-8.6638240">
        <ele>157.6</ele>
        <time>2021-05-20T13:56:06Z</time>
      </trkpt>
      <trkpt lat="42.2613640" lon="-8.6638240">
        <ele>157.6</ele>
        <time>2021-05-20T13:56:07Z</time>
      </trkpt>
      <trkpt lat="42.2613560" lon="-8.6638230">
        <ele>157.6</ele>
        <time>2021-05-20T13:56:08Z</time>
      </trkpt>
      <trkpt lat="42.2613480" lon="-8.6638200">
        <ele>157.6</ele>
        <time>2021-05-20T13:56:09Z</time>
      </trkpt>
      <trkpt lat="42.2613470" lon="-8.6638160">
        <ele>157.6</ele>
        <time>2021-05-20T13:56:10Z</time>
      </trkpt>
      <trkpt lat="42.2613490" lon="-8.6638220">
        <ele>157.6</ele>
        <time>2021-05-20T13:56:11Z</time>
      </trkpt>
      <trkpt lat="42.2613480" lon="-8.6638270">
        <ele>157.6</ele>
        <time>2021-05-20T13:56:12Z</time>
      </trkpt>
      <trkpt lat="42.2613480" lon="-8.6638270">
        <ele>157.6</ele>
        <time>2021-05-20T13:56:13Z</time>
      </trkpt>
      <trkpt lat="42.2613480" lon="-8.6638270">
        <ele>157.6</ele>
        <time>2021-05-20T13:56:14Z</time>
      </trkpt>
      <trkpt lat="42.2613480" lon="-8.6638270">
        <ele>157.6</ele>
        <time>2021-05-20T13:56:15Z</time>
      </trkpt>
      <trkpt lat="42.2613480" lon="-8.6638270">
        <ele>157.6</ele>
        <time>2021-05-20T13:56:16Z</time>
      </trkpt>
      <trkpt lat="42.2613480" lon="-8.6638270">
        <ele>157.6</ele>
        <time>2021-05-20T13:56:17Z</time>
      </trkpt>
      <trkpt lat="42.2613480" lon="-8.6638270">
        <ele>157.6</ele>
        <time>2021-05-20T13:56:18Z</time>
      </trkpt>
      <trkpt lat="42.2613690" lon="-8.6638370">
        <ele>157.6</ele>
        <time>2021-05-20T13:56:19Z</time>
      </trkpt>
      <trkpt lat="42.2613690" lon="-8.6638370">
        <ele>157.6</ele>
        <time>2021-05-20T13:56:20Z</time>
      </trkpt>
      <trkpt lat="42.2613690" lon="-8.6638370">
        <ele>157.6</ele>
        <time>2021-05-20T13:56:21Z</time>
      </trkpt>
      <trkpt lat="42.2613690" lon="-8.6638370">
        <ele>157.6</ele>
        <time>2021-05-20T13:56:22Z</time>
      </trkpt>
      <trkpt lat="42.2613690" lon="-8.6638370">
        <ele>157.6</ele>
        <time>2021-05-20T13:56:23Z</time>
      </trkpt>
      <trkpt lat="42.2613640" lon="-8.6638270">
        <ele>157.6</ele>
        <time>2021-05-20T13:56:24Z</time>
      </trkpt>
      <trkpt lat="42.2613610" lon="-8.6638230">
        <ele>157.5</ele>
        <time>2021-05-20T13:56:25Z</time>
      </trkpt>
      <trkpt lat="42.2613610" lon="-8.6638200">
        <ele>157.5</ele>
        <time>2021-05-20T13:56:26Z</time>
      </trkpt>
      <trkpt lat="42.2613700" lon="-8.6638230">
        <ele>157.5</ele>
        <time>2021-05-20T13:56:27Z</time>
      </trkpt>
      <trkpt lat="42.2613740" lon="-8.6638260">
        <ele>157.5</ele>
        <time>2021-05-20T13:56:28Z</time>
      </trkpt>
      <trkpt lat="42.2613820" lon="-8.6638200">
        <ele>157.5</ele>
        <time>2021-05-20T13:56:29Z</time>
      </trkpt>
      <trkpt lat="42.2613820" lon="-8.6638150">
        <ele>157.5</ele>
        <time>2021-05-20T13:56:30Z</time>
      </trkpt>
      <trkpt lat="42.2613880" lon="-8.6638100">
        <ele>157.5</ele>
        <time>2021-05-20T13:56:31Z</time>
      </trkpt>
      <trkpt lat="42.2613970" lon="-8.6638090">
        <ele>157.5</ele>
        <time>2021-05-20T13:56:32Z</time>
      </trkpt>
      <trkpt lat="42.2614080" lon="-8.6638080">
        <ele>157.5</ele>
        <time>2021-05-20T13:56:33Z</time>
      </trkpt>
      <trkpt lat="42.2614110" lon="-8.6638110">
        <ele>157.5</ele>
        <time>2021-05-20T13:56:34Z</time>
      </trkpt>
      <trkpt lat="42.2614140" lon="-8.6638150">
        <ele>157.5</ele>
        <time>2021-05-20T13:56:35Z</time>
      </trkpt>
      <trkpt lat="42.2614170" lon="-8.6638190">
        <ele>157.5</ele>
        <time>2021-05-20T13:56:36Z</time>
      </trkpt>
      <trkpt lat="42.2614190" lon="-8.6638220">
        <ele>157.5</ele>
        <time>2021-05-20T13:56:37Z</time>
      </trkpt>
      <trkpt lat="42.2614220" lon="-8.6638260">
        <ele>157.5</ele>
        <time>2021-05-20T13:56:38Z</time>
      </trkpt>
      <trkpt lat="42.2614250" lon="-8.6638300">
        <ele>157.5</ele>
        <time>2021-05-20T13:56:39Z</time>
      </trkpt>
      <trkpt lat="42.2614280" lon="-8.6638330">
        <ele>157.5</ele>
        <time>2021-05-20T13:56:40Z</time>
      </trkpt>
      <trkpt lat="42.2614310" lon="-8.6638370">
        <ele>157.5</ele>
        <time>2021-05-20T13:56:41Z</time>
      </trkpt>
      <trkpt lat="42.2614260" lon="-8.6638350">
        <ele>157.5</ele>
        <time>2021-05-20T13:56:42Z</time>
      </trkpt>
      <trkpt lat="42.2614230" lon="-8.6638390">
        <ele>157.5</ele>
        <time>2021-05-20T13:56:43Z</time>
      </trkpt>
      <trkpt lat="42.2614230" lon="-8.6638390">
        <ele>157.5</ele>
        <time>2021-05-20T13:56:44Z</time>
      </trkpt>
      <trkpt lat="42.2614230" lon="-8.6638390">
        <ele>157.5</ele>
        <time>2021-05-20T13:56:45Z</time>
      </trkpt>
      <trkpt lat="42.2614230" lon="-8.6638390">
        <ele>157.5</ele>
        <time>2021-05-20T13:56:46Z</time>
      </trkpt>
      <trkpt lat="42.2614030" lon="-8.6638590">
        <ele>157.5</ele>
        <time>2021-05-20T13:56:47Z</time>
      </trkpt>
      <trkpt lat="42.2613900" lon="-8.6638690">
        <ele>157.5</ele>
        <time>2021-05-20T13:56:48Z</time>
      </trkpt>
      <trkpt lat="42.2613820" lon="-8.6638650">
        <ele>157.5</ele>
        <time>2021-05-20T13:56:49Z</time>
      </trkpt>
      <trkpt lat="42.2613770" lon="-8.6638600">
        <ele>157.5</ele>
        <time>2021-05-20T13:56:50Z</time>
      </trkpt>
      <trkpt lat="42.2613750" lon="-8.6638630">
        <ele>157.5</ele>
        <time>2021-05-20T13:56:51Z</time>
      </trkpt>
      <trkpt lat="42.2613750" lon="-8.6638630">
        <ele>157.5</ele>
        <time>2021-05-20T13:56:52Z</time>
      </trkpt>
      <trkpt lat="42.2613750" lon="-8.6638630">
        <ele>157.5</ele>
        <time>2021-05-20T13:56:53Z</time>
      </trkpt>
      <trkpt lat="42.2613810" lon="-8.6638730">
        <ele>157.5</ele>
        <time>2021-05-20T13:56:54Z</time>
      </trkpt>
      <trkpt lat="42.2613810" lon="-8.6638730">
        <ele>157.5</ele>
        <time>2021-05-20T13:56:55Z</time>
      </trkpt>
      <trkpt lat="42.2613810" lon="-8.6638730">
        <ele>157.5</ele>
        <time>2021-05-20T13:56:56Z</time>
      </trkpt>
      <trkpt lat="42.2613810" lon="-8.6638710">
        <ele>157.5</ele>
        <time>2021-05-20T13:56:57Z</time>
      </trkpt>
      <trkpt lat="42.2613860" lon="-8.6638650">
        <ele>157.5</ele>
        <time>2021-05-20T13:56:58Z</time>
      </trkpt>
      <trkpt lat="42.2613840" lon="-8.6638560">
        <ele>157.5</ele>
        <time>2021-05-20T13:56:59Z</time>
      </trkpt>
      <trkpt lat="42.2613830" lon="-8.6638580">
        <ele>157.5</ele>
        <time>2021-05-20T13:57:00Z</time>
      </trkpt>
      <trkpt lat="42.2614040" lon="-8.6638390">
        <ele>157.5</ele>
        <time>2021-05-20T13:57:01Z</time>
      </trkpt>
      <trkpt lat="42.2613880" lon="-8.6638480">
        <ele>157.5</ele>
        <time>2021-05-20T13:57:02Z</time>
      </trkpt>
      <trkpt lat="42.2613840" lon="-8.6638480">
        <ele>157.5</ele>
        <time>2021-05-20T13:57:03Z</time>
      </trkpt>
      <trkpt lat="42.2613890" lon="-8.6638510">
        <ele>157.5</ele>
        <time>2021-05-20T13:57:04Z</time>
      </trkpt>
      <trkpt lat="42.2613900" lon="-8.6638550">
        <ele>157.5</ele>
        <time>2021-05-20T13:57:05Z</time>
      </trkpt>
      <trkpt lat="42.2614000" lon="-8.6638490">
        <ele>157.5</ele>
        <time>2021-05-20T13:57:06Z</time>
      </trkpt>
      <trkpt lat="42.2613960" lon="-8.6638580">
        <ele>157.5</ele>
        <time>2021-05-20T13:57:07Z</time>
      </trkpt>
      <trkpt lat="42.2614070" lon="-8.6638560">
        <ele>157.5</ele>
        <time>2021-05-20T13:57:08Z</time>
      </trkpt>
      <trkpt lat="42.2614100" lon="-8.6638620">
        <ele>157.5</ele>
        <time>2021-05-20T13:57:09Z</time>
      </trkpt>
      <trkpt lat="42.2614100" lon="-8.6638600">
        <ele>157.5</ele>
        <time>2021-05-20T13:57:10Z</time>
      </trkpt>
      <trkpt lat="42.2614120" lon="-8.6638530">
        <ele>157.5</ele>
        <time>2021-05-20T13:57:11Z</time>
      </trkpt>
      <trkpt lat="42.2614170" lon="-8.6638470">
        <ele>157.5</ele>
        <time>2021-05-20T13:57:12Z</time>
      </trkpt>
      <trkpt lat="42.2614170" lon="-8.6638490">
        <ele>157.5</ele>
        <time>2021-05-20T13:57:13Z</time>
      </trkpt>
      <trkpt lat="42.2614130" lon="-8.6638420">
        <ele>157.5</ele>
        <time>2021-05-20T13:57:14Z</time>
      </trkpt>
      <trkpt lat="42.2614120" lon="-8.6638320">
        <ele>157.5</ele>
        <time>2021-05-20T13:57:15Z</time>
      </trkpt>
      <trkpt lat="42.2614160" lon="-8.6638290">
        <ele>157.5</ele>
        <time>2021-05-20T13:57:16Z</time>
      </trkpt>
      <trkpt lat="42.2614160" lon="-8.6638230">
        <ele>157.5</ele>
        <time>2021-05-20T13:57:17Z</time>
      </trkpt>
      <trkpt lat="42.2614040" lon="-8.6638180">
        <ele>157.5</ele>
        <time>2021-05-20T13:57:18Z</time>
      </trkpt>
      <trkpt lat="42.2613990" lon="-8.6638200">
        <ele>157.5</ele>
        <time>2021-05-20T13:57:19Z</time>
      </trkpt>
      <trkpt lat="42.2613950" lon="-8.6638090">
        <ele>157.5</ele>
        <time>2021-05-20T13:57:20Z</time>
      </trkpt>
      <trkpt lat="42.2613890" lon="-8.6637990">
        <ele>157.5</ele>
        <time>2021-05-20T13:57:21Z</time>
      </trkpt>
      <trkpt lat="42.2613750" lon="-8.6637910">
        <ele>157.5</ele>
        <time>2021-05-20T13:57:22Z</time>
      </trkpt>
      <trkpt lat="42.2613640" lon="-8.6637800">
        <ele>157.5</ele>
        <time>2021-05-20T13:57:23Z</time>
      </trkpt>
      <trkpt lat="42.2613600" lon="-8.6637710">
        <ele>157.5</ele>
        <time>2021-05-20T13:57:24Z</time>
      </trkpt>
      <trkpt lat="42.2613520" lon="-8.6637670">
        <ele>157.5</ele>
        <time>2021-05-20T13:57:25Z</time>
      </trkpt>
      <trkpt lat="42.2613470" lon="-8.6637620">
        <ele>157.5</ele>
        <time>2021-05-20T13:57:26Z</time>
      </trkpt>
      <trkpt lat="42.2613390" lon="-8.6637620">
        <ele>157.5</ele>
        <time>2021-05-20T13:57:27Z</time>
      </trkpt>
      <trkpt lat="42.2613340" lon="-8.6637540">
        <ele>157.5</ele>
        <time>2021-05-20T13:57:28Z</time>
      </trkpt>
      <trkpt lat="42.2613350" lon="-8.6637520">
        <ele>157.5</ele>
        <time>2021-05-20T13:57:29Z</time>
      </trkpt>
      <trkpt lat="42.2613360" lon="-8.6637490">
        <ele>157.5</ele>
        <time>2021-05-20T13:57:30Z</time>
      </trkpt>
      <trkpt lat="42.2613370" lon="-8.6637460">
        <ele>157.5</ele>
        <time>2021-05-20T13:57:31Z</time>
      </trkpt>
      <trkpt lat="42.2613380" lon="-8.6637430">
        <ele>157.5</ele>
        <time>2021-05-20T13:57:32Z</time>
      </trkpt>
      <trkpt lat="42.2613390" lon="-8.6637410">
        <ele>157.5</ele>
        <time>2021-05-20T13:57:33Z</time>
      </trkpt>
      <trkpt lat="42.2613400" lon="-8.6637380">
        <ele>157.5</ele>
        <time>2021-05-20T13:57:34Z</time>
      </trkpt>
      <trkpt lat="42.2613410" lon="-8.6637350">
        <ele>157.5</ele>
        <time>2021-05-20T13:57:35Z</time>
      </trkpt>
      <trkpt lat="42.2613420" lon="-8.6637320">
        <ele>157.5</ele>
        <time>2021-05-20T13:57:36Z</time>
      </trkpt>
      <trkpt lat="42.2613430" lon="-8.6637300">
        <ele>157.5</ele>
        <time>2021-05-20T13:57:37Z</time>
      </trkpt>
      <trkpt lat="42.2613450" lon="-8.6637270">
        <ele>157.5</ele>
        <time>2021-05-20T13:57:38Z</time>
      </trkpt>
      <trkpt lat="42.2613460" lon="-8.6637240">
        <ele>157.5</ele>
        <time>2021-05-20T13:57:39Z</time>
      </trkpt>
      <trkpt lat="42.2613470" lon="-8.6637210">
        <ele>157.5</ele>
        <time>2021-05-20T13:57:40Z</time>
      </trkpt>
      <trkpt lat="42.2613480" lon="-8.6637190">
        <ele>157.5</ele>
        <time>2021-05-20T13:57:41Z</time>
      </trkpt>
      <trkpt lat="42.2613490" lon="-8.6637160">
        <ele>157.5</ele>
        <time>2021-05-20T13:57:42Z</time>
      </trkpt>
      <trkpt lat="42.2613500" lon="-8.6637130">
        <ele>157.5</ele>
        <time>2021-05-20T13:57:43Z</time>
      </trkpt>
      <trkpt lat="42.2613510" lon="-8.6637110">
        <ele>157.5</ele>
        <time>2021-05-20T13:57:45Z</time>
      </trkpt>
      <trkpt lat="42.2613520" lon="-8.6637080">
        <ele>157.5</ele>
        <time>2021-05-20T13:57:46Z</time>
      </trkpt>
      <trkpt lat="42.2613530" lon="-8.6637050">
        <ele>157.5</ele>
        <time>2021-05-20T13:57:47Z</time>
      </trkpt>
      <trkpt lat="42.2613540" lon="-8.6637020">
        <ele>157.5</ele>
        <time>2021-05-20T13:57:48Z</time>
      </trkpt>
      <trkpt lat="42.2613550" lon="-8.6637000">
        <ele>157.5</ele>
        <time>2021-05-20T13:57:49Z</time>
      </trkpt>
      <trkpt lat="42.2613560" lon="-8.6636970">
        <ele>157.5</ele>
        <time>2021-05-20T13:57:50Z</time>
      </trkpt>
      <trkpt lat="42.2613570" lon="-8.6636940">
        <ele>157.5</ele>
        <time>2021-05-20T13:57:51Z</time>
      </trkpt>
      <trkpt lat="42.2613580" lon="-8.6636910">
        <ele>157.5</ele>
        <time>2021-05-20T13:57:52Z</time>
      </trkpt>
      <trkpt lat="42.2613590" lon="-8.6636890">
        <ele>157.5</ele>
        <time>2021-05-20T13:57:53Z</time>
      </trkpt>
      <trkpt lat="42.2613600" lon="-8.6636860">
        <ele>157.5</ele>
        <time>2021-05-20T13:57:54Z</time>
      </trkpt>
      <trkpt lat="42.2613610" lon="-8.6636830">
        <ele>157.5</ele>
        <time>2021-05-20T13:57:55Z</time>
      </trkpt>
      <trkpt lat="42.2613620" lon="-8.6636800">
        <ele>157.5</ele>
        <time>2021-05-20T13:57:56Z</time>
      </trkpt>
      <trkpt lat="42.2613630" lon="-8.6636780">
        <ele>157.5</ele>
        <time>2021-05-20T13:57:57Z</time>
      </trkpt>
      <trkpt lat="42.2613640" lon="-8.6636750">
        <ele>157.5</ele>
        <time>2021-05-20T13:57:58Z</time>
      </trkpt>
      <trkpt lat="42.2613650" lon="-8.6636720">
        <ele>157.5</ele>
        <time>2021-05-20T13:57:59Z</time>
      </trkpt>
      <trkpt lat="42.2613670" lon="-8.6636700">
        <ele>157.5</ele>
        <time>2021-05-20T13:58:00Z</time>
      </trkpt>
      <trkpt lat="42.2613680" lon="-8.6636670">
        <ele>157.5</ele>
        <time>2021-05-20T13:58:01Z</time>
      </trkpt>
      <trkpt lat="42.2613690" lon="-8.6636640">
        <ele>157.5</ele>
        <time>2021-05-20T13:58:02Z</time>
      </trkpt>
      <trkpt lat="42.2613700" lon="-8.6636610">
        <ele>157.5</ele>
        <time>2021-05-20T13:58:03Z</time>
      </trkpt>
      <trkpt lat="42.2613710" lon="-8.6636590">
        <ele>157.5</ele>
        <time>2021-05-20T13:58:04Z</time>
      </trkpt>
      <trkpt lat="42.2613720" lon="-8.6636560">
        <ele>157.5</ele>
        <time>2021-05-20T13:58:05Z</time>
      </trkpt>
      <trkpt lat="42.2613730" lon="-8.6636530">
        <ele>157.5</ele>
        <time>2021-05-20T13:58:06Z</time>
      </trkpt>
      <trkpt lat="42.2613740" lon="-8.6636500">
        <ele>157.5</ele>
        <time>2021-05-20T13:58:07Z</time>
      </trkpt>
      <trkpt lat="42.2613750" lon="-8.6636480">
        <ele>157.5</ele>
        <time>2021-05-20T13:58:08Z</time>
      </trkpt>
      <trkpt lat="42.2613760" lon="-8.6636450">
        <ele>157.5</ele>
        <time>2021-05-20T13:58:09Z</time>
      </trkpt>
      <trkpt lat="42.2613770" lon="-8.6636420">
        <ele>157.5</ele>
        <time>2021-05-20T13:58:10Z</time>
      </trkpt>
      <trkpt lat="42.2613780" lon="-8.6636390">
        <ele>157.5</ele>
        <time>2021-05-20T13:58:11Z</time>
      </trkpt>
      <trkpt lat="42.2613790" lon="-8.6636370">
        <ele>157.5</ele>
        <time>2021-05-20T13:58:12Z</time>
      </trkpt>
      <trkpt lat="42.2613800" lon="-8.6636340">
        <ele>157.5</ele>
        <time>2021-05-20T13:58:13Z</time>
      </trkpt>
      <trkpt lat="42.2613810" lon="-8.6636310">
        <ele>157.5</ele>
        <time>2021-05-20T13:58:14Z</time>
      </trkpt>
      <trkpt lat="42.2613820" lon="-8.6636280">
        <ele>157.5</ele>
        <time>2021-05-20T13:58:15Z</time>
      </trkpt>
      <trkpt lat="42.2613830" lon="-8.6636260">
        <ele>157.5</ele>
        <time>2021-05-20T13:58:16Z</time>
      </trkpt>
      <trkpt lat="42.2613840" lon="-8.6636230">
        <ele>157.5</ele>
        <time>2021-05-20T13:58:17Z</time>
      </trkpt>
      <trkpt lat="42.2613850" lon="-8.6636200">
        <ele>157.5</ele>
        <time>2021-05-20T13:58:18Z</time>
      </trkpt>
      <trkpt lat="42.2613860" lon="-8.6636180">
        <ele>157.5</ele>
        <time>2021-05-20T13:58:19Z</time>
      </trkpt>
      <trkpt lat="42.2613870" lon="-8.6636150">
        <ele>157.5</ele>
        <time>2021-05-20T13:58:20Z</time>
      </trkpt>
      <trkpt lat="42.2613880" lon="-8.6636120">
        <ele>157.5</ele>
        <time>2021-05-20T13:58:21Z</time>
      </trkpt>
      <trkpt lat="42.2613900" lon="-8.6636090">
        <ele>157.5</ele>
        <time>2021-05-20T13:58:22Z</time>
      </trkpt>
      <trkpt lat="42.2613910" lon="-8.6636070">
        <ele>157.5</ele>
        <time>2021-05-20T13:58:23Z</time>
      </trkpt>
      <trkpt lat="42.2613920" lon="-8.6636040">
        <ele>157.5</ele>
        <time>2021-05-20T13:58:24Z</time>
      </trkpt>
      <trkpt lat="42.2613930" lon="-8.6636010">
        <ele>157.5</ele>
        <time>2021-05-20T13:58:25Z</time>
      </trkpt>
      <trkpt lat="42.2613940" lon="-8.6635980">
        <ele>157.5</ele>
        <time>2021-05-20T13:58:26Z</time>
      </trkpt>
      <trkpt lat="42.2613950" lon="-8.6635960">
        <ele>157.5</ele>
        <time>2021-05-20T13:58:27Z</time>
      </trkpt>
      <trkpt lat="42.2613960" lon="-8.6635930">
        <ele>157.5</ele>
        <time>2021-05-20T13:58:28Z</time>
      </trkpt>
      <trkpt lat="42.2613970" lon="-8.6635900">
        <ele>157.5</ele>
        <time>2021-05-20T13:58:29Z</time>
      </trkpt>
      <trkpt lat="42.2613980" lon="-8.6635870">
        <ele>157.5</ele>
        <time>2021-05-20T13:58:30Z</time>
      </trkpt>
      <trkpt lat="42.2613990" lon="-8.6635850">
        <ele>157.5</ele>
        <time>2021-05-20T13:58:31Z</time>
      </trkpt>
      <trkpt lat="42.2614000" lon="-8.6635820">
        <ele>157.5</ele>
        <time>2021-05-20T13:58:32Z</time>
      </trkpt>
      <trkpt lat="42.2613990" lon="-8.6635780">
        <ele>157.5</ele>
        <time>2021-05-20T13:58:33Z</time>
      </trkpt>
      <trkpt lat="42.2614090" lon="-8.6635630">
        <ele>157.5</ele>
        <time>2021-05-20T13:58:34Z</time>
      </trkpt>
      <trkpt lat="42.2614160" lon="-8.6635530">
        <ele>157.5</ele>
        <time>2021-05-20T13:58:35Z</time>
      </trkpt>
      <trkpt lat="42.2614110" lon="-8.6635460">
        <ele>157.5</ele>
        <time>2021-05-20T13:58:36Z</time>
      </trkpt>
      <trkpt lat="42.2614110" lon="-8.6635370">
        <ele>157.5</ele>
        <time>2021-05-20T13:58:37Z</time>
      </trkpt>
      <trkpt lat="42.2614180" lon="-8.6635340">
        <ele>157.5</ele>
        <time>2021-05-20T13:58:38Z</time>
      </trkpt>
      <trkpt lat="42.2614240" lon="-8.6635240">
        <ele>157.5</ele>
        <time>2021-05-20T13:58:39Z</time>
      </trkpt>
      <trkpt lat="42.2614340" lon="-8.6635190">
        <ele>157.5</ele>
        <time>2021-05-20T13:58:40Z</time>
      </trkpt>
      <trkpt lat="42.2614310" lon="-8.6635130">
        <ele>157.5</ele>
        <time>2021-05-20T13:58:41Z</time>
      </trkpt>
      <trkpt lat="42.2614260" lon="-8.6635100">
        <ele>157.5</ele>
        <time>2021-05-20T13:58:42Z</time>
      </trkpt>
      <trkpt lat="42.2614200" lon="-8.6635060">
        <ele>157.5</ele>
        <time>2021-05-20T13:58:43Z</time>
      </trkpt>
      <trkpt lat="42.2614180" lon="-8.6635160">
        <ele>157.5</ele>
        <time>2021-05-20T13:58:44Z</time>
      </trkpt>
      <trkpt lat="42.2614190" lon="-8.6635220">
        <ele>157.5</ele>
        <time>2021-05-20T13:58:45Z</time>
      </trkpt>
      <trkpt lat="42.2614210" lon="-8.6635260">
        <ele>157.5</ele>
        <time>2021-05-20T13:58:46Z</time>
      </trkpt>
      <trkpt lat="42.2614130" lon="-8.6635320">
        <ele>157.5</ele>
        <time>2021-05-20T13:58:47Z</time>
      </trkpt>
      <trkpt lat="42.2614100" lon="-8.6635300">
        <ele>157.5</ele>
        <time>2021-05-20T13:58:48Z</time>
      </trkpt>
      <trkpt lat="42.2614100" lon="-8.6635310">
        <ele>157.5</ele>
        <time>2021-05-20T13:58:49Z</time>
      </trkpt>
      <trkpt lat="42.2614120" lon="-8.6635300">
        <ele>157.5</ele>
        <time>2021-05-20T13:58:50Z</time>
      </trkpt>
      <trkpt lat="42.2614140" lon="-8.6635280">
        <ele>157.5</ele>
        <time>2021-05-20T13:58:51Z</time>
      </trkpt>
      <trkpt lat="42.2614070" lon="-8.6635240">
        <ele>157.5</ele>
        <time>2021-05-20T13:58:52Z</time>
      </trkpt>
      <trkpt lat="42.2614040" lon="-8.6635210">
        <ele>157.5</ele>
        <time>2021-05-20T13:58:53Z</time>
      </trkpt>
      <trkpt lat="42.2613990" lon="-8.6635130">
        <ele>157.5</ele>
        <time>2021-05-20T13:58:54Z</time>
      </trkpt>
      <trkpt lat="42.2613990" lon="-8.6635090">
        <ele>157.5</ele>
        <time>2021-05-20T13:58:55Z</time>
      </trkpt>
      <trkpt lat="42.2613980" lon="-8.6635090">
        <ele>157.5</ele>
        <time>2021-05-20T13:58:56Z</time>
      </trkpt>
      <trkpt lat="42.2613870" lon="-8.6635100">
        <ele>157.5</ele>
        <time>2021-05-20T13:58:57Z</time>
      </trkpt>
      <trkpt lat="42.2613830" lon="-8.6635090">
        <ele>157.5</ele>
        <time>2021-05-20T13:58:58Z</time>
      </trkpt>
      <trkpt lat="42.2613800" lon="-8.6635080">
        <ele>157.5</ele>
        <time>2021-05-20T13:58:59Z</time>
      </trkpt>
      <trkpt lat="42.2613680" lon="-8.6634990">
        <ele>157.5</ele>
        <time>2021-05-20T13:59:00Z</time>
      </trkpt>
      <trkpt lat="42.2613570" lon="-8.6634830">
        <ele>157.5</ele>
        <time>2021-05-20T13:59:01Z</time>
      </trkpt>
      <trkpt lat="42.2613570" lon="-8.6634680">
        <ele>157.5</ele>
        <time>2021-05-20T13:59:02Z</time>
      </trkpt>
      <trkpt lat="42.2613520" lon="-8.6634530">
        <ele>157.5</ele>
        <time>2021-05-20T13:59:03Z</time>
      </trkpt>
      <trkpt lat="42.2613480" lon="-8.6634440">
        <ele>157.5</ele>
        <time>2021-05-20T13:59:04Z</time>
      </trkpt>
      <trkpt lat="42.2613440" lon="-8.6634480">
        <ele>157.5</ele>
        <time>2021-05-20T13:59:05Z</time>
      </trkpt>
      <trkpt lat="42.2613430" lon="-8.6634550">
        <ele>157.5</ele>
        <time>2021-05-20T13:59:06Z</time>
      </trkpt>
      <trkpt lat="42.2613430" lon="-8.6634610">
        <ele>157.5</ele>
        <time>2021-05-20T13:59:07Z</time>
      </trkpt>
      <trkpt lat="42.2613420" lon="-8.6634680">
        <ele>157.5</ele>
        <time>2021-05-20T13:59:08Z</time>
      </trkpt>
      <trkpt lat="42.2613420" lon="-8.6634750">
        <ele>157.5</ele>
        <time>2021-05-20T13:59:09Z</time>
      </trkpt>
      <trkpt lat="42.2613410" lon="-8.6634820">
        <ele>157.5</ele>
        <time>2021-05-20T13:59:10Z</time>
      </trkpt>
      <trkpt lat="42.2613410" lon="-8.6634880">
        <ele>157.5</ele>
        <time>2021-05-20T13:59:11Z</time>
      </trkpt>
      <trkpt lat="42.2613400" lon="-8.6634950">
        <ele>157.5</ele>
        <time>2021-05-20T13:59:12Z</time>
      </trkpt>
      <trkpt lat="42.2613440" lon="-8.6635080">
        <ele>157.5</ele>
        <time>2021-05-20T13:59:13Z</time>
      </trkpt>
      <trkpt lat="42.2613480" lon="-8.6635270">
        <ele>157.5</ele>
        <time>2021-05-20T13:59:14Z</time>
      </trkpt>
      <trkpt lat="42.2613480" lon="-8.6635420">
        <ele>157.5</ele>
        <time>2021-05-20T13:59:15Z</time>
      </trkpt>
      <trkpt lat="42.2613500" lon="-8.6635670">
        <ele>157.5</ele>
        <time>2021-05-20T13:59:16Z</time>
      </trkpt>
      <trkpt lat="42.2613520" lon="-8.6635790">
        <ele>157.5</ele>
        <time>2021-05-20T13:59:17Z</time>
      </trkpt>
      <trkpt lat="42.2613570" lon="-8.6635870">
        <ele>157.5</ele>
        <time>2021-05-20T13:59:18Z</time>
      </trkpt>
      <trkpt lat="42.2613570" lon="-8.6635970">
        <ele>157.5</ele>
        <time>2021-05-20T13:59:19Z</time>
      </trkpt>
      <trkpt lat="42.2613560" lon="-8.6636040">
        <ele>157.5</ele>
        <time>2021-05-20T13:59:20Z</time>
      </trkpt>
      <trkpt lat="42.2613550" lon="-8.6636060">
        <ele>157.5</ele>
        <time>2021-05-20T13:59:21Z</time>
      </trkpt>
      <trkpt lat="42.2613490" lon="-8.6636130">
        <ele>157.5</ele>
        <time>2021-05-20T13:59:22Z</time>
      </trkpt>
      <trkpt lat="42.2613480" lon="-8.6636220">
        <ele>157.5</ele>
        <time>2021-05-20T13:59:23Z</time>
      </trkpt>
      <trkpt lat="42.2613490" lon="-8.6636250">
        <ele>157.5</ele>
        <time>2021-05-20T13:59:24Z</time>
      </trkpt>
      <trkpt lat="42.2613560" lon="-8.6636250">
        <ele>157.5</ele>
        <time>2021-05-20T13:59:25Z</time>
      </trkpt>
      <trkpt lat="42.2613500" lon="-8.6636250">
        <ele>157.5</ele>
        <time>2021-05-20T13:59:26Z</time>
      </trkpt>
      <trkpt lat="42.2613430" lon="-8.6636280">
        <ele>157.5</ele>
        <time>2021-05-20T13:59:27Z</time>
      </trkpt>
      <trkpt lat="42.2613420" lon="-8.6636290">
        <ele>157.5</ele>
        <time>2021-05-20T13:59:28Z</time>
      </trkpt>
      <trkpt lat="42.2613480" lon="-8.6636310">
        <ele>157.5</ele>
        <time>2021-05-20T13:59:29Z</time>
      </trkpt>
      <trkpt lat="42.2613510" lon="-8.6636300">
        <ele>157.5</ele>
        <time>2021-05-20T13:59:30Z</time>
      </trkpt>
      <trkpt lat="42.2613440" lon="-8.6636440">
        <ele>157.5</ele>
        <time>2021-05-20T13:59:32Z</time>
      </trkpt>
      <trkpt lat="42.2613460" lon="-8.6636540">
        <ele>157.5</ele>
        <time>2021-05-20T13:59:33Z</time>
      </trkpt>
      <trkpt lat="42.2613500" lon="-8.6636500">
        <ele>157.5</ele>
        <time>2021-05-20T13:59:34Z</time>
      </trkpt>
      <trkpt lat="42.2613570" lon="-8.6636520">
        <ele>157.5</ele>
        <time>2021-05-20T13:59:35Z</time>
      </trkpt>
      <trkpt lat="42.2613560" lon="-8.6636450">
        <ele>157.5</ele>
        <time>2021-05-20T13:59:36Z</time>
      </trkpt>
      <trkpt lat="42.2613560" lon="-8.6636450">
        <ele>157.5</ele>
        <time>2021-05-20T13:59:37Z</time>
      </trkpt>
      <trkpt lat="42.2613590" lon="-8.6636320">
        <ele>157.5</ele>
        <time>2021-05-20T13:59:38Z</time>
      </trkpt>
      <trkpt lat="42.2613580" lon="-8.6636260">
        <ele>157.5</ele>
        <time>2021-05-20T13:59:39Z</time>
      </trkpt>
      <trkpt lat="42.2613570" lon="-8.6636270">
        <ele>157.5</ele>
        <time>2021-05-20T13:59:40Z</time>
      </trkpt>
      <trkpt lat="42.2613570" lon="-8.6636270">
        <ele>157.5</ele>
        <time>2021-05-20T13:59:41Z</time>
      </trkpt>
      <trkpt lat="42.2613570" lon="-8.6636270">
        <ele>157.5</ele>
        <time>2021-05-20T13:59:42Z</time>
      </trkpt>
      <trkpt lat="42.2613570" lon="-8.6636270">
        <ele>157.5</ele>
        <time>2021-05-20T13:59:43Z</time>
      </trkpt>
      <trkpt lat="42.2613730" lon="-8.6636500">
        <ele>157.5</ele>
        <time>2021-05-20T13:59:44Z</time>
      </trkpt>
      <trkpt lat="42.2613750" lon="-8.6636500">
        <ele>157.5</ele>
        <time>2021-05-20T13:59:45Z</time>
      </trkpt>
      <trkpt lat="42.2613750" lon="-8.6636440">
        <ele>157.5</ele>
        <time>2021-05-20T13:59:46Z</time>
      </trkpt>
      <trkpt lat="42.2613750" lon="-8.6636430">
        <ele>157.5</ele>
        <time>2021-05-20T13:59:47Z</time>
      </trkpt>
      <trkpt lat="42.2613700" lon="-8.6636390">
        <ele>157.5</ele>
        <time>2021-05-20T13:59:48Z</time>
      </trkpt>
      <trkpt lat="42.2613730" lon="-8.6636340">
        <ele>157.5</ele>
        <time>2021-05-20T13:59:49Z</time>
      </trkpt>
      <trkpt lat="42.2613690" lon="-8.6636430">
        <ele>157.5</ele>
        <time>2021-05-20T13:59:50Z</time>
      </trkpt>
      <trkpt lat="42.2613770" lon="-8.6636390">
        <ele>157.5</ele>
        <time>2021-05-20T13:59:51Z</time>
      </trkpt>
      <trkpt lat="42.2613780" lon="-8.6636450">
        <ele>157.5</ele>
        <time>2021-05-20T13:59:52Z</time>
      </trkpt>
      <trkpt lat="42.2613730" lon="-8.6636410">
        <ele>157.5</ele>
        <time>2021-05-20T13:59:53Z</time>
      </trkpt>
      <trkpt lat="42.2613770" lon="-8.6636400">
        <ele>157.5</ele>
        <time>2021-05-20T13:59:54Z</time>
      </trkpt>
      <trkpt lat="42.2613800" lon="-8.6636430">
        <ele>157.5</ele>
        <time>2021-05-20T13:59:55Z</time>
      </trkpt>
      <trkpt lat="42.2613910" lon="-8.6636400">
        <ele>157.5</ele>
        <time>2021-05-20T13:59:56Z</time>
      </trkpt>
      <trkpt lat="42.2613980" lon="-8.6636430">
        <ele>157.5</ele>
        <time>2021-05-20T13:59:57Z</time>
      </trkpt>
      <trkpt lat="42.2613980" lon="-8.6636480">
        <ele>157.5</ele>
        <time>2021-05-20T13:59:58Z</time>
      </trkpt>
      <trkpt lat="42.2613950" lon="-8.6636530">
        <ele>157.5</ele>
        <time>2021-05-20T13:59:59Z</time>
      </trkpt>
      <trkpt lat="42.2613930" lon="-8.6636570">
        <ele>157.5</ele>
        <time>2021-05-20T14:00:00Z</time>
      </trkpt>
      <trkpt lat="42.2613850" lon="-8.6636610">
        <ele>157.5</ele>
        <time>2021-05-20T14:00:01Z</time>
      </trkpt>
      <trkpt lat="42.2613870" lon="-8.6636650">
        <ele>157.5</ele>
        <time>2021-05-20T14:00:02Z</time>
      </trkpt>
      <trkpt lat="42.2613930" lon="-8.6636660">
        <ele>157.5</ele>
        <time>2021-05-20T14:00:03Z</time>
      </trkpt>
      <trkpt lat="42.2613840" lon="-8.6636590">
        <ele>157.5</ele>
        <time>2021-05-20T14:00:04Z</time>
      </trkpt>
      <trkpt lat="42.2613850" lon="-8.6636610">
        <ele>157.5</ele>
        <time>2021-05-20T14:00:05Z</time>
      </trkpt>
      <trkpt lat="42.2613840" lon="-8.6636610">
        <ele>157.5</ele>
        <time>2021-05-20T14:00:06Z</time>
      </trkpt>
      <trkpt lat="42.2613830" lon="-8.6636570">
        <ele>157.5</ele>
        <time>2021-05-20T14:00:07Z</time>
      </trkpt>
      <trkpt lat="42.2613780" lon="-8.6636590">
        <ele>157.5</ele>
        <time>2021-05-20T14:00:08Z</time>
      </trkpt>
      <trkpt lat="42.2613780" lon="-8.6636470">
        <ele>157.5</ele>
        <time>2021-05-20T14:00:09Z</time>
      </trkpt>
      <trkpt lat="42.2613870" lon="-8.6636390">
        <ele>157.5</ele>
        <time>2021-05-20T14:00:10Z</time>
      </trkpt>
      <trkpt lat="42.2613940" lon="-8.6636340">
        <ele>157.5</ele>
        <time>2021-05-20T14:00:11Z</time>
      </trkpt>
      <trkpt lat="42.2613960" lon="-8.6636380">
        <ele>157.5</ele>
        <time>2021-05-20T14:00:12Z</time>
      </trkpt>
      <trkpt lat="42.2614040" lon="-8.6636290">
        <ele>157.5</ele>
        <time>2021-05-20T14:00:13Z</time>
      </trkpt>
      <trkpt lat="42.2614070" lon="-8.6636330">
        <ele>157.5</ele>
        <time>2021-05-20T14:00:14Z</time>
      </trkpt>
      <trkpt lat="42.2614090" lon="-8.6636360">
        <ele>157.5</ele>
        <time>2021-05-20T14:00:15Z</time>
      </trkpt>
      <trkpt lat="42.2614130" lon="-8.6636250">
        <ele>157.5</ele>
        <time>2021-05-20T14:00:16Z</time>
      </trkpt>
      <trkpt lat="42.2614220" lon="-8.6636050">
        <ele>157.5</ele>
        <time>2021-05-20T14:00:17Z</time>
      </trkpt>
      <trkpt lat="42.2614220" lon="-8.6635950">
        <ele>157.5</ele>
        <time>2021-05-20T14:00:18Z</time>
      </trkpt>
      <trkpt lat="42.2614290" lon="-8.6635790">
        <ele>157.5</ele>
        <time>2021-05-20T14:00:19Z</time>
      </trkpt>
      <trkpt lat="42.2614350" lon="-8.6635720">
        <ele>157.5</ele>
        <time>2021-05-20T14:00:20Z</time>
      </trkpt>
      <trkpt lat="42.2614400" lon="-8.6635650">
        <ele>157.5</ele>
        <time>2021-05-20T14:00:21Z</time>
      </trkpt>
      <trkpt lat="42.2614460" lon="-8.6635580">
        <ele>157.6</ele>
        <time>2021-05-20T14:00:22Z</time>
      </trkpt>
      <trkpt lat="42.2614500" lon="-8.6635440">
        <ele>157.6</ele>
        <time>2021-05-20T14:00:23Z</time>
      </trkpt>
      <trkpt lat="42.2614550" lon="-8.6635370">
        <ele>157.6</ele>
        <time>2021-05-20T14:00:24Z</time>
      </trkpt>
      <trkpt lat="42.2614610" lon="-8.6635340">
        <ele>157.6</ele>
        <time>2021-05-20T14:00:25Z</time>
      </trkpt>
      <trkpt lat="42.2614680" lon="-8.6635320">
        <ele>157.6</ele>
        <time>2021-05-20T14:00:26Z</time>
      </trkpt>
      <trkpt lat="42.2614770" lon="-8.6635230">
        <ele>157.6</ele>
        <time>2021-05-20T14:00:27Z</time>
      </trkpt>
      <trkpt lat="42.2614830" lon="-8.6635140">
        <ele>157.6</ele>
        <time>2021-05-20T14:00:28Z</time>
      </trkpt>
      <trkpt lat="42.2614900" lon="-8.6635010">
        <ele>157.6</ele>
        <time>2021-05-20T14:00:29Z</time>
      </trkpt>
      <trkpt lat="42.2614960" lon="-8.6634940">
        <ele>157.6</ele>
        <time>2021-05-20T14:00:30Z</time>
      </trkpt>
      <trkpt lat="42.2615040" lon="-8.6634910">
        <ele>157.6</ele>
        <time>2021-05-20T14:00:31Z</time>
      </trkpt>
      <trkpt lat="42.2615100" lon="-8.6634820">
        <ele>157.6</ele>
        <time>2021-05-20T14:00:32Z</time>
      </trkpt>
      <trkpt lat="42.2615190" lon="-8.6634780">
        <ele>157.6</ele>
        <time>2021-05-20T14:00:33Z</time>
      </trkpt>
      <trkpt lat="42.2615310" lon="-8.6634720">
        <ele>157.6</ele>
        <time>2021-05-20T14:00:34Z</time>
      </trkpt>
      <trkpt lat="42.2615340" lon="-8.6634600">
        <ele>157.6</ele>
        <time>2021-05-20T14:00:35Z</time>
      </trkpt>
      <trkpt lat="42.2615400" lon="-8.6634570">
        <ele>157.6</ele>
        <time>2021-05-20T14:00:36Z</time>
      </trkpt>
      <trkpt lat="42.2615500" lon="-8.6634520">
        <ele>157.6</ele>
        <time>2021-05-20T14:00:37Z</time>
      </trkpt>
      <trkpt lat="42.2615570" lon="-8.6634470">
        <ele>157.6</ele>
        <time>2021-05-20T14:00:38Z</time>
      </trkpt>
      <trkpt lat="42.2615630" lon="-8.6634450">
        <ele>157.6</ele>
        <time>2021-05-20T14:00:39Z</time>
      </trkpt>
      <trkpt lat="42.2615730" lon="-8.6634330">
        <ele>157.6</ele>
        <time>2021-05-20T14:00:40Z</time>
      </trkpt>
      <trkpt lat="42.2615880" lon="-8.6634130">
        <ele>157.6</ele>
        <time>2021-05-20T14:00:41Z</time>
      </trkpt>
      <trkpt lat="42.2615920" lon="-8.6634110">
        <ele>157.6</ele>
        <time>2021-05-20T14:00:42Z</time>
      </trkpt>
      <trkpt lat="42.2616010" lon="-8.6634090">
        <ele>157.6</ele>
        <time>2021-05-20T14:00:43Z</time>
      </trkpt>
      <trkpt lat="42.2616120" lon="-8.6634100">
        <ele>157.6</ele>
        <time>2021-05-20T14:00:44Z</time>
      </trkpt>
      <trkpt lat="42.2616220" lon="-8.6634100">
        <ele>157.6</ele>
        <time>2021-05-20T14:00:45Z</time>
      </trkpt>
      <trkpt lat="42.2616210" lon="-8.6634110">
        <ele>157.6</ele>
        <time>2021-05-20T14:00:46Z</time>
      </trkpt>
      <trkpt lat="42.2616300" lon="-8.6634060">
        <ele>157.6</ele>
        <time>2021-05-20T14:00:47Z</time>
      </trkpt>
      <trkpt lat="42.2616330" lon="-8.6634040">
        <ele>157.6</ele>
        <time>2021-05-20T14:00:48Z</time>
      </trkpt>
      <trkpt lat="42.2616440" lon="-8.6634000">
        <ele>157.6</ele>
        <time>2021-05-20T14:00:49Z</time>
      </trkpt>
      <trkpt lat="42.2616490" lon="-8.6633930">
        <ele>157.6</ele>
        <time>2021-05-20T14:00:50Z</time>
      </trkpt>
      <trkpt lat="42.2616560" lon="-8.6633820">
        <ele>157.6</ele>
        <time>2021-05-20T14:00:51Z</time>
      </trkpt>
      <trkpt lat="42.2616590" lon="-8.6633800">
        <ele>157.6</ele>
        <time>2021-05-20T14:00:52Z</time>
      </trkpt>
      <trkpt lat="42.2616730" lon="-8.6633740">
        <ele>157.6</ele>
        <time>2021-05-20T14:00:53Z</time>
      </trkpt>
      <trkpt lat="42.2616840" lon="-8.6633700">
        <ele>157.6</ele>
        <time>2021-05-20T14:00:54Z</time>
      </trkpt>
      <trkpt lat="42.2616950" lon="-8.6633680">
        <ele>157.6</ele>
        <time>2021-05-20T14:00:55Z</time>
      </trkpt>
      <trkpt lat="42.2617040" lon="-8.6633680">
        <ele>157.6</ele>
        <time>2021-05-20T14:00:56Z</time>
      </trkpt>
      <trkpt lat="42.2617090" lon="-8.6633640">
        <ele>157.6</ele>
        <time>2021-05-20T14:00:57Z</time>
      </trkpt>
      <trkpt lat="42.2617180" lon="-8.6633630">
        <ele>157.6</ele>
        <time>2021-05-20T14:00:58Z</time>
      </trkpt>
      <trkpt lat="42.2617350" lon="-8.6633670">
        <ele>157.6</ele>
        <time>2021-05-20T14:00:59Z</time>
      </trkpt>
      <trkpt lat="42.2617420" lon="-8.6633660">
        <ele>157.6</ele>
        <time>2021-05-20T14:01:00Z</time>
      </trkpt>
      <trkpt lat="42.2617500" lon="-8.6633640">
        <ele>157.6</ele>
        <time>2021-05-20T14:01:01Z</time>
      </trkpt>
      <trkpt lat="42.2617570" lon="-8.6633630">
        <ele>157.6</ele>
        <time>2021-05-20T14:01:02Z</time>
      </trkpt>
      <trkpt lat="42.2617580" lon="-8.6633540">
        <ele>157.6</ele>
        <time>2021-05-20T14:01:03Z</time>
      </trkpt>
      <trkpt lat="42.2617660" lon="-8.6633410">
        <ele>157.6</ele>
        <time>2021-05-20T14:01:04Z</time>
      </trkpt>
      <trkpt lat="42.2617680" lon="-8.6633280">
        <ele>157.6</ele>
        <time>2021-05-20T14:01:05Z</time>
      </trkpt>
      <trkpt lat="42.2617680" lon="-8.6633310">
        <ele>157.6</ele>
        <time>2021-05-20T14:01:06Z</time>
      </trkpt>
      <trkpt lat="42.2617770" lon="-8.6633190">
        <ele>157.7</ele>
        <time>2021-05-20T14:01:07Z</time>
      </trkpt>
      <trkpt lat="42.2617910" lon="-8.6633100">
        <ele>157.7</ele>
        <time>2021-05-20T14:01:08Z</time>
      </trkpt>
      <trkpt lat="42.2617960" lon="-8.6632970">
        <ele>157.7</ele>
        <time>2021-05-20T14:01:09Z</time>
      </trkpt>
      <trkpt lat="42.2618020" lon="-8.6632710">
        <ele>157.7</ele>
        <time>2021-05-20T14:01:10Z</time>
      </trkpt>
      <trkpt lat="42.2618030" lon="-8.6632590">
        <ele>157.7</ele>
        <time>2021-05-20T14:01:11Z</time>
      </trkpt>
      <trkpt lat="42.2618050" lon="-8.6632460">
        <ele>157.7</ele>
        <time>2021-05-20T14:01:12Z</time>
      </trkpt>
      <trkpt lat="42.2618050" lon="-8.6632380">
        <ele>157.7</ele>
        <time>2021-05-20T14:01:13Z</time>
      </trkpt>
      <trkpt lat="42.2618030" lon="-8.6632340">
        <ele>157.7</ele>
        <time>2021-05-20T14:01:14Z</time>
      </trkpt>
      <trkpt lat="42.2618060" lon="-8.6632280">
        <ele>157.7</ele>
        <time>2021-05-20T14:01:15Z</time>
      </trkpt>
      <trkpt lat="42.2618000" lon="-8.6632270">
        <ele>157.7</ele>
        <time>2021-05-20T14:01:16Z</time>
      </trkpt>
      <trkpt lat="42.2618050" lon="-8.6632140">
        <ele>157.7</ele>
        <time>2021-05-20T14:01:17Z</time>
      </trkpt>
      <trkpt lat="42.2618070" lon="-8.6632070">
        <ele>157.7</ele>
        <time>2021-05-20T14:01:18Z</time>
      </trkpt>
      <trkpt lat="42.2618020" lon="-8.6631890">
        <ele>157.7</ele>
        <time>2021-05-20T14:01:19Z</time>
      </trkpt>
      <trkpt lat="42.2617950" lon="-8.6631870">
        <ele>157.7</ele>
        <time>2021-05-20T14:01:20Z</time>
      </trkpt>
      <trkpt lat="42.2617870" lon="-8.6631840">
        <ele>157.7</ele>
        <time>2021-05-20T14:01:21Z</time>
      </trkpt>
      <trkpt lat="42.2617800" lon="-8.6631820">
        <ele>157.7</ele>
        <time>2021-05-20T14:01:22Z</time>
      </trkpt>
      <trkpt lat="42.2617720" lon="-8.6631800">
        <ele>157.7</ele>
        <time>2021-05-20T14:01:23Z</time>
      </trkpt>
      <trkpt lat="42.2617690" lon="-8.6631800">
        <ele>157.7</ele>
        <time>2021-05-20T14:01:24Z</time>
      </trkpt>
      <trkpt lat="42.2617630" lon="-8.6631800">
        <ele>157.7</ele>
        <time>2021-05-20T14:01:25Z</time>
      </trkpt>
      <trkpt lat="42.2617620" lon="-8.6631780">
        <ele>157.7</ele>
        <time>2021-05-20T14:01:26Z</time>
      </trkpt>
      <trkpt lat="42.2617640" lon="-8.6631800">
        <ele>157.7</ele>
        <time>2021-05-20T14:01:27Z</time>
      </trkpt>
      <trkpt lat="42.2617660" lon="-8.6631910">
        <ele>157.7</ele>
        <time>2021-05-20T14:01:28Z</time>
      </trkpt>
      <trkpt lat="42.2617590" lon="-8.6631970">
        <ele>157.7</ele>
        <time>2021-05-20T14:01:29Z</time>
      </trkpt>
      <trkpt lat="42.2617590" lon="-8.6632100">
        <ele>157.7</ele>
        <time>2021-05-20T14:01:30Z</time>
      </trkpt>
      <trkpt lat="42.2617630" lon="-8.6632190">
        <ele>157.7</ele>
        <time>2021-05-20T14:01:31Z</time>
      </trkpt>
      <trkpt lat="42.2617700" lon="-8.6632230">
        <ele>157.7</ele>
        <time>2021-05-20T14:01:32Z</time>
      </trkpt>
      <trkpt lat="42.2617740" lon="-8.6632310">
        <ele>157.7</ele>
        <time>2021-05-20T14:01:34Z</time>
      </trkpt>
      <trkpt lat="42.2617840" lon="-8.6632410">
        <ele>157.7</ele>
        <time>2021-05-20T14:01:35Z</time>
      </trkpt>
      <trkpt lat="42.2617890" lon="-8.6632490">
        <ele>157.7</ele>
        <time>2021-05-20T14:01:36Z</time>
      </trkpt>
      <trkpt lat="42.2617910" lon="-8.6632590">
        <ele>157.7</ele>
        <time>2021-05-20T14:01:37Z</time>
      </trkpt>
      <trkpt lat="42.2617940" lon="-8.6632700">
        <ele>157.7</ele>
        <time>2021-05-20T14:01:38Z</time>
      </trkpt>
      <trkpt lat="42.2617980" lon="-8.6632820">
        <ele>157.7</ele>
        <time>2021-05-20T14:01:39Z</time>
      </trkpt>
      <trkpt lat="42.2618040" lon="-8.6632880">
        <ele>157.7</ele>
        <time>2021-05-20T14:01:40Z</time>
      </trkpt>
      <trkpt lat="42.2618100" lon="-8.6632930">
        <ele>157.7</ele>
        <time>2021-05-20T14:01:41Z</time>
      </trkpt>
      <trkpt lat="42.2618100" lon="-8.6632940">
        <ele>157.7</ele>
        <time>2021-05-20T14:01:42Z</time>
      </trkpt>
      <trkpt lat="42.2618160" lon="-8.6633030">
        <ele>157.7</ele>
        <time>2021-05-20T14:01:43Z</time>
      </trkpt>
      <trkpt lat="42.2618220" lon="-8.6633110">
        <ele>157.7</ele>
        <time>2021-05-20T14:01:44Z</time>
      </trkpt>
      <trkpt lat="42.2618250" lon="-8.6633260">
        <ele>157.7</ele>
        <time>2021-05-20T14:01:45Z</time>
      </trkpt>
      <trkpt lat="42.2618340" lon="-8.6633330">
        <ele>157.7</ele>
        <time>2021-05-20T14:01:46Z</time>
      </trkpt>
      <trkpt lat="42.2618410" lon="-8.6633420">
        <ele>157.7</ele>
        <time>2021-05-20T14:01:47Z</time>
      </trkpt>
      <trkpt lat="42.2618440" lon="-8.6633470">
        <ele>157.7</ele>
        <time>2021-05-20T14:01:48Z</time>
      </trkpt>
      <trkpt lat="42.2618530" lon="-8.6633570">
        <ele>157.7</ele>
        <time>2021-05-20T14:01:49Z</time>
      </trkpt>
      <trkpt lat="42.2618610" lon="-8.6633720">
        <ele>157.7</ele>
        <time>2021-05-20T14:01:50Z</time>
      </trkpt>
      <trkpt lat="42.2618700" lon="-8.6633880">
        <ele>157.7</ele>
        <time>2021-05-20T14:01:51Z</time>
      </trkpt>
      <trkpt lat="42.2618780" lon="-8.6634090">
        <ele>157.7</ele>
        <time>2021-05-20T14:01:52Z</time>
      </trkpt>
      <trkpt lat="42.2618840" lon="-8.6634210">
        <ele>157.7</ele>
        <time>2021-05-20T14:01:53Z</time>
      </trkpt>
      <trkpt lat="42.2618890" lon="-8.6634320">
        <ele>157.7</ele>
        <time>2021-05-20T14:01:54Z</time>
      </trkpt>
      <trkpt lat="42.2619010" lon="-8.6634530">
        <ele>157.7</ele>
        <time>2021-05-20T14:01:55Z</time>
      </trkpt>
      <trkpt lat="42.2619070" lon="-8.6634620">
        <ele>157.7</ele>
        <time>2021-05-20T14:01:56Z</time>
      </trkpt>
      <trkpt lat="42.2619120" lon="-8.6634720">
        <ele>157.7</ele>
        <time>2021-05-20T14:01:57Z</time>
      </trkpt>
      <trkpt lat="42.2619090" lon="-8.6634730">
        <ele>157.7</ele>
        <time>2021-05-20T14:01:58Z</time>
      </trkpt>
      <trkpt lat="42.2619160" lon="-8.6634880">
        <ele>157.7</ele>
        <time>2021-05-20T14:01:59Z</time>
      </trkpt>
      <trkpt lat="42.2619220" lon="-8.6634920">
        <ele>157.7</ele>
        <time>2021-05-20T14:02:00Z</time>
      </trkpt>
      <trkpt lat="42.2619340" lon="-8.6634970">
        <ele>157.7</ele>
        <time>2021-05-20T14:02:01Z</time>
      </trkpt>
      <trkpt lat="42.2619490" lon="-8.6635150">
        <ele>157.7</ele>
        <time>2021-05-20T14:02:02Z</time>
      </trkpt>
      <trkpt lat="42.2619540" lon="-8.6635190">
        <ele>157.8</ele>
        <time>2021-05-20T14:02:03Z</time>
      </trkpt>
      <trkpt lat="42.2619600" lon="-8.6635230">
        <ele>157.8</ele>
        <time>2021-05-20T14:02:04Z</time>
      </trkpt>
      <trkpt lat="42.2619650" lon="-8.6635270">
        <ele>157.8</ele>
        <time>2021-05-20T14:02:05Z</time>
      </trkpt>
      <trkpt lat="42.2619720" lon="-8.6635280">
        <ele>157.8</ele>
        <time>2021-05-20T14:02:06Z</time>
      </trkpt>
      <trkpt lat="42.2619960" lon="-8.6635510">
        <ele>157.8</ele>
        <time>2021-05-20T14:02:07Z</time>
      </trkpt>
      <trkpt lat="42.2620080" lon="-8.6635610">
        <ele>157.8</ele>
        <time>2021-05-20T14:02:08Z</time>
      </trkpt>
      <trkpt lat="42.2620150" lon="-8.6635650">
        <ele>157.8</ele>
        <time>2021-05-20T14:02:09Z</time>
      </trkpt>
      <trkpt lat="42.2620220" lon="-8.6635700">
        <ele>157.8</ele>
        <time>2021-05-20T14:02:10Z</time>
      </trkpt>
      <trkpt lat="42.2620290" lon="-8.6635750">
        <ele>157.8</ele>
        <time>2021-05-20T14:02:11Z</time>
      </trkpt>
      <trkpt lat="42.2620460" lon="-8.6635840">
        <ele>157.8</ele>
        <time>2021-05-20T14:02:12Z</time>
      </trkpt>
      <trkpt lat="42.2620520" lon="-8.6635890">
        <ele>157.8</ele>
        <time>2021-05-20T14:02:13Z</time>
      </trkpt>
      <trkpt lat="42.2620590" lon="-8.6635930">
        <ele>157.8</ele>
        <time>2021-05-20T14:02:14Z</time>
      </trkpt>
      <trkpt lat="42.2620650" lon="-8.6635980">
        <ele>157.8</ele>
        <time>2021-05-20T14:02:15Z</time>
      </trkpt>
      <trkpt lat="42.2620760" lon="-8.6636060">
        <ele>157.8</ele>
        <time>2021-05-20T14:02:16Z</time>
      </trkpt>
      <trkpt lat="42.2620900" lon="-8.6636160">
        <ele>157.8</ele>
        <time>2021-05-20T14:02:17Z</time>
      </trkpt>
      <trkpt lat="42.2621070" lon="-8.6636230">
        <ele>157.8</ele>
        <time>2021-05-20T14:02:18Z</time>
      </trkpt>
      <trkpt lat="42.2621150" lon="-8.6636290">
        <ele>157.8</ele>
        <time>2021-05-20T14:02:19Z</time>
      </trkpt>
      <trkpt lat="42.2621360" lon="-8.6636390">
        <ele>157.8</ele>
        <time>2021-05-20T14:02:20Z</time>
      </trkpt>
      <trkpt lat="42.2621440" lon="-8.6636430">
        <ele>157.9</ele>
        <time>2021-05-20T14:02:21Z</time>
      </trkpt>
      <trkpt lat="42.2621510" lon="-8.6636480">
        <ele>157.9</ele>
        <time>2021-05-20T14:02:22Z</time>
      </trkpt>
      <trkpt lat="42.2621600" lon="-8.6636510">
        <ele>157.9</ele>
        <time>2021-05-20T14:02:23Z</time>
      </trkpt>
      <trkpt lat="42.2621610" lon="-8.6636560">
        <ele>157.9</ele>
        <time>2021-05-20T14:02:24Z</time>
      </trkpt>
      <trkpt lat="42.2621680" lon="-8.6636570">
        <ele>157.9</ele>
        <time>2021-05-20T14:02:25Z</time>
      </trkpt>
      <trkpt lat="42.2621790" lon="-8.6636660">
        <ele>157.9</ele>
        <time>2021-05-20T14:02:26Z</time>
      </trkpt>
      <trkpt lat="42.2621730" lon="-8.6636700">
        <ele>157.9</ele>
        <time>2021-05-20T14:02:27Z</time>
      </trkpt>
      <trkpt lat="42.2621710" lon="-8.6636680">
        <ele>157.9</ele>
        <time>2021-05-20T14:02:28Z</time>
      </trkpt>
      <trkpt lat="42.2621770" lon="-8.6636670">
        <ele>157.9</ele>
        <time>2021-05-20T14:02:29Z</time>
      </trkpt>
      <trkpt lat="42.2621830" lon="-8.6636640">
        <ele>157.9</ele>
        <time>2021-05-20T14:02:30Z</time>
      </trkpt>
      <trkpt lat="42.2621990" lon="-8.6636700">
        <ele>157.9</ele>
        <time>2021-05-20T14:02:31Z</time>
      </trkpt>
      <trkpt lat="42.2622100" lon="-8.6636740">
        <ele>157.9</ele>
        <time>2021-05-20T14:02:32Z</time>
      </trkpt>
      <trkpt lat="42.2622210" lon="-8.6636770">
        <ele>157.9</ele>
        <time>2021-05-20T14:02:33Z</time>
      </trkpt>
      <trkpt lat="42.2622280" lon="-8.6636770">
        <ele>157.9</ele>
        <time>2021-05-20T14:02:34Z</time>
      </trkpt>
      <trkpt lat="42.2622360" lon="-8.6636760">
        <ele>158.0</ele>
        <time>2021-05-20T14:02:35Z</time>
      </trkpt>
      <trkpt lat="42.2622430" lon="-8.6636760">
        <ele>158.0</ele>
        <time>2021-05-20T14:02:36Z</time>
      </trkpt>
      <trkpt lat="42.2622510" lon="-8.6636760">
        <ele>158.0</ele>
        <time>2021-05-20T14:02:37Z</time>
      </trkpt>
      <trkpt lat="42.2622720" lon="-8.6636860">
        <ele>158.0</ele>
        <time>2021-05-20T14:02:38Z</time>
      </trkpt>
      <trkpt lat="42.2622800" lon="-8.6636900">
        <ele>158.0</ele>
        <time>2021-05-20T14:02:39Z</time>
      </trkpt>
      <trkpt lat="42.2622870" lon="-8.6636930">
        <ele>158.0</ele>
        <time>2021-05-20T14:02:40Z</time>
      </trkpt>
      <trkpt lat="42.2623000" lon="-8.6636940">
        <ele>158.0</ele>
        <time>2021-05-20T14:02:41Z</time>
      </trkpt>
      <trkpt lat="42.2623080" lon="-8.6636950">
        <ele>158.1</ele>
        <time>2021-05-20T14:02:42Z</time>
      </trkpt>
      <trkpt lat="42.2623180" lon="-8.6636940">
        <ele>158.1</ele>
        <time>2021-05-20T14:02:43Z</time>
      </trkpt>
      <trkpt lat="42.2623290" lon="-8.6636920">
        <ele>158.1</ele>
        <time>2021-05-20T14:02:44Z</time>
      </trkpt>
      <trkpt lat="42.2623390" lon="-8.6636910">
        <ele>158.1</ele>
        <time>2021-05-20T14:02:45Z</time>
      </trkpt>
      <trkpt lat="42.2623480" lon="-8.6636920">
        <ele>158.1</ele>
        <time>2021-05-20T14:02:46Z</time>
      </trkpt>
      <trkpt lat="42.2623830" lon="-8.6636880">
        <ele>158.2</ele>
        <time>2021-05-20T14:02:47Z</time>
      </trkpt>
      <trkpt lat="42.2623990" lon="-8.6636860">
        <ele>158.2</ele>
        <time>2021-05-20T14:02:48Z</time>
      </trkpt>
      <trkpt lat="42.2624160" lon="-8.6636790">
        <ele>158.2</ele>
        <time>2021-05-20T14:02:49Z</time>
      </trkpt>
      <trkpt lat="42.2624270" lon="-8.6636780">
        <ele>158.2</ele>
        <time>2021-05-20T14:02:50Z</time>
      </trkpt>
      <trkpt lat="42.2624330" lon="-8.6636780">
        <ele>158.3</ele>
        <time>2021-05-20T14:02:51Z</time>
      </trkpt>
      <trkpt lat="42.2624440" lon="-8.6636750">
        <ele>158.3</ele>
        <time>2021-05-20T14:02:52Z</time>
      </trkpt>
      <trkpt lat="42.2624570" lon="-8.6636720">
        <ele>158.3</ele>
        <time>2021-05-20T14:02:53Z</time>
      </trkpt>
      <trkpt lat="42.2624750" lon="-8.6636720">
        <ele>158.3</ele>
        <time>2021-05-20T14:02:54Z</time>
      </trkpt>
      <trkpt lat="42.2624850" lon="-8.6636700">
        <ele>158.4</ele>
        <time>2021-05-20T14:02:55Z</time>
      </trkpt>
      <trkpt lat="42.2624990" lon="-8.6636650">
        <ele>158.4</ele>
        <time>2021-05-20T14:02:56Z</time>
      </trkpt>
      <trkpt lat="42.2625030" lon="-8.6636640">
        <ele>158.4</ele>
        <time>2021-05-20T14:02:57Z</time>
      </trkpt>
      <trkpt lat="42.2625120" lon="-8.6636590">
        <ele>158.4</ele>
        <time>2021-05-20T14:02:58Z</time>
      </trkpt>
      <trkpt lat="42.2625210" lon="-8.6636580">
        <ele>158.5</ele>
        <time>2021-05-20T14:02:59Z</time>
      </trkpt>
      <trkpt lat="42.2625310" lon="-8.6636550">
        <ele>158.5</ele>
        <time>2021-05-20T14:03:00Z</time>
      </trkpt>
      <trkpt lat="42.2625490" lon="-8.6636520">
        <ele>158.5</ele>
        <time>2021-05-20T14:03:01Z</time>
      </trkpt>
      <trkpt lat="42.2625590" lon="-8.6636490">
        <ele>158.6</ele>
        <time>2021-05-20T14:03:02Z</time>
      </trkpt>
      <trkpt lat="42.2625680" lon="-8.6636470">
        <ele>158.6</ele>
        <time>2021-05-20T14:03:03Z</time>
      </trkpt>
      <trkpt lat="42.2625700" lon="-8.6636410">
        <ele>158.6</ele>
        <time>2021-05-20T14:03:04Z</time>
      </trkpt>
      <trkpt lat="42.2625840" lon="-8.6636410">
        <ele>158.6</ele>
        <time>2021-05-20T14:03:05Z</time>
      </trkpt>
      <trkpt lat="42.2625960" lon="-8.6636410">
        <ele>158.7</ele>
        <time>2021-05-20T14:03:06Z</time>
      </trkpt>
      <trkpt lat="42.2626110" lon="-8.6636390">
        <ele>158.7</ele>
        <time>2021-05-20T14:03:07Z</time>
      </trkpt>
      <trkpt lat="42.2626200" lon="-8.6636390">
        <ele>158.7</ele>
        <time>2021-05-20T14:03:08Z</time>
      </trkpt>
      <trkpt lat="42.2626290" lon="-8.6636400">
        <ele>158.8</ele>
        <time>2021-05-20T14:03:09Z</time>
      </trkpt>
      <trkpt lat="42.2626380" lon="-8.6636400">
        <ele>158.8</ele>
        <time>2021-05-20T14:03:10Z</time>
      </trkpt>
      <trkpt lat="42.2626450" lon="-8.6636390">
        <ele>158.8</ele>
        <time>2021-05-20T14:03:11Z</time>
      </trkpt>
      <trkpt lat="42.2626600" lon="-8.6636320">
        <ele>158.9</ele>
        <time>2021-05-20T14:03:12Z</time>
      </trkpt>
      <trkpt lat="42.2626700" lon="-8.6636310">
        <ele>158.9</ele>
        <time>2021-05-20T14:03:13Z</time>
      </trkpt>
      <trkpt lat="42.2626770" lon="-8.6636350">
        <ele>158.9</ele>
        <time>2021-05-20T14:03:14Z</time>
      </trkpt>
      <trkpt lat="42.2626880" lon="-8.6636330">
        <ele>159.0</ele>
        <time>2021-05-20T14:03:15Z</time>
      </trkpt>
      <trkpt lat="42.2626980" lon="-8.6636370">
        <ele>159.0</ele>
        <time>2021-05-20T14:03:17Z</time>
      </trkpt>
      <trkpt lat="42.2627090" lon="-8.6636300">
        <ele>159.0</ele>
        <time>2021-05-20T14:03:18Z</time>
      </trkpt>
      <trkpt lat="42.2627210" lon="-8.6636270">
        <ele>159.1</ele>
        <time>2021-05-20T14:03:19Z</time>
      </trkpt>
      <trkpt lat="42.2627280" lon="-8.6636190">
        <ele>159.1</ele>
        <time>2021-05-20T14:03:20Z</time>
      </trkpt>
      <trkpt lat="42.2627410" lon="-8.6636170">
        <ele>159.2</ele>
        <time>2021-05-20T14:03:21Z</time>
      </trkpt>
      <trkpt lat="42.2627460" lon="-8.6636170">
        <ele>159.2</ele>
        <time>2021-05-20T14:03:22Z</time>
      </trkpt>
      <trkpt lat="42.2627520" lon="-8.6636120">
        <ele>159.2</ele>
        <time>2021-05-20T14:03:23Z</time>
      </trkpt>
      <trkpt lat="42.2627630" lon="-8.6636090">
        <ele>159.3</ele>
        <time>2021-05-20T14:03:24Z</time>
      </trkpt>
      <trkpt lat="42.2627880" lon="-8.6636010">
        <ele>159.4</ele>
        <time>2021-05-20T14:03:25Z</time>
      </trkpt>
      <trkpt lat="42.2627940" lon="-8.6636020">
        <ele>159.4</ele>
        <time>2021-05-20T14:03:26Z</time>
      </trkpt>
      <trkpt lat="42.2628010" lon="-8.6636020">
        <ele>159.4</ele>
        <time>2021-05-20T14:03:27Z</time>
      </trkpt>
      <trkpt lat="42.2628160" lon="-8.6636020">
        <ele>159.5</ele>
        <time>2021-05-20T14:03:28Z</time>
      </trkpt>
      <trkpt lat="42.2628330" lon="-8.6635980">
        <ele>159.6</ele>
        <time>2021-05-20T14:03:29Z</time>
      </trkpt>
      <trkpt lat="42.2628500" lon="-8.6636000">
        <ele>159.6</ele>
        <time>2021-05-20T14:03:30Z</time>
      </trkpt>
      <trkpt lat="42.2628570" lon="-8.6636000">
        <ele>159.7</ele>
        <time>2021-05-20T14:03:31Z</time>
      </trkpt>
      <trkpt lat="42.2628650" lon="-8.6635990">
        <ele>159.7</ele>
        <time>2021-05-20T14:03:32Z</time>
      </trkpt>
      <trkpt lat="42.2628720" lon="-8.6635990">
        <ele>159.8</ele>
        <time>2021-05-20T14:03:33Z</time>
      </trkpt>
      <trkpt lat="42.2628820" lon="-8.6636020">
        <ele>159.8</ele>
        <time>2021-05-20T14:03:34Z</time>
      </trkpt>
      <trkpt lat="42.2628930" lon="-8.6636050">
        <ele>159.9</ele>
        <time>2021-05-20T14:03:35Z</time>
      </trkpt>
      <trkpt lat="42.2629040" lon="-8.6636050">
        <ele>159.9</ele>
        <time>2021-05-20T14:03:36Z</time>
      </trkpt>
      <trkpt lat="42.2629270" lon="-8.6636030">
        <ele>160.0</ele>
        <time>2021-05-20T14:03:37Z</time>
      </trkpt>
      <trkpt lat="42.2629340" lon="-8.6636040">
        <ele>160.1</ele>
        <time>2021-05-20T14:03:38Z</time>
      </trkpt>
      <trkpt lat="42.2629410" lon="-8.6636050">
        <ele>160.1</ele>
        <time>2021-05-20T14:03:39Z</time>
      </trkpt>
      <trkpt lat="42.2629530" lon="-8.6636090">
        <ele>160.2</ele>
        <time>2021-05-20T14:03:40Z</time>
      </trkpt>
      <trkpt lat="42.2629640" lon="-8.6636100">
        <ele>160.2</ele>
        <time>2021-05-20T14:03:41Z</time>
      </trkpt>
      <trkpt lat="42.2629750" lon="-8.6636000">
        <ele>160.3</ele>
        <time>2021-05-20T14:03:42Z</time>
      </trkpt>
      <trkpt lat="42.2629810" lon="-8.6636020">
        <ele>160.3</ele>
        <time>2021-05-20T14:03:43Z</time>
      </trkpt>
      <trkpt lat="42.2629960" lon="-8.6636020">
        <ele>160.4</ele>
        <time>2021-05-20T14:03:44Z</time>
      </trkpt>
      <trkpt lat="42.2630100" lon="-8.6635970">
        <ele>160.5</ele>
        <time>2021-05-20T14:03:45Z</time>
      </trkpt>
      <trkpt lat="42.2630290" lon="-8.6635930">
        <ele>160.6</ele>
        <time>2021-05-20T14:03:46Z</time>
      </trkpt>
      <trkpt lat="42.2630370" lon="-8.6635920">
        <ele>160.6</ele>
        <time>2021-05-20T14:03:47Z</time>
      </trkpt>
      <trkpt lat="42.2630460" lon="-8.6635910">
        <ele>160.7</ele>
        <time>2021-05-20T14:03:48Z</time>
      </trkpt>
      <trkpt lat="42.2630550" lon="-8.6635900">
        <ele>160.7</ele>
        <time>2021-05-20T14:03:49Z</time>
      </trkpt>
      <trkpt lat="42.2630700" lon="-8.6635830">
        <ele>160.8</ele>
        <time>2021-05-20T14:03:50Z</time>
      </trkpt>
      <trkpt lat="42.2630760" lon="-8.6635820">
        <ele>160.8</ele>
        <time>2021-05-20T14:03:51Z</time>
      </trkpt>
      <trkpt lat="42.2630870" lon="-8.6635800">
        <ele>160.9</ele>
        <time>2021-05-20T14:03:52Z</time>
      </trkpt>
      <trkpt lat="42.2630960" lon="-8.6635800">
        <ele>160.9</ele>
        <time>2021-05-20T14:03:53Z</time>
      </trkpt>
      <trkpt lat="42.2631050" lon="-8.6635840">
        <ele>161.0</ele>
        <time>2021-05-20T14:03:54Z</time>
      </trkpt>
      <trkpt lat="42.2631130" lon="-8.6635810">
        <ele>161.0</ele>
        <time>2021-05-20T14:03:55Z</time>
      </trkpt>
      <trkpt lat="42.2631280" lon="-8.6635770">
        <ele>161.1</ele>
        <time>2021-05-20T14:03:56Z</time>
      </trkpt>
      <trkpt lat="42.2631420" lon="-8.6635800">
        <ele>161.2</ele>
        <time>2021-05-20T14:03:57Z</time>
      </trkpt>
      <trkpt lat="42.2631490" lon="-8.6635800">
        <ele>161.2</ele>
        <time>2021-05-20T14:03:58Z</time>
      </trkpt>
      <trkpt lat="42.2631690" lon="-8.6635740">
        <ele>161.3</ele>
        <time>2021-05-20T14:03:59Z</time>
      </trkpt>
      <trkpt lat="42.2631760" lon="-8.6635700">
        <ele>161.4</ele>
        <time>2021-05-20T14:04:00Z</time>
      </trkpt>
      <trkpt lat="42.2631860" lon="-8.6635710">
        <ele>161.4</ele>
        <time>2021-05-20T14:04:01Z</time>
      </trkpt>
      <trkpt lat="42.2631990" lon="-8.6635660">
        <ele>161.5</ele>
        <time>2021-05-20T14:04:02Z</time>
      </trkpt>
      <trkpt lat="42.2632180" lon="-8.6635610">
        <ele>161.6</ele>
        <time>2021-05-20T14:04:03Z</time>
      </trkpt>
      <trkpt lat="42.2632250" lon="-8.6635610">
        <ele>161.6</ele>
        <time>2021-05-20T14:04:04Z</time>
      </trkpt>
      <trkpt lat="42.2632330" lon="-8.6635600">
        <ele>161.7</ele>
        <time>2021-05-20T14:04:05Z</time>
      </trkpt>
      <trkpt lat="42.2632400" lon="-8.6635600">
        <ele>161.7</ele>
        <time>2021-05-20T14:04:06Z</time>
      </trkpt>
      <trkpt lat="42.2632540" lon="-8.6635630">
        <ele>161.8</ele>
        <time>2021-05-20T14:04:07Z</time>
      </trkpt>
      <trkpt lat="42.2632620" lon="-8.6635650">
        <ele>161.8</ele>
        <time>2021-05-20T14:04:08Z</time>
      </trkpt>
      <trkpt lat="42.2632690" lon="-8.6635680">
        <ele>161.8</ele>
        <time>2021-05-20T14:04:09Z</time>
      </trkpt>
      <trkpt lat="42.2632760" lon="-8.6635700">
        <ele>161.9</ele>
        <time>2021-05-20T14:04:10Z</time>
      </trkpt>
      <trkpt lat="42.2632830" lon="-8.6635710">
        <ele>161.9</ele>
        <time>2021-05-20T14:04:11Z</time>
      </trkpt>
      <trkpt lat="42.2632860" lon="-8.6635740">
        <ele>161.9</ele>
        <time>2021-05-20T14:04:12Z</time>
      </trkpt>
      <trkpt lat="42.2632880" lon="-8.6635760">
        <ele>161.9</ele>
        <time>2021-05-20T14:04:13Z</time>
      </trkpt>
      <trkpt lat="42.2632900" lon="-8.6635790">
        <ele>161.9</ele>
        <time>2021-05-20T14:04:14Z</time>
      </trkpt>
      <trkpt lat="42.2632920" lon="-8.6635820">
        <ele>161.9</ele>
        <time>2021-05-20T14:04:15Z</time>
      </trkpt>
      <trkpt lat="42.2632950" lon="-8.6635850">
        <ele>162.0</ele>
        <time>2021-05-20T14:04:16Z</time>
      </trkpt>
      <trkpt lat="42.2632970" lon="-8.6635880">
        <ele>162.0</ele>
        <time>2021-05-20T14:04:17Z</time>
      </trkpt>
      <trkpt lat="42.2632990" lon="-8.6635910">
        <ele>162.0</ele>
        <time>2021-05-20T14:04:18Z</time>
      </trkpt>
      <trkpt lat="42.2633010" lon="-8.6635930">
        <ele>162.0</ele>
        <time>2021-05-20T14:04:19Z</time>
      </trkpt>
      <trkpt lat="42.2633040" lon="-8.6635960">
        <ele>162.0</ele>
        <time>2021-05-20T14:04:20Z</time>
      </trkpt>
      <trkpt lat="42.2633060" lon="-8.6635990">
        <ele>162.0</ele>
        <time>2021-05-20T14:04:21Z</time>
      </trkpt>
      <trkpt lat="42.2633100" lon="-8.6635960">
        <ele>162.0</ele>
        <time>2021-05-20T14:04:22Z</time>
      </trkpt>
      <trkpt lat="42.2633130" lon="-8.6635850">
        <ele>162.1</ele>
        <time>2021-05-20T14:04:23Z</time>
      </trkpt>
      <trkpt lat="42.2633290" lon="-8.6635840">
        <ele>162.1</ele>
        <time>2021-05-20T14:04:24Z</time>
      </trkpt>
      <trkpt lat="42.2633300" lon="-8.6635840">
        <ele>162.2</ele>
        <time>2021-05-20T14:04:25Z</time>
      </trkpt>
      <trkpt lat="42.2633340" lon="-8.6635830">
        <ele>162.2</ele>
        <time>2021-05-20T14:04:26Z</time>
      </trkpt>
      <trkpt lat="42.2633400" lon="-8.6635770">
        <ele>162.2</ele>
        <time>2021-05-20T14:04:27Z</time>
      </trkpt>
      <trkpt lat="42.2633470" lon="-8.6635790">
        <ele>162.2</ele>
        <time>2021-05-20T14:04:28Z</time>
      </trkpt>
      <trkpt lat="42.2633480" lon="-8.6635740">
        <ele>162.2</ele>
        <time>2021-05-20T14:04:29Z</time>
      </trkpt>
      <trkpt lat="42.2633460" lon="-8.6635750">
        <ele>162.3</ele>
        <time>2021-05-20T14:04:30Z</time>
      </trkpt>
      <trkpt lat="42.2633570" lon="-8.6635700">
        <ele>162.3</ele>
        <time>2021-05-20T14:04:31Z</time>
      </trkpt>
      <trkpt lat="42.2633640" lon="-8.6635580">
        <ele>162.4</ele>
        <time>2021-05-20T14:04:32Z</time>
      </trkpt>
      <trkpt lat="42.2633750" lon="-8.6635520">
        <ele>162.4</ele>
        <time>2021-05-20T14:04:33Z</time>
      </trkpt>
      <trkpt lat="42.2633830" lon="-8.6635460">
        <ele>162.4</ele>
        <time>2021-05-20T14:04:34Z</time>
      </trkpt>
      <trkpt lat="42.2633910" lon="-8.6635500">
        <ele>162.5</ele>
        <time>2021-05-20T14:04:35Z</time>
      </trkpt>
      <trkpt lat="42.2633940" lon="-8.6635570">
        <ele>162.5</ele>
        <time>2021-05-20T14:04:36Z</time>
      </trkpt>
      <trkpt lat="42.2634070" lon="-8.6635540">
        <ele>162.6</ele>
        <time>2021-05-20T14:04:37Z</time>
      </trkpt>
      <trkpt lat="42.2634200" lon="-8.6635530">
        <ele>162.6</ele>
        <time>2021-05-20T14:04:38Z</time>
      </trkpt>
      <trkpt lat="42.2634270" lon="-8.6635490">
        <ele>162.6</ele>
        <time>2021-05-20T14:04:39Z</time>
      </trkpt>
      <trkpt lat="42.2634320" lon="-8.6635420">
        <ele>162.6</ele>
        <time>2021-05-20T14:04:40Z</time>
      </trkpt>
      <trkpt lat="42.2634360" lon="-8.6635320">
        <ele>162.6</ele>
        <time>2021-05-20T14:04:41Z</time>
      </trkpt>
      <trkpt lat="42.2634420" lon="-8.6635280">
        <ele>162.6</ele>
        <time>2021-05-20T14:04:42Z</time>
      </trkpt>
      <trkpt lat="42.2634360" lon="-8.6635250">
        <ele>162.6</ele>
        <time>2021-05-20T14:04:43Z</time>
      </trkpt>
      <trkpt lat="42.2634500" lon="-8.6635150">
        <ele>162.6</ele>
        <time>2021-05-20T14:04:44Z</time>
      </trkpt>
      <trkpt lat="42.2634570" lon="-8.6635070">
        <ele>162.6</ele>
        <time>2021-05-20T14:04:45Z</time>
      </trkpt>
      <trkpt lat="42.2634650" lon="-8.6635040">
        <ele>162.6</ele>
        <time>2021-05-20T14:04:46Z</time>
      </trkpt>
      <trkpt lat="42.2634690" lon="-8.6635080">
        <ele>162.6</ele>
        <time>2021-05-20T14:04:47Z</time>
      </trkpt>
      <trkpt lat="42.2634720" lon="-8.6635090">
        <ele>162.6</ele>
        <time>2021-05-20T14:04:48Z</time>
      </trkpt>
      <trkpt lat="42.2634840" lon="-8.6635130">
        <ele>162.6</ele>
        <time>2021-05-20T14:04:49Z</time>
      </trkpt>
      <trkpt lat="42.2634960" lon="-8.6635190">
        <ele>162.6</ele>
        <time>2021-05-20T14:04:50Z</time>
      </trkpt>
      <trkpt lat="42.2635100" lon="-8.6635190">
        <ele>162.6</ele>
        <time>2021-05-20T14:04:51Z</time>
      </trkpt>
      <trkpt lat="42.2635250" lon="-8.6635140">
        <ele>162.5</ele>
        <time>2021-05-20T14:04:52Z</time>
      </trkpt>
      <trkpt lat="42.2635290" lon="-8.6635120">
        <ele>162.5</ele>
        <time>2021-05-20T14:04:53Z</time>
      </trkpt>
      <trkpt lat="42.2635420" lon="-8.6635110">
        <ele>162.5</ele>
        <time>2021-05-20T14:04:54Z</time>
      </trkpt>
      <trkpt lat="42.2635520" lon="-8.6635120">
        <ele>162.5</ele>
        <time>2021-05-20T14:04:55Z</time>
      </trkpt>
      <trkpt lat="42.2635560" lon="-8.6635170">
        <ele>162.4</ele>
        <time>2021-05-20T14:04:56Z</time>
      </trkpt>
      <trkpt lat="42.2635650" lon="-8.6635150">
        <ele>162.4</ele>
        <time>2021-05-20T14:04:57Z</time>
      </trkpt>
      <trkpt lat="42.2635760" lon="-8.6635170">
        <ele>162.4</ele>
        <time>2021-05-20T14:04:58Z</time>
      </trkpt>
      <trkpt lat="42.2635870" lon="-8.6635170">
        <ele>162.3</ele>
        <time>2021-05-20T14:04:59Z</time>
      </trkpt>
      <trkpt lat="42.2635960" lon="-8.6635180">
        <ele>162.3</ele>
        <time>2021-05-20T14:05:00Z</time>
      </trkpt>
      <trkpt lat="42.2636050" lon="-8.6635190">
        <ele>162.3</ele>
        <time>2021-05-20T14:05:01Z</time>
      </trkpt>
      <trkpt lat="42.2636170" lon="-8.6635240">
        <ele>162.2</ele>
        <time>2021-05-20T14:05:02Z</time>
      </trkpt>
      <trkpt lat="42.2636380" lon="-8.6635340">
        <ele>162.1</ele>
        <time>2021-05-20T14:05:03Z</time>
      </trkpt>
      <trkpt lat="42.2636470" lon="-8.6635380">
        <ele>162.1</ele>
        <time>2021-05-20T14:05:04Z</time>
      </trkpt>
      <trkpt lat="42.2636560" lon="-8.6635430">
        <ele>162.0</ele>
        <time>2021-05-20T14:05:05Z</time>
      </trkpt>
      <trkpt lat="42.2636700" lon="-8.6635490">
        <ele>162.0</ele>
        <time>2021-05-20T14:05:06Z</time>
      </trkpt>
      <trkpt lat="42.2636870" lon="-8.6635570">
        <ele>161.9</ele>
        <time>2021-05-20T14:05:07Z</time>
      </trkpt>
      <trkpt lat="42.2636980" lon="-8.6635580">
        <ele>161.8</ele>
        <time>2021-05-20T14:05:08Z</time>
      </trkpt>
      <trkpt lat="42.2637050" lon="-8.6635660">
        <ele>161.8</ele>
        <time>2021-05-20T14:05:09Z</time>
      </trkpt>
      <trkpt lat="42.2637110" lon="-8.6635740">
        <ele>161.7</ele>
        <time>2021-05-20T14:05:10Z</time>
      </trkpt>
      <trkpt lat="42.2637170" lon="-8.6635720">
        <ele>161.7</ele>
        <time>2021-05-20T14:05:11Z</time>
      </trkpt>
      <trkpt lat="42.2637320" lon="-8.6635760">
        <ele>161.6</ele>
        <time>2021-05-20T14:05:12Z</time>
      </trkpt>
      <trkpt lat="42.2637380" lon="-8.6635800">
        <ele>161.6</ele>
        <time>2021-05-20T14:05:13Z</time>
      </trkpt>
      <trkpt lat="42.2637470" lon="-8.6635850">
        <ele>161.5</ele>
        <time>2021-05-20T14:05:14Z</time>
      </trkpt>
      <trkpt lat="42.2637660" lon="-8.6636010">
        <ele>161.4</ele>
        <time>2021-05-20T14:05:15Z</time>
      </trkpt>
      <trkpt lat="42.2637740" lon="-8.6636050">
        <ele>161.3</ele>
        <time>2021-05-20T14:05:16Z</time>
      </trkpt>
      <trkpt lat="42.2637820" lon="-8.6636080">
        <ele>161.3</ele>
        <time>2021-05-20T14:05:17Z</time>
      </trkpt>
      <trkpt lat="42.2637870" lon="-8.6636120">
        <ele>161.3</ele>
        <time>2021-05-20T14:05:18Z</time>
      </trkpt>
      <trkpt lat="42.2638030" lon="-8.6636210">
        <ele>161.2</ele>
        <time>2021-05-20T14:05:19Z</time>
      </trkpt>
      <trkpt lat="42.2638050" lon="-8.6636280">
        <ele>161.1</ele>
        <time>2021-05-20T14:05:20Z</time>
      </trkpt>
      <trkpt lat="42.2638130" lon="-8.6636400">
        <ele>161.1</ele>
        <time>2021-05-20T14:05:21Z</time>
      </trkpt>
      <trkpt lat="42.2638210" lon="-8.6636460">
        <ele>161.0</ele>
        <time>2021-05-20T14:05:22Z</time>
      </trkpt>
      <trkpt lat="42.2638250" lon="-8.6636460">
        <ele>161.0</ele>
        <time>2021-05-20T14:05:23Z</time>
      </trkpt>
      <trkpt lat="42.2638350" lon="-8.6636550">
        <ele>160.9</ele>
        <time>2021-05-20T14:05:24Z</time>
      </trkpt>
      <trkpt lat="42.2638430" lon="-8.6636660">
        <ele>160.8</ele>
        <time>2021-05-20T14:05:25Z</time>
      </trkpt>
      <trkpt lat="42.2638470" lon="-8.6636720">
        <ele>160.8</ele>
        <time>2021-05-20T14:05:26Z</time>
      </trkpt>
      <trkpt lat="42.2638570" lon="-8.6636790">
        <ele>160.7</ele>
        <time>2021-05-20T14:05:27Z</time>
      </trkpt>
      <trkpt lat="42.2638660" lon="-8.6636920">
        <ele>160.7</ele>
        <time>2021-05-20T14:05:28Z</time>
      </trkpt>
      <trkpt lat="42.2638690" lon="-8.6636910">
        <ele>160.6</ele>
        <time>2021-05-20T14:05:29Z</time>
      </trkpt>
      <trkpt lat="42.2638840" lon="-8.6637030">
        <ele>160.5</ele>
        <time>2021-05-20T14:05:30Z</time>
      </trkpt>
      <trkpt lat="42.2638930" lon="-8.6637080">
        <ele>160.5</ele>
        <time>2021-05-20T14:05:31Z</time>
      </trkpt>
      <trkpt lat="42.2638990" lon="-8.6637150">
        <ele>160.4</ele>
        <time>2021-05-20T14:05:32Z</time>
      </trkpt>
      <trkpt lat="42.2639030" lon="-8.6637170">
        <ele>160.4</ele>
        <time>2021-05-20T14:05:33Z</time>
      </trkpt>
      <trkpt lat="42.2639110" lon="-8.6637220">
        <ele>160.3</ele>
        <time>2021-05-20T14:05:34Z</time>
      </trkpt>
      <trkpt lat="42.2639150" lon="-8.6637390">
        <ele>160.3</ele>
        <time>2021-05-20T14:05:35Z</time>
      </trkpt>
      <trkpt lat="42.2639220" lon="-8.6637450">
        <ele>160.2</ele>
        <time>2021-05-20T14:05:36Z</time>
      </trkpt>
      <trkpt lat="42.2639280" lon="-8.6637520">
        <ele>160.2</ele>
        <time>2021-05-20T14:05:37Z</time>
      </trkpt>
      <trkpt lat="42.2639350" lon="-8.6637580">
        <ele>160.1</ele>
        <time>2021-05-20T14:05:38Z</time>
      </trkpt>
      <trkpt lat="42.2639490" lon="-8.6637680">
        <ele>160.0</ele>
        <time>2021-05-20T14:05:39Z</time>
      </trkpt>
      <trkpt lat="42.2639590" lon="-8.6637770">
        <ele>160.0</ele>
        <time>2021-05-20T14:05:40Z</time>
      </trkpt>
      <trkpt lat="42.2639690" lon="-8.6637860">
        <ele>159.9</ele>
        <time>2021-05-20T14:05:41Z</time>
      </trkpt>
      <trkpt lat="42.2639830" lon="-8.6638010">
        <ele>159.8</ele>
        <time>2021-05-20T14:05:42Z</time>
      </trkpt>
      <trkpt lat="42.2639910" lon="-8.6638090">
        <ele>159.8</ele>
        <time>2021-05-20T14:05:43Z</time>
      </trkpt>
      <trkpt lat="42.2639990" lon="-8.6638120">
        <ele>159.8</ele>
        <time>2021-05-20T14:05:44Z</time>
      </trkpt>
      <trkpt lat="42.2640140" lon="-8.6638150">
        <ele>159.7</ele>
        <time>2021-05-20T14:05:45Z</time>
      </trkpt>
      <trkpt lat="42.2640190" lon="-8.6638170">
        <ele>159.7</ele>
        <time>2021-05-20T14:05:46Z</time>
      </trkpt>
      <trkpt lat="42.2640320" lon="-8.6638210">
        <ele>159.6</ele>
        <time>2021-05-20T14:05:47Z</time>
      </trkpt>
      <trkpt lat="42.2640380" lon="-8.6638220">
        <ele>159.6</ele>
        <time>2021-05-20T14:05:48Z</time>
      </trkpt>
      <trkpt lat="42.2640520" lon="-8.6638240">
        <ele>159.6</ele>
        <time>2021-05-20T14:05:49Z</time>
      </trkpt>
      <trkpt lat="42.2640640" lon="-8.6638260">
        <ele>159.5</ele>
        <time>2021-05-20T14:05:50Z</time>
      </trkpt>
      <trkpt lat="42.2640800" lon="-8.6638360">
        <ele>159.5</ele>
        <time>2021-05-20T14:05:51Z</time>
      </trkpt>
      <trkpt lat="42.2640980" lon="-8.6638360">
        <ele>159.4</ele>
        <time>2021-05-20T14:05:52Z</time>
      </trkpt>
      <trkpt lat="42.2641070" lon="-8.6638390">
        <ele>159.4</ele>
        <time>2021-05-20T14:05:53Z</time>
      </trkpt>
      <trkpt lat="42.2641170" lon="-8.6638430">
        <ele>159.4</ele>
        <time>2021-05-20T14:05:54Z</time>
      </trkpt>
      <trkpt lat="42.2641260" lon="-8.6638490">
        <ele>159.3</ele>
        <time>2021-05-20T14:05:55Z</time>
      </trkpt>
      <trkpt lat="42.2641410" lon="-8.6638410">
        <ele>159.3</ele>
        <time>2021-05-20T14:05:56Z</time>
      </trkpt>
      <trkpt lat="42.2641480" lon="-8.6638400">
        <ele>159.3</ele>
        <time>2021-05-20T14:05:57Z</time>
      </trkpt>
      <trkpt lat="42.2641660" lon="-8.6638380">
        <ele>159.2</ele>
        <time>2021-05-20T14:05:58Z</time>
      </trkpt>
      <trkpt lat="42.2641600" lon="-8.6638170">
        <ele>159.2</ele>
        <time>2021-05-20T14:05:59Z</time>
      </trkpt>
      <trkpt lat="42.2641620" lon="-8.6638010">
        <ele>159.2</ele>
        <time>2021-05-20T14:06:00Z</time>
      </trkpt>
      <trkpt lat="42.2641770" lon="-8.6637870">
        <ele>159.1</ele>
        <time>2021-05-20T14:06:01Z</time>
      </trkpt>
      <trkpt lat="42.2641810" lon="-8.6637770">
        <ele>159.1</ele>
        <time>2021-05-20T14:06:02Z</time>
      </trkpt>
      <trkpt lat="42.2641860" lon="-8.6637670">
        <ele>159.1</ele>
        <time>2021-05-20T14:06:03Z</time>
      </trkpt>
      <trkpt lat="42.2641900" lon="-8.6637570">
        <ele>159.1</ele>
        <time>2021-05-20T14:06:04Z</time>
      </trkpt>
      <trkpt lat="42.2642040" lon="-8.6637450">
        <ele>159.1</ele>
        <time>2021-05-20T14:06:05Z</time>
      </trkpt>
      <trkpt lat="42.2642150" lon="-8.6637360">
        <ele>159.1</ele>
        <time>2021-05-20T14:06:06Z</time>
      </trkpt>
      <trkpt lat="42.2642230" lon="-8.6637250">
        <ele>159.1</ele>
        <time>2021-05-20T14:06:07Z</time>
      </trkpt>
      <trkpt lat="42.2642280" lon="-8.6637220">
        <ele>159.1</ele>
        <time>2021-05-20T14:06:08Z</time>
      </trkpt>
      <trkpt lat="42.2642310" lon="-8.6637150">
        <ele>159.1</ele>
        <time>2021-05-20T14:06:09Z</time>
      </trkpt>
      <trkpt lat="42.2642370" lon="-8.6637010">
        <ele>159.0</ele>
        <time>2021-05-20T14:06:10Z</time>
      </trkpt>
      <trkpt lat="42.2642450" lon="-8.6636970">
        <ele>159.0</ele>
        <time>2021-05-20T14:06:11Z</time>
      </trkpt>
      <trkpt lat="42.2642630" lon="-8.6636850">
        <ele>159.0</ele>
        <time>2021-05-20T14:06:12Z</time>
      </trkpt>
      <trkpt lat="42.2642790" lon="-8.6636840">
        <ele>159.0</ele>
        <time>2021-05-20T14:06:13Z</time>
      </trkpt>
      <trkpt lat="42.2642940" lon="-8.6636930">
        <ele>159.0</ele>
        <time>2021-05-20T14:06:14Z</time>
      </trkpt>
      <trkpt lat="42.2643050" lon="-8.6636930">
        <ele>159.0</ele>
        <time>2021-05-20T14:06:15Z</time>
      </trkpt>
      <trkpt lat="42.2643140" lon="-8.6636880">
        <ele>159.0</ele>
        <time>2021-05-20T14:06:16Z</time>
      </trkpt>
      <trkpt lat="42.2643270" lon="-8.6636820">
        <ele>159.0</ele>
        <time>2021-05-20T14:06:17Z</time>
      </trkpt>
      <trkpt lat="42.2643320" lon="-8.6636830">
        <ele>159.0</ele>
        <time>2021-05-20T14:06:18Z</time>
      </trkpt>
      <trkpt lat="42.2643450" lon="-8.6636780">
        <ele>159.0</ele>
        <time>2021-05-20T14:06:19Z</time>
      </trkpt>
      <trkpt lat="42.2643510" lon="-8.6636700">
        <ele>159.0</ele>
        <time>2021-05-20T14:06:20Z</time>
      </trkpt>
      <trkpt lat="42.2643560" lon="-8.6636690">
        <ele>159.0</ele>
        <time>2021-05-20T14:06:21Z</time>
      </trkpt>
      <trkpt lat="42.2643620" lon="-8.6636610">
        <ele>159.0</ele>
        <time>2021-05-20T14:06:22Z</time>
      </trkpt>
      <trkpt lat="42.2643730" lon="-8.6636500">
        <ele>159.0</ele>
        <time>2021-05-20T14:06:23Z</time>
      </trkpt>
      <trkpt lat="42.2643770" lon="-8.6636420">
        <ele>159.0</ele>
        <time>2021-05-20T14:06:24Z</time>
      </trkpt>
      <trkpt lat="42.2643890" lon="-8.6636370">
        <ele>159.1</ele>
        <time>2021-05-20T14:06:25Z</time>
      </trkpt>
      <trkpt lat="42.2644000" lon="-8.6636310">
        <ele>159.1</ele>
        <time>2021-05-20T14:06:26Z</time>
      </trkpt>
      <trkpt lat="42.2644080" lon="-8.6636280">
        <ele>159.1</ele>
        <time>2021-05-20T14:06:27Z</time>
      </trkpt>
      <trkpt lat="42.2644100" lon="-8.6636280">
        <ele>159.1</ele>
        <time>2021-05-20T14:06:28Z</time>
      </trkpt>
      <trkpt lat="42.2644030" lon="-8.6636350">
        <ele>159.1</ele>
        <time>2021-05-20T14:06:29Z</time>
      </trkpt>
      <trkpt lat="42.2644010" lon="-8.6636310">
        <ele>159.1</ele>
        <time>2021-05-20T14:06:30Z</time>
      </trkpt>
      <trkpt lat="42.2643970" lon="-8.6636280">
        <ele>159.1</ele>
        <time>2021-05-20T14:06:31Z</time>
      </trkpt>
      <trkpt lat="42.2643890" lon="-8.6636260">
        <ele>159.1</ele>
        <time>2021-05-20T14:06:32Z</time>
      </trkpt>
      <trkpt lat="42.2643850" lon="-8.6636230">
        <ele>159.1</ele>
        <time>2021-05-20T14:06:33Z</time>
      </trkpt>
      <trkpt lat="42.2643860" lon="-8.6636200">
        <ele>159.1</ele>
        <time>2021-05-20T14:06:34Z</time>
      </trkpt>
      <trkpt lat="42.2643950" lon="-8.6636100">
        <ele>159.1</ele>
        <time>2021-05-20T14:06:35Z</time>
      </trkpt>
      <trkpt lat="42.2644010" lon="-8.6636070">
        <ele>159.1</ele>
        <time>2021-05-20T14:06:36Z</time>
      </trkpt>
      <trkpt lat="42.2644110" lon="-8.6636060">
        <ele>159.1</ele>
        <time>2021-05-20T14:06:37Z</time>
      </trkpt>
      <trkpt lat="42.2644220" lon="-8.6636010">
        <ele>159.1</ele>
        <time>2021-05-20T14:06:38Z</time>
      </trkpt>
      <trkpt lat="42.2644380" lon="-8.6636000">
        <ele>159.1</ele>
        <time>2021-05-20T14:06:39Z</time>
      </trkpt>
      <trkpt lat="42.2644520" lon="-8.6635920">
        <ele>159.2</ele>
        <time>2021-05-20T14:06:40Z</time>
      </trkpt>
      <trkpt lat="42.2644590" lon="-8.6635870">
        <ele>159.2</ele>
        <time>2021-05-20T14:06:41Z</time>
      </trkpt>
      <trkpt lat="42.2644690" lon="-8.6635810">
        <ele>159.2</ele>
        <time>2021-05-20T14:06:42Z</time>
      </trkpt>
      <trkpt lat="42.2644820" lon="-8.6635720">
        <ele>159.2</ele>
        <time>2021-05-20T14:06:43Z</time>
      </trkpt>
      <trkpt lat="42.2644920" lon="-8.6635630">
        <ele>159.2</ele>
        <time>2021-05-20T14:06:44Z</time>
      </trkpt>
      <trkpt lat="42.2644930" lon="-8.6635650">
        <ele>159.2</ele>
        <time>2021-05-20T14:06:45Z</time>
      </trkpt>
      <trkpt lat="42.2644950" lon="-8.6635630">
        <ele>159.2</ele>
        <time>2021-05-20T14:06:46Z</time>
      </trkpt>
      <trkpt lat="42.2645150" lon="-8.6635530">
        <ele>159.2</ele>
        <time>2021-05-20T14:06:47Z</time>
      </trkpt>
      <trkpt lat="42.2645200" lon="-8.6635550">
        <ele>159.2</ele>
        <time>2021-05-20T14:06:48Z</time>
      </trkpt>
      <trkpt lat="42.2645200" lon="-8.6635550">
        <ele>159.2</ele>
        <time>2021-05-20T14:06:49Z</time>
      </trkpt>
      <trkpt lat="42.2645180" lon="-8.6635530">
        <ele>159.2</ele>
        <time>2021-05-20T14:06:50Z</time>
      </trkpt>
      <trkpt lat="42.2645150" lon="-8.6635560">
        <ele>159.2</ele>
        <time>2021-05-20T14:06:51Z</time>
      </trkpt>
      <trkpt lat="42.2645140" lon="-8.6635550">
        <ele>159.2</ele>
        <time>2021-05-20T14:06:52Z</time>
      </trkpt>
      <trkpt lat="42.2645140" lon="-8.6635530">
        <ele>159.2</ele>
        <time>2021-05-20T14:06:53Z</time>
      </trkpt>
      <trkpt lat="42.2645150" lon="-8.6635520">
        <ele>159.2</ele>
        <time>2021-05-20T14:06:54Z</time>
      </trkpt>
      <trkpt lat="42.2645130" lon="-8.6635520">
        <ele>159.2</ele>
        <time>2021-05-20T14:06:55Z</time>
      </trkpt>
      <trkpt lat="42.2645130" lon="-8.6635510">
        <ele>159.2</ele>
        <time>2021-05-20T14:06:56Z</time>
      </trkpt>
      <trkpt lat="42.2645190" lon="-8.6635480">
        <ele>159.3</ele>
        <time>2021-05-20T14:06:57Z</time>
      </trkpt>
      <trkpt lat="42.2645250" lon="-8.6635510">
        <ele>159.3</ele>
        <time>2021-05-20T14:06:58Z</time>
      </trkpt>
      <trkpt lat="42.2645430" lon="-8.6635550">
        <ele>159.3</ele>
        <time>2021-05-20T14:06:59Z</time>
      </trkpt>
      <trkpt lat="42.2645560" lon="-8.6635560">
        <ele>159.3</ele>
        <time>2021-05-20T14:07:00Z</time>
      </trkpt>
      <trkpt lat="42.2645640" lon="-8.6635540">
        <ele>159.3</ele>
        <time>2021-05-20T14:07:01Z</time>
      </trkpt>
      <trkpt lat="42.2645660" lon="-8.6635520">
        <ele>159.3</ele>
        <time>2021-05-20T14:07:02Z</time>
      </trkpt>
      <trkpt lat="42.2645740" lon="-8.6635460">
        <ele>159.3</ele>
        <time>2021-05-20T14:07:03Z</time>
      </trkpt>
      <trkpt lat="42.2645880" lon="-8.6635370">
        <ele>159.3</ele>
        <time>2021-05-20T14:07:04Z</time>
      </trkpt>
      <trkpt lat="42.2646140" lon="-8.6635230">
        <ele>159.4</ele>
        <time>2021-05-20T14:07:05Z</time>
      </trkpt>
      <trkpt lat="42.2646210" lon="-8.6635180">
        <ele>159.4</ele>
        <time>2021-05-20T14:07:06Z</time>
      </trkpt>
      <trkpt lat="42.2646330" lon="-8.6635180">
        <ele>159.4</ele>
        <time>2021-05-20T14:07:07Z</time>
      </trkpt>
      <trkpt lat="42.2646410" lon="-8.6635170">
        <ele>159.4</ele>
        <time>2021-05-20T14:07:08Z</time>
      </trkpt>
      <trkpt lat="42.2646500" lon="-8.6635160">
        <ele>159.4</ele>
        <time>2021-05-20T14:07:09Z</time>
      </trkpt>
      <trkpt lat="42.2646580" lon="-8.6635150">
        <ele>159.4</ele>
        <time>2021-05-20T14:07:10Z</time>
      </trkpt>
      <trkpt lat="42.2646610" lon="-8.6635120">
        <ele>159.4</ele>
        <time>2021-05-20T14:07:11Z</time>
      </trkpt>
      <trkpt lat="42.2646720" lon="-8.6635060">
        <ele>159.4</ele>
        <time>2021-05-20T14:07:12Z</time>
      </trkpt>
      <trkpt lat="42.2646810" lon="-8.6635040">
        <ele>159.5</ele>
        <time>2021-05-20T14:07:13Z</time>
      </trkpt>
      <trkpt lat="42.2646910" lon="-8.6635060">
        <ele>159.5</ele>
        <time>2021-05-20T14:07:14Z</time>
      </trkpt>
      <trkpt lat="42.2647030" lon="-8.6635060">
        <ele>159.5</ele>
        <time>2021-05-20T14:07:15Z</time>
      </trkpt>
      <trkpt lat="42.2647170" lon="-8.6635160">
        <ele>159.5</ele>
        <time>2021-05-20T14:07:16Z</time>
      </trkpt>
      <trkpt lat="42.2647380" lon="-8.6635230">
        <ele>159.5</ele>
        <time>2021-05-20T14:07:17Z</time>
      </trkpt>
      <trkpt lat="42.2647500" lon="-8.6635260">
        <ele>159.6</ele>
        <time>2021-05-20T14:07:18Z</time>
      </trkpt>
      <trkpt lat="42.2647610" lon="-8.6635290">
        <ele>159.6</ele>
        <time>2021-05-20T14:07:19Z</time>
      </trkpt>
      <trkpt lat="42.2647780" lon="-8.6635320">
        <ele>159.6</ele>
        <time>2021-05-20T14:07:20Z</time>
      </trkpt>
      <trkpt lat="42.2647910" lon="-8.6635340">
        <ele>159.6</ele>
        <time>2021-05-20T14:07:21Z</time>
      </trkpt>
      <trkpt lat="42.2648150" lon="-8.6635300">
        <ele>159.6</ele>
        <time>2021-05-20T14:07:22Z</time>
      </trkpt>
      <trkpt lat="42.2648240" lon="-8.6635280">
        <ele>159.7</ele>
        <time>2021-05-20T14:07:23Z</time>
      </trkpt>
      <trkpt lat="42.2648330" lon="-8.6635250">
        <ele>159.7</ele>
        <time>2021-05-20T14:07:24Z</time>
      </trkpt>
      <trkpt lat="42.2648420" lon="-8.6635160">
        <ele>159.7</ele>
        <time>2021-05-20T14:07:25Z</time>
      </trkpt>
      <trkpt lat="42.2648540" lon="-8.6635170">
        <ele>159.7</ele>
        <time>2021-05-20T14:07:26Z</time>
      </trkpt>
      <trkpt lat="42.2648650" lon="-8.6635200">
        <ele>159.7</ele>
        <time>2021-05-20T14:07:27Z</time>
      </trkpt>
      <trkpt lat="42.2648830" lon="-8.6635190">
        <ele>159.8</ele>
        <time>2021-05-20T14:07:28Z</time>
      </trkpt>
      <trkpt lat="42.2648900" lon="-8.6635210">
        <ele>159.8</ele>
        <time>2021-05-20T14:07:29Z</time>
      </trkpt>
      <trkpt lat="42.2648980" lon="-8.6635240">
        <ele>159.8</ele>
        <time>2021-05-20T14:07:30Z</time>
      </trkpt>
      <trkpt lat="42.2649050" lon="-8.6635260">
        <ele>159.8</ele>
        <time>2021-05-20T14:07:31Z</time>
      </trkpt>
      <trkpt lat="42.2649240" lon="-8.6635260">
        <ele>159.8</ele>
        <time>2021-05-20T14:07:32Z</time>
      </trkpt>
      <trkpt lat="42.2649300" lon="-8.6635280">
        <ele>159.8</ele>
        <time>2021-05-20T14:07:33Z</time>
      </trkpt>
      <trkpt lat="42.2649370" lon="-8.6635310">
        <ele>159.8</ele>
        <time>2021-05-20T14:07:34Z</time>
      </trkpt>
      <trkpt lat="42.2649430" lon="-8.6635330">
        <ele>159.8</ele>
        <time>2021-05-20T14:07:35Z</time>
      </trkpt>
      <trkpt lat="42.2649550" lon="-8.6635300">
        <ele>159.8</ele>
        <time>2021-05-20T14:07:36Z</time>
      </trkpt>
      <trkpt lat="42.2649630" lon="-8.6635310">
        <ele>159.8</ele>
        <time>2021-05-20T14:07:37Z</time>
      </trkpt>
      <trkpt lat="42.2649720" lon="-8.6635310">
        <ele>159.9</ele>
        <time>2021-05-20T14:07:38Z</time>
      </trkpt>
      <trkpt lat="42.2649800" lon="-8.6635320">
        <ele>159.9</ele>
        <time>2021-05-20T14:07:39Z</time>
      </trkpt>
      <trkpt lat="42.2649980" lon="-8.6635340">
        <ele>159.9</ele>
        <time>2021-05-20T14:07:40Z</time>
      </trkpt>
      <trkpt lat="42.2650150" lon="-8.6635340">
        <ele>159.9</ele>
        <time>2021-05-20T14:07:41Z</time>
      </trkpt>
      <trkpt lat="42.2650300" lon="-8.6635330">
        <ele>159.9</ele>
        <time>2021-05-20T14:07:42Z</time>
      </trkpt>
      <trkpt lat="42.2650450" lon="-8.6635370">
        <ele>159.9</ele>
        <time>2021-05-20T14:07:43Z</time>
      </trkpt>
      <trkpt lat="42.2650610" lon="-8.6635410">
        <ele>159.9</ele>
        <time>2021-05-20T14:07:44Z</time>
      </trkpt>
      <trkpt lat="42.2650730" lon="-8.6635440">
        <ele>159.9</ele>
        <time>2021-05-20T14:07:45Z</time>
      </trkpt>
      <trkpt lat="42.2650930" lon="-8.6635500">
        <ele>159.9</ele>
        <time>2021-05-20T14:07:46Z</time>
      </trkpt>
      <trkpt lat="42.2651020" lon="-8.6635540">
        <ele>159.9</ele>
        <time>2021-05-20T14:07:47Z</time>
      </trkpt>
      <trkpt lat="42.2651100" lon="-8.6635590">
        <ele>159.9</ele>
        <time>2021-05-20T14:07:48Z</time>
      </trkpt>
      <trkpt lat="42.2651160" lon="-8.6635670">
        <ele>159.9</ele>
        <time>2021-05-20T14:07:49Z</time>
      </trkpt>
      <trkpt lat="42.2651250" lon="-8.6635700">
        <ele>159.9</ele>
        <time>2021-05-20T14:07:50Z</time>
      </trkpt>
      <trkpt lat="42.2651400" lon="-8.6635800">
        <ele>159.9</ele>
        <time>2021-05-20T14:07:51Z</time>
      </trkpt>
      <trkpt lat="42.2651560" lon="-8.6635800">
        <ele>159.9</ele>
        <time>2021-05-20T14:07:52Z</time>
      </trkpt>
      <trkpt lat="42.2651640" lon="-8.6635820">
        <ele>159.9</ele>
        <time>2021-05-20T14:07:53Z</time>
      </trkpt>
      <trkpt lat="42.2651700" lon="-8.6635820">
        <ele>159.8</ele>
        <time>2021-05-20T14:07:54Z</time>
      </trkpt>
      <trkpt lat="42.2651760" lon="-8.6635840">
        <ele>159.8</ele>
        <time>2021-05-20T14:07:55Z</time>
      </trkpt>
      <trkpt lat="42.2651870" lon="-8.6635820">
        <ele>159.8</ele>
        <time>2021-05-20T14:07:56Z</time>
      </trkpt>
      <trkpt lat="42.2651970" lon="-8.6635770">
        <ele>159.8</ele>
        <time>2021-05-20T14:07:57Z</time>
      </trkpt>
      <trkpt lat="42.2652140" lon="-8.6635650">
        <ele>159.8</ele>
        <time>2021-05-20T14:07:58Z</time>
      </trkpt>
      <trkpt lat="42.2652230" lon="-8.6635600">
        <ele>159.8</ele>
        <time>2021-05-20T14:07:59Z</time>
      </trkpt>
      <trkpt lat="42.2652310" lon="-8.6635560">
        <ele>159.8</ele>
        <time>2021-05-20T14:08:00Z</time>
      </trkpt>
      <trkpt lat="42.2652400" lon="-8.6635520">
        <ele>159.8</ele>
        <time>2021-05-20T14:08:01Z</time>
      </trkpt>
      <trkpt lat="42.2652460" lon="-8.6635460">
        <ele>159.8</ele>
        <time>2021-05-20T14:08:02Z</time>
      </trkpt>
      <trkpt lat="42.2652450" lon="-8.6635390">
        <ele>159.8</ele>
        <time>2021-05-20T14:08:03Z</time>
      </trkpt>
      <trkpt lat="42.2652530" lon="-8.6635330">
        <ele>159.8</ele>
        <time>2021-05-20T14:08:04Z</time>
      </trkpt>
      <trkpt lat="42.2652640" lon="-8.6635230">
        <ele>159.8</ele>
        <time>2021-05-20T14:08:05Z</time>
      </trkpt>
      <trkpt lat="42.2652790" lon="-8.6635230">
        <ele>159.7</ele>
        <time>2021-05-20T14:08:06Z</time>
      </trkpt>
      <trkpt lat="42.2652950" lon="-8.6635240">
        <ele>159.7</ele>
        <time>2021-05-20T14:08:07Z</time>
      </trkpt>
      <trkpt lat="42.2653070" lon="-8.6635260">
        <ele>159.7</ele>
        <time>2021-05-20T14:08:08Z</time>
      </trkpt>
      <trkpt lat="42.2653260" lon="-8.6635230">
        <ele>159.7</ele>
        <time>2021-05-20T14:08:09Z</time>
      </trkpt>
      <trkpt lat="42.2653340" lon="-8.6635220">
        <ele>159.7</ele>
        <time>2021-05-20T14:08:10Z</time>
      </trkpt>
      <trkpt lat="42.2653430" lon="-8.6635210">
        <ele>159.7</ele>
        <time>2021-05-20T14:08:11Z</time>
      </trkpt>
      <trkpt lat="42.2653640" lon="-8.6635140">
        <ele>159.7</ele>
        <time>2021-05-20T14:08:12Z</time>
      </trkpt>
      <trkpt lat="42.2653730" lon="-8.6635100">
        <ele>159.7</ele>
        <time>2021-05-20T14:08:13Z</time>
      </trkpt>
      <trkpt lat="42.2653830" lon="-8.6635060">
        <ele>159.7</ele>
        <time>2021-05-20T14:08:14Z</time>
      </trkpt>
      <trkpt lat="42.2654040" lon="-8.6634980">
        <ele>159.7</ele>
        <time>2021-05-20T14:08:15Z</time>
      </trkpt>
      <trkpt lat="42.2654140" lon="-8.6634910">
        <ele>159.7</ele>
        <time>2021-05-20T14:08:16Z</time>
      </trkpt>
      <trkpt lat="42.2654230" lon="-8.6634850">
        <ele>159.6</ele>
        <time>2021-05-20T14:08:17Z</time>
      </trkpt>
      <trkpt lat="42.2654420" lon="-8.6634720">
        <ele>159.6</ele>
        <time>2021-05-20T14:08:18Z</time>
      </trkpt>
      <trkpt lat="42.2654480" lon="-8.6634650">
        <ele>159.6</ele>
        <time>2021-05-20T14:08:19Z</time>
      </trkpt>
      <trkpt lat="42.2654550" lon="-8.6634570">
        <ele>159.6</ele>
        <time>2021-05-20T14:08:20Z</time>
      </trkpt>
      <trkpt lat="42.2654730" lon="-8.6634420">
        <ele>159.6</ele>
        <time>2021-05-20T14:08:21Z</time>
      </trkpt>
      <trkpt lat="42.2654810" lon="-8.6634350">
        <ele>159.6</ele>
        <time>2021-05-20T14:08:22Z</time>
      </trkpt>
      <trkpt lat="42.2654880" lon="-8.6634280">
        <ele>159.6</ele>
        <time>2021-05-20T14:08:23Z</time>
      </trkpt>
      <trkpt lat="42.2654960" lon="-8.6634120">
        <ele>159.6</ele>
        <time>2021-05-20T14:08:24Z</time>
      </trkpt>
      <trkpt lat="42.2655100" lon="-8.6634010">
        <ele>159.6</ele>
        <time>2021-05-20T14:08:25Z</time>
      </trkpt>
      <trkpt lat="42.2655200" lon="-8.6633900">
        <ele>159.6</ele>
        <time>2021-05-20T14:08:26Z</time>
      </trkpt>
      <trkpt lat="42.2655280" lon="-8.6633830">
        <ele>159.6</ele>
        <time>2021-05-20T14:08:27Z</time>
      </trkpt>
      <trkpt lat="42.2655350" lon="-8.6633780">
        <ele>159.6</ele>
        <time>2021-05-20T14:08:28Z</time>
      </trkpt>
      <trkpt lat="42.2655440" lon="-8.6633690">
        <ele>159.6</ele>
        <time>2021-05-20T14:08:29Z</time>
      </trkpt>
      <trkpt lat="42.2655580" lon="-8.6633530">
        <ele>159.6</ele>
        <time>2021-05-20T14:08:30Z</time>
      </trkpt>
      <trkpt lat="42.2655720" lon="-8.6633450">
        <ele>159.6</ele>
        <time>2021-05-20T14:08:31Z</time>
      </trkpt>
      <trkpt lat="42.2655800" lon="-8.6633390">
        <ele>159.6</ele>
        <time>2021-05-20T14:08:32Z</time>
      </trkpt>
      <trkpt lat="42.2655870" lon="-8.6633260">
        <ele>159.6</ele>
        <time>2021-05-20T14:08:33Z</time>
      </trkpt>
      <trkpt lat="42.2655950" lon="-8.6633140">
        <ele>159.7</ele>
        <time>2021-05-20T14:08:34Z</time>
      </trkpt>
      <trkpt lat="42.2656070" lon="-8.6632960">
        <ele>159.7</ele>
        <time>2021-05-20T14:08:35Z</time>
      </trkpt>
      <trkpt lat="42.2656200" lon="-8.6632750">
        <ele>159.7</ele>
        <time>2021-05-20T14:08:36Z</time>
      </trkpt>
      <trkpt lat="42.2656270" lon="-8.6632650">
        <ele>159.7</ele>
        <time>2021-05-20T14:08:37Z</time>
      </trkpt>
      <trkpt lat="42.2656350" lon="-8.6632550">
        <ele>159.7</ele>
        <time>2021-05-20T14:08:38Z</time>
      </trkpt>
      <trkpt lat="42.2656450" lon="-8.6632350">
        <ele>159.7</ele>
        <time>2021-05-20T14:08:39Z</time>
      </trkpt>
      <trkpt lat="42.2656580" lon="-8.6632290">
        <ele>159.7</ele>
        <time>2021-05-20T14:08:40Z</time>
      </trkpt>
      <trkpt lat="42.2656680" lon="-8.6632130">
        <ele>159.7</ele>
        <time>2021-05-20T14:08:41Z</time>
      </trkpt>
      <trkpt lat="42.2656740" lon="-8.6632010">
        <ele>159.7</ele>
        <time>2021-05-20T14:08:42Z</time>
      </trkpt>
      <trkpt lat="42.2656860" lon="-8.6631860">
        <ele>159.7</ele>
        <time>2021-05-20T14:08:43Z</time>
      </trkpt>
      <trkpt lat="42.2656920" lon="-8.6631660">
        <ele>159.7</ele>
        <time>2021-05-20T14:08:44Z</time>
      </trkpt>
      <trkpt lat="42.2656970" lon="-8.6631640">
        <ele>159.7</ele>
        <time>2021-05-20T14:08:45Z</time>
      </trkpt>
      <trkpt lat="42.2657010" lon="-8.6631460">
        <ele>159.8</ele>
        <time>2021-05-20T14:08:46Z</time>
      </trkpt>
      <trkpt lat="42.2656910" lon="-8.6631290">
        <ele>159.8</ele>
        <time>2021-05-20T14:08:47Z</time>
      </trkpt>
      <trkpt lat="42.2656980" lon="-8.6631180">
        <ele>159.8</ele>
        <time>2021-05-20T14:08:48Z</time>
      </trkpt>
      <trkpt lat="42.2657000" lon="-8.6631120">
        <ele>159.8</ele>
        <time>2021-05-20T14:08:49Z</time>
      </trkpt>
      <trkpt lat="42.2657030" lon="-8.6630940">
        <ele>159.8</ele>
        <time>2021-05-20T14:08:50Z</time>
      </trkpt>
      <trkpt lat="42.2657170" lon="-8.6630840">
        <ele>159.8</ele>
        <time>2021-05-20T14:08:51Z</time>
      </trkpt>
      <trkpt lat="42.2657240" lon="-8.6630870">
        <ele>159.8</ele>
        <time>2021-05-20T14:08:52Z</time>
      </trkpt>
      <trkpt lat="42.2657340" lon="-8.6630800">
        <ele>159.8</ele>
        <time>2021-05-20T14:08:53Z</time>
      </trkpt>
      <trkpt lat="42.2657510" lon="-8.6630740">
        <ele>159.8</ele>
        <time>2021-05-20T14:08:54Z</time>
      </trkpt>
      <trkpt lat="42.2657630" lon="-8.6630680">
        <ele>159.8</ele>
        <time>2021-05-20T14:08:55Z</time>
      </trkpt>
      <trkpt lat="42.2657740" lon="-8.6630590">
        <ele>159.8</ele>
        <time>2021-05-20T14:08:56Z</time>
      </trkpt>
      <trkpt lat="42.2657810" lon="-8.6630560">
        <ele>159.8</ele>
        <time>2021-05-20T14:08:57Z</time>
      </trkpt>
      <trkpt lat="42.2657880" lon="-8.6630400">
        <ele>159.8</ele>
        <time>2021-05-20T14:08:58Z</time>
      </trkpt>
      <trkpt lat="42.2658060" lon="-8.6630300">
        <ele>159.8</ele>
        <time>2021-05-20T14:08:59Z</time>
      </trkpt>
      <trkpt lat="42.2658140" lon="-8.6630260">
        <ele>159.8</ele>
        <time>2021-05-20T14:09:00Z</time>
      </trkpt>
      <trkpt lat="42.2658220" lon="-8.6630210">
        <ele>159.8</ele>
        <time>2021-05-20T14:09:01Z</time>
      </trkpt>
      <trkpt lat="42.2658330" lon="-8.6630200">
        <ele>159.9</ele>
        <time>2021-05-20T14:09:02Z</time>
      </trkpt>
      <trkpt lat="42.2658410" lon="-8.6630190">
        <ele>159.9</ele>
        <time>2021-05-20T14:09:03Z</time>
      </trkpt>
      <trkpt lat="42.2658570" lon="-8.6630070">
        <ele>159.9</ele>
        <time>2021-05-20T14:09:04Z</time>
      </trkpt>
      <trkpt lat="42.2658630" lon="-8.6630030">
        <ele>159.9</ele>
        <time>2021-05-20T14:09:05Z</time>
      </trkpt>
      <trkpt lat="42.2658640" lon="-8.6630020">
        <ele>159.9</ele>
        <time>2021-05-20T14:09:06Z</time>
      </trkpt>
      <trkpt lat="42.2658640" lon="-8.6629950">
        <ele>159.9</ele>
        <time>2021-05-20T14:09:07Z</time>
      </trkpt>
      <trkpt lat="42.2658670" lon="-8.6629960">
        <ele>159.9</ele>
        <time>2021-05-20T14:09:08Z</time>
      </trkpt>
      <trkpt lat="42.2658890" lon="-8.6629910">
        <ele>159.9</ele>
        <time>2021-05-20T14:09:09Z</time>
      </trkpt>
      <trkpt lat="42.2659040" lon="-8.6629980">
        <ele>159.9</ele>
        <time>2021-05-20T14:09:10Z</time>
      </trkpt>
      <trkpt lat="42.2659220" lon="-8.6630020">
        <ele>159.9</ele>
        <time>2021-05-20T14:09:11Z</time>
      </trkpt>
      <trkpt lat="42.2659370" lon="-8.6630010">
        <ele>159.9</ele>
        <time>2021-05-20T14:09:12Z</time>
      </trkpt>
      <trkpt lat="42.2659540" lon="-8.6630080">
        <ele>159.9</ele>
        <time>2021-05-20T14:09:13Z</time>
      </trkpt>
      <trkpt lat="42.2659760" lon="-8.6630110">
        <ele>159.9</ele>
        <time>2021-05-20T14:09:14Z</time>
      </trkpt>
      <trkpt lat="42.2659840" lon="-8.6630140">
        <ele>159.9</ele>
        <time>2021-05-20T14:09:15Z</time>
      </trkpt>
      <trkpt lat="42.2659930" lon="-8.6630160">
        <ele>159.9</ele>
        <time>2021-05-20T14:09:16Z</time>
      </trkpt>
      <trkpt lat="42.2660050" lon="-8.6630150">
        <ele>159.9</ele>
        <time>2021-05-20T14:09:17Z</time>
      </trkpt>
      <trkpt lat="42.2660170" lon="-8.6630230">
        <ele>159.9</ele>
        <time>2021-05-20T14:09:18Z</time>
      </trkpt>
      <trkpt lat="42.2660240" lon="-8.6630240">
        <ele>159.9</ele>
        <time>2021-05-20T14:09:19Z</time>
      </trkpt>
      <trkpt lat="42.2660440" lon="-8.6630330">
        <ele>159.9</ele>
        <time>2021-05-20T14:09:20Z</time>
      </trkpt>
      <trkpt lat="42.2660530" lon="-8.6630340">
        <ele>159.9</ele>
        <time>2021-05-20T14:09:21Z</time>
      </trkpt>
      <trkpt lat="42.2660610" lon="-8.6630360">
        <ele>159.9</ele>
        <time>2021-05-20T14:09:22Z</time>
      </trkpt>
      <trkpt lat="42.2660890" lon="-8.6630400">
        <ele>160.0</ele>
        <time>2021-05-20T14:09:23Z</time>
      </trkpt>
      <trkpt lat="42.2660970" lon="-8.6630420">
        <ele>160.0</ele>
        <time>2021-05-20T14:09:24Z</time>
      </trkpt>
      <trkpt lat="42.2661040" lon="-8.6630450">
        <ele>160.0</ele>
        <time>2021-05-20T14:09:25Z</time>
      </trkpt>
      <trkpt lat="42.2661170" lon="-8.6630440">
        <ele>160.0</ele>
        <time>2021-05-20T14:09:26Z</time>
      </trkpt>
      <trkpt lat="42.2661300" lon="-8.6630460">
        <ele>160.0</ele>
        <time>2021-05-20T14:09:27Z</time>
      </trkpt>
      <trkpt lat="42.2661390" lon="-8.6630440">
        <ele>160.0</ele>
        <time>2021-05-20T14:09:28Z</time>
      </trkpt>
      <trkpt lat="42.2661580" lon="-8.6630390">
        <ele>160.0</ele>
        <time>2021-05-20T14:09:29Z</time>
      </trkpt>
      <trkpt lat="42.2661650" lon="-8.6630420">
        <ele>160.0</ele>
        <time>2021-05-20T14:09:30Z</time>
      </trkpt>
      <trkpt lat="42.2661780" lon="-8.6630380">
        <ele>160.0</ele>
        <time>2021-05-20T14:09:31Z</time>
      </trkpt>
      <trkpt lat="42.2661850" lon="-8.6630340">
        <ele>160.0</ele>
        <time>2021-05-20T14:09:32Z</time>
      </trkpt>
      <trkpt lat="42.2661860" lon="-8.6630250">
        <ele>160.0</ele>
        <time>2021-05-20T14:09:33Z</time>
      </trkpt>
      <trkpt lat="42.2661990" lon="-8.6630160">
        <ele>160.0</ele>
        <time>2021-05-20T14:09:34Z</time>
      </trkpt>
      <trkpt lat="42.2662080" lon="-8.6630120">
        <ele>160.0</ele>
        <time>2021-05-20T14:09:35Z</time>
      </trkpt>
      <trkpt lat="42.2662180" lon="-8.6630100">
        <ele>160.0</ele>
        <time>2021-05-20T14:09:36Z</time>
      </trkpt>
      <trkpt lat="42.2662250" lon="-8.6630090">
        <ele>160.1</ele>
        <time>2021-05-20T14:09:37Z</time>
      </trkpt>
      <trkpt lat="42.2662340" lon="-8.6630050">
        <ele>160.1</ele>
        <time>2021-05-20T14:09:38Z</time>
      </trkpt>
      <trkpt lat="42.2662440" lon="-8.6629960">
        <ele>160.1</ele>
        <time>2021-05-20T14:09:39Z</time>
      </trkpt>
      <trkpt lat="42.2662650" lon="-8.6629900">
        <ele>160.1</ele>
        <time>2021-05-20T14:09:40Z</time>
      </trkpt>
      <trkpt lat="42.2662770" lon="-8.6629830">
        <ele>160.1</ele>
        <time>2021-05-20T14:09:41Z</time>
      </trkpt>
      <trkpt lat="42.2662780" lon="-8.6629780">
        <ele>160.1</ele>
        <time>2021-05-20T14:09:42Z</time>
      </trkpt>
      <trkpt lat="42.2662910" lon="-8.6629720">
        <ele>160.1</ele>
        <time>2021-05-20T14:09:43Z</time>
      </trkpt>
      <trkpt lat="42.2663010" lon="-8.6629700">
        <ele>160.1</ele>
        <time>2021-05-20T14:09:44Z</time>
      </trkpt>
      <trkpt lat="42.2663030" lon="-8.6629690">
        <ele>160.1</ele>
        <time>2021-05-20T14:09:45Z</time>
      </trkpt>
      <trkpt lat="42.2663040" lon="-8.6629650">
        <ele>160.1</ele>
        <time>2021-05-20T14:09:46Z</time>
      </trkpt>
      <trkpt lat="42.2663130" lon="-8.6629590">
        <ele>160.1</ele>
        <time>2021-05-20T14:09:47Z</time>
      </trkpt>
      <trkpt lat="42.2663280" lon="-8.6629520">
        <ele>160.1</ele>
        <time>2021-05-20T14:09:48Z</time>
      </trkpt>
      <trkpt lat="42.2663380" lon="-8.6629480">
        <ele>160.1</ele>
        <time>2021-05-20T14:09:49Z</time>
      </trkpt>
      <trkpt lat="42.2663570" lon="-8.6629400">
        <ele>160.1</ele>
        <time>2021-05-20T14:09:50Z</time>
      </trkpt>
      <trkpt lat="42.2663650" lon="-8.6629290">
        <ele>160.1</ele>
        <time>2021-05-20T14:09:51Z</time>
      </trkpt>
      <trkpt lat="42.2663700" lon="-8.6629260">
        <ele>160.1</ele>
        <time>2021-05-20T14:09:52Z</time>
      </trkpt>
      <trkpt lat="42.2663850" lon="-8.6629190">
        <ele>160.1</ele>
        <time>2021-05-20T14:09:53Z</time>
      </trkpt>
      <trkpt lat="42.2663900" lon="-8.6629050">
        <ele>160.1</ele>
        <time>2021-05-20T14:09:54Z</time>
      </trkpt>
      <trkpt lat="42.2663980" lon="-8.6628980">
        <ele>160.1</ele>
        <time>2021-05-20T14:09:55Z</time>
      </trkpt>
      <trkpt lat="42.2664000" lon="-8.6628870">
        <ele>160.1</ele>
        <time>2021-05-20T14:09:56Z</time>
      </trkpt>
      <trkpt lat="42.2664190" lon="-8.6628680">
        <ele>160.1</ele>
        <time>2021-05-20T14:09:57Z</time>
      </trkpt>
      <trkpt lat="42.2664250" lon="-8.6628630">
        <ele>160.1</ele>
        <time>2021-05-20T14:09:58Z</time>
      </trkpt>
      <trkpt lat="42.2664300" lon="-8.6628580">
        <ele>160.1</ele>
        <time>2021-05-20T14:09:59Z</time>
      </trkpt>
      <trkpt lat="42.2664380" lon="-8.6628570">
        <ele>160.1</ele>
        <time>2021-05-20T14:10:00Z</time>
      </trkpt>
      <trkpt lat="42.2664500" lon="-8.6628530">
        <ele>160.1</ele>
        <time>2021-05-20T14:10:01Z</time>
      </trkpt>
      <trkpt lat="42.2664650" lon="-8.6628430">
        <ele>160.1</ele>
        <time>2021-05-20T14:10:02Z</time>
      </trkpt>
      <trkpt lat="42.2664810" lon="-8.6628310">
        <ele>160.1</ele>
        <time>2021-05-20T14:10:03Z</time>
      </trkpt>
      <trkpt lat="42.2664890" lon="-8.6628210">
        <ele>160.1</ele>
        <time>2021-05-20T14:10:04Z</time>
      </trkpt>
      <trkpt lat="42.2664960" lon="-8.6628100">
        <ele>160.1</ele>
        <time>2021-05-20T14:10:05Z</time>
      </trkpt>
      <trkpt lat="42.2665160" lon="-8.6627970">
        <ele>160.1</ele>
        <time>2021-05-20T14:10:06Z</time>
      </trkpt>
      <trkpt lat="42.2665300" lon="-8.6627870">
        <ele>160.1</ele>
        <time>2021-05-20T14:10:07Z</time>
      </trkpt>
      <trkpt lat="42.2665400" lon="-8.6627750">
        <ele>160.1</ele>
        <time>2021-05-20T14:10:08Z</time>
      </trkpt>
      <trkpt lat="42.2665470" lon="-8.6627730">
        <ele>160.1</ele>
        <time>2021-05-20T14:10:09Z</time>
      </trkpt>
      <trkpt lat="42.2665520" lon="-8.6627690">
        <ele>160.1</ele>
        <time>2021-05-20T14:10:10Z</time>
      </trkpt>
      <trkpt lat="42.2665660" lon="-8.6627560">
        <ele>160.1</ele>
        <time>2021-05-20T14:10:11Z</time>
      </trkpt>
      <trkpt lat="42.2665760" lon="-8.6627450">
        <ele>160.1</ele>
        <time>2021-05-20T14:10:12Z</time>
      </trkpt>
      <trkpt lat="42.2665900" lon="-8.6627300">
        <ele>160.1</ele>
        <time>2021-05-20T14:10:13Z</time>
      </trkpt>
      <trkpt lat="42.2665980" lon="-8.6627230">
        <ele>160.1</ele>
        <time>2021-05-20T14:10:14Z</time>
      </trkpt>
      <trkpt lat="42.2666070" lon="-8.6627100">
        <ele>160.1</ele>
        <time>2021-05-20T14:10:15Z</time>
      </trkpt>
      <trkpt lat="42.2666160" lon="-8.6627000">
        <ele>160.1</ele>
        <time>2021-05-20T14:10:16Z</time>
      </trkpt>
      <trkpt lat="42.2666260" lon="-8.6626850">
        <ele>160.1</ele>
        <time>2021-05-20T14:10:17Z</time>
      </trkpt>
      <trkpt lat="42.2666330" lon="-8.6626750">
        <ele>160.1</ele>
        <time>2021-05-20T14:10:18Z</time>
      </trkpt>
      <trkpt lat="42.2666390" lon="-8.6626650">
        <ele>160.1</ele>
        <time>2021-05-20T14:10:19Z</time>
      </trkpt>
      <trkpt lat="42.2666460" lon="-8.6626550">
        <ele>160.1</ele>
        <time>2021-05-20T14:10:20Z</time>
      </trkpt>
      <trkpt lat="42.2666520" lon="-8.6626410">
        <ele>160.1</ele>
        <time>2021-05-20T14:10:21Z</time>
      </trkpt>
      <trkpt lat="42.2666570" lon="-8.6626350">
        <ele>160.1</ele>
        <time>2021-05-20T14:10:22Z</time>
      </trkpt>
      <trkpt lat="42.2666740" lon="-8.6626310">
        <ele>160.1</ele>
        <time>2021-05-20T14:10:23Z</time>
      </trkpt>
      <trkpt lat="42.2666840" lon="-8.6626260">
        <ele>160.1</ele>
        <time>2021-05-20T14:10:24Z</time>
      </trkpt>
      <trkpt lat="42.2666960" lon="-8.6626270">
        <ele>160.1</ele>
        <time>2021-05-20T14:10:25Z</time>
      </trkpt>
      <trkpt lat="42.2667030" lon="-8.6626250">
        <ele>160.1</ele>
        <time>2021-05-20T14:10:26Z</time>
      </trkpt>
      <trkpt lat="42.2667160" lon="-8.6626220">
        <ele>160.1</ele>
        <time>2021-05-20T14:10:27Z</time>
      </trkpt>
      <trkpt lat="42.2667220" lon="-8.6626170">
        <ele>160.1</ele>
        <time>2021-05-20T14:10:28Z</time>
      </trkpt>
      <trkpt lat="42.2667280" lon="-8.6626200">
        <ele>160.1</ele>
        <time>2021-05-20T14:10:29Z</time>
      </trkpt>
      <trkpt lat="42.2667290" lon="-8.6626220">
        <ele>160.1</ele>
        <time>2021-05-20T14:10:30Z</time>
      </trkpt>
      <trkpt lat="42.2667320" lon="-8.6626220">
        <ele>160.2</ele>
        <time>2021-05-20T14:10:31Z</time>
      </trkpt>
      <trkpt lat="42.2667320" lon="-8.6626240">
        <ele>160.2</ele>
        <time>2021-05-20T14:10:32Z</time>
      </trkpt>
      <trkpt lat="42.2667470" lon="-8.6626250">
        <ele>160.2</ele>
        <time>2021-05-20T14:10:33Z</time>
      </trkpt>
      <trkpt lat="42.2667600" lon="-8.6626190">
        <ele>160.2</ele>
        <time>2021-05-20T14:10:34Z</time>
      </trkpt>
      <trkpt lat="42.2667680" lon="-8.6626090">
        <ele>160.2</ele>
        <time>2021-05-20T14:10:35Z</time>
      </trkpt>
      <trkpt lat="42.2667790" lon="-8.6626030">
        <ele>160.2</ele>
        <time>2021-05-20T14:10:36Z</time>
      </trkpt>
      <trkpt lat="42.2667890" lon="-8.6625940">
        <ele>160.2</ele>
        <time>2021-05-20T14:10:37Z</time>
      </trkpt>
      <trkpt lat="42.2667990" lon="-8.6625820">
        <ele>160.2</ele>
        <time>2021-05-20T14:10:38Z</time>
      </trkpt>
      <trkpt lat="42.2668060" lon="-8.6625700">
        <ele>160.2</ele>
        <time>2021-05-20T14:10:39Z</time>
      </trkpt>
      <trkpt lat="42.2668100" lon="-8.6625650">
        <ele>160.2</ele>
        <time>2021-05-20T14:10:40Z</time>
      </trkpt>
      <trkpt lat="42.2668210" lon="-8.6625590">
        <ele>160.2</ele>
        <time>2021-05-20T14:10:41Z</time>
      </trkpt>
      <trkpt lat="42.2668320" lon="-8.6625570">
        <ele>160.2</ele>
        <time>2021-05-20T14:10:42Z</time>
      </trkpt>
      <trkpt lat="42.2668370" lon="-8.6625530">
        <ele>160.2</ele>
        <time>2021-05-20T14:10:43Z</time>
      </trkpt>
      <trkpt lat="42.2668410" lon="-8.6625510">
        <ele>160.2</ele>
        <time>2021-05-20T14:10:44Z</time>
      </trkpt>
      <trkpt lat="42.2668510" lon="-8.6625460">
        <ele>160.2</ele>
        <time>2021-05-20T14:10:45Z</time>
      </trkpt>
      <trkpt lat="42.2668620" lon="-8.6625350">
        <ele>160.2</ele>
        <time>2021-05-20T14:10:46Z</time>
      </trkpt>
      <trkpt lat="42.2668770" lon="-8.6625230">
        <ele>160.2</ele>
        <time>2021-05-20T14:10:47Z</time>
      </trkpt>
      <trkpt lat="42.2668870" lon="-8.6625150">
        <ele>160.2</ele>
        <time>2021-05-20T14:10:48Z</time>
      </trkpt>
      <trkpt lat="42.2668980" lon="-8.6625020">
        <ele>160.1</ele>
        <time>2021-05-20T14:10:49Z</time>
      </trkpt>
      <trkpt lat="42.2669070" lon="-8.6624910">
        <ele>160.1</ele>
        <time>2021-05-20T14:10:50Z</time>
      </trkpt>
      <trkpt lat="42.2669250" lon="-8.6624740">
        <ele>160.1</ele>
        <time>2021-05-20T14:10:51Z</time>
      </trkpt>
      <trkpt lat="42.2669330" lon="-8.6624690">
        <ele>160.1</ele>
        <time>2021-05-20T14:10:52Z</time>
      </trkpt>
      <trkpt lat="42.2669410" lon="-8.6624630">
        <ele>160.1</ele>
        <time>2021-05-20T14:10:53Z</time>
      </trkpt>
      <trkpt lat="42.2669480" lon="-8.6624530">
        <ele>160.1</ele>
        <time>2021-05-20T14:10:54Z</time>
      </trkpt>
      <trkpt lat="42.2669650" lon="-8.6624370">
        <ele>160.1</ele>
        <time>2021-05-20T14:10:55Z</time>
      </trkpt>
      <trkpt lat="42.2669690" lon="-8.6624220">
        <ele>160.1</ele>
        <time>2021-05-20T14:10:56Z</time>
      </trkpt>
      <trkpt lat="42.2669750" lon="-8.6624130">
        <ele>160.1</ele>
        <time>2021-05-20T14:10:57Z</time>
      </trkpt>
      <trkpt lat="42.2669800" lon="-8.6624030">
        <ele>160.1</ele>
        <time>2021-05-20T14:10:58Z</time>
      </trkpt>
      <trkpt lat="42.2669850" lon="-8.6623930">
        <ele>160.0</ele>
        <time>2021-05-20T14:10:59Z</time>
      </trkpt>
      <trkpt lat="42.2669950" lon="-8.6623830">
        <ele>160.0</ele>
        <time>2021-05-20T14:11:00Z</time>
      </trkpt>
      <trkpt lat="42.2670050" lon="-8.6623670">
        <ele>160.0</ele>
        <time>2021-05-20T14:11:01Z</time>
      </trkpt>
      <trkpt lat="42.2670150" lon="-8.6623500">
        <ele>160.0</ele>
        <time>2021-05-20T14:11:02Z</time>
      </trkpt>
      <trkpt lat="42.2670200" lon="-8.6623340">
        <ele>160.0</ele>
        <time>2021-05-20T14:11:03Z</time>
      </trkpt>
      <trkpt lat="42.2670310" lon="-8.6623230">
        <ele>160.0</ele>
        <time>2021-05-20T14:11:04Z</time>
      </trkpt>
      <trkpt lat="42.2670420" lon="-8.6623000">
        <ele>160.0</ele>
        <time>2021-05-20T14:11:05Z</time>
      </trkpt>
      <trkpt lat="42.2670470" lon="-8.6622850">
        <ele>160.0</ele>
        <time>2021-05-20T14:11:06Z</time>
      </trkpt>
      <trkpt lat="42.2670530" lon="-8.6622740">
        <ele>159.9</ele>
        <time>2021-05-20T14:11:07Z</time>
      </trkpt>
      <trkpt lat="42.2670580" lon="-8.6622570">
        <ele>159.9</ele>
        <time>2021-05-20T14:11:08Z</time>
      </trkpt>
      <trkpt lat="42.2670580" lon="-8.6622410">
        <ele>159.9</ele>
        <time>2021-05-20T14:11:09Z</time>
      </trkpt>
      <trkpt lat="42.2670660" lon="-8.6622180">
        <ele>159.9</ele>
        <time>2021-05-20T14:11:10Z</time>
      </trkpt>
      <trkpt lat="42.2670730" lon="-8.6622080">
        <ele>159.9</ele>
        <time>2021-05-20T14:11:11Z</time>
      </trkpt>
      <trkpt lat="42.2670800" lon="-8.6621990">
        <ele>159.9</ele>
        <time>2021-05-20T14:11:12Z</time>
      </trkpt>
      <trkpt lat="42.2670860" lon="-8.6621850">
        <ele>159.9</ele>
        <time>2021-05-20T14:11:13Z</time>
      </trkpt>
      <trkpt lat="42.2670990" lon="-8.6621610">
        <ele>159.9</ele>
        <time>2021-05-20T14:11:14Z</time>
      </trkpt>
      <trkpt lat="42.2671040" lon="-8.6621530">
        <ele>159.9</ele>
        <time>2021-05-20T14:11:15Z</time>
      </trkpt>
      <trkpt lat="42.2671100" lon="-8.6621460">
        <ele>159.9</ele>
        <time>2021-05-20T14:11:16Z</time>
      </trkpt>
      <trkpt lat="42.2671140" lon="-8.6621260">
        <ele>159.9</ele>
        <time>2021-05-20T14:11:17Z</time>
      </trkpt>
      <trkpt lat="42.2671200" lon="-8.6621070">
        <ele>159.9</ele>
        <time>2021-05-20T14:11:18Z</time>
      </trkpt>
      <trkpt lat="42.2671310" lon="-8.6620850">
        <ele>159.8</ele>
        <time>2021-05-20T14:11:19Z</time>
      </trkpt>
      <trkpt lat="42.2671360" lon="-8.6620740">
        <ele>159.8</ele>
        <time>2021-05-20T14:11:20Z</time>
      </trkpt>
      <trkpt lat="42.2671400" lon="-8.6620630">
        <ele>159.8</ele>
        <time>2021-05-20T14:11:21Z</time>
      </trkpt>
      <trkpt lat="42.2671500" lon="-8.6620450">
        <ele>159.8</ele>
        <time>2021-05-20T14:11:22Z</time>
      </trkpt>
      <trkpt lat="42.2671630" lon="-8.6620310">
        <ele>159.8</ele>
        <time>2021-05-20T14:11:23Z</time>
      </trkpt>
      <trkpt lat="42.2671650" lon="-8.6620210">
        <ele>159.8</ele>
        <time>2021-05-20T14:11:24Z</time>
      </trkpt>
      <trkpt lat="42.2671640" lon="-8.6620130">
        <ele>159.8</ele>
        <time>2021-05-20T14:11:25Z</time>
      </trkpt>
      <trkpt lat="42.2671580" lon="-8.6619930">
        <ele>159.8</ele>
        <time>2021-05-20T14:11:26Z</time>
      </trkpt>
      <trkpt lat="42.2671660" lon="-8.6619800">
        <ele>159.8</ele>
        <time>2021-05-20T14:11:27Z</time>
      </trkpt>
      <trkpt lat="42.2671720" lon="-8.6619710">
        <ele>159.8</ele>
        <time>2021-05-20T14:11:28Z</time>
      </trkpt>
      <trkpt lat="42.2671770" lon="-8.6619560">
        <ele>159.8</ele>
        <time>2021-05-20T14:11:29Z</time>
      </trkpt>
      <trkpt lat="42.2671790" lon="-8.6619540">
        <ele>159.8</ele>
        <time>2021-05-20T14:11:30Z</time>
      </trkpt>
      <trkpt lat="42.2671890" lon="-8.6619420">
        <ele>159.7</ele>
        <time>2021-05-20T14:11:31Z</time>
      </trkpt>
      <trkpt lat="42.2671880" lon="-8.6619360">
        <ele>159.7</ele>
        <time>2021-05-20T14:11:32Z</time>
      </trkpt>
      <trkpt lat="42.2672000" lon="-8.6619330">
        <ele>159.7</ele>
        <time>2021-05-20T14:11:33Z</time>
      </trkpt>
      <trkpt lat="42.2672130" lon="-8.6619250">
        <ele>159.7</ele>
        <time>2021-05-20T14:11:34Z</time>
      </trkpt>
      <trkpt lat="42.2672280" lon="-8.6619230">
        <ele>159.7</ele>
        <time>2021-05-20T14:11:35Z</time>
      </trkpt>
      <trkpt lat="42.2672570" lon="-8.6619180">
        <ele>159.7</ele>
        <time>2021-05-20T14:11:36Z</time>
      </trkpt>
      <trkpt lat="42.2672660" lon="-8.6619150">
        <ele>159.7</ele>
        <time>2021-05-20T14:11:37Z</time>
      </trkpt>
      <trkpt lat="42.2672710" lon="-8.6619150">
        <ele>159.7</ele>
        <time>2021-05-20T14:11:38Z</time>
      </trkpt>
      <trkpt lat="42.2672940" lon="-8.6619160">
        <ele>159.6</ele>
        <time>2021-05-20T14:11:39Z</time>
      </trkpt>
      <trkpt lat="42.2673030" lon="-8.6619140">
        <ele>159.6</ele>
        <time>2021-05-20T14:11:40Z</time>
      </trkpt>
      <trkpt lat="42.2673110" lon="-8.6619080">
        <ele>159.6</ele>
        <time>2021-05-20T14:11:41Z</time>
      </trkpt>
      <trkpt lat="42.2673270" lon="-8.6619030">
        <ele>159.6</ele>
        <time>2021-05-20T14:11:42Z</time>
      </trkpt>
      <trkpt lat="42.2673530" lon="-8.6618970">
        <ele>159.6</ele>
        <time>2021-05-20T14:11:43Z</time>
      </trkpt>
      <trkpt lat="42.2673630" lon="-8.6618970">
        <ele>159.6</ele>
        <time>2021-05-20T14:11:44Z</time>
      </trkpt>
      <trkpt lat="42.2673740" lon="-8.6618960">
        <ele>159.6</ele>
        <time>2021-05-20T14:11:45Z</time>
      </trkpt>
      <trkpt lat="42.2673790" lon="-8.6618970">
        <ele>159.6</ele>
        <time>2021-05-20T14:11:46Z</time>
      </trkpt>
      <trkpt lat="42.2673850" lon="-8.6618870">
        <ele>159.5</ele>
        <time>2021-05-20T14:11:47Z</time>
      </trkpt>
      <trkpt lat="42.2673990" lon="-8.6618820">
        <ele>159.5</ele>
        <time>2021-05-20T14:11:48Z</time>
      </trkpt>
      <trkpt lat="42.2674080" lon="-8.6618790">
        <ele>159.5</ele>
        <time>2021-05-20T14:11:49Z</time>
      </trkpt>
      <trkpt lat="42.2674270" lon="-8.6618720">
        <ele>159.5</ele>
        <time>2021-05-20T14:11:50Z</time>
      </trkpt>
      <trkpt lat="42.2674360" lon="-8.6618690">
        <ele>159.5</ele>
        <time>2021-05-20T14:11:51Z</time>
      </trkpt>
      <trkpt lat="42.2674500" lon="-8.6618650">
        <ele>159.5</ele>
        <time>2021-05-20T14:11:52Z</time>
      </trkpt>
      <trkpt lat="42.2674560" lon="-8.6618620">
        <ele>159.5</ele>
        <time>2021-05-20T14:11:53Z</time>
      </trkpt>
      <trkpt lat="42.2674710" lon="-8.6618550">
        <ele>159.5</ele>
        <time>2021-05-20T14:11:54Z</time>
      </trkpt>
      <trkpt lat="42.2674820" lon="-8.6618450">
        <ele>159.4</ele>
        <time>2021-05-20T14:11:55Z</time>
      </trkpt>
      <trkpt lat="42.2674990" lon="-8.6618440">
        <ele>159.4</ele>
        <time>2021-05-20T14:11:56Z</time>
      </trkpt>
      <trkpt lat="42.2675090" lon="-8.6618420">
        <ele>159.4</ele>
        <time>2021-05-20T14:11:57Z</time>
      </trkpt>
      <trkpt lat="42.2675140" lon="-8.6618340">
        <ele>159.4</ele>
        <time>2021-05-20T14:11:58Z</time>
      </trkpt>
      <trkpt lat="42.2675210" lon="-8.6618320">
        <ele>159.4</ele>
        <time>2021-05-20T14:11:59Z</time>
      </trkpt>
      <trkpt lat="42.2675300" lon="-8.6618310">
        <ele>159.4</ele>
        <time>2021-05-20T14:12:00Z</time>
      </trkpt>
      <trkpt lat="42.2675400" lon="-8.6618310">
        <ele>159.4</ele>
        <time>2021-05-20T14:12:01Z</time>
      </trkpt>
      <trkpt lat="42.2675570" lon="-8.6618250">
        <ele>159.4</ele>
        <time>2021-05-20T14:12:02Z</time>
      </trkpt>
      <trkpt lat="42.2675710" lon="-8.6618200">
        <ele>159.4</ele>
        <time>2021-05-20T14:12:03Z</time>
      </trkpt>
      <trkpt lat="42.2675780" lon="-8.6618230">
        <ele>159.3</ele>
        <time>2021-05-20T14:12:04Z</time>
      </trkpt>
      <trkpt lat="42.2675860" lon="-8.6618210">
        <ele>159.3</ele>
        <time>2021-05-20T14:12:05Z</time>
      </trkpt>
      <trkpt lat="42.2675960" lon="-8.6618170">
        <ele>159.3</ele>
        <time>2021-05-20T14:12:06Z</time>
      </trkpt>
      <trkpt lat="42.2676070" lon="-8.6618140">
        <ele>159.3</ele>
        <time>2021-05-20T14:12:07Z</time>
      </trkpt>
      <trkpt lat="42.2676150" lon="-8.6618150">
        <ele>159.3</ele>
        <time>2021-05-20T14:12:08Z</time>
      </trkpt>
      <trkpt lat="42.2676290" lon="-8.6618090">
        <ele>159.3</ele>
        <time>2021-05-20T14:12:09Z</time>
      </trkpt>
      <trkpt lat="42.2676360" lon="-8.6618120">
        <ele>159.3</ele>
        <time>2021-05-20T14:12:10Z</time>
      </trkpt>
      <trkpt lat="42.2676480" lon="-8.6618140">
        <ele>159.3</ele>
        <time>2021-05-20T14:12:11Z</time>
      </trkpt>
      <trkpt lat="42.2676610" lon="-8.6618080">
        <ele>159.3</ele>
        <time>2021-05-20T14:12:12Z</time>
      </trkpt>
      <trkpt lat="42.2676710" lon="-8.6618030">
        <ele>159.3</ele>
        <time>2021-05-20T14:12:13Z</time>
      </trkpt>
      <trkpt lat="42.2676860" lon="-8.6617980">
        <ele>159.3</ele>
        <time>2021-05-20T14:12:14Z</time>
      </trkpt>
      <trkpt lat="42.2677020" lon="-8.6618010">
        <ele>159.3</ele>
        <time>2021-05-20T14:12:15Z</time>
      </trkpt>
      <trkpt lat="42.2677160" lon="-8.6618000">
        <ele>159.3</ele>
        <time>2021-05-20T14:12:16Z</time>
      </trkpt>
      <trkpt lat="42.2677250" lon="-8.6618080">
        <ele>159.3</ele>
        <time>2021-05-20T14:12:17Z</time>
      </trkpt>
      <trkpt lat="42.2677360" lon="-8.6618030">
        <ele>159.3</ele>
        <time>2021-05-20T14:12:18Z</time>
      </trkpt>
      <trkpt lat="42.2677570" lon="-8.6617980">
        <ele>159.3</ele>
        <time>2021-05-20T14:12:19Z</time>
      </trkpt>
      <trkpt lat="42.2677660" lon="-8.6617970">
        <ele>159.3</ele>
        <time>2021-05-20T14:12:20Z</time>
      </trkpt>
      <trkpt lat="42.2677750" lon="-8.6617960">
        <ele>159.3</ele>
        <time>2021-05-20T14:12:21Z</time>
      </trkpt>
      <trkpt lat="42.2677810" lon="-8.6617870">
        <ele>159.3</ele>
        <time>2021-05-20T14:12:22Z</time>
      </trkpt>
      <trkpt lat="42.2677900" lon="-8.6617870">
        <ele>159.3</ele>
        <time>2021-05-20T14:12:23Z</time>
      </trkpt>
      <trkpt lat="42.2678070" lon="-8.6617850">
        <ele>159.3</ele>
        <time>2021-05-20T14:12:24Z</time>
      </trkpt>
      <trkpt lat="42.2678310" lon="-8.6617770">
        <ele>159.3</ele>
        <time>2021-05-20T14:12:25Z</time>
      </trkpt>
      <trkpt lat="42.2678420" lon="-8.6617760">
        <ele>159.3</ele>
        <time>2021-05-20T14:12:26Z</time>
      </trkpt>
      <trkpt lat="42.2678520" lon="-8.6617760">
        <ele>159.3</ele>
        <time>2021-05-20T14:12:27Z</time>
      </trkpt>
      <trkpt lat="42.2678750" lon="-8.6617760">
        <ele>159.3</ele>
        <time>2021-05-20T14:12:28Z</time>
      </trkpt>
      <trkpt lat="42.2678820" lon="-8.6617750">
        <ele>159.3</ele>
        <time>2021-05-20T14:12:29Z</time>
      </trkpt>
      <trkpt lat="42.2678900" lon="-8.6617750">
        <ele>159.4</ele>
        <time>2021-05-20T14:12:30Z</time>
      </trkpt>
      <trkpt lat="42.2679040" lon="-8.6617670">
        <ele>159.4</ele>
        <time>2021-05-20T14:12:31Z</time>
      </trkpt>
      <trkpt lat="42.2679150" lon="-8.6617630">
        <ele>159.4</ele>
        <time>2021-05-20T14:12:32Z</time>
      </trkpt>
      <trkpt lat="42.2679250" lon="-8.6617640">
        <ele>159.4</ele>
        <time>2021-05-20T14:12:33Z</time>
      </trkpt>
      <trkpt lat="42.2679420" lon="-8.6617570">
        <ele>159.4</ele>
        <time>2021-05-20T14:12:34Z</time>
      </trkpt>
      <trkpt lat="42.2679580" lon="-8.6617540">
        <ele>159.4</ele>
        <time>2021-05-20T14:12:35Z</time>
      </trkpt>
      <trkpt lat="42.2679680" lon="-8.6617510">
        <ele>159.4</ele>
        <time>2021-05-20T14:12:36Z</time>
      </trkpt>
      <trkpt lat="42.2679740" lon="-8.6617420">
        <ele>159.4</ele>
        <time>2021-05-20T14:12:37Z</time>
      </trkpt>
      <trkpt lat="42.2679870" lon="-8.6617450">
        <ele>159.5</ele>
        <time>2021-05-20T14:12:38Z</time>
      </trkpt>
      <trkpt lat="42.2680090" lon="-8.6617440">
        <ele>159.5</ele>
        <time>2021-05-20T14:12:39Z</time>
      </trkpt>
      <trkpt lat="42.2680180" lon="-8.6617400">
        <ele>159.5</ele>
        <time>2021-05-20T14:12:40Z</time>
      </trkpt>
      <trkpt lat="42.2680280" lon="-8.6617360">
        <ele>159.5</ele>
        <time>2021-05-20T14:12:41Z</time>
      </trkpt>
      <trkpt lat="42.2680500" lon="-8.6617360">
        <ele>159.6</ele>
        <time>2021-05-20T14:12:42Z</time>
      </trkpt>
      <trkpt lat="42.2680600" lon="-8.6617350">
        <ele>159.6</ele>
        <time>2021-05-20T14:12:43Z</time>
      </trkpt>
      <trkpt lat="42.2680690" lon="-8.6617340">
        <ele>159.6</ele>
        <time>2021-05-20T14:12:44Z</time>
      </trkpt>
      <trkpt lat="42.2680820" lon="-8.6617360">
        <ele>159.6</ele>
        <time>2021-05-20T14:12:45Z</time>
      </trkpt>
      <trkpt lat="42.2680910" lon="-8.6617310">
        <ele>159.6</ele>
        <time>2021-05-20T14:12:46Z</time>
      </trkpt>
      <trkpt lat="42.2680990" lon="-8.6617250">
        <ele>159.7</ele>
        <time>2021-05-20T14:12:47Z</time>
      </trkpt>
      <trkpt lat="42.2681100" lon="-8.6617220">
        <ele>159.7</ele>
        <time>2021-05-20T14:12:48Z</time>
      </trkpt>
      <trkpt lat="42.2681220" lon="-8.6617180">
        <ele>159.7</ele>
        <time>2021-05-20T14:12:49Z</time>
      </trkpt>
      <trkpt lat="42.2681330" lon="-8.6617240">
        <ele>159.8</ele>
        <time>2021-05-20T14:12:50Z</time>
      </trkpt>
      <trkpt lat="42.2681440" lon="-8.6617110">
        <ele>159.8</ele>
        <time>2021-05-20T14:12:51Z</time>
      </trkpt>
      <trkpt lat="42.2681600" lon="-8.6617100">
        <ele>159.8</ele>
        <time>2021-05-20T14:12:52Z</time>
      </trkpt>
      <trkpt lat="42.2681750" lon="-8.6617100">
        <ele>159.9</ele>
        <time>2021-05-20T14:12:53Z</time>
      </trkpt>
      <trkpt lat="42.2681910" lon="-8.6617050">
        <ele>159.9</ele>
        <time>2021-05-20T14:12:54Z</time>
      </trkpt>
      <trkpt lat="42.2682140" lon="-8.6617070">
        <ele>160.0</ele>
        <time>2021-05-20T14:12:55Z</time>
      </trkpt>
      <trkpt lat="42.2682230" lon="-8.6617070">
        <ele>160.0</ele>
        <time>2021-05-20T14:12:56Z</time>
      </trkpt>
      <trkpt lat="42.2682330" lon="-8.6617080">
        <ele>160.0</ele>
        <time>2021-05-20T14:12:57Z</time>
      </trkpt>
      <trkpt lat="42.2682420" lon="-8.6617040">
        <ele>160.1</ele>
        <time>2021-05-20T14:12:58Z</time>
      </trkpt>
      <trkpt lat="42.2682510" lon="-8.6617070">
        <ele>160.1</ele>
        <time>2021-05-20T14:12:59Z</time>
      </trkpt>
      <trkpt lat="42.2682660" lon="-8.6617030">
        <ele>160.1</ele>
        <time>2021-05-20T14:13:00Z</time>
      </trkpt>
      <trkpt lat="42.2682800" lon="-8.6617000">
        <ele>160.2</ele>
        <time>2021-05-20T14:13:01Z</time>
      </trkpt>
      <trkpt lat="42.2682870" lon="-8.6616880">
        <ele>160.2</ele>
        <time>2021-05-20T14:13:02Z</time>
      </trkpt>
      <trkpt lat="42.2682940" lon="-8.6616840">
        <ele>160.2</ele>
        <time>2021-05-20T14:13:03Z</time>
      </trkpt>
      <trkpt lat="42.2683040" lon="-8.6616810">
        <ele>160.3</ele>
        <time>2021-05-20T14:13:04Z</time>
      </trkpt>
      <trkpt lat="42.2683140" lon="-8.6616810">
        <ele>160.3</ele>
        <time>2021-05-20T14:13:05Z</time>
      </trkpt>
      <trkpt lat="42.2683230" lon="-8.6616830">
        <ele>160.3</ele>
        <time>2021-05-20T14:13:06Z</time>
      </trkpt>
      <trkpt lat="42.2683410" lon="-8.6616850">
        <ele>160.4</ele>
        <time>2021-05-20T14:13:07Z</time>
      </trkpt>
      <trkpt lat="42.2683510" lon="-8.6616850">
        <ele>160.4</ele>
        <time>2021-05-20T14:13:08Z</time>
      </trkpt>
      <trkpt lat="42.2683610" lon="-8.6616860">
        <ele>160.4</ele>
        <time>2021-05-20T14:13:09Z</time>
      </trkpt>
      <trkpt lat="42.2683840" lon="-8.6616930">
        <ele>160.5</ele>
        <time>2021-05-20T14:13:10Z</time>
      </trkpt>
      <trkpt lat="42.2683920" lon="-8.6616940">
        <ele>160.5</ele>
        <time>2021-05-20T14:13:11Z</time>
      </trkpt>
      <trkpt lat="42.2683950" lon="-8.6616890">
        <ele>160.5</ele>
        <time>2021-05-20T14:13:12Z</time>
      </trkpt>
      <trkpt lat="42.2684000" lon="-8.6616820">
        <ele>160.5</ele>
        <time>2021-05-20T14:13:13Z</time>
      </trkpt>
      <trkpt lat="42.2684080" lon="-8.6616800">
        <ele>160.5</ele>
        <time>2021-05-20T14:13:14Z</time>
      </trkpt>
      <trkpt lat="42.2684180" lon="-8.6616750">
        <ele>160.6</ele>
        <time>2021-05-20T14:13:15Z</time>
      </trkpt>
      <trkpt lat="42.2684280" lon="-8.6616750">
        <ele>160.6</ele>
        <time>2021-05-20T14:13:16Z</time>
      </trkpt>
      <trkpt lat="42.2684420" lon="-8.6616900">
        <ele>160.6</ele>
        <time>2021-05-20T14:13:17Z</time>
      </trkpt>
      <trkpt lat="42.2684510" lon="-8.6616920">
        <ele>160.6</ele>
        <time>2021-05-20T14:13:18Z</time>
      </trkpt>
      <trkpt lat="42.2684720" lon="-8.6616930">
        <ele>160.7</ele>
        <time>2021-05-20T14:13:19Z</time>
      </trkpt>
      <trkpt lat="42.2684820" lon="-8.6616910">
        <ele>160.7</ele>
        <time>2021-05-20T14:13:20Z</time>
      </trkpt>
      <trkpt lat="42.2684930" lon="-8.6616880">
        <ele>160.7</ele>
        <time>2021-05-20T14:13:21Z</time>
      </trkpt>
      <trkpt lat="42.2685060" lon="-8.6616810">
        <ele>160.7</ele>
        <time>2021-05-20T14:13:22Z</time>
      </trkpt>
      <trkpt lat="42.2685190" lon="-8.6616700">
        <ele>160.7</ele>
        <time>2021-05-20T14:13:23Z</time>
      </trkpt>
      <trkpt lat="42.2685210" lon="-8.6616630">
        <ele>160.7</ele>
        <time>2021-05-20T14:13:24Z</time>
      </trkpt>
      <trkpt lat="42.2685360" lon="-8.6616550">
        <ele>160.7</ele>
        <time>2021-05-20T14:13:25Z</time>
      </trkpt>
      <trkpt lat="42.2685460" lon="-8.6616460">
        <ele>160.7</ele>
        <time>2021-05-20T14:13:26Z</time>
      </trkpt>
      <trkpt lat="42.2685590" lon="-8.6616290">
        <ele>160.7</ele>
        <time>2021-05-20T14:13:27Z</time>
      </trkpt>
      <trkpt lat="42.2685710" lon="-8.6616140">
        <ele>160.7</ele>
        <time>2021-05-20T14:13:28Z</time>
      </trkpt>
      <trkpt lat="42.2685810" lon="-8.6615970">
        <ele>160.7</ele>
        <time>2021-05-20T14:13:29Z</time>
      </trkpt>
      <trkpt lat="42.2685910" lon="-8.6615860">
        <ele>160.7</ele>
        <time>2021-05-20T14:13:30Z</time>
      </trkpt>
      <trkpt lat="42.2686030" lon="-8.6615760">
        <ele>160.7</ele>
        <time>2021-05-20T14:13:31Z</time>
      </trkpt>
      <trkpt lat="42.2686130" lon="-8.6615720">
        <ele>160.7</ele>
        <time>2021-05-20T14:13:32Z</time>
      </trkpt>
      <trkpt lat="42.2686160" lon="-8.6615570">
        <ele>160.6</ele>
        <time>2021-05-20T14:13:33Z</time>
      </trkpt>
      <trkpt lat="42.2686220" lon="-8.6615460">
        <ele>160.6</ele>
        <time>2021-05-20T14:13:34Z</time>
      </trkpt>
      <trkpt lat="42.2686250" lon="-8.6615390">
        <ele>160.6</ele>
        <time>2021-05-20T14:13:35Z</time>
      </trkpt>
      <trkpt lat="42.2686300" lon="-8.6615300">
        <ele>160.6</ele>
        <time>2021-05-20T14:13:36Z</time>
      </trkpt>
      <trkpt lat="42.2686310" lon="-8.6615230">
        <ele>160.6</ele>
        <time>2021-05-20T14:13:37Z</time>
      </trkpt>
      <trkpt lat="42.2686540" lon="-8.6614980">
        <ele>160.5</ele>
        <time>2021-05-20T14:13:38Z</time>
      </trkpt>
      <trkpt lat="42.2686580" lon="-8.6614900">
        <ele>160.5</ele>
        <time>2021-05-20T14:13:39Z</time>
      </trkpt>
      <trkpt lat="42.2686650" lon="-8.6614690">
        <ele>160.5</ele>
        <time>2021-05-20T14:13:40Z</time>
      </trkpt>
      <trkpt lat="42.2686720" lon="-8.6614580">
        <ele>160.5</ele>
        <time>2021-05-20T14:13:41Z</time>
      </trkpt>
      <trkpt lat="42.2686780" lon="-8.6614460">
        <ele>160.5</ele>
        <time>2021-05-20T14:13:42Z</time>
      </trkpt>
      <trkpt lat="42.2686850" lon="-8.6614280">
        <ele>160.4</ele>
        <time>2021-05-20T14:13:43Z</time>
      </trkpt>
      <trkpt lat="42.2686840" lon="-8.6614170">
        <ele>160.4</ele>
        <time>2021-05-20T14:13:44Z</time>
      </trkpt>
      <trkpt lat="42.2686890" lon="-8.6614110">
        <ele>160.4</ele>
        <time>2021-05-20T14:13:45Z</time>
      </trkpt>
      <trkpt lat="42.2686970" lon="-8.6613920">
        <ele>160.4</ele>
        <time>2021-05-20T14:13:46Z</time>
      </trkpt>
      <trkpt lat="42.2687100" lon="-8.6613740">
        <ele>160.3</ele>
        <time>2021-05-20T14:13:47Z</time>
      </trkpt>
      <trkpt lat="42.2687260" lon="-8.6613550">
        <ele>160.3</ele>
        <time>2021-05-20T14:13:48Z</time>
      </trkpt>
      <trkpt lat="42.2687350" lon="-8.6613460">
        <ele>160.3</ele>
        <time>2021-05-20T14:13:49Z</time>
      </trkpt>
      <trkpt lat="42.2687440" lon="-8.6613380">
        <ele>160.3</ele>
        <time>2021-05-20T14:13:50Z</time>
      </trkpt>
      <trkpt lat="42.2687550" lon="-8.6613220">
        <ele>160.2</ele>
        <time>2021-05-20T14:13:51Z</time>
      </trkpt>
      <trkpt lat="42.2687470" lon="-8.6613120">
        <ele>160.2</ele>
        <time>2021-05-20T14:13:52Z</time>
      </trkpt>
      <trkpt lat="42.2687540" lon="-8.6612970">
        <ele>160.2</ele>
        <time>2021-05-20T14:13:53Z</time>
      </trkpt>
      <trkpt lat="42.2687640" lon="-8.6612770">
        <ele>160.1</ele>
        <time>2021-05-20T14:13:54Z</time>
      </trkpt>
      <trkpt lat="42.2687700" lon="-8.6612620">
        <ele>160.1</ele>
        <time>2021-05-20T14:13:55Z</time>
      </trkpt>
      <trkpt lat="42.2687730" lon="-8.6612500">
        <ele>160.1</ele>
        <time>2021-05-20T14:13:56Z</time>
      </trkpt>
      <trkpt lat="42.2687770" lon="-8.6612370">
        <ele>160.1</ele>
        <time>2021-05-20T14:13:57Z</time>
      </trkpt>
      <trkpt lat="42.2687850" lon="-8.6612210">
        <ele>160.1</ele>
        <time>2021-05-20T14:13:58Z</time>
      </trkpt>
      <trkpt lat="42.2687920" lon="-8.6611980">
        <ele>160.1</ele>
        <time>2021-05-20T14:13:59Z</time>
      </trkpt>
      <trkpt lat="42.2687960" lon="-8.6611820">
        <ele>160.0</ele>
        <time>2021-05-20T14:14:00Z</time>
      </trkpt>
      <trkpt lat="42.2688010" lon="-8.6611670">
        <ele>160.0</ele>
        <time>2021-05-20T14:14:01Z</time>
      </trkpt>
      <trkpt lat="42.2688090" lon="-8.6611570">
        <ele>160.0</ele>
        <time>2021-05-20T14:14:02Z</time>
      </trkpt>
      <trkpt lat="42.2688200" lon="-8.6611470">
        <ele>160.0</ele>
        <time>2021-05-20T14:14:03Z</time>
      </trkpt>
      <trkpt lat="42.2688230" lon="-8.6611320">
        <ele>160.0</ele>
        <time>2021-05-20T14:14:04Z</time>
      </trkpt>
      <trkpt lat="42.2688300" lon="-8.6611220">
        <ele>160.0</ele>
        <time>2021-05-20T14:14:05Z</time>
      </trkpt>
      <trkpt lat="42.2688350" lon="-8.6611020">
        <ele>160.0</ele>
        <time>2021-05-20T14:14:06Z</time>
      </trkpt>
      <trkpt lat="42.2688350" lon="-8.6610940">
        <ele>160.0</ele>
        <time>2021-05-20T14:14:07Z</time>
      </trkpt>
      <trkpt lat="42.2688430" lon="-8.6610740">
        <ele>159.9</ele>
        <time>2021-05-20T14:14:08Z</time>
      </trkpt>
      <trkpt lat="42.2688490" lon="-8.6610630">
        <ele>159.9</ele>
        <time>2021-05-20T14:14:09Z</time>
      </trkpt>
      <trkpt lat="42.2688550" lon="-8.6610520">
        <ele>159.9</ele>
        <time>2021-05-20T14:14:10Z</time>
      </trkpt>
      <trkpt lat="42.2688560" lon="-8.6610390">
        <ele>159.9</ele>
        <time>2021-05-20T14:14:11Z</time>
      </trkpt>
      <trkpt lat="42.2688570" lon="-8.6610250">
        <ele>159.9</ele>
        <time>2021-05-20T14:14:12Z</time>
      </trkpt>
      <trkpt lat="42.2688610" lon="-8.6610110">
        <ele>159.9</ele>
        <time>2021-05-20T14:14:13Z</time>
      </trkpt>
      <trkpt lat="42.2688610" lon="-8.6609950">
        <ele>159.9</ele>
        <time>2021-05-20T14:14:14Z</time>
      </trkpt>
      <trkpt lat="42.2688660" lon="-8.6609900">
        <ele>159.9</ele>
        <time>2021-05-20T14:14:15Z</time>
      </trkpt>
      <trkpt lat="42.2688700" lon="-8.6609730">
        <ele>159.9</ele>
        <time>2021-05-20T14:14:16Z</time>
      </trkpt>
      <trkpt lat="42.2688720" lon="-8.6609600">
        <ele>159.9</ele>
        <time>2021-05-20T14:14:17Z</time>
      </trkpt>
      <trkpt lat="42.2688780" lon="-8.6609510">
        <ele>159.9</ele>
        <time>2021-05-20T14:14:18Z</time>
      </trkpt>
      <trkpt lat="42.2688850" lon="-8.6609330">
        <ele>159.9</ele>
        <time>2021-05-20T14:14:19Z</time>
      </trkpt>
      <trkpt lat="42.2688940" lon="-8.6609090">
        <ele>159.9</ele>
        <time>2021-05-20T14:14:20Z</time>
      </trkpt>
      <trkpt lat="42.2688990" lon="-8.6608990">
        <ele>159.9</ele>
        <time>2021-05-20T14:14:21Z</time>
      </trkpt>
      <trkpt lat="42.2689030" lon="-8.6608890">
        <ele>159.9</ele>
        <time>2021-05-20T14:14:22Z</time>
      </trkpt>
      <trkpt lat="42.2689100" lon="-8.6608710">
        <ele>159.9</ele>
        <time>2021-05-20T14:14:23Z</time>
      </trkpt>
      <trkpt lat="42.2689140" lon="-8.6608530">
        <ele>159.8</ele>
        <time>2021-05-20T14:14:24Z</time>
      </trkpt>
      <trkpt lat="42.2689190" lon="-8.6608410">
        <ele>159.8</ele>
        <time>2021-05-20T14:14:25Z</time>
      </trkpt>
      <trkpt lat="42.2689250" lon="-8.6608340">
        <ele>159.8</ele>
        <time>2021-05-20T14:14:26Z</time>
      </trkpt>
      <trkpt lat="42.2689310" lon="-8.6608220">
        <ele>159.8</ele>
        <time>2021-05-20T14:14:27Z</time>
      </trkpt>
      <trkpt lat="42.2689340" lon="-8.6608230">
        <ele>159.8</ele>
        <time>2021-05-20T14:14:28Z</time>
      </trkpt>
      <trkpt lat="42.2689430" lon="-8.6608070">
        <ele>159.8</ele>
        <time>2021-05-20T14:14:29Z</time>
      </trkpt>
      <trkpt lat="42.2689490" lon="-8.6607890">
        <ele>159.8</ele>
        <time>2021-05-20T14:14:30Z</time>
      </trkpt>
      <trkpt lat="42.2689610" lon="-8.6607710">
        <ele>159.8</ele>
        <time>2021-05-20T14:14:31Z</time>
      </trkpt>
      <trkpt lat="42.2689680" lon="-8.6607610">
        <ele>159.8</ele>
        <time>2021-05-20T14:14:32Z</time>
      </trkpt>
      <trkpt lat="42.2689750" lon="-8.6607520">
        <ele>159.8</ele>
        <time>2021-05-20T14:14:33Z</time>
      </trkpt>
      <trkpt lat="42.2689860" lon="-8.6607330">
        <ele>159.8</ele>
        <time>2021-05-20T14:14:34Z</time>
      </trkpt>
      <trkpt lat="42.2689930" lon="-8.6607240">
        <ele>159.8</ele>
        <time>2021-05-20T14:14:35Z</time>
      </trkpt>
      <trkpt lat="42.2690000" lon="-8.6607140">
        <ele>159.8</ele>
        <time>2021-05-20T14:14:36Z</time>
      </trkpt>
      <trkpt lat="42.2690040" lon="-8.6607050">
        <ele>159.8</ele>
        <time>2021-05-20T14:14:37Z</time>
      </trkpt>
      <trkpt lat="42.2690080" lon="-8.6606890">
        <ele>159.8</ele>
        <time>2021-05-20T14:14:38Z</time>
      </trkpt>
      <trkpt lat="42.2690110" lon="-8.6606760">
        <ele>159.8</ele>
        <time>2021-05-20T14:14:39Z</time>
      </trkpt>
      <trkpt lat="42.2690220" lon="-8.6606620">
        <ele>159.8</ele>
        <time>2021-05-20T14:14:40Z</time>
      </trkpt>
      <trkpt lat="42.2690340" lon="-8.6606510">
        <ele>159.8</ele>
        <time>2021-05-20T14:14:41Z</time>
      </trkpt>
      <trkpt lat="42.2690450" lon="-8.6606400">
        <ele>159.8</ele>
        <time>2021-05-20T14:14:42Z</time>
      </trkpt>
      <trkpt lat="42.2690520" lon="-8.6606200">
        <ele>159.8</ele>
        <time>2021-05-20T14:14:43Z</time>
      </trkpt>
      <trkpt lat="42.2690650" lon="-8.6606060">
        <ele>159.8</ele>
        <time>2021-05-20T14:14:44Z</time>
      </trkpt>
      <trkpt lat="42.2690780" lon="-8.6605980">
        <ele>159.8</ele>
        <time>2021-05-20T14:14:45Z</time>
      </trkpt>
      <trkpt lat="42.2690880" lon="-8.6605950">
        <ele>159.8</ele>
        <time>2021-05-20T14:14:46Z</time>
      </trkpt>
      <trkpt lat="42.2691010" lon="-8.6605820">
        <ele>159.8</ele>
        <time>2021-05-20T14:14:47Z</time>
      </trkpt>
      <trkpt lat="42.2691070" lon="-8.6605730">
        <ele>159.8</ele>
        <time>2021-05-20T14:14:48Z</time>
      </trkpt>
      <trkpt lat="42.2691200" lon="-8.6605580">
        <ele>159.8</ele>
        <time>2021-05-20T14:14:49Z</time>
      </trkpt>
      <trkpt lat="42.2691270" lon="-8.6605480">
        <ele>159.8</ele>
        <time>2021-05-20T14:14:50Z</time>
      </trkpt>
      <trkpt lat="42.2691340" lon="-8.6605390">
        <ele>159.8</ele>
        <time>2021-05-20T14:14:51Z</time>
      </trkpt>
      <trkpt lat="42.2691510" lon="-8.6605250">
        <ele>159.8</ele>
        <time>2021-05-20T14:14:52Z</time>
      </trkpt>
      <trkpt lat="42.2691580" lon="-8.6605190">
        <ele>159.8</ele>
        <time>2021-05-20T14:14:53Z</time>
      </trkpt>
      <trkpt lat="42.2691660" lon="-8.6605130">
        <ele>159.8</ele>
        <time>2021-05-20T14:14:54Z</time>
      </trkpt>
      <trkpt lat="42.2691810" lon="-8.6604970">
        <ele>159.8</ele>
        <time>2021-05-20T14:14:55Z</time>
      </trkpt>
      <trkpt lat="42.2691940" lon="-8.6604840">
        <ele>159.8</ele>
        <time>2021-05-20T14:14:56Z</time>
      </trkpt>
      <trkpt lat="42.2692030" lon="-8.6604790">
        <ele>159.8</ele>
        <time>2021-05-20T14:14:57Z</time>
      </trkpt>
      <trkpt lat="42.2692130" lon="-8.6604680">
        <ele>159.8</ele>
        <time>2021-05-20T14:14:58Z</time>
      </trkpt>
      <trkpt lat="42.2692200" lon="-8.6604570">
        <ele>159.8</ele>
        <time>2021-05-20T14:14:59Z</time>
      </trkpt>
      <trkpt lat="42.2692310" lon="-8.6604400">
        <ele>159.8</ele>
        <time>2021-05-20T14:15:00Z</time>
      </trkpt>
      <trkpt lat="42.2692360" lon="-8.6604340">
        <ele>159.8</ele>
        <time>2021-05-20T14:15:01Z</time>
      </trkpt>
      <trkpt lat="42.2692400" lon="-8.6604270">
        <ele>159.8</ele>
        <time>2021-05-20T14:15:02Z</time>
      </trkpt>
      <trkpt lat="42.2692440" lon="-8.6604200">
        <ele>159.8</ele>
        <time>2021-05-20T14:15:03Z</time>
      </trkpt>
      <trkpt lat="42.2692510" lon="-8.6604120">
        <ele>159.8</ele>
        <time>2021-05-20T14:15:04Z</time>
      </trkpt>
      <trkpt lat="42.2692600" lon="-8.6604040">
        <ele>159.8</ele>
        <time>2021-05-20T14:15:05Z</time>
      </trkpt>
      <trkpt lat="42.2692690" lon="-8.6603980">
        <ele>159.8</ele>
        <time>2021-05-20T14:15:06Z</time>
      </trkpt>
      <trkpt lat="42.2692800" lon="-8.6603820">
        <ele>159.8</ele>
        <time>2021-05-20T14:15:07Z</time>
      </trkpt>
      <trkpt lat="42.2692840" lon="-8.6603750">
        <ele>159.8</ele>
        <time>2021-05-20T14:15:08Z</time>
      </trkpt>
      <trkpt lat="42.2692940" lon="-8.6603670">
        <ele>159.8</ele>
        <time>2021-05-20T14:15:09Z</time>
      </trkpt>
      <trkpt lat="42.2692990" lon="-8.6603540">
        <ele>159.9</ele>
        <time>2021-05-20T14:15:10Z</time>
      </trkpt>
      <trkpt lat="42.2693110" lon="-8.6603520">
        <ele>159.9</ele>
        <time>2021-05-20T14:15:11Z</time>
      </trkpt>
      <trkpt lat="42.2693170" lon="-8.6603360">
        <ele>159.9</ele>
        <time>2021-05-20T14:15:12Z</time>
      </trkpt>
      <trkpt lat="42.2693230" lon="-8.6603310">
        <ele>159.9</ele>
        <time>2021-05-20T14:15:13Z</time>
      </trkpt>
      <trkpt lat="42.2693330" lon="-8.6603150">
        <ele>159.9</ele>
        <time>2021-05-20T14:15:14Z</time>
      </trkpt>
      <trkpt lat="42.2693390" lon="-8.6603000">
        <ele>159.9</ele>
        <time>2021-05-20T14:15:15Z</time>
      </trkpt>
      <trkpt lat="42.2693530" lon="-8.6602870">
        <ele>159.9</ele>
        <time>2021-05-20T14:15:16Z</time>
      </trkpt>
      <trkpt lat="42.2693570" lon="-8.6602700">
        <ele>159.9</ele>
        <time>2021-05-20T14:15:17Z</time>
      </trkpt>
      <trkpt lat="42.2693590" lon="-8.6602490">
        <ele>159.9</ele>
        <time>2021-05-20T14:15:18Z</time>
      </trkpt>
      <trkpt lat="42.2693640" lon="-8.6602360">
        <ele>159.9</ele>
        <time>2021-05-20T14:15:19Z</time>
      </trkpt>
      <trkpt lat="42.2693670" lon="-8.6602250">
        <ele>159.9</ele>
        <time>2021-05-20T14:15:20Z</time>
      </trkpt>
      <trkpt lat="42.2693760" lon="-8.6602050">
        <ele>160.0</ele>
        <time>2021-05-20T14:15:21Z</time>
      </trkpt>
      <trkpt lat="42.2693780" lon="-8.6601960">
        <ele>160.0</ele>
        <time>2021-05-20T14:15:22Z</time>
      </trkpt>
      <trkpt lat="42.2693800" lon="-8.6601920">
        <ele>160.0</ele>
        <time>2021-05-20T14:15:23Z</time>
      </trkpt>
      <trkpt lat="42.2693870" lon="-8.6601690">
        <ele>160.0</ele>
        <time>2021-05-20T14:15:24Z</time>
      </trkpt>
      <trkpt lat="42.2693910" lon="-8.6601500">
        <ele>160.0</ele>
        <time>2021-05-20T14:15:25Z</time>
      </trkpt>
      <trkpt lat="42.2693970" lon="-8.6601270">
        <ele>160.0</ele>
        <time>2021-05-20T14:15:26Z</time>
      </trkpt>
      <trkpt lat="42.2694010" lon="-8.6601160">
        <ele>160.0</ele>
        <time>2021-05-20T14:15:27Z</time>
      </trkpt>
      <trkpt lat="42.2694110" lon="-8.6600880">
        <ele>160.0</ele>
        <time>2021-05-20T14:15:28Z</time>
      </trkpt>
      <trkpt lat="42.2694150" lon="-8.6600780">
        <ele>160.0</ele>
        <time>2021-05-20T14:15:29Z</time>
      </trkpt>
      <trkpt lat="42.2694200" lon="-8.6600680">
        <ele>160.0</ele>
        <time>2021-05-20T14:15:30Z</time>
      </trkpt>
      <trkpt lat="42.2694230" lon="-8.6600570">
        <ele>160.0</ele>
        <time>2021-05-20T14:15:31Z</time>
      </trkpt>
      <trkpt lat="42.2694340" lon="-8.6600370">
        <ele>160.1</ele>
        <time>2021-05-20T14:15:32Z</time>
      </trkpt>
      <trkpt lat="42.2694440" lon="-8.6600260">
        <ele>160.1</ele>
        <time>2021-05-20T14:15:33Z</time>
      </trkpt>
      <trkpt lat="42.2694410" lon="-8.6600130">
        <ele>160.1</ele>
        <time>2021-05-20T14:15:34Z</time>
      </trkpt>
      <trkpt lat="42.2694460" lon="-8.6599960">
        <ele>160.1</ele>
        <time>2021-05-20T14:15:35Z</time>
      </trkpt>
      <trkpt lat="42.2694540" lon="-8.6599960">
        <ele>160.1</ele>
        <time>2021-05-20T14:15:36Z</time>
      </trkpt>
      <trkpt lat="42.2694610" lon="-8.6599790">
        <ele>160.1</ele>
        <time>2021-05-20T14:15:37Z</time>
      </trkpt>
      <trkpt lat="42.2694640" lon="-8.6599670">
        <ele>160.1</ele>
        <time>2021-05-20T14:15:38Z</time>
      </trkpt>
      <trkpt lat="42.2694770" lon="-8.6599430">
        <ele>160.1</ele>
        <time>2021-05-20T14:15:39Z</time>
      </trkpt>
      <trkpt lat="42.2694810" lon="-8.6599330">
        <ele>160.1</ele>
        <time>2021-05-20T14:15:40Z</time>
      </trkpt>
      <trkpt lat="42.2694860" lon="-8.6599230">
        <ele>160.1</ele>
        <time>2021-05-20T14:15:41Z</time>
      </trkpt>
      <trkpt lat="42.2694910" lon="-8.6599160">
        <ele>160.1</ele>
        <time>2021-05-20T14:15:42Z</time>
      </trkpt>
      <trkpt lat="42.2694950" lon="-8.6599000">
        <ele>160.2</ele>
        <time>2021-05-20T14:15:43Z</time>
      </trkpt>
      <trkpt lat="42.2695010" lon="-8.6598830">
        <ele>160.2</ele>
        <time>2021-05-20T14:15:44Z</time>
      </trkpt>
      <trkpt lat="42.2695040" lon="-8.6598700">
        <ele>160.2</ele>
        <time>2021-05-20T14:15:45Z</time>
      </trkpt>
      <trkpt lat="42.2695100" lon="-8.6598550">
        <ele>160.2</ele>
        <time>2021-05-20T14:15:46Z</time>
      </trkpt>
      <trkpt lat="42.2695130" lon="-8.6598400">
        <ele>160.2</ele>
        <time>2021-05-20T14:15:47Z</time>
      </trkpt>
      <trkpt lat="42.2695160" lon="-8.6598160">
        <ele>160.2</ele>
        <time>2021-05-20T14:15:48Z</time>
      </trkpt>
      <trkpt lat="42.2695180" lon="-8.6598040">
        <ele>160.2</ele>
        <time>2021-05-20T14:15:49Z</time>
      </trkpt>
      <trkpt lat="42.2695200" lon="-8.6597910">
        <ele>160.2</ele>
        <time>2021-05-20T14:15:50Z</time>
      </trkpt>
      <trkpt lat="42.2695210" lon="-8.6597730">
        <ele>160.2</ele>
        <time>2021-05-20T14:15:51Z</time>
      </trkpt>
      <trkpt lat="42.2695140" lon="-8.6597490">
        <ele>160.2</ele>
        <time>2021-05-20T14:15:52Z</time>
      </trkpt>
      <trkpt lat="42.2695090" lon="-8.6597400">
        <ele>160.2</ele>
        <time>2021-05-20T14:15:53Z</time>
      </trkpt>
      <trkpt lat="42.2695080" lon="-8.6597200">
        <ele>160.2</ele>
        <time>2021-05-20T14:15:54Z</time>
      </trkpt>
      <trkpt lat="42.2695110" lon="-8.6597110">
        <ele>160.2</ele>
        <time>2021-05-20T14:15:55Z</time>
      </trkpt>
      <trkpt lat="42.2695160" lon="-8.6597050">
        <ele>160.2</ele>
        <time>2021-05-20T14:15:56Z</time>
      </trkpt>
      <trkpt lat="42.2695160" lon="-8.6597070">
        <ele>160.2</ele>
        <time>2021-05-20T14:15:57Z</time>
      </trkpt>
      <trkpt lat="42.2695080" lon="-8.6597060">
        <ele>160.2</ele>
        <time>2021-05-20T14:15:58Z</time>
      </trkpt>
      <trkpt lat="42.2695020" lon="-8.6596970">
        <ele>160.2</ele>
        <time>2021-05-20T14:15:59Z</time>
      </trkpt>
      <trkpt lat="42.2695110" lon="-8.6596870">
        <ele>160.2</ele>
        <time>2021-05-20T14:16:00Z</time>
      </trkpt>
      <trkpt lat="42.2695200" lon="-8.6596820">
        <ele>160.3</ele>
        <time>2021-05-20T14:16:01Z</time>
      </trkpt>
      <trkpt lat="42.2695270" lon="-8.6596750">
        <ele>160.3</ele>
        <time>2021-05-20T14:16:02Z</time>
      </trkpt>
      <trkpt lat="42.2695360" lon="-8.6596670">
        <ele>160.3</ele>
        <time>2021-05-20T14:16:03Z</time>
      </trkpt>
      <trkpt lat="42.2695380" lon="-8.6596600">
        <ele>160.3</ele>
        <time>2021-05-20T14:16:04Z</time>
      </trkpt>
      <trkpt lat="42.2695400" lon="-8.6596540">
        <ele>160.3</ele>
        <time>2021-05-20T14:16:05Z</time>
      </trkpt>
      <trkpt lat="42.2695430" lon="-8.6596470">
        <ele>160.3</ele>
        <time>2021-05-20T14:16:06Z</time>
      </trkpt>
      <trkpt lat="42.2695450" lon="-8.6596410">
        <ele>160.3</ele>
        <time>2021-05-20T14:16:07Z</time>
      </trkpt>
      <trkpt lat="42.2695470" lon="-8.6596340">
        <ele>160.3</ele>
        <time>2021-05-20T14:16:08Z</time>
      </trkpt>
      <trkpt lat="42.2695490" lon="-8.6596280">
        <ele>160.3</ele>
        <time>2021-05-20T14:16:09Z</time>
      </trkpt>
      <trkpt lat="42.2695420" lon="-8.6596120">
        <ele>160.3</ele>
        <time>2021-05-20T14:16:10Z</time>
      </trkpt>
      <trkpt lat="42.2695440" lon="-8.6596110">
        <ele>160.3</ele>
        <time>2021-05-20T14:16:11Z</time>
      </trkpt>
      <trkpt lat="42.2695480" lon="-8.6596070">
        <ele>160.3</ele>
        <time>2021-05-20T14:16:12Z</time>
      </trkpt>
      <trkpt lat="42.2695460" lon="-8.6596070">
        <ele>160.3</ele>
        <time>2021-05-20T14:16:13Z</time>
      </trkpt>
      <trkpt lat="42.2695470" lon="-8.6596040">
        <ele>160.3</ele>
        <time>2021-05-20T14:16:14Z</time>
      </trkpt>
      <trkpt lat="42.2695460" lon="-8.6596090">
        <ele>160.3</ele>
        <time>2021-05-20T14:16:15Z</time>
      </trkpt>
      <trkpt lat="42.2695430" lon="-8.6596100">
        <ele>160.3</ele>
        <time>2021-05-20T14:16:16Z</time>
      </trkpt>
      <trkpt lat="42.2695400" lon="-8.6596100">
        <ele>160.3</ele>
        <time>2021-05-20T14:16:17Z</time>
      </trkpt>
      <trkpt lat="42.2695310" lon="-8.6596060">
        <ele>160.3</ele>
        <time>2021-05-20T14:16:18Z</time>
      </trkpt>
      <trkpt lat="42.2695260" lon="-8.6596050">
        <ele>160.3</ele>
        <time>2021-05-20T14:16:19Z</time>
      </trkpt>
      <trkpt lat="42.2695310" lon="-8.6596010">
        <ele>160.3</ele>
        <time>2021-05-20T14:16:20Z</time>
      </trkpt>
      <trkpt lat="42.2695340" lon="-8.6596020">
        <ele>160.3</ele>
        <time>2021-05-20T14:16:21Z</time>
      </trkpt>
      <trkpt lat="42.2695430" lon="-8.6595980">
        <ele>160.2</ele>
        <time>2021-05-20T14:16:22Z</time>
      </trkpt>
      <trkpt lat="42.2695310" lon="-8.6595940">
        <ele>160.2</ele>
        <time>2021-05-20T14:16:23Z</time>
      </trkpt>
      <trkpt lat="42.2695360" lon="-8.6595980">
        <ele>160.2</ele>
        <time>2021-05-20T14:16:24Z</time>
      </trkpt>
      <trkpt lat="42.2695370" lon="-8.6596030">
        <ele>160.2</ele>
        <time>2021-05-20T14:16:25Z</time>
      </trkpt>
      <trkpt lat="42.2695280" lon="-8.6596010">
        <ele>160.2</ele>
        <time>2021-05-20T14:16:26Z</time>
      </trkpt>
      <trkpt lat="42.2695130" lon="-8.6596020">
        <ele>160.2</ele>
        <time>2021-05-20T14:16:27Z</time>
      </trkpt>
      <trkpt lat="42.2695090" lon="-8.6596000">
        <ele>160.2</ele>
        <time>2021-05-20T14:16:28Z</time>
      </trkpt>
      <trkpt lat="42.2695090" lon="-8.6596070">
        <ele>160.2</ele>
        <time>2021-05-20T14:16:29Z</time>
      </trkpt>
      <trkpt lat="42.2695120" lon="-8.6596130">
        <ele>160.2</ele>
        <time>2021-05-20T14:16:30Z</time>
      </trkpt>
      <trkpt lat="42.2695150" lon="-8.6596190">
        <ele>160.2</ele>
        <time>2021-05-20T14:16:31Z</time>
      </trkpt>
      <trkpt lat="42.2695170" lon="-8.6596210">
        <ele>160.2</ele>
        <time>2021-05-20T14:16:32Z</time>
      </trkpt>
      <trkpt lat="42.2695190" lon="-8.6596170">
        <ele>160.2</ele>
        <time>2021-05-20T14:16:33Z</time>
      </trkpt>
      <trkpt lat="42.2695140" lon="-8.6596160">
        <ele>160.2</ele>
        <time>2021-05-20T14:16:34Z</time>
      </trkpt>
      <trkpt lat="42.2695120" lon="-8.6596170">
        <ele>160.2</ele>
        <time>2021-05-20T14:16:35Z</time>
      </trkpt>
      <trkpt lat="42.2695110" lon="-8.6596140">
        <ele>160.2</ele>
        <time>2021-05-20T14:16:36Z</time>
      </trkpt>
      <trkpt lat="42.2695030" lon="-8.6596090">
        <ele>160.2</ele>
        <time>2021-05-20T14:16:37Z</time>
      </trkpt>
      <trkpt lat="42.2695060" lon="-8.6596130">
        <ele>160.2</ele>
        <time>2021-05-20T14:16:38Z</time>
      </trkpt>
      <trkpt lat="42.2695170" lon="-8.6596110">
        <ele>160.2</ele>
        <time>2021-05-20T14:16:39Z</time>
      </trkpt>
      <trkpt lat="42.2695250" lon="-8.6596160">
        <ele>160.2</ele>
        <time>2021-05-20T14:16:40Z</time>
      </trkpt>
      <trkpt lat="42.2695280" lon="-8.6596040">
        <ele>160.1</ele>
        <time>2021-05-20T14:16:41Z</time>
      </trkpt>
      <trkpt lat="42.2695250" lon="-8.6595940">
        <ele>160.1</ele>
        <time>2021-05-20T14:16:42Z</time>
      </trkpt>
      <trkpt lat="42.2695230" lon="-8.6595890">
        <ele>160.1</ele>
        <time>2021-05-20T14:16:43Z</time>
      </trkpt>
      <trkpt lat="42.2695340" lon="-8.6595750">
        <ele>160.1</ele>
        <time>2021-05-20T14:16:44Z</time>
      </trkpt>
      <trkpt lat="42.2695360" lon="-8.6595660">
        <ele>160.1</ele>
        <time>2021-05-20T14:16:45Z</time>
      </trkpt>
      <trkpt lat="42.2695360" lon="-8.6595620">
        <ele>160.1</ele>
        <time>2021-05-20T14:16:46Z</time>
      </trkpt>
      <trkpt lat="42.2695440" lon="-8.6595600">
        <ele>160.1</ele>
        <time>2021-05-20T14:16:47Z</time>
      </trkpt>
      <trkpt lat="42.2695470" lon="-8.6595440">
        <ele>160.1</ele>
        <time>2021-05-20T14:16:48Z</time>
      </trkpt>
      <trkpt lat="42.2695400" lon="-8.6595390">
        <ele>160.1</ele>
        <time>2021-05-20T14:16:49Z</time>
      </trkpt>
      <trkpt lat="42.2695460" lon="-8.6595370">
        <ele>160.1</ele>
        <time>2021-05-20T14:16:50Z</time>
      </trkpt>
      <trkpt lat="42.2695560" lon="-8.6595330">
        <ele>160.1</ele>
        <time>2021-05-20T14:16:51Z</time>
      </trkpt>
      <trkpt lat="42.2695690" lon="-8.6595300">
        <ele>160.0</ele>
        <time>2021-05-20T14:16:52Z</time>
      </trkpt>
      <trkpt lat="42.2695790" lon="-8.6595200">
        <ele>160.0</ele>
        <time>2021-05-20T14:16:53Z</time>
      </trkpt>
      <trkpt lat="42.2695900" lon="-8.6595160">
        <ele>160.0</ele>
        <time>2021-05-20T14:16:54Z</time>
      </trkpt>
      <trkpt lat="42.2696010" lon="-8.6595140">
        <ele>160.0</ele>
        <time>2021-05-20T14:16:55Z</time>
      </trkpt>
      <trkpt lat="42.2696070" lon="-8.6595180">
        <ele>160.0</ele>
        <time>2021-05-20T14:16:56Z</time>
      </trkpt>
      <trkpt lat="42.2696060" lon="-8.6595100">
        <ele>160.0</ele>
        <time>2021-05-20T14:16:57Z</time>
      </trkpt>
      <trkpt lat="42.2696020" lon="-8.6595080">
        <ele>160.0</ele>
        <time>2021-05-20T14:16:58Z</time>
      </trkpt>
      <trkpt lat="42.2696020" lon="-8.6595070">
        <ele>160.0</ele>
        <time>2021-05-20T14:16:59Z</time>
      </trkpt>
      <trkpt lat="42.2695870" lon="-8.6595230">
        <ele>160.0</ele>
        <time>2021-05-20T14:17:00Z</time>
      </trkpt>
      <trkpt lat="42.2695860" lon="-8.6595230">
        <ele>160.0</ele>
        <time>2021-05-20T14:17:01Z</time>
      </trkpt>
      <trkpt lat="42.2695900" lon="-8.6595210">
        <ele>160.0</ele>
        <time>2021-05-20T14:17:02Z</time>
      </trkpt>
      <trkpt lat="42.2695850" lon="-8.6595230">
        <ele>160.0</ele>
        <time>2021-05-20T14:17:03Z</time>
      </trkpt>
      <trkpt lat="42.2695720" lon="-8.6595270">
        <ele>160.0</ele>
        <time>2021-05-20T14:17:04Z</time>
      </trkpt>
      <trkpt lat="42.2695590" lon="-8.6595400">
        <ele>160.0</ele>
        <time>2021-05-20T14:17:05Z</time>
      </trkpt>
      <trkpt lat="42.2695510" lon="-8.6595430">
        <ele>160.0</ele>
        <time>2021-05-20T14:17:06Z</time>
      </trkpt>
      <trkpt lat="42.2695530" lon="-8.6595440">
        <ele>160.0</ele>
        <time>2021-05-20T14:17:07Z</time>
      </trkpt>
      <trkpt lat="42.2695550" lon="-8.6595440">
        <ele>160.0</ele>
        <time>2021-05-20T14:17:08Z</time>
      </trkpt>
      <trkpt lat="42.2695570" lon="-8.6595450">
        <ele>160.0</ele>
        <time>2021-05-20T14:17:09Z</time>
      </trkpt>
      <trkpt lat="42.2695590" lon="-8.6595450">
        <ele>160.0</ele>
        <time>2021-05-20T14:17:10Z</time>
      </trkpt>
      <trkpt lat="42.2695610" lon="-8.6595460">
        <ele>160.0</ele>
        <time>2021-05-20T14:17:11Z</time>
      </trkpt>
      <trkpt lat="42.2695630" lon="-8.6595460">
        <ele>160.0</ele>
        <time>2021-05-20T14:17:12Z</time>
      </trkpt>
      <trkpt lat="42.2695650" lon="-8.6595460">
        <ele>159.9</ele>
        <time>2021-05-20T14:17:13Z</time>
      </trkpt>
      <trkpt lat="42.2695670" lon="-8.6595470">
        <ele>159.9</ele>
        <time>2021-05-20T14:17:14Z</time>
      </trkpt>
      <trkpt lat="42.2695690" lon="-8.6595470">
        <ele>159.9</ele>
        <time>2021-05-20T14:17:15Z</time>
      </trkpt>
      <trkpt lat="42.2695710" lon="-8.6595480">
        <ele>159.9</ele>
        <time>2021-05-20T14:17:16Z</time>
      </trkpt>
      <trkpt lat="42.2695730" lon="-8.6595480">
        <ele>159.9</ele>
        <time>2021-05-20T14:17:17Z</time>
      </trkpt>
      <trkpt lat="42.2695750" lon="-8.6595490">
        <ele>159.9</ele>
        <time>2021-05-20T14:17:18Z</time>
      </trkpt>
      <trkpt lat="42.2695770" lon="-8.6595490">
        <ele>159.9</ele>
        <time>2021-05-20T14:17:19Z</time>
      </trkpt>
      <trkpt lat="42.2695790" lon="-8.6595490">
        <ele>159.9</ele>
        <time>2021-05-20T14:17:20Z</time>
      </trkpt>
      <trkpt lat="42.2695810" lon="-8.6595500">
        <ele>159.9</ele>
        <time>2021-05-20T14:17:21Z</time>
      </trkpt>
      <trkpt lat="42.2695830" lon="-8.6595500">
        <ele>159.9</ele>
        <time>2021-05-20T14:17:22Z</time>
      </trkpt>
      <trkpt lat="42.2695850" lon="-8.6595510">
        <ele>159.9</ele>
        <time>2021-05-20T14:17:23Z</time>
      </trkpt>
      <trkpt lat="42.2695870" lon="-8.6595510">
        <ele>159.9</ele>
        <time>2021-05-20T14:17:24Z</time>
      </trkpt>
      <trkpt lat="42.2695890" lon="-8.6595520">
        <ele>159.9</ele>
        <time>2021-05-20T14:17:25Z</time>
      </trkpt>
      <trkpt lat="42.2695910" lon="-8.6595520">
        <ele>159.9</ele>
        <time>2021-05-20T14:17:26Z</time>
      </trkpt>
      <trkpt lat="42.2695930" lon="-8.6595530">
        <ele>159.9</ele>
        <time>2021-05-20T14:17:27Z</time>
      </trkpt>
      <trkpt lat="42.2695950" lon="-8.6595530">
        <ele>159.9</ele>
        <time>2021-05-20T14:17:28Z</time>
      </trkpt>
      <trkpt lat="42.2695970" lon="-8.6595530">
        <ele>159.9</ele>
        <time>2021-05-20T14:17:29Z</time>
      </trkpt>
      <trkpt lat="42.2695990" lon="-8.6595540">
        <ele>159.9</ele>
        <time>2021-05-20T14:17:30Z</time>
      </trkpt>
      <trkpt lat="42.2696010" lon="-8.6595540">
        <ele>159.9</ele>
        <time>2021-05-20T14:17:31Z</time>
      </trkpt>
      <trkpt lat="42.2696030" lon="-8.6595550">
        <ele>159.9</ele>
        <time>2021-05-20T14:17:32Z</time>
      </trkpt>
      <trkpt lat="42.2696050" lon="-8.6595550">
        <ele>159.9</ele>
        <time>2021-05-20T14:17:33Z</time>
      </trkpt>
      <trkpt lat="42.2696070" lon="-8.6595560">
        <ele>159.9</ele>
        <time>2021-05-20T14:17:34Z</time>
      </trkpt>
      <trkpt lat="42.2696090" lon="-8.6595560">
        <ele>159.9</ele>
        <time>2021-05-20T14:17:35Z</time>
      </trkpt>
      <trkpt lat="42.2696110" lon="-8.6595560">
        <ele>159.9</ele>
        <time>2021-05-20T14:17:36Z</time>
      </trkpt>
      <trkpt lat="42.2696130" lon="-8.6595570">
        <ele>159.9</ele>
        <time>2021-05-20T14:17:37Z</time>
      </trkpt>
      <trkpt lat="42.2696150" lon="-8.6595570">
        <ele>159.9</ele>
        <time>2021-05-20T14:17:38Z</time>
      </trkpt>
      <trkpt lat="42.2696170" lon="-8.6595580">
        <ele>159.9</ele>
        <time>2021-05-20T14:17:39Z</time>
      </trkpt>
      <trkpt lat="42.2696190" lon="-8.6595580">
        <ele>159.9</ele>
        <time>2021-05-20T14:17:40Z</time>
      </trkpt>
      <trkpt lat="42.2696210" lon="-8.6595590">
        <ele>159.9</ele>
        <time>2021-05-20T14:17:41Z</time>
      </trkpt>
      <trkpt lat="42.2696230" lon="-8.6595590">
        <ele>159.9</ele>
        <time>2021-05-20T14:17:42Z</time>
      </trkpt>
      <trkpt lat="42.2696250" lon="-8.6595590">
        <ele>159.9</ele>
        <time>2021-05-20T14:17:43Z</time>
      </trkpt>
      <trkpt lat="42.2696270" lon="-8.6595600">
        <ele>159.9</ele>
        <time>2021-05-20T14:17:44Z</time>
      </trkpt>
      <trkpt lat="42.2696290" lon="-8.6595600">
        <ele>159.9</ele>
        <time>2021-05-20T14:17:45Z</time>
      </trkpt>
      <trkpt lat="42.2696310" lon="-8.6595610">
        <ele>159.9</ele>
        <time>2021-05-20T14:17:46Z</time>
      </trkpt>
      <trkpt lat="42.2696330" lon="-8.6595610">
        <ele>159.9</ele>
        <time>2021-05-20T14:17:47Z</time>
      </trkpt>
      <trkpt lat="42.2696350" lon="-8.6595620">
        <ele>159.9</ele>
        <time>2021-05-20T14:17:48Z</time>
      </trkpt>
      <trkpt lat="42.2696370" lon="-8.6595620">
        <ele>159.9</ele>
        <time>2021-05-20T14:17:49Z</time>
      </trkpt>
      <trkpt lat="42.2696390" lon="-8.6595620">
        <ele>159.9</ele>
        <time>2021-05-20T14:17:50Z</time>
      </trkpt>
      <trkpt lat="42.2696410" lon="-8.6595630">
        <ele>159.9</ele>
        <time>2021-05-20T14:17:51Z</time>
      </trkpt>
      <trkpt lat="42.2696430" lon="-8.6595630">
        <ele>159.9</ele>
        <time>2021-05-20T14:17:52Z</time>
      </trkpt>
      <trkpt lat="42.2696450" lon="-8.6595640">
        <ele>159.9</ele>
        <time>2021-05-20T14:17:53Z</time>
      </trkpt>
      <trkpt lat="42.2696470" lon="-8.6595640">
        <ele>159.9</ele>
        <time>2021-05-20T14:17:54Z</time>
      </trkpt>
      <trkpt lat="42.2696490" lon="-8.6595650">
        <ele>159.9</ele>
        <time>2021-05-20T14:17:55Z</time>
      </trkpt>
      <trkpt lat="42.2696510" lon="-8.6595650">
        <ele>159.9</ele>
        <time>2021-05-20T14:17:56Z</time>
      </trkpt>
      <trkpt lat="42.2696530" lon="-8.6595660">
        <ele>159.9</ele>
        <time>2021-05-20T14:17:57Z</time>
      </trkpt>
      <trkpt lat="42.2696550" lon="-8.6595660">
        <ele>159.9</ele>
        <time>2021-05-20T14:17:58Z</time>
      </trkpt>
      <trkpt lat="42.2696570" lon="-8.6595660">
        <ele>159.9</ele>
        <time>2021-05-20T14:17:59Z</time>
      </trkpt>
      <trkpt lat="42.2696590" lon="-8.6595670">
        <ele>159.9</ele>
        <time>2021-05-20T14:18:00Z</time>
      </trkpt>
      <trkpt lat="42.2696610" lon="-8.6595670">
        <ele>159.9</ele>
        <time>2021-05-20T14:18:01Z</time>
      </trkpt>
      <trkpt lat="42.2696630" lon="-8.6595680">
        <ele>159.9</ele>
        <time>2021-05-20T14:18:02Z</time>
      </trkpt>
      <trkpt lat="42.2696650" lon="-8.6595680">
        <ele>159.9</ele>
        <time>2021-05-20T14:18:03Z</time>
      </trkpt>
      <trkpt lat="42.2696670" lon="-8.6595690">
        <ele>159.9</ele>
        <time>2021-05-20T14:18:04Z</time>
      </trkpt>
      <trkpt lat="42.2696690" lon="-8.6595690">
        <ele>159.9</ele>
        <time>2021-05-20T14:18:05Z</time>
      </trkpt>
      <trkpt lat="42.2696710" lon="-8.6595690">
        <ele>159.9</ele>
        <time>2021-05-20T14:18:06Z</time>
      </trkpt>
      <trkpt lat="42.2696730" lon="-8.6595700">
        <ele>159.9</ele>
        <time>2021-05-20T14:18:07Z</time>
      </trkpt>
      <trkpt lat="42.2696750" lon="-8.6595700">
        <ele>159.9</ele>
        <time>2021-05-20T14:18:08Z</time>
      </trkpt>
      <trkpt lat="42.2696770" lon="-8.6595710">
        <ele>159.9</ele>
        <time>2021-05-20T14:18:09Z</time>
      </trkpt>
      <trkpt lat="42.2696790" lon="-8.6595710">
        <ele>159.9</ele>
        <time>2021-05-20T14:18:10Z</time>
      </trkpt>
      <trkpt lat="42.2696810" lon="-8.6595720">
        <ele>159.9</ele>
        <time>2021-05-20T14:18:11Z</time>
      </trkpt>
      <trkpt lat="42.2696830" lon="-8.6595720">
        <ele>159.9</ele>
        <time>2021-05-20T14:18:12Z</time>
      </trkpt>
      <trkpt lat="42.2696850" lon="-8.6595720">
        <ele>159.9</ele>
        <time>2021-05-20T14:18:13Z</time>
      </trkpt>
      <trkpt lat="42.2696870" lon="-8.6595730">
        <ele>159.9</ele>
        <time>2021-05-20T14:18:14Z</time>
      </trkpt>
      <trkpt lat="42.2696890" lon="-8.6595730">
        <ele>159.9</ele>
        <time>2021-05-20T14:18:15Z</time>
      </trkpt>
      <trkpt lat="42.2696910" lon="-8.6595740">
        <ele>160.0</ele>
        <time>2021-05-20T14:18:16Z</time>
      </trkpt>
      <trkpt lat="42.2696930" lon="-8.6595740">
        <ele>160.0</ele>
        <time>2021-05-20T14:18:17Z</time>
      </trkpt>
      <trkpt lat="42.2696950" lon="-8.6595750">
        <ele>160.0</ele>
        <time>2021-05-20T14:18:18Z</time>
      </trkpt>
      <trkpt lat="42.2696970" lon="-8.6595750">
        <ele>160.0</ele>
        <time>2021-05-20T14:18:19Z</time>
      </trkpt>
      <trkpt lat="42.2696990" lon="-8.6595750">
        <ele>160.0</ele>
        <time>2021-05-20T14:18:20Z</time>
      </trkpt>
      <trkpt lat="42.2697010" lon="-8.6595760">
        <ele>160.0</ele>
        <time>2021-05-20T14:18:22Z</time>
      </trkpt>
      <trkpt lat="42.2697030" lon="-8.6595760">
        <ele>160.0</ele>
        <time>2021-05-20T14:18:24Z</time>
      </trkpt>
      <trkpt lat="42.2697050" lon="-8.6595770">
        <ele>160.0</ele>
        <time>2021-05-20T14:18:25Z</time>
      </trkpt>
      <trkpt lat="42.2697070" lon="-8.6595770">
        <ele>160.0</ele>
        <time>2021-05-20T14:18:26Z</time>
      </trkpt>
      <trkpt lat="42.2697090" lon="-8.6595780">
        <ele>160.0</ele>
        <time>2021-05-20T14:18:27Z</time>
      </trkpt>
      <trkpt lat="42.2697110" lon="-8.6595780">
        <ele>160.0</ele>
        <time>2021-05-20T14:18:28Z</time>
      </trkpt>
      <trkpt lat="42.2697130" lon="-8.6595790">
        <ele>160.0</ele>
        <time>2021-05-20T14:18:29Z</time>
      </trkpt>
      <trkpt lat="42.2697150" lon="-8.6595790">
        <ele>160.0</ele>
        <time>2021-05-20T14:18:30Z</time>
      </trkpt>
      <trkpt lat="42.2697170" lon="-8.6595790">
        <ele>160.0</ele>
        <time>2021-05-20T14:18:31Z</time>
      </trkpt>
      <trkpt lat="42.2697190" lon="-8.6595800">
        <ele>160.0</ele>
        <time>2021-05-20T14:18:32Z</time>
      </trkpt>
      <trkpt lat="42.2697210" lon="-8.6595800">
        <ele>160.0</ele>
        <time>2021-05-20T14:18:33Z</time>
      </trkpt>
      <trkpt lat="42.2697230" lon="-8.6595810">
        <ele>160.0</ele>
        <time>2021-05-20T14:18:34Z</time>
      </trkpt>
      <trkpt lat="42.2697250" lon="-8.6595810">
        <ele>160.0</ele>
        <time>2021-05-20T14:18:35Z</time>
      </trkpt>
      <trkpt lat="42.2697270" lon="-8.6595820">
        <ele>160.0</ele>
        <time>2021-05-20T14:18:36Z</time>
      </trkpt>
      <trkpt lat="42.2697290" lon="-8.6595820">
        <ele>160.0</ele>
        <time>2021-05-20T14:18:37Z</time>
      </trkpt>
      <trkpt lat="42.2697300" lon="-8.6595880">
        <ele>160.0</ele>
        <time>2021-05-20T14:18:38Z</time>
      </trkpt>
      <trkpt lat="42.2697320" lon="-8.6595910">
        <ele>160.0</ele>
        <time>2021-05-20T14:18:39Z</time>
      </trkpt>
      <trkpt lat="42.2697410" lon="-8.6595990">
        <ele>160.0</ele>
        <time>2021-05-20T14:18:40Z</time>
      </trkpt>
      <trkpt lat="42.2697480" lon="-8.6596000">
        <ele>160.0</ele>
        <time>2021-05-20T14:18:41Z</time>
      </trkpt>
      <trkpt lat="42.2697620" lon="-8.6596020">
        <ele>160.0</ele>
        <time>2021-05-20T14:18:42Z</time>
      </trkpt>
      <trkpt lat="42.2697790" lon="-8.6596150">
        <ele>160.0</ele>
        <time>2021-05-20T14:18:43Z</time>
      </trkpt>
      <trkpt lat="42.2697860" lon="-8.6596200">
        <ele>160.0</ele>
        <time>2021-05-20T14:18:44Z</time>
      </trkpt>
      <trkpt lat="42.2697980" lon="-8.6596300">
        <ele>160.0</ele>
        <time>2021-05-20T14:18:45Z</time>
      </trkpt>
      <trkpt lat="42.2698060" lon="-8.6596340">
        <ele>160.0</ele>
        <time>2021-05-20T14:18:46Z</time>
      </trkpt>
      <trkpt lat="42.2698130" lon="-8.6596370">
        <ele>160.0</ele>
        <time>2021-05-20T14:18:47Z</time>
      </trkpt>
      <trkpt lat="42.2698200" lon="-8.6596410">
        <ele>160.0</ele>
        <time>2021-05-20T14:18:48Z</time>
      </trkpt>
      <trkpt lat="42.2698290" lon="-8.6596390">
        <ele>160.0</ele>
        <time>2021-05-20T14:18:49Z</time>
      </trkpt>
      <trkpt lat="42.2698380" lon="-8.6596510">
        <ele>160.0</ele>
        <time>2021-05-20T14:18:50Z</time>
      </trkpt>
      <trkpt lat="42.2698530" lon="-8.6596570">
        <ele>160.0</ele>
        <time>2021-05-20T14:18:51Z</time>
      </trkpt>
      <trkpt lat="42.2698610" lon="-8.6596600">
        <ele>160.0</ele>
        <time>2021-05-20T14:18:52Z</time>
      </trkpt>
      <trkpt lat="42.2698710" lon="-8.6596620">
        <ele>160.1</ele>
        <time>2021-05-20T14:18:53Z</time>
      </trkpt>
      <trkpt lat="42.2698830" lon="-8.6596570">
        <ele>160.1</ele>
        <time>2021-05-20T14:18:54Z</time>
      </trkpt>
      <trkpt lat="42.2699020" lon="-8.6596610">
        <ele>160.1</ele>
        <time>2021-05-20T14:18:55Z</time>
      </trkpt>
      <trkpt lat="42.2699120" lon="-8.6596630">
        <ele>160.1</ele>
        <time>2021-05-20T14:18:56Z</time>
      </trkpt>
      <trkpt lat="42.2699210" lon="-8.6596640">
        <ele>160.1</ele>
        <time>2021-05-20T14:18:57Z</time>
      </trkpt>
      <trkpt lat="42.2699300" lon="-8.6596720">
        <ele>160.1</ele>
        <time>2021-05-20T14:18:58Z</time>
      </trkpt>
      <trkpt lat="42.2699410" lon="-8.6596760">
        <ele>160.1</ele>
        <time>2021-05-20T14:18:59Z</time>
      </trkpt>
      <trkpt lat="42.2699550" lon="-8.6596810">
        <ele>160.1</ele>
        <time>2021-05-20T14:19:00Z</time>
      </trkpt>
      <trkpt lat="42.2699700" lon="-8.6596810">
        <ele>160.1</ele>
        <time>2021-05-20T14:19:01Z</time>
      </trkpt>
      <trkpt lat="42.2699830" lon="-8.6596820">
        <ele>160.1</ele>
        <time>2021-05-20T14:19:02Z</time>
      </trkpt>
      <trkpt lat="42.2699930" lon="-8.6596820">
        <ele>160.1</ele>
        <time>2021-05-20T14:19:03Z</time>
      </trkpt>
      <trkpt lat="42.2700090" lon="-8.6596850">
        <ele>160.2</ele>
        <time>2021-05-20T14:19:04Z</time>
      </trkpt>
      <trkpt lat="42.2700180" lon="-8.6596850">
        <ele>160.2</ele>
        <time>2021-05-20T14:19:05Z</time>
      </trkpt>
      <trkpt lat="42.2700200" lon="-8.6596840">
        <ele>160.2</ele>
        <time>2021-05-20T14:19:06Z</time>
      </trkpt>
      <trkpt lat="42.2700280" lon="-8.6596880">
        <ele>160.2</ele>
        <time>2021-05-20T14:19:07Z</time>
      </trkpt>
      <trkpt lat="42.2700380" lon="-8.6596890">
        <ele>160.2</ele>
        <time>2021-05-20T14:19:08Z</time>
      </trkpt>
      <trkpt lat="42.2700470" lon="-8.6596880">
        <ele>160.2</ele>
        <time>2021-05-20T14:19:09Z</time>
      </trkpt>
      <trkpt lat="42.2700590" lon="-8.6596840">
        <ele>160.2</ele>
        <time>2021-05-20T14:19:10Z</time>
      </trkpt>
      <trkpt lat="42.2700780" lon="-8.6596800">
        <ele>160.2</ele>
        <time>2021-05-20T14:19:11Z</time>
      </trkpt>
      <trkpt lat="42.2700980" lon="-8.6596790">
        <ele>160.2</ele>
        <time>2021-05-20T14:19:12Z</time>
      </trkpt>
      <trkpt lat="42.2701060" lon="-8.6596780">
        <ele>160.2</ele>
        <time>2021-05-20T14:19:13Z</time>
      </trkpt>
      <trkpt lat="42.2701150" lon="-8.6596760">
        <ele>160.2</ele>
        <time>2021-05-20T14:19:14Z</time>
      </trkpt>
      <trkpt lat="42.2701270" lon="-8.6596760">
        <ele>160.2</ele>
        <time>2021-05-20T14:19:15Z</time>
      </trkpt>
      <trkpt lat="42.2701310" lon="-8.6596790">
        <ele>160.2</ele>
        <time>2021-05-20T14:19:16Z</time>
      </trkpt>
      <trkpt lat="42.2701360" lon="-8.6596820">
        <ele>160.2</ele>
        <time>2021-05-20T14:19:17Z</time>
      </trkpt>
      <trkpt lat="42.2701430" lon="-8.6596830">
        <ele>160.2</ele>
        <time>2021-05-20T14:19:18Z</time>
      </trkpt>
      <trkpt lat="42.2701570" lon="-8.6596790">
        <ele>160.2</ele>
        <time>2021-05-20T14:19:19Z</time>
      </trkpt>
      <trkpt lat="42.2701650" lon="-8.6596760">
        <ele>160.2</ele>
        <time>2021-05-20T14:19:20Z</time>
      </trkpt>
      <trkpt lat="42.2701740" lon="-8.6596720">
        <ele>160.2</ele>
        <time>2021-05-20T14:19:21Z</time>
      </trkpt>
      <trkpt lat="42.2701820" lon="-8.6596690">
        <ele>160.2</ele>
        <time>2021-05-20T14:19:22Z</time>
      </trkpt>
      <trkpt lat="42.2701930" lon="-8.6596670">
        <ele>160.2</ele>
        <time>2021-05-20T14:19:23Z</time>
      </trkpt>
      <trkpt lat="42.2702080" lon="-8.6596660">
        <ele>160.2</ele>
        <time>2021-05-20T14:19:24Z</time>
      </trkpt>
      <trkpt lat="42.2702170" lon="-8.6596650">
        <ele>160.2</ele>
        <time>2021-05-20T14:19:25Z</time>
      </trkpt>
      <trkpt lat="42.2702280" lon="-8.6596620">
        <ele>160.2</ele>
        <time>2021-05-20T14:19:26Z</time>
      </trkpt>
      <trkpt lat="42.2702360" lon="-8.6596580">
        <ele>160.2</ele>
        <time>2021-05-20T14:19:27Z</time>
      </trkpt>
      <trkpt lat="42.2702440" lon="-8.6596540">
        <ele>160.2</ele>
        <time>2021-05-20T14:19:28Z</time>
      </trkpt>
      <trkpt lat="42.2702520" lon="-8.6596500">
        <ele>160.2</ele>
        <time>2021-05-20T14:19:29Z</time>
      </trkpt>
      <trkpt lat="42.2702690" lon="-8.6596450">
        <ele>160.2</ele>
        <time>2021-05-20T14:19:30Z</time>
      </trkpt>
      <trkpt lat="42.2702770" lon="-8.6596430">
        <ele>160.2</ele>
        <time>2021-05-20T14:19:31Z</time>
      </trkpt>
      <trkpt lat="42.2702840" lon="-8.6596420">
        <ele>160.2</ele>
        <time>2021-05-20T14:19:32Z</time>
      </trkpt>
      <trkpt lat="42.2702920" lon="-8.6596400">
        <ele>160.2</ele>
        <time>2021-05-20T14:19:33Z</time>
      </trkpt>
      <trkpt lat="42.2703140" lon="-8.6596350">
        <ele>160.2</ele>
        <time>2021-05-20T14:19:34Z</time>
      </trkpt>
      <trkpt lat="42.2703250" lon="-8.6596300">
        <ele>160.2</ele>
        <time>2021-05-20T14:19:35Z</time>
      </trkpt>
      <trkpt lat="42.2703350" lon="-8.6596240">
        <ele>160.2</ele>
        <time>2021-05-20T14:19:36Z</time>
      </trkpt>
      <trkpt lat="42.2703550" lon="-8.6596080">
        <ele>160.2</ele>
        <time>2021-05-20T14:19:37Z</time>
      </trkpt>
      <trkpt lat="42.2703630" lon="-8.6596040">
        <ele>160.2</ele>
        <time>2021-05-20T14:19:38Z</time>
      </trkpt>
      <trkpt lat="42.2703710" lon="-8.6595990">
        <ele>160.2</ele>
        <time>2021-05-20T14:19:39Z</time>
      </trkpt>
      <trkpt lat="42.2703790" lon="-8.6596040">
        <ele>160.2</ele>
        <time>2021-05-20T14:19:40Z</time>
      </trkpt>
      <trkpt lat="42.2703790" lon="-8.6596090">
        <ele>160.2</ele>
        <time>2021-05-20T14:19:41Z</time>
      </trkpt>
      <trkpt lat="42.2703860" lon="-8.6596020">
        <ele>160.2</ele>
        <time>2021-05-20T14:19:42Z</time>
      </trkpt>
      <trkpt lat="42.2703910" lon="-8.6595950">
        <ele>160.2</ele>
        <time>2021-05-20T14:19:43Z</time>
      </trkpt>
      <trkpt lat="42.2704000" lon="-8.6595850">
        <ele>160.2</ele>
        <time>2021-05-20T14:19:44Z</time>
      </trkpt>
      <trkpt lat="42.2704120" lon="-8.6595830">
        <ele>160.2</ele>
        <time>2021-05-20T14:19:45Z</time>
      </trkpt>
      <trkpt lat="42.2704320" lon="-8.6595770">
        <ele>160.2</ele>
        <time>2021-05-20T14:19:46Z</time>
      </trkpt>
      <trkpt lat="42.2704510" lon="-8.6595720">
        <ele>160.2</ele>
        <time>2021-05-20T14:19:47Z</time>
      </trkpt>
      <trkpt lat="42.2704610" lon="-8.6595690">
        <ele>160.2</ele>
        <time>2021-05-20T14:19:48Z</time>
      </trkpt>
      <trkpt lat="42.2704710" lon="-8.6595660">
        <ele>160.2</ele>
        <time>2021-05-20T14:19:49Z</time>
      </trkpt>
      <trkpt lat="42.2704900" lon="-8.6595560">
        <ele>160.2</ele>
        <time>2021-05-20T14:19:50Z</time>
      </trkpt>
      <trkpt lat="42.2704970" lon="-8.6595520">
        <ele>160.2</ele>
        <time>2021-05-20T14:19:51Z</time>
      </trkpt>
      <trkpt lat="42.2705050" lon="-8.6595480">
        <ele>160.2</ele>
        <time>2021-05-20T14:19:52Z</time>
      </trkpt>
      <trkpt lat="42.2705360" lon="-8.6595430">
        <ele>160.2</ele>
        <time>2021-05-20T14:19:53Z</time>
      </trkpt>
      <trkpt lat="42.2705440" lon="-8.6595460">
        <ele>160.2</ele>
        <time>2021-05-20T14:19:54Z</time>
      </trkpt>
      <trkpt lat="42.2705630" lon="-8.6595490">
        <ele>160.2</ele>
        <time>2021-05-20T14:19:55Z</time>
      </trkpt>
      <trkpt lat="42.2705780" lon="-8.6595380">
        <ele>160.2</ele>
        <time>2021-05-20T14:19:56Z</time>
      </trkpt>
      <trkpt lat="42.2705850" lon="-8.6595340">
        <ele>160.2</ele>
        <time>2021-05-20T14:19:57Z</time>
      </trkpt>
      <trkpt lat="42.2706040" lon="-8.6595270">
        <ele>160.3</ele>
        <time>2021-05-20T14:19:58Z</time>
      </trkpt>
      <trkpt lat="42.2706210" lon="-8.6595200">
        <ele>160.3</ele>
        <time>2021-05-20T14:19:59Z</time>
      </trkpt>
      <trkpt lat="42.2706220" lon="-8.6595090">
        <ele>160.3</ele>
        <time>2021-05-20T14:20:00Z</time>
      </trkpt>
      <trkpt lat="42.2706330" lon="-8.6595040">
        <ele>160.3</ele>
        <time>2021-05-20T14:20:01Z</time>
      </trkpt>
      <trkpt lat="42.2706470" lon="-8.6594990">
        <ele>160.3</ele>
        <time>2021-05-20T14:20:02Z</time>
      </trkpt>
      <trkpt lat="42.2706630" lon="-8.6594910">
        <ele>160.3</ele>
        <time>2021-05-20T14:20:03Z</time>
      </trkpt>
      <trkpt lat="42.2706750" lon="-8.6594830">
        <ele>160.3</ele>
        <time>2021-05-20T14:20:04Z</time>
      </trkpt>
      <trkpt lat="42.2706900" lon="-8.6594790">
        <ele>160.3</ele>
        <time>2021-05-20T14:20:05Z</time>
      </trkpt>
      <trkpt lat="42.2707000" lon="-8.6594700">
        <ele>160.3</ele>
        <time>2021-05-20T14:20:06Z</time>
      </trkpt>
      <trkpt lat="42.2707070" lon="-8.6594690">
        <ele>160.3</ele>
        <time>2021-05-20T14:20:07Z</time>
      </trkpt>
      <trkpt lat="42.2707180" lon="-8.6594620">
        <ele>160.3</ele>
        <time>2021-05-20T14:20:08Z</time>
      </trkpt>
      <trkpt lat="42.2707340" lon="-8.6594590">
        <ele>160.3</ele>
        <time>2021-05-20T14:20:09Z</time>
      </trkpt>
      <trkpt lat="42.2707470" lon="-8.6594620">
        <ele>160.3</ele>
        <time>2021-05-20T14:20:10Z</time>
      </trkpt>
      <trkpt lat="42.2707580" lon="-8.6594560">
        <ele>160.4</ele>
        <time>2021-05-20T14:20:11Z</time>
      </trkpt>
      <trkpt lat="42.2707650" lon="-8.6594560">
        <ele>160.4</ele>
        <time>2021-05-20T14:20:12Z</time>
      </trkpt>
      <trkpt lat="42.2707780" lon="-8.6594510">
        <ele>160.4</ele>
        <time>2021-05-20T14:20:14Z</time>
      </trkpt>
      <trkpt lat="42.2707870" lon="-8.6594510">
        <ele>160.4</ele>
        <time>2021-05-20T14:20:15Z</time>
      </trkpt>
      <trkpt lat="42.2707910" lon="-8.6594470">
        <ele>160.4</ele>
        <time>2021-05-20T14:20:16Z</time>
      </trkpt>
      <trkpt lat="42.2707990" lon="-8.6594470">
        <ele>160.4</ele>
        <time>2021-05-20T14:20:17Z</time>
      </trkpt>
      <trkpt lat="42.2708080" lon="-8.6594430">
        <ele>160.4</ele>
        <time>2021-05-20T14:20:18Z</time>
      </trkpt>
      <trkpt lat="42.2708190" lon="-8.6594400">
        <ele>160.4</ele>
        <time>2021-05-20T14:20:19Z</time>
      </trkpt>
      <trkpt lat="42.2708160" lon="-8.6594270">
        <ele>160.4</ele>
        <time>2021-05-20T14:20:20Z</time>
      </trkpt>
      <trkpt lat="42.2708210" lon="-8.6594310">
        <ele>160.4</ele>
        <time>2021-05-20T14:20:21Z</time>
      </trkpt>
      <trkpt lat="42.2708320" lon="-8.6594320">
        <ele>160.4</ele>
        <time>2021-05-20T14:20:22Z</time>
      </trkpt>
      <trkpt lat="42.2708280" lon="-8.6594230">
        <ele>160.4</ele>
        <time>2021-05-20T14:20:23Z</time>
      </trkpt>
      <trkpt lat="42.2708300" lon="-8.6594180">
        <ele>160.4</ele>
        <time>2021-05-20T14:20:24Z</time>
      </trkpt>
      <trkpt lat="42.2708320" lon="-8.6594160">
        <ele>160.4</ele>
        <time>2021-05-20T14:20:25Z</time>
      </trkpt>
      <trkpt lat="42.2708480" lon="-8.6594140">
        <ele>160.4</ele>
        <time>2021-05-20T14:20:26Z</time>
      </trkpt>
      <trkpt lat="42.2708510" lon="-8.6594150">
        <ele>160.4</ele>
        <time>2021-05-20T14:20:27Z</time>
      </trkpt>
      <trkpt lat="42.2708620" lon="-8.6594180">
        <ele>160.4</ele>
        <time>2021-05-20T14:20:28Z</time>
      </trkpt>
      <trkpt lat="42.2708910" lon="-8.6594070">
        <ele>160.4</ele>
        <time>2021-05-20T14:20:29Z</time>
      </trkpt>
      <trkpt lat="42.2709020" lon="-8.6594030">
        <ele>160.4</ele>
        <time>2021-05-20T14:20:30Z</time>
      </trkpt>
      <trkpt lat="42.2709340" lon="-8.6593930">
        <ele>160.4</ele>
        <time>2021-05-20T14:20:31Z</time>
      </trkpt>
      <trkpt lat="42.2709440" lon="-8.6593930">
        <ele>160.4</ele>
        <time>2021-05-20T14:20:32Z</time>
      </trkpt>
      <trkpt lat="42.2709460" lon="-8.6593900">
        <ele>160.4</ele>
        <time>2021-05-20T14:20:33Z</time>
      </trkpt>
      <trkpt lat="42.2709570" lon="-8.6593960">
        <ele>160.4</ele>
        <time>2021-05-20T14:20:34Z</time>
      </trkpt>
      <trkpt lat="42.2709790" lon="-8.6593890">
        <ele>160.4</ele>
        <time>2021-05-20T14:20:35Z</time>
      </trkpt>
      <trkpt lat="42.2709910" lon="-8.6593810">
        <ele>160.4</ele>
        <time>2021-05-20T14:20:36Z</time>
      </trkpt>
      <trkpt lat="42.2709910" lon="-8.6593770">
        <ele>160.4</ele>
        <time>2021-05-20T14:20:37Z</time>
      </trkpt>
      <trkpt lat="42.2709880" lon="-8.6593660">
        <ele>160.4</ele>
        <time>2021-05-20T14:20:38Z</time>
      </trkpt>
      <trkpt lat="42.2710040" lon="-8.6593640">
        <ele>160.4</ele>
        <time>2021-05-20T14:20:39Z</time>
      </trkpt>
      <trkpt lat="42.2710180" lon="-8.6593560">
        <ele>160.4</ele>
        <time>2021-05-20T14:20:40Z</time>
      </trkpt>
      <trkpt lat="42.2710170" lon="-8.6593610">
        <ele>160.4</ele>
        <time>2021-05-20T14:20:41Z</time>
      </trkpt>
      <trkpt lat="42.2710200" lon="-8.6593600">
        <ele>160.4</ele>
        <time>2021-05-20T14:20:42Z</time>
      </trkpt>
      <trkpt lat="42.2710330" lon="-8.6593630">
        <ele>160.4</ele>
        <time>2021-05-20T14:20:43Z</time>
      </trkpt>
      <trkpt lat="42.2710470" lon="-8.6593600">
        <ele>160.4</ele>
        <time>2021-05-20T14:20:44Z</time>
      </trkpt>
      <trkpt lat="42.2710590" lon="-8.6593620">
        <ele>160.4</ele>
        <time>2021-05-20T14:20:45Z</time>
      </trkpt>
      <trkpt lat="42.2710690" lon="-8.6593630">
        <ele>160.4</ele>
        <time>2021-05-20T14:20:46Z</time>
      </trkpt>
      <trkpt lat="42.2710870" lon="-8.6593640">
        <ele>160.4</ele>
        <time>2021-05-20T14:20:47Z</time>
      </trkpt>
      <trkpt lat="42.2710980" lon="-8.6593650">
        <ele>160.4</ele>
        <time>2021-05-20T14:20:48Z</time>
      </trkpt>
      <trkpt lat="42.2711080" lon="-8.6593660">
        <ele>160.4</ele>
        <time>2021-05-20T14:20:49Z</time>
      </trkpt>
      <trkpt lat="42.2711220" lon="-8.6593530">
        <ele>160.4</ele>
        <time>2021-05-20T14:20:50Z</time>
      </trkpt>
      <trkpt lat="42.2711440" lon="-8.6593570">
        <ele>160.4</ele>
        <time>2021-05-20T14:20:51Z</time>
      </trkpt>
      <trkpt lat="42.2711600" lon="-8.6593520">
        <ele>160.4</ele>
        <time>2021-05-20T14:20:52Z</time>
      </trkpt>
      <trkpt lat="42.2711710" lon="-8.6593440">
        <ele>160.3</ele>
        <time>2021-05-20T14:20:53Z</time>
      </trkpt>
      <trkpt lat="42.2711870" lon="-8.6593390">
        <ele>160.3</ele>
        <time>2021-05-20T14:20:54Z</time>
      </trkpt>
      <trkpt lat="42.2711970" lon="-8.6593530">
        <ele>160.3</ele>
        <time>2021-05-20T14:20:55Z</time>
      </trkpt>
      <trkpt lat="42.2712060" lon="-8.6593580">
        <ele>160.3</ele>
        <time>2021-05-20T14:20:56Z</time>
      </trkpt>
      <trkpt lat="42.2712200" lon="-8.6593660">
        <ele>160.3</ele>
        <time>2021-05-20T14:20:57Z</time>
      </trkpt>
      <trkpt lat="42.2712260" lon="-8.6593730">
        <ele>160.3</ele>
        <time>2021-05-20T14:20:58Z</time>
      </trkpt>
      <trkpt lat="42.2712460" lon="-8.6593750">
        <ele>160.3</ele>
        <time>2021-05-20T14:20:59Z</time>
      </trkpt>
      <trkpt lat="42.2712560" lon="-8.6593780">
        <ele>160.3</ele>
        <time>2021-05-20T14:21:00Z</time>
      </trkpt>
      <trkpt lat="42.2712670" lon="-8.6593810">
        <ele>160.3</ele>
        <time>2021-05-20T14:21:01Z</time>
      </trkpt>
      <trkpt lat="42.2712780" lon="-8.6593800">
        <ele>160.3</ele>
        <time>2021-05-20T14:21:02Z</time>
      </trkpt>
      <trkpt lat="42.2712910" lon="-8.6593870">
        <ele>160.3</ele>
        <time>2021-05-20T14:21:03Z</time>
      </trkpt>
      <trkpt lat="42.2713010" lon="-8.6593870">
        <ele>160.3</ele>
        <time>2021-05-20T14:21:04Z</time>
      </trkpt>
      <trkpt lat="42.2713100" lon="-8.6593920">
        <ele>160.3</ele>
        <time>2021-05-20T14:21:05Z</time>
      </trkpt>
      <trkpt lat="42.2713240" lon="-8.6593930">
        <ele>160.3</ele>
        <time>2021-05-20T14:21:06Z</time>
      </trkpt>
      <trkpt lat="42.2713350" lon="-8.6593960">
        <ele>160.3</ele>
        <time>2021-05-20T14:21:07Z</time>
      </trkpt>
      <trkpt lat="42.2713460" lon="-8.6593940">
        <ele>160.3</ele>
        <time>2021-05-20T14:21:08Z</time>
      </trkpt>
      <trkpt lat="42.2713640" lon="-8.6593980">
        <ele>160.3</ele>
        <time>2021-05-20T14:21:09Z</time>
      </trkpt>
      <trkpt lat="42.2713790" lon="-8.6594020">
        <ele>160.3</ele>
        <time>2021-05-20T14:21:10Z</time>
      </trkpt>
      <trkpt lat="42.2713930" lon="-8.6594000">
        <ele>160.3</ele>
        <time>2021-05-20T14:21:11Z</time>
      </trkpt>
      <trkpt lat="42.2714130" lon="-8.6593940">
        <ele>160.3</ele>
        <time>2021-05-20T14:21:12Z</time>
      </trkpt>
      <trkpt lat="42.2714250" lon="-8.6594000">
        <ele>160.3</ele>
        <time>2021-05-20T14:21:13Z</time>
      </trkpt>
      <trkpt lat="42.2714440" lon="-8.6594010">
        <ele>160.3</ele>
        <time>2021-05-20T14:21:14Z</time>
      </trkpt>
      <trkpt lat="42.2714530" lon="-8.6594050">
        <ele>160.3</ele>
        <time>2021-05-20T14:21:15Z</time>
      </trkpt>
      <trkpt lat="42.2714560" lon="-8.6594080">
        <ele>160.3</ele>
        <time>2021-05-20T14:21:16Z</time>
      </trkpt>
      <trkpt lat="42.2714740" lon="-8.6594170">
        <ele>160.3</ele>
        <time>2021-05-20T14:21:17Z</time>
      </trkpt>
      <trkpt lat="42.2714800" lon="-8.6594190">
        <ele>160.3</ele>
        <time>2021-05-20T14:21:18Z</time>
      </trkpt>
      <trkpt lat="42.2714900" lon="-8.6594250">
        <ele>160.3</ele>
        <time>2021-05-20T14:21:19Z</time>
      </trkpt>
      <trkpt lat="42.2714970" lon="-8.6594320">
        <ele>160.3</ele>
        <time>2021-05-20T14:21:20Z</time>
      </trkpt>
      <trkpt lat="42.2715110" lon="-8.6594420">
        <ele>160.3</ele>
        <time>2021-05-20T14:21:21Z</time>
      </trkpt>
      <trkpt lat="42.2715200" lon="-8.6594470">
        <ele>160.3</ele>
        <time>2021-05-20T14:21:22Z</time>
      </trkpt>
      <trkpt lat="42.2715320" lon="-8.6594500">
        <ele>160.4</ele>
        <time>2021-05-20T14:21:23Z</time>
      </trkpt>
      <trkpt lat="42.2715400" lon="-8.6594620">
        <ele>160.4</ele>
        <time>2021-05-20T14:21:24Z</time>
      </trkpt>
      <trkpt lat="42.2715640" lon="-8.6594760">
        <ele>160.4</ele>
        <time>2021-05-20T14:21:25Z</time>
      </trkpt>
      <trkpt lat="42.2715740" lon="-8.6594870">
        <ele>160.4</ele>
        <time>2021-05-20T14:21:26Z</time>
      </trkpt>
      <trkpt lat="42.2715830" lon="-8.6594920">
        <ele>160.4</ele>
        <time>2021-05-20T14:21:27Z</time>
      </trkpt>
      <trkpt lat="42.2716010" lon="-8.6595020">
        <ele>160.4</ele>
        <time>2021-05-20T14:21:28Z</time>
      </trkpt>
      <trkpt lat="42.2716090" lon="-8.6595090">
        <ele>160.4</ele>
        <time>2021-05-20T14:21:29Z</time>
      </trkpt>
      <trkpt lat="42.2716270" lon="-8.6595160">
        <ele>160.4</ele>
        <time>2021-05-20T14:21:30Z</time>
      </trkpt>
      <trkpt lat="42.2716470" lon="-8.6595280">
        <ele>160.5</ele>
        <time>2021-05-20T14:21:31Z</time>
      </trkpt>
      <trkpt lat="42.2716590" lon="-8.6595340">
        <ele>160.5</ele>
        <time>2021-05-20T14:21:32Z</time>
      </trkpt>
      <trkpt lat="42.2716630" lon="-8.6595420">
        <ele>160.5</ele>
        <time>2021-05-20T14:21:33Z</time>
      </trkpt>
      <trkpt lat="42.2716610" lon="-8.6595500">
        <ele>160.5</ele>
        <time>2021-05-20T14:21:34Z</time>
      </trkpt>
      <trkpt lat="42.2716650" lon="-8.6595550">
        <ele>160.5</ele>
        <time>2021-05-20T14:21:35Z</time>
      </trkpt>
      <trkpt lat="42.2716620" lon="-8.6595550">
        <ele>160.5</ele>
        <time>2021-05-20T14:21:36Z</time>
      </trkpt>
      <trkpt lat="42.2716730" lon="-8.6595660">
        <ele>160.5</ele>
        <time>2021-05-20T14:21:37Z</time>
      </trkpt>
      <trkpt lat="42.2716800" lon="-8.6595740">
        <ele>160.5</ele>
        <time>2021-05-20T14:21:38Z</time>
      </trkpt>
      <trkpt lat="42.2716880" lon="-8.6595760">
        <ele>160.5</ele>
        <time>2021-05-20T14:21:39Z</time>
      </trkpt>
      <trkpt lat="42.2717000" lon="-8.6595870">
        <ele>160.5</ele>
        <time>2021-05-20T14:21:40Z</time>
      </trkpt>
      <trkpt lat="42.2717130" lon="-8.6596120">
        <ele>160.5</ele>
        <time>2021-05-20T14:21:41Z</time>
      </trkpt>
      <trkpt lat="42.2717170" lon="-8.6596190">
        <ele>160.5</ele>
        <time>2021-05-20T14:21:42Z</time>
      </trkpt>
      <trkpt lat="42.2717220" lon="-8.6596260">
        <ele>160.6</ele>
        <time>2021-05-20T14:21:43Z</time>
      </trkpt>
      <trkpt lat="42.2717220" lon="-8.6596310">
        <ele>160.6</ele>
        <time>2021-05-20T14:21:44Z</time>
      </trkpt>
      <trkpt lat="42.2717300" lon="-8.6596380">
        <ele>160.6</ele>
        <time>2021-05-20T14:21:45Z</time>
      </trkpt>
      <trkpt lat="42.2717370" lon="-8.6596460">
        <ele>160.6</ele>
        <time>2021-05-20T14:21:46Z</time>
      </trkpt>
      <trkpt lat="42.2717480" lon="-8.6596540">
        <ele>160.6</ele>
        <time>2021-05-20T14:21:47Z</time>
      </trkpt>
      <trkpt lat="42.2717640" lon="-8.6596680">
        <ele>160.6</ele>
        <time>2021-05-20T14:21:48Z</time>
      </trkpt>
      <trkpt lat="42.2717720" lon="-8.6596740">
        <ele>160.6</ele>
        <time>2021-05-20T14:21:49Z</time>
      </trkpt>
      <trkpt lat="42.2717800" lon="-8.6596810">
        <ele>160.6</ele>
        <time>2021-05-20T14:21:50Z</time>
      </trkpt>
      <trkpt lat="42.2717910" lon="-8.6596800">
        <ele>160.6</ele>
        <time>2021-05-20T14:21:51Z</time>
      </trkpt>
      <trkpt lat="42.2717930" lon="-8.6596800">
        <ele>160.6</ele>
        <time>2021-05-20T14:21:52Z</time>
      </trkpt>
      <trkpt lat="42.2718040" lon="-8.6596810">
        <ele>160.6</ele>
        <time>2021-05-20T14:21:53Z</time>
      </trkpt>
      <trkpt lat="42.2718310" lon="-8.6596920">
        <ele>160.6</ele>
        <time>2021-05-20T14:21:54Z</time>
      </trkpt>
      <trkpt lat="42.2718420" lon="-8.6596990">
        <ele>160.6</ele>
        <time>2021-05-20T14:21:55Z</time>
      </trkpt>
      <trkpt lat="42.2718560" lon="-8.6597090">
        <ele>160.6</ele>
        <time>2021-05-20T14:21:56Z</time>
      </trkpt>
      <trkpt lat="42.2718700" lon="-8.6597120">
        <ele>160.7</ele>
        <time>2021-05-20T14:21:57Z</time>
      </trkpt>
      <trkpt lat="42.2718780" lon="-8.6597170">
        <ele>160.7</ele>
        <time>2021-05-20T14:21:58Z</time>
      </trkpt>
      <trkpt lat="42.2718900" lon="-8.6597170">
        <ele>160.7</ele>
        <time>2021-05-20T14:21:59Z</time>
      </trkpt>
      <trkpt lat="42.2719010" lon="-8.6597170">
        <ele>160.7</ele>
        <time>2021-05-20T14:22:00Z</time>
      </trkpt>
      <trkpt lat="42.2719130" lon="-8.6597240">
        <ele>160.7</ele>
        <time>2021-05-20T14:22:01Z</time>
      </trkpt>
      <trkpt lat="42.2719220" lon="-8.6597290">
        <ele>160.7</ele>
        <time>2021-05-20T14:22:02Z</time>
      </trkpt>
      <trkpt lat="42.2719320" lon="-8.6597340">
        <ele>160.7</ele>
        <time>2021-05-20T14:22:03Z</time>
      </trkpt>
      <trkpt lat="42.2719410" lon="-8.6597390">
        <ele>160.7</ele>
        <time>2021-05-20T14:22:04Z</time>
      </trkpt>
      <trkpt lat="42.2719530" lon="-8.6597550">
        <ele>160.7</ele>
        <time>2021-05-20T14:22:05Z</time>
      </trkpt>
      <trkpt lat="42.2719680" lon="-8.6597600">
        <ele>160.7</ele>
        <time>2021-05-20T14:22:06Z</time>
      </trkpt>
      <trkpt lat="42.2719800" lon="-8.6597660">
        <ele>160.7</ele>
        <time>2021-05-20T14:22:07Z</time>
      </trkpt>
      <trkpt lat="42.2719880" lon="-8.6597760">
        <ele>160.7</ele>
        <time>2021-05-20T14:22:08Z</time>
      </trkpt>
      <trkpt lat="42.2719940" lon="-8.6597780">
        <ele>160.7</ele>
        <time>2021-05-20T14:22:09Z</time>
      </trkpt>
      <trkpt lat="42.2720050" lon="-8.6597860">
        <ele>160.7</ele>
        <time>2021-05-20T14:22:10Z</time>
      </trkpt>
      <trkpt lat="42.2720190" lon="-8.6597950">
        <ele>160.7</ele>
        <time>2021-05-20T14:22:11Z</time>
      </trkpt>
      <trkpt lat="42.2720340" lon="-8.6598060">
        <ele>160.7</ele>
        <time>2021-05-20T14:22:12Z</time>
      </trkpt>
      <trkpt lat="42.2720480" lon="-8.6598120">
        <ele>160.8</ele>
        <time>2021-05-20T14:22:13Z</time>
      </trkpt>
      <trkpt lat="42.2720620" lon="-8.6598260">
        <ele>160.8</ele>
        <time>2021-05-20T14:22:14Z</time>
      </trkpt>
      <trkpt lat="42.2720730" lon="-8.6598330">
        <ele>160.8</ele>
        <time>2021-05-20T14:22:15Z</time>
      </trkpt>
      <trkpt lat="42.2720830" lon="-8.6598310">
        <ele>160.8</ele>
        <time>2021-05-20T14:22:16Z</time>
      </trkpt>
      <trkpt lat="42.2720880" lon="-8.6598350">
        <ele>160.8</ele>
        <time>2021-05-20T14:22:17Z</time>
      </trkpt>
      <trkpt lat="42.2720980" lon="-8.6598440">
        <ele>160.8</ele>
        <time>2021-05-20T14:22:18Z</time>
      </trkpt>
      <trkpt lat="42.2721020" lon="-8.6598490">
        <ele>160.8</ele>
        <time>2021-05-20T14:22:19Z</time>
      </trkpt>
      <trkpt lat="42.2721020" lon="-8.6598530">
        <ele>160.8</ele>
        <time>2021-05-20T14:22:20Z</time>
      </trkpt>
      <trkpt lat="42.2721120" lon="-8.6598660">
        <ele>160.8</ele>
        <time>2021-05-20T14:22:21Z</time>
      </trkpt>
      <trkpt lat="42.2721240" lon="-8.6598760">
        <ele>160.8</ele>
        <time>2021-05-20T14:22:22Z</time>
      </trkpt>
      <trkpt lat="42.2721420" lon="-8.6598780">
        <ele>160.8</ele>
        <time>2021-05-20T14:22:23Z</time>
      </trkpt>
      <trkpt lat="42.2721520" lon="-8.6598840">
        <ele>160.8</ele>
        <time>2021-05-20T14:22:24Z</time>
      </trkpt>
      <trkpt lat="42.2721690" lon="-8.6599060">
        <ele>160.8</ele>
        <time>2021-05-20T14:22:25Z</time>
      </trkpt>
      <trkpt lat="42.2721740" lon="-8.6599160">
        <ele>160.8</ele>
        <time>2021-05-20T14:22:26Z</time>
      </trkpt>
      <trkpt lat="42.2721800" lon="-8.6599250">
        <ele>160.8</ele>
        <time>2021-05-20T14:22:27Z</time>
      </trkpt>
      <trkpt lat="42.2721950" lon="-8.6599400">
        <ele>160.8</ele>
        <time>2021-05-20T14:22:28Z</time>
      </trkpt>
      <trkpt lat="42.2722020" lon="-8.6599490">
        <ele>160.9</ele>
        <time>2021-05-20T14:22:29Z</time>
      </trkpt>
      <trkpt lat="42.2722090" lon="-8.6599570">
        <ele>160.9</ele>
        <time>2021-05-20T14:22:30Z</time>
      </trkpt>
      <trkpt lat="42.2722120" lon="-8.6599740">
        <ele>160.9</ele>
        <time>2021-05-20T14:22:31Z</time>
      </trkpt>
      <trkpt lat="42.2722170" lon="-8.6599790">
        <ele>160.9</ele>
        <time>2021-05-20T14:22:32Z</time>
      </trkpt>
      <trkpt lat="42.2722210" lon="-8.6600000">
        <ele>160.9</ele>
        <time>2021-05-20T14:22:33Z</time>
      </trkpt>
      <trkpt lat="42.2722300" lon="-8.6600150">
        <ele>160.9</ele>
        <time>2021-05-20T14:22:34Z</time>
      </trkpt>
      <trkpt lat="42.2722360" lon="-8.6600230">
        <ele>160.9</ele>
        <time>2021-05-20T14:22:35Z</time>
      </trkpt>
      <trkpt lat="42.2722410" lon="-8.6600300">
        <ele>160.9</ele>
        <time>2021-05-20T14:22:36Z</time>
      </trkpt>
      <trkpt lat="42.2722470" lon="-8.6600380">
        <ele>160.9</ele>
        <time>2021-05-20T14:22:37Z</time>
      </trkpt>
      <trkpt lat="42.2722620" lon="-8.6600560">
        <ele>160.9</ele>
        <time>2021-05-20T14:22:38Z</time>
      </trkpt>
      <trkpt lat="42.2722700" lon="-8.6600670">
        <ele>160.9</ele>
        <time>2021-05-20T14:22:39Z</time>
      </trkpt>
      <trkpt lat="42.2722790" lon="-8.6600770">
        <ele>160.9</ele>
        <time>2021-05-20T14:22:40Z</time>
      </trkpt>
      <trkpt lat="42.2722970" lon="-8.6601090">
        <ele>160.9</ele>
        <time>2021-05-20T14:22:41Z</time>
      </trkpt>
      <trkpt lat="42.2723030" lon="-8.6601180">
        <ele>161.0</ele>
        <time>2021-05-20T14:22:42Z</time>
      </trkpt>
      <trkpt lat="42.2723120" lon="-8.6601390">
        <ele>161.0</ele>
        <time>2021-05-20T14:22:43Z</time>
      </trkpt>
      <trkpt lat="42.2723120" lon="-8.6601520">
        <ele>161.0</ele>
        <time>2021-05-20T14:22:44Z</time>
      </trkpt>
      <trkpt lat="42.2723220" lon="-8.6601540">
        <ele>161.0</ele>
        <time>2021-05-20T14:22:45Z</time>
      </trkpt>
      <trkpt lat="42.2723310" lon="-8.6601670">
        <ele>161.0</ele>
        <time>2021-05-20T14:22:46Z</time>
      </trkpt>
      <trkpt lat="42.2723380" lon="-8.6601760">
        <ele>161.0</ele>
        <time>2021-05-20T14:22:47Z</time>
      </trkpt>
      <trkpt lat="42.2723540" lon="-8.6601900">
        <ele>161.0</ele>
        <time>2021-05-20T14:22:48Z</time>
      </trkpt>
      <trkpt lat="42.2723630" lon="-8.6601930">
        <ele>161.0</ele>
        <time>2021-05-20T14:22:49Z</time>
      </trkpt>
      <trkpt lat="42.2723720" lon="-8.6601950">
        <ele>161.0</ele>
        <time>2021-05-20T14:22:50Z</time>
      </trkpt>
      <trkpt lat="42.2723810" lon="-8.6602130">
        <ele>161.0</ele>
        <time>2021-05-20T14:22:51Z</time>
      </trkpt>
      <trkpt lat="42.2723920" lon="-8.6602210">
        <ele>161.0</ele>
        <time>2021-05-20T14:22:52Z</time>
      </trkpt>
      <trkpt lat="42.2724100" lon="-8.6602330">
        <ele>161.0</ele>
        <time>2021-05-20T14:22:53Z</time>
      </trkpt>
      <trkpt lat="42.2724200" lon="-8.6602360">
        <ele>161.0</ele>
        <time>2021-05-20T14:22:54Z</time>
      </trkpt>
      <trkpt lat="42.2724290" lon="-8.6602390">
        <ele>161.0</ele>
        <time>2021-05-20T14:22:55Z</time>
      </trkpt>
      <trkpt lat="42.2724400" lon="-8.6602520">
        <ele>161.0</ele>
        <time>2021-05-20T14:22:56Z</time>
      </trkpt>
      <trkpt lat="42.2724500" lon="-8.6602690">
        <ele>161.0</ele>
        <time>2021-05-20T14:22:57Z</time>
      </trkpt>
      <trkpt lat="42.2724600" lon="-8.6602790">
        <ele>161.0</ele>
        <time>2021-05-20T14:22:58Z</time>
      </trkpt>
      <trkpt lat="42.2724810" lon="-8.6602850">
        <ele>161.0</ele>
        <time>2021-05-20T14:22:59Z</time>
      </trkpt>
      <trkpt lat="42.2724960" lon="-8.6602970">
        <ele>161.0</ele>
        <time>2021-05-20T14:23:00Z</time>
      </trkpt>
      <trkpt lat="42.2725040" lon="-8.6603040">
        <ele>161.0</ele>
        <time>2021-05-20T14:23:01Z</time>
      </trkpt>
      <trkpt lat="42.2725120" lon="-8.6603120">
        <ele>161.0</ele>
        <time>2021-05-20T14:23:02Z</time>
      </trkpt>
      <trkpt lat="42.2725270" lon="-8.6603310">
        <ele>161.0</ele>
        <time>2021-05-20T14:23:03Z</time>
      </trkpt>
      <trkpt lat="42.2725320" lon="-8.6603370">
        <ele>161.0</ele>
        <time>2021-05-20T14:23:04Z</time>
      </trkpt>
      <trkpt lat="42.2725360" lon="-8.6603440">
        <ele>161.0</ele>
        <time>2021-05-20T14:23:05Z</time>
      </trkpt>
      <trkpt lat="42.2725400" lon="-8.6603500">
        <ele>161.0</ele>
        <time>2021-05-20T14:23:06Z</time>
      </trkpt>
      <trkpt lat="42.2725490" lon="-8.6603580">
        <ele>161.0</ele>
        <time>2021-05-20T14:23:07Z</time>
      </trkpt>
      <trkpt lat="42.2725530" lon="-8.6603660">
        <ele>160.9</ele>
        <time>2021-05-20T14:23:08Z</time>
      </trkpt>
      <trkpt lat="42.2725560" lon="-8.6603690">
        <ele>160.9</ele>
        <time>2021-05-20T14:23:09Z</time>
      </trkpt>
      <trkpt lat="42.2725680" lon="-8.6603750">
        <ele>160.9</ele>
        <time>2021-05-20T14:23:10Z</time>
      </trkpt>
      <trkpt lat="42.2725760" lon="-8.6603970">
        <ele>160.9</ele>
        <time>2021-05-20T14:23:11Z</time>
      </trkpt>
      <trkpt lat="42.2725820" lon="-8.6604090">
        <ele>160.9</ele>
        <time>2021-05-20T14:23:12Z</time>
      </trkpt>
      <trkpt lat="42.2725880" lon="-8.6604220">
        <ele>160.9</ele>
        <time>2021-05-20T14:23:13Z</time>
      </trkpt>
      <trkpt lat="42.2725970" lon="-8.6604400">
        <ele>160.9</ele>
        <time>2021-05-20T14:23:14Z</time>
      </trkpt>
      <trkpt lat="42.2726070" lon="-8.6604560">
        <ele>160.9</ele>
        <time>2021-05-20T14:23:15Z</time>
      </trkpt>
      <trkpt lat="42.2726160" lon="-8.6604700">
        <ele>160.9</ele>
        <time>2021-05-20T14:23:16Z</time>
      </trkpt>
      <trkpt lat="42.2726210" lon="-8.6604790">
        <ele>160.9</ele>
        <time>2021-05-20T14:23:17Z</time>
      </trkpt>
      <trkpt lat="42.2726290" lon="-8.6604940">
        <ele>160.9</ele>
        <time>2021-05-20T14:23:18Z</time>
      </trkpt>
      <trkpt lat="42.2726380" lon="-8.6605110">
        <ele>160.8</ele>
        <time>2021-05-20T14:23:19Z</time>
      </trkpt>
      <trkpt lat="42.2726450" lon="-8.6605190">
        <ele>160.8</ele>
        <time>2021-05-20T14:23:20Z</time>
      </trkpt>
      <trkpt lat="42.2726540" lon="-8.6605220">
        <ele>160.8</ele>
        <time>2021-05-20T14:23:21Z</time>
      </trkpt>
      <trkpt lat="42.2726610" lon="-8.6605180">
        <ele>160.8</ele>
        <time>2021-05-20T14:23:22Z</time>
      </trkpt>
      <trkpt lat="42.2726680" lon="-8.6605340">
        <ele>160.8</ele>
        <time>2021-05-20T14:23:23Z</time>
      </trkpt>
      <trkpt lat="42.2726770" lon="-8.6605280">
        <ele>160.8</ele>
        <time>2021-05-20T14:23:24Z</time>
      </trkpt>
      <trkpt lat="42.2726830" lon="-8.6605260">
        <ele>160.8</ele>
        <time>2021-05-20T14:23:25Z</time>
      </trkpt>
      <trkpt lat="42.2726850" lon="-8.6605420">
        <ele>160.8</ele>
        <time>2021-05-20T14:23:26Z</time>
      </trkpt>
      <trkpt lat="42.2726970" lon="-8.6605380">
        <ele>160.8</ele>
        <time>2021-05-20T14:23:27Z</time>
      </trkpt>
      <trkpt lat="42.2727110" lon="-8.6605530">
        <ele>160.8</ele>
        <time>2021-05-20T14:23:28Z</time>
      </trkpt>
      <trkpt lat="42.2727230" lon="-8.6605570">
        <ele>160.8</ele>
        <time>2021-05-20T14:23:29Z</time>
      </trkpt>
      <trkpt lat="42.2727340" lon="-8.6605560">
        <ele>160.8</ele>
        <time>2021-05-20T14:23:30Z</time>
      </trkpt>
      <trkpt lat="42.2727440" lon="-8.6605550">
        <ele>160.8</ele>
        <time>2021-05-20T14:23:31Z</time>
      </trkpt>
      <trkpt lat="42.2727550" lon="-8.6605540">
        <ele>160.8</ele>
        <time>2021-05-20T14:23:32Z</time>
      </trkpt>
      <trkpt lat="42.2727730" lon="-8.6605560">
        <ele>160.8</ele>
        <time>2021-05-20T14:23:33Z</time>
      </trkpt>
      <trkpt lat="42.2727860" lon="-8.6605680">
        <ele>160.8</ele>
        <time>2021-05-20T14:23:34Z</time>
      </trkpt>
      <trkpt lat="42.2728050" lon="-8.6605690">
        <ele>160.8</ele>
        <time>2021-05-20T14:23:35Z</time>
      </trkpt>
      <trkpt lat="42.2728140" lon="-8.6605650">
        <ele>160.8</ele>
        <time>2021-05-20T14:23:36Z</time>
      </trkpt>
      <trkpt lat="42.2728270" lon="-8.6605700">
        <ele>160.8</ele>
        <time>2021-05-20T14:23:37Z</time>
      </trkpt>
      <trkpt lat="42.2728430" lon="-8.6605830">
        <ele>160.8</ele>
        <time>2021-05-20T14:23:38Z</time>
      </trkpt>
      <trkpt lat="42.2728480" lon="-8.6605850">
        <ele>160.8</ele>
        <time>2021-05-20T14:23:39Z</time>
      </trkpt>
      <trkpt lat="42.2728570" lon="-8.6605920">
        <ele>160.8</ele>
        <time>2021-05-20T14:23:40Z</time>
      </trkpt>
      <trkpt lat="42.2728680" lon="-8.6605980">
        <ele>160.9</ele>
        <time>2021-05-20T14:23:41Z</time>
      </trkpt>
      <trkpt lat="42.2728730" lon="-8.6606100">
        <ele>160.9</ele>
        <time>2021-05-20T14:23:42Z</time>
      </trkpt>
      <trkpt lat="42.2728850" lon="-8.6606130">
        <ele>160.9</ele>
        <time>2021-05-20T14:23:43Z</time>
      </trkpt>
      <trkpt lat="42.2728960" lon="-8.6606120">
        <ele>160.9</ele>
        <time>2021-05-20T14:23:44Z</time>
      </trkpt>
      <trkpt lat="42.2729050" lon="-8.6606130">
        <ele>160.9</ele>
        <time>2021-05-20T14:23:45Z</time>
      </trkpt>
      <trkpt lat="42.2729210" lon="-8.6606150">
        <ele>160.9</ele>
        <time>2021-05-20T14:23:46Z</time>
      </trkpt>
      <trkpt lat="42.2729270" lon="-8.6606270">
        <ele>160.9</ele>
        <time>2021-05-20T14:23:47Z</time>
      </trkpt>
      <trkpt lat="42.2729440" lon="-8.6606280">
        <ele>160.9</ele>
        <time>2021-05-20T14:23:48Z</time>
      </trkpt>
      <trkpt lat="42.2729560" lon="-8.6606370">
        <ele>160.9</ele>
        <time>2021-05-20T14:23:49Z</time>
      </trkpt>
      <trkpt lat="42.2729720" lon="-8.6606370">
        <ele>161.0</ele>
        <time>2021-05-20T14:23:50Z</time>
      </trkpt>
      <trkpt lat="42.2729840" lon="-8.6606430">
        <ele>161.0</ele>
        <time>2021-05-20T14:23:51Z</time>
      </trkpt>
      <trkpt lat="42.2729880" lon="-8.6606510">
        <ele>161.0</ele>
        <time>2021-05-20T14:23:52Z</time>
      </trkpt>
      <trkpt lat="42.2729930" lon="-8.6606510">
        <ele>161.0</ele>
        <time>2021-05-20T14:23:53Z</time>
      </trkpt>
      <trkpt lat="42.2730040" lon="-8.6606600">
        <ele>161.0</ele>
        <time>2021-05-20T14:23:54Z</time>
      </trkpt>
      <trkpt lat="42.2730130" lon="-8.6606650">
        <ele>161.0</ele>
        <time>2021-05-20T14:23:55Z</time>
      </trkpt>
      <trkpt lat="42.2730230" lon="-8.6606750">
        <ele>161.0</ele>
        <time>2021-05-20T14:23:56Z</time>
      </trkpt>
      <trkpt lat="42.2730370" lon="-8.6606780">
        <ele>161.1</ele>
        <time>2021-05-20T14:23:57Z</time>
      </trkpt>
      <trkpt lat="42.2730460" lon="-8.6606820">
        <ele>161.1</ele>
        <time>2021-05-20T14:23:58Z</time>
      </trkpt>
      <trkpt lat="42.2730620" lon="-8.6606820">
        <ele>161.1</ele>
        <time>2021-05-20T14:23:59Z</time>
      </trkpt>
      <trkpt lat="42.2730730" lon="-8.6606850">
        <ele>161.1</ele>
        <time>2021-05-20T14:24:00Z</time>
      </trkpt>
      <trkpt lat="42.2730840" lon="-8.6606880">
        <ele>161.1</ele>
        <time>2021-05-20T14:24:01Z</time>
      </trkpt>
      <trkpt lat="42.2730900" lon="-8.6606940">
        <ele>161.1</ele>
        <time>2021-05-20T14:24:02Z</time>
      </trkpt>
      <trkpt lat="42.2731040" lon="-8.6607100">
        <ele>161.2</ele>
        <time>2021-05-20T14:24:03Z</time>
      </trkpt>
      <trkpt lat="42.2731100" lon="-8.6607110">
        <ele>161.2</ele>
        <time>2021-05-20T14:24:04Z</time>
      </trkpt>
      <trkpt lat="42.2731250" lon="-8.6607040">
        <ele>161.2</ele>
        <time>2021-05-20T14:24:05Z</time>
      </trkpt>
      <trkpt lat="42.2731340" lon="-8.6607000">
        <ele>161.2</ele>
        <time>2021-05-20T14:24:06Z</time>
      </trkpt>
      <trkpt lat="42.2731420" lon="-8.6607000">
        <ele>161.2</ele>
        <time>2021-05-20T14:24:07Z</time>
      </trkpt>
      <trkpt lat="42.2731490" lon="-8.6606900">
        <ele>161.2</ele>
        <time>2021-05-20T14:24:08Z</time>
      </trkpt>
      <trkpt lat="42.2731620" lon="-8.6606960">
        <ele>161.3</ele>
        <time>2021-05-20T14:24:09Z</time>
      </trkpt>
      <trkpt lat="42.2731730" lon="-8.6606970">
        <ele>161.3</ele>
        <time>2021-05-20T14:24:10Z</time>
      </trkpt>
      <trkpt lat="42.2731910" lon="-8.6607000">
        <ele>161.3</ele>
        <time>2021-05-20T14:24:11Z</time>
      </trkpt>
      <trkpt lat="42.2732060" lon="-8.6607000">
        <ele>161.3</ele>
        <time>2021-05-20T14:24:12Z</time>
      </trkpt>
      <trkpt lat="42.2732150" lon="-8.6606980">
        <ele>161.3</ele>
        <time>2021-05-20T14:24:13Z</time>
      </trkpt>
      <trkpt lat="42.2732280" lon="-8.6606900">
        <ele>161.4</ele>
        <time>2021-05-20T14:24:14Z</time>
      </trkpt>
      <trkpt lat="42.2732360" lon="-8.6606820">
        <ele>161.4</ele>
        <time>2021-05-20T14:24:15Z</time>
      </trkpt>
      <trkpt lat="42.2732380" lon="-8.6606820">
        <ele>161.4</ele>
        <time>2021-05-20T14:24:16Z</time>
      </trkpt>
      <trkpt lat="42.2732540" lon="-8.6606740">
        <ele>161.4</ele>
        <time>2021-05-20T14:24:17Z</time>
      </trkpt>
      <trkpt lat="42.2732620" lon="-8.6606750">
        <ele>161.4</ele>
        <time>2021-05-20T14:24:18Z</time>
      </trkpt>
      <trkpt lat="42.2732710" lon="-8.6606740">
        <ele>161.4</ele>
        <time>2021-05-20T14:24:19Z</time>
      </trkpt>
      <trkpt lat="42.2732950" lon="-8.6606670">
        <ele>161.5</ele>
        <time>2021-05-20T14:24:20Z</time>
      </trkpt>
      <trkpt lat="42.2733010" lon="-8.6606650">
        <ele>161.5</ele>
        <time>2021-05-20T14:24:21Z</time>
      </trkpt>
      <trkpt lat="42.2733080" lon="-8.6606620">
        <ele>161.5</ele>
        <time>2021-05-20T14:24:22Z</time>
      </trkpt>
      <trkpt lat="42.2733140" lon="-8.6606600">
        <ele>161.5</ele>
        <time>2021-05-20T14:24:23Z</time>
      </trkpt>
      <trkpt lat="42.2733200" lon="-8.6606570">
        <ele>161.5</ele>
        <time>2021-05-20T14:24:24Z</time>
      </trkpt>
      <trkpt lat="42.2733360" lon="-8.6606660">
        <ele>161.6</ele>
        <time>2021-05-20T14:24:25Z</time>
      </trkpt>
      <trkpt lat="42.2733420" lon="-8.6606790">
        <ele>161.6</ele>
        <time>2021-05-20T14:24:26Z</time>
      </trkpt>
      <trkpt lat="42.2733560" lon="-8.6606700">
        <ele>161.6</ele>
        <time>2021-05-20T14:24:27Z</time>
      </trkpt>
      <trkpt lat="42.2733750" lon="-8.6606700">
        <ele>161.6</ele>
        <time>2021-05-20T14:24:28Z</time>
      </trkpt>
      <trkpt lat="42.2733900" lon="-8.6606590">
        <ele>161.6</ele>
        <time>2021-05-20T14:24:29Z</time>
      </trkpt>
      <trkpt lat="42.2734080" lon="-8.6606560">
        <ele>161.6</ele>
        <time>2021-05-20T14:24:30Z</time>
      </trkpt>
      <trkpt lat="42.2734270" lon="-8.6606580">
        <ele>161.7</ele>
        <time>2021-05-20T14:24:31Z</time>
      </trkpt>
      <trkpt lat="42.2734390" lon="-8.6606630">
        <ele>161.7</ele>
        <time>2021-05-20T14:24:32Z</time>
      </trkpt>
      <trkpt lat="42.2734470" lon="-8.6606660">
        <ele>161.7</ele>
        <time>2021-05-20T14:24:33Z</time>
      </trkpt>
      <trkpt lat="42.2734590" lon="-8.6606780">
        <ele>161.7</ele>
        <time>2021-05-20T14:24:34Z</time>
      </trkpt>
      <trkpt lat="42.2734710" lon="-8.6606780">
        <ele>161.7</ele>
        <time>2021-05-20T14:24:35Z</time>
      </trkpt>
      <trkpt lat="42.2734900" lon="-8.6606820">
        <ele>161.7</ele>
        <time>2021-05-20T14:24:36Z</time>
      </trkpt>
      <trkpt lat="42.2735010" lon="-8.6606800">
        <ele>161.7</ele>
        <time>2021-05-20T14:24:37Z</time>
      </trkpt>
      <trkpt lat="42.2735110" lon="-8.6606780">
        <ele>161.7</ele>
        <time>2021-05-20T14:24:38Z</time>
      </trkpt>
      <trkpt lat="42.2735290" lon="-8.6606920">
        <ele>161.7</ele>
        <time>2021-05-20T14:24:39Z</time>
      </trkpt>
      <trkpt lat="42.2735390" lon="-8.6606990">
        <ele>161.7</ele>
        <time>2021-05-20T14:24:40Z</time>
      </trkpt>
      <trkpt lat="42.2735460" lon="-8.6606980">
        <ele>161.7</ele>
        <time>2021-05-20T14:24:41Z</time>
      </trkpt>
      <trkpt lat="42.2735720" lon="-8.6606960">
        <ele>161.7</ele>
        <time>2021-05-20T14:24:42Z</time>
      </trkpt>
      <trkpt lat="42.2735890" lon="-8.6607100">
        <ele>161.7</ele>
        <time>2021-05-20T14:24:43Z</time>
      </trkpt>
      <trkpt lat="42.2736040" lon="-8.6607150">
        <ele>161.7</ele>
        <time>2021-05-20T14:24:44Z</time>
      </trkpt>
      <trkpt lat="42.2736180" lon="-8.6607190">
        <ele>161.7</ele>
        <time>2021-05-20T14:24:45Z</time>
      </trkpt>
      <trkpt lat="42.2736250" lon="-8.6607210">
        <ele>161.7</ele>
        <time>2021-05-20T14:24:46Z</time>
      </trkpt>
      <trkpt lat="42.2736330" lon="-8.6607240">
        <ele>161.7</ele>
        <time>2021-05-20T14:24:47Z</time>
      </trkpt>
      <trkpt lat="42.2736400" lon="-8.6607260">
        <ele>161.7</ele>
        <time>2021-05-20T14:24:48Z</time>
      </trkpt>
      <trkpt lat="42.2736470" lon="-8.6607290">
        <ele>161.7</ele>
        <time>2021-05-20T14:24:49Z</time>
      </trkpt>
      <trkpt lat="42.2736590" lon="-8.6607320">
        <ele>161.7</ele>
        <time>2021-05-20T14:24:50Z</time>
      </trkpt>
      <trkpt lat="42.2736700" lon="-8.6607400">
        <ele>161.7</ele>
        <time>2021-05-20T14:24:51Z</time>
      </trkpt>
      <trkpt lat="42.2736760" lon="-8.6607450">
        <ele>161.7</ele>
        <time>2021-05-20T14:24:52Z</time>
      </trkpt>
      <trkpt lat="42.2736860" lon="-8.6607530">
        <ele>161.7</ele>
        <time>2021-05-20T14:24:53Z</time>
      </trkpt>
      <trkpt lat="42.2737040" lon="-8.6607600">
        <ele>161.7</ele>
        <time>2021-05-20T14:24:54Z</time>
      </trkpt>
      <trkpt lat="42.2737100" lon="-8.6607670">
        <ele>161.7</ele>
        <time>2021-05-20T14:24:55Z</time>
      </trkpt>
      <trkpt lat="42.2737200" lon="-8.6607810">
        <ele>161.7</ele>
        <time>2021-05-20T14:24:56Z</time>
      </trkpt>
      <trkpt lat="42.2737340" lon="-8.6607800">
        <ele>161.7</ele>
        <time>2021-05-20T14:24:57Z</time>
      </trkpt>
      <trkpt lat="42.2737460" lon="-8.6607860">
        <ele>161.7</ele>
        <time>2021-05-20T14:24:58Z</time>
      </trkpt>
      <trkpt lat="42.2737670" lon="-8.6607920">
        <ele>161.7</ele>
        <time>2021-05-20T14:24:59Z</time>
      </trkpt>
      <trkpt lat="42.2737820" lon="-8.6607920">
        <ele>161.7</ele>
        <time>2021-05-20T14:25:00Z</time>
      </trkpt>
      <trkpt lat="42.2737980" lon="-8.6608040">
        <ele>161.6</ele>
        <time>2021-05-20T14:25:01Z</time>
      </trkpt>
      <trkpt lat="42.2738160" lon="-8.6608080">
        <ele>161.6</ele>
        <time>2021-05-20T14:25:02Z</time>
      </trkpt>
      <trkpt lat="42.2738310" lon="-8.6608140">
        <ele>161.6</ele>
        <time>2021-05-20T14:25:03Z</time>
      </trkpt>
      <trkpt lat="42.2738440" lon="-8.6608280">
        <ele>161.6</ele>
        <time>2021-05-20T14:25:04Z</time>
      </trkpt>
      <trkpt lat="42.2738570" lon="-8.6608230">
        <ele>161.6</ele>
        <time>2021-05-20T14:25:05Z</time>
      </trkpt>
      <trkpt lat="42.2738790" lon="-8.6608350">
        <ele>161.6</ele>
        <time>2021-05-20T14:25:06Z</time>
      </trkpt>
      <trkpt lat="42.2738890" lon="-8.6608400">
        <ele>161.6</ele>
        <time>2021-05-20T14:25:07Z</time>
      </trkpt>
      <trkpt lat="42.2738980" lon="-8.6608460">
        <ele>161.6</ele>
        <time>2021-05-20T14:25:08Z</time>
      </trkpt>
      <trkpt lat="42.2739140" lon="-8.6608650">
        <ele>161.6</ele>
        <time>2021-05-20T14:25:09Z</time>
      </trkpt>
      <trkpt lat="42.2739220" lon="-8.6608690">
        <ele>161.6</ele>
        <time>2021-05-20T14:25:10Z</time>
      </trkpt>
      <trkpt lat="42.2739310" lon="-8.6608740">
        <ele>161.6</ele>
        <time>2021-05-20T14:25:11Z</time>
      </trkpt>
      <trkpt lat="42.2739420" lon="-8.6608990">
        <ele>161.6</ele>
        <time>2021-05-20T14:25:12Z</time>
      </trkpt>
      <trkpt lat="42.2739510" lon="-8.6609090">
        <ele>161.6</ele>
        <time>2021-05-20T14:25:13Z</time>
      </trkpt>
      <trkpt lat="42.2739580" lon="-8.6609130">
        <ele>161.6</ele>
        <time>2021-05-20T14:25:14Z</time>
      </trkpt>
      <trkpt lat="42.2739650" lon="-8.6609150">
        <ele>161.6</ele>
        <time>2021-05-20T14:25:15Z</time>
      </trkpt>
      <trkpt lat="42.2739810" lon="-8.6609200">
        <ele>161.6</ele>
        <time>2021-05-20T14:25:16Z</time>
      </trkpt>
      <trkpt lat="42.2739860" lon="-8.6609240">
        <ele>161.6</ele>
        <time>2021-05-20T14:25:17Z</time>
      </trkpt>
      <trkpt lat="42.2740050" lon="-8.6609350">
        <ele>161.6</ele>
        <time>2021-05-20T14:25:18Z</time>
      </trkpt>
      <trkpt lat="42.2740100" lon="-8.6609440">
        <ele>161.6</ele>
        <time>2021-05-20T14:25:19Z</time>
      </trkpt>
      <trkpt lat="42.2740280" lon="-8.6609450">
        <ele>161.6</ele>
        <time>2021-05-20T14:25:20Z</time>
      </trkpt>
      <trkpt lat="42.2740390" lon="-8.6609630">
        <ele>161.6</ele>
        <time>2021-05-20T14:25:21Z</time>
      </trkpt>
      <trkpt lat="42.2740510" lon="-8.6609650">
        <ele>161.6</ele>
        <time>2021-05-20T14:25:22Z</time>
      </trkpt>
      <trkpt lat="42.2740730" lon="-8.6609800">
        <ele>161.6</ele>
        <time>2021-05-20T14:25:23Z</time>
      </trkpt>
      <trkpt lat="42.2740860" lon="-8.6609950">
        <ele>161.6</ele>
        <time>2021-05-20T14:25:24Z</time>
      </trkpt>
      <trkpt lat="42.2740930" lon="-8.6610020">
        <ele>161.6</ele>
        <time>2021-05-20T14:25:25Z</time>
      </trkpt>
      <trkpt lat="42.2740990" lon="-8.6610100">
        <ele>161.6</ele>
        <time>2021-05-20T14:25:26Z</time>
      </trkpt>
      <trkpt lat="42.2741060" lon="-8.6610180">
        <ele>161.6</ele>
        <time>2021-05-20T14:25:27Z</time>
      </trkpt>
      <trkpt lat="42.2741160" lon="-8.6610260">
        <ele>161.6</ele>
        <time>2021-05-20T14:25:28Z</time>
      </trkpt>
      <trkpt lat="42.2741320" lon="-8.6610320">
        <ele>161.6</ele>
        <time>2021-05-20T14:25:29Z</time>
      </trkpt>
      <trkpt lat="42.2741510" lon="-8.6610410">
        <ele>161.6</ele>
        <time>2021-05-20T14:25:30Z</time>
      </trkpt>
      <trkpt lat="42.2741590" lon="-8.6610460">
        <ele>161.6</ele>
        <time>2021-05-20T14:25:31Z</time>
      </trkpt>
      <trkpt lat="42.2741670" lon="-8.6610510">
        <ele>161.6</ele>
        <time>2021-05-20T14:25:32Z</time>
      </trkpt>
      <trkpt lat="42.2741710" lon="-8.6610640">
        <ele>161.6</ele>
        <time>2021-05-20T14:25:33Z</time>
      </trkpt>
      <trkpt lat="42.2741790" lon="-8.6610780">
        <ele>161.6</ele>
        <time>2021-05-20T14:25:34Z</time>
      </trkpt>
      <trkpt lat="42.2741850" lon="-8.6610850">
        <ele>161.6</ele>
        <time>2021-05-20T14:25:35Z</time>
      </trkpt>
      <trkpt lat="42.2741940" lon="-8.6611010">
        <ele>161.6</ele>
        <time>2021-05-20T14:25:36Z</time>
      </trkpt>
      <trkpt lat="42.2742080" lon="-8.6611060">
        <ele>161.6</ele>
        <time>2021-05-20T14:25:37Z</time>
      </trkpt>
      <trkpt lat="42.2742190" lon="-8.6611280">
        <ele>161.7</ele>
        <time>2021-05-20T14:25:38Z</time>
      </trkpt>
      <trkpt lat="42.2742320" lon="-8.6611380">
        <ele>161.7</ele>
        <time>2021-05-20T14:25:39Z</time>
      </trkpt>
      <trkpt lat="42.2742500" lon="-8.6611650">
        <ele>161.7</ele>
        <time>2021-05-20T14:25:40Z</time>
      </trkpt>
      <trkpt lat="42.2742560" lon="-8.6611730">
        <ele>161.7</ele>
        <time>2021-05-20T14:25:41Z</time>
      </trkpt>
      <trkpt lat="42.2742630" lon="-8.6611810">
        <ele>161.7</ele>
        <time>2021-05-20T14:25:42Z</time>
      </trkpt>
      <trkpt lat="42.2742720" lon="-8.6611980">
        <ele>161.7</ele>
        <time>2021-05-20T14:25:43Z</time>
      </trkpt>
      <trkpt lat="42.2742740" lon="-8.6612110">
        <ele>161.7</ele>
        <time>2021-05-20T14:25:44Z</time>
      </trkpt>
      <trkpt lat="42.2742830" lon="-8.6612220">
        <ele>161.7</ele>
        <time>2021-05-20T14:25:45Z</time>
      </trkpt>
      <trkpt lat="42.2742900" lon="-8.6612380">
        <ele>161.7</ele>
        <time>2021-05-20T14:25:46Z</time>
      </trkpt>
      <trkpt lat="42.2742970" lon="-8.6612490">
        <ele>161.7</ele>
        <time>2021-05-20T14:25:47Z</time>
      </trkpt>
      <trkpt lat="42.2743040" lon="-8.6612580">
        <ele>161.7</ele>
        <time>2021-05-20T14:25:48Z</time>
      </trkpt>
      <trkpt lat="42.2743100" lon="-8.6612690">
        <ele>161.7</ele>
        <time>2021-05-20T14:25:49Z</time>
      </trkpt>
      <trkpt lat="42.2743210" lon="-8.6612870">
        <ele>161.7</ele>
        <time>2021-05-20T14:25:50Z</time>
      </trkpt>
      <trkpt lat="42.2743280" lon="-8.6613050">
        <ele>161.7</ele>
        <time>2021-05-20T14:25:51Z</time>
      </trkpt>
      <trkpt lat="42.2743320" lon="-8.6613140">
        <ele>161.7</ele>
        <time>2021-05-20T14:25:52Z</time>
      </trkpt>
      <trkpt lat="42.2743390" lon="-8.6613230">
        <ele>161.7</ele>
        <time>2021-05-20T14:25:53Z</time>
      </trkpt>
      <trkpt lat="42.2743480" lon="-8.6613350">
        <ele>161.7</ele>
        <time>2021-05-20T14:25:54Z</time>
      </trkpt>
      <trkpt lat="42.2743590" lon="-8.6613470">
        <ele>161.7</ele>
        <time>2021-05-20T14:25:55Z</time>
      </trkpt>
      <trkpt lat="42.2743610" lon="-8.6613520">
        <ele>161.8</ele>
        <time>2021-05-20T14:25:56Z</time>
      </trkpt>
      <trkpt lat="42.2743680" lon="-8.6613550">
        <ele>161.8</ele>
        <time>2021-05-20T14:25:57Z</time>
      </trkpt>
      <trkpt lat="42.2743770" lon="-8.6613690">
        <ele>161.8</ele>
        <time>2021-05-20T14:25:58Z</time>
      </trkpt>
      <trkpt lat="42.2743740" lon="-8.6613720">
        <ele>161.8</ele>
        <time>2021-05-20T14:25:59Z</time>
      </trkpt>
      <trkpt lat="42.2743670" lon="-8.6613760">
        <ele>161.8</ele>
        <time>2021-05-20T14:26:00Z</time>
      </trkpt>
      <trkpt lat="42.2743720" lon="-8.6613910">
        <ele>161.8</ele>
        <time>2021-05-20T14:26:01Z</time>
      </trkpt>
      <trkpt lat="42.2743780" lon="-8.6614020">
        <ele>161.8</ele>
        <time>2021-05-20T14:26:02Z</time>
      </trkpt>
      <trkpt lat="42.2743850" lon="-8.6614050">
        <ele>161.8</ele>
        <time>2021-05-20T14:26:03Z</time>
      </trkpt>
      <trkpt lat="42.2743910" lon="-8.6614100">
        <ele>161.8</ele>
        <time>2021-05-20T14:26:04Z</time>
      </trkpt>
      <trkpt lat="42.2743960" lon="-8.6614150">
        <ele>161.8</ele>
        <time>2021-05-20T14:26:05Z</time>
      </trkpt>
      <trkpt lat="42.2744020" lon="-8.6614280">
        <ele>161.8</ele>
        <time>2021-05-20T14:26:06Z</time>
      </trkpt>
      <trkpt lat="42.2744130" lon="-8.6614360">
        <ele>161.8</ele>
        <time>2021-05-20T14:26:07Z</time>
      </trkpt>
      <trkpt lat="42.2744260" lon="-8.6614400">
        <ele>161.8</ele>
        <time>2021-05-20T14:26:08Z</time>
      </trkpt>
      <trkpt lat="42.2744360" lon="-8.6614420">
        <ele>161.8</ele>
        <time>2021-05-20T14:26:09Z</time>
      </trkpt>
      <trkpt lat="42.2744420" lon="-8.6614520">
        <ele>161.8</ele>
        <time>2021-05-20T14:26:10Z</time>
      </trkpt>
      <trkpt lat="42.2744490" lon="-8.6614610">
        <ele>161.8</ele>
        <time>2021-05-20T14:26:11Z</time>
      </trkpt>
      <trkpt lat="42.2744540" lon="-8.6614720">
        <ele>161.8</ele>
        <time>2021-05-20T14:26:12Z</time>
      </trkpt>
      <trkpt lat="42.2744660" lon="-8.6614830">
        <ele>161.8</ele>
        <time>2021-05-20T14:26:13Z</time>
      </trkpt>
      <trkpt lat="42.2744730" lon="-8.6614870">
        <ele>161.8</ele>
        <time>2021-05-20T14:26:14Z</time>
      </trkpt>
      <trkpt lat="42.2744840" lon="-8.6614950">
        <ele>161.8</ele>
        <time>2021-05-20T14:26:15Z</time>
      </trkpt>
      <trkpt lat="42.2744950" lon="-8.6615030">
        <ele>161.8</ele>
        <time>2021-05-20T14:26:16Z</time>
      </trkpt>
      <trkpt lat="42.2745060" lon="-8.6615060">
        <ele>161.8</ele>
        <time>2021-05-20T14:26:17Z</time>
      </trkpt>
      <trkpt lat="42.2745190" lon="-8.6615060">
        <ele>161.8</ele>
        <time>2021-05-20T14:26:18Z</time>
      </trkpt>
      <trkpt lat="42.2745330" lon="-8.6615100">
        <ele>161.8</ele>
        <time>2021-05-20T14:26:19Z</time>
      </trkpt>
      <trkpt lat="42.2745400" lon="-8.6615140">
        <ele>161.8</ele>
        <time>2021-05-20T14:26:20Z</time>
      </trkpt>
      <trkpt lat="42.2745530" lon="-8.6615150">
        <ele>161.8</ele>
        <time>2021-05-20T14:26:21Z</time>
      </trkpt>
      <trkpt lat="42.2745560" lon="-8.6615290">
        <ele>161.8</ele>
        <time>2021-05-20T14:26:22Z</time>
      </trkpt>
      <trkpt lat="42.2745630" lon="-8.6615350">
        <ele>161.8</ele>
        <time>2021-05-20T14:26:23Z</time>
      </trkpt>
      <trkpt lat="42.2745890" lon="-8.6615490">
        <ele>161.8</ele>
        <time>2021-05-20T14:26:24Z</time>
      </trkpt>
      <trkpt lat="42.2745980" lon="-8.6615570">
        <ele>161.8</ele>
        <time>2021-05-20T14:26:25Z</time>
      </trkpt>
      <trkpt lat="42.2746090" lon="-8.6615660">
        <ele>161.8</ele>
        <time>2021-05-20T14:26:26Z</time>
      </trkpt>
      <trkpt lat="42.2746170" lon="-8.6615840">
        <ele>161.8</ele>
        <time>2021-05-20T14:26:27Z</time>
      </trkpt>
      <trkpt lat="42.2746200" lon="-8.6615960">
        <ele>161.8</ele>
        <time>2021-05-20T14:26:28Z</time>
      </trkpt>
      <trkpt lat="42.2746320" lon="-8.6616080">
        <ele>161.8</ele>
        <time>2021-05-20T14:26:29Z</time>
      </trkpt>
      <trkpt lat="42.2746400" lon="-8.6616190">
        <ele>161.8</ele>
        <time>2021-05-20T14:26:30Z</time>
      </trkpt>
      <trkpt lat="42.2746490" lon="-8.6616270">
        <ele>161.8</ele>
        <time>2021-05-20T14:26:31Z</time>
      </trkpt>
      <trkpt lat="42.2746650" lon="-8.6616500">
        <ele>161.8</ele>
        <time>2021-05-20T14:26:32Z</time>
      </trkpt>
      <trkpt lat="42.2746730" lon="-8.6616570">
        <ele>161.8</ele>
        <time>2021-05-20T14:26:33Z</time>
      </trkpt>
      <trkpt lat="42.2746800" lon="-8.6616720">
        <ele>161.8</ele>
        <time>2021-05-20T14:26:34Z</time>
      </trkpt>
      <trkpt lat="42.2746830" lon="-8.6616790">
        <ele>161.8</ele>
        <time>2021-05-20T14:26:35Z</time>
      </trkpt>
      <trkpt lat="42.2746970" lon="-8.6616920">
        <ele>161.9</ele>
        <time>2021-05-20T14:26:36Z</time>
      </trkpt>
      <trkpt lat="42.2747040" lon="-8.6616990">
        <ele>161.9</ele>
        <time>2021-05-20T14:26:37Z</time>
      </trkpt>
      <trkpt lat="42.2747120" lon="-8.6617070">
        <ele>161.9</ele>
        <time>2021-05-20T14:26:38Z</time>
      </trkpt>
      <trkpt lat="42.2747190" lon="-8.6617140">
        <ele>161.9</ele>
        <time>2021-05-20T14:26:39Z</time>
      </trkpt>
      <trkpt lat="42.2747360" lon="-8.6617310">
        <ele>161.9</ele>
        <time>2021-05-20T14:26:40Z</time>
      </trkpt>
      <trkpt lat="42.2747430" lon="-8.6617390">
        <ele>161.9</ele>
        <time>2021-05-20T14:26:41Z</time>
      </trkpt>
      <trkpt lat="42.2747510" lon="-8.6617480">
        <ele>161.9</ele>
        <time>2021-05-20T14:26:42Z</time>
      </trkpt>
      <trkpt lat="42.2747660" lon="-8.6617560">
        <ele>161.9</ele>
        <time>2021-05-20T14:26:43Z</time>
      </trkpt>
      <trkpt lat="42.2747720" lon="-8.6617630">
        <ele>161.9</ele>
        <time>2021-05-20T14:26:44Z</time>
      </trkpt>
      <trkpt lat="42.2747790" lon="-8.6617670">
        <ele>161.9</ele>
        <time>2021-05-20T14:26:45Z</time>
      </trkpt>
      <trkpt lat="42.2747910" lon="-8.6617860">
        <ele>161.9</ele>
        <time>2021-05-20T14:26:46Z</time>
      </trkpt>
      <trkpt lat="42.2747960" lon="-8.6617960">
        <ele>162.0</ele>
        <time>2021-05-20T14:26:47Z</time>
      </trkpt>
      <trkpt lat="42.2748020" lon="-8.6618050">
        <ele>162.0</ele>
        <time>2021-05-20T14:26:48Z</time>
      </trkpt>
      <trkpt lat="42.2748090" lon="-8.6618140">
        <ele>162.0</ele>
        <time>2021-05-20T14:26:49Z</time>
      </trkpt>
      <trkpt lat="42.2748140" lon="-8.6618320">
        <ele>162.0</ele>
        <time>2021-05-20T14:26:50Z</time>
      </trkpt>
      <trkpt lat="42.2748260" lon="-8.6618420">
        <ele>162.0</ele>
        <time>2021-05-20T14:26:51Z</time>
      </trkpt>
      <trkpt lat="42.2748350" lon="-8.6618610">
        <ele>162.0</ele>
        <time>2021-05-20T14:26:52Z</time>
      </trkpt>
      <trkpt lat="42.2748430" lon="-8.6618790">
        <ele>162.0</ele>
        <time>2021-05-20T14:26:53Z</time>
      </trkpt>
      <trkpt lat="42.2748520" lon="-8.6618880">
        <ele>162.0</ele>
        <time>2021-05-20T14:26:54Z</time>
      </trkpt>
      <trkpt lat="42.2748550" lon="-8.6619000">
        <ele>162.0</ele>
        <time>2021-05-20T14:26:55Z</time>
      </trkpt>
      <trkpt lat="42.2748600" lon="-8.6619150">
        <ele>162.1</ele>
        <time>2021-05-20T14:26:56Z</time>
      </trkpt>
      <trkpt lat="42.2748650" lon="-8.6619230">
        <ele>162.1</ele>
        <time>2021-05-20T14:26:57Z</time>
      </trkpt>
      <trkpt lat="42.2748700" lon="-8.6619410">
        <ele>162.1</ele>
        <time>2021-05-20T14:26:58Z</time>
      </trkpt>
      <trkpt lat="42.2748730" lon="-8.6619600">
        <ele>162.1</ele>
        <time>2021-05-20T14:26:59Z</time>
      </trkpt>
      <trkpt lat="42.2748810" lon="-8.6619840">
        <ele>162.1</ele>
        <time>2021-05-20T14:27:00Z</time>
      </trkpt>
      <trkpt lat="42.2748860" lon="-8.6619940">
        <ele>162.1</ele>
        <time>2021-05-20T14:27:01Z</time>
      </trkpt>
      <trkpt lat="42.2748910" lon="-8.6620030">
        <ele>162.1</ele>
        <time>2021-05-20T14:27:02Z</time>
      </trkpt>
      <trkpt lat="42.2749030" lon="-8.6620220">
        <ele>162.2</ele>
        <time>2021-05-20T14:27:03Z</time>
      </trkpt>
      <trkpt lat="42.2749040" lon="-8.6620400">
        <ele>162.2</ele>
        <time>2021-05-20T14:27:04Z</time>
      </trkpt>
      <trkpt lat="42.2749090" lon="-8.6620580">
        <ele>162.2</ele>
        <time>2021-05-20T14:27:05Z</time>
      </trkpt>
      <trkpt lat="42.2749200" lon="-8.6620790">
        <ele>162.2</ele>
        <time>2021-05-20T14:27:06Z</time>
      </trkpt>
      <trkpt lat="42.2749210" lon="-8.6621100">
        <ele>162.2</ele>
        <time>2021-05-20T14:27:07Z</time>
      </trkpt>
      <trkpt lat="42.2749220" lon="-8.6621200">
        <ele>162.2</ele>
        <time>2021-05-20T14:27:08Z</time>
      </trkpt>
      <trkpt lat="42.2749220" lon="-8.6621300">
        <ele>162.2</ele>
        <time>2021-05-20T14:27:09Z</time>
      </trkpt>
      <trkpt lat="42.2749230" lon="-8.6621560">
        <ele>162.3</ele>
        <time>2021-05-20T14:27:10Z</time>
      </trkpt>
      <trkpt lat="42.2749230" lon="-8.6621700">
        <ele>162.3</ele>
        <time>2021-05-20T14:27:11Z</time>
      </trkpt>
      <trkpt lat="42.2749230" lon="-8.6621840">
        <ele>162.3</ele>
        <time>2021-05-20T14:27:12Z</time>
      </trkpt>
      <trkpt lat="42.2749230" lon="-8.6622060">
        <ele>162.3</ele>
        <time>2021-05-20T14:27:13Z</time>
      </trkpt>
      <trkpt lat="42.2749310" lon="-8.6622260">
        <ele>162.3</ele>
        <time>2021-05-20T14:27:14Z</time>
      </trkpt>
      <trkpt lat="42.2749360" lon="-8.6622320">
        <ele>162.3</ele>
        <time>2021-05-20T14:27:15Z</time>
      </trkpt>
      <trkpt lat="42.2749380" lon="-8.6622430">
        <ele>162.3</ele>
        <time>2021-05-20T14:27:16Z</time>
      </trkpt>
      <trkpt lat="42.2749370" lon="-8.6622540">
        <ele>162.3</ele>
        <time>2021-05-20T14:27:17Z</time>
      </trkpt>
      <trkpt lat="42.2749320" lon="-8.6622720">
        <ele>162.4</ele>
        <time>2021-05-20T14:27:18Z</time>
      </trkpt>
      <trkpt lat="42.2749260" lon="-8.6622880">
        <ele>162.4</ele>
        <time>2021-05-20T14:27:19Z</time>
      </trkpt>
      <trkpt lat="42.2749260" lon="-8.6622920">
        <ele>162.4</ele>
        <time>2021-05-20T14:27:20Z</time>
      </trkpt>
      <trkpt lat="42.2749180" lon="-8.6623040">
        <ele>162.4</ele>
        <time>2021-05-20T14:27:21Z</time>
      </trkpt>
      <trkpt lat="42.2749090" lon="-8.6623230">
        <ele>162.4</ele>
        <time>2021-05-20T14:27:22Z</time>
      </trkpt>
      <trkpt lat="42.2749030" lon="-8.6623460">
        <ele>162.4</ele>
        <time>2021-05-20T14:27:23Z</time>
      </trkpt>
      <trkpt lat="42.2749070" lon="-8.6623680">
        <ele>162.4</ele>
        <time>2021-05-20T14:27:24Z</time>
      </trkpt>
      <trkpt lat="42.2749020" lon="-8.6623820">
        <ele>162.4</ele>
        <time>2021-05-20T14:27:25Z</time>
      </trkpt>
      <trkpt lat="42.2748980" lon="-8.6623970">
        <ele>162.4</ele>
        <time>2021-05-20T14:27:26Z</time>
      </trkpt>
      <trkpt lat="42.2748920" lon="-8.6624240">
        <ele>162.4</ele>
        <time>2021-05-20T14:27:27Z</time>
      </trkpt>
      <trkpt lat="42.2748890" lon="-8.6624400">
        <ele>162.4</ele>
        <time>2021-05-20T14:27:28Z</time>
      </trkpt>
      <trkpt lat="42.2748850" lon="-8.6624550">
        <ele>162.4</ele>
        <time>2021-05-20T14:27:29Z</time>
      </trkpt>
      <trkpt lat="42.2748810" lon="-8.6624730">
        <ele>162.4</ele>
        <time>2021-05-20T14:27:30Z</time>
      </trkpt>
      <trkpt lat="42.2748770" lon="-8.6624890">
        <ele>162.4</ele>
        <time>2021-05-20T14:27:31Z</time>
      </trkpt>
      <trkpt lat="42.2748780" lon="-8.6625010">
        <ele>162.4</ele>
        <time>2021-05-20T14:27:32Z</time>
      </trkpt>
      <trkpt lat="42.2748900" lon="-8.6625430">
        <ele>162.3</ele>
        <time>2021-05-20T14:27:33Z</time>
      </trkpt>
      <trkpt lat="42.2748920" lon="-8.6625540">
        <ele>162.3</ele>
        <time>2021-05-20T14:27:34Z</time>
      </trkpt>
      <trkpt lat="42.2749000" lon="-8.6625780">
        <ele>162.3</ele>
        <time>2021-05-20T14:27:35Z</time>
      </trkpt>
      <trkpt lat="42.2749050" lon="-8.6625980">
        <ele>162.3</ele>
        <time>2021-05-20T14:27:36Z</time>
      </trkpt>
      <trkpt lat="42.2749180" lon="-8.6626180">
        <ele>162.3</ele>
        <time>2021-05-20T14:27:37Z</time>
      </trkpt>
      <trkpt lat="42.2749230" lon="-8.6626280">
        <ele>162.3</ele>
        <time>2021-05-20T14:27:38Z</time>
      </trkpt>
      <trkpt lat="42.2749270" lon="-8.6626370">
        <ele>162.3</ele>
        <time>2021-05-20T14:27:39Z</time>
      </trkpt>
      <trkpt lat="42.2749310" lon="-8.6626470">
        <ele>162.3</ele>
        <time>2021-05-20T14:27:40Z</time>
      </trkpt>
      <trkpt lat="42.2749280" lon="-8.6626640">
        <ele>162.3</ele>
        <time>2021-05-20T14:27:41Z</time>
      </trkpt>
      <trkpt lat="42.2749390" lon="-8.6626740">
        <ele>162.3</ele>
        <time>2021-05-20T14:27:42Z</time>
      </trkpt>
      <trkpt lat="42.2749500" lon="-8.6626810">
        <ele>162.3</ele>
        <time>2021-05-20T14:27:43Z</time>
      </trkpt>
      <trkpt lat="42.2749570" lon="-8.6626860">
        <ele>162.3</ele>
        <time>2021-05-20T14:27:44Z</time>
      </trkpt>
      <trkpt lat="42.2749710" lon="-8.6626940">
        <ele>162.3</ele>
        <time>2021-05-20T14:27:45Z</time>
      </trkpt>
      <trkpt lat="42.2749850" lon="-8.6627080">
        <ele>162.2</ele>
        <time>2021-05-20T14:27:46Z</time>
      </trkpt>
      <trkpt lat="42.2749910" lon="-8.6627210">
        <ele>162.2</ele>
        <time>2021-05-20T14:27:47Z</time>
      </trkpt>
      <trkpt lat="42.2749930" lon="-8.6627220">
        <ele>162.2</ele>
        <time>2021-05-20T14:27:48Z</time>
      </trkpt>
      <trkpt lat="42.2750100" lon="-8.6627320">
        <ele>162.2</ele>
        <time>2021-05-20T14:27:49Z</time>
      </trkpt>
      <trkpt lat="42.2750150" lon="-8.6627480">
        <ele>162.2</ele>
        <time>2021-05-20T14:27:50Z</time>
      </trkpt>
      <trkpt lat="42.2750200" lon="-8.6627640">
        <ele>162.2</ele>
        <time>2021-05-20T14:27:51Z</time>
      </trkpt>
      <trkpt lat="42.2750270" lon="-8.6627730">
        <ele>162.2</ele>
        <time>2021-05-20T14:27:52Z</time>
      </trkpt>
      <trkpt lat="42.2750320" lon="-8.6627770">
        <ele>162.2</ele>
        <time>2021-05-20T14:27:53Z</time>
      </trkpt>
      <trkpt lat="42.2750490" lon="-8.6627910">
        <ele>162.2</ele>
        <time>2021-05-20T14:27:54Z</time>
      </trkpt>
      <trkpt lat="42.2750590" lon="-8.6627960">
        <ele>162.2</ele>
        <time>2021-05-20T14:27:55Z</time>
      </trkpt>
      <trkpt lat="42.2750680" lon="-8.6628010">
        <ele>162.2</ele>
        <time>2021-05-20T14:27:56Z</time>
      </trkpt>
      <trkpt lat="42.2750760" lon="-8.6628080">
        <ele>162.2</ele>
        <time>2021-05-20T14:27:57Z</time>
      </trkpt>
      <trkpt lat="42.2750800" lon="-8.6628120">
        <ele>162.2</ele>
        <time>2021-05-20T14:27:58Z</time>
      </trkpt>
      <trkpt lat="42.2750980" lon="-8.6628220">
        <ele>162.2</ele>
        <time>2021-05-20T14:27:59Z</time>
      </trkpt>
      <trkpt lat="42.2751110" lon="-8.6628230">
        <ele>162.2</ele>
        <time>2021-05-20T14:28:00Z</time>
      </trkpt>
      <trkpt lat="42.2751250" lon="-8.6628350">
        <ele>162.2</ele>
        <time>2021-05-20T14:28:01Z</time>
      </trkpt>
      <trkpt lat="42.2751380" lon="-8.6628460">
        <ele>162.2</ele>
        <time>2021-05-20T14:28:02Z</time>
      </trkpt>
      <trkpt lat="42.2751450" lon="-8.6628460">
        <ele>162.2</ele>
        <time>2021-05-20T14:28:03Z</time>
      </trkpt>
      <trkpt lat="42.2751560" lon="-8.6628550">
        <ele>162.2</ele>
        <time>2021-05-20T14:28:04Z</time>
      </trkpt>
      <trkpt lat="42.2751660" lon="-8.6628580">
        <ele>162.2</ele>
        <time>2021-05-20T14:28:05Z</time>
      </trkpt>
      <trkpt lat="42.2751760" lon="-8.6628580">
        <ele>162.2</ele>
        <time>2021-05-20T14:28:06Z</time>
      </trkpt>
      <trkpt lat="42.2751860" lon="-8.6628620">
        <ele>162.2</ele>
        <time>2021-05-20T14:28:07Z</time>
      </trkpt>
      <trkpt lat="42.2752100" lon="-8.6628750">
        <ele>162.2</ele>
        <time>2021-05-20T14:28:08Z</time>
      </trkpt>
      <trkpt lat="42.2752210" lon="-8.6628820">
        <ele>162.2</ele>
        <time>2021-05-20T14:28:09Z</time>
      </trkpt>
      <trkpt lat="42.2752410" lon="-8.6628990">
        <ele>162.2</ele>
        <time>2021-05-20T14:28:10Z</time>
      </trkpt>
      <trkpt lat="42.2752480" lon="-8.6629080">
        <ele>162.2</ele>
        <time>2021-05-20T14:28:11Z</time>
      </trkpt>
      <trkpt lat="42.2752540" lon="-8.6629160">
        <ele>162.2</ele>
        <time>2021-05-20T14:28:12Z</time>
      </trkpt>
      <trkpt lat="42.2752720" lon="-8.6629210">
        <ele>162.3</ele>
        <time>2021-05-20T14:28:13Z</time>
      </trkpt>
      <trkpt lat="42.2752840" lon="-8.6629270">
        <ele>162.3</ele>
        <time>2021-05-20T14:28:14Z</time>
      </trkpt>
      <trkpt lat="42.2753050" lon="-8.6629360">
        <ele>162.3</ele>
        <time>2021-05-20T14:28:15Z</time>
      </trkpt>
      <trkpt lat="42.2753160" lon="-8.6629350">
        <ele>162.3</ele>
        <time>2021-05-20T14:28:16Z</time>
      </trkpt>
      <trkpt lat="42.2753360" lon="-8.6629430">
        <ele>162.4</ele>
        <time>2021-05-20T14:28:17Z</time>
      </trkpt>
      <trkpt lat="42.2753450" lon="-8.6629440">
        <ele>162.4</ele>
        <time>2021-05-20T14:28:18Z</time>
      </trkpt>
      <trkpt lat="42.2753540" lon="-8.6629440">
        <ele>162.4</ele>
        <time>2021-05-20T14:28:19Z</time>
      </trkpt>
      <trkpt lat="42.2753670" lon="-8.6629490">
        <ele>162.5</ele>
        <time>2021-05-20T14:28:20Z</time>
      </trkpt>
      <trkpt lat="42.2753820" lon="-8.6629420">
        <ele>162.5</ele>
        <time>2021-05-20T14:28:21Z</time>
      </trkpt>
      <trkpt lat="42.2753920" lon="-8.6629350">
        <ele>162.5</ele>
        <time>2021-05-20T14:28:22Z</time>
      </trkpt>
      <trkpt lat="42.2754080" lon="-8.6629250">
        <ele>162.6</ele>
        <time>2021-05-20T14:28:23Z</time>
      </trkpt>
      <trkpt lat="42.2754180" lon="-8.6629200">
        <ele>162.6</ele>
        <time>2021-05-20T14:28:24Z</time>
      </trkpt>
      <trkpt lat="42.2754260" lon="-8.6629150">
        <ele>162.6</ele>
        <time>2021-05-20T14:28:25Z</time>
      </trkpt>
      <trkpt lat="42.2754340" lon="-8.6629090">
        <ele>162.6</ele>
        <time>2021-05-20T14:28:26Z</time>
      </trkpt>
      <trkpt lat="42.2754420" lon="-8.6629040">
        <ele>162.7</ele>
        <time>2021-05-20T14:28:27Z</time>
      </trkpt>
      <trkpt lat="42.2754570" lon="-8.6629010">
        <ele>162.7</ele>
        <time>2021-05-20T14:28:28Z</time>
      </trkpt>
      <trkpt lat="42.2754670" lon="-8.6628940">
        <ele>162.7</ele>
        <time>2021-05-20T14:28:29Z</time>
      </trkpt>
      <trkpt lat="42.2754750" lon="-8.6628910">
        <ele>162.7</ele>
        <time>2021-05-20T14:28:30Z</time>
      </trkpt>
      <trkpt lat="42.2754900" lon="-8.6628800">
        <ele>162.8</ele>
        <time>2021-05-20T14:28:31Z</time>
      </trkpt>
      <trkpt lat="42.2755090" lon="-8.6628780">
        <ele>162.8</ele>
        <time>2021-05-20T14:28:32Z</time>
      </trkpt>
      <trkpt lat="42.2755210" lon="-8.6628650">
        <ele>162.8</ele>
        <time>2021-05-20T14:28:33Z</time>
      </trkpt>
      <trkpt lat="42.2755280" lon="-8.6628510">
        <ele>162.8</ele>
        <time>2021-05-20T14:28:34Z</time>
      </trkpt>
      <trkpt lat="42.2755390" lon="-8.6628470">
        <ele>162.9</ele>
        <time>2021-05-20T14:28:35Z</time>
      </trkpt>
      <trkpt lat="42.2755450" lon="-8.6628380">
        <ele>162.9</ele>
        <time>2021-05-20T14:28:36Z</time>
      </trkpt>
      <trkpt lat="42.2755600" lon="-8.6628330">
        <ele>162.9</ele>
        <time>2021-05-20T14:28:37Z</time>
      </trkpt>
      <trkpt lat="42.2755750" lon="-8.6628170">
        <ele>162.9</ele>
        <time>2021-05-20T14:28:38Z</time>
      </trkpt>
      <trkpt lat="42.2755860" lon="-8.6628120">
        <ele>162.9</ele>
        <time>2021-05-20T14:28:39Z</time>
      </trkpt>
      <trkpt lat="42.2755960" lon="-8.6628070">
        <ele>162.9</ele>
        <time>2021-05-20T14:28:40Z</time>
      </trkpt>
      <trkpt lat="42.2755990" lon="-8.6628010">
        <ele>162.9</ele>
        <time>2021-05-20T14:28:41Z</time>
      </trkpt>
      <trkpt lat="42.2756150" lon="-8.6627970">
        <ele>162.9</ele>
        <time>2021-05-20T14:28:42Z</time>
      </trkpt>
      <trkpt lat="42.2756270" lon="-8.6627900">
        <ele>162.9</ele>
        <time>2021-05-20T14:28:43Z</time>
      </trkpt>
      <trkpt lat="42.2756410" lon="-8.6627750">
        <ele>162.9</ele>
        <time>2021-05-20T14:28:45Z</time>
      </trkpt>
      <trkpt lat="42.2756470" lon="-8.6627700">
        <ele>162.9</ele>
        <time>2021-05-20T14:28:46Z</time>
      </trkpt>
      <trkpt lat="42.2756540" lon="-8.6627660">
        <ele>162.9</ele>
        <time>2021-05-20T14:28:47Z</time>
      </trkpt>
      <trkpt lat="42.2756600" lon="-8.6627610">
        <ele>162.9</ele>
        <time>2021-05-20T14:28:48Z</time>
      </trkpt>
      <trkpt lat="42.2756840" lon="-8.6627540">
        <ele>162.8</ele>
        <time>2021-05-20T14:28:49Z</time>
      </trkpt>
      <trkpt lat="42.2756910" lon="-8.6627520">
        <ele>162.8</ele>
        <time>2021-05-20T14:28:50Z</time>
      </trkpt>
      <trkpt lat="42.2756970" lon="-8.6627490">
        <ele>162.8</ele>
        <time>2021-05-20T14:28:51Z</time>
      </trkpt>
      <trkpt lat="42.2757090" lon="-8.6627520">
        <ele>162.8</ele>
        <time>2021-05-20T14:28:52Z</time>
      </trkpt>
      <trkpt lat="42.2757240" lon="-8.6627430">
        <ele>162.8</ele>
        <time>2021-05-20T14:28:53Z</time>
      </trkpt>
      <trkpt lat="42.2757380" lon="-8.6627450">
        <ele>162.8</ele>
        <time>2021-05-20T14:28:54Z</time>
      </trkpt>
      <trkpt lat="42.2757500" lon="-8.6627390">
        <ele>162.7</ele>
        <time>2021-05-20T14:28:55Z</time>
      </trkpt>
      <trkpt lat="42.2757580" lon="-8.6627390">
        <ele>162.7</ele>
        <time>2021-05-20T14:28:56Z</time>
      </trkpt>
      <trkpt lat="42.2757760" lon="-8.6627350">
        <ele>162.7</ele>
        <time>2021-05-20T14:28:57Z</time>
      </trkpt>
      <trkpt lat="42.2757920" lon="-8.6627390">
        <ele>162.6</ele>
        <time>2021-05-20T14:28:58Z</time>
      </trkpt>
      <trkpt lat="42.2757980" lon="-8.6627340">
        <ele>162.6</ele>
        <time>2021-05-20T14:28:59Z</time>
      </trkpt>
      <trkpt lat="42.2758090" lon="-8.6627300">
        <ele>162.6</ele>
        <time>2021-05-20T14:29:00Z</time>
      </trkpt>
      <trkpt lat="42.2758190" lon="-8.6627270">
        <ele>162.6</ele>
        <time>2021-05-20T14:29:01Z</time>
      </trkpt>
      <trkpt lat="42.2758300" lon="-8.6627230">
        <ele>162.6</ele>
        <time>2021-05-20T14:29:02Z</time>
      </trkpt>
      <trkpt lat="42.2758500" lon="-8.6627160">
        <ele>162.5</ele>
        <time>2021-05-20T14:29:03Z</time>
      </trkpt>
      <trkpt lat="42.2758580" lon="-8.6627100">
        <ele>162.5</ele>
        <time>2021-05-20T14:29:04Z</time>
      </trkpt>
      <trkpt lat="42.2758650" lon="-8.6627040">
        <ele>162.5</ele>
        <time>2021-05-20T14:29:05Z</time>
      </trkpt>
      <trkpt lat="42.2758910" lon="-8.6626940">
        <ele>162.4</ele>
        <time>2021-05-20T14:29:06Z</time>
      </trkpt>
      <trkpt lat="42.2759010" lon="-8.6626890">
        <ele>162.4</ele>
        <time>2021-05-20T14:29:07Z</time>
      </trkpt>
      <trkpt lat="42.2759130" lon="-8.6626740">
        <ele>162.4</ele>
        <time>2021-05-20T14:29:08Z</time>
      </trkpt>
      <trkpt lat="42.2759260" lon="-8.6626680">
        <ele>162.3</ele>
        <time>2021-05-20T14:29:09Z</time>
      </trkpt>
      <trkpt lat="42.2759420" lon="-8.6626560">
        <ele>162.3</ele>
        <time>2021-05-20T14:29:10Z</time>
      </trkpt>
      <trkpt lat="42.2759530" lon="-8.6626410">
        <ele>162.3</ele>
        <time>2021-05-20T14:29:11Z</time>
      </trkpt>
      <trkpt lat="42.2759670" lon="-8.6626310">
        <ele>162.2</ele>
        <time>2021-05-20T14:29:12Z</time>
      </trkpt>
      <trkpt lat="42.2759740" lon="-8.6626110">
        <ele>162.2</ele>
        <time>2021-05-20T14:29:13Z</time>
      </trkpt>
      <trkpt lat="42.2759830" lon="-8.6625870">
        <ele>162.1</ele>
        <time>2021-05-20T14:29:14Z</time>
      </trkpt>
      <trkpt lat="42.2759880" lon="-8.6625760">
        <ele>162.1</ele>
        <time>2021-05-20T14:29:15Z</time>
      </trkpt>
      <trkpt lat="42.2759940" lon="-8.6625640">
        <ele>162.1</ele>
        <time>2021-05-20T14:29:16Z</time>
      </trkpt>
      <trkpt lat="42.2760000" lon="-8.6625440">
        <ele>162.1</ele>
        <time>2021-05-20T14:29:17Z</time>
      </trkpt>
      <trkpt lat="42.2760090" lon="-8.6625290">
        <ele>162.0</ele>
        <time>2021-05-20T14:29:18Z</time>
      </trkpt>
      <trkpt lat="42.2760100" lon="-8.6625250">
        <ele>162.0</ele>
        <time>2021-05-20T14:29:19Z</time>
      </trkpt>
      <trkpt lat="42.2760170" lon="-8.6625120">
        <ele>162.0</ele>
        <time>2021-05-20T14:29:20Z</time>
      </trkpt>
      <trkpt lat="42.2760260" lon="-8.6624970">
        <ele>162.0</ele>
        <time>2021-05-20T14:29:21Z</time>
      </trkpt>
      <trkpt lat="42.2760370" lon="-8.6624720">
        <ele>161.9</ele>
        <time>2021-05-20T14:29:22Z</time>
      </trkpt>
      <trkpt lat="42.2760420" lon="-8.6624620">
        <ele>161.9</ele>
        <time>2021-05-20T14:29:23Z</time>
      </trkpt>
      <trkpt lat="42.2760460" lon="-8.6624530">
        <ele>161.9</ele>
        <time>2021-05-20T14:29:24Z</time>
      </trkpt>
      <trkpt lat="42.2760530" lon="-8.6624490">
        <ele>161.9</ele>
        <time>2021-05-20T14:29:25Z</time>
      </trkpt>
      <trkpt lat="42.2760620" lon="-8.6624380">
        <ele>161.9</ele>
        <time>2021-05-20T14:29:26Z</time>
      </trkpt>
      <trkpt lat="42.2760700" lon="-8.6624290">
        <ele>161.9</ele>
        <time>2021-05-20T14:29:27Z</time>
      </trkpt>
      <trkpt lat="42.2760740" lon="-8.6624140">
        <ele>161.8</ele>
        <time>2021-05-20T14:29:28Z</time>
      </trkpt>
      <trkpt lat="42.2760790" lon="-8.6624050">
        <ele>161.8</ele>
        <time>2021-05-20T14:29:29Z</time>
      </trkpt>
      <trkpt lat="42.2760890" lon="-8.6623900">
        <ele>161.8</ele>
        <time>2021-05-20T14:29:30Z</time>
      </trkpt>
      <trkpt lat="42.2760950" lon="-8.6623860">
        <ele>161.8</ele>
        <time>2021-05-20T14:29:31Z</time>
      </trkpt>
      <trkpt lat="42.2761080" lon="-8.6623720">
        <ele>161.8</ele>
        <time>2021-05-20T14:29:32Z</time>
      </trkpt>
      <trkpt lat="42.2761080" lon="-8.6623540">
        <ele>161.7</ele>
        <time>2021-05-20T14:29:33Z</time>
      </trkpt>
      <trkpt lat="42.2761130" lon="-8.6623370">
        <ele>161.7</ele>
        <time>2021-05-20T14:29:34Z</time>
      </trkpt>
      <trkpt lat="42.2761210" lon="-8.6623260">
        <ele>161.7</ele>
        <time>2021-05-20T14:29:35Z</time>
      </trkpt>
      <trkpt lat="42.2761290" lon="-8.6623140">
        <ele>161.7</ele>
        <time>2021-05-20T14:29:36Z</time>
      </trkpt>
      <trkpt lat="42.2761320" lon="-8.6623060">
        <ele>161.7</ele>
        <time>2021-05-20T14:29:37Z</time>
      </trkpt>
      <trkpt lat="42.2761460" lon="-8.6622900">
        <ele>161.6</ele>
        <time>2021-05-20T14:29:38Z</time>
      </trkpt>
      <trkpt lat="42.2761540" lon="-8.6622790">
        <ele>161.6</ele>
        <time>2021-05-20T14:29:39Z</time>
      </trkpt>
      <trkpt lat="42.2761640" lon="-8.6622610">
        <ele>161.6</ele>
        <time>2021-05-20T14:29:40Z</time>
      </trkpt>
      <trkpt lat="42.2761720" lon="-8.6622450">
        <ele>161.6</ele>
        <time>2021-05-20T14:29:41Z</time>
      </trkpt>
      <trkpt lat="42.2761810" lon="-8.6622320">
        <ele>161.6</ele>
        <time>2021-05-20T14:29:42Z</time>
      </trkpt>
      <trkpt lat="42.2761850" lon="-8.6622200">
        <ele>161.6</ele>
        <time>2021-05-20T14:29:43Z</time>
      </trkpt>
      <trkpt lat="42.2761890" lon="-8.6622070">
        <ele>161.6</ele>
        <time>2021-05-20T14:29:44Z</time>
      </trkpt>
      <trkpt lat="42.2761960" lon="-8.6621990">
        <ele>161.5</ele>
        <time>2021-05-20T14:29:45Z</time>
      </trkpt>
      <trkpt lat="42.2762070" lon="-8.6621830">
        <ele>161.5</ele>
        <time>2021-05-20T14:29:46Z</time>
      </trkpt>
      <trkpt lat="42.2762110" lon="-8.6621740">
        <ele>161.5</ele>
        <time>2021-05-20T14:29:47Z</time>
      </trkpt>
      <trkpt lat="42.2762250" lon="-8.6621520">
        <ele>161.5</ele>
        <time>2021-05-20T14:29:48Z</time>
      </trkpt>
      <trkpt lat="42.2762310" lon="-8.6621440">
        <ele>161.5</ele>
        <time>2021-05-20T14:29:49Z</time>
      </trkpt>
      <trkpt lat="42.2762360" lon="-8.6621350">
        <ele>161.5</ele>
        <time>2021-05-20T14:29:50Z</time>
      </trkpt>
      <trkpt lat="42.2762500" lon="-8.6621140">
        <ele>161.5</ele>
        <time>2021-05-20T14:29:51Z</time>
      </trkpt>
      <trkpt lat="42.2762540" lon="-8.6620990">
        <ele>161.5</ele>
        <time>2021-05-20T14:29:52Z</time>
      </trkpt>
      <trkpt lat="42.2762580" lon="-8.6620890">
        <ele>161.5</ele>
        <time>2021-05-20T14:29:53Z</time>
      </trkpt>
      <trkpt lat="42.2762710" lon="-8.6620820">
        <ele>161.5</ele>
        <time>2021-05-20T14:29:54Z</time>
      </trkpt>
      <trkpt lat="42.2762820" lon="-8.6620730">
        <ele>161.5</ele>
        <time>2021-05-20T14:29:55Z</time>
      </trkpt>
      <trkpt lat="42.2763000" lon="-8.6620460">
        <ele>161.5</ele>
        <time>2021-05-20T14:29:56Z</time>
      </trkpt>
      <trkpt lat="42.2763050" lon="-8.6620370">
        <ele>161.5</ele>
        <time>2021-05-20T14:29:57Z</time>
      </trkpt>
      <trkpt lat="42.2763100" lon="-8.6620270">
        <ele>161.5</ele>
        <time>2021-05-20T14:29:58Z</time>
      </trkpt>
      <trkpt lat="42.2763170" lon="-8.6620140">
        <ele>161.5</ele>
        <time>2021-05-20T14:29:59Z</time>
      </trkpt>
      <trkpt lat="42.2763340" lon="-8.6620080">
        <ele>161.6</ele>
        <time>2021-05-20T14:30:00Z</time>
      </trkpt>
      <trkpt lat="42.2763470" lon="-8.6619910">
        <ele>161.6</ele>
        <time>2021-05-20T14:30:01Z</time>
      </trkpt>
      <trkpt lat="42.2763510" lon="-8.6619830">
        <ele>161.6</ele>
        <time>2021-05-20T14:30:02Z</time>
      </trkpt>
      <trkpt lat="42.2763540" lon="-8.6619760">
        <ele>161.6</ele>
        <time>2021-05-20T14:30:03Z</time>
      </trkpt>
      <trkpt lat="42.2763580" lon="-8.6619680">
        <ele>161.6</ele>
        <time>2021-05-20T14:30:04Z</time>
      </trkpt>
      <trkpt lat="42.2763720" lon="-8.6619460">
        <ele>161.6</ele>
        <time>2021-05-20T14:30:05Z</time>
      </trkpt>
      <trkpt lat="42.2763750" lon="-8.6619290">
        <ele>161.6</ele>
        <time>2021-05-20T14:30:06Z</time>
      </trkpt>
      <trkpt lat="42.2763810" lon="-8.6619180">
        <ele>161.6</ele>
        <time>2021-05-20T14:30:07Z</time>
      </trkpt>
      <trkpt lat="42.2763890" lon="-8.6619050">
        <ele>161.6</ele>
        <time>2021-05-20T14:30:08Z</time>
      </trkpt>
      <trkpt lat="42.2763960" lon="-8.6618880">
        <ele>161.7</ele>
        <time>2021-05-20T14:30:09Z</time>
      </trkpt>
      <trkpt lat="42.2764060" lon="-8.6618780">
        <ele>161.7</ele>
        <time>2021-05-20T14:30:10Z</time>
      </trkpt>
      <trkpt lat="42.2764150" lon="-8.6618590">
        <ele>161.7</ele>
        <time>2021-05-20T14:30:11Z</time>
      </trkpt>
      <trkpt lat="42.2764250" lon="-8.6618510">
        <ele>161.7</ele>
        <time>2021-05-20T14:30:12Z</time>
      </trkpt>
      <trkpt lat="42.2764330" lon="-8.6618390">
        <ele>161.7</ele>
        <time>2021-05-20T14:30:13Z</time>
      </trkpt>
      <trkpt lat="42.2764420" lon="-8.6618270">
        <ele>161.7</ele>
        <time>2021-05-20T14:30:14Z</time>
      </trkpt>
      <trkpt lat="42.2764540" lon="-8.6618040">
        <ele>161.7</ele>
        <time>2021-05-20T14:30:15Z</time>
      </trkpt>
      <trkpt lat="42.2764590" lon="-8.6617950">
        <ele>161.8</ele>
        <time>2021-05-20T14:30:16Z</time>
      </trkpt>
      <trkpt lat="42.2764650" lon="-8.6617870">
        <ele>161.8</ele>
        <time>2021-05-20T14:30:17Z</time>
      </trkpt>
      <trkpt lat="42.2764730" lon="-8.6617760">
        <ele>161.8</ele>
        <time>2021-05-20T14:30:18Z</time>
      </trkpt>
      <trkpt lat="42.2764760" lon="-8.6617640">
        <ele>161.8</ele>
        <time>2021-05-20T14:30:19Z</time>
      </trkpt>
      <trkpt lat="42.2764900" lon="-8.6617420">
        <ele>161.8</ele>
        <time>2021-05-20T14:30:20Z</time>
      </trkpt>
      <trkpt lat="42.2764970" lon="-8.6617340">
        <ele>161.8</ele>
        <time>2021-05-20T14:30:21Z</time>
      </trkpt>
      <trkpt lat="42.2765030" lon="-8.6617250">
        <ele>161.8</ele>
        <time>2021-05-20T14:30:22Z</time>
      </trkpt>
      <trkpt lat="42.2765040" lon="-8.6617050">
        <ele>161.8</ele>
        <time>2021-05-20T14:30:23Z</time>
      </trkpt>
      <trkpt lat="42.2765130" lon="-8.6616880">
        <ele>161.8</ele>
        <time>2021-05-20T14:30:24Z</time>
      </trkpt>
      <trkpt lat="42.2765230" lon="-8.6616690">
        <ele>161.8</ele>
        <time>2021-05-20T14:30:25Z</time>
      </trkpt>
      <trkpt lat="42.2765330" lon="-8.6616560">
        <ele>161.9</ele>
        <time>2021-05-20T14:30:26Z</time>
      </trkpt>
      <trkpt lat="42.2765380" lon="-8.6616390">
        <ele>161.9</ele>
        <time>2021-05-20T14:30:27Z</time>
      </trkpt>
      <trkpt lat="42.2765400" lon="-8.6616280">
        <ele>161.9</ele>
        <time>2021-05-20T14:30:28Z</time>
      </trkpt>
      <trkpt lat="42.2765440" lon="-8.6616220">
        <ele>161.9</ele>
        <time>2021-05-20T14:30:29Z</time>
      </trkpt>
      <trkpt lat="42.2765510" lon="-8.6616010">
        <ele>161.9</ele>
        <time>2021-05-20T14:30:30Z</time>
      </trkpt>
      <trkpt lat="42.2765560" lon="-8.6615920">
        <ele>161.9</ele>
        <time>2021-05-20T14:30:31Z</time>
      </trkpt>
      <trkpt lat="42.2765600" lon="-8.6615820">
        <ele>161.9</ele>
        <time>2021-05-20T14:30:32Z</time>
      </trkpt>
      <trkpt lat="42.2765640" lon="-8.6615720">
        <ele>161.9</ele>
        <time>2021-05-20T14:30:33Z</time>
      </trkpt>
      <trkpt lat="42.2765860" lon="-8.6615490">
        <ele>161.9</ele>
        <time>2021-05-20T14:30:34Z</time>
      </trkpt>
      <trkpt lat="42.2765950" lon="-8.6615410">
        <ele>161.9</ele>
        <time>2021-05-20T14:30:35Z</time>
      </trkpt>
      <trkpt lat="42.2765860" lon="-8.6615390">
        <ele>161.9</ele>
        <time>2021-05-20T14:30:36Z</time>
      </trkpt>
      <trkpt lat="42.2765800" lon="-8.6615230">
        <ele>161.9</ele>
        <time>2021-05-20T14:30:37Z</time>
      </trkpt>
      <trkpt lat="42.2765840" lon="-8.6615070">
        <ele>161.9</ele>
        <time>2021-05-20T14:30:38Z</time>
      </trkpt>
      <trkpt lat="42.2765970" lon="-8.6614830">
        <ele>161.9</ele>
        <time>2021-05-20T14:30:39Z</time>
      </trkpt>
      <trkpt lat="42.2766010" lon="-8.6614660">
        <ele>161.9</ele>
        <time>2021-05-20T14:30:41Z</time>
      </trkpt>
      <trkpt lat="42.2766050" lon="-8.6614500">
        <ele>161.9</ele>
        <time>2021-05-20T14:30:42Z</time>
      </trkpt>
      <trkpt lat="42.2766160" lon="-8.6614300">
        <ele>161.9</ele>
        <time>2021-05-20T14:30:43Z</time>
      </trkpt>
      <trkpt lat="42.2766220" lon="-8.6614180">
        <ele>161.9</ele>
        <time>2021-05-20T14:30:44Z</time>
      </trkpt>
      <trkpt lat="42.2766270" lon="-8.6614060">
        <ele>161.9</ele>
        <time>2021-05-20T14:30:45Z</time>
      </trkpt>
      <trkpt lat="42.2766480" lon="-8.6613720">
        <ele>161.9</ele>
        <time>2021-05-20T14:30:46Z</time>
      </trkpt>
      <trkpt lat="42.2766540" lon="-8.6613640">
        <ele>161.9</ele>
        <time>2021-05-20T14:30:47Z</time>
      </trkpt>
      <trkpt lat="42.2766580" lon="-8.6613520">
        <ele>161.9</ele>
        <time>2021-05-20T14:30:48Z</time>
      </trkpt>
      <trkpt lat="42.2766580" lon="-8.6613230">
        <ele>161.9</ele>
        <time>2021-05-20T14:30:49Z</time>
      </trkpt>
      <trkpt lat="42.2766670" lon="-8.6612930">
        <ele>161.9</ele>
        <time>2021-05-20T14:30:50Z</time>
      </trkpt>
      <trkpt lat="42.2766700" lon="-8.6612830">
        <ele>161.9</ele>
        <time>2021-05-20T14:30:51Z</time>
      </trkpt>
      <trkpt lat="42.2766720" lon="-8.6612720">
        <ele>161.9</ele>
        <time>2021-05-20T14:30:52Z</time>
      </trkpt>
      <trkpt lat="42.2766790" lon="-8.6612580">
        <ele>161.9</ele>
        <time>2021-05-20T14:30:53Z</time>
      </trkpt>
      <trkpt lat="42.2766830" lon="-8.6612300">
        <ele>161.9</ele>
        <time>2021-05-20T14:30:54Z</time>
      </trkpt>
      <trkpt lat="42.2766890" lon="-8.6612240">
        <ele>161.9</ele>
        <time>2021-05-20T14:30:55Z</time>
      </trkpt>
      <trkpt lat="42.2767030" lon="-8.6612050">
        <ele>161.9</ele>
        <time>2021-05-20T14:30:56Z</time>
      </trkpt>
      <trkpt lat="42.2767140" lon="-8.6611980">
        <ele>161.9</ele>
        <time>2021-05-20T14:30:57Z</time>
      </trkpt>
      <trkpt lat="42.2767280" lon="-8.6611830">
        <ele>161.9</ele>
        <time>2021-05-20T14:30:58Z</time>
      </trkpt>
      <trkpt lat="42.2767380" lon="-8.6611730">
        <ele>161.9</ele>
        <time>2021-05-20T14:30:59Z</time>
      </trkpt>
      <trkpt lat="42.2767480" lon="-8.6611550">
        <ele>161.9</ele>
        <time>2021-05-20T14:31:00Z</time>
      </trkpt>
      <trkpt lat="42.2767720" lon="-8.6611410">
        <ele>161.9</ele>
        <time>2021-05-20T14:31:01Z</time>
      </trkpt>
      <trkpt lat="42.2767780" lon="-8.6611370">
        <ele>161.9</ele>
        <time>2021-05-20T14:31:02Z</time>
      </trkpt>
      <trkpt lat="42.2767930" lon="-8.6611120">
        <ele>161.8</ele>
        <time>2021-05-20T14:31:03Z</time>
      </trkpt>
      <trkpt lat="42.2767870" lon="-8.6610960">
        <ele>161.8</ele>
        <time>2021-05-20T14:31:04Z</time>
      </trkpt>
      <trkpt lat="42.2767890" lon="-8.6610740">
        <ele>161.8</ele>
        <time>2021-05-20T14:31:05Z</time>
      </trkpt>
      <trkpt lat="42.2768010" lon="-8.6610650">
        <ele>161.8</ele>
        <time>2021-05-20T14:31:06Z</time>
      </trkpt>
      <trkpt lat="42.2767990" lon="-8.6610550">
        <ele>161.8</ele>
        <time>2021-05-20T14:31:07Z</time>
      </trkpt>
      <trkpt lat="42.2768170" lon="-8.6610270">
        <ele>161.8</ele>
        <time>2021-05-20T14:31:08Z</time>
      </trkpt>
      <trkpt lat="42.2768270" lon="-8.6610210">
        <ele>161.8</ele>
        <time>2021-05-20T14:31:09Z</time>
      </trkpt>
      <trkpt lat="42.2768300" lon="-8.6610060">
        <ele>161.8</ele>
        <time>2021-05-20T14:31:10Z</time>
      </trkpt>
      <trkpt lat="42.2768480" lon="-8.6609910">
        <ele>161.7</ele>
        <time>2021-05-20T14:31:11Z</time>
      </trkpt>
      <trkpt lat="42.2768440" lon="-8.6609830">
        <ele>161.7</ele>
        <time>2021-05-20T14:31:12Z</time>
      </trkpt>
      <trkpt lat="42.2768490" lon="-8.6609740">
        <ele>161.7</ele>
        <time>2021-05-20T14:31:13Z</time>
      </trkpt>
      <trkpt lat="42.2768550" lon="-8.6609650">
        <ele>161.7</ele>
        <time>2021-05-20T14:31:14Z</time>
      </trkpt>
      <trkpt lat="42.2768600" lon="-8.6609560">
        <ele>161.7</ele>
        <time>2021-05-20T14:31:15Z</time>
      </trkpt>
      <trkpt lat="42.2768650" lon="-8.6609470">
        <ele>161.7</ele>
        <time>2021-05-20T14:31:16Z</time>
      </trkpt>
      <trkpt lat="42.2768740" lon="-8.6609300">
        <ele>161.7</ele>
        <time>2021-05-20T14:31:17Z</time>
      </trkpt>
      <trkpt lat="42.2768810" lon="-8.6609140">
        <ele>161.7</ele>
        <time>2021-05-20T14:31:18Z</time>
      </trkpt>
      <trkpt lat="42.2768770" lon="-8.6608990">
        <ele>161.7</ele>
        <time>2021-05-20T14:31:19Z</time>
      </trkpt>
      <trkpt lat="42.2768840" lon="-8.6608890">
        <ele>161.6</ele>
        <time>2021-05-20T14:31:20Z</time>
      </trkpt>
      <trkpt lat="42.2768910" lon="-8.6608780">
        <ele>161.6</ele>
        <time>2021-05-20T14:31:21Z</time>
      </trkpt>
      <trkpt lat="42.2768980" lon="-8.6608670">
        <ele>161.6</ele>
        <time>2021-05-20T14:31:22Z</time>
      </trkpt>
      <trkpt lat="42.2769100" lon="-8.6608470">
        <ele>161.6</ele>
        <time>2021-05-20T14:31:23Z</time>
      </trkpt>
      <trkpt lat="42.2769140" lon="-8.6608360">
        <ele>161.6</ele>
        <time>2021-05-20T14:31:24Z</time>
      </trkpt>
      <trkpt lat="42.2769170" lon="-8.6608240">
        <ele>161.6</ele>
        <time>2021-05-20T14:31:25Z</time>
      </trkpt>
      <trkpt lat="42.2769200" lon="-8.6608130">
        <ele>161.6</ele>
        <time>2021-05-20T14:31:26Z</time>
      </trkpt>
      <trkpt lat="42.2769240" lon="-8.6608060">
        <ele>161.6</ele>
        <time>2021-05-20T14:31:27Z</time>
      </trkpt>
      <trkpt lat="42.2769280" lon="-8.6607880">
        <ele>161.5</ele>
        <time>2021-05-20T14:31:28Z</time>
      </trkpt>
      <trkpt lat="42.2769350" lon="-8.6607780">
        <ele>161.5</ele>
        <time>2021-05-20T14:31:29Z</time>
      </trkpt>
      <trkpt lat="42.2769420" lon="-8.6607570">
        <ele>161.5</ele>
        <time>2021-05-20T14:31:30Z</time>
      </trkpt>
      <trkpt lat="42.2769460" lon="-8.6607420">
        <ele>161.5</ele>
        <time>2021-05-20T14:31:31Z</time>
      </trkpt>
      <trkpt lat="42.2769530" lon="-8.6607210">
        <ele>161.5</ele>
        <time>2021-05-20T14:31:32Z</time>
      </trkpt>
      <trkpt lat="42.2769540" lon="-8.6607180">
        <ele>161.5</ele>
        <time>2021-05-20T14:31:33Z</time>
      </trkpt>
      <trkpt lat="42.2769540" lon="-8.6607020">
        <ele>161.5</ele>
        <time>2021-05-20T14:31:34Z</time>
      </trkpt>
      <trkpt lat="42.2769610" lon="-8.6606870">
        <ele>161.5</ele>
        <time>2021-05-20T14:31:35Z</time>
      </trkpt>
      <trkpt lat="42.2769660" lon="-8.6606770">
        <ele>161.5</ele>
        <time>2021-05-20T14:31:36Z</time>
      </trkpt>
      <trkpt lat="42.2769700" lon="-8.6606660">
        <ele>161.5</ele>
        <time>2021-05-20T14:31:37Z</time>
      </trkpt>
      <trkpt lat="42.2769740" lon="-8.6606560">
        <ele>161.5</ele>
        <time>2021-05-20T14:31:38Z</time>
      </trkpt>
      <trkpt lat="42.2769840" lon="-8.6606390">
        <ele>161.5</ele>
        <time>2021-05-20T14:31:39Z</time>
      </trkpt>
      <trkpt lat="42.2769880" lon="-8.6606300">
        <ele>161.5</ele>
        <time>2021-05-20T14:31:40Z</time>
      </trkpt>
      <trkpt lat="42.2769910" lon="-8.6606200">
        <ele>161.5</ele>
        <time>2021-05-20T14:31:41Z</time>
      </trkpt>
      <trkpt lat="42.2769950" lon="-8.6606100">
        <ele>161.5</ele>
        <time>2021-05-20T14:31:42Z</time>
      </trkpt>
      <trkpt lat="42.2769980" lon="-8.6606080">
        <ele>161.5</ele>
        <time>2021-05-20T14:31:43Z</time>
      </trkpt>
      <trkpt lat="42.2770100" lon="-8.6605960">
        <ele>161.5</ele>
        <time>2021-05-20T14:31:44Z</time>
      </trkpt>
      <trkpt lat="42.2770160" lon="-8.6605800">
        <ele>161.5</ele>
        <time>2021-05-20T14:31:45Z</time>
      </trkpt>
      <trkpt lat="42.2770240" lon="-8.6605630">
        <ele>161.6</ele>
        <time>2021-05-20T14:31:46Z</time>
      </trkpt>
      <trkpt lat="42.2770320" lon="-8.6605520">
        <ele>161.6</ele>
        <time>2021-05-20T14:31:47Z</time>
      </trkpt>
      <trkpt lat="42.2770390" lon="-8.6605410">
        <ele>161.6</ele>
        <time>2021-05-20T14:31:48Z</time>
      </trkpt>
      <trkpt lat="42.2770500" lon="-8.6605280">
        <ele>161.6</ele>
        <time>2021-05-20T14:31:49Z</time>
      </trkpt>
      <trkpt lat="42.2770550" lon="-8.6605090">
        <ele>161.6</ele>
        <time>2021-05-20T14:31:50Z</time>
      </trkpt>
      <trkpt lat="42.2770610" lon="-8.6604810">
        <ele>161.7</ele>
        <time>2021-05-20T14:31:51Z</time>
      </trkpt>
      <trkpt lat="42.2770610" lon="-8.6604680">
        <ele>161.7</ele>
        <time>2021-05-20T14:31:52Z</time>
      </trkpt>
      <trkpt lat="42.2770620" lon="-8.6604560">
        <ele>161.7</ele>
        <time>2021-05-20T14:31:53Z</time>
      </trkpt>
      <trkpt lat="42.2770680" lon="-8.6604330">
        <ele>161.7</ele>
        <time>2021-05-20T14:31:54Z</time>
      </trkpt>
      <trkpt lat="42.2770710" lon="-8.6604150">
        <ele>161.8</ele>
        <time>2021-05-20T14:31:55Z</time>
      </trkpt>
      <trkpt lat="42.2770650" lon="-8.6603920">
        <ele>161.8</ele>
        <time>2021-05-20T14:31:56Z</time>
      </trkpt>
      <trkpt lat="42.2770630" lon="-8.6603730">
        <ele>161.8</ele>
        <time>2021-05-20T14:31:57Z</time>
      </trkpt>
      <trkpt lat="42.2770670" lon="-8.6603310">
        <ele>161.9</ele>
        <time>2021-05-20T14:31:58Z</time>
      </trkpt>
      <trkpt lat="42.2770780" lon="-8.6603170">
        <ele>162.0</ele>
        <time>2021-05-20T14:31:59Z</time>
      </trkpt>
      <trkpt lat="42.2770810" lon="-8.6603120">
        <ele>162.0</ele>
        <time>2021-05-20T14:32:00Z</time>
      </trkpt>
      <trkpt lat="42.2770730" lon="-8.6602920">
        <ele>162.0</ele>
        <time>2021-05-20T14:32:01Z</time>
      </trkpt>
      <trkpt lat="42.2770690" lon="-8.6602760">
        <ele>162.1</ele>
        <time>2021-05-20T14:32:02Z</time>
      </trkpt>
      <trkpt lat="42.2770690" lon="-8.6602580">
        <ele>162.1</ele>
        <time>2021-05-20T14:32:03Z</time>
      </trkpt>
      <trkpt lat="42.2770690" lon="-8.6602390">
        <ele>162.1</ele>
        <time>2021-05-20T14:32:04Z</time>
      </trkpt>
      <trkpt lat="42.2770640" lon="-8.6602120">
        <ele>162.2</ele>
        <time>2021-05-20T14:32:05Z</time>
      </trkpt>
      <trkpt lat="42.2770600" lon="-8.6602000">
        <ele>162.2</ele>
        <time>2021-05-20T14:32:06Z</time>
      </trkpt>
      <trkpt lat="42.2770570" lon="-8.6601870">
        <ele>162.2</ele>
        <time>2021-05-20T14:32:07Z</time>
      </trkpt>
      <trkpt lat="42.2770690" lon="-8.6601560">
        <ele>162.3</ele>
        <time>2021-05-20T14:32:08Z</time>
      </trkpt>
      <trkpt lat="42.2770680" lon="-8.6601380">
        <ele>162.3</ele>
        <time>2021-05-20T14:32:09Z</time>
      </trkpt>
      <trkpt lat="42.2770660" lon="-8.6601210">
        <ele>162.4</ele>
        <time>2021-05-20T14:32:10Z</time>
      </trkpt>
      <trkpt lat="42.2770640" lon="-8.6601040">
        <ele>162.4</ele>
        <time>2021-05-20T14:32:11Z</time>
      </trkpt>
      <trkpt lat="42.2770780" lon="-8.6600660">
        <ele>162.4</ele>
        <time>2021-05-20T14:32:12Z</time>
      </trkpt>
      <trkpt lat="42.2770770" lon="-8.6600560">
        <ele>162.4</ele>
        <time>2021-05-20T14:32:13Z</time>
      </trkpt>
      <trkpt lat="42.2770850" lon="-8.6600430">
        <ele>162.4</ele>
        <time>2021-05-20T14:32:14Z</time>
      </trkpt>
      <trkpt lat="42.2770980" lon="-8.6600190">
        <ele>162.4</ele>
        <time>2021-05-20T14:32:15Z</time>
      </trkpt>
      <trkpt lat="42.2771040" lon="-8.6599960">
        <ele>162.4</ele>
        <time>2021-05-20T14:32:16Z</time>
      </trkpt>
      <trkpt lat="42.2771090" lon="-8.6599730">
        <ele>162.4</ele>
        <time>2021-05-20T14:32:17Z</time>
      </trkpt>
      <trkpt lat="42.2771090" lon="-8.6599400">
        <ele>162.4</ele>
        <time>2021-05-20T14:32:18Z</time>
      </trkpt>
      <trkpt lat="42.2771090" lon="-8.6599230">
        <ele>162.4</ele>
        <time>2021-05-20T14:32:19Z</time>
      </trkpt>
      <trkpt lat="42.2771140" lon="-8.6599100">
        <ele>162.4</ele>
        <time>2021-05-20T14:32:20Z</time>
      </trkpt>
      <trkpt lat="42.2771170" lon="-8.6599010">
        <ele>162.4</ele>
        <time>2021-05-20T14:32:21Z</time>
      </trkpt>
      <trkpt lat="42.2771070" lon="-8.6598860">
        <ele>162.4</ele>
        <time>2021-05-20T14:32:22Z</time>
      </trkpt>
      <trkpt lat="42.2770930" lon="-8.6598690">
        <ele>162.4</ele>
        <time>2021-05-20T14:32:23Z</time>
      </trkpt>
      <trkpt lat="42.2770910" lon="-8.6598540">
        <ele>162.4</ele>
        <time>2021-05-20T14:32:24Z</time>
      </trkpt>
      <trkpt lat="42.2770970" lon="-8.6598420">
        <ele>162.4</ele>
        <time>2021-05-20T14:32:25Z</time>
      </trkpt>
      <trkpt lat="42.2770970" lon="-8.6598200">
        <ele>162.4</ele>
        <time>2021-05-20T14:32:26Z</time>
      </trkpt>
      <trkpt lat="42.2771020" lon="-8.6598080">
        <ele>162.4</ele>
        <time>2021-05-20T14:32:27Z</time>
      </trkpt>
      <trkpt lat="42.2770920" lon="-8.6597720">
        <ele>162.4</ele>
        <time>2021-05-20T14:32:28Z</time>
      </trkpt>
      <trkpt lat="42.2770870" lon="-8.6597600">
        <ele>162.4</ele>
        <time>2021-05-20T14:32:29Z</time>
      </trkpt>
      <trkpt lat="42.2770850" lon="-8.6597370">
        <ele>162.4</ele>
        <time>2021-05-20T14:32:30Z</time>
      </trkpt>
      <trkpt lat="42.2770810" lon="-8.6597240">
        <ele>162.5</ele>
        <time>2021-05-20T14:32:31Z</time>
      </trkpt>
      <trkpt lat="42.2770780" lon="-8.6597120">
        <ele>162.5</ele>
        <time>2021-05-20T14:32:32Z</time>
      </trkpt>
      <trkpt lat="42.2770780" lon="-8.6596940">
        <ele>162.5</ele>
        <time>2021-05-20T14:32:33Z</time>
      </trkpt>
      <trkpt lat="42.2770840" lon="-8.6596880">
        <ele>162.5</ele>
        <time>2021-05-20T14:32:34Z</time>
      </trkpt>
      <trkpt lat="42.2770810" lon="-8.6596730">
        <ele>162.5</ele>
        <time>2021-05-20T14:32:35Z</time>
      </trkpt>
      <trkpt lat="42.2770820" lon="-8.6596470">
        <ele>162.5</ele>
        <time>2021-05-20T14:32:36Z</time>
      </trkpt>
      <trkpt lat="42.2770710" lon="-8.6596270">
        <ele>162.5</ele>
        <time>2021-05-20T14:32:37Z</time>
      </trkpt>
      <trkpt lat="42.2770670" lon="-8.6596100">
        <ele>162.5</ele>
        <time>2021-05-20T14:32:38Z</time>
      </trkpt>
      <trkpt lat="42.2770640" lon="-8.6595910">
        <ele>162.5</ele>
        <time>2021-05-20T14:32:39Z</time>
      </trkpt>
      <trkpt lat="42.2770710" lon="-8.6595650">
        <ele>162.5</ele>
        <time>2021-05-20T14:32:40Z</time>
      </trkpt>
      <trkpt lat="42.2770750" lon="-8.6595540">
        <ele>162.5</ele>
        <time>2021-05-20T14:32:42Z</time>
      </trkpt>
      <trkpt lat="42.2770790" lon="-8.6595420">
        <ele>162.5</ele>
        <time>2021-05-20T14:32:43Z</time>
      </trkpt>
      <trkpt lat="42.2770780" lon="-8.6595220">
        <ele>162.5</ele>
        <time>2021-05-20T14:32:44Z</time>
      </trkpt>
      <trkpt lat="42.2770760" lon="-8.6595090">
        <ele>162.5</ele>
        <time>2021-05-20T14:32:45Z</time>
      </trkpt>
      <trkpt lat="42.2770720" lon="-8.6594950">
        <ele>162.5</ele>
        <time>2021-05-20T14:32:46Z</time>
      </trkpt>
      <trkpt lat="42.2770630" lon="-8.6594770">
        <ele>162.5</ele>
        <time>2021-05-20T14:32:47Z</time>
      </trkpt>
      <trkpt lat="42.2770620" lon="-8.6594580">
        <ele>162.5</ele>
        <time>2021-05-20T14:32:48Z</time>
      </trkpt>
      <trkpt lat="42.2770540" lon="-8.6594360">
        <ele>162.5</ele>
        <time>2021-05-20T14:32:49Z</time>
      </trkpt>
      <trkpt lat="42.2770540" lon="-8.6594200">
        <ele>162.5</ele>
        <time>2021-05-20T14:32:50Z</time>
      </trkpt>
      <trkpt lat="42.2770580" lon="-8.6593920">
        <ele>162.5</ele>
        <time>2021-05-20T14:32:51Z</time>
      </trkpt>
      <trkpt lat="42.2770590" lon="-8.6593810">
        <ele>162.5</ele>
        <time>2021-05-20T14:32:52Z</time>
      </trkpt>
      <trkpt lat="42.2770590" lon="-8.6593690">
        <ele>162.5</ele>
        <time>2021-05-20T14:32:53Z</time>
      </trkpt>
      <trkpt lat="42.2770560" lon="-8.6593510">
        <ele>162.5</ele>
        <time>2021-05-20T14:32:54Z</time>
      </trkpt>
      <trkpt lat="42.2770500" lon="-8.6593370">
        <ele>162.5</ele>
        <time>2021-05-20T14:32:55Z</time>
      </trkpt>
      <trkpt lat="42.2770480" lon="-8.6593230">
        <ele>162.5</ele>
        <time>2021-05-20T14:32:56Z</time>
      </trkpt>
      <trkpt lat="42.2770420" lon="-8.6592970">
        <ele>162.6</ele>
        <time>2021-05-20T14:32:57Z</time>
      </trkpt>
      <trkpt lat="42.2770440" lon="-8.6592860">
        <ele>162.6</ele>
        <time>2021-05-20T14:32:58Z</time>
      </trkpt>
      <trkpt lat="42.2770360" lon="-8.6592650">
        <ele>162.6</ele>
        <time>2021-05-20T14:32:59Z</time>
      </trkpt>
      <trkpt lat="42.2770290" lon="-8.6592490">
        <ele>162.6</ele>
        <time>2021-05-20T14:33:00Z</time>
      </trkpt>
      <trkpt lat="42.2770290" lon="-8.6592210">
        <ele>162.6</ele>
        <time>2021-05-20T14:33:01Z</time>
      </trkpt>
      <trkpt lat="42.2770280" lon="-8.6592090">
        <ele>162.6</ele>
        <time>2021-05-20T14:33:02Z</time>
      </trkpt>
      <trkpt lat="42.2770280" lon="-8.6591980">
        <ele>162.6</ele>
        <time>2021-05-20T14:33:03Z</time>
      </trkpt>
      <trkpt lat="42.2770240" lon="-8.6591810">
        <ele>162.6</ele>
        <time>2021-05-20T14:33:04Z</time>
      </trkpt>
      <trkpt lat="42.2770200" lon="-8.6591580">
        <ele>162.6</ele>
        <time>2021-05-20T14:33:05Z</time>
      </trkpt>
      <trkpt lat="42.2770240" lon="-8.6591410">
        <ele>162.6</ele>
        <time>2021-05-20T14:33:06Z</time>
      </trkpt>
      <trkpt lat="42.2770260" lon="-8.6591270">
        <ele>162.6</ele>
        <time>2021-05-20T14:33:07Z</time>
      </trkpt>
      <trkpt lat="42.2770230" lon="-8.6591160">
        <ele>162.7</ele>
        <time>2021-05-20T14:33:08Z</time>
      </trkpt>
      <trkpt lat="42.2770240" lon="-8.6590830">
        <ele>162.7</ele>
        <time>2021-05-20T14:33:09Z</time>
      </trkpt>
      <trkpt lat="42.2770250" lon="-8.6590750">
        <ele>162.7</ele>
        <time>2021-05-20T14:33:10Z</time>
      </trkpt>
      <trkpt lat="42.2770270" lon="-8.6590660">
        <ele>162.7</ele>
        <time>2021-05-20T14:33:11Z</time>
      </trkpt>
      <trkpt lat="42.2770250" lon="-8.6590500">
        <ele>162.7</ele>
        <time>2021-05-20T14:33:12Z</time>
      </trkpt>
      <trkpt lat="42.2770250" lon="-8.6590320">
        <ele>162.7</ele>
        <time>2021-05-20T14:33:13Z</time>
      </trkpt>
      <trkpt lat="42.2770270" lon="-8.6590190">
        <ele>162.7</ele>
        <time>2021-05-20T14:33:14Z</time>
      </trkpt>
      <trkpt lat="42.2770180" lon="-8.6589940">
        <ele>162.7</ele>
        <time>2021-05-20T14:33:15Z</time>
      </trkpt>
      <trkpt lat="42.2770130" lon="-8.6589850">
        <ele>162.7</ele>
        <time>2021-05-20T14:33:16Z</time>
      </trkpt>
      <trkpt lat="42.2770090" lon="-8.6589770">
        <ele>162.7</ele>
        <time>2021-05-20T14:33:17Z</time>
      </trkpt>
      <trkpt lat="42.2770110" lon="-8.6589610">
        <ele>162.7</ele>
        <time>2021-05-20T14:33:18Z</time>
      </trkpt>
      <trkpt lat="42.2770020" lon="-8.6589370">
        <ele>162.7</ele>
        <time>2021-05-20T14:33:19Z</time>
      </trkpt>
      <trkpt lat="42.2770000" lon="-8.6589220">
        <ele>162.7</ele>
        <time>2021-05-20T14:33:20Z</time>
      </trkpt>
      <trkpt lat="42.2769950" lon="-8.6588990">
        <ele>162.7</ele>
        <time>2021-05-20T14:33:21Z</time>
      </trkpt>
      <trkpt lat="42.2769980" lon="-8.6588750">
        <ele>162.7</ele>
        <time>2021-05-20T14:33:22Z</time>
      </trkpt>
      <trkpt lat="42.2769990" lon="-8.6588620">
        <ele>162.7</ele>
        <time>2021-05-20T14:33:23Z</time>
      </trkpt>
      <trkpt lat="42.2769990" lon="-8.6588500">
        <ele>162.7</ele>
        <time>2021-05-20T14:33:24Z</time>
      </trkpt>
      <trkpt lat="42.2769950" lon="-8.6588420">
        <ele>162.7</ele>
        <time>2021-05-20T14:33:25Z</time>
      </trkpt>
      <trkpt lat="42.2769970" lon="-8.6588310">
        <ele>162.7</ele>
        <time>2021-05-20T14:33:26Z</time>
      </trkpt>
      <trkpt lat="42.2770010" lon="-8.6588150">
        <ele>162.7</ele>
        <time>2021-05-20T14:33:27Z</time>
      </trkpt>
      <trkpt lat="42.2770060" lon="-8.6588060">
        <ele>162.7</ele>
        <time>2021-05-20T14:33:28Z</time>
      </trkpt>
      <trkpt lat="42.2770040" lon="-8.6587860">
        <ele>162.7</ele>
        <time>2021-05-20T14:33:29Z</time>
      </trkpt>
      <trkpt lat="42.2769910" lon="-8.6587640">
        <ele>162.7</ele>
        <time>2021-05-20T14:33:30Z</time>
      </trkpt>
      <trkpt lat="42.2769870" lon="-8.6587590">
        <ele>162.7</ele>
        <time>2021-05-20T14:33:31Z</time>
      </trkpt>
      <trkpt lat="42.2769900" lon="-8.6587440">
        <ele>162.7</ele>
        <time>2021-05-20T14:33:32Z</time>
      </trkpt>
      <trkpt lat="42.2769800" lon="-8.6587290">
        <ele>162.7</ele>
        <time>2021-05-20T14:33:33Z</time>
      </trkpt>
      <trkpt lat="42.2769990" lon="-8.6586900">
        <ele>162.7</ele>
        <time>2021-05-20T14:33:34Z</time>
      </trkpt>
      <trkpt lat="42.2770020" lon="-8.6586760">
        <ele>162.7</ele>
        <time>2021-05-20T14:33:35Z</time>
      </trkpt>
      <trkpt lat="42.2770070" lon="-8.6586560">
        <ele>162.6</ele>
        <time>2021-05-20T14:33:36Z</time>
      </trkpt>
      <trkpt lat="42.2770070" lon="-8.6586290">
        <ele>162.6</ele>
        <time>2021-05-20T14:33:37Z</time>
      </trkpt>
      <trkpt lat="42.2769960" lon="-8.6586010">
        <ele>162.6</ele>
        <time>2021-05-20T14:33:38Z</time>
      </trkpt>
      <trkpt lat="42.2769920" lon="-8.6585860">
        <ele>162.6</ele>
        <time>2021-05-20T14:33:39Z</time>
      </trkpt>
      <trkpt lat="42.2769870" lon="-8.6585700">
        <ele>162.6</ele>
        <time>2021-05-20T14:33:40Z</time>
      </trkpt>
      <trkpt lat="42.2769930" lon="-8.6585600">
        <ele>162.6</ele>
        <time>2021-05-20T14:33:41Z</time>
      </trkpt>
      <trkpt lat="42.2769930" lon="-8.6585460">
        <ele>162.6</ele>
        <time>2021-05-20T14:33:42Z</time>
      </trkpt>
      <trkpt lat="42.2769940" lon="-8.6585330">
        <ele>162.6</ele>
        <time>2021-05-20T14:33:43Z</time>
      </trkpt>
      <trkpt lat="42.2769940" lon="-8.6585190">
        <ele>162.6</ele>
        <time>2021-05-20T14:33:44Z</time>
      </trkpt>
      <trkpt lat="42.2769970" lon="-8.6585010">
        <ele>162.6</ele>
        <time>2021-05-20T14:33:45Z</time>
      </trkpt>
      <trkpt lat="42.2769930" lon="-8.6584820">
        <ele>162.6</ele>
        <time>2021-05-20T14:33:46Z</time>
      </trkpt>
      <trkpt lat="42.2769960" lon="-8.6584630">
        <ele>162.6</ele>
        <time>2021-05-20T14:33:47Z</time>
      </trkpt>
      <trkpt lat="42.2769930" lon="-8.6584340">
        <ele>162.6</ele>
        <time>2021-05-20T14:33:48Z</time>
      </trkpt>
      <trkpt lat="42.2769970" lon="-8.6584230">
        <ele>162.6</ele>
        <time>2021-05-20T14:33:49Z</time>
      </trkpt>
      <trkpt lat="42.2770040" lon="-8.6584100">
        <ele>162.6</ele>
        <time>2021-05-20T14:33:50Z</time>
      </trkpt>
      <trkpt lat="42.2770000" lon="-8.6583910">
        <ele>162.6</ele>
        <time>2021-05-20T14:33:51Z</time>
      </trkpt>
      <trkpt lat="42.2770060" lon="-8.6583710">
        <ele>162.6</ele>
        <time>2021-05-20T14:33:52Z</time>
      </trkpt>
      <trkpt lat="42.2770000" lon="-8.6583520">
        <ele>162.6</ele>
        <time>2021-05-20T14:33:53Z</time>
      </trkpt>
      <trkpt lat="42.2769970" lon="-8.6583250">
        <ele>162.6</ele>
        <time>2021-05-20T14:33:54Z</time>
      </trkpt>
      <trkpt lat="42.2769940" lon="-8.6583240">
        <ele>162.6</ele>
        <time>2021-05-20T14:33:55Z</time>
      </trkpt>
      <trkpt lat="42.2769940" lon="-8.6583040">
        <ele>162.6</ele>
        <time>2021-05-20T14:33:56Z</time>
      </trkpt>
      <trkpt lat="42.2769970" lon="-8.6582790">
        <ele>162.6</ele>
        <time>2021-05-20T14:33:57Z</time>
      </trkpt>
      <trkpt lat="42.2770000" lon="-8.6582670">
        <ele>162.6</ele>
        <time>2021-05-20T14:33:58Z</time>
      </trkpt>
      <trkpt lat="42.2770040" lon="-8.6582550">
        <ele>162.6</ele>
        <time>2021-05-20T14:33:59Z</time>
      </trkpt>
      <trkpt lat="42.2769980" lon="-8.6582450">
        <ele>162.6</ele>
        <time>2021-05-20T14:34:00Z</time>
      </trkpt>
      <trkpt lat="42.2769930" lon="-8.6582260">
        <ele>162.6</ele>
        <time>2021-05-20T14:34:01Z</time>
      </trkpt>
      <trkpt lat="42.2769900" lon="-8.6582140">
        <ele>162.6</ele>
        <time>2021-05-20T14:34:02Z</time>
      </trkpt>
      <trkpt lat="42.2769930" lon="-8.6582040">
        <ele>162.6</ele>
        <time>2021-05-20T14:34:03Z</time>
      </trkpt>
      <trkpt lat="42.2769930" lon="-8.6581910">
        <ele>162.6</ele>
        <time>2021-05-20T14:34:04Z</time>
      </trkpt>
      <trkpt lat="42.2769900" lon="-8.6581720">
        <ele>162.6</ele>
        <time>2021-05-20T14:34:05Z</time>
      </trkpt>
      <trkpt lat="42.2769880" lon="-8.6581270">
        <ele>162.6</ele>
        <time>2021-05-20T14:34:06Z</time>
      </trkpt>
      <trkpt lat="42.2769830" lon="-8.6581150">
        <ele>162.6</ele>
        <time>2021-05-20T14:34:07Z</time>
      </trkpt>
      <trkpt lat="42.2769800" lon="-8.6580990">
        <ele>162.6</ele>
        <time>2021-05-20T14:34:08Z</time>
      </trkpt>
      <trkpt lat="42.2769820" lon="-8.6580870">
        <ele>162.6</ele>
        <time>2021-05-20T14:34:09Z</time>
      </trkpt>
      <trkpt lat="42.2769870" lon="-8.6580820">
        <ele>162.6</ele>
        <time>2021-05-20T14:34:10Z</time>
      </trkpt>
      <trkpt lat="42.2769800" lon="-8.6580670">
        <ele>162.6</ele>
        <time>2021-05-20T14:34:11Z</time>
      </trkpt>
      <trkpt lat="42.2769810" lon="-8.6580410">
        <ele>162.6</ele>
        <time>2021-05-20T14:34:12Z</time>
      </trkpt>
      <trkpt lat="42.2769810" lon="-8.6580280">
        <ele>162.6</ele>
        <time>2021-05-20T14:34:13Z</time>
      </trkpt>
      <trkpt lat="42.2769820" lon="-8.6580160">
        <ele>162.6</ele>
        <time>2021-05-20T14:34:14Z</time>
      </trkpt>
      <trkpt lat="42.2769920" lon="-8.6579810">
        <ele>162.6</ele>
        <time>2021-05-20T14:34:15Z</time>
      </trkpt>
      <trkpt lat="42.2769980" lon="-8.6579610">
        <ele>162.6</ele>
        <time>2021-05-20T14:34:16Z</time>
      </trkpt>
      <trkpt lat="42.2770030" lon="-8.6579410">
        <ele>162.6</ele>
        <time>2021-05-20T14:34:17Z</time>
      </trkpt>
      <trkpt lat="42.2770020" lon="-8.6579170">
        <ele>162.6</ele>
        <time>2021-05-20T14:34:18Z</time>
      </trkpt>
      <trkpt lat="42.2770000" lon="-8.6579080">
        <ele>162.6</ele>
        <time>2021-05-20T14:34:19Z</time>
      </trkpt>
      <trkpt lat="42.2769930" lon="-8.6578890">
        <ele>162.5</ele>
        <time>2021-05-20T14:34:20Z</time>
      </trkpt>
      <trkpt lat="42.2769920" lon="-8.6578800">
        <ele>162.5</ele>
        <time>2021-05-20T14:34:21Z</time>
      </trkpt>
      <trkpt lat="42.2769900" lon="-8.6578710">
        <ele>162.5</ele>
        <time>2021-05-20T14:34:23Z</time>
      </trkpt>
      <trkpt lat="42.2769880" lon="-8.6578620">
        <ele>162.5</ele>
        <time>2021-05-20T14:34:24Z</time>
      </trkpt>
      <trkpt lat="42.2769730" lon="-8.6578200">
        <ele>162.5</ele>
        <time>2021-05-20T14:34:25Z</time>
      </trkpt>
      <trkpt lat="42.2769850" lon="-8.6577900">
        <ele>162.5</ele>
        <time>2021-05-20T14:34:27Z</time>
      </trkpt>
      <trkpt lat="42.2770020" lon="-8.6577600">
        <ele>162.5</ele>
        <time>2021-05-20T14:34:29Z</time>
      </trkpt>
      <trkpt lat="42.2769990" lon="-8.6577350">
        <ele>162.5</ele>
        <time>2021-05-20T14:34:30Z</time>
      </trkpt>
      <trkpt lat="42.2770090" lon="-8.6577200">
        <ele>162.4</ele>
        <time>2021-05-20T14:34:31Z</time>
      </trkpt>
      <trkpt lat="42.2770000" lon="-8.6577000">
        <ele>162.4</ele>
        <time>2021-05-20T14:34:32Z</time>
      </trkpt>
      <trkpt lat="42.2770050" lon="-8.6576950">
        <ele>162.4</ele>
        <time>2021-05-20T14:34:33Z</time>
      </trkpt>
      <trkpt lat="42.2770030" lon="-8.6576790">
        <ele>162.4</ele>
        <time>2021-05-20T14:34:34Z</time>
      </trkpt>
      <trkpt lat="42.2770080" lon="-8.6576620">
        <ele>162.4</ele>
        <time>2021-05-20T14:34:35Z</time>
      </trkpt>
      <trkpt lat="42.2770150" lon="-8.6576540">
        <ele>162.4</ele>
        <time>2021-05-20T14:34:36Z</time>
      </trkpt>
      <trkpt lat="42.2770150" lon="-8.6576530">
        <ele>162.4</ele>
        <time>2021-05-20T14:34:37Z</time>
      </trkpt>
      <trkpt lat="42.2770190" lon="-8.6576480">
        <ele>162.4</ele>
        <time>2021-05-20T14:34:38Z</time>
      </trkpt>
      <trkpt lat="42.2770280" lon="-8.6576390">
        <ele>162.4</ele>
        <time>2021-05-20T14:34:39Z</time>
      </trkpt>
      <trkpt lat="42.2770340" lon="-8.6576310">
        <ele>162.3</ele>
        <time>2021-05-20T14:34:40Z</time>
      </trkpt>
      <trkpt lat="42.2770340" lon="-8.6576200">
        <ele>162.3</ele>
        <time>2021-05-20T14:34:41Z</time>
      </trkpt>
      <trkpt lat="42.2770320" lon="-8.6576180">
        <ele>162.3</ele>
        <time>2021-05-20T14:34:42Z</time>
      </trkpt>
      <trkpt lat="42.2770340" lon="-8.6576190">
        <ele>162.3</ele>
        <time>2021-05-20T14:34:43Z</time>
      </trkpt>
      <trkpt lat="42.2770380" lon="-8.6576190">
        <ele>162.3</ele>
        <time>2021-05-20T14:34:44Z</time>
      </trkpt>
      <trkpt lat="42.2770360" lon="-8.6576290">
        <ele>162.3</ele>
        <time>2021-05-20T14:34:45Z</time>
      </trkpt>
      <trkpt lat="42.2770420" lon="-8.6576310">
        <ele>162.3</ele>
        <time>2021-05-20T14:34:46Z</time>
      </trkpt>
      <trkpt lat="42.2770410" lon="-8.6576420">
        <ele>162.3</ele>
        <time>2021-05-20T14:34:47Z</time>
      </trkpt>
      <trkpt lat="42.2770470" lon="-8.6576480">
        <ele>162.3</ele>
        <time>2021-05-20T14:34:48Z</time>
      </trkpt>
      <trkpt lat="42.2770440" lon="-8.6576470">
        <ele>162.3</ele>
        <time>2021-05-20T14:34:49Z</time>
      </trkpt>
      <trkpt lat="42.2770410" lon="-8.6576470">
        <ele>162.3</ele>
        <time>2021-05-20T14:34:51Z</time>
      </trkpt>
      <trkpt lat="42.2770450" lon="-8.6576540">
        <ele>162.3</ele>
        <time>2021-05-20T14:34:52Z</time>
      </trkpt>
      <trkpt lat="42.2770450" lon="-8.6576540">
        <ele>162.3</ele>
        <time>2021-05-20T14:34:53Z</time>
      </trkpt>
      <trkpt lat="42.2770550" lon="-8.6576560">
        <ele>162.3</ele>
        <time>2021-05-20T14:34:54Z</time>
      </trkpt>
      <trkpt lat="42.2770560" lon="-8.6576570">
        <ele>162.2</ele>
        <time>2021-05-20T14:34:55Z</time>
      </trkpt>
      <trkpt lat="42.2770590" lon="-8.6576570">
        <ele>162.2</ele>
        <time>2021-05-20T14:34:56Z</time>
      </trkpt>
      <trkpt lat="42.2770570" lon="-8.6576560">
        <ele>162.2</ele>
        <time>2021-05-20T14:34:57Z</time>
      </trkpt>
      <trkpt lat="42.2770580" lon="-8.6576550">
        <ele>162.2</ele>
        <time>2021-05-20T14:34:58Z</time>
      </trkpt>
      <trkpt lat="42.2770610" lon="-8.6576540">
        <ele>162.2</ele>
        <time>2021-05-20T14:34:59Z</time>
      </trkpt>
      <trkpt lat="42.2770640" lon="-8.6576530">
        <ele>162.2</ele>
        <time>2021-05-20T14:35:00Z</time>
      </trkpt>
      <trkpt lat="42.2770670" lon="-8.6576520">
        <ele>162.2</ele>
        <time>2021-05-20T14:35:01Z</time>
      </trkpt>
      <trkpt lat="42.2770750" lon="-8.6576550">
        <ele>162.2</ele>
        <time>2021-05-20T14:35:02Z</time>
      </trkpt>
      <trkpt lat="42.2770750" lon="-8.6576570">
        <ele>162.2</ele>
        <time>2021-05-20T14:35:03Z</time>
      </trkpt>
      <trkpt lat="42.2770740" lon="-8.6576570">
        <ele>162.2</ele>
        <time>2021-05-20T14:35:04Z</time>
      </trkpt>
      <trkpt lat="42.2770700" lon="-8.6576570">
        <ele>162.2</ele>
        <time>2021-05-20T14:35:05Z</time>
      </trkpt>
      <trkpt lat="42.2770630" lon="-8.6576650">
        <ele>162.2</ele>
        <time>2021-05-20T14:35:06Z</time>
      </trkpt>
      <trkpt lat="42.2770610" lon="-8.6576710">
        <ele>162.2</ele>
        <time>2021-05-20T14:35:07Z</time>
      </trkpt>
      <trkpt lat="42.2770640" lon="-8.6576780">
        <ele>162.2</ele>
        <time>2021-05-20T14:35:08Z</time>
      </trkpt>
      <trkpt lat="42.2770630" lon="-8.6576760">
        <ele>162.2</ele>
        <time>2021-05-20T14:35:09Z</time>
      </trkpt>
      <trkpt lat="42.2770740" lon="-8.6576780">
        <ele>162.2</ele>
        <time>2021-05-20T14:35:10Z</time>
      </trkpt>
      <trkpt lat="42.2770690" lon="-8.6576760">
        <ele>162.2</ele>
        <time>2021-05-20T14:35:11Z</time>
      </trkpt>
      <trkpt lat="42.2770690" lon="-8.6576820">
        <ele>162.1</ele>
        <time>2021-05-20T14:35:12Z</time>
      </trkpt>
      <trkpt lat="42.2770780" lon="-8.6576840">
        <ele>162.1</ele>
        <time>2021-05-20T14:35:13Z</time>
      </trkpt>
      <trkpt lat="42.2770630" lon="-8.6576970">
        <ele>162.1</ele>
        <time>2021-05-20T14:35:14Z</time>
      </trkpt>
      <trkpt lat="42.2770630" lon="-8.6577020">
        <ele>162.1</ele>
        <time>2021-05-20T14:35:15Z</time>
      </trkpt>
      <trkpt lat="42.2770510" lon="-8.6577020">
        <ele>162.1</ele>
        <time>2021-05-20T14:35:16Z</time>
      </trkpt>
      <trkpt lat="42.2770410" lon="-8.6576980">
        <ele>162.1</ele>
        <time>2021-05-20T14:35:17Z</time>
      </trkpt>
      <trkpt lat="42.2770320" lon="-8.6576990">
        <ele>162.1</ele>
        <time>2021-05-20T14:35:18Z</time>
      </trkpt>
      <trkpt lat="42.2770280" lon="-8.6576960">
        <ele>162.1</ele>
        <time>2021-05-20T14:35:19Z</time>
      </trkpt>
      <trkpt lat="42.2770290" lon="-8.6576980">
        <ele>162.1</ele>
        <time>2021-05-20T14:35:20Z</time>
      </trkpt>
      <trkpt lat="42.2770360" lon="-8.6576960">
        <ele>162.0</ele>
        <time>2021-05-20T14:35:21Z</time>
      </trkpt>
      <trkpt lat="42.2770330" lon="-8.6576930">
        <ele>162.0</ele>
        <time>2021-05-20T14:35:22Z</time>
      </trkpt>
      <trkpt lat="42.2770280" lon="-8.6576870">
        <ele>162.0</ele>
        <time>2021-05-20T14:35:23Z</time>
      </trkpt>
      <trkpt lat="42.2770220" lon="-8.6576850">
        <ele>162.0</ele>
        <time>2021-05-20T14:35:24Z</time>
      </trkpt>
      <trkpt lat="42.2770230" lon="-8.6576790">
        <ele>162.0</ele>
        <time>2021-05-20T14:35:25Z</time>
      </trkpt>
      <trkpt lat="42.2770260" lon="-8.6576720">
        <ele>162.0</ele>
        <time>2021-05-20T14:35:26Z</time>
      </trkpt>
      <trkpt lat="42.2770270" lon="-8.6576720">
        <ele>162.0</ele>
        <time>2021-05-20T14:35:27Z</time>
      </trkpt>
      <trkpt lat="42.2770300" lon="-8.6576700">
        <ele>162.0</ele>
        <time>2021-05-20T14:35:28Z</time>
      </trkpt>
      <trkpt lat="42.2770310" lon="-8.6576680">
        <ele>162.0</ele>
        <time>2021-05-20T14:35:29Z</time>
      </trkpt>
      <trkpt lat="42.2770300" lon="-8.6576600">
        <ele>162.0</ele>
        <time>2021-05-20T14:35:30Z</time>
      </trkpt>
      <trkpt lat="42.2770280" lon="-8.6576530">
        <ele>162.0</ele>
        <time>2021-05-20T14:35:31Z</time>
      </trkpt>
      <trkpt lat="42.2770220" lon="-8.6576480">
        <ele>162.0</ele>
        <time>2021-05-20T14:35:32Z</time>
      </trkpt>
      <trkpt lat="42.2770130" lon="-8.6576420">
        <ele>162.0</ele>
        <time>2021-05-20T14:35:33Z</time>
      </trkpt>
      <trkpt lat="42.2770110" lon="-8.6576350">
        <ele>161.9</ele>
        <time>2021-05-20T14:35:34Z</time>
      </trkpt>
      <trkpt lat="42.2770140" lon="-8.6576410">
        <ele>161.9</ele>
        <time>2021-05-20T14:35:35Z</time>
      </trkpt>
      <trkpt lat="42.2770150" lon="-8.6576350">
        <ele>161.9</ele>
        <time>2021-05-20T14:35:36Z</time>
      </trkpt>
      <trkpt lat="42.2770240" lon="-8.6576360">
        <ele>161.9</ele>
        <time>2021-05-20T14:35:37Z</time>
      </trkpt>
      <trkpt lat="42.2770320" lon="-8.6576370">
        <ele>161.9</ele>
        <time>2021-05-20T14:35:38Z</time>
      </trkpt>
      <trkpt lat="42.2770270" lon="-8.6576370">
        <ele>161.9</ele>
        <time>2021-05-20T14:35:39Z</time>
      </trkpt>
      <trkpt lat="42.2770290" lon="-8.6576270">
        <ele>161.9</ele>
        <time>2021-05-20T14:35:40Z</time>
      </trkpt>
      <trkpt lat="42.2770260" lon="-8.6576170">
        <ele>161.9</ele>
        <time>2021-05-20T14:35:41Z</time>
      </trkpt>
      <trkpt lat="42.2770300" lon="-8.6576250">
        <ele>161.9</ele>
        <time>2021-05-20T14:35:42Z</time>
      </trkpt>
      <trkpt lat="42.2770340" lon="-8.6576280">
        <ele>161.9</ele>
        <time>2021-05-20T14:35:43Z</time>
      </trkpt>
      <trkpt lat="42.2770380" lon="-8.6576310">
        <ele>161.9</ele>
        <time>2021-05-20T14:35:44Z</time>
      </trkpt>
      <trkpt lat="42.2770420" lon="-8.6576340">
        <ele>161.9</ele>
        <time>2021-05-20T14:35:45Z</time>
      </trkpt>
      <trkpt lat="42.2770450" lon="-8.6576370">
        <ele>161.9</ele>
        <time>2021-05-20T14:35:46Z</time>
      </trkpt>
      <trkpt lat="42.2770490" lon="-8.6576400">
        <ele>161.9</ele>
        <time>2021-05-20T14:35:47Z</time>
      </trkpt>
      <trkpt lat="42.2770530" lon="-8.6576430">
        <ele>161.9</ele>
        <time>2021-05-20T14:35:48Z</time>
      </trkpt>
      <trkpt lat="42.2770570" lon="-8.6576460">
        <ele>161.8</ele>
        <time>2021-05-20T14:35:49Z</time>
      </trkpt>
      <trkpt lat="42.2770670" lon="-8.6576490">
        <ele>161.8</ele>
        <time>2021-05-20T14:35:50Z</time>
      </trkpt>
      <trkpt lat="42.2770660" lon="-8.6576520">
        <ele>161.8</ele>
        <time>2021-05-20T14:35:51Z</time>
      </trkpt>
      <trkpt lat="42.2770680" lon="-8.6576500">
        <ele>161.8</ele>
        <time>2021-05-20T14:35:52Z</time>
      </trkpt>
      <trkpt lat="42.2770720" lon="-8.6576480">
        <ele>161.8</ele>
        <time>2021-05-20T14:35:53Z</time>
      </trkpt>
      <trkpt lat="42.2770690" lon="-8.6576450">
        <ele>161.8</ele>
        <time>2021-05-20T14:35:54Z</time>
      </trkpt>
      <trkpt lat="42.2770670" lon="-8.6576430">
        <ele>161.8</ele>
        <time>2021-05-20T14:35:55Z</time>
      </trkpt>
      <trkpt lat="42.2770730" lon="-8.6576430">
        <ele>161.8</ele>
        <time>2021-05-20T14:35:56Z</time>
      </trkpt>
      <trkpt lat="42.2770690" lon="-8.6576420">
        <ele>161.8</ele>
        <time>2021-05-20T14:35:57Z</time>
      </trkpt>
      <trkpt lat="42.2770660" lon="-8.6576450">
        <ele>161.8</ele>
        <time>2021-05-20T14:35:58Z</time>
      </trkpt>
      <trkpt lat="42.2770630" lon="-8.6576430">
        <ele>161.8</ele>
        <time>2021-05-20T14:35:59Z</time>
      </trkpt>
      <trkpt lat="42.2770650" lon="-8.6576420">
        <ele>161.8</ele>
        <time>2021-05-20T14:36:00Z</time>
      </trkpt>
      <trkpt lat="42.2770620" lon="-8.6576430">
        <ele>161.8</ele>
        <time>2021-05-20T14:36:01Z</time>
      </trkpt>
      <trkpt lat="42.2770620" lon="-8.6576440">
        <ele>161.8</ele>
        <time>2021-05-20T14:36:02Z</time>
      </trkpt>
      <trkpt lat="42.2770620" lon="-8.6576420">
        <ele>161.8</ele>
        <time>2021-05-20T14:36:03Z</time>
      </trkpt>
      <trkpt lat="42.2770650" lon="-8.6576420">
        <ele>161.8</ele>
        <time>2021-05-20T14:36:04Z</time>
      </trkpt>
      <trkpt lat="42.2770630" lon="-8.6576410">
        <ele>161.8</ele>
        <time>2021-05-20T14:36:05Z</time>
      </trkpt>
      <trkpt lat="42.2770600" lon="-8.6576420">
        <ele>161.8</ele>
        <time>2021-05-20T14:36:06Z</time>
      </trkpt>
      <trkpt lat="42.2770590" lon="-8.6576400">
        <ele>161.8</ele>
        <time>2021-05-20T14:36:07Z</time>
      </trkpt>
      <trkpt lat="42.2770550" lon="-8.6576350">
        <ele>161.8</ele>
        <time>2021-05-20T14:36:08Z</time>
      </trkpt>
      <trkpt lat="42.2770490" lon="-8.6576240">
        <ele>161.8</ele>
        <time>2021-05-20T14:36:09Z</time>
      </trkpt>
      <trkpt lat="42.2770480" lon="-8.6576320">
        <ele>161.8</ele>
        <time>2021-05-20T14:36:10Z</time>
      </trkpt>
      <trkpt lat="42.2770420" lon="-8.6576340">
        <ele>161.8</ele>
        <time>2021-05-20T14:36:11Z</time>
      </trkpt>
      <trkpt lat="42.2770400" lon="-8.6576360">
        <ele>161.8</ele>
        <time>2021-05-20T14:36:12Z</time>
      </trkpt>
      <trkpt lat="42.2770380" lon="-8.6576360">
        <ele>161.8</ele>
        <time>2021-05-20T14:36:13Z</time>
      </trkpt>
      <trkpt lat="42.2770330" lon="-8.6576360">
        <ele>161.7</ele>
        <time>2021-05-20T14:36:14Z</time>
      </trkpt>
      <trkpt lat="42.2770300" lon="-8.6576350">
        <ele>161.7</ele>
        <time>2021-05-20T14:36:15Z</time>
      </trkpt>
      <trkpt lat="42.2770300" lon="-8.6576230">
        <ele>161.7</ele>
        <time>2021-05-20T14:36:16Z</time>
      </trkpt>
      <trkpt lat="42.2770320" lon="-8.6576010">
        <ele>161.7</ele>
        <time>2021-05-20T14:36:17Z</time>
      </trkpt>
      <trkpt lat="42.2770320" lon="-8.6575900">
        <ele>161.7</ele>
        <time>2021-05-20T14:36:18Z</time>
      </trkpt>
      <trkpt lat="42.2770300" lon="-8.6575760">
        <ele>161.7</ele>
        <time>2021-05-20T14:36:19Z</time>
      </trkpt>
      <trkpt lat="42.2770290" lon="-8.6575640">
        <ele>161.7</ele>
        <time>2021-05-20T14:36:20Z</time>
      </trkpt>
      <trkpt lat="42.2770280" lon="-8.6575460">
        <ele>161.7</ele>
        <time>2021-05-20T14:36:21Z</time>
      </trkpt>
      <trkpt lat="42.2770260" lon="-8.6575370">
        <ele>161.7</ele>
        <time>2021-05-20T14:36:22Z</time>
      </trkpt>
      <trkpt lat="42.2770170" lon="-8.6574990">
        <ele>161.7</ele>
        <time>2021-05-20T14:36:23Z</time>
      </trkpt>
      <trkpt lat="42.2770110" lon="-8.6574670">
        <ele>161.6</ele>
        <time>2021-05-20T14:36:24Z</time>
      </trkpt>
      <trkpt lat="42.2770080" lon="-8.6574570">
        <ele>161.6</ele>
        <time>2021-05-20T14:36:25Z</time>
      </trkpt>
      <trkpt lat="42.2770060" lon="-8.6574470">
        <ele>161.6</ele>
        <time>2021-05-20T14:36:26Z</time>
      </trkpt>
      <trkpt lat="42.2770050" lon="-8.6574270">
        <ele>161.6</ele>
        <time>2021-05-20T14:36:27Z</time>
      </trkpt>
      <trkpt lat="42.2770030" lon="-8.6574120">
        <ele>161.6</ele>
        <time>2021-05-20T14:36:28Z</time>
      </trkpt>
      <trkpt lat="42.2770000" lon="-8.6573970">
        <ele>161.6</ele>
        <time>2021-05-20T14:36:29Z</time>
      </trkpt>
      <trkpt lat="42.2769970" lon="-8.6573820">
        <ele>161.6</ele>
        <time>2021-05-20T14:36:30Z</time>
      </trkpt>
      <trkpt lat="42.2769930" lon="-8.6573530">
        <ele>161.6</ele>
        <time>2021-05-20T14:36:31Z</time>
      </trkpt>
      <trkpt lat="42.2769870" lon="-8.6573440">
        <ele>161.6</ele>
        <time>2021-05-20T14:36:32Z</time>
      </trkpt>
      <trkpt lat="42.2769820" lon="-8.6573340">
        <ele>161.6</ele>
        <time>2021-05-20T14:36:33Z</time>
      </trkpt>
      <trkpt lat="42.2769760" lon="-8.6573140">
        <ele>161.6</ele>
        <time>2021-05-20T14:36:34Z</time>
      </trkpt>
      <trkpt lat="42.2769700" lon="-8.6572900">
        <ele>161.6</ele>
        <time>2021-05-20T14:36:35Z</time>
      </trkpt>
      <trkpt lat="42.2769720" lon="-8.6572800">
        <ele>161.6</ele>
        <time>2021-05-20T14:36:36Z</time>
      </trkpt>
      <trkpt lat="42.2769670" lon="-8.6572620">
        <ele>161.6</ele>
        <time>2021-05-20T14:36:37Z</time>
      </trkpt>
      <trkpt lat="42.2769650" lon="-8.6572580">
        <ele>161.6</ele>
        <time>2021-05-20T14:36:38Z</time>
      </trkpt>
      <trkpt lat="42.2769620" lon="-8.6572500">
        <ele>161.6</ele>
        <time>2021-05-20T14:36:39Z</time>
      </trkpt>
      <trkpt lat="42.2769620" lon="-8.6572280">
        <ele>161.6</ele>
        <time>2021-05-20T14:36:40Z</time>
      </trkpt>
      <trkpt lat="42.2769620" lon="-8.6572150">
        <ele>161.6</ele>
        <time>2021-05-20T14:36:41Z</time>
      </trkpt>
      <trkpt lat="42.2769610" lon="-8.6572010">
        <ele>161.6</ele>
        <time>2021-05-20T14:36:42Z</time>
      </trkpt>
      <trkpt lat="42.2769560" lon="-8.6571770">
        <ele>161.6</ele>
        <time>2021-05-20T14:36:43Z</time>
      </trkpt>
      <trkpt lat="42.2769470" lon="-8.6571610">
        <ele>161.7</ele>
        <time>2021-05-20T14:36:44Z</time>
      </trkpt>
      <trkpt lat="42.2769430" lon="-8.6571490">
        <ele>161.7</ele>
        <time>2021-05-20T14:36:45Z</time>
      </trkpt>
      <trkpt lat="42.2769520" lon="-8.6571420">
        <ele>161.7</ele>
        <time>2021-05-20T14:36:46Z</time>
      </trkpt>
      <trkpt lat="42.2769560" lon="-8.6571200">
        <ele>161.7</ele>
        <time>2021-05-20T14:36:47Z</time>
      </trkpt>
      <trkpt lat="42.2769510" lon="-8.6571100">
        <ele>161.7</ele>
        <time>2021-05-20T14:36:48Z</time>
      </trkpt>
      <trkpt lat="42.2769500" lon="-8.6570920">
        <ele>161.7</ele>
        <time>2021-05-20T14:36:49Z</time>
      </trkpt>
      <trkpt lat="42.2769530" lon="-8.6570770">
        <ele>161.7</ele>
        <time>2021-05-20T14:36:50Z</time>
      </trkpt>
      <trkpt lat="42.2769490" lon="-8.6570570">
        <ele>161.7</ele>
        <time>2021-05-20T14:36:51Z</time>
      </trkpt>
      <trkpt lat="42.2769370" lon="-8.6570390">
        <ele>161.8</ele>
        <time>2021-05-20T14:36:52Z</time>
      </trkpt>
      <trkpt lat="42.2769300" lon="-8.6570120">
        <ele>161.8</ele>
        <time>2021-05-20T14:36:53Z</time>
      </trkpt>
      <trkpt lat="42.2769300" lon="-8.6570030">
        <ele>161.8</ele>
        <time>2021-05-20T14:36:54Z</time>
      </trkpt>
      <trkpt lat="42.2769290" lon="-8.6569950">
        <ele>161.8</ele>
        <time>2021-05-20T14:36:55Z</time>
      </trkpt>
      <trkpt lat="42.2769280" lon="-8.6569860">
        <ele>161.8</ele>
        <time>2021-05-20T14:36:56Z</time>
      </trkpt>
      <trkpt lat="42.2769350" lon="-8.6569750">
        <ele>161.8</ele>
        <time>2021-05-20T14:36:57Z</time>
      </trkpt>
      <trkpt lat="42.2769240" lon="-8.6569640">
        <ele>161.9</ele>
        <time>2021-05-20T14:36:58Z</time>
      </trkpt>
      <trkpt lat="42.2769290" lon="-8.6569480">
        <ele>161.9</ele>
        <time>2021-05-20T14:36:59Z</time>
      </trkpt>
      <trkpt lat="42.2769180" lon="-8.6569300">
        <ele>161.9</ele>
        <time>2021-05-20T14:37:00Z</time>
      </trkpt>
      <trkpt lat="42.2769220" lon="-8.6569220">
        <ele>161.9</ele>
        <time>2021-05-20T14:37:01Z</time>
      </trkpt>
      <trkpt lat="42.2769170" lon="-8.6569040">
        <ele>162.0</ele>
        <time>2021-05-20T14:37:02Z</time>
      </trkpt>
      <trkpt lat="42.2769280" lon="-8.6568950">
        <ele>162.0</ele>
        <time>2021-05-20T14:37:03Z</time>
      </trkpt>
      <trkpt lat="42.2769200" lon="-8.6568760">
        <ele>162.0</ele>
        <time>2021-05-20T14:37:04Z</time>
      </trkpt>
      <trkpt lat="42.2769160" lon="-8.6568600">
        <ele>162.0</ele>
        <time>2021-05-20T14:37:05Z</time>
      </trkpt>
      <trkpt lat="42.2769140" lon="-8.6568430">
        <ele>162.0</ele>
        <time>2021-05-20T14:37:06Z</time>
      </trkpt>
      <trkpt lat="42.2769130" lon="-8.6568320">
        <ele>162.0</ele>
        <time>2021-05-20T14:37:08Z</time>
      </trkpt>
      <trkpt lat="42.2769110" lon="-8.6568180">
        <ele>162.1</ele>
        <time>2021-05-20T14:37:09Z</time>
      </trkpt>
      <trkpt lat="42.2769090" lon="-8.6568000">
        <ele>162.1</ele>
        <time>2021-05-20T14:37:10Z</time>
      </trkpt>
      <trkpt lat="42.2769060" lon="-8.6567890">
        <ele>162.1</ele>
        <time>2021-05-20T14:37:11Z</time>
      </trkpt>
      <trkpt lat="42.2769040" lon="-8.6567780">
        <ele>162.1</ele>
        <time>2021-05-20T14:37:12Z</time>
      </trkpt>
      <trkpt lat="42.2769010" lon="-8.6567670">
        <ele>162.1</ele>
        <time>2021-05-20T14:37:13Z</time>
      </trkpt>
      <trkpt lat="42.2768880" lon="-8.6567440">
        <ele>162.1</ele>
        <time>2021-05-20T14:37:14Z</time>
      </trkpt>
      <trkpt lat="42.2768850" lon="-8.6567340">
        <ele>162.2</ele>
        <time>2021-05-20T14:37:15Z</time>
      </trkpt>
      <trkpt lat="42.2768820" lon="-8.6567240">
        <ele>162.2</ele>
        <time>2021-05-20T14:37:16Z</time>
      </trkpt>
      <trkpt lat="42.2768760" lon="-8.6567100">
        <ele>162.2</ele>
        <time>2021-05-20T14:37:17Z</time>
      </trkpt>
      <trkpt lat="42.2768710" lon="-8.6567000">
        <ele>162.2</ele>
        <time>2021-05-20T14:37:18Z</time>
      </trkpt>
      <trkpt lat="42.2768620" lon="-8.6566930">
        <ele>162.2</ele>
        <time>2021-05-20T14:37:19Z</time>
      </trkpt>
      <trkpt lat="42.2768510" lon="-8.6566660">
        <ele>162.2</ele>
        <time>2021-05-20T14:37:20Z</time>
      </trkpt>
      <trkpt lat="42.2768400" lon="-8.6566520">
        <ele>162.2</ele>
        <time>2021-05-20T14:37:21Z</time>
      </trkpt>
      <trkpt lat="42.2768350" lon="-8.6566390">
        <ele>162.2</ele>
        <time>2021-05-20T14:37:22Z</time>
      </trkpt>
      <trkpt lat="42.2768240" lon="-8.6566250">
        <ele>162.3</ele>
        <time>2021-05-20T14:37:23Z</time>
      </trkpt>
      <trkpt lat="42.2768280" lon="-8.6566110">
        <ele>162.3</ele>
        <time>2021-05-20T14:37:24Z</time>
      </trkpt>
      <trkpt lat="42.2768360" lon="-8.6565950">
        <ele>162.3</ele>
        <time>2021-05-20T14:37:25Z</time>
      </trkpt>
      <trkpt lat="42.2768360" lon="-8.6565890">
        <ele>162.3</ele>
        <time>2021-05-20T14:37:26Z</time>
      </trkpt>
      <trkpt lat="42.2768320" lon="-8.6565810">
        <ele>162.3</ele>
        <time>2021-05-20T14:37:27Z</time>
      </trkpt>
      <trkpt lat="42.2768240" lon="-8.6565750">
        <ele>162.3</ele>
        <time>2021-05-20T14:37:28Z</time>
      </trkpt>
      <trkpt lat="42.2768130" lon="-8.6565500">
        <ele>162.3</ele>
        <time>2021-05-20T14:37:29Z</time>
      </trkpt>
      <trkpt lat="42.2768090" lon="-8.6565330">
        <ele>162.3</ele>
        <time>2021-05-20T14:37:30Z</time>
      </trkpt>
      <trkpt lat="42.2767970" lon="-8.6565190">
        <ele>162.4</ele>
        <time>2021-05-20T14:37:31Z</time>
      </trkpt>
      <trkpt lat="42.2767980" lon="-8.6565190">
        <ele>162.4</ele>
        <time>2021-05-20T14:37:32Z</time>
      </trkpt>
      <trkpt lat="42.2767850" lon="-8.6565010">
        <ele>162.4</ele>
        <time>2021-05-20T14:37:33Z</time>
      </trkpt>
      <trkpt lat="42.2767880" lon="-8.6564930">
        <ele>162.4</ele>
        <time>2021-05-20T14:37:34Z</time>
      </trkpt>
      <trkpt lat="42.2767740" lon="-8.6564630">
        <ele>162.4</ele>
        <time>2021-05-20T14:37:35Z</time>
      </trkpt>
      <trkpt lat="42.2767620" lon="-8.6564450">
        <ele>162.4</ele>
        <time>2021-05-20T14:37:36Z</time>
      </trkpt>
      <trkpt lat="42.2767590" lon="-8.6564380">
        <ele>162.4</ele>
        <time>2021-05-20T14:37:37Z</time>
      </trkpt>
      <trkpt lat="42.2767550" lon="-8.6564300">
        <ele>162.5</ele>
        <time>2021-05-20T14:37:38Z</time>
      </trkpt>
      <trkpt lat="42.2767520" lon="-8.6564230">
        <ele>162.5</ele>
        <time>2021-05-20T14:37:39Z</time>
      </trkpt>
      <trkpt lat="42.2767480" lon="-8.6564160">
        <ele>162.5</ele>
        <time>2021-05-20T14:37:40Z</time>
      </trkpt>
      <trkpt lat="42.2767440" lon="-8.6563990">
        <ele>162.5</ele>
        <time>2021-05-20T14:37:41Z</time>
      </trkpt>
      <trkpt lat="42.2767390" lon="-8.6563840">
        <ele>162.5</ele>
        <time>2021-05-20T14:37:42Z</time>
      </trkpt>
      <trkpt lat="42.2767330" lon="-8.6563690">
        <ele>162.5</ele>
        <time>2021-05-20T14:37:43Z</time>
      </trkpt>
      <trkpt lat="42.2767250" lon="-8.6563660">
        <ele>162.5</ele>
        <time>2021-05-20T14:37:44Z</time>
      </trkpt>
      <trkpt lat="42.2767200" lon="-8.6563520">
        <ele>162.5</ele>
        <time>2021-05-20T14:37:45Z</time>
      </trkpt>
      <trkpt lat="42.2767180" lon="-8.6563340">
        <ele>162.5</ele>
        <time>2021-05-20T14:37:46Z</time>
      </trkpt>
      <trkpt lat="42.2767150" lon="-8.6563080">
        <ele>162.6</ele>
        <time>2021-05-20T14:37:47Z</time>
      </trkpt>
      <trkpt lat="42.2767100" lon="-8.6562950">
        <ele>162.6</ele>
        <time>2021-05-20T14:37:48Z</time>
      </trkpt>
      <trkpt lat="42.2767050" lon="-8.6562820">
        <ele>162.6</ele>
        <time>2021-05-20T14:37:49Z</time>
      </trkpt>
      <trkpt lat="42.2766940" lon="-8.6562640">
        <ele>162.6</ele>
        <time>2021-05-20T14:37:50Z</time>
      </trkpt>
      <trkpt lat="42.2766880" lon="-8.6562580">
        <ele>162.6</ele>
        <time>2021-05-20T14:37:51Z</time>
      </trkpt>
      <trkpt lat="42.2766820" lon="-8.6562510">
        <ele>162.6</ele>
        <time>2021-05-20T14:37:52Z</time>
      </trkpt>
      <trkpt lat="42.2766760" lon="-8.6562450">
        <ele>162.6</ele>
        <time>2021-05-20T14:37:53Z</time>
      </trkpt>
      <trkpt lat="42.2766630" lon="-8.6562230">
        <ele>162.7</ele>
        <time>2021-05-20T14:37:54Z</time>
      </trkpt>
      <trkpt lat="42.2766560" lon="-8.6562100">
        <ele>162.7</ele>
        <time>2021-05-20T14:37:55Z</time>
      </trkpt>
      <trkpt lat="42.2766500" lon="-8.6561980">
        <ele>162.7</ele>
        <time>2021-05-20T14:37:56Z</time>
      </trkpt>
      <trkpt lat="42.2766440" lon="-8.6561750">
        <ele>162.7</ele>
        <time>2021-05-20T14:37:57Z</time>
      </trkpt>
      <trkpt lat="42.2766440" lon="-8.6561660">
        <ele>162.7</ele>
        <time>2021-05-20T14:37:58Z</time>
      </trkpt>
      <trkpt lat="42.2766430" lon="-8.6561580">
        <ele>162.7</ele>
        <time>2021-05-20T14:37:59Z</time>
      </trkpt>
      <trkpt lat="42.2766420" lon="-8.6561490">
        <ele>162.7</ele>
        <time>2021-05-20T14:38:00Z</time>
      </trkpt>
      <trkpt lat="42.2766340" lon="-8.6561260">
        <ele>162.7</ele>
        <time>2021-05-20T14:38:01Z</time>
      </trkpt>
      <trkpt lat="42.2766300" lon="-8.6561150">
        <ele>162.8</ele>
        <time>2021-05-20T14:38:02Z</time>
      </trkpt>
      <trkpt lat="42.2766260" lon="-8.6561030">
        <ele>162.8</ele>
        <time>2021-05-20T14:38:03Z</time>
      </trkpt>
      <trkpt lat="42.2766190" lon="-8.6560780">
        <ele>162.8</ele>
        <time>2021-05-20T14:38:04Z</time>
      </trkpt>
      <trkpt lat="42.2766150" lon="-8.6560670">
        <ele>162.8</ele>
        <time>2021-05-20T14:38:05Z</time>
      </trkpt>
      <trkpt lat="42.2766120" lon="-8.6560570">
        <ele>162.8</ele>
        <time>2021-05-20T14:38:06Z</time>
      </trkpt>
      <trkpt lat="42.2766090" lon="-8.6560510">
        <ele>162.8</ele>
        <time>2021-05-20T14:38:07Z</time>
      </trkpt>
      <trkpt lat="42.2766020" lon="-8.6560170">
        <ele>162.8</ele>
        <time>2021-05-20T14:38:08Z</time>
      </trkpt>
      <trkpt lat="42.2766100" lon="-8.6560100">
        <ele>162.8</ele>
        <time>2021-05-20T14:38:09Z</time>
      </trkpt>
      <trkpt lat="42.2766030" lon="-8.6559700">
        <ele>162.8</ele>
        <time>2021-05-20T14:38:10Z</time>
      </trkpt>
      <trkpt lat="42.2766010" lon="-8.6559450">
        <ele>162.8</ele>
        <time>2021-05-20T14:38:11Z</time>
      </trkpt>
      <trkpt lat="42.2766050" lon="-8.6559320">
        <ele>162.8</ele>
        <time>2021-05-20T14:38:12Z</time>
      </trkpt>
      <trkpt lat="42.2766120" lon="-8.6558950">
        <ele>162.8</ele>
        <time>2021-05-20T14:38:13Z</time>
      </trkpt>
      <trkpt lat="42.2766150" lon="-8.6558830">
        <ele>162.8</ele>
        <time>2021-05-20T14:38:14Z</time>
      </trkpt>
      <trkpt lat="42.2766080" lon="-8.6558630">
        <ele>162.8</ele>
        <time>2021-05-20T14:38:15Z</time>
      </trkpt>
      <trkpt lat="42.2766150" lon="-8.6558550">
        <ele>162.8</ele>
        <time>2021-05-20T14:38:16Z</time>
      </trkpt>
      <trkpt lat="42.2766170" lon="-8.6558410">
        <ele>162.8</ele>
        <time>2021-05-20T14:38:17Z</time>
      </trkpt>
      <trkpt lat="42.2766230" lon="-8.6558310">
        <ele>162.8</ele>
        <time>2021-05-20T14:38:18Z</time>
      </trkpt>
      <trkpt lat="42.2766280" lon="-8.6558050">
        <ele>162.8</ele>
        <time>2021-05-20T14:38:19Z</time>
      </trkpt>
      <trkpt lat="42.2766330" lon="-8.6557830">
        <ele>162.8</ele>
        <time>2021-05-20T14:38:20Z</time>
      </trkpt>
      <trkpt lat="42.2766410" lon="-8.6557740">
        <ele>162.8</ele>
        <time>2021-05-20T14:38:21Z</time>
      </trkpt>
      <trkpt lat="42.2766430" lon="-8.6557680">
        <ele>162.8</ele>
        <time>2021-05-20T14:38:22Z</time>
      </trkpt>
      <trkpt lat="42.2766540" lon="-8.6557680">
        <ele>162.7</ele>
        <time>2021-05-20T14:38:23Z</time>
      </trkpt>
      <trkpt lat="42.2766580" lon="-8.6557680">
        <ele>162.7</ele>
        <time>2021-05-20T14:38:24Z</time>
      </trkpt>
      <trkpt lat="42.2766610" lon="-8.6557690">
        <ele>162.7</ele>
        <time>2021-05-20T14:38:25Z</time>
      </trkpt>
      <trkpt lat="42.2766640" lon="-8.6557690">
        <ele>162.7</ele>
        <time>2021-05-20T14:38:26Z</time>
      </trkpt>
      <trkpt lat="42.2766680" lon="-8.6557700">
        <ele>162.7</ele>
        <time>2021-05-20T14:38:27Z</time>
      </trkpt>
      <trkpt lat="42.2766710" lon="-8.6557700">
        <ele>162.7</ele>
        <time>2021-05-20T14:38:28Z</time>
      </trkpt>
      <trkpt lat="42.2766740" lon="-8.6557710">
        <ele>162.7</ele>
        <time>2021-05-20T14:38:29Z</time>
      </trkpt>
      <trkpt lat="42.2766780" lon="-8.6557710">
        <ele>162.7</ele>
        <time>2021-05-20T14:38:30Z</time>
      </trkpt>
      <trkpt lat="42.2766810" lon="-8.6557720">
        <ele>162.7</ele>
        <time>2021-05-20T14:38:31Z</time>
      </trkpt>
      <trkpt lat="42.2766820" lon="-8.6557730">
        <ele>162.7</ele>
        <time>2021-05-20T14:38:32Z</time>
      </trkpt>
      <trkpt lat="42.2766810" lon="-8.6557760">
        <ele>162.7</ele>
        <time>2021-05-20T14:38:33Z</time>
      </trkpt>
      <trkpt lat="42.2766880" lon="-8.6557800">
        <ele>162.7</ele>
        <time>2021-05-20T14:38:34Z</time>
      </trkpt>
      <trkpt lat="42.2766980" lon="-8.6557830">
        <ele>162.7</ele>
        <time>2021-05-20T14:38:35Z</time>
      </trkpt>
      <trkpt lat="42.2767010" lon="-8.6557860">
        <ele>162.7</ele>
        <time>2021-05-20T14:38:36Z</time>
      </trkpt>
      <trkpt lat="42.2767130" lon="-8.6557810">
        <ele>162.7</ele>
        <time>2021-05-20T14:38:37Z</time>
      </trkpt>
      <trkpt lat="42.2767050" lon="-8.6557730">
        <ele>162.7</ele>
        <time>2021-05-20T14:38:38Z</time>
      </trkpt>
      <trkpt lat="42.2767190" lon="-8.6557610">
        <ele>162.6</ele>
        <time>2021-05-20T14:38:39Z</time>
      </trkpt>
      <trkpt lat="42.2767230" lon="-8.6557630">
        <ele>162.6</ele>
        <time>2021-05-20T14:38:40Z</time>
      </trkpt>
      <trkpt lat="42.2767370" lon="-8.6557590">
        <ele>162.6</ele>
        <time>2021-05-20T14:38:41Z</time>
      </trkpt>
      <trkpt lat="42.2767530" lon="-8.6557490">
        <ele>162.6</ele>
        <time>2021-05-20T14:38:42Z</time>
      </trkpt>
      <trkpt lat="42.2767590" lon="-8.6557450">
        <ele>162.6</ele>
        <time>2021-05-20T14:38:43Z</time>
      </trkpt>
      <trkpt lat="42.2767640" lon="-8.6557400">
        <ele>162.6</ele>
        <time>2021-05-20T14:38:44Z</time>
      </trkpt>
      <trkpt lat="42.2767700" lon="-8.6557350">
        <ele>162.6</ele>
        <time>2021-05-20T14:38:45Z</time>
      </trkpt>
      <trkpt lat="42.2767790" lon="-8.6557300">
        <ele>162.6</ele>
        <time>2021-05-20T14:38:46Z</time>
      </trkpt>
      <trkpt lat="42.2767830" lon="-8.6557290">
        <ele>162.6</ele>
        <time>2021-05-20T14:38:47Z</time>
      </trkpt>
      <trkpt lat="42.2767950" lon="-8.6557310">
        <ele>162.6</ele>
        <time>2021-05-20T14:38:48Z</time>
      </trkpt>
      <trkpt lat="42.2767980" lon="-8.6557320">
        <ele>162.5</ele>
        <time>2021-05-20T14:38:49Z</time>
      </trkpt>
      <trkpt lat="42.2768060" lon="-8.6557190">
        <ele>162.5</ele>
        <time>2021-05-20T14:38:50Z</time>
      </trkpt>
      <trkpt lat="42.2768110" lon="-8.6557060">
        <ele>162.5</ele>
        <time>2021-05-20T14:38:51Z</time>
      </trkpt>
      <trkpt lat="42.2768170" lon="-8.6557010">
        <ele>162.5</ele>
        <time>2021-05-20T14:38:52Z</time>
      </trkpt>
      <trkpt lat="42.2768260" lon="-8.6556960">
        <ele>162.5</ele>
        <time>2021-05-20T14:38:53Z</time>
      </trkpt>
      <trkpt lat="42.2768370" lon="-8.6556900">
        <ele>162.5</ele>
        <time>2021-05-20T14:38:55Z</time>
      </trkpt>
      <trkpt lat="42.2768440" lon="-8.6556840">
        <ele>162.5</ele>
        <time>2021-05-20T14:38:56Z</time>
      </trkpt>
      <trkpt lat="42.2768470" lon="-8.6556770">
        <ele>162.5</ele>
        <time>2021-05-20T14:38:57Z</time>
      </trkpt>
      <trkpt lat="42.2768510" lon="-8.6556710">
        <ele>162.5</ele>
        <time>2021-05-20T14:38:58Z</time>
      </trkpt>
      <trkpt lat="42.2768670" lon="-8.6556620">
        <ele>162.5</ele>
        <time>2021-05-20T14:38:59Z</time>
      </trkpt>
      <trkpt lat="42.2768680" lon="-8.6556470">
        <ele>162.5</ele>
        <time>2021-05-20T14:39:00Z</time>
      </trkpt>
      <trkpt lat="42.2768650" lon="-8.6556350">
        <ele>162.5</ele>
        <time>2021-05-20T14:39:01Z</time>
      </trkpt>
      <trkpt lat="42.2768610" lon="-8.6556220">
        <ele>162.5</ele>
        <time>2021-05-20T14:39:02Z</time>
      </trkpt>
      <trkpt lat="42.2768580" lon="-8.6556100">
        <ele>162.4</ele>
        <time>2021-05-20T14:39:03Z</time>
      </trkpt>
      <trkpt lat="42.2768550" lon="-8.6555980">
        <ele>162.4</ele>
        <time>2021-05-20T14:39:04Z</time>
      </trkpt>
      <trkpt lat="42.2768650" lon="-8.6555840">
        <ele>162.4</ele>
        <time>2021-05-20T14:39:05Z</time>
      </trkpt>
      <trkpt lat="42.2768710" lon="-8.6555660">
        <ele>162.4</ele>
        <time>2021-05-20T14:39:06Z</time>
      </trkpt>
      <trkpt lat="42.2768770" lon="-8.6555650">
        <ele>162.4</ele>
        <time>2021-05-20T14:39:07Z</time>
      </trkpt>
      <trkpt lat="42.2768950" lon="-8.6555490">
        <ele>162.4</ele>
        <time>2021-05-20T14:39:08Z</time>
      </trkpt>
      <trkpt lat="42.2769050" lon="-8.6555420">
        <ele>162.4</ele>
        <time>2021-05-20T14:39:09Z</time>
      </trkpt>
      <trkpt lat="42.2769110" lon="-8.6555390">
        <ele>162.4</ele>
        <time>2021-05-20T14:39:10Z</time>
      </trkpt>
      <trkpt lat="42.2769230" lon="-8.6555280">
        <ele>162.5</ele>
        <time>2021-05-20T14:39:11Z</time>
      </trkpt>
      <trkpt lat="42.2769250" lon="-8.6555200">
        <ele>162.5</ele>
        <time>2021-05-20T14:39:12Z</time>
      </trkpt>
      <trkpt lat="42.2769340" lon="-8.6555070">
        <ele>162.5</ele>
        <time>2021-05-20T14:39:13Z</time>
      </trkpt>
      <trkpt lat="42.2769430" lon="-8.6554950">
        <ele>162.5</ele>
        <time>2021-05-20T14:39:14Z</time>
      </trkpt>
      <trkpt lat="42.2769570" lon="-8.6554820">
        <ele>162.5</ele>
        <time>2021-05-20T14:39:15Z</time>
      </trkpt>
      <trkpt lat="42.2769620" lon="-8.6554720">
        <ele>162.5</ele>
        <time>2021-05-20T14:39:16Z</time>
      </trkpt>
      <trkpt lat="42.2769660" lon="-8.6554630">
        <ele>162.5</ele>
        <time>2021-05-20T14:39:17Z</time>
      </trkpt>
      <trkpt lat="42.2769710" lon="-8.6554530">
        <ele>162.5</ele>
        <time>2021-05-20T14:39:18Z</time>
      </trkpt>
      <trkpt lat="42.2769680" lon="-8.6554400">
        <ele>162.5</ele>
        <time>2021-05-20T14:39:19Z</time>
      </trkpt>
      <trkpt lat="42.2769780" lon="-8.6554390">
        <ele>162.5</ele>
        <time>2021-05-20T14:39:20Z</time>
      </trkpt>
      <trkpt lat="42.2769970" lon="-8.6554240">
        <ele>162.5</ele>
        <time>2021-05-20T14:39:21Z</time>
      </trkpt>
      <trkpt lat="42.2770140" lon="-8.6554080">
        <ele>162.5</ele>
        <time>2021-05-20T14:39:22Z</time>
      </trkpt>
      <trkpt lat="42.2770220" lon="-8.6554030">
        <ele>162.5</ele>
        <time>2021-05-20T14:39:23Z</time>
      </trkpt>
      <trkpt lat="42.2770300" lon="-8.6553990">
        <ele>162.5</ele>
        <time>2021-05-20T14:39:24Z</time>
      </trkpt>
      <trkpt lat="42.2770340" lon="-8.6553890">
        <ele>162.6</ele>
        <time>2021-05-20T14:39:25Z</time>
      </trkpt>
      <trkpt lat="42.2770430" lon="-8.6553760">
        <ele>162.6</ele>
        <time>2021-05-20T14:39:26Z</time>
      </trkpt>
      <trkpt lat="42.2770560" lon="-8.6553670">
        <ele>162.6</ele>
        <time>2021-05-20T14:39:27Z</time>
      </trkpt>
      <trkpt lat="42.2770590" lon="-8.6553610">
        <ele>162.6</ele>
        <time>2021-05-20T14:39:28Z</time>
      </trkpt>
      <trkpt lat="42.2770720" lon="-8.6553440">
        <ele>162.6</ele>
        <time>2021-05-20T14:39:29Z</time>
      </trkpt>
      <trkpt lat="42.2770780" lon="-8.6553310">
        <ele>162.6</ele>
        <time>2021-05-20T14:39:30Z</time>
      </trkpt>
      <trkpt lat="42.2770940" lon="-8.6553070">
        <ele>162.6</ele>
        <time>2021-05-20T14:39:31Z</time>
      </trkpt>
      <trkpt lat="42.2771010" lon="-8.6552960">
        <ele>162.6</ele>
        <time>2021-05-20T14:39:32Z</time>
      </trkpt>
      <trkpt lat="42.2771070" lon="-8.6552840">
        <ele>162.6</ele>
        <time>2021-05-20T14:39:33Z</time>
      </trkpt>
      <trkpt lat="42.2771140" lon="-8.6552640">
        <ele>162.6</ele>
        <time>2021-05-20T14:39:34Z</time>
      </trkpt>
      <trkpt lat="42.2771180" lon="-8.6552530">
        <ele>162.6</ele>
        <time>2021-05-20T14:39:35Z</time>
      </trkpt>
      <trkpt lat="42.2771230" lon="-8.6552430">
        <ele>162.6</ele>
        <time>2021-05-20T14:39:36Z</time>
      </trkpt>
      <trkpt lat="42.2771270" lon="-8.6552320">
        <ele>162.6</ele>
        <time>2021-05-20T14:39:37Z</time>
      </trkpt>
      <trkpt lat="42.2771420" lon="-8.6552160">
        <ele>162.6</ele>
        <time>2021-05-20T14:39:38Z</time>
      </trkpt>
      <trkpt lat="42.2771480" lon="-8.6552050">
        <ele>162.6</ele>
        <time>2021-05-20T14:39:39Z</time>
      </trkpt>
      <trkpt lat="42.2771530" lon="-8.6551950">
        <ele>162.6</ele>
        <time>2021-05-20T14:39:40Z</time>
      </trkpt>
      <trkpt lat="42.2771640" lon="-8.6551940">
        <ele>162.6</ele>
        <time>2021-05-20T14:39:41Z</time>
      </trkpt>
      <trkpt lat="42.2771710" lon="-8.6551870">
        <ele>162.6</ele>
        <time>2021-05-20T14:39:42Z</time>
      </trkpt>
      <trkpt lat="42.2771820" lon="-8.6551730">
        <ele>162.7</ele>
        <time>2021-05-20T14:39:43Z</time>
      </trkpt>
      <trkpt lat="42.2771830" lon="-8.6551640">
        <ele>162.7</ele>
        <time>2021-05-20T14:39:44Z</time>
      </trkpt>
      <trkpt lat="42.2771970" lon="-8.6551510">
        <ele>162.7</ele>
        <time>2021-05-20T14:39:45Z</time>
      </trkpt>
      <trkpt lat="42.2771980" lon="-8.6551350">
        <ele>162.7</ele>
        <time>2021-05-20T14:39:46Z</time>
      </trkpt>
      <trkpt lat="42.2772060" lon="-8.6551190">
        <ele>162.7</ele>
        <time>2021-05-20T14:39:47Z</time>
      </trkpt>
      <trkpt lat="42.2772100" lon="-8.6551050">
        <ele>162.7</ele>
        <time>2021-05-20T14:39:48Z</time>
      </trkpt>
      <trkpt lat="42.2772190" lon="-8.6550990">
        <ele>162.7</ele>
        <time>2021-05-20T14:39:49Z</time>
      </trkpt>
      <trkpt lat="42.2772210" lon="-8.6550930">
        <ele>162.7</ele>
        <time>2021-05-20T14:39:50Z</time>
      </trkpt>
      <trkpt lat="42.2772300" lon="-8.6550830">
        <ele>162.7</ele>
        <time>2021-05-20T14:39:51Z</time>
      </trkpt>
      <trkpt lat="42.2772460" lon="-8.6550710">
        <ele>162.7</ele>
        <time>2021-05-20T14:39:52Z</time>
      </trkpt>
      <trkpt lat="42.2772640" lon="-8.6550690">
        <ele>162.7</ele>
        <time>2021-05-20T14:39:53Z</time>
      </trkpt>
      <trkpt lat="42.2772730" lon="-8.6550610">
        <ele>162.7</ele>
        <time>2021-05-20T14:39:54Z</time>
      </trkpt>
      <trkpt lat="42.2772860" lon="-8.6550380">
        <ele>162.7</ele>
        <time>2021-05-20T14:39:55Z</time>
      </trkpt>
      <trkpt lat="42.2772920" lon="-8.6550260">
        <ele>162.7</ele>
        <time>2021-05-20T14:39:56Z</time>
      </trkpt>
      <trkpt lat="42.2772970" lon="-8.6550140">
        <ele>162.7</ele>
        <time>2021-05-20T14:39:57Z</time>
      </trkpt>
      <trkpt lat="42.2773130" lon="-8.6550050">
        <ele>162.7</ele>
        <time>2021-05-20T14:39:58Z</time>
      </trkpt>
      <trkpt lat="42.2773310" lon="-8.6550000">
        <ele>162.7</ele>
        <time>2021-05-20T14:39:59Z</time>
      </trkpt>
      <trkpt lat="42.2773400" lon="-8.6549750">
        <ele>162.7</ele>
        <time>2021-05-20T14:40:00Z</time>
      </trkpt>
      <trkpt lat="42.2773490" lon="-8.6549650">
        <ele>162.7</ele>
        <time>2021-05-20T14:40:01Z</time>
      </trkpt>
      <trkpt lat="42.2773570" lon="-8.6549560">
        <ele>162.7</ele>
        <time>2021-05-20T14:40:02Z</time>
      </trkpt>
      <trkpt lat="42.2773590" lon="-8.6549530">
        <ele>162.7</ele>
        <time>2021-05-20T14:40:03Z</time>
      </trkpt>
      <trkpt lat="42.2773680" lon="-8.6549380">
        <ele>162.8</ele>
        <time>2021-05-20T14:40:04Z</time>
      </trkpt>
      <trkpt lat="42.2773750" lon="-8.6549270">
        <ele>162.8</ele>
        <time>2021-05-20T14:40:05Z</time>
      </trkpt>
      <trkpt lat="42.2773910" lon="-8.6549060">
        <ele>162.8</ele>
        <time>2021-05-20T14:40:06Z</time>
      </trkpt>
      <trkpt lat="42.2773930" lon="-8.6549060">
        <ele>162.8</ele>
        <time>2021-05-20T14:40:07Z</time>
      </trkpt>
      <trkpt lat="42.2774020" lon="-8.6548950">
        <ele>162.8</ele>
        <time>2021-05-20T14:40:08Z</time>
      </trkpt>
      <trkpt lat="42.2774060" lon="-8.6548920">
        <ele>162.9</ele>
        <time>2021-05-20T14:40:09Z</time>
      </trkpt>
      <trkpt lat="42.2774120" lon="-8.6548870">
        <ele>162.9</ele>
        <time>2021-05-20T14:40:10Z</time>
      </trkpt>
      <trkpt lat="42.2774140" lon="-8.6548900">
        <ele>162.9</ele>
        <time>2021-05-20T14:40:11Z</time>
      </trkpt>
      <trkpt lat="42.2774140" lon="-8.6548920">
        <ele>162.9</ele>
        <time>2021-05-20T14:40:12Z</time>
      </trkpt>
      <trkpt lat="42.2774120" lon="-8.6549040">
        <ele>162.9</ele>
        <time>2021-05-20T14:40:13Z</time>
      </trkpt>
      <trkpt lat="42.2774130" lon="-8.6549080">
        <ele>162.9</ele>
        <time>2021-05-20T14:40:14Z</time>
      </trkpt>
      <trkpt lat="42.2774150" lon="-8.6549070">
        <ele>162.9</ele>
        <time>2021-05-20T14:40:15Z</time>
      </trkpt>
      <trkpt lat="42.2774130" lon="-8.6549050">
        <ele>162.9</ele>
        <time>2021-05-20T14:40:16Z</time>
      </trkpt>
      <trkpt lat="42.2774120" lon="-8.6549050">
        <ele>162.9</ele>
        <time>2021-05-20T14:40:17Z</time>
      </trkpt>
      <trkpt lat="42.2774110" lon="-8.6549060">
        <ele>162.9</ele>
        <time>2021-05-20T14:40:18Z</time>
      </trkpt>
      <trkpt lat="42.2774100" lon="-8.6549160">
        <ele>162.9</ele>
        <time>2021-05-20T14:40:19Z</time>
      </trkpt>
      <trkpt lat="42.2774230" lon="-8.6549240">
        <ele>163.0</ele>
        <time>2021-05-20T14:40:20Z</time>
      </trkpt>
      <trkpt lat="42.2774310" lon="-8.6549280">
        <ele>163.0</ele>
        <time>2021-05-20T14:40:21Z</time>
      </trkpt>
      <trkpt lat="42.2774380" lon="-8.6549310">
        <ele>163.0</ele>
        <time>2021-05-20T14:40:22Z</time>
      </trkpt>
      <trkpt lat="42.2774410" lon="-8.6549260">
        <ele>163.0</ele>
        <time>2021-05-20T14:40:23Z</time>
      </trkpt>
      <trkpt lat="42.2774470" lon="-8.6549070">
        <ele>163.1</ele>
        <time>2021-05-20T14:40:24Z</time>
      </trkpt>
      <trkpt lat="42.2774560" lon="-8.6548830">
        <ele>163.1</ele>
        <time>2021-05-20T14:40:25Z</time>
      </trkpt>
      <trkpt lat="42.2774600" lon="-8.6548730">
        <ele>163.2</ele>
        <time>2021-05-20T14:40:26Z</time>
      </trkpt>
      <trkpt lat="42.2774630" lon="-8.6548620">
        <ele>163.2</ele>
        <time>2021-05-20T14:40:27Z</time>
      </trkpt>
      <trkpt lat="42.2774670" lon="-8.6548510">
        <ele>163.2</ele>
        <time>2021-05-20T14:40:28Z</time>
      </trkpt>
      <trkpt lat="42.2774720" lon="-8.6548450">
        <ele>163.2</ele>
        <time>2021-05-20T14:40:29Z</time>
      </trkpt>
      <trkpt lat="42.2774800" lon="-8.6548310">
        <ele>163.3</ele>
        <time>2021-05-20T14:40:30Z</time>
      </trkpt>
      <trkpt lat="42.2774860" lon="-8.6548100">
        <ele>163.3</ele>
        <time>2021-05-20T14:40:31Z</time>
      </trkpt>
      <trkpt lat="42.2774910" lon="-8.6547960">
        <ele>163.3</ele>
        <time>2021-05-20T14:40:32Z</time>
      </trkpt>
      <trkpt lat="42.2775040" lon="-8.6547670">
        <ele>163.4</ele>
        <time>2021-05-20T14:40:33Z</time>
      </trkpt>
      <trkpt lat="42.2775100" lon="-8.6547540">
        <ele>163.4</ele>
        <time>2021-05-20T14:40:34Z</time>
      </trkpt>
      <trkpt lat="42.2775160" lon="-8.6547410">
        <ele>163.5</ele>
        <time>2021-05-20T14:40:35Z</time>
      </trkpt>
      <trkpt lat="42.2775250" lon="-8.6547150">
        <ele>163.5</ele>
        <time>2021-05-20T14:40:36Z</time>
      </trkpt>
      <trkpt lat="42.2775280" lon="-8.6547050">
        <ele>163.6</ele>
        <time>2021-05-20T14:40:37Z</time>
      </trkpt>
      <trkpt lat="42.2775400" lon="-8.6546800">
        <ele>163.6</ele>
        <time>2021-05-20T14:40:38Z</time>
      </trkpt>
      <trkpt lat="42.2775450" lon="-8.6546660">
        <ele>163.6</ele>
        <time>2021-05-20T14:40:39Z</time>
      </trkpt>
      <trkpt lat="42.2775500" lon="-8.6546520">
        <ele>163.7</ele>
        <time>2021-05-20T14:40:40Z</time>
      </trkpt>
      <trkpt lat="42.2775490" lon="-8.6546360">
        <ele>163.7</ele>
        <time>2021-05-20T14:40:41Z</time>
      </trkpt>
      <trkpt lat="42.2775560" lon="-8.6546220">
        <ele>163.7</ele>
        <time>2021-05-20T14:40:42Z</time>
      </trkpt>
      <trkpt lat="42.2775610" lon="-8.6546050">
        <ele>163.7</ele>
        <time>2021-05-20T14:40:43Z</time>
      </trkpt>
      <trkpt lat="42.2775640" lon="-8.6545910">
        <ele>163.8</ele>
        <time>2021-05-20T14:40:44Z</time>
      </trkpt>
      <trkpt lat="42.2775710" lon="-8.6545810">
        <ele>163.8</ele>
        <time>2021-05-20T14:40:45Z</time>
      </trkpt>
      <trkpt lat="42.2775770" lon="-8.6545650">
        <ele>163.8</ele>
        <time>2021-05-20T14:40:46Z</time>
      </trkpt>
      <trkpt lat="42.2775890" lon="-8.6545370">
        <ele>163.8</ele>
        <time>2021-05-20T14:40:47Z</time>
      </trkpt>
      <trkpt lat="42.2775930" lon="-8.6545280">
        <ele>163.9</ele>
        <time>2021-05-20T14:40:48Z</time>
      </trkpt>
      <trkpt lat="42.2775980" lon="-8.6545180">
        <ele>163.9</ele>
        <time>2021-05-20T14:40:49Z</time>
      </trkpt>
      <trkpt lat="42.2776050" lon="-8.6545080">
        <ele>163.9</ele>
        <time>2021-05-20T14:40:50Z</time>
      </trkpt>
      <trkpt lat="42.2776070" lon="-8.6544990">
        <ele>163.9</ele>
        <time>2021-05-20T14:40:51Z</time>
      </trkpt>
      <trkpt lat="42.2776150" lon="-8.6544800">
        <ele>163.9</ele>
        <time>2021-05-20T14:40:52Z</time>
      </trkpt>
      <trkpt lat="42.2776190" lon="-8.6544600">
        <ele>163.9</ele>
        <time>2021-05-20T14:40:53Z</time>
      </trkpt>
      <trkpt lat="42.2776190" lon="-8.6544460">
        <ele>163.9</ele>
        <time>2021-05-20T14:40:54Z</time>
      </trkpt>
      <trkpt lat="42.2776210" lon="-8.6544400">
        <ele>163.9</ele>
        <time>2021-05-20T14:40:55Z</time>
      </trkpt>
      <trkpt lat="42.2776290" lon="-8.6544340">
        <ele>163.9</ele>
        <time>2021-05-20T14:40:56Z</time>
      </trkpt>
      <trkpt lat="42.2776350" lon="-8.6544360">
        <ele>163.9</ele>
        <time>2021-05-20T14:40:57Z</time>
      </trkpt>
      <trkpt lat="42.2776340" lon="-8.6544410">
        <ele>163.9</ele>
        <time>2021-05-20T14:40:58Z</time>
      </trkpt>
      <trkpt lat="42.2776320" lon="-8.6544420">
        <ele>163.9</ele>
        <time>2021-05-20T14:40:59Z</time>
      </trkpt>
      <trkpt lat="42.2776340" lon="-8.6544440">
        <ele>163.9</ele>
        <time>2021-05-20T14:41:00Z</time>
      </trkpt>
      <trkpt lat="42.2776330" lon="-8.6544450">
        <ele>163.9</ele>
        <time>2021-05-20T14:41:01Z</time>
      </trkpt>
      <trkpt lat="42.2776330" lon="-8.6544450">
        <ele>163.9</ele>
        <time>2021-05-20T14:41:02Z</time>
      </trkpt>
      <trkpt lat="42.2776310" lon="-8.6544440">
        <ele>163.9</ele>
        <time>2021-05-20T14:41:03Z</time>
      </trkpt>
      <trkpt lat="42.2776210" lon="-8.6544430">
        <ele>163.9</ele>
        <time>2021-05-20T14:41:04Z</time>
      </trkpt>
      <trkpt lat="42.2776210" lon="-8.6544420">
        <ele>163.9</ele>
        <time>2021-05-20T14:41:05Z</time>
      </trkpt>
      <trkpt lat="42.2776210" lon="-8.6544420">
        <ele>163.9</ele>
        <time>2021-05-20T14:41:06Z</time>
      </trkpt>
      <trkpt lat="42.2776190" lon="-8.6544430">
        <ele>164.0</ele>
        <time>2021-05-20T14:41:07Z</time>
      </trkpt>
      <trkpt lat="42.2776180" lon="-8.6544440">
        <ele>164.0</ele>
        <time>2021-05-20T14:41:08Z</time>
      </trkpt>
      <trkpt lat="42.2776180" lon="-8.6544420">
        <ele>164.0</ele>
        <time>2021-05-20T14:41:09Z</time>
      </trkpt>
      <trkpt lat="42.2776210" lon="-8.6544360">
        <ele>164.0</ele>
        <time>2021-05-20T14:41:10Z</time>
      </trkpt>
      <trkpt lat="42.2776270" lon="-8.6544470">
        <ele>164.0</ele>
        <time>2021-05-20T14:41:11Z</time>
      </trkpt>
      <trkpt lat="42.2776290" lon="-8.6544470">
        <ele>164.0</ele>
        <time>2021-05-20T14:41:12Z</time>
      </trkpt>
      <trkpt lat="42.2776310" lon="-8.6544470">
        <ele>164.0</ele>
        <time>2021-05-20T14:41:13Z</time>
      </trkpt>
      <trkpt lat="42.2776380" lon="-8.6544320">
        <ele>164.0</ele>
        <time>2021-05-20T14:41:14Z</time>
      </trkpt>
      <trkpt lat="42.2776460" lon="-8.6544200">
        <ele>164.0</ele>
        <time>2021-05-20T14:41:15Z</time>
      </trkpt>
      <trkpt lat="42.2776590" lon="-8.6544070">
        <ele>164.0</ele>
        <time>2021-05-20T14:41:16Z</time>
      </trkpt>
      <trkpt lat="42.2776670" lon="-8.6543930">
        <ele>164.0</ele>
        <time>2021-05-20T14:41:18Z</time>
      </trkpt>
      <trkpt lat="42.2776710" lon="-8.6543820">
        <ele>164.0</ele>
        <time>2021-05-20T14:41:19Z</time>
      </trkpt>
      <trkpt lat="42.2776810" lon="-8.6543700">
        <ele>164.0</ele>
        <time>2021-05-20T14:41:20Z</time>
      </trkpt>
      <trkpt lat="42.2776900" lon="-8.6543590">
        <ele>164.0</ele>
        <time>2021-05-20T14:41:21Z</time>
      </trkpt>
      <trkpt lat="42.2777040" lon="-8.6543390">
        <ele>164.0</ele>
        <time>2021-05-20T14:41:22Z</time>
      </trkpt>
      <trkpt lat="42.2777100" lon="-8.6543310">
        <ele>164.0</ele>
        <time>2021-05-20T14:41:23Z</time>
      </trkpt>
      <trkpt lat="42.2777170" lon="-8.6543230">
        <ele>164.0</ele>
        <time>2021-05-20T14:41:24Z</time>
      </trkpt>
      <trkpt lat="42.2777220" lon="-8.6543150">
        <ele>164.0</ele>
        <time>2021-05-20T14:41:25Z</time>
      </trkpt>
      <trkpt lat="42.2777320" lon="-8.6543020">
        <ele>164.0</ele>
        <time>2021-05-20T14:41:26Z</time>
      </trkpt>
      <trkpt lat="42.2777360" lon="-8.6542880">
        <ele>164.0</ele>
        <time>2021-05-20T14:41:27Z</time>
      </trkpt>
      <trkpt lat="42.2777510" lon="-8.6542660">
        <ele>164.0</ele>
        <time>2021-05-20T14:41:28Z</time>
      </trkpt>
      <trkpt lat="42.2777560" lon="-8.6542600">
        <ele>164.1</ele>
        <time>2021-05-20T14:41:29Z</time>
      </trkpt>
      <trkpt lat="42.2777620" lon="-8.6542540">
        <ele>164.1</ele>
        <time>2021-05-20T14:41:30Z</time>
      </trkpt>
      <trkpt lat="42.2777700" lon="-8.6542490">
        <ele>164.1</ele>
        <time>2021-05-20T14:41:31Z</time>
      </trkpt>
      <trkpt lat="42.2777770" lon="-8.6542410">
        <ele>164.1</ele>
        <time>2021-05-20T14:41:32Z</time>
      </trkpt>
      <trkpt lat="42.2777900" lon="-8.6542300">
        <ele>164.1</ele>
        <time>2021-05-20T14:41:33Z</time>
      </trkpt>
      <trkpt lat="42.2777990" lon="-8.6542290">
        <ele>164.1</ele>
        <time>2021-05-20T14:41:34Z</time>
      </trkpt>
      <trkpt lat="42.2778100" lon="-8.6542180">
        <ele>164.1</ele>
        <time>2021-05-20T14:41:35Z</time>
      </trkpt>
      <trkpt lat="42.2778200" lon="-8.6542070">
        <ele>164.1</ele>
        <time>2021-05-20T14:41:36Z</time>
      </trkpt>
      <trkpt lat="42.2778330" lon="-8.6541950">
        <ele>164.1</ele>
        <time>2021-05-20T14:41:37Z</time>
      </trkpt>
      <trkpt lat="42.2778450" lon="-8.6541900">
        <ele>164.1</ele>
        <time>2021-05-20T14:41:38Z</time>
      </trkpt>
      <trkpt lat="42.2778570" lon="-8.6541800">
        <ele>164.1</ele>
        <time>2021-05-20T14:41:39Z</time>
      </trkpt>
      <trkpt lat="42.2778620" lon="-8.6541770">
        <ele>164.1</ele>
        <time>2021-05-20T14:41:40Z</time>
      </trkpt>
      <trkpt lat="42.2778740" lon="-8.6541650">
        <ele>164.1</ele>
        <time>2021-05-20T14:41:41Z</time>
      </trkpt>
      <trkpt lat="42.2778910" lon="-8.6541540">
        <ele>164.1</ele>
        <time>2021-05-20T14:41:42Z</time>
      </trkpt>
      <trkpt lat="42.2778990" lon="-8.6541490">
        <ele>164.1</ele>
        <time>2021-05-20T14:41:43Z</time>
      </trkpt>
      <trkpt lat="42.2779070" lon="-8.6541430">
        <ele>164.1</ele>
        <time>2021-05-20T14:41:44Z</time>
      </trkpt>
      <trkpt lat="42.2779240" lon="-8.6541330">
        <ele>164.1</ele>
        <time>2021-05-20T14:41:45Z</time>
      </trkpt>
      <trkpt lat="42.2779330" lon="-8.6541280">
        <ele>164.1</ele>
        <time>2021-05-20T14:41:46Z</time>
      </trkpt>
      <trkpt lat="42.2779420" lon="-8.6541240">
        <ele>164.1</ele>
        <time>2021-05-20T14:41:47Z</time>
      </trkpt>
      <trkpt lat="42.2779510" lon="-8.6541220">
        <ele>164.1</ele>
        <time>2021-05-20T14:41:48Z</time>
      </trkpt>
      <trkpt lat="42.2779640" lon="-8.6541130">
        <ele>164.1</ele>
        <time>2021-05-20T14:41:49Z</time>
      </trkpt>
      <trkpt lat="42.2779740" lon="-8.6541020">
        <ele>164.1</ele>
        <time>2021-05-20T14:41:50Z</time>
      </trkpt>
      <trkpt lat="42.2779900" lon="-8.6540900">
        <ele>164.1</ele>
        <time>2021-05-20T14:41:51Z</time>
      </trkpt>
      <trkpt lat="42.2779980" lon="-8.6540760">
        <ele>164.1</ele>
        <time>2021-05-20T14:41:52Z</time>
      </trkpt>
      <trkpt lat="42.2780030" lon="-8.6540670">
        <ele>164.1</ele>
        <time>2021-05-20T14:41:53Z</time>
      </trkpt>
      <trkpt lat="42.2780100" lon="-8.6540530">
        <ele>164.1</ele>
        <time>2021-05-20T14:41:54Z</time>
      </trkpt>
      <trkpt lat="42.2780150" lon="-8.6540410">
        <ele>164.1</ele>
        <time>2021-05-20T14:41:55Z</time>
      </trkpt>
      <trkpt lat="42.2780250" lon="-8.6540320">
        <ele>164.2</ele>
        <time>2021-05-20T14:41:56Z</time>
      </trkpt>
      <trkpt lat="42.2780350" lon="-8.6540210">
        <ele>164.2</ele>
        <time>2021-05-20T14:41:57Z</time>
      </trkpt>
      <trkpt lat="42.2780370" lon="-8.6540090">
        <ele>164.2</ele>
        <time>2021-05-20T14:41:58Z</time>
      </trkpt>
      <trkpt lat="42.2780580" lon="-8.6539910">
        <ele>164.2</ele>
        <time>2021-05-20T14:41:59Z</time>
      </trkpt>
      <trkpt lat="42.2780660" lon="-8.6539830">
        <ele>164.2</ele>
        <time>2021-05-20T14:42:00Z</time>
      </trkpt>
      <trkpt lat="42.2780740" lon="-8.6539750">
        <ele>164.2</ele>
        <time>2021-05-20T14:42:01Z</time>
      </trkpt>
      <trkpt lat="42.2780800" lon="-8.6539620">
        <ele>164.2</ele>
        <time>2021-05-20T14:42:02Z</time>
      </trkpt>
      <trkpt lat="42.2780910" lon="-8.6539500">
        <ele>164.3</ele>
        <time>2021-05-20T14:42:03Z</time>
      </trkpt>
      <trkpt lat="42.2780970" lon="-8.6539400">
        <ele>164.3</ele>
        <time>2021-05-20T14:42:04Z</time>
      </trkpt>
      <trkpt lat="42.2781080" lon="-8.6539340">
        <ele>164.3</ele>
        <time>2021-05-20T14:42:05Z</time>
      </trkpt>
      <trkpt lat="42.2781140" lon="-8.6539150">
        <ele>164.3</ele>
        <time>2021-05-20T14:42:06Z</time>
      </trkpt>
      <trkpt lat="42.2781220" lon="-8.6539100">
        <ele>164.3</ele>
        <time>2021-05-20T14:42:07Z</time>
      </trkpt>
      <trkpt lat="42.2781250" lon="-8.6538950">
        <ele>164.3</ele>
        <time>2021-05-20T14:42:08Z</time>
      </trkpt>
      <trkpt lat="42.2781370" lon="-8.6538890">
        <ele>164.3</ele>
        <time>2021-05-20T14:42:09Z</time>
      </trkpt>
      <trkpt lat="42.2781420" lon="-8.6538810">
        <ele>164.4</ele>
        <time>2021-05-20T14:42:10Z</time>
      </trkpt>
      <trkpt lat="42.2781530" lon="-8.6538670">
        <ele>164.4</ele>
        <time>2021-05-20T14:42:11Z</time>
      </trkpt>
      <trkpt lat="42.2781740" lon="-8.6538610">
        <ele>164.4</ele>
        <time>2021-05-20T14:42:12Z</time>
      </trkpt>
      <trkpt lat="42.2781820" lon="-8.6538460">
        <ele>164.4</ele>
        <time>2021-05-20T14:42:13Z</time>
      </trkpt>
      <trkpt lat="42.2781890" lon="-8.6538360">
        <ele>164.4</ele>
        <time>2021-05-20T14:42:14Z</time>
      </trkpt>
      <trkpt lat="42.2781960" lon="-8.6538220">
        <ele>164.4</ele>
        <time>2021-05-20T14:42:15Z</time>
      </trkpt>
      <trkpt lat="42.2782080" lon="-8.6538010">
        <ele>164.5</ele>
        <time>2021-05-20T14:42:16Z</time>
      </trkpt>
      <trkpt lat="42.2782160" lon="-8.6537940">
        <ele>164.5</ele>
        <time>2021-05-20T14:42:17Z</time>
      </trkpt>
      <trkpt lat="42.2782230" lon="-8.6537880">
        <ele>164.5</ele>
        <time>2021-05-20T14:42:18Z</time>
      </trkpt>
      <trkpt lat="42.2782380" lon="-8.6537780">
        <ele>164.5</ele>
        <time>2021-05-20T14:42:19Z</time>
      </trkpt>
      <trkpt lat="42.2782490" lon="-8.6537720">
        <ele>164.5</ele>
        <time>2021-05-20T14:42:20Z</time>
      </trkpt>
      <trkpt lat="42.2782600" lon="-8.6537630">
        <ele>164.5</ele>
        <time>2021-05-20T14:42:21Z</time>
      </trkpt>
      <trkpt lat="42.2782720" lon="-8.6537510">
        <ele>164.5</ele>
        <time>2021-05-20T14:42:22Z</time>
      </trkpt>
      <trkpt lat="42.2782800" lon="-8.6537480">
        <ele>164.5</ele>
        <time>2021-05-20T14:42:23Z</time>
      </trkpt>
      <trkpt lat="42.2782940" lon="-8.6537360">
        <ele>164.5</ele>
        <time>2021-05-20T14:42:24Z</time>
      </trkpt>
      <trkpt lat="42.2783030" lon="-8.6537280">
        <ele>164.5</ele>
        <time>2021-05-20T14:42:25Z</time>
      </trkpt>
      <trkpt lat="42.2783150" lon="-8.6537120">
        <ele>164.5</ele>
        <time>2021-05-20T14:42:26Z</time>
      </trkpt>
      <trkpt lat="42.2783260" lon="-8.6537030">
        <ele>164.5</ele>
        <time>2021-05-20T14:42:27Z</time>
      </trkpt>
      <trkpt lat="42.2783370" lon="-8.6536810">
        <ele>164.5</ele>
        <time>2021-05-20T14:42:28Z</time>
      </trkpt>
      <trkpt lat="42.2783380" lon="-8.6536750">
        <ele>164.5</ele>
        <time>2021-05-20T14:42:29Z</time>
      </trkpt>
      <trkpt lat="42.2783470" lon="-8.6536680">
        <ele>164.5</ele>
        <time>2021-05-20T14:42:30Z</time>
      </trkpt>
      <trkpt lat="42.2783590" lon="-8.6536550">
        <ele>164.5</ele>
        <time>2021-05-20T14:42:31Z</time>
      </trkpt>
      <trkpt lat="42.2783770" lon="-8.6536510">
        <ele>164.5</ele>
        <time>2021-05-20T14:42:32Z</time>
      </trkpt>
      <trkpt lat="42.2783820" lon="-8.6536440">
        <ele>164.5</ele>
        <time>2021-05-20T14:42:33Z</time>
      </trkpt>
      <trkpt lat="42.2783960" lon="-8.6536300">
        <ele>164.5</ele>
        <time>2021-05-20T14:42:34Z</time>
      </trkpt>
      <trkpt lat="42.2784040" lon="-8.6536210">
        <ele>164.5</ele>
        <time>2021-05-20T14:42:35Z</time>
      </trkpt>
      <trkpt lat="42.2784150" lon="-8.6536160">
        <ele>164.5</ele>
        <time>2021-05-20T14:42:36Z</time>
      </trkpt>
      <trkpt lat="42.2784310" lon="-8.6536090">
        <ele>164.5</ele>
        <time>2021-05-20T14:42:37Z</time>
      </trkpt>
      <trkpt lat="42.2784390" lon="-8.6535980">
        <ele>164.5</ele>
        <time>2021-05-20T14:42:38Z</time>
      </trkpt>
      <trkpt lat="42.2784450" lon="-8.6535990">
        <ele>164.5</ele>
        <time>2021-05-20T14:42:39Z</time>
      </trkpt>
      <trkpt lat="42.2784560" lon="-8.6535880">
        <ele>164.5</ele>
        <time>2021-05-20T14:42:40Z</time>
      </trkpt>
      <trkpt lat="42.2784820" lon="-8.6535580">
        <ele>164.5</ele>
        <time>2021-05-20T14:42:41Z</time>
      </trkpt>
      <trkpt lat="42.2784910" lon="-8.6535550">
        <ele>164.5</ele>
        <time>2021-05-20T14:42:42Z</time>
      </trkpt>
      <trkpt lat="42.2785020" lon="-8.6535340">
        <ele>164.5</ele>
        <time>2021-05-20T14:42:43Z</time>
      </trkpt>
      <trkpt lat="42.2785120" lon="-8.6535290">
        <ele>164.5</ele>
        <time>2021-05-20T14:42:44Z</time>
      </trkpt>
      <trkpt lat="42.2785210" lon="-8.6535250">
        <ele>164.5</ele>
        <time>2021-05-20T14:42:45Z</time>
      </trkpt>
      <trkpt lat="42.2785390" lon="-8.6535120">
        <ele>164.5</ele>
        <time>2021-05-20T14:42:46Z</time>
      </trkpt>
      <trkpt lat="42.2785540" lon="-8.6535140">
        <ele>164.5</ele>
        <time>2021-05-20T14:42:47Z</time>
      </trkpt>
      <trkpt lat="42.2785690" lon="-8.6535160">
        <ele>164.5</ele>
        <time>2021-05-20T14:42:48Z</time>
      </trkpt>
      <trkpt lat="42.2785770" lon="-8.6535060">
        <ele>164.5</ele>
        <time>2021-05-20T14:42:49Z</time>
      </trkpt>
      <trkpt lat="42.2785890" lon="-8.6534980">
        <ele>164.5</ele>
        <time>2021-05-20T14:42:50Z</time>
      </trkpt>
      <trkpt lat="42.2785960" lon="-8.6534880">
        <ele>164.5</ele>
        <time>2021-05-20T14:42:51Z</time>
      </trkpt>
      <trkpt lat="42.2786060" lon="-8.6534830">
        <ele>164.5</ele>
        <time>2021-05-20T14:42:52Z</time>
      </trkpt>
      <trkpt lat="42.2786150" lon="-8.6534740">
        <ele>164.5</ele>
        <time>2021-05-20T14:42:53Z</time>
      </trkpt>
      <trkpt lat="42.2786280" lon="-8.6534680">
        <ele>164.5</ele>
        <time>2021-05-20T14:42:54Z</time>
      </trkpt>
      <trkpt lat="42.2786450" lon="-8.6534620">
        <ele>164.5</ele>
        <time>2021-05-20T14:42:55Z</time>
      </trkpt>
      <trkpt lat="42.2786540" lon="-8.6534490">
        <ele>164.5</ele>
        <time>2021-05-20T14:42:56Z</time>
      </trkpt>
      <trkpt lat="42.2786590" lon="-8.6534390">
        <ele>164.5</ele>
        <time>2021-05-20T14:42:57Z</time>
      </trkpt>
      <trkpt lat="42.2786690" lon="-8.6534340">
        <ele>164.5</ele>
        <time>2021-05-20T14:42:58Z</time>
      </trkpt>
      <trkpt lat="42.2786770" lon="-8.6534230">
        <ele>164.5</ele>
        <time>2021-05-20T14:42:59Z</time>
      </trkpt>
      <trkpt lat="42.2786850" lon="-8.6534130">
        <ele>164.5</ele>
        <time>2021-05-20T14:43:00Z</time>
      </trkpt>
      <trkpt lat="42.2786880" lon="-8.6533980">
        <ele>164.5</ele>
        <time>2021-05-20T14:43:01Z</time>
      </trkpt>
      <trkpt lat="42.2786970" lon="-8.6533810">
        <ele>164.5</ele>
        <time>2021-05-20T14:43:02Z</time>
      </trkpt>
      <trkpt lat="42.2787100" lon="-8.6533730">
        <ele>164.5</ele>
        <time>2021-05-20T14:43:03Z</time>
      </trkpt>
      <trkpt lat="42.2787200" lon="-8.6533610">
        <ele>164.5</ele>
        <time>2021-05-20T14:43:04Z</time>
      </trkpt>
      <trkpt lat="42.2787300" lon="-8.6533550">
        <ele>164.5</ele>
        <time>2021-05-20T14:43:05Z</time>
      </trkpt>
      <trkpt lat="42.2787350" lon="-8.6533470">
        <ele>164.5</ele>
        <time>2021-05-20T14:43:06Z</time>
      </trkpt>
      <trkpt lat="42.2787530" lon="-8.6533230">
        <ele>164.5</ele>
        <time>2021-05-20T14:43:07Z</time>
      </trkpt>
      <trkpt lat="42.2787590" lon="-8.6533170">
        <ele>164.5</ele>
        <time>2021-05-20T14:43:08Z</time>
      </trkpt>
      <trkpt lat="42.2787660" lon="-8.6533100">
        <ele>164.5</ele>
        <time>2021-05-20T14:43:09Z</time>
      </trkpt>
      <trkpt lat="42.2787810" lon="-8.6533030">
        <ele>164.6</ele>
        <time>2021-05-20T14:43:10Z</time>
      </trkpt>
      <trkpt lat="42.2787940" lon="-8.6532950">
        <ele>164.6</ele>
        <time>2021-05-20T14:43:11Z</time>
      </trkpt>
      <trkpt lat="42.2788050" lon="-8.6532870">
        <ele>164.6</ele>
        <time>2021-05-20T14:43:12Z</time>
      </trkpt>
      <trkpt lat="42.2788180" lon="-8.6532740">
        <ele>164.6</ele>
        <time>2021-05-20T14:43:13Z</time>
      </trkpt>
      <trkpt lat="42.2788200" lon="-8.6532640">
        <ele>164.6</ele>
        <time>2021-05-20T14:43:14Z</time>
      </trkpt>
      <trkpt lat="42.2788210" lon="-8.6532500">
        <ele>164.6</ele>
        <time>2021-05-20T14:43:15Z</time>
      </trkpt>
      <trkpt lat="42.2788310" lon="-8.6532410">
        <ele>164.6</ele>
        <time>2021-05-20T14:43:16Z</time>
      </trkpt>
      <trkpt lat="42.2788390" lon="-8.6532280">
        <ele>164.6</ele>
        <time>2021-05-20T14:43:17Z</time>
      </trkpt>
      <trkpt lat="42.2788550" lon="-8.6532190">
        <ele>164.6</ele>
        <time>2021-05-20T14:43:18Z</time>
      </trkpt>
      <trkpt lat="42.2788690" lon="-8.6532130">
        <ele>164.6</ele>
        <time>2021-05-20T14:43:19Z</time>
      </trkpt>
      <trkpt lat="42.2788830" lon="-8.6532050">
        <ele>164.6</ele>
        <time>2021-05-20T14:43:20Z</time>
      </trkpt>
      <trkpt lat="42.2788870" lon="-8.6531920">
        <ele>164.6</ele>
        <time>2021-05-20T14:43:21Z</time>
      </trkpt>
      <trkpt lat="42.2788900" lon="-8.6531780">
        <ele>164.6</ele>
        <time>2021-05-20T14:43:22Z</time>
      </trkpt>
      <trkpt lat="42.2788960" lon="-8.6531610">
        <ele>164.6</ele>
        <time>2021-05-20T14:43:23Z</time>
      </trkpt>
      <trkpt lat="42.2789170" lon="-8.6531460">
        <ele>164.6</ele>
        <time>2021-05-20T14:43:24Z</time>
      </trkpt>
      <trkpt lat="42.2789240" lon="-8.6531370">
        <ele>164.6</ele>
        <time>2021-05-20T14:43:25Z</time>
      </trkpt>
      <trkpt lat="42.2789320" lon="-8.6531290">
        <ele>164.6</ele>
        <time>2021-05-20T14:43:26Z</time>
      </trkpt>
      <trkpt lat="42.2789440" lon="-8.6531160">
        <ele>164.6</ele>
        <time>2021-05-20T14:43:27Z</time>
      </trkpt>
      <trkpt lat="42.2789540" lon="-8.6531080">
        <ele>164.6</ele>
        <time>2021-05-20T14:43:28Z</time>
      </trkpt>
      <trkpt lat="42.2789640" lon="-8.6530970">
        <ele>164.6</ele>
        <time>2021-05-20T14:43:29Z</time>
      </trkpt>
      <trkpt lat="42.2789720" lon="-8.6530920">
        <ele>164.6</ele>
        <time>2021-05-20T14:43:30Z</time>
      </trkpt>
      <trkpt lat="42.2789790" lon="-8.6530860">
        <ele>164.6</ele>
        <time>2021-05-20T14:43:31Z</time>
      </trkpt>
      <trkpt lat="42.2789870" lon="-8.6530800">
        <ele>164.6</ele>
        <time>2021-05-20T14:43:32Z</time>
      </trkpt>
      <trkpt lat="42.2790020" lon="-8.6530780">
        <ele>164.6</ele>
        <time>2021-05-20T14:43:33Z</time>
      </trkpt>
      <trkpt lat="42.2790170" lon="-8.6530630">
        <ele>164.6</ele>
        <time>2021-05-20T14:43:34Z</time>
      </trkpt>
      <trkpt lat="42.2790150" lon="-8.6530550">
        <ele>164.6</ele>
        <time>2021-05-20T14:43:35Z</time>
      </trkpt>
      <trkpt lat="42.2790210" lon="-8.6530410">
        <ele>164.6</ele>
        <time>2021-05-20T14:43:36Z</time>
      </trkpt>
      <trkpt lat="42.2790300" lon="-8.6530290">
        <ele>164.6</ele>
        <time>2021-05-20T14:43:37Z</time>
      </trkpt>
      <trkpt lat="42.2790470" lon="-8.6530100">
        <ele>164.6</ele>
        <time>2021-05-20T14:43:38Z</time>
      </trkpt>
      <trkpt lat="42.2790550" lon="-8.6530030">
        <ele>164.6</ele>
        <time>2021-05-20T14:43:40Z</time>
      </trkpt>
      <trkpt lat="42.2790640" lon="-8.6529970">
        <ele>164.6</ele>
        <time>2021-05-20T14:43:41Z</time>
      </trkpt>
      <trkpt lat="42.2790780" lon="-8.6529920">
        <ele>164.6</ele>
        <time>2021-05-20T14:43:42Z</time>
      </trkpt>
      <trkpt lat="42.2790970" lon="-8.6529970">
        <ele>164.6</ele>
        <time>2021-05-20T14:43:43Z</time>
      </trkpt>
      <trkpt lat="42.2791170" lon="-8.6530000">
        <ele>164.6</ele>
        <time>2021-05-20T14:43:44Z</time>
      </trkpt>
      <trkpt lat="42.2791270" lon="-8.6530010">
        <ele>164.6</ele>
        <time>2021-05-20T14:43:45Z</time>
      </trkpt>
      <trkpt lat="42.2791360" lon="-8.6530010">
        <ele>164.6</ele>
        <time>2021-05-20T14:43:46Z</time>
      </trkpt>
      <trkpt lat="42.2791430" lon="-8.6529960">
        <ele>164.6</ele>
        <time>2021-05-20T14:43:47Z</time>
      </trkpt>
      <trkpt lat="42.2791560" lon="-8.6529830">
        <ele>164.6</ele>
        <time>2021-05-20T14:43:48Z</time>
      </trkpt>
      <trkpt lat="42.2791620" lon="-8.6529720">
        <ele>164.6</ele>
        <time>2021-05-20T14:43:49Z</time>
      </trkpt>
      <trkpt lat="42.2791710" lon="-8.6529540">
        <ele>164.6</ele>
        <time>2021-05-20T14:43:50Z</time>
      </trkpt>
      <trkpt lat="42.2791820" lon="-8.6529440">
        <ele>164.6</ele>
        <time>2021-05-20T14:43:51Z</time>
      </trkpt>
      <trkpt lat="42.2791840" lon="-8.6529330">
        <ele>164.6</ele>
        <time>2021-05-20T14:43:52Z</time>
      </trkpt>
      <trkpt lat="42.2791980" lon="-8.6529270">
        <ele>164.6</ele>
        <time>2021-05-20T14:43:53Z</time>
      </trkpt>
      <trkpt lat="42.2792070" lon="-8.6529200">
        <ele>164.6</ele>
        <time>2021-05-20T14:43:54Z</time>
      </trkpt>
      <trkpt lat="42.2792160" lon="-8.6529130">
        <ele>164.6</ele>
        <time>2021-05-20T14:43:55Z</time>
      </trkpt>
      <trkpt lat="42.2792300" lon="-8.6529010">
        <ele>164.6</ele>
        <time>2021-05-20T14:43:56Z</time>
      </trkpt>
      <trkpt lat="42.2792480" lon="-8.6528960">
        <ele>164.6</ele>
        <time>2021-05-20T14:43:57Z</time>
      </trkpt>
      <trkpt lat="42.2792580" lon="-8.6528820">
        <ele>164.6</ele>
        <time>2021-05-20T14:43:58Z</time>
      </trkpt>
      <trkpt lat="42.2792670" lon="-8.6528600">
        <ele>164.6</ele>
        <time>2021-05-20T14:43:59Z</time>
      </trkpt>
      <trkpt lat="42.2792750" lon="-8.6528520">
        <ele>164.6</ele>
        <time>2021-05-20T14:44:00Z</time>
      </trkpt>
      <trkpt lat="42.2792820" lon="-8.6528430">
        <ele>164.6</ele>
        <time>2021-05-20T14:44:01Z</time>
      </trkpt>
      <trkpt lat="42.2792860" lon="-8.6528290">
        <ele>164.6</ele>
        <time>2021-05-20T14:44:02Z</time>
      </trkpt>
      <trkpt lat="42.2792910" lon="-8.6528130">
        <ele>164.6</ele>
        <time>2021-05-20T14:44:03Z</time>
      </trkpt>
      <trkpt lat="42.2792980" lon="-8.6527980">
        <ele>164.6</ele>
        <time>2021-05-20T14:44:04Z</time>
      </trkpt>
      <trkpt lat="42.2793130" lon="-8.6527710">
        <ele>164.6</ele>
        <time>2021-05-20T14:44:05Z</time>
      </trkpt>
      <trkpt lat="42.2793210" lon="-8.6527610">
        <ele>164.6</ele>
        <time>2021-05-20T14:44:06Z</time>
      </trkpt>
      <trkpt lat="42.2793280" lon="-8.6527520">
        <ele>164.6</ele>
        <time>2021-05-20T14:44:07Z</time>
      </trkpt>
      <trkpt lat="42.2793390" lon="-8.6527260">
        <ele>164.6</ele>
        <time>2021-05-20T14:44:08Z</time>
      </trkpt>
      <trkpt lat="42.2793410" lon="-8.6527140">
        <ele>164.6</ele>
        <time>2021-05-20T14:44:09Z</time>
      </trkpt>
      <trkpt lat="42.2793430" lon="-8.6527030">
        <ele>164.6</ele>
        <time>2021-05-20T14:44:10Z</time>
      </trkpt>
      <trkpt lat="42.2793440" lon="-8.6526900">
        <ele>164.6</ele>
        <time>2021-05-20T14:44:11Z</time>
      </trkpt>
      <trkpt lat="42.2793440" lon="-8.6526760">
        <ele>164.6</ele>
        <time>2021-05-20T14:44:12Z</time>
      </trkpt>
      <trkpt lat="42.2793440" lon="-8.6526610">
        <ele>164.6</ele>
        <time>2021-05-20T14:44:13Z</time>
      </trkpt>
      <trkpt lat="42.2793510" lon="-8.6526480">
        <ele>164.6</ele>
        <time>2021-05-20T14:44:14Z</time>
      </trkpt>
      <trkpt lat="42.2793570" lon="-8.6526380">
        <ele>164.5</ele>
        <time>2021-05-20T14:44:15Z</time>
      </trkpt>
      <trkpt lat="42.2793660" lon="-8.6526220">
        <ele>164.5</ele>
        <time>2021-05-20T14:44:16Z</time>
      </trkpt>
      <trkpt lat="42.2793710" lon="-8.6526030">
        <ele>164.5</ele>
        <time>2021-05-20T14:44:17Z</time>
      </trkpt>
      <trkpt lat="42.2793760" lon="-8.6525820">
        <ele>164.5</ele>
        <time>2021-05-20T14:44:18Z</time>
      </trkpt>
      <trkpt lat="42.2793810" lon="-8.6525680">
        <ele>164.5</ele>
        <time>2021-05-20T14:44:19Z</time>
      </trkpt>
      <trkpt lat="42.2793910" lon="-8.6525530">
        <ele>164.5</ele>
        <time>2021-05-20T14:44:20Z</time>
      </trkpt>
      <trkpt lat="42.2793970" lon="-8.6525450">
        <ele>164.4</ele>
        <time>2021-05-20T14:44:21Z</time>
      </trkpt>
      <trkpt lat="42.2794170" lon="-8.6525220">
        <ele>164.4</ele>
        <time>2021-05-20T14:44:22Z</time>
      </trkpt>
      <trkpt lat="42.2794230" lon="-8.6525100">
        <ele>164.4</ele>
        <time>2021-05-20T14:44:23Z</time>
      </trkpt>
      <trkpt lat="42.2794310" lon="-8.6524960">
        <ele>164.4</ele>
        <time>2021-05-20T14:44:24Z</time>
      </trkpt>
      <trkpt lat="42.2794420" lon="-8.6524810">
        <ele>164.4</ele>
        <time>2021-05-20T14:44:25Z</time>
      </trkpt>
      <trkpt lat="42.2794570" lon="-8.6524610">
        <ele>164.3</ele>
        <time>2021-05-20T14:44:26Z</time>
      </trkpt>
      <trkpt lat="42.2794620" lon="-8.6524530">
        <ele>164.3</ele>
        <time>2021-05-20T14:44:27Z</time>
      </trkpt>
      <trkpt lat="42.2794680" lon="-8.6524450">
        <ele>164.3</ele>
        <time>2021-05-20T14:44:28Z</time>
      </trkpt>
      <trkpt lat="42.2794820" lon="-8.6524290">
        <ele>164.3</ele>
        <time>2021-05-20T14:44:29Z</time>
      </trkpt>
      <trkpt lat="42.2794870" lon="-8.6524280">
        <ele>164.3</ele>
        <time>2021-05-20T14:44:30Z</time>
      </trkpt>
      <trkpt lat="42.2794990" lon="-8.6524240">
        <ele>164.2</ele>
        <time>2021-05-20T14:44:31Z</time>
      </trkpt>
      <trkpt lat="42.2795120" lon="-8.6524200">
        <ele>164.2</ele>
        <time>2021-05-20T14:44:32Z</time>
      </trkpt>
      <trkpt lat="42.2795240" lon="-8.6524170">
        <ele>164.2</ele>
        <time>2021-05-20T14:44:33Z</time>
      </trkpt>
      <trkpt lat="42.2795320" lon="-8.6524190">
        <ele>164.2</ele>
        <time>2021-05-20T14:44:34Z</time>
      </trkpt>
      <trkpt lat="42.2795500" lon="-8.6524260">
        <ele>164.2</ele>
        <time>2021-05-20T14:44:35Z</time>
      </trkpt>
      <trkpt lat="42.2795640" lon="-8.6524240">
        <ele>164.2</ele>
        <time>2021-05-20T14:44:36Z</time>
      </trkpt>
      <trkpt lat="42.2795770" lon="-8.6524310">
        <ele>164.1</ele>
        <time>2021-05-20T14:44:37Z</time>
      </trkpt>
      <trkpt lat="42.2795820" lon="-8.6524310">
        <ele>164.1</ele>
        <time>2021-05-20T14:44:38Z</time>
      </trkpt>
      <trkpt lat="42.2795940" lon="-8.6524330">
        <ele>164.1</ele>
        <time>2021-05-20T14:44:39Z</time>
      </trkpt>
      <trkpt lat="42.2796140" lon="-8.6524430">
        <ele>164.1</ele>
        <time>2021-05-20T14:44:40Z</time>
      </trkpt>
      <trkpt lat="42.2796220" lon="-8.6524470">
        <ele>164.1</ele>
        <time>2021-05-20T14:44:41Z</time>
      </trkpt>
      <trkpt lat="42.2796300" lon="-8.6524510">
        <ele>164.1</ele>
        <time>2021-05-20T14:44:42Z</time>
      </trkpt>
      <trkpt lat="42.2796430" lon="-8.6524430">
        <ele>164.1</ele>
        <time>2021-05-20T14:44:43Z</time>
      </trkpt>
      <trkpt lat="42.2796520" lon="-8.6524460">
        <ele>164.0</ele>
        <time>2021-05-20T14:44:44Z</time>
      </trkpt>
      <trkpt lat="42.2796620" lon="-8.6524460">
        <ele>164.0</ele>
        <time>2021-05-20T14:44:45Z</time>
      </trkpt>
      <trkpt lat="42.2796890" lon="-8.6524520">
        <ele>164.0</ele>
        <time>2021-05-20T14:44:46Z</time>
      </trkpt>
      <trkpt lat="42.2797050" lon="-8.6524550">
        <ele>164.0</ele>
        <time>2021-05-20T14:44:47Z</time>
      </trkpt>
      <trkpt lat="42.2797110" lon="-8.6524460">
        <ele>164.0</ele>
        <time>2021-05-20T14:44:48Z</time>
      </trkpt>
      <trkpt lat="42.2797240" lon="-8.6524460">
        <ele>164.0</ele>
        <time>2021-05-20T14:44:49Z</time>
      </trkpt>
      <trkpt lat="42.2797390" lon="-8.6524490">
        <ele>163.9</ele>
        <time>2021-05-20T14:44:50Z</time>
      </trkpt>
      <trkpt lat="42.2797570" lon="-8.6524540">
        <ele>163.9</ele>
        <time>2021-05-20T14:44:51Z</time>
      </trkpt>
      <trkpt lat="42.2797710" lon="-8.6524540">
        <ele>163.9</ele>
        <time>2021-05-20T14:44:52Z</time>
      </trkpt>
      <trkpt lat="42.2797870" lon="-8.6524490">
        <ele>163.9</ele>
        <time>2021-05-20T14:44:53Z</time>
      </trkpt>
      <trkpt lat="42.2798020" lon="-8.6524390">
        <ele>163.9</ele>
        <time>2021-05-20T14:44:54Z</time>
      </trkpt>
      <trkpt lat="42.2798150" lon="-8.6524320">
        <ele>163.9</ele>
        <time>2021-05-20T14:44:55Z</time>
      </trkpt>
      <trkpt lat="42.2798330" lon="-8.6524340">
        <ele>163.8</ele>
        <time>2021-05-20T14:44:56Z</time>
      </trkpt>
      <trkpt lat="42.2798490" lon="-8.6524250">
        <ele>163.8</ele>
        <time>2021-05-20T14:44:57Z</time>
      </trkpt>
      <trkpt lat="42.2798620" lon="-8.6524220">
        <ele>163.8</ele>
        <time>2021-05-20T14:44:58Z</time>
      </trkpt>
      <trkpt lat="42.2798840" lon="-8.6524180">
        <ele>163.8</ele>
        <time>2021-05-20T14:44:59Z</time>
      </trkpt>
      <trkpt lat="42.2798950" lon="-8.6524170">
        <ele>163.8</ele>
        <time>2021-05-20T14:45:00Z</time>
      </trkpt>
      <trkpt lat="42.2799050" lon="-8.6524160">
        <ele>163.8</ele>
        <time>2021-05-20T14:45:01Z</time>
      </trkpt>
      <trkpt lat="42.2799200" lon="-8.6524150">
        <ele>163.8</ele>
        <time>2021-05-20T14:45:02Z</time>
      </trkpt>
      <trkpt lat="42.2799340" lon="-8.6524100">
        <ele>163.7</ele>
        <time>2021-05-20T14:45:03Z</time>
      </trkpt>
      <trkpt lat="42.2799490" lon="-8.6524050">
        <ele>163.7</ele>
        <time>2021-05-20T14:45:04Z</time>
      </trkpt>
      <trkpt lat="42.2799630" lon="-8.6524020">
        <ele>163.7</ele>
        <time>2021-05-20T14:45:05Z</time>
      </trkpt>
      <trkpt lat="42.2799780" lon="-8.6524000">
        <ele>163.7</ele>
        <time>2021-05-20T14:45:06Z</time>
      </trkpt>
      <trkpt lat="42.2799920" lon="-8.6523880">
        <ele>163.7</ele>
        <time>2021-05-20T14:45:07Z</time>
      </trkpt>
      <trkpt lat="42.2800080" lon="-8.6523840">
        <ele>163.7</ele>
        <time>2021-05-20T14:45:08Z</time>
      </trkpt>
      <trkpt lat="42.2800230" lon="-8.6523770">
        <ele>163.7</ele>
        <time>2021-05-20T14:45:09Z</time>
      </trkpt>
      <trkpt lat="42.2800360" lon="-8.6523660">
        <ele>163.7</ele>
        <time>2021-05-20T14:45:10Z</time>
      </trkpt>
      <trkpt lat="42.2800510" lon="-8.6523640">
        <ele>163.7</ele>
        <time>2021-05-20T14:45:11Z</time>
      </trkpt>
      <trkpt lat="42.2800660" lon="-8.6523610">
        <ele>163.7</ele>
        <time>2021-05-20T14:45:12Z</time>
      </trkpt>
      <trkpt lat="42.2800810" lon="-8.6523540">
        <ele>163.6</ele>
        <time>2021-05-20T14:45:13Z</time>
      </trkpt>
      <trkpt lat="42.2800980" lon="-8.6523560">
        <ele>163.6</ele>
        <time>2021-05-20T14:45:14Z</time>
      </trkpt>
      <trkpt lat="42.2801120" lon="-8.6523670">
        <ele>163.6</ele>
        <time>2021-05-20T14:45:15Z</time>
      </trkpt>
      <trkpt lat="42.2801270" lon="-8.6523540">
        <ele>163.6</ele>
        <time>2021-05-20T14:45:16Z</time>
      </trkpt>
      <trkpt lat="42.2801390" lon="-8.6523590">
        <ele>163.6</ele>
        <time>2021-05-20T14:45:17Z</time>
      </trkpt>
      <trkpt lat="42.2801600" lon="-8.6523720">
        <ele>163.6</ele>
        <time>2021-05-20T14:45:18Z</time>
      </trkpt>
      <trkpt lat="42.2801690" lon="-8.6523780">
        <ele>163.5</ele>
        <time>2021-05-20T14:45:19Z</time>
      </trkpt>
      <trkpt lat="42.2801780" lon="-8.6523840">
        <ele>163.5</ele>
        <time>2021-05-20T14:45:21Z</time>
      </trkpt>
      <trkpt lat="42.2801870" lon="-8.6523900">
        <ele>163.5</ele>
        <time>2021-05-20T14:45:23Z</time>
      </trkpt>
      <trkpt lat="42.2801960" lon="-8.6523960">
        <ele>163.5</ele>
        <time>2021-05-20T14:45:24Z</time>
      </trkpt>
      <trkpt lat="42.2802050" lon="-8.6524020">
        <ele>163.5</ele>
        <time>2021-05-20T14:45:25Z</time>
      </trkpt>
      <trkpt lat="42.2802200" lon="-8.6524000">
        <ele>163.5</ele>
        <time>2021-05-20T14:45:26Z</time>
      </trkpt>
      <trkpt lat="42.2802370" lon="-8.6523900">
        <ele>163.5</ele>
        <time>2021-05-20T14:45:27Z</time>
      </trkpt>
      <trkpt lat="42.2802520" lon="-8.6523790">
        <ele>163.5</ele>
        <time>2021-05-20T14:45:28Z</time>
      </trkpt>
      <trkpt lat="42.2802640" lon="-8.6523760">
        <ele>163.4</ele>
        <time>2021-05-20T14:45:29Z</time>
      </trkpt>
      <trkpt lat="42.2802660" lon="-8.6523660">
        <ele>163.4</ele>
        <time>2021-05-20T14:45:30Z</time>
      </trkpt>
      <trkpt lat="42.2802710" lon="-8.6523610">
        <ele>163.4</ele>
        <time>2021-05-20T14:45:31Z</time>
      </trkpt>
      <trkpt lat="42.2802840" lon="-8.6523510">
        <ele>163.4</ele>
        <time>2021-05-20T14:45:32Z</time>
      </trkpt>
      <trkpt lat="42.2802890" lon="-8.6523480">
        <ele>163.4</ele>
        <time>2021-05-20T14:45:33Z</time>
      </trkpt>
      <trkpt lat="42.2802930" lon="-8.6523410">
        <ele>163.4</ele>
        <time>2021-05-20T14:45:34Z</time>
      </trkpt>
      <trkpt lat="42.2802990" lon="-8.6523380">
        <ele>163.4</ele>
        <time>2021-05-20T14:45:35Z</time>
      </trkpt>
      <trkpt lat="42.2803040" lon="-8.6523280">
        <ele>163.4</ele>
        <time>2021-05-20T14:45:36Z</time>
      </trkpt>
      <trkpt lat="42.2803120" lon="-8.6523220">
        <ele>163.4</ele>
        <time>2021-05-20T14:45:37Z</time>
      </trkpt>
      <trkpt lat="42.2803180" lon="-8.6523150">
        <ele>163.4</ele>
        <time>2021-05-20T14:45:38Z</time>
      </trkpt>
      <trkpt lat="42.2803200" lon="-8.6523110">
        <ele>163.4</ele>
        <time>2021-05-20T14:45:39Z</time>
      </trkpt>
      <trkpt lat="42.2803270" lon="-8.6523090">
        <ele>163.4</ele>
        <time>2021-05-20T14:45:40Z</time>
      </trkpt>
      <trkpt lat="42.2803380" lon="-8.6523070">
        <ele>163.4</ele>
        <time>2021-05-20T14:45:41Z</time>
      </trkpt>
      <trkpt lat="42.2803400" lon="-8.6523030">
        <ele>163.4</ele>
        <time>2021-05-20T14:45:42Z</time>
      </trkpt>
      <trkpt lat="42.2803460" lon="-8.6522990">
        <ele>163.4</ele>
        <time>2021-05-20T14:45:43Z</time>
      </trkpt>
      <trkpt lat="42.2803510" lon="-8.6523010">
        <ele>163.4</ele>
        <time>2021-05-20T14:45:44Z</time>
      </trkpt>
      <trkpt lat="42.2803580" lon="-8.6522980">
        <ele>163.4</ele>
        <time>2021-05-20T14:45:45Z</time>
      </trkpt>
      <trkpt lat="42.2803670" lon="-8.6522960">
        <ele>163.4</ele>
        <time>2021-05-20T14:45:46Z</time>
      </trkpt>
      <trkpt lat="42.2803670" lon="-8.6522940">
        <ele>163.4</ele>
        <time>2021-05-20T14:45:47Z</time>
      </trkpt>
      <trkpt lat="42.2803740" lon="-8.6522880">
        <ele>163.4</ele>
        <time>2021-05-20T14:45:48Z</time>
      </trkpt>
      <trkpt lat="42.2803770" lon="-8.6522810">
        <ele>163.4</ele>
        <time>2021-05-20T14:45:49Z</time>
      </trkpt>
      <trkpt lat="42.2803800" lon="-8.6522670">
        <ele>163.4</ele>
        <time>2021-05-20T14:45:50Z</time>
      </trkpt>
      <trkpt lat="42.2803710" lon="-8.6522580">
        <ele>163.4</ele>
        <time>2021-05-20T14:45:51Z</time>
      </trkpt>
      <trkpt lat="42.2803740" lon="-8.6522520">
        <ele>163.4</ele>
        <time>2021-05-20T14:45:52Z</time>
      </trkpt>
      <trkpt lat="42.2803770" lon="-8.6522470">
        <ele>163.4</ele>
        <time>2021-05-20T14:45:53Z</time>
      </trkpt>
      <trkpt lat="42.2803790" lon="-8.6522420">
        <ele>163.4</ele>
        <time>2021-05-20T14:45:54Z</time>
      </trkpt>
      <trkpt lat="42.2803820" lon="-8.6522380">
        <ele>163.4</ele>
        <time>2021-05-20T14:45:55Z</time>
      </trkpt>
      <trkpt lat="42.2803850" lon="-8.6522330">
        <ele>163.4</ele>
        <time>2021-05-20T14:45:56Z</time>
      </trkpt>
      <trkpt lat="42.2803880" lon="-8.6522280">
        <ele>163.4</ele>
        <time>2021-05-20T14:45:57Z</time>
      </trkpt>
      <trkpt lat="42.2803900" lon="-8.6522230">
        <ele>163.4</ele>
        <time>2021-05-20T14:45:58Z</time>
      </trkpt>
      <trkpt lat="42.2803930" lon="-8.6522180">
        <ele>163.4</ele>
        <time>2021-05-20T14:45:59Z</time>
      </trkpt>
      <trkpt lat="42.2804090" lon="-8.6522320">
        <ele>163.4</ele>
        <time>2021-05-20T14:46:00Z</time>
      </trkpt>
      <trkpt lat="42.2804190" lon="-8.6522360">
        <ele>163.4</ele>
        <time>2021-05-20T14:46:01Z</time>
      </trkpt>
      <trkpt lat="42.2804280" lon="-8.6522400">
        <ele>163.4</ele>
        <time>2021-05-20T14:46:02Z</time>
      </trkpt>
      <trkpt lat="42.2804390" lon="-8.6522410">
        <ele>163.4</ele>
        <time>2021-05-20T14:46:03Z</time>
      </trkpt>
      <trkpt lat="42.2804550" lon="-8.6522520">
        <ele>163.4</ele>
        <time>2021-05-20T14:46:04Z</time>
      </trkpt>
      <trkpt lat="42.2804660" lon="-8.6522570">
        <ele>163.4</ele>
        <time>2021-05-20T14:46:05Z</time>
      </trkpt>
      <trkpt lat="42.2804740" lon="-8.6522670">
        <ele>163.4</ele>
        <time>2021-05-20T14:46:06Z</time>
      </trkpt>
      <trkpt lat="42.2804770" lon="-8.6522670">
        <ele>163.4</ele>
        <time>2021-05-20T14:46:07Z</time>
      </trkpt>
      <trkpt lat="42.2804860" lon="-8.6522710">
        <ele>163.4</ele>
        <time>2021-05-20T14:46:08Z</time>
      </trkpt>
      <trkpt lat="42.2804970" lon="-8.6522740">
        <ele>163.4</ele>
        <time>2021-05-20T14:46:09Z</time>
      </trkpt>
      <trkpt lat="42.2805210" lon="-8.6522760">
        <ele>163.4</ele>
        <time>2021-05-20T14:46:10Z</time>
      </trkpt>
      <trkpt lat="42.2805290" lon="-8.6522750">
        <ele>163.4</ele>
        <time>2021-05-20T14:46:11Z</time>
      </trkpt>
      <trkpt lat="42.2805410" lon="-8.6522830">
        <ele>163.4</ele>
        <time>2021-05-20T14:46:12Z</time>
      </trkpt>
      <trkpt lat="42.2805510" lon="-8.6522860">
        <ele>163.4</ele>
        <time>2021-05-20T14:46:13Z</time>
      </trkpt>
      <trkpt lat="42.2805590" lon="-8.6522860">
        <ele>163.5</ele>
        <time>2021-05-20T14:46:14Z</time>
      </trkpt>
      <trkpt lat="42.2805680" lon="-8.6522960">
        <ele>163.5</ele>
        <time>2021-05-20T14:46:15Z</time>
      </trkpt>
      <trkpt lat="42.2805810" lon="-8.6522980">
        <ele>163.5</ele>
        <time>2021-05-20T14:46:16Z</time>
      </trkpt>
      <trkpt lat="42.2805920" lon="-8.6523000">
        <ele>163.5</ele>
        <time>2021-05-20T14:46:17Z</time>
      </trkpt>
      <trkpt lat="42.2806000" lon="-8.6523020">
        <ele>163.5</ele>
        <time>2021-05-20T14:46:18Z</time>
      </trkpt>
      <trkpt lat="42.2806090" lon="-8.6523030">
        <ele>163.5</ele>
        <time>2021-05-20T14:46:19Z</time>
      </trkpt>
      <trkpt lat="42.2806310" lon="-8.6522950">
        <ele>163.5</ele>
        <time>2021-05-20T14:46:20Z</time>
      </trkpt>
      <trkpt lat="42.2806410" lon="-8.6522930">
        <ele>163.5</ele>
        <time>2021-05-20T14:46:21Z</time>
      </trkpt>
      <trkpt lat="42.2806520" lon="-8.6522910">
        <ele>163.5</ele>
        <time>2021-05-20T14:46:22Z</time>
      </trkpt>
      <trkpt lat="42.2806710" lon="-8.6522870">
        <ele>163.5</ele>
        <time>2021-05-20T14:46:23Z</time>
      </trkpt>
      <trkpt lat="42.2806790" lon="-8.6522890">
        <ele>163.6</ele>
        <time>2021-05-20T14:46:24Z</time>
      </trkpt>
      <trkpt lat="42.2806880" lon="-8.6522900">
        <ele>163.6</ele>
        <time>2021-05-20T14:46:25Z</time>
      </trkpt>
      <trkpt lat="42.2806970" lon="-8.6522940">
        <ele>163.6</ele>
        <time>2021-05-20T14:46:26Z</time>
      </trkpt>
      <trkpt lat="42.2807040" lon="-8.6523010">
        <ele>163.6</ele>
        <time>2021-05-20T14:46:27Z</time>
      </trkpt>
      <trkpt lat="42.2807150" lon="-8.6523020">
        <ele>163.6</ele>
        <time>2021-05-20T14:46:28Z</time>
      </trkpt>
      <trkpt lat="42.2807250" lon="-8.6523060">
        <ele>163.6</ele>
        <time>2021-05-20T14:46:29Z</time>
      </trkpt>
      <trkpt lat="42.2807370" lon="-8.6523020">
        <ele>163.6</ele>
        <time>2021-05-20T14:46:30Z</time>
      </trkpt>
      <trkpt lat="42.2807490" lon="-8.6522980">
        <ele>163.6</ele>
        <time>2021-05-20T14:46:31Z</time>
      </trkpt>
      <trkpt lat="42.2807670" lon="-8.6522870">
        <ele>163.6</ele>
        <time>2021-05-20T14:46:32Z</time>
      </trkpt>
      <trkpt lat="42.2807740" lon="-8.6522780">
        <ele>163.6</ele>
        <time>2021-05-20T14:46:33Z</time>
      </trkpt>
      <trkpt lat="42.2807820" lon="-8.6522690">
        <ele>163.6</ele>
        <time>2021-05-20T14:46:34Z</time>
      </trkpt>
      <trkpt lat="42.2807930" lon="-8.6522570">
        <ele>163.7</ele>
        <time>2021-05-20T14:46:35Z</time>
      </trkpt>
      <trkpt lat="42.2807980" lon="-8.6522470">
        <ele>163.7</ele>
        <time>2021-05-20T14:46:36Z</time>
      </trkpt>
      <trkpt lat="42.2808120" lon="-8.6522420">
        <ele>163.7</ele>
        <time>2021-05-20T14:46:37Z</time>
      </trkpt>
      <trkpt lat="42.2808290" lon="-8.6522270">
        <ele>163.7</ele>
        <time>2021-05-20T14:46:38Z</time>
      </trkpt>
      <trkpt lat="42.2808390" lon="-8.6522240">
        <ele>163.7</ele>
        <time>2021-05-20T14:46:39Z</time>
      </trkpt>
      <trkpt lat="42.2808490" lon="-8.6522220">
        <ele>163.7</ele>
        <time>2021-05-20T14:46:40Z</time>
      </trkpt>
      <trkpt lat="42.2808670" lon="-8.6522040">
        <ele>163.7</ele>
        <time>2021-05-20T14:46:41Z</time>
      </trkpt>
      <trkpt lat="42.2808770" lon="-8.6521970">
        <ele>163.7</ele>
        <time>2021-05-20T14:46:42Z</time>
      </trkpt>
      <trkpt lat="42.2808870" lon="-8.6521900">
        <ele>163.7</ele>
        <time>2021-05-20T14:46:43Z</time>
      </trkpt>
      <trkpt lat="42.2808980" lon="-8.6521890">
        <ele>163.7</ele>
        <time>2021-05-20T14:46:44Z</time>
      </trkpt>
      <trkpt lat="42.2809090" lon="-8.6521770">
        <ele>163.7</ele>
        <time>2021-05-20T14:46:45Z</time>
      </trkpt>
      <trkpt lat="42.2809200" lon="-8.6521740">
        <ele>163.7</ele>
        <time>2021-05-20T14:46:46Z</time>
      </trkpt>
      <trkpt lat="42.2809330" lon="-8.6521690">
        <ele>163.8</ele>
        <time>2021-05-20T14:46:47Z</time>
      </trkpt>
      <trkpt lat="42.2809420" lon="-8.6521670">
        <ele>163.8</ele>
        <time>2021-05-20T14:46:48Z</time>
      </trkpt>
      <trkpt lat="42.2809540" lon="-8.6521590">
        <ele>163.8</ele>
        <time>2021-05-20T14:46:49Z</time>
      </trkpt>
      <trkpt lat="42.2809630" lon="-8.6521540">
        <ele>163.8</ele>
        <time>2021-05-20T14:46:50Z</time>
      </trkpt>
      <trkpt lat="42.2809680" lon="-8.6521500">
        <ele>163.8</ele>
        <time>2021-05-20T14:46:51Z</time>
      </trkpt>
      <trkpt lat="42.2809860" lon="-8.6521420">
        <ele>163.8</ele>
        <time>2021-05-20T14:46:52Z</time>
      </trkpt>
      <trkpt lat="42.2810200" lon="-8.6521350">
        <ele>163.8</ele>
        <time>2021-05-20T14:46:53Z</time>
      </trkpt>
      <trkpt lat="42.2810260" lon="-8.6521330">
        <ele>163.8</ele>
        <time>2021-05-20T14:46:54Z</time>
      </trkpt>
      <trkpt lat="42.2810370" lon="-8.6521320">
        <ele>163.8</ele>
        <time>2021-05-20T14:46:55Z</time>
      </trkpt>
      <trkpt lat="42.2810500" lon="-8.6521240">
        <ele>163.7</ele>
        <time>2021-05-20T14:46:56Z</time>
      </trkpt>
      <trkpt lat="42.2810570" lon="-8.6521220">
        <ele>163.7</ele>
        <time>2021-05-20T14:46:57Z</time>
      </trkpt>
      <trkpt lat="42.2810740" lon="-8.6521200">
        <ele>163.7</ele>
        <time>2021-05-20T14:46:58Z</time>
      </trkpt>
      <trkpt lat="42.2810810" lon="-8.6521210">
        <ele>163.7</ele>
        <time>2021-05-20T14:46:59Z</time>
      </trkpt>
      <trkpt lat="42.2810880" lon="-8.6521210">
        <ele>163.7</ele>
        <time>2021-05-20T14:47:00Z</time>
      </trkpt>
      <trkpt lat="42.2810950" lon="-8.6521220">
        <ele>163.7</ele>
        <time>2021-05-20T14:47:01Z</time>
      </trkpt>
      <trkpt lat="42.2811150" lon="-8.6521170">
        <ele>163.7</ele>
        <time>2021-05-20T14:47:02Z</time>
      </trkpt>
      <trkpt lat="42.2811250" lon="-8.6521150">
        <ele>163.7</ele>
        <time>2021-05-20T14:47:03Z</time>
      </trkpt>
      <trkpt lat="42.2811350" lon="-8.6521140">
        <ele>163.7</ele>
        <time>2021-05-20T14:47:04Z</time>
      </trkpt>
      <trkpt lat="42.2811510" lon="-8.6521070">
        <ele>163.7</ele>
        <time>2021-05-20T14:47:05Z</time>
      </trkpt>
      <trkpt lat="42.2811650" lon="-8.6521050">
        <ele>163.7</ele>
        <time>2021-05-20T14:47:06Z</time>
      </trkpt>
      <trkpt lat="42.2811800" lon="-8.6521050">
        <ele>163.6</ele>
        <time>2021-05-20T14:47:07Z</time>
      </trkpt>
      <trkpt lat="42.2811930" lon="-8.6521040">
        <ele>163.6</ele>
        <time>2021-05-20T14:47:08Z</time>
      </trkpt>
      <trkpt lat="42.2812000" lon="-8.6521000">
        <ele>163.6</ele>
        <time>2021-05-20T14:47:09Z</time>
      </trkpt>
      <trkpt lat="42.2812220" lon="-8.6520980">
        <ele>163.6</ele>
        <time>2021-05-20T14:47:10Z</time>
      </trkpt>
      <trkpt lat="42.2812420" lon="-8.6520940">
        <ele>163.6</ele>
        <time>2021-05-20T14:47:11Z</time>
      </trkpt>
      <trkpt lat="42.2812560" lon="-8.6520920">
        <ele>163.6</ele>
        <time>2021-05-20T14:47:12Z</time>
      </trkpt>
      <trkpt lat="42.2812730" lon="-8.6520870">
        <ele>163.6</ele>
        <time>2021-05-20T14:47:13Z</time>
      </trkpt>
      <trkpt lat="42.2812870" lon="-8.6520760">
        <ele>163.6</ele>
        <time>2021-05-20T14:47:14Z</time>
      </trkpt>
      <trkpt lat="42.2813010" lon="-8.6520740">
        <ele>163.6</ele>
        <time>2021-05-20T14:47:15Z</time>
      </trkpt>
      <trkpt lat="42.2813150" lon="-8.6520660">
        <ele>163.5</ele>
        <time>2021-05-20T14:47:16Z</time>
      </trkpt>
      <trkpt lat="42.2813290" lon="-8.6520610">
        <ele>163.5</ele>
        <time>2021-05-20T14:47:17Z</time>
      </trkpt>
      <trkpt lat="42.2813460" lon="-8.6520540">
        <ele>163.5</ele>
        <time>2021-05-20T14:47:18Z</time>
      </trkpt>
      <trkpt lat="42.2813590" lon="-8.6520380">
        <ele>163.5</ele>
        <time>2021-05-20T14:47:19Z</time>
      </trkpt>
      <trkpt lat="42.2813740" lon="-8.6520310">
        <ele>163.5</ele>
        <time>2021-05-20T14:47:20Z</time>
      </trkpt>
      <trkpt lat="42.2813870" lon="-8.6520190">
        <ele>163.5</ele>
        <time>2021-05-20T14:47:21Z</time>
      </trkpt>
      <trkpt lat="42.2814000" lon="-8.6520130">
        <ele>163.5</ele>
        <time>2021-05-20T14:47:22Z</time>
      </trkpt>
      <trkpt lat="42.2814080" lon="-8.6520020">
        <ele>163.5</ele>
        <time>2021-05-20T14:47:23Z</time>
      </trkpt>
      <trkpt lat="42.2814130" lon="-8.6519960">
        <ele>163.5</ele>
        <time>2021-05-20T14:47:24Z</time>
      </trkpt>
      <trkpt lat="42.2814190" lon="-8.6519830">
        <ele>163.5</ele>
        <time>2021-05-20T14:47:25Z</time>
      </trkpt>
      <trkpt lat="42.2814280" lon="-8.6519750">
        <ele>163.5</ele>
        <time>2021-05-20T14:47:26Z</time>
      </trkpt>
      <trkpt lat="42.2814340" lon="-8.6519650">
        <ele>163.5</ele>
        <time>2021-05-20T14:47:27Z</time>
      </trkpt>
      <trkpt lat="42.2814390" lon="-8.6519580">
        <ele>163.5</ele>
        <time>2021-05-20T14:47:28Z</time>
      </trkpt>
      <trkpt lat="42.2814560" lon="-8.6519350">
        <ele>163.5</ele>
        <time>2021-05-20T14:47:29Z</time>
      </trkpt>
      <trkpt lat="42.2814640" lon="-8.6519250">
        <ele>163.5</ele>
        <time>2021-05-20T14:47:30Z</time>
      </trkpt>
      <trkpt lat="42.2814720" lon="-8.6519150">
        <ele>163.5</ele>
        <time>2021-05-20T14:47:31Z</time>
      </trkpt>
      <trkpt lat="42.2814790" lon="-8.6519050">
        <ele>163.5</ele>
        <time>2021-05-20T14:47:32Z</time>
      </trkpt>
      <trkpt lat="42.2814890" lon="-8.6518950">
        <ele>163.5</ele>
        <time>2021-05-20T14:47:33Z</time>
      </trkpt>
      <trkpt lat="42.2814920" lon="-8.6518870">
        <ele>163.5</ele>
        <time>2021-05-20T14:47:34Z</time>
      </trkpt>
      <trkpt lat="42.2815020" lon="-8.6518730">
        <ele>163.5</ele>
        <time>2021-05-20T14:47:35Z</time>
      </trkpt>
      <trkpt lat="42.2815120" lon="-8.6518600">
        <ele>163.5</ele>
        <time>2021-05-20T14:47:36Z</time>
      </trkpt>
      <trkpt lat="42.2815250" lon="-8.6518440">
        <ele>163.5</ele>
        <time>2021-05-20T14:47:37Z</time>
      </trkpt>
      <trkpt lat="42.2815330" lon="-8.6518330">
        <ele>163.5</ele>
        <time>2021-05-20T14:47:38Z</time>
      </trkpt>
      <trkpt lat="42.2815500" lon="-8.6518170">
        <ele>163.5</ele>
        <time>2021-05-20T14:47:39Z</time>
      </trkpt>
      <trkpt lat="42.2815580" lon="-8.6518120">
        <ele>163.5</ele>
        <time>2021-05-20T14:47:40Z</time>
      </trkpt>
      <trkpt lat="42.2815650" lon="-8.6518070">
        <ele>163.5</ele>
        <time>2021-05-20T14:47:41Z</time>
      </trkpt>
      <trkpt lat="42.2815820" lon="-8.6517950">
        <ele>163.5</ele>
        <time>2021-05-20T14:47:42Z</time>
      </trkpt>
      <trkpt lat="42.2815910" lon="-8.6517910">
        <ele>163.5</ele>
        <time>2021-05-20T14:47:43Z</time>
      </trkpt>
      <trkpt lat="42.2815990" lon="-8.6517870">
        <ele>163.4</ele>
        <time>2021-05-20T14:47:44Z</time>
      </trkpt>
      <trkpt lat="42.2816130" lon="-8.6517800">
        <ele>163.4</ele>
        <time>2021-05-20T14:47:45Z</time>
      </trkpt>
      <trkpt lat="42.2816210" lon="-8.6517740">
        <ele>163.4</ele>
        <time>2021-05-20T14:47:46Z</time>
      </trkpt>
      <trkpt lat="42.2816270" lon="-8.6517600">
        <ele>163.4</ele>
        <time>2021-05-20T14:47:47Z</time>
      </trkpt>
      <trkpt lat="42.2816350" lon="-8.6517570">
        <ele>163.4</ele>
        <time>2021-05-20T14:47:48Z</time>
      </trkpt>
      <trkpt lat="42.2816430" lon="-8.6517510">
        <ele>163.4</ele>
        <time>2021-05-20T14:47:49Z</time>
      </trkpt>
      <trkpt lat="42.2816550" lon="-8.6517370">
        <ele>163.4</ele>
        <time>2021-05-20T14:47:50Z</time>
      </trkpt>
      <trkpt lat="42.2816700" lon="-8.6517240">
        <ele>163.4</ele>
        <time>2021-05-20T14:47:52Z</time>
      </trkpt>
      <trkpt lat="42.2816800" lon="-8.6517140">
        <ele>163.4</ele>
        <time>2021-05-20T14:47:53Z</time>
      </trkpt>
      <trkpt lat="42.2816860" lon="-8.6517080">
        <ele>163.4</ele>
        <time>2021-05-20T14:47:54Z</time>
      </trkpt>
      <trkpt lat="42.2816930" lon="-8.6517010">
        <ele>163.4</ele>
        <time>2021-05-20T14:47:55Z</time>
      </trkpt>
      <trkpt lat="42.2817060" lon="-8.6516940">
        <ele>163.4</ele>
        <time>2021-05-20T14:47:56Z</time>
      </trkpt>
      <trkpt lat="42.2817120" lon="-8.6516830">
        <ele>163.4</ele>
        <time>2021-05-20T14:47:57Z</time>
      </trkpt>
      <trkpt lat="42.2817170" lon="-8.6516770">
        <ele>163.4</ele>
        <time>2021-05-20T14:47:58Z</time>
      </trkpt>
      <trkpt lat="42.2817170" lon="-8.6516670">
        <ele>163.4</ele>
        <time>2021-05-20T14:47:59Z</time>
      </trkpt>
      <trkpt lat="42.2817300" lon="-8.6516570">
        <ele>163.4</ele>
        <time>2021-05-20T14:48:00Z</time>
      </trkpt>
      <trkpt lat="42.2817430" lon="-8.6516400">
        <ele>163.4</ele>
        <time>2021-05-20T14:48:01Z</time>
      </trkpt>
      <trkpt lat="42.2817490" lon="-8.6516300">
        <ele>163.4</ele>
        <time>2021-05-20T14:48:02Z</time>
      </trkpt>
      <trkpt lat="42.2817620" lon="-8.6516230">
        <ele>163.4</ele>
        <time>2021-05-20T14:48:03Z</time>
      </trkpt>
      <trkpt lat="42.2817760" lon="-8.6516090">
        <ele>163.4</ele>
        <time>2021-05-20T14:48:04Z</time>
      </trkpt>
      <trkpt lat="42.2817900" lon="-8.6515910">
        <ele>163.4</ele>
        <time>2021-05-20T14:48:05Z</time>
      </trkpt>
      <trkpt lat="42.2817970" lon="-8.6515810">
        <ele>163.4</ele>
        <time>2021-05-20T14:48:06Z</time>
      </trkpt>
      <trkpt lat="42.2818050" lon="-8.6515710">
        <ele>163.4</ele>
        <time>2021-05-20T14:48:07Z</time>
      </trkpt>
      <trkpt lat="42.2818230" lon="-8.6515580">
        <ele>163.4</ele>
        <time>2021-05-20T14:48:08Z</time>
      </trkpt>
      <trkpt lat="42.2818330" lon="-8.6515460">
        <ele>163.4</ele>
        <time>2021-05-20T14:48:09Z</time>
      </trkpt>
      <trkpt lat="42.2818400" lon="-8.6515390">
        <ele>163.4</ele>
        <time>2021-05-20T14:48:10Z</time>
      </trkpt>
      <trkpt lat="42.2818460" lon="-8.6515290">
        <ele>163.4</ele>
        <time>2021-05-20T14:48:11Z</time>
      </trkpt>
      <trkpt lat="42.2818550" lon="-8.6515130">
        <ele>163.4</ele>
        <time>2021-05-20T14:48:12Z</time>
      </trkpt>
      <trkpt lat="42.2818640" lon="-8.6514960">
        <ele>163.4</ele>
        <time>2021-05-20T14:48:13Z</time>
      </trkpt>
      <trkpt lat="42.2818770" lon="-8.6514840">
        <ele>163.4</ele>
        <time>2021-05-20T14:48:14Z</time>
      </trkpt>
      <trkpt lat="42.2818920" lon="-8.6514720">
        <ele>163.4</ele>
        <time>2021-05-20T14:48:15Z</time>
      </trkpt>
      <trkpt lat="42.2819050" lon="-8.6514610">
        <ele>163.4</ele>
        <time>2021-05-20T14:48:16Z</time>
      </trkpt>
      <trkpt lat="42.2819130" lon="-8.6514490">
        <ele>163.4</ele>
        <time>2021-05-20T14:48:17Z</time>
      </trkpt>
      <trkpt lat="42.2819270" lon="-8.6514320">
        <ele>163.4</ele>
        <time>2021-05-20T14:48:18Z</time>
      </trkpt>
      <trkpt lat="42.2819420" lon="-8.6514100">
        <ele>163.4</ele>
        <time>2021-05-20T14:48:19Z</time>
      </trkpt>
      <trkpt lat="42.2819460" lon="-8.6513980">
        <ele>163.4</ele>
        <time>2021-05-20T14:48:20Z</time>
      </trkpt>
      <trkpt lat="42.2819490" lon="-8.6513850">
        <ele>163.4</ele>
        <time>2021-05-20T14:48:21Z</time>
      </trkpt>
      <trkpt lat="42.2819580" lon="-8.6513840">
        <ele>163.4</ele>
        <time>2021-05-20T14:48:22Z</time>
      </trkpt>
      <trkpt lat="42.2819700" lon="-8.6513730">
        <ele>163.4</ele>
        <time>2021-05-20T14:48:23Z</time>
      </trkpt>
      <trkpt lat="42.2819750" lon="-8.6513580">
        <ele>163.4</ele>
        <time>2021-05-20T14:48:24Z</time>
      </trkpt>
      <trkpt lat="42.2819810" lon="-8.6513460">
        <ele>163.4</ele>
        <time>2021-05-20T14:48:25Z</time>
      </trkpt>
      <trkpt lat="42.2819890" lon="-8.6513330">
        <ele>163.4</ele>
        <time>2021-05-20T14:48:26Z</time>
      </trkpt>
      <trkpt lat="42.2819930" lon="-8.6513220">
        <ele>163.4</ele>
        <time>2021-05-20T14:48:27Z</time>
      </trkpt>
      <trkpt lat="42.2819960" lon="-8.6513140">
        <ele>163.4</ele>
        <time>2021-05-20T14:48:28Z</time>
      </trkpt>
      <trkpt lat="42.2819980" lon="-8.6513030">
        <ele>163.4</ele>
        <time>2021-05-20T14:48:29Z</time>
      </trkpt>
      <trkpt lat="42.2820130" lon="-8.6512960">
        <ele>163.4</ele>
        <time>2021-05-20T14:48:30Z</time>
      </trkpt>
      <trkpt lat="42.2820220" lon="-8.6512770">
        <ele>163.4</ele>
        <time>2021-05-20T14:48:31Z</time>
      </trkpt>
      <trkpt lat="42.2820290" lon="-8.6512550">
        <ele>163.4</ele>
        <time>2021-05-20T14:48:32Z</time>
      </trkpt>
      <trkpt lat="42.2820390" lon="-8.6512200">
        <ele>163.3</ele>
        <time>2021-05-20T14:48:33Z</time>
      </trkpt>
      <trkpt lat="42.2820430" lon="-8.6512080">
        <ele>163.3</ele>
        <time>2021-05-20T14:48:34Z</time>
      </trkpt>
      <trkpt lat="42.2820480" lon="-8.6511950">
        <ele>163.3</ele>
        <time>2021-05-20T14:48:35Z</time>
      </trkpt>
      <trkpt lat="42.2820560" lon="-8.6511830">
        <ele>163.3</ele>
        <time>2021-05-20T14:48:36Z</time>
      </trkpt>
      <trkpt lat="42.2820660" lon="-8.6511640">
        <ele>163.3</ele>
        <time>2021-05-20T14:48:37Z</time>
      </trkpt>
      <trkpt lat="42.2820660" lon="-8.6511560">
        <ele>163.3</ele>
        <time>2021-05-20T14:48:38Z</time>
      </trkpt>
      <trkpt lat="42.2820780" lon="-8.6511410">
        <ele>163.3</ele>
        <time>2021-05-20T14:48:39Z</time>
      </trkpt>
      <trkpt lat="42.2820910" lon="-8.6511320">
        <ele>163.3</ele>
        <time>2021-05-20T14:48:40Z</time>
      </trkpt>
      <trkpt lat="42.2821030" lon="-8.6511140">
        <ele>163.3</ele>
        <time>2021-05-20T14:48:41Z</time>
      </trkpt>
      <trkpt lat="42.2821100" lon="-8.6511050">
        <ele>163.3</ele>
        <time>2021-05-20T14:48:42Z</time>
      </trkpt>
      <trkpt lat="42.2821160" lon="-8.6510960">
        <ele>163.2</ele>
        <time>2021-05-20T14:48:43Z</time>
      </trkpt>
      <trkpt lat="42.2821220" lon="-8.6510820">
        <ele>163.2</ele>
        <time>2021-05-20T14:48:44Z</time>
      </trkpt>
      <trkpt lat="42.2821250" lon="-8.6510720">
        <ele>163.2</ele>
        <time>2021-05-20T14:48:45Z</time>
      </trkpt>
      <trkpt lat="42.2821370" lon="-8.6510650">
        <ele>163.2</ele>
        <time>2021-05-20T14:48:46Z</time>
      </trkpt>
      <trkpt lat="42.2821470" lon="-8.6510420">
        <ele>163.2</ele>
        <time>2021-05-20T14:48:47Z</time>
      </trkpt>
      <trkpt lat="42.2821560" lon="-8.6510250">
        <ele>163.2</ele>
        <time>2021-05-20T14:48:48Z</time>
      </trkpt>
      <trkpt lat="42.2821640" lon="-8.6510120">
        <ele>163.2</ele>
        <time>2021-05-20T14:48:49Z</time>
      </trkpt>
      <trkpt lat="42.2821680" lon="-8.6510010">
        <ele>163.2</ele>
        <time>2021-05-20T14:48:50Z</time>
      </trkpt>
      <trkpt lat="42.2821780" lon="-8.6509890">
        <ele>163.2</ele>
        <time>2021-05-20T14:48:51Z</time>
      </trkpt>
      <trkpt lat="42.2821960" lon="-8.6509750">
        <ele>163.2</ele>
        <time>2021-05-20T14:48:52Z</time>
      </trkpt>
      <trkpt lat="42.2822040" lon="-8.6509690">
        <ele>163.2</ele>
        <time>2021-05-20T14:48:53Z</time>
      </trkpt>
      <trkpt lat="42.2822120" lon="-8.6509620">
        <ele>163.2</ele>
        <time>2021-05-20T14:48:54Z</time>
      </trkpt>
      <trkpt lat="42.2822190" lon="-8.6509510">
        <ele>163.2</ele>
        <time>2021-05-20T14:48:55Z</time>
      </trkpt>
      <trkpt lat="42.2822180" lon="-8.6509370">
        <ele>163.2</ele>
        <time>2021-05-20T14:48:56Z</time>
      </trkpt>
      <trkpt lat="42.2822250" lon="-8.6509200">
        <ele>163.2</ele>
        <time>2021-05-20T14:48:57Z</time>
      </trkpt>
      <trkpt lat="42.2822360" lon="-8.6509030">
        <ele>163.2</ele>
        <time>2021-05-20T14:48:58Z</time>
      </trkpt>
      <trkpt lat="42.2822500" lon="-8.6508710">
        <ele>163.2</ele>
        <time>2021-05-20T14:48:59Z</time>
      </trkpt>
      <trkpt lat="42.2822590" lon="-8.6508560">
        <ele>163.2</ele>
        <time>2021-05-20T14:49:00Z</time>
      </trkpt>
      <trkpt lat="42.2822580" lon="-8.6508430">
        <ele>163.2</ele>
        <time>2021-05-20T14:49:01Z</time>
      </trkpt>
      <trkpt lat="42.2822600" lon="-8.6508190">
        <ele>163.2</ele>
        <time>2021-05-20T14:49:02Z</time>
      </trkpt>
      <trkpt lat="42.2822630" lon="-8.6508050">
        <ele>163.2</ele>
        <time>2021-05-20T14:49:03Z</time>
      </trkpt>
      <trkpt lat="42.2822690" lon="-8.6507820">
        <ele>163.2</ele>
        <time>2021-05-20T14:49:04Z</time>
      </trkpt>
      <trkpt lat="42.2822780" lon="-8.6507640">
        <ele>163.2</ele>
        <time>2021-05-20T14:49:05Z</time>
      </trkpt>
      <trkpt lat="42.2822830" lon="-8.6507430">
        <ele>163.2</ele>
        <time>2021-05-20T14:49:06Z</time>
      </trkpt>
      <trkpt lat="42.2822870" lon="-8.6507280">
        <ele>163.2</ele>
        <time>2021-05-20T14:49:07Z</time>
      </trkpt>
      <trkpt lat="42.2822920" lon="-8.6507130">
        <ele>163.2</ele>
        <time>2021-05-20T14:49:08Z</time>
      </trkpt>
      <trkpt lat="42.2822990" lon="-8.6506940">
        <ele>163.2</ele>
        <time>2021-05-20T14:49:09Z</time>
      </trkpt>
      <trkpt lat="42.2823100" lon="-8.6506730">
        <ele>163.2</ele>
        <time>2021-05-20T14:49:10Z</time>
      </trkpt>
      <trkpt lat="42.2823330" lon="-8.6506550">
        <ele>163.2</ele>
        <time>2021-05-20T14:49:11Z</time>
      </trkpt>
      <trkpt lat="42.2823390" lon="-8.6506460">
        <ele>163.2</ele>
        <time>2021-05-20T14:49:12Z</time>
      </trkpt>
      <trkpt lat="42.2823440" lon="-8.6506360">
        <ele>163.2</ele>
        <time>2021-05-20T14:49:13Z</time>
      </trkpt>
      <trkpt lat="42.2823430" lon="-8.6506190">
        <ele>163.2</ele>
        <time>2021-05-20T14:49:14Z</time>
      </trkpt>
      <trkpt lat="42.2823560" lon="-8.6506120">
        <ele>163.3</ele>
        <time>2021-05-20T14:49:15Z</time>
      </trkpt>
      <trkpt lat="42.2823660" lon="-8.6505980">
        <ele>163.3</ele>
        <time>2021-05-20T14:49:16Z</time>
      </trkpt>
      <trkpt lat="42.2823740" lon="-8.6505790">
        <ele>163.3</ele>
        <time>2021-05-20T14:49:17Z</time>
      </trkpt>
      <trkpt lat="42.2823890" lon="-8.6505680">
        <ele>163.3</ele>
        <time>2021-05-20T14:49:18Z</time>
      </trkpt>
      <trkpt lat="42.2824090" lon="-8.6505480">
        <ele>163.3</ele>
        <time>2021-05-20T14:49:19Z</time>
      </trkpt>
      <trkpt lat="42.2824150" lon="-8.6505440">
        <ele>163.3</ele>
        <time>2021-05-20T14:49:20Z</time>
      </trkpt>
      <trkpt lat="42.2824210" lon="-8.6505400">
        <ele>163.3</ele>
        <time>2021-05-20T14:49:21Z</time>
      </trkpt>
      <trkpt lat="42.2824390" lon="-8.6505240">
        <ele>163.3</ele>
        <time>2021-05-20T14:49:22Z</time>
      </trkpt>
      <trkpt lat="42.2824450" lon="-8.6505180">
        <ele>163.3</ele>
        <time>2021-05-20T14:49:23Z</time>
      </trkpt>
      <trkpt lat="42.2824510" lon="-8.6505120">
        <ele>163.3</ele>
        <time>2021-05-20T14:49:24Z</time>
      </trkpt>
      <trkpt lat="42.2824580" lon="-8.6504970">
        <ele>163.3</ele>
        <time>2021-05-20T14:49:25Z</time>
      </trkpt>
      <trkpt lat="42.2824580" lon="-8.6504810">
        <ele>163.3</ele>
        <time>2021-05-20T14:49:26Z</time>
      </trkpt>
      <trkpt lat="42.2824700" lon="-8.6504720">
        <ele>163.2</ele>
        <time>2021-05-20T14:49:27Z</time>
      </trkpt>
      <trkpt lat="42.2824750" lon="-8.6504610">
        <ele>163.2</ele>
        <time>2021-05-20T14:49:28Z</time>
      </trkpt>
      <trkpt lat="42.2824910" lon="-8.6504420">
        <ele>163.2</ele>
        <time>2021-05-20T14:49:29Z</time>
      </trkpt>
      <trkpt lat="42.2824970" lon="-8.6504230">
        <ele>163.2</ele>
        <time>2021-05-20T14:49:31Z</time>
      </trkpt>
      <trkpt lat="42.2825040" lon="-8.6504090">
        <ele>163.2</ele>
        <time>2021-05-20T14:49:32Z</time>
      </trkpt>
      <trkpt lat="42.2825180" lon="-8.6503930">
        <ele>163.2</ele>
        <time>2021-05-20T14:49:33Z</time>
      </trkpt>
      <trkpt lat="42.2825330" lon="-8.6503830">
        <ele>163.2</ele>
        <time>2021-05-20T14:49:34Z</time>
      </trkpt>
      <trkpt lat="42.2825350" lon="-8.6503730">
        <ele>163.2</ele>
        <time>2021-05-20T14:49:35Z</time>
      </trkpt>
      <trkpt lat="42.2825450" lon="-8.6503660">
        <ele>163.2</ele>
        <time>2021-05-20T14:49:36Z</time>
      </trkpt>
      <trkpt lat="42.2825530" lon="-8.6503520">
        <ele>163.2</ele>
        <time>2021-05-20T14:49:37Z</time>
      </trkpt>
      <trkpt lat="42.2825660" lon="-8.6503280">
        <ele>163.2</ele>
        <time>2021-05-20T14:49:38Z</time>
      </trkpt>
      <trkpt lat="42.2825730" lon="-8.6503180">
        <ele>163.2</ele>
        <time>2021-05-20T14:49:39Z</time>
      </trkpt>
      <trkpt lat="42.2825790" lon="-8.6503070">
        <ele>163.2</ele>
        <time>2021-05-20T14:49:40Z</time>
      </trkpt>
      <trkpt lat="42.2825860" lon="-8.6502940">
        <ele>163.2</ele>
        <time>2021-05-20T14:49:41Z</time>
      </trkpt>
      <trkpt lat="42.2825950" lon="-8.6502820">
        <ele>163.2</ele>
        <time>2021-05-20T14:49:42Z</time>
      </trkpt>
      <trkpt lat="42.2826000" lon="-8.6502740">
        <ele>163.2</ele>
        <time>2021-05-20T14:49:43Z</time>
      </trkpt>
      <trkpt lat="42.2826080" lon="-8.6502640">
        <ele>163.2</ele>
        <time>2021-05-20T14:49:44Z</time>
      </trkpt>
      <trkpt lat="42.2826220" lon="-8.6502520">
        <ele>163.3</ele>
        <time>2021-05-20T14:49:45Z</time>
      </trkpt>
      <trkpt lat="42.2826230" lon="-8.6502400">
        <ele>163.3</ele>
        <time>2021-05-20T14:49:46Z</time>
      </trkpt>
      <trkpt lat="42.2826270" lon="-8.6502270">
        <ele>163.3</ele>
        <time>2021-05-20T14:49:47Z</time>
      </trkpt>
      <trkpt lat="42.2826300" lon="-8.6502100">
        <ele>163.3</ele>
        <time>2021-05-20T14:49:48Z</time>
      </trkpt>
      <trkpt lat="42.2826400" lon="-8.6501840">
        <ele>163.3</ele>
        <time>2021-05-20T14:49:49Z</time>
      </trkpt>
      <trkpt lat="42.2826470" lon="-8.6501740">
        <ele>163.3</ele>
        <time>2021-05-20T14:49:50Z</time>
      </trkpt>
      <trkpt lat="42.2826530" lon="-8.6501640">
        <ele>163.3</ele>
        <time>2021-05-20T14:49:51Z</time>
      </trkpt>
      <trkpt lat="42.2826570" lon="-8.6501590">
        <ele>163.3</ele>
        <time>2021-05-20T14:49:52Z</time>
      </trkpt>
      <trkpt lat="42.2826640" lon="-8.6501530">
        <ele>163.3</ele>
        <time>2021-05-20T14:49:53Z</time>
      </trkpt>
      <trkpt lat="42.2826620" lon="-8.6501410">
        <ele>163.3</ele>
        <time>2021-05-20T14:49:54Z</time>
      </trkpt>
      <trkpt lat="42.2826670" lon="-8.6501240">
        <ele>163.3</ele>
        <time>2021-05-20T14:49:55Z</time>
      </trkpt>
      <trkpt lat="42.2826770" lon="-8.6501000">
        <ele>163.3</ele>
        <time>2021-05-20T14:49:56Z</time>
      </trkpt>
      <trkpt lat="42.2826770" lon="-8.6500870">
        <ele>163.3</ele>
        <time>2021-05-20T14:49:57Z</time>
      </trkpt>
      <trkpt lat="42.2826780" lon="-8.6500730">
        <ele>163.4</ele>
        <time>2021-05-20T14:49:58Z</time>
      </trkpt>
      <trkpt lat="42.2826820" lon="-8.6500510">
        <ele>163.4</ele>
        <time>2021-05-20T14:49:59Z</time>
      </trkpt>
      <trkpt lat="42.2826910" lon="-8.6500360">
        <ele>163.4</ele>
        <time>2021-05-20T14:50:00Z</time>
      </trkpt>
      <trkpt lat="42.2826900" lon="-8.6500150">
        <ele>163.4</ele>
        <time>2021-05-20T14:50:01Z</time>
      </trkpt>
      <trkpt lat="42.2826960" lon="-8.6499910">
        <ele>163.4</ele>
        <time>2021-05-20T14:50:02Z</time>
      </trkpt>
      <trkpt lat="42.2827090" lon="-8.6499860">
        <ele>163.4</ele>
        <time>2021-05-20T14:50:03Z</time>
      </trkpt>
      <trkpt lat="42.2827190" lon="-8.6499680">
        <ele>163.5</ele>
        <time>2021-05-20T14:50:04Z</time>
      </trkpt>
      <trkpt lat="42.2827310" lon="-8.6499490">
        <ele>163.5</ele>
        <time>2021-05-20T14:50:05Z</time>
      </trkpt>
      <trkpt lat="42.2827360" lon="-8.6499290">
        <ele>163.5</ele>
        <time>2021-05-20T14:50:06Z</time>
      </trkpt>
      <trkpt lat="42.2827360" lon="-8.6499140">
        <ele>163.5</ele>
        <time>2021-05-20T14:50:07Z</time>
      </trkpt>
      <trkpt lat="42.2827400" lon="-8.6499020">
        <ele>163.5</ele>
        <time>2021-05-20T14:50:08Z</time>
      </trkpt>
      <trkpt lat="42.2827450" lon="-8.6498830">
        <ele>163.6</ele>
        <time>2021-05-20T14:50:09Z</time>
      </trkpt>
      <trkpt lat="42.2827520" lon="-8.6498520">
        <ele>163.6</ele>
        <time>2021-05-20T14:50:10Z</time>
      </trkpt>
      <trkpt lat="42.2827520" lon="-8.6498390">
        <ele>163.6</ele>
        <time>2021-05-20T14:50:11Z</time>
      </trkpt>
      <trkpt lat="42.2827530" lon="-8.6498250">
        <ele>163.6</ele>
        <time>2021-05-20T14:50:12Z</time>
      </trkpt>
      <trkpt lat="42.2827570" lon="-8.6497960">
        <ele>163.6</ele>
        <time>2021-05-20T14:50:13Z</time>
      </trkpt>
      <trkpt lat="42.2827550" lon="-8.6497850">
        <ele>163.6</ele>
        <time>2021-05-20T14:50:14Z</time>
      </trkpt>
      <trkpt lat="42.2827540" lon="-8.6497740">
        <ele>163.7</ele>
        <time>2021-05-20T14:50:15Z</time>
      </trkpt>
      <trkpt lat="42.2827520" lon="-8.6497630">
        <ele>163.7</ele>
        <time>2021-05-20T14:50:16Z</time>
      </trkpt>
      <trkpt lat="42.2827550" lon="-8.6497470">
        <ele>163.7</ele>
        <time>2021-05-20T14:50:17Z</time>
      </trkpt>
      <trkpt lat="42.2827530" lon="-8.6497280">
        <ele>163.7</ele>
        <time>2021-05-20T14:50:18Z</time>
      </trkpt>
      <trkpt lat="42.2827530" lon="-8.6497140">
        <ele>163.7</ele>
        <time>2021-05-20T14:50:19Z</time>
      </trkpt>
      <trkpt lat="42.2827520" lon="-8.6497000">
        <ele>163.7</ele>
        <time>2021-05-20T14:50:20Z</time>
      </trkpt>
      <trkpt lat="42.2827580" lon="-8.6496860">
        <ele>163.7</ele>
        <time>2021-05-20T14:50:21Z</time>
      </trkpt>
      <trkpt lat="42.2827640" lon="-8.6496710">
        <ele>163.7</ele>
        <time>2021-05-20T14:50:22Z</time>
      </trkpt>
      <trkpt lat="42.2827610" lon="-8.6496430">
        <ele>163.7</ele>
        <time>2021-05-20T14:50:23Z</time>
      </trkpt>
      <trkpt lat="42.2827600" lon="-8.6496290">
        <ele>163.7</ele>
        <time>2021-05-20T14:50:24Z</time>
      </trkpt>
      <trkpt lat="42.2827580" lon="-8.6496150">
        <ele>163.7</ele>
        <time>2021-05-20T14:50:25Z</time>
      </trkpt>
      <trkpt lat="42.2827650" lon="-8.6495990">
        <ele>163.7</ele>
        <time>2021-05-20T14:50:26Z</time>
      </trkpt>
      <trkpt lat="42.2827680" lon="-8.6495860">
        <ele>163.7</ele>
        <time>2021-05-20T14:50:27Z</time>
      </trkpt>
      <trkpt lat="42.2827720" lon="-8.6495740">
        <ele>163.7</ele>
        <time>2021-05-20T14:50:28Z</time>
      </trkpt>
      <trkpt lat="42.2827730" lon="-8.6495440">
        <ele>163.7</ele>
        <time>2021-05-20T14:50:29Z</time>
      </trkpt>
      <trkpt lat="42.2827760" lon="-8.6495300">
        <ele>163.7</ele>
        <time>2021-05-20T14:50:30Z</time>
      </trkpt>
      <trkpt lat="42.2827790" lon="-8.6495160">
        <ele>163.7</ele>
        <time>2021-05-20T14:50:31Z</time>
      </trkpt>
      <trkpt lat="42.2827840" lon="-8.6494970">
        <ele>163.7</ele>
        <time>2021-05-20T14:50:32Z</time>
      </trkpt>
      <trkpt lat="42.2827940" lon="-8.6494790">
        <ele>163.7</ele>
        <time>2021-05-20T14:50:33Z</time>
      </trkpt>
      <trkpt lat="42.2827920" lon="-8.6494580">
        <ele>163.7</ele>
        <time>2021-05-20T14:50:34Z</time>
      </trkpt>
      <trkpt lat="42.2827990" lon="-8.6494360">
        <ele>163.7</ele>
        <time>2021-05-20T14:50:35Z</time>
      </trkpt>
      <trkpt lat="42.2827930" lon="-8.6494270">
        <ele>163.7</ele>
        <time>2021-05-20T14:50:36Z</time>
      </trkpt>
      <trkpt lat="42.2827950" lon="-8.6494130">
        <ele>163.7</ele>
        <time>2021-05-20T14:50:37Z</time>
      </trkpt>
      <trkpt lat="42.2827970" lon="-8.6493930">
        <ele>163.7</ele>
        <time>2021-05-20T14:50:38Z</time>
      </trkpt>
      <trkpt lat="42.2827930" lon="-8.6493730">
        <ele>163.7</ele>
        <time>2021-05-20T14:50:39Z</time>
      </trkpt>
      <trkpt lat="42.2827920" lon="-8.6493620">
        <ele>163.7</ele>
        <time>2021-05-20T14:50:40Z</time>
      </trkpt>
      <trkpt lat="42.2827950" lon="-8.6493530">
        <ele>163.7</ele>
        <time>2021-05-20T14:50:41Z</time>
      </trkpt>
      <trkpt lat="42.2827980" lon="-8.6493330">
        <ele>163.7</ele>
        <time>2021-05-20T14:50:42Z</time>
      </trkpt>
      <trkpt lat="42.2827940" lon="-8.6493080">
        <ele>163.7</ele>
        <time>2021-05-20T14:50:43Z</time>
      </trkpt>
      <trkpt lat="42.2828000" lon="-8.6492850">
        <ele>163.7</ele>
        <time>2021-05-20T14:50:44Z</time>
      </trkpt>
      <trkpt lat="42.2828040" lon="-8.6492710">
        <ele>163.7</ele>
        <time>2021-05-20T14:50:45Z</time>
      </trkpt>
      <trkpt lat="42.2828070" lon="-8.6492570">
        <ele>163.7</ele>
        <time>2021-05-20T14:50:46Z</time>
      </trkpt>
      <trkpt lat="42.2828180" lon="-8.6492370">
        <ele>163.7</ele>
        <time>2021-05-20T14:50:47Z</time>
      </trkpt>
      <trkpt lat="42.2828230" lon="-8.6492210">
        <ele>163.7</ele>
        <time>2021-05-20T14:50:48Z</time>
      </trkpt>
      <trkpt lat="42.2828300" lon="-8.6491920">
        <ele>163.7</ele>
        <time>2021-05-20T14:50:49Z</time>
      </trkpt>
      <trkpt lat="42.2828390" lon="-8.6491780">
        <ele>163.6</ele>
        <time>2021-05-20T14:50:50Z</time>
      </trkpt>
      <trkpt lat="42.2828420" lon="-8.6491650">
        <ele>163.6</ele>
        <time>2021-05-20T14:50:51Z</time>
      </trkpt>
      <trkpt lat="42.2828490" lon="-8.6491600">
        <ele>163.6</ele>
        <time>2021-05-20T14:50:52Z</time>
      </trkpt>
      <trkpt lat="42.2828520" lon="-8.6491450">
        <ele>163.6</ele>
        <time>2021-05-20T14:50:53Z</time>
      </trkpt>
      <trkpt lat="42.2828600" lon="-8.6491260">
        <ele>163.6</ele>
        <time>2021-05-20T14:50:54Z</time>
      </trkpt>
      <trkpt lat="42.2828660" lon="-8.6491120">
        <ele>163.6</ele>
        <time>2021-05-20T14:50:55Z</time>
      </trkpt>
      <trkpt lat="42.2828650" lon="-8.6490860">
        <ele>163.6</ele>
        <time>2021-05-20T14:50:56Z</time>
      </trkpt>
      <trkpt lat="42.2828680" lon="-8.6490730">
        <ele>163.6</ele>
        <time>2021-05-20T14:50:57Z</time>
      </trkpt>
      <trkpt lat="42.2828910" lon="-8.6490420">
        <ele>163.5</ele>
        <time>2021-05-20T14:50:58Z</time>
      </trkpt>
      <trkpt lat="42.2828970" lon="-8.6490280">
        <ele>163.5</ele>
        <time>2021-05-20T14:50:59Z</time>
      </trkpt>
      <trkpt lat="42.2829050" lon="-8.6490180">
        <ele>163.5</ele>
        <time>2021-05-20T14:51:00Z</time>
      </trkpt>
      <trkpt lat="42.2829130" lon="-8.6490060">
        <ele>163.5</ele>
        <time>2021-05-20T14:51:01Z</time>
      </trkpt>
      <trkpt lat="42.2829130" lon="-8.6489950">
        <ele>163.5</ele>
        <time>2021-05-20T14:51:02Z</time>
      </trkpt>
      <trkpt lat="42.2829210" lon="-8.6489850">
        <ele>163.5</ele>
        <time>2021-05-20T14:51:03Z</time>
      </trkpt>
      <trkpt lat="42.2829130" lon="-8.6489690">
        <ele>163.5</ele>
        <time>2021-05-20T14:51:04Z</time>
      </trkpt>
      <trkpt lat="42.2829250" lon="-8.6489550">
        <ele>163.4</ele>
        <time>2021-05-20T14:51:05Z</time>
      </trkpt>
      <trkpt lat="42.2829300" lon="-8.6489340">
        <ele>163.4</ele>
        <time>2021-05-20T14:51:06Z</time>
      </trkpt>
      <trkpt lat="42.2829330" lon="-8.6489200">
        <ele>163.4</ele>
        <time>2021-05-20T14:51:07Z</time>
      </trkpt>
      <trkpt lat="42.2829360" lon="-8.6489070">
        <ele>163.4</ele>
        <time>2021-05-20T14:51:08Z</time>
      </trkpt>
      <trkpt lat="42.2829440" lon="-8.6488870">
        <ele>163.4</ele>
        <time>2021-05-20T14:51:09Z</time>
      </trkpt>
      <trkpt lat="42.2829510" lon="-8.6488650">
        <ele>163.4</ele>
        <time>2021-05-20T14:51:10Z</time>
      </trkpt>
      <trkpt lat="42.2829570" lon="-8.6488510">
        <ele>163.4</ele>
        <time>2021-05-20T14:51:11Z</time>
      </trkpt>
      <trkpt lat="42.2829590" lon="-8.6488450">
        <ele>163.4</ele>
        <time>2021-05-20T14:51:12Z</time>
      </trkpt>
      <trkpt lat="42.2829640" lon="-8.6488310">
        <ele>163.4</ele>
        <time>2021-05-20T14:51:13Z</time>
      </trkpt>
      <trkpt lat="42.2829730" lon="-8.6488110">
        <ele>163.4</ele>
        <time>2021-05-20T14:51:14Z</time>
      </trkpt>
      <trkpt lat="42.2829710" lon="-8.6487870">
        <ele>163.4</ele>
        <time>2021-05-20T14:51:15Z</time>
      </trkpt>
      <trkpt lat="42.2829870" lon="-8.6487670">
        <ele>163.4</ele>
        <time>2021-05-20T14:51:16Z</time>
      </trkpt>
      <trkpt lat="42.2829960" lon="-8.6487610">
        <ele>163.3</ele>
        <time>2021-05-20T14:51:17Z</time>
      </trkpt>
      <trkpt lat="42.2830050" lon="-8.6487540">
        <ele>163.3</ele>
        <time>2021-05-20T14:51:18Z</time>
      </trkpt>
      <trkpt lat="42.2830090" lon="-8.6487280">
        <ele>163.3</ele>
        <time>2021-05-20T14:51:19Z</time>
      </trkpt>
      <trkpt lat="42.2830080" lon="-8.6487160">
        <ele>163.3</ele>
        <time>2021-05-20T14:51:20Z</time>
      </trkpt>
      <trkpt lat="42.2830070" lon="-8.6487050">
        <ele>163.3</ele>
        <time>2021-05-20T14:51:21Z</time>
      </trkpt>
      <trkpt lat="42.2830170" lon="-8.6486800">
        <ele>163.3</ele>
        <time>2021-05-20T14:51:22Z</time>
      </trkpt>
      <trkpt lat="42.2830250" lon="-8.6486720">
        <ele>163.3</ele>
        <time>2021-05-20T14:51:23Z</time>
      </trkpt>
      <trkpt lat="42.2830240" lon="-8.6486510">
        <ele>163.3</ele>
        <time>2021-05-20T14:51:24Z</time>
      </trkpt>
      <trkpt lat="42.2830250" lon="-8.6486340">
        <ele>163.3</ele>
        <time>2021-05-20T14:51:25Z</time>
      </trkpt>
      <trkpt lat="42.2830290" lon="-8.6486110">
        <ele>163.3</ele>
        <time>2021-05-20T14:51:26Z</time>
      </trkpt>
      <trkpt lat="42.2830280" lon="-8.6485940">
        <ele>163.4</ele>
        <time>2021-05-20T14:51:27Z</time>
      </trkpt>
      <trkpt lat="42.2830360" lon="-8.6485710">
        <ele>163.4</ele>
        <time>2021-05-20T14:51:28Z</time>
      </trkpt>
      <trkpt lat="42.2830430" lon="-8.6485600">
        <ele>163.4</ele>
        <time>2021-05-20T14:51:29Z</time>
      </trkpt>
      <trkpt lat="42.2830510" lon="-8.6485500">
        <ele>163.4</ele>
        <time>2021-05-20T14:51:30Z</time>
      </trkpt>
      <trkpt lat="42.2830500" lon="-8.6485240">
        <ele>163.4</ele>
        <time>2021-05-20T14:51:31Z</time>
      </trkpt>
      <trkpt lat="42.2830500" lon="-8.6485150">
        <ele>163.4</ele>
        <time>2021-05-20T14:51:32Z</time>
      </trkpt>
      <trkpt lat="42.2830510" lon="-8.6485060">
        <ele>163.4</ele>
        <time>2021-05-20T14:51:33Z</time>
      </trkpt>
      <trkpt lat="42.2830510" lon="-8.6484970">
        <ele>163.4</ele>
        <time>2021-05-20T14:51:34Z</time>
      </trkpt>
      <trkpt lat="42.2830510" lon="-8.6484860">
        <ele>163.4</ele>
        <time>2021-05-20T14:51:35Z</time>
      </trkpt>
      <trkpt lat="42.2830540" lon="-8.6484590">
        <ele>163.4</ele>
        <time>2021-05-20T14:51:36Z</time>
      </trkpt>
      <trkpt lat="42.2830580" lon="-8.6484330">
        <ele>163.5</ele>
        <time>2021-05-20T14:51:37Z</time>
      </trkpt>
      <trkpt lat="42.2830590" lon="-8.6484210">
        <ele>163.5</ele>
        <time>2021-05-20T14:51:38Z</time>
      </trkpt>
      <trkpt lat="42.2830600" lon="-8.6484090">
        <ele>163.5</ele>
        <time>2021-05-20T14:51:39Z</time>
      </trkpt>
      <trkpt lat="42.2830530" lon="-8.6483900">
        <ele>163.5</ele>
        <time>2021-05-20T14:51:40Z</time>
      </trkpt>
      <trkpt lat="42.2830570" lon="-8.6483680">
        <ele>163.5</ele>
        <time>2021-05-20T14:51:41Z</time>
      </trkpt>
      <trkpt lat="42.2830630" lon="-8.6483510">
        <ele>163.5</ele>
        <time>2021-05-20T14:51:42Z</time>
      </trkpt>
      <trkpt lat="42.2830600" lon="-8.6483430">
        <ele>163.5</ele>
        <time>2021-05-20T14:51:43Z</time>
      </trkpt>
      <trkpt lat="42.2830550" lon="-8.6483280">
        <ele>163.6</ele>
        <time>2021-05-20T14:51:44Z</time>
      </trkpt>
      <trkpt lat="42.2830410" lon="-8.6483150">
        <ele>163.6</ele>
        <time>2021-05-20T14:51:45Z</time>
      </trkpt>
      <trkpt lat="42.2830510" lon="-8.6483000">
        <ele>163.6</ele>
        <time>2021-05-20T14:51:46Z</time>
      </trkpt>
      <trkpt lat="42.2830680" lon="-8.6482920">
        <ele>163.6</ele>
        <time>2021-05-20T14:51:47Z</time>
      </trkpt>
      <trkpt lat="42.2830750" lon="-8.6482740">
        <ele>163.6</ele>
        <time>2021-05-20T14:51:48Z</time>
      </trkpt>
      <trkpt lat="42.2830780" lon="-8.6482570">
        <ele>163.6</ele>
        <time>2021-05-20T14:51:49Z</time>
      </trkpt>
      <trkpt lat="42.2830870" lon="-8.6482330">
        <ele>163.7</ele>
        <time>2021-05-20T14:51:50Z</time>
      </trkpt>
      <trkpt lat="42.2830870" lon="-8.6482190">
        <ele>163.7</ele>
        <time>2021-05-20T14:51:51Z</time>
      </trkpt>
      <trkpt lat="42.2830870" lon="-8.6482050">
        <ele>163.7</ele>
        <time>2021-05-20T14:51:52Z</time>
      </trkpt>
      <trkpt lat="42.2831000" lon="-8.6481860">
        <ele>163.7</ele>
        <time>2021-05-20T14:51:53Z</time>
      </trkpt>
      <trkpt lat="42.2831060" lon="-8.6481770">
        <ele>163.7</ele>
        <time>2021-05-20T14:51:54Z</time>
      </trkpt>
      <trkpt lat="42.2831110" lon="-8.6481670">
        <ele>163.7</ele>
        <time>2021-05-20T14:51:55Z</time>
      </trkpt>
      <trkpt lat="42.2831220" lon="-8.6481530">
        <ele>163.7</ele>
        <time>2021-05-20T14:51:56Z</time>
      </trkpt>
      <trkpt lat="42.2831290" lon="-8.6481520">
        <ele>163.8</ele>
        <time>2021-05-20T14:51:57Z</time>
      </trkpt>
      <trkpt lat="42.2831370" lon="-8.6481420">
        <ele>163.8</ele>
        <time>2021-05-20T14:51:58Z</time>
      </trkpt>
      <trkpt lat="42.2831410" lon="-8.6481360">
        <ele>163.8</ele>
        <time>2021-05-20T14:51:59Z</time>
      </trkpt>
      <trkpt lat="42.2831410" lon="-8.6481240">
        <ele>163.8</ele>
        <time>2021-05-20T14:52:00Z</time>
      </trkpt>
      <trkpt lat="42.2831440" lon="-8.6480980">
        <ele>163.8</ele>
        <time>2021-05-20T14:52:01Z</time>
      </trkpt>
      <trkpt lat="42.2831470" lon="-8.6480770">
        <ele>163.8</ele>
        <time>2021-05-20T14:52:02Z</time>
      </trkpt>
      <trkpt lat="42.2831680" lon="-8.6480670">
        <ele>163.9</ele>
        <time>2021-05-20T14:52:03Z</time>
      </trkpt>
      <trkpt lat="42.2831740" lon="-8.6480400">
        <ele>163.9</ele>
        <time>2021-05-20T14:52:04Z</time>
      </trkpt>
      <trkpt lat="42.2831760" lon="-8.6480300">
        <ele>163.9</ele>
        <time>2021-05-20T14:52:05Z</time>
      </trkpt>
      <trkpt lat="42.2831790" lon="-8.6480210">
        <ele>163.9</ele>
        <time>2021-05-20T14:52:06Z</time>
      </trkpt>
      <trkpt lat="42.2831880" lon="-8.6480050">
        <ele>163.9</ele>
        <time>2021-05-20T14:52:07Z</time>
      </trkpt>
      <trkpt lat="42.2831890" lon="-8.6479860">
        <ele>163.9</ele>
        <time>2021-05-20T14:52:08Z</time>
      </trkpt>
      <trkpt lat="42.2831950" lon="-8.6479640">
        <ele>164.0</ele>
        <time>2021-05-20T14:52:09Z</time>
      </trkpt>
      <trkpt lat="42.2831980" lon="-8.6479510">
        <ele>164.0</ele>
        <time>2021-05-20T14:52:10Z</time>
      </trkpt>
      <trkpt lat="42.2832010" lon="-8.6479390">
        <ele>164.0</ele>
        <time>2021-05-20T14:52:11Z</time>
      </trkpt>
      <trkpt lat="42.2832100" lon="-8.6479140">
        <ele>164.0</ele>
        <time>2021-05-20T14:52:12Z</time>
      </trkpt>
      <trkpt lat="42.2832140" lon="-8.6478970">
        <ele>164.0</ele>
        <time>2021-05-20T14:52:13Z</time>
      </trkpt>
      <trkpt lat="42.2832140" lon="-8.6478870">
        <ele>164.0</ele>
        <time>2021-05-20T14:52:14Z</time>
      </trkpt>
      <trkpt lat="42.2832170" lon="-8.6478670">
        <ele>164.0</ele>
        <time>2021-05-20T14:52:15Z</time>
      </trkpt>
      <trkpt lat="42.2832220" lon="-8.6478600">
        <ele>164.0</ele>
        <time>2021-05-20T14:52:16Z</time>
      </trkpt>
      <trkpt lat="42.2832190" lon="-8.6478350">
        <ele>164.0</ele>
        <time>2021-05-20T14:52:17Z</time>
      </trkpt>
      <trkpt lat="42.2832180" lon="-8.6478220">
        <ele>164.0</ele>
        <time>2021-05-20T14:52:18Z</time>
      </trkpt>
      <trkpt lat="42.2832170" lon="-8.6478090">
        <ele>164.0</ele>
        <time>2021-05-20T14:52:19Z</time>
      </trkpt>
      <trkpt lat="42.2832200" lon="-8.6477830">
        <ele>164.0</ele>
        <time>2021-05-20T14:52:20Z</time>
      </trkpt>
      <trkpt lat="42.2832200" lon="-8.6477700">
        <ele>164.0</ele>
        <time>2021-05-20T14:52:21Z</time>
      </trkpt>
      <trkpt lat="42.2832350" lon="-8.6477470">
        <ele>164.0</ele>
        <time>2021-05-20T14:52:22Z</time>
      </trkpt>
      <trkpt lat="42.2832420" lon="-8.6477400">
        <ele>164.0</ele>
        <time>2021-05-20T14:52:23Z</time>
      </trkpt>
      <trkpt lat="42.2832490" lon="-8.6477330">
        <ele>164.0</ele>
        <time>2021-05-20T14:52:24Z</time>
      </trkpt>
      <trkpt lat="42.2832650" lon="-8.6477120">
        <ele>164.0</ele>
        <time>2021-05-20T14:52:25Z</time>
      </trkpt>
      <trkpt lat="42.2832680" lon="-8.6476990">
        <ele>164.0</ele>
        <time>2021-05-20T14:52:26Z</time>
      </trkpt>
      <trkpt lat="42.2832700" lon="-8.6476860">
        <ele>164.0</ele>
        <time>2021-05-20T14:52:27Z</time>
      </trkpt>
      <trkpt lat="42.2832700" lon="-8.6476720">
        <ele>164.0</ele>
        <time>2021-05-20T14:52:28Z</time>
      </trkpt>
      <trkpt lat="42.2832850" lon="-8.6476620">
        <ele>164.0</ele>
        <time>2021-05-20T14:52:29Z</time>
      </trkpt>
      <trkpt lat="42.2832910" lon="-8.6476520">
        <ele>164.0</ele>
        <time>2021-05-20T14:52:30Z</time>
      </trkpt>
      <trkpt lat="42.2833010" lon="-8.6476350">
        <ele>164.0</ele>
        <time>2021-05-20T14:52:31Z</time>
      </trkpt>
      <trkpt lat="42.2833040" lon="-8.6476190">
        <ele>164.0</ele>
        <time>2021-05-20T14:52:32Z</time>
      </trkpt>
      <trkpt lat="42.2833080" lon="-8.6476020">
        <ele>164.0</ele>
        <time>2021-05-20T14:52:33Z</time>
      </trkpt>
      <trkpt lat="42.2833100" lon="-8.6475750">
        <ele>164.0</ele>
        <time>2021-05-20T14:52:34Z</time>
      </trkpt>
      <trkpt lat="42.2833160" lon="-8.6475510">
        <ele>164.0</ele>
        <time>2021-05-20T14:52:35Z</time>
      </trkpt>
      <trkpt lat="42.2833160" lon="-8.6475390">
        <ele>164.0</ele>
        <time>2021-05-20T14:52:36Z</time>
      </trkpt>
      <trkpt lat="42.2833170" lon="-8.6475270">
        <ele>164.0</ele>
        <time>2021-05-20T14:52:37Z</time>
      </trkpt>
      <trkpt lat="42.2833170" lon="-8.6475100">
        <ele>164.0</ele>
        <time>2021-05-20T14:52:38Z</time>
      </trkpt>
      <trkpt lat="42.2833260" lon="-8.6474970">
        <ele>164.0</ele>
        <time>2021-05-20T14:52:39Z</time>
      </trkpt>
      <trkpt lat="42.2833240" lon="-8.6474880">
        <ele>164.0</ele>
        <time>2021-05-20T14:52:40Z</time>
      </trkpt>
      <trkpt lat="42.2833270" lon="-8.6474730">
        <ele>164.0</ele>
        <time>2021-05-20T14:52:41Z</time>
      </trkpt>
      <trkpt lat="42.2833260" lon="-8.6474470">
        <ele>164.0</ele>
        <time>2021-05-20T14:52:42Z</time>
      </trkpt>
      <trkpt lat="42.2833270" lon="-8.6474260">
        <ele>164.0</ele>
        <time>2021-05-20T14:52:43Z</time>
      </trkpt>
      <trkpt lat="42.2833380" lon="-8.6474090">
        <ele>164.0</ele>
        <time>2021-05-20T14:52:44Z</time>
      </trkpt>
      <trkpt lat="42.2833330" lon="-8.6473880">
        <ele>164.0</ele>
        <time>2021-05-20T14:52:45Z</time>
      </trkpt>
      <trkpt lat="42.2833400" lon="-8.6473690">
        <ele>164.0</ele>
        <time>2021-05-20T14:52:46Z</time>
      </trkpt>
      <trkpt lat="42.2833480" lon="-8.6473520">
        <ele>164.0</ele>
        <time>2021-05-20T14:52:47Z</time>
      </trkpt>
      <trkpt lat="42.2833490" lon="-8.6473310">
        <ele>164.0</ele>
        <time>2021-05-20T14:52:48Z</time>
      </trkpt>
      <trkpt lat="42.2833550" lon="-8.6473020">
        <ele>164.0</ele>
        <time>2021-05-20T14:52:49Z</time>
      </trkpt>
      <trkpt lat="42.2833560" lon="-8.6472910">
        <ele>164.0</ele>
        <time>2021-05-20T14:52:50Z</time>
      </trkpt>
      <trkpt lat="42.2833580" lon="-8.6472810">
        <ele>164.0</ele>
        <time>2021-05-20T14:52:51Z</time>
      </trkpt>
      <trkpt lat="42.2833600" lon="-8.6472580">
        <ele>164.0</ele>
        <time>2021-05-20T14:52:52Z</time>
      </trkpt>
      <trkpt lat="42.2833560" lon="-8.6472400">
        <ele>164.0</ele>
        <time>2021-05-20T14:52:53Z</time>
      </trkpt>
      <trkpt lat="42.2833550" lon="-8.6472260">
        <ele>164.0</ele>
        <time>2021-05-20T14:52:54Z</time>
      </trkpt>
      <trkpt lat="42.2833520" lon="-8.6472080">
        <ele>164.0</ele>
        <time>2021-05-20T14:52:55Z</time>
      </trkpt>
      <trkpt lat="42.2833580" lon="-8.6471910">
        <ele>164.0</ele>
        <time>2021-05-20T14:52:56Z</time>
      </trkpt>
      <trkpt lat="42.2833550" lon="-8.6471710">
        <ele>164.0</ele>
        <time>2021-05-20T14:52:57Z</time>
      </trkpt>
      <trkpt lat="42.2833520" lon="-8.6471540">
        <ele>164.1</ele>
        <time>2021-05-20T14:52:58Z</time>
      </trkpt>
      <trkpt lat="42.2833560" lon="-8.6471300">
        <ele>164.1</ele>
        <time>2021-05-20T14:52:59Z</time>
      </trkpt>
      <trkpt lat="42.2833590" lon="-8.6471170">
        <ele>164.1</ele>
        <time>2021-05-20T14:53:00Z</time>
      </trkpt>
      <trkpt lat="42.2833570" lon="-8.6471050">
        <ele>164.1</ele>
        <time>2021-05-20T14:53:01Z</time>
      </trkpt>
      <trkpt lat="42.2833550" lon="-8.6470920">
        <ele>164.1</ele>
        <time>2021-05-20T14:53:02Z</time>
      </trkpt>
      <trkpt lat="42.2833610" lon="-8.6470790">
        <ele>164.1</ele>
        <time>2021-05-20T14:53:03Z</time>
      </trkpt>
      <trkpt lat="42.2833630" lon="-8.6470500">
        <ele>164.1</ele>
        <time>2021-05-20T14:53:04Z</time>
      </trkpt>
      <trkpt lat="42.2833630" lon="-8.6470380">
        <ele>164.1</ele>
        <time>2021-05-20T14:53:05Z</time>
      </trkpt>
      <trkpt lat="42.2833640" lon="-8.6470270">
        <ele>164.1</ele>
        <time>2021-05-20T14:53:06Z</time>
      </trkpt>
      <trkpt lat="42.2833660" lon="-8.6470040">
        <ele>164.1</ele>
        <time>2021-05-20T14:53:07Z</time>
      </trkpt>
      <trkpt lat="42.2833560" lon="-8.6469900">
        <ele>164.1</ele>
        <time>2021-05-20T14:53:08Z</time>
      </trkpt>
      <trkpt lat="42.2833530" lon="-8.6469520">
        <ele>164.2</ele>
        <time>2021-05-20T14:53:09Z</time>
      </trkpt>
      <trkpt lat="42.2833510" lon="-8.6469410">
        <ele>164.2</ele>
        <time>2021-05-20T14:53:10Z</time>
      </trkpt>
      <trkpt lat="42.2833460" lon="-8.6469140">
        <ele>164.2</ele>
        <time>2021-05-20T14:53:11Z</time>
      </trkpt>
      <trkpt lat="42.2833540" lon="-8.6469050">
        <ele>164.2</ele>
        <time>2021-05-20T14:53:12Z</time>
      </trkpt>
      <trkpt lat="42.2833590" lon="-8.6468880">
        <ele>164.2</ele>
        <time>2021-05-20T14:53:13Z</time>
      </trkpt>
      <trkpt lat="42.2833580" lon="-8.6468750">
        <ele>164.2</ele>
        <time>2021-05-20T14:53:14Z</time>
      </trkpt>
      <trkpt lat="42.2833610" lon="-8.6468600">
        <ele>164.2</ele>
        <time>2021-05-20T14:53:15Z</time>
      </trkpt>
      <trkpt lat="42.2833650" lon="-8.6468380">
        <ele>164.2</ele>
        <time>2021-05-20T14:53:16Z</time>
      </trkpt>
      <trkpt lat="42.2833590" lon="-8.6468230">
        <ele>164.2</ele>
        <time>2021-05-20T14:53:17Z</time>
      </trkpt>
      <trkpt lat="42.2833600" lon="-8.6468030">
        <ele>164.2</ele>
        <time>2021-05-20T14:53:18Z</time>
      </trkpt>
      <trkpt lat="42.2833610" lon="-8.6467840">
        <ele>164.2</ele>
        <time>2021-05-20T14:53:19Z</time>
      </trkpt>
      <trkpt lat="42.2833640" lon="-8.6467730">
        <ele>164.3</ele>
        <time>2021-05-20T14:53:20Z</time>
      </trkpt>
      <trkpt lat="42.2833700" lon="-8.6467580">
        <ele>164.3</ele>
        <time>2021-05-20T14:53:21Z</time>
      </trkpt>
      <trkpt lat="42.2833670" lon="-8.6467410">
        <ele>164.3</ele>
        <time>2021-05-20T14:53:22Z</time>
      </trkpt>
      <trkpt lat="42.2833660" lon="-8.6467250">
        <ele>164.3</ele>
        <time>2021-05-20T14:53:23Z</time>
      </trkpt>
      <trkpt lat="42.2833610" lon="-8.6467120">
        <ele>164.3</ele>
        <time>2021-05-20T14:53:24Z</time>
      </trkpt>
      <trkpt lat="42.2833600" lon="-8.6466920">
        <ele>164.3</ele>
        <time>2021-05-20T14:53:25Z</time>
      </trkpt>
      <trkpt lat="42.2833670" lon="-8.6466770">
        <ele>164.3</ele>
        <time>2021-05-20T14:53:26Z</time>
      </trkpt>
      <trkpt lat="42.2833640" lon="-8.6466550">
        <ele>164.3</ele>
        <time>2021-05-20T14:53:27Z</time>
      </trkpt>
      <trkpt lat="42.2833590" lon="-8.6466330">
        <ele>164.4</ele>
        <time>2021-05-20T14:53:28Z</time>
      </trkpt>
      <trkpt lat="42.2833570" lon="-8.6466170">
        <ele>164.4</ele>
        <time>2021-05-20T14:53:29Z</time>
      </trkpt>
      <trkpt lat="42.2833610" lon="-8.6466060">
        <ele>164.4</ele>
        <time>2021-05-20T14:53:30Z</time>
      </trkpt>
      <trkpt lat="42.2833620" lon="-8.6465890">
        <ele>164.4</ele>
        <time>2021-05-20T14:53:31Z</time>
      </trkpt>
      <trkpt lat="42.2833640" lon="-8.6465760">
        <ele>164.4</ele>
        <time>2021-05-20T14:53:32Z</time>
      </trkpt>
      <trkpt lat="42.2833590" lon="-8.6465560">
        <ele>164.4</ele>
        <time>2021-05-20T14:53:33Z</time>
      </trkpt>
      <trkpt lat="42.2833630" lon="-8.6465410">
        <ele>164.4</ele>
        <time>2021-05-20T14:53:34Z</time>
      </trkpt>
      <trkpt lat="42.2833640" lon="-8.6465350">
        <ele>164.4</ele>
        <time>2021-05-20T14:53:35Z</time>
      </trkpt>
      <trkpt lat="42.2833660" lon="-8.6465090">
        <ele>164.4</ele>
        <time>2021-05-20T14:53:36Z</time>
      </trkpt>
      <trkpt lat="42.2833640" lon="-8.6464930">
        <ele>164.4</ele>
        <time>2021-05-20T14:53:37Z</time>
      </trkpt>
      <trkpt lat="42.2833640" lon="-8.6464740">
        <ele>164.4</ele>
        <time>2021-05-20T14:53:38Z</time>
      </trkpt>
      <trkpt lat="42.2833670" lon="-8.6464510">
        <ele>164.4</ele>
        <time>2021-05-20T14:53:39Z</time>
      </trkpt>
      <trkpt lat="42.2833710" lon="-8.6464360">
        <ele>164.4</ele>
        <time>2021-05-20T14:53:40Z</time>
      </trkpt>
      <trkpt lat="42.2833720" lon="-8.6464110">
        <ele>164.4</ele>
        <time>2021-05-20T14:53:41Z</time>
      </trkpt>
      <trkpt lat="42.2833750" lon="-8.6463900">
        <ele>164.4</ele>
        <time>2021-05-20T14:53:42Z</time>
      </trkpt>
      <trkpt lat="42.2833700" lon="-8.6463740">
        <ele>164.4</ele>
        <time>2021-05-20T14:53:43Z</time>
      </trkpt>
      <trkpt lat="42.2833780" lon="-8.6463550">
        <ele>164.4</ele>
        <time>2021-05-20T14:53:44Z</time>
      </trkpt>
      <trkpt lat="42.2833820" lon="-8.6463410">
        <ele>164.3</ele>
        <time>2021-05-20T14:53:45Z</time>
      </trkpt>
      <trkpt lat="42.2833700" lon="-8.6463210">
        <ele>164.3</ele>
        <time>2021-05-20T14:53:46Z</time>
      </trkpt>
      <trkpt lat="42.2833690" lon="-8.6462980">
        <ele>164.3</ele>
        <time>2021-05-20T14:53:47Z</time>
      </trkpt>
      <trkpt lat="42.2833570" lon="-8.6462740">
        <ele>164.3</ele>
        <time>2021-05-20T14:53:48Z</time>
      </trkpt>
      <trkpt lat="42.2833560" lon="-8.6462530">
        <ele>164.3</ele>
        <time>2021-05-20T14:53:49Z</time>
      </trkpt>
      <trkpt lat="42.2833490" lon="-8.6462280">
        <ele>164.3</ele>
        <time>2021-05-20T14:53:50Z</time>
      </trkpt>
      <trkpt lat="42.2833450" lon="-8.6462150">
        <ele>164.3</ele>
        <time>2021-05-20T14:53:51Z</time>
      </trkpt>
      <trkpt lat="42.2833410" lon="-8.6462010">
        <ele>164.3</ele>
        <time>2021-05-20T14:53:52Z</time>
      </trkpt>
      <trkpt lat="42.2833360" lon="-8.6461720">
        <ele>164.3</ele>
        <time>2021-05-20T14:53:53Z</time>
      </trkpt>
      <trkpt lat="42.2833350" lon="-8.6461600">
        <ele>164.3</ele>
        <time>2021-05-20T14:53:54Z</time>
      </trkpt>
      <trkpt lat="42.2833330" lon="-8.6461470">
        <ele>164.3</ele>
        <time>2021-05-20T14:53:55Z</time>
      </trkpt>
      <trkpt lat="42.2833270" lon="-8.6461340">
        <ele>164.3</ele>
        <time>2021-05-20T14:53:56Z</time>
      </trkpt>
      <trkpt lat="42.2833230" lon="-8.6461240">
        <ele>164.3</ele>
        <time>2021-05-20T14:53:57Z</time>
      </trkpt>
      <trkpt lat="42.2833200" lon="-8.6461130">
        <ele>164.3</ele>
        <time>2021-05-20T14:53:58Z</time>
      </trkpt>
      <trkpt lat="42.2833160" lon="-8.6461030">
        <ele>164.3</ele>
        <time>2021-05-20T14:53:59Z</time>
      </trkpt>
      <trkpt lat="42.2833050" lon="-8.6460790">
        <ele>164.3</ele>
        <time>2021-05-20T14:54:00Z</time>
      </trkpt>
      <trkpt lat="42.2833000" lon="-8.6460690">
        <ele>164.3</ele>
        <time>2021-05-20T14:54:01Z</time>
      </trkpt>
      <trkpt lat="42.2832940" lon="-8.6460600">
        <ele>164.3</ele>
        <time>2021-05-20T14:54:02Z</time>
      </trkpt>
      <trkpt lat="42.2832840" lon="-8.6460450">
        <ele>164.4</ele>
        <time>2021-05-20T14:54:03Z</time>
      </trkpt>
      <trkpt lat="42.2832750" lon="-8.6460300">
        <ele>164.4</ele>
        <time>2021-05-20T14:54:04Z</time>
      </trkpt>
      <trkpt lat="42.2832550" lon="-8.6460150">
        <ele>164.4</ele>
        <time>2021-05-20T14:54:05Z</time>
      </trkpt>
      <trkpt lat="42.2832480" lon="-8.6460080">
        <ele>164.4</ele>
        <time>2021-05-20T14:54:06Z</time>
      </trkpt>
      <trkpt lat="42.2832400" lon="-8.6460020">
        <ele>164.4</ele>
        <time>2021-05-20T14:54:07Z</time>
      </trkpt>
      <trkpt lat="42.2832250" lon="-8.6459800">
        <ele>164.4</ele>
        <time>2021-05-20T14:54:08Z</time>
      </trkpt>
      <trkpt lat="42.2832150" lon="-8.6459710">
        <ele>164.4</ele>
        <time>2021-05-20T14:54:09Z</time>
      </trkpt>
      <trkpt lat="42.2831990" lon="-8.6459600">
        <ele>164.4</ele>
        <time>2021-05-20T14:54:10Z</time>
      </trkpt>
      <trkpt lat="42.2831870" lon="-8.6459580">
        <ele>164.4</ele>
        <time>2021-05-20T14:54:11Z</time>
      </trkpt>
      <trkpt lat="42.2831710" lon="-8.6459410">
        <ele>164.4</ele>
        <time>2021-05-20T14:54:12Z</time>
      </trkpt>
      <trkpt lat="42.2831630" lon="-8.6459350">
        <ele>164.4</ele>
        <time>2021-05-20T14:54:13Z</time>
      </trkpt>
      <trkpt lat="42.2831560" lon="-8.6459280">
        <ele>164.4</ele>
        <time>2021-05-20T14:54:14Z</time>
      </trkpt>
      <trkpt lat="42.2831450" lon="-8.6459210">
        <ele>164.4</ele>
        <time>2021-05-20T14:54:15Z</time>
      </trkpt>
      <trkpt lat="42.2831270" lon="-8.6459080">
        <ele>164.4</ele>
        <time>2021-05-20T14:54:16Z</time>
      </trkpt>
      <trkpt lat="42.2831190" lon="-8.6459020">
        <ele>164.4</ele>
        <time>2021-05-20T14:54:17Z</time>
      </trkpt>
      <trkpt lat="42.2831090" lon="-8.6458910">
        <ele>164.4</ele>
        <time>2021-05-20T14:54:18Z</time>
      </trkpt>
      <trkpt lat="42.2830970" lon="-8.6458890">
        <ele>164.4</ele>
        <time>2021-05-20T14:54:19Z</time>
      </trkpt>
      <trkpt lat="42.2830830" lon="-8.6458830">
        <ele>164.4</ele>
        <time>2021-05-20T14:54:20Z</time>
      </trkpt>
      <trkpt lat="42.2830720" lon="-8.6458690">
        <ele>164.4</ele>
        <time>2021-05-20T14:54:21Z</time>
      </trkpt>
      <trkpt lat="42.2830510" lon="-8.6458590">
        <ele>164.4</ele>
        <time>2021-05-20T14:54:22Z</time>
      </trkpt>
      <trkpt lat="42.2830400" lon="-8.6458560">
        <ele>164.4</ele>
        <time>2021-05-20T14:54:23Z</time>
      </trkpt>
      <trkpt lat="42.2830290" lon="-8.6458520">
        <ele>164.4</ele>
        <time>2021-05-20T14:54:24Z</time>
      </trkpt>
      <trkpt lat="42.2830190" lon="-8.6458430">
        <ele>164.4</ele>
        <time>2021-05-20T14:54:25Z</time>
      </trkpt>
      <trkpt lat="42.2830040" lon="-8.6458310">
        <ele>164.4</ele>
        <time>2021-05-20T14:54:26Z</time>
      </trkpt>
      <trkpt lat="42.2829950" lon="-8.6458150">
        <ele>164.4</ele>
        <time>2021-05-20T14:54:27Z</time>
      </trkpt>
      <trkpt lat="42.2829840" lon="-8.6458060">
        <ele>164.4</ele>
        <time>2021-05-20T14:54:28Z</time>
      </trkpt>
      <trkpt lat="42.2829700" lon="-8.6457860">
        <ele>164.4</ele>
        <time>2021-05-20T14:54:29Z</time>
      </trkpt>
      <trkpt lat="42.2829630" lon="-8.6457780">
        <ele>164.4</ele>
        <time>2021-05-20T14:54:30Z</time>
      </trkpt>
      <trkpt lat="42.2829560" lon="-8.6457690">
        <ele>164.4</ele>
        <time>2021-05-20T14:54:31Z</time>
      </trkpt>
      <trkpt lat="42.2829490" lon="-8.6457530">
        <ele>164.4</ele>
        <time>2021-05-20T14:54:32Z</time>
      </trkpt>
      <trkpt lat="42.2829470" lon="-8.6457400">
        <ele>164.4</ele>
        <time>2021-05-20T14:54:33Z</time>
      </trkpt>
      <trkpt lat="42.2829430" lon="-8.6457290">
        <ele>164.4</ele>
        <time>2021-05-20T14:54:34Z</time>
      </trkpt>
      <trkpt lat="42.2829350" lon="-8.6457170">
        <ele>164.4</ele>
        <time>2021-05-20T14:54:35Z</time>
      </trkpt>
      <trkpt lat="42.2829340" lon="-8.6456990">
        <ele>164.4</ele>
        <time>2021-05-20T14:54:36Z</time>
      </trkpt>
      <trkpt lat="42.2829400" lon="-8.6456810">
        <ele>164.4</ele>
        <time>2021-05-20T14:54:37Z</time>
      </trkpt>
      <trkpt lat="42.2829460" lon="-8.6456660">
        <ele>164.4</ele>
        <time>2021-05-20T14:54:38Z</time>
      </trkpt>
      <trkpt lat="42.2829410" lon="-8.6456420">
        <ele>164.4</ele>
        <time>2021-05-20T14:54:39Z</time>
      </trkpt>
      <trkpt lat="42.2829510" lon="-8.6456180">
        <ele>164.4</ele>
        <time>2021-05-20T14:54:40Z</time>
      </trkpt>
      <trkpt lat="42.2829580" lon="-8.6456090">
        <ele>164.4</ele>
        <time>2021-05-20T14:54:41Z</time>
      </trkpt>
      <trkpt lat="42.2829640" lon="-8.6456010">
        <ele>164.4</ele>
        <time>2021-05-20T14:54:42Z</time>
      </trkpt>
      <trkpt lat="42.2829680" lon="-8.6455830">
        <ele>164.4</ele>
        <time>2021-05-20T14:54:43Z</time>
      </trkpt>
      <trkpt lat="42.2829780" lon="-8.6455680">
        <ele>164.4</ele>
        <time>2021-05-20T14:54:44Z</time>
      </trkpt>
      <trkpt lat="42.2829900" lon="-8.6455460">
        <ele>164.4</ele>
        <time>2021-05-20T14:54:45Z</time>
      </trkpt>
      <trkpt lat="42.2829970" lon="-8.6455390">
        <ele>164.3</ele>
        <time>2021-05-20T14:54:46Z</time>
      </trkpt>
      <trkpt lat="42.2830050" lon="-8.6455330">
        <ele>164.3</ele>
        <time>2021-05-20T14:54:47Z</time>
      </trkpt>
      <trkpt lat="42.2830140" lon="-8.6455100">
        <ele>164.3</ele>
        <time>2021-05-20T14:54:48Z</time>
      </trkpt>
      <trkpt lat="42.2830150" lon="-8.6454960">
        <ele>164.3</ele>
        <time>2021-05-20T14:54:49Z</time>
      </trkpt>
      <trkpt lat="42.2830230" lon="-8.6454780">
        <ele>164.3</ele>
        <time>2021-05-20T14:54:50Z</time>
      </trkpt>
      <trkpt lat="42.2830310" lon="-8.6454630">
        <ele>164.3</ele>
        <time>2021-05-20T14:54:51Z</time>
      </trkpt>
      <trkpt lat="42.2830410" lon="-8.6454370">
        <ele>164.3</ele>
        <time>2021-05-20T14:54:52Z</time>
      </trkpt>
      <trkpt lat="42.2830450" lon="-8.6454240">
        <ele>164.2</ele>
        <time>2021-05-20T14:54:53Z</time>
      </trkpt>
      <trkpt lat="42.2830490" lon="-8.6454120">
        <ele>164.2</ele>
        <time>2021-05-20T14:54:54Z</time>
      </trkpt>
      <trkpt lat="42.2830520" lon="-8.6453990">
        <ele>164.2</ele>
        <time>2021-05-20T14:54:55Z</time>
      </trkpt>
      <trkpt lat="42.2830590" lon="-8.6453850">
        <ele>164.2</ele>
        <time>2021-05-20T14:54:56Z</time>
      </trkpt>
      <trkpt lat="42.2830620" lon="-8.6453710">
        <ele>164.2</ele>
        <time>2021-05-20T14:54:57Z</time>
      </trkpt>
      <trkpt lat="42.2830640" lon="-8.6453520">
        <ele>164.2</ele>
        <time>2021-05-20T14:54:58Z</time>
      </trkpt>
      <trkpt lat="42.2830670" lon="-8.6453440">
        <ele>164.2</ele>
        <time>2021-05-20T14:54:59Z</time>
      </trkpt>
      <trkpt lat="42.2830690" lon="-8.6453350">
        <ele>164.2</ele>
        <time>2021-05-20T14:55:00Z</time>
      </trkpt>
      <trkpt lat="42.2830730" lon="-8.6453220">
        <ele>164.2</ele>
        <time>2021-05-20T14:55:01Z</time>
      </trkpt>
      <trkpt lat="42.2830770" lon="-8.6453110">
        <ele>164.2</ele>
        <time>2021-05-20T14:55:02Z</time>
      </trkpt>
      <trkpt lat="42.2830850" lon="-8.6452960">
        <ele>164.1</ele>
        <time>2021-05-20T14:55:03Z</time>
      </trkpt>
      <trkpt lat="42.2830930" lon="-8.6452730">
        <ele>164.1</ele>
        <time>2021-05-20T14:55:04Z</time>
      </trkpt>
      <trkpt lat="42.2830990" lon="-8.6452510">
        <ele>164.1</ele>
        <time>2021-05-20T14:55:05Z</time>
      </trkpt>
      <trkpt lat="42.2831090" lon="-8.6452300">
        <ele>164.1</ele>
        <time>2021-05-20T14:55:06Z</time>
      </trkpt>
      <trkpt lat="42.2831100" lon="-8.6452160">
        <ele>164.1</ele>
        <time>2021-05-20T14:55:07Z</time>
      </trkpt>
      <trkpt lat="42.2831200" lon="-8.6451920">
        <ele>164.1</ele>
        <time>2021-05-20T14:55:08Z</time>
      </trkpt>
      <trkpt lat="42.2831270" lon="-8.6451830">
        <ele>164.0</ele>
        <time>2021-05-20T14:55:09Z</time>
      </trkpt>
      <trkpt lat="42.2831340" lon="-8.6451740">
        <ele>164.0</ele>
        <time>2021-05-20T14:55:10Z</time>
      </trkpt>
      <trkpt lat="42.2831410" lon="-8.6451590">
        <ele>164.0</ele>
        <time>2021-05-20T14:55:11Z</time>
      </trkpt>
      <trkpt lat="42.2831480" lon="-8.6451400">
        <ele>164.0</ele>
        <time>2021-05-20T14:55:12Z</time>
      </trkpt>
      <trkpt lat="42.2831560" lon="-8.6451270">
        <ele>164.0</ele>
        <time>2021-05-20T14:55:13Z</time>
      </trkpt>
      <trkpt lat="42.2831560" lon="-8.6451100">
        <ele>164.0</ele>
        <time>2021-05-20T14:55:14Z</time>
      </trkpt>
      <trkpt lat="42.2831620" lon="-8.6450950">
        <ele>164.0</ele>
        <time>2021-05-20T14:55:15Z</time>
      </trkpt>
      <trkpt lat="42.2831680" lon="-8.6450810">
        <ele>164.0</ele>
        <time>2021-05-20T14:55:16Z</time>
      </trkpt>
      <trkpt lat="42.2831870" lon="-8.6450640">
        <ele>163.9</ele>
        <time>2021-05-20T14:55:17Z</time>
      </trkpt>
      <trkpt lat="42.2831960" lon="-8.6450460">
        <ele>163.9</ele>
        <time>2021-05-20T14:55:18Z</time>
      </trkpt>
      <trkpt lat="42.2832020" lon="-8.6450340">
        <ele>163.9</ele>
        <time>2021-05-20T14:55:19Z</time>
      </trkpt>
      <trkpt lat="42.2832090" lon="-8.6450230">
        <ele>163.9</ele>
        <time>2021-05-20T14:55:20Z</time>
      </trkpt>
      <trkpt lat="42.2832170" lon="-8.6450180">
        <ele>163.9</ele>
        <time>2021-05-20T14:55:21Z</time>
      </trkpt>
      <trkpt lat="42.2832340" lon="-8.6449990">
        <ele>163.9</ele>
        <time>2021-05-20T14:55:22Z</time>
      </trkpt>
      <trkpt lat="42.2832460" lon="-8.6449770">
        <ele>163.9</ele>
        <time>2021-05-20T14:55:23Z</time>
      </trkpt>
      <trkpt lat="42.2832500" lon="-8.6449650">
        <ele>163.9</ele>
        <time>2021-05-20T14:55:24Z</time>
      </trkpt>
      <trkpt lat="42.2832530" lon="-8.6449540">
        <ele>163.9</ele>
        <time>2021-05-20T14:55:25Z</time>
      </trkpt>
      <trkpt lat="42.2832610" lon="-8.6449380">
        <ele>163.9</ele>
        <time>2021-05-20T14:55:26Z</time>
      </trkpt>
      <trkpt lat="42.2832710" lon="-8.6449310">
        <ele>163.9</ele>
        <time>2021-05-20T14:55:27Z</time>
      </trkpt>
      <trkpt lat="42.2832760" lon="-8.6449210">
        <ele>163.9</ele>
        <time>2021-05-20T14:55:28Z</time>
      </trkpt>
      <trkpt lat="42.2832870" lon="-8.6449100">
        <ele>163.9</ele>
        <time>2021-05-20T14:55:29Z</time>
      </trkpt>
      <trkpt lat="42.2832940" lon="-8.6448940">
        <ele>163.9</ele>
        <time>2021-05-20T14:55:30Z</time>
      </trkpt>
      <trkpt lat="42.2833070" lon="-8.6448810">
        <ele>163.9</ele>
        <time>2021-05-20T14:55:31Z</time>
      </trkpt>
      <trkpt lat="42.2833130" lon="-8.6448580">
        <ele>163.9</ele>
        <time>2021-05-20T14:55:32Z</time>
      </trkpt>
      <trkpt lat="42.2833230" lon="-8.6448350">
        <ele>163.9</ele>
        <time>2021-05-20T14:55:33Z</time>
      </trkpt>
      <trkpt lat="42.2833300" lon="-8.6448260">
        <ele>163.9</ele>
        <time>2021-05-20T14:55:34Z</time>
      </trkpt>
      <trkpt lat="42.2833360" lon="-8.6448170">
        <ele>163.9</ele>
        <time>2021-05-20T14:55:35Z</time>
      </trkpt>
      <trkpt lat="42.2833430" lon="-8.6448040">
        <ele>163.9</ele>
        <time>2021-05-20T14:55:36Z</time>
      </trkpt>
      <trkpt lat="42.2833560" lon="-8.6447900">
        <ele>163.9</ele>
        <time>2021-05-20T14:55:37Z</time>
      </trkpt>
      <trkpt lat="42.2833620" lon="-8.6447820">
        <ele>163.9</ele>
        <time>2021-05-20T14:55:38Z</time>
      </trkpt>
      <trkpt lat="42.2833640" lon="-8.6447660">
        <ele>163.9</ele>
        <time>2021-05-20T14:55:39Z</time>
      </trkpt>
      <trkpt lat="42.2833750" lon="-8.6447630">
        <ele>163.9</ele>
        <time>2021-05-20T14:55:40Z</time>
      </trkpt>
      <trkpt lat="42.2833760" lon="-8.6447420">
        <ele>163.9</ele>
        <time>2021-05-20T14:55:41Z</time>
      </trkpt>
      <trkpt lat="42.2833890" lon="-8.6447280">
        <ele>163.9</ele>
        <time>2021-05-20T14:55:42Z</time>
      </trkpt>
      <trkpt lat="42.2834000" lon="-8.6447030">
        <ele>163.9</ele>
        <time>2021-05-20T14:55:43Z</time>
      </trkpt>
      <trkpt lat="42.2834090" lon="-8.6446930">
        <ele>163.9</ele>
        <time>2021-05-20T14:55:44Z</time>
      </trkpt>
      <trkpt lat="42.2834160" lon="-8.6446860">
        <ele>163.9</ele>
        <time>2021-05-20T14:55:45Z</time>
      </trkpt>
      <trkpt lat="42.2834170" lon="-8.6446790">
        <ele>163.9</ele>
        <time>2021-05-20T14:55:46Z</time>
      </trkpt>
      <trkpt lat="42.2834210" lon="-8.6446540">
        <ele>163.9</ele>
        <time>2021-05-20T14:55:47Z</time>
      </trkpt>
      <trkpt lat="42.2834260" lon="-8.6446280">
        <ele>163.9</ele>
        <time>2021-05-20T14:55:48Z</time>
      </trkpt>
      <trkpt lat="42.2834290" lon="-8.6446170">
        <ele>163.9</ele>
        <time>2021-05-20T14:55:49Z</time>
      </trkpt>
      <trkpt lat="42.2834330" lon="-8.6446050">
        <ele>163.9</ele>
        <time>2021-05-20T14:55:50Z</time>
      </trkpt>
      <trkpt lat="42.2834420" lon="-8.6445910">
        <ele>163.9</ele>
        <time>2021-05-20T14:55:51Z</time>
      </trkpt>
      <trkpt lat="42.2834440" lon="-8.6445680">
        <ele>163.9</ele>
        <time>2021-05-20T14:55:52Z</time>
      </trkpt>
      <trkpt lat="42.2834560" lon="-8.6445420">
        <ele>163.8</ele>
        <time>2021-05-20T14:55:53Z</time>
      </trkpt>
      <trkpt lat="42.2834600" lon="-8.6445340">
        <ele>163.8</ele>
        <time>2021-05-20T14:55:54Z</time>
      </trkpt>
      <trkpt lat="42.2834640" lon="-8.6445250">
        <ele>163.8</ele>
        <time>2021-05-20T14:55:55Z</time>
      </trkpt>
      <trkpt lat="42.2834660" lon="-8.6445010">
        <ele>163.8</ele>
        <time>2021-05-20T14:55:56Z</time>
      </trkpt>
      <trkpt lat="42.2834780" lon="-8.6444930">
        <ele>163.8</ele>
        <time>2021-05-20T14:55:57Z</time>
      </trkpt>
      <trkpt lat="42.2834850" lon="-8.6444760">
        <ele>163.8</ele>
        <time>2021-05-20T14:55:58Z</time>
      </trkpt>
      <trkpt lat="42.2834890" lon="-8.6444650">
        <ele>163.8</ele>
        <time>2021-05-20T14:55:59Z</time>
      </trkpt>
      <trkpt lat="42.2834920" lon="-8.6444490">
        <ele>163.8</ele>
        <time>2021-05-20T14:56:00Z</time>
      </trkpt>
      <trkpt lat="42.2834990" lon="-8.6444360">
        <ele>163.8</ele>
        <time>2021-05-20T14:56:01Z</time>
      </trkpt>
      <trkpt lat="42.2835090" lon="-8.6444320">
        <ele>163.8</ele>
        <time>2021-05-20T14:56:02Z</time>
      </trkpt>
      <trkpt lat="42.2835140" lon="-8.6444190">
        <ele>163.7</ele>
        <time>2021-05-20T14:56:03Z</time>
      </trkpt>
      <trkpt lat="42.2835370" lon="-8.6444090">
        <ele>163.7</ele>
        <time>2021-05-20T14:56:04Z</time>
      </trkpt>
      <trkpt lat="42.2835410" lon="-8.6443990">
        <ele>163.7</ele>
        <time>2021-05-20T14:56:05Z</time>
      </trkpt>
      <trkpt lat="42.2835500" lon="-8.6443890">
        <ele>163.7</ele>
        <time>2021-05-20T14:56:06Z</time>
      </trkpt>
      <trkpt lat="42.2835520" lon="-8.6443750">
        <ele>163.7</ele>
        <time>2021-05-20T14:56:07Z</time>
      </trkpt>
      <trkpt lat="42.2835650" lon="-8.6443650">
        <ele>163.7</ele>
        <time>2021-05-20T14:56:08Z</time>
      </trkpt>
      <trkpt lat="42.2835700" lon="-8.6443490">
        <ele>163.7</ele>
        <time>2021-05-20T14:56:09Z</time>
      </trkpt>
      <trkpt lat="42.2835800" lon="-8.6443320">
        <ele>163.7</ele>
        <time>2021-05-20T14:56:10Z</time>
      </trkpt>
      <trkpt lat="42.2835880" lon="-8.6443160">
        <ele>163.6</ele>
        <time>2021-05-20T14:56:11Z</time>
      </trkpt>
      <trkpt lat="42.2835910" lon="-8.6442930">
        <ele>163.6</ele>
        <time>2021-05-20T14:56:12Z</time>
      </trkpt>
      <trkpt lat="42.2835980" lon="-8.6442740">
        <ele>163.6</ele>
        <time>2021-05-20T14:56:13Z</time>
      </trkpt>
      <trkpt lat="42.2836060" lon="-8.6442620">
        <ele>163.6</ele>
        <time>2021-05-20T14:56:14Z</time>
      </trkpt>
      <trkpt lat="42.2836150" lon="-8.6442530">
        <ele>163.6</ele>
        <time>2021-05-20T14:56:15Z</time>
      </trkpt>
      <trkpt lat="42.2836200" lon="-8.6442370">
        <ele>163.6</ele>
        <time>2021-05-20T14:56:16Z</time>
      </trkpt>
      <trkpt lat="42.2836210" lon="-8.6442190">
        <ele>163.6</ele>
        <time>2021-05-20T14:56:17Z</time>
      </trkpt>
      <trkpt lat="42.2836320" lon="-8.6442030">
        <ele>163.6</ele>
        <time>2021-05-20T14:56:18Z</time>
      </trkpt>
      <trkpt lat="42.2836430" lon="-8.6441880">
        <ele>163.6</ele>
        <time>2021-05-20T14:56:19Z</time>
      </trkpt>
      <trkpt lat="42.2836520" lon="-8.6441740">
        <ele>163.6</ele>
        <time>2021-05-20T14:56:20Z</time>
      </trkpt>
      <trkpt lat="42.2836570" lon="-8.6441500">
        <ele>163.6</ele>
        <time>2021-05-20T14:56:21Z</time>
      </trkpt>
      <trkpt lat="42.2836610" lon="-8.6441330">
        <ele>163.6</ele>
        <time>2021-05-20T14:56:22Z</time>
      </trkpt>
      <trkpt lat="42.2836760" lon="-8.6441120">
        <ele>163.6</ele>
        <time>2021-05-20T14:56:23Z</time>
      </trkpt>
      <trkpt lat="42.2836780" lon="-8.6440940">
        <ele>163.6</ele>
        <time>2021-05-20T14:56:24Z</time>
      </trkpt>
      <trkpt lat="42.2836760" lon="-8.6440660">
        <ele>163.6</ele>
        <time>2021-05-20T14:56:25Z</time>
      </trkpt>
      <trkpt lat="42.2836870" lon="-8.6440580">
        <ele>163.6</ele>
        <time>2021-05-20T14:56:26Z</time>
      </trkpt>
      <trkpt lat="42.2836840" lon="-8.6440460">
        <ele>163.6</ele>
        <time>2021-05-20T14:56:27Z</time>
      </trkpt>
      <trkpt lat="42.2836980" lon="-8.6440320">
        <ele>163.6</ele>
        <time>2021-05-20T14:56:28Z</time>
      </trkpt>
      <trkpt lat="42.2837000" lon="-8.6440270">
        <ele>163.6</ele>
        <time>2021-05-20T14:56:29Z</time>
      </trkpt>
      <trkpt lat="42.2837080" lon="-8.6440120">
        <ele>163.6</ele>
        <time>2021-05-20T14:56:30Z</time>
      </trkpt>
      <trkpt lat="42.2837170" lon="-8.6440010">
        <ele>163.6</ele>
        <time>2021-05-20T14:56:31Z</time>
      </trkpt>
      <trkpt lat="42.2837230" lon="-8.6439870">
        <ele>163.6</ele>
        <time>2021-05-20T14:56:32Z</time>
      </trkpt>
      <trkpt lat="42.2837320" lon="-8.6439780">
        <ele>163.6</ele>
        <time>2021-05-20T14:56:33Z</time>
      </trkpt>
      <trkpt lat="42.2837430" lon="-8.6439680">
        <ele>163.6</ele>
        <time>2021-05-20T14:56:34Z</time>
      </trkpt>
      <trkpt lat="42.2837500" lon="-8.6439540">
        <ele>163.6</ele>
        <time>2021-05-20T14:56:35Z</time>
      </trkpt>
      <trkpt lat="42.2837500" lon="-8.6439430">
        <ele>163.6</ele>
        <time>2021-05-20T14:56:36Z</time>
      </trkpt>
      <trkpt lat="42.2837540" lon="-8.6439310">
        <ele>163.6</ele>
        <time>2021-05-20T14:56:37Z</time>
      </trkpt>
      <trkpt lat="42.2837540" lon="-8.6439170">
        <ele>163.6</ele>
        <time>2021-05-20T14:56:38Z</time>
      </trkpt>
      <trkpt lat="42.2837560" lon="-8.6439020">
        <ele>163.6</ele>
        <time>2021-05-20T14:56:39Z</time>
      </trkpt>
      <trkpt lat="42.2837640" lon="-8.6438890">
        <ele>163.6</ele>
        <time>2021-05-20T14:56:40Z</time>
      </trkpt>
      <trkpt lat="42.2837680" lon="-8.6438780">
        <ele>163.6</ele>
        <time>2021-05-20T14:56:41Z</time>
      </trkpt>
      <trkpt lat="42.2837740" lon="-8.6438640">
        <ele>163.6</ele>
        <time>2021-05-20T14:56:42Z</time>
      </trkpt>
      <trkpt lat="42.2837700" lon="-8.6438560">
        <ele>163.6</ele>
        <time>2021-05-20T14:56:43Z</time>
      </trkpt>
      <trkpt lat="42.2837670" lon="-8.6438490">
        <ele>163.6</ele>
        <time>2021-05-20T14:56:44Z</time>
      </trkpt>
      <trkpt lat="42.2837610" lon="-8.6438440">
        <ele>163.6</ele>
        <time>2021-05-20T14:56:45Z</time>
      </trkpt>
      <trkpt lat="42.2837700" lon="-8.6438480">
        <ele>163.6</ele>
        <time>2021-05-20T14:56:46Z</time>
      </trkpt>
      <trkpt lat="42.2837830" lon="-8.6438500">
        <ele>163.6</ele>
        <time>2021-05-20T14:56:47Z</time>
      </trkpt>
      <trkpt lat="42.2837930" lon="-8.6438550">
        <ele>163.7</ele>
        <time>2021-05-20T14:56:48Z</time>
      </trkpt>
      <trkpt lat="42.2837910" lon="-8.6438550">
        <ele>163.7</ele>
        <time>2021-05-20T14:56:49Z</time>
      </trkpt>
      <trkpt lat="42.2837890" lon="-8.6438600">
        <ele>163.7</ele>
        <time>2021-05-20T14:56:50Z</time>
      </trkpt>
      <trkpt lat="42.2837860" lon="-8.6438600">
        <ele>163.7</ele>
        <time>2021-05-20T14:56:51Z</time>
      </trkpt>
      <trkpt lat="42.2837830" lon="-8.6438620">
        <ele>163.7</ele>
        <time>2021-05-20T14:56:52Z</time>
      </trkpt>
      <trkpt lat="42.2837800" lon="-8.6438630">
        <ele>163.7</ele>
        <time>2021-05-20T14:56:53Z</time>
      </trkpt>
      <trkpt lat="42.2837730" lon="-8.6438560">
        <ele>163.7</ele>
        <time>2021-05-20T14:56:54Z</time>
      </trkpt>
      <trkpt lat="42.2837660" lon="-8.6438490">
        <ele>163.7</ele>
        <time>2021-05-20T14:56:55Z</time>
      </trkpt>
      <trkpt lat="42.2837580" lon="-8.6438460">
        <ele>163.7</ele>
        <time>2021-05-20T14:56:56Z</time>
      </trkpt>
      <trkpt lat="42.2837560" lon="-8.6438410">
        <ele>163.7</ele>
        <time>2021-05-20T14:56:57Z</time>
      </trkpt>
      <trkpt lat="42.2837550" lon="-8.6438410">
        <ele>163.7</ele>
        <time>2021-05-20T14:56:58Z</time>
      </trkpt>
      <trkpt lat="42.2837530" lon="-8.6438400">
        <ele>163.7</ele>
        <time>2021-05-20T14:56:59Z</time>
      </trkpt>
      <trkpt lat="42.2837520" lon="-8.6438390">
        <ele>163.7</ele>
        <time>2021-05-20T14:57:00Z</time>
      </trkpt>
      <trkpt lat="42.2837480" lon="-8.6438370">
        <ele>163.7</ele>
        <time>2021-05-20T14:57:01Z</time>
      </trkpt>
      <trkpt lat="42.2837530" lon="-8.6438380">
        <ele>163.7</ele>
        <time>2021-05-20T14:57:02Z</time>
      </trkpt>
      <trkpt lat="42.2837580" lon="-8.6438320">
        <ele>163.7</ele>
        <time>2021-05-20T14:57:03Z</time>
      </trkpt>
      <trkpt lat="42.2837630" lon="-8.6438330">
        <ele>163.7</ele>
        <time>2021-05-20T14:57:04Z</time>
      </trkpt>
      <trkpt lat="42.2837560" lon="-8.6438430">
        <ele>163.7</ele>
        <time>2021-05-20T14:57:05Z</time>
      </trkpt>
      <trkpt lat="42.2837490" lon="-8.6438470">
        <ele>163.7</ele>
        <time>2021-05-20T14:57:06Z</time>
      </trkpt>
      <trkpt lat="42.2837460" lon="-8.6438360">
        <ele>163.7</ele>
        <time>2021-05-20T14:57:07Z</time>
      </trkpt>
      <trkpt lat="42.2837410" lon="-8.6438360">
        <ele>163.7</ele>
        <time>2021-05-20T14:57:08Z</time>
      </trkpt>
      <trkpt lat="42.2837400" lon="-8.6438370">
        <ele>163.7</ele>
        <time>2021-05-20T14:57:09Z</time>
      </trkpt>
      <trkpt lat="42.2837380" lon="-8.6438350">
        <ele>163.7</ele>
        <time>2021-05-20T14:57:10Z</time>
      </trkpt>
      <trkpt lat="42.2837360" lon="-8.6438370">
        <ele>163.7</ele>
        <time>2021-05-20T14:57:11Z</time>
      </trkpt>
      <trkpt lat="42.2837350" lon="-8.6438410">
        <ele>163.7</ele>
        <time>2021-05-20T14:57:12Z</time>
      </trkpt>
      <trkpt lat="42.2837460" lon="-8.6438460">
        <ele>163.8</ele>
        <time>2021-05-20T14:57:13Z</time>
      </trkpt>
      <trkpt lat="42.2837590" lon="-8.6438570">
        <ele>163.8</ele>
        <time>2021-05-20T14:57:14Z</time>
      </trkpt>
      <trkpt lat="42.2837650" lon="-8.6438640">
        <ele>163.8</ele>
        <time>2021-05-20T14:57:15Z</time>
      </trkpt>
      <trkpt lat="42.2837610" lon="-8.6438620">
        <ele>163.8</ele>
        <time>2021-05-20T14:57:16Z</time>
      </trkpt>
      <trkpt lat="42.2837510" lon="-8.6438550">
        <ele>163.8</ele>
        <time>2021-05-20T14:57:17Z</time>
      </trkpt>
      <trkpt lat="42.2837490" lon="-8.6438410">
        <ele>163.8</ele>
        <time>2021-05-20T14:57:18Z</time>
      </trkpt>
      <trkpt lat="42.2837550" lon="-8.6438340">
        <ele>163.8</ele>
        <time>2021-05-20T14:57:19Z</time>
      </trkpt>
      <trkpt lat="42.2837600" lon="-8.6438340">
        <ele>163.8</ele>
        <time>2021-05-20T14:57:20Z</time>
      </trkpt>
      <trkpt lat="42.2837620" lon="-8.6438260">
        <ele>163.8</ele>
        <time>2021-05-20T14:57:21Z</time>
      </trkpt>
      <trkpt lat="42.2837640" lon="-8.6438180">
        <ele>163.8</ele>
        <time>2021-05-20T14:57:22Z</time>
      </trkpt>
      <trkpt lat="42.2837530" lon="-8.6438060">
        <ele>163.8</ele>
        <time>2021-05-20T14:57:23Z</time>
      </trkpt>
      <trkpt lat="42.2837480" lon="-8.6437890">
        <ele>163.8</ele>
        <time>2021-05-20T14:57:24Z</time>
      </trkpt>
      <trkpt lat="42.2837270" lon="-8.6437540">
        <ele>163.9</ele>
        <time>2021-05-20T14:57:25Z</time>
      </trkpt>
      <trkpt lat="42.2837250" lon="-8.6437440">
        <ele>163.9</ele>
        <time>2021-05-20T14:57:26Z</time>
      </trkpt>
      <trkpt lat="42.2837190" lon="-8.6437370">
        <ele>163.9</ele>
        <time>2021-05-20T14:57:27Z</time>
      </trkpt>
      <trkpt lat="42.2837240" lon="-8.6437430">
        <ele>163.9</ele>
        <time>2021-05-20T14:57:28Z</time>
      </trkpt>
      <trkpt lat="42.2837290" lon="-8.6437440">
        <ele>163.9</ele>
        <time>2021-05-20T14:57:29Z</time>
      </trkpt>
      <trkpt lat="42.2837360" lon="-8.6437480">
        <ele>163.9</ele>
        <time>2021-05-20T14:57:30Z</time>
      </trkpt>
      <trkpt lat="42.2837380" lon="-8.6437530">
        <ele>163.9</ele>
        <time>2021-05-20T14:57:31Z</time>
      </trkpt>
      <trkpt lat="42.2837290" lon="-8.6437470">
        <ele>163.9</ele>
        <time>2021-05-20T14:57:32Z</time>
      </trkpt>
      <trkpt lat="42.2837270" lon="-8.6437380">
        <ele>163.9</ele>
        <time>2021-05-20T14:57:33Z</time>
      </trkpt>
      <trkpt lat="42.2837330" lon="-8.6437410">
        <ele>163.9</ele>
        <time>2021-05-20T14:57:34Z</time>
      </trkpt>
      <trkpt lat="42.2837320" lon="-8.6437300">
        <ele>163.9</ele>
        <time>2021-05-20T14:57:35Z</time>
      </trkpt>
      <trkpt lat="42.2837350" lon="-8.6437280">
        <ele>163.9</ele>
        <time>2021-05-20T14:57:36Z</time>
      </trkpt>
      <trkpt lat="42.2837440" lon="-8.6437290">
        <ele>163.9</ele>
        <time>2021-05-20T14:57:37Z</time>
      </trkpt>
      <trkpt lat="42.2837450" lon="-8.6437240">
        <ele>163.9</ele>
        <time>2021-05-20T14:57:38Z</time>
      </trkpt>
      <trkpt lat="42.2837470" lon="-8.6437220">
        <ele>163.9</ele>
        <time>2021-05-20T14:57:39Z</time>
      </trkpt>
      <trkpt lat="42.2837380" lon="-8.6437190">
        <ele>163.9</ele>
        <time>2021-05-20T14:57:40Z</time>
      </trkpt>
      <trkpt lat="42.2837270" lon="-8.6437250">
        <ele>163.9</ele>
        <time>2021-05-20T14:57:41Z</time>
      </trkpt>
      <trkpt lat="42.2837300" lon="-8.6437360">
        <ele>163.9</ele>
        <time>2021-05-20T14:57:42Z</time>
      </trkpt>
      <trkpt lat="42.2837360" lon="-8.6437460">
        <ele>163.9</ele>
        <time>2021-05-20T14:57:43Z</time>
      </trkpt>
      <trkpt lat="42.2837380" lon="-8.6437490">
        <ele>163.9</ele>
        <time>2021-05-20T14:57:44Z</time>
      </trkpt>
      <trkpt lat="42.2837430" lon="-8.6437530">
        <ele>163.9</ele>
        <time>2021-05-20T14:57:45Z</time>
      </trkpt>
      <trkpt lat="42.2837490" lon="-8.6437580">
        <ele>163.9</ele>
        <time>2021-05-20T14:57:46Z</time>
      </trkpt>
      <trkpt lat="42.2837470" lon="-8.6437640">
        <ele>163.9</ele>
        <time>2021-05-20T14:57:47Z</time>
      </trkpt>
      <trkpt lat="42.2837500" lon="-8.6437640">
        <ele>163.9</ele>
        <time>2021-05-20T14:57:48Z</time>
      </trkpt>
      <trkpt lat="42.2837530" lon="-8.6437630">
        <ele>163.9</ele>
        <time>2021-05-20T14:57:49Z</time>
      </trkpt>
      <trkpt lat="42.2837550" lon="-8.6437630">
        <ele>163.9</ele>
        <time>2021-05-20T14:57:50Z</time>
      </trkpt>
      <trkpt lat="42.2837580" lon="-8.6437620">
        <ele>163.9</ele>
        <time>2021-05-20T14:57:51Z</time>
      </trkpt>
      <trkpt lat="42.2837610" lon="-8.6437620">
        <ele>163.9</ele>
        <time>2021-05-20T14:57:52Z</time>
      </trkpt>
      <trkpt lat="42.2837640" lon="-8.6437610">
        <ele>163.9</ele>
        <time>2021-05-20T14:57:53Z</time>
      </trkpt>
      <trkpt lat="42.2837670" lon="-8.6437610">
        <ele>163.9</ele>
        <time>2021-05-20T14:57:54Z</time>
      </trkpt>
      <trkpt lat="42.2837700" lon="-8.6437600">
        <ele>163.9</ele>
        <time>2021-05-20T14:57:55Z</time>
      </trkpt>
      <trkpt lat="42.2837720" lon="-8.6437590">
        <ele>163.9</ele>
        <time>2021-05-20T14:57:56Z</time>
      </trkpt>
      <trkpt lat="42.2837750" lon="-8.6437590">
        <ele>163.9</ele>
        <time>2021-05-20T14:57:57Z</time>
      </trkpt>
      <trkpt lat="42.2837780" lon="-8.6437580">
        <ele>163.9</ele>
        <time>2021-05-20T14:57:58Z</time>
      </trkpt>
      <trkpt lat="42.2837810" lon="-8.6437580">
        <ele>163.9</ele>
        <time>2021-05-20T14:57:59Z</time>
      </trkpt>
      <trkpt lat="42.2837840" lon="-8.6437570">
        <ele>163.9</ele>
        <time>2021-05-20T14:58:00Z</time>
      </trkpt>
      <trkpt lat="42.2837870" lon="-8.6437570">
        <ele>163.9</ele>
        <time>2021-05-20T14:58:01Z</time>
      </trkpt>
      <trkpt lat="42.2837890" lon="-8.6437560">
        <ele>163.9</ele>
        <time>2021-05-20T14:58:02Z</time>
      </trkpt>
      <trkpt lat="42.2837920" lon="-8.6437560">
        <ele>163.9</ele>
        <time>2021-05-20T14:58:03Z</time>
      </trkpt>
      <trkpt lat="42.2837950" lon="-8.6437550">
        <ele>163.9</ele>
        <time>2021-05-20T14:58:04Z</time>
      </trkpt>
      <trkpt lat="42.2838050" lon="-8.6437420">
        <ele>163.9</ele>
        <time>2021-05-20T14:58:05Z</time>
      </trkpt>
      <trkpt lat="42.2838240" lon="-8.6437350">
        <ele>163.9</ele>
        <time>2021-05-20T14:58:06Z</time>
      </trkpt>
      <trkpt lat="42.2838330" lon="-8.6437270">
        <ele>163.8</ele>
        <time>2021-05-20T14:58:07Z</time>
      </trkpt>
      <trkpt lat="42.2838430" lon="-8.6437230">
        <ele>163.8</ele>
        <time>2021-05-20T14:58:08Z</time>
      </trkpt>
      <trkpt lat="42.2838520" lon="-8.6437150">
        <ele>163.8</ele>
        <time>2021-05-20T14:58:09Z</time>
      </trkpt>
      <trkpt lat="42.2838560" lon="-8.6436990">
        <ele>163.8</ele>
        <time>2021-05-20T14:58:10Z</time>
      </trkpt>
      <trkpt lat="42.2838590" lon="-8.6436920">
        <ele>163.8</ele>
        <time>2021-05-20T14:58:11Z</time>
      </trkpt>
      <trkpt lat="42.2838680" lon="-8.6436770">
        <ele>163.8</ele>
        <time>2021-05-20T14:58:12Z</time>
      </trkpt>
      <trkpt lat="42.2838790" lon="-8.6436650">
        <ele>163.8</ele>
        <time>2021-05-20T14:58:13Z</time>
      </trkpt>
      <trkpt lat="42.2838880" lon="-8.6436650">
        <ele>163.8</ele>
        <time>2021-05-20T14:58:14Z</time>
      </trkpt>
      <trkpt lat="42.2838900" lon="-8.6436560">
        <ele>163.8</ele>
        <time>2021-05-20T14:58:15Z</time>
      </trkpt>
      <trkpt lat="42.2838980" lon="-8.6436490">
        <ele>163.8</ele>
        <time>2021-05-20T14:58:16Z</time>
      </trkpt>
      <trkpt lat="42.2839010" lon="-8.6436370">
        <ele>163.8</ele>
        <time>2021-05-20T14:58:17Z</time>
      </trkpt>
      <trkpt lat="42.2838990" lon="-8.6436300">
        <ele>163.8</ele>
        <time>2021-05-20T14:58:18Z</time>
      </trkpt>
      <trkpt lat="42.2839080" lon="-8.6436180">
        <ele>163.8</ele>
        <time>2021-05-20T14:58:19Z</time>
      </trkpt>
      <trkpt lat="42.2839210" lon="-8.6436010">
        <ele>163.8</ele>
        <time>2021-05-20T14:58:20Z</time>
      </trkpt>
      <trkpt lat="42.2839310" lon="-8.6435930">
        <ele>163.8</ele>
        <time>2021-05-20T14:58:21Z</time>
      </trkpt>
      <trkpt lat="42.2839410" lon="-8.6435860">
        <ele>163.8</ele>
        <time>2021-05-20T14:58:22Z</time>
      </trkpt>
      <trkpt lat="42.2839490" lon="-8.6435730">
        <ele>163.8</ele>
        <time>2021-05-20T14:58:23Z</time>
      </trkpt>
      <trkpt lat="42.2839590" lon="-8.6435630">
        <ele>163.8</ele>
        <time>2021-05-20T14:58:24Z</time>
      </trkpt>
      <trkpt lat="42.2839700" lon="-8.6435560">
        <ele>163.8</ele>
        <time>2021-05-20T14:58:25Z</time>
      </trkpt>
      <trkpt lat="42.2839870" lon="-8.6435420">
        <ele>163.8</ele>
        <time>2021-05-20T14:58:26Z</time>
      </trkpt>
      <trkpt lat="42.2839950" lon="-8.6435340">
        <ele>163.8</ele>
        <time>2021-05-20T14:58:27Z</time>
      </trkpt>
      <trkpt lat="42.2840020" lon="-8.6435270">
        <ele>163.8</ele>
        <time>2021-05-20T14:58:28Z</time>
      </trkpt>
      <trkpt lat="42.2840150" lon="-8.6435180">
        <ele>163.8</ele>
        <time>2021-05-20T14:58:29Z</time>
      </trkpt>
      <trkpt lat="42.2840330" lon="-8.6435060">
        <ele>163.8</ele>
        <time>2021-05-20T14:58:30Z</time>
      </trkpt>
      <trkpt lat="42.2840460" lon="-8.6435010">
        <ele>163.8</ele>
        <time>2021-05-20T14:58:31Z</time>
      </trkpt>
      <trkpt lat="42.2840650" lon="-8.6434850">
        <ele>163.8</ele>
        <time>2021-05-20T14:58:32Z</time>
      </trkpt>
      <trkpt lat="42.2840810" lon="-8.6434790">
        <ele>163.8</ele>
        <time>2021-05-20T14:58:33Z</time>
      </trkpt>
      <trkpt lat="42.2840950" lon="-8.6434660">
        <ele>163.8</ele>
        <time>2021-05-20T14:58:34Z</time>
      </trkpt>
      <trkpt lat="42.2841060" lon="-8.6434620">
        <ele>163.8</ele>
        <time>2021-05-20T14:58:35Z</time>
      </trkpt>
      <trkpt lat="42.2841280" lon="-8.6434560">
        <ele>163.8</ele>
        <time>2021-05-20T14:58:36Z</time>
      </trkpt>
      <trkpt lat="42.2841420" lon="-8.6434250">
        <ele>163.8</ele>
        <time>2021-05-20T14:58:37Z</time>
      </trkpt>
      <trkpt lat="42.2841480" lon="-8.6434180">
        <ele>163.8</ele>
        <time>2021-05-20T14:58:38Z</time>
      </trkpt>
      <trkpt lat="42.2841530" lon="-8.6434110">
        <ele>163.8</ele>
        <time>2021-05-20T14:58:39Z</time>
      </trkpt>
      <trkpt lat="42.2841580" lon="-8.6433970">
        <ele>163.8</ele>
        <time>2021-05-20T14:58:40Z</time>
      </trkpt>
      <trkpt lat="42.2841700" lon="-8.6433800">
        <ele>163.8</ele>
        <time>2021-05-20T14:58:41Z</time>
      </trkpt>
      <trkpt lat="42.2841920" lon="-8.6433540">
        <ele>163.8</ele>
        <time>2021-05-20T14:58:42Z</time>
      </trkpt>
      <trkpt lat="42.2842000" lon="-8.6433440">
        <ele>163.8</ele>
        <time>2021-05-20T14:58:43Z</time>
      </trkpt>
      <trkpt lat="42.2842080" lon="-8.6433280">
        <ele>163.8</ele>
        <time>2021-05-20T14:58:44Z</time>
      </trkpt>
      <trkpt lat="42.2842250" lon="-8.6433200">
        <ele>163.8</ele>
        <time>2021-05-20T14:58:45Z</time>
      </trkpt>
      <trkpt lat="42.2842380" lon="-8.6433140">
        <ele>163.8</ele>
        <time>2021-05-20T14:58:46Z</time>
      </trkpt>
      <trkpt lat="42.2842510" lon="-8.6433030">
        <ele>163.8</ele>
        <time>2021-05-20T14:58:47Z</time>
      </trkpt>
      <trkpt lat="42.2842540" lon="-8.6432930">
        <ele>163.8</ele>
        <time>2021-05-20T14:58:48Z</time>
      </trkpt>
      <trkpt lat="42.2842630" lon="-8.6432850">
        <ele>163.8</ele>
        <time>2021-05-20T14:58:49Z</time>
      </trkpt>
      <trkpt lat="42.2842750" lon="-8.6432760">
        <ele>163.8</ele>
        <time>2021-05-20T14:58:50Z</time>
      </trkpt>
      <trkpt lat="42.2842930" lon="-8.6432440">
        <ele>163.8</ele>
        <time>2021-05-20T14:58:51Z</time>
      </trkpt>
      <trkpt lat="42.2842980" lon="-8.6432340">
        <ele>163.8</ele>
        <time>2021-05-20T14:58:52Z</time>
      </trkpt>
      <trkpt lat="42.2843110" lon="-8.6432140">
        <ele>163.8</ele>
        <time>2021-05-20T14:58:53Z</time>
      </trkpt>
      <trkpt lat="42.2843170" lon="-8.6432050">
        <ele>163.8</ele>
        <time>2021-05-20T14:58:54Z</time>
      </trkpt>
      <trkpt lat="42.2843240" lon="-8.6431970">
        <ele>163.8</ele>
        <time>2021-05-20T14:58:55Z</time>
      </trkpt>
      <trkpt lat="42.2843400" lon="-8.6431830">
        <ele>163.8</ele>
        <time>2021-05-20T14:58:56Z</time>
      </trkpt>
      <trkpt lat="42.2843500" lon="-8.6431670">
        <ele>163.9</ele>
        <time>2021-05-20T14:58:57Z</time>
      </trkpt>
      <trkpt lat="42.2843610" lon="-8.6431620">
        <ele>163.9</ele>
        <time>2021-05-20T14:58:58Z</time>
      </trkpt>
      <trkpt lat="42.2843650" lon="-8.6431590">
        <ele>163.9</ele>
        <time>2021-05-20T14:58:59Z</time>
      </trkpt>
      <trkpt lat="42.2843670" lon="-8.6431500">
        <ele>163.9</ele>
        <time>2021-05-20T14:59:00Z</time>
      </trkpt>
      <trkpt lat="42.2843750" lon="-8.6431360">
        <ele>163.9</ele>
        <time>2021-05-20T14:59:01Z</time>
      </trkpt>
      <trkpt lat="42.2843880" lon="-8.6431270">
        <ele>163.9</ele>
        <time>2021-05-20T14:59:02Z</time>
      </trkpt>
      <trkpt lat="42.2843990" lon="-8.6431080">
        <ele>163.9</ele>
        <time>2021-05-20T14:59:03Z</time>
      </trkpt>
      <trkpt lat="42.2844190" lon="-8.6430810">
        <ele>163.9</ele>
        <time>2021-05-20T14:59:04Z</time>
      </trkpt>
      <trkpt lat="42.2844230" lon="-8.6430710">
        <ele>163.9</ele>
        <time>2021-05-20T14:59:05Z</time>
      </trkpt>
      <trkpt lat="42.2844380" lon="-8.6430470">
        <ele>163.9</ele>
        <time>2021-05-20T14:59:06Z</time>
      </trkpt>
      <trkpt lat="42.2844440" lon="-8.6430370">
        <ele>163.9</ele>
        <time>2021-05-20T14:59:07Z</time>
      </trkpt>
      <trkpt lat="42.2844490" lon="-8.6430280">
        <ele>163.9</ele>
        <time>2021-05-20T14:59:08Z</time>
      </trkpt>
      <trkpt lat="42.2844670" lon="-8.6430040">
        <ele>163.9</ele>
        <time>2021-05-20T14:59:09Z</time>
      </trkpt>
      <trkpt lat="42.2844730" lon="-8.6430000">
        <ele>163.9</ele>
        <time>2021-05-20T14:59:10Z</time>
      </trkpt>
      <trkpt lat="42.2844800" lon="-8.6429950">
        <ele>163.9</ele>
        <time>2021-05-20T14:59:11Z</time>
      </trkpt>
      <trkpt lat="42.2844900" lon="-8.6429700">
        <ele>163.9</ele>
        <time>2021-05-20T14:59:12Z</time>
      </trkpt>
      <trkpt lat="42.2844960" lon="-8.6429610">
        <ele>163.9</ele>
        <time>2021-05-20T14:59:13Z</time>
      </trkpt>
      <trkpt lat="42.2845020" lon="-8.6429520">
        <ele>163.9</ele>
        <time>2021-05-20T14:59:14Z</time>
      </trkpt>
      <trkpt lat="42.2845060" lon="-8.6429420">
        <ele>163.9</ele>
        <time>2021-05-20T14:59:15Z</time>
      </trkpt>
      <trkpt lat="42.2845200" lon="-8.6429150">
        <ele>163.9</ele>
        <time>2021-05-20T14:59:16Z</time>
      </trkpt>
      <trkpt lat="42.2845230" lon="-8.6428990">
        <ele>163.9</ele>
        <time>2021-05-20T14:59:17Z</time>
      </trkpt>
      <trkpt lat="42.2845340" lon="-8.6428870">
        <ele>163.9</ele>
        <time>2021-05-20T14:59:18Z</time>
      </trkpt>
      <trkpt lat="42.2845450" lon="-8.6428810">
        <ele>163.9</ele>
        <time>2021-05-20T14:59:19Z</time>
      </trkpt>
      <trkpt lat="42.2845550" lon="-8.6428640">
        <ele>163.9</ele>
        <time>2021-05-20T14:59:20Z</time>
      </trkpt>
      <trkpt lat="42.2845660" lon="-8.6428480">
        <ele>163.9</ele>
        <time>2021-05-20T14:59:21Z</time>
      </trkpt>
      <trkpt lat="42.2845880" lon="-8.6428190">
        <ele>163.9</ele>
        <time>2021-05-20T14:59:22Z</time>
      </trkpt>
      <trkpt lat="42.2845910" lon="-8.6428090">
        <ele>163.9</ele>
        <time>2021-05-20T14:59:23Z</time>
      </trkpt>
      <trkpt lat="42.2846030" lon="-8.6427910">
        <ele>163.9</ele>
        <time>2021-05-20T14:59:24Z</time>
      </trkpt>
      <trkpt lat="42.2846150" lon="-8.6427790">
        <ele>163.9</ele>
        <time>2021-05-20T14:59:25Z</time>
      </trkpt>
      <trkpt lat="42.2846250" lon="-8.6427540">
        <ele>164.0</ele>
        <time>2021-05-20T14:59:26Z</time>
      </trkpt>
      <trkpt lat="42.2846320" lon="-8.6427420">
        <ele>164.0</ele>
        <time>2021-05-20T14:59:27Z</time>
      </trkpt>
      <trkpt lat="42.2846390" lon="-8.6427310">
        <ele>164.0</ele>
        <time>2021-05-20T14:59:28Z</time>
      </trkpt>
      <trkpt lat="42.2846460" lon="-8.6427170">
        <ele>164.0</ele>
        <time>2021-05-20T14:59:29Z</time>
      </trkpt>
      <trkpt lat="42.2846540" lon="-8.6427030">
        <ele>164.0</ele>
        <time>2021-05-20T14:59:30Z</time>
      </trkpt>
      <trkpt lat="42.2846560" lon="-8.6426900">
        <ele>164.0</ele>
        <time>2021-05-20T14:59:31Z</time>
      </trkpt>
      <trkpt lat="42.2846690" lon="-8.6426670">
        <ele>164.0</ele>
        <time>2021-05-20T14:59:32Z</time>
      </trkpt>
      <trkpt lat="42.2846730" lon="-8.6426570">
        <ele>164.0</ele>
        <time>2021-05-20T14:59:33Z</time>
      </trkpt>
      <trkpt lat="42.2846760" lon="-8.6426470">
        <ele>164.0</ele>
        <time>2021-05-20T14:59:34Z</time>
      </trkpt>
      <trkpt lat="42.2846820" lon="-8.6426340">
        <ele>164.0</ele>
        <time>2021-05-20T14:59:35Z</time>
      </trkpt>
      <trkpt lat="42.2846950" lon="-8.6426110">
        <ele>164.0</ele>
        <time>2021-05-20T14:59:36Z</time>
      </trkpt>
      <trkpt lat="42.2847020" lon="-8.6425970">
        <ele>164.0</ele>
        <time>2021-05-20T14:59:37Z</time>
      </trkpt>
      <trkpt lat="42.2847140" lon="-8.6425800">
        <ele>164.0</ele>
        <time>2021-05-20T14:59:38Z</time>
      </trkpt>
      <trkpt lat="42.2847250" lon="-8.6425560">
        <ele>164.0</ele>
        <time>2021-05-20T14:59:39Z</time>
      </trkpt>
      <trkpt lat="42.2847320" lon="-8.6425470">
        <ele>164.0</ele>
        <time>2021-05-20T14:59:40Z</time>
      </trkpt>
      <trkpt lat="42.2847390" lon="-8.6425370">
        <ele>164.0</ele>
        <time>2021-05-20T14:59:41Z</time>
      </trkpt>
      <trkpt lat="42.2847540" lon="-8.6425090">
        <ele>164.0</ele>
        <time>2021-05-20T14:59:42Z</time>
      </trkpt>
      <trkpt lat="42.2847600" lon="-8.6424970">
        <ele>164.0</ele>
        <time>2021-05-20T14:59:43Z</time>
      </trkpt>
      <trkpt lat="42.2847660" lon="-8.6424860">
        <ele>164.0</ele>
        <time>2021-05-20T14:59:44Z</time>
      </trkpt>
      <trkpt lat="42.2847770" lon="-8.6424760">
        <ele>164.0</ele>
        <time>2021-05-20T14:59:45Z</time>
      </trkpt>
      <trkpt lat="42.2847780" lon="-8.6424580">
        <ele>164.0</ele>
        <time>2021-05-20T14:59:46Z</time>
      </trkpt>
      <trkpt lat="42.2847770" lon="-8.6424400">
        <ele>164.0</ele>
        <time>2021-05-20T14:59:47Z</time>
      </trkpt>
      <trkpt lat="42.2847870" lon="-8.6424140">
        <ele>164.0</ele>
        <time>2021-05-20T14:59:48Z</time>
      </trkpt>
      <trkpt lat="42.2847910" lon="-8.6424030">
        <ele>164.0</ele>
        <time>2021-05-20T14:59:49Z</time>
      </trkpt>
      <trkpt lat="42.2847940" lon="-8.6423910">
        <ele>164.0</ele>
        <time>2021-05-20T14:59:50Z</time>
      </trkpt>
      <trkpt lat="42.2848030" lon="-8.6423770">
        <ele>164.0</ele>
        <time>2021-05-20T14:59:51Z</time>
      </trkpt>
      <trkpt lat="42.2848040" lon="-8.6423520">
        <ele>164.0</ele>
        <time>2021-05-20T14:59:52Z</time>
      </trkpt>
      <trkpt lat="42.2848040" lon="-8.6423250">
        <ele>164.0</ele>
        <time>2021-05-20T14:59:53Z</time>
      </trkpt>
      <trkpt lat="42.2848120" lon="-8.6423090">
        <ele>164.0</ele>
        <time>2021-05-20T14:59:54Z</time>
      </trkpt>
      <trkpt lat="42.2848180" lon="-8.6422940">
        <ele>164.0</ele>
        <time>2021-05-20T14:59:55Z</time>
      </trkpt>
      <trkpt lat="42.2848120" lon="-8.6422730">
        <ele>164.0</ele>
        <time>2021-05-20T14:59:56Z</time>
      </trkpt>
      <trkpt lat="42.2848160" lon="-8.6422600">
        <ele>164.0</ele>
        <time>2021-05-20T14:59:57Z</time>
      </trkpt>
      <trkpt lat="42.2848190" lon="-8.6422330">
        <ele>163.9</ele>
        <time>2021-05-20T14:59:58Z</time>
      </trkpt>
      <trkpt lat="42.2848220" lon="-8.6422220">
        <ele>163.9</ele>
        <time>2021-05-20T14:59:59Z</time>
      </trkpt>
      <trkpt lat="42.2848260" lon="-8.6422100">
        <ele>163.9</ele>
        <time>2021-05-20T15:00:00Z</time>
      </trkpt>
      <trkpt lat="42.2848300" lon="-8.6421960">
        <ele>163.9</ele>
        <time>2021-05-20T15:00:01Z</time>
      </trkpt>
      <trkpt lat="42.2848350" lon="-8.6421690">
        <ele>163.9</ele>
        <time>2021-05-20T15:00:02Z</time>
      </trkpt>
      <trkpt lat="42.2848440" lon="-8.6421520">
        <ele>163.9</ele>
        <time>2021-05-20T15:00:03Z</time>
      </trkpt>
      <trkpt lat="42.2848500" lon="-8.6421380">
        <ele>163.9</ele>
        <time>2021-05-20T15:00:04Z</time>
      </trkpt>
      <trkpt lat="42.2848570" lon="-8.6421140">
        <ele>163.9</ele>
        <time>2021-05-20T15:00:05Z</time>
      </trkpt>
      <trkpt lat="42.2848610" lon="-8.6420950">
        <ele>163.9</ele>
        <time>2021-05-20T15:00:06Z</time>
      </trkpt>
      <trkpt lat="42.2848610" lon="-8.6420630">
        <ele>163.9</ele>
        <time>2021-05-20T15:00:07Z</time>
      </trkpt>
      <trkpt lat="42.2848610" lon="-8.6420540">
        <ele>163.9</ele>
        <time>2021-05-20T15:00:08Z</time>
      </trkpt>
      <trkpt lat="42.2848610" lon="-8.6420460">
        <ele>163.9</ele>
        <time>2021-05-20T15:00:09Z</time>
      </trkpt>
      <trkpt lat="42.2848630" lon="-8.6420340">
        <ele>163.9</ele>
        <time>2021-05-20T15:00:10Z</time>
      </trkpt>
      <trkpt lat="42.2848570" lon="-8.6420130">
        <ele>163.9</ele>
        <time>2021-05-20T15:00:11Z</time>
      </trkpt>
      <trkpt lat="42.2848670" lon="-8.6420000">
        <ele>163.9</ele>
        <time>2021-05-20T15:00:12Z</time>
      </trkpt>
      <trkpt lat="42.2848660" lon="-8.6419740">
        <ele>163.9</ele>
        <time>2021-05-20T15:00:13Z</time>
      </trkpt>
      <trkpt lat="42.2848670" lon="-8.6419600">
        <ele>163.9</ele>
        <time>2021-05-20T15:00:14Z</time>
      </trkpt>
      <trkpt lat="42.2848690" lon="-8.6419470">
        <ele>163.9</ele>
        <time>2021-05-20T15:00:15Z</time>
      </trkpt>
      <trkpt lat="42.2848770" lon="-8.6419190">
        <ele>163.9</ele>
        <time>2021-05-20T15:00:16Z</time>
      </trkpt>
      <trkpt lat="42.2848780" lon="-8.6419080">
        <ele>163.9</ele>
        <time>2021-05-20T15:00:17Z</time>
      </trkpt>
      <trkpt lat="42.2848780" lon="-8.6418980">
        <ele>163.9</ele>
        <time>2021-05-20T15:00:18Z</time>
      </trkpt>
      <trkpt lat="42.2848860" lon="-8.6418720">
        <ele>163.9</ele>
        <time>2021-05-20T15:00:19Z</time>
      </trkpt>
      <trkpt lat="42.2848890" lon="-8.6418610">
        <ele>163.9</ele>
        <time>2021-05-20T15:00:20Z</time>
      </trkpt>
      <trkpt lat="42.2848910" lon="-8.6418510">
        <ele>163.9</ele>
        <time>2021-05-20T15:00:21Z</time>
      </trkpt>
      <trkpt lat="42.2848910" lon="-8.6418430">
        <ele>163.9</ele>
        <time>2021-05-20T15:00:22Z</time>
      </trkpt>
      <trkpt lat="42.2848940" lon="-8.6418260">
        <ele>163.9</ele>
        <time>2021-05-20T15:00:23Z</time>
      </trkpt>
      <trkpt lat="42.2848980" lon="-8.6418100">
        <ele>163.9</ele>
        <time>2021-05-20T15:00:24Z</time>
      </trkpt>
      <trkpt lat="42.2848920" lon="-8.6417900">
        <ele>163.9</ele>
        <time>2021-05-20T15:00:25Z</time>
      </trkpt>
      <trkpt lat="42.2848930" lon="-8.6417700">
        <ele>163.9</ele>
        <time>2021-05-20T15:00:26Z</time>
      </trkpt>
      <trkpt lat="42.2848980" lon="-8.6417570">
        <ele>163.9</ele>
        <time>2021-05-20T15:00:27Z</time>
      </trkpt>
      <trkpt lat="42.2848950" lon="-8.6417400">
        <ele>163.9</ele>
        <time>2021-05-20T15:00:28Z</time>
      </trkpt>
      <trkpt lat="42.2848920" lon="-8.6417230">
        <ele>164.0</ele>
        <time>2021-05-20T15:00:29Z</time>
      </trkpt>
      <trkpt lat="42.2849030" lon="-8.6417000">
        <ele>164.0</ele>
        <time>2021-05-20T15:00:30Z</time>
      </trkpt>
      <trkpt lat="42.2849010" lon="-8.6416750">
        <ele>164.0</ele>
        <time>2021-05-20T15:00:31Z</time>
      </trkpt>
      <trkpt lat="42.2848970" lon="-8.6416530">
        <ele>164.0</ele>
        <time>2021-05-20T15:00:32Z</time>
      </trkpt>
      <trkpt lat="42.2848960" lon="-8.6416430">
        <ele>164.0</ele>
        <time>2021-05-20T15:00:33Z</time>
      </trkpt>
      <trkpt lat="42.2848940" lon="-8.6416330">
        <ele>164.0</ele>
        <time>2021-05-20T15:00:34Z</time>
      </trkpt>
      <trkpt lat="42.2848930" lon="-8.6416230">
        <ele>164.0</ele>
        <time>2021-05-20T15:00:35Z</time>
      </trkpt>
      <trkpt lat="42.2848880" lon="-8.6416040">
        <ele>164.0</ele>
        <time>2021-05-20T15:00:36Z</time>
      </trkpt>
      <trkpt lat="42.2848820" lon="-8.6415820">
        <ele>164.0</ele>
        <time>2021-05-20T15:00:37Z</time>
      </trkpt>
      <trkpt lat="42.2848710" lon="-8.6415660">
        <ele>164.0</ele>
        <time>2021-05-20T15:00:38Z</time>
      </trkpt>
      <trkpt lat="42.2848650" lon="-8.6415490">
        <ele>164.0</ele>
        <time>2021-05-20T15:00:39Z</time>
      </trkpt>
      <trkpt lat="42.2848580" lon="-8.6415410">
        <ele>164.0</ele>
        <time>2021-05-20T15:00:40Z</time>
      </trkpt>
      <trkpt lat="42.2848510" lon="-8.6415320">
        <ele>164.0</ele>
        <time>2021-05-20T15:00:41Z</time>
      </trkpt>
      <trkpt lat="42.2848460" lon="-8.6415270">
        <ele>164.0</ele>
        <time>2021-05-20T15:00:42Z</time>
      </trkpt>
      <trkpt lat="42.2848420" lon="-8.6415130">
        <ele>164.0</ele>
        <time>2021-05-20T15:00:43Z</time>
      </trkpt>
      <trkpt lat="42.2848380" lon="-8.6414980">
        <ele>164.1</ele>
        <time>2021-05-20T15:00:44Z</time>
      </trkpt>
      <trkpt lat="42.2848380" lon="-8.6414940">
        <ele>164.1</ele>
        <time>2021-05-20T15:00:45Z</time>
      </trkpt>
      <trkpt lat="42.2848330" lon="-8.6414770">
        <ele>164.1</ele>
        <time>2021-05-20T15:00:46Z</time>
      </trkpt>
      <trkpt lat="42.2848310" lon="-8.6414550">
        <ele>164.1</ele>
        <time>2021-05-20T15:00:47Z</time>
      </trkpt>
      <trkpt lat="42.2848250" lon="-8.6414450">
        <ele>164.1</ele>
        <time>2021-05-20T15:00:48Z</time>
      </trkpt>
      <trkpt lat="42.2848220" lon="-8.6414430">
        <ele>164.1</ele>
        <time>2021-05-20T15:00:49Z</time>
      </trkpt>
      <trkpt lat="42.2848090" lon="-8.6414260">
        <ele>164.1</ele>
        <time>2021-05-20T15:00:50Z</time>
      </trkpt>
      <trkpt lat="42.2847990" lon="-8.6414170">
        <ele>164.1</ele>
        <time>2021-05-20T15:00:51Z</time>
      </trkpt>
      <trkpt lat="42.2847880" lon="-8.6414070">
        <ele>164.1</ele>
        <time>2021-05-20T15:00:52Z</time>
      </trkpt>
      <trkpt lat="42.2847620" lon="-8.6413870">
        <ele>164.1</ele>
        <time>2021-05-20T15:00:53Z</time>
      </trkpt>
      <trkpt lat="42.2847500" lon="-8.6413710">
        <ele>164.1</ele>
        <time>2021-05-20T15:00:54Z</time>
      </trkpt>
      <trkpt lat="42.2847400" lon="-8.6413620">
        <ele>164.1</ele>
        <time>2021-05-20T15:00:55Z</time>
      </trkpt>
      <trkpt lat="42.2847350" lon="-8.6413490">
        <ele>164.1</ele>
        <time>2021-05-20T15:00:56Z</time>
      </trkpt>
      <trkpt lat="42.2847320" lon="-8.6413420">
        <ele>164.1</ele>
        <time>2021-05-20T15:00:57Z</time>
      </trkpt>
      <trkpt lat="42.2847280" lon="-8.6413230">
        <ele>164.1</ele>
        <time>2021-05-20T15:00:58Z</time>
      </trkpt>
      <trkpt lat="42.2847250" lon="-8.6413100">
        <ele>164.1</ele>
        <time>2021-05-20T15:00:59Z</time>
      </trkpt>
      <trkpt lat="42.2847130" lon="-8.6412920">
        <ele>164.1</ele>
        <time>2021-05-20T15:01:00Z</time>
      </trkpt>
      <trkpt lat="42.2847080" lon="-8.6412720">
        <ele>164.1</ele>
        <time>2021-05-20T15:01:01Z</time>
      </trkpt>
      <trkpt lat="42.2847090" lon="-8.6412660">
        <ele>164.1</ele>
        <time>2021-05-20T15:01:02Z</time>
      </trkpt>
      <trkpt lat="42.2847030" lon="-8.6412580">
        <ele>164.1</ele>
        <time>2021-05-20T15:01:03Z</time>
      </trkpt>
      <trkpt lat="42.2846970" lon="-8.6412360">
        <ele>164.1</ele>
        <time>2021-05-20T15:01:04Z</time>
      </trkpt>
      <trkpt lat="42.2846910" lon="-8.6412260">
        <ele>164.1</ele>
        <time>2021-05-20T15:01:05Z</time>
      </trkpt>
      <trkpt lat="42.2846840" lon="-8.6412160">
        <ele>164.1</ele>
        <time>2021-05-20T15:01:06Z</time>
      </trkpt>
      <trkpt lat="42.2846680" lon="-8.6412020">
        <ele>164.1</ele>
        <time>2021-05-20T15:01:07Z</time>
      </trkpt>
      <trkpt lat="42.2846600" lon="-8.6411910">
        <ele>164.1</ele>
        <time>2021-05-20T15:01:08Z</time>
      </trkpt>
      <trkpt lat="42.2846520" lon="-8.6411810">
        <ele>164.1</ele>
        <time>2021-05-20T15:01:09Z</time>
      </trkpt>
      <trkpt lat="42.2846470" lon="-8.6411640">
        <ele>164.1</ele>
        <time>2021-05-20T15:01:10Z</time>
      </trkpt>
      <trkpt lat="42.2846420" lon="-8.6411460">
        <ele>164.1</ele>
        <time>2021-05-20T15:01:11Z</time>
      </trkpt>
      <trkpt lat="42.2846320" lon="-8.6411240">
        <ele>164.1</ele>
        <time>2021-05-20T15:01:12Z</time>
      </trkpt>
      <trkpt lat="42.2846270" lon="-8.6411140">
        <ele>164.1</ele>
        <time>2021-05-20T15:01:13Z</time>
      </trkpt>
      <trkpt lat="42.2846210" lon="-8.6411040">
        <ele>164.1</ele>
        <time>2021-05-20T15:01:14Z</time>
      </trkpt>
      <trkpt lat="42.2846050" lon="-8.6410770">
        <ele>164.1</ele>
        <time>2021-05-20T15:01:15Z</time>
      </trkpt>
      <trkpt lat="42.2845980" lon="-8.6410680">
        <ele>164.1</ele>
        <time>2021-05-20T15:01:16Z</time>
      </trkpt>
      <trkpt lat="42.2845960" lon="-8.6410570">
        <ele>164.1</ele>
        <time>2021-05-20T15:01:17Z</time>
      </trkpt>
      <trkpt lat="42.2845890" lon="-8.6410500">
        <ele>164.1</ele>
        <time>2021-05-20T15:01:18Z</time>
      </trkpt>
      <trkpt lat="42.2845830" lon="-8.6410350">
        <ele>164.1</ele>
        <time>2021-05-20T15:01:19Z</time>
      </trkpt>
      <trkpt lat="42.2845740" lon="-8.6410200">
        <ele>164.1</ele>
        <time>2021-05-20T15:01:20Z</time>
      </trkpt>
      <trkpt lat="42.2845620" lon="-8.6410060">
        <ele>164.1</ele>
        <time>2021-05-20T15:01:21Z</time>
      </trkpt>
      <trkpt lat="42.2845500" lon="-8.6409910">
        <ele>164.1</ele>
        <time>2021-05-20T15:01:22Z</time>
      </trkpt>
      <trkpt lat="42.2845400" lon="-8.6409680">
        <ele>164.1</ele>
        <time>2021-05-20T15:01:23Z</time>
      </trkpt>
      <trkpt lat="42.2845390" lon="-8.6409610">
        <ele>164.1</ele>
        <time>2021-05-20T15:01:24Z</time>
      </trkpt>
      <trkpt lat="42.2845370" lon="-8.6409570">
        <ele>164.1</ele>
        <time>2021-05-20T15:01:25Z</time>
      </trkpt>
      <trkpt lat="42.2845300" lon="-8.6409380">
        <ele>164.1</ele>
        <time>2021-05-20T15:01:26Z</time>
      </trkpt>
      <trkpt lat="42.2845280" lon="-8.6409260">
        <ele>164.1</ele>
        <time>2021-05-20T15:01:27Z</time>
      </trkpt>
      <trkpt lat="42.2845200" lon="-8.6409000">
        <ele>164.0</ele>
        <time>2021-05-20T15:01:28Z</time>
      </trkpt>
      <trkpt lat="42.2845140" lon="-8.6408920">
        <ele>164.0</ele>
        <time>2021-05-20T15:01:29Z</time>
      </trkpt>
      <trkpt lat="42.2845090" lon="-8.6408830">
        <ele>164.0</ele>
        <time>2021-05-20T15:01:30Z</time>
      </trkpt>
      <trkpt lat="42.2844930" lon="-8.6408650">
        <ele>164.0</ele>
        <time>2021-05-20T15:01:31Z</time>
      </trkpt>
      <trkpt lat="42.2844870" lon="-8.6408540">
        <ele>164.0</ele>
        <time>2021-05-20T15:01:32Z</time>
      </trkpt>
      <trkpt lat="42.2844810" lon="-8.6408430">
        <ele>164.0</ele>
        <time>2021-05-20T15:01:33Z</time>
      </trkpt>
      <trkpt lat="42.2844720" lon="-8.6408360">
        <ele>164.0</ele>
        <time>2021-05-20T15:01:34Z</time>
      </trkpt>
      <trkpt lat="42.2844660" lon="-8.6408300">
        <ele>164.0</ele>
        <time>2021-05-20T15:01:35Z</time>
      </trkpt>
      <trkpt lat="42.2844610" lon="-8.6408160">
        <ele>164.0</ele>
        <time>2021-05-20T15:01:36Z</time>
      </trkpt>
      <trkpt lat="42.2844530" lon="-8.6408070">
        <ele>164.0</ele>
        <time>2021-05-20T15:01:37Z</time>
      </trkpt>
      <trkpt lat="42.2844480" lon="-8.6407950">
        <ele>164.0</ele>
        <time>2021-05-20T15:01:38Z</time>
      </trkpt>
      <trkpt lat="42.2844430" lon="-8.6407840">
        <ele>164.0</ele>
        <time>2021-05-20T15:01:39Z</time>
      </trkpt>
      <trkpt lat="42.2844310" lon="-8.6407670">
        <ele>164.0</ele>
        <time>2021-05-20T15:01:40Z</time>
      </trkpt>
      <trkpt lat="42.2844250" lon="-8.6407560">
        <ele>164.0</ele>
        <time>2021-05-20T15:01:41Z</time>
      </trkpt>
      <trkpt lat="42.2844190" lon="-8.6407460">
        <ele>164.0</ele>
        <time>2021-05-20T15:01:42Z</time>
      </trkpt>
      <trkpt lat="42.2844140" lon="-8.6407300">
        <ele>164.0</ele>
        <time>2021-05-20T15:01:43Z</time>
      </trkpt>
      <trkpt lat="42.2844060" lon="-8.6407180">
        <ele>164.0</ele>
        <time>2021-05-20T15:01:44Z</time>
      </trkpt>
      <trkpt lat="42.2843970" lon="-8.6407100">
        <ele>164.0</ele>
        <time>2021-05-20T15:01:45Z</time>
      </trkpt>
      <trkpt lat="42.2843910" lon="-8.6406990">
        <ele>164.0</ele>
        <time>2021-05-20T15:01:46Z</time>
      </trkpt>
      <trkpt lat="42.2843840" lon="-8.6406940">
        <ele>164.0</ele>
        <time>2021-05-20T15:01:47Z</time>
      </trkpt>
      <trkpt lat="42.2843740" lon="-8.6406800">
        <ele>164.0</ele>
        <time>2021-05-20T15:01:48Z</time>
      </trkpt>
      <trkpt lat="42.2843660" lon="-8.6406670">
        <ele>164.0</ele>
        <time>2021-05-20T15:01:49Z</time>
      </trkpt>
      <trkpt lat="42.2843600" lon="-8.6406620">
        <ele>164.0</ele>
        <time>2021-05-20T15:01:50Z</time>
      </trkpt>
      <trkpt lat="42.2843480" lon="-8.6406470">
        <ele>164.0</ele>
        <time>2021-05-20T15:01:51Z</time>
      </trkpt>
      <trkpt lat="42.2843380" lon="-8.6406290">
        <ele>164.0</ele>
        <time>2021-05-20T15:01:52Z</time>
      </trkpt>
      <trkpt lat="42.2843260" lon="-8.6406170">
        <ele>164.0</ele>
        <time>2021-05-20T15:01:53Z</time>
      </trkpt>
      <trkpt lat="42.2843140" lon="-8.6406040">
        <ele>164.0</ele>
        <time>2021-05-20T15:01:54Z</time>
      </trkpt>
      <trkpt lat="42.2843060" lon="-8.6406020">
        <ele>164.0</ele>
        <time>2021-05-20T15:01:55Z</time>
      </trkpt>
      <trkpt lat="42.2842990" lon="-8.6405980">
        <ele>164.0</ele>
        <time>2021-05-20T15:01:56Z</time>
      </trkpt>
      <trkpt lat="42.2842770" lon="-8.6405830">
        <ele>164.1</ele>
        <time>2021-05-20T15:01:57Z</time>
      </trkpt>
      <trkpt lat="42.2842630" lon="-8.6405760">
        <ele>164.1</ele>
        <time>2021-05-20T15:01:58Z</time>
      </trkpt>
      <trkpt lat="42.2842500" lon="-8.6405700">
        <ele>164.1</ele>
        <time>2021-05-20T15:01:59Z</time>
      </trkpt>
      <trkpt lat="42.2842400" lon="-8.6405590">
        <ele>164.1</ele>
        <time>2021-05-20T15:02:00Z</time>
      </trkpt>
      <trkpt lat="42.2842240" lon="-8.6405470">
        <ele>164.1</ele>
        <time>2021-05-20T15:02:01Z</time>
      </trkpt>
      <trkpt lat="42.2842120" lon="-8.6405490">
        <ele>164.1</ele>
        <time>2021-05-20T15:02:02Z</time>
      </trkpt>
      <trkpt lat="42.2842020" lon="-8.6405480">
        <ele>164.1</ele>
        <time>2021-05-20T15:02:03Z</time>
      </trkpt>
      <trkpt lat="42.2841900" lon="-8.6405370">
        <ele>164.1</ele>
        <time>2021-05-20T15:02:04Z</time>
      </trkpt>
      <trkpt lat="42.2841790" lon="-8.6405280">
        <ele>164.1</ele>
        <time>2021-05-20T15:02:05Z</time>
      </trkpt>
      <trkpt lat="42.2841690" lon="-8.6405210">
        <ele>164.1</ele>
        <time>2021-05-20T15:02:06Z</time>
      </trkpt>
      <trkpt lat="42.2841630" lon="-8.6405160">
        <ele>164.1</ele>
        <time>2021-05-20T15:02:07Z</time>
      </trkpt>
      <trkpt lat="42.2841450" lon="-8.6404970">
        <ele>164.1</ele>
        <time>2021-05-20T15:02:08Z</time>
      </trkpt>
      <trkpt lat="42.2841390" lon="-8.6404900">
        <ele>164.1</ele>
        <time>2021-05-20T15:02:09Z</time>
      </trkpt>
      <trkpt lat="42.2841330" lon="-8.6404820">
        <ele>164.1</ele>
        <time>2021-05-20T15:02:10Z</time>
      </trkpt>
      <trkpt lat="42.2841250" lon="-8.6404710">
        <ele>164.1</ele>
        <time>2021-05-20T15:02:11Z</time>
      </trkpt>
      <trkpt lat="42.2841100" lon="-8.6404610">
        <ele>164.1</ele>
        <time>2021-05-20T15:02:12Z</time>
      </trkpt>
      <trkpt lat="42.2840990" lon="-8.6404540">
        <ele>164.1</ele>
        <time>2021-05-20T15:02:13Z</time>
      </trkpt>
      <trkpt lat="42.2840850" lon="-8.6404440">
        <ele>164.1</ele>
        <time>2021-05-20T15:02:14Z</time>
      </trkpt>
      <trkpt lat="42.2840730" lon="-8.6404320">
        <ele>164.1</ele>
        <time>2021-05-20T15:02:15Z</time>
      </trkpt>
      <trkpt lat="42.2840640" lon="-8.6404200">
        <ele>164.1</ele>
        <time>2021-05-20T15:02:16Z</time>
      </trkpt>
      <trkpt lat="42.2840600" lon="-8.6404070">
        <ele>164.1</ele>
        <time>2021-05-20T15:02:17Z</time>
      </trkpt>
      <trkpt lat="42.2840530" lon="-8.6403990">
        <ele>164.1</ele>
        <time>2021-05-20T15:02:18Z</time>
      </trkpt>
      <trkpt lat="42.2840440" lon="-8.6403820">
        <ele>164.1</ele>
        <time>2021-05-20T15:02:19Z</time>
      </trkpt>
      <trkpt lat="42.2840430" lon="-8.6403700">
        <ele>164.1</ele>
        <time>2021-05-20T15:02:20Z</time>
      </trkpt>
      <trkpt lat="42.2840390" lon="-8.6403550">
        <ele>164.1</ele>
        <time>2021-05-20T15:02:21Z</time>
      </trkpt>
      <trkpt lat="42.2840350" lon="-8.6403460">
        <ele>164.1</ele>
        <time>2021-05-20T15:02:22Z</time>
      </trkpt>
      <trkpt lat="42.2840290" lon="-8.6403340">
        <ele>164.1</ele>
        <time>2021-05-20T15:02:23Z</time>
      </trkpt>
      <trkpt lat="42.2840140" lon="-8.6403200">
        <ele>164.2</ele>
        <time>2021-05-20T15:02:24Z</time>
      </trkpt>
      <trkpt lat="42.2839990" lon="-8.6402980">
        <ele>164.2</ele>
        <time>2021-05-20T15:02:25Z</time>
      </trkpt>
      <trkpt lat="42.2839940" lon="-8.6402870">
        <ele>164.2</ele>
        <time>2021-05-20T15:02:26Z</time>
      </trkpt>
      <trkpt lat="42.2839890" lon="-8.6402770">
        <ele>164.2</ele>
        <time>2021-05-20T15:02:27Z</time>
      </trkpt>
      <trkpt lat="42.2839870" lon="-8.6402610">
        <ele>164.2</ele>
        <time>2021-05-20T15:02:28Z</time>
      </trkpt>
      <trkpt lat="42.2839750" lon="-8.6402500">
        <ele>164.2</ele>
        <time>2021-05-20T15:02:29Z</time>
      </trkpt>
      <trkpt lat="42.2839690" lon="-8.6402370">
        <ele>164.2</ele>
        <time>2021-05-20T15:02:30Z</time>
      </trkpt>
      <trkpt lat="42.2839600" lon="-8.6402210">
        <ele>164.2</ele>
        <time>2021-05-20T15:02:31Z</time>
      </trkpt>
      <trkpt lat="42.2839550" lon="-8.6402070">
        <ele>164.2</ele>
        <time>2021-05-20T15:02:32Z</time>
      </trkpt>
      <trkpt lat="42.2839500" lon="-8.6401960">
        <ele>164.2</ele>
        <time>2021-05-20T15:02:33Z</time>
      </trkpt>
      <trkpt lat="42.2839340" lon="-8.6401750">
        <ele>164.2</ele>
        <time>2021-05-20T15:02:34Z</time>
      </trkpt>
      <trkpt lat="42.2839320" lon="-8.6401730">
        <ele>164.2</ele>
        <time>2021-05-20T15:02:35Z</time>
      </trkpt>
      <trkpt lat="42.2839240" lon="-8.6401660">
        <ele>164.2</ele>
        <time>2021-05-20T15:02:36Z</time>
      </trkpt>
      <trkpt lat="42.2839170" lon="-8.6401450">
        <ele>164.2</ele>
        <time>2021-05-20T15:02:37Z</time>
      </trkpt>
      <trkpt lat="42.2839100" lon="-8.6401360">
        <ele>164.2</ele>
        <time>2021-05-20T15:02:38Z</time>
      </trkpt>
      <trkpt lat="42.2839080" lon="-8.6401340">
        <ele>164.2</ele>
        <time>2021-05-20T15:02:39Z</time>
      </trkpt>
      <trkpt lat="42.2838980" lon="-8.6401260">
        <ele>164.2</ele>
        <time>2021-05-20T15:02:40Z</time>
      </trkpt>
      <trkpt lat="42.2838890" lon="-8.6401150">
        <ele>164.2</ele>
        <time>2021-05-20T15:02:41Z</time>
      </trkpt>
      <trkpt lat="42.2838790" lon="-8.6401060">
        <ele>164.2</ele>
        <time>2021-05-20T15:02:42Z</time>
      </trkpt>
      <trkpt lat="42.2838770" lon="-8.6401000">
        <ele>164.2</ele>
        <time>2021-05-20T15:02:43Z</time>
      </trkpt>
      <trkpt lat="42.2838710" lon="-8.6400960">
        <ele>164.2</ele>
        <time>2021-05-20T15:02:44Z</time>
      </trkpt>
      <trkpt lat="42.2838520" lon="-8.6400790">
        <ele>164.3</ele>
        <time>2021-05-20T15:02:45Z</time>
      </trkpt>
      <trkpt lat="42.2838340" lon="-8.6400580">
        <ele>164.3</ele>
        <time>2021-05-20T15:02:46Z</time>
      </trkpt>
      <trkpt lat="42.2838270" lon="-8.6400500">
        <ele>164.3</ele>
        <time>2021-05-20T15:02:47Z</time>
      </trkpt>
      <trkpt lat="42.2838200" lon="-8.6400420">
        <ele>164.3</ele>
        <time>2021-05-20T15:02:48Z</time>
      </trkpt>
      <trkpt lat="42.2838150" lon="-8.6400320">
        <ele>164.3</ele>
        <time>2021-05-20T15:02:49Z</time>
      </trkpt>
      <trkpt lat="42.2837990" lon="-8.6400200">
        <ele>164.3</ele>
        <time>2021-05-20T15:02:50Z</time>
      </trkpt>
      <trkpt lat="42.2837830" lon="-8.6400050">
        <ele>164.3</ele>
        <time>2021-05-20T15:02:51Z</time>
      </trkpt>
      <trkpt lat="42.2837700" lon="-8.6399930">
        <ele>164.3</ele>
        <time>2021-05-20T15:02:52Z</time>
      </trkpt>
      <trkpt lat="42.2837500" lon="-8.6399790">
        <ele>164.3</ele>
        <time>2021-05-20T15:02:53Z</time>
      </trkpt>
      <trkpt lat="42.2837430" lon="-8.6399740">
        <ele>164.3</ele>
        <time>2021-05-20T15:02:54Z</time>
      </trkpt>
      <trkpt lat="42.2837350" lon="-8.6399680">
        <ele>164.3</ele>
        <time>2021-05-20T15:02:55Z</time>
      </trkpt>
      <trkpt lat="42.2837240" lon="-8.6399640">
        <ele>164.3</ele>
        <time>2021-05-20T15:02:56Z</time>
      </trkpt>
      <trkpt lat="42.2837070" lon="-8.6399560">
        <ele>164.3</ele>
        <time>2021-05-20T15:02:57Z</time>
      </trkpt>
      <trkpt lat="42.2836970" lon="-8.6399420">
        <ele>164.3</ele>
        <time>2021-05-20T15:02:58Z</time>
      </trkpt>
      <trkpt lat="42.2836880" lon="-8.6399290">
        <ele>164.3</ele>
        <time>2021-05-20T15:02:59Z</time>
      </trkpt>
      <trkpt lat="42.2836780" lon="-8.6399150">
        <ele>164.3</ele>
        <time>2021-05-20T15:03:00Z</time>
      </trkpt>
      <trkpt lat="42.2836680" lon="-8.6399050">
        <ele>164.3</ele>
        <time>2021-05-20T15:03:01Z</time>
      </trkpt>
      <trkpt lat="42.2836630" lon="-8.6398980">
        <ele>164.3</ele>
        <time>2021-05-20T15:03:02Z</time>
      </trkpt>
      <trkpt lat="42.2836430" lon="-8.6398870">
        <ele>164.3</ele>
        <time>2021-05-20T15:03:03Z</time>
      </trkpt>
      <trkpt lat="42.2836350" lon="-8.6398820">
        <ele>164.3</ele>
        <time>2021-05-20T15:03:04Z</time>
      </trkpt>
      <trkpt lat="42.2836280" lon="-8.6398780">
        <ele>164.3</ele>
        <time>2021-05-20T15:03:05Z</time>
      </trkpt>
      <trkpt lat="42.2836130" lon="-8.6398690">
        <ele>164.3</ele>
        <time>2021-05-20T15:03:06Z</time>
      </trkpt>
      <trkpt lat="42.2835940" lon="-8.6398640">
        <ele>164.3</ele>
        <time>2021-05-20T15:03:07Z</time>
      </trkpt>
      <trkpt lat="42.2835800" lon="-8.6398650">
        <ele>164.3</ele>
        <time>2021-05-20T15:03:08Z</time>
      </trkpt>
      <trkpt lat="42.2835690" lon="-8.6398590">
        <ele>164.3</ele>
        <time>2021-05-20T15:03:09Z</time>
      </trkpt>
      <trkpt lat="42.2835590" lon="-8.6398540">
        <ele>164.2</ele>
        <time>2021-05-20T15:03:10Z</time>
      </trkpt>
      <trkpt lat="42.2835510" lon="-8.6398460">
        <ele>164.2</ele>
        <time>2021-05-20T15:03:11Z</time>
      </trkpt>
      <trkpt lat="42.2835470" lon="-8.6398450">
        <ele>164.2</ele>
        <time>2021-05-20T15:03:12Z</time>
      </trkpt>
      <trkpt lat="42.2835460" lon="-8.6398350">
        <ele>164.2</ele>
        <time>2021-05-20T15:03:13Z</time>
      </trkpt>
      <trkpt lat="42.2835330" lon="-8.6398200">
        <ele>164.2</ele>
        <time>2021-05-20T15:03:14Z</time>
      </trkpt>
      <trkpt lat="42.2835130" lon="-8.6398100">
        <ele>164.2</ele>
        <time>2021-05-20T15:03:15Z</time>
      </trkpt>
      <trkpt lat="42.2835050" lon="-8.6398070">
        <ele>164.2</ele>
        <time>2021-05-20T15:03:16Z</time>
      </trkpt>
      <trkpt lat="42.2834970" lon="-8.6398040">
        <ele>164.2</ele>
        <time>2021-05-20T15:03:17Z</time>
      </trkpt>
      <trkpt lat="42.2834860" lon="-8.6397990">
        <ele>164.2</ele>
        <time>2021-05-20T15:03:18Z</time>
      </trkpt>
      <trkpt lat="42.2834690" lon="-8.6397920">
        <ele>164.2</ele>
        <time>2021-05-20T15:03:19Z</time>
      </trkpt>
      <trkpt lat="42.2834550" lon="-8.6397930">
        <ele>164.2</ele>
        <time>2021-05-20T15:03:20Z</time>
      </trkpt>
      <trkpt lat="42.2834460" lon="-8.6397910">
        <ele>164.2</ele>
        <time>2021-05-20T15:03:21Z</time>
      </trkpt>
      <trkpt lat="42.2834370" lon="-8.6397890">
        <ele>164.2</ele>
        <time>2021-05-20T15:03:22Z</time>
      </trkpt>
      <trkpt lat="42.2834280" lon="-8.6397870">
        <ele>164.2</ele>
        <time>2021-05-20T15:03:23Z</time>
      </trkpt>
      <trkpt lat="42.2834060" lon="-8.6397690">
        <ele>164.2</ele>
        <time>2021-05-20T15:03:24Z</time>
      </trkpt>
      <trkpt lat="42.2833980" lon="-8.6397590">
        <ele>164.2</ele>
        <time>2021-05-20T15:03:25Z</time>
      </trkpt>
      <trkpt lat="42.2833910" lon="-8.6397500">
        <ele>164.2</ele>
        <time>2021-05-20T15:03:26Z</time>
      </trkpt>
      <trkpt lat="42.2833700" lon="-8.6397410">
        <ele>164.2</ele>
        <time>2021-05-20T15:03:27Z</time>
      </trkpt>
      <trkpt lat="42.2833610" lon="-8.6397370">
        <ele>164.2</ele>
        <time>2021-05-20T15:03:28Z</time>
      </trkpt>
      <trkpt lat="42.2833520" lon="-8.6397330">
        <ele>164.2</ele>
        <time>2021-05-20T15:03:29Z</time>
      </trkpt>
      <trkpt lat="42.2833410" lon="-8.6397240">
        <ele>164.2</ele>
        <time>2021-05-20T15:03:30Z</time>
      </trkpt>
      <trkpt lat="42.2833360" lon="-8.6397220">
        <ele>164.2</ele>
        <time>2021-05-20T15:03:31Z</time>
      </trkpt>
      <trkpt lat="42.2833240" lon="-8.6397090">
        <ele>164.2</ele>
        <time>2021-05-20T15:03:32Z</time>
      </trkpt>
      <trkpt lat="42.2833150" lon="-8.6397030">
        <ele>164.2</ele>
        <time>2021-05-20T15:03:33Z</time>
      </trkpt>
      <trkpt lat="42.2833100" lon="-8.6396920">
        <ele>164.2</ele>
        <time>2021-05-20T15:03:34Z</time>
      </trkpt>
      <trkpt lat="42.2832930" lon="-8.6396850">
        <ele>164.2</ele>
        <time>2021-05-20T15:03:35Z</time>
      </trkpt>
      <trkpt lat="42.2832830" lon="-8.6396790">
        <ele>164.2</ele>
        <time>2021-05-20T15:03:36Z</time>
      </trkpt>
      <trkpt lat="42.2832720" lon="-8.6396760">
        <ele>164.3</ele>
        <time>2021-05-20T15:03:37Z</time>
      </trkpt>
      <trkpt lat="42.2832600" lon="-8.6396680">
        <ele>164.3</ele>
        <time>2021-05-20T15:03:38Z</time>
      </trkpt>
      <trkpt lat="42.2832460" lon="-8.6396590">
        <ele>164.3</ele>
        <time>2021-05-20T15:03:39Z</time>
      </trkpt>
      <trkpt lat="42.2832280" lon="-8.6396490">
        <ele>164.3</ele>
        <time>2021-05-20T15:03:40Z</time>
      </trkpt>
      <trkpt lat="42.2832070" lon="-8.6396450">
        <ele>164.3</ele>
        <time>2021-05-20T15:03:41Z</time>
      </trkpt>
      <trkpt lat="42.2831970" lon="-8.6396490">
        <ele>164.3</ele>
        <time>2021-05-20T15:03:43Z</time>
      </trkpt>
      <trkpt lat="42.2831770" lon="-8.6396340">
        <ele>164.3</ele>
        <time>2021-05-20T15:03:44Z</time>
      </trkpt>
      <trkpt lat="42.2831750" lon="-8.6396270">
        <ele>164.3</ele>
        <time>2021-05-20T15:03:45Z</time>
      </trkpt>
      <trkpt lat="42.2831650" lon="-8.6396260">
        <ele>164.3</ele>
        <time>2021-05-20T15:03:46Z</time>
      </trkpt>
      <trkpt lat="42.2831580" lon="-8.6396290">
        <ele>164.3</ele>
        <time>2021-05-20T15:03:47Z</time>
      </trkpt>
      <trkpt lat="42.2831480" lon="-8.6396290">
        <ele>164.4</ele>
        <time>2021-05-20T15:03:48Z</time>
      </trkpt>
      <trkpt lat="42.2831380" lon="-8.6396210">
        <ele>164.4</ele>
        <time>2021-05-20T15:03:49Z</time>
      </trkpt>
      <trkpt lat="42.2831160" lon="-8.6396200">
        <ele>164.4</ele>
        <time>2021-05-20T15:03:50Z</time>
      </trkpt>
      <trkpt lat="42.2831030" lon="-8.6396170">
        <ele>164.4</ele>
        <time>2021-05-20T15:03:51Z</time>
      </trkpt>
      <trkpt lat="42.2830900" lon="-8.6396090">
        <ele>164.4</ele>
        <time>2021-05-20T15:03:52Z</time>
      </trkpt>
      <trkpt lat="42.2830830" lon="-8.6396040">
        <ele>164.4</ele>
        <time>2021-05-20T15:03:53Z</time>
      </trkpt>
      <trkpt lat="42.2830760" lon="-8.6395990">
        <ele>164.5</ele>
        <time>2021-05-20T15:03:54Z</time>
      </trkpt>
      <trkpt lat="42.2830690" lon="-8.6395940">
        <ele>164.5</ele>
        <time>2021-05-20T15:03:55Z</time>
      </trkpt>
      <trkpt lat="42.2830500" lon="-8.6395880">
        <ele>164.5</ele>
        <time>2021-05-20T15:03:56Z</time>
      </trkpt>
      <trkpt lat="42.2830370" lon="-8.6395830">
        <ele>164.5</ele>
        <time>2021-05-20T15:03:57Z</time>
      </trkpt>
      <trkpt lat="42.2830250" lon="-8.6395790">
        <ele>164.5</ele>
        <time>2021-05-20T15:03:58Z</time>
      </trkpt>
      <trkpt lat="42.2830140" lon="-8.6395700">
        <ele>164.5</ele>
        <time>2021-05-20T15:03:59Z</time>
      </trkpt>
      <trkpt lat="42.2829950" lon="-8.6395660">
        <ele>164.6</ele>
        <time>2021-05-20T15:04:00Z</time>
      </trkpt>
      <trkpt lat="42.2829870" lon="-8.6395630">
        <ele>164.6</ele>
        <time>2021-05-20T15:04:01Z</time>
      </trkpt>
      <trkpt lat="42.2829810" lon="-8.6395620">
        <ele>164.6</ele>
        <time>2021-05-20T15:04:02Z</time>
      </trkpt>
      <trkpt lat="42.2829750" lon="-8.6395590">
        <ele>164.6</ele>
        <time>2021-05-20T15:04:03Z</time>
      </trkpt>
      <trkpt lat="42.2829640" lon="-8.6395620">
        <ele>164.6</ele>
        <time>2021-05-20T15:04:04Z</time>
      </trkpt>
      <trkpt lat="42.2829480" lon="-8.6395540">
        <ele>164.6</ele>
        <time>2021-05-20T15:04:05Z</time>
      </trkpt>
      <trkpt lat="42.2829320" lon="-8.6395450">
        <ele>164.6</ele>
        <time>2021-05-20T15:04:06Z</time>
      </trkpt>
      <trkpt lat="42.2829260" lon="-8.6395370">
        <ele>164.7</ele>
        <time>2021-05-20T15:04:07Z</time>
      </trkpt>
      <trkpt lat="42.2829120" lon="-8.6395310">
        <ele>164.7</ele>
        <time>2021-05-20T15:04:08Z</time>
      </trkpt>
      <trkpt lat="42.2829020" lon="-8.6395220">
        <ele>164.7</ele>
        <time>2021-05-20T15:04:09Z</time>
      </trkpt>
      <trkpt lat="42.2828730" lon="-8.6395090">
        <ele>164.7</ele>
        <time>2021-05-20T15:04:10Z</time>
      </trkpt>
      <trkpt lat="42.2828660" lon="-8.6395030">
        <ele>164.7</ele>
        <time>2021-05-20T15:04:11Z</time>
      </trkpt>
      <trkpt lat="42.2828530" lon="-8.6395020">
        <ele>164.7</ele>
        <time>2021-05-20T15:04:12Z</time>
      </trkpt>
      <trkpt lat="42.2828440" lon="-8.6394990">
        <ele>164.7</ele>
        <time>2021-05-20T15:04:13Z</time>
      </trkpt>
      <trkpt lat="42.2828340" lon="-8.6395020">
        <ele>164.8</ele>
        <time>2021-05-20T15:04:14Z</time>
      </trkpt>
      <trkpt lat="42.2828160" lon="-8.6394950">
        <ele>164.8</ele>
        <time>2021-05-20T15:04:15Z</time>
      </trkpt>
      <trkpt lat="42.2828030" lon="-8.6394920">
        <ele>164.8</ele>
        <time>2021-05-20T15:04:16Z</time>
      </trkpt>
      <trkpt lat="42.2827880" lon="-8.6394850">
        <ele>164.8</ele>
        <time>2021-05-20T15:04:17Z</time>
      </trkpt>
      <trkpt lat="42.2827720" lon="-8.6394790">
        <ele>164.8</ele>
        <time>2021-05-20T15:04:18Z</time>
      </trkpt>
      <trkpt lat="42.2827640" lon="-8.6394750">
        <ele>164.8</ele>
        <time>2021-05-20T15:04:19Z</time>
      </trkpt>
      <trkpt lat="42.2827540" lon="-8.6394700">
        <ele>164.8</ele>
        <time>2021-05-20T15:04:20Z</time>
      </trkpt>
      <trkpt lat="42.2827410" lon="-8.6394630">
        <ele>164.8</ele>
        <time>2021-05-20T15:04:21Z</time>
      </trkpt>
      <trkpt lat="42.2827110" lon="-8.6394500">
        <ele>164.9</ele>
        <time>2021-05-20T15:04:22Z</time>
      </trkpt>
      <trkpt lat="42.2827040" lon="-8.6394460">
        <ele>164.9</ele>
        <time>2021-05-20T15:04:23Z</time>
      </trkpt>
      <trkpt lat="42.2826980" lon="-8.6394420">
        <ele>164.9</ele>
        <time>2021-05-20T15:04:24Z</time>
      </trkpt>
      <trkpt lat="42.2826830" lon="-8.6394370">
        <ele>164.9</ele>
        <time>2021-05-20T15:04:25Z</time>
      </trkpt>
      <trkpt lat="42.2826730" lon="-8.6394310">
        <ele>164.9</ele>
        <time>2021-05-20T15:04:26Z</time>
      </trkpt>
      <trkpt lat="42.2826620" lon="-8.6394260">
        <ele>164.9</ele>
        <time>2021-05-20T15:04:27Z</time>
      </trkpt>
      <trkpt lat="42.2826560" lon="-8.6394290">
        <ele>164.9</ele>
        <time>2021-05-20T15:04:28Z</time>
      </trkpt>
      <trkpt lat="42.2826430" lon="-8.6394320">
        <ele>164.9</ele>
        <time>2021-05-20T15:04:29Z</time>
      </trkpt>
      <trkpt lat="42.2826290" lon="-8.6394380">
        <ele>164.9</ele>
        <time>2021-05-20T15:04:30Z</time>
      </trkpt>
      <trkpt lat="42.2826160" lon="-8.6394330">
        <ele>164.9</ele>
        <time>2021-05-20T15:04:31Z</time>
      </trkpt>
      <trkpt lat="42.2826040" lon="-8.6394330">
        <ele>164.9</ele>
        <time>2021-05-20T15:04:32Z</time>
      </trkpt>
      <trkpt lat="42.2825930" lon="-8.6394330">
        <ele>164.9</ele>
        <time>2021-05-20T15:04:33Z</time>
      </trkpt>
      <trkpt lat="42.2825780" lon="-8.6394360">
        <ele>164.9</ele>
        <time>2021-05-20T15:04:34Z</time>
      </trkpt>
      <trkpt lat="42.2825600" lon="-8.6394310">
        <ele>164.9</ele>
        <time>2021-05-20T15:04:35Z</time>
      </trkpt>
      <trkpt lat="42.2825500" lon="-8.6394220">
        <ele>164.9</ele>
        <time>2021-05-20T15:04:36Z</time>
      </trkpt>
      <trkpt lat="42.2825340" lon="-8.6394180">
        <ele>164.9</ele>
        <time>2021-05-20T15:04:37Z</time>
      </trkpt>
      <trkpt lat="42.2825160" lon="-8.6394140">
        <ele>164.9</ele>
        <time>2021-05-20T15:04:38Z</time>
      </trkpt>
      <trkpt lat="42.2825120" lon="-8.6394040">
        <ele>164.9</ele>
        <time>2021-05-20T15:04:39Z</time>
      </trkpt>
      <trkpt lat="42.2825000" lon="-8.6394040">
        <ele>164.9</ele>
        <time>2021-05-20T15:04:40Z</time>
      </trkpt>
      <trkpt lat="42.2824940" lon="-8.6393950">
        <ele>164.9</ele>
        <time>2021-05-20T15:04:41Z</time>
      </trkpt>
      <trkpt lat="42.2824890" lon="-8.6393950">
        <ele>164.9</ele>
        <time>2021-05-20T15:04:42Z</time>
      </trkpt>
      <trkpt lat="42.2824860" lon="-8.6393930">
        <ele>164.9</ele>
        <time>2021-05-20T15:04:43Z</time>
      </trkpt>
      <trkpt lat="42.2824750" lon="-8.6393890">
        <ele>164.9</ele>
        <time>2021-05-20T15:04:44Z</time>
      </trkpt>
      <trkpt lat="42.2824550" lon="-8.6393880">
        <ele>164.9</ele>
        <time>2021-05-20T15:04:45Z</time>
      </trkpt>
      <trkpt lat="42.2824450" lon="-8.6393880">
        <ele>164.9</ele>
        <time>2021-05-20T15:04:46Z</time>
      </trkpt>
      <trkpt lat="42.2824170" lon="-8.6393770">
        <ele>164.9</ele>
        <time>2021-05-20T15:04:47Z</time>
      </trkpt>
      <trkpt lat="42.2824090" lon="-8.6393720">
        <ele>164.8</ele>
        <time>2021-05-20T15:04:48Z</time>
      </trkpt>
      <trkpt lat="42.2823960" lon="-8.6393640">
        <ele>164.8</ele>
        <time>2021-05-20T15:04:49Z</time>
      </trkpt>
      <trkpt lat="42.2823800" lon="-8.6393610">
        <ele>164.8</ele>
        <time>2021-05-20T15:04:50Z</time>
      </trkpt>
      <trkpt lat="42.2823650" lon="-8.6393510">
        <ele>164.8</ele>
        <time>2021-05-20T15:04:51Z</time>
      </trkpt>
      <trkpt lat="42.2823540" lon="-8.6393410">
        <ele>164.8</ele>
        <time>2021-05-20T15:04:52Z</time>
      </trkpt>
      <trkpt lat="42.2823370" lon="-8.6393390">
        <ele>164.8</ele>
        <time>2021-05-20T15:04:53Z</time>
      </trkpt>
      <trkpt lat="42.2823240" lon="-8.6393400">
        <ele>164.8</ele>
        <time>2021-05-20T15:04:54Z</time>
      </trkpt>
      <trkpt lat="42.2823080" lon="-8.6393380">
        <ele>164.8</ele>
        <time>2021-05-20T15:04:55Z</time>
      </trkpt>
      <trkpt lat="42.2822930" lon="-8.6393320">
        <ele>164.8</ele>
        <time>2021-05-20T15:04:56Z</time>
      </trkpt>
      <trkpt lat="42.2822710" lon="-8.6393230">
        <ele>164.8</ele>
        <time>2021-05-20T15:04:57Z</time>
      </trkpt>
      <trkpt lat="42.2822640" lon="-8.6393180">
        <ele>164.9</ele>
        <time>2021-05-20T15:04:58Z</time>
      </trkpt>
      <trkpt lat="42.2822560" lon="-8.6393130">
        <ele>164.9</ele>
        <time>2021-05-20T15:04:59Z</time>
      </trkpt>
      <trkpt lat="42.2822320" lon="-8.6393050">
        <ele>164.9</ele>
        <time>2021-05-20T15:05:00Z</time>
      </trkpt>
      <trkpt lat="42.2822240" lon="-8.6393020">
        <ele>164.9</ele>
        <time>2021-05-20T15:05:01Z</time>
      </trkpt>
      <trkpt lat="42.2822150" lon="-8.6392980">
        <ele>164.9</ele>
        <time>2021-05-20T15:05:02Z</time>
      </trkpt>
      <trkpt lat="42.2822010" lon="-8.6392860">
        <ele>164.9</ele>
        <time>2021-05-20T15:05:03Z</time>
      </trkpt>
      <trkpt lat="42.2821910" lon="-8.6392770">
        <ele>164.9</ele>
        <time>2021-05-20T15:05:04Z</time>
      </trkpt>
      <trkpt lat="42.2821890" lon="-8.6392740">
        <ele>164.9</ele>
        <time>2021-05-20T15:05:05Z</time>
      </trkpt>
      <trkpt lat="42.2821810" lon="-8.6392690">
        <ele>164.9</ele>
        <time>2021-05-20T15:05:06Z</time>
      </trkpt>
      <trkpt lat="42.2821700" lon="-8.6392580">
        <ele>164.9</ele>
        <time>2021-05-20T15:05:07Z</time>
      </trkpt>
      <trkpt lat="42.2821630" lon="-8.6392500">
        <ele>164.9</ele>
        <time>2021-05-20T15:05:08Z</time>
      </trkpt>
      <trkpt lat="42.2821540" lon="-8.6392410">
        <ele>164.9</ele>
        <time>2021-05-20T15:05:09Z</time>
      </trkpt>
      <trkpt lat="42.2821380" lon="-8.6392330">
        <ele>164.9</ele>
        <time>2021-05-20T15:05:10Z</time>
      </trkpt>
      <trkpt lat="42.2821260" lon="-8.6392220">
        <ele>164.9</ele>
        <time>2021-05-20T15:05:11Z</time>
      </trkpt>
      <trkpt lat="42.2821170" lon="-8.6392130">
        <ele>164.9</ele>
        <time>2021-05-20T15:05:12Z</time>
      </trkpt>
      <trkpt lat="42.2821060" lon="-8.6392120">
        <ele>164.9</ele>
        <time>2021-05-20T15:05:13Z</time>
      </trkpt>
      <trkpt lat="42.2820960" lon="-8.6392090">
        <ele>164.9</ele>
        <time>2021-05-20T15:05:14Z</time>
      </trkpt>
      <trkpt lat="42.2820910" lon="-8.6391990">
        <ele>164.9</ele>
        <time>2021-05-20T15:05:15Z</time>
      </trkpt>
      <trkpt lat="42.2820830" lon="-8.6391910">
        <ele>164.9</ele>
        <time>2021-05-20T15:05:16Z</time>
      </trkpt>
      <trkpt lat="42.2820780" lon="-8.6391920">
        <ele>164.9</ele>
        <time>2021-05-20T15:05:17Z</time>
      </trkpt>
      <trkpt lat="42.2820660" lon="-8.6391810">
        <ele>164.9</ele>
        <time>2021-05-20T15:05:18Z</time>
      </trkpt>
      <trkpt lat="42.2820590" lon="-8.6391770">
        <ele>164.9</ele>
        <time>2021-05-20T15:05:19Z</time>
      </trkpt>
      <trkpt lat="42.2820580" lon="-8.6391710">
        <ele>164.9</ele>
        <time>2021-05-20T15:05:20Z</time>
      </trkpt>
      <trkpt lat="42.2820520" lon="-8.6391640">
        <ele>164.9</ele>
        <time>2021-05-20T15:05:21Z</time>
      </trkpt>
      <trkpt lat="42.2820420" lon="-8.6391510">
        <ele>164.9</ele>
        <time>2021-05-20T15:05:22Z</time>
      </trkpt>
      <trkpt lat="42.2820400" lon="-8.6391490">
        <ele>164.9</ele>
        <time>2021-05-20T15:05:23Z</time>
      </trkpt>
      <trkpt lat="42.2820390" lon="-8.6391350">
        <ele>164.9</ele>
        <time>2021-05-20T15:05:24Z</time>
      </trkpt>
      <trkpt lat="42.2820220" lon="-8.6391150">
        <ele>164.9</ele>
        <time>2021-05-20T15:05:25Z</time>
      </trkpt>
      <trkpt lat="42.2820150" lon="-8.6391080">
        <ele>164.9</ele>
        <time>2021-05-20T15:05:26Z</time>
      </trkpt>
      <trkpt lat="42.2820080" lon="-8.6391000">
        <ele>164.8</ele>
        <time>2021-05-20T15:05:27Z</time>
      </trkpt>
      <trkpt lat="42.2820020" lon="-8.6390780">
        <ele>164.8</ele>
        <time>2021-05-20T15:05:28Z</time>
      </trkpt>
      <trkpt lat="42.2819910" lon="-8.6390640">
        <ele>164.8</ele>
        <time>2021-05-20T15:05:29Z</time>
      </trkpt>
      <trkpt lat="42.2819800" lon="-8.6390550">
        <ele>164.8</ele>
        <time>2021-05-20T15:05:30Z</time>
      </trkpt>
      <trkpt lat="42.2819730" lon="-8.6390440">
        <ele>164.8</ele>
        <time>2021-05-20T15:05:31Z</time>
      </trkpt>
      <trkpt lat="42.2819670" lon="-8.6390350">
        <ele>164.8</ele>
        <time>2021-05-20T15:05:32Z</time>
      </trkpt>
      <trkpt lat="42.2819540" lon="-8.6390170">
        <ele>164.8</ele>
        <time>2021-05-20T15:05:33Z</time>
      </trkpt>
      <trkpt lat="42.2819460" lon="-8.6389990">
        <ele>164.8</ele>
        <time>2021-05-20T15:05:34Z</time>
      </trkpt>
      <trkpt lat="42.2819360" lon="-8.6389820">
        <ele>164.8</ele>
        <time>2021-05-20T15:05:35Z</time>
      </trkpt>
      <trkpt lat="42.2819340" lon="-8.6389770">
        <ele>164.8</ele>
        <time>2021-05-20T15:05:36Z</time>
      </trkpt>
      <trkpt lat="42.2819300" lon="-8.6389650">
        <ele>164.8</ele>
        <time>2021-05-20T15:05:37Z</time>
      </trkpt>
      <trkpt lat="42.2819200" lon="-8.6389380">
        <ele>164.8</ele>
        <time>2021-05-20T15:05:38Z</time>
      </trkpt>
      <trkpt lat="42.2819170" lon="-8.6389270">
        <ele>164.8</ele>
        <time>2021-05-20T15:05:39Z</time>
      </trkpt>
      <trkpt lat="42.2818980" lon="-8.6388950">
        <ele>164.7</ele>
        <time>2021-05-20T15:05:40Z</time>
      </trkpt>
      <trkpt lat="42.2818930" lon="-8.6388830">
        <ele>164.7</ele>
        <time>2021-05-20T15:05:41Z</time>
      </trkpt>
      <trkpt lat="42.2818890" lon="-8.6388600">
        <ele>164.7</ele>
        <time>2021-05-20T15:05:42Z</time>
      </trkpt>
      <trkpt lat="42.2818880" lon="-8.6388520">
        <ele>164.7</ele>
        <time>2021-05-20T15:05:43Z</time>
      </trkpt>
      <trkpt lat="42.2818920" lon="-8.6388410">
        <ele>164.7</ele>
        <time>2021-05-20T15:05:44Z</time>
      </trkpt>
      <trkpt lat="42.2818830" lon="-8.6388180">
        <ele>164.7</ele>
        <time>2021-05-20T15:05:45Z</time>
      </trkpt>
      <trkpt lat="42.2818830" lon="-8.6388030">
        <ele>164.7</ele>
        <time>2021-05-20T15:05:46Z</time>
      </trkpt>
      <trkpt lat="42.2818750" lon="-8.6387800">
        <ele>164.7</ele>
        <time>2021-05-20T15:05:47Z</time>
      </trkpt>
      <trkpt lat="42.2818720" lon="-8.6387670">
        <ele>164.7</ele>
        <time>2021-05-20T15:05:48Z</time>
      </trkpt>
      <trkpt lat="42.2818680" lon="-8.6387550">
        <ele>164.6</ele>
        <time>2021-05-20T15:05:49Z</time>
      </trkpt>
      <trkpt lat="42.2818650" lon="-8.6387330">
        <ele>164.6</ele>
        <time>2021-05-20T15:05:50Z</time>
      </trkpt>
      <trkpt lat="42.2818660" lon="-8.6387280">
        <ele>164.6</ele>
        <time>2021-05-20T15:05:51Z</time>
      </trkpt>
      <trkpt lat="42.2818650" lon="-8.6387170">
        <ele>164.6</ele>
        <time>2021-05-20T15:05:52Z</time>
      </trkpt>
      <trkpt lat="42.2818620" lon="-8.6386940">
        <ele>164.6</ele>
        <time>2021-05-20T15:05:53Z</time>
      </trkpt>
      <trkpt lat="42.2818570" lon="-8.6386800">
        <ele>164.6</ele>
        <time>2021-05-20T15:05:54Z</time>
      </trkpt>
      <trkpt lat="42.2818470" lon="-8.6386600">
        <ele>164.6</ele>
        <time>2021-05-20T15:05:55Z</time>
      </trkpt>
      <trkpt lat="42.2818420" lon="-8.6386440">
        <ele>164.6</ele>
        <time>2021-05-20T15:05:56Z</time>
      </trkpt>
      <trkpt lat="42.2818320" lon="-8.6386300">
        <ele>164.6</ele>
        <time>2021-05-20T15:05:57Z</time>
      </trkpt>
      <trkpt lat="42.2818220" lon="-8.6386060">
        <ele>164.5</ele>
        <time>2021-05-20T15:05:58Z</time>
      </trkpt>
      <trkpt lat="42.2818150" lon="-8.6385810">
        <ele>164.5</ele>
        <time>2021-05-20T15:05:59Z</time>
      </trkpt>
      <trkpt lat="42.2818150" lon="-8.6385710">
        <ele>164.5</ele>
        <time>2021-05-20T15:06:00Z</time>
      </trkpt>
      <trkpt lat="42.2818060" lon="-8.6385440">
        <ele>164.5</ele>
        <time>2021-05-20T15:06:01Z</time>
      </trkpt>
      <trkpt lat="42.2818020" lon="-8.6385340">
        <ele>164.5</ele>
        <time>2021-05-20T15:06:02Z</time>
      </trkpt>
      <trkpt lat="42.2817970" lon="-8.6385230">
        <ele>164.5</ele>
        <time>2021-05-20T15:06:03Z</time>
      </trkpt>
      <trkpt lat="42.2817920" lon="-8.6385080">
        <ele>164.5</ele>
        <time>2021-05-20T15:06:04Z</time>
      </trkpt>
      <trkpt lat="42.2817890" lon="-8.6384810">
        <ele>164.5</ele>
        <time>2021-05-20T15:06:05Z</time>
      </trkpt>
      <trkpt lat="42.2817830" lon="-8.6384550">
        <ele>164.5</ele>
        <time>2021-05-20T15:06:06Z</time>
      </trkpt>
      <trkpt lat="42.2817790" lon="-8.6384390">
        <ele>164.5</ele>
        <time>2021-05-20T15:06:07Z</time>
      </trkpt>
      <trkpt lat="42.2817720" lon="-8.6384240">
        <ele>164.5</ele>
        <time>2021-05-20T15:06:08Z</time>
      </trkpt>
      <trkpt lat="42.2817670" lon="-8.6384070">
        <ele>164.5</ele>
        <time>2021-05-20T15:06:09Z</time>
      </trkpt>
      <trkpt lat="42.2817670" lon="-8.6383970">
        <ele>164.6</ele>
        <time>2021-05-20T15:06:10Z</time>
      </trkpt>
      <trkpt lat="42.2817590" lon="-8.6383790">
        <ele>164.6</ele>
        <time>2021-05-20T15:06:11Z</time>
      </trkpt>
      <trkpt lat="42.2817590" lon="-8.6383610">
        <ele>164.6</ele>
        <time>2021-05-20T15:06:12Z</time>
      </trkpt>
      <trkpt lat="42.2817540" lon="-8.6383490">
        <ele>164.6</ele>
        <time>2021-05-20T15:06:13Z</time>
      </trkpt>
      <trkpt lat="42.2817530" lon="-8.6383440">
        <ele>164.6</ele>
        <time>2021-05-20T15:06:14Z</time>
      </trkpt>
      <trkpt lat="42.2817490" lon="-8.6383260">
        <ele>164.6</ele>
        <time>2021-05-20T15:06:15Z</time>
      </trkpt>
      <trkpt lat="42.2817470" lon="-8.6383140">
        <ele>164.6</ele>
        <time>2021-05-20T15:06:16Z</time>
      </trkpt>
      <trkpt lat="42.2817450" lon="-8.6382950">
        <ele>164.6</ele>
        <time>2021-05-20T15:06:17Z</time>
      </trkpt>
      <trkpt lat="42.2817430" lon="-8.6382810">
        <ele>164.6</ele>
        <time>2021-05-20T15:06:18Z</time>
      </trkpt>
      <trkpt lat="42.2817370" lon="-8.6382560">
        <ele>164.6</ele>
        <time>2021-05-20T15:06:19Z</time>
      </trkpt>
      <trkpt lat="42.2817310" lon="-8.6382390">
        <ele>164.6</ele>
        <time>2021-05-20T15:06:20Z</time>
      </trkpt>
      <trkpt lat="42.2817250" lon="-8.6382200">
        <ele>164.7</ele>
        <time>2021-05-20T15:06:21Z</time>
      </trkpt>
      <trkpt lat="42.2817220" lon="-8.6381960">
        <ele>164.7</ele>
        <time>2021-05-20T15:06:22Z</time>
      </trkpt>
      <trkpt lat="42.2817230" lon="-8.6381830">
        <ele>164.7</ele>
        <time>2021-05-20T15:06:23Z</time>
      </trkpt>
      <trkpt lat="42.2817200" lon="-8.6381760">
        <ele>164.7</ele>
        <time>2021-05-20T15:06:24Z</time>
      </trkpt>
      <trkpt lat="42.2817120" lon="-8.6381720">
        <ele>164.7</ele>
        <time>2021-05-20T15:06:25Z</time>
      </trkpt>
      <trkpt lat="42.2817140" lon="-8.6381600">
        <ele>164.7</ele>
        <time>2021-05-20T15:06:26Z</time>
      </trkpt>
      <trkpt lat="42.2817090" lon="-8.6381190">
        <ele>164.7</ele>
        <time>2021-05-20T15:06:27Z</time>
      </trkpt>
      <trkpt lat="42.2817060" lon="-8.6381100">
        <ele>164.7</ele>
        <time>2021-05-20T15:06:28Z</time>
      </trkpt>
      <trkpt lat="42.2817010" lon="-8.6380820">
        <ele>164.7</ele>
        <time>2021-05-20T15:06:29Z</time>
      </trkpt>
      <trkpt lat="42.2817000" lon="-8.6380700">
        <ele>164.7</ele>
        <time>2021-05-20T15:06:30Z</time>
      </trkpt>
      <trkpt lat="42.2816980" lon="-8.6380570">
        <ele>164.7</ele>
        <time>2021-05-20T15:06:31Z</time>
      </trkpt>
      <trkpt lat="42.2816850" lon="-8.6380210">
        <ele>164.8</ele>
        <time>2021-05-20T15:06:32Z</time>
      </trkpt>
      <trkpt lat="42.2816820" lon="-8.6380100">
        <ele>164.8</ele>
        <time>2021-05-20T15:06:33Z</time>
      </trkpt>
      <trkpt lat="42.2816750" lon="-8.6379960">
        <ele>164.8</ele>
        <time>2021-05-20T15:06:34Z</time>
      </trkpt>
      <trkpt lat="42.2816690" lon="-8.6379780">
        <ele>164.8</ele>
        <time>2021-05-20T15:06:35Z</time>
      </trkpt>
      <trkpt lat="42.2816670" lon="-8.6379590">
        <ele>164.8</ele>
        <time>2021-05-20T15:06:36Z</time>
      </trkpt>
      <trkpt lat="42.2816620" lon="-8.6379540">
        <ele>164.8</ele>
        <time>2021-05-20T15:06:37Z</time>
      </trkpt>
      <trkpt lat="42.2816550" lon="-8.6379420">
        <ele>164.8</ele>
        <time>2021-05-20T15:06:38Z</time>
      </trkpt>
      <trkpt lat="42.2816460" lon="-8.6379220">
        <ele>164.8</ele>
        <time>2021-05-20T15:06:39Z</time>
      </trkpt>
      <trkpt lat="42.2816370" lon="-8.6379050">
        <ele>164.8</ele>
        <time>2021-05-20T15:06:40Z</time>
      </trkpt>
      <trkpt lat="42.2816290" lon="-8.6378930">
        <ele>164.8</ele>
        <time>2021-05-20T15:06:41Z</time>
      </trkpt>
      <trkpt lat="42.2816250" lon="-8.6378830">
        <ele>164.8</ele>
        <time>2021-05-20T15:06:42Z</time>
      </trkpt>
      <trkpt lat="42.2816240" lon="-8.6378800">
        <ele>164.8</ele>
        <time>2021-05-20T15:06:43Z</time>
      </trkpt>
      <trkpt lat="42.2816200" lon="-8.6378740">
        <ele>164.8</ele>
        <time>2021-05-20T15:06:44Z</time>
      </trkpt>
      <trkpt lat="42.2816190" lon="-8.6378650">
        <ele>164.8</ele>
        <time>2021-05-20T15:06:45Z</time>
      </trkpt>
      <trkpt lat="42.2816160" lon="-8.6378540">
        <ele>164.8</ele>
        <time>2021-05-20T15:06:46Z</time>
      </trkpt>
      <trkpt lat="42.2816070" lon="-8.6378460">
        <ele>164.8</ele>
        <time>2021-05-20T15:06:47Z</time>
      </trkpt>
      <trkpt lat="42.2816060" lon="-8.6378380">
        <ele>164.8</ele>
        <time>2021-05-20T15:06:48Z</time>
      </trkpt>
      <trkpt lat="42.2816020" lon="-8.6378170">
        <ele>164.8</ele>
        <time>2021-05-20T15:06:49Z</time>
      </trkpt>
      <trkpt lat="42.2815910" lon="-8.6378010">
        <ele>164.8</ele>
        <time>2021-05-20T15:06:50Z</time>
      </trkpt>
      <trkpt lat="42.2815810" lon="-8.6377900">
        <ele>164.8</ele>
        <time>2021-05-20T15:06:51Z</time>
      </trkpt>
      <trkpt lat="42.2815680" lon="-8.6377700">
        <ele>164.8</ele>
        <time>2021-05-20T15:06:52Z</time>
      </trkpt>
      <trkpt lat="42.2815600" lon="-8.6377560">
        <ele>164.8</ele>
        <time>2021-05-20T15:06:53Z</time>
      </trkpt>
      <trkpt lat="42.2815490" lon="-8.6377370">
        <ele>164.8</ele>
        <time>2021-05-20T15:06:54Z</time>
      </trkpt>
      <trkpt lat="42.2815370" lon="-8.6377170">
        <ele>164.8</ele>
        <time>2021-05-20T15:06:55Z</time>
      </trkpt>
      <trkpt lat="42.2815310" lon="-8.6377050">
        <ele>164.8</ele>
        <time>2021-05-20T15:06:56Z</time>
      </trkpt>
      <trkpt lat="42.2815250" lon="-8.6376940">
        <ele>164.8</ele>
        <time>2021-05-20T15:06:57Z</time>
      </trkpt>
      <trkpt lat="42.2815180" lon="-8.6376680">
        <ele>164.8</ele>
        <time>2021-05-20T15:06:58Z</time>
      </trkpt>
      <trkpt lat="42.2815150" lon="-8.6376580">
        <ele>164.8</ele>
        <time>2021-05-20T15:06:59Z</time>
      </trkpt>
      <trkpt lat="42.2815110" lon="-8.6376470">
        <ele>164.8</ele>
        <time>2021-05-20T15:07:00Z</time>
      </trkpt>
      <trkpt lat="42.2815040" lon="-8.6376300">
        <ele>164.7</ele>
        <time>2021-05-20T15:07:01Z</time>
      </trkpt>
      <trkpt lat="42.2814960" lon="-8.6376060">
        <ele>164.7</ele>
        <time>2021-05-20T15:07:02Z</time>
      </trkpt>
      <trkpt lat="42.2814910" lon="-8.6375850">
        <ele>164.7</ele>
        <time>2021-05-20T15:07:03Z</time>
      </trkpt>
      <trkpt lat="42.2814850" lon="-8.6375670">
        <ele>164.7</ele>
        <time>2021-05-20T15:07:04Z</time>
      </trkpt>
      <trkpt lat="42.2814850" lon="-8.6375600">
        <ele>164.7</ele>
        <time>2021-05-20T15:07:05Z</time>
      </trkpt>
      <trkpt lat="42.2814860" lon="-8.6375390">
        <ele>164.7</ele>
        <time>2021-05-20T15:07:06Z</time>
      </trkpt>
      <trkpt lat="42.2814830" lon="-8.6375260">
        <ele>164.7</ele>
        <time>2021-05-20T15:07:07Z</time>
      </trkpt>
      <trkpt lat="42.2814740" lon="-8.6374980">
        <ele>164.7</ele>
        <time>2021-05-20T15:07:08Z</time>
      </trkpt>
      <trkpt lat="42.2814700" lon="-8.6374830">
        <ele>164.7</ele>
        <time>2021-05-20T15:07:09Z</time>
      </trkpt>
      <trkpt lat="42.2814640" lon="-8.6374620">
        <ele>164.7</ele>
        <time>2021-05-20T15:07:10Z</time>
      </trkpt>
      <trkpt lat="42.2814530" lon="-8.6374390">
        <ele>164.7</ele>
        <time>2021-05-20T15:07:11Z</time>
      </trkpt>
      <trkpt lat="42.2814450" lon="-8.6374210">
        <ele>164.7</ele>
        <time>2021-05-20T15:07:12Z</time>
      </trkpt>
      <trkpt lat="42.2814430" lon="-8.6374130">
        <ele>164.7</ele>
        <time>2021-05-20T15:07:13Z</time>
      </trkpt>
      <trkpt lat="42.2814420" lon="-8.6374090">
        <ele>164.7</ele>
        <time>2021-05-20T15:07:14Z</time>
      </trkpt>
      <trkpt lat="42.2814400" lon="-8.6373970">
        <ele>164.7</ele>
        <time>2021-05-20T15:07:15Z</time>
      </trkpt>
      <trkpt lat="42.2814300" lon="-8.6373720">
        <ele>164.7</ele>
        <time>2021-05-20T15:07:16Z</time>
      </trkpt>
      <trkpt lat="42.2814260" lon="-8.6373590">
        <ele>164.7</ele>
        <time>2021-05-20T15:07:17Z</time>
      </trkpt>
      <trkpt lat="42.2814220" lon="-8.6373460">
        <ele>164.7</ele>
        <time>2021-05-20T15:07:18Z</time>
      </trkpt>
      <trkpt lat="42.2814180" lon="-8.6373250">
        <ele>164.7</ele>
        <time>2021-05-20T15:07:19Z</time>
      </trkpt>
      <trkpt lat="42.2814150" lon="-8.6373150">
        <ele>164.7</ele>
        <time>2021-05-20T15:07:20Z</time>
      </trkpt>
      <trkpt lat="42.2814110" lon="-8.6373050">
        <ele>164.7</ele>
        <time>2021-05-20T15:07:21Z</time>
      </trkpt>
      <trkpt lat="42.2814080" lon="-8.6372950">
        <ele>164.7</ele>
        <time>2021-05-20T15:07:22Z</time>
      </trkpt>
      <trkpt lat="42.2813990" lon="-8.6372690">
        <ele>164.7</ele>
        <time>2021-05-20T15:07:23Z</time>
      </trkpt>
      <trkpt lat="42.2814000" lon="-8.6372550">
        <ele>164.7</ele>
        <time>2021-05-20T15:07:24Z</time>
      </trkpt>
      <trkpt lat="42.2813910" lon="-8.6372350">
        <ele>164.7</ele>
        <time>2021-05-20T15:07:25Z</time>
      </trkpt>
      <trkpt lat="42.2813860" lon="-8.6372240">
        <ele>164.7</ele>
        <time>2021-05-20T15:07:26Z</time>
      </trkpt>
      <trkpt lat="42.2813800" lon="-8.6372120">
        <ele>164.7</ele>
        <time>2021-05-20T15:07:27Z</time>
      </trkpt>
      <trkpt lat="42.2813700" lon="-8.6371920">
        <ele>164.7</ele>
        <time>2021-05-20T15:07:28Z</time>
      </trkpt>
      <trkpt lat="42.2813630" lon="-8.6371760">
        <ele>164.7</ele>
        <time>2021-05-20T15:07:29Z</time>
      </trkpt>
      <trkpt lat="42.2813560" lon="-8.6371650">
        <ele>164.7</ele>
        <time>2021-05-20T15:07:30Z</time>
      </trkpt>
      <trkpt lat="42.2813490" lon="-8.6371550">
        <ele>164.7</ele>
        <time>2021-05-20T15:07:31Z</time>
      </trkpt>
      <trkpt lat="42.2813380" lon="-8.6371400">
        <ele>164.7</ele>
        <time>2021-05-20T15:07:32Z</time>
      </trkpt>
      <trkpt lat="42.2813310" lon="-8.6371260">
        <ele>164.7</ele>
        <time>2021-05-20T15:07:33Z</time>
      </trkpt>
      <trkpt lat="42.2813360" lon="-8.6371270">
        <ele>164.7</ele>
        <time>2021-05-20T15:07:34Z</time>
      </trkpt>
      <trkpt lat="42.2813350" lon="-8.6371180">
        <ele>164.7</ele>
        <time>2021-05-20T15:07:35Z</time>
      </trkpt>
      <trkpt lat="42.2813280" lon="-8.6370990">
        <ele>164.7</ele>
        <time>2021-05-20T15:07:36Z</time>
      </trkpt>
      <trkpt lat="42.2813130" lon="-8.6370710">
        <ele>164.7</ele>
        <time>2021-05-20T15:07:37Z</time>
      </trkpt>
      <trkpt lat="42.2813120" lon="-8.6370610">
        <ele>164.7</ele>
        <time>2021-05-20T15:07:38Z</time>
      </trkpt>
      <trkpt lat="42.2813100" lon="-8.6370510">
        <ele>164.7</ele>
        <time>2021-05-20T15:07:39Z</time>
      </trkpt>
      <trkpt lat="42.2813030" lon="-8.6370540">
        <ele>164.7</ele>
        <time>2021-05-20T15:07:40Z</time>
      </trkpt>
      <trkpt lat="42.2812990" lon="-8.6370410">
        <ele>164.7</ele>
        <time>2021-05-20T15:07:41Z</time>
      </trkpt>
      <trkpt lat="42.2812900" lon="-8.6370250">
        <ele>164.7</ele>
        <time>2021-05-20T15:07:42Z</time>
      </trkpt>
      <trkpt lat="42.2812820" lon="-8.6370120">
        <ele>164.7</ele>
        <time>2021-05-20T15:07:43Z</time>
      </trkpt>
      <trkpt lat="42.2812780" lon="-8.6369950">
        <ele>164.7</ele>
        <time>2021-05-20T15:07:44Z</time>
      </trkpt>
      <trkpt lat="42.2812700" lon="-8.6369850">
        <ele>164.7</ele>
        <time>2021-05-20T15:07:45Z</time>
      </trkpt>
      <trkpt lat="42.2812560" lon="-8.6369630">
        <ele>164.7</ele>
        <time>2021-05-20T15:07:46Z</time>
      </trkpt>
      <trkpt lat="42.2812450" lon="-8.6369480">
        <ele>164.7</ele>
        <time>2021-05-20T15:07:47Z</time>
      </trkpt>
      <trkpt lat="42.2812340" lon="-8.6369340">
        <ele>164.7</ele>
        <time>2021-05-20T15:07:48Z</time>
      </trkpt>
      <trkpt lat="42.2812250" lon="-8.6369290">
        <ele>164.7</ele>
        <time>2021-05-20T15:07:49Z</time>
      </trkpt>
      <trkpt lat="42.2812200" lon="-8.6369150">
        <ele>164.7</ele>
        <time>2021-05-20T15:07:50Z</time>
      </trkpt>
      <trkpt lat="42.2812170" lon="-8.6369020">
        <ele>164.7</ele>
        <time>2021-05-20T15:07:51Z</time>
      </trkpt>
      <trkpt lat="42.2812080" lon="-8.6368860">
        <ele>164.7</ele>
        <time>2021-05-20T15:07:52Z</time>
      </trkpt>
      <trkpt lat="42.2811980" lon="-8.6368650">
        <ele>164.7</ele>
        <time>2021-05-20T15:07:53Z</time>
      </trkpt>
      <trkpt lat="42.2811910" lon="-8.6368430">
        <ele>164.7</ele>
        <time>2021-05-20T15:07:54Z</time>
      </trkpt>
      <trkpt lat="42.2811850" lon="-8.6368280">
        <ele>164.7</ele>
        <time>2021-05-20T15:07:55Z</time>
      </trkpt>
      <trkpt lat="42.2811800" lon="-8.6368140">
        <ele>164.7</ele>
        <time>2021-05-20T15:07:56Z</time>
      </trkpt>
      <trkpt lat="42.2811740" lon="-8.6368020">
        <ele>164.7</ele>
        <time>2021-05-20T15:07:57Z</time>
      </trkpt>
      <trkpt lat="42.2811650" lon="-8.6367920">
        <ele>164.6</ele>
        <time>2021-05-20T15:07:58Z</time>
      </trkpt>
      <trkpt lat="42.2811570" lon="-8.6367730">
        <ele>164.6</ele>
        <time>2021-05-20T15:07:59Z</time>
      </trkpt>
      <trkpt lat="42.2811530" lon="-8.6367580">
        <ele>164.6</ele>
        <time>2021-05-20T15:08:00Z</time>
      </trkpt>
      <trkpt lat="42.2811470" lon="-8.6367440">
        <ele>164.6</ele>
        <time>2021-05-20T15:08:01Z</time>
      </trkpt>
      <trkpt lat="42.2811420" lon="-8.6367320">
        <ele>164.6</ele>
        <time>2021-05-20T15:08:02Z</time>
      </trkpt>
      <trkpt lat="42.2811390" lon="-8.6367220">
        <ele>164.6</ele>
        <time>2021-05-20T15:08:03Z</time>
      </trkpt>
      <trkpt lat="42.2811340" lon="-8.6367090">
        <ele>164.6</ele>
        <time>2021-05-20T15:08:04Z</time>
      </trkpt>
      <trkpt lat="42.2811280" lon="-8.6366820">
        <ele>164.6</ele>
        <time>2021-05-20T15:08:05Z</time>
      </trkpt>
      <trkpt lat="42.2811200" lon="-8.6366530">
        <ele>164.6</ele>
        <time>2021-05-20T15:08:06Z</time>
      </trkpt>
      <trkpt lat="42.2811190" lon="-8.6366440">
        <ele>164.6</ele>
        <time>2021-05-20T15:08:07Z</time>
      </trkpt>
      <trkpt lat="42.2811120" lon="-8.6366290">
        <ele>164.6</ele>
        <time>2021-05-20T15:08:08Z</time>
      </trkpt>
      <trkpt lat="42.2811060" lon="-8.6366180">
        <ele>164.6</ele>
        <time>2021-05-20T15:08:09Z</time>
      </trkpt>
      <trkpt lat="42.2811080" lon="-8.6366150">
        <ele>164.6</ele>
        <time>2021-05-20T15:08:10Z</time>
      </trkpt>
      <trkpt lat="42.2811040" lon="-8.6366110">
        <ele>164.6</ele>
        <time>2021-05-20T15:08:11Z</time>
      </trkpt>
      <trkpt lat="42.2810990" lon="-8.6365910">
        <ele>164.6</ele>
        <time>2021-05-20T15:08:12Z</time>
      </trkpt>
      <trkpt lat="42.2810960" lon="-8.6365770">
        <ele>164.6</ele>
        <time>2021-05-20T15:08:13Z</time>
      </trkpt>
      <trkpt lat="42.2810940" lon="-8.6365620">
        <ele>164.6</ele>
        <time>2021-05-20T15:08:14Z</time>
      </trkpt>
      <trkpt lat="42.2810920" lon="-8.6365530">
        <ele>164.6</ele>
        <time>2021-05-20T15:08:15Z</time>
      </trkpt>
      <trkpt lat="42.2810990" lon="-8.6365450">
        <ele>164.6</ele>
        <time>2021-05-20T15:08:16Z</time>
      </trkpt>
      <trkpt lat="42.2810960" lon="-8.6365220">
        <ele>164.6</ele>
        <time>2021-05-20T15:08:17Z</time>
      </trkpt>
      <trkpt lat="42.2810950" lon="-8.6365080">
        <ele>164.6</ele>
        <time>2021-05-20T15:08:18Z</time>
      </trkpt>
      <trkpt lat="42.2810870" lon="-8.6364840">
        <ele>164.6</ele>
        <time>2021-05-20T15:08:19Z</time>
      </trkpt>
      <trkpt lat="42.2810820" lon="-8.6364670">
        <ele>164.7</ele>
        <time>2021-05-20T15:08:20Z</time>
      </trkpt>
      <trkpt lat="42.2810820" lon="-8.6364480">
        <ele>164.7</ele>
        <time>2021-05-20T15:08:21Z</time>
      </trkpt>
      <trkpt lat="42.2810750" lon="-8.6364280">
        <ele>164.7</ele>
        <time>2021-05-20T15:08:22Z</time>
      </trkpt>
      <trkpt lat="42.2810630" lon="-8.6364160">
        <ele>164.7</ele>
        <time>2021-05-20T15:08:23Z</time>
      </trkpt>
      <trkpt lat="42.2810530" lon="-8.6363970">
        <ele>164.7</ele>
        <time>2021-05-20T15:08:24Z</time>
      </trkpt>
      <trkpt lat="42.2810450" lon="-8.6363800">
        <ele>164.8</ele>
        <time>2021-05-20T15:08:25Z</time>
      </trkpt>
      <trkpt lat="42.2810310" lon="-8.6363540">
        <ele>164.8</ele>
        <time>2021-05-20T15:08:26Z</time>
      </trkpt>
      <trkpt lat="42.2810230" lon="-8.6363400">
        <ele>164.8</ele>
        <time>2021-05-20T15:08:27Z</time>
      </trkpt>
      <trkpt lat="42.2810130" lon="-8.6363200">
        <ele>164.8</ele>
        <time>2021-05-20T15:08:28Z</time>
      </trkpt>
      <trkpt lat="42.2810060" lon="-8.6363040">
        <ele>164.9</ele>
        <time>2021-05-20T15:08:29Z</time>
      </trkpt>
      <trkpt lat="42.2810000" lon="-8.6362880">
        <ele>164.9</ele>
        <time>2021-05-20T15:08:30Z</time>
      </trkpt>
      <trkpt lat="42.2809880" lon="-8.6362730">
        <ele>164.9</ele>
        <time>2021-05-20T15:08:31Z</time>
      </trkpt>
      <trkpt lat="42.2809830" lon="-8.6362490">
        <ele>164.9</ele>
        <time>2021-05-20T15:08:32Z</time>
      </trkpt>
      <trkpt lat="42.2809830" lon="-8.6362330">
        <ele>165.0</ele>
        <time>2021-05-20T15:08:33Z</time>
      </trkpt>
      <trkpt lat="42.2809830" lon="-8.6362230">
        <ele>165.0</ele>
        <time>2021-05-20T15:08:34Z</time>
      </trkpt>
      <trkpt lat="42.2809790" lon="-8.6362130">
        <ele>165.0</ele>
        <time>2021-05-20T15:08:35Z</time>
      </trkpt>
      <trkpt lat="42.2809740" lon="-8.6362030">
        <ele>165.0</ele>
        <time>2021-05-20T15:08:36Z</time>
      </trkpt>
      <trkpt lat="42.2809680" lon="-8.6361960">
        <ele>165.0</ele>
        <time>2021-05-20T15:08:37Z</time>
      </trkpt>
      <trkpt lat="42.2809630" lon="-8.6361770">
        <ele>165.0</ele>
        <time>2021-05-20T15:08:38Z</time>
      </trkpt>
      <trkpt lat="42.2809530" lon="-8.6361600">
        <ele>165.0</ele>
        <time>2021-05-20T15:08:39Z</time>
      </trkpt>
      <trkpt lat="42.2809400" lon="-8.6361270">
        <ele>165.1</ele>
        <time>2021-05-20T15:08:40Z</time>
      </trkpt>
      <trkpt lat="42.2809360" lon="-8.6361140">
        <ele>165.1</ele>
        <time>2021-05-20T15:08:41Z</time>
      </trkpt>
      <trkpt lat="42.2809290" lon="-8.6360860">
        <ele>165.1</ele>
        <time>2021-05-20T15:08:42Z</time>
      </trkpt>
      <trkpt lat="42.2809250" lon="-8.6360780">
        <ele>165.1</ele>
        <time>2021-05-20T15:08:43Z</time>
      </trkpt>
      <trkpt lat="42.2809220" lon="-8.6360690">
        <ele>165.1</ele>
        <time>2021-05-20T15:08:44Z</time>
      </trkpt>
      <trkpt lat="42.2809160" lon="-8.6360550">
        <ele>165.1</ele>
        <time>2021-05-20T15:08:45Z</time>
      </trkpt>
      <trkpt lat="42.2809110" lon="-8.6360420">
        <ele>165.1</ele>
        <time>2021-05-20T15:08:46Z</time>
      </trkpt>
      <trkpt lat="42.2809130" lon="-8.6360320">
        <ele>165.1</ele>
        <time>2021-05-20T15:08:47Z</time>
      </trkpt>
      <trkpt lat="42.2809060" lon="-8.6360200">
        <ele>165.1</ele>
        <time>2021-05-20T15:08:48Z</time>
      </trkpt>
      <trkpt lat="42.2809040" lon="-8.6360010">
        <ele>165.1</ele>
        <time>2021-05-20T15:08:49Z</time>
      </trkpt>
      <trkpt lat="42.2809010" lon="-8.6359900">
        <ele>165.2</ele>
        <time>2021-05-20T15:08:50Z</time>
      </trkpt>
      <trkpt lat="42.2808940" lon="-8.6359670">
        <ele>165.2</ele>
        <time>2021-05-20T15:08:51Z</time>
      </trkpt>
      <trkpt lat="42.2808870" lon="-8.6359480">
        <ele>165.2</ele>
        <time>2021-05-20T15:08:52Z</time>
      </trkpt>
      <trkpt lat="42.2808900" lon="-8.6359380">
        <ele>165.2</ele>
        <time>2021-05-20T15:08:53Z</time>
      </trkpt>
      <trkpt lat="42.2808900" lon="-8.6359190">
        <ele>165.2</ele>
        <time>2021-05-20T15:08:54Z</time>
      </trkpt>
      <trkpt lat="42.2808890" lon="-8.6359060">
        <ele>165.2</ele>
        <time>2021-05-20T15:08:55Z</time>
      </trkpt>
      <trkpt lat="42.2808850" lon="-8.6358880">
        <ele>165.2</ele>
        <time>2021-05-20T15:08:56Z</time>
      </trkpt>
      <trkpt lat="42.2808740" lon="-8.6358740">
        <ele>165.2</ele>
        <time>2021-05-20T15:08:57Z</time>
      </trkpt>
      <trkpt lat="42.2808660" lon="-8.6358530">
        <ele>165.2</ele>
        <time>2021-05-20T15:08:58Z</time>
      </trkpt>
      <trkpt lat="42.2808630" lon="-8.6358440">
        <ele>165.2</ele>
        <time>2021-05-20T15:08:59Z</time>
      </trkpt>
      <trkpt lat="42.2808600" lon="-8.6358340">
        <ele>165.2</ele>
        <time>2021-05-20T15:09:00Z</time>
      </trkpt>
      <trkpt lat="42.2808560" lon="-8.6358260">
        <ele>165.2</ele>
        <time>2021-05-20T15:09:01Z</time>
      </trkpt>
      <trkpt lat="42.2808540" lon="-8.6358130">
        <ele>165.2</ele>
        <time>2021-05-20T15:09:02Z</time>
      </trkpt>
      <trkpt lat="42.2808470" lon="-8.6357990">
        <ele>165.2</ele>
        <time>2021-05-20T15:09:03Z</time>
      </trkpt>
      <trkpt lat="42.2808420" lon="-8.6357740">
        <ele>165.2</ele>
        <time>2021-05-20T15:09:04Z</time>
      </trkpt>
      <trkpt lat="42.2808380" lon="-8.6357600">
        <ele>165.2</ele>
        <time>2021-05-20T15:09:05Z</time>
      </trkpt>
      <trkpt lat="42.2808270" lon="-8.6357360">
        <ele>165.2</ele>
        <time>2021-05-20T15:09:06Z</time>
      </trkpt>
      <trkpt lat="42.2808260" lon="-8.6357240">
        <ele>165.2</ele>
        <time>2021-05-20T15:09:07Z</time>
      </trkpt>
      <trkpt lat="42.2808270" lon="-8.6357100">
        <ele>165.2</ele>
        <time>2021-05-20T15:09:08Z</time>
      </trkpt>
      <trkpt lat="42.2808260" lon="-8.6356840">
        <ele>165.2</ele>
        <time>2021-05-20T15:09:09Z</time>
      </trkpt>
      <trkpt lat="42.2808280" lon="-8.6356700">
        <ele>165.2</ele>
        <time>2021-05-20T15:09:10Z</time>
      </trkpt>
      <trkpt lat="42.2808180" lon="-8.6356440">
        <ele>165.2</ele>
        <time>2021-05-20T15:09:11Z</time>
      </trkpt>
      <trkpt lat="42.2808150" lon="-8.6356250">
        <ele>165.2</ele>
        <time>2021-05-20T15:09:12Z</time>
      </trkpt>
      <trkpt lat="42.2808080" lon="-8.6356080">
        <ele>165.2</ele>
        <time>2021-05-20T15:09:13Z</time>
      </trkpt>
      <trkpt lat="42.2808010" lon="-8.6355910">
        <ele>165.2</ele>
        <time>2021-05-20T15:09:14Z</time>
      </trkpt>
      <trkpt lat="42.2808060" lon="-8.6355810">
        <ele>165.2</ele>
        <time>2021-05-20T15:09:15Z</time>
      </trkpt>
      <trkpt lat="42.2808090" lon="-8.6355660">
        <ele>165.2</ele>
        <time>2021-05-20T15:09:16Z</time>
      </trkpt>
      <trkpt lat="42.2808120" lon="-8.6355480">
        <ele>165.1</ele>
        <time>2021-05-20T15:09:17Z</time>
      </trkpt>
      <trkpt lat="42.2808160" lon="-8.6355300">
        <ele>165.1</ele>
        <time>2021-05-20T15:09:18Z</time>
      </trkpt>
      <trkpt lat="42.2808170" lon="-8.6355140">
        <ele>165.1</ele>
        <time>2021-05-20T15:09:19Z</time>
      </trkpt>
      <trkpt lat="42.2808140" lon="-8.6355010">
        <ele>165.1</ele>
        <time>2021-05-20T15:09:20Z</time>
      </trkpt>
      <trkpt lat="42.2808130" lon="-8.6354820">
        <ele>165.1</ele>
        <time>2021-05-20T15:09:21Z</time>
      </trkpt>
      <trkpt lat="42.2808140" lon="-8.6354590">
        <ele>165.1</ele>
        <time>2021-05-20T15:09:22Z</time>
      </trkpt>
      <trkpt lat="42.2808170" lon="-8.6354370">
        <ele>165.1</ele>
        <time>2021-05-20T15:09:23Z</time>
      </trkpt>
      <trkpt lat="42.2808290" lon="-8.6354200">
        <ele>165.1</ele>
        <time>2021-05-20T15:09:24Z</time>
      </trkpt>
      <trkpt lat="42.2808370" lon="-8.6354100">
        <ele>165.1</ele>
        <time>2021-05-20T15:09:25Z</time>
      </trkpt>
      <trkpt lat="42.2808340" lon="-8.6353990">
        <ele>165.0</ele>
        <time>2021-05-20T15:09:26Z</time>
      </trkpt>
      <trkpt lat="42.2808290" lon="-8.6353830">
        <ele>165.0</ele>
        <time>2021-05-20T15:09:27Z</time>
      </trkpt>
      <trkpt lat="42.2808460" lon="-8.6353670">
        <ele>165.0</ele>
        <time>2021-05-20T15:09:28Z</time>
      </trkpt>
      <trkpt lat="42.2808480" lon="-8.6353590">
        <ele>165.0</ele>
        <time>2021-05-20T15:09:29Z</time>
      </trkpt>
      <trkpt lat="42.2808470" lon="-8.6353530">
        <ele>165.0</ele>
        <time>2021-05-20T15:09:30Z</time>
      </trkpt>
      <trkpt lat="42.2808460" lon="-8.6353460">
        <ele>165.0</ele>
        <time>2021-05-20T15:09:31Z</time>
      </trkpt>
      <trkpt lat="42.2808450" lon="-8.6353400">
        <ele>165.0</ele>
        <time>2021-05-20T15:09:32Z</time>
      </trkpt>
      <trkpt lat="42.2808430" lon="-8.6353330">
        <ele>165.0</ele>
        <time>2021-05-20T15:09:33Z</time>
      </trkpt>
      <trkpt lat="42.2808420" lon="-8.6353270">
        <ele>165.0</ele>
        <time>2021-05-20T15:09:34Z</time>
      </trkpt>
      <trkpt lat="42.2808410" lon="-8.6353200">
        <ele>165.0</ele>
        <time>2021-05-20T15:09:35Z</time>
      </trkpt>
      <trkpt lat="42.2808400" lon="-8.6353140">
        <ele>165.0</ele>
        <time>2021-05-20T15:09:36Z</time>
      </trkpt>
      <trkpt lat="42.2808410" lon="-8.6352800">
        <ele>165.0</ele>
        <time>2021-05-20T15:09:37Z</time>
      </trkpt>
      <trkpt lat="42.2808390" lon="-8.6352760">
        <ele>165.0</ele>
        <time>2021-05-20T15:09:38Z</time>
      </trkpt>
      <trkpt lat="42.2808390" lon="-8.6352460">
        <ele>164.9</ele>
        <time>2021-05-20T15:09:39Z</time>
      </trkpt>
      <trkpt lat="42.2808360" lon="-8.6352350">
        <ele>164.9</ele>
        <time>2021-05-20T15:09:40Z</time>
      </trkpt>
      <trkpt lat="42.2808330" lon="-8.6352240">
        <ele>164.9</ele>
        <time>2021-05-20T15:09:41Z</time>
      </trkpt>
      <trkpt lat="42.2808350" lon="-8.6352100">
        <ele>164.9</ele>
        <time>2021-05-20T15:09:42Z</time>
      </trkpt>
      <trkpt lat="42.2808340" lon="-8.6351980">
        <ele>164.9</ele>
        <time>2021-05-20T15:09:43Z</time>
      </trkpt>
      <trkpt lat="42.2808330" lon="-8.6351810">
        <ele>164.9</ele>
        <time>2021-05-20T15:09:44Z</time>
      </trkpt>
      <trkpt lat="42.2808350" lon="-8.6351670">
        <ele>164.9</ele>
        <time>2021-05-20T15:09:45Z</time>
      </trkpt>
      <trkpt lat="42.2808300" lon="-8.6351470">
        <ele>164.9</ele>
        <time>2021-05-20T15:09:46Z</time>
      </trkpt>
      <trkpt lat="42.2808250" lon="-8.6351370">
        <ele>164.9</ele>
        <time>2021-05-20T15:09:47Z</time>
      </trkpt>
      <trkpt lat="42.2808210" lon="-8.6351310">
        <ele>164.9</ele>
        <time>2021-05-20T15:09:48Z</time>
      </trkpt>
      <trkpt lat="42.2808190" lon="-8.6351190">
        <ele>164.9</ele>
        <time>2021-05-20T15:09:49Z</time>
      </trkpt>
      <trkpt lat="42.2808170" lon="-8.6351030">
        <ele>164.9</ele>
        <time>2021-05-20T15:09:50Z</time>
      </trkpt>
      <trkpt lat="42.2808140" lon="-8.6350960">
        <ele>164.9</ele>
        <time>2021-05-20T15:09:51Z</time>
      </trkpt>
      <trkpt lat="42.2808150" lon="-8.6350810">
        <ele>164.8</ele>
        <time>2021-05-20T15:09:52Z</time>
      </trkpt>
      <trkpt lat="42.2808180" lon="-8.6350640">
        <ele>164.8</ele>
        <time>2021-05-20T15:09:53Z</time>
      </trkpt>
      <trkpt lat="42.2808170" lon="-8.6350600">
        <ele>164.8</ele>
        <time>2021-05-20T15:09:54Z</time>
      </trkpt>
      <trkpt lat="42.2808150" lon="-8.6350540">
        <ele>164.8</ele>
        <time>2021-05-20T15:09:55Z</time>
      </trkpt>
      <trkpt lat="42.2808190" lon="-8.6350570">
        <ele>164.8</ele>
        <time>2021-05-20T15:09:56Z</time>
      </trkpt>
      <trkpt lat="42.2808220" lon="-8.6350550">
        <ele>164.8</ele>
        <time>2021-05-20T15:09:57Z</time>
      </trkpt>
      <trkpt lat="42.2808240" lon="-8.6350530">
        <ele>164.8</ele>
        <time>2021-05-20T15:09:58Z</time>
      </trkpt>
      <trkpt lat="42.2808230" lon="-8.6350470">
        <ele>164.8</ele>
        <time>2021-05-20T15:09:59Z</time>
      </trkpt>
      <trkpt lat="42.2808210" lon="-8.6350370">
        <ele>164.8</ele>
        <time>2021-05-20T15:10:00Z</time>
      </trkpt>
      <trkpt lat="42.2808160" lon="-8.6350220">
        <ele>164.8</ele>
        <time>2021-05-20T15:10:01Z</time>
      </trkpt>
      <trkpt lat="42.2808120" lon="-8.6350130">
        <ele>164.8</ele>
        <time>2021-05-20T15:10:02Z</time>
      </trkpt>
      <trkpt lat="42.2808240" lon="-8.6350180">
        <ele>164.9</ele>
        <time>2021-05-20T15:10:03Z</time>
      </trkpt>
      <trkpt lat="42.2808300" lon="-8.6350250">
        <ele>164.9</ele>
        <time>2021-05-20T15:10:04Z</time>
      </trkpt>
      <trkpt lat="42.2808350" lon="-8.6350210">
        <ele>164.9</ele>
        <time>2021-05-20T15:10:05Z</time>
      </trkpt>
      <trkpt lat="42.2808140" lon="-8.6350100">
        <ele>164.9</ele>
        <time>2021-05-20T15:10:07Z</time>
      </trkpt>
      <trkpt lat="42.2807950" lon="-8.6349810">
        <ele>164.9</ele>
        <time>2021-05-20T15:10:09Z</time>
      </trkpt>
      <trkpt lat="42.2807730" lon="-8.6349590">
        <ele>164.9</ele>
        <time>2021-05-20T15:10:11Z</time>
      </trkpt>
      <trkpt lat="42.2807620" lon="-8.6349450">
        <ele>164.9</ele>
        <time>2021-05-20T15:10:12Z</time>
      </trkpt>
      <trkpt lat="42.2807530" lon="-8.6349300">
        <ele>164.9</ele>
        <time>2021-05-20T15:10:13Z</time>
      </trkpt>
      <trkpt lat="42.2807490" lon="-8.6349270">
        <ele>165.0</ele>
        <time>2021-05-20T15:10:14Z</time>
      </trkpt>
      <trkpt lat="42.2807420" lon="-8.6349120">
        <ele>165.0</ele>
        <time>2021-05-20T15:10:15Z</time>
      </trkpt>
      <trkpt lat="42.2807480" lon="-8.6348960">
        <ele>165.0</ele>
        <time>2021-05-20T15:10:16Z</time>
      </trkpt>
      <trkpt lat="42.2807400" lon="-8.6348870">
        <ele>165.0</ele>
        <time>2021-05-20T15:10:17Z</time>
      </trkpt>
      <trkpt lat="42.2807280" lon="-8.6348740">
        <ele>165.0</ele>
        <time>2021-05-20T15:10:18Z</time>
      </trkpt>
      <trkpt lat="42.2807150" lon="-8.6348520">
        <ele>165.0</ele>
        <time>2021-05-20T15:10:19Z</time>
      </trkpt>
      <trkpt lat="42.2807070" lon="-8.6348460">
        <ele>165.0</ele>
        <time>2021-05-20T15:10:20Z</time>
      </trkpt>
      <trkpt lat="42.2806960" lon="-8.6348330">
        <ele>165.0</ele>
        <time>2021-05-20T15:10:21Z</time>
      </trkpt>
      <trkpt lat="42.2806840" lon="-8.6348270">
        <ele>165.1</ele>
        <time>2021-05-20T15:10:22Z</time>
      </trkpt>
      <trkpt lat="42.2806760" lon="-8.6348220">
        <ele>165.1</ele>
        <time>2021-05-20T15:10:23Z</time>
      </trkpt>
      <trkpt lat="42.2806610" lon="-8.6348070">
        <ele>165.1</ele>
        <time>2021-05-20T15:10:25Z</time>
      </trkpt>
      <trkpt lat="42.2806550" lon="-8.6347990">
        <ele>165.1</ele>
        <time>2021-05-20T15:10:26Z</time>
      </trkpt>
      <trkpt lat="42.2806400" lon="-8.6347900">
        <ele>165.1</ele>
        <time>2021-05-20T15:10:27Z</time>
      </trkpt>
      <trkpt lat="42.2806300" lon="-8.6347830">
        <ele>165.1</ele>
        <time>2021-05-20T15:10:28Z</time>
      </trkpt>
      <trkpt lat="42.2806200" lon="-8.6347770">
        <ele>165.1</ele>
        <time>2021-05-20T15:10:29Z</time>
      </trkpt>
      <trkpt lat="42.2806100" lon="-8.6347650">
        <ele>165.1</ele>
        <time>2021-05-20T15:10:30Z</time>
      </trkpt>
      <trkpt lat="42.2806020" lon="-8.6347570">
        <ele>165.1</ele>
        <time>2021-05-20T15:10:31Z</time>
      </trkpt>
      <trkpt lat="42.2805930" lon="-8.6347450">
        <ele>165.1</ele>
        <time>2021-05-20T15:10:32Z</time>
      </trkpt>
      <trkpt lat="42.2805790" lon="-8.6347350">
        <ele>165.2</ele>
        <time>2021-05-20T15:10:33Z</time>
      </trkpt>
      <trkpt lat="42.2805610" lon="-8.6347180">
        <ele>165.2</ele>
        <time>2021-05-20T15:10:34Z</time>
      </trkpt>
      <trkpt lat="42.2805530" lon="-8.6347110">
        <ele>165.2</ele>
        <time>2021-05-20T15:10:35Z</time>
      </trkpt>
      <trkpt lat="42.2805460" lon="-8.6347030">
        <ele>165.2</ele>
        <time>2021-05-20T15:10:36Z</time>
      </trkpt>
      <trkpt lat="42.2805380" lon="-8.6347010">
        <ele>165.2</ele>
        <time>2021-05-20T15:10:37Z</time>
      </trkpt>
      <trkpt lat="42.2805240" lon="-8.6346880">
        <ele>165.2</ele>
        <time>2021-05-20T15:10:38Z</time>
      </trkpt>
      <trkpt lat="42.2805150" lon="-8.6346770">
        <ele>165.2</ele>
        <time>2021-05-20T15:10:39Z</time>
      </trkpt>
      <trkpt lat="42.2805070" lon="-8.6346600">
        <ele>165.2</ele>
        <time>2021-05-20T15:10:40Z</time>
      </trkpt>
      <trkpt lat="42.2805000" lon="-8.6346480">
        <ele>165.2</ele>
        <time>2021-05-20T15:10:41Z</time>
      </trkpt>
      <trkpt lat="42.2804860" lon="-8.6346330">
        <ele>165.2</ele>
        <time>2021-05-20T15:10:42Z</time>
      </trkpt>
      <trkpt lat="42.2804770" lon="-8.6346240">
        <ele>165.3</ele>
        <time>2021-05-20T15:10:43Z</time>
      </trkpt>
      <trkpt lat="42.2804640" lon="-8.6346130">
        <ele>165.3</ele>
        <time>2021-05-20T15:10:44Z</time>
      </trkpt>
      <trkpt lat="42.2804580" lon="-8.6345990">
        <ele>165.3</ele>
        <time>2021-05-20T15:10:45Z</time>
      </trkpt>
      <trkpt lat="42.2804560" lon="-8.6345860">
        <ele>165.3</ele>
        <time>2021-05-20T15:10:46Z</time>
      </trkpt>
      <trkpt lat="42.2804450" lon="-8.6345680">
        <ele>165.3</ele>
        <time>2021-05-20T15:10:47Z</time>
      </trkpt>
      <trkpt lat="42.2804350" lon="-8.6345530">
        <ele>165.4</ele>
        <time>2021-05-20T15:10:48Z</time>
      </trkpt>
      <trkpt lat="42.2804280" lon="-8.6345340">
        <ele>165.4</ele>
        <time>2021-05-20T15:10:49Z</time>
      </trkpt>
      <trkpt lat="42.2804250" lon="-8.6345290">
        <ele>165.4</ele>
        <time>2021-05-20T15:10:50Z</time>
      </trkpt>
      <trkpt lat="42.2804170" lon="-8.6345220">
        <ele>165.4</ele>
        <time>2021-05-20T15:10:51Z</time>
      </trkpt>
      <trkpt lat="42.2804010" lon="-8.6345020">
        <ele>165.4</ele>
        <time>2021-05-20T15:10:52Z</time>
      </trkpt>
      <trkpt lat="42.2803900" lon="-8.6344930">
        <ele>165.4</ele>
        <time>2021-05-20T15:10:53Z</time>
      </trkpt>
      <trkpt lat="42.2803800" lon="-8.6344790">
        <ele>165.5</ele>
        <time>2021-05-20T15:10:54Z</time>
      </trkpt>
      <trkpt lat="42.2803680" lon="-8.6344660">
        <ele>165.5</ele>
        <time>2021-05-20T15:10:55Z</time>
      </trkpt>
      <trkpt lat="42.2803520" lon="-8.6344560">
        <ele>165.5</ele>
        <time>2021-05-20T15:10:56Z</time>
      </trkpt>
      <trkpt lat="42.2803420" lon="-8.6344490">
        <ele>165.5</ele>
        <time>2021-05-20T15:10:57Z</time>
      </trkpt>
      <trkpt lat="42.2803210" lon="-8.6344440">
        <ele>165.6</ele>
        <time>2021-05-20T15:10:58Z</time>
      </trkpt>
      <trkpt lat="42.2803120" lon="-8.6344360">
        <ele>165.6</ele>
        <time>2021-05-20T15:10:59Z</time>
      </trkpt>
      <trkpt lat="42.2802960" lon="-8.6344310">
        <ele>165.6</ele>
        <time>2021-05-20T15:11:00Z</time>
      </trkpt>
      <trkpt lat="42.2802810" lon="-8.6344220">
        <ele>165.6</ele>
        <time>2021-05-20T15:11:01Z</time>
      </trkpt>
      <trkpt lat="42.2802730" lon="-8.6344130">
        <ele>165.6</ele>
        <time>2021-05-20T15:11:02Z</time>
      </trkpt>
      <trkpt lat="42.2802660" lon="-8.6344100">
        <ele>165.7</ele>
        <time>2021-05-20T15:11:03Z</time>
      </trkpt>
      <trkpt lat="42.2802540" lon="-8.6343980">
        <ele>165.7</ele>
        <time>2021-05-20T15:11:04Z</time>
      </trkpt>
      <trkpt lat="42.2802490" lon="-8.6343910">
        <ele>165.7</ele>
        <time>2021-05-20T15:11:05Z</time>
      </trkpt>
      <trkpt lat="42.2802400" lon="-8.6343840">
        <ele>165.7</ele>
        <time>2021-05-20T15:11:06Z</time>
      </trkpt>
      <trkpt lat="42.2802310" lon="-8.6343780">
        <ele>165.7</ele>
        <time>2021-05-20T15:11:07Z</time>
      </trkpt>
      <trkpt lat="42.2802190" lon="-8.6343730">
        <ele>165.7</ele>
        <time>2021-05-20T15:11:08Z</time>
      </trkpt>
      <trkpt lat="42.2802120" lon="-8.6343640">
        <ele>165.7</ele>
        <time>2021-05-20T15:11:09Z</time>
      </trkpt>
      <trkpt lat="42.2802060" lon="-8.6343570">
        <ele>165.7</ele>
        <time>2021-05-20T15:11:10Z</time>
      </trkpt>
      <trkpt lat="42.2801840" lon="-8.6343470">
        <ele>165.8</ele>
        <time>2021-05-20T15:11:11Z</time>
      </trkpt>
      <trkpt lat="42.2801770" lon="-8.6343410">
        <ele>165.8</ele>
        <time>2021-05-20T15:11:12Z</time>
      </trkpt>
      <trkpt lat="42.2801690" lon="-8.6343360">
        <ele>165.8</ele>
        <time>2021-05-20T15:11:13Z</time>
      </trkpt>
      <trkpt lat="42.2801600" lon="-8.6343240">
        <ele>165.8</ele>
        <time>2021-05-20T15:11:14Z</time>
      </trkpt>
      <trkpt lat="42.2801540" lon="-8.6343170">
        <ele>165.8</ele>
        <time>2021-05-20T15:11:15Z</time>
      </trkpt>
      <trkpt lat="42.2801470" lon="-8.6343100">
        <ele>165.8</ele>
        <time>2021-05-20T15:11:16Z</time>
      </trkpt>
      <trkpt lat="42.2801410" lon="-8.6343030">
        <ele>165.8</ele>
        <time>2021-05-20T15:11:17Z</time>
      </trkpt>
      <trkpt lat="42.2801340" lon="-8.6342960">
        <ele>165.8</ele>
        <time>2021-05-20T15:11:18Z</time>
      </trkpt>
      <trkpt lat="42.2801280" lon="-8.6342750">
        <ele>165.8</ele>
        <time>2021-05-20T15:11:19Z</time>
      </trkpt>
      <trkpt lat="42.2801220" lon="-8.6342560">
        <ele>165.8</ele>
        <time>2021-05-20T15:11:20Z</time>
      </trkpt>
      <trkpt lat="42.2801150" lon="-8.6342360">
        <ele>165.8</ele>
        <time>2021-05-20T15:11:21Z</time>
      </trkpt>
      <trkpt lat="42.2801060" lon="-8.6342220">
        <ele>165.8</ele>
        <time>2021-05-20T15:11:22Z</time>
      </trkpt>
      <trkpt lat="42.2800990" lon="-8.6342030">
        <ele>165.8</ele>
        <time>2021-05-20T15:11:23Z</time>
      </trkpt>
      <trkpt lat="42.2800910" lon="-8.6341860">
        <ele>165.7</ele>
        <time>2021-05-20T15:11:24Z</time>
      </trkpt>
      <trkpt lat="42.2800940" lon="-8.6341740">
        <ele>165.7</ele>
        <time>2021-05-20T15:11:25Z</time>
      </trkpt>
      <trkpt lat="42.2800950" lon="-8.6341570">
        <ele>165.7</ele>
        <time>2021-05-20T15:11:26Z</time>
      </trkpt>
      <trkpt lat="42.2800930" lon="-8.6341370">
        <ele>165.7</ele>
        <time>2021-05-20T15:11:27Z</time>
      </trkpt>
      <trkpt lat="42.2800900" lon="-8.6341190">
        <ele>165.7</ele>
        <time>2021-05-20T15:11:28Z</time>
      </trkpt>
      <trkpt lat="42.2800840" lon="-8.6341140">
        <ele>165.7</ele>
        <time>2021-05-20T15:11:29Z</time>
      </trkpt>
      <trkpt lat="42.2800820" lon="-8.6340950">
        <ele>165.7</ele>
        <time>2021-05-20T15:11:30Z</time>
      </trkpt>
      <trkpt lat="42.2800890" lon="-8.6340880">
        <ele>165.7</ele>
        <time>2021-05-20T15:11:31Z</time>
      </trkpt>
      <trkpt lat="42.2800870" lon="-8.6340730">
        <ele>165.7</ele>
        <time>2021-05-20T15:11:32Z</time>
      </trkpt>
      <trkpt lat="42.2800880" lon="-8.6340580">
        <ele>165.7</ele>
        <time>2021-05-20T15:11:33Z</time>
      </trkpt>
      <trkpt lat="42.2800850" lon="-8.6340510">
        <ele>165.7</ele>
        <time>2021-05-20T15:11:34Z</time>
      </trkpt>
      <trkpt lat="42.2800860" lon="-8.6340360">
        <ele>165.6</ele>
        <time>2021-05-20T15:11:35Z</time>
      </trkpt>
      <trkpt lat="42.2800780" lon="-8.6340060">
        <ele>165.6</ele>
        <time>2021-05-20T15:11:36Z</time>
      </trkpt>
      <trkpt lat="42.2800730" lon="-8.6339940">
        <ele>165.6</ele>
        <time>2021-05-20T15:11:37Z</time>
      </trkpt>
      <trkpt lat="42.2800670" lon="-8.6339830">
        <ele>165.6</ele>
        <time>2021-05-20T15:11:38Z</time>
      </trkpt>
      <trkpt lat="42.2800720" lon="-8.6339700">
        <ele>165.6</ele>
        <time>2021-05-20T15:11:39Z</time>
      </trkpt>
      <trkpt lat="42.2800730" lon="-8.6339560">
        <ele>165.6</ele>
        <time>2021-05-20T15:11:40Z</time>
      </trkpt>
      <trkpt lat="42.2800660" lon="-8.6339380">
        <ele>165.6</ele>
        <time>2021-05-20T15:11:41Z</time>
      </trkpt>
      <trkpt lat="42.2800630" lon="-8.6339270">
        <ele>165.6</ele>
        <time>2021-05-20T15:11:42Z</time>
      </trkpt>
      <trkpt lat="42.2800520" lon="-8.6339010">
        <ele>165.6</ele>
        <time>2021-05-20T15:11:43Z</time>
      </trkpt>
      <trkpt lat="42.2800460" lon="-8.6338750">
        <ele>165.6</ele>
        <time>2021-05-20T15:11:44Z</time>
      </trkpt>
      <trkpt lat="42.2800410" lon="-8.6338620">
        <ele>165.6</ele>
        <time>2021-05-20T15:11:45Z</time>
      </trkpt>
      <trkpt lat="42.2800350" lon="-8.6338490">
        <ele>165.6</ele>
        <time>2021-05-20T15:11:46Z</time>
      </trkpt>
      <trkpt lat="42.2800400" lon="-8.6338320">
        <ele>165.6</ele>
        <time>2021-05-20T15:11:47Z</time>
      </trkpt>
      <trkpt lat="42.2800370" lon="-8.6338090">
        <ele>165.6</ele>
        <time>2021-05-20T15:11:48Z</time>
      </trkpt>
      <trkpt lat="42.2800330" lon="-8.6337930">
        <ele>165.6</ele>
        <time>2021-05-20T15:11:49Z</time>
      </trkpt>
      <trkpt lat="42.2800260" lon="-8.6337810">
        <ele>165.6</ele>
        <time>2021-05-20T15:11:50Z</time>
      </trkpt>
      <trkpt lat="42.2800190" lon="-8.6337700">
        <ele>165.6</ele>
        <time>2021-05-20T15:11:51Z</time>
      </trkpt>
      <trkpt lat="42.2800170" lon="-8.6337500">
        <ele>165.7</ele>
        <time>2021-05-20T15:11:52Z</time>
      </trkpt>
      <trkpt lat="42.2800110" lon="-8.6337350">
        <ele>165.7</ele>
        <time>2021-05-20T15:11:53Z</time>
      </trkpt>
      <trkpt lat="42.2800030" lon="-8.6337190">
        <ele>165.7</ele>
        <time>2021-05-20T15:11:54Z</time>
      </trkpt>
      <trkpt lat="42.2799980" lon="-8.6337100">
        <ele>165.7</ele>
        <time>2021-05-20T15:11:55Z</time>
      </trkpt>
      <trkpt lat="42.2799920" lon="-8.6337010">
        <ele>165.7</ele>
        <time>2021-05-20T15:11:56Z</time>
      </trkpt>
      <trkpt lat="42.2799860" lon="-8.6336920">
        <ele>165.7</ele>
        <time>2021-05-20T15:11:57Z</time>
      </trkpt>
      <trkpt lat="42.2799700" lon="-8.6336670">
        <ele>165.7</ele>
        <time>2021-05-20T15:11:58Z</time>
      </trkpt>
      <trkpt lat="42.2799710" lon="-8.6336520">
        <ele>165.8</ele>
        <time>2021-05-20T15:11:59Z</time>
      </trkpt>
      <trkpt lat="42.2799620" lon="-8.6336340">
        <ele>165.8</ele>
        <time>2021-05-20T15:12:00Z</time>
      </trkpt>
      <trkpt lat="42.2799540" lon="-8.6336200">
        <ele>165.8</ele>
        <time>2021-05-20T15:12:01Z</time>
      </trkpt>
      <trkpt lat="42.2799450" lon="-8.6336050">
        <ele>165.8</ele>
        <time>2021-05-20T15:12:02Z</time>
      </trkpt>
      <trkpt lat="42.2799400" lon="-8.6335830">
        <ele>165.9</ele>
        <time>2021-05-20T15:12:03Z</time>
      </trkpt>
      <trkpt lat="42.2799400" lon="-8.6335650">
        <ele>165.9</ele>
        <time>2021-05-20T15:12:04Z</time>
      </trkpt>
      <trkpt lat="42.2799240" lon="-8.6335250">
        <ele>165.9</ele>
        <time>2021-05-20T15:12:05Z</time>
      </trkpt>
      <trkpt lat="42.2799150" lon="-8.6335170">
        <ele>165.9</ele>
        <time>2021-05-20T15:12:06Z</time>
      </trkpt>
      <trkpt lat="42.2799190" lon="-8.6335030">
        <ele>166.0</ele>
        <time>2021-05-20T15:12:07Z</time>
      </trkpt>
      <trkpt lat="42.2799090" lon="-8.6334730">
        <ele>166.0</ele>
        <time>2021-05-20T15:12:08Z</time>
      </trkpt>
      <trkpt lat="42.2799070" lon="-8.6334620">
        <ele>166.0</ele>
        <time>2021-05-20T15:12:09Z</time>
      </trkpt>
      <trkpt lat="42.2799040" lon="-8.6334500">
        <ele>166.0</ele>
        <time>2021-05-20T15:12:10Z</time>
      </trkpt>
      <trkpt lat="42.2798910" lon="-8.6334250">
        <ele>166.1</ele>
        <time>2021-05-20T15:12:11Z</time>
      </trkpt>
      <trkpt lat="42.2798850" lon="-8.6334160">
        <ele>166.1</ele>
        <time>2021-05-20T15:12:12Z</time>
      </trkpt>
      <trkpt lat="42.2798800" lon="-8.6334060">
        <ele>166.1</ele>
        <time>2021-05-20T15:12:13Z</time>
      </trkpt>
      <trkpt lat="42.2798670" lon="-8.6333890">
        <ele>166.1</ele>
        <time>2021-05-20T15:12:14Z</time>
      </trkpt>
      <trkpt lat="42.2798560" lon="-8.6333790">
        <ele>166.1</ele>
        <time>2021-05-20T15:12:15Z</time>
      </trkpt>
      <trkpt lat="42.2798420" lon="-8.6333620">
        <ele>166.1</ele>
        <time>2021-05-20T15:12:16Z</time>
      </trkpt>
      <trkpt lat="42.2798340" lon="-8.6333530">
        <ele>166.1</ele>
        <time>2021-05-20T15:12:17Z</time>
      </trkpt>
      <trkpt lat="42.2798300" lon="-8.6333360">
        <ele>166.2</ele>
        <time>2021-05-20T15:12:18Z</time>
      </trkpt>
      <trkpt lat="42.2798220" lon="-8.6333170">
        <ele>166.2</ele>
        <time>2021-05-20T15:12:19Z</time>
      </trkpt>
      <trkpt lat="42.2798110" lon="-8.6333050">
        <ele>166.2</ele>
        <time>2021-05-20T15:12:20Z</time>
      </trkpt>
      <trkpt lat="42.2798010" lon="-8.6332940">
        <ele>166.2</ele>
        <time>2021-05-20T15:12:21Z</time>
      </trkpt>
      <trkpt lat="42.2797990" lon="-8.6332830">
        <ele>166.2</ele>
        <time>2021-05-20T15:12:22Z</time>
      </trkpt>
      <trkpt lat="42.2797920" lon="-8.6332620">
        <ele>166.2</ele>
        <time>2021-05-20T15:12:23Z</time>
      </trkpt>
      <trkpt lat="42.2797910" lon="-8.6332530">
        <ele>166.2</ele>
        <time>2021-05-20T15:12:24Z</time>
      </trkpt>
      <trkpt lat="42.2797820" lon="-8.6332380">
        <ele>166.2</ele>
        <time>2021-05-20T15:12:26Z</time>
      </trkpt>
      <trkpt lat="42.2797780" lon="-8.6332290">
        <ele>166.2</ele>
        <time>2021-05-20T15:12:27Z</time>
      </trkpt>
      <trkpt lat="42.2797750" lon="-8.6332150">
        <ele>166.2</ele>
        <time>2021-05-20T15:12:28Z</time>
      </trkpt>
      <trkpt lat="42.2797720" lon="-8.6331980">
        <ele>166.2</ele>
        <time>2021-05-20T15:12:29Z</time>
      </trkpt>
      <trkpt lat="42.2797590" lon="-8.6331770">
        <ele>166.3</ele>
        <time>2021-05-20T15:12:30Z</time>
      </trkpt>
      <trkpt lat="42.2797560" lon="-8.6331650">
        <ele>166.3</ele>
        <time>2021-05-20T15:12:31Z</time>
      </trkpt>
      <trkpt lat="42.2797540" lon="-8.6331540">
        <ele>166.3</ele>
        <time>2021-05-20T15:12:32Z</time>
      </trkpt>
      <trkpt lat="42.2797510" lon="-8.6331430">
        <ele>166.3</ele>
        <time>2021-05-20T15:12:33Z</time>
      </trkpt>
      <trkpt lat="42.2797480" lon="-8.6331270">
        <ele>166.3</ele>
        <time>2021-05-20T15:12:34Z</time>
      </trkpt>
      <trkpt lat="42.2797410" lon="-8.6331180">
        <ele>166.3</ele>
        <time>2021-05-20T15:12:35Z</time>
      </trkpt>
      <trkpt lat="42.2797370" lon="-8.6331150">
        <ele>166.3</ele>
        <time>2021-05-20T15:12:36Z</time>
      </trkpt>
      <trkpt lat="42.2797330" lon="-8.6331040">
        <ele>166.3</ele>
        <time>2021-05-20T15:12:37Z</time>
      </trkpt>
      <trkpt lat="42.2797250" lon="-8.6330890">
        <ele>166.3</ele>
        <time>2021-05-20T15:12:38Z</time>
      </trkpt>
      <trkpt lat="42.2797180" lon="-8.6330710">
        <ele>166.3</ele>
        <time>2021-05-20T15:12:39Z</time>
      </trkpt>
      <trkpt lat="42.2797130" lon="-8.6330570">
        <ele>166.3</ele>
        <time>2021-05-20T15:12:40Z</time>
      </trkpt>
      <trkpt lat="42.2797090" lon="-8.6330400">
        <ele>166.3</ele>
        <time>2021-05-20T15:12:41Z</time>
      </trkpt>
      <trkpt lat="42.2797010" lon="-8.6330280">
        <ele>166.3</ele>
        <time>2021-05-20T15:12:42Z</time>
      </trkpt>
      <trkpt lat="42.2796930" lon="-8.6330040">
        <ele>166.3</ele>
        <time>2021-05-20T15:12:43Z</time>
      </trkpt>
      <trkpt lat="42.2796910" lon="-8.6329950">
        <ele>166.3</ele>
        <time>2021-05-20T15:12:44Z</time>
      </trkpt>
      <trkpt lat="42.2796880" lon="-8.6329850">
        <ele>166.3</ele>
        <time>2021-05-20T15:12:45Z</time>
      </trkpt>
      <trkpt lat="42.2796850" lon="-8.6329760">
        <ele>166.3</ele>
        <time>2021-05-20T15:12:46Z</time>
      </trkpt>
      <trkpt lat="42.2796780" lon="-8.6329560">
        <ele>166.3</ele>
        <time>2021-05-20T15:12:47Z</time>
      </trkpt>
      <trkpt lat="42.2796720" lon="-8.6329430">
        <ele>166.3</ele>
        <time>2021-05-20T15:12:48Z</time>
      </trkpt>
      <trkpt lat="42.2796670" lon="-8.6329310">
        <ele>166.3</ele>
        <time>2021-05-20T15:12:49Z</time>
      </trkpt>
      <trkpt lat="42.2796630" lon="-8.6329120">
        <ele>166.3</ele>
        <time>2021-05-20T15:12:50Z</time>
      </trkpt>
      <trkpt lat="42.2796560" lon="-8.6328960">
        <ele>166.3</ele>
        <time>2021-05-20T15:12:51Z</time>
      </trkpt>
      <trkpt lat="42.2796570" lon="-8.6328880">
        <ele>166.3</ele>
        <time>2021-05-20T15:12:52Z</time>
      </trkpt>
      <trkpt lat="42.2796560" lon="-8.6328810">
        <ele>166.3</ele>
        <time>2021-05-20T15:12:53Z</time>
      </trkpt>
      <trkpt lat="42.2796500" lon="-8.6328660">
        <ele>166.3</ele>
        <time>2021-05-20T15:12:54Z</time>
      </trkpt>
      <trkpt lat="42.2796410" lon="-8.6328570">
        <ele>166.3</ele>
        <time>2021-05-20T15:12:55Z</time>
      </trkpt>
      <trkpt lat="42.2796340" lon="-8.6328470">
        <ele>166.2</ele>
        <time>2021-05-20T15:12:56Z</time>
      </trkpt>
      <trkpt lat="42.2796280" lon="-8.6328410">
        <ele>166.2</ele>
        <time>2021-05-20T15:12:57Z</time>
      </trkpt>
      <trkpt lat="42.2796220" lon="-8.6328360">
        <ele>166.2</ele>
        <time>2021-05-20T15:12:58Z</time>
      </trkpt>
      <trkpt lat="42.2796210" lon="-8.6328170">
        <ele>166.2</ele>
        <time>2021-05-20T15:12:59Z</time>
      </trkpt>
      <trkpt lat="42.2796130" lon="-8.6327970">
        <ele>166.2</ele>
        <time>2021-05-20T15:13:00Z</time>
      </trkpt>
      <trkpt lat="42.2796070" lon="-8.6327850">
        <ele>166.2</ele>
        <time>2021-05-20T15:13:01Z</time>
      </trkpt>
      <trkpt lat="42.2796010" lon="-8.6327720">
        <ele>166.2</ele>
        <time>2021-05-20T15:13:02Z</time>
      </trkpt>
      <trkpt lat="42.2795960" lon="-8.6327470">
        <ele>166.2</ele>
        <time>2021-05-20T15:13:03Z</time>
      </trkpt>
      <trkpt lat="42.2795970" lon="-8.6327380">
        <ele>166.2</ele>
        <time>2021-05-20T15:13:04Z</time>
      </trkpt>
      <trkpt lat="42.2795970" lon="-8.6327280">
        <ele>166.2</ele>
        <time>2021-05-20T15:13:05Z</time>
      </trkpt>
      <trkpt lat="42.2795980" lon="-8.6327180">
        <ele>166.2</ele>
        <time>2021-05-20T15:13:06Z</time>
      </trkpt>
      <trkpt lat="42.2795800" lon="-8.6326830">
        <ele>166.2</ele>
        <time>2021-05-20T15:13:07Z</time>
      </trkpt>
      <trkpt lat="42.2795700" lon="-8.6326690">
        <ele>166.2</ele>
        <time>2021-05-20T15:13:08Z</time>
      </trkpt>
      <trkpt lat="42.2795490" lon="-8.6326390">
        <ele>166.2</ele>
        <time>2021-05-20T15:13:09Z</time>
      </trkpt>
      <trkpt lat="42.2795420" lon="-8.6326270">
        <ele>166.2</ele>
        <time>2021-05-20T15:13:10Z</time>
      </trkpt>
      <trkpt lat="42.2795220" lon="-8.6325930">
        <ele>166.2</ele>
        <time>2021-05-20T15:13:11Z</time>
      </trkpt>
      <trkpt lat="42.2795160" lon="-8.6325790">
        <ele>166.2</ele>
        <time>2021-05-20T15:13:12Z</time>
      </trkpt>
      <trkpt lat="42.2795170" lon="-8.6325630">
        <ele>166.2</ele>
        <time>2021-05-20T15:13:13Z</time>
      </trkpt>
      <trkpt lat="42.2795160" lon="-8.6325540">
        <ele>166.2</ele>
        <time>2021-05-20T15:13:14Z</time>
      </trkpt>
      <trkpt lat="42.2795240" lon="-8.6325420">
        <ele>166.2</ele>
        <time>2021-05-20T15:13:15Z</time>
      </trkpt>
      <trkpt lat="42.2795420" lon="-8.6325340">
        <ele>166.2</ele>
        <time>2021-05-20T15:13:16Z</time>
      </trkpt>
      <trkpt lat="42.2795420" lon="-8.6325180">
        <ele>166.2</ele>
        <time>2021-05-20T15:13:17Z</time>
      </trkpt>
      <trkpt lat="42.2795410" lon="-8.6325090">
        <ele>166.2</ele>
        <time>2021-05-20T15:13:18Z</time>
      </trkpt>
      <trkpt lat="42.2795430" lon="-8.6325120">
        <ele>166.2</ele>
        <time>2021-05-20T15:13:19Z</time>
      </trkpt>
      <trkpt lat="42.2795420" lon="-8.6325040">
        <ele>166.2</ele>
        <time>2021-05-20T15:13:20Z</time>
      </trkpt>
      <trkpt lat="42.2795380" lon="-8.6324980">
        <ele>166.2</ele>
        <time>2021-05-20T15:13:21Z</time>
      </trkpt>
      <trkpt lat="42.2795310" lon="-8.6324660">
        <ele>166.1</ele>
        <time>2021-05-20T15:13:22Z</time>
      </trkpt>
      <trkpt lat="42.2795340" lon="-8.6324420">
        <ele>166.1</ele>
        <time>2021-05-20T15:13:23Z</time>
      </trkpt>
      <trkpt lat="42.2795340" lon="-8.6324190">
        <ele>166.1</ele>
        <time>2021-05-20T15:13:24Z</time>
      </trkpt>
      <trkpt lat="42.2795310" lon="-8.6323980">
        <ele>166.1</ele>
        <time>2021-05-20T15:13:25Z</time>
      </trkpt>
      <trkpt lat="42.2795290" lon="-8.6323820">
        <ele>166.1</ele>
        <time>2021-05-20T15:13:26Z</time>
      </trkpt>
      <trkpt lat="42.2795250" lon="-8.6323580">
        <ele>166.1</ele>
        <time>2021-05-20T15:13:27Z</time>
      </trkpt>
      <trkpt lat="42.2795220" lon="-8.6323370">
        <ele>166.1</ele>
        <time>2021-05-20T15:13:28Z</time>
      </trkpt>
      <trkpt lat="42.2795180" lon="-8.6323050">
        <ele>166.1</ele>
        <time>2021-05-20T15:13:29Z</time>
      </trkpt>
      <trkpt lat="42.2795150" lon="-8.6322920">
        <ele>166.1</ele>
        <time>2021-05-20T15:13:30Z</time>
      </trkpt>
      <trkpt lat="42.2795120" lon="-8.6322800">
        <ele>166.0</ele>
        <time>2021-05-20T15:13:31Z</time>
      </trkpt>
      <trkpt lat="42.2795110" lon="-8.6322420">
        <ele>166.0</ele>
        <time>2021-05-20T15:13:32Z</time>
      </trkpt>
      <trkpt lat="42.2795090" lon="-8.6322260">
        <ele>166.0</ele>
        <time>2021-05-20T15:13:33Z</time>
      </trkpt>
      <trkpt lat="42.2795030" lon="-8.6322200">
        <ele>166.0</ele>
        <time>2021-05-20T15:13:34Z</time>
      </trkpt>
      <trkpt lat="42.2794990" lon="-8.6322020">
        <ele>166.0</ele>
        <time>2021-05-20T15:13:35Z</time>
      </trkpt>
      <trkpt lat="42.2794950" lon="-8.6321920">
        <ele>166.0</ele>
        <time>2021-05-20T15:13:36Z</time>
      </trkpt>
      <trkpt lat="42.2794870" lon="-8.6321710">
        <ele>166.0</ele>
        <time>2021-05-20T15:13:37Z</time>
      </trkpt>
      <trkpt lat="42.2794840" lon="-8.6321590">
        <ele>166.0</ele>
        <time>2021-05-20T15:13:38Z</time>
      </trkpt>
      <trkpt lat="42.2794850" lon="-8.6321480">
        <ele>166.0</ele>
        <time>2021-05-20T15:13:39Z</time>
      </trkpt>
      <trkpt lat="42.2794770" lon="-8.6321170">
        <ele>165.9</ele>
        <time>2021-05-20T15:13:40Z</time>
      </trkpt>
      <trkpt lat="42.2794730" lon="-8.6321020">
        <ele>165.9</ele>
        <time>2021-05-20T15:13:41Z</time>
      </trkpt>
      <trkpt lat="42.2794700" lon="-8.6320860">
        <ele>165.9</ele>
        <time>2021-05-20T15:13:42Z</time>
      </trkpt>
      <trkpt lat="42.2794640" lon="-8.6320680">
        <ele>165.9</ele>
        <time>2021-05-20T15:13:43Z</time>
      </trkpt>
      <trkpt lat="42.2794600" lon="-8.6320520">
        <ele>165.9</ele>
        <time>2021-05-20T15:13:44Z</time>
      </trkpt>
      <trkpt lat="42.2794570" lon="-8.6320210">
        <ele>165.9</ele>
        <time>2021-05-20T15:13:45Z</time>
      </trkpt>
      <trkpt lat="42.2794570" lon="-8.6320120">
        <ele>165.9</ele>
        <time>2021-05-20T15:13:46Z</time>
      </trkpt>
      <trkpt lat="42.2794560" lon="-8.6320020">
        <ele>165.9</ele>
        <time>2021-05-20T15:13:47Z</time>
      </trkpt>
      <trkpt lat="42.2794480" lon="-8.6319880">
        <ele>165.9</ele>
        <time>2021-05-20T15:13:48Z</time>
      </trkpt>
      <trkpt lat="42.2794420" lon="-8.6319660">
        <ele>165.9</ele>
        <time>2021-05-20T15:13:49Z</time>
      </trkpt>
      <trkpt lat="42.2794410" lon="-8.6319460">
        <ele>165.9</ele>
        <time>2021-05-20T15:13:50Z</time>
      </trkpt>
      <trkpt lat="42.2794440" lon="-8.6319380">
        <ele>165.8</ele>
        <time>2021-05-20T15:13:51Z</time>
      </trkpt>
      <trkpt lat="42.2794450" lon="-8.6319250">
        <ele>165.8</ele>
        <time>2021-05-20T15:13:52Z</time>
      </trkpt>
      <trkpt lat="42.2794390" lon="-8.6319130">
        <ele>165.8</ele>
        <time>2021-05-20T15:13:53Z</time>
      </trkpt>
      <trkpt lat="42.2794390" lon="-8.6319070">
        <ele>165.8</ele>
        <time>2021-05-20T15:13:54Z</time>
      </trkpt>
      <trkpt lat="42.2794350" lon="-8.6318930">
        <ele>165.8</ele>
        <time>2021-05-20T15:13:55Z</time>
      </trkpt>
      <trkpt lat="42.2794330" lon="-8.6318810">
        <ele>165.8</ele>
        <time>2021-05-20T15:13:56Z</time>
      </trkpt>
      <trkpt lat="42.2794280" lon="-8.6318670">
        <ele>165.8</ele>
        <time>2021-05-20T15:13:57Z</time>
      </trkpt>
      <trkpt lat="42.2794220" lon="-8.6318590">
        <ele>165.8</ele>
        <time>2021-05-20T15:13:58Z</time>
      </trkpt>
      <trkpt lat="42.2794130" lon="-8.6318430">
        <ele>165.8</ele>
        <time>2021-05-20T15:13:59Z</time>
      </trkpt>
      <trkpt lat="42.2794020" lon="-8.6318300">
        <ele>165.8</ele>
        <time>2021-05-20T15:14:00Z</time>
      </trkpt>
      <trkpt lat="42.2793930" lon="-8.6318130">
        <ele>165.8</ele>
        <time>2021-05-20T15:14:01Z</time>
      </trkpt>
      <trkpt lat="42.2793870" lon="-8.6317930">
        <ele>165.8</ele>
        <time>2021-05-20T15:14:02Z</time>
      </trkpt>
      <trkpt lat="42.2793870" lon="-8.6317700">
        <ele>165.8</ele>
        <time>2021-05-20T15:14:03Z</time>
      </trkpt>
      <trkpt lat="42.2793790" lon="-8.6317600">
        <ele>165.8</ele>
        <time>2021-05-20T15:14:04Z</time>
      </trkpt>
      <trkpt lat="42.2793760" lon="-8.6317460">
        <ele>165.8</ele>
        <time>2021-05-20T15:14:05Z</time>
      </trkpt>
      <trkpt lat="42.2793650" lon="-8.6317330">
        <ele>165.7</ele>
        <time>2021-05-20T15:14:06Z</time>
      </trkpt>
      <trkpt lat="42.2793510" lon="-8.6317200">
        <ele>165.7</ele>
        <time>2021-05-20T15:14:07Z</time>
      </trkpt>
      <trkpt lat="42.2793420" lon="-8.6317130">
        <ele>165.7</ele>
        <time>2021-05-20T15:14:08Z</time>
      </trkpt>
      <trkpt lat="42.2793340" lon="-8.6317050">
        <ele>165.7</ele>
        <time>2021-05-20T15:14:09Z</time>
      </trkpt>
      <trkpt lat="42.2793250" lon="-8.6316920">
        <ele>165.7</ele>
        <time>2021-05-20T15:14:10Z</time>
      </trkpt>
      <trkpt lat="42.2793220" lon="-8.6316850">
        <ele>165.7</ele>
        <time>2021-05-20T15:14:11Z</time>
      </trkpt>
      <trkpt lat="42.2793150" lon="-8.6316720">
        <ele>165.7</ele>
        <time>2021-05-20T15:14:12Z</time>
      </trkpt>
      <trkpt lat="42.2792960" lon="-8.6316500">
        <ele>165.7</ele>
        <time>2021-05-20T15:14:13Z</time>
      </trkpt>
      <trkpt lat="42.2792840" lon="-8.6316410">
        <ele>165.7</ele>
        <time>2021-05-20T15:14:14Z</time>
      </trkpt>
      <trkpt lat="42.2792760" lon="-8.6316300">
        <ele>165.7</ele>
        <time>2021-05-20T15:14:15Z</time>
      </trkpt>
      <trkpt lat="42.2792620" lon="-8.6316080">
        <ele>165.7</ele>
        <time>2021-05-20T15:14:16Z</time>
      </trkpt>
      <trkpt lat="42.2792450" lon="-8.6315840">
        <ele>165.7</ele>
        <time>2021-05-20T15:14:17Z</time>
      </trkpt>
      <trkpt lat="42.2792380" lon="-8.6315770">
        <ele>165.7</ele>
        <time>2021-05-20T15:14:18Z</time>
      </trkpt>
      <trkpt lat="42.2792320" lon="-8.6315710">
        <ele>165.7</ele>
        <time>2021-05-20T15:14:19Z</time>
      </trkpt>
      <trkpt lat="42.2792290" lon="-8.6315640">
        <ele>165.7</ele>
        <time>2021-05-20T15:14:20Z</time>
      </trkpt>
      <trkpt lat="42.2792210" lon="-8.6315580">
        <ele>165.7</ele>
        <time>2021-05-20T15:14:21Z</time>
      </trkpt>
      <trkpt lat="42.2792160" lon="-8.6315510">
        <ele>165.7</ele>
        <time>2021-05-20T15:14:22Z</time>
      </trkpt>
      <trkpt lat="42.2792080" lon="-8.6315420">
        <ele>165.7</ele>
        <time>2021-05-20T15:14:23Z</time>
      </trkpt>
      <trkpt lat="42.2792010" lon="-8.6315320">
        <ele>165.7</ele>
        <time>2021-05-20T15:14:24Z</time>
      </trkpt>
      <trkpt lat="42.2791930" lon="-8.6315220">
        <ele>165.7</ele>
        <time>2021-05-20T15:14:25Z</time>
      </trkpt>
      <trkpt lat="42.2791850" lon="-8.6315080">
        <ele>165.7</ele>
        <time>2021-05-20T15:14:26Z</time>
      </trkpt>
      <trkpt lat="42.2791710" lon="-8.6314950">
        <ele>165.7</ele>
        <time>2021-05-20T15:14:27Z</time>
      </trkpt>
      <trkpt lat="42.2791610" lon="-8.6314770">
        <ele>165.7</ele>
        <time>2021-05-20T15:14:28Z</time>
      </trkpt>
      <trkpt lat="42.2791500" lon="-8.6314620">
        <ele>165.7</ele>
        <time>2021-05-20T15:14:29Z</time>
      </trkpt>
      <trkpt lat="42.2791350" lon="-8.6314500">
        <ele>165.7</ele>
        <time>2021-05-20T15:14:30Z</time>
      </trkpt>
      <trkpt lat="42.2791210" lon="-8.6314400">
        <ele>165.7</ele>
        <time>2021-05-20T15:14:31Z</time>
      </trkpt>
      <trkpt lat="42.2791160" lon="-8.6314220">
        <ele>165.7</ele>
        <time>2021-05-20T15:14:32Z</time>
      </trkpt>
      <trkpt lat="42.2791020" lon="-8.6314020">
        <ele>165.8</ele>
        <time>2021-05-20T15:14:33Z</time>
      </trkpt>
      <trkpt lat="42.2790960" lon="-8.6313920">
        <ele>165.8</ele>
        <time>2021-05-20T15:14:34Z</time>
      </trkpt>
      <trkpt lat="42.2790910" lon="-8.6313830">
        <ele>165.8</ele>
        <time>2021-05-20T15:14:35Z</time>
      </trkpt>
      <trkpt lat="42.2790810" lon="-8.6313680">
        <ele>165.8</ele>
        <time>2021-05-20T15:14:36Z</time>
      </trkpt>
      <trkpt lat="42.2790730" lon="-8.6313580">
        <ele>165.8</ele>
        <time>2021-05-20T15:14:37Z</time>
      </trkpt>
      <trkpt lat="42.2790680" lon="-8.6313470">
        <ele>165.8</ele>
        <time>2021-05-20T15:14:38Z</time>
      </trkpt>
      <trkpt lat="42.2790600" lon="-8.6313310">
        <ele>165.8</ele>
        <time>2021-05-20T15:14:39Z</time>
      </trkpt>
      <trkpt lat="42.2790550" lon="-8.6313240">
        <ele>165.8</ele>
        <time>2021-05-20T15:14:40Z</time>
      </trkpt>
      <trkpt lat="42.2790490" lon="-8.6313160">
        <ele>165.8</ele>
        <time>2021-05-20T15:14:41Z</time>
      </trkpt>
      <trkpt lat="42.2790440" lon="-8.6313090">
        <ele>165.9</ele>
        <time>2021-05-20T15:14:42Z</time>
      </trkpt>
      <trkpt lat="42.2790390" lon="-8.6313010">
        <ele>165.9</ele>
        <time>2021-05-20T15:14:43Z</time>
      </trkpt>
      <trkpt lat="42.2790280" lon="-8.6312830">
        <ele>165.9</ele>
        <time>2021-05-20T15:14:44Z</time>
      </trkpt>
      <trkpt lat="42.2790170" lon="-8.6312770">
        <ele>165.9</ele>
        <time>2021-05-20T15:14:45Z</time>
      </trkpt>
      <trkpt lat="42.2790050" lon="-8.6312710">
        <ele>165.9</ele>
        <time>2021-05-20T15:14:46Z</time>
      </trkpt>
      <trkpt lat="42.2789930" lon="-8.6312550">
        <ele>166.0</ele>
        <time>2021-05-20T15:14:47Z</time>
      </trkpt>
      <trkpt lat="42.2789870" lon="-8.6312440">
        <ele>166.0</ele>
        <time>2021-05-20T15:14:48Z</time>
      </trkpt>
      <trkpt lat="42.2789810" lon="-8.6312320">
        <ele>166.0</ele>
        <time>2021-05-20T15:14:49Z</time>
      </trkpt>
      <trkpt lat="42.2789750" lon="-8.6312210">
        <ele>166.0</ele>
        <time>2021-05-20T15:14:50Z</time>
      </trkpt>
      <trkpt lat="42.2789770" lon="-8.6312140">
        <ele>166.0</ele>
        <time>2021-05-20T15:14:51Z</time>
      </trkpt>
      <trkpt lat="42.2789640" lon="-8.6312020">
        <ele>166.1</ele>
        <time>2021-05-20T15:14:52Z</time>
      </trkpt>
      <trkpt lat="42.2789570" lon="-8.6311810">
        <ele>166.1</ele>
        <time>2021-05-20T15:14:53Z</time>
      </trkpt>
      <trkpt lat="42.2789480" lon="-8.6311570">
        <ele>166.1</ele>
        <time>2021-05-20T15:14:54Z</time>
      </trkpt>
      <trkpt lat="42.2789360" lon="-8.6311410">
        <ele>166.1</ele>
        <time>2021-05-20T15:14:55Z</time>
      </trkpt>
      <trkpt lat="42.2789300" lon="-8.6311240">
        <ele>166.2</ele>
        <time>2021-05-20T15:14:56Z</time>
      </trkpt>
      <trkpt lat="42.2789290" lon="-8.6311130">
        <ele>166.2</ele>
        <time>2021-05-20T15:14:57Z</time>
      </trkpt>
      <trkpt lat="42.2789210" lon="-8.6310970">
        <ele>166.2</ele>
        <time>2021-05-20T15:14:58Z</time>
      </trkpt>
      <trkpt lat="42.2789240" lon="-8.6310890">
        <ele>166.2</ele>
        <time>2021-05-20T15:14:59Z</time>
      </trkpt>
      <trkpt lat="42.2789180" lon="-8.6310730">
        <ele>166.2</ele>
        <time>2021-05-20T15:15:00Z</time>
      </trkpt>
      <trkpt lat="42.2789180" lon="-8.6310670">
        <ele>166.3</ele>
        <time>2021-05-20T15:15:01Z</time>
      </trkpt>
      <trkpt lat="42.2789160" lon="-8.6310570">
        <ele>166.3</ele>
        <time>2021-05-20T15:15:02Z</time>
      </trkpt>
      <trkpt lat="42.2789160" lon="-8.6310390">
        <ele>166.3</ele>
        <time>2021-05-20T15:15:03Z</time>
      </trkpt>
      <trkpt lat="42.2789130" lon="-8.6310180">
        <ele>166.3</ele>
        <time>2021-05-20T15:15:04Z</time>
      </trkpt>
      <trkpt lat="42.2789210" lon="-8.6309980">
        <ele>166.3</ele>
        <time>2021-05-20T15:15:05Z</time>
      </trkpt>
      <trkpt lat="42.2789170" lon="-8.6309740">
        <ele>166.3</ele>
        <time>2021-05-20T15:15:06Z</time>
      </trkpt>
      <trkpt lat="42.2789150" lon="-8.6309550">
        <ele>166.4</ele>
        <time>2021-05-20T15:15:07Z</time>
      </trkpt>
      <trkpt lat="42.2789060" lon="-8.6309360">
        <ele>166.4</ele>
        <time>2021-05-20T15:15:08Z</time>
      </trkpt>
      <trkpt lat="42.2789000" lon="-8.6309150">
        <ele>166.4</ele>
        <time>2021-05-20T15:15:09Z</time>
      </trkpt>
      <trkpt lat="42.2789000" lon="-8.6309060">
        <ele>166.4</ele>
        <time>2021-05-20T15:15:10Z</time>
      </trkpt>
      <trkpt lat="42.2788990" lon="-8.6308960">
        <ele>166.4</ele>
        <time>2021-05-20T15:15:11Z</time>
      </trkpt>
      <trkpt lat="42.2788980" lon="-8.6308870">
        <ele>166.4</ele>
        <time>2021-05-20T15:15:12Z</time>
      </trkpt>
      <trkpt lat="42.2789020" lon="-8.6308780">
        <ele>166.4</ele>
        <time>2021-05-20T15:15:13Z</time>
      </trkpt>
      <trkpt lat="42.2789000" lon="-8.6308650">
        <ele>166.4</ele>
        <time>2021-05-20T15:15:14Z</time>
      </trkpt>
      <trkpt lat="42.2788930" lon="-8.6308550">
        <ele>166.4</ele>
        <time>2021-05-20T15:15:15Z</time>
      </trkpt>
      <trkpt lat="42.2788950" lon="-8.6308450">
        <ele>166.4</ele>
        <time>2021-05-20T15:15:16Z</time>
      </trkpt>
      <trkpt lat="42.2788850" lon="-8.6308110">
        <ele>166.4</ele>
        <time>2021-05-20T15:15:17Z</time>
      </trkpt>
      <trkpt lat="42.2788780" lon="-8.6307960">
        <ele>166.5</ele>
        <time>2021-05-20T15:15:18Z</time>
      </trkpt>
      <trkpt lat="42.2788750" lon="-8.6307680">
        <ele>166.5</ele>
        <time>2021-05-20T15:15:19Z</time>
      </trkpt>
      <trkpt lat="42.2788740" lon="-8.6307550">
        <ele>166.5</ele>
        <time>2021-05-20T15:15:20Z</time>
      </trkpt>
      <trkpt lat="42.2788730" lon="-8.6307430">
        <ele>166.5</ele>
        <time>2021-05-20T15:15:21Z</time>
      </trkpt>
      <trkpt lat="42.2788700" lon="-8.6307260">
        <ele>166.5</ele>
        <time>2021-05-20T15:15:22Z</time>
      </trkpt>
      <trkpt lat="42.2788670" lon="-8.6307020">
        <ele>166.5</ele>
        <time>2021-05-20T15:15:23Z</time>
      </trkpt>
      <trkpt lat="42.2788660" lon="-8.6306880">
        <ele>166.5</ele>
        <time>2021-05-20T15:15:24Z</time>
      </trkpt>
      <trkpt lat="42.2788690" lon="-8.6306780">
        <ele>166.5</ele>
        <time>2021-05-20T15:15:25Z</time>
      </trkpt>
      <trkpt lat="42.2788670" lon="-8.6306630">
        <ele>166.5</ele>
        <time>2021-05-20T15:15:26Z</time>
      </trkpt>
      <trkpt lat="42.2788630" lon="-8.6306350">
        <ele>166.6</ele>
        <time>2021-05-20T15:15:27Z</time>
      </trkpt>
      <trkpt lat="42.2788610" lon="-8.6306210">
        <ele>166.6</ele>
        <time>2021-05-20T15:15:28Z</time>
      </trkpt>
      <trkpt lat="42.2788590" lon="-8.6306080">
        <ele>166.6</ele>
        <time>2021-05-20T15:15:29Z</time>
      </trkpt>
      <trkpt lat="42.2788600" lon="-8.6305920">
        <ele>166.6</ele>
        <time>2021-05-20T15:15:30Z</time>
      </trkpt>
      <trkpt lat="42.2788620" lon="-8.6305750">
        <ele>166.6</ele>
        <time>2021-05-20T15:15:31Z</time>
      </trkpt>
      <trkpt lat="42.2788600" lon="-8.6305600">
        <ele>166.6</ele>
        <time>2021-05-20T15:15:32Z</time>
      </trkpt>
      <trkpt lat="42.2788560" lon="-8.6305330">
        <ele>166.6</ele>
        <time>2021-05-20T15:15:33Z</time>
      </trkpt>
      <trkpt lat="42.2788520" lon="-8.6305180">
        <ele>166.7</ele>
        <time>2021-05-20T15:15:34Z</time>
      </trkpt>
      <trkpt lat="42.2788490" lon="-8.6305040">
        <ele>166.7</ele>
        <time>2021-05-20T15:15:35Z</time>
      </trkpt>
      <trkpt lat="42.2788490" lon="-8.6304890">
        <ele>166.7</ele>
        <time>2021-05-20T15:15:36Z</time>
      </trkpt>
      <trkpt lat="42.2788440" lon="-8.6304730">
        <ele>166.7</ele>
        <time>2021-05-20T15:15:37Z</time>
      </trkpt>
      <trkpt lat="42.2788400" lon="-8.6304620">
        <ele>166.7</ele>
        <time>2021-05-20T15:15:38Z</time>
      </trkpt>
      <trkpt lat="42.2788350" lon="-8.6304440">
        <ele>166.7</ele>
        <time>2021-05-20T15:15:39Z</time>
      </trkpt>
      <trkpt lat="42.2788330" lon="-8.6304260">
        <ele>166.7</ele>
        <time>2021-05-20T15:15:40Z</time>
      </trkpt>
      <trkpt lat="42.2788360" lon="-8.6304120">
        <ele>166.7</ele>
        <time>2021-05-20T15:15:41Z</time>
      </trkpt>
      <trkpt lat="42.2788320" lon="-8.6303940">
        <ele>166.8</ele>
        <time>2021-05-20T15:15:42Z</time>
      </trkpt>
      <trkpt lat="42.2788290" lon="-8.6303840">
        <ele>166.8</ele>
        <time>2021-05-20T15:15:43Z</time>
      </trkpt>
      <trkpt lat="42.2788220" lon="-8.6303650">
        <ele>166.8</ele>
        <time>2021-05-20T15:15:44Z</time>
      </trkpt>
      <trkpt lat="42.2788200" lon="-8.6303530">
        <ele>166.8</ele>
        <time>2021-05-20T15:15:45Z</time>
      </trkpt>
      <trkpt lat="42.2788200" lon="-8.6303430">
        <ele>166.8</ele>
        <time>2021-05-20T15:15:46Z</time>
      </trkpt>
      <trkpt lat="42.2788250" lon="-8.6303130">
        <ele>166.8</ele>
        <time>2021-05-20T15:15:47Z</time>
      </trkpt>
      <trkpt lat="42.2788210" lon="-8.6303040">
        <ele>166.8</ele>
        <time>2021-05-20T15:15:48Z</time>
      </trkpt>
      <trkpt lat="42.2788150" lon="-8.6302980">
        <ele>166.8</ele>
        <time>2021-05-20T15:15:49Z</time>
      </trkpt>
      <trkpt lat="42.2788050" lon="-8.6302810">
        <ele>166.9</ele>
        <time>2021-05-20T15:15:50Z</time>
      </trkpt>
      <trkpt lat="42.2787970" lon="-8.6302750">
        <ele>166.9</ele>
        <time>2021-05-20T15:15:51Z</time>
      </trkpt>
      <trkpt lat="42.2787910" lon="-8.6302690">
        <ele>166.9</ele>
        <time>2021-05-20T15:15:52Z</time>
      </trkpt>
      <trkpt lat="42.2787830" lon="-8.6302540">
        <ele>166.9</ele>
        <time>2021-05-20T15:15:53Z</time>
      </trkpt>
      <trkpt lat="42.2787790" lon="-8.6302440">
        <ele>166.9</ele>
        <time>2021-05-20T15:15:54Z</time>
      </trkpt>
      <trkpt lat="42.2787700" lon="-8.6302330">
        <ele>166.9</ele>
        <time>2021-05-20T15:15:55Z</time>
      </trkpt>
      <trkpt lat="42.2787620" lon="-8.6302310">
        <ele>166.9</ele>
        <time>2021-05-20T15:15:56Z</time>
      </trkpt>
      <trkpt lat="42.2787570" lon="-8.6302120">
        <ele>166.9</ele>
        <time>2021-05-20T15:15:57Z</time>
      </trkpt>
      <trkpt lat="42.2787550" lon="-8.6302150">
        <ele>166.9</ele>
        <time>2021-05-20T15:15:58Z</time>
      </trkpt>
      <trkpt lat="42.2787490" lon="-8.6302020">
        <ele>166.9</ele>
        <time>2021-05-20T15:15:59Z</time>
      </trkpt>
      <trkpt lat="42.2787430" lon="-8.6301860">
        <ele>166.9</ele>
        <time>2021-05-20T15:16:00Z</time>
      </trkpt>
      <trkpt lat="42.2787350" lon="-8.6301790">
        <ele>166.9</ele>
        <time>2021-05-20T15:16:01Z</time>
      </trkpt>
      <trkpt lat="42.2787270" lon="-8.6301670">
        <ele>166.9</ele>
        <time>2021-05-20T15:16:02Z</time>
      </trkpt>
      <trkpt lat="42.2787230" lon="-8.6301520">
        <ele>167.0</ele>
        <time>2021-05-20T15:16:03Z</time>
      </trkpt>
      <trkpt lat="42.2787230" lon="-8.6301440">
        <ele>167.0</ele>
        <time>2021-05-20T15:16:04Z</time>
      </trkpt>
      <trkpt lat="42.2787120" lon="-8.6301250">
        <ele>167.0</ele>
        <time>2021-05-20T15:16:05Z</time>
      </trkpt>
      <trkpt lat="42.2787060" lon="-8.6301110">
        <ele>167.0</ele>
        <time>2021-05-20T15:16:06Z</time>
      </trkpt>
      <trkpt lat="42.2787020" lon="-8.6301110">
        <ele>167.0</ele>
        <time>2021-05-20T15:16:07Z</time>
      </trkpt>
      <trkpt lat="42.2787010" lon="-8.6301070">
        <ele>167.0</ele>
        <time>2021-05-20T15:16:08Z</time>
      </trkpt>
      <trkpt lat="42.2787020" lon="-8.6300980">
        <ele>167.0</ele>
        <time>2021-05-20T15:16:09Z</time>
      </trkpt>
      <trkpt lat="42.2786990" lon="-8.6301010">
        <ele>167.0</ele>
        <time>2021-05-20T15:16:10Z</time>
      </trkpt>
      <trkpt lat="42.2786960" lon="-8.6300940">
        <ele>167.0</ele>
        <time>2021-05-20T15:16:11Z</time>
      </trkpt>
      <trkpt lat="42.2786900" lon="-8.6300870">
        <ele>167.0</ele>
        <time>2021-05-20T15:16:12Z</time>
      </trkpt>
      <trkpt lat="42.2786880" lon="-8.6300840">
        <ele>167.0</ele>
        <time>2021-05-20T15:16:13Z</time>
      </trkpt>
      <trkpt lat="42.2786910" lon="-8.6300830">
        <ele>167.0</ele>
        <time>2021-05-20T15:16:14Z</time>
      </trkpt>
      <trkpt lat="42.2786820" lon="-8.6300750">
        <ele>167.0</ele>
        <time>2021-05-20T15:16:15Z</time>
      </trkpt>
      <trkpt lat="42.2786740" lon="-8.6300700">
        <ele>167.0</ele>
        <time>2021-05-20T15:16:16Z</time>
      </trkpt>
      <trkpt lat="42.2786660" lon="-8.6300710">
        <ele>167.0</ele>
        <time>2021-05-20T15:16:17Z</time>
      </trkpt>
      <trkpt lat="42.2786610" lon="-8.6300720">
        <ele>167.0</ele>
        <time>2021-05-20T15:16:18Z</time>
      </trkpt>
      <trkpt lat="42.2786570" lon="-8.6300620">
        <ele>167.0</ele>
        <time>2021-05-20T15:16:19Z</time>
      </trkpt>
      <trkpt lat="42.2786460" lon="-8.6300490">
        <ele>167.0</ele>
        <time>2021-05-20T15:16:20Z</time>
      </trkpt>
      <trkpt lat="42.2786400" lon="-8.6300430">
        <ele>167.0</ele>
        <time>2021-05-20T15:16:21Z</time>
      </trkpt>
      <trkpt lat="42.2786260" lon="-8.6300350">
        <ele>167.0</ele>
        <time>2021-05-20T15:16:22Z</time>
      </trkpt>
      <trkpt lat="42.2786240" lon="-8.6300280">
        <ele>167.0</ele>
        <time>2021-05-20T15:16:23Z</time>
      </trkpt>
      <trkpt lat="42.2786130" lon="-8.6300170">
        <ele>167.0</ele>
        <time>2021-05-20T15:16:24Z</time>
      </trkpt>
      <trkpt lat="42.2786020" lon="-8.6300080">
        <ele>167.0</ele>
        <time>2021-05-20T15:16:25Z</time>
      </trkpt>
      <trkpt lat="42.2785960" lon="-8.6300050">
        <ele>167.0</ele>
        <time>2021-05-20T15:16:26Z</time>
      </trkpt>
      <trkpt lat="42.2785900" lon="-8.6299970">
        <ele>167.0</ele>
        <time>2021-05-20T15:16:27Z</time>
      </trkpt>
      <trkpt lat="42.2785840" lon="-8.6299710">
        <ele>167.0</ele>
        <time>2021-05-20T15:16:28Z</time>
      </trkpt>
      <trkpt lat="42.2785780" lon="-8.6299610">
        <ele>167.0</ele>
        <time>2021-05-20T15:16:29Z</time>
      </trkpt>
      <trkpt lat="42.2785720" lon="-8.6299500">
        <ele>167.0</ele>
        <time>2021-05-20T15:16:30Z</time>
      </trkpt>
      <trkpt lat="42.2785620" lon="-8.6299310">
        <ele>167.0</ele>
        <time>2021-05-20T15:16:31Z</time>
      </trkpt>
      <trkpt lat="42.2785480" lon="-8.6299280">
        <ele>167.0</ele>
        <time>2021-05-20T15:16:32Z</time>
      </trkpt>
      <trkpt lat="42.2785430" lon="-8.6299170">
        <ele>167.0</ele>
        <time>2021-05-20T15:16:33Z</time>
      </trkpt>
      <trkpt lat="42.2785380" lon="-8.6299060">
        <ele>167.0</ele>
        <time>2021-05-20T15:16:34Z</time>
      </trkpt>
      <trkpt lat="42.2785350" lon="-8.6298970">
        <ele>167.0</ele>
        <time>2021-05-20T15:16:35Z</time>
      </trkpt>
      <trkpt lat="42.2785330" lon="-8.6298910">
        <ele>167.0</ele>
        <time>2021-05-20T15:16:36Z</time>
      </trkpt>
      <trkpt lat="42.2785220" lon="-8.6298780">
        <ele>167.0</ele>
        <time>2021-05-20T15:16:37Z</time>
      </trkpt>
      <trkpt lat="42.2785140" lon="-8.6298740">
        <ele>167.0</ele>
        <time>2021-05-20T15:16:38Z</time>
      </trkpt>
      <trkpt lat="42.2785070" lon="-8.6298710">
        <ele>167.0</ele>
        <time>2021-05-20T15:16:39Z</time>
      </trkpt>
      <trkpt lat="42.2784990" lon="-8.6298670">
        <ele>167.0</ele>
        <time>2021-05-20T15:16:40Z</time>
      </trkpt>
      <trkpt lat="42.2784970" lon="-8.6298600">
        <ele>167.0</ele>
        <time>2021-05-20T15:16:41Z</time>
      </trkpt>
      <trkpt lat="42.2784950" lon="-8.6298460">
        <ele>167.1</ele>
        <time>2021-05-20T15:16:42Z</time>
      </trkpt>
      <trkpt lat="42.2784880" lon="-8.6298370">
        <ele>167.1</ele>
        <time>2021-05-20T15:16:43Z</time>
      </trkpt>
      <trkpt lat="42.2784780" lon="-8.6298300">
        <ele>167.1</ele>
        <time>2021-05-20T15:16:44Z</time>
      </trkpt>
      <trkpt lat="42.2784740" lon="-8.6298310">
        <ele>167.1</ele>
        <time>2021-05-20T15:16:45Z</time>
      </trkpt>
      <trkpt lat="42.2784710" lon="-8.6298140">
        <ele>167.1</ele>
        <time>2021-05-20T15:16:46Z</time>
      </trkpt>
      <trkpt lat="42.2784670" lon="-8.6298090">
        <ele>167.1</ele>
        <time>2021-05-20T15:16:47Z</time>
      </trkpt>
      <trkpt lat="42.2784670" lon="-8.6298110">
        <ele>167.1</ele>
        <time>2021-05-20T15:16:48Z</time>
      </trkpt>
      <trkpt lat="42.2784680" lon="-8.6298040">
        <ele>167.1</ele>
        <time>2021-05-20T15:16:49Z</time>
      </trkpt>
      <trkpt lat="42.2784650" lon="-8.6297950">
        <ele>167.1</ele>
        <time>2021-05-20T15:16:50Z</time>
      </trkpt>
      <trkpt lat="42.2784740" lon="-8.6297770">
        <ele>167.1</ele>
        <time>2021-05-20T15:16:51Z</time>
      </trkpt>
      <trkpt lat="42.2784750" lon="-8.6297790">
        <ele>167.1</ele>
        <time>2021-05-20T15:16:52Z</time>
      </trkpt>
      <trkpt lat="42.2784800" lon="-8.6297730">
        <ele>167.2</ele>
        <time>2021-05-20T15:16:53Z</time>
      </trkpt>
      <trkpt lat="42.2784810" lon="-8.6297740">
        <ele>167.2</ele>
        <time>2021-05-20T15:16:54Z</time>
      </trkpt>
      <trkpt lat="42.2784830" lon="-8.6297680">
        <ele>167.2</ele>
        <time>2021-05-20T15:16:55Z</time>
      </trkpt>
      <trkpt lat="42.2784820" lon="-8.6297670">
        <ele>167.2</ele>
        <time>2021-05-20T15:16:56Z</time>
      </trkpt>
      <trkpt lat="42.2784820" lon="-8.6297660">
        <ele>167.2</ele>
        <time>2021-05-20T15:16:57Z</time>
      </trkpt>
      <trkpt lat="42.2784830" lon="-8.6297660">
        <ele>167.2</ele>
        <time>2021-05-20T15:16:58Z</time>
      </trkpt>
      <trkpt lat="42.2784840" lon="-8.6297700">
        <ele>167.2</ele>
        <time>2021-05-20T15:16:59Z</time>
      </trkpt>
      <trkpt lat="42.2784840" lon="-8.6297720">
        <ele>167.2</ele>
        <time>2021-05-20T15:17:00Z</time>
      </trkpt>
      <trkpt lat="42.2784810" lon="-8.6297710">
        <ele>167.2</ele>
        <time>2021-05-20T15:17:01Z</time>
      </trkpt>
      <trkpt lat="42.2784800" lon="-8.6297740">
        <ele>167.2</ele>
        <time>2021-05-20T15:17:02Z</time>
      </trkpt>
      <trkpt lat="42.2784800" lon="-8.6297660">
        <ele>167.2</ele>
        <time>2021-05-20T15:17:03Z</time>
      </trkpt>
      <trkpt lat="42.2784760" lon="-8.6297690">
        <ele>167.2</ele>
        <time>2021-05-20T15:17:04Z</time>
      </trkpt>
      <trkpt lat="42.2784770" lon="-8.6297730">
        <ele>167.2</ele>
        <time>2021-05-20T15:17:05Z</time>
      </trkpt>
      <trkpt lat="42.2784780" lon="-8.6297710">
        <ele>167.2</ele>
        <time>2021-05-20T15:17:06Z</time>
      </trkpt>
      <trkpt lat="42.2784770" lon="-8.6297750">
        <ele>167.2</ele>
        <time>2021-05-20T15:17:07Z</time>
      </trkpt>
      <trkpt lat="42.2784780" lon="-8.6297770">
        <ele>167.2</ele>
        <time>2021-05-20T15:17:08Z</time>
      </trkpt>
      <trkpt lat="42.2784820" lon="-8.6297790">
        <ele>167.2</ele>
        <time>2021-05-20T15:17:09Z</time>
      </trkpt>
      <trkpt lat="42.2784800" lon="-8.6297810">
        <ele>167.2</ele>
        <time>2021-05-20T15:17:10Z</time>
      </trkpt>
      <trkpt lat="42.2784790" lon="-8.6297780">
        <ele>167.2</ele>
        <time>2021-05-20T15:17:11Z</time>
      </trkpt>
      <trkpt lat="42.2784790" lon="-8.6297730">
        <ele>167.3</ele>
        <time>2021-05-20T15:17:12Z</time>
      </trkpt>
      <trkpt lat="42.2784770" lon="-8.6297670">
        <ele>167.3</ele>
        <time>2021-05-20T15:17:13Z</time>
      </trkpt>
      <trkpt lat="42.2784740" lon="-8.6297680">
        <ele>167.3</ele>
        <time>2021-05-20T15:17:14Z</time>
      </trkpt>
      <trkpt lat="42.2784730" lon="-8.6297630">
        <ele>167.3</ele>
        <time>2021-05-20T15:17:15Z</time>
      </trkpt>
      <trkpt lat="42.2784720" lon="-8.6297550">
        <ele>167.3</ele>
        <time>2021-05-20T15:17:16Z</time>
      </trkpt>
      <trkpt lat="42.2784690" lon="-8.6297540">
        <ele>167.3</ele>
        <time>2021-05-20T15:17:17Z</time>
      </trkpt>
      <trkpt lat="42.2784650" lon="-8.6297530">
        <ele>167.3</ele>
        <time>2021-05-20T15:17:18Z</time>
      </trkpt>
      <trkpt lat="42.2784700" lon="-8.6297470">
        <ele>167.3</ele>
        <time>2021-05-20T15:17:19Z</time>
      </trkpt>
      <trkpt lat="42.2784690" lon="-8.6297460">
        <ele>167.3</ele>
        <time>2021-05-20T15:17:20Z</time>
      </trkpt>
      <trkpt lat="42.2784690" lon="-8.6297490">
        <ele>167.3</ele>
        <time>2021-05-20T15:17:21Z</time>
      </trkpt>
      <trkpt lat="42.2784700" lon="-8.6297450">
        <ele>167.3</ele>
        <time>2021-05-20T15:17:22Z</time>
      </trkpt>
      <trkpt lat="42.2784720" lon="-8.6297470">
        <ele>167.3</ele>
        <time>2021-05-20T15:17:23Z</time>
      </trkpt>
      <trkpt lat="42.2784730" lon="-8.6297530">
        <ele>167.3</ele>
        <time>2021-05-20T15:17:24Z</time>
      </trkpt>
      <trkpt lat="42.2784740" lon="-8.6297590">
        <ele>167.3</ele>
        <time>2021-05-20T15:17:25Z</time>
      </trkpt>
      <trkpt lat="42.2784740" lon="-8.6297590">
        <ele>167.3</ele>
        <time>2021-05-20T15:17:26Z</time>
      </trkpt>
      <trkpt lat="42.2784740" lon="-8.6297590">
        <ele>167.3</ele>
        <time>2021-05-20T15:17:27Z</time>
      </trkpt>
      <trkpt lat="42.2784770" lon="-8.6297680">
        <ele>167.4</ele>
        <time>2021-05-20T15:17:28Z</time>
      </trkpt>
      <trkpt lat="42.2784720" lon="-8.6297740">
        <ele>167.4</ele>
        <time>2021-05-20T15:17:29Z</time>
      </trkpt>
      <trkpt lat="42.2784720" lon="-8.6297740">
        <ele>167.4</ele>
        <time>2021-05-20T15:17:30Z</time>
      </trkpt>
      <trkpt lat="42.2784710" lon="-8.6297780">
        <ele>167.4</ele>
        <time>2021-05-20T15:17:31Z</time>
      </trkpt>
      <trkpt lat="42.2784690" lon="-8.6297770">
        <ele>167.4</ele>
        <time>2021-05-20T15:17:32Z</time>
      </trkpt>
      <trkpt lat="42.2784660" lon="-8.6297800">
        <ele>167.4</ele>
        <time>2021-05-20T15:17:33Z</time>
      </trkpt>
      <trkpt lat="42.2784650" lon="-8.6297810">
        <ele>167.4</ele>
        <time>2021-05-20T15:17:34Z</time>
      </trkpt>
      <trkpt lat="42.2784640" lon="-8.6297820">
        <ele>167.4</ele>
        <time>2021-05-20T15:17:35Z</time>
      </trkpt>
      <trkpt lat="42.2784620" lon="-8.6297880">
        <ele>167.4</ele>
        <time>2021-05-20T15:17:36Z</time>
      </trkpt>
      <trkpt lat="42.2784580" lon="-8.6297810">
        <ele>167.4</ele>
        <time>2021-05-20T15:17:37Z</time>
      </trkpt>
      <trkpt lat="42.2784590" lon="-8.6297760">
        <ele>167.4</ele>
        <time>2021-05-20T15:17:38Z</time>
      </trkpt>
      <trkpt lat="42.2784390" lon="-8.6297760">
        <ele>167.5</ele>
        <time>2021-05-20T15:17:39Z</time>
      </trkpt>
      <trkpt lat="42.2784230" lon="-8.6297830">
        <ele>167.5</ele>
        <time>2021-05-20T15:17:40Z</time>
      </trkpt>
      <trkpt lat="42.2784190" lon="-8.6297610">
        <ele>167.5</ele>
        <time>2021-05-20T15:17:41Z</time>
      </trkpt>
      <trkpt lat="42.2784020" lon="-8.6297560">
        <ele>167.5</ele>
        <time>2021-05-20T15:17:42Z</time>
      </trkpt>
      <trkpt lat="42.2783890" lon="-8.6297550">
        <ele>167.6</ele>
        <time>2021-05-20T15:17:43Z</time>
      </trkpt>
      <trkpt lat="42.2783750" lon="-8.6297450">
        <ele>167.6</ele>
        <time>2021-05-20T15:17:44Z</time>
      </trkpt>
      <trkpt lat="42.2783680" lon="-8.6297410">
        <ele>167.6</ele>
        <time>2021-05-20T15:17:45Z</time>
      </trkpt>
      <trkpt lat="42.2783560" lon="-8.6297380">
        <ele>167.6</ele>
        <time>2021-05-20T15:17:46Z</time>
      </trkpt>
      <trkpt lat="42.2783380" lon="-8.6297380">
        <ele>167.6</ele>
        <time>2021-05-20T15:17:47Z</time>
      </trkpt>
      <trkpt lat="42.2783300" lon="-8.6297360">
        <ele>167.6</ele>
        <time>2021-05-20T15:17:48Z</time>
      </trkpt>
      <trkpt lat="42.2783170" lon="-8.6297370">
        <ele>167.6</ele>
        <time>2021-05-20T15:17:49Z</time>
      </trkpt>
      <trkpt lat="42.2783060" lon="-8.6297390">
        <ele>167.6</ele>
        <time>2021-05-20T15:17:50Z</time>
      </trkpt>
      <trkpt lat="42.2782860" lon="-8.6297300">
        <ele>167.6</ele>
        <time>2021-05-20T15:17:51Z</time>
      </trkpt>
      <trkpt lat="42.2782740" lon="-8.6297270">
        <ele>167.6</ele>
        <time>2021-05-20T15:17:52Z</time>
      </trkpt>
      <trkpt lat="42.2782630" lon="-8.6297290">
        <ele>167.6</ele>
        <time>2021-05-20T15:17:53Z</time>
      </trkpt>
      <trkpt lat="42.2782480" lon="-8.6297280">
        <ele>167.6</ele>
        <time>2021-05-20T15:17:54Z</time>
      </trkpt>
      <trkpt lat="42.2782400" lon="-8.6297150">
        <ele>167.6</ele>
        <time>2021-05-20T15:17:55Z</time>
      </trkpt>
      <trkpt lat="42.2782290" lon="-8.6297100">
        <ele>167.6</ele>
        <time>2021-05-20T15:17:56Z</time>
      </trkpt>
      <trkpt lat="42.2782210" lon="-8.6297240">
        <ele>167.6</ele>
        <time>2021-05-20T15:17:57Z</time>
      </trkpt>
      <trkpt lat="42.2782120" lon="-8.6297220">
        <ele>167.6</ele>
        <time>2021-05-20T15:17:58Z</time>
      </trkpt>
      <trkpt lat="42.2781890" lon="-8.6297230">
        <ele>167.6</ele>
        <time>2021-05-20T15:17:59Z</time>
      </trkpt>
      <trkpt lat="42.2781780" lon="-8.6297220">
        <ele>167.6</ele>
        <time>2021-05-20T15:18:00Z</time>
      </trkpt>
      <trkpt lat="42.2781680" lon="-8.6297210">
        <ele>167.6</ele>
        <time>2021-05-20T15:18:01Z</time>
      </trkpt>
      <trkpt lat="42.2781600" lon="-8.6297160">
        <ele>167.6</ele>
        <time>2021-05-20T15:18:02Z</time>
      </trkpt>
      <trkpt lat="42.2781500" lon="-8.6297050">
        <ele>167.6</ele>
        <time>2021-05-20T15:18:03Z</time>
      </trkpt>
      <trkpt lat="42.2781400" lon="-8.6296980">
        <ele>167.6</ele>
        <time>2021-05-20T15:18:04Z</time>
      </trkpt>
      <trkpt lat="42.2781200" lon="-8.6296850">
        <ele>167.6</ele>
        <time>2021-05-20T15:18:05Z</time>
      </trkpt>
      <trkpt lat="42.2781130" lon="-8.6296800">
        <ele>167.6</ele>
        <time>2021-05-20T15:18:06Z</time>
      </trkpt>
      <trkpt lat="42.2781050" lon="-8.6296740">
        <ele>167.6</ele>
        <time>2021-05-20T15:18:07Z</time>
      </trkpt>
      <trkpt lat="42.2780910" lon="-8.6296680">
        <ele>167.6</ele>
        <time>2021-05-20T15:18:08Z</time>
      </trkpt>
      <trkpt lat="42.2780820" lon="-8.6296690">
        <ele>167.6</ele>
        <time>2021-05-20T15:18:09Z</time>
      </trkpt>
      <trkpt lat="42.2780730" lon="-8.6296620">
        <ele>167.6</ele>
        <time>2021-05-20T15:18:10Z</time>
      </trkpt>
      <trkpt lat="42.2780510" lon="-8.6296510">
        <ele>167.6</ele>
        <time>2021-05-20T15:18:11Z</time>
      </trkpt>
      <trkpt lat="42.2780410" lon="-8.6296460">
        <ele>167.6</ele>
        <time>2021-05-20T15:18:12Z</time>
      </trkpt>
      <trkpt lat="42.2780300" lon="-8.6296400">
        <ele>167.6</ele>
        <time>2021-05-20T15:18:13Z</time>
      </trkpt>
      <trkpt lat="42.2780210" lon="-8.6296400">
        <ele>167.6</ele>
        <time>2021-05-20T15:18:14Z</time>
      </trkpt>
      <trkpt lat="42.2780060" lon="-8.6296300">
        <ele>167.6</ele>
        <time>2021-05-20T15:18:15Z</time>
      </trkpt>
      <trkpt lat="42.2779960" lon="-8.6296290">
        <ele>167.6</ele>
        <time>2021-05-20T15:18:16Z</time>
      </trkpt>
      <trkpt lat="42.2779850" lon="-8.6296340">
        <ele>167.6</ele>
        <time>2021-05-20T15:18:17Z</time>
      </trkpt>
      <trkpt lat="42.2779740" lon="-8.6296370">
        <ele>167.6</ele>
        <time>2021-05-20T15:18:18Z</time>
      </trkpt>
      <trkpt lat="42.2779640" lon="-8.6296300">
        <ele>167.6</ele>
        <time>2021-05-20T15:18:19Z</time>
      </trkpt>
      <trkpt lat="42.2779410" lon="-8.6296210">
        <ele>167.6</ele>
        <time>2021-05-20T15:18:20Z</time>
      </trkpt>
      <trkpt lat="42.2779330" lon="-8.6296190">
        <ele>167.6</ele>
        <time>2021-05-20T15:18:21Z</time>
      </trkpt>
      <trkpt lat="42.2779260" lon="-8.6296170">
        <ele>167.6</ele>
        <time>2021-05-20T15:18:22Z</time>
      </trkpt>
      <trkpt lat="42.2779030" lon="-8.6296210">
        <ele>167.6</ele>
        <time>2021-05-20T15:18:23Z</time>
      </trkpt>
      <trkpt lat="42.2778960" lon="-8.6296230">
        <ele>167.6</ele>
        <time>2021-05-20T15:18:24Z</time>
      </trkpt>
      <trkpt lat="42.2778880" lon="-8.6296260">
        <ele>167.6</ele>
        <time>2021-05-20T15:18:25Z</time>
      </trkpt>
      <trkpt lat="42.2778780" lon="-8.6296150">
        <ele>167.6</ele>
        <time>2021-05-20T15:18:26Z</time>
      </trkpt>
      <trkpt lat="42.2778650" lon="-8.6296120">
        <ele>167.6</ele>
        <time>2021-05-20T15:18:27Z</time>
      </trkpt>
      <trkpt lat="42.2778580" lon="-8.6296140">
        <ele>167.6</ele>
        <time>2021-05-20T15:18:28Z</time>
      </trkpt>
      <trkpt lat="42.2778420" lon="-8.6296160">
        <ele>167.6</ele>
        <time>2021-05-20T15:18:29Z</time>
      </trkpt>
      <trkpt lat="42.2778310" lon="-8.6296180">
        <ele>167.6</ele>
        <time>2021-05-20T15:18:30Z</time>
      </trkpt>
      <trkpt lat="42.2778180" lon="-8.6296200">
        <ele>167.6</ele>
        <time>2021-05-20T15:18:31Z</time>
      </trkpt>
      <trkpt lat="42.2778100" lon="-8.6296210">
        <ele>167.6</ele>
        <time>2021-05-20T15:18:32Z</time>
      </trkpt>
      <trkpt lat="42.2778020" lon="-8.6296250">
        <ele>167.6</ele>
        <time>2021-05-20T15:18:33Z</time>
      </trkpt>
      <trkpt lat="42.2777870" lon="-8.6296310">
        <ele>167.6</ele>
        <time>2021-05-20T15:18:34Z</time>
      </trkpt>
      <trkpt lat="42.2777700" lon="-8.6296350">
        <ele>167.6</ele>
        <time>2021-05-20T15:18:35Z</time>
      </trkpt>
      <trkpt lat="42.2777450" lon="-8.6296400">
        <ele>167.6</ele>
        <time>2021-05-20T15:18:36Z</time>
      </trkpt>
      <trkpt lat="42.2777330" lon="-8.6296430">
        <ele>167.6</ele>
        <time>2021-05-20T15:18:37Z</time>
      </trkpt>
      <trkpt lat="42.2777180" lon="-8.6296510">
        <ele>167.6</ele>
        <time>2021-05-20T15:18:38Z</time>
      </trkpt>
      <trkpt lat="42.2777120" lon="-8.6296560">
        <ele>167.6</ele>
        <time>2021-05-20T15:18:39Z</time>
      </trkpt>
      <trkpt lat="42.2776980" lon="-8.6296480">
        <ele>167.6</ele>
        <time>2021-05-20T15:18:40Z</time>
      </trkpt>
      <trkpt lat="42.2776760" lon="-8.6296670">
        <ele>167.6</ele>
        <time>2021-05-20T15:18:41Z</time>
      </trkpt>
      <trkpt lat="42.2776660" lon="-8.6296720">
        <ele>167.6</ele>
        <time>2021-05-20T15:18:42Z</time>
      </trkpt>
      <trkpt lat="42.2776470" lon="-8.6296830">
        <ele>167.6</ele>
        <time>2021-05-20T15:18:44Z</time>
      </trkpt>
      <trkpt lat="42.2776360" lon="-8.6296840">
        <ele>167.6</ele>
        <time>2021-05-20T15:18:45Z</time>
      </trkpt>
      <trkpt lat="42.2776260" lon="-8.6296850">
        <ele>167.7</ele>
        <time>2021-05-20T15:18:46Z</time>
      </trkpt>
      <trkpt lat="42.2776070" lon="-8.6296950">
        <ele>167.7</ele>
        <time>2021-05-20T15:18:47Z</time>
      </trkpt>
      <trkpt lat="42.2775980" lon="-8.6296970">
        <ele>167.7</ele>
        <time>2021-05-20T15:18:48Z</time>
      </trkpt>
      <trkpt lat="42.2775900" lon="-8.6297000">
        <ele>167.7</ele>
        <time>2021-05-20T15:18:49Z</time>
      </trkpt>
      <trkpt lat="42.2775810" lon="-8.6297070">
        <ele>167.7</ele>
        <time>2021-05-20T15:18:50Z</time>
      </trkpt>
      <trkpt lat="42.2775740" lon="-8.6297050">
        <ele>167.7</ele>
        <time>2021-05-20T15:18:51Z</time>
      </trkpt>
      <trkpt lat="42.2775620" lon="-8.6297100">
        <ele>167.7</ele>
        <time>2021-05-20T15:18:52Z</time>
      </trkpt>
      <trkpt lat="42.2775540" lon="-8.6297130">
        <ele>167.7</ele>
        <time>2021-05-20T15:18:53Z</time>
      </trkpt>
      <trkpt lat="42.2775450" lon="-8.6297190">
        <ele>167.7</ele>
        <time>2021-05-20T15:18:54Z</time>
      </trkpt>
      <trkpt lat="42.2775280" lon="-8.6297200">
        <ele>167.7</ele>
        <time>2021-05-20T15:18:55Z</time>
      </trkpt>
      <trkpt lat="42.2775110" lon="-8.6297280">
        <ele>167.7</ele>
        <time>2021-05-20T15:18:56Z</time>
      </trkpt>
      <trkpt lat="42.2775010" lon="-8.6297300">
        <ele>167.7</ele>
        <time>2021-05-20T15:18:57Z</time>
      </trkpt>
      <trkpt lat="42.2774910" lon="-8.6297310">
        <ele>167.7</ele>
        <time>2021-05-20T15:18:58Z</time>
      </trkpt>
      <trkpt lat="42.2774850" lon="-8.6297270">
        <ele>167.7</ele>
        <time>2021-05-20T15:18:59Z</time>
      </trkpt>
      <trkpt lat="42.2774710" lon="-8.6297270">
        <ele>167.7</ele>
        <time>2021-05-20T15:19:00Z</time>
      </trkpt>
      <trkpt lat="42.2774620" lon="-8.6297220">
        <ele>167.7</ele>
        <time>2021-05-20T15:19:01Z</time>
      </trkpt>
      <trkpt lat="42.2774530" lon="-8.6297180">
        <ele>167.7</ele>
        <time>2021-05-20T15:19:02Z</time>
      </trkpt>
      <trkpt lat="42.2774380" lon="-8.6297110">
        <ele>167.7</ele>
        <time>2021-05-20T15:19:03Z</time>
      </trkpt>
      <trkpt lat="42.2774280" lon="-8.6297070">
        <ele>167.7</ele>
        <time>2021-05-20T15:19:04Z</time>
      </trkpt>
      <trkpt lat="42.2774160" lon="-8.6297090">
        <ele>167.7</ele>
        <time>2021-05-20T15:19:05Z</time>
      </trkpt>
      <trkpt lat="42.2774050" lon="-8.6297040">
        <ele>167.7</ele>
        <time>2021-05-20T15:19:06Z</time>
      </trkpt>
      <trkpt lat="42.2773920" lon="-8.6297020">
        <ele>167.7</ele>
        <time>2021-05-20T15:19:07Z</time>
      </trkpt>
      <trkpt lat="42.2773840" lon="-8.6296960">
        <ele>167.7</ele>
        <time>2021-05-20T15:19:08Z</time>
      </trkpt>
      <trkpt lat="42.2773740" lon="-8.6296940">
        <ele>167.7</ele>
        <time>2021-05-20T15:19:09Z</time>
      </trkpt>
      <trkpt lat="42.2773670" lon="-8.6296890">
        <ele>167.7</ele>
        <time>2021-05-20T15:19:10Z</time>
      </trkpt>
      <trkpt lat="42.2773550" lon="-8.6296820">
        <ele>167.7</ele>
        <time>2021-05-20T15:19:11Z</time>
      </trkpt>
      <trkpt lat="42.2773460" lon="-8.6296780">
        <ele>167.6</ele>
        <time>2021-05-20T15:19:12Z</time>
      </trkpt>
      <trkpt lat="42.2773370" lon="-8.6296760">
        <ele>167.6</ele>
        <time>2021-05-20T15:19:13Z</time>
      </trkpt>
      <trkpt lat="42.2773290" lon="-8.6296740">
        <ele>167.6</ele>
        <time>2021-05-20T15:19:14Z</time>
      </trkpt>
      <trkpt lat="42.2773110" lon="-8.6296670">
        <ele>167.6</ele>
        <time>2021-05-20T15:19:15Z</time>
      </trkpt>
      <trkpt lat="42.2772960" lon="-8.6296590">
        <ele>167.6</ele>
        <time>2021-05-20T15:19:16Z</time>
      </trkpt>
      <trkpt lat="42.2772840" lon="-8.6296530">
        <ele>167.6</ele>
        <time>2021-05-20T15:19:17Z</time>
      </trkpt>
      <trkpt lat="42.2772780" lon="-8.6296460">
        <ele>167.6</ele>
        <time>2021-05-20T15:19:18Z</time>
      </trkpt>
      <trkpt lat="42.2772690" lon="-8.6296430">
        <ele>167.6</ele>
        <time>2021-05-20T15:19:19Z</time>
      </trkpt>
      <trkpt lat="42.2772600" lon="-8.6296430">
        <ele>167.6</ele>
        <time>2021-05-20T15:19:20Z</time>
      </trkpt>
      <trkpt lat="42.2772550" lon="-8.6296300">
        <ele>167.5</ele>
        <time>2021-05-20T15:19:21Z</time>
      </trkpt>
      <trkpt lat="42.2772440" lon="-8.6296100">
        <ele>167.5</ele>
        <time>2021-05-20T15:19:22Z</time>
      </trkpt>
      <trkpt lat="42.2772350" lon="-8.6295970">
        <ele>167.5</ele>
        <time>2021-05-20T15:19:23Z</time>
      </trkpt>
      <trkpt lat="42.2772270" lon="-8.6295850">
        <ele>167.5</ele>
        <time>2021-05-20T15:19:24Z</time>
      </trkpt>
      <trkpt lat="42.2772130" lon="-8.6295640">
        <ele>167.4</ele>
        <time>2021-05-20T15:19:25Z</time>
      </trkpt>
      <trkpt lat="42.2772080" lon="-8.6295600">
        <ele>167.4</ele>
        <time>2021-05-20T15:19:26Z</time>
      </trkpt>
      <trkpt lat="42.2772040" lon="-8.6295560">
        <ele>167.4</ele>
        <time>2021-05-20T15:19:27Z</time>
      </trkpt>
      <trkpt lat="42.2771990" lon="-8.6295520">
        <ele>167.4</ele>
        <time>2021-05-20T15:19:28Z</time>
      </trkpt>
      <trkpt lat="42.2771880" lon="-8.6295370">
        <ele>167.4</ele>
        <time>2021-05-20T15:19:29Z</time>
      </trkpt>
      <trkpt lat="42.2771810" lon="-8.6295320">
        <ele>167.4</ele>
        <time>2021-05-20T15:19:30Z</time>
      </trkpt>
      <trkpt lat="42.2771730" lon="-8.6295280">
        <ele>167.4</ele>
        <time>2021-05-20T15:19:31Z</time>
      </trkpt>
      <trkpt lat="42.2771660" lon="-8.6295240">
        <ele>167.3</ele>
        <time>2021-05-20T15:19:32Z</time>
      </trkpt>
      <trkpt lat="42.2771510" lon="-8.6295030">
        <ele>167.3</ele>
        <time>2021-05-20T15:19:33Z</time>
      </trkpt>
      <trkpt lat="42.2771450" lon="-8.6294900">
        <ele>167.3</ele>
        <time>2021-05-20T15:19:34Z</time>
      </trkpt>
      <trkpt lat="42.2771390" lon="-8.6294780">
        <ele>167.3</ele>
        <time>2021-05-20T15:19:35Z</time>
      </trkpt>
      <trkpt lat="42.2771300" lon="-8.6294630">
        <ele>167.2</ele>
        <time>2021-05-20T15:19:36Z</time>
      </trkpt>
      <trkpt lat="42.2771260" lon="-8.6294540">
        <ele>167.2</ele>
        <time>2021-05-20T15:19:37Z</time>
      </trkpt>
      <trkpt lat="42.2771210" lon="-8.6294580">
        <ele>167.2</ele>
        <time>2021-05-20T15:19:38Z</time>
      </trkpt>
      <trkpt lat="42.2771090" lon="-8.6294520">
        <ele>167.2</ele>
        <time>2021-05-20T15:19:39Z</time>
      </trkpt>
      <trkpt lat="42.2770890" lon="-8.6294460">
        <ele>167.1</ele>
        <time>2021-05-20T15:19:40Z</time>
      </trkpt>
      <trkpt lat="42.2770800" lon="-8.6294430">
        <ele>167.1</ele>
        <time>2021-05-20T15:19:41Z</time>
      </trkpt>
      <trkpt lat="42.2770710" lon="-8.6294400">
        <ele>167.1</ele>
        <time>2021-05-20T15:19:42Z</time>
      </trkpt>
      <trkpt lat="42.2770550" lon="-8.6294290">
        <ele>167.1</ele>
        <time>2021-05-20T15:19:43Z</time>
      </trkpt>
      <trkpt lat="42.2770470" lon="-8.6294210">
        <ele>167.1</ele>
        <time>2021-05-20T15:19:44Z</time>
      </trkpt>
      <trkpt lat="42.2770380" lon="-8.6294130">
        <ele>167.0</ele>
        <time>2021-05-20T15:19:45Z</time>
      </trkpt>
      <trkpt lat="42.2770270" lon="-8.6294020">
        <ele>167.0</ele>
        <time>2021-05-20T15:19:46Z</time>
      </trkpt>
      <trkpt lat="42.2770160" lon="-8.6293900">
        <ele>167.0</ele>
        <time>2021-05-20T15:19:47Z</time>
      </trkpt>
      <trkpt lat="42.2770030" lon="-8.6293820">
        <ele>167.0</ele>
        <time>2021-05-20T15:19:48Z</time>
      </trkpt>
      <trkpt lat="42.2769970" lon="-8.6293760">
        <ele>167.0</ele>
        <time>2021-05-20T15:19:49Z</time>
      </trkpt>
      <trkpt lat="42.2769880" lon="-8.6293670">
        <ele>167.0</ele>
        <time>2021-05-20T15:19:50Z</time>
      </trkpt>
      <trkpt lat="42.2769730" lon="-8.6293620">
        <ele>167.0</ele>
        <time>2021-05-20T15:19:51Z</time>
      </trkpt>
      <trkpt lat="42.2769570" lon="-8.6293490">
        <ele>166.9</ele>
        <time>2021-05-20T15:19:52Z</time>
      </trkpt>
      <trkpt lat="42.2769560" lon="-8.6293440">
        <ele>166.9</ele>
        <time>2021-05-20T15:19:53Z</time>
      </trkpt>
      <trkpt lat="42.2769590" lon="-8.6293410">
        <ele>166.9</ele>
        <time>2021-05-20T15:19:54Z</time>
      </trkpt>
      <trkpt lat="42.2769580" lon="-8.6293430">
        <ele>166.9</ele>
        <time>2021-05-20T15:19:55Z</time>
      </trkpt>
      <trkpt lat="42.2769550" lon="-8.6293450">
        <ele>166.9</ele>
        <time>2021-05-20T15:19:56Z</time>
      </trkpt>
      <trkpt lat="42.2769540" lon="-8.6293500">
        <ele>166.9</ele>
        <time>2021-05-20T15:19:57Z</time>
      </trkpt>
      <trkpt lat="42.2769490" lon="-8.6293460">
        <ele>166.9</ele>
        <time>2021-05-20T15:19:58Z</time>
      </trkpt>
      <trkpt lat="42.2769460" lon="-8.6293480">
        <ele>166.9</ele>
        <time>2021-05-20T15:19:59Z</time>
      </trkpt>
      <trkpt lat="42.2769450" lon="-8.6293410">
        <ele>166.9</ele>
        <time>2021-05-20T15:20:00Z</time>
      </trkpt>
      <trkpt lat="42.2769400" lon="-8.6293410">
        <ele>166.9</ele>
        <time>2021-05-20T15:20:01Z</time>
      </trkpt>
      <trkpt lat="42.2769370" lon="-8.6293400">
        <ele>166.9</ele>
        <time>2021-05-20T15:20:02Z</time>
      </trkpt>
      <trkpt lat="42.2769370" lon="-8.6293370">
        <ele>166.9</ele>
        <time>2021-05-20T15:20:03Z</time>
      </trkpt>
      <trkpt lat="42.2769370" lon="-8.6293280">
        <ele>166.9</ele>
        <time>2021-05-20T15:20:04Z</time>
      </trkpt>
      <trkpt lat="42.2769340" lon="-8.6293200">
        <ele>166.9</ele>
        <time>2021-05-20T15:20:05Z</time>
      </trkpt>
      <trkpt lat="42.2769340" lon="-8.6293180">
        <ele>166.9</ele>
        <time>2021-05-20T15:20:06Z</time>
      </trkpt>
      <trkpt lat="42.2769340" lon="-8.6293170">
        <ele>166.9</ele>
        <time>2021-05-20T15:20:07Z</time>
      </trkpt>
      <trkpt lat="42.2769290" lon="-8.6293120">
        <ele>166.9</ele>
        <time>2021-05-20T15:20:08Z</time>
      </trkpt>
      <trkpt lat="42.2769290" lon="-8.6293050">
        <ele>166.9</ele>
        <time>2021-05-20T15:20:09Z</time>
      </trkpt>
      <trkpt lat="42.2769240" lon="-8.6293070">
        <ele>166.9</ele>
        <time>2021-05-20T15:20:10Z</time>
      </trkpt>
      <trkpt lat="42.2769170" lon="-8.6292960">
        <ele>166.9</ele>
        <time>2021-05-20T15:20:11Z</time>
      </trkpt>
      <trkpt lat="42.2769110" lon="-8.6292970">
        <ele>166.9</ele>
        <time>2021-05-20T15:20:12Z</time>
      </trkpt>
      <trkpt lat="42.2769020" lon="-8.6292950">
        <ele>166.9</ele>
        <time>2021-05-20T15:20:13Z</time>
      </trkpt>
      <trkpt lat="42.2768930" lon="-8.6292920">
        <ele>166.9</ele>
        <time>2021-05-20T15:20:14Z</time>
      </trkpt>
      <trkpt lat="42.2768800" lon="-8.6292890">
        <ele>166.9</ele>
        <time>2021-05-20T15:20:15Z</time>
      </trkpt>
      <trkpt lat="42.2768700" lon="-8.6292840">
        <ele>166.9</ele>
        <time>2021-05-20T15:20:16Z</time>
      </trkpt>
      <trkpt lat="42.2768600" lon="-8.6292780">
        <ele>166.9</ele>
        <time>2021-05-20T15:20:17Z</time>
      </trkpt>
      <trkpt lat="42.2768480" lon="-8.6292690">
        <ele>166.9</ele>
        <time>2021-05-20T15:20:18Z</time>
      </trkpt>
      <trkpt lat="42.2768410" lon="-8.6292700">
        <ele>166.9</ele>
        <time>2021-05-20T15:20:19Z</time>
      </trkpt>
      <trkpt lat="42.2768250" lon="-8.6292620">
        <ele>166.8</ele>
        <time>2021-05-20T15:20:20Z</time>
      </trkpt>
      <trkpt lat="42.2768140" lon="-8.6292610">
        <ele>166.8</ele>
        <time>2021-05-20T15:20:21Z</time>
      </trkpt>
      <trkpt lat="42.2768020" lon="-8.6292570">
        <ele>166.8</ele>
        <time>2021-05-20T15:20:22Z</time>
      </trkpt>
      <trkpt lat="42.2767940" lon="-8.6292490">
        <ele>166.8</ele>
        <time>2021-05-20T15:20:23Z</time>
      </trkpt>
      <trkpt lat="42.2767830" lon="-8.6292450">
        <ele>166.8</ele>
        <time>2021-05-20T15:20:24Z</time>
      </trkpt>
      <trkpt lat="42.2767760" lon="-8.6292360">
        <ele>166.8</ele>
        <time>2021-05-20T15:20:25Z</time>
      </trkpt>
      <trkpt lat="42.2767590" lon="-8.6292280">
        <ele>166.8</ele>
        <time>2021-05-20T15:20:26Z</time>
      </trkpt>
      <trkpt lat="42.2767460" lon="-8.6292100">
        <ele>166.8</ele>
        <time>2021-05-20T15:20:27Z</time>
      </trkpt>
      <trkpt lat="42.2767400" lon="-8.6292050">
        <ele>166.8</ele>
        <time>2021-05-20T15:20:28Z</time>
      </trkpt>
      <trkpt lat="42.2767330" lon="-8.6291960">
        <ele>166.8</ele>
        <time>2021-05-20T15:20:29Z</time>
      </trkpt>
      <trkpt lat="42.2767090" lon="-8.6291840">
        <ele>166.8</ele>
        <time>2021-05-20T15:20:30Z</time>
      </trkpt>
      <trkpt lat="42.2767020" lon="-8.6291800">
        <ele>166.8</ele>
        <time>2021-05-20T15:20:31Z</time>
      </trkpt>
      <trkpt lat="42.2766960" lon="-8.6291760">
        <ele>166.8</ele>
        <time>2021-05-20T15:20:32Z</time>
      </trkpt>
      <trkpt lat="42.2766780" lon="-8.6291680">
        <ele>166.8</ele>
        <time>2021-05-20T15:20:33Z</time>
      </trkpt>
      <trkpt lat="42.2766700" lon="-8.6291630">
        <ele>166.8</ele>
        <time>2021-05-20T15:20:34Z</time>
      </trkpt>
      <trkpt lat="42.2766610" lon="-8.6291580">
        <ele>166.8</ele>
        <time>2021-05-20T15:20:35Z</time>
      </trkpt>
      <trkpt lat="42.2766500" lon="-8.6291520">
        <ele>166.8</ele>
        <time>2021-05-20T15:20:36Z</time>
      </trkpt>
      <trkpt lat="42.2766420" lon="-8.6291490">
        <ele>166.8</ele>
        <time>2021-05-20T15:20:37Z</time>
      </trkpt>
      <trkpt lat="42.2766350" lon="-8.6291450">
        <ele>166.8</ele>
        <time>2021-05-20T15:20:38Z</time>
      </trkpt>
      <trkpt lat="42.2766230" lon="-8.6291380">
        <ele>166.8</ele>
        <time>2021-05-20T15:20:39Z</time>
      </trkpt>
      <trkpt lat="42.2766130" lon="-8.6291290">
        <ele>166.8</ele>
        <time>2021-05-20T15:20:40Z</time>
      </trkpt>
      <trkpt lat="42.2766040" lon="-8.6291300">
        <ele>166.8</ele>
        <time>2021-05-20T15:20:41Z</time>
      </trkpt>
      <trkpt lat="42.2765790" lon="-8.6291190">
        <ele>166.8</ele>
        <time>2021-05-20T15:20:42Z</time>
      </trkpt>
      <trkpt lat="42.2765710" lon="-8.6291180">
        <ele>166.8</ele>
        <time>2021-05-20T15:20:43Z</time>
      </trkpt>
      <trkpt lat="42.2765620" lon="-8.6291160">
        <ele>166.8</ele>
        <time>2021-05-20T15:20:44Z</time>
      </trkpt>
      <trkpt lat="42.2765490" lon="-8.6291100">
        <ele>166.8</ele>
        <time>2021-05-20T15:20:45Z</time>
      </trkpt>
      <trkpt lat="42.2765360" lon="-8.6291030">
        <ele>166.8</ele>
        <time>2021-05-20T15:20:46Z</time>
      </trkpt>
      <trkpt lat="42.2765280" lon="-8.6291010">
        <ele>166.8</ele>
        <time>2021-05-20T15:20:47Z</time>
      </trkpt>
      <trkpt lat="42.2765160" lon="-8.6290930">
        <ele>166.8</ele>
        <time>2021-05-20T15:20:48Z</time>
      </trkpt>
      <trkpt lat="42.2765050" lon="-8.6290920">
        <ele>166.8</ele>
        <time>2021-05-20T15:20:49Z</time>
      </trkpt>
      <trkpt lat="42.2764860" lon="-8.6290920">
        <ele>166.8</ele>
        <time>2021-05-20T15:20:50Z</time>
      </trkpt>
      <trkpt lat="42.2764760" lon="-8.6290910">
        <ele>166.8</ele>
        <time>2021-05-20T15:20:51Z</time>
      </trkpt>
      <trkpt lat="42.2764540" lon="-8.6290810">
        <ele>166.8</ele>
        <time>2021-05-20T15:20:52Z</time>
      </trkpt>
      <trkpt lat="42.2764460" lon="-8.6290810">
        <ele>166.8</ele>
        <time>2021-05-20T15:20:53Z</time>
      </trkpt>
      <trkpt lat="42.2764390" lon="-8.6290800">
        <ele>166.8</ele>
        <time>2021-05-20T15:20:54Z</time>
      </trkpt>
      <trkpt lat="42.2764200" lon="-8.6290810">
        <ele>166.8</ele>
        <time>2021-05-20T15:20:55Z</time>
      </trkpt>
      <trkpt lat="42.2764100" lon="-8.6290810">
        <ele>166.8</ele>
        <time>2021-05-20T15:20:56Z</time>
      </trkpt>
      <trkpt lat="42.2764010" lon="-8.6290810">
        <ele>166.8</ele>
        <time>2021-05-20T15:20:57Z</time>
      </trkpt>
      <trkpt lat="42.2763960" lon="-8.6290810">
        <ele>166.8</ele>
        <time>2021-05-20T15:20:58Z</time>
      </trkpt>
      <trkpt lat="42.2763810" lon="-8.6290770">
        <ele>166.8</ele>
        <time>2021-05-20T15:20:59Z</time>
      </trkpt>
      <trkpt lat="42.2763690" lon="-8.6290760">
        <ele>166.8</ele>
        <time>2021-05-20T15:21:00Z</time>
      </trkpt>
      <trkpt lat="42.2763600" lon="-8.6290710">
        <ele>166.8</ele>
        <time>2021-05-20T15:21:01Z</time>
      </trkpt>
      <trkpt lat="42.2763630" lon="-8.6290750">
        <ele>166.8</ele>
        <time>2021-05-20T15:21:02Z</time>
      </trkpt>
      <trkpt lat="42.2763550" lon="-8.6290790">
        <ele>166.9</ele>
        <time>2021-05-20T15:21:03Z</time>
      </trkpt>
      <trkpt lat="42.2763450" lon="-8.6290790">
        <ele>166.9</ele>
        <time>2021-05-20T15:21:04Z</time>
      </trkpt>
      <trkpt lat="42.2763350" lon="-8.6290780">
        <ele>166.9</ele>
        <time>2021-05-20T15:21:05Z</time>
      </trkpt>
      <trkpt lat="42.2763200" lon="-8.6290800">
        <ele>166.9</ele>
        <time>2021-05-20T15:21:06Z</time>
      </trkpt>
      <trkpt lat="42.2763020" lon="-8.6290810">
        <ele>166.9</ele>
        <time>2021-05-20T15:21:07Z</time>
      </trkpt>
      <trkpt lat="42.2762920" lon="-8.6290880">
        <ele>166.9</ele>
        <time>2021-05-20T15:21:08Z</time>
      </trkpt>
      <trkpt lat="42.2762840" lon="-8.6290960">
        <ele>166.9</ele>
        <time>2021-05-20T15:21:09Z</time>
      </trkpt>
      <trkpt lat="42.2762720" lon="-8.6291060">
        <ele>166.9</ele>
        <time>2021-05-20T15:21:10Z</time>
      </trkpt>
      <trkpt lat="42.2762560" lon="-8.6291240">
        <ele>166.9</ele>
        <time>2021-05-20T15:21:11Z</time>
      </trkpt>
      <trkpt lat="42.2762490" lon="-8.6291310">
        <ele>166.9</ele>
        <time>2021-05-20T15:21:12Z</time>
      </trkpt>
      <trkpt lat="42.2762430" lon="-8.6291390">
        <ele>166.9</ele>
        <time>2021-05-20T15:21:13Z</time>
      </trkpt>
      <trkpt lat="42.2762380" lon="-8.6291460">
        <ele>166.9</ele>
        <time>2021-05-20T15:21:14Z</time>
      </trkpt>
      <trkpt lat="42.2762310" lon="-8.6291560">
        <ele>166.9</ele>
        <time>2021-05-20T15:21:15Z</time>
      </trkpt>
      <trkpt lat="42.2762210" lon="-8.6291610">
        <ele>166.9</ele>
        <time>2021-05-20T15:21:16Z</time>
      </trkpt>
      <trkpt lat="42.2762190" lon="-8.6291680">
        <ele>166.9</ele>
        <time>2021-05-20T15:21:17Z</time>
      </trkpt>
      <trkpt lat="42.2762060" lon="-8.6291800">
        <ele>166.9</ele>
        <time>2021-05-20T15:21:18Z</time>
      </trkpt>
      <trkpt lat="42.2761970" lon="-8.6291840">
        <ele>166.9</ele>
        <time>2021-05-20T15:21:19Z</time>
      </trkpt>
      <trkpt lat="42.2761950" lon="-8.6291860">
        <ele>166.9</ele>
        <time>2021-05-20T15:21:20Z</time>
      </trkpt>
      <trkpt lat="42.2761800" lon="-8.6291950">
        <ele>166.9</ele>
        <time>2021-05-20T15:21:21Z</time>
      </trkpt>
      <trkpt lat="42.2761690" lon="-8.6291900">
        <ele>166.9</ele>
        <time>2021-05-20T15:21:22Z</time>
      </trkpt>
      <trkpt lat="42.2761570" lon="-8.6291920">
        <ele>166.9</ele>
        <time>2021-05-20T15:21:23Z</time>
      </trkpt>
      <trkpt lat="42.2761480" lon="-8.6291940">
        <ele>166.9</ele>
        <time>2021-05-20T15:21:24Z</time>
      </trkpt>
      <trkpt lat="42.2761390" lon="-8.6292010">
        <ele>166.9</ele>
        <time>2021-05-20T15:21:25Z</time>
      </trkpt>
      <trkpt lat="42.2761230" lon="-8.6292170">
        <ele>166.9</ele>
        <time>2021-05-20T15:21:26Z</time>
      </trkpt>
      <trkpt lat="42.2761150" lon="-8.6292240">
        <ele>166.8</ele>
        <time>2021-05-20T15:21:27Z</time>
      </trkpt>
      <trkpt lat="42.2761060" lon="-8.6292320">
        <ele>166.8</ele>
        <time>2021-05-20T15:21:28Z</time>
      </trkpt>
      <trkpt lat="42.2760890" lon="-8.6292290">
        <ele>166.8</ele>
        <time>2021-05-20T15:21:29Z</time>
      </trkpt>
      <trkpt lat="42.2760780" lon="-8.6292350">
        <ele>166.8</ele>
        <time>2021-05-20T15:21:30Z</time>
      </trkpt>
      <trkpt lat="42.2760670" lon="-8.6292270">
        <ele>166.8</ele>
        <time>2021-05-20T15:21:31Z</time>
      </trkpt>
      <trkpt lat="42.2760560" lon="-8.6292190">
        <ele>166.8</ele>
        <time>2021-05-20T15:21:32Z</time>
      </trkpt>
      <trkpt lat="42.2760470" lon="-8.6292180">
        <ele>165.9</ele>
        <time>2021-05-20T15:21:33Z</time>
      </trkpt>
      <trkpt lat="42.2760350" lon="-8.6292170">
        <ele>165.7</ele>
        <time>2021-05-20T15:21:34Z</time>
      </trkpt>
      <trkpt lat="42.2760210" lon="-8.6292040">
        <ele>165.4</ele>
        <time>2021-05-20T15:21:35Z</time>
      </trkpt>
      <trkpt lat="42.2760140" lon="-8.6291950">
        <ele>165.3</ele>
        <time>2021-05-20T15:21:36Z</time>
      </trkpt>
      <trkpt lat="42.2760100" lon="-8.6291890">
        <ele>165.2</ele>
        <time>2021-05-20T15:21:37Z</time>
      </trkpt>
      <trkpt lat="42.2760050" lon="-8.6291820">
        <ele>165.1</ele>
        <time>2021-05-20T15:21:38Z</time>
      </trkpt>
      <trkpt lat="42.2760070" lon="-8.6291750">
        <ele>165.0</ele>
        <time>2021-05-20T15:21:39Z</time>
      </trkpt>
      <trkpt lat="42.2760100" lon="-8.6291650">
        <ele>164.9</ele>
        <time>2021-05-20T15:21:40Z</time>
      </trkpt>
      <trkpt lat="42.2760120" lon="-8.6291530">
        <ele>164.8</ele>
        <time>2021-05-20T15:21:41Z</time>
      </trkpt>
      <trkpt lat="42.2760130" lon="-8.6291410">
        <ele>164.7</ele>
        <time>2021-05-20T15:21:42Z</time>
      </trkpt>
      <trkpt lat="42.2760150" lon="-8.6291320">
        <ele>164.6</ele>
        <time>2021-05-20T15:21:43Z</time>
      </trkpt>
      <trkpt lat="42.2760200" lon="-8.6291220">
        <ele>164.4</ele>
        <time>2021-05-20T15:21:44Z</time>
      </trkpt>
      <trkpt lat="42.2760190" lon="-8.6291150">
        <ele>164.4</ele>
        <time>2021-05-20T15:21:45Z</time>
      </trkpt>
      <trkpt lat="42.2760220" lon="-8.6290970">
        <ele>164.1</ele>
        <time>2021-05-20T15:21:46Z</time>
      </trkpt>
      <trkpt lat="42.2760270" lon="-8.6290890">
        <ele>164.0</ele>
        <time>2021-05-20T15:21:47Z</time>
      </trkpt>
      <trkpt lat="42.2760300" lon="-8.6290780">
        <ele>163.9</ele>
        <time>2021-05-20T15:21:48Z</time>
      </trkpt>
      <trkpt lat="42.2760340" lon="-8.6290740">
        <ele>163.8</ele>
        <time>2021-05-20T15:21:49Z</time>
      </trkpt>
      <trkpt lat="42.2760430" lon="-8.6290640">
        <ele>163.6</ele>
        <time>2021-05-20T15:21:50Z</time>
      </trkpt>
      <trkpt lat="42.2760480" lon="-8.6290520">
        <ele>163.5</ele>
        <time>2021-05-20T15:21:51Z</time>
      </trkpt>
      <trkpt lat="42.2760550" lon="-8.6290470">
        <ele>163.4</ele>
        <time>2021-05-20T15:21:52Z</time>
      </trkpt>
      <trkpt lat="42.2760680" lon="-8.6290360">
        <ele>163.1</ele>
        <time>2021-05-20T15:21:53Z</time>
      </trkpt>
      <trkpt lat="42.2760760" lon="-8.6290310">
        <ele>163.0</ele>
        <time>2021-05-20T15:21:54Z</time>
      </trkpt>
      <trkpt lat="42.2760830" lon="-8.6290250">
        <ele>162.9</ele>
        <time>2021-05-20T15:21:55Z</time>
      </trkpt>
      <trkpt lat="42.2760910" lon="-8.6290190">
        <ele>162.7</ele>
        <time>2021-05-20T15:21:56Z</time>
      </trkpt>
      <trkpt lat="42.2761010" lon="-8.6290020">
        <ele>162.5</ele>
        <time>2021-05-20T15:21:57Z</time>
      </trkpt>
      <trkpt lat="42.2761090" lon="-8.6289820">
        <ele>162.2</ele>
        <time>2021-05-20T15:21:58Z</time>
      </trkpt>
      <trkpt lat="42.2761170" lon="-8.6289660">
        <ele>162.0</ele>
        <time>2021-05-20T15:21:59Z</time>
      </trkpt>
      <trkpt lat="42.2761290" lon="-8.6289520">
        <ele>161.8</ele>
        <time>2021-05-20T15:22:00Z</time>
      </trkpt>
      <trkpt lat="42.2761380" lon="-8.6289340">
        <ele>161.5</ele>
        <time>2021-05-20T15:22:01Z</time>
      </trkpt>
      <trkpt lat="42.2761420" lon="-8.6289270">
        <ele>161.4</ele>
        <time>2021-05-20T15:22:02Z</time>
      </trkpt>
      <trkpt lat="42.2761460" lon="-8.6289200">
        <ele>161.3</ele>
        <time>2021-05-20T15:22:03Z</time>
      </trkpt>
      <trkpt lat="42.2761500" lon="-8.6289130">
        <ele>161.2</ele>
        <time>2021-05-20T15:22:04Z</time>
      </trkpt>
      <trkpt lat="42.2761620" lon="-8.6289080">
        <ele>161.0</ele>
        <time>2021-05-20T15:22:05Z</time>
      </trkpt>
      <trkpt lat="42.2761750" lon="-8.6288960">
        <ele>160.8</ele>
        <time>2021-05-20T15:22:06Z</time>
      </trkpt>
      <trkpt lat="42.2761870" lon="-8.6288820">
        <ele>160.6</ele>
        <time>2021-05-20T15:22:07Z</time>
      </trkpt>
      <trkpt lat="42.2761930" lon="-8.6288750">
        <ele>160.4</ele>
        <time>2021-05-20T15:22:08Z</time>
      </trkpt>
      <trkpt lat="42.2761980" lon="-8.6288690">
        <ele>160.3</ele>
        <time>2021-05-20T15:22:09Z</time>
      </trkpt>
      <trkpt lat="42.2762030" lon="-8.6288620">
        <ele>160.2</ele>
        <time>2021-05-20T15:22:10Z</time>
      </trkpt>
      <trkpt lat="42.2762220" lon="-8.6288490">
        <ele>159.9</ele>
        <time>2021-05-20T15:22:11Z</time>
      </trkpt>
      <trkpt lat="42.2762290" lon="-8.6288400">
        <ele>159.8</ele>
        <time>2021-05-20T15:22:12Z</time>
      </trkpt>
      <trkpt lat="42.2762350" lon="-8.6288320">
        <ele>159.7</ele>
        <time>2021-05-20T15:22:13Z</time>
      </trkpt>
      <trkpt lat="42.2762390" lon="-8.6288280">
        <ele>159.6</ele>
        <time>2021-05-20T15:22:14Z</time>
      </trkpt>
      <trkpt lat="42.2762350" lon="-8.6288310">
        <ele>159.5</ele>
        <time>2021-05-20T15:22:15Z</time>
      </trkpt>
      <trkpt lat="42.2762380" lon="-8.6288310">
        <ele>159.5</ele>
        <time>2021-05-20T15:22:16Z</time>
      </trkpt>
      <trkpt lat="42.2762410" lon="-8.6288260">
        <ele>159.4</ele>
        <time>2021-05-20T15:22:17Z</time>
      </trkpt>
      <trkpt lat="42.2762410" lon="-8.6288230">
        <ele>159.4</ele>
        <time>2021-05-20T15:22:18Z</time>
      </trkpt>
      <trkpt lat="42.2762480" lon="-8.6288170">
        <ele>159.3</ele>
        <time>2021-05-20T15:22:19Z</time>
      </trkpt>
      <trkpt lat="42.2762540" lon="-8.6288120">
        <ele>159.2</ele>
        <time>2021-05-20T15:22:20Z</time>
      </trkpt>
      <trkpt lat="42.2762500" lon="-8.6288160">
        <ele>159.1</ele>
        <time>2021-05-20T15:22:21Z</time>
      </trkpt>
      <trkpt lat="42.2762500" lon="-8.6288130">
        <ele>159.1</ele>
        <time>2021-05-20T15:22:22Z</time>
      </trkpt>
      <trkpt lat="42.2762570" lon="-8.6288090">
        <ele>159.0</ele>
        <time>2021-05-20T15:22:23Z</time>
      </trkpt>
      <trkpt lat="42.2762690" lon="-8.6288120">
        <ele>158.8</ele>
        <time>2021-05-20T15:22:24Z</time>
      </trkpt>
      <trkpt lat="42.2762860" lon="-8.6288100">
        <ele>158.6</ele>
        <time>2021-05-20T15:22:25Z</time>
      </trkpt>
      <trkpt lat="42.2763000" lon="-8.6288090">
        <ele>158.4</ele>
        <time>2021-05-20T15:22:26Z</time>
      </trkpt>
      <trkpt lat="42.2763160" lon="-8.6288030">
        <ele>158.2</ele>
        <time>2021-05-20T15:22:27Z</time>
      </trkpt>
      <trkpt lat="42.2763280" lon="-8.6287930">
        <ele>158.0</ele>
        <time>2021-05-20T15:22:28Z</time>
      </trkpt>
      <trkpt lat="42.2763410" lon="-8.6287880">
        <ele>157.8</ele>
        <time>2021-05-20T15:22:29Z</time>
      </trkpt>
      <trkpt lat="42.2763510" lon="-8.6287850">
        <ele>157.7</ele>
        <time>2021-05-20T15:22:30Z</time>
      </trkpt>
      <trkpt lat="42.2763670" lon="-8.6287780">
        <ele>157.5</ele>
        <time>2021-05-20T15:22:31Z</time>
      </trkpt>
      <trkpt lat="42.2763710" lon="-8.6287710">
        <ele>157.4</ele>
        <time>2021-05-20T15:22:32Z</time>
      </trkpt>
      <trkpt lat="42.2763870" lon="-8.6287600">
        <ele>157.2</ele>
        <time>2021-05-20T15:22:33Z</time>
      </trkpt>
      <trkpt lat="42.2763970" lon="-8.6287510">
        <ele>157.0</ele>
        <time>2021-05-20T15:22:34Z</time>
      </trkpt>
      <trkpt lat="42.2764130" lon="-8.6287400">
        <ele>156.8</ele>
        <time>2021-05-20T15:22:35Z</time>
      </trkpt>
      <trkpt lat="42.2764200" lon="-8.6287360">
        <ele>156.7</ele>
        <time>2021-05-20T15:22:36Z</time>
      </trkpt>
      <trkpt lat="42.2764280" lon="-8.6287310">
        <ele>156.6</ele>
        <time>2021-05-20T15:22:37Z</time>
      </trkpt>
      <trkpt lat="42.2764350" lon="-8.6287270">
        <ele>156.5</ele>
        <time>2021-05-20T15:22:38Z</time>
      </trkpt>
      <trkpt lat="42.2764410" lon="-8.6287220">
        <ele>156.4</ele>
        <time>2021-05-20T15:22:39Z</time>
      </trkpt>
      <trkpt lat="42.2764500" lon="-8.6287150">
        <ele>156.2</ele>
        <time>2021-05-20T15:22:40Z</time>
      </trkpt>
      <trkpt lat="42.2764630" lon="-8.6287130">
        <ele>156.0</ele>
        <time>2021-05-20T15:22:41Z</time>
      </trkpt>
      <trkpt lat="42.2764700" lon="-8.6286970">
        <ele>155.8</ele>
        <time>2021-05-20T15:22:42Z</time>
      </trkpt>
      <trkpt lat="42.2764790" lon="-8.6286920">
        <ele>155.7</ele>
        <time>2021-05-20T15:22:43Z</time>
      </trkpt>
      <trkpt lat="42.2764890" lon="-8.6286890">
        <ele>155.5</ele>
        <time>2021-05-20T15:22:44Z</time>
      </trkpt>
      <trkpt lat="42.2764910" lon="-8.6286920">
        <ele>155.5</ele>
        <time>2021-05-20T15:22:45Z</time>
      </trkpt>
      <trkpt lat="42.2764970" lon="-8.6286860">
        <ele>155.4</ele>
        <time>2021-05-20T15:22:46Z</time>
      </trkpt>
      <trkpt lat="42.2765100" lon="-8.6286720">
        <ele>155.1</ele>
        <time>2021-05-20T15:22:47Z</time>
      </trkpt>
      <trkpt lat="42.2765180" lon="-8.6286630">
        <ele>155.0</ele>
        <time>2021-05-20T15:22:48Z</time>
      </trkpt>
      <trkpt lat="42.2765220" lon="-8.6286530">
        <ele>154.8</ele>
        <time>2021-05-20T15:22:49Z</time>
      </trkpt>
      <trkpt lat="42.2765290" lon="-8.6286440">
        <ele>154.7</ele>
        <time>2021-05-20T15:22:50Z</time>
      </trkpt>
      <trkpt lat="42.2765270" lon="-8.6286300">
        <ele>154.5</ele>
        <time>2021-05-20T15:22:51Z</time>
      </trkpt>
      <trkpt lat="42.2765270" lon="-8.6286180">
        <ele>154.4</ele>
        <time>2021-05-20T15:22:52Z</time>
      </trkpt>
      <trkpt lat="42.2765280" lon="-8.6285900">
        <ele>154.0</ele>
        <time>2021-05-20T15:22:53Z</time>
      </trkpt>
      <trkpt lat="42.2765270" lon="-8.6285790">
        <ele>153.9</ele>
        <time>2021-05-20T15:22:54Z</time>
      </trkpt>
      <trkpt lat="42.2765260" lon="-8.6285680">
        <ele>153.7</ele>
        <time>2021-05-20T15:22:55Z</time>
      </trkpt>
      <trkpt lat="42.2765250" lon="-8.6285620">
        <ele>153.7</ele>
        <time>2021-05-20T15:22:56Z</time>
      </trkpt>
      <trkpt lat="42.2765200" lon="-8.6285500">
        <ele>153.5</ele>
        <time>2021-05-20T15:22:57Z</time>
      </trkpt>
      <trkpt lat="42.2765080" lon="-8.6285360">
        <ele>153.2</ele>
        <time>2021-05-20T15:22:58Z</time>
      </trkpt>
      <trkpt lat="42.2764930" lon="-8.6285160">
        <ele>152.9</ele>
        <time>2021-05-20T15:22:59Z</time>
      </trkpt>
      <trkpt lat="42.2764860" lon="-8.6285090">
        <ele>152.7</ele>
        <time>2021-05-20T15:23:00Z</time>
      </trkpt>
      <trkpt lat="42.2764780" lon="-8.6285010">
        <ele>152.6</ele>
        <time>2021-05-20T15:23:01Z</time>
      </trkpt>
      <trkpt lat="42.2764680" lon="-8.6284880">
        <ele>152.3</ele>
        <time>2021-05-20T15:23:02Z</time>
      </trkpt>
      <trkpt lat="42.2764540" lon="-8.6284730">
        <ele>152.0</ele>
        <time>2021-05-20T15:23:03Z</time>
      </trkpt>
      <trkpt lat="42.2764430" lon="-8.6284600">
        <ele>151.8</ele>
        <time>2021-05-20T15:23:04Z</time>
      </trkpt>
      <trkpt lat="42.2764310" lon="-8.6284480">
        <ele>151.5</ele>
        <time>2021-05-20T15:23:05Z</time>
      </trkpt>
      <trkpt lat="42.2764150" lon="-8.6284280">
        <ele>151.2</ele>
        <time>2021-05-20T15:23:06Z</time>
      </trkpt>
      <trkpt lat="42.2764080" lon="-8.6284220">
        <ele>151.1</ele>
        <time>2021-05-20T15:23:07Z</time>
      </trkpt>
      <trkpt lat="42.2764010" lon="-8.6284150">
        <ele>150.9</ele>
        <time>2021-05-20T15:23:08Z</time>
      </trkpt>
      <trkpt lat="42.2763930" lon="-8.6284040">
        <ele>150.8</ele>
        <time>2021-05-20T15:23:09Z</time>
      </trkpt>
      <trkpt lat="42.2763860" lon="-8.6284020">
        <ele>150.7</ele>
        <time>2021-05-20T15:23:10Z</time>
      </trkpt>
      <trkpt lat="42.2763750" lon="-8.6283920">
        <ele>150.5</ele>
        <time>2021-05-20T15:23:11Z</time>
      </trkpt>
      <trkpt lat="42.2763630" lon="-8.6283880">
        <ele>150.3</ele>
        <time>2021-05-20T15:23:12Z</time>
      </trkpt>
      <trkpt lat="42.2763530" lon="-8.6283850">
        <ele>150.1</ele>
        <time>2021-05-20T15:23:13Z</time>
      </trkpt>
      <trkpt lat="42.2763440" lon="-8.6283830">
        <ele>150.0</ele>
        <time>2021-05-20T15:23:14Z</time>
      </trkpt>
      <trkpt lat="42.2763340" lon="-8.6283800">
        <ele>149.9</ele>
        <time>2021-05-20T15:23:15Z</time>
      </trkpt>
      <trkpt lat="42.2763270" lon="-8.6283780">
        <ele>149.8</ele>
        <time>2021-05-20T15:23:16Z</time>
      </trkpt>
      <trkpt lat="42.2763140" lon="-8.6283760">
        <ele>149.6</ele>
        <time>2021-05-20T15:23:17Z</time>
      </trkpt>
      <trkpt lat="42.2763040" lon="-8.6283850">
        <ele>149.4</ele>
        <time>2021-05-20T15:23:18Z</time>
      </trkpt>
      <trkpt lat="42.2762950" lon="-8.6283920">
        <ele>149.3</ele>
        <time>2021-05-20T15:23:19Z</time>
      </trkpt>
      <trkpt lat="42.2762880" lon="-8.6283980">
        <ele>149.2</ele>
        <time>2021-05-20T15:23:20Z</time>
      </trkpt>
      <trkpt lat="42.2762810" lon="-8.6284010">
        <ele>149.1</ele>
        <time>2021-05-20T15:23:21Z</time>
      </trkpt>
      <trkpt lat="42.2762750" lon="-8.6284020">
        <ele>149.0</ele>
        <time>2021-05-20T15:23:22Z</time>
      </trkpt>
      <trkpt lat="42.2762810" lon="-8.6283960">
        <ele>148.9</ele>
        <time>2021-05-20T15:23:23Z</time>
      </trkpt>
      <trkpt lat="42.2762700" lon="-8.6283970">
        <ele>148.8</ele>
        <time>2021-05-20T15:23:24Z</time>
      </trkpt>
      <trkpt lat="42.2762500" lon="-8.6283960">
        <ele>148.6</ele>
        <time>2021-05-20T15:23:25Z</time>
      </trkpt>
      <trkpt lat="42.2762480" lon="-8.6284070">
        <ele>148.5</ele>
        <time>2021-05-20T15:23:26Z</time>
      </trkpt>
      <trkpt lat="42.2762320" lon="-8.6284100">
        <ele>148.3</ele>
        <time>2021-05-20T15:23:27Z</time>
      </trkpt>
      <trkpt lat="42.2762190" lon="-8.6284100">
        <ele>148.1</ele>
        <time>2021-05-20T15:23:28Z</time>
      </trkpt>
      <trkpt lat="42.2762070" lon="-8.6284190">
        <ele>147.9</ele>
        <time>2021-05-20T15:23:29Z</time>
      </trkpt>
      <trkpt lat="42.2762000" lon="-8.6284240">
        <ele>147.8</ele>
        <time>2021-05-20T15:23:30Z</time>
      </trkpt>
      <trkpt lat="42.2761880" lon="-8.6284350">
        <ele>147.6</ele>
        <time>2021-05-20T15:23:31Z</time>
      </trkpt>
      <trkpt lat="42.2761640" lon="-8.6284390">
        <ele>147.3</ele>
        <time>2021-05-20T15:23:32Z</time>
      </trkpt>
      <trkpt lat="42.2761570" lon="-8.6284440">
        <ele>147.2</ele>
        <time>2021-05-20T15:23:33Z</time>
      </trkpt>
      <trkpt lat="42.2761510" lon="-8.6284490">
        <ele>147.2</ele>
        <time>2021-05-20T15:23:34Z</time>
      </trkpt>
      <trkpt lat="42.2761460" lon="-8.6284560">
        <ele>147.1</ele>
        <time>2021-05-20T15:23:35Z</time>
      </trkpt>
      <trkpt lat="42.2761310" lon="-8.6284630">
        <ele>146.9</ele>
        <time>2021-05-20T15:23:36Z</time>
      </trkpt>
      <trkpt lat="42.2761160" lon="-8.6284600">
        <ele>146.7</ele>
        <time>2021-05-20T15:23:37Z</time>
      </trkpt>
      <trkpt lat="42.2761120" lon="-8.6284620">
        <ele>146.6</ele>
        <time>2021-05-20T15:23:38Z</time>
      </trkpt>
      <trkpt lat="42.2761030" lon="-8.6284670">
        <ele>146.5</ele>
        <time>2021-05-20T15:23:39Z</time>
      </trkpt>
      <trkpt lat="42.2760860" lon="-8.6284580">
        <ele>146.3</ele>
        <time>2021-05-20T15:23:40Z</time>
      </trkpt>
      <trkpt lat="42.2760770" lon="-8.6284520">
        <ele>146.1</ele>
        <time>2021-05-20T15:23:41Z</time>
      </trkpt>
      <trkpt lat="42.2760600" lon="-8.6284400">
        <ele>145.9</ele>
        <time>2021-05-20T15:23:42Z</time>
      </trkpt>
      <trkpt lat="42.2760530" lon="-8.6284360">
        <ele>145.8</ele>
        <time>2021-05-20T15:23:43Z</time>
      </trkpt>
      <trkpt lat="42.2760440" lon="-8.6284240">
        <ele>145.6</ele>
        <time>2021-05-20T15:23:44Z</time>
      </trkpt>
      <trkpt lat="42.2760420" lon="-8.6284140">
        <ele>145.5</ele>
        <time>2021-05-20T15:23:45Z</time>
      </trkpt>
      <trkpt lat="42.2760400" lon="-8.6284020">
        <ele>145.4</ele>
        <time>2021-05-20T15:23:46Z</time>
      </trkpt>
      <trkpt lat="42.2760310" lon="-8.6283800">
        <ele>145.1</ele>
        <time>2021-05-20T15:23:47Z</time>
      </trkpt>
      <trkpt lat="42.2760320" lon="-8.6283700">
        <ele>145.0</ele>
        <time>2021-05-20T15:23:48Z</time>
      </trkpt>
      <trkpt lat="42.2760320" lon="-8.6283590">
        <ele>144.9</ele>
        <time>2021-05-20T15:23:49Z</time>
      </trkpt>
      <trkpt lat="42.2760320" lon="-8.6283480">
        <ele>144.8</ele>
        <time>2021-05-20T15:23:50Z</time>
      </trkpt>
      <trkpt lat="42.2760360" lon="-8.6283300">
        <ele>144.6</ele>
        <time>2021-05-20T15:23:51Z</time>
      </trkpt>
      <trkpt lat="42.2760420" lon="-8.6283120">
        <ele>144.4</ele>
        <time>2021-05-20T15:23:52Z</time>
      </trkpt>
      <trkpt lat="42.2760410" lon="-8.6282970">
        <ele>144.2</ele>
        <time>2021-05-20T15:23:53Z</time>
      </trkpt>
      <trkpt lat="42.2760410" lon="-8.6282870">
        <ele>144.1</ele>
        <time>2021-05-20T15:23:54Z</time>
      </trkpt>
      <trkpt lat="42.2760410" lon="-8.6282730">
        <ele>144.0</ele>
        <time>2021-05-20T15:23:55Z</time>
      </trkpt>
      <trkpt lat="42.2760440" lon="-8.6282540">
        <ele>143.8</ele>
        <time>2021-05-20T15:23:56Z</time>
      </trkpt>
      <trkpt lat="42.2760560" lon="-8.6282320">
        <ele>143.5</ele>
        <time>2021-05-20T15:23:57Z</time>
      </trkpt>
      <trkpt lat="42.2760700" lon="-8.6282150">
        <ele>143.3</ele>
        <time>2021-05-20T15:23:58Z</time>
      </trkpt>
      <trkpt lat="42.2760760" lon="-8.6282060">
        <ele>143.2</ele>
        <time>2021-05-20T15:23:59Z</time>
      </trkpt>
      <trkpt lat="42.2760830" lon="-8.6281980">
        <ele>143.1</ele>
        <time>2021-05-20T15:24:00Z</time>
      </trkpt>
      <trkpt lat="42.2760940" lon="-8.6281930">
        <ele>142.9</ele>
        <time>2021-05-20T15:24:01Z</time>
      </trkpt>
      <trkpt lat="42.2761060" lon="-8.6281870">
        <ele>142.8</ele>
        <time>2021-05-20T15:24:02Z</time>
      </trkpt>
      <trkpt lat="42.2761160" lon="-8.6281800">
        <ele>142.6</ele>
        <time>2021-05-20T15:24:03Z</time>
      </trkpt>
      <trkpt lat="42.2761280" lon="-8.6281830">
        <ele>142.5</ele>
        <time>2021-05-20T15:24:04Z</time>
      </trkpt>
      <trkpt lat="42.2761390" lon="-8.6281840">
        <ele>142.4</ele>
        <time>2021-05-20T15:24:05Z</time>
      </trkpt>
      <trkpt lat="42.2761470" lon="-8.6281780">
        <ele>142.3</ele>
        <time>2021-05-20T15:24:06Z</time>
      </trkpt>
      <trkpt lat="42.2761610" lon="-8.6281720">
        <ele>142.1</ele>
        <time>2021-05-20T15:24:07Z</time>
      </trkpt>
      <trkpt lat="42.2761760" lon="-8.6281650">
        <ele>141.9</ele>
        <time>2021-05-20T15:24:08Z</time>
      </trkpt>
      <trkpt lat="42.2761850" lon="-8.6281590">
        <ele>141.8</ele>
        <time>2021-05-20T15:24:09Z</time>
      </trkpt>
      <trkpt lat="42.2761940" lon="-8.6281580">
        <ele>141.7</ele>
        <time>2021-05-20T15:24:10Z</time>
      </trkpt>
      <trkpt lat="42.2762020" lon="-8.6281550">
        <ele>141.6</ele>
        <time>2021-05-20T15:24:11Z</time>
      </trkpt>
      <trkpt lat="42.2762180" lon="-8.6281520">
        <ele>141.5</ele>
        <time>2021-05-20T15:24:12Z</time>
      </trkpt>
      <trkpt lat="42.2762340" lon="-8.6281520">
        <ele>141.3</ele>
        <time>2021-05-20T15:24:13Z</time>
      </trkpt>
      <trkpt lat="42.2762360" lon="-8.6281430">
        <ele>141.3</ele>
        <time>2021-05-20T15:24:14Z</time>
      </trkpt>
      <trkpt lat="42.2762500" lon="-8.6281360">
        <ele>141.1</ele>
        <time>2021-05-20T15:24:15Z</time>
      </trkpt>
      <trkpt lat="42.2762650" lon="-8.6281350">
        <ele>141.0</ele>
        <time>2021-05-20T15:24:16Z</time>
      </trkpt>
      <trkpt lat="42.2762830" lon="-8.6281290">
        <ele>140.8</ele>
        <time>2021-05-20T15:24:17Z</time>
      </trkpt>
      <trkpt lat="42.2762930" lon="-8.6281260">
        <ele>140.7</ele>
        <time>2021-05-20T15:24:18Z</time>
      </trkpt>
      <trkpt lat="42.2763020" lon="-8.6281240">
        <ele>140.7</ele>
        <time>2021-05-20T15:24:19Z</time>
      </trkpt>
      <trkpt lat="42.2763080" lon="-8.6281220">
        <ele>140.6</ele>
        <time>2021-05-20T15:24:20Z</time>
      </trkpt>
      <trkpt lat="42.2763260" lon="-8.6281140">
        <ele>140.4</ele>
        <time>2021-05-20T15:24:21Z</time>
      </trkpt>
      <trkpt lat="42.2763330" lon="-8.6281060">
        <ele>140.4</ele>
        <time>2021-05-20T15:24:22Z</time>
      </trkpt>
      <trkpt lat="42.2763410" lon="-8.6281020">
        <ele>140.3</ele>
        <time>2021-05-20T15:24:23Z</time>
      </trkpt>
      <trkpt lat="42.2763560" lon="-8.6280910">
        <ele>140.1</ele>
        <time>2021-05-20T15:24:24Z</time>
      </trkpt>
      <trkpt lat="42.2763620" lon="-8.6280860">
        <ele>140.1</ele>
        <time>2021-05-20T15:24:25Z</time>
      </trkpt>
      <trkpt lat="42.2763760" lon="-8.6280720">
        <ele>139.9</ele>
        <time>2021-05-20T15:24:26Z</time>
      </trkpt>
      <trkpt lat="42.2763840" lon="-8.6280720">
        <ele>139.8</ele>
        <time>2021-05-20T15:24:27Z</time>
      </trkpt>
      <trkpt lat="42.2763910" lon="-8.6280690">
        <ele>139.8</ele>
        <time>2021-05-20T15:24:28Z</time>
      </trkpt>
      <trkpt lat="42.2764140" lon="-8.6280590">
        <ele>139.6</ele>
        <time>2021-05-20T15:24:29Z</time>
      </trkpt>
      <trkpt lat="42.2764200" lon="-8.6280540">
        <ele>139.5</ele>
        <time>2021-05-20T15:24:30Z</time>
      </trkpt>
      <trkpt lat="42.2764260" lon="-8.6280500">
        <ele>139.5</ele>
        <time>2021-05-20T15:24:31Z</time>
      </trkpt>
      <trkpt lat="42.2764410" lon="-8.6280450">
        <ele>139.3</ele>
        <time>2021-05-20T15:24:32Z</time>
      </trkpt>
      <trkpt lat="42.2764570" lon="-8.6280360">
        <ele>139.2</ele>
        <time>2021-05-20T15:24:33Z</time>
      </trkpt>
      <trkpt lat="42.2764690" lon="-8.6280290">
        <ele>139.0</ele>
        <time>2021-05-20T15:24:34Z</time>
      </trkpt>
      <trkpt lat="42.2764790" lon="-8.6280320">
        <ele>138.9</ele>
        <time>2021-05-20T15:24:35Z</time>
      </trkpt>
      <trkpt lat="42.2764870" lon="-8.6280270">
        <ele>138.8</ele>
        <time>2021-05-20T15:24:36Z</time>
      </trkpt>
      <trkpt lat="42.2764990" lon="-8.6280230">
        <ele>138.7</ele>
        <time>2021-05-20T15:24:37Z</time>
      </trkpt>
      <trkpt lat="42.2765090" lon="-8.6280180">
        <ele>138.6</ele>
        <time>2021-05-20T15:24:38Z</time>
      </trkpt>
      <trkpt lat="42.2765140" lon="-8.6280110">
        <ele>138.6</ele>
        <time>2021-05-20T15:24:39Z</time>
      </trkpt>
      <trkpt lat="42.2765310" lon="-8.6280030">
        <ele>138.4</ele>
        <time>2021-05-20T15:24:40Z</time>
      </trkpt>
      <trkpt lat="42.2765390" lon="-8.6279980">
        <ele>138.3</ele>
        <time>2021-05-20T15:24:41Z</time>
      </trkpt>
      <trkpt lat="42.2765460" lon="-8.6279940">
        <ele>138.2</ele>
        <time>2021-05-20T15:24:42Z</time>
      </trkpt>
      <trkpt lat="42.2765530" lon="-8.6279890">
        <ele>138.1</ele>
        <time>2021-05-20T15:24:43Z</time>
      </trkpt>
      <trkpt lat="42.2765660" lon="-8.6279770">
        <ele>138.0</ele>
        <time>2021-05-20T15:24:44Z</time>
      </trkpt>
      <trkpt lat="42.2765740" lon="-8.6279710">
        <ele>137.9</ele>
        <time>2021-05-20T15:24:45Z</time>
      </trkpt>
      <trkpt lat="42.2765810" lon="-8.6279670">
        <ele>137.8</ele>
        <time>2021-05-20T15:24:46Z</time>
      </trkpt>
      <trkpt lat="42.2765910" lon="-8.6279640">
        <ele>137.7</ele>
        <time>2021-05-20T15:24:47Z</time>
      </trkpt>
      <trkpt lat="42.2766020" lon="-8.6279580">
        <ele>137.6</ele>
        <time>2021-05-20T15:24:48Z</time>
      </trkpt>
      <trkpt lat="42.2766140" lon="-8.6279540">
        <ele>137.4</ele>
        <time>2021-05-20T15:24:49Z</time>
      </trkpt>
      <trkpt lat="42.2766310" lon="-8.6279480">
        <ele>137.2</ele>
        <time>2021-05-20T15:24:50Z</time>
      </trkpt>
      <trkpt lat="42.2766390" lon="-8.6279460">
        <ele>137.2</ele>
        <time>2021-05-20T15:24:51Z</time>
      </trkpt>
      <trkpt lat="42.2766460" lon="-8.6279430">
        <ele>137.1</ele>
        <time>2021-05-20T15:24:52Z</time>
      </trkpt>
      <trkpt lat="42.2766540" lon="-8.6279400">
        <ele>137.0</ele>
        <time>2021-05-20T15:24:53Z</time>
      </trkpt>
      <trkpt lat="42.2766640" lon="-8.6279360">
        <ele>136.9</ele>
        <time>2021-05-20T15:24:54Z</time>
      </trkpt>
      <trkpt lat="42.2766770" lon="-8.6279340">
        <ele>136.7</ele>
        <time>2021-05-20T15:24:55Z</time>
      </trkpt>
      <trkpt lat="42.2766830" lon="-8.6279270">
        <ele>136.6</ele>
        <time>2021-05-20T15:24:56Z</time>
      </trkpt>
      <trkpt lat="42.2766940" lon="-8.6279210">
        <ele>136.5</ele>
        <time>2021-05-20T15:24:57Z</time>
      </trkpt>
      <trkpt lat="42.2767040" lon="-8.6279150">
        <ele>136.4</ele>
        <time>2021-05-20T15:24:58Z</time>
      </trkpt>
      <trkpt lat="42.2767170" lon="-8.6279130">
        <ele>136.2</ele>
        <time>2021-05-20T15:24:59Z</time>
      </trkpt>
      <trkpt lat="42.2767310" lon="-8.6279020">
        <ele>136.0</ele>
        <time>2021-05-20T15:25:00Z</time>
      </trkpt>
      <trkpt lat="42.2767430" lon="-8.6279000">
        <ele>135.9</ele>
        <time>2021-05-20T15:25:01Z</time>
      </trkpt>
      <trkpt lat="42.2767510" lon="-8.6278920">
        <ele>135.8</ele>
        <time>2021-05-20T15:25:02Z</time>
      </trkpt>
      <trkpt lat="42.2767630" lon="-8.6278930">
        <ele>135.6</ele>
        <time>2021-05-20T15:25:03Z</time>
      </trkpt>
      <trkpt lat="42.2767760" lon="-8.6278950">
        <ele>135.5</ele>
        <time>2021-05-20T15:25:04Z</time>
      </trkpt>
      <trkpt lat="42.2767960" lon="-8.6278890">
        <ele>135.2</ele>
        <time>2021-05-20T15:25:05Z</time>
      </trkpt>
      <trkpt lat="42.2768050" lon="-8.6278870">
        <ele>135.1</ele>
        <time>2021-05-20T15:25:06Z</time>
      </trkpt>
      <trkpt lat="42.2768140" lon="-8.6278850">
        <ele>135.0</ele>
        <time>2021-05-20T15:25:07Z</time>
      </trkpt>
      <trkpt lat="42.2768250" lon="-8.6278790">
        <ele>134.9</ele>
        <time>2021-05-20T15:25:08Z</time>
      </trkpt>
      <trkpt lat="42.2768450" lon="-8.6278780">
        <ele>134.7</ele>
        <time>2021-05-20T15:25:09Z</time>
      </trkpt>
      <trkpt lat="42.2768500" lon="-8.6278790">
        <ele>134.6</ele>
        <time>2021-05-20T15:25:10Z</time>
      </trkpt>
      <trkpt lat="42.2768660" lon="-8.6278750">
        <ele>134.4</ele>
        <time>2021-05-20T15:25:11Z</time>
      </trkpt>
      <trkpt lat="42.2768730" lon="-8.6278710">
        <ele>134.3</ele>
        <time>2021-05-20T15:25:12Z</time>
      </trkpt>
      <trkpt lat="42.2768910" lon="-8.6278650">
        <ele>134.1</ele>
        <time>2021-05-20T15:25:13Z</time>
      </trkpt>
      <trkpt lat="42.2769000" lon="-8.6278680">
        <ele>134.0</ele>
        <time>2021-05-20T15:25:14Z</time>
      </trkpt>
      <trkpt lat="42.2769080" lon="-8.6278680">
        <ele>133.9</ele>
        <time>2021-05-20T15:25:15Z</time>
      </trkpt>
      <trkpt lat="42.2769270" lon="-8.6278610">
        <ele>133.7</ele>
        <time>2021-05-20T15:25:16Z</time>
      </trkpt>
      <trkpt lat="42.2769420" lon="-8.6278560">
        <ele>133.5</ele>
        <time>2021-05-20T15:25:17Z</time>
      </trkpt>
      <trkpt lat="42.2769550" lon="-8.6278480">
        <ele>133.4</ele>
        <time>2021-05-20T15:25:18Z</time>
      </trkpt>
      <trkpt lat="42.2769690" lon="-8.6278450">
        <ele>133.2</ele>
        <time>2021-05-20T15:25:19Z</time>
      </trkpt>
      <trkpt lat="42.2769850" lon="-8.6278420">
        <ele>133.0</ele>
        <time>2021-05-20T15:25:20Z</time>
      </trkpt>
      <trkpt lat="42.2769990" lon="-8.6278480">
        <ele>132.9</ele>
        <time>2021-05-20T15:25:21Z</time>
      </trkpt>
      <trkpt lat="42.2770160" lon="-8.6278490">
        <ele>132.7</ele>
        <time>2021-05-20T15:25:22Z</time>
      </trkpt>
      <trkpt lat="42.2770290" lon="-8.6278450">
        <ele>132.5</ele>
        <time>2021-05-20T15:25:23Z</time>
      </trkpt>
      <trkpt lat="42.2770460" lon="-8.6278440">
        <ele>132.3</ele>
        <time>2021-05-20T15:25:24Z</time>
      </trkpt>
      <trkpt lat="42.2770680" lon="-8.6278430">
        <ele>132.0</ele>
        <time>2021-05-20T15:25:25Z</time>
      </trkpt>
      <trkpt lat="42.2770790" lon="-8.6278420">
        <ele>131.9</ele>
        <time>2021-05-20T15:25:26Z</time>
      </trkpt>
      <trkpt lat="42.2770890" lon="-8.6278400">
        <ele>131.8</ele>
        <time>2021-05-20T15:25:27Z</time>
      </trkpt>
      <trkpt lat="42.2770940" lon="-8.6278270">
        <ele>131.7</ele>
        <time>2021-05-20T15:25:28Z</time>
      </trkpt>
      <trkpt lat="42.2771050" lon="-8.6278220">
        <ele>131.6</ele>
        <time>2021-05-20T15:25:29Z</time>
      </trkpt>
      <trkpt lat="42.2771190" lon="-8.6278140">
        <ele>131.4</ele>
        <time>2021-05-20T15:25:30Z</time>
      </trkpt>
      <trkpt lat="42.2771270" lon="-8.6278060">
        <ele>131.3</ele>
        <time>2021-05-20T15:25:31Z</time>
      </trkpt>
      <trkpt lat="42.2771370" lon="-8.6277970">
        <ele>131.2</ele>
        <time>2021-05-20T15:25:32Z</time>
      </trkpt>
      <trkpt lat="42.2771420" lon="-8.6277940">
        <ele>131.1</ele>
        <time>2021-05-20T15:25:33Z</time>
      </trkpt>
      <trkpt lat="42.2771500" lon="-8.6278020">
        <ele>131.0</ele>
        <time>2021-05-20T15:25:34Z</time>
      </trkpt>
      <trkpt lat="42.2771600" lon="-8.6278080">
        <ele>130.9</ele>
        <time>2021-05-20T15:25:35Z</time>
      </trkpt>
      <trkpt lat="42.2771630" lon="-8.6278060">
        <ele>130.8</ele>
        <time>2021-05-20T15:25:36Z</time>
      </trkpt>
      <trkpt lat="42.2771710" lon="-8.6278070">
        <ele>130.8</ele>
        <time>2021-05-20T15:25:37Z</time>
      </trkpt>
      <trkpt lat="42.2771910" lon="-8.6278080">
        <ele>130.5</ele>
        <time>2021-05-20T15:25:38Z</time>
      </trkpt>
      <trkpt lat="42.2771990" lon="-8.6278070">
        <ele>130.4</ele>
        <time>2021-05-20T15:25:39Z</time>
      </trkpt>
      <trkpt lat="42.2772080" lon="-8.6278050">
        <ele>130.3</ele>
        <time>2021-05-20T15:25:40Z</time>
      </trkpt>
      <trkpt lat="42.2772260" lon="-8.6277990">
        <ele>130.1</ele>
        <time>2021-05-20T15:25:41Z</time>
      </trkpt>
      <trkpt lat="42.2772350" lon="-8.6277970">
        <ele>130.0</ele>
        <time>2021-05-20T15:25:42Z</time>
      </trkpt>
      <trkpt lat="42.2772450" lon="-8.6277960">
        <ele>129.9</ele>
        <time>2021-05-20T15:25:43Z</time>
      </trkpt>
      <trkpt lat="42.2772640" lon="-8.6277940">
        <ele>129.7</ele>
        <time>2021-05-20T15:25:44Z</time>
      </trkpt>
      <trkpt lat="42.2772710" lon="-8.6277950">
        <ele>129.6</ele>
        <time>2021-05-20T15:25:45Z</time>
      </trkpt>
      <trkpt lat="42.2772770" lon="-8.6277960">
        <ele>129.5</ele>
        <time>2021-05-20T15:25:46Z</time>
      </trkpt>
      <trkpt lat="42.2772830" lon="-8.6277970">
        <ele>129.4</ele>
        <time>2021-05-20T15:25:47Z</time>
      </trkpt>
      <trkpt lat="42.2772970" lon="-8.6278040">
        <ele>129.3</ele>
        <time>2021-05-20T15:25:48Z</time>
      </trkpt>
      <trkpt lat="42.2773050" lon="-8.6278050">
        <ele>129.2</ele>
        <time>2021-05-20T15:25:49Z</time>
      </trkpt>
      <trkpt lat="42.2773140" lon="-8.6278060">
        <ele>129.0</ele>
        <time>2021-05-20T15:25:50Z</time>
      </trkpt>
      <trkpt lat="42.2773220" lon="-8.6278070">
        <ele>129.0</ele>
        <time>2021-05-20T15:25:51Z</time>
      </trkpt>
      <trkpt lat="42.2773360" lon="-8.6278180">
        <ele>128.8</ele>
        <time>2021-05-20T15:25:52Z</time>
      </trkpt>
      <trkpt lat="42.2773390" lon="-8.6278190">
        <ele>128.7</ele>
        <time>2021-05-20T15:25:53Z</time>
      </trkpt>
      <trkpt lat="42.2773510" lon="-8.6278190">
        <ele>128.6</ele>
        <time>2021-05-20T15:25:54Z</time>
      </trkpt>
      <trkpt lat="42.2773670" lon="-8.6278250">
        <ele>128.4</ele>
        <time>2021-05-20T15:25:55Z</time>
      </trkpt>
      <trkpt lat="42.2773770" lon="-8.6278260">
        <ele>128.3</ele>
        <time>2021-05-20T15:25:56Z</time>
      </trkpt>
      <trkpt lat="42.2773860" lon="-8.6278270">
        <ele>128.2</ele>
        <time>2021-05-20T15:25:57Z</time>
      </trkpt>
      <trkpt lat="42.2773950" lon="-8.6278280">
        <ele>128.0</ele>
        <time>2021-05-20T15:25:58Z</time>
      </trkpt>
      <trkpt lat="42.2774130" lon="-8.6278290">
        <ele>127.8</ele>
        <time>2021-05-20T15:25:59Z</time>
      </trkpt>
      <trkpt lat="42.2774290" lon="-8.6278300">
        <ele>127.6</ele>
        <time>2021-05-20T15:26:00Z</time>
      </trkpt>
      <trkpt lat="42.2774400" lon="-8.6278350">
        <ele>127.5</ele>
        <time>2021-05-20T15:26:01Z</time>
      </trkpt>
      <trkpt lat="42.2774570" lon="-8.6278380">
        <ele>127.3</ele>
        <time>2021-05-20T15:26:02Z</time>
      </trkpt>
      <trkpt lat="42.2774640" lon="-8.6278410">
        <ele>127.2</ele>
        <time>2021-05-20T15:26:03Z</time>
      </trkpt>
      <trkpt lat="42.2774810" lon="-8.6278400">
        <ele>127.0</ele>
        <time>2021-05-20T15:26:04Z</time>
      </trkpt>
      <trkpt lat="42.2774850" lon="-8.6278460">
        <ele>126.9</ele>
        <time>2021-05-20T15:26:05Z</time>
      </trkpt>
      <trkpt lat="42.2774920" lon="-8.6278480">
        <ele>126.9</ele>
        <time>2021-05-20T15:26:06Z</time>
      </trkpt>
      <trkpt lat="42.2774960" lon="-8.6278450">
        <ele>126.8</ele>
        <time>2021-05-20T15:26:07Z</time>
      </trkpt>
      <trkpt lat="42.2775080" lon="-8.6278420">
        <ele>126.7</ele>
        <time>2021-05-20T15:26:08Z</time>
      </trkpt>
      <trkpt lat="42.2775170" lon="-8.6278400">
        <ele>126.5</ele>
        <time>2021-05-20T15:26:09Z</time>
      </trkpt>
      <trkpt lat="42.2775220" lon="-8.6278380">
        <ele>126.5</ele>
        <time>2021-05-20T15:26:10Z</time>
      </trkpt>
      <trkpt lat="42.2775340" lon="-8.6278390">
        <ele>126.3</ele>
        <time>2021-05-20T15:26:11Z</time>
      </trkpt>
      <trkpt lat="42.2775410" lon="-8.6278370">
        <ele>126.3</ele>
        <time>2021-05-20T15:26:12Z</time>
      </trkpt>
      <trkpt lat="42.2775490" lon="-8.6278460">
        <ele>126.1</ele>
        <time>2021-05-20T15:26:13Z</time>
      </trkpt>
      <trkpt lat="42.2775580" lon="-8.6278450">
        <ele>126.0</ele>
        <time>2021-05-20T15:26:14Z</time>
      </trkpt>
      <trkpt lat="42.2775690" lon="-8.6278470">
        <ele>125.9</ele>
        <time>2021-05-20T15:26:15Z</time>
      </trkpt>
      <trkpt lat="42.2775820" lon="-8.6278440">
        <ele>125.7</ele>
        <time>2021-05-20T15:26:16Z</time>
      </trkpt>
      <trkpt lat="42.2775880" lon="-8.6278440">
        <ele>126.0</ele>
        <time>2021-05-20T15:26:17Z</time>
      </trkpt>
      <trkpt lat="42.2775990" lon="-8.6278390">
        <ele>126.4</ele>
        <time>2021-05-20T15:26:18Z</time>
      </trkpt>
      <trkpt lat="42.2776130" lon="-8.6278410">
        <ele>126.4</ele>
        <time>2021-05-20T15:26:19Z</time>
      </trkpt>
      <trkpt lat="42.2776330" lon="-8.6278430">
        <ele>126.1</ele>
        <time>2021-05-20T15:26:20Z</time>
      </trkpt>
      <trkpt lat="42.2776410" lon="-8.6278440">
        <ele>126.0</ele>
        <time>2021-05-20T15:26:21Z</time>
      </trkpt>
      <trkpt lat="42.2776490" lon="-8.6278460">
        <ele>125.9</ele>
        <time>2021-05-20T15:26:22Z</time>
      </trkpt>
      <trkpt lat="42.2776540" lon="-8.6278490">
        <ele>125.9</ele>
        <time>2021-05-20T15:26:23Z</time>
      </trkpt>
      <trkpt lat="42.2776660" lon="-8.6278560">
        <ele>125.7</ele>
        <time>2021-05-20T15:26:24Z</time>
      </trkpt>
      <trkpt lat="42.2776780" lon="-8.6278510">
        <ele>125.6</ele>
        <time>2021-05-20T15:26:25Z</time>
      </trkpt>
      <trkpt lat="42.2776960" lon="-8.6278520">
        <ele>125.3</ele>
        <time>2021-05-20T15:26:26Z</time>
      </trkpt>
      <trkpt lat="42.2777060" lon="-8.6278540">
        <ele>125.2</ele>
        <time>2021-05-20T15:26:27Z</time>
      </trkpt>
      <trkpt lat="42.2777160" lon="-8.6278550">
        <ele>125.1</ele>
        <time>2021-05-20T15:26:28Z</time>
      </trkpt>
      <trkpt lat="42.2777290" lon="-8.6278570">
        <ele>125.0</ele>
        <time>2021-05-20T15:26:29Z</time>
      </trkpt>
      <trkpt lat="42.2777460" lon="-8.6278620">
        <ele>124.8</ele>
        <time>2021-05-20T15:26:30Z</time>
      </trkpt>
      <trkpt lat="42.2777690" lon="-8.6278610">
        <ele>124.5</ele>
        <time>2021-05-20T15:26:31Z</time>
      </trkpt>
      <trkpt lat="42.2777760" lon="-8.6278610">
        <ele>124.4</ele>
        <time>2021-05-20T15:26:32Z</time>
      </trkpt>
      <trkpt lat="42.2777830" lon="-8.6278620">
        <ele>124.3</ele>
        <time>2021-05-20T15:26:33Z</time>
      </trkpt>
      <trkpt lat="42.2777930" lon="-8.6278630">
        <ele>124.2</ele>
        <time>2021-05-20T15:26:34Z</time>
      </trkpt>
      <trkpt lat="42.2777980" lon="-8.6278620">
        <ele>124.2</ele>
        <time>2021-05-20T15:26:35Z</time>
      </trkpt>
      <trkpt lat="42.2778160" lon="-8.6278600">
        <ele>124.0</ele>
        <time>2021-05-20T15:26:36Z</time>
      </trkpt>
      <trkpt lat="42.2778280" lon="-8.6278630">
        <ele>123.8</ele>
        <time>2021-05-20T15:26:37Z</time>
      </trkpt>
      <trkpt lat="42.2778400" lon="-8.6278620">
        <ele>123.7</ele>
        <time>2021-05-20T15:26:38Z</time>
      </trkpt>
      <trkpt lat="42.2778460" lon="-8.6278590">
        <ele>123.6</ele>
        <time>2021-05-20T15:26:39Z</time>
      </trkpt>
      <trkpt lat="42.2778600" lon="-8.6278630">
        <ele>123.4</ele>
        <time>2021-05-20T15:26:40Z</time>
      </trkpt>
      <trkpt lat="42.2778680" lon="-8.6278630">
        <ele>123.4</ele>
        <time>2021-05-20T15:26:41Z</time>
      </trkpt>
      <trkpt lat="42.2778780" lon="-8.6278600">
        <ele>123.2</ele>
        <time>2021-05-20T15:26:42Z</time>
      </trkpt>
      <trkpt lat="42.2778950" lon="-8.6278630">
        <ele>123.0</ele>
        <time>2021-05-20T15:26:43Z</time>
      </trkpt>
      <trkpt lat="42.2779060" lon="-8.6278610">
        <ele>122.9</ele>
        <time>2021-05-20T15:26:44Z</time>
      </trkpt>
      <trkpt lat="42.2779220" lon="-8.6278590">
        <ele>122.7</ele>
        <time>2021-05-20T15:26:45Z</time>
      </trkpt>
      <trkpt lat="42.2779300" lon="-8.6278590">
        <ele>122.6</ele>
        <time>2021-05-20T15:26:46Z</time>
      </trkpt>
      <trkpt lat="42.2779390" lon="-8.6278550">
        <ele>122.5</ele>
        <time>2021-05-20T15:26:47Z</time>
      </trkpt>
      <trkpt lat="42.2779460" lon="-8.6278550">
        <ele>122.4</ele>
        <time>2021-05-20T15:26:48Z</time>
      </trkpt>
      <trkpt lat="42.2779580" lon="-8.6278530">
        <ele>122.3</ele>
        <time>2021-05-20T15:26:49Z</time>
      </trkpt>
      <trkpt lat="42.2779680" lon="-8.6278500">
        <ele>122.2</ele>
        <time>2021-05-20T15:26:50Z</time>
      </trkpt>
      <trkpt lat="42.2779780" lon="-8.6278410">
        <ele>122.0</ele>
        <time>2021-05-20T15:26:51Z</time>
      </trkpt>
      <trkpt lat="42.2779860" lon="-8.6278410">
        <ele>122.0</ele>
        <time>2021-05-20T15:26:52Z</time>
      </trkpt>
      <trkpt lat="42.2779910" lon="-8.6278470">
        <ele>121.9</ele>
        <time>2021-05-20T15:26:53Z</time>
      </trkpt>
      <trkpt lat="42.2779950" lon="-8.6278440">
        <ele>121.8</ele>
        <time>2021-05-20T15:26:54Z</time>
      </trkpt>
      <trkpt lat="42.2780040" lon="-8.6278440">
        <ele>121.7</ele>
        <time>2021-05-20T15:26:55Z</time>
      </trkpt>
      <trkpt lat="42.2780210" lon="-8.6278440">
        <ele>121.5</ele>
        <time>2021-05-20T15:26:56Z</time>
      </trkpt>
      <trkpt lat="42.2780300" lon="-8.6278480">
        <ele>121.4</ele>
        <time>2021-05-20T15:26:57Z</time>
      </trkpt>
      <trkpt lat="42.2780340" lon="-8.6278510">
        <ele>121.3</ele>
        <time>2021-05-20T15:26:58Z</time>
      </trkpt>
      <trkpt lat="42.2780480" lon="-8.6278530">
        <ele>121.2</ele>
        <time>2021-05-20T15:26:59Z</time>
      </trkpt>
      <trkpt lat="42.2780640" lon="-8.6278630">
        <ele>121.0</ele>
        <time>2021-05-20T15:27:00Z</time>
      </trkpt>
      <trkpt lat="42.2780720" lon="-8.6278650">
        <ele>120.9</ele>
        <time>2021-05-20T15:27:01Z</time>
      </trkpt>
      <trkpt lat="42.2780740" lon="-8.6278640">
        <ele>120.8</ele>
        <time>2021-05-20T15:27:02Z</time>
      </trkpt>
      <trkpt lat="42.2780800" lon="-8.6278650">
        <ele>120.8</ele>
        <time>2021-05-20T15:27:03Z</time>
      </trkpt>
      <trkpt lat="42.2780870" lon="-8.6278670">
        <ele>120.7</ele>
        <time>2021-05-20T15:27:04Z</time>
      </trkpt>
      <trkpt lat="42.2780960" lon="-8.6278670">
        <ele>120.6</ele>
        <time>2021-05-20T15:27:05Z</time>
      </trkpt>
      <trkpt lat="42.2781000" lon="-8.6278630">
        <ele>120.5</ele>
        <time>2021-05-20T15:27:06Z</time>
      </trkpt>
      <trkpt lat="42.2781060" lon="-8.6278600">
        <ele>120.4</ele>
        <time>2021-05-20T15:27:07Z</time>
      </trkpt>
      <trkpt lat="42.2781250" lon="-8.6278580">
        <ele>120.2</ele>
        <time>2021-05-20T15:27:08Z</time>
      </trkpt>
      <trkpt lat="42.2781270" lon="-8.6278560">
        <ele>120.2</ele>
        <time>2021-05-20T15:27:09Z</time>
      </trkpt>
      <trkpt lat="42.2781260" lon="-8.6278550">
        <ele>120.2</ele>
        <time>2021-05-20T15:27:10Z</time>
      </trkpt>
      <trkpt lat="42.2781250" lon="-8.6278690">
        <ele>120.0</ele>
        <time>2021-05-20T15:27:11Z</time>
      </trkpt>
      <trkpt lat="42.2781350" lon="-8.6278810">
        <ele>119.8</ele>
        <time>2021-05-20T15:27:12Z</time>
      </trkpt>
      <trkpt lat="42.2781430" lon="-8.6278860">
        <ele>119.7</ele>
        <time>2021-05-20T15:27:13Z</time>
      </trkpt>
      <trkpt lat="42.2781630" lon="-8.6278830">
        <ele>119.4</ele>
        <time>2021-05-20T15:27:14Z</time>
      </trkpt>
      <trkpt lat="42.2781760" lon="-8.6278830">
        <ele>119.3</ele>
        <time>2021-05-20T15:27:15Z</time>
      </trkpt>
      <trkpt lat="42.2781910" lon="-8.6278840">
        <ele>119.0</ele>
        <time>2021-05-20T15:27:16Z</time>
      </trkpt>
      <trkpt lat="42.2781970" lon="-8.6278810">
        <ele>119.0</ele>
        <time>2021-05-20T15:27:17Z</time>
      </trkpt>
      <trkpt lat="42.2782040" lon="-8.6278790">
        <ele>118.9</ele>
        <time>2021-05-20T15:27:18Z</time>
      </trkpt>
      <trkpt lat="42.2782100" lon="-8.6278760">
        <ele>118.8</ele>
        <time>2021-05-20T15:27:19Z</time>
      </trkpt>
      <trkpt lat="42.2782160" lon="-8.6278740">
        <ele>118.7</ele>
        <time>2021-05-20T15:27:20Z</time>
      </trkpt>
      <trkpt lat="42.2782380" lon="-8.6278600">
        <ele>118.3</ele>
        <time>2021-05-20T15:27:21Z</time>
      </trkpt>
      <trkpt lat="42.2782460" lon="-8.6278560">
        <ele>118.2</ele>
        <time>2021-05-20T15:27:22Z</time>
      </trkpt>
      <trkpt lat="42.2782540" lon="-8.6278520">
        <ele>118.0</ele>
        <time>2021-05-20T15:27:23Z</time>
      </trkpt>
      <trkpt lat="42.2782610" lon="-8.6278410">
        <ele>117.9</ele>
        <time>2021-05-20T15:27:24Z</time>
      </trkpt>
      <trkpt lat="42.2782710" lon="-8.6278310">
        <ele>117.6</ele>
        <time>2021-05-20T15:27:25Z</time>
      </trkpt>
      <trkpt lat="42.2782790" lon="-8.6278280">
        <ele>117.5</ele>
        <time>2021-05-20T15:27:26Z</time>
      </trkpt>
      <trkpt lat="42.2782840" lon="-8.6278210">
        <ele>117.4</ele>
        <time>2021-05-20T15:27:27Z</time>
      </trkpt>
      <trkpt lat="42.2782860" lon="-8.6278120">
        <ele>117.3</ele>
        <time>2021-05-20T15:27:28Z</time>
      </trkpt>
      <trkpt lat="42.2782870" lon="-8.6278050">
        <ele>117.2</ele>
        <time>2021-05-20T15:27:29Z</time>
      </trkpt>
      <trkpt lat="42.2782850" lon="-8.6277880">
        <ele>116.9</ele>
        <time>2021-05-20T15:27:30Z</time>
      </trkpt>
      <trkpt lat="42.2782820" lon="-8.6277690">
        <ele>116.7</ele>
        <time>2021-05-20T15:27:31Z</time>
      </trkpt>
      <trkpt lat="42.2782800" lon="-8.6277550">
        <ele>116.5</ele>
        <time>2021-05-20T15:27:32Z</time>
      </trkpt>
      <trkpt lat="42.2782780" lon="-8.6277490">
        <ele>116.4</ele>
        <time>2021-05-20T15:27:33Z</time>
      </trkpt>
      <trkpt lat="42.2782830" lon="-8.6277320">
        <ele>116.1</ele>
        <time>2021-05-20T15:27:34Z</time>
      </trkpt>
      <trkpt lat="42.2782790" lon="-8.6277200">
        <ele>115.9</ele>
        <time>2021-05-20T15:27:35Z</time>
      </trkpt>
      <trkpt lat="42.2782810" lon="-8.6277210">
        <ele>115.9</ele>
        <time>2021-05-20T15:27:36Z</time>
      </trkpt>
      <trkpt lat="42.2782680" lon="-8.6277220">
        <ele>115.6</ele>
        <time>2021-05-20T15:27:37Z</time>
      </trkpt>
      <trkpt lat="42.2782590" lon="-8.6277130">
        <ele>115.4</ele>
        <time>2021-05-20T15:27:38Z</time>
      </trkpt>
      <trkpt lat="42.2782410" lon="-8.6277000">
        <ele>115.0</ele>
        <time>2021-05-20T15:27:39Z</time>
      </trkpt>
      <trkpt lat="42.2782340" lon="-8.6276920">
        <ele>114.8</ele>
        <time>2021-05-20T15:27:40Z</time>
      </trkpt>
      <trkpt lat="42.2782270" lon="-8.6276840">
        <ele>114.7</ele>
        <time>2021-05-20T15:27:41Z</time>
      </trkpt>
      <trkpt lat="42.2782070" lon="-8.6276700">
        <ele>114.2</ele>
        <time>2021-05-20T15:27:42Z</time>
      </trkpt>
      <trkpt lat="42.2782000" lon="-8.6276650">
        <ele>114.1</ele>
        <time>2021-05-20T15:27:43Z</time>
      </trkpt>
      <trkpt lat="42.2781920" lon="-8.6276590">
        <ele>113.9</ele>
        <time>2021-05-20T15:27:44Z</time>
      </trkpt>
      <trkpt lat="42.2781850" lon="-8.6276540">
        <ele>113.8</ele>
        <time>2021-05-20T15:27:45Z</time>
      </trkpt>
      <trkpt lat="42.2781760" lon="-8.6276470">
        <ele>113.6</ele>
        <time>2021-05-20T15:27:46Z</time>
      </trkpt>
      <trkpt lat="42.2781630" lon="-8.6276330">
        <ele>113.2</ele>
        <time>2021-05-20T15:27:47Z</time>
      </trkpt>
      <trkpt lat="42.2781540" lon="-8.6276230">
        <ele>113.0</ele>
        <time>2021-05-20T15:27:48Z</time>
      </trkpt>
      <trkpt lat="42.2781390" lon="-8.6276120">
        <ele>112.7</ele>
        <time>2021-05-20T15:27:49Z</time>
      </trkpt>
      <trkpt lat="42.2781280" lon="-8.6275990">
        <ele>112.5</ele>
        <time>2021-05-20T15:27:50Z</time>
      </trkpt>
      <trkpt lat="42.2781250" lon="-8.6275940">
        <ele>112.4</ele>
        <time>2021-05-20T15:27:51Z</time>
      </trkpt>
      <trkpt lat="42.2781210" lon="-8.6275870">
        <ele>112.3</ele>
        <time>2021-05-20T15:27:52Z</time>
      </trkpt>
      <trkpt lat="42.2781190" lon="-8.6275870">
        <ele>112.2</ele>
        <time>2021-05-20T15:27:53Z</time>
      </trkpt>
      <trkpt lat="42.2781140" lon="-8.6275860">
        <ele>112.1</ele>
        <time>2021-05-20T15:27:54Z</time>
      </trkpt>
      <trkpt lat="42.2781050" lon="-8.6275800">
        <ele>112.0</ele>
        <time>2021-05-20T15:27:55Z</time>
      </trkpt>
      <trkpt lat="42.2780950" lon="-8.6275670">
        <ele>111.7</ele>
        <time>2021-05-20T15:27:56Z</time>
      </trkpt>
      <trkpt lat="42.2780900" lon="-8.6275590">
        <ele>111.6</ele>
        <time>2021-05-20T15:27:57Z</time>
      </trkpt>
      <trkpt lat="42.2780840" lon="-8.6275440">
        <ele>111.4</ele>
        <time>2021-05-20T15:27:58Z</time>
      </trkpt>
      <trkpt lat="42.2780750" lon="-8.6275310">
        <ele>111.1</ele>
        <time>2021-05-20T15:27:59Z</time>
      </trkpt>
      <trkpt lat="42.2780760" lon="-8.6275260">
        <ele>111.1</ele>
        <time>2021-05-20T15:28:00Z</time>
      </trkpt>
      <trkpt lat="42.2780650" lon="-8.6275260">
        <ele>110.9</ele>
        <time>2021-05-20T15:28:01Z</time>
      </trkpt>
      <trkpt lat="42.2780650" lon="-8.6275250">
        <ele>110.9</ele>
        <time>2021-05-20T15:28:02Z</time>
      </trkpt>
      <trkpt lat="42.2780620" lon="-8.6275240">
        <ele>110.8</ele>
        <time>2021-05-20T15:28:03Z</time>
      </trkpt>
      <trkpt lat="42.2780620" lon="-8.6275210">
        <ele>110.8</ele>
        <time>2021-05-20T15:28:04Z</time>
      </trkpt>
      <trkpt lat="42.2780670" lon="-8.6275230">
        <ele>110.7</ele>
        <time>2021-05-20T15:28:05Z</time>
      </trkpt>
      <trkpt lat="42.2780660" lon="-8.6275210">
        <ele>110.7</ele>
        <time>2021-05-20T15:28:06Z</time>
      </trkpt>
      <trkpt lat="42.2780670" lon="-8.6275180">
        <ele>110.6</ele>
        <time>2021-05-20T15:28:07Z</time>
      </trkpt>
      <trkpt lat="42.2780720" lon="-8.6275150">
        <ele>110.6</ele>
        <time>2021-05-20T15:28:08Z</time>
      </trkpt>
      <trkpt lat="42.2780680" lon="-8.6275040">
        <ele>110.4</ele>
        <time>2021-05-20T15:28:09Z</time>
      </trkpt>
      <trkpt lat="42.2780660" lon="-8.6274900">
        <ele>110.3</ele>
        <time>2021-05-20T15:28:10Z</time>
      </trkpt>
      <trkpt lat="42.2780710" lon="-8.6274900">
        <ele>110.2</ele>
        <time>2021-05-20T15:28:11Z</time>
      </trkpt>
      <trkpt lat="42.2780610" lon="-8.6274730">
        <ele>109.9</ele>
        <time>2021-05-20T15:28:12Z</time>
      </trkpt>
      <trkpt lat="42.2780580" lon="-8.6274630">
        <ele>109.8</ele>
        <time>2021-05-20T15:28:13Z</time>
      </trkpt>
      <trkpt lat="42.2780580" lon="-8.6274480">
        <ele>109.6</ele>
        <time>2021-05-20T15:28:14Z</time>
      </trkpt>
      <trkpt lat="42.2780580" lon="-8.6274290">
        <ele>109.4</ele>
        <time>2021-05-20T15:28:15Z</time>
      </trkpt>
      <trkpt lat="42.2780510" lon="-8.6274310">
        <ele>109.3</ele>
        <time>2021-05-20T15:28:16Z</time>
      </trkpt>
      <trkpt lat="42.2780500" lon="-8.6274200">
        <ele>109.2</ele>
        <time>2021-05-20T15:28:17Z</time>
      </trkpt>
      <trkpt lat="42.2780450" lon="-8.6274030">
        <ele>109.0</ele>
        <time>2021-05-20T15:28:18Z</time>
      </trkpt>
      <trkpt lat="42.2780430" lon="-8.6273960">
        <ele>108.9</ele>
        <time>2021-05-20T15:28:19Z</time>
      </trkpt>
      <trkpt lat="42.2780380" lon="-8.6273910">
        <ele>108.8</ele>
        <time>2021-05-20T15:28:20Z</time>
      </trkpt>
      <trkpt lat="42.2780330" lon="-8.6273800">
        <ele>108.7</ele>
        <time>2021-05-20T15:28:21Z</time>
      </trkpt>
      <trkpt lat="42.2780290" lon="-8.6273630">
        <ele>108.5</ele>
        <time>2021-05-20T15:28:22Z</time>
      </trkpt>
      <trkpt lat="42.2780250" lon="-8.6273490">
        <ele>108.4</ele>
        <time>2021-05-20T15:28:23Z</time>
      </trkpt>
      <trkpt lat="42.2780210" lon="-8.6273350">
        <ele>108.2</ele>
        <time>2021-05-20T15:28:24Z</time>
      </trkpt>
      <trkpt lat="42.2780150" lon="-8.6273200">
        <ele>108.1</ele>
        <time>2021-05-20T15:28:25Z</time>
      </trkpt>
      <trkpt lat="42.2780090" lon="-8.6273060">
        <ele>107.9</ele>
        <time>2021-05-20T15:28:26Z</time>
      </trkpt>
      <trkpt lat="42.2780050" lon="-8.6273000">
        <ele>107.8</ele>
        <time>2021-05-20T15:28:27Z</time>
      </trkpt>
      <trkpt lat="42.2779990" lon="-8.6272820">
        <ele>107.6</ele>
        <time>2021-05-20T15:28:28Z</time>
      </trkpt>
      <trkpt lat="42.2779950" lon="-8.6272680">
        <ele>107.5</ele>
        <time>2021-05-20T15:28:29Z</time>
      </trkpt>
      <trkpt lat="42.2779900" lon="-8.6272570">
        <ele>107.3</ele>
        <time>2021-05-20T15:28:30Z</time>
      </trkpt>
      <trkpt lat="42.2779890" lon="-8.6272550">
        <ele>107.3</ele>
        <time>2021-05-20T15:28:31Z</time>
      </trkpt>
      <trkpt lat="42.2779840" lon="-8.6272390">
        <ele>107.2</ele>
        <time>2021-05-20T15:28:32Z</time>
      </trkpt>
      <trkpt lat="42.2779780" lon="-8.6272270">
        <ele>107.0</ele>
        <time>2021-05-20T15:28:33Z</time>
      </trkpt>
      <trkpt lat="42.2779720" lon="-8.6272100">
        <ele>106.9</ele>
        <time>2021-05-20T15:28:34Z</time>
      </trkpt>
      <trkpt lat="42.2779680" lon="-8.6271970">
        <ele>106.7</ele>
        <time>2021-05-20T15:28:35Z</time>
      </trkpt>
      <trkpt lat="42.2779670" lon="-8.6271910">
        <ele>106.7</ele>
        <time>2021-05-20T15:28:36Z</time>
      </trkpt>
      <trkpt lat="42.2779680" lon="-8.6271830">
        <ele>106.6</ele>
        <time>2021-05-20T15:28:37Z</time>
      </trkpt>
      <trkpt lat="42.2779580" lon="-8.6271830">
        <ele>106.5</ele>
        <time>2021-05-20T15:28:38Z</time>
      </trkpt>
      <trkpt lat="42.2779520" lon="-8.6271750">
        <ele>106.4</ele>
        <time>2021-05-20T15:28:39Z</time>
      </trkpt>
      <trkpt lat="42.2779520" lon="-8.6271580">
        <ele>106.2</ele>
        <time>2021-05-20T15:28:40Z</time>
      </trkpt>
      <trkpt lat="42.2779490" lon="-8.6271370">
        <ele>106.0</ele>
        <time>2021-05-20T15:28:41Z</time>
      </trkpt>
      <trkpt lat="42.2779420" lon="-8.6271140">
        <ele>105.8</ele>
        <time>2021-05-20T15:28:42Z</time>
      </trkpt>
      <trkpt lat="42.2779310" lon="-8.6270950">
        <ele>105.6</ele>
        <time>2021-05-20T15:28:43Z</time>
      </trkpt>
      <trkpt lat="42.2779340" lon="-8.6270910">
        <ele>105.6</ele>
        <time>2021-05-20T15:28:44Z</time>
      </trkpt>
      <trkpt lat="42.2779250" lon="-8.6270810">
        <ele>105.5</ele>
        <time>2021-05-20T15:28:45Z</time>
      </trkpt>
      <trkpt lat="42.2779220" lon="-8.6270630">
        <ele>105.3</ele>
        <time>2021-05-20T15:28:46Z</time>
      </trkpt>
      <trkpt lat="42.2779130" lon="-8.6270370">
        <ele>105.1</ele>
        <time>2021-05-20T15:28:47Z</time>
      </trkpt>
      <trkpt lat="42.2779120" lon="-8.6270070">
        <ele>104.8</ele>
        <time>2021-05-20T15:28:48Z</time>
      </trkpt>
      <trkpt lat="42.2779090" lon="-8.6269970">
        <ele>104.7</ele>
        <time>2021-05-20T15:28:49Z</time>
      </trkpt>
      <trkpt lat="42.2779070" lon="-8.6269860">
        <ele>104.6</ele>
        <time>2021-05-20T15:28:50Z</time>
      </trkpt>
      <trkpt lat="42.2779060" lon="-8.6269790">
        <ele>104.6</ele>
        <time>2021-05-20T15:28:51Z</time>
      </trkpt>
      <trkpt lat="42.2778960" lon="-8.6269610">
        <ele>104.4</ele>
        <time>2021-05-20T15:28:52Z</time>
      </trkpt>
      <trkpt lat="42.2778950" lon="-8.6269500">
        <ele>104.3</ele>
        <time>2021-05-20T15:28:53Z</time>
      </trkpt>
      <trkpt lat="42.2778870" lon="-8.6269370">
        <ele>104.2</ele>
        <time>2021-05-20T15:28:54Z</time>
      </trkpt>
      <trkpt lat="42.2778790" lon="-8.6269230">
        <ele>104.0</ele>
        <time>2021-05-20T15:28:55Z</time>
      </trkpt>
      <trkpt lat="42.2778730" lon="-8.6269120">
        <ele>103.9</ele>
        <time>2021-05-20T15:28:56Z</time>
      </trkpt>
      <trkpt lat="42.2778730" lon="-8.6269050">
        <ele>103.9</ele>
        <time>2021-05-20T15:28:57Z</time>
      </trkpt>
      <trkpt lat="42.2778630" lon="-8.6268850">
        <ele>103.7</ele>
        <time>2021-05-20T15:28:58Z</time>
      </trkpt>
      <trkpt lat="42.2778580" lon="-8.6268760">
        <ele>103.6</ele>
        <time>2021-05-20T15:28:59Z</time>
      </trkpt>
      <trkpt lat="42.2778520" lon="-8.6268650">
        <ele>103.5</ele>
        <time>2021-05-20T15:29:00Z</time>
      </trkpt>
      <trkpt lat="42.2778430" lon="-8.6268560">
        <ele>103.4</ele>
        <time>2021-05-20T15:29:01Z</time>
      </trkpt>
      <trkpt lat="42.2778380" lon="-8.6268450">
        <ele>103.3</ele>
        <time>2021-05-20T15:29:02Z</time>
      </trkpt>
      <trkpt lat="42.2778250" lon="-8.6268210">
        <ele>103.0</ele>
        <time>2021-05-20T15:29:03Z</time>
      </trkpt>
      <trkpt lat="42.2778210" lon="-8.6268120">
        <ele>102.9</ele>
        <time>2021-05-20T15:29:04Z</time>
      </trkpt>
      <trkpt lat="42.2778170" lon="-8.6268040">
        <ele>102.9</ele>
        <time>2021-05-20T15:29:05Z</time>
      </trkpt>
      <trkpt lat="42.2778130" lon="-8.6267880">
        <ele>102.7</ele>
        <time>2021-05-20T15:29:06Z</time>
      </trkpt>
      <trkpt lat="42.2778040" lon="-8.6267810">
        <ele>102.6</ele>
        <time>2021-05-20T15:29:07Z</time>
      </trkpt>
      <trkpt lat="42.2777940" lon="-8.6267690">
        <ele>102.5</ele>
        <time>2021-05-20T15:29:08Z</time>
      </trkpt>
      <trkpt lat="42.2777790" lon="-8.6267540">
        <ele>102.3</ele>
        <time>2021-05-20T15:29:09Z</time>
      </trkpt>
      <trkpt lat="42.2777730" lon="-8.6267450">
        <ele>102.2</ele>
        <time>2021-05-20T15:29:10Z</time>
      </trkpt>
      <trkpt lat="42.2777660" lon="-8.6267370">
        <ele>102.1</ele>
        <time>2021-05-20T15:29:11Z</time>
      </trkpt>
      <trkpt lat="42.2777560" lon="-8.6267120">
        <ele>101.9</ele>
        <time>2021-05-20T15:29:12Z</time>
      </trkpt>
      <trkpt lat="42.2777510" lon="-8.6267040">
        <ele>101.8</ele>
        <time>2021-05-20T15:29:13Z</time>
      </trkpt>
      <trkpt lat="42.2777460" lon="-8.6266950">
        <ele>101.7</ele>
        <time>2021-05-20T15:29:14Z</time>
      </trkpt>
      <trkpt lat="42.2777340" lon="-8.6266650">
        <ele>101.5</ele>
        <time>2021-05-20T15:29:15Z</time>
      </trkpt>
      <trkpt lat="42.2777290" lon="-8.6266550">
        <ele>101.4</ele>
        <time>2021-05-20T15:29:16Z</time>
      </trkpt>
      <trkpt lat="42.2777240" lon="-8.6266450">
        <ele>101.3</ele>
        <time>2021-05-20T15:29:17Z</time>
      </trkpt>
      <trkpt lat="42.2777110" lon="-8.6266380">
        <ele>101.2</ele>
        <time>2021-05-20T15:29:18Z</time>
      </trkpt>
      <trkpt lat="42.2777050" lon="-8.6266310">
        <ele>101.1</ele>
        <time>2021-05-20T15:29:19Z</time>
      </trkpt>
      <trkpt lat="42.2776980" lon="-8.6266240">
        <ele>101.0</ele>
        <time>2021-05-20T15:29:20Z</time>
      </trkpt>
      <trkpt lat="42.2776920" lon="-8.6266170">
        <ele>100.9</ele>
        <time>2021-05-20T15:29:21Z</time>
      </trkpt>
      <trkpt lat="42.2776730" lon="-8.6265980">
        <ele>100.7</ele>
        <time>2021-05-20T15:29:22Z</time>
      </trkpt>
      <trkpt lat="42.2776660" lon="-8.6265840">
        <ele>100.6</ele>
        <time>2021-05-20T15:29:23Z</time>
      </trkpt>
      <trkpt lat="42.2776550" lon="-8.6265650">
        <ele>100.4</ele>
        <time>2021-05-20T15:29:24Z</time>
      </trkpt>
      <trkpt lat="42.2776450" lon="-8.6265460">
        <ele>100.2</ele>
        <time>2021-05-20T15:29:25Z</time>
      </trkpt>
      <trkpt lat="42.2776310" lon="-8.6265300">
        <ele>100.0</ele>
        <time>2021-05-20T15:29:26Z</time>
      </trkpt>
      <trkpt lat="42.2776190" lon="-8.6265180">
        <ele>99.9</ele>
        <time>2021-05-20T15:29:27Z</time>
      </trkpt>
      <trkpt lat="42.2776140" lon="-8.6265140">
        <ele>99.8</ele>
        <time>2021-05-20T15:29:28Z</time>
      </trkpt>
      <trkpt lat="42.2776050" lon="-8.6265060">
        <ele>99.7</ele>
        <time>2021-05-20T15:29:29Z</time>
      </trkpt>
      <trkpt lat="42.2775910" lon="-8.6264940">
        <ele>99.6</ele>
        <time>2021-05-20T15:29:30Z</time>
      </trkpt>
      <trkpt lat="42.2775880" lon="-8.6264850">
        <ele>99.5</ele>
        <time>2021-05-20T15:29:31Z</time>
      </trkpt>
      <trkpt lat="42.2775700" lon="-8.6264740">
        <ele>99.4</ele>
        <time>2021-05-20T15:29:32Z</time>
      </trkpt>
      <trkpt lat="42.2775670" lon="-8.6264640">
        <ele>99.3</ele>
        <time>2021-05-20T15:29:33Z</time>
      </trkpt>
      <trkpt lat="42.2775610" lon="-8.6264460">
        <ele>99.2</ele>
        <time>2021-05-20T15:29:34Z</time>
      </trkpt>
      <trkpt lat="42.2775540" lon="-8.6264370">
        <ele>99.1</ele>
        <time>2021-05-20T15:29:35Z</time>
      </trkpt>
      <trkpt lat="42.2775510" lon="-8.6264300">
        <ele>99.0</ele>
        <time>2021-05-20T15:29:36Z</time>
      </trkpt>
      <trkpt lat="42.2775420" lon="-8.6264280">
        <ele>98.9</ele>
        <time>2021-05-20T15:29:37Z</time>
      </trkpt>
      <trkpt lat="42.2775360" lon="-8.6264150">
        <ele>98.8</ele>
        <time>2021-05-20T15:29:38Z</time>
      </trkpt>
      <trkpt lat="42.2775300" lon="-8.6264070">
        <ele>98.8</ele>
        <time>2021-05-20T15:29:39Z</time>
      </trkpt>
      <trkpt lat="42.2775280" lon="-8.6264120">
        <ele>98.7</ele>
        <time>2021-05-20T15:29:40Z</time>
      </trkpt>
      <trkpt lat="42.2775270" lon="-8.6264120">
        <ele>98.7</ele>
        <time>2021-05-20T15:29:41Z</time>
      </trkpt>
      <trkpt lat="42.2775140" lon="-8.6264090">
        <ele>98.6</ele>
        <time>2021-05-20T15:29:42Z</time>
      </trkpt>
      <trkpt lat="42.2775110" lon="-8.6264090">
        <ele>98.6</ele>
        <time>2021-05-20T15:29:43Z</time>
      </trkpt>
      <trkpt lat="42.2775080" lon="-8.6264080">
        <ele>98.5</ele>
        <time>2021-05-20T15:29:44Z</time>
      </trkpt>
      <trkpt lat="42.2775000" lon="-8.6263990">
        <ele>98.5</ele>
        <time>2021-05-20T15:29:45Z</time>
      </trkpt>
      <trkpt lat="42.2774980" lon="-8.6263850">
        <ele>98.4</ele>
        <time>2021-05-20T15:29:46Z</time>
      </trkpt>
      <trkpt lat="42.2774820" lon="-8.6263660">
        <ele>98.2</ele>
        <time>2021-05-20T15:29:47Z</time>
      </trkpt>
      <trkpt lat="42.2774780" lon="-8.6263540">
        <ele>98.1</ele>
        <time>2021-05-20T15:29:48Z</time>
      </trkpt>
      <trkpt lat="42.2774860" lon="-8.6263610">
        <ele>98.0</ele>
        <time>2021-05-20T15:29:49Z</time>
      </trkpt>
      <trkpt lat="42.2774800" lon="-8.6263490">
        <ele>97.9</ele>
        <time>2021-05-20T15:29:50Z</time>
      </trkpt>
      <trkpt lat="42.2774650" lon="-8.6263360">
        <ele>97.8</ele>
        <time>2021-05-20T15:29:51Z</time>
      </trkpt>
      <trkpt lat="42.2774610" lon="-8.6263180">
        <ele>97.7</ele>
        <time>2021-05-20T15:29:52Z</time>
      </trkpt>
      <trkpt lat="42.2774550" lon="-8.6263060">
        <ele>97.6</ele>
        <time>2021-05-20T15:29:53Z</time>
      </trkpt>
      <trkpt lat="42.2774510" lon="-8.6262990">
        <ele>97.5</ele>
        <time>2021-05-20T15:29:54Z</time>
      </trkpt>
      <trkpt lat="42.2774420" lon="-8.6262910">
        <ele>97.5</ele>
        <time>2021-05-20T15:29:55Z</time>
      </trkpt>
      <trkpt lat="42.2774290" lon="-8.6262710">
        <ele>97.3</ele>
        <time>2021-05-20T15:29:56Z</time>
      </trkpt>
      <trkpt lat="42.2774210" lon="-8.6262600">
        <ele>97.2</ele>
        <time>2021-05-20T15:29:57Z</time>
      </trkpt>
      <trkpt lat="42.2774080" lon="-8.6262500">
        <ele>97.1</ele>
        <time>2021-05-20T15:29:58Z</time>
      </trkpt>
      <trkpt lat="42.2773960" lon="-8.6262530">
        <ele>97.0</ele>
        <time>2021-05-20T15:29:59Z</time>
      </trkpt>
      <trkpt lat="42.2773900" lon="-8.6262500">
        <ele>96.9</ele>
        <time>2021-05-20T15:30:00Z</time>
      </trkpt>
      <trkpt lat="42.2773790" lon="-8.6262370">
        <ele>96.7</ele>
        <time>2021-05-20T15:30:01Z</time>
      </trkpt>
      <trkpt lat="42.2773730" lon="-8.6262360">
        <ele>96.7</ele>
        <time>2021-05-20T15:30:02Z</time>
      </trkpt>
      <trkpt lat="42.2773710" lon="-8.6262260">
        <ele>96.7</ele>
        <time>2021-05-20T15:30:03Z</time>
      </trkpt>
      <trkpt lat="42.2773670" lon="-8.6262230">
        <ele>96.6</ele>
        <time>2021-05-20T15:30:04Z</time>
      </trkpt>
      <trkpt lat="42.2773580" lon="-8.6262140">
        <ele>96.6</ele>
        <time>2021-05-20T15:30:05Z</time>
      </trkpt>
      <trkpt lat="42.2773500" lon="-8.6262050">
        <ele>96.5</ele>
        <time>2021-05-20T15:30:06Z</time>
      </trkpt>
      <trkpt lat="42.2773420" lon="-8.6261950">
        <ele>96.5</ele>
        <time>2021-05-20T15:30:07Z</time>
      </trkpt>
      <trkpt lat="42.2773270" lon="-8.6261870">
        <ele>96.4</ele>
        <time>2021-05-20T15:30:08Z</time>
      </trkpt>
      <trkpt lat="42.2773190" lon="-8.6261760">
        <ele>96.3</ele>
        <time>2021-05-20T15:30:09Z</time>
      </trkpt>
      <trkpt lat="42.2773260" lon="-8.6261760">
        <ele>96.3</ele>
        <time>2021-05-20T15:30:10Z</time>
      </trkpt>
      <trkpt lat="42.2773120" lon="-8.6261690">
        <ele>96.2</ele>
        <time>2021-05-20T15:30:11Z</time>
      </trkpt>
      <trkpt lat="42.2772980" lon="-8.6261550">
        <ele>96.1</ele>
        <time>2021-05-20T15:30:12Z</time>
      </trkpt>
      <trkpt lat="42.2772910" lon="-8.6261460">
        <ele>96.0</ele>
        <time>2021-05-20T15:30:13Z</time>
      </trkpt>
      <trkpt lat="42.2772800" lon="-8.6261350">
        <ele>96.0</ele>
        <time>2021-05-20T15:30:14Z</time>
      </trkpt>
      <trkpt lat="42.2772660" lon="-8.6261210">
        <ele>95.9</ele>
        <time>2021-05-20T15:30:15Z</time>
      </trkpt>
      <trkpt lat="42.2772550" lon="-8.6261150">
        <ele>95.8</ele>
        <time>2021-05-20T15:30:16Z</time>
      </trkpt>
      <trkpt lat="42.2772480" lon="-8.6261070">
        <ele>95.7</ele>
        <time>2021-05-20T15:30:17Z</time>
      </trkpt>
      <trkpt lat="42.2772430" lon="-8.6261020">
        <ele>95.7</ele>
        <time>2021-05-20T15:30:18Z</time>
      </trkpt>
      <trkpt lat="42.2772300" lon="-8.6260930">
        <ele>95.6</ele>
        <time>2021-05-20T15:30:19Z</time>
      </trkpt>
      <trkpt lat="42.2772250" lon="-8.6260910">
        <ele>95.6</ele>
        <time>2021-05-20T15:30:20Z</time>
      </trkpt>
      <trkpt lat="42.2772110" lon="-8.6260830">
        <ele>95.5</ele>
        <time>2021-05-20T15:30:21Z</time>
      </trkpt>
      <trkpt lat="42.2771820" lon="-8.6260690">
        <ele>95.3</ele>
        <time>2021-05-20T15:30:22Z</time>
      </trkpt>
      <trkpt lat="42.2771740" lon="-8.6260670">
        <ele>95.3</ele>
        <time>2021-05-20T15:30:23Z</time>
      </trkpt>
      <trkpt lat="42.2771630" lon="-8.6260660">
        <ele>95.2</ele>
        <time>2021-05-20T15:30:24Z</time>
      </trkpt>
      <trkpt lat="42.2771530" lon="-8.6260640">
        <ele>95.2</ele>
        <time>2021-05-20T15:30:25Z</time>
      </trkpt>
      <trkpt lat="42.2771450" lon="-8.6260560">
        <ele>95.1</ele>
        <time>2021-05-20T15:30:26Z</time>
      </trkpt>
      <trkpt lat="42.2771350" lon="-8.6260480">
        <ele>95.1</ele>
        <time>2021-05-20T15:30:27Z</time>
      </trkpt>
      <trkpt lat="42.2771250" lon="-8.6260320">
        <ele>95.0</ele>
        <time>2021-05-20T15:30:28Z</time>
      </trkpt>
      <trkpt lat="42.2771180" lon="-8.6260250">
        <ele>94.9</ele>
        <time>2021-05-20T15:30:29Z</time>
      </trkpt>
      <trkpt lat="42.2771090" lon="-8.6260160">
        <ele>94.9</ele>
        <time>2021-05-20T15:30:30Z</time>
      </trkpt>
      <trkpt lat="42.2771000" lon="-8.6260080">
        <ele>94.8</ele>
        <time>2021-05-20T15:30:31Z</time>
      </trkpt>
      <trkpt lat="42.2770950" lon="-8.6260020">
        <ele>94.8</ele>
        <time>2021-05-20T15:30:32Z</time>
      </trkpt>
      <trkpt lat="42.2770750" lon="-8.6259930">
        <ele>94.7</ele>
        <time>2021-05-20T15:30:33Z</time>
      </trkpt>
      <trkpt lat="42.2770670" lon="-8.6259890">
        <ele>94.6</ele>
        <time>2021-05-20T15:30:34Z</time>
      </trkpt>
      <trkpt lat="42.2770600" lon="-8.6259860">
        <ele>94.6</ele>
        <time>2021-05-20T15:30:35Z</time>
      </trkpt>
      <trkpt lat="42.2770450" lon="-8.6259810">
        <ele>94.5</ele>
        <time>2021-05-20T15:30:36Z</time>
      </trkpt>
      <trkpt lat="42.2770330" lon="-8.6259780">
        <ele>94.4</ele>
        <time>2021-05-20T15:30:37Z</time>
      </trkpt>
      <trkpt lat="42.2770130" lon="-8.6259690">
        <ele>94.3</ele>
        <time>2021-05-20T15:30:38Z</time>
      </trkpt>
      <trkpt lat="42.2770050" lon="-8.6259680">
        <ele>94.3</ele>
        <time>2021-05-20T15:30:39Z</time>
      </trkpt>
      <trkpt lat="42.2769970" lon="-8.6259670">
        <ele>94.2</ele>
        <time>2021-05-20T15:30:40Z</time>
      </trkpt>
      <trkpt lat="42.2769890" lon="-8.6259700">
        <ele>94.2</ele>
        <time>2021-05-20T15:30:41Z</time>
      </trkpt>
      <trkpt lat="42.2769830" lon="-8.6259660">
        <ele>94.2</ele>
        <time>2021-05-20T15:30:42Z</time>
      </trkpt>
      <trkpt lat="42.2769760" lon="-8.6259650">
        <ele>94.1</ele>
        <time>2021-05-20T15:30:43Z</time>
      </trkpt>
      <trkpt lat="42.2769680" lon="-8.6259620">
        <ele>94.1</ele>
        <time>2021-05-20T15:30:44Z</time>
      </trkpt>
      <trkpt lat="42.2769590" lon="-8.6259580">
        <ele>94.0</ele>
        <time>2021-05-20T15:30:45Z</time>
      </trkpt>
      <trkpt lat="42.2769520" lon="-8.6259520">
        <ele>94.0</ele>
        <time>2021-05-20T15:30:46Z</time>
      </trkpt>
      <trkpt lat="42.2769390" lon="-8.6259380">
        <ele>93.9</ele>
        <time>2021-05-20T15:30:47Z</time>
      </trkpt>
      <trkpt lat="42.2769310" lon="-8.6259270">
        <ele>93.9</ele>
        <time>2021-05-20T15:30:48Z</time>
      </trkpt>
      <trkpt lat="42.2769220" lon="-8.6259220">
        <ele>93.8</ele>
        <time>2021-05-20T15:30:49Z</time>
      </trkpt>
      <trkpt lat="42.2769130" lon="-8.6259190">
        <ele>93.8</ele>
        <time>2021-05-20T15:30:50Z</time>
      </trkpt>
      <trkpt lat="42.2769020" lon="-8.6259140">
        <ele>93.7</ele>
        <time>2021-05-20T15:30:51Z</time>
      </trkpt>
      <trkpt lat="42.2768900" lon="-8.6259060">
        <ele>93.6</ele>
        <time>2021-05-20T15:30:52Z</time>
      </trkpt>
      <trkpt lat="42.2768820" lon="-8.6258990">
        <ele>93.6</ele>
        <time>2021-05-20T15:30:53Z</time>
      </trkpt>
      <trkpt lat="42.2768720" lon="-8.6258960">
        <ele>93.5</ele>
        <time>2021-05-20T15:30:54Z</time>
      </trkpt>
      <trkpt lat="42.2768620" lon="-8.6258900">
        <ele>93.5</ele>
        <time>2021-05-20T15:30:55Z</time>
      </trkpt>
      <trkpt lat="42.2768520" lon="-8.6258840">
        <ele>93.4</ele>
        <time>2021-05-20T15:30:56Z</time>
      </trkpt>
      <trkpt lat="42.2768440" lon="-8.6258810">
        <ele>93.4</ele>
        <time>2021-05-20T15:30:57Z</time>
      </trkpt>
      <trkpt lat="42.2768360" lon="-8.6258750">
        <ele>93.4</ele>
        <time>2021-05-20T15:30:58Z</time>
      </trkpt>
      <trkpt lat="42.2768180" lon="-8.6258680">
        <ele>93.3</ele>
        <time>2021-05-20T15:30:59Z</time>
      </trkpt>
      <trkpt lat="42.2768120" lon="-8.6258600">
        <ele>93.2</ele>
        <time>2021-05-20T15:31:00Z</time>
      </trkpt>
      <trkpt lat="42.2768040" lon="-8.6258550">
        <ele>93.2</ele>
        <time>2021-05-20T15:31:01Z</time>
      </trkpt>
      <trkpt lat="42.2767990" lon="-8.6258470">
        <ele>93.2</ele>
        <time>2021-05-20T15:31:02Z</time>
      </trkpt>
      <trkpt lat="42.2767910" lon="-8.6258360">
        <ele>93.1</ele>
        <time>2021-05-20T15:31:03Z</time>
      </trkpt>
      <trkpt lat="42.2767800" lon="-8.6258240">
        <ele>93.0</ele>
        <time>2021-05-20T15:31:04Z</time>
      </trkpt>
      <trkpt lat="42.2767750" lon="-8.6258200">
        <ele>93.0</ele>
        <time>2021-05-20T15:31:05Z</time>
      </trkpt>
      <trkpt lat="42.2767690" lon="-8.6258170">
        <ele>93.0</ele>
        <time>2021-05-20T15:31:06Z</time>
      </trkpt>
      <trkpt lat="42.2767640" lon="-8.6258130">
        <ele>93.0</ele>
        <time>2021-05-20T15:31:07Z</time>
      </trkpt>
      <trkpt lat="42.2767590" lon="-8.6258090">
        <ele>92.9</ele>
        <time>2021-05-20T15:31:08Z</time>
      </trkpt>
      <trkpt lat="42.2767500" lon="-8.6258100">
        <ele>92.9</ele>
        <time>2021-05-20T15:31:09Z</time>
      </trkpt>
      <trkpt lat="42.2767470" lon="-8.6258110">
        <ele>92.9</ele>
        <time>2021-05-20T15:31:10Z</time>
      </trkpt>
      <trkpt lat="42.2767470" lon="-8.6258100">
        <ele>92.9</ele>
        <time>2021-05-20T15:31:11Z</time>
      </trkpt>
      <trkpt lat="42.2767480" lon="-8.6258100">
        <ele>92.9</ele>
        <time>2021-05-20T15:31:12Z</time>
      </trkpt>
      <trkpt lat="42.2767480" lon="-8.6258080">
        <ele>92.9</ele>
        <time>2021-05-20T15:31:13Z</time>
      </trkpt>
      <trkpt lat="42.2767480" lon="-8.6258090">
        <ele>92.9</ele>
        <time>2021-05-20T15:31:14Z</time>
      </trkpt>
      <trkpt lat="42.2767500" lon="-8.6258110">
        <ele>92.8</ele>
        <time>2021-05-20T15:31:15Z</time>
      </trkpt>
      <trkpt lat="42.2767510" lon="-8.6258100">
        <ele>92.8</ele>
        <time>2021-05-20T15:31:16Z</time>
      </trkpt>
      <trkpt lat="42.2767510" lon="-8.6258070">
        <ele>92.8</ele>
        <time>2021-05-20T15:31:17Z</time>
      </trkpt>
      <trkpt lat="42.2767550" lon="-8.6258010">
        <ele>92.8</ele>
        <time>2021-05-20T15:31:18Z</time>
      </trkpt>
      <trkpt lat="42.2767570" lon="-8.6258050">
        <ele>92.8</ele>
        <time>2021-05-20T15:31:19Z</time>
      </trkpt>
      <trkpt lat="42.2767580" lon="-8.6258040">
        <ele>92.8</ele>
        <time>2021-05-20T15:31:20Z</time>
      </trkpt>
      <trkpt lat="42.2767600" lon="-8.6258070">
        <ele>92.8</ele>
        <time>2021-05-20T15:31:21Z</time>
      </trkpt>
      <trkpt lat="42.2767620" lon="-8.6258030">
        <ele>92.8</ele>
        <time>2021-05-20T15:31:22Z</time>
      </trkpt>
      <trkpt lat="42.2767660" lon="-8.6258030">
        <ele>92.7</ele>
        <time>2021-05-20T15:31:23Z</time>
      </trkpt>
      <trkpt lat="42.2767730" lon="-8.6257990">
        <ele>92.7</ele>
        <time>2021-05-20T15:31:24Z</time>
      </trkpt>
      <trkpt lat="42.2767730" lon="-8.6257990">
        <ele>92.7</ele>
        <time>2021-05-20T15:31:25Z</time>
      </trkpt>
      <trkpt lat="42.2767750" lon="-8.6257980">
        <ele>92.7</ele>
        <time>2021-05-20T15:31:26Z</time>
      </trkpt>
      <trkpt lat="42.2767760" lon="-8.6257990">
        <ele>92.7</ele>
        <time>2021-05-20T15:31:27Z</time>
      </trkpt>
      <trkpt lat="42.2767780" lon="-8.6257980">
        <ele>92.7</ele>
        <time>2021-05-20T15:31:28Z</time>
      </trkpt>
      <trkpt lat="42.2767790" lon="-8.6257980">
        <ele>92.7</ele>
        <time>2021-05-20T15:31:29Z</time>
      </trkpt>
      <trkpt lat="42.2767780" lon="-8.6258010">
        <ele>92.7</ele>
        <time>2021-05-20T15:31:30Z</time>
      </trkpt>
      <trkpt lat="42.2767770" lon="-8.6257970">
        <ele>92.7</ele>
        <time>2021-05-20T15:31:31Z</time>
      </trkpt>
      <trkpt lat="42.2767760" lon="-8.6257980">
        <ele>92.7</ele>
        <time>2021-05-20T15:31:32Z</time>
      </trkpt>
      <trkpt lat="42.2767770" lon="-8.6257970">
        <ele>92.7</ele>
        <time>2021-05-20T15:31:33Z</time>
      </trkpt>
      <trkpt lat="42.2767800" lon="-8.6257910">
        <ele>92.6</ele>
        <time>2021-05-20T15:31:34Z</time>
      </trkpt>
      <trkpt lat="42.2767780" lon="-8.6257930">
        <ele>92.6</ele>
        <time>2021-05-20T15:31:36Z</time>
      </trkpt>
      <trkpt lat="42.2767770" lon="-8.6257910">
        <ele>92.6</ele>
        <time>2021-05-20T15:31:37Z</time>
      </trkpt>
      <trkpt lat="42.2767760" lon="-8.6257920">
        <ele>92.6</ele>
        <time>2021-05-20T15:31:38Z</time>
      </trkpt>
      <trkpt lat="42.2767760" lon="-8.6257900">
        <ele>92.6</ele>
        <time>2021-05-20T15:31:39Z</time>
      </trkpt>
      <trkpt lat="42.2767740" lon="-8.6257900">
        <ele>92.6</ele>
        <time>2021-05-20T15:31:40Z</time>
      </trkpt>
      <trkpt lat="42.2767740" lon="-8.6257920">
        <ele>92.6</ele>
        <time>2021-05-20T15:31:41Z</time>
      </trkpt>
      <trkpt lat="42.2767720" lon="-8.6258000">
        <ele>92.6</ele>
        <time>2021-05-20T15:31:42Z</time>
      </trkpt>
      <trkpt lat="42.2767680" lon="-8.6257920">
        <ele>92.5</ele>
        <time>2021-05-20T15:31:43Z</time>
      </trkpt>
      <trkpt lat="42.2767670" lon="-8.6257900">
        <ele>92.5</ele>
        <time>2021-05-20T15:31:44Z</time>
      </trkpt>
      <trkpt lat="42.2767660" lon="-8.6257950">
        <ele>92.5</ele>
        <time>2021-05-20T15:31:45Z</time>
      </trkpt>
      <trkpt lat="42.2767640" lon="-8.6257980">
        <ele>92.5</ele>
        <time>2021-05-20T15:31:46Z</time>
      </trkpt>
      <trkpt lat="42.2767630" lon="-8.6258050">
        <ele>92.5</ele>
        <time>2021-05-20T15:31:47Z</time>
      </trkpt>
      <trkpt lat="42.2767640" lon="-8.6258120">
        <ele>92.5</ele>
        <time>2021-05-20T15:31:48Z</time>
      </trkpt>
      <trkpt lat="42.2767650" lon="-8.6258130">
        <ele>92.5</ele>
        <time>2021-05-20T15:31:49Z</time>
      </trkpt>
      <trkpt lat="42.2767630" lon="-8.6258200">
        <ele>92.4</ele>
        <time>2021-05-20T15:31:50Z</time>
      </trkpt>
      <trkpt lat="42.2767630" lon="-8.6258270">
        <ele>92.4</ele>
        <time>2021-05-20T15:31:51Z</time>
      </trkpt>
      <trkpt lat="42.2767630" lon="-8.6258260">
        <ele>92.4</ele>
        <time>2021-05-20T15:31:52Z</time>
      </trkpt>
      <trkpt lat="42.2767630" lon="-8.6258240">
        <ele>92.4</ele>
        <time>2021-05-20T15:31:53Z</time>
      </trkpt>
      <trkpt lat="42.2767630" lon="-8.6258250">
        <ele>92.4</ele>
        <time>2021-05-20T15:31:54Z</time>
      </trkpt>
      <trkpt lat="42.2767610" lon="-8.6258270">
        <ele>92.4</ele>
        <time>2021-05-20T15:31:55Z</time>
      </trkpt>
      <trkpt lat="42.2767610" lon="-8.6258250">
        <ele>92.4</ele>
        <time>2021-05-20T15:31:56Z</time>
      </trkpt>
      <trkpt lat="42.2767590" lon="-8.6258280">
        <ele>92.4</ele>
        <time>2021-05-20T15:31:57Z</time>
      </trkpt>
      <trkpt lat="42.2767610" lon="-8.6258260">
        <ele>92.4</ele>
        <time>2021-05-20T15:31:58Z</time>
      </trkpt>
      <trkpt lat="42.2767600" lon="-8.6258300">
        <ele>92.4</ele>
        <time>2021-05-20T15:31:59Z</time>
      </trkpt>
      <trkpt lat="42.2767610" lon="-8.6258280">
        <ele>92.4</ele>
        <time>2021-05-20T15:32:00Z</time>
      </trkpt>
      <trkpt lat="42.2767630" lon="-8.6258220">
        <ele>92.3</ele>
        <time>2021-05-20T15:32:01Z</time>
      </trkpt>
      <trkpt lat="42.2767610" lon="-8.6258230">
        <ele>92.3</ele>
        <time>2021-05-20T15:32:02Z</time>
      </trkpt>
      <trkpt lat="42.2767600" lon="-8.6258260">
        <ele>92.3</ele>
        <time>2021-05-20T15:32:03Z</time>
      </trkpt>
      <trkpt lat="42.2767630" lon="-8.6258140">
        <ele>92.3</ele>
        <time>2021-05-20T15:32:04Z</time>
      </trkpt>
      <trkpt lat="42.2767620" lon="-8.6258150">
        <ele>92.3</ele>
        <time>2021-05-20T15:32:05Z</time>
      </trkpt>
      <trkpt lat="42.2767600" lon="-8.6258150">
        <ele>92.3</ele>
        <time>2021-05-20T15:32:06Z</time>
      </trkpt>
      <trkpt lat="42.2767600" lon="-8.6258150">
        <ele>92.3</ele>
        <time>2021-05-20T15:32:07Z</time>
      </trkpt>
      <trkpt lat="42.2767610" lon="-8.6258170">
        <ele>92.3</ele>
        <time>2021-05-20T15:32:08Z</time>
      </trkpt>
      <trkpt lat="42.2767590" lon="-8.6258170">
        <ele>92.3</ele>
        <time>2021-05-20T15:32:09Z</time>
      </trkpt>
      <trkpt lat="42.2767570" lon="-8.6258090">
        <ele>92.2</ele>
        <time>2021-05-20T15:32:10Z</time>
      </trkpt>
      <trkpt lat="42.2767570" lon="-8.6258100">
        <ele>92.2</ele>
        <time>2021-05-20T15:32:11Z</time>
      </trkpt>
      <trkpt lat="42.2767530" lon="-8.6258060">
        <ele>92.2</ele>
        <time>2021-05-20T15:32:12Z</time>
      </trkpt>
      <trkpt lat="42.2767550" lon="-8.6257980">
        <ele>92.2</ele>
        <time>2021-05-20T15:32:13Z</time>
      </trkpt>
      <trkpt lat="42.2767570" lon="-8.6257950">
        <ele>92.2</ele>
        <time>2021-05-20T15:32:14Z</time>
      </trkpt>
      <trkpt lat="42.2767600" lon="-8.6257850">
        <ele>92.2</ele>
        <time>2021-05-20T15:32:15Z</time>
      </trkpt>
      <trkpt lat="42.2767610" lon="-8.6257810">
        <ele>92.2</ele>
        <time>2021-05-20T15:32:16Z</time>
      </trkpt>
      <trkpt lat="42.2767620" lon="-8.6257790">
        <ele>92.1</ele>
        <time>2021-05-20T15:32:17Z</time>
      </trkpt>
      <trkpt lat="42.2767640" lon="-8.6257830">
        <ele>92.1</ele>
        <time>2021-05-20T15:32:18Z</time>
      </trkpt>
      <trkpt lat="42.2767630" lon="-8.6257850">
        <ele>92.1</ele>
        <time>2021-05-20T15:32:19Z</time>
      </trkpt>
      <trkpt lat="42.2767650" lon="-8.6257860">
        <ele>92.1</ele>
        <time>2021-05-20T15:32:20Z</time>
      </trkpt>
      <trkpt lat="42.2767640" lon="-8.6257850">
        <ele>92.1</ele>
        <time>2021-05-20T15:32:21Z</time>
      </trkpt>
      <trkpt lat="42.2767620" lon="-8.6257840">
        <ele>92.1</ele>
        <time>2021-05-20T15:32:22Z</time>
      </trkpt>
      <trkpt lat="42.2767620" lon="-8.6257840">
        <ele>92.1</ele>
        <time>2021-05-20T15:32:23Z</time>
      </trkpt>
      <trkpt lat="42.2767620" lon="-8.6257850">
        <ele>92.1</ele>
        <time>2021-05-20T15:32:24Z</time>
      </trkpt>
      <trkpt lat="42.2767620" lon="-8.6257840">
        <ele>92.1</ele>
        <time>2021-05-20T15:32:25Z</time>
      </trkpt>
      <trkpt lat="42.2767610" lon="-8.6257830">
        <ele>92.1</ele>
        <time>2021-05-20T15:32:26Z</time>
      </trkpt>
      <trkpt lat="42.2767610" lon="-8.6257840">
        <ele>92.1</ele>
        <time>2021-05-20T15:32:27Z</time>
      </trkpt>
      <trkpt lat="42.2767630" lon="-8.6257830">
        <ele>92.1</ele>
        <time>2021-05-20T15:32:28Z</time>
      </trkpt>
      <trkpt lat="42.2767630" lon="-8.6257820">
        <ele>92.1</ele>
        <time>2021-05-20T15:32:29Z</time>
      </trkpt>
      <trkpt lat="42.2767620" lon="-8.6257860">
        <ele>92.1</ele>
        <time>2021-05-20T15:32:30Z</time>
      </trkpt>
      <trkpt lat="42.2767630" lon="-8.6257870">
        <ele>92.1</ele>
        <time>2021-05-20T15:32:31Z</time>
      </trkpt>
      <trkpt lat="42.2767630" lon="-8.6257920">
        <ele>92.1</ele>
        <time>2021-05-20T15:32:32Z</time>
      </trkpt>
      <trkpt lat="42.2767620" lon="-8.6257960">
        <ele>92.1</ele>
        <time>2021-05-20T15:32:33Z</time>
      </trkpt>
      <trkpt lat="42.2767600" lon="-8.6257940">
        <ele>92.0</ele>
        <time>2021-05-20T15:32:34Z</time>
      </trkpt>
      <trkpt lat="42.2767600" lon="-8.6257940">
        <ele>92.0</ele>
        <time>2021-05-20T15:32:35Z</time>
      </trkpt>
      <trkpt lat="42.2767620" lon="-8.6257970">
        <ele>92.0</ele>
        <time>2021-05-20T15:32:36Z</time>
      </trkpt>
      <trkpt lat="42.2767620" lon="-8.6257960">
        <ele>92.0</ele>
        <time>2021-05-20T15:32:37Z</time>
      </trkpt>
      <trkpt lat="42.2767620" lon="-8.6258010">
        <ele>92.0</ele>
        <time>2021-05-20T15:32:38Z</time>
      </trkpt>
      <trkpt lat="42.2767620" lon="-8.6257990">
        <ele>92.0</ele>
        <time>2021-05-20T15:32:39Z</time>
      </trkpt>
      <trkpt lat="42.2767620" lon="-8.6258040">
        <ele>92.0</ele>
        <time>2021-05-20T15:32:40Z</time>
      </trkpt>
      <trkpt lat="42.2767610" lon="-8.6258070">
        <ele>92.0</ele>
        <time>2021-05-20T15:32:41Z</time>
      </trkpt>
      <trkpt lat="42.2767610" lon="-8.6258100">
        <ele>92.0</ele>
        <time>2021-05-20T15:32:42Z</time>
      </trkpt>
      <trkpt lat="42.2767610" lon="-8.6258100">
        <ele>92.0</ele>
        <time>2021-05-20T15:32:43Z</time>
      </trkpt>
      <trkpt lat="42.2767600" lon="-8.6258100">
        <ele>92.0</ele>
        <time>2021-05-20T15:32:44Z</time>
      </trkpt>
      <trkpt lat="42.2767580" lon="-8.6258140">
        <ele>92.0</ele>
        <time>2021-05-20T15:32:45Z</time>
      </trkpt>
      <trkpt lat="42.2767580" lon="-8.6258150">
        <ele>92.0</ele>
        <time>2021-05-20T15:32:46Z</time>
      </trkpt>
      <trkpt lat="42.2767590" lon="-8.6258170">
        <ele>92.0</ele>
        <time>2021-05-20T15:32:47Z</time>
      </trkpt>
      <trkpt lat="42.2767600" lon="-8.6258220">
        <ele>91.9</ele>
        <time>2021-05-20T15:32:48Z</time>
      </trkpt>
      <trkpt lat="42.2767600" lon="-8.6258260">
        <ele>91.9</ele>
        <time>2021-05-20T15:32:49Z</time>
      </trkpt>
      <trkpt lat="42.2767600" lon="-8.6258240">
        <ele>91.9</ele>
        <time>2021-05-20T15:32:50Z</time>
      </trkpt>
      <trkpt lat="42.2767620" lon="-8.6258210">
        <ele>91.9</ele>
        <time>2021-05-20T15:32:51Z</time>
      </trkpt>
      <trkpt lat="42.2767600" lon="-8.6258240">
        <ele>91.9</ele>
        <time>2021-05-20T15:32:52Z</time>
      </trkpt>
      <trkpt lat="42.2767600" lon="-8.6258240">
        <ele>91.9</ele>
        <time>2021-05-20T15:32:53Z</time>
      </trkpt>
      <trkpt lat="42.2767590" lon="-8.6258320">
        <ele>91.9</ele>
        <time>2021-05-20T15:32:54Z</time>
      </trkpt>
      <trkpt lat="42.2767580" lon="-8.6258350">
        <ele>91.9</ele>
        <time>2021-05-20T15:32:55Z</time>
      </trkpt>
      <trkpt lat="42.2767590" lon="-8.6258300">
        <ele>91.9</ele>
        <time>2021-05-20T15:32:56Z</time>
      </trkpt>
      <trkpt lat="42.2767610" lon="-8.6258320">
        <ele>91.9</ele>
        <time>2021-05-20T15:32:57Z</time>
      </trkpt>
      <trkpt lat="42.2767610" lon="-8.6258400">
        <ele>91.9</ele>
        <time>2021-05-20T15:32:58Z</time>
      </trkpt>
      <trkpt lat="42.2767610" lon="-8.6258420">
        <ele>91.8</ele>
        <time>2021-05-20T15:32:59Z</time>
      </trkpt>
      <trkpt lat="42.2767610" lon="-8.6258380">
        <ele>91.8</ele>
        <time>2021-05-20T15:33:00Z</time>
      </trkpt>
      <trkpt lat="42.2767590" lon="-8.6258390">
        <ele>91.8</ele>
        <time>2021-05-20T15:33:01Z</time>
      </trkpt>
      <trkpt lat="42.2767600" lon="-8.6258350">
        <ele>91.8</ele>
        <time>2021-05-20T15:33:02Z</time>
      </trkpt>
      <trkpt lat="42.2767590" lon="-8.6258370">
        <ele>91.8</ele>
        <time>2021-05-20T15:33:03Z</time>
      </trkpt>
      <trkpt lat="42.2767560" lon="-8.6258360">
        <ele>91.8</ele>
        <time>2021-05-20T15:33:04Z</time>
      </trkpt>
      <trkpt lat="42.2767540" lon="-8.6258440">
        <ele>91.8</ele>
        <time>2021-05-20T15:33:05Z</time>
      </trkpt>
      <trkpt lat="42.2767530" lon="-8.6258420">
        <ele>91.8</ele>
        <time>2021-05-20T15:33:06Z</time>
      </trkpt>
      <trkpt lat="42.2767520" lon="-8.6258380">
        <ele>91.8</ele>
        <time>2021-05-20T15:33:07Z</time>
      </trkpt>
      <trkpt lat="42.2767510" lon="-8.6258280">
        <ele>91.8</ele>
        <time>2021-05-20T15:33:08Z</time>
      </trkpt>
      <trkpt lat="42.2767510" lon="-8.6258310">
        <ele>91.8</ele>
        <time>2021-05-20T15:33:09Z</time>
      </trkpt>
      <trkpt lat="42.2767500" lon="-8.6258330">
        <ele>91.7</ele>
        <time>2021-05-20T15:33:10Z</time>
      </trkpt>
      <trkpt lat="42.2767510" lon="-8.6258270">
        <ele>91.7</ele>
        <time>2021-05-20T15:33:11Z</time>
      </trkpt>
      <trkpt lat="42.2767480" lon="-8.6258310">
        <ele>91.7</ele>
        <time>2021-05-20T15:33:12Z</time>
      </trkpt>
      <trkpt lat="42.2767500" lon="-8.6258270">
        <ele>91.7</ele>
        <time>2021-05-20T15:33:13Z</time>
      </trkpt>
      <trkpt lat="42.2767480" lon="-8.6258230">
        <ele>91.7</ele>
        <time>2021-05-20T15:33:14Z</time>
      </trkpt>
      <trkpt lat="42.2767470" lon="-8.6258120">
        <ele>91.7</ele>
        <time>2021-05-20T15:33:15Z</time>
      </trkpt>
      <trkpt lat="42.2767470" lon="-8.6258080">
        <ele>91.7</ele>
        <time>2021-05-20T15:33:16Z</time>
      </trkpt>
      <trkpt lat="42.2767510" lon="-8.6257950">
        <ele>91.6</ele>
        <time>2021-05-20T15:33:17Z</time>
      </trkpt>
      <trkpt lat="42.2767550" lon="-8.6257940">
        <ele>91.6</ele>
        <time>2021-05-20T15:33:18Z</time>
      </trkpt>
      <trkpt lat="42.2767560" lon="-8.6257990">
        <ele>91.6</ele>
        <time>2021-05-20T15:33:19Z</time>
      </trkpt>
      <trkpt lat="42.2767550" lon="-8.6257960">
        <ele>91.6</ele>
        <time>2021-05-20T15:33:20Z</time>
      </trkpt>
      <trkpt lat="42.2767540" lon="-8.6257910">
        <ele>91.6</ele>
        <time>2021-05-20T15:33:21Z</time>
      </trkpt>
      <trkpt lat="42.2767580" lon="-8.6257640">
        <ele>91.5</ele>
        <time>2021-05-20T15:33:22Z</time>
      </trkpt>
      <trkpt lat="42.2767510" lon="-8.6257510">
        <ele>91.5</ele>
        <time>2021-05-20T15:33:23Z</time>
      </trkpt>
      <trkpt lat="42.2767510" lon="-8.6257370">
        <ele>91.5</ele>
        <time>2021-05-20T15:33:24Z</time>
      </trkpt>
      <trkpt lat="42.2767520" lon="-8.6257230">
        <ele>91.5</ele>
        <time>2021-05-20T15:33:25Z</time>
      </trkpt>
      <trkpt lat="42.2767520" lon="-8.6257090">
        <ele>91.4</ele>
        <time>2021-05-20T15:33:26Z</time>
      </trkpt>
      <trkpt lat="42.2767460" lon="-8.6256920">
        <ele>91.4</ele>
        <time>2021-05-20T15:33:27Z</time>
      </trkpt>
      <trkpt lat="42.2767440" lon="-8.6256820">
        <ele>91.4</ele>
        <time>2021-05-20T15:33:28Z</time>
      </trkpt>
      <trkpt lat="42.2767420" lon="-8.6256720">
        <ele>91.4</ele>
        <time>2021-05-20T15:33:29Z</time>
      </trkpt>
      <trkpt lat="42.2767400" lon="-8.6256620">
        <ele>91.4</ele>
        <time>2021-05-20T15:33:30Z</time>
      </trkpt>
      <trkpt lat="42.2767400" lon="-8.6256500">
        <ele>91.3</ele>
        <time>2021-05-20T15:33:31Z</time>
      </trkpt>
      <trkpt lat="42.2767390" lon="-8.6256310">
        <ele>91.1</ele>
        <time>2021-05-20T15:33:32Z</time>
      </trkpt>
      <trkpt lat="42.2767400" lon="-8.6256200">
        <ele>91.0</ele>
        <time>2021-05-20T15:33:33Z</time>
      </trkpt>
      <trkpt lat="42.2767380" lon="-8.6256020">
        <ele>90.9</ele>
        <time>2021-05-20T15:33:34Z</time>
      </trkpt>
      <trkpt lat="42.2767350" lon="-8.6255930">
        <ele>90.9</ele>
        <time>2021-05-20T15:33:35Z</time>
      </trkpt>
      <trkpt lat="42.2767330" lon="-8.6255850">
        <ele>90.9</ele>
        <time>2021-05-20T15:33:36Z</time>
      </trkpt>
      <trkpt lat="42.2767300" lon="-8.6255750">
        <ele>90.8</ele>
        <time>2021-05-20T15:33:37Z</time>
      </trkpt>
      <trkpt lat="42.2767260" lon="-8.6255610">
        <ele>90.8</ele>
        <time>2021-05-20T15:33:38Z</time>
      </trkpt>
      <trkpt lat="42.2767190" lon="-8.6255500">
        <ele>90.7</ele>
        <time>2021-05-20T15:33:39Z</time>
      </trkpt>
      <trkpt lat="42.2767160" lon="-8.6255370">
        <ele>90.7</ele>
        <time>2021-05-20T15:33:40Z</time>
      </trkpt>
      <trkpt lat="42.2767140" lon="-8.6255120">
        <ele>90.6</ele>
        <time>2021-05-20T15:33:41Z</time>
      </trkpt>
      <trkpt lat="42.2767140" lon="-8.6255030">
        <ele>90.6</ele>
        <time>2021-05-20T15:33:42Z</time>
      </trkpt>
      <trkpt lat="42.2767150" lon="-8.6254950">
        <ele>90.5</ele>
        <time>2021-05-20T15:33:43Z</time>
      </trkpt>
      <trkpt lat="42.2767150" lon="-8.6254860">
        <ele>90.5</ele>
        <time>2021-05-20T15:33:44Z</time>
      </trkpt>
      <trkpt lat="42.2767170" lon="-8.6254720">
        <ele>90.4</ele>
        <time>2021-05-20T15:33:45Z</time>
      </trkpt>
      <trkpt lat="42.2767170" lon="-8.6254560">
        <ele>90.4</ele>
        <time>2021-05-20T15:33:46Z</time>
      </trkpt>
      <trkpt lat="42.2767120" lon="-8.6254520">
        <ele>90.4</ele>
        <time>2021-05-20T15:33:47Z</time>
      </trkpt>
      <trkpt lat="42.2767080" lon="-8.6254590">
        <ele>90.3</ele>
        <time>2021-05-20T15:33:48Z</time>
      </trkpt>
      <trkpt lat="42.2767010" lon="-8.6254530">
        <ele>90.3</ele>
        <time>2021-05-20T15:33:49Z</time>
      </trkpt>
      <trkpt lat="42.2767050" lon="-8.6254520">
        <ele>90.3</ele>
        <time>2021-05-20T15:33:50Z</time>
      </trkpt>
      <trkpt lat="42.2767070" lon="-8.6254490">
        <ele>90.3</ele>
        <time>2021-05-20T15:33:51Z</time>
      </trkpt>
      <trkpt lat="42.2767090" lon="-8.6254450">
        <ele>90.3</ele>
        <time>2021-05-20T15:33:52Z</time>
      </trkpt>
      <trkpt lat="42.2767110" lon="-8.6254410">
        <ele>90.2</ele>
        <time>2021-05-20T15:33:53Z</time>
      </trkpt>
      <trkpt lat="42.2767130" lon="-8.6254370">
        <ele>90.2</ele>
        <time>2021-05-20T15:33:54Z</time>
      </trkpt>
      <trkpt lat="42.2767150" lon="-8.6254340">
        <ele>90.2</ele>
        <time>2021-05-20T15:33:55Z</time>
      </trkpt>
      <trkpt lat="42.2767170" lon="-8.6254300">
        <ele>90.2</ele>
        <time>2021-05-20T15:33:56Z</time>
      </trkpt>
      <trkpt lat="42.2767190" lon="-8.6254260">
        <ele>90.2</ele>
        <time>2021-05-20T15:33:57Z</time>
      </trkpt>
      <trkpt lat="42.2767210" lon="-8.6254230">
        <ele>90.2</ele>
        <time>2021-05-20T15:33:58Z</time>
      </trkpt>
      <trkpt lat="42.2767230" lon="-8.6254190">
        <ele>90.2</ele>
        <time>2021-05-20T15:33:59Z</time>
      </trkpt>
      <trkpt lat="42.2767250" lon="-8.6254150">
        <ele>90.1</ele>
        <time>2021-05-20T15:34:00Z</time>
      </trkpt>
      <trkpt lat="42.2767270" lon="-8.6254110">
        <ele>90.1</ele>
        <time>2021-05-20T15:34:01Z</time>
      </trkpt>
      <trkpt lat="42.2767290" lon="-8.6254080">
        <ele>90.1</ele>
        <time>2021-05-20T15:34:02Z</time>
      </trkpt>
      <trkpt lat="42.2767310" lon="-8.6254040">
        <ele>90.1</ele>
        <time>2021-05-20T15:34:03Z</time>
      </trkpt>
      <trkpt lat="42.2767330" lon="-8.6254000">
        <ele>90.1</ele>
        <time>2021-05-20T15:34:04Z</time>
      </trkpt>
      <trkpt lat="42.2767340" lon="-8.6253970">
        <ele>90.1</ele>
        <time>2021-05-20T15:34:05Z</time>
      </trkpt>
      <trkpt lat="42.2767360" lon="-8.6253930">
        <ele>90.1</ele>
        <time>2021-05-20T15:34:06Z</time>
      </trkpt>
      <trkpt lat="42.2767380" lon="-8.6253890">
        <ele>90.0</ele>
        <time>2021-05-20T15:34:07Z</time>
      </trkpt>
      <trkpt lat="42.2767400" lon="-8.6253860">
        <ele>90.0</ele>
        <time>2021-05-20T15:34:08Z</time>
      </trkpt>
      <trkpt lat="42.2767420" lon="-8.6253820">
        <ele>90.0</ele>
        <time>2021-05-20T15:34:09Z</time>
      </trkpt>
      <trkpt lat="42.2767440" lon="-8.6253780">
        <ele>90.0</ele>
        <time>2021-05-20T15:34:10Z</time>
      </trkpt>
      <trkpt lat="42.2767460" lon="-8.6253740">
        <ele>90.0</ele>
        <time>2021-05-20T15:34:11Z</time>
      </trkpt>
      <trkpt lat="42.2767480" lon="-8.6253710">
        <ele>90.0</ele>
        <time>2021-05-20T15:34:12Z</time>
      </trkpt>
      <trkpt lat="42.2767500" lon="-8.6253670">
        <ele>90.0</ele>
        <time>2021-05-20T15:34:13Z</time>
      </trkpt>
      <trkpt lat="42.2767520" lon="-8.6253630">
        <ele>89.9</ele>
        <time>2021-05-20T15:34:14Z</time>
      </trkpt>
      <trkpt lat="42.2767540" lon="-8.6253600">
        <ele>89.9</ele>
        <time>2021-05-20T15:34:15Z</time>
      </trkpt>
      <trkpt lat="42.2767560" lon="-8.6253560">
        <ele>89.9</ele>
        <time>2021-05-20T15:34:16Z</time>
      </trkpt>
      <trkpt lat="42.2767580" lon="-8.6253520">
        <ele>89.9</ele>
        <time>2021-05-20T15:34:17Z</time>
      </trkpt>
      <trkpt lat="42.2767600" lon="-8.6253480">
        <ele>89.9</ele>
        <time>2021-05-20T15:34:18Z</time>
      </trkpt>
      <trkpt lat="42.2767620" lon="-8.6253450">
        <ele>89.9</ele>
        <time>2021-05-20T15:34:19Z</time>
      </trkpt>
      <trkpt lat="42.2767640" lon="-8.6253410">
        <ele>89.9</ele>
        <time>2021-05-20T15:34:20Z</time>
      </trkpt>
      <trkpt lat="42.2767730" lon="-8.6253250">
        <ele>89.8</ele>
        <time>2021-05-20T15:34:22Z</time>
      </trkpt>
      <trkpt lat="42.2767720" lon="-8.6253190">
        <ele>89.8</ele>
        <time>2021-05-20T15:34:23Z</time>
      </trkpt>
      <trkpt lat="42.2767840" lon="-8.6253070">
        <ele>89.8</ele>
        <time>2021-05-20T15:34:24Z</time>
      </trkpt>
      <trkpt lat="42.2767850" lon="-8.6253000">
        <ele>89.7</ele>
        <time>2021-05-20T15:34:25Z</time>
      </trkpt>
      <trkpt lat="42.2767880" lon="-8.6252880">
        <ele>89.7</ele>
        <time>2021-05-20T15:34:26Z</time>
      </trkpt>
      <trkpt lat="42.2768020" lon="-8.6252790">
        <ele>89.7</ele>
        <time>2021-05-20T15:34:27Z</time>
      </trkpt>
      <trkpt lat="42.2768100" lon="-8.6252640">
        <ele>89.6</ele>
        <time>2021-05-20T15:34:28Z</time>
      </trkpt>
      <trkpt lat="42.2768130" lon="-8.6252550">
        <ele>89.6</ele>
        <time>2021-05-20T15:34:29Z</time>
      </trkpt>
      <trkpt lat="42.2768210" lon="-8.6252430">
        <ele>89.5</ele>
        <time>2021-05-20T15:34:30Z</time>
      </trkpt>
      <trkpt lat="42.2768200" lon="-8.6252320">
        <ele>89.5</ele>
        <time>2021-05-20T15:34:31Z</time>
      </trkpt>
      <trkpt lat="42.2768290" lon="-8.6252180">
        <ele>89.5</ele>
        <time>2021-05-20T15:34:32Z</time>
      </trkpt>
      <trkpt lat="42.2768350" lon="-8.6252090">
        <ele>89.5</ele>
        <time>2021-05-20T15:34:33Z</time>
      </trkpt>
      <trkpt lat="42.2768470" lon="-8.6251820">
        <ele>89.4</ele>
        <time>2021-05-20T15:34:34Z</time>
      </trkpt>
      <trkpt lat="42.2768530" lon="-8.6251740">
        <ele>89.4</ele>
        <time>2021-05-20T15:34:35Z</time>
      </trkpt>
      <trkpt lat="42.2768590" lon="-8.6251650">
        <ele>89.4</ele>
        <time>2021-05-20T15:34:36Z</time>
      </trkpt>
      <trkpt lat="42.2768620" lon="-8.6251590">
        <ele>89.4</ele>
        <time>2021-05-20T15:34:37Z</time>
      </trkpt>
      <trkpt lat="42.2768670" lon="-8.6251490">
        <ele>89.3</ele>
        <time>2021-05-20T15:34:38Z</time>
      </trkpt>
      <trkpt lat="42.2768720" lon="-8.6251440">
        <ele>89.3</ele>
        <time>2021-05-20T15:34:39Z</time>
      </trkpt>
      <trkpt lat="42.2768780" lon="-8.6251490">
        <ele>89.3</ele>
        <time>2021-05-20T15:34:40Z</time>
      </trkpt>
      <trkpt lat="42.2768820" lon="-8.6251450">
        <ele>89.3</ele>
        <time>2021-05-20T15:34:41Z</time>
      </trkpt>
      <trkpt lat="42.2768880" lon="-8.6251440">
        <ele>89.3</ele>
        <time>2021-05-20T15:34:42Z</time>
      </trkpt>
      <trkpt lat="42.2768940" lon="-8.6251480">
        <ele>89.3</ele>
        <time>2021-05-20T15:34:43Z</time>
      </trkpt>
      <trkpt lat="42.2768990" lon="-8.6251500">
        <ele>89.2</ele>
        <time>2021-05-20T15:34:44Z</time>
      </trkpt>
      <trkpt lat="42.2769070" lon="-8.6251480">
        <ele>89.2</ele>
        <time>2021-05-20T15:34:45Z</time>
      </trkpt>
      <trkpt lat="42.2769130" lon="-8.6251480">
        <ele>89.2</ele>
        <time>2021-05-20T15:34:46Z</time>
      </trkpt>
      <trkpt lat="42.2769190" lon="-8.6251500">
        <ele>89.2</ele>
        <time>2021-05-20T15:34:47Z</time>
      </trkpt>
      <trkpt lat="42.2769250" lon="-8.6251450">
        <ele>89.2</ele>
        <time>2021-05-20T15:34:48Z</time>
      </trkpt>
      <trkpt lat="42.2769280" lon="-8.6251430">
        <ele>89.2</ele>
        <time>2021-05-20T15:34:49Z</time>
      </trkpt>
      <trkpt lat="42.2769330" lon="-8.6251410">
        <ele>89.2</ele>
        <time>2021-05-20T15:34:50Z</time>
      </trkpt>
      <trkpt lat="42.2769270" lon="-8.6251420">
        <ele>89.2</ele>
        <time>2021-05-20T15:34:51Z</time>
      </trkpt>
      <trkpt lat="42.2769250" lon="-8.6251420">
        <ele>89.2</ele>
        <time>2021-05-20T15:34:52Z</time>
      </trkpt>
      <trkpt lat="42.2769230" lon="-8.6251420">
        <ele>89.2</ele>
        <time>2021-05-20T15:34:53Z</time>
      </trkpt>
      <trkpt lat="42.2769260" lon="-8.6251480">
        <ele>89.2</ele>
        <time>2021-05-20T15:34:54Z</time>
      </trkpt>
      <trkpt lat="42.2769300" lon="-8.6251590">
        <ele>89.1</ele>
        <time>2021-05-20T15:34:55Z</time>
      </trkpt>
      <trkpt lat="42.2769320" lon="-8.6251700">
        <ele>89.1</ele>
        <time>2021-05-20T15:34:56Z</time>
      </trkpt>
      <trkpt lat="42.2769370" lon="-8.6251800">
        <ele>89.1</ele>
        <time>2021-05-20T15:34:57Z</time>
      </trkpt>
      <trkpt lat="42.2769430" lon="-8.6251880">
        <ele>89.1</ele>
        <time>2021-05-20T15:34:58Z</time>
      </trkpt>
      <trkpt lat="42.2769510" lon="-8.6251860">
        <ele>89.1</ele>
        <time>2021-05-20T15:34:59Z</time>
      </trkpt>
      <trkpt lat="42.2769490" lon="-8.6251790">
        <ele>89.1</ele>
        <time>2021-05-20T15:35:00Z</time>
      </trkpt>
      <trkpt lat="42.2769400" lon="-8.6251610">
        <ele>89.0</ele>
        <time>2021-05-20T15:35:01Z</time>
      </trkpt>
      <trkpt lat="42.2769410" lon="-8.6251400">
        <ele>89.0</ele>
        <time>2021-05-20T15:35:02Z</time>
      </trkpt>
      <trkpt lat="42.2769290" lon="-8.6251300">
        <ele>89.0</ele>
        <time>2021-05-20T15:35:03Z</time>
      </trkpt>
      <trkpt lat="42.2769280" lon="-8.6251090">
        <ele>89.0</ele>
        <time>2021-05-20T15:35:04Z</time>
      </trkpt>
      <trkpt lat="42.2769310" lon="-8.6251020">
        <ele>89.0</ele>
        <time>2021-05-20T15:35:05Z</time>
      </trkpt>
      <trkpt lat="42.2769280" lon="-8.6250730">
        <ele>89.0</ele>
        <time>2021-05-20T15:35:06Z</time>
      </trkpt>
      <trkpt lat="42.2769280" lon="-8.6250620">
        <ele>88.9</ele>
        <time>2021-05-20T15:35:07Z</time>
      </trkpt>
      <trkpt lat="42.2769270" lon="-8.6250510">
        <ele>88.9</ele>
        <time>2021-05-20T15:35:08Z</time>
      </trkpt>
      <trkpt lat="42.2769310" lon="-8.6250140">
        <ele>88.9</ele>
        <time>2021-05-20T15:35:09Z</time>
      </trkpt>
      <trkpt lat="42.2769330" lon="-8.6249980">
        <ele>88.9</ele>
        <time>2021-05-20T15:35:10Z</time>
      </trkpt>
      <trkpt lat="42.2769360" lon="-8.6249810">
        <ele>88.9</ele>
        <time>2021-05-20T15:35:11Z</time>
      </trkpt>
      <trkpt lat="42.2769330" lon="-8.6249720">
        <ele>88.9</ele>
        <time>2021-05-20T15:35:12Z</time>
      </trkpt>
      <trkpt lat="42.2769380" lon="-8.6249540">
        <ele>88.8</ele>
        <time>2021-05-20T15:35:13Z</time>
      </trkpt>
      <trkpt lat="42.2769410" lon="-8.6249360">
        <ele>88.8</ele>
        <time>2021-05-20T15:35:14Z</time>
      </trkpt>
      <trkpt lat="42.2769370" lon="-8.6249280">
        <ele>88.8</ele>
        <time>2021-05-20T15:35:15Z</time>
      </trkpt>
      <trkpt lat="42.2769410" lon="-8.6249230">
        <ele>88.8</ele>
        <time>2021-05-20T15:35:16Z</time>
      </trkpt>
      <trkpt lat="42.2769400" lon="-8.6249100">
        <ele>88.8</ele>
        <time>2021-05-20T15:35:17Z</time>
      </trkpt>
      <trkpt lat="42.2769450" lon="-8.6248970">
        <ele>88.8</ele>
        <time>2021-05-20T15:35:18Z</time>
      </trkpt>
      <trkpt lat="42.2769520" lon="-8.6248820">
        <ele>88.8</ele>
        <time>2021-05-20T15:35:19Z</time>
      </trkpt>
      <trkpt lat="42.2769540" lon="-8.6248670">
        <ele>88.8</ele>
        <time>2021-05-20T15:35:20Z</time>
      </trkpt>
      <trkpt lat="42.2769570" lon="-8.6248410">
        <ele>88.8</ele>
        <time>2021-05-20T15:35:21Z</time>
      </trkpt>
      <trkpt lat="42.2769600" lon="-8.6248290">
        <ele>88.8</ele>
        <time>2021-05-20T15:35:22Z</time>
      </trkpt>
      <trkpt lat="42.2769640" lon="-8.6248180">
        <ele>88.7</ele>
        <time>2021-05-20T15:35:23Z</time>
      </trkpt>
      <trkpt lat="42.2769670" lon="-8.6248030">
        <ele>88.7</ele>
        <time>2021-05-20T15:35:24Z</time>
      </trkpt>
      <trkpt lat="42.2769680" lon="-8.6247870">
        <ele>88.7</ele>
        <time>2021-05-20T15:35:25Z</time>
      </trkpt>
      <trkpt lat="42.2769710" lon="-8.6247760">
        <ele>88.7</ele>
        <time>2021-05-20T15:35:26Z</time>
      </trkpt>
      <trkpt lat="42.2769780" lon="-8.6247440">
        <ele>88.7</ele>
        <time>2021-05-20T15:35:27Z</time>
      </trkpt>
      <trkpt lat="42.2769790" lon="-8.6247350">
        <ele>88.7</ele>
        <time>2021-05-20T15:35:28Z</time>
      </trkpt>
      <trkpt lat="42.2769790" lon="-8.6247250">
        <ele>88.7</ele>
        <time>2021-05-20T15:35:29Z</time>
      </trkpt>
      <trkpt lat="42.2769850" lon="-8.6247120">
        <ele>88.7</ele>
        <time>2021-05-20T15:35:30Z</time>
      </trkpt>
      <trkpt lat="42.2769890" lon="-8.6246990">
        <ele>88.7</ele>
        <time>2021-05-20T15:35:31Z</time>
      </trkpt>
      <trkpt lat="42.2769960" lon="-8.6246890">
        <ele>88.6</ele>
        <time>2021-05-20T15:35:32Z</time>
      </trkpt>
      <trkpt lat="42.2770000" lon="-8.6246630">
        <ele>88.6</ele>
        <time>2021-05-20T15:35:33Z</time>
      </trkpt>
      <trkpt lat="42.2770030" lon="-8.6246520">
        <ele>88.6</ele>
        <time>2021-05-20T15:35:34Z</time>
      </trkpt>
      <trkpt lat="42.2770060" lon="-8.6246410">
        <ele>88.6</ele>
        <time>2021-05-20T15:35:35Z</time>
      </trkpt>
      <trkpt lat="42.2770090" lon="-8.6246260">
        <ele>88.6</ele>
        <time>2021-05-20T15:35:36Z</time>
      </trkpt>
      <trkpt lat="42.2770130" lon="-8.6246150">
        <ele>88.6</ele>
        <time>2021-05-20T15:35:37Z</time>
      </trkpt>
      <trkpt lat="42.2770160" lon="-8.6246070">
        <ele>88.6</ele>
        <time>2021-05-20T15:35:38Z</time>
      </trkpt>
      <trkpt lat="42.2770140" lon="-8.6245920">
        <ele>88.6</ele>
        <time>2021-05-20T15:35:39Z</time>
      </trkpt>
      <trkpt lat="42.2770140" lon="-8.6245780">
        <ele>88.6</ele>
        <time>2021-05-20T15:35:40Z</time>
      </trkpt>
      <trkpt lat="42.2770140" lon="-8.6245580">
        <ele>88.6</ele>
        <time>2021-05-20T15:35:41Z</time>
      </trkpt>
      <trkpt lat="42.2770190" lon="-8.6245410">
        <ele>88.5</ele>
        <time>2021-05-20T15:35:42Z</time>
      </trkpt>
      <trkpt lat="42.2770150" lon="-8.6245310">
        <ele>88.5</ele>
        <time>2021-05-20T15:35:43Z</time>
      </trkpt>
      <trkpt lat="42.2770310" lon="-8.6245200">
        <ele>88.5</ele>
        <time>2021-05-20T15:35:44Z</time>
      </trkpt>
      <trkpt lat="42.2770270" lon="-8.6245060">
        <ele>88.5</ele>
        <time>2021-05-20T15:35:45Z</time>
      </trkpt>
      <trkpt lat="42.2770330" lon="-8.6245030">
        <ele>88.5</ele>
        <time>2021-05-20T15:35:46Z</time>
      </trkpt>
      <trkpt lat="42.2770350" lon="-8.6244840">
        <ele>88.5</ele>
        <time>2021-05-20T15:35:47Z</time>
      </trkpt>
      <trkpt lat="42.2770340" lon="-8.6244630">
        <ele>88.5</ele>
        <time>2021-05-20T15:35:48Z</time>
      </trkpt>
      <trkpt lat="42.2770340" lon="-8.6244370">
        <ele>88.5</ele>
        <time>2021-05-20T15:35:49Z</time>
      </trkpt>
      <trkpt lat="42.2770310" lon="-8.6244140">
        <ele>88.5</ele>
        <time>2021-05-20T15:35:50Z</time>
      </trkpt>
      <trkpt lat="42.2770280" lon="-8.6244030">
        <ele>88.4</ele>
        <time>2021-05-20T15:35:51Z</time>
      </trkpt>
      <trkpt lat="42.2770250" lon="-8.6243910">
        <ele>88.4</ele>
        <time>2021-05-20T15:35:52Z</time>
      </trkpt>
      <trkpt lat="42.2770210" lon="-8.6243800">
        <ele>88.4</ele>
        <time>2021-05-20T15:35:54Z</time>
      </trkpt>
      <trkpt lat="42.2770180" lon="-8.6243680">
        <ele>88.4</ele>
        <time>2021-05-20T15:35:55Z</time>
      </trkpt>
      <trkpt lat="42.2770150" lon="-8.6243570">
        <ele>88.4</ele>
        <time>2021-05-20T15:35:56Z</time>
      </trkpt>
      <trkpt lat="42.2770120" lon="-8.6243450">
        <ele>88.4</ele>
        <time>2021-05-20T15:35:57Z</time>
      </trkpt>
      <trkpt lat="42.2770140" lon="-8.6243410">
        <ele>88.4</ele>
        <time>2021-05-20T15:35:58Z</time>
      </trkpt>
      <trkpt lat="42.2770020" lon="-8.6243170">
        <ele>88.4</ele>
        <time>2021-05-20T15:35:59Z</time>
      </trkpt>
      <trkpt lat="42.2770020" lon="-8.6243010">
        <ele>88.4</ele>
        <time>2021-05-20T15:36:00Z</time>
      </trkpt>
      <trkpt lat="42.2770020" lon="-8.6242840">
        <ele>88.4</ele>
        <time>2021-05-20T15:36:01Z</time>
      </trkpt>
      <trkpt lat="42.2770040" lon="-8.6242700">
        <ele>88.4</ele>
        <time>2021-05-20T15:36:02Z</time>
      </trkpt>
      <trkpt lat="42.2770080" lon="-8.6242550">
        <ele>88.4</ele>
        <time>2021-05-20T15:36:03Z</time>
      </trkpt>
      <trkpt lat="42.2770070" lon="-8.6242290">
        <ele>88.3</ele>
        <time>2021-05-20T15:36:04Z</time>
      </trkpt>
      <trkpt lat="42.2770040" lon="-8.6242170">
        <ele>88.3</ele>
        <time>2021-05-20T15:36:05Z</time>
      </trkpt>
      <trkpt lat="42.2770000" lon="-8.6242040">
        <ele>88.3</ele>
        <time>2021-05-20T15:36:06Z</time>
      </trkpt>
      <trkpt lat="42.2769960" lon="-8.6241930">
        <ele>88.3</ele>
        <time>2021-05-20T15:36:07Z</time>
      </trkpt>
      <trkpt lat="42.2770010" lon="-8.6241800">
        <ele>88.3</ele>
        <time>2021-05-20T15:36:08Z</time>
      </trkpt>
      <trkpt lat="42.2770000" lon="-8.6241660">
        <ele>88.3</ele>
        <time>2021-05-20T15:36:09Z</time>
      </trkpt>
      <trkpt lat="42.2770020" lon="-8.6241540">
        <ele>88.3</ele>
        <time>2021-05-20T15:36:10Z</time>
      </trkpt>
      <trkpt lat="42.2769950" lon="-8.6241410">
        <ele>88.3</ele>
        <time>2021-05-20T15:36:11Z</time>
      </trkpt>
      <trkpt lat="42.2769940" lon="-8.6241210">
        <ele>88.3</ele>
        <time>2021-05-20T15:36:12Z</time>
      </trkpt>
      <trkpt lat="42.2769910" lon="-8.6241100">
        <ele>88.2</ele>
        <time>2021-05-20T15:36:13Z</time>
      </trkpt>
      <trkpt lat="42.2769910" lon="-8.6241050">
        <ele>88.2</ele>
        <time>2021-05-20T15:36:14Z</time>
      </trkpt>
      <trkpt lat="42.2769870" lon="-8.6240900">
        <ele>88.2</ele>
        <time>2021-05-20T15:36:15Z</time>
      </trkpt>
      <trkpt lat="42.2769870" lon="-8.6240810">
        <ele>88.2</ele>
        <time>2021-05-20T15:36:16Z</time>
      </trkpt>
      <trkpt lat="42.2769920" lon="-8.6240630">
        <ele>88.2</ele>
        <time>2021-05-20T15:36:17Z</time>
      </trkpt>
      <trkpt lat="42.2769950" lon="-8.6240580">
        <ele>88.2</ele>
        <time>2021-05-20T15:36:18Z</time>
      </trkpt>
      <trkpt lat="42.2769970" lon="-8.6240400">
        <ele>88.1</ele>
        <time>2021-05-20T15:36:19Z</time>
      </trkpt>
      <trkpt lat="42.2770040" lon="-8.6240160">
        <ele>88.1</ele>
        <time>2021-05-20T15:36:20Z</time>
      </trkpt>
      <trkpt lat="42.2770050" lon="-8.6239970">
        <ele>88.0</ele>
        <time>2021-05-20T15:36:21Z</time>
      </trkpt>
      <trkpt lat="42.2770110" lon="-8.6239800">
        <ele>88.0</ele>
        <time>2021-05-20T15:36:22Z</time>
      </trkpt>
      <trkpt lat="42.2770190" lon="-8.6239580">
        <ele>88.0</ele>
        <time>2021-05-20T15:36:23Z</time>
      </trkpt>
      <trkpt lat="42.2770130" lon="-8.6239380">
        <ele>87.9</ele>
        <time>2021-05-20T15:36:24Z</time>
      </trkpt>
      <trkpt lat="42.2770150" lon="-8.6239290">
        <ele>87.9</ele>
        <time>2021-05-20T15:36:25Z</time>
      </trkpt>
      <trkpt lat="42.2770140" lon="-8.6239140">
        <ele>87.9</ele>
        <time>2021-05-20T15:36:26Z</time>
      </trkpt>
      <trkpt lat="42.2770180" lon="-8.6238900">
        <ele>87.8</ele>
        <time>2021-05-20T15:36:27Z</time>
      </trkpt>
      <trkpt lat="42.2770170" lon="-8.6238730">
        <ele>87.8</ele>
        <time>2021-05-20T15:36:28Z</time>
      </trkpt>
      <trkpt lat="42.2770190" lon="-8.6238580">
        <ele>87.8</ele>
        <time>2021-05-20T15:36:29Z</time>
      </trkpt>
      <trkpt lat="42.2770190" lon="-8.6238360">
        <ele>87.7</ele>
        <time>2021-05-20T15:36:30Z</time>
      </trkpt>
      <trkpt lat="42.2770170" lon="-8.6238220">
        <ele>87.7</ele>
        <time>2021-05-20T15:36:31Z</time>
      </trkpt>
      <trkpt lat="42.2770130" lon="-8.6238070">
        <ele>87.7</ele>
        <time>2021-05-20T15:36:32Z</time>
      </trkpt>
      <trkpt lat="42.2770170" lon="-8.6237960">
        <ele>87.7</ele>
        <time>2021-05-20T15:36:33Z</time>
      </trkpt>
      <trkpt lat="42.2770200" lon="-8.6237750">
        <ele>87.6</ele>
        <time>2021-05-20T15:36:34Z</time>
      </trkpt>
      <trkpt lat="42.2770210" lon="-8.6237710">
        <ele>87.6</ele>
        <time>2021-05-20T15:36:35Z</time>
      </trkpt>
      <trkpt lat="42.2770230" lon="-8.6237690">
        <ele>87.6</ele>
        <time>2021-05-20T15:36:36Z</time>
      </trkpt>
      <trkpt lat="42.2770250" lon="-8.6237550">
        <ele>87.6</ele>
        <time>2021-05-20T15:36:37Z</time>
      </trkpt>
      <trkpt lat="42.2770250" lon="-8.6237350">
        <ele>87.6</ele>
        <time>2021-05-20T15:36:38Z</time>
      </trkpt>
      <trkpt lat="42.2770240" lon="-8.6237210">
        <ele>87.5</ele>
        <time>2021-05-20T15:36:39Z</time>
      </trkpt>
      <trkpt lat="42.2770150" lon="-8.6237090">
        <ele>87.5</ele>
        <time>2021-05-20T15:36:40Z</time>
      </trkpt>
      <trkpt lat="42.2770160" lon="-8.6236950">
        <ele>87.5</ele>
        <time>2021-05-20T15:36:41Z</time>
      </trkpt>
      <trkpt lat="42.2770160" lon="-8.6236870">
        <ele>87.4</ele>
        <time>2021-05-20T15:36:42Z</time>
      </trkpt>
      <trkpt lat="42.2770120" lon="-8.6236710">
        <ele>87.4</ele>
        <time>2021-05-20T15:36:43Z</time>
      </trkpt>
      <trkpt lat="42.2770160" lon="-8.6236530">
        <ele>87.3</ele>
        <time>2021-05-20T15:36:44Z</time>
      </trkpt>
      <trkpt lat="42.2770170" lon="-8.6236290">
        <ele>87.2</ele>
        <time>2021-05-20T15:36:45Z</time>
      </trkpt>
      <trkpt lat="42.2770220" lon="-8.6236090">
        <ele>87.2</ele>
        <time>2021-05-20T15:36:46Z</time>
      </trkpt>
      <trkpt lat="42.2770270" lon="-8.6235870">
        <ele>87.1</ele>
        <time>2021-05-20T15:36:47Z</time>
      </trkpt>
      <trkpt lat="42.2770270" lon="-8.6235750">
        <ele>87.1</ele>
        <time>2021-05-20T15:36:48Z</time>
      </trkpt>
      <trkpt lat="42.2770290" lon="-8.6235610">
        <ele>87.0</ele>
        <time>2021-05-20T15:36:49Z</time>
      </trkpt>
      <trkpt lat="42.2770310" lon="-8.6235460">
        <ele>87.0</ele>
        <time>2021-05-20T15:36:50Z</time>
      </trkpt>
      <trkpt lat="42.2770390" lon="-8.6235310">
        <ele>86.9</ele>
        <time>2021-05-20T15:36:51Z</time>
      </trkpt>
      <trkpt lat="42.2770430" lon="-8.6235150">
        <ele>86.8</ele>
        <time>2021-05-20T15:36:52Z</time>
      </trkpt>
      <trkpt lat="42.2770500" lon="-8.6235100">
        <ele>86.8</ele>
        <time>2021-05-20T15:36:53Z</time>
      </trkpt>
      <trkpt lat="42.2770550" lon="-8.6234780">
        <ele>86.7</ele>
        <time>2021-05-20T15:36:54Z</time>
      </trkpt>
      <trkpt lat="42.2770560" lon="-8.6234690">
        <ele>86.7</ele>
        <time>2021-05-20T15:36:55Z</time>
      </trkpt>
      <trkpt lat="42.2770580" lon="-8.6234600">
        <ele>86.6</ele>
        <time>2021-05-20T15:36:56Z</time>
      </trkpt>
      <trkpt lat="42.2770640" lon="-8.6234410">
        <ele>86.6</ele>
        <time>2021-05-20T15:36:57Z</time>
      </trkpt>
      <trkpt lat="42.2770600" lon="-8.6234210">
        <ele>86.5</ele>
        <time>2021-05-20T15:36:58Z</time>
      </trkpt>
      <trkpt lat="42.2770680" lon="-8.6234000">
        <ele>86.4</ele>
        <time>2021-05-20T15:36:59Z</time>
      </trkpt>
      <trkpt lat="42.2770740" lon="-8.6233790">
        <ele>86.3</ele>
        <time>2021-05-20T15:37:00Z</time>
      </trkpt>
      <trkpt lat="42.2770800" lon="-8.6233660">
        <ele>86.3</ele>
        <time>2021-05-20T15:37:01Z</time>
      </trkpt>
      <trkpt lat="42.2770780" lon="-8.6233480">
        <ele>86.2</ele>
        <time>2021-05-20T15:37:02Z</time>
      </trkpt>
      <trkpt lat="42.2770790" lon="-8.6233400">
        <ele>86.2</ele>
        <time>2021-05-20T15:37:03Z</time>
      </trkpt>
      <trkpt lat="42.2770840" lon="-8.6233230">
        <ele>86.1</ele>
        <time>2021-05-20T15:37:04Z</time>
      </trkpt>
      <trkpt lat="42.2770830" lon="-8.6233140">
        <ele>86.1</ele>
        <time>2021-05-20T15:37:05Z</time>
      </trkpt>
      <trkpt lat="42.2770880" lon="-8.6232970">
        <ele>86.0</ele>
        <time>2021-05-20T15:37:06Z</time>
      </trkpt>
      <trkpt lat="42.2770940" lon="-8.6232860">
        <ele>86.0</ele>
        <time>2021-05-20T15:37:07Z</time>
      </trkpt>
      <trkpt lat="42.2770930" lon="-8.6232710">
        <ele>85.9</ele>
        <time>2021-05-20T15:37:08Z</time>
      </trkpt>
      <trkpt lat="42.2770980" lon="-8.6232510">
        <ele>85.8</ele>
        <time>2021-05-20T15:37:09Z</time>
      </trkpt>
      <trkpt lat="42.2771050" lon="-8.6232400">
        <ele>85.8</ele>
        <time>2021-05-20T15:37:10Z</time>
      </trkpt>
      <trkpt lat="42.2771110" lon="-8.6232230">
        <ele>85.7</ele>
        <time>2021-05-20T15:37:11Z</time>
      </trkpt>
      <trkpt lat="42.2771160" lon="-8.6232140">
        <ele>85.7</ele>
        <time>2021-05-20T15:37:12Z</time>
      </trkpt>
      <trkpt lat="42.2771160" lon="-8.6232040">
        <ele>85.6</ele>
        <time>2021-05-20T15:37:13Z</time>
      </trkpt>
      <trkpt lat="42.2771200" lon="-8.6231870">
        <ele>85.5</ele>
        <time>2021-05-20T15:37:14Z</time>
      </trkpt>
      <trkpt lat="42.2771230" lon="-8.6231690">
        <ele>85.5</ele>
        <time>2021-05-20T15:37:15Z</time>
      </trkpt>
      <trkpt lat="42.2771270" lon="-8.6231540">
        <ele>85.4</ele>
        <time>2021-05-20T15:37:16Z</time>
      </trkpt>
      <trkpt lat="42.2771240" lon="-8.6231410">
        <ele>85.4</ele>
        <time>2021-05-20T15:37:17Z</time>
      </trkpt>
      <trkpt lat="42.2771280" lon="-8.6231320">
        <ele>85.3</ele>
        <time>2021-05-20T15:37:18Z</time>
      </trkpt>
      <trkpt lat="42.2771270" lon="-8.6231190">
        <ele>85.3</ele>
        <time>2021-05-20T15:37:19Z</time>
      </trkpt>
      <trkpt lat="42.2771310" lon="-8.6231060">
        <ele>85.2</ele>
        <time>2021-05-20T15:37:20Z</time>
      </trkpt>
      <trkpt lat="42.2771360" lon="-8.6230880">
        <ele>85.1</ele>
        <time>2021-05-20T15:37:21Z</time>
      </trkpt>
      <trkpt lat="42.2771370" lon="-8.6230760">
        <ele>85.1</ele>
        <time>2021-05-20T15:37:22Z</time>
      </trkpt>
      <trkpt lat="42.2771410" lon="-8.6230660">
        <ele>85.1</ele>
        <time>2021-05-20T15:37:23Z</time>
      </trkpt>
      <trkpt lat="42.2771510" lon="-8.6230460">
        <ele>85.0</ele>
        <time>2021-05-20T15:37:24Z</time>
      </trkpt>
      <trkpt lat="42.2771570" lon="-8.6230380">
        <ele>84.9</ele>
        <time>2021-05-20T15:37:25Z</time>
      </trkpt>
      <trkpt lat="42.2771680" lon="-8.6230260">
        <ele>84.8</ele>
        <time>2021-05-20T15:37:26Z</time>
      </trkpt>
      <trkpt lat="42.2771710" lon="-8.6230080">
        <ele>84.8</ele>
        <time>2021-05-20T15:37:27Z</time>
      </trkpt>
      <trkpt lat="42.2771810" lon="-8.6229800">
        <ele>84.7</ele>
        <time>2021-05-20T15:37:28Z</time>
      </trkpt>
      <trkpt lat="42.2771830" lon="-8.6229680">
        <ele>84.6</ele>
        <time>2021-05-20T15:37:29Z</time>
      </trkpt>
      <trkpt lat="42.2771860" lon="-8.6229570">
        <ele>84.6</ele>
        <time>2021-05-20T15:37:30Z</time>
      </trkpt>
      <trkpt lat="42.2771930" lon="-8.6229400">
        <ele>84.5</ele>
        <time>2021-05-20T15:37:31Z</time>
      </trkpt>
      <trkpt lat="42.2771990" lon="-8.6229270">
        <ele>84.4</ele>
        <time>2021-05-20T15:37:32Z</time>
      </trkpt>
      <trkpt lat="42.2772020" lon="-8.6229190">
        <ele>84.4</ele>
        <time>2021-05-20T15:37:33Z</time>
      </trkpt>
      <trkpt lat="42.2772080" lon="-8.6229080">
        <ele>84.3</ele>
        <time>2021-05-20T15:37:34Z</time>
      </trkpt>
      <trkpt lat="42.2772130" lon="-8.6229030">
        <ele>84.3</ele>
        <time>2021-05-20T15:37:35Z</time>
      </trkpt>
      <trkpt lat="42.2772140" lon="-8.6228780">
        <ele>84.2</ele>
        <time>2021-05-20T15:37:36Z</time>
      </trkpt>
      <trkpt lat="42.2772200" lon="-8.6228650">
        <ele>84.1</ele>
        <time>2021-05-20T15:37:37Z</time>
      </trkpt>
      <trkpt lat="42.2772270" lon="-8.6228500">
        <ele>84.1</ele>
        <time>2021-05-20T15:37:38Z</time>
      </trkpt>
      <trkpt lat="42.2772350" lon="-8.6228410">
        <ele>84.0</ele>
        <time>2021-05-20T15:37:39Z</time>
      </trkpt>
      <trkpt lat="42.2772330" lon="-8.6228250">
        <ele>84.0</ele>
        <time>2021-05-20T15:37:40Z</time>
      </trkpt>
      <trkpt lat="42.2772380" lon="-8.6228200">
        <ele>83.9</ele>
        <time>2021-05-20T15:37:41Z</time>
      </trkpt>
      <trkpt lat="42.2772380" lon="-8.6227980">
        <ele>83.8</ele>
        <time>2021-05-20T15:37:42Z</time>
      </trkpt>
      <trkpt lat="42.2772410" lon="-8.6227800">
        <ele>83.8</ele>
        <time>2021-05-20T15:37:43Z</time>
      </trkpt>
      <trkpt lat="42.2772460" lon="-8.6227600">
        <ele>83.7</ele>
        <time>2021-05-20T15:37:44Z</time>
      </trkpt>
      <trkpt lat="42.2772550" lon="-8.6227400">
        <ele>83.6</ele>
        <time>2021-05-20T15:37:45Z</time>
      </trkpt>
      <trkpt lat="42.2772580" lon="-8.6227300">
        <ele>83.6</ele>
        <time>2021-05-20T15:37:46Z</time>
      </trkpt>
      <trkpt lat="42.2772620" lon="-8.6227190">
        <ele>83.5</ele>
        <time>2021-05-20T15:37:47Z</time>
      </trkpt>
      <trkpt lat="42.2772650" lon="-8.6227090">
        <ele>83.5</ele>
        <time>2021-05-20T15:37:48Z</time>
      </trkpt>
      <trkpt lat="42.2772620" lon="-8.6226910">
        <ele>83.4</ele>
        <time>2021-05-20T15:37:49Z</time>
      </trkpt>
      <trkpt lat="42.2772710" lon="-8.6226760">
        <ele>83.3</ele>
        <time>2021-05-20T15:37:50Z</time>
      </trkpt>
      <trkpt lat="42.2772760" lon="-8.6226640">
        <ele>83.3</ele>
        <time>2021-05-20T15:37:51Z</time>
      </trkpt>
      <trkpt lat="42.2772840" lon="-8.6226380">
        <ele>83.2</ele>
        <time>2021-05-20T15:37:52Z</time>
      </trkpt>
      <trkpt lat="42.2772860" lon="-8.6226280">
        <ele>83.1</ele>
        <time>2021-05-20T15:37:53Z</time>
      </trkpt>
      <trkpt lat="42.2772880" lon="-8.6226170">
        <ele>83.1</ele>
        <time>2021-05-20T15:37:54Z</time>
      </trkpt>
      <trkpt lat="42.2772940" lon="-8.6226050">
        <ele>83.0</ele>
        <time>2021-05-20T15:37:55Z</time>
      </trkpt>
      <trkpt lat="42.2772970" lon="-8.6225920">
        <ele>83.0</ele>
        <time>2021-05-20T15:37:56Z</time>
      </trkpt>
      <trkpt lat="42.2773040" lon="-8.6225800">
        <ele>82.9</ele>
        <time>2021-05-20T15:37:57Z</time>
      </trkpt>
      <trkpt lat="42.2773030" lon="-8.6225670">
        <ele>82.8</ele>
        <time>2021-05-20T15:37:58Z</time>
      </trkpt>
      <trkpt lat="42.2773090" lon="-8.6225610">
        <ele>82.8</ele>
        <time>2021-05-20T15:37:59Z</time>
      </trkpt>
      <trkpt lat="42.2773100" lon="-8.6225500">
        <ele>82.7</ele>
        <time>2021-05-20T15:38:00Z</time>
      </trkpt>
      <trkpt lat="42.2773140" lon="-8.6225390">
        <ele>82.7</ele>
        <time>2021-05-20T15:38:01Z</time>
      </trkpt>
      <trkpt lat="42.2773230" lon="-8.6225120">
        <ele>82.6</ele>
        <time>2021-05-20T15:38:02Z</time>
      </trkpt>
      <trkpt lat="42.2773250" lon="-8.6225000">
        <ele>82.5</ele>
        <time>2021-05-20T15:38:03Z</time>
      </trkpt>
      <trkpt lat="42.2773270" lon="-8.6224890">
        <ele>82.5</ele>
        <time>2021-05-20T15:38:04Z</time>
      </trkpt>
      <trkpt lat="42.2773320" lon="-8.6224720">
        <ele>82.4</ele>
        <time>2021-05-20T15:38:05Z</time>
      </trkpt>
      <trkpt lat="42.2773330" lon="-8.6224660">
        <ele>82.4</ele>
        <time>2021-05-20T15:38:06Z</time>
      </trkpt>
      <trkpt lat="42.2773420" lon="-8.6224520">
        <ele>82.3</ele>
        <time>2021-05-20T15:38:07Z</time>
      </trkpt>
      <trkpt lat="42.2773540" lon="-8.6224250">
        <ele>82.2</ele>
        <time>2021-05-20T15:38:08Z</time>
      </trkpt>
      <trkpt lat="42.2773570" lon="-8.6224140">
        <ele>82.1</ele>
        <time>2021-05-20T15:38:09Z</time>
      </trkpt>
      <trkpt lat="42.2773600" lon="-8.6224040">
        <ele>82.1</ele>
        <time>2021-05-20T15:38:10Z</time>
      </trkpt>
      <trkpt lat="42.2773690" lon="-8.6223750">
        <ele>81.9</ele>
        <time>2021-05-20T15:38:11Z</time>
      </trkpt>
      <trkpt lat="42.2773740" lon="-8.6223660">
        <ele>81.9</ele>
        <time>2021-05-20T15:38:12Z</time>
      </trkpt>
      <trkpt lat="42.2773790" lon="-8.6223570">
        <ele>81.9</ele>
        <time>2021-05-20T15:38:13Z</time>
      </trkpt>
      <trkpt lat="42.2773820" lon="-8.6223280">
        <ele>81.7</ele>
        <time>2021-05-20T15:38:14Z</time>
      </trkpt>
      <trkpt lat="42.2773830" lon="-8.6223180">
        <ele>81.7</ele>
        <time>2021-05-20T15:38:15Z</time>
      </trkpt>
      <trkpt lat="42.2773840" lon="-8.6223080">
        <ele>81.6</ele>
        <time>2021-05-20T15:38:16Z</time>
      </trkpt>
      <trkpt lat="42.2773960" lon="-8.6222830">
        <ele>81.5</ele>
        <time>2021-05-20T15:38:17Z</time>
      </trkpt>
      <trkpt lat="42.2774000" lon="-8.6222710">
        <ele>81.5</ele>
        <time>2021-05-20T15:38:18Z</time>
      </trkpt>
      <trkpt lat="42.2774030" lon="-8.6222580">
        <ele>81.4</ele>
        <time>2021-05-20T15:38:19Z</time>
      </trkpt>
      <trkpt lat="42.2774160" lon="-8.6222450">
        <ele>81.3</ele>
        <time>2021-05-20T15:38:20Z</time>
      </trkpt>
      <trkpt lat="42.2774160" lon="-8.6222250">
        <ele>81.2</ele>
        <time>2021-05-20T15:38:21Z</time>
      </trkpt>
      <trkpt lat="42.2774140" lon="-8.6222160">
        <ele>81.2</ele>
        <time>2021-05-20T15:38:22Z</time>
      </trkpt>
      <trkpt lat="42.2774160" lon="-8.6221920">
        <ele>81.1</ele>
        <time>2021-05-20T15:38:23Z</time>
      </trkpt>
      <trkpt lat="42.2774190" lon="-8.6221790">
        <ele>81.0</ele>
        <time>2021-05-20T15:38:24Z</time>
      </trkpt>
      <trkpt lat="42.2774200" lon="-8.6221670">
        <ele>81.0</ele>
        <time>2021-05-20T15:38:25Z</time>
      </trkpt>
      <trkpt lat="42.2774220" lon="-8.6221590">
        <ele>81.0</ele>
        <time>2021-05-20T15:38:26Z</time>
      </trkpt>
      <trkpt lat="42.2774250" lon="-8.6221440">
        <ele>80.9</ele>
        <time>2021-05-20T15:38:27Z</time>
      </trkpt>
      <trkpt lat="42.2774260" lon="-8.6221280">
        <ele>80.8</ele>
        <time>2021-05-20T15:38:28Z</time>
      </trkpt>
      <trkpt lat="42.2774310" lon="-8.6221130">
        <ele>80.8</ele>
        <time>2021-05-20T15:38:29Z</time>
      </trkpt>
      <trkpt lat="42.2774360" lon="-8.6221010">
        <ele>80.7</ele>
        <time>2021-05-20T15:38:30Z</time>
      </trkpt>
      <trkpt lat="42.2774510" lon="-8.6220730">
        <ele>80.6</ele>
        <time>2021-05-20T15:38:31Z</time>
      </trkpt>
      <trkpt lat="42.2774580" lon="-8.6220630">
        <ele>80.5</ele>
        <time>2021-05-20T15:38:32Z</time>
      </trkpt>
      <trkpt lat="42.2774640" lon="-8.6220520">
        <ele>80.5</ele>
        <time>2021-05-20T15:38:33Z</time>
      </trkpt>
      <trkpt lat="42.2774680" lon="-8.6220410">
        <ele>80.4</ele>
        <time>2021-05-20T15:38:34Z</time>
      </trkpt>
      <trkpt lat="42.2774740" lon="-8.6220230">
        <ele>80.4</ele>
        <time>2021-05-20T15:38:35Z</time>
      </trkpt>
      <trkpt lat="42.2774770" lon="-8.6220140">
        <ele>80.3</ele>
        <time>2021-05-20T15:38:36Z</time>
      </trkpt>
      <trkpt lat="42.2774840" lon="-8.6219970">
        <ele>80.2</ele>
        <time>2021-05-20T15:38:37Z</time>
      </trkpt>
      <trkpt lat="42.2774820" lon="-8.6219900">
        <ele>80.2</ele>
        <time>2021-05-20T15:38:38Z</time>
      </trkpt>
      <trkpt lat="42.2774850" lon="-8.6219720">
        <ele>80.1</ele>
        <time>2021-05-20T15:38:39Z</time>
      </trkpt>
      <trkpt lat="42.2775050" lon="-8.6219520">
        <ele>80.0</ele>
        <time>2021-05-20T15:38:40Z</time>
      </trkpt>
      <trkpt lat="42.2775110" lon="-8.6219470">
        <ele>80.0</ele>
        <time>2021-05-20T15:38:41Z</time>
      </trkpt>
      <trkpt lat="42.2775200" lon="-8.6219260">
        <ele>79.9</ele>
        <time>2021-05-20T15:38:42Z</time>
      </trkpt>
      <trkpt lat="42.2775270" lon="-8.6219150">
        <ele>79.9</ele>
        <time>2021-05-20T15:38:43Z</time>
      </trkpt>
      <trkpt lat="42.2775330" lon="-8.6219030">
        <ele>79.8</ele>
        <time>2021-05-20T15:38:44Z</time>
      </trkpt>
      <trkpt lat="42.2775360" lon="-8.6218880">
        <ele>79.8</ele>
        <time>2021-05-20T15:38:45Z</time>
      </trkpt>
      <trkpt lat="42.2775370" lon="-8.6218730">
        <ele>79.7</ele>
        <time>2021-05-20T15:38:46Z</time>
      </trkpt>
      <trkpt lat="42.2775410" lon="-8.6218580">
        <ele>79.7</ele>
        <time>2021-05-20T15:38:47Z</time>
      </trkpt>
      <trkpt lat="42.2775450" lon="-8.6218480">
        <ele>79.6</ele>
        <time>2021-05-20T15:38:48Z</time>
      </trkpt>
      <trkpt lat="42.2775470" lon="-8.6218340">
        <ele>79.6</ele>
        <time>2021-05-20T15:38:49Z</time>
      </trkpt>
      <trkpt lat="42.2775510" lon="-8.6218180">
        <ele>79.6</ele>
        <time>2021-05-20T15:38:50Z</time>
      </trkpt>
      <trkpt lat="42.2775570" lon="-8.6218090">
        <ele>79.5</ele>
        <time>2021-05-20T15:38:51Z</time>
      </trkpt>
      <trkpt lat="42.2775580" lon="-8.6217920">
        <ele>79.5</ele>
        <time>2021-05-20T15:38:52Z</time>
      </trkpt>
      <trkpt lat="42.2775620" lon="-8.6217760">
        <ele>79.4</ele>
        <time>2021-05-20T15:38:53Z</time>
      </trkpt>
      <trkpt lat="42.2775640" lon="-8.6217640">
        <ele>79.4</ele>
        <time>2021-05-20T15:38:54Z</time>
      </trkpt>
      <trkpt lat="42.2775720" lon="-8.6217500">
        <ele>79.4</ele>
        <time>2021-05-20T15:38:55Z</time>
      </trkpt>
      <trkpt lat="42.2775760" lon="-8.6217390">
        <ele>79.3</ele>
        <time>2021-05-20T15:38:56Z</time>
      </trkpt>
      <trkpt lat="42.2775880" lon="-8.6217220">
        <ele>79.3</ele>
        <time>2021-05-20T15:38:57Z</time>
      </trkpt>
      <trkpt lat="42.2775940" lon="-8.6217080">
        <ele>79.2</ele>
        <time>2021-05-20T15:38:58Z</time>
      </trkpt>
      <trkpt lat="42.2775950" lon="-8.6217030">
        <ele>79.2</ele>
        <time>2021-05-20T15:38:59Z</time>
      </trkpt>
      <trkpt lat="42.2776010" lon="-8.6216840">
        <ele>79.2</ele>
        <time>2021-05-20T15:39:00Z</time>
      </trkpt>
      <trkpt lat="42.2776090" lon="-8.6216690">
        <ele>79.1</ele>
        <time>2021-05-20T15:39:01Z</time>
      </trkpt>
      <trkpt lat="42.2776070" lon="-8.6216620">
        <ele>79.1</ele>
        <time>2021-05-20T15:39:02Z</time>
      </trkpt>
      <trkpt lat="42.2776180" lon="-8.6216460">
        <ele>79.1</ele>
        <time>2021-05-20T15:39:03Z</time>
      </trkpt>
      <trkpt lat="42.2776190" lon="-8.6216310">
        <ele>79.0</ele>
        <time>2021-05-20T15:39:04Z</time>
      </trkpt>
      <trkpt lat="42.2776290" lon="-8.6216180">
        <ele>79.0</ele>
        <time>2021-05-20T15:39:05Z</time>
      </trkpt>
      <trkpt lat="42.2776390" lon="-8.6216060">
        <ele>79.0</ele>
        <time>2021-05-20T15:39:06Z</time>
      </trkpt>
      <trkpt lat="42.2776420" lon="-8.6215990">
        <ele>78.9</ele>
        <time>2021-05-20T15:39:07Z</time>
      </trkpt>
      <trkpt lat="42.2776510" lon="-8.6215830">
        <ele>78.9</ele>
        <time>2021-05-20T15:39:08Z</time>
      </trkpt>
      <trkpt lat="42.2776590" lon="-8.6215720">
        <ele>78.9</ele>
        <time>2021-05-20T15:39:09Z</time>
      </trkpt>
      <trkpt lat="42.2776600" lon="-8.6215590">
        <ele>78.9</ele>
        <time>2021-05-20T15:39:10Z</time>
      </trkpt>
      <trkpt lat="42.2776670" lon="-8.6215490">
        <ele>78.9</ele>
        <time>2021-05-20T15:39:11Z</time>
      </trkpt>
      <trkpt lat="42.2776720" lon="-8.6215360">
        <ele>78.9</ele>
        <time>2021-05-20T15:39:12Z</time>
      </trkpt>
      <trkpt lat="42.2776770" lon="-8.6215220">
        <ele>78.9</ele>
        <time>2021-05-20T15:39:13Z</time>
      </trkpt>
      <trkpt lat="42.2776830" lon="-8.6215110">
        <ele>78.9</ele>
        <time>2021-05-20T15:39:14Z</time>
      </trkpt>
      <trkpt lat="42.2776920" lon="-8.6215060">
        <ele>78.9</ele>
        <time>2021-05-20T15:39:15Z</time>
      </trkpt>
      <trkpt lat="42.2776940" lon="-8.6215020">
        <ele>78.9</ele>
        <time>2021-05-20T15:39:16Z</time>
      </trkpt>
      <trkpt lat="42.2777060" lon="-8.6214900">
        <ele>78.9</ele>
        <time>2021-05-20T15:39:17Z</time>
      </trkpt>
      <trkpt lat="42.2777200" lon="-8.6214800">
        <ele>78.8</ele>
        <time>2021-05-20T15:39:18Z</time>
      </trkpt>
      <trkpt lat="42.2777310" lon="-8.6214670">
        <ele>78.8</ele>
        <time>2021-05-20T15:39:19Z</time>
      </trkpt>
      <trkpt lat="42.2777420" lon="-8.6214580">
        <ele>78.8</ele>
        <time>2021-05-20T15:39:20Z</time>
      </trkpt>
      <trkpt lat="42.2777470" lon="-8.6214510">
        <ele>78.8</ele>
        <time>2021-05-20T15:39:21Z</time>
      </trkpt>
      <trkpt lat="42.2777580" lon="-8.6214480">
        <ele>78.8</ele>
        <time>2021-05-20T15:39:22Z</time>
      </trkpt>
      <trkpt lat="42.2777670" lon="-8.6214430">
        <ele>78.8</ele>
        <time>2021-05-20T15:39:23Z</time>
      </trkpt>
      <trkpt lat="42.2777830" lon="-8.6214290">
        <ele>78.7</ele>
        <time>2021-05-20T15:39:24Z</time>
      </trkpt>
      <trkpt lat="42.2777920" lon="-8.6214240">
        <ele>78.7</ele>
        <time>2021-05-20T15:39:25Z</time>
      </trkpt>
      <trkpt lat="42.2778000" lon="-8.6214200">
        <ele>78.7</ele>
        <time>2021-05-20T15:39:26Z</time>
      </trkpt>
      <trkpt lat="42.2778010" lon="-8.6214170">
        <ele>78.7</ele>
        <time>2021-05-20T15:39:27Z</time>
      </trkpt>
      <trkpt lat="42.2778090" lon="-8.6214080">
        <ele>78.7</ele>
        <time>2021-05-20T15:39:28Z</time>
      </trkpt>
      <trkpt lat="42.2778170" lon="-8.6213980">
        <ele>78.7</ele>
        <time>2021-05-20T15:39:29Z</time>
      </trkpt>
      <trkpt lat="42.2778280" lon="-8.6213920">
        <ele>78.7</ele>
        <time>2021-05-20T15:39:30Z</time>
      </trkpt>
      <trkpt lat="42.2778370" lon="-8.6213790">
        <ele>78.7</ele>
        <time>2021-05-20T15:39:31Z</time>
      </trkpt>
      <trkpt lat="42.2778520" lon="-8.6213790">
        <ele>78.7</ele>
        <time>2021-05-20T15:39:32Z</time>
      </trkpt>
      <trkpt lat="42.2778610" lon="-8.6213730">
        <ele>78.7</ele>
        <time>2021-05-20T15:39:33Z</time>
      </trkpt>
      <trkpt lat="42.2778730" lon="-8.6213580">
        <ele>78.7</ele>
        <time>2021-05-20T15:39:34Z</time>
      </trkpt>
      <trkpt lat="42.2778810" lon="-8.6213470">
        <ele>78.7</ele>
        <time>2021-05-20T15:39:35Z</time>
      </trkpt>
      <trkpt lat="42.2778920" lon="-8.6213390">
        <ele>78.6</ele>
        <time>2021-05-20T15:39:36Z</time>
      </trkpt>
      <trkpt lat="42.2779020" lon="-8.6213250">
        <ele>78.6</ele>
        <time>2021-05-20T15:39:37Z</time>
      </trkpt>
      <trkpt lat="42.2779060" lon="-8.6213110">
        <ele>78.6</ele>
        <time>2021-05-20T15:39:38Z</time>
      </trkpt>
      <trkpt lat="42.2779120" lon="-8.6213010">
        <ele>78.6</ele>
        <time>2021-05-20T15:39:39Z</time>
      </trkpt>
      <trkpt lat="42.2779190" lon="-8.6212840">
        <ele>78.6</ele>
        <time>2021-05-20T15:39:40Z</time>
      </trkpt>
      <trkpt lat="42.2779260" lon="-8.6212650">
        <ele>78.6</ele>
        <time>2021-05-20T15:39:41Z</time>
      </trkpt>
      <trkpt lat="42.2779390" lon="-8.6212530">
        <ele>78.6</ele>
        <time>2021-05-20T15:39:42Z</time>
      </trkpt>
      <trkpt lat="42.2779490" lon="-8.6212410">
        <ele>78.7</ele>
        <time>2021-05-20T15:39:43Z</time>
      </trkpt>
      <trkpt lat="42.2779570" lon="-8.6212300">
        <ele>78.7</ele>
        <time>2021-05-20T15:39:44Z</time>
      </trkpt>
      <trkpt lat="42.2779640" lon="-8.6212200">
        <ele>78.7</ele>
        <time>2021-05-20T15:39:45Z</time>
      </trkpt>
      <trkpt lat="42.2779680" lon="-8.6212140">
        <ele>78.7</ele>
        <time>2021-05-20T15:39:46Z</time>
      </trkpt>
      <trkpt lat="42.2779770" lon="-8.6212070">
        <ele>78.7</ele>
        <time>2021-05-20T15:39:47Z</time>
      </trkpt>
      <trkpt lat="42.2779960" lon="-8.6212020">
        <ele>78.7</ele>
        <time>2021-05-20T15:39:48Z</time>
      </trkpt>
      <trkpt lat="42.2780120" lon="-8.6211930">
        <ele>78.7</ele>
        <time>2021-05-20T15:39:49Z</time>
      </trkpt>
      <trkpt lat="42.2780180" lon="-8.6211880">
        <ele>78.7</ele>
        <time>2021-05-20T15:39:50Z</time>
      </trkpt>
      <trkpt lat="42.2780240" lon="-8.6211800">
        <ele>78.7</ele>
        <time>2021-05-20T15:39:51Z</time>
      </trkpt>
      <trkpt lat="42.2780350" lon="-8.6211720">
        <ele>78.7</ele>
        <time>2021-05-20T15:39:52Z</time>
      </trkpt>
      <trkpt lat="42.2780450" lon="-8.6211660">
        <ele>78.7</ele>
        <time>2021-05-20T15:39:53Z</time>
      </trkpt>
      <trkpt lat="42.2780500" lon="-8.6211580">
        <ele>78.8</ele>
        <time>2021-05-20T15:39:54Z</time>
      </trkpt>
      <trkpt lat="42.2780570" lon="-8.6211550">
        <ele>78.8</ele>
        <time>2021-05-20T15:39:55Z</time>
      </trkpt>
      <trkpt lat="42.2780640" lon="-8.6211520">
        <ele>78.8</ele>
        <time>2021-05-20T15:39:56Z</time>
      </trkpt>
      <trkpt lat="42.2780750" lon="-8.6211430">
        <ele>78.8</ele>
        <time>2021-05-20T15:39:57Z</time>
      </trkpt>
      <trkpt lat="42.2780830" lon="-8.6211380">
        <ele>78.8</ele>
        <time>2021-05-20T15:39:58Z</time>
      </trkpt>
      <trkpt lat="42.2780900" lon="-8.6211280">
        <ele>78.8</ele>
        <time>2021-05-20T15:39:59Z</time>
      </trkpt>
      <trkpt lat="42.2780980" lon="-8.6211200">
        <ele>78.8</ele>
        <time>2021-05-20T15:40:00Z</time>
      </trkpt>
      <trkpt lat="42.2781030" lon="-8.6211110">
        <ele>78.8</ele>
        <time>2021-05-20T15:40:01Z</time>
      </trkpt>
      <trkpt lat="42.2781110" lon="-8.6211050">
        <ele>78.8</ele>
        <time>2021-05-20T15:40:02Z</time>
      </trkpt>
      <trkpt lat="42.2781240" lon="-8.6210930">
        <ele>78.9</ele>
        <time>2021-05-20T15:40:03Z</time>
      </trkpt>
      <trkpt lat="42.2781320" lon="-8.6210900">
        <ele>78.9</ele>
        <time>2021-05-20T15:40:04Z</time>
      </trkpt>
      <trkpt lat="42.2781410" lon="-8.6210840">
        <ele>78.9</ele>
        <time>2021-05-20T15:40:05Z</time>
      </trkpt>
      <trkpt lat="42.2781490" lon="-8.6210770">
        <ele>78.9</ele>
        <time>2021-05-20T15:40:06Z</time>
      </trkpt>
      <trkpt lat="42.2781540" lon="-8.6210760">
        <ele>78.9</ele>
        <time>2021-05-20T15:40:07Z</time>
      </trkpt>
      <trkpt lat="42.2781670" lon="-8.6210730">
        <ele>78.9</ele>
        <time>2021-05-20T15:40:08Z</time>
      </trkpt>
      <trkpt lat="42.2781780" lon="-8.6210720">
        <ele>79.0</ele>
        <time>2021-05-20T15:40:09Z</time>
      </trkpt>
      <trkpt lat="42.2781910" lon="-8.6210650">
        <ele>79.0</ele>
        <time>2021-05-20T15:40:10Z</time>
      </trkpt>
      <trkpt lat="42.2782050" lon="-8.6210610">
        <ele>79.0</ele>
        <time>2021-05-20T15:40:11Z</time>
      </trkpt>
      <trkpt lat="42.2782120" lon="-8.6210600">
        <ele>79.0</ele>
        <time>2021-05-20T15:40:12Z</time>
      </trkpt>
      <trkpt lat="42.2782310" lon="-8.6210430">
        <ele>79.0</ele>
        <time>2021-05-20T15:40:13Z</time>
      </trkpt>
      <trkpt lat="42.2782480" lon="-8.6210320">
        <ele>79.1</ele>
        <time>2021-05-20T15:40:14Z</time>
      </trkpt>
      <trkpt lat="42.2782590" lon="-8.6210290">
        <ele>79.1</ele>
        <time>2021-05-20T15:40:15Z</time>
      </trkpt>
      <trkpt lat="42.2782690" lon="-8.6210260">
        <ele>79.1</ele>
        <time>2021-05-20T15:40:16Z</time>
      </trkpt>
      <trkpt lat="42.2782850" lon="-8.6210240">
        <ele>79.1</ele>
        <time>2021-05-20T15:40:17Z</time>
      </trkpt>
      <trkpt lat="42.2782970" lon="-8.6210150">
        <ele>79.2</ele>
        <time>2021-05-20T15:40:18Z</time>
      </trkpt>
      <trkpt lat="42.2783100" lon="-8.6210100">
        <ele>79.2</ele>
        <time>2021-05-20T15:40:19Z</time>
      </trkpt>
      <trkpt lat="42.2783270" lon="-8.6210070">
        <ele>79.2</ele>
        <time>2021-05-20T15:40:20Z</time>
      </trkpt>
      <trkpt lat="42.2783290" lon="-8.6210140">
        <ele>79.2</ele>
        <time>2021-05-20T15:40:21Z</time>
      </trkpt>
      <trkpt lat="42.2783300" lon="-8.6210090">
        <ele>79.2</ele>
        <time>2021-05-20T15:40:22Z</time>
      </trkpt>
      <trkpt lat="42.2783230" lon="-8.6210060">
        <ele>79.2</ele>
        <time>2021-05-20T15:40:23Z</time>
      </trkpt>
      <trkpt lat="42.2783230" lon="-8.6210000">
        <ele>79.2</ele>
        <time>2021-05-20T15:40:24Z</time>
      </trkpt>
      <trkpt lat="42.2783400" lon="-8.6210010">
        <ele>79.3</ele>
        <time>2021-05-20T15:40:25Z</time>
      </trkpt>
      <trkpt lat="42.2783550" lon="-8.6209980">
        <ele>79.3</ele>
        <time>2021-05-20T15:40:26Z</time>
      </trkpt>
      <trkpt lat="42.2783620" lon="-8.6210030">
        <ele>79.3</ele>
        <time>2021-05-20T15:40:27Z</time>
      </trkpt>
      <trkpt lat="42.2783680" lon="-8.6210090">
        <ele>79.3</ele>
        <time>2021-05-20T15:40:28Z</time>
      </trkpt>
      <trkpt lat="42.2783760" lon="-8.6210080">
        <ele>79.3</ele>
        <time>2021-05-20T15:40:29Z</time>
      </trkpt>
      <trkpt lat="42.2783850" lon="-8.6210100">
        <ele>79.4</ele>
        <time>2021-05-20T15:40:30Z</time>
      </trkpt>
      <trkpt lat="42.2784120" lon="-8.6210100">
        <ele>79.4</ele>
        <time>2021-05-20T15:40:31Z</time>
      </trkpt>
      <trkpt lat="42.2784230" lon="-8.6210120">
        <ele>79.4</ele>
        <time>2021-05-20T15:40:32Z</time>
      </trkpt>
      <trkpt lat="42.2784530" lon="-8.6210090">
        <ele>79.5</ele>
        <time>2021-05-20T15:40:33Z</time>
      </trkpt>
      <trkpt lat="42.2784630" lon="-8.6210050">
        <ele>79.5</ele>
        <time>2021-05-20T15:40:34Z</time>
      </trkpt>
      <trkpt lat="42.2784790" lon="-8.6210100">
        <ele>79.5</ele>
        <time>2021-05-20T15:40:35Z</time>
      </trkpt>
      <trkpt lat="42.2784980" lon="-8.6210130">
        <ele>79.5</ele>
        <time>2021-05-20T15:40:36Z</time>
      </trkpt>
      <trkpt lat="42.2785100" lon="-8.6210170">
        <ele>79.6</ele>
        <time>2021-05-20T15:40:37Z</time>
      </trkpt>
      <trkpt lat="42.2785280" lon="-8.6210150">
        <ele>79.6</ele>
        <time>2021-05-20T15:40:38Z</time>
      </trkpt>
      <trkpt lat="42.2785370" lon="-8.6210170">
        <ele>79.6</ele>
        <time>2021-05-20T15:40:39Z</time>
      </trkpt>
      <trkpt lat="42.2785480" lon="-8.6210110">
        <ele>79.6</ele>
        <time>2021-05-20T15:40:40Z</time>
      </trkpt>
      <trkpt lat="42.2785590" lon="-8.6210090">
        <ele>79.7</ele>
        <time>2021-05-20T15:40:41Z</time>
      </trkpt>
      <trkpt lat="42.2785900" lon="-8.6210050">
        <ele>79.7</ele>
        <time>2021-05-20T15:40:42Z</time>
      </trkpt>
      <trkpt lat="42.2785960" lon="-8.6210010">
        <ele>79.7</ele>
        <time>2021-05-20T15:40:43Z</time>
      </trkpt>
      <trkpt lat="42.2786120" lon="-8.6209980">
        <ele>79.7</ele>
        <time>2021-05-20T15:40:44Z</time>
      </trkpt>
      <trkpt lat="42.2786260" lon="-8.6209990">
        <ele>79.8</ele>
        <time>2021-05-20T15:40:45Z</time>
      </trkpt>
      <trkpt lat="42.2786510" lon="-8.6209930">
        <ele>79.8</ele>
        <time>2021-05-20T15:40:46Z</time>
      </trkpt>
      <trkpt lat="42.2786520" lon="-8.6209860">
        <ele>79.8</ele>
        <time>2021-05-20T15:40:47Z</time>
      </trkpt>
      <trkpt lat="42.2786700" lon="-8.6209790">
        <ele>79.8</ele>
        <time>2021-05-20T15:40:48Z</time>
      </trkpt>
      <trkpt lat="42.2786830" lon="-8.6209650">
        <ele>79.9</ele>
        <time>2021-05-20T15:40:49Z</time>
      </trkpt>
      <trkpt lat="42.2786910" lon="-8.6209640">
        <ele>79.9</ele>
        <time>2021-05-20T15:40:50Z</time>
      </trkpt>
      <trkpt lat="42.2787030" lon="-8.6209560">
        <ele>79.9</ele>
        <time>2021-05-20T15:40:51Z</time>
      </trkpt>
      <trkpt lat="42.2787110" lon="-8.6209470">
        <ele>79.9</ele>
        <time>2021-05-20T15:40:52Z</time>
      </trkpt>
      <trkpt lat="42.2787260" lon="-8.6209340">
        <ele>79.9</ele>
        <time>2021-05-20T15:40:53Z</time>
      </trkpt>
      <trkpt lat="42.2787340" lon="-8.6209260">
        <ele>80.0</ele>
        <time>2021-05-20T15:40:54Z</time>
      </trkpt>
      <trkpt lat="42.2787420" lon="-8.6209180">
        <ele>80.0</ele>
        <time>2021-05-20T15:40:55Z</time>
      </trkpt>
      <trkpt lat="42.2787540" lon="-8.6209250">
        <ele>80.0</ele>
        <time>2021-05-20T15:40:56Z</time>
      </trkpt>
      <trkpt lat="42.2787700" lon="-8.6209310">
        <ele>80.0</ele>
        <time>2021-05-20T15:40:57Z</time>
      </trkpt>
      <trkpt lat="42.2787680" lon="-8.6209110">
        <ele>80.0</ele>
        <time>2021-05-20T15:40:58Z</time>
      </trkpt>
      <trkpt lat="42.2787740" lon="-8.6209010">
        <ele>80.0</ele>
        <time>2021-05-20T15:40:59Z</time>
      </trkpt>
      <trkpt lat="42.2787880" lon="-8.6208900">
        <ele>80.1</ele>
        <time>2021-05-20T15:41:00Z</time>
      </trkpt>
      <trkpt lat="42.2788040" lon="-8.6208820">
        <ele>80.1</ele>
        <time>2021-05-20T15:41:01Z</time>
      </trkpt>
      <trkpt lat="42.2788100" lon="-8.6208670">
        <ele>80.1</ele>
        <time>2021-05-20T15:41:02Z</time>
      </trkpt>
      <trkpt lat="42.2788160" lon="-8.6208520">
        <ele>80.1</ele>
        <time>2021-05-20T15:41:03Z</time>
      </trkpt>
      <trkpt lat="42.2788250" lon="-8.6208400">
        <ele>80.2</ele>
        <time>2021-05-20T15:41:04Z</time>
      </trkpt>
      <trkpt lat="42.2788340" lon="-8.6208330">
        <ele>80.2</ele>
        <time>2021-05-20T15:41:05Z</time>
      </trkpt>
      <trkpt lat="42.2788410" lon="-8.6208210">
        <ele>80.2</ele>
        <time>2021-05-20T15:41:06Z</time>
      </trkpt>
      <trkpt lat="42.2788470" lon="-8.6208140">
        <ele>80.2</ele>
        <time>2021-05-20T15:41:07Z</time>
      </trkpt>
      <trkpt lat="42.2788560" lon="-8.6208070">
        <ele>80.2</ele>
        <time>2021-05-20T15:41:08Z</time>
      </trkpt>
      <trkpt lat="42.2788600" lon="-8.6208030">
        <ele>80.3</ele>
        <time>2021-05-20T15:41:09Z</time>
      </trkpt>
      <trkpt lat="42.2788720" lon="-8.6207950">
        <ele>80.3</ele>
        <time>2021-05-20T15:41:10Z</time>
      </trkpt>
      <trkpt lat="42.2788850" lon="-8.6207800">
        <ele>80.3</ele>
        <time>2021-05-20T15:41:11Z</time>
      </trkpt>
      <trkpt lat="42.2788930" lon="-8.6207690">
        <ele>80.3</ele>
        <time>2021-05-20T15:41:12Z</time>
      </trkpt>
      <trkpt lat="42.2789040" lon="-8.6207550">
        <ele>80.4</ele>
        <time>2021-05-20T15:41:13Z</time>
      </trkpt>
      <trkpt lat="42.2789110" lon="-8.6207490">
        <ele>80.4</ele>
        <time>2021-05-20T15:41:14Z</time>
      </trkpt>
      <trkpt lat="42.2789170" lon="-8.6207400">
        <ele>80.4</ele>
        <time>2021-05-20T15:41:15Z</time>
      </trkpt>
      <trkpt lat="42.2789270" lon="-8.6207360">
        <ele>80.4</ele>
        <time>2021-05-20T15:41:16Z</time>
      </trkpt>
      <trkpt lat="42.2789400" lon="-8.6207240">
        <ele>80.5</ele>
        <time>2021-05-20T15:41:17Z</time>
      </trkpt>
      <trkpt lat="42.2789560" lon="-8.6207070">
        <ele>80.5</ele>
        <time>2021-05-20T15:41:18Z</time>
      </trkpt>
      <trkpt lat="42.2789650" lon="-8.6207020">
        <ele>80.5</ele>
        <time>2021-05-20T15:41:19Z</time>
      </trkpt>
      <trkpt lat="42.2789740" lon="-8.6206960">
        <ele>80.5</ele>
        <time>2021-05-20T15:41:20Z</time>
      </trkpt>
      <trkpt lat="42.2789880" lon="-8.6206770">
        <ele>80.6</ele>
        <time>2021-05-20T15:41:21Z</time>
      </trkpt>
      <trkpt lat="42.2789940" lon="-8.6206700">
        <ele>80.6</ele>
        <time>2021-05-20T15:41:22Z</time>
      </trkpt>
      <trkpt lat="42.2790010" lon="-8.6206620">
        <ele>80.6</ele>
        <time>2021-05-20T15:41:23Z</time>
      </trkpt>
      <trkpt lat="42.2790140" lon="-8.6206510">
        <ele>80.6</ele>
        <time>2021-05-20T15:41:24Z</time>
      </trkpt>
      <trkpt lat="42.2790260" lon="-8.6206390">
        <ele>80.6</ele>
        <time>2021-05-20T15:41:25Z</time>
      </trkpt>
      <trkpt lat="42.2790450" lon="-8.6206270">
        <ele>80.7</ele>
        <time>2021-05-20T15:41:26Z</time>
      </trkpt>
      <trkpt lat="42.2790510" lon="-8.6206190">
        <ele>80.7</ele>
        <time>2021-05-20T15:41:27Z</time>
      </trkpt>
      <trkpt lat="42.2790570" lon="-8.6206120">
        <ele>80.7</ele>
        <time>2021-05-20T15:41:28Z</time>
      </trkpt>
      <trkpt lat="42.2790680" lon="-8.6206050">
        <ele>80.7</ele>
        <time>2021-05-20T15:41:29Z</time>
      </trkpt>
      <trkpt lat="42.2790740" lon="-8.6205900">
        <ele>80.7</ele>
        <time>2021-05-20T15:41:30Z</time>
      </trkpt>
      <trkpt lat="42.2790820" lon="-8.6205820">
        <ele>80.8</ele>
        <time>2021-05-20T15:41:31Z</time>
      </trkpt>
      <trkpt lat="42.2790920" lon="-8.6205750">
        <ele>80.8</ele>
        <time>2021-05-20T15:41:32Z</time>
      </trkpt>
      <trkpt lat="42.2790960" lon="-8.6205660">
        <ele>80.8</ele>
        <time>2021-05-20T15:41:33Z</time>
      </trkpt>
      <trkpt lat="42.2791030" lon="-8.6205520">
        <ele>80.8</ele>
        <time>2021-05-20T15:41:34Z</time>
      </trkpt>
      <trkpt lat="42.2791140" lon="-8.6205370">
        <ele>80.8</ele>
        <time>2021-05-20T15:41:35Z</time>
      </trkpt>
      <trkpt lat="42.2791210" lon="-8.6205300">
        <ele>80.8</ele>
        <time>2021-05-20T15:41:36Z</time>
      </trkpt>
      <trkpt lat="42.2791260" lon="-8.6205170">
        <ele>80.9</ele>
        <time>2021-05-20T15:41:37Z</time>
      </trkpt>
      <trkpt lat="42.2791370" lon="-8.6204910">
        <ele>80.9</ele>
        <time>2021-05-20T15:41:38Z</time>
      </trkpt>
      <trkpt lat="42.2791400" lon="-8.6204820">
        <ele>80.9</ele>
        <time>2021-05-20T15:41:39Z</time>
      </trkpt>
      <trkpt lat="42.2791430" lon="-8.6204720">
        <ele>80.9</ele>
        <time>2021-05-20T15:41:40Z</time>
      </trkpt>
      <trkpt lat="42.2791560" lon="-8.6204570">
        <ele>80.9</ele>
        <time>2021-05-20T15:41:41Z</time>
      </trkpt>
      <trkpt lat="42.2791610" lon="-8.6204450">
        <ele>81.0</ele>
        <time>2021-05-20T15:41:42Z</time>
      </trkpt>
      <trkpt lat="42.2791630" lon="-8.6204310">
        <ele>81.0</ele>
        <time>2021-05-20T15:41:43Z</time>
      </trkpt>
      <trkpt lat="42.2791680" lon="-8.6204220">
        <ele>81.0</ele>
        <time>2021-05-20T15:41:44Z</time>
      </trkpt>
      <trkpt lat="42.2791750" lon="-8.6204080">
        <ele>81.0</ele>
        <time>2021-05-20T15:41:45Z</time>
      </trkpt>
      <trkpt lat="42.2791820" lon="-8.6203950">
        <ele>81.0</ele>
        <time>2021-05-20T15:41:46Z</time>
      </trkpt>
      <trkpt lat="42.2791860" lon="-8.6203650">
        <ele>81.2</ele>
        <time>2021-05-20T15:41:47Z</time>
      </trkpt>
      <trkpt lat="42.2791870" lon="-8.6203530">
        <ele>81.2</ele>
        <time>2021-05-20T15:41:48Z</time>
      </trkpt>
      <trkpt lat="42.2791870" lon="-8.6203410">
        <ele>81.3</ele>
        <time>2021-05-20T15:41:49Z</time>
      </trkpt>
      <trkpt lat="42.2791910" lon="-8.6203170">
        <ele>81.3</ele>
        <time>2021-05-20T15:41:50Z</time>
      </trkpt>
      <trkpt lat="42.2791920" lon="-8.6203060">
        <ele>81.3</ele>
        <time>2021-05-20T15:41:51Z</time>
      </trkpt>
      <trkpt lat="42.2791970" lon="-8.6202970">
        <ele>81.3</ele>
        <time>2021-05-20T15:41:52Z</time>
      </trkpt>
      <trkpt lat="42.2792000" lon="-8.6202840">
        <ele>81.3</ele>
        <time>2021-05-20T15:41:53Z</time>
      </trkpt>
      <trkpt lat="42.2792080" lon="-8.6202740">
        <ele>81.4</ele>
        <time>2021-05-20T15:41:54Z</time>
      </trkpt>
      <trkpt lat="42.2792110" lon="-8.6202640">
        <ele>81.4</ele>
        <time>2021-05-20T15:41:55Z</time>
      </trkpt>
      <trkpt lat="42.2792240" lon="-8.6202550">
        <ele>81.4</ele>
        <time>2021-05-20T15:41:56Z</time>
      </trkpt>
      <trkpt lat="42.2792370" lon="-8.6202410">
        <ele>81.4</ele>
        <time>2021-05-20T15:41:57Z</time>
      </trkpt>
      <trkpt lat="42.2792460" lon="-8.6202340">
        <ele>81.5</ele>
        <time>2021-05-20T15:41:58Z</time>
      </trkpt>
      <trkpt lat="42.2792560" lon="-8.6202330">
        <ele>81.5</ele>
        <time>2021-05-20T15:41:59Z</time>
      </trkpt>
      <trkpt lat="42.2792620" lon="-8.6202260">
        <ele>81.5</ele>
        <time>2021-05-20T15:42:00Z</time>
      </trkpt>
      <trkpt lat="42.2792710" lon="-8.6202240">
        <ele>81.5</ele>
        <time>2021-05-20T15:42:01Z</time>
      </trkpt>
      <trkpt lat="42.2792810" lon="-8.6202200">
        <ele>81.6</ele>
        <time>2021-05-20T15:42:02Z</time>
      </trkpt>
      <trkpt lat="42.2792900" lon="-8.6202040">
        <ele>81.6</ele>
        <time>2021-05-20T15:42:03Z</time>
      </trkpt>
      <trkpt lat="42.2792950" lon="-8.6202020">
        <ele>81.6</ele>
        <time>2021-05-20T15:42:04Z</time>
      </trkpt>
      <trkpt lat="42.2793040" lon="-8.6201800">
        <ele>81.6</ele>
        <time>2021-05-20T15:42:05Z</time>
      </trkpt>
      <trkpt lat="42.2793100" lon="-8.6201680">
        <ele>81.7</ele>
        <time>2021-05-20T15:42:06Z</time>
      </trkpt>
      <trkpt lat="42.2793290" lon="-8.6201600">
        <ele>81.7</ele>
        <time>2021-05-20T15:42:07Z</time>
      </trkpt>
      <trkpt lat="42.2793360" lon="-8.6201460">
        <ele>81.7</ele>
        <time>2021-05-20T15:42:08Z</time>
      </trkpt>
      <trkpt lat="42.2793430" lon="-8.6201430">
        <ele>81.7</ele>
        <time>2021-05-20T15:42:09Z</time>
      </trkpt>
      <trkpt lat="42.2793520" lon="-8.6201290">
        <ele>81.7</ele>
        <time>2021-05-20T15:42:10Z</time>
      </trkpt>
      <trkpt lat="42.2793630" lon="-8.6201230">
        <ele>81.7</ele>
        <time>2021-05-20T15:42:11Z</time>
      </trkpt>
      <trkpt lat="42.2793750" lon="-8.6201150">
        <ele>81.8</ele>
        <time>2021-05-20T15:42:12Z</time>
      </trkpt>
      <trkpt lat="42.2793830" lon="-8.6201040">
        <ele>81.8</ele>
        <time>2021-05-20T15:42:13Z</time>
      </trkpt>
      <trkpt lat="42.2793920" lon="-8.6200960">
        <ele>81.8</ele>
        <time>2021-05-20T15:42:14Z</time>
      </trkpt>
      <trkpt lat="42.2794000" lon="-8.6200910">
        <ele>81.8</ele>
        <time>2021-05-20T15:42:15Z</time>
      </trkpt>
      <trkpt lat="42.2794150" lon="-8.6200870">
        <ele>81.8</ele>
        <time>2021-05-20T15:42:16Z</time>
      </trkpt>
      <trkpt lat="42.2794140" lon="-8.6200700">
        <ele>81.8</ele>
        <time>2021-05-20T15:42:17Z</time>
      </trkpt>
      <trkpt lat="42.2794270" lon="-8.6200520">
        <ele>81.7</ele>
        <time>2021-05-20T15:42:18Z</time>
      </trkpt>
      <trkpt lat="42.2794380" lon="-8.6200400">
        <ele>81.7</ele>
        <time>2021-05-20T15:42:19Z</time>
      </trkpt>
      <trkpt lat="42.2794480" lon="-8.6200250">
        <ele>81.7</ele>
        <time>2021-05-20T15:42:20Z</time>
      </trkpt>
      <trkpt lat="42.2794670" lon="-8.6200160">
        <ele>81.7</ele>
        <time>2021-05-20T15:42:21Z</time>
      </trkpt>
      <trkpt lat="42.2794740" lon="-8.6200160">
        <ele>81.7</ele>
        <time>2021-05-20T15:42:22Z</time>
      </trkpt>
      <trkpt lat="42.2794850" lon="-8.6200090">
        <ele>81.7</ele>
        <time>2021-05-20T15:42:23Z</time>
      </trkpt>
      <trkpt lat="42.2794930" lon="-8.6199950">
        <ele>81.7</ele>
        <time>2021-05-20T15:42:24Z</time>
      </trkpt>
      <trkpt lat="42.2795060" lon="-8.6199900">
        <ele>81.6</ele>
        <time>2021-05-20T15:42:25Z</time>
      </trkpt>
      <trkpt lat="42.2795170" lon="-8.6199790">
        <ele>81.6</ele>
        <time>2021-05-20T15:42:26Z</time>
      </trkpt>
      <trkpt lat="42.2795230" lon="-8.6199710">
        <ele>81.6</ele>
        <time>2021-05-20T15:42:27Z</time>
      </trkpt>
      <trkpt lat="42.2795300" lon="-8.6199590">
        <ele>81.6</ele>
        <time>2021-05-20T15:42:28Z</time>
      </trkpt>
      <trkpt lat="42.2795300" lon="-8.6199530">
        <ele>81.5</ele>
        <time>2021-05-20T15:42:29Z</time>
      </trkpt>
      <trkpt lat="42.2795410" lon="-8.6199440">
        <ele>81.5</ele>
        <time>2021-05-20T15:42:30Z</time>
      </trkpt>
      <trkpt lat="42.2795520" lon="-8.6199280">
        <ele>81.5</ele>
        <time>2021-05-20T15:42:31Z</time>
      </trkpt>
      <trkpt lat="42.2795620" lon="-8.6199180">
        <ele>81.4</ele>
        <time>2021-05-20T15:42:32Z</time>
      </trkpt>
      <trkpt lat="42.2795660" lon="-8.6199060">
        <ele>81.4</ele>
        <time>2021-05-20T15:42:33Z</time>
      </trkpt>
      <trkpt lat="42.2795730" lon="-8.6198940">
        <ele>81.4</ele>
        <time>2021-05-20T15:42:34Z</time>
      </trkpt>
      <trkpt lat="42.2795870" lon="-8.6198860">
        <ele>81.4</ele>
        <time>2021-05-20T15:42:35Z</time>
      </trkpt>
      <trkpt lat="42.2795910" lon="-8.6198760">
        <ele>81.3</ele>
        <time>2021-05-20T15:42:36Z</time>
      </trkpt>
      <trkpt lat="42.2795980" lon="-8.6198760">
        <ele>81.3</ele>
        <time>2021-05-20T15:42:37Z</time>
      </trkpt>
      <trkpt lat="42.2796120" lon="-8.6198710">
        <ele>81.3</ele>
        <time>2021-05-20T15:42:38Z</time>
      </trkpt>
      <trkpt lat="42.2796210" lon="-8.6198710">
        <ele>81.2</ele>
        <time>2021-05-20T15:42:39Z</time>
      </trkpt>
      <trkpt lat="42.2796450" lon="-8.6198580">
        <ele>81.1</ele>
        <time>2021-05-20T15:42:40Z</time>
      </trkpt>
      <trkpt lat="42.2796570" lon="-8.6198560">
        <ele>81.1</ele>
        <time>2021-05-20T15:42:41Z</time>
      </trkpt>
      <trkpt lat="42.2796650" lon="-8.6198430">
        <ele>81.1</ele>
        <time>2021-05-20T15:42:42Z</time>
      </trkpt>
      <trkpt lat="42.2796730" lon="-8.6198370">
        <ele>81.0</ele>
        <time>2021-05-20T15:42:43Z</time>
      </trkpt>
      <trkpt lat="42.2796820" lon="-8.6198220">
        <ele>81.0</ele>
        <time>2021-05-20T15:42:44Z</time>
      </trkpt>
      <trkpt lat="42.2796920" lon="-8.6197960">
        <ele>80.9</ele>
        <time>2021-05-20T15:42:45Z</time>
      </trkpt>
      <trkpt lat="42.2797000" lon="-8.6197880">
        <ele>80.8</ele>
        <time>2021-05-20T15:42:46Z</time>
      </trkpt>
      <trkpt lat="42.2797070" lon="-8.6197800">
        <ele>80.8</ele>
        <time>2021-05-20T15:42:47Z</time>
      </trkpt>
      <trkpt lat="42.2797180" lon="-8.6197570">
        <ele>80.7</ele>
        <time>2021-05-20T15:42:48Z</time>
      </trkpt>
      <trkpt lat="42.2797230" lon="-8.6197490">
        <ele>80.6</ele>
        <time>2021-05-20T15:42:49Z</time>
      </trkpt>
      <trkpt lat="42.2797290" lon="-8.6197400">
        <ele>80.6</ele>
        <time>2021-05-20T15:42:50Z</time>
      </trkpt>
      <trkpt lat="42.2797340" lon="-8.6197340">
        <ele>80.5</ele>
        <time>2021-05-20T15:42:51Z</time>
      </trkpt>
      <trkpt lat="42.2797490" lon="-8.6197250">
        <ele>80.4</ele>
        <time>2021-05-20T15:42:52Z</time>
      </trkpt>
      <trkpt lat="42.2797610" lon="-8.6197230">
        <ele>80.4</ele>
        <time>2021-05-20T15:42:53Z</time>
      </trkpt>
      <trkpt lat="42.2797690" lon="-8.6197180">
        <ele>80.3</ele>
        <time>2021-05-20T15:42:54Z</time>
      </trkpt>
      <trkpt lat="42.2797830" lon="-8.6197040">
        <ele>80.2</ele>
        <time>2021-05-20T15:42:55Z</time>
      </trkpt>
      <trkpt lat="42.2797900" lon="-8.6196960">
        <ele>80.1</ele>
        <time>2021-05-20T15:42:56Z</time>
      </trkpt>
      <trkpt lat="42.2798060" lon="-8.6196920">
        <ele>80.0</ele>
        <time>2021-05-20T15:42:57Z</time>
      </trkpt>
      <trkpt lat="42.2798180" lon="-8.6196800">
        <ele>79.9</ele>
        <time>2021-05-20T15:42:58Z</time>
      </trkpt>
      <trkpt lat="42.2798360" lon="-8.6196650">
        <ele>79.8</ele>
        <time>2021-05-20T15:42:59Z</time>
      </trkpt>
      <trkpt lat="42.2798380" lon="-8.6196470">
        <ele>79.7</ele>
        <time>2021-05-20T15:43:00Z</time>
      </trkpt>
      <trkpt lat="42.2798510" lon="-8.6196320">
        <ele>79.5</ele>
        <time>2021-05-20T15:43:01Z</time>
      </trkpt>
      <trkpt lat="42.2798580" lon="-8.6196160">
        <ele>79.4</ele>
        <time>2021-05-20T15:43:02Z</time>
      </trkpt>
      <trkpt lat="42.2798620" lon="-8.6195920">
        <ele>79.3</ele>
        <time>2021-05-20T15:43:03Z</time>
      </trkpt>
      <trkpt lat="42.2798650" lon="-8.6195830">
        <ele>79.2</ele>
        <time>2021-05-20T15:43:04Z</time>
      </trkpt>
      <trkpt lat="42.2798670" lon="-8.6195730">
        <ele>79.2</ele>
        <time>2021-05-20T15:43:05Z</time>
      </trkpt>
      <trkpt lat="42.2798690" lon="-8.6195640">
        <ele>79.1</ele>
        <time>2021-05-20T15:43:06Z</time>
      </trkpt>
      <trkpt lat="42.2798780" lon="-8.6195430">
        <ele>79.0</ele>
        <time>2021-05-20T15:43:07Z</time>
      </trkpt>
      <trkpt lat="42.2798790" lon="-8.6195320">
        <ele>78.9</ele>
        <time>2021-05-20T15:43:08Z</time>
      </trkpt>
      <trkpt lat="42.2798810" lon="-8.6195210">
        <ele>78.8</ele>
        <time>2021-05-20T15:43:09Z</time>
      </trkpt>
      <trkpt lat="42.2798820" lon="-8.6195100">
        <ele>78.7</ele>
        <time>2021-05-20T15:43:10Z</time>
      </trkpt>
      <trkpt lat="42.2798890" lon="-8.6194990">
        <ele>78.6</ele>
        <time>2021-05-20T15:43:11Z</time>
      </trkpt>
      <trkpt lat="42.2798950" lon="-8.6194790">
        <ele>78.5</ele>
        <time>2021-05-20T15:43:12Z</time>
      </trkpt>
      <trkpt lat="42.2799020" lon="-8.6194700">
        <ele>78.4</ele>
        <time>2021-05-20T15:43:13Z</time>
      </trkpt>
      <trkpt lat="42.2799050" lon="-8.6194570">
        <ele>78.3</ele>
        <time>2021-05-20T15:43:14Z</time>
      </trkpt>
      <trkpt lat="42.2799080" lon="-8.6194420">
        <ele>78.2</ele>
        <time>2021-05-20T15:43:15Z</time>
      </trkpt>
      <trkpt lat="42.2799060" lon="-8.6194260">
        <ele>78.1</ele>
        <time>2021-05-20T15:43:16Z</time>
      </trkpt>
      <trkpt lat="42.2799120" lon="-8.6194140">
        <ele>78.0</ele>
        <time>2021-05-20T15:43:17Z</time>
      </trkpt>
      <trkpt lat="42.2799160" lon="-8.6193900">
        <ele>77.9</ele>
        <time>2021-05-20T15:43:18Z</time>
      </trkpt>
      <trkpt lat="42.2799210" lon="-8.6193630">
        <ele>77.7</ele>
        <time>2021-05-20T15:43:19Z</time>
      </trkpt>
      <trkpt lat="42.2799160" lon="-8.6193440">
        <ele>77.6</ele>
        <time>2021-05-20T15:43:20Z</time>
      </trkpt>
      <trkpt lat="42.2799190" lon="-8.6193180">
        <ele>77.4</ele>
        <time>2021-05-20T15:43:21Z</time>
      </trkpt>
      <trkpt lat="42.2799230" lon="-8.6193050">
        <ele>77.3</ele>
        <time>2021-05-20T15:43:22Z</time>
      </trkpt>
      <trkpt lat="42.2799270" lon="-8.6192930">
        <ele>77.2</ele>
        <time>2021-05-20T15:43:23Z</time>
      </trkpt>
      <trkpt lat="42.2799330" lon="-8.6192760">
        <ele>77.0</ele>
        <time>2021-05-20T15:43:24Z</time>
      </trkpt>
      <trkpt lat="42.2799370" lon="-8.6192580">
        <ele>76.9</ele>
        <time>2021-05-20T15:43:25Z</time>
      </trkpt>
      <trkpt lat="42.2799430" lon="-8.6192460">
        <ele>76.8</ele>
        <time>2021-05-20T15:43:26Z</time>
      </trkpt>
      <trkpt lat="42.2799480" lon="-8.6192290">
        <ele>76.7</ele>
        <time>2021-05-20T15:43:27Z</time>
      </trkpt>
      <trkpt lat="42.2799510" lon="-8.6192210">
        <ele>76.6</ele>
        <time>2021-05-20T15:43:28Z</time>
      </trkpt>
      <trkpt lat="42.2799520" lon="-8.6191990">
        <ele>76.4</ele>
        <time>2021-05-20T15:43:29Z</time>
      </trkpt>
      <trkpt lat="42.2799540" lon="-8.6191850">
        <ele>76.3</ele>
        <time>2021-05-20T15:43:30Z</time>
      </trkpt>
      <trkpt lat="42.2799590" lon="-8.6191770">
        <ele>76.2</ele>
        <time>2021-05-20T15:43:31Z</time>
      </trkpt>
      <trkpt lat="42.2799610" lon="-8.6191600">
        <ele>76.1</ele>
        <time>2021-05-20T15:43:32Z</time>
      </trkpt>
      <trkpt lat="42.2799580" lon="-8.6191460">
        <ele>76.0</ele>
        <time>2021-05-20T15:43:33Z</time>
      </trkpt>
      <trkpt lat="42.2799650" lon="-8.6191290">
        <ele>75.8</ele>
        <time>2021-05-20T15:43:34Z</time>
      </trkpt>
      <trkpt lat="42.2799760" lon="-8.6190940">
        <ele>75.6</ele>
        <time>2021-05-20T15:43:35Z</time>
      </trkpt>
      <trkpt lat="42.2799770" lon="-8.6190850">
        <ele>75.5</ele>
        <time>2021-05-20T15:43:36Z</time>
      </trkpt>
      <trkpt lat="42.2799820" lon="-8.6190670">
        <ele>75.3</ele>
        <time>2021-05-20T15:43:37Z</time>
      </trkpt>
      <trkpt lat="42.2799820" lon="-8.6190490">
        <ele>75.2</ele>
        <time>2021-05-20T15:43:38Z</time>
      </trkpt>
      <trkpt lat="42.2799900" lon="-8.6190140">
        <ele>74.9</ele>
        <time>2021-05-20T15:43:39Z</time>
      </trkpt>
      <trkpt lat="42.2799930" lon="-8.6190050">
        <ele>74.9</ele>
        <time>2021-05-20T15:43:40Z</time>
      </trkpt>
      <trkpt lat="42.2799950" lon="-8.6189950">
        <ele>74.8</ele>
        <time>2021-05-20T15:43:41Z</time>
      </trkpt>
      <trkpt lat="42.2800010" lon="-8.6189730">
        <ele>74.6</ele>
        <time>2021-05-20T15:43:42Z</time>
      </trkpt>
      <trkpt lat="42.2799990" lon="-8.6189590">
        <ele>74.5</ele>
        <time>2021-05-20T15:43:43Z</time>
      </trkpt>
      <trkpt lat="42.2800040" lon="-8.6189440">
        <ele>74.4</ele>
        <time>2021-05-20T15:43:44Z</time>
      </trkpt>
      <trkpt lat="42.2800130" lon="-8.6189200">
        <ele>74.2</ele>
        <time>2021-05-20T15:43:45Z</time>
      </trkpt>
      <trkpt lat="42.2800180" lon="-8.6188960">
        <ele>74.0</ele>
        <time>2021-05-20T15:43:46Z</time>
      </trkpt>
      <trkpt lat="42.2800220" lon="-8.6188840">
        <ele>73.9</ele>
        <time>2021-05-20T15:43:47Z</time>
      </trkpt>
      <trkpt lat="42.2800250" lon="-8.6188720">
        <ele>73.8</ele>
        <time>2021-05-20T15:43:48Z</time>
      </trkpt>
      <trkpt lat="42.2800310" lon="-8.6188550">
        <ele>73.7</ele>
        <time>2021-05-20T15:43:49Z</time>
      </trkpt>
      <trkpt lat="42.2800290" lon="-8.6188470">
        <ele>73.6</ele>
        <time>2021-05-20T15:43:50Z</time>
      </trkpt>
      <trkpt lat="42.2800320" lon="-8.6188300">
        <ele>73.5</ele>
        <time>2021-05-20T15:43:51Z</time>
      </trkpt>
      <trkpt lat="42.2800310" lon="-8.6188230">
        <ele>73.4</ele>
        <time>2021-05-20T15:43:52Z</time>
      </trkpt>
      <trkpt lat="42.2800380" lon="-8.6188030">
        <ele>73.3</ele>
        <time>2021-05-20T15:43:53Z</time>
      </trkpt>
      <trkpt lat="42.2800380" lon="-8.6187930">
        <ele>73.2</ele>
        <time>2021-05-20T15:43:54Z</time>
      </trkpt>
      <trkpt lat="42.2800430" lon="-8.6187750">
        <ele>73.0</ele>
        <time>2021-05-20T15:43:55Z</time>
      </trkpt>
      <trkpt lat="42.2800470" lon="-8.6187610">
        <ele>72.9</ele>
        <time>2021-05-20T15:43:56Z</time>
      </trkpt>
      <trkpt lat="42.2800490" lon="-8.6187470">
        <ele>72.8</ele>
        <time>2021-05-20T15:43:57Z</time>
      </trkpt>
      <trkpt lat="42.2800530" lon="-8.6187220">
        <ele>72.7</ele>
        <time>2021-05-20T15:43:58Z</time>
      </trkpt>
      <trkpt lat="42.2800570" lon="-8.6187110">
        <ele>72.6</ele>
        <time>2021-05-20T15:43:59Z</time>
      </trkpt>
      <trkpt lat="42.2800610" lon="-8.6186990">
        <ele>72.5</ele>
        <time>2021-05-20T15:44:00Z</time>
      </trkpt>
      <trkpt lat="42.2800640" lon="-8.6186840">
        <ele>72.4</ele>
        <time>2021-05-20T15:44:01Z</time>
      </trkpt>
      <trkpt lat="42.2800680" lon="-8.6186720">
        <ele>72.3</ele>
        <time>2021-05-20T15:44:02Z</time>
      </trkpt>
      <trkpt lat="42.2800760" lon="-8.6186560">
        <ele>72.2</ele>
        <time>2021-05-20T15:44:03Z</time>
      </trkpt>
      <trkpt lat="42.2800780" lon="-8.6186380">
        <ele>72.0</ele>
        <time>2021-05-20T15:44:04Z</time>
      </trkpt>
      <trkpt lat="42.2800790" lon="-8.6186250">
        <ele>72.0</ele>
        <time>2021-05-20T15:44:06Z</time>
      </trkpt>
      <trkpt lat="42.2800780" lon="-8.6186120">
        <ele>71.9</ele>
        <time>2021-05-20T15:44:07Z</time>
      </trkpt>
      <trkpt lat="42.2800860" lon="-8.6185900">
        <ele>71.7</ele>
        <time>2021-05-20T15:44:08Z</time>
      </trkpt>
      <trkpt lat="42.2800900" lon="-8.6185760">
        <ele>71.6</ele>
        <time>2021-05-20T15:44:09Z</time>
      </trkpt>
      <trkpt lat="42.2800950" lon="-8.6185630">
        <ele>71.5</ele>
        <time>2021-05-20T15:44:10Z</time>
      </trkpt>
      <trkpt lat="42.2800990" lon="-8.6185610">
        <ele>71.5</ele>
        <time>2021-05-20T15:44:11Z</time>
      </trkpt>
      <trkpt lat="42.2801030" lon="-8.6185380">
        <ele>71.3</ele>
        <time>2021-05-20T15:44:12Z</time>
      </trkpt>
      <trkpt lat="42.2801080" lon="-8.6185280">
        <ele>71.2</ele>
        <time>2021-05-20T15:44:13Z</time>
      </trkpt>
      <trkpt lat="42.2801130" lon="-8.6185140">
        <ele>71.2</ele>
        <time>2021-05-20T15:44:14Z</time>
      </trkpt>
      <trkpt lat="42.2801170" lon="-8.6184940">
        <ele>71.0</ele>
        <time>2021-05-20T15:44:15Z</time>
      </trkpt>
      <trkpt lat="42.2801200" lon="-8.6184830">
        <ele>71.0</ele>
        <time>2021-05-20T15:44:16Z</time>
      </trkpt>
      <trkpt lat="42.2801270" lon="-8.6184730">
        <ele>70.9</ele>
        <time>2021-05-20T15:44:17Z</time>
      </trkpt>
      <trkpt lat="42.2801330" lon="-8.6184530">
        <ele>70.8</ele>
        <time>2021-05-20T15:44:18Z</time>
      </trkpt>
      <trkpt lat="42.2801380" lon="-8.6184410">
        <ele>70.7</ele>
        <time>2021-05-20T15:44:19Z</time>
      </trkpt>
      <trkpt lat="42.2801400" lon="-8.6184320">
        <ele>70.6</ele>
        <time>2021-05-20T15:44:20Z</time>
      </trkpt>
      <trkpt lat="42.2801420" lon="-8.6184100">
        <ele>70.5</ele>
        <time>2021-05-20T15:44:21Z</time>
      </trkpt>
      <trkpt lat="42.2801460" lon="-8.6183940">
        <ele>70.4</ele>
        <time>2021-05-20T15:44:22Z</time>
      </trkpt>
      <trkpt lat="42.2801490" lon="-8.6183690">
        <ele>70.3</ele>
        <time>2021-05-20T15:44:23Z</time>
      </trkpt>
      <trkpt lat="42.2801510" lon="-8.6183550">
        <ele>70.2</ele>
        <time>2021-05-20T15:44:24Z</time>
      </trkpt>
      <trkpt lat="42.2801520" lon="-8.6183420">
        <ele>70.2</ele>
        <time>2021-05-20T15:44:25Z</time>
      </trkpt>
      <trkpt lat="42.2801580" lon="-8.6183270">
        <ele>70.1</ele>
        <time>2021-05-20T15:44:26Z</time>
      </trkpt>
      <trkpt lat="42.2801590" lon="-8.6183150">
        <ele>70.0</ele>
        <time>2021-05-20T15:44:27Z</time>
      </trkpt>
      <trkpt lat="42.2801620" lon="-8.6183040">
        <ele>70.0</ele>
        <time>2021-05-20T15:44:28Z</time>
      </trkpt>
      <trkpt lat="42.2801630" lon="-8.6182860">
        <ele>69.9</ele>
        <time>2021-05-20T15:44:29Z</time>
      </trkpt>
      <trkpt lat="42.2801630" lon="-8.6182670">
        <ele>69.8</ele>
        <time>2021-05-20T15:44:30Z</time>
      </trkpt>
      <trkpt lat="42.2801700" lon="-8.6182470">
        <ele>69.7</ele>
        <time>2021-05-20T15:44:31Z</time>
      </trkpt>
      <trkpt lat="42.2801770" lon="-8.6182340">
        <ele>69.6</ele>
        <time>2021-05-20T15:44:32Z</time>
      </trkpt>
      <trkpt lat="42.2801790" lon="-8.6182140">
        <ele>69.5</ele>
        <time>2021-05-20T15:44:33Z</time>
      </trkpt>
      <trkpt lat="42.2801820" lon="-8.6181990">
        <ele>69.5</ele>
        <time>2021-05-20T15:44:34Z</time>
      </trkpt>
      <trkpt lat="42.2801880" lon="-8.6181890">
        <ele>69.4</ele>
        <time>2021-05-20T15:44:35Z</time>
      </trkpt>
      <trkpt lat="42.2801950" lon="-8.6181620">
        <ele>69.3</ele>
        <time>2021-05-20T15:44:36Z</time>
      </trkpt>
      <trkpt lat="42.2801980" lon="-8.6181520">
        <ele>69.2</ele>
        <time>2021-05-20T15:44:37Z</time>
      </trkpt>
      <trkpt lat="42.2802010" lon="-8.6181430">
        <ele>69.2</ele>
        <time>2021-05-20T15:44:38Z</time>
      </trkpt>
      <trkpt lat="42.2802030" lon="-8.6181330">
        <ele>69.1</ele>
        <time>2021-05-20T15:44:39Z</time>
      </trkpt>
      <trkpt lat="42.2802030" lon="-8.6181190">
        <ele>69.1</ele>
        <time>2021-05-20T15:44:40Z</time>
      </trkpt>
      <trkpt lat="42.2802080" lon="-8.6181080">
        <ele>69.0</ele>
        <time>2021-05-20T15:44:41Z</time>
      </trkpt>
      <trkpt lat="42.2802120" lon="-8.6180840">
        <ele>68.9</ele>
        <time>2021-05-20T15:44:42Z</time>
      </trkpt>
      <trkpt lat="42.2802140" lon="-8.6180720">
        <ele>68.9</ele>
        <time>2021-05-20T15:44:43Z</time>
      </trkpt>
      <trkpt lat="42.2802160" lon="-8.6180600">
        <ele>68.9</ele>
        <time>2021-05-20T15:44:44Z</time>
      </trkpt>
      <trkpt lat="42.2802200" lon="-8.6180440">
        <ele>68.8</ele>
        <time>2021-05-20T15:44:45Z</time>
      </trkpt>
      <trkpt lat="42.2802210" lon="-8.6180290">
        <ele>68.7</ele>
        <time>2021-05-20T15:44:46Z</time>
      </trkpt>
      <trkpt lat="42.2802210" lon="-8.6180160">
        <ele>68.7</ele>
        <time>2021-05-20T15:44:47Z</time>
      </trkpt>
      <trkpt lat="42.2802270" lon="-8.6179930">
        <ele>68.6</ele>
        <time>2021-05-20T15:44:48Z</time>
      </trkpt>
      <trkpt lat="42.2802310" lon="-8.6179800">
        <ele>68.6</ele>
        <time>2021-05-20T15:44:49Z</time>
      </trkpt>
      <trkpt lat="42.2802350" lon="-8.6179680">
        <ele>68.5</ele>
        <time>2021-05-20T15:44:50Z</time>
      </trkpt>
      <trkpt lat="42.2802410" lon="-8.6179470">
        <ele>68.4</ele>
        <time>2021-05-20T15:44:51Z</time>
      </trkpt>
      <trkpt lat="42.2802470" lon="-8.6179330">
        <ele>68.4</ele>
        <time>2021-05-20T15:44:52Z</time>
      </trkpt>
      <trkpt lat="42.2802510" lon="-8.6179070">
        <ele>68.3</ele>
        <time>2021-05-20T15:44:53Z</time>
      </trkpt>
      <trkpt lat="42.2802520" lon="-8.6178950">
        <ele>68.3</ele>
        <time>2021-05-20T15:44:54Z</time>
      </trkpt>
      <trkpt lat="42.2802530" lon="-8.6178840">
        <ele>68.3</ele>
        <time>2021-05-20T15:44:55Z</time>
      </trkpt>
      <trkpt lat="42.2802540" lon="-8.6178700">
        <ele>68.2</ele>
        <time>2021-05-20T15:44:56Z</time>
      </trkpt>
      <trkpt lat="42.2802560" lon="-8.6178540">
        <ele>68.2</ele>
        <time>2021-05-20T15:44:57Z</time>
      </trkpt>
      <trkpt lat="42.2802590" lon="-8.6178410">
        <ele>68.2</ele>
        <time>2021-05-20T15:44:58Z</time>
      </trkpt>
      <trkpt lat="42.2802620" lon="-8.6178190">
        <ele>68.1</ele>
        <time>2021-05-20T15:44:59Z</time>
      </trkpt>
      <trkpt lat="42.2802660" lon="-8.6178010">
        <ele>68.1</ele>
        <time>2021-05-20T15:45:00Z</time>
      </trkpt>
      <trkpt lat="42.2802680" lon="-8.6177740">
        <ele>68.0</ele>
        <time>2021-05-20T15:45:01Z</time>
      </trkpt>
      <trkpt lat="42.2802720" lon="-8.6177620">
        <ele>68.0</ele>
        <time>2021-05-20T15:45:02Z</time>
      </trkpt>
      <trkpt lat="42.2802750" lon="-8.6177510">
        <ele>68.0</ele>
        <time>2021-05-20T15:45:03Z</time>
      </trkpt>
      <trkpt lat="42.2802800" lon="-8.6177350">
        <ele>67.9</ele>
        <time>2021-05-20T15:45:04Z</time>
      </trkpt>
      <trkpt lat="42.2802810" lon="-8.6177300">
        <ele>67.9</ele>
        <time>2021-05-20T15:45:05Z</time>
      </trkpt>
      <trkpt lat="42.2802830" lon="-8.6177210">
        <ele>67.9</ele>
        <time>2021-05-20T15:45:06Z</time>
      </trkpt>
      <trkpt lat="42.2802840" lon="-8.6177040">
        <ele>67.8</ele>
        <time>2021-05-20T15:45:07Z</time>
      </trkpt>
      <trkpt lat="42.2802800" lon="-8.6176940">
        <ele>67.8</ele>
        <time>2021-05-20T15:45:08Z</time>
      </trkpt>
      <trkpt lat="42.2802810" lon="-8.6176850">
        <ele>67.8</ele>
        <time>2021-05-20T15:45:09Z</time>
      </trkpt>
      <trkpt lat="42.2802820" lon="-8.6176730">
        <ele>67.8</ele>
        <time>2021-05-20T15:45:10Z</time>
      </trkpt>
      <trkpt lat="42.2802810" lon="-8.6176630">
        <ele>67.8</ele>
        <time>2021-05-20T15:45:11Z</time>
      </trkpt>
      <trkpt lat="42.2802820" lon="-8.6176510">
        <ele>67.7</ele>
        <time>2021-05-20T15:45:12Z</time>
      </trkpt>
      <trkpt lat="42.2802830" lon="-8.6176450">
        <ele>67.7</ele>
        <time>2021-05-20T15:45:13Z</time>
      </trkpt>
      <trkpt lat="42.2802840" lon="-8.6176370">
        <ele>67.7</ele>
        <time>2021-05-20T15:45:14Z</time>
      </trkpt>
      <trkpt lat="42.2802840" lon="-8.6176240">
        <ele>67.7</ele>
        <time>2021-05-20T15:45:15Z</time>
      </trkpt>
      <trkpt lat="42.2802880" lon="-8.6176250">
        <ele>67.7</ele>
        <time>2021-05-20T15:45:16Z</time>
      </trkpt>
      <trkpt lat="42.2802900" lon="-8.6176130">
        <ele>67.6</ele>
        <time>2021-05-20T15:45:17Z</time>
      </trkpt>
      <trkpt lat="42.2802940" lon="-8.6175980">
        <ele>67.6</ele>
        <time>2021-05-20T15:45:18Z</time>
      </trkpt>
      <trkpt lat="42.2802940" lon="-8.6175850">
        <ele>67.6</ele>
        <time>2021-05-20T15:45:19Z</time>
      </trkpt>
      <trkpt lat="42.2803010" lon="-8.6175760">
        <ele>67.6</ele>
        <time>2021-05-20T15:45:20Z</time>
      </trkpt>
      <trkpt lat="42.2803060" lon="-8.6175650">
        <ele>67.5</ele>
        <time>2021-05-20T15:45:21Z</time>
      </trkpt>
      <trkpt lat="42.2803050" lon="-8.6175580">
        <ele>67.5</ele>
        <time>2021-05-20T15:45:22Z</time>
      </trkpt>
      <trkpt lat="42.2803060" lon="-8.6175430">
        <ele>67.5</ele>
        <time>2021-05-20T15:45:23Z</time>
      </trkpt>
      <trkpt lat="42.2803080" lon="-8.6175270">
        <ele>67.5</ele>
        <time>2021-05-20T15:45:24Z</time>
      </trkpt>
      <trkpt lat="42.2803100" lon="-8.6175140">
        <ele>67.4</ele>
        <time>2021-05-20T15:45:25Z</time>
      </trkpt>
      <trkpt lat="42.2803120" lon="-8.6175030">
        <ele>67.4</ele>
        <time>2021-05-20T15:45:26Z</time>
      </trkpt>
      <trkpt lat="42.2803070" lon="-8.6174990">
        <ele>67.4</ele>
        <time>2021-05-20T15:45:27Z</time>
      </trkpt>
      <trkpt lat="42.2803080" lon="-8.6174770">
        <ele>67.4</ele>
        <time>2021-05-20T15:45:28Z</time>
      </trkpt>
      <trkpt lat="42.2803110" lon="-8.6174650">
        <ele>67.3</ele>
        <time>2021-05-20T15:45:29Z</time>
      </trkpt>
      <trkpt lat="42.2803140" lon="-8.6174570">
        <ele>67.3</ele>
        <time>2021-05-20T15:45:30Z</time>
      </trkpt>
      <trkpt lat="42.2803190" lon="-8.6174410">
        <ele>67.3</ele>
        <time>2021-05-20T15:45:31Z</time>
      </trkpt>
      <trkpt lat="42.2803210" lon="-8.6174330">
        <ele>67.3</ele>
        <time>2021-05-20T15:45:32Z</time>
      </trkpt>
      <trkpt lat="42.2803210" lon="-8.6174220">
        <ele>67.2</ele>
        <time>2021-05-20T15:45:33Z</time>
      </trkpt>
      <trkpt lat="42.2803210" lon="-8.6174070">
        <ele>67.2</ele>
        <time>2021-05-20T15:45:34Z</time>
      </trkpt>
      <trkpt lat="42.2803220" lon="-8.6173900">
        <ele>67.2</ele>
        <time>2021-05-20T15:45:35Z</time>
      </trkpt>
      <trkpt lat="42.2803260" lon="-8.6173770">
        <ele>67.1</ele>
        <time>2021-05-20T15:45:36Z</time>
      </trkpt>
      <trkpt lat="42.2803330" lon="-8.6173610">
        <ele>67.1</ele>
        <time>2021-05-20T15:45:37Z</time>
      </trkpt>
      <trkpt lat="42.2803390" lon="-8.6173420">
        <ele>67.1</ele>
        <time>2021-05-20T15:45:38Z</time>
      </trkpt>
      <trkpt lat="42.2803480" lon="-8.6173110">
        <ele>67.0</ele>
        <time>2021-05-20T15:45:39Z</time>
      </trkpt>
      <trkpt lat="42.2803550" lon="-8.6172950">
        <ele>67.0</ele>
        <time>2021-05-20T15:45:40Z</time>
      </trkpt>
      <trkpt lat="42.2803610" lon="-8.6172790">
        <ele>66.9</ele>
        <time>2021-05-20T15:45:41Z</time>
      </trkpt>
      <trkpt lat="42.2803610" lon="-8.6172640">
        <ele>66.9</ele>
        <time>2021-05-20T15:45:42Z</time>
      </trkpt>
      <trkpt lat="42.2803630" lon="-8.6172570">
        <ele>66.9</ele>
        <time>2021-05-20T15:45:43Z</time>
      </trkpt>
      <trkpt lat="42.2803660" lon="-8.6172470">
        <ele>66.9</ele>
        <time>2021-05-20T15:45:44Z</time>
      </trkpt>
      <trkpt lat="42.2803670" lon="-8.6172340">
        <ele>66.8</ele>
        <time>2021-05-20T15:45:45Z</time>
      </trkpt>
      <trkpt lat="42.2803690" lon="-8.6172120">
        <ele>66.8</ele>
        <time>2021-05-20T15:45:46Z</time>
      </trkpt>
      <trkpt lat="42.2803730" lon="-8.6171910">
        <ele>66.8</ele>
        <time>2021-05-20T15:45:47Z</time>
      </trkpt>
      <trkpt lat="42.2803790" lon="-8.6171710">
        <ele>66.7</ele>
        <time>2021-05-20T15:45:48Z</time>
      </trkpt>
      <trkpt lat="42.2803800" lon="-8.6171510">
        <ele>66.7</ele>
        <time>2021-05-20T15:45:49Z</time>
      </trkpt>
      <trkpt lat="42.2803810" lon="-8.6171260">
        <ele>66.7</ele>
        <time>2021-05-20T15:45:50Z</time>
      </trkpt>
      <trkpt lat="42.2803810" lon="-8.6170870">
        <ele>66.7</ele>
        <time>2021-05-20T15:45:51Z</time>
      </trkpt>
      <trkpt lat="42.2803800" lon="-8.6170750">
        <ele>66.6</ele>
        <time>2021-05-20T15:45:52Z</time>
      </trkpt>
      <trkpt lat="42.2803790" lon="-8.6170660">
        <ele>66.6</ele>
        <time>2021-05-20T15:45:53Z</time>
      </trkpt>
      <trkpt lat="42.2803780" lon="-8.6170380">
        <ele>66.6</ele>
        <time>2021-05-20T15:45:54Z</time>
      </trkpt>
      <trkpt lat="42.2803800" lon="-8.6170290">
        <ele>66.6</ele>
        <time>2021-05-20T15:45:55Z</time>
      </trkpt>
      <trkpt lat="42.2803840" lon="-8.6170170">
        <ele>66.6</ele>
        <time>2021-05-20T15:45:56Z</time>
      </trkpt>
      <trkpt lat="42.2803850" lon="-8.6169940">
        <ele>66.6</ele>
        <time>2021-05-20T15:45:57Z</time>
      </trkpt>
      <trkpt lat="42.2803900" lon="-8.6169630">
        <ele>66.6</ele>
        <time>2021-05-20T15:45:58Z</time>
      </trkpt>
      <trkpt lat="42.2803950" lon="-8.6169530">
        <ele>66.6</ele>
        <time>2021-05-20T15:45:59Z</time>
      </trkpt>
      <trkpt lat="42.2803990" lon="-8.6169440">
        <ele>66.6</ele>
        <time>2021-05-20T15:46:00Z</time>
      </trkpt>
      <trkpt lat="42.2804110" lon="-8.6169130">
        <ele>66.6</ele>
        <time>2021-05-20T15:46:01Z</time>
      </trkpt>
      <trkpt lat="42.2804110" lon="-8.6169000">
        <ele>66.6</ele>
        <time>2021-05-20T15:46:02Z</time>
      </trkpt>
      <trkpt lat="42.2804190" lon="-8.6168880">
        <ele>66.6</ele>
        <time>2021-05-20T15:46:03Z</time>
      </trkpt>
      <trkpt lat="42.2804160" lon="-8.6168790">
        <ele>66.6</ele>
        <time>2021-05-20T15:46:04Z</time>
      </trkpt>
      <trkpt lat="42.2804190" lon="-8.6168610">
        <ele>66.6</ele>
        <time>2021-05-20T15:46:05Z</time>
      </trkpt>
      <trkpt lat="42.2804220" lon="-8.6168530">
        <ele>66.6</ele>
        <time>2021-05-20T15:46:06Z</time>
      </trkpt>
      <trkpt lat="42.2804210" lon="-8.6168180">
        <ele>66.6</ele>
        <time>2021-05-20T15:46:07Z</time>
      </trkpt>
      <trkpt lat="42.2804270" lon="-8.6168090">
        <ele>66.6</ele>
        <time>2021-05-20T15:46:08Z</time>
      </trkpt>
      <trkpt lat="42.2804390" lon="-8.6167910">
        <ele>66.6</ele>
        <time>2021-05-20T15:46:09Z</time>
      </trkpt>
      <trkpt lat="42.2804410" lon="-8.6167670">
        <ele>66.6</ele>
        <time>2021-05-20T15:46:10Z</time>
      </trkpt>
      <trkpt lat="42.2804460" lon="-8.6167500">
        <ele>66.6</ele>
        <time>2021-05-20T15:46:11Z</time>
      </trkpt>
      <trkpt lat="42.2804480" lon="-8.6167350">
        <ele>66.6</ele>
        <time>2021-05-20T15:46:12Z</time>
      </trkpt>
      <trkpt lat="42.2804540" lon="-8.6167100">
        <ele>66.6</ele>
        <time>2021-05-20T15:46:13Z</time>
      </trkpt>
      <trkpt lat="42.2804590" lon="-8.6166940">
        <ele>66.6</ele>
        <time>2021-05-20T15:46:14Z</time>
      </trkpt>
      <trkpt lat="42.2804630" lon="-8.6166740">
        <ele>66.5</ele>
        <time>2021-05-20T15:46:15Z</time>
      </trkpt>
      <trkpt lat="42.2804650" lon="-8.6166580">
        <ele>66.5</ele>
        <time>2021-05-20T15:46:16Z</time>
      </trkpt>
      <trkpt lat="42.2804770" lon="-8.6166420">
        <ele>66.5</ele>
        <time>2021-05-20T15:46:17Z</time>
      </trkpt>
      <trkpt lat="42.2804850" lon="-8.6166180">
        <ele>66.5</ele>
        <time>2021-05-20T15:46:18Z</time>
      </trkpt>
      <trkpt lat="42.2804930" lon="-8.6166000">
        <ele>66.5</ele>
        <time>2021-05-20T15:46:19Z</time>
      </trkpt>
      <trkpt lat="42.2804970" lon="-8.6165860">
        <ele>66.4</ele>
        <time>2021-05-20T15:46:20Z</time>
      </trkpt>
      <trkpt lat="42.2805010" lon="-8.6165720">
        <ele>66.4</ele>
        <time>2021-05-20T15:46:21Z</time>
      </trkpt>
      <trkpt lat="42.2805060" lon="-8.6165570">
        <ele>66.4</ele>
        <time>2021-05-20T15:46:22Z</time>
      </trkpt>
      <trkpt lat="42.2805020" lon="-8.6165420">
        <ele>66.3</ele>
        <time>2021-05-20T15:46:23Z</time>
      </trkpt>
      <trkpt lat="42.2805130" lon="-8.6165340">
        <ele>66.3</ele>
        <time>2021-05-20T15:46:24Z</time>
      </trkpt>
      <trkpt lat="42.2805140" lon="-8.6165240">
        <ele>66.3</ele>
        <time>2021-05-20T15:46:25Z</time>
      </trkpt>
      <trkpt lat="42.2805220" lon="-8.6165210">
        <ele>66.3</ele>
        <time>2021-05-20T15:46:26Z</time>
      </trkpt>
      <trkpt lat="42.2805310" lon="-8.6164930">
        <ele>66.2</ele>
        <time>2021-05-20T15:46:28Z</time>
      </trkpt>
      <trkpt lat="42.2805350" lon="-8.6164850">
        <ele>66.2</ele>
        <time>2021-05-20T15:46:29Z</time>
      </trkpt>
      <trkpt lat="42.2805390" lon="-8.6164780">
        <ele>66.2</ele>
        <time>2021-05-20T15:46:30Z</time>
      </trkpt>
      <trkpt lat="42.2805360" lon="-8.6164580">
        <ele>66.1</ele>
        <time>2021-05-20T15:46:31Z</time>
      </trkpt>
      <trkpt lat="42.2805470" lon="-8.6164530">
        <ele>66.1</ele>
        <time>2021-05-20T15:46:32Z</time>
      </trkpt>
      <trkpt lat="42.2805420" lon="-8.6164380">
        <ele>66.0</ele>
        <time>2021-05-20T15:46:33Z</time>
      </trkpt>
      <trkpt lat="42.2805430" lon="-8.6164270">
        <ele>66.0</ele>
        <time>2021-05-20T15:46:34Z</time>
      </trkpt>
      <trkpt lat="42.2805410" lon="-8.6164140">
        <ele>66.0</ele>
        <time>2021-05-20T15:46:35Z</time>
      </trkpt>
      <trkpt lat="42.2805480" lon="-8.6163930">
        <ele>65.9</ele>
        <time>2021-05-20T15:46:36Z</time>
      </trkpt>
      <trkpt lat="42.2805560" lon="-8.6163740">
        <ele>65.8</ele>
        <time>2021-05-20T15:46:37Z</time>
      </trkpt>
      <trkpt lat="42.2805590" lon="-8.6163590">
        <ele>65.8</ele>
        <time>2021-05-20T15:46:38Z</time>
      </trkpt>
      <trkpt lat="42.2805690" lon="-8.6163480">
        <ele>65.8</ele>
        <time>2021-05-20T15:46:39Z</time>
      </trkpt>
      <trkpt lat="42.2805730" lon="-8.6163300">
        <ele>65.7</ele>
        <time>2021-05-20T15:46:40Z</time>
      </trkpt>
      <trkpt lat="42.2805700" lon="-8.6163200">
        <ele>65.7</ele>
        <time>2021-05-20T15:46:41Z</time>
      </trkpt>
      <trkpt lat="42.2805710" lon="-8.6163000">
        <ele>65.6</ele>
        <time>2021-05-20T15:46:42Z</time>
      </trkpt>
      <trkpt lat="42.2805730" lon="-8.6162900">
        <ele>65.6</ele>
        <time>2021-05-20T15:46:43Z</time>
      </trkpt>
      <trkpt lat="42.2805810" lon="-8.6162730">
        <ele>65.5</ele>
        <time>2021-05-20T15:46:44Z</time>
      </trkpt>
      <trkpt lat="42.2805880" lon="-8.6162550">
        <ele>65.5</ele>
        <time>2021-05-20T15:46:45Z</time>
      </trkpt>
      <trkpt lat="42.2805930" lon="-8.6162400">
        <ele>65.4</ele>
        <time>2021-05-20T15:46:46Z</time>
      </trkpt>
      <trkpt lat="42.2806020" lon="-8.6162200">
        <ele>65.4</ele>
        <time>2021-05-20T15:46:47Z</time>
      </trkpt>
      <trkpt lat="42.2805960" lon="-8.6162130">
        <ele>65.3</ele>
        <time>2021-05-20T15:46:48Z</time>
      </trkpt>
      <trkpt lat="42.2806050" lon="-8.6161990">
        <ele>65.3</ele>
        <time>2021-05-20T15:46:49Z</time>
      </trkpt>
      <trkpt lat="42.2806080" lon="-8.6161770">
        <ele>65.2</ele>
        <time>2021-05-20T15:46:50Z</time>
      </trkpt>
      <trkpt lat="42.2806180" lon="-8.6161620">
        <ele>65.2</ele>
        <time>2021-05-20T15:46:51Z</time>
      </trkpt>
      <trkpt lat="42.2806400" lon="-8.6161300">
        <ele>65.0</ele>
        <time>2021-05-20T15:46:52Z</time>
      </trkpt>
      <trkpt lat="42.2806420" lon="-8.6161230">
        <ele>65.0</ele>
        <time>2021-05-20T15:46:53Z</time>
      </trkpt>
      <trkpt lat="42.2806500" lon="-8.6161080">
        <ele>65.0</ele>
        <time>2021-05-20T15:46:54Z</time>
      </trkpt>
      <trkpt lat="42.2806520" lon="-8.6161040">
        <ele>64.9</ele>
        <time>2021-05-20T15:46:55Z</time>
      </trkpt>
      <trkpt lat="42.2806520" lon="-8.6160930">
        <ele>64.9</ele>
        <time>2021-05-20T15:46:56Z</time>
      </trkpt>
      <trkpt lat="42.2806510" lon="-8.6160810">
        <ele>64.9</ele>
        <time>2021-05-20T15:46:57Z</time>
      </trkpt>
      <trkpt lat="42.2806600" lon="-8.6160520">
        <ele>64.8</ele>
        <time>2021-05-20T15:46:58Z</time>
      </trkpt>
      <trkpt lat="42.2806640" lon="-8.6160400">
        <ele>64.7</ele>
        <time>2021-05-20T15:46:59Z</time>
      </trkpt>
      <trkpt lat="42.2806670" lon="-8.6160270">
        <ele>64.7</ele>
        <time>2021-05-20T15:47:00Z</time>
      </trkpt>
      <trkpt lat="42.2806740" lon="-8.6160070">
        <ele>64.6</ele>
        <time>2021-05-20T15:47:01Z</time>
      </trkpt>
      <trkpt lat="42.2806750" lon="-8.6159960">
        <ele>64.6</ele>
        <time>2021-05-20T15:47:02Z</time>
      </trkpt>
      <trkpt lat="42.2806730" lon="-8.6159890">
        <ele>64.6</ele>
        <time>2021-05-20T15:47:03Z</time>
      </trkpt>
      <trkpt lat="42.2806800" lon="-8.6159690">
        <ele>64.5</ele>
        <time>2021-05-20T15:47:04Z</time>
      </trkpt>
      <trkpt lat="42.2806850" lon="-8.6159530">
        <ele>64.4</ele>
        <time>2021-05-20T15:47:05Z</time>
      </trkpt>
      <trkpt lat="42.2806870" lon="-8.6159420">
        <ele>64.4</ele>
        <time>2021-05-20T15:47:06Z</time>
      </trkpt>
      <trkpt lat="42.2806880" lon="-8.6159330">
        <ele>64.4</ele>
        <time>2021-05-20T15:47:07Z</time>
      </trkpt>
      <trkpt lat="42.2806940" lon="-8.6159230">
        <ele>64.3</ele>
        <time>2021-05-20T15:47:08Z</time>
      </trkpt>
      <trkpt lat="42.2806970" lon="-8.6159080">
        <ele>64.3</ele>
        <time>2021-05-20T15:47:09Z</time>
      </trkpt>
      <trkpt lat="42.2807040" lon="-8.6158920">
        <ele>64.2</ele>
        <time>2021-05-20T15:47:10Z</time>
      </trkpt>
      <trkpt lat="42.2807080" lon="-8.6158810">
        <ele>64.2</ele>
        <time>2021-05-20T15:47:11Z</time>
      </trkpt>
      <trkpt lat="42.2807170" lon="-8.6158730">
        <ele>64.1</ele>
        <time>2021-05-20T15:47:12Z</time>
      </trkpt>
      <trkpt lat="42.2807330" lon="-8.6158560">
        <ele>64.0</ele>
        <time>2021-05-20T15:47:13Z</time>
      </trkpt>
      <trkpt lat="42.2807400" lon="-8.6158520">
        <ele>64.0</ele>
        <time>2021-05-20T15:47:14Z</time>
      </trkpt>
      <trkpt lat="42.2807550" lon="-8.6158270">
        <ele>63.8</ele>
        <time>2021-05-20T15:47:15Z</time>
      </trkpt>
      <trkpt lat="42.2807600" lon="-8.6158220">
        <ele>63.8</ele>
        <time>2021-05-20T15:47:16Z</time>
      </trkpt>
      <trkpt lat="42.2807660" lon="-8.6158160">
        <ele>63.8</ele>
        <time>2021-05-20T15:47:17Z</time>
      </trkpt>
      <trkpt lat="42.2807730" lon="-8.6157990">
        <ele>63.7</ele>
        <time>2021-05-20T15:47:18Z</time>
      </trkpt>
      <trkpt lat="42.2807800" lon="-8.6157920">
        <ele>63.6</ele>
        <time>2021-05-20T15:47:19Z</time>
      </trkpt>
      <trkpt lat="42.2807820" lon="-8.6157790">
        <ele>63.6</ele>
        <time>2021-05-20T15:47:20Z</time>
      </trkpt>
      <trkpt lat="42.2807970" lon="-8.6157590">
        <ele>63.5</ele>
        <time>2021-05-20T15:47:21Z</time>
      </trkpt>
      <trkpt lat="42.2808030" lon="-8.6157510">
        <ele>63.4</ele>
        <time>2021-05-20T15:47:22Z</time>
      </trkpt>
      <trkpt lat="42.2808090" lon="-8.6157430">
        <ele>63.4</ele>
        <time>2021-05-20T15:47:23Z</time>
      </trkpt>
      <trkpt lat="42.2808170" lon="-8.6157280">
        <ele>63.3</ele>
        <time>2021-05-20T15:47:24Z</time>
      </trkpt>
      <trkpt lat="42.2808270" lon="-8.6157200">
        <ele>63.2</ele>
        <time>2021-05-20T15:47:25Z</time>
      </trkpt>
      <trkpt lat="42.2808360" lon="-8.6157140">
        <ele>63.2</ele>
        <time>2021-05-20T15:47:26Z</time>
      </trkpt>
      <trkpt lat="42.2808450" lon="-8.6157010">
        <ele>63.1</ele>
        <time>2021-05-20T15:47:27Z</time>
      </trkpt>
      <trkpt lat="42.2808550" lon="-8.6157020">
        <ele>63.0</ele>
        <time>2021-05-20T15:47:28Z</time>
      </trkpt>
      <trkpt lat="42.2808620" lon="-8.6156960">
        <ele>63.0</ele>
        <time>2021-05-20T15:47:29Z</time>
      </trkpt>
      <trkpt lat="42.2808700" lon="-8.6156730">
        <ele>62.9</ele>
        <time>2021-05-20T15:47:30Z</time>
      </trkpt>
      <trkpt lat="42.2808780" lon="-8.6156640">
        <ele>62.8</ele>
        <time>2021-05-20T15:47:31Z</time>
      </trkpt>
      <trkpt lat="42.2808870" lon="-8.6156590">
        <ele>62.7</ele>
        <time>2021-05-20T15:47:32Z</time>
      </trkpt>
      <trkpt lat="42.2808910" lon="-8.6156630">
        <ele>62.7</ele>
        <time>2021-05-20T15:47:33Z</time>
      </trkpt>
      <trkpt lat="42.2808960" lon="-8.6156590">
        <ele>62.7</ele>
        <time>2021-05-20T15:47:34Z</time>
      </trkpt>
      <trkpt lat="42.2808990" lon="-8.6156420">
        <ele>62.6</ele>
        <time>2021-05-20T15:47:35Z</time>
      </trkpt>
      <trkpt lat="42.2809040" lon="-8.6156200">
        <ele>62.5</ele>
        <time>2021-05-20T15:47:36Z</time>
      </trkpt>
      <trkpt lat="42.2809130" lon="-8.6156120">
        <ele>62.4</ele>
        <time>2021-05-20T15:47:37Z</time>
      </trkpt>
      <trkpt lat="42.2809200" lon="-8.6156160">
        <ele>62.4</ele>
        <time>2021-05-20T15:47:38Z</time>
      </trkpt>
      <trkpt lat="42.2809320" lon="-8.6155880">
        <ele>62.2</ele>
        <time>2021-05-20T15:47:39Z</time>
      </trkpt>
      <trkpt lat="42.2809350" lon="-8.6155790">
        <ele>62.1</ele>
        <time>2021-05-20T15:47:40Z</time>
      </trkpt>
      <trkpt lat="42.2809380" lon="-8.6155690">
        <ele>62.1</ele>
        <time>2021-05-20T15:47:41Z</time>
      </trkpt>
      <trkpt lat="42.2809480" lon="-8.6155570">
        <ele>62.0</ele>
        <time>2021-05-20T15:47:42Z</time>
      </trkpt>
      <trkpt lat="42.2809520" lon="-8.6155460">
        <ele>61.9</ele>
        <time>2021-05-20T15:47:43Z</time>
      </trkpt>
      <trkpt lat="42.2809590" lon="-8.6155350">
        <ele>61.9</ele>
        <time>2021-05-20T15:47:44Z</time>
      </trkpt>
      <trkpt lat="42.2809680" lon="-8.6155240">
        <ele>61.8</ele>
        <time>2021-05-20T15:47:45Z</time>
      </trkpt>
      <trkpt lat="42.2809710" lon="-8.6155120">
        <ele>61.7</ele>
        <time>2021-05-20T15:47:46Z</time>
      </trkpt>
      <trkpt lat="42.2809850" lon="-8.6154850">
        <ele>61.5</ele>
        <time>2021-05-20T15:47:47Z</time>
      </trkpt>
      <trkpt lat="42.2809890" lon="-8.6154720">
        <ele>61.4</ele>
        <time>2021-05-20T15:47:48Z</time>
      </trkpt>
      <trkpt lat="42.2809980" lon="-8.6154660">
        <ele>61.4</ele>
        <time>2021-05-20T15:47:49Z</time>
      </trkpt>
      <trkpt lat="42.2810070" lon="-8.6154580">
        <ele>61.3</ele>
        <time>2021-05-20T15:47:50Z</time>
      </trkpt>
      <trkpt lat="42.2810120" lon="-8.6154450">
        <ele>61.2</ele>
        <time>2021-05-20T15:47:51Z</time>
      </trkpt>
      <trkpt lat="42.2810110" lon="-8.6154300">
        <ele>61.1</ele>
        <time>2021-05-20T15:47:52Z</time>
      </trkpt>
      <trkpt lat="42.2810190" lon="-8.6154090">
        <ele>60.9</ele>
        <time>2021-05-20T15:47:53Z</time>
      </trkpt>
      <trkpt lat="42.2810280" lon="-8.6153930">
        <ele>60.8</ele>
        <time>2021-05-20T15:47:54Z</time>
      </trkpt>
      <trkpt lat="42.2810300" lon="-8.6153820">
        <ele>60.7</ele>
        <time>2021-05-20T15:47:55Z</time>
      </trkpt>
      <trkpt lat="42.2810380" lon="-8.6153610">
        <ele>60.6</ele>
        <time>2021-05-20T15:47:56Z</time>
      </trkpt>
      <trkpt lat="42.2810390" lon="-8.6153500">
        <ele>60.5</ele>
        <time>2021-05-20T15:47:57Z</time>
      </trkpt>
      <trkpt lat="42.2810420" lon="-8.6153400">
        <ele>60.4</ele>
        <time>2021-05-20T15:47:58Z</time>
      </trkpt>
      <trkpt lat="42.2810450" lon="-8.6153250">
        <ele>60.3</ele>
        <time>2021-05-20T15:47:59Z</time>
      </trkpt>
      <trkpt lat="42.2810480" lon="-8.6153070">
        <ele>60.2</ele>
        <time>2021-05-20T15:48:00Z</time>
      </trkpt>
      <trkpt lat="42.2810570" lon="-8.6152950">
        <ele>60.1</ele>
        <time>2021-05-20T15:48:01Z</time>
      </trkpt>
      <trkpt lat="42.2810640" lon="-8.6152830">
        <ele>59.9</ele>
        <time>2021-05-20T15:48:02Z</time>
      </trkpt>
      <trkpt lat="42.2810690" lon="-8.6152680">
        <ele>59.8</ele>
        <time>2021-05-20T15:48:03Z</time>
      </trkpt>
      <trkpt lat="42.2810710" lon="-8.6152580">
        <ele>59.7</ele>
        <time>2021-05-20T15:48:05Z</time>
      </trkpt>
      <trkpt lat="42.2810730" lon="-8.6152460">
        <ele>59.6</ele>
        <time>2021-05-20T15:48:06Z</time>
      </trkpt>
      <trkpt lat="42.2810790" lon="-8.6152270">
        <ele>59.5</ele>
        <time>2021-05-20T15:48:07Z</time>
      </trkpt>
      <trkpt lat="42.2810810" lon="-8.6152120">
        <ele>59.4</ele>
        <time>2021-05-20T15:48:08Z</time>
      </trkpt>
      <trkpt lat="42.2810860" lon="-8.6151980">
        <ele>59.3</ele>
        <time>2021-05-20T15:48:09Z</time>
      </trkpt>
      <trkpt lat="42.2810870" lon="-8.6151850">
        <ele>59.2</ele>
        <time>2021-05-20T15:48:10Z</time>
      </trkpt>
      <trkpt lat="42.2810880" lon="-8.6151710">
        <ele>59.0</ele>
        <time>2021-05-20T15:48:11Z</time>
      </trkpt>
      <trkpt lat="42.2810910" lon="-8.6151570">
        <ele>58.9</ele>
        <time>2021-05-20T15:48:12Z</time>
      </trkpt>
      <trkpt lat="42.2810950" lon="-8.6151450">
        <ele>58.8</ele>
        <time>2021-05-20T15:48:13Z</time>
      </trkpt>
      <trkpt lat="42.2810960" lon="-8.6151360">
        <ele>58.8</ele>
        <time>2021-05-20T15:48:14Z</time>
      </trkpt>
      <trkpt lat="42.2810970" lon="-8.6151300">
        <ele>58.7</ele>
        <time>2021-05-20T15:48:15Z</time>
      </trkpt>
      <trkpt lat="42.2810990" lon="-8.6151230">
        <ele>58.7</ele>
        <time>2021-05-20T15:48:16Z</time>
      </trkpt>
      <trkpt lat="42.2811000" lon="-8.6151120">
        <ele>58.6</ele>
        <time>2021-05-20T15:48:17Z</time>
      </trkpt>
      <trkpt lat="42.2811020" lon="-8.6151010">
        <ele>58.5</ele>
        <time>2021-05-20T15:48:18Z</time>
      </trkpt>
      <trkpt lat="42.2811060" lon="-8.6150870">
        <ele>58.4</ele>
        <time>2021-05-20T15:48:19Z</time>
      </trkpt>
      <trkpt lat="42.2811040" lon="-8.6150760">
        <ele>58.3</ele>
        <time>2021-05-20T15:48:20Z</time>
      </trkpt>
      <trkpt lat="42.2811080" lon="-8.6150620">
        <ele>58.2</ele>
        <time>2021-05-20T15:48:21Z</time>
      </trkpt>
      <trkpt lat="42.2811080" lon="-8.6150570">
        <ele>58.1</ele>
        <time>2021-05-20T15:48:22Z</time>
      </trkpt>
      <trkpt lat="42.2811100" lon="-8.6150460">
        <ele>58.0</ele>
        <time>2021-05-20T15:48:23Z</time>
      </trkpt>
      <trkpt lat="42.2811110" lon="-8.6150320">
        <ele>57.9</ele>
        <time>2021-05-20T15:48:24Z</time>
      </trkpt>
      <trkpt lat="42.2811130" lon="-8.6150190">
        <ele>57.8</ele>
        <time>2021-05-20T15:48:25Z</time>
      </trkpt>
      <trkpt lat="42.2811140" lon="-8.6150140">
        <ele>57.8</ele>
        <time>2021-05-20T15:48:26Z</time>
      </trkpt>
      <trkpt lat="42.2811170" lon="-8.6150020">
        <ele>57.7</ele>
        <time>2021-05-20T15:48:27Z</time>
      </trkpt>
      <trkpt lat="42.2811230" lon="-8.6149920">
        <ele>57.6</ele>
        <time>2021-05-20T15:48:28Z</time>
      </trkpt>
      <trkpt lat="42.2811230" lon="-8.6149760">
        <ele>57.4</ele>
        <time>2021-05-20T15:48:29Z</time>
      </trkpt>
      <trkpt lat="42.2811230" lon="-8.6149450">
        <ele>57.2</ele>
        <time>2021-05-20T15:48:30Z</time>
      </trkpt>
      <trkpt lat="42.2811240" lon="-8.6149360">
        <ele>57.1</ele>
        <time>2021-05-20T15:48:31Z</time>
      </trkpt>
      <trkpt lat="42.2811260" lon="-8.6149260">
        <ele>57.0</ele>
        <time>2021-05-20T15:48:32Z</time>
      </trkpt>
      <trkpt lat="42.2811260" lon="-8.6149130">
        <ele>56.9</ele>
        <time>2021-05-20T15:48:33Z</time>
      </trkpt>
      <trkpt lat="42.2811330" lon="-8.6149100">
        <ele>56.8</ele>
        <time>2021-05-20T15:48:34Z</time>
      </trkpt>
      <trkpt lat="42.2811410" lon="-8.6149060">
        <ele>56.7</ele>
        <time>2021-05-20T15:48:35Z</time>
      </trkpt>
      <trkpt lat="42.2811420" lon="-8.6149010">
        <ele>56.7</ele>
        <time>2021-05-20T15:48:36Z</time>
      </trkpt>
      <trkpt lat="42.2811450" lon="-8.6148870">
        <ele>56.6</ele>
        <time>2021-05-20T15:48:37Z</time>
      </trkpt>
      <trkpt lat="42.2811520" lon="-8.6148780">
        <ele>56.5</ele>
        <time>2021-05-20T15:48:38Z</time>
      </trkpt>
      <trkpt lat="42.2811610" lon="-8.6148540">
        <ele>56.2</ele>
        <time>2021-05-20T15:48:39Z</time>
      </trkpt>
      <trkpt lat="42.2811750" lon="-8.6148440">
        <ele>56.1</ele>
        <time>2021-05-20T15:48:40Z</time>
      </trkpt>
      <trkpt lat="42.2811730" lon="-8.6148340">
        <ele>56.0</ele>
        <time>2021-05-20T15:48:41Z</time>
      </trkpt>
      <trkpt lat="42.2811710" lon="-8.6148350">
        <ele>55.9</ele>
        <time>2021-05-20T15:48:42Z</time>
      </trkpt>
      <trkpt lat="42.2811770" lon="-8.6148180">
        <ele>55.8</ele>
        <time>2021-05-20T15:48:43Z</time>
      </trkpt>
      <trkpt lat="42.2811830" lon="-8.6148170">
        <ele>55.7</ele>
        <time>2021-05-20T15:48:44Z</time>
      </trkpt>
      <trkpt lat="42.2811890" lon="-8.6148000">
        <ele>55.5</ele>
        <time>2021-05-20T15:48:45Z</time>
      </trkpt>
      <trkpt lat="42.2811910" lon="-8.6147820">
        <ele>55.3</ele>
        <time>2021-05-20T15:48:46Z</time>
      </trkpt>
      <trkpt lat="42.2812060" lon="-8.6147620">
        <ele>55.1</ele>
        <time>2021-05-20T15:48:47Z</time>
      </trkpt>
      <trkpt lat="42.2812080" lon="-8.6147590">
        <ele>55.0</ele>
        <time>2021-05-20T15:48:48Z</time>
      </trkpt>
      <trkpt lat="42.2812100" lon="-8.6147530">
        <ele>54.9</ele>
        <time>2021-05-20T15:48:49Z</time>
      </trkpt>
      <trkpt lat="42.2812150" lon="-8.6147460">
        <ele>54.9</ele>
        <time>2021-05-20T15:48:50Z</time>
      </trkpt>
      <trkpt lat="42.2812150" lon="-8.6147410">
        <ele>54.8</ele>
        <time>2021-05-20T15:48:51Z</time>
      </trkpt>
      <trkpt lat="42.2812200" lon="-8.6147340">
        <ele>54.7</ele>
        <time>2021-05-20T15:48:52Z</time>
      </trkpt>
      <trkpt lat="42.2812260" lon="-8.6147240">
        <ele>54.6</ele>
        <time>2021-05-20T15:48:53Z</time>
      </trkpt>
      <trkpt lat="42.2812300" lon="-8.6147140">
        <ele>54.4</ele>
        <time>2021-05-20T15:48:54Z</time>
      </trkpt>
      <trkpt lat="42.2812300" lon="-8.6147050">
        <ele>54.3</ele>
        <time>2021-05-20T15:48:55Z</time>
      </trkpt>
      <trkpt lat="42.2812410" lon="-8.6146890">
        <ele>54.1</ele>
        <time>2021-05-20T15:48:56Z</time>
      </trkpt>
      <trkpt lat="42.2812420" lon="-8.6146740">
        <ele>53.9</ele>
        <time>2021-05-20T15:48:57Z</time>
      </trkpt>
      <trkpt lat="42.2812450" lon="-8.6146630">
        <ele>53.8</ele>
        <time>2021-05-20T15:48:58Z</time>
      </trkpt>
      <trkpt lat="42.2812490" lon="-8.6146440">
        <ele>53.6</ele>
        <time>2021-05-20T15:48:59Z</time>
      </trkpt>
      <trkpt lat="42.2812500" lon="-8.6146340">
        <ele>53.4</ele>
        <time>2021-05-20T15:49:00Z</time>
      </trkpt>
      <trkpt lat="42.2812560" lon="-8.6146200">
        <ele>53.2</ele>
        <time>2021-05-20T15:49:01Z</time>
      </trkpt>
      <trkpt lat="42.2812610" lon="-8.6146240">
        <ele>53.1</ele>
        <time>2021-05-20T15:49:02Z</time>
      </trkpt>
      <trkpt lat="42.2812690" lon="-8.6146110">
        <ele>52.9</ele>
        <time>2021-05-20T15:49:03Z</time>
      </trkpt>
      <trkpt lat="42.2812710" lon="-8.6146140">
        <ele>52.9</ele>
        <time>2021-05-20T15:49:04Z</time>
      </trkpt>
      <trkpt lat="42.2812700" lon="-8.6145960">
        <ele>52.7</ele>
        <time>2021-05-20T15:49:05Z</time>
      </trkpt>
      <trkpt lat="42.2812750" lon="-8.6145800">
        <ele>52.4</ele>
        <time>2021-05-20T15:49:06Z</time>
      </trkpt>
      <trkpt lat="42.2812810" lon="-8.6145680">
        <ele>52.2</ele>
        <time>2021-05-20T15:49:07Z</time>
      </trkpt>
      <trkpt lat="42.2812840" lon="-8.6145540">
        <ele>52.0</ele>
        <time>2021-05-20T15:49:08Z</time>
      </trkpt>
      <trkpt lat="42.2812840" lon="-8.6145550">
        <ele>52.0</ele>
        <time>2021-05-20T15:49:09Z</time>
      </trkpt>
      <trkpt lat="42.2812860" lon="-8.6145510">
        <ele>52.0</ele>
        <time>2021-05-20T15:49:10Z</time>
      </trkpt>
      <trkpt lat="42.2812910" lon="-8.6145310">
        <ele>51.7</ele>
        <time>2021-05-20T15:49:11Z</time>
      </trkpt>
      <trkpt lat="42.2812960" lon="-8.6145250">
        <ele>51.5</ele>
        <time>2021-05-20T15:49:12Z</time>
      </trkpt>
      <trkpt lat="42.2812970" lon="-8.6145230">
        <ele>51.5</ele>
        <time>2021-05-20T15:49:13Z</time>
      </trkpt>
      <trkpt lat="42.2813070" lon="-8.6145150">
        <ele>51.3</ele>
        <time>2021-05-20T15:49:14Z</time>
      </trkpt>
      <trkpt lat="42.2813110" lon="-8.6145040">
        <ele>51.1</ele>
        <time>2021-05-20T15:49:15Z</time>
      </trkpt>
      <trkpt lat="42.2813170" lon="-8.6144940">
        <ele>50.9</ele>
        <time>2021-05-20T15:49:16Z</time>
      </trkpt>
      <trkpt lat="42.2813180" lon="-8.6144720">
        <ele>50.6</ele>
        <time>2021-05-20T15:49:17Z</time>
      </trkpt>
      <trkpt lat="42.2813180" lon="-8.6144520">
        <ele>50.2</ele>
        <time>2021-05-20T15:49:18Z</time>
      </trkpt>
      <trkpt lat="42.2813200" lon="-8.6144430">
        <ele>50.1</ele>
        <time>2021-05-20T15:49:19Z</time>
      </trkpt>
      <trkpt lat="42.2813220" lon="-8.6144330">
        <ele>49.9</ele>
        <time>2021-05-20T15:49:20Z</time>
      </trkpt>
      <trkpt lat="42.2813240" lon="-8.6144240">
        <ele>49.7</ele>
        <time>2021-05-20T15:49:21Z</time>
      </trkpt>
      <trkpt lat="42.2813260" lon="-8.6144150">
        <ele>49.6</ele>
        <time>2021-05-20T15:49:22Z</time>
      </trkpt>
      <trkpt lat="42.2813300" lon="-8.6144030">
        <ele>49.4</ele>
        <time>2021-05-20T15:49:23Z</time>
      </trkpt>
      <trkpt lat="42.2813330" lon="-8.6143930">
        <ele>49.2</ele>
        <time>2021-05-20T15:49:24Z</time>
      </trkpt>
      <trkpt lat="42.2813330" lon="-8.6143740">
        <ele>48.9</ele>
        <time>2021-05-20T15:49:25Z</time>
      </trkpt>
      <trkpt lat="42.2813390" lon="-8.6143500">
        <ele>48.5</ele>
        <time>2021-05-20T15:49:26Z</time>
      </trkpt>
      <trkpt lat="42.2813370" lon="-8.6143330">
        <ele>48.2</ele>
        <time>2021-05-20T15:49:27Z</time>
      </trkpt>
      <trkpt lat="42.2813380" lon="-8.6143190">
        <ele>48.0</ele>
        <time>2021-05-20T15:49:28Z</time>
      </trkpt>
      <trkpt lat="42.2813290" lon="-8.6143020">
        <ele>47.6</ele>
        <time>2021-05-20T15:49:29Z</time>
      </trkpt>
      <trkpt lat="42.2813240" lon="-8.6142980">
        <ele>47.5</ele>
        <time>2021-05-20T15:49:30Z</time>
      </trkpt>
      <trkpt lat="42.2813180" lon="-8.6142810">
        <ele>47.2</ele>
        <time>2021-05-20T15:49:31Z</time>
      </trkpt>
      <trkpt lat="42.2813130" lon="-8.6142610">
        <ele>46.8</ele>
        <time>2021-05-20T15:49:32Z</time>
      </trkpt>
      <trkpt lat="42.2813130" lon="-8.6142550">
        <ele>46.7</ele>
        <time>2021-05-20T15:49:33Z</time>
      </trkpt>
      <trkpt lat="42.2813140" lon="-8.6142380">
        <ele>46.5</ele>
        <time>2021-05-20T15:49:34Z</time>
      </trkpt>
      <trkpt lat="42.2813180" lon="-8.6142220">
        <ele>46.2</ele>
        <time>2021-05-20T15:49:35Z</time>
      </trkpt>
      <trkpt lat="42.2813100" lon="-8.6142030">
        <ele>45.9</ele>
        <time>2021-05-20T15:49:36Z</time>
      </trkpt>
      <trkpt lat="42.2813100" lon="-8.6141840">
        <ele>45.6</ele>
        <time>2021-05-20T15:49:37Z</time>
      </trkpt>
      <trkpt lat="42.2813060" lon="-8.6141620">
        <ele>45.2</ele>
        <time>2021-05-20T15:49:38Z</time>
      </trkpt>
      <trkpt lat="42.2813030" lon="-8.6141410">
        <ele>44.9</ele>
        <time>2021-05-20T15:49:39Z</time>
      </trkpt>
      <trkpt lat="42.2813010" lon="-8.6141250">
        <ele>44.6</ele>
        <time>2021-05-20T15:49:40Z</time>
      </trkpt>
      <trkpt lat="42.2812970" lon="-8.6141160">
        <ele>44.5</ele>
        <time>2021-05-20T15:49:41Z</time>
      </trkpt>
      <trkpt lat="42.2812830" lon="-8.6141100">
        <ele>44.2</ele>
        <time>2021-05-20T15:49:42Z</time>
      </trkpt>
      <trkpt lat="42.2812730" lon="-8.6140890">
        <ele>43.8</ele>
        <time>2021-05-20T15:49:43Z</time>
      </trkpt>
      <trkpt lat="42.2812730" lon="-8.6140850">
        <ele>43.7</ele>
        <time>2021-05-20T15:49:44Z</time>
      </trkpt>
      <trkpt lat="42.2812690" lon="-8.6140720">
        <ele>43.5</ele>
        <time>2021-05-20T15:49:45Z</time>
      </trkpt>
      <trkpt lat="42.2812640" lon="-8.6140610">
        <ele>43.3</ele>
        <time>2021-05-20T15:49:46Z</time>
      </trkpt>
      <trkpt lat="42.2812600" lon="-8.6140540">
        <ele>43.2</ele>
        <time>2021-05-20T15:49:47Z</time>
      </trkpt>
      <trkpt lat="42.2812560" lon="-8.6140390">
        <ele>42.9</ele>
        <time>2021-05-20T15:49:48Z</time>
      </trkpt>
      <trkpt lat="42.2812600" lon="-8.6140280">
        <ele>42.7</ele>
        <time>2021-05-20T15:49:49Z</time>
      </trkpt>
      <trkpt lat="42.2812580" lon="-8.6140170">
        <ele>42.6</ele>
        <time>2021-05-20T15:49:50Z</time>
      </trkpt>
      <trkpt lat="42.2812490" lon="-8.6139960">
        <ele>42.2</ele>
        <time>2021-05-20T15:49:51Z</time>
      </trkpt>
      <trkpt lat="42.2812440" lon="-8.6139820">
        <ele>41.9</ele>
        <time>2021-05-20T15:49:52Z</time>
      </trkpt>
      <trkpt lat="42.2812460" lon="-8.6139830">
        <ele>41.9</ele>
        <time>2021-05-20T15:49:53Z</time>
      </trkpt>
      <trkpt lat="42.2812460" lon="-8.6139770">
        <ele>41.8</ele>
        <time>2021-05-20T15:49:54Z</time>
      </trkpt>
      <trkpt lat="42.2812470" lon="-8.6139760">
        <ele>41.7</ele>
        <time>2021-05-20T15:49:55Z</time>
      </trkpt>
      <trkpt lat="42.2812480" lon="-8.6139720">
        <ele>41.7</ele>
        <time>2021-05-20T15:49:56Z</time>
      </trkpt>
      <trkpt lat="42.2812460" lon="-8.6139620">
        <ele>41.5</ele>
        <time>2021-05-20T15:49:57Z</time>
      </trkpt>
      <trkpt lat="42.2812480" lon="-8.6139520">
        <ele>41.3</ele>
        <time>2021-05-20T15:49:58Z</time>
      </trkpt>
      <trkpt lat="42.2812610" lon="-8.6139330">
        <ele>40.9</ele>
        <time>2021-05-20T15:49:59Z</time>
      </trkpt>
      <trkpt lat="42.2812470" lon="-8.6139260">
        <ele>40.5</ele>
        <time>2021-05-20T15:50:00Z</time>
      </trkpt>
      <trkpt lat="42.2812380" lon="-8.6139080">
        <ele>40.1</ele>
        <time>2021-05-20T15:50:01Z</time>
      </trkpt>
      <trkpt lat="42.2812400" lon="-8.6138940">
        <ele>37.4</ele>
        <time>2021-05-20T15:50:02Z</time>
      </trkpt>
      <trkpt lat="42.2812380" lon="-8.6138840">
        <ele>37.3</ele>
        <time>2021-05-20T15:50:03Z</time>
      </trkpt>
      <trkpt lat="42.2812410" lon="-8.6138720">
        <ele>37.2</ele>
        <time>2021-05-20T15:50:04Z</time>
      </trkpt>
      <trkpt lat="42.2812420" lon="-8.6138620">
        <ele>37.0</ele>
        <time>2021-05-20T15:50:05Z</time>
      </trkpt>
      <trkpt lat="42.2812500" lon="-8.6138580">
        <ele>36.9</ele>
        <time>2021-05-20T15:50:06Z</time>
      </trkpt>
      <trkpt lat="42.2812500" lon="-8.6138640">
        <ele>36.9</ele>
        <time>2021-05-20T15:50:07Z</time>
      </trkpt>
      <trkpt lat="42.2812610" lon="-8.6138380">
        <ele>36.5</ele>
        <time>2021-05-20T15:50:08Z</time>
      </trkpt>
      <trkpt lat="42.2812680" lon="-8.6138320">
        <ele>36.4</ele>
        <time>2021-05-20T15:50:09Z</time>
      </trkpt>
      <trkpt lat="42.2812750" lon="-8.6138280">
        <ele>36.3</ele>
        <time>2021-05-20T15:50:10Z</time>
      </trkpt>
      <trkpt lat="42.2812790" lon="-8.6138250">
        <ele>36.2</ele>
        <time>2021-05-20T15:50:11Z</time>
      </trkpt>
      <trkpt lat="42.2812800" lon="-8.6138140">
        <ele>36.1</ele>
        <time>2021-05-20T15:50:12Z</time>
      </trkpt>
      <trkpt lat="42.2812800" lon="-8.6138160">
        <ele>36.1</ele>
        <time>2021-05-20T15:50:13Z</time>
      </trkpt>
      <trkpt lat="42.2812890" lon="-8.6138140">
        <ele>36.0</ele>
        <time>2021-05-20T15:50:14Z</time>
      </trkpt>
      <trkpt lat="42.2813000" lon="-8.6138110">
        <ele>35.8</ele>
        <time>2021-05-20T15:50:15Z</time>
      </trkpt>
      <trkpt lat="42.2813060" lon="-8.6138130">
        <ele>35.7</ele>
        <time>2021-05-20T15:50:16Z</time>
      </trkpt>
      <trkpt lat="42.2813110" lon="-8.6138140">
        <ele>35.7</ele>
        <time>2021-05-20T15:50:17Z</time>
      </trkpt>
      <trkpt lat="42.2813160" lon="-8.6138160">
        <ele>35.6</ele>
        <time>2021-05-20T15:50:18Z</time>
      </trkpt>
      <trkpt lat="42.2813220" lon="-8.6138170">
        <ele>35.5</ele>
        <time>2021-05-20T15:50:19Z</time>
      </trkpt>
      <trkpt lat="42.2813270" lon="-8.6138190">
        <ele>35.4</ele>
        <time>2021-05-20T15:50:20Z</time>
      </trkpt>
      <trkpt lat="42.2813340" lon="-8.6138130">
        <ele>35.3</ele>
        <time>2021-05-20T15:50:21Z</time>
      </trkpt>
      <trkpt lat="42.2813300" lon="-8.6138120">
        <ele>35.3</ele>
        <time>2021-05-20T15:50:22Z</time>
      </trkpt>
      <trkpt lat="42.2813330" lon="-8.6138050">
        <ele>35.2</ele>
        <time>2021-05-20T15:50:23Z</time>
      </trkpt>
      <trkpt lat="42.2813390" lon="-8.6137910">
        <ele>35.0</ele>
        <time>2021-05-20T15:50:24Z</time>
      </trkpt>
      <trkpt lat="42.2813490" lon="-8.6137820">
        <ele>34.9</ele>
        <time>2021-05-20T15:50:25Z</time>
      </trkpt>
      <trkpt lat="42.2813540" lon="-8.6137810">
        <ele>34.8</ele>
        <time>2021-05-20T15:50:26Z</time>
      </trkpt>
      <trkpt lat="42.2813570" lon="-8.6137760">
        <ele>34.8</ele>
        <time>2021-05-20T15:50:27Z</time>
      </trkpt>
      <trkpt lat="42.2813570" lon="-8.6137660">
        <ele>34.7</ele>
        <time>2021-05-20T15:50:28Z</time>
      </trkpt>
      <trkpt lat="42.2813590" lon="-8.6137430">
        <ele>34.5</ele>
        <time>2021-05-20T15:50:29Z</time>
      </trkpt>
      <trkpt lat="42.2813550" lon="-8.6137270">
        <ele>34.3</ele>
        <time>2021-05-20T15:50:30Z</time>
      </trkpt>
      <trkpt lat="42.2813550" lon="-8.6137070">
        <ele>34.1</ele>
        <time>2021-05-20T15:50:31Z</time>
      </trkpt>
      <trkpt lat="42.2813490" lon="-8.6137020">
        <ele>34.1</ele>
        <time>2021-05-20T15:50:32Z</time>
      </trkpt>
      <trkpt lat="42.2813480" lon="-8.6136870">
        <ele>33.9</ele>
        <time>2021-05-20T15:50:33Z</time>
      </trkpt>
      <trkpt lat="42.2813530" lon="-8.6136620">
        <ele>33.7</ele>
        <time>2021-05-20T15:50:34Z</time>
      </trkpt>
      <trkpt lat="42.2813700" lon="-8.6136320">
        <ele>33.4</ele>
        <time>2021-05-20T15:50:35Z</time>
      </trkpt>
      <trkpt lat="42.2813690" lon="-8.6136140">
        <ele>33.3</ele>
        <time>2021-05-20T15:50:36Z</time>
      </trkpt>
      <trkpt lat="42.2813660" lon="-8.6135980">
        <ele>33.2</ele>
        <time>2021-05-20T15:50:37Z</time>
      </trkpt>
      <trkpt lat="42.2813620" lon="-8.6135850">
        <ele>33.1</ele>
        <time>2021-05-20T15:50:38Z</time>
      </trkpt>
      <trkpt lat="42.2813680" lon="-8.6135930">
        <ele>33.0</ele>
        <time>2021-05-20T15:50:39Z</time>
      </trkpt>
      <trkpt lat="42.2813650" lon="-8.6135690">
        <ele>32.9</ele>
        <time>2021-05-20T15:50:40Z</time>
      </trkpt>
      <trkpt lat="42.2813660" lon="-8.6135410">
        <ele>32.7</ele>
        <time>2021-05-20T15:50:41Z</time>
      </trkpt>
      <trkpt lat="42.2813670" lon="-8.6135300">
        <ele>32.6</ele>
        <time>2021-05-20T15:50:42Z</time>
      </trkpt>
      <trkpt lat="42.2813670" lon="-8.6135200">
        <ele>32.5</ele>
        <time>2021-05-20T15:50:43Z</time>
      </trkpt>
      <trkpt lat="42.2813670" lon="-8.6135090">
        <ele>32.5</ele>
        <time>2021-05-20T15:50:44Z</time>
      </trkpt>
      <trkpt lat="42.2813650" lon="-8.6135050">
        <ele>32.4</ele>
        <time>2021-05-20T15:50:45Z</time>
      </trkpt>
      <trkpt lat="42.2813660" lon="-8.6134920">
        <ele>32.4</ele>
        <time>2021-05-20T15:50:46Z</time>
      </trkpt>
      <trkpt lat="42.2813670" lon="-8.6134780">
        <ele>32.3</ele>
        <time>2021-05-20T15:50:47Z</time>
      </trkpt>
      <trkpt lat="42.2813680" lon="-8.6134630">
        <ele>32.2</ele>
        <time>2021-05-20T15:50:48Z</time>
      </trkpt>
      <trkpt lat="42.2813680" lon="-8.6134670">
        <ele>32.2</ele>
        <time>2021-05-20T15:50:49Z</time>
      </trkpt>
      <trkpt lat="42.2813680" lon="-8.6134650">
        <ele>32.2</ele>
        <time>2021-05-20T15:50:50Z</time>
      </trkpt>
      <trkpt lat="42.2813740" lon="-8.6134530">
        <ele>32.1</ele>
        <time>2021-05-20T15:50:51Z</time>
      </trkpt>
      <trkpt lat="42.2813740" lon="-8.6134430">
        <ele>32.0</ele>
        <time>2021-05-20T15:50:52Z</time>
      </trkpt>
      <trkpt lat="42.2813720" lon="-8.6134310">
        <ele>32.0</ele>
        <time>2021-05-20T15:50:53Z</time>
      </trkpt>
      <trkpt lat="42.2813700" lon="-8.6134250">
        <ele>31.9</ele>
        <time>2021-05-20T15:50:54Z</time>
      </trkpt>
      <trkpt lat="42.2813650" lon="-8.6134170">
        <ele>31.9</ele>
        <time>2021-05-20T15:50:55Z</time>
      </trkpt>
      <trkpt lat="42.2813610" lon="-8.6133960">
        <ele>31.8</ele>
        <time>2021-05-20T15:50:56Z</time>
      </trkpt>
      <trkpt lat="42.2813580" lon="-8.6133870">
        <ele>31.7</ele>
        <time>2021-05-20T15:50:57Z</time>
      </trkpt>
      <trkpt lat="42.2813530" lon="-8.6133720">
        <ele>31.6</ele>
        <time>2021-05-20T15:50:58Z</time>
      </trkpt>
      <trkpt lat="42.2813510" lon="-8.6133610">
        <ele>31.6</ele>
        <time>2021-05-20T15:50:59Z</time>
      </trkpt>
      <trkpt lat="42.2813490" lon="-8.6133480">
        <ele>31.5</ele>
        <time>2021-05-20T15:51:00Z</time>
      </trkpt>
      <trkpt lat="42.2813500" lon="-8.6133360">
        <ele>31.5</ele>
        <time>2021-05-20T15:51:01Z</time>
      </trkpt>
      <trkpt lat="42.2813500" lon="-8.6133270">
        <ele>31.4</ele>
        <time>2021-05-20T15:51:02Z</time>
      </trkpt>
      <trkpt lat="42.2813490" lon="-8.6133230">
        <ele>31.4</ele>
        <time>2021-05-20T15:51:03Z</time>
      </trkpt>
      <trkpt lat="42.2813430" lon="-8.6133250">
        <ele>31.4</ele>
        <time>2021-05-20T15:51:04Z</time>
      </trkpt>
      <trkpt lat="42.2813420" lon="-8.6133250">
        <ele>31.3</ele>
        <time>2021-05-20T15:51:05Z</time>
      </trkpt>
      <trkpt lat="42.2813410" lon="-8.6133260">
        <ele>31.3</ele>
        <time>2021-05-20T15:51:06Z</time>
      </trkpt>
      <trkpt lat="42.2813390" lon="-8.6133230">
        <ele>31.3</ele>
        <time>2021-05-20T15:51:07Z</time>
      </trkpt>
      <trkpt lat="42.2813250" lon="-8.6133160">
        <ele>31.2</ele>
        <time>2021-05-20T15:51:08Z</time>
      </trkpt>
      <trkpt lat="42.2813260" lon="-8.6133230">
        <ele>31.2</ele>
        <time>2021-05-20T15:51:09Z</time>
      </trkpt>
      <trkpt lat="42.2813300" lon="-8.6133240">
        <ele>31.2</ele>
        <time>2021-05-20T15:51:10Z</time>
      </trkpt>
      <trkpt lat="42.2813300" lon="-8.6133260">
        <ele>31.2</ele>
        <time>2021-05-20T15:51:11Z</time>
      </trkpt>
      <trkpt lat="42.2813310" lon="-8.6133250">
        <ele>31.2</ele>
        <time>2021-05-20T15:51:12Z</time>
      </trkpt>
      <trkpt lat="42.2813310" lon="-8.6133320">
        <ele>31.1</ele>
        <time>2021-05-20T15:51:13Z</time>
      </trkpt>
      <trkpt lat="42.2813360" lon="-8.6133280">
        <ele>31.1</ele>
        <time>2021-05-20T15:51:14Z</time>
      </trkpt>
      <trkpt lat="42.2813330" lon="-8.6133340">
        <ele>31.1</ele>
        <time>2021-05-20T15:51:15Z</time>
      </trkpt>
      <trkpt lat="42.2813310" lon="-8.6133320">
        <ele>31.0</ele>
        <time>2021-05-20T15:51:16Z</time>
      </trkpt>
      <trkpt lat="42.2813390" lon="-8.6133310">
        <ele>31.0</ele>
        <time>2021-05-20T15:51:17Z</time>
      </trkpt>
      <trkpt lat="42.2813500" lon="-8.6133280">
        <ele>30.9</ele>
        <time>2021-05-20T15:51:18Z</time>
      </trkpt>
      <trkpt lat="42.2813510" lon="-8.6133190">
        <ele>30.9</ele>
        <time>2021-05-20T15:51:19Z</time>
      </trkpt>
      <trkpt lat="42.2813600" lon="-8.6133160">
        <ele>30.8</ele>
        <time>2021-05-20T15:51:20Z</time>
      </trkpt>
      <trkpt lat="42.2813610" lon="-8.6133090">
        <ele>30.8</ele>
        <time>2021-05-20T15:51:21Z</time>
      </trkpt>
      <trkpt lat="42.2813680" lon="-8.6133100">
        <ele>30.8</ele>
        <time>2021-05-20T15:51:22Z</time>
      </trkpt>
      <trkpt lat="42.2813760" lon="-8.6133050">
        <ele>30.7</ele>
        <time>2021-05-20T15:51:23Z</time>
      </trkpt>
      <trkpt lat="42.2813840" lon="-8.6133010">
        <ele>30.7</ele>
        <time>2021-05-20T15:51:24Z</time>
      </trkpt>
      <trkpt lat="42.2813880" lon="-8.6132980">
        <ele>30.6</ele>
        <time>2021-05-20T15:51:25Z</time>
      </trkpt>
      <trkpt lat="42.2813860" lon="-8.6132940">
        <ele>30.6</ele>
        <time>2021-05-20T15:51:26Z</time>
      </trkpt>
      <trkpt lat="42.2813850" lon="-8.6132900">
        <ele>30.6</ele>
        <time>2021-05-20T15:51:27Z</time>
      </trkpt>
      <trkpt lat="42.2813880" lon="-8.6132870">
        <ele>30.6</ele>
        <time>2021-05-20T15:51:28Z</time>
      </trkpt>
      <trkpt lat="42.2813900" lon="-8.6132870">
        <ele>30.6</ele>
        <time>2021-05-20T15:51:29Z</time>
      </trkpt>
      <trkpt lat="42.2813920" lon="-8.6132890">
        <ele>30.5</ele>
        <time>2021-05-20T15:51:30Z</time>
      </trkpt>
      <trkpt lat="42.2813990" lon="-8.6132900">
        <ele>30.5</ele>
        <time>2021-05-20T15:51:31Z</time>
      </trkpt>
      <trkpt lat="42.2814050" lon="-8.6132890">
        <ele>30.5</ele>
        <time>2021-05-20T15:51:32Z</time>
      </trkpt>
      <trkpt lat="42.2814120" lon="-8.6132870">
        <ele>30.4</ele>
        <time>2021-05-20T15:51:33Z</time>
      </trkpt>
      <trkpt lat="42.2814120" lon="-8.6132860">
        <ele>30.4</ele>
        <time>2021-05-20T15:51:34Z</time>
      </trkpt>
      <trkpt lat="42.2814130" lon="-8.6132840">
        <ele>30.4</ele>
        <time>2021-05-20T15:51:35Z</time>
      </trkpt>
      <trkpt lat="42.2814160" lon="-8.6132760">
        <ele>30.4</ele>
        <time>2021-05-20T15:51:36Z</time>
      </trkpt>
      <trkpt lat="42.2814210" lon="-8.6132690">
        <ele>30.3</ele>
        <time>2021-05-20T15:51:37Z</time>
      </trkpt>
      <trkpt lat="42.2814290" lon="-8.6132570">
        <ele>30.3</ele>
        <time>2021-05-20T15:51:38Z</time>
      </trkpt>
      <trkpt lat="42.2814350" lon="-8.6132440">
        <ele>30.2</ele>
        <time>2021-05-20T15:51:39Z</time>
      </trkpt>
      <trkpt lat="42.2814370" lon="-8.6132380">
        <ele>30.2</ele>
        <time>2021-05-20T15:51:40Z</time>
      </trkpt>
      <trkpt lat="42.2814370" lon="-8.6132370">
        <ele>30.2</ele>
        <time>2021-05-20T15:51:41Z</time>
      </trkpt>
      <trkpt lat="42.2814370" lon="-8.6132380">
        <ele>30.1</ele>
        <time>2021-05-20T15:51:42Z</time>
      </trkpt>
      <trkpt lat="42.2814350" lon="-8.6132390">
        <ele>30.1</ele>
        <time>2021-05-20T15:51:43Z</time>
      </trkpt>
      <trkpt lat="42.2814310" lon="-8.6132420">
        <ele>30.1</ele>
        <time>2021-05-20T15:51:44Z</time>
      </trkpt>
      <trkpt lat="42.2814290" lon="-8.6132450">
        <ele>30.1</ele>
        <time>2021-05-20T15:51:45Z</time>
      </trkpt>
      <trkpt lat="42.2814230" lon="-8.6132490">
        <ele>30.1</ele>
        <time>2021-05-20T15:51:46Z</time>
      </trkpt>
      <trkpt lat="42.2814230" lon="-8.6132490">
        <ele>30.1</ele>
        <time>2021-05-20T15:51:47Z</time>
      </trkpt>
      <trkpt lat="42.2814170" lon="-8.6132520">
        <ele>30.0</ele>
        <time>2021-05-20T15:51:48Z</time>
      </trkpt>
      <trkpt lat="42.2814180" lon="-8.6132570">
        <ele>30.0</ele>
        <time>2021-05-20T15:51:49Z</time>
      </trkpt>
      <trkpt lat="42.2814180" lon="-8.6132590">
        <ele>30.0</ele>
        <time>2021-05-20T15:51:50Z</time>
      </trkpt>
      <trkpt lat="42.2814160" lon="-8.6132590">
        <ele>30.0</ele>
        <time>2021-05-20T15:51:51Z</time>
      </trkpt>
      <trkpt lat="42.2814160" lon="-8.6132620">
        <ele>30.0</ele>
        <time>2021-05-20T15:51:52Z</time>
      </trkpt>
      <trkpt lat="42.2814150" lon="-8.6132640">
        <ele>29.9</ele>
        <time>2021-05-20T15:51:53Z</time>
      </trkpt>
      <trkpt lat="42.2814140" lon="-8.6132630">
        <ele>29.9</ele>
        <time>2021-05-20T15:51:54Z</time>
      </trkpt>
      <trkpt lat="42.2814180" lon="-8.6132610">
        <ele>29.9</ele>
        <time>2021-05-20T15:51:55Z</time>
      </trkpt>
      <trkpt lat="42.2814200" lon="-8.6132590">
        <ele>29.9</ele>
        <time>2021-05-20T15:51:56Z</time>
      </trkpt>
      <trkpt lat="42.2814230" lon="-8.6132580">
        <ele>29.9</ele>
        <time>2021-05-20T15:51:57Z</time>
      </trkpt>
      <trkpt lat="42.2814240" lon="-8.6132580">
        <ele>29.9</ele>
        <time>2021-05-20T15:51:58Z</time>
      </trkpt>
      <trkpt lat="42.2814260" lon="-8.6132560">
        <ele>29.9</ele>
        <time>2021-05-20T15:51:59Z</time>
      </trkpt>
      <trkpt lat="42.2814270" lon="-8.6132550">
        <ele>29.9</ele>
        <time>2021-05-20T15:52:00Z</time>
      </trkpt>
      <trkpt lat="42.2814270" lon="-8.6132540">
        <ele>29.8</ele>
        <time>2021-05-20T15:52:01Z</time>
      </trkpt>
      <trkpt lat="42.2814330" lon="-8.6132500">
        <ele>29.8</ele>
        <time>2021-05-20T15:52:02Z</time>
      </trkpt>
      <trkpt lat="42.2814350" lon="-8.6132500">
        <ele>29.8</ele>
        <time>2021-05-20T15:52:03Z</time>
      </trkpt>
      <trkpt lat="42.2814350" lon="-8.6132490">
        <ele>29.8</ele>
        <time>2021-05-20T15:52:04Z</time>
      </trkpt>
      <trkpt lat="42.2814350" lon="-8.6132500">
        <ele>29.8</ele>
        <time>2021-05-20T15:52:05Z</time>
      </trkpt>
      <trkpt lat="42.2814340" lon="-8.6132480">
        <ele>29.8</ele>
        <time>2021-05-20T15:52:06Z</time>
      </trkpt>
      <trkpt lat="42.2814340" lon="-8.6132480">
        <ele>29.8</ele>
        <time>2021-05-20T15:52:07Z</time>
      </trkpt>
      <trkpt lat="42.2814320" lon="-8.6132430">
        <ele>29.8</ele>
        <time>2021-05-20T15:52:08Z</time>
      </trkpt>
      <trkpt lat="42.2814250" lon="-8.6132430">
        <ele>29.7</ele>
        <time>2021-05-20T15:52:09Z</time>
      </trkpt>
      <trkpt lat="42.2814250" lon="-8.6132420">
        <ele>29.7</ele>
        <time>2021-05-20T15:52:10Z</time>
      </trkpt>
      <trkpt lat="42.2814200" lon="-8.6132310">
        <ele>29.7</ele>
        <time>2021-05-20T15:52:11Z</time>
      </trkpt>
      <trkpt lat="42.2814180" lon="-8.6132250">
        <ele>29.6</ele>
        <time>2021-05-20T15:52:12Z</time>
      </trkpt>
      <trkpt lat="42.2814120" lon="-8.6132360">
        <ele>29.6</ele>
        <time>2021-05-20T15:52:13Z</time>
      </trkpt>
      <trkpt lat="42.2814120" lon="-8.6132300">
        <ele>29.5</ele>
        <time>2021-05-20T15:52:14Z</time>
      </trkpt>
      <trkpt lat="42.2814090" lon="-8.6132240">
        <ele>29.5</ele>
        <time>2021-05-20T15:52:15Z</time>
      </trkpt>
      <trkpt lat="42.2814100" lon="-8.6132220">
        <ele>29.5</ele>
        <time>2021-05-20T15:52:16Z</time>
      </trkpt>
      <trkpt lat="42.2814140" lon="-8.6132260">
        <ele>29.5</ele>
        <time>2021-05-20T15:52:17Z</time>
      </trkpt>
      <trkpt lat="42.2814130" lon="-8.6132280">
        <ele>29.5</ele>
        <time>2021-05-20T15:52:18Z</time>
      </trkpt>
      <trkpt lat="42.2814170" lon="-8.6132280">
        <ele>29.4</ele>
        <time>2021-05-20T15:52:19Z</time>
      </trkpt>
      <trkpt lat="42.2814170" lon="-8.6132310">
        <ele>29.4</ele>
        <time>2021-05-20T15:52:20Z</time>
      </trkpt>
      <trkpt lat="42.2814200" lon="-8.6132330">
        <ele>29.4</ele>
        <time>2021-05-20T15:52:21Z</time>
      </trkpt>
      <trkpt lat="42.2814200" lon="-8.6132330">
        <ele>29.4</ele>
        <time>2021-05-20T15:52:22Z</time>
      </trkpt>
      <trkpt lat="42.2814180" lon="-8.6132340">
        <ele>29.4</ele>
        <time>2021-05-20T15:52:23Z</time>
      </trkpt>
      <trkpt lat="42.2814170" lon="-8.6132340">
        <ele>29.4</ele>
        <time>2021-05-20T15:52:24Z</time>
      </trkpt>
      <trkpt lat="42.2814160" lon="-8.6132350">
        <ele>29.4</ele>
        <time>2021-05-20T15:52:25Z</time>
      </trkpt>
      <trkpt lat="42.2814160" lon="-8.6132360">
        <ele>29.4</ele>
        <time>2021-05-20T15:52:26Z</time>
      </trkpt>
      <trkpt lat="42.2814160" lon="-8.6132360">
        <ele>29.4</ele>
        <time>2021-05-20T15:52:27Z</time>
      </trkpt>
      <trkpt lat="42.2814190" lon="-8.6132350">
        <ele>29.3</ele>
        <time>2021-05-20T15:52:28Z</time>
      </trkpt>
      <trkpt lat="42.2814160" lon="-8.6132340">
        <ele>29.3</ele>
        <time>2021-05-20T15:52:29Z</time>
      </trkpt>
      <trkpt lat="42.2814170" lon="-8.6132350">
        <ele>29.3</ele>
        <time>2021-05-20T15:52:30Z</time>
      </trkpt>
      <trkpt lat="42.2814170" lon="-8.6132360">
        <ele>29.3</ele>
        <time>2021-05-20T15:52:31Z</time>
      </trkpt>
      <trkpt lat="42.2814180" lon="-8.6132370">
        <ele>29.3</ele>
        <time>2021-05-20T15:52:32Z</time>
      </trkpt>
      <trkpt lat="42.2814190" lon="-8.6132350">
        <ele>29.3</ele>
        <time>2021-05-20T15:52:33Z</time>
      </trkpt>
      <trkpt lat="42.2814190" lon="-8.6132350">
        <ele>29.3</ele>
        <time>2021-05-20T15:52:34Z</time>
      </trkpt>
      <trkpt lat="42.2814180" lon="-8.6132340">
        <ele>29.3</ele>
        <time>2021-05-20T15:52:35Z</time>
      </trkpt>
      <trkpt lat="42.2814150" lon="-8.6132310">
        <ele>29.3</ele>
        <time>2021-05-20T15:52:36Z</time>
      </trkpt>
      <trkpt lat="42.2814160" lon="-8.6132320">
        <ele>29.3</ele>
        <time>2021-05-20T15:52:37Z</time>
      </trkpt>
      <trkpt lat="42.2814130" lon="-8.6132330">
        <ele>29.2</ele>
        <time>2021-05-20T15:52:38Z</time>
      </trkpt>
      <trkpt lat="42.2814150" lon="-8.6132320">
        <ele>29.2</ele>
        <time>2021-05-20T15:52:39Z</time>
      </trkpt>
      <trkpt lat="42.2814210" lon="-8.6132230">
        <ele>29.2</ele>
        <time>2021-05-20T15:52:40Z</time>
      </trkpt>
      <trkpt lat="42.2814200" lon="-8.6132270">
        <ele>29.2</ele>
        <time>2021-05-20T15:52:41Z</time>
      </trkpt>
      <trkpt lat="42.2814080" lon="-8.6132230">
        <ele>29.1</ele>
        <time>2021-05-20T15:52:42Z</time>
      </trkpt>
      <trkpt lat="42.2814020" lon="-8.6132180">
        <ele>29.0</ele>
        <time>2021-05-20T15:52:43Z</time>
      </trkpt>
      <trkpt lat="42.2813950" lon="-8.6132210">
        <ele>29.0</ele>
        <time>2021-05-20T15:52:44Z</time>
      </trkpt>
      <trkpt lat="42.2813820" lon="-8.6132150">
        <ele>28.9</ele>
        <time>2021-05-20T15:52:45Z</time>
      </trkpt>
      <trkpt lat="42.2813630" lon="-8.6132080">
        <ele>28.8</ele>
        <time>2021-05-20T15:52:46Z</time>
      </trkpt>
      <trkpt lat="42.2813540" lon="-8.6132040">
        <ele>28.7</ele>
        <time>2021-05-20T15:52:47Z</time>
      </trkpt>
      <trkpt lat="42.2813460" lon="-8.6132000">
        <ele>28.7</ele>
        <time>2021-05-20T15:52:48Z</time>
      </trkpt>
      <trkpt lat="42.2813300" lon="-8.6131760">
        <ele>28.3</ele>
        <time>2021-05-20T15:52:49Z</time>
      </trkpt>
      <trkpt lat="42.2813230" lon="-8.6131710">
        <ele>28.0</ele>
        <time>2021-05-20T15:52:50Z</time>
      </trkpt>
      <trkpt lat="42.2813170" lon="-8.6131660">
        <ele>27.8</ele>
        <time>2021-05-20T15:52:51Z</time>
      </trkpt>
      <trkpt lat="42.2813050" lon="-8.6131530">
        <ele>27.2</ele>
        <time>2021-05-20T15:52:52Z</time>
      </trkpt>
      <trkpt lat="42.2813030" lon="-8.6131540">
        <ele>27.2</ele>
        <time>2021-05-20T15:52:53Z</time>
      </trkpt>
      <trkpt lat="42.2813010" lon="-8.6131470">
        <ele>27.0</ele>
        <time>2021-05-20T15:52:54Z</time>
      </trkpt>
      <trkpt lat="42.2812930" lon="-8.6131330">
        <ele>26.5</ele>
        <time>2021-05-20T15:52:55Z</time>
      </trkpt>
      <trkpt lat="42.2812860" lon="-8.6131240">
        <ele>26.2</ele>
        <time>2021-05-20T15:52:56Z</time>
      </trkpt>
      <trkpt lat="42.2812850" lon="-8.6131200">
        <ele>26.0</ele>
        <time>2021-05-20T15:52:57Z</time>
      </trkpt>
      <trkpt lat="42.2812870" lon="-8.6131140">
        <ele>25.9</ele>
        <time>2021-05-20T15:52:58Z</time>
      </trkpt>
      <trkpt lat="42.2812810" lon="-8.6131010">
        <ele>25.5</ele>
        <time>2021-05-20T15:52:59Z</time>
      </trkpt>
      <trkpt lat="42.2812760" lon="-8.6130970">
        <ele>25.5</ele>
        <time>2021-05-20T15:53:00Z</time>
      </trkpt>
      <trkpt lat="42.2812790" lon="-8.6130940">
        <ele>25.5</ele>
        <time>2021-05-20T15:53:01Z</time>
      </trkpt>
      <trkpt lat="42.2812740" lon="-8.6130820">
        <ele>25.4</ele>
        <time>2021-05-20T15:53:02Z</time>
      </trkpt>
      <trkpt lat="42.2812730" lon="-8.6130680">
        <ele>25.4</ele>
        <time>2021-05-20T15:53:03Z</time>
      </trkpt>
      <trkpt lat="42.2812710" lon="-8.6130770">
        <ele>25.3</ele>
        <time>2021-05-20T15:53:04Z</time>
      </trkpt>
      <trkpt lat="42.2812670" lon="-8.6130530">
        <ele>25.3</ele>
        <time>2021-05-20T15:53:05Z</time>
      </trkpt>
      <trkpt lat="42.2812670" lon="-8.6130400">
        <ele>25.2</ele>
        <time>2021-05-20T15:53:06Z</time>
      </trkpt>
      <trkpt lat="42.2812600" lon="-8.6130170">
        <ele>25.1</ele>
        <time>2021-05-20T15:53:07Z</time>
      </trkpt>
      <trkpt lat="42.2812630" lon="-8.6129900">
        <ele>25.0</ele>
        <time>2021-05-20T15:53:08Z</time>
      </trkpt>
      <trkpt lat="42.2812600" lon="-8.6129740">
        <ele>25.0</ele>
        <time>2021-05-20T15:53:09Z</time>
      </trkpt>
      <trkpt lat="42.2812550" lon="-8.6129580">
        <ele>24.9</ele>
        <time>2021-05-20T15:53:10Z</time>
      </trkpt>
      <trkpt lat="42.2812480" lon="-8.6129550">
        <ele>24.9</ele>
        <time>2021-05-20T15:53:11Z</time>
      </trkpt>
      <trkpt lat="42.2812450" lon="-8.6129600">
        <ele>24.9</ele>
        <time>2021-05-20T15:53:12Z</time>
      </trkpt>
      <trkpt lat="42.2812470" lon="-8.6129760">
        <ele>24.8</ele>
        <time>2021-05-20T15:53:13Z</time>
      </trkpt>
      <trkpt lat="42.2812440" lon="-8.6129890">
        <ele>24.8</ele>
        <time>2021-05-20T15:53:14Z</time>
      </trkpt>
      <trkpt lat="42.2812360" lon="-8.6129900">
        <ele>24.7</ele>
        <time>2021-05-20T15:53:15Z</time>
      </trkpt>
      <trkpt lat="42.2812280" lon="-8.6129900">
        <ele>24.7</ele>
        <time>2021-05-20T15:53:16Z</time>
      </trkpt>
      <trkpt lat="42.2812120" lon="-8.6129890">
        <ele>24.6</ele>
        <time>2021-05-20T15:53:17Z</time>
      </trkpt>
      <trkpt lat="42.2811980" lon="-8.6129930">
        <ele>24.5</ele>
        <time>2021-05-20T15:53:18Z</time>
      </trkpt>
      <trkpt lat="42.2811910" lon="-8.6130010">
        <ele>24.5</ele>
        <time>2021-05-20T15:53:19Z</time>
      </trkpt>
      <trkpt lat="42.2811720" lon="-8.6130120">
        <ele>24.4</ele>
        <time>2021-05-20T15:53:20Z</time>
      </trkpt>
      <trkpt lat="42.2811430" lon="-8.6130310">
        <ele>24.2</ele>
        <time>2021-05-20T15:53:21Z</time>
      </trkpt>
      <trkpt lat="42.2811170" lon="-8.6130500">
        <ele>24.1</ele>
        <time>2021-05-20T15:53:22Z</time>
      </trkpt>
      <trkpt lat="42.2811080" lon="-8.6130520">
        <ele>24.0</ele>
        <time>2021-05-20T15:53:23Z</time>
      </trkpt>
      <trkpt lat="42.2810900" lon="-8.6130450">
        <ele>23.9</ele>
        <time>2021-05-20T15:53:24Z</time>
      </trkpt>
      <trkpt lat="42.2810770" lon="-8.6130540">
        <ele>23.8</ele>
        <time>2021-05-20T15:53:25Z</time>
      </trkpt>
      <trkpt lat="42.2810650" lon="-8.6130630">
        <ele>23.8</ele>
        <time>2021-05-20T15:53:26Z</time>
      </trkpt>
      <trkpt lat="42.2810490" lon="-8.6130690">
        <ele>23.7</ele>
        <time>2021-05-20T15:53:27Z</time>
      </trkpt>
      <trkpt lat="42.2810200" lon="-8.6130720">
        <ele>23.5</ele>
        <time>2021-05-20T15:53:28Z</time>
      </trkpt>
      <trkpt lat="42.2809980" lon="-8.6130770">
        <ele>23.4</ele>
        <time>2021-05-20T15:53:29Z</time>
      </trkpt>
      <trkpt lat="42.2809900" lon="-8.6130790">
        <ele>23.4</ele>
        <time>2021-05-20T15:53:30Z</time>
      </trkpt>
      <trkpt lat="42.2809820" lon="-8.6130800">
        <ele>23.3</ele>
        <time>2021-05-20T15:53:31Z</time>
      </trkpt>
      <trkpt lat="42.2809690" lon="-8.6130850">
        <ele>23.3</ele>
        <time>2021-05-20T15:53:32Z</time>
      </trkpt>
      <trkpt lat="42.2809510" lon="-8.6130920">
        <ele>23.2</ele>
        <time>2021-05-20T15:53:33Z</time>
      </trkpt>
      <trkpt lat="42.2809360" lon="-8.6130870">
        <ele>23.1</ele>
        <time>2021-05-20T15:53:34Z</time>
      </trkpt>
      <trkpt lat="42.2809200" lon="-8.6130770">
        <ele>23.0</ele>
        <time>2021-05-20T15:53:35Z</time>
      </trkpt>
      <trkpt lat="42.2809010" lon="-8.6130660">
        <ele>22.8</ele>
        <time>2021-05-20T15:53:36Z</time>
      </trkpt>
      <trkpt lat="42.2808930" lon="-8.6130640">
        <ele>22.8</ele>
        <time>2021-05-20T15:53:37Z</time>
      </trkpt>
      <trkpt lat="42.2808840" lon="-8.6130630">
        <ele>22.7</ele>
        <time>2021-05-20T15:53:38Z</time>
      </trkpt>
      <trkpt lat="42.2808540" lon="-8.6130540">
        <ele>22.5</ele>
        <time>2021-05-20T15:53:39Z</time>
      </trkpt>
      <trkpt lat="42.2808460" lon="-8.6130520">
        <ele>22.5</ele>
        <time>2021-05-20T15:53:40Z</time>
      </trkpt>
      <trkpt lat="42.2808330" lon="-8.6130500">
        <ele>22.4</ele>
        <time>2021-05-20T15:53:41Z</time>
      </trkpt>
      <trkpt lat="42.2808190" lon="-8.6130450">
        <ele>22.3</ele>
        <time>2021-05-20T15:53:42Z</time>
      </trkpt>
      <trkpt lat="42.2808110" lon="-8.6130410">
        <ele>22.2</ele>
        <time>2021-05-20T15:53:43Z</time>
      </trkpt>
      <trkpt lat="42.2807850" lon="-8.6130410">
        <ele>22.0</ele>
        <time>2021-05-20T15:53:44Z</time>
      </trkpt>
      <trkpt lat="42.2807680" lon="-8.6130320">
        <ele>21.9</ele>
        <time>2021-05-20T15:53:45Z</time>
      </trkpt>
      <trkpt lat="42.2807580" lon="-8.6130260">
        <ele>21.8</ele>
        <time>2021-05-20T15:53:46Z</time>
      </trkpt>
      <trkpt lat="42.2807480" lon="-8.6130190">
        <ele>21.8</ele>
        <time>2021-05-20T15:53:47Z</time>
      </trkpt>
      <trkpt lat="42.2807370" lon="-8.6129990">
        <ele>21.6</ele>
        <time>2021-05-20T15:53:48Z</time>
      </trkpt>
      <trkpt lat="42.2807320" lon="-8.6129880">
        <ele>21.6</ele>
        <time>2021-05-20T15:53:49Z</time>
      </trkpt>
      <trkpt lat="42.2807280" lon="-8.6129770">
        <ele>21.5</ele>
        <time>2021-05-20T15:53:50Z</time>
      </trkpt>
      <trkpt lat="42.2807230" lon="-8.6129670">
        <ele>21.4</ele>
        <time>2021-05-20T15:53:51Z</time>
      </trkpt>
      <trkpt lat="42.2807140" lon="-8.6129600">
        <ele>21.4</ele>
        <time>2021-05-20T15:53:52Z</time>
      </trkpt>
      <trkpt lat="42.2807000" lon="-8.6129540">
        <ele>21.3</ele>
        <time>2021-05-20T15:53:53Z</time>
      </trkpt>
      <trkpt lat="42.2806820" lon="-8.6129380">
        <ele>21.1</ele>
        <time>2021-05-20T15:53:54Z</time>
      </trkpt>
      <trkpt lat="42.2806770" lon="-8.6129290">
        <ele>21.1</ele>
        <time>2021-05-20T15:53:55Z</time>
      </trkpt>
      <trkpt lat="42.2806710" lon="-8.6129210">
        <ele>21.0</ele>
        <time>2021-05-20T15:53:56Z</time>
      </trkpt>
      <trkpt lat="42.2806650" lon="-8.6129120">
        <ele>20.9</ele>
        <time>2021-05-20T15:53:57Z</time>
      </trkpt>
      <trkpt lat="42.2806510" lon="-8.6128960">
        <ele>20.9</ele>
        <time>2021-05-20T15:53:58Z</time>
      </trkpt>
      <trkpt lat="42.2806420" lon="-8.6128910">
        <ele>20.8</ele>
        <time>2021-05-20T15:53:59Z</time>
      </trkpt>
      <trkpt lat="42.2806340" lon="-8.6128860">
        <ele>20.8</ele>
        <time>2021-05-20T15:54:00Z</time>
      </trkpt>
      <trkpt lat="42.2806140" lon="-8.6128760">
        <ele>20.6</ele>
        <time>2021-05-20T15:54:01Z</time>
      </trkpt>
      <trkpt lat="42.2806050" lon="-8.6128720">
        <ele>20.6</ele>
        <time>2021-05-20T15:54:02Z</time>
      </trkpt>
      <trkpt lat="42.2805960" lon="-8.6128670">
        <ele>20.5</ele>
        <time>2021-05-20T15:54:03Z</time>
      </trkpt>
      <trkpt lat="42.2805750" lon="-8.6128620">
        <ele>20.4</ele>
        <time>2021-05-20T15:54:04Z</time>
      </trkpt>
      <trkpt lat="42.2805660" lon="-8.6128610">
        <ele>20.4</ele>
        <time>2021-05-20T15:54:05Z</time>
      </trkpt>
      <trkpt lat="42.2805570" lon="-8.6128610">
        <ele>20.3</ele>
        <time>2021-05-20T15:54:06Z</time>
      </trkpt>
      <trkpt lat="42.2805420" lon="-8.6128590">
        <ele>20.3</ele>
        <time>2021-05-20T15:54:07Z</time>
      </trkpt>
      <trkpt lat="42.2805370" lon="-8.6128560">
        <ele>20.2</ele>
        <time>2021-05-20T15:54:08Z</time>
      </trkpt>
      <trkpt lat="42.2805210" lon="-8.6128530">
        <ele>20.1</ele>
        <time>2021-05-20T15:54:09Z</time>
      </trkpt>
      <trkpt lat="42.2805080" lon="-8.6128470">
        <ele>20.1</ele>
        <time>2021-05-20T15:54:10Z</time>
      </trkpt>
      <trkpt lat="42.2804910" lon="-8.6128360">
        <ele>20.0</ele>
        <time>2021-05-20T15:54:11Z</time>
      </trkpt>
      <trkpt lat="42.2804810" lon="-8.6128300">
        <ele>19.9</ele>
        <time>2021-05-20T15:54:12Z</time>
      </trkpt>
      <trkpt lat="42.2804680" lon="-8.6128250">
        <ele>19.8</ele>
        <time>2021-05-20T15:54:13Z</time>
      </trkpt>
      <trkpt lat="42.2804590" lon="-8.6128240">
        <ele>19.8</ele>
        <time>2021-05-20T15:54:14Z</time>
      </trkpt>
      <trkpt lat="42.2804450" lon="-8.6128210">
        <ele>19.7</ele>
        <time>2021-05-20T15:54:15Z</time>
      </trkpt>
      <trkpt lat="42.2804350" lon="-8.6128170">
        <ele>19.7</ele>
        <time>2021-05-20T15:54:16Z</time>
      </trkpt>
      <trkpt lat="42.2804240" lon="-8.6128170">
        <ele>19.6</ele>
        <time>2021-05-20T15:54:17Z</time>
      </trkpt>
      <trkpt lat="42.2804050" lon="-8.6128190">
        <ele>19.5</ele>
        <time>2021-05-20T15:54:18Z</time>
      </trkpt>
      <trkpt lat="42.2803910" lon="-8.6128180">
        <ele>19.4</ele>
        <time>2021-05-20T15:54:19Z</time>
      </trkpt>
      <trkpt lat="42.2803790" lon="-8.6128100">
        <ele>19.4</ele>
        <time>2021-05-20T15:54:20Z</time>
      </trkpt>
      <trkpt lat="42.2803740" lon="-8.6128000">
        <ele>19.3</ele>
        <time>2021-05-20T15:54:21Z</time>
      </trkpt>
      <trkpt lat="42.2803640" lon="-8.6127950">
        <ele>19.3</ele>
        <time>2021-05-20T15:54:22Z</time>
      </trkpt>
      <trkpt lat="42.2803550" lon="-8.6127820">
        <ele>19.2</ele>
        <time>2021-05-20T15:54:23Z</time>
      </trkpt>
      <trkpt lat="42.2803480" lon="-8.6127720">
        <ele>19.2</ele>
        <time>2021-05-20T15:54:24Z</time>
      </trkpt>
      <trkpt lat="42.2803500" lon="-8.6127560">
        <ele>18.5</ele>
        <time>2021-05-20T15:54:25Z</time>
      </trkpt>
      <trkpt lat="42.2803500" lon="-8.6127440">
        <ele>18.5</ele>
        <time>2021-05-20T15:54:26Z</time>
      </trkpt>
      <trkpt lat="42.2803520" lon="-8.6127370">
        <ele>18.5</ele>
        <time>2021-05-20T15:54:27Z</time>
      </trkpt>
      <trkpt lat="42.2803500" lon="-8.6127200">
        <ele>17.9</ele>
        <time>2021-05-20T15:54:28Z</time>
      </trkpt>
      <trkpt lat="42.2803440" lon="-8.6127180">
        <ele>17.9</ele>
        <time>2021-05-20T15:54:29Z</time>
      </trkpt>
      <trkpt lat="42.2803420" lon="-8.6127080">
        <ele>17.9</ele>
        <time>2021-05-20T15:54:30Z</time>
      </trkpt>
      <trkpt lat="42.2803420" lon="-8.6127010">
        <ele>17.9</ele>
        <time>2021-05-20T15:54:31Z</time>
      </trkpt>
      <trkpt lat="42.2803410" lon="-8.6126940">
        <ele>17.9</ele>
        <time>2021-05-20T15:54:32Z</time>
      </trkpt>
      <trkpt lat="42.2803410" lon="-8.6126880">
        <ele>17.8</ele>
        <time>2021-05-20T15:54:33Z</time>
      </trkpt>
      <trkpt lat="42.2803400" lon="-8.6126810">
        <ele>17.8</ele>
        <time>2021-05-20T15:54:34Z</time>
      </trkpt>
      <trkpt lat="42.2803400" lon="-8.6126740">
        <ele>17.3</ele>
        <time>2021-05-20T15:54:35Z</time>
      </trkpt>
      <trkpt lat="42.2803390" lon="-8.6126670">
        <ele>17.3</ele>
        <time>2021-05-20T15:54:36Z</time>
      </trkpt>
      <trkpt lat="42.2803340" lon="-8.6126550">
        <ele>17.2</ele>
        <time>2021-05-20T15:54:37Z</time>
      </trkpt>
      <trkpt lat="42.2803340" lon="-8.6126480">
        <ele>17.2</ele>
        <time>2021-05-20T15:54:38Z</time>
      </trkpt>
      <trkpt lat="42.2803330" lon="-8.6126400">
        <ele>17.2</ele>
        <time>2021-05-20T15:54:39Z</time>
      </trkpt>
      <trkpt lat="42.2803320" lon="-8.6126330">
        <ele>16.7</ele>
        <time>2021-05-20T15:54:40Z</time>
      </trkpt>
      <trkpt lat="42.2803320" lon="-8.6126250">
        <ele>16.7</ele>
        <time>2021-05-20T15:54:41Z</time>
      </trkpt>
      <trkpt lat="42.2803310" lon="-8.6126180">
        <ele>16.7</ele>
        <time>2021-05-20T15:54:42Z</time>
      </trkpt>
      <trkpt lat="42.2803310" lon="-8.6126070">
        <ele>16.7</ele>
        <time>2021-05-20T15:54:43Z</time>
      </trkpt>
      <trkpt lat="42.2803380" lon="-8.6125990">
        <ele>16.7</ele>
        <time>2021-05-20T15:54:44Z</time>
      </trkpt>
      <trkpt lat="42.2803370" lon="-8.6125930">
        <ele>16.2</ele>
        <time>2021-05-20T15:54:45Z</time>
      </trkpt>
      <trkpt lat="42.2803400" lon="-8.6125840">
        <ele>16.2</ele>
        <time>2021-05-20T15:54:46Z</time>
      </trkpt>
      <trkpt lat="42.2803390" lon="-8.6125800">
        <ele>16.2</ele>
        <time>2021-05-20T15:54:47Z</time>
      </trkpt>
      <trkpt lat="42.2803430" lon="-8.6125650">
        <ele>16.2</ele>
        <time>2021-05-20T15:54:48Z</time>
      </trkpt>
      <trkpt lat="42.2803430" lon="-8.6125510">
        <ele>15.8</ele>
        <time>2021-05-20T15:54:49Z</time>
      </trkpt>
      <trkpt lat="42.2803400" lon="-8.6125410">
        <ele>15.8</ele>
        <time>2021-05-20T15:54:50Z</time>
      </trkpt>
      <trkpt lat="42.2803370" lon="-8.6125350">
        <ele>15.7</ele>
        <time>2021-05-20T15:54:51Z</time>
      </trkpt>
      <trkpt lat="42.2803340" lon="-8.6125280">
        <ele>15.7</ele>
        <time>2021-05-20T15:54:52Z</time>
      </trkpt>
      <trkpt lat="42.2803310" lon="-8.6125120">
        <ele>15.7</ele>
        <time>2021-05-20T15:54:53Z</time>
      </trkpt>
      <trkpt lat="42.2803270" lon="-8.6125030">
        <ele>15.3</ele>
        <time>2021-05-20T15:54:54Z</time>
      </trkpt>
      <trkpt lat="42.2803300" lon="-8.6124830">
        <ele>15.3</ele>
        <time>2021-05-20T15:54:55Z</time>
      </trkpt>
      <trkpt lat="42.2803290" lon="-8.6124630">
        <ele>14.9</ele>
        <time>2021-05-20T15:54:56Z</time>
      </trkpt>
      <trkpt lat="42.2803290" lon="-8.6124540">
        <ele>14.9</ele>
        <time>2021-05-20T15:54:57Z</time>
      </trkpt>
      <trkpt lat="42.2803230" lon="-8.6124420">
        <ele>14.7</ele>
        <time>2021-05-20T15:54:58Z</time>
      </trkpt>
      <trkpt lat="42.2803180" lon="-8.6124310">
        <ele>14.7</ele>
        <time>2021-05-20T15:54:59Z</time>
      </trkpt>
      <trkpt lat="42.2803120" lon="-8.6124200">
        <ele>14.4</ele>
        <time>2021-05-20T15:55:00Z</time>
      </trkpt>
      <trkpt lat="42.2803060" lon="-8.6124000">
        <ele>14.3</ele>
        <time>2021-05-20T15:55:01Z</time>
      </trkpt>
      <trkpt lat="42.2803100" lon="-8.6123930">
        <ele>14.3</ele>
        <time>2021-05-20T15:55:02Z</time>
      </trkpt>
      <trkpt lat="42.2803150" lon="-8.6123720">
        <ele>14.0</ele>
        <time>2021-05-20T15:55:03Z</time>
      </trkpt>
      <trkpt lat="42.2803160" lon="-8.6123500">
        <ele>14.0</ele>
        <time>2021-05-20T15:55:04Z</time>
      </trkpt>
      <trkpt lat="42.2803140" lon="-8.6123260">
        <ele>13.6</ele>
        <time>2021-05-20T15:55:05Z</time>
      </trkpt>
      <trkpt lat="42.2803130" lon="-8.6123160">
        <ele>13.6</ele>
        <time>2021-05-20T15:55:06Z</time>
      </trkpt>
      <trkpt lat="42.2803110" lon="-8.6122960">
        <ele>13.6</ele>
        <time>2021-05-20T15:55:07Z</time>
      </trkpt>
      <trkpt lat="42.2803100" lon="-8.6122820">
        <ele>13.2</ele>
        <time>2021-05-20T15:55:08Z</time>
      </trkpt>
      <trkpt lat="42.2803020" lon="-8.6122600">
        <ele>13.2</ele>
        <time>2021-05-20T15:55:09Z</time>
      </trkpt>
      <trkpt lat="42.2803020" lon="-8.6122390">
        <ele>12.9</ele>
        <time>2021-05-20T15:55:10Z</time>
      </trkpt>
      <trkpt lat="42.2803020" lon="-8.6122140">
        <ele>12.9</ele>
        <time>2021-05-20T15:55:11Z</time>
      </trkpt>
      <trkpt lat="42.2803050" lon="-8.6122040">
        <ele>12.6</ele>
        <time>2021-05-20T15:55:12Z</time>
      </trkpt>
      <trkpt lat="42.2803060" lon="-8.6121960">
        <ele>12.6</ele>
        <time>2021-05-20T15:55:13Z</time>
      </trkpt>
      <trkpt lat="42.2803070" lon="-8.6121880">
        <ele>12.6</ele>
        <time>2021-05-20T15:55:14Z</time>
      </trkpt>
      <trkpt lat="42.2803100" lon="-8.6121860">
        <ele>12.6</ele>
        <time>2021-05-20T15:55:15Z</time>
      </trkpt>
      <trkpt lat="42.2803100" lon="-8.6121910">
        <ele>12.6</ele>
        <time>2021-05-20T15:55:16Z</time>
      </trkpt>
      <trkpt lat="42.2803190" lon="-8.6121950">
        <ele>12.6</ele>
        <time>2021-05-20T15:55:17Z</time>
      </trkpt>
      <trkpt lat="42.2803240" lon="-8.6122080">
        <ele>12.6</ele>
        <time>2021-05-20T15:55:18Z</time>
      </trkpt>
      <trkpt lat="42.2803320" lon="-8.6122070">
        <ele>12.6</ele>
        <time>2021-05-20T15:55:19Z</time>
      </trkpt>
      <trkpt lat="42.2803420" lon="-8.6122010">
        <ele>12.6</ele>
        <time>2021-05-20T15:55:20Z</time>
      </trkpt>
      <trkpt lat="42.2803500" lon="-8.6121990">
        <ele>12.6</ele>
        <time>2021-05-20T15:55:21Z</time>
      </trkpt>
      <trkpt lat="42.2803480" lon="-8.6122060">
        <ele>12.6</ele>
        <time>2021-05-20T15:55:22Z</time>
      </trkpt>
      <trkpt lat="42.2803430" lon="-8.6121940">
        <ele>12.6</ele>
        <time>2021-05-20T15:55:23Z</time>
      </trkpt>
      <trkpt lat="42.2803470" lon="-8.6121810">
        <ele>12.6</ele>
        <time>2021-05-20T15:55:24Z</time>
      </trkpt>
      <trkpt lat="42.2803470" lon="-8.6121700">
        <ele>12.6</ele>
        <time>2021-05-20T15:55:25Z</time>
      </trkpt>
      <trkpt lat="42.2803610" lon="-8.6121270">
        <ele>12.4</ele>
        <time>2021-05-20T15:55:26Z</time>
      </trkpt>
      <trkpt lat="42.2803650" lon="-8.6121150">
        <ele>12.1</ele>
        <time>2021-05-20T15:55:27Z</time>
      </trkpt>
      <trkpt lat="42.2803840" lon="-8.6120830">
        <ele>12.1</ele>
        <time>2021-05-20T15:55:28Z</time>
      </trkpt>
      <trkpt lat="42.2803890" lon="-8.6120730">
        <ele>11.9</ele>
        <time>2021-05-20T15:55:29Z</time>
      </trkpt>
      <trkpt lat="42.2803960" lon="-8.6120500">
        <ele>11.9</ele>
        <time>2021-05-20T15:55:30Z</time>
      </trkpt>
      <trkpt lat="42.2803960" lon="-8.6120320">
        <ele>11.7</ele>
        <time>2021-05-20T15:55:31Z</time>
      </trkpt>
      <trkpt lat="42.2803940" lon="-8.6120170">
        <ele>11.7</ele>
        <time>2021-05-20T15:55:32Z</time>
      </trkpt>
      <trkpt lat="42.2803940" lon="-8.6119950">
        <ele>11.7</ele>
        <time>2021-05-20T15:55:33Z</time>
      </trkpt>
      <trkpt lat="42.2803960" lon="-8.6119870">
        <ele>11.5</ele>
        <time>2021-05-20T15:55:34Z</time>
      </trkpt>
      <trkpt lat="42.2803960" lon="-8.6119660">
        <ele>11.5</ele>
        <time>2021-05-20T15:55:35Z</time>
      </trkpt>
      <trkpt lat="42.2804000" lon="-8.6119530">
        <ele>11.5</ele>
        <time>2021-05-20T15:55:36Z</time>
      </trkpt>
      <trkpt lat="42.2804070" lon="-8.6119360">
        <ele>11.2</ele>
        <time>2021-05-20T15:55:37Z</time>
      </trkpt>
      <trkpt lat="42.2804100" lon="-8.6119180">
        <ele>11.2</ele>
        <time>2021-05-20T15:55:38Z</time>
      </trkpt>
      <trkpt lat="42.2804120" lon="-8.6118860">
        <ele>11.0</ele>
        <time>2021-05-20T15:55:39Z</time>
      </trkpt>
      <trkpt lat="42.2804150" lon="-8.6118750">
        <ele>11.0</ele>
        <time>2021-05-20T15:55:40Z</time>
      </trkpt>
      <trkpt lat="42.2804180" lon="-8.6118650">
        <ele>10.7</ele>
        <time>2021-05-20T15:55:41Z</time>
      </trkpt>
      <trkpt lat="42.2804210" lon="-8.6118330">
        <ele>10.7</ele>
        <time>2021-05-20T15:55:42Z</time>
      </trkpt>
      <trkpt lat="42.2804200" lon="-8.6118220">
        <ele>10.3</ele>
        <time>2021-05-20T15:55:43Z</time>
      </trkpt>
      <trkpt lat="42.2804190" lon="-8.6118110">
        <ele>10.3</ele>
        <time>2021-05-20T15:55:44Z</time>
      </trkpt>
      <trkpt lat="42.2804190" lon="-8.6117850">
        <ele>10.3</ele>
        <time>2021-05-20T15:55:45Z</time>
      </trkpt>
      <trkpt lat="42.2804190" lon="-8.6117720">
        <ele>10.0</ele>
        <time>2021-05-20T15:55:46Z</time>
      </trkpt>
      <trkpt lat="42.2804200" lon="-8.6117590">
        <ele>10.0</ele>
        <time>2021-05-20T15:55:47Z</time>
      </trkpt>
      <trkpt lat="42.2804180" lon="-8.6117460">
        <ele>10.0</ele>
        <time>2021-05-20T15:55:48Z</time>
      </trkpt>
      <trkpt lat="42.2804250" lon="-8.6117330">
        <ele>9.7</ele>
        <time>2021-05-20T15:55:49Z</time>
      </trkpt>
      <trkpt lat="42.2804210" lon="-8.6117200">
        <ele>9.7</ele>
        <time>2021-05-20T15:55:50Z</time>
      </trkpt>
      <trkpt lat="42.2804170" lon="-8.6117070">
        <ele>9.6</ele>
        <time>2021-05-20T15:55:51Z</time>
      </trkpt>
      <trkpt lat="42.2804090" lon="-8.6116930">
        <ele>9.2</ele>
        <time>2021-05-20T15:55:52Z</time>
      </trkpt>
      <trkpt lat="42.2804110" lon="-8.6116740">
        <ele>9.2</ele>
        <time>2021-05-20T15:55:53Z</time>
      </trkpt>
      <trkpt lat="42.2804130" lon="-8.6116670">
        <ele>9.2</ele>
        <time>2021-05-20T15:55:54Z</time>
      </trkpt>
      <trkpt lat="42.2804130" lon="-8.6116610">
        <ele>9.2</ele>
        <time>2021-05-20T15:55:55Z</time>
      </trkpt>
      <trkpt lat="42.2803980" lon="-8.6116400">
        <ele>8.9</ele>
        <time>2021-05-20T15:55:56Z</time>
      </trkpt>
      <trkpt lat="42.2803860" lon="-8.6116220">
        <ele>8.8</ele>
        <time>2021-05-20T15:55:57Z</time>
      </trkpt>
      <trkpt lat="42.2803830" lon="-8.6116170">
        <ele>8.7</ele>
        <time>2021-05-20T15:55:58Z</time>
      </trkpt>
      <trkpt lat="42.2803820" lon="-8.6116130">
        <ele>8.7</ele>
        <time>2021-05-20T15:55:59Z</time>
      </trkpt>
      <trkpt lat="42.2803860" lon="-8.6116030">
        <ele>8.4</ele>
        <time>2021-05-20T15:56:00Z</time>
      </trkpt>
      <trkpt lat="42.2803870" lon="-8.6115870">
        <ele>8.4</ele>
        <time>2021-05-20T15:56:01Z</time>
      </trkpt>
      <trkpt lat="42.2803930" lon="-8.6115760">
        <ele>8.5</ele>
        <time>2021-05-20T15:56:02Z</time>
      </trkpt>
      <trkpt lat="42.2803960" lon="-8.6115730">
        <ele>8.5</ele>
        <time>2021-05-20T15:56:03Z</time>
      </trkpt>
      <trkpt lat="42.2803920" lon="-8.6115560">
        <ele>8.2</ele>
        <time>2021-05-20T15:56:04Z</time>
      </trkpt>
      <trkpt lat="42.2803960" lon="-8.6115480">
        <ele>8.2</ele>
        <time>2021-05-20T15:56:05Z</time>
      </trkpt>
      <trkpt lat="42.2803950" lon="-8.6115380">
        <ele>8.2</ele>
        <time>2021-05-20T15:56:06Z</time>
      </trkpt>
      <trkpt lat="42.2803990" lon="-8.6115370">
        <ele>8.2</ele>
        <time>2021-05-20T15:56:07Z</time>
      </trkpt>
      <trkpt lat="42.2803940" lon="-8.6115120">
        <ele>8.0</ele>
        <time>2021-05-20T15:56:08Z</time>
      </trkpt>
      <trkpt lat="42.2803900" lon="-8.6114940">
        <ele>8.0</ele>
        <time>2021-05-20T15:56:09Z</time>
      </trkpt>
      <trkpt lat="42.2803930" lon="-8.6114900">
        <ele>8.0</ele>
        <time>2021-05-20T15:56:10Z</time>
      </trkpt>
      <trkpt lat="42.2803950" lon="-8.6114650">
        <ele>7.8</ele>
        <time>2021-05-20T15:56:11Z</time>
      </trkpt>
      <trkpt lat="42.2804180" lon="-8.6114460">
        <ele>7.8</ele>
        <time>2021-05-20T15:56:12Z</time>
      </trkpt>
      <trkpt lat="42.2804250" lon="-8.6114370">
        <ele>7.9</ele>
        <time>2021-05-20T15:56:13Z</time>
      </trkpt>
      <trkpt lat="42.2804320" lon="-8.6114210">
        <ele>7.8</ele>
        <time>2021-05-20T15:56:14Z</time>
      </trkpt>
      <trkpt lat="42.2804420" lon="-8.6114170">
        <ele>7.8</ele>
        <time>2021-05-20T15:56:15Z</time>
      </trkpt>
      <trkpt lat="42.2804420" lon="-8.6114130">
        <ele>7.8</ele>
        <time>2021-05-20T15:56:16Z</time>
      </trkpt>
      <trkpt lat="42.2804450" lon="-8.6114010">
        <ele>7.8</ele>
        <time>2021-05-20T15:56:17Z</time>
      </trkpt>
      <trkpt lat="42.2804570" lon="-8.6113950">
        <ele>7.9</ele>
        <time>2021-05-20T15:56:18Z</time>
      </trkpt>
      <trkpt lat="42.2804610" lon="-8.6113890">
        <ele>7.8</ele>
        <time>2021-05-20T15:56:19Z</time>
      </trkpt>
      <trkpt lat="42.2804680" lon="-8.6113750">
        <ele>7.8</ele>
        <time>2021-05-20T15:56:20Z</time>
      </trkpt>
      <trkpt lat="42.2804680" lon="-8.6113570">
        <ele>7.8</ele>
        <time>2021-05-20T15:56:21Z</time>
      </trkpt>
      <trkpt lat="42.2804700" lon="-8.6113420">
        <ele>7.8</ele>
        <time>2021-05-20T15:56:22Z</time>
      </trkpt>
      <trkpt lat="42.2804700" lon="-8.6113260">
        <ele>7.8</ele>
        <time>2021-05-20T15:56:23Z</time>
      </trkpt>
      <trkpt lat="42.2804560" lon="-8.6112990">
        <ele>7.8</ele>
        <time>2021-05-20T15:56:24Z</time>
      </trkpt>
      <trkpt lat="42.2804460" lon="-8.6112860">
        <ele>7.7</ele>
        <time>2021-05-20T15:56:25Z</time>
      </trkpt>
      <trkpt lat="42.2804350" lon="-8.6112730">
        <ele>7.7</ele>
        <time>2021-05-20T15:56:26Z</time>
      </trkpt>
      <trkpt lat="42.2804270" lon="-8.6112530">
        <ele>7.8</ele>
        <time>2021-05-20T15:56:27Z</time>
      </trkpt>
      <trkpt lat="42.2804290" lon="-8.6112480">
        <ele>7.8</ele>
        <time>2021-05-20T15:56:28Z</time>
      </trkpt>
      <trkpt lat="42.2804320" lon="-8.6112450">
        <ele>7.8</ele>
        <time>2021-05-20T15:56:29Z</time>
      </trkpt>
      <trkpt lat="42.2804340" lon="-8.6112420">
        <ele>7.8</ele>
        <time>2021-05-20T15:56:30Z</time>
      </trkpt>
      <trkpt lat="42.2804360" lon="-8.6112390">
        <ele>7.8</ele>
        <time>2021-05-20T15:56:31Z</time>
      </trkpt>
      <trkpt lat="42.2804390" lon="-8.6112360">
        <ele>7.8</ele>
        <time>2021-05-20T15:56:32Z</time>
      </trkpt>
      <trkpt lat="42.2804410" lon="-8.6112330">
        <ele>7.8</ele>
        <time>2021-05-20T15:56:33Z</time>
      </trkpt>
      <trkpt lat="42.2804440" lon="-8.6112300">
        <ele>7.8</ele>
        <time>2021-05-20T15:56:34Z</time>
      </trkpt>
      <trkpt lat="42.2804460" lon="-8.6112270">
        <ele>7.8</ele>
        <time>2021-05-20T15:56:35Z</time>
      </trkpt>
      <trkpt lat="42.2804480" lon="-8.6112240">
        <ele>7.8</ele>
        <time>2021-05-20T15:56:36Z</time>
      </trkpt>
      <trkpt lat="42.2804510" lon="-8.6112210">
        <ele>7.9</ele>
        <time>2021-05-20T15:56:37Z</time>
      </trkpt>
      <trkpt lat="42.2804530" lon="-8.6112180">
        <ele>7.9</ele>
        <time>2021-05-20T15:56:38Z</time>
      </trkpt>
      <trkpt lat="42.2804550" lon="-8.6112150">
        <ele>7.9</ele>
        <time>2021-05-20T15:56:39Z</time>
      </trkpt>
      <trkpt lat="42.2804580" lon="-8.6112120">
        <ele>7.9</ele>
        <time>2021-05-20T15:56:40Z</time>
      </trkpt>
      <trkpt lat="42.2804600" lon="-8.6112090">
        <ele>7.9</ele>
        <time>2021-05-20T15:56:41Z</time>
      </trkpt>
      <trkpt lat="42.2804650" lon="-8.6112020">
        <ele>7.9</ele>
        <time>2021-05-20T15:56:42Z</time>
      </trkpt>
      <trkpt lat="42.2804680" lon="-8.6111940">
        <ele>7.9</ele>
        <time>2021-05-20T15:56:43Z</time>
      </trkpt>
      <trkpt lat="42.2804700" lon="-8.6111860">
        <ele>7.9</ele>
        <time>2021-05-20T15:56:44Z</time>
      </trkpt>
      <trkpt lat="42.2804780" lon="-8.6111800">
        <ele>7.9</ele>
        <time>2021-05-20T15:56:45Z</time>
      </trkpt>
      <trkpt lat="42.2804870" lon="-8.6111720">
        <ele>8.0</ele>
        <time>2021-05-20T15:56:46Z</time>
      </trkpt>
      <trkpt lat="42.2804940" lon="-8.6111670">
        <ele>8.0</ele>
        <time>2021-05-20T15:56:47Z</time>
      </trkpt>
      <trkpt lat="42.2805070" lon="-8.6111650">
        <ele>8.0</ele>
        <time>2021-05-20T15:56:48Z</time>
      </trkpt>
      <trkpt lat="42.2805190" lon="-8.6111600">
        <ele>8.0</ele>
        <time>2021-05-20T15:56:49Z</time>
      </trkpt>
      <trkpt lat="42.2805250" lon="-8.6111610">
        <ele>8.0</ele>
        <time>2021-05-20T15:56:50Z</time>
      </trkpt>
      <trkpt lat="42.2805420" lon="-8.6111530">
        <ele>8.0</ele>
        <time>2021-05-20T15:56:51Z</time>
      </trkpt>
      <trkpt lat="42.2805480" lon="-8.6111470">
        <ele>8.0</ele>
        <time>2021-05-20T15:56:52Z</time>
      </trkpt>
      <trkpt lat="42.2805590" lon="-8.6111520">
        <ele>8.0</ele>
        <time>2021-05-20T15:56:53Z</time>
      </trkpt>
      <trkpt lat="42.2805690" lon="-8.6111510">
        <ele>8.0</ele>
        <time>2021-05-20T15:56:54Z</time>
      </trkpt>
      <trkpt lat="42.2805800" lon="-8.6111520">
        <ele>8.1</ele>
        <time>2021-05-20T15:56:55Z</time>
      </trkpt>
      <trkpt lat="42.2805840" lon="-8.6111470">
        <ele>8.1</ele>
        <time>2021-05-20T15:56:56Z</time>
      </trkpt>
      <trkpt lat="42.2805850" lon="-8.6111450">
        <ele>8.1</ele>
        <time>2021-05-20T15:56:57Z</time>
      </trkpt>
      <trkpt lat="42.2805810" lon="-8.6111470">
        <ele>8.0</ele>
        <time>2021-05-20T15:56:58Z</time>
      </trkpt>
      <trkpt lat="42.2805840" lon="-8.6111520">
        <ele>8.0</ele>
        <time>2021-05-20T15:56:59Z</time>
      </trkpt>
      <trkpt lat="42.2805970" lon="-8.6111490">
        <ele>8.0</ele>
        <time>2021-05-20T15:57:00Z</time>
      </trkpt>
      <trkpt lat="42.2806050" lon="-8.6111330">
        <ele>8.1</ele>
        <time>2021-05-20T15:57:01Z</time>
      </trkpt>
      <trkpt lat="42.2806160" lon="-8.6111210">
        <ele>8.2</ele>
        <time>2021-05-20T15:57:02Z</time>
      </trkpt>
      <trkpt lat="42.2806460" lon="-8.6110930">
        <ele>8.2</ele>
        <time>2021-05-20T15:57:03Z</time>
      </trkpt>
      <trkpt lat="42.2806540" lon="-8.6110840">
        <ele>8.3</ele>
        <time>2021-05-20T15:57:04Z</time>
      </trkpt>
      <trkpt lat="42.2806600" lon="-8.6110700">
        <ele>8.3</ele>
        <time>2021-05-20T15:57:05Z</time>
      </trkpt>
      <trkpt lat="42.2806580" lon="-8.6110710">
        <ele>8.3</ele>
        <time>2021-05-20T15:57:06Z</time>
      </trkpt>
      <trkpt lat="42.2806650" lon="-8.6110670">
        <ele>8.3</ele>
        <time>2021-05-20T15:57:07Z</time>
      </trkpt>
      <trkpt lat="42.2806650" lon="-8.6110630">
        <ele>8.2</ele>
        <time>2021-05-20T15:57:08Z</time>
      </trkpt>
      <trkpt lat="42.2806660" lon="-8.6110570">
        <ele>8.2</ele>
        <time>2021-05-20T15:57:09Z</time>
      </trkpt>
      <trkpt lat="42.2806690" lon="-8.6110530">
        <ele>8.2</ele>
        <time>2021-05-20T15:57:10Z</time>
      </trkpt>
      <trkpt lat="42.2806770" lon="-8.6110540">
        <ele>8.3</ele>
        <time>2021-05-20T15:57:11Z</time>
      </trkpt>
      <trkpt lat="42.2806850" lon="-8.6110520">
        <ele>8.2</ele>
        <time>2021-05-20T15:57:12Z</time>
      </trkpt>
      <trkpt lat="42.2806880" lon="-8.6110570">
        <ele>8.2</ele>
        <time>2021-05-20T15:57:13Z</time>
      </trkpt>
      <trkpt lat="42.2806930" lon="-8.6110510">
        <ele>8.2</ele>
        <time>2021-05-20T15:57:14Z</time>
      </trkpt>
      <trkpt lat="42.2806980" lon="-8.6110500">
        <ele>8.2</ele>
        <time>2021-05-20T15:57:15Z</time>
      </trkpt>
      <trkpt lat="42.2807040" lon="-8.6110370">
        <ele>8.3</ele>
        <time>2021-05-20T15:57:16Z</time>
      </trkpt>
      <trkpt lat="42.2807090" lon="-8.6110310">
        <ele>8.3</ele>
        <time>2021-05-20T15:57:17Z</time>
      </trkpt>
      <trkpt lat="42.2807020" lon="-8.6110250">
        <ele>8.3</ele>
        <time>2021-05-20T15:57:18Z</time>
      </trkpt>
      <trkpt lat="42.2807040" lon="-8.6110170">
        <ele>8.3</ele>
        <time>2021-05-20T15:57:19Z</time>
      </trkpt>
      <trkpt lat="42.2807010" lon="-8.6110050">
        <ele>8.4</ele>
        <time>2021-05-20T15:57:20Z</time>
      </trkpt>
      <trkpt lat="42.2806950" lon="-8.6109970">
        <ele>8.4</ele>
        <time>2021-05-20T15:57:21Z</time>
      </trkpt>
      <trkpt lat="42.2806870" lon="-8.6109770">
        <ele>8.4</ele>
        <time>2021-05-20T15:57:22Z</time>
      </trkpt>
      <trkpt lat="42.2806820" lon="-8.6109670">
        <ele>8.4</ele>
        <time>2021-05-20T15:57:23Z</time>
      </trkpt>
      <trkpt lat="42.2806810" lon="-8.6109580">
        <ele>8.5</ele>
        <time>2021-05-20T15:57:24Z</time>
      </trkpt>
      <trkpt lat="42.2806790" lon="-8.6109520">
        <ele>8.5</ele>
        <time>2021-05-20T15:57:25Z</time>
      </trkpt>
      <trkpt lat="42.2806760" lon="-8.6109420">
        <ele>8.5</ele>
        <time>2021-05-20T15:57:26Z</time>
      </trkpt>
      <trkpt lat="42.2806720" lon="-8.6109290">
        <ele>8.5</ele>
        <time>2021-05-20T15:57:27Z</time>
      </trkpt>
      <trkpt lat="42.2806670" lon="-8.6108970">
        <ele>8.6</ele>
        <time>2021-05-20T15:57:28Z</time>
      </trkpt>
      <trkpt lat="42.2806670" lon="-8.6108840">
        <ele>8.5</ele>
        <time>2021-05-20T15:57:29Z</time>
      </trkpt>
      <trkpt lat="42.2806660" lon="-8.6108720">
        <ele>8.6</ele>
        <time>2021-05-20T15:57:30Z</time>
      </trkpt>
      <trkpt lat="42.2806620" lon="-8.6108470">
        <ele>8.6</ele>
        <time>2021-05-20T15:57:31Z</time>
      </trkpt>
      <trkpt lat="42.2806680" lon="-8.6108370">
        <ele>8.6</ele>
        <time>2021-05-20T15:57:32Z</time>
      </trkpt>
      <trkpt lat="42.2806700" lon="-8.6108260">
        <ele>8.7</ele>
        <time>2021-05-20T15:57:33Z</time>
      </trkpt>
      <trkpt lat="42.2806810" lon="-8.6108180">
        <ele>8.7</ele>
        <time>2021-05-20T15:57:34Z</time>
      </trkpt>
      <trkpt lat="42.2806880" lon="-8.6108060">
        <ele>8.7</ele>
        <time>2021-05-20T15:57:35Z</time>
      </trkpt>
      <trkpt lat="42.2806870" lon="-8.6108030">
        <ele>8.6</ele>
        <time>2021-05-20T15:57:36Z</time>
      </trkpt>
      <trkpt lat="42.2806910" lon="-8.6107970">
        <ele>8.6</ele>
        <time>2021-05-20T15:57:37Z</time>
      </trkpt>
      <trkpt lat="42.2807000" lon="-8.6107910">
        <ele>8.7</ele>
        <time>2021-05-20T15:57:38Z</time>
      </trkpt>
      <trkpt lat="42.2807050" lon="-8.6107840">
        <ele>8.7</ele>
        <time>2021-05-20T15:57:39Z</time>
      </trkpt>
      <trkpt lat="42.2807210" lon="-8.6107680">
        <ele>8.7</ele>
        <time>2021-05-20T15:57:40Z</time>
      </trkpt>
      <trkpt lat="42.2807210" lon="-8.6107660">
        <ele>8.7</ele>
        <time>2021-05-20T15:57:41Z</time>
      </trkpt>
      <trkpt lat="42.2807200" lon="-8.6107600">
        <ele>8.7</ele>
        <time>2021-05-20T15:57:42Z</time>
      </trkpt>
      <trkpt lat="42.2807210" lon="-8.6107550">
        <ele>8.7</ele>
        <time>2021-05-20T15:57:43Z</time>
      </trkpt>
      <trkpt lat="42.2807240" lon="-8.6107530">
        <ele>8.7</ele>
        <time>2021-05-20T15:57:44Z</time>
      </trkpt>
      <trkpt lat="42.2807270" lon="-8.6107450">
        <ele>8.7</ele>
        <time>2021-05-20T15:57:45Z</time>
      </trkpt>
      <trkpt lat="42.2807270" lon="-8.6107430">
        <ele>8.7</ele>
        <time>2021-05-20T15:57:46Z</time>
      </trkpt>
      <trkpt lat="42.2807250" lon="-8.6107410">
        <ele>8.7</ele>
        <time>2021-05-20T15:57:47Z</time>
      </trkpt>
      <trkpt lat="42.2807280" lon="-8.6107350">
        <ele>8.7</ele>
        <time>2021-05-20T15:57:48Z</time>
      </trkpt>
      <trkpt lat="42.2807330" lon="-8.6107290">
        <ele>8.7</ele>
        <time>2021-05-20T15:57:49Z</time>
      </trkpt>
      <trkpt lat="42.2807330" lon="-8.6107240">
        <ele>8.7</ele>
        <time>2021-05-20T15:57:50Z</time>
      </trkpt>
      <trkpt lat="42.2807370" lon="-8.6107170">
        <ele>8.7</ele>
        <time>2021-05-20T15:57:51Z</time>
      </trkpt>
      <trkpt lat="42.2807360" lon="-8.6107090">
        <ele>8.7</ele>
        <time>2021-05-20T15:57:52Z</time>
      </trkpt>
      <trkpt lat="42.2807320" lon="-8.6107020">
        <ele>8.8</ele>
        <time>2021-05-20T15:57:53Z</time>
      </trkpt>
      <trkpt lat="42.2807290" lon="-8.6106980">
        <ele>8.8</ele>
        <time>2021-05-20T15:57:54Z</time>
      </trkpt>
      <trkpt lat="42.2807350" lon="-8.6106970">
        <ele>8.7</ele>
        <time>2021-05-20T15:57:55Z</time>
      </trkpt>
      <trkpt lat="42.2807470" lon="-8.6107000">
        <ele>8.7</ele>
        <time>2021-05-20T15:57:56Z</time>
      </trkpt>
      <trkpt lat="42.2807530" lon="-8.6106990">
        <ele>8.7</ele>
        <time>2021-05-20T15:57:57Z</time>
      </trkpt>
      <trkpt lat="42.2807540" lon="-8.6107040">
        <ele>8.7</ele>
        <time>2021-05-20T15:57:58Z</time>
      </trkpt>
      <trkpt lat="42.2807600" lon="-8.6107020">
        <ele>8.7</ele>
        <time>2021-05-20T15:57:59Z</time>
      </trkpt>
      <trkpt lat="42.2807610" lon="-8.6106990">
        <ele>8.7</ele>
        <time>2021-05-20T15:58:00Z</time>
      </trkpt>
      <trkpt lat="42.2807590" lon="-8.6106970">
        <ele>8.7</ele>
        <time>2021-05-20T15:58:01Z</time>
      </trkpt>
      <trkpt lat="42.2807650" lon="-8.6106940">
        <ele>8.7</ele>
        <time>2021-05-20T15:58:02Z</time>
      </trkpt>
      <trkpt lat="42.2807830" lon="-8.6106850">
        <ele>8.6</ele>
        <time>2021-05-20T15:58:03Z</time>
      </trkpt>
      <trkpt lat="42.2807890" lon="-8.6106840">
        <ele>8.6</ele>
        <time>2021-05-20T15:58:04Z</time>
      </trkpt>
      <trkpt lat="42.2808000" lon="-8.6106770">
        <ele>8.6</ele>
        <time>2021-05-20T15:58:05Z</time>
      </trkpt>
      <trkpt lat="42.2808170" lon="-8.6106740">
        <ele>8.6</ele>
        <time>2021-05-20T15:58:06Z</time>
      </trkpt>
      <trkpt lat="42.2808220" lon="-8.6106690">
        <ele>8.6</ele>
        <time>2021-05-20T15:58:07Z</time>
      </trkpt>
      <trkpt lat="42.2808280" lon="-8.6106700">
        <ele>8.6</ele>
        <time>2021-05-20T15:58:08Z</time>
      </trkpt>
      <trkpt lat="42.2808280" lon="-8.6106740">
        <ele>8.6</ele>
        <time>2021-05-20T15:58:09Z</time>
      </trkpt>
      <trkpt lat="42.2808380" lon="-8.6106760">
        <ele>8.5</ele>
        <time>2021-05-20T15:58:10Z</time>
      </trkpt>
      <trkpt lat="42.2808470" lon="-8.6106740">
        <ele>8.5</ele>
        <time>2021-05-20T15:58:11Z</time>
      </trkpt>
      <trkpt lat="42.2808670" lon="-8.6106950">
        <ele>8.5</ele>
        <time>2021-05-20T15:58:12Z</time>
      </trkpt>
      <trkpt lat="42.2808780" lon="-8.6107040">
        <ele>8.5</ele>
        <time>2021-05-20T15:58:13Z</time>
      </trkpt>
      <trkpt lat="42.2808890" lon="-8.6107130">
        <ele>8.5</ele>
        <time>2021-05-20T15:58:14Z</time>
      </trkpt>
      <trkpt lat="42.2809180" lon="-8.6107540">
        <ele>8.4</ele>
        <time>2021-05-20T15:58:15Z</time>
      </trkpt>
      <trkpt lat="42.2809450" lon="-8.6107820">
        <ele>8.4</ele>
        <time>2021-05-20T15:58:16Z</time>
      </trkpt>
      <trkpt lat="42.2809540" lon="-8.6107920">
        <ele>8.5</ele>
        <time>2021-05-20T15:58:17Z</time>
      </trkpt>
      <trkpt lat="42.2809760" lon="-8.6108170">
        <ele>8.5</ele>
        <time>2021-05-20T15:58:18Z</time>
      </trkpt>
      <trkpt lat="42.2809930" lon="-8.6108290">
        <ele>8.5</ele>
        <time>2021-05-20T15:58:19Z</time>
      </trkpt>
      <trkpt lat="42.2810090" lon="-8.6108380">
        <ele>8.5</ele>
        <time>2021-05-20T15:58:20Z</time>
      </trkpt>
      <trkpt lat="42.2810130" lon="-8.6108370">
        <ele>8.6</ele>
        <time>2021-05-20T15:58:21Z</time>
      </trkpt>
      <trkpt lat="42.2810400" lon="-8.6108300">
        <ele>8.6</ele>
        <time>2021-05-20T15:58:22Z</time>
      </trkpt>
      <trkpt lat="42.2810740" lon="-8.6108170">
        <ele>8.6</ele>
        <time>2021-05-20T15:58:23Z</time>
      </trkpt>
      <trkpt lat="42.2810840" lon="-8.6108110">
        <ele>8.6</ele>
        <time>2021-05-20T15:58:24Z</time>
      </trkpt>
      <trkpt lat="42.2810890" lon="-8.6108010">
        <ele>8.6</ele>
        <time>2021-05-20T15:58:25Z</time>
      </trkpt>
      <trkpt lat="42.2810940" lon="-8.6107930">
        <ele>8.6</ele>
        <time>2021-05-20T15:58:26Z</time>
      </trkpt>
      <trkpt lat="42.2811070" lon="-8.6107870">
        <ele>8.6</ele>
        <time>2021-05-20T15:58:27Z</time>
      </trkpt>
      <trkpt lat="42.2811180" lon="-8.6107800">
        <ele>8.6</ele>
        <time>2021-05-20T15:58:28Z</time>
      </trkpt>
      <trkpt lat="42.2811380" lon="-8.6107760">
        <ele>8.6</ele>
        <time>2021-05-20T15:58:29Z</time>
      </trkpt>
      <trkpt lat="42.2811450" lon="-8.6107670">
        <ele>8.6</ele>
        <time>2021-05-20T15:58:30Z</time>
      </trkpt>
      <trkpt lat="42.2811520" lon="-8.6107680">
        <ele>8.7</ele>
        <time>2021-05-20T15:58:31Z</time>
      </trkpt>
      <trkpt lat="42.2811550" lon="-8.6107580">
        <ele>8.7</ele>
        <time>2021-05-20T15:58:32Z</time>
      </trkpt>
      <trkpt lat="42.2811580" lon="-8.6107470">
        <ele>8.7</ele>
        <time>2021-05-20T15:58:33Z</time>
      </trkpt>
      <trkpt lat="42.2811600" lon="-8.6107350">
        <ele>8.7</ele>
        <time>2021-05-20T15:58:34Z</time>
      </trkpt>
      <trkpt lat="42.2811670" lon="-8.6107300">
        <ele>8.7</ele>
        <time>2021-05-20T15:58:35Z</time>
      </trkpt>
      <trkpt lat="42.2811710" lon="-8.6107330">
        <ele>8.7</ele>
        <time>2021-05-20T15:58:36Z</time>
      </trkpt>
      <trkpt lat="42.2811670" lon="-8.6107270">
        <ele>8.7</ele>
        <time>2021-05-20T15:58:37Z</time>
      </trkpt>
      <trkpt lat="42.2811610" lon="-8.6107270">
        <ele>8.7</ele>
        <time>2021-05-20T15:58:38Z</time>
      </trkpt>
      <trkpt lat="42.2811490" lon="-8.6107260">
        <ele>8.7</ele>
        <time>2021-05-20T15:58:39Z</time>
      </trkpt>
      <trkpt lat="42.2811470" lon="-8.6107200">
        <ele>8.7</ele>
        <time>2021-05-20T15:58:40Z</time>
      </trkpt>
      <trkpt lat="42.2811410" lon="-8.6107180">
        <ele>8.7</ele>
        <time>2021-05-20T15:58:41Z</time>
      </trkpt>
      <trkpt lat="42.2811360" lon="-8.6107060">
        <ele>8.7</ele>
        <time>2021-05-20T15:58:42Z</time>
      </trkpt>
      <trkpt lat="42.2811350" lon="-8.6106980">
        <ele>8.7</ele>
        <time>2021-05-20T15:58:43Z</time>
      </trkpt>
      <trkpt lat="42.2811320" lon="-8.6106830">
        <ele>8.7</ele>
        <time>2021-05-20T15:58:44Z</time>
      </trkpt>
      <trkpt lat="42.2811270" lon="-8.6106730">
        <ele>8.7</ele>
        <time>2021-05-20T15:58:45Z</time>
      </trkpt>
      <trkpt lat="42.2811310" lon="-8.6106750">
        <ele>8.7</ele>
        <time>2021-05-20T15:58:46Z</time>
      </trkpt>
      <trkpt lat="42.2811370" lon="-8.6106750">
        <ele>8.7</ele>
        <time>2021-05-20T15:58:47Z</time>
      </trkpt>
      <trkpt lat="42.2811420" lon="-8.6106760">
        <ele>8.7</ele>
        <time>2021-05-20T15:58:48Z</time>
      </trkpt>
      <trkpt lat="42.2811480" lon="-8.6106770">
        <ele>8.7</ele>
        <time>2021-05-20T15:58:49Z</time>
      </trkpt>
      <trkpt lat="42.2811530" lon="-8.6106780">
        <ele>8.7</ele>
        <time>2021-05-20T15:58:50Z</time>
      </trkpt>
      <trkpt lat="42.2811590" lon="-8.6106780">
        <ele>8.8</ele>
        <time>2021-05-20T15:58:51Z</time>
      </trkpt>
      <trkpt lat="42.2811640" lon="-8.6106790">
        <ele>8.8</ele>
        <time>2021-05-20T15:58:52Z</time>
      </trkpt>
      <trkpt lat="42.2811750" lon="-8.6106860">
        <ele>8.8</ele>
        <time>2021-05-20T15:58:53Z</time>
      </trkpt>
      <trkpt lat="42.2811920" lon="-8.6106900">
        <ele>8.8</ele>
        <time>2021-05-20T15:58:54Z</time>
      </trkpt>
      <trkpt lat="42.2812030" lon="-8.6106900">
        <ele>8.8</ele>
        <time>2021-05-20T15:58:55Z</time>
      </trkpt>
      <trkpt lat="42.2812190" lon="-8.6106930">
        <ele>8.8</ele>
        <time>2021-05-20T15:58:56Z</time>
      </trkpt>
      <trkpt lat="42.2812380" lon="-8.6106940">
        <ele>8.8</ele>
        <time>2021-05-20T15:58:57Z</time>
      </trkpt>
      <trkpt lat="42.2812470" lon="-8.6106920">
        <ele>8.8</ele>
        <time>2021-05-20T15:58:58Z</time>
      </trkpt>
      <trkpt lat="42.2812570" lon="-8.6106900">
        <ele>8.9</ele>
        <time>2021-05-20T15:58:59Z</time>
      </trkpt>
      <trkpt lat="42.2812690" lon="-8.6106930">
        <ele>8.9</ele>
        <time>2021-05-20T15:59:00Z</time>
      </trkpt>
      <trkpt lat="42.2812780" lon="-8.6106900">
        <ele>8.9</ele>
        <time>2021-05-20T15:59:01Z</time>
      </trkpt>
      <trkpt lat="42.2812820" lon="-8.6106870">
        <ele>8.9</ele>
        <time>2021-05-20T15:59:02Z</time>
      </trkpt>
      <trkpt lat="42.2812870" lon="-8.6106780">
        <ele>8.9</ele>
        <time>2021-05-20T15:59:03Z</time>
      </trkpt>
      <trkpt lat="42.2812920" lon="-8.6106640">
        <ele>8.9</ele>
        <time>2021-05-20T15:59:04Z</time>
      </trkpt>
      <trkpt lat="42.2813010" lon="-8.6106600">
        <ele>8.9</ele>
        <time>2021-05-20T15:59:05Z</time>
      </trkpt>
      <trkpt lat="42.2813130" lon="-8.6106500">
        <ele>8.9</ele>
        <time>2021-05-20T15:59:06Z</time>
      </trkpt>
      <trkpt lat="42.2813280" lon="-8.6106370">
        <ele>9.0</ele>
        <time>2021-05-20T15:59:07Z</time>
      </trkpt>
      <trkpt lat="42.2813310" lon="-8.6106300">
        <ele>9.0</ele>
        <time>2021-05-20T15:59:08Z</time>
      </trkpt>
      <trkpt lat="42.2813350" lon="-8.6106240">
        <ele>9.0</ele>
        <time>2021-05-20T15:59:09Z</time>
      </trkpt>
      <trkpt lat="42.2813380" lon="-8.6106170">
        <ele>9.0</ele>
        <time>2021-05-20T15:59:10Z</time>
      </trkpt>
      <trkpt lat="42.2813420" lon="-8.6106100">
        <ele>9.0</ele>
        <time>2021-05-20T15:59:11Z</time>
      </trkpt>
      <trkpt lat="42.2813450" lon="-8.6106140">
        <ele>9.0</ele>
        <time>2021-05-20T15:59:12Z</time>
      </trkpt>
      <trkpt lat="42.2813500" lon="-8.6106020">
        <ele>9.0</ele>
        <time>2021-05-20T15:59:13Z</time>
      </trkpt>
      <trkpt lat="42.2813570" lon="-8.6105840">
        <ele>9.0</ele>
        <time>2021-05-20T15:59:14Z</time>
      </trkpt>
      <trkpt lat="42.2813600" lon="-8.6105720">
        <ele>9.0</ele>
        <time>2021-05-20T15:59:15Z</time>
      </trkpt>
      <trkpt lat="42.2813680" lon="-8.6105650">
        <ele>9.0</ele>
        <time>2021-05-20T15:59:16Z</time>
      </trkpt>
      <trkpt lat="42.2813880" lon="-8.6105450">
        <ele>9.1</ele>
        <time>2021-05-20T15:59:17Z</time>
      </trkpt>
      <trkpt lat="42.2814030" lon="-8.6105330">
        <ele>9.1</ele>
        <time>2021-05-20T15:59:18Z</time>
      </trkpt>
      <trkpt lat="42.2814110" lon="-8.6105220">
        <ele>9.1</ele>
        <time>2021-05-20T15:59:19Z</time>
      </trkpt>
      <trkpt lat="42.2814220" lon="-8.6105060">
        <ele>9.1</ele>
        <time>2021-05-20T15:59:20Z</time>
      </trkpt>
      <trkpt lat="42.2814340" lon="-8.6104910">
        <ele>9.1</ele>
        <time>2021-05-20T15:59:21Z</time>
      </trkpt>
      <trkpt lat="42.2814520" lon="-8.6104760">
        <ele>9.1</ele>
        <time>2021-05-20T15:59:22Z</time>
      </trkpt>
      <trkpt lat="42.2814630" lon="-8.6104720">
        <ele>9.1</ele>
        <time>2021-05-20T15:59:23Z</time>
      </trkpt>
      <trkpt lat="42.2814740" lon="-8.6104670">
        <ele>9.1</ele>
        <time>2021-05-20T15:59:24Z</time>
      </trkpt>
      <trkpt lat="42.2814860" lon="-8.6104530">
        <ele>9.1</ele>
        <time>2021-05-20T15:59:25Z</time>
      </trkpt>
      <trkpt lat="42.2815020" lon="-8.6104410">
        <ele>9.1</ele>
        <time>2021-05-20T15:59:26Z</time>
      </trkpt>
      <trkpt lat="42.2815200" lon="-8.6104360">
        <ele>9.1</ele>
        <time>2021-05-20T15:59:27Z</time>
      </trkpt>
      <trkpt lat="42.2815300" lon="-8.6104340">
        <ele>9.1</ele>
        <time>2021-05-20T15:59:28Z</time>
      </trkpt>
      <trkpt lat="42.2815410" lon="-8.6104320">
        <ele>9.1</ele>
        <time>2021-05-20T15:59:29Z</time>
      </trkpt>
      <trkpt lat="42.2815640" lon="-8.6104280">
        <ele>9.1</ele>
        <time>2021-05-20T15:59:30Z</time>
      </trkpt>
      <trkpt lat="42.2815770" lon="-8.6104290">
        <ele>9.1</ele>
        <time>2021-05-20T15:59:31Z</time>
      </trkpt>
      <trkpt lat="42.2815910" lon="-8.6104290">
        <ele>9.1</ele>
        <time>2021-05-20T15:59:32Z</time>
      </trkpt>
      <trkpt lat="42.2816060" lon="-8.6104280">
        <ele>9.1</ele>
        <time>2021-05-20T15:59:33Z</time>
      </trkpt>
      <trkpt lat="42.2816200" lon="-8.6104230">
        <ele>9.1</ele>
        <time>2021-05-20T15:59:34Z</time>
      </trkpt>
      <trkpt lat="42.2816380" lon="-8.6104150">
        <ele>9.1</ele>
        <time>2021-05-20T15:59:35Z</time>
      </trkpt>
      <trkpt lat="42.2816490" lon="-8.6104100">
        <ele>9.1</ele>
        <time>2021-05-20T15:59:36Z</time>
      </trkpt>
      <trkpt lat="42.2816640" lon="-8.6104030">
        <ele>9.1</ele>
        <time>2021-05-20T15:59:37Z</time>
      </trkpt>
      <trkpt lat="42.2816810" lon="-8.6104010">
        <ele>9.1</ele>
        <time>2021-05-20T15:59:38Z</time>
      </trkpt>
      <trkpt lat="42.2816980" lon="-8.6103960">
        <ele>9.1</ele>
        <time>2021-05-20T15:59:39Z</time>
      </trkpt>
      <trkpt lat="42.2817100" lon="-8.6103900">
        <ele>9.1</ele>
        <time>2021-05-20T15:59:40Z</time>
      </trkpt>
      <trkpt lat="42.2817170" lon="-8.6103790">
        <ele>9.1</ele>
        <time>2021-05-20T15:59:41Z</time>
      </trkpt>
      <trkpt lat="42.2817370" lon="-8.6103710">
        <ele>9.1</ele>
        <time>2021-05-20T15:59:42Z</time>
      </trkpt>
      <trkpt lat="42.2817450" lon="-8.6103620">
        <ele>9.1</ele>
        <time>2021-05-20T15:59:43Z</time>
      </trkpt>
      <trkpt lat="42.2817550" lon="-8.6103530">
        <ele>9.1</ele>
        <time>2021-05-20T15:59:44Z</time>
      </trkpt>
      <trkpt lat="42.2817590" lon="-8.6103420">
        <ele>9.1</ele>
        <time>2021-05-20T15:59:45Z</time>
      </trkpt>
      <trkpt lat="42.2817600" lon="-8.6103280">
        <ele>9.1</ele>
        <time>2021-05-20T15:59:46Z</time>
      </trkpt>
      <trkpt lat="42.2817670" lon="-8.6103240">
        <ele>9.1</ele>
        <time>2021-05-20T15:59:47Z</time>
      </trkpt>
      <trkpt lat="42.2817710" lon="-8.6103120">
        <ele>9.1</ele>
        <time>2021-05-20T15:59:48Z</time>
      </trkpt>
      <trkpt lat="42.2817790" lon="-8.6103070">
        <ele>9.1</ele>
        <time>2021-05-20T15:59:49Z</time>
      </trkpt>
      <trkpt lat="42.2817880" lon="-8.6102950">
        <ele>9.1</ele>
        <time>2021-05-20T15:59:50Z</time>
      </trkpt>
      <trkpt lat="42.2817940" lon="-8.6102900">
        <ele>9.1</ele>
        <time>2021-05-20T15:59:51Z</time>
      </trkpt>
      <trkpt lat="42.2818000" lon="-8.6102830">
        <ele>9.1</ele>
        <time>2021-05-20T15:59:52Z</time>
      </trkpt>
      <trkpt lat="42.2818060" lon="-8.6102760">
        <ele>9.1</ele>
        <time>2021-05-20T15:59:53Z</time>
      </trkpt>
      <trkpt lat="42.2818200" lon="-8.6102680">
        <ele>9.1</ele>
        <time>2021-05-20T15:59:54Z</time>
      </trkpt>
      <trkpt lat="42.2818310" lon="-8.6102610">
        <ele>9.1</ele>
        <time>2021-05-20T15:59:55Z</time>
      </trkpt>
      <trkpt lat="42.2818460" lon="-8.6102500">
        <ele>9.1</ele>
        <time>2021-05-20T15:59:56Z</time>
      </trkpt>
      <trkpt lat="42.2818500" lon="-8.6102460">
        <ele>9.1</ele>
        <time>2021-05-20T15:59:57Z</time>
      </trkpt>
      <trkpt lat="42.2818550" lon="-8.6102390">
        <ele>9.1</ele>
        <time>2021-05-20T15:59:58Z</time>
      </trkpt>
      <trkpt lat="42.2818600" lon="-8.6102210">
        <ele>9.1</ele>
        <time>2021-05-20T15:59:59Z</time>
      </trkpt>
      <trkpt lat="42.2818670" lon="-8.6102150">
        <ele>9.1</ele>
        <time>2021-05-20T16:00:00Z</time>
      </trkpt>
      <trkpt lat="42.2818740" lon="-8.6102080">
        <ele>9.1</ele>
        <time>2021-05-20T16:00:01Z</time>
      </trkpt>
      <trkpt lat="42.2818810" lon="-8.6102010">
        <ele>9.1</ele>
        <time>2021-05-20T16:00:02Z</time>
      </trkpt>
      <trkpt lat="42.2818880" lon="-8.6102010">
        <ele>9.1</ele>
        <time>2021-05-20T16:00:03Z</time>
      </trkpt>
      <trkpt lat="42.2818950" lon="-8.6102020">
        <ele>9.1</ele>
        <time>2021-05-20T16:00:04Z</time>
      </trkpt>
      <trkpt lat="42.2819040" lon="-8.6101930">
        <ele>9.1</ele>
        <time>2021-05-20T16:00:05Z</time>
      </trkpt>
      <trkpt lat="42.2819100" lon="-8.6101860">
        <ele>9.1</ele>
        <time>2021-05-20T16:00:06Z</time>
      </trkpt>
      <trkpt lat="42.2819250" lon="-8.6101760">
        <ele>9.1</ele>
        <time>2021-05-20T16:00:07Z</time>
      </trkpt>
      <trkpt lat="42.2819400" lon="-8.6101670">
        <ele>9.1</ele>
        <time>2021-05-20T16:00:08Z</time>
      </trkpt>
      <trkpt lat="42.2819520" lon="-8.6101630">
        <ele>9.0</ele>
        <time>2021-05-20T16:00:09Z</time>
      </trkpt>
      <trkpt lat="42.2819650" lon="-8.6101510">
        <ele>9.0</ele>
        <time>2021-05-20T16:00:10Z</time>
      </trkpt>
      <trkpt lat="42.2819740" lon="-8.6101420">
        <ele>9.0</ele>
        <time>2021-05-20T16:00:11Z</time>
      </trkpt>
      <trkpt lat="42.2819830" lon="-8.6101360">
        <ele>9.0</ele>
        <time>2021-05-20T16:00:12Z</time>
      </trkpt>
      <trkpt lat="42.2819930" lon="-8.6101310">
        <ele>9.0</ele>
        <time>2021-05-20T16:00:13Z</time>
      </trkpt>
      <trkpt lat="42.2820020" lon="-8.6101250">
        <ele>9.0</ele>
        <time>2021-05-20T16:00:14Z</time>
      </trkpt>
      <trkpt lat="42.2820100" lon="-8.6101210">
        <ele>9.0</ele>
        <time>2021-05-20T16:00:15Z</time>
      </trkpt>
      <trkpt lat="42.2820160" lon="-8.6101160">
        <ele>9.0</ele>
        <time>2021-05-20T16:00:16Z</time>
      </trkpt>
      <trkpt lat="42.2820280" lon="-8.6101070">
        <ele>9.0</ele>
        <time>2021-05-20T16:00:17Z</time>
      </trkpt>
      <trkpt lat="42.2820450" lon="-8.6100940">
        <ele>9.0</ele>
        <time>2021-05-20T16:00:18Z</time>
      </trkpt>
      <trkpt lat="42.2820530" lon="-8.6100900">
        <ele>9.0</ele>
        <time>2021-05-20T16:00:19Z</time>
      </trkpt>
      <trkpt lat="42.2820620" lon="-8.6100850">
        <ele>9.0</ele>
        <time>2021-05-20T16:00:20Z</time>
      </trkpt>
      <trkpt lat="42.2820700" lon="-8.6100770">
        <ele>8.9</ele>
        <time>2021-05-20T16:00:21Z</time>
      </trkpt>
      <trkpt lat="42.2820840" lon="-8.6100620">
        <ele>8.9</ele>
        <time>2021-05-20T16:00:22Z</time>
      </trkpt>
      <trkpt lat="42.2820950" lon="-8.6100520">
        <ele>8.9</ele>
        <time>2021-05-20T16:00:23Z</time>
      </trkpt>
      <trkpt lat="42.2820990" lon="-8.6100430">
        <ele>8.9</ele>
        <time>2021-05-20T16:00:24Z</time>
      </trkpt>
      <trkpt lat="42.2821080" lon="-8.6100350">
        <ele>8.9</ele>
        <time>2021-05-20T16:00:25Z</time>
      </trkpt>
      <trkpt lat="42.2821160" lon="-8.6100240">
        <ele>8.9</ele>
        <time>2021-05-20T16:00:26Z</time>
      </trkpt>
      <trkpt lat="42.2821320" lon="-8.6100090">
        <ele>8.9</ele>
        <time>2021-05-20T16:00:27Z</time>
      </trkpt>
      <trkpt lat="42.2821560" lon="-8.6099920">
        <ele>8.8</ele>
        <time>2021-05-20T16:00:28Z</time>
      </trkpt>
      <trkpt lat="42.2821640" lon="-8.6099840">
        <ele>8.8</ele>
        <time>2021-05-20T16:00:29Z</time>
      </trkpt>
      <trkpt lat="42.2821940" lon="-8.6099710">
        <ele>8.8</ele>
        <time>2021-05-20T16:00:30Z</time>
      </trkpt>
      <trkpt lat="42.2822060" lon="-8.6099660">
        <ele>8.8</ele>
        <time>2021-05-20T16:00:31Z</time>
      </trkpt>
      <trkpt lat="42.2822240" lon="-8.6099500">
        <ele>8.8</ele>
        <time>2021-05-20T16:00:32Z</time>
      </trkpt>
      <trkpt lat="42.2822330" lon="-8.6099420">
        <ele>8.8</ele>
        <time>2021-05-20T16:00:33Z</time>
      </trkpt>
      <trkpt lat="42.2822430" lon="-8.6099350">
        <ele>8.7</ele>
        <time>2021-05-20T16:00:34Z</time>
      </trkpt>
      <trkpt lat="42.2822660" lon="-8.6099290">
        <ele>8.7</ele>
        <time>2021-05-20T16:00:35Z</time>
      </trkpt>
      <trkpt lat="42.2822740" lon="-8.6099270">
        <ele>8.7</ele>
        <time>2021-05-20T16:00:36Z</time>
      </trkpt>
      <trkpt lat="42.2822820" lon="-8.6099250">
        <ele>8.7</ele>
        <time>2021-05-20T16:00:37Z</time>
      </trkpt>
      <trkpt lat="42.2822920" lon="-8.6099170">
        <ele>8.7</ele>
        <time>2021-05-20T16:00:38Z</time>
      </trkpt>
      <trkpt lat="42.2823060" lon="-8.6099050">
        <ele>8.7</ele>
        <time>2021-05-20T16:00:39Z</time>
      </trkpt>
      <trkpt lat="42.2823240" lon="-8.6098950">
        <ele>8.7</ele>
        <time>2021-05-20T16:00:40Z</time>
      </trkpt>
      <trkpt lat="42.2823330" lon="-8.6098890">
        <ele>8.7</ele>
        <time>2021-05-20T16:00:41Z</time>
      </trkpt>
      <trkpt lat="42.2823490" lon="-8.6098790">
        <ele>8.6</ele>
        <time>2021-05-20T16:00:42Z</time>
      </trkpt>
      <trkpt lat="42.2823570" lon="-8.6098730">
        <ele>8.6</ele>
        <time>2021-05-20T16:00:43Z</time>
      </trkpt>
      <trkpt lat="42.2823630" lon="-8.6098730">
        <ele>8.6</ele>
        <time>2021-05-20T16:00:44Z</time>
      </trkpt>
      <trkpt lat="42.2823720" lon="-8.6098670">
        <ele>8.6</ele>
        <time>2021-05-20T16:00:45Z</time>
      </trkpt>
      <trkpt lat="42.2823810" lon="-8.6098640">
        <ele>8.6</ele>
        <time>2021-05-20T16:00:46Z</time>
      </trkpt>
      <trkpt lat="42.2823870" lon="-8.6098580">
        <ele>8.6</ele>
        <time>2021-05-20T16:00:47Z</time>
      </trkpt>
      <trkpt lat="42.2823910" lon="-8.6098560">
        <ele>8.6</ele>
        <time>2021-05-20T16:00:48Z</time>
      </trkpt>
      <trkpt lat="42.2823930" lon="-8.6098600">
        <ele>8.6</ele>
        <time>2021-05-20T16:00:49Z</time>
      </trkpt>
      <trkpt lat="42.2824000" lon="-8.6098600">
        <ele>8.6</ele>
        <time>2021-05-20T16:00:50Z</time>
      </trkpt>
      <trkpt lat="42.2824080" lon="-8.6098600">
        <ele>8.6</ele>
        <time>2021-05-20T16:00:51Z</time>
      </trkpt>
      <trkpt lat="42.2824080" lon="-8.6098490">
        <ele>8.6</ele>
        <time>2021-05-20T16:00:52Z</time>
      </trkpt>
      <trkpt lat="42.2824080" lon="-8.6098440">
        <ele>8.6</ele>
        <time>2021-05-20T16:00:53Z</time>
      </trkpt>
      <trkpt lat="42.2824100" lon="-8.6098450">
        <ele>8.6</ele>
        <time>2021-05-20T16:00:54Z</time>
      </trkpt>
      <trkpt lat="42.2824110" lon="-8.6098300">
        <ele>8.6</ele>
        <time>2021-05-20T16:00:55Z</time>
      </trkpt>
      <trkpt lat="42.2824020" lon="-8.6098200">
        <ele>8.5</ele>
        <time>2021-05-20T16:00:56Z</time>
      </trkpt>
      <trkpt lat="42.2823980" lon="-8.6098110">
        <ele>8.5</ele>
        <time>2021-05-20T16:00:57Z</time>
      </trkpt>
      <trkpt lat="42.2824010" lon="-8.6097980">
        <ele>8.5</ele>
        <time>2021-05-20T16:00:58Z</time>
      </trkpt>
      <trkpt lat="42.2824020" lon="-8.6097830">
        <ele>8.5</ele>
        <time>2021-05-20T16:00:59Z</time>
      </trkpt>
      <trkpt lat="42.2823990" lon="-8.6097780">
        <ele>8.5</ele>
        <time>2021-05-20T16:01:00Z</time>
      </trkpt>
      <trkpt lat="42.2824010" lon="-8.6097630">
        <ele>8.5</ele>
        <time>2021-05-20T16:01:01Z</time>
      </trkpt>
      <trkpt lat="42.2824050" lon="-8.6097520">
        <ele>8.5</ele>
        <time>2021-05-20T16:01:02Z</time>
      </trkpt>
      <trkpt lat="42.2824040" lon="-8.6097450">
        <ele>8.5</ele>
        <time>2021-05-20T16:01:03Z</time>
      </trkpt>
      <trkpt lat="42.2824020" lon="-8.6097370">
        <ele>8.5</ele>
        <time>2021-05-20T16:01:04Z</time>
      </trkpt>
      <trkpt lat="42.2824020" lon="-8.6097280">
        <ele>8.5</ele>
        <time>2021-05-20T16:01:05Z</time>
      </trkpt>
      <trkpt lat="42.2824050" lon="-8.6097240">
        <ele>8.5</ele>
        <time>2021-05-20T16:01:06Z</time>
      </trkpt>
      <trkpt lat="42.2824050" lon="-8.6097280">
        <ele>8.5</ele>
        <time>2021-05-20T16:01:07Z</time>
      </trkpt>
      <trkpt lat="42.2824090" lon="-8.6097260">
        <ele>8.5</ele>
        <time>2021-05-20T16:01:08Z</time>
      </trkpt>
      <trkpt lat="42.2824080" lon="-8.6097250">
        <ele>8.5</ele>
        <time>2021-05-20T16:01:09Z</time>
      </trkpt>
      <trkpt lat="42.2824150" lon="-8.6097240">
        <ele>8.5</ele>
        <time>2021-05-20T16:01:10Z</time>
      </trkpt>
      <trkpt lat="42.2824200" lon="-8.6097200">
        <ele>8.5</ele>
        <time>2021-05-20T16:01:11Z</time>
      </trkpt>
      <trkpt lat="42.2824310" lon="-8.6097140">
        <ele>8.5</ele>
        <time>2021-05-20T16:01:12Z</time>
      </trkpt>
      <trkpt lat="42.2824340" lon="-8.6097100">
        <ele>8.5</ele>
        <time>2021-05-20T16:01:13Z</time>
      </trkpt>
      <trkpt lat="42.2824360" lon="-8.6097110">
        <ele>8.5</ele>
        <time>2021-05-20T16:01:14Z</time>
      </trkpt>
      <trkpt lat="42.2824390" lon="-8.6097120">
        <ele>8.5</ele>
        <time>2021-05-20T16:01:15Z</time>
      </trkpt>
      <trkpt lat="42.2824480" lon="-8.6097120">
        <ele>8.5</ele>
        <time>2021-05-20T16:01:16Z</time>
      </trkpt>
      <trkpt lat="42.2824560" lon="-8.6097180">
        <ele>8.5</ele>
        <time>2021-05-20T16:01:17Z</time>
      </trkpt>
      <trkpt lat="42.2824560" lon="-8.6097180">
        <ele>8.5</ele>
        <time>2021-05-20T16:01:18Z</time>
      </trkpt>
      <trkpt lat="42.2824600" lon="-8.6097160">
        <ele>8.5</ele>
        <time>2021-05-20T16:01:19Z</time>
      </trkpt>
      <trkpt lat="42.2824610" lon="-8.6097140">
        <ele>8.5</ele>
        <time>2021-05-20T16:01:20Z</time>
      </trkpt>
      <trkpt lat="42.2824620" lon="-8.6097120">
        <ele>8.5</ele>
        <time>2021-05-20T16:01:21Z</time>
      </trkpt>
      <trkpt lat="42.2824640" lon="-8.6097130">
        <ele>8.5</ele>
        <time>2021-05-20T16:01:22Z</time>
      </trkpt>
      <trkpt lat="42.2824670" lon="-8.6097080">
        <ele>8.4</ele>
        <time>2021-05-20T16:01:23Z</time>
      </trkpt>
      <trkpt lat="42.2824680" lon="-8.6097050">
        <ele>8.4</ele>
        <time>2021-05-20T16:01:24Z</time>
      </trkpt>
      <trkpt lat="42.2824680" lon="-8.6097050">
        <ele>8.4</ele>
        <time>2021-05-20T16:01:25Z</time>
      </trkpt>
      <trkpt lat="42.2824740" lon="-8.6097040">
        <ele>8.4</ele>
        <time>2021-05-20T16:01:26Z</time>
      </trkpt>
      <trkpt lat="42.2824730" lon="-8.6097030">
        <ele>8.4</ele>
        <time>2021-05-20T16:01:27Z</time>
      </trkpt>
      <trkpt lat="42.2824750" lon="-8.6096990">
        <ele>8.4</ele>
        <time>2021-05-20T16:01:28Z</time>
      </trkpt>
      <trkpt lat="42.2824820" lon="-8.6097060">
        <ele>8.4</ele>
        <time>2021-05-20T16:01:29Z</time>
      </trkpt>
      <trkpt lat="42.2824930" lon="-8.6097100">
        <ele>8.4</ele>
        <time>2021-05-20T16:01:30Z</time>
      </trkpt>
      <trkpt lat="42.2825000" lon="-8.6097160">
        <ele>8.4</ele>
        <time>2021-05-20T16:01:31Z</time>
      </trkpt>
      <trkpt lat="42.2824980" lon="-8.6097270">
        <ele>8.4</ele>
        <time>2021-05-20T16:01:32Z</time>
      </trkpt>
      <trkpt lat="42.2825060" lon="-8.6097340">
        <ele>8.4</ele>
        <time>2021-05-20T16:01:33Z</time>
      </trkpt>
      <trkpt lat="42.2825120" lon="-8.6097500">
        <ele>8.4</ele>
        <time>2021-05-20T16:01:34Z</time>
      </trkpt>
      <trkpt lat="42.2825120" lon="-8.6097940">
        <ele>8.4</ele>
        <time>2021-05-20T16:01:35Z</time>
      </trkpt>
      <trkpt lat="42.2825080" lon="-8.6098150">
        <ele>8.4</ele>
        <time>2021-05-20T16:01:36Z</time>
      </trkpt>
      <trkpt lat="42.2825200" lon="-8.6098440">
        <ele>8.4</ele>
        <time>2021-05-20T16:01:37Z</time>
      </trkpt>
      <trkpt lat="42.2825250" lon="-8.6098540">
        <ele>8.4</ele>
        <time>2021-05-20T16:01:38Z</time>
      </trkpt>
      <trkpt lat="42.2825310" lon="-8.6098630">
        <ele>8.4</ele>
        <time>2021-05-20T16:01:39Z</time>
      </trkpt>
      <trkpt lat="42.2825420" lon="-8.6099020">
        <ele>8.4</ele>
        <time>2021-05-20T16:01:40Z</time>
      </trkpt>
      <trkpt lat="42.2825450" lon="-8.6099200">
        <ele>8.3</ele>
        <time>2021-05-20T16:01:41Z</time>
      </trkpt>
      <trkpt lat="42.2825610" lon="-8.6099310">
        <ele>8.3</ele>
        <time>2021-05-20T16:01:42Z</time>
      </trkpt>
      <trkpt lat="42.2825650" lon="-8.6099370">
        <ele>8.3</ele>
        <time>2021-05-20T16:01:43Z</time>
      </trkpt>
      <trkpt lat="42.2825740" lon="-8.6099410">
        <ele>8.3</ele>
        <time>2021-05-20T16:01:44Z</time>
      </trkpt>
      <trkpt lat="42.2825800" lon="-8.6099450">
        <ele>8.3</ele>
        <time>2021-05-20T16:01:45Z</time>
      </trkpt>
      <trkpt lat="42.2825940" lon="-8.6099460">
        <ele>8.4</ele>
        <time>2021-05-20T16:01:46Z</time>
      </trkpt>
      <trkpt lat="42.2826130" lon="-8.6099510">
        <ele>8.4</ele>
        <time>2021-05-20T16:01:47Z</time>
      </trkpt>
      <trkpt lat="42.2826200" lon="-8.6099490">
        <ele>8.4</ele>
        <time>2021-05-20T16:01:48Z</time>
      </trkpt>
      <trkpt lat="42.2826280" lon="-8.6099480">
        <ele>8.4</ele>
        <time>2021-05-20T16:01:49Z</time>
      </trkpt>
      <trkpt lat="42.2826350" lon="-8.6099460">
        <ele>8.4</ele>
        <time>2021-05-20T16:01:50Z</time>
      </trkpt>
      <trkpt lat="42.2826470" lon="-8.6099320">
        <ele>8.4</ele>
        <time>2021-05-20T16:01:51Z</time>
      </trkpt>
      <trkpt lat="42.2826530" lon="-8.6099260">
        <ele>8.4</ele>
        <time>2021-05-20T16:01:52Z</time>
      </trkpt>
      <trkpt lat="42.2826620" lon="-8.6099240">
        <ele>8.4</ele>
        <time>2021-05-20T16:01:53Z</time>
      </trkpt>
      <trkpt lat="42.2826670" lon="-8.6099410">
        <ele>8.4</ele>
        <time>2021-05-20T16:01:54Z</time>
      </trkpt>
      <trkpt lat="42.2826780" lon="-8.6099580">
        <ele>8.4</ele>
        <time>2021-05-20T16:01:55Z</time>
      </trkpt>
      <trkpt lat="42.2826900" lon="-8.6099460">
        <ele>8.4</ele>
        <time>2021-05-20T16:01:56Z</time>
      </trkpt>
      <trkpt lat="42.2826960" lon="-8.6099400">
        <ele>8.4</ele>
        <time>2021-05-20T16:01:57Z</time>
      </trkpt>
      <trkpt lat="42.2827030" lon="-8.6099350">
        <ele>8.4</ele>
        <time>2021-05-20T16:01:58Z</time>
      </trkpt>
      <trkpt lat="42.2827090" lon="-8.6099290">
        <ele>8.4</ele>
        <time>2021-05-20T16:01:59Z</time>
      </trkpt>
      <trkpt lat="42.2827170" lon="-8.6099210">
        <ele>8.4</ele>
        <time>2021-05-20T16:02:00Z</time>
      </trkpt>
      <trkpt lat="42.2827320" lon="-8.6099150">
        <ele>8.4</ele>
        <time>2021-05-20T16:02:01Z</time>
      </trkpt>
      <trkpt lat="42.2827410" lon="-8.6099100">
        <ele>8.4</ele>
        <time>2021-05-20T16:02:02Z</time>
      </trkpt>
      <trkpt lat="42.2827510" lon="-8.6099020">
        <ele>8.4</ele>
        <time>2021-05-20T16:02:03Z</time>
      </trkpt>
      <trkpt lat="42.2827580" lon="-8.6098950">
        <ele>8.4</ele>
        <time>2021-05-20T16:02:04Z</time>
      </trkpt>
      <trkpt lat="42.2827680" lon="-8.6098900">
        <ele>8.4</ele>
        <time>2021-05-20T16:02:05Z</time>
      </trkpt>
      <trkpt lat="42.2827720" lon="-8.6098830">
        <ele>8.4</ele>
        <time>2021-05-20T16:02:06Z</time>
      </trkpt>
      <trkpt lat="42.2827810" lon="-8.6098770">
        <ele>8.4</ele>
        <time>2021-05-20T16:02:07Z</time>
      </trkpt>
      <trkpt lat="42.2827950" lon="-8.6098740">
        <ele>8.4</ele>
        <time>2021-05-20T16:02:08Z</time>
      </trkpt>
      <trkpt lat="42.2828130" lon="-8.6098600">
        <ele>8.4</ele>
        <time>2021-05-20T16:02:09Z</time>
      </trkpt>
      <trkpt lat="42.2828220" lon="-8.6098510">
        <ele>8.4</ele>
        <time>2021-05-20T16:02:10Z</time>
      </trkpt>
      <trkpt lat="42.2828310" lon="-8.6098430">
        <ele>8.4</ele>
        <time>2021-05-20T16:02:11Z</time>
      </trkpt>
      <trkpt lat="42.2828520" lon="-8.6098320">
        <ele>8.4</ele>
        <time>2021-05-20T16:02:12Z</time>
      </trkpt>
      <trkpt lat="42.2828620" lon="-8.6098280">
        <ele>8.4</ele>
        <time>2021-05-20T16:02:13Z</time>
      </trkpt>
      <trkpt lat="42.2828710" lon="-8.6098230">
        <ele>8.4</ele>
        <time>2021-05-20T16:02:14Z</time>
      </trkpt>
      <trkpt lat="42.2828810" lon="-8.6098230">
        <ele>8.4</ele>
        <time>2021-05-20T16:02:15Z</time>
      </trkpt>
      <trkpt lat="42.2828940" lon="-8.6098260">
        <ele>8.4</ele>
        <time>2021-05-20T16:02:16Z</time>
      </trkpt>
      <trkpt lat="42.2829070" lon="-8.6098220">
        <ele>8.4</ele>
        <time>2021-05-20T16:02:17Z</time>
      </trkpt>
      <trkpt lat="42.2829190" lon="-8.6098200">
        <ele>8.4</ele>
        <time>2021-05-20T16:02:18Z</time>
      </trkpt>
      <trkpt lat="42.2829240" lon="-8.6098220">
        <ele>8.4</ele>
        <time>2021-05-20T16:02:19Z</time>
      </trkpt>
      <trkpt lat="42.2829370" lon="-8.6098190">
        <ele>8.4</ele>
        <time>2021-05-20T16:02:20Z</time>
      </trkpt>
      <trkpt lat="42.2829520" lon="-8.6098230">
        <ele>8.4</ele>
        <time>2021-05-20T16:02:21Z</time>
      </trkpt>
      <trkpt lat="42.2829640" lon="-8.6098110">
        <ele>8.4</ele>
        <time>2021-05-20T16:02:22Z</time>
      </trkpt>
      <trkpt lat="42.2829730" lon="-8.6098030">
        <ele>8.4</ele>
        <time>2021-05-20T16:02:23Z</time>
      </trkpt>
      <trkpt lat="42.2829850" lon="-8.6097880">
        <ele>8.4</ele>
        <time>2021-05-20T16:02:24Z</time>
      </trkpt>
      <trkpt lat="42.2830070" lon="-8.6097780">
        <ele>8.4</ele>
        <time>2021-05-20T16:02:25Z</time>
      </trkpt>
      <trkpt lat="42.2830150" lon="-8.6097780">
        <ele>8.4</ele>
        <time>2021-05-20T16:02:26Z</time>
      </trkpt>
      <trkpt lat="42.2830230" lon="-8.6097770">
        <ele>8.3</ele>
        <time>2021-05-20T16:02:27Z</time>
      </trkpt>
      <trkpt lat="42.2830390" lon="-8.6097730">
        <ele>8.3</ele>
        <time>2021-05-20T16:02:28Z</time>
      </trkpt>
      <trkpt lat="42.2830520" lon="-8.6097760">
        <ele>8.3</ele>
        <time>2021-05-20T16:02:29Z</time>
      </trkpt>
      <trkpt lat="42.2830670" lon="-8.6097780">
        <ele>8.3</ele>
        <time>2021-05-20T16:02:30Z</time>
      </trkpt>
      <trkpt lat="42.2830810" lon="-8.6097780">
        <ele>8.3</ele>
        <time>2021-05-20T16:02:31Z</time>
      </trkpt>
      <trkpt lat="42.2830870" lon="-8.6097790">
        <ele>8.3</ele>
        <time>2021-05-20T16:02:32Z</time>
      </trkpt>
      <trkpt lat="42.2831000" lon="-8.6097790">
        <ele>8.3</ele>
        <time>2021-05-20T16:02:33Z</time>
      </trkpt>
      <trkpt lat="42.2831120" lon="-8.6097770">
        <ele>8.3</ele>
        <time>2021-05-20T16:02:34Z</time>
      </trkpt>
      <trkpt lat="42.2831220" lon="-8.6097740">
        <ele>8.3</ele>
        <time>2021-05-20T16:02:35Z</time>
      </trkpt>
      <trkpt lat="42.2831310" lon="-8.6097710">
        <ele>8.3</ele>
        <time>2021-05-20T16:02:36Z</time>
      </trkpt>
      <trkpt lat="42.2831410" lon="-8.6097710">
        <ele>8.3</ele>
        <time>2021-05-20T16:02:37Z</time>
      </trkpt>
      <trkpt lat="42.2831620" lon="-8.6097520">
        <ele>8.3</ele>
        <time>2021-05-20T16:02:38Z</time>
      </trkpt>
      <trkpt lat="42.2831680" lon="-8.6097410">
        <ele>8.3</ele>
        <time>2021-05-20T16:02:39Z</time>
      </trkpt>
      <trkpt lat="42.2831730" lon="-8.6097290">
        <ele>8.3</ele>
        <time>2021-05-20T16:02:40Z</time>
      </trkpt>
      <trkpt lat="42.2831830" lon="-8.6096810">
        <ele>8.3</ele>
        <time>2021-05-20T16:02:41Z</time>
      </trkpt>
      <trkpt lat="42.2832000" lon="-8.6096410">
        <ele>8.3</ele>
        <time>2021-05-20T16:02:42Z</time>
      </trkpt>
      <trkpt lat="42.2832030" lon="-8.6096260">
        <ele>8.3</ele>
        <time>2021-05-20T16:02:43Z</time>
      </trkpt>
      <trkpt lat="42.2832270" lon="-8.6096070">
        <ele>8.3</ele>
        <time>2021-05-20T16:02:44Z</time>
      </trkpt>
      <trkpt lat="42.2832390" lon="-8.6096010">
        <ele>8.3</ele>
        <time>2021-05-20T16:02:45Z</time>
      </trkpt>
      <trkpt lat="42.2832680" lon="-8.6095810">
        <ele>8.3</ele>
        <time>2021-05-20T16:02:46Z</time>
      </trkpt>
      <trkpt lat="42.2832770" lon="-8.6095740">
        <ele>8.3</ele>
        <time>2021-05-20T16:02:47Z</time>
      </trkpt>
      <trkpt lat="42.2833060" lon="-8.6095720">
        <ele>8.3</ele>
        <time>2021-05-20T16:02:48Z</time>
      </trkpt>
      <trkpt lat="42.2833160" lon="-8.6095740">
        <ele>8.3</ele>
        <time>2021-05-20T16:02:49Z</time>
      </trkpt>
      <trkpt lat="42.2833390" lon="-8.6095880">
        <ele>8.3</ele>
        <time>2021-05-20T16:02:50Z</time>
      </trkpt>
      <trkpt lat="42.2833460" lon="-8.6095980">
        <ele>8.5</ele>
        <time>2021-05-20T16:02:51Z</time>
      </trkpt>
      <trkpt lat="42.2833540" lon="-8.6096090">
        <ele>8.5</ele>
        <time>2021-05-20T16:02:52Z</time>
      </trkpt>
      <trkpt lat="42.2833680" lon="-8.6096230">
        <ele>8.5</ele>
        <time>2021-05-20T16:02:53Z</time>
      </trkpt>
      <trkpt lat="42.2833850" lon="-8.6096070">
        <ele>8.6</ele>
        <time>2021-05-20T16:02:54Z</time>
      </trkpt>
      <trkpt lat="42.2834110" lon="-8.6096180">
        <ele>8.7</ele>
        <time>2021-05-20T16:02:55Z</time>
      </trkpt>
      <trkpt lat="42.2834260" lon="-8.6096210">
        <ele>8.7</ele>
        <time>2021-05-20T16:02:56Z</time>
      </trkpt>
      <trkpt lat="42.2834320" lon="-8.6096200">
        <ele>8.7</ele>
        <time>2021-05-20T16:02:57Z</time>
      </trkpt>
      <trkpt lat="42.2834460" lon="-8.6096150">
        <ele>8.8</ele>
        <time>2021-05-20T16:02:58Z</time>
      </trkpt>
      <trkpt lat="42.2834530" lon="-8.6096150">
        <ele>8.8</ele>
        <time>2021-05-20T16:02:59Z</time>
      </trkpt>
      <trkpt lat="42.2834530" lon="-8.6096210">
        <ele>8.8</ele>
        <time>2021-05-20T16:03:00Z</time>
      </trkpt>
      <trkpt lat="42.2834500" lon="-8.6096120">
        <ele>8.8</ele>
        <time>2021-05-20T16:03:01Z</time>
      </trkpt>
      <trkpt lat="42.2834460" lon="-8.6096080">
        <ele>8.8</ele>
        <time>2021-05-20T16:03:02Z</time>
      </trkpt>
      <trkpt lat="42.2834470" lon="-8.6095960">
        <ele>8.8</ele>
        <time>2021-05-20T16:03:03Z</time>
      </trkpt>
      <trkpt lat="42.2834520" lon="-8.6095980">
        <ele>8.8</ele>
        <time>2021-05-20T16:03:04Z</time>
      </trkpt>
      <trkpt lat="42.2834600" lon="-8.6096100">
        <ele>8.8</ele>
        <time>2021-05-20T16:03:05Z</time>
      </trkpt>
      <trkpt lat="42.2834640" lon="-8.6096210">
        <ele>8.8</ele>
        <time>2021-05-20T16:03:06Z</time>
      </trkpt>
      <trkpt lat="42.2834700" lon="-8.6096210">
        <ele>9.0</ele>
        <time>2021-05-20T16:03:07Z</time>
      </trkpt>
      <trkpt lat="42.2834770" lon="-8.6096130">
        <ele>9.0</ele>
        <time>2021-05-20T16:03:08Z</time>
      </trkpt>
      <trkpt lat="42.2834830" lon="-8.6096060">
        <ele>9.0</ele>
        <time>2021-05-20T16:03:09Z</time>
      </trkpt>
      <trkpt lat="42.2835010" lon="-8.6095920">
        <ele>9.1</ele>
        <time>2021-05-20T16:03:10Z</time>
      </trkpt>
      <trkpt lat="42.2835230" lon="-8.6095650">
        <ele>8.7</ele>
        <time>2021-05-20T16:03:11Z</time>
      </trkpt>
      <trkpt lat="42.2835290" lon="-8.6095590">
        <ele>8.7</ele>
        <time>2021-05-20T16:03:12Z</time>
      </trkpt>
      <trkpt lat="42.2835610" lon="-8.6095310">
        <ele>8.5</ele>
        <time>2021-05-20T16:03:13Z</time>
      </trkpt>
      <trkpt lat="42.2835700" lon="-8.6095080">
        <ele>8.5</ele>
        <time>2021-05-20T16:03:14Z</time>
      </trkpt>
      <trkpt lat="42.2835860" lon="-8.6094680">
        <ele>8.2</ele>
        <time>2021-05-20T16:03:15Z</time>
      </trkpt>
      <trkpt lat="42.2835910" lon="-8.6094600">
        <ele>8.0</ele>
        <time>2021-05-20T16:03:16Z</time>
      </trkpt>
      <trkpt lat="42.2836030" lon="-8.6094530">
        <ele>8.1</ele>
        <time>2021-05-20T16:03:17Z</time>
      </trkpt>
      <trkpt lat="42.2836200" lon="-8.6094470">
        <ele>8.1</ele>
        <time>2021-05-20T16:03:18Z</time>
      </trkpt>
      <trkpt lat="42.2836400" lon="-8.6094450">
        <ele>8.1</ele>
        <time>2021-05-20T16:03:19Z</time>
      </trkpt>
      <trkpt lat="42.2836480" lon="-8.6094390">
        <ele>8.1</ele>
        <time>2021-05-20T16:03:20Z</time>
      </trkpt>
      <trkpt lat="42.2836570" lon="-8.6094330">
        <ele>8.1</ele>
        <time>2021-05-20T16:03:21Z</time>
      </trkpt>
      <trkpt lat="42.2836660" lon="-8.6094300">
        <ele>8.2</ele>
        <time>2021-05-20T16:03:22Z</time>
      </trkpt>
      <trkpt lat="42.2836650" lon="-8.6094140">
        <ele>8.0</ele>
        <time>2021-05-20T16:03:23Z</time>
      </trkpt>
      <trkpt lat="42.2836730" lon="-8.6094090">
        <ele>8.0</ele>
        <time>2021-05-20T16:03:24Z</time>
      </trkpt>
      <trkpt lat="42.2836840" lon="-8.6094000">
        <ele>8.0</ele>
        <time>2021-05-20T16:03:25Z</time>
      </trkpt>
      <trkpt lat="42.2836940" lon="-8.6093940">
        <ele>8.0</ele>
        <time>2021-05-20T16:03:26Z</time>
      </trkpt>
      <trkpt lat="42.2837050" lon="-8.6093980">
        <ele>8.0</ele>
        <time>2021-05-20T16:03:27Z</time>
      </trkpt>
      <trkpt lat="42.2837180" lon="-8.6094030">
        <ele>8.0</ele>
        <time>2021-05-20T16:03:28Z</time>
      </trkpt>
      <trkpt lat="42.2837360" lon="-8.6093940">
        <ele>8.0</ele>
        <time>2021-05-20T16:03:29Z</time>
      </trkpt>
      <trkpt lat="42.2837470" lon="-8.6093870">
        <ele>8.0</ele>
        <time>2021-05-20T16:03:30Z</time>
      </trkpt>
      <trkpt lat="42.2837580" lon="-8.6093790">
        <ele>8.1</ele>
        <time>2021-05-20T16:03:31Z</time>
      </trkpt>
      <trkpt lat="42.2837670" lon="-8.6093820">
        <ele>8.1</ele>
        <time>2021-05-20T16:03:32Z</time>
      </trkpt>
      <trkpt lat="42.2837750" lon="-8.6093740">
        <ele>7.9</ele>
        <time>2021-05-20T16:03:33Z</time>
      </trkpt>
      <trkpt lat="42.2837860" lon="-8.6093640">
        <ele>7.9</ele>
        <time>2021-05-20T16:03:34Z</time>
      </trkpt>
      <trkpt lat="42.2838130" lon="-8.6093140">
        <ele>7.7</ele>
        <time>2021-05-20T16:03:35Z</time>
      </trkpt>
      <trkpt lat="42.2838230" lon="-8.6092900">
        <ele>7.6</ele>
        <time>2021-05-20T16:03:36Z</time>
      </trkpt>
      <trkpt lat="42.2838470" lon="-8.6092520">
        <ele>7.6</ele>
        <time>2021-05-20T16:03:37Z</time>
      </trkpt>
      <trkpt lat="42.2838570" lon="-8.6092410">
        <ele>7.5</ele>
        <time>2021-05-20T16:03:38Z</time>
      </trkpt>
      <trkpt lat="42.2838770" lon="-8.6092020">
        <ele>7.4</ele>
        <time>2021-05-20T16:03:39Z</time>
      </trkpt>
      <trkpt lat="42.2838810" lon="-8.6091890">
        <ele>7.4</ele>
        <time>2021-05-20T16:03:40Z</time>
      </trkpt>
      <trkpt lat="42.2838870" lon="-8.6091750">
        <ele>7.4</ele>
        <time>2021-05-20T16:03:41Z</time>
      </trkpt>
      <trkpt lat="42.2838940" lon="-8.6091570">
        <ele>7.3</ele>
        <time>2021-05-20T16:03:42Z</time>
      </trkpt>
      <trkpt lat="42.2838990" lon="-8.6091520">
        <ele>7.3</ele>
        <time>2021-05-20T16:03:43Z</time>
      </trkpt>
      <trkpt lat="42.2839030" lon="-8.6091530">
        <ele>7.3</ele>
        <time>2021-05-20T16:03:44Z</time>
      </trkpt>
      <trkpt lat="42.2839120" lon="-8.6091480">
        <ele>7.3</ele>
        <time>2021-05-20T16:03:45Z</time>
      </trkpt>
      <trkpt lat="42.2839210" lon="-8.6091420">
        <ele>7.3</ele>
        <time>2021-05-20T16:03:46Z</time>
      </trkpt>
      <trkpt lat="42.2839320" lon="-8.6091340">
        <ele>7.3</ele>
        <time>2021-05-20T16:03:47Z</time>
      </trkpt>
      <trkpt lat="42.2839530" lon="-8.6091230">
        <ele>7.3</ele>
        <time>2021-05-20T16:03:48Z</time>
      </trkpt>
      <trkpt lat="42.2839600" lon="-8.6091160">
        <ele>7.3</ele>
        <time>2021-05-20T16:03:49Z</time>
      </trkpt>
      <trkpt lat="42.2839710" lon="-8.6091110">
        <ele>7.3</ele>
        <time>2021-05-20T16:03:50Z</time>
      </trkpt>
      <trkpt lat="42.2839740" lon="-8.6091080">
        <ele>7.3</ele>
        <time>2021-05-20T16:03:51Z</time>
      </trkpt>
      <trkpt lat="42.2839800" lon="-8.6091070">
        <ele>7.3</ele>
        <time>2021-05-20T16:03:52Z</time>
      </trkpt>
      <trkpt lat="42.2839850" lon="-8.6091040">
        <ele>7.3</ele>
        <time>2021-05-20T16:03:53Z</time>
      </trkpt>
      <trkpt lat="42.2839880" lon="-8.6091040">
        <ele>7.3</ele>
        <time>2021-05-20T16:03:54Z</time>
      </trkpt>
      <trkpt lat="42.2839930" lon="-8.6091020">
        <ele>7.3</ele>
        <time>2021-05-20T16:03:55Z</time>
      </trkpt>
      <trkpt lat="42.2839980" lon="-8.6091030">
        <ele>7.3</ele>
        <time>2021-05-20T16:03:56Z</time>
      </trkpt>
      <trkpt lat="42.2839980" lon="-8.6090870">
        <ele>7.3</ele>
        <time>2021-05-20T16:03:57Z</time>
      </trkpt>
      <trkpt lat="42.2839970" lon="-8.6090780">
        <ele>7.3</ele>
        <time>2021-05-20T16:03:58Z</time>
      </trkpt>
      <trkpt lat="42.2839710" lon="-8.6090810">
        <ele>7.3</ele>
        <time>2021-05-20T16:03:59Z</time>
      </trkpt>
      <trkpt lat="42.2839720" lon="-8.6090770">
        <ele>7.3</ele>
        <time>2021-05-20T16:04:00Z</time>
      </trkpt>
      <trkpt lat="42.2839860" lon="-8.6090730">
        <ele>7.3</ele>
        <time>2021-05-20T16:04:01Z</time>
      </trkpt>
      <trkpt lat="42.2839890" lon="-8.6090730">
        <ele>7.3</ele>
        <time>2021-05-20T16:04:02Z</time>
      </trkpt>
      <trkpt lat="42.2839900" lon="-8.6090750">
        <ele>7.3</ele>
        <time>2021-05-20T16:04:03Z</time>
      </trkpt>
      <trkpt lat="42.2839900" lon="-8.6090750">
        <ele>7.3</ele>
        <time>2021-05-20T16:04:04Z</time>
      </trkpt>
      <trkpt lat="42.2839950" lon="-8.6090800">
        <ele>7.3</ele>
        <time>2021-05-20T16:04:05Z</time>
      </trkpt>
      <trkpt lat="42.2840050" lon="-8.6090790">
        <ele>7.3</ele>
        <time>2021-05-20T16:04:06Z</time>
      </trkpt>
      <trkpt lat="42.2840070" lon="-8.6090760">
        <ele>7.3</ele>
        <time>2021-05-20T16:04:07Z</time>
      </trkpt>
      <trkpt lat="42.2840140" lon="-8.6090760">
        <ele>7.3</ele>
        <time>2021-05-20T16:04:08Z</time>
      </trkpt>
      <trkpt lat="42.2840180" lon="-8.6090740">
        <ele>7.3</ele>
        <time>2021-05-20T16:04:09Z</time>
      </trkpt>
      <trkpt lat="42.2840130" lon="-8.6090680">
        <ele>7.3</ele>
        <time>2021-05-20T16:04:10Z</time>
      </trkpt>
      <trkpt lat="42.2840120" lon="-8.6090700">
        <ele>7.3</ele>
        <time>2021-05-20T16:04:11Z</time>
      </trkpt>
      <trkpt lat="42.2840150" lon="-8.6090700">
        <ele>7.3</ele>
        <time>2021-05-20T16:04:12Z</time>
      </trkpt>
      <trkpt lat="42.2840180" lon="-8.6090700">
        <ele>7.3</ele>
        <time>2021-05-20T16:04:13Z</time>
      </trkpt>
      <trkpt lat="42.2840160" lon="-8.6090720">
        <ele>7.3</ele>
        <time>2021-05-20T16:04:14Z</time>
      </trkpt>
      <trkpt lat="42.2840160" lon="-8.6090700">
        <ele>7.3</ele>
        <time>2021-05-20T16:04:15Z</time>
      </trkpt>
      <trkpt lat="42.2840140" lon="-8.6090710">
        <ele>7.3</ele>
        <time>2021-05-20T16:04:16Z</time>
      </trkpt>
      <trkpt lat="42.2840130" lon="-8.6090710">
        <ele>7.3</ele>
        <time>2021-05-20T16:04:17Z</time>
      </trkpt>
      <trkpt lat="42.2840080" lon="-8.6090680">
        <ele>7.3</ele>
        <time>2021-05-20T16:04:18Z</time>
      </trkpt>
      <trkpt lat="42.2840060" lon="-8.6090690">
        <ele>7.3</ele>
        <time>2021-05-20T16:04:19Z</time>
      </trkpt>
      <trkpt lat="42.2840040" lon="-8.6090680">
        <ele>7.3</ele>
        <time>2021-05-20T16:04:20Z</time>
      </trkpt>
      <trkpt lat="42.2840030" lon="-8.6090630">
        <ele>7.3</ele>
        <time>2021-05-20T16:04:21Z</time>
      </trkpt>
      <trkpt lat="42.2840020" lon="-8.6090630">
        <ele>7.3</ele>
        <time>2021-05-20T16:04:22Z</time>
      </trkpt>
      <trkpt lat="42.2840020" lon="-8.6090630">
        <ele>7.3</ele>
        <time>2021-05-20T16:04:23Z</time>
      </trkpt>
      <trkpt lat="42.2840020" lon="-8.6090590">
        <ele>7.3</ele>
        <time>2021-05-20T16:04:24Z</time>
      </trkpt>
      <trkpt lat="42.2840020" lon="-8.6090560">
        <ele>7.3</ele>
        <time>2021-05-20T16:04:25Z</time>
      </trkpt>
      <trkpt lat="42.2840020" lon="-8.6090580">
        <ele>7.3</ele>
        <time>2021-05-20T16:04:26Z</time>
      </trkpt>
      <trkpt lat="42.2840020" lon="-8.6090550">
        <ele>7.3</ele>
        <time>2021-05-20T16:04:27Z</time>
      </trkpt>
      <trkpt lat="42.2840030" lon="-8.6090540">
        <ele>7.3</ele>
        <time>2021-05-20T16:04:28Z</time>
      </trkpt>
      <trkpt lat="42.2840050" lon="-8.6090580">
        <ele>7.3</ele>
        <time>2021-05-20T16:04:29Z</time>
      </trkpt>
      <trkpt lat="42.2840040" lon="-8.6090580">
        <ele>7.3</ele>
        <time>2021-05-20T16:04:30Z</time>
      </trkpt>
      <trkpt lat="42.2840030" lon="-8.6090550">
        <ele>7.3</ele>
        <time>2021-05-20T16:04:31Z</time>
      </trkpt>
      <trkpt lat="42.2840020" lon="-8.6090540">
        <ele>7.3</ele>
        <time>2021-05-20T16:04:32Z</time>
      </trkpt>
      <trkpt lat="42.2840020" lon="-8.6090540">
        <ele>7.3</ele>
        <time>2021-05-20T16:04:33Z</time>
      </trkpt>
      <trkpt lat="42.2840020" lon="-8.6090540">
        <ele>7.3</ele>
        <time>2021-05-20T16:04:34Z</time>
      </trkpt>
      <trkpt lat="42.2839930" lon="-8.6090470">
        <ele>7.3</ele>
        <time>2021-05-20T16:04:35Z</time>
      </trkpt>
      <trkpt lat="42.2839880" lon="-8.6090430">
        <ele>7.3</ele>
        <time>2021-05-20T16:04:36Z</time>
      </trkpt>
      <trkpt lat="42.2839850" lon="-8.6090380">
        <ele>7.3</ele>
        <time>2021-05-20T16:04:37Z</time>
      </trkpt>
      <trkpt lat="42.2839850" lon="-8.6090400">
        <ele>7.3</ele>
        <time>2021-05-20T16:04:38Z</time>
      </trkpt>
      <trkpt lat="42.2839860" lon="-8.6090430">
        <ele>7.3</ele>
        <time>2021-05-20T16:04:39Z</time>
      </trkpt>
      <trkpt lat="42.2839810" lon="-8.6090400">
        <ele>7.3</ele>
        <time>2021-05-20T16:04:40Z</time>
      </trkpt>
      <trkpt lat="42.2839770" lon="-8.6090380">
        <ele>7.3</ele>
        <time>2021-05-20T16:04:41Z</time>
      </trkpt>
      <trkpt lat="42.2839740" lon="-8.6090340">
        <ele>7.3</ele>
        <time>2021-05-20T16:04:42Z</time>
      </trkpt>
      <trkpt lat="42.2839710" lon="-8.6090280">
        <ele>7.5</ele>
        <time>2021-05-20T16:04:43Z</time>
      </trkpt>
      <trkpt lat="42.2839710" lon="-8.6090250">
        <ele>7.5</ele>
        <time>2021-05-20T16:04:44Z</time>
      </trkpt>
      <trkpt lat="42.2839710" lon="-8.6090250">
        <ele>7.5</ele>
        <time>2021-05-20T16:04:45Z</time>
      </trkpt>
      <trkpt lat="42.2839730" lon="-8.6090240">
        <ele>7.5</ele>
        <time>2021-05-20T16:04:46Z</time>
      </trkpt>
      <trkpt lat="42.2839740" lon="-8.6090250">
        <ele>7.5</ele>
        <time>2021-05-20T16:04:47Z</time>
      </trkpt>
      <trkpt lat="42.2839740" lon="-8.6090250">
        <ele>7.5</ele>
        <time>2021-05-20T16:04:48Z</time>
      </trkpt>
      <trkpt lat="42.2839790" lon="-8.6090330">
        <ele>7.3</ele>
        <time>2021-05-20T16:04:49Z</time>
      </trkpt>
      <trkpt lat="42.2839810" lon="-8.6090350">
        <ele>7.3</ele>
        <time>2021-05-20T16:04:50Z</time>
      </trkpt>
      <trkpt lat="42.2839790" lon="-8.6090320">
        <ele>7.5</ele>
        <time>2021-05-20T16:04:51Z</time>
      </trkpt>
      <trkpt lat="42.2839800" lon="-8.6090320">
        <ele>7.5</ele>
        <time>2021-05-20T16:04:52Z</time>
      </trkpt>
      <trkpt lat="42.2839800" lon="-8.6090320">
        <ele>7.5</ele>
        <time>2021-05-20T16:04:53Z</time>
      </trkpt>
      <trkpt lat="42.2839810" lon="-8.6090320">
        <ele>7.5</ele>
        <time>2021-05-20T16:04:54Z</time>
      </trkpt>
      <trkpt lat="42.2839790" lon="-8.6090310">
        <ele>7.5</ele>
        <time>2021-05-20T16:04:55Z</time>
      </trkpt>
      <trkpt lat="42.2839770" lon="-8.6090270">
        <ele>7.5</ele>
        <time>2021-05-20T16:04:56Z</time>
      </trkpt>
      <trkpt lat="42.2839790" lon="-8.6090250">
        <ele>7.5</ele>
        <time>2021-05-20T16:04:57Z</time>
      </trkpt>
      <trkpt lat="42.2839810" lon="-8.6090240">
        <ele>7.5</ele>
        <time>2021-05-20T16:04:58Z</time>
      </trkpt>
      <trkpt lat="42.2839870" lon="-8.6090270">
        <ele>7.5</ele>
        <time>2021-05-20T16:04:59Z</time>
      </trkpt>
      <trkpt lat="42.2839850" lon="-8.6090270">
        <ele>7.5</ele>
        <time>2021-05-20T16:05:00Z</time>
      </trkpt>
      <trkpt lat="42.2839910" lon="-8.6090240">
        <ele>7.5</ele>
        <time>2021-05-20T16:05:01Z</time>
      </trkpt>
      <trkpt lat="42.2840010" lon="-8.6090270">
        <ele>7.5</ele>
        <time>2021-05-20T16:05:02Z</time>
      </trkpt>
      <trkpt lat="42.2840100" lon="-8.6090290">
        <ele>7.4</ele>
        <time>2021-05-20T16:05:03Z</time>
      </trkpt>
      <trkpt lat="42.2840210" lon="-8.6090320">
        <ele>7.4</ele>
        <time>2021-05-20T16:05:04Z</time>
      </trkpt>
      <trkpt lat="42.2840460" lon="-8.6090330">
        <ele>7.4</ele>
        <time>2021-05-20T16:05:05Z</time>
      </trkpt>
      <trkpt lat="42.2840630" lon="-8.6090310">
        <ele>7.5</ele>
        <time>2021-05-20T16:05:07Z</time>
      </trkpt>
      <trkpt lat="42.2840730" lon="-8.6090300">
        <ele>7.5</ele>
        <time>2021-05-20T16:05:08Z</time>
      </trkpt>
      <trkpt lat="42.2840810" lon="-8.6090340">
        <ele>7.4</ele>
        <time>2021-05-20T16:05:09Z</time>
      </trkpt>
      <trkpt lat="42.2840970" lon="-8.6090330">
        <ele>7.4</ele>
        <time>2021-05-20T16:05:10Z</time>
      </trkpt>
      <trkpt lat="42.2841130" lon="-8.6090310">
        <ele>7.5</ele>
        <time>2021-05-20T16:05:11Z</time>
      </trkpt>
      <trkpt lat="42.2841240" lon="-8.6090300">
        <ele>7.5</ele>
        <time>2021-05-20T16:05:12Z</time>
      </trkpt>
      <trkpt lat="42.2841320" lon="-8.6090320">
        <ele>7.5</ele>
        <time>2021-05-20T16:05:13Z</time>
      </trkpt>
      <trkpt lat="42.2841440" lon="-8.6090300">
        <ele>7.6</ele>
        <time>2021-05-20T16:05:14Z</time>
      </trkpt>
      <trkpt lat="42.2841560" lon="-8.6090270">
        <ele>7.6</ele>
        <time>2021-05-20T16:05:15Z</time>
      </trkpt>
      <trkpt lat="42.2841710" lon="-8.6090260">
        <ele>7.6</ele>
        <time>2021-05-20T16:05:16Z</time>
      </trkpt>
      <trkpt lat="42.2841830" lon="-8.6090240">
        <ele>7.6</ele>
        <time>2021-05-20T16:05:17Z</time>
      </trkpt>
      <trkpt lat="42.2841910" lon="-8.6090250">
        <ele>7.6</ele>
        <time>2021-05-20T16:05:18Z</time>
      </trkpt>
      <trkpt lat="42.2842110" lon="-8.6090230">
        <ele>7.7</ele>
        <time>2021-05-20T16:05:19Z</time>
      </trkpt>
      <trkpt lat="42.2842200" lon="-8.6090210">
        <ele>7.7</ele>
        <time>2021-05-20T16:05:20Z</time>
      </trkpt>
      <trkpt lat="42.2842290" lon="-8.6090200">
        <ele>7.7</ele>
        <time>2021-05-20T16:05:21Z</time>
      </trkpt>
      <trkpt lat="42.2842500" lon="-8.6090140">
        <ele>7.7</ele>
        <time>2021-05-20T16:05:22Z</time>
      </trkpt>
      <trkpt lat="42.2842580" lon="-8.6090130">
        <ele>7.7</ele>
        <time>2021-05-20T16:05:23Z</time>
      </trkpt>
      <trkpt lat="42.2842670" lon="-8.6090110">
        <ele>7.8</ele>
        <time>2021-05-20T16:05:24Z</time>
      </trkpt>
      <trkpt lat="42.2842880" lon="-8.6090060">
        <ele>7.8</ele>
        <time>2021-05-20T16:05:25Z</time>
      </trkpt>
      <trkpt lat="42.2842980" lon="-8.6090020">
        <ele>7.9</ele>
        <time>2021-05-20T16:05:26Z</time>
      </trkpt>
      <trkpt lat="42.2843090" lon="-8.6089990">
        <ele>7.9</ele>
        <time>2021-05-20T16:05:27Z</time>
      </trkpt>
      <trkpt lat="42.2843300" lon="-8.6089980">
        <ele>7.9</ele>
        <time>2021-05-20T16:05:28Z</time>
      </trkpt>
      <trkpt lat="42.2843380" lon="-8.6089970">
        <ele>7.9</ele>
        <time>2021-05-20T16:05:29Z</time>
      </trkpt>
      <trkpt lat="42.2843460" lon="-8.6089970">
        <ele>7.9</ele>
        <time>2021-05-20T16:05:30Z</time>
      </trkpt>
      <trkpt lat="42.2843680" lon="-8.6089920">
        <ele>8.0</ele>
        <time>2021-05-20T16:05:31Z</time>
      </trkpt>
      <trkpt lat="42.2843760" lon="-8.6089880">
        <ele>8.1</ele>
        <time>2021-05-20T16:05:32Z</time>
      </trkpt>
      <trkpt lat="42.2843850" lon="-8.6089850">
        <ele>8.1</ele>
        <time>2021-05-20T16:05:33Z</time>
      </trkpt>
      <trkpt lat="42.2843950" lon="-8.6089770">
        <ele>8.2</ele>
        <time>2021-05-20T16:05:34Z</time>
      </trkpt>
      <trkpt lat="42.2844070" lon="-8.6089700">
        <ele>8.2</ele>
        <time>2021-05-20T16:05:35Z</time>
      </trkpt>
      <trkpt lat="42.2844170" lon="-8.6089620">
        <ele>8.2</ele>
        <time>2021-05-20T16:05:36Z</time>
      </trkpt>
      <trkpt lat="42.2844230" lon="-8.6089530">
        <ele>8.3</ele>
        <time>2021-05-20T16:05:37Z</time>
      </trkpt>
      <trkpt lat="42.2844240" lon="-8.6089440">
        <ele>8.4</ele>
        <time>2021-05-20T16:05:38Z</time>
      </trkpt>
      <trkpt lat="42.2844320" lon="-8.6089330">
        <ele>8.4</ele>
        <time>2021-05-20T16:05:39Z</time>
      </trkpt>
      <trkpt lat="42.2844360" lon="-8.6089210">
        <ele>8.4</ele>
        <time>2021-05-20T16:05:40Z</time>
      </trkpt>
      <trkpt lat="42.2844420" lon="-8.6089120">
        <ele>8.4</ele>
        <time>2021-05-20T16:05:41Z</time>
      </trkpt>
      <trkpt lat="42.2844490" lon="-8.6089000">
        <ele>8.5</ele>
        <time>2021-05-20T16:05:42Z</time>
      </trkpt>
      <trkpt lat="42.2844540" lon="-8.6088910">
        <ele>8.6</ele>
        <time>2021-05-20T16:05:43Z</time>
      </trkpt>
      <trkpt lat="42.2844540" lon="-8.6088850">
        <ele>8.6</ele>
        <time>2021-05-20T16:05:44Z</time>
      </trkpt>
      <trkpt lat="42.2844540" lon="-8.6088800">
        <ele>8.6</ele>
        <time>2021-05-20T16:05:45Z</time>
      </trkpt>
      <trkpt lat="42.2844560" lon="-8.6088730">
        <ele>8.6</ele>
        <time>2021-05-20T16:05:46Z</time>
      </trkpt>
      <trkpt lat="42.2844600" lon="-8.6088600">
        <ele>8.7</ele>
        <time>2021-05-20T16:05:47Z</time>
      </trkpt>
      <trkpt lat="42.2844630" lon="-8.6088520">
        <ele>8.7</ele>
        <time>2021-05-20T16:05:48Z</time>
      </trkpt>
      <trkpt lat="42.2844620" lon="-8.6088420">
        <ele>8.7</ele>
        <time>2021-05-20T16:05:49Z</time>
      </trkpt>
      <trkpt lat="42.2844650" lon="-8.6088210">
        <ele>8.7</ele>
        <time>2021-05-20T16:05:50Z</time>
      </trkpt>
      <trkpt lat="42.2844680" lon="-8.6088060">
        <ele>8.9</ele>
        <time>2021-05-20T16:05:51Z</time>
      </trkpt>
      <trkpt lat="42.2844760" lon="-8.6087950">
        <ele>8.9</ele>
        <time>2021-05-20T16:05:52Z</time>
      </trkpt>
      <trkpt lat="42.2844740" lon="-8.6087880">
        <ele>8.9</ele>
        <time>2021-05-20T16:05:53Z</time>
      </trkpt>
      <trkpt lat="42.2844730" lon="-8.6087810">
        <ele>8.9</ele>
        <time>2021-05-20T16:05:54Z</time>
      </trkpt>
      <trkpt lat="42.2844730" lon="-8.6087740">
        <ele>9.1</ele>
        <time>2021-05-20T16:05:55Z</time>
      </trkpt>
      <trkpt lat="42.2844870" lon="-8.6087670">
        <ele>9.1</ele>
        <time>2021-05-20T16:05:56Z</time>
      </trkpt>
      <trkpt lat="42.2844940" lon="-8.6087570">
        <ele>9.1</ele>
        <time>2021-05-20T16:05:57Z</time>
      </trkpt>
      <trkpt lat="42.2845010" lon="-8.6087510">
        <ele>9.1</ele>
        <time>2021-05-20T16:05:58Z</time>
      </trkpt>
      <trkpt lat="42.2845150" lon="-8.6087490">
        <ele>9.1</ele>
        <time>2021-05-20T16:05:59Z</time>
      </trkpt>
      <trkpt lat="42.2845310" lon="-8.6087350">
        <ele>9.2</ele>
        <time>2021-05-20T16:06:00Z</time>
      </trkpt>
      <trkpt lat="42.2845390" lon="-8.6087230">
        <ele>9.3</ele>
        <time>2021-05-20T16:06:01Z</time>
      </trkpt>
      <trkpt lat="42.2845460" lon="-8.6087110">
        <ele>9.3</ele>
        <time>2021-05-20T16:06:02Z</time>
      </trkpt>
      <trkpt lat="42.2845540" lon="-8.6087040">
        <ele>9.4</ele>
        <time>2021-05-20T16:06:03Z</time>
      </trkpt>
      <trkpt lat="42.2845700" lon="-8.6086930">
        <ele>9.4</ele>
        <time>2021-05-20T16:06:04Z</time>
      </trkpt>
      <trkpt lat="42.2845840" lon="-8.6086850">
        <ele>9.6</ele>
        <time>2021-05-20T16:06:05Z</time>
      </trkpt>
      <trkpt lat="42.2845960" lon="-8.6086740">
        <ele>9.6</ele>
        <time>2021-05-20T16:06:06Z</time>
      </trkpt>
      <trkpt lat="42.2846100" lon="-8.6086620">
        <ele>9.6</ele>
        <time>2021-05-20T16:06:07Z</time>
      </trkpt>
      <trkpt lat="42.2846240" lon="-8.6086570">
        <ele>9.6</ele>
        <time>2021-05-20T16:06:08Z</time>
      </trkpt>
      <trkpt lat="42.2846280" lon="-8.6086650">
        <ele>9.6</ele>
        <time>2021-05-20T16:06:09Z</time>
      </trkpt>
      <trkpt lat="42.2846360" lon="-8.6086700">
        <ele>9.6</ele>
        <time>2021-05-20T16:06:10Z</time>
      </trkpt>
      <trkpt lat="42.2846450" lon="-8.6086770">
        <ele>9.6</ele>
        <time>2021-05-20T16:06:11Z</time>
      </trkpt>
      <trkpt lat="42.2846500" lon="-8.6086750">
        <ele>9.6</ele>
        <time>2021-05-20T16:06:12Z</time>
      </trkpt>
      <trkpt lat="42.2846610" lon="-8.6086780">
        <ele>9.6</ele>
        <time>2021-05-20T16:06:13Z</time>
      </trkpt>
      <trkpt lat="42.2846650" lon="-8.6086820">
        <ele>9.6</ele>
        <time>2021-05-20T16:06:14Z</time>
      </trkpt>
      <trkpt lat="42.2846740" lon="-8.6086900">
        <ele>9.5</ele>
        <time>2021-05-20T16:06:15Z</time>
      </trkpt>
      <trkpt lat="42.2846810" lon="-8.6086980">
        <ele>9.6</ele>
        <time>2021-05-20T16:06:16Z</time>
      </trkpt>
      <trkpt lat="42.2846890" lon="-8.6087000">
        <ele>9.6</ele>
        <time>2021-05-20T16:06:17Z</time>
      </trkpt>
      <trkpt lat="42.2846930" lon="-8.6086990">
        <ele>9.6</ele>
        <time>2021-05-20T16:06:18Z</time>
      </trkpt>
      <trkpt lat="42.2846930" lon="-8.6086930">
        <ele>9.6</ele>
        <time>2021-05-20T16:06:19Z</time>
      </trkpt>
      <trkpt lat="42.2846980" lon="-8.6086860">
        <ele>9.7</ele>
        <time>2021-05-20T16:06:20Z</time>
      </trkpt>
      <trkpt lat="42.2847000" lon="-8.6086780">
        <ele>9.7</ele>
        <time>2021-05-20T16:06:21Z</time>
      </trkpt>
      <trkpt lat="42.2847030" lon="-8.6086710">
        <ele>9.7</ele>
        <time>2021-05-20T16:06:22Z</time>
      </trkpt>
      <trkpt lat="42.2846190" lon="-8.6087510">
        <ele>8.1</ele>
        <time>2021-05-21T06:33:47Z</time>
      </trkpt>
      <trkpt lat="42.2847600" lon="-8.6085300">
        <ele>8.1</ele>
        <time>2021-05-21T06:33:50Z</time>
      </trkpt>
      <trkpt lat="42.2847350" lon="-8.6087030">
        <ele>8.1</ele>
        <time>2021-05-21T06:33:57Z</time>
      </trkpt>
      <trkpt lat="42.2848440" lon="-8.6088710">
        <ele>8.1</ele>
        <time>2021-05-21T06:34:04Z</time>
      </trkpt>
      <trkpt lat="42.2847700" lon="-8.6089110">
        <ele>8.1</ele>
        <time>2021-05-21T06:34:05Z</time>
      </trkpt>
      <trkpt lat="42.2848420" lon="-8.6090250">
        <ele>8.1</ele>
        <time>2021-05-21T06:34:18Z</time>
      </trkpt>
      <trkpt lat="42.2846340" lon="-8.6088260">
        <ele>8.1</ele>
        <time>2021-05-21T06:34:19Z</time>
      </trkpt>
      <trkpt lat="42.2847440" lon="-8.6087310">
        <ele>8.1</ele>
        <time>2021-05-21T06:34:27Z</time>
      </trkpt>
      <trkpt lat="42.2846430" lon="-8.6088410">
        <ele>8.1</ele>
        <time>2021-05-21T06:34:33Z</time>
      </trkpt>
      <trkpt lat="42.2846300" lon="-8.6088540">
        <ele>8.1</ele>
        <time>2021-05-21T06:34:35Z</time>
      </trkpt>
      <trkpt lat="42.2846340" lon="-8.6088140">
        <ele>8.1</ele>
        <time>2021-05-21T06:34:37Z</time>
      </trkpt>
      <trkpt lat="42.2846110" lon="-8.6088410">
        <ele>8.1</ele>
        <time>2021-05-21T06:34:38Z</time>
      </trkpt>
      <trkpt lat="42.2846140" lon="-8.6087920">
        <ele>8.1</ele>
        <time>2021-05-21T06:34:39Z</time>
      </trkpt>
      <trkpt lat="42.2846540" lon="-8.6087510">
        <ele>8.1</ele>
        <time>2021-05-21T06:34:40Z</time>
      </trkpt>
      <trkpt lat="42.2846900" lon="-8.6087350">
        <ele>8.1</ele>
        <time>2021-05-21T06:34:41Z</time>
      </trkpt>
      <trkpt lat="42.2847260" lon="-8.6087450">
        <ele>8.1</ele>
        <time>2021-05-21T06:34:42Z</time>
      </trkpt>
      <trkpt lat="42.2847330" lon="-8.6087410">
        <ele>8.1</ele>
        <time>2021-05-21T06:34:43Z</time>
      </trkpt>
      <trkpt lat="42.2847350" lon="-8.6087480">
        <ele>8.1</ele>
        <time>2021-05-21T06:34:44Z</time>
      </trkpt>
      <trkpt lat="42.2847400" lon="-8.6087570">
        <ele>8.1</ele>
        <time>2021-05-21T06:34:45Z</time>
      </trkpt>
      <trkpt lat="42.2847440" lon="-8.6087630">
        <ele>8.1</ele>
        <time>2021-05-21T06:34:46Z</time>
      </trkpt>
      <trkpt lat="42.2847550" lon="-8.6087560">
        <ele>8.1</ele>
        <time>2021-05-21T06:34:47Z</time>
      </trkpt>
      <trkpt lat="42.2847550" lon="-8.6087370">
        <ele>8.1</ele>
        <time>2021-05-21T06:34:48Z</time>
      </trkpt>
      <trkpt lat="42.2847560" lon="-8.6087190">
        <ele>8.1</ele>
        <time>2021-05-21T06:34:49Z</time>
      </trkpt>
      <trkpt lat="42.2847560" lon="-8.6087000">
        <ele>8.1</ele>
        <time>2021-05-21T06:34:50Z</time>
      </trkpt>
      <trkpt lat="42.2847570" lon="-8.6086820">
        <ele>8.1</ele>
        <time>2021-05-21T06:34:51Z</time>
      </trkpt>
      <trkpt lat="42.2847570" lon="-8.6086630">
        <ele>8.1</ele>
        <time>2021-05-21T06:34:52Z</time>
      </trkpt>
      <trkpt lat="42.2847580" lon="-8.6086450">
        <ele>8.1</ele>
        <time>2021-05-21T06:34:53Z</time>
      </trkpt>
      <trkpt lat="42.2847580" lon="-8.6086260">
        <ele>8.1</ele>
        <time>2021-05-21T06:34:54Z</time>
      </trkpt>
      <trkpt lat="42.2847510" lon="-8.6086010">
        <ele>8.1</ele>
        <time>2021-05-21T06:34:55Z</time>
      </trkpt>
      <trkpt lat="42.2847460" lon="-8.6085850">
        <ele>8.1</ele>
        <time>2021-05-21T06:34:56Z</time>
      </trkpt>
      <trkpt lat="42.2847400" lon="-8.6085660">
        <ele>8.1</ele>
        <time>2021-05-21T06:34:57Z</time>
      </trkpt>
      <trkpt lat="42.2847200" lon="-8.6085460">
        <ele>8.1</ele>
        <time>2021-05-21T06:34:59Z</time>
      </trkpt>
      <trkpt lat="42.2846960" lon="-8.6085610">
        <ele>8.1</ele>
        <time>2021-05-21T06:35:00Z</time>
      </trkpt>
      <trkpt lat="42.2846920" lon="-8.6085840">
        <ele>8.1</ele>
        <time>2021-05-21T06:35:01Z</time>
      </trkpt>
      <trkpt lat="42.2846850" lon="-8.6086360">
        <ele>8.1</ele>
        <time>2021-05-21T06:35:02Z</time>
      </trkpt>
      <trkpt lat="42.2846560" lon="-8.6086450">
        <ele>8.1</ele>
        <time>2021-05-21T06:35:03Z</time>
      </trkpt>
      <trkpt lat="42.2846270" lon="-8.6086550">
        <ele>8.1</ele>
        <time>2021-05-21T06:35:04Z</time>
      </trkpt>
      <trkpt lat="42.2845970" lon="-8.6086640">
        <ele>8.1</ele>
        <time>2021-05-21T06:35:05Z</time>
      </trkpt>
      <trkpt lat="42.2845680" lon="-8.6086740">
        <ele>8.1</ele>
        <time>2021-05-21T06:35:06Z</time>
      </trkpt>
      <trkpt lat="42.2845390" lon="-8.6086840">
        <ele>8.1</ele>
        <time>2021-05-21T06:35:07Z</time>
      </trkpt>
      <trkpt lat="42.2845100" lon="-8.6086930">
        <ele>8.1</ele>
        <time>2021-05-21T06:35:08Z</time>
      </trkpt>
      <trkpt lat="42.2844810" lon="-8.6087030">
        <ele>8.1</ele>
        <time>2021-05-21T06:35:09Z</time>
      </trkpt>
      <trkpt lat="42.2844520" lon="-8.6087130">
        <ele>8.1</ele>
        <time>2021-05-21T06:35:10Z</time>
      </trkpt>
      <trkpt lat="42.2844220" lon="-8.6087220">
        <ele>8.1</ele>
        <time>2021-05-21T06:35:11Z</time>
      </trkpt>
      <trkpt lat="42.2843930" lon="-8.6087320">
        <ele>8.1</ele>
        <time>2021-05-21T06:35:12Z</time>
      </trkpt>
      <trkpt lat="42.2843640" lon="-8.6087410">
        <ele>8.1</ele>
        <time>2021-05-21T06:35:13Z</time>
      </trkpt>
      <trkpt lat="42.2843350" lon="-8.6087510">
        <ele>8.1</ele>
        <time>2021-05-21T06:35:14Z</time>
      </trkpt>
      <trkpt lat="42.2843530" lon="-8.6087410">
        <ele>8.1</ele>
        <time>2021-05-21T06:35:15Z</time>
      </trkpt>
      <trkpt lat="42.2843650" lon="-8.6087320">
        <ele>8.1</ele>
        <time>2021-05-21T06:35:16Z</time>
      </trkpt>
      <trkpt lat="42.2843780" lon="-8.6087230">
        <ele>8.1</ele>
        <time>2021-05-21T06:35:17Z</time>
      </trkpt>
      <trkpt lat="42.2843900" lon="-8.6087150">
        <ele>8.1</ele>
        <time>2021-05-21T06:35:18Z</time>
      </trkpt>
      <trkpt lat="42.2844020" lon="-8.6087060">
        <ele>8.1</ele>
        <time>2021-05-21T06:35:19Z</time>
      </trkpt>
      <trkpt lat="42.2844140" lon="-8.6086970">
        <ele>8.1</ele>
        <time>2021-05-21T06:35:20Z</time>
      </trkpt>
      <trkpt lat="42.2844270" lon="-8.6086880">
        <ele>8.1</ele>
        <time>2021-05-21T06:35:21Z</time>
      </trkpt>
      <trkpt lat="42.2844390" lon="-8.6086790">
        <ele>8.1</ele>
        <time>2021-05-21T06:35:22Z</time>
      </trkpt>
      <trkpt lat="42.2844510" lon="-8.6086700">
        <ele>8.1</ele>
        <time>2021-05-21T06:35:23Z</time>
      </trkpt>
      <trkpt lat="42.2844630" lon="-8.6086610">
        <ele>8.1</ele>
        <time>2021-05-21T06:35:24Z</time>
      </trkpt>
      <trkpt lat="42.2844760" lon="-8.6086530">
        <ele>8.1</ele>
        <time>2021-05-21T06:35:25Z</time>
      </trkpt>
      <trkpt lat="42.2844880" lon="-8.6086440">
        <ele>8.1</ele>
        <time>2021-05-21T06:35:26Z</time>
      </trkpt>
      <trkpt lat="42.2845000" lon="-8.6086350">
        <ele>8.1</ele>
        <time>2021-05-21T06:35:27Z</time>
      </trkpt>
      <trkpt lat="42.2845120" lon="-8.6086260">
        <ele>8.1</ele>
        <time>2021-05-21T06:35:28Z</time>
      </trkpt>
      <trkpt lat="42.2845250" lon="-8.6086170">
        <ele>8.1</ele>
        <time>2021-05-21T06:35:29Z</time>
      </trkpt>
      <trkpt lat="42.2845370" lon="-8.6086080">
        <ele>8.1</ele>
        <time>2021-05-21T06:35:30Z</time>
      </trkpt>
      <trkpt lat="42.2845490" lon="-8.6085990">
        <ele>8.1</ele>
        <time>2021-05-21T06:35:31Z</time>
      </trkpt>
      <trkpt lat="42.2845610" lon="-8.6085910">
        <ele>8.1</ele>
        <time>2021-05-21T06:35:32Z</time>
      </trkpt>
      <trkpt lat="42.2845740" lon="-8.6085820">
        <ele>8.1</ele>
        <time>2021-05-21T06:35:33Z</time>
      </trkpt>
      <trkpt lat="42.2845860" lon="-8.6085730">
        <ele>8.1</ele>
        <time>2021-05-21T06:35:34Z</time>
      </trkpt>
      <trkpt lat="42.2845980" lon="-8.6085640">
        <ele>8.1</ele>
        <time>2021-05-21T06:35:35Z</time>
      </trkpt>
      <trkpt lat="42.2846040" lon="-8.6085600">
        <ele>8.1</ele>
        <time>2021-05-21T06:35:36Z</time>
      </trkpt>
      <trkpt lat="42.2846090" lon="-8.6085550">
        <ele>8.1</ele>
        <time>2021-05-21T06:35:37Z</time>
      </trkpt>
      <trkpt lat="42.2846150" lon="-8.6085510">
        <ele>8.1</ele>
        <time>2021-05-21T06:35:38Z</time>
      </trkpt>
      <trkpt lat="42.2846200" lon="-8.6085460">
        <ele>8.1</ele>
        <time>2021-05-21T06:35:39Z</time>
      </trkpt>
      <trkpt lat="42.2846260" lon="-8.6085420">
        <ele>8.1</ele>
        <time>2021-05-21T06:35:40Z</time>
      </trkpt>
      <trkpt lat="42.2846310" lon="-8.6085370">
        <ele>8.1</ele>
        <time>2021-05-21T06:35:41Z</time>
      </trkpt>
      <trkpt lat="42.2846370" lon="-8.6085330">
        <ele>8.1</ele>
        <time>2021-05-21T06:35:42Z</time>
      </trkpt>
      <trkpt lat="42.2846420" lon="-8.6085290">
        <ele>8.1</ele>
        <time>2021-05-21T06:35:43Z</time>
      </trkpt>
      <trkpt lat="42.2846480" lon="-8.6085240">
        <ele>8.1</ele>
        <time>2021-05-21T06:35:44Z</time>
      </trkpt>
      <trkpt lat="42.2846530" lon="-8.6085200">
        <ele>8.1</ele>
        <time>2021-05-21T06:35:45Z</time>
      </trkpt>
      <trkpt lat="42.2846590" lon="-8.6085150">
        <ele>8.1</ele>
        <time>2021-05-21T06:35:46Z</time>
      </trkpt>
      <trkpt lat="42.2846640" lon="-8.6085110">
        <ele>8.1</ele>
        <time>2021-05-21T06:35:47Z</time>
      </trkpt>
      <trkpt lat="42.2846700" lon="-8.6085070">
        <ele>8.1</ele>
        <time>2021-05-21T06:35:48Z</time>
      </trkpt>
      <trkpt lat="42.2846750" lon="-8.6085020">
        <ele>8.1</ele>
        <time>2021-05-21T06:35:49Z</time>
      </trkpt>
      <trkpt lat="42.2846810" lon="-8.6084980">
        <ele>8.1</ele>
        <time>2021-05-21T06:35:50Z</time>
      </trkpt>
      <trkpt lat="42.2846860" lon="-8.6084930">
        <ele>8.1</ele>
        <time>2021-05-21T06:35:51Z</time>
      </trkpt>
      <trkpt lat="42.2846920" lon="-8.6084890">
        <ele>8.1</ele>
        <time>2021-05-21T06:35:52Z</time>
      </trkpt>
      <trkpt lat="42.2846970" lon="-8.6084840">
        <ele>8.1</ele>
        <time>2021-05-21T06:35:53Z</time>
      </trkpt>
      <trkpt lat="42.2847030" lon="-8.6084800">
        <ele>8.1</ele>
        <time>2021-05-21T06:35:54Z</time>
      </trkpt>
      <trkpt lat="42.2847030" lon="-8.6084860">
        <ele>8.1</ele>
        <time>2021-05-21T06:35:55Z</time>
      </trkpt>
      <trkpt lat="42.2847030" lon="-8.6084960">
        <ele>8.1</ele>
        <time>2021-05-21T06:35:56Z</time>
      </trkpt>
      <trkpt lat="42.2847030" lon="-8.6085050">
        <ele>8.1</ele>
        <time>2021-05-21T06:35:57Z</time>
      </trkpt>
      <trkpt lat="42.2846870" lon="-8.6085140">
        <ele>8.1</ele>
        <time>2021-05-21T06:35:58Z</time>
      </trkpt>
      <trkpt lat="42.2846820" lon="-8.6085120">
        <ele>8.1</ele>
        <time>2021-05-21T06:35:59Z</time>
      </trkpt>
      <trkpt lat="42.2846740" lon="-8.6085120">
        <ele>8.1</ele>
        <time>2021-05-21T06:36:00Z</time>
      </trkpt>
      <trkpt lat="42.2846820" lon="-8.6085060">
        <ele>8.1</ele>
        <time>2021-05-21T06:36:01Z</time>
      </trkpt>
      <trkpt lat="42.2846780" lon="-8.6085130">
        <ele>8.1</ele>
        <time>2021-05-21T06:36:02Z</time>
      </trkpt>
      <trkpt lat="42.2846660" lon="-8.6085200">
        <ele>8.1</ele>
        <time>2021-05-21T06:36:03Z</time>
      </trkpt>
      <trkpt lat="42.2846620" lon="-8.6085330">
        <ele>8.1</ele>
        <time>2021-05-21T06:36:04Z</time>
      </trkpt>
      <trkpt lat="42.2846820" lon="-8.6085300">
        <ele>8.1</ele>
        <time>2021-05-21T06:36:05Z</time>
      </trkpt>
      <trkpt lat="42.2846970" lon="-8.6085140">
        <ele>8.1</ele>
        <time>2021-05-21T06:36:06Z</time>
      </trkpt>
      <trkpt lat="42.2847110" lon="-8.6084980">
        <ele>8.1</ele>
        <time>2021-05-21T06:36:07Z</time>
      </trkpt>
      <trkpt lat="42.2847520" lon="-8.6085030">
        <ele>8.1</ele>
        <time>2021-05-21T06:36:08Z</time>
      </trkpt>
      <trkpt lat="42.2847650" lon="-8.6084610">
        <ele>8.1</ele>
        <time>2021-05-21T06:36:09Z</time>
      </trkpt>
      <trkpt lat="42.2847670" lon="-8.6084480">
        <ele>8.1</ele>
        <time>2021-05-21T06:36:10Z</time>
      </trkpt>
      <trkpt lat="42.2847670" lon="-8.6084500">
        <ele>8.1</ele>
        <time>2021-05-21T06:36:11Z</time>
      </trkpt>
      <trkpt lat="42.2847660" lon="-8.6084510">
        <ele>8.1</ele>
        <time>2021-05-21T06:36:12Z</time>
      </trkpt>
      <trkpt lat="42.2847650" lon="-8.6084530">
        <ele>8.1</ele>
        <time>2021-05-21T06:36:13Z</time>
      </trkpt>
      <trkpt lat="42.2847650" lon="-8.6084550">
        <ele>8.1</ele>
        <time>2021-05-21T06:36:14Z</time>
      </trkpt>
      <trkpt lat="42.2847640" lon="-8.6084570">
        <ele>8.1</ele>
        <time>2021-05-21T06:36:15Z</time>
      </trkpt>
      <trkpt lat="42.2847630" lon="-8.6084590">
        <ele>8.1</ele>
        <time>2021-05-21T06:36:16Z</time>
      </trkpt>
      <trkpt lat="42.2847630" lon="-8.6084600">
        <ele>8.1</ele>
        <time>2021-05-21T06:36:17Z</time>
      </trkpt>
      <trkpt lat="42.2847620" lon="-8.6084620">
        <ele>8.1</ele>
        <time>2021-05-21T06:36:18Z</time>
      </trkpt>
      <trkpt lat="42.2847610" lon="-8.6084640">
        <ele>8.1</ele>
        <time>2021-05-21T06:36:19Z</time>
      </trkpt>
      <trkpt lat="42.2847610" lon="-8.6084660">
        <ele>8.1</ele>
        <time>2021-05-21T06:36:20Z</time>
      </trkpt>
      <trkpt lat="42.2847600" lon="-8.6084680">
        <ele>8.1</ele>
        <time>2021-05-21T06:36:21Z</time>
      </trkpt>
      <trkpt lat="42.2847590" lon="-8.6084700">
        <ele>8.1</ele>
        <time>2021-05-21T06:36:22Z</time>
      </trkpt>
      <trkpt lat="42.2847590" lon="-8.6084710">
        <ele>8.1</ele>
        <time>2021-05-21T06:36:23Z</time>
      </trkpt>
      <trkpt lat="42.2847580" lon="-8.6084730">
        <ele>8.1</ele>
        <time>2021-05-21T06:36:24Z</time>
      </trkpt>
      <trkpt lat="42.2847580" lon="-8.6084750">
        <ele>8.1</ele>
        <time>2021-05-21T06:36:25Z</time>
      </trkpt>
      <trkpt lat="42.2847570" lon="-8.6084770">
        <ele>8.1</ele>
        <time>2021-05-21T06:36:26Z</time>
      </trkpt>
      <trkpt lat="42.2847560" lon="-8.6084790">
        <ele>8.1</ele>
        <time>2021-05-21T06:36:27Z</time>
      </trkpt>
      <trkpt lat="42.2847560" lon="-8.6084800">
        <ele>8.1</ele>
        <time>2021-05-21T06:36:28Z</time>
      </trkpt>
      <trkpt lat="42.2847550" lon="-8.6084820">
        <ele>8.1</ele>
        <time>2021-05-21T06:36:29Z</time>
      </trkpt>
      <trkpt lat="42.2847540" lon="-8.6084840">
        <ele>8.1</ele>
        <time>2021-05-21T06:36:30Z</time>
      </trkpt>
      <trkpt lat="42.2847540" lon="-8.6084860">
        <ele>8.1</ele>
        <time>2021-05-21T06:36:31Z</time>
      </trkpt>
      <trkpt lat="42.2847530" lon="-8.6084880">
        <ele>8.1</ele>
        <time>2021-05-21T06:36:32Z</time>
      </trkpt>
      <trkpt lat="42.2847520" lon="-8.6084890">
        <ele>8.1</ele>
        <time>2021-05-21T06:36:33Z</time>
      </trkpt>
      <trkpt lat="42.2847520" lon="-8.6084910">
        <ele>8.1</ele>
        <time>2021-05-21T06:36:34Z</time>
      </trkpt>
      <trkpt lat="42.2847510" lon="-8.6084930">
        <ele>8.1</ele>
        <time>2021-05-21T06:36:35Z</time>
      </trkpt>
      <trkpt lat="42.2847500" lon="-8.6084950">
        <ele>8.1</ele>
        <time>2021-05-21T06:36:36Z</time>
      </trkpt>
      <trkpt lat="42.2847500" lon="-8.6084970">
        <ele>8.1</ele>
        <time>2021-05-21T06:36:37Z</time>
      </trkpt>
      <trkpt lat="42.2847490" lon="-8.6084990">
        <ele>8.1</ele>
        <time>2021-05-21T06:36:38Z</time>
      </trkpt>
      <trkpt lat="42.2847480" lon="-8.6085000">
        <ele>8.1</ele>
        <time>2021-05-21T06:36:39Z</time>
      </trkpt>
      <trkpt lat="42.2847480" lon="-8.6085020">
        <ele>8.1</ele>
        <time>2021-05-21T06:36:40Z</time>
      </trkpt>
      <trkpt lat="42.2847470" lon="-8.6085040">
        <ele>8.1</ele>
        <time>2021-05-21T06:36:41Z</time>
      </trkpt>
      <trkpt lat="42.2847460" lon="-8.6085060">
        <ele>8.1</ele>
        <time>2021-05-21T06:36:42Z</time>
      </trkpt>
      <trkpt lat="42.2847460" lon="-8.6085080">
        <ele>8.1</ele>
        <time>2021-05-21T06:36:43Z</time>
      </trkpt>
      <trkpt lat="42.2847450" lon="-8.6085090">
        <ele>8.1</ele>
        <time>2021-05-21T06:36:44Z</time>
      </trkpt>
      <trkpt lat="42.2847440" lon="-8.6085110">
        <ele>8.1</ele>
        <time>2021-05-21T06:36:45Z</time>
      </trkpt>
      <trkpt lat="42.2847440" lon="-8.6085130">
        <ele>8.1</ele>
        <time>2021-05-21T06:36:46Z</time>
      </trkpt>
      <trkpt lat="42.2847430" lon="-8.6085150">
        <ele>8.1</ele>
        <time>2021-05-21T06:36:47Z</time>
      </trkpt>
      <trkpt lat="42.2847420" lon="-8.6085170">
        <ele>8.1</ele>
        <time>2021-05-21T06:36:48Z</time>
      </trkpt>
      <trkpt lat="42.2847420" lon="-8.6085180">
        <ele>8.1</ele>
        <time>2021-05-21T06:36:49Z</time>
      </trkpt>
      <trkpt lat="42.2847410" lon="-8.6085200">
        <ele>8.1</ele>
        <time>2021-05-21T06:36:50Z</time>
      </trkpt>
      <trkpt lat="42.2847400" lon="-8.6085220">
        <ele>8.1</ele>
        <time>2021-05-21T06:36:51Z</time>
      </trkpt>
      <trkpt lat="42.2847400" lon="-8.6085240">
        <ele>8.1</ele>
        <time>2021-05-21T06:36:52Z</time>
      </trkpt>
      <trkpt lat="42.2847390" lon="-8.6085260">
        <ele>8.1</ele>
        <time>2021-05-21T06:36:53Z</time>
      </trkpt>
      <trkpt lat="42.2847390" lon="-8.6085270">
        <ele>8.1</ele>
        <time>2021-05-21T06:36:54Z</time>
      </trkpt>
      <trkpt lat="42.2847380" lon="-8.6085290">
        <ele>8.1</ele>
        <time>2021-05-21T06:36:55Z</time>
      </trkpt>
      <trkpt lat="42.2847370" lon="-8.6085310">
        <ele>8.1</ele>
        <time>2021-05-21T06:36:56Z</time>
      </trkpt>
      <trkpt lat="42.2847370" lon="-8.6085330">
        <ele>8.1</ele>
        <time>2021-05-21T06:36:57Z</time>
      </trkpt>
      <trkpt lat="42.2847360" lon="-8.6085350">
        <ele>8.1</ele>
        <time>2021-05-21T06:36:58Z</time>
      </trkpt>
      <trkpt lat="42.2847350" lon="-8.6085370">
        <ele>8.1</ele>
        <time>2021-05-21T06:36:59Z</time>
      </trkpt>
      <trkpt lat="42.2847350" lon="-8.6085380">
        <ele>8.1</ele>
        <time>2021-05-21T06:37:00Z</time>
      </trkpt>
      <trkpt lat="42.2847340" lon="-8.6085400">
        <ele>8.1</ele>
        <time>2021-05-21T06:37:01Z</time>
      </trkpt>
      <trkpt lat="42.2847330" lon="-8.6085420">
        <ele>8.1</ele>
        <time>2021-05-21T06:37:02Z</time>
      </trkpt>
      <trkpt lat="42.2847330" lon="-8.6085440">
        <ele>8.1</ele>
        <time>2021-05-21T06:37:03Z</time>
      </trkpt>
      <trkpt lat="42.2847320" lon="-8.6085460">
        <ele>8.1</ele>
        <time>2021-05-21T06:37:04Z</time>
      </trkpt>
      <trkpt lat="42.2847310" lon="-8.6085470">
        <ele>8.1</ele>
        <time>2021-05-21T06:37:05Z</time>
      </trkpt>
      <trkpt lat="42.2847310" lon="-8.6085490">
        <ele>8.1</ele>
        <time>2021-05-21T06:37:06Z</time>
      </trkpt>
      <trkpt lat="42.2847300" lon="-8.6085510">
        <ele>8.1</ele>
        <time>2021-05-21T06:37:07Z</time>
      </trkpt>
      <trkpt lat="42.2847200" lon="-8.6085380">
        <ele>8.1</ele>
        <time>2021-05-21T06:37:08Z</time>
      </trkpt>
      <trkpt lat="42.2847150" lon="-8.6085450">
        <ele>8.1</ele>
        <time>2021-05-21T06:37:09Z</time>
      </trkpt>
      <trkpt lat="42.2847140" lon="-8.6085510">
        <ele>8.1</ele>
        <time>2021-05-21T06:37:10Z</time>
      </trkpt>
      <trkpt lat="42.2847590" lon="-8.6085280">
        <ele>8.1</ele>
        <time>2021-05-21T06:37:11Z</time>
      </trkpt>
      <trkpt lat="42.2847680" lon="-8.6085130">
        <ele>8.1</ele>
        <time>2021-05-21T06:37:12Z</time>
      </trkpt>
      <trkpt lat="42.2847680" lon="-8.6085080">
        <ele>8.1</ele>
        <time>2021-05-21T06:37:13Z</time>
      </trkpt>
      <trkpt lat="42.2847690" lon="-8.6084910">
        <ele>8.1</ele>
        <time>2021-05-21T06:37:14Z</time>
      </trkpt>
      <trkpt lat="42.2847780" lon="-8.6084550">
        <ele>8.1</ele>
        <time>2021-05-21T06:37:15Z</time>
      </trkpt>
      <trkpt lat="42.2847930" lon="-8.6084230">
        <ele>8.1</ele>
        <time>2021-05-21T06:37:16Z</time>
      </trkpt>
      <trkpt lat="42.2847960" lon="-8.6084130">
        <ele>8.1</ele>
        <time>2021-05-21T06:37:17Z</time>
      </trkpt>
      <trkpt lat="42.2847960" lon="-8.6084070">
        <ele>8.1</ele>
        <time>2021-05-21T06:37:18Z</time>
      </trkpt>
      <trkpt lat="42.2848070" lon="-8.6084150">
        <ele>8.1</ele>
        <time>2021-05-21T06:37:19Z</time>
      </trkpt>
      <trkpt lat="42.2848070" lon="-8.6084120">
        <ele>8.1</ele>
        <time>2021-05-21T06:37:20Z</time>
      </trkpt>
      <trkpt lat="42.2848210" lon="-8.6084120">
        <ele>8.1</ele>
        <time>2021-05-21T06:37:21Z</time>
      </trkpt>
      <trkpt lat="42.2848570" lon="-8.6083880">
        <ele>8.1</ele>
        <time>2021-05-21T06:37:22Z</time>
      </trkpt>
      <trkpt lat="42.2849050" lon="-8.6083650">
        <ele>8.1</ele>
        <time>2021-05-21T06:37:23Z</time>
      </trkpt>
      <trkpt lat="42.2849170" lon="-8.6083530">
        <ele>8.1</ele>
        <time>2021-05-21T06:37:24Z</time>
      </trkpt>
      <trkpt lat="42.2849060" lon="-8.6083490">
        <ele>8.1</ele>
        <time>2021-05-21T06:37:25Z</time>
      </trkpt>
      <trkpt lat="42.2849050" lon="-8.6083530">
        <ele>8.1</ele>
        <time>2021-05-21T06:37:26Z</time>
      </trkpt>
      <trkpt lat="42.2848990" lon="-8.6083310">
        <ele>8.1</ele>
        <time>2021-05-21T06:37:27Z</time>
      </trkpt>
      <trkpt lat="42.2848960" lon="-8.6083190">
        <ele>8.1</ele>
        <time>2021-05-21T06:37:28Z</time>
      </trkpt>
      <trkpt lat="42.2848850" lon="-8.6083180">
        <ele>8.1</ele>
        <time>2021-05-21T06:37:29Z</time>
      </trkpt>
      <trkpt lat="42.2848680" lon="-8.6083140">
        <ele>8.1</ele>
        <time>2021-05-21T06:37:30Z</time>
      </trkpt>
      <trkpt lat="42.2848730" lon="-8.6083190">
        <ele>8.1</ele>
        <time>2021-05-21T06:37:31Z</time>
      </trkpt>
      <trkpt lat="42.2848710" lon="-8.6083160">
        <ele>8.1</ele>
        <time>2021-05-21T06:37:32Z</time>
      </trkpt>
      <trkpt lat="42.2848630" lon="-8.6083180">
        <ele>8.1</ele>
        <time>2021-05-21T06:37:33Z</time>
      </trkpt>
      <trkpt lat="42.2848420" lon="-8.6082940">
        <ele>8.1</ele>
        <time>2021-05-21T06:37:34Z</time>
      </trkpt>
      <trkpt lat="42.2848230" lon="-8.6082810">
        <ele>8.1</ele>
        <time>2021-05-21T06:37:35Z</time>
      </trkpt>
      <trkpt lat="42.2848150" lon="-8.6082870">
        <ele>8.1</ele>
        <time>2021-05-21T06:37:36Z</time>
      </trkpt>
      <trkpt lat="42.2848130" lon="-8.6082740">
        <ele>8.1</ele>
        <time>2021-05-21T06:37:37Z</time>
      </trkpt>
      <trkpt lat="42.2848190" lon="-8.6082510">
        <ele>8.1</ele>
        <time>2021-05-21T06:37:38Z</time>
      </trkpt>
      <trkpt lat="42.2848260" lon="-8.6082280">
        <ele>8.1</ele>
        <time>2021-05-21T06:37:39Z</time>
      </trkpt>
      <trkpt lat="42.2848210" lon="-8.6082180">
        <ele>8.1</ele>
        <time>2021-05-21T06:37:40Z</time>
      </trkpt>
      <trkpt lat="42.2848220" lon="-8.6082090">
        <ele>8.1</ele>
        <time>2021-05-21T06:37:41Z</time>
      </trkpt>
      <trkpt lat="42.2848210" lon="-8.6082320">
        <ele>8.1</ele>
        <time>2021-05-21T06:37:42Z</time>
      </trkpt>
      <trkpt lat="42.2848140" lon="-8.6082670">
        <ele>8.1</ele>
        <time>2021-05-21T06:37:43Z</time>
      </trkpt>
      <trkpt lat="42.2848290" lon="-8.6083100">
        <ele>8.1</ele>
        <time>2021-05-21T06:37:44Z</time>
      </trkpt>
      <trkpt lat="42.2848130" lon="-8.6083490">
        <ele>8.1</ele>
        <time>2021-05-21T06:37:45Z</time>
      </trkpt>
      <trkpt lat="42.2848190" lon="-8.6083660">
        <ele>8.0</ele>
        <time>2021-05-21T06:37:46Z</time>
      </trkpt>
      <trkpt lat="42.2848200" lon="-8.6083770">
        <ele>8.0</ele>
        <time>2021-05-21T06:37:47Z</time>
      </trkpt>
      <trkpt lat="42.2848200" lon="-8.6083790">
        <ele>8.0</ele>
        <time>2021-05-21T06:37:48Z</time>
      </trkpt>
      <trkpt lat="42.2848210" lon="-8.6083780">
        <ele>8.0</ele>
        <time>2021-05-21T06:37:49Z</time>
      </trkpt>
      <trkpt lat="42.2848200" lon="-8.6083800">
        <ele>8.0</ele>
        <time>2021-05-21T06:37:50Z</time>
      </trkpt>
      <trkpt lat="42.2848140" lon="-8.6083840">
        <ele>8.0</ele>
        <time>2021-05-21T06:37:51Z</time>
      </trkpt>
      <trkpt lat="42.2848130" lon="-8.6083960">
        <ele>8.0</ele>
        <time>2021-05-21T06:37:52Z</time>
      </trkpt>
      <trkpt lat="42.2848030" lon="-8.6083950">
        <ele>8.0</ele>
        <time>2021-05-21T06:37:53Z</time>
      </trkpt>
      <trkpt lat="42.2847960" lon="-8.6083990">
        <ele>8.0</ele>
        <time>2021-05-21T06:37:54Z</time>
      </trkpt>
      <trkpt lat="42.2847900" lon="-8.6084040">
        <ele>8.0</ele>
        <time>2021-05-21T06:37:55Z</time>
      </trkpt>
      <trkpt lat="42.2847840" lon="-8.6084090">
        <ele>8.0</ele>
        <time>2021-05-21T06:37:56Z</time>
      </trkpt>
      <trkpt lat="42.2847770" lon="-8.6084130">
        <ele>8.0</ele>
        <time>2021-05-21T06:37:57Z</time>
      </trkpt>
      <trkpt lat="42.2847710" lon="-8.6084180">
        <ele>8.0</ele>
        <time>2021-05-21T06:37:58Z</time>
      </trkpt>
      <trkpt lat="42.2847640" lon="-8.6084220">
        <ele>8.0</ele>
        <time>2021-05-21T06:37:59Z</time>
      </trkpt>
      <trkpt lat="42.2847580" lon="-8.6084270">
        <ele>8.0</ele>
        <time>2021-05-21T06:38:00Z</time>
      </trkpt>
      <trkpt lat="42.2847490" lon="-8.6084460">
        <ele>8.0</ele>
        <time>2021-05-21T06:38:01Z</time>
      </trkpt>
      <trkpt lat="42.2847480" lon="-8.6084670">
        <ele>8.0</ele>
        <time>2021-05-21T06:38:02Z</time>
      </trkpt>
      <trkpt lat="42.2847510" lon="-8.6084710">
        <ele>8.0</ele>
        <time>2021-05-21T06:38:03Z</time>
      </trkpt>
      <trkpt lat="42.2847530" lon="-8.6084860">
        <ele>8.0</ele>
        <time>2021-05-21T06:38:04Z</time>
      </trkpt>
      <trkpt lat="42.2847510" lon="-8.6084930">
        <ele>8.0</ele>
        <time>2021-05-21T06:38:05Z</time>
      </trkpt>
      <trkpt lat="42.2847480" lon="-8.6085030">
        <ele>8.0</ele>
        <time>2021-05-21T06:38:06Z</time>
      </trkpt>
      <trkpt lat="42.2847420" lon="-8.6085090">
        <ele>8.0</ele>
        <time>2021-05-21T06:38:07Z</time>
      </trkpt>
      <trkpt lat="42.2849220" lon="-8.6084990">
        <ele>8.0</ele>
        <time>2021-05-21T06:38:32Z</time>
      </trkpt>
      <trkpt lat="42.2848600" lon="-8.6085670">
        <ele>8.0</ele>
        <time>2021-05-21T06:38:33Z</time>
      </trkpt>
      <trkpt lat="42.2847980" lon="-8.6086360">
        <ele>8.0</ele>
        <time>2021-05-21T06:38:34Z</time>
      </trkpt>
      <trkpt lat="42.2847710" lon="-8.6086170">
        <ele>8.0</ele>
        <time>2021-05-21T06:38:35Z</time>
      </trkpt>
      <trkpt lat="42.2847440" lon="-8.6085990">
        <ele>8.0</ele>
        <time>2021-05-21T06:38:36Z</time>
      </trkpt>
      <trkpt lat="42.2847740" lon="-8.6086050">
        <ele>8.0</ele>
        <time>2021-05-21T06:38:37Z</time>
      </trkpt>
      <trkpt lat="42.2847960" lon="-8.6085670">
        <ele>8.0</ele>
        <time>2021-05-21T06:38:38Z</time>
      </trkpt>
      <trkpt lat="42.2847980" lon="-8.6085360">
        <ele>8.0</ele>
        <time>2021-05-21T06:38:39Z</time>
      </trkpt>
      <trkpt lat="42.2848260" lon="-8.6085210">
        <ele>8.0</ele>
        <time>2021-05-21T06:38:40Z</time>
      </trkpt>
      <trkpt lat="42.2848370" lon="-8.6085300">
        <ele>8.0</ele>
        <time>2021-05-21T06:38:41Z</time>
      </trkpt>
      <trkpt lat="42.2848560" lon="-8.6085280">
        <ele>8.0</ele>
        <time>2021-05-21T06:38:42Z</time>
      </trkpt>
      <trkpt lat="42.2848780" lon="-8.6085310">
        <ele>8.0</ele>
        <time>2021-05-21T06:38:43Z</time>
      </trkpt>
      <trkpt lat="42.2848870" lon="-8.6085380">
        <ele>8.0</ele>
        <time>2021-05-21T06:38:44Z</time>
      </trkpt>
      <trkpt lat="42.2848960" lon="-8.6085440">
        <ele>8.0</ele>
        <time>2021-05-21T06:38:45Z</time>
      </trkpt>
      <trkpt lat="42.2849010" lon="-8.6085520">
        <ele>8.0</ele>
        <time>2021-05-21T06:38:46Z</time>
      </trkpt>
      <trkpt lat="42.2849210" lon="-8.6085470">
        <ele>8.0</ele>
        <time>2021-05-21T06:38:47Z</time>
      </trkpt>
      <trkpt lat="42.2849240" lon="-8.6085570">
        <ele>8.0</ele>
        <time>2021-05-21T06:38:48Z</time>
      </trkpt>
      <trkpt lat="42.2849310" lon="-8.6085570">
        <ele>8.0</ele>
        <time>2021-05-21T06:38:49Z</time>
      </trkpt>
      <trkpt lat="42.2849420" lon="-8.6085740">
        <ele>8.0</ele>
        <time>2021-05-21T06:38:50Z</time>
      </trkpt>
      <trkpt lat="42.2849370" lon="-8.6085520">
        <ele>8.0</ele>
        <time>2021-05-21T06:38:51Z</time>
      </trkpt>
      <trkpt lat="42.2849390" lon="-8.6085490">
        <ele>8.0</ele>
        <time>2021-05-21T06:38:52Z</time>
      </trkpt>
      <trkpt lat="42.2849480" lon="-8.6085640">
        <ele>8.0</ele>
        <time>2021-05-21T06:38:53Z</time>
      </trkpt>
      <trkpt lat="42.2849580" lon="-8.6085610">
        <ele>7.9</ele>
        <time>2021-05-21T06:38:54Z</time>
      </trkpt>
      <trkpt lat="42.2849740" lon="-8.6085780">
        <ele>7.9</ele>
        <time>2021-05-21T06:38:55Z</time>
      </trkpt>
      <trkpt lat="42.2849800" lon="-8.6085860">
        <ele>7.9</ele>
        <time>2021-05-21T06:38:56Z</time>
      </trkpt>
      <trkpt lat="42.2849860" lon="-8.6085950">
        <ele>7.9</ele>
        <time>2021-05-21T06:38:57Z</time>
      </trkpt>
      <trkpt lat="42.2849930" lon="-8.6085900">
        <ele>7.9</ele>
        <time>2021-05-21T06:38:58Z</time>
      </trkpt>
      <trkpt lat="42.2850010" lon="-8.6085930">
        <ele>7.9</ele>
        <time>2021-05-21T06:38:59Z</time>
      </trkpt>
      <trkpt lat="42.2850220" lon="-8.6086020">
        <ele>7.9</ele>
        <time>2021-05-21T06:39:00Z</time>
      </trkpt>
      <trkpt lat="42.2850300" lon="-8.6085920">
        <ele>7.9</ele>
        <time>2021-05-21T06:39:01Z</time>
      </trkpt>
      <trkpt lat="42.2850440" lon="-8.6085920">
        <ele>7.9</ele>
        <time>2021-05-21T06:39:02Z</time>
      </trkpt>
      <trkpt lat="42.2850370" lon="-8.6085980">
        <ele>7.9</ele>
        <time>2021-05-21T06:39:03Z</time>
      </trkpt>
      <trkpt lat="42.2850350" lon="-8.6085990">
        <ele>7.9</ele>
        <time>2021-05-21T06:39:04Z</time>
      </trkpt>
      <trkpt lat="42.2850330" lon="-8.6085900">
        <ele>7.9</ele>
        <time>2021-05-21T06:39:05Z</time>
      </trkpt>
      <trkpt lat="42.2850350" lon="-8.6085800">
        <ele>7.9</ele>
        <time>2021-05-21T06:39:06Z</time>
      </trkpt>
      <trkpt lat="42.2850360" lon="-8.6085750">
        <ele>7.9</ele>
        <time>2021-05-21T06:39:07Z</time>
      </trkpt>
      <trkpt lat="42.2850380" lon="-8.6085730">
        <ele>7.9</ele>
        <time>2021-05-21T06:39:08Z</time>
      </trkpt>
      <trkpt lat="42.2850360" lon="-8.6085800">
        <ele>7.9</ele>
        <time>2021-05-21T06:39:09Z</time>
      </trkpt>
      <trkpt lat="42.2850410" lon="-8.6085800">
        <ele>7.9</ele>
        <time>2021-05-21T06:39:10Z</time>
      </trkpt>
      <trkpt lat="42.2850390" lon="-8.6085810">
        <ele>7.9</ele>
        <time>2021-05-21T06:39:11Z</time>
      </trkpt>
      <trkpt lat="42.2850400" lon="-8.6085660">
        <ele>7.9</ele>
        <time>2021-05-21T06:39:12Z</time>
      </trkpt>
      <trkpt lat="42.2850400" lon="-8.6085490">
        <ele>7.9</ele>
        <time>2021-05-21T06:39:13Z</time>
      </trkpt>
      <trkpt lat="42.2850390" lon="-8.6085520">
        <ele>7.9</ele>
        <time>2021-05-21T06:39:14Z</time>
      </trkpt>
      <trkpt lat="42.2850390" lon="-8.6085600">
        <ele>7.9</ele>
        <time>2021-05-21T06:39:15Z</time>
      </trkpt>
      <trkpt lat="42.2850370" lon="-8.6085600">
        <ele>7.9</ele>
        <time>2021-05-21T06:39:16Z</time>
      </trkpt>
      <trkpt lat="42.2850390" lon="-8.6085790">
        <ele>7.9</ele>
        <time>2021-05-21T06:39:17Z</time>
      </trkpt>
      <trkpt lat="42.2850460" lon="-8.6086150">
        <ele>7.9</ele>
        <time>2021-05-21T06:39:18Z</time>
      </trkpt>
      <trkpt lat="42.2850390" lon="-8.6086040">
        <ele>7.9</ele>
        <time>2021-05-21T06:39:19Z</time>
      </trkpt>
      <trkpt lat="42.2850410" lon="-8.6086000">
        <ele>7.9</ele>
        <time>2021-05-21T06:39:20Z</time>
      </trkpt>
      <trkpt lat="42.2850420" lon="-8.6085910">
        <ele>7.9</ele>
        <time>2021-05-21T06:39:21Z</time>
      </trkpt>
      <trkpt lat="42.2850440" lon="-8.6085800">
        <ele>7.9</ele>
        <time>2021-05-21T06:39:22Z</time>
      </trkpt>
      <trkpt lat="42.2850480" lon="-8.6085800">
        <ele>7.9</ele>
        <time>2021-05-21T06:39:23Z</time>
      </trkpt>
      <trkpt lat="42.2850510" lon="-8.6085690">
        <ele>7.9</ele>
        <time>2021-05-21T06:39:24Z</time>
      </trkpt>
      <trkpt lat="42.2850620" lon="-8.6085740">
        <ele>7.9</ele>
        <time>2021-05-21T06:39:25Z</time>
      </trkpt>
      <trkpt lat="42.2850690" lon="-8.6085700">
        <ele>7.9</ele>
        <time>2021-05-21T06:39:26Z</time>
      </trkpt>
      <trkpt lat="42.2850770" lon="-8.6085650">
        <ele>7.9</ele>
        <time>2021-05-21T06:39:27Z</time>
      </trkpt>
      <trkpt lat="42.2850840" lon="-8.6085610">
        <ele>7.9</ele>
        <time>2021-05-21T06:39:28Z</time>
      </trkpt>
      <trkpt lat="42.2850910" lon="-8.6085560">
        <ele>7.9</ele>
        <time>2021-05-21T06:39:29Z</time>
      </trkpt>
      <trkpt lat="42.2851060" lon="-8.6085450">
        <ele>7.9</ele>
        <time>2021-05-21T06:39:30Z</time>
      </trkpt>
      <trkpt lat="42.2851130" lon="-8.6085350">
        <ele>7.9</ele>
        <time>2021-05-21T06:39:31Z</time>
      </trkpt>
      <trkpt lat="42.2851380" lon="-8.6085400">
        <ele>7.9</ele>
        <time>2021-05-21T06:39:32Z</time>
      </trkpt>
      <trkpt lat="42.2851470" lon="-8.6085410">
        <ele>7.9</ele>
        <time>2021-05-21T06:39:33Z</time>
      </trkpt>
      <trkpt lat="42.2851550" lon="-8.6085430">
        <ele>7.9</ele>
        <time>2021-05-21T06:39:34Z</time>
      </trkpt>
      <trkpt lat="42.2851660" lon="-8.6085390">
        <ele>7.9</ele>
        <time>2021-05-21T06:39:35Z</time>
      </trkpt>
      <trkpt lat="42.2851880" lon="-8.6085230">
        <ele>7.9</ele>
        <time>2021-05-21T06:39:36Z</time>
      </trkpt>
      <trkpt lat="42.2851970" lon="-8.6085350">
        <ele>7.9</ele>
        <time>2021-05-21T06:39:37Z</time>
      </trkpt>
      <trkpt lat="42.2852000" lon="-8.6085360">
        <ele>7.9</ele>
        <time>2021-05-21T06:39:38Z</time>
      </trkpt>
      <trkpt lat="42.2851980" lon="-8.6085360">
        <ele>7.9</ele>
        <time>2021-05-21T06:39:39Z</time>
      </trkpt>
      <trkpt lat="42.2852080" lon="-8.6085290">
        <ele>7.9</ele>
        <time>2021-05-21T06:39:40Z</time>
      </trkpt>
      <trkpt lat="42.2852160" lon="-8.6085320">
        <ele>7.9</ele>
        <time>2021-05-21T06:39:41Z</time>
      </trkpt>
      <trkpt lat="42.2852370" lon="-8.6085270">
        <ele>7.9</ele>
        <time>2021-05-21T06:39:42Z</time>
      </trkpt>
      <trkpt lat="42.2852450" lon="-8.6085210">
        <ele>7.9</ele>
        <time>2021-05-21T06:39:43Z</time>
      </trkpt>
      <trkpt lat="42.2852540" lon="-8.6085140">
        <ele>7.9</ele>
        <time>2021-05-21T06:39:44Z</time>
      </trkpt>
      <trkpt lat="42.2852650" lon="-8.6085230">
        <ele>7.9</ele>
        <time>2021-05-21T06:39:45Z</time>
      </trkpt>
      <trkpt lat="42.2852820" lon="-8.6085390">
        <ele>7.9</ele>
        <time>2021-05-21T06:39:46Z</time>
      </trkpt>
      <trkpt lat="42.2853130" lon="-8.6085920">
        <ele>7.9</ele>
        <time>2021-05-21T06:39:47Z</time>
      </trkpt>
      <trkpt lat="42.2853410" lon="-8.6086520">
        <ele>7.9</ele>
        <time>2021-05-21T06:39:48Z</time>
      </trkpt>
      <trkpt lat="42.2853410" lon="-8.6086310">
        <ele>7.9</ele>
        <time>2021-05-21T06:39:49Z</time>
      </trkpt>
      <trkpt lat="42.2853730" lon="-8.6086750">
        <ele>7.9</ele>
        <time>2021-05-21T06:39:50Z</time>
      </trkpt>
      <trkpt lat="42.2853910" lon="-8.6087050">
        <ele>7.9</ele>
        <time>2021-05-21T06:39:51Z</time>
      </trkpt>
      <trkpt lat="42.2853960" lon="-8.6087210">
        <ele>7.9</ele>
        <time>2021-05-21T06:39:52Z</time>
      </trkpt>
      <trkpt lat="42.2854200" lon="-8.6087440">
        <ele>7.9</ele>
        <time>2021-05-21T06:39:53Z</time>
      </trkpt>
      <trkpt lat="42.2854290" lon="-8.6087440">
        <ele>7.9</ele>
        <time>2021-05-21T06:39:54Z</time>
      </trkpt>
      <trkpt lat="42.2854520" lon="-8.6087790">
        <ele>7.9</ele>
        <time>2021-05-21T06:39:55Z</time>
      </trkpt>
      <trkpt lat="42.2854630" lon="-8.6087920">
        <ele>7.9</ele>
        <time>2021-05-21T06:39:56Z</time>
      </trkpt>
      <trkpt lat="42.2854900" lon="-8.6088360">
        <ele>7.9</ele>
        <time>2021-05-21T06:39:57Z</time>
      </trkpt>
      <trkpt lat="42.2854880" lon="-8.6088150">
        <ele>7.9</ele>
        <time>2021-05-21T06:39:58Z</time>
      </trkpt>
      <trkpt lat="42.2854990" lon="-8.6088190">
        <ele>7.9</ele>
        <time>2021-05-21T06:39:59Z</time>
      </trkpt>
      <trkpt lat="42.2855070" lon="-8.6087980">
        <ele>7.9</ele>
        <time>2021-05-21T06:40:00Z</time>
      </trkpt>
      <trkpt lat="42.2855120" lon="-8.6087810">
        <ele>7.9</ele>
        <time>2021-05-21T06:40:01Z</time>
      </trkpt>
      <trkpt lat="42.2855240" lon="-8.6087870">
        <ele>7.9</ele>
        <time>2021-05-21T06:40:02Z</time>
      </trkpt>
      <trkpt lat="42.2855320" lon="-8.6087780">
        <ele>7.9</ele>
        <time>2021-05-21T06:40:03Z</time>
      </trkpt>
      <trkpt lat="42.2855460" lon="-8.6087770">
        <ele>7.8</ele>
        <time>2021-05-21T06:40:04Z</time>
      </trkpt>
      <trkpt lat="42.2855590" lon="-8.6087770">
        <ele>7.8</ele>
        <time>2021-05-21T06:40:05Z</time>
      </trkpt>
      <trkpt lat="42.2855780" lon="-8.6087790">
        <ele>7.8</ele>
        <time>2021-05-21T06:40:06Z</time>
      </trkpt>
      <trkpt lat="42.2855870" lon="-8.6087840">
        <ele>7.8</ele>
        <time>2021-05-21T06:40:07Z</time>
      </trkpt>
      <trkpt lat="42.2855970" lon="-8.6087880">
        <ele>7.8</ele>
        <time>2021-05-21T06:40:08Z</time>
      </trkpt>
      <trkpt lat="42.2856080" lon="-8.6087920">
        <ele>7.8</ele>
        <time>2021-05-21T06:40:09Z</time>
      </trkpt>
      <trkpt lat="42.2856070" lon="-8.6087850">
        <ele>7.8</ele>
        <time>2021-05-21T06:40:10Z</time>
      </trkpt>
      <trkpt lat="42.2856140" lon="-8.6087860">
        <ele>7.8</ele>
        <time>2021-05-21T06:40:11Z</time>
      </trkpt>
      <trkpt lat="42.2856260" lon="-8.6087990">
        <ele>7.8</ele>
        <time>2021-05-21T06:40:12Z</time>
      </trkpt>
      <trkpt lat="42.2856310" lon="-8.6088120">
        <ele>7.8</ele>
        <time>2021-05-21T06:40:13Z</time>
      </trkpt>
      <trkpt lat="42.2856320" lon="-8.6088220">
        <ele>7.8</ele>
        <time>2021-05-21T06:40:14Z</time>
      </trkpt>
      <trkpt lat="42.2856360" lon="-8.6088260">
        <ele>7.8</ele>
        <time>2021-05-21T06:40:15Z</time>
      </trkpt>
      <trkpt lat="42.2856470" lon="-8.6088370">
        <ele>7.8</ele>
        <time>2021-05-21T06:40:16Z</time>
      </trkpt>
      <trkpt lat="42.2856530" lon="-8.6088350">
        <ele>7.8</ele>
        <time>2021-05-21T06:40:17Z</time>
      </trkpt>
      <trkpt lat="42.2856560" lon="-8.6088460">
        <ele>7.8</ele>
        <time>2021-05-21T06:40:18Z</time>
      </trkpt>
      <trkpt lat="42.2856590" lon="-8.6088660">
        <ele>7.8</ele>
        <time>2021-05-21T06:40:19Z</time>
      </trkpt>
      <trkpt lat="42.2856680" lon="-8.6088770">
        <ele>7.8</ele>
        <time>2021-05-21T06:40:20Z</time>
      </trkpt>
      <trkpt lat="42.2856720" lon="-8.6088900">
        <ele>7.8</ele>
        <time>2021-05-21T06:40:21Z</time>
      </trkpt>
      <trkpt lat="42.2856730" lon="-8.6089010">
        <ele>7.8</ele>
        <time>2021-05-21T06:40:22Z</time>
      </trkpt>
      <trkpt lat="42.2856750" lon="-8.6088950">
        <ele>7.8</ele>
        <time>2021-05-21T06:40:23Z</time>
      </trkpt>
      <trkpt lat="42.2856760" lon="-8.6089040">
        <ele>7.8</ele>
        <time>2021-05-21T06:40:24Z</time>
      </trkpt>
      <trkpt lat="42.2856830" lon="-8.6089050">
        <ele>7.8</ele>
        <time>2021-05-21T06:40:25Z</time>
      </trkpt>
      <trkpt lat="42.2856900" lon="-8.6089150">
        <ele>7.8</ele>
        <time>2021-05-21T06:40:26Z</time>
      </trkpt>
      <trkpt lat="42.2856880" lon="-8.6089220">
        <ele>7.8</ele>
        <time>2021-05-21T06:40:27Z</time>
      </trkpt>
      <trkpt lat="42.2856900" lon="-8.6089340">
        <ele>7.8</ele>
        <time>2021-05-21T06:40:28Z</time>
      </trkpt>
      <trkpt lat="42.2857010" lon="-8.6089350">
        <ele>7.8</ele>
        <time>2021-05-21T06:40:29Z</time>
      </trkpt>
      <trkpt lat="42.2857040" lon="-8.6089230">
        <ele>7.8</ele>
        <time>2021-05-21T06:40:30Z</time>
      </trkpt>
      <trkpt lat="42.2857090" lon="-8.6089310">
        <ele>7.8</ele>
        <time>2021-05-21T06:40:31Z</time>
      </trkpt>
      <trkpt lat="42.2857170" lon="-8.6089420">
        <ele>7.8</ele>
        <time>2021-05-21T06:40:32Z</time>
      </trkpt>
      <trkpt lat="42.2857220" lon="-8.6089500">
        <ele>7.8</ele>
        <time>2021-05-21T06:40:33Z</time>
      </trkpt>
      <trkpt lat="42.2857260" lon="-8.6089600">
        <ele>7.8</ele>
        <time>2021-05-21T06:40:34Z</time>
      </trkpt>
      <trkpt lat="42.2857400" lon="-8.6089790">
        <ele>7.8</ele>
        <time>2021-05-21T06:40:35Z</time>
      </trkpt>
      <trkpt lat="42.2857460" lon="-8.6089940">
        <ele>7.8</ele>
        <time>2021-05-21T06:40:36Z</time>
      </trkpt>
      <trkpt lat="42.2857490" lon="-8.6090040">
        <ele>7.8</ele>
        <time>2021-05-21T06:40:37Z</time>
      </trkpt>
      <trkpt lat="42.2857550" lon="-8.6090180">
        <ele>7.8</ele>
        <time>2021-05-21T06:40:38Z</time>
      </trkpt>
      <trkpt lat="42.2857610" lon="-8.6090250">
        <ele>7.8</ele>
        <time>2021-05-21T06:40:39Z</time>
      </trkpt>
      <trkpt lat="42.2857580" lon="-8.6090220">
        <ele>7.8</ele>
        <time>2021-05-21T06:40:40Z</time>
      </trkpt>
      <trkpt lat="42.2857640" lon="-8.6090230">
        <ele>7.8</ele>
        <time>2021-05-21T06:40:41Z</time>
      </trkpt>
      <trkpt lat="42.2857780" lon="-8.6090260">
        <ele>7.8</ele>
        <time>2021-05-21T06:40:42Z</time>
      </trkpt>
      <trkpt lat="42.2857760" lon="-8.6090440">
        <ele>7.8</ele>
        <time>2021-05-21T06:40:43Z</time>
      </trkpt>
      <trkpt lat="42.2857760" lon="-8.6090530">
        <ele>7.8</ele>
        <time>2021-05-21T06:40:44Z</time>
      </trkpt>
      <trkpt lat="42.2857830" lon="-8.6090700">
        <ele>7.8</ele>
        <time>2021-05-21T06:40:45Z</time>
      </trkpt>
      <trkpt lat="42.2857930" lon="-8.6090850">
        <ele>7.8</ele>
        <time>2021-05-21T06:40:46Z</time>
      </trkpt>
      <trkpt lat="42.2857940" lon="-8.6090790">
        <ele>7.8</ele>
        <time>2021-05-21T06:40:47Z</time>
      </trkpt>
      <trkpt lat="42.2858030" lon="-8.6090900">
        <ele>7.8</ele>
        <time>2021-05-21T06:40:48Z</time>
      </trkpt>
      <trkpt lat="42.2858140" lon="-8.6091010">
        <ele>7.8</ele>
        <time>2021-05-21T06:40:49Z</time>
      </trkpt>
      <trkpt lat="42.2858170" lon="-8.6091060">
        <ele>7.8</ele>
        <time>2021-05-21T06:40:50Z</time>
      </trkpt>
      <trkpt lat="42.2858250" lon="-8.6091210">
        <ele>7.8</ele>
        <time>2021-05-21T06:40:51Z</time>
      </trkpt>
      <trkpt lat="42.2858320" lon="-8.6091390">
        <ele>7.8</ele>
        <time>2021-05-21T06:40:52Z</time>
      </trkpt>
      <trkpt lat="42.2858450" lon="-8.6091510">
        <ele>7.8</ele>
        <time>2021-05-21T06:40:53Z</time>
      </trkpt>
      <trkpt lat="42.2858570" lon="-8.6091700">
        <ele>7.8</ele>
        <time>2021-05-21T06:40:54Z</time>
      </trkpt>
      <trkpt lat="42.2858670" lon="-8.6091940">
        <ele>7.8</ele>
        <time>2021-05-21T06:40:55Z</time>
      </trkpt>
      <trkpt lat="42.2858740" lon="-8.6092030">
        <ele>7.8</ele>
        <time>2021-05-21T06:40:56Z</time>
      </trkpt>
      <trkpt lat="42.2858810" lon="-8.6092130">
        <ele>7.8</ele>
        <time>2021-05-21T06:40:57Z</time>
      </trkpt>
      <trkpt lat="42.2858970" lon="-8.6092340">
        <ele>7.8</ele>
        <time>2021-05-21T06:40:58Z</time>
      </trkpt>
      <trkpt lat="42.2859030" lon="-8.6092420">
        <ele>7.9</ele>
        <time>2021-05-21T06:40:59Z</time>
      </trkpt>
      <trkpt lat="42.2859090" lon="-8.6092500">
        <ele>7.9</ele>
        <time>2021-05-21T06:41:00Z</time>
      </trkpt>
      <trkpt lat="42.2859180" lon="-8.6092530">
        <ele>7.9</ele>
        <time>2021-05-21T06:41:01Z</time>
      </trkpt>
      <trkpt lat="42.2859250" lon="-8.6092580">
        <ele>7.9</ele>
        <time>2021-05-21T06:41:02Z</time>
      </trkpt>
      <trkpt lat="42.2859340" lon="-8.6092690">
        <ele>7.9</ele>
        <time>2021-05-21T06:41:03Z</time>
      </trkpt>
      <trkpt lat="42.2859430" lon="-8.6092940">
        <ele>7.9</ele>
        <time>2021-05-21T06:41:04Z</time>
      </trkpt>
      <trkpt lat="42.2859500" lon="-8.6093040">
        <ele>7.9</ele>
        <time>2021-05-21T06:41:05Z</time>
      </trkpt>
      <trkpt lat="42.2859560" lon="-8.6093130">
        <ele>7.9</ele>
        <time>2021-05-21T06:41:06Z</time>
      </trkpt>
      <trkpt lat="42.2859660" lon="-8.6093380">
        <ele>7.9</ele>
        <time>2021-05-21T06:41:07Z</time>
      </trkpt>
      <trkpt lat="42.2859740" lon="-8.6093510">
        <ele>7.9</ele>
        <time>2021-05-21T06:41:08Z</time>
      </trkpt>
      <trkpt lat="42.2859790" lon="-8.6093610">
        <ele>7.9</ele>
        <time>2021-05-21T06:41:09Z</time>
      </trkpt>
      <trkpt lat="42.2859830" lon="-8.6093650">
        <ele>7.9</ele>
        <time>2021-05-21T06:41:10Z</time>
      </trkpt>
      <trkpt lat="42.2859880" lon="-8.6093650">
        <ele>7.9</ele>
        <time>2021-05-21T06:41:11Z</time>
      </trkpt>
      <trkpt lat="42.2859940" lon="-8.6093690">
        <ele>7.9</ele>
        <time>2021-05-21T06:41:12Z</time>
      </trkpt>
      <trkpt lat="42.2859960" lon="-8.6093840">
        <ele>7.9</ele>
        <time>2021-05-21T06:41:13Z</time>
      </trkpt>
      <trkpt lat="42.2860100" lon="-8.6094100">
        <ele>7.9</ele>
        <time>2021-05-21T06:41:14Z</time>
      </trkpt>
      <trkpt lat="42.2860180" lon="-8.6094190">
        <ele>7.9</ele>
        <time>2021-05-21T06:41:15Z</time>
      </trkpt>
      <trkpt lat="42.2860250" lon="-8.6094280">
        <ele>7.9</ele>
        <time>2021-05-21T06:41:16Z</time>
      </trkpt>
      <trkpt lat="42.2860430" lon="-8.6094440">
        <ele>7.9</ele>
        <time>2021-05-21T06:41:17Z</time>
      </trkpt>
      <trkpt lat="42.2860510" lon="-8.6094470">
        <ele>7.9</ele>
        <time>2021-05-21T06:41:18Z</time>
      </trkpt>
      <trkpt lat="42.2860600" lon="-8.6094510">
        <ele>7.9</ele>
        <time>2021-05-21T06:41:19Z</time>
      </trkpt>
      <trkpt lat="42.2860720" lon="-8.6094530">
        <ele>7.9</ele>
        <time>2021-05-21T06:41:20Z</time>
      </trkpt>
      <trkpt lat="42.2860800" lon="-8.6094500">
        <ele>7.9</ele>
        <time>2021-05-21T06:41:21Z</time>
      </trkpt>
      <trkpt lat="42.2860820" lon="-8.6094600">
        <ele>7.9</ele>
        <time>2021-05-21T06:41:22Z</time>
      </trkpt>
      <trkpt lat="42.2861060" lon="-8.6094630">
        <ele>7.9</ele>
        <time>2021-05-21T06:41:23Z</time>
      </trkpt>
      <trkpt lat="42.2861120" lon="-8.6094760">
        <ele>7.9</ele>
        <time>2021-05-21T06:41:24Z</time>
      </trkpt>
      <trkpt lat="42.2861200" lon="-8.6094780">
        <ele>7.9</ele>
        <time>2021-05-21T06:41:25Z</time>
      </trkpt>
      <trkpt lat="42.2861390" lon="-8.6094730">
        <ele>8.0</ele>
        <time>2021-05-21T06:41:26Z</time>
      </trkpt>
      <trkpt lat="42.2861350" lon="-8.6094780">
        <ele>8.0</ele>
        <time>2021-05-21T06:41:27Z</time>
      </trkpt>
      <trkpt lat="42.2861470" lon="-8.6094830">
        <ele>8.0</ele>
        <time>2021-05-21T06:41:28Z</time>
      </trkpt>
      <trkpt lat="42.2861470" lon="-8.6095030">
        <ele>8.0</ele>
        <time>2021-05-21T06:41:29Z</time>
      </trkpt>
      <trkpt lat="42.2861530" lon="-8.6095090">
        <ele>8.0</ele>
        <time>2021-05-21T06:41:30Z</time>
      </trkpt>
      <trkpt lat="42.2861640" lon="-8.6095220">
        <ele>8.0</ele>
        <time>2021-05-21T06:41:31Z</time>
      </trkpt>
      <trkpt lat="42.2861680" lon="-8.6095310">
        <ele>8.0</ele>
        <time>2021-05-21T06:41:32Z</time>
      </trkpt>
      <trkpt lat="42.2861730" lon="-8.6095390">
        <ele>8.0</ele>
        <time>2021-05-21T06:41:33Z</time>
      </trkpt>
      <trkpt lat="42.2861770" lon="-8.6095480">
        <ele>8.0</ele>
        <time>2021-05-21T06:41:34Z</time>
      </trkpt>
      <trkpt lat="42.2861970" lon="-8.6095460">
        <ele>8.0</ele>
        <time>2021-05-21T06:41:35Z</time>
      </trkpt>
      <trkpt lat="42.2862040" lon="-8.6095530">
        <ele>8.0</ele>
        <time>2021-05-21T06:41:36Z</time>
      </trkpt>
      <trkpt lat="42.2862120" lon="-8.6095590">
        <ele>8.0</ele>
        <time>2021-05-21T06:41:37Z</time>
      </trkpt>
      <trkpt lat="42.2862190" lon="-8.6095660">
        <ele>8.0</ele>
        <time>2021-05-21T06:41:38Z</time>
      </trkpt>
      <trkpt lat="42.2862280" lon="-8.6095730">
        <ele>8.0</ele>
        <time>2021-05-21T06:41:39Z</time>
      </trkpt>
      <trkpt lat="42.2862310" lon="-8.6096030">
        <ele>8.0</ele>
        <time>2021-05-21T06:41:40Z</time>
      </trkpt>
      <trkpt lat="42.2862370" lon="-8.6096400">
        <ele>8.1</ele>
        <time>2021-05-21T06:41:41Z</time>
      </trkpt>
      <trkpt lat="42.2862370" lon="-8.6096550">
        <ele>8.1</ele>
        <time>2021-05-21T06:41:42Z</time>
      </trkpt>
      <trkpt lat="42.2862350" lon="-8.6097090">
        <ele>8.1</ele>
        <time>2021-05-21T06:41:43Z</time>
      </trkpt>
      <trkpt lat="42.2862340" lon="-8.6097690">
        <ele>8.1</ele>
        <time>2021-05-21T06:41:44Z</time>
      </trkpt>
      <trkpt lat="42.2862420" lon="-8.6098230">
        <ele>8.2</ele>
        <time>2021-05-21T06:41:45Z</time>
      </trkpt>
      <trkpt lat="42.2862480" lon="-8.6098620">
        <ele>8.2</ele>
        <time>2021-05-21T06:41:46Z</time>
      </trkpt>
      <trkpt lat="42.2862550" lon="-8.6098860">
        <ele>8.1</ele>
        <time>2021-05-21T06:41:47Z</time>
      </trkpt>
      <trkpt lat="42.2862590" lon="-8.6099070">
        <ele>8.1</ele>
        <time>2021-05-21T06:41:48Z</time>
      </trkpt>
      <trkpt lat="42.2862680" lon="-8.6099480">
        <ele>8.1</ele>
        <time>2021-05-21T06:41:49Z</time>
      </trkpt>
      <trkpt lat="42.2862700" lon="-8.6099720">
        <ele>8.1</ele>
        <time>2021-05-21T06:41:50Z</time>
      </trkpt>
      <trkpt lat="42.2862710" lon="-8.6100220">
        <ele>8.1</ele>
        <time>2021-05-21T06:41:51Z</time>
      </trkpt>
      <trkpt lat="42.2862750" lon="-8.6100610">
        <ele>8.0</ele>
        <time>2021-05-21T06:41:52Z</time>
      </trkpt>
      <trkpt lat="42.2862770" lon="-8.6101150">
        <ele>8.0</ele>
        <time>2021-05-21T06:41:53Z</time>
      </trkpt>
      <trkpt lat="42.2862800" lon="-8.6101790">
        <ele>8.0</ele>
        <time>2021-05-21T06:41:54Z</time>
      </trkpt>
      <trkpt lat="42.2862820" lon="-8.6102220">
        <ele>8.0</ele>
        <time>2021-05-21T06:41:55Z</time>
      </trkpt>
      <trkpt lat="42.2862800" lon="-8.6102880">
        <ele>7.9</ele>
        <time>2021-05-21T06:41:56Z</time>
      </trkpt>
      <trkpt lat="42.2862820" lon="-8.6103350">
        <ele>7.9</ele>
        <time>2021-05-21T06:41:57Z</time>
      </trkpt>
      <trkpt lat="42.2862870" lon="-8.6103790">
        <ele>7.9</ele>
        <time>2021-05-21T06:41:58Z</time>
      </trkpt>
      <trkpt lat="42.2862970" lon="-8.6104210">
        <ele>7.9</ele>
        <time>2021-05-21T06:41:59Z</time>
      </trkpt>
      <trkpt lat="42.2863130" lon="-8.6104270">
        <ele>7.9</ele>
        <time>2021-05-21T06:42:00Z</time>
      </trkpt>
      <trkpt lat="42.2863230" lon="-8.6104510">
        <ele>7.9</ele>
        <time>2021-05-21T06:42:01Z</time>
      </trkpt>
      <trkpt lat="42.2863480" lon="-8.6104790">
        <ele>7.9</ele>
        <time>2021-05-21T06:42:02Z</time>
      </trkpt>
      <trkpt lat="42.2863560" lon="-8.6104860">
        <ele>7.9</ele>
        <time>2021-05-21T06:42:03Z</time>
      </trkpt>
      <trkpt lat="42.2863750" lon="-8.6104880">
        <ele>7.9</ele>
        <time>2021-05-21T06:42:04Z</time>
      </trkpt>
      <trkpt lat="42.2863870" lon="-8.6104740">
        <ele>7.9</ele>
        <time>2021-05-21T06:42:05Z</time>
      </trkpt>
      <trkpt lat="42.2864050" lon="-8.6104780">
        <ele>7.9</ele>
        <time>2021-05-21T06:42:06Z</time>
      </trkpt>
      <trkpt lat="42.2864120" lon="-8.6104870">
        <ele>7.9</ele>
        <time>2021-05-21T06:42:07Z</time>
      </trkpt>
      <trkpt lat="42.2864280" lon="-8.6104680">
        <ele>7.9</ele>
        <time>2021-05-21T06:42:08Z</time>
      </trkpt>
      <trkpt lat="42.2864350" lon="-8.6104610">
        <ele>7.9</ele>
        <time>2021-05-21T06:42:09Z</time>
      </trkpt>
      <trkpt lat="42.2864410" lon="-8.6104550">
        <ele>7.9</ele>
        <time>2021-05-21T06:42:10Z</time>
      </trkpt>
      <trkpt lat="42.2864650" lon="-8.6104310">
        <ele>7.9</ele>
        <time>2021-05-21T06:42:11Z</time>
      </trkpt>
      <trkpt lat="42.2864800" lon="-8.6103880">
        <ele>7.9</ele>
        <time>2021-05-21T06:42:12Z</time>
      </trkpt>
      <trkpt lat="42.2864810" lon="-8.6103720">
        <ele>7.9</ele>
        <time>2021-05-21T06:42:13Z</time>
      </trkpt>
      <trkpt lat="42.2864850" lon="-8.6103050">
        <ele>7.9</ele>
        <time>2021-05-21T06:42:14Z</time>
      </trkpt>
      <trkpt lat="42.2865020" lon="-8.6102290">
        <ele>7.9</ele>
        <time>2021-05-21T06:42:15Z</time>
      </trkpt>
      <trkpt lat="42.2865150" lon="-8.6101480">
        <ele>7.9</ele>
        <time>2021-05-21T06:42:16Z</time>
      </trkpt>
      <trkpt lat="42.2865230" lon="-8.6101340">
        <ele>7.9</ele>
        <time>2021-05-21T06:42:17Z</time>
      </trkpt>
      <trkpt lat="42.2865370" lon="-8.6101170">
        <ele>7.9</ele>
        <time>2021-05-21T06:42:18Z</time>
      </trkpt>
      <trkpt lat="42.2865710" lon="-8.6101000">
        <ele>7.9</ele>
        <time>2021-05-21T06:42:19Z</time>
      </trkpt>
      <trkpt lat="42.2865810" lon="-8.6100960">
        <ele>7.9</ele>
        <time>2021-05-21T06:42:20Z</time>
      </trkpt>
      <trkpt lat="42.2865980" lon="-8.6100920">
        <ele>7.9</ele>
        <time>2021-05-21T06:42:21Z</time>
      </trkpt>
      <trkpt lat="42.2866060" lon="-8.6100800">
        <ele>7.9</ele>
        <time>2021-05-21T06:42:22Z</time>
      </trkpt>
      <trkpt lat="42.2866240" lon="-8.6100780">
        <ele>7.9</ele>
        <time>2021-05-21T06:42:23Z</time>
      </trkpt>
      <trkpt lat="42.2866380" lon="-8.6100690">
        <ele>7.9</ele>
        <time>2021-05-21T06:42:24Z</time>
      </trkpt>
      <trkpt lat="42.2866570" lon="-8.6100430">
        <ele>7.9</ele>
        <time>2021-05-21T06:42:25Z</time>
      </trkpt>
      <trkpt lat="42.2866620" lon="-8.6100260">
        <ele>7.9</ele>
        <time>2021-05-21T06:42:26Z</time>
      </trkpt>
      <trkpt lat="42.2866900" lon="-8.6099890">
        <ele>7.8</ele>
        <time>2021-05-21T06:42:27Z</time>
      </trkpt>
      <trkpt lat="42.2867020" lon="-8.6099780">
        <ele>7.8</ele>
        <time>2021-05-21T06:42:28Z</time>
      </trkpt>
      <trkpt lat="42.2867170" lon="-8.6099390">
        <ele>7.8</ele>
        <time>2021-05-21T06:42:29Z</time>
      </trkpt>
      <trkpt lat="42.2867390" lon="-8.6099100">
        <ele>7.7</ele>
        <time>2021-05-21T06:42:30Z</time>
      </trkpt>
      <trkpt lat="42.2867430" lon="-8.6098990">
        <ele>7.7</ele>
        <time>2021-05-21T06:42:31Z</time>
      </trkpt>
      <trkpt lat="42.2867640" lon="-8.6098690">
        <ele>7.7</ele>
        <time>2021-05-21T06:42:32Z</time>
      </trkpt>
      <trkpt lat="42.2867730" lon="-8.6098630">
        <ele>7.7</ele>
        <time>2021-05-21T06:42:33Z</time>
      </trkpt>
      <trkpt lat="42.2867860" lon="-8.6098220">
        <ele>7.7</ele>
        <time>2021-05-21T06:42:34Z</time>
      </trkpt>
      <trkpt lat="42.2867930" lon="-8.6098100">
        <ele>7.7</ele>
        <time>2021-05-21T06:42:35Z</time>
      </trkpt>
      <trkpt lat="42.2868190" lon="-8.6097740">
        <ele>7.7</ele>
        <time>2021-05-21T06:42:36Z</time>
      </trkpt>
      <trkpt lat="42.2868260" lon="-8.6097620">
        <ele>7.7</ele>
        <time>2021-05-21T06:42:37Z</time>
      </trkpt>
      <trkpt lat="42.2868400" lon="-8.6097560">
        <ele>7.7</ele>
        <time>2021-05-21T06:42:38Z</time>
      </trkpt>
      <trkpt lat="42.2868460" lon="-8.6097390">
        <ele>7.7</ele>
        <time>2021-05-21T06:42:39Z</time>
      </trkpt>
      <trkpt lat="42.2868450" lon="-8.6097320">
        <ele>7.7</ele>
        <time>2021-05-21T06:42:40Z</time>
      </trkpt>
      <trkpt lat="42.2868470" lon="-8.6097330">
        <ele>7.7</ele>
        <time>2021-05-21T06:42:41Z</time>
      </trkpt>
      <trkpt lat="42.2868510" lon="-8.6097350">
        <ele>7.7</ele>
        <time>2021-05-21T06:42:42Z</time>
      </trkpt>
      <trkpt lat="42.2868540" lon="-8.6097360">
        <ele>7.7</ele>
        <time>2021-05-21T06:42:43Z</time>
      </trkpt>
      <trkpt lat="42.2868570" lon="-8.6097380">
        <ele>7.7</ele>
        <time>2021-05-21T06:42:44Z</time>
      </trkpt>
      <trkpt lat="42.2868610" lon="-8.6097390">
        <ele>7.7</ele>
        <time>2021-05-21T06:42:45Z</time>
      </trkpt>
      <trkpt lat="42.2868640" lon="-8.6097410">
        <ele>7.7</ele>
        <time>2021-05-21T06:42:46Z</time>
      </trkpt>
      <trkpt lat="42.2868680" lon="-8.6097420">
        <ele>7.7</ele>
        <time>2021-05-21T06:42:47Z</time>
      </trkpt>
      <trkpt lat="42.2868710" lon="-8.6097440">
        <ele>7.7</ele>
        <time>2021-05-21T06:42:48Z</time>
      </trkpt>
      <trkpt lat="42.2868740" lon="-8.6097450">
        <ele>7.7</ele>
        <time>2021-05-21T06:42:49Z</time>
      </trkpt>
      <trkpt lat="42.2868780" lon="-8.6097470">
        <ele>7.7</ele>
        <time>2021-05-21T06:42:50Z</time>
      </trkpt>
      <trkpt lat="42.2868810" lon="-8.6097480">
        <ele>7.7</ele>
        <time>2021-05-21T06:42:51Z</time>
      </trkpt>
      <trkpt lat="42.2868840" lon="-8.6097550">
        <ele>7.7</ele>
        <time>2021-05-21T06:42:52Z</time>
      </trkpt>
      <trkpt lat="42.2868850" lon="-8.6097540">
        <ele>7.7</ele>
        <time>2021-05-21T06:42:53Z</time>
      </trkpt>
      <trkpt lat="42.2868850" lon="-8.6097520">
        <ele>7.7</ele>
        <time>2021-05-21T06:42:54Z</time>
      </trkpt>
      <trkpt lat="42.2868860" lon="-8.6097510">
        <ele>7.7</ele>
        <time>2021-05-21T06:42:55Z</time>
      </trkpt>
      <trkpt lat="42.2868870" lon="-8.6097490">
        <ele>7.7</ele>
        <time>2021-05-21T06:42:56Z</time>
      </trkpt>
      <trkpt lat="42.2868880" lon="-8.6097470">
        <ele>7.7</ele>
        <time>2021-05-21T06:42:57Z</time>
      </trkpt>
      <trkpt lat="42.2868880" lon="-8.6097460">
        <ele>7.7</ele>
        <time>2021-05-21T06:42:58Z</time>
      </trkpt>
      <trkpt lat="42.2868890" lon="-8.6097440">
        <ele>7.7</ele>
        <time>2021-05-21T06:42:59Z</time>
      </trkpt>
      <trkpt lat="42.2868900" lon="-8.6097420">
        <ele>7.7</ele>
        <time>2021-05-21T06:43:00Z</time>
      </trkpt>
      <trkpt lat="42.2868910" lon="-8.6097410">
        <ele>7.7</ele>
        <time>2021-05-21T06:43:01Z</time>
      </trkpt>
      <trkpt lat="42.2868920" lon="-8.6097390">
        <ele>7.7</ele>
        <time>2021-05-21T06:43:02Z</time>
      </trkpt>
      <trkpt lat="42.2868920" lon="-8.6097380">
        <ele>7.7</ele>
        <time>2021-05-21T06:43:03Z</time>
      </trkpt>
      <trkpt lat="42.2868930" lon="-8.6097360">
        <ele>7.7</ele>
        <time>2021-05-21T06:43:04Z</time>
      </trkpt>
      <trkpt lat="42.2868940" lon="-8.6097340">
        <ele>7.7</ele>
        <time>2021-05-21T06:43:05Z</time>
      </trkpt>
      <trkpt lat="42.2868950" lon="-8.6097330">
        <ele>7.7</ele>
        <time>2021-05-21T06:43:06Z</time>
      </trkpt>
      <trkpt lat="42.2868960" lon="-8.6097310">
        <ele>7.7</ele>
        <time>2021-05-21T06:43:07Z</time>
      </trkpt>
      <trkpt lat="42.2868960" lon="-8.6097290">
        <ele>7.7</ele>
        <time>2021-05-21T06:43:08Z</time>
      </trkpt>
      <trkpt lat="42.2868970" lon="-8.6097280">
        <ele>7.7</ele>
        <time>2021-05-21T06:43:09Z</time>
      </trkpt>
      <trkpt lat="42.2868980" lon="-8.6097260">
        <ele>7.7</ele>
        <time>2021-05-21T06:43:10Z</time>
      </trkpt>
      <trkpt lat="42.2868990" lon="-8.6097250">
        <ele>7.7</ele>
        <time>2021-05-21T06:43:11Z</time>
      </trkpt>
      <trkpt lat="42.2868990" lon="-8.6097230">
        <ele>7.7</ele>
        <time>2021-05-21T06:43:12Z</time>
      </trkpt>
      <trkpt lat="42.2869000" lon="-8.6097210">
        <ele>7.7</ele>
        <time>2021-05-21T06:43:13Z</time>
      </trkpt>
      <trkpt lat="42.2869010" lon="-8.6097200">
        <ele>7.7</ele>
        <time>2021-05-21T06:43:14Z</time>
      </trkpt>
      <trkpt lat="42.2869020" lon="-8.6097180">
        <ele>7.7</ele>
        <time>2021-05-21T06:43:15Z</time>
      </trkpt>
      <trkpt lat="42.2869030" lon="-8.6097160">
        <ele>7.7</ele>
        <time>2021-05-21T06:43:16Z</time>
      </trkpt>
      <trkpt lat="42.2869030" lon="-8.6097150">
        <ele>7.7</ele>
        <time>2021-05-21T06:43:17Z</time>
      </trkpt>
      <trkpt lat="42.2869040" lon="-8.6097130">
        <ele>7.7</ele>
        <time>2021-05-21T06:43:18Z</time>
      </trkpt>
      <trkpt lat="42.2869050" lon="-8.6097120">
        <ele>7.7</ele>
        <time>2021-05-21T06:43:19Z</time>
      </trkpt>
      <trkpt lat="42.2869060" lon="-8.6097100">
        <ele>7.7</ele>
        <time>2021-05-21T06:43:20Z</time>
      </trkpt>
      <trkpt lat="42.2869060" lon="-8.6097080">
        <ele>7.7</ele>
        <time>2021-05-21T06:43:21Z</time>
      </trkpt>
      <trkpt lat="42.2869070" lon="-8.6097070">
        <ele>7.7</ele>
        <time>2021-05-21T06:43:22Z</time>
      </trkpt>
      <trkpt lat="42.2869080" lon="-8.6097050">
        <ele>7.7</ele>
        <time>2021-05-21T06:43:23Z</time>
      </trkpt>
      <trkpt lat="42.2869260" lon="-8.6096910">
        <ele>7.6</ele>
        <time>2021-05-21T06:43:24Z</time>
      </trkpt>
      <trkpt lat="42.2869320" lon="-8.6096850">
        <ele>7.6</ele>
        <time>2021-05-21T06:43:25Z</time>
      </trkpt>
      <trkpt lat="42.2869380" lon="-8.6096780">
        <ele>7.6</ele>
        <time>2021-05-21T06:43:26Z</time>
      </trkpt>
      <trkpt lat="42.2869440" lon="-8.6096710">
        <ele>7.6</ele>
        <time>2021-05-21T06:43:27Z</time>
      </trkpt>
      <trkpt lat="42.2869410" lon="-8.6096670">
        <ele>7.6</ele>
        <time>2021-05-21T06:43:28Z</time>
      </trkpt>
      <trkpt lat="42.2869630" lon="-8.6096610">
        <ele>7.6</ele>
        <time>2021-05-21T06:43:29Z</time>
      </trkpt>
      <trkpt lat="42.2869720" lon="-8.6096510">
        <ele>7.6</ele>
        <time>2021-05-21T06:43:30Z</time>
      </trkpt>
      <trkpt lat="42.2869800" lon="-8.6096510">
        <ele>7.6</ele>
        <time>2021-05-21T06:43:31Z</time>
      </trkpt>
      <trkpt lat="42.2869910" lon="-8.6096460">
        <ele>7.6</ele>
        <time>2021-05-21T06:43:32Z</time>
      </trkpt>
      <trkpt lat="42.2869930" lon="-8.6096380">
        <ele>7.6</ele>
        <time>2021-05-21T06:43:33Z</time>
      </trkpt>
      <trkpt lat="42.2869980" lon="-8.6096330">
        <ele>7.6</ele>
        <time>2021-05-21T06:43:34Z</time>
      </trkpt>
      <trkpt lat="42.2870170" lon="-8.6096170">
        <ele>7.6</ele>
        <time>2021-05-21T06:43:35Z</time>
      </trkpt>
      <trkpt lat="42.2870240" lon="-8.6096100">
        <ele>7.6</ele>
        <time>2021-05-21T06:43:36Z</time>
      </trkpt>
      <trkpt lat="42.2870310" lon="-8.6096020">
        <ele>7.6</ele>
        <time>2021-05-21T06:43:37Z</time>
      </trkpt>
      <trkpt lat="42.2870380" lon="-8.6095980">
        <ele>7.6</ele>
        <time>2021-05-21T06:43:38Z</time>
      </trkpt>
      <trkpt lat="42.2870540" lon="-8.6095780">
        <ele>7.6</ele>
        <time>2021-05-21T06:43:39Z</time>
      </trkpt>
      <trkpt lat="42.2870560" lon="-8.6095800">
        <ele>7.6</ele>
        <time>2021-05-21T06:43:40Z</time>
      </trkpt>
      <trkpt lat="42.2870760" lon="-8.6095790">
        <ele>7.6</ele>
        <time>2021-05-21T06:43:41Z</time>
      </trkpt>
      <trkpt lat="42.2870890" lon="-8.6095760">
        <ele>7.6</ele>
        <time>2021-05-21T06:43:42Z</time>
      </trkpt>
      <trkpt lat="42.2870960" lon="-8.6095530">
        <ele>7.5</ele>
        <time>2021-05-21T06:43:43Z</time>
      </trkpt>
      <trkpt lat="42.2871100" lon="-8.6095520">
        <ele>7.5</ele>
        <time>2021-05-21T06:43:44Z</time>
      </trkpt>
      <trkpt lat="42.2871230" lon="-8.6095230">
        <ele>7.5</ele>
        <time>2021-05-21T06:43:45Z</time>
      </trkpt>
      <trkpt lat="42.2871330" lon="-8.6095160">
        <ele>7.5</ele>
        <time>2021-05-21T06:43:46Z</time>
      </trkpt>
      <trkpt lat="42.2871430" lon="-8.6095090">
        <ele>7.5</ele>
        <time>2021-05-21T06:43:47Z</time>
      </trkpt>
      <trkpt lat="42.2871540" lon="-8.6095050">
        <ele>7.5</ele>
        <time>2021-05-21T06:43:48Z</time>
      </trkpt>
      <trkpt lat="42.2871650" lon="-8.6094840">
        <ele>7.5</ele>
        <time>2021-05-21T06:43:49Z</time>
      </trkpt>
      <trkpt lat="42.2871700" lon="-8.6094760">
        <ele>7.5</ele>
        <time>2021-05-21T06:43:50Z</time>
      </trkpt>
      <trkpt lat="42.2871810" lon="-8.6094550">
        <ele>7.5</ele>
        <time>2021-05-21T06:43:51Z</time>
      </trkpt>
      <trkpt lat="42.2871900" lon="-8.6094550">
        <ele>7.5</ele>
        <time>2021-05-21T06:43:52Z</time>
      </trkpt>
      <trkpt lat="42.2872080" lon="-8.6094560">
        <ele>7.5</ele>
        <time>2021-05-21T06:43:53Z</time>
      </trkpt>
      <trkpt lat="42.2872190" lon="-8.6094520">
        <ele>7.5</ele>
        <time>2021-05-21T06:43:54Z</time>
      </trkpt>
      <trkpt lat="42.2872200" lon="-8.6094440">
        <ele>7.5</ele>
        <time>2021-05-21T06:43:55Z</time>
      </trkpt>
      <trkpt lat="42.2872300" lon="-8.6094280">
        <ele>7.5</ele>
        <time>2021-05-21T06:43:56Z</time>
      </trkpt>
      <trkpt lat="42.2872420" lon="-8.6094250">
        <ele>7.5</ele>
        <time>2021-05-21T06:43:57Z</time>
      </trkpt>
      <trkpt lat="42.2872560" lon="-8.6094110">
        <ele>7.5</ele>
        <time>2021-05-21T06:43:58Z</time>
      </trkpt>
      <trkpt lat="42.2872620" lon="-8.6094040">
        <ele>7.5</ele>
        <time>2021-05-21T06:43:59Z</time>
      </trkpt>
      <trkpt lat="42.2872670" lon="-8.6093960">
        <ele>7.5</ele>
        <time>2021-05-21T06:44:00Z</time>
      </trkpt>
      <trkpt lat="42.2872730" lon="-8.6093880">
        <ele>7.5</ele>
        <time>2021-05-21T06:44:01Z</time>
      </trkpt>
      <trkpt lat="42.2872830" lon="-8.6093770">
        <ele>7.5</ele>
        <time>2021-05-21T06:44:02Z</time>
      </trkpt>
      <trkpt lat="42.2872910" lon="-8.6093710">
        <ele>7.5</ele>
        <time>2021-05-21T06:44:03Z</time>
      </trkpt>
      <trkpt lat="42.2873040" lon="-8.6093680">
        <ele>7.5</ele>
        <time>2021-05-21T06:44:04Z</time>
      </trkpt>
      <trkpt lat="42.2873190" lon="-8.6093600">
        <ele>7.5</ele>
        <time>2021-05-21T06:44:05Z</time>
      </trkpt>
      <trkpt lat="42.2873300" lon="-8.6093570">
        <ele>7.5</ele>
        <time>2021-05-21T06:44:06Z</time>
      </trkpt>
      <trkpt lat="42.2873380" lon="-8.6093460">
        <ele>7.5</ele>
        <time>2021-05-21T06:44:07Z</time>
      </trkpt>
      <trkpt lat="42.2873500" lon="-8.6093560">
        <ele>7.6</ele>
        <time>2021-05-21T06:44:08Z</time>
      </trkpt>
      <trkpt lat="42.2873540" lon="-8.6093710">
        <ele>7.6</ele>
        <time>2021-05-21T06:44:09Z</time>
      </trkpt>
      <trkpt lat="42.2873510" lon="-8.6093750">
        <ele>7.6</ele>
        <time>2021-05-21T06:44:10Z</time>
      </trkpt>
      <trkpt lat="42.2873470" lon="-8.6093770">
        <ele>7.6</ele>
        <time>2021-05-21T06:44:11Z</time>
      </trkpt>
      <trkpt lat="42.2873480" lon="-8.6093850">
        <ele>7.6</ele>
        <time>2021-05-21T06:44:12Z</time>
      </trkpt>
      <trkpt lat="42.2873550" lon="-8.6093940">
        <ele>7.6</ele>
        <time>2021-05-21T06:44:13Z</time>
      </trkpt>
      <trkpt lat="42.2873580" lon="-8.6093990">
        <ele>7.6</ele>
        <time>2021-05-21T06:44:14Z</time>
      </trkpt>
      <trkpt lat="42.2873620" lon="-8.6094050">
        <ele>7.6</ele>
        <time>2021-05-21T06:44:15Z</time>
      </trkpt>
      <trkpt lat="42.2873650" lon="-8.6094110">
        <ele>7.6</ele>
        <time>2021-05-21T06:44:16Z</time>
      </trkpt>
      <trkpt lat="42.2873690" lon="-8.6094160">
        <ele>7.6</ele>
        <time>2021-05-21T06:44:17Z</time>
      </trkpt>
      <trkpt lat="42.2873720" lon="-8.6094220">
        <ele>7.6</ele>
        <time>2021-05-21T06:44:18Z</time>
      </trkpt>
      <trkpt lat="42.2873790" lon="-8.6094170">
        <ele>7.6</ele>
        <time>2021-05-21T06:44:19Z</time>
      </trkpt>
      <trkpt lat="42.2873810" lon="-8.6094250">
        <ele>7.6</ele>
        <time>2021-05-21T06:44:20Z</time>
      </trkpt>
      <trkpt lat="42.2873950" lon="-8.6094460">
        <ele>7.6</ele>
        <time>2021-05-21T06:44:21Z</time>
      </trkpt>
      <trkpt lat="42.2874100" lon="-8.6094670">
        <ele>7.6</ele>
        <time>2021-05-21T06:44:22Z</time>
      </trkpt>
      <trkpt lat="42.2874120" lon="-8.6094800">
        <ele>7.6</ele>
        <time>2021-05-21T06:44:23Z</time>
      </trkpt>
      <trkpt lat="42.2874160" lon="-8.6094890">
        <ele>7.6</ele>
        <time>2021-05-21T06:44:24Z</time>
      </trkpt>
      <trkpt lat="42.2874190" lon="-8.6094890">
        <ele>7.6</ele>
        <time>2021-05-21T06:44:25Z</time>
      </trkpt>
      <trkpt lat="42.2874180" lon="-8.6094850">
        <ele>7.6</ele>
        <time>2021-05-21T06:44:26Z</time>
      </trkpt>
      <trkpt lat="42.2874290" lon="-8.6094890">
        <ele>7.6</ele>
        <time>2021-05-21T06:44:27Z</time>
      </trkpt>
      <trkpt lat="42.2874400" lon="-8.6094900">
        <ele>7.6</ele>
        <time>2021-05-21T06:44:28Z</time>
      </trkpt>
      <trkpt lat="42.2874460" lon="-8.6094670">
        <ele>7.6</ele>
        <time>2021-05-21T06:44:29Z</time>
      </trkpt>
      <trkpt lat="42.2874490" lon="-8.6094540">
        <ele>7.6</ele>
        <time>2021-05-21T06:44:30Z</time>
      </trkpt>
      <trkpt lat="42.2874510" lon="-8.6094410">
        <ele>7.6</ele>
        <time>2021-05-21T06:44:31Z</time>
      </trkpt>
      <trkpt lat="42.2874630" lon="-8.6094280">
        <ele>7.6</ele>
        <time>2021-05-21T06:44:32Z</time>
      </trkpt>
      <trkpt lat="42.2874750" lon="-8.6094130">
        <ele>7.7</ele>
        <time>2021-05-21T06:44:33Z</time>
      </trkpt>
      <trkpt lat="42.2874860" lon="-8.6094050">
        <ele>7.7</ele>
        <time>2021-05-21T06:44:34Z</time>
      </trkpt>
      <trkpt lat="42.2874980" lon="-8.6093870">
        <ele>7.7</ele>
        <time>2021-05-21T06:44:35Z</time>
      </trkpt>
      <trkpt lat="42.2875140" lon="-8.6093730">
        <ele>7.7</ele>
        <time>2021-05-21T06:44:36Z</time>
      </trkpt>
      <trkpt lat="42.2875250" lon="-8.6093620">
        <ele>7.7</ele>
        <time>2021-05-21T06:44:37Z</time>
      </trkpt>
      <trkpt lat="42.2875390" lon="-8.6093360">
        <ele>7.7</ele>
        <time>2021-05-21T06:44:38Z</time>
      </trkpt>
      <trkpt lat="42.2875430" lon="-8.6093260">
        <ele>7.7</ele>
        <time>2021-05-21T06:44:39Z</time>
      </trkpt>
      <trkpt lat="42.2875470" lon="-8.6093160">
        <ele>7.7</ele>
        <time>2021-05-21T06:44:40Z</time>
      </trkpt>
      <trkpt lat="42.2875470" lon="-8.6093090">
        <ele>7.7</ele>
        <time>2021-05-21T06:44:41Z</time>
      </trkpt>
      <trkpt lat="42.2875460" lon="-8.6092980">
        <ele>7.7</ele>
        <time>2021-05-21T06:44:42Z</time>
      </trkpt>
      <trkpt lat="42.2875620" lon="-8.6092840">
        <ele>7.7</ele>
        <time>2021-05-21T06:44:43Z</time>
      </trkpt>
      <trkpt lat="42.2875620" lon="-8.6092620">
        <ele>7.7</ele>
        <time>2021-05-21T06:44:44Z</time>
      </trkpt>
      <trkpt lat="42.2875710" lon="-8.6092490">
        <ele>7.7</ele>
        <time>2021-05-21T06:44:45Z</time>
      </trkpt>
      <trkpt lat="42.2875840" lon="-8.6092320">
        <ele>7.8</ele>
        <time>2021-05-21T06:44:46Z</time>
      </trkpt>
      <trkpt lat="42.2875900" lon="-8.6092150">
        <ele>7.8</ele>
        <time>2021-05-21T06:44:47Z</time>
      </trkpt>
      <trkpt lat="42.2876000" lon="-8.6091930">
        <ele>7.8</ele>
        <time>2021-05-21T06:44:48Z</time>
      </trkpt>
      <trkpt lat="42.2876060" lon="-8.6091730">
        <ele>7.8</ele>
        <time>2021-05-21T06:44:49Z</time>
      </trkpt>
      <trkpt lat="42.2876150" lon="-8.6091540">
        <ele>7.8</ele>
        <time>2021-05-21T06:44:50Z</time>
      </trkpt>
      <trkpt lat="42.2876210" lon="-8.6091410">
        <ele>7.8</ele>
        <time>2021-05-21T06:44:51Z</time>
      </trkpt>
      <trkpt lat="42.2876370" lon="-8.6091250">
        <ele>7.8</ele>
        <time>2021-05-21T06:44:52Z</time>
      </trkpt>
      <trkpt lat="42.2876440" lon="-8.6091160">
        <ele>7.8</ele>
        <time>2021-05-21T06:44:53Z</time>
      </trkpt>
      <trkpt lat="42.2876500" lon="-8.6091080">
        <ele>7.8</ele>
        <time>2021-05-21T06:44:54Z</time>
      </trkpt>
      <trkpt lat="42.2876620" lon="-8.6090980">
        <ele>7.9</ele>
        <time>2021-05-21T06:44:55Z</time>
      </trkpt>
      <trkpt lat="42.2876750" lon="-8.6090890">
        <ele>7.9</ele>
        <time>2021-05-21T06:44:56Z</time>
      </trkpt>
      <trkpt lat="42.2876850" lon="-8.6090810">
        <ele>7.9</ele>
        <time>2021-05-21T06:44:57Z</time>
      </trkpt>
      <trkpt lat="42.2876930" lon="-8.6090670">
        <ele>7.9</ele>
        <time>2021-05-21T06:44:58Z</time>
      </trkpt>
      <trkpt lat="42.2876990" lon="-8.6090580">
        <ele>7.9</ele>
        <time>2021-05-21T06:44:59Z</time>
      </trkpt>
      <trkpt lat="42.2877230" lon="-8.6090480">
        <ele>7.9</ele>
        <time>2021-05-21T06:45:00Z</time>
      </trkpt>
      <trkpt lat="42.2877300" lon="-8.6090470">
        <ele>8.0</ele>
        <time>2021-05-21T06:45:01Z</time>
      </trkpt>
      <trkpt lat="42.2877460" lon="-8.6090380">
        <ele>8.0</ele>
        <time>2021-05-21T06:45:02Z</time>
      </trkpt>
      <trkpt lat="42.2877560" lon="-8.6090350">
        <ele>8.0</ele>
        <time>2021-05-21T06:45:03Z</time>
      </trkpt>
      <trkpt lat="42.2877660" lon="-8.6090320">
        <ele>8.0</ele>
        <time>2021-05-21T06:45:04Z</time>
      </trkpt>
      <trkpt lat="42.2877820" lon="-8.6090120">
        <ele>8.1</ele>
        <time>2021-05-21T06:45:05Z</time>
      </trkpt>
      <trkpt lat="42.2877890" lon="-8.6090080">
        <ele>8.1</ele>
        <time>2021-05-21T06:45:06Z</time>
      </trkpt>
      <trkpt lat="42.2877960" lon="-8.6090030">
        <ele>8.1</ele>
        <time>2021-05-21T06:45:07Z</time>
      </trkpt>
      <trkpt lat="42.2878160" lon="-8.6089910">
        <ele>8.1</ele>
        <time>2021-05-21T06:45:08Z</time>
      </trkpt>
      <trkpt lat="42.2878230" lon="-8.6089850">
        <ele>8.1</ele>
        <time>2021-05-21T06:45:09Z</time>
      </trkpt>
      <trkpt lat="42.2878300" lon="-8.6089780">
        <ele>8.2</ele>
        <time>2021-05-21T06:45:10Z</time>
      </trkpt>
      <trkpt lat="42.2878460" lon="-8.6089680">
        <ele>8.2</ele>
        <time>2021-05-21T06:45:11Z</time>
      </trkpt>
      <trkpt lat="42.2878580" lon="-8.6089630">
        <ele>8.2</ele>
        <time>2021-05-21T06:45:12Z</time>
      </trkpt>
      <trkpt lat="42.2878710" lon="-8.6089550">
        <ele>8.2</ele>
        <time>2021-05-21T06:45:13Z</time>
      </trkpt>
      <trkpt lat="42.2878810" lon="-8.6089520">
        <ele>8.3</ele>
        <time>2021-05-21T06:45:14Z</time>
      </trkpt>
      <trkpt lat="42.2878890" lon="-8.6089520">
        <ele>8.3</ele>
        <time>2021-05-21T06:45:15Z</time>
      </trkpt>
      <trkpt lat="42.2879010" lon="-8.6089470">
        <ele>8.3</ele>
        <time>2021-05-21T06:45:16Z</time>
      </trkpt>
      <trkpt lat="42.2879090" lon="-8.6089320">
        <ele>8.3</ele>
        <time>2021-05-21T06:45:17Z</time>
      </trkpt>
      <trkpt lat="42.2879070" lon="-8.6089190">
        <ele>8.4</ele>
        <time>2021-05-21T06:45:18Z</time>
      </trkpt>
      <trkpt lat="42.2879340" lon="-8.6089040">
        <ele>8.4</ele>
        <time>2021-05-21T06:45:19Z</time>
      </trkpt>
      <trkpt lat="42.2879420" lon="-8.6089020">
        <ele>8.5</ele>
        <time>2021-05-21T06:45:20Z</time>
      </trkpt>
      <trkpt lat="42.2879600" lon="-8.6089000">
        <ele>8.5</ele>
        <time>2021-05-21T06:45:21Z</time>
      </trkpt>
      <trkpt lat="42.2879730" lon="-8.6089010">
        <ele>8.5</ele>
        <time>2021-05-21T06:45:22Z</time>
      </trkpt>
      <trkpt lat="42.2879850" lon="-8.6088930">
        <ele>8.6</ele>
        <time>2021-05-21T06:45:23Z</time>
      </trkpt>
      <trkpt lat="42.2879910" lon="-8.6088890">
        <ele>8.6</ele>
        <time>2021-05-21T06:45:24Z</time>
      </trkpt>
      <trkpt lat="42.2880020" lon="-8.6088870">
        <ele>8.6</ele>
        <time>2021-05-21T06:45:25Z</time>
      </trkpt>
      <trkpt lat="42.2880130" lon="-8.6088840">
        <ele>8.6</ele>
        <time>2021-05-21T06:45:26Z</time>
      </trkpt>
      <trkpt lat="42.2880160" lon="-8.6088800">
        <ele>8.7</ele>
        <time>2021-05-21T06:45:27Z</time>
      </trkpt>
      <trkpt lat="42.2880330" lon="-8.6088780">
        <ele>8.7</ele>
        <time>2021-05-21T06:45:28Z</time>
      </trkpt>
      <trkpt lat="42.2880480" lon="-8.6088690">
        <ele>8.7</ele>
        <time>2021-05-21T06:45:29Z</time>
      </trkpt>
      <trkpt lat="42.2880640" lon="-8.6088600">
        <ele>8.8</ele>
        <time>2021-05-21T06:45:30Z</time>
      </trkpt>
      <trkpt lat="42.2880630" lon="-8.6088520">
        <ele>8.8</ele>
        <time>2021-05-21T06:45:31Z</time>
      </trkpt>
      <trkpt lat="42.2880790" lon="-8.6088360">
        <ele>8.9</ele>
        <time>2021-05-21T06:45:32Z</time>
      </trkpt>
      <trkpt lat="42.2880850" lon="-8.6088340">
        <ele>8.9</ele>
        <time>2021-05-21T06:45:33Z</time>
      </trkpt>
      <trkpt lat="42.2880910" lon="-8.6088280">
        <ele>8.9</ele>
        <time>2021-05-21T06:45:34Z</time>
      </trkpt>
      <trkpt lat="42.2881100" lon="-8.6088190">
        <ele>8.9</ele>
        <time>2021-05-21T06:45:35Z</time>
      </trkpt>
      <trkpt lat="42.2881250" lon="-8.6088120">
        <ele>9.0</ele>
        <time>2021-05-21T06:45:36Z</time>
      </trkpt>
      <trkpt lat="42.2881330" lon="-8.6088080">
        <ele>9.0</ele>
        <time>2021-05-21T06:45:37Z</time>
      </trkpt>
      <trkpt lat="42.2881370" lon="-8.6088020">
        <ele>9.0</ele>
        <time>2021-05-21T06:45:38Z</time>
      </trkpt>
      <trkpt lat="42.2881700" lon="-8.6087870">
        <ele>9.1</ele>
        <time>2021-05-21T06:45:39Z</time>
      </trkpt>
      <trkpt lat="42.2881820" lon="-8.6087820">
        <ele>9.1</ele>
        <time>2021-05-21T06:45:40Z</time>
      </trkpt>
      <trkpt lat="42.2882010" lon="-8.6087780">
        <ele>9.2</ele>
        <time>2021-05-21T06:45:41Z</time>
      </trkpt>
      <trkpt lat="42.2882160" lon="-8.6087740">
        <ele>9.2</ele>
        <time>2021-05-21T06:45:42Z</time>
      </trkpt>
      <trkpt lat="42.2882270" lon="-8.6087660">
        <ele>9.2</ele>
        <time>2021-05-21T06:45:43Z</time>
      </trkpt>
      <trkpt lat="42.2882330" lon="-8.6087640">
        <ele>9.3</ele>
        <time>2021-05-21T06:45:44Z</time>
      </trkpt>
      <trkpt lat="42.2882460" lon="-8.6087560">
        <ele>9.3</ele>
        <time>2021-05-21T06:45:45Z</time>
      </trkpt>
      <trkpt lat="42.2882560" lon="-8.6087410">
        <ele>9.3</ele>
        <time>2021-05-21T06:45:46Z</time>
      </trkpt>
      <trkpt lat="42.2882650" lon="-8.6087380">
        <ele>9.3</ele>
        <time>2021-05-21T06:45:47Z</time>
      </trkpt>
      <trkpt lat="42.2882750" lon="-8.6087340">
        <ele>9.3</ele>
        <time>2021-05-21T06:45:48Z</time>
      </trkpt>
      <trkpt lat="42.2882840" lon="-8.6087300">
        <ele>9.3</ele>
        <time>2021-05-21T06:45:49Z</time>
      </trkpt>
      <trkpt lat="42.2883030" lon="-8.6087160">
        <ele>9.4</ele>
        <time>2021-05-21T06:45:50Z</time>
      </trkpt>
      <trkpt lat="42.2883130" lon="-8.6087090">
        <ele>9.4</ele>
        <time>2021-05-21T06:45:51Z</time>
      </trkpt>
      <trkpt lat="42.2883220" lon="-8.6087030">
        <ele>9.4</ele>
        <time>2021-05-21T06:45:52Z</time>
      </trkpt>
      <trkpt lat="42.2883210" lon="-8.6086990">
        <ele>9.4</ele>
        <time>2021-05-21T06:45:53Z</time>
      </trkpt>
      <trkpt lat="42.2883300" lon="-8.6086980">
        <ele>9.4</ele>
        <time>2021-05-21T06:45:54Z</time>
      </trkpt>
      <trkpt lat="42.2883510" lon="-8.6086910">
        <ele>9.5</ele>
        <time>2021-05-21T06:45:55Z</time>
      </trkpt>
      <trkpt lat="42.2883810" lon="-8.6086970">
        <ele>9.5</ele>
        <time>2021-05-21T06:45:56Z</time>
      </trkpt>
      <trkpt lat="42.2883900" lon="-8.6086950">
        <ele>9.5</ele>
        <time>2021-05-21T06:45:57Z</time>
      </trkpt>
      <trkpt lat="42.2884150" lon="-8.6086830">
        <ele>9.6</ele>
        <time>2021-05-21T06:45:58Z</time>
      </trkpt>
      <trkpt lat="42.2884250" lon="-8.6086800">
        <ele>9.6</ele>
        <time>2021-05-21T06:45:59Z</time>
      </trkpt>
      <trkpt lat="42.2884420" lon="-8.6086700">
        <ele>9.6</ele>
        <time>2021-05-21T06:46:00Z</time>
      </trkpt>
      <trkpt lat="42.2884470" lon="-8.6086700">
        <ele>9.6</ele>
        <time>2021-05-21T06:46:01Z</time>
      </trkpt>
      <trkpt lat="42.2884520" lon="-8.6086700">
        <ele>9.6</ele>
        <time>2021-05-21T06:46:02Z</time>
      </trkpt>
      <trkpt lat="42.2884570" lon="-8.6086700">
        <ele>9.6</ele>
        <time>2021-05-21T06:46:03Z</time>
      </trkpt>
      <trkpt lat="42.2884620" lon="-8.6086700">
        <ele>9.7</ele>
        <time>2021-05-21T06:46:04Z</time>
      </trkpt>
      <trkpt lat="42.2884800" lon="-8.6086700">
        <ele>9.7</ele>
        <time>2021-05-21T06:46:05Z</time>
      </trkpt>
      <trkpt lat="42.2884910" lon="-8.6086880">
        <ele>9.7</ele>
        <time>2021-05-21T06:46:06Z</time>
      </trkpt>
      <trkpt lat="42.2884970" lon="-8.6086980">
        <ele>9.8</ele>
        <time>2021-05-21T06:46:07Z</time>
      </trkpt>
      <trkpt lat="42.2885100" lon="-8.6086970">
        <ele>9.8</ele>
        <time>2021-05-21T06:46:08Z</time>
      </trkpt>
      <trkpt lat="42.2885220" lon="-8.6086970">
        <ele>9.8</ele>
        <time>2021-05-21T06:46:09Z</time>
      </trkpt>
      <trkpt lat="42.2885340" lon="-8.6087060">
        <ele>9.8</ele>
        <time>2021-05-21T06:46:10Z</time>
      </trkpt>
      <trkpt lat="42.2885430" lon="-8.6087040">
        <ele>9.9</ele>
        <time>2021-05-21T06:46:11Z</time>
      </trkpt>
      <trkpt lat="42.2885490" lon="-8.6087090">
        <ele>9.9</ele>
        <time>2021-05-21T06:46:12Z</time>
      </trkpt>
      <trkpt lat="42.2885600" lon="-8.6087070">
        <ele>9.9</ele>
        <time>2021-05-21T06:46:13Z</time>
      </trkpt>
      <trkpt lat="42.2885700" lon="-8.6086970">
        <ele>9.9</ele>
        <time>2021-05-21T06:46:14Z</time>
      </trkpt>
      <trkpt lat="42.2885770" lon="-8.6086980">
        <ele>9.9</ele>
        <time>2021-05-21T06:46:15Z</time>
      </trkpt>
      <trkpt lat="42.2885890" lon="-8.6086910">
        <ele>10.0</ele>
        <time>2021-05-21T06:46:16Z</time>
      </trkpt>
      <trkpt lat="42.2886120" lon="-8.6086910">
        <ele>10.0</ele>
        <time>2021-05-21T06:46:17Z</time>
      </trkpt>
      <trkpt lat="42.2886330" lon="-8.6086810">
        <ele>10.0</ele>
        <time>2021-05-21T06:46:18Z</time>
      </trkpt>
      <trkpt lat="42.2886410" lon="-8.6086770">
        <ele>10.1</ele>
        <time>2021-05-21T06:46:19Z</time>
      </trkpt>
      <trkpt lat="42.2886490" lon="-8.6086720">
        <ele>10.1</ele>
        <time>2021-05-21T06:46:20Z</time>
      </trkpt>
      <trkpt lat="42.2886610" lon="-8.6086680">
        <ele>10.1</ele>
        <time>2021-05-21T06:46:21Z</time>
      </trkpt>
      <trkpt lat="42.2886620" lon="-8.6086660">
        <ele>10.1</ele>
        <time>2021-05-21T06:46:22Z</time>
      </trkpt>
      <trkpt lat="42.2886770" lon="-8.6086730">
        <ele>10.1</ele>
        <time>2021-05-21T06:46:23Z</time>
      </trkpt>
      <trkpt lat="42.2886990" lon="-8.6086790">
        <ele>10.1</ele>
        <time>2021-05-21T06:46:24Z</time>
      </trkpt>
      <trkpt lat="42.2887070" lon="-8.6086780">
        <ele>10.1</ele>
        <time>2021-05-21T06:46:25Z</time>
      </trkpt>
      <trkpt lat="42.2887120" lon="-8.6086730">
        <ele>10.2</ele>
        <time>2021-05-21T06:46:26Z</time>
      </trkpt>
      <trkpt lat="42.2886990" lon="-8.6086790">
        <ele>10.2</ele>
        <time>2021-05-21T06:46:27Z</time>
      </trkpt>
      <trkpt lat="42.2887020" lon="-8.6086780">
        <ele>10.2</ele>
        <time>2021-05-21T06:46:28Z</time>
      </trkpt>
      <trkpt lat="42.2886990" lon="-8.6086750">
        <ele>10.2</ele>
        <time>2021-05-21T06:46:29Z</time>
      </trkpt>
      <trkpt lat="42.2886990" lon="-8.6086730">
        <ele>10.2</ele>
        <time>2021-05-21T06:46:30Z</time>
      </trkpt>
      <trkpt lat="42.2887010" lon="-8.6086730">
        <ele>10.2</ele>
        <time>2021-05-21T06:46:31Z</time>
      </trkpt>
      <trkpt lat="42.2887040" lon="-8.6086720">
        <ele>10.2</ele>
        <time>2021-05-21T06:46:32Z</time>
      </trkpt>
      <trkpt lat="42.2887070" lon="-8.6086740">
        <ele>10.2</ele>
        <time>2021-05-21T06:46:33Z</time>
      </trkpt>
      <trkpt lat="42.2887080" lon="-8.6086680">
        <ele>10.2</ele>
        <time>2021-05-21T06:46:34Z</time>
      </trkpt>
      <trkpt lat="42.2887260" lon="-8.6086690">
        <ele>10.2</ele>
        <time>2021-05-21T06:46:35Z</time>
      </trkpt>
      <trkpt lat="42.2887350" lon="-8.6086820">
        <ele>10.2</ele>
        <time>2021-05-21T06:46:36Z</time>
      </trkpt>
      <trkpt lat="42.2887390" lon="-8.6086880">
        <ele>10.2</ele>
        <time>2021-05-21T06:46:37Z</time>
      </trkpt>
      <trkpt lat="42.2887490" lon="-8.6086870">
        <ele>10.2</ele>
        <time>2021-05-21T06:46:38Z</time>
      </trkpt>
      <trkpt lat="42.2887560" lon="-8.6086890">
        <ele>10.2</ele>
        <time>2021-05-21T06:46:39Z</time>
      </trkpt>
      <trkpt lat="42.2887710" lon="-8.6086870">
        <ele>10.2</ele>
        <time>2021-05-21T06:46:40Z</time>
      </trkpt>
      <trkpt lat="42.2887990" lon="-8.6086790">
        <ele>10.2</ele>
        <time>2021-05-21T06:46:41Z</time>
      </trkpt>
      <trkpt lat="42.2888090" lon="-8.6086790">
        <ele>10.2</ele>
        <time>2021-05-21T06:46:42Z</time>
      </trkpt>
      <trkpt lat="42.2888250" lon="-8.6086780">
        <ele>10.2</ele>
        <time>2021-05-21T06:46:43Z</time>
      </trkpt>
      <trkpt lat="42.2888330" lon="-8.6086750">
        <ele>10.2</ele>
        <time>2021-05-21T06:46:44Z</time>
      </trkpt>
      <trkpt lat="42.2888420" lon="-8.6086720">
        <ele>10.2</ele>
        <time>2021-05-21T06:46:45Z</time>
      </trkpt>
      <trkpt lat="42.2888500" lon="-8.6086690">
        <ele>10.2</ele>
        <time>2021-05-21T06:46:46Z</time>
      </trkpt>
      <trkpt lat="42.2888550" lon="-8.6086650">
        <ele>10.2</ele>
        <time>2021-05-21T06:46:47Z</time>
      </trkpt>
      <trkpt lat="42.2888710" lon="-8.6086620">
        <ele>10.2</ele>
        <time>2021-05-21T06:46:48Z</time>
      </trkpt>
      <trkpt lat="42.2888840" lon="-8.6086680">
        <ele>10.2</ele>
        <time>2021-05-21T06:46:49Z</time>
      </trkpt>
      <trkpt lat="42.2888810" lon="-8.6086640">
        <ele>10.2</ele>
        <time>2021-05-21T06:46:50Z</time>
      </trkpt>
      <trkpt lat="42.2888990" lon="-8.6086580">
        <ele>10.3</ele>
        <time>2021-05-21T06:46:51Z</time>
      </trkpt>
      <trkpt lat="42.2889160" lon="-8.6086600">
        <ele>10.3</ele>
        <time>2021-05-21T06:46:52Z</time>
      </trkpt>
      <trkpt lat="42.2889260" lon="-8.6086560">
        <ele>10.3</ele>
        <time>2021-05-21T06:46:53Z</time>
      </trkpt>
      <trkpt lat="42.2889350" lon="-8.6086580">
        <ele>10.3</ele>
        <time>2021-05-21T06:46:54Z</time>
      </trkpt>
      <trkpt lat="42.2889510" lon="-8.6086570">
        <ele>10.3</ele>
        <time>2021-05-21T06:46:55Z</time>
      </trkpt>
      <trkpt lat="42.2889740" lon="-8.6086480">
        <ele>10.3</ele>
        <time>2021-05-21T06:46:56Z</time>
      </trkpt>
      <trkpt lat="42.2889840" lon="-8.6086470">
        <ele>10.3</ele>
        <time>2021-05-21T06:46:57Z</time>
      </trkpt>
      <trkpt lat="42.2889930" lon="-8.6086460">
        <ele>10.3</ele>
        <time>2021-05-21T06:46:58Z</time>
      </trkpt>
      <trkpt lat="42.2890080" lon="-8.6086480">
        <ele>10.4</ele>
        <time>2021-05-21T06:46:59Z</time>
      </trkpt>
      <trkpt lat="42.2890270" lon="-8.6086400">
        <ele>10.4</ele>
        <time>2021-05-21T06:47:00Z</time>
      </trkpt>
      <trkpt lat="42.2890380" lon="-8.6086490">
        <ele>10.4</ele>
        <time>2021-05-21T06:47:01Z</time>
      </trkpt>
      <trkpt lat="42.2890480" lon="-8.6086490">
        <ele>10.4</ele>
        <time>2021-05-21T06:47:02Z</time>
      </trkpt>
      <trkpt lat="42.2890630" lon="-8.6086450">
        <ele>10.4</ele>
        <time>2021-05-21T06:47:03Z</time>
      </trkpt>
      <trkpt lat="42.2890770" lon="-8.6086370">
        <ele>10.4</ele>
        <time>2021-05-21T06:47:04Z</time>
      </trkpt>
      <trkpt lat="42.2890970" lon="-8.6086390">
        <ele>10.5</ele>
        <time>2021-05-21T06:47:05Z</time>
      </trkpt>
      <trkpt lat="42.2891030" lon="-8.6086380">
        <ele>10.5</ele>
        <time>2021-05-21T06:47:06Z</time>
      </trkpt>
      <trkpt lat="42.2891140" lon="-8.6086410">
        <ele>10.5</ele>
        <time>2021-05-21T06:47:07Z</time>
      </trkpt>
      <trkpt lat="42.2891170" lon="-8.6086400">
        <ele>10.5</ele>
        <time>2021-05-21T06:47:08Z</time>
      </trkpt>
      <trkpt lat="42.2891290" lon="-8.6086330">
        <ele>10.5</ele>
        <time>2021-05-21T06:47:09Z</time>
      </trkpt>
      <trkpt lat="42.2891460" lon="-8.6086350">
        <ele>10.5</ele>
        <time>2021-05-21T06:47:10Z</time>
      </trkpt>
      <trkpt lat="42.2891560" lon="-8.6086310">
        <ele>10.5</ele>
        <time>2021-05-21T06:47:11Z</time>
      </trkpt>
      <trkpt lat="42.2891730" lon="-8.6086270">
        <ele>10.5</ele>
        <time>2021-05-21T06:47:12Z</time>
      </trkpt>
      <trkpt lat="42.2891800" lon="-8.6086230">
        <ele>10.5</ele>
        <time>2021-05-21T06:47:13Z</time>
      </trkpt>
      <trkpt lat="42.2891870" lon="-8.6086250">
        <ele>10.5</ele>
        <time>2021-05-21T06:47:14Z</time>
      </trkpt>
      <trkpt lat="42.2892030" lon="-8.6086290">
        <ele>10.5</ele>
        <time>2021-05-21T06:47:15Z</time>
      </trkpt>
      <trkpt lat="42.2892180" lon="-8.6086280">
        <ele>10.6</ele>
        <time>2021-05-21T06:47:16Z</time>
      </trkpt>
      <trkpt lat="42.2892310" lon="-8.6086240">
        <ele>10.6</ele>
        <time>2021-05-21T06:47:17Z</time>
      </trkpt>
      <trkpt lat="42.2892440" lon="-8.6086190">
        <ele>10.6</ele>
        <time>2021-05-21T06:47:18Z</time>
      </trkpt>
      <trkpt lat="42.2892530" lon="-8.6086170">
        <ele>10.6</ele>
        <time>2021-05-21T06:47:19Z</time>
      </trkpt>
      <trkpt lat="42.2892720" lon="-8.6086120">
        <ele>10.6</ele>
        <time>2021-05-21T06:47:20Z</time>
      </trkpt>
      <trkpt lat="42.2892800" lon="-8.6086080">
        <ele>10.6</ele>
        <time>2021-05-21T06:47:21Z</time>
      </trkpt>
      <trkpt lat="42.2892880" lon="-8.6086030">
        <ele>10.6</ele>
        <time>2021-05-21T06:47:22Z</time>
      </trkpt>
      <trkpt lat="42.2892970" lon="-8.6085960">
        <ele>10.6</ele>
        <time>2021-05-21T06:47:23Z</time>
      </trkpt>
      <trkpt lat="42.2893120" lon="-8.6085890">
        <ele>10.6</ele>
        <time>2021-05-21T06:47:24Z</time>
      </trkpt>
      <trkpt lat="42.2893200" lon="-8.6085860">
        <ele>10.6</ele>
        <time>2021-05-21T06:47:25Z</time>
      </trkpt>
      <trkpt lat="42.2893350" lon="-8.6085830">
        <ele>10.6</ele>
        <time>2021-05-21T06:47:26Z</time>
      </trkpt>
      <trkpt lat="42.2893460" lon="-8.6085750">
        <ele>10.6</ele>
        <time>2021-05-21T06:47:27Z</time>
      </trkpt>
      <trkpt lat="42.2893710" lon="-8.6085720">
        <ele>10.7</ele>
        <time>2021-05-21T06:47:28Z</time>
      </trkpt>
      <trkpt lat="42.2893830" lon="-8.6085740">
        <ele>10.7</ele>
        <time>2021-05-21T06:47:29Z</time>
      </trkpt>
      <trkpt lat="42.2893940" lon="-8.6085760">
        <ele>10.7</ele>
        <time>2021-05-21T06:47:30Z</time>
      </trkpt>
      <trkpt lat="42.2894120" lon="-8.6085840">
        <ele>10.7</ele>
        <time>2021-05-21T06:47:31Z</time>
      </trkpt>
      <trkpt lat="42.2894280" lon="-8.6085920">
        <ele>10.7</ele>
        <time>2021-05-21T06:47:32Z</time>
      </trkpt>
      <trkpt lat="42.2894720" lon="-8.6086130">
        <ele>10.7</ele>
        <time>2021-05-21T06:47:33Z</time>
      </trkpt>
      <trkpt lat="42.2895030" lon="-8.6086210">
        <ele>10.8</ele>
        <time>2021-05-21T06:47:34Z</time>
      </trkpt>
      <trkpt lat="42.2895450" lon="-8.6086340">
        <ele>10.8</ele>
        <time>2021-05-21T06:47:35Z</time>
      </trkpt>
      <trkpt lat="42.2895820" lon="-8.6086330">
        <ele>10.8</ele>
        <time>2021-05-21T06:47:36Z</time>
      </trkpt>
      <trkpt lat="42.2895930" lon="-8.6086290">
        <ele>10.9</ele>
        <time>2021-05-21T06:47:37Z</time>
      </trkpt>
      <trkpt lat="42.2896120" lon="-8.6086210">
        <ele>10.9</ele>
        <time>2021-05-21T06:47:38Z</time>
      </trkpt>
      <trkpt lat="42.2896220" lon="-8.6086180">
        <ele>10.9</ele>
        <time>2021-05-21T06:47:39Z</time>
      </trkpt>
      <trkpt lat="42.2896310" lon="-8.6086150">
        <ele>10.9</ele>
        <time>2021-05-21T06:47:40Z</time>
      </trkpt>
      <trkpt lat="42.2896350" lon="-8.6086030">
        <ele>10.9</ele>
        <time>2021-05-21T06:47:41Z</time>
      </trkpt>
      <trkpt lat="42.2896380" lon="-8.6086050">
        <ele>10.9</ele>
        <time>2021-05-21T06:47:42Z</time>
      </trkpt>
      <trkpt lat="42.2896450" lon="-8.6085970">
        <ele>10.9</ele>
        <time>2021-05-21T06:47:43Z</time>
      </trkpt>
      <trkpt lat="42.2896490" lon="-8.6085910">
        <ele>10.9</ele>
        <time>2021-05-21T06:47:44Z</time>
      </trkpt>
      <trkpt lat="42.2896490" lon="-8.6085890">
        <ele>10.9</ele>
        <time>2021-05-21T06:47:45Z</time>
      </trkpt>
      <trkpt lat="42.2896510" lon="-8.6085860">
        <ele>10.9</ele>
        <time>2021-05-21T06:47:46Z</time>
      </trkpt>
      <trkpt lat="42.2896640" lon="-8.6085780">
        <ele>11.0</ele>
        <time>2021-05-21T06:47:47Z</time>
      </trkpt>
      <trkpt lat="42.2896720" lon="-8.6085760">
        <ele>11.0</ele>
        <time>2021-05-21T06:47:48Z</time>
      </trkpt>
      <trkpt lat="42.2896790" lon="-8.6085730">
        <ele>11.0</ele>
        <time>2021-05-21T06:47:49Z</time>
      </trkpt>
      <trkpt lat="42.2896870" lon="-8.6085710">
        <ele>11.0</ele>
        <time>2021-05-21T06:47:50Z</time>
      </trkpt>
      <trkpt lat="42.2896940" lon="-8.6085690">
        <ele>11.0</ele>
        <time>2021-05-21T06:47:51Z</time>
      </trkpt>
      <trkpt lat="42.2897000" lon="-8.6085650">
        <ele>11.0</ele>
        <time>2021-05-21T06:47:52Z</time>
      </trkpt>
      <trkpt lat="42.2897020" lon="-8.6085600">
        <ele>11.0</ele>
        <time>2021-05-21T06:47:53Z</time>
      </trkpt>
      <trkpt lat="42.2897070" lon="-8.6085520">
        <ele>11.0</ele>
        <time>2021-05-21T06:47:54Z</time>
      </trkpt>
      <trkpt lat="42.2897150" lon="-8.6085490">
        <ele>11.1</ele>
        <time>2021-05-21T06:47:55Z</time>
      </trkpt>
      <trkpt lat="42.2897150" lon="-8.6085470">
        <ele>11.1</ele>
        <time>2021-05-21T06:47:56Z</time>
      </trkpt>
      <trkpt lat="42.2897170" lon="-8.6085390">
        <ele>11.1</ele>
        <time>2021-05-21T06:47:57Z</time>
      </trkpt>
      <trkpt lat="42.2897240" lon="-8.6085370">
        <ele>11.1</ele>
        <time>2021-05-21T06:47:58Z</time>
      </trkpt>
      <trkpt lat="42.2897320" lon="-8.6085280">
        <ele>11.1</ele>
        <time>2021-05-21T06:47:59Z</time>
      </trkpt>
      <trkpt lat="42.2897380" lon="-8.6085350">
        <ele>11.1</ele>
        <time>2021-05-21T06:48:00Z</time>
      </trkpt>
      <trkpt lat="42.2897430" lon="-8.6085220">
        <ele>11.1</ele>
        <time>2021-05-21T06:48:01Z</time>
      </trkpt>
      <trkpt lat="42.2897500" lon="-8.6085150">
        <ele>11.1</ele>
        <time>2021-05-21T06:48:02Z</time>
      </trkpt>
      <trkpt lat="42.2897600" lon="-8.6085110">
        <ele>11.2</ele>
        <time>2021-05-21T06:48:03Z</time>
      </trkpt>
      <trkpt lat="42.2897660" lon="-8.6085080">
        <ele>11.2</ele>
        <time>2021-05-21T06:48:04Z</time>
      </trkpt>
      <trkpt lat="42.2897740" lon="-8.6085010">
        <ele>11.2</ele>
        <time>2021-05-21T06:48:05Z</time>
      </trkpt>
      <trkpt lat="42.2897800" lon="-8.6084970">
        <ele>11.2</ele>
        <time>2021-05-21T06:48:06Z</time>
      </trkpt>
      <trkpt lat="42.2897880" lon="-8.6084920">
        <ele>11.2</ele>
        <time>2021-05-21T06:48:07Z</time>
      </trkpt>
      <trkpt lat="42.2897970" lon="-8.6084860">
        <ele>11.2</ele>
        <time>2021-05-21T06:48:08Z</time>
      </trkpt>
      <trkpt lat="42.2898040" lon="-8.6084840">
        <ele>11.3</ele>
        <time>2021-05-21T06:48:09Z</time>
      </trkpt>
      <trkpt lat="42.2898180" lon="-8.6084850">
        <ele>11.3</ele>
        <time>2021-05-21T06:48:10Z</time>
      </trkpt>
      <trkpt lat="42.2898290" lon="-8.6084840">
        <ele>11.3</ele>
        <time>2021-05-21T06:48:11Z</time>
      </trkpt>
      <trkpt lat="42.2898340" lon="-8.6084810">
        <ele>11.3</ele>
        <time>2021-05-21T06:48:12Z</time>
      </trkpt>
      <trkpt lat="42.2898540" lon="-8.6084770">
        <ele>11.4</ele>
        <time>2021-05-21T06:48:13Z</time>
      </trkpt>
      <trkpt lat="42.2898640" lon="-8.6084730">
        <ele>11.4</ele>
        <time>2021-05-21T06:48:14Z</time>
      </trkpt>
      <trkpt lat="42.2898730" lon="-8.6084690">
        <ele>11.4</ele>
        <time>2021-05-21T06:48:15Z</time>
      </trkpt>
      <trkpt lat="42.2898860" lon="-8.6084640">
        <ele>11.4</ele>
        <time>2021-05-21T06:48:16Z</time>
      </trkpt>
      <trkpt lat="42.2899000" lon="-8.6084540">
        <ele>11.5</ele>
        <time>2021-05-21T06:48:17Z</time>
      </trkpt>
      <trkpt lat="42.2899130" lon="-8.6084480">
        <ele>11.5</ele>
        <time>2021-05-21T06:48:18Z</time>
      </trkpt>
      <trkpt lat="42.2899270" lon="-8.6084420">
        <ele>11.5</ele>
        <time>2021-05-21T06:48:19Z</time>
      </trkpt>
      <trkpt lat="42.2899460" lon="-8.6084380">
        <ele>11.6</ele>
        <time>2021-05-21T06:48:20Z</time>
      </trkpt>
      <trkpt lat="42.2899550" lon="-8.6084350">
        <ele>11.6</ele>
        <time>2021-05-21T06:48:21Z</time>
      </trkpt>
      <trkpt lat="42.2899640" lon="-8.6084320">
        <ele>11.6</ele>
        <time>2021-05-21T06:48:22Z</time>
      </trkpt>
      <trkpt lat="42.2899750" lon="-8.6084260">
        <ele>11.6</ele>
        <time>2021-05-21T06:48:23Z</time>
      </trkpt>
      <trkpt lat="42.2899880" lon="-8.6084290">
        <ele>11.7</ele>
        <time>2021-05-21T06:48:24Z</time>
      </trkpt>
      <trkpt lat="42.2899950" lon="-8.6084250">
        <ele>11.7</ele>
        <time>2021-05-21T06:48:25Z</time>
      </trkpt>
      <trkpt lat="42.2900010" lon="-8.6084280">
        <ele>11.7</ele>
        <time>2021-05-21T06:48:26Z</time>
      </trkpt>
      <trkpt lat="42.2900100" lon="-8.6084260">
        <ele>11.7</ele>
        <time>2021-05-21T06:48:27Z</time>
      </trkpt>
      <trkpt lat="42.2900240" lon="-8.6084240">
        <ele>11.7</ele>
        <time>2021-05-21T06:48:28Z</time>
      </trkpt>
      <trkpt lat="42.2900360" lon="-8.6084220">
        <ele>11.8</ele>
        <time>2021-05-21T06:48:29Z</time>
      </trkpt>
      <trkpt lat="42.2900420" lon="-8.6084170">
        <ele>11.8</ele>
        <time>2021-05-21T06:48:30Z</time>
      </trkpt>
      <trkpt lat="42.2900580" lon="-8.6084170">
        <ele>11.8</ele>
        <time>2021-05-21T06:48:31Z</time>
      </trkpt>
      <trkpt lat="42.2900820" lon="-8.6084110">
        <ele>11.9</ele>
        <time>2021-05-21T06:48:32Z</time>
      </trkpt>
      <trkpt lat="42.2900880" lon="-8.6084060">
        <ele>11.9</ele>
        <time>2021-05-21T06:48:33Z</time>
      </trkpt>
      <trkpt lat="42.2900950" lon="-8.6084020">
        <ele>11.9</ele>
        <time>2021-05-21T06:48:34Z</time>
      </trkpt>
      <trkpt lat="42.2901060" lon="-8.6084000">
        <ele>11.9</ele>
        <time>2021-05-21T06:48:35Z</time>
      </trkpt>
      <trkpt lat="42.2901230" lon="-8.6083990">
        <ele>11.9</ele>
        <time>2021-05-21T06:48:36Z</time>
      </trkpt>
      <trkpt lat="42.2901370" lon="-8.6083970">
        <ele>11.9</ele>
        <time>2021-05-21T06:48:37Z</time>
      </trkpt>
      <trkpt lat="42.2901490" lon="-8.6083940">
        <ele>11.9</ele>
        <time>2021-05-21T06:48:38Z</time>
      </trkpt>
      <trkpt lat="42.2901550" lon="-8.6083840">
        <ele>12.0</ele>
        <time>2021-05-21T06:48:39Z</time>
      </trkpt>
      <trkpt lat="42.2901730" lon="-8.6083770">
        <ele>12.0</ele>
        <time>2021-05-21T06:48:40Z</time>
      </trkpt>
      <trkpt lat="42.2901840" lon="-8.6083740">
        <ele>12.0</ele>
        <time>2021-05-21T06:48:41Z</time>
      </trkpt>
      <trkpt lat="42.2901940" lon="-8.6083720">
        <ele>12.0</ele>
        <time>2021-05-21T06:48:42Z</time>
      </trkpt>
      <trkpt lat="42.2902210" lon="-8.6083610">
        <ele>12.0</ele>
        <time>2021-05-21T06:48:43Z</time>
      </trkpt>
      <trkpt lat="42.2902480" lon="-8.6083570">
        <ele>12.1</ele>
        <time>2021-05-21T06:48:44Z</time>
      </trkpt>
      <trkpt lat="42.2902580" lon="-8.6083560">
        <ele>12.1</ele>
        <time>2021-05-21T06:48:45Z</time>
      </trkpt>
      <trkpt lat="42.2902730" lon="-8.6083680">
        <ele>12.1</ele>
        <time>2021-05-21T06:48:46Z</time>
      </trkpt>
      <trkpt lat="42.2902780" lon="-8.6083750">
        <ele>12.1</ele>
        <time>2021-05-21T06:48:47Z</time>
      </trkpt>
      <trkpt lat="42.2902820" lon="-8.6083820">
        <ele>12.1</ele>
        <time>2021-05-21T06:48:48Z</time>
      </trkpt>
      <trkpt lat="42.2902860" lon="-8.6083880">
        <ele>12.1</ele>
        <time>2021-05-21T06:48:49Z</time>
      </trkpt>
      <trkpt lat="42.2902900" lon="-8.6083950">
        <ele>12.1</ele>
        <time>2021-05-21T06:48:50Z</time>
      </trkpt>
      <trkpt lat="42.2902950" lon="-8.6084020">
        <ele>12.1</ele>
        <time>2021-05-21T06:48:51Z</time>
      </trkpt>
      <trkpt lat="42.2902990" lon="-8.6084090">
        <ele>12.1</ele>
        <time>2021-05-21T06:48:52Z</time>
      </trkpt>
      <trkpt lat="42.2903030" lon="-8.6084160">
        <ele>12.1</ele>
        <time>2021-05-21T06:48:53Z</time>
      </trkpt>
      <trkpt lat="42.2903350" lon="-8.6084040">
        <ele>12.2</ele>
        <time>2021-05-21T06:48:54Z</time>
      </trkpt>
      <trkpt lat="42.2903440" lon="-8.6084020">
        <ele>12.1</ele>
        <time>2021-05-21T06:48:55Z</time>
      </trkpt>
      <trkpt lat="42.2903670" lon="-8.6084080">
        <ele>12.1</ele>
        <time>2021-05-21T06:48:56Z</time>
      </trkpt>
      <trkpt lat="42.2903760" lon="-8.6084100">
        <ele>12.1</ele>
        <time>2021-05-21T06:48:57Z</time>
      </trkpt>
      <trkpt lat="42.2903950" lon="-8.6084060">
        <ele>12.1</ele>
        <time>2021-05-21T06:48:58Z</time>
      </trkpt>
      <trkpt lat="42.2904010" lon="-8.6084020">
        <ele>12.1</ele>
        <time>2021-05-21T06:48:59Z</time>
      </trkpt>
      <trkpt lat="42.2904080" lon="-8.6083970">
        <ele>12.1</ele>
        <time>2021-05-21T06:49:00Z</time>
      </trkpt>
      <trkpt lat="42.2904140" lon="-8.6083930">
        <ele>12.1</ele>
        <time>2021-05-21T06:49:01Z</time>
      </trkpt>
      <trkpt lat="42.2904230" lon="-8.6083940">
        <ele>12.1</ele>
        <time>2021-05-21T06:49:02Z</time>
      </trkpt>
      <trkpt lat="42.2904280" lon="-8.6083850">
        <ele>12.1</ele>
        <time>2021-05-21T06:49:03Z</time>
      </trkpt>
      <trkpt lat="42.2904420" lon="-8.6083850">
        <ele>12.1</ele>
        <time>2021-05-21T06:49:04Z</time>
      </trkpt>
      <trkpt lat="42.2904540" lon="-8.6083820">
        <ele>12.1</ele>
        <time>2021-05-21T06:49:05Z</time>
      </trkpt>
      <trkpt lat="42.2904680" lon="-8.6083750">
        <ele>12.1</ele>
        <time>2021-05-21T06:49:06Z</time>
      </trkpt>
      <trkpt lat="42.2904710" lon="-8.6083760">
        <ele>12.1</ele>
        <time>2021-05-21T06:49:07Z</time>
      </trkpt>
      <trkpt lat="42.2904930" lon="-8.6083670">
        <ele>12.1</ele>
        <time>2021-05-21T06:49:08Z</time>
      </trkpt>
      <trkpt lat="42.2905020" lon="-8.6083650">
        <ele>12.1</ele>
        <time>2021-05-21T06:49:09Z</time>
      </trkpt>
      <trkpt lat="42.2905060" lon="-8.6083550">
        <ele>12.1</ele>
        <time>2021-05-21T06:49:10Z</time>
      </trkpt>
      <trkpt lat="42.2905200" lon="-8.6083460">
        <ele>12.1</ele>
        <time>2021-05-21T06:49:11Z</time>
      </trkpt>
      <trkpt lat="42.2905270" lon="-8.6083370">
        <ele>12.1</ele>
        <time>2021-05-21T06:49:12Z</time>
      </trkpt>
      <trkpt lat="42.2905450" lon="-8.6083290">
        <ele>12.1</ele>
        <time>2021-05-21T06:49:13Z</time>
      </trkpt>
      <trkpt lat="42.2905610" lon="-8.6083330">
        <ele>12.1</ele>
        <time>2021-05-21T06:49:14Z</time>
      </trkpt>
      <trkpt lat="42.2905710" lon="-8.6083240">
        <ele>12.1</ele>
        <time>2021-05-21T06:49:15Z</time>
      </trkpt>
      <trkpt lat="42.2905740" lon="-8.6083230">
        <ele>12.1</ele>
        <time>2021-05-21T06:49:16Z</time>
      </trkpt>
      <trkpt lat="42.2905880" lon="-8.6083190">
        <ele>12.1</ele>
        <time>2021-05-21T06:49:17Z</time>
      </trkpt>
      <trkpt lat="42.2906110" lon="-8.6083060">
        <ele>12.0</ele>
        <time>2021-05-21T06:49:18Z</time>
      </trkpt>
      <trkpt lat="42.2906210" lon="-8.6082990">
        <ele>12.0</ele>
        <time>2021-05-21T06:49:19Z</time>
      </trkpt>
      <trkpt lat="42.2906420" lon="-8.6082930">
        <ele>12.0</ele>
        <time>2021-05-21T06:49:20Z</time>
      </trkpt>
      <trkpt lat="42.2906530" lon="-8.6082910">
        <ele>12.0</ele>
        <time>2021-05-21T06:49:21Z</time>
      </trkpt>
      <trkpt lat="42.2906630" lon="-8.6082880">
        <ele>12.0</ele>
        <time>2021-05-21T06:49:22Z</time>
      </trkpt>
      <trkpt lat="42.2906830" lon="-8.6082800">
        <ele>12.0</ele>
        <time>2021-05-21T06:49:23Z</time>
      </trkpt>
      <trkpt lat="42.2906740" lon="-8.6082900">
        <ele>12.0</ele>
        <time>2021-05-21T06:49:24Z</time>
      </trkpt>
      <trkpt lat="42.2906700" lon="-8.6082870">
        <ele>12.0</ele>
        <time>2021-05-21T06:49:25Z</time>
      </trkpt>
      <trkpt lat="42.2906740" lon="-8.6082800">
        <ele>12.0</ele>
        <time>2021-05-21T06:49:26Z</time>
      </trkpt>
      <trkpt lat="42.2906730" lon="-8.6082760">
        <ele>11.9</ele>
        <time>2021-05-21T06:49:27Z</time>
      </trkpt>
      <trkpt lat="42.2906810" lon="-8.6082680">
        <ele>11.9</ele>
        <time>2021-05-21T06:49:28Z</time>
      </trkpt>
      <trkpt lat="42.2906980" lon="-8.6082800">
        <ele>11.9</ele>
        <time>2021-05-21T06:49:29Z</time>
      </trkpt>
      <trkpt lat="42.2906890" lon="-8.6082780">
        <ele>11.9</ele>
        <time>2021-05-21T06:49:30Z</time>
      </trkpt>
      <trkpt lat="42.2907020" lon="-8.6082660">
        <ele>11.9</ele>
        <time>2021-05-21T06:49:31Z</time>
      </trkpt>
      <trkpt lat="42.2907050" lon="-8.6082560">
        <ele>11.9</ele>
        <time>2021-05-21T06:49:32Z</time>
      </trkpt>
      <trkpt lat="42.2907210" lon="-8.6082470">
        <ele>11.9</ele>
        <time>2021-05-21T06:49:33Z</time>
      </trkpt>
      <trkpt lat="42.2907260" lon="-8.6082380">
        <ele>11.9</ele>
        <time>2021-05-21T06:49:34Z</time>
      </trkpt>
      <trkpt lat="42.2907460" lon="-8.6082240">
        <ele>11.9</ele>
        <time>2021-05-21T06:49:35Z</time>
      </trkpt>
      <trkpt lat="42.2907680" lon="-8.6082090">
        <ele>11.8</ele>
        <time>2021-05-21T06:49:36Z</time>
      </trkpt>
      <trkpt lat="42.2907770" lon="-8.6082020">
        <ele>11.8</ele>
        <time>2021-05-21T06:49:37Z</time>
      </trkpt>
      <trkpt lat="42.2907870" lon="-8.6081960">
        <ele>11.8</ele>
        <time>2021-05-21T06:49:38Z</time>
      </trkpt>
      <trkpt lat="42.2908030" lon="-8.6081900">
        <ele>11.8</ele>
        <time>2021-05-21T06:49:39Z</time>
      </trkpt>
      <trkpt lat="42.2908120" lon="-8.6081840">
        <ele>11.8</ele>
        <time>2021-05-21T06:49:40Z</time>
      </trkpt>
      <trkpt lat="42.2908220" lon="-8.6081790">
        <ele>11.8</ele>
        <time>2021-05-21T06:49:41Z</time>
      </trkpt>
      <trkpt lat="42.2908340" lon="-8.6081730">
        <ele>11.8</ele>
        <time>2021-05-21T06:49:42Z</time>
      </trkpt>
      <trkpt lat="42.2908400" lon="-8.6081670">
        <ele>11.8</ele>
        <time>2021-05-21T06:49:43Z</time>
      </trkpt>
      <trkpt lat="42.2908490" lon="-8.6081660">
        <ele>11.8</ele>
        <time>2021-05-21T06:49:44Z</time>
      </trkpt>
      <trkpt lat="42.2908650" lon="-8.6081510">
        <ele>11.7</ele>
        <time>2021-05-21T06:49:45Z</time>
      </trkpt>
      <trkpt lat="42.2908740" lon="-8.6081480">
        <ele>11.7</ele>
        <time>2021-05-21T06:49:46Z</time>
      </trkpt>
      <trkpt lat="42.2908840" lon="-8.6081450">
        <ele>11.7</ele>
        <time>2021-05-21T06:49:47Z</time>
      </trkpt>
      <trkpt lat="42.2908970" lon="-8.6081480">
        <ele>11.7</ele>
        <time>2021-05-21T06:49:48Z</time>
      </trkpt>
      <trkpt lat="42.2909020" lon="-8.6081480">
        <ele>11.7</ele>
        <time>2021-05-21T06:49:49Z</time>
      </trkpt>
      <trkpt lat="42.2909110" lon="-8.6081400">
        <ele>11.7</ele>
        <time>2021-05-21T06:49:50Z</time>
      </trkpt>
      <trkpt lat="42.2909400" lon="-8.6081430">
        <ele>11.7</ele>
        <time>2021-05-21T06:49:51Z</time>
      </trkpt>
      <trkpt lat="42.2909520" lon="-8.6081440">
        <ele>11.7</ele>
        <time>2021-05-21T06:49:52Z</time>
      </trkpt>
      <trkpt lat="42.2909550" lon="-8.6081440">
        <ele>11.7</ele>
        <time>2021-05-21T06:49:53Z</time>
      </trkpt>
      <trkpt lat="42.2909830" lon="-8.6081420">
        <ele>11.6</ele>
        <time>2021-05-21T06:49:54Z</time>
      </trkpt>
      <trkpt lat="42.2909870" lon="-8.6081330">
        <ele>11.6</ele>
        <time>2021-05-21T06:49:55Z</time>
      </trkpt>
      <trkpt lat="42.2909940" lon="-8.6081300">
        <ele>11.6</ele>
        <time>2021-05-21T06:49:56Z</time>
      </trkpt>
      <trkpt lat="42.2910080" lon="-8.6081230">
        <ele>11.6</ele>
        <time>2021-05-21T06:49:57Z</time>
      </trkpt>
      <trkpt lat="42.2910060" lon="-8.6081230">
        <ele>11.6</ele>
        <time>2021-05-21T06:49:58Z</time>
      </trkpt>
      <trkpt lat="42.2910210" lon="-8.6081170">
        <ele>11.6</ele>
        <time>2021-05-21T06:49:59Z</time>
      </trkpt>
      <trkpt lat="42.2910210" lon="-8.6081160">
        <ele>11.6</ele>
        <time>2021-05-21T06:50:00Z</time>
      </trkpt>
      <trkpt lat="42.2910330" lon="-8.6081120">
        <ele>11.6</ele>
        <time>2021-05-21T06:50:01Z</time>
      </trkpt>
      <trkpt lat="42.2910410" lon="-8.6081080">
        <ele>11.6</ele>
        <time>2021-05-21T06:50:02Z</time>
      </trkpt>
      <trkpt lat="42.2910720" lon="-8.6081060">
        <ele>11.5</ele>
        <time>2021-05-21T06:50:03Z</time>
      </trkpt>
      <trkpt lat="42.2910810" lon="-8.6081070">
        <ele>11.5</ele>
        <time>2021-05-21T06:50:04Z</time>
      </trkpt>
      <trkpt lat="42.2910930" lon="-8.6081050">
        <ele>11.5</ele>
        <time>2021-05-21T06:50:05Z</time>
      </trkpt>
      <trkpt lat="42.2911080" lon="-8.6081110">
        <ele>11.5</ele>
        <time>2021-05-21T06:50:06Z</time>
      </trkpt>
      <trkpt lat="42.2911390" lon="-8.6081000">
        <ele>11.5</ele>
        <time>2021-05-21T06:50:07Z</time>
      </trkpt>
      <trkpt lat="42.2911490" lon="-8.6080950">
        <ele>11.4</ele>
        <time>2021-05-21T06:50:08Z</time>
      </trkpt>
      <trkpt lat="42.2911760" lon="-8.6080940">
        <ele>11.4</ele>
        <time>2021-05-21T06:50:09Z</time>
      </trkpt>
      <trkpt lat="42.2912020" lon="-8.6080970">
        <ele>11.4</ele>
        <time>2021-05-21T06:50:10Z</time>
      </trkpt>
      <trkpt lat="42.2912120" lon="-8.6080880">
        <ele>11.4</ele>
        <time>2021-05-21T06:50:11Z</time>
      </trkpt>
      <trkpt lat="42.2912240" lon="-8.6080890">
        <ele>11.4</ele>
        <time>2021-05-21T06:50:12Z</time>
      </trkpt>
      <trkpt lat="42.2912390" lon="-8.6080860">
        <ele>11.3</ele>
        <time>2021-05-21T06:50:13Z</time>
      </trkpt>
      <trkpt lat="42.2912420" lon="-8.6080810">
        <ele>11.3</ele>
        <time>2021-05-21T06:50:14Z</time>
      </trkpt>
      <trkpt lat="42.2912450" lon="-8.6080700">
        <ele>11.3</ele>
        <time>2021-05-21T06:50:15Z</time>
      </trkpt>
      <trkpt lat="42.2912610" lon="-8.6080690">
        <ele>11.3</ele>
        <time>2021-05-21T06:50:16Z</time>
      </trkpt>
      <trkpt lat="42.2912760" lon="-8.6080660">
        <ele>11.3</ele>
        <time>2021-05-21T06:50:17Z</time>
      </trkpt>
      <trkpt lat="42.2912920" lon="-8.6080580">
        <ele>11.3</ele>
        <time>2021-05-21T06:50:18Z</time>
      </trkpt>
      <trkpt lat="42.2913030" lon="-8.6080560">
        <ele>11.3</ele>
        <time>2021-05-21T06:50:19Z</time>
      </trkpt>
      <trkpt lat="42.2913130" lon="-8.6080530">
        <ele>11.2</ele>
        <time>2021-05-21T06:50:20Z</time>
      </trkpt>
      <trkpt lat="42.2913230" lon="-8.6080420">
        <ele>11.2</ele>
        <time>2021-05-21T06:50:21Z</time>
      </trkpt>
      <trkpt lat="42.2913360" lon="-8.6080370">
        <ele>11.2</ele>
        <time>2021-05-21T06:50:22Z</time>
      </trkpt>
      <trkpt lat="42.2913480" lon="-8.6080330">
        <ele>11.2</ele>
        <time>2021-05-21T06:50:23Z</time>
      </trkpt>
      <trkpt lat="42.2913610" lon="-8.6080330">
        <ele>11.2</ele>
        <time>2021-05-21T06:50:24Z</time>
      </trkpt>
      <trkpt lat="42.2913770" lon="-8.6080420">
        <ele>11.2</ele>
        <time>2021-05-21T06:50:25Z</time>
      </trkpt>
      <trkpt lat="42.2913920" lon="-8.6080420">
        <ele>11.1</ele>
        <time>2021-05-21T06:50:26Z</time>
      </trkpt>
      <trkpt lat="42.2914090" lon="-8.6080390">
        <ele>11.1</ele>
        <time>2021-05-21T06:50:27Z</time>
      </trkpt>
      <trkpt lat="42.2914290" lon="-8.6080290">
        <ele>11.1</ele>
        <time>2021-05-21T06:50:28Z</time>
      </trkpt>
      <trkpt lat="42.2914390" lon="-8.6080240">
        <ele>11.1</ele>
        <time>2021-05-21T06:50:29Z</time>
      </trkpt>
      <trkpt lat="42.2914480" lon="-8.6080190">
        <ele>11.1</ele>
        <time>2021-05-21T06:50:30Z</time>
      </trkpt>
      <trkpt lat="42.2914660" lon="-8.6080130">
        <ele>11.0</ele>
        <time>2021-05-21T06:50:31Z</time>
      </trkpt>
      <trkpt lat="42.2914790" lon="-8.6080170">
        <ele>11.0</ele>
        <time>2021-05-21T06:50:32Z</time>
      </trkpt>
      <trkpt lat="42.2914970" lon="-8.6080150">
        <ele>11.0</ele>
        <time>2021-05-21T06:50:33Z</time>
      </trkpt>
      <trkpt lat="42.2915070" lon="-8.6080150">
        <ele>11.0</ele>
        <time>2021-05-21T06:50:34Z</time>
      </trkpt>
      <trkpt lat="42.2915170" lon="-8.6080150">
        <ele>11.0</ele>
        <time>2021-05-21T06:50:35Z</time>
      </trkpt>
      <trkpt lat="42.2915320" lon="-8.6080160">
        <ele>11.0</ele>
        <time>2021-05-21T06:50:36Z</time>
      </trkpt>
      <trkpt lat="42.2915480" lon="-8.6080080">
        <ele>11.0</ele>
        <time>2021-05-21T06:50:37Z</time>
      </trkpt>
      <trkpt lat="42.2915620" lon="-8.6080100">
        <ele>10.9</ele>
        <time>2021-05-21T06:50:38Z</time>
      </trkpt>
      <trkpt lat="42.2915790" lon="-8.6080150">
        <ele>10.9</ele>
        <time>2021-05-21T06:50:39Z</time>
      </trkpt>
      <trkpt lat="42.2915950" lon="-8.6080120">
        <ele>10.9</ele>
        <time>2021-05-21T06:50:40Z</time>
      </trkpt>
      <trkpt lat="42.2916000" lon="-8.6080090">
        <ele>10.9</ele>
        <time>2021-05-21T06:50:41Z</time>
      </trkpt>
      <trkpt lat="42.2916110" lon="-8.6080040">
        <ele>10.9</ele>
        <time>2021-05-21T06:50:42Z</time>
      </trkpt>
      <trkpt lat="42.2916370" lon="-8.6079970">
        <ele>10.9</ele>
        <time>2021-05-21T06:50:43Z</time>
      </trkpt>
      <trkpt lat="42.2916460" lon="-8.6079900">
        <ele>10.8</ele>
        <time>2021-05-21T06:50:44Z</time>
      </trkpt>
      <trkpt lat="42.2916540" lon="-8.6079830">
        <ele>10.8</ele>
        <time>2021-05-21T06:50:45Z</time>
      </trkpt>
      <trkpt lat="42.2916600" lon="-8.6079770">
        <ele>10.8</ele>
        <time>2021-05-21T06:50:46Z</time>
      </trkpt>
      <trkpt lat="42.2916690" lon="-8.6079730">
        <ele>10.8</ele>
        <time>2021-05-21T06:50:47Z</time>
      </trkpt>
      <trkpt lat="42.2916810" lon="-8.6079670">
        <ele>10.8</ele>
        <time>2021-05-21T06:50:48Z</time>
      </trkpt>
      <trkpt lat="42.2916940" lon="-8.6079620">
        <ele>10.8</ele>
        <time>2021-05-21T06:50:49Z</time>
      </trkpt>
      <trkpt lat="42.2917010" lon="-8.6079660">
        <ele>10.8</ele>
        <time>2021-05-21T06:50:50Z</time>
      </trkpt>
      <trkpt lat="42.2917150" lon="-8.6079650">
        <ele>10.8</ele>
        <time>2021-05-21T06:50:51Z</time>
      </trkpt>
      <trkpt lat="42.2917390" lon="-8.6079670">
        <ele>10.7</ele>
        <time>2021-05-21T06:50:52Z</time>
      </trkpt>
      <trkpt lat="42.2917510" lon="-8.6079660">
        <ele>10.7</ele>
        <time>2021-05-21T06:50:53Z</time>
      </trkpt>
      <trkpt lat="42.2917630" lon="-8.6079650">
        <ele>10.7</ele>
        <time>2021-05-21T06:50:54Z</time>
      </trkpt>
      <trkpt lat="42.2917720" lon="-8.6079630">
        <ele>10.7</ele>
        <time>2021-05-21T06:50:55Z</time>
      </trkpt>
      <trkpt lat="42.2917860" lon="-8.6079670">
        <ele>10.7</ele>
        <time>2021-05-21T06:50:56Z</time>
      </trkpt>
      <trkpt lat="42.2917960" lon="-8.6079660">
        <ele>10.7</ele>
        <time>2021-05-21T06:50:57Z</time>
      </trkpt>
      <trkpt lat="42.2918040" lon="-8.6079680">
        <ele>10.7</ele>
        <time>2021-05-21T06:50:58Z</time>
      </trkpt>
      <trkpt lat="42.2918130" lon="-8.6079660">
        <ele>10.6</ele>
        <time>2021-05-21T06:50:59Z</time>
      </trkpt>
      <trkpt lat="42.2918240" lon="-8.6079640">
        <ele>10.6</ele>
        <time>2021-05-21T06:51:00Z</time>
      </trkpt>
      <trkpt lat="42.2918350" lon="-8.6079650">
        <ele>10.6</ele>
        <time>2021-05-21T06:51:01Z</time>
      </trkpt>
      <trkpt lat="42.2918410" lon="-8.6079560">
        <ele>10.6</ele>
        <time>2021-05-21T06:51:02Z</time>
      </trkpt>
      <trkpt lat="42.2918550" lon="-8.6079600">
        <ele>10.6</ele>
        <time>2021-05-21T06:51:03Z</time>
      </trkpt>
      <trkpt lat="42.2918750" lon="-8.6079640">
        <ele>10.6</ele>
        <time>2021-05-21T06:51:04Z</time>
      </trkpt>
      <trkpt lat="42.2918850" lon="-8.6079660">
        <ele>10.6</ele>
        <time>2021-05-21T06:51:05Z</time>
      </trkpt>
      <trkpt lat="42.2918990" lon="-8.6079640">
        <ele>10.6</ele>
        <time>2021-05-21T06:51:06Z</time>
      </trkpt>
      <trkpt lat="42.2919160" lon="-8.6079640">
        <ele>10.6</ele>
        <time>2021-05-21T06:51:07Z</time>
      </trkpt>
      <trkpt lat="42.2919410" lon="-8.6079620">
        <ele>10.6</ele>
        <time>2021-05-21T06:51:08Z</time>
      </trkpt>
      <trkpt lat="42.2919470" lon="-8.6079610">
        <ele>10.6</ele>
        <time>2021-05-21T06:51:09Z</time>
      </trkpt>
      <trkpt lat="42.2919530" lon="-8.6079590">
        <ele>10.6</ele>
        <time>2021-05-21T06:51:10Z</time>
      </trkpt>
      <trkpt lat="42.2919640" lon="-8.6079580">
        <ele>10.6</ele>
        <time>2021-05-21T06:51:11Z</time>
      </trkpt>
      <trkpt lat="42.2919700" lon="-8.6079560">
        <ele>10.6</ele>
        <time>2021-05-21T06:51:12Z</time>
      </trkpt>
      <trkpt lat="42.2919800" lon="-8.6079560">
        <ele>10.6</ele>
        <time>2021-05-21T06:51:13Z</time>
      </trkpt>
      <trkpt lat="42.2919910" lon="-8.6079550">
        <ele>10.5</ele>
        <time>2021-05-21T06:51:14Z</time>
      </trkpt>
      <trkpt lat="42.2919960" lon="-8.6079430">
        <ele>10.5</ele>
        <time>2021-05-21T06:51:15Z</time>
      </trkpt>
      <trkpt lat="42.2920040" lon="-8.6079340">
        <ele>10.5</ele>
        <time>2021-05-21T06:51:16Z</time>
      </trkpt>
      <trkpt lat="42.2920250" lon="-8.6079220">
        <ele>10.5</ele>
        <time>2021-05-21T06:51:17Z</time>
      </trkpt>
      <trkpt lat="42.2920340" lon="-8.6079170">
        <ele>10.5</ele>
        <time>2021-05-21T06:51:18Z</time>
      </trkpt>
      <trkpt lat="42.2920430" lon="-8.6079120">
        <ele>10.5</ele>
        <time>2021-05-21T06:51:19Z</time>
      </trkpt>
      <trkpt lat="42.2920520" lon="-8.6078960">
        <ele>10.4</ele>
        <time>2021-05-21T06:51:20Z</time>
      </trkpt>
      <trkpt lat="42.2920610" lon="-8.6078910">
        <ele>10.4</ele>
        <time>2021-05-21T06:51:21Z</time>
      </trkpt>
      <trkpt lat="42.2920700" lon="-8.6078850">
        <ele>10.4</ele>
        <time>2021-05-21T06:51:22Z</time>
      </trkpt>
      <trkpt lat="42.2920790" lon="-8.6078790">
        <ele>10.4</ele>
        <time>2021-05-21T06:51:23Z</time>
      </trkpt>
      <trkpt lat="42.2921030" lon="-8.6078580">
        <ele>10.3</ele>
        <time>2021-05-21T06:51:24Z</time>
      </trkpt>
      <trkpt lat="42.2921140" lon="-8.6078520">
        <ele>10.3</ele>
        <time>2021-05-21T06:51:25Z</time>
      </trkpt>
      <trkpt lat="42.2921250" lon="-8.6078520">
        <ele>10.3</ele>
        <time>2021-05-21T06:51:26Z</time>
      </trkpt>
      <trkpt lat="42.2921490" lon="-8.6078570">
        <ele>10.2</ele>
        <time>2021-05-21T06:51:27Z</time>
      </trkpt>
      <trkpt lat="42.2921560" lon="-8.6078600">
        <ele>10.2</ele>
        <time>2021-05-21T06:51:28Z</time>
      </trkpt>
      <trkpt lat="42.2921680" lon="-8.6078580">
        <ele>10.2</ele>
        <time>2021-05-21T06:51:29Z</time>
      </trkpt>
      <trkpt lat="42.2921820" lon="-8.6078660">
        <ele>10.2</ele>
        <time>2021-05-21T06:51:30Z</time>
      </trkpt>
      <trkpt lat="42.2921970" lon="-8.6078630">
        <ele>10.2</ele>
        <time>2021-05-21T06:51:31Z</time>
      </trkpt>
      <trkpt lat="42.2922100" lon="-8.6078540">
        <ele>10.1</ele>
        <time>2021-05-21T06:51:32Z</time>
      </trkpt>
      <trkpt lat="42.2922200" lon="-8.6078520">
        <ele>10.1</ele>
        <time>2021-05-21T06:51:33Z</time>
      </trkpt>
      <trkpt lat="42.2922380" lon="-8.6078450">
        <ele>10.1</ele>
        <time>2021-05-21T06:51:34Z</time>
      </trkpt>
      <trkpt lat="42.2922640" lon="-8.6078450">
        <ele>10.0</ele>
        <time>2021-05-21T06:51:35Z</time>
      </trkpt>
      <trkpt lat="42.2922730" lon="-8.6078420">
        <ele>10.0</ele>
        <time>2021-05-21T06:51:36Z</time>
      </trkpt>
      <trkpt lat="42.2922820" lon="-8.6078400">
        <ele>10.0</ele>
        <time>2021-05-21T06:51:37Z</time>
      </trkpt>
      <trkpt lat="42.2922980" lon="-8.6078400">
        <ele>9.9</ele>
        <time>2021-05-21T06:51:38Z</time>
      </trkpt>
      <trkpt lat="42.2923050" lon="-8.6078370">
        <ele>9.9</ele>
        <time>2021-05-21T06:51:39Z</time>
      </trkpt>
      <trkpt lat="42.2923140" lon="-8.6078320">
        <ele>9.9</ele>
        <time>2021-05-21T06:51:40Z</time>
      </trkpt>
      <trkpt lat="42.2923210" lon="-8.6078340">
        <ele>9.9</ele>
        <time>2021-05-21T06:51:41Z</time>
      </trkpt>
      <trkpt lat="42.2923250" lon="-8.6078190">
        <ele>9.8</ele>
        <time>2021-05-21T06:51:42Z</time>
      </trkpt>
      <trkpt lat="42.2923400" lon="-8.6078140">
        <ele>9.8</ele>
        <time>2021-05-21T06:51:43Z</time>
      </trkpt>
      <trkpt lat="42.2923550" lon="-8.6078110">
        <ele>9.8</ele>
        <time>2021-05-21T06:51:44Z</time>
      </trkpt>
      <trkpt lat="42.2923690" lon="-8.6078120">
        <ele>9.8</ele>
        <time>2021-05-21T06:51:45Z</time>
      </trkpt>
      <trkpt lat="42.2923940" lon="-8.6078110">
        <ele>9.7</ele>
        <time>2021-05-21T06:51:46Z</time>
      </trkpt>
      <trkpt lat="42.2924030" lon="-8.6078090">
        <ele>9.7</ele>
        <time>2021-05-21T06:51:47Z</time>
      </trkpt>
      <trkpt lat="42.2924110" lon="-8.6078060">
        <ele>9.7</ele>
        <time>2021-05-21T06:51:48Z</time>
      </trkpt>
      <trkpt lat="42.2924250" lon="-8.6078120">
        <ele>9.6</ele>
        <time>2021-05-21T06:51:49Z</time>
      </trkpt>
      <trkpt lat="42.2924310" lon="-8.6078050">
        <ele>9.6</ele>
        <time>2021-05-21T06:51:50Z</time>
      </trkpt>
      <trkpt lat="42.2924390" lon="-8.6078000">
        <ele>9.6</ele>
        <time>2021-05-21T06:51:51Z</time>
      </trkpt>
      <trkpt lat="42.2924480" lon="-8.6078070">
        <ele>9.6</ele>
        <time>2021-05-21T06:51:52Z</time>
      </trkpt>
      <trkpt lat="42.2924680" lon="-8.6077920">
        <ele>9.5</ele>
        <time>2021-05-21T06:51:53Z</time>
      </trkpt>
      <trkpt lat="42.2924820" lon="-8.6077900">
        <ele>9.5</ele>
        <time>2021-05-21T06:51:54Z</time>
      </trkpt>
      <trkpt lat="42.2924980" lon="-8.6077930">
        <ele>9.5</ele>
        <time>2021-05-21T06:51:55Z</time>
      </trkpt>
      <trkpt lat="42.2925100" lon="-8.6077840">
        <ele>9.4</ele>
        <time>2021-05-21T06:51:56Z</time>
      </trkpt>
      <trkpt lat="42.2925220" lon="-8.6077790">
        <ele>9.4</ele>
        <time>2021-05-21T06:51:57Z</time>
      </trkpt>
      <trkpt lat="42.2925320" lon="-8.6077760">
        <ele>9.4</ele>
        <time>2021-05-21T06:51:58Z</time>
      </trkpt>
      <trkpt lat="42.2925480" lon="-8.6077750">
        <ele>9.4</ele>
        <time>2021-05-21T06:51:59Z</time>
      </trkpt>
      <trkpt lat="42.2925640" lon="-8.6077740">
        <ele>9.3</ele>
        <time>2021-05-21T06:52:00Z</time>
      </trkpt>
      <trkpt lat="42.2925720" lon="-8.6077690">
        <ele>9.3</ele>
        <time>2021-05-21T06:52:01Z</time>
      </trkpt>
      <trkpt lat="42.2925810" lon="-8.6077690">
        <ele>9.3</ele>
        <time>2021-05-21T06:52:02Z</time>
      </trkpt>
      <trkpt lat="42.2925940" lon="-8.6077680">
        <ele>9.3</ele>
        <time>2021-05-21T06:52:03Z</time>
      </trkpt>
      <trkpt lat="42.2926090" lon="-8.6077590">
        <ele>9.2</ele>
        <time>2021-05-21T06:52:04Z</time>
      </trkpt>
      <trkpt lat="42.2926180" lon="-8.6077510">
        <ele>9.2</ele>
        <time>2021-05-21T06:52:05Z</time>
      </trkpt>
      <trkpt lat="42.2926310" lon="-8.6077440">
        <ele>9.2</ele>
        <time>2021-05-21T06:52:06Z</time>
      </trkpt>
      <trkpt lat="42.2926470" lon="-8.6077420">
        <ele>9.2</ele>
        <time>2021-05-21T06:52:07Z</time>
      </trkpt>
      <trkpt lat="42.2926660" lon="-8.6077430">
        <ele>9.1</ele>
        <time>2021-05-21T06:52:08Z</time>
      </trkpt>
      <trkpt lat="42.2926750" lon="-8.6077420">
        <ele>9.1</ele>
        <time>2021-05-21T06:52:09Z</time>
      </trkpt>
      <trkpt lat="42.2926840" lon="-8.6077410">
        <ele>9.1</ele>
        <time>2021-05-21T06:52:10Z</time>
      </trkpt>
      <trkpt lat="42.2927080" lon="-8.6077400">
        <ele>9.1</ele>
        <time>2021-05-21T06:52:11Z</time>
      </trkpt>
      <trkpt lat="42.2927180" lon="-8.6077390">
        <ele>9.1</ele>
        <time>2021-05-21T06:52:12Z</time>
      </trkpt>
      <trkpt lat="42.2927290" lon="-8.6077390">
        <ele>9.0</ele>
        <time>2021-05-21T06:52:13Z</time>
      </trkpt>
      <trkpt lat="42.2927470" lon="-8.6077380">
        <ele>9.0</ele>
        <time>2021-05-21T06:52:14Z</time>
      </trkpt>
      <trkpt lat="42.2927590" lon="-8.6077380">
        <ele>9.0</ele>
        <time>2021-05-21T06:52:15Z</time>
      </trkpt>
      <trkpt lat="42.2927730" lon="-8.6077340">
        <ele>9.0</ele>
        <time>2021-05-21T06:52:16Z</time>
      </trkpt>
      <trkpt lat="42.2927900" lon="-8.6077320">
        <ele>9.0</ele>
        <time>2021-05-21T06:52:17Z</time>
      </trkpt>
      <trkpt lat="42.2928050" lon="-8.6077290">
        <ele>8.9</ele>
        <time>2021-05-21T06:52:18Z</time>
      </trkpt>
      <trkpt lat="42.2928130" lon="-8.6077280">
        <ele>8.9</ele>
        <time>2021-05-21T06:52:19Z</time>
      </trkpt>
      <trkpt lat="42.2928200" lon="-8.6077260">
        <ele>8.9</ele>
        <time>2021-05-21T06:52:20Z</time>
      </trkpt>
      <trkpt lat="42.2928270" lon="-8.6077250">
        <ele>8.9</ele>
        <time>2021-05-21T06:52:21Z</time>
      </trkpt>
      <trkpt lat="42.2928390" lon="-8.6077250">
        <ele>8.9</ele>
        <time>2021-05-21T06:52:22Z</time>
      </trkpt>
      <trkpt lat="42.2928450" lon="-8.6077250">
        <ele>8.9</ele>
        <time>2021-05-21T06:52:23Z</time>
      </trkpt>
      <trkpt lat="42.2928530" lon="-8.6077240">
        <ele>8.9</ele>
        <time>2021-05-21T06:52:24Z</time>
      </trkpt>
      <trkpt lat="42.2928580" lon="-8.6077190">
        <ele>8.9</ele>
        <time>2021-05-21T06:52:25Z</time>
      </trkpt>
      <trkpt lat="42.2928830" lon="-8.6076980">
        <ele>8.8</ele>
        <time>2021-05-21T06:52:26Z</time>
      </trkpt>
      <trkpt lat="42.2928850" lon="-8.6076890">
        <ele>8.8</ele>
        <time>2021-05-21T06:52:27Z</time>
      </trkpt>
      <trkpt lat="42.2928880" lon="-8.6076800">
        <ele>8.8</ele>
        <time>2021-05-21T06:52:28Z</time>
      </trkpt>
      <trkpt lat="42.2929020" lon="-8.6076680">
        <ele>8.8</ele>
        <time>2021-05-21T06:52:29Z</time>
      </trkpt>
      <trkpt lat="42.2929180" lon="-8.6076550">
        <ele>8.8</ele>
        <time>2021-05-21T06:52:30Z</time>
      </trkpt>
      <trkpt lat="42.2929310" lon="-8.6076490">
        <ele>8.8</ele>
        <time>2021-05-21T06:52:31Z</time>
      </trkpt>
      <trkpt lat="42.2929410" lon="-8.6076200">
        <ele>8.7</ele>
        <time>2021-05-21T06:52:32Z</time>
      </trkpt>
      <trkpt lat="42.2929510" lon="-8.6076190">
        <ele>8.7</ele>
        <time>2021-05-21T06:52:33Z</time>
      </trkpt>
      <trkpt lat="42.2929700" lon="-8.6076030">
        <ele>8.7</ele>
        <time>2021-05-21T06:52:34Z</time>
      </trkpt>
      <trkpt lat="42.2929960" lon="-8.6075780">
        <ele>8.7</ele>
        <time>2021-05-21T06:52:35Z</time>
      </trkpt>
      <trkpt lat="42.2930090" lon="-8.6075750">
        <ele>8.6</ele>
        <time>2021-05-21T06:52:36Z</time>
      </trkpt>
      <trkpt lat="42.2930250" lon="-8.6075750">
        <ele>8.6</ele>
        <time>2021-05-21T06:52:37Z</time>
      </trkpt>
      <trkpt lat="42.2930370" lon="-8.6075750">
        <ele>8.6</ele>
        <time>2021-05-21T06:52:38Z</time>
      </trkpt>
      <trkpt lat="42.2930470" lon="-8.6075710">
        <ele>8.6</ele>
        <time>2021-05-21T06:52:39Z</time>
      </trkpt>
      <trkpt lat="42.2930590" lon="-8.6075660">
        <ele>8.6</ele>
        <time>2021-05-21T06:52:40Z</time>
      </trkpt>
      <trkpt lat="42.2930680" lon="-8.6075590">
        <ele>8.6</ele>
        <time>2021-05-21T06:52:41Z</time>
      </trkpt>
      <trkpt lat="42.2930780" lon="-8.6075570">
        <ele>8.6</ele>
        <time>2021-05-21T06:52:42Z</time>
      </trkpt>
      <trkpt lat="42.2930920" lon="-8.6075630">
        <ele>8.6</ele>
        <time>2021-05-21T06:52:43Z</time>
      </trkpt>
      <trkpt lat="42.2931060" lon="-8.6075620">
        <ele>8.6</ele>
        <time>2021-05-21T06:52:44Z</time>
      </trkpt>
      <trkpt lat="42.2931250" lon="-8.6075630">
        <ele>8.6</ele>
        <time>2021-05-21T06:52:45Z</time>
      </trkpt>
      <trkpt lat="42.2931490" lon="-8.6075600">
        <ele>8.6</ele>
        <time>2021-05-21T06:52:46Z</time>
      </trkpt>
      <trkpt lat="42.2931570" lon="-8.6075580">
        <ele>8.6</ele>
        <time>2021-05-21T06:52:47Z</time>
      </trkpt>
      <trkpt lat="42.2931640" lon="-8.6075560">
        <ele>8.6</ele>
        <time>2021-05-21T06:52:48Z</time>
      </trkpt>
      <trkpt lat="42.2931800" lon="-8.6075540">
        <ele>8.6</ele>
        <time>2021-05-21T06:52:49Z</time>
      </trkpt>
      <trkpt lat="42.2931910" lon="-8.6075540">
        <ele>8.6</ele>
        <time>2021-05-21T06:52:50Z</time>
      </trkpt>
      <trkpt lat="42.2932030" lon="-8.6075550">
        <ele>8.5</ele>
        <time>2021-05-21T06:52:51Z</time>
      </trkpt>
      <trkpt lat="42.2932200" lon="-8.6075560">
        <ele>8.5</ele>
        <time>2021-05-21T06:52:52Z</time>
      </trkpt>
      <trkpt lat="42.2932330" lon="-8.6075590">
        <ele>8.5</ele>
        <time>2021-05-21T06:52:53Z</time>
      </trkpt>
      <trkpt lat="42.2932540" lon="-8.6075650">
        <ele>8.5</ele>
        <time>2021-05-21T06:52:54Z</time>
      </trkpt>
      <trkpt lat="42.2932630" lon="-8.6075670">
        <ele>8.5</ele>
        <time>2021-05-21T06:52:55Z</time>
      </trkpt>
      <trkpt lat="42.2932730" lon="-8.6075690">
        <ele>8.5</ele>
        <time>2021-05-21T06:52:56Z</time>
      </trkpt>
      <trkpt lat="42.2932870" lon="-8.6075640">
        <ele>8.5</ele>
        <time>2021-05-21T06:52:57Z</time>
      </trkpt>
      <trkpt lat="42.2933080" lon="-8.6075620">
        <ele>8.5</ele>
        <time>2021-05-21T06:52:58Z</time>
      </trkpt>
      <trkpt lat="42.2933180" lon="-8.6075580">
        <ele>8.5</ele>
        <time>2021-05-21T06:52:59Z</time>
      </trkpt>
      <trkpt lat="42.2933280" lon="-8.6075540">
        <ele>8.5</ele>
        <time>2021-05-21T06:53:00Z</time>
      </trkpt>
      <trkpt lat="42.2933380" lon="-8.6075470">
        <ele>8.5</ele>
        <time>2021-05-21T06:53:01Z</time>
      </trkpt>
      <trkpt lat="42.2933510" lon="-8.6075460">
        <ele>8.5</ele>
        <time>2021-05-21T06:53:02Z</time>
      </trkpt>
      <trkpt lat="42.2933610" lon="-8.6075440">
        <ele>8.5</ele>
        <time>2021-05-21T06:53:03Z</time>
      </trkpt>
      <trkpt lat="42.2933660" lon="-8.6075330">
        <ele>8.5</ele>
        <time>2021-05-21T06:53:04Z</time>
      </trkpt>
      <trkpt lat="42.2933770" lon="-8.6075230">
        <ele>8.5</ele>
        <time>2021-05-21T06:53:05Z</time>
      </trkpt>
      <trkpt lat="42.2933840" lon="-8.6075190">
        <ele>8.5</ele>
        <time>2021-05-21T06:53:06Z</time>
      </trkpt>
      <trkpt lat="42.2933920" lon="-8.6075140">
        <ele>8.5</ele>
        <time>2021-05-21T06:53:07Z</time>
      </trkpt>
      <trkpt lat="42.2933990" lon="-8.6075100">
        <ele>8.5</ele>
        <time>2021-05-21T06:53:08Z</time>
      </trkpt>
      <trkpt lat="42.2934060" lon="-8.6075060">
        <ele>8.5</ele>
        <time>2021-05-21T06:53:09Z</time>
      </trkpt>
      <trkpt lat="42.2934290" lon="-8.6074990">
        <ele>8.5</ele>
        <time>2021-05-21T06:53:10Z</time>
      </trkpt>
      <trkpt lat="42.2934370" lon="-8.6074990">
        <ele>8.5</ele>
        <time>2021-05-21T06:53:11Z</time>
      </trkpt>
      <trkpt lat="42.2934450" lon="-8.6074990">
        <ele>8.5</ele>
        <time>2021-05-21T06:53:12Z</time>
      </trkpt>
      <trkpt lat="42.2934620" lon="-8.6074810">
        <ele>8.5</ele>
        <time>2021-05-21T06:53:13Z</time>
      </trkpt>
      <trkpt lat="42.2934700" lon="-8.6074760">
        <ele>8.5</ele>
        <time>2021-05-21T06:53:14Z</time>
      </trkpt>
      <trkpt lat="42.2934790" lon="-8.6074700">
        <ele>8.5</ele>
        <time>2021-05-21T06:53:15Z</time>
      </trkpt>
      <trkpt lat="42.2934890" lon="-8.6074590">
        <ele>8.5</ele>
        <time>2021-05-21T06:53:16Z</time>
      </trkpt>
      <trkpt lat="42.2934980" lon="-8.6074570">
        <ele>8.5</ele>
        <time>2021-05-21T06:53:17Z</time>
      </trkpt>
      <trkpt lat="42.2935090" lon="-8.6074490">
        <ele>8.5</ele>
        <time>2021-05-21T06:53:18Z</time>
      </trkpt>
      <trkpt lat="42.2935180" lon="-8.6074380">
        <ele>8.5</ele>
        <time>2021-05-21T06:53:19Z</time>
      </trkpt>
      <trkpt lat="42.2935410" lon="-8.6074340">
        <ele>8.5</ele>
        <time>2021-05-21T06:53:20Z</time>
      </trkpt>
      <trkpt lat="42.2935520" lon="-8.6074290">
        <ele>8.5</ele>
        <time>2021-05-21T06:53:21Z</time>
      </trkpt>
      <trkpt lat="42.2935690" lon="-8.6074200">
        <ele>8.5</ele>
        <time>2021-05-21T06:53:22Z</time>
      </trkpt>
      <trkpt lat="42.2935850" lon="-8.6074150">
        <ele>8.5</ele>
        <time>2021-05-21T06:53:23Z</time>
      </trkpt>
      <trkpt lat="42.2935990" lon="-8.6074150">
        <ele>8.5</ele>
        <time>2021-05-21T06:53:24Z</time>
      </trkpt>
      <trkpt lat="42.2936130" lon="-8.6074080">
        <ele>8.6</ele>
        <time>2021-05-21T06:53:25Z</time>
      </trkpt>
      <trkpt lat="42.2936280" lon="-8.6074040">
        <ele>8.6</ele>
        <time>2021-05-21T06:53:26Z</time>
      </trkpt>
      <trkpt lat="42.2936410" lon="-8.6073990">
        <ele>8.6</ele>
        <time>2021-05-21T06:53:27Z</time>
      </trkpt>
      <trkpt lat="42.2936490" lon="-8.6073990">
        <ele>8.6</ele>
        <time>2021-05-21T06:53:28Z</time>
      </trkpt>
      <trkpt lat="42.2936590" lon="-8.6073990">
        <ele>8.6</ele>
        <time>2021-05-21T06:53:29Z</time>
      </trkpt>
      <trkpt lat="42.2936810" lon="-8.6074040">
        <ele>8.6</ele>
        <time>2021-05-21T06:53:30Z</time>
      </trkpt>
      <trkpt lat="42.2936920" lon="-8.6074020">
        <ele>8.6</ele>
        <time>2021-05-21T06:53:31Z</time>
      </trkpt>
      <trkpt lat="42.2937020" lon="-8.6073970">
        <ele>8.6</ele>
        <time>2021-05-21T06:53:32Z</time>
      </trkpt>
      <trkpt lat="42.2937160" lon="-8.6074000">
        <ele>8.7</ele>
        <time>2021-05-21T06:53:33Z</time>
      </trkpt>
      <trkpt lat="42.2937270" lon="-8.6073990">
        <ele>8.7</ele>
        <time>2021-05-21T06:53:34Z</time>
      </trkpt>
      <trkpt lat="42.2937410" lon="-8.6074040">
        <ele>8.7</ele>
        <time>2021-05-21T06:53:35Z</time>
      </trkpt>
      <trkpt lat="42.2937550" lon="-8.6074090">
        <ele>8.7</ele>
        <time>2021-05-21T06:53:36Z</time>
      </trkpt>
      <trkpt lat="42.2937690" lon="-8.6074220">
        <ele>8.7</ele>
        <time>2021-05-21T06:53:37Z</time>
      </trkpt>
      <trkpt lat="42.2937770" lon="-8.6074280">
        <ele>8.7</ele>
        <time>2021-05-21T06:53:38Z</time>
      </trkpt>
      <trkpt lat="42.2937850" lon="-8.6074330">
        <ele>8.7</ele>
        <time>2021-05-21T06:53:39Z</time>
      </trkpt>
      <trkpt lat="42.2937930" lon="-8.6074390">
        <ele>8.7</ele>
        <time>2021-05-21T06:53:40Z</time>
      </trkpt>
      <trkpt lat="42.2938120" lon="-8.6074490">
        <ele>8.7</ele>
        <time>2021-05-21T06:53:41Z</time>
      </trkpt>
      <trkpt lat="42.2938210" lon="-8.6074530">
        <ele>8.7</ele>
        <time>2021-05-21T06:53:42Z</time>
      </trkpt>
      <trkpt lat="42.2938290" lon="-8.6074580">
        <ele>8.8</ele>
        <time>2021-05-21T06:53:43Z</time>
      </trkpt>
      <trkpt lat="42.2938410" lon="-8.6074620">
        <ele>8.8</ele>
        <time>2021-05-21T06:53:44Z</time>
      </trkpt>
      <trkpt lat="42.2938470" lon="-8.6074580">
        <ele>8.8</ele>
        <time>2021-05-21T06:53:45Z</time>
      </trkpt>
      <trkpt lat="42.2938630" lon="-8.6074700">
        <ele>8.8</ele>
        <time>2021-05-21T06:53:46Z</time>
      </trkpt>
      <trkpt lat="42.2938750" lon="-8.6074780">
        <ele>8.8</ele>
        <time>2021-05-21T06:53:47Z</time>
      </trkpt>
      <trkpt lat="42.2938860" lon="-8.6074850">
        <ele>8.8</ele>
        <time>2021-05-21T06:53:48Z</time>
      </trkpt>
      <trkpt lat="42.2938940" lon="-8.6074860">
        <ele>8.8</ele>
        <time>2021-05-21T06:53:49Z</time>
      </trkpt>
      <trkpt lat="42.2939110" lon="-8.6074980">
        <ele>8.8</ele>
        <time>2021-05-21T06:53:50Z</time>
      </trkpt>
      <trkpt lat="42.2939190" lon="-8.6075010">
        <ele>9.0</ele>
        <time>2021-05-21T06:53:51Z</time>
      </trkpt>
      <trkpt lat="42.2939360" lon="-8.6075120">
        <ele>9.1</ele>
        <time>2021-05-21T06:53:52Z</time>
      </trkpt>
      <trkpt lat="42.2939490" lon="-8.6075250">
        <ele>9.1</ele>
        <time>2021-05-21T06:53:53Z</time>
      </trkpt>
      <trkpt lat="42.2939570" lon="-8.6075330">
        <ele>9.2</ele>
        <time>2021-05-21T06:53:54Z</time>
      </trkpt>
      <trkpt lat="42.2939700" lon="-8.6075400">
        <ele>9.2</ele>
        <time>2021-05-21T06:53:55Z</time>
      </trkpt>
      <trkpt lat="42.2939770" lon="-8.6075490">
        <ele>9.3</ele>
        <time>2021-05-21T06:53:56Z</time>
      </trkpt>
      <trkpt lat="42.2939980" lon="-8.6075530">
        <ele>9.4</ele>
        <time>2021-05-21T06:53:57Z</time>
      </trkpt>
      <trkpt lat="42.2940050" lon="-8.6075630">
        <ele>9.4</ele>
        <time>2021-05-21T06:53:58Z</time>
      </trkpt>
      <trkpt lat="42.2940130" lon="-8.6075650">
        <ele>9.5</ele>
        <time>2021-05-21T06:53:59Z</time>
      </trkpt>
      <trkpt lat="42.2940150" lon="-8.6075650">
        <ele>9.5</ele>
        <time>2021-05-21T06:54:00Z</time>
      </trkpt>
      <trkpt lat="42.2940220" lon="-8.6075660">
        <ele>9.5</ele>
        <time>2021-05-21T06:54:01Z</time>
      </trkpt>
      <trkpt lat="42.2940320" lon="-8.6075730">
        <ele>9.6</ele>
        <time>2021-05-21T06:54:02Z</time>
      </trkpt>
      <trkpt lat="42.2940400" lon="-8.6075860">
        <ele>9.6</ele>
        <time>2021-05-21T06:54:03Z</time>
      </trkpt>
      <trkpt lat="42.2940480" lon="-8.6076060">
        <ele>9.7</ele>
        <time>2021-05-21T06:54:04Z</time>
      </trkpt>
      <trkpt lat="42.2940550" lon="-8.6076150">
        <ele>9.8</ele>
        <time>2021-05-21T06:54:05Z</time>
      </trkpt>
      <trkpt lat="42.2940580" lon="-8.6076250">
        <ele>9.8</ele>
        <time>2021-05-21T06:54:06Z</time>
      </trkpt>
      <trkpt lat="42.2940570" lon="-8.6076420">
        <ele>9.9</ele>
        <time>2021-05-21T06:54:07Z</time>
      </trkpt>
      <trkpt lat="42.2940690" lon="-8.6076670">
        <ele>10.1</ele>
        <time>2021-05-21T06:54:08Z</time>
      </trkpt>
      <trkpt lat="42.2940710" lon="-8.6076630">
        <ele>10.1</ele>
        <time>2021-05-21T06:54:09Z</time>
      </trkpt>
      <trkpt lat="42.2940830" lon="-8.6076710">
        <ele>10.2</ele>
        <time>2021-05-21T06:54:10Z</time>
      </trkpt>
      <trkpt lat="42.2940810" lon="-8.6076880">
        <ele>10.3</ele>
        <time>2021-05-21T06:54:11Z</time>
      </trkpt>
      <trkpt lat="42.2940960" lon="-8.6077130">
        <ele>10.4</ele>
        <time>2021-05-21T06:54:12Z</time>
      </trkpt>
      <trkpt lat="42.2941030" lon="-8.6077420">
        <ele>10.6</ele>
        <time>2021-05-21T06:54:13Z</time>
      </trkpt>
      <trkpt lat="42.2941070" lon="-8.6077560">
        <ele>10.7</ele>
        <time>2021-05-21T06:54:14Z</time>
      </trkpt>
      <trkpt lat="42.2940990" lon="-8.6077580">
        <ele>10.8</ele>
        <time>2021-05-21T06:54:15Z</time>
      </trkpt>
      <trkpt lat="42.2941020" lon="-8.6077760">
        <ele>10.9</ele>
        <time>2021-05-21T06:54:16Z</time>
      </trkpt>
      <trkpt lat="42.2941110" lon="-8.6077980">
        <ele>11.0</ele>
        <time>2021-05-21T06:54:17Z</time>
      </trkpt>
      <trkpt lat="42.2941160" lon="-8.6078190">
        <ele>11.2</ele>
        <time>2021-05-21T06:54:18Z</time>
      </trkpt>
      <trkpt lat="42.2941260" lon="-8.6078340">
        <ele>11.3</ele>
        <time>2021-05-21T06:54:19Z</time>
      </trkpt>
      <trkpt lat="42.2941310" lon="-8.6078440">
        <ele>11.4</ele>
        <time>2021-05-21T06:54:20Z</time>
      </trkpt>
      <trkpt lat="42.2941440" lon="-8.6078630">
        <ele>11.5</ele>
        <time>2021-05-21T06:54:21Z</time>
      </trkpt>
      <trkpt lat="42.2941490" lon="-8.6078750">
        <ele>11.6</ele>
        <time>2021-05-21T06:54:22Z</time>
      </trkpt>
      <trkpt lat="42.2941570" lon="-8.6078840">
        <ele>11.7</ele>
        <time>2021-05-21T06:54:23Z</time>
      </trkpt>
      <trkpt lat="42.2941630" lon="-8.6078920">
        <ele>11.8</ele>
        <time>2021-05-21T06:54:24Z</time>
      </trkpt>
      <trkpt lat="42.2941770" lon="-8.6079110">
        <ele>11.9</ele>
        <time>2021-05-21T06:54:25Z</time>
      </trkpt>
      <trkpt lat="42.2941860" lon="-8.6079210">
        <ele>12.0</ele>
        <time>2021-05-21T06:54:26Z</time>
      </trkpt>
      <trkpt lat="42.2941940" lon="-8.6079310">
        <ele>12.1</ele>
        <time>2021-05-21T06:54:27Z</time>
      </trkpt>
      <trkpt lat="42.2941980" lon="-8.6079400">
        <ele>12.2</ele>
        <time>2021-05-21T06:54:28Z</time>
      </trkpt>
      <trkpt lat="42.2942080" lon="-8.6079470">
        <ele>12.3</ele>
        <time>2021-05-21T06:54:29Z</time>
      </trkpt>
      <trkpt lat="42.2942150" lon="-8.6079530">
        <ele>12.4</ele>
        <time>2021-05-21T06:54:30Z</time>
      </trkpt>
      <trkpt lat="42.2942200" lon="-8.6079550">
        <ele>12.4</ele>
        <time>2021-05-21T06:54:31Z</time>
      </trkpt>
      <trkpt lat="42.2942260" lon="-8.6079740">
        <ele>12.5</ele>
        <time>2021-05-21T06:54:32Z</time>
      </trkpt>
      <trkpt lat="42.2942200" lon="-8.6079870">
        <ele>12.6</ele>
        <time>2021-05-21T06:54:33Z</time>
      </trkpt>
      <trkpt lat="42.2942320" lon="-8.6079990">
        <ele>12.8</ele>
        <time>2021-05-21T06:54:34Z</time>
      </trkpt>
      <trkpt lat="42.2942450" lon="-8.6080070">
        <ele>12.9</ele>
        <time>2021-05-21T06:54:35Z</time>
      </trkpt>
      <trkpt lat="42.2942530" lon="-8.6080280">
        <ele>13.0</ele>
        <time>2021-05-21T06:54:36Z</time>
      </trkpt>
      <trkpt lat="42.2942480" lon="-8.6080420">
        <ele>13.1</ele>
        <time>2021-05-21T06:54:37Z</time>
      </trkpt>
      <trkpt lat="42.2942580" lon="-8.6080640">
        <ele>13.3</ele>
        <time>2021-05-21T06:54:38Z</time>
      </trkpt>
      <trkpt lat="42.2942670" lon="-8.6080910">
        <ele>13.5</ele>
        <time>2021-05-21T06:54:39Z</time>
      </trkpt>
      <trkpt lat="42.2942700" lon="-8.6081000">
        <ele>13.6</ele>
        <time>2021-05-21T06:54:40Z</time>
      </trkpt>
      <trkpt lat="42.2942740" lon="-8.6081100">
        <ele>13.6</ele>
        <time>2021-05-21T06:54:41Z</time>
      </trkpt>
      <trkpt lat="42.2942770" lon="-8.6081170">
        <ele>13.7</ele>
        <time>2021-05-21T06:54:42Z</time>
      </trkpt>
      <trkpt lat="42.2942920" lon="-8.6081320">
        <ele>13.9</ele>
        <time>2021-05-21T06:54:43Z</time>
      </trkpt>
      <trkpt lat="42.2942970" lon="-8.6081430">
        <ele>13.9</ele>
        <time>2021-05-21T06:54:44Z</time>
      </trkpt>
      <trkpt lat="42.2943120" lon="-8.6081720">
        <ele>14.2</ele>
        <time>2021-05-21T06:54:45Z</time>
      </trkpt>
      <trkpt lat="42.2943170" lon="-8.6081800">
        <ele>14.2</ele>
        <time>2021-05-21T06:54:46Z</time>
      </trkpt>
      <trkpt lat="42.2943230" lon="-8.6081870">
        <ele>14.3</ele>
        <time>2021-05-21T06:54:47Z</time>
      </trkpt>
      <trkpt lat="42.2943280" lon="-8.6082030">
        <ele>14.4</ele>
        <time>2021-05-21T06:54:48Z</time>
      </trkpt>
      <trkpt lat="42.2943330" lon="-8.6082200">
        <ele>14.5</ele>
        <time>2021-05-21T06:54:49Z</time>
      </trkpt>
      <trkpt lat="42.2943370" lon="-8.6082290">
        <ele>14.6</ele>
        <time>2021-05-21T06:54:50Z</time>
      </trkpt>
      <trkpt lat="42.2943520" lon="-8.6082640">
        <ele>14.8</ele>
        <time>2021-05-21T06:54:51Z</time>
      </trkpt>
      <trkpt lat="42.2943570" lon="-8.6082740">
        <ele>14.9</ele>
        <time>2021-05-21T06:54:52Z</time>
      </trkpt>
      <trkpt lat="42.2943640" lon="-8.6082990">
        <ele>15.1</ele>
        <time>2021-05-21T06:54:53Z</time>
      </trkpt>
      <trkpt lat="42.2943720" lon="-8.6083080">
        <ele>15.2</ele>
        <time>2021-05-21T06:54:54Z</time>
      </trkpt>
      <trkpt lat="42.2943810" lon="-8.6083170">
        <ele>15.2</ele>
        <time>2021-05-21T06:54:55Z</time>
      </trkpt>
      <trkpt lat="42.2943920" lon="-8.6083360">
        <ele>15.4</ele>
        <time>2021-05-21T06:54:56Z</time>
      </trkpt>
      <trkpt lat="42.2943960" lon="-8.6083460">
        <ele>15.5</ele>
        <time>2021-05-21T06:54:57Z</time>
      </trkpt>
      <trkpt lat="42.2943990" lon="-8.6083570">
        <ele>15.5</ele>
        <time>2021-05-21T06:54:58Z</time>
      </trkpt>
      <trkpt lat="42.2944030" lon="-8.6083680">
        <ele>15.6</ele>
        <time>2021-05-21T06:54:59Z</time>
      </trkpt>
      <trkpt lat="42.2944050" lon="-8.6083850">
        <ele>15.7</ele>
        <time>2021-05-21T06:55:00Z</time>
      </trkpt>
      <trkpt lat="42.2944220" lon="-8.6084070">
        <ele>15.9</ele>
        <time>2021-05-21T06:55:01Z</time>
      </trkpt>
      <trkpt lat="42.2944190" lon="-8.6084030">
        <ele>15.9</ele>
        <time>2021-05-21T06:55:02Z</time>
      </trkpt>
      <trkpt lat="42.2944230" lon="-8.6084130">
        <ele>16.0</ele>
        <time>2021-05-21T06:55:03Z</time>
      </trkpt>
      <trkpt lat="42.2944260" lon="-8.6084220">
        <ele>16.1</ele>
        <time>2021-05-21T06:55:04Z</time>
      </trkpt>
      <trkpt lat="42.2944320" lon="-8.6084310">
        <ele>16.2</ele>
        <time>2021-05-21T06:55:05Z</time>
      </trkpt>
      <trkpt lat="42.2944360" lon="-8.6084430">
        <ele>16.3</ele>
        <time>2021-05-21T06:55:06Z</time>
      </trkpt>
      <trkpt lat="42.2944440" lon="-8.6084580">
        <ele>16.4</ele>
        <time>2021-05-21T06:55:07Z</time>
      </trkpt>
      <trkpt lat="42.2944510" lon="-8.6084760">
        <ele>16.5</ele>
        <time>2021-05-21T06:55:08Z</time>
      </trkpt>
      <trkpt lat="42.2944600" lon="-8.6085140">
        <ele>16.8</ele>
        <time>2021-05-21T06:55:09Z</time>
      </trkpt>
      <trkpt lat="42.2944630" lon="-8.6085230">
        <ele>16.9</ele>
        <time>2021-05-21T06:55:10Z</time>
      </trkpt>
      <trkpt lat="42.2944620" lon="-8.6085390">
        <ele>17.0</ele>
        <time>2021-05-21T06:55:11Z</time>
      </trkpt>
      <trkpt lat="42.2944750" lon="-8.6085560">
        <ele>17.2</ele>
        <time>2021-05-21T06:55:12Z</time>
      </trkpt>
      <trkpt lat="42.2944780" lon="-8.6085640">
        <ele>17.2</ele>
        <time>2021-05-21T06:55:13Z</time>
      </trkpt>
      <trkpt lat="42.2944860" lon="-8.6085680">
        <ele>17.3</ele>
        <time>2021-05-21T06:55:14Z</time>
      </trkpt>
      <trkpt lat="42.2944960" lon="-8.6085810">
        <ele>17.5</ele>
        <time>2021-05-21T06:55:15Z</time>
      </trkpt>
      <trkpt lat="42.2945040" lon="-8.6085890">
        <ele>17.6</ele>
        <time>2021-05-21T06:55:16Z</time>
      </trkpt>
      <trkpt lat="42.2945220" lon="-8.6086110">
        <ele>17.8</ele>
        <time>2021-05-21T06:55:17Z</time>
      </trkpt>
      <trkpt lat="42.2945240" lon="-8.6086180">
        <ele>17.8</ele>
        <time>2021-05-21T06:55:18Z</time>
      </trkpt>
      <trkpt lat="42.2945300" lon="-8.6086250">
        <ele>17.9</ele>
        <time>2021-05-21T06:55:19Z</time>
      </trkpt>
      <trkpt lat="42.2945330" lon="-8.6086380">
        <ele>18.0</ele>
        <time>2021-05-21T06:55:20Z</time>
      </trkpt>
      <trkpt lat="42.2945360" lon="-8.6086470">
        <ele>18.1</ele>
        <time>2021-05-21T06:55:21Z</time>
      </trkpt>
      <trkpt lat="42.2945340" lon="-8.6086420">
        <ele>18.1</ele>
        <time>2021-05-21T06:55:22Z</time>
      </trkpt>
      <trkpt lat="42.2945360" lon="-8.6086460">
        <ele>18.2</ele>
        <time>2021-05-21T06:55:23Z</time>
      </trkpt>
      <trkpt lat="42.2945510" lon="-8.6086510">
        <ele>18.3</ele>
        <time>2021-05-21T06:55:24Z</time>
      </trkpt>
      <trkpt lat="42.2945600" lon="-8.6086580">
        <ele>18.4</ele>
        <time>2021-05-21T06:55:25Z</time>
      </trkpt>
      <trkpt lat="42.2945630" lon="-8.6086750">
        <ele>18.6</ele>
        <time>2021-05-21T06:55:26Z</time>
      </trkpt>
      <trkpt lat="42.2945910" lon="-8.6086990">
        <ele>18.9</ele>
        <time>2021-05-21T06:55:27Z</time>
      </trkpt>
      <trkpt lat="42.2945990" lon="-8.6087050">
        <ele>19.0</ele>
        <time>2021-05-21T06:55:28Z</time>
      </trkpt>
      <trkpt lat="42.2946060" lon="-8.6087440">
        <ele>19.3</ele>
        <time>2021-05-21T06:55:29Z</time>
      </trkpt>
      <trkpt lat="42.2946110" lon="-8.6087560">
        <ele>19.4</ele>
        <time>2021-05-21T06:55:30Z</time>
      </trkpt>
      <trkpt lat="42.2946150" lon="-8.6087630">
        <ele>19.4</ele>
        <time>2021-05-21T06:55:31Z</time>
      </trkpt>
      <trkpt lat="42.2946210" lon="-8.6087700">
        <ele>19.5</ele>
        <time>2021-05-21T06:55:32Z</time>
      </trkpt>
      <trkpt lat="42.2946260" lon="-8.6087780">
        <ele>19.6</ele>
        <time>2021-05-21T06:55:33Z</time>
      </trkpt>
      <trkpt lat="42.2946360" lon="-8.6087890">
        <ele>19.7</ele>
        <time>2021-05-21T06:55:34Z</time>
      </trkpt>
      <trkpt lat="42.2946500" lon="-8.6088020">
        <ele>19.9</ele>
        <time>2021-05-21T06:55:35Z</time>
      </trkpt>
      <trkpt lat="42.2946580" lon="-8.6088130">
        <ele>20.0</ele>
        <time>2021-05-21T06:55:36Z</time>
      </trkpt>
      <trkpt lat="42.2946730" lon="-8.6088460">
        <ele>20.2</ele>
        <time>2021-05-21T06:55:37Z</time>
      </trkpt>
      <trkpt lat="42.2946790" lon="-8.6088590">
        <ele>20.3</ele>
        <time>2021-05-21T06:55:38Z</time>
      </trkpt>
      <trkpt lat="42.2946780" lon="-8.6088690">
        <ele>20.4</ele>
        <time>2021-05-21T06:55:39Z</time>
      </trkpt>
      <trkpt lat="42.2946770" lon="-8.6088790">
        <ele>20.5</ele>
        <time>2021-05-21T06:55:40Z</time>
      </trkpt>
      <trkpt lat="42.2946840" lon="-8.6089000">
        <ele>20.6</ele>
        <time>2021-05-21T06:55:41Z</time>
      </trkpt>
      <trkpt lat="42.2947030" lon="-8.6089250">
        <ele>20.8</ele>
        <time>2021-05-21T06:55:42Z</time>
      </trkpt>
      <trkpt lat="42.2947110" lon="-8.6089320">
        <ele>20.9</ele>
        <time>2021-05-21T06:55:43Z</time>
      </trkpt>
      <trkpt lat="42.2947190" lon="-8.6089380">
        <ele>20.9</ele>
        <time>2021-05-21T06:55:44Z</time>
      </trkpt>
      <trkpt lat="42.2947310" lon="-8.6089520">
        <ele>21.0</ele>
        <time>2021-05-21T06:55:45Z</time>
      </trkpt>
      <trkpt lat="42.2947290" lon="-8.6089470">
        <ele>21.0</ele>
        <time>2021-05-21T06:55:46Z</time>
      </trkpt>
      <trkpt lat="42.2947390" lon="-8.6089590">
        <ele>21.1</ele>
        <time>2021-05-21T06:55:47Z</time>
      </trkpt>
      <trkpt lat="42.2947560" lon="-8.6089720">
        <ele>21.2</ele>
        <time>2021-05-21T06:55:48Z</time>
      </trkpt>
      <trkpt lat="42.2947700" lon="-8.6089800">
        <ele>21.3</ele>
        <time>2021-05-21T06:55:49Z</time>
      </trkpt>
      <trkpt lat="42.2947830" lon="-8.6089870">
        <ele>21.4</ele>
        <time>2021-05-21T06:55:50Z</time>
      </trkpt>
      <trkpt lat="42.2947910" lon="-8.6089900">
        <ele>21.5</ele>
        <time>2021-05-21T06:55:51Z</time>
      </trkpt>
      <trkpt lat="42.2948020" lon="-8.6089970">
        <ele>21.5</ele>
        <time>2021-05-21T06:55:52Z</time>
      </trkpt>
      <trkpt lat="42.2948150" lon="-8.6090060">
        <ele>21.6</ele>
        <time>2021-05-21T06:55:53Z</time>
      </trkpt>
      <trkpt lat="42.2948330" lon="-8.6090160">
        <ele>21.7</ele>
        <time>2021-05-21T06:55:54Z</time>
      </trkpt>
      <trkpt lat="42.2948410" lon="-8.6090140">
        <ele>21.7</ele>
        <time>2021-05-21T06:55:55Z</time>
      </trkpt>
      <trkpt lat="42.2948500" lon="-8.6090330">
        <ele>21.8</ele>
        <time>2021-05-21T06:55:56Z</time>
      </trkpt>
      <trkpt lat="42.2948490" lon="-8.6090410">
        <ele>21.8</ele>
        <time>2021-05-21T06:55:57Z</time>
      </trkpt>
      <trkpt lat="42.2948630" lon="-8.6090430">
        <ele>21.9</ele>
        <time>2021-05-21T06:55:58Z</time>
      </trkpt>
      <trkpt lat="42.2948670" lon="-8.6090520">
        <ele>21.9</ele>
        <time>2021-05-21T06:55:59Z</time>
      </trkpt>
      <trkpt lat="42.2948730" lon="-8.6090610">
        <ele>22.0</ele>
        <time>2021-05-21T06:56:00Z</time>
      </trkpt>
      <trkpt lat="42.2948880" lon="-8.6090720">
        <ele>22.0</ele>
        <time>2021-05-21T06:56:01Z</time>
      </trkpt>
      <trkpt lat="42.2948890" lon="-8.6090750">
        <ele>22.1</ele>
        <time>2021-05-21T06:56:02Z</time>
      </trkpt>
      <trkpt lat="42.2948950" lon="-8.6090930">
        <ele>22.1</ele>
        <time>2021-05-21T06:56:03Z</time>
      </trkpt>
      <trkpt lat="42.2949010" lon="-8.6091120">
        <ele>22.2</ele>
        <time>2021-05-21T06:56:04Z</time>
      </trkpt>
      <trkpt lat="42.2949090" lon="-8.6091190">
        <ele>22.2</ele>
        <time>2021-05-21T06:56:05Z</time>
      </trkpt>
      <trkpt lat="42.2949260" lon="-8.6091220">
        <ele>22.3</ele>
        <time>2021-05-21T06:56:06Z</time>
      </trkpt>
      <trkpt lat="42.2949350" lon="-8.6091280">
        <ele>22.3</ele>
        <time>2021-05-21T06:56:07Z</time>
      </trkpt>
      <trkpt lat="42.2949410" lon="-8.6091310">
        <ele>22.3</ele>
        <time>2021-05-21T06:56:08Z</time>
      </trkpt>
      <trkpt lat="42.2949410" lon="-8.6091310">
        <ele>22.3</ele>
        <time>2021-05-21T06:56:09Z</time>
      </trkpt>
      <trkpt lat="42.2949480" lon="-8.6091430">
        <ele>22.4</ele>
        <time>2021-05-21T06:56:10Z</time>
      </trkpt>
      <trkpt lat="42.2949420" lon="-8.6091460">
        <ele>22.4</ele>
        <time>2021-05-21T06:56:11Z</time>
      </trkpt>
      <trkpt lat="42.2949400" lon="-8.6091540">
        <ele>22.4</ele>
        <time>2021-05-21T06:56:12Z</time>
      </trkpt>
      <trkpt lat="42.2949520" lon="-8.6091600">
        <ele>22.5</ele>
        <time>2021-05-21T06:56:13Z</time>
      </trkpt>
      <trkpt lat="42.2949460" lon="-8.6091690">
        <ele>22.5</ele>
        <time>2021-05-21T06:56:14Z</time>
      </trkpt>
      <trkpt lat="42.2949630" lon="-8.6091810">
        <ele>22.5</ele>
        <time>2021-05-21T06:56:15Z</time>
      </trkpt>
      <trkpt lat="42.2949680" lon="-8.6091820">
        <ele>22.5</ele>
        <time>2021-05-21T06:56:16Z</time>
      </trkpt>
      <trkpt lat="42.2949750" lon="-8.6091850">
        <ele>22.6</ele>
        <time>2021-05-21T06:56:17Z</time>
      </trkpt>
      <trkpt lat="42.2949900" lon="-8.6091960">
        <ele>22.6</ele>
        <time>2021-05-21T06:56:18Z</time>
      </trkpt>
      <trkpt lat="42.2949970" lon="-8.6092060">
        <ele>22.7</ele>
        <time>2021-05-21T06:56:19Z</time>
      </trkpt>
      <trkpt lat="42.2950050" lon="-8.6092150">
        <ele>22.7</ele>
        <time>2021-05-21T06:56:20Z</time>
      </trkpt>
      <trkpt lat="42.2950160" lon="-8.6092270">
        <ele>22.7</ele>
        <time>2021-05-21T06:56:21Z</time>
      </trkpt>
      <trkpt lat="42.2950260" lon="-8.6092390">
        <ele>22.8</ele>
        <time>2021-05-21T06:56:22Z</time>
      </trkpt>
      <trkpt lat="42.2950310" lon="-8.6092510">
        <ele>22.8</ele>
        <time>2021-05-21T06:56:23Z</time>
      </trkpt>
      <trkpt lat="42.2950370" lon="-8.6092640">
        <ele>22.8</ele>
        <time>2021-05-21T06:56:24Z</time>
      </trkpt>
      <trkpt lat="42.2950450" lon="-8.6092750">
        <ele>22.9</ele>
        <time>2021-05-21T06:56:25Z</time>
      </trkpt>
      <trkpt lat="42.2950570" lon="-8.6092850">
        <ele>22.9</ele>
        <time>2021-05-21T06:56:26Z</time>
      </trkpt>
      <trkpt lat="42.2950620" lon="-8.6093000">
        <ele>22.9</ele>
        <time>2021-05-21T06:56:27Z</time>
      </trkpt>
      <trkpt lat="42.2950670" lon="-8.6093110">
        <ele>22.9</ele>
        <time>2021-05-21T06:56:28Z</time>
      </trkpt>
      <trkpt lat="42.2950800" lon="-8.6093190">
        <ele>23.0</ele>
        <time>2021-05-21T06:56:29Z</time>
      </trkpt>
      <trkpt lat="42.2950820" lon="-8.6093250">
        <ele>23.0</ele>
        <time>2021-05-21T06:56:30Z</time>
      </trkpt>
      <trkpt lat="42.2950900" lon="-8.6093330">
        <ele>23.0</ele>
        <time>2021-05-21T06:56:31Z</time>
      </trkpt>
      <trkpt lat="42.2951180" lon="-8.6093500">
        <ele>23.1</ele>
        <time>2021-05-21T06:56:32Z</time>
      </trkpt>
      <trkpt lat="42.2951340" lon="-8.6093570">
        <ele>23.1</ele>
        <time>2021-05-21T06:56:33Z</time>
      </trkpt>
      <trkpt lat="42.2951510" lon="-8.6093630">
        <ele>23.1</ele>
        <time>2021-05-21T06:56:34Z</time>
      </trkpt>
      <trkpt lat="42.2951890" lon="-8.6093580">
        <ele>23.2</ele>
        <time>2021-05-21T06:56:35Z</time>
      </trkpt>
      <trkpt lat="42.2951990" lon="-8.6093600">
        <ele>23.3</ele>
        <time>2021-05-21T06:56:36Z</time>
      </trkpt>
      <trkpt lat="42.2952030" lon="-8.6093680">
        <ele>23.3</ele>
        <time>2021-05-21T06:56:37Z</time>
      </trkpt>
      <trkpt lat="42.2952140" lon="-8.6093690">
        <ele>23.3</ele>
        <time>2021-05-21T06:56:38Z</time>
      </trkpt>
      <trkpt lat="42.2952220" lon="-8.6093740">
        <ele>23.3</ele>
        <time>2021-05-21T06:56:39Z</time>
      </trkpt>
      <trkpt lat="42.2952270" lon="-8.6093830">
        <ele>23.3</ele>
        <time>2021-05-21T06:56:40Z</time>
      </trkpt>
      <trkpt lat="42.2952350" lon="-8.6093940">
        <ele>23.4</ele>
        <time>2021-05-21T06:56:41Z</time>
      </trkpt>
      <trkpt lat="42.2952450" lon="-8.6094060">
        <ele>23.4</ele>
        <time>2021-05-21T06:56:42Z</time>
      </trkpt>
      <trkpt lat="42.2952560" lon="-8.6094220">
        <ele>23.4</ele>
        <time>2021-05-21T06:56:43Z</time>
      </trkpt>
      <trkpt lat="42.2952720" lon="-8.6094360">
        <ele>23.5</ele>
        <time>2021-05-21T06:56:44Z</time>
      </trkpt>
      <trkpt lat="42.2952910" lon="-8.6094420">
        <ele>23.5</ele>
        <time>2021-05-21T06:56:45Z</time>
      </trkpt>
      <trkpt lat="42.2952990" lon="-8.6094460">
        <ele>23.5</ele>
        <time>2021-05-21T06:56:46Z</time>
      </trkpt>
      <trkpt lat="42.2953080" lon="-8.6094500">
        <ele>23.6</ele>
        <time>2021-05-21T06:56:47Z</time>
      </trkpt>
      <trkpt lat="42.2953220" lon="-8.6094660">
        <ele>23.6</ele>
        <time>2021-05-21T06:56:48Z</time>
      </trkpt>
      <trkpt lat="42.2953230" lon="-8.6094740">
        <ele>23.6</ele>
        <time>2021-05-21T06:56:49Z</time>
      </trkpt>
      <trkpt lat="42.2953260" lon="-8.6094830">
        <ele>23.7</ele>
        <time>2021-05-21T06:56:50Z</time>
      </trkpt>
      <trkpt lat="42.2953410" lon="-8.6094850">
        <ele>23.7</ele>
        <time>2021-05-21T06:56:51Z</time>
      </trkpt>
      <trkpt lat="42.2953560" lon="-8.6095040">
        <ele>23.8</ele>
        <time>2021-05-21T06:56:52Z</time>
      </trkpt>
      <trkpt lat="42.2953620" lon="-8.6095110">
        <ele>23.8</ele>
        <time>2021-05-21T06:56:53Z</time>
      </trkpt>
      <trkpt lat="42.2953660" lon="-8.6095200">
        <ele>23.8</ele>
        <time>2021-05-21T06:56:54Z</time>
      </trkpt>
      <trkpt lat="42.2953810" lon="-8.6095240">
        <ele>23.8</ele>
        <time>2021-05-21T06:56:55Z</time>
      </trkpt>
      <trkpt lat="42.2953870" lon="-8.6095340">
        <ele>23.9</ele>
        <time>2021-05-21T06:56:56Z</time>
      </trkpt>
      <trkpt lat="42.2953940" lon="-8.6095420">
        <ele>23.9</ele>
        <time>2021-05-21T06:56:57Z</time>
      </trkpt>
      <trkpt lat="42.2954060" lon="-8.6095420">
        <ele>23.9</ele>
        <time>2021-05-21T06:56:58Z</time>
      </trkpt>
      <trkpt lat="42.2954370" lon="-8.6095610">
        <ele>24.1</ele>
        <time>2021-05-21T06:56:59Z</time>
      </trkpt>
      <trkpt lat="42.2954470" lon="-8.6095670">
        <ele>24.1</ele>
        <time>2021-05-21T06:57:00Z</time>
      </trkpt>
      <trkpt lat="42.2954590" lon="-8.6095770">
        <ele>24.1</ele>
        <time>2021-05-21T06:57:01Z</time>
      </trkpt>
      <trkpt lat="42.2954650" lon="-8.6095800">
        <ele>24.2</ele>
        <time>2021-05-21T06:57:02Z</time>
      </trkpt>
      <trkpt lat="42.2954710" lon="-8.6095900">
        <ele>24.2</ele>
        <time>2021-05-21T06:57:03Z</time>
      </trkpt>
      <trkpt lat="42.2955050" lon="-8.6096020">
        <ele>24.3</ele>
        <time>2021-05-21T06:57:04Z</time>
      </trkpt>
      <trkpt lat="42.2955190" lon="-8.6096180">
        <ele>24.4</ele>
        <time>2021-05-21T06:57:05Z</time>
      </trkpt>
      <trkpt lat="42.2955320" lon="-8.6096220">
        <ele>24.5</ele>
        <time>2021-05-21T06:57:06Z</time>
      </trkpt>
      <trkpt lat="42.2955440" lon="-8.6096270">
        <ele>24.5</ele>
        <time>2021-05-21T06:57:07Z</time>
      </trkpt>
      <trkpt lat="42.2955720" lon="-8.6096320">
        <ele>24.6</ele>
        <time>2021-05-21T06:57:08Z</time>
      </trkpt>
      <trkpt lat="42.2955810" lon="-8.6096340">
        <ele>24.7</ele>
        <time>2021-05-21T06:57:09Z</time>
      </trkpt>
      <trkpt lat="42.2955930" lon="-8.6096440">
        <ele>24.7</ele>
        <time>2021-05-21T06:57:10Z</time>
      </trkpt>
      <trkpt lat="42.2956090" lon="-8.6096490">
        <ele>24.8</ele>
        <time>2021-05-21T06:57:11Z</time>
      </trkpt>
      <trkpt lat="42.2956100" lon="-8.6096630">
        <ele>24.9</ele>
        <time>2021-05-21T06:57:12Z</time>
      </trkpt>
      <trkpt lat="42.2956220" lon="-8.6096850">
        <ele>25.0</ele>
        <time>2021-05-21T06:57:13Z</time>
      </trkpt>
      <trkpt lat="42.2956260" lon="-8.6097020">
        <ele>25.0</ele>
        <time>2021-05-21T06:57:14Z</time>
      </trkpt>
      <trkpt lat="42.2956290" lon="-8.6097200">
        <ele>25.1</ele>
        <time>2021-05-21T06:57:15Z</time>
      </trkpt>
      <trkpt lat="42.2956300" lon="-8.6097310">
        <ele>25.1</ele>
        <time>2021-05-21T06:57:16Z</time>
      </trkpt>
      <trkpt lat="42.2956270" lon="-8.6097550">
        <ele>25.2</ele>
        <time>2021-05-21T06:57:17Z</time>
      </trkpt>
      <trkpt lat="42.2956330" lon="-8.6097630">
        <ele>25.3</ele>
        <time>2021-05-21T06:57:18Z</time>
      </trkpt>
      <trkpt lat="42.2956350" lon="-8.6097730">
        <ele>25.3</ele>
        <time>2021-05-21T06:57:19Z</time>
      </trkpt>
      <trkpt lat="42.2956410" lon="-8.6097780">
        <ele>25.3</ele>
        <time>2021-05-21T06:57:20Z</time>
      </trkpt>
      <trkpt lat="42.2956480" lon="-8.6097810">
        <ele>25.4</ele>
        <time>2021-05-21T06:57:21Z</time>
      </trkpt>
      <trkpt lat="42.2956590" lon="-8.6097950">
        <ele>25.4</ele>
        <time>2021-05-21T06:57:22Z</time>
      </trkpt>
      <trkpt lat="42.2956720" lon="-8.6098000">
        <ele>25.5</ele>
        <time>2021-05-21T06:57:23Z</time>
      </trkpt>
      <trkpt lat="42.2956820" lon="-8.6098100">
        <ele>25.6</ele>
        <time>2021-05-21T06:57:24Z</time>
      </trkpt>
      <trkpt lat="42.2956910" lon="-8.6098160">
        <ele>25.6</ele>
        <time>2021-05-21T06:57:25Z</time>
      </trkpt>
      <trkpt lat="42.2957100" lon="-8.6098230">
        <ele>25.7</ele>
        <time>2021-05-21T06:57:26Z</time>
      </trkpt>
      <trkpt lat="42.2957190" lon="-8.6098280">
        <ele>25.7</ele>
        <time>2021-05-21T06:57:27Z</time>
      </trkpt>
      <trkpt lat="42.2957270" lon="-8.6098330">
        <ele>25.8</ele>
        <time>2021-05-21T06:57:28Z</time>
      </trkpt>
      <trkpt lat="42.2957350" lon="-8.6098380">
        <ele>25.8</ele>
        <time>2021-05-21T06:57:29Z</time>
      </trkpt>
      <trkpt lat="42.2957410" lon="-8.6098450">
        <ele>25.9</ele>
        <time>2021-05-21T06:57:30Z</time>
      </trkpt>
      <trkpt lat="42.2957480" lon="-8.6098590">
        <ele>25.9</ele>
        <time>2021-05-21T06:57:31Z</time>
      </trkpt>
      <trkpt lat="42.2957670" lon="-8.6098730">
        <ele>26.0</ele>
        <time>2021-05-21T06:57:32Z</time>
      </trkpt>
      <trkpt lat="42.2957740" lon="-8.6098790">
        <ele>26.1</ele>
        <time>2021-05-21T06:57:33Z</time>
      </trkpt>
      <trkpt lat="42.2957810" lon="-8.6098860">
        <ele>26.1</ele>
        <time>2021-05-21T06:57:34Z</time>
      </trkpt>
      <trkpt lat="42.2957850" lon="-8.6098900">
        <ele>26.1</ele>
        <time>2021-05-21T06:57:35Z</time>
      </trkpt>
      <trkpt lat="42.2957890" lon="-8.6099060">
        <ele>26.2</ele>
        <time>2021-05-21T06:57:36Z</time>
      </trkpt>
      <trkpt lat="42.2957910" lon="-8.6099100">
        <ele>26.2</ele>
        <time>2021-05-21T06:57:37Z</time>
      </trkpt>
      <trkpt lat="42.2957970" lon="-8.6099230">
        <ele>26.2</ele>
        <time>2021-05-21T06:57:38Z</time>
      </trkpt>
      <trkpt lat="42.2958070" lon="-8.6099600">
        <ele>26.3</ele>
        <time>2021-05-21T06:57:39Z</time>
      </trkpt>
      <trkpt lat="42.2958100" lon="-8.6099720">
        <ele>26.4</ele>
        <time>2021-05-21T06:57:40Z</time>
      </trkpt>
      <trkpt lat="42.2958300" lon="-8.6099850">
        <ele>26.4</ele>
        <time>2021-05-21T06:57:41Z</time>
      </trkpt>
      <trkpt lat="42.2958380" lon="-8.6099880">
        <ele>26.5</ele>
        <time>2021-05-21T06:57:42Z</time>
      </trkpt>
      <trkpt lat="42.2958460" lon="-8.6099910">
        <ele>26.5</ele>
        <time>2021-05-21T06:57:43Z</time>
      </trkpt>
      <trkpt lat="42.2958520" lon="-8.6100040">
        <ele>26.5</ele>
        <time>2021-05-21T06:57:44Z</time>
      </trkpt>
      <trkpt lat="42.2958650" lon="-8.6100190">
        <ele>26.6</ele>
        <time>2021-05-21T06:57:45Z</time>
      </trkpt>
      <trkpt lat="42.2958650" lon="-8.6100120">
        <ele>26.6</ele>
        <time>2021-05-21T06:57:46Z</time>
      </trkpt>
      <trkpt lat="42.2958720" lon="-8.6100310">
        <ele>26.6</ele>
        <time>2021-05-21T06:57:47Z</time>
      </trkpt>
      <trkpt lat="42.2958830" lon="-8.6100490">
        <ele>26.7</ele>
        <time>2021-05-21T06:57:48Z</time>
      </trkpt>
      <trkpt lat="42.2958900" lon="-8.6100680">
        <ele>26.7</ele>
        <time>2021-05-21T06:57:49Z</time>
      </trkpt>
      <trkpt lat="42.2959000" lon="-8.6100810">
        <ele>26.7</ele>
        <time>2021-05-21T06:57:50Z</time>
      </trkpt>
      <trkpt lat="42.2959130" lon="-8.6100850">
        <ele>26.7</ele>
        <time>2021-05-21T06:57:51Z</time>
      </trkpt>
      <trkpt lat="42.2959270" lon="-8.6101030">
        <ele>26.8</ele>
        <time>2021-05-21T06:57:52Z</time>
      </trkpt>
      <trkpt lat="42.2959340" lon="-8.6101100">
        <ele>26.8</ele>
        <time>2021-05-21T06:57:53Z</time>
      </trkpt>
      <trkpt lat="42.2959470" lon="-8.6101210">
        <ele>26.8</ele>
        <time>2021-05-21T06:57:54Z</time>
      </trkpt>
      <trkpt lat="42.2959540" lon="-8.6101330">
        <ele>26.8</ele>
        <time>2021-05-21T06:57:55Z</time>
      </trkpt>
      <trkpt lat="42.2959590" lon="-8.6101510">
        <ele>26.9</ele>
        <time>2021-05-21T06:57:56Z</time>
      </trkpt>
      <trkpt lat="42.2959630" lon="-8.6101460">
        <ele>26.9</ele>
        <time>2021-05-21T06:57:57Z</time>
      </trkpt>
      <trkpt lat="42.2959790" lon="-8.6101470">
        <ele>26.9</ele>
        <time>2021-05-21T06:57:58Z</time>
      </trkpt>
      <trkpt lat="42.2959950" lon="-8.6101680">
        <ele>26.9</ele>
        <time>2021-05-21T06:57:59Z</time>
      </trkpt>
      <trkpt lat="42.2960020" lon="-8.6101810">
        <ele>26.9</ele>
        <time>2021-05-21T06:58:00Z</time>
      </trkpt>
      <trkpt lat="42.2960090" lon="-8.6101940">
        <ele>26.9</ele>
        <time>2021-05-21T06:58:01Z</time>
      </trkpt>
      <trkpt lat="42.2960190" lon="-8.6102180">
        <ele>26.9</ele>
        <time>2021-05-21T06:58:02Z</time>
      </trkpt>
      <trkpt lat="42.2960240" lon="-8.6102310">
        <ele>26.9</ele>
        <time>2021-05-21T06:58:03Z</time>
      </trkpt>
      <trkpt lat="42.2960390" lon="-8.6102490">
        <ele>26.9</ele>
        <time>2021-05-21T06:58:04Z</time>
      </trkpt>
      <trkpt lat="42.2960460" lon="-8.6102570">
        <ele>26.9</ele>
        <time>2021-05-21T06:58:05Z</time>
      </trkpt>
      <trkpt lat="42.2960520" lon="-8.6102640">
        <ele>26.9</ele>
        <time>2021-05-21T06:58:06Z</time>
      </trkpt>
      <trkpt lat="42.2960570" lon="-8.6102720">
        <ele>26.9</ele>
        <time>2021-05-21T06:58:07Z</time>
      </trkpt>
      <trkpt lat="42.2960720" lon="-8.6102820">
        <ele>26.9</ele>
        <time>2021-05-21T06:58:08Z</time>
      </trkpt>
      <trkpt lat="42.2960740" lon="-8.6102890">
        <ele>26.9</ele>
        <time>2021-05-21T06:58:09Z</time>
      </trkpt>
      <trkpt lat="42.2960810" lon="-8.6102950">
        <ele>26.9</ele>
        <time>2021-05-21T06:58:10Z</time>
      </trkpt>
      <trkpt lat="42.2960870" lon="-8.6103030">
        <ele>26.9</ele>
        <time>2021-05-21T06:58:11Z</time>
      </trkpt>
      <trkpt lat="42.2961030" lon="-8.6103080">
        <ele>26.9</ele>
        <time>2021-05-21T06:58:12Z</time>
      </trkpt>
      <trkpt lat="42.2961090" lon="-8.6103160">
        <ele>26.9</ele>
        <time>2021-05-21T06:58:13Z</time>
      </trkpt>
      <trkpt lat="42.2961160" lon="-8.6103170">
        <ele>26.9</ele>
        <time>2021-05-21T06:58:14Z</time>
      </trkpt>
      <trkpt lat="42.2961350" lon="-8.6103270">
        <ele>26.9</ele>
        <time>2021-05-21T06:58:15Z</time>
      </trkpt>
      <trkpt lat="42.2961420" lon="-8.6103320">
        <ele>26.9</ele>
        <time>2021-05-21T06:58:16Z</time>
      </trkpt>
      <trkpt lat="42.2961500" lon="-8.6103400">
        <ele>26.9</ele>
        <time>2021-05-21T06:58:17Z</time>
      </trkpt>
      <trkpt lat="42.2961680" lon="-8.6103440">
        <ele>26.9</ele>
        <time>2021-05-21T06:58:18Z</time>
      </trkpt>
      <trkpt lat="42.2961630" lon="-8.6103350">
        <ele>26.9</ele>
        <time>2021-05-21T06:58:19Z</time>
      </trkpt>
      <trkpt lat="42.2961940" lon="-8.6103440">
        <ele>26.9</ele>
        <time>2021-05-21T06:58:20Z</time>
      </trkpt>
      <trkpt lat="42.2962040" lon="-8.6103400">
        <ele>26.9</ele>
        <time>2021-05-21T06:58:21Z</time>
      </trkpt>
      <trkpt lat="42.2962250" lon="-8.6103490">
        <ele>26.9</ele>
        <time>2021-05-21T06:58:22Z</time>
      </trkpt>
      <trkpt lat="42.2962390" lon="-8.6103500">
        <ele>26.8</ele>
        <time>2021-05-21T06:58:23Z</time>
      </trkpt>
      <trkpt lat="42.2962520" lon="-8.6103400">
        <ele>26.8</ele>
        <time>2021-05-21T06:58:24Z</time>
      </trkpt>
      <trkpt lat="42.2962630" lon="-8.6103370">
        <ele>26.8</ele>
        <time>2021-05-21T06:58:25Z</time>
      </trkpt>
      <trkpt lat="42.2962750" lon="-8.6103340">
        <ele>26.8</ele>
        <time>2021-05-21T06:58:26Z</time>
      </trkpt>
      <trkpt lat="42.2962940" lon="-8.6103280">
        <ele>26.8</ele>
        <time>2021-05-21T06:58:27Z</time>
      </trkpt>
      <trkpt lat="42.2963060" lon="-8.6103280">
        <ele>26.8</ele>
        <time>2021-05-21T06:58:28Z</time>
      </trkpt>
      <trkpt lat="42.2963170" lon="-8.6103270">
        <ele>26.8</ele>
        <time>2021-05-21T06:58:29Z</time>
      </trkpt>
      <trkpt lat="42.2963380" lon="-8.6103200">
        <ele>26.8</ele>
        <time>2021-05-21T06:58:30Z</time>
      </trkpt>
      <trkpt lat="42.2963430" lon="-8.6103240">
        <ele>26.8</ele>
        <time>2021-05-21T06:58:31Z</time>
      </trkpt>
      <trkpt lat="42.2963520" lon="-8.6103200">
        <ele>26.8</ele>
        <time>2021-05-21T06:58:32Z</time>
      </trkpt>
      <trkpt lat="42.2963630" lon="-8.6103210">
        <ele>26.7</ele>
        <time>2021-05-21T06:58:33Z</time>
      </trkpt>
      <trkpt lat="42.2963820" lon="-8.6103180">
        <ele>26.7</ele>
        <time>2021-05-21T06:58:34Z</time>
      </trkpt>
      <trkpt lat="42.2963910" lon="-8.6103170">
        <ele>26.7</ele>
        <time>2021-05-21T06:58:35Z</time>
      </trkpt>
      <trkpt lat="42.2964040" lon="-8.6103080">
        <ele>26.7</ele>
        <time>2021-05-21T06:58:36Z</time>
      </trkpt>
      <trkpt lat="42.2964120" lon="-8.6103020">
        <ele>26.7</ele>
        <time>2021-05-21T06:58:37Z</time>
      </trkpt>
      <trkpt lat="42.2964170" lon="-8.6103060">
        <ele>26.7</ele>
        <time>2021-05-21T06:58:38Z</time>
      </trkpt>
      <trkpt lat="42.2964280" lon="-8.6103030">
        <ele>26.7</ele>
        <time>2021-05-21T06:58:39Z</time>
      </trkpt>
      <trkpt lat="42.2964390" lon="-8.6102960">
        <ele>26.7</ele>
        <time>2021-05-21T06:58:40Z</time>
      </trkpt>
      <trkpt lat="42.2964490" lon="-8.6102860">
        <ele>26.7</ele>
        <time>2021-05-21T06:58:41Z</time>
      </trkpt>
      <trkpt lat="42.2964520" lon="-8.6102750">
        <ele>26.7</ele>
        <time>2021-05-21T06:58:42Z</time>
      </trkpt>
      <trkpt lat="42.2964660" lon="-8.6102750">
        <ele>26.6</ele>
        <time>2021-05-21T06:58:43Z</time>
      </trkpt>
      <trkpt lat="42.2964870" lon="-8.6102740">
        <ele>26.6</ele>
        <time>2021-05-21T06:58:44Z</time>
      </trkpt>
      <trkpt lat="42.2964940" lon="-8.6102710">
        <ele>26.6</ele>
        <time>2021-05-21T06:58:45Z</time>
      </trkpt>
      <trkpt lat="42.2965020" lon="-8.6102680">
        <ele>26.6</ele>
        <time>2021-05-21T06:58:46Z</time>
      </trkpt>
      <trkpt lat="42.2965270" lon="-8.6102660">
        <ele>26.6</ele>
        <time>2021-05-21T06:58:47Z</time>
      </trkpt>
      <trkpt lat="42.2965380" lon="-8.6102630">
        <ele>26.6</ele>
        <time>2021-05-21T06:58:48Z</time>
      </trkpt>
      <trkpt lat="42.2965490" lon="-8.6102590">
        <ele>26.6</ele>
        <time>2021-05-21T06:58:49Z</time>
      </trkpt>
      <trkpt lat="42.2965620" lon="-8.6102580">
        <ele>26.6</ele>
        <time>2021-05-21T06:58:50Z</time>
      </trkpt>
      <trkpt lat="42.2965760" lon="-8.6102540">
        <ele>26.6</ele>
        <time>2021-05-21T06:58:51Z</time>
      </trkpt>
      <trkpt lat="42.2965980" lon="-8.6102550">
        <ele>26.6</ele>
        <time>2021-05-21T06:58:52Z</time>
      </trkpt>
      <trkpt lat="42.2966130" lon="-8.6102560">
        <ele>26.6</ele>
        <time>2021-05-21T06:58:53Z</time>
      </trkpt>
      <trkpt lat="42.2966360" lon="-8.6102510">
        <ele>26.7</ele>
        <time>2021-05-21T06:58:54Z</time>
      </trkpt>
      <trkpt lat="42.2966480" lon="-8.6102500">
        <ele>26.7</ele>
        <time>2021-05-21T06:58:55Z</time>
      </trkpt>
      <trkpt lat="42.2966590" lon="-8.6102500">
        <ele>26.7</ele>
        <time>2021-05-21T06:58:56Z</time>
      </trkpt>
      <trkpt lat="42.2966930" lon="-8.6102410">
        <ele>26.7</ele>
        <time>2021-05-21T06:58:57Z</time>
      </trkpt>
      <trkpt lat="42.2967010" lon="-8.6102380">
        <ele>26.7</ele>
        <time>2021-05-21T06:58:58Z</time>
      </trkpt>
      <trkpt lat="42.2967190" lon="-8.6102450">
        <ele>26.7</ele>
        <time>2021-05-21T06:58:59Z</time>
      </trkpt>
      <trkpt lat="42.2967280" lon="-8.6102490">
        <ele>26.7</ele>
        <time>2021-05-21T06:59:00Z</time>
      </trkpt>
      <trkpt lat="42.2967360" lon="-8.6102520">
        <ele>26.7</ele>
        <time>2021-05-21T06:59:01Z</time>
      </trkpt>
      <trkpt lat="42.2967560" lon="-8.6102530">
        <ele>26.7</ele>
        <time>2021-05-21T06:59:02Z</time>
      </trkpt>
      <trkpt lat="42.2967660" lon="-8.6102550">
        <ele>26.8</ele>
        <time>2021-05-21T06:59:03Z</time>
      </trkpt>
      <trkpt lat="42.2967760" lon="-8.6102570">
        <ele>26.8</ele>
        <time>2021-05-21T06:59:04Z</time>
      </trkpt>
      <trkpt lat="42.2967860" lon="-8.6102540">
        <ele>26.8</ele>
        <time>2021-05-21T06:59:05Z</time>
      </trkpt>
      <trkpt lat="42.2967950" lon="-8.6102510">
        <ele>26.8</ele>
        <time>2021-05-21T06:59:06Z</time>
      </trkpt>
      <trkpt lat="42.2968000" lon="-8.6102470">
        <ele>26.8</ele>
        <time>2021-05-21T06:59:07Z</time>
      </trkpt>
      <trkpt lat="42.2968070" lon="-8.6102480">
        <ele>26.8</ele>
        <time>2021-05-21T06:59:08Z</time>
      </trkpt>
      <trkpt lat="42.2968170" lon="-8.6102400">
        <ele>26.8</ele>
        <time>2021-05-21T06:59:09Z</time>
      </trkpt>
      <trkpt lat="42.2968240" lon="-8.6102310">
        <ele>26.8</ele>
        <time>2021-05-21T06:59:10Z</time>
      </trkpt>
      <trkpt lat="42.2968350" lon="-8.6102290">
        <ele>26.8</ele>
        <time>2021-05-21T06:59:11Z</time>
      </trkpt>
      <trkpt lat="42.2968430" lon="-8.6102270">
        <ele>26.8</ele>
        <time>2021-05-21T06:59:12Z</time>
      </trkpt>
      <trkpt lat="42.2968500" lon="-8.6102270">
        <ele>26.8</ele>
        <time>2021-05-21T06:59:13Z</time>
      </trkpt>
      <trkpt lat="42.2968540" lon="-8.6102230">
        <ele>26.8</ele>
        <time>2021-05-21T06:59:14Z</time>
      </trkpt>
      <trkpt lat="42.2968620" lon="-8.6102210">
        <ele>26.8</ele>
        <time>2021-05-21T06:59:15Z</time>
      </trkpt>
      <trkpt lat="42.2968870" lon="-8.6102310">
        <ele>26.9</ele>
        <time>2021-05-21T06:59:16Z</time>
      </trkpt>
      <trkpt lat="42.2968930" lon="-8.6102320">
        <ele>26.9</ele>
        <time>2021-05-21T06:59:17Z</time>
      </trkpt>
      <trkpt lat="42.2968990" lon="-8.6102330">
        <ele>26.9</ele>
        <time>2021-05-21T06:59:18Z</time>
      </trkpt>
      <trkpt lat="42.2969210" lon="-8.6102190">
        <ele>26.9</ele>
        <time>2021-05-21T06:59:19Z</time>
      </trkpt>
      <trkpt lat="42.2969290" lon="-8.6102160">
        <ele>26.9</ele>
        <time>2021-05-21T06:59:20Z</time>
      </trkpt>
      <trkpt lat="42.2969370" lon="-8.6102120">
        <ele>26.9</ele>
        <time>2021-05-21T06:59:21Z</time>
      </trkpt>
      <trkpt lat="42.2969450" lon="-8.6102140">
        <ele>26.9</ele>
        <time>2021-05-21T06:59:22Z</time>
      </trkpt>
      <trkpt lat="42.2969670" lon="-8.6102200">
        <ele>26.9</ele>
        <time>2021-05-21T06:59:23Z</time>
      </trkpt>
      <trkpt lat="42.2969760" lon="-8.6102180">
        <ele>26.9</ele>
        <time>2021-05-21T06:59:24Z</time>
      </trkpt>
      <trkpt lat="42.2969950" lon="-8.6102200">
        <ele>26.9</ele>
        <time>2021-05-21T06:59:25Z</time>
      </trkpt>
      <trkpt lat="42.2970180" lon="-8.6102210">
        <ele>26.8</ele>
        <time>2021-05-21T06:59:26Z</time>
      </trkpt>
      <trkpt lat="42.2970260" lon="-8.6102170">
        <ele>26.8</ele>
        <time>2021-05-21T06:59:27Z</time>
      </trkpt>
      <trkpt lat="42.2970330" lon="-8.6102130">
        <ele>26.8</ele>
        <time>2021-05-21T06:59:28Z</time>
      </trkpt>
      <trkpt lat="42.2970470" lon="-8.6102160">
        <ele>26.8</ele>
        <time>2021-05-21T06:59:29Z</time>
      </trkpt>
      <trkpt lat="42.2970620" lon="-8.6102130">
        <ele>26.8</ele>
        <time>2021-05-21T06:59:30Z</time>
      </trkpt>
      <trkpt lat="42.2970700" lon="-8.6102140">
        <ele>26.8</ele>
        <time>2021-05-21T06:59:31Z</time>
      </trkpt>
      <trkpt lat="42.2970830" lon="-8.6102150">
        <ele>26.8</ele>
        <time>2021-05-21T06:59:32Z</time>
      </trkpt>
      <trkpt lat="42.2970940" lon="-8.6102060">
        <ele>26.7</ele>
        <time>2021-05-21T06:59:33Z</time>
      </trkpt>
      <trkpt lat="42.2971020" lon="-8.6101990">
        <ele>26.7</ele>
        <time>2021-05-21T06:59:34Z</time>
      </trkpt>
      <trkpt lat="42.2971160" lon="-8.6101920">
        <ele>26.7</ele>
        <time>2021-05-21T06:59:35Z</time>
      </trkpt>
      <trkpt lat="42.2971240" lon="-8.6101910">
        <ele>26.7</ele>
        <time>2021-05-21T06:59:36Z</time>
      </trkpt>
      <trkpt lat="42.2971340" lon="-8.6101850">
        <ele>26.7</ele>
        <time>2021-05-21T06:59:37Z</time>
      </trkpt>
      <trkpt lat="42.2971510" lon="-8.6101820">
        <ele>26.6</ele>
        <time>2021-05-21T06:59:38Z</time>
      </trkpt>
      <trkpt lat="42.2971590" lon="-8.6101770">
        <ele>26.6</ele>
        <time>2021-05-21T06:59:39Z</time>
      </trkpt>
      <trkpt lat="42.2971760" lon="-8.6101670">
        <ele>26.6</ele>
        <time>2021-05-21T06:59:40Z</time>
      </trkpt>
      <trkpt lat="42.2971880" lon="-8.6101670">
        <ele>26.5</ele>
        <time>2021-05-21T06:59:41Z</time>
      </trkpt>
      <trkpt lat="42.2972040" lon="-8.6101660">
        <ele>26.5</ele>
        <time>2021-05-21T06:59:42Z</time>
      </trkpt>
      <trkpt lat="42.2972230" lon="-8.6101590">
        <ele>26.5</ele>
        <time>2021-05-21T06:59:43Z</time>
      </trkpt>
      <trkpt lat="42.2972370" lon="-8.6101540">
        <ele>26.4</ele>
        <time>2021-05-21T06:59:44Z</time>
      </trkpt>
      <trkpt lat="42.2972510" lon="-8.6101490">
        <ele>26.4</ele>
        <time>2021-05-21T06:59:45Z</time>
      </trkpt>
      <trkpt lat="42.2972690" lon="-8.6101440">
        <ele>26.4</ele>
        <time>2021-05-21T06:59:46Z</time>
      </trkpt>
      <trkpt lat="42.2972760" lon="-8.6101420">
        <ele>26.3</ele>
        <time>2021-05-21T06:59:47Z</time>
      </trkpt>
      <trkpt lat="42.2972840" lon="-8.6101390">
        <ele>26.3</ele>
        <time>2021-05-21T06:59:48Z</time>
      </trkpt>
      <trkpt lat="42.2972910" lon="-8.6101370">
        <ele>26.3</ele>
        <time>2021-05-21T06:59:49Z</time>
      </trkpt>
      <trkpt lat="42.2973030" lon="-8.6101420">
        <ele>26.3</ele>
        <time>2021-05-21T06:59:50Z</time>
      </trkpt>
      <trkpt lat="42.2973250" lon="-8.6101370">
        <ele>26.2</ele>
        <time>2021-05-21T06:59:51Z</time>
      </trkpt>
      <trkpt lat="42.2973400" lon="-8.6101370">
        <ele>26.2</ele>
        <time>2021-05-21T06:59:52Z</time>
      </trkpt>
      <trkpt lat="42.2973470" lon="-8.6101360">
        <ele>26.2</ele>
        <time>2021-05-21T06:59:53Z</time>
      </trkpt>
      <trkpt lat="42.2973560" lon="-8.6101310">
        <ele>26.1</ele>
        <time>2021-05-21T06:59:54Z</time>
      </trkpt>
      <trkpt lat="42.2973750" lon="-8.6101310">
        <ele>26.1</ele>
        <time>2021-05-21T06:59:55Z</time>
      </trkpt>
      <trkpt lat="42.2973840" lon="-8.6101310">
        <ele>26.1</ele>
        <time>2021-05-21T06:59:56Z</time>
      </trkpt>
      <trkpt lat="42.2973880" lon="-8.6101260">
        <ele>26.1</ele>
        <time>2021-05-21T06:59:57Z</time>
      </trkpt>
      <trkpt lat="42.2974020" lon="-8.6101210">
        <ele>26.0</ele>
        <time>2021-05-21T06:59:58Z</time>
      </trkpt>
      <trkpt lat="42.2974090" lon="-8.6101170">
        <ele>26.0</ele>
        <time>2021-05-21T06:59:59Z</time>
      </trkpt>
      <trkpt lat="42.2974120" lon="-8.6101110">
        <ele>26.0</ele>
        <time>2021-05-21T07:00:00Z</time>
      </trkpt>
      <trkpt lat="42.2974180" lon="-8.6101060">
        <ele>26.0</ele>
        <time>2021-05-21T07:00:01Z</time>
      </trkpt>
      <trkpt lat="42.2974290" lon="-8.6100960">
        <ele>26.0</ele>
        <time>2021-05-21T07:00:02Z</time>
      </trkpt>
      <trkpt lat="42.2974350" lon="-8.6100890">
        <ele>25.9</ele>
        <time>2021-05-21T07:00:03Z</time>
      </trkpt>
      <trkpt lat="42.2974570" lon="-8.6100720">
        <ele>25.9</ele>
        <time>2021-05-21T07:00:04Z</time>
      </trkpt>
      <trkpt lat="42.2974680" lon="-8.6100660">
        <ele>25.8</ele>
        <time>2021-05-21T07:00:05Z</time>
      </trkpt>
      <trkpt lat="42.2974800" lon="-8.6100540">
        <ele>25.8</ele>
        <time>2021-05-21T07:00:06Z</time>
      </trkpt>
      <trkpt lat="42.2974890" lon="-8.6100500">
        <ele>25.8</ele>
        <time>2021-05-21T07:00:07Z</time>
      </trkpt>
      <trkpt lat="42.2974970" lon="-8.6100450">
        <ele>25.8</ele>
        <time>2021-05-21T07:00:08Z</time>
      </trkpt>
      <trkpt lat="42.2975050" lon="-8.6100400">
        <ele>25.7</ele>
        <time>2021-05-21T07:00:09Z</time>
      </trkpt>
      <trkpt lat="42.2975120" lon="-8.6100400">
        <ele>25.7</ele>
        <time>2021-05-21T07:00:10Z</time>
      </trkpt>
      <trkpt lat="42.2975250" lon="-8.6100390">
        <ele>25.7</ele>
        <time>2021-05-21T07:00:11Z</time>
      </trkpt>
      <trkpt lat="42.2975410" lon="-8.6100380">
        <ele>25.6</ele>
        <time>2021-05-21T07:00:12Z</time>
      </trkpt>
      <trkpt lat="42.2975570" lon="-8.6100360">
        <ele>25.6</ele>
        <time>2021-05-21T07:00:13Z</time>
      </trkpt>
      <trkpt lat="42.2975680" lon="-8.6100270">
        <ele>25.6</ele>
        <time>2021-05-21T07:00:14Z</time>
      </trkpt>
      <trkpt lat="42.2975830" lon="-8.6100220">
        <ele>25.5</ele>
        <time>2021-05-21T07:00:15Z</time>
      </trkpt>
      <trkpt lat="42.2975970" lon="-8.6100180">
        <ele>25.5</ele>
        <time>2021-05-21T07:00:16Z</time>
      </trkpt>
      <trkpt lat="42.2976050" lon="-8.6100160">
        <ele>25.5</ele>
        <time>2021-05-21T07:00:17Z</time>
      </trkpt>
      <trkpt lat="42.2976140" lon="-8.6100150">
        <ele>25.4</ele>
        <time>2021-05-21T07:00:18Z</time>
      </trkpt>
      <trkpt lat="42.2976320" lon="-8.6100110">
        <ele>25.4</ele>
        <time>2021-05-21T07:00:19Z</time>
      </trkpt>
      <trkpt lat="42.2976530" lon="-8.6100080">
        <ele>25.3</ele>
        <time>2021-05-21T07:00:20Z</time>
      </trkpt>
      <trkpt lat="42.2976610" lon="-8.6100050">
        <ele>25.3</ele>
        <time>2021-05-21T07:00:21Z</time>
      </trkpt>
      <trkpt lat="42.2976700" lon="-8.6100020">
        <ele>25.3</ele>
        <time>2021-05-21T07:00:22Z</time>
      </trkpt>
      <trkpt lat="42.2976840" lon="-8.6100070">
        <ele>25.3</ele>
        <time>2021-05-21T07:00:23Z</time>
      </trkpt>
      <trkpt lat="42.2976950" lon="-8.6100000">
        <ele>25.2</ele>
        <time>2021-05-21T07:00:24Z</time>
      </trkpt>
      <trkpt lat="42.2977040" lon="-8.6099910">
        <ele>25.2</ele>
        <time>2021-05-21T07:00:25Z</time>
      </trkpt>
      <trkpt lat="42.2977330" lon="-8.6099850">
        <ele>25.1</ele>
        <time>2021-05-21T07:00:26Z</time>
      </trkpt>
      <trkpt lat="42.2977410" lon="-8.6099810">
        <ele>25.1</ele>
        <time>2021-05-21T07:00:27Z</time>
      </trkpt>
      <trkpt lat="42.2977510" lon="-8.6099710">
        <ele>25.1</ele>
        <time>2021-05-21T07:00:28Z</time>
      </trkpt>
      <trkpt lat="42.2977620" lon="-8.6099670">
        <ele>25.0</ele>
        <time>2021-05-21T07:00:29Z</time>
      </trkpt>
      <trkpt lat="42.2977710" lon="-8.6099600">
        <ele>25.0</ele>
        <time>2021-05-21T07:00:30Z</time>
      </trkpt>
      <trkpt lat="42.2977860" lon="-8.6099560">
        <ele>25.0</ele>
        <time>2021-05-21T07:00:31Z</time>
      </trkpt>
      <trkpt lat="42.2978010" lon="-8.6099570">
        <ele>24.9</ele>
        <time>2021-05-21T07:00:32Z</time>
      </trkpt>
      <trkpt lat="42.2978110" lon="-8.6099550">
        <ele>24.9</ele>
        <time>2021-05-21T07:00:33Z</time>
      </trkpt>
      <trkpt lat="42.2978170" lon="-8.6099480">
        <ele>24.9</ele>
        <time>2021-05-21T07:00:34Z</time>
      </trkpt>
      <trkpt lat="42.2978290" lon="-8.6099370">
        <ele>24.8</ele>
        <time>2021-05-21T07:00:35Z</time>
      </trkpt>
      <trkpt lat="42.2978380" lon="-8.6099300">
        <ele>24.8</ele>
        <time>2021-05-21T07:00:36Z</time>
      </trkpt>
      <trkpt lat="42.2978550" lon="-8.6099140">
        <ele>24.8</ele>
        <time>2021-05-21T07:00:37Z</time>
      </trkpt>
      <trkpt lat="42.2978700" lon="-8.6099080">
        <ele>24.7</ele>
        <time>2021-05-21T07:00:38Z</time>
      </trkpt>
      <trkpt lat="42.2978900" lon="-8.6099020">
        <ele>24.7</ele>
        <time>2021-05-21T07:00:39Z</time>
      </trkpt>
      <trkpt lat="42.2979050" lon="-8.6098920">
        <ele>24.6</ele>
        <time>2021-05-21T07:00:40Z</time>
      </trkpt>
      <trkpt lat="42.2979070" lon="-8.6098890">
        <ele>24.6</ele>
        <time>2021-05-21T07:00:41Z</time>
      </trkpt>
      <trkpt lat="42.2979080" lon="-8.6098870">
        <ele>24.6</ele>
        <time>2021-05-21T07:00:42Z</time>
      </trkpt>
      <trkpt lat="42.2979150" lon="-8.6098760">
        <ele>24.6</ele>
        <time>2021-05-21T07:00:43Z</time>
      </trkpt>
      <trkpt lat="42.2979310" lon="-8.6098680">
        <ele>24.6</ele>
        <time>2021-05-21T07:00:44Z</time>
      </trkpt>
      <trkpt lat="42.2979430" lon="-8.6098620">
        <ele>24.5</ele>
        <time>2021-05-21T07:00:45Z</time>
      </trkpt>
      <trkpt lat="42.2979750" lon="-8.6098460">
        <ele>24.5</ele>
        <time>2021-05-21T07:00:46Z</time>
      </trkpt>
      <trkpt lat="42.2979860" lon="-8.6098410">
        <ele>24.4</ele>
        <time>2021-05-21T07:00:47Z</time>
      </trkpt>
      <trkpt lat="42.2980140" lon="-8.6098320">
        <ele>24.4</ele>
        <time>2021-05-21T07:00:48Z</time>
      </trkpt>
      <trkpt lat="42.2980240" lon="-8.6098280">
        <ele>24.3</ele>
        <time>2021-05-21T07:00:49Z</time>
      </trkpt>
      <trkpt lat="42.2980350" lon="-8.6098260">
        <ele>24.3</ele>
        <time>2021-05-21T07:00:50Z</time>
      </trkpt>
      <trkpt lat="42.2980480" lon="-8.6098250">
        <ele>24.3</ele>
        <time>2021-05-21T07:00:51Z</time>
      </trkpt>
      <trkpt lat="42.2980550" lon="-8.6098140">
        <ele>24.3</ele>
        <time>2021-05-21T07:00:52Z</time>
      </trkpt>
      <trkpt lat="42.2980690" lon="-8.6098060">
        <ele>24.2</ele>
        <time>2021-05-21T07:00:53Z</time>
      </trkpt>
      <trkpt lat="42.2980790" lon="-8.6097940">
        <ele>24.2</ele>
        <time>2021-05-21T07:00:54Z</time>
      </trkpt>
      <trkpt lat="42.2980960" lon="-8.6097820">
        <ele>24.1</ele>
        <time>2021-05-21T07:00:55Z</time>
      </trkpt>
      <trkpt lat="42.2981020" lon="-8.6097770">
        <ele>24.1</ele>
        <time>2021-05-21T07:00:56Z</time>
      </trkpt>
      <trkpt lat="42.2981070" lon="-8.6097710">
        <ele>24.1</ele>
        <time>2021-05-21T07:00:57Z</time>
      </trkpt>
      <trkpt lat="42.2981130" lon="-8.6097660">
        <ele>24.1</ele>
        <time>2021-05-21T07:00:58Z</time>
      </trkpt>
      <trkpt lat="42.2981180" lon="-8.6097570">
        <ele>24.1</ele>
        <time>2021-05-21T07:00:59Z</time>
      </trkpt>
      <trkpt lat="42.2981460" lon="-8.6097550">
        <ele>24.0</ele>
        <time>2021-05-21T07:01:00Z</time>
      </trkpt>
      <trkpt lat="42.2981540" lon="-8.6097520">
        <ele>24.0</ele>
        <time>2021-05-21T07:01:01Z</time>
      </trkpt>
      <trkpt lat="42.2981610" lon="-8.6097390">
        <ele>24.0</ele>
        <time>2021-05-21T07:01:02Z</time>
      </trkpt>
      <trkpt lat="42.2981770" lon="-8.6097340">
        <ele>23.9</ele>
        <time>2021-05-21T07:01:03Z</time>
      </trkpt>
      <trkpt lat="42.2981910" lon="-8.6097330">
        <ele>23.9</ele>
        <time>2021-05-21T07:01:04Z</time>
      </trkpt>
      <trkpt lat="42.2982020" lon="-8.6097330">
        <ele>23.9</ele>
        <time>2021-05-21T07:01:05Z</time>
      </trkpt>
      <trkpt lat="42.2982130" lon="-8.6097320">
        <ele>23.8</ele>
        <time>2021-05-21T07:01:06Z</time>
      </trkpt>
      <trkpt lat="42.2982240" lon="-8.6097310">
        <ele>23.8</ele>
        <time>2021-05-21T07:01:07Z</time>
      </trkpt>
      <trkpt lat="42.2982340" lon="-8.6097230">
        <ele>23.8</ele>
        <time>2021-05-21T07:01:08Z</time>
      </trkpt>
      <trkpt lat="42.2982420" lon="-8.6097190">
        <ele>23.8</ele>
        <time>2021-05-21T07:01:09Z</time>
      </trkpt>
      <trkpt lat="42.2982560" lon="-8.6097120">
        <ele>23.7</ele>
        <time>2021-05-21T07:01:10Z</time>
      </trkpt>
      <trkpt lat="42.2982760" lon="-8.6097080">
        <ele>23.7</ele>
        <time>2021-05-21T07:01:11Z</time>
      </trkpt>
      <trkpt lat="42.2982840" lon="-8.6097040">
        <ele>23.7</ele>
        <time>2021-05-21T07:01:12Z</time>
      </trkpt>
      <trkpt lat="42.2982930" lon="-8.6097010">
        <ele>23.6</ele>
        <time>2021-05-21T07:01:13Z</time>
      </trkpt>
      <trkpt lat="42.2983080" lon="-8.6096920">
        <ele>23.6</ele>
        <time>2021-05-21T07:01:14Z</time>
      </trkpt>
      <trkpt lat="42.2983240" lon="-8.6096870">
        <ele>23.5</ele>
        <time>2021-05-21T07:01:15Z</time>
      </trkpt>
      <trkpt lat="42.2983440" lon="-8.6096800">
        <ele>23.5</ele>
        <time>2021-05-21T07:01:16Z</time>
      </trkpt>
      <trkpt lat="42.2983550" lon="-8.6096780">
        <ele>23.5</ele>
        <time>2021-05-21T07:01:17Z</time>
      </trkpt>
      <trkpt lat="42.2983660" lon="-8.6096750">
        <ele>23.4</ele>
        <time>2021-05-21T07:01:18Z</time>
      </trkpt>
      <trkpt lat="42.2983790" lon="-8.6096740">
        <ele>23.4</ele>
        <time>2021-05-21T07:01:19Z</time>
      </trkpt>
      <trkpt lat="42.2983870" lon="-8.6096660">
        <ele>23.4</ele>
        <time>2021-05-21T07:01:20Z</time>
      </trkpt>
      <trkpt lat="42.2983920" lon="-8.6096640">
        <ele>23.4</ele>
        <time>2021-05-21T07:01:21Z</time>
      </trkpt>
      <trkpt lat="42.2983970" lon="-8.6096660">
        <ele>23.4</ele>
        <time>2021-05-21T07:01:22Z</time>
      </trkpt>
      <trkpt lat="42.2984020" lon="-8.6096630">
        <ele>23.3</ele>
        <time>2021-05-21T07:01:23Z</time>
      </trkpt>
      <trkpt lat="42.2984090" lon="-8.6096620">
        <ele>23.3</ele>
        <time>2021-05-21T07:01:24Z</time>
      </trkpt>
      <trkpt lat="42.2984190" lon="-8.6096610">
        <ele>23.3</ele>
        <time>2021-05-21T07:01:25Z</time>
      </trkpt>
      <trkpt lat="42.2984200" lon="-8.6096580">
        <ele>23.3</ele>
        <time>2021-05-21T07:01:26Z</time>
      </trkpt>
      <trkpt lat="42.2984270" lon="-8.6096510">
        <ele>23.3</ele>
        <time>2021-05-21T07:01:27Z</time>
      </trkpt>
      <trkpt lat="42.2984310" lon="-8.6096460">
        <ele>23.3</ele>
        <time>2021-05-21T07:01:28Z</time>
      </trkpt>
      <trkpt lat="42.2984450" lon="-8.6096450">
        <ele>23.2</ele>
        <time>2021-05-21T07:01:29Z</time>
      </trkpt>
      <trkpt lat="42.2984500" lon="-8.6096450">
        <ele>23.2</ele>
        <time>2021-05-21T07:01:30Z</time>
      </trkpt>
      <trkpt lat="42.2984570" lon="-8.6096410">
        <ele>23.2</ele>
        <time>2021-05-21T07:01:31Z</time>
      </trkpt>
      <trkpt lat="42.2984700" lon="-8.6096380">
        <ele>23.2</ele>
        <time>2021-05-21T07:01:32Z</time>
      </trkpt>
      <trkpt lat="42.2984760" lon="-8.6096370">
        <ele>23.1</ele>
        <time>2021-05-21T07:01:33Z</time>
      </trkpt>
      <trkpt lat="42.2984830" lon="-8.6096330">
        <ele>23.1</ele>
        <time>2021-05-21T07:01:34Z</time>
      </trkpt>
      <trkpt lat="42.2984890" lon="-8.6096320">
        <ele>23.1</ele>
        <time>2021-05-21T07:01:35Z</time>
      </trkpt>
      <trkpt lat="42.2984950" lon="-8.6096310">
        <ele>23.1</ele>
        <time>2021-05-21T07:01:36Z</time>
      </trkpt>
      <trkpt lat="42.2985020" lon="-8.6096300">
        <ele>23.1</ele>
        <time>2021-05-21T07:01:37Z</time>
      </trkpt>
      <trkpt lat="42.2985080" lon="-8.6096290">
        <ele>23.1</ele>
        <time>2021-05-21T07:01:38Z</time>
      </trkpt>
      <trkpt lat="42.2985150" lon="-8.6096280">
        <ele>23.0</ele>
        <time>2021-05-21T07:01:39Z</time>
      </trkpt>
      <trkpt lat="42.2985210" lon="-8.6096270">
        <ele>23.0</ele>
        <time>2021-05-21T07:01:40Z</time>
      </trkpt>
      <trkpt lat="42.2985290" lon="-8.6096240">
        <ele>23.0</ele>
        <time>2021-05-21T07:01:41Z</time>
      </trkpt>
      <trkpt lat="42.2985420" lon="-8.6096260">
        <ele>23.0</ele>
        <time>2021-05-21T07:01:42Z</time>
      </trkpt>
      <trkpt lat="42.2985500" lon="-8.6096170">
        <ele>23.0</ele>
        <time>2021-05-21T07:01:43Z</time>
      </trkpt>
      <trkpt lat="42.2985590" lon="-8.6096130">
        <ele>22.9</ele>
        <time>2021-05-21T07:01:44Z</time>
      </trkpt>
      <trkpt lat="42.2985780" lon="-8.6096110">
        <ele>22.9</ele>
        <time>2021-05-21T07:01:45Z</time>
      </trkpt>
      <trkpt lat="42.2985870" lon="-8.6096060">
        <ele>22.9</ele>
        <time>2021-05-21T07:01:46Z</time>
      </trkpt>
      <trkpt lat="42.2986060" lon="-8.6096110">
        <ele>22.8</ele>
        <time>2021-05-21T07:01:47Z</time>
      </trkpt>
      <trkpt lat="42.2986260" lon="-8.6096050">
        <ele>22.8</ele>
        <time>2021-05-21T07:01:48Z</time>
      </trkpt>
      <trkpt lat="42.2986340" lon="-8.6096060">
        <ele>22.7</ele>
        <time>2021-05-21T07:01:49Z</time>
      </trkpt>
      <trkpt lat="42.2986500" lon="-8.6096090">
        <ele>22.7</ele>
        <time>2021-05-21T07:01:50Z</time>
      </trkpt>
      <trkpt lat="42.2986690" lon="-8.6096070">
        <ele>22.7</ele>
        <time>2021-05-21T07:01:51Z</time>
      </trkpt>
      <trkpt lat="42.2986840" lon="-8.6096050">
        <ele>22.6</ele>
        <time>2021-05-21T07:01:52Z</time>
      </trkpt>
      <trkpt lat="42.2986910" lon="-8.6096030">
        <ele>22.6</ele>
        <time>2021-05-21T07:01:53Z</time>
      </trkpt>
      <trkpt lat="42.2986980" lon="-8.6096010">
        <ele>22.6</ele>
        <time>2021-05-21T07:01:54Z</time>
      </trkpt>
      <trkpt lat="42.2987050" lon="-8.6095990">
        <ele>22.6</ele>
        <time>2021-05-21T07:01:55Z</time>
      </trkpt>
      <trkpt lat="42.2987140" lon="-8.6095960">
        <ele>22.6</ele>
        <time>2021-05-21T07:01:56Z</time>
      </trkpt>
      <trkpt lat="42.2987380" lon="-8.6096080">
        <ele>22.5</ele>
        <time>2021-05-21T07:01:57Z</time>
      </trkpt>
      <trkpt lat="42.2987590" lon="-8.6096000">
        <ele>22.5</ele>
        <time>2021-05-21T07:01:58Z</time>
      </trkpt>
      <trkpt lat="42.2987690" lon="-8.6095970">
        <ele>22.5</ele>
        <time>2021-05-21T07:01:59Z</time>
      </trkpt>
      <trkpt lat="42.2987800" lon="-8.6095940">
        <ele>22.4</ele>
        <time>2021-05-21T07:02:00Z</time>
      </trkpt>
      <trkpt lat="42.2987930" lon="-8.6095970">
        <ele>22.4</ele>
        <time>2021-05-21T07:02:01Z</time>
      </trkpt>
      <trkpt lat="42.2988020" lon="-8.6096000">
        <ele>22.4</ele>
        <time>2021-05-21T07:02:02Z</time>
      </trkpt>
      <trkpt lat="42.2988080" lon="-8.6095990">
        <ele>22.4</ele>
        <time>2021-05-21T07:02:03Z</time>
      </trkpt>
      <trkpt lat="42.2988280" lon="-8.6096020">
        <ele>22.4</ele>
        <time>2021-05-21T07:02:04Z</time>
      </trkpt>
      <trkpt lat="42.2988380" lon="-8.6095980">
        <ele>22.3</ele>
        <time>2021-05-21T07:02:05Z</time>
      </trkpt>
      <trkpt lat="42.2988390" lon="-8.6096020">
        <ele>22.3</ele>
        <time>2021-05-21T07:02:06Z</time>
      </trkpt>
      <trkpt lat="42.2988490" lon="-8.6096030">
        <ele>22.3</ele>
        <time>2021-05-21T07:02:07Z</time>
      </trkpt>
      <trkpt lat="42.2988580" lon="-8.6096050">
        <ele>22.3</ele>
        <time>2021-05-21T07:02:08Z</time>
      </trkpt>
      <trkpt lat="42.2988680" lon="-8.6096060">
        <ele>22.3</ele>
        <time>2021-05-21T07:02:09Z</time>
      </trkpt>
      <trkpt lat="42.2988770" lon="-8.6096070">
        <ele>22.3</ele>
        <time>2021-05-21T07:02:10Z</time>
      </trkpt>
      <trkpt lat="42.2988900" lon="-8.6096030">
        <ele>22.3</ele>
        <time>2021-05-21T07:02:11Z</time>
      </trkpt>
      <trkpt lat="42.2989010" lon="-8.6095980">
        <ele>22.2</ele>
        <time>2021-05-21T07:02:12Z</time>
      </trkpt>
      <trkpt lat="42.2989050" lon="-8.6096030">
        <ele>22.2</ele>
        <time>2021-05-21T07:02:13Z</time>
      </trkpt>
      <trkpt lat="42.2989160" lon="-8.6096020">
        <ele>22.2</ele>
        <time>2021-05-21T07:02:14Z</time>
      </trkpt>
      <trkpt lat="42.2989360" lon="-8.6096020">
        <ele>22.2</ele>
        <time>2021-05-21T07:02:15Z</time>
      </trkpt>
      <trkpt lat="42.2989580" lon="-8.6096140">
        <ele>22.2</ele>
        <time>2021-05-21T07:02:16Z</time>
      </trkpt>
      <trkpt lat="42.2989690" lon="-8.6096110">
        <ele>22.1</ele>
        <time>2021-05-21T07:02:17Z</time>
      </trkpt>
      <trkpt lat="42.2989800" lon="-8.6096080">
        <ele>22.1</ele>
        <time>2021-05-21T07:02:18Z</time>
      </trkpt>
      <trkpt lat="42.2990010" lon="-8.6096050">
        <ele>22.1</ele>
        <time>2021-05-21T07:02:19Z</time>
      </trkpt>
      <trkpt lat="42.2990140" lon="-8.6096060">
        <ele>22.1</ele>
        <time>2021-05-21T07:02:20Z</time>
      </trkpt>
      <trkpt lat="42.2990260" lon="-8.6096070">
        <ele>22.1</ele>
        <time>2021-05-21T07:02:21Z</time>
      </trkpt>
      <trkpt lat="42.2990390" lon="-8.6096080">
        <ele>22.1</ele>
        <time>2021-05-21T07:02:22Z</time>
      </trkpt>
      <trkpt lat="42.2990480" lon="-8.6096100">
        <ele>22.1</ele>
        <time>2021-05-21T07:02:23Z</time>
      </trkpt>
      <trkpt lat="42.2990560" lon="-8.6096110">
        <ele>22.0</ele>
        <time>2021-05-21T07:02:24Z</time>
      </trkpt>
      <trkpt lat="42.2990640" lon="-8.6096130">
        <ele>22.0</ele>
        <time>2021-05-21T07:02:25Z</time>
      </trkpt>
      <trkpt lat="42.2990680" lon="-8.6096270">
        <ele>22.0</ele>
        <time>2021-05-21T07:02:26Z</time>
      </trkpt>
      <trkpt lat="42.2990720" lon="-8.6096280">
        <ele>22.0</ele>
        <time>2021-05-21T07:02:27Z</time>
      </trkpt>
      <trkpt lat="42.2990820" lon="-8.6096310">
        <ele>22.0</ele>
        <time>2021-05-21T07:02:28Z</time>
      </trkpt>
      <trkpt lat="42.2990840" lon="-8.6096310">
        <ele>22.0</ele>
        <time>2021-05-21T07:02:29Z</time>
      </trkpt>
      <trkpt lat="42.2990740" lon="-8.6096270">
        <ele>22.0</ele>
        <time>2021-05-21T07:02:30Z</time>
      </trkpt>
      <trkpt lat="42.2990710" lon="-8.6096280">
        <ele>22.0</ele>
        <time>2021-05-21T07:02:31Z</time>
      </trkpt>
      <trkpt lat="42.2990730" lon="-8.6096250">
        <ele>22.0</ele>
        <time>2021-05-21T07:02:32Z</time>
      </trkpt>
      <trkpt lat="42.2990710" lon="-8.6096200">
        <ele>22.0</ele>
        <time>2021-05-21T07:02:33Z</time>
      </trkpt>
      <trkpt lat="42.2990700" lon="-8.6096250">
        <ele>22.0</ele>
        <time>2021-05-21T07:02:34Z</time>
      </trkpt>
      <trkpt lat="42.2990710" lon="-8.6096290">
        <ele>22.0</ele>
        <time>2021-05-21T07:02:35Z</time>
      </trkpt>
      <trkpt lat="42.2990680" lon="-8.6096300">
        <ele>22.0</ele>
        <time>2021-05-21T07:02:36Z</time>
      </trkpt>
      <trkpt lat="42.2990670" lon="-8.6096280">
        <ele>22.0</ele>
        <time>2021-05-21T07:02:37Z</time>
      </trkpt>
      <trkpt lat="42.2990650" lon="-8.6096230">
        <ele>22.0</ele>
        <time>2021-05-21T07:02:38Z</time>
      </trkpt>
      <trkpt lat="42.2990680" lon="-8.6096370">
        <ele>21.9</ele>
        <time>2021-05-21T07:02:39Z</time>
      </trkpt>
      <trkpt lat="42.2990660" lon="-8.6096320">
        <ele>21.9</ele>
        <time>2021-05-21T07:02:40Z</time>
      </trkpt>
      <trkpt lat="42.2990690" lon="-8.6096350">
        <ele>21.9</ele>
        <time>2021-05-21T07:02:41Z</time>
      </trkpt>
      <trkpt lat="42.2990690" lon="-8.6096270">
        <ele>21.9</ele>
        <time>2021-05-21T07:02:42Z</time>
      </trkpt>
      <trkpt lat="42.2990690" lon="-8.6096250">
        <ele>21.9</ele>
        <time>2021-05-21T07:02:43Z</time>
      </trkpt>
      <trkpt lat="42.2990710" lon="-8.6096130">
        <ele>21.9</ele>
        <time>2021-05-21T07:02:44Z</time>
      </trkpt>
      <trkpt lat="42.2990700" lon="-8.6096180">
        <ele>21.9</ele>
        <time>2021-05-21T07:02:45Z</time>
      </trkpt>
      <trkpt lat="42.2990700" lon="-8.6096180">
        <ele>21.9</ele>
        <time>2021-05-21T07:02:46Z</time>
      </trkpt>
      <trkpt lat="42.2990750" lon="-8.6095990">
        <ele>21.9</ele>
        <time>2021-05-21T07:02:47Z</time>
      </trkpt>
      <trkpt lat="42.2990740" lon="-8.6095970">
        <ele>21.9</ele>
        <time>2021-05-21T07:02:48Z</time>
      </trkpt>
      <trkpt lat="42.2990810" lon="-8.6096120">
        <ele>21.9</ele>
        <time>2021-05-21T07:02:49Z</time>
      </trkpt>
      <trkpt lat="42.2990740" lon="-8.6095990">
        <ele>21.9</ele>
        <time>2021-05-21T07:02:50Z</time>
      </trkpt>
      <trkpt lat="42.2990750" lon="-8.6096020">
        <ele>21.9</ele>
        <time>2021-05-21T07:02:51Z</time>
      </trkpt>
      <trkpt lat="42.2990750" lon="-8.6096030">
        <ele>21.9</ele>
        <time>2021-05-21T07:02:52Z</time>
      </trkpt>
      <trkpt lat="42.2990810" lon="-8.6096050">
        <ele>21.9</ele>
        <time>2021-05-21T07:02:53Z</time>
      </trkpt>
      <trkpt lat="42.2990800" lon="-8.6096090">
        <ele>21.9</ele>
        <time>2021-05-21T07:02:54Z</time>
      </trkpt>
      <trkpt lat="42.2990740" lon="-8.6096190">
        <ele>21.9</ele>
        <time>2021-05-21T07:02:55Z</time>
      </trkpt>
      <trkpt lat="42.2990720" lon="-8.6096200">
        <ele>21.9</ele>
        <time>2021-05-21T07:02:56Z</time>
      </trkpt>
      <trkpt lat="42.2990690" lon="-8.6096200">
        <ele>21.9</ele>
        <time>2021-05-21T07:02:57Z</time>
      </trkpt>
      <trkpt lat="42.2990640" lon="-8.6096220">
        <ele>21.9</ele>
        <time>2021-05-21T07:02:58Z</time>
      </trkpt>
      <trkpt lat="42.2990630" lon="-8.6096210">
        <ele>21.9</ele>
        <time>2021-05-21T07:02:59Z</time>
      </trkpt>
      <trkpt lat="42.2990520" lon="-8.6096130">
        <ele>21.9</ele>
        <time>2021-05-21T07:03:00Z</time>
      </trkpt>
      <trkpt lat="42.2990560" lon="-8.6096140">
        <ele>21.8</ele>
        <time>2021-05-21T07:03:01Z</time>
      </trkpt>
      <trkpt lat="42.2990600" lon="-8.6096200">
        <ele>21.8</ele>
        <time>2021-05-21T07:03:02Z</time>
      </trkpt>
      <trkpt lat="42.2990630" lon="-8.6096300">
        <ele>21.8</ele>
        <time>2021-05-21T07:03:03Z</time>
      </trkpt>
      <trkpt lat="42.2990640" lon="-8.6096350">
        <ele>21.8</ele>
        <time>2021-05-21T07:03:04Z</time>
      </trkpt>
      <trkpt lat="42.2990690" lon="-8.6096290">
        <ele>21.8</ele>
        <time>2021-05-21T07:03:05Z</time>
      </trkpt>
      <trkpt lat="42.2990690" lon="-8.6096290">
        <ele>21.8</ele>
        <time>2021-05-21T07:03:06Z</time>
      </trkpt>
      <trkpt lat="42.2990670" lon="-8.6096160">
        <ele>21.8</ele>
        <time>2021-05-21T07:03:07Z</time>
      </trkpt>
      <trkpt lat="42.2990620" lon="-8.6096210">
        <ele>21.8</ele>
        <time>2021-05-21T07:03:08Z</time>
      </trkpt>
      <trkpt lat="42.2990630" lon="-8.6096240">
        <ele>21.8</ele>
        <time>2021-05-21T07:03:09Z</time>
      </trkpt>
      <trkpt lat="42.2990630" lon="-8.6096390">
        <ele>21.8</ele>
        <time>2021-05-21T07:03:10Z</time>
      </trkpt>
      <trkpt lat="42.2990730" lon="-8.6096210">
        <ele>21.8</ele>
        <time>2021-05-21T07:03:11Z</time>
      </trkpt>
      <trkpt lat="42.2990710" lon="-8.6096030">
        <ele>21.8</ele>
        <time>2021-05-21T07:03:12Z</time>
      </trkpt>
      <trkpt lat="42.2990750" lon="-8.6096050">
        <ele>21.8</ele>
        <time>2021-05-21T07:03:13Z</time>
      </trkpt>
      <trkpt lat="42.2990750" lon="-8.6095990">
        <ele>21.8</ele>
        <time>2021-05-21T07:03:14Z</time>
      </trkpt>
      <trkpt lat="42.2990660" lon="-8.6096010">
        <ele>21.8</ele>
        <time>2021-05-21T07:03:15Z</time>
      </trkpt>
      <trkpt lat="42.2990620" lon="-8.6095980">
        <ele>21.8</ele>
        <time>2021-05-21T07:03:16Z</time>
      </trkpt>
      <trkpt lat="42.2990500" lon="-8.6096190">
        <ele>21.8</ele>
        <time>2021-05-21T07:03:17Z</time>
      </trkpt>
      <trkpt lat="42.2990460" lon="-8.6096310">
        <ele>21.8</ele>
        <time>2021-05-21T07:03:18Z</time>
      </trkpt>
      <trkpt lat="42.2990400" lon="-8.6096370">
        <ele>21.8</ele>
        <time>2021-05-21T07:03:19Z</time>
      </trkpt>
      <trkpt lat="42.2990320" lon="-8.6096370">
        <ele>21.8</ele>
        <time>2021-05-21T07:03:20Z</time>
      </trkpt>
      <trkpt lat="42.2990280" lon="-8.6096400">
        <ele>21.8</ele>
        <time>2021-05-21T07:03:21Z</time>
      </trkpt>
      <trkpt lat="42.2990360" lon="-8.6096310">
        <ele>21.8</ele>
        <time>2021-05-21T07:03:22Z</time>
      </trkpt>
      <trkpt lat="42.2990360" lon="-8.6096390">
        <ele>21.8</ele>
        <time>2021-05-21T07:03:23Z</time>
      </trkpt>
      <trkpt lat="42.2990460" lon="-8.6096270">
        <ele>21.9</ele>
        <time>2021-05-21T07:03:24Z</time>
      </trkpt>
      <trkpt lat="42.2990480" lon="-8.6096290">
        <ele>21.9</ele>
        <time>2021-05-21T07:03:25Z</time>
      </trkpt>
      <trkpt lat="42.2990490" lon="-8.6096270">
        <ele>21.9</ele>
        <time>2021-05-21T07:03:26Z</time>
      </trkpt>
      <trkpt lat="42.2990560" lon="-8.6096140">
        <ele>21.9</ele>
        <time>2021-05-21T07:03:27Z</time>
      </trkpt>
      <trkpt lat="42.2990680" lon="-8.6096030">
        <ele>21.9</ele>
        <time>2021-05-21T07:03:28Z</time>
      </trkpt>
      <trkpt lat="42.2990650" lon="-8.6095940">
        <ele>21.9</ele>
        <time>2021-05-21T07:03:29Z</time>
      </trkpt>
      <trkpt lat="42.2990760" lon="-8.6095870">
        <ele>21.9</ele>
        <time>2021-05-21T07:03:30Z</time>
      </trkpt>
      <trkpt lat="42.2990830" lon="-8.6095860">
        <ele>21.9</ele>
        <time>2021-05-21T07:03:31Z</time>
      </trkpt>
      <trkpt lat="42.2990890" lon="-8.6095860">
        <ele>21.9</ele>
        <time>2021-05-21T07:03:32Z</time>
      </trkpt>
      <trkpt lat="42.2990960" lon="-8.6095850">
        <ele>21.9</ele>
        <time>2021-05-21T07:03:33Z</time>
      </trkpt>
      <trkpt lat="42.2991110" lon="-8.6095910">
        <ele>22.0</ele>
        <time>2021-05-21T07:03:34Z</time>
      </trkpt>
      <trkpt lat="42.2991300" lon="-8.6095890">
        <ele>22.0</ele>
        <time>2021-05-21T07:03:35Z</time>
      </trkpt>
      <trkpt lat="42.2991390" lon="-8.6095860">
        <ele>22.0</ele>
        <time>2021-05-21T07:03:36Z</time>
      </trkpt>
      <trkpt lat="42.2991490" lon="-8.6095840">
        <ele>22.1</ele>
        <time>2021-05-21T07:03:37Z</time>
      </trkpt>
      <trkpt lat="42.2991540" lon="-8.6095840">
        <ele>22.1</ele>
        <time>2021-05-21T07:03:38Z</time>
      </trkpt>
      <trkpt lat="42.2991640" lon="-8.6095830">
        <ele>22.1</ele>
        <time>2021-05-21T07:03:39Z</time>
      </trkpt>
      <trkpt lat="42.2991770" lon="-8.6095830">
        <ele>22.1</ele>
        <time>2021-05-21T07:03:40Z</time>
      </trkpt>
      <trkpt lat="42.2991850" lon="-8.6095770">
        <ele>22.1</ele>
        <time>2021-05-21T07:03:41Z</time>
      </trkpt>
      <trkpt lat="42.2991980" lon="-8.6095730">
        <ele>22.2</ele>
        <time>2021-05-21T07:03:42Z</time>
      </trkpt>
      <trkpt lat="42.2992080" lon="-8.6095740">
        <ele>22.2</ele>
        <time>2021-05-21T07:03:43Z</time>
      </trkpt>
      <trkpt lat="42.2992150" lon="-8.6095680">
        <ele>22.2</ele>
        <time>2021-05-21T07:03:44Z</time>
      </trkpt>
      <trkpt lat="42.2992280" lon="-8.6095600">
        <ele>22.3</ele>
        <time>2021-05-21T07:03:45Z</time>
      </trkpt>
      <trkpt lat="42.2992390" lon="-8.6095510">
        <ele>22.3</ele>
        <time>2021-05-21T07:03:46Z</time>
      </trkpt>
      <trkpt lat="42.2992710" lon="-8.6095510">
        <ele>22.4</ele>
        <time>2021-05-21T07:03:47Z</time>
      </trkpt>
      <trkpt lat="42.2992870" lon="-8.6095550">
        <ele>22.4</ele>
        <time>2021-05-21T07:03:48Z</time>
      </trkpt>
      <trkpt lat="42.2992990" lon="-8.6095500">
        <ele>22.5</ele>
        <time>2021-05-21T07:03:49Z</time>
      </trkpt>
      <trkpt lat="42.2993080" lon="-8.6095550">
        <ele>22.5</ele>
        <time>2021-05-21T07:03:50Z</time>
      </trkpt>
      <trkpt lat="42.2993200" lon="-8.6095530">
        <ele>22.6</ele>
        <time>2021-05-21T07:03:51Z</time>
      </trkpt>
      <trkpt lat="42.2993340" lon="-8.6095550">
        <ele>22.6</ele>
        <time>2021-05-21T07:03:52Z</time>
      </trkpt>
      <trkpt lat="42.2993430" lon="-8.6095590">
        <ele>22.7</ele>
        <time>2021-05-21T07:03:53Z</time>
      </trkpt>
      <trkpt lat="42.2993550" lon="-8.6095580">
        <ele>22.7</ele>
        <time>2021-05-21T07:03:54Z</time>
      </trkpt>
      <trkpt lat="42.2993660" lon="-8.6095790">
        <ele>22.8</ele>
        <time>2021-05-21T07:03:55Z</time>
      </trkpt>
      <trkpt lat="42.2993710" lon="-8.6095890">
        <ele>22.8</ele>
        <time>2021-05-21T07:03:56Z</time>
      </trkpt>
      <trkpt lat="42.2994050" lon="-8.6095890">
        <ele>23.0</ele>
        <time>2021-05-21T07:03:57Z</time>
      </trkpt>
      <trkpt lat="42.2994160" lon="-8.6095850">
        <ele>23.0</ele>
        <time>2021-05-21T07:03:58Z</time>
      </trkpt>
      <trkpt lat="42.2994300" lon="-8.6095790">
        <ele>23.1</ele>
        <time>2021-05-21T07:03:59Z</time>
      </trkpt>
      <trkpt lat="42.2994430" lon="-8.6095700">
        <ele>23.2</ele>
        <time>2021-05-21T07:04:00Z</time>
      </trkpt>
      <trkpt lat="42.2994530" lon="-8.6095480">
        <ele>23.3</ele>
        <time>2021-05-21T07:04:01Z</time>
      </trkpt>
      <trkpt lat="42.2994590" lon="-8.6095400">
        <ele>23.3</ele>
        <time>2021-05-21T07:04:02Z</time>
      </trkpt>
      <trkpt lat="42.2994660" lon="-8.6095310">
        <ele>23.3</ele>
        <time>2021-05-21T07:04:03Z</time>
      </trkpt>
      <trkpt lat="42.2994820" lon="-8.6095080">
        <ele>23.8</ele>
        <time>2021-05-21T07:04:04Z</time>
      </trkpt>
      <trkpt lat="42.2994870" lon="-8.6095010">
        <ele>23.8</ele>
        <time>2021-05-21T07:04:05Z</time>
      </trkpt>
      <trkpt lat="42.2994930" lon="-8.6094950">
        <ele>23.9</ele>
        <time>2021-05-21T07:04:06Z</time>
      </trkpt>
      <trkpt lat="42.2995010" lon="-8.6094850">
        <ele>23.9</ele>
        <time>2021-05-21T07:04:07Z</time>
      </trkpt>
      <trkpt lat="42.2995070" lon="-8.6094770">
        <ele>24.0</ele>
        <time>2021-05-21T07:04:08Z</time>
      </trkpt>
      <trkpt lat="42.2995090" lon="-8.6094560">
        <ele>24.1</ele>
        <time>2021-05-21T07:04:09Z</time>
      </trkpt>
      <trkpt lat="42.2995210" lon="-8.6094320">
        <ele>24.3</ele>
        <time>2021-05-21T07:04:10Z</time>
      </trkpt>
      <trkpt lat="42.2995270" lon="-8.6094200">
        <ele>24.3</ele>
        <time>2021-05-21T07:04:11Z</time>
      </trkpt>
      <trkpt lat="42.2995320" lon="-8.6094080">
        <ele>24.4</ele>
        <time>2021-05-21T07:04:12Z</time>
      </trkpt>
      <trkpt lat="42.2995410" lon="-8.6093820">
        <ele>24.6</ele>
        <time>2021-05-21T07:04:13Z</time>
      </trkpt>
      <trkpt lat="42.2995480" lon="-8.6093700">
        <ele>24.7</ele>
        <time>2021-05-21T07:04:14Z</time>
      </trkpt>
      <trkpt lat="42.2995540" lon="-8.6093590">
        <ele>24.7</ele>
        <time>2021-05-21T07:04:15Z</time>
      </trkpt>
      <trkpt lat="42.2995570" lon="-8.6093490">
        <ele>24.8</ele>
        <time>2021-05-21T07:04:16Z</time>
      </trkpt>
      <trkpt lat="42.2995630" lon="-8.6093370">
        <ele>24.9</ele>
        <time>2021-05-21T07:04:17Z</time>
      </trkpt>
      <trkpt lat="42.2995760" lon="-8.6093250">
        <ele>25.0</ele>
        <time>2021-05-21T07:04:18Z</time>
      </trkpt>
      <trkpt lat="42.2995860" lon="-8.6093080">
        <ele>25.2</ele>
        <time>2021-05-21T07:04:19Z</time>
      </trkpt>
      <trkpt lat="42.2995920" lon="-8.6092940">
        <ele>25.3</ele>
        <time>2021-05-21T07:04:20Z</time>
      </trkpt>
      <trkpt lat="42.2995980" lon="-8.6092690">
        <ele>25.4</ele>
        <time>2021-05-21T07:04:21Z</time>
      </trkpt>
      <trkpt lat="42.2996050" lon="-8.6092560">
        <ele>25.5</ele>
        <time>2021-05-21T07:04:22Z</time>
      </trkpt>
      <trkpt lat="42.2996120" lon="-8.6092440">
        <ele>25.6</ele>
        <time>2021-05-21T07:04:23Z</time>
      </trkpt>
      <trkpt lat="42.2996080" lon="-8.6092310">
        <ele>25.7</ele>
        <time>2021-05-21T07:04:24Z</time>
      </trkpt>
      <trkpt lat="42.2996090" lon="-8.6092210">
        <ele>25.8</ele>
        <time>2021-05-21T07:04:25Z</time>
      </trkpt>
      <trkpt lat="42.2996150" lon="-8.6092040">
        <ele>25.9</ele>
        <time>2021-05-21T07:04:26Z</time>
      </trkpt>
      <trkpt lat="42.2996200" lon="-8.6091830">
        <ele>26.1</ele>
        <time>2021-05-21T07:04:27Z</time>
      </trkpt>
      <trkpt lat="42.2996340" lon="-8.6091760">
        <ele>26.2</ele>
        <time>2021-05-21T07:04:28Z</time>
      </trkpt>
      <trkpt lat="42.2996430" lon="-8.6091640">
        <ele>26.3</ele>
        <time>2021-05-21T07:04:29Z</time>
      </trkpt>
      <trkpt lat="42.2996460" lon="-8.6091570">
        <ele>26.3</ele>
        <time>2021-05-21T07:04:30Z</time>
      </trkpt>
      <trkpt lat="42.2996490" lon="-8.6091380">
        <ele>26.5</ele>
        <time>2021-05-21T07:04:31Z</time>
      </trkpt>
      <trkpt lat="42.2996530" lon="-8.6091240">
        <ele>26.6</ele>
        <time>2021-05-21T07:04:32Z</time>
      </trkpt>
      <trkpt lat="42.2996620" lon="-8.6091080">
        <ele>26.7</ele>
        <time>2021-05-21T07:04:33Z</time>
      </trkpt>
      <trkpt lat="42.2996650" lon="-8.6091010">
        <ele>26.8</ele>
        <time>2021-05-21T07:04:34Z</time>
      </trkpt>
      <trkpt lat="42.2996700" lon="-8.6090750">
        <ele>27.0</ele>
        <time>2021-05-21T07:04:35Z</time>
      </trkpt>
      <trkpt lat="42.2996690" lon="-8.6090750">
        <ele>27.0</ele>
        <time>2021-05-21T07:04:36Z</time>
      </trkpt>
      <trkpt lat="42.2996760" lon="-8.6090600">
        <ele>27.1</ele>
        <time>2021-05-21T07:04:37Z</time>
      </trkpt>
      <trkpt lat="42.2997030" lon="-8.6090310">
        <ele>27.4</ele>
        <time>2021-05-21T07:04:38Z</time>
      </trkpt>
      <trkpt lat="42.2997090" lon="-8.6090250">
        <ele>27.5</ele>
        <time>2021-05-21T07:04:39Z</time>
      </trkpt>
      <trkpt lat="42.2997200" lon="-8.6090030">
        <ele>27.6</ele>
        <time>2021-05-21T07:04:40Z</time>
      </trkpt>
      <trkpt lat="42.2997390" lon="-8.6089980">
        <ele>27.8</ele>
        <time>2021-05-21T07:04:41Z</time>
      </trkpt>
      <trkpt lat="42.2997560" lon="-8.6089840">
        <ele>28.0</ele>
        <time>2021-05-21T07:04:42Z</time>
      </trkpt>
      <trkpt lat="42.2997640" lon="-8.6089750">
        <ele>28.1</ele>
        <time>2021-05-21T07:04:43Z</time>
      </trkpt>
      <trkpt lat="42.2997730" lon="-8.6089660">
        <ele>28.2</ele>
        <time>2021-05-21T07:04:44Z</time>
      </trkpt>
      <trkpt lat="42.2997890" lon="-8.6089610">
        <ele>28.3</ele>
        <time>2021-05-21T07:04:45Z</time>
      </trkpt>
      <trkpt lat="42.2997940" lon="-8.6089490">
        <ele>28.4</ele>
        <time>2021-05-21T07:04:46Z</time>
      </trkpt>
      <trkpt lat="42.2998000" lon="-8.6089470">
        <ele>28.5</ele>
        <time>2021-05-21T07:04:47Z</time>
      </trkpt>
      <trkpt lat="42.2998050" lon="-8.6089400">
        <ele>28.6</ele>
        <time>2021-05-21T07:04:48Z</time>
      </trkpt>
      <trkpt lat="42.2998180" lon="-8.6089370">
        <ele>28.7</ele>
        <time>2021-05-21T07:04:49Z</time>
      </trkpt>
      <trkpt lat="42.2998320" lon="-8.6089240">
        <ele>28.8</ele>
        <time>2021-05-21T07:04:50Z</time>
      </trkpt>
      <trkpt lat="42.2998370" lon="-8.6089130">
        <ele>28.9</ele>
        <time>2021-05-21T07:04:51Z</time>
      </trkpt>
      <trkpt lat="42.2998390" lon="-8.6089080">
        <ele>29.0</ele>
        <time>2021-05-21T07:04:52Z</time>
      </trkpt>
      <trkpt lat="42.2998420" lon="-8.6089040">
        <ele>29.0</ele>
        <time>2021-05-21T07:04:53Z</time>
      </trkpt>
      <trkpt lat="42.2998550" lon="-8.6088950">
        <ele>29.1</ele>
        <time>2021-05-21T07:04:54Z</time>
      </trkpt>
      <trkpt lat="42.2998640" lon="-8.6088870">
        <ele>29.2</ele>
        <time>2021-05-21T07:04:55Z</time>
      </trkpt>
      <trkpt lat="42.2998790" lon="-8.6088740">
        <ele>29.4</ele>
        <time>2021-05-21T07:04:56Z</time>
      </trkpt>
      <trkpt lat="42.2998920" lon="-8.6088630">
        <ele>29.5</ele>
        <time>2021-05-21T07:04:57Z</time>
      </trkpt>
      <trkpt lat="42.2999020" lon="-8.6088520">
        <ele>29.7</ele>
        <time>2021-05-21T07:04:58Z</time>
      </trkpt>
      <trkpt lat="42.2999060" lon="-8.6088460">
        <ele>29.7</ele>
        <time>2021-05-21T07:04:59Z</time>
      </trkpt>
      <trkpt lat="42.2999160" lon="-8.6088410">
        <ele>29.8</ele>
        <time>2021-05-21T07:05:00Z</time>
      </trkpt>
      <trkpt lat="42.2999310" lon="-8.6088420">
        <ele>30.0</ele>
        <time>2021-05-21T07:05:01Z</time>
      </trkpt>
      <trkpt lat="42.2999420" lon="-8.6088340">
        <ele>30.1</ele>
        <time>2021-05-21T07:05:02Z</time>
      </trkpt>
      <trkpt lat="42.2999540" lon="-8.6088230">
        <ele>30.2</ele>
        <time>2021-05-21T07:05:03Z</time>
      </trkpt>
      <trkpt lat="42.2999790" lon="-8.6088140">
        <ele>30.5</ele>
        <time>2021-05-21T07:05:04Z</time>
      </trkpt>
      <trkpt lat="42.2999850" lon="-8.6088040">
        <ele>30.6</ele>
        <time>2021-05-21T07:05:05Z</time>
      </trkpt>
      <trkpt lat="42.2999900" lon="-8.6087950">
        <ele>30.7</ele>
        <time>2021-05-21T07:05:06Z</time>
      </trkpt>
      <trkpt lat="42.3000190" lon="-8.6087870">
        <ele>31.0</ele>
        <time>2021-05-21T07:05:07Z</time>
      </trkpt>
      <trkpt lat="42.3000290" lon="-8.6087840">
        <ele>31.1</ele>
        <time>2021-05-21T07:05:08Z</time>
      </trkpt>
      <trkpt lat="42.3000400" lon="-8.6087670">
        <ele>31.2</ele>
        <time>2021-05-21T07:05:09Z</time>
      </trkpt>
      <trkpt lat="42.3000500" lon="-8.6087570">
        <ele>31.4</ele>
        <time>2021-05-21T07:05:10Z</time>
      </trkpt>
      <trkpt lat="42.3000570" lon="-8.6087490">
        <ele>31.5</ele>
        <time>2021-05-21T07:05:11Z</time>
      </trkpt>
      <trkpt lat="42.3000620" lon="-8.6087440">
        <ele>31.5</ele>
        <time>2021-05-21T07:05:12Z</time>
      </trkpt>
      <trkpt lat="42.3000770" lon="-8.6087330">
        <ele>31.7</ele>
        <time>2021-05-21T07:05:13Z</time>
      </trkpt>
      <trkpt lat="42.3000820" lon="-8.6087260">
        <ele>31.8</ele>
        <time>2021-05-21T07:05:14Z</time>
      </trkpt>
      <trkpt lat="42.3000840" lon="-8.6087180">
        <ele>31.9</ele>
        <time>2021-05-21T07:05:15Z</time>
      </trkpt>
      <trkpt lat="42.3000890" lon="-8.6087070">
        <ele>32.0</ele>
        <time>2021-05-21T07:05:16Z</time>
      </trkpt>
      <trkpt lat="42.3001050" lon="-8.6087030">
        <ele>32.2</ele>
        <time>2021-05-21T07:05:17Z</time>
      </trkpt>
      <trkpt lat="42.3001160" lon="-8.6086870">
        <ele>32.3</ele>
        <time>2021-05-21T07:05:18Z</time>
      </trkpt>
      <trkpt lat="42.3001290" lon="-8.6086750">
        <ele>32.5</ele>
        <time>2021-05-21T07:05:19Z</time>
      </trkpt>
      <trkpt lat="42.3001460" lon="-8.6086760">
        <ele>32.7</ele>
        <time>2021-05-21T07:05:20Z</time>
      </trkpt>
      <trkpt lat="42.3001570" lon="-8.6086680">
        <ele>32.9</ele>
        <time>2021-05-21T07:05:21Z</time>
      </trkpt>
      <trkpt lat="42.3001710" lon="-8.6086490">
        <ele>33.1</ele>
        <time>2021-05-21T07:05:22Z</time>
      </trkpt>
      <trkpt lat="42.3001770" lon="-8.6086430">
        <ele>33.2</ele>
        <time>2021-05-21T07:05:23Z</time>
      </trkpt>
      <trkpt lat="42.3001820" lon="-8.6086360">
        <ele>33.3</ele>
        <time>2021-05-21T07:05:24Z</time>
      </trkpt>
      <trkpt lat="42.3001880" lon="-8.6086300">
        <ele>33.4</ele>
        <time>2021-05-21T07:05:25Z</time>
      </trkpt>
      <trkpt lat="42.3001920" lon="-8.6086120">
        <ele>33.6</ele>
        <time>2021-05-21T07:05:26Z</time>
      </trkpt>
      <trkpt lat="42.3001990" lon="-8.6086050">
        <ele>33.7</ele>
        <time>2021-05-21T07:05:27Z</time>
      </trkpt>
      <trkpt lat="42.3002050" lon="-8.6085970">
        <ele>33.8</ele>
        <time>2021-05-21T07:05:28Z</time>
      </trkpt>
      <trkpt lat="42.3002120" lon="-8.6085890">
        <ele>33.9</ele>
        <time>2021-05-21T07:05:29Z</time>
      </trkpt>
      <trkpt lat="42.3002270" lon="-8.6085720">
        <ele>34.2</ele>
        <time>2021-05-21T07:05:30Z</time>
      </trkpt>
      <trkpt lat="42.3002350" lon="-8.6085640">
        <ele>34.3</ele>
        <time>2021-05-21T07:05:31Z</time>
      </trkpt>
      <trkpt lat="42.3002420" lon="-8.6085550">
        <ele>34.4</ele>
        <time>2021-05-21T07:05:32Z</time>
      </trkpt>
      <trkpt lat="42.3002370" lon="-8.6085460">
        <ele>34.5</ele>
        <time>2021-05-21T07:05:33Z</time>
      </trkpt>
      <trkpt lat="42.3002410" lon="-8.6085340">
        <ele>34.7</ele>
        <time>2021-05-21T07:05:34Z</time>
      </trkpt>
      <trkpt lat="42.3002400" lon="-8.6085270">
        <ele>34.7</ele>
        <time>2021-05-21T07:05:35Z</time>
      </trkpt>
      <trkpt lat="42.3002430" lon="-8.6085090">
        <ele>34.9</ele>
        <time>2021-05-21T07:05:36Z</time>
      </trkpt>
      <trkpt lat="42.3002540" lon="-8.6084970">
        <ele>35.1</ele>
        <time>2021-05-21T07:05:37Z</time>
      </trkpt>
      <trkpt lat="42.3002600" lon="-8.6084840">
        <ele>35.2</ele>
        <time>2021-05-21T07:05:38Z</time>
      </trkpt>
      <trkpt lat="42.3002560" lon="-8.6084790">
        <ele>35.3</ele>
        <time>2021-05-21T07:05:39Z</time>
      </trkpt>
      <trkpt lat="42.3002590" lon="-8.6084720">
        <ele>35.4</ele>
        <time>2021-05-21T07:05:40Z</time>
      </trkpt>
      <trkpt lat="42.3002590" lon="-8.6084640">
        <ele>35.4</ele>
        <time>2021-05-21T07:05:41Z</time>
      </trkpt>
      <trkpt lat="42.3002620" lon="-8.6084530">
        <ele>35.5</ele>
        <time>2021-05-21T07:05:42Z</time>
      </trkpt>
      <trkpt lat="42.3002690" lon="-8.6084440">
        <ele>35.7</ele>
        <time>2021-05-21T07:05:43Z</time>
      </trkpt>
      <trkpt lat="42.3002760" lon="-8.6084280">
        <ele>35.9</ele>
        <time>2021-05-21T07:05:44Z</time>
      </trkpt>
      <trkpt lat="42.3002800" lon="-8.6084110">
        <ele>36.0</ele>
        <time>2021-05-21T07:05:45Z</time>
      </trkpt>
      <trkpt lat="42.3002840" lon="-8.6084000">
        <ele>36.2</ele>
        <time>2021-05-21T07:05:46Z</time>
      </trkpt>
      <trkpt lat="42.3002870" lon="-8.6083900">
        <ele>36.3</ele>
        <time>2021-05-21T07:05:47Z</time>
      </trkpt>
      <trkpt lat="42.3002910" lon="-8.6083790">
        <ele>36.4</ele>
        <time>2021-05-21T07:05:48Z</time>
      </trkpt>
      <trkpt lat="42.3002930" lon="-8.6083620">
        <ele>36.6</ele>
        <time>2021-05-21T07:05:49Z</time>
      </trkpt>
      <trkpt lat="42.3002960" lon="-8.6083570">
        <ele>36.6</ele>
        <time>2021-05-21T07:05:50Z</time>
      </trkpt>
      <trkpt lat="42.3002960" lon="-8.6083490">
        <ele>36.7</ele>
        <time>2021-05-21T07:05:51Z</time>
      </trkpt>
      <trkpt lat="42.3003020" lon="-8.6083360">
        <ele>36.9</ele>
        <time>2021-05-21T07:05:52Z</time>
      </trkpt>
      <trkpt lat="42.3003060" lon="-8.6083270">
        <ele>37.0</ele>
        <time>2021-05-21T07:05:53Z</time>
      </trkpt>
      <trkpt lat="42.3003110" lon="-8.6083220">
        <ele>37.1</ele>
        <time>2021-05-21T07:05:54Z</time>
      </trkpt>
      <trkpt lat="42.3003200" lon="-8.6083140">
        <ele>37.2</ele>
        <time>2021-05-21T07:05:55Z</time>
      </trkpt>
      <trkpt lat="42.3003230" lon="-8.6083010">
        <ele>37.4</ele>
        <time>2021-05-21T07:05:56Z</time>
      </trkpt>
      <trkpt lat="42.3003330" lon="-8.6082760">
        <ele>37.7</ele>
        <time>2021-05-21T07:05:57Z</time>
      </trkpt>
      <trkpt lat="42.3003380" lon="-8.6082680">
        <ele>37.8</ele>
        <time>2021-05-21T07:05:58Z</time>
      </trkpt>
      <trkpt lat="42.3003430" lon="-8.6082600">
        <ele>37.9</ele>
        <time>2021-05-21T07:05:59Z</time>
      </trkpt>
      <trkpt lat="42.3003460" lon="-8.6082470">
        <ele>38.0</ele>
        <time>2021-05-21T07:06:00Z</time>
      </trkpt>
      <trkpt lat="42.3003540" lon="-8.6082360">
        <ele>38.2</ele>
        <time>2021-05-21T07:06:01Z</time>
      </trkpt>
      <trkpt lat="42.3003600" lon="-8.6082260">
        <ele>38.3</ele>
        <time>2021-05-21T07:06:02Z</time>
      </trkpt>
      <trkpt lat="42.3003660" lon="-8.6082140">
        <ele>38.5</ele>
        <time>2021-05-21T07:06:03Z</time>
      </trkpt>
      <trkpt lat="42.3003740" lon="-8.6081980">
        <ele>38.7</ele>
        <time>2021-05-21T07:06:04Z</time>
      </trkpt>
      <trkpt lat="42.3003850" lon="-8.6081950">
        <ele>38.8</ele>
        <time>2021-05-21T07:06:05Z</time>
      </trkpt>
      <trkpt lat="42.3004050" lon="-8.6081790">
        <ele>40.0</ele>
        <time>2021-05-21T07:06:06Z</time>
      </trkpt>
      <trkpt lat="42.3004120" lon="-8.6081760">
        <ele>40.0</ele>
        <time>2021-05-21T07:06:07Z</time>
      </trkpt>
      <trkpt lat="42.3004200" lon="-8.6081720">
        <ele>40.1</ele>
        <time>2021-05-21T07:06:08Z</time>
      </trkpt>
      <trkpt lat="42.3004420" lon="-8.6081680">
        <ele>40.3</ele>
        <time>2021-05-21T07:06:09Z</time>
      </trkpt>
      <trkpt lat="42.3004520" lon="-8.6081670">
        <ele>40.4</ele>
        <time>2021-05-21T07:06:10Z</time>
      </trkpt>
      <trkpt lat="42.3004630" lon="-8.6081650">
        <ele>40.4</ele>
        <time>2021-05-21T07:06:11Z</time>
      </trkpt>
      <trkpt lat="42.3004890" lon="-8.6081680">
        <ele>40.6</ele>
        <time>2021-05-21T07:06:12Z</time>
      </trkpt>
      <trkpt lat="42.3005000" lon="-8.6081680">
        <ele>40.6</ele>
        <time>2021-05-21T07:06:13Z</time>
      </trkpt>
      <trkpt lat="42.3005150" lon="-8.6081720">
        <ele>40.7</ele>
        <time>2021-05-21T07:06:14Z</time>
      </trkpt>
      <trkpt lat="42.3005210" lon="-8.6081680">
        <ele>40.7</ele>
        <time>2021-05-21T07:06:15Z</time>
      </trkpt>
      <trkpt lat="42.3005300" lon="-8.6081640">
        <ele>40.7</ele>
        <time>2021-05-21T07:06:16Z</time>
      </trkpt>
      <trkpt lat="42.3005350" lon="-8.6081590">
        <ele>40.7</ele>
        <time>2021-05-21T07:06:17Z</time>
      </trkpt>
      <trkpt lat="42.3005390" lon="-8.6081640">
        <ele>40.7</ele>
        <time>2021-05-21T07:06:18Z</time>
      </trkpt>
      <trkpt lat="42.3005560" lon="-8.6081730">
        <ele>40.7</ele>
        <time>2021-05-21T07:06:19Z</time>
      </trkpt>
      <trkpt lat="42.3005610" lon="-8.6081710">
        <ele>40.6</ele>
        <time>2021-05-21T07:06:20Z</time>
      </trkpt>
      <trkpt lat="42.3005750" lon="-8.6081790">
        <ele>40.6</ele>
        <time>2021-05-21T07:06:21Z</time>
      </trkpt>
      <trkpt lat="42.3005830" lon="-8.6081800">
        <ele>40.6</ele>
        <time>2021-05-21T07:06:22Z</time>
      </trkpt>
      <trkpt lat="42.3005900" lon="-8.6081820">
        <ele>40.5</ele>
        <time>2021-05-21T07:06:23Z</time>
      </trkpt>
      <trkpt lat="42.3005970" lon="-8.6081840">
        <ele>40.5</ele>
        <time>2021-05-21T07:06:24Z</time>
      </trkpt>
      <trkpt lat="42.3006000" lon="-8.6081860">
        <ele>40.5</ele>
        <time>2021-05-21T07:06:25Z</time>
      </trkpt>
      <trkpt lat="42.3006100" lon="-8.6081910">
        <ele>40.4</ele>
        <time>2021-05-21T07:06:26Z</time>
      </trkpt>
      <trkpt lat="42.3006300" lon="-8.6081990">
        <ele>40.3</ele>
        <time>2021-05-21T07:06:27Z</time>
      </trkpt>
      <trkpt lat="42.3006330" lon="-8.6082070">
        <ele>40.2</ele>
        <time>2021-05-21T07:06:28Z</time>
      </trkpt>
      <trkpt lat="42.3006450" lon="-8.6082160">
        <ele>40.1</ele>
        <time>2021-05-21T07:06:29Z</time>
      </trkpt>
      <trkpt lat="42.3006470" lon="-8.6082230">
        <ele>40.0</ele>
        <time>2021-05-21T07:06:30Z</time>
      </trkpt>
      <trkpt lat="42.3006610" lon="-8.6082250">
        <ele>39.9</ele>
        <time>2021-05-21T07:06:31Z</time>
      </trkpt>
      <trkpt lat="42.3006710" lon="-8.6082330">
        <ele>39.8</ele>
        <time>2021-05-21T07:06:32Z</time>
      </trkpt>
      <trkpt lat="42.3006760" lon="-8.6082410">
        <ele>39.7</ele>
        <time>2021-05-21T07:06:33Z</time>
      </trkpt>
      <trkpt lat="42.3006880" lon="-8.6082470">
        <ele>39.5</ele>
        <time>2021-05-21T07:06:34Z</time>
      </trkpt>
      <trkpt lat="42.3006910" lon="-8.6082700">
        <ele>39.3</ele>
        <time>2021-05-21T07:06:35Z</time>
      </trkpt>
      <trkpt lat="42.3006980" lon="-8.6082830">
        <ele>39.2</ele>
        <time>2021-05-21T07:06:36Z</time>
      </trkpt>
      <trkpt lat="42.3007080" lon="-8.6082920">
        <ele>39.1</ele>
        <time>2021-05-21T07:06:37Z</time>
      </trkpt>
      <trkpt lat="42.3007240" lon="-8.6082980">
        <ele>38.9</ele>
        <time>2021-05-21T07:06:38Z</time>
      </trkpt>
      <trkpt lat="42.3007380" lon="-8.6083280">
        <ele>38.6</ele>
        <time>2021-05-21T07:06:39Z</time>
      </trkpt>
      <trkpt lat="42.3007450" lon="-8.6083400">
        <ele>38.4</ele>
        <time>2021-05-21T07:06:40Z</time>
      </trkpt>
      <trkpt lat="42.3007470" lon="-8.6083480">
        <ele>38.4</ele>
        <time>2021-05-21T07:06:41Z</time>
      </trkpt>
      <trkpt lat="42.3007550" lon="-8.6083460">
        <ele>38.3</ele>
        <time>2021-05-21T07:06:42Z</time>
      </trkpt>
      <trkpt lat="42.3007700" lon="-8.6083610">
        <ele>38.1</ele>
        <time>2021-05-21T07:06:43Z</time>
      </trkpt>
      <trkpt lat="42.3007930" lon="-8.6083710">
        <ele>37.8</ele>
        <time>2021-05-21T07:06:44Z</time>
      </trkpt>
      <trkpt lat="42.3008060" lon="-8.6083760">
        <ele>37.7</ele>
        <time>2021-05-21T07:06:45Z</time>
      </trkpt>
      <trkpt lat="42.3008180" lon="-8.6083810">
        <ele>37.6</ele>
        <time>2021-05-21T07:06:46Z</time>
      </trkpt>
      <trkpt lat="42.3008310" lon="-8.6083830">
        <ele>37.4</ele>
        <time>2021-05-21T07:06:47Z</time>
      </trkpt>
      <trkpt lat="42.3008460" lon="-8.6083930">
        <ele>37.3</ele>
        <time>2021-05-21T07:06:48Z</time>
      </trkpt>
      <trkpt lat="42.3008570" lon="-8.6083890">
        <ele>37.2</ele>
        <time>2021-05-21T07:06:49Z</time>
      </trkpt>
      <trkpt lat="42.3008700" lon="-8.6083820">
        <ele>37.1</ele>
        <time>2021-05-21T07:06:50Z</time>
      </trkpt>
      <trkpt lat="42.3008770" lon="-8.6083710">
        <ele>37.0</ele>
        <time>2021-05-21T07:06:51Z</time>
      </trkpt>
      <trkpt lat="42.3009010" lon="-8.6083660">
        <ele>36.9</ele>
        <time>2021-05-21T07:06:52Z</time>
      </trkpt>
      <trkpt lat="42.3009090" lon="-8.6083620">
        <ele>36.8</ele>
        <time>2021-05-21T07:06:53Z</time>
      </trkpt>
      <trkpt lat="42.3009160" lon="-8.6083580">
        <ele>36.8</ele>
        <time>2021-05-21T07:06:54Z</time>
      </trkpt>
      <trkpt lat="42.3009270" lon="-8.6083450">
        <ele>36.7</ele>
        <time>2021-05-21T07:06:55Z</time>
      </trkpt>
      <trkpt lat="42.3009390" lon="-8.6083390">
        <ele>36.6</ele>
        <time>2021-05-21T07:06:56Z</time>
      </trkpt>
      <trkpt lat="42.3009450" lon="-8.6083340">
        <ele>36.6</ele>
        <time>2021-05-21T07:06:57Z</time>
      </trkpt>
      <trkpt lat="42.3009550" lon="-8.6083230">
        <ele>36.6</ele>
        <time>2021-05-21T07:06:58Z</time>
      </trkpt>
      <trkpt lat="42.3009750" lon="-8.6083140">
        <ele>36.5</ele>
        <time>2021-05-21T07:06:59Z</time>
      </trkpt>
      <trkpt lat="42.3009850" lon="-8.6083050">
        <ele>36.5</ele>
        <time>2021-05-21T07:07:00Z</time>
      </trkpt>
      <trkpt lat="42.3010000" lon="-8.6082920">
        <ele>36.4</ele>
        <time>2021-05-21T07:07:01Z</time>
      </trkpt>
      <trkpt lat="42.3010200" lon="-8.6082800">
        <ele>36.3</ele>
        <time>2021-05-21T07:07:02Z</time>
      </trkpt>
      <trkpt lat="42.3010260" lon="-8.6082720">
        <ele>36.3</ele>
        <time>2021-05-21T07:07:03Z</time>
      </trkpt>
      <trkpt lat="42.3010330" lon="-8.6082650">
        <ele>36.3</ele>
        <time>2021-05-21T07:07:04Z</time>
      </trkpt>
      <trkpt lat="42.3010440" lon="-8.6082650">
        <ele>36.3</ele>
        <time>2021-05-21T07:07:05Z</time>
      </trkpt>
      <trkpt lat="42.3010540" lon="-8.6082600">
        <ele>36.3</ele>
        <time>2021-05-21T07:07:06Z</time>
      </trkpt>
      <trkpt lat="42.3010680" lon="-8.6082550">
        <ele>36.3</ele>
        <time>2021-05-21T07:07:07Z</time>
      </trkpt>
      <trkpt lat="42.3010820" lon="-8.6082530">
        <ele>36.2</ele>
        <time>2021-05-21T07:07:08Z</time>
      </trkpt>
      <trkpt lat="42.3010970" lon="-8.6082420">
        <ele>36.2</ele>
        <time>2021-05-21T07:07:09Z</time>
      </trkpt>
      <trkpt lat="42.3011070" lon="-8.6082340">
        <ele>36.2</ele>
        <time>2021-05-21T07:07:10Z</time>
      </trkpt>
      <trkpt lat="42.3011160" lon="-8.6082280">
        <ele>36.2</ele>
        <time>2021-05-21T07:07:11Z</time>
      </trkpt>
      <trkpt lat="42.3011260" lon="-8.6082240">
        <ele>36.2</ele>
        <time>2021-05-21T07:07:12Z</time>
      </trkpt>
      <trkpt lat="42.3011460" lon="-8.6082230">
        <ele>36.1</ele>
        <time>2021-05-21T07:07:13Z</time>
      </trkpt>
      <trkpt lat="42.3011540" lon="-8.6082230">
        <ele>36.1</ele>
        <time>2021-05-21T07:07:14Z</time>
      </trkpt>
      <trkpt lat="42.3011630" lon="-8.6082230">
        <ele>36.1</ele>
        <time>2021-05-21T07:07:15Z</time>
      </trkpt>
      <trkpt lat="42.3011780" lon="-8.6082210">
        <ele>36.1</ele>
        <time>2021-05-21T07:07:16Z</time>
      </trkpt>
      <trkpt lat="42.3011950" lon="-8.6082210">
        <ele>36.1</ele>
        <time>2021-05-21T07:07:17Z</time>
      </trkpt>
      <trkpt lat="42.3012140" lon="-8.6082200">
        <ele>36.1</ele>
        <time>2021-05-21T07:07:18Z</time>
      </trkpt>
      <trkpt lat="42.3012230" lon="-8.6082220">
        <ele>36.1</ele>
        <time>2021-05-21T07:07:19Z</time>
      </trkpt>
      <trkpt lat="42.3012330" lon="-8.6082230">
        <ele>36.1</ele>
        <time>2021-05-21T07:07:20Z</time>
      </trkpt>
      <trkpt lat="42.3012440" lon="-8.6082310">
        <ele>36.1</ele>
        <time>2021-05-21T07:07:21Z</time>
      </trkpt>
      <trkpt lat="42.3012530" lon="-8.6082260">
        <ele>36.1</ele>
        <time>2021-05-21T07:07:22Z</time>
      </trkpt>
      <trkpt lat="42.3012650" lon="-8.6082280">
        <ele>36.1</ele>
        <time>2021-05-21T07:07:23Z</time>
      </trkpt>
      <trkpt lat="42.3012830" lon="-8.6082310">
        <ele>36.1</ele>
        <time>2021-05-21T07:07:24Z</time>
      </trkpt>
      <trkpt lat="42.3012920" lon="-8.6082340">
        <ele>36.1</ele>
        <time>2021-05-21T07:07:25Z</time>
      </trkpt>
      <trkpt lat="42.3013010" lon="-8.6082380">
        <ele>36.1</ele>
        <time>2021-05-21T07:07:26Z</time>
      </trkpt>
      <trkpt lat="42.3013070" lon="-8.6082390">
        <ele>36.1</ele>
        <time>2021-05-21T07:07:27Z</time>
      </trkpt>
      <trkpt lat="42.3013180" lon="-8.6082390">
        <ele>36.1</ele>
        <time>2021-05-21T07:07:28Z</time>
      </trkpt>
      <trkpt lat="42.3013290" lon="-8.6082440">
        <ele>36.1</ele>
        <time>2021-05-21T07:07:29Z</time>
      </trkpt>
      <trkpt lat="42.3013440" lon="-8.6082480">
        <ele>36.1</ele>
        <time>2021-05-21T07:07:30Z</time>
      </trkpt>
      <trkpt lat="42.3013550" lon="-8.6082530">
        <ele>36.1</ele>
        <time>2021-05-21T07:07:31Z</time>
      </trkpt>
      <trkpt lat="42.3013650" lon="-8.6082580">
        <ele>36.1</ele>
        <time>2021-05-21T07:07:32Z</time>
      </trkpt>
      <trkpt lat="42.3013810" lon="-8.6082560">
        <ele>36.1</ele>
        <time>2021-05-21T07:07:33Z</time>
      </trkpt>
      <trkpt lat="42.3013910" lon="-8.6082560">
        <ele>36.1</ele>
        <time>2021-05-21T07:07:34Z</time>
      </trkpt>
      <trkpt lat="42.3014020" lon="-8.6082570">
        <ele>36.1</ele>
        <time>2021-05-21T07:07:35Z</time>
      </trkpt>
      <trkpt lat="42.3014120" lon="-8.6082550">
        <ele>36.1</ele>
        <time>2021-05-21T07:07:36Z</time>
      </trkpt>
      <trkpt lat="42.3014210" lon="-8.6082460">
        <ele>36.2</ele>
        <time>2021-05-21T07:07:37Z</time>
      </trkpt>
      <trkpt lat="42.3014290" lon="-8.6082440">
        <ele>36.2</ele>
        <time>2021-05-21T07:07:38Z</time>
      </trkpt>
      <trkpt lat="42.3014530" lon="-8.6082360">
        <ele>36.2</ele>
        <time>2021-05-21T07:07:39Z</time>
      </trkpt>
      <trkpt lat="42.3014620" lon="-8.6082310">
        <ele>36.2</ele>
        <time>2021-05-21T07:07:40Z</time>
      </trkpt>
      <trkpt lat="42.3014720" lon="-8.6082270">
        <ele>36.2</ele>
        <time>2021-05-21T07:07:41Z</time>
      </trkpt>
      <trkpt lat="42.3014800" lon="-8.6082230">
        <ele>36.2</ele>
        <time>2021-05-21T07:07:42Z</time>
      </trkpt>
      <trkpt lat="42.3014860" lon="-8.6082140">
        <ele>36.3</ele>
        <time>2021-05-21T07:07:43Z</time>
      </trkpt>
      <trkpt lat="42.3014940" lon="-8.6082030">
        <ele>36.3</ele>
        <time>2021-05-21T07:07:44Z</time>
      </trkpt>
      <trkpt lat="42.3015080" lon="-8.6082000">
        <ele>36.3</ele>
        <time>2021-05-21T07:07:45Z</time>
      </trkpt>
      <trkpt lat="42.3015230" lon="-8.6081960">
        <ele>36.4</ele>
        <time>2021-05-21T07:07:46Z</time>
      </trkpt>
      <trkpt lat="42.3015410" lon="-8.6081850">
        <ele>36.4</ele>
        <time>2021-05-21T07:07:47Z</time>
      </trkpt>
      <trkpt lat="42.3015530" lon="-8.6081750">
        <ele>36.4</ele>
        <time>2021-05-21T07:07:48Z</time>
      </trkpt>
      <trkpt lat="42.3015620" lon="-8.6081730">
        <ele>36.5</ele>
        <time>2021-05-21T07:07:49Z</time>
      </trkpt>
      <trkpt lat="42.3015790" lon="-8.6081650">
        <ele>36.5</ele>
        <time>2021-05-21T07:07:50Z</time>
      </trkpt>
      <trkpt lat="42.3015850" lon="-8.6081630">
        <ele>36.5</ele>
        <time>2021-05-21T07:07:51Z</time>
      </trkpt>
      <trkpt lat="42.3016000" lon="-8.6081550">
        <ele>36.6</ele>
        <time>2021-05-21T07:07:52Z</time>
      </trkpt>
      <trkpt lat="42.3016110" lon="-8.6081490">
        <ele>36.6</ele>
        <time>2021-05-21T07:07:53Z</time>
      </trkpt>
      <trkpt lat="42.3016250" lon="-8.6081340">
        <ele>36.7</ele>
        <time>2021-05-21T07:07:54Z</time>
      </trkpt>
      <trkpt lat="42.3016360" lon="-8.6081290">
        <ele>36.8</ele>
        <time>2021-05-21T07:07:55Z</time>
      </trkpt>
      <trkpt lat="42.3016400" lon="-8.6081260">
        <ele>36.8</ele>
        <time>2021-05-21T07:07:56Z</time>
      </trkpt>
      <trkpt lat="42.3016480" lon="-8.6081270">
        <ele>36.8</ele>
        <time>2021-05-21T07:07:57Z</time>
      </trkpt>
      <trkpt lat="42.3016600" lon="-8.6081120">
        <ele>36.9</ele>
        <time>2021-05-21T07:07:58Z</time>
      </trkpt>
      <trkpt lat="42.3016640" lon="-8.6081100">
        <ele>36.9</ele>
        <time>2021-05-21T07:07:59Z</time>
      </trkpt>
      <trkpt lat="42.3016670" lon="-8.6081040">
        <ele>36.9</ele>
        <time>2021-05-21T07:08:00Z</time>
      </trkpt>
      <trkpt lat="42.3016760" lon="-8.6080970">
        <ele>37.0</ele>
        <time>2021-05-21T07:08:01Z</time>
      </trkpt>
      <trkpt lat="42.3016850" lon="-8.6080880">
        <ele>37.0</ele>
        <time>2021-05-21T07:08:02Z</time>
      </trkpt>
      <trkpt lat="42.3016940" lon="-8.6080830">
        <ele>37.1</ele>
        <time>2021-05-21T07:08:03Z</time>
      </trkpt>
      <trkpt lat="42.3017020" lon="-8.6080790">
        <ele>37.1</ele>
        <time>2021-05-21T07:08:04Z</time>
      </trkpt>
      <trkpt lat="42.3017070" lon="-8.6080790">
        <ele>37.1</ele>
        <time>2021-05-21T07:08:05Z</time>
      </trkpt>
      <trkpt lat="42.3017040" lon="-8.6080620">
        <ele>37.2</ele>
        <time>2021-05-21T07:08:06Z</time>
      </trkpt>
      <trkpt lat="42.3017070" lon="-8.6080510">
        <ele>37.2</ele>
        <time>2021-05-21T07:08:07Z</time>
      </trkpt>
      <trkpt lat="42.3017190" lon="-8.6080390">
        <ele>37.3</ele>
        <time>2021-05-21T07:08:08Z</time>
      </trkpt>
      <trkpt lat="42.3017250" lon="-8.6080350">
        <ele>37.3</ele>
        <time>2021-05-21T07:08:09Z</time>
      </trkpt>
      <trkpt lat="42.3017300" lon="-8.6080320">
        <ele>37.4</ele>
        <time>2021-05-21T07:08:10Z</time>
      </trkpt>
      <trkpt lat="42.3017360" lon="-8.6080280">
        <ele>37.4</ele>
        <time>2021-05-21T07:08:11Z</time>
      </trkpt>
      <trkpt lat="42.3017420" lon="-8.6080250">
        <ele>37.4</ele>
        <time>2021-05-21T07:08:12Z</time>
      </trkpt>
      <trkpt lat="42.3017650" lon="-8.6080160">
        <ele>37.5</ele>
        <time>2021-05-21T07:08:13Z</time>
      </trkpt>
      <trkpt lat="42.3017760" lon="-8.6080100">
        <ele>37.6</ele>
        <time>2021-05-21T07:08:14Z</time>
      </trkpt>
      <trkpt lat="42.3017870" lon="-8.6080030">
        <ele>37.6</ele>
        <time>2021-05-21T07:08:15Z</time>
      </trkpt>
      <trkpt lat="42.3017960" lon="-8.6079930">
        <ele>37.7</ele>
        <time>2021-05-21T07:08:16Z</time>
      </trkpt>
      <trkpt lat="42.3018020" lon="-8.6079820">
        <ele>37.7</ele>
        <time>2021-05-21T07:08:17Z</time>
      </trkpt>
      <trkpt lat="42.3018110" lon="-8.6079720">
        <ele>37.8</ele>
        <time>2021-05-21T07:08:18Z</time>
      </trkpt>
      <trkpt lat="42.3018370" lon="-8.6079740">
        <ele>37.9</ele>
        <time>2021-05-21T07:08:19Z</time>
      </trkpt>
      <trkpt lat="42.3018480" lon="-8.6079770">
        <ele>37.9</ele>
        <time>2021-05-21T07:08:20Z</time>
      </trkpt>
      <trkpt lat="42.3018740" lon="-8.6079740">
        <ele>38.0</ele>
        <time>2021-05-21T07:08:21Z</time>
      </trkpt>
      <trkpt lat="42.3018820" lon="-8.6079710">
        <ele>38.1</ele>
        <time>2021-05-21T07:08:22Z</time>
      </trkpt>
      <trkpt lat="42.3018890" lon="-8.6079670">
        <ele>38.1</ele>
        <time>2021-05-21T07:08:23Z</time>
      </trkpt>
      <trkpt lat="42.3019050" lon="-8.6079640">
        <ele>38.1</ele>
        <time>2021-05-21T07:08:24Z</time>
      </trkpt>
      <trkpt lat="42.3019150" lon="-8.6079540">
        <ele>38.2</ele>
        <time>2021-05-21T07:08:25Z</time>
      </trkpt>
      <trkpt lat="42.3019320" lon="-8.6079480">
        <ele>38.2</ele>
        <time>2021-05-21T07:08:26Z</time>
      </trkpt>
      <trkpt lat="42.3019460" lon="-8.6079470">
        <ele>38.3</ele>
        <time>2021-05-21T07:08:27Z</time>
      </trkpt>
      <trkpt lat="42.3019550" lon="-8.6079390">
        <ele>38.3</ele>
        <time>2021-05-21T07:08:28Z</time>
      </trkpt>
      <trkpt lat="42.3019740" lon="-8.6079320">
        <ele>38.4</ele>
        <time>2021-05-21T07:08:29Z</time>
      </trkpt>
      <trkpt lat="42.3019950" lon="-8.6079220">
        <ele>38.5</ele>
        <time>2021-05-21T07:08:30Z</time>
      </trkpt>
      <trkpt lat="42.3020030" lon="-8.6079190">
        <ele>38.5</ele>
        <time>2021-05-21T07:08:31Z</time>
      </trkpt>
      <trkpt lat="42.3020100" lon="-8.6079160">
        <ele>38.5</ele>
        <time>2021-05-21T07:08:32Z</time>
      </trkpt>
      <trkpt lat="42.3020200" lon="-8.6079080">
        <ele>38.6</ele>
        <time>2021-05-21T07:08:33Z</time>
      </trkpt>
      <trkpt lat="42.3020140" lon="-8.6079070">
        <ele>38.6</ele>
        <time>2021-05-21T07:08:34Z</time>
      </trkpt>
      <trkpt lat="42.3020330" lon="-8.6078980">
        <ele>38.6</ele>
        <time>2021-05-21T07:08:35Z</time>
      </trkpt>
      <trkpt lat="42.3020450" lon="-8.6078900">
        <ele>38.7</ele>
        <time>2021-05-21T07:08:36Z</time>
      </trkpt>
      <trkpt lat="42.3020550" lon="-8.6078780">
        <ele>38.7</ele>
        <time>2021-05-21T07:08:37Z</time>
      </trkpt>
      <trkpt lat="42.3020540" lon="-8.6078650">
        <ele>38.8</ele>
        <time>2021-05-21T07:08:38Z</time>
      </trkpt>
      <trkpt lat="42.3020640" lon="-8.6078530">
        <ele>38.8</ele>
        <time>2021-05-21T07:08:39Z</time>
      </trkpt>
      <trkpt lat="42.3020770" lon="-8.6078410">
        <ele>38.9</ele>
        <time>2021-05-21T07:08:40Z</time>
      </trkpt>
      <trkpt lat="42.3020920" lon="-8.6078270">
        <ele>39.0</ele>
        <time>2021-05-21T07:08:41Z</time>
      </trkpt>
      <trkpt lat="42.3021030" lon="-8.6078190">
        <ele>39.1</ele>
        <time>2021-05-21T07:08:42Z</time>
      </trkpt>
      <trkpt lat="42.3021150" lon="-8.6078100">
        <ele>39.1</ele>
        <time>2021-05-21T07:08:43Z</time>
      </trkpt>
      <trkpt lat="42.3021290" lon="-8.6077900">
        <ele>39.3</ele>
        <time>2021-05-21T07:08:44Z</time>
      </trkpt>
      <trkpt lat="42.3021340" lon="-8.6077800">
        <ele>39.3</ele>
        <time>2021-05-21T07:08:45Z</time>
      </trkpt>
      <trkpt lat="42.3021400" lon="-8.6077700">
        <ele>39.4</ele>
        <time>2021-05-21T07:08:46Z</time>
      </trkpt>
      <trkpt lat="42.3021560" lon="-8.6077460">
        <ele>39.5</ele>
        <time>2021-05-21T07:08:47Z</time>
      </trkpt>
      <trkpt lat="42.3021620" lon="-8.6077400">
        <ele>39.6</ele>
        <time>2021-05-21T07:08:48Z</time>
      </trkpt>
      <trkpt lat="42.3021680" lon="-8.6077350">
        <ele>39.6</ele>
        <time>2021-05-21T07:08:49Z</time>
      </trkpt>
      <trkpt lat="42.3021800" lon="-8.6077260">
        <ele>39.7</ele>
        <time>2021-05-21T07:08:50Z</time>
      </trkpt>
      <trkpt lat="42.3021900" lon="-8.6077120">
        <ele>39.8</ele>
        <time>2021-05-21T07:08:51Z</time>
      </trkpt>
      <trkpt lat="42.3022070" lon="-8.6077020">
        <ele>39.9</ele>
        <time>2021-05-21T07:08:52Z</time>
      </trkpt>
      <trkpt lat="42.3022180" lon="-8.6076970">
        <ele>40.0</ele>
        <time>2021-05-21T07:08:53Z</time>
      </trkpt>
      <trkpt lat="42.3022390" lon="-8.6076790">
        <ele>40.2</ele>
        <time>2021-05-21T07:08:54Z</time>
      </trkpt>
      <trkpt lat="42.3022470" lon="-8.6076700">
        <ele>40.2</ele>
        <time>2021-05-21T07:08:55Z</time>
      </trkpt>
      <trkpt lat="42.3022560" lon="-8.6076600">
        <ele>40.3</ele>
        <time>2021-05-21T07:08:56Z</time>
      </trkpt>
      <trkpt lat="42.3022620" lon="-8.6076510">
        <ele>40.4</ele>
        <time>2021-05-21T07:08:57Z</time>
      </trkpt>
      <trkpt lat="42.3022600" lon="-8.6076480">
        <ele>40.4</ele>
        <time>2021-05-21T07:08:58Z</time>
      </trkpt>
      <trkpt lat="42.3022800" lon="-8.6076420">
        <ele>40.5</ele>
        <time>2021-05-21T07:08:59Z</time>
      </trkpt>
      <trkpt lat="42.3022930" lon="-8.6076250">
        <ele>40.6</ele>
        <time>2021-05-21T07:09:00Z</time>
      </trkpt>
      <trkpt lat="42.3022950" lon="-8.6076100">
        <ele>40.7</ele>
        <time>2021-05-21T07:09:01Z</time>
      </trkpt>
      <trkpt lat="42.3022910" lon="-8.6076050">
        <ele>40.7</ele>
        <time>2021-05-21T07:09:02Z</time>
      </trkpt>
      <trkpt lat="42.3022990" lon="-8.6075930">
        <ele>40.8</ele>
        <time>2021-05-21T07:09:03Z</time>
      </trkpt>
      <trkpt lat="42.3023020" lon="-8.6075850">
        <ele>40.8</ele>
        <time>2021-05-21T07:09:04Z</time>
      </trkpt>
      <trkpt lat="42.3023050" lon="-8.6075770">
        <ele>40.9</ele>
        <time>2021-05-21T07:09:05Z</time>
      </trkpt>
      <trkpt lat="42.3023080" lon="-8.6075720">
        <ele>40.9</ele>
        <time>2021-05-21T07:09:06Z</time>
      </trkpt>
      <trkpt lat="42.3023220" lon="-8.6075570">
        <ele>41.0</ele>
        <time>2021-05-21T07:09:07Z</time>
      </trkpt>
      <trkpt lat="42.3023310" lon="-8.6075440">
        <ele>41.1</ele>
        <time>2021-05-21T07:09:08Z</time>
      </trkpt>
      <trkpt lat="42.3023400" lon="-8.6075320">
        <ele>41.1</ele>
        <time>2021-05-21T07:09:09Z</time>
      </trkpt>
      <trkpt lat="42.3023540" lon="-8.6075150">
        <ele>41.2</ele>
        <time>2021-05-21T07:09:10Z</time>
      </trkpt>
      <trkpt lat="42.3023660" lon="-8.6075090">
        <ele>41.3</ele>
        <time>2021-05-21T07:09:11Z</time>
      </trkpt>
      <trkpt lat="42.3023780" lon="-8.6075020">
        <ele>41.4</ele>
        <time>2021-05-21T07:09:12Z</time>
      </trkpt>
      <trkpt lat="42.3023940" lon="-8.6074830">
        <ele>41.5</ele>
        <time>2021-05-21T07:09:13Z</time>
      </trkpt>
      <trkpt lat="42.3023990" lon="-8.6074750">
        <ele>41.5</ele>
        <time>2021-05-21T07:09:14Z</time>
      </trkpt>
      <trkpt lat="42.3024040" lon="-8.6074680">
        <ele>41.5</ele>
        <time>2021-05-21T07:09:15Z</time>
      </trkpt>
      <trkpt lat="42.3024100" lon="-8.6074560">
        <ele>41.6</ele>
        <time>2021-05-21T07:09:16Z</time>
      </trkpt>
      <trkpt lat="42.3024200" lon="-8.6074420">
        <ele>41.7</ele>
        <time>2021-05-21T07:09:17Z</time>
      </trkpt>
      <trkpt lat="42.3024310" lon="-8.6074370">
        <ele>41.7</ele>
        <time>2021-05-21T07:09:18Z</time>
      </trkpt>
      <trkpt lat="42.3024390" lon="-8.6074160">
        <ele>41.8</ele>
        <time>2021-05-21T07:09:19Z</time>
      </trkpt>
      <trkpt lat="42.3024470" lon="-8.6074070">
        <ele>41.8</ele>
        <time>2021-05-21T07:09:20Z</time>
      </trkpt>
      <trkpt lat="42.3024540" lon="-8.6073970">
        <ele>41.9</ele>
        <time>2021-05-21T07:09:21Z</time>
      </trkpt>
      <trkpt lat="42.3024640" lon="-8.6073810">
        <ele>41.9</ele>
        <time>2021-05-21T07:09:22Z</time>
      </trkpt>
      <trkpt lat="42.3024800" lon="-8.6073630">
        <ele>42.0</ele>
        <time>2021-05-21T07:09:23Z</time>
      </trkpt>
      <trkpt lat="42.3025030" lon="-8.6073510">
        <ele>42.1</ele>
        <time>2021-05-21T07:09:24Z</time>
      </trkpt>
      <trkpt lat="42.3025110" lon="-8.6073480">
        <ele>42.2</ele>
        <time>2021-05-21T07:09:25Z</time>
      </trkpt>
      <trkpt lat="42.3025190" lon="-8.6073440">
        <ele>42.2</ele>
        <time>2021-05-21T07:09:26Z</time>
      </trkpt>
      <trkpt lat="42.3025510" lon="-8.6073390">
        <ele>42.3</ele>
        <time>2021-05-21T07:09:27Z</time>
      </trkpt>
      <trkpt lat="42.3025580" lon="-8.6073370">
        <ele>42.4</ele>
        <time>2021-05-21T07:09:28Z</time>
      </trkpt>
      <trkpt lat="42.3025720" lon="-8.6073240">
        <ele>42.4</ele>
        <time>2021-05-21T07:09:29Z</time>
      </trkpt>
      <trkpt lat="42.3025840" lon="-8.6073170">
        <ele>42.5</ele>
        <time>2021-05-21T07:09:30Z</time>
      </trkpt>
      <trkpt lat="42.3025990" lon="-8.6073000">
        <ele>42.5</ele>
        <time>2021-05-21T07:09:31Z</time>
      </trkpt>
      <trkpt lat="42.3026050" lon="-8.6072910">
        <ele>42.6</ele>
        <time>2021-05-21T07:09:32Z</time>
      </trkpt>
      <trkpt lat="42.3026110" lon="-8.6072830">
        <ele>42.6</ele>
        <time>2021-05-21T07:09:33Z</time>
      </trkpt>
      <trkpt lat="42.3026260" lon="-8.6072710">
        <ele>42.7</ele>
        <time>2021-05-21T07:09:34Z</time>
      </trkpt>
      <trkpt lat="42.3026330" lon="-8.6072500">
        <ele>42.7</ele>
        <time>2021-05-21T07:09:35Z</time>
      </trkpt>
      <trkpt lat="42.3026510" lon="-8.6072380">
        <ele>42.8</ele>
        <time>2021-05-21T07:09:36Z</time>
      </trkpt>
      <trkpt lat="42.3026560" lon="-8.6072250">
        <ele>42.8</ele>
        <time>2021-05-21T07:09:37Z</time>
      </trkpt>
      <trkpt lat="42.3026690" lon="-8.6072070">
        <ele>42.9</ele>
        <time>2021-05-21T07:09:38Z</time>
      </trkpt>
      <trkpt lat="42.3026770" lon="-8.6071970">
        <ele>42.9</ele>
        <time>2021-05-21T07:09:39Z</time>
      </trkpt>
      <trkpt lat="42.3026840" lon="-8.6071870">
        <ele>43.0</ele>
        <time>2021-05-21T07:09:40Z</time>
      </trkpt>
      <trkpt lat="42.3027040" lon="-8.6071710">
        <ele>43.1</ele>
        <time>2021-05-21T07:09:41Z</time>
      </trkpt>
      <trkpt lat="42.3027110" lon="-8.6071580">
        <ele>43.1</ele>
        <time>2021-05-21T07:09:42Z</time>
      </trkpt>
      <trkpt lat="42.3027230" lon="-8.6071420">
        <ele>43.2</ele>
        <time>2021-05-21T07:09:43Z</time>
      </trkpt>
      <trkpt lat="42.3027310" lon="-8.6071280">
        <ele>43.2</ele>
        <time>2021-05-21T07:09:44Z</time>
      </trkpt>
      <trkpt lat="42.3027260" lon="-8.6071120">
        <ele>43.3</ele>
        <time>2021-05-21T07:09:45Z</time>
      </trkpt>
      <trkpt lat="42.3027410" lon="-8.6070890">
        <ele>43.3</ele>
        <time>2021-05-21T07:09:46Z</time>
      </trkpt>
      <trkpt lat="42.3027500" lon="-8.6070750">
        <ele>43.4</ele>
        <time>2021-05-21T07:09:47Z</time>
      </trkpt>
      <trkpt lat="42.3027650" lon="-8.6070640">
        <ele>43.4</ele>
        <time>2021-05-21T07:09:48Z</time>
      </trkpt>
      <trkpt lat="42.3027790" lon="-8.6070500">
        <ele>43.5</ele>
        <time>2021-05-21T07:09:49Z</time>
      </trkpt>
      <trkpt lat="42.3027820" lon="-8.6070440">
        <ele>43.5</ele>
        <time>2021-05-21T07:09:50Z</time>
      </trkpt>
      <trkpt lat="42.3027880" lon="-8.6070370">
        <ele>43.5</ele>
        <time>2021-05-21T07:09:51Z</time>
      </trkpt>
      <trkpt lat="42.3028010" lon="-8.6070250">
        <ele>43.6</ele>
        <time>2021-05-21T07:09:52Z</time>
      </trkpt>
      <trkpt lat="42.3028180" lon="-8.6070160">
        <ele>43.6</ele>
        <time>2021-05-21T07:09:53Z</time>
      </trkpt>
      <trkpt lat="42.3028360" lon="-8.6070080">
        <ele>43.7</ele>
        <time>2021-05-21T07:09:54Z</time>
      </trkpt>
      <trkpt lat="42.3028440" lon="-8.6070020">
        <ele>43.7</ele>
        <time>2021-05-21T07:09:55Z</time>
      </trkpt>
      <trkpt lat="42.3028520" lon="-8.6069970">
        <ele>43.7</ele>
        <time>2021-05-21T07:09:56Z</time>
      </trkpt>
      <trkpt lat="42.3028620" lon="-8.6069890">
        <ele>43.8</ele>
        <time>2021-05-21T07:09:57Z</time>
      </trkpt>
      <trkpt lat="42.3028750" lon="-8.6069800">
        <ele>43.8</ele>
        <time>2021-05-21T07:09:58Z</time>
      </trkpt>
      <trkpt lat="42.3028820" lon="-8.6069700">
        <ele>43.9</ele>
        <time>2021-05-21T07:09:59Z</time>
      </trkpt>
      <trkpt lat="42.3029110" lon="-8.6069530">
        <ele>43.9</ele>
        <time>2021-05-21T07:10:00Z</time>
      </trkpt>
      <trkpt lat="42.3029210" lon="-8.6069460">
        <ele>44.0</ele>
        <time>2021-05-21T07:10:01Z</time>
      </trkpt>
      <trkpt lat="42.3029270" lon="-8.6069350">
        <ele>44.0</ele>
        <time>2021-05-21T07:10:02Z</time>
      </trkpt>
      <trkpt lat="42.3029370" lon="-8.6069260">
        <ele>44.0</ele>
        <time>2021-05-21T07:10:03Z</time>
      </trkpt>
      <trkpt lat="42.3029470" lon="-8.6069180">
        <ele>44.1</ele>
        <time>2021-05-21T07:10:04Z</time>
      </trkpt>
      <trkpt lat="42.3029590" lon="-8.6069030">
        <ele>44.1</ele>
        <time>2021-05-21T07:10:05Z</time>
      </trkpt>
      <trkpt lat="42.3029760" lon="-8.6068900">
        <ele>44.2</ele>
        <time>2021-05-21T07:10:06Z</time>
      </trkpt>
      <trkpt lat="42.3029940" lon="-8.6068720">
        <ele>44.3</ele>
        <time>2021-05-21T07:10:07Z</time>
      </trkpt>
      <trkpt lat="42.3030010" lon="-8.6068630">
        <ele>44.3</ele>
        <time>2021-05-21T07:10:08Z</time>
      </trkpt>
      <trkpt lat="42.3030070" lon="-8.6068550">
        <ele>44.3</ele>
        <time>2021-05-21T07:10:09Z</time>
      </trkpt>
      <trkpt lat="42.3030200" lon="-8.6068550">
        <ele>44.4</ele>
        <time>2021-05-21T07:10:10Z</time>
      </trkpt>
      <trkpt lat="42.3030340" lon="-8.6068390">
        <ele>44.4</ele>
        <time>2021-05-21T07:10:11Z</time>
      </trkpt>
      <trkpt lat="42.3030390" lon="-8.6068330">
        <ele>44.4</ele>
        <time>2021-05-21T07:10:12Z</time>
      </trkpt>
      <trkpt lat="42.3030480" lon="-8.6068170">
        <ele>44.5</ele>
        <time>2021-05-21T07:10:13Z</time>
      </trkpt>
      <trkpt lat="42.3030490" lon="-8.6068080">
        <ele>44.5</ele>
        <time>2021-05-21T07:10:14Z</time>
      </trkpt>
      <trkpt lat="42.3030640" lon="-8.6067930">
        <ele>44.5</ele>
        <time>2021-05-21T07:10:15Z</time>
      </trkpt>
      <trkpt lat="42.3030760" lon="-8.6067860">
        <ele>44.6</ele>
        <time>2021-05-21T07:10:16Z</time>
      </trkpt>
      <trkpt lat="42.3030880" lon="-8.6067780">
        <ele>44.6</ele>
        <time>2021-05-21T07:10:17Z</time>
      </trkpt>
      <trkpt lat="42.3030950" lon="-8.6067740">
        <ele>44.6</ele>
        <time>2021-05-21T07:10:18Z</time>
      </trkpt>
      <trkpt lat="42.3031010" lon="-8.6067630">
        <ele>44.7</ele>
        <time>2021-05-21T07:10:19Z</time>
      </trkpt>
      <trkpt lat="42.3031040" lon="-8.6067470">
        <ele>44.7</ele>
        <time>2021-05-21T07:10:20Z</time>
      </trkpt>
      <trkpt lat="42.3031080" lon="-8.6067440">
        <ele>44.7</ele>
        <time>2021-05-21T07:10:21Z</time>
      </trkpt>
      <trkpt lat="42.3031110" lon="-8.6067430">
        <ele>44.7</ele>
        <time>2021-05-21T07:10:22Z</time>
      </trkpt>
      <trkpt lat="42.3031250" lon="-8.6067280">
        <ele>44.8</ele>
        <time>2021-05-21T07:10:23Z</time>
      </trkpt>
      <trkpt lat="42.3031370" lon="-8.6067080">
        <ele>44.8</ele>
        <time>2021-05-21T07:10:24Z</time>
      </trkpt>
      <trkpt lat="42.3031440" lon="-8.6066980">
        <ele>44.8</ele>
        <time>2021-05-21T07:10:25Z</time>
      </trkpt>
      <trkpt lat="42.3031520" lon="-8.6066880">
        <ele>44.9</ele>
        <time>2021-05-21T07:10:26Z</time>
      </trkpt>
      <trkpt lat="42.3031550" lon="-8.6066750">
        <ele>44.9</ele>
        <time>2021-05-21T07:10:27Z</time>
      </trkpt>
      <trkpt lat="42.3031640" lon="-8.6066680">
        <ele>44.9</ele>
        <time>2021-05-21T07:10:28Z</time>
      </trkpt>
      <trkpt lat="42.3031720" lon="-8.6066560">
        <ele>45.0</ele>
        <time>2021-05-21T07:10:29Z</time>
      </trkpt>
      <trkpt lat="42.3031840" lon="-8.6066380">
        <ele>45.0</ele>
        <time>2021-05-21T07:10:30Z</time>
      </trkpt>
      <trkpt lat="42.3031900" lon="-8.6066290">
        <ele>45.1</ele>
        <time>2021-05-21T07:10:31Z</time>
      </trkpt>
      <trkpt lat="42.3031950" lon="-8.6066190">
        <ele>45.1</ele>
        <time>2021-05-21T07:10:32Z</time>
      </trkpt>
      <trkpt lat="42.3032050" lon="-8.6065960">
        <ele>45.1</ele>
        <time>2021-05-21T07:10:33Z</time>
      </trkpt>
      <trkpt lat="42.3032150" lon="-8.6065870">
        <ele>45.2</ele>
        <time>2021-05-21T07:10:34Z</time>
      </trkpt>
      <trkpt lat="42.3032240" lon="-8.6065780">
        <ele>45.2</ele>
        <time>2021-05-21T07:10:35Z</time>
      </trkpt>
      <trkpt lat="42.3032290" lon="-8.6065730">
        <ele>45.2</ele>
        <time>2021-05-21T07:10:36Z</time>
      </trkpt>
      <trkpt lat="42.3032400" lon="-8.6065610">
        <ele>45.3</ele>
        <time>2021-05-21T07:10:37Z</time>
      </trkpt>
      <trkpt lat="42.3032520" lon="-8.6065490">
        <ele>45.4</ele>
        <time>2021-05-21T07:10:38Z</time>
      </trkpt>
      <trkpt lat="42.3032710" lon="-8.6065360">
        <ele>45.4</ele>
        <time>2021-05-21T07:10:39Z</time>
      </trkpt>
      <trkpt lat="42.3032780" lon="-8.6065300">
        <ele>45.5</ele>
        <time>2021-05-21T07:10:40Z</time>
      </trkpt>
      <trkpt lat="42.3032860" lon="-8.6065250">
        <ele>45.5</ele>
        <time>2021-05-21T07:10:41Z</time>
      </trkpt>
      <trkpt lat="42.3032950" lon="-8.6065120">
        <ele>45.6</ele>
        <time>2021-05-21T07:10:42Z</time>
      </trkpt>
      <trkpt lat="42.3033040" lon="-8.6064930">
        <ele>45.6</ele>
        <time>2021-05-21T07:10:43Z</time>
      </trkpt>
      <trkpt lat="42.3033140" lon="-8.6064850">
        <ele>45.7</ele>
        <time>2021-05-21T07:10:44Z</time>
      </trkpt>
      <trkpt lat="42.3033090" lon="-8.6064770">
        <ele>45.7</ele>
        <time>2021-05-21T07:10:45Z</time>
      </trkpt>
      <trkpt lat="42.3033150" lon="-8.6064630">
        <ele>45.8</ele>
        <time>2021-05-21T07:10:46Z</time>
      </trkpt>
      <trkpt lat="42.3033180" lon="-8.6064610">
        <ele>45.8</ele>
        <time>2021-05-21T07:10:47Z</time>
      </trkpt>
      <trkpt lat="42.3033250" lon="-8.6064600">
        <ele>45.8</ele>
        <time>2021-05-21T07:10:48Z</time>
      </trkpt>
      <trkpt lat="42.3033340" lon="-8.6064480">
        <ele>45.9</ele>
        <time>2021-05-21T07:10:49Z</time>
      </trkpt>
      <trkpt lat="42.3033340" lon="-8.6064310">
        <ele>45.9</ele>
        <time>2021-05-21T07:10:50Z</time>
      </trkpt>
      <trkpt lat="42.3033520" lon="-8.6064160">
        <ele>46.0</ele>
        <time>2021-05-21T07:10:51Z</time>
      </trkpt>
      <trkpt lat="42.3033540" lon="-8.6063930">
        <ele>46.1</ele>
        <time>2021-05-21T07:10:52Z</time>
      </trkpt>
      <trkpt lat="42.3033710" lon="-8.6063870">
        <ele>46.2</ele>
        <time>2021-05-21T07:10:53Z</time>
      </trkpt>
      <trkpt lat="42.3033790" lon="-8.6063810">
        <ele>46.2</ele>
        <time>2021-05-21T07:10:54Z</time>
      </trkpt>
      <trkpt lat="42.3033840" lon="-8.6063730">
        <ele>46.3</ele>
        <time>2021-05-21T07:10:55Z</time>
      </trkpt>
      <trkpt lat="42.3034000" lon="-8.6063590">
        <ele>46.4</ele>
        <time>2021-05-21T07:10:56Z</time>
      </trkpt>
      <trkpt lat="42.3034080" lon="-8.6063530">
        <ele>46.4</ele>
        <time>2021-05-21T07:10:57Z</time>
      </trkpt>
      <trkpt lat="42.3034170" lon="-8.6063470">
        <ele>46.4</ele>
        <time>2021-05-21T07:10:58Z</time>
      </trkpt>
      <trkpt lat="42.3034280" lon="-8.6063470">
        <ele>46.5</ele>
        <time>2021-05-21T07:10:59Z</time>
      </trkpt>
      <trkpt lat="42.3034330" lon="-8.6063480">
        <ele>46.5</ele>
        <time>2021-05-21T07:11:00Z</time>
      </trkpt>
      <trkpt lat="42.3034440" lon="-8.6063400">
        <ele>46.6</ele>
        <time>2021-05-21T07:11:01Z</time>
      </trkpt>
      <trkpt lat="42.3034540" lon="-8.6063320">
        <ele>46.6</ele>
        <time>2021-05-21T07:11:02Z</time>
      </trkpt>
      <trkpt lat="42.3034590" lon="-8.6063200">
        <ele>46.6</ele>
        <time>2021-05-21T07:11:03Z</time>
      </trkpt>
      <trkpt lat="42.3034660" lon="-8.6063140">
        <ele>46.7</ele>
        <time>2021-05-21T07:11:04Z</time>
      </trkpt>
      <trkpt lat="42.3034800" lon="-8.6063020">
        <ele>46.7</ele>
        <time>2021-05-21T07:11:05Z</time>
      </trkpt>
      <trkpt lat="42.3034920" lon="-8.6062990">
        <ele>46.8</ele>
        <time>2021-05-21T07:11:06Z</time>
      </trkpt>
      <trkpt lat="42.3035030" lon="-8.6062950">
        <ele>46.8</ele>
        <time>2021-05-21T07:11:07Z</time>
      </trkpt>
      <trkpt lat="42.3035220" lon="-8.6062850">
        <ele>46.9</ele>
        <time>2021-05-21T07:11:08Z</time>
      </trkpt>
      <trkpt lat="42.3035340" lon="-8.6062830">
        <ele>46.9</ele>
        <time>2021-05-21T07:11:09Z</time>
      </trkpt>
      <trkpt lat="42.3035470" lon="-8.6062670">
        <ele>47.0</ele>
        <time>2021-05-21T07:11:10Z</time>
      </trkpt>
      <trkpt lat="42.3035570" lon="-8.6062570">
        <ele>47.0</ele>
        <time>2021-05-21T07:11:11Z</time>
      </trkpt>
      <trkpt lat="42.3035700" lon="-8.6062510">
        <ele>47.0</ele>
        <time>2021-05-21T07:11:12Z</time>
      </trkpt>
      <trkpt lat="42.3035820" lon="-8.6062410">
        <ele>47.1</ele>
        <time>2021-05-21T07:11:13Z</time>
      </trkpt>
      <trkpt lat="42.3035960" lon="-8.6062290">
        <ele>47.1</ele>
        <time>2021-05-21T07:11:14Z</time>
      </trkpt>
      <trkpt lat="42.3036060" lon="-8.6062160">
        <ele>47.2</ele>
        <time>2021-05-21T07:11:15Z</time>
      </trkpt>
      <trkpt lat="42.3036130" lon="-8.6062170">
        <ele>47.2</ele>
        <time>2021-05-21T07:11:16Z</time>
      </trkpt>
      <trkpt lat="42.3036140" lon="-8.6062080">
        <ele>47.2</ele>
        <time>2021-05-21T07:11:17Z</time>
      </trkpt>
      <trkpt lat="42.3036300" lon="-8.6062030">
        <ele>47.2</ele>
        <time>2021-05-21T07:11:18Z</time>
      </trkpt>
      <trkpt lat="42.3036380" lon="-8.6062020">
        <ele>47.2</ele>
        <time>2021-05-21T07:11:19Z</time>
      </trkpt>
      <trkpt lat="42.3036420" lon="-8.6061950">
        <ele>47.3</ele>
        <time>2021-05-21T07:11:20Z</time>
      </trkpt>
      <trkpt lat="42.3036570" lon="-8.6061910">
        <ele>47.3</ele>
        <time>2021-05-21T07:11:21Z</time>
      </trkpt>
      <trkpt lat="42.3036640" lon="-8.6061880">
        <ele>47.3</ele>
        <time>2021-05-21T07:11:22Z</time>
      </trkpt>
      <trkpt lat="42.3036800" lon="-8.6061930">
        <ele>47.4</ele>
        <time>2021-05-21T07:11:23Z</time>
      </trkpt>
      <trkpt lat="42.3036960" lon="-8.6061770">
        <ele>47.4</ele>
        <time>2021-05-21T07:11:24Z</time>
      </trkpt>
      <trkpt lat="42.3037170" lon="-8.6061690">
        <ele>47.5</ele>
        <time>2021-05-21T07:11:25Z</time>
      </trkpt>
      <trkpt lat="42.3037270" lon="-8.6061690">
        <ele>47.5</ele>
        <time>2021-05-21T07:11:26Z</time>
      </trkpt>
      <trkpt lat="42.3037380" lon="-8.6061700">
        <ele>47.5</ele>
        <time>2021-05-21T07:11:27Z</time>
      </trkpt>
      <trkpt lat="42.3037500" lon="-8.6061770">
        <ele>47.5</ele>
        <time>2021-05-21T07:11:28Z</time>
      </trkpt>
      <trkpt lat="42.3037600" lon="-8.6061740">
        <ele>47.6</ele>
        <time>2021-05-21T07:11:29Z</time>
      </trkpt>
      <trkpt lat="42.3037700" lon="-8.6061740">
        <ele>47.6</ele>
        <time>2021-05-21T07:11:30Z</time>
      </trkpt>
      <trkpt lat="42.3037900" lon="-8.6061700">
        <ele>47.6</ele>
        <time>2021-05-21T07:11:31Z</time>
      </trkpt>
      <trkpt lat="42.3037990" lon="-8.6061690">
        <ele>47.7</ele>
        <time>2021-05-21T07:11:32Z</time>
      </trkpt>
      <trkpt lat="42.3038070" lon="-8.6061670">
        <ele>47.7</ele>
        <time>2021-05-21T07:11:33Z</time>
      </trkpt>
      <trkpt lat="42.3038250" lon="-8.6061690">
        <ele>47.7</ele>
        <time>2021-05-21T07:11:34Z</time>
      </trkpt>
      <trkpt lat="42.3038340" lon="-8.6061700">
        <ele>47.8</ele>
        <time>2021-05-21T07:11:35Z</time>
      </trkpt>
      <trkpt lat="42.3038440" lon="-8.6061700">
        <ele>47.8</ele>
        <time>2021-05-21T07:11:36Z</time>
      </trkpt>
      <trkpt lat="42.3038610" lon="-8.6061690">
        <ele>47.9</ele>
        <time>2021-05-21T07:11:37Z</time>
      </trkpt>
      <trkpt lat="42.3038750" lon="-8.6061590">
        <ele>47.9</ele>
        <time>2021-05-21T07:11:38Z</time>
      </trkpt>
      <trkpt lat="42.3038850" lon="-8.6061540">
        <ele>47.9</ele>
        <time>2021-05-21T07:11:39Z</time>
      </trkpt>
      <trkpt lat="42.3039040" lon="-8.6061460">
        <ele>48.0</ele>
        <time>2021-05-21T07:11:40Z</time>
      </trkpt>
      <trkpt lat="42.3039120" lon="-8.6061330">
        <ele>48.1</ele>
        <time>2021-05-21T07:11:41Z</time>
      </trkpt>
      <trkpt lat="42.3039240" lon="-8.6061250">
        <ele>48.1</ele>
        <time>2021-05-21T07:11:42Z</time>
      </trkpt>
      <trkpt lat="42.3039370" lon="-8.6061160">
        <ele>48.2</ele>
        <time>2021-05-21T07:11:43Z</time>
      </trkpt>
      <trkpt lat="42.3039530" lon="-8.6061040">
        <ele>48.2</ele>
        <time>2021-05-21T07:11:44Z</time>
      </trkpt>
      <trkpt lat="42.3039540" lon="-8.6060950">
        <ele>48.2</ele>
        <time>2021-05-21T07:11:45Z</time>
      </trkpt>
      <trkpt lat="42.3039560" lon="-8.6060820">
        <ele>48.3</ele>
        <time>2021-05-21T07:11:46Z</time>
      </trkpt>
      <trkpt lat="42.3039650" lon="-8.6060600">
        <ele>48.4</ele>
        <time>2021-05-21T07:11:47Z</time>
      </trkpt>
      <trkpt lat="42.3039700" lon="-8.6060430">
        <ele>48.4</ele>
        <time>2021-05-21T07:11:48Z</time>
      </trkpt>
      <trkpt lat="42.3039840" lon="-8.6060260">
        <ele>48.4</ele>
        <time>2021-05-21T07:11:49Z</time>
      </trkpt>
      <trkpt lat="42.3039870" lon="-8.6060110">
        <ele>48.4</ele>
        <time>2021-05-21T07:11:50Z</time>
      </trkpt>
      <trkpt lat="42.3039910" lon="-8.6059950">
        <ele>48.5</ele>
        <time>2021-05-21T07:11:51Z</time>
      </trkpt>
      <trkpt lat="42.3039980" lon="-8.6059740">
        <ele>48.5</ele>
        <time>2021-05-21T07:11:52Z</time>
      </trkpt>
      <trkpt lat="42.3040030" lon="-8.6059620">
        <ele>48.5</ele>
        <time>2021-05-21T07:11:53Z</time>
      </trkpt>
      <trkpt lat="42.3040050" lon="-8.6059530">
        <ele>48.5</ele>
        <time>2021-05-21T07:11:54Z</time>
      </trkpt>
      <trkpt lat="42.3040180" lon="-8.6059370">
        <ele>48.7</ele>
        <time>2021-05-21T07:11:55Z</time>
      </trkpt>
      <trkpt lat="42.3040230" lon="-8.6059300">
        <ele>48.7</ele>
        <time>2021-05-21T07:11:56Z</time>
      </trkpt>
      <trkpt lat="42.3040330" lon="-8.6059280">
        <ele>48.8</ele>
        <time>2021-05-21T07:11:57Z</time>
      </trkpt>
      <trkpt lat="42.3040510" lon="-8.6059330">
        <ele>48.8</ele>
        <time>2021-05-21T07:11:58Z</time>
      </trkpt>
      <trkpt lat="42.3040540" lon="-8.6059340">
        <ele>48.8</ele>
        <time>2021-05-21T07:11:59Z</time>
      </trkpt>
      <trkpt lat="42.3040710" lon="-8.6059350">
        <ele>48.9</ele>
        <time>2021-05-21T07:12:00Z</time>
      </trkpt>
      <trkpt lat="42.3040810" lon="-8.6059440">
        <ele>49.0</ele>
        <time>2021-05-21T07:12:01Z</time>
      </trkpt>
      <trkpt lat="42.3041080" lon="-8.6059420">
        <ele>49.1</ele>
        <time>2021-05-21T07:12:02Z</time>
      </trkpt>
      <trkpt lat="42.3041150" lon="-8.6059450">
        <ele>49.1</ele>
        <time>2021-05-21T07:12:03Z</time>
      </trkpt>
      <trkpt lat="42.3041220" lon="-8.6059480">
        <ele>49.1</ele>
        <time>2021-05-21T07:12:04Z</time>
      </trkpt>
      <trkpt lat="42.3041340" lon="-8.6059530">
        <ele>49.2</ele>
        <time>2021-05-21T07:12:05Z</time>
      </trkpt>
      <trkpt lat="42.3041450" lon="-8.6059500">
        <ele>49.2</ele>
        <time>2021-05-21T07:12:06Z</time>
      </trkpt>
      <trkpt lat="42.3041550" lon="-8.6059510">
        <ele>49.2</ele>
        <time>2021-05-21T07:12:07Z</time>
      </trkpt>
      <trkpt lat="42.3041600" lon="-8.6059460">
        <ele>49.3</ele>
        <time>2021-05-21T07:12:08Z</time>
      </trkpt>
      <trkpt lat="42.3041770" lon="-8.6059490">
        <ele>49.3</ele>
        <time>2021-05-21T07:12:09Z</time>
      </trkpt>
      <trkpt lat="42.3041860" lon="-8.6059590">
        <ele>49.4</ele>
        <time>2021-05-21T07:12:10Z</time>
      </trkpt>
      <trkpt lat="42.3042050" lon="-8.6059670">
        <ele>49.5</ele>
        <time>2021-05-21T07:12:11Z</time>
      </trkpt>
      <trkpt lat="42.3042050" lon="-8.6059670">
        <ele>49.5</ele>
        <time>2021-05-21T07:12:12Z</time>
      </trkpt>
      <trkpt lat="42.3042180" lon="-8.6059770">
        <ele>49.5</ele>
        <time>2021-05-21T07:12:13Z</time>
      </trkpt>
      <trkpt lat="42.3042310" lon="-8.6059740">
        <ele>49.6</ele>
        <time>2021-05-21T07:12:14Z</time>
      </trkpt>
      <trkpt lat="42.3042490" lon="-8.6059740">
        <ele>49.6</ele>
        <time>2021-05-21T07:12:15Z</time>
      </trkpt>
      <trkpt lat="42.3042550" lon="-8.6059770">
        <ele>49.7</ele>
        <time>2021-05-21T07:12:16Z</time>
      </trkpt>
      <trkpt lat="42.3042670" lon="-8.6059770">
        <ele>49.7</ele>
        <time>2021-05-21T07:12:17Z</time>
      </trkpt>
      <trkpt lat="42.3042830" lon="-8.6059750">
        <ele>49.7</ele>
        <time>2021-05-21T07:12:18Z</time>
      </trkpt>
      <trkpt lat="42.3042980" lon="-8.6059710">
        <ele>49.8</ele>
        <time>2021-05-21T07:12:19Z</time>
      </trkpt>
      <trkpt lat="42.3043150" lon="-8.6059730">
        <ele>49.8</ele>
        <time>2021-05-21T07:12:20Z</time>
      </trkpt>
      <trkpt lat="42.3043300" lon="-8.6059740">
        <ele>49.9</ele>
        <time>2021-05-21T07:12:21Z</time>
      </trkpt>
      <trkpt lat="42.3043390" lon="-8.6059710">
        <ele>49.9</ele>
        <time>2021-05-21T07:12:22Z</time>
      </trkpt>
      <trkpt lat="42.3043510" lon="-8.6059700">
        <ele>50.0</ele>
        <time>2021-05-21T07:12:23Z</time>
      </trkpt>
      <trkpt lat="42.3043610" lon="-8.6059700">
        <ele>50.0</ele>
        <time>2021-05-21T07:12:24Z</time>
      </trkpt>
      <trkpt lat="42.3043730" lon="-8.6059730">
        <ele>50.0</ele>
        <time>2021-05-21T07:12:25Z</time>
      </trkpt>
      <trkpt lat="42.3043820" lon="-8.6059750">
        <ele>50.1</ele>
        <time>2021-05-21T07:12:26Z</time>
      </trkpt>
      <trkpt lat="42.3043860" lon="-8.6059760">
        <ele>50.1</ele>
        <time>2021-05-21T07:12:27Z</time>
      </trkpt>
      <trkpt lat="42.3043930" lon="-8.6059760">
        <ele>50.1</ele>
        <time>2021-05-21T07:12:28Z</time>
      </trkpt>
      <trkpt lat="42.3043990" lon="-8.6059760">
        <ele>50.1</ele>
        <time>2021-05-21T07:12:29Z</time>
      </trkpt>
      <trkpt lat="42.3044060" lon="-8.6059760">
        <ele>50.1</ele>
        <time>2021-05-21T07:12:30Z</time>
      </trkpt>
      <trkpt lat="42.3044130" lon="-8.6059760">
        <ele>50.2</ele>
        <time>2021-05-21T07:12:31Z</time>
      </trkpt>
      <trkpt lat="42.3044200" lon="-8.6059760">
        <ele>50.2</ele>
        <time>2021-05-21T07:12:32Z</time>
      </trkpt>
      <trkpt lat="42.3044520" lon="-8.6059800">
        <ele>50.3</ele>
        <time>2021-05-21T07:12:33Z</time>
      </trkpt>
      <trkpt lat="42.3044620" lon="-8.6059810">
        <ele>50.3</ele>
        <time>2021-05-21T07:12:34Z</time>
      </trkpt>
      <trkpt lat="42.3044610" lon="-8.6059760">
        <ele>50.3</ele>
        <time>2021-05-21T07:12:35Z</time>
      </trkpt>
      <trkpt lat="42.3044730" lon="-8.6059730">
        <ele>50.4</ele>
        <time>2021-05-21T07:12:36Z</time>
      </trkpt>
      <trkpt lat="42.3044800" lon="-8.6059740">
        <ele>50.4</ele>
        <time>2021-05-21T07:12:37Z</time>
      </trkpt>
      <trkpt lat="42.3044910" lon="-8.6059770">
        <ele>50.4</ele>
        <time>2021-05-21T07:12:38Z</time>
      </trkpt>
      <trkpt lat="42.3044970" lon="-8.6059820">
        <ele>50.5</ele>
        <time>2021-05-21T07:12:39Z</time>
      </trkpt>
      <trkpt lat="42.3045130" lon="-8.6059820">
        <ele>50.5</ele>
        <time>2021-05-21T07:12:40Z</time>
      </trkpt>
      <trkpt lat="42.3045240" lon="-8.6059800">
        <ele>50.5</ele>
        <time>2021-05-21T07:12:41Z</time>
      </trkpt>
      <trkpt lat="42.3045310" lon="-8.6059640">
        <ele>50.6</ele>
        <time>2021-05-21T07:12:42Z</time>
      </trkpt>
      <trkpt lat="42.3045530" lon="-8.6059720">
        <ele>50.7</ele>
        <time>2021-05-21T07:12:43Z</time>
      </trkpt>
      <trkpt lat="42.3045830" lon="-8.6059730">
        <ele>50.8</ele>
        <time>2021-05-21T07:12:44Z</time>
      </trkpt>
      <trkpt lat="42.3045910" lon="-8.6059750">
        <ele>50.8</ele>
        <time>2021-05-21T07:12:45Z</time>
      </trkpt>
      <trkpt lat="42.3046140" lon="-8.6059760">
        <ele>50.9</ele>
        <time>2021-05-21T07:12:46Z</time>
      </trkpt>
      <trkpt lat="42.3046220" lon="-8.6059780">
        <ele>50.9</ele>
        <time>2021-05-21T07:12:47Z</time>
      </trkpt>
      <trkpt lat="42.3046310" lon="-8.6059800">
        <ele>50.9</ele>
        <time>2021-05-21T07:12:48Z</time>
      </trkpt>
      <trkpt lat="42.3046500" lon="-8.6059880">
        <ele>51.0</ele>
        <time>2021-05-21T07:12:49Z</time>
      </trkpt>
      <trkpt lat="42.3046570" lon="-8.6059860">
        <ele>51.0</ele>
        <time>2021-05-21T07:12:50Z</time>
      </trkpt>
      <trkpt lat="42.3046630" lon="-8.6059840">
        <ele>51.1</ele>
        <time>2021-05-21T07:12:51Z</time>
      </trkpt>
      <trkpt lat="42.3046700" lon="-8.6059820">
        <ele>51.1</ele>
        <time>2021-05-21T07:12:52Z</time>
      </trkpt>
      <trkpt lat="42.3046820" lon="-8.6059780">
        <ele>51.2</ele>
        <time>2021-05-21T07:12:53Z</time>
      </trkpt>
      <trkpt lat="42.3046970" lon="-8.6059830">
        <ele>51.2</ele>
        <time>2021-05-21T07:12:54Z</time>
      </trkpt>
      <trkpt lat="42.3047090" lon="-8.6059760">
        <ele>51.3</ele>
        <time>2021-05-21T07:12:55Z</time>
      </trkpt>
      <trkpt lat="42.3047250" lon="-8.6059700">
        <ele>51.4</ele>
        <time>2021-05-21T07:12:56Z</time>
      </trkpt>
      <trkpt lat="42.3047410" lon="-8.6059670">
        <ele>51.5</ele>
        <time>2021-05-21T07:12:57Z</time>
      </trkpt>
      <trkpt lat="42.3047540" lon="-8.6059670">
        <ele>51.6</ele>
        <time>2021-05-21T07:12:58Z</time>
      </trkpt>
      <trkpt lat="42.3047840" lon="-8.6059480">
        <ele>51.8</ele>
        <time>2021-05-21T07:12:59Z</time>
      </trkpt>
      <trkpt lat="42.3047930" lon="-8.6059450">
        <ele>51.8</ele>
        <time>2021-05-21T07:13:00Z</time>
      </trkpt>
      <trkpt lat="42.3048040" lon="-8.6059360">
        <ele>51.9</ele>
        <time>2021-05-21T07:13:01Z</time>
      </trkpt>
      <trkpt lat="42.3048100" lon="-8.6059350">
        <ele>52.0</ele>
        <time>2021-05-21T07:13:02Z</time>
      </trkpt>
      <trkpt lat="42.3048170" lon="-8.6059330">
        <ele>52.0</ele>
        <time>2021-05-21T07:13:03Z</time>
      </trkpt>
      <trkpt lat="42.3048230" lon="-8.6059320">
        <ele>52.1</ele>
        <time>2021-05-21T07:13:04Z</time>
      </trkpt>
      <trkpt lat="42.3048290" lon="-8.6059300">
        <ele>52.1</ele>
        <time>2021-05-21T07:13:05Z</time>
      </trkpt>
      <trkpt lat="42.3048490" lon="-8.6059240">
        <ele>52.3</ele>
        <time>2021-05-21T07:13:06Z</time>
      </trkpt>
      <trkpt lat="42.3048590" lon="-8.6059230">
        <ele>52.3</ele>
        <time>2021-05-21T07:13:07Z</time>
      </trkpt>
      <trkpt lat="42.3048700" lon="-8.6059230">
        <ele>52.4</ele>
        <time>2021-05-21T07:13:08Z</time>
      </trkpt>
      <trkpt lat="42.3048650" lon="-8.6059260">
        <ele>52.5</ele>
        <time>2021-05-21T07:13:09Z</time>
      </trkpt>
      <trkpt lat="42.3048710" lon="-8.6059240">
        <ele>52.5</ele>
        <time>2021-05-21T07:13:10Z</time>
      </trkpt>
      <trkpt lat="42.3048820" lon="-8.6059320">
        <ele>52.6</ele>
        <time>2021-05-21T07:13:11Z</time>
      </trkpt>
      <trkpt lat="42.3048850" lon="-8.6059440">
        <ele>52.7</ele>
        <time>2021-05-21T07:13:12Z</time>
      </trkpt>
      <trkpt lat="42.3048920" lon="-8.6059490">
        <ele>52.8</ele>
        <time>2021-05-21T07:13:13Z</time>
      </trkpt>
      <trkpt lat="42.3048930" lon="-8.6059480">
        <ele>52.8</ele>
        <time>2021-05-21T07:13:14Z</time>
      </trkpt>
      <trkpt lat="42.3049100" lon="-8.6059520">
        <ele>52.9</ele>
        <time>2021-05-21T07:13:15Z</time>
      </trkpt>
      <trkpt lat="42.3049220" lon="-8.6059580">
        <ele>53.0</ele>
        <time>2021-05-21T07:13:16Z</time>
      </trkpt>
      <trkpt lat="42.3049380" lon="-8.6059580">
        <ele>53.2</ele>
        <time>2021-05-21T07:13:17Z</time>
      </trkpt>
      <trkpt lat="42.3049560" lon="-8.6059520">
        <ele>53.3</ele>
        <time>2021-05-21T07:13:18Z</time>
      </trkpt>
      <trkpt lat="42.3049620" lon="-8.6059500">
        <ele>53.4</ele>
        <time>2021-05-21T07:13:19Z</time>
      </trkpt>
      <trkpt lat="42.3049750" lon="-8.6059490">
        <ele>53.5</ele>
        <time>2021-05-21T07:13:20Z</time>
      </trkpt>
      <trkpt lat="42.3049820" lon="-8.6059430">
        <ele>53.6</ele>
        <time>2021-05-21T07:13:21Z</time>
      </trkpt>
      <trkpt lat="42.3049900" lon="-8.6059390">
        <ele>53.7</ele>
        <time>2021-05-21T07:13:22Z</time>
      </trkpt>
      <trkpt lat="42.3050110" lon="-8.6059470">
        <ele>53.9</ele>
        <time>2021-05-21T07:13:23Z</time>
      </trkpt>
      <trkpt lat="42.3050220" lon="-8.6059460">
        <ele>54.0</ele>
        <time>2021-05-21T07:13:24Z</time>
      </trkpt>
      <trkpt lat="42.3050370" lon="-8.6059510">
        <ele>54.1</ele>
        <time>2021-05-21T07:13:25Z</time>
      </trkpt>
      <trkpt lat="42.3050500" lon="-8.6059550">
        <ele>54.2</ele>
        <time>2021-05-21T07:13:26Z</time>
      </trkpt>
      <trkpt lat="42.3050750" lon="-8.6059610">
        <ele>54.4</ele>
        <time>2021-05-21T07:13:27Z</time>
      </trkpt>
      <trkpt lat="42.3050860" lon="-8.6059660">
        <ele>54.5</ele>
        <time>2021-05-21T07:13:28Z</time>
      </trkpt>
      <trkpt lat="42.3051030" lon="-8.6059710">
        <ele>54.6</ele>
        <time>2021-05-21T07:13:29Z</time>
      </trkpt>
      <trkpt lat="42.3051080" lon="-8.6059720">
        <ele>54.7</ele>
        <time>2021-05-21T07:13:30Z</time>
      </trkpt>
      <trkpt lat="42.3051130" lon="-8.6059740">
        <ele>54.7</ele>
        <time>2021-05-21T07:13:31Z</time>
      </trkpt>
      <trkpt lat="42.3051180" lon="-8.6059750">
        <ele>54.7</ele>
        <time>2021-05-21T07:13:32Z</time>
      </trkpt>
      <trkpt lat="42.3051230" lon="-8.6059770">
        <ele>54.8</ele>
        <time>2021-05-21T07:13:33Z</time>
      </trkpt>
      <trkpt lat="42.3051340" lon="-8.6059750">
        <ele>54.9</ele>
        <time>2021-05-21T07:13:34Z</time>
      </trkpt>
      <trkpt lat="42.3051430" lon="-8.6059690">
        <ele>54.9</ele>
        <time>2021-05-21T07:13:35Z</time>
      </trkpt>
      <trkpt lat="42.3051540" lon="-8.6059650">
        <ele>55.0</ele>
        <time>2021-05-21T07:13:36Z</time>
      </trkpt>
      <trkpt lat="42.3051630" lon="-8.6059610">
        <ele>55.1</ele>
        <time>2021-05-21T07:13:37Z</time>
      </trkpt>
      <trkpt lat="42.3051830" lon="-8.6059640">
        <ele>55.2</ele>
        <time>2021-05-21T07:13:38Z</time>
      </trkpt>
      <trkpt lat="42.3051910" lon="-8.6059610">
        <ele>55.3</ele>
        <time>2021-05-21T07:13:39Z</time>
      </trkpt>
      <trkpt lat="42.3052020" lon="-8.6059500">
        <ele>55.3</ele>
        <time>2021-05-21T07:13:40Z</time>
      </trkpt>
      <trkpt lat="42.3052120" lon="-8.6059430">
        <ele>55.4</ele>
        <time>2021-05-21T07:13:41Z</time>
      </trkpt>
      <trkpt lat="42.3052270" lon="-8.6059360">
        <ele>55.5</ele>
        <time>2021-05-21T07:13:42Z</time>
      </trkpt>
      <trkpt lat="42.3052350" lon="-8.6059380">
        <ele>55.6</ele>
        <time>2021-05-21T07:13:43Z</time>
      </trkpt>
      <trkpt lat="42.3052460" lon="-8.6059290">
        <ele>55.6</ele>
        <time>2021-05-21T07:13:44Z</time>
      </trkpt>
      <trkpt lat="42.3052610" lon="-8.6059170">
        <ele>55.8</ele>
        <time>2021-05-21T07:13:45Z</time>
      </trkpt>
      <trkpt lat="42.3052750" lon="-8.6059150">
        <ele>55.8</ele>
        <time>2021-05-21T07:13:46Z</time>
      </trkpt>
      <trkpt lat="42.3052870" lon="-8.6059190">
        <ele>55.9</ele>
        <time>2021-05-21T07:13:47Z</time>
      </trkpt>
      <trkpt lat="42.3053040" lon="-8.6059250">
        <ele>56.0</ele>
        <time>2021-05-21T07:13:48Z</time>
      </trkpt>
      <trkpt lat="42.3053200" lon="-8.6059180">
        <ele>56.1</ele>
        <time>2021-05-21T07:13:49Z</time>
      </trkpt>
      <trkpt lat="42.3053320" lon="-8.6059140">
        <ele>56.2</ele>
        <time>2021-05-21T07:13:50Z</time>
      </trkpt>
      <trkpt lat="42.3053460" lon="-8.6058990">
        <ele>56.3</ele>
        <time>2021-05-21T07:13:51Z</time>
      </trkpt>
      <trkpt lat="42.3053570" lon="-8.6058990">
        <ele>56.4</ele>
        <time>2021-05-21T07:13:52Z</time>
      </trkpt>
      <trkpt lat="42.3053670" lon="-8.6058940">
        <ele>56.5</ele>
        <time>2021-05-21T07:13:53Z</time>
      </trkpt>
      <trkpt lat="42.3053760" lon="-8.6058930">
        <ele>56.6</ele>
        <time>2021-05-21T07:13:54Z</time>
      </trkpt>
      <trkpt lat="42.3053850" lon="-8.6058850">
        <ele>56.6</ele>
        <time>2021-05-21T07:13:55Z</time>
      </trkpt>
      <trkpt lat="42.3053900" lon="-8.6058810">
        <ele>56.7</ele>
        <time>2021-05-21T07:13:56Z</time>
      </trkpt>
      <trkpt lat="42.3053860" lon="-8.6058730">
        <ele>56.7</ele>
        <time>2021-05-21T07:13:57Z</time>
      </trkpt>
      <trkpt lat="42.3053930" lon="-8.6058690">
        <ele>56.8</ele>
        <time>2021-05-21T07:13:58Z</time>
      </trkpt>
      <trkpt lat="42.3054120" lon="-8.6058620">
        <ele>56.9</ele>
        <time>2021-05-21T07:13:59Z</time>
      </trkpt>
      <trkpt lat="42.3054310" lon="-8.6058560">
        <ele>57.0</ele>
        <time>2021-05-21T07:14:00Z</time>
      </trkpt>
      <trkpt lat="42.3054400" lon="-8.6058480">
        <ele>57.1</ele>
        <time>2021-05-21T07:14:01Z</time>
      </trkpt>
      <trkpt lat="42.3054500" lon="-8.6058410">
        <ele>57.2</ele>
        <time>2021-05-21T07:14:02Z</time>
      </trkpt>
      <trkpt lat="42.3054620" lon="-8.6058470">
        <ele>57.3</ele>
        <time>2021-05-21T07:14:03Z</time>
      </trkpt>
      <trkpt lat="42.3054720" lon="-8.6058410">
        <ele>57.4</ele>
        <time>2021-05-21T07:14:04Z</time>
      </trkpt>
      <trkpt lat="42.3054880" lon="-8.6058400">
        <ele>57.5</ele>
        <time>2021-05-21T07:14:05Z</time>
      </trkpt>
      <trkpt lat="42.3054960" lon="-8.6058390">
        <ele>57.6</ele>
        <time>2021-05-21T07:14:06Z</time>
      </trkpt>
      <trkpt lat="42.3055030" lon="-8.6058370">
        <ele>57.6</ele>
        <time>2021-05-21T07:14:07Z</time>
      </trkpt>
      <trkpt lat="42.3055110" lon="-8.6058350">
        <ele>57.7</ele>
        <time>2021-05-21T07:14:08Z</time>
      </trkpt>
      <trkpt lat="42.3055300" lon="-8.6058270">
        <ele>57.8</ele>
        <time>2021-05-21T07:14:09Z</time>
      </trkpt>
      <trkpt lat="42.3055380" lon="-8.6058240">
        <ele>57.9</ele>
        <time>2021-05-21T07:14:10Z</time>
      </trkpt>
      <trkpt lat="42.3055470" lon="-8.6058220">
        <ele>57.9</ele>
        <time>2021-05-21T07:14:11Z</time>
      </trkpt>
      <trkpt lat="42.3055350" lon="-8.6058100">
        <ele>58.0</ele>
        <time>2021-05-21T07:14:12Z</time>
      </trkpt>
      <trkpt lat="42.3055440" lon="-8.6058050">
        <ele>58.1</ele>
        <time>2021-05-21T07:14:13Z</time>
      </trkpt>
      <trkpt lat="42.3055420" lon="-8.6057990">
        <ele>58.1</ele>
        <time>2021-05-21T07:14:14Z</time>
      </trkpt>
      <trkpt lat="42.3055450" lon="-8.6057990">
        <ele>58.2</ele>
        <time>2021-05-21T07:14:15Z</time>
      </trkpt>
      <trkpt lat="42.3055540" lon="-8.6057980">
        <ele>58.2</ele>
        <time>2021-05-21T07:14:16Z</time>
      </trkpt>
      <trkpt lat="42.3055670" lon="-8.6057900">
        <ele>58.3</ele>
        <time>2021-05-21T07:14:17Z</time>
      </trkpt>
      <trkpt lat="42.3055690" lon="-8.6057810">
        <ele>58.4</ele>
        <time>2021-05-21T07:14:18Z</time>
      </trkpt>
      <trkpt lat="42.3055770" lon="-8.6057830">
        <ele>58.4</ele>
        <time>2021-05-21T07:14:19Z</time>
      </trkpt>
      <trkpt lat="42.3055810" lon="-8.6057820">
        <ele>58.5</ele>
        <time>2021-05-21T07:14:20Z</time>
      </trkpt>
      <trkpt lat="42.3056010" lon="-8.6057820">
        <ele>58.6</ele>
        <time>2021-05-21T07:14:21Z</time>
      </trkpt>
      <trkpt lat="42.3056370" lon="-8.6057890">
        <ele>58.8</ele>
        <time>2021-05-21T07:14:22Z</time>
      </trkpt>
      <trkpt lat="42.3056590" lon="-8.6057910">
        <ele>59.0</ele>
        <time>2021-05-21T07:14:23Z</time>
      </trkpt>
      <trkpt lat="42.3056660" lon="-8.6057940">
        <ele>59.0</ele>
        <time>2021-05-21T07:14:24Z</time>
      </trkpt>
      <trkpt lat="42.3056770" lon="-8.6057910">
        <ele>59.1</ele>
        <time>2021-05-21T07:14:25Z</time>
      </trkpt>
      <trkpt lat="42.3057020" lon="-8.6057920">
        <ele>59.3</ele>
        <time>2021-05-21T07:14:26Z</time>
      </trkpt>
      <trkpt lat="42.3057320" lon="-8.6058020">
        <ele>59.5</ele>
        <time>2021-05-21T07:14:27Z</time>
      </trkpt>
      <trkpt lat="42.3057390" lon="-8.6058010">
        <ele>59.5</ele>
        <time>2021-05-21T07:14:28Z</time>
      </trkpt>
      <trkpt lat="42.3057420" lon="-8.6057890">
        <ele>59.5</ele>
        <time>2021-05-21T07:14:29Z</time>
      </trkpt>
      <trkpt lat="42.3057500" lon="-8.6057890">
        <ele>59.6</ele>
        <time>2021-05-21T07:14:30Z</time>
      </trkpt>
      <trkpt lat="42.3057750" lon="-8.6057990">
        <ele>59.7</ele>
        <time>2021-05-21T07:14:31Z</time>
      </trkpt>
      <trkpt lat="42.3057920" lon="-8.6057960">
        <ele>59.8</ele>
        <time>2021-05-21T07:14:32Z</time>
      </trkpt>
      <trkpt lat="42.3058000" lon="-8.6057960">
        <ele>59.9</ele>
        <time>2021-05-21T07:14:33Z</time>
      </trkpt>
      <trkpt lat="42.3058100" lon="-8.6057960">
        <ele>59.9</ele>
        <time>2021-05-21T07:14:34Z</time>
      </trkpt>
      <trkpt lat="42.3058300" lon="-8.6057960">
        <ele>60.0</ele>
        <time>2021-05-21T07:14:35Z</time>
      </trkpt>
      <trkpt lat="42.3058390" lon="-8.6057950">
        <ele>60.1</ele>
        <time>2021-05-21T07:14:36Z</time>
      </trkpt>
      <trkpt lat="42.3058470" lon="-8.6057950">
        <ele>60.1</ele>
        <time>2021-05-21T07:14:37Z</time>
      </trkpt>
      <trkpt lat="42.3058540" lon="-8.6057940">
        <ele>60.2</ele>
        <time>2021-05-21T07:14:38Z</time>
      </trkpt>
      <trkpt lat="42.3058700" lon="-8.6057870">
        <ele>60.3</ele>
        <time>2021-05-21T07:14:39Z</time>
      </trkpt>
      <trkpt lat="42.3058790" lon="-8.6057780">
        <ele>60.3</ele>
        <time>2021-05-21T07:14:40Z</time>
      </trkpt>
      <trkpt lat="42.3059000" lon="-8.6057760">
        <ele>60.4</ele>
        <time>2021-05-21T07:14:41Z</time>
      </trkpt>
      <trkpt lat="42.3059110" lon="-8.6057800">
        <ele>60.4</ele>
        <time>2021-05-21T07:14:42Z</time>
      </trkpt>
      <trkpt lat="42.3059210" lon="-8.6057830">
        <ele>60.5</ele>
        <time>2021-05-21T07:14:43Z</time>
      </trkpt>
      <trkpt lat="42.3059450" lon="-8.6057830">
        <ele>60.6</ele>
        <time>2021-05-21T07:14:44Z</time>
      </trkpt>
      <trkpt lat="42.3059540" lon="-8.6057820">
        <ele>60.6</ele>
        <time>2021-05-21T07:14:45Z</time>
      </trkpt>
      <trkpt lat="42.3059630" lon="-8.6057810">
        <ele>60.7</ele>
        <time>2021-05-21T07:14:46Z</time>
      </trkpt>
      <trkpt lat="42.3059770" lon="-8.6057800">
        <ele>60.7</ele>
        <time>2021-05-21T07:14:47Z</time>
      </trkpt>
      <trkpt lat="42.3059880" lon="-8.6057800">
        <ele>60.8</ele>
        <time>2021-05-21T07:14:48Z</time>
      </trkpt>
      <trkpt lat="42.3059990" lon="-8.6057750">
        <ele>60.8</ele>
        <time>2021-05-21T07:14:49Z</time>
      </trkpt>
      <trkpt lat="42.3060070" lon="-8.6057680">
        <ele>60.9</ele>
        <time>2021-05-21T07:14:50Z</time>
      </trkpt>
      <trkpt lat="42.3060200" lon="-8.6057720">
        <ele>60.9</ele>
        <time>2021-05-21T07:14:51Z</time>
      </trkpt>
      <trkpt lat="42.3060270" lon="-8.6057650">
        <ele>60.9</ele>
        <time>2021-05-21T07:14:52Z</time>
      </trkpt>
      <trkpt lat="42.3060270" lon="-8.6057640">
        <ele>60.9</ele>
        <time>2021-05-21T07:14:53Z</time>
      </trkpt>
      <trkpt lat="42.3060230" lon="-8.6057580">
        <ele>60.9</ele>
        <time>2021-05-21T07:14:54Z</time>
      </trkpt>
      <trkpt lat="42.3060310" lon="-8.6057410">
        <ele>61.0</ele>
        <time>2021-05-21T07:14:55Z</time>
      </trkpt>
      <trkpt lat="42.3060450" lon="-8.6057380">
        <ele>61.0</ele>
        <time>2021-05-21T07:14:56Z</time>
      </trkpt>
      <trkpt lat="42.3060500" lon="-8.6057320">
        <ele>61.1</ele>
        <time>2021-05-21T07:14:57Z</time>
      </trkpt>
      <trkpt lat="42.3060580" lon="-8.6057240">
        <ele>61.1</ele>
        <time>2021-05-21T07:14:58Z</time>
      </trkpt>
      <trkpt lat="42.3060660" lon="-8.6057190">
        <ele>61.1</ele>
        <time>2021-05-21T07:14:59Z</time>
      </trkpt>
      <trkpt lat="42.3060670" lon="-8.6057180">
        <ele>61.1</ele>
        <time>2021-05-21T07:15:00Z</time>
      </trkpt>
      <trkpt lat="42.3060710" lon="-8.6057140">
        <ele>61.1</ele>
        <time>2021-05-21T07:15:01Z</time>
      </trkpt>
      <trkpt lat="42.3060800" lon="-8.6056990">
        <ele>61.2</ele>
        <time>2021-05-21T07:15:02Z</time>
      </trkpt>
      <trkpt lat="42.3060980" lon="-8.6056870">
        <ele>61.2</ele>
        <time>2021-05-21T07:15:03Z</time>
      </trkpt>
      <trkpt lat="42.3061230" lon="-8.6056810">
        <ele>61.3</ele>
        <time>2021-05-21T07:15:04Z</time>
      </trkpt>
      <trkpt lat="42.3061340" lon="-8.6056790">
        <ele>61.3</ele>
        <time>2021-05-21T07:15:05Z</time>
      </trkpt>
      <trkpt lat="42.3061450" lon="-8.6056780">
        <ele>61.4</ele>
        <time>2021-05-21T07:15:06Z</time>
      </trkpt>
      <trkpt lat="42.3061710" lon="-8.6056720">
        <ele>61.5</ele>
        <time>2021-05-21T07:15:07Z</time>
      </trkpt>
      <trkpt lat="42.3061820" lon="-8.6056670">
        <ele>61.5</ele>
        <time>2021-05-21T07:15:08Z</time>
      </trkpt>
      <trkpt lat="42.3061990" lon="-8.6056590">
        <ele>61.5</ele>
        <time>2021-05-21T07:15:09Z</time>
      </trkpt>
      <trkpt lat="42.3062120" lon="-8.6056510">
        <ele>61.6</ele>
        <time>2021-05-21T07:15:10Z</time>
      </trkpt>
      <trkpt lat="42.3062260" lon="-8.6056430">
        <ele>61.7</ele>
        <time>2021-05-21T07:15:11Z</time>
      </trkpt>
      <trkpt lat="42.3062380" lon="-8.6056380">
        <ele>61.7</ele>
        <time>2021-05-21T07:15:12Z</time>
      </trkpt>
      <trkpt lat="42.3062490" lon="-8.6056380">
        <ele>61.8</ele>
        <time>2021-05-21T07:15:13Z</time>
      </trkpt>
      <trkpt lat="42.3062460" lon="-8.6056400">
        <ele>61.8</ele>
        <time>2021-05-21T07:15:14Z</time>
      </trkpt>
      <trkpt lat="42.3062430" lon="-8.6056400">
        <ele>61.8</ele>
        <time>2021-05-21T07:15:15Z</time>
      </trkpt>
      <trkpt lat="42.3062450" lon="-8.6056380">
        <ele>61.8</ele>
        <time>2021-05-21T07:15:16Z</time>
      </trkpt>
      <trkpt lat="42.3062520" lon="-8.6056340">
        <ele>61.8</ele>
        <time>2021-05-21T07:15:17Z</time>
      </trkpt>
      <trkpt lat="42.3062710" lon="-8.6056240">
        <ele>61.9</ele>
        <time>2021-05-21T07:15:18Z</time>
      </trkpt>
      <trkpt lat="42.3062780" lon="-8.6056170">
        <ele>61.9</ele>
        <time>2021-05-21T07:15:19Z</time>
      </trkpt>
      <trkpt lat="42.3062880" lon="-8.6056150">
        <ele>61.9</ele>
        <time>2021-05-21T07:15:20Z</time>
      </trkpt>
      <trkpt lat="42.3062930" lon="-8.6056120">
        <ele>62.0</ele>
        <time>2021-05-21T07:15:21Z</time>
      </trkpt>
      <trkpt lat="42.3063050" lon="-8.6056060">
        <ele>62.0</ele>
        <time>2021-05-21T07:15:22Z</time>
      </trkpt>
      <trkpt lat="42.3063140" lon="-8.6056030">
        <ele>62.0</ele>
        <time>2021-05-21T07:15:23Z</time>
      </trkpt>
      <trkpt lat="42.3063250" lon="-8.6056020">
        <ele>62.1</ele>
        <time>2021-05-21T07:15:24Z</time>
      </trkpt>
      <trkpt lat="42.3063340" lon="-8.6055980">
        <ele>62.1</ele>
        <time>2021-05-21T07:15:25Z</time>
      </trkpt>
      <trkpt lat="42.3063480" lon="-8.6055870">
        <ele>62.1</ele>
        <time>2021-05-21T07:15:26Z</time>
      </trkpt>
      <trkpt lat="42.3063560" lon="-8.6055850">
        <ele>62.2</ele>
        <time>2021-05-21T07:15:27Z</time>
      </trkpt>
      <trkpt lat="42.3063630" lon="-8.6055840">
        <ele>62.2</ele>
        <time>2021-05-21T07:15:28Z</time>
      </trkpt>
      <trkpt lat="42.3063710" lon="-8.6055820">
        <ele>62.2</ele>
        <time>2021-05-21T07:15:29Z</time>
      </trkpt>
      <trkpt lat="42.3063820" lon="-8.6055730">
        <ele>62.2</ele>
        <time>2021-05-21T07:15:30Z</time>
      </trkpt>
      <trkpt lat="42.3063970" lon="-8.6055560">
        <ele>62.3</ele>
        <time>2021-05-21T07:15:31Z</time>
      </trkpt>
      <trkpt lat="42.3064140" lon="-8.6055540">
        <ele>62.3</ele>
        <time>2021-05-21T07:15:32Z</time>
      </trkpt>
      <trkpt lat="42.3064190" lon="-8.6055440">
        <ele>62.3</ele>
        <time>2021-05-21T07:15:33Z</time>
      </trkpt>
      <trkpt lat="42.3064260" lon="-8.6055340">
        <ele>62.4</ele>
        <time>2021-05-21T07:15:34Z</time>
      </trkpt>
      <trkpt lat="42.3064330" lon="-8.6055180">
        <ele>62.4</ele>
        <time>2021-05-21T07:15:35Z</time>
      </trkpt>
      <trkpt lat="42.3064460" lon="-8.6055040">
        <ele>62.5</ele>
        <time>2021-05-21T07:15:36Z</time>
      </trkpt>
      <trkpt lat="42.3064400" lon="-8.6054810">
        <ele>62.5</ele>
        <time>2021-05-21T07:15:37Z</time>
      </trkpt>
      <trkpt lat="42.3064390" lon="-8.6054570">
        <ele>62.6</ele>
        <time>2021-05-21T07:15:38Z</time>
      </trkpt>
      <trkpt lat="42.3064350" lon="-8.6054440">
        <ele>62.6</ele>
        <time>2021-05-21T07:15:39Z</time>
      </trkpt>
      <trkpt lat="42.3064330" lon="-8.6054310">
        <ele>62.6</ele>
        <time>2021-05-21T07:15:40Z</time>
      </trkpt>
      <trkpt lat="42.3064290" lon="-8.6054160">
        <ele>62.6</ele>
        <time>2021-05-21T07:15:41Z</time>
      </trkpt>
      <trkpt lat="42.3064260" lon="-8.6054090">
        <ele>62.6</ele>
        <time>2021-05-21T07:15:42Z</time>
      </trkpt>
      <trkpt lat="42.3064240" lon="-8.6054070">
        <ele>62.6</ele>
        <time>2021-05-21T07:15:43Z</time>
      </trkpt>
      <trkpt lat="42.3064260" lon="-8.6054130">
        <ele>62.6</ele>
        <time>2021-05-21T07:15:44Z</time>
      </trkpt>
      <trkpt lat="42.3064290" lon="-8.6054100">
        <ele>62.6</ele>
        <time>2021-05-21T07:15:45Z</time>
      </trkpt>
      <trkpt lat="42.3064270" lon="-8.6054050">
        <ele>62.6</ele>
        <time>2021-05-21T07:15:46Z</time>
      </trkpt>
      <trkpt lat="42.3064210" lon="-8.6054000">
        <ele>62.6</ele>
        <time>2021-05-21T07:15:47Z</time>
      </trkpt>
      <trkpt lat="42.3064200" lon="-8.6053970">
        <ele>62.6</ele>
        <time>2021-05-21T07:15:48Z</time>
      </trkpt>
      <trkpt lat="42.3064180" lon="-8.6053940">
        <ele>62.6</ele>
        <time>2021-05-21T07:15:49Z</time>
      </trkpt>
      <trkpt lat="42.3064140" lon="-8.6053960">
        <ele>62.6</ele>
        <time>2021-05-21T07:15:50Z</time>
      </trkpt>
      <trkpt lat="42.3064090" lon="-8.6053920">
        <ele>62.6</ele>
        <time>2021-05-21T07:15:51Z</time>
      </trkpt>
      <trkpt lat="42.3064070" lon="-8.6053920">
        <ele>62.6</ele>
        <time>2021-05-21T07:15:52Z</time>
      </trkpt>
      <trkpt lat="42.3064030" lon="-8.6053910">
        <ele>62.6</ele>
        <time>2021-05-21T07:15:53Z</time>
      </trkpt>
      <trkpt lat="42.3064030" lon="-8.6053910">
        <ele>62.6</ele>
        <time>2021-05-21T07:15:54Z</time>
      </trkpt>
      <trkpt lat="42.3064040" lon="-8.6053930">
        <ele>62.6</ele>
        <time>2021-05-21T07:15:55Z</time>
      </trkpt>
      <trkpt lat="42.3064070" lon="-8.6053970">
        <ele>62.6</ele>
        <time>2021-05-21T07:15:56Z</time>
      </trkpt>
      <trkpt lat="42.3064090" lon="-8.6053970">
        <ele>62.6</ele>
        <time>2021-05-21T07:15:57Z</time>
      </trkpt>
      <trkpt lat="42.3064060" lon="-8.6053950">
        <ele>62.6</ele>
        <time>2021-05-21T07:15:58Z</time>
      </trkpt>
      <trkpt lat="42.3064050" lon="-8.6053980">
        <ele>62.6</ele>
        <time>2021-05-21T07:15:59Z</time>
      </trkpt>
      <trkpt lat="42.3064030" lon="-8.6054010">
        <ele>62.6</ele>
        <time>2021-05-21T07:16:00Z</time>
      </trkpt>
      <trkpt lat="42.3064020" lon="-8.6054000">
        <ele>62.7</ele>
        <time>2021-05-21T07:16:01Z</time>
      </trkpt>
      <trkpt lat="42.3064000" lon="-8.6054010">
        <ele>62.7</ele>
        <time>2021-05-21T07:16:02Z</time>
      </trkpt>
      <trkpt lat="42.3064030" lon="-8.6054010">
        <ele>62.7</ele>
        <time>2021-05-21T07:16:03Z</time>
      </trkpt>
      <trkpt lat="42.3064010" lon="-8.6054080">
        <ele>62.7</ele>
        <time>2021-05-21T07:16:04Z</time>
      </trkpt>
      <trkpt lat="42.3064000" lon="-8.6054090">
        <ele>62.7</ele>
        <time>2021-05-21T07:16:05Z</time>
      </trkpt>
      <trkpt lat="42.3064010" lon="-8.6054110">
        <ele>62.7</ele>
        <time>2021-05-21T07:16:06Z</time>
      </trkpt>
      <trkpt lat="42.3063970" lon="-8.6054070">
        <ele>62.7</ele>
        <time>2021-05-21T07:16:07Z</time>
      </trkpt>
      <trkpt lat="42.3063920" lon="-8.6054120">
        <ele>62.7</ele>
        <time>2021-05-21T07:16:08Z</time>
      </trkpt>
      <trkpt lat="42.3063850" lon="-8.6054150">
        <ele>62.7</ele>
        <time>2021-05-21T07:16:09Z</time>
      </trkpt>
      <trkpt lat="42.3063780" lon="-8.6054150">
        <ele>62.7</ele>
        <time>2021-05-21T07:16:10Z</time>
      </trkpt>
      <trkpt lat="42.3063740" lon="-8.6054160">
        <ele>62.7</ele>
        <time>2021-05-21T07:16:11Z</time>
      </trkpt>
      <trkpt lat="42.3063680" lon="-8.6054160">
        <ele>62.7</ele>
        <time>2021-05-21T07:16:12Z</time>
      </trkpt>
      <trkpt lat="42.3063570" lon="-8.6054290">
        <ele>62.7</ele>
        <time>2021-05-21T07:16:13Z</time>
      </trkpt>
      <trkpt lat="42.3063740" lon="-8.6054090">
        <ele>62.8</ele>
        <time>2021-05-21T07:16:14Z</time>
      </trkpt>
      <trkpt lat="42.3063770" lon="-8.6053940">
        <ele>62.8</ele>
        <time>2021-05-21T07:16:15Z</time>
      </trkpt>
      <trkpt lat="42.3063800" lon="-8.6053940">
        <ele>62.8</ele>
        <time>2021-05-21T07:16:16Z</time>
      </trkpt>
      <trkpt lat="42.3063860" lon="-8.6053900">
        <ele>62.8</ele>
        <time>2021-05-21T07:16:17Z</time>
      </trkpt>
      <trkpt lat="42.3063860" lon="-8.6053830">
        <ele>62.8</ele>
        <time>2021-05-21T07:16:18Z</time>
      </trkpt>
      <trkpt lat="42.3063900" lon="-8.6053840">
        <ele>62.8</ele>
        <time>2021-05-21T07:16:19Z</time>
      </trkpt>
      <trkpt lat="42.3063900" lon="-8.6053850">
        <ele>62.8</ele>
        <time>2021-05-21T07:16:20Z</time>
      </trkpt>
      <trkpt lat="42.3063910" lon="-8.6053890">
        <ele>62.8</ele>
        <time>2021-05-21T07:16:21Z</time>
      </trkpt>
      <trkpt lat="42.3063890" lon="-8.6053920">
        <ele>62.8</ele>
        <time>2021-05-21T07:16:22Z</time>
      </trkpt>
      <trkpt lat="42.3063890" lon="-8.6054040">
        <ele>62.8</ele>
        <time>2021-05-21T07:16:23Z</time>
      </trkpt>
      <trkpt lat="42.3063850" lon="-8.6054060">
        <ele>62.8</ele>
        <time>2021-05-21T07:16:24Z</time>
      </trkpt>
      <trkpt lat="42.3063850" lon="-8.6054050">
        <ele>62.8</ele>
        <time>2021-05-21T07:16:25Z</time>
      </trkpt>
      <trkpt lat="42.3063850" lon="-8.6054050">
        <ele>62.8</ele>
        <time>2021-05-21T07:16:26Z</time>
      </trkpt>
      <trkpt lat="42.3063840" lon="-8.6054190">
        <ele>62.8</ele>
        <time>2021-05-21T07:16:27Z</time>
      </trkpt>
      <trkpt lat="42.3063820" lon="-8.6054300">
        <ele>62.9</ele>
        <time>2021-05-21T07:16:28Z</time>
      </trkpt>
      <trkpt lat="42.3063800" lon="-8.6054320">
        <ele>62.9</ele>
        <time>2021-05-21T07:16:29Z</time>
      </trkpt>
      <trkpt lat="42.3063780" lon="-8.6054340">
        <ele>62.9</ele>
        <time>2021-05-21T07:16:30Z</time>
      </trkpt>
      <trkpt lat="42.3063800" lon="-8.6054330">
        <ele>62.9</ele>
        <time>2021-05-21T07:16:31Z</time>
      </trkpt>
      <trkpt lat="42.3063800" lon="-8.6054310">
        <ele>62.9</ele>
        <time>2021-05-21T07:16:32Z</time>
      </trkpt>
      <trkpt lat="42.3063780" lon="-8.6054420">
        <ele>62.9</ele>
        <time>2021-05-21T07:16:33Z</time>
      </trkpt>
      <trkpt lat="42.3063780" lon="-8.6054400">
        <ele>62.9</ele>
        <time>2021-05-21T07:16:34Z</time>
      </trkpt>
      <trkpt lat="42.3063780" lon="-8.6054440">
        <ele>62.9</ele>
        <time>2021-05-21T07:16:35Z</time>
      </trkpt>
      <trkpt lat="42.3063810" lon="-8.6054480">
        <ele>62.9</ele>
        <time>2021-05-21T07:16:36Z</time>
      </trkpt>
      <trkpt lat="42.3063830" lon="-8.6054390">
        <ele>62.9</ele>
        <time>2021-05-21T07:16:37Z</time>
      </trkpt>
      <trkpt lat="42.3063790" lon="-8.6054370">
        <ele>62.9</ele>
        <time>2021-05-21T07:16:38Z</time>
      </trkpt>
      <trkpt lat="42.3063780" lon="-8.6054350">
        <ele>62.9</ele>
        <time>2021-05-21T07:16:39Z</time>
      </trkpt>
      <trkpt lat="42.3063770" lon="-8.6054330">
        <ele>62.9</ele>
        <time>2021-05-21T07:16:40Z</time>
      </trkpt>
      <trkpt lat="42.3063800" lon="-8.6054200">
        <ele>62.9</ele>
        <time>2021-05-21T07:16:41Z</time>
      </trkpt>
      <trkpt lat="42.3063800" lon="-8.6054200">
        <ele>62.9</ele>
        <time>2021-05-21T07:16:42Z</time>
      </trkpt>
      <trkpt lat="42.3063800" lon="-8.6054210">
        <ele>62.9</ele>
        <time>2021-05-21T07:16:43Z</time>
      </trkpt>
      <trkpt lat="42.3063850" lon="-8.6054110">
        <ele>62.9</ele>
        <time>2021-05-21T07:16:44Z</time>
      </trkpt>
      <trkpt lat="42.3063860" lon="-8.6054030">
        <ele>62.9</ele>
        <time>2021-05-21T07:16:45Z</time>
      </trkpt>
      <trkpt lat="42.3063860" lon="-8.6053970">
        <ele>62.9</ele>
        <time>2021-05-21T07:16:46Z</time>
      </trkpt>
      <trkpt lat="42.3063840" lon="-8.6053910">
        <ele>63.0</ele>
        <time>2021-05-21T07:16:47Z</time>
      </trkpt>
      <trkpt lat="42.3063870" lon="-8.6053900">
        <ele>63.0</ele>
        <time>2021-05-21T07:16:48Z</time>
      </trkpt>
      <trkpt lat="42.3063850" lon="-8.6053940">
        <ele>63.0</ele>
        <time>2021-05-21T07:16:49Z</time>
      </trkpt>
      <trkpt lat="42.3063860" lon="-8.6053770">
        <ele>63.0</ele>
        <time>2021-05-21T07:16:50Z</time>
      </trkpt>
      <trkpt lat="42.3063900" lon="-8.6053730">
        <ele>63.0</ele>
        <time>2021-05-21T07:16:51Z</time>
      </trkpt>
      <trkpt lat="42.3063940" lon="-8.6053710">
        <ele>63.0</ele>
        <time>2021-05-21T07:16:52Z</time>
      </trkpt>
      <trkpt lat="42.3063920" lon="-8.6053700">
        <ele>63.0</ele>
        <time>2021-05-21T07:16:53Z</time>
      </trkpt>
      <trkpt lat="42.3063950" lon="-8.6053820">
        <ele>63.0</ele>
        <time>2021-05-21T07:16:54Z</time>
      </trkpt>
      <trkpt lat="42.3064040" lon="-8.6053660">
        <ele>63.0</ele>
        <time>2021-05-21T07:16:55Z</time>
      </trkpt>
      <trkpt lat="42.3064060" lon="-8.6053680">
        <ele>63.0</ele>
        <time>2021-05-21T07:16:56Z</time>
      </trkpt>
      <trkpt lat="42.3064080" lon="-8.6053630">
        <ele>63.0</ele>
        <time>2021-05-21T07:16:57Z</time>
      </trkpt>
      <trkpt lat="42.3064050" lon="-8.6053660">
        <ele>63.0</ele>
        <time>2021-05-21T07:16:58Z</time>
      </trkpt>
      <trkpt lat="42.3064040" lon="-8.6053620">
        <ele>63.0</ele>
        <time>2021-05-21T07:16:59Z</time>
      </trkpt>
      <trkpt lat="42.3063990" lon="-8.6053590">
        <ele>63.1</ele>
        <time>2021-05-21T07:17:00Z</time>
      </trkpt>
      <trkpt lat="42.3064000" lon="-8.6053510">
        <ele>63.1</ele>
        <time>2021-05-21T07:17:01Z</time>
      </trkpt>
      <trkpt lat="42.3064020" lon="-8.6053470">
        <ele>63.1</ele>
        <time>2021-05-21T07:17:02Z</time>
      </trkpt>
      <trkpt lat="42.3063980" lon="-8.6053520">
        <ele>63.1</ele>
        <time>2021-05-21T07:17:03Z</time>
      </trkpt>
      <trkpt lat="42.3063960" lon="-8.6053620">
        <ele>63.1</ele>
        <time>2021-05-21T07:17:04Z</time>
      </trkpt>
      <trkpt lat="42.3063960" lon="-8.6053720">
        <ele>63.1</ele>
        <time>2021-05-21T07:17:05Z</time>
      </trkpt>
      <trkpt lat="42.3063970" lon="-8.6053760">
        <ele>63.1</ele>
        <time>2021-05-21T07:17:06Z</time>
      </trkpt>
      <trkpt lat="42.3063990" lon="-8.6053670">
        <ele>63.1</ele>
        <time>2021-05-21T07:17:07Z</time>
      </trkpt>
      <trkpt lat="42.3064020" lon="-8.6053600">
        <ele>63.1</ele>
        <time>2021-05-21T07:17:08Z</time>
      </trkpt>
      <trkpt lat="42.3064010" lon="-8.6053610">
        <ele>63.1</ele>
        <time>2021-05-21T07:17:09Z</time>
      </trkpt>
      <trkpt lat="42.3064000" lon="-8.6053700">
        <ele>63.1</ele>
        <time>2021-05-21T07:17:10Z</time>
      </trkpt>
      <trkpt lat="42.3063970" lon="-8.6053740">
        <ele>63.1</ele>
        <time>2021-05-21T07:17:11Z</time>
      </trkpt>
      <trkpt lat="42.3063940" lon="-8.6053790">
        <ele>63.1</ele>
        <time>2021-05-21T07:17:12Z</time>
      </trkpt>
      <trkpt lat="42.3063950" lon="-8.6053720">
        <ele>63.1</ele>
        <time>2021-05-21T07:17:13Z</time>
      </trkpt>
      <trkpt lat="42.3063940" lon="-8.6053640">
        <ele>63.2</ele>
        <time>2021-05-21T07:17:14Z</time>
      </trkpt>
      <trkpt lat="42.3063970" lon="-8.6053490">
        <ele>63.2</ele>
        <time>2021-05-21T07:17:15Z</time>
      </trkpt>
      <trkpt lat="42.3063920" lon="-8.6053490">
        <ele>63.2</ele>
        <time>2021-05-21T07:17:16Z</time>
      </trkpt>
      <trkpt lat="42.3063920" lon="-8.6053570">
        <ele>63.2</ele>
        <time>2021-05-21T07:17:17Z</time>
      </trkpt>
      <trkpt lat="42.3063940" lon="-8.6053470">
        <ele>63.2</ele>
        <time>2021-05-21T07:17:18Z</time>
      </trkpt>
      <trkpt lat="42.3063940" lon="-8.6053370">
        <ele>63.2</ele>
        <time>2021-05-21T07:17:19Z</time>
      </trkpt>
      <trkpt lat="42.3064000" lon="-8.6053800">
        <ele>63.2</ele>
        <time>2021-05-21T07:17:20Z</time>
      </trkpt>
      <trkpt lat="42.3063920" lon="-8.6053890">
        <ele>63.3</ele>
        <time>2021-05-21T07:17:21Z</time>
      </trkpt>
      <trkpt lat="42.3063900" lon="-8.6053920">
        <ele>63.3</ele>
        <time>2021-05-21T07:17:22Z</time>
      </trkpt>
      <trkpt lat="42.3063910" lon="-8.6053950">
        <ele>63.3</ele>
        <time>2021-05-21T07:17:23Z</time>
      </trkpt>
      <trkpt lat="42.3063940" lon="-8.6053820">
        <ele>63.3</ele>
        <time>2021-05-21T07:17:24Z</time>
      </trkpt>
      <trkpt lat="42.3063940" lon="-8.6053770">
        <ele>63.3</ele>
        <time>2021-05-21T07:17:25Z</time>
      </trkpt>
      <trkpt lat="42.3064030" lon="-8.6053770">
        <ele>63.3</ele>
        <time>2021-05-21T07:17:26Z</time>
      </trkpt>
      <trkpt lat="42.3063990" lon="-8.6053800">
        <ele>63.3</ele>
        <time>2021-05-21T07:17:27Z</time>
      </trkpt>
      <trkpt lat="42.3063990" lon="-8.6053810">
        <ele>63.3</ele>
        <time>2021-05-21T07:17:28Z</time>
      </trkpt>
      <trkpt lat="42.3063950" lon="-8.6053800">
        <ele>63.3</ele>
        <time>2021-05-21T07:17:29Z</time>
      </trkpt>
      <trkpt lat="42.3063910" lon="-8.6053920">
        <ele>63.3</ele>
        <time>2021-05-21T07:17:30Z</time>
      </trkpt>
      <trkpt lat="42.3063940" lon="-8.6053930">
        <ele>63.3</ele>
        <time>2021-05-21T07:17:31Z</time>
      </trkpt>
      <trkpt lat="42.3064000" lon="-8.6053900">
        <ele>63.3</ele>
        <time>2021-05-21T07:17:32Z</time>
      </trkpt>
      <trkpt lat="42.3063960" lon="-8.6053850">
        <ele>63.3</ele>
        <time>2021-05-21T07:17:33Z</time>
      </trkpt>
      <trkpt lat="42.3063860" lon="-8.6053750">
        <ele>63.4</ele>
        <time>2021-05-21T07:17:34Z</time>
      </trkpt>
      <trkpt lat="42.3063840" lon="-8.6053670">
        <ele>63.4</ele>
        <time>2021-05-21T07:17:35Z</time>
      </trkpt>
      <trkpt lat="42.3063870" lon="-8.6053720">
        <ele>63.4</ele>
        <time>2021-05-21T07:17:36Z</time>
      </trkpt>
      <trkpt lat="42.3063920" lon="-8.6053700">
        <ele>63.4</ele>
        <time>2021-05-21T07:17:37Z</time>
      </trkpt>
      <trkpt lat="42.3063880" lon="-8.6053770">
        <ele>63.4</ele>
        <time>2021-05-21T07:17:38Z</time>
      </trkpt>
      <trkpt lat="42.3063980" lon="-8.6053830">
        <ele>63.4</ele>
        <time>2021-05-21T07:17:39Z</time>
      </trkpt>
      <trkpt lat="42.3064050" lon="-8.6053840">
        <ele>63.4</ele>
        <time>2021-05-21T07:17:40Z</time>
      </trkpt>
      <trkpt lat="42.3064150" lon="-8.6053800">
        <ele>63.4</ele>
        <time>2021-05-21T07:17:41Z</time>
      </trkpt>
      <trkpt lat="42.3064290" lon="-8.6053810">
        <ele>63.5</ele>
        <time>2021-05-21T07:17:42Z</time>
      </trkpt>
      <trkpt lat="42.3064330" lon="-8.6053800">
        <ele>63.5</ele>
        <time>2021-05-21T07:17:43Z</time>
      </trkpt>
      <trkpt lat="42.3064340" lon="-8.6053760">
        <ele>63.5</ele>
        <time>2021-05-21T07:17:44Z</time>
      </trkpt>
      <trkpt lat="42.3064370" lon="-8.6053740">
        <ele>63.5</ele>
        <time>2021-05-21T07:17:45Z</time>
      </trkpt>
      <trkpt lat="42.3064450" lon="-8.6053800">
        <ele>63.5</ele>
        <time>2021-05-21T07:17:46Z</time>
      </trkpt>
      <trkpt lat="42.3064460" lon="-8.6053680">
        <ele>63.5</ele>
        <time>2021-05-21T07:17:47Z</time>
      </trkpt>
      <trkpt lat="42.3064410" lon="-8.6053620">
        <ele>63.5</ele>
        <time>2021-05-21T07:17:48Z</time>
      </trkpt>
      <trkpt lat="42.3064380" lon="-8.6053730">
        <ele>63.5</ele>
        <time>2021-05-21T07:17:49Z</time>
      </trkpt>
      <trkpt lat="42.3064390" lon="-8.6053920">
        <ele>63.6</ele>
        <time>2021-05-21T07:17:50Z</time>
      </trkpt>
      <trkpt lat="42.3064360" lon="-8.6054000">
        <ele>63.6</ele>
        <time>2021-05-21T07:17:51Z</time>
      </trkpt>
      <trkpt lat="42.3064280" lon="-8.6054010">
        <ele>63.6</ele>
        <time>2021-05-21T07:17:52Z</time>
      </trkpt>
      <trkpt lat="42.3064330" lon="-8.6054120">
        <ele>63.6</ele>
        <time>2021-05-21T07:17:53Z</time>
      </trkpt>
      <trkpt lat="42.3064370" lon="-8.6054230">
        <ele>63.6</ele>
        <time>2021-05-21T07:17:54Z</time>
      </trkpt>
      <trkpt lat="42.3064350" lon="-8.6054490">
        <ele>63.6</ele>
        <time>2021-05-21T07:17:55Z</time>
      </trkpt>
      <trkpt lat="42.3064320" lon="-8.6054620">
        <ele>63.7</ele>
        <time>2021-05-21T07:17:56Z</time>
      </trkpt>
      <trkpt lat="42.3064290" lon="-8.6054760">
        <ele>63.7</ele>
        <time>2021-05-21T07:17:57Z</time>
      </trkpt>
      <trkpt lat="42.3064320" lon="-8.6054740">
        <ele>63.7</ele>
        <time>2021-05-21T07:17:58Z</time>
      </trkpt>
      <trkpt lat="42.3064370" lon="-8.6054800">
        <ele>63.7</ele>
        <time>2021-05-21T07:17:59Z</time>
      </trkpt>
      <trkpt lat="42.3064330" lon="-8.6054720">
        <ele>63.7</ele>
        <time>2021-05-21T07:18:00Z</time>
      </trkpt>
      <trkpt lat="42.3064260" lon="-8.6054410">
        <ele>63.8</ele>
        <time>2021-05-21T07:18:01Z</time>
      </trkpt>
      <trkpt lat="42.3064190" lon="-8.6054320">
        <ele>63.8</ele>
        <time>2021-05-21T07:18:02Z</time>
      </trkpt>
      <trkpt lat="42.3064120" lon="-8.6054270">
        <ele>63.8</ele>
        <time>2021-05-21T07:18:03Z</time>
      </trkpt>
      <trkpt lat="42.3064120" lon="-8.6054210">
        <ele>63.8</ele>
        <time>2021-05-21T07:18:04Z</time>
      </trkpt>
      <trkpt lat="42.3064100" lon="-8.6054220">
        <ele>63.8</ele>
        <time>2021-05-21T07:18:05Z</time>
      </trkpt>
      <trkpt lat="42.3064070" lon="-8.6054260">
        <ele>63.8</ele>
        <time>2021-05-21T07:18:06Z</time>
      </trkpt>
      <trkpt lat="42.3064070" lon="-8.6054230">
        <ele>63.8</ele>
        <time>2021-05-21T07:18:07Z</time>
      </trkpt>
      <trkpt lat="42.3064070" lon="-8.6054140">
        <ele>63.8</ele>
        <time>2021-05-21T07:18:08Z</time>
      </trkpt>
      <trkpt lat="42.3064080" lon="-8.6054140">
        <ele>63.8</ele>
        <time>2021-05-21T07:18:09Z</time>
      </trkpt>
      <trkpt lat="42.3064080" lon="-8.6054140">
        <ele>63.8</ele>
        <time>2021-05-21T07:18:10Z</time>
      </trkpt>
      <trkpt lat="42.3064100" lon="-8.6054290">
        <ele>63.8</ele>
        <time>2021-05-21T07:18:11Z</time>
      </trkpt>
      <trkpt lat="42.3064130" lon="-8.6054280">
        <ele>63.9</ele>
        <time>2021-05-21T07:18:12Z</time>
      </trkpt>
      <trkpt lat="42.3064150" lon="-8.6054300">
        <ele>63.9</ele>
        <time>2021-05-21T07:18:13Z</time>
      </trkpt>
      <trkpt lat="42.3064140" lon="-8.6054250">
        <ele>63.9</ele>
        <time>2021-05-21T07:18:14Z</time>
      </trkpt>
      <trkpt lat="42.3064120" lon="-8.6054260">
        <ele>63.9</ele>
        <time>2021-05-21T07:18:15Z</time>
      </trkpt>
      <trkpt lat="42.3064100" lon="-8.6054190">
        <ele>63.9</ele>
        <time>2021-05-21T07:18:16Z</time>
      </trkpt>
      <trkpt lat="42.3064070" lon="-8.6054180">
        <ele>63.9</ele>
        <time>2021-05-21T07:18:17Z</time>
      </trkpt>
      <trkpt lat="42.3064060" lon="-8.6054120">
        <ele>63.9</ele>
        <time>2021-05-21T07:18:18Z</time>
      </trkpt>
      <trkpt lat="42.3064050" lon="-8.6054150">
        <ele>63.9</ele>
        <time>2021-05-21T07:18:19Z</time>
      </trkpt>
      <trkpt lat="42.3064010" lon="-8.6054010">
        <ele>63.9</ele>
        <time>2021-05-21T07:18:20Z</time>
      </trkpt>
      <trkpt lat="42.3064020" lon="-8.6054040">
        <ele>63.9</ele>
        <time>2021-05-21T07:18:21Z</time>
      </trkpt>
      <trkpt lat="42.3064030" lon="-8.6054000">
        <ele>63.9</ele>
        <time>2021-05-21T07:18:22Z</time>
      </trkpt>
      <trkpt lat="42.3063980" lon="-8.6053880">
        <ele>64.0</ele>
        <time>2021-05-21T07:18:23Z</time>
      </trkpt>
      <trkpt lat="42.3064030" lon="-8.6053830">
        <ele>64.0</ele>
        <time>2021-05-21T07:18:24Z</time>
      </trkpt>
      <trkpt lat="42.3064040" lon="-8.6054030">
        <ele>64.0</ele>
        <time>2021-05-21T07:18:25Z</time>
      </trkpt>
      <trkpt lat="42.3064020" lon="-8.6054030">
        <ele>64.0</ele>
        <time>2021-05-21T07:18:26Z</time>
      </trkpt>
      <trkpt lat="42.3064030" lon="-8.6054120">
        <ele>64.0</ele>
        <time>2021-05-21T07:18:27Z</time>
      </trkpt>
      <trkpt lat="42.3064060" lon="-8.6054170">
        <ele>64.0</ele>
        <time>2021-05-21T07:18:28Z</time>
      </trkpt>
      <trkpt lat="42.3064130" lon="-8.6054180">
        <ele>64.1</ele>
        <time>2021-05-21T07:18:29Z</time>
      </trkpt>
      <trkpt lat="42.3064100" lon="-8.6054130">
        <ele>64.1</ele>
        <time>2021-05-21T07:18:30Z</time>
      </trkpt>
      <trkpt lat="42.3064110" lon="-8.6054040">
        <ele>64.1</ele>
        <time>2021-05-21T07:18:31Z</time>
      </trkpt>
      <trkpt lat="42.3064130" lon="-8.6053910">
        <ele>64.1</ele>
        <time>2021-05-21T07:18:32Z</time>
      </trkpt>
      <trkpt lat="42.3064130" lon="-8.6053910">
        <ele>64.1</ele>
        <time>2021-05-21T07:18:33Z</time>
      </trkpt>
      <trkpt lat="42.3064130" lon="-8.6053910">
        <ele>64.1</ele>
        <time>2021-05-21T07:18:34Z</time>
      </trkpt>
      <trkpt lat="42.3064100" lon="-8.6053740">
        <ele>64.1</ele>
        <time>2021-05-21T07:18:35Z</time>
      </trkpt>
      <trkpt lat="42.3064150" lon="-8.6053660">
        <ele>64.1</ele>
        <time>2021-05-21T07:18:36Z</time>
      </trkpt>
      <trkpt lat="42.3064160" lon="-8.6053660">
        <ele>64.1</ele>
        <time>2021-05-21T07:18:37Z</time>
      </trkpt>
      <trkpt lat="42.3064200" lon="-8.6053530">
        <ele>64.2</ele>
        <time>2021-05-21T07:18:38Z</time>
      </trkpt>
      <trkpt lat="42.3064180" lon="-8.6053450">
        <ele>64.2</ele>
        <time>2021-05-21T07:18:39Z</time>
      </trkpt>
      <trkpt lat="42.3064210" lon="-8.6053470">
        <ele>64.2</ele>
        <time>2021-05-21T07:18:40Z</time>
      </trkpt>
      <trkpt lat="42.3064210" lon="-8.6053500">
        <ele>64.2</ele>
        <time>2021-05-21T07:18:41Z</time>
      </trkpt>
      <trkpt lat="42.3064150" lon="-8.6053610">
        <ele>64.2</ele>
        <time>2021-05-21T07:18:42Z</time>
      </trkpt>
      <trkpt lat="42.3064110" lon="-8.6053720">
        <ele>64.3</ele>
        <time>2021-05-21T07:18:43Z</time>
      </trkpt>
      <trkpt lat="42.3064240" lon="-8.6053770">
        <ele>64.3</ele>
        <time>2021-05-21T07:18:44Z</time>
      </trkpt>
      <trkpt lat="42.3064290" lon="-8.6053950">
        <ele>64.3</ele>
        <time>2021-05-21T07:18:45Z</time>
      </trkpt>
      <trkpt lat="42.3064320" lon="-8.6054010">
        <ele>64.3</ele>
        <time>2021-05-21T07:18:46Z</time>
      </trkpt>
      <trkpt lat="42.3064450" lon="-8.6054110">
        <ele>64.4</ele>
        <time>2021-05-21T07:18:47Z</time>
      </trkpt>
      <trkpt lat="42.3064610" lon="-8.6054230">
        <ele>64.4</ele>
        <time>2021-05-21T07:18:48Z</time>
      </trkpt>
      <trkpt lat="42.3064660" lon="-8.6054290">
        <ele>64.4</ele>
        <time>2021-05-21T07:18:49Z</time>
      </trkpt>
      <trkpt lat="42.3064690" lon="-8.6054370">
        <ele>64.5</ele>
        <time>2021-05-21T07:18:50Z</time>
      </trkpt>
      <trkpt lat="42.3064620" lon="-8.6054370">
        <ele>64.5</ele>
        <time>2021-05-21T07:18:51Z</time>
      </trkpt>
      <trkpt lat="42.3064620" lon="-8.6054330">
        <ele>64.5</ele>
        <time>2021-05-21T07:18:52Z</time>
      </trkpt>
      <trkpt lat="42.3064600" lon="-8.6054250">
        <ele>64.5</ele>
        <time>2021-05-21T07:18:53Z</time>
      </trkpt>
      <trkpt lat="42.3064480" lon="-8.6053990">
        <ele>64.6</ele>
        <time>2021-05-21T07:18:54Z</time>
      </trkpt>
      <trkpt lat="42.3064480" lon="-8.6053900">
        <ele>64.6</ele>
        <time>2021-05-21T07:18:55Z</time>
      </trkpt>
      <trkpt lat="42.3064660" lon="-8.6053740">
        <ele>64.7</ele>
        <time>2021-05-21T07:18:56Z</time>
      </trkpt>
      <trkpt lat="42.3064750" lon="-8.6053600">
        <ele>64.7</ele>
        <time>2021-05-21T07:18:57Z</time>
      </trkpt>
      <trkpt lat="42.3064800" lon="-8.6053460">
        <ele>64.7</ele>
        <time>2021-05-21T07:18:58Z</time>
      </trkpt>
      <trkpt lat="42.3064830" lon="-8.6053210">
        <ele>64.8</ele>
        <time>2021-05-21T07:18:59Z</time>
      </trkpt>
      <trkpt lat="42.3064830" lon="-8.6053080">
        <ele>64.8</ele>
        <time>2021-05-21T07:19:00Z</time>
      </trkpt>
      <trkpt lat="42.3064910" lon="-8.6052980">
        <ele>64.9</ele>
        <time>2021-05-21T07:19:01Z</time>
      </trkpt>
      <trkpt lat="42.3065030" lon="-8.6052870">
        <ele>64.9</ele>
        <time>2021-05-21T07:19:02Z</time>
      </trkpt>
      <trkpt lat="42.3065080" lon="-8.6052740">
        <ele>64.9</ele>
        <time>2021-05-21T07:19:03Z</time>
      </trkpt>
      <trkpt lat="42.3065090" lon="-8.6052680">
        <ele>65.0</ele>
        <time>2021-05-21T07:19:04Z</time>
      </trkpt>
      <trkpt lat="42.3065180" lon="-8.6052520">
        <ele>65.0</ele>
        <time>2021-05-21T07:19:05Z</time>
      </trkpt>
      <trkpt lat="42.3065290" lon="-8.6052340">
        <ele>65.1</ele>
        <time>2021-05-21T07:19:06Z</time>
      </trkpt>
      <trkpt lat="42.3065330" lon="-8.6052260">
        <ele>65.1</ele>
        <time>2021-05-21T07:19:07Z</time>
      </trkpt>
      <trkpt lat="42.3065360" lon="-8.6052170">
        <ele>65.1</ele>
        <time>2021-05-21T07:19:08Z</time>
      </trkpt>
      <trkpt lat="42.3065390" lon="-8.6052090">
        <ele>65.1</ele>
        <time>2021-05-21T07:19:09Z</time>
      </trkpt>
      <trkpt lat="42.3065440" lon="-8.6051910">
        <ele>65.2</ele>
        <time>2021-05-21T07:19:10Z</time>
      </trkpt>
      <trkpt lat="42.3065470" lon="-8.6051830">
        <ele>65.2</ele>
        <time>2021-05-21T07:19:11Z</time>
      </trkpt>
      <trkpt lat="42.3065510" lon="-8.6051710">
        <ele>65.3</ele>
        <time>2021-05-21T07:19:12Z</time>
      </trkpt>
      <trkpt lat="42.3065640" lon="-8.6051610">
        <ele>65.3</ele>
        <time>2021-05-21T07:19:13Z</time>
      </trkpt>
      <trkpt lat="42.3065790" lon="-8.6051530">
        <ele>65.4</ele>
        <time>2021-05-21T07:19:14Z</time>
      </trkpt>
      <trkpt lat="42.3065910" lon="-8.6051390">
        <ele>65.4</ele>
        <time>2021-05-21T07:19:15Z</time>
      </trkpt>
      <trkpt lat="42.3065940" lon="-8.6051380">
        <ele>65.4</ele>
        <time>2021-05-21T07:19:16Z</time>
      </trkpt>
      <trkpt lat="42.3066030" lon="-8.6051280">
        <ele>65.5</ele>
        <time>2021-05-21T07:19:17Z</time>
      </trkpt>
      <trkpt lat="42.3066110" lon="-8.6051200">
        <ele>65.5</ele>
        <time>2021-05-21T07:19:18Z</time>
      </trkpt>
      <trkpt lat="42.3066270" lon="-8.6051100">
        <ele>65.6</ele>
        <time>2021-05-21T07:19:19Z</time>
      </trkpt>
      <trkpt lat="42.3066350" lon="-8.6050870">
        <ele>65.7</ele>
        <time>2021-05-21T07:19:20Z</time>
      </trkpt>
      <trkpt lat="42.3066430" lon="-8.6050770">
        <ele>65.7</ele>
        <time>2021-05-21T07:19:21Z</time>
      </trkpt>
      <trkpt lat="42.3066500" lon="-8.6050670">
        <ele>65.8</ele>
        <time>2021-05-21T07:19:22Z</time>
      </trkpt>
      <trkpt lat="42.3066680" lon="-8.6050520">
        <ele>65.8</ele>
        <time>2021-05-21T07:19:23Z</time>
      </trkpt>
      <trkpt lat="42.3066750" lon="-8.6050450">
        <ele>65.9</ele>
        <time>2021-05-21T07:19:24Z</time>
      </trkpt>
      <trkpt lat="42.3066820" lon="-8.6050380">
        <ele>65.9</ele>
        <time>2021-05-21T07:19:25Z</time>
      </trkpt>
      <trkpt lat="42.3066930" lon="-8.6050140">
        <ele>66.0</ele>
        <time>2021-05-21T07:19:26Z</time>
      </trkpt>
      <trkpt lat="42.3066980" lon="-8.6050060">
        <ele>66.0</ele>
        <time>2021-05-21T07:19:27Z</time>
      </trkpt>
      <trkpt lat="42.3067030" lon="-8.6049970">
        <ele>66.1</ele>
        <time>2021-05-21T07:19:28Z</time>
      </trkpt>
      <trkpt lat="42.3067120" lon="-8.6049890">
        <ele>66.1</ele>
        <time>2021-05-21T07:19:29Z</time>
      </trkpt>
      <trkpt lat="42.3067210" lon="-8.6049840">
        <ele>66.2</ele>
        <time>2021-05-21T07:19:30Z</time>
      </trkpt>
      <trkpt lat="42.3067290" lon="-8.6049710">
        <ele>66.2</ele>
        <time>2021-05-21T07:19:31Z</time>
      </trkpt>
      <trkpt lat="42.3067520" lon="-8.6049500">
        <ele>66.3</ele>
        <time>2021-05-21T07:19:32Z</time>
      </trkpt>
      <trkpt lat="42.3067630" lon="-8.6049430">
        <ele>66.4</ele>
        <time>2021-05-21T07:19:33Z</time>
      </trkpt>
      <trkpt lat="42.3067740" lon="-8.6049310">
        <ele>66.5</ele>
        <time>2021-05-21T07:19:34Z</time>
      </trkpt>
      <trkpt lat="42.3067780" lon="-8.6049210">
        <ele>66.5</ele>
        <time>2021-05-21T07:19:35Z</time>
      </trkpt>
      <trkpt lat="42.3067830" lon="-8.6049140">
        <ele>66.5</ele>
        <time>2021-05-21T07:19:36Z</time>
      </trkpt>
      <trkpt lat="42.3067920" lon="-8.6049070">
        <ele>66.6</ele>
        <time>2021-05-21T07:19:37Z</time>
      </trkpt>
      <trkpt lat="42.3067960" lon="-8.6048980">
        <ele>66.6</ele>
        <time>2021-05-21T07:19:38Z</time>
      </trkpt>
      <trkpt lat="42.3067970" lon="-8.6048960">
        <ele>66.6</ele>
        <time>2021-05-21T07:19:39Z</time>
      </trkpt>
      <trkpt lat="42.3068110" lon="-8.6049020">
        <ele>66.7</ele>
        <time>2021-05-21T07:19:40Z</time>
      </trkpt>
      <trkpt lat="42.3068280" lon="-8.6049120">
        <ele>68.1</ele>
        <time>2021-05-21T07:19:41Z</time>
      </trkpt>
      <trkpt lat="42.3068340" lon="-8.6049180">
        <ele>68.1</ele>
        <time>2021-05-21T07:19:42Z</time>
      </trkpt>
      <trkpt lat="42.3068390" lon="-8.6049230">
        <ele>68.1</ele>
        <time>2021-05-21T07:19:43Z</time>
      </trkpt>
      <trkpt lat="42.3068450" lon="-8.6049290">
        <ele>68.1</ele>
        <time>2021-05-21T07:19:44Z</time>
      </trkpt>
      <trkpt lat="42.3068590" lon="-8.6049490">
        <ele>68.1</ele>
        <time>2021-05-21T07:19:45Z</time>
      </trkpt>
      <trkpt lat="42.3068630" lon="-8.6049590">
        <ele>68.2</ele>
        <time>2021-05-21T07:19:46Z</time>
      </trkpt>
      <trkpt lat="42.3068670" lon="-8.6049690">
        <ele>68.2</ele>
        <time>2021-05-21T07:19:47Z</time>
      </trkpt>
      <trkpt lat="42.3068780" lon="-8.6049810">
        <ele>68.2</ele>
        <time>2021-05-21T07:19:48Z</time>
      </trkpt>
      <trkpt lat="42.3068840" lon="-8.6049890">
        <ele>68.2</ele>
        <time>2021-05-21T07:19:49Z</time>
      </trkpt>
      <trkpt lat="42.3068930" lon="-8.6050020">
        <ele>68.2</ele>
        <time>2021-05-21T07:19:50Z</time>
      </trkpt>
      <trkpt lat="42.3069080" lon="-8.6050160">
        <ele>68.3</ele>
        <time>2021-05-21T07:19:51Z</time>
      </trkpt>
      <trkpt lat="42.3069150" lon="-8.6050270">
        <ele>68.3</ele>
        <time>2021-05-21T07:19:52Z</time>
      </trkpt>
      <trkpt lat="42.3069260" lon="-8.6050460">
        <ele>68.3</ele>
        <time>2021-05-21T07:19:53Z</time>
      </trkpt>
      <trkpt lat="42.3069330" lon="-8.6050570">
        <ele>68.4</ele>
        <time>2021-05-21T07:19:54Z</time>
      </trkpt>
      <trkpt lat="42.3069400" lon="-8.6050690">
        <ele>68.4</ele>
        <time>2021-05-21T07:19:55Z</time>
      </trkpt>
      <trkpt lat="42.3069500" lon="-8.6050840">
        <ele>68.4</ele>
        <time>2021-05-21T07:19:56Z</time>
      </trkpt>
      <trkpt lat="42.3069510" lon="-8.6051000">
        <ele>68.4</ele>
        <time>2021-05-21T07:19:57Z</time>
      </trkpt>
      <trkpt lat="42.3069560" lon="-8.6051120">
        <ele>68.5</ele>
        <time>2021-05-21T07:19:58Z</time>
      </trkpt>
      <trkpt lat="42.3069640" lon="-8.6051180">
        <ele>68.5</ele>
        <time>2021-05-21T07:19:59Z</time>
      </trkpt>
      <trkpt lat="42.3069680" lon="-8.6051300">
        <ele>68.5</ele>
        <time>2021-05-21T07:20:00Z</time>
      </trkpt>
      <trkpt lat="42.3069650" lon="-8.6051320">
        <ele>68.5</ele>
        <time>2021-05-21T07:20:01Z</time>
      </trkpt>
      <trkpt lat="42.3069660" lon="-8.6051370">
        <ele>68.5</ele>
        <time>2021-05-21T07:20:02Z</time>
      </trkpt>
      <trkpt lat="42.3069700" lon="-8.6051470">
        <ele>68.5</ele>
        <time>2021-05-21T07:20:03Z</time>
      </trkpt>
      <trkpt lat="42.3069800" lon="-8.6051560">
        <ele>68.6</ele>
        <time>2021-05-21T07:20:04Z</time>
      </trkpt>
      <trkpt lat="42.3069890" lon="-8.6051590">
        <ele>68.6</ele>
        <time>2021-05-21T07:20:05Z</time>
      </trkpt>
      <trkpt lat="42.3070030" lon="-8.6051500">
        <ele>68.6</ele>
        <time>2021-05-21T07:20:06Z</time>
      </trkpt>
      <trkpt lat="42.3070290" lon="-8.6051300">
        <ele>68.7</ele>
        <time>2021-05-21T07:20:07Z</time>
      </trkpt>
      <trkpt lat="42.3070370" lon="-8.6051230">
        <ele>68.7</ele>
        <time>2021-05-21T07:20:08Z</time>
      </trkpt>
      <trkpt lat="42.3070480" lon="-8.6051150">
        <ele>68.8</ele>
        <time>2021-05-21T07:20:09Z</time>
      </trkpt>
      <trkpt lat="42.3070640" lon="-8.6051050">
        <ele>68.8</ele>
        <time>2021-05-21T07:20:10Z</time>
      </trkpt>
      <trkpt lat="42.3070740" lon="-8.6050970">
        <ele>68.8</ele>
        <time>2021-05-21T07:20:11Z</time>
      </trkpt>
      <trkpt lat="42.3070910" lon="-8.6050830">
        <ele>68.9</ele>
        <time>2021-05-21T07:20:12Z</time>
      </trkpt>
      <trkpt lat="42.3071060" lon="-8.6050750">
        <ele>69.0</ele>
        <time>2021-05-21T07:20:13Z</time>
      </trkpt>
      <trkpt lat="42.3071160" lon="-8.6050680">
        <ele>69.0</ele>
        <time>2021-05-21T07:20:14Z</time>
      </trkpt>
      <trkpt lat="42.3071300" lon="-8.6050610">
        <ele>69.0</ele>
        <time>2021-05-21T07:20:15Z</time>
      </trkpt>
      <trkpt lat="42.3071440" lon="-8.6050480">
        <ele>69.1</ele>
        <time>2021-05-21T07:20:16Z</time>
      </trkpt>
      <trkpt lat="42.3071550" lon="-8.6050420">
        <ele>69.2</ele>
        <time>2021-05-21T07:20:17Z</time>
      </trkpt>
      <trkpt lat="42.3071680" lon="-8.6050260">
        <ele>69.2</ele>
        <time>2021-05-21T07:20:18Z</time>
      </trkpt>
      <trkpt lat="42.3071780" lon="-8.6050100">
        <ele>69.3</ele>
        <time>2021-05-21T07:20:19Z</time>
      </trkpt>
      <trkpt lat="42.3071920" lon="-8.6049940">
        <ele>69.4</ele>
        <time>2021-05-21T07:20:20Z</time>
      </trkpt>
      <trkpt lat="42.3072020" lon="-8.6049910">
        <ele>69.4</ele>
        <time>2021-05-21T07:20:21Z</time>
      </trkpt>
      <trkpt lat="42.3072100" lon="-8.6049770">
        <ele>69.5</ele>
        <time>2021-05-21T07:20:22Z</time>
      </trkpt>
      <trkpt lat="42.3072120" lon="-8.6049650">
        <ele>69.5</ele>
        <time>2021-05-21T07:20:23Z</time>
      </trkpt>
      <trkpt lat="42.3072250" lon="-8.6049570">
        <ele>69.6</ele>
        <time>2021-05-21T07:20:24Z</time>
      </trkpt>
      <trkpt lat="42.3072380" lon="-8.6049510">
        <ele>69.6</ele>
        <time>2021-05-21T07:20:25Z</time>
      </trkpt>
      <trkpt lat="42.3072480" lon="-8.6049380">
        <ele>69.7</ele>
        <time>2021-05-21T07:20:26Z</time>
      </trkpt>
      <trkpt lat="42.3072610" lon="-8.6049230">
        <ele>69.8</ele>
        <time>2021-05-21T07:20:27Z</time>
      </trkpt>
      <trkpt lat="42.3072780" lon="-8.6049070">
        <ele>69.9</ele>
        <time>2021-05-21T07:20:28Z</time>
      </trkpt>
      <trkpt lat="42.3072860" lon="-8.6049020">
        <ele>69.9</ele>
        <time>2021-05-21T07:20:29Z</time>
      </trkpt>
      <trkpt lat="42.3072940" lon="-8.6048970">
        <ele>70.0</ele>
        <time>2021-05-21T07:20:30Z</time>
      </trkpt>
      <trkpt lat="42.3073080" lon="-8.6048900">
        <ele>70.0</ele>
        <time>2021-05-21T07:20:31Z</time>
      </trkpt>
      <trkpt lat="42.3073250" lon="-8.6048810">
        <ele>70.1</ele>
        <time>2021-05-21T07:20:32Z</time>
      </trkpt>
      <trkpt lat="42.3073380" lon="-8.6048730">
        <ele>70.2</ele>
        <time>2021-05-21T07:20:33Z</time>
      </trkpt>
      <trkpt lat="42.3073510" lon="-8.6048660">
        <ele>70.3</ele>
        <time>2021-05-21T07:20:34Z</time>
      </trkpt>
      <trkpt lat="42.3073660" lon="-8.6048620">
        <ele>70.3</ele>
        <time>2021-05-21T07:20:35Z</time>
      </trkpt>
      <trkpt lat="42.3073720" lon="-8.6048480">
        <ele>70.4</ele>
        <time>2021-05-21T07:20:36Z</time>
      </trkpt>
      <trkpt lat="42.3073810" lon="-8.6048450">
        <ele>70.4</ele>
        <time>2021-05-21T07:20:37Z</time>
      </trkpt>
      <trkpt lat="42.3073860" lon="-8.6048320">
        <ele>70.5</ele>
        <time>2021-05-21T07:20:38Z</time>
      </trkpt>
      <trkpt lat="42.3073970" lon="-8.6048260">
        <ele>70.6</ele>
        <time>2021-05-21T07:20:39Z</time>
      </trkpt>
      <trkpt lat="42.3074070" lon="-8.6048210">
        <ele>70.6</ele>
        <time>2021-05-21T07:20:40Z</time>
      </trkpt>
      <trkpt lat="42.3074160" lon="-8.6048070">
        <ele>70.7</ele>
        <time>2021-05-21T07:20:41Z</time>
      </trkpt>
      <trkpt lat="42.3074220" lon="-8.6048020">
        <ele>70.7</ele>
        <time>2021-05-21T07:20:42Z</time>
      </trkpt>
      <trkpt lat="42.3074360" lon="-8.6047940">
        <ele>70.8</ele>
        <time>2021-05-21T07:20:43Z</time>
      </trkpt>
      <trkpt lat="42.3074500" lon="-8.6047880">
        <ele>70.9</ele>
        <time>2021-05-21T07:20:44Z</time>
      </trkpt>
      <trkpt lat="42.3074570" lon="-8.6047820">
        <ele>70.9</ele>
        <time>2021-05-21T07:20:45Z</time>
      </trkpt>
      <trkpt lat="42.3074680" lon="-8.6047730">
        <ele>71.0</ele>
        <time>2021-05-21T07:20:46Z</time>
      </trkpt>
      <trkpt lat="42.3074790" lon="-8.6047550">
        <ele>71.0</ele>
        <time>2021-05-21T07:20:47Z</time>
      </trkpt>
      <trkpt lat="42.3074880" lon="-8.6047480">
        <ele>71.1</ele>
        <time>2021-05-21T07:20:48Z</time>
      </trkpt>
      <trkpt lat="42.3074960" lon="-8.6047400">
        <ele>71.1</ele>
        <time>2021-05-21T07:20:49Z</time>
      </trkpt>
      <trkpt lat="42.3075060" lon="-8.6047390">
        <ele>71.2</ele>
        <time>2021-05-21T07:20:50Z</time>
      </trkpt>
      <trkpt lat="42.3075230" lon="-8.6047280">
        <ele>71.3</ele>
        <time>2021-05-21T07:20:51Z</time>
      </trkpt>
      <trkpt lat="42.3075400" lon="-8.6047090">
        <ele>71.4</ele>
        <time>2021-05-21T07:20:52Z</time>
      </trkpt>
      <trkpt lat="42.3075510" lon="-8.6047020">
        <ele>71.4</ele>
        <time>2021-05-21T07:20:53Z</time>
      </trkpt>
      <trkpt lat="42.3075620" lon="-8.6046950">
        <ele>71.5</ele>
        <time>2021-05-21T07:20:54Z</time>
      </trkpt>
      <trkpt lat="42.3075760" lon="-8.6046920">
        <ele>71.5</ele>
        <time>2021-05-21T07:20:55Z</time>
      </trkpt>
      <trkpt lat="42.3075860" lon="-8.6046850">
        <ele>71.6</ele>
        <time>2021-05-21T07:20:56Z</time>
      </trkpt>
      <trkpt lat="42.3075940" lon="-8.6046750">
        <ele>71.7</ele>
        <time>2021-05-21T07:20:57Z</time>
      </trkpt>
      <trkpt lat="42.3076050" lon="-8.6046620">
        <ele>71.7</ele>
        <time>2021-05-21T07:20:58Z</time>
      </trkpt>
      <trkpt lat="42.3076130" lon="-8.6046490">
        <ele>71.8</ele>
        <time>2021-05-21T07:20:59Z</time>
      </trkpt>
      <trkpt lat="42.3076330" lon="-8.6046290">
        <ele>71.9</ele>
        <time>2021-05-21T07:21:00Z</time>
      </trkpt>
      <trkpt lat="42.3076390" lon="-8.6046220">
        <ele>72.0</ele>
        <time>2021-05-21T07:21:01Z</time>
      </trkpt>
      <trkpt lat="42.3076450" lon="-8.6046150">
        <ele>72.0</ele>
        <time>2021-05-21T07:21:02Z</time>
      </trkpt>
      <trkpt lat="42.3076550" lon="-8.6046090">
        <ele>72.1</ele>
        <time>2021-05-21T07:21:03Z</time>
      </trkpt>
      <trkpt lat="42.3076700" lon="-8.6045990">
        <ele>72.1</ele>
        <time>2021-05-21T07:21:04Z</time>
      </trkpt>
      <trkpt lat="42.3076840" lon="-8.6045810">
        <ele>72.2</ele>
        <time>2021-05-21T07:21:05Z</time>
      </trkpt>
      <trkpt lat="42.3076880" lon="-8.6045750">
        <ele>72.3</ele>
        <time>2021-05-21T07:21:06Z</time>
      </trkpt>
      <trkpt lat="42.3076930" lon="-8.6045680">
        <ele>72.3</ele>
        <time>2021-05-21T07:21:07Z</time>
      </trkpt>
      <trkpt lat="42.3076970" lon="-8.6045620">
        <ele>72.3</ele>
        <time>2021-05-21T07:21:08Z</time>
      </trkpt>
      <trkpt lat="42.3077100" lon="-8.6045370">
        <ele>72.5</ele>
        <time>2021-05-21T07:21:09Z</time>
      </trkpt>
      <trkpt lat="42.3077140" lon="-8.6045260">
        <ele>72.5</ele>
        <time>2021-05-21T07:21:10Z</time>
      </trkpt>
      <trkpt lat="42.3077190" lon="-8.6045160">
        <ele>72.6</ele>
        <time>2021-05-21T07:21:11Z</time>
      </trkpt>
      <trkpt lat="42.3077220" lon="-8.6045040">
        <ele>72.6</ele>
        <time>2021-05-21T07:21:12Z</time>
      </trkpt>
      <trkpt lat="42.3077300" lon="-8.6044930">
        <ele>72.7</ele>
        <time>2021-05-21T07:21:13Z</time>
      </trkpt>
      <trkpt lat="42.3077380" lon="-8.6044760">
        <ele>72.8</ele>
        <time>2021-05-21T07:21:14Z</time>
      </trkpt>
      <trkpt lat="42.3077440" lon="-8.6044630">
        <ele>72.8</ele>
        <time>2021-05-21T07:21:15Z</time>
      </trkpt>
      <trkpt lat="42.3077390" lon="-8.6044470">
        <ele>72.9</ele>
        <time>2021-05-21T07:21:16Z</time>
      </trkpt>
      <trkpt lat="42.3077460" lon="-8.6044310">
        <ele>73.0</ele>
        <time>2021-05-21T07:21:17Z</time>
      </trkpt>
      <trkpt lat="42.3077500" lon="-8.6044130">
        <ele>73.0</ele>
        <time>2021-05-21T07:21:18Z</time>
      </trkpt>
      <trkpt lat="42.3077580" lon="-8.6043980">
        <ele>73.1</ele>
        <time>2021-05-21T07:21:19Z</time>
      </trkpt>
      <trkpt lat="42.3077630" lon="-8.6043790">
        <ele>73.2</ele>
        <time>2021-05-21T07:21:20Z</time>
      </trkpt>
      <trkpt lat="42.3077720" lon="-8.6043630">
        <ele>73.3</ele>
        <time>2021-05-21T07:21:21Z</time>
      </trkpt>
      <trkpt lat="42.3077770" lon="-8.6043420">
        <ele>73.4</ele>
        <time>2021-05-21T07:21:22Z</time>
      </trkpt>
      <trkpt lat="42.3077840" lon="-8.6043250">
        <ele>73.5</ele>
        <time>2021-05-21T07:21:23Z</time>
      </trkpt>
      <trkpt lat="42.3077920" lon="-8.6043100">
        <ele>73.6</ele>
        <time>2021-05-21T07:21:24Z</time>
      </trkpt>
      <trkpt lat="42.3077970" lon="-8.6042940">
        <ele>73.6</ele>
        <time>2021-05-21T07:21:25Z</time>
      </trkpt>
      <trkpt lat="42.3077950" lon="-8.6042840">
        <ele>73.7</ele>
        <time>2021-05-21T07:21:26Z</time>
      </trkpt>
      <trkpt lat="42.3078030" lon="-8.6042640">
        <ele>73.8</ele>
        <time>2021-05-21T07:21:27Z</time>
      </trkpt>
      <trkpt lat="42.3078030" lon="-8.6042500">
        <ele>73.8</ele>
        <time>2021-05-21T07:21:28Z</time>
      </trkpt>
      <trkpt lat="42.3078040" lon="-8.6042350">
        <ele>73.9</ele>
        <time>2021-05-21T07:21:29Z</time>
      </trkpt>
      <trkpt lat="42.3078180" lon="-8.6042050">
        <ele>74.1</ele>
        <time>2021-05-21T07:21:30Z</time>
      </trkpt>
      <trkpt lat="42.3078210" lon="-8.6041910">
        <ele>74.1</ele>
        <time>2021-05-21T07:21:31Z</time>
      </trkpt>
      <trkpt lat="42.3078280" lon="-8.6041850">
        <ele>74.2</ele>
        <time>2021-05-21T07:21:32Z</time>
      </trkpt>
      <trkpt lat="42.3078350" lon="-8.6041710">
        <ele>74.3</ele>
        <time>2021-05-21T07:21:33Z</time>
      </trkpt>
      <trkpt lat="42.3078370" lon="-8.6041550">
        <ele>74.3</ele>
        <time>2021-05-21T07:21:34Z</time>
      </trkpt>
      <trkpt lat="42.3078390" lon="-8.6041290">
        <ele>74.5</ele>
        <time>2021-05-21T07:21:35Z</time>
      </trkpt>
      <trkpt lat="42.3078470" lon="-8.6041100">
        <ele>74.6</ele>
        <time>2021-05-21T07:21:36Z</time>
      </trkpt>
      <trkpt lat="42.3078500" lon="-8.6040860">
        <ele>74.7</ele>
        <time>2021-05-21T07:21:37Z</time>
      </trkpt>
      <trkpt lat="42.3078540" lon="-8.6040630">
        <ele>74.8</ele>
        <time>2021-05-21T07:21:38Z</time>
      </trkpt>
      <trkpt lat="42.3078620" lon="-8.6040530">
        <ele>74.9</ele>
        <time>2021-05-21T07:21:39Z</time>
      </trkpt>
      <trkpt lat="42.3078680" lon="-8.6040390">
        <ele>74.9</ele>
        <time>2021-05-21T07:21:40Z</time>
      </trkpt>
      <trkpt lat="42.3078690" lon="-8.6040260">
        <ele>75.0</ele>
        <time>2021-05-21T07:21:41Z</time>
      </trkpt>
      <trkpt lat="42.3078780" lon="-8.6040130">
        <ele>75.1</ele>
        <time>2021-05-21T07:21:42Z</time>
      </trkpt>
      <trkpt lat="42.3078860" lon="-8.6040040">
        <ele>75.1</ele>
        <time>2021-05-21T07:21:43Z</time>
      </trkpt>
      <trkpt lat="42.3078940" lon="-8.6039940">
        <ele>75.2</ele>
        <time>2021-05-21T07:21:44Z</time>
      </trkpt>
      <trkpt lat="42.3079020" lon="-8.6039850">
        <ele>75.2</ele>
        <time>2021-05-21T07:21:45Z</time>
      </trkpt>
      <trkpt lat="42.3079160" lon="-8.6039690">
        <ele>75.3</ele>
        <time>2021-05-21T07:21:46Z</time>
      </trkpt>
      <trkpt lat="42.3079230" lon="-8.6039490">
        <ele>75.4</ele>
        <time>2021-05-21T07:21:47Z</time>
      </trkpt>
      <trkpt lat="42.3079330" lon="-8.6039340">
        <ele>75.5</ele>
        <time>2021-05-21T07:21:48Z</time>
      </trkpt>
      <trkpt lat="42.3079410" lon="-8.6039150">
        <ele>75.5</ele>
        <time>2021-05-21T07:21:49Z</time>
      </trkpt>
      <trkpt lat="42.3079410" lon="-8.6039050">
        <ele>75.6</ele>
        <time>2021-05-21T07:21:50Z</time>
      </trkpt>
      <trkpt lat="42.3079530" lon="-8.6038920">
        <ele>75.6</ele>
        <time>2021-05-21T07:21:51Z</time>
      </trkpt>
      <trkpt lat="42.3079580" lon="-8.6038780">
        <ele>75.7</ele>
        <time>2021-05-21T07:21:52Z</time>
      </trkpt>
      <trkpt lat="42.3079720" lon="-8.6038530">
        <ele>75.7</ele>
        <time>2021-05-21T07:21:53Z</time>
      </trkpt>
      <trkpt lat="42.3079790" lon="-8.6038470">
        <ele>75.8</ele>
        <time>2021-05-21T07:21:54Z</time>
      </trkpt>
      <trkpt lat="42.3079860" lon="-8.6038400">
        <ele>75.8</ele>
        <time>2021-05-21T07:21:55Z</time>
      </trkpt>
      <trkpt lat="42.3079930" lon="-8.6038290">
        <ele>75.8</ele>
        <time>2021-05-21T07:21:56Z</time>
      </trkpt>
      <trkpt lat="42.3080030" lon="-8.6038120">
        <ele>75.8</ele>
        <time>2021-05-21T07:21:57Z</time>
      </trkpt>
      <trkpt lat="42.3080050" lon="-8.6038050">
        <ele>75.9</ele>
        <time>2021-05-21T07:21:58Z</time>
      </trkpt>
      <trkpt lat="42.3080230" lon="-8.6037820">
        <ele>75.9</ele>
        <time>2021-05-21T07:21:59Z</time>
      </trkpt>
      <trkpt lat="42.3080380" lon="-8.6037730">
        <ele>75.9</ele>
        <time>2021-05-21T07:22:00Z</time>
      </trkpt>
      <trkpt lat="42.3080530" lon="-8.6037690">
        <ele>76.0</ele>
        <time>2021-05-21T07:22:01Z</time>
      </trkpt>
      <trkpt lat="42.3080610" lon="-8.6037540">
        <ele>76.0</ele>
        <time>2021-05-21T07:22:02Z</time>
      </trkpt>
      <trkpt lat="42.3080650" lon="-8.6037390">
        <ele>76.0</ele>
        <time>2021-05-21T07:22:03Z</time>
      </trkpt>
      <trkpt lat="42.3080680" lon="-8.6037280">
        <ele>76.0</ele>
        <time>2021-05-21T07:22:04Z</time>
      </trkpt>
      <trkpt lat="42.3080770" lon="-8.6037080">
        <ele>76.0</ele>
        <time>2021-05-21T07:22:05Z</time>
      </trkpt>
      <trkpt lat="42.3080910" lon="-8.6036950">
        <ele>76.1</ele>
        <time>2021-05-21T07:22:06Z</time>
      </trkpt>
      <trkpt lat="42.3081010" lon="-8.6036980">
        <ele>76.1</ele>
        <time>2021-05-21T07:22:07Z</time>
      </trkpt>
      <trkpt lat="42.3081120" lon="-8.6036980">
        <ele>76.1</ele>
        <time>2021-05-21T07:22:08Z</time>
      </trkpt>
      <trkpt lat="42.3081240" lon="-8.6036890">
        <ele>76.1</ele>
        <time>2021-05-21T07:22:09Z</time>
      </trkpt>
      <trkpt lat="42.3081400" lon="-8.6036840">
        <ele>76.1</ele>
        <time>2021-05-21T07:22:10Z</time>
      </trkpt>
      <trkpt lat="42.3081460" lon="-8.6036810">
        <ele>76.1</ele>
        <time>2021-05-21T07:22:11Z</time>
      </trkpt>
      <trkpt lat="42.3081530" lon="-8.6036770">
        <ele>76.1</ele>
        <time>2021-05-21T07:22:12Z</time>
      </trkpt>
      <trkpt lat="42.3081590" lon="-8.6036730">
        <ele>76.1</ele>
        <time>2021-05-21T07:22:13Z</time>
      </trkpt>
      <trkpt lat="42.3081640" lon="-8.6036690">
        <ele>76.1</ele>
        <time>2021-05-21T07:22:14Z</time>
      </trkpt>
      <trkpt lat="42.3081840" lon="-8.6036570">
        <ele>76.1</ele>
        <time>2021-05-21T07:22:15Z</time>
      </trkpt>
      <trkpt lat="42.3082000" lon="-8.6036510">
        <ele>76.1</ele>
        <time>2021-05-21T07:22:16Z</time>
      </trkpt>
      <trkpt lat="42.3082110" lon="-8.6036330">
        <ele>76.2</ele>
        <time>2021-05-21T07:22:17Z</time>
      </trkpt>
      <trkpt lat="42.3082270" lon="-8.6036120">
        <ele>76.2</ele>
        <time>2021-05-21T07:22:18Z</time>
      </trkpt>
      <trkpt lat="42.3082370" lon="-8.6036050">
        <ele>76.2</ele>
        <time>2021-05-21T07:22:19Z</time>
      </trkpt>
      <trkpt lat="42.3082520" lon="-8.6035920">
        <ele>76.2</ele>
        <time>2021-05-21T07:22:20Z</time>
      </trkpt>
      <trkpt lat="42.3082580" lon="-8.6035780">
        <ele>76.2</ele>
        <time>2021-05-21T07:22:21Z</time>
      </trkpt>
      <trkpt lat="42.3082700" lon="-8.6035640">
        <ele>76.2</ele>
        <time>2021-05-21T07:22:22Z</time>
      </trkpt>
      <trkpt lat="42.3082790" lon="-8.6035540">
        <ele>76.2</ele>
        <time>2021-05-21T07:22:23Z</time>
      </trkpt>
      <trkpt lat="42.3083050" lon="-8.6035380">
        <ele>76.2</ele>
        <time>2021-05-21T07:22:24Z</time>
      </trkpt>
      <trkpt lat="42.3083160" lon="-8.6035320">
        <ele>76.2</ele>
        <time>2021-05-21T07:22:25Z</time>
      </trkpt>
      <trkpt lat="42.3083240" lon="-8.6035120">
        <ele>76.2</ele>
        <time>2021-05-21T07:22:26Z</time>
      </trkpt>
      <trkpt lat="42.3083340" lon="-8.6034980">
        <ele>76.2</ele>
        <time>2021-05-21T07:22:27Z</time>
      </trkpt>
      <trkpt lat="42.3083370" lon="-8.6034890">
        <ele>76.2</ele>
        <time>2021-05-21T07:22:28Z</time>
      </trkpt>
      <trkpt lat="42.3083430" lon="-8.6034910">
        <ele>76.3</ele>
        <time>2021-05-21T07:22:29Z</time>
      </trkpt>
      <trkpt lat="42.3083570" lon="-8.6034680">
        <ele>76.3</ele>
        <time>2021-05-21T07:22:30Z</time>
      </trkpt>
      <trkpt lat="42.3083660" lon="-8.6034460">
        <ele>76.3</ele>
        <time>2021-05-21T07:22:31Z</time>
      </trkpt>
      <trkpt lat="42.3083700" lon="-8.6034460">
        <ele>76.3</ele>
        <time>2021-05-21T07:22:32Z</time>
      </trkpt>
      <trkpt lat="42.3083830" lon="-8.6034340">
        <ele>76.3</ele>
        <time>2021-05-21T07:22:33Z</time>
      </trkpt>
      <trkpt lat="42.3084000" lon="-8.6034270">
        <ele>76.3</ele>
        <time>2021-05-21T07:22:34Z</time>
      </trkpt>
      <trkpt lat="42.3084100" lon="-8.6034210">
        <ele>76.3</ele>
        <time>2021-05-21T07:22:35Z</time>
      </trkpt>
      <trkpt lat="42.3084190" lon="-8.6034160">
        <ele>76.3</ele>
        <time>2021-05-21T07:22:36Z</time>
      </trkpt>
      <trkpt lat="42.3084380" lon="-8.6034160">
        <ele>76.3</ele>
        <time>2021-05-21T07:22:37Z</time>
      </trkpt>
      <trkpt lat="42.3084490" lon="-8.6034130">
        <ele>76.3</ele>
        <time>2021-05-21T07:22:38Z</time>
      </trkpt>
      <trkpt lat="42.3084590" lon="-8.6034100">
        <ele>76.4</ele>
        <time>2021-05-21T07:22:39Z</time>
      </trkpt>
      <trkpt lat="42.3084680" lon="-8.6034040">
        <ele>76.4</ele>
        <time>2021-05-21T07:22:40Z</time>
      </trkpt>
      <trkpt lat="42.3084810" lon="-8.6033950">
        <ele>76.4</ele>
        <time>2021-05-21T07:22:41Z</time>
      </trkpt>
      <trkpt lat="42.3084930" lon="-8.6033950">
        <ele>76.4</ele>
        <time>2021-05-21T07:22:42Z</time>
      </trkpt>
      <trkpt lat="42.3084930" lon="-8.6033880">
        <ele>76.4</ele>
        <time>2021-05-21T07:22:43Z</time>
      </trkpt>
      <trkpt lat="42.3085110" lon="-8.6033840">
        <ele>76.4</ele>
        <time>2021-05-21T07:22:44Z</time>
      </trkpt>
      <trkpt lat="42.3085200" lon="-8.6033780">
        <ele>76.5</ele>
        <time>2021-05-21T07:22:45Z</time>
      </trkpt>
      <trkpt lat="42.3085300" lon="-8.6033680">
        <ele>76.5</ele>
        <time>2021-05-21T07:22:46Z</time>
      </trkpt>
      <trkpt lat="42.3085320" lon="-8.6033630">
        <ele>76.5</ele>
        <time>2021-05-21T07:22:47Z</time>
      </trkpt>
      <trkpt lat="42.3085330" lon="-8.6033530">
        <ele>76.5</ele>
        <time>2021-05-21T07:22:48Z</time>
      </trkpt>
      <trkpt lat="42.3085480" lon="-8.6033480">
        <ele>76.5</ele>
        <time>2021-05-21T07:22:49Z</time>
      </trkpt>
      <trkpt lat="42.3085570" lon="-8.6033420">
        <ele>76.5</ele>
        <time>2021-05-21T07:22:50Z</time>
      </trkpt>
      <trkpt lat="42.3085680" lon="-8.6033400">
        <ele>76.6</ele>
        <time>2021-05-21T07:22:51Z</time>
      </trkpt>
      <trkpt lat="42.3085780" lon="-8.6033380">
        <ele>76.6</ele>
        <time>2021-05-21T07:22:52Z</time>
      </trkpt>
      <trkpt lat="42.3085910" lon="-8.6033350">
        <ele>76.6</ele>
        <time>2021-05-21T07:22:53Z</time>
      </trkpt>
      <trkpt lat="42.3086120" lon="-8.6033330">
        <ele>76.8</ele>
        <time>2021-05-21T07:22:54Z</time>
      </trkpt>
      <trkpt lat="42.3086290" lon="-8.6033310">
        <ele>76.9</ele>
        <time>2021-05-21T07:22:55Z</time>
      </trkpt>
      <trkpt lat="42.3086400" lon="-8.6033270">
        <ele>77.0</ele>
        <time>2021-05-21T07:22:56Z</time>
      </trkpt>
      <trkpt lat="42.3086510" lon="-8.6033240">
        <ele>77.0</ele>
        <time>2021-05-21T07:22:57Z</time>
      </trkpt>
      <trkpt lat="42.3086660" lon="-8.6033150">
        <ele>77.1</ele>
        <time>2021-05-21T07:22:58Z</time>
      </trkpt>
      <trkpt lat="42.3086840" lon="-8.6033080">
        <ele>77.2</ele>
        <time>2021-05-21T07:22:59Z</time>
      </trkpt>
      <trkpt lat="42.3087030" lon="-8.6032950">
        <ele>77.4</ele>
        <time>2021-05-21T07:23:00Z</time>
      </trkpt>
      <trkpt lat="42.3087110" lon="-8.6032920">
        <ele>77.4</ele>
        <time>2021-05-21T07:23:01Z</time>
      </trkpt>
      <trkpt lat="42.3087190" lon="-8.6032880">
        <ele>77.5</ele>
        <time>2021-05-21T07:23:02Z</time>
      </trkpt>
      <trkpt lat="42.3087330" lon="-8.6032860">
        <ele>77.5</ele>
        <time>2021-05-21T07:23:03Z</time>
      </trkpt>
      <trkpt lat="42.3087420" lon="-8.6032860">
        <ele>77.6</ele>
        <time>2021-05-21T07:23:04Z</time>
      </trkpt>
      <trkpt lat="42.3087550" lon="-8.6032850">
        <ele>77.7</ele>
        <time>2021-05-21T07:23:05Z</time>
      </trkpt>
      <trkpt lat="42.3087730" lon="-8.6032740">
        <ele>77.8</ele>
        <time>2021-05-21T07:23:06Z</time>
      </trkpt>
      <trkpt lat="42.3087830" lon="-8.6032700">
        <ele>77.8</ele>
        <time>2021-05-21T07:23:07Z</time>
      </trkpt>
      <trkpt lat="42.3087920" lon="-8.6032650">
        <ele>77.9</ele>
        <time>2021-05-21T07:23:08Z</time>
      </trkpt>
      <trkpt lat="42.3088100" lon="-8.6032550">
        <ele>78.0</ele>
        <time>2021-05-21T07:23:09Z</time>
      </trkpt>
      <trkpt lat="42.3088260" lon="-8.6032460">
        <ele>78.1</ele>
        <time>2021-05-21T07:23:10Z</time>
      </trkpt>
      <trkpt lat="42.3088340" lon="-8.6032410">
        <ele>78.2</ele>
        <time>2021-05-21T07:23:11Z</time>
      </trkpt>
      <trkpt lat="42.3088420" lon="-8.6032330">
        <ele>78.2</ele>
        <time>2021-05-21T07:23:12Z</time>
      </trkpt>
      <trkpt lat="42.3088550" lon="-8.6032250">
        <ele>78.3</ele>
        <time>2021-05-21T07:23:13Z</time>
      </trkpt>
      <trkpt lat="42.3088610" lon="-8.6032180">
        <ele>78.4</ele>
        <time>2021-05-21T07:23:14Z</time>
      </trkpt>
      <trkpt lat="42.3088730" lon="-8.6032060">
        <ele>78.5</ele>
        <time>2021-05-21T07:23:15Z</time>
      </trkpt>
      <trkpt lat="42.3088870" lon="-8.6032080">
        <ele>78.5</ele>
        <time>2021-05-21T07:23:16Z</time>
      </trkpt>
      <trkpt lat="42.3089130" lon="-8.6032070">
        <ele>78.7</ele>
        <time>2021-05-21T07:23:17Z</time>
      </trkpt>
      <trkpt lat="42.3089230" lon="-8.6032050">
        <ele>78.8</ele>
        <time>2021-05-21T07:23:18Z</time>
      </trkpt>
      <trkpt lat="42.3089270" lon="-8.6032100">
        <ele>78.8</ele>
        <time>2021-05-21T07:23:19Z</time>
      </trkpt>
      <trkpt lat="42.3089410" lon="-8.6032100">
        <ele>78.9</ele>
        <time>2021-05-21T07:23:20Z</time>
      </trkpt>
      <trkpt lat="42.3089440" lon="-8.6032140">
        <ele>78.9</ele>
        <time>2021-05-21T07:23:21Z</time>
      </trkpt>
      <trkpt lat="42.3089520" lon="-8.6032170">
        <ele>79.0</ele>
        <time>2021-05-21T07:23:22Z</time>
      </trkpt>
      <trkpt lat="42.3089820" lon="-8.6032170">
        <ele>79.2</ele>
        <time>2021-05-21T07:23:23Z</time>
      </trkpt>
      <trkpt lat="42.3089890" lon="-8.6032230">
        <ele>79.2</ele>
        <time>2021-05-21T07:23:24Z</time>
      </trkpt>
      <trkpt lat="42.3089970" lon="-8.6032300">
        <ele>79.3</ele>
        <time>2021-05-21T07:23:25Z</time>
      </trkpt>
      <trkpt lat="42.3090120" lon="-8.6032340">
        <ele>79.4</ele>
        <time>2021-05-21T07:23:26Z</time>
      </trkpt>
      <trkpt lat="42.3090220" lon="-8.6032370">
        <ele>79.5</ele>
        <time>2021-05-21T07:23:27Z</time>
      </trkpt>
      <trkpt lat="42.3090310" lon="-8.6032400">
        <ele>79.5</ele>
        <time>2021-05-21T07:23:28Z</time>
      </trkpt>
      <trkpt lat="42.3090410" lon="-8.6032430">
        <ele>79.6</ele>
        <time>2021-05-21T07:23:29Z</time>
      </trkpt>
      <trkpt lat="42.3090560" lon="-8.6032490">
        <ele>79.7</ele>
        <time>2021-05-21T07:23:30Z</time>
      </trkpt>
      <trkpt lat="42.3090570" lon="-8.6032540">
        <ele>79.7</ele>
        <time>2021-05-21T07:23:31Z</time>
      </trkpt>
      <trkpt lat="42.3090690" lon="-8.6032600">
        <ele>79.8</ele>
        <time>2021-05-21T07:23:32Z</time>
      </trkpt>
      <trkpt lat="42.3090900" lon="-8.6032670">
        <ele>79.9</ele>
        <time>2021-05-21T07:23:33Z</time>
      </trkpt>
      <trkpt lat="42.3091030" lon="-8.6032690">
        <ele>80.0</ele>
        <time>2021-05-21T07:23:34Z</time>
      </trkpt>
      <trkpt lat="42.3091160" lon="-8.6032710">
        <ele>80.1</ele>
        <time>2021-05-21T07:23:35Z</time>
      </trkpt>
      <trkpt lat="42.3091350" lon="-8.6032700">
        <ele>80.2</ele>
        <time>2021-05-21T07:23:36Z</time>
      </trkpt>
      <trkpt lat="42.3091510" lon="-8.6032680">
        <ele>80.3</ele>
        <time>2021-05-21T07:23:37Z</time>
      </trkpt>
      <trkpt lat="42.3091650" lon="-8.6032680">
        <ele>80.4</ele>
        <time>2021-05-21T07:23:38Z</time>
      </trkpt>
      <trkpt lat="42.3091880" lon="-8.6032750">
        <ele>80.5</ele>
        <time>2021-05-21T07:23:39Z</time>
      </trkpt>
      <trkpt lat="42.3091970" lon="-8.6032770">
        <ele>80.6</ele>
        <time>2021-05-21T07:23:40Z</time>
      </trkpt>
      <trkpt lat="42.3092060" lon="-8.6032780">
        <ele>80.7</ele>
        <time>2021-05-21T07:23:41Z</time>
      </trkpt>
      <trkpt lat="42.3092310" lon="-8.6032790">
        <ele>80.8</ele>
        <time>2021-05-21T07:23:42Z</time>
      </trkpt>
      <trkpt lat="42.3092320" lon="-8.6032780">
        <ele>80.8</ele>
        <time>2021-05-21T07:23:43Z</time>
      </trkpt>
      <trkpt lat="42.3092400" lon="-8.6032700">
        <ele>80.9</ele>
        <time>2021-05-21T07:23:44Z</time>
      </trkpt>
      <trkpt lat="42.3092560" lon="-8.6032640">
        <ele>81.0</ele>
        <time>2021-05-21T07:23:45Z</time>
      </trkpt>
      <trkpt lat="42.3092630" lon="-8.6032600">
        <ele>81.1</ele>
        <time>2021-05-21T07:23:46Z</time>
      </trkpt>
      <trkpt lat="42.3092710" lon="-8.6032560">
        <ele>81.1</ele>
        <time>2021-05-21T07:23:47Z</time>
      </trkpt>
      <trkpt lat="42.3092780" lon="-8.6032520">
        <ele>81.2</ele>
        <time>2021-05-21T07:23:48Z</time>
      </trkpt>
      <trkpt lat="42.3092800" lon="-8.6032570">
        <ele>81.2</ele>
        <time>2021-05-21T07:23:49Z</time>
      </trkpt>
      <trkpt lat="42.3092920" lon="-8.6032600">
        <ele>81.3</ele>
        <time>2021-05-21T07:23:50Z</time>
      </trkpt>
      <trkpt lat="42.3093060" lon="-8.6032500">
        <ele>81.4</ele>
        <time>2021-05-21T07:23:51Z</time>
      </trkpt>
      <trkpt lat="42.3093350" lon="-8.6032450">
        <ele>81.6</ele>
        <time>2021-05-21T07:23:52Z</time>
      </trkpt>
      <trkpt lat="42.3093430" lon="-8.6032430">
        <ele>81.6</ele>
        <time>2021-05-21T07:23:53Z</time>
      </trkpt>
      <trkpt lat="42.3093530" lon="-8.6032400">
        <ele>81.7</ele>
        <time>2021-05-21T07:23:54Z</time>
      </trkpt>
      <trkpt lat="42.3093640" lon="-8.6032450">
        <ele>81.8</ele>
        <time>2021-05-21T07:23:55Z</time>
      </trkpt>
      <trkpt lat="42.3093770" lon="-8.6032430">
        <ele>81.9</ele>
        <time>2021-05-21T07:23:56Z</time>
      </trkpt>
      <trkpt lat="42.3094000" lon="-8.6032400">
        <ele>82.0</ele>
        <time>2021-05-21T07:23:57Z</time>
      </trkpt>
      <trkpt lat="42.3094070" lon="-8.6032420">
        <ele>82.1</ele>
        <time>2021-05-21T07:23:58Z</time>
      </trkpt>
      <trkpt lat="42.3094140" lon="-8.6032430">
        <ele>82.1</ele>
        <time>2021-05-21T07:23:59Z</time>
      </trkpt>
      <trkpt lat="42.3094230" lon="-8.6032360">
        <ele>82.2</ele>
        <time>2021-05-21T07:24:00Z</time>
      </trkpt>
      <trkpt lat="42.3094250" lon="-8.6032290">
        <ele>82.3</ele>
        <time>2021-05-21T07:24:01Z</time>
      </trkpt>
      <trkpt lat="42.3094300" lon="-8.6032280">
        <ele>82.3</ele>
        <time>2021-05-21T07:24:02Z</time>
      </trkpt>
      <trkpt lat="42.3094450" lon="-8.6032220">
        <ele>82.4</ele>
        <time>2021-05-21T07:24:03Z</time>
      </trkpt>
      <trkpt lat="42.3094680" lon="-8.6032100">
        <ele>82.6</ele>
        <time>2021-05-21T07:24:04Z</time>
      </trkpt>
      <trkpt lat="42.3094740" lon="-8.6032070">
        <ele>82.6</ele>
        <time>2021-05-21T07:24:05Z</time>
      </trkpt>
      <trkpt lat="42.3094800" lon="-8.6032030">
        <ele>82.7</ele>
        <time>2021-05-21T07:24:06Z</time>
      </trkpt>
      <trkpt lat="42.3094910" lon="-8.6032050">
        <ele>82.8</ele>
        <time>2021-05-21T07:24:07Z</time>
      </trkpt>
      <trkpt lat="42.3095090" lon="-8.6032010">
        <ele>82.9</ele>
        <time>2021-05-21T07:24:08Z</time>
      </trkpt>
      <trkpt lat="42.3095260" lon="-8.6032050">
        <ele>83.0</ele>
        <time>2021-05-21T07:24:09Z</time>
      </trkpt>
      <trkpt lat="42.3095370" lon="-8.6032070">
        <ele>83.1</ele>
        <time>2021-05-21T07:24:10Z</time>
      </trkpt>
      <trkpt lat="42.3095430" lon="-8.6032050">
        <ele>83.2</ele>
        <time>2021-05-21T07:24:11Z</time>
      </trkpt>
      <trkpt lat="42.3095460" lon="-8.6032110">
        <ele>83.2</ele>
        <time>2021-05-21T07:24:12Z</time>
      </trkpt>
      <trkpt lat="42.3095590" lon="-8.6032110">
        <ele>83.3</ele>
        <time>2021-05-21T07:24:13Z</time>
      </trkpt>
      <trkpt lat="42.3095710" lon="-8.6032120">
        <ele>83.4</ele>
        <time>2021-05-21T07:24:14Z</time>
      </trkpt>
      <trkpt lat="42.3095800" lon="-8.6032110">
        <ele>83.4</ele>
        <time>2021-05-21T07:24:15Z</time>
      </trkpt>
      <trkpt lat="42.3096000" lon="-8.6032050">
        <ele>83.6</ele>
        <time>2021-05-21T07:24:16Z</time>
      </trkpt>
      <trkpt lat="42.3096210" lon="-8.6032120">
        <ele>83.8</ele>
        <time>2021-05-21T07:24:17Z</time>
      </trkpt>
      <trkpt lat="42.3096320" lon="-8.6032120">
        <ele>83.8</ele>
        <time>2021-05-21T07:24:18Z</time>
      </trkpt>
      <trkpt lat="42.3096440" lon="-8.6032130">
        <ele>83.9</ele>
        <time>2021-05-21T07:24:19Z</time>
      </trkpt>
      <trkpt lat="42.3096610" lon="-8.6032110">
        <ele>84.1</ele>
        <time>2021-05-21T07:24:20Z</time>
      </trkpt>
      <trkpt lat="42.3096710" lon="-8.6032060">
        <ele>84.2</ele>
        <time>2021-05-21T07:24:21Z</time>
      </trkpt>
      <trkpt lat="42.3096800" lon="-8.6032000">
        <ele>84.2</ele>
        <time>2021-05-21T07:24:22Z</time>
      </trkpt>
      <trkpt lat="42.3096990" lon="-8.6031970">
        <ele>84.4</ele>
        <time>2021-05-21T07:24:23Z</time>
      </trkpt>
      <trkpt lat="42.3097070" lon="-8.6032000">
        <ele>84.5</ele>
        <time>2021-05-21T07:24:24Z</time>
      </trkpt>
      <trkpt lat="42.3097260" lon="-8.6032050">
        <ele>84.6</ele>
        <time>2021-05-21T07:24:25Z</time>
      </trkpt>
      <trkpt lat="42.3097340" lon="-8.6032070">
        <ele>84.7</ele>
        <time>2021-05-21T07:24:26Z</time>
      </trkpt>
      <trkpt lat="42.3097430" lon="-8.6032080">
        <ele>84.7</ele>
        <time>2021-05-21T07:24:27Z</time>
      </trkpt>
      <trkpt lat="42.3097580" lon="-8.6032090">
        <ele>84.9</ele>
        <time>2021-05-21T07:24:28Z</time>
      </trkpt>
      <trkpt lat="42.3097700" lon="-8.6032100">
        <ele>85.0</ele>
        <time>2021-05-21T07:24:29Z</time>
      </trkpt>
      <trkpt lat="42.3097790" lon="-8.6032030">
        <ele>85.0</ele>
        <time>2021-05-21T07:24:30Z</time>
      </trkpt>
      <trkpt lat="42.3097870" lon="-8.6032050">
        <ele>85.1</ele>
        <time>2021-05-21T07:24:31Z</time>
      </trkpt>
      <trkpt lat="42.3097960" lon="-8.6031940">
        <ele>85.2</ele>
        <time>2021-05-21T07:24:32Z</time>
      </trkpt>
      <trkpt lat="42.3097970" lon="-8.6031880">
        <ele>85.2</ele>
        <time>2021-05-21T07:24:33Z</time>
      </trkpt>
      <trkpt lat="42.3098130" lon="-8.6031890">
        <ele>85.4</ele>
        <time>2021-05-21T07:24:34Z</time>
      </trkpt>
      <trkpt lat="42.3098280" lon="-8.6031890">
        <ele>85.5</ele>
        <time>2021-05-21T07:24:35Z</time>
      </trkpt>
      <trkpt lat="42.3098450" lon="-8.6031780">
        <ele>85.7</ele>
        <time>2021-05-21T07:24:36Z</time>
      </trkpt>
      <trkpt lat="42.3098550" lon="-8.6031730">
        <ele>85.7</ele>
        <time>2021-05-21T07:24:37Z</time>
      </trkpt>
      <trkpt lat="42.3098640" lon="-8.6031670">
        <ele>85.8</ele>
        <time>2021-05-21T07:24:38Z</time>
      </trkpt>
      <trkpt lat="42.3098760" lon="-8.6031630">
        <ele>85.9</ele>
        <time>2021-05-21T07:24:39Z</time>
      </trkpt>
      <trkpt lat="42.3098940" lon="-8.6031610">
        <ele>86.1</ele>
        <time>2021-05-21T07:24:40Z</time>
      </trkpt>
      <trkpt lat="42.3099070" lon="-8.6031650">
        <ele>86.2</ele>
        <time>2021-05-21T07:24:41Z</time>
      </trkpt>
      <trkpt lat="42.3099240" lon="-8.6031720">
        <ele>86.4</ele>
        <time>2021-05-21T07:24:42Z</time>
      </trkpt>
      <trkpt lat="42.3099380" lon="-8.6031700">
        <ele>86.5</ele>
        <time>2021-05-21T07:24:43Z</time>
      </trkpt>
      <trkpt lat="42.3099430" lon="-8.6031710">
        <ele>86.5</ele>
        <time>2021-05-21T07:24:44Z</time>
      </trkpt>
      <trkpt lat="42.3099520" lon="-8.6031640">
        <ele>86.6</ele>
        <time>2021-05-21T07:24:45Z</time>
      </trkpt>
      <trkpt lat="42.3099680" lon="-8.6031640">
        <ele>86.8</ele>
        <time>2021-05-21T07:24:46Z</time>
      </trkpt>
      <trkpt lat="42.3099800" lon="-8.6031630">
        <ele>86.9</ele>
        <time>2021-05-21T07:24:47Z</time>
      </trkpt>
      <trkpt lat="42.3099920" lon="-8.6031610">
        <ele>87.0</ele>
        <time>2021-05-21T07:24:48Z</time>
      </trkpt>
      <trkpt lat="42.3100000" lon="-8.6031560">
        <ele>87.0</ele>
        <time>2021-05-21T07:24:49Z</time>
      </trkpt>
      <trkpt lat="42.3100070" lon="-8.6031570">
        <ele>87.1</ele>
        <time>2021-05-21T07:24:50Z</time>
      </trkpt>
      <trkpt lat="42.3100260" lon="-8.6031460">
        <ele>87.3</ele>
        <time>2021-05-21T07:24:51Z</time>
      </trkpt>
      <trkpt lat="42.3100370" lon="-8.6031440">
        <ele>87.4</ele>
        <time>2021-05-21T07:24:52Z</time>
      </trkpt>
      <trkpt lat="42.3100470" lon="-8.6031430">
        <ele>87.5</ele>
        <time>2021-05-21T07:24:53Z</time>
      </trkpt>
      <trkpt lat="42.3100610" lon="-8.6031370">
        <ele>87.6</ele>
        <time>2021-05-21T07:24:54Z</time>
      </trkpt>
      <trkpt lat="42.3100730" lon="-8.6031350">
        <ele>87.7</ele>
        <time>2021-05-21T07:24:55Z</time>
      </trkpt>
      <trkpt lat="42.3100850" lon="-8.6031340">
        <ele>87.8</ele>
        <time>2021-05-21T07:24:56Z</time>
      </trkpt>
      <trkpt lat="42.3101010" lon="-8.6031270">
        <ele>88.0</ele>
        <time>2021-05-21T07:24:57Z</time>
      </trkpt>
      <trkpt lat="42.3101140" lon="-8.6031290">
        <ele>88.7</ele>
        <time>2021-05-21T07:24:58Z</time>
      </trkpt>
      <trkpt lat="42.3101130" lon="-8.6031380">
        <ele>88.8</ele>
        <time>2021-05-21T07:24:59Z</time>
      </trkpt>
      <trkpt lat="42.3101240" lon="-8.6031420">
        <ele>88.9</ele>
        <time>2021-05-21T07:25:00Z</time>
      </trkpt>
      <trkpt lat="42.3101320" lon="-8.6031450">
        <ele>89.0</ele>
        <time>2021-05-21T07:25:01Z</time>
      </trkpt>
      <trkpt lat="42.3101430" lon="-8.6031520">
        <ele>89.1</ele>
        <time>2021-05-21T07:25:02Z</time>
      </trkpt>
      <trkpt lat="42.3101500" lon="-8.6031620">
        <ele>89.2</ele>
        <time>2021-05-21T07:25:03Z</time>
      </trkpt>
      <trkpt lat="42.3101660" lon="-8.6031760">
        <ele>89.5</ele>
        <time>2021-05-21T07:25:04Z</time>
      </trkpt>
      <trkpt lat="42.3101740" lon="-8.6032000">
        <ele>89.7</ele>
        <time>2021-05-21T07:25:05Z</time>
      </trkpt>
      <trkpt lat="42.3101770" lon="-8.6032110">
        <ele>89.8</ele>
        <time>2021-05-21T07:25:06Z</time>
      </trkpt>
      <trkpt lat="42.3101810" lon="-8.6032230">
        <ele>89.9</ele>
        <time>2021-05-21T07:25:07Z</time>
      </trkpt>
      <trkpt lat="42.3101820" lon="-8.6032360">
        <ele>90.0</ele>
        <time>2021-05-21T07:25:08Z</time>
      </trkpt>
      <trkpt lat="42.3101850" lon="-8.6032580">
        <ele>90.2</ele>
        <time>2021-05-21T07:25:09Z</time>
      </trkpt>
      <trkpt lat="42.3101840" lon="-8.6032620">
        <ele>90.2</ele>
        <time>2021-05-21T07:25:10Z</time>
      </trkpt>
      <trkpt lat="42.3101880" lon="-8.6032950">
        <ele>90.5</ele>
        <time>2021-05-21T07:25:11Z</time>
      </trkpt>
      <trkpt lat="42.3101920" lon="-8.6033020">
        <ele>90.6</ele>
        <time>2021-05-21T07:25:12Z</time>
      </trkpt>
      <trkpt lat="42.3101950" lon="-8.6033100">
        <ele>90.7</ele>
        <time>2021-05-21T07:25:13Z</time>
      </trkpt>
      <trkpt lat="42.3102050" lon="-8.6033330">
        <ele>90.9</ele>
        <time>2021-05-21T07:25:14Z</time>
      </trkpt>
      <trkpt lat="42.3102070" lon="-8.6033290">
        <ele>90.9</ele>
        <time>2021-05-21T07:25:15Z</time>
      </trkpt>
      <trkpt lat="42.3102090" lon="-8.6033400">
        <ele>91.0</ele>
        <time>2021-05-21T07:25:16Z</time>
      </trkpt>
      <trkpt lat="42.3102140" lon="-8.6033500">
        <ele>91.1</ele>
        <time>2021-05-21T07:25:17Z</time>
      </trkpt>
      <trkpt lat="42.3102240" lon="-8.6033590">
        <ele>91.3</ele>
        <time>2021-05-21T07:25:18Z</time>
      </trkpt>
      <trkpt lat="42.3102230" lon="-8.6033690">
        <ele>91.3</ele>
        <time>2021-05-21T07:25:19Z</time>
      </trkpt>
      <trkpt lat="42.3102310" lon="-8.6033880">
        <ele>91.5</ele>
        <time>2021-05-21T07:25:20Z</time>
      </trkpt>
      <trkpt lat="42.3102360" lon="-8.6034090">
        <ele>91.7</ele>
        <time>2021-05-21T07:25:21Z</time>
      </trkpt>
      <trkpt lat="42.3102370" lon="-8.6034200">
        <ele>91.8</ele>
        <time>2021-05-21T07:25:22Z</time>
      </trkpt>
      <trkpt lat="42.3102430" lon="-8.6034300">
        <ele>91.9</ele>
        <time>2021-05-21T07:25:23Z</time>
      </trkpt>
      <trkpt lat="42.3102510" lon="-8.6034510">
        <ele>92.1</ele>
        <time>2021-05-21T07:25:24Z</time>
      </trkpt>
      <trkpt lat="42.3102520" lon="-8.6034570">
        <ele>92.2</ele>
        <time>2021-05-21T07:25:25Z</time>
      </trkpt>
      <trkpt lat="42.3102580" lon="-8.6034620">
        <ele>92.3</ele>
        <time>2021-05-21T07:25:26Z</time>
      </trkpt>
      <trkpt lat="42.3102590" lon="-8.6034910">
        <ele>92.5</ele>
        <time>2021-05-21T07:25:27Z</time>
      </trkpt>
      <trkpt lat="42.3102600" lon="-8.6035060">
        <ele>92.6</ele>
        <time>2021-05-21T07:25:28Z</time>
      </trkpt>
      <trkpt lat="42.3102610" lon="-8.6035220">
        <ele>92.8</ele>
        <time>2021-05-21T07:25:29Z</time>
      </trkpt>
      <trkpt lat="42.3102570" lon="-8.6035200">
        <ele>92.8</ele>
        <time>2021-05-21T07:25:30Z</time>
      </trkpt>
      <trkpt lat="42.3102620" lon="-8.6035420">
        <ele>93.0</ele>
        <time>2021-05-21T07:25:31Z</time>
      </trkpt>
      <trkpt lat="42.3102670" lon="-8.6035600">
        <ele>93.2</ele>
        <time>2021-05-21T07:25:32Z</time>
      </trkpt>
      <trkpt lat="42.3102760" lon="-8.6035730">
        <ele>93.3</ele>
        <time>2021-05-21T07:25:33Z</time>
      </trkpt>
      <trkpt lat="42.3102790" lon="-8.6035800">
        <ele>93.4</ele>
        <time>2021-05-21T07:25:34Z</time>
      </trkpt>
      <trkpt lat="42.3102860" lon="-8.6035950">
        <ele>93.6</ele>
        <time>2021-05-21T07:25:35Z</time>
      </trkpt>
      <trkpt lat="42.3102920" lon="-8.6036000">
        <ele>93.7</ele>
        <time>2021-05-21T07:25:36Z</time>
      </trkpt>
      <trkpt lat="42.3103020" lon="-8.6036070">
        <ele>93.8</ele>
        <time>2021-05-21T07:25:37Z</time>
      </trkpt>
      <trkpt lat="42.3103070" lon="-8.6036240">
        <ele>93.9</ele>
        <time>2021-05-21T07:25:38Z</time>
      </trkpt>
      <trkpt lat="42.3103170" lon="-8.6036360">
        <ele>94.1</ele>
        <time>2021-05-21T07:25:39Z</time>
      </trkpt>
      <trkpt lat="42.3103220" lon="-8.6036450">
        <ele>94.2</ele>
        <time>2021-05-21T07:25:40Z</time>
      </trkpt>
      <trkpt lat="42.3103260" lon="-8.6036550">
        <ele>94.3</ele>
        <time>2021-05-21T07:25:41Z</time>
      </trkpt>
      <trkpt lat="42.3103310" lon="-8.6036640">
        <ele>94.4</ele>
        <time>2021-05-21T07:25:42Z</time>
      </trkpt>
      <trkpt lat="42.3103480" lon="-8.6036820">
        <ele>94.7</ele>
        <time>2021-05-21T07:25:43Z</time>
      </trkpt>
      <trkpt lat="42.3103540" lon="-8.6036880">
        <ele>94.8</ele>
        <time>2021-05-21T07:25:44Z</time>
      </trkpt>
      <trkpt lat="42.3103590" lon="-8.6036940">
        <ele>94.9</ele>
        <time>2021-05-21T07:25:45Z</time>
      </trkpt>
      <trkpt lat="42.3103650" lon="-8.6037000">
        <ele>95.0</ele>
        <time>2021-05-21T07:25:46Z</time>
      </trkpt>
      <trkpt lat="42.3103750" lon="-8.6037050">
        <ele>95.1</ele>
        <time>2021-05-21T07:25:47Z</time>
      </trkpt>
      <trkpt lat="42.3103860" lon="-8.6037070">
        <ele>95.2</ele>
        <time>2021-05-21T07:25:48Z</time>
      </trkpt>
      <trkpt lat="42.3103990" lon="-8.6037160">
        <ele>95.4</ele>
        <time>2021-05-21T07:25:49Z</time>
      </trkpt>
      <trkpt lat="42.3104110" lon="-8.6037220">
        <ele>95.6</ele>
        <time>2021-05-21T07:25:50Z</time>
      </trkpt>
      <trkpt lat="42.3104190" lon="-8.6037260">
        <ele>95.7</ele>
        <time>2021-05-21T07:25:51Z</time>
      </trkpt>
      <trkpt lat="42.3104270" lon="-8.6037300">
        <ele>95.8</ele>
        <time>2021-05-21T07:25:52Z</time>
      </trkpt>
      <trkpt lat="42.3104350" lon="-8.6037340">
        <ele>95.9</ele>
        <time>2021-05-21T07:25:53Z</time>
      </trkpt>
      <trkpt lat="42.3104490" lon="-8.6037460">
        <ele>96.1</ele>
        <time>2021-05-21T07:25:54Z</time>
      </trkpt>
      <trkpt lat="42.3104610" lon="-8.6037520">
        <ele>96.3</ele>
        <time>2021-05-21T07:25:55Z</time>
      </trkpt>
      <trkpt lat="42.3104670" lon="-8.6037520">
        <ele>96.4</ele>
        <time>2021-05-21T07:25:56Z</time>
      </trkpt>
      <trkpt lat="42.3104740" lon="-8.6037530">
        <ele>96.5</ele>
        <time>2021-05-21T07:25:57Z</time>
      </trkpt>
      <trkpt lat="42.3104880" lon="-8.6037550">
        <ele>96.6</ele>
        <time>2021-05-21T07:25:58Z</time>
      </trkpt>
      <trkpt lat="42.3105100" lon="-8.6037690">
        <ele>97.0</ele>
        <time>2021-05-21T07:25:59Z</time>
      </trkpt>
      <trkpt lat="42.3105210" lon="-8.6037750">
        <ele>97.1</ele>
        <time>2021-05-21T07:26:00Z</time>
      </trkpt>
      <trkpt lat="42.3105330" lon="-8.6037820">
        <ele>97.3</ele>
        <time>2021-05-21T07:26:01Z</time>
      </trkpt>
      <trkpt lat="42.3105380" lon="-8.6037870">
        <ele>97.4</ele>
        <time>2021-05-21T07:26:02Z</time>
      </trkpt>
      <trkpt lat="42.3105420" lon="-8.6037910">
        <ele>97.5</ele>
        <time>2021-05-21T07:26:03Z</time>
      </trkpt>
      <trkpt lat="42.3105500" lon="-8.6037920">
        <ele>97.6</ele>
        <time>2021-05-21T07:26:04Z</time>
      </trkpt>
      <trkpt lat="42.3105570" lon="-8.6037910">
        <ele>97.7</ele>
        <time>2021-05-21T07:26:05Z</time>
      </trkpt>
      <trkpt lat="42.3105650" lon="-8.6037940">
        <ele>97.8</ele>
        <time>2021-05-21T07:26:06Z</time>
      </trkpt>
      <trkpt lat="42.3105670" lon="-8.6037970">
        <ele>97.8</ele>
        <time>2021-05-21T07:26:07Z</time>
      </trkpt>
      <trkpt lat="42.3105750" lon="-8.6038030">
        <ele>97.9</ele>
        <time>2021-05-21T07:26:08Z</time>
      </trkpt>
      <trkpt lat="42.3105870" lon="-8.6038110">
        <ele>98.1</ele>
        <time>2021-05-21T07:26:09Z</time>
      </trkpt>
      <trkpt lat="42.3105930" lon="-8.6038160">
        <ele>98.2</ele>
        <time>2021-05-21T07:26:10Z</time>
      </trkpt>
      <trkpt lat="42.3106000" lon="-8.6038230">
        <ele>98.3</ele>
        <time>2021-05-21T07:26:11Z</time>
      </trkpt>
      <trkpt lat="42.3106070" lon="-8.6038230">
        <ele>98.4</ele>
        <time>2021-05-21T07:26:12Z</time>
      </trkpt>
      <trkpt lat="42.3106240" lon="-8.6038370">
        <ele>98.7</ele>
        <time>2021-05-21T07:26:13Z</time>
      </trkpt>
      <trkpt lat="42.3106390" lon="-8.6038460">
        <ele>98.9</ele>
        <time>2021-05-21T07:26:14Z</time>
      </trkpt>
      <trkpt lat="42.3106490" lon="-8.6038550">
        <ele>99.1</ele>
        <time>2021-05-21T07:26:15Z</time>
      </trkpt>
      <trkpt lat="42.3106580" lon="-8.6038640">
        <ele>99.3</ele>
        <time>2021-05-21T07:26:16Z</time>
      </trkpt>
      <trkpt lat="42.3106680" lon="-8.6038710">
        <ele>99.4</ele>
        <time>2021-05-21T07:26:17Z</time>
      </trkpt>
      <trkpt lat="42.3106840" lon="-8.6038850">
        <ele>99.7</ele>
        <time>2021-05-21T07:26:18Z</time>
      </trkpt>
      <trkpt lat="42.3106950" lon="-8.6038870">
        <ele>99.9</ele>
        <time>2021-05-21T07:26:19Z</time>
      </trkpt>
      <trkpt lat="42.3106930" lon="-8.6038900">
        <ele>99.9</ele>
        <time>2021-05-21T07:26:20Z</time>
      </trkpt>
      <trkpt lat="42.3107060" lon="-8.6039010">
        <ele>100.1</ele>
        <time>2021-05-21T07:26:21Z</time>
      </trkpt>
      <trkpt lat="42.3107140" lon="-8.6039050">
        <ele>100.3</ele>
        <time>2021-05-21T07:26:22Z</time>
      </trkpt>
      <trkpt lat="42.3107290" lon="-8.6039260">
        <ele>100.6</ele>
        <time>2021-05-21T07:26:23Z</time>
      </trkpt>
      <trkpt lat="42.3107350" lon="-8.6039340">
        <ele>100.7</ele>
        <time>2021-05-21T07:26:24Z</time>
      </trkpt>
      <trkpt lat="42.3107420" lon="-8.6039430">
        <ele>100.9</ele>
        <time>2021-05-21T07:26:25Z</time>
      </trkpt>
      <trkpt lat="42.3107580" lon="-8.6039630">
        <ele>101.2</ele>
        <time>2021-05-21T07:26:26Z</time>
      </trkpt>
      <trkpt lat="42.3107660" lon="-8.6039700">
        <ele>101.3</ele>
        <time>2021-05-21T07:26:27Z</time>
      </trkpt>
      <trkpt lat="42.3107750" lon="-8.6039780">
        <ele>101.5</ele>
        <time>2021-05-21T07:26:28Z</time>
      </trkpt>
      <trkpt lat="42.3107690" lon="-8.6039750">
        <ele>101.6</ele>
        <time>2021-05-21T07:26:29Z</time>
      </trkpt>
      <trkpt lat="42.3107750" lon="-8.6039870">
        <ele>101.8</ele>
        <time>2021-05-21T07:26:30Z</time>
      </trkpt>
      <trkpt lat="42.3107790" lon="-8.6039930">
        <ele>101.9</ele>
        <time>2021-05-21T07:26:31Z</time>
      </trkpt>
      <trkpt lat="42.3107860" lon="-8.6039970">
        <ele>102.0</ele>
        <time>2021-05-21T07:26:32Z</time>
      </trkpt>
      <trkpt lat="42.3107940" lon="-8.6040090">
        <ele>102.2</ele>
        <time>2021-05-21T07:26:33Z</time>
      </trkpt>
      <trkpt lat="42.3108030" lon="-8.6040140">
        <ele>102.3</ele>
        <time>2021-05-21T07:26:34Z</time>
      </trkpt>
      <trkpt lat="42.3108110" lon="-8.6040120">
        <ele>102.5</ele>
        <time>2021-05-21T07:26:35Z</time>
      </trkpt>
      <trkpt lat="42.3108260" lon="-8.6040220">
        <ele>102.7</ele>
        <time>2021-05-21T07:26:36Z</time>
      </trkpt>
      <trkpt lat="42.3108360" lon="-8.6040290">
        <ele>102.9</ele>
        <time>2021-05-21T07:26:37Z</time>
      </trkpt>
      <trkpt lat="42.3108470" lon="-8.6040330">
        <ele>103.1</ele>
        <time>2021-05-21T07:26:38Z</time>
      </trkpt>
      <trkpt lat="42.3108580" lon="-8.6040440">
        <ele>103.3</ele>
        <time>2021-05-21T07:26:39Z</time>
      </trkpt>
      <trkpt lat="42.3108680" lon="-8.6040570">
        <ele>103.6</ele>
        <time>2021-05-21T07:26:40Z</time>
      </trkpt>
      <trkpt lat="42.3108730" lon="-8.6040670">
        <ele>103.7</ele>
        <time>2021-05-21T07:26:41Z</time>
      </trkpt>
      <trkpt lat="42.3108790" lon="-8.6040760">
        <ele>103.9</ele>
        <time>2021-05-21T07:26:42Z</time>
      </trkpt>
      <trkpt lat="42.3108900" lon="-8.6040950">
        <ele>104.2</ele>
        <time>2021-05-21T07:26:43Z</time>
      </trkpt>
      <trkpt lat="42.3108960" lon="-8.6041080">
        <ele>104.4</ele>
        <time>2021-05-21T07:26:44Z</time>
      </trkpt>
      <trkpt lat="42.3109030" lon="-8.6041200">
        <ele>104.6</ele>
        <time>2021-05-21T07:26:45Z</time>
      </trkpt>
      <trkpt lat="42.3109100" lon="-8.6041340">
        <ele>104.8</ele>
        <time>2021-05-21T07:26:46Z</time>
      </trkpt>
      <trkpt lat="42.3109150" lon="-8.6041450">
        <ele>104.9</ele>
        <time>2021-05-21T07:26:47Z</time>
      </trkpt>
      <trkpt lat="42.3109230" lon="-8.6041540">
        <ele>105.1</ele>
        <time>2021-05-21T07:26:48Z</time>
      </trkpt>
      <trkpt lat="42.3109260" lon="-8.6041620">
        <ele>105.2</ele>
        <time>2021-05-21T07:26:49Z</time>
      </trkpt>
      <trkpt lat="42.3109300" lon="-8.6041700">
        <ele>105.4</ele>
        <time>2021-05-21T07:26:50Z</time>
      </trkpt>
      <trkpt lat="42.3109330" lon="-8.6041790">
        <ele>105.5</ele>
        <time>2021-05-21T07:26:51Z</time>
      </trkpt>
      <trkpt lat="42.3109360" lon="-8.6041870">
        <ele>105.6</ele>
        <time>2021-05-21T07:26:52Z</time>
      </trkpt>
      <trkpt lat="42.3109390" lon="-8.6041950">
        <ele>105.7</ele>
        <time>2021-05-21T07:26:53Z</time>
      </trkpt>
      <trkpt lat="42.3109430" lon="-8.6042050">
        <ele>105.8</ele>
        <time>2021-05-21T07:26:54Z</time>
      </trkpt>
      <trkpt lat="42.3109500" lon="-8.6042190">
        <ele>106.1</ele>
        <time>2021-05-21T07:26:55Z</time>
      </trkpt>
      <trkpt lat="42.3109510" lon="-8.6042240">
        <ele>106.1</ele>
        <time>2021-05-21T07:26:56Z</time>
      </trkpt>
      <trkpt lat="42.3109460" lon="-8.6042270">
        <ele>106.2</ele>
        <time>2021-05-21T07:26:57Z</time>
      </trkpt>
      <trkpt lat="42.3109540" lon="-8.6042360">
        <ele>106.4</ele>
        <time>2021-05-21T07:26:58Z</time>
      </trkpt>
      <trkpt lat="42.3109610" lon="-8.6042500">
        <ele>106.6</ele>
        <time>2021-05-21T07:26:59Z</time>
      </trkpt>
      <trkpt lat="42.3109640" lon="-8.6042620">
        <ele>106.8</ele>
        <time>2021-05-21T07:27:00Z</time>
      </trkpt>
      <trkpt lat="42.3109750" lon="-8.6042720">
        <ele>107.0</ele>
        <time>2021-05-21T07:27:01Z</time>
      </trkpt>
      <trkpt lat="42.3109890" lon="-8.6043000">
        <ele>107.4</ele>
        <time>2021-05-21T07:27:02Z</time>
      </trkpt>
      <trkpt lat="42.3109910" lon="-8.6043130">
        <ele>107.6</ele>
        <time>2021-05-21T07:27:03Z</time>
      </trkpt>
      <trkpt lat="42.3109940" lon="-8.6043250">
        <ele>107.8</ele>
        <time>2021-05-21T07:27:04Z</time>
      </trkpt>
      <trkpt lat="42.3109910" lon="-8.6043370">
        <ele>107.9</ele>
        <time>2021-05-21T07:27:05Z</time>
      </trkpt>
      <trkpt lat="42.3109940" lon="-8.6043480">
        <ele>108.1</ele>
        <time>2021-05-21T07:27:06Z</time>
      </trkpt>
      <trkpt lat="42.3109970" lon="-8.6043580">
        <ele>108.2</ele>
        <time>2021-05-21T07:27:07Z</time>
      </trkpt>
      <trkpt lat="42.3110000" lon="-8.6043690">
        <ele>108.4</ele>
        <time>2021-05-21T07:27:08Z</time>
      </trkpt>
      <trkpt lat="42.3110030" lon="-8.6043800">
        <ele>108.5</ele>
        <time>2021-05-21T07:27:09Z</time>
      </trkpt>
      <trkpt lat="42.3110030" lon="-8.6043980">
        <ele>108.7</ele>
        <time>2021-05-21T07:27:10Z</time>
      </trkpt>
      <trkpt lat="42.3110110" lon="-8.6044060">
        <ele>108.9</ele>
        <time>2021-05-21T07:27:11Z</time>
      </trkpt>
      <trkpt lat="42.3110160" lon="-8.6044200">
        <ele>109.1</ele>
        <time>2021-05-21T07:27:12Z</time>
      </trkpt>
      <trkpt lat="42.3110320" lon="-8.6044380">
        <ele>109.5</ele>
        <time>2021-05-21T07:27:13Z</time>
      </trkpt>
      <trkpt lat="42.3110280" lon="-8.6044320">
        <ele>109.6</ele>
        <time>2021-05-21T07:27:14Z</time>
      </trkpt>
      <trkpt lat="42.3110390" lon="-8.6044450">
        <ele>109.8</ele>
        <time>2021-05-21T07:27:15Z</time>
      </trkpt>
      <trkpt lat="42.3110540" lon="-8.6044640">
        <ele>110.2</ele>
        <time>2021-05-21T07:27:16Z</time>
      </trkpt>
      <trkpt lat="42.3110610" lon="-8.6044710">
        <ele>110.3</ele>
        <time>2021-05-21T07:27:17Z</time>
      </trkpt>
      <trkpt lat="42.3110680" lon="-8.6044770">
        <ele>110.5</ele>
        <time>2021-05-21T07:27:18Z</time>
      </trkpt>
      <trkpt lat="42.3110710" lon="-8.6044820">
        <ele>110.6</ele>
        <time>2021-05-21T07:27:19Z</time>
      </trkpt>
      <trkpt lat="42.3110810" lon="-8.6044870">
        <ele>110.8</ele>
        <time>2021-05-21T07:27:20Z</time>
      </trkpt>
      <trkpt lat="42.3110900" lon="-8.6044880">
        <ele>110.8</ele>
        <time>2021-05-21T07:27:21Z</time>
      </trkpt>
      <trkpt lat="42.3110980" lon="-8.6045000">
        <ele>110.8</ele>
        <time>2021-05-21T07:27:22Z</time>
      </trkpt>
      <trkpt lat="42.3111050" lon="-8.6045110">
        <ele>110.8</ele>
        <time>2021-05-21T07:27:23Z</time>
      </trkpt>
      <trkpt lat="42.3111160" lon="-8.6045150">
        <ele>110.9</ele>
        <time>2021-05-21T07:27:24Z</time>
      </trkpt>
      <trkpt lat="42.3111220" lon="-8.6045170">
        <ele>110.9</ele>
        <time>2021-05-21T07:27:25Z</time>
      </trkpt>
      <trkpt lat="42.3111290" lon="-8.6045160">
        <ele>110.9</ele>
        <time>2021-05-21T07:27:26Z</time>
      </trkpt>
      <trkpt lat="42.3111290" lon="-8.6045150">
        <ele>110.9</ele>
        <time>2021-05-21T07:27:27Z</time>
      </trkpt>
      <trkpt lat="42.3111360" lon="-8.6045220">
        <ele>110.9</ele>
        <time>2021-05-21T07:27:28Z</time>
      </trkpt>
      <trkpt lat="42.3111490" lon="-8.6045100">
        <ele>111.0</ele>
        <time>2021-05-21T07:27:29Z</time>
      </trkpt>
      <trkpt lat="42.3111530" lon="-8.6045070">
        <ele>111.1</ele>
        <time>2021-05-21T07:27:30Z</time>
      </trkpt>
      <trkpt lat="42.3111490" lon="-8.6045020">
        <ele>111.2</ele>
        <time>2021-05-21T07:27:31Z</time>
      </trkpt>
      <trkpt lat="42.3111520" lon="-8.6045010">
        <ele>111.2</ele>
        <time>2021-05-21T07:27:32Z</time>
      </trkpt>
      <trkpt lat="42.3111600" lon="-8.6044970">
        <ele>111.4</ele>
        <time>2021-05-21T07:27:33Z</time>
      </trkpt>
      <trkpt lat="42.3111610" lon="-8.6044930">
        <ele>111.4</ele>
        <time>2021-05-21T07:27:34Z</time>
      </trkpt>
      <trkpt lat="42.3111650" lon="-8.6044930">
        <ele>111.5</ele>
        <time>2021-05-21T07:27:35Z</time>
      </trkpt>
      <trkpt lat="42.3111650" lon="-8.6044870">
        <ele>111.6</ele>
        <time>2021-05-21T07:27:36Z</time>
      </trkpt>
      <trkpt lat="42.3111680" lon="-8.6044880">
        <ele>111.6</ele>
        <time>2021-05-21T07:27:37Z</time>
      </trkpt>
      <trkpt lat="42.3111670" lon="-8.6044920">
        <ele>111.7</ele>
        <time>2021-05-21T07:27:38Z</time>
      </trkpt>
      <trkpt lat="42.3111750" lon="-8.6045030">
        <ele>111.8</ele>
        <time>2021-05-21T07:27:39Z</time>
      </trkpt>
      <trkpt lat="42.3111770" lon="-8.6045180">
        <ele>112.0</ele>
        <time>2021-05-21T07:27:40Z</time>
      </trkpt>
      <trkpt lat="42.3111830" lon="-8.6045310">
        <ele>112.2</ele>
        <time>2021-05-21T07:27:41Z</time>
      </trkpt>
      <trkpt lat="42.3111860" lon="-8.6045380">
        <ele>112.3</ele>
        <time>2021-05-21T07:27:42Z</time>
      </trkpt>
      <trkpt lat="42.3111880" lon="-8.6045460">
        <ele>112.4</ele>
        <time>2021-05-21T07:27:43Z</time>
      </trkpt>
      <trkpt lat="42.3111910" lon="-8.6045530">
        <ele>112.5</ele>
        <time>2021-05-21T07:27:44Z</time>
      </trkpt>
      <trkpt lat="42.3111930" lon="-8.6045610">
        <ele>112.6</ele>
        <time>2021-05-21T07:27:45Z</time>
      </trkpt>
      <trkpt lat="42.3111960" lon="-8.6045670">
        <ele>112.7</ele>
        <time>2021-05-21T07:27:46Z</time>
      </trkpt>
      <trkpt lat="42.3111970" lon="-8.6045720">
        <ele>112.8</ele>
        <time>2021-05-21T07:27:47Z</time>
      </trkpt>
      <trkpt lat="42.3111990" lon="-8.6045810">
        <ele>112.9</ele>
        <time>2021-05-21T07:27:48Z</time>
      </trkpt>
      <trkpt lat="42.3112030" lon="-8.6045970">
        <ele>113.1</ele>
        <time>2021-05-21T07:27:49Z</time>
      </trkpt>
      <trkpt lat="42.3112170" lon="-8.6046110">
        <ele>113.4</ele>
        <time>2021-05-21T07:27:50Z</time>
      </trkpt>
      <trkpt lat="42.3112220" lon="-8.6046170">
        <ele>113.5</ele>
        <time>2021-05-21T07:27:51Z</time>
      </trkpt>
      <trkpt lat="42.3112280" lon="-8.6046240">
        <ele>113.6</ele>
        <time>2021-05-21T07:27:52Z</time>
      </trkpt>
      <trkpt lat="42.3112330" lon="-8.6046300">
        <ele>113.7</ele>
        <time>2021-05-21T07:27:53Z</time>
      </trkpt>
      <trkpt lat="42.3112390" lon="-8.6046370">
        <ele>113.9</ele>
        <time>2021-05-21T07:27:54Z</time>
      </trkpt>
      <trkpt lat="42.3112440" lon="-8.6046430">
        <ele>114.0</ele>
        <time>2021-05-21T07:27:55Z</time>
      </trkpt>
      <trkpt lat="42.3112500" lon="-8.6046500">
        <ele>114.1</ele>
        <time>2021-05-21T07:27:56Z</time>
      </trkpt>
      <trkpt lat="42.3112610" lon="-8.6046610">
        <ele>114.3</ele>
        <time>2021-05-21T07:27:57Z</time>
      </trkpt>
      <trkpt lat="42.3112720" lon="-8.6046680">
        <ele>114.5</ele>
        <time>2021-05-21T07:27:58Z</time>
      </trkpt>
      <trkpt lat="42.3112820" lon="-8.6046720">
        <ele>114.7</ele>
        <time>2021-05-21T07:27:59Z</time>
      </trkpt>
      <trkpt lat="42.3112990" lon="-8.6046840">
        <ele>115.0</ele>
        <time>2021-05-21T07:28:00Z</time>
      </trkpt>
      <trkpt lat="42.3113090" lon="-8.6046900">
        <ele>115.2</ele>
        <time>2021-05-21T07:28:01Z</time>
      </trkpt>
      <trkpt lat="42.3113180" lon="-8.6046960">
        <ele>115.4</ele>
        <time>2021-05-21T07:28:02Z</time>
      </trkpt>
      <trkpt lat="42.3113220" lon="-8.6046940">
        <ele>115.4</ele>
        <time>2021-05-21T07:28:03Z</time>
      </trkpt>
      <trkpt lat="42.3113300" lon="-8.6046990">
        <ele>115.6</ele>
        <time>2021-05-21T07:28:04Z</time>
      </trkpt>
      <trkpt lat="42.3113330" lon="-8.6047060">
        <ele>115.7</ele>
        <time>2021-05-21T07:28:05Z</time>
      </trkpt>
      <trkpt lat="42.3113520" lon="-8.6047130">
        <ele>116.0</ele>
        <time>2021-05-21T07:28:06Z</time>
      </trkpt>
      <trkpt lat="42.3113680" lon="-8.6047230">
        <ele>116.3</ele>
        <time>2021-05-21T07:28:07Z</time>
      </trkpt>
      <trkpt lat="42.3113760" lon="-8.6047370">
        <ele>116.5</ele>
        <time>2021-05-21T07:28:08Z</time>
      </trkpt>
      <trkpt lat="42.3114010" lon="-8.6047340">
        <ele>116.9</ele>
        <time>2021-05-21T07:28:09Z</time>
      </trkpt>
      <trkpt lat="42.3114110" lon="-8.6047380">
        <ele>117.1</ele>
        <time>2021-05-21T07:28:10Z</time>
      </trkpt>
      <trkpt lat="42.3114220" lon="-8.6047410">
        <ele>117.3</ele>
        <time>2021-05-21T07:28:11Z</time>
      </trkpt>
      <trkpt lat="42.3114380" lon="-8.6047460">
        <ele>117.6</ele>
        <time>2021-05-21T07:28:12Z</time>
      </trkpt>
      <trkpt lat="42.3114500" lon="-8.6047430">
        <ele>117.8</ele>
        <time>2021-05-21T07:28:13Z</time>
      </trkpt>
      <trkpt lat="42.3114520" lon="-8.6047340">
        <ele>117.9</ele>
        <time>2021-05-21T07:28:14Z</time>
      </trkpt>
      <trkpt lat="42.3114570" lon="-8.6047430">
        <ele>118.0</ele>
        <time>2021-05-21T07:28:15Z</time>
      </trkpt>
      <trkpt lat="42.3114570" lon="-8.6047550">
        <ele>118.2</ele>
        <time>2021-05-21T07:28:16Z</time>
      </trkpt>
      <trkpt lat="42.3114620" lon="-8.6047690">
        <ele>118.3</ele>
        <time>2021-05-21T07:28:17Z</time>
      </trkpt>
      <trkpt lat="42.3114690" lon="-8.6047770">
        <ele>118.5</ele>
        <time>2021-05-21T07:28:18Z</time>
      </trkpt>
      <trkpt lat="42.3114820" lon="-8.6047840">
        <ele>118.7</ele>
        <time>2021-05-21T07:28:19Z</time>
      </trkpt>
      <trkpt lat="42.3114940" lon="-8.6047930">
        <ele>118.9</ele>
        <time>2021-05-21T07:28:20Z</time>
      </trkpt>
      <trkpt lat="42.3115090" lon="-8.6048100">
        <ele>119.2</ele>
        <time>2021-05-21T07:28:21Z</time>
      </trkpt>
      <trkpt lat="42.3115170" lon="-8.6048140">
        <ele>119.3</ele>
        <time>2021-05-21T07:28:22Z</time>
      </trkpt>
      <trkpt lat="42.3115330" lon="-8.6048130">
        <ele>119.6</ele>
        <time>2021-05-21T07:28:23Z</time>
      </trkpt>
      <trkpt lat="42.3115490" lon="-8.6048330">
        <ele>119.9</ele>
        <time>2021-05-21T07:28:24Z</time>
      </trkpt>
      <trkpt lat="42.3115720" lon="-8.6048540">
        <ele>120.3</ele>
        <time>2021-05-21T07:28:25Z</time>
      </trkpt>
      <trkpt lat="42.3115740" lon="-8.6048490">
        <ele>120.4</ele>
        <time>2021-05-21T07:28:26Z</time>
      </trkpt>
      <trkpt lat="42.3115800" lon="-8.6048550">
        <ele>120.5</ele>
        <time>2021-05-21T07:28:27Z</time>
      </trkpt>
      <trkpt lat="42.3115870" lon="-8.6048600">
        <ele>120.6</ele>
        <time>2021-05-21T07:28:28Z</time>
      </trkpt>
      <trkpt lat="42.3115930" lon="-8.6048660">
        <ele>120.7</ele>
        <time>2021-05-21T07:28:29Z</time>
      </trkpt>
      <trkpt lat="42.3116000" lon="-8.6048720">
        <ele>120.8</ele>
        <time>2021-05-21T07:28:30Z</time>
      </trkpt>
      <trkpt lat="42.3116060" lon="-8.6048780">
        <ele>121.0</ele>
        <time>2021-05-21T07:28:31Z</time>
      </trkpt>
      <trkpt lat="42.3116120" lon="-8.6048920">
        <ele>121.1</ele>
        <time>2021-05-21T07:28:32Z</time>
      </trkpt>
      <trkpt lat="42.3116270" lon="-8.6049050">
        <ele>121.4</ele>
        <time>2021-05-21T07:28:33Z</time>
      </trkpt>
      <trkpt lat="42.3116290" lon="-8.6049060">
        <ele>121.4</ele>
        <time>2021-05-21T07:28:34Z</time>
      </trkpt>
      <trkpt lat="42.3116320" lon="-8.6049180">
        <ele>121.5</ele>
        <time>2021-05-21T07:28:35Z</time>
      </trkpt>
      <trkpt lat="42.3116430" lon="-8.6049260">
        <ele>121.7</ele>
        <time>2021-05-21T07:28:36Z</time>
      </trkpt>
      <trkpt lat="42.3116520" lon="-8.6049340">
        <ele>121.9</ele>
        <time>2021-05-21T07:28:37Z</time>
      </trkpt>
      <trkpt lat="42.3116620" lon="-8.6049330">
        <ele>122.0</ele>
        <time>2021-05-21T07:28:38Z</time>
      </trkpt>
      <trkpt lat="42.3116680" lon="-8.6049300">
        <ele>122.1</ele>
        <time>2021-05-21T07:28:39Z</time>
      </trkpt>
      <trkpt lat="42.3116720" lon="-8.6049240">
        <ele>122.2</ele>
        <time>2021-05-21T07:28:40Z</time>
      </trkpt>
      <trkpt lat="42.3116830" lon="-8.6049310">
        <ele>122.3</ele>
        <time>2021-05-21T07:28:41Z</time>
      </trkpt>
      <trkpt lat="42.3116970" lon="-8.6049480">
        <ele>122.6</ele>
        <time>2021-05-21T07:28:42Z</time>
      </trkpt>
      <trkpt lat="42.3117010" lon="-8.6049550">
        <ele>122.7</ele>
        <time>2021-05-21T07:28:43Z</time>
      </trkpt>
      <trkpt lat="42.3117050" lon="-8.6049630">
        <ele>122.8</ele>
        <time>2021-05-21T07:28:44Z</time>
      </trkpt>
      <trkpt lat="42.3117090" lon="-8.6049710">
        <ele>122.9</ele>
        <time>2021-05-21T07:28:45Z</time>
      </trkpt>
      <trkpt lat="42.3117090" lon="-8.6049800">
        <ele>123.0</ele>
        <time>2021-05-21T07:28:46Z</time>
      </trkpt>
      <trkpt lat="42.3117150" lon="-8.6049950">
        <ele>123.1</ele>
        <time>2021-05-21T07:28:47Z</time>
      </trkpt>
      <trkpt lat="42.3117290" lon="-8.6050070">
        <ele>123.3</ele>
        <time>2021-05-21T07:28:48Z</time>
      </trkpt>
      <trkpt lat="42.3117340" lon="-8.6050170">
        <ele>123.5</ele>
        <time>2021-05-21T07:28:49Z</time>
      </trkpt>
      <trkpt lat="42.3117370" lon="-8.6050150">
        <ele>123.5</ele>
        <time>2021-05-21T07:28:50Z</time>
      </trkpt>
      <trkpt lat="42.3117420" lon="-8.6050230">
        <ele>123.6</ele>
        <time>2021-05-21T07:28:51Z</time>
      </trkpt>
      <trkpt lat="42.3117420" lon="-8.6050190">
        <ele>123.6</ele>
        <time>2021-05-21T07:28:52Z</time>
      </trkpt>
      <trkpt lat="42.3117440" lon="-8.6050280">
        <ele>123.7</ele>
        <time>2021-05-21T07:28:53Z</time>
      </trkpt>
      <trkpt lat="42.3117460" lon="-8.6050350">
        <ele>123.8</ele>
        <time>2021-05-21T07:28:54Z</time>
      </trkpt>
      <trkpt lat="42.3117510" lon="-8.6050420">
        <ele>123.9</ele>
        <time>2021-05-21T07:28:55Z</time>
      </trkpt>
      <trkpt lat="42.3117550" lon="-8.6050520">
        <ele>124.2</ele>
        <time>2021-05-21T07:28:56Z</time>
      </trkpt>
      <trkpt lat="42.3117510" lon="-8.6050430">
        <ele>124.2</ele>
        <time>2021-05-21T07:28:57Z</time>
      </trkpt>
      <trkpt lat="42.3117530" lon="-8.6050360">
        <ele>124.2</ele>
        <time>2021-05-21T07:28:58Z</time>
      </trkpt>
      <trkpt lat="42.3117530" lon="-8.6050310">
        <ele>124.3</ele>
        <time>2021-05-21T07:28:59Z</time>
      </trkpt>
      <trkpt lat="42.3117570" lon="-8.6050460">
        <ele>124.3</ele>
        <time>2021-05-21T07:29:00Z</time>
      </trkpt>
      <trkpt lat="42.3117560" lon="-8.6050490">
        <ele>124.3</ele>
        <time>2021-05-21T07:29:01Z</time>
      </trkpt>
      <trkpt lat="42.3117540" lon="-8.6050580">
        <ele>124.4</ele>
        <time>2021-05-21T07:29:02Z</time>
      </trkpt>
      <trkpt lat="42.3117650" lon="-8.6050730">
        <ele>124.4</ele>
        <time>2021-05-21T07:29:03Z</time>
      </trkpt>
      <trkpt lat="42.3117700" lon="-8.6050770">
        <ele>124.5</ele>
        <time>2021-05-21T07:29:04Z</time>
      </trkpt>
      <trkpt lat="42.3117720" lon="-8.6050870">
        <ele>124.5</ele>
        <time>2021-05-21T07:29:05Z</time>
      </trkpt>
      <trkpt lat="42.3117880" lon="-8.6051120">
        <ele>124.6</ele>
        <time>2021-05-21T07:29:06Z</time>
      </trkpt>
      <trkpt lat="42.3117980" lon="-8.6051330">
        <ele>124.6</ele>
        <time>2021-05-21T07:29:07Z</time>
      </trkpt>
      <trkpt lat="42.3118040" lon="-8.6051490">
        <ele>124.7</ele>
        <time>2021-05-21T07:29:08Z</time>
      </trkpt>
      <trkpt lat="42.3118070" lon="-8.6051600">
        <ele>124.7</ele>
        <time>2021-05-21T07:29:09Z</time>
      </trkpt>
      <trkpt lat="42.3118160" lon="-8.6051730">
        <ele>124.7</ele>
        <time>2021-05-21T07:29:10Z</time>
      </trkpt>
      <trkpt lat="42.3118310" lon="-8.6051760">
        <ele>124.8</ele>
        <time>2021-05-21T07:29:11Z</time>
      </trkpt>
      <trkpt lat="42.3118430" lon="-8.6051900">
        <ele>124.8</ele>
        <time>2021-05-21T07:29:12Z</time>
      </trkpt>
      <trkpt lat="42.3118530" lon="-8.6052070">
        <ele>124.8</ele>
        <time>2021-05-21T07:29:13Z</time>
      </trkpt>
      <trkpt lat="42.3118640" lon="-8.6052230">
        <ele>124.8</ele>
        <time>2021-05-21T07:29:14Z</time>
      </trkpt>
      <trkpt lat="42.3118710" lon="-8.6052300">
        <ele>124.8</ele>
        <time>2021-05-21T07:29:15Z</time>
      </trkpt>
      <trkpt lat="42.3118780" lon="-8.6052380">
        <ele>124.9</ele>
        <time>2021-05-21T07:29:16Z</time>
      </trkpt>
      <trkpt lat="42.3118850" lon="-8.6052450">
        <ele>124.9</ele>
        <time>2021-05-21T07:29:17Z</time>
      </trkpt>
      <trkpt lat="42.3118890" lon="-8.6052660">
        <ele>124.9</ele>
        <time>2021-05-21T07:29:18Z</time>
      </trkpt>
      <trkpt lat="42.3118980" lon="-8.6052760">
        <ele>124.9</ele>
        <time>2021-05-21T07:29:19Z</time>
      </trkpt>
      <trkpt lat="42.3119070" lon="-8.6052860">
        <ele>124.9</ele>
        <time>2021-05-21T07:29:20Z</time>
      </trkpt>
      <trkpt lat="42.3119150" lon="-8.6053050">
        <ele>124.9</ele>
        <time>2021-05-21T07:29:21Z</time>
      </trkpt>
      <trkpt lat="42.3119230" lon="-8.6053240">
        <ele>124.9</ele>
        <time>2021-05-21T07:29:22Z</time>
      </trkpt>
      <trkpt lat="42.3119320" lon="-8.6053240">
        <ele>124.9</ele>
        <time>2021-05-21T07:29:23Z</time>
      </trkpt>
      <trkpt lat="42.3119330" lon="-8.6053210">
        <ele>124.9</ele>
        <time>2021-05-21T07:29:24Z</time>
      </trkpt>
      <trkpt lat="42.3119420" lon="-8.6053250">
        <ele>124.9</ele>
        <time>2021-05-21T07:29:25Z</time>
      </trkpt>
      <trkpt lat="42.3119520" lon="-8.6053440">
        <ele>125.0</ele>
        <time>2021-05-21T07:29:26Z</time>
      </trkpt>
      <trkpt lat="42.3119620" lon="-8.6053600">
        <ele>125.0</ele>
        <time>2021-05-21T07:29:27Z</time>
      </trkpt>
      <trkpt lat="42.3119690" lon="-8.6053670">
        <ele>125.0</ele>
        <time>2021-05-21T07:29:28Z</time>
      </trkpt>
      <trkpt lat="42.3119750" lon="-8.6053750">
        <ele>125.0</ele>
        <time>2021-05-21T07:29:29Z</time>
      </trkpt>
      <trkpt lat="42.3119810" lon="-8.6053820">
        <ele>125.0</ele>
        <time>2021-05-21T07:29:30Z</time>
      </trkpt>
      <trkpt lat="42.3119860" lon="-8.6053910">
        <ele>125.0</ele>
        <time>2021-05-21T07:29:31Z</time>
      </trkpt>
      <trkpt lat="42.3120030" lon="-8.6054020">
        <ele>125.0</ele>
        <time>2021-05-21T07:29:32Z</time>
      </trkpt>
      <trkpt lat="42.3120090" lon="-8.6054010">
        <ele>125.0</ele>
        <time>2021-05-21T07:29:33Z</time>
      </trkpt>
      <trkpt lat="42.3120270" lon="-8.6054160">
        <ele>125.0</ele>
        <time>2021-05-21T07:29:34Z</time>
      </trkpt>
      <trkpt lat="42.3120330" lon="-8.6054240">
        <ele>125.0</ele>
        <time>2021-05-21T07:29:35Z</time>
      </trkpt>
      <trkpt lat="42.3120380" lon="-8.6054330">
        <ele>125.0</ele>
        <time>2021-05-21T07:29:36Z</time>
      </trkpt>
      <trkpt lat="42.3120440" lon="-8.6054410">
        <ele>125.0</ele>
        <time>2021-05-21T07:29:37Z</time>
      </trkpt>
      <trkpt lat="42.3120510" lon="-8.6054510">
        <ele>125.0</ele>
        <time>2021-05-21T07:29:38Z</time>
      </trkpt>
      <trkpt lat="42.3120620" lon="-8.6054610">
        <ele>125.1</ele>
        <time>2021-05-21T07:29:39Z</time>
      </trkpt>
      <trkpt lat="42.3120700" lon="-8.6054750">
        <ele>125.1</ele>
        <time>2021-05-21T07:29:40Z</time>
      </trkpt>
      <trkpt lat="42.3120780" lon="-8.6054770">
        <ele>125.1</ele>
        <time>2021-05-21T07:29:41Z</time>
      </trkpt>
      <trkpt lat="42.3120780" lon="-8.6054820">
        <ele>125.1</ele>
        <time>2021-05-21T07:29:42Z</time>
      </trkpt>
      <trkpt lat="42.3120980" lon="-8.6055000">
        <ele>125.1</ele>
        <time>2021-05-21T07:29:43Z</time>
      </trkpt>
      <trkpt lat="42.3120930" lon="-8.6054930">
        <ele>125.1</ele>
        <time>2021-05-21T07:29:44Z</time>
      </trkpt>
      <trkpt lat="42.3121100" lon="-8.6055140">
        <ele>125.1</ele>
        <time>2021-05-21T07:29:45Z</time>
      </trkpt>
      <trkpt lat="42.3121230" lon="-8.6055250">
        <ele>125.2</ele>
        <time>2021-05-21T07:29:46Z</time>
      </trkpt>
      <trkpt lat="42.3121270" lon="-8.6055270">
        <ele>125.2</ele>
        <time>2021-05-21T07:29:47Z</time>
      </trkpt>
      <trkpt lat="42.3121320" lon="-8.6055330">
        <ele>125.2</ele>
        <time>2021-05-21T07:29:48Z</time>
      </trkpt>
      <trkpt lat="42.3121380" lon="-8.6055410">
        <ele>125.2</ele>
        <time>2021-05-21T07:29:49Z</time>
      </trkpt>
      <trkpt lat="42.3121530" lon="-8.6055440">
        <ele>125.2</ele>
        <time>2021-05-21T07:29:50Z</time>
      </trkpt>
      <trkpt lat="42.3121580" lon="-8.6055580">
        <ele>125.2</ele>
        <time>2021-05-21T07:29:51Z</time>
      </trkpt>
      <trkpt lat="42.3121690" lon="-8.6055710">
        <ele>125.3</ele>
        <time>2021-05-21T07:29:52Z</time>
      </trkpt>
      <trkpt lat="42.3121750" lon="-8.6055750">
        <ele>125.3</ele>
        <time>2021-05-21T07:29:53Z</time>
      </trkpt>
      <trkpt lat="42.3121800" lon="-8.6055730">
        <ele>125.3</ele>
        <time>2021-05-21T07:29:54Z</time>
      </trkpt>
      <trkpt lat="42.3121980" lon="-8.6055870">
        <ele>125.3</ele>
        <time>2021-05-21T07:29:55Z</time>
      </trkpt>
      <trkpt lat="42.3122070" lon="-8.6055960">
        <ele>125.3</ele>
        <time>2021-05-21T07:29:56Z</time>
      </trkpt>
      <trkpt lat="42.3122220" lon="-8.6055960">
        <ele>125.4</ele>
        <time>2021-05-21T07:29:57Z</time>
      </trkpt>
      <trkpt lat="42.3122210" lon="-8.6055940">
        <ele>125.4</ele>
        <time>2021-05-21T07:29:58Z</time>
      </trkpt>
      <trkpt lat="42.3122380" lon="-8.6056020">
        <ele>125.4</ele>
        <time>2021-05-21T07:29:59Z</time>
      </trkpt>
      <trkpt lat="42.3122620" lon="-8.6056170">
        <ele>125.5</ele>
        <time>2021-05-21T07:30:00Z</time>
      </trkpt>
      <trkpt lat="42.3122710" lon="-8.6056190">
        <ele>125.5</ele>
        <time>2021-05-21T07:30:01Z</time>
      </trkpt>
      <trkpt lat="42.3122830" lon="-8.6056290">
        <ele>125.5</ele>
        <time>2021-05-21T07:30:02Z</time>
      </trkpt>
      <trkpt lat="42.3122980" lon="-8.6056460">
        <ele>125.6</ele>
        <time>2021-05-21T07:30:03Z</time>
      </trkpt>
      <trkpt lat="42.3123020" lon="-8.6056380">
        <ele>125.6</ele>
        <time>2021-05-21T07:30:04Z</time>
      </trkpt>
      <trkpt lat="42.3123120" lon="-8.6056530">
        <ele>125.6</ele>
        <time>2021-05-21T07:30:05Z</time>
      </trkpt>
      <trkpt lat="42.3123210" lon="-8.6056670">
        <ele>125.6</ele>
        <time>2021-05-21T07:30:06Z</time>
      </trkpt>
      <trkpt lat="42.3123370" lon="-8.6056770">
        <ele>125.7</ele>
        <time>2021-05-21T07:30:07Z</time>
      </trkpt>
      <trkpt lat="42.3123520" lon="-8.6056820">
        <ele>125.7</ele>
        <time>2021-05-21T07:30:08Z</time>
      </trkpt>
      <trkpt lat="42.3123650" lon="-8.6056800">
        <ele>125.7</ele>
        <time>2021-05-21T07:30:09Z</time>
      </trkpt>
      <trkpt lat="42.3123800" lon="-8.6056930">
        <ele>125.8</ele>
        <time>2021-05-21T07:30:10Z</time>
      </trkpt>
      <trkpt lat="42.3123980" lon="-8.6057000">
        <ele>125.8</ele>
        <time>2021-05-21T07:30:11Z</time>
      </trkpt>
      <trkpt lat="42.3124110" lon="-8.6057040">
        <ele>125.9</ele>
        <time>2021-05-21T07:30:12Z</time>
      </trkpt>
      <trkpt lat="42.3124270" lon="-8.6057110">
        <ele>125.9</ele>
        <time>2021-05-21T07:30:13Z</time>
      </trkpt>
      <trkpt lat="42.3124360" lon="-8.6057170">
        <ele>125.9</ele>
        <time>2021-05-21T07:30:14Z</time>
      </trkpt>
      <trkpt lat="42.3124440" lon="-8.6057230">
        <ele>125.9</ele>
        <time>2021-05-21T07:30:15Z</time>
      </trkpt>
      <trkpt lat="42.3124530" lon="-8.6057290">
        <ele>126.0</ele>
        <time>2021-05-21T07:30:16Z</time>
      </trkpt>
      <trkpt lat="42.3124670" lon="-8.6057400">
        <ele>126.0</ele>
        <time>2021-05-21T07:30:17Z</time>
      </trkpt>
      <trkpt lat="42.3124720" lon="-8.6057440">
        <ele>126.0</ele>
        <time>2021-05-21T07:30:18Z</time>
      </trkpt>
      <trkpt lat="42.3124760" lon="-8.6057470">
        <ele>126.0</ele>
        <time>2021-05-21T07:30:19Z</time>
      </trkpt>
      <trkpt lat="42.3124810" lon="-8.6057510">
        <ele>126.0</ele>
        <time>2021-05-21T07:30:20Z</time>
      </trkpt>
      <trkpt lat="42.3124860" lon="-8.6057540">
        <ele>126.0</ele>
        <time>2021-05-21T07:30:21Z</time>
      </trkpt>
      <trkpt lat="42.3124840" lon="-8.6057530">
        <ele>126.1</ele>
        <time>2021-05-21T07:30:22Z</time>
      </trkpt>
      <trkpt lat="42.3124950" lon="-8.6057600">
        <ele>126.1</ele>
        <time>2021-05-21T07:30:23Z</time>
      </trkpt>
      <trkpt lat="42.3125020" lon="-8.6057670">
        <ele>126.1</ele>
        <time>2021-05-21T07:30:24Z</time>
      </trkpt>
      <trkpt lat="42.3125120" lon="-8.6057770">
        <ele>126.2</ele>
        <time>2021-05-21T07:30:25Z</time>
      </trkpt>
      <trkpt lat="42.3125190" lon="-8.6057860">
        <ele>126.2</ele>
        <time>2021-05-21T07:30:26Z</time>
      </trkpt>
      <trkpt lat="42.3125290" lon="-8.6057890">
        <ele>126.2</ele>
        <time>2021-05-21T07:30:27Z</time>
      </trkpt>
      <trkpt lat="42.3125450" lon="-8.6057950">
        <ele>126.3</ele>
        <time>2021-05-21T07:30:28Z</time>
      </trkpt>
      <trkpt lat="42.3125640" lon="-8.6058060">
        <ele>126.3</ele>
        <time>2021-05-21T07:30:29Z</time>
      </trkpt>
      <trkpt lat="42.3125740" lon="-8.6058110">
        <ele>126.4</ele>
        <time>2021-05-21T07:30:30Z</time>
      </trkpt>
      <trkpt lat="42.3125830" lon="-8.6058150">
        <ele>126.4</ele>
        <time>2021-05-21T07:30:31Z</time>
      </trkpt>
      <trkpt lat="42.3126050" lon="-8.6058170">
        <ele>126.4</ele>
        <time>2021-05-21T07:30:32Z</time>
      </trkpt>
      <trkpt lat="42.3126150" lon="-8.6058190">
        <ele>126.5</ele>
        <time>2021-05-21T07:30:33Z</time>
      </trkpt>
      <trkpt lat="42.3126240" lon="-8.6058220">
        <ele>126.5</ele>
        <time>2021-05-21T07:30:34Z</time>
      </trkpt>
      <trkpt lat="42.3126370" lon="-8.6058270">
        <ele>126.6</ele>
        <time>2021-05-21T07:30:35Z</time>
      </trkpt>
      <trkpt lat="42.3126480" lon="-8.6058410">
        <ele>126.6</ele>
        <time>2021-05-21T07:30:36Z</time>
      </trkpt>
      <trkpt lat="42.3126660" lon="-8.6058350">
        <ele>126.7</ele>
        <time>2021-05-21T07:30:37Z</time>
      </trkpt>
      <trkpt lat="42.3126830" lon="-8.6058430">
        <ele>126.7</ele>
        <time>2021-05-21T07:30:38Z</time>
      </trkpt>
      <trkpt lat="42.3126940" lon="-8.6058400">
        <ele>126.8</ele>
        <time>2021-05-21T07:30:39Z</time>
      </trkpt>
      <trkpt lat="42.3127120" lon="-8.6058560">
        <ele>126.8</ele>
        <time>2021-05-21T07:30:40Z</time>
      </trkpt>
      <trkpt lat="42.3127200" lon="-8.6058620">
        <ele>126.9</ele>
        <time>2021-05-21T07:30:41Z</time>
      </trkpt>
      <trkpt lat="42.3127400" lon="-8.6058640">
        <ele>126.9</ele>
        <time>2021-05-21T07:30:42Z</time>
      </trkpt>
      <trkpt lat="42.3127600" lon="-8.6058630">
        <ele>127.0</ele>
        <time>2021-05-21T07:30:43Z</time>
      </trkpt>
      <trkpt lat="42.3127700" lon="-8.6058680">
        <ele>127.1</ele>
        <time>2021-05-21T07:30:44Z</time>
      </trkpt>
      <trkpt lat="42.3127790" lon="-8.6058730">
        <ele>127.1</ele>
        <time>2021-05-21T07:30:45Z</time>
      </trkpt>
      <trkpt lat="42.3127780" lon="-8.6058710">
        <ele>127.1</ele>
        <time>2021-05-21T07:30:46Z</time>
      </trkpt>
      <trkpt lat="42.3127960" lon="-8.6058830">
        <ele>127.2</ele>
        <time>2021-05-21T07:30:47Z</time>
      </trkpt>
      <trkpt lat="42.3128090" lon="-8.6058890">
        <ele>127.2</ele>
        <time>2021-05-21T07:30:48Z</time>
      </trkpt>
      <trkpt lat="42.3128210" lon="-8.6058920">
        <ele>127.3</ele>
        <time>2021-05-21T07:30:49Z</time>
      </trkpt>
      <trkpt lat="42.3128300" lon="-8.6058940">
        <ele>127.3</ele>
        <time>2021-05-21T07:30:50Z</time>
      </trkpt>
      <trkpt lat="42.3128380" lon="-8.6058960">
        <ele>127.3</ele>
        <time>2021-05-21T07:30:51Z</time>
      </trkpt>
      <trkpt lat="42.3128470" lon="-8.6058980">
        <ele>127.4</ele>
        <time>2021-05-21T07:30:52Z</time>
      </trkpt>
      <trkpt lat="42.3128530" lon="-8.6059070">
        <ele>127.4</ele>
        <time>2021-05-21T07:30:53Z</time>
      </trkpt>
      <trkpt lat="42.3128640" lon="-8.6059130">
        <ele>127.5</ele>
        <time>2021-05-21T07:30:54Z</time>
      </trkpt>
      <trkpt lat="42.3128740" lon="-8.6059200">
        <ele>127.5</ele>
        <time>2021-05-21T07:30:55Z</time>
      </trkpt>
      <trkpt lat="42.3128810" lon="-8.6059250">
        <ele>127.5</ele>
        <time>2021-05-21T07:30:56Z</time>
      </trkpt>
      <trkpt lat="42.3128960" lon="-8.6059350">
        <ele>127.6</ele>
        <time>2021-05-21T07:30:57Z</time>
      </trkpt>
      <trkpt lat="42.3129040" lon="-8.6059430">
        <ele>127.7</ele>
        <time>2021-05-21T07:30:58Z</time>
      </trkpt>
      <trkpt lat="42.3129140" lon="-8.6059400">
        <ele>127.7</ele>
        <time>2021-05-21T07:30:59Z</time>
      </trkpt>
      <trkpt lat="42.3129230" lon="-8.6059440">
        <ele>127.7</ele>
        <time>2021-05-21T07:31:00Z</time>
      </trkpt>
      <trkpt lat="42.3129320" lon="-8.6059570">
        <ele>127.8</ele>
        <time>2021-05-21T07:31:01Z</time>
      </trkpt>
      <trkpt lat="42.3129530" lon="-8.6059410">
        <ele>127.9</ele>
        <time>2021-05-21T07:31:02Z</time>
      </trkpt>
      <trkpt lat="42.3129620" lon="-8.6059410">
        <ele>127.9</ele>
        <time>2021-05-21T07:31:03Z</time>
      </trkpt>
      <trkpt lat="42.3129900" lon="-8.6059470">
        <ele>128.1</ele>
        <time>2021-05-21T07:31:04Z</time>
      </trkpt>
      <trkpt lat="42.3129990" lon="-8.6059540">
        <ele>128.1</ele>
        <time>2021-05-21T07:31:05Z</time>
      </trkpt>
      <trkpt lat="42.3130160" lon="-8.6059580">
        <ele>128.2</ele>
        <time>2021-05-21T07:31:06Z</time>
      </trkpt>
      <trkpt lat="42.3130270" lon="-8.6059630">
        <ele>128.3</ele>
        <time>2021-05-21T07:31:07Z</time>
      </trkpt>
      <trkpt lat="42.3130370" lon="-8.6059670">
        <ele>128.3</ele>
        <time>2021-05-21T07:31:08Z</time>
      </trkpt>
      <trkpt lat="42.3130480" lon="-8.6059720">
        <ele>128.4</ele>
        <time>2021-05-21T07:31:09Z</time>
      </trkpt>
      <trkpt lat="42.3130570" lon="-8.6059750">
        <ele>128.4</ele>
        <time>2021-05-21T07:31:10Z</time>
      </trkpt>
      <trkpt lat="42.3130720" lon="-8.6059790">
        <ele>128.5</ele>
        <time>2021-05-21T07:31:11Z</time>
      </trkpt>
      <trkpt lat="42.3130830" lon="-8.6059850">
        <ele>128.6</ele>
        <time>2021-05-21T07:31:12Z</time>
      </trkpt>
      <trkpt lat="42.3130970" lon="-8.6059900">
        <ele>128.7</ele>
        <time>2021-05-21T07:31:13Z</time>
      </trkpt>
      <trkpt lat="42.3131140" lon="-8.6060000">
        <ele>128.8</ele>
        <time>2021-05-21T07:31:14Z</time>
      </trkpt>
      <trkpt lat="42.3131240" lon="-8.6060120">
        <ele>128.9</ele>
        <time>2021-05-21T07:31:15Z</time>
      </trkpt>
      <trkpt lat="42.3131290" lon="-8.6060340">
        <ele>129.0</ele>
        <time>2021-05-21T07:31:16Z</time>
      </trkpt>
      <trkpt lat="42.3131410" lon="-8.6060400">
        <ele>129.1</ele>
        <time>2021-05-21T07:31:17Z</time>
      </trkpt>
      <trkpt lat="42.3131500" lon="-8.6060390">
        <ele>129.1</ele>
        <time>2021-05-21T07:31:18Z</time>
      </trkpt>
      <trkpt lat="42.3131580" lon="-8.6060380">
        <ele>129.2</ele>
        <time>2021-05-21T07:31:19Z</time>
      </trkpt>
      <trkpt lat="42.3131660" lon="-8.6060370">
        <ele>129.2</ele>
        <time>2021-05-21T07:31:20Z</time>
      </trkpt>
      <trkpt lat="42.3131900" lon="-8.6060430">
        <ele>129.4</ele>
        <time>2021-05-21T07:31:21Z</time>
      </trkpt>
      <trkpt lat="42.3131960" lon="-8.6060470">
        <ele>129.5</ele>
        <time>2021-05-21T07:31:22Z</time>
      </trkpt>
      <trkpt lat="42.3132030" lon="-8.6060500">
        <ele>129.5</ele>
        <time>2021-05-21T07:31:23Z</time>
      </trkpt>
      <trkpt lat="42.3132120" lon="-8.6060500">
        <ele>129.6</ele>
        <time>2021-05-21T07:31:24Z</time>
      </trkpt>
      <trkpt lat="42.3132220" lon="-8.6060560">
        <ele>129.7</ele>
        <time>2021-05-21T07:31:25Z</time>
      </trkpt>
      <trkpt lat="42.3132210" lon="-8.6060700">
        <ele>129.8</ele>
        <time>2021-05-21T07:31:26Z</time>
      </trkpt>
      <trkpt lat="42.3132350" lon="-8.6060730">
        <ele>129.9</ele>
        <time>2021-05-21T07:31:27Z</time>
      </trkpt>
      <trkpt lat="42.3132500" lon="-8.6060770">
        <ele>130.0</ele>
        <time>2021-05-21T07:31:28Z</time>
      </trkpt>
      <trkpt lat="42.3132580" lon="-8.6060800">
        <ele>130.1</ele>
        <time>2021-05-21T07:31:29Z</time>
      </trkpt>
      <trkpt lat="42.3132650" lon="-8.6060830">
        <ele>130.2</ele>
        <time>2021-05-21T07:31:30Z</time>
      </trkpt>
      <trkpt lat="42.3132730" lon="-8.6060860">
        <ele>130.2</ele>
        <time>2021-05-21T07:31:31Z</time>
      </trkpt>
      <trkpt lat="42.3132780" lon="-8.6060880">
        <ele>130.3</ele>
        <time>2021-05-21T07:31:32Z</time>
      </trkpt>
      <trkpt lat="42.3133000" lon="-8.6061000">
        <ele>130.5</ele>
        <time>2021-05-21T07:31:33Z</time>
      </trkpt>
      <trkpt lat="42.3133170" lon="-8.6061090">
        <ele>130.6</ele>
        <time>2021-05-21T07:31:34Z</time>
      </trkpt>
      <trkpt lat="42.3133270" lon="-8.6061160">
        <ele>130.7</ele>
        <time>2021-05-21T07:31:35Z</time>
      </trkpt>
      <trkpt lat="42.3133360" lon="-8.6061230">
        <ele>130.8</ele>
        <time>2021-05-21T07:31:36Z</time>
      </trkpt>
      <trkpt lat="42.3133470" lon="-8.6061260">
        <ele>130.9</ele>
        <time>2021-05-21T07:31:37Z</time>
      </trkpt>
      <trkpt lat="42.3133610" lon="-8.6061320">
        <ele>131.0</ele>
        <time>2021-05-21T07:31:38Z</time>
      </trkpt>
      <trkpt lat="42.3133710" lon="-8.6061270">
        <ele>131.1</ele>
        <time>2021-05-21T07:31:39Z</time>
      </trkpt>
      <trkpt lat="42.3133840" lon="-8.6061380">
        <ele>131.2</ele>
        <time>2021-05-21T07:31:40Z</time>
      </trkpt>
      <trkpt lat="42.3133970" lon="-8.6061420">
        <ele>131.4</ele>
        <time>2021-05-21T07:31:41Z</time>
      </trkpt>
      <trkpt lat="42.3134090" lon="-8.6061440">
        <ele>131.5</ele>
        <time>2021-05-21T07:31:42Z</time>
      </trkpt>
      <trkpt lat="42.3134260" lon="-8.6061470">
        <ele>131.6</ele>
        <time>2021-05-21T07:31:43Z</time>
      </trkpt>
      <trkpt lat="42.3134360" lon="-8.6061440">
        <ele>131.7</ele>
        <time>2021-05-21T07:31:44Z</time>
      </trkpt>
      <trkpt lat="42.3134460" lon="-8.6061450">
        <ele>131.8</ele>
        <time>2021-05-21T07:31:45Z</time>
      </trkpt>
      <trkpt lat="42.3134450" lon="-8.6061410">
        <ele>131.8</ele>
        <time>2021-05-21T07:31:46Z</time>
      </trkpt>
      <trkpt lat="42.3134620" lon="-8.6061530">
        <ele>131.9</ele>
        <time>2021-05-21T07:31:47Z</time>
      </trkpt>
      <trkpt lat="42.3134820" lon="-8.6061490">
        <ele>132.1</ele>
        <time>2021-05-21T07:31:48Z</time>
      </trkpt>
      <trkpt lat="42.3134900" lon="-8.6061530">
        <ele>132.2</ele>
        <time>2021-05-21T07:31:49Z</time>
      </trkpt>
      <trkpt lat="42.3134990" lon="-8.6061570">
        <ele>132.3</ele>
        <time>2021-05-21T07:31:50Z</time>
      </trkpt>
      <trkpt lat="42.3135070" lon="-8.6061530">
        <ele>132.3</ele>
        <time>2021-05-21T07:31:51Z</time>
      </trkpt>
      <trkpt lat="42.3135180" lon="-8.6061510">
        <ele>132.4</ele>
        <time>2021-05-21T07:31:52Z</time>
      </trkpt>
      <trkpt lat="42.3135310" lon="-8.6061490">
        <ele>132.5</ele>
        <time>2021-05-21T07:31:53Z</time>
      </trkpt>
      <trkpt lat="42.3135440" lon="-8.6061520">
        <ele>132.6</ele>
        <time>2021-05-21T07:31:54Z</time>
      </trkpt>
      <trkpt lat="42.3135600" lon="-8.6061610">
        <ele>132.8</ele>
        <time>2021-05-21T07:31:55Z</time>
      </trkpt>
      <trkpt lat="42.3135750" lon="-8.6061640">
        <ele>132.9</ele>
        <time>2021-05-21T07:31:56Z</time>
      </trkpt>
      <trkpt lat="42.3135870" lon="-8.6061710">
        <ele>133.0</ele>
        <time>2021-05-21T07:31:57Z</time>
      </trkpt>
      <trkpt lat="42.3135950" lon="-8.6061710">
        <ele>133.0</ele>
        <time>2021-05-21T07:31:58Z</time>
      </trkpt>
      <trkpt lat="42.3136080" lon="-8.6061760">
        <ele>133.1</ele>
        <time>2021-05-21T07:31:59Z</time>
      </trkpt>
      <trkpt lat="42.3136210" lon="-8.6061850">
        <ele>133.3</ele>
        <time>2021-05-21T07:32:00Z</time>
      </trkpt>
      <trkpt lat="42.3136250" lon="-8.6061790">
        <ele>133.3</ele>
        <time>2021-05-21T07:32:01Z</time>
      </trkpt>
      <trkpt lat="42.3136350" lon="-8.6061840">
        <ele>133.4</ele>
        <time>2021-05-21T07:32:02Z</time>
      </trkpt>
      <trkpt lat="42.3136520" lon="-8.6061900">
        <ele>133.5</ele>
        <time>2021-05-21T07:32:03Z</time>
      </trkpt>
      <trkpt lat="42.3136680" lon="-8.6061870">
        <ele>133.6</ele>
        <time>2021-05-21T07:32:04Z</time>
      </trkpt>
      <trkpt lat="42.3136760" lon="-8.6061850">
        <ele>133.7</ele>
        <time>2021-05-21T07:32:05Z</time>
      </trkpt>
      <trkpt lat="42.3136830" lon="-8.6061840">
        <ele>133.8</ele>
        <time>2021-05-21T07:32:06Z</time>
      </trkpt>
      <trkpt lat="42.3136910" lon="-8.6061820">
        <ele>133.8</ele>
        <time>2021-05-21T07:32:07Z</time>
      </trkpt>
      <trkpt lat="42.3137160" lon="-8.6061820">
        <ele>134.0</ele>
        <time>2021-05-21T07:32:08Z</time>
      </trkpt>
      <trkpt lat="42.3137270" lon="-8.6061820">
        <ele>134.1</ele>
        <time>2021-05-21T07:32:09Z</time>
      </trkpt>
      <trkpt lat="42.3137370" lon="-8.6061810">
        <ele>134.1</ele>
        <time>2021-05-21T07:32:10Z</time>
      </trkpt>
      <trkpt lat="42.3137490" lon="-8.6061840">
        <ele>134.2</ele>
        <time>2021-05-21T07:32:11Z</time>
      </trkpt>
      <trkpt lat="42.3137700" lon="-8.6061790">
        <ele>134.4</ele>
        <time>2021-05-21T07:32:12Z</time>
      </trkpt>
      <trkpt lat="42.3137750" lon="-8.6061850">
        <ele>134.4</ele>
        <time>2021-05-21T07:32:13Z</time>
      </trkpt>
      <trkpt lat="42.3137870" lon="-8.6061890">
        <ele>134.5</ele>
        <time>2021-05-21T07:32:14Z</time>
      </trkpt>
      <trkpt lat="42.3137930" lon="-8.6061900">
        <ele>134.5</ele>
        <time>2021-05-21T07:32:15Z</time>
      </trkpt>
      <trkpt lat="42.3137990" lon="-8.6061780">
        <ele>134.6</ele>
        <time>2021-05-21T07:32:16Z</time>
      </trkpt>
      <trkpt lat="42.3138190" lon="-8.6061770">
        <ele>134.7</ele>
        <time>2021-05-21T07:32:17Z</time>
      </trkpt>
      <trkpt lat="42.3138270" lon="-8.6061770">
        <ele>134.8</ele>
        <time>2021-05-21T07:32:18Z</time>
      </trkpt>
      <trkpt lat="42.3138360" lon="-8.6061770">
        <ele>134.8</ele>
        <time>2021-05-21T07:32:19Z</time>
      </trkpt>
      <trkpt lat="42.3138520" lon="-8.6061780">
        <ele>134.9</ele>
        <time>2021-05-21T07:32:20Z</time>
      </trkpt>
      <trkpt lat="42.3138600" lon="-8.6061760">
        <ele>135.0</ele>
        <time>2021-05-21T07:32:21Z</time>
      </trkpt>
      <trkpt lat="42.3138710" lon="-8.6061750">
        <ele>135.0</ele>
        <time>2021-05-21T07:32:22Z</time>
      </trkpt>
      <trkpt lat="42.3138820" lon="-8.6061790">
        <ele>135.1</ele>
        <time>2021-05-21T07:32:23Z</time>
      </trkpt>
      <trkpt lat="42.3138860" lon="-8.6061840">
        <ele>135.1</ele>
        <time>2021-05-21T07:32:24Z</time>
      </trkpt>
      <trkpt lat="42.3138990" lon="-8.6061880">
        <ele>135.2</ele>
        <time>2021-05-21T07:32:25Z</time>
      </trkpt>
      <trkpt lat="42.3139230" lon="-8.6061940">
        <ele>135.3</ele>
        <time>2021-05-21T07:32:26Z</time>
      </trkpt>
      <trkpt lat="42.3139290" lon="-8.6061960">
        <ele>135.4</ele>
        <time>2021-05-21T07:32:27Z</time>
      </trkpt>
      <trkpt lat="42.3139350" lon="-8.6061980">
        <ele>135.4</ele>
        <time>2021-05-21T07:32:28Z</time>
      </trkpt>
      <trkpt lat="42.3139590" lon="-8.6062110">
        <ele>135.5</ele>
        <time>2021-05-21T07:32:29Z</time>
      </trkpt>
      <trkpt lat="42.3139680" lon="-8.6062130">
        <ele>135.6</ele>
        <time>2021-05-21T07:32:30Z</time>
      </trkpt>
      <trkpt lat="42.3139760" lon="-8.6062160">
        <ele>135.6</ele>
        <time>2021-05-21T07:32:31Z</time>
      </trkpt>
      <trkpt lat="42.3139940" lon="-8.6062110">
        <ele>135.7</ele>
        <time>2021-05-21T07:32:32Z</time>
      </trkpt>
      <trkpt lat="42.3140090" lon="-8.6062280">
        <ele>135.9</ele>
        <time>2021-05-21T07:32:33Z</time>
      </trkpt>
      <trkpt lat="42.3140170" lon="-8.6062250">
        <ele>135.9</ele>
        <time>2021-05-21T07:32:34Z</time>
      </trkpt>
      <trkpt lat="42.3140280" lon="-8.6062220">
        <ele>136.0</ele>
        <time>2021-05-21T07:32:35Z</time>
      </trkpt>
      <trkpt lat="42.3140390" lon="-8.6062310">
        <ele>136.0</ele>
        <time>2021-05-21T07:32:36Z</time>
      </trkpt>
      <trkpt lat="42.3140500" lon="-8.6062310">
        <ele>136.1</ele>
        <time>2021-05-21T07:32:37Z</time>
      </trkpt>
      <trkpt lat="42.3140510" lon="-8.6062350">
        <ele>136.1</ele>
        <time>2021-05-21T07:32:38Z</time>
      </trkpt>
      <trkpt lat="42.3140660" lon="-8.6062550">
        <ele>136.3</ele>
        <time>2021-05-21T07:32:39Z</time>
      </trkpt>
      <trkpt lat="42.3140820" lon="-8.6062620">
        <ele>136.3</ele>
        <time>2021-05-21T07:32:40Z</time>
      </trkpt>
      <trkpt lat="42.3140930" lon="-8.6062670">
        <ele>136.4</ele>
        <time>2021-05-21T07:32:41Z</time>
      </trkpt>
      <trkpt lat="42.3141030" lon="-8.6062730">
        <ele>136.5</ele>
        <time>2021-05-21T07:32:42Z</time>
      </trkpt>
      <trkpt lat="42.3141030" lon="-8.6062710">
        <ele>136.5</ele>
        <time>2021-05-21T07:32:43Z</time>
      </trkpt>
      <trkpt lat="42.3141140" lon="-8.6062740">
        <ele>136.6</ele>
        <time>2021-05-21T07:32:44Z</time>
      </trkpt>
      <trkpt lat="42.3141230" lon="-8.6062840">
        <ele>136.6</ele>
        <time>2021-05-21T07:32:45Z</time>
      </trkpt>
      <trkpt lat="42.3141390" lon="-8.6062800">
        <ele>136.8</ele>
        <time>2021-05-21T07:32:46Z</time>
      </trkpt>
      <trkpt lat="42.3141540" lon="-8.6062840">
        <ele>136.9</ele>
        <time>2021-05-21T07:32:47Z</time>
      </trkpt>
      <trkpt lat="42.3141670" lon="-8.6062900">
        <ele>136.9</ele>
        <time>2021-05-21T07:32:48Z</time>
      </trkpt>
      <trkpt lat="42.3141790" lon="-8.6062960">
        <ele>137.0</ele>
        <time>2021-05-21T07:32:49Z</time>
      </trkpt>
      <trkpt lat="42.3141880" lon="-8.6062960">
        <ele>137.1</ele>
        <time>2021-05-21T07:32:50Z</time>
      </trkpt>
      <trkpt lat="42.3141990" lon="-8.6063040">
        <ele>137.2</ele>
        <time>2021-05-21T07:32:51Z</time>
      </trkpt>
      <trkpt lat="42.3142090" lon="-8.6063010">
        <ele>137.2</ele>
        <time>2021-05-21T07:32:52Z</time>
      </trkpt>
      <trkpt lat="42.3142130" lon="-8.6063070">
        <ele>137.3</ele>
        <time>2021-05-21T07:32:53Z</time>
      </trkpt>
      <trkpt lat="42.3142100" lon="-8.6062950">
        <ele>137.4</ele>
        <time>2021-05-21T07:32:54Z</time>
      </trkpt>
      <trkpt lat="42.3142300" lon="-8.6063010">
        <ele>137.5</ele>
        <time>2021-05-21T07:32:55Z</time>
      </trkpt>
      <trkpt lat="42.3142390" lon="-8.6063090">
        <ele>137.6</ele>
        <time>2021-05-21T07:32:56Z</time>
      </trkpt>
      <trkpt lat="42.3142570" lon="-8.6063230">
        <ele>137.7</ele>
        <time>2021-05-21T07:32:57Z</time>
      </trkpt>
      <trkpt lat="42.3142810" lon="-8.6063440">
        <ele>137.9</ele>
        <time>2021-05-21T07:32:58Z</time>
      </trkpt>
      <trkpt lat="42.3142920" lon="-8.6063510">
        <ele>138.0</ele>
        <time>2021-05-21T07:32:59Z</time>
      </trkpt>
      <trkpt lat="42.3142960" lon="-8.6063540">
        <ele>138.0</ele>
        <time>2021-05-21T07:33:00Z</time>
      </trkpt>
      <trkpt lat="42.3143000" lon="-8.6063450">
        <ele>138.1</ele>
        <time>2021-05-21T07:33:01Z</time>
      </trkpt>
      <trkpt lat="42.3143120" lon="-8.6063570">
        <ele>138.2</ele>
        <time>2021-05-21T07:33:02Z</time>
      </trkpt>
      <trkpt lat="42.3143230" lon="-8.6063630">
        <ele>138.3</ele>
        <time>2021-05-21T07:33:03Z</time>
      </trkpt>
      <trkpt lat="42.3143380" lon="-8.6063780">
        <ele>138.4</ele>
        <time>2021-05-21T07:33:04Z</time>
      </trkpt>
      <trkpt lat="42.3143460" lon="-8.6063840">
        <ele>138.4</ele>
        <time>2021-05-21T07:33:05Z</time>
      </trkpt>
      <trkpt lat="42.3143550" lon="-8.6063900">
        <ele>138.5</ele>
        <time>2021-05-21T07:33:06Z</time>
      </trkpt>
      <trkpt lat="42.3143820" lon="-8.6064110">
        <ele>138.7</ele>
        <time>2021-05-21T07:33:07Z</time>
      </trkpt>
      <trkpt lat="42.3143890" lon="-8.6064120">
        <ele>138.7</ele>
        <time>2021-05-21T07:33:08Z</time>
      </trkpt>
      <trkpt lat="42.3144010" lon="-8.6064180">
        <ele>138.8</ele>
        <time>2021-05-21T07:33:09Z</time>
      </trkpt>
      <trkpt lat="42.3144150" lon="-8.6064280">
        <ele>138.9</ele>
        <time>2021-05-21T07:33:10Z</time>
      </trkpt>
      <trkpt lat="42.3144280" lon="-8.6064360">
        <ele>138.9</ele>
        <time>2021-05-21T07:33:11Z</time>
      </trkpt>
      <trkpt lat="42.3144360" lon="-8.6064450">
        <ele>139.0</ele>
        <time>2021-05-21T07:33:12Z</time>
      </trkpt>
      <trkpt lat="42.3144440" lon="-8.6064540">
        <ele>139.0</ele>
        <time>2021-05-21T07:33:13Z</time>
      </trkpt>
      <trkpt lat="42.3144500" lon="-8.6064590">
        <ele>139.0</ele>
        <time>2021-05-21T07:33:14Z</time>
      </trkpt>
      <trkpt lat="42.3144620" lon="-8.6064740">
        <ele>139.1</ele>
        <time>2021-05-21T07:33:15Z</time>
      </trkpt>
      <trkpt lat="42.3144740" lon="-8.6064810">
        <ele>139.2</ele>
        <time>2021-05-21T07:33:16Z</time>
      </trkpt>
      <trkpt lat="42.3144860" lon="-8.6064950">
        <ele>139.2</ele>
        <time>2021-05-21T07:33:17Z</time>
      </trkpt>
      <trkpt lat="42.3144950" lon="-8.6065060">
        <ele>139.3</ele>
        <time>2021-05-21T07:33:18Z</time>
      </trkpt>
      <trkpt lat="42.3145030" lon="-8.6065160">
        <ele>139.3</ele>
        <time>2021-05-21T07:33:19Z</time>
      </trkpt>
      <trkpt lat="42.3145110" lon="-8.6065220">
        <ele>139.4</ele>
        <time>2021-05-21T07:33:20Z</time>
      </trkpt>
      <trkpt lat="42.3145180" lon="-8.6065300">
        <ele>139.4</ele>
        <time>2021-05-21T07:33:21Z</time>
      </trkpt>
      <trkpt lat="42.3145270" lon="-8.6065330">
        <ele>139.5</ele>
        <time>2021-05-21T07:33:22Z</time>
      </trkpt>
      <trkpt lat="42.3145310" lon="-8.6065340">
        <ele>139.5</ele>
        <time>2021-05-21T07:33:23Z</time>
      </trkpt>
      <trkpt lat="42.3145380" lon="-8.6065360">
        <ele>139.5</ele>
        <time>2021-05-21T07:33:24Z</time>
      </trkpt>
      <trkpt lat="42.3145510" lon="-8.6065380">
        <ele>139.6</ele>
        <time>2021-05-21T07:33:25Z</time>
      </trkpt>
      <trkpt lat="42.3145620" lon="-8.6065450">
        <ele>139.7</ele>
        <time>2021-05-21T07:33:26Z</time>
      </trkpt>
      <trkpt lat="42.3145700" lon="-8.6065510">
        <ele>139.7</ele>
        <time>2021-05-21T07:33:27Z</time>
      </trkpt>
      <trkpt lat="42.3145730" lon="-8.6065560">
        <ele>139.7</ele>
        <time>2021-05-21T07:33:28Z</time>
      </trkpt>
      <trkpt lat="42.3145840" lon="-8.6065720">
        <ele>139.8</ele>
        <time>2021-05-21T07:33:29Z</time>
      </trkpt>
      <trkpt lat="42.3145950" lon="-8.6065850">
        <ele>139.9</ele>
        <time>2021-05-21T07:33:30Z</time>
      </trkpt>
      <trkpt lat="42.3146000" lon="-8.6065920">
        <ele>140.0</ele>
        <time>2021-05-21T07:33:31Z</time>
      </trkpt>
      <trkpt lat="42.3146060" lon="-8.6065990">
        <ele>140.0</ele>
        <time>2021-05-21T07:33:32Z</time>
      </trkpt>
      <trkpt lat="42.3146110" lon="-8.6066060">
        <ele>140.1</ele>
        <time>2021-05-21T07:33:33Z</time>
      </trkpt>
      <trkpt lat="42.3146200" lon="-8.6066120">
        <ele>140.1</ele>
        <time>2021-05-21T07:33:34Z</time>
      </trkpt>
      <trkpt lat="42.3146280" lon="-8.6066130">
        <ele>140.2</ele>
        <time>2021-05-21T07:33:35Z</time>
      </trkpt>
      <trkpt lat="42.3146370" lon="-8.6066200">
        <ele>140.2</ele>
        <time>2021-05-21T07:33:36Z</time>
      </trkpt>
      <trkpt lat="42.3146430" lon="-8.6066290">
        <ele>140.3</ele>
        <time>2021-05-21T07:33:37Z</time>
      </trkpt>
      <trkpt lat="42.3146480" lon="-8.6066370">
        <ele>140.3</ele>
        <time>2021-05-21T07:33:38Z</time>
      </trkpt>
      <trkpt lat="42.3146530" lon="-8.6066370">
        <ele>140.4</ele>
        <time>2021-05-21T07:33:39Z</time>
      </trkpt>
      <trkpt lat="42.3146560" lon="-8.6066300">
        <ele>140.4</ele>
        <time>2021-05-21T07:33:40Z</time>
      </trkpt>
      <trkpt lat="42.3146580" lon="-8.6066410">
        <ele>140.5</ele>
        <time>2021-05-21T07:33:41Z</time>
      </trkpt>
      <trkpt lat="42.3146600" lon="-8.6066490">
        <ele>140.5</ele>
        <time>2021-05-21T07:33:42Z</time>
      </trkpt>
      <trkpt lat="42.3146640" lon="-8.6066620">
        <ele>140.6</ele>
        <time>2021-05-21T07:33:43Z</time>
      </trkpt>
      <trkpt lat="42.3146720" lon="-8.6066800">
        <ele>140.6</ele>
        <time>2021-05-21T07:33:44Z</time>
      </trkpt>
      <trkpt lat="42.3146740" lon="-8.6066740">
        <ele>140.7</ele>
        <time>2021-05-21T07:33:45Z</time>
      </trkpt>
      <trkpt lat="42.3146810" lon="-8.6066740">
        <ele>140.7</ele>
        <time>2021-05-21T07:33:46Z</time>
      </trkpt>
      <trkpt lat="42.3146980" lon="-8.6066790">
        <ele>140.8</ele>
        <time>2021-05-21T07:33:47Z</time>
      </trkpt>
      <trkpt lat="42.3147030" lon="-8.6066760">
        <ele>140.9</ele>
        <time>2021-05-21T07:33:48Z</time>
      </trkpt>
      <trkpt lat="42.3147110" lon="-8.6066730">
        <ele>140.9</ele>
        <time>2021-05-21T07:33:49Z</time>
      </trkpt>
      <trkpt lat="42.3147150" lon="-8.6066890">
        <ele>141.0</ele>
        <time>2021-05-21T07:33:50Z</time>
      </trkpt>
      <trkpt lat="42.3147330" lon="-8.6066950">
        <ele>141.1</ele>
        <time>2021-05-21T07:33:51Z</time>
      </trkpt>
      <trkpt lat="42.3147470" lon="-8.6067010">
        <ele>141.2</ele>
        <time>2021-05-21T07:33:52Z</time>
      </trkpt>
      <trkpt lat="42.3147540" lon="-8.6067060">
        <ele>141.2</ele>
        <time>2021-05-21T07:33:53Z</time>
      </trkpt>
      <trkpt lat="42.3147600" lon="-8.6067110">
        <ele>141.2</ele>
        <time>2021-05-21T07:33:54Z</time>
      </trkpt>
      <trkpt lat="42.3147670" lon="-8.6067160">
        <ele>141.3</ele>
        <time>2021-05-21T07:33:55Z</time>
      </trkpt>
      <trkpt lat="42.3147860" lon="-8.6067280">
        <ele>141.4</ele>
        <time>2021-05-21T07:33:56Z</time>
      </trkpt>
      <trkpt lat="42.3147940" lon="-8.6067340">
        <ele>141.4</ele>
        <time>2021-05-21T07:33:57Z</time>
      </trkpt>
      <trkpt lat="42.3148010" lon="-8.6067400">
        <ele>141.4</ele>
        <time>2021-05-21T07:33:58Z</time>
      </trkpt>
      <trkpt lat="42.3148210" lon="-8.6067460">
        <ele>141.5</ele>
        <time>2021-05-21T07:33:59Z</time>
      </trkpt>
      <trkpt lat="42.3148300" lon="-8.6067470">
        <ele>141.6</ele>
        <time>2021-05-21T07:34:00Z</time>
      </trkpt>
      <trkpt lat="42.3148380" lon="-8.6067470">
        <ele>141.6</ele>
        <time>2021-05-21T07:34:01Z</time>
      </trkpt>
      <trkpt lat="42.3148530" lon="-8.6067540">
        <ele>141.6</ele>
        <time>2021-05-21T07:34:02Z</time>
      </trkpt>
      <trkpt lat="42.3148660" lon="-8.6067590">
        <ele>141.7</ele>
        <time>2021-05-21T07:34:03Z</time>
      </trkpt>
      <trkpt lat="42.3148950" lon="-8.6067730">
        <ele>141.7</ele>
        <time>2021-05-21T07:34:04Z</time>
      </trkpt>
      <trkpt lat="42.3149020" lon="-8.6067800">
        <ele>141.8</ele>
        <time>2021-05-21T07:34:05Z</time>
      </trkpt>
      <trkpt lat="42.3149210" lon="-8.6067890">
        <ele>141.8</ele>
        <time>2021-05-21T07:34:06Z</time>
      </trkpt>
      <trkpt lat="42.3149330" lon="-8.6067970">
        <ele>141.8</ele>
        <time>2021-05-21T07:34:07Z</time>
      </trkpt>
      <trkpt lat="42.3149450" lon="-8.6068040">
        <ele>141.8</ele>
        <time>2021-05-21T07:34:08Z</time>
      </trkpt>
      <trkpt lat="42.3149560" lon="-8.6068140">
        <ele>141.9</ele>
        <time>2021-05-21T07:34:09Z</time>
      </trkpt>
      <trkpt lat="42.3149610" lon="-8.6068190">
        <ele>141.9</ele>
        <time>2021-05-21T07:34:10Z</time>
      </trkpt>
      <trkpt lat="42.3149720" lon="-8.6068320">
        <ele>141.9</ele>
        <time>2021-05-21T07:34:11Z</time>
      </trkpt>
      <trkpt lat="42.3149780" lon="-8.6068430">
        <ele>141.9</ele>
        <time>2021-05-21T07:34:12Z</time>
      </trkpt>
      <trkpt lat="42.3149860" lon="-8.6068560">
        <ele>141.9</ele>
        <time>2021-05-21T07:34:13Z</time>
      </trkpt>
      <trkpt lat="42.3149940" lon="-8.6068690">
        <ele>141.9</ele>
        <time>2021-05-21T07:34:14Z</time>
      </trkpt>
      <trkpt lat="42.3150070" lon="-8.6068830">
        <ele>142.0</ele>
        <time>2021-05-21T07:34:15Z</time>
      </trkpt>
      <trkpt lat="42.3150140" lon="-8.6068930">
        <ele>142.0</ele>
        <time>2021-05-21T07:34:16Z</time>
      </trkpt>
      <trkpt lat="42.3150220" lon="-8.6069040">
        <ele>142.0</ele>
        <time>2021-05-21T07:34:17Z</time>
      </trkpt>
      <trkpt lat="42.3150290" lon="-8.6069030">
        <ele>142.0</ele>
        <time>2021-05-21T07:34:18Z</time>
      </trkpt>
      <trkpt lat="42.3150410" lon="-8.6069120">
        <ele>142.0</ele>
        <time>2021-05-21T07:34:19Z</time>
      </trkpt>
      <trkpt lat="42.3150540" lon="-8.6069230">
        <ele>142.0</ele>
        <time>2021-05-21T07:34:20Z</time>
      </trkpt>
      <trkpt lat="42.3150610" lon="-8.6069340">
        <ele>142.1</ele>
        <time>2021-05-21T07:34:21Z</time>
      </trkpt>
      <trkpt lat="42.3150670" lon="-8.6069470">
        <ele>142.1</ele>
        <time>2021-05-21T07:34:22Z</time>
      </trkpt>
      <trkpt lat="42.3150740" lon="-8.6069610">
        <ele>142.1</ele>
        <time>2021-05-21T07:34:23Z</time>
      </trkpt>
      <trkpt lat="42.3150900" lon="-8.6069770">
        <ele>142.1</ele>
        <time>2021-05-21T07:34:24Z</time>
      </trkpt>
      <trkpt lat="42.3151040" lon="-8.6069900">
        <ele>142.1</ele>
        <time>2021-05-21T07:34:25Z</time>
      </trkpt>
      <trkpt lat="42.3151280" lon="-8.6070130">
        <ele>142.2</ele>
        <time>2021-05-21T07:34:26Z</time>
      </trkpt>
      <trkpt lat="42.3151400" lon="-8.6070220">
        <ele>142.2</ele>
        <time>2021-05-21T07:34:27Z</time>
      </trkpt>
      <trkpt lat="42.3151620" lon="-8.6070420">
        <ele>142.3</ele>
        <time>2021-05-21T07:34:28Z</time>
      </trkpt>
      <trkpt lat="42.3151700" lon="-8.6070510">
        <ele>142.3</ele>
        <time>2021-05-21T07:34:29Z</time>
      </trkpt>
      <trkpt lat="42.3151890" lon="-8.6070650">
        <ele>142.3</ele>
        <time>2021-05-21T07:34:30Z</time>
      </trkpt>
      <trkpt lat="42.3151990" lon="-8.6070670">
        <ele>142.4</ele>
        <time>2021-05-21T07:34:31Z</time>
      </trkpt>
      <trkpt lat="42.3152090" lon="-8.6070700">
        <ele>142.4</ele>
        <time>2021-05-21T07:34:32Z</time>
      </trkpt>
      <trkpt lat="42.3152170" lon="-8.6070750">
        <ele>142.4</ele>
        <time>2021-05-21T07:34:33Z</time>
      </trkpt>
      <trkpt lat="42.3152220" lon="-8.6070820">
        <ele>142.4</ele>
        <time>2021-05-21T07:34:34Z</time>
      </trkpt>
      <trkpt lat="42.3152350" lon="-8.6070980">
        <ele>142.4</ele>
        <time>2021-05-21T07:34:35Z</time>
      </trkpt>
      <trkpt lat="42.3152430" lon="-8.6071050">
        <ele>142.5</ele>
        <time>2021-05-21T07:34:36Z</time>
      </trkpt>
      <trkpt lat="42.3152480" lon="-8.6071160">
        <ele>142.5</ele>
        <time>2021-05-21T07:34:37Z</time>
      </trkpt>
      <trkpt lat="42.3152590" lon="-8.6071240">
        <ele>142.5</ele>
        <time>2021-05-21T07:34:38Z</time>
      </trkpt>
      <trkpt lat="42.3152770" lon="-8.6071340">
        <ele>142.6</ele>
        <time>2021-05-21T07:34:39Z</time>
      </trkpt>
      <trkpt lat="42.3152860" lon="-8.6071400">
        <ele>142.6</ele>
        <time>2021-05-21T07:34:40Z</time>
      </trkpt>
      <trkpt lat="42.3152940" lon="-8.6071450">
        <ele>142.6</ele>
        <time>2021-05-21T07:34:41Z</time>
      </trkpt>
      <trkpt lat="42.3153100" lon="-8.6071570">
        <ele>142.6</ele>
        <time>2021-05-21T07:34:42Z</time>
      </trkpt>
      <trkpt lat="42.3153220" lon="-8.6071650">
        <ele>142.7</ele>
        <time>2021-05-21T07:34:43Z</time>
      </trkpt>
      <trkpt lat="42.3153360" lon="-8.6071680">
        <ele>142.7</ele>
        <time>2021-05-21T07:34:44Z</time>
      </trkpt>
      <trkpt lat="42.3153450" lon="-8.6071740">
        <ele>142.7</ele>
        <time>2021-05-21T07:34:45Z</time>
      </trkpt>
      <trkpt lat="42.3153550" lon="-8.6071790">
        <ele>142.7</ele>
        <time>2021-05-21T07:34:46Z</time>
      </trkpt>
      <trkpt lat="42.3153750" lon="-8.6071960">
        <ele>142.8</ele>
        <time>2021-05-21T07:34:47Z</time>
      </trkpt>
      <trkpt lat="42.3153840" lon="-8.6072070">
        <ele>142.8</ele>
        <time>2021-05-21T07:34:48Z</time>
      </trkpt>
      <trkpt lat="42.3153920" lon="-8.6072170">
        <ele>142.8</ele>
        <time>2021-05-21T07:34:49Z</time>
      </trkpt>
      <trkpt lat="42.3154140" lon="-8.6072400">
        <ele>142.9</ele>
        <time>2021-05-21T07:34:50Z</time>
      </trkpt>
      <trkpt lat="42.3154290" lon="-8.6072580">
        <ele>142.9</ele>
        <time>2021-05-21T07:34:51Z</time>
      </trkpt>
      <trkpt lat="42.3154380" lon="-8.6072630">
        <ele>142.9</ele>
        <time>2021-05-21T07:34:52Z</time>
      </trkpt>
      <trkpt lat="42.3154540" lon="-8.6072780">
        <ele>143.0</ele>
        <time>2021-05-21T07:34:53Z</time>
      </trkpt>
      <trkpt lat="42.3154620" lon="-8.6072820">
        <ele>143.0</ele>
        <time>2021-05-21T07:34:54Z</time>
      </trkpt>
      <trkpt lat="42.3154710" lon="-8.6072870">
        <ele>143.0</ele>
        <time>2021-05-21T07:34:55Z</time>
      </trkpt>
      <trkpt lat="42.3154900" lon="-8.6073020">
        <ele>143.0</ele>
        <time>2021-05-21T07:34:56Z</time>
      </trkpt>
      <trkpt lat="42.3154970" lon="-8.6073090">
        <ele>143.0</ele>
        <time>2021-05-21T07:34:57Z</time>
      </trkpt>
      <trkpt lat="42.3155040" lon="-8.6073170">
        <ele>143.0</ele>
        <time>2021-05-21T07:34:58Z</time>
      </trkpt>
      <trkpt lat="42.3155150" lon="-8.6073250">
        <ele>143.1</ele>
        <time>2021-05-21T07:34:59Z</time>
      </trkpt>
      <trkpt lat="42.3155220" lon="-8.6073320">
        <ele>143.1</ele>
        <time>2021-05-21T07:35:00Z</time>
      </trkpt>
      <trkpt lat="42.3155290" lon="-8.6073440">
        <ele>143.1</ele>
        <time>2021-05-21T07:35:01Z</time>
      </trkpt>
      <trkpt lat="42.3155390" lon="-8.6073450">
        <ele>143.1</ele>
        <time>2021-05-21T07:35:02Z</time>
      </trkpt>
      <trkpt lat="42.3155540" lon="-8.6073520">
        <ele>143.1</ele>
        <time>2021-05-21T07:35:03Z</time>
      </trkpt>
      <trkpt lat="42.3155570" lon="-8.6073610">
        <ele>143.1</ele>
        <time>2021-05-21T07:35:04Z</time>
      </trkpt>
      <trkpt lat="42.3155690" lon="-8.6073690">
        <ele>143.1</ele>
        <time>2021-05-21T07:35:05Z</time>
      </trkpt>
      <trkpt lat="42.3155820" lon="-8.6073780">
        <ele>143.1</ele>
        <time>2021-05-21T07:35:06Z</time>
      </trkpt>
      <trkpt lat="42.3156030" lon="-8.6073930">
        <ele>143.2</ele>
        <time>2021-05-21T07:35:07Z</time>
      </trkpt>
      <trkpt lat="42.3156110" lon="-8.6074020">
        <ele>143.2</ele>
        <time>2021-05-21T07:35:08Z</time>
      </trkpt>
      <trkpt lat="42.3156200" lon="-8.6074110">
        <ele>143.2</ele>
        <time>2021-05-21T07:35:09Z</time>
      </trkpt>
      <trkpt lat="42.3156320" lon="-8.6074190">
        <ele>143.2</ele>
        <time>2021-05-21T07:35:10Z</time>
      </trkpt>
      <trkpt lat="42.3156500" lon="-8.6074230">
        <ele>143.2</ele>
        <time>2021-05-21T07:35:11Z</time>
      </trkpt>
      <trkpt lat="42.3156640" lon="-8.6074320">
        <ele>143.2</ele>
        <time>2021-05-21T07:35:12Z</time>
      </trkpt>
      <trkpt lat="42.3156770" lon="-8.6074410">
        <ele>143.2</ele>
        <time>2021-05-21T07:35:13Z</time>
      </trkpt>
      <trkpt lat="42.3156920" lon="-8.6074490">
        <ele>143.2</ele>
        <time>2021-05-21T07:35:14Z</time>
      </trkpt>
      <trkpt lat="42.3157020" lon="-8.6074640">
        <ele>143.3</ele>
        <time>2021-05-21T07:35:15Z</time>
      </trkpt>
      <trkpt lat="42.3157190" lon="-8.6074650">
        <ele>143.3</ele>
        <time>2021-05-21T07:35:16Z</time>
      </trkpt>
      <trkpt lat="42.3157310" lon="-8.6074610">
        <ele>143.3</ele>
        <time>2021-05-21T07:35:17Z</time>
      </trkpt>
      <trkpt lat="42.3157310" lon="-8.6074630">
        <ele>143.3</ele>
        <time>2021-05-21T07:35:18Z</time>
      </trkpt>
      <trkpt lat="42.3157450" lon="-8.6074750">
        <ele>143.3</ele>
        <time>2021-05-21T07:35:19Z</time>
      </trkpt>
      <trkpt lat="42.3157610" lon="-8.6074730">
        <ele>143.3</ele>
        <time>2021-05-21T07:35:20Z</time>
      </trkpt>
      <trkpt lat="42.3157810" lon="-8.6074850">
        <ele>143.3</ele>
        <time>2021-05-21T07:35:21Z</time>
      </trkpt>
      <trkpt lat="42.3157930" lon="-8.6074880">
        <ele>143.4</ele>
        <time>2021-05-21T07:35:22Z</time>
      </trkpt>
      <trkpt lat="42.3158050" lon="-8.6074970">
        <ele>143.4</ele>
        <time>2021-05-21T07:35:23Z</time>
      </trkpt>
      <trkpt lat="42.3158150" lon="-8.6075040">
        <ele>143.4</ele>
        <time>2021-05-21T07:35:24Z</time>
      </trkpt>
      <trkpt lat="42.3158170" lon="-8.6075070">
        <ele>143.4</ele>
        <time>2021-05-21T07:35:25Z</time>
      </trkpt>
      <trkpt lat="42.3158270" lon="-8.6075050">
        <ele>143.5</ele>
        <time>2021-05-21T07:35:26Z</time>
      </trkpt>
      <trkpt lat="42.3158440" lon="-8.6075080">
        <ele>143.5</ele>
        <time>2021-05-21T07:35:27Z</time>
      </trkpt>
      <trkpt lat="42.3158520" lon="-8.6075130">
        <ele>143.5</ele>
        <time>2021-05-21T07:35:28Z</time>
      </trkpt>
      <trkpt lat="42.3158650" lon="-8.6075180">
        <ele>143.6</ele>
        <time>2021-05-21T07:35:29Z</time>
      </trkpt>
      <trkpt lat="42.3158760" lon="-8.6075200">
        <ele>143.6</ele>
        <time>2021-05-21T07:35:30Z</time>
      </trkpt>
      <trkpt lat="42.3158980" lon="-8.6075210">
        <ele>143.7</ele>
        <time>2021-05-21T07:35:31Z</time>
      </trkpt>
      <trkpt lat="42.3159070" lon="-8.6075220">
        <ele>143.7</ele>
        <time>2021-05-21T07:35:32Z</time>
      </trkpt>
      <trkpt lat="42.3159160" lon="-8.6075150">
        <ele>143.8</ele>
        <time>2021-05-21T07:35:33Z</time>
      </trkpt>
      <trkpt lat="42.3159300" lon="-8.6075200">
        <ele>143.8</ele>
        <time>2021-05-21T07:35:34Z</time>
      </trkpt>
      <trkpt lat="42.3159430" lon="-8.6075150">
        <ele>143.9</ele>
        <time>2021-05-21T07:35:35Z</time>
      </trkpt>
      <trkpt lat="42.3159530" lon="-8.6075010">
        <ele>144.0</ele>
        <time>2021-05-21T07:35:36Z</time>
      </trkpt>
      <trkpt lat="42.3159630" lon="-8.6074980">
        <ele>144.1</ele>
        <time>2021-05-21T07:35:37Z</time>
      </trkpt>
      <trkpt lat="42.3159740" lon="-8.6074960">
        <ele>144.1</ele>
        <time>2021-05-21T07:35:38Z</time>
      </trkpt>
      <trkpt lat="42.3159820" lon="-8.6074980">
        <ele>144.2</ele>
        <time>2021-05-21T07:35:39Z</time>
      </trkpt>
      <trkpt lat="42.3159940" lon="-8.6074950">
        <ele>144.3</ele>
        <time>2021-05-21T07:35:40Z</time>
      </trkpt>
      <trkpt lat="42.3160080" lon="-8.6074950">
        <ele>144.4</ele>
        <time>2021-05-21T07:35:41Z</time>
      </trkpt>
      <trkpt lat="42.3160320" lon="-8.6074900">
        <ele>144.6</ele>
        <time>2021-05-21T07:35:42Z</time>
      </trkpt>
      <trkpt lat="42.3160400" lon="-8.6074880">
        <ele>144.6</ele>
        <time>2021-05-21T07:35:43Z</time>
      </trkpt>
      <trkpt lat="42.3160480" lon="-8.6074850">
        <ele>144.7</ele>
        <time>2021-05-21T07:35:44Z</time>
      </trkpt>
      <trkpt lat="42.3160560" lon="-8.6074800">
        <ele>144.8</ele>
        <time>2021-05-21T07:35:45Z</time>
      </trkpt>
      <trkpt lat="42.3160720" lon="-8.6074790">
        <ele>145.0</ele>
        <time>2021-05-21T07:35:46Z</time>
      </trkpt>
      <trkpt lat="42.3160810" lon="-8.6074680">
        <ele>145.1</ele>
        <time>2021-05-21T07:35:47Z</time>
      </trkpt>
      <trkpt lat="42.3160890" lon="-8.6074660">
        <ele>145.2</ele>
        <time>2021-05-21T07:35:48Z</time>
      </trkpt>
      <trkpt lat="42.3161030" lon="-8.6074670">
        <ele>145.3</ele>
        <time>2021-05-21T07:35:49Z</time>
      </trkpt>
      <trkpt lat="42.3161100" lon="-8.6074640">
        <ele>145.4</ele>
        <time>2021-05-21T07:35:50Z</time>
      </trkpt>
      <trkpt lat="42.3161230" lon="-8.6074610">
        <ele>145.5</ele>
        <time>2021-05-21T07:35:51Z</time>
      </trkpt>
      <trkpt lat="42.3161320" lon="-8.6074570">
        <ele>145.6</ele>
        <time>2021-05-21T07:35:52Z</time>
      </trkpt>
      <trkpt lat="42.3161390" lon="-8.6074530">
        <ele>145.7</ele>
        <time>2021-05-21T07:35:53Z</time>
      </trkpt>
      <trkpt lat="42.3161600" lon="-8.6074430">
        <ele>146.0</ele>
        <time>2021-05-21T07:35:54Z</time>
      </trkpt>
      <trkpt lat="42.3161700" lon="-8.6074400">
        <ele>146.1</ele>
        <time>2021-05-21T07:35:55Z</time>
      </trkpt>
      <trkpt lat="42.3161790" lon="-8.6074360">
        <ele>146.2</ele>
        <time>2021-05-21T07:35:56Z</time>
      </trkpt>
      <trkpt lat="42.3161740" lon="-8.6074340">
        <ele>146.3</ele>
        <time>2021-05-21T07:35:57Z</time>
      </trkpt>
      <trkpt lat="42.3161930" lon="-8.6074350">
        <ele>146.5</ele>
        <time>2021-05-21T07:35:58Z</time>
      </trkpt>
      <trkpt lat="42.3162070" lon="-8.6074400">
        <ele>146.6</ele>
        <time>2021-05-21T07:35:59Z</time>
      </trkpt>
      <trkpt lat="42.3162140" lon="-8.6074430">
        <ele>146.7</ele>
        <time>2021-05-21T07:36:00Z</time>
      </trkpt>
      <trkpt lat="42.3162240" lon="-8.6074410">
        <ele>146.8</ele>
        <time>2021-05-21T07:36:01Z</time>
      </trkpt>
      <trkpt lat="42.3162330" lon="-8.6074380">
        <ele>147.0</ele>
        <time>2021-05-21T07:36:02Z</time>
      </trkpt>
      <trkpt lat="42.3162430" lon="-8.6074360">
        <ele>147.1</ele>
        <time>2021-05-21T07:36:03Z</time>
      </trkpt>
      <trkpt lat="42.3162530" lon="-8.6074340">
        <ele>147.2</ele>
        <time>2021-05-21T07:36:04Z</time>
      </trkpt>
      <trkpt lat="42.3162570" lon="-8.6074270">
        <ele>147.2</ele>
        <time>2021-05-21T07:36:05Z</time>
      </trkpt>
      <trkpt lat="42.3162740" lon="-8.6074370">
        <ele>147.4</ele>
        <time>2021-05-21T07:36:06Z</time>
      </trkpt>
      <trkpt lat="42.3162840" lon="-8.6074370">
        <ele>147.5</ele>
        <time>2021-05-21T07:36:07Z</time>
      </trkpt>
      <trkpt lat="42.3162950" lon="-8.6074320">
        <ele>147.6</ele>
        <time>2021-05-21T07:36:08Z</time>
      </trkpt>
      <trkpt lat="42.3163040" lon="-8.6074270">
        <ele>147.7</ele>
        <time>2021-05-21T07:36:09Z</time>
      </trkpt>
      <trkpt lat="42.3163110" lon="-8.6074290">
        <ele>147.8</ele>
        <time>2021-05-21T07:36:10Z</time>
      </trkpt>
      <trkpt lat="42.3163180" lon="-8.6074290">
        <ele>147.8</ele>
        <time>2021-05-21T07:36:11Z</time>
      </trkpt>
      <trkpt lat="42.3163250" lon="-8.6074320">
        <ele>147.9</ele>
        <time>2021-05-21T07:36:12Z</time>
      </trkpt>
      <trkpt lat="42.3163340" lon="-8.6074350">
        <ele>148.0</ele>
        <time>2021-05-21T07:36:13Z</time>
      </trkpt>
      <trkpt lat="42.3163340" lon="-8.6074370">
        <ele>148.0</ele>
        <time>2021-05-21T07:36:14Z</time>
      </trkpt>
      <trkpt lat="42.3163400" lon="-8.6074370">
        <ele>148.0</ele>
        <time>2021-05-21T07:36:15Z</time>
      </trkpt>
      <trkpt lat="42.3163440" lon="-8.6074410">
        <ele>148.1</ele>
        <time>2021-05-21T07:36:16Z</time>
      </trkpt>
      <trkpt lat="42.3163470" lon="-8.6074430">
        <ele>148.1</ele>
        <time>2021-05-21T07:36:17Z</time>
      </trkpt>
      <trkpt lat="42.3163490" lon="-8.6074440">
        <ele>148.1</ele>
        <time>2021-05-21T07:36:18Z</time>
      </trkpt>
      <trkpt lat="42.3163490" lon="-8.6074440">
        <ele>148.1</ele>
        <time>2021-05-21T07:36:19Z</time>
      </trkpt>
      <trkpt lat="42.3163480" lon="-8.6074450">
        <ele>148.1</ele>
        <time>2021-05-21T07:36:20Z</time>
      </trkpt>
      <trkpt lat="42.3163500" lon="-8.6074450">
        <ele>148.1</ele>
        <time>2021-05-21T07:36:21Z</time>
      </trkpt>
      <trkpt lat="42.3163490" lon="-8.6074460">
        <ele>148.1</ele>
        <time>2021-05-21T07:36:22Z</time>
      </trkpt>
      <trkpt lat="42.3163480" lon="-8.6074470">
        <ele>148.1</ele>
        <time>2021-05-21T07:36:23Z</time>
      </trkpt>
      <trkpt lat="42.3163480" lon="-8.6074480">
        <ele>148.1</ele>
        <time>2021-05-21T07:36:24Z</time>
      </trkpt>
      <trkpt lat="42.3163480" lon="-8.6074480">
        <ele>148.1</ele>
        <time>2021-05-21T07:36:25Z</time>
      </trkpt>
      <trkpt lat="42.3163540" lon="-8.6074490">
        <ele>148.2</ele>
        <time>2021-05-21T07:36:26Z</time>
      </trkpt>
      <trkpt lat="42.3163530" lon="-8.6074490">
        <ele>148.2</ele>
        <time>2021-05-21T07:36:27Z</time>
      </trkpt>
      <trkpt lat="42.3163520" lon="-8.6074470">
        <ele>148.2</ele>
        <time>2021-05-21T07:36:28Z</time>
      </trkpt>
      <trkpt lat="42.3163530" lon="-8.6074480">
        <ele>148.2</ele>
        <time>2021-05-21T07:36:29Z</time>
      </trkpt>
      <trkpt lat="42.3163530" lon="-8.6074470">
        <ele>148.2</ele>
        <time>2021-05-21T07:36:30Z</time>
      </trkpt>
      <trkpt lat="42.3163560" lon="-8.6074480">
        <ele>148.2</ele>
        <time>2021-05-21T07:36:31Z</time>
      </trkpt>
      <trkpt lat="42.3163630" lon="-8.6074490">
        <ele>148.3</ele>
        <time>2021-05-21T07:36:32Z</time>
      </trkpt>
      <trkpt lat="42.3163700" lon="-8.6074520">
        <ele>148.3</ele>
        <time>2021-05-21T07:36:33Z</time>
      </trkpt>
      <trkpt lat="42.3163850" lon="-8.6074470">
        <ele>148.4</ele>
        <time>2021-05-21T07:36:34Z</time>
      </trkpt>
      <trkpt lat="42.3163960" lon="-8.6074390">
        <ele>148.4</ele>
        <time>2021-05-21T07:36:35Z</time>
      </trkpt>
      <trkpt lat="42.3164030" lon="-8.6074440">
        <ele>148.5</ele>
        <time>2021-05-21T07:36:36Z</time>
      </trkpt>
      <trkpt lat="42.3164130" lon="-8.6074470">
        <ele>148.5</ele>
        <time>2021-05-21T07:36:37Z</time>
      </trkpt>
      <trkpt lat="42.3164230" lon="-8.6074550">
        <ele>148.5</ele>
        <time>2021-05-21T07:36:38Z</time>
      </trkpt>
      <trkpt lat="42.3164270" lon="-8.6074530">
        <ele>148.5</ele>
        <time>2021-05-21T07:36:39Z</time>
      </trkpt>
      <trkpt lat="42.3164340" lon="-8.6074570">
        <ele>148.5</ele>
        <time>2021-05-21T07:36:40Z</time>
      </trkpt>
      <trkpt lat="42.3164400" lon="-8.6074590">
        <ele>148.5</ele>
        <time>2021-05-21T07:36:41Z</time>
      </trkpt>
      <trkpt lat="42.3164580" lon="-8.6074680">
        <ele>148.5</ele>
        <time>2021-05-21T07:36:42Z</time>
      </trkpt>
      <trkpt lat="42.3164670" lon="-8.6074630">
        <ele>148.4</ele>
        <time>2021-05-21T07:36:43Z</time>
      </trkpt>
      <trkpt lat="42.3164740" lon="-8.6074660">
        <ele>148.4</ele>
        <time>2021-05-21T07:36:44Z</time>
      </trkpt>
      <trkpt lat="42.3164830" lon="-8.6074620">
        <ele>148.4</ele>
        <time>2021-05-21T07:36:45Z</time>
      </trkpt>
      <trkpt lat="42.3164920" lon="-8.6074650">
        <ele>148.4</ele>
        <time>2021-05-21T07:36:46Z</time>
      </trkpt>
      <trkpt lat="42.3165040" lon="-8.6074700">
        <ele>148.4</ele>
        <time>2021-05-21T07:36:47Z</time>
      </trkpt>
      <trkpt lat="42.3165160" lon="-8.6074670">
        <ele>148.4</ele>
        <time>2021-05-21T07:36:48Z</time>
      </trkpt>
      <trkpt lat="42.3165280" lon="-8.6074690">
        <ele>148.4</ele>
        <time>2021-05-21T07:36:49Z</time>
      </trkpt>
      <trkpt lat="42.3165400" lon="-8.6074670">
        <ele>148.3</ele>
        <time>2021-05-21T07:36:50Z</time>
      </trkpt>
      <trkpt lat="42.3165460" lon="-8.6074760">
        <ele>148.3</ele>
        <time>2021-05-21T07:36:51Z</time>
      </trkpt>
      <trkpt lat="42.3165570" lon="-8.6074670">
        <ele>148.3</ele>
        <time>2021-05-21T07:36:52Z</time>
      </trkpt>
      <trkpt lat="42.3165660" lon="-8.6074680">
        <ele>148.3</ele>
        <time>2021-05-21T07:36:53Z</time>
      </trkpt>
      <trkpt lat="42.3165730" lon="-8.6074650">
        <ele>148.3</ele>
        <time>2021-05-21T07:36:54Z</time>
      </trkpt>
      <trkpt lat="42.3165790" lon="-8.6074600">
        <ele>148.3</ele>
        <time>2021-05-21T07:36:55Z</time>
      </trkpt>
      <trkpt lat="42.3165920" lon="-8.6074540">
        <ele>148.1</ele>
        <time>2021-05-21T07:36:56Z</time>
      </trkpt>
      <trkpt lat="42.3166050" lon="-8.6074630">
        <ele>148.0</ele>
        <time>2021-05-21T07:36:57Z</time>
      </trkpt>
      <trkpt lat="42.3166100" lon="-8.6074610">
        <ele>148.0</ele>
        <time>2021-05-21T07:36:58Z</time>
      </trkpt>
      <trkpt lat="42.3166230" lon="-8.6074550">
        <ele>147.9</ele>
        <time>2021-05-21T07:36:59Z</time>
      </trkpt>
      <trkpt lat="42.3166440" lon="-8.6074520">
        <ele>147.8</ele>
        <time>2021-05-21T07:37:00Z</time>
      </trkpt>
      <trkpt lat="42.3166500" lon="-8.6074510">
        <ele>147.8</ele>
        <time>2021-05-21T07:37:01Z</time>
      </trkpt>
      <trkpt lat="42.3166560" lon="-8.6074490">
        <ele>147.7</ele>
        <time>2021-05-21T07:37:02Z</time>
      </trkpt>
      <trkpt lat="42.3166620" lon="-8.6074470">
        <ele>147.7</ele>
        <time>2021-05-21T07:37:03Z</time>
      </trkpt>
      <trkpt lat="42.3166740" lon="-8.6074450">
        <ele>147.7</ele>
        <time>2021-05-21T07:37:04Z</time>
      </trkpt>
      <trkpt lat="42.3166870" lon="-8.6074310">
        <ele>147.6</ele>
        <time>2021-05-21T07:37:05Z</time>
      </trkpt>
      <trkpt lat="42.3166940" lon="-8.6074260">
        <ele>147.5</ele>
        <time>2021-05-21T07:37:06Z</time>
      </trkpt>
      <trkpt lat="42.3167000" lon="-8.6074220">
        <ele>147.5</ele>
        <time>2021-05-21T07:37:07Z</time>
      </trkpt>
      <trkpt lat="42.3167170" lon="-8.6074130">
        <ele>147.4</ele>
        <time>2021-05-21T07:37:08Z</time>
      </trkpt>
      <trkpt lat="42.3167300" lon="-8.6074000">
        <ele>147.3</ele>
        <time>2021-05-21T07:37:09Z</time>
      </trkpt>
      <trkpt lat="42.3167400" lon="-8.6073930">
        <ele>147.3</ele>
        <time>2021-05-21T07:37:10Z</time>
      </trkpt>
      <trkpt lat="42.3167570" lon="-8.6073850">
        <ele>147.2</ele>
        <time>2021-05-21T07:37:11Z</time>
      </trkpt>
      <trkpt lat="42.3167610" lon="-8.6073840">
        <ele>147.2</ele>
        <time>2021-05-21T07:37:12Z</time>
      </trkpt>
      <trkpt lat="42.3167700" lon="-8.6073700">
        <ele>147.1</ele>
        <time>2021-05-21T07:37:13Z</time>
      </trkpt>
      <trkpt lat="42.3167800" lon="-8.6073640">
        <ele>147.1</ele>
        <time>2021-05-21T07:37:14Z</time>
      </trkpt>
      <trkpt lat="42.3167970" lon="-8.6073630">
        <ele>147.0</ele>
        <time>2021-05-21T07:37:15Z</time>
      </trkpt>
      <trkpt lat="42.3168010" lon="-8.6073420">
        <ele>146.9</ele>
        <time>2021-05-21T07:37:16Z</time>
      </trkpt>
      <trkpt lat="42.3168100" lon="-8.6073290">
        <ele>146.9</ele>
        <time>2021-05-21T07:37:17Z</time>
      </trkpt>
      <trkpt lat="42.3168360" lon="-8.6073280">
        <ele>146.8</ele>
        <time>2021-05-21T07:37:18Z</time>
      </trkpt>
      <trkpt lat="42.3168470" lon="-8.6073240">
        <ele>146.8</ele>
        <time>2021-05-21T07:37:19Z</time>
      </trkpt>
      <trkpt lat="42.3168610" lon="-8.6073120">
        <ele>146.7</ele>
        <time>2021-05-21T07:37:20Z</time>
      </trkpt>
      <trkpt lat="42.3168680" lon="-8.6073090">
        <ele>146.7</ele>
        <time>2021-05-21T07:37:21Z</time>
      </trkpt>
      <trkpt lat="42.3168740" lon="-8.6073070">
        <ele>146.7</ele>
        <time>2021-05-21T07:37:22Z</time>
      </trkpt>
      <trkpt lat="42.3168810" lon="-8.6073040">
        <ele>146.7</ele>
        <time>2021-05-21T07:37:23Z</time>
      </trkpt>
      <trkpt lat="42.3168930" lon="-8.6073040">
        <ele>146.6</ele>
        <time>2021-05-21T07:37:24Z</time>
      </trkpt>
      <trkpt lat="42.3169030" lon="-8.6072950">
        <ele>146.6</ele>
        <time>2021-05-21T07:37:25Z</time>
      </trkpt>
      <trkpt lat="42.3169100" lon="-8.6072870">
        <ele>146.6</ele>
        <time>2021-05-21T07:37:26Z</time>
      </trkpt>
      <trkpt lat="42.3169330" lon="-8.6072740">
        <ele>146.5</ele>
        <time>2021-05-21T07:37:27Z</time>
      </trkpt>
      <trkpt lat="42.3169430" lon="-8.6072690">
        <ele>146.5</ele>
        <time>2021-05-21T07:37:28Z</time>
      </trkpt>
      <trkpt lat="42.3169520" lon="-8.6072650">
        <ele>146.5</ele>
        <time>2021-05-21T07:37:29Z</time>
      </trkpt>
      <trkpt lat="42.3169730" lon="-8.6072590">
        <ele>146.4</ele>
        <time>2021-05-21T07:37:30Z</time>
      </trkpt>
      <trkpt lat="42.3169840" lon="-8.6072590">
        <ele>146.4</ele>
        <time>2021-05-21T07:37:31Z</time>
      </trkpt>
      <trkpt lat="42.3170100" lon="-8.6072360">
        <ele>146.3</ele>
        <time>2021-05-21T07:37:32Z</time>
      </trkpt>
      <trkpt lat="42.3170170" lon="-8.6072280">
        <ele>146.3</ele>
        <time>2021-05-21T07:37:33Z</time>
      </trkpt>
      <trkpt lat="42.3170390" lon="-8.6072160">
        <ele>146.2</ele>
        <time>2021-05-21T07:37:34Z</time>
      </trkpt>
      <trkpt lat="42.3170470" lon="-8.6072100">
        <ele>146.2</ele>
        <time>2021-05-21T07:37:35Z</time>
      </trkpt>
      <trkpt lat="42.3170560" lon="-8.6072040">
        <ele>146.2</ele>
        <time>2021-05-21T07:37:36Z</time>
      </trkpt>
      <trkpt lat="42.3170720" lon="-8.6071870">
        <ele>146.2</ele>
        <time>2021-05-21T07:37:37Z</time>
      </trkpt>
      <trkpt lat="42.3170860" lon="-8.6071890">
        <ele>146.2</ele>
        <time>2021-05-21T07:37:38Z</time>
      </trkpt>
      <trkpt lat="42.3171020" lon="-8.6071830">
        <ele>146.1</ele>
        <time>2021-05-21T07:37:39Z</time>
      </trkpt>
      <trkpt lat="42.3171080" lon="-8.6071790">
        <ele>146.1</ele>
        <time>2021-05-21T07:37:40Z</time>
      </trkpt>
      <trkpt lat="42.3171130" lon="-8.6071740">
        <ele>146.1</ele>
        <time>2021-05-21T07:37:41Z</time>
      </trkpt>
      <trkpt lat="42.3171140" lon="-8.6071740">
        <ele>146.1</ele>
        <time>2021-05-21T07:37:42Z</time>
      </trkpt>
      <trkpt lat="42.3171180" lon="-8.6071660">
        <ele>146.1</ele>
        <time>2021-05-21T07:37:43Z</time>
      </trkpt>
      <trkpt lat="42.3171360" lon="-8.6071710">
        <ele>146.1</ele>
        <time>2021-05-21T07:37:44Z</time>
      </trkpt>
      <trkpt lat="42.3171470" lon="-8.6071740">
        <ele>146.0</ele>
        <time>2021-05-21T07:37:45Z</time>
      </trkpt>
      <trkpt lat="42.3171600" lon="-8.6071630">
        <ele>146.0</ele>
        <time>2021-05-21T07:37:46Z</time>
      </trkpt>
      <trkpt lat="42.3171660" lon="-8.6071570">
        <ele>146.0</ele>
        <time>2021-05-21T07:37:47Z</time>
      </trkpt>
      <trkpt lat="42.3171770" lon="-8.6071580">
        <ele>146.0</ele>
        <time>2021-05-21T07:37:48Z</time>
      </trkpt>
      <trkpt lat="42.3171850" lon="-8.6071490">
        <ele>146.0</ele>
        <time>2021-05-21T07:37:49Z</time>
      </trkpt>
      <trkpt lat="42.3171920" lon="-8.6071420">
        <ele>146.0</ele>
        <time>2021-05-21T07:37:50Z</time>
      </trkpt>
      <trkpt lat="42.3172020" lon="-8.6071420">
        <ele>146.0</ele>
        <time>2021-05-21T07:37:51Z</time>
      </trkpt>
      <trkpt lat="42.3172180" lon="-8.6071350">
        <ele>145.9</ele>
        <time>2021-05-21T07:37:52Z</time>
      </trkpt>
      <trkpt lat="42.3172350" lon="-8.6071320">
        <ele>145.9</ele>
        <time>2021-05-21T07:37:53Z</time>
      </trkpt>
      <trkpt lat="42.3172340" lon="-8.6071290">
        <ele>145.9</ele>
        <time>2021-05-21T07:37:54Z</time>
      </trkpt>
      <trkpt lat="42.3172460" lon="-8.6071290">
        <ele>145.9</ele>
        <time>2021-05-21T07:37:55Z</time>
      </trkpt>
      <trkpt lat="42.3172590" lon="-8.6071140">
        <ele>145.9</ele>
        <time>2021-05-21T07:37:56Z</time>
      </trkpt>
      <trkpt lat="42.3172760" lon="-8.6071090">
        <ele>145.8</ele>
        <time>2021-05-21T07:37:57Z</time>
      </trkpt>
      <trkpt lat="42.3172850" lon="-8.6071010">
        <ele>145.8</ele>
        <time>2021-05-21T07:37:58Z</time>
      </trkpt>
      <trkpt lat="42.3173020" lon="-8.6070930">
        <ele>145.8</ele>
        <time>2021-05-21T07:37:59Z</time>
      </trkpt>
      <trkpt lat="42.3173170" lon="-8.6070870">
        <ele>145.8</ele>
        <time>2021-05-21T07:38:00Z</time>
      </trkpt>
      <trkpt lat="42.3173380" lon="-8.6070850">
        <ele>145.7</ele>
        <time>2021-05-21T07:38:01Z</time>
      </trkpt>
      <trkpt lat="42.3173480" lon="-8.6070790">
        <ele>145.7</ele>
        <time>2021-05-21T07:38:02Z</time>
      </trkpt>
      <trkpt lat="42.3173580" lon="-8.6070740">
        <ele>145.7</ele>
        <time>2021-05-21T07:38:03Z</time>
      </trkpt>
      <trkpt lat="42.3173730" lon="-8.6070670">
        <ele>145.7</ele>
        <time>2021-05-21T07:38:04Z</time>
      </trkpt>
      <trkpt lat="42.3173820" lon="-8.6070550">
        <ele>145.6</ele>
        <time>2021-05-21T07:38:05Z</time>
      </trkpt>
      <trkpt lat="42.3173990" lon="-8.6070380">
        <ele>145.6</ele>
        <time>2021-05-21T07:38:06Z</time>
      </trkpt>
      <trkpt lat="42.3174090" lon="-8.6070380">
        <ele>145.6</ele>
        <time>2021-05-21T07:38:07Z</time>
      </trkpt>
      <trkpt lat="42.3174160" lon="-8.6070390">
        <ele>145.6</ele>
        <time>2021-05-21T07:38:08Z</time>
      </trkpt>
      <trkpt lat="42.3174260" lon="-8.6070370">
        <ele>145.6</ele>
        <time>2021-05-21T07:38:09Z</time>
      </trkpt>
      <trkpt lat="42.3174370" lon="-8.6070290">
        <ele>145.5</ele>
        <time>2021-05-21T07:38:10Z</time>
      </trkpt>
      <trkpt lat="42.3174360" lon="-8.6070180">
        <ele>145.5</ele>
        <time>2021-05-21T07:38:11Z</time>
      </trkpt>
      <trkpt lat="42.3174480" lon="-8.6070040">
        <ele>145.5</ele>
        <time>2021-05-21T07:38:12Z</time>
      </trkpt>
      <trkpt lat="42.3174590" lon="-8.6069990">
        <ele>145.5</ele>
        <time>2021-05-21T07:38:13Z</time>
      </trkpt>
      <trkpt lat="42.3174710" lon="-8.6069920">
        <ele>145.4</ele>
        <time>2021-05-21T07:38:14Z</time>
      </trkpt>
      <trkpt lat="42.3174840" lon="-8.6069890">
        <ele>145.4</ele>
        <time>2021-05-21T07:38:15Z</time>
      </trkpt>
      <trkpt lat="42.3174940" lon="-8.6069880">
        <ele>145.4</ele>
        <time>2021-05-21T07:38:16Z</time>
      </trkpt>
      <trkpt lat="42.3175200" lon="-8.6069750">
        <ele>145.3</ele>
        <time>2021-05-21T07:38:17Z</time>
      </trkpt>
      <trkpt lat="42.3175290" lon="-8.6069710">
        <ele>145.3</ele>
        <time>2021-05-21T07:38:18Z</time>
      </trkpt>
      <trkpt lat="42.3175370" lon="-8.6069660">
        <ele>145.2</ele>
        <time>2021-05-21T07:38:19Z</time>
      </trkpt>
      <trkpt lat="42.3175510" lon="-8.6069560">
        <ele>145.2</ele>
        <time>2021-05-21T07:38:20Z</time>
      </trkpt>
      <trkpt lat="42.3175550" lon="-8.6069530">
        <ele>145.2</ele>
        <time>2021-05-21T07:38:21Z</time>
      </trkpt>
      <trkpt lat="42.3175600" lon="-8.6069510">
        <ele>145.2</ele>
        <time>2021-05-21T07:38:22Z</time>
      </trkpt>
      <trkpt lat="42.3175680" lon="-8.6069470">
        <ele>145.1</ele>
        <time>2021-05-21T07:38:23Z</time>
      </trkpt>
      <trkpt lat="42.3175900" lon="-8.6069370">
        <ele>145.0</ele>
        <time>2021-05-21T07:38:24Z</time>
      </trkpt>
      <trkpt lat="42.3175970" lon="-8.6069350">
        <ele>145.0</ele>
        <time>2021-05-21T07:38:25Z</time>
      </trkpt>
      <trkpt lat="42.3176040" lon="-8.6069320">
        <ele>145.0</ele>
        <time>2021-05-21T07:38:26Z</time>
      </trkpt>
      <trkpt lat="42.3176110" lon="-8.6069200">
        <ele>144.9</ele>
        <time>2021-05-21T07:38:27Z</time>
      </trkpt>
      <trkpt lat="42.3176210" lon="-8.6069150">
        <ele>144.9</ele>
        <time>2021-05-21T07:38:28Z</time>
      </trkpt>
      <trkpt lat="42.3176320" lon="-8.6069040">
        <ele>144.8</ele>
        <time>2021-05-21T07:38:29Z</time>
      </trkpt>
      <trkpt lat="42.3176420" lon="-8.6068900">
        <ele>144.8</ele>
        <time>2021-05-21T07:38:30Z</time>
      </trkpt>
      <trkpt lat="42.3176510" lon="-8.6068760">
        <ele>144.7</ele>
        <time>2021-05-21T07:38:31Z</time>
      </trkpt>
      <trkpt lat="42.3176550" lon="-8.6068670">
        <ele>144.7</ele>
        <time>2021-05-21T07:38:32Z</time>
      </trkpt>
      <trkpt lat="42.3176540" lon="-8.6068520">
        <ele>144.6</ele>
        <time>2021-05-21T07:38:33Z</time>
      </trkpt>
      <trkpt lat="42.3176640" lon="-8.6068490">
        <ele>144.6</ele>
        <time>2021-05-21T07:38:34Z</time>
      </trkpt>
      <trkpt lat="42.3176750" lon="-8.6068410">
        <ele>144.5</ele>
        <time>2021-05-21T07:38:35Z</time>
      </trkpt>
      <trkpt lat="42.3176780" lon="-8.6068330">
        <ele>144.5</ele>
        <time>2021-05-21T07:38:36Z</time>
      </trkpt>
      <trkpt lat="42.3176930" lon="-8.6068210">
        <ele>144.4</ele>
        <time>2021-05-21T07:38:37Z</time>
      </trkpt>
      <trkpt lat="42.3176960" lon="-8.6068150">
        <ele>144.4</ele>
        <time>2021-05-21T07:38:38Z</time>
      </trkpt>
      <trkpt lat="42.3177130" lon="-8.6067950">
        <ele>144.3</ele>
        <time>2021-05-21T07:38:39Z</time>
      </trkpt>
      <trkpt lat="42.3177160" lon="-8.6067880">
        <ele>144.3</ele>
        <time>2021-05-21T07:38:40Z</time>
      </trkpt>
      <trkpt lat="42.3177240" lon="-8.6067710">
        <ele>144.2</ele>
        <time>2021-05-21T07:38:41Z</time>
      </trkpt>
      <trkpt lat="42.3177360" lon="-8.6067610">
        <ele>144.1</ele>
        <time>2021-05-21T07:38:42Z</time>
      </trkpt>
      <trkpt lat="42.3177510" lon="-8.6067430">
        <ele>144.0</ele>
        <time>2021-05-21T07:38:43Z</time>
      </trkpt>
      <trkpt lat="42.3177580" lon="-8.6067290">
        <ele>144.0</ele>
        <time>2021-05-21T07:38:44Z</time>
      </trkpt>
      <trkpt lat="42.3177840" lon="-8.6067090">
        <ele>143.8</ele>
        <time>2021-05-21T07:38:45Z</time>
      </trkpt>
      <trkpt lat="42.3177940" lon="-8.6067020">
        <ele>143.8</ele>
        <time>2021-05-21T07:38:46Z</time>
      </trkpt>
      <trkpt lat="42.3178030" lon="-8.6066910">
        <ele>143.7</ele>
        <time>2021-05-21T07:38:47Z</time>
      </trkpt>
      <trkpt lat="42.3178080" lon="-8.6066880">
        <ele>143.7</ele>
        <time>2021-05-21T07:38:48Z</time>
      </trkpt>
      <trkpt lat="42.3178170" lon="-8.6066740">
        <ele>143.6</ele>
        <time>2021-05-21T07:38:49Z</time>
      </trkpt>
      <trkpt lat="42.3178340" lon="-8.6066650">
        <ele>143.5</ele>
        <time>2021-05-21T07:38:50Z</time>
      </trkpt>
      <trkpt lat="42.3178420" lon="-8.6066420">
        <ele>143.4</ele>
        <time>2021-05-21T07:38:51Z</time>
      </trkpt>
      <trkpt lat="42.3178520" lon="-8.6066270">
        <ele>143.4</ele>
        <time>2021-05-21T07:38:52Z</time>
      </trkpt>
      <trkpt lat="42.3178610" lon="-8.6066170">
        <ele>143.3</ele>
        <time>2021-05-21T07:38:53Z</time>
      </trkpt>
      <trkpt lat="42.3178700" lon="-8.6066080">
        <ele>143.3</ele>
        <time>2021-05-21T07:38:54Z</time>
      </trkpt>
      <trkpt lat="42.3178840" lon="-8.6065960">
        <ele>143.2</ele>
        <time>2021-05-21T07:38:55Z</time>
      </trkpt>
      <trkpt lat="42.3178890" lon="-8.6065890">
        <ele>143.1</ele>
        <time>2021-05-21T07:38:56Z</time>
      </trkpt>
      <trkpt lat="42.3178950" lon="-8.6065740">
        <ele>143.1</ele>
        <time>2021-05-21T07:38:57Z</time>
      </trkpt>
      <trkpt lat="42.3179050" lon="-8.6065560">
        <ele>143.0</ele>
        <time>2021-05-21T07:38:58Z</time>
      </trkpt>
      <trkpt lat="42.3179190" lon="-8.6065390">
        <ele>142.9</ele>
        <time>2021-05-21T07:38:59Z</time>
      </trkpt>
      <trkpt lat="42.3179270" lon="-8.6065160">
        <ele>142.9</ele>
        <time>2021-05-21T07:39:00Z</time>
      </trkpt>
      <trkpt lat="42.3179310" lon="-8.6065010">
        <ele>142.8</ele>
        <time>2021-05-21T07:39:01Z</time>
      </trkpt>
      <trkpt lat="42.3179410" lon="-8.6064810">
        <ele>142.7</ele>
        <time>2021-05-21T07:39:02Z</time>
      </trkpt>
      <trkpt lat="42.3179460" lon="-8.6064700">
        <ele>142.7</ele>
        <time>2021-05-21T07:39:03Z</time>
      </trkpt>
      <trkpt lat="42.3179510" lon="-8.6064590">
        <ele>142.6</ele>
        <time>2021-05-21T07:39:04Z</time>
      </trkpt>
      <trkpt lat="42.3179620" lon="-8.6064480">
        <ele>142.6</ele>
        <time>2021-05-21T07:39:05Z</time>
      </trkpt>
      <trkpt lat="42.3179720" lon="-8.6064440">
        <ele>142.5</ele>
        <time>2021-05-21T07:39:06Z</time>
      </trkpt>
      <trkpt lat="42.3179810" lon="-8.6064300">
        <ele>142.5</ele>
        <time>2021-05-21T07:39:07Z</time>
      </trkpt>
      <trkpt lat="42.3179860" lon="-8.6064160">
        <ele>142.4</ele>
        <time>2021-05-21T07:39:08Z</time>
      </trkpt>
      <trkpt lat="42.3179910" lon="-8.6064110">
        <ele>142.4</ele>
        <time>2021-05-21T07:39:09Z</time>
      </trkpt>
      <trkpt lat="42.3179980" lon="-8.6064060">
        <ele>142.4</ele>
        <time>2021-05-21T07:39:10Z</time>
      </trkpt>
      <trkpt lat="42.3179980" lon="-8.6064000">
        <ele>142.3</ele>
        <time>2021-05-21T07:39:11Z</time>
      </trkpt>
      <trkpt lat="42.3180120" lon="-8.6063840">
        <ele>142.3</ele>
        <time>2021-05-21T07:39:12Z</time>
      </trkpt>
      <trkpt lat="42.3180200" lon="-8.6063650">
        <ele>142.2</ele>
        <time>2021-05-21T07:39:13Z</time>
      </trkpt>
      <trkpt lat="42.3180320" lon="-8.6063460">
        <ele>142.1</ele>
        <time>2021-05-21T07:39:14Z</time>
      </trkpt>
      <trkpt lat="42.3180430" lon="-8.6063390">
        <ele>142.1</ele>
        <time>2021-05-21T07:39:15Z</time>
      </trkpt>
      <trkpt lat="42.3180520" lon="-8.6063290">
        <ele>142.0</ele>
        <time>2021-05-21T07:39:16Z</time>
      </trkpt>
      <trkpt lat="42.3180620" lon="-8.6063140">
        <ele>141.9</ele>
        <time>2021-05-21T07:39:17Z</time>
      </trkpt>
      <trkpt lat="42.3180690" lon="-8.6063090">
        <ele>141.9</ele>
        <time>2021-05-21T07:39:18Z</time>
      </trkpt>
      <trkpt lat="42.3180800" lon="-8.6062950">
        <ele>141.8</ele>
        <time>2021-05-21T07:39:19Z</time>
      </trkpt>
      <trkpt lat="42.3180910" lon="-8.6062790">
        <ele>141.8</ele>
        <time>2021-05-21T07:39:20Z</time>
      </trkpt>
      <trkpt lat="42.3181010" lon="-8.6062660">
        <ele>141.7</ele>
        <time>2021-05-21T07:39:21Z</time>
      </trkpt>
      <trkpt lat="42.3181160" lon="-8.6062560">
        <ele>141.6</ele>
        <time>2021-05-21T07:39:22Z</time>
      </trkpt>
      <trkpt lat="42.3181190" lon="-8.6062470">
        <ele>141.6</ele>
        <time>2021-05-21T07:39:23Z</time>
      </trkpt>
      <trkpt lat="42.3181280" lon="-8.6062370">
        <ele>141.5</ele>
        <time>2021-05-21T07:39:24Z</time>
      </trkpt>
      <trkpt lat="42.3181390" lon="-8.6062270">
        <ele>141.5</ele>
        <time>2021-05-21T07:39:25Z</time>
      </trkpt>
      <trkpt lat="42.3181480" lon="-8.6062170">
        <ele>141.4</ele>
        <time>2021-05-21T07:39:26Z</time>
      </trkpt>
      <trkpt lat="42.3181550" lon="-8.6062050">
        <ele>141.4</ele>
        <time>2021-05-21T07:39:27Z</time>
      </trkpt>
      <trkpt lat="42.3181620" lon="-8.6061960">
        <ele>141.3</ele>
        <time>2021-05-21T07:39:28Z</time>
      </trkpt>
      <trkpt lat="42.3181730" lon="-8.6061910">
        <ele>141.3</ele>
        <time>2021-05-21T07:39:29Z</time>
      </trkpt>
      <trkpt lat="42.3181870" lon="-8.6061810">
        <ele>141.2</ele>
        <time>2021-05-21T07:39:30Z</time>
      </trkpt>
      <trkpt lat="42.3181990" lon="-8.6061710">
        <ele>141.1</ele>
        <time>2021-05-21T07:39:31Z</time>
      </trkpt>
      <trkpt lat="42.3182070" lon="-8.6061640">
        <ele>141.1</ele>
        <time>2021-05-21T07:39:32Z</time>
      </trkpt>
      <trkpt lat="42.3182160" lon="-8.6061650">
        <ele>141.1</ele>
        <time>2021-05-21T07:39:33Z</time>
      </trkpt>
      <trkpt lat="42.3182320" lon="-8.6061550">
        <ele>141.0</ele>
        <time>2021-05-21T07:39:34Z</time>
      </trkpt>
      <trkpt lat="42.3182390" lon="-8.6061440">
        <ele>140.9</ele>
        <time>2021-05-21T07:39:35Z</time>
      </trkpt>
      <trkpt lat="42.3182450" lon="-8.6061340">
        <ele>140.9</ele>
        <time>2021-05-21T07:39:36Z</time>
      </trkpt>
      <trkpt lat="42.3182520" lon="-8.6061230">
        <ele>140.8</ele>
        <time>2021-05-21T07:39:37Z</time>
      </trkpt>
      <trkpt lat="42.3182670" lon="-8.6061120">
        <ele>140.8</ele>
        <time>2021-05-21T07:39:38Z</time>
      </trkpt>
      <trkpt lat="42.3182780" lon="-8.6061050">
        <ele>140.7</ele>
        <time>2021-05-21T07:39:39Z</time>
      </trkpt>
      <trkpt lat="42.3182870" lon="-8.6060910">
        <ele>140.7</ele>
        <time>2021-05-21T07:39:40Z</time>
      </trkpt>
      <trkpt lat="42.3183010" lon="-8.6060790">
        <ele>140.6</ele>
        <time>2021-05-21T07:39:41Z</time>
      </trkpt>
      <trkpt lat="42.3182980" lon="-8.6060730">
        <ele>140.6</ele>
        <time>2021-05-21T07:39:42Z</time>
      </trkpt>
      <trkpt lat="42.3183060" lon="-8.6060650">
        <ele>140.5</ele>
        <time>2021-05-21T07:39:43Z</time>
      </trkpt>
      <trkpt lat="42.3183160" lon="-8.6060600">
        <ele>140.5</ele>
        <time>2021-05-21T07:39:44Z</time>
      </trkpt>
      <trkpt lat="42.3183310" lon="-8.6060530">
        <ele>140.4</ele>
        <time>2021-05-21T07:39:45Z</time>
      </trkpt>
      <trkpt lat="42.3183470" lon="-8.6060430">
        <ele>140.3</ele>
        <time>2021-05-21T07:39:46Z</time>
      </trkpt>
      <trkpt lat="42.3183610" lon="-8.6060350">
        <ele>140.3</ele>
        <time>2021-05-21T07:39:47Z</time>
      </trkpt>
      <trkpt lat="42.3183720" lon="-8.6060260">
        <ele>140.2</ele>
        <time>2021-05-21T07:39:48Z</time>
      </trkpt>
      <trkpt lat="42.3183760" lon="-8.6060210">
        <ele>140.2</ele>
        <time>2021-05-21T07:39:49Z</time>
      </trkpt>
      <trkpt lat="42.3183890" lon="-8.6060090">
        <ele>140.1</ele>
        <time>2021-05-21T07:39:50Z</time>
      </trkpt>
      <trkpt lat="42.3183940" lon="-8.6060080">
        <ele>140.1</ele>
        <time>2021-05-21T07:39:51Z</time>
      </trkpt>
      <trkpt lat="42.3184000" lon="-8.6060060">
        <ele>140.1</ele>
        <time>2021-05-21T07:39:52Z</time>
      </trkpt>
      <trkpt lat="42.3184190" lon="-8.6060000">
        <ele>140.0</ele>
        <time>2021-05-21T07:39:53Z</time>
      </trkpt>
      <trkpt lat="42.3184280" lon="-8.6059900">
        <ele>139.9</ele>
        <time>2021-05-21T07:39:54Z</time>
      </trkpt>
      <trkpt lat="42.3184420" lon="-8.6059900">
        <ele>139.9</ele>
        <time>2021-05-21T07:39:55Z</time>
      </trkpt>
      <trkpt lat="42.3184520" lon="-8.6059930">
        <ele>139.8</ele>
        <time>2021-05-21T07:39:56Z</time>
      </trkpt>
      <trkpt lat="42.3184640" lon="-8.6059910">
        <ele>139.8</ele>
        <time>2021-05-21T07:39:57Z</time>
      </trkpt>
      <trkpt lat="42.3184680" lon="-8.6059830">
        <ele>139.8</ele>
        <time>2021-05-21T07:39:58Z</time>
      </trkpt>
      <trkpt lat="42.3184810" lon="-8.6059830">
        <ele>139.7</ele>
        <time>2021-05-21T07:39:59Z</time>
      </trkpt>
      <trkpt lat="42.3184900" lon="-8.6059870">
        <ele>139.7</ele>
        <time>2021-05-21T07:40:00Z</time>
      </trkpt>
      <trkpt lat="42.3185010" lon="-8.6059870">
        <ele>139.6</ele>
        <time>2021-05-21T07:40:01Z</time>
      </trkpt>
      <trkpt lat="42.3185110" lon="-8.6059870">
        <ele>139.6</ele>
        <time>2021-05-21T07:40:02Z</time>
      </trkpt>
      <trkpt lat="42.3185250" lon="-8.6059860">
        <ele>139.6</ele>
        <time>2021-05-21T07:40:03Z</time>
      </trkpt>
      <trkpt lat="42.3185410" lon="-8.6059930">
        <ele>139.5</ele>
        <time>2021-05-21T07:40:04Z</time>
      </trkpt>
      <trkpt lat="42.3185530" lon="-8.6060000">
        <ele>139.4</ele>
        <time>2021-05-21T07:40:05Z</time>
      </trkpt>
      <trkpt lat="42.3185680" lon="-8.6060090">
        <ele>139.4</ele>
        <time>2021-05-21T07:40:06Z</time>
      </trkpt>
      <trkpt lat="42.3185820" lon="-8.6060210">
        <ele>139.3</ele>
        <time>2021-05-21T07:40:07Z</time>
      </trkpt>
      <trkpt lat="42.3185950" lon="-8.6060260">
        <ele>139.3</ele>
        <time>2021-05-21T07:40:08Z</time>
      </trkpt>
      <trkpt lat="42.3186060" lon="-8.6060350">
        <ele>139.3</ele>
        <time>2021-05-21T07:40:09Z</time>
      </trkpt>
      <trkpt lat="42.3186220" lon="-8.6060400">
        <ele>139.2</ele>
        <time>2021-05-21T07:40:10Z</time>
      </trkpt>
      <trkpt lat="42.3186460" lon="-8.6060620">
        <ele>139.1</ele>
        <time>2021-05-21T07:40:11Z</time>
      </trkpt>
      <trkpt lat="42.3186570" lon="-8.6060730">
        <ele>139.1</ele>
        <time>2021-05-21T07:40:12Z</time>
      </trkpt>
      <trkpt lat="42.3186700" lon="-8.6060870">
        <ele>139.0</ele>
        <time>2021-05-21T07:40:13Z</time>
      </trkpt>
      <trkpt lat="42.3186830" lon="-8.6060980">
        <ele>139.0</ele>
        <time>2021-05-21T07:40:14Z</time>
      </trkpt>
      <trkpt lat="42.3187020" lon="-8.6061000">
        <ele>139.0</ele>
        <time>2021-05-21T07:40:15Z</time>
      </trkpt>
      <trkpt lat="42.3187120" lon="-8.6061010">
        <ele>138.9</ele>
        <time>2021-05-21T07:40:16Z</time>
      </trkpt>
      <trkpt lat="42.3187210" lon="-8.6061030">
        <ele>138.9</ele>
        <time>2021-05-21T07:40:17Z</time>
      </trkpt>
      <trkpt lat="42.3187420" lon="-8.6061130">
        <ele>138.9</ele>
        <time>2021-05-21T07:40:18Z</time>
      </trkpt>
      <trkpt lat="42.3187500" lon="-8.6061180">
        <ele>138.9</ele>
        <time>2021-05-21T07:40:19Z</time>
      </trkpt>
      <trkpt lat="42.3187570" lon="-8.6061230">
        <ele>138.9</ele>
        <time>2021-05-21T07:40:20Z</time>
      </trkpt>
      <trkpt lat="42.3187690" lon="-8.6061350">
        <ele>138.8</ele>
        <time>2021-05-21T07:40:21Z</time>
      </trkpt>
      <trkpt lat="42.3187720" lon="-8.6061380">
        <ele>138.8</ele>
        <time>2021-05-21T07:40:22Z</time>
      </trkpt>
      <trkpt lat="42.3187830" lon="-8.6061340">
        <ele>138.8</ele>
        <time>2021-05-21T07:40:23Z</time>
      </trkpt>
      <trkpt lat="42.3188040" lon="-8.6061520">
        <ele>138.8</ele>
        <time>2021-05-21T07:40:24Z</time>
      </trkpt>
      <trkpt lat="42.3188110" lon="-8.6061560">
        <ele>138.8</ele>
        <time>2021-05-21T07:40:25Z</time>
      </trkpt>
      <trkpt lat="42.3188180" lon="-8.6061590">
        <ele>138.8</ele>
        <time>2021-05-21T07:40:26Z</time>
      </trkpt>
      <trkpt lat="42.3188260" lon="-8.6061600">
        <ele>138.8</ele>
        <time>2021-05-21T07:40:27Z</time>
      </trkpt>
      <trkpt lat="42.3188370" lon="-8.6061580">
        <ele>138.7</ele>
        <time>2021-05-21T07:40:28Z</time>
      </trkpt>
      <trkpt lat="42.3188520" lon="-8.6061540">
        <ele>138.7</ele>
        <time>2021-05-21T07:40:29Z</time>
      </trkpt>
      <trkpt lat="42.3188750" lon="-8.6061580">
        <ele>138.7</ele>
        <time>2021-05-21T07:40:30Z</time>
      </trkpt>
      <trkpt lat="42.3188840" lon="-8.6061590">
        <ele>138.7</ele>
        <time>2021-05-21T07:40:31Z</time>
      </trkpt>
      <trkpt lat="42.3188920" lon="-8.6061610">
        <ele>138.7</ele>
        <time>2021-05-21T07:40:32Z</time>
      </trkpt>
      <trkpt lat="42.3189060" lon="-8.6061610">
        <ele>138.7</ele>
        <time>2021-05-21T07:40:33Z</time>
      </trkpt>
      <trkpt lat="42.3189180" lon="-8.6061600">
        <ele>138.7</ele>
        <time>2021-05-21T07:40:34Z</time>
      </trkpt>
      <trkpt lat="42.3189200" lon="-8.6061690">
        <ele>138.7</ele>
        <time>2021-05-21T07:40:35Z</time>
      </trkpt>
      <trkpt lat="42.3189340" lon="-8.6061700">
        <ele>138.7</ele>
        <time>2021-05-21T07:40:36Z</time>
      </trkpt>
      <trkpt lat="42.3189430" lon="-8.6061700">
        <ele>138.7</ele>
        <time>2021-05-21T07:40:37Z</time>
      </trkpt>
      <trkpt lat="42.3189510" lon="-8.6061700">
        <ele>138.7</ele>
        <time>2021-05-21T07:40:38Z</time>
      </trkpt>
      <trkpt lat="42.3189600" lon="-8.6061700">
        <ele>138.6</ele>
        <time>2021-05-21T07:40:39Z</time>
      </trkpt>
      <trkpt lat="42.3189730" lon="-8.6061640">
        <ele>138.6</ele>
        <time>2021-05-21T07:40:40Z</time>
      </trkpt>
      <trkpt lat="42.3189900" lon="-8.6061650">
        <ele>138.6</ele>
        <time>2021-05-21T07:40:41Z</time>
      </trkpt>
      <trkpt lat="42.3190040" lon="-8.6061680">
        <ele>138.6</ele>
        <time>2021-05-21T07:40:42Z</time>
      </trkpt>
      <trkpt lat="42.3190130" lon="-8.6061690">
        <ele>138.6</ele>
        <time>2021-05-21T07:40:43Z</time>
      </trkpt>
      <trkpt lat="42.3190240" lon="-8.6061640">
        <ele>138.6</ele>
        <time>2021-05-21T07:40:44Z</time>
      </trkpt>
      <trkpt lat="42.3190320" lon="-8.6061670">
        <ele>138.6</ele>
        <time>2021-05-21T07:40:45Z</time>
      </trkpt>
      <trkpt lat="42.3190380" lon="-8.6061690">
        <ele>138.6</ele>
        <time>2021-05-21T07:40:46Z</time>
      </trkpt>
      <trkpt lat="42.3190450" lon="-8.6061710">
        <ele>138.6</ele>
        <time>2021-05-21T07:40:47Z</time>
      </trkpt>
      <trkpt lat="42.3190570" lon="-8.6061620">
        <ele>138.5</ele>
        <time>2021-05-21T07:40:48Z</time>
      </trkpt>
      <trkpt lat="42.3190760" lon="-8.6061620">
        <ele>138.5</ele>
        <time>2021-05-21T07:40:49Z</time>
      </trkpt>
      <trkpt lat="42.3190850" lon="-8.6061670">
        <ele>138.5</ele>
        <time>2021-05-21T07:40:50Z</time>
      </trkpt>
      <trkpt lat="42.3191040" lon="-8.6061730">
        <ele>138.5</ele>
        <time>2021-05-21T07:40:51Z</time>
      </trkpt>
      <trkpt lat="42.3191140" lon="-8.6061730">
        <ele>138.4</ele>
        <time>2021-05-21T07:40:52Z</time>
      </trkpt>
      <trkpt lat="42.3191240" lon="-8.6061740">
        <ele>138.4</ele>
        <time>2021-05-21T07:40:53Z</time>
      </trkpt>
      <trkpt lat="42.3191470" lon="-8.6061780">
        <ele>138.4</ele>
        <time>2021-05-21T07:40:54Z</time>
      </trkpt>
      <trkpt lat="42.3191570" lon="-8.6061850">
        <ele>138.3</ele>
        <time>2021-05-21T07:40:55Z</time>
      </trkpt>
      <trkpt lat="42.3191680" lon="-8.6061920">
        <ele>138.3</ele>
        <time>2021-05-21T07:40:56Z</time>
      </trkpt>
      <trkpt lat="42.3191780" lon="-8.6061950">
        <ele>138.3</ele>
        <time>2021-05-21T07:40:57Z</time>
      </trkpt>
      <trkpt lat="42.3191930" lon="-8.6061930">
        <ele>138.2</ele>
        <time>2021-05-21T07:40:58Z</time>
      </trkpt>
      <trkpt lat="42.3192030" lon="-8.6061920">
        <ele>138.2</ele>
        <time>2021-05-21T07:40:59Z</time>
      </trkpt>
      <trkpt lat="42.3192140" lon="-8.6061920">
        <ele>138.2</ele>
        <time>2021-05-21T07:41:00Z</time>
      </trkpt>
      <trkpt lat="42.3192260" lon="-8.6061970">
        <ele>138.1</ele>
        <time>2021-05-21T07:41:01Z</time>
      </trkpt>
      <trkpt lat="42.3192370" lon="-8.6061940">
        <ele>138.1</ele>
        <time>2021-05-21T07:41:02Z</time>
      </trkpt>
      <trkpt lat="42.3192460" lon="-8.6061960">
        <ele>138.0</ele>
        <time>2021-05-21T07:41:03Z</time>
      </trkpt>
      <trkpt lat="42.3192610" lon="-8.6061970">
        <ele>138.0</ele>
        <time>2021-05-21T07:41:04Z</time>
      </trkpt>
      <trkpt lat="42.3192720" lon="-8.6061970">
        <ele>137.9</ele>
        <time>2021-05-21T07:41:05Z</time>
      </trkpt>
      <trkpt lat="42.3192940" lon="-8.6062040">
        <ele>137.8</ele>
        <time>2021-05-21T07:41:06Z</time>
      </trkpt>
      <trkpt lat="42.3193030" lon="-8.6062040">
        <ele>137.8</ele>
        <time>2021-05-21T07:41:07Z</time>
      </trkpt>
      <trkpt lat="42.3193130" lon="-8.6062030">
        <ele>137.8</ele>
        <time>2021-05-21T07:41:08Z</time>
      </trkpt>
      <trkpt lat="42.3193280" lon="-8.6061990">
        <ele>137.7</ele>
        <time>2021-05-21T07:41:09Z</time>
      </trkpt>
      <trkpt lat="42.3193450" lon="-8.6061990">
        <ele>137.6</ele>
        <time>2021-05-21T07:41:10Z</time>
      </trkpt>
      <trkpt lat="42.3193540" lon="-8.6061980">
        <ele>137.5</ele>
        <time>2021-05-21T07:41:11Z</time>
      </trkpt>
      <trkpt lat="42.3193740" lon="-8.6061950">
        <ele>137.4</ele>
        <time>2021-05-21T07:41:12Z</time>
      </trkpt>
      <trkpt lat="42.3193930" lon="-8.6062000">
        <ele>137.3</ele>
        <time>2021-05-21T07:41:13Z</time>
      </trkpt>
      <trkpt lat="42.3193980" lon="-8.6062040">
        <ele>137.3</ele>
        <time>2021-05-21T07:41:14Z</time>
      </trkpt>
      <trkpt lat="42.3194040" lon="-8.6062090">
        <ele>137.3</ele>
        <time>2021-05-21T07:41:15Z</time>
      </trkpt>
      <trkpt lat="42.3194090" lon="-8.6062140">
        <ele>137.2</ele>
        <time>2021-05-21T07:41:16Z</time>
      </trkpt>
      <trkpt lat="42.3194200" lon="-8.6062180">
        <ele>137.1</ele>
        <time>2021-05-21T07:41:17Z</time>
      </trkpt>
      <trkpt lat="42.3194270" lon="-8.6062260">
        <ele>137.1</ele>
        <time>2021-05-21T07:41:18Z</time>
      </trkpt>
      <trkpt lat="42.3194380" lon="-8.6062360">
        <ele>137.0</ele>
        <time>2021-05-21T07:41:19Z</time>
      </trkpt>
      <trkpt lat="42.3194440" lon="-8.6062400">
        <ele>137.0</ele>
        <time>2021-05-21T07:41:20Z</time>
      </trkpt>
      <trkpt lat="42.3194590" lon="-8.6062360">
        <ele>136.9</ele>
        <time>2021-05-21T07:41:21Z</time>
      </trkpt>
      <trkpt lat="42.3194670" lon="-8.6062300">
        <ele>136.8</ele>
        <time>2021-05-21T07:41:22Z</time>
      </trkpt>
      <trkpt lat="42.3194780" lon="-8.6062320">
        <ele>136.7</ele>
        <time>2021-05-21T07:41:23Z</time>
      </trkpt>
      <trkpt lat="42.3194860" lon="-8.6062320">
        <ele>136.7</ele>
        <time>2021-05-21T07:41:24Z</time>
      </trkpt>
      <trkpt lat="42.3194980" lon="-8.6062390">
        <ele>136.6</ele>
        <time>2021-05-21T07:41:25Z</time>
      </trkpt>
      <trkpt lat="42.3195130" lon="-8.6062460">
        <ele>136.5</ele>
        <time>2021-05-21T07:41:26Z</time>
      </trkpt>
      <trkpt lat="42.3195250" lon="-8.6062490">
        <ele>136.4</ele>
        <time>2021-05-21T07:41:27Z</time>
      </trkpt>
      <trkpt lat="42.3195360" lon="-8.6062520">
        <ele>136.3</ele>
        <time>2021-05-21T07:41:28Z</time>
      </trkpt>
      <trkpt lat="42.3195430" lon="-8.6062550">
        <ele>136.2</ele>
        <time>2021-05-21T07:41:29Z</time>
      </trkpt>
      <trkpt lat="42.3195480" lon="-8.6062620">
        <ele>136.2</ele>
        <time>2021-05-21T07:41:30Z</time>
      </trkpt>
      <trkpt lat="42.3195530" lon="-8.6062760">
        <ele>136.1</ele>
        <time>2021-05-21T07:41:31Z</time>
      </trkpt>
      <trkpt lat="42.3195810" lon="-8.6062920">
        <ele>135.9</ele>
        <time>2021-05-21T07:41:32Z</time>
      </trkpt>
      <trkpt lat="42.3195890" lon="-8.6062960">
        <ele>135.8</ele>
        <time>2021-05-21T07:41:33Z</time>
      </trkpt>
      <trkpt lat="42.3196010" lon="-8.6063040">
        <ele>135.7</ele>
        <time>2021-05-21T07:41:34Z</time>
      </trkpt>
      <trkpt lat="42.3196170" lon="-8.6063140">
        <ele>135.6</ele>
        <time>2021-05-21T07:41:35Z</time>
      </trkpt>
      <trkpt lat="42.3196320" lon="-8.6063240">
        <ele>135.4</ele>
        <time>2021-05-21T07:41:36Z</time>
      </trkpt>
      <trkpt lat="42.3196410" lon="-8.6063340">
        <ele>135.3</ele>
        <time>2021-05-21T07:41:37Z</time>
      </trkpt>
      <trkpt lat="42.3196520" lon="-8.6063400">
        <ele>135.3</ele>
        <time>2021-05-21T07:41:38Z</time>
      </trkpt>
      <trkpt lat="42.3196660" lon="-8.6063430">
        <ele>135.2</ele>
        <time>2021-05-21T07:41:39Z</time>
      </trkpt>
      <trkpt lat="42.3196740" lon="-8.6063520">
        <ele>135.1</ele>
        <time>2021-05-21T07:41:40Z</time>
      </trkpt>
      <trkpt lat="42.3196900" lon="-8.6063640">
        <ele>134.9</ele>
        <time>2021-05-21T07:41:41Z</time>
      </trkpt>
      <trkpt lat="42.3197030" lon="-8.6063710">
        <ele>134.8</ele>
        <time>2021-05-21T07:41:42Z</time>
      </trkpt>
      <trkpt lat="42.3197250" lon="-8.6063960">
        <ele>134.6</ele>
        <time>2021-05-21T07:41:43Z</time>
      </trkpt>
      <trkpt lat="42.3197340" lon="-8.6064010">
        <ele>134.5</ele>
        <time>2021-05-21T07:41:44Z</time>
      </trkpt>
      <trkpt lat="42.3197420" lon="-8.6064050">
        <ele>134.5</ele>
        <time>2021-05-21T07:41:45Z</time>
      </trkpt>
      <trkpt lat="42.3197510" lon="-8.6064110">
        <ele>134.4</ele>
        <time>2021-05-21T07:41:46Z</time>
      </trkpt>
      <trkpt lat="42.3197550" lon="-8.6064160">
        <ele>134.4</ele>
        <time>2021-05-21T07:41:47Z</time>
      </trkpt>
      <trkpt lat="42.3197680" lon="-8.6064200">
        <ele>134.3</ele>
        <time>2021-05-21T07:41:48Z</time>
      </trkpt>
      <trkpt lat="42.3197760" lon="-8.6064240">
        <ele>134.2</ele>
        <time>2021-05-21T07:41:49Z</time>
      </trkpt>
      <trkpt lat="42.3197770" lon="-8.6064290">
        <ele>134.2</ele>
        <time>2021-05-21T07:41:50Z</time>
      </trkpt>
      <trkpt lat="42.3197830" lon="-8.6064350">
        <ele>134.1</ele>
        <time>2021-05-21T07:41:51Z</time>
      </trkpt>
      <trkpt lat="42.3198010" lon="-8.6064380">
        <ele>134.0</ele>
        <time>2021-05-21T07:41:52Z</time>
      </trkpt>
      <trkpt lat="42.3198090" lon="-8.6064580">
        <ele>133.8</ele>
        <time>2021-05-21T07:41:53Z</time>
      </trkpt>
      <trkpt lat="42.3198130" lon="-8.6064550">
        <ele>133.8</ele>
        <time>2021-05-21T07:41:54Z</time>
      </trkpt>
      <trkpt lat="42.3198170" lon="-8.6064620">
        <ele>133.8</ele>
        <time>2021-05-21T07:41:55Z</time>
      </trkpt>
      <trkpt lat="42.3198230" lon="-8.6064700">
        <ele>133.7</ele>
        <time>2021-05-21T07:41:56Z</time>
      </trkpt>
      <trkpt lat="42.3198320" lon="-8.6064890">
        <ele>133.6</ele>
        <time>2021-05-21T07:41:57Z</time>
      </trkpt>
      <trkpt lat="42.3198400" lon="-8.6064920">
        <ele>133.5</ele>
        <time>2021-05-21T07:41:58Z</time>
      </trkpt>
      <trkpt lat="42.3198400" lon="-8.6065010">
        <ele>133.5</ele>
        <time>2021-05-21T07:41:59Z</time>
      </trkpt>
      <trkpt lat="42.3198400" lon="-8.6065000">
        <ele>133.5</ele>
        <time>2021-05-21T07:42:00Z</time>
      </trkpt>
      <trkpt lat="42.3198410" lon="-8.6064990">
        <ele>133.4</ele>
        <time>2021-05-21T07:42:01Z</time>
      </trkpt>
      <trkpt lat="42.3198430" lon="-8.6064980">
        <ele>133.4</ele>
        <time>2021-05-21T07:42:02Z</time>
      </trkpt>
      <trkpt lat="42.3198430" lon="-8.6064970">
        <ele>133.4</ele>
        <time>2021-05-21T07:42:03Z</time>
      </trkpt>
      <trkpt lat="42.3198440" lon="-8.6064950">
        <ele>133.4</ele>
        <time>2021-05-21T07:42:04Z</time>
      </trkpt>
      <trkpt lat="42.3198460" lon="-8.6064960">
        <ele>133.4</ele>
        <time>2021-05-21T07:42:05Z</time>
      </trkpt>
      <trkpt lat="42.3198480" lon="-8.6065000">
        <ele>133.4</ele>
        <time>2021-05-21T07:42:06Z</time>
      </trkpt>
      <trkpt lat="42.3198530" lon="-8.6065010">
        <ele>133.3</ele>
        <time>2021-05-21T07:42:07Z</time>
      </trkpt>
      <trkpt lat="42.3198550" lon="-8.6065010">
        <ele>133.3</ele>
        <time>2021-05-21T07:42:08Z</time>
      </trkpt>
      <trkpt lat="42.3198600" lon="-8.6064890">
        <ele>133.2</ele>
        <time>2021-05-21T07:42:09Z</time>
      </trkpt>
      <trkpt lat="42.3198620" lon="-8.6064900">
        <ele>133.2</ele>
        <time>2021-05-21T07:42:10Z</time>
      </trkpt>
      <trkpt lat="42.3198670" lon="-8.6064970">
        <ele>133.2</ele>
        <time>2021-05-21T07:42:11Z</time>
      </trkpt>
      <trkpt lat="42.3198710" lon="-8.6065060">
        <ele>133.1</ele>
        <time>2021-05-21T07:42:12Z</time>
      </trkpt>
      <trkpt lat="42.3198710" lon="-8.6065060">
        <ele>133.1</ele>
        <time>2021-05-21T07:42:13Z</time>
      </trkpt>
      <trkpt lat="42.3198850" lon="-8.6065440">
        <ele>132.9</ele>
        <time>2021-05-21T07:42:14Z</time>
      </trkpt>
      <trkpt lat="42.3198830" lon="-8.6065430">
        <ele>132.9</ele>
        <time>2021-05-21T07:42:15Z</time>
      </trkpt>
      <trkpt lat="42.3198820" lon="-8.6065460">
        <ele>132.8</ele>
        <time>2021-05-21T07:42:16Z</time>
      </trkpt>
      <trkpt lat="42.3198790" lon="-8.6065470">
        <ele>132.8</ele>
        <time>2021-05-21T07:42:17Z</time>
      </trkpt>
      <trkpt lat="42.3198790" lon="-8.6065490">
        <ele>132.8</ele>
        <time>2021-05-21T07:42:18Z</time>
      </trkpt>
      <trkpt lat="42.3198780" lon="-8.6065460">
        <ele>132.8</ele>
        <time>2021-05-21T07:42:19Z</time>
      </trkpt>
      <trkpt lat="42.3198760" lon="-8.6065470">
        <ele>132.8</ele>
        <time>2021-05-21T07:42:20Z</time>
      </trkpt>
      <trkpt lat="42.3198760" lon="-8.6065470">
        <ele>132.8</ele>
        <time>2021-05-21T07:42:21Z</time>
      </trkpt>
      <trkpt lat="42.3198670" lon="-8.6065570">
        <ele>132.7</ele>
        <time>2021-05-21T07:42:22Z</time>
      </trkpt>
      <trkpt lat="42.3198640" lon="-8.6065570">
        <ele>132.7</ele>
        <time>2021-05-21T07:42:23Z</time>
      </trkpt>
      <trkpt lat="42.3198660" lon="-8.6065560">
        <ele>132.6</ele>
        <time>2021-05-21T07:42:24Z</time>
      </trkpt>
      <trkpt lat="42.3198650" lon="-8.6065580">
        <ele>132.6</ele>
        <time>2021-05-21T07:42:25Z</time>
      </trkpt>
      <trkpt lat="42.3198650" lon="-8.6065600">
        <ele>132.6</ele>
        <time>2021-05-21T07:42:26Z</time>
      </trkpt>
      <trkpt lat="42.3198630" lon="-8.6065570">
        <ele>132.6</ele>
        <time>2021-05-21T07:42:27Z</time>
      </trkpt>
      <trkpt lat="42.3198610" lon="-8.6065600">
        <ele>132.6</ele>
        <time>2021-05-21T07:42:28Z</time>
      </trkpt>
      <trkpt lat="42.3198550" lon="-8.6065550">
        <ele>132.5</ele>
        <time>2021-05-21T07:42:29Z</time>
      </trkpt>
      <trkpt lat="42.3198500" lon="-8.6065450">
        <ele>132.5</ele>
        <time>2021-05-21T07:42:30Z</time>
      </trkpt>
      <trkpt lat="42.3198500" lon="-8.6065470">
        <ele>132.4</ele>
        <time>2021-05-21T07:42:31Z</time>
      </trkpt>
      <trkpt lat="42.3198490" lon="-8.6065400">
        <ele>132.4</ele>
        <time>2021-05-21T07:42:32Z</time>
      </trkpt>
      <trkpt lat="42.3198510" lon="-8.6065350">
        <ele>132.4</ele>
        <time>2021-05-21T07:42:33Z</time>
      </trkpt>
      <trkpt lat="42.3198490" lon="-8.6065250">
        <ele>132.3</ele>
        <time>2021-05-21T07:42:34Z</time>
      </trkpt>
      <trkpt lat="42.3198480" lon="-8.6065240">
        <ele>132.3</ele>
        <time>2021-05-21T07:42:35Z</time>
      </trkpt>
      <trkpt lat="42.3198470" lon="-8.6065200">
        <ele>132.3</ele>
        <time>2021-05-21T07:42:36Z</time>
      </trkpt>
      <trkpt lat="42.3198430" lon="-8.6065240">
        <ele>132.2</ele>
        <time>2021-05-21T07:42:37Z</time>
      </trkpt>
      <trkpt lat="42.3198420" lon="-8.6065240">
        <ele>132.2</ele>
        <time>2021-05-21T07:42:38Z</time>
      </trkpt>
      <trkpt lat="42.3198400" lon="-8.6065240">
        <ele>132.2</ele>
        <time>2021-05-21T07:42:39Z</time>
      </trkpt>
      <trkpt lat="42.3198390" lon="-8.6065240">
        <ele>132.2</ele>
        <time>2021-05-21T07:42:40Z</time>
      </trkpt>
      <trkpt lat="42.3198370" lon="-8.6065240">
        <ele>132.2</ele>
        <time>2021-05-21T07:42:41Z</time>
      </trkpt>
      <trkpt lat="42.3198360" lon="-8.6065230">
        <ele>132.2</ele>
        <time>2021-05-21T07:42:42Z</time>
      </trkpt>
      <trkpt lat="42.3198340" lon="-8.6065230">
        <ele>132.2</ele>
        <time>2021-05-21T07:42:43Z</time>
      </trkpt>
      <trkpt lat="42.3198320" lon="-8.6065230">
        <ele>132.2</ele>
        <time>2021-05-21T07:42:44Z</time>
      </trkpt>
      <trkpt lat="42.3198310" lon="-8.6065230">
        <ele>132.2</ele>
        <time>2021-05-21T07:42:45Z</time>
      </trkpt>
      <trkpt lat="42.3198290" lon="-8.6065230">
        <ele>132.1</ele>
        <time>2021-05-21T07:42:46Z</time>
      </trkpt>
      <trkpt lat="42.3198280" lon="-8.6065230">
        <ele>132.1</ele>
        <time>2021-05-21T07:42:47Z</time>
      </trkpt>
      <trkpt lat="42.3198260" lon="-8.6065230">
        <ele>132.1</ele>
        <time>2021-05-21T07:42:48Z</time>
      </trkpt>
      <trkpt lat="42.3198250" lon="-8.6065230">
        <ele>132.1</ele>
        <time>2021-05-21T07:42:49Z</time>
      </trkpt>
      <trkpt lat="42.3198230" lon="-8.6065230">
        <ele>132.1</ele>
        <time>2021-05-21T07:42:50Z</time>
      </trkpt>
      <trkpt lat="42.3198220" lon="-8.6065230">
        <ele>132.1</ele>
        <time>2021-05-21T07:42:51Z</time>
      </trkpt>
      <trkpt lat="42.3198200" lon="-8.6065230">
        <ele>132.1</ele>
        <time>2021-05-21T07:42:52Z</time>
      </trkpt>
      <trkpt lat="42.3198180" lon="-8.6065230">
        <ele>132.1</ele>
        <time>2021-05-21T07:42:53Z</time>
      </trkpt>
      <trkpt lat="42.3198170" lon="-8.6065220">
        <ele>132.0</ele>
        <time>2021-05-21T07:42:54Z</time>
      </trkpt>
      <trkpt lat="42.3198150" lon="-8.6065220">
        <ele>132.0</ele>
        <time>2021-05-21T07:42:55Z</time>
      </trkpt>
      <trkpt lat="42.3198140" lon="-8.6065220">
        <ele>132.0</ele>
        <time>2021-05-21T07:42:56Z</time>
      </trkpt>
      <trkpt lat="42.3198120" lon="-8.6065220">
        <ele>132.0</ele>
        <time>2021-05-21T07:42:57Z</time>
      </trkpt>
      <trkpt lat="42.3198110" lon="-8.6065220">
        <ele>132.0</ele>
        <time>2021-05-21T07:42:58Z</time>
      </trkpt>
      <trkpt lat="42.3198090" lon="-8.6065220">
        <ele>132.0</ele>
        <time>2021-05-21T07:42:59Z</time>
      </trkpt>
      <trkpt lat="42.3198050" lon="-8.6065170">
        <ele>131.9</ele>
        <time>2021-05-21T07:43:00Z</time>
      </trkpt>
      <trkpt lat="42.3198050" lon="-8.6065140">
        <ele>131.9</ele>
        <time>2021-05-21T07:43:01Z</time>
      </trkpt>
      <trkpt lat="42.3198060" lon="-8.6065070">
        <ele>131.9</ele>
        <time>2021-05-21T07:43:02Z</time>
      </trkpt>
      <trkpt lat="42.3198040" lon="-8.6065060">
        <ele>131.9</ele>
        <time>2021-05-21T07:43:03Z</time>
      </trkpt>
      <trkpt lat="42.3198030" lon="-8.6065060">
        <ele>131.9</ele>
        <time>2021-05-21T07:43:04Z</time>
      </trkpt>
      <trkpt lat="42.3198010" lon="-8.6065040">
        <ele>131.8</ele>
        <time>2021-05-21T07:43:05Z</time>
      </trkpt>
      <trkpt lat="42.3197990" lon="-8.6065010">
        <ele>131.8</ele>
        <time>2021-05-21T07:43:06Z</time>
      </trkpt>
      <trkpt lat="42.3197970" lon="-8.6065010">
        <ele>131.8</ele>
        <time>2021-05-21T07:43:07Z</time>
      </trkpt>
      <trkpt lat="42.3197990" lon="-8.6064980">
        <ele>131.8</ele>
        <time>2021-05-21T07:43:08Z</time>
      </trkpt>
      <trkpt lat="42.3198000" lon="-8.6065020">
        <ele>131.8</ele>
        <time>2021-05-21T07:43:09Z</time>
      </trkpt>
      <trkpt lat="42.3198020" lon="-8.6065000">
        <ele>131.7</ele>
        <time>2021-05-21T07:43:10Z</time>
      </trkpt>
      <trkpt lat="42.3198010" lon="-8.6064960">
        <ele>131.7</ele>
        <time>2021-05-21T07:43:11Z</time>
      </trkpt>
      <trkpt lat="42.3198040" lon="-8.6064930">
        <ele>131.7</ele>
        <time>2021-05-21T07:43:12Z</time>
      </trkpt>
      <trkpt lat="42.3198060" lon="-8.6064930">
        <ele>131.7</ele>
        <time>2021-05-21T07:43:13Z</time>
      </trkpt>
      <trkpt lat="42.3198090" lon="-8.6064880">
        <ele>131.6</ele>
        <time>2021-05-21T07:43:14Z</time>
      </trkpt>
      <trkpt lat="42.3198120" lon="-8.6064890">
        <ele>131.6</ele>
        <time>2021-05-21T07:43:15Z</time>
      </trkpt>
      <trkpt lat="42.3198140" lon="-8.6064850">
        <ele>131.6</ele>
        <time>2021-05-21T07:43:16Z</time>
      </trkpt>
      <trkpt lat="42.3198140" lon="-8.6064890">
        <ele>131.6</ele>
        <time>2021-05-21T07:43:17Z</time>
      </trkpt>
      <trkpt lat="42.3198150" lon="-8.6064890">
        <ele>131.6</ele>
        <time>2021-05-21T07:43:18Z</time>
      </trkpt>
      <trkpt lat="42.3198150" lon="-8.6064900">
        <ele>131.5</ele>
        <time>2021-05-21T07:43:19Z</time>
      </trkpt>
      <trkpt lat="42.3198160" lon="-8.6064900">
        <ele>131.5</ele>
        <time>2021-05-21T07:43:20Z</time>
      </trkpt>
      <trkpt lat="42.3198160" lon="-8.6064910">
        <ele>131.5</ele>
        <time>2021-05-21T07:43:21Z</time>
      </trkpt>
      <trkpt lat="42.3198170" lon="-8.6064910">
        <ele>131.5</ele>
        <time>2021-05-21T07:43:22Z</time>
      </trkpt>
      <trkpt lat="42.3198170" lon="-8.6064920">
        <ele>131.5</ele>
        <time>2021-05-21T07:43:23Z</time>
      </trkpt>
      <trkpt lat="42.3198180" lon="-8.6064920">
        <ele>131.5</ele>
        <time>2021-05-21T07:43:24Z</time>
      </trkpt>
      <trkpt lat="42.3198180" lon="-8.6064930">
        <ele>131.5</ele>
        <time>2021-05-21T07:43:25Z</time>
      </trkpt>
      <trkpt lat="42.3198190" lon="-8.6064930">
        <ele>131.5</ele>
        <time>2021-05-21T07:43:26Z</time>
      </trkpt>
      <trkpt lat="42.3198190" lon="-8.6064940">
        <ele>131.5</ele>
        <time>2021-05-21T07:43:27Z</time>
      </trkpt>
      <trkpt lat="42.3198200" lon="-8.6064950">
        <ele>131.5</ele>
        <time>2021-05-21T07:43:28Z</time>
      </trkpt>
      <trkpt lat="42.3198200" lon="-8.6064950">
        <ele>131.5</ele>
        <time>2021-05-21T07:43:29Z</time>
      </trkpt>
      <trkpt lat="42.3198210" lon="-8.6064960">
        <ele>131.5</ele>
        <time>2021-05-21T07:43:30Z</time>
      </trkpt>
      <trkpt lat="42.3198210" lon="-8.6064960">
        <ele>131.5</ele>
        <time>2021-05-21T07:43:31Z</time>
      </trkpt>
      <trkpt lat="42.3198220" lon="-8.6064970">
        <ele>131.5</ele>
        <time>2021-05-21T07:43:32Z</time>
      </trkpt>
      <trkpt lat="42.3198220" lon="-8.6064970">
        <ele>131.5</ele>
        <time>2021-05-21T07:43:33Z</time>
      </trkpt>
      <trkpt lat="42.3198230" lon="-8.6064980">
        <ele>131.5</ele>
        <time>2021-05-21T07:43:34Z</time>
      </trkpt>
      <trkpt lat="42.3198230" lon="-8.6064980">
        <ele>131.5</ele>
        <time>2021-05-21T07:43:35Z</time>
      </trkpt>
      <trkpt lat="42.3198240" lon="-8.6064990">
        <ele>131.4</ele>
        <time>2021-05-21T07:43:36Z</time>
      </trkpt>
      <trkpt lat="42.3198240" lon="-8.6064990">
        <ele>131.4</ele>
        <time>2021-05-21T07:43:37Z</time>
      </trkpt>
      <trkpt lat="42.3198250" lon="-8.6065000">
        <ele>131.4</ele>
        <time>2021-05-21T07:43:38Z</time>
      </trkpt>
      <trkpt lat="42.3198250" lon="-8.6065010">
        <ele>131.4</ele>
        <time>2021-05-21T07:43:39Z</time>
      </trkpt>
      <trkpt lat="42.3198260" lon="-8.6065010">
        <ele>131.4</ele>
        <time>2021-05-21T07:43:40Z</time>
      </trkpt>
      <trkpt lat="42.3198260" lon="-8.6065020">
        <ele>131.4</ele>
        <time>2021-05-21T07:43:41Z</time>
      </trkpt>
      <trkpt lat="42.3198270" lon="-8.6065020">
        <ele>131.4</ele>
        <time>2021-05-21T07:43:42Z</time>
      </trkpt>
      <trkpt lat="42.3198270" lon="-8.6065030">
        <ele>131.4</ele>
        <time>2021-05-21T07:43:43Z</time>
      </trkpt>
      <trkpt lat="42.3198280" lon="-8.6065030">
        <ele>131.4</ele>
        <time>2021-05-21T07:43:44Z</time>
      </trkpt>
      <trkpt lat="42.3198280" lon="-8.6065040">
        <ele>131.4</ele>
        <time>2021-05-21T07:43:45Z</time>
      </trkpt>
      <trkpt lat="42.3198290" lon="-8.6065040">
        <ele>131.4</ele>
        <time>2021-05-21T07:43:46Z</time>
      </trkpt>
      <trkpt lat="42.3198290" lon="-8.6065050">
        <ele>131.4</ele>
        <time>2021-05-21T07:43:47Z</time>
      </trkpt>
      <trkpt lat="42.3198300" lon="-8.6065050">
        <ele>131.4</ele>
        <time>2021-05-21T07:43:48Z</time>
      </trkpt>
      <trkpt lat="42.3198300" lon="-8.6065060">
        <ele>131.4</ele>
        <time>2021-05-21T07:43:49Z</time>
      </trkpt>
      <trkpt lat="42.3198300" lon="-8.6065070">
        <ele>131.4</ele>
        <time>2021-05-21T07:43:50Z</time>
      </trkpt>
      <trkpt lat="42.3198310" lon="-8.6065070">
        <ele>131.3</ele>
        <time>2021-05-21T07:43:51Z</time>
      </trkpt>
      <trkpt lat="42.3198310" lon="-8.6065080">
        <ele>131.3</ele>
        <time>2021-05-21T07:43:52Z</time>
      </trkpt>
      <trkpt lat="42.3198320" lon="-8.6065080">
        <ele>131.3</ele>
        <time>2021-05-21T07:43:53Z</time>
      </trkpt>
      <trkpt lat="42.3198320" lon="-8.6065090">
        <ele>131.3</ele>
        <time>2021-05-21T07:43:54Z</time>
      </trkpt>
      <trkpt lat="42.3198330" lon="-8.6065090">
        <ele>131.3</ele>
        <time>2021-05-21T07:43:55Z</time>
      </trkpt>
      <trkpt lat="42.3198330" lon="-8.6065100">
        <ele>131.3</ele>
        <time>2021-05-21T07:43:56Z</time>
      </trkpt>
      <trkpt lat="42.3198340" lon="-8.6065100">
        <ele>131.3</ele>
        <time>2021-05-21T07:43:57Z</time>
      </trkpt>
      <trkpt lat="42.3198340" lon="-8.6065110">
        <ele>131.3</ele>
        <time>2021-05-21T07:43:58Z</time>
      </trkpt>
      <trkpt lat="42.3198350" lon="-8.6065110">
        <ele>131.3</ele>
        <time>2021-05-21T07:43:59Z</time>
      </trkpt>
      <trkpt lat="42.3198350" lon="-8.6065120">
        <ele>131.3</ele>
        <time>2021-05-21T07:44:00Z</time>
      </trkpt>
      <trkpt lat="42.3198360" lon="-8.6065130">
        <ele>131.3</ele>
        <time>2021-05-21T07:44:01Z</time>
      </trkpt>
      <trkpt lat="42.3198360" lon="-8.6065130">
        <ele>131.3</ele>
        <time>2021-05-21T07:44:02Z</time>
      </trkpt>
      <trkpt lat="42.3198370" lon="-8.6065140">
        <ele>131.3</ele>
        <time>2021-05-21T07:44:03Z</time>
      </trkpt>
      <trkpt lat="42.3198370" lon="-8.6065140">
        <ele>131.3</ele>
        <time>2021-05-21T07:44:04Z</time>
      </trkpt>
      <trkpt lat="42.3198380" lon="-8.6065150">
        <ele>131.3</ele>
        <time>2021-05-21T07:44:05Z</time>
      </trkpt>
      <trkpt lat="42.3198380" lon="-8.6065150">
        <ele>131.3</ele>
        <time>2021-05-21T07:44:06Z</time>
      </trkpt>
      <trkpt lat="42.3198390" lon="-8.6065160">
        <ele>131.3</ele>
        <time>2021-05-21T07:44:07Z</time>
      </trkpt>
      <trkpt lat="42.3198390" lon="-8.6065160">
        <ele>131.3</ele>
        <time>2021-05-21T07:44:08Z</time>
      </trkpt>
      <trkpt lat="42.3198400" lon="-8.6065170">
        <ele>131.2</ele>
        <time>2021-05-21T07:44:09Z</time>
      </trkpt>
      <trkpt lat="42.3198400" lon="-8.6065170">
        <ele>131.2</ele>
        <time>2021-05-21T07:44:10Z</time>
      </trkpt>
      <trkpt lat="42.3198410" lon="-8.6065180">
        <ele>131.2</ele>
        <time>2021-05-21T07:44:11Z</time>
      </trkpt>
      <trkpt lat="42.3198410" lon="-8.6065190">
        <ele>131.2</ele>
        <time>2021-05-21T07:44:12Z</time>
      </trkpt>
      <trkpt lat="42.3198420" lon="-8.6065190">
        <ele>131.2</ele>
        <time>2021-05-21T07:44:13Z</time>
      </trkpt>
      <trkpt lat="42.3198420" lon="-8.6065200">
        <ele>131.2</ele>
        <time>2021-05-21T07:44:14Z</time>
      </trkpt>
      <trkpt lat="42.3198430" lon="-8.6065200">
        <ele>131.2</ele>
        <time>2021-05-21T07:44:15Z</time>
      </trkpt>
      <trkpt lat="42.3198430" lon="-8.6065210">
        <ele>131.2</ele>
        <time>2021-05-21T07:44:16Z</time>
      </trkpt>
      <trkpt lat="42.3198440" lon="-8.6065210">
        <ele>131.2</ele>
        <time>2021-05-21T07:44:17Z</time>
      </trkpt>
      <trkpt lat="42.3198440" lon="-8.6065220">
        <ele>131.2</ele>
        <time>2021-05-21T07:44:18Z</time>
      </trkpt>
      <trkpt lat="42.3198450" lon="-8.6065220">
        <ele>131.2</ele>
        <time>2021-05-21T07:44:19Z</time>
      </trkpt>
      <trkpt lat="42.3198450" lon="-8.6065230">
        <ele>131.2</ele>
        <time>2021-05-21T07:44:20Z</time>
      </trkpt>
      <trkpt lat="42.3198460" lon="-8.6065230">
        <ele>131.2</ele>
        <time>2021-05-21T07:44:21Z</time>
      </trkpt>
      <trkpt lat="42.3198460" lon="-8.6065240">
        <ele>131.2</ele>
        <time>2021-05-21T07:44:22Z</time>
      </trkpt>
      <trkpt lat="42.3198460" lon="-8.6065250">
        <ele>131.1</ele>
        <time>2021-05-21T07:44:23Z</time>
      </trkpt>
      <trkpt lat="42.3198470" lon="-8.6065250">
        <ele>131.1</ele>
        <time>2021-05-21T07:44:24Z</time>
      </trkpt>
      <trkpt lat="42.3198470" lon="-8.6065260">
        <ele>131.1</ele>
        <time>2021-05-21T07:44:25Z</time>
      </trkpt>
      <trkpt lat="42.3198480" lon="-8.6065260">
        <ele>131.1</ele>
        <time>2021-05-21T07:44:26Z</time>
      </trkpt>
      <trkpt lat="42.3198480" lon="-8.6065270">
        <ele>131.1</ele>
        <time>2021-05-21T07:44:27Z</time>
      </trkpt>
      <trkpt lat="42.3198490" lon="-8.6065270">
        <ele>131.1</ele>
        <time>2021-05-21T07:44:28Z</time>
      </trkpt>
      <trkpt lat="42.3198490" lon="-8.6065280">
        <ele>131.1</ele>
        <time>2021-05-21T07:44:29Z</time>
      </trkpt>
      <trkpt lat="42.3198500" lon="-8.6065280">
        <ele>131.1</ele>
        <time>2021-05-21T07:44:30Z</time>
      </trkpt>
      <trkpt lat="42.3198500" lon="-8.6065290">
        <ele>131.1</ele>
        <time>2021-05-21T07:44:31Z</time>
      </trkpt>
      <trkpt lat="42.3198510" lon="-8.6065290">
        <ele>131.1</ele>
        <time>2021-05-21T07:44:32Z</time>
      </trkpt>
      <trkpt lat="42.3198510" lon="-8.6065300">
        <ele>131.1</ele>
        <time>2021-05-21T07:44:33Z</time>
      </trkpt>
      <trkpt lat="42.3198520" lon="-8.6065310">
        <ele>131.1</ele>
        <time>2021-05-21T07:44:34Z</time>
      </trkpt>
      <trkpt lat="42.3198520" lon="-8.6065310">
        <ele>131.1</ele>
        <time>2021-05-21T07:44:35Z</time>
      </trkpt>
      <trkpt lat="42.3198530" lon="-8.6065320">
        <ele>131.1</ele>
        <time>2021-05-21T07:44:36Z</time>
      </trkpt>
      <trkpt lat="42.3198530" lon="-8.6065320">
        <ele>131.1</ele>
        <time>2021-05-21T07:44:37Z</time>
      </trkpt>
      <trkpt lat="42.3198540" lon="-8.6065330">
        <ele>131.0</ele>
        <time>2021-05-21T07:44:38Z</time>
      </trkpt>
      <trkpt lat="42.3198540" lon="-8.6065330">
        <ele>131.0</ele>
        <time>2021-05-21T07:44:39Z</time>
      </trkpt>
      <trkpt lat="42.3198550" lon="-8.6065340">
        <ele>131.0</ele>
        <time>2021-05-21T07:44:40Z</time>
      </trkpt>
      <trkpt lat="42.3198550" lon="-8.6065340">
        <ele>131.0</ele>
        <time>2021-05-21T07:44:41Z</time>
      </trkpt>
      <trkpt lat="42.3198560" lon="-8.6065350">
        <ele>131.0</ele>
        <time>2021-05-21T07:44:42Z</time>
      </trkpt>
      <trkpt lat="42.3198560" lon="-8.6065350">
        <ele>131.0</ele>
        <time>2021-05-21T07:44:43Z</time>
      </trkpt>
      <trkpt lat="42.3198570" lon="-8.6065360">
        <ele>131.0</ele>
        <time>2021-05-21T07:44:44Z</time>
      </trkpt>
      <trkpt lat="42.3198570" lon="-8.6065370">
        <ele>131.0</ele>
        <time>2021-05-21T07:44:45Z</time>
      </trkpt>
      <trkpt lat="42.3198580" lon="-8.6065370">
        <ele>131.0</ele>
        <time>2021-05-21T07:44:46Z</time>
      </trkpt>
      <trkpt lat="42.3198580" lon="-8.6065380">
        <ele>131.0</ele>
        <time>2021-05-21T07:44:47Z</time>
      </trkpt>
      <trkpt lat="42.3198590" lon="-8.6065380">
        <ele>131.0</ele>
        <time>2021-05-21T07:44:48Z</time>
      </trkpt>
      <trkpt lat="42.3198590" lon="-8.6065390">
        <ele>131.0</ele>
        <time>2021-05-21T07:44:49Z</time>
      </trkpt>
      <trkpt lat="42.3198600" lon="-8.6065390">
        <ele>131.0</ele>
        <time>2021-05-21T07:44:50Z</time>
      </trkpt>
      <trkpt lat="42.3198600" lon="-8.6065400">
        <ele>131.0</ele>
        <time>2021-05-21T07:44:51Z</time>
      </trkpt>
      <trkpt lat="42.3198610" lon="-8.6065400">
        <ele>131.0</ele>
        <time>2021-05-21T07:44:52Z</time>
      </trkpt>
      <trkpt lat="42.3198610" lon="-8.6065410">
        <ele>131.0</ele>
        <time>2021-05-21T07:44:53Z</time>
      </trkpt>
      <trkpt lat="42.3198620" lon="-8.6065410">
        <ele>131.0</ele>
        <time>2021-05-21T07:44:54Z</time>
      </trkpt>
      <trkpt lat="42.3198620" lon="-8.6065420">
        <ele>130.9</ele>
        <time>2021-05-21T07:44:55Z</time>
      </trkpt>
      <trkpt lat="42.3198730" lon="-8.6065530">
        <ele>130.8</ele>
        <time>2021-05-21T07:44:56Z</time>
      </trkpt>
      <trkpt lat="42.3198760" lon="-8.6065530">
        <ele>130.8</ele>
        <time>2021-05-21T07:44:57Z</time>
      </trkpt>
      <trkpt lat="42.3198790" lon="-8.6065540">
        <ele>130.8</ele>
        <time>2021-05-21T07:44:58Z</time>
      </trkpt>
      <trkpt lat="42.3198820" lon="-8.6065540">
        <ele>130.8</ele>
        <time>2021-05-21T07:44:59Z</time>
      </trkpt>
      <trkpt lat="42.3198850" lon="-8.6065550">
        <ele>130.7</ele>
        <time>2021-05-21T07:45:00Z</time>
      </trkpt>
      <trkpt lat="42.3198880" lon="-8.6065550">
        <ele>130.7</ele>
        <time>2021-05-21T07:45:01Z</time>
      </trkpt>
      <trkpt lat="42.3198910" lon="-8.6065560">
        <ele>130.7</ele>
        <time>2021-05-21T07:45:02Z</time>
      </trkpt>
      <trkpt lat="42.3198940" lon="-8.6065560">
        <ele>130.7</ele>
        <time>2021-05-21T07:45:03Z</time>
      </trkpt>
      <trkpt lat="42.3198970" lon="-8.6065570">
        <ele>130.6</ele>
        <time>2021-05-21T07:45:04Z</time>
      </trkpt>
      <trkpt lat="42.3198940" lon="-8.6065590">
        <ele>130.6</ele>
        <time>2021-05-21T07:45:05Z</time>
      </trkpt>
      <trkpt lat="42.3198920" lon="-8.6065560">
        <ele>130.6</ele>
        <time>2021-05-21T07:45:06Z</time>
      </trkpt>
      <trkpt lat="42.3198920" lon="-8.6065590">
        <ele>130.6</ele>
        <time>2021-05-21T07:45:07Z</time>
      </trkpt>
      <trkpt lat="42.3198900" lon="-8.6065620">
        <ele>130.5</ele>
        <time>2021-05-21T07:45:08Z</time>
      </trkpt>
      <trkpt lat="42.3198880" lon="-8.6065670">
        <ele>130.5</ele>
        <time>2021-05-21T07:45:09Z</time>
      </trkpt>
      <trkpt lat="42.3198890" lon="-8.6065710">
        <ele>130.5</ele>
        <time>2021-05-21T07:45:10Z</time>
      </trkpt>
      <trkpt lat="42.3198900" lon="-8.6065720">
        <ele>130.5</ele>
        <time>2021-05-21T07:45:11Z</time>
      </trkpt>
      <trkpt lat="42.3198880" lon="-8.6065720">
        <ele>130.5</ele>
        <time>2021-05-21T07:45:12Z</time>
      </trkpt>
      <trkpt lat="42.3198890" lon="-8.6065750">
        <ele>130.4</ele>
        <time>2021-05-21T07:45:13Z</time>
      </trkpt>
      <trkpt lat="42.3198910" lon="-8.6065750">
        <ele>130.4</ele>
        <time>2021-05-21T07:45:14Z</time>
      </trkpt>
      <trkpt lat="42.3198900" lon="-8.6065780">
        <ele>130.4</ele>
        <time>2021-05-21T07:45:15Z</time>
      </trkpt>
      <trkpt lat="42.3198950" lon="-8.6065830">
        <ele>130.3</ele>
        <time>2021-05-21T07:45:16Z</time>
      </trkpt>
      <trkpt lat="42.3199120" lon="-8.6065980">
        <ele>130.2</ele>
        <time>2021-05-21T07:45:17Z</time>
      </trkpt>
      <trkpt lat="42.3199220" lon="-8.6066020">
        <ele>130.1</ele>
        <time>2021-05-21T07:45:18Z</time>
      </trkpt>
      <trkpt lat="42.3199350" lon="-8.6066090">
        <ele>130.0</ele>
        <time>2021-05-21T07:45:19Z</time>
      </trkpt>
      <trkpt lat="42.3199390" lon="-8.6066140">
        <ele>129.9</ele>
        <time>2021-05-21T07:45:20Z</time>
      </trkpt>
      <trkpt lat="42.3199440" lon="-8.6066060">
        <ele>129.8</ele>
        <time>2021-05-21T07:45:21Z</time>
      </trkpt>
      <trkpt lat="42.3199590" lon="-8.6066150">
        <ele>129.7</ele>
        <time>2021-05-21T07:45:22Z</time>
      </trkpt>
      <trkpt lat="42.3199670" lon="-8.6066230">
        <ele>129.6</ele>
        <time>2021-05-21T07:45:23Z</time>
      </trkpt>
      <trkpt lat="42.3199810" lon="-8.6066280">
        <ele>129.5</ele>
        <time>2021-05-21T07:45:24Z</time>
      </trkpt>
      <trkpt lat="42.3199880" lon="-8.6066300">
        <ele>129.4</ele>
        <time>2021-05-21T07:45:25Z</time>
      </trkpt>
      <trkpt lat="42.3199920" lon="-8.6066490">
        <ele>129.3</ele>
        <time>2021-05-21T07:45:26Z</time>
      </trkpt>
      <trkpt lat="42.3200080" lon="-8.6066610">
        <ele>129.1</ele>
        <time>2021-05-21T07:45:27Z</time>
      </trkpt>
      <trkpt lat="42.3200150" lon="-8.6066650">
        <ele>129.1</ele>
        <time>2021-05-21T07:45:28Z</time>
      </trkpt>
      <trkpt lat="42.3200250" lon="-8.6066700">
        <ele>129.0</ele>
        <time>2021-05-21T07:45:29Z</time>
      </trkpt>
      <trkpt lat="42.3200350" lon="-8.6066850">
        <ele>128.8</ele>
        <time>2021-05-21T07:45:31Z</time>
      </trkpt>
      <trkpt lat="42.3200450" lon="-8.6066930">
        <ele>128.7</ele>
        <time>2021-05-21T07:45:32Z</time>
      </trkpt>
      <trkpt lat="42.3200540" lon="-8.6066930">
        <ele>128.7</ele>
        <time>2021-05-21T07:45:33Z</time>
      </trkpt>
      <trkpt lat="42.3200680" lon="-8.6067070">
        <ele>128.5</ele>
        <time>2021-05-21T07:45:34Z</time>
      </trkpt>
      <trkpt lat="42.3200780" lon="-8.6067150">
        <ele>128.4</ele>
        <time>2021-05-21T07:45:35Z</time>
      </trkpt>
      <trkpt lat="42.3200870" lon="-8.6067340">
        <ele>128.3</ele>
        <time>2021-05-21T07:45:36Z</time>
      </trkpt>
      <trkpt lat="42.3200930" lon="-8.6067370">
        <ele>128.2</ele>
        <time>2021-05-21T07:45:37Z</time>
      </trkpt>
      <trkpt lat="42.3201010" lon="-8.6067500">
        <ele>128.1</ele>
        <time>2021-05-21T07:45:38Z</time>
      </trkpt>
      <trkpt lat="42.3201160" lon="-8.6067710">
        <ele>127.9</ele>
        <time>2021-05-21T07:45:39Z</time>
      </trkpt>
      <trkpt lat="42.3201220" lon="-8.6067810">
        <ele>127.8</ele>
        <time>2021-05-21T07:45:40Z</time>
      </trkpt>
      <trkpt lat="42.3201290" lon="-8.6067910">
        <ele>127.7</ele>
        <time>2021-05-21T07:45:41Z</time>
      </trkpt>
      <trkpt lat="42.3201430" lon="-8.6068100">
        <ele>127.5</ele>
        <time>2021-05-21T07:45:42Z</time>
      </trkpt>
      <trkpt lat="42.3201510" lon="-8.6068170">
        <ele>127.5</ele>
        <time>2021-05-21T07:45:43Z</time>
      </trkpt>
      <trkpt lat="42.3201590" lon="-8.6068250">
        <ele>127.4</ele>
        <time>2021-05-21T07:45:44Z</time>
      </trkpt>
      <trkpt lat="42.3201690" lon="-8.6068320">
        <ele>127.3</ele>
        <time>2021-05-21T07:45:45Z</time>
      </trkpt>
      <trkpt lat="42.3201810" lon="-8.6068450">
        <ele>127.1</ele>
        <time>2021-05-21T07:45:46Z</time>
      </trkpt>
      <trkpt lat="42.3201850" lon="-8.6068560">
        <ele>127.0</ele>
        <time>2021-05-21T07:45:47Z</time>
      </trkpt>
      <trkpt lat="42.3201940" lon="-8.6068680">
        <ele>126.9</ele>
        <time>2021-05-21T07:45:48Z</time>
      </trkpt>
      <trkpt lat="42.3202100" lon="-8.6068740">
        <ele>126.8</ele>
        <time>2021-05-21T07:45:49Z</time>
      </trkpt>
      <trkpt lat="42.3202190" lon="-8.6068940">
        <ele>126.6</ele>
        <time>2021-05-21T07:45:50Z</time>
      </trkpt>
      <trkpt lat="42.3202290" lon="-8.6069010">
        <ele>126.5</ele>
        <time>2021-05-21T07:45:51Z</time>
      </trkpt>
      <trkpt lat="42.3202350" lon="-8.6069090">
        <ele>126.5</ele>
        <time>2021-05-21T07:45:52Z</time>
      </trkpt>
      <trkpt lat="42.3202450" lon="-8.6069180">
        <ele>126.4</ele>
        <time>2021-05-21T07:45:53Z</time>
      </trkpt>
      <trkpt lat="42.3202450" lon="-8.6069360">
        <ele>126.2</ele>
        <time>2021-05-21T07:45:54Z</time>
      </trkpt>
      <trkpt lat="42.3202540" lon="-8.6069420">
        <ele>126.1</ele>
        <time>2021-05-21T07:45:55Z</time>
      </trkpt>
      <trkpt lat="42.3202600" lon="-8.6069530">
        <ele>126.0</ele>
        <time>2021-05-21T07:45:56Z</time>
      </trkpt>
      <trkpt lat="42.3202620" lon="-8.6069700">
        <ele>125.9</ele>
        <time>2021-05-21T07:45:57Z</time>
      </trkpt>
      <trkpt lat="42.3202710" lon="-8.6069850">
        <ele>125.8</ele>
        <time>2021-05-21T07:45:58Z</time>
      </trkpt>
      <trkpt lat="42.3202810" lon="-8.6069900">
        <ele>125.7</ele>
        <time>2021-05-21T07:45:59Z</time>
      </trkpt>
      <trkpt lat="42.3202840" lon="-8.6070020">
        <ele>125.6</ele>
        <time>2021-05-21T07:46:00Z</time>
      </trkpt>
      <trkpt lat="42.3202890" lon="-8.6070190">
        <ele>125.5</ele>
        <time>2021-05-21T07:46:01Z</time>
      </trkpt>
      <trkpt lat="42.3202970" lon="-8.6070210">
        <ele>125.4</ele>
        <time>2021-05-21T07:46:02Z</time>
      </trkpt>
      <trkpt lat="42.3203080" lon="-8.6070360">
        <ele>125.2</ele>
        <time>2021-05-21T07:46:03Z</time>
      </trkpt>
      <trkpt lat="42.3203210" lon="-8.6070470">
        <ele>125.1</ele>
        <time>2021-05-21T07:46:04Z</time>
      </trkpt>
      <trkpt lat="42.3203300" lon="-8.6070550">
        <ele>125.0</ele>
        <time>2021-05-21T07:46:05Z</time>
      </trkpt>
      <trkpt lat="42.3203400" lon="-8.6070620">
        <ele>124.9</ele>
        <time>2021-05-21T07:46:06Z</time>
      </trkpt>
      <trkpt lat="42.3203480" lon="-8.6070730">
        <ele>124.8</ele>
        <time>2021-05-21T07:46:07Z</time>
      </trkpt>
      <trkpt lat="42.3203550" lon="-8.6070850">
        <ele>124.7</ele>
        <time>2021-05-21T07:46:08Z</time>
      </trkpt>
      <trkpt lat="42.3203620" lon="-8.6070890">
        <ele>124.6</ele>
        <time>2021-05-21T07:46:09Z</time>
      </trkpt>
      <trkpt lat="42.3203730" lon="-8.6071080">
        <ele>124.4</ele>
        <time>2021-05-21T07:46:10Z</time>
      </trkpt>
      <trkpt lat="42.3203750" lon="-8.6071170">
        <ele>124.3</ele>
        <time>2021-05-21T07:46:11Z</time>
      </trkpt>
      <trkpt lat="42.3203830" lon="-8.6071250">
        <ele>124.2</ele>
        <time>2021-05-21T07:46:12Z</time>
      </trkpt>
      <trkpt lat="42.3203920" lon="-8.6071480">
        <ele>124.1</ele>
        <time>2021-05-21T07:46:13Z</time>
      </trkpt>
      <trkpt lat="42.3204020" lon="-8.6071560">
        <ele>123.9</ele>
        <time>2021-05-21T07:46:14Z</time>
      </trkpt>
      <trkpt lat="42.3204140" lon="-8.6071720">
        <ele>123.8</ele>
        <time>2021-05-21T07:46:15Z</time>
      </trkpt>
      <trkpt lat="42.3204130" lon="-8.6071890">
        <ele>123.7</ele>
        <time>2021-05-21T07:46:16Z</time>
      </trkpt>
      <trkpt lat="42.3204200" lon="-8.6071930">
        <ele>123.6</ele>
        <time>2021-05-21T07:46:17Z</time>
      </trkpt>
      <trkpt lat="42.3204270" lon="-8.6072050">
        <ele>123.5</ele>
        <time>2021-05-21T07:46:18Z</time>
      </trkpt>
      <trkpt lat="42.3204310" lon="-8.6072130">
        <ele>123.4</ele>
        <time>2021-05-21T07:46:19Z</time>
      </trkpt>
      <trkpt lat="42.3204410" lon="-8.6072180">
        <ele>123.4</ele>
        <time>2021-05-21T07:46:20Z</time>
      </trkpt>
      <trkpt lat="42.3204480" lon="-8.6072380">
        <ele>123.2</ele>
        <time>2021-05-21T07:46:21Z</time>
      </trkpt>
      <trkpt lat="42.3204610" lon="-8.6072520">
        <ele>123.1</ele>
        <time>2021-05-21T07:46:22Z</time>
      </trkpt>
      <trkpt lat="42.3204650" lon="-8.6072550">
        <ele>123.0</ele>
        <time>2021-05-21T07:46:23Z</time>
      </trkpt>
      <trkpt lat="42.3204710" lon="-8.6072670">
        <ele>122.9</ele>
        <time>2021-05-21T07:46:24Z</time>
      </trkpt>
      <trkpt lat="42.3204810" lon="-8.6072780">
        <ele>122.8</ele>
        <time>2021-05-21T07:46:25Z</time>
      </trkpt>
      <trkpt lat="42.3204920" lon="-8.6072990">
        <ele>122.6</ele>
        <time>2021-05-21T07:46:26Z</time>
      </trkpt>
      <trkpt lat="42.3205000" lon="-8.6073050">
        <ele>122.6</ele>
        <time>2021-05-21T07:46:27Z</time>
      </trkpt>
      <trkpt lat="42.3205100" lon="-8.6073180">
        <ele>122.4</ele>
        <time>2021-05-21T07:46:28Z</time>
      </trkpt>
      <trkpt lat="42.3205150" lon="-8.6073190">
        <ele>122.4</ele>
        <time>2021-05-21T07:46:29Z</time>
      </trkpt>
      <trkpt lat="42.3205240" lon="-8.6073290">
        <ele>122.3</ele>
        <time>2021-05-21T07:46:30Z</time>
      </trkpt>
      <trkpt lat="42.3205290" lon="-8.6073300">
        <ele>122.2</ele>
        <time>2021-05-21T07:46:31Z</time>
      </trkpt>
      <trkpt lat="42.3205390" lon="-8.6073390">
        <ele>122.1</ele>
        <time>2021-05-21T07:46:32Z</time>
      </trkpt>
      <trkpt lat="42.3205470" lon="-8.6073540">
        <ele>122.0</ele>
        <time>2021-05-21T07:46:33Z</time>
      </trkpt>
      <trkpt lat="42.3205550" lon="-8.6073590">
        <ele>121.9</ele>
        <time>2021-05-21T07:46:34Z</time>
      </trkpt>
      <trkpt lat="42.3205650" lon="-8.6073740">
        <ele>121.8</ele>
        <time>2021-05-21T07:46:35Z</time>
      </trkpt>
      <trkpt lat="42.3205730" lon="-8.6073780">
        <ele>121.7</ele>
        <time>2021-05-21T07:46:36Z</time>
      </trkpt>
      <trkpt lat="42.3205810" lon="-8.6073870">
        <ele>121.6</ele>
        <time>2021-05-21T07:46:37Z</time>
      </trkpt>
      <trkpt lat="42.3205910" lon="-8.6073980">
        <ele>121.5</ele>
        <time>2021-05-21T07:46:39Z</time>
      </trkpt>
      <trkpt lat="42.3205980" lon="-8.6074080">
        <ele>121.4</ele>
        <time>2021-05-21T07:46:40Z</time>
      </trkpt>
      <trkpt lat="42.3206180" lon="-8.6074270">
        <ele>121.2</ele>
        <time>2021-05-21T07:46:41Z</time>
      </trkpt>
      <trkpt lat="42.3206240" lon="-8.6074320">
        <ele>121.2</ele>
        <time>2021-05-21T07:46:42Z</time>
      </trkpt>
      <trkpt lat="42.3206300" lon="-8.6074370">
        <ele>121.1</ele>
        <time>2021-05-21T07:46:43Z</time>
      </trkpt>
      <trkpt lat="42.3206400" lon="-8.6074450">
        <ele>121.0</ele>
        <time>2021-05-21T07:46:44Z</time>
      </trkpt>
      <trkpt lat="42.3206500" lon="-8.6074530">
        <ele>120.9</ele>
        <time>2021-05-21T07:46:45Z</time>
      </trkpt>
      <trkpt lat="42.3206610" lon="-8.6074570">
        <ele>120.8</ele>
        <time>2021-05-21T07:46:46Z</time>
      </trkpt>
      <trkpt lat="42.3206700" lon="-8.6074590">
        <ele>120.7</ele>
        <time>2021-05-21T07:46:47Z</time>
      </trkpt>
      <trkpt lat="42.3206800" lon="-8.6074700">
        <ele>120.6</ele>
        <time>2021-05-21T07:46:48Z</time>
      </trkpt>
      <trkpt lat="42.3206900" lon="-8.6074790">
        <ele>120.5</ele>
        <time>2021-05-21T07:46:49Z</time>
      </trkpt>
      <trkpt lat="42.3207070" lon="-8.6074920">
        <ele>120.3</ele>
        <time>2021-05-21T07:46:50Z</time>
      </trkpt>
      <trkpt lat="42.3207140" lon="-8.6074990">
        <ele>120.2</ele>
        <time>2021-05-21T07:46:51Z</time>
      </trkpt>
      <trkpt lat="42.3207220" lon="-8.6075070">
        <ele>120.1</ele>
        <time>2021-05-21T07:46:52Z</time>
      </trkpt>
      <trkpt lat="42.3207340" lon="-8.6075100">
        <ele>120.0</ele>
        <time>2021-05-21T07:46:53Z</time>
      </trkpt>
      <trkpt lat="42.3207420" lon="-8.6075120">
        <ele>120.0</ele>
        <time>2021-05-21T07:46:54Z</time>
      </trkpt>
      <trkpt lat="42.3207540" lon="-8.6075220">
        <ele>119.8</ele>
        <time>2021-05-21T07:46:55Z</time>
      </trkpt>
      <trkpt lat="42.3207630" lon="-8.6075190">
        <ele>119.7</ele>
        <time>2021-05-21T07:46:56Z</time>
      </trkpt>
      <trkpt lat="42.3207750" lon="-8.6075240">
        <ele>119.6</ele>
        <time>2021-05-21T07:46:57Z</time>
      </trkpt>
      <trkpt lat="42.3207840" lon="-8.6075250">
        <ele>119.5</ele>
        <time>2021-05-21T07:46:58Z</time>
      </trkpt>
      <trkpt lat="42.3207940" lon="-8.6075250">
        <ele>119.4</ele>
        <time>2021-05-21T07:46:59Z</time>
      </trkpt>
      <trkpt lat="42.3208040" lon="-8.6075300">
        <ele>119.3</ele>
        <time>2021-05-21T07:47:00Z</time>
      </trkpt>
      <trkpt lat="42.3208190" lon="-8.6075370">
        <ele>119.2</ele>
        <time>2021-05-21T07:47:01Z</time>
      </trkpt>
      <trkpt lat="42.3208360" lon="-8.6075390">
        <ele>119.0</ele>
        <time>2021-05-21T07:47:02Z</time>
      </trkpt>
      <trkpt lat="42.3208540" lon="-8.6075410">
        <ele>118.9</ele>
        <time>2021-05-21T07:47:03Z</time>
      </trkpt>
      <trkpt lat="42.3208600" lon="-8.6075390">
        <ele>118.8</ele>
        <time>2021-05-21T07:47:04Z</time>
      </trkpt>
      <trkpt lat="42.3208750" lon="-8.6075390">
        <ele>118.7</ele>
        <time>2021-05-21T07:47:05Z</time>
      </trkpt>
      <trkpt lat="42.3208830" lon="-8.6075430">
        <ele>118.6</ele>
        <time>2021-05-21T07:47:06Z</time>
      </trkpt>
      <trkpt lat="42.3208940" lon="-8.6075470">
        <ele>118.5</ele>
        <time>2021-05-21T07:47:07Z</time>
      </trkpt>
      <trkpt lat="42.3209030" lon="-8.6075550">
        <ele>118.4</ele>
        <time>2021-05-21T07:47:08Z</time>
      </trkpt>
      <trkpt lat="42.3209120" lon="-8.6075570">
        <ele>118.3</ele>
        <time>2021-05-21T07:47:09Z</time>
      </trkpt>
      <trkpt lat="42.3209310" lon="-8.6075600">
        <ele>118.1</ele>
        <time>2021-05-21T07:47:10Z</time>
      </trkpt>
      <trkpt lat="42.3209390" lon="-8.6075720">
        <ele>118.0</ele>
        <time>2021-05-21T07:47:11Z</time>
      </trkpt>
      <trkpt lat="42.3209500" lon="-8.6075720">
        <ele>117.8</ele>
        <time>2021-05-21T07:47:12Z</time>
      </trkpt>
      <trkpt lat="42.3209610" lon="-8.6075770">
        <ele>117.7</ele>
        <time>2021-05-21T07:47:13Z</time>
      </trkpt>
      <trkpt lat="42.3209680" lon="-8.6075860">
        <ele>117.6</ele>
        <time>2021-05-21T07:47:14Z</time>
      </trkpt>
      <trkpt lat="42.3209780" lon="-8.6075800">
        <ele>117.5</ele>
        <time>2021-05-21T07:47:15Z</time>
      </trkpt>
      <trkpt lat="42.3209940" lon="-8.6075840">
        <ele>117.3</ele>
        <time>2021-05-21T07:47:16Z</time>
      </trkpt>
      <trkpt lat="42.3209990" lon="-8.6075760">
        <ele>117.2</ele>
        <time>2021-05-21T07:47:17Z</time>
      </trkpt>
      <trkpt lat="42.3210200" lon="-8.6075860">
        <ele>117.0</ele>
        <time>2021-05-21T07:47:18Z</time>
      </trkpt>
      <trkpt lat="42.3210290" lon="-8.6075860">
        <ele>116.9</ele>
        <time>2021-05-21T07:47:19Z</time>
      </trkpt>
      <trkpt lat="42.3210390" lon="-8.6075870">
        <ele>116.8</ele>
        <time>2021-05-21T07:47:20Z</time>
      </trkpt>
      <trkpt lat="42.3210600" lon="-8.6075900">
        <ele>116.5</ele>
        <time>2021-05-21T07:47:21Z</time>
      </trkpt>
      <trkpt lat="42.3210740" lon="-8.6075960">
        <ele>116.4</ele>
        <time>2021-05-21T07:47:22Z</time>
      </trkpt>
      <trkpt lat="42.3210880" lon="-8.6075920">
        <ele>116.2</ele>
        <time>2021-05-21T07:47:23Z</time>
      </trkpt>
      <trkpt lat="42.3211030" lon="-8.6075880">
        <ele>116.1</ele>
        <time>2021-05-21T07:47:24Z</time>
      </trkpt>
      <trkpt lat="42.3211270" lon="-8.6075900">
        <ele>115.8</ele>
        <time>2021-05-21T07:47:25Z</time>
      </trkpt>
      <trkpt lat="42.3211340" lon="-8.6075890">
        <ele>115.7</ele>
        <time>2021-05-21T07:47:26Z</time>
      </trkpt>
      <trkpt lat="42.3211420" lon="-8.6075870">
        <ele>115.6</ele>
        <time>2021-05-21T07:47:27Z</time>
      </trkpt>
      <trkpt lat="42.3211500" lon="-8.6075820">
        <ele>115.5</ele>
        <time>2021-05-21T07:47:28Z</time>
      </trkpt>
      <trkpt lat="42.3211640" lon="-8.6075820">
        <ele>115.4</ele>
        <time>2021-05-21T07:47:29Z</time>
      </trkpt>
      <trkpt lat="42.3211780" lon="-8.6075780">
        <ele>115.2</ele>
        <time>2021-05-21T07:47:30Z</time>
      </trkpt>
      <trkpt lat="42.3211950" lon="-8.6075740">
        <ele>115.1</ele>
        <time>2021-05-21T07:47:31Z</time>
      </trkpt>
      <trkpt lat="42.3212080" lon="-8.6075740">
        <ele>114.9</ele>
        <time>2021-05-21T07:47:32Z</time>
      </trkpt>
      <trkpt lat="42.3212210" lon="-8.6075700">
        <ele>114.8</ele>
        <time>2021-05-21T07:47:33Z</time>
      </trkpt>
      <trkpt lat="42.3212310" lon="-8.6075720">
        <ele>114.7</ele>
        <time>2021-05-21T07:47:34Z</time>
      </trkpt>
      <trkpt lat="42.3212410" lon="-8.6075790">
        <ele>114.6</ele>
        <time>2021-05-21T07:47:35Z</time>
      </trkpt>
      <trkpt lat="42.3212470" lon="-8.6075800">
        <ele>114.5</ele>
        <time>2021-05-21T07:47:36Z</time>
      </trkpt>
      <trkpt lat="42.3212590" lon="-8.6075790">
        <ele>114.4</ele>
        <time>2021-05-21T07:47:37Z</time>
      </trkpt>
      <trkpt lat="42.3212720" lon="-8.6075730">
        <ele>114.3</ele>
        <time>2021-05-21T07:47:38Z</time>
      </trkpt>
      <trkpt lat="42.3212990" lon="-8.6075630">
        <ele>114.0</ele>
        <time>2021-05-21T07:47:39Z</time>
      </trkpt>
      <trkpt lat="42.3213070" lon="-8.6075570">
        <ele>113.9</ele>
        <time>2021-05-21T07:47:40Z</time>
      </trkpt>
      <trkpt lat="42.3213110" lon="-8.6075590">
        <ele>113.9</ele>
        <time>2021-05-21T07:47:41Z</time>
      </trkpt>
      <trkpt lat="42.3213250" lon="-8.6075500">
        <ele>113.7</ele>
        <time>2021-05-21T07:47:42Z</time>
      </trkpt>
      <trkpt lat="42.3213420" lon="-8.6075480">
        <ele>113.6</ele>
        <time>2021-05-21T07:47:43Z</time>
      </trkpt>
      <trkpt lat="42.3213530" lon="-8.6075410">
        <ele>113.4</ele>
        <time>2021-05-21T07:47:44Z</time>
      </trkpt>
      <trkpt lat="42.3213660" lon="-8.6075360">
        <ele>113.3</ele>
        <time>2021-05-21T07:47:45Z</time>
      </trkpt>
      <trkpt lat="42.3213760" lon="-8.6075340">
        <ele>113.2</ele>
        <time>2021-05-21T07:47:46Z</time>
      </trkpt>
      <trkpt lat="42.3213840" lon="-8.6075250">
        <ele>113.1</ele>
        <time>2021-05-21T07:47:47Z</time>
      </trkpt>
      <trkpt lat="42.3214000" lon="-8.6075150">
        <ele>112.9</ele>
        <time>2021-05-21T07:47:48Z</time>
      </trkpt>
      <trkpt lat="42.3214250" lon="-8.6075050">
        <ele>112.7</ele>
        <time>2021-05-21T07:47:49Z</time>
      </trkpt>
      <trkpt lat="42.3214360" lon="-8.6075040">
        <ele>112.6</ele>
        <time>2021-05-21T07:47:50Z</time>
      </trkpt>
      <trkpt lat="42.3214460" lon="-8.6075020">
        <ele>112.5</ele>
        <time>2021-05-21T07:47:51Z</time>
      </trkpt>
      <trkpt lat="42.3214610" lon="-8.6074980">
        <ele>112.3</ele>
        <time>2021-05-21T07:47:52Z</time>
      </trkpt>
      <trkpt lat="42.3214770" lon="-8.6074890">
        <ele>112.2</ele>
        <time>2021-05-21T07:47:53Z</time>
      </trkpt>
      <trkpt lat="42.3214890" lon="-8.6074840">
        <ele>112.0</ele>
        <time>2021-05-21T07:47:54Z</time>
      </trkpt>
      <trkpt lat="42.3215050" lon="-8.6074800">
        <ele>111.9</ele>
        <time>2021-05-21T07:47:55Z</time>
      </trkpt>
      <trkpt lat="42.3215260" lon="-8.6074720">
        <ele>111.6</ele>
        <time>2021-05-21T07:47:56Z</time>
      </trkpt>
      <trkpt lat="42.3215330" lon="-8.6074680">
        <ele>111.6</ele>
        <time>2021-05-21T07:47:57Z</time>
      </trkpt>
      <trkpt lat="42.3215400" lon="-8.6074640">
        <ele>111.5</ele>
        <time>2021-05-21T07:47:58Z</time>
      </trkpt>
      <trkpt lat="42.3215530" lon="-8.6074610">
        <ele>111.3</ele>
        <time>2021-05-21T07:47:59Z</time>
      </trkpt>
      <trkpt lat="42.3215670" lon="-8.6074580">
        <ele>111.2</ele>
        <time>2021-05-21T07:48:00Z</time>
      </trkpt>
      <trkpt lat="42.3215760" lon="-8.6074550">
        <ele>111.1</ele>
        <time>2021-05-21T07:48:01Z</time>
      </trkpt>
      <trkpt lat="42.3215930" lon="-8.6074500">
        <ele>110.9</ele>
        <time>2021-05-21T07:48:02Z</time>
      </trkpt>
      <trkpt lat="42.3216080" lon="-8.6074460">
        <ele>110.7</ele>
        <time>2021-05-21T07:48:03Z</time>
      </trkpt>
      <trkpt lat="42.3216250" lon="-8.6074500">
        <ele>110.5</ele>
        <time>2021-05-21T07:48:04Z</time>
      </trkpt>
      <trkpt lat="42.3216410" lon="-8.6074440">
        <ele>110.3</ele>
        <time>2021-05-21T07:48:05Z</time>
      </trkpt>
      <trkpt lat="42.3216610" lon="-8.6074380">
        <ele>110.0</ele>
        <time>2021-05-21T07:48:06Z</time>
      </trkpt>
      <trkpt lat="42.3216690" lon="-8.6074350">
        <ele>109.9</ele>
        <time>2021-05-21T07:48:07Z</time>
      </trkpt>
      <trkpt lat="42.3216780" lon="-8.6074320">
        <ele>109.8</ele>
        <time>2021-05-21T07:48:08Z</time>
      </trkpt>
      <trkpt lat="42.3216980" lon="-8.6074260">
        <ele>109.6</ele>
        <time>2021-05-21T07:48:09Z</time>
      </trkpt>
      <trkpt lat="42.3217070" lon="-8.6074210">
        <ele>109.5</ele>
        <time>2021-05-21T07:48:10Z</time>
      </trkpt>
      <trkpt lat="42.3217150" lon="-8.6074170">
        <ele>109.4</ele>
        <time>2021-05-21T07:48:11Z</time>
      </trkpt>
      <trkpt lat="42.3217320" lon="-8.6074190">
        <ele>109.2</ele>
        <time>2021-05-21T07:48:12Z</time>
      </trkpt>
      <trkpt lat="42.3217460" lon="-8.6074100">
        <ele>109.0</ele>
        <time>2021-05-21T07:48:13Z</time>
      </trkpt>
      <trkpt lat="42.3217570" lon="-8.6074140">
        <ele>108.8</ele>
        <time>2021-05-21T07:48:14Z</time>
      </trkpt>
      <trkpt lat="42.3217640" lon="-8.6074050">
        <ele>108.7</ele>
        <time>2021-05-21T07:48:15Z</time>
      </trkpt>
      <trkpt lat="42.3217770" lon="-8.6074030">
        <ele>108.6</ele>
        <time>2021-05-21T07:48:16Z</time>
      </trkpt>
      <trkpt lat="42.3217980" lon="-8.6074040">
        <ele>108.3</ele>
        <time>2021-05-21T07:48:17Z</time>
      </trkpt>
      <trkpt lat="42.3218130" lon="-8.6074020">
        <ele>108.2</ele>
        <time>2021-05-21T07:48:18Z</time>
      </trkpt>
      <trkpt lat="42.3218260" lon="-8.6073980">
        <ele>108.0</ele>
        <time>2021-05-21T07:48:19Z</time>
      </trkpt>
      <trkpt lat="42.3218330" lon="-8.6073900">
        <ele>107.9</ele>
        <time>2021-05-21T07:48:20Z</time>
      </trkpt>
      <trkpt lat="42.3218440" lon="-8.6073910">
        <ele>107.8</ele>
        <time>2021-05-21T07:48:21Z</time>
      </trkpt>
      <trkpt lat="42.3218660" lon="-8.6073850">
        <ele>107.5</ele>
        <time>2021-05-21T07:48:22Z</time>
      </trkpt>
      <trkpt lat="42.3218740" lon="-8.6073850">
        <ele>107.4</ele>
        <time>2021-05-21T07:48:23Z</time>
      </trkpt>
      <trkpt lat="42.3218810" lon="-8.6073840">
        <ele>107.4</ele>
        <time>2021-05-21T07:48:24Z</time>
      </trkpt>
      <trkpt lat="42.3219000" lon="-8.6073760">
        <ele>107.2</ele>
        <time>2021-05-21T07:48:25Z</time>
      </trkpt>
      <trkpt lat="42.3219080" lon="-8.6073720">
        <ele>107.1</ele>
        <time>2021-05-21T07:48:26Z</time>
      </trkpt>
      <trkpt lat="42.3219170" lon="-8.6073680">
        <ele>107.0</ele>
        <time>2021-05-21T07:48:27Z</time>
      </trkpt>
      <trkpt lat="42.3219260" lon="-8.6073670">
        <ele>106.9</ele>
        <time>2021-05-21T07:48:28Z</time>
      </trkpt>
      <trkpt lat="42.3219420" lon="-8.6073590">
        <ele>106.7</ele>
        <time>2021-05-21T07:48:29Z</time>
      </trkpt>
      <trkpt lat="42.3219500" lon="-8.6073580">
        <ele>106.6</ele>
        <time>2021-05-21T07:48:30Z</time>
      </trkpt>
      <trkpt lat="42.3219730" lon="-8.6073460">
        <ele>106.4</ele>
        <time>2021-05-21T07:48:31Z</time>
      </trkpt>
      <trkpt lat="42.3219820" lon="-8.6073420">
        <ele>106.3</ele>
        <time>2021-05-21T07:48:32Z</time>
      </trkpt>
      <trkpt lat="42.3219920" lon="-8.6073380">
        <ele>106.2</ele>
        <time>2021-05-21T07:48:33Z</time>
      </trkpt>
      <trkpt lat="42.3220020" lon="-8.6073300">
        <ele>106.1</ele>
        <time>2021-05-21T07:48:34Z</time>
      </trkpt>
      <trkpt lat="42.3220120" lon="-8.6073300">
        <ele>106.0</ele>
        <time>2021-05-21T07:48:35Z</time>
      </trkpt>
      <trkpt lat="42.3220190" lon="-8.6073220">
        <ele>105.9</ele>
        <time>2021-05-21T07:48:36Z</time>
      </trkpt>
      <trkpt lat="42.3220220" lon="-8.6073220">
        <ele>105.8</ele>
        <time>2021-05-21T07:48:37Z</time>
      </trkpt>
      <trkpt lat="42.3220350" lon="-8.6073130">
        <ele>105.7</ele>
        <time>2021-05-21T07:48:38Z</time>
      </trkpt>
      <trkpt lat="42.3220510" lon="-8.6073070">
        <ele>105.6</ele>
        <time>2021-05-21T07:48:39Z</time>
      </trkpt>
      <trkpt lat="42.3220540" lon="-8.6073090">
        <ele>105.5</ele>
        <time>2021-05-21T07:48:40Z</time>
      </trkpt>
      <trkpt lat="42.3220630" lon="-8.6072990">
        <ele>105.4</ele>
        <time>2021-05-21T07:48:41Z</time>
      </trkpt>
      <trkpt lat="42.3220730" lon="-8.6073000">
        <ele>105.3</ele>
        <time>2021-05-21T07:48:42Z</time>
      </trkpt>
      <trkpt lat="42.3220840" lon="-8.6072940">
        <ele>105.2</ele>
        <time>2021-05-21T07:48:43Z</time>
      </trkpt>
      <trkpt lat="42.3220950" lon="-8.6072870">
        <ele>105.1</ele>
        <time>2021-05-21T07:48:44Z</time>
      </trkpt>
      <trkpt lat="42.3220990" lon="-8.6072900">
        <ele>105.1</ele>
        <time>2021-05-21T07:48:45Z</time>
      </trkpt>
      <trkpt lat="42.3221150" lon="-8.6072810">
        <ele>104.9</ele>
        <time>2021-05-21T07:48:46Z</time>
      </trkpt>
      <trkpt lat="42.3221360" lon="-8.6072790">
        <ele>104.8</ele>
        <time>2021-05-21T07:48:47Z</time>
      </trkpt>
      <trkpt lat="42.3221470" lon="-8.6072760">
        <ele>104.7</ele>
        <time>2021-05-21T07:48:48Z</time>
      </trkpt>
      <trkpt lat="42.3221590" lon="-8.6072770">
        <ele>104.6</ele>
        <time>2021-05-21T07:48:49Z</time>
      </trkpt>
      <trkpt lat="42.3221660" lon="-8.6072720">
        <ele>104.5</ele>
        <time>2021-05-21T07:48:50Z</time>
      </trkpt>
      <trkpt lat="42.3221730" lon="-8.6072640">
        <ele>104.4</ele>
        <time>2021-05-21T07:48:51Z</time>
      </trkpt>
      <trkpt lat="42.3221930" lon="-8.6072610">
        <ele>104.3</ele>
        <time>2021-05-21T07:48:52Z</time>
      </trkpt>
      <trkpt lat="42.3222020" lon="-8.6072580">
        <ele>104.2</ele>
        <time>2021-05-21T07:48:53Z</time>
      </trkpt>
      <trkpt lat="42.3222110" lon="-8.6072560">
        <ele>104.1</ele>
        <time>2021-05-21T07:48:54Z</time>
      </trkpt>
      <trkpt lat="42.3222190" lon="-8.6072570">
        <ele>104.1</ele>
        <time>2021-05-21T07:48:55Z</time>
      </trkpt>
      <trkpt lat="42.3222420" lon="-8.6072510">
        <ele>103.9</ele>
        <time>2021-05-21T07:48:56Z</time>
      </trkpt>
      <trkpt lat="42.3222510" lon="-8.6072500">
        <ele>103.8</ele>
        <time>2021-05-21T07:48:57Z</time>
      </trkpt>
      <trkpt lat="42.3222700" lon="-8.6072500">
        <ele>103.7</ele>
        <time>2021-05-21T07:48:58Z</time>
      </trkpt>
      <trkpt lat="42.3222840" lon="-8.6072490">
        <ele>103.6</ele>
        <time>2021-05-21T07:48:59Z</time>
      </trkpt>
      <trkpt lat="42.3222990" lon="-8.6072550">
        <ele>103.4</ele>
        <time>2021-05-21T07:49:00Z</time>
      </trkpt>
      <trkpt lat="42.3223260" lon="-8.6072490">
        <ele>103.2</ele>
        <time>2021-05-21T07:49:01Z</time>
      </trkpt>
      <trkpt lat="42.3223360" lon="-8.6072490">
        <ele>103.1</ele>
        <time>2021-05-21T07:49:02Z</time>
      </trkpt>
      <trkpt lat="42.3223450" lon="-8.6072490">
        <ele>103.0</ele>
        <time>2021-05-21T07:49:03Z</time>
      </trkpt>
      <trkpt lat="42.3223560" lon="-8.6072480">
        <ele>103.0</ele>
        <time>2021-05-21T07:49:04Z</time>
      </trkpt>
      <trkpt lat="42.3223700" lon="-8.6072440">
        <ele>102.8</ele>
        <time>2021-05-21T07:49:05Z</time>
      </trkpt>
      <trkpt lat="42.3223880" lon="-8.6072460">
        <ele>102.7</ele>
        <time>2021-05-21T07:49:06Z</time>
      </trkpt>
      <trkpt lat="42.3223980" lon="-8.6072440">
        <ele>102.6</ele>
        <time>2021-05-21T07:49:07Z</time>
      </trkpt>
      <trkpt lat="42.3224080" lon="-8.6072420">
        <ele>102.5</ele>
        <time>2021-05-21T07:49:08Z</time>
      </trkpt>
      <trkpt lat="42.3224230" lon="-8.6072360">
        <ele>102.3</ele>
        <time>2021-05-21T07:49:09Z</time>
      </trkpt>
      <trkpt lat="42.3224360" lon="-8.6072380">
        <ele>102.2</ele>
        <time>2021-05-21T07:49:10Z</time>
      </trkpt>
      <trkpt lat="42.3224540" lon="-8.6072330">
        <ele>102.0</ele>
        <time>2021-05-21T07:49:11Z</time>
      </trkpt>
      <trkpt lat="42.3224670" lon="-8.6072240">
        <ele>101.8</ele>
        <time>2021-05-21T07:49:12Z</time>
      </trkpt>
      <trkpt lat="42.3224780" lon="-8.6072280">
        <ele>101.7</ele>
        <time>2021-05-21T07:49:13Z</time>
      </trkpt>
      <trkpt lat="42.3224880" lon="-8.6072270">
        <ele>101.6</ele>
        <time>2021-05-21T07:49:14Z</time>
      </trkpt>
      <trkpt lat="42.3225000" lon="-8.6072190">
        <ele>101.4</ele>
        <time>2021-05-21T07:49:15Z</time>
      </trkpt>
      <trkpt lat="42.3225070" lon="-8.6072130">
        <ele>101.3</ele>
        <time>2021-05-21T07:49:16Z</time>
      </trkpt>
      <trkpt lat="42.3225190" lon="-8.6072090">
        <ele>101.2</ele>
        <time>2021-05-21T07:49:17Z</time>
      </trkpt>
      <trkpt lat="42.3225310" lon="-8.6072050">
        <ele>101.0</ele>
        <time>2021-05-21T07:49:18Z</time>
      </trkpt>
      <trkpt lat="42.3225420" lon="-8.6072030">
        <ele>100.9</ele>
        <time>2021-05-21T07:49:19Z</time>
      </trkpt>
      <trkpt lat="42.3225600" lon="-8.6072040">
        <ele>100.6</ele>
        <time>2021-05-21T07:49:20Z</time>
      </trkpt>
      <trkpt lat="42.3225720" lon="-8.6072140">
        <ele>100.5</ele>
        <time>2021-05-21T07:49:21Z</time>
      </trkpt>
      <trkpt lat="42.3225890" lon="-8.6072070">
        <ele>100.2</ele>
        <time>2021-05-21T07:49:22Z</time>
      </trkpt>
      <trkpt lat="42.3226020" lon="-8.6072080">
        <ele>100.1</ele>
        <time>2021-05-21T07:49:23Z</time>
      </trkpt>
      <trkpt lat="42.3226180" lon="-8.6072120">
        <ele>99.8</ele>
        <time>2021-05-21T07:49:24Z</time>
      </trkpt>
      <trkpt lat="42.3226250" lon="-8.6072160">
        <ele>99.7</ele>
        <time>2021-05-21T07:49:25Z</time>
      </trkpt>
      <trkpt lat="42.3226480" lon="-8.6072140">
        <ele>99.4</ele>
        <time>2021-05-21T07:49:26Z</time>
      </trkpt>
      <trkpt lat="42.3226540" lon="-8.6072170">
        <ele>99.3</ele>
        <time>2021-05-21T07:49:27Z</time>
      </trkpt>
      <trkpt lat="42.3226640" lon="-8.6072160">
        <ele>99.2</ele>
        <time>2021-05-21T07:49:28Z</time>
      </trkpt>
      <trkpt lat="42.3226770" lon="-8.6072090">
        <ele>99.0</ele>
        <time>2021-05-21T07:49:29Z</time>
      </trkpt>
      <trkpt lat="42.3226910" lon="-8.6072150">
        <ele>98.8</ele>
        <time>2021-05-21T07:49:30Z</time>
      </trkpt>
      <trkpt lat="42.3227030" lon="-8.6072120">
        <ele>98.6</ele>
        <time>2021-05-21T07:49:31Z</time>
      </trkpt>
      <trkpt lat="42.3227080" lon="-8.6072220">
        <ele>98.5</ele>
        <time>2021-05-21T07:49:32Z</time>
      </trkpt>
      <trkpt lat="42.3227270" lon="-8.6072210">
        <ele>98.2</ele>
        <time>2021-05-21T07:49:33Z</time>
      </trkpt>
      <trkpt lat="42.3227390" lon="-8.6072160">
        <ele>98.1</ele>
        <time>2021-05-21T07:49:34Z</time>
      </trkpt>
      <trkpt lat="42.3227430" lon="-8.6072120">
        <ele>98.0</ele>
        <time>2021-05-21T07:49:35Z</time>
      </trkpt>
      <trkpt lat="42.3227570" lon="-8.6072130">
        <ele>97.8</ele>
        <time>2021-05-21T07:49:36Z</time>
      </trkpt>
      <trkpt lat="42.3227700" lon="-8.6072120">
        <ele>97.6</ele>
        <time>2021-05-21T07:49:37Z</time>
      </trkpt>
      <trkpt lat="42.3227990" lon="-8.6072150">
        <ele>97.2</ele>
        <time>2021-05-21T07:49:38Z</time>
      </trkpt>
      <trkpt lat="42.3228060" lon="-8.6072140">
        <ele>97.1</ele>
        <time>2021-05-21T07:49:39Z</time>
      </trkpt>
      <trkpt lat="42.3228180" lon="-8.6072060">
        <ele>96.9</ele>
        <time>2021-05-21T07:49:40Z</time>
      </trkpt>
      <trkpt lat="42.3228280" lon="-8.6072050">
        <ele>96.7</ele>
        <time>2021-05-21T07:49:41Z</time>
      </trkpt>
      <trkpt lat="42.3228380" lon="-8.6072000">
        <ele>96.5</ele>
        <time>2021-05-21T07:49:42Z</time>
      </trkpt>
      <trkpt lat="42.3228680" lon="-8.6071930">
        <ele>96.1</ele>
        <time>2021-05-21T07:49:43Z</time>
      </trkpt>
      <trkpt lat="42.3228780" lon="-8.6071910">
        <ele>95.9</ele>
        <time>2021-05-21T07:49:44Z</time>
      </trkpt>
      <trkpt lat="42.3228850" lon="-8.6072010">
        <ele>95.7</ele>
        <time>2021-05-21T07:49:45Z</time>
      </trkpt>
      <trkpt lat="42.3228920" lon="-8.6072030">
        <ele>95.6</ele>
        <time>2021-05-21T07:49:46Z</time>
      </trkpt>
      <trkpt lat="42.3229040" lon="-8.6072050">
        <ele>95.4</ele>
        <time>2021-05-21T07:49:47Z</time>
      </trkpt>
      <trkpt lat="42.3229240" lon="-8.6072010">
        <ele>95.0</ele>
        <time>2021-05-21T07:49:48Z</time>
      </trkpt>
      <trkpt lat="42.3229330" lon="-8.6072040">
        <ele>94.9</ele>
        <time>2021-05-21T07:49:49Z</time>
      </trkpt>
      <trkpt lat="42.3229420" lon="-8.6072060">
        <ele>94.7</ele>
        <time>2021-05-21T07:49:50Z</time>
      </trkpt>
      <trkpt lat="42.3229520" lon="-8.6071980">
        <ele>94.5</ele>
        <time>2021-05-21T07:49:51Z</time>
      </trkpt>
      <trkpt lat="42.3229590" lon="-8.6072010">
        <ele>94.4</ele>
        <time>2021-05-21T07:49:52Z</time>
      </trkpt>
      <trkpt lat="42.3229760" lon="-8.6072010">
        <ele>94.1</ele>
        <time>2021-05-21T07:49:53Z</time>
      </trkpt>
      <trkpt lat="42.3229970" lon="-8.6072030">
        <ele>93.7</ele>
        <time>2021-05-21T07:49:54Z</time>
      </trkpt>
      <trkpt lat="42.3230040" lon="-8.6072040">
        <ele>93.5</ele>
        <time>2021-05-21T07:49:55Z</time>
      </trkpt>
      <trkpt lat="42.3230120" lon="-8.6072050">
        <ele>93.4</ele>
        <time>2021-05-21T07:49:56Z</time>
      </trkpt>
      <trkpt lat="42.3230270" lon="-8.6072040">
        <ele>93.1</ele>
        <time>2021-05-21T07:49:57Z</time>
      </trkpt>
      <trkpt lat="42.3230400" lon="-8.6071990">
        <ele>92.8</ele>
        <time>2021-05-21T07:49:58Z</time>
      </trkpt>
      <trkpt lat="42.3230530" lon="-8.6071980">
        <ele>92.6</ele>
        <time>2021-05-21T07:49:59Z</time>
      </trkpt>
      <trkpt lat="42.3230630" lon="-8.6072040">
        <ele>92.4</ele>
        <time>2021-05-21T07:50:00Z</time>
      </trkpt>
      <trkpt lat="42.3230760" lon="-8.6072050">
        <ele>92.1</ele>
        <time>2021-05-21T07:50:01Z</time>
      </trkpt>
      <trkpt lat="42.3230860" lon="-8.6072070">
        <ele>91.9</ele>
        <time>2021-05-21T07:50:02Z</time>
      </trkpt>
      <trkpt lat="42.3230970" lon="-8.6071970">
        <ele>91.6</ele>
        <time>2021-05-21T07:50:03Z</time>
      </trkpt>
      <trkpt lat="42.3231040" lon="-8.6072040">
        <ele>91.5</ele>
        <time>2021-05-21T07:50:04Z</time>
      </trkpt>
      <trkpt lat="42.3231140" lon="-8.6072030">
        <ele>91.3</ele>
        <time>2021-05-21T07:50:05Z</time>
      </trkpt>
      <trkpt lat="42.3231240" lon="-8.6072120">
        <ele>91.0</ele>
        <time>2021-05-21T07:50:06Z</time>
      </trkpt>
      <trkpt lat="42.3231390" lon="-8.6072100">
        <ele>90.7</ele>
        <time>2021-05-21T07:50:07Z</time>
      </trkpt>
      <trkpt lat="42.3231520" lon="-8.6072090">
        <ele>90.5</ele>
        <time>2021-05-21T07:50:08Z</time>
      </trkpt>
      <trkpt lat="42.3231600" lon="-8.6072110">
        <ele>90.3</ele>
        <time>2021-05-21T07:50:09Z</time>
      </trkpt>
      <trkpt lat="42.3231690" lon="-8.6072090">
        <ele>90.1</ele>
        <time>2021-05-21T07:50:10Z</time>
      </trkpt>
      <trkpt lat="42.3231760" lon="-8.6072110">
        <ele>90.0</ele>
        <time>2021-05-21T07:50:11Z</time>
      </trkpt>
      <trkpt lat="42.3231900" lon="-8.6072120">
        <ele>89.7</ele>
        <time>2021-05-21T07:50:12Z</time>
      </trkpt>
      <trkpt lat="42.3232000" lon="-8.6072150">
        <ele>89.5</ele>
        <time>2021-05-21T07:50:13Z</time>
      </trkpt>
      <trkpt lat="42.3232100" lon="-8.6072140">
        <ele>89.3</ele>
        <time>2021-05-21T07:50:14Z</time>
      </trkpt>
      <trkpt lat="42.3232160" lon="-8.6072100">
        <ele>89.2</ele>
        <time>2021-05-21T07:50:15Z</time>
      </trkpt>
      <trkpt lat="42.3232310" lon="-8.6072060">
        <ele>88.9</ele>
        <time>2021-05-21T07:50:16Z</time>
      </trkpt>
      <trkpt lat="42.3232390" lon="-8.6072070">
        <ele>88.8</ele>
        <time>2021-05-21T07:50:17Z</time>
      </trkpt>
      <trkpt lat="42.3232530" lon="-8.6072120">
        <ele>88.5</ele>
        <time>2021-05-21T07:50:18Z</time>
      </trkpt>
      <trkpt lat="42.3232660" lon="-8.6072090">
        <ele>88.3</ele>
        <time>2021-05-21T07:50:19Z</time>
      </trkpt>
      <trkpt lat="42.3232800" lon="-8.6072140">
        <ele>88.1</ele>
        <time>2021-05-21T07:50:20Z</time>
      </trkpt>
      <trkpt lat="42.3232910" lon="-8.6072160">
        <ele>87.9</ele>
        <time>2021-05-21T07:50:21Z</time>
      </trkpt>
      <trkpt lat="42.3233000" lon="-8.6072160">
        <ele>87.7</ele>
        <time>2021-05-21T07:50:22Z</time>
      </trkpt>
      <trkpt lat="42.3233110" lon="-8.6072130">
        <ele>87.6</ele>
        <time>2021-05-21T07:50:23Z</time>
      </trkpt>
      <trkpt lat="42.3233290" lon="-8.6072200">
        <ele>87.3</ele>
        <time>2021-05-21T07:50:24Z</time>
      </trkpt>
      <trkpt lat="42.3233440" lon="-8.6072350">
        <ele>87.0</ele>
        <time>2021-05-21T07:50:25Z</time>
      </trkpt>
      <trkpt lat="42.3233560" lon="-8.6072300">
        <ele>86.8</ele>
        <time>2021-05-21T07:50:26Z</time>
      </trkpt>
      <trkpt lat="42.3233610" lon="-8.6072320">
        <ele>86.7</ele>
        <time>2021-05-21T07:50:27Z</time>
      </trkpt>
      <trkpt lat="42.3233680" lon="-8.6072340">
        <ele>86.6</ele>
        <time>2021-05-21T07:50:28Z</time>
      </trkpt>
      <trkpt lat="42.3233670" lon="-8.6072360">
        <ele>86.6</ele>
        <time>2021-05-21T07:50:29Z</time>
      </trkpt>
      <trkpt lat="42.3233690" lon="-8.6072410">
        <ele>86.5</ele>
        <time>2021-05-21T07:50:30Z</time>
      </trkpt>
      <trkpt lat="42.3233680" lon="-8.6072450">
        <ele>86.5</ele>
        <time>2021-05-21T07:50:31Z</time>
      </trkpt>
      <trkpt lat="42.3233680" lon="-8.6072600">
        <ele>86.4</ele>
        <time>2021-05-21T07:50:32Z</time>
      </trkpt>
      <trkpt lat="42.3233700" lon="-8.6072640">
        <ele>86.4</ele>
        <time>2021-05-21T07:50:33Z</time>
      </trkpt>
      <trkpt lat="42.3233710" lon="-8.6072670">
        <ele>86.4</ele>
        <time>2021-05-21T07:50:34Z</time>
      </trkpt>
      <trkpt lat="42.3233740" lon="-8.6072690">
        <ele>86.3</ele>
        <time>2021-05-21T07:50:35Z</time>
      </trkpt>
      <trkpt lat="42.3233760" lon="-8.6072710">
        <ele>86.3</ele>
        <time>2021-05-21T07:50:36Z</time>
      </trkpt>
      <trkpt lat="42.3233910" lon="-8.6072790">
        <ele>86.3</ele>
        <time>2021-05-21T07:50:37Z</time>
      </trkpt>
      <trkpt lat="42.3234030" lon="-8.6072730">
        <ele>86.2</ele>
        <time>2021-05-21T07:50:38Z</time>
      </trkpt>
      <trkpt lat="42.3234150" lon="-8.6072750">
        <ele>86.1</ele>
        <time>2021-05-21T07:50:39Z</time>
      </trkpt>
      <trkpt lat="42.3234270" lon="-8.6072730">
        <ele>86.1</ele>
        <time>2021-05-21T07:50:40Z</time>
      </trkpt>
      <trkpt lat="42.3234390" lon="-8.6072680">
        <ele>86.0</ele>
        <time>2021-05-21T07:50:41Z</time>
      </trkpt>
      <trkpt lat="42.3234600" lon="-8.6072770">
        <ele>85.9</ele>
        <time>2021-05-21T07:50:42Z</time>
      </trkpt>
      <trkpt lat="42.3234690" lon="-8.6072800">
        <ele>85.9</ele>
        <time>2021-05-21T07:50:43Z</time>
      </trkpt>
      <trkpt lat="42.3234770" lon="-8.6072840">
        <ele>85.8</ele>
        <time>2021-05-21T07:50:44Z</time>
      </trkpt>
      <trkpt lat="42.3234850" lon="-8.6072760">
        <ele>85.8</ele>
        <time>2021-05-21T07:50:45Z</time>
      </trkpt>
      <trkpt lat="42.3234970" lon="-8.6072720">
        <ele>85.8</ele>
        <time>2021-05-21T07:50:46Z</time>
      </trkpt>
      <trkpt lat="42.3235090" lon="-8.6072700">
        <ele>85.7</ele>
        <time>2021-05-21T07:50:47Z</time>
      </trkpt>
      <trkpt lat="42.3235230" lon="-8.6072630">
        <ele>85.7</ele>
        <time>2021-05-21T07:50:48Z</time>
      </trkpt>
      <trkpt lat="42.3235320" lon="-8.6072620">
        <ele>85.6</ele>
        <time>2021-05-21T07:50:49Z</time>
      </trkpt>
      <trkpt lat="42.3235430" lon="-8.6072640">
        <ele>85.6</ele>
        <time>2021-05-21T07:50:50Z</time>
      </trkpt>
      <trkpt lat="42.3235590" lon="-8.6072660">
        <ele>85.5</ele>
        <time>2021-05-21T07:50:51Z</time>
      </trkpt>
      <trkpt lat="42.3235680" lon="-8.6072670">
        <ele>85.5</ele>
        <time>2021-05-21T07:50:52Z</time>
      </trkpt>
      <trkpt lat="42.3235770" lon="-8.6072630">
        <ele>85.5</ele>
        <time>2021-05-21T07:50:53Z</time>
      </trkpt>
      <trkpt lat="42.3235900" lon="-8.6072630">
        <ele>85.4</ele>
        <time>2021-05-21T07:50:54Z</time>
      </trkpt>
      <trkpt lat="42.3236050" lon="-8.6072600">
        <ele>85.4</ele>
        <time>2021-05-21T07:50:55Z</time>
      </trkpt>
      <trkpt lat="42.3236180" lon="-8.6072570">
        <ele>85.4</ele>
        <time>2021-05-21T07:50:56Z</time>
      </trkpt>
      <trkpt lat="42.3236270" lon="-8.6072460">
        <ele>85.3</ele>
        <time>2021-05-21T07:50:57Z</time>
      </trkpt>
      <trkpt lat="42.3236370" lon="-8.6072480">
        <ele>85.3</ele>
        <time>2021-05-21T07:50:58Z</time>
      </trkpt>
      <trkpt lat="42.3236550" lon="-8.6072450">
        <ele>85.2</ele>
        <time>2021-05-21T07:50:59Z</time>
      </trkpt>
      <trkpt lat="42.3236660" lon="-8.6072400">
        <ele>85.2</ele>
        <time>2021-05-21T07:51:00Z</time>
      </trkpt>
      <trkpt lat="42.3236760" lon="-8.6072360">
        <ele>85.2</ele>
        <time>2021-05-21T07:51:01Z</time>
      </trkpt>
      <trkpt lat="42.3236930" lon="-8.6072230">
        <ele>85.1</ele>
        <time>2021-05-21T07:51:02Z</time>
      </trkpt>
      <trkpt lat="42.3237020" lon="-8.6072210">
        <ele>85.1</ele>
        <time>2021-05-21T07:51:03Z</time>
      </trkpt>
      <trkpt lat="42.3237100" lon="-8.6072180">
        <ele>85.1</ele>
        <time>2021-05-21T07:51:04Z</time>
      </trkpt>
      <trkpt lat="42.3237230" lon="-8.6072220">
        <ele>85.1</ele>
        <time>2021-05-21T07:51:05Z</time>
      </trkpt>
      <trkpt lat="42.3237180" lon="-8.6072230">
        <ele>85.1</ele>
        <time>2021-05-21T07:51:06Z</time>
      </trkpt>
      <trkpt lat="42.3236970" lon="-8.6072140">
        <ele>85.0</ele>
        <time>2021-05-21T07:51:07Z</time>
      </trkpt>
      <trkpt lat="42.3236950" lon="-8.6072150">
        <ele>85.0</ele>
        <time>2021-05-21T07:51:08Z</time>
      </trkpt>
      <trkpt lat="42.3236960" lon="-8.6072140">
        <ele>85.0</ele>
        <time>2021-05-21T07:51:09Z</time>
      </trkpt>
      <trkpt lat="42.3237040" lon="-8.6072020">
        <ele>85.0</ele>
        <time>2021-05-21T07:51:10Z</time>
      </trkpt>
      <trkpt lat="42.3237170" lon="-8.6072060">
        <ele>84.9</ele>
        <time>2021-05-21T07:51:11Z</time>
      </trkpt>
      <trkpt lat="42.3237300" lon="-8.6072010">
        <ele>84.9</ele>
        <time>2021-05-21T07:51:12Z</time>
      </trkpt>
      <trkpt lat="42.3237420" lon="-8.6072010">
        <ele>84.8</ele>
        <time>2021-05-21T07:51:13Z</time>
      </trkpt>
      <trkpt lat="42.3237560" lon="-8.6071990">
        <ele>84.8</ele>
        <time>2021-05-21T07:51:14Z</time>
      </trkpt>
      <trkpt lat="42.3237690" lon="-8.6072100">
        <ele>84.7</ele>
        <time>2021-05-21T07:51:15Z</time>
      </trkpt>
      <trkpt lat="42.3237650" lon="-8.6072010">
        <ele>84.7</ele>
        <time>2021-05-21T07:51:16Z</time>
      </trkpt>
      <trkpt lat="42.3237810" lon="-8.6072070">
        <ele>84.6</ele>
        <time>2021-05-21T07:51:17Z</time>
      </trkpt>
      <trkpt lat="42.3237980" lon="-8.6072160">
        <ele>84.6</ele>
        <time>2021-05-21T07:51:18Z</time>
      </trkpt>
      <trkpt lat="42.3238210" lon="-8.6072090">
        <ele>84.5</ele>
        <time>2021-05-21T07:51:19Z</time>
      </trkpt>
      <trkpt lat="42.3238300" lon="-8.6072060">
        <ele>84.5</ele>
        <time>2021-05-21T07:51:20Z</time>
      </trkpt>
      <trkpt lat="42.3238400" lon="-8.6072020">
        <ele>84.4</ele>
        <time>2021-05-21T07:51:21Z</time>
      </trkpt>
      <trkpt lat="42.3238640" lon="-8.6071920">
        <ele>84.3</ele>
        <time>2021-05-21T07:51:22Z</time>
      </trkpt>
      <trkpt lat="42.3238720" lon="-8.6071890">
        <ele>84.3</ele>
        <time>2021-05-21T07:51:23Z</time>
      </trkpt>
      <trkpt lat="42.3238810" lon="-8.6071850">
        <ele>84.3</ele>
        <time>2021-05-21T07:51:24Z</time>
      </trkpt>
      <trkpt lat="42.3239010" lon="-8.6071760">
        <ele>84.2</ele>
        <time>2021-05-21T07:51:25Z</time>
      </trkpt>
      <trkpt lat="42.3239120" lon="-8.6071710">
        <ele>84.1</ele>
        <time>2021-05-21T07:51:26Z</time>
      </trkpt>
      <trkpt lat="42.3239220" lon="-8.6071660">
        <ele>84.1</ele>
        <time>2021-05-21T07:51:27Z</time>
      </trkpt>
      <trkpt lat="42.3239360" lon="-8.6071610">
        <ele>84.0</ele>
        <time>2021-05-21T07:51:28Z</time>
      </trkpt>
      <trkpt lat="42.3239480" lon="-8.6071600">
        <ele>84.0</ele>
        <time>2021-05-21T07:51:29Z</time>
      </trkpt>
      <trkpt lat="42.3239560" lon="-8.6071590">
        <ele>83.9</ele>
        <time>2021-05-21T07:51:30Z</time>
      </trkpt>
      <trkpt lat="42.3239650" lon="-8.6071520">
        <ele>83.9</ele>
        <time>2021-05-21T07:51:31Z</time>
      </trkpt>
      <trkpt lat="42.3239830" lon="-8.6071510">
        <ele>83.8</ele>
        <time>2021-05-21T07:51:32Z</time>
      </trkpt>
      <trkpt lat="42.3239870" lon="-8.6071470">
        <ele>83.8</ele>
        <time>2021-05-21T07:51:33Z</time>
      </trkpt>
      <trkpt lat="42.3239990" lon="-8.6071470">
        <ele>83.7</ele>
        <time>2021-05-21T07:51:34Z</time>
      </trkpt>
      <trkpt lat="42.3240120" lon="-8.6071400">
        <ele>83.7</ele>
        <time>2021-05-21T07:51:35Z</time>
      </trkpt>
      <trkpt lat="42.3240310" lon="-8.6071350">
        <ele>83.6</ele>
        <time>2021-05-21T07:51:36Z</time>
      </trkpt>
      <trkpt lat="42.3240330" lon="-8.6071330">
        <ele>83.5</ele>
        <time>2021-05-21T07:51:37Z</time>
      </trkpt>
      <trkpt lat="42.3240440" lon="-8.6071260">
        <ele>83.5</ele>
        <time>2021-05-21T07:51:38Z</time>
      </trkpt>
      <trkpt lat="42.3240540" lon="-8.6071310">
        <ele>83.4</ele>
        <time>2021-05-21T07:51:39Z</time>
      </trkpt>
      <trkpt lat="42.3240600" lon="-8.6071330">
        <ele>83.4</ele>
        <time>2021-05-21T07:51:40Z</time>
      </trkpt>
      <trkpt lat="42.3240760" lon="-8.6071330">
        <ele>83.3</ele>
        <time>2021-05-21T07:51:41Z</time>
      </trkpt>
      <trkpt lat="42.3240860" lon="-8.6071360">
        <ele>83.2</ele>
        <time>2021-05-21T07:51:42Z</time>
      </trkpt>
      <trkpt lat="42.3240990" lon="-8.6071360">
        <ele>83.1</ele>
        <time>2021-05-21T07:51:43Z</time>
      </trkpt>
      <trkpt lat="42.3241100" lon="-8.6071340">
        <ele>83.1</ele>
        <time>2021-05-21T07:51:44Z</time>
      </trkpt>
      <trkpt lat="42.3241140" lon="-8.6071350">
        <ele>83.0</ele>
        <time>2021-05-21T07:51:45Z</time>
      </trkpt>
      <trkpt lat="42.3241270" lon="-8.6071320">
        <ele>83.0</ele>
        <time>2021-05-21T07:51:46Z</time>
      </trkpt>
      <trkpt lat="42.3241450" lon="-8.6071340">
        <ele>82.8</ele>
        <time>2021-05-21T07:51:47Z</time>
      </trkpt>
      <trkpt lat="42.3241590" lon="-8.6071330">
        <ele>82.8</ele>
        <time>2021-05-21T07:51:48Z</time>
      </trkpt>
      <trkpt lat="42.3241740" lon="-8.6071300">
        <ele>82.7</ele>
        <time>2021-05-21T07:51:49Z</time>
      </trkpt>
      <trkpt lat="42.3241870" lon="-8.6071190">
        <ele>82.5</ele>
        <time>2021-05-21T07:51:50Z</time>
      </trkpt>
      <trkpt lat="42.3242030" lon="-8.6071160">
        <ele>82.4</ele>
        <time>2021-05-21T07:51:51Z</time>
      </trkpt>
      <trkpt lat="42.3242110" lon="-8.6071120">
        <ele>82.4</ele>
        <time>2021-05-21T07:51:52Z</time>
      </trkpt>
      <trkpt lat="42.3242210" lon="-8.6071110">
        <ele>82.3</ele>
        <time>2021-05-21T07:51:53Z</time>
      </trkpt>
      <trkpt lat="42.3242320" lon="-8.6071100">
        <ele>82.2</ele>
        <time>2021-05-21T07:51:54Z</time>
      </trkpt>
      <trkpt lat="42.3242550" lon="-8.6071050">
        <ele>82.0</ele>
        <time>2021-05-21T07:51:55Z</time>
      </trkpt>
      <trkpt lat="42.3242620" lon="-8.6071030">
        <ele>82.0</ele>
        <time>2021-05-21T07:51:56Z</time>
      </trkpt>
      <trkpt lat="42.3242700" lon="-8.6071020">
        <ele>81.9</ele>
        <time>2021-05-21T07:51:57Z</time>
      </trkpt>
      <trkpt lat="42.3242870" lon="-8.6070860">
        <ele>81.8</ele>
        <time>2021-05-21T07:51:58Z</time>
      </trkpt>
      <trkpt lat="42.3243000" lon="-8.6070800">
        <ele>81.7</ele>
        <time>2021-05-21T07:51:59Z</time>
      </trkpt>
      <trkpt lat="42.3243150" lon="-8.6070730">
        <ele>81.6</ele>
        <time>2021-05-21T07:52:00Z</time>
      </trkpt>
      <trkpt lat="42.3243320" lon="-8.6070630">
        <ele>81.4</ele>
        <time>2021-05-21T07:52:01Z</time>
      </trkpt>
      <trkpt lat="42.3243510" lon="-8.6070540">
        <ele>81.2</ele>
        <time>2021-05-21T07:52:02Z</time>
      </trkpt>
      <trkpt lat="42.3243580" lon="-8.6070480">
        <ele>81.2</ele>
        <time>2021-05-21T07:52:03Z</time>
      </trkpt>
      <trkpt lat="42.3243660" lon="-8.6070430">
        <ele>81.1</ele>
        <time>2021-05-21T07:52:04Z</time>
      </trkpt>
      <trkpt lat="42.3243840" lon="-8.6070510">
        <ele>81.0</ele>
        <time>2021-05-21T07:52:05Z</time>
      </trkpt>
      <trkpt lat="42.3243920" lon="-8.6070490">
        <ele>80.9</ele>
        <time>2021-05-21T07:52:06Z</time>
      </trkpt>
      <trkpt lat="42.3244020" lon="-8.6070420">
        <ele>80.8</ele>
        <time>2021-05-21T07:52:07Z</time>
      </trkpt>
      <trkpt lat="42.3244290" lon="-8.6070520">
        <ele>80.6</ele>
        <time>2021-05-21T07:52:08Z</time>
      </trkpt>
      <trkpt lat="42.3244360" lon="-8.6070430">
        <ele>80.5</ele>
        <time>2021-05-21T07:52:09Z</time>
      </trkpt>
      <trkpt lat="42.3244430" lon="-8.6070490">
        <ele>80.4</ele>
        <time>2021-05-21T07:52:10Z</time>
      </trkpt>
      <trkpt lat="42.3244540" lon="-8.6070400">
        <ele>80.3</ele>
        <time>2021-05-21T07:52:11Z</time>
      </trkpt>
      <trkpt lat="42.3244650" lon="-8.6070370">
        <ele>80.2</ele>
        <time>2021-05-21T07:52:12Z</time>
      </trkpt>
      <trkpt lat="42.3244830" lon="-8.6070320">
        <ele>80.1</ele>
        <time>2021-05-21T07:52:13Z</time>
      </trkpt>
      <trkpt lat="42.3245000" lon="-8.6070280">
        <ele>79.9</ele>
        <time>2021-05-21T07:52:14Z</time>
      </trkpt>
      <trkpt lat="42.3245090" lon="-8.6070180">
        <ele>79.8</ele>
        <time>2021-05-21T07:52:15Z</time>
      </trkpt>
      <trkpt lat="42.3245190" lon="-8.6070080">
        <ele>79.7</ele>
        <time>2021-05-21T07:52:16Z</time>
      </trkpt>
      <trkpt lat="42.3245270" lon="-8.6070060">
        <ele>79.7</ele>
        <time>2021-05-21T07:52:17Z</time>
      </trkpt>
      <trkpt lat="42.3245360" lon="-8.6070030">
        <ele>79.6</ele>
        <time>2021-05-21T07:52:18Z</time>
      </trkpt>
      <trkpt lat="42.3245440" lon="-8.6070010">
        <ele>79.5</ele>
        <time>2021-05-21T07:52:19Z</time>
      </trkpt>
      <trkpt lat="42.3245540" lon="-8.6069990">
        <ele>79.5</ele>
        <time>2021-05-21T07:52:20Z</time>
      </trkpt>
      <trkpt lat="42.3245710" lon="-8.6069950">
        <ele>79.3</ele>
        <time>2021-05-21T07:52:21Z</time>
      </trkpt>
      <trkpt lat="42.3245870" lon="-8.6069910">
        <ele>79.2</ele>
        <time>2021-05-21T07:52:22Z</time>
      </trkpt>
      <trkpt lat="42.3245980" lon="-8.6069830">
        <ele>79.1</ele>
        <time>2021-05-21T07:52:23Z</time>
      </trkpt>
      <trkpt lat="42.3246130" lon="-8.6069760">
        <ele>78.9</ele>
        <time>2021-05-21T07:52:24Z</time>
      </trkpt>
      <trkpt lat="42.3246240" lon="-8.6069630">
        <ele>78.8</ele>
        <time>2021-05-21T07:52:25Z</time>
      </trkpt>
      <trkpt lat="42.3246460" lon="-8.6069580">
        <ele>78.6</ele>
        <time>2021-05-21T07:52:26Z</time>
      </trkpt>
      <trkpt lat="42.3246520" lon="-8.6069560">
        <ele>78.6</ele>
        <time>2021-05-21T07:52:27Z</time>
      </trkpt>
      <trkpt lat="42.3246660" lon="-8.6069430">
        <ele>78.4</ele>
        <time>2021-05-21T07:52:28Z</time>
      </trkpt>
      <trkpt lat="42.3246810" lon="-8.6069430">
        <ele>78.3</ele>
        <time>2021-05-21T07:52:29Z</time>
      </trkpt>
      <trkpt lat="42.3246880" lon="-8.6069410">
        <ele>78.2</ele>
        <time>2021-05-21T07:52:30Z</time>
      </trkpt>
      <trkpt lat="42.3246960" lon="-8.6069360">
        <ele>78.1</ele>
        <time>2021-05-21T07:52:31Z</time>
      </trkpt>
      <trkpt lat="42.3247150" lon="-8.6069250">
        <ele>78.0</ele>
        <time>2021-05-21T07:52:32Z</time>
      </trkpt>
      <trkpt lat="42.3247260" lon="-8.6069220">
        <ele>77.9</ele>
        <time>2021-05-21T07:52:33Z</time>
      </trkpt>
      <trkpt lat="42.3247420" lon="-8.6069160">
        <ele>77.7</ele>
        <time>2021-05-21T07:52:34Z</time>
      </trkpt>
      <trkpt lat="42.3247560" lon="-8.6069050">
        <ele>77.5</ele>
        <time>2021-05-21T07:52:35Z</time>
      </trkpt>
      <trkpt lat="42.3247680" lon="-8.6068930">
        <ele>77.4</ele>
        <time>2021-05-21T07:52:36Z</time>
      </trkpt>
      <trkpt lat="42.3247830" lon="-8.6068800">
        <ele>77.2</ele>
        <time>2021-05-21T07:52:37Z</time>
      </trkpt>
      <trkpt lat="42.3247930" lon="-8.6068770">
        <ele>77.1</ele>
        <time>2021-05-21T07:52:38Z</time>
      </trkpt>
      <trkpt lat="42.3248020" lon="-8.6068730">
        <ele>77.0</ele>
        <time>2021-05-21T07:52:39Z</time>
      </trkpt>
      <trkpt lat="42.3248180" lon="-8.6068680">
        <ele>76.9</ele>
        <time>2021-05-21T07:52:40Z</time>
      </trkpt>
      <trkpt lat="42.3248270" lon="-8.6068680">
        <ele>76.8</ele>
        <time>2021-05-21T07:52:41Z</time>
      </trkpt>
      <trkpt lat="42.3248350" lon="-8.6068670">
        <ele>76.7</ele>
        <time>2021-05-21T07:52:42Z</time>
      </trkpt>
      <trkpt lat="42.3248440" lon="-8.6068660">
        <ele>76.6</ele>
        <time>2021-05-21T07:52:43Z</time>
      </trkpt>
      <trkpt lat="42.3248690" lon="-8.6068660">
        <ele>76.4</ele>
        <time>2021-05-21T07:52:44Z</time>
      </trkpt>
      <trkpt lat="42.3248770" lon="-8.6068640">
        <ele>76.3</ele>
        <time>2021-05-21T07:52:45Z</time>
      </trkpt>
      <trkpt lat="42.3248840" lon="-8.6068620">
        <ele>76.2</ele>
        <time>2021-05-21T07:52:46Z</time>
      </trkpt>
      <trkpt lat="42.3248980" lon="-8.6068590">
        <ele>76.0</ele>
        <time>2021-05-21T07:52:47Z</time>
      </trkpt>
      <trkpt lat="42.3249120" lon="-8.6068600">
        <ele>75.9</ele>
        <time>2021-05-21T07:52:48Z</time>
      </trkpt>
      <trkpt lat="42.3249230" lon="-8.6068540">
        <ele>75.8</ele>
        <time>2021-05-21T07:52:49Z</time>
      </trkpt>
      <trkpt lat="42.3249400" lon="-8.6068510">
        <ele>75.6</ele>
        <time>2021-05-21T07:52:50Z</time>
      </trkpt>
      <trkpt lat="42.3249640" lon="-8.6068460">
        <ele>75.3</ele>
        <time>2021-05-21T07:52:51Z</time>
      </trkpt>
      <trkpt lat="42.3249720" lon="-8.6068460">
        <ele>75.2</ele>
        <time>2021-05-21T07:52:52Z</time>
      </trkpt>
      <trkpt lat="42.3249810" lon="-8.6068470">
        <ele>75.1</ele>
        <time>2021-05-21T07:52:53Z</time>
      </trkpt>
      <trkpt lat="42.3250060" lon="-8.6068530">
        <ele>74.8</ele>
        <time>2021-05-21T07:52:54Z</time>
      </trkpt>
      <trkpt lat="42.3250190" lon="-8.6068540">
        <ele>74.6</ele>
        <time>2021-05-21T07:52:55Z</time>
      </trkpt>
      <trkpt lat="42.3250370" lon="-8.6068460">
        <ele>74.4</ele>
        <time>2021-05-21T07:52:56Z</time>
      </trkpt>
      <trkpt lat="42.3250510" lon="-8.6068430">
        <ele>74.2</ele>
        <time>2021-05-21T07:52:57Z</time>
      </trkpt>
      <trkpt lat="42.3250590" lon="-8.6068420">
        <ele>74.1</ele>
        <time>2021-05-21T07:52:58Z</time>
      </trkpt>
      <trkpt lat="42.3250690" lon="-8.6068410">
        <ele>74.0</ele>
        <time>2021-05-21T07:52:59Z</time>
      </trkpt>
      <trkpt lat="42.3250790" lon="-8.6068360">
        <ele>73.8</ele>
        <time>2021-05-21T07:53:00Z</time>
      </trkpt>
      <trkpt lat="42.3251080" lon="-8.6068260">
        <ele>73.4</ele>
        <time>2021-05-21T07:53:01Z</time>
      </trkpt>
      <trkpt lat="42.3251160" lon="-8.6068250">
        <ele>73.3</ele>
        <time>2021-05-21T07:53:02Z</time>
      </trkpt>
      <trkpt lat="42.3251180" lon="-8.6068220">
        <ele>73.3</ele>
        <time>2021-05-21T07:53:03Z</time>
      </trkpt>
      <trkpt lat="42.3251350" lon="-8.6068160">
        <ele>73.1</ele>
        <time>2021-05-21T07:53:04Z</time>
      </trkpt>
      <trkpt lat="42.3251360" lon="-8.6068200">
        <ele>73.0</ele>
        <time>2021-05-21T07:53:05Z</time>
      </trkpt>
      <trkpt lat="42.3251500" lon="-8.6068150">
        <ele>72.8</ele>
        <time>2021-05-21T07:53:06Z</time>
      </trkpt>
      <trkpt lat="42.3251590" lon="-8.6068090">
        <ele>72.7</ele>
        <time>2021-05-21T07:53:07Z</time>
      </trkpt>
      <trkpt lat="42.3251680" lon="-8.6068150">
        <ele>72.6</ele>
        <time>2021-05-21T07:53:08Z</time>
      </trkpt>
      <trkpt lat="42.3251780" lon="-8.6068180">
        <ele>72.5</ele>
        <time>2021-05-21T07:53:09Z</time>
      </trkpt>
      <trkpt lat="42.3251870" lon="-8.6068260">
        <ele>72.3</ele>
        <time>2021-05-21T07:53:10Z</time>
      </trkpt>
      <trkpt lat="42.3251920" lon="-8.6068340">
        <ele>72.2</ele>
        <time>2021-05-21T07:53:11Z</time>
      </trkpt>
      <trkpt lat="42.3251920" lon="-8.6068390">
        <ele>72.2</ele>
        <time>2021-05-21T07:53:12Z</time>
      </trkpt>
      <trkpt lat="42.3251910" lon="-8.6068410">
        <ele>72.1</ele>
        <time>2021-05-21T07:53:13Z</time>
      </trkpt>
      <trkpt lat="42.3251900" lon="-8.6068420">
        <ele>72.1</ele>
        <time>2021-05-21T07:53:14Z</time>
      </trkpt>
      <trkpt lat="42.3251890" lon="-8.6068430">
        <ele>72.1</ele>
        <time>2021-05-21T07:53:15Z</time>
      </trkpt>
      <trkpt lat="42.3251880" lon="-8.6068400">
        <ele>72.1</ele>
        <time>2021-05-21T07:53:16Z</time>
      </trkpt>
      <trkpt lat="42.3251870" lon="-8.6068410">
        <ele>72.1</ele>
        <time>2021-05-21T07:53:17Z</time>
      </trkpt>
      <trkpt lat="42.3251910" lon="-8.6068420">
        <ele>72.0</ele>
        <time>2021-05-21T07:53:18Z</time>
      </trkpt>
      <trkpt lat="42.3252000" lon="-8.6068330">
        <ele>71.9</ele>
        <time>2021-05-21T07:53:19Z</time>
      </trkpt>
      <trkpt lat="42.3252040" lon="-8.6068310">
        <ele>71.8</ele>
        <time>2021-05-21T07:53:20Z</time>
      </trkpt>
      <trkpt lat="42.3252130" lon="-8.6068280">
        <ele>71.7</ele>
        <time>2021-05-21T07:53:21Z</time>
      </trkpt>
      <trkpt lat="42.3252190" lon="-8.6068260">
        <ele>71.6</ele>
        <time>2021-05-21T07:53:22Z</time>
      </trkpt>
      <trkpt lat="42.3252310" lon="-8.6068220">
        <ele>71.5</ele>
        <time>2021-05-21T07:53:23Z</time>
      </trkpt>
      <trkpt lat="42.3252420" lon="-8.6068220">
        <ele>71.3</ele>
        <time>2021-05-21T07:53:24Z</time>
      </trkpt>
      <trkpt lat="42.3252560" lon="-8.6068230">
        <ele>71.1</ele>
        <time>2021-05-21T07:53:25Z</time>
      </trkpt>
      <trkpt lat="42.3252640" lon="-8.6068140">
        <ele>71.0</ele>
        <time>2021-05-21T07:53:26Z</time>
      </trkpt>
      <trkpt lat="42.3252610" lon="-8.6068050">
        <ele>70.9</ele>
        <time>2021-05-21T07:53:27Z</time>
      </trkpt>
      <trkpt lat="42.3252620" lon="-8.6068040">
        <ele>70.9</ele>
        <time>2021-05-21T07:53:28Z</time>
      </trkpt>
      <trkpt lat="42.3252630" lon="-8.6068040">
        <ele>70.9</ele>
        <time>2021-05-21T07:53:29Z</time>
      </trkpt>
      <trkpt lat="42.3252640" lon="-8.6068030">
        <ele>70.9</ele>
        <time>2021-05-21T07:53:30Z</time>
      </trkpt>
      <trkpt lat="42.3252660" lon="-8.6068030">
        <ele>70.9</ele>
        <time>2021-05-21T07:53:31Z</time>
      </trkpt>
      <trkpt lat="42.3252670" lon="-8.6068020">
        <ele>70.8</ele>
        <time>2021-05-21T07:53:32Z</time>
      </trkpt>
      <trkpt lat="42.3252680" lon="-8.6068020">
        <ele>70.8</ele>
        <time>2021-05-21T07:53:33Z</time>
      </trkpt>
      <trkpt lat="42.3252690" lon="-8.6068010">
        <ele>70.8</ele>
        <time>2021-05-21T07:53:34Z</time>
      </trkpt>
      <trkpt lat="42.3252700" lon="-8.6068010">
        <ele>70.8</ele>
        <time>2021-05-21T07:53:35Z</time>
      </trkpt>
      <trkpt lat="42.3252710" lon="-8.6068010">
        <ele>70.8</ele>
        <time>2021-05-21T07:53:36Z</time>
      </trkpt>
      <trkpt lat="42.3252720" lon="-8.6068000">
        <ele>70.8</ele>
        <time>2021-05-21T07:53:37Z</time>
      </trkpt>
      <trkpt lat="42.3252730" lon="-8.6068000">
        <ele>70.8</ele>
        <time>2021-05-21T07:53:38Z</time>
      </trkpt>
      <trkpt lat="42.3252740" lon="-8.6067990">
        <ele>70.7</ele>
        <time>2021-05-21T07:53:39Z</time>
      </trkpt>
      <trkpt lat="42.3252750" lon="-8.6067990">
        <ele>70.7</ele>
        <time>2021-05-21T07:53:40Z</time>
      </trkpt>
      <trkpt lat="42.3252770" lon="-8.6067980">
        <ele>70.7</ele>
        <time>2021-05-21T07:53:41Z</time>
      </trkpt>
      <trkpt lat="42.3252780" lon="-8.6067980">
        <ele>70.7</ele>
        <time>2021-05-21T07:53:42Z</time>
      </trkpt>
      <trkpt lat="42.3252790" lon="-8.6067970">
        <ele>70.7</ele>
        <time>2021-05-21T07:53:43Z</time>
      </trkpt>
      <trkpt lat="42.3252800" lon="-8.6067970">
        <ele>70.7</ele>
        <time>2021-05-21T07:53:44Z</time>
      </trkpt>
      <trkpt lat="42.3252810" lon="-8.6067960">
        <ele>70.6</ele>
        <time>2021-05-21T07:53:45Z</time>
      </trkpt>
      <trkpt lat="42.3252820" lon="-8.6067960">
        <ele>70.6</ele>
        <time>2021-05-21T07:53:46Z</time>
      </trkpt>
      <trkpt lat="42.3252830" lon="-8.6067960">
        <ele>70.6</ele>
        <time>2021-05-21T07:53:47Z</time>
      </trkpt>
      <trkpt lat="42.3252840" lon="-8.6067950">
        <ele>70.6</ele>
        <time>2021-05-21T07:53:48Z</time>
      </trkpt>
      <trkpt lat="42.3252850" lon="-8.6067950">
        <ele>70.6</ele>
        <time>2021-05-21T07:53:49Z</time>
      </trkpt>
      <trkpt lat="42.3252860" lon="-8.6067940">
        <ele>70.6</ele>
        <time>2021-05-21T07:53:50Z</time>
      </trkpt>
      <trkpt lat="42.3252880" lon="-8.6067940">
        <ele>70.6</ele>
        <time>2021-05-21T07:53:51Z</time>
      </trkpt>
      <trkpt lat="42.3252890" lon="-8.6067930">
        <ele>70.5</ele>
        <time>2021-05-21T07:53:52Z</time>
      </trkpt>
      <trkpt lat="42.3252900" lon="-8.6067930">
        <ele>70.5</ele>
        <time>2021-05-21T07:53:53Z</time>
      </trkpt>
      <trkpt lat="42.3252910" lon="-8.6067920">
        <ele>70.5</ele>
        <time>2021-05-21T07:53:54Z</time>
      </trkpt>
      <trkpt lat="42.3252920" lon="-8.6067920">
        <ele>70.5</ele>
        <time>2021-05-21T07:53:55Z</time>
      </trkpt>
      <trkpt lat="42.3252930" lon="-8.6067920">
        <ele>70.5</ele>
        <time>2021-05-21T07:53:56Z</time>
      </trkpt>
      <trkpt lat="42.3252940" lon="-8.6067910">
        <ele>70.5</ele>
        <time>2021-05-21T07:53:57Z</time>
      </trkpt>
      <trkpt lat="42.3252950" lon="-8.6067910">
        <ele>70.5</ele>
        <time>2021-05-21T07:53:58Z</time>
      </trkpt>
      <trkpt lat="42.3252960" lon="-8.6067900">
        <ele>70.4</ele>
        <time>2021-05-21T07:53:59Z</time>
      </trkpt>
      <trkpt lat="42.3252970" lon="-8.6067900">
        <ele>70.4</ele>
        <time>2021-05-21T07:54:00Z</time>
      </trkpt>
      <trkpt lat="42.3252990" lon="-8.6067890">
        <ele>70.4</ele>
        <time>2021-05-21T07:54:01Z</time>
      </trkpt>
      <trkpt lat="42.3253000" lon="-8.6067890">
        <ele>70.4</ele>
        <time>2021-05-21T07:54:02Z</time>
      </trkpt>
      <trkpt lat="42.3253010" lon="-8.6067880">
        <ele>70.4</ele>
        <time>2021-05-21T07:54:03Z</time>
      </trkpt>
      <trkpt lat="42.3253020" lon="-8.6067880">
        <ele>70.4</ele>
        <time>2021-05-21T07:54:04Z</time>
      </trkpt>
      <trkpt lat="42.3253030" lon="-8.6067870">
        <ele>70.3</ele>
        <time>2021-05-21T07:54:05Z</time>
      </trkpt>
      <trkpt lat="42.3253040" lon="-8.6067870">
        <ele>70.3</ele>
        <time>2021-05-21T07:54:06Z</time>
      </trkpt>
      <trkpt lat="42.3253050" lon="-8.6067870">
        <ele>70.3</ele>
        <time>2021-05-21T07:54:07Z</time>
      </trkpt>
      <trkpt lat="42.3253060" lon="-8.6067860">
        <ele>70.3</ele>
        <time>2021-05-21T07:54:08Z</time>
      </trkpt>
      <trkpt lat="42.3253070" lon="-8.6067860">
        <ele>70.3</ele>
        <time>2021-05-21T07:54:09Z</time>
      </trkpt>
      <trkpt lat="42.3253080" lon="-8.6067850">
        <ele>70.3</ele>
        <time>2021-05-21T07:54:10Z</time>
      </trkpt>
      <trkpt lat="42.3253100" lon="-8.6067850">
        <ele>70.3</ele>
        <time>2021-05-21T07:54:11Z</time>
      </trkpt>
      <trkpt lat="42.3253110" lon="-8.6067840">
        <ele>70.2</ele>
        <time>2021-05-21T07:54:12Z</time>
      </trkpt>
      <trkpt lat="42.3253120" lon="-8.6067840">
        <ele>70.2</ele>
        <time>2021-05-21T07:54:13Z</time>
      </trkpt>
      <trkpt lat="42.3253130" lon="-8.6067830">
        <ele>70.2</ele>
        <time>2021-05-21T07:54:14Z</time>
      </trkpt>
      <trkpt lat="42.3253140" lon="-8.6067830">
        <ele>70.2</ele>
        <time>2021-05-21T07:54:15Z</time>
      </trkpt>
      <trkpt lat="42.3253150" lon="-8.6067830">
        <ele>70.2</ele>
        <time>2021-05-21T07:54:16Z</time>
      </trkpt>
      <trkpt lat="42.3253160" lon="-8.6067820">
        <ele>70.2</ele>
        <time>2021-05-21T07:54:17Z</time>
      </trkpt>
      <trkpt lat="42.3253170" lon="-8.6067820">
        <ele>70.2</ele>
        <time>2021-05-21T07:54:18Z</time>
      </trkpt>
      <trkpt lat="42.3253180" lon="-8.6067810">
        <ele>70.1</ele>
        <time>2021-05-21T07:54:19Z</time>
      </trkpt>
      <trkpt lat="42.3253190" lon="-8.6067810">
        <ele>70.1</ele>
        <time>2021-05-21T07:54:20Z</time>
      </trkpt>
      <trkpt lat="42.3253210" lon="-8.6067800">
        <ele>70.1</ele>
        <time>2021-05-21T07:54:21Z</time>
      </trkpt>
      <trkpt lat="42.3253220" lon="-8.6067800">
        <ele>70.1</ele>
        <time>2021-05-21T07:54:22Z</time>
      </trkpt>
      <trkpt lat="42.3253230" lon="-8.6067790">
        <ele>70.1</ele>
        <time>2021-05-21T07:54:23Z</time>
      </trkpt>
      <trkpt lat="42.3253240" lon="-8.6067790">
        <ele>70.1</ele>
        <time>2021-05-21T07:54:24Z</time>
      </trkpt>
      <trkpt lat="42.3253250" lon="-8.6067790">
        <ele>70.1</ele>
        <time>2021-05-21T07:54:25Z</time>
      </trkpt>
      <trkpt lat="42.3253260" lon="-8.6067780">
        <ele>70.0</ele>
        <time>2021-05-21T07:54:26Z</time>
      </trkpt>
      <trkpt lat="42.3253270" lon="-8.6067780">
        <ele>70.0</ele>
        <time>2021-05-21T07:54:27Z</time>
      </trkpt>
      <trkpt lat="42.3253280" lon="-8.6067770">
        <ele>70.0</ele>
        <time>2021-05-21T07:54:28Z</time>
      </trkpt>
      <trkpt lat="42.3253290" lon="-8.6067770">
        <ele>70.0</ele>
        <time>2021-05-21T07:54:29Z</time>
      </trkpt>
      <trkpt lat="42.3253310" lon="-8.6067760">
        <ele>70.0</ele>
        <time>2021-05-21T07:54:30Z</time>
      </trkpt>
      <trkpt lat="42.3253320" lon="-8.6067760">
        <ele>70.0</ele>
        <time>2021-05-21T07:54:31Z</time>
      </trkpt>
      <trkpt lat="42.3253330" lon="-8.6067750">
        <ele>69.9</ele>
        <time>2021-05-21T07:54:32Z</time>
      </trkpt>
      <trkpt lat="42.3253340" lon="-8.6067750">
        <ele>69.9</ele>
        <time>2021-05-21T07:54:33Z</time>
      </trkpt>
      <trkpt lat="42.3253350" lon="-8.6067740">
        <ele>69.9</ele>
        <time>2021-05-21T07:54:34Z</time>
      </trkpt>
      <trkpt lat="42.3253360" lon="-8.6067740">
        <ele>69.9</ele>
        <time>2021-05-21T07:54:35Z</time>
      </trkpt>
      <trkpt lat="42.3253370" lon="-8.6067740">
        <ele>69.9</ele>
        <time>2021-05-21T07:54:36Z</time>
      </trkpt>
      <trkpt lat="42.3253380" lon="-8.6067730">
        <ele>69.9</ele>
        <time>2021-05-21T07:54:37Z</time>
      </trkpt>
      <trkpt lat="42.3253390" lon="-8.6067730">
        <ele>69.9</ele>
        <time>2021-05-21T07:54:38Z</time>
      </trkpt>
      <trkpt lat="42.3253400" lon="-8.6067720">
        <ele>69.8</ele>
        <time>2021-05-21T07:54:39Z</time>
      </trkpt>
      <trkpt lat="42.3253420" lon="-8.6067720">
        <ele>69.8</ele>
        <time>2021-05-21T07:54:40Z</time>
      </trkpt>
      <trkpt lat="42.3253430" lon="-8.6067710">
        <ele>69.8</ele>
        <time>2021-05-21T07:54:41Z</time>
      </trkpt>
      <trkpt lat="42.3253440" lon="-8.6067710">
        <ele>69.8</ele>
        <time>2021-05-21T07:54:42Z</time>
      </trkpt>
      <trkpt lat="42.3253450" lon="-8.6067700">
        <ele>69.9</ele>
        <time>2021-05-21T07:54:43Z</time>
      </trkpt>
      <trkpt lat="42.3253460" lon="-8.6067700">
        <ele>69.9</ele>
        <time>2021-05-21T07:54:44Z</time>
      </trkpt>
      <trkpt lat="42.3253470" lon="-8.6067700">
        <ele>70.0</ele>
        <time>2021-05-21T07:54:45Z</time>
      </trkpt>
      <trkpt lat="42.3253480" lon="-8.6067690">
        <ele>70.0</ele>
        <time>2021-05-21T07:54:46Z</time>
      </trkpt>
      <trkpt lat="42.3253490" lon="-8.6067690">
        <ele>70.0</ele>
        <time>2021-05-21T07:54:47Z</time>
      </trkpt>
      <trkpt lat="42.3253500" lon="-8.6067680">
        <ele>70.1</ele>
        <time>2021-05-21T07:54:48Z</time>
      </trkpt>
      <trkpt lat="42.3253510" lon="-8.6067680">
        <ele>70.1</ele>
        <time>2021-05-21T07:54:49Z</time>
      </trkpt>
      <trkpt lat="42.3253530" lon="-8.6067670">
        <ele>70.2</ele>
        <time>2021-05-21T07:54:50Z</time>
      </trkpt>
      <trkpt lat="42.3253540" lon="-8.6067670">
        <ele>70.3</ele>
        <time>2021-05-21T07:54:51Z</time>
      </trkpt>
      <trkpt lat="42.3253550" lon="-8.6067660">
        <ele>70.2</ele>
        <time>2021-05-21T07:54:52Z</time>
      </trkpt>
      <trkpt lat="42.3253560" lon="-8.6067660">
        <ele>70.3</ele>
        <time>2021-05-21T07:54:54Z</time>
      </trkpt>
      <trkpt lat="42.3253570" lon="-8.6067650">
        <ele>70.4</ele>
        <time>2021-05-21T07:54:55Z</time>
      </trkpt>
      <trkpt lat="42.3253580" lon="-8.6067650">
        <ele>70.4</ele>
        <time>2021-05-21T07:54:56Z</time>
      </trkpt>
      <trkpt lat="42.3253590" lon="-8.6067650">
        <ele>70.5</ele>
        <time>2021-05-21T07:54:57Z</time>
      </trkpt>
      <trkpt lat="42.3253600" lon="-8.6067640">
        <ele>70.6</ele>
        <time>2021-05-21T07:54:58Z</time>
      </trkpt>
      <trkpt lat="42.3253610" lon="-8.6067640">
        <ele>70.6</ele>
        <time>2021-05-21T07:54:59Z</time>
      </trkpt>
      <trkpt lat="42.3253620" lon="-8.6067630">
        <ele>70.6</ele>
        <time>2021-05-21T07:55:00Z</time>
      </trkpt>
      <trkpt lat="42.3253640" lon="-8.6067630">
        <ele>70.7</ele>
        <time>2021-05-21T07:55:01Z</time>
      </trkpt>
      <trkpt lat="42.3253650" lon="-8.6067620">
        <ele>70.7</ele>
        <time>2021-05-21T07:55:02Z</time>
      </trkpt>
      <trkpt lat="42.3253660" lon="-8.6067620">
        <ele>70.8</ele>
        <time>2021-05-21T07:55:03Z</time>
      </trkpt>
      <trkpt lat="42.3253670" lon="-8.6067610">
        <ele>70.8</ele>
        <time>2021-05-21T07:55:04Z</time>
      </trkpt>
      <trkpt lat="42.3253680" lon="-8.6067610">
        <ele>70.9</ele>
        <time>2021-05-21T07:55:05Z</time>
      </trkpt>
      <trkpt lat="42.3253690" lon="-8.6067610">
        <ele>71.0</ele>
        <time>2021-05-21T07:55:06Z</time>
      </trkpt>
      <trkpt lat="42.3253700" lon="-8.6067600">
        <ele>71.0</ele>
        <time>2021-05-21T07:55:07Z</time>
      </trkpt>
      <trkpt lat="42.3253710" lon="-8.6067600">
        <ele>71.0</ele>
        <time>2021-05-21T07:55:08Z</time>
      </trkpt>
      <trkpt lat="42.3253720" lon="-8.6067590">
        <ele>71.1</ele>
        <time>2021-05-21T07:55:09Z</time>
      </trkpt>
      <trkpt lat="42.3253730" lon="-8.6067590">
        <ele>71.2</ele>
        <time>2021-05-21T07:55:10Z</time>
      </trkpt>
      <trkpt lat="42.3253750" lon="-8.6067580">
        <ele>71.2</ele>
        <time>2021-05-21T07:55:11Z</time>
      </trkpt>
      <trkpt lat="42.3253760" lon="-8.6067580">
        <ele>71.3</ele>
        <time>2021-05-21T07:55:12Z</time>
      </trkpt>
      <trkpt lat="42.3253770" lon="-8.6067570">
        <ele>71.3</ele>
        <time>2021-05-21T07:55:13Z</time>
      </trkpt>
      <trkpt lat="42.3253780" lon="-8.6067570">
        <ele>71.3</ele>
        <time>2021-05-21T07:55:14Z</time>
      </trkpt>
      <trkpt lat="42.3253790" lon="-8.6067560">
        <ele>71.4</ele>
        <time>2021-05-21T07:55:15Z</time>
      </trkpt>
      <trkpt lat="42.3253800" lon="-8.6067560">
        <ele>71.4</ele>
        <time>2021-05-21T07:55:16Z</time>
      </trkpt>
      <trkpt lat="42.3253810" lon="-8.6067560">
        <ele>71.5</ele>
        <time>2021-05-21T07:55:17Z</time>
      </trkpt>
      <trkpt lat="42.3253820" lon="-8.6067550">
        <ele>71.6</ele>
        <time>2021-05-21T07:55:18Z</time>
      </trkpt>
      <trkpt lat="42.3253830" lon="-8.6067550">
        <ele>71.6</ele>
        <time>2021-05-21T07:55:19Z</time>
      </trkpt>
      <trkpt lat="42.3253840" lon="-8.6067540">
        <ele>71.6</ele>
        <time>2021-05-21T07:55:20Z</time>
      </trkpt>
      <trkpt lat="42.3253860" lon="-8.6067540">
        <ele>71.7</ele>
        <time>2021-05-21T07:55:21Z</time>
      </trkpt>
      <trkpt lat="42.3253870" lon="-8.6067530">
        <ele>71.8</ele>
        <time>2021-05-21T07:55:22Z</time>
      </trkpt>
      <trkpt lat="42.3253880" lon="-8.6067530">
        <ele>71.8</ele>
        <time>2021-05-21T07:55:23Z</time>
      </trkpt>
      <trkpt lat="42.3253890" lon="-8.6067520">
        <ele>71.9</ele>
        <time>2021-05-21T07:55:24Z</time>
      </trkpt>
      <trkpt lat="42.3253900" lon="-8.6067520">
        <ele>71.9</ele>
        <time>2021-05-21T07:55:25Z</time>
      </trkpt>
      <trkpt lat="42.3253990" lon="-8.6067260">
        <ele>71.8</ele>
        <time>2021-05-21T07:55:26Z</time>
      </trkpt>
      <trkpt lat="42.3254060" lon="-8.6067160">
        <ele>71.7</ele>
        <time>2021-05-21T07:55:27Z</time>
      </trkpt>
      <trkpt lat="42.3254130" lon="-8.6067060">
        <ele>71.7</ele>
        <time>2021-05-21T07:55:28Z</time>
      </trkpt>
      <trkpt lat="42.3254380" lon="-8.6066940">
        <ele>71.5</ele>
        <time>2021-05-21T07:55:29Z</time>
      </trkpt>
      <trkpt lat="42.3254480" lon="-8.6066910">
        <ele>71.4</ele>
        <time>2021-05-21T07:55:30Z</time>
      </trkpt>
      <trkpt lat="42.3254570" lon="-8.6066880">
        <ele>71.4</ele>
        <time>2021-05-21T07:55:31Z</time>
      </trkpt>
      <trkpt lat="42.3254670" lon="-8.6066820">
        <ele>71.4</ele>
        <time>2021-05-21T07:55:32Z</time>
      </trkpt>
      <trkpt lat="42.3254830" lon="-8.6066750">
        <ele>71.3</ele>
        <time>2021-05-21T07:55:33Z</time>
      </trkpt>
      <trkpt lat="42.3254860" lon="-8.6066770">
        <ele>71.4</ele>
        <time>2021-05-21T07:55:34Z</time>
      </trkpt>
      <trkpt lat="42.3255210" lon="-8.6066390">
        <ele>71.0</ele>
        <time>2021-05-21T07:55:36Z</time>
      </trkpt>
      <trkpt lat="42.3255180" lon="-8.6066350">
        <ele>71.0</ele>
        <time>2021-05-21T07:55:37Z</time>
      </trkpt>
      <trkpt lat="42.3255300" lon="-8.6066250">
        <ele>70.9</ele>
        <time>2021-05-21T07:55:38Z</time>
      </trkpt>
      <trkpt lat="42.3255410" lon="-8.6066130">
        <ele>70.9</ele>
        <time>2021-05-21T07:55:39Z</time>
      </trkpt>
      <trkpt lat="42.3255560" lon="-8.6066020">
        <ele>70.7</ele>
        <time>2021-05-21T07:55:40Z</time>
      </trkpt>
      <trkpt lat="42.3255580" lon="-8.6065980">
        <ele>70.8</ele>
        <time>2021-05-21T07:55:41Z</time>
      </trkpt>
      <trkpt lat="42.3255700" lon="-8.6065870">
        <ele>70.7</ele>
        <time>2021-05-21T07:55:42Z</time>
      </trkpt>
      <trkpt lat="42.3255720" lon="-8.6065770">
        <ele>70.7</ele>
        <time>2021-05-21T07:55:43Z</time>
      </trkpt>
      <trkpt lat="42.3255800" lon="-8.6065670">
        <ele>70.7</ele>
        <time>2021-05-21T07:55:44Z</time>
      </trkpt>
      <trkpt lat="42.3255930" lon="-8.6065580">
        <ele>70.7</ele>
        <time>2021-05-21T07:55:45Z</time>
      </trkpt>
      <trkpt lat="42.3256040" lon="-8.6065390">
        <ele>70.5</ele>
        <time>2021-05-21T07:55:46Z</time>
      </trkpt>
      <trkpt lat="42.3256120" lon="-8.6065320">
        <ele>70.5</ele>
        <time>2021-05-21T07:55:47Z</time>
      </trkpt>
      <trkpt lat="42.3256200" lon="-8.6065240">
        <ele>70.5</ele>
        <time>2021-05-21T07:55:48Z</time>
      </trkpt>
      <trkpt lat="42.3256310" lon="-8.6065100">
        <ele>70.4</ele>
        <time>2021-05-21T07:55:49Z</time>
      </trkpt>
      <trkpt lat="42.3256310" lon="-8.6065020">
        <ele>70.5</ele>
        <time>2021-05-21T07:55:50Z</time>
      </trkpt>
      <trkpt lat="42.3256430" lon="-8.6064910">
        <ele>70.4</ele>
        <time>2021-05-21T07:55:51Z</time>
      </trkpt>
      <trkpt lat="42.3256600" lon="-8.6064700">
        <ele>70.2</ele>
        <time>2021-05-21T07:55:52Z</time>
      </trkpt>
      <trkpt lat="42.3256700" lon="-8.6064600">
        <ele>70.2</ele>
        <time>2021-05-21T07:55:54Z</time>
      </trkpt>
      <trkpt lat="42.3256790" lon="-8.6064510">
        <ele>70.2</ele>
        <time>2021-05-21T07:55:55Z</time>
      </trkpt>
      <trkpt lat="42.3256890" lon="-8.6064410">
        <ele>70.2</ele>
        <time>2021-05-21T07:55:56Z</time>
      </trkpt>
      <trkpt lat="42.3256980" lon="-8.6064310">
        <ele>70.1</ele>
        <time>2021-05-21T07:55:57Z</time>
      </trkpt>
      <trkpt lat="42.3257050" lon="-8.6064150">
        <ele>70.1</ele>
        <time>2021-05-21T07:55:58Z</time>
      </trkpt>
      <trkpt lat="42.3257110" lon="-8.6064090">
        <ele>70.1</ele>
        <time>2021-05-21T07:55:59Z</time>
      </trkpt>
      <trkpt lat="42.3257170" lon="-8.6064030">
        <ele>70.1</ele>
        <time>2021-05-21T07:56:00Z</time>
      </trkpt>
      <trkpt lat="42.3257180" lon="-8.6063980">
        <ele>70.1</ele>
        <time>2021-05-21T07:56:01Z</time>
      </trkpt>
      <trkpt lat="42.3257330" lon="-8.6063860">
        <ele>70.1</ele>
        <time>2021-05-21T07:56:02Z</time>
      </trkpt>
      <trkpt lat="42.3257470" lon="-8.6063790">
        <ele>69.9</ele>
        <time>2021-05-21T07:56:03Z</time>
      </trkpt>
      <trkpt lat="42.3257550" lon="-8.6063710">
        <ele>70.0</ele>
        <time>2021-05-21T07:56:04Z</time>
      </trkpt>
      <trkpt lat="42.3257650" lon="-8.6063630">
        <ele>70.0</ele>
        <time>2021-05-21T07:56:05Z</time>
      </trkpt>
      <trkpt lat="42.3257780" lon="-8.6063540">
        <ele>69.8</ele>
        <time>2021-05-21T07:56:06Z</time>
      </trkpt>
      <trkpt lat="42.3257910" lon="-8.6063460">
        <ele>69.8</ele>
        <time>2021-05-21T07:56:07Z</time>
      </trkpt>
      <trkpt lat="42.3258040" lon="-8.6063420">
        <ele>69.8</ele>
        <time>2021-05-21T07:56:08Z</time>
      </trkpt>
      <trkpt lat="42.3258180" lon="-8.6063360">
        <ele>69.8</ele>
        <time>2021-05-21T07:56:09Z</time>
      </trkpt>
      <trkpt lat="42.3258250" lon="-8.6063270">
        <ele>69.7</ele>
        <time>2021-05-21T07:56:10Z</time>
      </trkpt>
      <trkpt lat="42.3258310" lon="-8.6063210">
        <ele>69.7</ele>
        <time>2021-05-21T07:56:11Z</time>
      </trkpt>
      <trkpt lat="42.3258410" lon="-8.6063120">
        <ele>69.7</ele>
        <time>2021-05-21T07:56:12Z</time>
      </trkpt>
      <trkpt lat="42.3258520" lon="-8.6063090">
        <ele>69.7</ele>
        <time>2021-05-21T07:56:13Z</time>
      </trkpt>
      <trkpt lat="42.3258630" lon="-8.6063000">
        <ele>69.6</ele>
        <time>2021-05-21T07:56:14Z</time>
      </trkpt>
      <trkpt lat="42.3258760" lon="-8.6062940">
        <ele>69.6</ele>
        <time>2021-05-21T07:56:15Z</time>
      </trkpt>
      <trkpt lat="42.3258850" lon="-8.6062880">
        <ele>69.6</ele>
        <time>2021-05-21T07:56:16Z</time>
      </trkpt>
      <trkpt lat="42.3258940" lon="-8.6062820">
        <ele>69.6</ele>
        <time>2021-05-21T07:56:17Z</time>
      </trkpt>
      <trkpt lat="42.3259030" lon="-8.6062760">
        <ele>69.5</ele>
        <time>2021-05-21T07:56:18Z</time>
      </trkpt>
      <trkpt lat="42.3259220" lon="-8.6062710">
        <ele>69.5</ele>
        <time>2021-05-21T07:56:19Z</time>
      </trkpt>
      <trkpt lat="42.3259330" lon="-8.6062660">
        <ele>69.5</ele>
        <time>2021-05-21T07:56:20Z</time>
      </trkpt>
      <trkpt lat="42.3259460" lon="-8.6062560">
        <ele>69.4</ele>
        <time>2021-05-21T07:56:21Z</time>
      </trkpt>
      <trkpt lat="42.3259610" lon="-8.6062530">
        <ele>69.3</ele>
        <time>2021-05-21T07:56:22Z</time>
      </trkpt>
      <trkpt lat="42.3259730" lon="-8.6062580">
        <ele>69.3</ele>
        <time>2021-05-21T07:56:23Z</time>
      </trkpt>
      <trkpt lat="42.3259850" lon="-8.6062540">
        <ele>69.3</ele>
        <time>2021-05-21T07:56:24Z</time>
      </trkpt>
      <trkpt lat="42.3259940" lon="-8.6062530">
        <ele>69.3</ele>
        <time>2021-05-21T07:56:25Z</time>
      </trkpt>
      <trkpt lat="42.3260060" lon="-8.6062510">
        <ele>69.2</ele>
        <time>2021-05-21T07:56:26Z</time>
      </trkpt>
      <trkpt lat="42.3260180" lon="-8.6062400">
        <ele>69.1</ele>
        <time>2021-05-21T07:56:27Z</time>
      </trkpt>
      <trkpt lat="42.3260260" lon="-8.6062340">
        <ele>69.0</ele>
        <time>2021-05-21T07:56:28Z</time>
      </trkpt>
      <trkpt lat="42.3260430" lon="-8.6062290">
        <ele>68.9</ele>
        <time>2021-05-21T07:56:29Z</time>
      </trkpt>
      <trkpt lat="42.3260520" lon="-8.6062260">
        <ele>68.8</ele>
        <time>2021-05-21T07:56:30Z</time>
      </trkpt>
      <trkpt lat="42.3260600" lon="-8.6062240">
        <ele>68.7</ele>
        <time>2021-05-21T07:56:31Z</time>
      </trkpt>
      <trkpt lat="42.3260680" lon="-8.6062210">
        <ele>68.7</ele>
        <time>2021-05-21T07:56:32Z</time>
      </trkpt>
      <trkpt lat="42.3260800" lon="-8.6062350">
        <ele>68.5</ele>
        <time>2021-05-21T07:56:33Z</time>
      </trkpt>
      <trkpt lat="42.3260930" lon="-8.6062310">
        <ele>68.4</ele>
        <time>2021-05-21T07:56:34Z</time>
      </trkpt>
      <trkpt lat="42.3261110" lon="-8.6062190">
        <ele>68.3</ele>
        <time>2021-05-21T07:56:35Z</time>
      </trkpt>
      <trkpt lat="42.3261230" lon="-8.6062160">
        <ele>68.2</ele>
        <time>2021-05-21T07:56:36Z</time>
      </trkpt>
      <trkpt lat="42.3261370" lon="-8.6062200">
        <ele>68.1</ele>
        <time>2021-05-21T07:56:37Z</time>
      </trkpt>
      <trkpt lat="42.3261570" lon="-8.6062260">
        <ele>67.9</ele>
        <time>2021-05-21T07:56:38Z</time>
      </trkpt>
      <trkpt lat="42.3261700" lon="-8.6062260">
        <ele>67.8</ele>
        <time>2021-05-21T07:56:39Z</time>
      </trkpt>
      <trkpt lat="42.3261920" lon="-8.6062360">
        <ele>67.6</ele>
        <time>2021-05-21T07:56:40Z</time>
      </trkpt>
      <trkpt lat="42.3262000" lon="-8.6062390">
        <ele>67.5</ele>
        <time>2021-05-21T07:56:41Z</time>
      </trkpt>
      <trkpt lat="42.3262080" lon="-8.6062430">
        <ele>67.5</ele>
        <time>2021-05-21T07:56:42Z</time>
      </trkpt>
      <trkpt lat="42.3262210" lon="-8.6062430">
        <ele>67.4</ele>
        <time>2021-05-21T07:56:43Z</time>
      </trkpt>
      <trkpt lat="42.3262340" lon="-8.6062470">
        <ele>67.3</ele>
        <time>2021-05-21T07:56:44Z</time>
      </trkpt>
      <trkpt lat="42.3262410" lon="-8.6062470">
        <ele>67.2</ele>
        <time>2021-05-21T07:56:45Z</time>
      </trkpt>
      <trkpt lat="42.3262600" lon="-8.6062490">
        <ele>67.1</ele>
        <time>2021-05-21T07:56:46Z</time>
      </trkpt>
      <trkpt lat="42.3262690" lon="-8.6062490">
        <ele>67.0</ele>
        <time>2021-05-21T07:56:47Z</time>
      </trkpt>
      <trkpt lat="42.3262790" lon="-8.6062490">
        <ele>66.9</ele>
        <time>2021-05-21T07:56:48Z</time>
      </trkpt>
      <trkpt lat="42.3263000" lon="-8.6062520">
        <ele>66.8</ele>
        <time>2021-05-21T07:56:49Z</time>
      </trkpt>
      <trkpt lat="42.3263090" lon="-8.6062550">
        <ele>66.7</ele>
        <time>2021-05-21T07:56:50Z</time>
      </trkpt>
      <trkpt lat="42.3263180" lon="-8.6062570">
        <ele>66.6</ele>
        <time>2021-05-21T07:56:51Z</time>
      </trkpt>
      <trkpt lat="42.3263330" lon="-8.6062520">
        <ele>66.5</ele>
        <time>2021-05-21T07:56:52Z</time>
      </trkpt>
      <trkpt lat="42.3263500" lon="-8.6062530">
        <ele>66.4</ele>
        <time>2021-05-21T07:56:53Z</time>
      </trkpt>
      <trkpt lat="42.3263570" lon="-8.6062480">
        <ele>66.3</ele>
        <time>2021-05-21T07:56:54Z</time>
      </trkpt>
      <trkpt lat="42.3263700" lon="-8.6062410">
        <ele>66.2</ele>
        <time>2021-05-21T07:56:55Z</time>
      </trkpt>
      <trkpt lat="42.3263790" lon="-8.6062390">
        <ele>66.2</ele>
        <time>2021-05-21T07:56:56Z</time>
      </trkpt>
      <trkpt lat="42.3263980" lon="-8.6062360">
        <ele>66.1</ele>
        <time>2021-05-21T07:56:57Z</time>
      </trkpt>
      <trkpt lat="42.3264080" lon="-8.6062350">
        <ele>66.0</ele>
        <time>2021-05-21T07:56:58Z</time>
      </trkpt>
      <trkpt lat="42.3264170" lon="-8.6062340">
        <ele>65.9</ele>
        <time>2021-05-21T07:56:59Z</time>
      </trkpt>
      <trkpt lat="42.3264280" lon="-8.6062300">
        <ele>65.8</ele>
        <time>2021-05-21T07:57:00Z</time>
      </trkpt>
      <trkpt lat="42.3264380" lon="-8.6062270">
        <ele>65.8</ele>
        <time>2021-05-21T07:57:01Z</time>
      </trkpt>
      <trkpt lat="42.3264490" lon="-8.6062230">
        <ele>65.7</ele>
        <time>2021-05-21T07:57:02Z</time>
      </trkpt>
      <trkpt lat="42.3264580" lon="-8.6062150">
        <ele>65.6</ele>
        <time>2021-05-21T07:57:03Z</time>
      </trkpt>
      <trkpt lat="42.3264640" lon="-8.6062090">
        <ele>65.6</ele>
        <time>2021-05-21T07:57:04Z</time>
      </trkpt>
      <trkpt lat="42.3264770" lon="-8.6062080">
        <ele>65.5</ele>
        <time>2021-05-21T07:57:05Z</time>
      </trkpt>
      <trkpt lat="42.3264970" lon="-8.6062000">
        <ele>65.3</ele>
        <time>2021-05-21T07:57:06Z</time>
      </trkpt>
      <trkpt lat="42.3265060" lon="-8.6061970">
        <ele>65.2</ele>
        <time>2021-05-21T07:57:07Z</time>
      </trkpt>
      <trkpt lat="42.3265160" lon="-8.6061950">
        <ele>65.2</ele>
        <time>2021-05-21T07:57:08Z</time>
      </trkpt>
      <trkpt lat="42.3265280" lon="-8.6061930">
        <ele>65.1</ele>
        <time>2021-05-21T07:57:09Z</time>
      </trkpt>
      <trkpt lat="42.3265270" lon="-8.6062000">
        <ele>65.1</ele>
        <time>2021-05-21T07:57:10Z</time>
      </trkpt>
      <trkpt lat="42.3265390" lon="-8.6061950">
        <ele>65.0</ele>
        <time>2021-05-21T07:57:11Z</time>
      </trkpt>
      <trkpt lat="42.3265460" lon="-8.6061990">
        <ele>64.9</ele>
        <time>2021-05-21T07:57:12Z</time>
      </trkpt>
      <trkpt lat="42.3265530" lon="-8.6061950">
        <ele>64.9</ele>
        <time>2021-05-21T07:57:13Z</time>
      </trkpt>
      <trkpt lat="42.3265680" lon="-8.6061950">
        <ele>64.8</ele>
        <time>2021-05-21T07:57:14Z</time>
      </trkpt>
      <trkpt lat="42.3265760" lon="-8.6061950">
        <ele>64.7</ele>
        <time>2021-05-21T07:57:15Z</time>
      </trkpt>
      <trkpt lat="42.3265960" lon="-8.6061900">
        <ele>64.5</ele>
        <time>2021-05-21T07:57:16Z</time>
      </trkpt>
      <trkpt lat="42.3266040" lon="-8.6061910">
        <ele>64.5</ele>
        <time>2021-05-21T07:57:17Z</time>
      </trkpt>
      <trkpt lat="42.3266120" lon="-8.6061920">
        <ele>64.4</ele>
        <time>2021-05-21T07:57:18Z</time>
      </trkpt>
      <trkpt lat="42.3266250" lon="-8.6061800">
        <ele>64.3</ele>
        <time>2021-05-21T07:57:19Z</time>
      </trkpt>
      <trkpt lat="42.3266320" lon="-8.6061740">
        <ele>64.3</ele>
        <time>2021-05-21T07:57:20Z</time>
      </trkpt>
      <trkpt lat="42.3266380" lon="-8.6061690">
        <ele>64.2</ele>
        <time>2021-05-21T07:57:21Z</time>
      </trkpt>
      <trkpt lat="42.3266450" lon="-8.6061630">
        <ele>64.1</ele>
        <time>2021-05-21T07:57:22Z</time>
      </trkpt>
      <trkpt lat="42.3266510" lon="-8.6061570">
        <ele>64.1</ele>
        <time>2021-05-21T07:57:23Z</time>
      </trkpt>
      <trkpt lat="42.3266660" lon="-8.6061400">
        <ele>63.9</ele>
        <time>2021-05-21T07:57:24Z</time>
      </trkpt>
      <trkpt lat="42.3266700" lon="-8.6061330">
        <ele>63.9</ele>
        <time>2021-05-21T07:57:25Z</time>
      </trkpt>
      <trkpt lat="42.3266730" lon="-8.6061250">
        <ele>63.8</ele>
        <time>2021-05-21T07:57:26Z</time>
      </trkpt>
      <trkpt lat="42.3266770" lon="-8.6061180">
        <ele>63.8</ele>
        <time>2021-05-21T07:57:27Z</time>
      </trkpt>
      <trkpt lat="42.3266860" lon="-8.6061020">
        <ele>63.7</ele>
        <time>2021-05-21T07:57:28Z</time>
      </trkpt>
      <trkpt lat="42.3266960" lon="-8.6060850">
        <ele>63.6</ele>
        <time>2021-05-21T07:57:29Z</time>
      </trkpt>
      <trkpt lat="42.3267170" lon="-8.6060620">
        <ele>63.3</ele>
        <time>2021-05-21T07:57:30Z</time>
      </trkpt>
      <trkpt lat="42.3267260" lon="-8.6060540">
        <ele>63.3</ele>
        <time>2021-05-21T07:57:31Z</time>
      </trkpt>
      <trkpt lat="42.3267340" lon="-8.6060470">
        <ele>63.2</ele>
        <time>2021-05-21T07:57:32Z</time>
      </trkpt>
      <trkpt lat="42.3267510" lon="-8.6060260">
        <ele>63.0</ele>
        <time>2021-05-21T07:57:33Z</time>
      </trkpt>
      <trkpt lat="42.3267580" lon="-8.6060160">
        <ele>62.9</ele>
        <time>2021-05-21T07:57:34Z</time>
      </trkpt>
      <trkpt lat="42.3267640" lon="-8.6060060">
        <ele>62.8</ele>
        <time>2021-05-21T07:57:35Z</time>
      </trkpt>
      <trkpt lat="42.3267730" lon="-8.6059910">
        <ele>62.7</ele>
        <time>2021-05-21T07:57:36Z</time>
      </trkpt>
      <trkpt lat="42.3267770" lon="-8.6059790">
        <ele>62.7</ele>
        <time>2021-05-21T07:57:37Z</time>
      </trkpt>
      <trkpt lat="42.3267890" lon="-8.6059720">
        <ele>62.6</ele>
        <time>2021-05-21T07:57:38Z</time>
      </trkpt>
      <trkpt lat="42.3268040" lon="-8.6059500">
        <ele>62.4</ele>
        <time>2021-05-21T07:57:39Z</time>
      </trkpt>
      <trkpt lat="42.3268120" lon="-8.6059420">
        <ele>62.3</ele>
        <time>2021-05-21T07:57:40Z</time>
      </trkpt>
      <trkpt lat="42.3268200" lon="-8.6059350">
        <ele>62.2</ele>
        <time>2021-05-21T07:57:41Z</time>
      </trkpt>
      <trkpt lat="42.3268300" lon="-8.6059210">
        <ele>62.1</ele>
        <time>2021-05-21T07:57:42Z</time>
      </trkpt>
      <trkpt lat="42.3268450" lon="-8.6059130">
        <ele>61.9</ele>
        <time>2021-05-21T07:57:43Z</time>
      </trkpt>
      <trkpt lat="42.3268630" lon="-8.6058950">
        <ele>61.7</ele>
        <time>2021-05-21T07:57:44Z</time>
      </trkpt>
      <trkpt lat="42.3268710" lon="-8.6058880">
        <ele>61.6</ele>
        <time>2021-05-21T07:57:45Z</time>
      </trkpt>
      <trkpt lat="42.3268780" lon="-8.6058810">
        <ele>61.6</ele>
        <time>2021-05-21T07:57:46Z</time>
      </trkpt>
      <trkpt lat="42.3268870" lon="-8.6058750">
        <ele>61.5</ele>
        <time>2021-05-21T07:57:47Z</time>
      </trkpt>
      <trkpt lat="42.3268910" lon="-8.6058660">
        <ele>61.4</ele>
        <time>2021-05-21T07:57:48Z</time>
      </trkpt>
      <trkpt lat="42.3269020" lon="-8.6058570">
        <ele>61.3</ele>
        <time>2021-05-21T07:57:49Z</time>
      </trkpt>
      <trkpt lat="42.3269150" lon="-8.6058480">
        <ele>61.2</ele>
        <time>2021-05-21T07:57:50Z</time>
      </trkpt>
      <trkpt lat="42.3269220" lon="-8.6058330">
        <ele>61.0</ele>
        <time>2021-05-21T07:57:51Z</time>
      </trkpt>
      <trkpt lat="42.3269320" lon="-8.6058280">
        <ele>61.0</ele>
        <time>2021-05-21T07:57:52Z</time>
      </trkpt>
      <trkpt lat="42.3269430" lon="-8.6058240">
        <ele>60.9</ele>
        <time>2021-05-21T07:57:53Z</time>
      </trkpt>
      <trkpt lat="42.3269550" lon="-8.6058180">
        <ele>60.7</ele>
        <time>2021-05-21T07:57:54Z</time>
      </trkpt>
      <trkpt lat="42.3269630" lon="-8.6058050">
        <ele>60.6</ele>
        <time>2021-05-21T07:57:55Z</time>
      </trkpt>
      <trkpt lat="42.3269700" lon="-8.6057940">
        <ele>60.5</ele>
        <time>2021-05-21T07:57:56Z</time>
      </trkpt>
      <trkpt lat="42.3269760" lon="-8.6057820">
        <ele>60.4</ele>
        <time>2021-05-21T07:57:57Z</time>
      </trkpt>
      <trkpt lat="42.3269790" lon="-8.6057770">
        <ele>60.4</ele>
        <time>2021-05-21T07:57:58Z</time>
      </trkpt>
      <trkpt lat="42.3269870" lon="-8.6057700">
        <ele>60.3</ele>
        <time>2021-05-21T07:57:59Z</time>
      </trkpt>
      <trkpt lat="42.3269870" lon="-8.6057630">
        <ele>60.3</ele>
        <time>2021-05-21T07:58:00Z</time>
      </trkpt>
      <trkpt lat="42.3269900" lon="-8.6057540">
        <ele>60.2</ele>
        <time>2021-05-21T07:58:01Z</time>
      </trkpt>
      <trkpt lat="42.3269870" lon="-8.6057400">
        <ele>60.1</ele>
        <time>2021-05-21T07:58:02Z</time>
      </trkpt>
      <trkpt lat="42.3269810" lon="-8.6057310">
        <ele>60.0</ele>
        <time>2021-05-21T07:58:03Z</time>
      </trkpt>
      <trkpt lat="42.3269790" lon="-8.6057230">
        <ele>60.0</ele>
        <time>2021-05-21T07:58:04Z</time>
      </trkpt>
      <trkpt lat="42.3269790" lon="-8.6057120">
        <ele>59.9</ele>
        <time>2021-05-21T07:58:05Z</time>
      </trkpt>
      <trkpt lat="42.3269810" lon="-8.6057070">
        <ele>59.9</ele>
        <time>2021-05-21T07:58:06Z</time>
      </trkpt>
      <trkpt lat="42.3269830" lon="-8.6057060">
        <ele>59.9</ele>
        <time>2021-05-21T07:58:07Z</time>
      </trkpt>
      <trkpt lat="42.3269830" lon="-8.6057040">
        <ele>59.8</ele>
        <time>2021-05-21T07:58:08Z</time>
      </trkpt>
      <trkpt lat="42.3269840" lon="-8.6056990">
        <ele>59.8</ele>
        <time>2021-05-21T07:58:09Z</time>
      </trkpt>
      <trkpt lat="42.3269870" lon="-8.6056940">
        <ele>59.8</ele>
        <time>2021-05-21T07:58:10Z</time>
      </trkpt>
      <trkpt lat="42.3269960" lon="-8.6056910">
        <ele>59.7</ele>
        <time>2021-05-21T07:58:11Z</time>
      </trkpt>
      <trkpt lat="42.3270040" lon="-8.6056750">
        <ele>59.6</ele>
        <time>2021-05-21T07:58:12Z</time>
      </trkpt>
      <trkpt lat="42.3270130" lon="-8.6056650">
        <ele>59.5</ele>
        <time>2021-05-21T07:58:13Z</time>
      </trkpt>
      <trkpt lat="42.3270160" lon="-8.6056560">
        <ele>59.4</ele>
        <time>2021-05-21T07:58:14Z</time>
      </trkpt>
      <trkpt lat="42.3270190" lon="-8.6056500">
        <ele>59.3</ele>
        <time>2021-05-21T07:58:15Z</time>
      </trkpt>
      <trkpt lat="42.3270210" lon="-8.6056480">
        <ele>59.3</ele>
        <time>2021-05-21T07:58:16Z</time>
      </trkpt>
      <trkpt lat="42.3270240" lon="-8.6056480">
        <ele>59.3</ele>
        <time>2021-05-21T07:58:17Z</time>
      </trkpt>
      <trkpt lat="42.3270320" lon="-8.6056430">
        <ele>59.2</ele>
        <time>2021-05-21T07:58:18Z</time>
      </trkpt>
      <trkpt lat="42.3270340" lon="-8.6056450">
        <ele>59.2</ele>
        <time>2021-05-21T07:58:19Z</time>
      </trkpt>
      <trkpt lat="42.3270370" lon="-8.6056460">
        <ele>59.2</ele>
        <time>2021-05-21T07:58:20Z</time>
      </trkpt>
      <trkpt lat="42.3270340" lon="-8.6056440">
        <ele>59.1</ele>
        <time>2021-05-21T07:58:21Z</time>
      </trkpt>
      <trkpt lat="42.3270280" lon="-8.6056400">
        <ele>59.1</ele>
        <time>2021-05-21T07:58:22Z</time>
      </trkpt>
      <trkpt lat="42.3270270" lon="-8.6056420">
        <ele>59.1</ele>
        <time>2021-05-21T07:58:23Z</time>
      </trkpt>
      <trkpt lat="42.3270180" lon="-8.6056400">
        <ele>59.0</ele>
        <time>2021-05-21T07:58:24Z</time>
      </trkpt>
      <trkpt lat="42.3270190" lon="-8.6056410">
        <ele>59.0</ele>
        <time>2021-05-21T07:58:25Z</time>
      </trkpt>
      <trkpt lat="42.3270190" lon="-8.6056400">
        <ele>59.0</ele>
        <time>2021-05-21T07:58:26Z</time>
      </trkpt>
      <trkpt lat="42.3270150" lon="-8.6056360">
        <ele>58.9</ele>
        <time>2021-05-21T07:58:27Z</time>
      </trkpt>
      <trkpt lat="42.3270180" lon="-8.6056380">
        <ele>58.9</ele>
        <time>2021-05-21T07:58:28Z</time>
      </trkpt>
      <trkpt lat="42.3270220" lon="-8.6056400">
        <ele>58.9</ele>
        <time>2021-05-21T07:58:29Z</time>
      </trkpt>
      <trkpt lat="42.3270260" lon="-8.6056390">
        <ele>58.8</ele>
        <time>2021-05-21T07:58:30Z</time>
      </trkpt>
      <trkpt lat="42.3270320" lon="-8.6056390">
        <ele>58.8</ele>
        <time>2021-05-21T07:58:31Z</time>
      </trkpt>
      <trkpt lat="42.3270340" lon="-8.6056390">
        <ele>58.7</ele>
        <time>2021-05-21T07:58:32Z</time>
      </trkpt>
      <trkpt lat="42.3270360" lon="-8.6056390">
        <ele>58.7</ele>
        <time>2021-05-21T07:58:33Z</time>
      </trkpt>
      <trkpt lat="42.3270290" lon="-8.6056390">
        <ele>58.7</ele>
        <time>2021-05-21T07:58:34Z</time>
      </trkpt>
      <trkpt lat="42.3270200" lon="-8.6056400">
        <ele>58.6</ele>
        <time>2021-05-21T07:58:35Z</time>
      </trkpt>
      <trkpt lat="42.3270220" lon="-8.6056390">
        <ele>58.6</ele>
        <time>2021-05-21T07:58:36Z</time>
      </trkpt>
      <trkpt lat="42.3270280" lon="-8.6056390">
        <ele>58.5</ele>
        <time>2021-05-21T07:58:37Z</time>
      </trkpt>
      <trkpt lat="42.3270250" lon="-8.6056380">
        <ele>58.5</ele>
        <time>2021-05-21T07:58:38Z</time>
      </trkpt>
      <trkpt lat="42.3270240" lon="-8.6056340">
        <ele>58.5</ele>
        <time>2021-05-21T07:58:39Z</time>
      </trkpt>
      <trkpt lat="42.3270270" lon="-8.6056330">
        <ele>58.4</ele>
        <time>2021-05-21T07:58:40Z</time>
      </trkpt>
      <trkpt lat="42.3270360" lon="-8.6056350">
        <ele>58.4</ele>
        <time>2021-05-21T07:58:41Z</time>
      </trkpt>
      <trkpt lat="42.3270360" lon="-8.6056370">
        <ele>58.3</ele>
        <time>2021-05-21T07:58:42Z</time>
      </trkpt>
      <trkpt lat="42.3270420" lon="-8.6056380">
        <ele>58.3</ele>
        <time>2021-05-21T07:58:43Z</time>
      </trkpt>
      <trkpt lat="42.3270440" lon="-8.6056410">
        <ele>58.3</ele>
        <time>2021-05-21T07:58:44Z</time>
      </trkpt>
      <trkpt lat="42.3270510" lon="-8.6056400">
        <ele>58.2</ele>
        <time>2021-05-21T07:58:45Z</time>
      </trkpt>
      <trkpt lat="42.3270470" lon="-8.6056390">
        <ele>58.2</ele>
        <time>2021-05-21T07:58:46Z</time>
      </trkpt>
      <trkpt lat="42.3270450" lon="-8.6056360">
        <ele>58.1</ele>
        <time>2021-05-21T07:58:47Z</time>
      </trkpt>
      <trkpt lat="42.3270420" lon="-8.6056340">
        <ele>58.1</ele>
        <time>2021-05-21T07:58:48Z</time>
      </trkpt>
      <trkpt lat="42.3270390" lon="-8.6056310">
        <ele>58.1</ele>
        <time>2021-05-21T07:58:49Z</time>
      </trkpt>
      <trkpt lat="42.3270360" lon="-8.6056290">
        <ele>58.0</ele>
        <time>2021-05-21T07:58:50Z</time>
      </trkpt>
      <trkpt lat="42.3270340" lon="-8.6056260">
        <ele>58.0</ele>
        <time>2021-05-21T07:58:51Z</time>
      </trkpt>
      <trkpt lat="42.3270310" lon="-8.6056240">
        <ele>58.0</ele>
        <time>2021-05-21T07:58:52Z</time>
      </trkpt>
      <trkpt lat="42.3270280" lon="-8.6056210">
        <ele>57.9</ele>
        <time>2021-05-21T07:58:53Z</time>
      </trkpt>
      <trkpt lat="42.3270250" lon="-8.6056190">
        <ele>57.9</ele>
        <time>2021-05-21T07:58:54Z</time>
      </trkpt>
      <trkpt lat="42.3270230" lon="-8.6056160">
        <ele>57.9</ele>
        <time>2021-05-21T07:58:55Z</time>
      </trkpt>
      <trkpt lat="42.3270200" lon="-8.6056140">
        <ele>57.8</ele>
        <time>2021-05-21T07:58:56Z</time>
      </trkpt>
      <trkpt lat="42.3270070" lon="-8.6056000">
        <ele>57.7</ele>
        <time>2021-05-21T07:58:57Z</time>
      </trkpt>
      <trkpt lat="42.3270080" lon="-8.6055960">
        <ele>57.7</ele>
        <time>2021-05-21T07:58:58Z</time>
      </trkpt>
      <trkpt lat="42.3270060" lon="-8.6055950">
        <ele>57.6</ele>
        <time>2021-05-21T07:58:59Z</time>
      </trkpt>
      <trkpt lat="42.3270080" lon="-8.6055970">
        <ele>57.6</ele>
        <time>2021-05-21T07:59:00Z</time>
      </trkpt>
      <trkpt lat="42.3270130" lon="-8.6056100">
        <ele>57.5</ele>
        <time>2021-05-21T07:59:01Z</time>
      </trkpt>
      <trkpt lat="42.3270140" lon="-8.6056160">
        <ele>57.5</ele>
        <time>2021-05-21T07:59:02Z</time>
      </trkpt>
      <trkpt lat="42.3270150" lon="-8.6056280">
        <ele>57.4</ele>
        <time>2021-05-21T07:59:03Z</time>
      </trkpt>
      <trkpt lat="42.3270180" lon="-8.6056410">
        <ele>57.3</ele>
        <time>2021-05-21T07:59:04Z</time>
      </trkpt>
      <trkpt lat="42.3270200" lon="-8.6056470">
        <ele>57.3</ele>
        <time>2021-05-21T07:59:05Z</time>
      </trkpt>
      <trkpt lat="42.3270240" lon="-8.6056490">
        <ele>57.2</ele>
        <time>2021-05-21T07:59:06Z</time>
      </trkpt>
      <trkpt lat="42.3270260" lon="-8.6056540">
        <ele>57.2</ele>
        <time>2021-05-21T07:59:07Z</time>
      </trkpt>
      <trkpt lat="42.3270310" lon="-8.6056690">
        <ele>57.1</ele>
        <time>2021-05-21T07:59:08Z</time>
      </trkpt>
      <trkpt lat="42.3270340" lon="-8.6056760">
        <ele>57.0</ele>
        <time>2021-05-21T07:59:09Z</time>
      </trkpt>
      <trkpt lat="42.3270390" lon="-8.6056800">
        <ele>56.9</ele>
        <time>2021-05-21T07:59:10Z</time>
      </trkpt>
      <trkpt lat="42.3270430" lon="-8.6056890">
        <ele>56.9</ele>
        <time>2021-05-21T07:59:11Z</time>
      </trkpt>
      <trkpt lat="42.3270460" lon="-8.6056920">
        <ele>56.8</ele>
        <time>2021-05-21T07:59:12Z</time>
      </trkpt>
      <trkpt lat="42.3270470" lon="-8.6057000">
        <ele>56.8</ele>
        <time>2021-05-21T07:59:13Z</time>
      </trkpt>
      <trkpt lat="42.3270460" lon="-8.6057030">
        <ele>56.8</ele>
        <time>2021-05-21T07:59:14Z</time>
      </trkpt>
      <trkpt lat="42.3270460" lon="-8.6057050">
        <ele>56.8</ele>
        <time>2021-05-21T07:59:15Z</time>
      </trkpt>
      <trkpt lat="42.3270490" lon="-8.6057090">
        <ele>56.7</ele>
        <time>2021-05-21T07:59:16Z</time>
      </trkpt>
      <trkpt lat="42.3270500" lon="-8.6057060">
        <ele>56.7</ele>
        <time>2021-05-21T07:59:17Z</time>
      </trkpt>
      <trkpt lat="42.3270490" lon="-8.6057170">
        <ele>56.6</ele>
        <time>2021-05-21T07:59:18Z</time>
      </trkpt>
      <trkpt lat="42.3270480" lon="-8.6057330">
        <ele>56.5</ele>
        <time>2021-05-21T07:59:19Z</time>
      </trkpt>
      <trkpt lat="42.3270450" lon="-8.6057430">
        <ele>56.4</ele>
        <time>2021-05-21T07:59:20Z</time>
      </trkpt>
      <trkpt lat="42.3270430" lon="-8.6057390">
        <ele>56.4</ele>
        <time>2021-05-21T07:59:21Z</time>
      </trkpt>
      <trkpt lat="42.3270400" lon="-8.6057330">
        <ele>56.3</ele>
        <time>2021-05-21T07:59:22Z</time>
      </trkpt>
      <trkpt lat="42.3270390" lon="-8.6057290">
        <ele>56.3</ele>
        <time>2021-05-21T07:59:23Z</time>
      </trkpt>
      <trkpt lat="42.3270370" lon="-8.6057190">
        <ele>56.2</ele>
        <time>2021-05-21T07:59:24Z</time>
      </trkpt>
      <trkpt lat="42.3270360" lon="-8.6057090">
        <ele>56.2</ele>
        <time>2021-05-21T07:59:25Z</time>
      </trkpt>
      <trkpt lat="42.3270380" lon="-8.6056930">
        <ele>56.0</ele>
        <time>2021-05-21T07:59:26Z</time>
      </trkpt>
      <trkpt lat="42.3270460" lon="-8.6056850">
        <ele>55.9</ele>
        <time>2021-05-21T07:59:27Z</time>
      </trkpt>
      <trkpt lat="42.3270420" lon="-8.6056880">
        <ele>55.9</ele>
        <time>2021-05-21T07:59:28Z</time>
      </trkpt>
      <trkpt lat="42.3270480" lon="-8.6057010">
        <ele>55.8</ele>
        <time>2021-05-21T07:59:29Z</time>
      </trkpt>
      <trkpt lat="42.3270550" lon="-8.6057060">
        <ele>55.7</ele>
        <time>2021-05-21T07:59:30Z</time>
      </trkpt>
      <trkpt lat="42.3270570" lon="-8.6057070">
        <ele>55.7</ele>
        <time>2021-05-21T07:59:31Z</time>
      </trkpt>
      <trkpt lat="42.3270590" lon="-8.6057090">
        <ele>55.7</ele>
        <time>2021-05-21T07:59:32Z</time>
      </trkpt>
      <trkpt lat="42.3270680" lon="-8.6057050">
        <ele>55.6</ele>
        <time>2021-05-21T07:59:33Z</time>
      </trkpt>
      <trkpt lat="42.3270810" lon="-8.6057050">
        <ele>55.4</ele>
        <time>2021-05-21T07:59:34Z</time>
      </trkpt>
      <trkpt lat="42.3270910" lon="-8.6057060">
        <ele>55.3</ele>
        <time>2021-05-21T07:59:35Z</time>
      </trkpt>
      <trkpt lat="42.3270960" lon="-8.6057070">
        <ele>55.3</ele>
        <time>2021-05-21T07:59:36Z</time>
      </trkpt>
      <trkpt lat="42.3271030" lon="-8.6056940">
        <ele>55.2</ele>
        <time>2021-05-21T07:59:37Z</time>
      </trkpt>
      <trkpt lat="42.3271030" lon="-8.6056770">
        <ele>55.1</ele>
        <time>2021-05-21T07:59:38Z</time>
      </trkpt>
      <trkpt lat="42.3271000" lon="-8.6056690">
        <ele>55.0</ele>
        <time>2021-05-21T07:59:39Z</time>
      </trkpt>
      <trkpt lat="42.3270970" lon="-8.6056600">
        <ele>54.9</ele>
        <time>2021-05-21T07:59:40Z</time>
      </trkpt>
      <trkpt lat="42.3270870" lon="-8.6056570">
        <ele>54.8</ele>
        <time>2021-05-21T07:59:41Z</time>
      </trkpt>
      <trkpt lat="42.3270800" lon="-8.6056570">
        <ele>54.7</ele>
        <time>2021-05-21T07:59:42Z</time>
      </trkpt>
      <trkpt lat="42.3270740" lon="-8.6056600">
        <ele>54.7</ele>
        <time>2021-05-21T07:59:43Z</time>
      </trkpt>
      <trkpt lat="42.3270690" lon="-8.6056580">
        <ele>54.6</ele>
        <time>2021-05-21T07:59:44Z</time>
      </trkpt>
      <trkpt lat="42.3270680" lon="-8.6056650">
        <ele>54.6</ele>
        <time>2021-05-21T07:59:45Z</time>
      </trkpt>
      <trkpt lat="42.3270660" lon="-8.6056650">
        <ele>54.5</ele>
        <time>2021-05-21T07:59:46Z</time>
      </trkpt>
      <trkpt lat="42.3270670" lon="-8.6056640">
        <ele>54.5</ele>
        <time>2021-05-21T07:59:47Z</time>
      </trkpt>
      <trkpt lat="42.3270620" lon="-8.6056700">
        <ele>54.4</ele>
        <time>2021-05-21T07:59:48Z</time>
      </trkpt>
      <trkpt lat="42.3270700" lon="-8.6056740">
        <ele>54.4</ele>
        <time>2021-05-21T07:59:49Z</time>
      </trkpt>
      <trkpt lat="42.3270700" lon="-8.6056750">
        <ele>54.4</ele>
        <time>2021-05-21T07:59:50Z</time>
      </trkpt>
      <trkpt lat="42.3270640" lon="-8.6056720">
        <ele>54.3</ele>
        <time>2021-05-21T07:59:51Z</time>
      </trkpt>
      <trkpt lat="42.3270620" lon="-8.6056810">
        <ele>54.2</ele>
        <time>2021-05-21T07:59:52Z</time>
      </trkpt>
      <trkpt lat="42.3270660" lon="-8.6056880">
        <ele>54.1</ele>
        <time>2021-05-21T07:59:53Z</time>
      </trkpt>
      <trkpt lat="42.3270610" lon="-8.6056910">
        <ele>54.1</ele>
        <time>2021-05-21T07:59:54Z</time>
      </trkpt>
      <trkpt lat="42.3270570" lon="-8.6056940">
        <ele>54.0</ele>
        <time>2021-05-21T07:59:55Z</time>
      </trkpt>
      <trkpt lat="42.3270560" lon="-8.6056970">
        <ele>54.0</ele>
        <time>2021-05-21T07:59:56Z</time>
      </trkpt>
      <trkpt lat="42.3270540" lon="-8.6056930">
        <ele>54.0</ele>
        <time>2021-05-21T07:59:57Z</time>
      </trkpt>
      <trkpt lat="42.3270530" lon="-8.6056940">
        <ele>54.0</ele>
        <time>2021-05-21T07:59:58Z</time>
      </trkpt>
      <trkpt lat="42.3270580" lon="-8.6057020">
        <ele>53.9</ele>
        <time>2021-05-21T07:59:59Z</time>
      </trkpt>
      <trkpt lat="42.3270570" lon="-8.6057030">
        <ele>53.9</ele>
        <time>2021-05-21T08:00:00Z</time>
      </trkpt>
      <trkpt lat="42.3270530" lon="-8.6056980">
        <ele>53.8</ele>
        <time>2021-05-21T08:00:01Z</time>
      </trkpt>
      <trkpt lat="42.3270500" lon="-8.6056940">
        <ele>53.8</ele>
        <time>2021-05-21T08:00:02Z</time>
      </trkpt>
      <trkpt lat="42.3270470" lon="-8.6056910">
        <ele>53.7</ele>
        <time>2021-05-21T08:00:03Z</time>
      </trkpt>
      <trkpt lat="42.3270480" lon="-8.6056840">
        <ele>53.7</ele>
        <time>2021-05-21T08:00:04Z</time>
      </trkpt>
      <trkpt lat="42.3270500" lon="-8.6056820">
        <ele>53.6</ele>
        <time>2021-05-21T08:00:05Z</time>
      </trkpt>
      <trkpt lat="42.3270510" lon="-8.6056820">
        <ele>53.6</ele>
        <time>2021-05-21T08:00:06Z</time>
      </trkpt>
      <trkpt lat="42.3270590" lon="-8.6056770">
        <ele>53.5</ele>
        <time>2021-05-21T08:00:07Z</time>
      </trkpt>
      <trkpt lat="42.3270610" lon="-8.6056760">
        <ele>53.5</ele>
        <time>2021-05-21T08:00:08Z</time>
      </trkpt>
      <trkpt lat="42.3270640" lon="-8.6056790">
        <ele>53.5</ele>
        <time>2021-05-21T08:00:09Z</time>
      </trkpt>
      <trkpt lat="42.3270630" lon="-8.6056800">
        <ele>53.5</ele>
        <time>2021-05-21T08:00:10Z</time>
      </trkpt>
      <trkpt lat="42.3270620" lon="-8.6056830">
        <ele>53.4</ele>
        <time>2021-05-21T08:00:11Z</time>
      </trkpt>
      <trkpt lat="42.3270620" lon="-8.6056830">
        <ele>53.4</ele>
        <time>2021-05-21T08:00:12Z</time>
      </trkpt>
      <trkpt lat="42.3270520" lon="-8.6056720">
        <ele>53.3</ele>
        <time>2021-05-21T08:00:13Z</time>
      </trkpt>
      <trkpt lat="42.3270530" lon="-8.6056720">
        <ele>53.3</ele>
        <time>2021-05-21T08:00:14Z</time>
      </trkpt>
      <trkpt lat="42.3270470" lon="-8.6056730">
        <ele>53.2</ele>
        <time>2021-05-21T08:00:15Z</time>
      </trkpt>
      <trkpt lat="42.3270450" lon="-8.6056740">
        <ele>53.2</ele>
        <time>2021-05-21T08:00:16Z</time>
      </trkpt>
      <trkpt lat="42.3270530" lon="-8.6056780">
        <ele>53.1</ele>
        <time>2021-05-21T08:00:17Z</time>
      </trkpt>
      <trkpt lat="42.3270560" lon="-8.6056830">
        <ele>53.1</ele>
        <time>2021-05-21T08:00:18Z</time>
      </trkpt>
      <trkpt lat="42.3270610" lon="-8.6056970">
        <ele>52.9</ele>
        <time>2021-05-21T08:00:19Z</time>
      </trkpt>
      <trkpt lat="42.3270600" lon="-8.6056980">
        <ele>52.9</ele>
        <time>2021-05-21T08:00:20Z</time>
      </trkpt>
      <trkpt lat="42.3270600" lon="-8.6057010">
        <ele>52.9</ele>
        <time>2021-05-21T08:00:21Z</time>
      </trkpt>
      <trkpt lat="42.3270590" lon="-8.6057040">
        <ele>52.9</ele>
        <time>2021-05-21T08:00:22Z</time>
      </trkpt>
      <trkpt lat="42.3270550" lon="-8.6057020">
        <ele>52.8</ele>
        <time>2021-05-21T08:00:23Z</time>
      </trkpt>
      <trkpt lat="42.3270540" lon="-8.6057020">
        <ele>52.8</ele>
        <time>2021-05-21T08:00:24Z</time>
      </trkpt>
      <trkpt lat="42.3270520" lon="-8.6056970">
        <ele>52.8</ele>
        <time>2021-05-21T08:00:25Z</time>
      </trkpt>
      <trkpt lat="42.3270500" lon="-8.6057030">
        <ele>52.7</ele>
        <time>2021-05-21T08:00:26Z</time>
      </trkpt>
      <trkpt lat="42.3270340" lon="-8.6057000">
        <ele>52.5</ele>
        <time>2021-05-21T08:00:27Z</time>
      </trkpt>
      <trkpt lat="42.3270380" lon="-8.6057080">
        <ele>52.5</ele>
        <time>2021-05-21T08:00:28Z</time>
      </trkpt>
      <trkpt lat="42.3270430" lon="-8.6057080">
        <ele>52.4</ele>
        <time>2021-05-21T08:00:29Z</time>
      </trkpt>
      <trkpt lat="42.3270430" lon="-8.6057000">
        <ele>52.3</ele>
        <time>2021-05-21T08:00:30Z</time>
      </trkpt>
      <trkpt lat="42.3270500" lon="-8.6056940">
        <ele>52.3</ele>
        <time>2021-05-21T08:00:31Z</time>
      </trkpt>
      <trkpt lat="42.3270540" lon="-8.6057010">
        <ele>52.2</ele>
        <time>2021-05-21T08:00:32Z</time>
      </trkpt>
      <trkpt lat="42.3270570" lon="-8.6057030">
        <ele>52.2</ele>
        <time>2021-05-21T08:00:33Z</time>
      </trkpt>
      <trkpt lat="42.3270620" lon="-8.6057110">
        <ele>52.1</ele>
        <time>2021-05-21T08:00:35Z</time>
      </trkpt>
      <trkpt lat="42.3270700" lon="-8.6057140">
        <ele>52.0</ele>
        <time>2021-05-21T08:00:36Z</time>
      </trkpt>
      <trkpt lat="42.3270730" lon="-8.6057170">
        <ele>51.9</ele>
        <time>2021-05-21T08:00:37Z</time>
      </trkpt>
      <trkpt lat="42.3270750" lon="-8.6057210">
        <ele>51.9</ele>
        <time>2021-05-21T08:00:38Z</time>
      </trkpt>
      <trkpt lat="42.3270810" lon="-8.6057260">
        <ele>51.8</ele>
        <time>2021-05-21T08:00:39Z</time>
      </trkpt>
      <trkpt lat="42.3270860" lon="-8.6057290">
        <ele>51.8</ele>
        <time>2021-05-21T08:00:40Z</time>
      </trkpt>
      <trkpt lat="42.3270900" lon="-8.6057330">
        <ele>51.7</ele>
        <time>2021-05-21T08:00:41Z</time>
      </trkpt>
      <trkpt lat="42.3270950" lon="-8.6057370">
        <ele>51.7</ele>
        <time>2021-05-21T08:00:42Z</time>
      </trkpt>
      <trkpt lat="42.3270880" lon="-8.6057370">
        <ele>51.6</ele>
        <time>2021-05-21T08:00:43Z</time>
      </trkpt>
      <trkpt lat="42.3270930" lon="-8.6057380">
        <ele>51.5</ele>
        <time>2021-05-21T08:00:44Z</time>
      </trkpt>
      <trkpt lat="42.3270960" lon="-8.6057400">
        <ele>51.5</ele>
        <time>2021-05-21T08:00:45Z</time>
      </trkpt>
      <trkpt lat="42.3271000" lon="-8.6057410">
        <ele>51.5</ele>
        <time>2021-05-21T08:00:46Z</time>
      </trkpt>
      <trkpt lat="42.3271010" lon="-8.6057410">
        <ele>51.4</ele>
        <time>2021-05-21T08:00:47Z</time>
      </trkpt>
      <trkpt lat="42.3271070" lon="-8.6057270">
        <ele>51.3</ele>
        <time>2021-05-21T08:00:48Z</time>
      </trkpt>
      <trkpt lat="42.3271080" lon="-8.6057150">
        <ele>51.2</ele>
        <time>2021-05-21T08:00:49Z</time>
      </trkpt>
      <trkpt lat="42.3271060" lon="-8.6057110">
        <ele>51.2</ele>
        <time>2021-05-21T08:00:50Z</time>
      </trkpt>
      <trkpt lat="42.3271020" lon="-8.6057070">
        <ele>51.1</ele>
        <time>2021-05-21T08:00:51Z</time>
      </trkpt>
      <trkpt lat="42.3271000" lon="-8.6057030">
        <ele>51.1</ele>
        <time>2021-05-21T08:00:52Z</time>
      </trkpt>
      <trkpt lat="42.3270880" lon="-8.6056970">
        <ele>51.0</ele>
        <time>2021-05-21T08:00:53Z</time>
      </trkpt>
      <trkpt lat="42.3270830" lon="-8.6056910">
        <ele>50.9</ele>
        <time>2021-05-21T08:00:54Z</time>
      </trkpt>
      <trkpt lat="42.3270800" lon="-8.6056970">
        <ele>50.8</ele>
        <time>2021-05-21T08:00:55Z</time>
      </trkpt>
      <trkpt lat="42.3270750" lon="-8.6057060">
        <ele>50.7</ele>
        <time>2021-05-21T08:00:56Z</time>
      </trkpt>
      <trkpt lat="42.3270650" lon="-8.6057150">
        <ele>50.6</ele>
        <time>2021-05-21T08:00:57Z</time>
      </trkpt>
      <trkpt lat="42.3270570" lon="-8.6057200">
        <ele>50.5</ele>
        <time>2021-05-21T08:00:58Z</time>
      </trkpt>
      <trkpt lat="42.3270350" lon="-8.6057330">
        <ele>50.3</ele>
        <time>2021-05-21T08:00:59Z</time>
      </trkpt>
      <trkpt lat="42.3270220" lon="-8.6057350">
        <ele>50.2</ele>
        <time>2021-05-21T08:01:00Z</time>
      </trkpt>
      <trkpt lat="42.3270230" lon="-8.6057360">
        <ele>50.1</ele>
        <time>2021-05-21T08:01:01Z</time>
      </trkpt>
      <trkpt lat="42.3270220" lon="-8.6057400">
        <ele>50.1</ele>
        <time>2021-05-21T08:01:02Z</time>
      </trkpt>
      <trkpt lat="42.3270210" lon="-8.6057360">
        <ele>50.1</ele>
        <time>2021-05-21T08:01:03Z</time>
      </trkpt>
      <trkpt lat="42.3270180" lon="-8.6057330">
        <ele>50.0</ele>
        <time>2021-05-21T08:01:04Z</time>
      </trkpt>
      <trkpt lat="42.3270140" lon="-8.6057290">
        <ele>50.0</ele>
        <time>2021-05-21T08:01:05Z</time>
      </trkpt>
      <trkpt lat="42.3270080" lon="-8.6057220">
        <ele>49.9</ele>
        <time>2021-05-21T08:01:06Z</time>
      </trkpt>
      <trkpt lat="42.3270000" lon="-8.6057150">
        <ele>49.8</ele>
        <time>2021-05-21T08:01:07Z</time>
      </trkpt>
      <trkpt lat="42.3269980" lon="-8.6057140">
        <ele>49.8</ele>
        <time>2021-05-21T08:01:08Z</time>
      </trkpt>
      <trkpt lat="42.3269950" lon="-8.6057030">
        <ele>49.7</ele>
        <time>2021-05-21T08:01:09Z</time>
      </trkpt>
      <trkpt lat="42.3269960" lon="-8.6056950">
        <ele>49.7</ele>
        <time>2021-05-21T08:01:10Z</time>
      </trkpt>
      <trkpt lat="42.3269950" lon="-8.6056880">
        <ele>49.6</ele>
        <time>2021-05-21T08:01:11Z</time>
      </trkpt>
      <trkpt lat="42.3269900" lon="-8.6056870">
        <ele>49.6</ele>
        <time>2021-05-21T08:01:12Z</time>
      </trkpt>
      <trkpt lat="42.3269880" lon="-8.6056830">
        <ele>49.5</ele>
        <time>2021-05-21T08:01:13Z</time>
      </trkpt>
      <trkpt lat="42.3269880" lon="-8.6056840">
        <ele>49.5</ele>
        <time>2021-05-21T08:01:14Z</time>
      </trkpt>
      <trkpt lat="42.3269910" lon="-8.6056820">
        <ele>49.5</ele>
        <time>2021-05-21T08:01:15Z</time>
      </trkpt>
      <trkpt lat="42.3269890" lon="-8.6056840">
        <ele>49.5</ele>
        <time>2021-05-21T08:01:16Z</time>
      </trkpt>
      <trkpt lat="42.3269910" lon="-8.6056870">
        <ele>49.4</ele>
        <time>2021-05-21T08:01:17Z</time>
      </trkpt>
      <trkpt lat="42.3269880" lon="-8.6056870">
        <ele>49.4</ele>
        <time>2021-05-21T08:01:18Z</time>
      </trkpt>
      <trkpt lat="42.3269910" lon="-8.6056850">
        <ele>49.4</ele>
        <time>2021-05-21T08:01:19Z</time>
      </trkpt>
      <trkpt lat="42.3270010" lon="-8.6056900">
        <ele>49.3</ele>
        <time>2021-05-21T08:01:20Z</time>
      </trkpt>
      <trkpt lat="42.3270090" lon="-8.6056950">
        <ele>49.2</ele>
        <time>2021-05-21T08:01:21Z</time>
      </trkpt>
      <trkpt lat="42.3270050" lon="-8.6056980">
        <ele>49.2</ele>
        <time>2021-05-21T08:01:22Z</time>
      </trkpt>
      <trkpt lat="42.3270100" lon="-8.6056950">
        <ele>49.1</ele>
        <time>2021-05-21T08:01:23Z</time>
      </trkpt>
      <trkpt lat="42.3270100" lon="-8.6056970">
        <ele>49.1</ele>
        <time>2021-05-21T08:01:24Z</time>
      </trkpt>
      <trkpt lat="42.3270090" lon="-8.6056980">
        <ele>49.1</ele>
        <time>2021-05-21T08:01:25Z</time>
      </trkpt>
      <trkpt lat="42.3270090" lon="-8.6056980">
        <ele>49.1</ele>
        <time>2021-05-21T08:01:26Z</time>
      </trkpt>
      <trkpt lat="42.3270040" lon="-8.6056970">
        <ele>49.0</ele>
        <time>2021-05-21T08:01:27Z</time>
      </trkpt>
      <trkpt lat="42.3270060" lon="-8.6056950">
        <ele>49.0</ele>
        <time>2021-05-21T08:01:28Z</time>
      </trkpt>
      <trkpt lat="42.3270090" lon="-8.6056950">
        <ele>49.0</ele>
        <time>2021-05-21T08:01:29Z</time>
      </trkpt>
      <trkpt lat="42.3270090" lon="-8.6056950">
        <ele>49.0</ele>
        <time>2021-05-21T08:01:30Z</time>
      </trkpt>
      <trkpt lat="42.3270130" lon="-8.6056950">
        <ele>49.0</ele>
        <time>2021-05-21T08:01:31Z</time>
      </trkpt>
      <trkpt lat="42.3270190" lon="-8.6056920">
        <ele>48.9</ele>
        <time>2021-05-21T08:01:32Z</time>
      </trkpt>
      <trkpt lat="42.3270240" lon="-8.6056880">
        <ele>48.8</ele>
        <time>2021-05-21T08:01:33Z</time>
      </trkpt>
      <trkpt lat="42.3270260" lon="-8.6056890">
        <ele>48.8</ele>
        <time>2021-05-21T08:01:34Z</time>
      </trkpt>
      <trkpt lat="42.3270190" lon="-8.6056930">
        <ele>48.8</ele>
        <time>2021-05-21T08:01:35Z</time>
      </trkpt>
      <trkpt lat="42.3270270" lon="-8.6056990">
        <ele>48.7</ele>
        <time>2021-05-21T08:01:36Z</time>
      </trkpt>
      <trkpt lat="42.3270210" lon="-8.6056940">
        <ele>48.6</ele>
        <time>2021-05-21T08:01:37Z</time>
      </trkpt>
      <trkpt lat="42.3270150" lon="-8.6056930">
        <ele>48.6</ele>
        <time>2021-05-21T08:01:38Z</time>
      </trkpt>
      <trkpt lat="42.3270100" lon="-8.6056910">
        <ele>48.5</ele>
        <time>2021-05-21T08:01:39Z</time>
      </trkpt>
      <trkpt lat="42.3270150" lon="-8.6056920">
        <ele>48.5</ele>
        <time>2021-05-21T08:01:40Z</time>
      </trkpt>
      <trkpt lat="42.3270110" lon="-8.6057010">
        <ele>48.4</ele>
        <time>2021-05-21T08:01:41Z</time>
      </trkpt>
      <trkpt lat="42.3270150" lon="-8.6056960">
        <ele>48.4</ele>
        <time>2021-05-21T08:01:42Z</time>
      </trkpt>
      <trkpt lat="42.3270160" lon="-8.6057040">
        <ele>48.3</ele>
        <time>2021-05-21T08:01:43Z</time>
      </trkpt>
      <trkpt lat="42.3270160" lon="-8.6057080">
        <ele>48.3</ele>
        <time>2021-05-21T08:01:44Z</time>
      </trkpt>
      <trkpt lat="42.3270140" lon="-8.6057100">
        <ele>48.3</ele>
        <time>2021-05-21T08:01:45Z</time>
      </trkpt>
      <trkpt lat="42.3270140" lon="-8.6057090">
        <ele>48.3</ele>
        <time>2021-05-21T08:01:46Z</time>
      </trkpt>
      <trkpt lat="42.3270140" lon="-8.6057070">
        <ele>48.3</ele>
        <time>2021-05-21T08:01:47Z</time>
      </trkpt>
      <trkpt lat="42.3270090" lon="-8.6057080">
        <ele>48.2</ele>
        <time>2021-05-21T08:01:48Z</time>
      </trkpt>
      <trkpt lat="42.3270090" lon="-8.6057090">
        <ele>48.2</ele>
        <time>2021-05-21T08:01:49Z</time>
      </trkpt>
      <trkpt lat="42.3270070" lon="-8.6057140">
        <ele>48.2</ele>
        <time>2021-05-21T08:01:50Z</time>
      </trkpt>
      <trkpt lat="42.3270080" lon="-8.6057130">
        <ele>48.2</ele>
        <time>2021-05-21T08:01:51Z</time>
      </trkpt>
      <trkpt lat="42.3270050" lon="-8.6057210">
        <ele>48.1</ele>
        <time>2021-05-21T08:01:52Z</time>
      </trkpt>
      <trkpt lat="42.3269990" lon="-8.6057200">
        <ele>48.1</ele>
        <time>2021-05-21T08:01:53Z</time>
      </trkpt>
      <trkpt lat="42.3269990" lon="-8.6057200">
        <ele>48.1</ele>
        <time>2021-05-21T08:01:54Z</time>
      </trkpt>
      <trkpt lat="42.3269900" lon="-8.6057270">
        <ele>48.0</ele>
        <time>2021-05-21T08:01:55Z</time>
      </trkpt>
      <trkpt lat="42.3269860" lon="-8.6057240">
        <ele>48.0</ele>
        <time>2021-05-21T08:01:56Z</time>
      </trkpt>
      <trkpt lat="42.3269910" lon="-8.6057180">
        <ele>47.9</ele>
        <time>2021-05-21T08:01:57Z</time>
      </trkpt>
      <trkpt lat="42.3269910" lon="-8.6057190">
        <ele>47.9</ele>
        <time>2021-05-21T08:01:58Z</time>
      </trkpt>
      <trkpt lat="42.3270000" lon="-8.6057240">
        <ele>47.9</ele>
        <time>2021-05-21T08:01:59Z</time>
      </trkpt>
      <trkpt lat="42.3269920" lon="-8.6057270">
        <ele>47.8</ele>
        <time>2021-05-21T08:02:00Z</time>
      </trkpt>
      <trkpt lat="42.3269970" lon="-8.6057300">
        <ele>47.8</ele>
        <time>2021-05-21T08:02:01Z</time>
      </trkpt>
      <trkpt lat="42.3270110" lon="-8.6057260">
        <ele>47.7</ele>
        <time>2021-05-21T08:02:02Z</time>
      </trkpt>
      <trkpt lat="42.3270230" lon="-8.6057250">
        <ele>47.6</ele>
        <time>2021-05-21T08:02:03Z</time>
      </trkpt>
      <trkpt lat="42.3270260" lon="-8.6057290">
        <ele>47.6</ele>
        <time>2021-05-21T08:02:04Z</time>
      </trkpt>
      <trkpt lat="42.3270280" lon="-8.6057340">
        <ele>47.6</ele>
        <time>2021-05-21T08:02:05Z</time>
      </trkpt>
      <trkpt lat="42.3270270" lon="-8.6057320">
        <ele>47.5</ele>
        <time>2021-05-21T08:02:06Z</time>
      </trkpt>
      <trkpt lat="42.3270260" lon="-8.6057310">
        <ele>47.5</ele>
        <time>2021-05-21T08:02:07Z</time>
      </trkpt>
      <trkpt lat="42.3270300" lon="-8.6057300">
        <ele>47.5</ele>
        <time>2021-05-21T08:02:08Z</time>
      </trkpt>
      <trkpt lat="42.3270340" lon="-8.6057280">
        <ele>47.5</ele>
        <time>2021-05-21T08:02:09Z</time>
      </trkpt>
      <trkpt lat="42.3270320" lon="-8.6057260">
        <ele>47.5</ele>
        <time>2021-05-21T08:02:10Z</time>
      </trkpt>
      <trkpt lat="42.3270330" lon="-8.6057290">
        <ele>47.5</ele>
        <time>2021-05-21T08:02:11Z</time>
      </trkpt>
      <trkpt lat="42.3270270" lon="-8.6057300">
        <ele>47.4</ele>
        <time>2021-05-21T08:02:12Z</time>
      </trkpt>
      <trkpt lat="42.3270220" lon="-8.6057240">
        <ele>47.4</ele>
        <time>2021-05-21T08:02:13Z</time>
      </trkpt>
      <trkpt lat="42.3270170" lon="-8.6057280">
        <ele>47.4</ele>
        <time>2021-05-21T08:02:14Z</time>
      </trkpt>
      <trkpt lat="42.3270170" lon="-8.6057290">
        <ele>47.3</ele>
        <time>2021-05-21T08:02:15Z</time>
      </trkpt>
      <trkpt lat="42.3270200" lon="-8.6057300">
        <ele>47.3</ele>
        <time>2021-05-21T08:02:16Z</time>
      </trkpt>
      <trkpt lat="42.3270210" lon="-8.6057350">
        <ele>47.3</ele>
        <time>2021-05-21T08:02:17Z</time>
      </trkpt>
      <trkpt lat="42.3270240" lon="-8.6057430">
        <ele>47.3</ele>
        <time>2021-05-21T08:02:18Z</time>
      </trkpt>
      <trkpt lat="42.3270280" lon="-8.6057550">
        <ele>47.2</ele>
        <time>2021-05-21T08:02:19Z</time>
      </trkpt>
      <trkpt lat="42.3270330" lon="-8.6057640">
        <ele>47.2</ele>
        <time>2021-05-21T08:02:20Z</time>
      </trkpt>
      <trkpt lat="42.3270370" lon="-8.6057670">
        <ele>47.2</ele>
        <time>2021-05-21T08:02:21Z</time>
      </trkpt>
      <trkpt lat="42.3270410" lon="-8.6057720">
        <ele>47.1</ele>
        <time>2021-05-21T08:02:22Z</time>
      </trkpt>
      <trkpt lat="42.3270440" lon="-8.6057760">
        <ele>47.1</ele>
        <time>2021-05-21T08:02:23Z</time>
      </trkpt>
      <trkpt lat="42.3270440" lon="-8.6057800">
        <ele>47.1</ele>
        <time>2021-05-21T08:02:24Z</time>
      </trkpt>
      <trkpt lat="42.3270400" lon="-8.6057810">
        <ele>47.1</ele>
        <time>2021-05-21T08:02:25Z</time>
      </trkpt>
      <trkpt lat="42.3270410" lon="-8.6057840">
        <ele>47.1</ele>
        <time>2021-05-21T08:02:26Z</time>
      </trkpt>
      <trkpt lat="42.3270430" lon="-8.6057900">
        <ele>47.0</ele>
        <time>2021-05-21T08:02:27Z</time>
      </trkpt>
      <trkpt lat="42.3270370" lon="-8.6057930">
        <ele>47.0</ele>
        <time>2021-05-21T08:02:28Z</time>
      </trkpt>
      <trkpt lat="42.3270360" lon="-8.6057950">
        <ele>47.0</ele>
        <time>2021-05-21T08:02:29Z</time>
      </trkpt>
      <trkpt lat="42.3270340" lon="-8.6057930">
        <ele>47.0</ele>
        <time>2021-05-21T08:02:30Z</time>
      </trkpt>
      <trkpt lat="42.3270320" lon="-8.6057930">
        <ele>47.0</ele>
        <time>2021-05-21T08:02:31Z</time>
      </trkpt>
      <trkpt lat="42.3270300" lon="-8.6057910">
        <ele>47.0</ele>
        <time>2021-05-21T08:02:32Z</time>
      </trkpt>
      <trkpt lat="42.3270250" lon="-8.6057910">
        <ele>46.9</ele>
        <time>2021-05-21T08:02:33Z</time>
      </trkpt>
      <trkpt lat="42.3270250" lon="-8.6057970">
        <ele>46.9</ele>
        <time>2021-05-21T08:02:34Z</time>
      </trkpt>
      <trkpt lat="42.3270210" lon="-8.6058010">
        <ele>46.9</ele>
        <time>2021-05-21T08:02:35Z</time>
      </trkpt>
      <trkpt lat="42.3270190" lon="-8.6058010">
        <ele>46.9</ele>
        <time>2021-05-21T08:02:36Z</time>
      </trkpt>
      <trkpt lat="42.3270220" lon="-8.6058050">
        <ele>46.9</ele>
        <time>2021-05-21T08:02:37Z</time>
      </trkpt>
      <trkpt lat="42.3270190" lon="-8.6057920">
        <ele>46.9</ele>
        <time>2021-05-21T08:02:38Z</time>
      </trkpt>
      <trkpt lat="42.3270190" lon="-8.6057830">
        <ele>46.8</ele>
        <time>2021-05-21T08:02:39Z</time>
      </trkpt>
      <trkpt lat="42.3270180" lon="-8.6057790">
        <ele>46.8</ele>
        <time>2021-05-21T08:02:40Z</time>
      </trkpt>
      <trkpt lat="42.3270270" lon="-8.6058000">
        <ele>46.8</ele>
        <time>2021-05-21T08:02:41Z</time>
      </trkpt>
      <trkpt lat="42.3270310" lon="-8.6057960">
        <ele>46.7</ele>
        <time>2021-05-21T08:02:42Z</time>
      </trkpt>
      <trkpt lat="42.3270310" lon="-8.6057860">
        <ele>46.7</ele>
        <time>2021-05-21T08:02:43Z</time>
      </trkpt>
      <trkpt lat="42.3270280" lon="-8.6057820">
        <ele>46.7</ele>
        <time>2021-05-21T08:02:44Z</time>
      </trkpt>
      <trkpt lat="42.3270240" lon="-8.6057800">
        <ele>46.7</ele>
        <time>2021-05-21T08:02:45Z</time>
      </trkpt>
      <trkpt lat="42.3270290" lon="-8.6057720">
        <ele>46.7</ele>
        <time>2021-05-21T08:02:46Z</time>
      </trkpt>
      <trkpt lat="42.3270380" lon="-8.6057770">
        <ele>46.6</ele>
        <time>2021-05-21T08:02:47Z</time>
      </trkpt>
      <trkpt lat="42.3270390" lon="-8.6057770">
        <ele>46.6</ele>
        <time>2021-05-21T08:02:48Z</time>
      </trkpt>
      <trkpt lat="42.3270520" lon="-8.6057870">
        <ele>46.6</ele>
        <time>2021-05-21T08:02:49Z</time>
      </trkpt>
      <trkpt lat="42.3270590" lon="-8.6057910">
        <ele>46.6</ele>
        <time>2021-05-21T08:02:50Z</time>
      </trkpt>
      <trkpt lat="42.3270540" lon="-8.6057900">
        <ele>46.5</ele>
        <time>2021-05-21T08:02:51Z</time>
      </trkpt>
      <trkpt lat="42.3270540" lon="-8.6057910">
        <ele>46.5</ele>
        <time>2021-05-21T08:02:52Z</time>
      </trkpt>
      <trkpt lat="42.3270530" lon="-8.6057950">
        <ele>46.5</ele>
        <time>2021-05-21T08:02:53Z</time>
      </trkpt>
      <trkpt lat="42.3270560" lon="-8.6058170">
        <ele>46.5</ele>
        <time>2021-05-21T08:02:54Z</time>
      </trkpt>
      <trkpt lat="42.3270560" lon="-8.6058090">
        <ele>46.5</ele>
        <time>2021-05-21T08:02:55Z</time>
      </trkpt>
      <trkpt lat="42.3270560" lon="-8.6058070">
        <ele>46.5</ele>
        <time>2021-05-21T08:02:56Z</time>
      </trkpt>
      <trkpt lat="42.3270540" lon="-8.6057880">
        <ele>46.4</ele>
        <time>2021-05-21T08:02:57Z</time>
      </trkpt>
      <trkpt lat="42.3270500" lon="-8.6057800">
        <ele>46.4</ele>
        <time>2021-05-21T08:02:58Z</time>
      </trkpt>
      <trkpt lat="42.3270480" lon="-8.6057730">
        <ele>46.4</ele>
        <time>2021-05-21T08:02:59Z</time>
      </trkpt>
      <trkpt lat="42.3270460" lon="-8.6057710">
        <ele>46.4</ele>
        <time>2021-05-21T08:03:00Z</time>
      </trkpt>
      <trkpt lat="42.3270450" lon="-8.6057620">
        <ele>46.4</ele>
        <time>2021-05-21T08:03:01Z</time>
      </trkpt>
      <trkpt lat="42.3270380" lon="-8.6057520">
        <ele>46.4</ele>
        <time>2021-05-21T08:03:02Z</time>
      </trkpt>
      <trkpt lat="42.3270340" lon="-8.6057430">
        <ele>46.4</ele>
        <time>2021-05-21T08:03:03Z</time>
      </trkpt>
      <trkpt lat="42.3270300" lon="-8.6057420">
        <ele>46.4</ele>
        <time>2021-05-21T08:03:04Z</time>
      </trkpt>
      <trkpt lat="42.3270300" lon="-8.6057480">
        <ele>46.4</ele>
        <time>2021-05-21T08:03:05Z</time>
      </trkpt>
      <trkpt lat="42.3270260" lon="-8.6057510">
        <ele>46.3</ele>
        <time>2021-05-21T08:03:06Z</time>
      </trkpt>
      <trkpt lat="42.3270280" lon="-8.6057540">
        <ele>46.3</ele>
        <time>2021-05-21T08:03:07Z</time>
      </trkpt>
      <trkpt lat="42.3270320" lon="-8.6057570">
        <ele>46.3</ele>
        <time>2021-05-21T08:03:08Z</time>
      </trkpt>
      <trkpt lat="42.3270310" lon="-8.6057610">
        <ele>46.3</ele>
        <time>2021-05-21T08:03:09Z</time>
      </trkpt>
      <trkpt lat="42.3270270" lon="-8.6057630">
        <ele>46.3</ele>
        <time>2021-05-21T08:03:10Z</time>
      </trkpt>
      <trkpt lat="42.3270290" lon="-8.6057690">
        <ele>46.3</ele>
        <time>2021-05-21T08:03:11Z</time>
      </trkpt>
      <trkpt lat="42.3270290" lon="-8.6057750">
        <ele>46.3</ele>
        <time>2021-05-21T08:03:12Z</time>
      </trkpt>
      <trkpt lat="42.3270290" lon="-8.6057730">
        <ele>46.3</ele>
        <time>2021-05-21T08:03:13Z</time>
      </trkpt>
      <trkpt lat="42.3270330" lon="-8.6057700">
        <ele>46.3</ele>
        <time>2021-05-21T08:03:14Z</time>
      </trkpt>
      <trkpt lat="42.3270310" lon="-8.6057650">
        <ele>46.3</ele>
        <time>2021-05-21T08:03:15Z</time>
      </trkpt>
      <trkpt lat="42.3270280" lon="-8.6057610">
        <ele>46.3</ele>
        <time>2021-05-21T08:03:16Z</time>
      </trkpt>
      <trkpt lat="42.3270310" lon="-8.6057580">
        <ele>46.3</ele>
        <time>2021-05-21T08:03:17Z</time>
      </trkpt>
      <trkpt lat="42.3270370" lon="-8.6057490">
        <ele>46.2</ele>
        <time>2021-05-21T08:03:18Z</time>
      </trkpt>
      <trkpt lat="42.3270300" lon="-8.6057540">
        <ele>46.2</ele>
        <time>2021-05-21T08:03:19Z</time>
      </trkpt>
      <trkpt lat="42.3270430" lon="-8.6057500">
        <ele>46.2</ele>
        <time>2021-05-21T08:03:20Z</time>
      </trkpt>
      <trkpt lat="42.3270450" lon="-8.6057430">
        <ele>46.2</ele>
        <time>2021-05-21T08:03:21Z</time>
      </trkpt>
      <trkpt lat="42.3270450" lon="-8.6057400">
        <ele>46.2</ele>
        <time>2021-05-21T08:03:22Z</time>
      </trkpt>
      <trkpt lat="42.3270410" lon="-8.6057360">
        <ele>46.2</ele>
        <time>2021-05-21T08:03:23Z</time>
      </trkpt>
      <trkpt lat="42.3270420" lon="-8.6057340">
        <ele>46.2</ele>
        <time>2021-05-21T08:03:24Z</time>
      </trkpt>
      <trkpt lat="42.3270400" lon="-8.6057310">
        <ele>46.2</ele>
        <time>2021-05-21T08:03:25Z</time>
      </trkpt>
      <trkpt lat="42.3270400" lon="-8.6057280">
        <ele>46.2</ele>
        <time>2021-05-21T08:03:26Z</time>
      </trkpt>
      <trkpt lat="42.3270440" lon="-8.6057250">
        <ele>46.2</ele>
        <time>2021-05-21T08:03:27Z</time>
      </trkpt>
      <trkpt lat="42.3270500" lon="-8.6057270">
        <ele>46.2</ele>
        <time>2021-05-21T08:03:28Z</time>
      </trkpt>
      <trkpt lat="42.3270530" lon="-8.6057230">
        <ele>46.2</ele>
        <time>2021-05-21T08:03:29Z</time>
      </trkpt>
      <trkpt lat="42.3270520" lon="-8.6057210">
        <ele>46.2</ele>
        <time>2021-05-21T08:03:30Z</time>
      </trkpt>
      <trkpt lat="42.3270550" lon="-8.6057180">
        <ele>46.2</ele>
        <time>2021-05-21T08:03:31Z</time>
      </trkpt>
      <trkpt lat="42.3270630" lon="-8.6057240">
        <ele>46.2</ele>
        <time>2021-05-21T08:03:32Z</time>
      </trkpt>
      <trkpt lat="42.3270690" lon="-8.6057260">
        <ele>46.2</ele>
        <time>2021-05-21T08:03:33Z</time>
      </trkpt>
      <trkpt lat="42.3270710" lon="-8.6057200">
        <ele>46.2</ele>
        <time>2021-05-21T08:03:34Z</time>
      </trkpt>
      <trkpt lat="42.3270670" lon="-8.6057220">
        <ele>46.1</ele>
        <time>2021-05-21T08:03:35Z</time>
      </trkpt>
      <trkpt lat="42.3270670" lon="-8.6057320">
        <ele>46.1</ele>
        <time>2021-05-21T08:03:36Z</time>
      </trkpt>
      <trkpt lat="42.3270710" lon="-8.6057410">
        <ele>46.1</ele>
        <time>2021-05-21T08:03:37Z</time>
      </trkpt>
      <trkpt lat="42.3270760" lon="-8.6057520">
        <ele>46.1</ele>
        <time>2021-05-21T08:03:38Z</time>
      </trkpt>
      <trkpt lat="42.3270830" lon="-8.6057610">
        <ele>46.1</ele>
        <time>2021-05-21T08:03:39Z</time>
      </trkpt>
      <trkpt lat="42.3270900" lon="-8.6057710">
        <ele>46.1</ele>
        <time>2021-05-21T08:03:40Z</time>
      </trkpt>
      <trkpt lat="42.3270950" lon="-8.6057800">
        <ele>46.1</ele>
        <time>2021-05-21T08:03:41Z</time>
      </trkpt>
      <trkpt lat="42.3271000" lon="-8.6057820">
        <ele>46.1</ele>
        <time>2021-05-21T08:03:42Z</time>
      </trkpt>
      <trkpt lat="42.3271100" lon="-8.6057780">
        <ele>46.1</ele>
        <time>2021-05-21T08:03:43Z</time>
      </trkpt>
      <trkpt lat="42.3271180" lon="-8.6057810">
        <ele>46.1</ele>
        <time>2021-05-21T08:03:44Z</time>
      </trkpt>
      <trkpt lat="42.3271300" lon="-8.6057880">
        <ele>46.1</ele>
        <time>2021-05-21T08:03:45Z</time>
      </trkpt>
      <trkpt lat="42.3271340" lon="-8.6057830">
        <ele>46.1</ele>
        <time>2021-05-21T08:03:46Z</time>
      </trkpt>
      <trkpt lat="42.3271310" lon="-8.6057790">
        <ele>46.1</ele>
        <time>2021-05-21T08:03:47Z</time>
      </trkpt>
      <trkpt lat="42.3271290" lon="-8.6057760">
        <ele>46.1</ele>
        <time>2021-05-21T08:03:48Z</time>
      </trkpt>
      <trkpt lat="42.3271270" lon="-8.6057720">
        <ele>46.1</ele>
        <time>2021-05-21T08:03:49Z</time>
      </trkpt>
      <trkpt lat="42.3271240" lon="-8.6057680">
        <ele>46.1</ele>
        <time>2021-05-21T08:03:50Z</time>
      </trkpt>
      <trkpt lat="42.3271220" lon="-8.6057640">
        <ele>46.1</ele>
        <time>2021-05-21T08:03:51Z</time>
      </trkpt>
      <trkpt lat="42.3271200" lon="-8.6057610">
        <ele>46.1</ele>
        <time>2021-05-21T08:03:52Z</time>
      </trkpt>
      <trkpt lat="42.3271170" lon="-8.6057570">
        <ele>46.1</ele>
        <time>2021-05-21T08:03:53Z</time>
      </trkpt>
      <trkpt lat="42.3271150" lon="-8.6057530">
        <ele>46.1</ele>
        <time>2021-05-21T08:03:54Z</time>
      </trkpt>
      <trkpt lat="42.3271130" lon="-8.6057490">
        <ele>46.1</ele>
        <time>2021-05-21T08:03:55Z</time>
      </trkpt>
      <trkpt lat="42.3271100" lon="-8.6057460">
        <ele>46.1</ele>
        <time>2021-05-21T08:03:56Z</time>
      </trkpt>
      <trkpt lat="42.3271080" lon="-8.6057420">
        <ele>46.1</ele>
        <time>2021-05-21T08:03:57Z</time>
      </trkpt>
      <trkpt lat="42.3271050" lon="-8.6057380">
        <ele>46.1</ele>
        <time>2021-05-21T08:03:58Z</time>
      </trkpt>
      <trkpt lat="42.3271030" lon="-8.6057340">
        <ele>46.1</ele>
        <time>2021-05-21T08:03:59Z</time>
      </trkpt>
      <trkpt lat="42.3271010" lon="-8.6057310">
        <ele>46.1</ele>
        <time>2021-05-21T08:04:00Z</time>
      </trkpt>
      <trkpt lat="42.3270980" lon="-8.6057270">
        <ele>46.1</ele>
        <time>2021-05-21T08:04:01Z</time>
      </trkpt>
      <trkpt lat="42.3270960" lon="-8.6057230">
        <ele>46.1</ele>
        <time>2021-05-21T08:04:02Z</time>
      </trkpt>
      <trkpt lat="42.3270940" lon="-8.6057190">
        <ele>46.1</ele>
        <time>2021-05-21T08:04:03Z</time>
      </trkpt>
      <trkpt lat="42.3270910" lon="-8.6057160">
        <ele>46.1</ele>
        <time>2021-05-21T08:04:04Z</time>
      </trkpt>
      <trkpt lat="42.3270890" lon="-8.6057120">
        <ele>46.1</ele>
        <time>2021-05-21T08:04:05Z</time>
      </trkpt>
      <trkpt lat="42.3270890" lon="-8.6057100">
        <ele>46.1</ele>
        <time>2021-05-21T08:04:06Z</time>
      </trkpt>
      <trkpt lat="42.3270880" lon="-8.6057060">
        <ele>46.1</ele>
        <time>2021-05-21T08:04:07Z</time>
      </trkpt>
      <trkpt lat="42.3270880" lon="-8.6057040">
        <ele>46.1</ele>
        <time>2021-05-21T08:04:08Z</time>
      </trkpt>
      <trkpt lat="42.3270810" lon="-8.6057060">
        <ele>46.1</ele>
        <time>2021-05-21T08:04:09Z</time>
      </trkpt>
      <trkpt lat="42.3270750" lon="-8.6057040">
        <ele>46.1</ele>
        <time>2021-05-21T08:04:10Z</time>
      </trkpt>
      <trkpt lat="42.3270670" lon="-8.6056980">
        <ele>46.1</ele>
        <time>2021-05-21T08:04:11Z</time>
      </trkpt>
      <trkpt lat="42.3270580" lon="-8.6056930">
        <ele>46.1</ele>
        <time>2021-05-21T08:04:12Z</time>
      </trkpt>
      <trkpt lat="42.3270560" lon="-8.6056920">
        <ele>46.1</ele>
        <time>2021-05-21T08:04:13Z</time>
      </trkpt>
      <trkpt lat="42.3270740" lon="-8.6057010">
        <ele>46.1</ele>
        <time>2021-05-21T08:04:14Z</time>
      </trkpt>
      <trkpt lat="42.3270870" lon="-8.6057010">
        <ele>46.1</ele>
        <time>2021-05-21T08:04:15Z</time>
      </trkpt>
      <trkpt lat="42.3271030" lon="-8.6056950">
        <ele>46.1</ele>
        <time>2021-05-21T08:04:16Z</time>
      </trkpt>
      <trkpt lat="42.3271140" lon="-8.6056930">
        <ele>46.1</ele>
        <time>2021-05-21T08:04:17Z</time>
      </trkpt>
      <trkpt lat="42.3271250" lon="-8.6056910">
        <ele>46.1</ele>
        <time>2021-05-21T08:04:18Z</time>
      </trkpt>
      <trkpt lat="42.3271350" lon="-8.6056960">
        <ele>46.1</ele>
        <time>2021-05-21T08:04:19Z</time>
      </trkpt>
      <trkpt lat="42.3271450" lon="-8.6056900">
        <ele>46.1</ele>
        <time>2021-05-21T08:04:20Z</time>
      </trkpt>
      <trkpt lat="42.3271470" lon="-8.6056850">
        <ele>46.1</ele>
        <time>2021-05-21T08:04:21Z</time>
      </trkpt>
      <trkpt lat="42.3271550" lon="-8.6056740">
        <ele>46.1</ele>
        <time>2021-05-21T08:04:22Z</time>
      </trkpt>
      <trkpt lat="42.3271570" lon="-8.6056570">
        <ele>46.2</ele>
        <time>2021-05-21T08:04:23Z</time>
      </trkpt>
      <trkpt lat="42.3271640" lon="-8.6056550">
        <ele>46.2</ele>
        <time>2021-05-21T08:04:24Z</time>
      </trkpt>
      <trkpt lat="42.3271740" lon="-8.6056520">
        <ele>46.2</ele>
        <time>2021-05-21T08:04:25Z</time>
      </trkpt>
      <trkpt lat="42.3271830" lon="-8.6056630">
        <ele>46.2</ele>
        <time>2021-05-21T08:04:26Z</time>
      </trkpt>
      <trkpt lat="42.3271940" lon="-8.6056590">
        <ele>46.2</ele>
        <time>2021-05-21T08:04:27Z</time>
      </trkpt>
      <trkpt lat="42.3272060" lon="-8.6056570">
        <ele>46.2</ele>
        <time>2021-05-21T08:04:28Z</time>
      </trkpt>
      <trkpt lat="42.3272180" lon="-8.6056560">
        <ele>46.3</ele>
        <time>2021-05-21T08:04:29Z</time>
      </trkpt>
      <trkpt lat="42.3272270" lon="-8.6056490">
        <ele>46.3</ele>
        <time>2021-05-21T08:04:30Z</time>
      </trkpt>
      <trkpt lat="42.3272480" lon="-8.6056460">
        <ele>46.3</ele>
        <time>2021-05-21T08:04:31Z</time>
      </trkpt>
      <trkpt lat="42.3272690" lon="-8.6056310">
        <ele>46.4</ele>
        <time>2021-05-21T08:04:32Z</time>
      </trkpt>
      <trkpt lat="42.3272750" lon="-8.6056270">
        <ele>46.4</ele>
        <time>2021-05-21T08:04:33Z</time>
      </trkpt>
      <trkpt lat="42.3272820" lon="-8.6056240">
        <ele>46.4</ele>
        <time>2021-05-21T08:04:34Z</time>
      </trkpt>
      <trkpt lat="42.3272940" lon="-8.6056190">
        <ele>46.4</ele>
        <time>2021-05-21T08:04:35Z</time>
      </trkpt>
      <trkpt lat="42.3273030" lon="-8.6056140">
        <ele>46.4</ele>
        <time>2021-05-21T08:04:36Z</time>
      </trkpt>
      <trkpt lat="42.3273120" lon="-8.6056120">
        <ele>46.5</ele>
        <time>2021-05-21T08:04:37Z</time>
      </trkpt>
      <trkpt lat="42.3273230" lon="-8.6056100">
        <ele>46.5</ele>
        <time>2021-05-21T08:04:38Z</time>
      </trkpt>
      <trkpt lat="42.3273300" lon="-8.6056030">
        <ele>46.5</ele>
        <time>2021-05-21T08:04:39Z</time>
      </trkpt>
      <trkpt lat="42.3273460" lon="-8.6056060">
        <ele>46.6</ele>
        <time>2021-05-21T08:04:40Z</time>
      </trkpt>
      <trkpt lat="42.3273610" lon="-8.6056050">
        <ele>46.6</ele>
        <time>2021-05-21T08:04:41Z</time>
      </trkpt>
      <trkpt lat="42.3273550" lon="-8.6056010">
        <ele>46.6</ele>
        <time>2021-05-21T08:04:42Z</time>
      </trkpt>
      <trkpt lat="42.3273580" lon="-8.6055980">
        <ele>46.6</ele>
        <time>2021-05-21T08:04:43Z</time>
      </trkpt>
      <trkpt lat="42.3273770" lon="-8.6055930">
        <ele>46.7</ele>
        <time>2021-05-21T08:04:44Z</time>
      </trkpt>
      <trkpt lat="42.3273850" lon="-8.6055840">
        <ele>46.7</ele>
        <time>2021-05-21T08:04:45Z</time>
      </trkpt>
      <trkpt lat="42.3273980" lon="-8.6055830">
        <ele>46.8</ele>
        <time>2021-05-21T08:04:46Z</time>
      </trkpt>
      <trkpt lat="42.3274070" lon="-8.6055820">
        <ele>46.8</ele>
        <time>2021-05-21T08:04:47Z</time>
      </trkpt>
      <trkpt lat="42.3274200" lon="-8.6055820">
        <ele>46.9</ele>
        <time>2021-05-21T08:04:48Z</time>
      </trkpt>
      <trkpt lat="42.3274300" lon="-8.6055800">
        <ele>46.9</ele>
        <time>2021-05-21T08:04:49Z</time>
      </trkpt>
      <trkpt lat="42.3274310" lon="-8.6055770">
        <ele>46.9</ele>
        <time>2021-05-21T08:04:50Z</time>
      </trkpt>
      <trkpt lat="42.3274380" lon="-8.6055710">
        <ele>46.9</ele>
        <time>2021-05-21T08:04:51Z</time>
      </trkpt>
      <trkpt lat="42.3274480" lon="-8.6055690">
        <ele>47.0</ele>
        <time>2021-05-21T08:04:52Z</time>
      </trkpt>
      <trkpt lat="42.3274540" lon="-8.6055720">
        <ele>47.0</ele>
        <time>2021-05-21T08:04:53Z</time>
      </trkpt>
      <trkpt lat="42.3274700" lon="-8.6055720">
        <ele>47.0</ele>
        <time>2021-05-21T08:04:54Z</time>
      </trkpt>
      <trkpt lat="42.3274850" lon="-8.6055720">
        <ele>47.1</ele>
        <time>2021-05-21T08:04:55Z</time>
      </trkpt>
      <trkpt lat="42.3274930" lon="-8.6055720">
        <ele>47.1</ele>
        <time>2021-05-21T08:04:56Z</time>
      </trkpt>
      <trkpt lat="42.3275020" lon="-8.6055730">
        <ele>47.2</ele>
        <time>2021-05-21T08:04:57Z</time>
      </trkpt>
      <trkpt lat="42.3275100" lon="-8.6055740">
        <ele>47.2</ele>
        <time>2021-05-21T08:04:58Z</time>
      </trkpt>
      <trkpt lat="42.3275110" lon="-8.6055770">
        <ele>47.2</ele>
        <time>2021-05-21T08:04:59Z</time>
      </trkpt>
      <trkpt lat="42.3275140" lon="-8.6055860">
        <ele>47.2</ele>
        <time>2021-05-21T08:05:00Z</time>
      </trkpt>
      <trkpt lat="42.3275240" lon="-8.6055940">
        <ele>47.3</ele>
        <time>2021-05-21T08:05:01Z</time>
      </trkpt>
      <trkpt lat="42.3275300" lon="-8.6056000">
        <ele>47.3</ele>
        <time>2021-05-21T08:05:02Z</time>
      </trkpt>
      <trkpt lat="42.3275410" lon="-8.6056140">
        <ele>47.4</ele>
        <time>2021-05-21T08:05:03Z</time>
      </trkpt>
      <trkpt lat="42.3275610" lon="-8.6056220">
        <ele>47.4</ele>
        <time>2021-05-21T08:05:04Z</time>
      </trkpt>
      <trkpt lat="42.3275750" lon="-8.6056250">
        <ele>47.5</ele>
        <time>2021-05-21T08:05:05Z</time>
      </trkpt>
      <trkpt lat="42.3275810" lon="-8.6056320">
        <ele>47.5</ele>
        <time>2021-05-21T08:05:06Z</time>
      </trkpt>
      <trkpt lat="42.3275940" lon="-8.6056410">
        <ele>47.6</ele>
        <time>2021-05-21T08:05:07Z</time>
      </trkpt>
      <trkpt lat="42.3276070" lon="-8.6056460">
        <ele>47.6</ele>
        <time>2021-05-21T08:05:08Z</time>
      </trkpt>
      <trkpt lat="42.3276140" lon="-8.6056440">
        <ele>47.7</ele>
        <time>2021-05-21T08:05:09Z</time>
      </trkpt>
      <trkpt lat="42.3276230" lon="-8.6056420">
        <ele>47.7</ele>
        <time>2021-05-21T08:05:10Z</time>
      </trkpt>
      <trkpt lat="42.3276370" lon="-8.6056500">
        <ele>47.8</ele>
        <time>2021-05-21T08:05:11Z</time>
      </trkpt>
      <trkpt lat="42.3276500" lon="-8.6056500">
        <ele>47.8</ele>
        <time>2021-05-21T08:05:12Z</time>
      </trkpt>
      <trkpt lat="42.3276500" lon="-8.6056420">
        <ele>47.9</ele>
        <time>2021-05-21T08:05:13Z</time>
      </trkpt>
      <trkpt lat="42.3276500" lon="-8.6056390">
        <ele>47.9</ele>
        <time>2021-05-21T08:05:14Z</time>
      </trkpt>
      <trkpt lat="42.3276600" lon="-8.6056360">
        <ele>47.9</ele>
        <time>2021-05-21T08:05:15Z</time>
      </trkpt>
      <trkpt lat="42.3276730" lon="-8.6056300">
        <ele>48.0</ele>
        <time>2021-05-21T08:05:16Z</time>
      </trkpt>
      <trkpt lat="42.3276830" lon="-8.6056220">
        <ele>48.0</ele>
        <time>2021-05-21T08:05:17Z</time>
      </trkpt>
      <trkpt lat="42.3276950" lon="-8.6056250">
        <ele>48.1</ele>
        <time>2021-05-21T08:05:18Z</time>
      </trkpt>
      <trkpt lat="42.3277070" lon="-8.6056210">
        <ele>48.5</ele>
        <time>2021-05-21T08:05:19Z</time>
      </trkpt>
      <trkpt lat="42.3277300" lon="-8.6056310">
        <ele>48.6</ele>
        <time>2021-05-21T08:05:20Z</time>
      </trkpt>
      <trkpt lat="42.3277360" lon="-8.6056340">
        <ele>48.7</ele>
        <time>2021-05-21T08:05:21Z</time>
      </trkpt>
      <trkpt lat="42.3277420" lon="-8.6056380">
        <ele>48.7</ele>
        <time>2021-05-21T08:05:22Z</time>
      </trkpt>
      <trkpt lat="42.3277580" lon="-8.6056440">
        <ele>48.8</ele>
        <time>2021-05-21T08:05:23Z</time>
      </trkpt>
      <trkpt lat="42.3277680" lon="-8.6056490">
        <ele>48.9</ele>
        <time>2021-05-21T08:05:24Z</time>
      </trkpt>
      <trkpt lat="42.3277830" lon="-8.6056460">
        <ele>48.9</ele>
        <time>2021-05-21T08:05:25Z</time>
      </trkpt>
      <trkpt lat="42.3277950" lon="-8.6056430">
        <ele>49.0</ele>
        <time>2021-05-21T08:05:26Z</time>
      </trkpt>
      <trkpt lat="42.3278110" lon="-8.6056440">
        <ele>49.1</ele>
        <time>2021-05-21T08:05:27Z</time>
      </trkpt>
      <trkpt lat="42.3278240" lon="-8.6056470">
        <ele>49.2</ele>
        <time>2021-05-21T08:05:28Z</time>
      </trkpt>
      <trkpt lat="42.3278240" lon="-8.6056280">
        <ele>49.2</ele>
        <time>2021-05-21T08:05:29Z</time>
      </trkpt>
      <trkpt lat="42.3278360" lon="-8.6056240">
        <ele>49.3</ele>
        <time>2021-05-21T08:05:30Z</time>
      </trkpt>
      <trkpt lat="42.3278480" lon="-8.6056170">
        <ele>49.4</ele>
        <time>2021-05-21T08:05:31Z</time>
      </trkpt>
      <trkpt lat="42.3278770" lon="-8.6056190">
        <ele>49.5</ele>
        <time>2021-05-21T08:05:32Z</time>
      </trkpt>
      <trkpt lat="42.3278840" lon="-8.6056230">
        <ele>49.6</ele>
        <time>2021-05-21T08:05:33Z</time>
      </trkpt>
      <trkpt lat="42.3279010" lon="-8.6056240">
        <ele>49.7</ele>
        <time>2021-05-21T08:05:34Z</time>
      </trkpt>
      <trkpt lat="42.3279120" lon="-8.6056250">
        <ele>49.7</ele>
        <time>2021-05-21T08:05:35Z</time>
      </trkpt>
      <trkpt lat="42.3279220" lon="-8.6056280">
        <ele>49.8</ele>
        <time>2021-05-21T08:05:36Z</time>
      </trkpt>
      <trkpt lat="42.3279320" lon="-8.6056350">
        <ele>49.8</ele>
        <time>2021-05-21T08:05:37Z</time>
      </trkpt>
      <trkpt lat="42.3279400" lon="-8.6056300">
        <ele>49.9</ele>
        <time>2021-05-21T08:05:38Z</time>
      </trkpt>
      <trkpt lat="42.3279570" lon="-8.6056350">
        <ele>49.9</ele>
        <time>2021-05-21T08:05:39Z</time>
      </trkpt>
      <trkpt lat="42.3279680" lon="-8.6056400">
        <ele>50.0</ele>
        <time>2021-05-21T08:05:40Z</time>
      </trkpt>
      <trkpt lat="42.3279800" lon="-8.6056450">
        <ele>50.1</ele>
        <time>2021-05-21T08:05:41Z</time>
      </trkpt>
      <trkpt lat="42.3280000" lon="-8.6056480">
        <ele>50.2</ele>
        <time>2021-05-21T08:05:42Z</time>
      </trkpt>
      <trkpt lat="42.3280080" lon="-8.6056570">
        <ele>50.2</ele>
        <time>2021-05-21T08:05:43Z</time>
      </trkpt>
      <trkpt lat="42.3280080" lon="-8.6056590">
        <ele>50.2</ele>
        <time>2021-05-21T08:05:44Z</time>
      </trkpt>
      <trkpt lat="42.3280140" lon="-8.6056560">
        <ele>50.3</ele>
        <time>2021-05-21T08:05:45Z</time>
      </trkpt>
      <trkpt lat="42.3280230" lon="-8.6056550">
        <ele>50.3</ele>
        <time>2021-05-21T08:05:46Z</time>
      </trkpt>
      <trkpt lat="42.3280380" lon="-8.6056610">
        <ele>50.4</ele>
        <time>2021-05-21T08:05:47Z</time>
      </trkpt>
      <trkpt lat="42.3280550" lon="-8.6056700">
        <ele>50.5</ele>
        <time>2021-05-21T08:05:48Z</time>
      </trkpt>
      <trkpt lat="42.3280660" lon="-8.6056720">
        <ele>50.5</ele>
        <time>2021-05-21T08:05:49Z</time>
      </trkpt>
      <trkpt lat="42.3280770" lon="-8.6056740">
        <ele>50.6</ele>
        <time>2021-05-21T08:05:50Z</time>
      </trkpt>
      <trkpt lat="42.3280950" lon="-8.6056880">
        <ele>50.7</ele>
        <time>2021-05-21T08:05:51Z</time>
      </trkpt>
      <trkpt lat="42.3281050" lon="-8.6056890">
        <ele>50.7</ele>
        <time>2021-05-21T08:05:52Z</time>
      </trkpt>
      <trkpt lat="42.3281140" lon="-8.6056910">
        <ele>50.8</ele>
        <time>2021-05-21T08:05:53Z</time>
      </trkpt>
      <trkpt lat="42.3281250" lon="-8.6056930">
        <ele>50.8</ele>
        <time>2021-05-21T08:05:54Z</time>
      </trkpt>
      <trkpt lat="42.3281420" lon="-8.6056910">
        <ele>50.9</ele>
        <time>2021-05-21T08:05:55Z</time>
      </trkpt>
      <trkpt lat="42.3281610" lon="-8.6056980">
        <ele>51.0</ele>
        <time>2021-05-21T08:05:56Z</time>
      </trkpt>
      <trkpt lat="42.3281730" lon="-8.6056910">
        <ele>51.1</ele>
        <time>2021-05-21T08:05:57Z</time>
      </trkpt>
      <trkpt lat="42.3281920" lon="-8.6056930">
        <ele>51.2</ele>
        <time>2021-05-21T08:05:58Z</time>
      </trkpt>
      <trkpt lat="42.3282010" lon="-8.6056940">
        <ele>51.2</ele>
        <time>2021-05-21T08:05:59Z</time>
      </trkpt>
      <trkpt lat="42.3282200" lon="-8.6056960">
        <ele>51.3</ele>
        <time>2021-05-21T08:06:00Z</time>
      </trkpt>
      <trkpt lat="42.3282320" lon="-8.6057000">
        <ele>51.4</ele>
        <time>2021-05-21T08:06:01Z</time>
      </trkpt>
      <trkpt lat="42.3282450" lon="-8.6057070">
        <ele>51.4</ele>
        <time>2021-05-21T08:06:02Z</time>
      </trkpt>
      <trkpt lat="42.3282620" lon="-8.6057090">
        <ele>51.5</ele>
        <time>2021-05-21T08:06:03Z</time>
      </trkpt>
      <trkpt lat="42.3282830" lon="-8.6057230">
        <ele>51.6</ele>
        <time>2021-05-21T08:06:04Z</time>
      </trkpt>
      <trkpt lat="42.3282920" lon="-8.6057280">
        <ele>51.7</ele>
        <time>2021-05-21T08:06:05Z</time>
      </trkpt>
      <trkpt lat="42.3283020" lon="-8.6057340">
        <ele>51.7</ele>
        <time>2021-05-21T08:06:06Z</time>
      </trkpt>
      <trkpt lat="42.3283120" lon="-8.6057430">
        <ele>51.8</ele>
        <time>2021-05-21T08:06:07Z</time>
      </trkpt>
      <trkpt lat="42.3283240" lon="-8.6057500">
        <ele>51.8</ele>
        <time>2021-05-21T08:06:08Z</time>
      </trkpt>
      <trkpt lat="42.3283350" lon="-8.6057550">
        <ele>51.9</ele>
        <time>2021-05-21T08:06:09Z</time>
      </trkpt>
      <trkpt lat="42.3283500" lon="-8.6057620">
        <ele>52.0</ele>
        <time>2021-05-21T08:06:10Z</time>
      </trkpt>
      <trkpt lat="42.3283640" lon="-8.6057640">
        <ele>52.0</ele>
        <time>2021-05-21T08:06:11Z</time>
      </trkpt>
      <trkpt lat="42.3283860" lon="-8.6057750">
        <ele>52.1</ele>
        <time>2021-05-21T08:06:12Z</time>
      </trkpt>
      <trkpt lat="42.3283910" lon="-8.6057810">
        <ele>52.2</ele>
        <time>2021-05-21T08:06:13Z</time>
      </trkpt>
      <trkpt lat="42.3284120" lon="-8.6057910">
        <ele>52.3</ele>
        <time>2021-05-21T08:06:14Z</time>
      </trkpt>
      <trkpt lat="42.3284200" lon="-8.6057970">
        <ele>52.3</ele>
        <time>2021-05-21T08:06:15Z</time>
      </trkpt>
      <trkpt lat="42.3284280" lon="-8.6058020">
        <ele>52.4</ele>
        <time>2021-05-21T08:06:16Z</time>
      </trkpt>
      <trkpt lat="42.3284420" lon="-8.6058110">
        <ele>52.4</ele>
        <time>2021-05-21T08:06:17Z</time>
      </trkpt>
      <trkpt lat="42.3284470" lon="-8.6058180">
        <ele>52.5</ele>
        <time>2021-05-21T08:06:18Z</time>
      </trkpt>
      <trkpt lat="42.3284540" lon="-8.6058180">
        <ele>52.5</ele>
        <time>2021-05-21T08:06:19Z</time>
      </trkpt>
      <trkpt lat="42.3284740" lon="-8.6058290">
        <ele>52.6</ele>
        <time>2021-05-21T08:06:20Z</time>
      </trkpt>
      <trkpt lat="42.3284820" lon="-8.6058330">
        <ele>52.6</ele>
        <time>2021-05-21T08:06:21Z</time>
      </trkpt>
      <trkpt lat="42.3284900" lon="-8.6058370">
        <ele>52.7</ele>
        <time>2021-05-21T08:06:22Z</time>
      </trkpt>
      <trkpt lat="42.3285010" lon="-8.6058510">
        <ele>52.8</ele>
        <time>2021-05-21T08:06:23Z</time>
      </trkpt>
      <trkpt lat="42.3285180" lon="-8.6058550">
        <ele>52.8</ele>
        <time>2021-05-21T08:06:24Z</time>
      </trkpt>
      <trkpt lat="42.3285320" lon="-8.6058630">
        <ele>52.9</ele>
        <time>2021-05-21T08:06:25Z</time>
      </trkpt>
      <trkpt lat="42.3285450" lon="-8.6058730">
        <ele>53.0</ele>
        <time>2021-05-21T08:06:26Z</time>
      </trkpt>
      <trkpt lat="42.3285620" lon="-8.6058860">
        <ele>53.1</ele>
        <time>2021-05-21T08:06:27Z</time>
      </trkpt>
      <trkpt lat="42.3285710" lon="-8.6058880">
        <ele>53.1</ele>
        <time>2021-05-21T08:06:28Z</time>
      </trkpt>
      <trkpt lat="42.3285790" lon="-8.6058900">
        <ele>53.1</ele>
        <time>2021-05-21T08:06:29Z</time>
      </trkpt>
      <trkpt lat="42.3285860" lon="-8.6058970">
        <ele>53.2</ele>
        <time>2021-05-21T08:06:30Z</time>
      </trkpt>
      <trkpt lat="42.3285980" lon="-8.6059010">
        <ele>53.2</ele>
        <time>2021-05-21T08:06:31Z</time>
      </trkpt>
      <trkpt lat="42.3286100" lon="-8.6059030">
        <ele>53.3</ele>
        <time>2021-05-21T08:06:32Z</time>
      </trkpt>
      <trkpt lat="42.3286140" lon="-8.6059200">
        <ele>53.4</ele>
        <time>2021-05-21T08:06:33Z</time>
      </trkpt>
      <trkpt lat="42.3286110" lon="-8.6059270">
        <ele>53.4</ele>
        <time>2021-05-21T08:06:34Z</time>
      </trkpt>
      <trkpt lat="42.3286040" lon="-8.6059260">
        <ele>53.4</ele>
        <time>2021-05-21T08:06:35Z</time>
      </trkpt>
      <trkpt lat="42.3286060" lon="-8.6059400">
        <ele>53.5</ele>
        <time>2021-05-21T08:06:36Z</time>
      </trkpt>
      <trkpt lat="42.3286160" lon="-8.6059510">
        <ele>53.5</ele>
        <time>2021-05-21T08:06:37Z</time>
      </trkpt>
      <trkpt lat="42.3286320" lon="-8.6059640">
        <ele>53.6</ele>
        <time>2021-05-21T08:06:38Z</time>
      </trkpt>
      <trkpt lat="42.3286360" lon="-8.6059750">
        <ele>53.6</ele>
        <time>2021-05-21T08:06:39Z</time>
      </trkpt>
      <trkpt lat="42.3286490" lon="-8.6059870">
        <ele>53.7</ele>
        <time>2021-05-21T08:06:40Z</time>
      </trkpt>
      <trkpt lat="42.3286600" lon="-8.6059910">
        <ele>53.8</ele>
        <time>2021-05-21T08:06:41Z</time>
      </trkpt>
      <trkpt lat="42.3286740" lon="-8.6059930">
        <ele>53.8</ele>
        <time>2021-05-21T08:06:42Z</time>
      </trkpt>
      <trkpt lat="42.3286890" lon="-8.6059950">
        <ele>53.9</ele>
        <time>2021-05-21T08:06:43Z</time>
      </trkpt>
      <trkpt lat="42.3286980" lon="-8.6060040">
        <ele>54.0</ele>
        <time>2021-05-21T08:06:44Z</time>
      </trkpt>
      <trkpt lat="42.3287070" lon="-8.6060020">
        <ele>54.0</ele>
        <time>2021-05-21T08:06:45Z</time>
      </trkpt>
      <trkpt lat="42.3287160" lon="-8.6060150">
        <ele>54.1</ele>
        <time>2021-05-21T08:06:46Z</time>
      </trkpt>
      <trkpt lat="42.3287240" lon="-8.6060250">
        <ele>54.1</ele>
        <time>2021-05-21T08:06:47Z</time>
      </trkpt>
      <trkpt lat="42.3287280" lon="-8.6060400">
        <ele>54.2</ele>
        <time>2021-05-21T08:06:48Z</time>
      </trkpt>
      <trkpt lat="42.3287410" lon="-8.6060520">
        <ele>54.2</ele>
        <time>2021-05-21T08:06:49Z</time>
      </trkpt>
      <trkpt lat="42.3287550" lon="-8.6060690">
        <ele>54.3</ele>
        <time>2021-05-21T08:06:50Z</time>
      </trkpt>
      <trkpt lat="42.3287650" lon="-8.6060790">
        <ele>54.4</ele>
        <time>2021-05-21T08:06:51Z</time>
      </trkpt>
      <trkpt lat="42.3287760" lon="-8.6060800">
        <ele>54.4</ele>
        <time>2021-05-21T08:06:52Z</time>
      </trkpt>
      <trkpt lat="42.3287830" lon="-8.6060840">
        <ele>54.5</ele>
        <time>2021-05-21T08:06:53Z</time>
      </trkpt>
      <trkpt lat="42.3287950" lon="-8.6060860">
        <ele>54.5</ele>
        <time>2021-05-21T08:06:54Z</time>
      </trkpt>
      <trkpt lat="42.3288080" lon="-8.6060950">
        <ele>54.6</ele>
        <time>2021-05-21T08:06:55Z</time>
      </trkpt>
      <trkpt lat="42.3288200" lon="-8.6061020">
        <ele>54.7</ele>
        <time>2021-05-21T08:06:56Z</time>
      </trkpt>
      <trkpt lat="42.3288290" lon="-8.6061030">
        <ele>54.7</ele>
        <time>2021-05-21T08:06:57Z</time>
      </trkpt>
      <trkpt lat="42.3288420" lon="-8.6061130">
        <ele>54.8</ele>
        <time>2021-05-21T08:06:58Z</time>
      </trkpt>
      <trkpt lat="42.3288500" lon="-8.6061230">
        <ele>54.8</ele>
        <time>2021-05-21T08:06:59Z</time>
      </trkpt>
      <trkpt lat="42.3288650" lon="-8.6061260">
        <ele>54.9</ele>
        <time>2021-05-21T08:07:00Z</time>
      </trkpt>
      <trkpt lat="42.3288710" lon="-8.6061370">
        <ele>54.9</ele>
        <time>2021-05-21T08:07:01Z</time>
      </trkpt>
      <trkpt lat="42.3288840" lon="-8.6061390">
        <ele>55.0</ele>
        <time>2021-05-21T08:07:02Z</time>
      </trkpt>
      <trkpt lat="42.3288920" lon="-8.6061550">
        <ele>55.1</ele>
        <time>2021-05-21T08:07:03Z</time>
      </trkpt>
      <trkpt lat="42.3288990" lon="-8.6061700">
        <ele>55.1</ele>
        <time>2021-05-21T08:07:04Z</time>
      </trkpt>
      <trkpt lat="42.3289100" lon="-8.6061800">
        <ele>55.2</ele>
        <time>2021-05-21T08:07:05Z</time>
      </trkpt>
      <trkpt lat="42.3289250" lon="-8.6061810">
        <ele>55.3</ele>
        <time>2021-05-21T08:07:06Z</time>
      </trkpt>
      <trkpt lat="42.3289450" lon="-8.6061890">
        <ele>55.4</ele>
        <time>2021-05-21T08:07:07Z</time>
      </trkpt>
      <trkpt lat="42.3289540" lon="-8.6061910">
        <ele>55.4</ele>
        <time>2021-05-21T08:07:08Z</time>
      </trkpt>
      <trkpt lat="42.3289630" lon="-8.6061930">
        <ele>55.4</ele>
        <time>2021-05-21T08:07:09Z</time>
      </trkpt>
      <trkpt lat="42.3289750" lon="-8.6062000">
        <ele>55.5</ele>
        <time>2021-05-21T08:07:10Z</time>
      </trkpt>
      <trkpt lat="42.3289910" lon="-8.6062070">
        <ele>55.6</ele>
        <time>2021-05-21T08:07:11Z</time>
      </trkpt>
      <trkpt lat="42.3290070" lon="-8.6062200">
        <ele>55.7</ele>
        <time>2021-05-21T08:07:12Z</time>
      </trkpt>
      <trkpt lat="42.3290150" lon="-8.6062260">
        <ele>55.7</ele>
        <time>2021-05-21T08:07:13Z</time>
      </trkpt>
      <trkpt lat="42.3290240" lon="-8.6062310">
        <ele>55.8</ele>
        <time>2021-05-21T08:07:14Z</time>
      </trkpt>
      <trkpt lat="42.3290420" lon="-8.6062460">
        <ele>55.9</ele>
        <time>2021-05-21T08:07:15Z</time>
      </trkpt>
      <trkpt lat="42.3290490" lon="-8.6062560">
        <ele>56.0</ele>
        <time>2021-05-21T08:07:16Z</time>
      </trkpt>
      <trkpt lat="42.3290670" lon="-8.6062630">
        <ele>56.1</ele>
        <time>2021-05-21T08:07:17Z</time>
      </trkpt>
      <trkpt lat="42.3290720" lon="-8.6062660">
        <ele>56.1</ele>
        <time>2021-05-21T08:07:18Z</time>
      </trkpt>
      <trkpt lat="42.3290810" lon="-8.6062710">
        <ele>56.1</ele>
        <time>2021-05-21T08:07:19Z</time>
      </trkpt>
      <trkpt lat="42.3290920" lon="-8.6062800">
        <ele>56.2</ele>
        <time>2021-05-21T08:07:20Z</time>
      </trkpt>
      <trkpt lat="42.3291050" lon="-8.6062850">
        <ele>56.3</ele>
        <time>2021-05-21T08:07:21Z</time>
      </trkpt>
      <trkpt lat="42.3291110" lon="-8.6062820">
        <ele>56.3</ele>
        <time>2021-05-21T08:07:22Z</time>
      </trkpt>
      <trkpt lat="42.3291250" lon="-8.6062870">
        <ele>56.4</ele>
        <time>2021-05-21T08:07:23Z</time>
      </trkpt>
      <trkpt lat="42.3291310" lon="-8.6062940">
        <ele>56.4</ele>
        <time>2021-05-21T08:07:24Z</time>
      </trkpt>
      <trkpt lat="42.3291430" lon="-8.6062980">
        <ele>56.5</ele>
        <time>2021-05-21T08:07:25Z</time>
      </trkpt>
      <trkpt lat="42.3291620" lon="-8.6063190">
        <ele>56.6</ele>
        <time>2021-05-21T08:07:26Z</time>
      </trkpt>
      <trkpt lat="42.3291710" lon="-8.6063240">
        <ele>56.7</ele>
        <time>2021-05-21T08:07:27Z</time>
      </trkpt>
      <trkpt lat="42.3291800" lon="-8.6063280">
        <ele>56.7</ele>
        <time>2021-05-21T08:07:28Z</time>
      </trkpt>
      <trkpt lat="42.3291970" lon="-8.6063450">
        <ele>56.8</ele>
        <time>2021-05-21T08:07:29Z</time>
      </trkpt>
      <trkpt lat="42.3292040" lon="-8.6063510">
        <ele>56.9</ele>
        <time>2021-05-21T08:07:30Z</time>
      </trkpt>
      <trkpt lat="42.3292110" lon="-8.6063560">
        <ele>56.9</ele>
        <time>2021-05-21T08:07:31Z</time>
      </trkpt>
      <trkpt lat="42.3292170" lon="-8.6063680">
        <ele>57.0</ele>
        <time>2021-05-21T08:07:32Z</time>
      </trkpt>
      <trkpt lat="42.3292300" lon="-8.6063690">
        <ele>57.1</ele>
        <time>2021-05-21T08:07:33Z</time>
      </trkpt>
      <trkpt lat="42.3292390" lon="-8.6063810">
        <ele>57.1</ele>
        <time>2021-05-21T08:07:34Z</time>
      </trkpt>
      <trkpt lat="42.3292570" lon="-8.6063970">
        <ele>57.2</ele>
        <time>2021-05-21T08:07:35Z</time>
      </trkpt>
      <trkpt lat="42.3292660" lon="-8.6064030">
        <ele>57.3</ele>
        <time>2021-05-21T08:07:36Z</time>
      </trkpt>
      <trkpt lat="42.3292740" lon="-8.6064100">
        <ele>57.3</ele>
        <time>2021-05-21T08:07:37Z</time>
      </trkpt>
      <trkpt lat="42.3292810" lon="-8.6064150">
        <ele>57.4</ele>
        <time>2021-05-21T08:07:38Z</time>
      </trkpt>
      <trkpt lat="42.3292880" lon="-8.6064230">
        <ele>57.4</ele>
        <time>2021-05-21T08:07:39Z</time>
      </trkpt>
      <trkpt lat="42.3292980" lon="-8.6064300">
        <ele>57.5</ele>
        <time>2021-05-21T08:07:40Z</time>
      </trkpt>
      <trkpt lat="42.3293210" lon="-8.6064380">
        <ele>57.6</ele>
        <time>2021-05-21T08:07:41Z</time>
      </trkpt>
      <trkpt lat="42.3293310" lon="-8.6064400">
        <ele>57.7</ele>
        <time>2021-05-21T08:07:42Z</time>
      </trkpt>
      <trkpt lat="42.3293400" lon="-8.6064410">
        <ele>57.7</ele>
        <time>2021-05-21T08:07:43Z</time>
      </trkpt>
      <trkpt lat="42.3293540" lon="-8.6064580">
        <ele>57.8</ele>
        <time>2021-05-21T08:07:44Z</time>
      </trkpt>
      <trkpt lat="42.3293520" lon="-8.6064560">
        <ele>57.8</ele>
        <time>2021-05-21T08:07:45Z</time>
      </trkpt>
      <trkpt lat="42.3293630" lon="-8.6064600">
        <ele>57.9</ele>
        <time>2021-05-21T08:07:46Z</time>
      </trkpt>
      <trkpt lat="42.3293760" lon="-8.6064660">
        <ele>58.0</ele>
        <time>2021-05-21T08:07:47Z</time>
      </trkpt>
      <trkpt lat="42.3293900" lon="-8.6064810">
        <ele>58.1</ele>
        <time>2021-05-21T08:07:48Z</time>
      </trkpt>
      <trkpt lat="42.3293990" lon="-8.6064790">
        <ele>58.1</ele>
        <time>2021-05-21T08:07:49Z</time>
      </trkpt>
      <trkpt lat="42.3294090" lon="-8.6064900">
        <ele>58.2</ele>
        <time>2021-05-21T08:07:50Z</time>
      </trkpt>
      <trkpt lat="42.3294170" lon="-8.6064970">
        <ele>58.2</ele>
        <time>2021-05-21T08:07:51Z</time>
      </trkpt>
      <trkpt lat="42.3294210" lon="-8.6065000">
        <ele>58.2</ele>
        <time>2021-05-21T08:07:52Z</time>
      </trkpt>
      <trkpt lat="42.3294370" lon="-8.6065070">
        <ele>58.3</ele>
        <time>2021-05-21T08:07:53Z</time>
      </trkpt>
      <trkpt lat="42.3294460" lon="-8.6065120">
        <ele>58.4</ele>
        <time>2021-05-21T08:07:54Z</time>
      </trkpt>
      <trkpt lat="42.3294580" lon="-8.6065190">
        <ele>58.5</ele>
        <time>2021-05-21T08:07:55Z</time>
      </trkpt>
      <trkpt lat="42.3294740" lon="-8.6065290">
        <ele>58.5</ele>
        <time>2021-05-21T08:07:56Z</time>
      </trkpt>
      <trkpt lat="42.3294930" lon="-8.6065430">
        <ele>58.7</ele>
        <time>2021-05-21T08:07:57Z</time>
      </trkpt>
      <trkpt lat="42.3295030" lon="-8.6065490">
        <ele>58.7</ele>
        <time>2021-05-21T08:07:58Z</time>
      </trkpt>
      <trkpt lat="42.3295120" lon="-8.6065550">
        <ele>58.8</ele>
        <time>2021-05-21T08:07:59Z</time>
      </trkpt>
      <trkpt lat="42.3295160" lon="-8.6065580">
        <ele>58.8</ele>
        <time>2021-05-21T08:08:00Z</time>
      </trkpt>
      <trkpt lat="42.3295250" lon="-8.6065690">
        <ele>58.9</ele>
        <time>2021-05-21T08:08:01Z</time>
      </trkpt>
      <trkpt lat="42.3295340" lon="-8.6065710">
        <ele>58.9</ele>
        <time>2021-05-21T08:08:02Z</time>
      </trkpt>
      <trkpt lat="42.3295440" lon="-8.6065760">
        <ele>59.0</ele>
        <time>2021-05-21T08:08:03Z</time>
      </trkpt>
      <trkpt lat="42.3295580" lon="-8.6065740">
        <ele>59.0</ele>
        <time>2021-05-21T08:08:04Z</time>
      </trkpt>
      <trkpt lat="42.3295740" lon="-8.6065760">
        <ele>59.1</ele>
        <time>2021-05-21T08:08:05Z</time>
      </trkpt>
      <trkpt lat="42.3295890" lon="-8.6065880">
        <ele>59.2</ele>
        <time>2021-05-21T08:08:06Z</time>
      </trkpt>
      <trkpt lat="42.3295900" lon="-8.6065900">
        <ele>59.2</ele>
        <time>2021-05-21T08:08:07Z</time>
      </trkpt>
      <trkpt lat="42.3296000" lon="-8.6065970">
        <ele>59.3</ele>
        <time>2021-05-21T08:08:08Z</time>
      </trkpt>
      <trkpt lat="42.3296180" lon="-8.6065970">
        <ele>59.4</ele>
        <time>2021-05-21T08:08:09Z</time>
      </trkpt>
      <trkpt lat="42.3296280" lon="-8.6065990">
        <ele>59.4</ele>
        <time>2021-05-21T08:08:10Z</time>
      </trkpt>
      <trkpt lat="42.3296370" lon="-8.6066000">
        <ele>59.5</ele>
        <time>2021-05-21T08:08:11Z</time>
      </trkpt>
      <trkpt lat="42.3296500" lon="-8.6066030">
        <ele>59.6</ele>
        <time>2021-05-21T08:08:12Z</time>
      </trkpt>
      <trkpt lat="42.3296640" lon="-8.6066080">
        <ele>59.6</ele>
        <time>2021-05-21T08:08:13Z</time>
      </trkpt>
      <trkpt lat="42.3296870" lon="-8.6066190">
        <ele>59.8</ele>
        <time>2021-05-21T08:08:14Z</time>
      </trkpt>
      <trkpt lat="42.3296940" lon="-8.6066270">
        <ele>59.8</ele>
        <time>2021-05-21T08:08:15Z</time>
      </trkpt>
      <trkpt lat="42.3297010" lon="-8.6066350">
        <ele>59.9</ele>
        <time>2021-05-21T08:08:16Z</time>
      </trkpt>
      <trkpt lat="42.3297110" lon="-8.6066420">
        <ele>59.9</ele>
        <time>2021-05-21T08:08:17Z</time>
      </trkpt>
      <trkpt lat="42.3297210" lon="-8.6066520">
        <ele>60.0</ele>
        <time>2021-05-21T08:08:18Z</time>
      </trkpt>
      <trkpt lat="42.3297330" lon="-8.6066450">
        <ele>60.1</ele>
        <time>2021-05-21T08:08:19Z</time>
      </trkpt>
      <trkpt lat="42.3297510" lon="-8.6066510">
        <ele>60.2</ele>
        <time>2021-05-21T08:08:20Z</time>
      </trkpt>
      <trkpt lat="42.3297610" lon="-8.6066520">
        <ele>60.3</ele>
        <time>2021-05-21T08:08:21Z</time>
      </trkpt>
      <trkpt lat="42.3297720" lon="-8.6066530">
        <ele>60.3</ele>
        <time>2021-05-21T08:08:22Z</time>
      </trkpt>
      <trkpt lat="42.3297810" lon="-8.6066570">
        <ele>60.4</ele>
        <time>2021-05-21T08:08:23Z</time>
      </trkpt>
      <trkpt lat="42.3297940" lon="-8.6066600">
        <ele>60.5</ele>
        <time>2021-05-21T08:08:24Z</time>
      </trkpt>
      <trkpt lat="42.3298010" lon="-8.6066640">
        <ele>60.5</ele>
        <time>2021-05-21T08:08:25Z</time>
      </trkpt>
      <trkpt lat="42.3298190" lon="-8.6066710">
        <ele>60.6</ele>
        <time>2021-05-21T08:08:26Z</time>
      </trkpt>
      <trkpt lat="42.3298250" lon="-8.6066730">
        <ele>60.7</ele>
        <time>2021-05-21T08:08:27Z</time>
      </trkpt>
      <trkpt lat="42.3298300" lon="-8.6066680">
        <ele>60.7</ele>
        <time>2021-05-21T08:08:28Z</time>
      </trkpt>
      <trkpt lat="42.3298460" lon="-8.6066710">
        <ele>60.8</ele>
        <time>2021-05-21T08:08:29Z</time>
      </trkpt>
      <trkpt lat="42.3298540" lon="-8.6066710">
        <ele>60.9</ele>
        <time>2021-05-21T08:08:30Z</time>
      </trkpt>
      <trkpt lat="42.3298630" lon="-8.6066750">
        <ele>60.9</ele>
        <time>2021-05-21T08:08:31Z</time>
      </trkpt>
      <trkpt lat="42.3298700" lon="-8.6066730">
        <ele>61.0</ele>
        <time>2021-05-21T08:08:32Z</time>
      </trkpt>
      <trkpt lat="42.3298840" lon="-8.6066780">
        <ele>61.1</ele>
        <time>2021-05-21T08:08:34Z</time>
      </trkpt>
      <trkpt lat="42.3298920" lon="-8.6066770">
        <ele>61.1</ele>
        <time>2021-05-21T08:08:35Z</time>
      </trkpt>
      <trkpt lat="42.3299090" lon="-8.6066670">
        <ele>61.2</ele>
        <time>2021-05-21T08:08:36Z</time>
      </trkpt>
      <trkpt lat="42.3299200" lon="-8.6066760">
        <ele>61.3</ele>
        <time>2021-05-21T08:08:37Z</time>
      </trkpt>
      <trkpt lat="42.3299360" lon="-8.6066790">
        <ele>61.4</ele>
        <time>2021-05-21T08:08:38Z</time>
      </trkpt>
      <trkpt lat="42.3299520" lon="-8.6066850">
        <ele>61.5</ele>
        <time>2021-05-21T08:08:39Z</time>
      </trkpt>
      <trkpt lat="42.3299690" lon="-8.6066910">
        <ele>61.6</ele>
        <time>2021-05-21T08:08:40Z</time>
      </trkpt>
      <trkpt lat="42.3299780" lon="-8.6067010">
        <ele>61.6</ele>
        <time>2021-05-21T08:08:41Z</time>
      </trkpt>
      <trkpt lat="42.3300020" lon="-8.6067020">
        <ele>61.8</ele>
        <time>2021-05-21T08:08:42Z</time>
      </trkpt>
      <trkpt lat="42.3300090" lon="-8.6067030">
        <ele>61.8</ele>
        <time>2021-05-21T08:08:43Z</time>
      </trkpt>
      <trkpt lat="42.3300170" lon="-8.6067030">
        <ele>61.9</ele>
        <time>2021-05-21T08:08:44Z</time>
      </trkpt>
      <trkpt lat="42.3300400" lon="-8.6067200">
        <ele>62.0</ele>
        <time>2021-05-21T08:08:45Z</time>
      </trkpt>
      <trkpt lat="42.3300500" lon="-8.6067250">
        <ele>62.1</ele>
        <time>2021-05-21T08:08:46Z</time>
      </trkpt>
      <trkpt lat="42.3300600" lon="-8.6067300">
        <ele>62.1</ele>
        <time>2021-05-21T08:08:47Z</time>
      </trkpt>
      <trkpt lat="42.3300670" lon="-8.6067310">
        <ele>62.2</ele>
        <time>2021-05-21T08:08:48Z</time>
      </trkpt>
      <trkpt lat="42.3300860" lon="-8.6067350">
        <ele>62.3</ele>
        <time>2021-05-21T08:08:49Z</time>
      </trkpt>
      <trkpt lat="42.3300940" lon="-8.6067320">
        <ele>62.3</ele>
        <time>2021-05-21T08:08:50Z</time>
      </trkpt>
      <trkpt lat="42.3301100" lon="-8.6067280">
        <ele>62.4</ele>
        <time>2021-05-21T08:08:51Z</time>
      </trkpt>
      <trkpt lat="42.3301170" lon="-8.6067300">
        <ele>62.4</ele>
        <time>2021-05-21T08:08:52Z</time>
      </trkpt>
      <trkpt lat="42.3301240" lon="-8.6067330">
        <ele>62.5</ele>
        <time>2021-05-21T08:08:53Z</time>
      </trkpt>
      <trkpt lat="42.3301310" lon="-8.6067360">
        <ele>62.5</ele>
        <time>2021-05-21T08:08:54Z</time>
      </trkpt>
      <trkpt lat="42.3301510" lon="-8.6067410">
        <ele>62.6</ele>
        <time>2021-05-21T08:08:55Z</time>
      </trkpt>
      <trkpt lat="42.3301610" lon="-8.6067460">
        <ele>62.7</ele>
        <time>2021-05-21T08:08:56Z</time>
      </trkpt>
      <trkpt lat="42.3301730" lon="-8.6067430">
        <ele>62.7</ele>
        <time>2021-05-21T08:08:57Z</time>
      </trkpt>
      <trkpt lat="42.3301900" lon="-8.6067500">
        <ele>62.8</ele>
        <time>2021-05-21T08:08:58Z</time>
      </trkpt>
      <trkpt lat="42.3302120" lon="-8.6067600">
        <ele>63.0</ele>
        <time>2021-05-21T08:08:59Z</time>
      </trkpt>
      <trkpt lat="42.3302210" lon="-8.6067620">
        <ele>63.0</ele>
        <time>2021-05-21T08:09:00Z</time>
      </trkpt>
      <trkpt lat="42.3302310" lon="-8.6067650">
        <ele>63.1</ele>
        <time>2021-05-21T08:09:01Z</time>
      </trkpt>
      <trkpt lat="42.3302420" lon="-8.6067690">
        <ele>63.1</ele>
        <time>2021-05-21T08:09:02Z</time>
      </trkpt>
      <trkpt lat="42.3302530" lon="-8.6067710">
        <ele>63.2</ele>
        <time>2021-05-21T08:09:03Z</time>
      </trkpt>
      <trkpt lat="42.3302660" lon="-8.6067720">
        <ele>63.3</ele>
        <time>2021-05-21T08:09:04Z</time>
      </trkpt>
      <trkpt lat="42.3302750" lon="-8.6067730">
        <ele>63.3</ele>
        <time>2021-05-21T08:09:05Z</time>
      </trkpt>
      <trkpt lat="42.3302830" lon="-8.6067730">
        <ele>63.3</ele>
        <time>2021-05-21T08:09:06Z</time>
      </trkpt>
      <trkpt lat="42.3302960" lon="-8.6067810">
        <ele>63.4</ele>
        <time>2021-05-21T08:09:07Z</time>
      </trkpt>
      <trkpt lat="42.3303180" lon="-8.6067780">
        <ele>63.5</ele>
        <time>2021-05-21T08:09:08Z</time>
      </trkpt>
      <trkpt lat="42.3303280" lon="-8.6067780">
        <ele>63.6</ele>
        <time>2021-05-21T08:09:09Z</time>
      </trkpt>
      <trkpt lat="42.3303380" lon="-8.6067770">
        <ele>63.6</ele>
        <time>2021-05-21T08:09:10Z</time>
      </trkpt>
      <trkpt lat="42.3303710" lon="-8.6067760">
        <ele>63.8</ele>
        <time>2021-05-21T08:09:11Z</time>
      </trkpt>
      <trkpt lat="42.3303800" lon="-8.6067770">
        <ele>63.8</ele>
        <time>2021-05-21T08:09:12Z</time>
      </trkpt>
      <trkpt lat="42.3303880" lon="-8.6067820">
        <ele>63.9</ele>
        <time>2021-05-21T08:09:14Z</time>
      </trkpt>
      <trkpt lat="42.3304110" lon="-8.6067810">
        <ele>64.0</ele>
        <time>2021-05-21T08:09:15Z</time>
      </trkpt>
      <trkpt lat="42.3304210" lon="-8.6067780">
        <ele>64.0</ele>
        <time>2021-05-21T08:09:16Z</time>
      </trkpt>
      <trkpt lat="42.3304350" lon="-8.6067880">
        <ele>64.1</ele>
        <time>2021-05-21T08:09:17Z</time>
      </trkpt>
      <trkpt lat="42.3304430" lon="-8.6067790">
        <ele>64.1</ele>
        <time>2021-05-21T08:09:18Z</time>
      </trkpt>
      <trkpt lat="42.3304500" lon="-8.6067900">
        <ele>64.2</ele>
        <time>2021-05-21T08:09:19Z</time>
      </trkpt>
      <trkpt lat="42.3304600" lon="-8.6067880">
        <ele>64.2</ele>
        <time>2021-05-21T08:09:20Z</time>
      </trkpt>
      <trkpt lat="42.3304740" lon="-8.6067890">
        <ele>64.3</ele>
        <time>2021-05-21T08:09:21Z</time>
      </trkpt>
      <trkpt lat="42.3304860" lon="-8.6067900">
        <ele>64.4</ele>
        <time>2021-05-21T08:09:22Z</time>
      </trkpt>
      <trkpt lat="42.3305020" lon="-8.6067920">
        <ele>64.4</ele>
        <time>2021-05-21T08:09:23Z</time>
      </trkpt>
      <trkpt lat="42.3305160" lon="-8.6067960">
        <ele>64.5</ele>
        <time>2021-05-21T08:09:24Z</time>
      </trkpt>
      <trkpt lat="42.3305300" lon="-8.6067960">
        <ele>64.6</ele>
        <time>2021-05-21T08:09:25Z</time>
      </trkpt>
      <trkpt lat="42.3305390" lon="-8.6067940">
        <ele>64.6</ele>
        <time>2021-05-21T08:09:26Z</time>
      </trkpt>
      <trkpt lat="42.3305610" lon="-8.6067910">
        <ele>64.7</ele>
        <time>2021-05-21T08:09:27Z</time>
      </trkpt>
      <trkpt lat="42.3305820" lon="-8.6067890">
        <ele>64.8</ele>
        <time>2021-05-21T08:09:28Z</time>
      </trkpt>
      <trkpt lat="42.3305910" lon="-8.6067910">
        <ele>64.8</ele>
        <time>2021-05-21T08:09:29Z</time>
      </trkpt>
      <trkpt lat="42.3305990" lon="-8.6067920">
        <ele>64.9</ele>
        <time>2021-05-21T08:09:30Z</time>
      </trkpt>
      <trkpt lat="42.3306120" lon="-8.6067900">
        <ele>64.9</ele>
        <time>2021-05-21T08:09:31Z</time>
      </trkpt>
      <trkpt lat="42.3306180" lon="-8.6067840">
        <ele>65.0</ele>
        <time>2021-05-21T08:09:32Z</time>
      </trkpt>
      <trkpt lat="42.3306320" lon="-8.6067870">
        <ele>65.0</ele>
        <time>2021-05-21T08:09:33Z</time>
      </trkpt>
      <trkpt lat="42.3306500" lon="-8.6067870">
        <ele>65.1</ele>
        <time>2021-05-21T08:09:35Z</time>
      </trkpt>
      <trkpt lat="42.3306600" lon="-8.6067890">
        <ele>65.2</ele>
        <time>2021-05-21T08:09:36Z</time>
      </trkpt>
      <trkpt lat="42.3306700" lon="-8.6067910">
        <ele>65.2</ele>
        <time>2021-05-21T08:09:37Z</time>
      </trkpt>
      <trkpt lat="42.3306690" lon="-8.6067890">
        <ele>65.2</ele>
        <time>2021-05-21T08:09:38Z</time>
      </trkpt>
      <trkpt lat="42.3306860" lon="-8.6067890">
        <ele>65.3</ele>
        <time>2021-05-21T08:09:39Z</time>
      </trkpt>
      <trkpt lat="42.3307020" lon="-8.6067870">
        <ele>65.4</ele>
        <time>2021-05-21T08:09:40Z</time>
      </trkpt>
      <trkpt lat="42.3307140" lon="-8.6067880">
        <ele>65.4</ele>
        <time>2021-05-21T08:09:41Z</time>
      </trkpt>
      <trkpt lat="42.3307320" lon="-8.6067870">
        <ele>65.5</ele>
        <time>2021-05-21T08:09:42Z</time>
      </trkpt>
      <trkpt lat="42.3307550" lon="-8.6067960">
        <ele>65.6</ele>
        <time>2021-05-21T08:09:43Z</time>
      </trkpt>
      <trkpt lat="42.3307650" lon="-8.6067970">
        <ele>65.6</ele>
        <time>2021-05-21T08:09:44Z</time>
      </trkpt>
      <trkpt lat="42.3307750" lon="-8.6067970">
        <ele>65.7</ele>
        <time>2021-05-21T08:09:45Z</time>
      </trkpt>
      <trkpt lat="42.3307830" lon="-8.6068010">
        <ele>65.7</ele>
        <time>2021-05-21T08:09:46Z</time>
      </trkpt>
      <trkpt lat="42.3307920" lon="-8.6068030">
        <ele>65.8</ele>
        <time>2021-05-21T08:09:47Z</time>
      </trkpt>
      <trkpt lat="42.3308100" lon="-8.6068080">
        <ele>65.8</ele>
        <time>2021-05-21T08:09:48Z</time>
      </trkpt>
      <trkpt lat="42.3308320" lon="-8.6068180">
        <ele>65.9</ele>
        <time>2021-05-21T08:09:49Z</time>
      </trkpt>
      <trkpt lat="42.3308390" lon="-8.6068200">
        <ele>66.0</ele>
        <time>2021-05-21T08:09:50Z</time>
      </trkpt>
      <trkpt lat="42.3308470" lon="-8.6068220">
        <ele>66.0</ele>
        <time>2021-05-21T08:09:51Z</time>
      </trkpt>
      <trkpt lat="42.3308650" lon="-8.6068240">
        <ele>66.1</ele>
        <time>2021-05-21T08:09:52Z</time>
      </trkpt>
      <trkpt lat="42.3308770" lon="-8.6068210">
        <ele>66.1</ele>
        <time>2021-05-21T08:09:53Z</time>
      </trkpt>
      <trkpt lat="42.3308970" lon="-8.6068190">
        <ele>66.2</ele>
        <time>2021-05-21T08:09:54Z</time>
      </trkpt>
      <trkpt lat="42.3309050" lon="-8.6068160">
        <ele>66.2</ele>
        <time>2021-05-21T08:09:55Z</time>
      </trkpt>
      <trkpt lat="42.3309140" lon="-8.6068140">
        <ele>66.3</ele>
        <time>2021-05-21T08:09:56Z</time>
      </trkpt>
      <trkpt lat="42.3309230" lon="-8.6068170">
        <ele>66.3</ele>
        <time>2021-05-21T08:09:57Z</time>
      </trkpt>
      <trkpt lat="42.3309380" lon="-8.6068150">
        <ele>66.4</ele>
        <time>2021-05-21T08:09:58Z</time>
      </trkpt>
      <trkpt lat="42.3309470" lon="-8.6068140">
        <ele>66.4</ele>
        <time>2021-05-21T08:09:59Z</time>
      </trkpt>
      <trkpt lat="42.3309550" lon="-8.6068150">
        <ele>66.5</ele>
        <time>2021-05-21T08:10:00Z</time>
      </trkpt>
      <trkpt lat="42.3309750" lon="-8.6068150">
        <ele>66.5</ele>
        <time>2021-05-21T08:10:01Z</time>
      </trkpt>
      <trkpt lat="42.3309800" lon="-8.6068170">
        <ele>66.6</ele>
        <time>2021-05-21T08:10:02Z</time>
      </trkpt>
      <trkpt lat="42.3309940" lon="-8.6068090">
        <ele>66.6</ele>
        <time>2021-05-21T08:10:03Z</time>
      </trkpt>
      <trkpt lat="42.3310070" lon="-8.6068150">
        <ele>66.7</ele>
        <time>2021-05-21T08:10:04Z</time>
      </trkpt>
      <trkpt lat="42.3310150" lon="-8.6068140">
        <ele>66.7</ele>
        <time>2021-05-21T08:10:05Z</time>
      </trkpt>
      <trkpt lat="42.3310310" lon="-8.6068230">
        <ele>66.8</ele>
        <time>2021-05-21T08:10:06Z</time>
      </trkpt>
      <trkpt lat="42.3310410" lon="-8.6068260">
        <ele>66.8</ele>
        <time>2021-05-21T08:10:07Z</time>
      </trkpt>
      <trkpt lat="42.3310570" lon="-8.6068250">
        <ele>66.9</ele>
        <time>2021-05-21T08:10:08Z</time>
      </trkpt>
      <trkpt lat="42.3310710" lon="-8.6068290">
        <ele>66.9</ele>
        <time>2021-05-21T08:10:09Z</time>
      </trkpt>
      <trkpt lat="42.3310860" lon="-8.6068300">
        <ele>67.0</ele>
        <time>2021-05-21T08:10:10Z</time>
      </trkpt>
      <trkpt lat="42.3310880" lon="-8.6068250">
        <ele>67.0</ele>
        <time>2021-05-21T08:10:11Z</time>
      </trkpt>
      <trkpt lat="42.3311050" lon="-8.6068290">
        <ele>67.1</ele>
        <time>2021-05-21T08:10:12Z</time>
      </trkpt>
      <trkpt lat="42.3311170" lon="-8.6068330">
        <ele>67.2</ele>
        <time>2021-05-21T08:10:13Z</time>
      </trkpt>
      <trkpt lat="42.3311400" lon="-8.6068380">
        <ele>67.3</ele>
        <time>2021-05-21T08:10:14Z</time>
      </trkpt>
      <trkpt lat="42.3311420" lon="-8.6068390">
        <ele>67.3</ele>
        <time>2021-05-21T08:10:15Z</time>
      </trkpt>
      <trkpt lat="42.3311520" lon="-8.6068420">
        <ele>67.3</ele>
        <time>2021-05-21T08:10:16Z</time>
      </trkpt>
      <trkpt lat="42.3311660" lon="-8.6068410">
        <ele>67.4</ele>
        <time>2021-05-21T08:10:17Z</time>
      </trkpt>
      <trkpt lat="42.3311730" lon="-8.6068430">
        <ele>67.4</ele>
        <time>2021-05-21T08:10:18Z</time>
      </trkpt>
      <trkpt lat="42.3311800" lon="-8.6068470">
        <ele>67.4</ele>
        <time>2021-05-21T08:10:19Z</time>
      </trkpt>
      <trkpt lat="42.3311920" lon="-8.6068480">
        <ele>67.5</ele>
        <time>2021-05-21T08:10:20Z</time>
      </trkpt>
      <trkpt lat="42.3312010" lon="-8.6068430">
        <ele>67.5</ele>
        <time>2021-05-21T08:10:21Z</time>
      </trkpt>
      <trkpt lat="42.3312160" lon="-8.6068450">
        <ele>67.6</ele>
        <time>2021-05-21T08:10:22Z</time>
      </trkpt>
      <trkpt lat="42.3312370" lon="-8.6068510">
        <ele>67.7</ele>
        <time>2021-05-21T08:10:23Z</time>
      </trkpt>
      <trkpt lat="42.3312520" lon="-8.6068530">
        <ele>67.8</ele>
        <time>2021-05-21T08:10:24Z</time>
      </trkpt>
      <trkpt lat="42.3312600" lon="-8.6068550">
        <ele>67.8</ele>
        <time>2021-05-21T08:10:25Z</time>
      </trkpt>
      <trkpt lat="42.3312690" lon="-8.6068560">
        <ele>67.8</ele>
        <time>2021-05-21T08:10:26Z</time>
      </trkpt>
      <trkpt lat="42.3312770" lon="-8.6068580">
        <ele>67.8</ele>
        <time>2021-05-21T08:10:27Z</time>
      </trkpt>
      <trkpt lat="42.3313000" lon="-8.6068610">
        <ele>67.9</ele>
        <time>2021-05-21T08:10:28Z</time>
      </trkpt>
      <trkpt lat="42.3313090" lon="-8.6068610">
        <ele>67.9</ele>
        <time>2021-05-21T08:10:29Z</time>
      </trkpt>
      <trkpt lat="42.3313170" lon="-8.6068610">
        <ele>67.9</ele>
        <time>2021-05-21T08:10:30Z</time>
      </trkpt>
      <trkpt lat="42.3313300" lon="-8.6068640">
        <ele>67.9</ele>
        <time>2021-05-21T08:10:31Z</time>
      </trkpt>
      <trkpt lat="42.3313360" lon="-8.6068670">
        <ele>68.0</ele>
        <time>2021-05-21T08:10:32Z</time>
      </trkpt>
      <trkpt lat="42.3313510" lon="-8.6068690">
        <ele>68.0</ele>
        <time>2021-05-21T08:10:33Z</time>
      </trkpt>
      <trkpt lat="42.3313750" lon="-8.6068700">
        <ele>68.0</ele>
        <time>2021-05-21T08:10:34Z</time>
      </trkpt>
      <trkpt lat="42.3313820" lon="-8.6068710">
        <ele>68.0</ele>
        <time>2021-05-21T08:10:35Z</time>
      </trkpt>
      <trkpt lat="42.3313890" lon="-8.6068720">
        <ele>68.0</ele>
        <time>2021-05-21T08:10:36Z</time>
      </trkpt>
      <trkpt lat="42.3314110" lon="-8.6068770">
        <ele>68.0</ele>
        <time>2021-05-21T08:10:37Z</time>
      </trkpt>
      <trkpt lat="42.3314230" lon="-8.6068790">
        <ele>68.1</ele>
        <time>2021-05-21T08:10:38Z</time>
      </trkpt>
      <trkpt lat="42.3314350" lon="-8.6068810">
        <ele>68.1</ele>
        <time>2021-05-21T08:10:39Z</time>
      </trkpt>
      <trkpt lat="42.3314410" lon="-8.6068790">
        <ele>68.1</ele>
        <time>2021-05-21T08:10:40Z</time>
      </trkpt>
      <trkpt lat="42.3314510" lon="-8.6068770">
        <ele>68.1</ele>
        <time>2021-05-21T08:10:41Z</time>
      </trkpt>
      <trkpt lat="42.3314660" lon="-8.6068850">
        <ele>68.1</ele>
        <time>2021-05-21T08:10:42Z</time>
      </trkpt>
      <trkpt lat="42.3314870" lon="-8.6068870">
        <ele>68.1</ele>
        <time>2021-05-21T08:10:43Z</time>
      </trkpt>
      <trkpt lat="42.3314960" lon="-8.6068880">
        <ele>68.1</ele>
        <time>2021-05-21T08:10:44Z</time>
      </trkpt>
      <trkpt lat="42.3315060" lon="-8.6068900">
        <ele>68.1</ele>
        <time>2021-05-21T08:10:45Z</time>
      </trkpt>
      <trkpt lat="42.3315180" lon="-8.6068860">
        <ele>68.1</ele>
        <time>2021-05-21T08:10:46Z</time>
      </trkpt>
      <trkpt lat="42.3315280" lon="-8.6068830">
        <ele>68.1</ele>
        <time>2021-05-21T08:10:47Z</time>
      </trkpt>
      <trkpt lat="42.3315400" lon="-8.6068900">
        <ele>68.1</ele>
        <time>2021-05-21T08:10:48Z</time>
      </trkpt>
      <trkpt lat="42.3315470" lon="-8.6068940">
        <ele>68.1</ele>
        <time>2021-05-21T08:10:49Z</time>
      </trkpt>
      <trkpt lat="42.3315630" lon="-8.6068920">
        <ele>68.1</ele>
        <time>2021-05-21T08:10:50Z</time>
      </trkpt>
      <trkpt lat="42.3315740" lon="-8.6068930">
        <ele>68.1</ele>
        <time>2021-05-21T08:10:51Z</time>
      </trkpt>
      <trkpt lat="42.3315910" lon="-8.6068910">
        <ele>68.0</ele>
        <time>2021-05-21T08:10:52Z</time>
      </trkpt>
      <trkpt lat="42.3316030" lon="-8.6068900">
        <ele>68.0</ele>
        <time>2021-05-21T08:10:53Z</time>
      </trkpt>
      <trkpt lat="42.3316150" lon="-8.6068870">
        <ele>68.0</ele>
        <time>2021-05-21T08:10:54Z</time>
      </trkpt>
      <trkpt lat="42.3316230" lon="-8.6068890">
        <ele>68.0</ele>
        <time>2021-05-21T08:10:55Z</time>
      </trkpt>
      <trkpt lat="42.3316330" lon="-8.6068850">
        <ele>68.0</ele>
        <time>2021-05-21T08:10:56Z</time>
      </trkpt>
      <trkpt lat="42.3316440" lon="-8.6068770">
        <ele>68.0</ele>
        <time>2021-05-21T08:10:57Z</time>
      </trkpt>
      <trkpt lat="42.3316640" lon="-8.6068680">
        <ele>67.9</ele>
        <time>2021-05-21T08:10:58Z</time>
      </trkpt>
      <trkpt lat="42.3316730" lon="-8.6068600">
        <ele>67.9</ele>
        <time>2021-05-21T08:10:59Z</time>
      </trkpt>
      <trkpt lat="42.3316830" lon="-8.6068540">
        <ele>67.9</ele>
        <time>2021-05-21T08:11:00Z</time>
      </trkpt>
      <trkpt lat="42.3316960" lon="-8.6068470">
        <ele>67.9</ele>
        <time>2021-05-21T08:11:01Z</time>
      </trkpt>
      <trkpt lat="42.3317010" lon="-8.6068420">
        <ele>67.8</ele>
        <time>2021-05-21T08:11:02Z</time>
      </trkpt>
      <trkpt lat="42.3317060" lon="-8.6068310">
        <ele>67.8</ele>
        <time>2021-05-21T08:11:03Z</time>
      </trkpt>
      <trkpt lat="42.3317120" lon="-8.6068300">
        <ele>67.8</ele>
        <time>2021-05-21T08:11:04Z</time>
      </trkpt>
      <trkpt lat="42.3317210" lon="-8.6068230">
        <ele>67.8</ele>
        <time>2021-05-21T08:11:05Z</time>
      </trkpt>
      <trkpt lat="42.3317340" lon="-8.6068230">
        <ele>67.8</ele>
        <time>2021-05-21T08:11:06Z</time>
      </trkpt>
      <trkpt lat="42.3317490" lon="-8.6068270">
        <ele>67.8</ele>
        <time>2021-05-21T08:11:07Z</time>
      </trkpt>
      <trkpt lat="42.3317610" lon="-8.6068320">
        <ele>67.7</ele>
        <time>2021-05-21T08:11:08Z</time>
      </trkpt>
      <trkpt lat="42.3317820" lon="-8.6068390">
        <ele>67.7</ele>
        <time>2021-05-21T08:11:09Z</time>
      </trkpt>
      <trkpt lat="42.3317910" lon="-8.6068350">
        <ele>67.7</ele>
        <time>2021-05-21T08:11:10Z</time>
      </trkpt>
      <trkpt lat="42.3318010" lon="-8.6068340">
        <ele>67.7</ele>
        <time>2021-05-21T08:11:11Z</time>
      </trkpt>
      <trkpt lat="42.3318110" lon="-8.6068340">
        <ele>67.7</ele>
        <time>2021-05-21T08:11:12Z</time>
      </trkpt>
      <trkpt lat="42.3318210" lon="-8.6068330">
        <ele>67.6</ele>
        <time>2021-05-21T08:11:13Z</time>
      </trkpt>
      <trkpt lat="42.3318420" lon="-8.6068410">
        <ele>67.6</ele>
        <time>2021-05-21T08:11:14Z</time>
      </trkpt>
      <trkpt lat="42.3318510" lon="-8.6068380">
        <ele>67.6</ele>
        <time>2021-05-21T08:11:15Z</time>
      </trkpt>
      <trkpt lat="42.3318590" lon="-8.6068360">
        <ele>67.5</ele>
        <time>2021-05-21T08:11:16Z</time>
      </trkpt>
      <trkpt lat="42.3318740" lon="-8.6068380">
        <ele>67.5</ele>
        <time>2021-05-21T08:11:17Z</time>
      </trkpt>
      <trkpt lat="42.3318870" lon="-8.6068340">
        <ele>67.5</ele>
        <time>2021-05-21T08:11:18Z</time>
      </trkpt>
      <trkpt lat="42.3318980" lon="-8.6068250">
        <ele>67.5</ele>
        <time>2021-05-21T08:11:19Z</time>
      </trkpt>
      <trkpt lat="42.3319140" lon="-8.6068160">
        <ele>67.4</ele>
        <time>2021-05-21T08:11:20Z</time>
      </trkpt>
      <trkpt lat="42.3319260" lon="-8.6068170">
        <ele>67.4</ele>
        <time>2021-05-21T08:11:21Z</time>
      </trkpt>
      <trkpt lat="42.3319390" lon="-8.6068100">
        <ele>67.4</ele>
        <time>2021-05-21T08:11:22Z</time>
      </trkpt>
      <trkpt lat="42.3319510" lon="-8.6068120">
        <ele>67.3</ele>
        <time>2021-05-21T08:11:23Z</time>
      </trkpt>
      <trkpt lat="42.3319740" lon="-8.6068100">
        <ele>67.3</ele>
        <time>2021-05-21T08:11:24Z</time>
      </trkpt>
      <trkpt lat="42.3319810" lon="-8.6068090">
        <ele>67.2</ele>
        <time>2021-05-21T08:11:25Z</time>
      </trkpt>
      <trkpt lat="42.3319890" lon="-8.6068080">
        <ele>67.2</ele>
        <time>2021-05-21T08:11:26Z</time>
      </trkpt>
      <trkpt lat="42.3319950" lon="-8.6068070">
        <ele>67.2</ele>
        <time>2021-05-21T08:11:27Z</time>
      </trkpt>
      <trkpt lat="42.3320040" lon="-8.6068060">
        <ele>67.2</ele>
        <time>2021-05-21T08:11:28Z</time>
      </trkpt>
      <trkpt lat="42.3320050" lon="-8.6068030">
        <ele>67.2</ele>
        <time>2021-05-21T08:11:29Z</time>
      </trkpt>
      <trkpt lat="42.3320250" lon="-8.6068020">
        <ele>67.1</ele>
        <time>2021-05-21T08:11:30Z</time>
      </trkpt>
      <trkpt lat="42.3320480" lon="-8.6067960">
        <ele>67.1</ele>
        <time>2021-05-21T08:11:31Z</time>
      </trkpt>
      <trkpt lat="42.3320560" lon="-8.6067920">
        <ele>67.1</ele>
        <time>2021-05-21T08:11:32Z</time>
      </trkpt>
      <trkpt lat="42.3320640" lon="-8.6067890">
        <ele>67.0</ele>
        <time>2021-05-21T08:11:33Z</time>
      </trkpt>
      <trkpt lat="42.3320810" lon="-8.6067840">
        <ele>67.0</ele>
        <time>2021-05-21T08:11:34Z</time>
      </trkpt>
      <trkpt lat="42.3320840" lon="-8.6067810">
        <ele>67.0</ele>
        <time>2021-05-21T08:11:35Z</time>
      </trkpt>
      <trkpt lat="42.3320970" lon="-8.6067830">
        <ele>67.0</ele>
        <time>2021-05-21T08:11:36Z</time>
      </trkpt>
      <trkpt lat="42.3321160" lon="-8.6067800">
        <ele>66.9</ele>
        <time>2021-05-21T08:11:37Z</time>
      </trkpt>
      <trkpt lat="42.3321280" lon="-8.6067760">
        <ele>66.9</ele>
        <time>2021-05-21T08:11:38Z</time>
      </trkpt>
      <trkpt lat="42.3321330" lon="-8.6067760">
        <ele>66.9</ele>
        <time>2021-05-21T08:11:39Z</time>
      </trkpt>
      <trkpt lat="42.3321430" lon="-8.6067850">
        <ele>66.8</ele>
        <time>2021-05-21T08:11:40Z</time>
      </trkpt>
      <trkpt lat="42.3321570" lon="-8.6067860">
        <ele>66.8</ele>
        <time>2021-05-21T08:11:41Z</time>
      </trkpt>
      <trkpt lat="42.3321720" lon="-8.6067880">
        <ele>66.8</ele>
        <time>2021-05-21T08:11:42Z</time>
      </trkpt>
      <trkpt lat="42.3321880" lon="-8.6067920">
        <ele>66.7</ele>
        <time>2021-05-21T08:11:43Z</time>
      </trkpt>
      <trkpt lat="42.3321960" lon="-8.6067920">
        <ele>66.7</ele>
        <time>2021-05-21T08:11:44Z</time>
      </trkpt>
      <trkpt lat="42.3322080" lon="-8.6067930">
        <ele>66.7</ele>
        <time>2021-05-21T08:11:45Z</time>
      </trkpt>
      <trkpt lat="42.3322230" lon="-8.6067930">
        <ele>66.6</ele>
        <time>2021-05-21T08:11:46Z</time>
      </trkpt>
      <trkpt lat="42.3322320" lon="-8.6067910">
        <ele>66.6</ele>
        <time>2021-05-21T08:11:47Z</time>
      </trkpt>
      <trkpt lat="42.3322400" lon="-8.6067840">
        <ele>66.6</ele>
        <time>2021-05-21T08:11:48Z</time>
      </trkpt>
      <trkpt lat="42.3322520" lon="-8.6067730">
        <ele>66.5</ele>
        <time>2021-05-21T08:11:49Z</time>
      </trkpt>
      <trkpt lat="42.3322640" lon="-8.6067680">
        <ele>66.5</ele>
        <time>2021-05-21T08:11:50Z</time>
      </trkpt>
      <trkpt lat="42.3322790" lon="-8.6067630">
        <ele>66.4</ele>
        <time>2021-05-21T08:11:51Z</time>
      </trkpt>
      <trkpt lat="42.3322880" lon="-8.6067610">
        <ele>66.4</ele>
        <time>2021-05-21T08:11:52Z</time>
      </trkpt>
      <trkpt lat="42.3323020" lon="-8.6067570">
        <ele>66.3</ele>
        <time>2021-05-21T08:11:53Z</time>
      </trkpt>
      <trkpt lat="42.3323110" lon="-8.6067540">
        <ele>66.3</ele>
        <time>2021-05-21T08:11:54Z</time>
      </trkpt>
      <trkpt lat="42.3323260" lon="-8.6067490">
        <ele>66.3</ele>
        <time>2021-05-21T08:11:55Z</time>
      </trkpt>
      <trkpt lat="42.3323380" lon="-8.6067450">
        <ele>66.2</ele>
        <time>2021-05-21T08:11:56Z</time>
      </trkpt>
      <trkpt lat="42.3323560" lon="-8.6067450">
        <ele>66.1</ele>
        <time>2021-05-21T08:11:57Z</time>
      </trkpt>
      <trkpt lat="42.3323620" lon="-8.6067450">
        <ele>66.1</ele>
        <time>2021-05-21T08:11:58Z</time>
      </trkpt>
      <trkpt lat="42.3323690" lon="-8.6067460">
        <ele>66.1</ele>
        <time>2021-05-21T08:11:59Z</time>
      </trkpt>
      <trkpt lat="42.3323750" lon="-8.6067460">
        <ele>66.1</ele>
        <time>2021-05-21T08:12:00Z</time>
      </trkpt>
      <trkpt lat="42.3323830" lon="-8.6067460">
        <ele>66.0</ele>
        <time>2021-05-21T08:12:01Z</time>
      </trkpt>
      <trkpt lat="42.3323940" lon="-8.6067470">
        <ele>66.0</ele>
        <time>2021-05-21T08:12:02Z</time>
      </trkpt>
      <trkpt lat="42.3324000" lon="-8.6067500">
        <ele>66.0</ele>
        <time>2021-05-21T08:12:03Z</time>
      </trkpt>
      <trkpt lat="42.3324100" lon="-8.6067480">
        <ele>65.9</ele>
        <time>2021-05-21T08:12:04Z</time>
      </trkpt>
      <trkpt lat="42.3324310" lon="-8.6067450">
        <ele>65.8</ele>
        <time>2021-05-21T08:12:05Z</time>
      </trkpt>
      <trkpt lat="42.3324410" lon="-8.6067470">
        <ele>65.8</ele>
        <time>2021-05-21T08:12:06Z</time>
      </trkpt>
      <trkpt lat="42.3324510" lon="-8.6067480">
        <ele>65.8</ele>
        <time>2021-05-21T08:12:07Z</time>
      </trkpt>
      <trkpt lat="42.3324710" lon="-8.6067430">
        <ele>65.7</ele>
        <time>2021-05-21T08:12:08Z</time>
      </trkpt>
      <trkpt lat="42.3324830" lon="-8.6067540">
        <ele>65.6</ele>
        <time>2021-05-21T08:12:09Z</time>
      </trkpt>
      <trkpt lat="42.3325060" lon="-8.6067600">
        <ele>65.5</ele>
        <time>2021-05-21T08:12:10Z</time>
      </trkpt>
      <trkpt lat="42.3325160" lon="-8.6067630">
        <ele>65.5</ele>
        <time>2021-05-21T08:12:11Z</time>
      </trkpt>
      <trkpt lat="42.3325270" lon="-8.6067660">
        <ele>65.4</ele>
        <time>2021-05-21T08:12:12Z</time>
      </trkpt>
      <trkpt lat="42.3325360" lon="-8.6067720">
        <ele>65.4</ele>
        <time>2021-05-21T08:12:13Z</time>
      </trkpt>
      <trkpt lat="42.3325560" lon="-8.6067630">
        <ele>65.3</ele>
        <time>2021-05-21T08:12:14Z</time>
      </trkpt>
      <trkpt lat="42.3325660" lon="-8.6067580">
        <ele>65.2</ele>
        <time>2021-05-21T08:12:15Z</time>
      </trkpt>
      <trkpt lat="42.3325800" lon="-8.6067570">
        <ele>65.1</ele>
        <time>2021-05-21T08:12:16Z</time>
      </trkpt>
      <trkpt lat="42.3325910" lon="-8.6067500">
        <ele>65.1</ele>
        <time>2021-05-21T08:12:17Z</time>
      </trkpt>
      <trkpt lat="42.3326030" lon="-8.6067480">
        <ele>65.0</ele>
        <time>2021-05-21T08:12:18Z</time>
      </trkpt>
      <trkpt lat="42.3326120" lon="-8.6067460">
        <ele>65.0</ele>
        <time>2021-05-21T08:12:19Z</time>
      </trkpt>
      <trkpt lat="42.3326230" lon="-8.6067380">
        <ele>64.9</ele>
        <time>2021-05-21T08:12:20Z</time>
      </trkpt>
      <trkpt lat="42.3326310" lon="-8.6067360">
        <ele>64.8</ele>
        <time>2021-05-21T08:12:21Z</time>
      </trkpt>
      <trkpt lat="42.3326430" lon="-8.6067340">
        <ele>64.8</ele>
        <time>2021-05-21T08:12:22Z</time>
      </trkpt>
      <trkpt lat="42.3326550" lon="-8.6067290">
        <ele>64.7</ele>
        <time>2021-05-21T08:12:23Z</time>
      </trkpt>
      <trkpt lat="42.3326770" lon="-8.6067200">
        <ele>64.6</ele>
        <time>2021-05-21T08:12:24Z</time>
      </trkpt>
      <trkpt lat="42.3326860" lon="-8.6067150">
        <ele>64.5</ele>
        <time>2021-05-21T08:12:25Z</time>
      </trkpt>
      <trkpt lat="42.3326950" lon="-8.6067110">
        <ele>64.5</ele>
        <time>2021-05-21T08:12:26Z</time>
      </trkpt>
      <trkpt lat="42.3327060" lon="-8.6067140">
        <ele>64.4</ele>
        <time>2021-05-21T08:12:27Z</time>
      </trkpt>
      <trkpt lat="42.3327170" lon="-8.6067140">
        <ele>64.3</ele>
        <time>2021-05-21T08:12:28Z</time>
      </trkpt>
      <trkpt lat="42.3327290" lon="-8.6067220">
        <ele>64.3</ele>
        <time>2021-05-21T08:12:29Z</time>
      </trkpt>
      <trkpt lat="42.3327430" lon="-8.6067290">
        <ele>64.2</ele>
        <time>2021-05-21T08:12:30Z</time>
      </trkpt>
      <trkpt lat="42.3327610" lon="-8.6067340">
        <ele>64.1</ele>
        <time>2021-05-21T08:12:31Z</time>
      </trkpt>
      <trkpt lat="42.3327750" lon="-8.6067310">
        <ele>64.0</ele>
        <time>2021-05-21T08:12:32Z</time>
      </trkpt>
      <trkpt lat="42.3327830" lon="-8.6067330">
        <ele>63.9</ele>
        <time>2021-05-21T08:12:33Z</time>
      </trkpt>
      <trkpt lat="42.3327970" lon="-8.6067250">
        <ele>63.8</ele>
        <time>2021-05-21T08:12:34Z</time>
      </trkpt>
      <trkpt lat="42.3328130" lon="-8.6067280">
        <ele>63.7</ele>
        <time>2021-05-21T08:12:35Z</time>
      </trkpt>
      <trkpt lat="42.3328240" lon="-8.6067300">
        <ele>63.6</ele>
        <time>2021-05-21T08:12:36Z</time>
      </trkpt>
      <trkpt lat="42.3328290" lon="-8.6067080">
        <ele>63.5</ele>
        <time>2021-05-21T08:12:37Z</time>
      </trkpt>
      <trkpt lat="42.3328410" lon="-8.6066880">
        <ele>63.4</ele>
        <time>2021-05-21T08:12:38Z</time>
      </trkpt>
      <trkpt lat="42.3328490" lon="-8.6066800">
        <ele>63.4</ele>
        <time>2021-05-21T08:12:39Z</time>
      </trkpt>
      <trkpt lat="42.3328560" lon="-8.6066720">
        <ele>63.3</ele>
        <time>2021-05-21T08:12:40Z</time>
      </trkpt>
      <trkpt lat="42.3328800" lon="-8.6066640">
        <ele>63.2</ele>
        <time>2021-05-21T08:12:41Z</time>
      </trkpt>
      <trkpt lat="42.3328870" lon="-8.6066610">
        <ele>63.1</ele>
        <time>2021-05-21T08:12:42Z</time>
      </trkpt>
      <trkpt lat="42.3328930" lon="-8.6066570">
        <ele>63.1</ele>
        <time>2021-05-21T08:12:43Z</time>
      </trkpt>
      <trkpt lat="42.3329060" lon="-8.6066500">
        <ele>63.0</ele>
        <time>2021-05-21T08:12:44Z</time>
      </trkpt>
      <trkpt lat="42.3329250" lon="-8.6066500">
        <ele>62.9</ele>
        <time>2021-05-21T08:12:45Z</time>
      </trkpt>
      <trkpt lat="42.3329380" lon="-8.6066440">
        <ele>62.8</ele>
        <time>2021-05-21T08:12:46Z</time>
      </trkpt>
      <trkpt lat="42.3329440" lon="-8.6066400">
        <ele>62.7</ele>
        <time>2021-05-21T08:12:47Z</time>
      </trkpt>
      <trkpt lat="42.3329520" lon="-8.6066470">
        <ele>62.7</ele>
        <time>2021-05-21T08:12:48Z</time>
      </trkpt>
      <trkpt lat="42.3329620" lon="-8.6066510">
        <ele>62.6</ele>
        <time>2021-05-21T08:12:49Z</time>
      </trkpt>
      <trkpt lat="42.3329670" lon="-8.6066600">
        <ele>62.6</ele>
        <time>2021-05-21T08:12:50Z</time>
      </trkpt>
      <trkpt lat="42.3329640" lon="-8.6066670">
        <ele>62.5</ele>
        <time>2021-05-21T08:12:51Z</time>
      </trkpt>
      <trkpt lat="42.3329670" lon="-8.6066750">
        <ele>62.5</ele>
        <time>2021-05-21T08:12:52Z</time>
      </trkpt>
      <trkpt lat="42.3329710" lon="-8.6066770">
        <ele>62.4</ele>
        <time>2021-05-21T08:12:53Z</time>
      </trkpt>
      <trkpt lat="42.3329900" lon="-8.6066730">
        <ele>62.3</ele>
        <time>2021-05-21T08:12:54Z</time>
      </trkpt>
      <trkpt lat="42.3329990" lon="-8.6066690">
        <ele>62.3</ele>
        <time>2021-05-21T08:12:55Z</time>
      </trkpt>
      <trkpt lat="42.3330070" lon="-8.6066650">
        <ele>62.2</ele>
        <time>2021-05-21T08:12:56Z</time>
      </trkpt>
      <trkpt lat="42.3330170" lon="-8.6066580">
        <ele>62.2</ele>
        <time>2021-05-21T08:12:57Z</time>
      </trkpt>
      <trkpt lat="42.3330290" lon="-8.6066570">
        <ele>62.1</ele>
        <time>2021-05-21T08:12:58Z</time>
      </trkpt>
      <trkpt lat="42.3330370" lon="-8.6066550">
        <ele>62.1</ele>
        <time>2021-05-21T08:12:59Z</time>
      </trkpt>
      <trkpt lat="42.3330430" lon="-8.6066550">
        <ele>62.1</ele>
        <time>2021-05-21T08:13:00Z</time>
      </trkpt>
      <trkpt lat="42.3330480" lon="-8.6066550">
        <ele>62.0</ele>
        <time>2021-05-21T08:13:01Z</time>
      </trkpt>
      <trkpt lat="42.3330610" lon="-8.6066570">
        <ele>62.0</ele>
        <time>2021-05-21T08:13:02Z</time>
      </trkpt>
      <trkpt lat="42.3330700" lon="-8.6066500">
        <ele>61.9</ele>
        <time>2021-05-21T08:13:03Z</time>
      </trkpt>
      <trkpt lat="42.3330880" lon="-8.6066500">
        <ele>61.9</ele>
        <time>2021-05-21T08:13:04Z</time>
      </trkpt>
      <trkpt lat="42.3330950" lon="-8.6066420">
        <ele>61.8</ele>
        <time>2021-05-21T08:13:05Z</time>
      </trkpt>
      <trkpt lat="42.3331020" lon="-8.6066350">
        <ele>61.8</ele>
        <time>2021-05-21T08:13:06Z</time>
      </trkpt>
      <trkpt lat="42.3331090" lon="-8.6066270">
        <ele>61.8</ele>
        <time>2021-05-21T08:13:07Z</time>
      </trkpt>
      <trkpt lat="42.3331310" lon="-8.6066150">
        <ele>61.7</ele>
        <time>2021-05-21T08:13:08Z</time>
      </trkpt>
      <trkpt lat="42.3331400" lon="-8.6066150">
        <ele>61.6</ele>
        <time>2021-05-21T08:13:09Z</time>
      </trkpt>
      <trkpt lat="42.3331480" lon="-8.6066140">
        <ele>61.6</ele>
        <time>2021-05-21T08:13:10Z</time>
      </trkpt>
      <trkpt lat="42.3331670" lon="-8.6066040">
        <ele>61.5</ele>
        <time>2021-05-21T08:13:11Z</time>
      </trkpt>
      <trkpt lat="42.3331780" lon="-8.6065990">
        <ele>61.5</ele>
        <time>2021-05-21T08:13:12Z</time>
      </trkpt>
      <trkpt lat="42.3331820" lon="-8.6065960">
        <ele>61.4</ele>
        <time>2021-05-21T08:13:13Z</time>
      </trkpt>
      <trkpt lat="42.3331890" lon="-8.6065970">
        <ele>61.4</ele>
        <time>2021-05-21T08:13:14Z</time>
      </trkpt>
      <trkpt lat="42.3331910" lon="-8.6065960">
        <ele>61.4</ele>
        <time>2021-05-21T08:13:15Z</time>
      </trkpt>
      <trkpt lat="42.3332070" lon="-8.6065880">
        <ele>61.3</ele>
        <time>2021-05-21T08:13:16Z</time>
      </trkpt>
      <trkpt lat="42.3332150" lon="-8.6065820">
        <ele>61.2</ele>
        <time>2021-05-21T08:13:17Z</time>
      </trkpt>
      <trkpt lat="42.3332250" lon="-8.6065790">
        <ele>61.2</ele>
        <time>2021-05-21T08:13:18Z</time>
      </trkpt>
      <trkpt lat="42.3332410" lon="-8.6065810">
        <ele>61.1</ele>
        <time>2021-05-21T08:13:19Z</time>
      </trkpt>
      <trkpt lat="42.3332600" lon="-8.6065830">
        <ele>61.0</ele>
        <time>2021-05-21T08:13:20Z</time>
      </trkpt>
      <trkpt lat="42.3332700" lon="-8.6065850">
        <ele>60.9</ele>
        <time>2021-05-21T08:13:21Z</time>
      </trkpt>
      <trkpt lat="42.3332790" lon="-8.6065880">
        <ele>60.8</ele>
        <time>2021-05-21T08:13:22Z</time>
      </trkpt>
      <trkpt lat="42.3332930" lon="-8.6065800">
        <ele>60.7</ele>
        <time>2021-05-21T08:13:23Z</time>
      </trkpt>
      <trkpt lat="42.3333040" lon="-8.6065650">
        <ele>60.7</ele>
        <time>2021-05-21T08:13:24Z</time>
      </trkpt>
      <trkpt lat="42.3333150" lon="-8.6065640">
        <ele>60.6</ele>
        <time>2021-05-21T08:13:25Z</time>
      </trkpt>
      <trkpt lat="42.3333240" lon="-8.6065570">
        <ele>60.5</ele>
        <time>2021-05-21T08:13:26Z</time>
      </trkpt>
      <trkpt lat="42.3333330" lon="-8.6065510">
        <ele>60.5</ele>
        <time>2021-05-21T08:13:27Z</time>
      </trkpt>
      <trkpt lat="42.3333410" lon="-8.6065430">
        <ele>60.4</ele>
        <time>2021-05-21T08:13:28Z</time>
      </trkpt>
      <trkpt lat="42.3333590" lon="-8.6065320">
        <ele>60.3</ele>
        <time>2021-05-21T08:13:29Z</time>
      </trkpt>
      <trkpt lat="42.3333740" lon="-8.6065220">
        <ele>60.2</ele>
        <time>2021-05-21T08:13:30Z</time>
      </trkpt>
      <trkpt lat="42.3333920" lon="-8.6065150">
        <ele>60.1</ele>
        <time>2021-05-21T08:13:31Z</time>
      </trkpt>
      <trkpt lat="42.3334080" lon="-8.6065060">
        <ele>60.0</ele>
        <time>2021-05-21T08:13:32Z</time>
      </trkpt>
      <trkpt lat="42.3334240" lon="-8.6064980">
        <ele>60.0</ele>
        <time>2021-05-21T08:13:33Z</time>
      </trkpt>
      <trkpt lat="42.3334330" lon="-8.6064890">
        <ele>59.9</ele>
        <time>2021-05-21T08:13:34Z</time>
      </trkpt>
      <trkpt lat="42.3334460" lon="-8.6064750">
        <ele>59.8</ele>
        <time>2021-05-21T08:13:35Z</time>
      </trkpt>
      <trkpt lat="42.3334530" lon="-8.6064610">
        <ele>59.8</ele>
        <time>2021-05-21T08:13:36Z</time>
      </trkpt>
      <trkpt lat="42.3334470" lon="-8.6064520">
        <ele>59.7</ele>
        <time>2021-05-21T08:13:37Z</time>
      </trkpt>
      <trkpt lat="42.3334500" lon="-8.6064380">
        <ele>59.7</ele>
        <time>2021-05-21T08:13:38Z</time>
      </trkpt>
      <trkpt lat="42.3334730" lon="-8.6064240">
        <ele>59.6</ele>
        <time>2021-05-21T08:13:39Z</time>
      </trkpt>
      <trkpt lat="42.3334810" lon="-8.6064190">
        <ele>59.5</ele>
        <time>2021-05-21T08:13:40Z</time>
      </trkpt>
      <trkpt lat="42.3334900" lon="-8.6064150">
        <ele>59.5</ele>
        <time>2021-05-21T08:13:41Z</time>
      </trkpt>
      <trkpt lat="42.3335080" lon="-8.6064050">
        <ele>59.4</ele>
        <time>2021-05-21T08:13:42Z</time>
      </trkpt>
      <trkpt lat="42.3335190" lon="-8.6063990">
        <ele>59.4</ele>
        <time>2021-05-21T08:13:43Z</time>
      </trkpt>
      <trkpt lat="42.3335300" lon="-8.6063930">
        <ele>59.3</ele>
        <time>2021-05-21T08:13:44Z</time>
      </trkpt>
      <trkpt lat="42.3335480" lon="-8.6063890">
        <ele>59.2</ele>
        <time>2021-05-21T08:13:45Z</time>
      </trkpt>
      <trkpt lat="42.3335640" lon="-8.6063820">
        <ele>59.2</ele>
        <time>2021-05-21T08:13:46Z</time>
      </trkpt>
      <trkpt lat="42.3335780" lon="-8.6063810">
        <ele>59.1</ele>
        <time>2021-05-21T08:13:47Z</time>
      </trkpt>
      <trkpt lat="42.3335920" lon="-8.6063800">
        <ele>59.1</ele>
        <time>2021-05-21T08:13:48Z</time>
      </trkpt>
      <trkpt lat="42.3336130" lon="-8.6063790">
        <ele>59.0</ele>
        <time>2021-05-21T08:13:49Z</time>
      </trkpt>
      <trkpt lat="42.3336260" lon="-8.6063750">
        <ele>58.9</ele>
        <time>2021-05-21T08:13:50Z</time>
      </trkpt>
      <trkpt lat="42.3336450" lon="-8.6063740">
        <ele>58.8</ele>
        <time>2021-05-21T08:13:51Z</time>
      </trkpt>
      <trkpt lat="42.3336540" lon="-8.6063720">
        <ele>58.8</ele>
        <time>2021-05-21T08:13:52Z</time>
      </trkpt>
      <trkpt lat="42.3336630" lon="-8.6063700">
        <ele>58.8</ele>
        <time>2021-05-21T08:13:53Z</time>
      </trkpt>
      <trkpt lat="42.3336740" lon="-8.6063680">
        <ele>58.7</ele>
        <time>2021-05-21T08:13:54Z</time>
      </trkpt>
      <trkpt lat="42.3336890" lon="-8.6063580">
        <ele>58.6</ele>
        <time>2021-05-21T08:13:55Z</time>
      </trkpt>
      <trkpt lat="42.3336950" lon="-8.6063600">
        <ele>58.6</ele>
        <time>2021-05-21T08:13:56Z</time>
      </trkpt>
      <trkpt lat="42.3337160" lon="-8.6063540">
        <ele>58.5</ele>
        <time>2021-05-21T08:13:57Z</time>
      </trkpt>
      <trkpt lat="42.3337240" lon="-8.6063510">
        <ele>58.5</ele>
        <time>2021-05-21T08:13:58Z</time>
      </trkpt>
      <trkpt lat="42.3337310" lon="-8.6063480">
        <ele>58.4</ele>
        <time>2021-05-21T08:13:59Z</time>
      </trkpt>
      <trkpt lat="42.3337450" lon="-8.6063470">
        <ele>58.4</ele>
        <time>2021-05-21T08:14:00Z</time>
      </trkpt>
      <trkpt lat="42.3337560" lon="-8.6063440">
        <ele>58.3</ele>
        <time>2021-05-21T08:14:01Z</time>
      </trkpt>
      <trkpt lat="42.3337600" lon="-8.6063400">
        <ele>58.3</ele>
        <time>2021-05-21T08:14:02Z</time>
      </trkpt>
      <trkpt lat="42.3337700" lon="-8.6063330">
        <ele>58.3</ele>
        <time>2021-05-21T08:14:03Z</time>
      </trkpt>
      <trkpt lat="42.3337870" lon="-8.6063360">
        <ele>58.2</ele>
        <time>2021-05-21T08:14:04Z</time>
      </trkpt>
      <trkpt lat="42.3338150" lon="-8.6063410">
        <ele>58.0</ele>
        <time>2021-05-21T08:14:05Z</time>
      </trkpt>
      <trkpt lat="42.3338240" lon="-8.6063410">
        <ele>58.0</ele>
        <time>2021-05-21T08:14:06Z</time>
      </trkpt>
      <trkpt lat="42.3338340" lon="-8.6063410">
        <ele>58.0</ele>
        <time>2021-05-21T08:14:07Z</time>
      </trkpt>
      <trkpt lat="42.3338570" lon="-8.6063360">
        <ele>57.9</ele>
        <time>2021-05-21T08:14:08Z</time>
      </trkpt>
      <trkpt lat="42.3338680" lon="-8.6063340">
        <ele>57.8</ele>
        <time>2021-05-21T08:14:09Z</time>
      </trkpt>
      <trkpt lat="42.3338790" lon="-8.6063310">
        <ele>57.8</ele>
        <time>2021-05-21T08:14:10Z</time>
      </trkpt>
      <trkpt lat="42.3338940" lon="-8.6063290">
        <ele>57.7</ele>
        <time>2021-05-21T08:14:11Z</time>
      </trkpt>
      <trkpt lat="42.3339060" lon="-8.6063260">
        <ele>57.7</ele>
        <time>2021-05-21T08:14:12Z</time>
      </trkpt>
      <trkpt lat="42.3339120" lon="-8.6063250">
        <ele>57.7</ele>
        <time>2021-05-21T08:14:13Z</time>
      </trkpt>
      <trkpt lat="42.3339230" lon="-8.6063280">
        <ele>57.6</ele>
        <time>2021-05-21T08:14:14Z</time>
      </trkpt>
      <trkpt lat="42.3339390" lon="-8.6063260">
        <ele>57.5</ele>
        <time>2021-05-21T08:14:15Z</time>
      </trkpt>
      <trkpt lat="42.3339530" lon="-8.6063200">
        <ele>57.5</ele>
        <time>2021-05-21T08:14:16Z</time>
      </trkpt>
      <trkpt lat="42.3339680" lon="-8.6063000">
        <ele>57.4</ele>
        <time>2021-05-21T08:14:17Z</time>
      </trkpt>
      <trkpt lat="42.3339830" lon="-8.6062780">
        <ele>57.3</ele>
        <time>2021-05-21T08:14:18Z</time>
      </trkpt>
      <trkpt lat="42.3339900" lon="-8.6062640">
        <ele>57.3</ele>
        <time>2021-05-21T08:14:19Z</time>
      </trkpt>
      <trkpt lat="42.3340010" lon="-8.6062600">
        <ele>57.3</ele>
        <time>2021-05-21T08:14:20Z</time>
      </trkpt>
      <trkpt lat="42.3340100" lon="-8.6062560">
        <ele>57.2</ele>
        <time>2021-05-21T08:14:21Z</time>
      </trkpt>
      <trkpt lat="42.3340160" lon="-8.6062510">
        <ele>57.2</ele>
        <time>2021-05-21T08:14:22Z</time>
      </trkpt>
      <trkpt lat="42.3340290" lon="-8.6062410">
        <ele>57.1</ele>
        <time>2021-05-21T08:14:23Z</time>
      </trkpt>
      <trkpt lat="42.3340470" lon="-8.6062420">
        <ele>57.1</ele>
        <time>2021-05-21T08:14:24Z</time>
      </trkpt>
      <trkpt lat="42.3340620" lon="-8.6062350">
        <ele>57.0</ele>
        <time>2021-05-21T08:14:25Z</time>
      </trkpt>
      <trkpt lat="42.3340730" lon="-8.6062350">
        <ele>57.0</ele>
        <time>2021-05-21T08:14:26Z</time>
      </trkpt>
      <trkpt lat="42.3340770" lon="-8.6062320">
        <ele>57.0</ele>
        <time>2021-05-21T08:14:27Z</time>
      </trkpt>
      <trkpt lat="42.3340800" lon="-8.6062380">
        <ele>57.0</ele>
        <time>2021-05-21T08:14:28Z</time>
      </trkpt>
      <trkpt lat="42.3340960" lon="-8.6062360">
        <ele>56.9</ele>
        <time>2021-05-21T08:14:29Z</time>
      </trkpt>
      <trkpt lat="42.3341070" lon="-8.6062330">
        <ele>56.9</ele>
        <time>2021-05-21T08:14:30Z</time>
      </trkpt>
      <trkpt lat="42.3341060" lon="-8.6062330">
        <ele>56.9</ele>
        <time>2021-05-21T08:14:31Z</time>
      </trkpt>
      <trkpt lat="42.3341120" lon="-8.6062370">
        <ele>56.8</ele>
        <time>2021-05-21T08:14:32Z</time>
      </trkpt>
      <trkpt lat="42.3341270" lon="-8.6062340">
        <ele>56.8</ele>
        <time>2021-05-21T08:14:33Z</time>
      </trkpt>
      <trkpt lat="42.3341360" lon="-8.6062390">
        <ele>56.7</ele>
        <time>2021-05-21T08:14:34Z</time>
      </trkpt>
      <trkpt lat="42.3341440" lon="-8.6062400">
        <ele>56.7</ele>
        <time>2021-05-21T08:14:35Z</time>
      </trkpt>
      <trkpt lat="42.3341530" lon="-8.6062480">
        <ele>56.7</ele>
        <time>2021-05-21T08:14:36Z</time>
      </trkpt>
      <trkpt lat="42.3341630" lon="-8.6062520">
        <ele>56.6</ele>
        <time>2021-05-21T08:14:37Z</time>
      </trkpt>
      <trkpt lat="42.3341680" lon="-8.6062540">
        <ele>56.6</ele>
        <time>2021-05-21T08:14:38Z</time>
      </trkpt>
      <trkpt lat="42.3341940" lon="-8.6062550">
        <ele>56.5</ele>
        <time>2021-05-21T08:14:39Z</time>
      </trkpt>
      <trkpt lat="42.3342230" lon="-8.6062290">
        <ele>56.4</ele>
        <time>2021-05-21T08:14:40Z</time>
      </trkpt>
      <trkpt lat="42.3342320" lon="-8.6062260">
        <ele>56.4</ele>
        <time>2021-05-21T08:14:41Z</time>
      </trkpt>
      <trkpt lat="42.3342360" lon="-8.6062170">
        <ele>56.4</ele>
        <time>2021-05-21T08:14:42Z</time>
      </trkpt>
      <trkpt lat="42.3342380" lon="-8.6062200">
        <ele>56.4</ele>
        <time>2021-05-21T08:14:43Z</time>
      </trkpt>
      <trkpt lat="42.3342480" lon="-8.6062250">
        <ele>56.3</ele>
        <time>2021-05-21T08:14:44Z</time>
      </trkpt>
      <trkpt lat="42.3342540" lon="-8.6062370">
        <ele>56.3</ele>
        <time>2021-05-21T08:14:45Z</time>
      </trkpt>
      <trkpt lat="42.3342610" lon="-8.6062360">
        <ele>56.3</ele>
        <time>2021-05-21T08:14:46Z</time>
      </trkpt>
      <trkpt lat="42.3342690" lon="-8.6062380">
        <ele>56.3</ele>
        <time>2021-05-21T08:14:47Z</time>
      </trkpt>
      <trkpt lat="42.3342730" lon="-8.6062470">
        <ele>56.2</ele>
        <time>2021-05-21T08:14:48Z</time>
      </trkpt>
      <trkpt lat="42.3342830" lon="-8.6062480">
        <ele>56.2</ele>
        <time>2021-05-21T08:14:49Z</time>
      </trkpt>
      <trkpt lat="42.3342860" lon="-8.6062510">
        <ele>56.2</ele>
        <time>2021-05-21T08:14:50Z</time>
      </trkpt>
      <trkpt lat="42.3343030" lon="-8.6062450">
        <ele>56.1</ele>
        <time>2021-05-21T08:14:51Z</time>
      </trkpt>
      <trkpt lat="42.3343150" lon="-8.6062450">
        <ele>56.1</ele>
        <time>2021-05-21T08:14:52Z</time>
      </trkpt>
      <trkpt lat="42.3343300" lon="-8.6062390">
        <ele>56.1</ele>
        <time>2021-05-21T08:14:53Z</time>
      </trkpt>
      <trkpt lat="42.3343470" lon="-8.6062310">
        <ele>56.0</ele>
        <time>2021-05-21T08:14:54Z</time>
      </trkpt>
      <trkpt lat="42.3343580" lon="-8.6062270">
        <ele>56.0</ele>
        <time>2021-05-21T08:14:55Z</time>
      </trkpt>
      <trkpt lat="42.3343740" lon="-8.6062220">
        <ele>55.9</ele>
        <time>2021-05-21T08:14:56Z</time>
      </trkpt>
      <trkpt lat="42.3343890" lon="-8.6062140">
        <ele>55.9</ele>
        <time>2021-05-21T08:14:57Z</time>
      </trkpt>
      <trkpt lat="42.3343980" lon="-8.6061880">
        <ele>55.8</ele>
        <time>2021-05-21T08:14:58Z</time>
      </trkpt>
      <trkpt lat="42.3344290" lon="-8.6061550">
        <ele>55.7</ele>
        <time>2021-05-21T08:14:59Z</time>
      </trkpt>
      <trkpt lat="42.3344560" lon="-8.6061270">
        <ele>55.6</ele>
        <time>2021-05-21T08:15:00Z</time>
      </trkpt>
      <trkpt lat="42.3344670" lon="-8.6061210">
        <ele>55.5</ele>
        <time>2021-05-21T08:15:01Z</time>
      </trkpt>
      <trkpt lat="42.3344800" lon="-8.6061160">
        <ele>55.5</ele>
        <time>2021-05-21T08:15:02Z</time>
      </trkpt>
      <trkpt lat="42.3344990" lon="-8.6061040">
        <ele>55.4</ele>
        <time>2021-05-21T08:15:03Z</time>
      </trkpt>
      <trkpt lat="42.3345180" lon="-8.6060960">
        <ele>55.4</ele>
        <time>2021-05-21T08:15:04Z</time>
      </trkpt>
      <trkpt lat="42.3345250" lon="-8.6060930">
        <ele>55.4</ele>
        <time>2021-05-21T08:15:05Z</time>
      </trkpt>
      <trkpt lat="42.3345330" lon="-8.6060910">
        <ele>55.3</ele>
        <time>2021-05-21T08:15:06Z</time>
      </trkpt>
      <trkpt lat="42.3345400" lon="-8.6060880">
        <ele>55.3</ele>
        <time>2021-05-21T08:15:07Z</time>
      </trkpt>
      <trkpt lat="42.3345540" lon="-8.6060820">
        <ele>55.3</ele>
        <time>2021-05-21T08:15:08Z</time>
      </trkpt>
      <trkpt lat="42.3345730" lon="-8.6060770">
        <ele>55.2</ele>
        <time>2021-05-21T08:15:09Z</time>
      </trkpt>
      <trkpt lat="42.3345780" lon="-8.6060690">
        <ele>55.2</ele>
        <time>2021-05-21T08:15:10Z</time>
      </trkpt>
      <trkpt lat="42.3345840" lon="-8.6060600">
        <ele>55.2</ele>
        <time>2021-05-21T08:15:11Z</time>
      </trkpt>
      <trkpt lat="42.3345940" lon="-8.6060630">
        <ele>55.2</ele>
        <time>2021-05-21T08:15:12Z</time>
      </trkpt>
      <trkpt lat="42.3346020" lon="-8.6060620">
        <ele>55.2</ele>
        <time>2021-05-21T08:15:13Z</time>
      </trkpt>
      <trkpt lat="42.3346160" lon="-8.6060570">
        <ele>55.1</ele>
        <time>2021-05-21T08:15:14Z</time>
      </trkpt>
      <trkpt lat="42.3346220" lon="-8.6060560">
        <ele>55.1</ele>
        <time>2021-05-21T08:15:15Z</time>
      </trkpt>
      <trkpt lat="42.3346250" lon="-8.6060540">
        <ele>55.1</ele>
        <time>2021-05-21T08:15:16Z</time>
      </trkpt>
      <trkpt lat="42.3346350" lon="-8.6060540">
        <ele>55.1</ele>
        <time>2021-05-21T08:15:17Z</time>
      </trkpt>
      <trkpt lat="42.3346460" lon="-8.6060700">
        <ele>55.1</ele>
        <time>2021-05-21T08:15:18Z</time>
      </trkpt>
      <trkpt lat="42.3346510" lon="-8.6060780">
        <ele>55.1</ele>
        <time>2021-05-21T08:15:19Z</time>
      </trkpt>
      <trkpt lat="42.3346620" lon="-8.6060810">
        <ele>55.0</ele>
        <time>2021-05-21T08:15:20Z</time>
      </trkpt>
      <trkpt lat="42.3346760" lon="-8.6060980">
        <ele>55.0</ele>
        <time>2021-05-21T08:15:21Z</time>
      </trkpt>
      <trkpt lat="42.3346860" lon="-8.6061060">
        <ele>55.0</ele>
        <time>2021-05-21T08:15:22Z</time>
      </trkpt>
      <trkpt lat="42.3346950" lon="-8.6061090">
        <ele>55.0</ele>
        <time>2021-05-21T08:15:23Z</time>
      </trkpt>
      <trkpt lat="42.3347060" lon="-8.6061170">
        <ele>55.0</ele>
        <time>2021-05-21T08:15:24Z</time>
      </trkpt>
      <trkpt lat="42.3347180" lon="-8.6061240">
        <ele>54.9</ele>
        <time>2021-05-21T08:15:25Z</time>
      </trkpt>
      <trkpt lat="42.3347410" lon="-8.6061340">
        <ele>54.9</ele>
        <time>2021-05-21T08:15:26Z</time>
      </trkpt>
      <trkpt lat="42.3347500" lon="-8.6061370">
        <ele>54.9</ele>
        <time>2021-05-21T08:15:27Z</time>
      </trkpt>
      <trkpt lat="42.3347580" lon="-8.6061400">
        <ele>54.9</ele>
        <time>2021-05-21T08:15:28Z</time>
      </trkpt>
      <trkpt lat="42.3347680" lon="-8.6061420">
        <ele>54.9</ele>
        <time>2021-05-21T08:15:29Z</time>
      </trkpt>
      <trkpt lat="42.3347870" lon="-8.6061420">
        <ele>54.8</ele>
        <time>2021-05-21T08:15:30Z</time>
      </trkpt>
      <trkpt lat="42.3348030" lon="-8.6061410">
        <ele>54.8</ele>
        <time>2021-05-21T08:15:31Z</time>
      </trkpt>
      <trkpt lat="42.3348220" lon="-8.6061390">
        <ele>54.8</ele>
        <time>2021-05-21T08:15:32Z</time>
      </trkpt>
      <trkpt lat="42.3348510" lon="-8.6061420">
        <ele>54.7</ele>
        <time>2021-05-21T08:15:33Z</time>
      </trkpt>
      <trkpt lat="42.3348590" lon="-8.6061440">
        <ele>54.7</ele>
        <time>2021-05-21T08:15:34Z</time>
      </trkpt>
      <trkpt lat="42.3348910" lon="-8.6061490">
        <ele>54.7</ele>
        <time>2021-05-21T08:15:35Z</time>
      </trkpt>
      <trkpt lat="42.3348980" lon="-8.6061500">
        <ele>54.7</ele>
        <time>2021-05-21T08:15:36Z</time>
      </trkpt>
      <trkpt lat="42.3349070" lon="-8.6061420">
        <ele>54.7</ele>
        <time>2021-05-21T08:15:37Z</time>
      </trkpt>
      <trkpt lat="42.3349210" lon="-8.6061380">
        <ele>54.6</ele>
        <time>2021-05-21T08:15:38Z</time>
      </trkpt>
      <trkpt lat="42.3349310" lon="-8.6061390">
        <ele>54.6</ele>
        <time>2021-05-21T08:15:39Z</time>
      </trkpt>
      <trkpt lat="42.3349390" lon="-8.6061350">
        <ele>54.6</ele>
        <time>2021-05-21T08:15:40Z</time>
      </trkpt>
      <trkpt lat="42.3349520" lon="-8.6061400">
        <ele>54.6</ele>
        <time>2021-05-21T08:15:41Z</time>
      </trkpt>
      <trkpt lat="42.3349610" lon="-8.6061410">
        <ele>54.6</ele>
        <time>2021-05-21T08:15:42Z</time>
      </trkpt>
      <trkpt lat="42.3349540" lon="-8.6061290">
        <ele>54.6</ele>
        <time>2021-05-21T08:15:43Z</time>
      </trkpt>
      <trkpt lat="42.3349620" lon="-8.6061250">
        <ele>54.6</ele>
        <time>2021-05-21T08:15:44Z</time>
      </trkpt>
      <trkpt lat="42.3349690" lon="-8.6061220">
        <ele>54.5</ele>
        <time>2021-05-21T08:15:45Z</time>
      </trkpt>
      <trkpt lat="42.3349830" lon="-8.6061080">
        <ele>54.5</ele>
        <time>2021-05-21T08:15:46Z</time>
      </trkpt>
      <trkpt lat="42.3350030" lon="-8.6061060">
        <ele>54.5</ele>
        <time>2021-05-21T08:15:47Z</time>
      </trkpt>
      <trkpt lat="42.3350130" lon="-8.6061060">
        <ele>54.5</ele>
        <time>2021-05-21T08:15:48Z</time>
      </trkpt>
      <trkpt lat="42.3350230" lon="-8.6060940">
        <ele>54.5</ele>
        <time>2021-05-21T08:15:49Z</time>
      </trkpt>
      <trkpt lat="42.3350380" lon="-8.6060730">
        <ele>54.4</ele>
        <time>2021-05-21T08:15:50Z</time>
      </trkpt>
      <trkpt lat="42.3350570" lon="-8.6060420">
        <ele>54.4</ele>
        <time>2021-05-21T08:15:51Z</time>
      </trkpt>
      <trkpt lat="42.3350770" lon="-8.6060260">
        <ele>54.4</ele>
        <time>2021-05-21T08:15:52Z</time>
      </trkpt>
      <trkpt lat="42.3350850" lon="-8.6060270">
        <ele>54.4</ele>
        <time>2021-05-21T08:15:53Z</time>
      </trkpt>
      <trkpt lat="42.3350940" lon="-8.6060280">
        <ele>54.4</ele>
        <time>2021-05-21T08:15:54Z</time>
      </trkpt>
      <trkpt lat="42.3351100" lon="-8.6060470">
        <ele>54.4</ele>
        <time>2021-05-21T08:15:55Z</time>
      </trkpt>
      <trkpt lat="42.3351170" lon="-8.6060510">
        <ele>54.4</ele>
        <time>2021-05-21T08:15:56Z</time>
      </trkpt>
      <trkpt lat="42.3351240" lon="-8.6060560">
        <ele>54.4</ele>
        <time>2021-05-21T08:15:57Z</time>
      </trkpt>
      <trkpt lat="42.3351380" lon="-8.6060600">
        <ele>54.3</ele>
        <time>2021-05-21T08:15:58Z</time>
      </trkpt>
      <trkpt lat="42.3351550" lon="-8.6060720">
        <ele>54.3</ele>
        <time>2021-05-21T08:15:59Z</time>
      </trkpt>
      <trkpt lat="42.3351730" lon="-8.6060800">
        <ele>54.3</ele>
        <time>2021-05-21T08:16:00Z</time>
      </trkpt>
      <trkpt lat="42.3351850" lon="-8.6060830">
        <ele>54.3</ele>
        <time>2021-05-21T08:16:01Z</time>
      </trkpt>
      <trkpt lat="42.3352000" lon="-8.6060840">
        <ele>54.3</ele>
        <time>2021-05-21T08:16:02Z</time>
      </trkpt>
      <trkpt lat="42.3352170" lon="-8.6060850">
        <ele>54.3</ele>
        <time>2021-05-21T08:16:03Z</time>
      </trkpt>
      <trkpt lat="42.3352260" lon="-8.6060760">
        <ele>54.3</ele>
        <time>2021-05-21T08:16:04Z</time>
      </trkpt>
      <trkpt lat="42.3352460" lon="-8.6060610">
        <ele>54.3</ele>
        <time>2021-05-21T08:16:05Z</time>
      </trkpt>
      <trkpt lat="42.3352710" lon="-8.6060490">
        <ele>54.2</ele>
        <time>2021-05-21T08:16:06Z</time>
      </trkpt>
      <trkpt lat="42.3352830" lon="-8.6060500">
        <ele>54.2</ele>
        <time>2021-05-21T08:16:07Z</time>
      </trkpt>
      <trkpt lat="42.3353100" lon="-8.6060440">
        <ele>54.2</ele>
        <time>2021-05-21T08:16:08Z</time>
      </trkpt>
      <trkpt lat="42.3353190" lon="-8.6060450">
        <ele>54.2</ele>
        <time>2021-05-21T08:16:09Z</time>
      </trkpt>
      <trkpt lat="42.3353490" lon="-8.6060410">
        <ele>54.2</ele>
        <time>2021-05-21T08:16:10Z</time>
      </trkpt>
      <trkpt lat="42.3353570" lon="-8.6060420">
        <ele>54.2</ele>
        <time>2021-05-21T08:16:11Z</time>
      </trkpt>
      <trkpt lat="42.3353730" lon="-8.6060390">
        <ele>54.2</ele>
        <time>2021-05-21T08:16:12Z</time>
      </trkpt>
      <trkpt lat="42.3353890" lon="-8.6060390">
        <ele>54.2</ele>
        <time>2021-05-21T08:16:13Z</time>
      </trkpt>
      <trkpt lat="42.3354060" lon="-8.6060360">
        <ele>54.2</ele>
        <time>2021-05-21T08:16:14Z</time>
      </trkpt>
      <trkpt lat="42.3354220" lon="-8.6060330">
        <ele>54.2</ele>
        <time>2021-05-21T08:16:15Z</time>
      </trkpt>
      <trkpt lat="42.3354370" lon="-8.6060290">
        <ele>54.2</ele>
        <time>2021-05-21T08:16:16Z</time>
      </trkpt>
      <trkpt lat="42.3354430" lon="-8.6060240">
        <ele>54.2</ele>
        <time>2021-05-21T08:16:17Z</time>
      </trkpt>
      <trkpt lat="42.3354510" lon="-8.6060240">
        <ele>54.2</ele>
        <time>2021-05-21T08:16:18Z</time>
      </trkpt>
      <trkpt lat="42.3354550" lon="-8.6060230">
        <ele>54.2</ele>
        <time>2021-05-21T08:16:19Z</time>
      </trkpt>
      <trkpt lat="42.3354710" lon="-8.6060200">
        <ele>54.2</ele>
        <time>2021-05-21T08:16:20Z</time>
      </trkpt>
      <trkpt lat="42.3354780" lon="-8.6060210">
        <ele>54.2</ele>
        <time>2021-05-21T08:16:21Z</time>
      </trkpt>
      <trkpt lat="42.3354910" lon="-8.6060160">
        <ele>54.2</ele>
        <time>2021-05-21T08:16:22Z</time>
      </trkpt>
      <trkpt lat="42.3355070" lon="-8.6060140">
        <ele>54.3</ele>
        <time>2021-05-21T08:16:23Z</time>
      </trkpt>
      <trkpt lat="42.3355080" lon="-8.6060070">
        <ele>54.3</ele>
        <time>2021-05-21T08:16:24Z</time>
      </trkpt>
      <trkpt lat="42.3355120" lon="-8.6060010">
        <ele>54.3</ele>
        <time>2021-05-21T08:16:25Z</time>
      </trkpt>
      <trkpt lat="42.3355210" lon="-8.6060010">
        <ele>54.3</ele>
        <time>2021-05-21T08:16:26Z</time>
      </trkpt>
      <trkpt lat="42.3355260" lon="-8.6060020">
        <ele>54.3</ele>
        <time>2021-05-21T08:16:27Z</time>
      </trkpt>
      <trkpt lat="42.3355380" lon="-8.6059980">
        <ele>54.3</ele>
        <time>2021-05-21T08:16:28Z</time>
      </trkpt>
      <trkpt lat="42.3355560" lon="-8.6059990">
        <ele>54.3</ele>
        <time>2021-05-21T08:16:29Z</time>
      </trkpt>
      <trkpt lat="42.3355620" lon="-8.6060030">
        <ele>54.3</ele>
        <time>2021-05-21T08:16:30Z</time>
      </trkpt>
      <trkpt lat="42.3355750" lon="-8.6059990">
        <ele>54.3</ele>
        <time>2021-05-21T08:16:31Z</time>
      </trkpt>
      <trkpt lat="42.3355810" lon="-8.6059900">
        <ele>54.4</ele>
        <time>2021-05-21T08:16:32Z</time>
      </trkpt>
      <trkpt lat="42.3355920" lon="-8.6059880">
        <ele>54.4</ele>
        <time>2021-05-21T08:16:33Z</time>
      </trkpt>
      <trkpt lat="42.3355920" lon="-8.6059790">
        <ele>54.4</ele>
        <time>2021-05-21T08:16:34Z</time>
      </trkpt>
      <trkpt lat="42.3355980" lon="-8.6059760">
        <ele>54.4</ele>
        <time>2021-05-21T08:16:35Z</time>
      </trkpt>
      <trkpt lat="42.3356080" lon="-8.6059730">
        <ele>54.4</ele>
        <time>2021-05-21T08:16:36Z</time>
      </trkpt>
      <trkpt lat="42.3356220" lon="-8.6059730">
        <ele>54.4</ele>
        <time>2021-05-21T08:16:37Z</time>
      </trkpt>
      <trkpt lat="42.3356300" lon="-8.6059740">
        <ele>54.5</ele>
        <time>2021-05-21T08:16:38Z</time>
      </trkpt>
      <trkpt lat="42.3356430" lon="-8.6059730">
        <ele>54.5</ele>
        <time>2021-05-21T08:16:39Z</time>
      </trkpt>
      <trkpt lat="42.3356520" lon="-8.6059700">
        <ele>54.5</ele>
        <time>2021-05-21T08:16:40Z</time>
      </trkpt>
      <trkpt lat="42.3356650" lon="-8.6059710">
        <ele>54.5</ele>
        <time>2021-05-21T08:16:41Z</time>
      </trkpt>
      <trkpt lat="42.3356750" lon="-8.6059730">
        <ele>54.5</ele>
        <time>2021-05-21T08:16:42Z</time>
      </trkpt>
      <trkpt lat="42.3356880" lon="-8.6059820">
        <ele>54.6</ele>
        <time>2021-05-21T08:16:43Z</time>
      </trkpt>
      <trkpt lat="42.3357000" lon="-8.6059830">
        <ele>54.6</ele>
        <time>2021-05-21T08:16:44Z</time>
      </trkpt>
      <trkpt lat="42.3357150" lon="-8.6059820">
        <ele>54.6</ele>
        <time>2021-05-21T08:16:45Z</time>
      </trkpt>
      <trkpt lat="42.3357310" lon="-8.6059890">
        <ele>54.7</ele>
        <time>2021-05-21T08:16:46Z</time>
      </trkpt>
      <trkpt lat="42.3357420" lon="-8.6059980">
        <ele>54.7</ele>
        <time>2021-05-21T08:16:47Z</time>
      </trkpt>
      <trkpt lat="42.3357590" lon="-8.6060020">
        <ele>54.7</ele>
        <time>2021-05-21T08:16:48Z</time>
      </trkpt>
      <trkpt lat="42.3357890" lon="-8.6060250">
        <ele>54.8</ele>
        <time>2021-05-21T08:16:49Z</time>
      </trkpt>
      <trkpt lat="42.3357990" lon="-8.6060340">
        <ele>54.8</ele>
        <time>2021-05-21T08:16:50Z</time>
      </trkpt>
      <trkpt lat="42.3358110" lon="-8.6060430">
        <ele>54.8</ele>
        <time>2021-05-21T08:16:51Z</time>
      </trkpt>
      <trkpt lat="42.3358310" lon="-8.6060540">
        <ele>54.9</ele>
        <time>2021-05-21T08:16:52Z</time>
      </trkpt>
      <trkpt lat="42.3358510" lon="-8.6060590">
        <ele>54.9</ele>
        <time>2021-05-21T08:16:53Z</time>
      </trkpt>
      <trkpt lat="42.3358580" lon="-8.6060560">
        <ele>54.9</ele>
        <time>2021-05-21T08:16:54Z</time>
      </trkpt>
      <trkpt lat="42.3358640" lon="-8.6060520">
        <ele>54.9</ele>
        <time>2021-05-21T08:16:55Z</time>
      </trkpt>
      <trkpt lat="42.3358710" lon="-8.6060480">
        <ele>55.0</ele>
        <time>2021-05-21T08:16:56Z</time>
      </trkpt>
      <trkpt lat="42.3358810" lon="-8.6060380">
        <ele>55.0</ele>
        <time>2021-05-21T08:16:57Z</time>
      </trkpt>
      <trkpt lat="42.3358960" lon="-8.6060380">
        <ele>55.0</ele>
        <time>2021-05-21T08:16:58Z</time>
      </trkpt>
      <trkpt lat="42.3359060" lon="-8.6060350">
        <ele>55.0</ele>
        <time>2021-05-21T08:16:59Z</time>
      </trkpt>
      <trkpt lat="42.3359310" lon="-8.6060270">
        <ele>55.1</ele>
        <time>2021-05-21T08:17:00Z</time>
      </trkpt>
      <trkpt lat="42.3359370" lon="-8.6060240">
        <ele>55.1</ele>
        <time>2021-05-21T08:17:01Z</time>
      </trkpt>
      <trkpt lat="42.3359520" lon="-8.6060180">
        <ele>55.1</ele>
        <time>2021-05-21T08:17:02Z</time>
      </trkpt>
      <trkpt lat="42.3359680" lon="-8.6060110">
        <ele>55.1</ele>
        <time>2021-05-21T08:17:03Z</time>
      </trkpt>
      <trkpt lat="42.3359820" lon="-8.6059960">
        <ele>55.1</ele>
        <time>2021-05-21T08:17:04Z</time>
      </trkpt>
      <trkpt lat="42.3359910" lon="-8.6059870">
        <ele>55.1</ele>
        <time>2021-05-21T08:17:05Z</time>
      </trkpt>
      <trkpt lat="42.3360010" lon="-8.6059780">
        <ele>55.1</ele>
        <time>2021-05-21T08:17:06Z</time>
      </trkpt>
      <trkpt lat="42.3360090" lon="-8.6059540">
        <ele>55.1</ele>
        <time>2021-05-21T08:17:07Z</time>
      </trkpt>
      <trkpt lat="42.3360240" lon="-8.6059470">
        <ele>55.2</ele>
        <time>2021-05-21T08:17:08Z</time>
      </trkpt>
      <trkpt lat="42.3360370" lon="-8.6059420">
        <ele>55.2</ele>
        <time>2021-05-21T08:17:09Z</time>
      </trkpt>
      <trkpt lat="42.3360480" lon="-8.6059400">
        <ele>55.2</ele>
        <time>2021-05-21T08:17:10Z</time>
      </trkpt>
      <trkpt lat="42.3360540" lon="-8.6059320">
        <ele>55.2</ele>
        <time>2021-05-21T08:17:11Z</time>
      </trkpt>
      <trkpt lat="42.3360640" lon="-8.6059310">
        <ele>55.2</ele>
        <time>2021-05-21T08:17:12Z</time>
      </trkpt>
      <trkpt lat="42.3360690" lon="-8.6059270">
        <ele>55.2</ele>
        <time>2021-05-21T08:17:13Z</time>
      </trkpt>
      <trkpt lat="42.3360810" lon="-8.6059280">
        <ele>55.2</ele>
        <time>2021-05-21T08:17:14Z</time>
      </trkpt>
      <trkpt lat="42.3360810" lon="-8.6059330">
        <ele>55.2</ele>
        <time>2021-05-21T08:17:15Z</time>
      </trkpt>
      <trkpt lat="42.3360820" lon="-8.6059340">
        <ele>55.2</ele>
        <time>2021-05-21T08:17:16Z</time>
      </trkpt>
      <trkpt lat="42.3360910" lon="-8.6059370">
        <ele>55.2</ele>
        <time>2021-05-21T08:17:17Z</time>
      </trkpt>
      <trkpt lat="42.3360960" lon="-8.6059380">
        <ele>55.2</ele>
        <time>2021-05-21T08:17:18Z</time>
      </trkpt>
      <trkpt lat="42.3361020" lon="-8.6059390">
        <ele>55.2</ele>
        <time>2021-05-21T08:17:19Z</time>
      </trkpt>
      <trkpt lat="42.3361150" lon="-8.6059350">
        <ele>55.2</ele>
        <time>2021-05-21T08:17:20Z</time>
      </trkpt>
      <trkpt lat="42.3361480" lon="-8.6059460">
        <ele>55.3</ele>
        <time>2021-05-21T08:17:21Z</time>
      </trkpt>
      <trkpt lat="42.3361550" lon="-8.6059470">
        <ele>55.3</ele>
        <time>2021-05-21T08:17:22Z</time>
      </trkpt>
      <trkpt lat="42.3361660" lon="-8.6059450">
        <ele>55.3</ele>
        <time>2021-05-21T08:17:23Z</time>
      </trkpt>
      <trkpt lat="42.3361660" lon="-8.6059410">
        <ele>55.3</ele>
        <time>2021-05-21T08:17:24Z</time>
      </trkpt>
      <trkpt lat="42.3361740" lon="-8.6059380">
        <ele>55.3</ele>
        <time>2021-05-21T08:17:25Z</time>
      </trkpt>
      <trkpt lat="42.3361880" lon="-8.6059330">
        <ele>55.4</ele>
        <time>2021-05-21T08:17:26Z</time>
      </trkpt>
      <trkpt lat="42.3362160" lon="-8.6059410">
        <ele>55.4</ele>
        <time>2021-05-21T08:17:27Z</time>
      </trkpt>
      <trkpt lat="42.3362470" lon="-8.6059450">
        <ele>55.5</ele>
        <time>2021-05-21T08:17:28Z</time>
      </trkpt>
      <trkpt lat="42.3362540" lon="-8.6059450">
        <ele>55.5</ele>
        <time>2021-05-21T08:17:29Z</time>
      </trkpt>
      <trkpt lat="42.3362750" lon="-8.6059330">
        <ele>55.6</ele>
        <time>2021-05-21T08:17:30Z</time>
      </trkpt>
      <trkpt lat="42.3362860" lon="-8.6059290">
        <ele>55.6</ele>
        <time>2021-05-21T08:17:31Z</time>
      </trkpt>
      <trkpt lat="42.3362980" lon="-8.6059250">
        <ele>55.6</ele>
        <time>2021-05-21T08:17:32Z</time>
      </trkpt>
      <trkpt lat="42.3363260" lon="-8.6059220">
        <ele>55.7</ele>
        <time>2021-05-21T08:17:33Z</time>
      </trkpt>
      <trkpt lat="42.3363340" lon="-8.6059190">
        <ele>55.7</ele>
        <time>2021-05-21T08:17:34Z</time>
      </trkpt>
      <trkpt lat="42.3363490" lon="-8.6059090">
        <ele>55.7</ele>
        <time>2021-05-21T08:17:35Z</time>
      </trkpt>
      <trkpt lat="42.3363630" lon="-8.6059020">
        <ele>55.8</ele>
        <time>2021-05-21T08:17:36Z</time>
      </trkpt>
      <trkpt lat="42.3363950" lon="-8.6058950">
        <ele>55.8</ele>
        <time>2021-05-21T08:17:37Z</time>
      </trkpt>
      <trkpt lat="42.3364060" lon="-8.6058870">
        <ele>55.9</ele>
        <time>2021-05-21T08:17:38Z</time>
      </trkpt>
      <trkpt lat="42.3364350" lon="-8.6058950">
        <ele>55.9</ele>
        <time>2021-05-21T08:17:39Z</time>
      </trkpt>
      <trkpt lat="42.3364450" lon="-8.6058990">
        <ele>55.9</ele>
        <time>2021-05-21T08:17:40Z</time>
      </trkpt>
      <trkpt lat="42.3364660" lon="-8.6058890">
        <ele>56.0</ele>
        <time>2021-05-21T08:17:41Z</time>
      </trkpt>
      <trkpt lat="42.3364770" lon="-8.6058870">
        <ele>56.0</ele>
        <time>2021-05-21T08:17:42Z</time>
      </trkpt>
      <trkpt lat="42.3364870" lon="-8.6058850">
        <ele>56.0</ele>
        <time>2021-05-21T08:17:43Z</time>
      </trkpt>
      <trkpt lat="42.3365050" lon="-8.6058810">
        <ele>56.0</ele>
        <time>2021-05-21T08:17:44Z</time>
      </trkpt>
      <trkpt lat="42.3365230" lon="-8.6058810">
        <ele>56.0</ele>
        <time>2021-05-21T08:17:45Z</time>
      </trkpt>
      <trkpt lat="42.3365400" lon="-8.6058650">
        <ele>56.1</ele>
        <time>2021-05-21T08:17:46Z</time>
      </trkpt>
      <trkpt lat="42.3365470" lon="-8.6058590">
        <ele>56.1</ele>
        <time>2021-05-21T08:17:47Z</time>
      </trkpt>
      <trkpt lat="42.3365550" lon="-8.6058540">
        <ele>56.1</ele>
        <time>2021-05-21T08:17:48Z</time>
      </trkpt>
      <trkpt lat="42.3365700" lon="-8.6058460">
        <ele>56.1</ele>
        <time>2021-05-21T08:17:49Z</time>
      </trkpt>
      <trkpt lat="42.3365830" lon="-8.6058450">
        <ele>56.1</ele>
        <time>2021-05-21T08:17:50Z</time>
      </trkpt>
      <trkpt lat="42.3365970" lon="-8.6058450">
        <ele>56.1</ele>
        <time>2021-05-21T08:17:51Z</time>
      </trkpt>
      <trkpt lat="42.3366030" lon="-8.6058400">
        <ele>56.1</ele>
        <time>2021-05-21T08:17:52Z</time>
      </trkpt>
      <trkpt lat="42.3366140" lon="-8.6058380">
        <ele>56.1</ele>
        <time>2021-05-21T08:17:53Z</time>
      </trkpt>
      <trkpt lat="42.3366330" lon="-8.6058390">
        <ele>56.1</ele>
        <time>2021-05-21T08:17:54Z</time>
      </trkpt>
      <trkpt lat="42.3366500" lon="-8.6058380">
        <ele>56.1</ele>
        <time>2021-05-21T08:17:55Z</time>
      </trkpt>
      <trkpt lat="42.3366670" lon="-8.6058300">
        <ele>56.1</ele>
        <time>2021-05-21T08:17:56Z</time>
      </trkpt>
      <trkpt lat="42.3366780" lon="-8.6058160">
        <ele>56.1</ele>
        <time>2021-05-21T08:17:57Z</time>
      </trkpt>
      <trkpt lat="42.3366930" lon="-8.6057900">
        <ele>56.1</ele>
        <time>2021-05-21T08:17:58Z</time>
      </trkpt>
      <trkpt lat="42.3366980" lon="-8.6057810">
        <ele>56.1</ele>
        <time>2021-05-21T08:17:59Z</time>
      </trkpt>
      <trkpt lat="42.3367020" lon="-8.6057720">
        <ele>56.1</ele>
        <time>2021-05-21T08:18:00Z</time>
      </trkpt>
      <trkpt lat="42.3367160" lon="-8.6057640">
        <ele>56.1</ele>
        <time>2021-05-21T08:18:01Z</time>
      </trkpt>
      <trkpt lat="42.3367250" lon="-8.6057580">
        <ele>56.1</ele>
        <time>2021-05-21T08:18:02Z</time>
      </trkpt>
      <trkpt lat="42.3367370" lon="-8.6057490">
        <ele>56.1</ele>
        <time>2021-05-21T08:18:03Z</time>
      </trkpt>
      <trkpt lat="42.3367480" lon="-8.6057450">
        <ele>56.1</ele>
        <time>2021-05-21T08:18:04Z</time>
      </trkpt>
      <trkpt lat="42.3367550" lon="-8.6057420">
        <ele>56.1</ele>
        <time>2021-05-21T08:18:05Z</time>
      </trkpt>
      <trkpt lat="42.3367610" lon="-8.6057400">
        <ele>56.1</ele>
        <time>2021-05-21T08:18:06Z</time>
      </trkpt>
      <trkpt lat="42.3367680" lon="-8.6057370">
        <ele>56.1</ele>
        <time>2021-05-21T08:18:07Z</time>
      </trkpt>
      <trkpt lat="42.3367740" lon="-8.6057350">
        <ele>56.1</ele>
        <time>2021-05-21T08:18:08Z</time>
      </trkpt>
      <trkpt lat="42.3367840" lon="-8.6057240">
        <ele>56.1</ele>
        <time>2021-05-21T08:18:09Z</time>
      </trkpt>
      <trkpt lat="42.3367960" lon="-8.6057200">
        <ele>56.1</ele>
        <time>2021-05-21T08:18:10Z</time>
      </trkpt>
      <trkpt lat="42.3368030" lon="-8.6057260">
        <ele>56.0</ele>
        <time>2021-05-21T08:18:11Z</time>
      </trkpt>
      <trkpt lat="42.3368180" lon="-8.6057180">
        <ele>56.0</ele>
        <time>2021-05-21T08:18:12Z</time>
      </trkpt>
      <trkpt lat="42.3368280" lon="-8.6057070">
        <ele>56.0</ele>
        <time>2021-05-21T08:18:13Z</time>
      </trkpt>
      <trkpt lat="42.3368460" lon="-8.6056960">
        <ele>56.0</ele>
        <time>2021-05-21T08:18:14Z</time>
      </trkpt>
      <trkpt lat="42.3368550" lon="-8.6056940">
        <ele>56.0</ele>
        <time>2021-05-21T08:18:15Z</time>
      </trkpt>
      <trkpt lat="42.3368630" lon="-8.6056920">
        <ele>55.9</ele>
        <time>2021-05-21T08:18:16Z</time>
      </trkpt>
      <trkpt lat="42.3368740" lon="-8.6056870">
        <ele>55.9</ele>
        <time>2021-05-21T08:18:17Z</time>
      </trkpt>
      <trkpt lat="42.3368810" lon="-8.6056750">
        <ele>55.9</ele>
        <time>2021-05-21T08:18:18Z</time>
      </trkpt>
      <trkpt lat="42.3368850" lon="-8.6056650">
        <ele>55.9</ele>
        <time>2021-05-21T08:18:19Z</time>
      </trkpt>
      <trkpt lat="42.3368930" lon="-8.6056500">
        <ele>55.9</ele>
        <time>2021-05-21T08:18:20Z</time>
      </trkpt>
      <trkpt lat="42.3369090" lon="-8.6056390">
        <ele>55.8</ele>
        <time>2021-05-21T08:18:21Z</time>
      </trkpt>
      <trkpt lat="42.3369310" lon="-8.6056180">
        <ele>55.8</ele>
        <time>2021-05-21T08:18:22Z</time>
      </trkpt>
      <trkpt lat="42.3369390" lon="-8.6056090">
        <ele>55.8</ele>
        <time>2021-05-21T08:18:23Z</time>
      </trkpt>
      <trkpt lat="42.3369550" lon="-8.6056040">
        <ele>55.7</ele>
        <time>2021-05-21T08:18:24Z</time>
      </trkpt>
      <trkpt lat="42.3369640" lon="-8.6055880">
        <ele>55.7</ele>
        <time>2021-05-21T08:18:25Z</time>
      </trkpt>
      <trkpt lat="42.3369730" lon="-8.6055910">
        <ele>55.7</ele>
        <time>2021-05-21T08:18:26Z</time>
      </trkpt>
      <trkpt lat="42.3369840" lon="-8.6055740">
        <ele>55.6</ele>
        <time>2021-05-21T08:18:27Z</time>
      </trkpt>
      <trkpt lat="42.3369900" lon="-8.6055690">
        <ele>55.6</ele>
        <time>2021-05-21T08:18:28Z</time>
      </trkpt>
      <trkpt lat="42.3369960" lon="-8.6055620">
        <ele>55.6</ele>
        <time>2021-05-21T08:18:29Z</time>
      </trkpt>
      <trkpt lat="42.3370040" lon="-8.6055550">
        <ele>55.6</ele>
        <time>2021-05-21T08:18:30Z</time>
      </trkpt>
      <trkpt lat="42.3370170" lon="-8.6055480">
        <ele>55.6</ele>
        <time>2021-05-21T08:18:31Z</time>
      </trkpt>
      <trkpt lat="42.3370240" lon="-8.6055490">
        <ele>55.5</ele>
        <time>2021-05-21T08:18:32Z</time>
      </trkpt>
      <trkpt lat="42.3370460" lon="-8.6055320">
        <ele>55.5</ele>
        <time>2021-05-21T08:18:33Z</time>
      </trkpt>
      <trkpt lat="42.3370430" lon="-8.6055220">
        <ele>55.5</ele>
        <time>2021-05-21T08:18:34Z</time>
      </trkpt>
      <trkpt lat="42.3370580" lon="-8.6055090">
        <ele>55.4</ele>
        <time>2021-05-21T08:18:35Z</time>
      </trkpt>
      <trkpt lat="42.3370650" lon="-8.6055050">
        <ele>55.4</ele>
        <time>2021-05-21T08:18:36Z</time>
      </trkpt>
      <trkpt lat="42.3370750" lon="-8.6054990">
        <ele>55.4</ele>
        <time>2021-05-21T08:18:38Z</time>
      </trkpt>
      <trkpt lat="42.3370850" lon="-8.6054890">
        <ele>55.3</ele>
        <time>2021-05-21T08:18:39Z</time>
      </trkpt>
      <trkpt lat="42.3370940" lon="-8.6054870">
        <ele>55.3</ele>
        <time>2021-05-21T08:18:40Z</time>
      </trkpt>
      <trkpt lat="42.3371050" lon="-8.6054780">
        <ele>55.3</ele>
        <time>2021-05-21T08:18:41Z</time>
      </trkpt>
      <trkpt lat="42.3371090" lon="-8.6054710">
        <ele>55.2</ele>
        <time>2021-05-21T08:18:42Z</time>
      </trkpt>
      <trkpt lat="42.3371150" lon="-8.6054540">
        <ele>55.2</ele>
        <time>2021-05-21T08:18:43Z</time>
      </trkpt>
      <trkpt lat="42.3371210" lon="-8.6054430">
        <ele>55.2</ele>
        <time>2021-05-21T08:18:44Z</time>
      </trkpt>
      <trkpt lat="42.3371360" lon="-8.6054280">
        <ele>55.1</ele>
        <time>2021-05-21T08:18:45Z</time>
      </trkpt>
      <trkpt lat="42.3371420" lon="-8.6054170">
        <ele>55.1</ele>
        <time>2021-05-21T08:18:46Z</time>
      </trkpt>
      <trkpt lat="42.3371550" lon="-8.6054140">
        <ele>55.1</ele>
        <time>2021-05-21T08:18:47Z</time>
      </trkpt>
      <trkpt lat="42.3371620" lon="-8.6054080">
        <ele>55.0</ele>
        <time>2021-05-21T08:18:48Z</time>
      </trkpt>
      <trkpt lat="42.3371800" lon="-8.6054030">
        <ele>55.0</ele>
        <time>2021-05-21T08:18:49Z</time>
      </trkpt>
      <trkpt lat="42.3371920" lon="-8.6053940">
        <ele>55.0</ele>
        <time>2021-05-21T08:18:50Z</time>
      </trkpt>
      <trkpt lat="42.3372000" lon="-8.6053770">
        <ele>54.9</ele>
        <time>2021-05-21T08:18:51Z</time>
      </trkpt>
      <trkpt lat="42.3372080" lon="-8.6053670">
        <ele>54.9</ele>
        <time>2021-05-21T08:18:52Z</time>
      </trkpt>
      <trkpt lat="42.3372170" lon="-8.6053560">
        <ele>54.9</ele>
        <time>2021-05-21T08:18:53Z</time>
      </trkpt>
      <trkpt lat="42.3372430" lon="-8.6053390">
        <ele>54.8</ele>
        <time>2021-05-21T08:18:54Z</time>
      </trkpt>
      <trkpt lat="42.3372520" lon="-8.6053320">
        <ele>54.8</ele>
        <time>2021-05-21T08:18:55Z</time>
      </trkpt>
      <trkpt lat="42.3372660" lon="-8.6053090">
        <ele>54.7</ele>
        <time>2021-05-21T08:18:56Z</time>
      </trkpt>
      <trkpt lat="42.3372680" lon="-8.6052940">
        <ele>54.7</ele>
        <time>2021-05-21T08:18:57Z</time>
      </trkpt>
      <trkpt lat="42.3372710" lon="-8.6052790">
        <ele>54.6</ele>
        <time>2021-05-21T08:18:58Z</time>
      </trkpt>
      <trkpt lat="42.3372840" lon="-8.6052720">
        <ele>54.6</ele>
        <time>2021-05-21T08:18:59Z</time>
      </trkpt>
      <trkpt lat="42.3372980" lon="-8.6052720">
        <ele>54.6</ele>
        <time>2021-05-21T08:19:00Z</time>
      </trkpt>
      <trkpt lat="42.3373240" lon="-8.6052630">
        <ele>54.5</ele>
        <time>2021-05-21T08:19:01Z</time>
      </trkpt>
      <trkpt lat="42.3373340" lon="-8.6052640">
        <ele>54.4</ele>
        <time>2021-05-21T08:19:02Z</time>
      </trkpt>
      <trkpt lat="42.3373590" lon="-8.6052850">
        <ele>54.4</ele>
        <time>2021-05-21T08:19:03Z</time>
      </trkpt>
      <trkpt lat="42.3373860" lon="-8.6052960">
        <ele>54.3</ele>
        <time>2021-05-21T08:19:04Z</time>
      </trkpt>
      <trkpt lat="42.3374040" lon="-8.6053020">
        <ele>54.2</ele>
        <time>2021-05-21T08:19:05Z</time>
      </trkpt>
      <trkpt lat="42.3374130" lon="-8.6053090">
        <ele>54.2</ele>
        <time>2021-05-21T08:19:06Z</time>
      </trkpt>
      <trkpt lat="42.3374220" lon="-8.6053150">
        <ele>54.1</ele>
        <time>2021-05-21T08:19:07Z</time>
      </trkpt>
      <trkpt lat="42.3374400" lon="-8.6053270">
        <ele>54.1</ele>
        <time>2021-05-21T08:19:08Z</time>
      </trkpt>
      <trkpt lat="42.3374540" lon="-8.6053350">
        <ele>54.0</ele>
        <time>2021-05-21T08:19:09Z</time>
      </trkpt>
      <trkpt lat="42.3374670" lon="-8.6053390">
        <ele>54.0</ele>
        <time>2021-05-21T08:19:10Z</time>
      </trkpt>
      <trkpt lat="42.3374810" lon="-8.6053460">
        <ele>53.9</ele>
        <time>2021-05-21T08:19:11Z</time>
      </trkpt>
      <trkpt lat="42.3374890" lon="-8.6053450">
        <ele>53.9</ele>
        <time>2021-05-21T08:19:12Z</time>
      </trkpt>
      <trkpt lat="42.3375000" lon="-8.6053440">
        <ele>53.9</ele>
        <time>2021-05-21T08:19:13Z</time>
      </trkpt>
      <trkpt lat="42.3375140" lon="-8.6053330">
        <ele>53.8</ele>
        <time>2021-05-21T08:19:14Z</time>
      </trkpt>
      <trkpt lat="42.3375150" lon="-8.6053210">
        <ele>53.8</ele>
        <time>2021-05-21T08:19:15Z</time>
      </trkpt>
      <trkpt lat="42.3375190" lon="-8.6053110">
        <ele>53.8</ele>
        <time>2021-05-21T08:19:16Z</time>
      </trkpt>
      <trkpt lat="42.3375310" lon="-8.6053050">
        <ele>53.7</ele>
        <time>2021-05-21T08:19:17Z</time>
      </trkpt>
      <trkpt lat="42.3375380" lon="-8.6052970">
        <ele>53.7</ele>
        <time>2021-05-21T08:19:18Z</time>
      </trkpt>
      <trkpt lat="42.3375420" lon="-8.6052910">
        <ele>53.7</ele>
        <time>2021-05-21T08:19:19Z</time>
      </trkpt>
      <trkpt lat="42.3375480" lon="-8.6052880">
        <ele>53.7</ele>
        <time>2021-05-21T08:19:20Z</time>
      </trkpt>
      <trkpt lat="42.3375520" lon="-8.6052750">
        <ele>53.7</ele>
        <time>2021-05-21T08:19:21Z</time>
      </trkpt>
      <trkpt lat="42.3375680" lon="-8.6052560">
        <ele>53.6</ele>
        <time>2021-05-21T08:19:22Z</time>
      </trkpt>
      <trkpt lat="42.3375750" lon="-8.6052490">
        <ele>53.6</ele>
        <time>2021-05-21T08:19:23Z</time>
      </trkpt>
      <trkpt lat="42.3375820" lon="-8.6052420">
        <ele>53.6</ele>
        <time>2021-05-21T08:19:24Z</time>
      </trkpt>
      <trkpt lat="42.3375980" lon="-8.6052310">
        <ele>53.5</ele>
        <time>2021-05-21T08:19:25Z</time>
      </trkpt>
      <trkpt lat="42.3376080" lon="-8.6052200">
        <ele>53.4</ele>
        <time>2021-05-21T08:19:26Z</time>
      </trkpt>
      <trkpt lat="42.3376310" lon="-8.6051960">
        <ele>53.3</ele>
        <time>2021-05-21T08:19:27Z</time>
      </trkpt>
      <trkpt lat="42.3376370" lon="-8.6051880">
        <ele>53.3</ele>
        <time>2021-05-21T08:19:28Z</time>
      </trkpt>
      <trkpt lat="42.3376490" lon="-8.6051720">
        <ele>53.2</ele>
        <time>2021-05-21T08:19:29Z</time>
      </trkpt>
      <trkpt lat="42.3376600" lon="-8.6051650">
        <ele>53.2</ele>
        <time>2021-05-21T08:19:30Z</time>
      </trkpt>
      <trkpt lat="42.3376750" lon="-8.6051540">
        <ele>53.1</ele>
        <time>2021-05-21T08:19:31Z</time>
      </trkpt>
      <trkpt lat="42.3376780" lon="-8.6051360">
        <ele>53.0</ele>
        <time>2021-05-21T08:19:32Z</time>
      </trkpt>
      <trkpt lat="42.3377070" lon="-8.6051220">
        <ele>52.9</ele>
        <time>2021-05-21T08:19:33Z</time>
      </trkpt>
      <trkpt lat="42.3377220" lon="-8.6051200">
        <ele>52.8</ele>
        <time>2021-05-21T08:19:34Z</time>
      </trkpt>
      <trkpt lat="42.3377360" lon="-8.6051180">
        <ele>52.8</ele>
        <time>2021-05-21T08:19:35Z</time>
      </trkpt>
      <trkpt lat="42.3377500" lon="-8.6051160">
        <ele>52.7</ele>
        <time>2021-05-21T08:19:36Z</time>
      </trkpt>
      <trkpt lat="42.3377640" lon="-8.6051140">
        <ele>52.7</ele>
        <time>2021-05-21T08:19:37Z</time>
      </trkpt>
      <trkpt lat="42.3377790" lon="-8.6051120">
        <ele>52.6</ele>
        <time>2021-05-21T08:19:38Z</time>
      </trkpt>
      <trkpt lat="42.3377930" lon="-8.6051100">
        <ele>52.5</ele>
        <time>2021-05-21T08:19:39Z</time>
      </trkpt>
      <trkpt lat="42.3378030" lon="-8.6051130">
        <ele>52.5</ele>
        <time>2021-05-21T08:19:40Z</time>
      </trkpt>
      <trkpt lat="42.3378190" lon="-8.6051150">
        <ele>52.4</ele>
        <time>2021-05-21T08:19:41Z</time>
      </trkpt>
      <trkpt lat="42.3378250" lon="-8.6051180">
        <ele>52.4</ele>
        <time>2021-05-21T08:19:42Z</time>
      </trkpt>
      <trkpt lat="42.3378290" lon="-8.6051150">
        <ele>52.4</ele>
        <time>2021-05-21T08:19:43Z</time>
      </trkpt>
      <trkpt lat="42.3378340" lon="-8.6051120">
        <ele>52.4</ele>
        <time>2021-05-21T08:19:44Z</time>
      </trkpt>
      <trkpt lat="42.3378470" lon="-8.6051190">
        <ele>52.3</ele>
        <time>2021-05-21T08:19:46Z</time>
      </trkpt>
      <trkpt lat="42.3378560" lon="-8.6051240">
        <ele>52.3</ele>
        <time>2021-05-21T08:19:47Z</time>
      </trkpt>
      <trkpt lat="42.3378720" lon="-8.6051320">
        <ele>52.2</ele>
        <time>2021-05-21T08:19:48Z</time>
      </trkpt>
      <trkpt lat="42.3378840" lon="-8.6051360">
        <ele>52.2</ele>
        <time>2021-05-21T08:19:49Z</time>
      </trkpt>
      <trkpt lat="42.3379020" lon="-8.6051490">
        <ele>52.1</ele>
        <time>2021-05-21T08:19:50Z</time>
      </trkpt>
      <trkpt lat="42.3379080" lon="-8.6051540">
        <ele>52.0</ele>
        <time>2021-05-21T08:19:51Z</time>
      </trkpt>
      <trkpt lat="42.3379130" lon="-8.6051600">
        <ele>52.0</ele>
        <time>2021-05-21T08:19:52Z</time>
      </trkpt>
      <trkpt lat="42.3379190" lon="-8.6051650">
        <ele>51.9</ele>
        <time>2021-05-21T08:19:53Z</time>
      </trkpt>
      <trkpt lat="42.3379350" lon="-8.6051630">
        <ele>51.8</ele>
        <time>2021-05-21T08:19:54Z</time>
      </trkpt>
      <trkpt lat="42.3379490" lon="-8.6051630">
        <ele>51.7</ele>
        <time>2021-05-21T08:19:55Z</time>
      </trkpt>
      <trkpt lat="42.3379770" lon="-8.6051710">
        <ele>51.5</ele>
        <time>2021-05-21T08:19:56Z</time>
      </trkpt>
      <trkpt lat="42.3379870" lon="-8.6051700">
        <ele>51.5</ele>
        <time>2021-05-21T08:19:57Z</time>
      </trkpt>
      <trkpt lat="42.3379960" lon="-8.6051700">
        <ele>51.4</ele>
        <time>2021-05-21T08:19:58Z</time>
      </trkpt>
      <trkpt lat="42.3380060" lon="-8.6051690">
        <ele>51.3</ele>
        <time>2021-05-21T08:19:59Z</time>
      </trkpt>
      <trkpt lat="42.3380270" lon="-8.6051730">
        <ele>51.2</ele>
        <time>2021-05-21T08:20:00Z</time>
      </trkpt>
      <trkpt lat="42.3380360" lon="-8.6051760">
        <ele>51.1</ele>
        <time>2021-05-21T08:20:01Z</time>
      </trkpt>
      <trkpt lat="42.3380450" lon="-8.6051780">
        <ele>51.1</ele>
        <time>2021-05-21T08:20:02Z</time>
      </trkpt>
      <trkpt lat="42.3380530" lon="-8.6051800">
        <ele>51.0</ele>
        <time>2021-05-21T08:20:03Z</time>
      </trkpt>
      <trkpt lat="42.3380620" lon="-8.6051820">
        <ele>50.9</ele>
        <time>2021-05-21T08:20:04Z</time>
      </trkpt>
      <trkpt lat="42.3380710" lon="-8.6051850">
        <ele>50.9</ele>
        <time>2021-05-21T08:20:05Z</time>
      </trkpt>
      <trkpt lat="42.3380800" lon="-8.6051870">
        <ele>50.8</ele>
        <time>2021-05-21T08:20:06Z</time>
      </trkpt>
      <trkpt lat="42.3381000" lon="-8.6051920">
        <ele>50.7</ele>
        <time>2021-05-21T08:20:07Z</time>
      </trkpt>
      <trkpt lat="42.3381070" lon="-8.6051910">
        <ele>50.6</ele>
        <time>2021-05-21T08:20:08Z</time>
      </trkpt>
      <trkpt lat="42.3381140" lon="-8.6051910">
        <ele>50.6</ele>
        <time>2021-05-21T08:20:09Z</time>
      </trkpt>
      <trkpt lat="42.3381210" lon="-8.6051900">
        <ele>50.5</ele>
        <time>2021-05-21T08:20:10Z</time>
      </trkpt>
      <trkpt lat="42.3381280" lon="-8.6051890">
        <ele>50.5</ele>
        <time>2021-05-21T08:20:11Z</time>
      </trkpt>
      <trkpt lat="42.3381410" lon="-8.6051900">
        <ele>50.4</ele>
        <time>2021-05-21T08:20:12Z</time>
      </trkpt>
      <trkpt lat="42.3381560" lon="-8.6051890">
        <ele>50.3</ele>
        <time>2021-05-21T08:20:13Z</time>
      </trkpt>
      <trkpt lat="42.3381770" lon="-8.6051840">
        <ele>50.1</ele>
        <time>2021-05-21T08:20:14Z</time>
      </trkpt>
      <trkpt lat="42.3381850" lon="-8.6051820">
        <ele>50.1</ele>
        <time>2021-05-21T08:20:15Z</time>
      </trkpt>
      <trkpt lat="42.3381940" lon="-8.6051810">
        <ele>50.0</ele>
        <time>2021-05-21T08:20:16Z</time>
      </trkpt>
      <trkpt lat="42.3382000" lon="-8.6051820">
        <ele>50.0</ele>
        <time>2021-05-21T08:20:17Z</time>
      </trkpt>
      <trkpt lat="42.3382230" lon="-8.6051860">
        <ele>49.8</ele>
        <time>2021-05-21T08:20:18Z</time>
      </trkpt>
      <trkpt lat="42.3382350" lon="-8.6051900">
        <ele>49.7</ele>
        <time>2021-05-21T08:20:19Z</time>
      </trkpt>
      <trkpt lat="42.3382520" lon="-8.6051920">
        <ele>49.6</ele>
        <time>2021-05-21T08:20:20Z</time>
      </trkpt>
      <trkpt lat="42.3382640" lon="-8.6051930">
        <ele>49.5</ele>
        <time>2021-05-21T08:20:21Z</time>
      </trkpt>
      <trkpt lat="42.3382700" lon="-8.6051920">
        <ele>49.5</ele>
        <time>2021-05-21T08:20:22Z</time>
      </trkpt>
      <trkpt lat="42.3382750" lon="-8.6051850">
        <ele>49.4</ele>
        <time>2021-05-21T08:20:23Z</time>
      </trkpt>
      <trkpt lat="42.3382870" lon="-8.6051840">
        <ele>49.3</ele>
        <time>2021-05-21T08:20:24Z</time>
      </trkpt>
      <trkpt lat="42.3383220" lon="-8.6052040">
        <ele>49.0</ele>
        <time>2021-05-21T08:20:25Z</time>
      </trkpt>
      <trkpt lat="42.3383520" lon="-8.6052260">
        <ele>48.8</ele>
        <time>2021-05-21T08:20:26Z</time>
      </trkpt>
      <trkpt lat="42.3383650" lon="-8.6052340">
        <ele>48.7</ele>
        <time>2021-05-21T08:20:27Z</time>
      </trkpt>
      <trkpt lat="42.3384010" lon="-8.6052530">
        <ele>48.4</ele>
        <time>2021-05-21T08:20:28Z</time>
      </trkpt>
      <trkpt lat="42.3384170" lon="-8.6052550">
        <ele>48.3</ele>
        <time>2021-05-21T08:20:29Z</time>
      </trkpt>
      <trkpt lat="42.3384460" lon="-8.6052680">
        <ele>48.0</ele>
        <time>2021-05-21T08:20:30Z</time>
      </trkpt>
      <trkpt lat="42.3384540" lon="-8.6052740">
        <ele>48.0</ele>
        <time>2021-05-21T08:20:31Z</time>
      </trkpt>
      <trkpt lat="42.3384660" lon="-8.6052820">
        <ele>47.9</ele>
        <time>2021-05-21T08:20:32Z</time>
      </trkpt>
      <trkpt lat="42.3384770" lon="-8.6053060">
        <ele>47.7</ele>
        <time>2021-05-21T08:20:33Z</time>
      </trkpt>
      <trkpt lat="42.3384880" lon="-8.6053260">
        <ele>47.6</ele>
        <time>2021-05-21T08:20:34Z</time>
      </trkpt>
      <trkpt lat="42.3384860" lon="-8.6053470">
        <ele>47.5</ele>
        <time>2021-05-21T08:20:35Z</time>
      </trkpt>
      <trkpt lat="42.3385010" lon="-8.6053690">
        <ele>47.3</ele>
        <time>2021-05-21T08:20:36Z</time>
      </trkpt>
      <trkpt lat="42.3385090" lon="-8.6053780">
        <ele>47.2</ele>
        <time>2021-05-21T08:20:37Z</time>
      </trkpt>
      <trkpt lat="42.3385160" lon="-8.6053860">
        <ele>47.2</ele>
        <time>2021-05-21T08:20:38Z</time>
      </trkpt>
      <trkpt lat="42.3385280" lon="-8.6053920">
        <ele>47.1</ele>
        <time>2021-05-21T08:20:39Z</time>
      </trkpt>
      <trkpt lat="42.3385440" lon="-8.6054010">
        <ele>46.9</ele>
        <time>2021-05-21T08:20:40Z</time>
      </trkpt>
      <trkpt lat="42.3385770" lon="-8.6054080">
        <ele>46.7</ele>
        <time>2021-05-21T08:20:41Z</time>
      </trkpt>
      <trkpt lat="42.3385990" lon="-8.6054100">
        <ele>46.5</ele>
        <time>2021-05-21T08:20:42Z</time>
      </trkpt>
      <trkpt lat="42.3386070" lon="-8.6054130">
        <ele>46.5</ele>
        <time>2021-05-21T08:20:43Z</time>
      </trkpt>
      <trkpt lat="42.3386140" lon="-8.6054170">
        <ele>46.4</ele>
        <time>2021-05-21T08:20:44Z</time>
      </trkpt>
      <trkpt lat="42.3386220" lon="-8.6054200">
        <ele>46.4</ele>
        <time>2021-05-21T08:20:45Z</time>
      </trkpt>
      <trkpt lat="42.3386300" lon="-8.6054230">
        <ele>46.3</ele>
        <time>2021-05-21T08:20:46Z</time>
      </trkpt>
      <trkpt lat="42.3386450" lon="-8.6054390">
        <ele>46.2</ele>
        <time>2021-05-21T08:20:47Z</time>
      </trkpt>
      <trkpt lat="42.3386570" lon="-8.6054440">
        <ele>46.1</ele>
        <time>2021-05-21T08:20:48Z</time>
      </trkpt>
      <trkpt lat="42.3386680" lon="-8.6054500">
        <ele>46.0</ele>
        <time>2021-05-21T08:20:49Z</time>
      </trkpt>
      <trkpt lat="42.3386740" lon="-8.6054530">
        <ele>45.9</ele>
        <time>2021-05-21T08:20:50Z</time>
      </trkpt>
      <trkpt lat="42.3386880" lon="-8.6054560">
        <ele>45.8</ele>
        <time>2021-05-21T08:20:51Z</time>
      </trkpt>
      <trkpt lat="42.3386940" lon="-8.6054660">
        <ele>45.8</ele>
        <time>2021-05-21T08:20:52Z</time>
      </trkpt>
      <trkpt lat="42.3387040" lon="-8.6054800">
        <ele>45.7</ele>
        <time>2021-05-21T08:20:53Z</time>
      </trkpt>
      <trkpt lat="42.3387130" lon="-8.6054750">
        <ele>45.6</ele>
        <time>2021-05-21T08:20:54Z</time>
      </trkpt>
      <trkpt lat="42.3387200" lon="-8.6054860">
        <ele>45.5</ele>
        <time>2021-05-21T08:20:55Z</time>
      </trkpt>
      <trkpt lat="42.3387250" lon="-8.6054770">
        <ele>45.5</ele>
        <time>2021-05-21T08:20:56Z</time>
      </trkpt>
      <trkpt lat="42.3387310" lon="-8.6054800">
        <ele>45.4</ele>
        <time>2021-05-21T08:20:57Z</time>
      </trkpt>
      <trkpt lat="42.3387320" lon="-8.6054820">
        <ele>45.4</ele>
        <time>2021-05-21T08:20:58Z</time>
      </trkpt>
      <trkpt lat="42.3387340" lon="-8.6054870">
        <ele>45.4</ele>
        <time>2021-05-21T08:20:59Z</time>
      </trkpt>
      <trkpt lat="42.3387400" lon="-8.6054930">
        <ele>45.3</ele>
        <time>2021-05-21T08:21:00Z</time>
      </trkpt>
      <trkpt lat="42.3387420" lon="-8.6055070">
        <ele>45.2</ele>
        <time>2021-05-21T08:21:01Z</time>
      </trkpt>
      <trkpt lat="42.3387470" lon="-8.6055100">
        <ele>45.2</ele>
        <time>2021-05-21T08:21:02Z</time>
      </trkpt>
      <trkpt lat="42.3387530" lon="-8.6055120">
        <ele>45.2</ele>
        <time>2021-05-21T08:21:03Z</time>
      </trkpt>
      <trkpt lat="42.3387590" lon="-8.6055140">
        <ele>45.3</ele>
        <time>2021-05-21T08:21:04Z</time>
      </trkpt>
      <trkpt lat="42.3387650" lon="-8.6055160">
        <ele>45.4</ele>
        <time>2021-05-21T08:21:05Z</time>
      </trkpt>
      <trkpt lat="42.3387710" lon="-8.6055180">
        <ele>45.5</ele>
        <time>2021-05-21T08:21:06Z</time>
      </trkpt>
      <trkpt lat="42.3387770" lon="-8.6055190">
        <ele>45.6</ele>
        <time>2021-05-21T08:21:07Z</time>
      </trkpt>
      <trkpt lat="42.3387830" lon="-8.6055210">
        <ele>45.6</ele>
        <time>2021-05-21T08:21:08Z</time>
      </trkpt>
      <trkpt lat="42.3387890" lon="-8.6055230">
        <ele>45.5</ele>
        <time>2021-05-21T08:21:09Z</time>
      </trkpt>
      <trkpt lat="42.3387950" lon="-8.6055250">
        <ele>45.5</ele>
        <time>2021-05-21T08:21:10Z</time>
      </trkpt>
      <trkpt lat="42.3388010" lon="-8.6055270">
        <ele>45.4</ele>
        <time>2021-05-21T08:21:12Z</time>
      </trkpt>
      <trkpt lat="42.3388070" lon="-8.6055290">
        <ele>45.4</ele>
        <time>2021-05-21T08:21:13Z</time>
      </trkpt>
      <trkpt lat="42.3388130" lon="-8.6055310">
        <ele>45.3</ele>
        <time>2021-05-21T08:21:14Z</time>
      </trkpt>
      <trkpt lat="42.3388170" lon="-8.6055460">
        <ele>45.2</ele>
        <time>2021-05-21T08:21:15Z</time>
      </trkpt>
      <trkpt lat="42.3388260" lon="-8.6055530">
        <ele>45.1</ele>
        <time>2021-05-21T08:21:16Z</time>
      </trkpt>
      <trkpt lat="42.3388380" lon="-8.6055530">
        <ele>45.0</ele>
        <time>2021-05-21T08:21:17Z</time>
      </trkpt>
      <trkpt lat="42.3388580" lon="-8.6055460">
        <ele>44.9</ele>
        <time>2021-05-21T08:21:18Z</time>
      </trkpt>
      <trkpt lat="42.3388700" lon="-8.6055480">
        <ele>44.8</ele>
        <time>2021-05-21T08:21:19Z</time>
      </trkpt>
      <trkpt lat="42.3388810" lon="-8.6055490">
        <ele>44.7</ele>
        <time>2021-05-21T08:21:20Z</time>
      </trkpt>
      <trkpt lat="42.3388950" lon="-8.6055520">
        <ele>44.5</ele>
        <time>2021-05-21T08:21:21Z</time>
      </trkpt>
      <trkpt lat="42.3389110" lon="-8.6055630">
        <ele>44.4</ele>
        <time>2021-05-21T08:21:22Z</time>
      </trkpt>
      <trkpt lat="42.3389260" lon="-8.6055600">
        <ele>44.3</ele>
        <time>2021-05-21T08:21:23Z</time>
      </trkpt>
      <trkpt lat="42.3389410" lon="-8.6055680">
        <ele>44.1</ele>
        <time>2021-05-21T08:21:24Z</time>
      </trkpt>
      <trkpt lat="42.3389710" lon="-8.6055940">
        <ele>43.8</ele>
        <time>2021-05-21T08:21:25Z</time>
      </trkpt>
      <trkpt lat="42.3389830" lon="-8.6055970">
        <ele>43.7</ele>
        <time>2021-05-21T08:21:26Z</time>
      </trkpt>
      <trkpt lat="42.3390190" lon="-8.6056140">
        <ele>43.4</ele>
        <time>2021-05-21T08:21:27Z</time>
      </trkpt>
      <trkpt lat="42.3390470" lon="-8.6056260">
        <ele>43.2</ele>
        <time>2021-05-21T08:21:28Z</time>
      </trkpt>
      <trkpt lat="42.3390560" lon="-8.6056290">
        <ele>43.1</ele>
        <time>2021-05-21T08:21:29Z</time>
      </trkpt>
      <trkpt lat="42.3390790" lon="-8.6056320">
        <ele>42.9</ele>
        <time>2021-05-21T08:21:30Z</time>
      </trkpt>
      <trkpt lat="42.3390910" lon="-8.6056350">
        <ele>42.8</ele>
        <time>2021-05-21T08:21:31Z</time>
      </trkpt>
      <trkpt lat="42.3391030" lon="-8.6056380">
        <ele>42.7</ele>
        <time>2021-05-21T08:21:32Z</time>
      </trkpt>
      <trkpt lat="42.3391170" lon="-8.6056440">
        <ele>42.6</ele>
        <time>2021-05-21T08:21:33Z</time>
      </trkpt>
      <trkpt lat="42.3391240" lon="-8.6056480">
        <ele>42.6</ele>
        <time>2021-05-21T08:21:34Z</time>
      </trkpt>
      <trkpt lat="42.3391310" lon="-8.6056530">
        <ele>42.5</ele>
        <time>2021-05-21T08:21:35Z</time>
      </trkpt>
      <trkpt lat="42.3391450" lon="-8.6056590">
        <ele>42.4</ele>
        <time>2021-05-21T08:21:36Z</time>
      </trkpt>
      <trkpt lat="42.3391590" lon="-8.6056660">
        <ele>42.3</ele>
        <time>2021-05-21T08:21:37Z</time>
      </trkpt>
      <trkpt lat="42.3391790" lon="-8.6056720">
        <ele>42.1</ele>
        <time>2021-05-21T08:21:38Z</time>
      </trkpt>
      <trkpt lat="42.3391860" lon="-8.6056760">
        <ele>42.1</ele>
        <time>2021-05-21T08:21:39Z</time>
      </trkpt>
      <trkpt lat="42.3391930" lon="-8.6056770">
        <ele>42.0</ele>
        <time>2021-05-21T08:21:40Z</time>
      </trkpt>
      <trkpt lat="42.3391960" lon="-8.6056780">
        <ele>42.0</ele>
        <time>2021-05-21T08:21:41Z</time>
      </trkpt>
      <trkpt lat="42.3392060" lon="-8.6056860">
        <ele>41.9</ele>
        <time>2021-05-21T08:21:42Z</time>
      </trkpt>
      <trkpt lat="42.3392080" lon="-8.6056880">
        <ele>41.9</ele>
        <time>2021-05-21T08:21:43Z</time>
      </trkpt>
      <trkpt lat="42.3392180" lon="-8.6056890">
        <ele>41.8</ele>
        <time>2021-05-21T08:21:44Z</time>
      </trkpt>
      <trkpt lat="42.3392300" lon="-8.6056860">
        <ele>41.7</ele>
        <time>2021-05-21T08:21:45Z</time>
      </trkpt>
      <trkpt lat="42.3392410" lon="-8.6056840">
        <ele>41.6</ele>
        <time>2021-05-21T08:21:46Z</time>
      </trkpt>
      <trkpt lat="42.3392720" lon="-8.6056930">
        <ele>41.4</ele>
        <time>2021-05-21T08:21:47Z</time>
      </trkpt>
      <trkpt lat="42.3392810" lon="-8.6056900">
        <ele>41.3</ele>
        <time>2021-05-21T08:21:48Z</time>
      </trkpt>
      <trkpt lat="42.3392950" lon="-8.6056880">
        <ele>41.2</ele>
        <time>2021-05-21T08:21:49Z</time>
      </trkpt>
      <trkpt lat="42.3393040" lon="-8.6057010">
        <ele>41.1</ele>
        <time>2021-05-21T08:21:50Z</time>
      </trkpt>
      <trkpt lat="42.3393170" lon="-8.6057000">
        <ele>41.0</ele>
        <time>2021-05-21T08:21:51Z</time>
      </trkpt>
      <trkpt lat="42.3393310" lon="-8.6057010">
        <ele>40.9</ele>
        <time>2021-05-21T08:21:52Z</time>
      </trkpt>
      <trkpt lat="42.3393410" lon="-8.6057100">
        <ele>40.8</ele>
        <time>2021-05-21T08:21:53Z</time>
      </trkpt>
      <trkpt lat="42.3393490" lon="-8.6057160">
        <ele>40.8</ele>
        <time>2021-05-21T08:21:54Z</time>
      </trkpt>
      <trkpt lat="42.3393610" lon="-8.6057240">
        <ele>40.7</ele>
        <time>2021-05-21T08:21:55Z</time>
      </trkpt>
      <trkpt lat="42.3393730" lon="-8.6057410">
        <ele>40.5</ele>
        <time>2021-05-21T08:21:56Z</time>
      </trkpt>
      <trkpt lat="42.3394020" lon="-8.6057350">
        <ele>40.3</ele>
        <time>2021-05-21T08:21:57Z</time>
      </trkpt>
      <trkpt lat="42.3394110" lon="-8.6057340">
        <ele>40.3</ele>
        <time>2021-05-21T08:21:58Z</time>
      </trkpt>
      <trkpt lat="42.3394250" lon="-8.6057280">
        <ele>40.2</ele>
        <time>2021-05-21T08:21:59Z</time>
      </trkpt>
      <trkpt lat="42.3394390" lon="-8.6057310">
        <ele>40.1</ele>
        <time>2021-05-21T08:22:00Z</time>
      </trkpt>
      <trkpt lat="42.3394610" lon="-8.6057310">
        <ele>39.9</ele>
        <time>2021-05-21T08:22:01Z</time>
      </trkpt>
      <trkpt lat="42.3394700" lon="-8.6057280">
        <ele>39.9</ele>
        <time>2021-05-21T08:22:02Z</time>
      </trkpt>
      <trkpt lat="42.3394800" lon="-8.6057250">
        <ele>39.8</ele>
        <time>2021-05-21T08:22:03Z</time>
      </trkpt>
      <trkpt lat="42.3394930" lon="-8.6057320">
        <ele>39.7</ele>
        <time>2021-05-21T08:22:04Z</time>
      </trkpt>
      <trkpt lat="42.3395060" lon="-8.6057350">
        <ele>39.6</ele>
        <time>2021-05-21T08:22:05Z</time>
      </trkpt>
      <trkpt lat="42.3395270" lon="-8.6057380">
        <ele>39.5</ele>
        <time>2021-05-21T08:22:06Z</time>
      </trkpt>
      <trkpt lat="42.3395360" lon="-8.6057410">
        <ele>39.4</ele>
        <time>2021-05-21T08:22:07Z</time>
      </trkpt>
      <trkpt lat="42.3395430" lon="-8.6057370">
        <ele>39.3</ele>
        <time>2021-05-21T08:22:08Z</time>
      </trkpt>
      <trkpt lat="42.3395480" lon="-8.6057440">
        <ele>39.3</ele>
        <time>2021-05-21T08:22:09Z</time>
      </trkpt>
      <trkpt lat="42.3395570" lon="-8.6057400">
        <ele>39.2</ele>
        <time>2021-05-21T08:22:10Z</time>
      </trkpt>
      <trkpt lat="42.3395680" lon="-8.6057490">
        <ele>39.1</ele>
        <time>2021-05-21T08:22:11Z</time>
      </trkpt>
      <trkpt lat="42.3395860" lon="-8.6057470">
        <ele>39.0</ele>
        <time>2021-05-21T08:22:12Z</time>
      </trkpt>
      <trkpt lat="42.3395970" lon="-8.6057490">
        <ele>38.9</ele>
        <time>2021-05-21T08:22:13Z</time>
      </trkpt>
      <trkpt lat="42.3396080" lon="-8.6057520">
        <ele>38.9</ele>
        <time>2021-05-21T08:22:14Z</time>
      </trkpt>
      <trkpt lat="42.3396350" lon="-8.6057620">
        <ele>38.7</ele>
        <time>2021-05-21T08:22:15Z</time>
      </trkpt>
      <trkpt lat="42.3396440" lon="-8.6057650">
        <ele>38.6</ele>
        <time>2021-05-21T08:22:16Z</time>
      </trkpt>
      <trkpt lat="42.3396740" lon="-8.6057690">
        <ele>38.4</ele>
        <time>2021-05-21T08:22:17Z</time>
      </trkpt>
      <trkpt lat="42.3396980" lon="-8.6057790">
        <ele>38.3</ele>
        <time>2021-05-21T08:22:18Z</time>
      </trkpt>
      <trkpt lat="42.3397090" lon="-8.6057840">
        <ele>38.2</ele>
        <time>2021-05-21T08:22:19Z</time>
      </trkpt>
      <trkpt lat="42.3397210" lon="-8.6057880">
        <ele>38.1</ele>
        <time>2021-05-21T08:22:20Z</time>
      </trkpt>
      <trkpt lat="42.3397320" lon="-8.6057930">
        <ele>38.0</ele>
        <time>2021-05-21T08:22:21Z</time>
      </trkpt>
      <trkpt lat="42.3397440" lon="-8.6057970">
        <ele>38.0</ele>
        <time>2021-05-21T08:22:22Z</time>
      </trkpt>
      <trkpt lat="42.3397770" lon="-8.6058000">
        <ele>37.7</ele>
        <time>2021-05-21T08:22:23Z</time>
      </trkpt>
      <trkpt lat="42.3397890" lon="-8.6058060">
        <ele>37.7</ele>
        <time>2021-05-21T08:22:24Z</time>
      </trkpt>
      <trkpt lat="42.3398180" lon="-8.6058090">
        <ele>37.6</ele>
        <time>2021-05-21T08:22:25Z</time>
      </trkpt>
      <trkpt lat="42.3398260" lon="-8.6058100">
        <ele>37.5</ele>
        <time>2021-05-21T08:22:26Z</time>
      </trkpt>
      <trkpt lat="42.3398430" lon="-8.6058230">
        <ele>37.5</ele>
        <time>2021-05-21T08:22:27Z</time>
      </trkpt>
      <trkpt lat="42.3398540" lon="-8.6058320">
        <ele>37.4</ele>
        <time>2021-05-21T08:22:28Z</time>
      </trkpt>
      <trkpt lat="42.3398620" lon="-8.6058380">
        <ele>37.4</ele>
        <time>2021-05-21T08:22:29Z</time>
      </trkpt>
      <trkpt lat="42.3398770" lon="-8.6058480">
        <ele>37.4</ele>
        <time>2021-05-21T08:22:30Z</time>
      </trkpt>
      <trkpt lat="42.3398850" lon="-8.6058540">
        <ele>37.3</ele>
        <time>2021-05-21T08:22:31Z</time>
      </trkpt>
      <trkpt lat="42.3398870" lon="-8.6058510">
        <ele>37.3</ele>
        <time>2021-05-21T08:22:32Z</time>
      </trkpt>
      <trkpt lat="42.3398940" lon="-8.6058560">
        <ele>37.3</ele>
        <time>2021-05-21T08:22:33Z</time>
      </trkpt>
      <trkpt lat="42.3399020" lon="-8.6058610">
        <ele>37.3</ele>
        <time>2021-05-21T08:22:34Z</time>
      </trkpt>
      <trkpt lat="42.3399090" lon="-8.6058660">
        <ele>37.2</ele>
        <time>2021-05-21T08:22:35Z</time>
      </trkpt>
      <trkpt lat="42.3399160" lon="-8.6058710">
        <ele>37.2</ele>
        <time>2021-05-21T08:22:36Z</time>
      </trkpt>
      <trkpt lat="42.3399230" lon="-8.6058760">
        <ele>37.2</ele>
        <time>2021-05-21T08:22:37Z</time>
      </trkpt>
      <trkpt lat="42.3399300" lon="-8.6058750">
        <ele>37.2</ele>
        <time>2021-05-21T08:22:38Z</time>
      </trkpt>
      <trkpt lat="42.3399470" lon="-8.6058710">
        <ele>37.1</ele>
        <time>2021-05-21T08:22:39Z</time>
      </trkpt>
      <trkpt lat="42.3399560" lon="-8.6058760">
        <ele>37.1</ele>
        <time>2021-05-21T08:22:40Z</time>
      </trkpt>
      <trkpt lat="42.3399630" lon="-8.6058820">
        <ele>37.1</ele>
        <time>2021-05-21T08:22:41Z</time>
      </trkpt>
      <trkpt lat="42.3399690" lon="-8.6058830">
        <ele>37.0</ele>
        <time>2021-05-21T08:22:42Z</time>
      </trkpt>
      <trkpt lat="42.3399750" lon="-8.6058840">
        <ele>37.0</ele>
        <time>2021-05-21T08:22:43Z</time>
      </trkpt>
      <trkpt lat="42.3399810" lon="-8.6058850">
        <ele>37.0</ele>
        <time>2021-05-21T08:22:44Z</time>
      </trkpt>
      <trkpt lat="42.3399870" lon="-8.6058860">
        <ele>37.0</ele>
        <time>2021-05-21T08:22:45Z</time>
      </trkpt>
      <trkpt lat="42.3399930" lon="-8.6058870">
        <ele>36.9</ele>
        <time>2021-05-21T08:22:46Z</time>
      </trkpt>
      <trkpt lat="42.3400020" lon="-8.6058890">
        <ele>36.9</ele>
        <time>2021-05-21T08:22:47Z</time>
      </trkpt>
      <trkpt lat="42.3400100" lon="-8.6058960">
        <ele>36.8</ele>
        <time>2021-05-21T08:22:48Z</time>
      </trkpt>
      <trkpt lat="42.3400130" lon="-8.6059010">
        <ele>36.8</ele>
        <time>2021-05-21T08:22:49Z</time>
      </trkpt>
      <trkpt lat="42.3400210" lon="-8.6059010">
        <ele>36.7</ele>
        <time>2021-05-21T08:22:50Z</time>
      </trkpt>
      <trkpt lat="42.3400460" lon="-8.6059000">
        <ele>36.6</ele>
        <time>2021-05-21T08:22:51Z</time>
      </trkpt>
      <trkpt lat="42.3400570" lon="-8.6059030">
        <ele>36.5</ele>
        <time>2021-05-21T08:22:52Z</time>
      </trkpt>
      <trkpt lat="42.3400680" lon="-8.6059060">
        <ele>36.5</ele>
        <time>2021-05-21T08:22:53Z</time>
      </trkpt>
      <trkpt lat="42.3400620" lon="-8.6059000">
        <ele>36.4</ele>
        <time>2021-05-21T08:22:54Z</time>
      </trkpt>
      <trkpt lat="42.3400760" lon="-8.6059030">
        <ele>36.3</ele>
        <time>2021-05-21T08:22:55Z</time>
      </trkpt>
      <trkpt lat="42.3400980" lon="-8.6059090">
        <ele>36.2</ele>
        <time>2021-05-21T08:22:56Z</time>
      </trkpt>
      <trkpt lat="42.3401140" lon="-8.6059110">
        <ele>36.1</ele>
        <time>2021-05-21T08:22:57Z</time>
      </trkpt>
      <trkpt lat="42.3401100" lon="-8.6059240">
        <ele>36.1</ele>
        <time>2021-05-21T08:22:58Z</time>
      </trkpt>
      <trkpt lat="42.3401290" lon="-8.6059250">
        <ele>36.0</ele>
        <time>2021-05-21T08:22:59Z</time>
      </trkpt>
      <trkpt lat="42.3401620" lon="-8.6059320">
        <ele>35.8</ele>
        <time>2021-05-21T08:23:00Z</time>
      </trkpt>
      <trkpt lat="42.3401730" lon="-8.6059370">
        <ele>35.7</ele>
        <time>2021-05-21T08:23:01Z</time>
      </trkpt>
      <trkpt lat="42.3401860" lon="-8.6059510">
        <ele>35.6</ele>
        <time>2021-05-21T08:23:02Z</time>
      </trkpt>
      <trkpt lat="42.3402040" lon="-8.6059590">
        <ele>35.5</ele>
        <time>2021-05-21T08:23:03Z</time>
      </trkpt>
      <trkpt lat="42.3402150" lon="-8.6059740">
        <ele>35.4</ele>
        <time>2021-05-21T08:23:04Z</time>
      </trkpt>
      <trkpt lat="42.3402310" lon="-8.6059780">
        <ele>35.3</ele>
        <time>2021-05-21T08:23:05Z</time>
      </trkpt>
      <trkpt lat="42.3402540" lon="-8.6059800">
        <ele>35.2</ele>
        <time>2021-05-21T08:23:06Z</time>
      </trkpt>
      <trkpt lat="42.3402660" lon="-8.6059790">
        <ele>35.1</ele>
        <time>2021-05-21T08:23:07Z</time>
      </trkpt>
      <trkpt lat="42.3402910" lon="-8.6059960">
        <ele>35.0</ele>
        <time>2021-05-21T08:23:08Z</time>
      </trkpt>
      <trkpt lat="42.3403000" lon="-8.6060190">
        <ele>34.9</ele>
        <time>2021-05-21T08:23:09Z</time>
      </trkpt>
      <trkpt lat="42.3403150" lon="-8.6060310">
        <ele>34.8</ele>
        <time>2021-05-21T08:23:10Z</time>
      </trkpt>
      <trkpt lat="42.3403230" lon="-8.6060500">
        <ele>34.7</ele>
        <time>2021-05-21T08:23:11Z</time>
      </trkpt>
      <trkpt lat="42.3403340" lon="-8.6060650">
        <ele>34.6</ele>
        <time>2021-05-21T08:23:12Z</time>
      </trkpt>
      <trkpt lat="42.3403400" lon="-8.6060620">
        <ele>34.6</ele>
        <time>2021-05-21T08:23:13Z</time>
      </trkpt>
      <trkpt lat="42.3403630" lon="-8.6060710">
        <ele>34.5</ele>
        <time>2021-05-21T08:23:14Z</time>
      </trkpt>
      <trkpt lat="42.3403720" lon="-8.6060750">
        <ele>34.5</ele>
        <time>2021-05-21T08:23:15Z</time>
      </trkpt>
      <trkpt lat="42.3403820" lon="-8.6060800">
        <ele>34.4</ele>
        <time>2021-05-21T08:23:16Z</time>
      </trkpt>
      <trkpt lat="42.3403920" lon="-8.6060840">
        <ele>34.4</ele>
        <time>2021-05-21T08:23:17Z</time>
      </trkpt>
      <trkpt lat="42.3404020" lon="-8.6060890">
        <ele>34.3</ele>
        <time>2021-05-21T08:23:18Z</time>
      </trkpt>
      <trkpt lat="42.3404060" lon="-8.6060870">
        <ele>34.3</ele>
        <time>2021-05-21T08:23:19Z</time>
      </trkpt>
      <trkpt lat="42.3404170" lon="-8.6060970">
        <ele>34.2</ele>
        <time>2021-05-21T08:23:20Z</time>
      </trkpt>
      <trkpt lat="42.3404200" lon="-8.6061040">
        <ele>34.2</ele>
        <time>2021-05-21T08:23:21Z</time>
      </trkpt>
      <trkpt lat="42.3404200" lon="-8.6061080">
        <ele>34.2</ele>
        <time>2021-05-21T08:23:22Z</time>
      </trkpt>
      <trkpt lat="42.3404280" lon="-8.6061130">
        <ele>34.1</ele>
        <time>2021-05-21T08:23:23Z</time>
      </trkpt>
      <trkpt lat="42.3404320" lon="-8.6061110">
        <ele>34.1</ele>
        <time>2021-05-21T08:23:24Z</time>
      </trkpt>
      <trkpt lat="42.3404360" lon="-8.6061140">
        <ele>34.1</ele>
        <time>2021-05-21T08:23:25Z</time>
      </trkpt>
      <trkpt lat="42.3404390" lon="-8.6061170">
        <ele>34.1</ele>
        <time>2021-05-21T08:23:26Z</time>
      </trkpt>
      <trkpt lat="42.3404430" lon="-8.6061200">
        <ele>34.0</ele>
        <time>2021-05-21T08:23:27Z</time>
      </trkpt>
      <trkpt lat="42.3404470" lon="-8.6061230">
        <ele>34.0</ele>
        <time>2021-05-21T08:23:28Z</time>
      </trkpt>
      <trkpt lat="42.3404510" lon="-8.6061270">
        <ele>34.0</ele>
        <time>2021-05-21T08:23:29Z</time>
      </trkpt>
      <trkpt lat="42.3404550" lon="-8.6061300">
        <ele>34.0</ele>
        <time>2021-05-21T08:23:30Z</time>
      </trkpt>
      <trkpt lat="42.3404580" lon="-8.6061330">
        <ele>34.0</ele>
        <time>2021-05-21T08:23:31Z</time>
      </trkpt>
      <trkpt lat="42.3404620" lon="-8.6061360">
        <ele>33.9</ele>
        <time>2021-05-21T08:23:32Z</time>
      </trkpt>
      <trkpt lat="42.3404660" lon="-8.6061390">
        <ele>33.9</ele>
        <time>2021-05-21T08:23:33Z</time>
      </trkpt>
      <trkpt lat="42.3404920" lon="-8.6061560">
        <ele>33.8</ele>
        <time>2021-05-21T08:23:34Z</time>
      </trkpt>
      <trkpt lat="42.3405170" lon="-8.6061640">
        <ele>33.7</ele>
        <time>2021-05-21T08:23:35Z</time>
      </trkpt>
      <trkpt lat="42.3405300" lon="-8.6061750">
        <ele>33.6</ele>
        <time>2021-05-21T08:23:36Z</time>
      </trkpt>
      <trkpt lat="42.3405570" lon="-8.6062000">
        <ele>33.5</ele>
        <time>2021-05-21T08:23:37Z</time>
      </trkpt>
      <trkpt lat="42.3405680" lon="-8.6062050">
        <ele>33.4</ele>
        <time>2021-05-21T08:23:38Z</time>
      </trkpt>
      <trkpt lat="42.3405870" lon="-8.6062150">
        <ele>33.3</ele>
        <time>2021-05-21T08:23:39Z</time>
      </trkpt>
      <trkpt lat="42.3405920" lon="-8.6062170">
        <ele>33.3</ele>
        <time>2021-05-21T08:23:40Z</time>
      </trkpt>
      <trkpt lat="42.3405960" lon="-8.6062200">
        <ele>33.3</ele>
        <time>2021-05-21T08:23:41Z</time>
      </trkpt>
      <trkpt lat="42.3406010" lon="-8.6062220">
        <ele>33.3</ele>
        <time>2021-05-21T08:23:42Z</time>
      </trkpt>
      <trkpt lat="42.3406060" lon="-8.6062240">
        <ele>33.3</ele>
        <time>2021-05-21T08:23:43Z</time>
      </trkpt>
      <trkpt lat="42.3406210" lon="-8.6062320">
        <ele>33.2</ele>
        <time>2021-05-21T08:23:44Z</time>
      </trkpt>
      <trkpt lat="42.3406290" lon="-8.6062360">
        <ele>33.1</ele>
        <time>2021-05-21T08:23:45Z</time>
      </trkpt>
      <trkpt lat="42.3406310" lon="-8.6062360">
        <ele>33.1</ele>
        <time>2021-05-21T08:23:46Z</time>
      </trkpt>
      <trkpt lat="42.3406350" lon="-8.6062400">
        <ele>33.1</ele>
        <time>2021-05-21T08:23:47Z</time>
      </trkpt>
      <trkpt lat="42.3406390" lon="-8.6062440">
        <ele>33.1</ele>
        <time>2021-05-21T08:23:48Z</time>
      </trkpt>
      <trkpt lat="42.3406480" lon="-8.6062450">
        <ele>33.1</ele>
        <time>2021-05-21T08:23:49Z</time>
      </trkpt>
      <trkpt lat="42.3406630" lon="-8.6062530">
        <ele>33.0</ele>
        <time>2021-05-21T08:23:50Z</time>
      </trkpt>
      <trkpt lat="42.3406720" lon="-8.6062580">
        <ele>33.0</ele>
        <time>2021-05-21T08:23:51Z</time>
      </trkpt>
      <trkpt lat="42.3406800" lon="-8.6062490">
        <ele>33.0</ele>
        <time>2021-05-21T08:23:52Z</time>
      </trkpt>
      <trkpt lat="42.3406960" lon="-8.6062530">
        <ele>32.9</ele>
        <time>2021-05-21T08:23:53Z</time>
      </trkpt>
      <trkpt lat="42.3407160" lon="-8.6062580">
        <ele>32.9</ele>
        <time>2021-05-21T08:23:54Z</time>
      </trkpt>
      <trkpt lat="42.3407250" lon="-8.6062590">
        <ele>32.9</ele>
        <time>2021-05-21T08:23:55Z</time>
      </trkpt>
      <trkpt lat="42.3407330" lon="-8.6062610">
        <ele>32.9</ele>
        <time>2021-05-21T08:23:56Z</time>
      </trkpt>
      <trkpt lat="42.3407420" lon="-8.6062630">
        <ele>32.9</ele>
        <time>2021-05-21T08:23:57Z</time>
      </trkpt>
      <trkpt lat="42.3407720" lon="-8.6062660">
        <ele>32.8</ele>
        <time>2021-05-21T08:23:58Z</time>
      </trkpt>
      <trkpt lat="42.3407820" lon="-8.6062680">
        <ele>32.8</ele>
        <time>2021-05-21T08:23:59Z</time>
      </trkpt>
      <trkpt lat="42.3408010" lon="-8.6062670">
        <ele>32.8</ele>
        <time>2021-05-21T08:24:00Z</time>
      </trkpt>
      <trkpt lat="42.3408160" lon="-8.6062710">
        <ele>32.8</ele>
        <time>2021-05-21T08:24:01Z</time>
      </trkpt>
      <trkpt lat="42.3408310" lon="-8.6062730">
        <ele>32.8</ele>
        <time>2021-05-21T08:24:02Z</time>
      </trkpt>
      <trkpt lat="42.3408370" lon="-8.6062790">
        <ele>32.7</ele>
        <time>2021-05-21T08:24:03Z</time>
      </trkpt>
      <trkpt lat="42.3408430" lon="-8.6062860">
        <ele>32.7</ele>
        <time>2021-05-21T08:24:04Z</time>
      </trkpt>
      <trkpt lat="42.3408490" lon="-8.6062930">
        <ele>32.7</ele>
        <time>2021-05-21T08:24:05Z</time>
      </trkpt>
      <trkpt lat="42.3408670" lon="-8.6062980">
        <ele>32.7</ele>
        <time>2021-05-21T08:24:06Z</time>
      </trkpt>
      <trkpt lat="42.3408760" lon="-8.6063010">
        <ele>32.7</ele>
        <time>2021-05-21T08:24:07Z</time>
      </trkpt>
      <trkpt lat="42.3408860" lon="-8.6063050">
        <ele>32.7</ele>
        <time>2021-05-21T08:24:08Z</time>
      </trkpt>
      <trkpt lat="42.3408910" lon="-8.6063060">
        <ele>32.7</ele>
        <time>2021-05-21T08:24:09Z</time>
      </trkpt>
      <trkpt lat="42.3409020" lon="-8.6063160">
        <ele>32.6</ele>
        <time>2021-05-21T08:24:10Z</time>
      </trkpt>
      <trkpt lat="42.3409110" lon="-8.6063240">
        <ele>32.6</ele>
        <time>2021-05-21T08:24:11Z</time>
      </trkpt>
      <trkpt lat="42.3409160" lon="-8.6063280">
        <ele>32.6</ele>
        <time>2021-05-21T08:24:12Z</time>
      </trkpt>
      <trkpt lat="42.3409160" lon="-8.6063290">
        <ele>32.6</ele>
        <time>2021-05-21T08:24:13Z</time>
      </trkpt>
      <trkpt lat="42.3409170" lon="-8.6063290">
        <ele>32.6</ele>
        <time>2021-05-21T08:24:14Z</time>
      </trkpt>
      <trkpt lat="42.3409180" lon="-8.6063300">
        <ele>32.6</ele>
        <time>2021-05-21T08:24:15Z</time>
      </trkpt>
      <trkpt lat="42.3409190" lon="-8.6063300">
        <ele>32.6</ele>
        <time>2021-05-21T08:24:16Z</time>
      </trkpt>
      <trkpt lat="42.3409190" lon="-8.6063310">
        <ele>32.6</ele>
        <time>2021-05-21T08:24:17Z</time>
      </trkpt>
      <trkpt lat="42.3409200" lon="-8.6063310">
        <ele>32.6</ele>
        <time>2021-05-21T08:24:18Z</time>
      </trkpt>
      <trkpt lat="42.3409210" lon="-8.6063320">
        <ele>32.6</ele>
        <time>2021-05-21T08:24:19Z</time>
      </trkpt>
      <trkpt lat="42.3409210" lon="-8.6063320">
        <ele>32.6</ele>
        <time>2021-05-21T08:24:20Z</time>
      </trkpt>
      <trkpt lat="42.3409220" lon="-8.6063330">
        <ele>32.6</ele>
        <time>2021-05-21T08:24:21Z</time>
      </trkpt>
      <trkpt lat="42.3409230" lon="-8.6063330">
        <ele>32.6</ele>
        <time>2021-05-21T08:24:22Z</time>
      </trkpt>
      <trkpt lat="42.3409240" lon="-8.6063340">
        <ele>32.6</ele>
        <time>2021-05-21T08:24:23Z</time>
      </trkpt>
      <trkpt lat="42.3409240" lon="-8.6063340">
        <ele>32.6</ele>
        <time>2021-05-21T08:24:24Z</time>
      </trkpt>
      <trkpt lat="42.3409250" lon="-8.6063350">
        <ele>32.6</ele>
        <time>2021-05-21T08:24:25Z</time>
      </trkpt>
      <trkpt lat="42.3409260" lon="-8.6063350">
        <ele>32.6</ele>
        <time>2021-05-21T08:24:26Z</time>
      </trkpt>
      <trkpt lat="42.3409260" lon="-8.6063350">
        <ele>32.6</ele>
        <time>2021-05-21T08:24:27Z</time>
      </trkpt>
      <trkpt lat="42.3409270" lon="-8.6063360">
        <ele>32.6</ele>
        <time>2021-05-21T08:24:28Z</time>
      </trkpt>
      <trkpt lat="42.3409280" lon="-8.6063360">
        <ele>32.6</ele>
        <time>2021-05-21T08:24:29Z</time>
      </trkpt>
      <trkpt lat="42.3409290" lon="-8.6063370">
        <ele>32.6</ele>
        <time>2021-05-21T08:24:30Z</time>
      </trkpt>
      <trkpt lat="42.3409290" lon="-8.6063370">
        <ele>32.6</ele>
        <time>2021-05-21T08:24:31Z</time>
      </trkpt>
      <trkpt lat="42.3409300" lon="-8.6063380">
        <ele>32.6</ele>
        <time>2021-05-21T08:24:32Z</time>
      </trkpt>
      <trkpt lat="42.3409310" lon="-8.6063380">
        <ele>32.6</ele>
        <time>2021-05-21T08:24:33Z</time>
      </trkpt>
      <trkpt lat="42.3409310" lon="-8.6063390">
        <ele>32.6</ele>
        <time>2021-05-21T08:24:34Z</time>
      </trkpt>
      <trkpt lat="42.3409320" lon="-8.6063390">
        <ele>32.6</ele>
        <time>2021-05-21T08:24:35Z</time>
      </trkpt>
      <trkpt lat="42.3409330" lon="-8.6063400">
        <ele>32.6</ele>
        <time>2021-05-21T08:24:36Z</time>
      </trkpt>
      <trkpt lat="42.3409340" lon="-8.6063400">
        <ele>32.6</ele>
        <time>2021-05-21T08:24:37Z</time>
      </trkpt>
      <trkpt lat="42.3409340" lon="-8.6063410">
        <ele>32.6</ele>
        <time>2021-05-21T08:24:38Z</time>
      </trkpt>
      <trkpt lat="42.3409350" lon="-8.6063410">
        <ele>32.6</ele>
        <time>2021-05-21T08:24:39Z</time>
      </trkpt>
      <trkpt lat="42.3409360" lon="-8.6063420">
        <ele>32.6</ele>
        <time>2021-05-21T08:24:40Z</time>
      </trkpt>
      <trkpt lat="42.3409360" lon="-8.6063420">
        <ele>32.6</ele>
        <time>2021-05-21T08:24:41Z</time>
      </trkpt>
      <trkpt lat="42.3409370" lon="-8.6063430">
        <ele>32.6</ele>
        <time>2021-05-21T08:24:42Z</time>
      </trkpt>
      <trkpt lat="42.3409380" lon="-8.6063430">
        <ele>32.6</ele>
        <time>2021-05-21T08:24:43Z</time>
      </trkpt>
      <trkpt lat="42.3409380" lon="-8.6063430">
        <ele>32.6</ele>
        <time>2021-05-21T08:24:44Z</time>
      </trkpt>
      <trkpt lat="42.3409390" lon="-8.6063440">
        <ele>32.6</ele>
        <time>2021-05-21T08:24:45Z</time>
      </trkpt>
      <trkpt lat="42.3409400" lon="-8.6063440">
        <ele>32.6</ele>
        <time>2021-05-21T08:24:46Z</time>
      </trkpt>
      <trkpt lat="42.3409410" lon="-8.6063450">
        <ele>32.6</ele>
        <time>2021-05-21T08:24:47Z</time>
      </trkpt>
      <trkpt lat="42.3409410" lon="-8.6063450">
        <ele>32.6</ele>
        <time>2021-05-21T08:24:48Z</time>
      </trkpt>
      <trkpt lat="42.3409420" lon="-8.6063460">
        <ele>32.6</ele>
        <time>2021-05-21T08:24:49Z</time>
      </trkpt>
      <trkpt lat="42.3409430" lon="-8.6063460">
        <ele>32.6</ele>
        <time>2021-05-21T08:24:50Z</time>
      </trkpt>
      <trkpt lat="42.3409430" lon="-8.6063470">
        <ele>32.6</ele>
        <time>2021-05-21T08:24:51Z</time>
      </trkpt>
      <trkpt lat="42.3409440" lon="-8.6063470">
        <ele>32.6</ele>
        <time>2021-05-21T08:24:52Z</time>
      </trkpt>
      <trkpt lat="42.3409450" lon="-8.6063480">
        <ele>32.6</ele>
        <time>2021-05-21T08:24:53Z</time>
      </trkpt>
      <trkpt lat="42.3409460" lon="-8.6063480">
        <ele>32.6</ele>
        <time>2021-05-21T08:24:54Z</time>
      </trkpt>
      <trkpt lat="42.3409460" lon="-8.6063490">
        <ele>32.6</ele>
        <time>2021-05-21T08:24:55Z</time>
      </trkpt>
      <trkpt lat="42.3409470" lon="-8.6063490">
        <ele>32.6</ele>
        <time>2021-05-21T08:24:56Z</time>
      </trkpt>
      <trkpt lat="42.3409480" lon="-8.6063500">
        <ele>32.6</ele>
        <time>2021-05-21T08:24:57Z</time>
      </trkpt>
      <trkpt lat="42.3409480" lon="-8.6063500">
        <ele>32.6</ele>
        <time>2021-05-21T08:24:58Z</time>
      </trkpt>
      <trkpt lat="42.3409490" lon="-8.6063500">
        <ele>32.6</ele>
        <time>2021-05-21T08:24:59Z</time>
      </trkpt>
      <trkpt lat="42.3409500" lon="-8.6063510">
        <ele>32.6</ele>
        <time>2021-05-21T08:25:00Z</time>
      </trkpt>
      <trkpt lat="42.3409510" lon="-8.6063510">
        <ele>32.6</ele>
        <time>2021-05-21T08:25:01Z</time>
      </trkpt>
      <trkpt lat="42.3409510" lon="-8.6063520">
        <ele>32.6</ele>
        <time>2021-05-21T08:25:02Z</time>
      </trkpt>
      <trkpt lat="42.3409520" lon="-8.6063520">
        <ele>32.6</ele>
        <time>2021-05-21T08:25:03Z</time>
      </trkpt>
      <trkpt lat="42.3409530" lon="-8.6063530">
        <ele>32.6</ele>
        <time>2021-05-21T08:25:04Z</time>
      </trkpt>
      <trkpt lat="42.3409530" lon="-8.6063530">
        <ele>32.6</ele>
        <time>2021-05-21T08:25:05Z</time>
      </trkpt>
      <trkpt lat="42.3409540" lon="-8.6063540">
        <ele>32.6</ele>
        <time>2021-05-21T08:25:06Z</time>
      </trkpt>
      <trkpt lat="42.3409550" lon="-8.6063540">
        <ele>32.6</ele>
        <time>2021-05-21T08:25:07Z</time>
      </trkpt>
      <trkpt lat="42.3409560" lon="-8.6063550">
        <ele>32.6</ele>
        <time>2021-05-21T08:25:08Z</time>
      </trkpt>
      <trkpt lat="42.3409560" lon="-8.6063550">
        <ele>32.6</ele>
        <time>2021-05-21T08:25:09Z</time>
      </trkpt>
      <trkpt lat="42.3409570" lon="-8.6063560">
        <ele>32.6</ele>
        <time>2021-05-21T08:25:10Z</time>
      </trkpt>
      <trkpt lat="42.3409580" lon="-8.6063560">
        <ele>32.6</ele>
        <time>2021-05-21T08:25:11Z</time>
      </trkpt>
      <trkpt lat="42.3409580" lon="-8.6063570">
        <ele>32.6</ele>
        <time>2021-05-21T08:25:12Z</time>
      </trkpt>
      <trkpt lat="42.3409590" lon="-8.6063570">
        <ele>32.5</ele>
        <time>2021-05-21T08:25:13Z</time>
      </trkpt>
      <trkpt lat="42.3409600" lon="-8.6063570">
        <ele>32.5</ele>
        <time>2021-05-21T08:25:14Z</time>
      </trkpt>
      <trkpt lat="42.3409610" lon="-8.6063580">
        <ele>32.5</ele>
        <time>2021-05-21T08:25:15Z</time>
      </trkpt>
      <trkpt lat="42.3409610" lon="-8.6063580">
        <ele>32.5</ele>
        <time>2021-05-21T08:25:16Z</time>
      </trkpt>
      <trkpt lat="42.3409620" lon="-8.6063590">
        <ele>32.5</ele>
        <time>2021-05-21T08:25:17Z</time>
      </trkpt>
      <trkpt lat="42.3409630" lon="-8.6063590">
        <ele>32.5</ele>
        <time>2021-05-21T08:25:18Z</time>
      </trkpt>
      <trkpt lat="42.3409630" lon="-8.6063600">
        <ele>32.5</ele>
        <time>2021-05-21T08:25:19Z</time>
      </trkpt>
      <trkpt lat="42.3409640" lon="-8.6063600">
        <ele>32.5</ele>
        <time>2021-05-21T08:25:20Z</time>
      </trkpt>
      <trkpt lat="42.3409650" lon="-8.6063610">
        <ele>32.5</ele>
        <time>2021-05-21T08:25:21Z</time>
      </trkpt>
      <trkpt lat="42.3409660" lon="-8.6063610">
        <ele>32.5</ele>
        <time>2021-05-21T08:25:22Z</time>
      </trkpt>
      <trkpt lat="42.3409660" lon="-8.6063620">
        <ele>32.5</ele>
        <time>2021-05-21T08:25:23Z</time>
      </trkpt>
      <trkpt lat="42.3409670" lon="-8.6063620">
        <ele>32.5</ele>
        <time>2021-05-21T08:25:24Z</time>
      </trkpt>
      <trkpt lat="42.3409680" lon="-8.6063630">
        <ele>32.5</ele>
        <time>2021-05-21T08:25:25Z</time>
      </trkpt>
      <trkpt lat="42.3409680" lon="-8.6063630">
        <ele>32.5</ele>
        <time>2021-05-21T08:25:26Z</time>
      </trkpt>
      <trkpt lat="42.3409690" lon="-8.6063640">
        <ele>32.5</ele>
        <time>2021-05-21T08:25:27Z</time>
      </trkpt>
      <trkpt lat="42.3409700" lon="-8.6063640">
        <ele>32.5</ele>
        <time>2021-05-21T08:25:28Z</time>
      </trkpt>
      <trkpt lat="42.3409710" lon="-8.6063640">
        <ele>32.5</ele>
        <time>2021-05-21T08:25:29Z</time>
      </trkpt>
      <trkpt lat="42.3409710" lon="-8.6063650">
        <ele>32.5</ele>
        <time>2021-05-21T08:25:30Z</time>
      </trkpt>
      <trkpt lat="42.3409720" lon="-8.6063650">
        <ele>32.5</ele>
        <time>2021-05-21T08:25:31Z</time>
      </trkpt>
      <trkpt lat="42.3409730" lon="-8.6063660">
        <ele>32.5</ele>
        <time>2021-05-21T08:25:32Z</time>
      </trkpt>
      <trkpt lat="42.3409730" lon="-8.6063660">
        <ele>32.5</ele>
        <time>2021-05-21T08:25:33Z</time>
      </trkpt>
      <trkpt lat="42.3409740" lon="-8.6063670">
        <ele>32.5</ele>
        <time>2021-05-21T08:25:34Z</time>
      </trkpt>
      <trkpt lat="42.3409750" lon="-8.6063670">
        <ele>32.5</ele>
        <time>2021-05-21T08:25:35Z</time>
      </trkpt>
      <trkpt lat="42.3409750" lon="-8.6063680">
        <ele>32.5</ele>
        <time>2021-05-21T08:25:36Z</time>
      </trkpt>
      <trkpt lat="42.3409760" lon="-8.6063680">
        <ele>32.5</ele>
        <time>2021-05-21T08:25:37Z</time>
      </trkpt>
      <trkpt lat="42.3409770" lon="-8.6063690">
        <ele>32.5</ele>
        <time>2021-05-21T08:25:38Z</time>
      </trkpt>
      <trkpt lat="42.3409780" lon="-8.6063690">
        <ele>32.5</ele>
        <time>2021-05-21T08:25:39Z</time>
      </trkpt>
      <trkpt lat="42.3409780" lon="-8.6063700">
        <ele>32.5</ele>
        <time>2021-05-21T08:25:40Z</time>
      </trkpt>
      <trkpt lat="42.3409790" lon="-8.6063700">
        <ele>32.5</ele>
        <time>2021-05-21T08:25:41Z</time>
      </trkpt>
      <trkpt lat="42.3409800" lon="-8.6063710">
        <ele>32.5</ele>
        <time>2021-05-21T08:25:42Z</time>
      </trkpt>
      <trkpt lat="42.3409800" lon="-8.6063710">
        <ele>32.5</ele>
        <time>2021-05-21T08:25:43Z</time>
      </trkpt>
      <trkpt lat="42.3409810" lon="-8.6063720">
        <ele>32.5</ele>
        <time>2021-05-21T08:25:44Z</time>
      </trkpt>
      <trkpt lat="42.3409820" lon="-8.6063720">
        <ele>32.5</ele>
        <time>2021-05-21T08:25:45Z</time>
      </trkpt>
      <trkpt lat="42.3409830" lon="-8.6063720">
        <ele>32.5</ele>
        <time>2021-05-21T08:25:46Z</time>
      </trkpt>
      <trkpt lat="42.3409830" lon="-8.6063730">
        <ele>32.5</ele>
        <time>2021-05-21T08:25:47Z</time>
      </trkpt>
      <trkpt lat="42.3409840" lon="-8.6063730">
        <ele>32.5</ele>
        <time>2021-05-21T08:25:48Z</time>
      </trkpt>
      <trkpt lat="42.3409850" lon="-8.6063740">
        <ele>32.5</ele>
        <time>2021-05-21T08:25:49Z</time>
      </trkpt>
      <trkpt lat="42.3409850" lon="-8.6063740">
        <ele>32.5</ele>
        <time>2021-05-21T08:25:50Z</time>
      </trkpt>
      <trkpt lat="42.3409860" lon="-8.6063750">
        <ele>32.5</ele>
        <time>2021-05-21T08:25:51Z</time>
      </trkpt>
      <trkpt lat="42.3409870" lon="-8.6063750">
        <ele>32.5</ele>
        <time>2021-05-21T08:25:52Z</time>
      </trkpt>
      <trkpt lat="42.3409880" lon="-8.6063760">
        <ele>32.5</ele>
        <time>2021-05-21T08:25:53Z</time>
      </trkpt>
      <trkpt lat="42.3409880" lon="-8.6063760">
        <ele>32.5</ele>
        <time>2021-05-21T08:25:54Z</time>
      </trkpt>
      <trkpt lat="42.3409890" lon="-8.6063770">
        <ele>32.5</ele>
        <time>2021-05-21T08:25:55Z</time>
      </trkpt>
      <trkpt lat="42.3409900" lon="-8.6063770">
        <ele>32.5</ele>
        <time>2021-05-21T08:25:56Z</time>
      </trkpt>
      <trkpt lat="42.3409900" lon="-8.6063780">
        <ele>32.5</ele>
        <time>2021-05-21T08:25:57Z</time>
      </trkpt>
      <trkpt lat="42.3409910" lon="-8.6063780">
        <ele>32.5</ele>
        <time>2021-05-21T08:25:58Z</time>
      </trkpt>
      <trkpt lat="42.3409920" lon="-8.6063790">
        <ele>32.5</ele>
        <time>2021-05-21T08:25:59Z</time>
      </trkpt>
      <trkpt lat="42.3409930" lon="-8.6063790">
        <ele>32.5</ele>
        <time>2021-05-21T08:26:00Z</time>
      </trkpt>
      <trkpt lat="42.3409930" lon="-8.6063790">
        <ele>32.5</ele>
        <time>2021-05-21T08:26:01Z</time>
      </trkpt>
      <trkpt lat="42.3409940" lon="-8.6063800">
        <ele>32.5</ele>
        <time>2021-05-21T08:26:02Z</time>
      </trkpt>
      <trkpt lat="42.3409950" lon="-8.6063800">
        <ele>32.5</ele>
        <time>2021-05-21T08:26:03Z</time>
      </trkpt>
      <trkpt lat="42.3409950" lon="-8.6063810">
        <ele>32.5</ele>
        <time>2021-05-21T08:26:04Z</time>
      </trkpt>
      <trkpt lat="42.3409960" lon="-8.6063810">
        <ele>32.5</ele>
        <time>2021-05-21T08:26:05Z</time>
      </trkpt>
      <trkpt lat="42.3409970" lon="-8.6063820">
        <ele>32.5</ele>
        <time>2021-05-21T08:26:06Z</time>
      </trkpt>
      <trkpt lat="42.3409980" lon="-8.6063820">
        <ele>32.5</ele>
        <time>2021-05-21T08:26:07Z</time>
      </trkpt>
      <trkpt lat="42.3409980" lon="-8.6063830">
        <ele>32.5</ele>
        <time>2021-05-21T08:26:08Z</time>
      </trkpt>
      <trkpt lat="42.3409990" lon="-8.6063830">
        <ele>32.5</ele>
        <time>2021-05-21T08:26:09Z</time>
      </trkpt>
      <trkpt lat="42.3410000" lon="-8.6063840">
        <ele>32.5</ele>
        <time>2021-05-21T08:26:10Z</time>
      </trkpt>
      <trkpt lat="42.3410000" lon="-8.6063840">
        <ele>32.5</ele>
        <time>2021-05-21T08:26:11Z</time>
      </trkpt>
      <trkpt lat="42.3410010" lon="-8.6063850">
        <ele>32.5</ele>
        <time>2021-05-21T08:26:12Z</time>
      </trkpt>
      <trkpt lat="42.3410020" lon="-8.6063850">
        <ele>32.5</ele>
        <time>2021-05-21T08:26:13Z</time>
      </trkpt>
      <trkpt lat="42.3410030" lon="-8.6063860">
        <ele>32.5</ele>
        <time>2021-05-21T08:26:14Z</time>
      </trkpt>
      <trkpt lat="42.3410030" lon="-8.6063860">
        <ele>32.5</ele>
        <time>2021-05-21T08:26:15Z</time>
      </trkpt>
      <trkpt lat="42.3410040" lon="-8.6063860">
        <ele>32.5</ele>
        <time>2021-05-21T08:26:16Z</time>
      </trkpt>
      <trkpt lat="42.3410050" lon="-8.6063870">
        <ele>32.5</ele>
        <time>2021-05-21T08:26:17Z</time>
      </trkpt>
      <trkpt lat="42.3410050" lon="-8.6063870">
        <ele>32.5</ele>
        <time>2021-05-21T08:26:18Z</time>
      </trkpt>
      <trkpt lat="42.3410060" lon="-8.6063880">
        <ele>32.5</ele>
        <time>2021-05-21T08:26:19Z</time>
      </trkpt>
      <trkpt lat="42.3410070" lon="-8.6063880">
        <ele>32.5</ele>
        <time>2021-05-21T08:26:20Z</time>
      </trkpt>
      <trkpt lat="42.3410080" lon="-8.6063890">
        <ele>32.5</ele>
        <time>2021-05-21T08:26:21Z</time>
      </trkpt>
      <trkpt lat="42.3410080" lon="-8.6063890">
        <ele>32.5</ele>
        <time>2021-05-21T08:26:22Z</time>
      </trkpt>
      <trkpt lat="42.3410090" lon="-8.6063900">
        <ele>32.5</ele>
        <time>2021-05-21T08:26:23Z</time>
      </trkpt>
      <trkpt lat="42.3410100" lon="-8.6063900">
        <ele>32.5</ele>
        <time>2021-05-21T08:26:24Z</time>
      </trkpt>
      <trkpt lat="42.3410100" lon="-8.6063910">
        <ele>32.5</ele>
        <time>2021-05-21T08:26:25Z</time>
      </trkpt>
      <trkpt lat="42.3410110" lon="-8.6063910">
        <ele>32.5</ele>
        <time>2021-05-21T08:26:26Z</time>
      </trkpt>
      <trkpt lat="42.3410120" lon="-8.6063920">
        <ele>32.5</ele>
        <time>2021-05-21T08:26:27Z</time>
      </trkpt>
      <trkpt lat="42.3410120" lon="-8.6063920">
        <ele>32.5</ele>
        <time>2021-05-21T08:26:28Z</time>
      </trkpt>
      <trkpt lat="42.3410130" lon="-8.6063930">
        <ele>32.5</ele>
        <time>2021-05-21T08:26:29Z</time>
      </trkpt>
      <trkpt lat="42.3410140" lon="-8.6063930">
        <ele>32.5</ele>
        <time>2021-05-21T08:26:30Z</time>
      </trkpt>
      <trkpt lat="42.3410150" lon="-8.6063940">
        <ele>32.5</ele>
        <time>2021-05-21T08:26:31Z</time>
      </trkpt>
      <trkpt lat="42.3410150" lon="-8.6063940">
        <ele>32.5</ele>
        <time>2021-05-21T08:26:32Z</time>
      </trkpt>
      <trkpt lat="42.3410160" lon="-8.6063940">
        <ele>32.5</ele>
        <time>2021-05-21T08:26:33Z</time>
      </trkpt>
      <trkpt lat="42.3410170" lon="-8.6063950">
        <ele>32.4</ele>
        <time>2021-05-21T08:26:34Z</time>
      </trkpt>
      <trkpt lat="42.3410170" lon="-8.6063950">
        <ele>32.4</ele>
        <time>2021-05-21T08:26:35Z</time>
      </trkpt>
      <trkpt lat="42.3410180" lon="-8.6063960">
        <ele>32.4</ele>
        <time>2021-05-21T08:26:36Z</time>
      </trkpt>
      <trkpt lat="42.3410190" lon="-8.6063960">
        <ele>32.4</ele>
        <time>2021-05-21T08:26:37Z</time>
      </trkpt>
      <trkpt lat="42.3410200" lon="-8.6063970">
        <ele>32.4</ele>
        <time>2021-05-21T08:26:38Z</time>
      </trkpt>
      <trkpt lat="42.3410200" lon="-8.6063970">
        <ele>32.4</ele>
        <time>2021-05-21T08:26:39Z</time>
      </trkpt>
      <trkpt lat="42.3410210" lon="-8.6063980">
        <ele>32.4</ele>
        <time>2021-05-21T08:26:40Z</time>
      </trkpt>
      <trkpt lat="42.3410220" lon="-8.6063980">
        <ele>32.4</ele>
        <time>2021-05-21T08:26:41Z</time>
      </trkpt>
      <trkpt lat="42.3410220" lon="-8.6063990">
        <ele>32.4</ele>
        <time>2021-05-21T08:26:42Z</time>
      </trkpt>
      <trkpt lat="42.3410230" lon="-8.6063990">
        <ele>32.4</ele>
        <time>2021-05-21T08:26:43Z</time>
      </trkpt>
      <trkpt lat="42.3410240" lon="-8.6064000">
        <ele>32.4</ele>
        <time>2021-05-21T08:26:44Z</time>
      </trkpt>
      <trkpt lat="42.3410250" lon="-8.6064000">
        <ele>32.4</ele>
        <time>2021-05-21T08:26:45Z</time>
      </trkpt>
      <trkpt lat="42.3410250" lon="-8.6064010">
        <ele>32.4</ele>
        <time>2021-05-21T08:26:46Z</time>
      </trkpt>
      <trkpt lat="42.3410260" lon="-8.6064010">
        <ele>32.4</ele>
        <time>2021-05-21T08:26:47Z</time>
      </trkpt>
      <trkpt lat="42.3410310" lon="-8.6064080">
        <ele>32.4</ele>
        <time>2021-05-21T08:26:48Z</time>
      </trkpt>
      <trkpt lat="42.3410470" lon="-8.6064110">
        <ele>32.4</ele>
        <time>2021-05-21T08:26:49Z</time>
      </trkpt>
      <trkpt lat="42.3410620" lon="-8.6064150">
        <ele>32.4</ele>
        <time>2021-05-21T08:26:50Z</time>
      </trkpt>
      <trkpt lat="42.3410640" lon="-8.6064120">
        <ele>32.4</ele>
        <time>2021-05-21T08:26:51Z</time>
      </trkpt>
      <trkpt lat="42.3410380" lon="-8.6063800">
        <ele>32.3</ele>
        <time>2021-05-21T08:26:52Z</time>
      </trkpt>
      <trkpt lat="42.3410360" lon="-8.6063420">
        <ele>32.3</ele>
        <time>2021-05-21T08:26:53Z</time>
      </trkpt>
      <trkpt lat="42.3410280" lon="-8.6063280">
        <ele>32.3</ele>
        <time>2021-05-21T08:26:54Z</time>
      </trkpt>
      <trkpt lat="42.3410410" lon="-8.6063360">
        <ele>32.2</ele>
        <time>2021-05-21T08:26:55Z</time>
      </trkpt>
      <trkpt lat="42.3410460" lon="-8.6063340">
        <ele>32.2</ele>
        <time>2021-05-21T08:26:56Z</time>
      </trkpt>
      <trkpt lat="42.3410520" lon="-8.6063310">
        <ele>32.2</ele>
        <time>2021-05-21T08:26:57Z</time>
      </trkpt>
      <trkpt lat="42.3410560" lon="-8.6063280">
        <ele>32.2</ele>
        <time>2021-05-21T08:26:58Z</time>
      </trkpt>
      <trkpt lat="42.3410610" lon="-8.6063310">
        <ele>32.2</ele>
        <time>2021-05-21T08:26:59Z</time>
      </trkpt>
      <trkpt lat="42.3410590" lon="-8.6063260">
        <ele>32.2</ele>
        <time>2021-05-21T08:27:00Z</time>
      </trkpt>
      <trkpt lat="42.3410550" lon="-8.6063210">
        <ele>32.2</ele>
        <time>2021-05-21T08:27:01Z</time>
      </trkpt>
      <trkpt lat="42.3410550" lon="-8.6063200">
        <ele>32.2</ele>
        <time>2021-05-21T08:27:02Z</time>
      </trkpt>
      <trkpt lat="42.3410470" lon="-8.6063170">
        <ele>32.2</ele>
        <time>2021-05-21T08:27:03Z</time>
      </trkpt>
      <trkpt lat="42.3410500" lon="-8.6063180">
        <ele>32.2</ele>
        <time>2021-05-21T08:27:04Z</time>
      </trkpt>
      <trkpt lat="42.3410570" lon="-8.6063270">
        <ele>32.2</ele>
        <time>2021-05-21T08:27:05Z</time>
      </trkpt>
      <trkpt lat="42.3410550" lon="-8.6063240">
        <ele>32.2</ele>
        <time>2021-05-21T08:27:06Z</time>
      </trkpt>
      <trkpt lat="42.3410430" lon="-8.6063040">
        <ele>32.1</ele>
        <time>2021-05-21T08:27:07Z</time>
      </trkpt>
      <trkpt lat="42.3410460" lon="-8.6062940">
        <ele>32.1</ele>
        <time>2021-05-21T08:27:08Z</time>
      </trkpt>
      <trkpt lat="42.3410450" lon="-8.6062900">
        <ele>32.1</ele>
        <time>2021-05-21T08:27:09Z</time>
      </trkpt>
      <trkpt lat="42.3410550" lon="-8.6062700">
        <ele>32.1</ele>
        <time>2021-05-21T08:27:10Z</time>
      </trkpt>
      <trkpt lat="42.3410530" lon="-8.6062680">
        <ele>32.1</ele>
        <time>2021-05-21T08:27:11Z</time>
      </trkpt>
      <trkpt lat="42.3410520" lon="-8.6062740">
        <ele>32.1</ele>
        <time>2021-05-21T08:27:12Z</time>
      </trkpt>
      <trkpt lat="42.3410510" lon="-8.6062720">
        <ele>32.1</ele>
        <time>2021-05-21T08:27:13Z</time>
      </trkpt>
      <trkpt lat="42.3410480" lon="-8.6062710">
        <ele>32.1</ele>
        <time>2021-05-21T08:27:14Z</time>
      </trkpt>
      <trkpt lat="42.3410390" lon="-8.6062660">
        <ele>32.1</ele>
        <time>2021-05-21T08:27:15Z</time>
      </trkpt>
      <trkpt lat="42.3410350" lon="-8.6062660">
        <ele>32.1</ele>
        <time>2021-05-21T08:27:16Z</time>
      </trkpt>
      <trkpt lat="42.3410410" lon="-8.6062750">
        <ele>32.1</ele>
        <time>2021-05-21T08:27:17Z</time>
      </trkpt>
      <trkpt lat="42.3410500" lon="-8.6062870">
        <ele>32.0</ele>
        <time>2021-05-21T08:27:18Z</time>
      </trkpt>
      <trkpt lat="42.3410490" lon="-8.6062940">
        <ele>32.0</ele>
        <time>2021-05-21T08:27:19Z</time>
      </trkpt>
      <trkpt lat="42.3410520" lon="-8.6062930">
        <ele>32.0</ele>
        <time>2021-05-21T08:27:20Z</time>
      </trkpt>
      <trkpt lat="42.3410480" lon="-8.6062860">
        <ele>32.0</ele>
        <time>2021-05-21T08:27:21Z</time>
      </trkpt>
      <trkpt lat="42.3410500" lon="-8.6062850">
        <ele>32.0</ele>
        <time>2021-05-21T08:27:22Z</time>
      </trkpt>
      <trkpt lat="42.3410540" lon="-8.6062780">
        <ele>32.0</ele>
        <time>2021-05-21T08:27:23Z</time>
      </trkpt>
      <trkpt lat="42.3410520" lon="-8.6062770">
        <ele>32.0</ele>
        <time>2021-05-21T08:27:24Z</time>
      </trkpt>
      <trkpt lat="42.3410510" lon="-8.6062700">
        <ele>32.0</ele>
        <time>2021-05-21T08:27:25Z</time>
      </trkpt>
      <trkpt lat="42.3410550" lon="-8.6062770">
        <ele>32.0</ele>
        <time>2021-05-21T08:27:26Z</time>
      </trkpt>
      <trkpt lat="42.3410600" lon="-8.6062710">
        <ele>32.0</ele>
        <time>2021-05-21T08:27:27Z</time>
      </trkpt>
      <trkpt lat="42.3410570" lon="-8.6062650">
        <ele>32.0</ele>
        <time>2021-05-21T08:27:28Z</time>
      </trkpt>
      <trkpt lat="42.3410570" lon="-8.6062600">
        <ele>32.0</ele>
        <time>2021-05-21T08:27:29Z</time>
      </trkpt>
      <trkpt lat="42.3410630" lon="-8.6062630">
        <ele>32.0</ele>
        <time>2021-05-21T08:27:30Z</time>
      </trkpt>
      <trkpt lat="42.3410650" lon="-8.6062670">
        <ele>32.0</ele>
        <time>2021-05-21T08:27:31Z</time>
      </trkpt>
      <trkpt lat="42.3410660" lon="-8.6062700">
        <ele>31.9</ele>
        <time>2021-05-21T08:27:32Z</time>
      </trkpt>
      <trkpt lat="42.3410670" lon="-8.6062730">
        <ele>31.9</ele>
        <time>2021-05-21T08:27:33Z</time>
      </trkpt>
      <trkpt lat="42.3410690" lon="-8.6062770">
        <ele>31.9</ele>
        <time>2021-05-21T08:27:34Z</time>
      </trkpt>
      <trkpt lat="42.3410700" lon="-8.6062800">
        <ele>31.9</ele>
        <time>2021-05-21T08:27:35Z</time>
      </trkpt>
      <trkpt lat="42.3410710" lon="-8.6062830">
        <ele>31.9</ele>
        <time>2021-05-21T08:27:36Z</time>
      </trkpt>
      <trkpt lat="42.3410730" lon="-8.6062870">
        <ele>31.9</ele>
        <time>2021-05-21T08:27:37Z</time>
      </trkpt>
      <trkpt lat="42.3410740" lon="-8.6062900">
        <ele>31.9</ele>
        <time>2021-05-21T08:27:38Z</time>
      </trkpt>
      <trkpt lat="42.3410750" lon="-8.6062930">
        <ele>31.9</ele>
        <time>2021-05-21T08:27:39Z</time>
      </trkpt>
      <trkpt lat="42.3410770" lon="-8.6062970">
        <ele>31.9</ele>
        <time>2021-05-21T08:27:40Z</time>
      </trkpt>
      <trkpt lat="42.3410780" lon="-8.6063000">
        <ele>31.9</ele>
        <time>2021-05-21T08:27:41Z</time>
      </trkpt>
      <trkpt lat="42.3410790" lon="-8.6063010">
        <ele>31.9</ele>
        <time>2021-05-21T08:27:42Z</time>
      </trkpt>
      <trkpt lat="42.3410780" lon="-8.6063010">
        <ele>31.9</ele>
        <time>2021-05-21T08:27:43Z</time>
      </trkpt>
      <trkpt lat="42.3410780" lon="-8.6063020">
        <ele>31.9</ele>
        <time>2021-05-21T08:27:44Z</time>
      </trkpt>
      <trkpt lat="42.3410780" lon="-8.6063020">
        <ele>31.9</ele>
        <time>2021-05-21T08:27:45Z</time>
      </trkpt>
      <trkpt lat="42.3410770" lon="-8.6063020">
        <ele>31.9</ele>
        <time>2021-05-21T08:27:46Z</time>
      </trkpt>
      <trkpt lat="42.3410770" lon="-8.6063020">
        <ele>31.9</ele>
        <time>2021-05-21T08:27:47Z</time>
      </trkpt>
      <trkpt lat="42.3410770" lon="-8.6063030">
        <ele>31.9</ele>
        <time>2021-05-21T08:27:48Z</time>
      </trkpt>
      <trkpt lat="42.3410760" lon="-8.6063030">
        <ele>31.9</ele>
        <time>2021-05-21T08:27:49Z</time>
      </trkpt>
      <trkpt lat="42.3410760" lon="-8.6063030">
        <ele>31.9</ele>
        <time>2021-05-21T08:27:50Z</time>
      </trkpt>
      <trkpt lat="42.3410760" lon="-8.6063030">
        <ele>31.9</ele>
        <time>2021-05-21T08:27:51Z</time>
      </trkpt>
      <trkpt lat="42.3410750" lon="-8.6063040">
        <ele>31.9</ele>
        <time>2021-05-21T08:27:52Z</time>
      </trkpt>
      <trkpt lat="42.3410750" lon="-8.6063040">
        <ele>31.9</ele>
        <time>2021-05-21T08:27:53Z</time>
      </trkpt>
      <trkpt lat="42.3410750" lon="-8.6063040">
        <ele>31.9</ele>
        <time>2021-05-21T08:27:54Z</time>
      </trkpt>
      <trkpt lat="42.3410740" lon="-8.6063040">
        <ele>31.9</ele>
        <time>2021-05-21T08:27:55Z</time>
      </trkpt>
      <trkpt lat="42.3410740" lon="-8.6063050">
        <ele>31.9</ele>
        <time>2021-05-21T08:27:56Z</time>
      </trkpt>
      <trkpt lat="42.3410740" lon="-8.6063050">
        <ele>31.9</ele>
        <time>2021-05-21T08:27:57Z</time>
      </trkpt>
      <trkpt lat="42.3410730" lon="-8.6063050">
        <ele>31.9</ele>
        <time>2021-05-21T08:27:58Z</time>
      </trkpt>
      <trkpt lat="42.3410730" lon="-8.6063050">
        <ele>31.9</ele>
        <time>2021-05-21T08:27:59Z</time>
      </trkpt>
      <trkpt lat="42.3410730" lon="-8.6063060">
        <ele>31.9</ele>
        <time>2021-05-21T08:28:00Z</time>
      </trkpt>
      <trkpt lat="42.3410720" lon="-8.6063060">
        <ele>31.9</ele>
        <time>2021-05-21T08:28:01Z</time>
      </trkpt>
      <trkpt lat="42.3410720" lon="-8.6063060">
        <ele>31.9</ele>
        <time>2021-05-21T08:28:02Z</time>
      </trkpt>
      <trkpt lat="42.3410720" lon="-8.6063060">
        <ele>31.9</ele>
        <time>2021-05-21T08:28:03Z</time>
      </trkpt>
      <trkpt lat="42.3410720" lon="-8.6063070">
        <ele>31.9</ele>
        <time>2021-05-21T08:28:04Z</time>
      </trkpt>
      <trkpt lat="42.3410710" lon="-8.6063070">
        <ele>31.9</ele>
        <time>2021-05-21T08:28:05Z</time>
      </trkpt>
      <trkpt lat="42.3410710" lon="-8.6063070">
        <ele>31.9</ele>
        <time>2021-05-21T08:28:06Z</time>
      </trkpt>
      <trkpt lat="42.3410710" lon="-8.6063070">
        <ele>31.9</ele>
        <time>2021-05-21T08:28:07Z</time>
      </trkpt>
      <trkpt lat="42.3410700" lon="-8.6063080">
        <ele>31.9</ele>
        <time>2021-05-21T08:28:08Z</time>
      </trkpt>
      <trkpt lat="42.3410700" lon="-8.6063080">
        <ele>31.9</ele>
        <time>2021-05-21T08:28:09Z</time>
      </trkpt>
      <trkpt lat="42.3410700" lon="-8.6063080">
        <ele>31.9</ele>
        <time>2021-05-21T08:28:10Z</time>
      </trkpt>
      <trkpt lat="42.3410690" lon="-8.6063080">
        <ele>31.9</ele>
        <time>2021-05-21T08:28:11Z</time>
      </trkpt>
      <trkpt lat="42.3410690" lon="-8.6063090">
        <ele>31.9</ele>
        <time>2021-05-21T08:28:12Z</time>
      </trkpt>
      <trkpt lat="42.3410690" lon="-8.6063090">
        <ele>31.9</ele>
        <time>2021-05-21T08:28:13Z</time>
      </trkpt>
      <trkpt lat="42.3410680" lon="-8.6063090">
        <ele>31.9</ele>
        <time>2021-05-21T08:28:14Z</time>
      </trkpt>
      <trkpt lat="42.3410680" lon="-8.6063090">
        <ele>31.9</ele>
        <time>2021-05-21T08:28:15Z</time>
      </trkpt>
      <trkpt lat="42.3410680" lon="-8.6063090">
        <ele>31.9</ele>
        <time>2021-05-21T08:28:16Z</time>
      </trkpt>
      <trkpt lat="42.3410670" lon="-8.6063100">
        <ele>31.9</ele>
        <time>2021-05-21T08:28:17Z</time>
      </trkpt>
      <trkpt lat="42.3410670" lon="-8.6063100">
        <ele>31.9</ele>
        <time>2021-05-21T08:28:18Z</time>
      </trkpt>
      <trkpt lat="42.3410670" lon="-8.6063100">
        <ele>31.9</ele>
        <time>2021-05-21T08:28:19Z</time>
      </trkpt>
      <trkpt lat="42.3410660" lon="-8.6063100">
        <ele>31.9</ele>
        <time>2021-05-21T08:28:20Z</time>
      </trkpt>
      <trkpt lat="42.3410660" lon="-8.6063110">
        <ele>31.9</ele>
        <time>2021-05-21T08:28:21Z</time>
      </trkpt>
      <trkpt lat="42.3410660" lon="-8.6063110">
        <ele>31.9</ele>
        <time>2021-05-21T08:28:22Z</time>
      </trkpt>
      <trkpt lat="42.3410650" lon="-8.6063110">
        <ele>31.9</ele>
        <time>2021-05-21T08:28:23Z</time>
      </trkpt>
      <trkpt lat="42.3410650" lon="-8.6063110">
        <ele>31.9</ele>
        <time>2021-05-21T08:28:24Z</time>
      </trkpt>
      <trkpt lat="42.3410650" lon="-8.6063120">
        <ele>31.9</ele>
        <time>2021-05-21T08:28:25Z</time>
      </trkpt>
      <trkpt lat="42.3410640" lon="-8.6063120">
        <ele>31.9</ele>
        <time>2021-05-21T08:28:26Z</time>
      </trkpt>
      <trkpt lat="42.3410640" lon="-8.6063120">
        <ele>31.9</ele>
        <time>2021-05-21T08:28:27Z</time>
      </trkpt>
      <trkpt lat="42.3410640" lon="-8.6063120">
        <ele>31.9</ele>
        <time>2021-05-21T08:28:28Z</time>
      </trkpt>
      <trkpt lat="42.3410630" lon="-8.6063130">
        <ele>31.9</ele>
        <time>2021-05-21T08:28:29Z</time>
      </trkpt>
      <trkpt lat="42.3410630" lon="-8.6063130">
        <ele>31.9</ele>
        <time>2021-05-21T08:28:30Z</time>
      </trkpt>
      <trkpt lat="42.3410630" lon="-8.6063130">
        <ele>31.9</ele>
        <time>2021-05-21T08:28:31Z</time>
      </trkpt>
      <trkpt lat="42.3410620" lon="-8.6063130">
        <ele>31.9</ele>
        <time>2021-05-21T08:28:32Z</time>
      </trkpt>
      <trkpt lat="42.3410620" lon="-8.6063140">
        <ele>31.9</ele>
        <time>2021-05-21T08:28:33Z</time>
      </trkpt>
      <trkpt lat="42.3410620" lon="-8.6063140">
        <ele>31.9</ele>
        <time>2021-05-21T08:28:34Z</time>
      </trkpt>
      <trkpt lat="42.3410610" lon="-8.6063140">
        <ele>31.9</ele>
        <time>2021-05-21T08:28:35Z</time>
      </trkpt>
      <trkpt lat="42.3410610" lon="-8.6063140">
        <ele>31.9</ele>
        <time>2021-05-21T08:28:36Z</time>
      </trkpt>
      <trkpt lat="42.3410610" lon="-8.6063150">
        <ele>31.9</ele>
        <time>2021-05-21T08:28:37Z</time>
      </trkpt>
      <trkpt lat="42.3410600" lon="-8.6063150">
        <ele>31.9</ele>
        <time>2021-05-21T08:28:38Z</time>
      </trkpt>
      <trkpt lat="42.3410600" lon="-8.6063150">
        <ele>31.9</ele>
        <time>2021-05-21T08:28:39Z</time>
      </trkpt>
      <trkpt lat="42.3410600" lon="-8.6063150">
        <ele>31.9</ele>
        <time>2021-05-21T08:28:40Z</time>
      </trkpt>
      <trkpt lat="42.3410590" lon="-8.6063160">
        <ele>31.9</ele>
        <time>2021-05-21T08:28:41Z</time>
      </trkpt>
      <trkpt lat="42.3410590" lon="-8.6063160">
        <ele>31.9</ele>
        <time>2021-05-21T08:28:42Z</time>
      </trkpt>
      <trkpt lat="42.3410590" lon="-8.6063160">
        <ele>31.9</ele>
        <time>2021-05-21T08:28:43Z</time>
      </trkpt>
      <trkpt lat="42.3410580" lon="-8.6063160">
        <ele>31.9</ele>
        <time>2021-05-21T08:28:44Z</time>
      </trkpt>
      <trkpt lat="42.3410580" lon="-8.6063170">
        <ele>31.9</ele>
        <time>2021-05-21T08:28:45Z</time>
      </trkpt>
      <trkpt lat="42.3410580" lon="-8.6063170">
        <ele>31.9</ele>
        <time>2021-05-21T08:28:46Z</time>
      </trkpt>
      <trkpt lat="42.3410580" lon="-8.6063170">
        <ele>31.9</ele>
        <time>2021-05-21T08:28:47Z</time>
      </trkpt>
      <trkpt lat="42.3410570" lon="-8.6063170">
        <ele>31.9</ele>
        <time>2021-05-21T08:28:48Z</time>
      </trkpt>
      <trkpt lat="42.3410570" lon="-8.6063170">
        <ele>31.9</ele>
        <time>2021-05-21T08:28:49Z</time>
      </trkpt>
      <trkpt lat="42.3410570" lon="-8.6063180">
        <ele>31.9</ele>
        <time>2021-05-21T08:28:50Z</time>
      </trkpt>
      <trkpt lat="42.3410560" lon="-8.6063180">
        <ele>31.9</ele>
        <time>2021-05-21T08:28:51Z</time>
      </trkpt>
      <trkpt lat="42.3410560" lon="-8.6063180">
        <ele>31.9</ele>
        <time>2021-05-21T08:28:52Z</time>
      </trkpt>
      <trkpt lat="42.3410560" lon="-8.6063180">
        <ele>31.9</ele>
        <time>2021-05-21T08:28:53Z</time>
      </trkpt>
      <trkpt lat="42.3410550" lon="-8.6063190">
        <ele>31.9</ele>
        <time>2021-05-21T08:28:54Z</time>
      </trkpt>
      <trkpt lat="42.3410550" lon="-8.6063190">
        <ele>31.9</ele>
        <time>2021-05-21T08:28:55Z</time>
      </trkpt>
      <trkpt lat="42.3410550" lon="-8.6063190">
        <ele>31.9</ele>
        <time>2021-05-21T08:28:56Z</time>
      </trkpt>
      <trkpt lat="42.3410540" lon="-8.6063190">
        <ele>31.9</ele>
        <time>2021-05-21T08:28:57Z</time>
      </trkpt>
      <trkpt lat="42.3410540" lon="-8.6063200">
        <ele>31.9</ele>
        <time>2021-05-21T08:28:58Z</time>
      </trkpt>
      <trkpt lat="42.3410540" lon="-8.6063200">
        <ele>31.9</ele>
        <time>2021-05-21T08:28:59Z</time>
      </trkpt>
      <trkpt lat="42.3410530" lon="-8.6063200">
        <ele>31.9</ele>
        <time>2021-05-21T08:29:00Z</time>
      </trkpt>
      <trkpt lat="42.3410530" lon="-8.6063200">
        <ele>31.9</ele>
        <time>2021-05-21T08:29:01Z</time>
      </trkpt>
      <trkpt lat="42.3410530" lon="-8.6063210">
        <ele>31.9</ele>
        <time>2021-05-21T08:29:02Z</time>
      </trkpt>
      <trkpt lat="42.3410520" lon="-8.6063210">
        <ele>31.9</ele>
        <time>2021-05-21T08:29:03Z</time>
      </trkpt>
      <trkpt lat="42.3410520" lon="-8.6063210">
        <ele>31.9</ele>
        <time>2021-05-21T08:29:04Z</time>
      </trkpt>
      <trkpt lat="42.3410520" lon="-8.6063210">
        <ele>31.9</ele>
        <time>2021-05-21T08:29:05Z</time>
      </trkpt>
      <trkpt lat="42.3410510" lon="-8.6063220">
        <ele>31.9</ele>
        <time>2021-05-21T08:29:06Z</time>
      </trkpt>
      <trkpt lat="42.3410510" lon="-8.6063220">
        <ele>31.9</ele>
        <time>2021-05-21T08:29:07Z</time>
      </trkpt>
      <trkpt lat="42.3410510" lon="-8.6063220">
        <ele>31.9</ele>
        <time>2021-05-21T08:29:08Z</time>
      </trkpt>
      <trkpt lat="42.3410500" lon="-8.6063220">
        <ele>31.9</ele>
        <time>2021-05-21T08:29:09Z</time>
      </trkpt>
      <trkpt lat="42.3410500" lon="-8.6063230">
        <ele>31.9</ele>
        <time>2021-05-21T08:29:10Z</time>
      </trkpt>
      <trkpt lat="42.3410500" lon="-8.6063230">
        <ele>31.9</ele>
        <time>2021-05-21T08:29:11Z</time>
      </trkpt>
      <trkpt lat="42.3410490" lon="-8.6063230">
        <ele>31.9</ele>
        <time>2021-05-21T08:29:12Z</time>
      </trkpt>
      <trkpt lat="42.3410490" lon="-8.6063230">
        <ele>31.9</ele>
        <time>2021-05-21T08:29:13Z</time>
      </trkpt>
      <trkpt lat="42.3410490" lon="-8.6063240">
        <ele>31.8</ele>
        <time>2021-05-21T08:29:14Z</time>
      </trkpt>
      <trkpt lat="42.3410480" lon="-8.6063240">
        <ele>31.8</ele>
        <time>2021-05-21T08:29:15Z</time>
      </trkpt>
      <trkpt lat="42.3410480" lon="-8.6063240">
        <ele>31.8</ele>
        <time>2021-05-21T08:29:16Z</time>
      </trkpt>
      <trkpt lat="42.3410480" lon="-8.6063240">
        <ele>31.8</ele>
        <time>2021-05-21T08:29:17Z</time>
      </trkpt>
      <trkpt lat="42.3410470" lon="-8.6063250">
        <ele>31.8</ele>
        <time>2021-05-21T08:29:18Z</time>
      </trkpt>
      <trkpt lat="42.3410470" lon="-8.6063250">
        <ele>31.8</ele>
        <time>2021-05-21T08:29:19Z</time>
      </trkpt>
      <trkpt lat="42.3410470" lon="-8.6063250">
        <ele>31.8</ele>
        <time>2021-05-21T08:29:20Z</time>
      </trkpt>
      <trkpt lat="42.3410460" lon="-8.6063250">
        <ele>31.8</ele>
        <time>2021-05-21T08:29:21Z</time>
      </trkpt>
      <trkpt lat="42.3410460" lon="-8.6063260">
        <ele>31.8</ele>
        <time>2021-05-21T08:29:22Z</time>
      </trkpt>
      <trkpt lat="42.3410460" lon="-8.6063260">
        <ele>31.8</ele>
        <time>2021-05-21T08:29:23Z</time>
      </trkpt>
      <trkpt lat="42.3410450" lon="-8.6063260">
        <ele>31.8</ele>
        <time>2021-05-21T08:29:24Z</time>
      </trkpt>
      <trkpt lat="42.3410450" lon="-8.6063260">
        <ele>31.8</ele>
        <time>2021-05-21T08:29:25Z</time>
      </trkpt>
      <trkpt lat="42.3410450" lon="-8.6063260">
        <ele>31.8</ele>
        <time>2021-05-21T08:29:26Z</time>
      </trkpt>
      <trkpt lat="42.3410450" lon="-8.6063270">
        <ele>31.8</ele>
        <time>2021-05-21T08:29:27Z</time>
      </trkpt>
      <trkpt lat="42.3410440" lon="-8.6063270">
        <ele>31.8</ele>
        <time>2021-05-21T08:29:28Z</time>
      </trkpt>
      <trkpt lat="42.3410440" lon="-8.6063270">
        <ele>31.8</ele>
        <time>2021-05-21T08:29:29Z</time>
      </trkpt>
      <trkpt lat="42.3410440" lon="-8.6063270">
        <ele>31.8</ele>
        <time>2021-05-21T08:29:30Z</time>
      </trkpt>
      <trkpt lat="42.3410430" lon="-8.6063280">
        <ele>31.8</ele>
        <time>2021-05-21T08:29:31Z</time>
      </trkpt>
      <trkpt lat="42.3410430" lon="-8.6063280">
        <ele>31.8</ele>
        <time>2021-05-21T08:29:32Z</time>
      </trkpt>
      <trkpt lat="42.3410430" lon="-8.6063280">
        <ele>31.8</ele>
        <time>2021-05-21T08:29:33Z</time>
      </trkpt>
      <trkpt lat="42.3410420" lon="-8.6063280">
        <ele>31.8</ele>
        <time>2021-05-21T08:29:34Z</time>
      </trkpt>
      <trkpt lat="42.3410420" lon="-8.6063290">
        <ele>31.8</ele>
        <time>2021-05-21T08:29:35Z</time>
      </trkpt>
      <trkpt lat="42.3410420" lon="-8.6063290">
        <ele>31.8</ele>
        <time>2021-05-21T08:29:36Z</time>
      </trkpt>
      <trkpt lat="42.3410410" lon="-8.6063290">
        <ele>31.8</ele>
        <time>2021-05-21T08:29:37Z</time>
      </trkpt>
      <trkpt lat="42.3410410" lon="-8.6063290">
        <ele>31.8</ele>
        <time>2021-05-21T08:29:38Z</time>
      </trkpt>
      <trkpt lat="42.3410410" lon="-8.6063300">
        <ele>31.8</ele>
        <time>2021-05-21T08:29:39Z</time>
      </trkpt>
      <trkpt lat="42.3410400" lon="-8.6063300">
        <ele>31.8</ele>
        <time>2021-05-21T08:29:40Z</time>
      </trkpt>
      <trkpt lat="42.3410400" lon="-8.6063300">
        <ele>31.8</ele>
        <time>2021-05-21T08:29:41Z</time>
      </trkpt>
      <trkpt lat="42.3410400" lon="-8.6063300">
        <ele>31.8</ele>
        <time>2021-05-21T08:29:42Z</time>
      </trkpt>
      <trkpt lat="42.3410390" lon="-8.6063310">
        <ele>31.8</ele>
        <time>2021-05-21T08:29:43Z</time>
      </trkpt>
      <trkpt lat="42.3410390" lon="-8.6063310">
        <ele>31.8</ele>
        <time>2021-05-21T08:29:44Z</time>
      </trkpt>
      <trkpt lat="42.3410390" lon="-8.6063310">
        <ele>31.8</ele>
        <time>2021-05-21T08:29:45Z</time>
      </trkpt>
      <trkpt lat="42.3410380" lon="-8.6063310">
        <ele>31.8</ele>
        <time>2021-05-21T08:29:46Z</time>
      </trkpt>
      <trkpt lat="42.3410380" lon="-8.6063320">
        <ele>31.8</ele>
        <time>2021-05-21T08:29:47Z</time>
      </trkpt>
      <trkpt lat="42.3410380" lon="-8.6063320">
        <ele>31.8</ele>
        <time>2021-05-21T08:29:48Z</time>
      </trkpt>
      <trkpt lat="42.3410370" lon="-8.6063320">
        <ele>31.8</ele>
        <time>2021-05-21T08:29:49Z</time>
      </trkpt>
      <trkpt lat="42.3410370" lon="-8.6063320">
        <ele>31.8</ele>
        <time>2021-05-21T08:29:50Z</time>
      </trkpt>
      <trkpt lat="42.3410370" lon="-8.6063330">
        <ele>31.8</ele>
        <time>2021-05-21T08:29:51Z</time>
      </trkpt>
      <trkpt lat="42.3410360" lon="-8.6063330">
        <ele>31.8</ele>
        <time>2021-05-21T08:29:52Z</time>
      </trkpt>
      <trkpt lat="42.3410360" lon="-8.6063330">
        <ele>31.8</ele>
        <time>2021-05-21T08:29:53Z</time>
      </trkpt>
      <trkpt lat="42.3410360" lon="-8.6063330">
        <ele>31.8</ele>
        <time>2021-05-21T08:29:54Z</time>
      </trkpt>
      <trkpt lat="42.3410350" lon="-8.6063340">
        <ele>31.8</ele>
        <time>2021-05-21T08:29:55Z</time>
      </trkpt>
      <trkpt lat="42.3410350" lon="-8.6063340">
        <ele>31.8</ele>
        <time>2021-05-21T08:29:56Z</time>
      </trkpt>
      <trkpt lat="42.3410350" lon="-8.6063340">
        <ele>31.8</ele>
        <time>2021-05-21T08:29:57Z</time>
      </trkpt>
      <trkpt lat="42.3410340" lon="-8.6063340">
        <ele>31.8</ele>
        <time>2021-05-21T08:29:58Z</time>
      </trkpt>
      <trkpt lat="42.3410340" lon="-8.6063340">
        <ele>31.8</ele>
        <time>2021-05-21T08:29:59Z</time>
      </trkpt>
      <trkpt lat="42.3410340" lon="-8.6063350">
        <ele>31.8</ele>
        <time>2021-05-21T08:30:00Z</time>
      </trkpt>
      <trkpt lat="42.3410330" lon="-8.6063350">
        <ele>31.8</ele>
        <time>2021-05-21T08:30:01Z</time>
      </trkpt>
      <trkpt lat="42.3410330" lon="-8.6063350">
        <ele>31.8</ele>
        <time>2021-05-21T08:30:02Z</time>
      </trkpt>
      <trkpt lat="42.3410330" lon="-8.6063350">
        <ele>31.8</ele>
        <time>2021-05-21T08:30:03Z</time>
      </trkpt>
      <trkpt lat="42.3410320" lon="-8.6063360">
        <ele>31.8</ele>
        <time>2021-05-21T08:30:04Z</time>
      </trkpt>
      <trkpt lat="42.3410320" lon="-8.6063360">
        <ele>31.8</ele>
        <time>2021-05-21T08:30:05Z</time>
      </trkpt>
      <trkpt lat="42.3410320" lon="-8.6063360">
        <ele>31.8</ele>
        <time>2021-05-21T08:30:06Z</time>
      </trkpt>
      <trkpt lat="42.3410310" lon="-8.6063360">
        <ele>31.8</ele>
        <time>2021-05-21T08:30:07Z</time>
      </trkpt>
      <trkpt lat="42.3410310" lon="-8.6063370">
        <ele>31.8</ele>
        <time>2021-05-21T08:30:08Z</time>
      </trkpt>
      <trkpt lat="42.3410310" lon="-8.6063370">
        <ele>31.8</ele>
        <time>2021-05-21T08:30:09Z</time>
      </trkpt>
      <trkpt lat="42.3410310" lon="-8.6063370">
        <ele>31.8</ele>
        <time>2021-05-21T08:30:10Z</time>
      </trkpt>
      <trkpt lat="42.3410300" lon="-8.6063370">
        <ele>31.8</ele>
        <time>2021-05-21T08:30:11Z</time>
      </trkpt>
      <trkpt lat="42.3410300" lon="-8.6063380">
        <ele>31.8</ele>
        <time>2021-05-21T08:30:12Z</time>
      </trkpt>
      <trkpt lat="42.3410300" lon="-8.6063380">
        <ele>31.8</ele>
        <time>2021-05-21T08:30:13Z</time>
      </trkpt>
      <trkpt lat="42.3410290" lon="-8.6063380">
        <ele>31.8</ele>
        <time>2021-05-21T08:30:14Z</time>
      </trkpt>
      <trkpt lat="42.3410290" lon="-8.6063380">
        <ele>31.8</ele>
        <time>2021-05-21T08:30:15Z</time>
      </trkpt>
      <trkpt lat="42.3410290" lon="-8.6063390">
        <ele>31.8</ele>
        <time>2021-05-21T08:30:16Z</time>
      </trkpt>
      <trkpt lat="42.3410280" lon="-8.6063390">
        <ele>31.8</ele>
        <time>2021-05-21T08:30:17Z</time>
      </trkpt>
      <trkpt lat="42.3410280" lon="-8.6063390">
        <ele>31.8</ele>
        <time>2021-05-21T08:30:18Z</time>
      </trkpt>
      <trkpt lat="42.3410280" lon="-8.6063390">
        <ele>31.8</ele>
        <time>2021-05-21T08:30:19Z</time>
      </trkpt>
      <trkpt lat="42.3410270" lon="-8.6063400">
        <ele>31.8</ele>
        <time>2021-05-21T08:30:20Z</time>
      </trkpt>
      <trkpt lat="42.3410270" lon="-8.6063400">
        <ele>31.8</ele>
        <time>2021-05-21T08:30:21Z</time>
      </trkpt>
      <trkpt lat="42.3410270" lon="-8.6063400">
        <ele>31.8</ele>
        <time>2021-05-21T08:30:22Z</time>
      </trkpt>
      <trkpt lat="42.3410260" lon="-8.6063400">
        <ele>31.8</ele>
        <time>2021-05-21T08:30:23Z</time>
      </trkpt>
      <trkpt lat="42.3410260" lon="-8.6063410">
        <ele>31.8</ele>
        <time>2021-05-21T08:30:24Z</time>
      </trkpt>
      <trkpt lat="42.3410260" lon="-8.6063410">
        <ele>31.8</ele>
        <time>2021-05-21T08:30:25Z</time>
      </trkpt>
      <trkpt lat="42.3410250" lon="-8.6063410">
        <ele>31.8</ele>
        <time>2021-05-21T08:30:26Z</time>
      </trkpt>
      <trkpt lat="42.3410250" lon="-8.6063410">
        <ele>31.8</ele>
        <time>2021-05-21T08:30:27Z</time>
      </trkpt>
      <trkpt lat="42.3410250" lon="-8.6063420">
        <ele>31.8</ele>
        <time>2021-05-21T08:30:28Z</time>
      </trkpt>
      <trkpt lat="42.3410240" lon="-8.6063420">
        <ele>31.8</ele>
        <time>2021-05-21T08:30:29Z</time>
      </trkpt>
      <trkpt lat="42.3410240" lon="-8.6063420">
        <ele>31.8</ele>
        <time>2021-05-21T08:30:30Z</time>
      </trkpt>
      <trkpt lat="42.3410240" lon="-8.6063420">
        <ele>31.8</ele>
        <time>2021-05-21T08:30:31Z</time>
      </trkpt>
      <trkpt lat="42.3410240" lon="-8.6063420">
        <ele>31.8</ele>
        <time>2021-05-21T08:30:32Z</time>
      </trkpt>
      <trkpt lat="42.3410240" lon="-8.6063420">
        <ele>31.8</ele>
        <time>2021-05-21T08:30:33Z</time>
      </trkpt>
      <trkpt lat="42.3410240" lon="-8.6063420">
        <ele>31.8</ele>
        <time>2021-05-21T08:30:34Z</time>
      </trkpt>
      <trkpt lat="42.3410250" lon="-8.6063410">
        <ele>31.8</ele>
        <time>2021-05-21T08:30:35Z</time>
      </trkpt>
      <trkpt lat="42.3410250" lon="-8.6063410">
        <ele>31.8</ele>
        <time>2021-05-21T08:30:36Z</time>
      </trkpt>
      <trkpt lat="42.3410250" lon="-8.6063410">
        <ele>31.8</ele>
        <time>2021-05-21T08:30:37Z</time>
      </trkpt>
      <trkpt lat="42.3410250" lon="-8.6063410">
        <ele>31.8</ele>
        <time>2021-05-21T08:30:38Z</time>
      </trkpt>
      <trkpt lat="42.3410250" lon="-8.6063410">
        <ele>31.8</ele>
        <time>2021-05-21T08:30:39Z</time>
      </trkpt>
      <trkpt lat="42.3410250" lon="-8.6063410">
        <ele>31.8</ele>
        <time>2021-05-21T08:30:40Z</time>
      </trkpt>
      <trkpt lat="42.3410250" lon="-8.6063410">
        <ele>31.8</ele>
        <time>2021-05-21T08:30:41Z</time>
      </trkpt>
      <trkpt lat="42.3410250" lon="-8.6063410">
        <ele>31.8</ele>
        <time>2021-05-21T08:30:42Z</time>
      </trkpt>
      <trkpt lat="42.3410250" lon="-8.6063400">
        <ele>31.8</ele>
        <time>2021-05-21T08:30:43Z</time>
      </trkpt>
      <trkpt lat="42.3410260" lon="-8.6063400">
        <ele>31.8</ele>
        <time>2021-05-21T08:30:44Z</time>
      </trkpt>
      <trkpt lat="42.3410260" lon="-8.6063400">
        <ele>31.8</ele>
        <time>2021-05-21T08:30:45Z</time>
      </trkpt>
      <trkpt lat="42.3410260" lon="-8.6063400">
        <ele>31.8</ele>
        <time>2021-05-21T08:30:46Z</time>
      </trkpt>
      <trkpt lat="42.3410260" lon="-8.6063400">
        <ele>31.8</ele>
        <time>2021-05-21T08:30:47Z</time>
      </trkpt>
      <trkpt lat="42.3410260" lon="-8.6063400">
        <ele>31.8</ele>
        <time>2021-05-21T08:30:48Z</time>
      </trkpt>
      <trkpt lat="42.3410260" lon="-8.6063400">
        <ele>31.8</ele>
        <time>2021-05-21T08:30:49Z</time>
      </trkpt>
      <trkpt lat="42.3410260" lon="-8.6063400">
        <ele>31.8</ele>
        <time>2021-05-21T08:30:50Z</time>
      </trkpt>
      <trkpt lat="42.3410260" lon="-8.6063390">
        <ele>31.8</ele>
        <time>2021-05-21T08:30:51Z</time>
      </trkpt>
      <trkpt lat="42.3410260" lon="-8.6063390">
        <ele>31.8</ele>
        <time>2021-05-21T08:30:52Z</time>
      </trkpt>
      <trkpt lat="42.3410270" lon="-8.6063390">
        <ele>31.8</ele>
        <time>2021-05-21T08:30:53Z</time>
      </trkpt>
      <trkpt lat="42.3410270" lon="-8.6063390">
        <ele>31.8</ele>
        <time>2021-05-21T08:30:54Z</time>
      </trkpt>
      <trkpt lat="42.3410270" lon="-8.6063390">
        <ele>31.8</ele>
        <time>2021-05-21T08:30:55Z</time>
      </trkpt>
      <trkpt lat="42.3410270" lon="-8.6063390">
        <ele>31.8</ele>
        <time>2021-05-21T08:30:56Z</time>
      </trkpt>
      <trkpt lat="42.3410270" lon="-8.6063390">
        <ele>31.8</ele>
        <time>2021-05-21T08:30:57Z</time>
      </trkpt>
      <trkpt lat="42.3410270" lon="-8.6063390">
        <ele>31.8</ele>
        <time>2021-05-21T08:30:58Z</time>
      </trkpt>
      <trkpt lat="42.3410270" lon="-8.6063380">
        <ele>31.8</ele>
        <time>2021-05-21T08:30:59Z</time>
      </trkpt>
      <trkpt lat="42.3410270" lon="-8.6063380">
        <ele>31.8</ele>
        <time>2021-05-21T08:31:00Z</time>
      </trkpt>
      <trkpt lat="42.3410270" lon="-8.6063380">
        <ele>31.8</ele>
        <time>2021-05-21T08:31:01Z</time>
      </trkpt>
      <trkpt lat="42.3410280" lon="-8.6063380">
        <ele>31.8</ele>
        <time>2021-05-21T08:31:02Z</time>
      </trkpt>
      <trkpt lat="42.3410280" lon="-8.6063380">
        <ele>31.8</ele>
        <time>2021-05-21T08:31:03Z</time>
      </trkpt>
      <trkpt lat="42.3410280" lon="-8.6063380">
        <ele>31.8</ele>
        <time>2021-05-21T08:31:04Z</time>
      </trkpt>
      <trkpt lat="42.3410280" lon="-8.6063380">
        <ele>31.8</ele>
        <time>2021-05-21T08:31:05Z</time>
      </trkpt>
      <trkpt lat="42.3410280" lon="-8.6063380">
        <ele>31.8</ele>
        <time>2021-05-21T08:31:06Z</time>
      </trkpt>
      <trkpt lat="42.3410280" lon="-8.6063380">
        <ele>31.8</ele>
        <time>2021-05-21T08:31:07Z</time>
      </trkpt>
      <trkpt lat="42.3410280" lon="-8.6063370">
        <ele>31.8</ele>
        <time>2021-05-21T08:31:08Z</time>
      </trkpt>
      <trkpt lat="42.3410280" lon="-8.6063370">
        <ele>31.8</ele>
        <time>2021-05-21T08:31:09Z</time>
      </trkpt>
      <trkpt lat="42.3410280" lon="-8.6063370">
        <ele>31.8</ele>
        <time>2021-05-21T08:31:10Z</time>
      </trkpt>
      <trkpt lat="42.3410280" lon="-8.6063370">
        <ele>31.8</ele>
        <time>2021-05-21T08:31:11Z</time>
      </trkpt>
      <trkpt lat="42.3410290" lon="-8.6063370">
        <ele>31.8</ele>
        <time>2021-05-21T08:31:12Z</time>
      </trkpt>
      <trkpt lat="42.3410290" lon="-8.6063370">
        <ele>31.8</ele>
        <time>2021-05-21T08:31:13Z</time>
      </trkpt>
      <trkpt lat="42.3410290" lon="-8.6063370">
        <ele>31.8</ele>
        <time>2021-05-21T08:31:14Z</time>
      </trkpt>
      <trkpt lat="42.3410290" lon="-8.6063370">
        <ele>31.8</ele>
        <time>2021-05-21T08:31:15Z</time>
      </trkpt>
      <trkpt lat="42.3410290" lon="-8.6063360">
        <ele>31.8</ele>
        <time>2021-05-21T08:31:16Z</time>
      </trkpt>
      <trkpt lat="42.3410290" lon="-8.6063360">
        <ele>31.8</ele>
        <time>2021-05-21T08:31:17Z</time>
      </trkpt>
      <trkpt lat="42.3410290" lon="-8.6063360">
        <ele>31.8</ele>
        <time>2021-05-21T08:31:18Z</time>
      </trkpt>
      <trkpt lat="42.3410290" lon="-8.6063360">
        <ele>31.8</ele>
        <time>2021-05-21T08:31:19Z</time>
      </trkpt>
      <trkpt lat="42.3410290" lon="-8.6063360">
        <ele>31.8</ele>
        <time>2021-05-21T08:31:20Z</time>
      </trkpt>
      <trkpt lat="42.3410300" lon="-8.6063360">
        <ele>31.8</ele>
        <time>2021-05-21T08:31:22Z</time>
      </trkpt>
      <trkpt lat="42.3410300" lon="-8.6063360">
        <ele>31.8</ele>
        <time>2021-05-21T08:31:23Z</time>
      </trkpt>
      <trkpt lat="42.3410300" lon="-8.6063360">
        <ele>31.8</ele>
        <time>2021-05-21T08:31:24Z</time>
      </trkpt>
      <trkpt lat="42.3410300" lon="-8.6063350">
        <ele>31.8</ele>
        <time>2021-05-21T08:31:25Z</time>
      </trkpt>
      <trkpt lat="42.3410300" lon="-8.6063350">
        <ele>31.8</ele>
        <time>2021-05-21T08:31:26Z</time>
      </trkpt>
      <trkpt lat="42.3410300" lon="-8.6063350">
        <ele>31.8</ele>
        <time>2021-05-21T08:31:27Z</time>
      </trkpt>
      <trkpt lat="42.3410300" lon="-8.6063350">
        <ele>31.8</ele>
        <time>2021-05-21T08:31:28Z</time>
      </trkpt>
      <trkpt lat="42.3410300" lon="-8.6063350">
        <ele>31.8</ele>
        <time>2021-05-21T08:31:29Z</time>
      </trkpt>
      <trkpt lat="42.3410300" lon="-8.6063350">
        <ele>31.8</ele>
        <time>2021-05-21T08:31:30Z</time>
      </trkpt>
      <trkpt lat="42.3410310" lon="-8.6063350">
        <ele>31.8</ele>
        <time>2021-05-21T08:31:31Z</time>
      </trkpt>
      <trkpt lat="42.3410310" lon="-8.6063350">
        <ele>31.8</ele>
        <time>2021-05-21T08:31:32Z</time>
      </trkpt>
      <trkpt lat="42.3410310" lon="-8.6063340">
        <ele>31.8</ele>
        <time>2021-05-21T08:31:33Z</time>
      </trkpt>
      <trkpt lat="42.3410310" lon="-8.6063340">
        <ele>31.8</ele>
        <time>2021-05-21T08:31:34Z</time>
      </trkpt>
      <trkpt lat="42.3410310" lon="-8.6063340">
        <ele>31.8</ele>
        <time>2021-05-21T08:31:35Z</time>
      </trkpt>
      <trkpt lat="42.3410310" lon="-8.6063340">
        <ele>31.8</ele>
        <time>2021-05-21T08:31:36Z</time>
      </trkpt>
      <trkpt lat="42.3410310" lon="-8.6063340">
        <ele>31.8</ele>
        <time>2021-05-21T08:31:37Z</time>
      </trkpt>
      <trkpt lat="42.3410310" lon="-8.6063340">
        <ele>31.8</ele>
        <time>2021-05-21T08:31:38Z</time>
      </trkpt>
      <trkpt lat="42.3410310" lon="-8.6063340">
        <ele>31.8</ele>
        <time>2021-05-21T08:31:39Z</time>
      </trkpt>
      <trkpt lat="42.3410320" lon="-8.6063340">
        <ele>31.8</ele>
        <time>2021-05-21T08:31:40Z</time>
      </trkpt>
      <trkpt lat="42.3410320" lon="-8.6063340">
        <ele>31.8</ele>
        <time>2021-05-21T08:31:41Z</time>
      </trkpt>
      <trkpt lat="42.3410320" lon="-8.6063330">
        <ele>31.8</ele>
        <time>2021-05-21T08:31:42Z</time>
      </trkpt>
      <trkpt lat="42.3410320" lon="-8.6063330">
        <ele>31.8</ele>
        <time>2021-05-21T08:31:43Z</time>
      </trkpt>
      <trkpt lat="42.3410320" lon="-8.6063330">
        <ele>31.8</ele>
        <time>2021-05-21T08:31:44Z</time>
      </trkpt>
      <trkpt lat="42.3410320" lon="-8.6063330">
        <ele>31.8</ele>
        <time>2021-05-21T08:31:45Z</time>
      </trkpt>
      <trkpt lat="42.3410320" lon="-8.6063330">
        <ele>31.8</ele>
        <time>2021-05-21T08:31:46Z</time>
      </trkpt>
      <trkpt lat="42.3410320" lon="-8.6063330">
        <ele>31.8</ele>
        <time>2021-05-21T08:31:47Z</time>
      </trkpt>
      <trkpt lat="42.3410320" lon="-8.6063330">
        <ele>31.8</ele>
        <time>2021-05-21T08:31:48Z</time>
      </trkpt>
      <trkpt lat="42.3410330" lon="-8.6063330">
        <ele>31.8</ele>
        <time>2021-05-21T08:31:49Z</time>
      </trkpt>
      <trkpt lat="42.3410330" lon="-8.6063320">
        <ele>31.8</ele>
        <time>2021-05-21T08:31:50Z</time>
      </trkpt>
      <trkpt lat="42.3410330" lon="-8.6063320">
        <ele>31.8</ele>
        <time>2021-05-21T08:31:51Z</time>
      </trkpt>
      <trkpt lat="42.3410330" lon="-8.6063320">
        <ele>31.8</ele>
        <time>2021-05-21T08:31:52Z</time>
      </trkpt>
      <trkpt lat="42.3410330" lon="-8.6063320">
        <ele>31.8</ele>
        <time>2021-05-21T08:31:53Z</time>
      </trkpt>
      <trkpt lat="42.3410330" lon="-8.6063320">
        <ele>31.8</ele>
        <time>2021-05-21T08:31:54Z</time>
      </trkpt>
      <trkpt lat="42.3410330" lon="-8.6063320">
        <ele>31.8</ele>
        <time>2021-05-21T08:31:55Z</time>
      </trkpt>
      <trkpt lat="42.3410330" lon="-8.6063320">
        <ele>31.8</ele>
        <time>2021-05-21T08:31:56Z</time>
      </trkpt>
      <trkpt lat="42.3410330" lon="-8.6063320">
        <ele>31.8</ele>
        <time>2021-05-21T08:31:57Z</time>
      </trkpt>
      <trkpt lat="42.3410340" lon="-8.6063310">
        <ele>31.8</ele>
        <time>2021-05-21T08:31:58Z</time>
      </trkpt>
      <trkpt lat="42.3410340" lon="-8.6063310">
        <ele>31.8</ele>
        <time>2021-05-21T08:31:59Z</time>
      </trkpt>
      <trkpt lat="42.3410340" lon="-8.6063310">
        <ele>31.8</ele>
        <time>2021-05-21T08:32:00Z</time>
      </trkpt>
      <trkpt lat="42.3410340" lon="-8.6063310">
        <ele>31.8</ele>
        <time>2021-05-21T08:32:01Z</time>
      </trkpt>
      <trkpt lat="42.3410340" lon="-8.6063310">
        <ele>31.8</ele>
        <time>2021-05-21T08:32:02Z</time>
      </trkpt>
      <trkpt lat="42.3410340" lon="-8.6063310">
        <ele>31.8</ele>
        <time>2021-05-21T08:32:03Z</time>
      </trkpt>
      <trkpt lat="42.3410340" lon="-8.6063310">
        <ele>31.8</ele>
        <time>2021-05-21T08:32:04Z</time>
      </trkpt>
      <trkpt lat="42.3410340" lon="-8.6063310">
        <ele>31.8</ele>
        <time>2021-05-21T08:32:05Z</time>
      </trkpt>
      <trkpt lat="42.3410340" lon="-8.6063300">
        <ele>31.8</ele>
        <time>2021-05-21T08:32:06Z</time>
      </trkpt>
      <trkpt lat="42.3410350" lon="-8.6063300">
        <ele>31.8</ele>
        <time>2021-05-21T08:32:07Z</time>
      </trkpt>
      <trkpt lat="42.3410350" lon="-8.6063300">
        <ele>31.8</ele>
        <time>2021-05-21T08:32:08Z</time>
      </trkpt>
      <trkpt lat="42.3410350" lon="-8.6063300">
        <ele>31.8</ele>
        <time>2021-05-21T08:32:09Z</time>
      </trkpt>
      <trkpt lat="42.3410350" lon="-8.6063300">
        <ele>31.8</ele>
        <time>2021-05-21T08:32:10Z</time>
      </trkpt>
      <trkpt lat="42.3410350" lon="-8.6063300">
        <ele>31.8</ele>
        <time>2021-05-21T08:32:11Z</time>
      </trkpt>
      <trkpt lat="42.3410350" lon="-8.6063300">
        <ele>31.8</ele>
        <time>2021-05-21T08:32:12Z</time>
      </trkpt>
      <trkpt lat="42.3410350" lon="-8.6063300">
        <ele>31.8</ele>
        <time>2021-05-21T08:32:13Z</time>
      </trkpt>
      <trkpt lat="42.3410350" lon="-8.6063300">
        <ele>31.8</ele>
        <time>2021-05-21T08:32:14Z</time>
      </trkpt>
      <trkpt lat="42.3410350" lon="-8.6063290">
        <ele>31.8</ele>
        <time>2021-05-21T08:32:15Z</time>
      </trkpt>
      <trkpt lat="42.3410350" lon="-8.6063290">
        <ele>31.8</ele>
        <time>2021-05-21T08:32:16Z</time>
      </trkpt>
      <trkpt lat="42.3410360" lon="-8.6063290">
        <ele>31.8</ele>
        <time>2021-05-21T08:32:17Z</time>
      </trkpt>
      <trkpt lat="42.3410360" lon="-8.6063290">
        <ele>31.8</ele>
        <time>2021-05-21T08:32:18Z</time>
      </trkpt>
      <trkpt lat="42.3410360" lon="-8.6063290">
        <ele>31.8</ele>
        <time>2021-05-21T08:32:19Z</time>
      </trkpt>
      <trkpt lat="42.3410360" lon="-8.6063290">
        <ele>31.8</ele>
        <time>2021-05-21T08:32:20Z</time>
      </trkpt>
      <trkpt lat="42.3410360" lon="-8.6063290">
        <ele>31.8</ele>
        <time>2021-05-21T08:32:21Z</time>
      </trkpt>
      <trkpt lat="42.3410360" lon="-8.6063290">
        <ele>31.8</ele>
        <time>2021-05-21T08:32:22Z</time>
      </trkpt>
      <trkpt lat="42.3410360" lon="-8.6063280">
        <ele>31.8</ele>
        <time>2021-05-21T08:32:23Z</time>
      </trkpt>
      <trkpt lat="42.3410360" lon="-8.6063280">
        <ele>31.8</ele>
        <time>2021-05-21T08:32:24Z</time>
      </trkpt>
      <trkpt lat="42.3410360" lon="-8.6063280">
        <ele>31.8</ele>
        <time>2021-05-21T08:32:25Z</time>
      </trkpt>
      <trkpt lat="42.3410370" lon="-8.6063280">
        <ele>31.8</ele>
        <time>2021-05-21T08:32:26Z</time>
      </trkpt>
      <trkpt lat="42.3410370" lon="-8.6063280">
        <ele>31.8</ele>
        <time>2021-05-21T08:32:27Z</time>
      </trkpt>
      <trkpt lat="42.3410370" lon="-8.6063280">
        <ele>31.8</ele>
        <time>2021-05-21T08:32:28Z</time>
      </trkpt>
      <trkpt lat="42.3410370" lon="-8.6063280">
        <ele>31.8</ele>
        <time>2021-05-21T08:32:29Z</time>
      </trkpt>
      <trkpt lat="42.3410370" lon="-8.6063280">
        <ele>31.8</ele>
        <time>2021-05-21T08:32:30Z</time>
      </trkpt>
      <trkpt lat="42.3410370" lon="-8.6063270">
        <ele>31.8</ele>
        <time>2021-05-21T08:32:31Z</time>
      </trkpt>
      <trkpt lat="42.3410370" lon="-8.6063270">
        <ele>31.8</ele>
        <time>2021-05-21T08:32:32Z</time>
      </trkpt>
      <trkpt lat="42.3410370" lon="-8.6063270">
        <ele>31.8</ele>
        <time>2021-05-21T08:32:33Z</time>
      </trkpt>
      <trkpt lat="42.3410370" lon="-8.6063270">
        <ele>31.8</ele>
        <time>2021-05-21T08:32:34Z</time>
      </trkpt>
      <trkpt lat="42.3410380" lon="-8.6063270">
        <ele>31.8</ele>
        <time>2021-05-21T08:32:35Z</time>
      </trkpt>
      <trkpt lat="42.3410380" lon="-8.6063270">
        <ele>31.8</ele>
        <time>2021-05-21T08:32:36Z</time>
      </trkpt>
      <trkpt lat="42.3410380" lon="-8.6063270">
        <ele>31.8</ele>
        <time>2021-05-21T08:32:37Z</time>
      </trkpt>
      <trkpt lat="42.3410380" lon="-8.6063270">
        <ele>31.8</ele>
        <time>2021-05-21T08:32:38Z</time>
      </trkpt>
      <trkpt lat="42.3410380" lon="-8.6063260">
        <ele>31.8</ele>
        <time>2021-05-21T08:32:39Z</time>
      </trkpt>
      <trkpt lat="42.3410380" lon="-8.6063260">
        <ele>31.8</ele>
        <time>2021-05-21T08:32:40Z</time>
      </trkpt>
      <trkpt lat="42.3410380" lon="-8.6063260">
        <ele>31.8</ele>
        <time>2021-05-21T08:32:41Z</time>
      </trkpt>
      <trkpt lat="42.3410380" lon="-8.6063260">
        <ele>31.8</ele>
        <time>2021-05-21T08:32:42Z</time>
      </trkpt>
      <trkpt lat="42.3410380" lon="-8.6063260">
        <ele>31.8</ele>
        <time>2021-05-21T08:32:43Z</time>
      </trkpt>
      <trkpt lat="42.3410390" lon="-8.6063260">
        <ele>31.8</ele>
        <time>2021-05-21T08:32:44Z</time>
      </trkpt>
      <trkpt lat="42.3410390" lon="-8.6063260">
        <ele>31.8</ele>
        <time>2021-05-21T08:32:45Z</time>
      </trkpt>
      <trkpt lat="42.3410390" lon="-8.6063260">
        <ele>31.8</ele>
        <time>2021-05-21T08:32:46Z</time>
      </trkpt>
      <trkpt lat="42.3410390" lon="-8.6063260">
        <ele>31.8</ele>
        <time>2021-05-21T08:32:47Z</time>
      </trkpt>
      <trkpt lat="42.3410390" lon="-8.6063250">
        <ele>31.8</ele>
        <time>2021-05-21T08:32:48Z</time>
      </trkpt>
      <trkpt lat="42.3410390" lon="-8.6063250">
        <ele>31.8</ele>
        <time>2021-05-21T08:32:49Z</time>
      </trkpt>
      <trkpt lat="42.3410390" lon="-8.6063250">
        <ele>31.8</ele>
        <time>2021-05-21T08:32:50Z</time>
      </trkpt>
      <trkpt lat="42.3410390" lon="-8.6063250">
        <ele>31.8</ele>
        <time>2021-05-21T08:32:51Z</time>
      </trkpt>
      <trkpt lat="42.3410390" lon="-8.6063250">
        <ele>31.8</ele>
        <time>2021-05-21T08:32:52Z</time>
      </trkpt>
      <trkpt lat="42.3410400" lon="-8.6063250">
        <ele>31.8</ele>
        <time>2021-05-21T08:32:53Z</time>
      </trkpt>
      <trkpt lat="42.3410400" lon="-8.6063250">
        <ele>31.8</ele>
        <time>2021-05-21T08:32:54Z</time>
      </trkpt>
      <trkpt lat="42.3410400" lon="-8.6063250">
        <ele>31.8</ele>
        <time>2021-05-21T08:32:55Z</time>
      </trkpt>
      <trkpt lat="42.3410400" lon="-8.6063240">
        <ele>31.8</ele>
        <time>2021-05-21T08:32:56Z</time>
      </trkpt>
      <trkpt lat="42.3410400" lon="-8.6063240">
        <ele>31.8</ele>
        <time>2021-05-21T08:32:57Z</time>
      </trkpt>
      <trkpt lat="42.3410400" lon="-8.6063240">
        <ele>31.8</ele>
        <time>2021-05-21T08:32:58Z</time>
      </trkpt>
      <trkpt lat="42.3410400" lon="-8.6063240">
        <ele>31.8</ele>
        <time>2021-05-21T08:32:59Z</time>
      </trkpt>
      <trkpt lat="42.3410400" lon="-8.6063240">
        <ele>31.8</ele>
        <time>2021-05-21T08:33:00Z</time>
      </trkpt>
      <trkpt lat="42.3410400" lon="-8.6063240">
        <ele>31.8</ele>
        <time>2021-05-21T08:33:01Z</time>
      </trkpt>
      <trkpt lat="42.3410410" lon="-8.6063240">
        <ele>31.8</ele>
        <time>2021-05-21T08:33:02Z</time>
      </trkpt>
      <trkpt lat="42.3410410" lon="-8.6063240">
        <ele>31.8</ele>
        <time>2021-05-21T08:33:03Z</time>
      </trkpt>
      <trkpt lat="42.3410410" lon="-8.6063230">
        <ele>31.8</ele>
        <time>2021-05-21T08:33:04Z</time>
      </trkpt>
      <trkpt lat="42.3410410" lon="-8.6063230">
        <ele>31.8</ele>
        <time>2021-05-21T08:33:05Z</time>
      </trkpt>
      <trkpt lat="42.3410410" lon="-8.6063230">
        <ele>31.8</ele>
        <time>2021-05-21T08:33:06Z</time>
      </trkpt>
      <trkpt lat="42.3410410" lon="-8.6063230">
        <ele>31.8</ele>
        <time>2021-05-21T08:33:07Z</time>
      </trkpt>
      <trkpt lat="42.3410410" lon="-8.6063230">
        <ele>31.8</ele>
        <time>2021-05-21T08:33:08Z</time>
      </trkpt>
      <trkpt lat="42.3410410" lon="-8.6063230">
        <ele>31.8</ele>
        <time>2021-05-21T08:33:09Z</time>
      </trkpt>
      <trkpt lat="42.3410410" lon="-8.6063230">
        <ele>31.8</ele>
        <time>2021-05-21T08:33:10Z</time>
      </trkpt>
      <trkpt lat="42.3410420" lon="-8.6063230">
        <ele>31.8</ele>
        <time>2021-05-21T08:33:11Z</time>
      </trkpt>
      <trkpt lat="42.3410420" lon="-8.6063220">
        <ele>31.8</ele>
        <time>2021-05-21T08:33:12Z</time>
      </trkpt>
      <trkpt lat="42.3410420" lon="-8.6063220">
        <ele>31.8</ele>
        <time>2021-05-21T08:33:13Z</time>
      </trkpt>
      <trkpt lat="42.3410420" lon="-8.6063220">
        <ele>31.8</ele>
        <time>2021-05-21T08:33:14Z</time>
      </trkpt>
      <trkpt lat="42.3410420" lon="-8.6063220">
        <ele>31.8</ele>
        <time>2021-05-21T08:33:15Z</time>
      </trkpt>
      <trkpt lat="42.3410420" lon="-8.6063220">
        <ele>31.8</ele>
        <time>2021-05-21T08:33:16Z</time>
      </trkpt>
      <trkpt lat="42.3410420" lon="-8.6063220">
        <ele>31.8</ele>
        <time>2021-05-21T08:33:17Z</time>
      </trkpt>
      <trkpt lat="42.3410420" lon="-8.6063220">
        <ele>31.8</ele>
        <time>2021-05-21T08:33:18Z</time>
      </trkpt>
      <trkpt lat="42.3410420" lon="-8.6063220">
        <ele>31.8</ele>
        <time>2021-05-21T08:33:19Z</time>
      </trkpt>
      <trkpt lat="42.3410430" lon="-8.6063220">
        <ele>31.8</ele>
        <time>2021-05-21T08:33:20Z</time>
      </trkpt>
      <trkpt lat="42.3410430" lon="-8.6063210">
        <ele>31.8</ele>
        <time>2021-05-21T08:33:21Z</time>
      </trkpt>
      <trkpt lat="42.3410430" lon="-8.6063210">
        <ele>31.8</ele>
        <time>2021-05-21T08:33:22Z</time>
      </trkpt>
      <trkpt lat="42.3410430" lon="-8.6063210">
        <ele>31.8</ele>
        <time>2021-05-21T08:33:23Z</time>
      </trkpt>
      <trkpt lat="42.3410430" lon="-8.6063210">
        <ele>31.8</ele>
        <time>2021-05-21T08:33:24Z</time>
      </trkpt>
      <trkpt lat="42.3410430" lon="-8.6063210">
        <ele>31.8</ele>
        <time>2021-05-21T08:33:25Z</time>
      </trkpt>
      <trkpt lat="42.3410430" lon="-8.6063210">
        <ele>31.8</ele>
        <time>2021-05-21T08:33:26Z</time>
      </trkpt>
      <trkpt lat="42.3410430" lon="-8.6063210">
        <ele>31.8</ele>
        <time>2021-05-21T08:33:27Z</time>
      </trkpt>
      <trkpt lat="42.3410430" lon="-8.6063210">
        <ele>31.8</ele>
        <time>2021-05-21T08:33:28Z</time>
      </trkpt>
      <trkpt lat="42.3410430" lon="-8.6063200">
        <ele>31.8</ele>
        <time>2021-05-21T08:33:29Z</time>
      </trkpt>
      <trkpt lat="42.3410440" lon="-8.6063200">
        <ele>31.8</ele>
        <time>2021-05-21T08:33:30Z</time>
      </trkpt>
      <trkpt lat="42.3410440" lon="-8.6063200">
        <ele>31.8</ele>
        <time>2021-05-21T08:33:31Z</time>
      </trkpt>
      <trkpt lat="42.3410440" lon="-8.6063200">
        <ele>31.8</ele>
        <time>2021-05-21T08:33:32Z</time>
      </trkpt>
      <trkpt lat="42.3410440" lon="-8.6063200">
        <ele>31.8</ele>
        <time>2021-05-21T08:33:33Z</time>
      </trkpt>
      <trkpt lat="42.3410440" lon="-8.6063200">
        <ele>31.8</ele>
        <time>2021-05-21T08:33:34Z</time>
      </trkpt>
      <trkpt lat="42.3410440" lon="-8.6063200">
        <ele>31.8</ele>
        <time>2021-05-21T08:33:35Z</time>
      </trkpt>
      <trkpt lat="42.3410440" lon="-8.6063200">
        <ele>31.8</ele>
        <time>2021-05-21T08:33:36Z</time>
      </trkpt>
      <trkpt lat="42.3410440" lon="-8.6063190">
        <ele>31.8</ele>
        <time>2021-05-21T08:33:37Z</time>
      </trkpt>
      <trkpt lat="42.3410440" lon="-8.6063190">
        <ele>31.8</ele>
        <time>2021-05-21T08:33:38Z</time>
      </trkpt>
      <trkpt lat="42.3410450" lon="-8.6063190">
        <ele>31.7</ele>
        <time>2021-05-21T08:33:39Z</time>
      </trkpt>
      <trkpt lat="42.3410450" lon="-8.6063190">
        <ele>31.7</ele>
        <time>2021-05-21T08:33:40Z</time>
      </trkpt>
      <trkpt lat="42.3410450" lon="-8.6063190">
        <ele>31.7</ele>
        <time>2021-05-21T08:33:41Z</time>
      </trkpt>
      <trkpt lat="42.3410450" lon="-8.6063190">
        <ele>31.7</ele>
        <time>2021-05-21T08:33:42Z</time>
      </trkpt>
      <trkpt lat="42.3410450" lon="-8.6063190">
        <ele>31.7</ele>
        <time>2021-05-21T08:33:43Z</time>
      </trkpt>
      <trkpt lat="42.3410450" lon="-8.6063190">
        <ele>31.7</ele>
        <time>2021-05-21T08:33:44Z</time>
      </trkpt>
      <trkpt lat="42.3410450" lon="-8.6063180">
        <ele>31.7</ele>
        <time>2021-05-21T08:33:45Z</time>
      </trkpt>
      <trkpt lat="42.3410450" lon="-8.6063180">
        <ele>31.7</ele>
        <time>2021-05-21T08:33:46Z</time>
      </trkpt>
      <trkpt lat="42.3410450" lon="-8.6063180">
        <ele>31.7</ele>
        <time>2021-05-21T08:33:47Z</time>
      </trkpt>
      <trkpt lat="42.3410460" lon="-8.6063180">
        <ele>31.7</ele>
        <time>2021-05-21T08:33:48Z</time>
      </trkpt>
      <trkpt lat="42.3410460" lon="-8.6063180">
        <ele>31.7</ele>
        <time>2021-05-21T08:33:49Z</time>
      </trkpt>
      <trkpt lat="42.3410460" lon="-8.6063180">
        <ele>31.7</ele>
        <time>2021-05-21T08:33:50Z</time>
      </trkpt>
      <trkpt lat="42.3410460" lon="-8.6063180">
        <ele>31.7</ele>
        <time>2021-05-21T08:33:51Z</time>
      </trkpt>
      <trkpt lat="42.3410460" lon="-8.6063180">
        <ele>31.7</ele>
        <time>2021-05-21T08:33:52Z</time>
      </trkpt>
      <trkpt lat="42.3410460" lon="-8.6063170">
        <ele>31.7</ele>
        <time>2021-05-21T08:33:53Z</time>
      </trkpt>
      <trkpt lat="42.3410460" lon="-8.6063170">
        <ele>31.7</ele>
        <time>2021-05-21T08:33:54Z</time>
      </trkpt>
      <trkpt lat="42.3410460" lon="-8.6063170">
        <ele>31.7</ele>
        <time>2021-05-21T08:33:55Z</time>
      </trkpt>
      <trkpt lat="42.3410460" lon="-8.6063170">
        <ele>31.7</ele>
        <time>2021-05-21T08:33:56Z</time>
      </trkpt>
      <trkpt lat="42.3410470" lon="-8.6063170">
        <ele>31.7</ele>
        <time>2021-05-21T08:33:57Z</time>
      </trkpt>
      <trkpt lat="42.3410470" lon="-8.6063170">
        <ele>31.7</ele>
        <time>2021-05-21T08:33:58Z</time>
      </trkpt>
      <trkpt lat="42.3410470" lon="-8.6063170">
        <ele>31.7</ele>
        <time>2021-05-21T08:33:59Z</time>
      </trkpt>
      <trkpt lat="42.3410470" lon="-8.6063170">
        <ele>31.7</ele>
        <time>2021-05-21T08:34:00Z</time>
      </trkpt>
      <trkpt lat="42.3410470" lon="-8.6063170">
        <ele>31.7</ele>
        <time>2021-05-21T08:34:01Z</time>
      </trkpt>
      <trkpt lat="42.3410470" lon="-8.6063160">
        <ele>31.7</ele>
        <time>2021-05-21T08:34:02Z</time>
      </trkpt>
      <trkpt lat="42.3410470" lon="-8.6063160">
        <ele>31.7</ele>
        <time>2021-05-21T08:34:03Z</time>
      </trkpt>
      <trkpt lat="42.3410470" lon="-8.6063160">
        <ele>31.7</ele>
        <time>2021-05-21T08:34:04Z</time>
      </trkpt>
      <trkpt lat="42.3410470" lon="-8.6063160">
        <ele>31.7</ele>
        <time>2021-05-21T08:34:05Z</time>
      </trkpt>
      <trkpt lat="42.3410480" lon="-8.6063160">
        <ele>31.7</ele>
        <time>2021-05-21T08:34:06Z</time>
      </trkpt>
      <trkpt lat="42.3410480" lon="-8.6063160">
        <ele>31.7</ele>
        <time>2021-05-21T08:34:07Z</time>
      </trkpt>
      <trkpt lat="42.3410480" lon="-8.6063160">
        <ele>31.7</ele>
        <time>2021-05-21T08:34:08Z</time>
      </trkpt>
      <trkpt lat="42.3410480" lon="-8.6063160">
        <ele>31.7</ele>
        <time>2021-05-21T08:34:09Z</time>
      </trkpt>
      <trkpt lat="42.3410480" lon="-8.6063150">
        <ele>31.7</ele>
        <time>2021-05-21T08:34:10Z</time>
      </trkpt>
      <trkpt lat="42.3410480" lon="-8.6063150">
        <ele>31.7</ele>
        <time>2021-05-21T08:34:11Z</time>
      </trkpt>
      <trkpt lat="42.3410480" lon="-8.6063150">
        <ele>31.7</ele>
        <time>2021-05-21T08:34:12Z</time>
      </trkpt>
      <trkpt lat="42.3410480" lon="-8.6063150">
        <ele>31.7</ele>
        <time>2021-05-21T08:34:13Z</time>
      </trkpt>
      <trkpt lat="42.3410480" lon="-8.6063150">
        <ele>31.7</ele>
        <time>2021-05-21T08:34:14Z</time>
      </trkpt>
      <trkpt lat="42.3410490" lon="-8.6063150">
        <ele>31.7</ele>
        <time>2021-05-21T08:34:15Z</time>
      </trkpt>
      <trkpt lat="42.3410490" lon="-8.6063150">
        <ele>31.7</ele>
        <time>2021-05-21T08:34:16Z</time>
      </trkpt>
      <trkpt lat="42.3410490" lon="-8.6063150">
        <ele>31.7</ele>
        <time>2021-05-21T08:34:17Z</time>
      </trkpt>
      <trkpt lat="42.3410490" lon="-8.6063140">
        <ele>31.7</ele>
        <time>2021-05-21T08:34:18Z</time>
      </trkpt>
      <trkpt lat="42.3410490" lon="-8.6063140">
        <ele>31.7</ele>
        <time>2021-05-21T08:34:19Z</time>
      </trkpt>
      <trkpt lat="42.3410490" lon="-8.6063140">
        <ele>31.7</ele>
        <time>2021-05-21T08:34:20Z</time>
      </trkpt>
      <trkpt lat="42.3410490" lon="-8.6063140">
        <ele>31.7</ele>
        <time>2021-05-21T08:34:21Z</time>
      </trkpt>
      <trkpt lat="42.3410490" lon="-8.6063140">
        <ele>31.7</ele>
        <time>2021-05-21T08:34:22Z</time>
      </trkpt>
      <trkpt lat="42.3410490" lon="-8.6063140">
        <ele>31.7</ele>
        <time>2021-05-21T08:34:23Z</time>
      </trkpt>
      <trkpt lat="42.3410500" lon="-8.6063140">
        <ele>31.7</ele>
        <time>2021-05-21T08:34:24Z</time>
      </trkpt>
      <trkpt lat="42.3410500" lon="-8.6063140">
        <ele>31.7</ele>
        <time>2021-05-21T08:34:25Z</time>
      </trkpt>
      <trkpt lat="42.3410500" lon="-8.6063130">
        <ele>31.7</ele>
        <time>2021-05-21T08:34:26Z</time>
      </trkpt>
      <trkpt lat="42.3410500" lon="-8.6063130">
        <ele>31.7</ele>
        <time>2021-05-21T08:34:27Z</time>
      </trkpt>
      <trkpt lat="42.3410500" lon="-8.6063130">
        <ele>31.7</ele>
        <time>2021-05-21T08:34:28Z</time>
      </trkpt>
      <trkpt lat="42.3410500" lon="-8.6063130">
        <ele>31.7</ele>
        <time>2021-05-21T08:34:29Z</time>
      </trkpt>
      <trkpt lat="42.3410500" lon="-8.6063130">
        <ele>31.7</ele>
        <time>2021-05-21T08:34:30Z</time>
      </trkpt>
      <trkpt lat="42.3410500" lon="-8.6063130">
        <ele>31.7</ele>
        <time>2021-05-21T08:34:31Z</time>
      </trkpt>
      <trkpt lat="42.3410500" lon="-8.6063130">
        <ele>31.7</ele>
        <time>2021-05-21T08:34:32Z</time>
      </trkpt>
      <trkpt lat="42.3410500" lon="-8.6063130">
        <ele>31.7</ele>
        <time>2021-05-21T08:34:33Z</time>
      </trkpt>
      <trkpt lat="42.3410510" lon="-8.6063130">
        <ele>31.7</ele>
        <time>2021-05-21T08:34:34Z</time>
      </trkpt>
      <trkpt lat="42.3410510" lon="-8.6063120">
        <ele>31.7</ele>
        <time>2021-05-21T08:34:35Z</time>
      </trkpt>
      <trkpt lat="42.3410510" lon="-8.6063120">
        <ele>31.7</ele>
        <time>2021-05-21T08:34:36Z</time>
      </trkpt>
      <trkpt lat="42.3410510" lon="-8.6063120">
        <ele>31.7</ele>
        <time>2021-05-21T08:34:37Z</time>
      </trkpt>
      <trkpt lat="42.3410510" lon="-8.6063120">
        <ele>31.7</ele>
        <time>2021-05-21T08:34:38Z</time>
      </trkpt>
      <trkpt lat="42.3410510" lon="-8.6063120">
        <ele>31.7</ele>
        <time>2021-05-21T08:34:39Z</time>
      </trkpt>
      <trkpt lat="42.3410510" lon="-8.6063120">
        <ele>31.7</ele>
        <time>2021-05-21T08:34:40Z</time>
      </trkpt>
      <trkpt lat="42.3410510" lon="-8.6063120">
        <ele>31.7</ele>
        <time>2021-05-21T08:34:41Z</time>
      </trkpt>
      <trkpt lat="42.3410510" lon="-8.6063120">
        <ele>31.7</ele>
        <time>2021-05-21T08:34:42Z</time>
      </trkpt>
      <trkpt lat="42.3410520" lon="-8.6063110">
        <ele>31.7</ele>
        <time>2021-05-21T08:34:43Z</time>
      </trkpt>
      <trkpt lat="42.3410520" lon="-8.6063110">
        <ele>31.7</ele>
        <time>2021-05-21T08:34:44Z</time>
      </trkpt>
      <trkpt lat="42.3410520" lon="-8.6063110">
        <ele>31.7</ele>
        <time>2021-05-21T08:34:45Z</time>
      </trkpt>
      <trkpt lat="42.3410520" lon="-8.6063110">
        <ele>31.7</ele>
        <time>2021-05-21T08:34:46Z</time>
      </trkpt>
      <trkpt lat="42.3410520" lon="-8.6063110">
        <ele>31.7</ele>
        <time>2021-05-21T08:34:47Z</time>
      </trkpt>
      <trkpt lat="42.3410520" lon="-8.6063110">
        <ele>31.7</ele>
        <time>2021-05-21T08:34:48Z</time>
      </trkpt>
      <trkpt lat="42.3410520" lon="-8.6063110">
        <ele>31.7</ele>
        <time>2021-05-21T08:34:49Z</time>
      </trkpt>
      <trkpt lat="42.3410520" lon="-8.6063110">
        <ele>31.7</ele>
        <time>2021-05-21T08:34:50Z</time>
      </trkpt>
      <trkpt lat="42.3410520" lon="-8.6063100">
        <ele>31.7</ele>
        <time>2021-05-21T08:34:51Z</time>
      </trkpt>
      <trkpt lat="42.3410530" lon="-8.6063100">
        <ele>31.7</ele>
        <time>2021-05-21T08:34:52Z</time>
      </trkpt>
      <trkpt lat="42.3410530" lon="-8.6063100">
        <ele>31.7</ele>
        <time>2021-05-21T08:34:53Z</time>
      </trkpt>
      <trkpt lat="42.3410530" lon="-8.6063100">
        <ele>31.7</ele>
        <time>2021-05-21T08:34:54Z</time>
      </trkpt>
      <trkpt lat="42.3410530" lon="-8.6063100">
        <ele>31.7</ele>
        <time>2021-05-21T08:34:55Z</time>
      </trkpt>
      <trkpt lat="42.3410530" lon="-8.6063100">
        <ele>31.7</ele>
        <time>2021-05-21T08:34:56Z</time>
      </trkpt>
      <trkpt lat="42.3410530" lon="-8.6063100">
        <ele>31.7</ele>
        <time>2021-05-21T08:34:57Z</time>
      </trkpt>
      <trkpt lat="42.3410530" lon="-8.6063100">
        <ele>31.7</ele>
        <time>2021-05-21T08:34:58Z</time>
      </trkpt>
      <trkpt lat="42.3410530" lon="-8.6063090">
        <ele>31.7</ele>
        <time>2021-05-21T08:34:59Z</time>
      </trkpt>
      <trkpt lat="42.3410530" lon="-8.6063090">
        <ele>31.7</ele>
        <time>2021-05-21T08:35:00Z</time>
      </trkpt>
      <trkpt lat="42.3410540" lon="-8.6063090">
        <ele>31.7</ele>
        <time>2021-05-21T08:35:01Z</time>
      </trkpt>
      <trkpt lat="42.3410540" lon="-8.6063090">
        <ele>31.7</ele>
        <time>2021-05-21T08:35:02Z</time>
      </trkpt>
      <trkpt lat="42.3410540" lon="-8.6063090">
        <ele>31.7</ele>
        <time>2021-05-21T08:35:03Z</time>
      </trkpt>
      <trkpt lat="42.3410540" lon="-8.6063090">
        <ele>31.6</ele>
        <time>2021-05-21T08:35:04Z</time>
      </trkpt>
      <trkpt lat="42.3410540" lon="-8.6063090">
        <ele>31.6</ele>
        <time>2021-05-21T08:35:05Z</time>
      </trkpt>
      <trkpt lat="42.3410540" lon="-8.6063090">
        <ele>31.6</ele>
        <time>2021-05-21T08:35:06Z</time>
      </trkpt>
      <trkpt lat="42.3410540" lon="-8.6063090">
        <ele>31.6</ele>
        <time>2021-05-21T08:35:07Z</time>
      </trkpt>
      <trkpt lat="42.3410540" lon="-8.6063080">
        <ele>31.6</ele>
        <time>2021-05-21T08:35:08Z</time>
      </trkpt>
      <trkpt lat="42.3410540" lon="-8.6063080">
        <ele>31.6</ele>
        <time>2021-05-21T08:35:09Z</time>
      </trkpt>
      <trkpt lat="42.3410550" lon="-8.6063080">
        <ele>31.6</ele>
        <time>2021-05-21T08:35:10Z</time>
      </trkpt>
      <trkpt lat="42.3410550" lon="-8.6063080">
        <ele>31.6</ele>
        <time>2021-05-21T08:35:11Z</time>
      </trkpt>
      <trkpt lat="42.3410550" lon="-8.6063080">
        <ele>31.6</ele>
        <time>2021-05-21T08:35:12Z</time>
      </trkpt>
      <trkpt lat="42.3410550" lon="-8.6063080">
        <ele>31.6</ele>
        <time>2021-05-21T08:35:13Z</time>
      </trkpt>
      <trkpt lat="42.3410550" lon="-8.6063080">
        <ele>31.6</ele>
        <time>2021-05-21T08:35:14Z</time>
      </trkpt>
      <trkpt lat="42.3410550" lon="-8.6063080">
        <ele>31.6</ele>
        <time>2021-05-21T08:35:15Z</time>
      </trkpt>
      <trkpt lat="42.3410550" lon="-8.6063070">
        <ele>31.6</ele>
        <time>2021-05-21T08:35:16Z</time>
      </trkpt>
      <trkpt lat="42.3410550" lon="-8.6063070">
        <ele>31.6</ele>
        <time>2021-05-21T08:35:17Z</time>
      </trkpt>
      <trkpt lat="42.3410550" lon="-8.6063070">
        <ele>31.6</ele>
        <time>2021-05-21T08:35:18Z</time>
      </trkpt>
      <trkpt lat="42.3410560" lon="-8.6063070">
        <ele>31.6</ele>
        <time>2021-05-21T08:35:19Z</time>
      </trkpt>
      <trkpt lat="42.3410560" lon="-8.6063070">
        <ele>31.6</ele>
        <time>2021-05-21T08:35:20Z</time>
      </trkpt>
      <trkpt lat="42.3410560" lon="-8.6063070">
        <ele>31.6</ele>
        <time>2021-05-21T08:35:21Z</time>
      </trkpt>
      <trkpt lat="42.3410560" lon="-8.6063070">
        <ele>31.6</ele>
        <time>2021-05-21T08:35:22Z</time>
      </trkpt>
      <trkpt lat="42.3410560" lon="-8.6063070">
        <ele>31.6</ele>
        <time>2021-05-21T08:35:23Z</time>
      </trkpt>
      <trkpt lat="42.3410560" lon="-8.6063060">
        <ele>31.6</ele>
        <time>2021-05-21T08:35:24Z</time>
      </trkpt>
      <trkpt lat="42.3410560" lon="-8.6063060">
        <ele>31.6</ele>
        <time>2021-05-21T08:35:25Z</time>
      </trkpt>
      <trkpt lat="42.3410560" lon="-8.6063060">
        <ele>31.6</ele>
        <time>2021-05-21T08:35:26Z</time>
      </trkpt>
      <trkpt lat="42.3410560" lon="-8.6063060">
        <ele>31.6</ele>
        <time>2021-05-21T08:35:27Z</time>
      </trkpt>
      <trkpt lat="42.3410570" lon="-8.6063060">
        <ele>31.6</ele>
        <time>2021-05-21T08:35:28Z</time>
      </trkpt>
      <trkpt lat="42.3410570" lon="-8.6063060">
        <ele>31.6</ele>
        <time>2021-05-21T08:35:29Z</time>
      </trkpt>
      <trkpt lat="42.3410570" lon="-8.6063060">
        <ele>31.6</ele>
        <time>2021-05-21T08:35:30Z</time>
      </trkpt>
      <trkpt lat="42.3410570" lon="-8.6063060">
        <ele>31.6</ele>
        <time>2021-05-21T08:35:31Z</time>
      </trkpt>
      <trkpt lat="42.3410570" lon="-8.6063050">
        <ele>31.6</ele>
        <time>2021-05-21T08:35:32Z</time>
      </trkpt>
      <trkpt lat="42.3410570" lon="-8.6063050">
        <ele>31.6</ele>
        <time>2021-05-21T08:35:33Z</time>
      </trkpt>
      <trkpt lat="42.3410570" lon="-8.6063050">
        <ele>31.6</ele>
        <time>2021-05-21T08:35:34Z</time>
      </trkpt>
      <trkpt lat="42.3410570" lon="-8.6063050">
        <ele>31.6</ele>
        <time>2021-05-21T08:35:35Z</time>
      </trkpt>
      <trkpt lat="42.3410570" lon="-8.6063050">
        <ele>31.6</ele>
        <time>2021-05-21T08:35:36Z</time>
      </trkpt>
      <trkpt lat="42.3410570" lon="-8.6063050">
        <ele>31.6</ele>
        <time>2021-05-21T08:35:37Z</time>
      </trkpt>
      <trkpt lat="42.3410580" lon="-8.6063050">
        <ele>31.5</ele>
        <time>2021-05-21T08:35:38Z</time>
      </trkpt>
      <trkpt lat="42.3410580" lon="-8.6063050">
        <ele>31.5</ele>
        <time>2021-05-21T08:35:39Z</time>
      </trkpt>
      <trkpt lat="42.3410580" lon="-8.6063050">
        <ele>31.5</ele>
        <time>2021-05-21T08:35:40Z</time>
      </trkpt>
      <trkpt lat="42.3410580" lon="-8.6063040">
        <ele>31.5</ele>
        <time>2021-05-21T08:35:41Z</time>
      </trkpt>
      <trkpt lat="42.3410580" lon="-8.6063040">
        <ele>31.5</ele>
        <time>2021-05-21T08:35:42Z</time>
      </trkpt>
      <trkpt lat="42.3410580" lon="-8.6063040">
        <ele>31.5</ele>
        <time>2021-05-21T08:35:43Z</time>
      </trkpt>
      <trkpt lat="42.3410580" lon="-8.6063040">
        <ele>31.5</ele>
        <time>2021-05-21T08:35:44Z</time>
      </trkpt>
      <trkpt lat="42.3410580" lon="-8.6063040">
        <ele>31.5</ele>
        <time>2021-05-21T08:35:45Z</time>
      </trkpt>
      <trkpt lat="42.3410580" lon="-8.6063040">
        <ele>31.5</ele>
        <time>2021-05-21T08:35:46Z</time>
      </trkpt>
      <trkpt lat="42.3410590" lon="-8.6063040">
        <ele>31.5</ele>
        <time>2021-05-21T08:35:47Z</time>
      </trkpt>
      <trkpt lat="42.3410590" lon="-8.6063040">
        <ele>31.5</ele>
        <time>2021-05-21T08:35:48Z</time>
      </trkpt>
      <trkpt lat="42.3410590" lon="-8.6063030">
        <ele>31.5</ele>
        <time>2021-05-21T08:35:49Z</time>
      </trkpt>
      <trkpt lat="42.3410590" lon="-8.6063030">
        <ele>31.5</ele>
        <time>2021-05-21T08:35:50Z</time>
      </trkpt>
      <trkpt lat="42.3410590" lon="-8.6063030">
        <ele>31.5</ele>
        <time>2021-05-21T08:35:51Z</time>
      </trkpt>
      <trkpt lat="42.3410590" lon="-8.6063030">
        <ele>31.5</ele>
        <time>2021-05-21T08:35:52Z</time>
      </trkpt>
      <trkpt lat="42.3410590" lon="-8.6063030">
        <ele>31.5</ele>
        <time>2021-05-21T08:35:53Z</time>
      </trkpt>
      <trkpt lat="42.3410590" lon="-8.6063030">
        <ele>31.5</ele>
        <time>2021-05-21T08:35:54Z</time>
      </trkpt>
      <trkpt lat="42.3410590" lon="-8.6063030">
        <ele>31.5</ele>
        <time>2021-05-21T08:35:55Z</time>
      </trkpt>
      <trkpt lat="42.3410600" lon="-8.6063030">
        <ele>31.5</ele>
        <time>2021-05-21T08:35:56Z</time>
      </trkpt>
      <trkpt lat="42.3410600" lon="-8.6063020">
        <ele>31.5</ele>
        <time>2021-05-21T08:35:57Z</time>
      </trkpt>
      <trkpt lat="42.3410600" lon="-8.6063020">
        <ele>31.5</ele>
        <time>2021-05-21T08:35:58Z</time>
      </trkpt>
      <trkpt lat="42.3410600" lon="-8.6063020">
        <ele>31.5</ele>
        <time>2021-05-21T08:35:59Z</time>
      </trkpt>
      <trkpt lat="42.3410600" lon="-8.6063020">
        <ele>31.5</ele>
        <time>2021-05-21T08:36:00Z</time>
      </trkpt>
      <trkpt lat="42.3410600" lon="-8.6063020">
        <ele>31.5</ele>
        <time>2021-05-21T08:36:01Z</time>
      </trkpt>
      <trkpt lat="42.3410600" lon="-8.6063020">
        <ele>31.5</ele>
        <time>2021-05-21T08:36:02Z</time>
      </trkpt>
      <trkpt lat="42.3410600" lon="-8.6063020">
        <ele>31.5</ele>
        <time>2021-05-21T08:36:03Z</time>
      </trkpt>
      <trkpt lat="42.3410600" lon="-8.6063020">
        <ele>31.5</ele>
        <time>2021-05-21T08:36:04Z</time>
      </trkpt>
      <trkpt lat="42.3410610" lon="-8.6063010">
        <ele>31.5</ele>
        <time>2021-05-21T08:36:05Z</time>
      </trkpt>
      <trkpt lat="42.3410610" lon="-8.6063010">
        <ele>31.5</ele>
        <time>2021-05-21T08:36:06Z</time>
      </trkpt>
      <trkpt lat="42.3410610" lon="-8.6063010">
        <ele>31.5</ele>
        <time>2021-05-21T08:36:07Z</time>
      </trkpt>
      <trkpt lat="42.3410610" lon="-8.6063010">
        <ele>31.5</ele>
        <time>2021-05-21T08:36:08Z</time>
      </trkpt>
      <trkpt lat="42.3410610" lon="-8.6063010">
        <ele>31.5</ele>
        <time>2021-05-21T08:36:09Z</time>
      </trkpt>
      <trkpt lat="42.3410620" lon="-8.6063060">
        <ele>31.5</ele>
        <time>2021-05-21T08:36:10Z</time>
      </trkpt>
      <trkpt lat="42.3410680" lon="-8.6063110">
        <ele>31.4</ele>
        <time>2021-05-21T08:36:11Z</time>
      </trkpt>
      <trkpt lat="42.3410750" lon="-8.6063150">
        <ele>31.4</ele>
        <time>2021-05-21T08:36:12Z</time>
      </trkpt>
      <trkpt lat="42.3410720" lon="-8.6063130">
        <ele>31.4</ele>
        <time>2021-05-21T08:36:13Z</time>
      </trkpt>
      <trkpt lat="42.3410810" lon="-8.6063190">
        <ele>31.4</ele>
        <time>2021-05-21T08:36:14Z</time>
      </trkpt>
      <trkpt lat="42.3410780" lon="-8.6063190">
        <ele>31.4</ele>
        <time>2021-05-21T08:36:15Z</time>
      </trkpt>
      <trkpt lat="42.3410790" lon="-8.6063180">
        <ele>31.4</ele>
        <time>2021-05-21T08:36:16Z</time>
      </trkpt>
      <trkpt lat="42.3410730" lon="-8.6063110">
        <ele>31.4</ele>
        <time>2021-05-21T08:36:17Z</time>
      </trkpt>
      <trkpt lat="42.3410810" lon="-8.6063200">
        <ele>31.4</ele>
        <time>2021-05-21T08:36:18Z</time>
      </trkpt>
      <trkpt lat="42.3410880" lon="-8.6063290">
        <ele>31.4</ele>
        <time>2021-05-21T08:36:19Z</time>
      </trkpt>
      <trkpt lat="42.3410970" lon="-8.6063380">
        <ele>31.4</ele>
        <time>2021-05-21T08:36:20Z</time>
      </trkpt>
      <trkpt lat="42.3410940" lon="-8.6063250">
        <ele>31.4</ele>
        <time>2021-05-21T08:36:21Z</time>
      </trkpt>
      <trkpt lat="42.3410990" lon="-8.6063180">
        <ele>31.4</ele>
        <time>2021-05-21T08:36:22Z</time>
      </trkpt>
      <trkpt lat="42.3411000" lon="-8.6063210">
        <ele>31.4</ele>
        <time>2021-05-21T08:36:23Z</time>
      </trkpt>
      <trkpt lat="42.3410970" lon="-8.6063270">
        <ele>31.4</ele>
        <time>2021-05-21T08:36:24Z</time>
      </trkpt>
      <trkpt lat="42.3410920" lon="-8.6063170">
        <ele>31.3</ele>
        <time>2021-05-21T08:36:25Z</time>
      </trkpt>
      <trkpt lat="42.3410900" lon="-8.6063160">
        <ele>31.3</ele>
        <time>2021-05-21T08:36:26Z</time>
      </trkpt>
      <trkpt lat="42.3410870" lon="-8.6063170">
        <ele>31.3</ele>
        <time>2021-05-21T08:36:27Z</time>
      </trkpt>
      <trkpt lat="42.3410870" lon="-8.6063170">
        <ele>31.3</ele>
        <time>2021-05-21T08:36:28Z</time>
      </trkpt>
      <trkpt lat="42.3410850" lon="-8.6063260">
        <ele>31.3</ele>
        <time>2021-05-21T08:36:29Z</time>
      </trkpt>
      <trkpt lat="42.3410850" lon="-8.6063240">
        <ele>31.3</ele>
        <time>2021-05-21T08:36:30Z</time>
      </trkpt>
      <trkpt lat="42.3410850" lon="-8.6063290">
        <ele>31.3</ele>
        <time>2021-05-21T08:36:31Z</time>
      </trkpt>
      <trkpt lat="42.3410900" lon="-8.6063320">
        <ele>31.3</ele>
        <time>2021-05-21T08:36:32Z</time>
      </trkpt>
      <trkpt lat="42.3410910" lon="-8.6063250">
        <ele>31.3</ele>
        <time>2021-05-21T08:36:33Z</time>
      </trkpt>
      <trkpt lat="42.3410950" lon="-8.6063280">
        <ele>31.3</ele>
        <time>2021-05-21T08:36:34Z</time>
      </trkpt>
      <trkpt lat="42.3410860" lon="-8.6063260">
        <ele>31.3</ele>
        <time>2021-05-21T08:36:35Z</time>
      </trkpt>
      <trkpt lat="42.3410790" lon="-8.6063270">
        <ele>31.3</ele>
        <time>2021-05-21T08:36:36Z</time>
      </trkpt>
      <trkpt lat="42.3410750" lon="-8.6063330">
        <ele>31.3</ele>
        <time>2021-05-21T08:36:37Z</time>
      </trkpt>
      <trkpt lat="42.3410770" lon="-8.6063410">
        <ele>31.3</ele>
        <time>2021-05-21T08:36:38Z</time>
      </trkpt>
      <trkpt lat="42.3410820" lon="-8.6063590">
        <ele>31.3</ele>
        <time>2021-05-21T08:36:39Z</time>
      </trkpt>
      <trkpt lat="42.3410880" lon="-8.6063590">
        <ele>31.3</ele>
        <time>2021-05-21T08:36:40Z</time>
      </trkpt>
      <trkpt lat="42.3410930" lon="-8.6063550">
        <ele>31.3</ele>
        <time>2021-05-21T08:36:41Z</time>
      </trkpt>
      <trkpt lat="42.3410940" lon="-8.6063430">
        <ele>31.3</ele>
        <time>2021-05-21T08:36:42Z</time>
      </trkpt>
      <trkpt lat="42.3410970" lon="-8.6063510">
        <ele>31.3</ele>
        <time>2021-05-21T08:36:43Z</time>
      </trkpt>
      <trkpt lat="42.3411090" lon="-8.6063480">
        <ele>31.3</ele>
        <time>2021-05-21T08:36:44Z</time>
      </trkpt>
      <trkpt lat="42.3411120" lon="-8.6063490">
        <ele>31.3</ele>
        <time>2021-05-21T08:36:45Z</time>
      </trkpt>
      <trkpt lat="42.3411130" lon="-8.6063550">
        <ele>31.3</ele>
        <time>2021-05-21T08:36:46Z</time>
      </trkpt>
      <trkpt lat="42.3411080" lon="-8.6063540">
        <ele>31.3</ele>
        <time>2021-05-21T08:36:47Z</time>
      </trkpt>
      <trkpt lat="42.3411080" lon="-8.6063540">
        <ele>31.3</ele>
        <time>2021-05-21T08:36:48Z</time>
      </trkpt>
      <trkpt lat="42.3411170" lon="-8.6063520">
        <ele>31.2</ele>
        <time>2021-05-21T08:36:49Z</time>
      </trkpt>
      <trkpt lat="42.3411200" lon="-8.6063500">
        <ele>31.2</ele>
        <time>2021-05-21T08:36:50Z</time>
      </trkpt>
      <trkpt lat="42.3411200" lon="-8.6063490">
        <ele>31.2</ele>
        <time>2021-05-21T08:36:51Z</time>
      </trkpt>
      <trkpt lat="42.3411210" lon="-8.6063530">
        <ele>31.2</ele>
        <time>2021-05-21T08:36:52Z</time>
      </trkpt>
      <trkpt lat="42.3411210" lon="-8.6063560">
        <ele>31.2</ele>
        <time>2021-05-21T08:36:53Z</time>
      </trkpt>
      <trkpt lat="42.3411260" lon="-8.6063650">
        <ele>31.2</ele>
        <time>2021-05-21T08:36:54Z</time>
      </trkpt>
      <trkpt lat="42.3411290" lon="-8.6063630">
        <ele>31.2</ele>
        <time>2021-05-21T08:36:55Z</time>
      </trkpt>
      <trkpt lat="42.3411250" lon="-8.6063580">
        <ele>31.2</ele>
        <time>2021-05-21T08:36:56Z</time>
      </trkpt>
      <trkpt lat="42.3411270" lon="-8.6063700">
        <ele>31.2</ele>
        <time>2021-05-21T08:36:57Z</time>
      </trkpt>
      <trkpt lat="42.3411310" lon="-8.6063790">
        <ele>31.2</ele>
        <time>2021-05-21T08:36:58Z</time>
      </trkpt>
      <trkpt lat="42.3411300" lon="-8.6063760">
        <ele>31.2</ele>
        <time>2021-05-21T08:36:59Z</time>
      </trkpt>
      <trkpt lat="42.3411300" lon="-8.6063750">
        <ele>31.2</ele>
        <time>2021-05-21T08:37:00Z</time>
      </trkpt>
      <trkpt lat="42.3411290" lon="-8.6063740">
        <ele>31.2</ele>
        <time>2021-05-21T08:37:01Z</time>
      </trkpt>
      <trkpt lat="42.3411290" lon="-8.6063730">
        <ele>31.2</ele>
        <time>2021-05-21T08:37:02Z</time>
      </trkpt>
      <trkpt lat="42.3411280" lon="-8.6063720">
        <ele>31.2</ele>
        <time>2021-05-21T08:37:03Z</time>
      </trkpt>
      <trkpt lat="42.3411280" lon="-8.6063720">
        <ele>31.2</ele>
        <time>2021-05-21T08:37:04Z</time>
      </trkpt>
      <trkpt lat="42.3411270" lon="-8.6063710">
        <ele>31.2</ele>
        <time>2021-05-21T08:37:05Z</time>
      </trkpt>
      <trkpt lat="42.3411270" lon="-8.6063700">
        <ele>31.2</ele>
        <time>2021-05-21T08:37:06Z</time>
      </trkpt>
      <trkpt lat="42.3411260" lon="-8.6063690">
        <ele>31.2</ele>
        <time>2021-05-21T08:37:07Z</time>
      </trkpt>
      <trkpt lat="42.3411260" lon="-8.6063680">
        <ele>31.2</ele>
        <time>2021-05-21T08:37:08Z</time>
      </trkpt>
      <trkpt lat="42.3411250" lon="-8.6063670">
        <ele>31.2</ele>
        <time>2021-05-21T08:37:09Z</time>
      </trkpt>
      <trkpt lat="42.3411250" lon="-8.6063660">
        <ele>31.2</ele>
        <time>2021-05-21T08:37:10Z</time>
      </trkpt>
      <trkpt lat="42.3411240" lon="-8.6063650">
        <ele>31.2</ele>
        <time>2021-05-21T08:37:11Z</time>
      </trkpt>
      <trkpt lat="42.3411240" lon="-8.6063640">
        <ele>31.2</ele>
        <time>2021-05-21T08:37:12Z</time>
      </trkpt>
      <trkpt lat="42.3411230" lon="-8.6063630">
        <ele>31.2</ele>
        <time>2021-05-21T08:37:13Z</time>
      </trkpt>
      <trkpt lat="42.3411230" lon="-8.6063630">
        <ele>31.2</ele>
        <time>2021-05-21T08:37:14Z</time>
      </trkpt>
      <trkpt lat="42.3411220" lon="-8.6063620">
        <ele>31.2</ele>
        <time>2021-05-21T08:37:15Z</time>
      </trkpt>
      <trkpt lat="42.3411220" lon="-8.6063610">
        <ele>31.2</ele>
        <time>2021-05-21T08:37:16Z</time>
      </trkpt>
      <trkpt lat="42.3411210" lon="-8.6063600">
        <ele>31.2</ele>
        <time>2021-05-21T08:37:17Z</time>
      </trkpt>
      <trkpt lat="42.3411210" lon="-8.6063590">
        <ele>31.2</ele>
        <time>2021-05-21T08:37:18Z</time>
      </trkpt>
      <trkpt lat="42.3411200" lon="-8.6063580">
        <ele>31.2</ele>
        <time>2021-05-21T08:37:19Z</time>
      </trkpt>
      <trkpt lat="42.3411200" lon="-8.6063570">
        <ele>31.2</ele>
        <time>2021-05-21T08:37:20Z</time>
      </trkpt>
      <trkpt lat="42.3411190" lon="-8.6063560">
        <ele>31.2</ele>
        <time>2021-05-21T08:37:21Z</time>
      </trkpt>
      <trkpt lat="42.3411190" lon="-8.6063550">
        <ele>31.2</ele>
        <time>2021-05-21T08:37:22Z</time>
      </trkpt>
      <trkpt lat="42.3411180" lon="-8.6063540">
        <ele>31.2</ele>
        <time>2021-05-21T08:37:23Z</time>
      </trkpt>
      <trkpt lat="42.3411180" lon="-8.6063530">
        <ele>31.2</ele>
        <time>2021-05-21T08:37:24Z</time>
      </trkpt>
      <trkpt lat="42.3411170" lon="-8.6063530">
        <ele>31.2</ele>
        <time>2021-05-21T08:37:25Z</time>
      </trkpt>
      <trkpt lat="42.3411170" lon="-8.6063520">
        <ele>31.2</ele>
        <time>2021-05-21T08:37:26Z</time>
      </trkpt>
      <trkpt lat="42.3411160" lon="-8.6063510">
        <ele>31.2</ele>
        <time>2021-05-21T08:37:27Z</time>
      </trkpt>
      <trkpt lat="42.3411160" lon="-8.6063500">
        <ele>31.2</ele>
        <time>2021-05-21T08:37:28Z</time>
      </trkpt>
      <trkpt lat="42.3411150" lon="-8.6063490">
        <ele>31.2</ele>
        <time>2021-05-21T08:37:29Z</time>
      </trkpt>
      <trkpt lat="42.3411150" lon="-8.6063480">
        <ele>31.2</ele>
        <time>2021-05-21T08:37:30Z</time>
      </trkpt>
      <trkpt lat="42.3411140" lon="-8.6063470">
        <ele>31.2</ele>
        <time>2021-05-21T08:37:31Z</time>
      </trkpt>
      <trkpt lat="42.3411140" lon="-8.6063460">
        <ele>31.2</ele>
        <time>2021-05-21T08:37:32Z</time>
      </trkpt>
      <trkpt lat="42.3411130" lon="-8.6063450">
        <ele>31.2</ele>
        <time>2021-05-21T08:37:33Z</time>
      </trkpt>
      <trkpt lat="42.3411130" lon="-8.6063440">
        <ele>31.2</ele>
        <time>2021-05-21T08:37:34Z</time>
      </trkpt>
      <trkpt lat="42.3411120" lon="-8.6063440">
        <ele>31.2</ele>
        <time>2021-05-21T08:37:35Z</time>
      </trkpt>
      <trkpt lat="42.3411120" lon="-8.6063430">
        <ele>31.2</ele>
        <time>2021-05-21T08:37:36Z</time>
      </trkpt>
      <trkpt lat="42.3411110" lon="-8.6063420">
        <ele>31.2</ele>
        <time>2021-05-21T08:37:37Z</time>
      </trkpt>
      <trkpt lat="42.3411110" lon="-8.6063410">
        <ele>31.2</ele>
        <time>2021-05-21T08:37:38Z</time>
      </trkpt>
      <trkpt lat="42.3411100" lon="-8.6063400">
        <ele>31.2</ele>
        <time>2021-05-21T08:37:39Z</time>
      </trkpt>
      <trkpt lat="42.3411100" lon="-8.6063390">
        <ele>31.2</ele>
        <time>2021-05-21T08:37:40Z</time>
      </trkpt>
      <trkpt lat="42.3411090" lon="-8.6063380">
        <ele>31.2</ele>
        <time>2021-05-21T08:37:41Z</time>
      </trkpt>
      <trkpt lat="42.3411090" lon="-8.6063370">
        <ele>31.2</ele>
        <time>2021-05-21T08:37:42Z</time>
      </trkpt>
      <trkpt lat="42.3411080" lon="-8.6063360">
        <ele>31.2</ele>
        <time>2021-05-21T08:37:43Z</time>
      </trkpt>
      <trkpt lat="42.3411080" lon="-8.6063350">
        <ele>31.2</ele>
        <time>2021-05-21T08:37:44Z</time>
      </trkpt>
      <trkpt lat="42.3411070" lon="-8.6063340">
        <ele>31.2</ele>
        <time>2021-05-21T08:37:45Z</time>
      </trkpt>
      <trkpt lat="42.3411070" lon="-8.6063340">
        <ele>31.2</ele>
        <time>2021-05-21T08:37:46Z</time>
      </trkpt>
      <trkpt lat="42.3411060" lon="-8.6063330">
        <ele>31.2</ele>
        <time>2021-05-21T08:37:47Z</time>
      </trkpt>
      <trkpt lat="42.3411060" lon="-8.6063320">
        <ele>31.2</ele>
        <time>2021-05-21T08:37:48Z</time>
      </trkpt>
      <trkpt lat="42.3411050" lon="-8.6063310">
        <ele>31.2</ele>
        <time>2021-05-21T08:37:49Z</time>
      </trkpt>
      <trkpt lat="42.3411050" lon="-8.6063300">
        <ele>31.2</ele>
        <time>2021-05-21T08:37:50Z</time>
      </trkpt>
      <trkpt lat="42.3411040" lon="-8.6063290">
        <ele>31.2</ele>
        <time>2021-05-21T08:37:51Z</time>
      </trkpt>
      <trkpt lat="42.3411040" lon="-8.6063280">
        <ele>31.2</ele>
        <time>2021-05-21T08:37:52Z</time>
      </trkpt>
      <trkpt lat="42.3411030" lon="-8.6063270">
        <ele>31.2</ele>
        <time>2021-05-21T08:37:53Z</time>
      </trkpt>
      <trkpt lat="42.3411030" lon="-8.6063260">
        <ele>31.2</ele>
        <time>2021-05-21T08:37:54Z</time>
      </trkpt>
      <trkpt lat="42.3411020" lon="-8.6063250">
        <ele>31.2</ele>
        <time>2021-05-21T08:37:55Z</time>
      </trkpt>
      <trkpt lat="42.3411020" lon="-8.6063250">
        <ele>31.2</ele>
        <time>2021-05-21T08:37:56Z</time>
      </trkpt>
      <trkpt lat="42.3411010" lon="-8.6063240">
        <ele>31.2</ele>
        <time>2021-05-21T08:37:57Z</time>
      </trkpt>
      <trkpt lat="42.3411010" lon="-8.6063230">
        <ele>31.2</ele>
        <time>2021-05-21T08:37:58Z</time>
      </trkpt>
      <trkpt lat="42.3411000" lon="-8.6063220">
        <ele>31.2</ele>
        <time>2021-05-21T08:37:59Z</time>
      </trkpt>
      <trkpt lat="42.3411000" lon="-8.6063210">
        <ele>31.2</ele>
        <time>2021-05-21T08:38:00Z</time>
      </trkpt>
      <trkpt lat="42.3410990" lon="-8.6063200">
        <ele>31.2</ele>
        <time>2021-05-21T08:38:01Z</time>
      </trkpt>
      <trkpt lat="42.3410970" lon="-8.6063250">
        <ele>31.2</ele>
        <time>2021-05-21T08:38:02Z</time>
      </trkpt>
      <trkpt lat="42.3410940" lon="-8.6063260">
        <ele>31.2</ele>
        <time>2021-05-21T08:38:03Z</time>
      </trkpt>
      <trkpt lat="42.3410970" lon="-8.6063240">
        <ele>31.2</ele>
        <time>2021-05-21T08:38:04Z</time>
      </trkpt>
      <trkpt lat="42.3410980" lon="-8.6063250">
        <ele>31.2</ele>
        <time>2021-05-21T08:38:05Z</time>
      </trkpt>
      <trkpt lat="42.3411010" lon="-8.6063190">
        <ele>31.2</ele>
        <time>2021-05-21T08:38:06Z</time>
      </trkpt>
      <trkpt lat="42.3411000" lon="-8.6063220">
        <ele>31.2</ele>
        <time>2021-05-21T08:38:07Z</time>
      </trkpt>
      <trkpt lat="42.3411000" lon="-8.6063230">
        <ele>31.2</ele>
        <time>2021-05-21T08:38:08Z</time>
      </trkpt>
      <trkpt lat="42.3411000" lon="-8.6063220">
        <ele>31.2</ele>
        <time>2021-05-21T08:38:09Z</time>
      </trkpt>
      <trkpt lat="42.3411000" lon="-8.6063210">
        <ele>31.2</ele>
        <time>2021-05-21T08:38:10Z</time>
      </trkpt>
      <trkpt lat="42.3411010" lon="-8.6063350">
        <ele>31.2</ele>
        <time>2021-05-21T08:38:11Z</time>
      </trkpt>
      <trkpt lat="42.3410930" lon="-8.6063500">
        <ele>31.1</ele>
        <time>2021-05-21T08:38:12Z</time>
      </trkpt>
      <trkpt lat="42.3410930" lon="-8.6063550">
        <ele>31.1</ele>
        <time>2021-05-21T08:38:13Z</time>
      </trkpt>
      <trkpt lat="42.3410870" lon="-8.6063530">
        <ele>31.1</ele>
        <time>2021-05-21T08:38:14Z</time>
      </trkpt>
      <trkpt lat="42.3410910" lon="-8.6063620">
        <ele>31.1</ele>
        <time>2021-05-21T08:38:15Z</time>
      </trkpt>
      <trkpt lat="42.3410940" lon="-8.6063660">
        <ele>31.1</ele>
        <time>2021-05-21T08:38:16Z</time>
      </trkpt>
      <trkpt lat="42.3410910" lon="-8.6063750">
        <ele>31.1</ele>
        <time>2021-05-21T08:38:17Z</time>
      </trkpt>
      <trkpt lat="42.3410910" lon="-8.6063780">
        <ele>31.1</ele>
        <time>2021-05-21T08:38:18Z</time>
      </trkpt>
      <trkpt lat="42.3410880" lon="-8.6063940">
        <ele>31.1</ele>
        <time>2021-05-21T08:38:19Z</time>
      </trkpt>
      <trkpt lat="42.3410950" lon="-8.6063950">
        <ele>31.1</ele>
        <time>2021-05-21T08:38:20Z</time>
      </trkpt>
      <trkpt lat="42.3410990" lon="-8.6064010">
        <ele>31.1</ele>
        <time>2021-05-21T08:38:21Z</time>
      </trkpt>
      <trkpt lat="42.3410870" lon="-8.6063980">
        <ele>31.1</ele>
        <time>2021-05-21T08:38:22Z</time>
      </trkpt>
      <trkpt lat="42.3410870" lon="-8.6064050">
        <ele>31.1</ele>
        <time>2021-05-21T08:38:23Z</time>
      </trkpt>
      <trkpt lat="42.3410910" lon="-8.6064020">
        <ele>31.1</ele>
        <time>2021-05-21T08:38:24Z</time>
      </trkpt>
      <trkpt lat="42.3410910" lon="-8.6064020">
        <ele>31.1</ele>
        <time>2021-05-21T08:38:25Z</time>
      </trkpt>
      <trkpt lat="42.3410890" lon="-8.6064000">
        <ele>31.1</ele>
        <time>2021-05-21T08:38:26Z</time>
      </trkpt>
      <trkpt lat="42.3410830" lon="-8.6063960">
        <ele>31.1</ele>
        <time>2021-05-21T08:38:27Z</time>
      </trkpt>
      <trkpt lat="42.3410820" lon="-8.6063960">
        <ele>31.1</ele>
        <time>2021-05-21T08:38:28Z</time>
      </trkpt>
      <trkpt lat="42.3410910" lon="-8.6063890">
        <ele>31.1</ele>
        <time>2021-05-21T08:38:29Z</time>
      </trkpt>
      <trkpt lat="42.3410890" lon="-8.6063850">
        <ele>31.1</ele>
        <time>2021-05-21T08:38:30Z</time>
      </trkpt>
      <trkpt lat="42.3410950" lon="-8.6063870">
        <ele>31.1</ele>
        <time>2021-05-21T08:38:31Z</time>
      </trkpt>
      <trkpt lat="42.3411120" lon="-8.6063880">
        <ele>31.1</ele>
        <time>2021-05-21T08:38:32Z</time>
      </trkpt>
      <trkpt lat="42.3411140" lon="-8.6063920">
        <ele>31.1</ele>
        <time>2021-05-21T08:38:33Z</time>
      </trkpt>
      <trkpt lat="42.3411180" lon="-8.6063850">
        <ele>31.1</ele>
        <time>2021-05-21T08:38:34Z</time>
      </trkpt>
      <trkpt lat="42.3411030" lon="-8.6063630">
        <ele>31.0</ele>
        <time>2021-05-21T08:38:35Z</time>
      </trkpt>
      <trkpt lat="42.3410870" lon="-8.6063480">
        <ele>31.0</ele>
        <time>2021-05-21T08:38:36Z</time>
      </trkpt>
      <trkpt lat="42.3410870" lon="-8.6063480">
        <ele>31.0</ele>
        <time>2021-05-21T08:38:37Z</time>
      </trkpt>
      <trkpt lat="42.3410700" lon="-8.6063570">
        <ele>31.0</ele>
        <time>2021-05-21T08:38:38Z</time>
      </trkpt>
      <trkpt lat="42.3410630" lon="-8.6063590">
        <ele>31.0</ele>
        <time>2021-05-21T08:38:39Z</time>
      </trkpt>
      <trkpt lat="42.3410650" lon="-8.6063590">
        <ele>31.0</ele>
        <time>2021-05-21T08:38:40Z</time>
      </trkpt>
      <trkpt lat="42.3410660" lon="-8.6063590">
        <ele>31.0</ele>
        <time>2021-05-21T08:38:41Z</time>
      </trkpt>
      <trkpt lat="42.3410680" lon="-8.6063590">
        <ele>31.0</ele>
        <time>2021-05-21T08:38:42Z</time>
      </trkpt>
      <trkpt lat="42.3410690" lon="-8.6063590">
        <ele>31.0</ele>
        <time>2021-05-21T08:38:43Z</time>
      </trkpt>
      <trkpt lat="42.3410710" lon="-8.6063590">
        <ele>31.0</ele>
        <time>2021-05-21T08:38:44Z</time>
      </trkpt>
      <trkpt lat="42.3410720" lon="-8.6063590">
        <ele>31.0</ele>
        <time>2021-05-21T08:38:45Z</time>
      </trkpt>
      <trkpt lat="42.3410740" lon="-8.6063590">
        <ele>31.0</ele>
        <time>2021-05-21T08:38:46Z</time>
      </trkpt>
      <trkpt lat="42.3410750" lon="-8.6063590">
        <ele>31.0</ele>
        <time>2021-05-21T08:38:47Z</time>
      </trkpt>
      <trkpt lat="42.3410770" lon="-8.6063590">
        <ele>31.0</ele>
        <time>2021-05-21T08:38:48Z</time>
      </trkpt>
      <trkpt lat="42.3410780" lon="-8.6063590">
        <ele>31.0</ele>
        <time>2021-05-21T08:38:49Z</time>
      </trkpt>
      <trkpt lat="42.3410800" lon="-8.6063590">
        <ele>31.0</ele>
        <time>2021-05-21T08:38:50Z</time>
      </trkpt>
      <trkpt lat="42.3410810" lon="-8.6063590">
        <ele>31.0</ele>
        <time>2021-05-21T08:38:51Z</time>
      </trkpt>
      <trkpt lat="42.3410830" lon="-8.6063590">
        <ele>31.0</ele>
        <time>2021-05-21T08:38:52Z</time>
      </trkpt>
      <trkpt lat="42.3410840" lon="-8.6063590">
        <ele>31.0</ele>
        <time>2021-05-21T08:38:53Z</time>
      </trkpt>
      <trkpt lat="42.3410860" lon="-8.6063590">
        <ele>31.0</ele>
        <time>2021-05-21T08:38:54Z</time>
      </trkpt>
      <trkpt lat="42.3410870" lon="-8.6063590">
        <ele>31.0</ele>
        <time>2021-05-21T08:38:55Z</time>
      </trkpt>
      <trkpt lat="42.3410890" lon="-8.6063590">
        <ele>31.0</ele>
        <time>2021-05-21T08:38:56Z</time>
      </trkpt>
      <trkpt lat="42.3410900" lon="-8.6063590">
        <ele>31.0</ele>
        <time>2021-05-21T08:38:57Z</time>
      </trkpt>
      <trkpt lat="42.3410920" lon="-8.6063590">
        <ele>31.0</ele>
        <time>2021-05-21T08:38:58Z</time>
      </trkpt>
      <trkpt lat="42.3410930" lon="-8.6063590">
        <ele>31.0</ele>
        <time>2021-05-21T08:38:59Z</time>
      </trkpt>
      <trkpt lat="42.3410950" lon="-8.6063590">
        <ele>31.0</ele>
        <time>2021-05-21T08:39:00Z</time>
      </trkpt>
      <trkpt lat="42.3410960" lon="-8.6063590">
        <ele>31.0</ele>
        <time>2021-05-21T08:39:01Z</time>
      </trkpt>
      <trkpt lat="42.3410980" lon="-8.6063590">
        <ele>31.0</ele>
        <time>2021-05-21T08:39:02Z</time>
      </trkpt>
      <trkpt lat="42.3410990" lon="-8.6063590">
        <ele>31.0</ele>
        <time>2021-05-21T08:39:03Z</time>
      </trkpt>
      <trkpt lat="42.3411010" lon="-8.6063590">
        <ele>31.0</ele>
        <time>2021-05-21T08:39:04Z</time>
      </trkpt>
      <trkpt lat="42.3411020" lon="-8.6063590">
        <ele>31.0</ele>
        <time>2021-05-21T08:39:05Z</time>
      </trkpt>
      <trkpt lat="42.3411040" lon="-8.6063590">
        <ele>31.0</ele>
        <time>2021-05-21T08:39:06Z</time>
      </trkpt>
      <trkpt lat="42.3411050" lon="-8.6063590">
        <ele>31.0</ele>
        <time>2021-05-21T08:39:07Z</time>
      </trkpt>
      <trkpt lat="42.3411070" lon="-8.6063590">
        <ele>31.0</ele>
        <time>2021-05-21T08:39:08Z</time>
      </trkpt>
      <trkpt lat="42.3411080" lon="-8.6063590">
        <ele>31.0</ele>
        <time>2021-05-21T08:39:09Z</time>
      </trkpt>
      <trkpt lat="42.3410950" lon="-8.6063530">
        <ele>31.0</ele>
        <time>2021-05-21T08:39:10Z</time>
      </trkpt>
      <trkpt lat="42.3410920" lon="-8.6063440">
        <ele>31.0</ele>
        <time>2021-05-21T08:39:11Z</time>
      </trkpt>
      <trkpt lat="42.3410900" lon="-8.6063360">
        <ele>31.0</ele>
        <time>2021-05-21T08:39:12Z</time>
      </trkpt>
      <trkpt lat="42.3410870" lon="-8.6063270">
        <ele>31.0</ele>
        <time>2021-05-21T08:39:13Z</time>
      </trkpt>
      <trkpt lat="42.3410840" lon="-8.6063180">
        <ele>30.9</ele>
        <time>2021-05-21T08:39:14Z</time>
      </trkpt>
      <trkpt lat="42.3410760" lon="-8.6063130">
        <ele>30.9</ele>
        <time>2021-05-21T08:39:15Z</time>
      </trkpt>
      <trkpt lat="42.3410720" lon="-8.6063060">
        <ele>30.9</ele>
        <time>2021-05-21T08:39:16Z</time>
      </trkpt>
      <trkpt lat="42.3410690" lon="-8.6062990">
        <ele>30.9</ele>
        <time>2021-05-21T08:39:17Z</time>
      </trkpt>
      <trkpt lat="42.3410650" lon="-8.6062930">
        <ele>30.9</ele>
        <time>2021-05-21T08:39:18Z</time>
      </trkpt>
      <trkpt lat="42.3410620" lon="-8.6062860">
        <ele>30.9</ele>
        <time>2021-05-21T08:39:19Z</time>
      </trkpt>
      <trkpt lat="42.3410580" lon="-8.6062790">
        <ele>30.9</ele>
        <time>2021-05-21T08:39:20Z</time>
      </trkpt>
      <trkpt lat="42.3410580" lon="-8.6062790">
        <ele>30.9</ele>
        <time>2021-05-21T08:39:21Z</time>
      </trkpt>
      <trkpt lat="42.3410580" lon="-8.6062790">
        <ele>30.9</ele>
        <time>2021-05-21T08:39:22Z</time>
      </trkpt>
      <trkpt lat="42.3410580" lon="-8.6062790">
        <ele>30.9</ele>
        <time>2021-05-21T08:39:23Z</time>
      </trkpt>
      <trkpt lat="42.3410580" lon="-8.6062790">
        <ele>30.9</ele>
        <time>2021-05-21T08:39:24Z</time>
      </trkpt>
      <trkpt lat="42.3410580" lon="-8.6062790">
        <ele>30.9</ele>
        <time>2021-05-21T08:39:25Z</time>
      </trkpt>
      <trkpt lat="42.3410580" lon="-8.6062790">
        <ele>30.9</ele>
        <time>2021-05-21T08:39:26Z</time>
      </trkpt>
      <trkpt lat="42.3410580" lon="-8.6062790">
        <ele>30.9</ele>
        <time>2021-05-21T08:39:27Z</time>
      </trkpt>
      <trkpt lat="42.3410580" lon="-8.6062790">
        <ele>30.9</ele>
        <time>2021-05-21T08:39:28Z</time>
      </trkpt>
      <trkpt lat="42.3410240" lon="-8.6062930">
        <ele>30.9</ele>
        <time>2021-05-21T08:39:29Z</time>
      </trkpt>
      <trkpt lat="42.3410340" lon="-8.6062940">
        <ele>30.9</ele>
        <time>2021-05-21T08:39:30Z</time>
      </trkpt>
      <trkpt lat="42.3410330" lon="-8.6062960">
        <ele>30.9</ele>
        <time>2021-05-21T08:39:31Z</time>
      </trkpt>
      <trkpt lat="42.3410330" lon="-8.6062990">
        <ele>30.9</ele>
        <time>2021-05-21T08:39:32Z</time>
      </trkpt>
      <trkpt lat="42.3410320" lon="-8.6063010">
        <ele>30.9</ele>
        <time>2021-05-21T08:39:33Z</time>
      </trkpt>
      <trkpt lat="42.3410320" lon="-8.6063040">
        <ele>30.9</ele>
        <time>2021-05-21T08:39:34Z</time>
      </trkpt>
      <trkpt lat="42.3410310" lon="-8.6063060">
        <ele>30.9</ele>
        <time>2021-05-21T08:39:35Z</time>
      </trkpt>
      <trkpt lat="42.3410310" lon="-8.6063090">
        <ele>30.9</ele>
        <time>2021-05-21T08:39:36Z</time>
      </trkpt>
      <trkpt lat="42.3410300" lon="-8.6063110">
        <ele>30.9</ele>
        <time>2021-05-21T08:39:37Z</time>
      </trkpt>
      <trkpt lat="42.3410300" lon="-8.6063140">
        <ele>30.9</ele>
        <time>2021-05-21T08:39:38Z</time>
      </trkpt>
      <trkpt lat="42.3410290" lon="-8.6063160">
        <ele>30.9</ele>
        <time>2021-05-21T08:39:39Z</time>
      </trkpt>
      <trkpt lat="42.3410290" lon="-8.6063190">
        <ele>30.9</ele>
        <time>2021-05-21T08:39:40Z</time>
      </trkpt>
      <trkpt lat="42.3410280" lon="-8.6063210">
        <ele>30.9</ele>
        <time>2021-05-21T08:39:41Z</time>
      </trkpt>
      <trkpt lat="42.3410280" lon="-8.6063240">
        <ele>30.9</ele>
        <time>2021-05-21T08:39:42Z</time>
      </trkpt>
      <trkpt lat="42.3410270" lon="-8.6063260">
        <ele>30.9</ele>
        <time>2021-05-21T08:39:43Z</time>
      </trkpt>
      <trkpt lat="42.3410270" lon="-8.6063290">
        <ele>30.9</ele>
        <time>2021-05-21T08:39:44Z</time>
      </trkpt>
      <trkpt lat="42.3410260" lon="-8.6063310">
        <ele>30.9</ele>
        <time>2021-05-21T08:39:45Z</time>
      </trkpt>
      <trkpt lat="42.3410260" lon="-8.6063340">
        <ele>30.9</ele>
        <time>2021-05-21T08:39:46Z</time>
      </trkpt>
      <trkpt lat="42.3410250" lon="-8.6063360">
        <ele>30.9</ele>
        <time>2021-05-21T08:39:47Z</time>
      </trkpt>
      <trkpt lat="42.3410250" lon="-8.6063390">
        <ele>30.9</ele>
        <time>2021-05-21T08:39:48Z</time>
      </trkpt>
      <trkpt lat="42.3410240" lon="-8.6063420">
        <ele>30.9</ele>
        <time>2021-05-21T08:39:49Z</time>
      </trkpt>
      <trkpt lat="42.3410240" lon="-8.6063440">
        <ele>30.9</ele>
        <time>2021-05-21T08:39:50Z</time>
      </trkpt>
      <trkpt lat="42.3410230" lon="-8.6063470">
        <ele>30.9</ele>
        <time>2021-05-21T08:39:51Z</time>
      </trkpt>
      <trkpt lat="42.3410230" lon="-8.6063490">
        <ele>30.9</ele>
        <time>2021-05-21T08:39:52Z</time>
      </trkpt>
      <trkpt lat="42.3410220" lon="-8.6063520">
        <ele>30.9</ele>
        <time>2021-05-21T08:39:53Z</time>
      </trkpt>
      <trkpt lat="42.3410220" lon="-8.6063540">
        <ele>30.9</ele>
        <time>2021-05-21T08:39:54Z</time>
      </trkpt>
      <trkpt lat="42.3410210" lon="-8.6063570">
        <ele>30.9</ele>
        <time>2021-05-21T08:39:55Z</time>
      </trkpt>
      <trkpt lat="42.3410210" lon="-8.6063590">
        <ele>30.9</ele>
        <time>2021-05-21T08:39:56Z</time>
      </trkpt>
      <trkpt lat="42.3410200" lon="-8.6063620">
        <ele>30.9</ele>
        <time>2021-05-21T08:39:57Z</time>
      </trkpt>
      <trkpt lat="42.3410200" lon="-8.6063640">
        <ele>30.9</ele>
        <time>2021-05-21T08:39:58Z</time>
      </trkpt>
      <trkpt lat="42.3410190" lon="-8.6063670">
        <ele>30.9</ele>
        <time>2021-05-21T08:39:59Z</time>
      </trkpt>
      <trkpt lat="42.3410190" lon="-8.6063690">
        <ele>30.8</ele>
        <time>2021-05-21T08:40:00Z</time>
      </trkpt>
      <trkpt lat="42.3410180" lon="-8.6063720">
        <ele>30.8</ele>
        <time>2021-05-21T08:40:01Z</time>
      </trkpt>
      <trkpt lat="42.3410180" lon="-8.6063740">
        <ele>30.8</ele>
        <time>2021-05-21T08:40:02Z</time>
      </trkpt>
      <trkpt lat="42.3410170" lon="-8.6063770">
        <ele>30.8</ele>
        <time>2021-05-21T08:40:03Z</time>
      </trkpt>
      <trkpt lat="42.3410170" lon="-8.6063790">
        <ele>30.8</ele>
        <time>2021-05-21T08:40:04Z</time>
      </trkpt>
      <trkpt lat="42.3410160" lon="-8.6063820">
        <ele>30.8</ele>
        <time>2021-05-21T08:40:05Z</time>
      </trkpt>
      <trkpt lat="42.3410160" lon="-8.6063840">
        <ele>30.8</ele>
        <time>2021-05-21T08:40:06Z</time>
      </trkpt>
      <trkpt lat="42.3410150" lon="-8.6063870">
        <ele>30.8</ele>
        <time>2021-05-21T08:40:07Z</time>
      </trkpt>
      <trkpt lat="42.3410150" lon="-8.6063890">
        <ele>30.8</ele>
        <time>2021-05-21T08:40:08Z</time>
      </trkpt>
      <trkpt lat="42.3410150" lon="-8.6063920">
        <ele>30.8</ele>
        <time>2021-05-21T08:40:09Z</time>
      </trkpt>
      <trkpt lat="42.3410140" lon="-8.6063950">
        <ele>30.8</ele>
        <time>2021-05-21T08:40:10Z</time>
      </trkpt>
      <trkpt lat="42.3410140" lon="-8.6063970">
        <ele>30.8</ele>
        <time>2021-05-21T08:40:11Z</time>
      </trkpt>
      <trkpt lat="42.3410130" lon="-8.6064000">
        <ele>30.8</ele>
        <time>2021-05-21T08:40:12Z</time>
      </trkpt>
      <trkpt lat="42.3410130" lon="-8.6064020">
        <ele>30.8</ele>
        <time>2021-05-21T08:40:13Z</time>
      </trkpt>
      <trkpt lat="42.3410120" lon="-8.6064050">
        <ele>30.8</ele>
        <time>2021-05-21T08:40:14Z</time>
      </trkpt>
      <trkpt lat="42.3410120" lon="-8.6064070">
        <ele>30.8</ele>
        <time>2021-05-21T08:40:15Z</time>
      </trkpt>
      <trkpt lat="42.3410110" lon="-8.6064100">
        <ele>30.8</ele>
        <time>2021-05-21T08:40:16Z</time>
      </trkpt>
      <trkpt lat="42.3410110" lon="-8.6064120">
        <ele>30.8</ele>
        <time>2021-05-21T08:40:17Z</time>
      </trkpt>
      <trkpt lat="42.3410100" lon="-8.6064150">
        <ele>30.8</ele>
        <time>2021-05-21T08:40:18Z</time>
      </trkpt>
      <trkpt lat="42.3410100" lon="-8.6064170">
        <ele>30.8</ele>
        <time>2021-05-21T08:40:19Z</time>
      </trkpt>
      <trkpt lat="42.3410090" lon="-8.6064200">
        <ele>30.8</ele>
        <time>2021-05-21T08:40:20Z</time>
      </trkpt>
      <trkpt lat="42.3410090" lon="-8.6064220">
        <ele>30.8</ele>
        <time>2021-05-21T08:40:21Z</time>
      </trkpt>
      <trkpt lat="42.3410080" lon="-8.6064250">
        <ele>30.8</ele>
        <time>2021-05-21T08:40:22Z</time>
      </trkpt>
      <trkpt lat="42.3410080" lon="-8.6064270">
        <ele>30.8</ele>
        <time>2021-05-21T08:40:23Z</time>
      </trkpt>
      <trkpt lat="42.3410070" lon="-8.6064300">
        <ele>30.8</ele>
        <time>2021-05-21T08:40:24Z</time>
      </trkpt>
      <trkpt lat="42.3410070" lon="-8.6064320">
        <ele>30.8</ele>
        <time>2021-05-21T08:40:25Z</time>
      </trkpt>
      <trkpt lat="42.3410060" lon="-8.6064350">
        <ele>30.8</ele>
        <time>2021-05-21T08:40:26Z</time>
      </trkpt>
      <trkpt lat="42.3410060" lon="-8.6064370">
        <ele>30.8</ele>
        <time>2021-05-21T08:40:27Z</time>
      </trkpt>
      <trkpt lat="42.3410050" lon="-8.6064400">
        <ele>30.8</ele>
        <time>2021-05-21T08:40:28Z</time>
      </trkpt>
      <trkpt lat="42.3410050" lon="-8.6064430">
        <ele>30.8</ele>
        <time>2021-05-21T08:40:29Z</time>
      </trkpt>
      <trkpt lat="42.3410040" lon="-8.6064450">
        <ele>30.8</ele>
        <time>2021-05-21T08:40:30Z</time>
      </trkpt>
      <trkpt lat="42.3410040" lon="-8.6064480">
        <ele>30.8</ele>
        <time>2021-05-21T08:40:31Z</time>
      </trkpt>
      <trkpt lat="42.3410030" lon="-8.6064500">
        <ele>30.8</ele>
        <time>2021-05-21T08:40:32Z</time>
      </trkpt>
      <trkpt lat="42.3410030" lon="-8.6064530">
        <ele>30.8</ele>
        <time>2021-05-21T08:40:33Z</time>
      </trkpt>
      <trkpt lat="42.3410020" lon="-8.6064550">
        <ele>30.8</ele>
        <time>2021-05-21T08:40:34Z</time>
      </trkpt>
      <trkpt lat="42.3410020" lon="-8.6064580">
        <ele>30.8</ele>
        <time>2021-05-21T08:40:35Z</time>
      </trkpt>
      <trkpt lat="42.3410010" lon="-8.6064600">
        <ele>30.8</ele>
        <time>2021-05-21T08:40:36Z</time>
      </trkpt>
      <trkpt lat="42.3410010" lon="-8.6064630">
        <ele>30.8</ele>
        <time>2021-05-21T08:40:37Z</time>
      </trkpt>
      <trkpt lat="42.3410000" lon="-8.6064650">
        <ele>30.8</ele>
        <time>2021-05-21T08:40:38Z</time>
      </trkpt>
      <trkpt lat="42.3410000" lon="-8.6064680">
        <ele>30.8</ele>
        <time>2021-05-21T08:40:39Z</time>
      </trkpt>
      <trkpt lat="42.3409990" lon="-8.6064700">
        <ele>30.8</ele>
        <time>2021-05-21T08:40:40Z</time>
      </trkpt>
      <trkpt lat="42.3409990" lon="-8.6064730">
        <ele>30.8</ele>
        <time>2021-05-21T08:40:41Z</time>
      </trkpt>
      <trkpt lat="42.3409980" lon="-8.6064750">
        <ele>30.8</ele>
        <time>2021-05-21T08:40:42Z</time>
      </trkpt>
      <trkpt lat="42.3409980" lon="-8.6064780">
        <ele>30.8</ele>
        <time>2021-05-21T08:40:43Z</time>
      </trkpt>
      <trkpt lat="42.3409970" lon="-8.6064800">
        <ele>30.8</ele>
        <time>2021-05-21T08:40:44Z</time>
      </trkpt>
      <trkpt lat="42.3409970" lon="-8.6064830">
        <ele>30.8</ele>
        <time>2021-05-21T08:40:45Z</time>
      </trkpt>
      <trkpt lat="42.3409960" lon="-8.6064850">
        <ele>30.8</ele>
        <time>2021-05-21T08:40:46Z</time>
      </trkpt>
      <trkpt lat="42.3409960" lon="-8.6064880">
        <ele>30.8</ele>
        <time>2021-05-21T08:40:47Z</time>
      </trkpt>
      <trkpt lat="42.3409950" lon="-8.6064900">
        <ele>30.8</ele>
        <time>2021-05-21T08:40:48Z</time>
      </trkpt>
      <trkpt lat="42.3409950" lon="-8.6064930">
        <ele>30.8</ele>
        <time>2021-05-21T08:40:49Z</time>
      </trkpt>
      <trkpt lat="42.3409950" lon="-8.6065000">
        <ele>30.8</ele>
        <time>2021-05-21T08:40:50Z</time>
      </trkpt>
      <trkpt lat="42.3410010" lon="-8.6065310">
        <ele>30.8</ele>
        <time>2021-05-21T08:40:51Z</time>
      </trkpt>
      <trkpt lat="42.3410130" lon="-8.6065430">
        <ele>30.8</ele>
        <time>2021-05-21T08:40:52Z</time>
      </trkpt>
      <trkpt lat="42.3410210" lon="-8.6065500">
        <ele>30.7</ele>
        <time>2021-05-21T08:40:53Z</time>
      </trkpt>
      <trkpt lat="42.3410190" lon="-8.6065470">
        <ele>30.7</ele>
        <time>2021-05-21T08:40:54Z</time>
      </trkpt>
      <trkpt lat="42.3410260" lon="-8.6065530">
        <ele>30.7</ele>
        <time>2021-05-21T08:40:55Z</time>
      </trkpt>
      <trkpt lat="42.3410390" lon="-8.6065610">
        <ele>30.7</ele>
        <time>2021-05-21T08:40:56Z</time>
      </trkpt>
      <trkpt lat="42.3410390" lon="-8.6065610">
        <ele>30.7</ele>
        <time>2021-05-21T08:40:57Z</time>
      </trkpt>
      <trkpt lat="42.3410490" lon="-8.6065720">
        <ele>30.7</ele>
        <time>2021-05-21T08:40:58Z</time>
      </trkpt>
      <trkpt lat="42.3410490" lon="-8.6065720">
        <ele>30.7</ele>
        <time>2021-05-21T08:40:59Z</time>
      </trkpt>
      <trkpt lat="42.3410340" lon="-8.6065540">
        <ele>30.7</ele>
        <time>2021-05-21T08:41:00Z</time>
      </trkpt>
      <trkpt lat="42.3410180" lon="-8.6065360">
        <ele>30.7</ele>
        <time>2021-05-21T08:41:01Z</time>
      </trkpt>
      <trkpt lat="42.3410240" lon="-8.6065410">
        <ele>30.7</ele>
        <time>2021-05-21T08:41:02Z</time>
      </trkpt>
      <trkpt lat="42.3410310" lon="-8.6065460">
        <ele>30.7</ele>
        <time>2021-05-21T08:41:03Z</time>
      </trkpt>
      <trkpt lat="42.3410370" lon="-8.6065510">
        <ele>30.7</ele>
        <time>2021-05-21T08:41:04Z</time>
      </trkpt>
      <trkpt lat="42.3410430" lon="-8.6065550">
        <ele>30.7</ele>
        <time>2021-05-21T08:41:05Z</time>
      </trkpt>
      <trkpt lat="42.3410490" lon="-8.6065600">
        <ele>30.7</ele>
        <time>2021-05-21T08:41:06Z</time>
      </trkpt>
      <trkpt lat="42.3410560" lon="-8.6065650">
        <ele>30.7</ele>
        <time>2021-05-21T08:41:07Z</time>
      </trkpt>
      <trkpt lat="42.3410620" lon="-8.6065700">
        <ele>30.7</ele>
        <time>2021-05-21T08:41:08Z</time>
      </trkpt>
      <trkpt lat="42.3410680" lon="-8.6065750">
        <ele>30.7</ele>
        <time>2021-05-21T08:41:09Z</time>
      </trkpt>
      <trkpt lat="42.3410430" lon="-8.6065510">
        <ele>30.6</ele>
        <time>2021-05-21T08:41:10Z</time>
      </trkpt>
      <trkpt lat="42.3410160" lon="-8.6065300">
        <ele>30.6</ele>
        <time>2021-05-21T08:41:11Z</time>
      </trkpt>
      <trkpt lat="42.3409880" lon="-8.6065100">
        <ele>30.6</ele>
        <time>2021-05-21T08:41:12Z</time>
      </trkpt>
      <trkpt lat="42.3409600" lon="-8.6064890">
        <ele>30.6</ele>
        <time>2021-05-21T08:41:13Z</time>
      </trkpt>
      <trkpt lat="42.3409520" lon="-8.6064790">
        <ele>30.6</ele>
        <time>2021-05-21T08:41:14Z</time>
      </trkpt>
      <trkpt lat="42.3409450" lon="-8.6064680">
        <ele>30.6</ele>
        <time>2021-05-21T08:41:15Z</time>
      </trkpt>
      <trkpt lat="42.3409370" lon="-8.6064580">
        <ele>30.5</ele>
        <time>2021-05-21T08:41:16Z</time>
      </trkpt>
      <trkpt lat="42.3409300" lon="-8.6064470">
        <ele>30.5</ele>
        <time>2021-05-21T08:41:17Z</time>
      </trkpt>
      <trkpt lat="42.3409220" lon="-8.6064370">
        <ele>30.5</ele>
        <time>2021-05-21T08:41:18Z</time>
      </trkpt>
      <trkpt lat="42.3409150" lon="-8.6064260">
        <ele>30.5</ele>
        <time>2021-05-21T08:41:19Z</time>
      </trkpt>
      <trkpt lat="42.3409070" lon="-8.6064160">
        <ele>30.5</ele>
        <time>2021-05-21T08:41:20Z</time>
      </trkpt>
      <trkpt lat="42.3409020" lon="-8.6064100">
        <ele>30.5</ele>
        <time>2021-05-21T08:41:21Z</time>
      </trkpt>
      <trkpt lat="42.3409020" lon="-8.6064100">
        <ele>30.5</ele>
        <time>2021-05-21T08:41:22Z</time>
      </trkpt>
      <trkpt lat="42.3409100" lon="-8.6064130">
        <ele>30.5</ele>
        <time>2021-05-21T08:41:23Z</time>
      </trkpt>
      <trkpt lat="42.3409110" lon="-8.6064250">
        <ele>30.5</ele>
        <time>2021-05-21T08:41:24Z</time>
      </trkpt>
      <trkpt lat="42.3409170" lon="-8.6064320">
        <ele>30.5</ele>
        <time>2021-05-21T08:41:25Z</time>
      </trkpt>
      <trkpt lat="42.3409190" lon="-8.6064240">
        <ele>30.5</ele>
        <time>2021-05-21T08:41:26Z</time>
      </trkpt>
      <trkpt lat="42.3409170" lon="-8.6064220">
        <ele>30.5</ele>
        <time>2021-05-21T08:41:27Z</time>
      </trkpt>
      <trkpt lat="42.3409210" lon="-8.6064190">
        <ele>30.5</ele>
        <time>2021-05-21T08:41:28Z</time>
      </trkpt>
      <trkpt lat="42.3409290" lon="-8.6064200">
        <ele>30.5</ele>
        <time>2021-05-21T08:41:29Z</time>
      </trkpt>
      <trkpt lat="42.3409390" lon="-8.6064170">
        <ele>30.5</ele>
        <time>2021-05-21T08:41:30Z</time>
      </trkpt>
      <trkpt lat="42.3409440" lon="-8.6064220">
        <ele>30.5</ele>
        <time>2021-05-21T08:41:31Z</time>
      </trkpt>
      <trkpt lat="42.3409310" lon="-8.6064040">
        <ele>30.5</ele>
        <time>2021-05-21T08:41:32Z</time>
      </trkpt>
      <trkpt lat="42.3409310" lon="-8.6064080">
        <ele>30.5</ele>
        <time>2021-05-21T08:41:33Z</time>
      </trkpt>
      <trkpt lat="42.3409330" lon="-8.6064100">
        <ele>30.5</ele>
        <time>2021-05-21T08:41:34Z</time>
      </trkpt>
      <trkpt lat="42.3409330" lon="-8.6064100">
        <ele>30.5</ele>
        <time>2021-05-21T08:41:35Z</time>
      </trkpt>
      <trkpt lat="42.3409530" lon="-8.6064360">
        <ele>30.4</ele>
        <time>2021-05-21T08:41:36Z</time>
      </trkpt>
      <trkpt lat="42.3409590" lon="-8.6064330">
        <ele>30.4</ele>
        <time>2021-05-21T08:41:37Z</time>
      </trkpt>
      <trkpt lat="42.3409510" lon="-8.6064200">
        <ele>30.4</ele>
        <time>2021-05-21T08:41:38Z</time>
      </trkpt>
      <trkpt lat="42.3409330" lon="-8.6064050">
        <ele>30.4</ele>
        <time>2021-05-21T08:41:39Z</time>
      </trkpt>
      <trkpt lat="42.3409300" lon="-8.6063920">
        <ele>30.4</ele>
        <time>2021-05-21T08:41:40Z</time>
      </trkpt>
      <trkpt lat="42.3409220" lon="-8.6063810">
        <ele>30.4</ele>
        <time>2021-05-21T08:41:41Z</time>
      </trkpt>
      <trkpt lat="42.3409160" lon="-8.6063800">
        <ele>30.4</ele>
        <time>2021-05-21T08:41:42Z</time>
      </trkpt>
      <trkpt lat="42.3409360" lon="-8.6064020">
        <ele>30.4</ele>
        <time>2021-05-21T08:41:43Z</time>
      </trkpt>
      <trkpt lat="42.3409330" lon="-8.6063850">
        <ele>30.4</ele>
        <time>2021-05-21T08:41:44Z</time>
      </trkpt>
      <trkpt lat="42.3409560" lon="-8.6063980">
        <ele>30.4</ele>
        <time>2021-05-21T08:41:45Z</time>
      </trkpt>
      <trkpt lat="42.3409850" lon="-8.6064250">
        <ele>30.3</ele>
        <time>2021-05-21T08:41:46Z</time>
      </trkpt>
      <trkpt lat="42.3410100" lon="-8.6064460">
        <ele>30.3</ele>
        <time>2021-05-21T08:41:47Z</time>
      </trkpt>
      <trkpt lat="42.3410470" lon="-8.6064620">
        <ele>30.3</ele>
        <time>2021-05-21T08:41:48Z</time>
      </trkpt>
      <trkpt lat="42.3410660" lon="-8.6064710">
        <ele>30.3</ele>
        <time>2021-05-21T08:41:49Z</time>
      </trkpt>
      <trkpt lat="42.3410830" lon="-8.6064670">
        <ele>30.3</ele>
        <time>2021-05-21T08:41:50Z</time>
      </trkpt>
      <trkpt lat="42.3410910" lon="-8.6064560">
        <ele>30.2</ele>
        <time>2021-05-21T08:41:51Z</time>
      </trkpt>
      <trkpt lat="42.3410900" lon="-8.6064440">
        <ele>30.2</ele>
        <time>2021-05-21T08:41:52Z</time>
      </trkpt>
      <trkpt lat="42.3410970" lon="-8.6064340">
        <ele>30.2</ele>
        <time>2021-05-21T08:41:53Z</time>
      </trkpt>
      <trkpt lat="42.3411070" lon="-8.6064370">
        <ele>30.2</ele>
        <time>2021-05-21T08:41:54Z</time>
      </trkpt>
      <trkpt lat="42.3411060" lon="-8.6064350">
        <ele>30.2</ele>
        <time>2021-05-21T08:41:55Z</time>
      </trkpt>
      <trkpt lat="42.3411050" lon="-8.6064340">
        <ele>30.2</ele>
        <time>2021-05-21T08:41:56Z</time>
      </trkpt>
      <trkpt lat="42.3411040" lon="-8.6064330">
        <ele>30.2</ele>
        <time>2021-05-21T08:41:57Z</time>
      </trkpt>
      <trkpt lat="42.3411030" lon="-8.6064310">
        <ele>30.2</ele>
        <time>2021-05-21T08:41:58Z</time>
      </trkpt>
      <trkpt lat="42.3411020" lon="-8.6064300">
        <ele>30.2</ele>
        <time>2021-05-21T08:41:59Z</time>
      </trkpt>
      <trkpt lat="42.3411010" lon="-8.6064280">
        <ele>30.2</ele>
        <time>2021-05-21T08:42:00Z</time>
      </trkpt>
      <trkpt lat="42.3411000" lon="-8.6064270">
        <ele>30.2</ele>
        <time>2021-05-21T08:42:01Z</time>
      </trkpt>
      <trkpt lat="42.3410990" lon="-8.6064260">
        <ele>30.2</ele>
        <time>2021-05-21T08:42:02Z</time>
      </trkpt>
      <trkpt lat="42.3410990" lon="-8.6064240">
        <ele>30.2</ele>
        <time>2021-05-21T08:42:03Z</time>
      </trkpt>
      <trkpt lat="42.3410980" lon="-8.6064230">
        <ele>30.2</ele>
        <time>2021-05-21T08:42:04Z</time>
      </trkpt>
      <trkpt lat="42.3410970" lon="-8.6064220">
        <ele>30.2</ele>
        <time>2021-05-21T08:42:05Z</time>
      </trkpt>
      <trkpt lat="42.3410960" lon="-8.6064200">
        <ele>30.2</ele>
        <time>2021-05-21T08:42:06Z</time>
      </trkpt>
      <trkpt lat="42.3410950" lon="-8.6064190">
        <ele>30.2</ele>
        <time>2021-05-21T08:42:07Z</time>
      </trkpt>
      <trkpt lat="42.3410940" lon="-8.6064180">
        <ele>30.2</ele>
        <time>2021-05-21T08:42:08Z</time>
      </trkpt>
      <trkpt lat="42.3410930" lon="-8.6064160">
        <ele>30.2</ele>
        <time>2021-05-21T08:42:09Z</time>
      </trkpt>
      <trkpt lat="42.3410920" lon="-8.6064150">
        <ele>30.2</ele>
        <time>2021-05-21T08:42:11Z</time>
      </trkpt>
      <trkpt lat="42.3410910" lon="-8.6064140">
        <ele>30.2</ele>
        <time>2021-05-21T08:42:12Z</time>
      </trkpt>
      <trkpt lat="42.3410900" lon="-8.6064120">
        <ele>30.2</ele>
        <time>2021-05-21T08:42:13Z</time>
      </trkpt>
      <trkpt lat="42.3410890" lon="-8.6064110">
        <ele>30.2</ele>
        <time>2021-05-21T08:42:14Z</time>
      </trkpt>
      <trkpt lat="42.3410880" lon="-8.6064090">
        <ele>30.2</ele>
        <time>2021-05-21T08:42:15Z</time>
      </trkpt>
      <trkpt lat="42.3410870" lon="-8.6064080">
        <ele>30.2</ele>
        <time>2021-05-21T08:42:16Z</time>
      </trkpt>
      <trkpt lat="42.3410860" lon="-8.6064070">
        <ele>30.2</ele>
        <time>2021-05-21T08:42:17Z</time>
      </trkpt>
      <trkpt lat="42.3410850" lon="-8.6064050">
        <ele>30.2</ele>
        <time>2021-05-21T08:42:18Z</time>
      </trkpt>
      <trkpt lat="42.3410840" lon="-8.6064040">
        <ele>30.2</ele>
        <time>2021-05-21T08:42:19Z</time>
      </trkpt>
      <trkpt lat="42.3410830" lon="-8.6064030">
        <ele>30.2</ele>
        <time>2021-05-21T08:42:20Z</time>
      </trkpt>
      <trkpt lat="42.3410820" lon="-8.6064010">
        <ele>30.2</ele>
        <time>2021-05-21T08:42:21Z</time>
      </trkpt>
      <trkpt lat="42.3410810" lon="-8.6064000">
        <ele>30.2</ele>
        <time>2021-05-21T08:42:22Z</time>
      </trkpt>
      <trkpt lat="42.3410800" lon="-8.6063990">
        <ele>30.2</ele>
        <time>2021-05-21T08:42:23Z</time>
      </trkpt>
      <trkpt lat="42.3410800" lon="-8.6063970">
        <ele>30.2</ele>
        <time>2021-05-21T08:42:24Z</time>
      </trkpt>
      <trkpt lat="42.3410790" lon="-8.6063960">
        <ele>30.2</ele>
        <time>2021-05-21T08:42:25Z</time>
      </trkpt>
      <trkpt lat="42.3410780" lon="-8.6063940">
        <ele>30.2</ele>
        <time>2021-05-21T08:42:26Z</time>
      </trkpt>
      <trkpt lat="42.3410770" lon="-8.6063930">
        <ele>30.2</ele>
        <time>2021-05-21T08:42:27Z</time>
      </trkpt>
      <trkpt lat="42.3410760" lon="-8.6063920">
        <ele>30.2</ele>
        <time>2021-05-21T08:42:28Z</time>
      </trkpt>
      <trkpt lat="42.3410750" lon="-8.6063900">
        <ele>30.2</ele>
        <time>2021-05-21T08:42:29Z</time>
      </trkpt>
      <trkpt lat="42.3410740" lon="-8.6063890">
        <ele>30.2</ele>
        <time>2021-05-21T08:42:30Z</time>
      </trkpt>
      <trkpt lat="42.3410730" lon="-8.6063880">
        <ele>30.2</ele>
        <time>2021-05-21T08:42:31Z</time>
      </trkpt>
      <trkpt lat="42.3410720" lon="-8.6063860">
        <ele>30.2</ele>
        <time>2021-05-21T08:42:32Z</time>
      </trkpt>
      <trkpt lat="42.3410710" lon="-8.6063850">
        <ele>30.2</ele>
        <time>2021-05-21T08:42:33Z</time>
      </trkpt>
      <trkpt lat="42.3410700" lon="-8.6063840">
        <ele>30.2</ele>
        <time>2021-05-21T08:42:34Z</time>
      </trkpt>
      <trkpt lat="42.3410690" lon="-8.6063820">
        <ele>30.2</ele>
        <time>2021-05-21T08:42:36Z</time>
      </trkpt>
      <trkpt lat="42.3410680" lon="-8.6063810">
        <ele>30.2</ele>
        <time>2021-05-21T08:42:37Z</time>
      </trkpt>
      <trkpt lat="42.3410670" lon="-8.6063800">
        <ele>30.2</ele>
        <time>2021-05-21T08:42:38Z</time>
      </trkpt>
      <trkpt lat="42.3410660" lon="-8.6063780">
        <ele>30.2</ele>
        <time>2021-05-21T08:42:39Z</time>
      </trkpt>
      <trkpt lat="42.3410650" lon="-8.6063770">
        <ele>30.2</ele>
        <time>2021-05-21T08:42:40Z</time>
      </trkpt>
      <trkpt lat="42.3410640" lon="-8.6063750">
        <ele>30.2</ele>
        <time>2021-05-21T08:42:41Z</time>
      </trkpt>
      <trkpt lat="42.3410630" lon="-8.6063740">
        <ele>30.2</ele>
        <time>2021-05-21T08:42:42Z</time>
      </trkpt>
      <trkpt lat="42.3410620" lon="-8.6063730">
        <ele>30.2</ele>
        <time>2021-05-21T08:42:43Z</time>
      </trkpt>
      <trkpt lat="42.3410610" lon="-8.6063710">
        <ele>30.2</ele>
        <time>2021-05-21T08:42:55Z</time>
      </trkpt>
      <trkpt lat="42.3410610" lon="-8.6063700">
        <ele>30.2</ele>
        <time>2021-05-21T08:42:56Z</time>
      </trkpt>
      <trkpt lat="42.3410600" lon="-8.6063690">
        <ele>30.2</ele>
        <time>2021-05-21T08:42:57Z</time>
      </trkpt>
      <trkpt lat="42.3410590" lon="-8.6063670">
        <ele>30.2</ele>
        <time>2021-05-21T08:42:58Z</time>
      </trkpt>
      <trkpt lat="42.3410580" lon="-8.6063660">
        <ele>30.2</ele>
        <time>2021-05-21T08:42:59Z</time>
      </trkpt>
      <trkpt lat="42.3410570" lon="-8.6063650">
        <ele>30.2</ele>
        <time>2021-05-21T08:43:00Z</time>
      </trkpt>
      <trkpt lat="42.3410560" lon="-8.6063630">
        <ele>30.2</ele>
        <time>2021-05-21T08:43:01Z</time>
      </trkpt>
      <trkpt lat="42.3410550" lon="-8.6063620">
        <ele>30.2</ele>
        <time>2021-05-21T08:43:02Z</time>
      </trkpt>
      <trkpt lat="42.3410540" lon="-8.6063600">
        <ele>30.2</ele>
        <time>2021-05-21T08:43:03Z</time>
      </trkpt>
      <trkpt lat="42.3410530" lon="-8.6063590">
        <ele>30.2</ele>
        <time>2021-05-21T08:43:04Z</time>
      </trkpt>
      <trkpt lat="42.3410520" lon="-8.6063580">
        <ele>30.2</ele>
        <time>2021-05-21T08:43:05Z</time>
      </trkpt>
      <trkpt lat="42.3410510" lon="-8.6063560">
        <ele>30.2</ele>
        <time>2021-05-21T08:43:06Z</time>
      </trkpt>
      <trkpt lat="42.3410500" lon="-8.6063550">
        <ele>30.2</ele>
        <time>2021-05-21T08:43:07Z</time>
      </trkpt>
      <trkpt lat="42.3410490" lon="-8.6063540">
        <ele>30.2</ele>
        <time>2021-05-21T08:43:16Z</time>
      </trkpt>
      <trkpt lat="42.3410480" lon="-8.6063520">
        <ele>30.2</ele>
        <time>2021-05-21T08:43:17Z</time>
      </trkpt>
      <trkpt lat="42.3410470" lon="-8.6063510">
        <ele>30.2</ele>
        <time>2021-05-21T08:43:18Z</time>
      </trkpt>
      <trkpt lat="42.3410460" lon="-8.6063500">
        <ele>30.2</ele>
        <time>2021-05-21T08:43:43Z</time>
      </trkpt>
      <trkpt lat="42.3410450" lon="-8.6063480">
        <ele>30.2</ele>
        <time>2021-05-21T08:43:44Z</time>
      </trkpt>
      <trkpt lat="42.3410440" lon="-8.6063470">
        <ele>30.2</ele>
        <time>2021-05-21T08:43:45Z</time>
      </trkpt>
      <trkpt lat="42.3410430" lon="-8.6063460">
        <ele>30.2</ele>
        <time>2021-05-21T08:43:46Z</time>
      </trkpt>
      <trkpt lat="42.3410420" lon="-8.6063440">
        <ele>30.2</ele>
        <time>2021-05-21T08:43:47Z</time>
      </trkpt>
      <trkpt lat="42.3410420" lon="-8.6063430">
        <ele>30.2</ele>
        <time>2021-05-21T08:43:48Z</time>
      </trkpt>
      <trkpt lat="42.3410410" lon="-8.6063410">
        <ele>30.2</ele>
        <time>2021-05-21T08:43:49Z</time>
      </trkpt>
      <trkpt lat="42.3410400" lon="-8.6063400">
        <ele>30.2</ele>
        <time>2021-05-21T08:43:50Z</time>
      </trkpt>
      <trkpt lat="42.3410390" lon="-8.6063390">
        <ele>30.2</ele>
        <time>2021-05-21T08:43:53Z</time>
      </trkpt>
      <trkpt lat="42.3410380" lon="-8.6063370">
        <ele>30.2</ele>
        <time>2021-05-21T08:43:54Z</time>
      </trkpt>
      <trkpt lat="42.3410370" lon="-8.6063360">
        <ele>30.2</ele>
        <time>2021-05-21T08:43:55Z</time>
      </trkpt>
      <trkpt lat="42.3410360" lon="-8.6063350">
        <ele>30.2</ele>
        <time>2021-05-21T08:43:56Z</time>
      </trkpt>
      <trkpt lat="42.3410350" lon="-8.6063330">
        <ele>30.2</ele>
        <time>2021-05-21T08:43:57Z</time>
      </trkpt>
      <trkpt lat="42.3410340" lon="-8.6063320">
        <ele>30.2</ele>
        <time>2021-05-21T08:43:58Z</time>
      </trkpt>
      <trkpt lat="42.3410330" lon="-8.6063310">
        <ele>30.2</ele>
        <time>2021-05-21T08:43:59Z</time>
      </trkpt>
      <trkpt lat="42.3410320" lon="-8.6063290">
        <ele>30.2</ele>
        <time>2021-05-21T08:44:00Z</time>
      </trkpt>
      <trkpt lat="42.3410310" lon="-8.6063280">
        <ele>30.2</ele>
        <time>2021-05-21T08:44:01Z</time>
      </trkpt>
      <trkpt lat="42.3410300" lon="-8.6063260">
        <ele>30.2</ele>
        <time>2021-05-21T08:44:02Z</time>
      </trkpt>
      <trkpt lat="42.3410290" lon="-8.6063250">
        <ele>30.2</ele>
        <time>2021-05-21T08:44:03Z</time>
      </trkpt>
      <trkpt lat="42.3410280" lon="-8.6063240">
        <ele>30.2</ele>
        <time>2021-05-21T08:44:04Z</time>
      </trkpt>
      <trkpt lat="42.3410270" lon="-8.6063220">
        <ele>30.1</ele>
        <time>2021-05-21T08:44:05Z</time>
      </trkpt>
      <trkpt lat="42.3410260" lon="-8.6063210">
        <ele>30.1</ele>
        <time>2021-05-21T08:44:06Z</time>
      </trkpt>
      <trkpt lat="42.3410250" lon="-8.6063200">
        <ele>30.1</ele>
        <time>2021-05-21T08:44:07Z</time>
      </trkpt>
      <trkpt lat="42.3410240" lon="-8.6063180">
        <ele>30.1</ele>
        <time>2021-05-21T08:44:08Z</time>
      </trkpt>
      <trkpt lat="42.3410230" lon="-8.6063170">
        <ele>30.1</ele>
        <time>2021-05-21T08:44:09Z</time>
      </trkpt>
      <trkpt lat="42.3410230" lon="-8.6063160">
        <ele>30.1</ele>
        <time>2021-05-21T08:44:10Z</time>
      </trkpt>
      <trkpt lat="42.3410220" lon="-8.6063140">
        <ele>30.1</ele>
        <time>2021-05-21T08:44:11Z</time>
      </trkpt>
      <trkpt lat="42.3410210" lon="-8.6063130">
        <ele>30.1</ele>
        <time>2021-05-21T08:44:12Z</time>
      </trkpt>
      <trkpt lat="42.3410200" lon="-8.6063120">
        <ele>30.1</ele>
        <time>2021-05-21T08:44:13Z</time>
      </trkpt>
      <trkpt lat="42.3410190" lon="-8.6063100">
        <ele>30.1</ele>
        <time>2021-05-21T08:44:14Z</time>
      </trkpt>
      <trkpt lat="42.3410180" lon="-8.6063090">
        <ele>30.1</ele>
        <time>2021-05-21T08:44:15Z</time>
      </trkpt>
      <trkpt lat="42.3410170" lon="-8.6063070">
        <ele>30.1</ele>
        <time>2021-05-21T08:44:16Z</time>
      </trkpt>
      <trkpt lat="42.3410160" lon="-8.6063060">
        <ele>30.1</ele>
        <time>2021-05-21T08:44:17Z</time>
      </trkpt>
      <trkpt lat="42.3410150" lon="-8.6063050">
        <ele>30.1</ele>
        <time>2021-05-21T08:44:18Z</time>
      </trkpt>
      <trkpt lat="42.3410140" lon="-8.6063030">
        <ele>30.1</ele>
        <time>2021-05-21T08:44:19Z</time>
      </trkpt>
      <trkpt lat="42.3410130" lon="-8.6063020">
        <ele>30.1</ele>
        <time>2021-05-21T08:44:20Z</time>
      </trkpt>
      <trkpt lat="42.3410070" lon="-8.6062990">
        <ele>30.1</ele>
        <time>2021-05-21T08:44:21Z</time>
      </trkpt>
      <trkpt lat="42.3409820" lon="-8.6062880">
        <ele>30.1</ele>
        <time>2021-05-21T08:44:22Z</time>
      </trkpt>
      <trkpt lat="42.3410080" lon="-8.6063200">
        <ele>30.1</ele>
        <time>2021-05-21T08:44:23Z</time>
      </trkpt>
      <trkpt lat="42.3410170" lon="-8.6063360">
        <ele>30.1</ele>
        <time>2021-05-21T08:44:24Z</time>
      </trkpt>
      <trkpt lat="42.3410260" lon="-8.6063520">
        <ele>30.1</ele>
        <time>2021-05-21T08:44:25Z</time>
      </trkpt>
      <trkpt lat="42.3410380" lon="-8.6063500">
        <ele>30.1</ele>
        <time>2021-05-21T08:44:26Z</time>
      </trkpt>
      <trkpt lat="42.3410380" lon="-8.6063460">
        <ele>30.1</ele>
        <time>2021-05-21T08:44:27Z</time>
      </trkpt>
      <trkpt lat="42.3410420" lon="-8.6063450">
        <ele>30.1</ele>
        <time>2021-05-21T08:44:28Z</time>
      </trkpt>
      <trkpt lat="42.3410500" lon="-8.6063840">
        <ele>30.0</ele>
        <time>2021-05-21T08:44:29Z</time>
      </trkpt>
      <trkpt lat="42.3410650" lon="-8.6063940">
        <ele>30.0</ele>
        <time>2021-05-21T08:44:30Z</time>
      </trkpt>
      <trkpt lat="42.3410640" lon="-8.6063740">
        <ele>30.0</ele>
        <time>2021-05-21T08:44:31Z</time>
      </trkpt>
      <trkpt lat="42.3410660" lon="-8.6063750">
        <ele>30.0</ele>
        <time>2021-05-21T08:44:32Z</time>
      </trkpt>
      <trkpt lat="42.3410440" lon="-8.6063750">
        <ele>30.0</ele>
        <time>2021-05-21T08:44:33Z</time>
      </trkpt>
      <trkpt lat="42.3410440" lon="-8.6063600">
        <ele>30.0</ele>
        <time>2021-05-21T08:44:34Z</time>
      </trkpt>
      <trkpt lat="42.3410510" lon="-8.6063610">
        <ele>30.0</ele>
        <time>2021-05-21T08:44:35Z</time>
      </trkpt>
      <trkpt lat="42.3410540" lon="-8.6063560">
        <ele>30.0</ele>
        <time>2021-05-21T08:44:36Z</time>
      </trkpt>
      <trkpt lat="42.3410630" lon="-8.6063650">
        <ele>30.0</ele>
        <time>2021-05-21T08:44:37Z</time>
      </trkpt>
      <trkpt lat="42.3410700" lon="-8.6063680">
        <ele>30.0</ele>
        <time>2021-05-21T08:44:38Z</time>
      </trkpt>
      <trkpt lat="42.3410810" lon="-8.6063770">
        <ele>30.0</ele>
        <time>2021-05-21T08:44:39Z</time>
      </trkpt>
      <trkpt lat="42.3410920" lon="-8.6063770">
        <ele>30.0</ele>
        <time>2021-05-21T08:44:40Z</time>
      </trkpt>
      <trkpt lat="42.3411030" lon="-8.6063830">
        <ele>30.0</ele>
        <time>2021-05-21T08:44:41Z</time>
      </trkpt>
      <trkpt lat="42.3411150" lon="-8.6063870">
        <ele>30.0</ele>
        <time>2021-05-21T08:44:42Z</time>
      </trkpt>
      <trkpt lat="42.3411370" lon="-8.6063890">
        <ele>29.9</ele>
        <time>2021-05-21T08:44:43Z</time>
      </trkpt>
      <trkpt lat="42.3411480" lon="-8.6063900">
        <ele>29.9</ele>
        <time>2021-05-21T08:44:44Z</time>
      </trkpt>
      <trkpt lat="42.3411580" lon="-8.6063900">
        <ele>29.9</ele>
        <time>2021-05-21T08:44:45Z</time>
      </trkpt>
      <trkpt lat="42.3411900" lon="-8.6063940">
        <ele>29.9</ele>
        <time>2021-05-21T08:44:46Z</time>
      </trkpt>
      <trkpt lat="42.3412000" lon="-8.6063940">
        <ele>29.9</ele>
        <time>2021-05-21T08:44:47Z</time>
      </trkpt>
      <trkpt lat="42.3412150" lon="-8.6063940">
        <ele>29.9</ele>
        <time>2021-05-21T08:44:48Z</time>
      </trkpt>
      <trkpt lat="42.3412270" lon="-8.6064070">
        <ele>29.9</ele>
        <time>2021-05-21T08:44:49Z</time>
      </trkpt>
      <trkpt lat="42.3412490" lon="-8.6064080">
        <ele>29.9</ele>
        <time>2021-05-21T08:44:50Z</time>
      </trkpt>
      <trkpt lat="42.3412480" lon="-8.6064010">
        <ele>29.9</ele>
        <time>2021-05-21T08:44:51Z</time>
      </trkpt>
      <trkpt lat="42.3412510" lon="-8.6063950">
        <ele>29.9</ele>
        <time>2021-05-21T08:44:52Z</time>
      </trkpt>
      <trkpt lat="42.3412610" lon="-8.6064000">
        <ele>29.9</ele>
        <time>2021-05-21T08:44:53Z</time>
      </trkpt>
      <trkpt lat="42.3412780" lon="-8.6064000">
        <ele>29.8</ele>
        <time>2021-05-21T08:44:54Z</time>
      </trkpt>
      <trkpt lat="42.3412700" lon="-8.6063950">
        <ele>29.8</ele>
        <time>2021-05-21T08:44:55Z</time>
      </trkpt>
      <trkpt lat="42.3412690" lon="-8.6063970">
        <ele>29.8</ele>
        <time>2021-05-21T08:44:56Z</time>
      </trkpt>
      <trkpt lat="42.3412900" lon="-8.6064000">
        <ele>29.8</ele>
        <time>2021-05-21T08:44:57Z</time>
      </trkpt>
      <trkpt lat="42.3413140" lon="-8.6063900">
        <ele>29.8</ele>
        <time>2021-05-21T08:44:58Z</time>
      </trkpt>
      <trkpt lat="42.3413260" lon="-8.6063830">
        <ele>29.8</ele>
        <time>2021-05-21T08:44:59Z</time>
      </trkpt>
      <trkpt lat="42.3413410" lon="-8.6063860">
        <ele>29.8</ele>
        <time>2021-05-21T08:45:00Z</time>
      </trkpt>
      <trkpt lat="42.3413520" lon="-8.6063910">
        <ele>29.8</ele>
        <time>2021-05-21T08:45:01Z</time>
      </trkpt>
      <trkpt lat="42.3413530" lon="-8.6063930">
        <ele>29.8</ele>
        <time>2021-05-21T08:45:02Z</time>
      </trkpt>
      <trkpt lat="42.3413670" lon="-8.6064020">
        <ele>29.8</ele>
        <time>2021-05-21T08:45:04Z</time>
      </trkpt>
      <trkpt lat="42.3413640" lon="-8.6064110">
        <ele>29.8</ele>
        <time>2021-05-21T08:45:05Z</time>
      </trkpt>
      <trkpt lat="42.3413650" lon="-8.6064120">
        <ele>29.8</ele>
        <time>2021-05-21T08:45:06Z</time>
      </trkpt>
      <trkpt lat="42.3413750" lon="-8.6064220">
        <ele>29.8</ele>
        <time>2021-05-21T08:45:07Z</time>
      </trkpt>
      <trkpt lat="42.3413780" lon="-8.6064360">
        <ele>29.8</ele>
        <time>2021-05-21T08:45:08Z</time>
      </trkpt>
      <trkpt lat="42.3413960" lon="-8.6064550">
        <ele>29.7</ele>
        <time>2021-05-21T08:45:09Z</time>
      </trkpt>
      <trkpt lat="42.3414220" lon="-8.6064660">
        <ele>29.7</ele>
        <time>2021-05-21T08:45:10Z</time>
      </trkpt>
      <trkpt lat="42.3414530" lon="-8.6064840">
        <ele>29.7</ele>
        <time>2021-05-21T08:45:11Z</time>
      </trkpt>
      <trkpt lat="42.3414770" lon="-8.6065090">
        <ele>29.7</ele>
        <time>2021-05-21T08:45:12Z</time>
      </trkpt>
      <trkpt lat="42.3414870" lon="-8.6065260">
        <ele>29.7</ele>
        <time>2021-05-21T08:45:13Z</time>
      </trkpt>
      <trkpt lat="42.3415190" lon="-8.6065600">
        <ele>29.5</ele>
        <time>2021-05-21T08:45:14Z</time>
      </trkpt>
      <trkpt lat="42.3415390" lon="-8.6065820">
        <ele>29.5</ele>
        <time>2021-05-21T08:45:15Z</time>
      </trkpt>
      <trkpt lat="42.3415500" lon="-8.6065910">
        <ele>29.5</ele>
        <time>2021-05-21T08:45:16Z</time>
      </trkpt>
      <trkpt lat="42.3415730" lon="-8.6066110">
        <ele>29.5</ele>
        <time>2021-05-21T08:45:17Z</time>
      </trkpt>
      <trkpt lat="42.3415810" lon="-8.6066180">
        <ele>29.4</ele>
        <time>2021-05-21T08:45:18Z</time>
      </trkpt>
      <trkpt lat="42.3415900" lon="-8.6066240">
        <ele>29.4</ele>
        <time>2021-05-21T08:45:19Z</time>
      </trkpt>
      <trkpt lat="42.3416130" lon="-8.6066350">
        <ele>29.4</ele>
        <time>2021-05-21T08:45:20Z</time>
      </trkpt>
      <trkpt lat="42.3416200" lon="-8.6066370">
        <ele>29.4</ele>
        <time>2021-05-21T08:45:21Z</time>
      </trkpt>
      <trkpt lat="42.3416280" lon="-8.6066400">
        <ele>29.4</ele>
        <time>2021-05-21T08:45:22Z</time>
      </trkpt>
      <trkpt lat="42.3416580" lon="-8.6066410">
        <ele>29.4</ele>
        <time>2021-05-21T08:45:23Z</time>
      </trkpt>
      <trkpt lat="42.3416670" lon="-8.6066380">
        <ele>29.3</ele>
        <time>2021-05-21T08:45:24Z</time>
      </trkpt>
      <trkpt lat="42.3416850" lon="-8.6066400">
        <ele>29.3</ele>
        <time>2021-05-21T08:45:25Z</time>
      </trkpt>
      <trkpt lat="42.3417010" lon="-8.6066450">
        <ele>29.2</ele>
        <time>2021-05-21T08:45:26Z</time>
      </trkpt>
      <trkpt lat="42.3417120" lon="-8.6066530">
        <ele>29.2</ele>
        <time>2021-05-21T08:45:27Z</time>
      </trkpt>
      <trkpt lat="42.3417190" lon="-8.6066640">
        <ele>29.2</ele>
        <time>2021-05-21T08:45:28Z</time>
      </trkpt>
      <trkpt lat="42.3417320" lon="-8.6066690">
        <ele>29.1</ele>
        <time>2021-05-21T08:45:29Z</time>
      </trkpt>
      <trkpt lat="42.3417430" lon="-8.6066750">
        <ele>29.1</ele>
        <time>2021-05-21T08:45:30Z</time>
      </trkpt>
      <trkpt lat="42.3417550" lon="-8.6066780">
        <ele>29.1</ele>
        <time>2021-05-21T08:45:31Z</time>
      </trkpt>
      <trkpt lat="42.3417660" lon="-8.6066820">
        <ele>29.0</ele>
        <time>2021-05-21T08:45:32Z</time>
      </trkpt>
      <trkpt lat="42.3417770" lon="-8.6066860">
        <ele>29.0</ele>
        <time>2021-05-21T08:45:33Z</time>
      </trkpt>
      <trkpt lat="42.3417800" lon="-8.6066920">
        <ele>29.0</ele>
        <time>2021-05-21T08:45:34Z</time>
      </trkpt>
      <trkpt lat="42.3418050" lon="-8.6067000">
        <ele>28.9</ele>
        <time>2021-05-21T08:45:35Z</time>
      </trkpt>
      <trkpt lat="42.3418170" lon="-8.6067100">
        <ele>28.9</ele>
        <time>2021-05-21T08:45:36Z</time>
      </trkpt>
      <trkpt lat="42.3418280" lon="-8.6067210">
        <ele>28.8</ele>
        <time>2021-05-21T08:45:37Z</time>
      </trkpt>
      <trkpt lat="42.3418420" lon="-8.6067270">
        <ele>28.8</ele>
        <time>2021-05-21T08:45:38Z</time>
      </trkpt>
      <trkpt lat="42.3418520" lon="-8.6067310">
        <ele>28.8</ele>
        <time>2021-05-21T08:45:39Z</time>
      </trkpt>
      <trkpt lat="42.3418590" lon="-8.6067340">
        <ele>28.7</ele>
        <time>2021-05-21T08:45:40Z</time>
      </trkpt>
      <trkpt lat="42.3418690" lon="-8.6067410">
        <ele>28.7</ele>
        <time>2021-05-21T08:45:41Z</time>
      </trkpt>
      <trkpt lat="42.3418810" lon="-8.6067500">
        <ele>28.7</ele>
        <time>2021-05-21T08:45:42Z</time>
      </trkpt>
      <trkpt lat="42.3418870" lon="-8.6067520">
        <ele>28.7</ele>
        <time>2021-05-21T08:45:43Z</time>
      </trkpt>
      <trkpt lat="42.3418960" lon="-8.6067530">
        <ele>28.6</ele>
        <time>2021-05-21T08:45:44Z</time>
      </trkpt>
      <trkpt lat="42.3419040" lon="-8.6067550">
        <ele>28.6</ele>
        <time>2021-05-21T08:45:45Z</time>
      </trkpt>
      <trkpt lat="42.3419230" lon="-8.6067570">
        <ele>28.6</ele>
        <time>2021-05-21T08:45:46Z</time>
      </trkpt>
      <trkpt lat="42.3419430" lon="-8.6067510">
        <ele>28.5</ele>
        <time>2021-05-21T08:45:47Z</time>
      </trkpt>
      <trkpt lat="42.3419520" lon="-8.6067480">
        <ele>28.5</ele>
        <time>2021-05-21T08:45:48Z</time>
      </trkpt>
      <trkpt lat="42.3419600" lon="-8.6067460">
        <ele>28.5</ele>
        <time>2021-05-21T08:45:49Z</time>
      </trkpt>
      <trkpt lat="42.3419700" lon="-8.6067450">
        <ele>28.4</ele>
        <time>2021-05-21T08:45:50Z</time>
      </trkpt>
      <trkpt lat="42.3419950" lon="-8.6067420">
        <ele>28.4</ele>
        <time>2021-05-21T08:45:51Z</time>
      </trkpt>
      <trkpt lat="42.3420120" lon="-8.6067390">
        <ele>28.3</ele>
        <time>2021-05-21T08:45:52Z</time>
      </trkpt>
      <trkpt lat="42.3420210" lon="-8.6067250">
        <ele>28.3</ele>
        <time>2021-05-21T08:45:53Z</time>
      </trkpt>
      <trkpt lat="42.3420410" lon="-8.6067240">
        <ele>28.3</ele>
        <time>2021-05-21T08:45:54Z</time>
      </trkpt>
      <trkpt lat="42.3420500" lon="-8.6067140">
        <ele>28.2</ele>
        <time>2021-05-21T08:45:55Z</time>
      </trkpt>
      <trkpt lat="42.3420620" lon="-8.6067030">
        <ele>28.2</ele>
        <time>2021-05-21T08:45:56Z</time>
      </trkpt>
      <trkpt lat="42.3420760" lon="-8.6067030">
        <ele>28.2</ele>
        <time>2021-05-21T08:45:57Z</time>
      </trkpt>
      <trkpt lat="42.3420900" lon="-8.6067020">
        <ele>28.1</ele>
        <time>2021-05-21T08:45:58Z</time>
      </trkpt>
      <trkpt lat="42.3421190" lon="-8.6067050">
        <ele>28.1</ele>
        <time>2021-05-21T08:45:59Z</time>
      </trkpt>
      <trkpt lat="42.3421350" lon="-8.6067090">
        <ele>28.0</ele>
        <time>2021-05-21T08:46:00Z</time>
      </trkpt>
      <trkpt lat="42.3421520" lon="-8.6067060">
        <ele>28.0</ele>
        <time>2021-05-21T08:46:01Z</time>
      </trkpt>
      <trkpt lat="42.3421620" lon="-8.6067160">
        <ele>27.9</ele>
        <time>2021-05-21T08:46:02Z</time>
      </trkpt>
      <trkpt lat="42.3421760" lon="-8.6067230">
        <ele>27.9</ele>
        <time>2021-05-21T08:46:03Z</time>
      </trkpt>
      <trkpt lat="42.3421910" lon="-8.6067270">
        <ele>27.9</ele>
        <time>2021-05-21T08:46:04Z</time>
      </trkpt>
      <trkpt lat="42.3421960" lon="-8.6067300">
        <ele>27.8</ele>
        <time>2021-05-21T08:46:05Z</time>
      </trkpt>
      <trkpt lat="42.3422120" lon="-8.6067450">
        <ele>27.8</ele>
        <time>2021-05-21T08:46:06Z</time>
      </trkpt>
      <trkpt lat="42.3422150" lon="-8.6067590">
        <ele>27.8</ele>
        <time>2021-05-21T08:46:07Z</time>
      </trkpt>
      <trkpt lat="42.3422300" lon="-8.6067670">
        <ele>27.7</ele>
        <time>2021-05-21T08:46:08Z</time>
      </trkpt>
      <trkpt lat="42.3422480" lon="-8.6067730">
        <ele>27.7</ele>
        <time>2021-05-21T08:46:09Z</time>
      </trkpt>
      <trkpt lat="42.3422560" lon="-8.6067750">
        <ele>27.6</ele>
        <time>2021-05-21T08:46:10Z</time>
      </trkpt>
      <trkpt lat="42.3422620" lon="-8.6067790">
        <ele>27.6</ele>
        <time>2021-05-21T08:46:11Z</time>
      </trkpt>
      <trkpt lat="42.3422720" lon="-8.6067830">
        <ele>27.6</ele>
        <time>2021-05-21T08:46:12Z</time>
      </trkpt>
      <trkpt lat="42.3422770" lon="-8.6067940">
        <ele>27.6</ele>
        <time>2021-05-21T08:46:13Z</time>
      </trkpt>
      <trkpt lat="42.3422880" lon="-8.6068040">
        <ele>27.6</ele>
        <time>2021-05-21T08:46:14Z</time>
      </trkpt>
      <trkpt lat="42.3422960" lon="-8.6068080">
        <ele>27.5</ele>
        <time>2021-05-21T08:46:15Z</time>
      </trkpt>
      <trkpt lat="42.3423030" lon="-8.6068130">
        <ele>27.5</ele>
        <time>2021-05-21T08:46:16Z</time>
      </trkpt>
      <trkpt lat="42.3423110" lon="-8.6068180">
        <ele>27.5</ele>
        <time>2021-05-21T08:46:17Z</time>
      </trkpt>
      <trkpt lat="42.3423290" lon="-8.6068160">
        <ele>27.5</ele>
        <time>2021-05-21T08:46:18Z</time>
      </trkpt>
      <trkpt lat="42.3423360" lon="-8.6068140">
        <ele>27.5</ele>
        <time>2021-05-21T08:46:19Z</time>
      </trkpt>
      <trkpt lat="42.3423420" lon="-8.6068120">
        <ele>27.5</ele>
        <time>2021-05-21T08:46:20Z</time>
      </trkpt>
      <trkpt lat="42.3423490" lon="-8.6068100">
        <ele>27.4</ele>
        <time>2021-05-21T08:46:21Z</time>
      </trkpt>
      <trkpt lat="42.3423680" lon="-8.6068110">
        <ele>27.4</ele>
        <time>2021-05-21T08:46:22Z</time>
      </trkpt>
      <trkpt lat="42.3423810" lon="-8.6068130">
        <ele>27.4</ele>
        <time>2021-05-21T08:46:23Z</time>
      </trkpt>
      <trkpt lat="42.3423950" lon="-8.6068160">
        <ele>27.3</ele>
        <time>2021-05-21T08:46:24Z</time>
      </trkpt>
      <trkpt lat="42.3424170" lon="-8.6068260">
        <ele>27.3</ele>
        <time>2021-05-21T08:46:25Z</time>
      </trkpt>
      <trkpt lat="42.3424260" lon="-8.6068290">
        <ele>27.3</ele>
        <time>2021-05-21T08:46:26Z</time>
      </trkpt>
      <trkpt lat="42.3424340" lon="-8.6068330">
        <ele>27.2</ele>
        <time>2021-05-21T08:46:27Z</time>
      </trkpt>
      <trkpt lat="42.3424280" lon="-8.6068340">
        <ele>27.2</ele>
        <time>2021-05-21T08:46:28Z</time>
      </trkpt>
      <trkpt lat="42.3424300" lon="-8.6068320">
        <ele>27.2</ele>
        <time>2021-05-21T08:46:29Z</time>
      </trkpt>
      <trkpt lat="42.3424300" lon="-8.6068340">
        <ele>27.2</ele>
        <time>2021-05-21T08:46:30Z</time>
      </trkpt>
      <trkpt lat="42.3424520" lon="-8.6068340">
        <ele>27.2</ele>
        <time>2021-05-21T08:46:31Z</time>
      </trkpt>
      <trkpt lat="42.3424690" lon="-8.6068380">
        <ele>27.1</ele>
        <time>2021-05-21T08:46:32Z</time>
      </trkpt>
      <trkpt lat="42.3424840" lon="-8.6068490">
        <ele>27.1</ele>
        <time>2021-05-21T08:46:33Z</time>
      </trkpt>
      <trkpt lat="42.3424870" lon="-8.6068500">
        <ele>27.1</ele>
        <time>2021-05-21T08:46:34Z</time>
      </trkpt>
      <trkpt lat="42.3424970" lon="-8.6068520">
        <ele>27.0</ele>
        <time>2021-05-21T08:46:35Z</time>
      </trkpt>
      <trkpt lat="42.3425220" lon="-8.6068630">
        <ele>27.0</ele>
        <time>2021-05-21T08:46:36Z</time>
      </trkpt>
      <trkpt lat="42.3425300" lon="-8.6068640">
        <ele>26.9</ele>
        <time>2021-05-21T08:46:38Z</time>
      </trkpt>
      <trkpt lat="42.3425390" lon="-8.6068650">
        <ele>26.9</ele>
        <time>2021-05-21T08:46:39Z</time>
      </trkpt>
      <trkpt lat="42.3425840" lon="-8.6069030">
        <ele>26.7</ele>
        <time>2021-05-21T08:46:40Z</time>
      </trkpt>
      <trkpt lat="42.3426100" lon="-8.6069210">
        <ele>26.7</ele>
        <time>2021-05-21T08:46:41Z</time>
      </trkpt>
      <trkpt lat="42.3426360" lon="-8.6069250">
        <ele>26.6</ele>
        <time>2021-05-21T08:46:42Z</time>
      </trkpt>
      <trkpt lat="42.3426330" lon="-8.6069410">
        <ele>26.6</ele>
        <time>2021-05-21T08:46:43Z</time>
      </trkpt>
      <trkpt lat="42.3426560" lon="-8.6069700">
        <ele>26.5</ele>
        <time>2021-05-21T08:46:44Z</time>
      </trkpt>
      <trkpt lat="42.3426550" lon="-8.6069710">
        <ele>26.5</ele>
        <time>2021-05-21T08:46:45Z</time>
      </trkpt>
      <trkpt lat="42.3426570" lon="-8.6070010">
        <ele>26.4</ele>
        <time>2021-05-21T08:46:46Z</time>
      </trkpt>
      <trkpt lat="42.3426440" lon="-8.6070100">
        <ele>26.4</ele>
        <time>2021-05-21T08:46:47Z</time>
      </trkpt>
      <trkpt lat="42.3426460" lon="-8.6070170">
        <ele>26.4</ele>
        <time>2021-05-21T08:46:48Z</time>
      </trkpt>
      <trkpt lat="42.3426410" lon="-8.6070140">
        <ele>26.4</ele>
        <time>2021-05-21T08:46:49Z</time>
      </trkpt>
      <trkpt lat="42.3426410" lon="-8.6070130">
        <ele>26.4</ele>
        <time>2021-05-21T08:46:50Z</time>
      </trkpt>
      <trkpt lat="42.3426430" lon="-8.6070130">
        <ele>26.4</ele>
        <time>2021-05-21T08:46:51Z</time>
      </trkpt>
      <trkpt lat="42.3426500" lon="-8.6070180">
        <ele>26.3</ele>
        <time>2021-05-21T08:46:52Z</time>
      </trkpt>
      <trkpt lat="42.3426580" lon="-8.6070190">
        <ele>26.3</ele>
        <time>2021-05-21T08:46:53Z</time>
      </trkpt>
      <trkpt lat="42.3426690" lon="-8.6070200">
        <ele>26.3</ele>
        <time>2021-05-21T08:46:54Z</time>
      </trkpt>
      <trkpt lat="42.3426770" lon="-8.6070190">
        <ele>26.3</ele>
        <time>2021-05-21T08:46:55Z</time>
      </trkpt>
      <trkpt lat="42.3426920" lon="-8.6070100">
        <ele>26.2</ele>
        <time>2021-05-21T08:46:56Z</time>
      </trkpt>
      <trkpt lat="42.3426980" lon="-8.6070040">
        <ele>26.2</ele>
        <time>2021-05-21T08:46:57Z</time>
      </trkpt>
      <trkpt lat="42.3427050" lon="-8.6069980">
        <ele>26.2</ele>
        <time>2021-05-21T08:46:58Z</time>
      </trkpt>
      <trkpt lat="42.3427110" lon="-8.6069920">
        <ele>26.2</ele>
        <time>2021-05-21T08:46:59Z</time>
      </trkpt>
      <trkpt lat="42.3427280" lon="-8.6069930">
        <ele>26.1</ele>
        <time>2021-05-21T08:47:00Z</time>
      </trkpt>
      <trkpt lat="42.3427420" lon="-8.6069890">
        <ele>26.1</ele>
        <time>2021-05-21T08:47:01Z</time>
      </trkpt>
      <trkpt lat="42.3427580" lon="-8.6069850">
        <ele>26.1</ele>
        <time>2021-05-21T08:47:02Z</time>
      </trkpt>
      <trkpt lat="42.3427700" lon="-8.6069860">
        <ele>26.0</ele>
        <time>2021-05-21T08:47:03Z</time>
      </trkpt>
      <trkpt lat="42.3427820" lon="-8.6069860">
        <ele>26.0</ele>
        <time>2021-05-21T08:47:04Z</time>
      </trkpt>
      <trkpt lat="42.3428110" lon="-8.6069920">
        <ele>25.9</ele>
        <time>2021-05-21T08:47:05Z</time>
      </trkpt>
      <trkpt lat="42.3428240" lon="-8.6069910">
        <ele>25.9</ele>
        <time>2021-05-21T08:47:06Z</time>
      </trkpt>
      <trkpt lat="42.3428400" lon="-8.6069860">
        <ele>25.9</ele>
        <time>2021-05-21T08:47:07Z</time>
      </trkpt>
      <trkpt lat="42.3428430" lon="-8.6069860">
        <ele>25.9</ele>
        <time>2021-05-21T08:47:08Z</time>
      </trkpt>
      <trkpt lat="42.3428520" lon="-8.6069890">
        <ele>25.8</ele>
        <time>2021-05-21T08:47:09Z</time>
      </trkpt>
      <trkpt lat="42.3428660" lon="-8.6069910">
        <ele>25.8</ele>
        <time>2021-05-21T08:47:10Z</time>
      </trkpt>
      <trkpt lat="42.3428740" lon="-8.6069920">
        <ele>25.8</ele>
        <time>2021-05-21T08:47:11Z</time>
      </trkpt>
      <trkpt lat="42.3428840" lon="-8.6069970">
        <ele>25.8</ele>
        <time>2021-05-21T08:47:12Z</time>
      </trkpt>
      <trkpt lat="42.3429120" lon="-8.6070100">
        <ele>25.7</ele>
        <time>2021-05-21T08:47:13Z</time>
      </trkpt>
      <trkpt lat="42.3429310" lon="-8.6070240">
        <ele>25.6</ele>
        <time>2021-05-21T08:47:14Z</time>
      </trkpt>
      <trkpt lat="42.3429440" lon="-8.6070280">
        <ele>25.6</ele>
        <time>2021-05-21T08:47:15Z</time>
      </trkpt>
      <trkpt lat="42.3429480" lon="-8.6070260">
        <ele>25.6</ele>
        <time>2021-05-21T08:47:16Z</time>
      </trkpt>
      <trkpt lat="42.3429570" lon="-8.6070370">
        <ele>25.6</ele>
        <time>2021-05-21T08:47:17Z</time>
      </trkpt>
      <trkpt lat="42.3429720" lon="-8.6070360">
        <ele>25.5</ele>
        <time>2021-05-21T08:47:18Z</time>
      </trkpt>
      <trkpt lat="42.3430000" lon="-8.6070390">
        <ele>25.5</ele>
        <time>2021-05-21T08:47:19Z</time>
      </trkpt>
      <trkpt lat="42.3430100" lon="-8.6070370">
        <ele>25.4</ele>
        <time>2021-05-21T08:47:20Z</time>
      </trkpt>
      <trkpt lat="42.3430190" lon="-8.6070360">
        <ele>25.4</ele>
        <time>2021-05-21T08:47:21Z</time>
      </trkpt>
      <trkpt lat="42.3430450" lon="-8.6070450">
        <ele>25.4</ele>
        <time>2021-05-21T08:47:22Z</time>
      </trkpt>
      <trkpt lat="42.3430560" lon="-8.6070480">
        <ele>25.3</ele>
        <time>2021-05-21T08:47:23Z</time>
      </trkpt>
      <trkpt lat="42.3430740" lon="-8.6070530">
        <ele>25.3</ele>
        <time>2021-05-21T08:47:24Z</time>
      </trkpt>
      <trkpt lat="42.3430860" lon="-8.6070560">
        <ele>25.3</ele>
        <time>2021-05-21T08:47:25Z</time>
      </trkpt>
      <trkpt lat="42.3430990" lon="-8.6070580">
        <ele>25.2</ele>
        <time>2021-05-21T08:47:26Z</time>
      </trkpt>
      <trkpt lat="42.3431080" lon="-8.6070540">
        <ele>25.2</ele>
        <time>2021-05-21T08:47:27Z</time>
      </trkpt>
      <trkpt lat="42.3431310" lon="-8.6070720">
        <ele>25.1</ele>
        <time>2021-05-21T08:47:28Z</time>
      </trkpt>
      <trkpt lat="42.3431490" lon="-8.6070700">
        <ele>25.1</ele>
        <time>2021-05-21T08:47:29Z</time>
      </trkpt>
      <trkpt lat="42.3431560" lon="-8.6070780">
        <ele>25.1</ele>
        <time>2021-05-21T08:47:30Z</time>
      </trkpt>
      <trkpt lat="42.3431590" lon="-8.6070850">
        <ele>25.0</ele>
        <time>2021-05-21T08:47:31Z</time>
      </trkpt>
      <trkpt lat="42.3431490" lon="-8.6070800">
        <ele>25.0</ele>
        <time>2021-05-21T08:47:32Z</time>
      </trkpt>
      <trkpt lat="42.3431610" lon="-8.6070830">
        <ele>25.0</ele>
        <time>2021-05-21T08:47:33Z</time>
      </trkpt>
      <trkpt lat="42.3431750" lon="-8.6070920">
        <ele>24.9</ele>
        <time>2021-05-21T08:47:34Z</time>
      </trkpt>
      <trkpt lat="42.3431870" lon="-8.6071060">
        <ele>24.9</ele>
        <time>2021-05-21T08:47:35Z</time>
      </trkpt>
      <trkpt lat="42.3432080" lon="-8.6071360">
        <ele>24.8</ele>
        <time>2021-05-21T08:47:36Z</time>
      </trkpt>
      <trkpt lat="42.3432140" lon="-8.6071440">
        <ele>24.8</ele>
        <time>2021-05-21T08:47:37Z</time>
      </trkpt>
      <trkpt lat="42.3432220" lon="-8.6071520">
        <ele>24.8</ele>
        <time>2021-05-21T08:47:38Z</time>
      </trkpt>
      <trkpt lat="42.3432300" lon="-8.6071560">
        <ele>24.8</ele>
        <time>2021-05-21T08:47:39Z</time>
      </trkpt>
      <trkpt lat="42.3432350" lon="-8.6071470">
        <ele>24.7</ele>
        <time>2021-05-21T08:47:40Z</time>
      </trkpt>
      <trkpt lat="42.3432470" lon="-8.6071520">
        <ele>24.7</ele>
        <time>2021-05-21T08:47:41Z</time>
      </trkpt>
      <trkpt lat="42.3432740" lon="-8.6071600">
        <ele>24.6</ele>
        <time>2021-05-21T08:47:42Z</time>
      </trkpt>
      <trkpt lat="42.3432860" lon="-8.6071660">
        <ele>24.6</ele>
        <time>2021-05-21T08:47:43Z</time>
      </trkpt>
      <trkpt lat="42.3432990" lon="-8.6071720">
        <ele>24.6</ele>
        <time>2021-05-21T08:47:44Z</time>
      </trkpt>
      <trkpt lat="42.3433320" lon="-8.6071820">
        <ele>24.5</ele>
        <time>2021-05-21T08:47:45Z</time>
      </trkpt>
      <trkpt lat="42.3433400" lon="-8.6071860">
        <ele>24.5</ele>
        <time>2021-05-21T08:47:46Z</time>
      </trkpt>
      <trkpt lat="42.3433450" lon="-8.6071960">
        <ele>24.4</ele>
        <time>2021-05-21T08:47:47Z</time>
      </trkpt>
      <trkpt lat="42.3433460" lon="-8.6072080">
        <ele>24.4</ele>
        <time>2021-05-21T08:47:48Z</time>
      </trkpt>
      <trkpt lat="42.3433440" lon="-8.6072180">
        <ele>24.4</ele>
        <time>2021-05-21T08:47:49Z</time>
      </trkpt>
      <trkpt lat="42.3433560" lon="-8.6072290">
        <ele>24.4</ele>
        <time>2021-05-21T08:47:50Z</time>
      </trkpt>
      <trkpt lat="42.3433600" lon="-8.6072310">
        <ele>24.4</ele>
        <time>2021-05-21T08:47:51Z</time>
      </trkpt>
      <trkpt lat="42.3433850" lon="-8.6072470">
        <ele>24.3</ele>
        <time>2021-05-21T08:47:52Z</time>
      </trkpt>
      <trkpt lat="42.3433970" lon="-8.6072510">
        <ele>24.3</ele>
        <time>2021-05-21T08:47:53Z</time>
      </trkpt>
      <trkpt lat="42.3434170" lon="-8.6072460">
        <ele>24.2</ele>
        <time>2021-05-21T08:47:54Z</time>
      </trkpt>
      <trkpt lat="42.3434180" lon="-8.6072430">
        <ele>24.2</ele>
        <time>2021-05-21T08:47:55Z</time>
      </trkpt>
      <trkpt lat="42.3434240" lon="-8.6072450">
        <ele>24.2</ele>
        <time>2021-05-21T08:47:56Z</time>
      </trkpt>
      <trkpt lat="42.3434320" lon="-8.6072490">
        <ele>24.2</ele>
        <time>2021-05-21T08:47:57Z</time>
      </trkpt>
      <trkpt lat="42.3434450" lon="-8.6072570">
        <ele>24.1</ele>
        <time>2021-05-21T08:47:58Z</time>
      </trkpt>
      <trkpt lat="42.3434560" lon="-8.6072590">
        <ele>24.1</ele>
        <time>2021-05-21T08:47:59Z</time>
      </trkpt>
      <trkpt lat="42.3434560" lon="-8.6072610">
        <ele>24.1</ele>
        <time>2021-05-21T08:48:00Z</time>
      </trkpt>
      <trkpt lat="42.3434560" lon="-8.6072690">
        <ele>24.1</ele>
        <time>2021-05-21T08:48:01Z</time>
      </trkpt>
      <trkpt lat="42.3434710" lon="-8.6072750">
        <ele>24.0</ele>
        <time>2021-05-21T08:48:02Z</time>
      </trkpt>
      <trkpt lat="42.3434990" lon="-8.6072910">
        <ele>23.9</ele>
        <time>2021-05-21T08:48:03Z</time>
      </trkpt>
      <trkpt lat="42.3435120" lon="-8.6072960">
        <ele>23.9</ele>
        <time>2021-05-21T08:48:04Z</time>
      </trkpt>
      <trkpt lat="42.3435310" lon="-8.6072920">
        <ele>23.8</ele>
        <time>2021-05-21T08:48:05Z</time>
      </trkpt>
      <trkpt lat="42.3435600" lon="-8.6072950">
        <ele>23.7</ele>
        <time>2021-05-21T08:48:06Z</time>
      </trkpt>
      <trkpt lat="42.3435790" lon="-8.6073010">
        <ele>23.6</ele>
        <time>2021-05-21T08:48:07Z</time>
      </trkpt>
      <trkpt lat="42.3436120" lon="-8.6072960">
        <ele>23.5</ele>
        <time>2021-05-21T08:48:08Z</time>
      </trkpt>
      <trkpt lat="42.3436220" lon="-8.6072990">
        <ele>23.4</ele>
        <time>2021-05-21T08:48:09Z</time>
      </trkpt>
      <trkpt lat="42.3436340" lon="-8.6073100">
        <ele>23.4</ele>
        <time>2021-05-21T08:48:10Z</time>
      </trkpt>
      <trkpt lat="42.3436440" lon="-8.6073110">
        <ele>23.3</ele>
        <time>2021-05-21T08:48:11Z</time>
      </trkpt>
      <trkpt lat="42.3436540" lon="-8.6073110">
        <ele>23.3</ele>
        <time>2021-05-21T08:48:12Z</time>
      </trkpt>
      <trkpt lat="42.3436530" lon="-8.6073110">
        <ele>23.3</ele>
        <time>2021-05-21T08:48:13Z</time>
      </trkpt>
      <trkpt lat="42.3436610" lon="-8.6073140">
        <ele>23.2</ele>
        <time>2021-05-21T08:48:14Z</time>
      </trkpt>
      <trkpt lat="42.3436700" lon="-8.6073170">
        <ele>23.2</ele>
        <time>2021-05-21T08:48:15Z</time>
      </trkpt>
      <trkpt lat="42.3436810" lon="-8.6073200">
        <ele>23.1</ele>
        <time>2021-05-21T08:48:16Z</time>
      </trkpt>
      <trkpt lat="42.3437090" lon="-8.6073180">
        <ele>23.0</ele>
        <time>2021-05-21T08:48:17Z</time>
      </trkpt>
      <trkpt lat="42.3437210" lon="-8.6073200">
        <ele>22.9</ele>
        <time>2021-05-21T08:48:18Z</time>
      </trkpt>
      <trkpt lat="42.3437500" lon="-8.6073150">
        <ele>22.8</ele>
        <time>2021-05-21T08:48:19Z</time>
      </trkpt>
      <trkpt lat="42.3437780" lon="-8.6072990">
        <ele>22.6</ele>
        <time>2021-05-21T08:48:20Z</time>
      </trkpt>
      <trkpt lat="42.3437870" lon="-8.6073010">
        <ele>22.6</ele>
        <time>2021-05-21T08:48:21Z</time>
      </trkpt>
      <trkpt lat="42.3437970" lon="-8.6073020">
        <ele>22.5</ele>
        <time>2021-05-21T08:48:22Z</time>
      </trkpt>
      <trkpt lat="42.3438190" lon="-8.6073040">
        <ele>22.4</ele>
        <time>2021-05-21T08:48:23Z</time>
      </trkpt>
      <trkpt lat="42.3438400" lon="-8.6072800">
        <ele>22.3</ele>
        <time>2021-05-21T08:48:25Z</time>
      </trkpt>
      <trkpt lat="42.3438440" lon="-8.6072790">
        <ele>22.2</ele>
        <time>2021-05-21T08:48:27Z</time>
      </trkpt>
      <trkpt lat="42.3438500" lon="-8.6072810">
        <ele>22.2</ele>
        <time>2021-05-21T08:48:28Z</time>
      </trkpt>
      <trkpt lat="42.3438560" lon="-8.6072880">
        <ele>22.2</ele>
        <time>2021-05-21T08:48:29Z</time>
      </trkpt>
      <trkpt lat="42.3438630" lon="-8.6072900">
        <ele>22.1</ele>
        <time>2021-05-21T08:48:30Z</time>
      </trkpt>
      <trkpt lat="42.3438730" lon="-8.6073000">
        <ele>22.1</ele>
        <time>2021-05-21T08:48:31Z</time>
      </trkpt>
      <trkpt lat="42.3439040" lon="-8.6073140">
        <ele>21.9</ele>
        <time>2021-05-21T08:48:32Z</time>
      </trkpt>
      <trkpt lat="42.3439220" lon="-8.6073220">
        <ele>21.8</ele>
        <time>2021-05-21T08:48:33Z</time>
      </trkpt>
      <trkpt lat="42.3439510" lon="-8.6073380">
        <ele>21.6</ele>
        <time>2021-05-21T08:48:34Z</time>
      </trkpt>
      <trkpt lat="42.3439480" lon="-8.6073530">
        <ele>21.5</ele>
        <time>2021-05-21T08:48:35Z</time>
      </trkpt>
      <trkpt lat="42.3439450" lon="-8.6073670">
        <ele>21.5</ele>
        <time>2021-05-21T08:48:36Z</time>
      </trkpt>
      <trkpt lat="42.3439780" lon="-8.6073620">
        <ele>21.3</ele>
        <time>2021-05-21T08:48:37Z</time>
      </trkpt>
      <trkpt lat="42.3440080" lon="-8.6073750">
        <ele>21.1</ele>
        <time>2021-05-21T08:48:38Z</time>
      </trkpt>
      <trkpt lat="42.3440210" lon="-8.6073770">
        <ele>21.0</ele>
        <time>2021-05-21T08:48:39Z</time>
      </trkpt>
      <trkpt lat="42.3440350" lon="-8.6073650">
        <ele>20.9</ele>
        <time>2021-05-21T08:48:40Z</time>
      </trkpt>
      <trkpt lat="42.3440440" lon="-8.6073610">
        <ele>20.8</ele>
        <time>2021-05-21T08:48:41Z</time>
      </trkpt>
      <trkpt lat="42.3440530" lon="-8.6073570">
        <ele>20.8</ele>
        <time>2021-05-21T08:48:42Z</time>
      </trkpt>
      <trkpt lat="42.3440580" lon="-8.6073490">
        <ele>20.7</ele>
        <time>2021-05-21T08:48:43Z</time>
      </trkpt>
      <trkpt lat="42.3440670" lon="-8.6073480">
        <ele>20.7</ele>
        <time>2021-05-21T08:48:44Z</time>
      </trkpt>
      <trkpt lat="42.3440670" lon="-8.6073520">
        <ele>20.6</ele>
        <time>2021-05-21T08:48:45Z</time>
      </trkpt>
      <trkpt lat="42.3440810" lon="-8.6073540">
        <ele>20.5</ele>
        <time>2021-05-21T08:48:46Z</time>
      </trkpt>
      <trkpt lat="42.3440910" lon="-8.6073600">
        <ele>20.5</ele>
        <time>2021-05-21T08:48:47Z</time>
      </trkpt>
      <trkpt lat="42.3441030" lon="-8.6073650">
        <ele>20.4</ele>
        <time>2021-05-21T08:48:48Z</time>
      </trkpt>
      <trkpt lat="42.3441040" lon="-8.6073660">
        <ele>20.4</ele>
        <time>2021-05-21T08:48:49Z</time>
      </trkpt>
      <trkpt lat="42.3441080" lon="-8.6073670">
        <ele>20.3</ele>
        <time>2021-05-21T08:48:50Z</time>
      </trkpt>
      <trkpt lat="42.3441120" lon="-8.6073680">
        <ele>20.3</ele>
        <time>2021-05-21T08:48:51Z</time>
      </trkpt>
      <trkpt lat="42.3441150" lon="-8.6073590">
        <ele>20.3</ele>
        <time>2021-05-21T08:48:52Z</time>
      </trkpt>
      <trkpt lat="42.3441430" lon="-8.6073620">
        <ele>20.1</ele>
        <time>2021-05-21T08:48:53Z</time>
      </trkpt>
      <trkpt lat="42.3441580" lon="-8.6073660">
        <ele>20.0</ele>
        <time>2021-05-21T08:48:54Z</time>
      </trkpt>
      <trkpt lat="42.3441690" lon="-8.6073610">
        <ele>19.9</ele>
        <time>2021-05-21T08:48:55Z</time>
      </trkpt>
      <trkpt lat="42.3441730" lon="-8.6073560">
        <ele>19.8</ele>
        <time>2021-05-21T08:48:56Z</time>
      </trkpt>
      <trkpt lat="42.3441850" lon="-8.6073520">
        <ele>19.7</ele>
        <time>2021-05-21T08:48:57Z</time>
      </trkpt>
      <trkpt lat="42.3442020" lon="-8.6073540">
        <ele>19.6</ele>
        <time>2021-05-21T08:48:58Z</time>
      </trkpt>
      <trkpt lat="42.3442330" lon="-8.6073520">
        <ele>19.4</ele>
        <time>2021-05-21T08:48:59Z</time>
      </trkpt>
      <trkpt lat="42.3442430" lon="-8.6073490">
        <ele>19.3</ele>
        <time>2021-05-21T08:49:00Z</time>
      </trkpt>
      <trkpt lat="42.3442540" lon="-8.6073450">
        <ele>19.2</ele>
        <time>2021-05-21T08:49:01Z</time>
      </trkpt>
      <trkpt lat="42.3442840" lon="-8.6073370">
        <ele>19.0</ele>
        <time>2021-05-21T08:49:02Z</time>
      </trkpt>
      <trkpt lat="42.3442910" lon="-8.6073360">
        <ele>18.9</ele>
        <time>2021-05-21T08:49:03Z</time>
      </trkpt>
      <trkpt lat="42.3443010" lon="-8.6073270">
        <ele>18.8</ele>
        <time>2021-05-21T08:49:04Z</time>
      </trkpt>
      <trkpt lat="42.3443180" lon="-8.6073240">
        <ele>18.7</ele>
        <time>2021-05-21T08:49:05Z</time>
      </trkpt>
      <trkpt lat="42.3443370" lon="-8.6073250">
        <ele>18.5</ele>
        <time>2021-05-21T08:49:06Z</time>
      </trkpt>
      <trkpt lat="42.3443500" lon="-8.6073280">
        <ele>18.4</ele>
        <time>2021-05-21T08:49:07Z</time>
      </trkpt>
      <trkpt lat="42.3443660" lon="-8.6073410">
        <ele>18.2</ele>
        <time>2021-05-21T08:49:08Z</time>
      </trkpt>
      <trkpt lat="42.3443730" lon="-8.6073490">
        <ele>18.2</ele>
        <time>2021-05-21T08:49:09Z</time>
      </trkpt>
      <trkpt lat="42.3443790" lon="-8.6073580">
        <ele>18.1</ele>
        <time>2021-05-21T08:49:10Z</time>
      </trkpt>
      <trkpt lat="42.3443930" lon="-8.6073640">
        <ele>18.0</ele>
        <time>2021-05-21T08:49:11Z</time>
      </trkpt>
      <trkpt lat="42.3443830" lon="-8.6073910">
        <ele>17.8</ele>
        <time>2021-05-21T08:49:12Z</time>
      </trkpt>
      <trkpt lat="42.3443790" lon="-8.6073960">
        <ele>17.7</ele>
        <time>2021-05-21T08:49:13Z</time>
      </trkpt>
      <trkpt lat="42.3443950" lon="-8.6074020">
        <ele>17.6</ele>
        <time>2021-05-21T08:49:14Z</time>
      </trkpt>
      <trkpt lat="42.3444020" lon="-8.6074010">
        <ele>17.5</ele>
        <time>2021-05-21T08:49:15Z</time>
      </trkpt>
      <trkpt lat="42.3444100" lon="-8.6073990">
        <ele>17.4</ele>
        <time>2021-05-21T08:49:16Z</time>
      </trkpt>
      <trkpt lat="42.3444170" lon="-8.6073980">
        <ele>17.4</ele>
        <time>2021-05-21T08:49:17Z</time>
      </trkpt>
      <trkpt lat="42.3444370" lon="-8.6074110">
        <ele>17.1</ele>
        <time>2021-05-21T08:49:18Z</time>
      </trkpt>
      <trkpt lat="42.3444490" lon="-8.6074220">
        <ele>17.0</ele>
        <time>2021-05-21T08:49:19Z</time>
      </trkpt>
      <trkpt lat="42.3444670" lon="-8.6074340">
        <ele>16.9</ele>
        <time>2021-05-21T08:49:20Z</time>
      </trkpt>
      <trkpt lat="42.3444720" lon="-8.6074370">
        <ele>16.8</ele>
        <time>2021-05-21T08:49:21Z</time>
      </trkpt>
      <trkpt lat="42.3444780" lon="-8.6074390">
        <ele>16.8</ele>
        <time>2021-05-21T08:49:22Z</time>
      </trkpt>
      <trkpt lat="42.3444830" lon="-8.6074420">
        <ele>16.7</ele>
        <time>2021-05-21T08:49:23Z</time>
      </trkpt>
      <trkpt lat="42.3444880" lon="-8.6074450">
        <ele>16.7</ele>
        <time>2021-05-21T08:49:24Z</time>
      </trkpt>
      <trkpt lat="42.3445070" lon="-8.6074440">
        <ele>16.6</ele>
        <time>2021-05-21T08:49:25Z</time>
      </trkpt>
      <trkpt lat="42.3445180" lon="-8.6074420">
        <ele>16.5</ele>
        <time>2021-05-21T08:49:26Z</time>
      </trkpt>
      <trkpt lat="42.3445290" lon="-8.6074410">
        <ele>16.4</ele>
        <time>2021-05-21T08:49:27Z</time>
      </trkpt>
      <trkpt lat="42.3445540" lon="-8.6074430">
        <ele>16.2</ele>
        <time>2021-05-21T08:49:28Z</time>
      </trkpt>
      <trkpt lat="42.3445670" lon="-8.6074480">
        <ele>16.1</ele>
        <time>2021-05-21T08:49:29Z</time>
      </trkpt>
      <trkpt lat="42.3445790" lon="-8.6074540">
        <ele>16.0</ele>
        <time>2021-05-21T08:49:30Z</time>
      </trkpt>
      <trkpt lat="42.3445950" lon="-8.6074620">
        <ele>15.9</ele>
        <time>2021-05-21T08:49:31Z</time>
      </trkpt>
      <trkpt lat="42.3446140" lon="-8.6074660">
        <ele>15.7</ele>
        <time>2021-05-21T08:49:32Z</time>
      </trkpt>
      <trkpt lat="42.3446300" lon="-8.6074680">
        <ele>15.6</ele>
        <time>2021-05-21T08:49:33Z</time>
      </trkpt>
      <trkpt lat="42.3446580" lon="-8.6074810">
        <ele>15.4</ele>
        <time>2021-05-21T08:49:34Z</time>
      </trkpt>
      <trkpt lat="42.3446670" lon="-8.6074840">
        <ele>15.3</ele>
        <time>2021-05-21T08:49:35Z</time>
      </trkpt>
      <trkpt lat="42.3446690" lon="-8.6074850">
        <ele>15.3</ele>
        <time>2021-05-21T08:49:36Z</time>
      </trkpt>
      <trkpt lat="42.3446870" lon="-8.6074970">
        <ele>15.2</ele>
        <time>2021-05-21T08:49:37Z</time>
      </trkpt>
      <trkpt lat="42.3446910" lon="-8.6075080">
        <ele>15.1</ele>
        <time>2021-05-21T08:49:38Z</time>
      </trkpt>
      <trkpt lat="42.3447120" lon="-8.6075190">
        <ele>14.9</ele>
        <time>2021-05-21T08:49:39Z</time>
      </trkpt>
      <trkpt lat="42.3447220" lon="-8.6075220">
        <ele>14.9</ele>
        <time>2021-05-21T08:49:40Z</time>
      </trkpt>
      <trkpt lat="42.3447750" lon="-8.6075240">
        <ele>14.5</ele>
        <time>2021-05-21T08:49:41Z</time>
      </trkpt>
      <trkpt lat="42.3447930" lon="-8.6075310">
        <ele>14.4</ele>
        <time>2021-05-21T08:49:42Z</time>
      </trkpt>
      <trkpt lat="42.3448060" lon="-8.6075260">
        <ele>14.3</ele>
        <time>2021-05-21T08:49:43Z</time>
      </trkpt>
      <trkpt lat="42.3448030" lon="-8.6075240">
        <ele>14.2</ele>
        <time>2021-05-21T08:49:44Z</time>
      </trkpt>
      <trkpt lat="42.3448120" lon="-8.6075250">
        <ele>14.2</ele>
        <time>2021-05-21T08:49:45Z</time>
      </trkpt>
      <trkpt lat="42.3448270" lon="-8.6075240">
        <ele>14.1</ele>
        <time>2021-05-21T08:49:46Z</time>
      </trkpt>
      <trkpt lat="42.3448380" lon="-8.6075210">
        <ele>14.0</ele>
        <time>2021-05-21T08:49:47Z</time>
      </trkpt>
      <trkpt lat="42.3448440" lon="-8.6075130">
        <ele>13.9</ele>
        <time>2021-05-21T08:49:48Z</time>
      </trkpt>
      <trkpt lat="42.3448560" lon="-8.6075070">
        <ele>13.8</ele>
        <time>2021-05-21T08:49:49Z</time>
      </trkpt>
      <trkpt lat="42.3448670" lon="-8.6074960">
        <ele>13.7</ele>
        <time>2021-05-21T08:49:50Z</time>
      </trkpt>
      <trkpt lat="42.3448770" lon="-8.6074850">
        <ele>13.6</ele>
        <time>2021-05-21T08:49:51Z</time>
      </trkpt>
      <trkpt lat="42.3448800" lon="-8.6074770">
        <ele>13.6</ele>
        <time>2021-05-21T08:49:52Z</time>
      </trkpt>
      <trkpt lat="42.3448820" lon="-8.6074690">
        <ele>13.6</ele>
        <time>2021-05-21T08:49:53Z</time>
      </trkpt>
      <trkpt lat="42.3448850" lon="-8.6074610">
        <ele>13.5</ele>
        <time>2021-05-21T08:49:54Z</time>
      </trkpt>
      <trkpt lat="42.3448870" lon="-8.6074530">
        <ele>13.5</ele>
        <time>2021-05-21T08:49:55Z</time>
      </trkpt>
      <trkpt lat="42.3449140" lon="-8.6074450">
        <ele>13.3</ele>
        <time>2021-05-21T08:49:56Z</time>
      </trkpt>
      <trkpt lat="42.3449270" lon="-8.6074450">
        <ele>13.2</ele>
        <time>2021-05-21T08:49:57Z</time>
      </trkpt>
      <trkpt lat="42.3449450" lon="-8.6074380">
        <ele>13.0</ele>
        <time>2021-05-21T08:49:58Z</time>
      </trkpt>
      <trkpt lat="42.3449760" lon="-8.6074200">
        <ele>12.8</ele>
        <time>2021-05-21T08:49:59Z</time>
      </trkpt>
      <trkpt lat="42.3449860" lon="-8.6074130">
        <ele>12.7</ele>
        <time>2021-05-21T08:50:00Z</time>
      </trkpt>
      <trkpt lat="42.3450170" lon="-8.6073950">
        <ele>12.5</ele>
        <time>2021-05-21T08:50:01Z</time>
      </trkpt>
      <trkpt lat="42.3450310" lon="-8.6073900">
        <ele>12.4</ele>
        <time>2021-05-21T08:50:02Z</time>
      </trkpt>
      <trkpt lat="42.3450490" lon="-8.6073880">
        <ele>12.3</ele>
        <time>2021-05-21T08:50:03Z</time>
      </trkpt>
      <trkpt lat="42.3450620" lon="-8.6073870">
        <ele>12.3</ele>
        <time>2021-05-21T08:50:04Z</time>
      </trkpt>
      <trkpt lat="42.3450680" lon="-8.6073850">
        <ele>12.2</ele>
        <time>2021-05-21T08:50:05Z</time>
      </trkpt>
      <trkpt lat="42.3450760" lon="-8.6073860">
        <ele>12.2</ele>
        <time>2021-05-21T08:50:06Z</time>
      </trkpt>
      <trkpt lat="42.3450760" lon="-8.6073760">
        <ele>12.2</ele>
        <time>2021-05-21T08:50:07Z</time>
      </trkpt>
      <trkpt lat="42.3450940" lon="-8.6073690">
        <ele>12.1</ele>
        <time>2021-05-21T08:50:08Z</time>
      </trkpt>
      <trkpt lat="42.3451050" lon="-8.6073650">
        <ele>12.0</ele>
        <time>2021-05-21T08:50:09Z</time>
      </trkpt>
      <trkpt lat="42.3451120" lon="-8.6073570">
        <ele>12.0</ele>
        <time>2021-05-21T08:50:10Z</time>
      </trkpt>
      <trkpt lat="42.3451120" lon="-8.6073520">
        <ele>11.9</ele>
        <time>2021-05-21T08:50:11Z</time>
      </trkpt>
      <trkpt lat="42.3451220" lon="-8.6073500">
        <ele>11.9</ele>
        <time>2021-05-21T08:50:12Z</time>
      </trkpt>
      <trkpt lat="42.3451380" lon="-8.6073420">
        <ele>11.8</ele>
        <time>2021-05-21T08:50:13Z</time>
      </trkpt>
      <trkpt lat="42.3451490" lon="-8.6073330">
        <ele>11.7</ele>
        <time>2021-05-21T08:50:14Z</time>
      </trkpt>
      <trkpt lat="42.3451800" lon="-8.6073210">
        <ele>11.7</ele>
        <time>2021-05-21T08:50:15Z</time>
      </trkpt>
      <trkpt lat="42.3451990" lon="-8.6072920">
        <ele>11.7</ele>
        <time>2021-05-21T08:50:16Z</time>
      </trkpt>
      <trkpt lat="42.3452030" lon="-8.6072790">
        <ele>11.7</ele>
        <time>2021-05-21T08:50:17Z</time>
      </trkpt>
      <trkpt lat="42.3452250" lon="-8.6072480">
        <ele>11.7</ele>
        <time>2021-05-21T08:50:19Z</time>
      </trkpt>
      <trkpt lat="42.3452310" lon="-8.6072420">
        <ele>11.7</ele>
        <time>2021-05-21T08:50:20Z</time>
      </trkpt>
      <trkpt lat="42.3452270" lon="-8.6072280">
        <ele>11.7</ele>
        <time>2021-05-21T08:50:21Z</time>
      </trkpt>
      <trkpt lat="42.3452370" lon="-8.6072160">
        <ele>11.7</ele>
        <time>2021-05-21T08:50:22Z</time>
      </trkpt>
      <trkpt lat="42.3452420" lon="-8.6072080">
        <ele>11.7</ele>
        <time>2021-05-21T08:50:23Z</time>
      </trkpt>
      <trkpt lat="42.3452450" lon="-8.6071940">
        <ele>11.7</ele>
        <time>2021-05-21T08:50:24Z</time>
      </trkpt>
      <trkpt lat="42.3452580" lon="-8.6071920">
        <ele>11.7</ele>
        <time>2021-05-21T08:50:25Z</time>
      </trkpt>
      <trkpt lat="42.3452620" lon="-8.6071750">
        <ele>11.7</ele>
        <time>2021-05-21T08:50:26Z</time>
      </trkpt>
      <trkpt lat="42.3452580" lon="-8.6071680">
        <ele>11.7</ele>
        <time>2021-05-21T08:50:27Z</time>
      </trkpt>
      <trkpt lat="42.3452640" lon="-8.6071590">
        <ele>11.7</ele>
        <time>2021-05-21T08:50:28Z</time>
      </trkpt>
      <trkpt lat="42.3452630" lon="-8.6071590">
        <ele>11.7</ele>
        <time>2021-05-21T08:50:29Z</time>
      </trkpt>
      <trkpt lat="42.3452600" lon="-8.6071590">
        <ele>11.7</ele>
        <time>2021-05-21T08:50:30Z</time>
      </trkpt>
      <trkpt lat="42.3452620" lon="-8.6071590">
        <ele>11.7</ele>
        <time>2021-05-21T08:50:31Z</time>
      </trkpt>
      <trkpt lat="42.3452670" lon="-8.6071580">
        <ele>11.7</ele>
        <time>2021-05-21T08:50:32Z</time>
      </trkpt>
      <trkpt lat="42.3452620" lon="-8.6071590">
        <ele>11.6</ele>
        <time>2021-05-21T08:50:33Z</time>
      </trkpt>
      <trkpt lat="42.3452560" lon="-8.6071590">
        <ele>11.6</ele>
        <time>2021-05-21T08:50:34Z</time>
      </trkpt>
      <trkpt lat="42.3452550" lon="-8.6071590">
        <ele>11.6</ele>
        <time>2021-05-21T08:50:35Z</time>
      </trkpt>
      <trkpt lat="42.3452570" lon="-8.6071590">
        <ele>11.6</ele>
        <time>2021-05-21T08:50:36Z</time>
      </trkpt>
      <trkpt lat="42.3452560" lon="-8.6071570">
        <ele>11.6</ele>
        <time>2021-05-21T08:50:37Z</time>
      </trkpt>
      <trkpt lat="42.3452590" lon="-8.6071550">
        <ele>11.6</ele>
        <time>2021-05-21T08:50:38Z</time>
      </trkpt>
      <trkpt lat="42.3452600" lon="-8.6071550">
        <ele>11.6</ele>
        <time>2021-05-21T08:50:39Z</time>
      </trkpt>
      <trkpt lat="42.3452580" lon="-8.6071540">
        <ele>11.6</ele>
        <time>2021-05-21T08:50:40Z</time>
      </trkpt>
      <trkpt lat="42.3452650" lon="-8.6071480">
        <ele>11.6</ele>
        <time>2021-05-21T08:50:41Z</time>
      </trkpt>
      <trkpt lat="42.3452750" lon="-8.6071510">
        <ele>11.6</ele>
        <time>2021-05-21T08:50:42Z</time>
      </trkpt>
      <trkpt lat="42.3452740" lon="-8.6071500">
        <ele>11.6</ele>
        <time>2021-05-21T08:50:43Z</time>
      </trkpt>
      <trkpt lat="42.3452780" lon="-8.6071520">
        <ele>11.6</ele>
        <time>2021-05-21T08:50:44Z</time>
      </trkpt>
      <trkpt lat="42.3452820" lon="-8.6071520">
        <ele>11.6</ele>
        <time>2021-05-21T08:50:45Z</time>
      </trkpt>
      <trkpt lat="42.3452840" lon="-8.6071510">
        <ele>11.6</ele>
        <time>2021-05-21T08:50:46Z</time>
      </trkpt>
      <trkpt lat="42.3452880" lon="-8.6071500">
        <ele>11.6</ele>
        <time>2021-05-21T08:50:47Z</time>
      </trkpt>
      <trkpt lat="42.3452860" lon="-8.6071500">
        <ele>11.6</ele>
        <time>2021-05-21T08:50:48Z</time>
      </trkpt>
      <trkpt lat="42.3452800" lon="-8.6071510">
        <ele>11.6</ele>
        <time>2021-05-21T08:50:49Z</time>
      </trkpt>
      <trkpt lat="42.3452760" lon="-8.6071520">
        <ele>11.6</ele>
        <time>2021-05-21T08:50:50Z</time>
      </trkpt>
      <trkpt lat="42.3452750" lon="-8.6071520">
        <ele>11.6</ele>
        <time>2021-05-21T08:50:51Z</time>
      </trkpt>
      <trkpt lat="42.3452700" lon="-8.6071520">
        <ele>11.6</ele>
        <time>2021-05-21T08:50:52Z</time>
      </trkpt>
      <trkpt lat="42.3452650" lon="-8.6071560">
        <ele>11.6</ele>
        <time>2021-05-21T08:50:53Z</time>
      </trkpt>
      <trkpt lat="42.3452590" lon="-8.6071550">
        <ele>11.6</ele>
        <time>2021-05-21T08:50:54Z</time>
      </trkpt>
      <trkpt lat="42.3452620" lon="-8.6071590">
        <ele>11.6</ele>
        <time>2021-05-21T08:50:55Z</time>
      </trkpt>
      <trkpt lat="42.3452570" lon="-8.6071550">
        <ele>11.6</ele>
        <time>2021-05-21T08:50:56Z</time>
      </trkpt>
      <trkpt lat="42.3452600" lon="-8.6071540">
        <ele>11.6</ele>
        <time>2021-05-21T08:50:57Z</time>
      </trkpt>
      <trkpt lat="42.3452600" lon="-8.6071530">
        <ele>11.6</ele>
        <time>2021-05-21T08:50:58Z</time>
      </trkpt>
      <trkpt lat="42.3452620" lon="-8.6071530">
        <ele>11.6</ele>
        <time>2021-05-21T08:50:59Z</time>
      </trkpt>
      <trkpt lat="42.3452610" lon="-8.6071550">
        <ele>11.6</ele>
        <time>2021-05-21T08:51:00Z</time>
      </trkpt>
      <trkpt lat="42.3452610" lon="-8.6071560">
        <ele>11.6</ele>
        <time>2021-05-21T08:51:01Z</time>
      </trkpt>
      <trkpt lat="42.3452630" lon="-8.6071570">
        <ele>11.6</ele>
        <time>2021-05-21T08:51:02Z</time>
      </trkpt>
      <trkpt lat="42.3452730" lon="-8.6071650">
        <ele>11.6</ele>
        <time>2021-05-21T08:51:03Z</time>
      </trkpt>
      <trkpt lat="42.3452740" lon="-8.6071610">
        <ele>11.6</ele>
        <time>2021-05-21T08:51:04Z</time>
      </trkpt>
      <trkpt lat="42.3452710" lon="-8.6071590">
        <ele>11.6</ele>
        <time>2021-05-21T08:51:05Z</time>
      </trkpt>
      <trkpt lat="42.3452680" lon="-8.6071580">
        <ele>11.6</ele>
        <time>2021-05-21T08:51:06Z</time>
      </trkpt>
      <trkpt lat="42.3452670" lon="-8.6071580">
        <ele>11.6</ele>
        <time>2021-05-21T08:51:07Z</time>
      </trkpt>
      <trkpt lat="42.3452650" lon="-8.6071540">
        <ele>11.6</ele>
        <time>2021-05-21T08:51:08Z</time>
      </trkpt>
      <trkpt lat="42.3452660" lon="-8.6071580">
        <ele>11.6</ele>
        <time>2021-05-21T08:51:09Z</time>
      </trkpt>
      <trkpt lat="42.3452710" lon="-8.6071610">
        <ele>11.6</ele>
        <time>2021-05-21T08:51:10Z</time>
      </trkpt>
      <trkpt lat="42.3452710" lon="-8.6071640">
        <ele>11.6</ele>
        <time>2021-05-21T08:51:11Z</time>
      </trkpt>
      <trkpt lat="42.3452700" lon="-8.6071710">
        <ele>11.6</ele>
        <time>2021-05-21T08:51:12Z</time>
      </trkpt>
      <trkpt lat="42.3452720" lon="-8.6071690">
        <ele>11.6</ele>
        <time>2021-05-21T08:51:13Z</time>
      </trkpt>
      <trkpt lat="42.3452730" lon="-8.6071670">
        <ele>11.6</ele>
        <time>2021-05-21T08:51:14Z</time>
      </trkpt>
      <trkpt lat="42.3452740" lon="-8.6071700">
        <ele>11.6</ele>
        <time>2021-05-21T08:51:15Z</time>
      </trkpt>
      <trkpt lat="42.3452800" lon="-8.6071690">
        <ele>11.6</ele>
        <time>2021-05-21T08:51:16Z</time>
      </trkpt>
      <trkpt lat="42.3452820" lon="-8.6071660">
        <ele>11.6</ele>
        <time>2021-05-21T08:51:17Z</time>
      </trkpt>
      <trkpt lat="42.3452850" lon="-8.6071610">
        <ele>11.6</ele>
        <time>2021-05-21T08:51:18Z</time>
      </trkpt>
      <trkpt lat="42.3452860" lon="-8.6071550">
        <ele>11.6</ele>
        <time>2021-05-21T08:51:19Z</time>
      </trkpt>
      <trkpt lat="42.3452840" lon="-8.6071600">
        <ele>11.6</ele>
        <time>2021-05-21T08:51:20Z</time>
      </trkpt>
      <trkpt lat="42.3452840" lon="-8.6071600">
        <ele>11.6</ele>
        <time>2021-05-21T08:51:21Z</time>
      </trkpt>
      <trkpt lat="42.3452840" lon="-8.6071520">
        <ele>11.6</ele>
        <time>2021-05-21T08:51:22Z</time>
      </trkpt>
      <trkpt lat="42.3452820" lon="-8.6071390">
        <ele>11.6</ele>
        <time>2021-05-21T08:51:23Z</time>
      </trkpt>
      <trkpt lat="42.3452820" lon="-8.6071370">
        <ele>11.6</ele>
        <time>2021-05-21T08:51:24Z</time>
      </trkpt>
      <trkpt lat="42.3452830" lon="-8.6071340">
        <ele>11.6</ele>
        <time>2021-05-21T08:51:25Z</time>
      </trkpt>
      <trkpt lat="42.3452850" lon="-8.6071300">
        <ele>11.6</ele>
        <time>2021-05-21T08:51:26Z</time>
      </trkpt>
      <trkpt lat="42.3452840" lon="-8.6071290">
        <ele>11.6</ele>
        <time>2021-05-21T08:51:27Z</time>
      </trkpt>
      <trkpt lat="42.3452890" lon="-8.6071310">
        <ele>11.6</ele>
        <time>2021-05-21T08:51:28Z</time>
      </trkpt>
      <trkpt lat="42.3452970" lon="-8.6071420">
        <ele>11.6</ele>
        <time>2021-05-21T08:51:29Z</time>
      </trkpt>
      <trkpt lat="42.3452980" lon="-8.6071460">
        <ele>11.6</ele>
        <time>2021-05-21T08:51:30Z</time>
      </trkpt>
      <trkpt lat="42.3452940" lon="-8.6071550">
        <ele>11.6</ele>
        <time>2021-05-21T08:51:31Z</time>
      </trkpt>
      <trkpt lat="42.3452940" lon="-8.6071560">
        <ele>11.6</ele>
        <time>2021-05-21T08:51:32Z</time>
      </trkpt>
      <trkpt lat="42.3452940" lon="-8.6071610">
        <ele>11.6</ele>
        <time>2021-05-21T08:51:33Z</time>
      </trkpt>
      <trkpt lat="42.3452960" lon="-8.6071610">
        <ele>11.6</ele>
        <time>2021-05-21T08:51:34Z</time>
      </trkpt>
      <trkpt lat="42.3452900" lon="-8.6071580">
        <ele>11.6</ele>
        <time>2021-05-21T08:51:35Z</time>
      </trkpt>
      <trkpt lat="42.3452850" lon="-8.6071570">
        <ele>11.6</ele>
        <time>2021-05-21T08:51:36Z</time>
      </trkpt>
      <trkpt lat="42.3452790" lon="-8.6071610">
        <ele>11.6</ele>
        <time>2021-05-21T08:51:37Z</time>
      </trkpt>
      <trkpt lat="42.3452750" lon="-8.6071630">
        <ele>11.6</ele>
        <time>2021-05-21T08:51:38Z</time>
      </trkpt>
      <trkpt lat="42.3452720" lon="-8.6071630">
        <ele>11.6</ele>
        <time>2021-05-21T08:51:39Z</time>
      </trkpt>
      <trkpt lat="42.3452720" lon="-8.6071620">
        <ele>11.6</ele>
        <time>2021-05-21T08:51:40Z</time>
      </trkpt>
      <trkpt lat="42.3452730" lon="-8.6071600">
        <ele>11.6</ele>
        <time>2021-05-21T08:51:41Z</time>
      </trkpt>
      <trkpt lat="42.3452670" lon="-8.6071720">
        <ele>11.5</ele>
        <time>2021-05-21T08:51:42Z</time>
      </trkpt>
      <trkpt lat="42.3452630" lon="-8.6071750">
        <ele>11.5</ele>
        <time>2021-05-21T08:51:43Z</time>
      </trkpt>
      <trkpt lat="42.3452700" lon="-8.6071830">
        <ele>11.5</ele>
        <time>2021-05-21T08:51:44Z</time>
      </trkpt>
      <trkpt lat="42.3452700" lon="-8.6071840">
        <ele>11.5</ele>
        <time>2021-05-21T08:51:45Z</time>
      </trkpt>
      <trkpt lat="42.3452680" lon="-8.6071900">
        <ele>11.5</ele>
        <time>2021-05-21T08:51:46Z</time>
      </trkpt>
      <trkpt lat="42.3452670" lon="-8.6071870">
        <ele>11.5</ele>
        <time>2021-05-21T08:51:47Z</time>
      </trkpt>
      <trkpt lat="42.3452640" lon="-8.6071830">
        <ele>11.5</ele>
        <time>2021-05-21T08:51:48Z</time>
      </trkpt>
      <trkpt lat="42.3452620" lon="-8.6071800">
        <ele>11.5</ele>
        <time>2021-05-21T08:51:49Z</time>
      </trkpt>
      <trkpt lat="42.3452640" lon="-8.6071790">
        <ele>11.5</ele>
        <time>2021-05-21T08:51:50Z</time>
      </trkpt>
      <trkpt lat="42.3452620" lon="-8.6071730">
        <ele>11.5</ele>
        <time>2021-05-21T08:51:51Z</time>
      </trkpt>
      <trkpt lat="42.3452620" lon="-8.6071690">
        <ele>11.5</ele>
        <time>2021-05-21T08:51:52Z</time>
      </trkpt>
      <trkpt lat="42.3452640" lon="-8.6071610">
        <ele>11.5</ele>
        <time>2021-05-21T08:51:53Z</time>
      </trkpt>
      <trkpt lat="42.3452610" lon="-8.6071590">
        <ele>11.5</ele>
        <time>2021-05-21T08:51:54Z</time>
      </trkpt>
      <trkpt lat="42.3452660" lon="-8.6071540">
        <ele>11.5</ele>
        <time>2021-05-21T08:51:55Z</time>
      </trkpt>
      <trkpt lat="42.3452610" lon="-8.6071530">
        <ele>11.5</ele>
        <time>2021-05-21T08:51:56Z</time>
      </trkpt>
      <trkpt lat="42.3452560" lon="-8.6071550">
        <ele>11.5</ele>
        <time>2021-05-21T08:51:57Z</time>
      </trkpt>
      <trkpt lat="42.3452540" lon="-8.6071580">
        <ele>11.5</ele>
        <time>2021-05-21T08:51:58Z</time>
      </trkpt>
      <trkpt lat="42.3452490" lon="-8.6071600">
        <ele>11.5</ele>
        <time>2021-05-21T08:51:59Z</time>
      </trkpt>
      <trkpt lat="42.3452450" lon="-8.6071590">
        <ele>11.5</ele>
        <time>2021-05-21T08:52:00Z</time>
      </trkpt>
      <trkpt lat="42.3452440" lon="-8.6071570">
        <ele>11.5</ele>
        <time>2021-05-21T08:52:01Z</time>
      </trkpt>
      <trkpt lat="42.3452470" lon="-8.6071570">
        <ele>11.5</ele>
        <time>2021-05-21T08:52:02Z</time>
      </trkpt>
      <trkpt lat="42.3452470" lon="-8.6071480">
        <ele>11.5</ele>
        <time>2021-05-21T08:52:03Z</time>
      </trkpt>
      <trkpt lat="42.3452400" lon="-8.6071480">
        <ele>11.5</ele>
        <time>2021-05-21T08:52:04Z</time>
      </trkpt>
      <trkpt lat="42.3452450" lon="-8.6071500">
        <ele>11.5</ele>
        <time>2021-05-21T08:52:05Z</time>
      </trkpt>
      <trkpt lat="42.3452470" lon="-8.6071510">
        <ele>11.5</ele>
        <time>2021-05-21T08:52:06Z</time>
      </trkpt>
      <trkpt lat="42.3452480" lon="-8.6071480">
        <ele>11.5</ele>
        <time>2021-05-21T08:52:07Z</time>
      </trkpt>
      <trkpt lat="42.3452510" lon="-8.6071460">
        <ele>11.5</ele>
        <time>2021-05-21T08:52:08Z</time>
      </trkpt>
      <trkpt lat="42.3452490" lon="-8.6071460">
        <ele>11.5</ele>
        <time>2021-05-21T08:52:09Z</time>
      </trkpt>
      <trkpt lat="42.3452520" lon="-8.6071520">
        <ele>11.5</ele>
        <time>2021-05-21T08:52:10Z</time>
      </trkpt>
      <trkpt lat="42.3452570" lon="-8.6071550">
        <ele>11.5</ele>
        <time>2021-05-21T08:52:11Z</time>
      </trkpt>
      <trkpt lat="42.3452570" lon="-8.6071580">
        <ele>11.5</ele>
        <time>2021-05-21T08:52:12Z</time>
      </trkpt>
      <trkpt lat="42.3452570" lon="-8.6071590">
        <ele>11.5</ele>
        <time>2021-05-21T08:52:13Z</time>
      </trkpt>
      <trkpt lat="42.3452590" lon="-8.6071590">
        <ele>11.5</ele>
        <time>2021-05-21T08:52:14Z</time>
      </trkpt>
      <trkpt lat="42.3452610" lon="-8.6071580">
        <ele>11.5</ele>
        <time>2021-05-21T08:52:15Z</time>
      </trkpt>
      <trkpt lat="42.3452670" lon="-8.6071550">
        <ele>11.5</ele>
        <time>2021-05-21T08:52:16Z</time>
      </trkpt>
      <trkpt lat="42.3452720" lon="-8.6071500">
        <ele>11.5</ele>
        <time>2021-05-21T08:52:17Z</time>
      </trkpt>
      <trkpt lat="42.3452720" lon="-8.6071550">
        <ele>11.5</ele>
        <time>2021-05-21T08:52:18Z</time>
      </trkpt>
      <trkpt lat="42.3452710" lon="-8.6071550">
        <ele>11.5</ele>
        <time>2021-05-21T08:52:19Z</time>
      </trkpt>
      <trkpt lat="42.3452700" lon="-8.6071580">
        <ele>11.5</ele>
        <time>2021-05-21T08:52:20Z</time>
      </trkpt>
      <trkpt lat="42.3452700" lon="-8.6071590">
        <ele>11.5</ele>
        <time>2021-05-21T08:52:21Z</time>
      </trkpt>
      <trkpt lat="42.3452720" lon="-8.6071550">
        <ele>11.5</ele>
        <time>2021-05-21T08:52:22Z</time>
      </trkpt>
      <trkpt lat="42.3452710" lon="-8.6071530">
        <ele>11.5</ele>
        <time>2021-05-21T08:52:23Z</time>
      </trkpt>
      <trkpt lat="42.3452730" lon="-8.6071460">
        <ele>11.5</ele>
        <time>2021-05-21T08:52:24Z</time>
      </trkpt>
      <trkpt lat="42.3452750" lon="-8.6071430">
        <ele>11.5</ele>
        <time>2021-05-21T08:52:25Z</time>
      </trkpt>
      <trkpt lat="42.3452730" lon="-8.6071370">
        <ele>11.5</ele>
        <time>2021-05-21T08:52:26Z</time>
      </trkpt>
      <trkpt lat="42.3452670" lon="-8.6071320">
        <ele>11.5</ele>
        <time>2021-05-21T08:52:27Z</time>
      </trkpt>
      <trkpt lat="42.3452640" lon="-8.6071290">
        <ele>11.5</ele>
        <time>2021-05-21T08:52:28Z</time>
      </trkpt>
      <trkpt lat="42.3452620" lon="-8.6071320">
        <ele>11.5</ele>
        <time>2021-05-21T08:52:29Z</time>
      </trkpt>
      <trkpt lat="42.3452580" lon="-8.6071340">
        <ele>11.5</ele>
        <time>2021-05-21T08:52:30Z</time>
      </trkpt>
      <trkpt lat="42.3452530" lon="-8.6071310">
        <ele>11.5</ele>
        <time>2021-05-21T08:52:31Z</time>
      </trkpt>
      <trkpt lat="42.3452530" lon="-8.6071310">
        <ele>11.5</ele>
        <time>2021-05-21T08:52:32Z</time>
      </trkpt>
      <trkpt lat="42.3452620" lon="-8.6071350">
        <ele>11.5</ele>
        <time>2021-05-21T08:52:33Z</time>
      </trkpt>
      <trkpt lat="42.3452570" lon="-8.6071340">
        <ele>11.5</ele>
        <time>2021-05-21T08:52:34Z</time>
      </trkpt>
      <trkpt lat="42.3452600" lon="-8.6071360">
        <ele>11.5</ele>
        <time>2021-05-21T08:52:35Z</time>
      </trkpt>
      <trkpt lat="42.3452660" lon="-8.6071450">
        <ele>11.5</ele>
        <time>2021-05-21T08:52:36Z</time>
      </trkpt>
      <trkpt lat="42.3452710" lon="-8.6071480">
        <ele>11.5</ele>
        <time>2021-05-21T08:52:37Z</time>
      </trkpt>
      <trkpt lat="42.3452710" lon="-8.6071510">
        <ele>11.5</ele>
        <time>2021-05-21T08:52:38Z</time>
      </trkpt>
      <trkpt lat="42.3452730" lon="-8.6071520">
        <ele>11.5</ele>
        <time>2021-05-21T08:52:39Z</time>
      </trkpt>
      <trkpt lat="42.3452750" lon="-8.6071520">
        <ele>11.5</ele>
        <time>2021-05-21T08:52:40Z</time>
      </trkpt>
      <trkpt lat="42.3452850" lon="-8.6071500">
        <ele>11.5</ele>
        <time>2021-05-21T08:52:41Z</time>
      </trkpt>
      <trkpt lat="42.3452920" lon="-8.6071520">
        <ele>11.5</ele>
        <time>2021-05-21T08:52:42Z</time>
      </trkpt>
      <trkpt lat="42.3452890" lon="-8.6071500">
        <ele>11.5</ele>
        <time>2021-05-21T08:52:43Z</time>
      </trkpt>
      <trkpt lat="42.3452890" lon="-8.6071470">
        <ele>11.5</ele>
        <time>2021-05-21T08:52:44Z</time>
      </trkpt>
      <trkpt lat="42.3452840" lon="-8.6071460">
        <ele>11.5</ele>
        <time>2021-05-21T08:52:45Z</time>
      </trkpt>
      <trkpt lat="42.3452870" lon="-8.6071460">
        <ele>11.5</ele>
        <time>2021-05-21T08:52:46Z</time>
      </trkpt>
      <trkpt lat="42.3452860" lon="-8.6071440">
        <ele>11.5</ele>
        <time>2021-05-21T08:52:47Z</time>
      </trkpt>
      <trkpt lat="42.3452830" lon="-8.6071410">
        <ele>11.5</ele>
        <time>2021-05-21T08:52:48Z</time>
      </trkpt>
      <trkpt lat="42.3452840" lon="-8.6071390">
        <ele>11.5</ele>
        <time>2021-05-21T08:52:49Z</time>
      </trkpt>
      <trkpt lat="42.3452820" lon="-8.6071360">
        <ele>11.5</ele>
        <time>2021-05-21T08:52:50Z</time>
      </trkpt>
      <trkpt lat="42.3452790" lon="-8.6071350">
        <ele>11.5</ele>
        <time>2021-05-21T08:52:51Z</time>
      </trkpt>
      <trkpt lat="42.3452790" lon="-8.6071340">
        <ele>11.5</ele>
        <time>2021-05-21T08:52:52Z</time>
      </trkpt>
      <trkpt lat="42.3452780" lon="-8.6071330">
        <ele>11.5</ele>
        <time>2021-05-21T08:52:53Z</time>
      </trkpt>
      <trkpt lat="42.3452750" lon="-8.6071300">
        <ele>11.5</ele>
        <time>2021-05-21T08:52:54Z</time>
      </trkpt>
      <trkpt lat="42.3452740" lon="-8.6071300">
        <ele>11.5</ele>
        <time>2021-05-21T08:52:56Z</time>
      </trkpt>
      <trkpt lat="42.3452720" lon="-8.6071280">
        <ele>11.5</ele>
        <time>2021-05-21T08:52:57Z</time>
      </trkpt>
      <trkpt lat="42.3452670" lon="-8.6071280">
        <ele>11.5</ele>
        <time>2021-05-21T08:52:58Z</time>
      </trkpt>
      <trkpt lat="42.3452670" lon="-8.6071280">
        <ele>11.5</ele>
        <time>2021-05-21T08:52:59Z</time>
      </trkpt>
      <trkpt lat="42.3452610" lon="-8.6071250">
        <ele>11.5</ele>
        <time>2021-05-21T08:53:00Z</time>
      </trkpt>
      <trkpt lat="42.3452600" lon="-8.6071220">
        <ele>11.5</ele>
        <time>2021-05-21T08:53:01Z</time>
      </trkpt>
      <trkpt lat="42.3452590" lon="-8.6071220">
        <ele>11.5</ele>
        <time>2021-05-21T08:53:02Z</time>
      </trkpt>
      <trkpt lat="42.3452570" lon="-8.6071220">
        <ele>11.5</ele>
        <time>2021-05-21T08:53:03Z</time>
      </trkpt>
      <trkpt lat="42.3452540" lon="-8.6071210">
        <ele>11.5</ele>
        <time>2021-05-21T08:53:04Z</time>
      </trkpt>
      <trkpt lat="42.3452540" lon="-8.6071210">
        <ele>11.5</ele>
        <time>2021-05-21T08:53:05Z</time>
      </trkpt>
      <trkpt lat="42.3452520" lon="-8.6071190">
        <ele>11.5</ele>
        <time>2021-05-21T08:53:06Z</time>
      </trkpt>
      <trkpt lat="42.3452520" lon="-8.6071190">
        <ele>11.5</ele>
        <time>2021-05-21T08:53:07Z</time>
      </trkpt>
      <trkpt lat="42.3452520" lon="-8.6071210">
        <ele>11.5</ele>
        <time>2021-05-21T08:53:08Z</time>
      </trkpt>
      <trkpt lat="42.3452550" lon="-8.6071210">
        <ele>11.5</ele>
        <time>2021-05-21T08:53:09Z</time>
      </trkpt>
      <trkpt lat="42.3452580" lon="-8.6071210">
        <ele>11.5</ele>
        <time>2021-05-21T08:53:10Z</time>
      </trkpt>
      <trkpt lat="42.3452620" lon="-8.6071220">
        <ele>11.4</ele>
        <time>2021-05-21T08:53:11Z</time>
      </trkpt>
      <trkpt lat="42.3452750" lon="-8.6071300">
        <ele>11.4</ele>
        <time>2021-05-21T08:53:12Z</time>
      </trkpt>
      <trkpt lat="42.3452720" lon="-8.6071290">
        <ele>11.4</ele>
        <time>2021-05-21T08:53:13Z</time>
      </trkpt>
      <trkpt lat="42.3452690" lon="-8.6071350">
        <ele>11.4</ele>
        <time>2021-05-21T08:53:14Z</time>
      </trkpt>
      <trkpt lat="42.3452670" lon="-8.6071380">
        <ele>11.4</ele>
        <time>2021-05-21T08:53:15Z</time>
      </trkpt>
      <trkpt lat="42.3452640" lon="-8.6071360">
        <ele>11.4</ele>
        <time>2021-05-21T08:53:16Z</time>
      </trkpt>
      <trkpt lat="42.3452610" lon="-8.6071330">
        <ele>11.4</ele>
        <time>2021-05-21T08:53:17Z</time>
      </trkpt>
      <trkpt lat="42.3452560" lon="-8.6071310">
        <ele>11.4</ele>
        <time>2021-05-21T08:53:18Z</time>
      </trkpt>
      <trkpt lat="42.3452610" lon="-8.6071340">
        <ele>11.4</ele>
        <time>2021-05-21T08:53:19Z</time>
      </trkpt>
      <trkpt lat="42.3452590" lon="-8.6071380">
        <ele>11.4</ele>
        <time>2021-05-21T08:53:20Z</time>
      </trkpt>
      <trkpt lat="42.3452600" lon="-8.6071380">
        <ele>11.4</ele>
        <time>2021-05-21T08:53:21Z</time>
      </trkpt>
      <trkpt lat="42.3452640" lon="-8.6071390">
        <ele>11.4</ele>
        <time>2021-05-21T08:53:22Z</time>
      </trkpt>
      <trkpt lat="42.3452610" lon="-8.6071410">
        <ele>11.4</ele>
        <time>2021-05-21T08:53:23Z</time>
      </trkpt>
      <trkpt lat="42.3452640" lon="-8.6071420">
        <ele>11.4</ele>
        <time>2021-05-21T08:53:24Z</time>
      </trkpt>
      <trkpt lat="42.3452640" lon="-8.6071450">
        <ele>11.4</ele>
        <time>2021-05-21T08:53:25Z</time>
      </trkpt>
      <trkpt lat="42.3452630" lon="-8.6071470">
        <ele>11.4</ele>
        <time>2021-05-21T08:53:26Z</time>
      </trkpt>
      <trkpt lat="42.3452630" lon="-8.6071420">
        <ele>11.4</ele>
        <time>2021-05-21T08:53:27Z</time>
      </trkpt>
      <trkpt lat="42.3452640" lon="-8.6071410">
        <ele>11.4</ele>
        <time>2021-05-21T08:53:28Z</time>
      </trkpt>
      <trkpt lat="42.3452630" lon="-8.6071370">
        <ele>11.4</ele>
        <time>2021-05-21T08:53:29Z</time>
      </trkpt>
      <trkpt lat="42.3452580" lon="-8.6071370">
        <ele>11.4</ele>
        <time>2021-05-21T08:53:30Z</time>
      </trkpt>
      <trkpt lat="42.3452650" lon="-8.6071380">
        <ele>11.4</ele>
        <time>2021-05-21T08:53:31Z</time>
      </trkpt>
      <trkpt lat="42.3452640" lon="-8.6071380">
        <ele>11.4</ele>
        <time>2021-05-21T08:53:32Z</time>
      </trkpt>
      <trkpt lat="42.3452610" lon="-8.6071410">
        <ele>11.4</ele>
        <time>2021-05-21T08:53:33Z</time>
      </trkpt>
      <trkpt lat="42.3452610" lon="-8.6071360">
        <ele>11.4</ele>
        <time>2021-05-21T08:53:34Z</time>
      </trkpt>
      <trkpt lat="42.3452630" lon="-8.6071350">
        <ele>11.4</ele>
        <time>2021-05-21T08:53:35Z</time>
      </trkpt>
      <trkpt lat="42.3452690" lon="-8.6071440">
        <ele>11.4</ele>
        <time>2021-05-21T08:53:36Z</time>
      </trkpt>
      <trkpt lat="42.3452650" lon="-8.6071470">
        <ele>11.4</ele>
        <time>2021-05-21T08:53:37Z</time>
      </trkpt>
      <trkpt lat="42.3452640" lon="-8.6071520">
        <ele>11.4</ele>
        <time>2021-05-21T08:53:38Z</time>
      </trkpt>
      <trkpt lat="42.3452640" lon="-8.6071530">
        <ele>11.4</ele>
        <time>2021-05-21T08:53:39Z</time>
      </trkpt>
      <trkpt lat="42.3452640" lon="-8.6071540">
        <ele>11.4</ele>
        <time>2021-05-21T08:53:40Z</time>
      </trkpt>
      <trkpt lat="42.3452650" lon="-8.6071550">
        <ele>11.4</ele>
        <time>2021-05-21T08:53:41Z</time>
      </trkpt>
      <trkpt lat="42.3452650" lon="-8.6071570">
        <ele>11.4</ele>
        <time>2021-05-21T08:53:42Z</time>
      </trkpt>
      <trkpt lat="42.3452670" lon="-8.6071500">
        <ele>11.4</ele>
        <time>2021-05-21T08:53:43Z</time>
      </trkpt>
      <trkpt lat="42.3452710" lon="-8.6071470">
        <ele>11.4</ele>
        <time>2021-05-21T08:53:44Z</time>
      </trkpt>
      <trkpt lat="42.3452730" lon="-8.6071500">
        <ele>11.4</ele>
        <time>2021-05-21T08:53:45Z</time>
      </trkpt>
      <trkpt lat="42.3452730" lon="-8.6071440">
        <ele>11.4</ele>
        <time>2021-05-21T08:53:46Z</time>
      </trkpt>
      <trkpt lat="42.3452740" lon="-8.6071290">
        <ele>11.4</ele>
        <time>2021-05-21T08:53:47Z</time>
      </trkpt>
      <trkpt lat="42.3452780" lon="-8.6071170">
        <ele>11.4</ele>
        <time>2021-05-21T08:53:48Z</time>
      </trkpt>
      <trkpt lat="42.3452760" lon="-8.6071060">
        <ele>11.4</ele>
        <time>2021-05-21T08:53:49Z</time>
      </trkpt>
      <trkpt lat="42.3452760" lon="-8.6070960">
        <ele>11.4</ele>
        <time>2021-05-21T08:53:50Z</time>
      </trkpt>
      <trkpt lat="42.3452830" lon="-8.6070870">
        <ele>11.4</ele>
        <time>2021-05-21T08:53:51Z</time>
      </trkpt>
      <trkpt lat="42.3452900" lon="-8.6070730">
        <ele>11.4</ele>
        <time>2021-05-21T08:53:52Z</time>
      </trkpt>
      <trkpt lat="42.3452920" lon="-8.6070570">
        <ele>11.4</ele>
        <time>2021-05-21T08:53:53Z</time>
      </trkpt>
      <trkpt lat="42.3453090" lon="-8.6070460">
        <ele>11.4</ele>
        <time>2021-05-21T08:53:54Z</time>
      </trkpt>
      <trkpt lat="42.3453050" lon="-8.6070420">
        <ele>11.4</ele>
        <time>2021-05-21T08:53:55Z</time>
      </trkpt>
      <trkpt lat="42.3453170" lon="-8.6070400">
        <ele>11.4</ele>
        <time>2021-05-21T08:53:56Z</time>
      </trkpt>
      <trkpt lat="42.3453200" lon="-8.6070310">
        <ele>11.4</ele>
        <time>2021-05-21T08:53:57Z</time>
      </trkpt>
      <trkpt lat="42.3453250" lon="-8.6070270">
        <ele>11.4</ele>
        <time>2021-05-21T08:53:58Z</time>
      </trkpt>
      <trkpt lat="42.3453320" lon="-8.6070250">
        <ele>11.4</ele>
        <time>2021-05-21T08:53:59Z</time>
      </trkpt>
      <trkpt lat="42.3453320" lon="-8.6070170">
        <ele>11.4</ele>
        <time>2021-05-21T08:54:00Z</time>
      </trkpt>
      <trkpt lat="42.3453380" lon="-8.6070120">
        <ele>11.4</ele>
        <time>2021-05-21T08:54:01Z</time>
      </trkpt>
      <trkpt lat="42.3453450" lon="-8.6070070">
        <ele>11.4</ele>
        <time>2021-05-21T08:54:02Z</time>
      </trkpt>
      <trkpt lat="42.3453510" lon="-8.6070010">
        <ele>11.4</ele>
        <time>2021-05-21T08:54:03Z</time>
      </trkpt>
      <trkpt lat="42.3453580" lon="-8.6069960">
        <ele>11.3</ele>
        <time>2021-05-21T08:54:04Z</time>
      </trkpt>
      <trkpt lat="42.3453640" lon="-8.6069910">
        <ele>11.3</ele>
        <time>2021-05-21T08:54:05Z</time>
      </trkpt>
      <trkpt lat="42.3453740" lon="-8.6069780">
        <ele>11.3</ele>
        <time>2021-05-21T08:54:06Z</time>
      </trkpt>
      <trkpt lat="42.3453820" lon="-8.6069680">
        <ele>11.3</ele>
        <time>2021-05-21T08:54:07Z</time>
      </trkpt>
      <trkpt lat="42.3453840" lon="-8.6069620">
        <ele>11.3</ele>
        <time>2021-05-21T08:54:08Z</time>
      </trkpt>
      <trkpt lat="42.3453910" lon="-8.6069570">
        <ele>11.3</ele>
        <time>2021-05-21T08:54:09Z</time>
      </trkpt>
      <trkpt lat="42.3454250" lon="-8.6069490">
        <ele>11.2</ele>
        <time>2021-05-21T08:54:10Z</time>
      </trkpt>
      <trkpt lat="42.3454300" lon="-8.6069430">
        <ele>11.2</ele>
        <time>2021-05-21T08:54:11Z</time>
      </trkpt>
      <trkpt lat="42.3454490" lon="-8.6069420">
        <ele>11.2</ele>
        <time>2021-05-21T08:54:12Z</time>
      </trkpt>
      <trkpt lat="42.3454690" lon="-8.6069400">
        <ele>11.2</ele>
        <time>2021-05-21T08:54:13Z</time>
      </trkpt>
      <trkpt lat="42.3454780" lon="-8.6069400">
        <ele>11.2</ele>
        <time>2021-05-21T08:54:14Z</time>
      </trkpt>
      <trkpt lat="42.3454870" lon="-8.6069390">
        <ele>11.1</ele>
        <time>2021-05-21T08:54:15Z</time>
      </trkpt>
      <trkpt lat="42.3455090" lon="-8.6069350">
        <ele>11.1</ele>
        <time>2021-05-21T08:54:16Z</time>
      </trkpt>
      <trkpt lat="42.3455210" lon="-8.6069330">
        <ele>11.1</ele>
        <time>2021-05-21T08:54:17Z</time>
      </trkpt>
      <trkpt lat="42.3455330" lon="-8.6069320">
        <ele>11.1</ele>
        <time>2021-05-21T08:54:18Z</time>
      </trkpt>
      <trkpt lat="42.3455460" lon="-8.6069290">
        <ele>11.1</ele>
        <time>2021-05-21T08:54:19Z</time>
      </trkpt>
      <trkpt lat="42.3455600" lon="-8.6069240">
        <ele>11.1</ele>
        <time>2021-05-21T08:54:20Z</time>
      </trkpt>
      <trkpt lat="42.3455760" lon="-8.6069250">
        <ele>11.0</ele>
        <time>2021-05-21T08:54:21Z</time>
      </trkpt>
      <trkpt lat="42.3455920" lon="-8.6069190">
        <ele>11.0</ele>
        <time>2021-05-21T08:54:22Z</time>
      </trkpt>
      <trkpt lat="42.3456040" lon="-8.6069080">
        <ele>11.0</ele>
        <time>2021-05-21T08:54:23Z</time>
      </trkpt>
      <trkpt lat="42.3456100" lon="-8.6068980">
        <ele>11.0</ele>
        <time>2021-05-21T08:54:24Z</time>
      </trkpt>
      <trkpt lat="42.3456190" lon="-8.6068910">
        <ele>11.0</ele>
        <time>2021-05-21T08:54:25Z</time>
      </trkpt>
      <trkpt lat="42.3456300" lon="-8.6068840">
        <ele>11.0</ele>
        <time>2021-05-21T08:54:26Z</time>
      </trkpt>
      <trkpt lat="42.3456490" lon="-8.6068820">
        <ele>11.0</ele>
        <time>2021-05-21T08:54:27Z</time>
      </trkpt>
      <trkpt lat="42.3456660" lon="-8.6068820">
        <ele>10.9</ele>
        <time>2021-05-21T08:54:28Z</time>
      </trkpt>
      <trkpt lat="42.3456760" lon="-8.6068830">
        <ele>10.9</ele>
        <time>2021-05-21T08:54:29Z</time>
      </trkpt>
      <trkpt lat="42.3456870" lon="-8.6068830">
        <ele>10.9</ele>
        <time>2021-05-21T08:54:30Z</time>
      </trkpt>
      <trkpt lat="42.3457000" lon="-8.6068790">
        <ele>10.9</ele>
        <time>2021-05-21T08:54:31Z</time>
      </trkpt>
      <trkpt lat="42.3457170" lon="-8.6068800">
        <ele>10.9</ele>
        <time>2021-05-21T08:54:32Z</time>
      </trkpt>
      <trkpt lat="42.3457320" lon="-8.6068770">
        <ele>10.9</ele>
        <time>2021-05-21T08:54:33Z</time>
      </trkpt>
      <trkpt lat="42.3457450" lon="-8.6068820">
        <ele>10.9</ele>
        <time>2021-05-21T08:54:34Z</time>
      </trkpt>
      <trkpt lat="42.3457550" lon="-8.6068790">
        <ele>10.8</ele>
        <time>2021-05-21T08:54:35Z</time>
      </trkpt>
      <trkpt lat="42.3457730" lon="-8.6068770">
        <ele>10.8</ele>
        <time>2021-05-21T08:54:36Z</time>
      </trkpt>
      <trkpt lat="42.3457920" lon="-8.6068710">
        <ele>10.8</ele>
        <time>2021-05-21T08:54:37Z</time>
      </trkpt>
      <trkpt lat="42.3458010" lon="-8.6068690">
        <ele>10.8</ele>
        <time>2021-05-21T08:54:38Z</time>
      </trkpt>
      <trkpt lat="42.3458090" lon="-8.6068660">
        <ele>10.8</ele>
        <time>2021-05-21T08:54:39Z</time>
      </trkpt>
      <trkpt lat="42.3458310" lon="-8.6068680">
        <ele>10.8</ele>
        <time>2021-05-21T08:54:40Z</time>
      </trkpt>
      <trkpt lat="42.3458390" lon="-8.6068680">
        <ele>10.8</ele>
        <time>2021-05-21T08:54:41Z</time>
      </trkpt>
      <trkpt lat="42.3458470" lon="-8.6068690">
        <ele>10.8</ele>
        <time>2021-05-21T08:54:42Z</time>
      </trkpt>
      <trkpt lat="42.3458580" lon="-8.6068660">
        <ele>10.7</ele>
        <time>2021-05-21T08:54:43Z</time>
      </trkpt>
      <trkpt lat="42.3458770" lon="-8.6068630">
        <ele>10.7</ele>
        <time>2021-05-21T08:54:44Z</time>
      </trkpt>
      <trkpt lat="42.3458860" lon="-8.6068610">
        <ele>10.7</ele>
        <time>2021-05-21T08:54:45Z</time>
      </trkpt>
      <trkpt lat="42.3458980" lon="-8.6068600">
        <ele>10.7</ele>
        <time>2021-05-21T08:54:47Z</time>
      </trkpt>
      <trkpt lat="42.3459090" lon="-8.6068590">
        <ele>10.7</ele>
        <time>2021-05-21T08:54:48Z</time>
      </trkpt>
      <trkpt lat="42.3459300" lon="-8.6068560">
        <ele>10.7</ele>
        <time>2021-05-21T08:54:49Z</time>
      </trkpt>
      <trkpt lat="42.3459390" lon="-8.6068520">
        <ele>10.7</ele>
        <time>2021-05-21T08:54:50Z</time>
      </trkpt>
      <trkpt lat="42.3459480" lon="-8.6068490">
        <ele>10.7</ele>
        <time>2021-05-21T08:54:51Z</time>
      </trkpt>
      <trkpt lat="42.3459670" lon="-8.6068390">
        <ele>10.6</ele>
        <time>2021-05-21T08:54:52Z</time>
      </trkpt>
      <trkpt lat="42.3459760" lon="-8.6068370">
        <ele>10.6</ele>
        <time>2021-05-21T08:54:53Z</time>
      </trkpt>
      <trkpt lat="42.3459860" lon="-8.6068350">
        <ele>10.6</ele>
        <time>2021-05-21T08:54:54Z</time>
      </trkpt>
      <trkpt lat="42.3459990" lon="-8.6068300">
        <ele>10.6</ele>
        <time>2021-05-21T08:54:55Z</time>
      </trkpt>
      <trkpt lat="42.3460050" lon="-8.6068320">
        <ele>10.6</ele>
        <time>2021-05-21T08:54:56Z</time>
      </trkpt>
      <trkpt lat="42.3460220" lon="-8.6068300">
        <ele>10.6</ele>
        <time>2021-05-21T08:54:57Z</time>
      </trkpt>
      <trkpt lat="42.3460420" lon="-8.6068260">
        <ele>10.6</ele>
        <time>2021-05-21T08:54:58Z</time>
      </trkpt>
      <trkpt lat="42.3460470" lon="-8.6068260">
        <ele>10.5</ele>
        <time>2021-05-21T08:54:59Z</time>
      </trkpt>
      <trkpt lat="42.3460530" lon="-8.6068250">
        <ele>10.5</ele>
        <time>2021-05-21T08:55:00Z</time>
      </trkpt>
      <trkpt lat="42.3460590" lon="-8.6068250">
        <ele>10.5</ele>
        <time>2021-05-21T08:55:01Z</time>
      </trkpt>
      <trkpt lat="42.3460800" lon="-8.6068230">
        <ele>10.5</ele>
        <time>2021-05-21T08:55:02Z</time>
      </trkpt>
      <trkpt lat="42.3460930" lon="-8.6068220">
        <ele>10.5</ele>
        <time>2021-05-21T08:55:03Z</time>
      </trkpt>
      <trkpt lat="42.3461050" lon="-8.6068200">
        <ele>10.5</ele>
        <time>2021-05-21T08:55:04Z</time>
      </trkpt>
      <trkpt lat="42.3461210" lon="-8.6068210">
        <ele>10.4</ele>
        <time>2021-05-21T08:55:05Z</time>
      </trkpt>
      <trkpt lat="42.3461290" lon="-8.6068220">
        <ele>10.4</ele>
        <time>2021-05-21T08:55:06Z</time>
      </trkpt>
      <trkpt lat="42.3461340" lon="-8.6068190">
        <ele>10.4</ele>
        <time>2021-05-21T08:55:07Z</time>
      </trkpt>
      <trkpt lat="42.3461490" lon="-8.6068230">
        <ele>10.4</ele>
        <time>2021-05-21T08:55:08Z</time>
      </trkpt>
      <trkpt lat="42.3461630" lon="-8.6068210">
        <ele>10.4</ele>
        <time>2021-05-21T08:55:09Z</time>
      </trkpt>
      <trkpt lat="42.3461750" lon="-8.6068190">
        <ele>10.4</ele>
        <time>2021-05-21T08:55:10Z</time>
      </trkpt>
      <trkpt lat="42.3461900" lon="-8.6068160">
        <ele>10.3</ele>
        <time>2021-05-21T08:55:11Z</time>
      </trkpt>
      <trkpt lat="42.3462050" lon="-8.6068110">
        <ele>10.3</ele>
        <time>2021-05-21T08:55:12Z</time>
      </trkpt>
      <trkpt lat="42.3462240" lon="-8.6068110">
        <ele>10.3</ele>
        <time>2021-05-21T08:55:13Z</time>
      </trkpt>
      <trkpt lat="42.3462390" lon="-8.6068030">
        <ele>10.3</ele>
        <time>2021-05-21T08:55:14Z</time>
      </trkpt>
      <trkpt lat="42.3462550" lon="-8.6067990">
        <ele>10.2</ele>
        <time>2021-05-21T08:55:15Z</time>
      </trkpt>
      <trkpt lat="42.3462690" lon="-8.6067960">
        <ele>10.2</ele>
        <time>2021-05-21T08:55:16Z</time>
      </trkpt>
      <trkpt lat="42.3462830" lon="-8.6067930">
        <ele>10.2</ele>
        <time>2021-05-21T08:55:17Z</time>
      </trkpt>
      <trkpt lat="42.3462950" lon="-8.6067900">
        <ele>10.2</ele>
        <time>2021-05-21T08:55:18Z</time>
      </trkpt>
      <trkpt lat="42.3463100" lon="-8.6067850">
        <ele>10.2</ele>
        <time>2021-05-21T08:55:19Z</time>
      </trkpt>
      <trkpt lat="42.3463250" lon="-8.6067780">
        <ele>10.1</ele>
        <time>2021-05-21T08:55:20Z</time>
      </trkpt>
      <trkpt lat="42.3463320" lon="-8.6067780">
        <ele>10.1</ele>
        <time>2021-05-21T08:55:21Z</time>
      </trkpt>
      <trkpt lat="42.3463380" lon="-8.6067690">
        <ele>10.1</ele>
        <time>2021-05-21T08:55:22Z</time>
      </trkpt>
      <trkpt lat="42.3463540" lon="-8.6067710">
        <ele>10.1</ele>
        <time>2021-05-21T08:55:23Z</time>
      </trkpt>
      <trkpt lat="42.3463650" lon="-8.6067710">
        <ele>10.1</ele>
        <time>2021-05-21T08:55:24Z</time>
      </trkpt>
      <trkpt lat="42.3463760" lon="-8.6067720">
        <ele>10.1</ele>
        <time>2021-05-21T08:55:25Z</time>
      </trkpt>
      <trkpt lat="42.3464060" lon="-8.6067680">
        <ele>10.0</ele>
        <time>2021-05-21T08:55:26Z</time>
      </trkpt>
      <trkpt lat="42.3464170" lon="-8.6067660">
        <ele>10.0</ele>
        <time>2021-05-21T08:55:27Z</time>
      </trkpt>
      <trkpt lat="42.3464330" lon="-8.6067600">
        <ele>10.0</ele>
        <time>2021-05-21T08:55:28Z</time>
      </trkpt>
      <trkpt lat="42.3464510" lon="-8.6067560">
        <ele>10.0</ele>
        <time>2021-05-21T08:55:29Z</time>
      </trkpt>
      <trkpt lat="42.3464680" lon="-8.6067540">
        <ele>9.9</ele>
        <time>2021-05-21T08:55:30Z</time>
      </trkpt>
      <trkpt lat="42.3464830" lon="-8.6067520">
        <ele>9.9</ele>
        <time>2021-05-21T08:55:31Z</time>
      </trkpt>
      <trkpt lat="42.3464980" lon="-8.6067550">
        <ele>9.9</ele>
        <time>2021-05-21T08:55:32Z</time>
      </trkpt>
      <trkpt lat="42.3465060" lon="-8.6067500">
        <ele>9.9</ele>
        <time>2021-05-21T08:55:33Z</time>
      </trkpt>
      <trkpt lat="42.3465170" lon="-8.6067500">
        <ele>9.9</ele>
        <time>2021-05-21T08:55:34Z</time>
      </trkpt>
      <trkpt lat="42.3465410" lon="-8.6067450">
        <ele>9.9</ele>
        <time>2021-05-21T08:55:35Z</time>
      </trkpt>
      <trkpt lat="42.3465480" lon="-8.6067440">
        <ele>9.8</ele>
        <time>2021-05-21T08:55:36Z</time>
      </trkpt>
      <trkpt lat="42.3465550" lon="-8.6067420">
        <ele>9.8</ele>
        <time>2021-05-21T08:55:37Z</time>
      </trkpt>
      <trkpt lat="42.3465700" lon="-8.6067400">
        <ele>9.8</ele>
        <time>2021-05-21T08:55:38Z</time>
      </trkpt>
      <trkpt lat="42.3465760" lon="-8.6067340">
        <ele>9.8</ele>
        <time>2021-05-21T08:55:39Z</time>
      </trkpt>
      <trkpt lat="42.3465840" lon="-8.6067340">
        <ele>9.8</ele>
        <time>2021-05-21T08:55:40Z</time>
      </trkpt>
      <trkpt lat="42.3466070" lon="-8.6067260">
        <ele>9.8</ele>
        <time>2021-05-21T08:55:41Z</time>
      </trkpt>
      <trkpt lat="42.3466150" lon="-8.6067230">
        <ele>9.8</ele>
        <time>2021-05-21T08:55:42Z</time>
      </trkpt>
      <trkpt lat="42.3466220" lon="-8.6067190">
        <ele>9.8</ele>
        <time>2021-05-21T08:55:43Z</time>
      </trkpt>
      <trkpt lat="42.3466370" lon="-8.6067110">
        <ele>9.7</ele>
        <time>2021-05-21T08:55:44Z</time>
      </trkpt>
      <trkpt lat="42.3466440" lon="-8.6067060">
        <ele>9.7</ele>
        <time>2021-05-21T08:55:45Z</time>
      </trkpt>
      <trkpt lat="42.3466500" lon="-8.6067000">
        <ele>9.7</ele>
        <time>2021-05-21T08:55:46Z</time>
      </trkpt>
      <trkpt lat="42.3466560" lon="-8.6066950">
        <ele>9.7</ele>
        <time>2021-05-21T08:55:47Z</time>
      </trkpt>
      <trkpt lat="42.3466710" lon="-8.6066920">
        <ele>9.7</ele>
        <time>2021-05-21T08:55:48Z</time>
      </trkpt>
      <trkpt lat="42.3466750" lon="-8.6066910">
        <ele>9.7</ele>
        <time>2021-05-21T08:55:49Z</time>
      </trkpt>
      <trkpt lat="42.3466790" lon="-8.6066890">
        <ele>9.7</ele>
        <time>2021-05-21T08:55:50Z</time>
      </trkpt>
      <trkpt lat="42.3466840" lon="-8.6066870">
        <ele>9.7</ele>
        <time>2021-05-21T08:55:51Z</time>
      </trkpt>
      <trkpt lat="42.3466880" lon="-8.6066850">
        <ele>9.7</ele>
        <time>2021-05-21T08:55:52Z</time>
      </trkpt>
      <trkpt lat="42.3466920" lon="-8.6066840">
        <ele>9.7</ele>
        <time>2021-05-21T08:55:53Z</time>
      </trkpt>
      <trkpt lat="42.3466960" lon="-8.6066820">
        <ele>9.7</ele>
        <time>2021-05-21T08:55:54Z</time>
      </trkpt>
      <trkpt lat="42.3466930" lon="-8.6066980">
        <ele>9.7</ele>
        <time>2021-05-21T08:55:55Z</time>
      </trkpt>
      <trkpt lat="42.3466880" lon="-8.6067020">
        <ele>9.7</ele>
        <time>2021-05-21T08:55:56Z</time>
      </trkpt>
      <trkpt lat="42.3466830" lon="-8.6067060">
        <ele>9.7</ele>
        <time>2021-05-21T08:55:57Z</time>
      </trkpt>
      <trkpt lat="42.3466780" lon="-8.6067110">
        <ele>9.7</ele>
        <time>2021-05-21T08:55:58Z</time>
      </trkpt>
      <trkpt lat="42.3466730" lon="-8.6067150">
        <ele>9.7</ele>
        <time>2021-05-21T08:55:59Z</time>
      </trkpt>
      <trkpt lat="42.3466680" lon="-8.6067190">
        <ele>9.7</ele>
        <time>2021-05-21T08:56:00Z</time>
      </trkpt>
      <trkpt lat="42.3466620" lon="-8.6067230">
        <ele>9.7</ele>
        <time>2021-05-21T08:56:01Z</time>
      </trkpt>
      <trkpt lat="42.3466570" lon="-8.6067270">
        <ele>9.7</ele>
        <time>2021-05-21T08:56:02Z</time>
      </trkpt>
      <trkpt lat="42.3466520" lon="-8.6067310">
        <ele>9.7</ele>
        <time>2021-05-21T08:56:03Z</time>
      </trkpt>
      <trkpt lat="42.3466470" lon="-8.6067360">
        <ele>9.7</ele>
        <time>2021-05-21T08:56:04Z</time>
      </trkpt>
      <trkpt lat="42.3466420" lon="-8.6067400">
        <ele>9.7</ele>
        <time>2021-05-21T08:56:05Z</time>
      </trkpt>
      <trkpt lat="42.3466370" lon="-8.6067440">
        <ele>9.7</ele>
        <time>2021-05-21T08:56:06Z</time>
      </trkpt>
      <trkpt lat="42.3466320" lon="-8.6067480">
        <ele>9.7</ele>
        <time>2021-05-21T08:56:07Z</time>
      </trkpt>
      <trkpt lat="42.3466320" lon="-8.6067480">
        <ele>9.7</ele>
        <time>2021-05-21T08:56:08Z</time>
      </trkpt>
      <trkpt lat="42.3466200" lon="-8.6067190">
        <ele>9.7</ele>
        <time>2021-05-21T08:56:09Z</time>
      </trkpt>
      <trkpt lat="42.3466310" lon="-8.6067050">
        <ele>9.7</ele>
        <time>2021-05-21T08:56:10Z</time>
      </trkpt>
      <trkpt lat="42.3466350" lon="-8.6067100">
        <ele>9.7</ele>
        <time>2021-05-21T08:56:11Z</time>
      </trkpt>
      <trkpt lat="42.3466150" lon="-8.6067430">
        <ele>9.7</ele>
        <time>2021-05-21T08:56:12Z</time>
      </trkpt>
      <trkpt lat="42.3466080" lon="-8.6068240">
        <ele>9.7</ele>
        <time>2021-05-21T08:56:13Z</time>
      </trkpt>
      <trkpt lat="42.3466390" lon="-8.6067870">
        <ele>9.7</ele>
        <time>2021-05-21T08:56:14Z</time>
      </trkpt>
      <trkpt lat="42.3466600" lon="-8.6067690">
        <ele>9.7</ele>
        <time>2021-05-21T08:56:15Z</time>
      </trkpt>
      <trkpt lat="42.3466600" lon="-8.6068140">
        <ele>9.7</ele>
        <time>2021-05-21T08:56:16Z</time>
      </trkpt>
      <trkpt lat="42.3466610" lon="-8.6068470">
        <ele>9.8</ele>
        <time>2021-05-21T08:56:17Z</time>
      </trkpt>
      <trkpt lat="42.3466680" lon="-8.6068890">
        <ele>9.8</ele>
        <time>2021-05-21T08:56:18Z</time>
      </trkpt>
      <trkpt lat="42.3466680" lon="-8.6069050">
        <ele>9.8</ele>
        <time>2021-05-21T08:56:19Z</time>
      </trkpt>
      <trkpt lat="42.3466740" lon="-8.6069310">
        <ele>9.8</ele>
        <time>2021-05-21T08:56:20Z</time>
      </trkpt>
      <trkpt lat="42.3466860" lon="-8.6069470">
        <ele>9.8</ele>
        <time>2021-05-21T08:56:22Z</time>
      </trkpt>
      <trkpt lat="42.3467050" lon="-8.6069380">
        <ele>9.8</ele>
        <time>2021-05-21T08:56:23Z</time>
      </trkpt>
      <trkpt lat="42.3467120" lon="-8.6069410">
        <ele>9.8</ele>
        <time>2021-05-21T08:56:24Z</time>
      </trkpt>
      <trkpt lat="42.3467190" lon="-8.6069440">
        <ele>9.8</ele>
        <time>2021-05-21T08:56:25Z</time>
      </trkpt>
      <trkpt lat="42.3467260" lon="-8.6069470">
        <ele>9.8</ele>
        <time>2021-05-21T08:56:26Z</time>
      </trkpt>
      <trkpt lat="42.3467320" lon="-8.6069580">
        <ele>9.8</ele>
        <time>2021-05-21T08:56:27Z</time>
      </trkpt>
      <trkpt lat="42.3467380" lon="-8.6069620">
        <ele>9.8</ele>
        <time>2021-05-21T08:56:28Z</time>
      </trkpt>
      <trkpt lat="42.3467470" lon="-8.6069630">
        <ele>9.8</ele>
        <time>2021-05-21T08:56:29Z</time>
      </trkpt>
      <trkpt lat="42.3467520" lon="-8.6069740">
        <ele>9.8</ele>
        <time>2021-05-21T08:56:30Z</time>
      </trkpt>
      <trkpt lat="42.3467510" lon="-8.6069810">
        <ele>9.8</ele>
        <time>2021-05-21T08:56:31Z</time>
      </trkpt>
      <trkpt lat="42.3467490" lon="-8.6069770">
        <ele>9.8</ele>
        <time>2021-05-21T08:56:32Z</time>
      </trkpt>
      <trkpt lat="42.3467500" lon="-8.6069780">
        <ele>9.8</ele>
        <time>2021-05-21T08:56:33Z</time>
      </trkpt>
      <trkpt lat="42.3467540" lon="-8.6069720">
        <ele>9.8</ele>
        <time>2021-05-21T08:56:34Z</time>
      </trkpt>
      <trkpt lat="42.3467480" lon="-8.6069700">
        <ele>9.8</ele>
        <time>2021-05-21T08:56:35Z</time>
      </trkpt>
      <trkpt lat="42.3467460" lon="-8.6069640">
        <ele>9.8</ele>
        <time>2021-05-21T08:56:36Z</time>
      </trkpt>
      <trkpt lat="42.3467460" lon="-8.6069480">
        <ele>9.8</ele>
        <time>2021-05-21T08:56:37Z</time>
      </trkpt>
      <trkpt lat="42.3467440" lon="-8.6069460">
        <ele>9.8</ele>
        <time>2021-05-21T08:56:38Z</time>
      </trkpt>
      <trkpt lat="42.3467390" lon="-8.6069410">
        <ele>9.8</ele>
        <time>2021-05-21T08:56:39Z</time>
      </trkpt>
      <trkpt lat="42.3467400" lon="-8.6069360">
        <ele>9.8</ele>
        <time>2021-05-21T08:56:40Z</time>
      </trkpt>
      <trkpt lat="42.3467410" lon="-8.6069350">
        <ele>9.8</ele>
        <time>2021-05-21T08:56:41Z</time>
      </trkpt>
      <trkpt lat="42.3467400" lon="-8.6069360">
        <ele>9.8</ele>
        <time>2021-05-21T08:56:42Z</time>
      </trkpt>
      <trkpt lat="42.3467420" lon="-8.6069440">
        <ele>9.8</ele>
        <time>2021-05-21T08:56:43Z</time>
      </trkpt>
      <trkpt lat="42.3467480" lon="-8.6069530">
        <ele>9.8</ele>
        <time>2021-05-21T08:56:44Z</time>
      </trkpt>
      <trkpt lat="42.3467530" lon="-8.6069590">
        <ele>9.8</ele>
        <time>2021-05-21T08:56:45Z</time>
      </trkpt>
      <trkpt lat="42.3467610" lon="-8.6069730">
        <ele>9.8</ele>
        <time>2021-05-21T08:56:46Z</time>
      </trkpt>
      <trkpt lat="42.3467570" lon="-8.6069800">
        <ele>9.8</ele>
        <time>2021-05-21T08:56:47Z</time>
      </trkpt>
      <trkpt lat="42.3467580" lon="-8.6069750">
        <ele>9.8</ele>
        <time>2021-05-21T08:56:48Z</time>
      </trkpt>
      <trkpt lat="42.3467600" lon="-8.6069730">
        <ele>9.8</ele>
        <time>2021-05-21T08:56:49Z</time>
      </trkpt>
      <trkpt lat="42.3467610" lon="-8.6069680">
        <ele>9.8</ele>
        <time>2021-05-21T08:56:50Z</time>
      </trkpt>
      <trkpt lat="42.3467620" lon="-8.6069660">
        <ele>9.8</ele>
        <time>2021-05-21T08:56:51Z</time>
      </trkpt>
      <trkpt lat="42.3467620" lon="-8.6069630">
        <ele>9.8</ele>
        <time>2021-05-21T08:56:52Z</time>
      </trkpt>
      <trkpt lat="42.3467660" lon="-8.6069610">
        <ele>9.8</ele>
        <time>2021-05-21T08:56:53Z</time>
      </trkpt>
      <trkpt lat="42.3467690" lon="-8.6069590">
        <ele>9.8</ele>
        <time>2021-05-21T08:56:54Z</time>
      </trkpt>
      <trkpt lat="42.3467690" lon="-8.6069580">
        <ele>9.8</ele>
        <time>2021-05-21T08:56:55Z</time>
      </trkpt>
      <trkpt lat="42.3467670" lon="-8.6069570">
        <ele>9.8</ele>
        <time>2021-05-21T08:56:56Z</time>
      </trkpt>
      <trkpt lat="42.3467680" lon="-8.6069570">
        <ele>9.8</ele>
        <time>2021-05-21T08:56:57Z</time>
      </trkpt>
      <trkpt lat="42.3467680" lon="-8.6069590">
        <ele>9.8</ele>
        <time>2021-05-21T08:56:58Z</time>
      </trkpt>
      <trkpt lat="42.3467670" lon="-8.6069600">
        <ele>9.8</ele>
        <time>2021-05-21T08:56:59Z</time>
      </trkpt>
      <trkpt lat="42.3467610" lon="-8.6069640">
        <ele>9.8</ele>
        <time>2021-05-21T08:57:00Z</time>
      </trkpt>
      <trkpt lat="42.3467550" lon="-8.6069660">
        <ele>9.8</ele>
        <time>2021-05-21T08:57:01Z</time>
      </trkpt>
      <trkpt lat="42.3467490" lon="-8.6069710">
        <ele>9.8</ele>
        <time>2021-05-21T08:57:02Z</time>
      </trkpt>
      <trkpt lat="42.3467450" lon="-8.6069740">
        <ele>9.8</ele>
        <time>2021-05-21T08:57:03Z</time>
      </trkpt>
      <trkpt lat="42.3467390" lon="-8.6069780">
        <ele>9.8</ele>
        <time>2021-05-21T08:57:04Z</time>
      </trkpt>
      <trkpt lat="42.3467330" lon="-8.6069790">
        <ele>9.8</ele>
        <time>2021-05-21T08:57:05Z</time>
      </trkpt>
      <trkpt lat="42.3467310" lon="-8.6069820">
        <ele>9.8</ele>
        <time>2021-05-21T08:57:06Z</time>
      </trkpt>
      <trkpt lat="42.3467340" lon="-8.6069780">
        <ele>9.8</ele>
        <time>2021-05-21T08:57:07Z</time>
      </trkpt>
      <trkpt lat="42.3467380" lon="-8.6069750">
        <ele>9.8</ele>
        <time>2021-05-21T08:57:08Z</time>
      </trkpt>
      <trkpt lat="42.3467440" lon="-8.6069710">
        <ele>9.8</ele>
        <time>2021-05-21T08:57:09Z</time>
      </trkpt>
      <trkpt lat="42.3467520" lon="-8.6069720">
        <ele>9.8</ele>
        <time>2021-05-21T08:57:10Z</time>
      </trkpt>
      <trkpt lat="42.3467580" lon="-8.6069680">
        <ele>9.8</ele>
        <time>2021-05-21T08:57:11Z</time>
      </trkpt>
      <trkpt lat="42.3467620" lon="-8.6069690">
        <ele>9.8</ele>
        <time>2021-05-21T08:57:12Z</time>
      </trkpt>
      <trkpt lat="42.3467730" lon="-8.6069710">
        <ele>9.8</ele>
        <time>2021-05-21T08:57:13Z</time>
      </trkpt>
      <trkpt lat="42.3467810" lon="-8.6069750">
        <ele>9.8</ele>
        <time>2021-05-21T08:57:14Z</time>
      </trkpt>
      <trkpt lat="42.3467800" lon="-8.6069760">
        <ele>9.8</ele>
        <time>2021-05-21T08:57:15Z</time>
      </trkpt>
      <trkpt lat="42.3467790" lon="-8.6069760">
        <ele>9.8</ele>
        <time>2021-05-21T08:57:16Z</time>
      </trkpt>
      <trkpt lat="42.3467800" lon="-8.6069770">
        <ele>9.8</ele>
        <time>2021-05-21T08:57:17Z</time>
      </trkpt>
      <trkpt lat="42.3467790" lon="-8.6069800">
        <ele>9.8</ele>
        <time>2021-05-21T08:57:18Z</time>
      </trkpt>
      <trkpt lat="42.3467820" lon="-8.6069830">
        <ele>9.9</ele>
        <time>2021-05-21T08:57:19Z</time>
      </trkpt>
      <trkpt lat="42.3467840" lon="-8.6069820">
        <ele>9.9</ele>
        <time>2021-05-21T08:57:20Z</time>
      </trkpt>
      <trkpt lat="42.3467870" lon="-8.6069800">
        <ele>9.9</ele>
        <time>2021-05-21T08:57:21Z</time>
      </trkpt>
      <trkpt lat="42.3467880" lon="-8.6069780">
        <ele>9.9</ele>
        <time>2021-05-21T08:57:22Z</time>
      </trkpt>
      <trkpt lat="42.3467940" lon="-8.6069800">
        <ele>9.9</ele>
        <time>2021-05-21T08:57:23Z</time>
      </trkpt>
      <trkpt lat="42.3467980" lon="-8.6069790">
        <ele>9.9</ele>
        <time>2021-05-21T08:57:24Z</time>
      </trkpt>
      <trkpt lat="42.3468010" lon="-8.6069780">
        <ele>9.9</ele>
        <time>2021-05-21T08:57:25Z</time>
      </trkpt>
      <trkpt lat="42.3468040" lon="-8.6069760">
        <ele>9.9</ele>
        <time>2021-05-21T08:57:26Z</time>
      </trkpt>
      <trkpt lat="42.3468080" lon="-8.6069700">
        <ele>9.9</ele>
        <time>2021-05-21T08:57:27Z</time>
      </trkpt>
      <trkpt lat="42.3468090" lon="-8.6069640">
        <ele>9.9</ele>
        <time>2021-05-21T08:57:28Z</time>
      </trkpt>
      <trkpt lat="42.3468080" lon="-8.6069610">
        <ele>9.9</ele>
        <time>2021-05-21T08:57:29Z</time>
      </trkpt>
      <trkpt lat="42.3468090" lon="-8.6069600">
        <ele>9.9</ele>
        <time>2021-05-21T08:57:30Z</time>
      </trkpt>
      <trkpt lat="42.3468090" lon="-8.6069570">
        <ele>9.9</ele>
        <time>2021-05-21T08:57:31Z</time>
      </trkpt>
      <trkpt lat="42.3468070" lon="-8.6069520">
        <ele>9.9</ele>
        <time>2021-05-21T08:57:32Z</time>
      </trkpt>
      <trkpt lat="42.3468110" lon="-8.6069410">
        <ele>9.9</ele>
        <time>2021-05-21T08:57:33Z</time>
      </trkpt>
      <trkpt lat="42.3468240" lon="-8.6069400">
        <ele>9.9</ele>
        <time>2021-05-21T08:57:34Z</time>
      </trkpt>
      <trkpt lat="42.3468240" lon="-8.6069440">
        <ele>9.9</ele>
        <time>2021-05-21T08:57:35Z</time>
      </trkpt>
      <trkpt lat="42.3468190" lon="-8.6069460">
        <ele>9.9</ele>
        <time>2021-05-21T08:57:36Z</time>
      </trkpt>
      <trkpt lat="42.3468070" lon="-8.6069500">
        <ele>9.9</ele>
        <time>2021-05-21T08:57:37Z</time>
      </trkpt>
      <trkpt lat="42.3468040" lon="-8.6069540">
        <ele>9.9</ele>
        <time>2021-05-21T08:57:38Z</time>
      </trkpt>
      <trkpt lat="42.3468030" lon="-8.6069580">
        <ele>9.9</ele>
        <time>2021-05-21T08:57:39Z</time>
      </trkpt>
      <trkpt lat="42.3467970" lon="-8.6069630">
        <ele>9.9</ele>
        <time>2021-05-21T08:57:40Z</time>
      </trkpt>
      <trkpt lat="42.3467910" lon="-8.6069530">
        <ele>9.9</ele>
        <time>2021-05-21T08:57:41Z</time>
      </trkpt>
      <trkpt lat="42.3467980" lon="-8.6069680">
        <ele>10.0</ele>
        <time>2021-05-21T08:57:42Z</time>
      </trkpt>
      <trkpt lat="42.3467900" lon="-8.6069630">
        <ele>10.0</ele>
        <time>2021-05-21T08:57:43Z</time>
      </trkpt>
      <trkpt lat="42.3467900" lon="-8.6069650">
        <ele>10.0</ele>
        <time>2021-05-21T08:57:44Z</time>
      </trkpt>
      <trkpt lat="42.3467930" lon="-8.6069710">
        <ele>10.0</ele>
        <time>2021-05-21T08:57:45Z</time>
      </trkpt>
      <trkpt lat="42.3467990" lon="-8.6069870">
        <ele>10.0</ele>
        <time>2021-05-21T08:57:46Z</time>
      </trkpt>
      <trkpt lat="42.3468020" lon="-8.6069920">
        <ele>10.0</ele>
        <time>2021-05-21T08:57:47Z</time>
      </trkpt>
      <trkpt lat="42.3468130" lon="-8.6069930">
        <ele>10.0</ele>
        <time>2021-05-21T08:57:48Z</time>
      </trkpt>
      <trkpt lat="42.3468110" lon="-8.6069970">
        <ele>10.0</ele>
        <time>2021-05-21T08:57:49Z</time>
      </trkpt>
      <trkpt lat="42.3468100" lon="-8.6070010">
        <ele>10.0</ele>
        <time>2021-05-21T08:57:50Z</time>
      </trkpt>
      <trkpt lat="42.3468100" lon="-8.6070000">
        <ele>10.0</ele>
        <time>2021-05-21T08:57:51Z</time>
      </trkpt>
      <trkpt lat="42.3468100" lon="-8.6069960">
        <ele>10.0</ele>
        <time>2021-05-21T08:57:52Z</time>
      </trkpt>
      <trkpt lat="42.3468110" lon="-8.6069980">
        <ele>10.0</ele>
        <time>2021-05-21T08:57:53Z</time>
      </trkpt>
      <trkpt lat="42.3468080" lon="-8.6069960">
        <ele>10.0</ele>
        <time>2021-05-21T08:57:54Z</time>
      </trkpt>
      <trkpt lat="42.3468010" lon="-8.6069860">
        <ele>10.1</ele>
        <time>2021-05-21T08:57:55Z</time>
      </trkpt>
      <trkpt lat="42.3467940" lon="-8.6069790">
        <ele>10.1</ele>
        <time>2021-05-21T08:57:56Z</time>
      </trkpt>
      <trkpt lat="42.3467920" lon="-8.6069890">
        <ele>10.1</ele>
        <time>2021-05-21T08:57:57Z</time>
      </trkpt>
      <trkpt lat="42.3467830" lon="-8.6069950">
        <ele>10.1</ele>
        <time>2021-05-21T08:57:58Z</time>
      </trkpt>
      <trkpt lat="42.3467890" lon="-8.6070020">
        <ele>10.1</ele>
        <time>2021-05-21T08:57:59Z</time>
      </trkpt>
      <trkpt lat="42.3467920" lon="-8.6070040">
        <ele>10.1</ele>
        <time>2021-05-21T08:58:00Z</time>
      </trkpt>
      <trkpt lat="42.3467940" lon="-8.6070050">
        <ele>10.1</ele>
        <time>2021-05-21T08:58:01Z</time>
      </trkpt>
      <trkpt lat="42.3467970" lon="-8.6070070">
        <ele>10.1</ele>
        <time>2021-05-21T08:58:02Z</time>
      </trkpt>
      <trkpt lat="42.3467990" lon="-8.6070090">
        <ele>10.1</ele>
        <time>2021-05-21T08:58:03Z</time>
      </trkpt>
      <trkpt lat="42.3468020" lon="-8.6070110">
        <ele>10.1</ele>
        <time>2021-05-21T08:58:04Z</time>
      </trkpt>
      <trkpt lat="42.3468040" lon="-8.6070130">
        <ele>10.1</ele>
        <time>2021-05-21T08:58:05Z</time>
      </trkpt>
      <trkpt lat="42.3468060" lon="-8.6070150">
        <ele>10.1</ele>
        <time>2021-05-21T08:58:06Z</time>
      </trkpt>
      <trkpt lat="42.3468090" lon="-8.6070160">
        <ele>10.1</ele>
        <time>2021-05-21T08:58:07Z</time>
      </trkpt>
      <trkpt lat="42.3468110" lon="-8.6070180">
        <ele>10.1</ele>
        <time>2021-05-21T08:58:08Z</time>
      </trkpt>
      <trkpt lat="42.3468140" lon="-8.6070200">
        <ele>10.1</ele>
        <time>2021-05-21T08:58:09Z</time>
      </trkpt>
      <trkpt lat="42.3468160" lon="-8.6070220">
        <ele>10.2</ele>
        <time>2021-05-21T08:58:10Z</time>
      </trkpt>
      <trkpt lat="42.3468200" lon="-8.6070420">
        <ele>10.2</ele>
        <time>2021-05-21T08:58:11Z</time>
      </trkpt>
      <trkpt lat="42.3468340" lon="-8.6070510">
        <ele>10.2</ele>
        <time>2021-05-21T08:58:12Z</time>
      </trkpt>
      <trkpt lat="42.3468510" lon="-8.6070810">
        <ele>10.3</ele>
        <time>2021-05-21T08:58:13Z</time>
      </trkpt>
      <trkpt lat="42.3468580" lon="-8.6070920">
        <ele>10.3</ele>
        <time>2021-05-21T08:58:14Z</time>
      </trkpt>
      <trkpt lat="42.3468720" lon="-8.6071090">
        <ele>10.3</ele>
        <time>2021-05-21T08:58:15Z</time>
      </trkpt>
      <trkpt lat="42.3468780" lon="-8.6071140">
        <ele>10.3</ele>
        <time>2021-05-21T08:58:16Z</time>
      </trkpt>
      <trkpt lat="42.3468840" lon="-8.6071190">
        <ele>10.3</ele>
        <time>2021-05-21T08:58:17Z</time>
      </trkpt>
      <trkpt lat="42.3468900" lon="-8.6071240">
        <ele>10.4</ele>
        <time>2021-05-21T08:58:18Z</time>
      </trkpt>
      <trkpt lat="42.3469070" lon="-8.6071460">
        <ele>10.4</ele>
        <time>2021-05-21T08:58:19Z</time>
      </trkpt>
      <trkpt lat="42.3469170" lon="-8.6071580">
        <ele>10.4</ele>
        <time>2021-05-21T08:58:20Z</time>
      </trkpt>
      <trkpt lat="42.3469260" lon="-8.6071600">
        <ele>10.5</ele>
        <time>2021-05-21T08:58:21Z</time>
      </trkpt>
      <trkpt lat="42.3469440" lon="-8.6071820">
        <ele>10.8</ele>
        <time>2021-05-21T08:58:22Z</time>
      </trkpt>
      <trkpt lat="42.3469620" lon="-8.6072070">
        <ele>10.9</ele>
        <time>2021-05-21T08:58:23Z</time>
      </trkpt>
      <trkpt lat="42.3469700" lon="-8.6072200">
        <ele>11.0</ele>
        <time>2021-05-21T08:58:24Z</time>
      </trkpt>
      <trkpt lat="42.3469790" lon="-8.6072280">
        <ele>11.1</ele>
        <time>2021-05-21T08:58:25Z</time>
      </trkpt>
      <trkpt lat="42.3469830" lon="-8.6072320">
        <ele>11.1</ele>
        <time>2021-05-21T08:58:26Z</time>
      </trkpt>
      <trkpt lat="42.3469800" lon="-8.6072440">
        <ele>11.1</ele>
        <time>2021-05-21T08:58:27Z</time>
      </trkpt>
      <trkpt lat="42.3469820" lon="-8.6072460">
        <ele>11.2</ele>
        <time>2021-05-21T08:58:28Z</time>
      </trkpt>
      <trkpt lat="42.3469770" lon="-8.6072600">
        <ele>11.2</ele>
        <time>2021-05-21T08:58:29Z</time>
      </trkpt>
      <trkpt lat="42.3469780" lon="-8.6072880">
        <ele>11.4</ele>
        <time>2021-05-21T08:58:30Z</time>
      </trkpt>
      <trkpt lat="42.3469820" lon="-8.6073030">
        <ele>11.4</ele>
        <time>2021-05-21T08:58:31Z</time>
      </trkpt>
      <trkpt lat="42.3469860" lon="-8.6073180">
        <ele>11.5</ele>
        <time>2021-05-21T08:58:32Z</time>
      </trkpt>
      <trkpt lat="42.3469810" lon="-8.6073290">
        <ele>11.6</ele>
        <time>2021-05-21T08:58:33Z</time>
      </trkpt>
      <trkpt lat="42.3469720" lon="-8.6073450">
        <ele>11.7</ele>
        <time>2021-05-21T08:58:34Z</time>
      </trkpt>
      <trkpt lat="42.3469740" lon="-8.6073560">
        <ele>11.7</ele>
        <time>2021-05-21T08:58:35Z</time>
      </trkpt>
      <trkpt lat="42.3469780" lon="-8.6073710">
        <ele>11.8</ele>
        <time>2021-05-21T08:58:36Z</time>
      </trkpt>
      <trkpt lat="42.3469690" lon="-8.6073810">
        <ele>11.9</ele>
        <time>2021-05-21T08:58:37Z</time>
      </trkpt>
      <trkpt lat="42.3469620" lon="-8.6073920">
        <ele>12.0</ele>
        <time>2021-05-21T08:58:38Z</time>
      </trkpt>
      <trkpt lat="42.3469550" lon="-8.6074040">
        <ele>12.1</ele>
        <time>2021-05-21T08:58:39Z</time>
      </trkpt>
      <trkpt lat="42.3469450" lon="-8.6074270">
        <ele>12.3</ele>
        <time>2021-05-21T08:58:40Z</time>
      </trkpt>
      <trkpt lat="42.3469300" lon="-8.6074490">
        <ele>12.5</ele>
        <time>2021-05-21T08:58:41Z</time>
      </trkpt>
      <trkpt lat="42.3469270" lon="-8.6074690">
        <ele>12.6</ele>
        <time>2021-05-21T08:58:42Z</time>
      </trkpt>
      <trkpt lat="42.3469340" lon="-8.6074960">
        <ele>12.9</ele>
        <time>2021-05-21T08:58:43Z</time>
      </trkpt>
      <trkpt lat="42.3469390" lon="-8.6075060">
        <ele>13.0</ele>
        <time>2021-05-21T08:58:44Z</time>
      </trkpt>
      <trkpt lat="42.3469430" lon="-8.6075160">
        <ele>13.1</ele>
        <time>2021-05-21T08:58:45Z</time>
      </trkpt>
      <trkpt lat="42.3469520" lon="-8.6075220">
        <ele>13.2</ele>
        <time>2021-05-21T08:58:46Z</time>
      </trkpt>
      <trkpt lat="42.3469520" lon="-8.6075350">
        <ele>13.3</ele>
        <time>2021-05-21T08:58:47Z</time>
      </trkpt>
      <trkpt lat="42.3469490" lon="-8.6075400">
        <ele>13.4</ele>
        <time>2021-05-21T08:58:48Z</time>
      </trkpt>
      <trkpt lat="42.3469480" lon="-8.6075430">
        <ele>13.4</ele>
        <time>2021-05-21T08:58:49Z</time>
      </trkpt>
      <trkpt lat="42.3469490" lon="-8.6075460">
        <ele>13.4</ele>
        <time>2021-05-21T08:58:50Z</time>
      </trkpt>
      <trkpt lat="42.3469540" lon="-8.6075540">
        <ele>13.5</ele>
        <time>2021-05-21T08:58:51Z</time>
      </trkpt>
      <trkpt lat="42.3469600" lon="-8.6075610">
        <ele>13.6</ele>
        <time>2021-05-21T08:58:52Z</time>
      </trkpt>
      <trkpt lat="42.3469570" lon="-8.6075670">
        <ele>13.7</ele>
        <time>2021-05-21T08:58:53Z</time>
      </trkpt>
      <trkpt lat="42.3469520" lon="-8.6075650">
        <ele>13.8</ele>
        <time>2021-05-21T08:58:54Z</time>
      </trkpt>
      <trkpt lat="42.3469520" lon="-8.6075660">
        <ele>13.8</ele>
        <time>2021-05-21T08:58:55Z</time>
      </trkpt>
      <trkpt lat="42.3469520" lon="-8.6075680">
        <ele>13.8</ele>
        <time>2021-05-21T08:58:56Z</time>
      </trkpt>
      <trkpt lat="42.3469520" lon="-8.6075700">
        <ele>13.8</ele>
        <time>2021-05-21T08:58:57Z</time>
      </trkpt>
      <trkpt lat="42.3469530" lon="-8.6075670">
        <ele>13.8</ele>
        <time>2021-05-21T08:58:58Z</time>
      </trkpt>
      <trkpt lat="42.3469580" lon="-8.6075610">
        <ele>13.9</ele>
        <time>2021-05-21T08:58:59Z</time>
      </trkpt>
      <trkpt lat="42.3469660" lon="-8.6075610">
        <ele>14.0</ele>
        <time>2021-05-21T08:59:00Z</time>
      </trkpt>
      <trkpt lat="42.3469790" lon="-8.6075550">
        <ele>14.2</ele>
        <time>2021-05-21T08:59:01Z</time>
      </trkpt>
      <trkpt lat="42.3469790" lon="-8.6075470">
        <ele>14.3</ele>
        <time>2021-05-21T08:59:02Z</time>
      </trkpt>
      <trkpt lat="42.3469820" lon="-8.6075350">
        <ele>14.4</ele>
        <time>2021-05-21T08:59:03Z</time>
      </trkpt>
      <trkpt lat="42.3469880" lon="-8.6075270">
        <ele>14.5</ele>
        <time>2021-05-21T08:59:04Z</time>
      </trkpt>
      <trkpt lat="42.3470000" lon="-8.6074970">
        <ele>14.8</ele>
        <time>2021-05-21T08:59:05Z</time>
      </trkpt>
      <trkpt lat="42.3470140" lon="-8.6074730">
        <ele>15.1</ele>
        <time>2021-05-21T08:59:06Z</time>
      </trkpt>
      <trkpt lat="42.3470140" lon="-8.6074610">
        <ele>15.2</ele>
        <time>2021-05-21T08:59:07Z</time>
      </trkpt>
      <trkpt lat="42.3470170" lon="-8.6074470">
        <ele>15.3</ele>
        <time>2021-05-21T08:59:08Z</time>
      </trkpt>
      <trkpt lat="42.3470330" lon="-8.6074450">
        <ele>15.5</ele>
        <time>2021-05-21T08:59:09Z</time>
      </trkpt>
      <trkpt lat="42.3470380" lon="-8.6074420">
        <ele>15.6</ele>
        <time>2021-05-21T08:59:10Z</time>
      </trkpt>
      <trkpt lat="42.3470430" lon="-8.6074250">
        <ele>15.7</ele>
        <time>2021-05-21T08:59:11Z</time>
      </trkpt>
      <trkpt lat="42.3470580" lon="-8.6074230">
        <ele>15.9</ele>
        <time>2021-05-21T08:59:12Z</time>
      </trkpt>
      <trkpt lat="42.3470630" lon="-8.6074220">
        <ele>16.0</ele>
        <time>2021-05-21T08:59:13Z</time>
      </trkpt>
      <trkpt lat="42.3470620" lon="-8.6074140">
        <ele>16.0</ele>
        <time>2021-05-21T08:59:14Z</time>
      </trkpt>
      <trkpt lat="42.3470820" lon="-8.6074330">
        <ele>16.3</ele>
        <time>2021-05-21T08:59:15Z</time>
      </trkpt>
      <trkpt lat="42.3470840" lon="-8.6074250">
        <ele>16.4</ele>
        <time>2021-05-21T08:59:16Z</time>
      </trkpt>
      <trkpt lat="42.3470760" lon="-8.6074140">
        <ele>16.5</ele>
        <time>2021-05-21T08:59:17Z</time>
      </trkpt>
      <trkpt lat="42.3470830" lon="-8.6073980">
        <ele>16.7</ele>
        <time>2021-05-21T08:59:18Z</time>
      </trkpt>
      <trkpt lat="42.3470960" lon="-8.6074210">
        <ele>16.9</ele>
        <time>2021-05-21T08:59:19Z</time>
      </trkpt>
      <trkpt lat="42.3470930" lon="-8.6074240">
        <ele>17.0</ele>
        <time>2021-05-21T08:59:20Z</time>
      </trkpt>
      <trkpt lat="42.3471040" lon="-8.6074310">
        <ele>17.1</ele>
        <time>2021-05-21T08:59:21Z</time>
      </trkpt>
      <trkpt lat="42.3471130" lon="-8.6074340">
        <ele>17.2</ele>
        <time>2021-05-21T08:59:22Z</time>
      </trkpt>
      <trkpt lat="42.3471200" lon="-8.6074430">
        <ele>17.3</ele>
        <time>2021-05-21T08:59:23Z</time>
      </trkpt>
      <trkpt lat="42.3471260" lon="-8.6074440">
        <ele>17.4</ele>
        <time>2021-05-21T08:59:24Z</time>
      </trkpt>
      <trkpt lat="42.3471380" lon="-8.6074460">
        <ele>17.5</ele>
        <time>2021-05-21T08:59:25Z</time>
      </trkpt>
      <trkpt lat="42.3471480" lon="-8.6074370">
        <ele>17.7</ele>
        <time>2021-05-21T08:59:26Z</time>
      </trkpt>
      <trkpt lat="42.3471640" lon="-8.6074280">
        <ele>17.9</ele>
        <time>2021-05-21T08:59:27Z</time>
      </trkpt>
      <trkpt lat="42.3471770" lon="-8.6074190">
        <ele>18.0</ele>
        <time>2021-05-21T08:59:28Z</time>
      </trkpt>
      <trkpt lat="42.3471890" lon="-8.6074170">
        <ele>18.2</ele>
        <time>2021-05-21T08:59:29Z</time>
      </trkpt>
      <trkpt lat="42.3471990" lon="-8.6074240">
        <ele>18.3</ele>
        <time>2021-05-21T08:59:30Z</time>
      </trkpt>
      <trkpt lat="42.3472060" lon="-8.6074190">
        <ele>18.4</ele>
        <time>2021-05-21T08:59:31Z</time>
      </trkpt>
      <trkpt lat="42.3472210" lon="-8.6074150">
        <ele>18.6</ele>
        <time>2021-05-21T08:59:32Z</time>
      </trkpt>
      <trkpt lat="42.3472390" lon="-8.6074160">
        <ele>18.8</ele>
        <time>2021-05-21T08:59:33Z</time>
      </trkpt>
      <trkpt lat="42.3472520" lon="-8.6074190">
        <ele>18.9</ele>
        <time>2021-05-21T08:59:34Z</time>
      </trkpt>
      <trkpt lat="42.3472710" lon="-8.6074290">
        <ele>19.2</ele>
        <time>2021-05-21T08:59:35Z</time>
      </trkpt>
      <trkpt lat="42.3472860" lon="-8.6074280">
        <ele>19.4</ele>
        <time>2021-05-21T08:59:36Z</time>
      </trkpt>
      <trkpt lat="42.3472880" lon="-8.6074330">
        <ele>19.4</ele>
        <time>2021-05-21T08:59:37Z</time>
      </trkpt>
      <trkpt lat="42.3473020" lon="-8.6074390">
        <ele>19.6</ele>
        <time>2021-05-21T08:59:38Z</time>
      </trkpt>
      <trkpt lat="42.3473020" lon="-8.6074480">
        <ele>20.6</ele>
        <time>2021-05-21T08:59:39Z</time>
      </trkpt>
      <trkpt lat="42.3473060" lon="-8.6074560">
        <ele>20.7</ele>
        <time>2021-05-21T08:59:40Z</time>
      </trkpt>
      <trkpt lat="42.3473110" lon="-8.6074630">
        <ele>20.8</ele>
        <time>2021-05-21T08:59:41Z</time>
      </trkpt>
      <trkpt lat="42.3473150" lon="-8.6074710">
        <ele>20.9</ele>
        <time>2021-05-21T08:59:42Z</time>
      </trkpt>
      <trkpt lat="42.3473190" lon="-8.6074780">
        <ele>21.0</ele>
        <time>2021-05-21T08:59:43Z</time>
      </trkpt>
      <trkpt lat="42.3473230" lon="-8.6074860">
        <ele>21.1</ele>
        <time>2021-05-21T08:59:44Z</time>
      </trkpt>
      <trkpt lat="42.3473300" lon="-8.6075010">
        <ele>21.3</ele>
        <time>2021-05-21T08:59:45Z</time>
      </trkpt>
      <trkpt lat="42.3473240" lon="-8.6075170">
        <ele>21.5</ele>
        <time>2021-05-21T08:59:46Z</time>
      </trkpt>
      <trkpt lat="42.3473300" lon="-8.6075300">
        <ele>21.7</ele>
        <time>2021-05-21T08:59:47Z</time>
      </trkpt>
      <trkpt lat="42.3473260" lon="-8.6075390">
        <ele>21.8</ele>
        <time>2021-05-21T08:59:48Z</time>
      </trkpt>
      <trkpt lat="42.3473250" lon="-8.6075550">
        <ele>22.0</ele>
        <time>2021-05-21T08:59:49Z</time>
      </trkpt>
      <trkpt lat="42.3473050" lon="-8.6075590">
        <ele>22.3</ele>
        <time>2021-05-21T08:59:50Z</time>
      </trkpt>
      <trkpt lat="42.3473070" lon="-8.6075740">
        <ele>22.4</ele>
        <time>2021-05-21T08:59:51Z</time>
      </trkpt>
      <trkpt lat="42.3473070" lon="-8.6075900">
        <ele>22.6</ele>
        <time>2021-05-21T08:59:52Z</time>
      </trkpt>
      <trkpt lat="42.3473010" lon="-8.6076020">
        <ele>22.8</ele>
        <time>2021-05-21T08:59:53Z</time>
      </trkpt>
      <trkpt lat="42.3472950" lon="-8.6076160">
        <ele>23.0</ele>
        <time>2021-05-21T08:59:54Z</time>
      </trkpt>
      <trkpt lat="42.3473040" lon="-8.6076440">
        <ele>23.3</ele>
        <time>2021-05-21T08:59:55Z</time>
      </trkpt>
      <trkpt lat="42.3473020" lon="-8.6076620">
        <ele>23.6</ele>
        <time>2021-05-21T08:59:56Z</time>
      </trkpt>
      <trkpt lat="42.3472990" lon="-8.6076660">
        <ele>23.6</ele>
        <time>2021-05-21T08:59:57Z</time>
      </trkpt>
      <trkpt lat="42.3473070" lon="-8.6076740">
        <ele>23.8</ele>
        <time>2021-05-21T08:59:58Z</time>
      </trkpt>
      <trkpt lat="42.3473090" lon="-8.6076760">
        <ele>23.8</ele>
        <time>2021-05-21T08:59:59Z</time>
      </trkpt>
      <trkpt lat="42.3473090" lon="-8.6076790">
        <ele>23.9</ele>
        <time>2021-05-21T09:00:00Z</time>
      </trkpt>
      <trkpt lat="42.3473130" lon="-8.6076810">
        <ele>23.9</ele>
        <time>2021-05-21T09:00:01Z</time>
      </trkpt>
      <trkpt lat="42.3473140" lon="-8.6076850">
        <ele>24.0</ele>
        <time>2021-05-21T09:00:02Z</time>
      </trkpt>
      <trkpt lat="42.3473150" lon="-8.6076890">
        <ele>24.0</ele>
        <time>2021-05-21T09:00:03Z</time>
      </trkpt>
      <trkpt lat="42.3473140" lon="-8.6076910">
        <ele>24.1</ele>
        <time>2021-05-21T09:00:04Z</time>
      </trkpt>
      <trkpt lat="42.3473130" lon="-8.6076960">
        <ele>24.1</ele>
        <time>2021-05-21T09:00:05Z</time>
      </trkpt>
      <trkpt lat="42.3473050" lon="-8.6077040">
        <ele>24.8</ele>
        <time>2021-05-21T09:00:06Z</time>
      </trkpt>
      <trkpt lat="42.3473090" lon="-8.6077040">
        <ele>24.8</ele>
        <time>2021-05-21T09:00:07Z</time>
      </trkpt>
      <trkpt lat="42.3473160" lon="-8.6077150">
        <ele>25.0</ele>
        <time>2021-05-21T09:00:08Z</time>
      </trkpt>
      <trkpt lat="42.3473290" lon="-8.6077200">
        <ele>25.2</ele>
        <time>2021-05-21T09:00:09Z</time>
      </trkpt>
      <trkpt lat="42.3473410" lon="-8.6077200">
        <ele>25.4</ele>
        <time>2021-05-21T09:00:10Z</time>
      </trkpt>
      <trkpt lat="42.3473490" lon="-8.6077190">
        <ele>25.5</ele>
        <time>2021-05-21T09:00:11Z</time>
      </trkpt>
      <trkpt lat="42.3473510" lon="-8.6077220">
        <ele>25.5</ele>
        <time>2021-05-21T09:00:12Z</time>
      </trkpt>
      <trkpt lat="42.3473590" lon="-8.6077230">
        <ele>25.7</ele>
        <time>2021-05-21T09:00:13Z</time>
      </trkpt>
      <trkpt lat="42.3473810" lon="-8.6077250">
        <ele>25.9</ele>
        <time>2021-05-21T09:00:14Z</time>
      </trkpt>
      <trkpt lat="42.3473950" lon="-8.6077280">
        <ele>26.1</ele>
        <time>2021-05-21T09:00:15Z</time>
      </trkpt>
      <trkpt lat="42.3474110" lon="-8.6077500">
        <ele>26.4</ele>
        <time>2021-05-21T09:00:16Z</time>
      </trkpt>
      <trkpt lat="42.3474160" lon="-8.6077530">
        <ele>26.4</ele>
        <time>2021-05-21T09:00:17Z</time>
      </trkpt>
      <trkpt lat="42.3474200" lon="-8.6077570">
        <ele>26.5</ele>
        <time>2021-05-21T09:00:18Z</time>
      </trkpt>
      <trkpt lat="42.3474250" lon="-8.6077600">
        <ele>26.5</ele>
        <time>2021-05-21T09:00:19Z</time>
      </trkpt>
      <trkpt lat="42.3474300" lon="-8.6077640">
        <ele>26.6</ele>
        <time>2021-05-21T09:00:20Z</time>
      </trkpt>
      <trkpt lat="42.3474440" lon="-8.6077740">
        <ele>26.8</ele>
        <time>2021-05-21T09:00:22Z</time>
      </trkpt>
      <trkpt lat="42.3474540" lon="-8.6077770">
        <ele>26.9</ele>
        <time>2021-05-21T09:00:23Z</time>
      </trkpt>
      <trkpt lat="42.3474570" lon="-8.6077840">
        <ele>26.9</ele>
        <time>2021-05-21T09:00:24Z</time>
      </trkpt>
      <trkpt lat="42.3474570" lon="-8.6077940">
        <ele>27.0</ele>
        <time>2021-05-21T09:00:25Z</time>
      </trkpt>
      <trkpt lat="42.3474760" lon="-8.6078030">
        <ele>27.1</ele>
        <time>2021-05-21T09:00:26Z</time>
      </trkpt>
      <trkpt lat="42.3474880" lon="-8.6077830">
        <ele>27.3</ele>
        <time>2021-05-21T09:00:27Z</time>
      </trkpt>
      <trkpt lat="42.3475000" lon="-8.6077840">
        <ele>27.4</ele>
        <time>2021-05-21T09:00:28Z</time>
      </trkpt>
      <trkpt lat="42.3475090" lon="-8.6077860">
        <ele>27.4</ele>
        <time>2021-05-21T09:00:29Z</time>
      </trkpt>
      <trkpt lat="42.3475170" lon="-8.6077890">
        <ele>27.5</ele>
        <time>2021-05-21T09:00:30Z</time>
      </trkpt>
      <trkpt lat="42.3475250" lon="-8.6077910">
        <ele>27.5</ele>
        <time>2021-05-21T09:00:31Z</time>
      </trkpt>
      <trkpt lat="42.3475570" lon="-8.6078020">
        <ele>27.7</ele>
        <time>2021-05-21T09:00:32Z</time>
      </trkpt>
      <trkpt lat="42.3475640" lon="-8.6078060">
        <ele>27.7</ele>
        <time>2021-05-21T09:00:33Z</time>
      </trkpt>
      <trkpt lat="42.3475840" lon="-8.6078140">
        <ele>27.8</ele>
        <time>2021-05-21T09:00:34Z</time>
      </trkpt>
      <trkpt lat="42.3475890" lon="-8.6078210">
        <ele>27.8</ele>
        <time>2021-05-21T09:00:35Z</time>
      </trkpt>
      <trkpt lat="42.3475950" lon="-8.6078280">
        <ele>27.8</ele>
        <time>2021-05-21T09:00:36Z</time>
      </trkpt>
      <trkpt lat="42.3476000" lon="-8.6078350">
        <ele>27.8</ele>
        <time>2021-05-21T09:00:37Z</time>
      </trkpt>
      <trkpt lat="42.3476070" lon="-8.6078380">
        <ele>27.8</ele>
        <time>2021-05-21T09:00:38Z</time>
      </trkpt>
      <trkpt lat="42.3476020" lon="-8.6078390">
        <ele>27.8</ele>
        <time>2021-05-21T09:00:39Z</time>
      </trkpt>
      <trkpt lat="42.3476070" lon="-8.6078310">
        <ele>27.9</ele>
        <time>2021-05-21T09:00:40Z</time>
      </trkpt>
      <trkpt lat="42.3476190" lon="-8.6078270">
        <ele>27.9</ele>
        <time>2021-05-21T09:00:41Z</time>
      </trkpt>
      <trkpt lat="42.3476320" lon="-8.6078280">
        <ele>27.9</ele>
        <time>2021-05-21T09:00:42Z</time>
      </trkpt>
      <trkpt lat="42.3476500" lon="-8.6078450">
        <ele>27.9</ele>
        <time>2021-05-21T09:00:43Z</time>
      </trkpt>
      <trkpt lat="42.3476500" lon="-8.6078550">
        <ele>27.9</ele>
        <time>2021-05-21T09:00:44Z</time>
      </trkpt>
      <trkpt lat="42.3476510" lon="-8.6078660">
        <ele>27.9</ele>
        <time>2021-05-21T09:00:45Z</time>
      </trkpt>
      <trkpt lat="42.3476510" lon="-8.6078760">
        <ele>27.9</ele>
        <time>2021-05-21T09:00:46Z</time>
      </trkpt>
      <trkpt lat="42.3476520" lon="-8.6078910">
        <ele>27.9</ele>
        <time>2021-05-21T09:00:47Z</time>
      </trkpt>
      <trkpt lat="42.3476560" lon="-8.6079000">
        <ele>27.9</ele>
        <time>2021-05-21T09:00:48Z</time>
      </trkpt>
      <trkpt lat="42.3476760" lon="-8.6078980">
        <ele>27.9</ele>
        <time>2021-05-21T09:00:49Z</time>
      </trkpt>
      <trkpt lat="42.3476930" lon="-8.6079030">
        <ele>27.8</ele>
        <time>2021-05-21T09:00:50Z</time>
      </trkpt>
      <trkpt lat="42.3477040" lon="-8.6078910">
        <ele>27.7</ele>
        <time>2021-05-21T09:00:51Z</time>
      </trkpt>
      <trkpt lat="42.3477070" lon="-8.6078870">
        <ele>27.7</ele>
        <time>2021-05-21T09:00:52Z</time>
      </trkpt>
      <trkpt lat="42.3477050" lon="-8.6078870">
        <ele>27.7</ele>
        <time>2021-05-21T09:00:53Z</time>
      </trkpt>
      <trkpt lat="42.3477080" lon="-8.6078830">
        <ele>27.6</ele>
        <time>2021-05-21T09:00:54Z</time>
      </trkpt>
      <trkpt lat="42.3477200" lon="-8.6078840">
        <ele>27.6</ele>
        <time>2021-05-21T09:00:55Z</time>
      </trkpt>
      <trkpt lat="42.3477390" lon="-8.6078890">
        <ele>27.4</ele>
        <time>2021-05-21T09:00:56Z</time>
      </trkpt>
      <trkpt lat="42.3477560" lon="-8.6078820">
        <ele>27.3</ele>
        <time>2021-05-21T09:00:57Z</time>
      </trkpt>
      <trkpt lat="42.3477720" lon="-8.6078780">
        <ele>27.1</ele>
        <time>2021-05-21T09:00:58Z</time>
      </trkpt>
      <trkpt lat="42.3477840" lon="-8.6078790">
        <ele>27.0</ele>
        <time>2021-05-21T09:00:59Z</time>
      </trkpt>
      <trkpt lat="42.3477930" lon="-8.6078790">
        <ele>26.9</ele>
        <time>2021-05-21T09:01:00Z</time>
      </trkpt>
      <trkpt lat="42.3478020" lon="-8.6078780">
        <ele>26.9</ele>
        <time>2021-05-21T09:01:01Z</time>
      </trkpt>
      <trkpt lat="42.3478110" lon="-8.6078770">
        <ele>26.8</ele>
        <time>2021-05-21T09:01:02Z</time>
      </trkpt>
      <trkpt lat="42.3478250" lon="-8.6078760">
        <ele>26.6</ele>
        <time>2021-05-21T09:01:03Z</time>
      </trkpt>
      <trkpt lat="42.3478420" lon="-8.6078740">
        <ele>26.4</ele>
        <time>2021-05-21T09:01:04Z</time>
      </trkpt>
      <trkpt lat="42.3478580" lon="-8.6078760">
        <ele>26.3</ele>
        <time>2021-05-21T09:01:05Z</time>
      </trkpt>
      <trkpt lat="42.3478670" lon="-8.6078740">
        <ele>26.2</ele>
        <time>2021-05-21T09:01:06Z</time>
      </trkpt>
      <trkpt lat="42.3478710" lon="-8.6078750">
        <ele>26.1</ele>
        <time>2021-05-21T09:01:07Z</time>
      </trkpt>
      <trkpt lat="42.3478810" lon="-8.6078820">
        <ele>26.0</ele>
        <time>2021-05-21T09:01:08Z</time>
      </trkpt>
      <trkpt lat="42.3478970" lon="-8.6078810">
        <ele>25.8</ele>
        <time>2021-05-21T09:01:09Z</time>
      </trkpt>
      <trkpt lat="42.3479070" lon="-8.6078720">
        <ele>25.6</ele>
        <time>2021-05-21T09:01:10Z</time>
      </trkpt>
      <trkpt lat="42.3479170" lon="-8.6078690">
        <ele>25.5</ele>
        <time>2021-05-21T09:01:11Z</time>
      </trkpt>
      <trkpt lat="42.3479270" lon="-8.6078690">
        <ele>25.4</ele>
        <time>2021-05-21T09:01:12Z</time>
      </trkpt>
      <trkpt lat="42.3479400" lon="-8.6078670">
        <ele>25.2</ele>
        <time>2021-05-21T09:01:13Z</time>
      </trkpt>
      <trkpt lat="42.3479600" lon="-8.6078620">
        <ele>24.9</ele>
        <time>2021-05-21T09:01:14Z</time>
      </trkpt>
      <trkpt lat="42.3479670" lon="-8.6078550">
        <ele>24.8</ele>
        <time>2021-05-21T09:01:15Z</time>
      </trkpt>
      <trkpt lat="42.3479750" lon="-8.6078470">
        <ele>24.7</ele>
        <time>2021-05-21T09:01:16Z</time>
      </trkpt>
      <trkpt lat="42.3479940" lon="-8.6078430">
        <ele>24.4</ele>
        <time>2021-05-21T09:01:17Z</time>
      </trkpt>
      <trkpt lat="42.3480010" lon="-8.6078360">
        <ele>24.3</ele>
        <time>2021-05-21T09:01:18Z</time>
      </trkpt>
      <trkpt lat="42.3480090" lon="-8.6078280">
        <ele>24.2</ele>
        <time>2021-05-21T09:01:19Z</time>
      </trkpt>
      <trkpt lat="42.3480200" lon="-8.6078300">
        <ele>24.0</ele>
        <time>2021-05-21T09:01:20Z</time>
      </trkpt>
      <trkpt lat="42.3480300" lon="-8.6078250">
        <ele>23.9</ele>
        <time>2021-05-21T09:01:21Z</time>
      </trkpt>
      <trkpt lat="42.3480450" lon="-8.6078200">
        <ele>23.7</ele>
        <time>2021-05-21T09:01:22Z</time>
      </trkpt>
      <trkpt lat="42.3480610" lon="-8.6078190">
        <ele>23.4</ele>
        <time>2021-05-21T09:01:23Z</time>
      </trkpt>
      <trkpt lat="42.3480700" lon="-8.6078190">
        <ele>23.3</ele>
        <time>2021-05-21T09:01:24Z</time>
      </trkpt>
      <trkpt lat="42.3480780" lon="-8.6078180">
        <ele>23.2</ele>
        <time>2021-05-21T09:01:25Z</time>
      </trkpt>
      <trkpt lat="42.3480870" lon="-8.6078180">
        <ele>23.1</ele>
        <time>2021-05-21T09:01:26Z</time>
      </trkpt>
      <trkpt lat="42.3481050" lon="-8.6078120">
        <ele>22.8</ele>
        <time>2021-05-21T09:01:27Z</time>
      </trkpt>
      <trkpt lat="42.3481170" lon="-8.6078040">
        <ele>22.6</ele>
        <time>2021-05-21T09:01:28Z</time>
      </trkpt>
      <trkpt lat="42.3481390" lon="-8.6078060">
        <ele>22.3</ele>
        <time>2021-05-21T09:01:29Z</time>
      </trkpt>
      <trkpt lat="42.3481480" lon="-8.6078060">
        <ele>22.1</ele>
        <time>2021-05-21T09:01:30Z</time>
      </trkpt>
      <trkpt lat="42.3481570" lon="-8.6078070">
        <ele>22.0</ele>
        <time>2021-05-21T09:01:31Z</time>
      </trkpt>
      <trkpt lat="42.3481680" lon="-8.6078170">
        <ele>21.8</ele>
        <time>2021-05-21T09:01:32Z</time>
      </trkpt>
      <trkpt lat="42.3481800" lon="-8.6078170">
        <ele>21.7</ele>
        <time>2021-05-21T09:01:33Z</time>
      </trkpt>
      <trkpt lat="42.3481880" lon="-8.6078230">
        <ele>21.5</ele>
        <time>2021-05-21T09:01:34Z</time>
      </trkpt>
      <trkpt lat="42.3481930" lon="-8.6078210">
        <ele>21.5</ele>
        <time>2021-05-21T09:01:35Z</time>
      </trkpt>
      <trkpt lat="42.3482050" lon="-8.6078360">
        <ele>21.2</ele>
        <time>2021-05-21T09:01:36Z</time>
      </trkpt>
      <trkpt lat="42.3481990" lon="-8.6078370">
        <ele>21.1</ele>
        <time>2021-05-21T09:01:37Z</time>
      </trkpt>
      <trkpt lat="42.3482080" lon="-8.6078510">
        <ele>20.9</ele>
        <time>2021-05-21T09:01:38Z</time>
      </trkpt>
      <trkpt lat="42.3482240" lon="-8.6078600">
        <ele>20.4</ele>
        <time>2021-05-21T09:01:39Z</time>
      </trkpt>
      <trkpt lat="42.3482300" lon="-8.6078640">
        <ele>20.3</ele>
        <time>2021-05-21T09:01:40Z</time>
      </trkpt>
      <trkpt lat="42.3482390" lon="-8.6078700">
        <ele>20.2</ele>
        <time>2021-05-21T09:01:41Z</time>
      </trkpt>
      <trkpt lat="42.3482410" lon="-8.6078780">
        <ele>20.1</ele>
        <time>2021-05-21T09:01:42Z</time>
      </trkpt>
      <trkpt lat="42.3482440" lon="-8.6078850">
        <ele>20.1</ele>
        <time>2021-05-21T09:01:43Z</time>
      </trkpt>
      <trkpt lat="42.3482480" lon="-8.6078960">
        <ele>20.0</ele>
        <time>2021-05-21T09:01:44Z</time>
      </trkpt>
      <trkpt lat="42.3482520" lon="-8.6079110">
        <ele>19.8</ele>
        <time>2021-05-21T09:01:45Z</time>
      </trkpt>
      <trkpt lat="42.3482560" lon="-8.6079390">
        <ele>19.6</ele>
        <time>2021-05-21T09:01:46Z</time>
      </trkpt>
      <trkpt lat="42.3482590" lon="-8.6079500">
        <ele>19.5</ele>
        <time>2021-05-21T09:01:47Z</time>
      </trkpt>
      <trkpt lat="42.3482630" lon="-8.6079600">
        <ele>19.4</ele>
        <time>2021-05-21T09:01:48Z</time>
      </trkpt>
      <trkpt lat="42.3482570" lon="-8.6079630">
        <ele>19.4</ele>
        <time>2021-05-21T09:01:49Z</time>
      </trkpt>
      <trkpt lat="42.3482610" lon="-8.6079830">
        <ele>19.2</ele>
        <time>2021-05-21T09:01:50Z</time>
      </trkpt>
      <trkpt lat="42.3482570" lon="-8.6079900">
        <ele>19.1</ele>
        <time>2021-05-21T09:01:51Z</time>
      </trkpt>
      <trkpt lat="42.3482690" lon="-8.6080050">
        <ele>18.9</ele>
        <time>2021-05-21T09:01:52Z</time>
      </trkpt>
      <trkpt lat="42.3482760" lon="-8.6080210">
        <ele>18.8</ele>
        <time>2021-05-21T09:01:53Z</time>
      </trkpt>
      <trkpt lat="42.3482840" lon="-8.6080360">
        <ele>18.7</ele>
        <time>2021-05-21T09:01:54Z</time>
      </trkpt>
      <trkpt lat="42.3482860" lon="-8.6080480">
        <ele>18.6</ele>
        <time>2021-05-21T09:01:55Z</time>
      </trkpt>
      <trkpt lat="42.3482930" lon="-8.6080600">
        <ele>18.5</ele>
        <time>2021-05-21T09:01:56Z</time>
      </trkpt>
      <trkpt lat="42.3482980" lon="-8.6080780">
        <ele>18.3</ele>
        <time>2021-05-21T09:01:57Z</time>
      </trkpt>
      <trkpt lat="42.3483110" lon="-8.6080980">
        <ele>18.1</ele>
        <time>2021-05-21T09:01:58Z</time>
      </trkpt>
      <trkpt lat="42.3483150" lon="-8.6081110">
        <ele>18.0</ele>
        <time>2021-05-21T09:01:59Z</time>
      </trkpt>
      <trkpt lat="42.3483200" lon="-8.6081230">
        <ele>17.9</ele>
        <time>2021-05-21T09:02:00Z</time>
      </trkpt>
      <trkpt lat="42.3483280" lon="-8.6081380">
        <ele>17.8</ele>
        <time>2021-05-21T09:02:01Z</time>
      </trkpt>
      <trkpt lat="42.3483350" lon="-8.6081480">
        <ele>17.7</ele>
        <time>2021-05-21T09:02:02Z</time>
      </trkpt>
      <trkpt lat="42.3483410" lon="-8.6081580">
        <ele>17.6</ele>
        <time>2021-05-21T09:02:03Z</time>
      </trkpt>
      <trkpt lat="42.3483470" lon="-8.6081680">
        <ele>17.5</ele>
        <time>2021-05-21T09:02:04Z</time>
      </trkpt>
      <trkpt lat="42.3483590" lon="-8.6081800">
        <ele>17.4</ele>
        <time>2021-05-21T09:02:05Z</time>
      </trkpt>
      <trkpt lat="42.3483670" lon="-8.6081970">
        <ele>17.2</ele>
        <time>2021-05-21T09:02:06Z</time>
      </trkpt>
      <trkpt lat="42.3483790" lon="-8.6082130">
        <ele>17.1</ele>
        <time>2021-05-21T09:02:07Z</time>
      </trkpt>
      <trkpt lat="42.3483910" lon="-8.6082280">
        <ele>16.9</ele>
        <time>2021-05-21T09:02:08Z</time>
      </trkpt>
      <trkpt lat="42.3483980" lon="-8.6082400">
        <ele>16.9</ele>
        <time>2021-05-21T09:02:09Z</time>
      </trkpt>
      <trkpt lat="42.3484060" lon="-8.6082460">
        <ele>16.8</ele>
        <time>2021-05-21T09:02:10Z</time>
      </trkpt>
      <trkpt lat="42.3484130" lon="-8.6082520">
        <ele>16.7</ele>
        <time>2021-05-21T09:02:12Z</time>
      </trkpt>
      <trkpt lat="42.3484210" lon="-8.6082580">
        <ele>16.6</ele>
        <time>2021-05-21T09:02:13Z</time>
      </trkpt>
      <trkpt lat="42.3484260" lon="-8.6082630">
        <ele>16.6</ele>
        <time>2021-05-21T09:02:14Z</time>
      </trkpt>
      <trkpt lat="42.3484270" lon="-8.6082700">
        <ele>16.5</ele>
        <time>2021-05-21T09:02:15Z</time>
      </trkpt>
      <trkpt lat="42.3484290" lon="-8.6082760">
        <ele>16.5</ele>
        <time>2021-05-21T09:02:16Z</time>
      </trkpt>
      <trkpt lat="42.3484300" lon="-8.6082820">
        <ele>16.5</ele>
        <time>2021-05-21T09:02:17Z</time>
      </trkpt>
      <trkpt lat="42.3484320" lon="-8.6082890">
        <ele>16.4</ele>
        <time>2021-05-21T09:02:18Z</time>
      </trkpt>
      <trkpt lat="42.3484330" lon="-8.6082950">
        <ele>16.4</ele>
        <time>2021-05-21T09:02:19Z</time>
      </trkpt>
      <trkpt lat="42.3484350" lon="-8.6083020">
        <ele>16.3</ele>
        <time>2021-05-21T09:02:20Z</time>
      </trkpt>
      <trkpt lat="42.3484360" lon="-8.6083080">
        <ele>16.3</ele>
        <time>2021-05-21T09:02:21Z</time>
      </trkpt>
      <trkpt lat="42.3484320" lon="-8.6083260">
        <ele>16.2</ele>
        <time>2021-05-21T09:02:22Z</time>
      </trkpt>
      <trkpt lat="42.3484510" lon="-8.6083370">
        <ele>16.0</ele>
        <time>2021-05-21T09:02:23Z</time>
      </trkpt>
      <trkpt lat="42.3484530" lon="-8.6083460">
        <ele>16.0</ele>
        <time>2021-05-21T09:02:24Z</time>
      </trkpt>
      <trkpt lat="42.3484640" lon="-8.6083730">
        <ele>15.8</ele>
        <time>2021-05-21T09:02:25Z</time>
      </trkpt>
      <trkpt lat="42.3484700" lon="-8.6083820">
        <ele>15.7</ele>
        <time>2021-05-21T09:02:26Z</time>
      </trkpt>
      <trkpt lat="42.3484760" lon="-8.6083910">
        <ele>15.6</ele>
        <time>2021-05-21T09:02:27Z</time>
      </trkpt>
      <trkpt lat="42.3484970" lon="-8.6084110">
        <ele>15.4</ele>
        <time>2021-05-21T09:02:28Z</time>
      </trkpt>
      <trkpt lat="42.3485030" lon="-8.6084220">
        <ele>15.3</ele>
        <time>2021-05-21T09:02:29Z</time>
      </trkpt>
      <trkpt lat="42.3485100" lon="-8.6084330">
        <ele>15.2</ele>
        <time>2021-05-21T09:02:30Z</time>
      </trkpt>
      <trkpt lat="42.3485150" lon="-8.6084380">
        <ele>15.2</ele>
        <time>2021-05-21T09:02:31Z</time>
      </trkpt>
      <trkpt lat="42.3485230" lon="-8.6084490">
        <ele>15.1</ele>
        <time>2021-05-21T09:02:32Z</time>
      </trkpt>
      <trkpt lat="42.3485270" lon="-8.6084670">
        <ele>15.0</ele>
        <time>2021-05-21T09:02:33Z</time>
      </trkpt>
      <trkpt lat="42.3485320" lon="-8.6084720">
        <ele>14.9</ele>
        <time>2021-05-21T09:02:34Z</time>
      </trkpt>
      <trkpt lat="42.3485320" lon="-8.6084720">
        <ele>14.9</ele>
        <time>2021-05-21T09:02:35Z</time>
      </trkpt>
      <trkpt lat="42.3485300" lon="-8.6084800">
        <ele>14.9</ele>
        <time>2021-05-21T09:02:36Z</time>
      </trkpt>
      <trkpt lat="42.3485290" lon="-8.6084840">
        <ele>14.8</ele>
        <time>2021-05-21T09:02:37Z</time>
      </trkpt>
      <trkpt lat="42.3485280" lon="-8.6084900">
        <ele>14.8</ele>
        <time>2021-05-21T09:02:38Z</time>
      </trkpt>
      <trkpt lat="42.3485290" lon="-8.6084960">
        <ele>14.8</ele>
        <time>2021-05-21T09:02:39Z</time>
      </trkpt>
      <trkpt lat="42.3485220" lon="-8.6084930">
        <ele>14.7</ele>
        <time>2021-05-21T09:02:40Z</time>
      </trkpt>
      <trkpt lat="42.3485200" lon="-8.6084980">
        <ele>14.7</ele>
        <time>2021-05-21T09:02:41Z</time>
      </trkpt>
      <trkpt lat="42.3485230" lon="-8.6085070">
        <ele>14.6</ele>
        <time>2021-05-21T09:02:42Z</time>
      </trkpt>
      <trkpt lat="42.3485190" lon="-8.6084980">
        <ele>14.5</ele>
        <time>2021-05-21T09:02:43Z</time>
      </trkpt>
      <trkpt lat="42.3485230" lon="-8.6084980">
        <ele>14.5</ele>
        <time>2021-05-21T09:02:44Z</time>
      </trkpt>
      <trkpt lat="42.3485230" lon="-8.6085010">
        <ele>14.5</ele>
        <time>2021-05-21T09:02:45Z</time>
      </trkpt>
      <trkpt lat="42.3485230" lon="-8.6084970">
        <ele>14.4</ele>
        <time>2021-05-21T09:02:46Z</time>
      </trkpt>
      <trkpt lat="42.3485230" lon="-8.6084970">
        <ele>14.4</ele>
        <time>2021-05-21T09:02:47Z</time>
      </trkpt>
      <trkpt lat="42.3485230" lon="-8.6084890">
        <ele>14.4</ele>
        <time>2021-05-21T09:02:48Z</time>
      </trkpt>
      <trkpt lat="42.3485210" lon="-8.6084850">
        <ele>14.3</ele>
        <time>2021-05-21T09:02:49Z</time>
      </trkpt>
      <trkpt lat="42.3485180" lon="-8.6084810">
        <ele>14.3</ele>
        <time>2021-05-21T09:02:50Z</time>
      </trkpt>
      <trkpt lat="42.3485320" lon="-8.6084940">
        <ele>14.1</ele>
        <time>2021-05-21T09:02:51Z</time>
      </trkpt>
      <trkpt lat="42.3485330" lon="-8.6085110">
        <ele>14.0</ele>
        <time>2021-05-21T09:02:52Z</time>
      </trkpt>
      <trkpt lat="42.3485240" lon="-8.6085220">
        <ele>13.9</ele>
        <time>2021-05-21T09:02:53Z</time>
      </trkpt>
      <trkpt lat="42.3485220" lon="-8.6085160">
        <ele>13.8</ele>
        <time>2021-05-21T09:02:54Z</time>
      </trkpt>
      <trkpt lat="42.3485210" lon="-8.6085230">
        <ele>13.8</ele>
        <time>2021-05-21T09:02:55Z</time>
      </trkpt>
      <trkpt lat="42.3485190" lon="-8.6085450">
        <ele>13.4</ele>
        <time>2021-05-21T09:02:56Z</time>
      </trkpt>
      <trkpt lat="42.3485340" lon="-8.6085580">
        <ele>13.1</ele>
        <time>2021-05-21T09:02:57Z</time>
      </trkpt>
      <trkpt lat="42.3485300" lon="-8.6085730">
        <ele>12.9</ele>
        <time>2021-05-21T09:02:58Z</time>
      </trkpt>
      <trkpt lat="42.3485390" lon="-8.6085620">
        <ele>12.7</ele>
        <time>2021-05-21T09:02:59Z</time>
      </trkpt>
      <trkpt lat="42.3485470" lon="-8.6085650">
        <ele>12.6</ele>
        <time>2021-05-21T09:03:00Z</time>
      </trkpt>
      <trkpt lat="42.3485620" lon="-8.6085540">
        <ele>12.3</ele>
        <time>2021-05-21T09:03:01Z</time>
      </trkpt>
      <trkpt lat="42.3485730" lon="-8.6085410">
        <ele>12.0</ele>
        <time>2021-05-21T09:03:02Z</time>
      </trkpt>
      <trkpt lat="42.3485830" lon="-8.6085350">
        <ele>11.9</ele>
        <time>2021-05-21T09:03:03Z</time>
      </trkpt>
      <trkpt lat="42.3485940" lon="-8.6085300">
        <ele>11.7</ele>
        <time>2021-05-21T09:03:04Z</time>
      </trkpt>
      <trkpt lat="42.3486010" lon="-8.6085340">
        <ele>11.6</ele>
        <time>2021-05-21T09:03:05Z</time>
      </trkpt>
      <trkpt lat="42.3486150" lon="-8.6085250">
        <ele>11.3</ele>
        <time>2021-05-21T09:03:06Z</time>
      </trkpt>
      <trkpt lat="42.3486200" lon="-8.6085180">
        <ele>11.2</ele>
        <time>2021-05-21T09:03:07Z</time>
      </trkpt>
      <trkpt lat="42.3486260" lon="-8.6085100">
        <ele>11.1</ele>
        <time>2021-05-21T09:03:08Z</time>
      </trkpt>
      <trkpt lat="42.3486310" lon="-8.6085030">
        <ele>11.0</ele>
        <time>2021-05-21T09:03:09Z</time>
      </trkpt>
      <trkpt lat="42.3486420" lon="-8.6084950">
        <ele>10.8</ele>
        <time>2021-05-21T09:03:10Z</time>
      </trkpt>
      <trkpt lat="42.3486480" lon="-8.6084870">
        <ele>10.7</ele>
        <time>2021-05-21T09:03:11Z</time>
      </trkpt>
      <trkpt lat="42.3486570" lon="-8.6084940">
        <ele>10.6</ele>
        <time>2021-05-21T09:03:12Z</time>
      </trkpt>
      <trkpt lat="42.3486660" lon="-8.6084930">
        <ele>10.5</ele>
        <time>2021-05-21T09:03:13Z</time>
      </trkpt>
      <trkpt lat="42.3486720" lon="-8.6084890">
        <ele>10.4</ele>
        <time>2021-05-21T09:03:14Z</time>
      </trkpt>
      <trkpt lat="42.3486770" lon="-8.6084830">
        <ele>10.3</ele>
        <time>2021-05-21T09:03:15Z</time>
      </trkpt>
      <trkpt lat="42.3486880" lon="-8.6084830">
        <ele>10.2</ele>
        <time>2021-05-21T09:03:16Z</time>
      </trkpt>
      <trkpt lat="42.3487060" lon="-8.6084780">
        <ele>10.0</ele>
        <time>2021-05-21T09:03:17Z</time>
      </trkpt>
      <trkpt lat="42.3487150" lon="-8.6084760">
        <ele>9.9</ele>
        <time>2021-05-21T09:03:18Z</time>
      </trkpt>
      <trkpt lat="42.3487250" lon="-8.6084750">
        <ele>9.8</ele>
        <time>2021-05-21T09:03:19Z</time>
      </trkpt>
      <trkpt lat="42.3487310" lon="-8.6084760">
        <ele>9.7</ele>
        <time>2021-05-21T09:03:20Z</time>
      </trkpt>
      <trkpt lat="42.3487420" lon="-8.6084750">
        <ele>9.6</ele>
        <time>2021-05-21T09:03:21Z</time>
      </trkpt>
      <trkpt lat="42.3487570" lon="-8.6084730">
        <ele>9.5</ele>
        <time>2021-05-21T09:03:22Z</time>
      </trkpt>
      <trkpt lat="42.3487750" lon="-8.6084700">
        <ele>9.3</ele>
        <time>2021-05-21T09:03:24Z</time>
      </trkpt>
      <trkpt lat="42.3487870" lon="-8.6084710">
        <ele>9.2</ele>
        <time>2021-05-21T09:03:25Z</time>
      </trkpt>
      <trkpt lat="42.3487990" lon="-8.6084730">
        <ele>9.1</ele>
        <time>2021-05-21T09:03:26Z</time>
      </trkpt>
      <trkpt lat="42.3488210" lon="-8.6084660">
        <ele>8.9</ele>
        <time>2021-05-21T09:03:27Z</time>
      </trkpt>
      <trkpt lat="42.3488300" lon="-8.6084660">
        <ele>8.9</ele>
        <time>2021-05-21T09:03:28Z</time>
      </trkpt>
      <trkpt lat="42.3488400" lon="-8.6084670">
        <ele>8.8</ele>
        <time>2021-05-21T09:03:29Z</time>
      </trkpt>
      <trkpt lat="42.3488620" lon="-8.6084680">
        <ele>8.7</ele>
        <time>2021-05-21T09:03:30Z</time>
      </trkpt>
      <trkpt lat="42.3488710" lon="-8.6084700">
        <ele>8.6</ele>
        <time>2021-05-21T09:03:31Z</time>
      </trkpt>
      <trkpt lat="42.3488800" lon="-8.6084690">
        <ele>8.6</ele>
        <time>2021-05-21T09:03:32Z</time>
      </trkpt>
      <trkpt lat="42.3488970" lon="-8.6084670">
        <ele>8.4</ele>
        <time>2021-05-21T09:03:33Z</time>
      </trkpt>
      <trkpt lat="42.3489040" lon="-8.6084650">
        <ele>8.4</ele>
        <time>2021-05-21T09:03:34Z</time>
      </trkpt>
      <trkpt lat="42.3489270" lon="-8.6084610">
        <ele>8.3</ele>
        <time>2021-05-21T09:03:35Z</time>
      </trkpt>
      <trkpt lat="42.3489360" lon="-8.6084560">
        <ele>8.2</ele>
        <time>2021-05-21T09:03:36Z</time>
      </trkpt>
      <trkpt lat="42.3489610" lon="-8.6084500">
        <ele>8.1</ele>
        <time>2021-05-21T09:03:37Z</time>
      </trkpt>
      <trkpt lat="42.3489690" lon="-8.6084480">
        <ele>8.1</ele>
        <time>2021-05-21T09:03:38Z</time>
      </trkpt>
      <trkpt lat="42.3489770" lon="-8.6084460">
        <ele>8.0</ele>
        <time>2021-05-21T09:03:39Z</time>
      </trkpt>
      <trkpt lat="42.3489840" lon="-8.6084440">
        <ele>8.0</ele>
        <time>2021-05-21T09:03:40Z</time>
      </trkpt>
      <trkpt lat="42.3490070" lon="-8.6084500">
        <ele>7.9</ele>
        <time>2021-05-21T09:03:41Z</time>
      </trkpt>
      <trkpt lat="42.3490170" lon="-8.6084460">
        <ele>7.8</ele>
        <time>2021-05-21T09:03:42Z</time>
      </trkpt>
      <trkpt lat="42.3490330" lon="-8.6084440">
        <ele>7.8</ele>
        <time>2021-05-21T09:03:43Z</time>
      </trkpt>
      <trkpt lat="42.3490530" lon="-8.6084450">
        <ele>7.7</ele>
        <time>2021-05-21T09:03:44Z</time>
      </trkpt>
      <trkpt lat="42.3490600" lon="-8.6084450">
        <ele>7.7</ele>
        <time>2021-05-21T09:03:45Z</time>
      </trkpt>
      <trkpt lat="42.3490660" lon="-8.6084460">
        <ele>7.6</ele>
        <time>2021-05-21T09:03:46Z</time>
      </trkpt>
      <trkpt lat="42.3490720" lon="-8.6084470">
        <ele>7.6</ele>
        <time>2021-05-21T09:03:47Z</time>
      </trkpt>
      <trkpt lat="42.3490920" lon="-8.6084490">
        <ele>7.5</ele>
        <time>2021-05-21T09:03:48Z</time>
      </trkpt>
      <trkpt lat="42.3491040" lon="-8.6084480">
        <ele>7.5</ele>
        <time>2021-05-21T09:03:49Z</time>
      </trkpt>
      <trkpt lat="42.3491150" lon="-8.6084480">
        <ele>7.5</ele>
        <time>2021-05-21T09:03:50Z</time>
      </trkpt>
      <trkpt lat="42.3491330" lon="-8.6084510">
        <ele>7.4</ele>
        <time>2021-05-21T09:03:51Z</time>
      </trkpt>
      <trkpt lat="42.3491490" lon="-8.6084480">
        <ele>7.3</ele>
        <time>2021-05-21T09:03:52Z</time>
      </trkpt>
      <trkpt lat="42.3491670" lon="-8.6084440">
        <ele>7.3</ele>
        <time>2021-05-21T09:03:53Z</time>
      </trkpt>
      <trkpt lat="42.3491850" lon="-8.6084440">
        <ele>7.2</ele>
        <time>2021-05-21T09:03:54Z</time>
      </trkpt>
      <trkpt lat="42.3491980" lon="-8.6084400">
        <ele>7.2</ele>
        <time>2021-05-21T09:03:55Z</time>
      </trkpt>
      <trkpt lat="42.3492170" lon="-8.6084380">
        <ele>7.1</ele>
        <time>2021-05-21T09:03:56Z</time>
      </trkpt>
      <trkpt lat="42.3492330" lon="-8.6084370">
        <ele>7.0</ele>
        <time>2021-05-21T09:03:57Z</time>
      </trkpt>
      <trkpt lat="42.3492500" lon="-8.6084390">
        <ele>7.0</ele>
        <time>2021-05-21T09:03:58Z</time>
      </trkpt>
      <trkpt lat="42.3492660" lon="-8.6084430">
        <ele>6.9</ele>
        <time>2021-05-21T09:03:59Z</time>
      </trkpt>
      <trkpt lat="42.3492820" lon="-8.6084430">
        <ele>6.9</ele>
        <time>2021-05-21T09:04:00Z</time>
      </trkpt>
      <trkpt lat="42.3492970" lon="-8.6084400">
        <ele>6.9</ele>
        <time>2021-05-21T09:04:01Z</time>
      </trkpt>
      <trkpt lat="42.3493040" lon="-8.6084380">
        <ele>6.8</ele>
        <time>2021-05-21T09:04:02Z</time>
      </trkpt>
      <trkpt lat="42.3493080" lon="-8.6084310">
        <ele>6.8</ele>
        <time>2021-05-21T09:04:03Z</time>
      </trkpt>
      <trkpt lat="42.3493220" lon="-8.6084280">
        <ele>6.8</ele>
        <time>2021-05-21T09:04:04Z</time>
      </trkpt>
      <trkpt lat="42.3493300" lon="-8.6084270">
        <ele>6.8</ele>
        <time>2021-05-21T09:04:05Z</time>
      </trkpt>
      <trkpt lat="42.3493420" lon="-8.6084250">
        <ele>6.8</ele>
        <time>2021-05-21T09:04:06Z</time>
      </trkpt>
      <trkpt lat="42.3493500" lon="-8.6084220">
        <ele>6.7</ele>
        <time>2021-05-21T09:04:07Z</time>
      </trkpt>
      <trkpt lat="42.3493600" lon="-8.6084150">
        <ele>6.7</ele>
        <time>2021-05-21T09:04:08Z</time>
      </trkpt>
      <trkpt lat="42.3493660" lon="-8.6084080">
        <ele>6.7</ele>
        <time>2021-05-21T09:04:09Z</time>
      </trkpt>
      <trkpt lat="42.3493730" lon="-8.6084020">
        <ele>6.7</ele>
        <time>2021-05-21T09:04:10Z</time>
      </trkpt>
      <trkpt lat="42.3493790" lon="-8.6083930">
        <ele>6.7</ele>
        <time>2021-05-21T09:04:11Z</time>
      </trkpt>
      <trkpt lat="42.3493930" lon="-8.6083930">
        <ele>6.7</ele>
        <time>2021-05-21T09:04:12Z</time>
      </trkpt>
      <trkpt lat="42.3494040" lon="-8.6083860">
        <ele>6.6</ele>
        <time>2021-05-21T09:04:13Z</time>
      </trkpt>
      <trkpt lat="42.3494090" lon="-8.6083750">
        <ele>6.6</ele>
        <time>2021-05-21T09:04:14Z</time>
      </trkpt>
      <trkpt lat="42.3494250" lon="-8.6083750">
        <ele>6.6</ele>
        <time>2021-05-21T09:04:15Z</time>
      </trkpt>
      <trkpt lat="42.3494330" lon="-8.6083680">
        <ele>6.6</ele>
        <time>2021-05-21T09:04:16Z</time>
      </trkpt>
      <trkpt lat="42.3494550" lon="-8.6083600">
        <ele>6.6</ele>
        <time>2021-05-21T09:04:17Z</time>
      </trkpt>
      <trkpt lat="42.3494650" lon="-8.6083550">
        <ele>6.6</ele>
        <time>2021-05-21T09:04:18Z</time>
      </trkpt>
      <trkpt lat="42.3494760" lon="-8.6083510">
        <ele>6.6</ele>
        <time>2021-05-21T09:04:19Z</time>
      </trkpt>
      <trkpt lat="42.3494820" lon="-8.6083390">
        <ele>6.6</ele>
        <time>2021-05-21T09:04:20Z</time>
      </trkpt>
      <trkpt lat="42.3494930" lon="-8.6083310">
        <ele>6.5</ele>
        <time>2021-05-21T09:04:21Z</time>
      </trkpt>
      <trkpt lat="42.3495040" lon="-8.6083290">
        <ele>6.5</ele>
        <time>2021-05-21T09:04:22Z</time>
      </trkpt>
      <trkpt lat="42.3495120" lon="-8.6083190">
        <ele>6.5</ele>
        <time>2021-05-21T09:04:23Z</time>
      </trkpt>
      <trkpt lat="42.3495210" lon="-8.6083200">
        <ele>6.5</ele>
        <time>2021-05-21T09:04:24Z</time>
      </trkpt>
      <trkpt lat="42.3495340" lon="-8.6083120">
        <ele>6.5</ele>
        <time>2021-05-21T09:04:25Z</time>
      </trkpt>
      <trkpt lat="42.3495560" lon="-8.6083050">
        <ele>6.5</ele>
        <time>2021-05-21T09:04:26Z</time>
      </trkpt>
      <trkpt lat="42.3495630" lon="-8.6082960">
        <ele>6.5</ele>
        <time>2021-05-21T09:04:27Z</time>
      </trkpt>
      <trkpt lat="42.3495720" lon="-8.6082940">
        <ele>6.6</ele>
        <time>2021-05-21T09:04:28Z</time>
      </trkpt>
      <trkpt lat="42.3495850" lon="-8.6082850">
        <ele>6.6</ele>
        <time>2021-05-21T09:04:29Z</time>
      </trkpt>
      <trkpt lat="42.3495950" lon="-8.6082800">
        <ele>6.6</ele>
        <time>2021-05-21T09:04:30Z</time>
      </trkpt>
      <trkpt lat="42.3496120" lon="-8.6082750">
        <ele>6.6</ele>
        <time>2021-05-21T09:04:31Z</time>
      </trkpt>
      <trkpt lat="42.3496260" lon="-8.6082690">
        <ele>6.6</ele>
        <time>2021-05-21T09:04:32Z</time>
      </trkpt>
      <trkpt lat="42.3496390" lon="-8.6082600">
        <ele>6.6</ele>
        <time>2021-05-21T09:04:33Z</time>
      </trkpt>
      <trkpt lat="42.3496550" lon="-8.6082570">
        <ele>6.7</ele>
        <time>2021-05-21T09:04:34Z</time>
      </trkpt>
      <trkpt lat="42.3496660" lon="-8.6082560">
        <ele>6.7</ele>
        <time>2021-05-21T09:04:35Z</time>
      </trkpt>
      <trkpt lat="42.3496760" lon="-8.6082470">
        <ele>6.7</ele>
        <time>2021-05-21T09:04:36Z</time>
      </trkpt>
      <trkpt lat="42.3496800" lon="-8.6082420">
        <ele>6.7</ele>
        <time>2021-05-21T09:04:37Z</time>
      </trkpt>
      <trkpt lat="42.3496930" lon="-8.6082400">
        <ele>6.8</ele>
        <time>2021-05-21T09:04:38Z</time>
      </trkpt>
      <trkpt lat="42.3496990" lon="-8.6082360">
        <ele>6.8</ele>
        <time>2021-05-21T09:04:39Z</time>
      </trkpt>
      <trkpt lat="42.3497110" lon="-8.6082300">
        <ele>6.8</ele>
        <time>2021-05-21T09:04:40Z</time>
      </trkpt>
      <trkpt lat="42.3497270" lon="-8.6082230">
        <ele>6.9</ele>
        <time>2021-05-21T09:04:41Z</time>
      </trkpt>
      <trkpt lat="42.3497370" lon="-8.6082170">
        <ele>6.9</ele>
        <time>2021-05-21T09:04:42Z</time>
      </trkpt>
      <trkpt lat="42.3497500" lon="-8.6082130">
        <ele>7.0</ele>
        <time>2021-05-21T09:04:43Z</time>
      </trkpt>
      <trkpt lat="42.3497540" lon="-8.6082120">
        <ele>7.0</ele>
        <time>2021-05-21T09:04:44Z</time>
      </trkpt>
      <trkpt lat="42.3497650" lon="-8.6082170">
        <ele>7.0</ele>
        <time>2021-05-21T09:04:45Z</time>
      </trkpt>
      <trkpt lat="42.3497780" lon="-8.6082200">
        <ele>7.1</ele>
        <time>2021-05-21T09:04:46Z</time>
      </trkpt>
      <trkpt lat="42.3497830" lon="-8.6082250">
        <ele>7.1</ele>
        <time>2021-05-21T09:04:47Z</time>
      </trkpt>
      <trkpt lat="42.3497940" lon="-8.6082350">
        <ele>7.1</ele>
        <time>2021-05-21T09:04:48Z</time>
      </trkpt>
      <trkpt lat="42.3498060" lon="-8.6082420">
        <ele>7.2</ele>
        <time>2021-05-21T09:04:49Z</time>
      </trkpt>
      <trkpt lat="42.3498150" lon="-8.6082530">
        <ele>7.3</ele>
        <time>2021-05-21T09:04:50Z</time>
      </trkpt>
      <trkpt lat="42.3498200" lon="-8.6082650">
        <ele>7.3</ele>
        <time>2021-05-21T09:04:51Z</time>
      </trkpt>
      <trkpt lat="42.3498240" lon="-8.6082730">
        <ele>7.3</ele>
        <time>2021-05-21T09:04:52Z</time>
      </trkpt>
      <trkpt lat="42.3498310" lon="-8.6082840">
        <ele>7.4</ele>
        <time>2021-05-21T09:04:53Z</time>
      </trkpt>
      <trkpt lat="42.3498370" lon="-8.6082940">
        <ele>7.4</ele>
        <time>2021-05-21T09:04:54Z</time>
      </trkpt>
      <trkpt lat="42.3498420" lon="-8.6083110">
        <ele>7.5</ele>
        <time>2021-05-21T09:04:55Z</time>
      </trkpt>
      <trkpt lat="42.3498440" lon="-8.6083190">
        <ele>7.5</ele>
        <time>2021-05-21T09:04:56Z</time>
      </trkpt>
      <trkpt lat="42.3498460" lon="-8.6083260">
        <ele>7.6</ele>
        <time>2021-05-21T09:04:57Z</time>
      </trkpt>
      <trkpt lat="42.3498480" lon="-8.6083340">
        <ele>7.6</ele>
        <time>2021-05-21T09:04:58Z</time>
      </trkpt>
      <trkpt lat="42.3498500" lon="-8.6083420">
        <ele>7.6</ele>
        <time>2021-05-21T09:04:59Z</time>
      </trkpt>
      <trkpt lat="42.3498540" lon="-8.6083690">
        <ele>7.7</ele>
        <time>2021-05-21T09:05:00Z</time>
      </trkpt>
      <trkpt lat="42.3498550" lon="-8.6083800">
        <ele>7.8</ele>
        <time>2021-05-21T09:05:01Z</time>
      </trkpt>
      <trkpt lat="42.3498570" lon="-8.6083900">
        <ele>7.8</ele>
        <time>2021-05-21T09:05:02Z</time>
      </trkpt>
      <trkpt lat="42.3498560" lon="-8.6084020">
        <ele>7.9</ele>
        <time>2021-05-21T09:05:03Z</time>
      </trkpt>
      <trkpt lat="42.3498540" lon="-8.6084170">
        <ele>7.9</ele>
        <time>2021-05-21T09:05:04Z</time>
      </trkpt>
      <trkpt lat="42.3498560" lon="-8.6084350">
        <ele>8.0</ele>
        <time>2021-05-21T09:05:05Z</time>
      </trkpt>
      <trkpt lat="42.3498530" lon="-8.6084540">
        <ele>8.1</ele>
        <time>2021-05-21T09:05:06Z</time>
      </trkpt>
      <trkpt lat="42.3498560" lon="-8.6084670">
        <ele>8.2</ele>
        <time>2021-05-21T09:05:07Z</time>
      </trkpt>
      <trkpt lat="42.3498560" lon="-8.6084800">
        <ele>8.3</ele>
        <time>2021-05-21T09:05:08Z</time>
      </trkpt>
      <trkpt lat="42.3498550" lon="-8.6084970">
        <ele>8.4</ele>
        <time>2021-05-21T09:05:09Z</time>
      </trkpt>
      <trkpt lat="42.3498560" lon="-8.6085170">
        <ele>8.5</ele>
        <time>2021-05-21T09:05:10Z</time>
      </trkpt>
      <trkpt lat="42.3498590" lon="-8.6085390">
        <ele>8.6</ele>
        <time>2021-05-21T09:05:11Z</time>
      </trkpt>
      <trkpt lat="42.3498540" lon="-8.6085560">
        <ele>8.7</ele>
        <time>2021-05-21T09:05:12Z</time>
      </trkpt>
      <trkpt lat="42.3498480" lon="-8.6085710">
        <ele>8.8</ele>
        <time>2021-05-21T09:05:13Z</time>
      </trkpt>
      <trkpt lat="42.3498490" lon="-8.6085770">
        <ele>8.8</ele>
        <time>2021-05-21T09:05:14Z</time>
      </trkpt>
      <trkpt lat="42.3498500" lon="-8.6085950">
        <ele>8.9</ele>
        <time>2021-05-21T09:05:15Z</time>
      </trkpt>
      <trkpt lat="42.3498500" lon="-8.6086160">
        <ele>9.1</ele>
        <time>2021-05-21T09:05:16Z</time>
      </trkpt>
      <trkpt lat="42.3498460" lon="-8.6086330">
        <ele>9.2</ele>
        <time>2021-05-21T09:05:17Z</time>
      </trkpt>
      <trkpt lat="42.3498450" lon="-8.6086520">
        <ele>9.3</ele>
        <time>2021-05-21T09:05:18Z</time>
      </trkpt>
      <trkpt lat="42.3498490" lon="-8.6086810">
        <ele>9.5</ele>
        <time>2021-05-21T09:05:19Z</time>
      </trkpt>
      <trkpt lat="42.3498480" lon="-8.6086850">
        <ele>9.5</ele>
        <time>2021-05-21T09:05:20Z</time>
      </trkpt>
      <trkpt lat="42.3498540" lon="-8.6087050">
        <ele>9.6</ele>
        <time>2021-05-21T09:05:21Z</time>
      </trkpt>
      <trkpt lat="42.3498520" lon="-8.6087220">
        <ele>9.7</ele>
        <time>2021-05-21T09:05:22Z</time>
      </trkpt>
      <trkpt lat="42.3498490" lon="-8.6087490">
        <ele>9.9</ele>
        <time>2021-05-21T09:05:23Z</time>
      </trkpt>
      <trkpt lat="42.3498440" lon="-8.6087670">
        <ele>10.0</ele>
        <time>2021-05-21T09:05:24Z</time>
      </trkpt>
      <trkpt lat="42.3498410" lon="-8.6087860">
        <ele>10.1</ele>
        <time>2021-05-21T09:05:25Z</time>
      </trkpt>
      <trkpt lat="42.3498360" lon="-8.6088050">
        <ele>10.2</ele>
        <time>2021-05-21T09:05:26Z</time>
      </trkpt>
      <trkpt lat="42.3498250" lon="-8.6088290">
        <ele>10.4</ele>
        <time>2021-05-21T09:05:27Z</time>
      </trkpt>
      <trkpt lat="42.3498210" lon="-8.6088410">
        <ele>10.5</ele>
        <time>2021-05-21T09:05:28Z</time>
      </trkpt>
      <trkpt lat="42.3498180" lon="-8.6088520">
        <ele>10.5</ele>
        <time>2021-05-21T09:05:29Z</time>
      </trkpt>
      <trkpt lat="42.3498120" lon="-8.6088680">
        <ele>10.7</ele>
        <time>2021-05-21T09:05:30Z</time>
      </trkpt>
      <trkpt lat="42.3498110" lon="-8.6088900">
        <ele>10.8</ele>
        <time>2021-05-21T09:05:31Z</time>
      </trkpt>
      <trkpt lat="42.3498060" lon="-8.6089040">
        <ele>10.9</ele>
        <time>2021-05-21T09:05:32Z</time>
      </trkpt>
      <trkpt lat="42.3498000" lon="-8.6089180">
        <ele>11.0</ele>
        <time>2021-05-21T09:05:33Z</time>
      </trkpt>
      <trkpt lat="42.3497990" lon="-8.6089250">
        <ele>11.0</ele>
        <time>2021-05-21T09:05:34Z</time>
      </trkpt>
      <trkpt lat="42.3497690" lon="-8.6089410">
        <ele>11.3</ele>
        <time>2021-05-21T09:05:35Z</time>
      </trkpt>
      <trkpt lat="42.3497630" lon="-8.6089460">
        <ele>11.3</ele>
        <time>2021-05-21T09:05:36Z</time>
      </trkpt>
      <trkpt lat="42.3497560" lon="-8.6089590">
        <ele>11.4</ele>
        <time>2021-05-21T09:05:37Z</time>
      </trkpt>
      <trkpt lat="42.3497500" lon="-8.6089690">
        <ele>11.5</ele>
        <time>2021-05-21T09:05:38Z</time>
      </trkpt>
      <trkpt lat="42.3497430" lon="-8.6089830">
        <ele>11.6</ele>
        <time>2021-05-21T09:05:39Z</time>
      </trkpt>
      <trkpt lat="42.3497390" lon="-8.6090000">
        <ele>11.7</ele>
        <time>2021-05-21T09:05:40Z</time>
      </trkpt>
      <trkpt lat="42.3497330" lon="-8.6090110">
        <ele>11.8</ele>
        <time>2021-05-21T09:05:41Z</time>
      </trkpt>
      <trkpt lat="42.3497260" lon="-8.6090210">
        <ele>11.9</ele>
        <time>2021-05-21T09:05:42Z</time>
      </trkpt>
      <trkpt lat="42.3497170" lon="-8.6090470">
        <ele>12.1</ele>
        <time>2021-05-21T09:05:43Z</time>
      </trkpt>
      <trkpt lat="42.3497130" lon="-8.6090560">
        <ele>12.1</ele>
        <time>2021-05-21T09:05:44Z</time>
      </trkpt>
      <trkpt lat="42.3497100" lon="-8.6090660">
        <ele>12.2</ele>
        <time>2021-05-21T09:05:45Z</time>
      </trkpt>
      <trkpt lat="42.3497080" lon="-8.6090710">
        <ele>12.3</ele>
        <time>2021-05-21T09:05:46Z</time>
      </trkpt>
      <trkpt lat="42.3496980" lon="-8.6090750">
        <ele>12.4</ele>
        <time>2021-05-21T09:05:47Z</time>
      </trkpt>
      <trkpt lat="42.3496830" lon="-8.6090740">
        <ele>12.5</ele>
        <time>2021-05-21T09:05:48Z</time>
      </trkpt>
      <trkpt lat="42.3496820" lon="-8.6090720">
        <ele>12.5</ele>
        <time>2021-05-21T09:05:49Z</time>
      </trkpt>
      <trkpt lat="42.3496840" lon="-8.6090690">
        <ele>12.6</ele>
        <time>2021-05-21T09:05:50Z</time>
      </trkpt>
      <trkpt lat="42.3496840" lon="-8.6090670">
        <ele>12.6</ele>
        <time>2021-05-21T09:05:51Z</time>
      </trkpt>
      <trkpt lat="42.3496790" lon="-8.6090650">
        <ele>12.6</ele>
        <time>2021-05-21T09:05:52Z</time>
      </trkpt>
      <trkpt lat="42.3496740" lon="-8.6090650">
        <ele>12.7</ele>
        <time>2021-05-21T09:05:53Z</time>
      </trkpt>
      <trkpt lat="42.3496710" lon="-8.6090610">
        <ele>12.7</ele>
        <time>2021-05-21T09:05:54Z</time>
      </trkpt>
      <trkpt lat="42.3496560" lon="-8.6090640">
        <ele>12.9</ele>
        <time>2021-05-21T09:05:55Z</time>
      </trkpt>
      <trkpt lat="42.3496330" lon="-8.6090730">
        <ele>13.1</ele>
        <time>2021-05-21T09:05:56Z</time>
      </trkpt>
      <trkpt lat="42.3496250" lon="-8.6090830">
        <ele>13.2</ele>
        <time>2021-05-21T09:05:57Z</time>
      </trkpt>
      <trkpt lat="42.3496160" lon="-8.6090920">
        <ele>13.4</ele>
        <time>2021-05-21T09:05:58Z</time>
      </trkpt>
      <trkpt lat="42.3496000" lon="-8.6091140">
        <ele>13.6</ele>
        <time>2021-05-21T09:05:59Z</time>
      </trkpt>
      <trkpt lat="42.3495920" lon="-8.6091190">
        <ele>13.7</ele>
        <time>2021-05-21T09:06:00Z</time>
      </trkpt>
      <trkpt lat="42.3495850" lon="-8.6091240">
        <ele>13.8</ele>
        <time>2021-05-21T09:06:01Z</time>
      </trkpt>
      <trkpt lat="42.3495640" lon="-8.6091320">
        <ele>14.1</ele>
        <time>2021-05-21T09:06:02Z</time>
      </trkpt>
      <trkpt lat="42.3495540" lon="-8.6091370">
        <ele>14.2</ele>
        <time>2021-05-21T09:06:03Z</time>
      </trkpt>
      <trkpt lat="42.3495490" lon="-8.6091470">
        <ele>14.4</ele>
        <time>2021-05-21T09:06:04Z</time>
      </trkpt>
      <trkpt lat="42.3495290" lon="-8.6091550">
        <ele>14.7</ele>
        <time>2021-05-21T09:06:05Z</time>
      </trkpt>
      <trkpt lat="42.3495050" lon="-8.6091580">
        <ele>15.0</ele>
        <time>2021-05-21T09:06:06Z</time>
      </trkpt>
      <trkpt lat="42.3494930" lon="-8.6091640">
        <ele>15.2</ele>
        <time>2021-05-21T09:06:07Z</time>
      </trkpt>
      <trkpt lat="42.3494720" lon="-8.6091680">
        <ele>15.5</ele>
        <time>2021-05-21T09:06:08Z</time>
      </trkpt>
      <trkpt lat="42.3494630" lon="-8.6091720">
        <ele>16.5</ele>
        <time>2021-05-21T09:06:09Z</time>
      </trkpt>
      <trkpt lat="42.3494540" lon="-8.6091770">
        <ele>16.6</ele>
        <time>2021-05-21T09:06:10Z</time>
      </trkpt>
      <trkpt lat="42.3494480" lon="-8.6091820">
        <ele>16.7</ele>
        <time>2021-05-21T09:06:11Z</time>
      </trkpt>
      <trkpt lat="42.3494360" lon="-8.6091870">
        <ele>16.9</ele>
        <time>2021-05-21T09:06:12Z</time>
      </trkpt>
      <trkpt lat="42.3494320" lon="-8.6091930">
        <ele>17.0</ele>
        <time>2021-05-21T09:06:13Z</time>
      </trkpt>
      <trkpt lat="42.3494320" lon="-8.6092090">
        <ele>17.2</ele>
        <time>2021-05-21T09:06:14Z</time>
      </trkpt>
      <trkpt lat="42.3494420" lon="-8.6092260">
        <ele>17.4</ele>
        <time>2021-05-21T09:06:15Z</time>
      </trkpt>
      <trkpt lat="42.3494500" lon="-8.6092330">
        <ele>17.6</ele>
        <time>2021-05-21T09:06:16Z</time>
      </trkpt>
      <trkpt lat="42.3494570" lon="-8.6092400">
        <ele>17.7</ele>
        <time>2021-05-21T09:06:17Z</time>
      </trkpt>
      <trkpt lat="42.3494640" lon="-8.6092470">
        <ele>17.9</ele>
        <time>2021-05-21T09:06:18Z</time>
      </trkpt>
      <trkpt lat="42.3494800" lon="-8.6092640">
        <ele>18.2</ele>
        <time>2021-05-21T09:06:19Z</time>
      </trkpt>
      <trkpt lat="42.3494870" lon="-8.6092720">
        <ele>18.3</ele>
        <time>2021-05-21T09:06:20Z</time>
      </trkpt>
      <trkpt lat="42.3494930" lon="-8.6092810">
        <ele>18.5</ele>
        <time>2021-05-21T09:06:21Z</time>
      </trkpt>
      <trkpt lat="42.3495010" lon="-8.6093020">
        <ele>18.8</ele>
        <time>2021-05-21T09:06:22Z</time>
      </trkpt>
      <trkpt lat="42.3495050" lon="-8.6093080">
        <ele>18.9</ele>
        <time>2021-05-21T09:06:23Z</time>
      </trkpt>
      <trkpt lat="42.3495090" lon="-8.6093150">
        <ele>19.0</ele>
        <time>2021-05-21T09:06:24Z</time>
      </trkpt>
      <trkpt lat="42.3495130" lon="-8.6093220">
        <ele>19.1</ele>
        <time>2021-05-21T09:06:25Z</time>
      </trkpt>
      <trkpt lat="42.3495170" lon="-8.6093340">
        <ele>19.2</ele>
        <time>2021-05-21T09:06:26Z</time>
      </trkpt>
      <trkpt lat="42.3495210" lon="-8.6093450">
        <ele>19.4</ele>
        <time>2021-05-21T09:06:27Z</time>
      </trkpt>
      <trkpt lat="42.3495260" lon="-8.6093620">
        <ele>19.6</ele>
        <time>2021-05-21T09:06:28Z</time>
      </trkpt>
      <trkpt lat="42.3495280" lon="-8.6093720">
        <ele>19.7</ele>
        <time>2021-05-21T09:06:29Z</time>
      </trkpt>
      <trkpt lat="42.3495340" lon="-8.6093840">
        <ele>19.9</ele>
        <time>2021-05-21T09:06:30Z</time>
      </trkpt>
      <trkpt lat="42.3495380" lon="-8.6093970">
        <ele>20.1</ele>
        <time>2021-05-21T09:06:31Z</time>
      </trkpt>
      <trkpt lat="42.3495460" lon="-8.6094090">
        <ele>20.3</ele>
        <time>2021-05-21T09:06:32Z</time>
      </trkpt>
      <trkpt lat="42.3495310" lon="-8.6094150">
        <ele>20.5</ele>
        <time>2021-05-21T09:06:33Z</time>
      </trkpt>
      <trkpt lat="42.3495330" lon="-8.6094300">
        <ele>20.7</ele>
        <time>2021-05-21T09:06:34Z</time>
      </trkpt>
      <trkpt lat="42.3495370" lon="-8.6094400">
        <ele>20.9</ele>
        <time>2021-05-21T09:06:35Z</time>
      </trkpt>
      <trkpt lat="42.3495360" lon="-8.6094580">
        <ele>21.1</ele>
        <time>2021-05-21T09:06:36Z</time>
      </trkpt>
      <trkpt lat="42.3495380" lon="-8.6094690">
        <ele>21.2</ele>
        <time>2021-05-21T09:06:37Z</time>
      </trkpt>
      <trkpt lat="42.3495400" lon="-8.6094800">
        <ele>21.4</ele>
        <time>2021-05-21T09:06:38Z</time>
      </trkpt>
      <trkpt lat="42.3495420" lon="-8.6094910">
        <ele>21.5</ele>
        <time>2021-05-21T09:06:39Z</time>
      </trkpt>
      <trkpt lat="42.3495480" lon="-8.6095110">
        <ele>21.8</ele>
        <time>2021-05-21T09:06:40Z</time>
      </trkpt>
      <trkpt lat="42.3495510" lon="-8.6095210">
        <ele>21.9</ele>
        <time>2021-05-21T09:06:41Z</time>
      </trkpt>
      <trkpt lat="42.3495550" lon="-8.6095310">
        <ele>22.0</ele>
        <time>2021-05-21T09:06:42Z</time>
      </trkpt>
      <trkpt lat="42.3495580" lon="-8.6095410">
        <ele>22.4</ele>
        <time>2021-05-21T09:06:43Z</time>
      </trkpt>
      <trkpt lat="42.3495640" lon="-8.6095580">
        <ele>22.6</ele>
        <time>2021-05-21T09:06:44Z</time>
      </trkpt>
      <trkpt lat="42.3495710" lon="-8.6095650">
        <ele>22.7</ele>
        <time>2021-05-21T09:06:45Z</time>
      </trkpt>
      <trkpt lat="42.3495790" lon="-8.6095720">
        <ele>22.8</ele>
        <time>2021-05-21T09:06:46Z</time>
      </trkpt>
      <trkpt lat="42.3495870" lon="-8.6095800">
        <ele>22.9</ele>
        <time>2021-05-21T09:06:47Z</time>
      </trkpt>
      <trkpt lat="42.3496040" lon="-8.6095920">
        <ele>23.1</ele>
        <time>2021-05-21T09:06:48Z</time>
      </trkpt>
      <trkpt lat="42.3496140" lon="-8.6095950">
        <ele>23.2</ele>
        <time>2021-05-21T09:06:49Z</time>
      </trkpt>
      <trkpt lat="42.3496250" lon="-8.6096020">
        <ele>23.3</ele>
        <time>2021-05-21T09:06:50Z</time>
      </trkpt>
      <trkpt lat="42.3496340" lon="-8.6096120">
        <ele>23.4</ele>
        <time>2021-05-21T09:06:51Z</time>
      </trkpt>
      <trkpt lat="42.3496470" lon="-8.6096210">
        <ele>23.5</ele>
        <time>2021-05-21T09:06:52Z</time>
      </trkpt>
      <trkpt lat="42.3496560" lon="-8.6096210">
        <ele>23.6</ele>
        <time>2021-05-21T09:06:53Z</time>
      </trkpt>
      <trkpt lat="42.3496660" lon="-8.6096280">
        <ele>23.7</ele>
        <time>2021-05-21T09:06:54Z</time>
      </trkpt>
      <trkpt lat="42.3496800" lon="-8.6096410">
        <ele>23.9</ele>
        <time>2021-05-21T09:06:55Z</time>
      </trkpt>
      <trkpt lat="42.3496840" lon="-8.6096440">
        <ele>23.9</ele>
        <time>2021-05-21T09:06:56Z</time>
      </trkpt>
      <trkpt lat="42.3496930" lon="-8.6096460">
        <ele>24.0</ele>
        <time>2021-05-21T09:06:57Z</time>
      </trkpt>
      <trkpt lat="42.3497040" lon="-8.6096490">
        <ele>24.1</ele>
        <time>2021-05-21T09:06:58Z</time>
      </trkpt>
      <trkpt lat="42.3497110" lon="-8.6096520">
        <ele>24.2</ele>
        <time>2021-05-21T09:06:59Z</time>
      </trkpt>
      <trkpt lat="42.3497260" lon="-8.6096580">
        <ele>24.4</ele>
        <time>2021-05-21T09:07:00Z</time>
      </trkpt>
      <trkpt lat="42.3497490" lon="-8.6096790">
        <ele>24.7</ele>
        <time>2021-05-21T09:07:01Z</time>
      </trkpt>
      <trkpt lat="42.3497550" lon="-8.6096870">
        <ele>24.8</ele>
        <time>2021-05-21T09:07:02Z</time>
      </trkpt>
      <trkpt lat="42.3497600" lon="-8.6096940">
        <ele>24.8</ele>
        <time>2021-05-21T09:07:03Z</time>
      </trkpt>
      <trkpt lat="42.3497700" lon="-8.6097010">
        <ele>25.0</ele>
        <time>2021-05-21T09:07:04Z</time>
      </trkpt>
      <trkpt lat="42.3497820" lon="-8.6097070">
        <ele>25.1</ele>
        <time>2021-05-21T09:07:05Z</time>
      </trkpt>
      <trkpt lat="42.3497890" lon="-8.6097110">
        <ele>25.2</ele>
        <time>2021-05-21T09:07:06Z</time>
      </trkpt>
      <trkpt lat="42.3497990" lon="-8.6097230">
        <ele>25.4</ele>
        <time>2021-05-21T09:07:07Z</time>
      </trkpt>
      <trkpt lat="42.3498050" lon="-8.6097310">
        <ele>25.5</ele>
        <time>2021-05-21T09:07:08Z</time>
      </trkpt>
      <trkpt lat="42.3498110" lon="-8.6097390">
        <ele>25.6</ele>
        <time>2021-05-21T09:07:09Z</time>
      </trkpt>
      <trkpt lat="42.3498170" lon="-8.6097470">
        <ele>25.7</ele>
        <time>2021-05-21T09:07:10Z</time>
      </trkpt>
      <trkpt lat="42.3498230" lon="-8.6097570">
        <ele>25.9</ele>
        <time>2021-05-21T09:07:11Z</time>
      </trkpt>
      <trkpt lat="42.3498230" lon="-8.6097630">
        <ele>25.9</ele>
        <time>2021-05-21T09:07:12Z</time>
      </trkpt>
      <trkpt lat="42.3498270" lon="-8.6097690">
        <ele>26.0</ele>
        <time>2021-05-21T09:07:13Z</time>
      </trkpt>
      <trkpt lat="42.3498190" lon="-8.6097550">
        <ele>26.2</ele>
        <time>2021-05-21T09:07:14Z</time>
      </trkpt>
      <trkpt lat="42.3498230" lon="-8.6097540">
        <ele>26.2</ele>
        <time>2021-05-21T09:07:15Z</time>
      </trkpt>
      <trkpt lat="42.3498260" lon="-8.6097570">
        <ele>26.3</ele>
        <time>2021-05-21T09:07:16Z</time>
      </trkpt>
      <trkpt lat="42.3498240" lon="-8.6097600">
        <ele>26.3</ele>
        <time>2021-05-21T09:07:17Z</time>
      </trkpt>
      <trkpt lat="42.3498340" lon="-8.6097760">
        <ele>26.5</ele>
        <time>2021-05-21T09:07:18Z</time>
      </trkpt>
      <trkpt lat="42.3498440" lon="-8.6097860">
        <ele>26.7</ele>
        <time>2021-05-21T09:07:19Z</time>
      </trkpt>
      <trkpt lat="42.3498570" lon="-8.6098120">
        <ele>27.0</ele>
        <time>2021-05-21T09:07:20Z</time>
      </trkpt>
      <trkpt lat="42.3498820" lon="-8.6098310">
        <ele>27.4</ele>
        <time>2021-05-21T09:07:21Z</time>
      </trkpt>
      <trkpt lat="42.3498890" lon="-8.6098420">
        <ele>27.6</ele>
        <time>2021-05-21T09:07:22Z</time>
      </trkpt>
      <trkpt lat="42.3498990" lon="-8.6098480">
        <ele>27.7</ele>
        <time>2021-05-21T09:07:23Z</time>
      </trkpt>
      <trkpt lat="42.3499110" lon="-8.6098480">
        <ele>27.9</ele>
        <time>2021-05-21T09:07:24Z</time>
      </trkpt>
      <trkpt lat="42.3499360" lon="-8.6098560">
        <ele>28.3</ele>
        <time>2021-05-21T09:07:25Z</time>
      </trkpt>
      <trkpt lat="42.3499490" lon="-8.6098620">
        <ele>28.5</ele>
        <time>2021-05-21T09:07:26Z</time>
      </trkpt>
      <trkpt lat="42.3499640" lon="-8.6098720">
        <ele>28.7</ele>
        <time>2021-05-21T09:07:27Z</time>
      </trkpt>
      <trkpt lat="42.3499750" lon="-8.6098760">
        <ele>28.8</ele>
        <time>2021-05-21T09:07:28Z</time>
      </trkpt>
      <trkpt lat="42.3499850" lon="-8.6098870">
        <ele>29.0</ele>
        <time>2021-05-21T09:07:29Z</time>
      </trkpt>
      <trkpt lat="42.3500010" lon="-8.6099010">
        <ele>29.3</ele>
        <time>2021-05-21T09:07:30Z</time>
      </trkpt>
      <trkpt lat="42.3500120" lon="-8.6099100">
        <ele>29.5</ele>
        <time>2021-05-21T09:07:31Z</time>
      </trkpt>
      <trkpt lat="42.3500300" lon="-8.6099290">
        <ele>29.8</ele>
        <time>2021-05-21T09:07:32Z</time>
      </trkpt>
      <trkpt lat="42.3500390" lon="-8.6099270">
        <ele>29.9</ele>
        <time>2021-05-21T09:07:33Z</time>
      </trkpt>
      <trkpt lat="42.3500320" lon="-8.6099430">
        <ele>30.1</ele>
        <time>2021-05-21T09:07:34Z</time>
      </trkpt>
      <trkpt lat="42.3500420" lon="-8.6099510">
        <ele>30.3</ele>
        <time>2021-05-21T09:07:35Z</time>
      </trkpt>
      <trkpt lat="42.3500520" lon="-8.6099590">
        <ele>30.4</ele>
        <time>2021-05-21T09:07:36Z</time>
      </trkpt>
      <trkpt lat="42.3500590" lon="-8.6099730">
        <ele>30.6</ele>
        <time>2021-05-21T09:07:37Z</time>
      </trkpt>
      <trkpt lat="42.3500710" lon="-8.6099850">
        <ele>30.8</ele>
        <time>2021-05-21T09:07:38Z</time>
      </trkpt>
      <trkpt lat="42.3500760" lon="-8.6099960">
        <ele>30.9</ele>
        <time>2021-05-21T09:07:39Z</time>
      </trkpt>
      <trkpt lat="42.3500810" lon="-8.6100090">
        <ele>31.0</ele>
        <time>2021-05-21T09:07:40Z</time>
      </trkpt>
      <trkpt lat="42.3500850" lon="-8.6100200">
        <ele>31.2</ele>
        <time>2021-05-21T09:07:41Z</time>
      </trkpt>
      <trkpt lat="42.3500820" lon="-8.6100410">
        <ele>31.3</ele>
        <time>2021-05-21T09:07:42Z</time>
      </trkpt>
      <trkpt lat="42.3500820" lon="-8.6100510">
        <ele>31.4</ele>
        <time>2021-05-21T09:07:43Z</time>
      </trkpt>
      <trkpt lat="42.3500810" lon="-8.6100620">
        <ele>31.5</ele>
        <time>2021-05-21T09:07:44Z</time>
      </trkpt>
      <trkpt lat="42.3500810" lon="-8.6100720">
        <ele>31.6</ele>
        <time>2021-05-21T09:07:45Z</time>
      </trkpt>
      <trkpt lat="42.3500800" lon="-8.6100820">
        <ele>31.7</ele>
        <time>2021-05-21T09:07:46Z</time>
      </trkpt>
      <trkpt lat="42.3500760" lon="-8.6100960">
        <ele>31.8</ele>
        <time>2021-05-21T09:07:47Z</time>
      </trkpt>
      <trkpt lat="42.3500760" lon="-8.6101050">
        <ele>31.8</ele>
        <time>2021-05-21T09:07:48Z</time>
      </trkpt>
      <trkpt lat="42.3500800" lon="-8.6101250">
        <ele>31.9</ele>
        <time>2021-05-21T09:07:49Z</time>
      </trkpt>
      <trkpt lat="42.3500860" lon="-8.6101430">
        <ele>32.1</ele>
        <time>2021-05-21T09:07:50Z</time>
      </trkpt>
      <trkpt lat="42.3500960" lon="-8.6101540">
        <ele>32.1</ele>
        <time>2021-05-21T09:07:51Z</time>
      </trkpt>
      <trkpt lat="42.3501000" lon="-8.6101620">
        <ele>32.2</ele>
        <time>2021-05-21T09:07:52Z</time>
      </trkpt>
      <trkpt lat="42.3501020" lon="-8.6101780">
        <ele>32.2</ele>
        <time>2021-05-21T09:07:53Z</time>
      </trkpt>
      <trkpt lat="42.3501120" lon="-8.6101840">
        <ele>32.3</ele>
        <time>2021-05-21T09:07:54Z</time>
      </trkpt>
      <trkpt lat="42.3501220" lon="-8.6102010">
        <ele>32.3</ele>
        <time>2021-05-21T09:07:55Z</time>
      </trkpt>
      <trkpt lat="42.3501230" lon="-8.6102140">
        <ele>32.3</ele>
        <time>2021-05-21T09:07:56Z</time>
      </trkpt>
      <trkpt lat="42.3501270" lon="-8.6102290">
        <ele>32.3</ele>
        <time>2021-05-21T09:07:57Z</time>
      </trkpt>
      <trkpt lat="42.3501330" lon="-8.6102380">
        <ele>32.3</ele>
        <time>2021-05-21T09:07:58Z</time>
      </trkpt>
      <trkpt lat="42.3501080" lon="-8.6102550">
        <ele>32.3</ele>
        <time>2021-05-21T09:07:59Z</time>
      </trkpt>
      <trkpt lat="42.3501040" lon="-8.6102730">
        <ele>32.3</ele>
        <time>2021-05-21T09:08:00Z</time>
      </trkpt>
      <trkpt lat="42.3501040" lon="-8.6102970">
        <ele>32.3</ele>
        <time>2021-05-21T09:08:01Z</time>
      </trkpt>
      <trkpt lat="42.3500980" lon="-8.6103140">
        <ele>32.3</ele>
        <time>2021-05-21T09:08:02Z</time>
      </trkpt>
      <trkpt lat="42.3500900" lon="-8.6103290">
        <ele>32.2</ele>
        <time>2021-05-21T09:08:03Z</time>
      </trkpt>
      <trkpt lat="42.3500910" lon="-8.6103440">
        <ele>32.2</ele>
        <time>2021-05-21T09:08:04Z</time>
      </trkpt>
      <trkpt lat="42.3500920" lon="-8.6103590">
        <ele>32.1</ele>
        <time>2021-05-21T09:08:05Z</time>
      </trkpt>
      <trkpt lat="42.3500920" lon="-8.6103700">
        <ele>32.1</ele>
        <time>2021-05-21T09:08:06Z</time>
      </trkpt>
      <trkpt lat="42.3501020" lon="-8.6104040">
        <ele>32.0</ele>
        <time>2021-05-21T09:08:07Z</time>
      </trkpt>
      <trkpt lat="42.3501060" lon="-8.6104150">
        <ele>32.0</ele>
        <time>2021-05-21T09:08:08Z</time>
      </trkpt>
      <trkpt lat="42.3501090" lon="-8.6104250">
        <ele>31.9</ele>
        <time>2021-05-21T09:08:09Z</time>
      </trkpt>
      <trkpt lat="42.3501100" lon="-8.6104470">
        <ele>31.8</ele>
        <time>2021-05-21T09:08:10Z</time>
      </trkpt>
      <trkpt lat="42.3501060" lon="-8.6104650">
        <ele>31.8</ele>
        <time>2021-05-21T09:08:11Z</time>
      </trkpt>
      <trkpt lat="42.3501050" lon="-8.6104760">
        <ele>31.7</ele>
        <time>2021-05-21T09:08:12Z</time>
      </trkpt>
      <trkpt lat="42.3501060" lon="-8.6104840">
        <ele>31.7</ele>
        <time>2021-05-21T09:08:13Z</time>
      </trkpt>
      <trkpt lat="42.3501020" lon="-8.6105010">
        <ele>31.6</ele>
        <time>2021-05-21T09:08:14Z</time>
      </trkpt>
      <trkpt lat="42.3501080" lon="-8.6105170">
        <ele>31.6</ele>
        <time>2021-05-21T09:08:15Z</time>
      </trkpt>
      <trkpt lat="42.3501040" lon="-8.6105300">
        <ele>31.5</ele>
        <time>2021-05-21T09:08:16Z</time>
      </trkpt>
      <trkpt lat="42.3501050" lon="-8.6105480">
        <ele>31.5</ele>
        <time>2021-05-21T09:08:17Z</time>
      </trkpt>
      <trkpt lat="42.3501010" lon="-8.6105590">
        <ele>31.4</ele>
        <time>2021-05-21T09:08:18Z</time>
      </trkpt>
      <trkpt lat="42.3501010" lon="-8.6105640">
        <ele>31.4</ele>
        <time>2021-05-21T09:08:19Z</time>
      </trkpt>
      <trkpt lat="42.3501000" lon="-8.6105870">
        <ele>31.3</ele>
        <time>2021-05-21T09:08:20Z</time>
      </trkpt>
      <trkpt lat="42.3501020" lon="-8.6106080">
        <ele>31.2</ele>
        <time>2021-05-21T09:08:21Z</time>
      </trkpt>
      <trkpt lat="42.3501020" lon="-8.6106250">
        <ele>31.1</ele>
        <time>2021-05-21T09:08:22Z</time>
      </trkpt>
      <trkpt lat="42.3501060" lon="-8.6106560">
        <ele>31.0</ele>
        <time>2021-05-21T09:08:23Z</time>
      </trkpt>
      <trkpt lat="42.3501090" lon="-8.6106680">
        <ele>31.0</ele>
        <time>2021-05-21T09:08:24Z</time>
      </trkpt>
      <trkpt lat="42.3501120" lon="-8.6106800">
        <ele>30.9</ele>
        <time>2021-05-21T09:08:25Z</time>
      </trkpt>
      <trkpt lat="42.3501130" lon="-8.6106930">
        <ele>30.8</ele>
        <time>2021-05-21T09:08:26Z</time>
      </trkpt>
      <trkpt lat="42.3501150" lon="-8.6107080">
        <ele>30.8</ele>
        <time>2021-05-21T09:08:27Z</time>
      </trkpt>
      <trkpt lat="42.3501200" lon="-8.6107250">
        <ele>30.7</ele>
        <time>2021-05-21T09:08:28Z</time>
      </trkpt>
      <trkpt lat="42.3501190" lon="-8.6107400">
        <ele>30.7</ele>
        <time>2021-05-21T09:08:29Z</time>
      </trkpt>
      <trkpt lat="42.3501160" lon="-8.6107500">
        <ele>30.6</ele>
        <time>2021-05-21T09:08:30Z</time>
      </trkpt>
      <trkpt lat="42.3501140" lon="-8.6107630">
        <ele>30.6</ele>
        <time>2021-05-21T09:08:31Z</time>
      </trkpt>
      <trkpt lat="42.3501180" lon="-8.6107810">
        <ele>30.5</ele>
        <time>2021-05-21T09:08:32Z</time>
      </trkpt>
      <trkpt lat="42.3501230" lon="-8.6107940">
        <ele>30.4</ele>
        <time>2021-05-21T09:08:33Z</time>
      </trkpt>
      <trkpt lat="42.3501220" lon="-8.6108090">
        <ele>30.4</ele>
        <time>2021-05-21T09:08:34Z</time>
      </trkpt>
      <trkpt lat="42.3501300" lon="-8.6108380">
        <ele>30.2</ele>
        <time>2021-05-21T09:08:35Z</time>
      </trkpt>
      <trkpt lat="42.3501340" lon="-8.6108480">
        <ele>30.2</ele>
        <time>2021-05-21T09:08:36Z</time>
      </trkpt>
      <trkpt lat="42.3501390" lon="-8.6108580">
        <ele>30.1</ele>
        <time>2021-05-21T09:08:37Z</time>
      </trkpt>
      <trkpt lat="42.3501450" lon="-8.6108780">
        <ele>30.1</ele>
        <time>2021-05-21T09:08:38Z</time>
      </trkpt>
      <trkpt lat="42.3501500" lon="-8.6108850">
        <ele>30.0</ele>
        <time>2021-05-21T09:08:39Z</time>
      </trkpt>
      <trkpt lat="42.3501560" lon="-8.6108930">
        <ele>30.0</ele>
        <time>2021-05-21T09:08:40Z</time>
      </trkpt>
      <trkpt lat="42.3501610" lon="-8.6109000">
        <ele>29.9</ele>
        <time>2021-05-21T09:08:41Z</time>
      </trkpt>
      <trkpt lat="42.3501670" lon="-8.6109130">
        <ele>29.9</ele>
        <time>2021-05-21T09:08:42Z</time>
      </trkpt>
      <trkpt lat="42.3501670" lon="-8.6109270">
        <ele>29.8</ele>
        <time>2021-05-21T09:08:43Z</time>
      </trkpt>
      <trkpt lat="42.3501790" lon="-8.6109380">
        <ele>29.7</ele>
        <time>2021-05-21T09:08:44Z</time>
      </trkpt>
      <trkpt lat="42.3501830" lon="-8.6109480">
        <ele>29.7</ele>
        <time>2021-05-21T09:08:45Z</time>
      </trkpt>
      <trkpt lat="42.3501950" lon="-8.6109580">
        <ele>29.6</ele>
        <time>2021-05-21T09:08:46Z</time>
      </trkpt>
      <trkpt lat="42.3502030" lon="-8.6109730">
        <ele>29.6</ele>
        <time>2021-05-21T09:08:47Z</time>
      </trkpt>
      <trkpt lat="42.3502100" lon="-8.6109900">
        <ele>29.5</ele>
        <time>2021-05-21T09:08:48Z</time>
      </trkpt>
      <trkpt lat="42.3502180" lon="-8.6110020">
        <ele>29.4</ele>
        <time>2021-05-21T09:08:49Z</time>
      </trkpt>
      <trkpt lat="42.3502210" lon="-8.6110070">
        <ele>29.4</ele>
        <time>2021-05-21T09:08:50Z</time>
      </trkpt>
      <trkpt lat="42.3502310" lon="-8.6110260">
        <ele>29.3</ele>
        <time>2021-05-21T09:08:51Z</time>
      </trkpt>
      <trkpt lat="42.3502390" lon="-8.6110350">
        <ele>29.3</ele>
        <time>2021-05-21T09:08:52Z</time>
      </trkpt>
      <trkpt lat="42.3502470" lon="-8.6110450">
        <ele>29.2</ele>
        <time>2021-05-21T09:08:53Z</time>
      </trkpt>
      <trkpt lat="42.3502660" lon="-8.6110630">
        <ele>29.1</ele>
        <time>2021-05-21T09:08:54Z</time>
      </trkpt>
      <trkpt lat="42.3502730" lon="-8.6110700">
        <ele>29.1</ele>
        <time>2021-05-21T09:08:55Z</time>
      </trkpt>
      <trkpt lat="42.3502810" lon="-8.6110760">
        <ele>29.1</ele>
        <time>2021-05-21T09:08:56Z</time>
      </trkpt>
      <trkpt lat="42.3502910" lon="-8.6110960">
        <ele>29.0</ele>
        <time>2021-05-21T09:08:57Z</time>
      </trkpt>
      <trkpt lat="42.3502950" lon="-8.6111070">
        <ele>28.9</ele>
        <time>2021-05-21T09:08:58Z</time>
      </trkpt>
      <trkpt lat="42.3502950" lon="-8.6111170">
        <ele>28.9</ele>
        <time>2021-05-21T09:08:59Z</time>
      </trkpt>
      <trkpt lat="42.3502950" lon="-8.6111030">
        <ele>28.8</ele>
        <time>2021-05-21T09:09:00Z</time>
      </trkpt>
      <trkpt lat="42.3502990" lon="-8.6110990">
        <ele>28.8</ele>
        <time>2021-05-21T09:09:01Z</time>
      </trkpt>
      <trkpt lat="42.3503050" lon="-8.6110940">
        <ele>28.8</ele>
        <time>2021-05-21T09:09:02Z</time>
      </trkpt>
      <trkpt lat="42.3503150" lon="-8.6110920">
        <ele>28.7</ele>
        <time>2021-05-21T09:09:03Z</time>
      </trkpt>
      <trkpt lat="42.3503260" lon="-8.6111030">
        <ele>28.7</ele>
        <time>2021-05-21T09:09:04Z</time>
      </trkpt>
      <trkpt lat="42.3503310" lon="-8.6111060">
        <ele>28.7</ele>
        <time>2021-05-21T09:09:05Z</time>
      </trkpt>
      <trkpt lat="42.3503360" lon="-8.6111180">
        <ele>28.6</ele>
        <time>2021-05-21T09:09:06Z</time>
      </trkpt>
      <trkpt lat="42.3503360" lon="-8.6111150">
        <ele>28.6</ele>
        <time>2021-05-21T09:09:07Z</time>
      </trkpt>
      <trkpt lat="42.3503380" lon="-8.6111170">
        <ele>28.6</ele>
        <time>2021-05-21T09:09:08Z</time>
      </trkpt>
      <trkpt lat="42.3503390" lon="-8.6111190">
        <ele>28.6</ele>
        <time>2021-05-21T09:09:09Z</time>
      </trkpt>
      <trkpt lat="42.3503390" lon="-8.6111190">
        <ele>28.6</ele>
        <time>2021-05-21T09:09:10Z</time>
      </trkpt>
      <trkpt lat="42.3503390" lon="-8.6111200">
        <ele>28.6</ele>
        <time>2021-05-21T09:09:11Z</time>
      </trkpt>
      <trkpt lat="42.3503350" lon="-8.6111190">
        <ele>28.6</ele>
        <time>2021-05-21T09:09:12Z</time>
      </trkpt>
      <trkpt lat="42.3503400" lon="-8.6111190">
        <ele>28.5</ele>
        <time>2021-05-21T09:09:13Z</time>
      </trkpt>
      <trkpt lat="42.3503420" lon="-8.6111190">
        <ele>28.5</ele>
        <time>2021-05-21T09:09:14Z</time>
      </trkpt>
      <trkpt lat="42.3503450" lon="-8.6111180">
        <ele>28.5</ele>
        <time>2021-05-21T09:09:15Z</time>
      </trkpt>
      <trkpt lat="42.3503470" lon="-8.6111210">
        <ele>28.5</ele>
        <time>2021-05-21T09:09:16Z</time>
      </trkpt>
      <trkpt lat="42.3503460" lon="-8.6111210">
        <ele>28.5</ele>
        <time>2021-05-21T09:09:17Z</time>
      </trkpt>
      <trkpt lat="42.3503490" lon="-8.6111240">
        <ele>28.5</ele>
        <time>2021-05-21T09:09:18Z</time>
      </trkpt>
      <trkpt lat="42.3503570" lon="-8.6111240">
        <ele>28.5</ele>
        <time>2021-05-21T09:09:19Z</time>
      </trkpt>
      <trkpt lat="42.3503600" lon="-8.6111260">
        <ele>28.4</ele>
        <time>2021-05-21T09:09:20Z</time>
      </trkpt>
      <trkpt lat="42.3503630" lon="-8.6111290">
        <ele>28.4</ele>
        <time>2021-05-21T09:09:21Z</time>
      </trkpt>
      <trkpt lat="42.3503660" lon="-8.6111320">
        <ele>28.4</ele>
        <time>2021-05-21T09:09:22Z</time>
      </trkpt>
      <trkpt lat="42.3503690" lon="-8.6111340">
        <ele>28.4</ele>
        <time>2021-05-21T09:09:23Z</time>
      </trkpt>
      <trkpt lat="42.3503710" lon="-8.6111370">
        <ele>28.4</ele>
        <time>2021-05-21T09:09:24Z</time>
      </trkpt>
      <trkpt lat="42.3503740" lon="-8.6111400">
        <ele>28.4</ele>
        <time>2021-05-21T09:09:25Z</time>
      </trkpt>
      <trkpt lat="42.3503770" lon="-8.6111430">
        <ele>28.4</ele>
        <time>2021-05-21T09:09:26Z</time>
      </trkpt>
      <trkpt lat="42.3503800" lon="-8.6111450">
        <ele>28.3</ele>
        <time>2021-05-21T09:09:27Z</time>
      </trkpt>
      <trkpt lat="42.3503830" lon="-8.6111480">
        <ele>28.3</ele>
        <time>2021-05-21T09:09:28Z</time>
      </trkpt>
      <trkpt lat="42.3503960" lon="-8.6111630">
        <ele>28.3</ele>
        <time>2021-05-21T09:09:29Z</time>
      </trkpt>
      <trkpt lat="42.3504020" lon="-8.6111680">
        <ele>28.2</ele>
        <time>2021-05-21T09:09:30Z</time>
      </trkpt>
      <trkpt lat="42.3504090" lon="-8.6111740">
        <ele>28.2</ele>
        <time>2021-05-21T09:09:31Z</time>
      </trkpt>
      <trkpt lat="42.3504150" lon="-8.6111790">
        <ele>28.2</ele>
        <time>2021-05-21T09:09:32Z</time>
      </trkpt>
      <trkpt lat="42.3504240" lon="-8.6111840">
        <ele>28.1</ele>
        <time>2021-05-21T09:09:33Z</time>
      </trkpt>
      <trkpt lat="42.3504310" lon="-8.6111930">
        <ele>28.1</ele>
        <time>2021-05-21T09:09:34Z</time>
      </trkpt>
      <trkpt lat="42.3504370" lon="-8.6112020">
        <ele>28.0</ele>
        <time>2021-05-21T09:09:35Z</time>
      </trkpt>
      <trkpt lat="42.3504440" lon="-8.6112110">
        <ele>28.0</ele>
        <time>2021-05-21T09:09:36Z</time>
      </trkpt>
      <trkpt lat="42.3504450" lon="-8.6112220">
        <ele>28.0</ele>
        <time>2021-05-21T09:09:37Z</time>
      </trkpt>
      <trkpt lat="42.3504540" lon="-8.6112250">
        <ele>27.9</ele>
        <time>2021-05-21T09:09:38Z</time>
      </trkpt>
      <trkpt lat="42.3504700" lon="-8.6112370">
        <ele>27.8</ele>
        <time>2021-05-21T09:09:39Z</time>
      </trkpt>
      <trkpt lat="42.3504710" lon="-8.6112360">
        <ele>27.8</ele>
        <time>2021-05-21T09:09:40Z</time>
      </trkpt>
      <trkpt lat="42.3504860" lon="-8.6112410">
        <ele>27.8</ele>
        <time>2021-05-21T09:09:41Z</time>
      </trkpt>
      <trkpt lat="42.3504900" lon="-8.6112450">
        <ele>27.8</ele>
        <time>2021-05-21T09:09:42Z</time>
      </trkpt>
      <trkpt lat="42.3504980" lon="-8.6112560">
        <ele>27.7</ele>
        <time>2021-05-21T09:09:43Z</time>
      </trkpt>
      <trkpt lat="42.3505060" lon="-8.6112600">
        <ele>27.7</ele>
        <time>2021-05-21T09:09:44Z</time>
      </trkpt>
      <trkpt lat="42.3505230" lon="-8.6112730">
        <ele>27.6</ele>
        <time>2021-05-21T09:09:45Z</time>
      </trkpt>
      <trkpt lat="42.3505320" lon="-8.6112680">
        <ele>27.6</ele>
        <time>2021-05-21T09:09:46Z</time>
      </trkpt>
      <trkpt lat="42.3505420" lon="-8.6112780">
        <ele>27.5</ele>
        <time>2021-05-21T09:09:47Z</time>
      </trkpt>
      <trkpt lat="42.3505560" lon="-8.6112860">
        <ele>27.5</ele>
        <time>2021-05-21T09:09:48Z</time>
      </trkpt>
      <trkpt lat="42.3505640" lon="-8.6112920">
        <ele>27.4</ele>
        <time>2021-05-21T09:09:49Z</time>
      </trkpt>
      <trkpt lat="42.3505750" lon="-8.6112870">
        <ele>27.4</ele>
        <time>2021-05-21T09:09:50Z</time>
      </trkpt>
      <trkpt lat="42.3505830" lon="-8.6112910">
        <ele>27.4</ele>
        <time>2021-05-21T09:09:51Z</time>
      </trkpt>
      <trkpt lat="42.3505980" lon="-8.6113000">
        <ele>27.3</ele>
        <time>2021-05-21T09:09:52Z</time>
      </trkpt>
      <trkpt lat="42.3506080" lon="-8.6113040">
        <ele>27.3</ele>
        <time>2021-05-21T09:09:53Z</time>
      </trkpt>
      <trkpt lat="42.3506150" lon="-8.6113050">
        <ele>27.2</ele>
        <time>2021-05-21T09:09:54Z</time>
      </trkpt>
      <trkpt lat="42.3506360" lon="-8.6113130">
        <ele>27.2</ele>
        <time>2021-05-21T09:09:55Z</time>
      </trkpt>
      <trkpt lat="42.3506490" lon="-8.6113170">
        <ele>27.1</ele>
        <time>2021-05-21T09:09:56Z</time>
      </trkpt>
      <trkpt lat="42.3506700" lon="-8.6113220">
        <ele>27.1</ele>
        <time>2021-05-21T09:09:57Z</time>
      </trkpt>
      <trkpt lat="42.3506750" lon="-8.6113270">
        <ele>27.0</ele>
        <time>2021-05-21T09:09:58Z</time>
      </trkpt>
      <trkpt lat="42.3506800" lon="-8.6113320">
        <ele>27.0</ele>
        <time>2021-05-21T09:09:59Z</time>
      </trkpt>
      <trkpt lat="42.3506850" lon="-8.6113370">
        <ele>27.0</ele>
        <time>2021-05-21T09:10:00Z</time>
      </trkpt>
      <trkpt lat="42.3506900" lon="-8.6113420">
        <ele>27.0</ele>
        <time>2021-05-21T09:10:01Z</time>
      </trkpt>
      <trkpt lat="42.3507160" lon="-8.6113410">
        <ele>26.9</ele>
        <time>2021-05-21T09:10:02Z</time>
      </trkpt>
      <trkpt lat="42.3507240" lon="-8.6113440">
        <ele>26.9</ele>
        <time>2021-05-21T09:10:03Z</time>
      </trkpt>
      <trkpt lat="42.3507320" lon="-8.6113480">
        <ele>26.9</ele>
        <time>2021-05-21T09:10:04Z</time>
      </trkpt>
      <trkpt lat="42.3507560" lon="-8.6113560">
        <ele>26.8</ele>
        <time>2021-05-21T09:10:05Z</time>
      </trkpt>
      <trkpt lat="42.3507660" lon="-8.6113580">
        <ele>26.8</ele>
        <time>2021-05-21T09:10:06Z</time>
      </trkpt>
      <trkpt lat="42.3507750" lon="-8.6113610">
        <ele>26.8</ele>
        <time>2021-05-21T09:10:07Z</time>
      </trkpt>
      <trkpt lat="42.3507840" lon="-8.6113650">
        <ele>26.7</ele>
        <time>2021-05-21T09:10:08Z</time>
      </trkpt>
      <trkpt lat="42.3507950" lon="-8.6113660">
        <ele>26.7</ele>
        <time>2021-05-21T09:10:09Z</time>
      </trkpt>
      <trkpt lat="42.3508030" lon="-8.6113700">
        <ele>26.7</ele>
        <time>2021-05-21T09:10:10Z</time>
      </trkpt>
      <trkpt lat="42.3508220" lon="-8.6113720">
        <ele>26.6</ele>
        <time>2021-05-21T09:10:11Z</time>
      </trkpt>
      <trkpt lat="42.3508330" lon="-8.6113770">
        <ele>26.6</ele>
        <time>2021-05-21T09:10:12Z</time>
      </trkpt>
      <trkpt lat="42.3508430" lon="-8.6113800">
        <ele>26.6</ele>
        <time>2021-05-21T09:10:13Z</time>
      </trkpt>
      <trkpt lat="42.3508600" lon="-8.6113830">
        <ele>26.5</ele>
        <time>2021-05-21T09:10:14Z</time>
      </trkpt>
      <trkpt lat="42.3508780" lon="-8.6113930">
        <ele>26.4</ele>
        <time>2021-05-21T09:10:15Z</time>
      </trkpt>
      <trkpt lat="42.3508930" lon="-8.6114020">
        <ele>26.4</ele>
        <time>2021-05-21T09:10:16Z</time>
      </trkpt>
      <trkpt lat="42.3509050" lon="-8.6114060">
        <ele>26.3</ele>
        <time>2021-05-21T09:10:17Z</time>
      </trkpt>
      <trkpt lat="42.3509190" lon="-8.6114130">
        <ele>26.3</ele>
        <time>2021-05-21T09:10:18Z</time>
      </trkpt>
      <trkpt lat="42.3509370" lon="-8.6114200">
        <ele>26.2</ele>
        <time>2021-05-21T09:10:19Z</time>
      </trkpt>
      <trkpt lat="42.3509490" lon="-8.6114270">
        <ele>26.1</ele>
        <time>2021-05-21T09:10:20Z</time>
      </trkpt>
      <trkpt lat="42.3509630" lon="-8.6114400">
        <ele>26.0</ele>
        <time>2021-05-21T09:10:21Z</time>
      </trkpt>
      <trkpt lat="42.3509700" lon="-8.6114520">
        <ele>26.0</ele>
        <time>2021-05-21T09:10:22Z</time>
      </trkpt>
      <trkpt lat="42.3509860" lon="-8.6114540">
        <ele>25.9</ele>
        <time>2021-05-21T09:10:23Z</time>
      </trkpt>
      <trkpt lat="42.3510040" lon="-8.6114640">
        <ele>25.7</ele>
        <time>2021-05-21T09:10:24Z</time>
      </trkpt>
      <trkpt lat="42.3510180" lon="-8.6114690">
        <ele>25.7</ele>
        <time>2021-05-21T09:10:25Z</time>
      </trkpt>
      <trkpt lat="42.3510320" lon="-8.6114730">
        <ele>25.6</ele>
        <time>2021-05-21T09:10:26Z</time>
      </trkpt>
      <trkpt lat="42.3510520" lon="-8.6114740">
        <ele>25.4</ele>
        <time>2021-05-21T09:10:27Z</time>
      </trkpt>
      <trkpt lat="42.3510610" lon="-8.6114770">
        <ele>25.3</ele>
        <time>2021-05-21T09:10:28Z</time>
      </trkpt>
      <trkpt lat="42.3510690" lon="-8.6114800">
        <ele>25.3</ele>
        <time>2021-05-21T09:10:29Z</time>
      </trkpt>
      <trkpt lat="42.3510850" lon="-8.6114770">
        <ele>25.1</ele>
        <time>2021-05-21T09:10:30Z</time>
      </trkpt>
      <trkpt lat="42.3510990" lon="-8.6114830">
        <ele>25.0</ele>
        <time>2021-05-21T09:10:31Z</time>
      </trkpt>
      <trkpt lat="42.3511060" lon="-8.6114850">
        <ele>25.0</ele>
        <time>2021-05-21T09:10:32Z</time>
      </trkpt>
      <trkpt lat="42.3511070" lon="-8.6114930">
        <ele>24.9</ele>
        <time>2021-05-21T09:10:33Z</time>
      </trkpt>
      <trkpt lat="42.3511130" lon="-8.6114940">
        <ele>24.9</ele>
        <time>2021-05-21T09:10:34Z</time>
      </trkpt>
      <trkpt lat="42.3511170" lon="-8.6114980">
        <ele>24.8</ele>
        <time>2021-05-21T09:10:35Z</time>
      </trkpt>
      <trkpt lat="42.3511210" lon="-8.6115050">
        <ele>24.7</ele>
        <time>2021-05-21T09:10:36Z</time>
      </trkpt>
      <trkpt lat="42.3511290" lon="-8.6115120">
        <ele>24.7</ele>
        <time>2021-05-21T09:10:37Z</time>
      </trkpt>
      <trkpt lat="42.3511280" lon="-8.6115120">
        <ele>24.6</ele>
        <time>2021-05-21T09:10:38Z</time>
      </trkpt>
      <trkpt lat="42.3511410" lon="-8.6115260">
        <ele>24.5</ele>
        <time>2021-05-21T09:10:39Z</time>
      </trkpt>
      <trkpt lat="42.3511510" lon="-8.6115320">
        <ele>24.4</ele>
        <time>2021-05-21T09:10:40Z</time>
      </trkpt>
      <trkpt lat="42.3511650" lon="-8.6115390">
        <ele>24.2</ele>
        <time>2021-05-21T09:10:41Z</time>
      </trkpt>
      <trkpt lat="42.3511700" lon="-8.6115410">
        <ele>24.2</ele>
        <time>2021-05-21T09:10:42Z</time>
      </trkpt>
      <trkpt lat="42.3511800" lon="-8.6115450">
        <ele>24.0</ele>
        <time>2021-05-21T09:10:43Z</time>
      </trkpt>
      <trkpt lat="42.3511900" lon="-8.6115470">
        <ele>23.9</ele>
        <time>2021-05-21T09:10:44Z</time>
      </trkpt>
      <trkpt lat="42.3511960" lon="-8.6115520">
        <ele>23.9</ele>
        <time>2021-05-21T09:10:45Z</time>
      </trkpt>
      <trkpt lat="42.3512080" lon="-8.6115570">
        <ele>23.7</ele>
        <time>2021-05-21T09:10:46Z</time>
      </trkpt>
      <trkpt lat="42.3512080" lon="-8.6115600">
        <ele>23.7</ele>
        <time>2021-05-21T09:10:47Z</time>
      </trkpt>
      <trkpt lat="42.3512160" lon="-8.6115620">
        <ele>23.6</ele>
        <time>2021-05-21T09:10:48Z</time>
      </trkpt>
      <trkpt lat="42.3512130" lon="-8.6115610">
        <ele>23.5</ele>
        <time>2021-05-21T09:10:49Z</time>
      </trkpt>
      <trkpt lat="42.3512230" lon="-8.6115610">
        <ele>23.4</ele>
        <time>2021-05-21T09:10:50Z</time>
      </trkpt>
      <trkpt lat="42.3512390" lon="-8.6115660">
        <ele>23.2</ele>
        <time>2021-05-21T09:10:51Z</time>
      </trkpt>
      <trkpt lat="42.3512510" lon="-8.6115640">
        <ele>23.1</ele>
        <time>2021-05-21T09:10:52Z</time>
      </trkpt>
      <trkpt lat="42.3512520" lon="-8.6115630">
        <ele>23.0</ele>
        <time>2021-05-21T09:10:53Z</time>
      </trkpt>
      <trkpt lat="42.3512670" lon="-8.6115750">
        <ele>22.8</ele>
        <time>2021-05-21T09:10:54Z</time>
      </trkpt>
      <trkpt lat="42.3512750" lon="-8.6115900">
        <ele>22.6</ele>
        <time>2021-05-21T09:10:55Z</time>
      </trkpt>
      <trkpt lat="42.3512820" lon="-8.6116000">
        <ele>22.5</ele>
        <time>2021-05-21T09:10:56Z</time>
      </trkpt>
      <trkpt lat="42.3512900" lon="-8.6116010">
        <ele>22.4</ele>
        <time>2021-05-21T09:10:57Z</time>
      </trkpt>
      <trkpt lat="42.3512980" lon="-8.6116100">
        <ele>22.2</ele>
        <time>2021-05-21T09:10:58Z</time>
      </trkpt>
      <trkpt lat="42.3513060" lon="-8.6116180">
        <ele>22.1</ele>
        <time>2021-05-21T09:10:59Z</time>
      </trkpt>
      <trkpt lat="42.3513150" lon="-8.6116290">
        <ele>22.0</ele>
        <time>2021-05-21T09:11:00Z</time>
      </trkpt>
      <trkpt lat="42.3513270" lon="-8.6116400">
        <ele>21.8</ele>
        <time>2021-05-21T09:11:01Z</time>
      </trkpt>
      <trkpt lat="42.3513370" lon="-8.6116570">
        <ele>21.6</ele>
        <time>2021-05-21T09:11:02Z</time>
      </trkpt>
      <trkpt lat="42.3513370" lon="-8.6116590">
        <ele>21.6</ele>
        <time>2021-05-21T09:11:03Z</time>
      </trkpt>
      <trkpt lat="42.3513430" lon="-8.6116620">
        <ele>21.5</ele>
        <time>2021-05-21T09:11:04Z</time>
      </trkpt>
      <trkpt lat="42.3513490" lon="-8.6116780">
        <ele>21.3</ele>
        <time>2021-05-21T09:11:05Z</time>
      </trkpt>
      <trkpt lat="42.3513540" lon="-8.6116910">
        <ele>21.2</ele>
        <time>2021-05-21T09:11:06Z</time>
      </trkpt>
      <trkpt lat="42.3513560" lon="-8.6117010">
        <ele>21.1</ele>
        <time>2021-05-21T09:11:07Z</time>
      </trkpt>
      <trkpt lat="42.3513610" lon="-8.6117090">
        <ele>21.0</ele>
        <time>2021-05-21T09:11:08Z</time>
      </trkpt>
      <trkpt lat="42.3513650" lon="-8.6117170">
        <ele>20.9</ele>
        <time>2021-05-21T09:11:09Z</time>
      </trkpt>
      <trkpt lat="42.3513660" lon="-8.6117290">
        <ele>20.8</ele>
        <time>2021-05-21T09:11:10Z</time>
      </trkpt>
      <trkpt lat="42.3513730" lon="-8.6117370">
        <ele>20.6</ele>
        <time>2021-05-21T09:11:11Z</time>
      </trkpt>
      <trkpt lat="42.3513800" lon="-8.6117520">
        <ele>20.4</ele>
        <time>2021-05-21T09:11:12Z</time>
      </trkpt>
      <trkpt lat="42.3513780" lon="-8.6117590">
        <ele>20.4</ele>
        <time>2021-05-21T09:11:13Z</time>
      </trkpt>
      <trkpt lat="42.3513730" lon="-8.6117660">
        <ele>20.3</ele>
        <time>2021-05-21T09:11:14Z</time>
      </trkpt>
      <trkpt lat="42.3513830" lon="-8.6117810">
        <ele>20.0</ele>
        <time>2021-05-21T09:11:15Z</time>
      </trkpt>
      <trkpt lat="42.3513850" lon="-8.6117960">
        <ele>19.9</ele>
        <time>2021-05-21T09:11:16Z</time>
      </trkpt>
      <trkpt lat="42.3513880" lon="-8.6118050">
        <ele>19.8</ele>
        <time>2021-05-21T09:11:17Z</time>
      </trkpt>
      <trkpt lat="42.3513850" lon="-8.6118120">
        <ele>19.7</ele>
        <time>2021-05-21T09:11:18Z</time>
      </trkpt>
      <trkpt lat="42.3513830" lon="-8.6118240">
        <ele>19.5</ele>
        <time>2021-05-21T09:11:19Z</time>
      </trkpt>
      <trkpt lat="42.3513880" lon="-8.6118330">
        <ele>19.4</ele>
        <time>2021-05-21T09:11:20Z</time>
      </trkpt>
      <trkpt lat="42.3513870" lon="-8.6118400">
        <ele>19.3</ele>
        <time>2021-05-21T09:11:21Z</time>
      </trkpt>
      <trkpt lat="42.3513890" lon="-8.6118460">
        <ele>19.2</ele>
        <time>2021-05-21T09:11:22Z</time>
      </trkpt>
      <trkpt lat="42.3513910" lon="-8.6118550">
        <ele>19.1</ele>
        <time>2021-05-21T09:11:23Z</time>
      </trkpt>
      <trkpt lat="42.3513920" lon="-8.6118590">
        <ele>19.0</ele>
        <time>2021-05-21T09:11:24Z</time>
      </trkpt>
      <trkpt lat="42.3513900" lon="-8.6118670">
        <ele>18.9</ele>
        <time>2021-05-21T09:11:25Z</time>
      </trkpt>
      <trkpt lat="42.3513900" lon="-8.6118790">
        <ele>18.8</ele>
        <time>2021-05-21T09:11:26Z</time>
      </trkpt>
      <trkpt lat="42.3513950" lon="-8.6118930">
        <ele>18.6</ele>
        <time>2021-05-21T09:11:27Z</time>
      </trkpt>
      <trkpt lat="42.3513940" lon="-8.6118990">
        <ele>18.5</ele>
        <time>2021-05-21T09:11:28Z</time>
      </trkpt>
      <trkpt lat="42.3513920" lon="-8.6119130">
        <ele>18.3</ele>
        <time>2021-05-21T09:11:29Z</time>
      </trkpt>
      <trkpt lat="42.3513960" lon="-8.6119230">
        <ele>18.2</ele>
        <time>2021-05-21T09:11:30Z</time>
      </trkpt>
      <trkpt lat="42.3513980" lon="-8.6119390">
        <ele>17.9</ele>
        <time>2021-05-21T09:11:31Z</time>
      </trkpt>
      <trkpt lat="42.3513920" lon="-8.6119340">
        <ele>17.8</ele>
        <time>2021-05-21T09:11:32Z</time>
      </trkpt>
      <trkpt lat="42.3514000" lon="-8.6119490">
        <ele>17.6</ele>
        <time>2021-05-21T09:11:33Z</time>
      </trkpt>
      <trkpt lat="42.3514010" lon="-8.6119560">
        <ele>17.5</ele>
        <time>2021-05-21T09:11:34Z</time>
      </trkpt>
      <trkpt lat="42.3514090" lon="-8.6119720">
        <ele>17.2</ele>
        <time>2021-05-21T09:11:35Z</time>
      </trkpt>
      <trkpt lat="42.3514120" lon="-8.6119810">
        <ele>17.1</ele>
        <time>2021-05-21T09:11:36Z</time>
      </trkpt>
      <trkpt lat="42.3514180" lon="-8.6119890">
        <ele>16.9</ele>
        <time>2021-05-21T09:11:37Z</time>
      </trkpt>
      <trkpt lat="42.3514220" lon="-8.6119970">
        <ele>16.8</ele>
        <time>2021-05-21T09:11:38Z</time>
      </trkpt>
      <trkpt lat="42.3514200" lon="-8.6120140">
        <ele>16.5</ele>
        <time>2021-05-21T09:11:39Z</time>
      </trkpt>
      <trkpt lat="42.3514210" lon="-8.6120280">
        <ele>16.3</ele>
        <time>2021-05-21T09:11:40Z</time>
      </trkpt>
      <trkpt lat="42.3514220" lon="-8.6120360">
        <ele>16.2</ele>
        <time>2021-05-21T09:11:41Z</time>
      </trkpt>
      <trkpt lat="42.3514290" lon="-8.6120400">
        <ele>16.0</ele>
        <time>2021-05-21T09:11:42Z</time>
      </trkpt>
      <trkpt lat="42.3514280" lon="-8.6120410">
        <ele>16.0</ele>
        <time>2021-05-21T09:11:43Z</time>
      </trkpt>
      <trkpt lat="42.3514380" lon="-8.6120560">
        <ele>15.7</ele>
        <time>2021-05-21T09:11:44Z</time>
      </trkpt>
      <trkpt lat="42.3514470" lon="-8.6120570">
        <ele>15.6</ele>
        <time>2021-05-21T09:11:45Z</time>
      </trkpt>
      <trkpt lat="42.3514560" lon="-8.6120610">
        <ele>15.4</ele>
        <time>2021-05-21T09:11:46Z</time>
      </trkpt>
      <trkpt lat="42.3514580" lon="-8.6120690">
        <ele>15.2</ele>
        <time>2021-05-21T09:11:47Z</time>
      </trkpt>
      <trkpt lat="42.3514610" lon="-8.6120820">
        <ele>15.1</ele>
        <time>2021-05-21T09:11:48Z</time>
      </trkpt>
      <trkpt lat="42.3514690" lon="-8.6120850">
        <ele>14.9</ele>
        <time>2021-05-21T09:11:49Z</time>
      </trkpt>
      <trkpt lat="42.3514790" lon="-8.6120930">
        <ele>14.7</ele>
        <time>2021-05-21T09:11:50Z</time>
      </trkpt>
      <trkpt lat="42.3514870" lon="-8.6120980">
        <ele>14.5</ele>
        <time>2021-05-21T09:11:51Z</time>
      </trkpt>
      <trkpt lat="42.3514960" lon="-8.6121040">
        <ele>14.3</ele>
        <time>2021-05-21T09:11:52Z</time>
      </trkpt>
      <trkpt lat="42.3515040" lon="-8.6121100">
        <ele>14.1</ele>
        <time>2021-05-21T09:11:53Z</time>
      </trkpt>
      <trkpt lat="42.3515210" lon="-8.6121080">
        <ele>13.8</ele>
        <time>2021-05-21T09:11:54Z</time>
      </trkpt>
      <trkpt lat="42.3515280" lon="-8.6121060">
        <ele>13.7</ele>
        <time>2021-05-21T09:11:55Z</time>
      </trkpt>
      <trkpt lat="42.3515350" lon="-8.6121050">
        <ele>13.5</ele>
        <time>2021-05-21T09:11:56Z</time>
      </trkpt>
      <trkpt lat="42.3515420" lon="-8.6121030">
        <ele>13.4</ele>
        <time>2021-05-21T09:11:57Z</time>
      </trkpt>
      <trkpt lat="42.3515490" lon="-8.6121010">
        <ele>13.3</ele>
        <time>2021-05-21T09:11:58Z</time>
      </trkpt>
      <trkpt lat="42.3515620" lon="-8.6120990">
        <ele>13.0</ele>
        <time>2021-05-21T09:11:59Z</time>
      </trkpt>
      <trkpt lat="42.3515640" lon="-8.6121020">
        <ele>13.0</ele>
        <time>2021-05-21T09:12:00Z</time>
      </trkpt>
      <trkpt lat="42.3515630" lon="-8.6121050">
        <ele>13.0</ele>
        <time>2021-05-21T09:12:01Z</time>
      </trkpt>
      <trkpt lat="42.3515850" lon="-8.6121090">
        <ele>12.6</ele>
        <time>2021-05-21T09:12:02Z</time>
      </trkpt>
      <trkpt lat="42.3516010" lon="-8.6121130">
        <ele>12.4</ele>
        <time>2021-05-21T09:12:03Z</time>
      </trkpt>
      <trkpt lat="42.3516150" lon="-8.6121170">
        <ele>12.1</ele>
        <time>2021-05-21T09:12:04Z</time>
      </trkpt>
      <trkpt lat="42.3516350" lon="-8.6121110">
        <ele>11.9</ele>
        <time>2021-05-21T09:12:05Z</time>
      </trkpt>
      <trkpt lat="42.3516490" lon="-8.6121170">
        <ele>11.7</ele>
        <time>2021-05-21T09:12:06Z</time>
      </trkpt>
      <trkpt lat="42.3516660" lon="-8.6121190">
        <ele>11.5</ele>
        <time>2021-05-21T09:12:07Z</time>
      </trkpt>
      <trkpt lat="42.3516810" lon="-8.6121150">
        <ele>11.3</ele>
        <time>2021-05-21T09:12:08Z</time>
      </trkpt>
      <trkpt lat="42.3517050" lon="-8.6121090">
        <ele>11.1</ele>
        <time>2021-05-21T09:12:09Z</time>
      </trkpt>
      <trkpt lat="42.3517150" lon="-8.6121040">
        <ele>11.0</ele>
        <time>2021-05-21T09:12:10Z</time>
      </trkpt>
      <trkpt lat="42.3517250" lon="-8.6121000">
        <ele>10.9</ele>
        <time>2021-05-21T09:12:11Z</time>
      </trkpt>
      <trkpt lat="42.3517270" lon="-8.6120990">
        <ele>10.8</ele>
        <time>2021-05-21T09:12:12Z</time>
      </trkpt>
      <trkpt lat="42.3517360" lon="-8.6121020">
        <ele>10.8</ele>
        <time>2021-05-21T09:12:13Z</time>
      </trkpt>
      <trkpt lat="42.3517380" lon="-8.6121060">
        <ele>10.7</ele>
        <time>2021-05-21T09:12:14Z</time>
      </trkpt>
      <trkpt lat="42.3517570" lon="-8.6121040">
        <ele>10.6</ele>
        <time>2021-05-21T09:12:15Z</time>
      </trkpt>
      <trkpt lat="42.3517660" lon="-8.6120920">
        <ele>10.5</ele>
        <time>2021-05-21T09:12:16Z</time>
      </trkpt>
      <trkpt lat="42.3517730" lon="-8.6120910">
        <ele>10.4</ele>
        <time>2021-05-21T09:12:17Z</time>
      </trkpt>
      <trkpt lat="42.3517850" lon="-8.6120800">
        <ele>10.3</ele>
        <time>2021-05-21T09:12:18Z</time>
      </trkpt>
      <trkpt lat="42.3517960" lon="-8.6120630">
        <ele>10.2</ele>
        <time>2021-05-21T09:12:19Z</time>
      </trkpt>
      <trkpt lat="42.3518070" lon="-8.6120580">
        <ele>10.1</ele>
        <time>2021-05-21T09:12:20Z</time>
      </trkpt>
      <trkpt lat="42.3518170" lon="-8.6120530">
        <ele>10.1</ele>
        <time>2021-05-21T09:12:21Z</time>
      </trkpt>
      <trkpt lat="42.3518290" lon="-8.6120550">
        <ele>10.0</ele>
        <time>2021-05-21T09:12:22Z</time>
      </trkpt>
      <trkpt lat="42.3518360" lon="-8.6120530">
        <ele>10.0</ele>
        <time>2021-05-21T09:12:23Z</time>
      </trkpt>
      <trkpt lat="42.3518440" lon="-8.6120400">
        <ele>9.9</ele>
        <time>2021-05-21T09:12:24Z</time>
      </trkpt>
      <trkpt lat="42.3518610" lon="-8.6120310">
        <ele>9.8</ele>
        <time>2021-05-21T09:12:25Z</time>
      </trkpt>
      <trkpt lat="42.3518730" lon="-8.6120260">
        <ele>9.7</ele>
        <time>2021-05-21T09:12:26Z</time>
      </trkpt>
      <trkpt lat="42.3518690" lon="-8.6120200">
        <ele>9.7</ele>
        <time>2021-05-21T09:12:27Z</time>
      </trkpt>
      <trkpt lat="42.3518790" lon="-8.6120140">
        <ele>9.6</ele>
        <time>2021-05-21T09:12:28Z</time>
      </trkpt>
      <trkpt lat="42.3518870" lon="-8.6120130">
        <ele>9.6</ele>
        <time>2021-05-21T09:12:29Z</time>
      </trkpt>
      <trkpt lat="42.3518880" lon="-8.6120100">
        <ele>9.6</ele>
        <time>2021-05-21T09:12:30Z</time>
      </trkpt>
      <trkpt lat="42.3518930" lon="-8.6120050">
        <ele>9.6</ele>
        <time>2021-05-21T09:12:31Z</time>
      </trkpt>
      <trkpt lat="42.3519030" lon="-8.6120020">
        <ele>9.5</ele>
        <time>2021-05-21T09:12:32Z</time>
      </trkpt>
      <trkpt lat="42.3519300" lon="-8.6119910">
        <ele>9.4</ele>
        <time>2021-05-21T09:12:33Z</time>
      </trkpt>
      <trkpt lat="42.3519430" lon="-8.6119860">
        <ele>9.3</ele>
        <time>2021-05-21T09:12:34Z</time>
      </trkpt>
      <trkpt lat="42.3519500" lon="-8.6119780">
        <ele>9.3</ele>
        <time>2021-05-21T09:12:35Z</time>
      </trkpt>
      <trkpt lat="42.3519590" lon="-8.6119730">
        <ele>9.2</ele>
        <time>2021-05-21T09:12:36Z</time>
      </trkpt>
      <trkpt lat="42.3519710" lon="-8.6119620">
        <ele>9.2</ele>
        <time>2021-05-21T09:12:37Z</time>
      </trkpt>
      <trkpt lat="42.3519940" lon="-8.6119590">
        <ele>9.1</ele>
        <time>2021-05-21T09:12:38Z</time>
      </trkpt>
      <trkpt lat="42.3520060" lon="-8.6119600">
        <ele>9.1</ele>
        <time>2021-05-21T09:12:39Z</time>
      </trkpt>
      <trkpt lat="42.3520080" lon="-8.6119570">
        <ele>9.1</ele>
        <time>2021-05-21T09:12:40Z</time>
      </trkpt>
      <trkpt lat="42.3520170" lon="-8.6119530">
        <ele>9.0</ele>
        <time>2021-05-21T09:12:41Z</time>
      </trkpt>
      <trkpt lat="42.3520200" lon="-8.6119490">
        <ele>9.0</ele>
        <time>2021-05-21T09:12:42Z</time>
      </trkpt>
      <trkpt lat="42.3520370" lon="-8.6119420">
        <ele>8.9</ele>
        <time>2021-05-21T09:12:43Z</time>
      </trkpt>
      <trkpt lat="42.3520510" lon="-8.6119330">
        <ele>8.9</ele>
        <time>2021-05-21T09:12:44Z</time>
      </trkpt>
      <trkpt lat="42.3520630" lon="-8.6119240">
        <ele>8.9</ele>
        <time>2021-05-21T09:12:45Z</time>
      </trkpt>
      <trkpt lat="42.3520660" lon="-8.6119180">
        <ele>8.8</ele>
        <time>2021-05-21T09:12:46Z</time>
      </trkpt>
      <trkpt lat="42.3520800" lon="-8.6119100">
        <ele>8.8</ele>
        <time>2021-05-21T09:12:47Z</time>
      </trkpt>
      <trkpt lat="42.3520930" lon="-8.6119000">
        <ele>8.8</ele>
        <time>2021-05-21T09:12:48Z</time>
      </trkpt>
      <trkpt lat="42.3521200" lon="-8.6118900">
        <ele>8.7</ele>
        <time>2021-05-21T09:12:49Z</time>
      </trkpt>
      <trkpt lat="42.3521270" lon="-8.6118880">
        <ele>8.7</ele>
        <time>2021-05-21T09:12:50Z</time>
      </trkpt>
      <trkpt lat="42.3521350" lon="-8.6118860">
        <ele>8.7</ele>
        <time>2021-05-21T09:12:51Z</time>
      </trkpt>
      <trkpt lat="42.3521530" lon="-8.6118730">
        <ele>8.6</ele>
        <time>2021-05-21T09:12:52Z</time>
      </trkpt>
      <trkpt lat="42.3521630" lon="-8.6118740">
        <ele>8.6</ele>
        <time>2021-05-21T09:12:53Z</time>
      </trkpt>
      <trkpt lat="42.3521830" lon="-8.6118460">
        <ele>8.5</ele>
        <time>2021-05-21T09:12:54Z</time>
      </trkpt>
      <trkpt lat="42.3521880" lon="-8.6118410">
        <ele>8.5</ele>
        <time>2021-05-21T09:12:55Z</time>
      </trkpt>
      <trkpt lat="42.3521930" lon="-8.6118350">
        <ele>8.5</ele>
        <time>2021-05-21T09:12:56Z</time>
      </trkpt>
      <trkpt lat="42.3521970" lon="-8.6118250">
        <ele>8.5</ele>
        <time>2021-05-21T09:12:57Z</time>
      </trkpt>
      <trkpt lat="42.3522130" lon="-8.6118170">
        <ele>8.5</ele>
        <time>2021-05-21T09:12:58Z</time>
      </trkpt>
      <trkpt lat="42.3522210" lon="-8.6118120">
        <ele>8.5</ele>
        <time>2021-05-21T09:12:59Z</time>
      </trkpt>
      <trkpt lat="42.3522330" lon="-8.6118010">
        <ele>8.5</ele>
        <time>2021-05-21T09:13:00Z</time>
      </trkpt>
      <trkpt lat="42.3522420" lon="-8.6117920">
        <ele>8.5</ele>
        <time>2021-05-21T09:13:01Z</time>
      </trkpt>
      <trkpt lat="42.3522520" lon="-8.6117840">
        <ele>8.5</ele>
        <time>2021-05-21T09:13:02Z</time>
      </trkpt>
      <trkpt lat="42.3522580" lon="-8.6117750">
        <ele>8.4</ele>
        <time>2021-05-21T09:13:03Z</time>
      </trkpt>
      <trkpt lat="42.3522620" lon="-8.6117630">
        <ele>8.4</ele>
        <time>2021-05-21T09:13:04Z</time>
      </trkpt>
      <trkpt lat="42.3522760" lon="-8.6117610">
        <ele>8.4</ele>
        <time>2021-05-21T09:13:05Z</time>
      </trkpt>
      <trkpt lat="42.3522820" lon="-8.6117440">
        <ele>8.4</ele>
        <time>2021-05-21T09:13:06Z</time>
      </trkpt>
      <trkpt lat="42.3522890" lon="-8.6117370">
        <ele>8.4</ele>
        <time>2021-05-21T09:13:07Z</time>
      </trkpt>
      <trkpt lat="42.3522970" lon="-8.6117350">
        <ele>8.4</ele>
        <time>2021-05-21T09:13:08Z</time>
      </trkpt>
      <trkpt lat="42.3523000" lon="-8.6117410">
        <ele>8.4</ele>
        <time>2021-05-21T09:13:09Z</time>
      </trkpt>
      <trkpt lat="42.3523100" lon="-8.6117400">
        <ele>8.4</ele>
        <time>2021-05-21T09:13:10Z</time>
      </trkpt>
      <trkpt lat="42.3523100" lon="-8.6117490">
        <ele>8.4</ele>
        <time>2021-05-21T09:13:11Z</time>
      </trkpt>
      <trkpt lat="42.3523170" lon="-8.6117480">
        <ele>8.4</ele>
        <time>2021-05-21T09:13:12Z</time>
      </trkpt>
      <trkpt lat="42.3523280" lon="-8.6117480">
        <ele>8.4</ele>
        <time>2021-05-21T09:13:13Z</time>
      </trkpt>
      <trkpt lat="42.3523340" lon="-8.6117460">
        <ele>8.3</ele>
        <time>2021-05-21T09:13:14Z</time>
      </trkpt>
      <trkpt lat="42.3523360" lon="-8.6117470">
        <ele>8.3</ele>
        <time>2021-05-21T09:13:15Z</time>
      </trkpt>
      <trkpt lat="42.3523420" lon="-8.6117520">
        <ele>8.3</ele>
        <time>2021-05-21T09:13:16Z</time>
      </trkpt>
      <trkpt lat="42.3523360" lon="-8.6117450">
        <ele>8.3</ele>
        <time>2021-05-21T09:13:17Z</time>
      </trkpt>
      <trkpt lat="42.3523300" lon="-8.6117400">
        <ele>8.3</ele>
        <time>2021-05-21T09:13:18Z</time>
      </trkpt>
      <trkpt lat="42.3523310" lon="-8.6117300">
        <ele>8.3</ele>
        <time>2021-05-21T09:13:19Z</time>
      </trkpt>
      <trkpt lat="42.3523310" lon="-8.6117300">
        <ele>8.3</ele>
        <time>2021-05-21T09:13:20Z</time>
      </trkpt>
      <trkpt lat="42.3523280" lon="-8.6117220">
        <ele>8.3</ele>
        <time>2021-05-21T09:13:21Z</time>
      </trkpt>
      <trkpt lat="42.3523230" lon="-8.6117160">
        <ele>8.3</ele>
        <time>2021-05-21T09:13:22Z</time>
      </trkpt>
      <trkpt lat="42.3523220" lon="-8.6117200">
        <ele>8.3</ele>
        <time>2021-05-21T09:13:23Z</time>
      </trkpt>
      <trkpt lat="42.3523300" lon="-8.6117250">
        <ele>8.3</ele>
        <time>2021-05-21T09:13:24Z</time>
      </trkpt>
      <trkpt lat="42.3523330" lon="-8.6117210">
        <ele>8.3</ele>
        <time>2021-05-21T09:13:25Z</time>
      </trkpt>
      <trkpt lat="42.3523300" lon="-8.6117140">
        <ele>8.3</ele>
        <time>2021-05-21T09:13:26Z</time>
      </trkpt>
      <trkpt lat="42.3523220" lon="-8.6117130">
        <ele>8.3</ele>
        <time>2021-05-21T09:13:27Z</time>
      </trkpt>
      <trkpt lat="42.3523220" lon="-8.6117070">
        <ele>8.3</ele>
        <time>2021-05-21T09:13:28Z</time>
      </trkpt>
      <trkpt lat="42.3523180" lon="-8.6117050">
        <ele>8.3</ele>
        <time>2021-05-21T09:13:29Z</time>
      </trkpt>
      <trkpt lat="42.3523190" lon="-8.6117040">
        <ele>8.2</ele>
        <time>2021-05-21T09:13:30Z</time>
      </trkpt>
      <trkpt lat="42.3523240" lon="-8.6117020">
        <ele>8.2</ele>
        <time>2021-05-21T09:13:31Z</time>
      </trkpt>
      <trkpt lat="42.3523180" lon="-8.6116980">
        <ele>8.2</ele>
        <time>2021-05-21T09:13:32Z</time>
      </trkpt>
      <trkpt lat="42.3523180" lon="-8.6117000">
        <ele>8.2</ele>
        <time>2021-05-21T09:13:33Z</time>
      </trkpt>
      <trkpt lat="42.3523200" lon="-8.6116950">
        <ele>8.2</ele>
        <time>2021-05-21T09:13:34Z</time>
      </trkpt>
      <trkpt lat="42.3523220" lon="-8.6117040">
        <ele>8.2</ele>
        <time>2021-05-21T09:13:35Z</time>
      </trkpt>
      <trkpt lat="42.3523260" lon="-8.6117060">
        <ele>8.2</ele>
        <time>2021-05-21T09:13:36Z</time>
      </trkpt>
      <trkpt lat="42.3523270" lon="-8.6117100">
        <ele>8.2</ele>
        <time>2021-05-21T09:13:37Z</time>
      </trkpt>
      <trkpt lat="42.3523380" lon="-8.6117150">
        <ele>8.2</ele>
        <time>2021-05-21T09:13:38Z</time>
      </trkpt>
      <trkpt lat="42.3523440" lon="-8.6117210">
        <ele>8.2</ele>
        <time>2021-05-21T09:13:39Z</time>
      </trkpt>
      <trkpt lat="42.3523440" lon="-8.6117210">
        <ele>8.2</ele>
        <time>2021-05-21T09:13:40Z</time>
      </trkpt>
      <trkpt lat="42.3523440" lon="-8.6117240">
        <ele>8.2</ele>
        <time>2021-05-21T09:13:41Z</time>
      </trkpt>
      <trkpt lat="42.3523440" lon="-8.6117270">
        <ele>8.2</ele>
        <time>2021-05-21T09:13:42Z</time>
      </trkpt>
      <trkpt lat="42.3523490" lon="-8.6117240">
        <ele>8.2</ele>
        <time>2021-05-21T09:13:43Z</time>
      </trkpt>
      <trkpt lat="42.3523540" lon="-8.6117200">
        <ele>8.2</ele>
        <time>2021-05-21T09:13:44Z</time>
      </trkpt>
      <trkpt lat="42.3523530" lon="-8.6117160">
        <ele>8.1</ele>
        <time>2021-05-21T09:13:45Z</time>
      </trkpt>
      <trkpt lat="42.3523590" lon="-8.6117100">
        <ele>8.1</ele>
        <time>2021-05-21T09:13:46Z</time>
      </trkpt>
      <trkpt lat="42.3523590" lon="-8.6117110">
        <ele>8.1</ele>
        <time>2021-05-21T09:13:47Z</time>
      </trkpt>
      <trkpt lat="42.3523560" lon="-8.6117050">
        <ele>8.1</ele>
        <time>2021-05-21T09:13:48Z</time>
      </trkpt>
      <trkpt lat="42.3523650" lon="-8.6117050">
        <ele>8.1</ele>
        <time>2021-05-21T09:13:49Z</time>
      </trkpt>
      <trkpt lat="42.3523810" lon="-8.6117120">
        <ele>8.1</ele>
        <time>2021-05-21T09:13:50Z</time>
      </trkpt>
      <trkpt lat="42.3523960" lon="-8.6117120">
        <ele>8.0</ele>
        <time>2021-05-21T09:13:51Z</time>
      </trkpt>
      <trkpt lat="42.3523980" lon="-8.6117140">
        <ele>8.0</ele>
        <time>2021-05-21T09:13:52Z</time>
      </trkpt>
      <trkpt lat="42.3523960" lon="-8.6117130">
        <ele>8.0</ele>
        <time>2021-05-21T09:13:53Z</time>
      </trkpt>
      <trkpt lat="42.3524090" lon="-8.6117200">
        <ele>8.0</ele>
        <time>2021-05-21T09:13:54Z</time>
      </trkpt>
      <trkpt lat="42.3523920" lon="-8.6117180">
        <ele>7.9</ele>
        <time>2021-05-21T09:13:55Z</time>
      </trkpt>
      <trkpt lat="42.3523850" lon="-8.6117250">
        <ele>7.9</ele>
        <time>2021-05-21T09:13:56Z</time>
      </trkpt>
      <trkpt lat="42.3523900" lon="-8.6117380">
        <ele>7.9</ele>
        <time>2021-05-21T09:13:57Z</time>
      </trkpt>
      <trkpt lat="42.3523870" lon="-8.6117500">
        <ele>7.9</ele>
        <time>2021-05-21T09:13:58Z</time>
      </trkpt>
      <trkpt lat="42.3523880" lon="-8.6117430">
        <ele>7.9</ele>
        <time>2021-05-21T09:13:59Z</time>
      </trkpt>
      <trkpt lat="42.3523940" lon="-8.6117430">
        <ele>7.8</ele>
        <time>2021-05-21T09:14:00Z</time>
      </trkpt>
      <trkpt lat="42.3523960" lon="-8.6117470">
        <ele>7.8</ele>
        <time>2021-05-21T09:14:01Z</time>
      </trkpt>
      <trkpt lat="42.3523920" lon="-8.6117430">
        <ele>7.8</ele>
        <time>2021-05-21T09:14:02Z</time>
      </trkpt>
      <trkpt lat="42.3523880" lon="-8.6117440">
        <ele>7.8</ele>
        <time>2021-05-21T09:14:03Z</time>
      </trkpt>
      <trkpt lat="42.3523840" lon="-8.6117380">
        <ele>7.8</ele>
        <time>2021-05-21T09:14:04Z</time>
      </trkpt>
      <trkpt lat="42.3523830" lon="-8.6117420">
        <ele>7.8</ele>
        <time>2021-05-21T09:14:05Z</time>
      </trkpt>
      <trkpt lat="42.3523860" lon="-8.6117480">
        <ele>7.8</ele>
        <time>2021-05-21T09:14:06Z</time>
      </trkpt>
      <trkpt lat="42.3523980" lon="-8.6117540">
        <ele>7.7</ele>
        <time>2021-05-21T09:14:07Z</time>
      </trkpt>
      <trkpt lat="42.3524180" lon="-8.6117670">
        <ele>7.7</ele>
        <time>2021-05-21T09:14:08Z</time>
      </trkpt>
      <trkpt lat="42.3524250" lon="-8.6117670">
        <ele>7.7</ele>
        <time>2021-05-21T09:14:09Z</time>
      </trkpt>
      <trkpt lat="42.3524290" lon="-8.6117680">
        <ele>7.7</ele>
        <time>2021-05-21T09:14:10Z</time>
      </trkpt>
      <trkpt lat="42.3524310" lon="-8.6117760">
        <ele>7.6</ele>
        <time>2021-05-21T09:14:11Z</time>
      </trkpt>
      <trkpt lat="42.3524230" lon="-8.6117800">
        <ele>7.6</ele>
        <time>2021-05-21T09:14:12Z</time>
      </trkpt>
      <trkpt lat="42.3524220" lon="-8.6117890">
        <ele>7.6</ele>
        <time>2021-05-21T09:14:13Z</time>
      </trkpt>
      <trkpt lat="42.3524330" lon="-8.6118010">
        <ele>7.6</ele>
        <time>2021-05-21T09:14:14Z</time>
      </trkpt>
      <trkpt lat="42.3524340" lon="-8.6118050">
        <ele>7.6</ele>
        <time>2021-05-21T09:14:15Z</time>
      </trkpt>
      <trkpt lat="42.3524370" lon="-8.6118150">
        <ele>7.5</ele>
        <time>2021-05-21T09:14:16Z</time>
      </trkpt>
      <trkpt lat="42.3524410" lon="-8.6118320">
        <ele>7.5</ele>
        <time>2021-05-21T09:14:17Z</time>
      </trkpt>
      <trkpt lat="42.3524490" lon="-8.6118440">
        <ele>7.5</ele>
        <time>2021-05-21T09:14:18Z</time>
      </trkpt>
      <trkpt lat="42.3524560" lon="-8.6118490">
        <ele>7.5</ele>
        <time>2021-05-21T09:14:19Z</time>
      </trkpt>
      <trkpt lat="42.3524610" lon="-8.6118520">
        <ele>7.5</ele>
        <time>2021-05-21T09:14:20Z</time>
      </trkpt>
      <trkpt lat="42.3524700" lon="-8.6118500">
        <ele>7.5</ele>
        <time>2021-05-21T09:14:21Z</time>
      </trkpt>
      <trkpt lat="42.3524780" lon="-8.6118500">
        <ele>7.4</ele>
        <time>2021-05-21T09:14:22Z</time>
      </trkpt>
      <trkpt lat="42.3524810" lon="-8.6118590">
        <ele>7.4</ele>
        <time>2021-05-21T09:14:23Z</time>
      </trkpt>
      <trkpt lat="42.3524820" lon="-8.6118630">
        <ele>7.4</ele>
        <time>2021-05-21T09:14:24Z</time>
      </trkpt>
      <trkpt lat="42.3524880" lon="-8.6118710">
        <ele>7.4</ele>
        <time>2021-05-21T09:14:25Z</time>
      </trkpt>
      <trkpt lat="42.3524850" lon="-8.6118730">
        <ele>7.4</ele>
        <time>2021-05-21T09:14:26Z</time>
      </trkpt>
      <trkpt lat="42.3525000" lon="-8.6118790">
        <ele>7.4</ele>
        <time>2021-05-21T09:14:27Z</time>
      </trkpt>
      <trkpt lat="42.3525150" lon="-8.6118860">
        <ele>7.4</ele>
        <time>2021-05-21T09:14:28Z</time>
      </trkpt>
      <trkpt lat="42.3525230" lon="-8.6118910">
        <ele>7.4</ele>
        <time>2021-05-21T09:14:29Z</time>
      </trkpt>
      <trkpt lat="42.3525300" lon="-8.6118970">
        <ele>7.4</ele>
        <time>2021-05-21T09:14:30Z</time>
      </trkpt>
      <trkpt lat="42.3525380" lon="-8.6119020">
        <ele>7.4</ele>
        <time>2021-05-21T09:14:31Z</time>
      </trkpt>
      <trkpt lat="42.3525470" lon="-8.6119050">
        <ele>7.4</ele>
        <time>2021-05-21T09:14:32Z</time>
      </trkpt>
      <trkpt lat="42.3525440" lon="-8.6119050">
        <ele>7.4</ele>
        <time>2021-05-21T09:14:33Z</time>
      </trkpt>
      <trkpt lat="42.3525550" lon="-8.6119210">
        <ele>7.4</ele>
        <time>2021-05-21T09:14:34Z</time>
      </trkpt>
      <trkpt lat="42.3525660" lon="-8.6119300">
        <ele>7.4</ele>
        <time>2021-05-21T09:14:35Z</time>
      </trkpt>
      <trkpt lat="42.3525760" lon="-8.6119410">
        <ele>7.4</ele>
        <time>2021-05-21T09:14:36Z</time>
      </trkpt>
      <trkpt lat="42.3525880" lon="-8.6119510">
        <ele>7.5</ele>
        <time>2021-05-21T09:14:37Z</time>
      </trkpt>
      <trkpt lat="42.3525980" lon="-8.6119590">
        <ele>7.5</ele>
        <time>2021-05-21T09:14:38Z</time>
      </trkpt>
      <trkpt lat="42.3526180" lon="-8.6119700">
        <ele>7.5</ele>
        <time>2021-05-21T09:14:39Z</time>
      </trkpt>
      <trkpt lat="42.3526320" lon="-8.6119880">
        <ele>7.6</ele>
        <time>2021-05-21T09:14:40Z</time>
      </trkpt>
      <trkpt lat="42.3526370" lon="-8.6119950">
        <ele>7.6</ele>
        <time>2021-05-21T09:14:41Z</time>
      </trkpt>
      <trkpt lat="42.3526600" lon="-8.6120050">
        <ele>7.6</ele>
        <time>2021-05-21T09:14:42Z</time>
      </trkpt>
      <trkpt lat="42.3526660" lon="-8.6120160">
        <ele>7.7</ele>
        <time>2021-05-21T09:14:43Z</time>
      </trkpt>
      <trkpt lat="42.3526820" lon="-8.6120320">
        <ele>7.7</ele>
        <time>2021-05-21T09:14:44Z</time>
      </trkpt>
      <trkpt lat="42.3526920" lon="-8.6120400">
        <ele>7.7</ele>
        <time>2021-05-21T09:14:45Z</time>
      </trkpt>
      <trkpt lat="42.3527030" lon="-8.6120480">
        <ele>7.8</ele>
        <time>2021-05-21T09:14:46Z</time>
      </trkpt>
      <trkpt lat="42.3527040" lon="-8.6120510">
        <ele>7.8</ele>
        <time>2021-05-21T09:14:47Z</time>
      </trkpt>
      <trkpt lat="42.3527140" lon="-8.6120600">
        <ele>7.8</ele>
        <time>2021-05-21T09:14:48Z</time>
      </trkpt>
      <trkpt lat="42.3527230" lon="-8.6120730">
        <ele>7.9</ele>
        <time>2021-05-21T09:14:49Z</time>
      </trkpt>
      <trkpt lat="42.3527340" lon="-8.6120880">
        <ele>7.9</ele>
        <time>2021-05-21T09:14:50Z</time>
      </trkpt>
      <trkpt lat="42.3527370" lon="-8.6120950">
        <ele>8.0</ele>
        <time>2021-05-21T09:14:51Z</time>
      </trkpt>
      <trkpt lat="42.3527420" lon="-8.6121120">
        <ele>8.0</ele>
        <time>2021-05-21T09:14:52Z</time>
      </trkpt>
      <trkpt lat="42.3527540" lon="-8.6121390">
        <ele>8.1</ele>
        <time>2021-05-21T09:14:53Z</time>
      </trkpt>
      <trkpt lat="42.3527610" lon="-8.6121470">
        <ele>8.1</ele>
        <time>2021-05-21T09:14:54Z</time>
      </trkpt>
      <trkpt lat="42.3527670" lon="-8.6121550">
        <ele>8.2</ele>
        <time>2021-05-21T09:14:55Z</time>
      </trkpt>
      <trkpt lat="42.3527730" lon="-8.6121710">
        <ele>8.2</ele>
        <time>2021-05-21T09:14:56Z</time>
      </trkpt>
      <trkpt lat="42.3527790" lon="-8.6121830">
        <ele>8.3</ele>
        <time>2021-05-21T09:14:57Z</time>
      </trkpt>
      <trkpt lat="42.3527880" lon="-8.6121900">
        <ele>8.3</ele>
        <time>2021-05-21T09:14:58Z</time>
      </trkpt>
      <trkpt lat="42.3527940" lon="-8.6122050">
        <ele>8.4</ele>
        <time>2021-05-21T09:14:59Z</time>
      </trkpt>
      <trkpt lat="42.3527960" lon="-8.6122090">
        <ele>8.4</ele>
        <time>2021-05-21T09:15:00Z</time>
      </trkpt>
      <trkpt lat="42.3528030" lon="-8.6122250">
        <ele>8.4</ele>
        <time>2021-05-21T09:15:01Z</time>
      </trkpt>
      <trkpt lat="42.3528220" lon="-8.6122540">
        <ele>8.6</ele>
        <time>2021-05-21T09:15:02Z</time>
      </trkpt>
      <trkpt lat="42.3528280" lon="-8.6122710">
        <ele>8.6</ele>
        <time>2021-05-21T09:15:03Z</time>
      </trkpt>
      <trkpt lat="42.3528420" lon="-8.6122840">
        <ele>8.7</ele>
        <time>2021-05-21T09:15:04Z</time>
      </trkpt>
      <trkpt lat="42.3528530" lon="-8.6123000">
        <ele>8.8</ele>
        <time>2021-05-21T09:15:05Z</time>
      </trkpt>
      <trkpt lat="42.3528670" lon="-8.6123060">
        <ele>8.9</ele>
        <time>2021-05-21T09:15:06Z</time>
      </trkpt>
      <trkpt lat="42.3528870" lon="-8.6123140">
        <ele>9.0</ele>
        <time>2021-05-21T09:15:07Z</time>
      </trkpt>
      <trkpt lat="42.3528950" lon="-8.6123200">
        <ele>9.1</ele>
        <time>2021-05-21T09:15:08Z</time>
      </trkpt>
      <trkpt lat="42.3529030" lon="-8.6123260">
        <ele>9.2</ele>
        <time>2021-05-21T09:15:09Z</time>
      </trkpt>
      <trkpt lat="42.3529140" lon="-8.6123350">
        <ele>9.2</ele>
        <time>2021-05-21T09:15:10Z</time>
      </trkpt>
      <trkpt lat="42.3529250" lon="-8.6123380">
        <ele>9.3</ele>
        <time>2021-05-21T09:15:11Z</time>
      </trkpt>
      <trkpt lat="42.3529490" lon="-8.6123420">
        <ele>9.5</ele>
        <time>2021-05-21T09:15:12Z</time>
      </trkpt>
      <trkpt lat="42.3529610" lon="-8.6123550">
        <ele>9.6</ele>
        <time>2021-05-21T09:15:13Z</time>
      </trkpt>
      <trkpt lat="42.3529740" lon="-8.6123650">
        <ele>9.8</ele>
        <time>2021-05-21T09:15:14Z</time>
      </trkpt>
      <trkpt lat="42.3529860" lon="-8.6123630">
        <ele>9.9</ele>
        <time>2021-05-21T09:15:15Z</time>
      </trkpt>
      <trkpt lat="42.3529970" lon="-8.6123640">
        <ele>10.0</ele>
        <time>2021-05-21T09:15:16Z</time>
      </trkpt>
      <trkpt lat="42.3530080" lon="-8.6123560">
        <ele>10.1</ele>
        <time>2021-05-21T09:15:17Z</time>
      </trkpt>
      <trkpt lat="42.3530290" lon="-8.6123630">
        <ele>10.3</ele>
        <time>2021-05-21T09:15:18Z</time>
      </trkpt>
      <trkpt lat="42.3530400" lon="-8.6123720">
        <ele>10.5</ele>
        <time>2021-05-21T09:15:19Z</time>
      </trkpt>
      <trkpt lat="42.3530480" lon="-8.6123750">
        <ele>10.5</ele>
        <time>2021-05-21T09:15:20Z</time>
      </trkpt>
      <trkpt lat="42.3530570" lon="-8.6123800">
        <ele>10.6</ele>
        <time>2021-05-21T09:15:21Z</time>
      </trkpt>
      <trkpt lat="42.3530680" lon="-8.6123950">
        <ele>10.8</ele>
        <time>2021-05-21T09:15:22Z</time>
      </trkpt>
      <trkpt lat="42.3530800" lon="-8.6124000">
        <ele>11.0</ele>
        <time>2021-05-21T09:15:23Z</time>
      </trkpt>
      <trkpt lat="42.3531060" lon="-8.6124140">
        <ele>11.3</ele>
        <time>2021-05-21T09:15:24Z</time>
      </trkpt>
      <trkpt lat="42.3531160" lon="-8.6124210">
        <ele>11.4</ele>
        <time>2021-05-21T09:15:25Z</time>
      </trkpt>
      <trkpt lat="42.3531350" lon="-8.6124340">
        <ele>11.7</ele>
        <time>2021-05-21T09:15:26Z</time>
      </trkpt>
      <trkpt lat="42.3531420" lon="-8.6124390">
        <ele>11.8</ele>
        <time>2021-05-21T09:15:27Z</time>
      </trkpt>
      <trkpt lat="42.3531500" lon="-8.6124440">
        <ele>11.9</ele>
        <time>2021-05-21T09:15:28Z</time>
      </trkpt>
      <trkpt lat="42.3531560" lon="-8.6124530">
        <ele>12.0</ele>
        <time>2021-05-21T09:15:29Z</time>
      </trkpt>
      <trkpt lat="42.3531540" lon="-8.6124610">
        <ele>12.1</ele>
        <time>2021-05-21T09:15:30Z</time>
      </trkpt>
      <trkpt lat="42.3531620" lon="-8.6124630">
        <ele>12.2</ele>
        <time>2021-05-21T09:15:31Z</time>
      </trkpt>
      <trkpt lat="42.3531660" lon="-8.6124730">
        <ele>12.3</ele>
        <time>2021-05-21T09:15:32Z</time>
      </trkpt>
      <trkpt lat="42.3531540" lon="-8.6124870">
        <ele>12.5</ele>
        <time>2021-05-21T09:15:33Z</time>
      </trkpt>
      <trkpt lat="42.3531460" lon="-8.6124950">
        <ele>12.6</ele>
        <time>2021-05-21T09:15:34Z</time>
      </trkpt>
      <trkpt lat="42.3531390" lon="-8.6124970">
        <ele>12.7</ele>
        <time>2021-05-21T09:15:35Z</time>
      </trkpt>
      <trkpt lat="42.3531300" lon="-8.6125180">
        <ele>12.9</ele>
        <time>2021-05-21T09:15:36Z</time>
      </trkpt>
      <trkpt lat="42.3531170" lon="-8.6125350">
        <ele>13.1</ele>
        <time>2021-05-21T09:15:37Z</time>
      </trkpt>
      <trkpt lat="42.3531100" lon="-8.6125440">
        <ele>13.2</ele>
        <time>2021-05-21T09:15:38Z</time>
      </trkpt>
      <trkpt lat="42.3531090" lon="-8.6125530">
        <ele>13.2</ele>
        <time>2021-05-21T09:15:39Z</time>
      </trkpt>
      <trkpt lat="42.3531020" lon="-8.6125590">
        <ele>13.3</ele>
        <time>2021-05-21T09:15:40Z</time>
      </trkpt>
      <trkpt lat="42.3530970" lon="-8.6125640">
        <ele>13.4</ele>
        <time>2021-05-21T09:15:41Z</time>
      </trkpt>
      <trkpt lat="42.3530830" lon="-8.6125870">
        <ele>13.6</ele>
        <time>2021-05-21T09:15:42Z</time>
      </trkpt>
      <trkpt lat="42.3530780" lon="-8.6125950">
        <ele>13.6</ele>
        <time>2021-05-21T09:15:43Z</time>
      </trkpt>
      <trkpt lat="42.3530740" lon="-8.6126030">
        <ele>13.7</ele>
        <time>2021-05-21T09:15:44Z</time>
      </trkpt>
      <trkpt lat="42.3530710" lon="-8.6126180">
        <ele>13.8</ele>
        <time>2021-05-21T09:15:45Z</time>
      </trkpt>
      <trkpt lat="42.3530690" lon="-8.6126210">
        <ele>13.8</ele>
        <time>2021-05-21T09:15:46Z</time>
      </trkpt>
      <trkpt lat="42.3530700" lon="-8.6126290">
        <ele>13.8</ele>
        <time>2021-05-21T09:15:47Z</time>
      </trkpt>
      <trkpt lat="42.3530570" lon="-8.6126440">
        <ele>13.9</ele>
        <time>2021-05-21T09:15:48Z</time>
      </trkpt>
      <trkpt lat="42.3530400" lon="-8.6126690">
        <ele>14.1</ele>
        <time>2021-05-21T09:15:49Z</time>
      </trkpt>
      <trkpt lat="42.3530340" lon="-8.6126780">
        <ele>14.1</ele>
        <time>2021-05-21T09:15:50Z</time>
      </trkpt>
      <trkpt lat="42.3530270" lon="-8.6126870">
        <ele>14.2</ele>
        <time>2021-05-21T09:15:51Z</time>
      </trkpt>
      <trkpt lat="42.3530360" lon="-8.6126980">
        <ele>14.2</ele>
        <time>2021-05-21T09:15:52Z</time>
      </trkpt>
      <trkpt lat="42.3530300" lon="-8.6127140">
        <ele>14.3</ele>
        <time>2021-05-21T09:15:53Z</time>
      </trkpt>
      <trkpt lat="42.3530280" lon="-8.6127270">
        <ele>14.3</ele>
        <time>2021-05-21T09:15:54Z</time>
      </trkpt>
      <trkpt lat="42.3530260" lon="-8.6127390">
        <ele>14.3</ele>
        <time>2021-05-21T09:15:55Z</time>
      </trkpt>
      <trkpt lat="42.3530300" lon="-8.6127520">
        <ele>14.3</ele>
        <time>2021-05-21T09:15:56Z</time>
      </trkpt>
      <trkpt lat="42.3530310" lon="-8.6127690">
        <ele>14.4</ele>
        <time>2021-05-21T09:15:57Z</time>
      </trkpt>
      <trkpt lat="42.3530320" lon="-8.6127790">
        <ele>14.4</ele>
        <time>2021-05-21T09:15:58Z</time>
      </trkpt>
      <trkpt lat="42.3530330" lon="-8.6127880">
        <ele>14.4</ele>
        <time>2021-05-21T09:15:59Z</time>
      </trkpt>
      <trkpt lat="42.3530320" lon="-8.6127920">
        <ele>14.4</ele>
        <time>2021-05-21T09:16:00Z</time>
      </trkpt>
      <trkpt lat="42.3530350" lon="-8.6128000">
        <ele>14.4</ele>
        <time>2021-05-21T09:16:01Z</time>
      </trkpt>
      <trkpt lat="42.3530370" lon="-8.6128070">
        <ele>14.4</ele>
        <time>2021-05-21T09:16:02Z</time>
      </trkpt>
      <trkpt lat="42.3530380" lon="-8.6128110">
        <ele>14.4</ele>
        <time>2021-05-21T09:16:03Z</time>
      </trkpt>
      <trkpt lat="42.3530410" lon="-8.6128150">
        <ele>14.4</ele>
        <time>2021-05-21T09:16:04Z</time>
      </trkpt>
      <trkpt lat="42.3530520" lon="-8.6128260">
        <ele>14.4</ele>
        <time>2021-05-21T09:16:05Z</time>
      </trkpt>
      <trkpt lat="42.3530590" lon="-8.6128370">
        <ele>14.4</ele>
        <time>2021-05-21T09:16:06Z</time>
      </trkpt>
      <trkpt lat="42.3530620" lon="-8.6128530">
        <ele>14.4</ele>
        <time>2021-05-21T09:16:07Z</time>
      </trkpt>
      <trkpt lat="42.3530660" lon="-8.6128640">
        <ele>14.4</ele>
        <time>2021-05-21T09:16:08Z</time>
      </trkpt>
      <trkpt lat="42.3530660" lon="-8.6128670">
        <ele>14.4</ele>
        <time>2021-05-21T09:16:09Z</time>
      </trkpt>
      <trkpt lat="42.3530700" lon="-8.6128740">
        <ele>14.4</ele>
        <time>2021-05-21T09:16:10Z</time>
      </trkpt>
      <trkpt lat="42.3530760" lon="-8.6128800">
        <ele>14.4</ele>
        <time>2021-05-21T09:16:11Z</time>
      </trkpt>
      <trkpt lat="42.3530800" lon="-8.6128850">
        <ele>14.4</ele>
        <time>2021-05-21T09:16:12Z</time>
      </trkpt>
      <trkpt lat="42.3530830" lon="-8.6128900">
        <ele>14.4</ele>
        <time>2021-05-21T09:16:13Z</time>
      </trkpt>
      <trkpt lat="42.3530870" lon="-8.6128940">
        <ele>14.4</ele>
        <time>2021-05-21T09:16:14Z</time>
      </trkpt>
      <trkpt lat="42.3530900" lon="-8.6128990">
        <ele>14.4</ele>
        <time>2021-05-21T09:16:15Z</time>
      </trkpt>
      <trkpt lat="42.3530930" lon="-8.6129040">
        <ele>14.4</ele>
        <time>2021-05-21T09:16:16Z</time>
      </trkpt>
      <trkpt lat="42.3530970" lon="-8.6129090">
        <ele>14.4</ele>
        <time>2021-05-21T09:16:17Z</time>
      </trkpt>
      <trkpt lat="42.3531000" lon="-8.6129140">
        <ele>14.4</ele>
        <time>2021-05-21T09:16:18Z</time>
      </trkpt>
      <trkpt lat="42.3531110" lon="-8.6129310">
        <ele>14.3</ele>
        <time>2021-05-21T09:16:19Z</time>
      </trkpt>
      <trkpt lat="42.3531190" lon="-8.6129420">
        <ele>14.3</ele>
        <time>2021-05-21T09:16:20Z</time>
      </trkpt>
      <trkpt lat="42.3531260" lon="-8.6129520">
        <ele>14.3</ele>
        <time>2021-05-21T09:16:21Z</time>
      </trkpt>
      <trkpt lat="42.3531310" lon="-8.6129680">
        <ele>14.3</ele>
        <time>2021-05-21T09:16:22Z</time>
      </trkpt>
      <trkpt lat="42.3531290" lon="-8.6129820">
        <ele>14.3</ele>
        <time>2021-05-21T09:16:23Z</time>
      </trkpt>
      <trkpt lat="42.3531370" lon="-8.6129910">
        <ele>14.2</ele>
        <time>2021-05-21T09:16:24Z</time>
      </trkpt>
      <trkpt lat="42.3531470" lon="-8.6129980">
        <ele>14.2</ele>
        <time>2021-05-21T09:16:25Z</time>
      </trkpt>
      <trkpt lat="42.3531500" lon="-8.6130160">
        <ele>14.2</ele>
        <time>2021-05-21T09:16:26Z</time>
      </trkpt>
      <trkpt lat="42.3531560" lon="-8.6130280">
        <ele>14.1</ele>
        <time>2021-05-21T09:16:27Z</time>
      </trkpt>
      <trkpt lat="42.3531600" lon="-8.6130480">
        <ele>14.1</ele>
        <time>2021-05-21T09:16:28Z</time>
      </trkpt>
      <trkpt lat="42.3531590" lon="-8.6130700">
        <ele>14.1</ele>
        <time>2021-05-21T09:16:29Z</time>
      </trkpt>
      <trkpt lat="42.3531570" lon="-8.6130970">
        <ele>14.0</ele>
        <time>2021-05-21T09:16:30Z</time>
      </trkpt>
      <trkpt lat="42.3531570" lon="-8.6131100">
        <ele>14.0</ele>
        <time>2021-05-21T09:16:31Z</time>
      </trkpt>
      <trkpt lat="42.3531580" lon="-8.6131240">
        <ele>13.9</ele>
        <time>2021-05-21T09:16:32Z</time>
      </trkpt>
      <trkpt lat="42.3531610" lon="-8.6131370">
        <ele>13.9</ele>
        <time>2021-05-21T09:16:33Z</time>
      </trkpt>
      <trkpt lat="42.3531580" lon="-8.6131540">
        <ele>13.9</ele>
        <time>2021-05-21T09:16:34Z</time>
      </trkpt>
      <trkpt lat="42.3531590" lon="-8.6131660">
        <ele>13.8</ele>
        <time>2021-05-21T09:16:35Z</time>
      </trkpt>
      <trkpt lat="42.3531620" lon="-8.6131830">
        <ele>13.8</ele>
        <time>2021-05-21T09:16:36Z</time>
      </trkpt>
      <trkpt lat="42.3531720" lon="-8.6132020">
        <ele>13.7</ele>
        <time>2021-05-21T09:16:37Z</time>
      </trkpt>
      <trkpt lat="42.3531870" lon="-8.6132120">
        <ele>13.7</ele>
        <time>2021-05-21T09:16:38Z</time>
      </trkpt>
      <trkpt lat="42.3531980" lon="-8.6132170">
        <ele>13.7</ele>
        <time>2021-05-21T09:16:39Z</time>
      </trkpt>
      <trkpt lat="42.3532190" lon="-8.6132260">
        <ele>13.7</ele>
        <time>2021-05-21T09:16:40Z</time>
      </trkpt>
      <trkpt lat="42.3532270" lon="-8.6132280">
        <ele>13.7</ele>
        <time>2021-05-21T09:16:41Z</time>
      </trkpt>
      <trkpt lat="42.3532360" lon="-8.6132300">
        <ele>13.7</ele>
        <time>2021-05-21T09:16:42Z</time>
      </trkpt>
      <trkpt lat="42.3532470" lon="-8.6132340">
        <ele>13.7</ele>
        <time>2021-05-21T09:16:43Z</time>
      </trkpt>
      <trkpt lat="42.3532540" lon="-8.6132340">
        <ele>13.7</ele>
        <time>2021-05-21T09:16:44Z</time>
      </trkpt>
      <trkpt lat="42.3532600" lon="-8.6132290">
        <ele>13.7</ele>
        <time>2021-05-21T09:16:45Z</time>
      </trkpt>
      <trkpt lat="42.3532540" lon="-8.6132320">
        <ele>13.7</ele>
        <time>2021-05-21T09:16:47Z</time>
      </trkpt>
      <trkpt lat="42.3532620" lon="-8.6132360">
        <ele>13.7</ele>
        <time>2021-05-21T09:16:48Z</time>
      </trkpt>
      <trkpt lat="42.3532680" lon="-8.6132480">
        <ele>13.7</ele>
        <time>2021-05-21T09:16:49Z</time>
      </trkpt>
      <trkpt lat="42.3532770" lon="-8.6132580">
        <ele>13.7</ele>
        <time>2021-05-21T09:16:50Z</time>
      </trkpt>
      <trkpt lat="42.3532830" lon="-8.6132700">
        <ele>13.7</ele>
        <time>2021-05-21T09:16:51Z</time>
      </trkpt>
      <trkpt lat="42.3532930" lon="-8.6132810">
        <ele>13.7</ele>
        <time>2021-05-21T09:16:52Z</time>
      </trkpt>
      <trkpt lat="42.3533030" lon="-8.6132870">
        <ele>13.7</ele>
        <time>2021-05-21T09:16:53Z</time>
      </trkpt>
      <trkpt lat="42.3533130" lon="-8.6132960">
        <ele>13.7</ele>
        <time>2021-05-21T09:16:54Z</time>
      </trkpt>
      <trkpt lat="42.3533180" lon="-8.6133020">
        <ele>13.7</ele>
        <time>2021-05-21T09:16:55Z</time>
      </trkpt>
      <trkpt lat="42.3533250" lon="-8.6133130">
        <ele>13.7</ele>
        <time>2021-05-21T09:16:56Z</time>
      </trkpt>
      <trkpt lat="42.3533390" lon="-8.6133280">
        <ele>13.7</ele>
        <time>2021-05-21T09:16:57Z</time>
      </trkpt>
      <trkpt lat="42.3533410" lon="-8.6133380">
        <ele>13.7</ele>
        <time>2021-05-21T09:16:58Z</time>
      </trkpt>
      <trkpt lat="42.3533410" lon="-8.6133520">
        <ele>13.7</ele>
        <time>2021-05-21T09:16:59Z</time>
      </trkpt>
      <trkpt lat="42.3533500" lon="-8.6133520">
        <ele>13.7</ele>
        <time>2021-05-21T09:17:00Z</time>
      </trkpt>
      <trkpt lat="42.3533600" lon="-8.6133550">
        <ele>13.7</ele>
        <time>2021-05-21T09:17:01Z</time>
      </trkpt>
      <trkpt lat="42.3533660" lon="-8.6133630">
        <ele>13.7</ele>
        <time>2021-05-21T09:17:02Z</time>
      </trkpt>
      <trkpt lat="42.3533740" lon="-8.6133760">
        <ele>13.6</ele>
        <time>2021-05-21T09:17:03Z</time>
      </trkpt>
      <trkpt lat="42.3533800" lon="-8.6133940">
        <ele>13.6</ele>
        <time>2021-05-21T09:17:04Z</time>
      </trkpt>
      <trkpt lat="42.3533920" lon="-8.6134120">
        <ele>13.6</ele>
        <time>2021-05-21T09:17:05Z</time>
      </trkpt>
      <trkpt lat="42.3533990" lon="-8.6134150">
        <ele>13.6</ele>
        <time>2021-05-21T09:17:06Z</time>
      </trkpt>
      <trkpt lat="42.3534050" lon="-8.6134190">
        <ele>13.6</ele>
        <time>2021-05-21T09:17:07Z</time>
      </trkpt>
      <trkpt lat="42.3534110" lon="-8.6134230">
        <ele>13.6</ele>
        <time>2021-05-21T09:17:08Z</time>
      </trkpt>
      <trkpt lat="42.3534190" lon="-8.6134280">
        <ele>13.6</ele>
        <time>2021-05-21T09:17:09Z</time>
      </trkpt>
      <trkpt lat="42.3534270" lon="-8.6134320">
        <ele>13.6</ele>
        <time>2021-05-21T09:17:10Z</time>
      </trkpt>
      <trkpt lat="42.3534340" lon="-8.6134350">
        <ele>13.6</ele>
        <time>2021-05-21T09:17:11Z</time>
      </trkpt>
      <trkpt lat="42.3534380" lon="-8.6134410">
        <ele>13.6</ele>
        <time>2021-05-21T09:17:12Z</time>
      </trkpt>
      <trkpt lat="42.3534530" lon="-8.6134570">
        <ele>13.6</ele>
        <time>2021-05-21T09:17:13Z</time>
      </trkpt>
      <trkpt lat="42.3534550" lon="-8.6134650">
        <ele>13.6</ele>
        <time>2021-05-21T09:17:14Z</time>
      </trkpt>
      <trkpt lat="42.3534580" lon="-8.6134730">
        <ele>13.6</ele>
        <time>2021-05-21T09:17:15Z</time>
      </trkpt>
      <trkpt lat="42.3534600" lon="-8.6134820">
        <ele>13.6</ele>
        <time>2021-05-21T09:17:16Z</time>
      </trkpt>
      <trkpt lat="42.3534630" lon="-8.6134900">
        <ele>13.6</ele>
        <time>2021-05-21T09:17:17Z</time>
      </trkpt>
      <trkpt lat="42.3534650" lon="-8.6134980">
        <ele>13.6</ele>
        <time>2021-05-21T09:17:18Z</time>
      </trkpt>
      <trkpt lat="42.3534710" lon="-8.6135010">
        <ele>13.6</ele>
        <time>2021-05-21T09:17:19Z</time>
      </trkpt>
      <trkpt lat="42.3534790" lon="-8.6135190">
        <ele>13.6</ele>
        <time>2021-05-21T09:17:20Z</time>
      </trkpt>
      <trkpt lat="42.3534850" lon="-8.6135300">
        <ele>13.6</ele>
        <time>2021-05-21T09:17:21Z</time>
      </trkpt>
      <trkpt lat="42.3534990" lon="-8.6135330">
        <ele>13.6</ele>
        <time>2021-05-21T09:17:22Z</time>
      </trkpt>
      <trkpt lat="42.3535020" lon="-8.6135470">
        <ele>13.6</ele>
        <time>2021-05-21T09:17:23Z</time>
      </trkpt>
      <trkpt lat="42.3535120" lon="-8.6135660">
        <ele>13.6</ele>
        <time>2021-05-21T09:17:24Z</time>
      </trkpt>
      <trkpt lat="42.3535210" lon="-8.6135810">
        <ele>13.6</ele>
        <time>2021-05-21T09:17:25Z</time>
      </trkpt>
      <trkpt lat="42.3535250" lon="-8.6135980">
        <ele>13.6</ele>
        <time>2021-05-21T09:17:26Z</time>
      </trkpt>
      <trkpt lat="42.3535320" lon="-8.6136030">
        <ele>13.6</ele>
        <time>2021-05-21T09:17:27Z</time>
      </trkpt>
      <trkpt lat="42.3535410" lon="-8.6136130">
        <ele>13.6</ele>
        <time>2021-05-21T09:17:28Z</time>
      </trkpt>
      <trkpt lat="42.3535440" lon="-8.6136260">
        <ele>13.5</ele>
        <time>2021-05-21T09:17:29Z</time>
      </trkpt>
      <trkpt lat="42.3535490" lon="-8.6136380">
        <ele>13.5</ele>
        <time>2021-05-21T09:17:30Z</time>
      </trkpt>
      <trkpt lat="42.3535490" lon="-8.6136420">
        <ele>13.5</ele>
        <time>2021-05-21T09:17:31Z</time>
      </trkpt>
      <trkpt lat="42.3535470" lon="-8.6136400">
        <ele>13.5</ele>
        <time>2021-05-21T09:17:32Z</time>
      </trkpt>
      <trkpt lat="42.3535410" lon="-8.6136440">
        <ele>13.5</ele>
        <time>2021-05-21T09:17:33Z</time>
      </trkpt>
      <trkpt lat="42.3535400" lon="-8.6136440">
        <ele>13.5</ele>
        <time>2021-05-21T09:17:34Z</time>
      </trkpt>
      <trkpt lat="42.3535410" lon="-8.6136450">
        <ele>13.5</ele>
        <time>2021-05-21T09:17:35Z</time>
      </trkpt>
      <trkpt lat="42.3535430" lon="-8.6136470">
        <ele>13.5</ele>
        <time>2021-05-21T09:17:36Z</time>
      </trkpt>
      <trkpt lat="42.3535420" lon="-8.6136530">
        <ele>13.5</ele>
        <time>2021-05-21T09:17:37Z</time>
      </trkpt>
      <trkpt lat="42.3535400" lon="-8.6136560">
        <ele>13.5</ele>
        <time>2021-05-21T09:17:38Z</time>
      </trkpt>
      <trkpt lat="42.3535370" lon="-8.6136530">
        <ele>13.5</ele>
        <time>2021-05-21T09:17:39Z</time>
      </trkpt>
      <trkpt lat="42.3535350" lon="-8.6136530">
        <ele>13.5</ele>
        <time>2021-05-21T09:17:40Z</time>
      </trkpt>
      <trkpt lat="42.3535350" lon="-8.6136510">
        <ele>13.5</ele>
        <time>2021-05-21T09:17:41Z</time>
      </trkpt>
      <trkpt lat="42.3535330" lon="-8.6136510">
        <ele>13.5</ele>
        <time>2021-05-21T09:17:42Z</time>
      </trkpt>
      <trkpt lat="42.3535340" lon="-8.6136500">
        <ele>13.5</ele>
        <time>2021-05-21T09:17:43Z</time>
      </trkpt>
      <trkpt lat="42.3535360" lon="-8.6136520">
        <ele>13.5</ele>
        <time>2021-05-21T09:17:44Z</time>
      </trkpt>
      <trkpt lat="42.3535390" lon="-8.6136580">
        <ele>13.5</ele>
        <time>2021-05-21T09:17:45Z</time>
      </trkpt>
      <trkpt lat="42.3535490" lon="-8.6136730">
        <ele>13.5</ele>
        <time>2021-05-21T09:17:46Z</time>
      </trkpt>
      <trkpt lat="42.3535600" lon="-8.6136770">
        <ele>13.5</ele>
        <time>2021-05-21T09:17:48Z</time>
      </trkpt>
      <trkpt lat="42.3535710" lon="-8.6136810">
        <ele>13.5</ele>
        <time>2021-05-21T09:17:49Z</time>
      </trkpt>
      <trkpt lat="42.3535860" lon="-8.6136900">
        <ele>13.4</ele>
        <time>2021-05-21T09:17:50Z</time>
      </trkpt>
      <trkpt lat="42.3535970" lon="-8.6136970">
        <ele>13.4</ele>
        <time>2021-05-21T09:17:51Z</time>
      </trkpt>
      <trkpt lat="42.3536050" lon="-8.6137090">
        <ele>13.4</ele>
        <time>2021-05-21T09:17:52Z</time>
      </trkpt>
      <trkpt lat="42.3536070" lon="-8.6137100">
        <ele>13.4</ele>
        <time>2021-05-21T09:17:53Z</time>
      </trkpt>
      <trkpt lat="42.3536170" lon="-8.6137210">
        <ele>13.4</ele>
        <time>2021-05-21T09:17:54Z</time>
      </trkpt>
      <trkpt lat="42.3536220" lon="-8.6137320">
        <ele>13.4</ele>
        <time>2021-05-21T09:17:55Z</time>
      </trkpt>
      <trkpt lat="42.3536300" lon="-8.6137300">
        <ele>13.3</ele>
        <time>2021-05-21T09:17:56Z</time>
      </trkpt>
      <trkpt lat="42.3536380" lon="-8.6137380">
        <ele>13.3</ele>
        <time>2021-05-21T09:17:57Z</time>
      </trkpt>
      <trkpt lat="42.3536470" lon="-8.6137420">
        <ele>13.3</ele>
        <time>2021-05-21T09:17:58Z</time>
      </trkpt>
      <trkpt lat="42.3536650" lon="-8.6137630">
        <ele>13.3</ele>
        <time>2021-05-21T09:17:59Z</time>
      </trkpt>
      <trkpt lat="42.3536740" lon="-8.6137660">
        <ele>13.2</ele>
        <time>2021-05-21T09:18:00Z</time>
      </trkpt>
      <trkpt lat="42.3536830" lon="-8.6137690">
        <ele>13.2</ele>
        <time>2021-05-21T09:18:01Z</time>
      </trkpt>
      <trkpt lat="42.3537010" lon="-8.6137890">
        <ele>13.2</ele>
        <time>2021-05-21T09:18:02Z</time>
      </trkpt>
      <trkpt lat="42.3537070" lon="-8.6137950">
        <ele>13.2</ele>
        <time>2021-05-21T09:18:03Z</time>
      </trkpt>
      <trkpt lat="42.3537130" lon="-8.6138000">
        <ele>13.1</ele>
        <time>2021-05-21T09:18:04Z</time>
      </trkpt>
      <trkpt lat="42.3537190" lon="-8.6138060">
        <ele>13.1</ele>
        <time>2021-05-21T09:18:05Z</time>
      </trkpt>
      <trkpt lat="42.3537320" lon="-8.6138130">
        <ele>13.1</ele>
        <time>2021-05-21T09:18:06Z</time>
      </trkpt>
      <trkpt lat="42.3537340" lon="-8.6138270">
        <ele>13.1</ele>
        <time>2021-05-21T09:18:07Z</time>
      </trkpt>
      <trkpt lat="42.3537460" lon="-8.6138260">
        <ele>13.0</ele>
        <time>2021-05-21T09:18:08Z</time>
      </trkpt>
      <trkpt lat="42.3537370" lon="-8.6138220">
        <ele>13.0</ele>
        <time>2021-05-21T09:18:09Z</time>
      </trkpt>
      <trkpt lat="42.3537380" lon="-8.6138250">
        <ele>13.0</ele>
        <time>2021-05-21T09:18:10Z</time>
      </trkpt>
      <trkpt lat="42.3537430" lon="-8.6138210">
        <ele>13.0</ele>
        <time>2021-05-21T09:18:11Z</time>
      </trkpt>
      <trkpt lat="42.3537400" lon="-8.6138240">
        <ele>13.0</ele>
        <time>2021-05-21T09:18:12Z</time>
      </trkpt>
      <trkpt lat="42.3537410" lon="-8.6138200">
        <ele>13.0</ele>
        <time>2021-05-21T09:18:13Z</time>
      </trkpt>
      <trkpt lat="42.3537440" lon="-8.6138150">
        <ele>12.9</ele>
        <time>2021-05-21T09:18:14Z</time>
      </trkpt>
      <trkpt lat="42.3537450" lon="-8.6138100">
        <ele>12.9</ele>
        <time>2021-05-21T09:18:15Z</time>
      </trkpt>
      <trkpt lat="42.3537470" lon="-8.6138040">
        <ele>12.9</ele>
        <time>2021-05-21T09:18:16Z</time>
      </trkpt>
      <trkpt lat="42.3537470" lon="-8.6138060">
        <ele>12.9</ele>
        <time>2021-05-21T09:18:17Z</time>
      </trkpt>
      <trkpt lat="42.3537480" lon="-8.6138100">
        <ele>12.9</ele>
        <time>2021-05-21T09:18:18Z</time>
      </trkpt>
      <trkpt lat="42.3537490" lon="-8.6138050">
        <ele>12.9</ele>
        <time>2021-05-21T09:18:19Z</time>
      </trkpt>
      <trkpt lat="42.3537520" lon="-8.6138090">
        <ele>12.9</ele>
        <time>2021-05-21T09:18:20Z</time>
      </trkpt>
      <trkpt lat="42.3537480" lon="-8.6138100">
        <ele>12.9</ele>
        <time>2021-05-21T09:18:21Z</time>
      </trkpt>
      <trkpt lat="42.3537530" lon="-8.6138140">
        <ele>12.9</ele>
        <time>2021-05-21T09:18:22Z</time>
      </trkpt>
      <trkpt lat="42.3537510" lon="-8.6138280">
        <ele>12.8</ele>
        <time>2021-05-21T09:18:23Z</time>
      </trkpt>
      <trkpt lat="42.3537510" lon="-8.6138310">
        <ele>12.8</ele>
        <time>2021-05-21T09:18:24Z</time>
      </trkpt>
      <trkpt lat="42.3537530" lon="-8.6138250">
        <ele>12.8</ele>
        <time>2021-05-21T09:18:25Z</time>
      </trkpt>
      <trkpt lat="42.3537570" lon="-8.6138200">
        <ele>12.8</ele>
        <time>2021-05-21T09:18:26Z</time>
      </trkpt>
      <trkpt lat="42.3537650" lon="-8.6138210">
        <ele>12.7</ele>
        <time>2021-05-21T09:18:27Z</time>
      </trkpt>
      <trkpt lat="42.3537690" lon="-8.6138320">
        <ele>12.7</ele>
        <time>2021-05-21T09:18:28Z</time>
      </trkpt>
      <trkpt lat="42.3537780" lon="-8.6138410">
        <ele>12.7</ele>
        <time>2021-05-21T09:18:29Z</time>
      </trkpt>
      <trkpt lat="42.3537900" lon="-8.6138510">
        <ele>12.6</ele>
        <time>2021-05-21T09:18:30Z</time>
      </trkpt>
      <trkpt lat="42.3537930" lon="-8.6138570">
        <ele>12.6</ele>
        <time>2021-05-21T09:18:31Z</time>
      </trkpt>
      <trkpt lat="42.3537950" lon="-8.6138570">
        <ele>12.6</ele>
        <time>2021-05-21T09:18:32Z</time>
      </trkpt>
      <trkpt lat="42.3538020" lon="-8.6138640">
        <ele>12.6</ele>
        <time>2021-05-21T09:18:33Z</time>
      </trkpt>
      <trkpt lat="42.3538110" lon="-8.6138730">
        <ele>12.5</ele>
        <time>2021-05-21T09:18:34Z</time>
      </trkpt>
      <trkpt lat="42.3538210" lon="-8.6138820">
        <ele>12.5</ele>
        <time>2021-05-21T09:18:35Z</time>
      </trkpt>
      <trkpt lat="42.3538310" lon="-8.6138890">
        <ele>12.4</ele>
        <time>2021-05-21T09:18:36Z</time>
      </trkpt>
      <trkpt lat="42.3538410" lon="-8.6138990">
        <ele>12.4</ele>
        <time>2021-05-21T09:18:37Z</time>
      </trkpt>
      <trkpt lat="42.3538510" lon="-8.6139050">
        <ele>12.4</ele>
        <time>2021-05-21T09:18:38Z</time>
      </trkpt>
      <trkpt lat="42.3538560" lon="-8.6139120">
        <ele>12.3</ele>
        <time>2021-05-21T09:18:39Z</time>
      </trkpt>
      <trkpt lat="42.3538540" lon="-8.6139140">
        <ele>12.3</ele>
        <time>2021-05-21T09:18:40Z</time>
      </trkpt>
      <trkpt lat="42.3538520" lon="-8.6139160">
        <ele>12.3</ele>
        <time>2021-05-21T09:18:41Z</time>
      </trkpt>
      <trkpt lat="42.3538500" lon="-8.6139210">
        <ele>12.3</ele>
        <time>2021-05-21T09:18:42Z</time>
      </trkpt>
      <trkpt lat="42.3538500" lon="-8.6139230">
        <ele>12.3</ele>
        <time>2021-05-21T09:18:43Z</time>
      </trkpt>
      <trkpt lat="42.3538540" lon="-8.6139200">
        <ele>12.3</ele>
        <time>2021-05-21T09:18:44Z</time>
      </trkpt>
      <trkpt lat="42.3538450" lon="-8.6139170">
        <ele>12.3</ele>
        <time>2021-05-21T09:18:45Z</time>
      </trkpt>
      <trkpt lat="42.3538440" lon="-8.6139160">
        <ele>12.3</ele>
        <time>2021-05-21T09:18:46Z</time>
      </trkpt>
      <trkpt lat="42.3538420" lon="-8.6139200">
        <ele>12.2</ele>
        <time>2021-05-21T09:18:47Z</time>
      </trkpt>
      <trkpt lat="42.3538390" lon="-8.6139250">
        <ele>12.2</ele>
        <time>2021-05-21T09:18:48Z</time>
      </trkpt>
      <trkpt lat="42.3538420" lon="-8.6139300">
        <ele>12.2</ele>
        <time>2021-05-21T09:18:49Z</time>
      </trkpt>
      <trkpt lat="42.3538400" lon="-8.6139350">
        <ele>12.2</ele>
        <time>2021-05-21T09:18:50Z</time>
      </trkpt>
      <trkpt lat="42.3538510" lon="-8.6139450">
        <ele>12.1</ele>
        <time>2021-05-21T09:18:51Z</time>
      </trkpt>
      <trkpt lat="42.3538570" lon="-8.6139520">
        <ele>12.1</ele>
        <time>2021-05-21T09:18:52Z</time>
      </trkpt>
      <trkpt lat="42.3538800" lon="-8.6139630">
        <ele>12.0</ele>
        <time>2021-05-21T09:18:53Z</time>
      </trkpt>
      <trkpt lat="42.3538870" lon="-8.6139690">
        <ele>12.0</ele>
        <time>2021-05-21T09:18:54Z</time>
      </trkpt>
      <trkpt lat="42.3538940" lon="-8.6139750">
        <ele>12.0</ele>
        <time>2021-05-21T09:18:55Z</time>
      </trkpt>
      <trkpt lat="42.3539090" lon="-8.6139770">
        <ele>11.9</ele>
        <time>2021-05-21T09:18:56Z</time>
      </trkpt>
      <trkpt lat="42.3539180" lon="-8.6139780">
        <ele>11.9</ele>
        <time>2021-05-21T09:18:57Z</time>
      </trkpt>
      <trkpt lat="42.3539190" lon="-8.6139890">
        <ele>11.9</ele>
        <time>2021-05-21T09:18:58Z</time>
      </trkpt>
      <trkpt lat="42.3539300" lon="-8.6139920">
        <ele>11.8</ele>
        <time>2021-05-21T09:18:59Z</time>
      </trkpt>
      <trkpt lat="42.3539350" lon="-8.6140000">
        <ele>11.8</ele>
        <time>2021-05-21T09:19:00Z</time>
      </trkpt>
      <trkpt lat="42.3539450" lon="-8.6140100">
        <ele>11.7</ele>
        <time>2021-05-21T09:19:01Z</time>
      </trkpt>
      <trkpt lat="42.3539450" lon="-8.6140140">
        <ele>11.7</ele>
        <time>2021-05-21T09:19:02Z</time>
      </trkpt>
      <trkpt lat="42.3539550" lon="-8.6140160">
        <ele>11.7</ele>
        <time>2021-05-21T09:19:03Z</time>
      </trkpt>
      <trkpt lat="42.3539710" lon="-8.6140250">
        <ele>11.6</ele>
        <time>2021-05-21T09:19:04Z</time>
      </trkpt>
      <trkpt lat="42.3539790" lon="-8.6140270">
        <ele>11.6</ele>
        <time>2021-05-21T09:19:05Z</time>
      </trkpt>
      <trkpt lat="42.3539790" lon="-8.6140260">
        <ele>11.6</ele>
        <time>2021-05-21T09:19:06Z</time>
      </trkpt>
      <trkpt lat="42.3539810" lon="-8.6140290">
        <ele>11.6</ele>
        <time>2021-05-21T09:19:07Z</time>
      </trkpt>
      <trkpt lat="42.3539790" lon="-8.6140220">
        <ele>11.6</ele>
        <time>2021-05-21T09:19:08Z</time>
      </trkpt>
      <trkpt lat="42.3539840" lon="-8.6140200">
        <ele>11.6</ele>
        <time>2021-05-21T09:19:09Z</time>
      </trkpt>
      <trkpt lat="42.3539910" lon="-8.6140240">
        <ele>11.5</ele>
        <time>2021-05-21T09:19:10Z</time>
      </trkpt>
      <trkpt lat="42.3539990" lon="-8.6140250">
        <ele>11.5</ele>
        <time>2021-05-21T09:19:11Z</time>
      </trkpt>
      <trkpt lat="42.3540130" lon="-8.6140390">
        <ele>11.4</ele>
        <time>2021-05-21T09:19:12Z</time>
      </trkpt>
      <trkpt lat="42.3540250" lon="-8.6140490">
        <ele>11.4</ele>
        <time>2021-05-21T09:19:13Z</time>
      </trkpt>
      <trkpt lat="42.3540310" lon="-8.6140610">
        <ele>11.3</ele>
        <time>2021-05-21T09:19:14Z</time>
      </trkpt>
      <trkpt lat="42.3540420" lon="-8.6140670">
        <ele>11.3</ele>
        <time>2021-05-21T09:19:15Z</time>
      </trkpt>
      <trkpt lat="42.3540510" lon="-8.6140770">
        <ele>11.2</ele>
        <time>2021-05-21T09:19:16Z</time>
      </trkpt>
      <trkpt lat="42.3540630" lon="-8.6140820">
        <ele>11.2</ele>
        <time>2021-05-21T09:19:17Z</time>
      </trkpt>
      <trkpt lat="42.3540750" lon="-8.6140940">
        <ele>11.1</ele>
        <time>2021-05-21T09:19:18Z</time>
      </trkpt>
      <trkpt lat="42.3540840" lon="-8.6140980">
        <ele>11.1</ele>
        <time>2021-05-21T09:19:19Z</time>
      </trkpt>
      <trkpt lat="42.3540950" lon="-8.6141010">
        <ele>11.0</ele>
        <time>2021-05-21T09:19:20Z</time>
      </trkpt>
      <trkpt lat="42.3541070" lon="-8.6141050">
        <ele>11.0</ele>
        <time>2021-05-21T09:19:21Z</time>
      </trkpt>
      <trkpt lat="42.3541250" lon="-8.6141100">
        <ele>10.9</ele>
        <time>2021-05-21T09:19:22Z</time>
      </trkpt>
      <trkpt lat="42.3541380" lon="-8.6141080">
        <ele>10.8</ele>
        <time>2021-05-21T09:19:23Z</time>
      </trkpt>
      <trkpt lat="42.3541540" lon="-8.6141180">
        <ele>10.7</ele>
        <time>2021-05-21T09:19:24Z</time>
      </trkpt>
      <trkpt lat="42.3541730" lon="-8.6141160">
        <ele>10.7</ele>
        <time>2021-05-21T09:19:25Z</time>
      </trkpt>
      <trkpt lat="42.3541890" lon="-8.6141180">
        <ele>10.6</ele>
        <time>2021-05-21T09:19:26Z</time>
      </trkpt>
      <trkpt lat="42.3542010" lon="-8.6141260">
        <ele>10.5</ele>
        <time>2021-05-21T09:19:27Z</time>
      </trkpt>
      <trkpt lat="42.3542180" lon="-8.6141330">
        <ele>10.4</ele>
        <time>2021-05-21T09:19:28Z</time>
      </trkpt>
      <trkpt lat="42.3542290" lon="-8.6141400">
        <ele>10.4</ele>
        <time>2021-05-21T09:19:29Z</time>
      </trkpt>
      <trkpt lat="42.3542400" lon="-8.6141440">
        <ele>10.3</ele>
        <time>2021-05-21T09:19:30Z</time>
      </trkpt>
      <trkpt lat="42.3542490" lon="-8.6141510">
        <ele>10.3</ele>
        <time>2021-05-21T09:19:31Z</time>
      </trkpt>
      <trkpt lat="42.3542580" lon="-8.6141560">
        <ele>10.2</ele>
        <time>2021-05-21T09:19:32Z</time>
      </trkpt>
      <trkpt lat="42.3542690" lon="-8.6141610">
        <ele>10.2</ele>
        <time>2021-05-21T09:19:33Z</time>
      </trkpt>
      <trkpt lat="42.3542740" lon="-8.6141650">
        <ele>10.2</ele>
        <time>2021-05-21T09:19:34Z</time>
      </trkpt>
      <trkpt lat="42.3542920" lon="-8.6141640">
        <ele>10.1</ele>
        <time>2021-05-21T09:19:35Z</time>
      </trkpt>
      <trkpt lat="42.3543130" lon="-8.6141670">
        <ele>10.0</ele>
        <time>2021-05-21T09:19:36Z</time>
      </trkpt>
      <trkpt lat="42.3543280" lon="-8.6141710">
        <ele>10.0</ele>
        <time>2021-05-21T09:19:37Z</time>
      </trkpt>
      <trkpt lat="42.3543460" lon="-8.6141700">
        <ele>9.9</ele>
        <time>2021-05-21T09:19:38Z</time>
      </trkpt>
      <trkpt lat="42.3543600" lon="-8.6141750">
        <ele>9.9</ele>
        <time>2021-05-21T09:19:39Z</time>
      </trkpt>
      <trkpt lat="42.3543700" lon="-8.6141800">
        <ele>9.8</ele>
        <time>2021-05-21T09:19:40Z</time>
      </trkpt>
      <trkpt lat="42.3543890" lon="-8.6141830">
        <ele>9.8</ele>
        <time>2021-05-21T09:19:41Z</time>
      </trkpt>
      <trkpt lat="42.3544010" lon="-8.6141890">
        <ele>9.7</ele>
        <time>2021-05-21T09:19:43Z</time>
      </trkpt>
      <trkpt lat="42.3544080" lon="-8.6141970">
        <ele>9.7</ele>
        <time>2021-05-21T09:19:44Z</time>
      </trkpt>
      <trkpt lat="42.3544160" lon="-8.6142040">
        <ele>9.7</ele>
        <time>2021-05-21T09:19:45Z</time>
      </trkpt>
      <trkpt lat="42.3544340" lon="-8.6142120">
        <ele>9.6</ele>
        <time>2021-05-21T09:19:46Z</time>
      </trkpt>
      <trkpt lat="42.3544440" lon="-8.6142140">
        <ele>9.6</ele>
        <time>2021-05-21T09:19:47Z</time>
      </trkpt>
      <trkpt lat="42.3544570" lon="-8.6142120">
        <ele>9.6</ele>
        <time>2021-05-21T09:19:48Z</time>
      </trkpt>
      <trkpt lat="42.3544620" lon="-8.6142130">
        <ele>9.6</ele>
        <time>2021-05-21T09:19:49Z</time>
      </trkpt>
      <trkpt lat="42.3544740" lon="-8.6142210">
        <ele>9.5</ele>
        <time>2021-05-21T09:19:50Z</time>
      </trkpt>
      <trkpt lat="42.3544870" lon="-8.6142320">
        <ele>9.5</ele>
        <time>2021-05-21T09:19:51Z</time>
      </trkpt>
      <trkpt lat="42.3545000" lon="-8.6142370">
        <ele>9.5</ele>
        <time>2021-05-21T09:19:52Z</time>
      </trkpt>
      <trkpt lat="42.3545120" lon="-8.6142440">
        <ele>9.4</ele>
        <time>2021-05-21T09:19:53Z</time>
      </trkpt>
      <trkpt lat="42.3545190" lon="-8.6142510">
        <ele>9.4</ele>
        <time>2021-05-21T09:19:54Z</time>
      </trkpt>
      <trkpt lat="42.3545250" lon="-8.6142580">
        <ele>9.4</ele>
        <time>2021-05-21T09:19:55Z</time>
      </trkpt>
      <trkpt lat="42.3545310" lon="-8.6142650">
        <ele>9.4</ele>
        <time>2021-05-21T09:19:56Z</time>
      </trkpt>
      <trkpt lat="42.3545330" lon="-8.6142660">
        <ele>9.4</ele>
        <time>2021-05-21T09:19:57Z</time>
      </trkpt>
      <trkpt lat="42.3545490" lon="-8.6142660">
        <ele>9.4</ele>
        <time>2021-05-21T09:19:58Z</time>
      </trkpt>
      <trkpt lat="42.3545590" lon="-8.6142590">
        <ele>9.3</ele>
        <time>2021-05-21T09:19:59Z</time>
      </trkpt>
      <trkpt lat="42.3545720" lon="-8.6142690">
        <ele>9.3</ele>
        <time>2021-05-21T09:20:00Z</time>
      </trkpt>
      <trkpt lat="42.3545830" lon="-8.6142650">
        <ele>9.3</ele>
        <time>2021-05-21T09:20:01Z</time>
      </trkpt>
      <trkpt lat="42.3545890" lon="-8.6142790">
        <ele>9.3</ele>
        <time>2021-05-21T09:20:02Z</time>
      </trkpt>
      <trkpt lat="42.3546010" lon="-8.6142850">
        <ele>9.3</ele>
        <time>2021-05-21T09:20:03Z</time>
      </trkpt>
      <trkpt lat="42.3546080" lon="-8.6142870">
        <ele>9.3</ele>
        <time>2021-05-21T09:20:04Z</time>
      </trkpt>
      <trkpt lat="42.3546140" lon="-8.6142880">
        <ele>9.3</ele>
        <time>2021-05-21T09:20:05Z</time>
      </trkpt>
      <trkpt lat="42.3546210" lon="-8.6142900">
        <ele>9.3</ele>
        <time>2021-05-21T09:20:06Z</time>
      </trkpt>
      <trkpt lat="42.3546280" lon="-8.6142910">
        <ele>9.2</ele>
        <time>2021-05-21T09:20:07Z</time>
      </trkpt>
      <trkpt lat="42.3546390" lon="-8.6142970">
        <ele>9.2</ele>
        <time>2021-05-21T09:20:08Z</time>
      </trkpt>
      <trkpt lat="42.3546370" lon="-8.6143010">
        <ele>9.2</ele>
        <time>2021-05-21T09:20:09Z</time>
      </trkpt>
      <trkpt lat="42.3546390" lon="-8.6143050">
        <ele>9.2</ele>
        <time>2021-05-21T09:20:10Z</time>
      </trkpt>
      <trkpt lat="42.3546380" lon="-8.6143170">
        <ele>9.2</ele>
        <time>2021-05-21T09:20:11Z</time>
      </trkpt>
      <trkpt lat="42.3546370" lon="-8.6143270">
        <ele>9.2</ele>
        <time>2021-05-21T09:20:12Z</time>
      </trkpt>
      <trkpt lat="42.3546460" lon="-8.6143410">
        <ele>9.2</ele>
        <time>2021-05-21T09:20:13Z</time>
      </trkpt>
      <trkpt lat="42.3546530" lon="-8.6143470">
        <ele>9.2</ele>
        <time>2021-05-21T09:20:14Z</time>
      </trkpt>
      <trkpt lat="42.3546590" lon="-8.6143500">
        <ele>9.2</ele>
        <time>2021-05-21T09:20:15Z</time>
      </trkpt>
      <trkpt lat="42.3546770" lon="-8.6143570">
        <ele>9.2</ele>
        <time>2021-05-21T09:20:16Z</time>
      </trkpt>
      <trkpt lat="42.3546820" lon="-8.6143610">
        <ele>9.2</ele>
        <time>2021-05-21T09:20:17Z</time>
      </trkpt>
      <trkpt lat="42.3546890" lon="-8.6143730">
        <ele>9.2</ele>
        <time>2021-05-21T09:20:18Z</time>
      </trkpt>
      <trkpt lat="42.3546960" lon="-8.6143920">
        <ele>9.2</ele>
        <time>2021-05-21T09:20:19Z</time>
      </trkpt>
      <trkpt lat="42.3547050" lon="-8.6143950">
        <ele>9.2</ele>
        <time>2021-05-21T09:20:20Z</time>
      </trkpt>
      <trkpt lat="42.3547130" lon="-8.6143990">
        <ele>9.2</ele>
        <time>2021-05-21T09:20:21Z</time>
      </trkpt>
      <trkpt lat="42.3547220" lon="-8.6144020">
        <ele>9.2</ele>
        <time>2021-05-21T09:20:22Z</time>
      </trkpt>
      <trkpt lat="42.3547320" lon="-8.6144160">
        <ele>9.2</ele>
        <time>2021-05-21T09:20:23Z</time>
      </trkpt>
      <trkpt lat="42.3547400" lon="-8.6144280">
        <ele>9.2</ele>
        <time>2021-05-21T09:20:24Z</time>
      </trkpt>
      <trkpt lat="42.3547460" lon="-8.6144380">
        <ele>9.2</ele>
        <time>2021-05-21T09:20:25Z</time>
      </trkpt>
      <trkpt lat="42.3547580" lon="-8.6144410">
        <ele>9.2</ele>
        <time>2021-05-21T09:20:26Z</time>
      </trkpt>
      <trkpt lat="42.3547600" lon="-8.6144450">
        <ele>9.2</ele>
        <time>2021-05-21T09:20:27Z</time>
      </trkpt>
      <trkpt lat="42.3547590" lon="-8.6144440">
        <ele>9.2</ele>
        <time>2021-05-21T09:20:28Z</time>
      </trkpt>
      <trkpt lat="42.3547590" lon="-8.6144360">
        <ele>9.2</ele>
        <time>2021-05-21T09:20:29Z</time>
      </trkpt>
      <trkpt lat="42.3547610" lon="-8.6144290">
        <ele>9.2</ele>
        <time>2021-05-21T09:20:30Z</time>
      </trkpt>
      <trkpt lat="42.3547610" lon="-8.6144340">
        <ele>9.2</ele>
        <time>2021-05-21T09:20:31Z</time>
      </trkpt>
      <trkpt lat="42.3547570" lon="-8.6144350">
        <ele>9.2</ele>
        <time>2021-05-21T09:20:32Z</time>
      </trkpt>
      <trkpt lat="42.3547580" lon="-8.6144310">
        <ele>9.2</ele>
        <time>2021-05-21T09:20:33Z</time>
      </trkpt>
      <trkpt lat="42.3547560" lon="-8.6144310">
        <ele>9.2</ele>
        <time>2021-05-21T09:20:34Z</time>
      </trkpt>
      <trkpt lat="42.3547550" lon="-8.6144230">
        <ele>9.2</ele>
        <time>2021-05-21T09:20:35Z</time>
      </trkpt>
      <trkpt lat="42.3547510" lon="-8.6144220">
        <ele>9.2</ele>
        <time>2021-05-21T09:20:36Z</time>
      </trkpt>
      <trkpt lat="42.3547510" lon="-8.6144220">
        <ele>9.2</ele>
        <time>2021-05-21T09:20:37Z</time>
      </trkpt>
      <trkpt lat="42.3547480" lon="-8.6144210">
        <ele>9.2</ele>
        <time>2021-05-21T09:20:38Z</time>
      </trkpt>
      <trkpt lat="42.3547480" lon="-8.6144340">
        <ele>9.2</ele>
        <time>2021-05-21T09:20:39Z</time>
      </trkpt>
      <trkpt lat="42.3547470" lon="-8.6144400">
        <ele>9.2</ele>
        <time>2021-05-21T09:20:40Z</time>
      </trkpt>
      <trkpt lat="42.3547470" lon="-8.6144400">
        <ele>9.2</ele>
        <time>2021-05-21T09:20:41Z</time>
      </trkpt>
      <trkpt lat="42.3547450" lon="-8.6144380">
        <ele>9.2</ele>
        <time>2021-05-21T09:20:42Z</time>
      </trkpt>
      <trkpt lat="42.3547440" lon="-8.6144420">
        <ele>9.2</ele>
        <time>2021-05-21T09:20:43Z</time>
      </trkpt>
      <trkpt lat="42.3547420" lon="-8.6144340">
        <ele>9.2</ele>
        <time>2021-05-21T09:20:44Z</time>
      </trkpt>
      <trkpt lat="42.3547460" lon="-8.6144260">
        <ele>9.2</ele>
        <time>2021-05-21T09:20:45Z</time>
      </trkpt>
      <trkpt lat="42.3547450" lon="-8.6144240">
        <ele>9.2</ele>
        <time>2021-05-21T09:20:46Z</time>
      </trkpt>
      <trkpt lat="42.3547430" lon="-8.6144240">
        <ele>9.2</ele>
        <time>2021-05-21T09:20:47Z</time>
      </trkpt>
      <trkpt lat="42.3547400" lon="-8.6144230">
        <ele>9.2</ele>
        <time>2021-05-21T09:20:48Z</time>
      </trkpt>
      <trkpt lat="42.3547390" lon="-8.6144230">
        <ele>9.2</ele>
        <time>2021-05-21T09:20:49Z</time>
      </trkpt>
      <trkpt lat="42.3547390" lon="-8.6144230">
        <ele>9.2</ele>
        <time>2021-05-21T09:20:50Z</time>
      </trkpt>
      <trkpt lat="42.3547400" lon="-8.6144350">
        <ele>9.2</ele>
        <time>2021-05-21T09:20:51Z</time>
      </trkpt>
      <trkpt lat="42.3547390" lon="-8.6144310">
        <ele>9.2</ele>
        <time>2021-05-21T09:20:52Z</time>
      </trkpt>
      <trkpt lat="42.3547390" lon="-8.6144310">
        <ele>9.2</ele>
        <time>2021-05-21T09:20:53Z</time>
      </trkpt>
      <trkpt lat="42.3547390" lon="-8.6144310">
        <ele>9.2</ele>
        <time>2021-05-21T09:20:54Z</time>
      </trkpt>
      <trkpt lat="42.3547440" lon="-8.6144290">
        <ele>9.2</ele>
        <time>2021-05-21T09:20:55Z</time>
      </trkpt>
      <trkpt lat="42.3547430" lon="-8.6144310">
        <ele>9.2</ele>
        <time>2021-05-21T09:20:56Z</time>
      </trkpt>
      <trkpt lat="42.3547320" lon="-8.6144330">
        <ele>9.2</ele>
        <time>2021-05-21T09:20:57Z</time>
      </trkpt>
      <trkpt lat="42.3547350" lon="-8.6144350">
        <ele>9.2</ele>
        <time>2021-05-21T09:20:58Z</time>
      </trkpt>
      <trkpt lat="42.3547440" lon="-8.6144400">
        <ele>9.2</ele>
        <time>2021-05-21T09:20:59Z</time>
      </trkpt>
      <trkpt lat="42.3547590" lon="-8.6144610">
        <ele>9.3</ele>
        <time>2021-05-21T09:21:00Z</time>
      </trkpt>
      <trkpt lat="42.3547630" lon="-8.6144770">
        <ele>9.3</ele>
        <time>2021-05-21T09:21:01Z</time>
      </trkpt>
      <trkpt lat="42.3547840" lon="-8.6145090">
        <ele>9.3</ele>
        <time>2021-05-21T09:21:02Z</time>
      </trkpt>
      <trkpt lat="42.3547880" lon="-8.6145170">
        <ele>9.3</ele>
        <time>2021-05-21T09:21:03Z</time>
      </trkpt>
      <trkpt lat="42.3547900" lon="-8.6145110">
        <ele>9.3</ele>
        <time>2021-05-21T09:21:04Z</time>
      </trkpt>
      <trkpt lat="42.3547940" lon="-8.6145130">
        <ele>9.3</ele>
        <time>2021-05-21T09:21:05Z</time>
      </trkpt>
      <trkpt lat="42.3547990" lon="-8.6145140">
        <ele>9.4</ele>
        <time>2021-05-21T09:21:06Z</time>
      </trkpt>
      <trkpt lat="42.3548020" lon="-8.6145020">
        <ele>9.4</ele>
        <time>2021-05-21T09:21:07Z</time>
      </trkpt>
      <trkpt lat="42.3548070" lon="-8.6144800">
        <ele>9.4</ele>
        <time>2021-05-21T09:21:08Z</time>
      </trkpt>
      <trkpt lat="42.3548130" lon="-8.6144750">
        <ele>9.4</ele>
        <time>2021-05-21T09:21:09Z</time>
      </trkpt>
      <trkpt lat="42.3548190" lon="-8.6144660">
        <ele>9.4</ele>
        <time>2021-05-21T09:21:10Z</time>
      </trkpt>
      <trkpt lat="42.3548200" lon="-8.6144630">
        <ele>9.4</ele>
        <time>2021-05-21T09:21:11Z</time>
      </trkpt>
      <trkpt lat="42.3548260" lon="-8.6144560">
        <ele>9.4</ele>
        <time>2021-05-21T09:21:12Z</time>
      </trkpt>
      <trkpt lat="42.3548290" lon="-8.6144550">
        <ele>9.4</ele>
        <time>2021-05-21T09:21:13Z</time>
      </trkpt>
      <trkpt lat="42.3548310" lon="-8.6144520">
        <ele>9.4</ele>
        <time>2021-05-21T09:21:14Z</time>
      </trkpt>
      <trkpt lat="42.3548330" lon="-8.6144530">
        <ele>9.4</ele>
        <time>2021-05-21T09:21:15Z</time>
      </trkpt>
      <trkpt lat="42.3548320" lon="-8.6144540">
        <ele>9.4</ele>
        <time>2021-05-21T09:21:16Z</time>
      </trkpt>
      <trkpt lat="42.3548290" lon="-8.6144530">
        <ele>9.5</ele>
        <time>2021-05-21T09:21:17Z</time>
      </trkpt>
      <trkpt lat="42.3548290" lon="-8.6144530">
        <ele>9.5</ele>
        <time>2021-05-21T09:21:18Z</time>
      </trkpt>
      <trkpt lat="42.3548290" lon="-8.6144530">
        <ele>9.5</ele>
        <time>2021-05-21T09:21:19Z</time>
      </trkpt>
      <trkpt lat="42.3548260" lon="-8.6144560">
        <ele>9.5</ele>
        <time>2021-05-21T09:21:20Z</time>
      </trkpt>
      <trkpt lat="42.3548270" lon="-8.6144580">
        <ele>9.5</ele>
        <time>2021-05-21T09:21:21Z</time>
      </trkpt>
      <trkpt lat="42.3548200" lon="-8.6144590">
        <ele>9.5</ele>
        <time>2021-05-21T09:21:22Z</time>
      </trkpt>
      <trkpt lat="42.3548150" lon="-8.6144590">
        <ele>9.5</ele>
        <time>2021-05-21T09:21:23Z</time>
      </trkpt>
      <trkpt lat="42.3548120" lon="-8.6144500">
        <ele>9.5</ele>
        <time>2021-05-21T09:21:24Z</time>
      </trkpt>
      <trkpt lat="42.3548120" lon="-8.6144490">
        <ele>9.5</ele>
        <time>2021-05-21T09:21:25Z</time>
      </trkpt>
      <trkpt lat="42.3548140" lon="-8.6144350">
        <ele>9.5</ele>
        <time>2021-05-21T09:21:26Z</time>
      </trkpt>
      <trkpt lat="42.3548180" lon="-8.6144310">
        <ele>9.5</ele>
        <time>2021-05-21T09:21:27Z</time>
      </trkpt>
      <trkpt lat="42.3548190" lon="-8.6144390">
        <ele>9.5</ele>
        <time>2021-05-21T09:21:28Z</time>
      </trkpt>
      <trkpt lat="42.3548200" lon="-8.6144420">
        <ele>9.6</ele>
        <time>2021-05-21T09:21:29Z</time>
      </trkpt>
      <trkpt lat="42.3548210" lon="-8.6144480">
        <ele>9.6</ele>
        <time>2021-05-21T09:21:30Z</time>
      </trkpt>
      <trkpt lat="42.3548230" lon="-8.6144480">
        <ele>9.6</ele>
        <time>2021-05-21T09:21:31Z</time>
      </trkpt>
      <trkpt lat="42.3548220" lon="-8.6144510">
        <ele>9.6</ele>
        <time>2021-05-21T09:21:32Z</time>
      </trkpt>
      <trkpt lat="42.3548220" lon="-8.6144500">
        <ele>9.6</ele>
        <time>2021-05-21T09:21:33Z</time>
      </trkpt>
      <trkpt lat="42.3548250" lon="-8.6144520">
        <ele>9.6</ele>
        <time>2021-05-21T09:21:34Z</time>
      </trkpt>
      <trkpt lat="42.3548280" lon="-8.6144520">
        <ele>9.6</ele>
        <time>2021-05-21T09:21:35Z</time>
      </trkpt>
      <trkpt lat="42.3548260" lon="-8.6144500">
        <ele>9.6</ele>
        <time>2021-05-21T09:21:36Z</time>
      </trkpt>
      <trkpt lat="42.3548270" lon="-8.6144510">
        <ele>9.6</ele>
        <time>2021-05-21T09:21:37Z</time>
      </trkpt>
      <trkpt lat="42.3548250" lon="-8.6144550">
        <ele>9.6</ele>
        <time>2021-05-21T09:21:38Z</time>
      </trkpt>
      <trkpt lat="42.3548230" lon="-8.6144630">
        <ele>9.6</ele>
        <time>2021-05-21T09:21:39Z</time>
      </trkpt>
      <trkpt lat="42.3548190" lon="-8.6144680">
        <ele>9.7</ele>
        <time>2021-05-21T09:21:40Z</time>
      </trkpt>
      <trkpt lat="42.3548190" lon="-8.6144680">
        <ele>9.7</ele>
        <time>2021-05-21T09:21:41Z</time>
      </trkpt>
      <trkpt lat="42.3548190" lon="-8.6144680">
        <ele>9.7</ele>
        <time>2021-05-21T09:21:42Z</time>
      </trkpt>
      <trkpt lat="42.3548160" lon="-8.6144860">
        <ele>9.7</ele>
        <time>2021-05-21T09:21:43Z</time>
      </trkpt>
      <trkpt lat="42.3548160" lon="-8.6144860">
        <ele>9.7</ele>
        <time>2021-05-21T09:21:44Z</time>
      </trkpt>
      <trkpt lat="42.3548150" lon="-8.6144980">
        <ele>9.7</ele>
        <time>2021-05-21T09:21:45Z</time>
      </trkpt>
      <trkpt lat="42.3548140" lon="-8.6145020">
        <ele>9.7</ele>
        <time>2021-05-21T09:21:46Z</time>
      </trkpt>
      <trkpt lat="42.3548160" lon="-8.6145040">
        <ele>9.7</ele>
        <time>2021-05-21T09:21:47Z</time>
      </trkpt>
      <trkpt lat="42.3548220" lon="-8.6145170">
        <ele>9.8</ele>
        <time>2021-05-21T09:21:48Z</time>
      </trkpt>
      <trkpt lat="42.3548260" lon="-8.6145310">
        <ele>9.8</ele>
        <time>2021-05-21T09:21:49Z</time>
      </trkpt>
      <trkpt lat="42.3548290" lon="-8.6145410">
        <ele>9.9</ele>
        <time>2021-05-21T09:21:50Z</time>
      </trkpt>
      <trkpt lat="42.3548450" lon="-8.6145620">
        <ele>9.9</ele>
        <time>2021-05-21T09:21:51Z</time>
      </trkpt>
      <trkpt lat="42.3548530" lon="-8.6145700">
        <ele>10.0</ele>
        <time>2021-05-21T09:21:52Z</time>
      </trkpt>
      <trkpt lat="42.3548610" lon="-8.6145790">
        <ele>10.0</ele>
        <time>2021-05-21T09:21:53Z</time>
      </trkpt>
      <trkpt lat="42.3548880" lon="-8.6145870">
        <ele>10.2</ele>
        <time>2021-05-21T09:21:54Z</time>
      </trkpt>
      <trkpt lat="42.3548980" lon="-8.6145950">
        <ele>10.2</ele>
        <time>2021-05-21T09:21:55Z</time>
      </trkpt>
      <trkpt lat="42.3549020" lon="-8.6145980">
        <ele>10.3</ele>
        <time>2021-05-21T09:21:56Z</time>
      </trkpt>
      <trkpt lat="42.3549100" lon="-8.6146050">
        <ele>10.3</ele>
        <time>2021-05-21T09:21:57Z</time>
      </trkpt>
      <trkpt lat="42.3549270" lon="-8.6146050">
        <ele>10.5</ele>
        <time>2021-05-21T09:21:58Z</time>
      </trkpt>
      <trkpt lat="42.3549360" lon="-8.6146110">
        <ele>10.5</ele>
        <time>2021-05-21T09:21:59Z</time>
      </trkpt>
      <trkpt lat="42.3549480" lon="-8.6146260">
        <ele>10.6</ele>
        <time>2021-05-21T09:22:00Z</time>
      </trkpt>
      <trkpt lat="42.3549590" lon="-8.6146260">
        <ele>10.7</ele>
        <time>2021-05-21T09:22:01Z</time>
      </trkpt>
      <trkpt lat="42.3549680" lon="-8.6146260">
        <ele>10.8</ele>
        <time>2021-05-21T09:22:02Z</time>
      </trkpt>
      <trkpt lat="42.3549740" lon="-8.6146310">
        <ele>10.9</ele>
        <time>2021-05-21T09:22:03Z</time>
      </trkpt>
      <trkpt lat="42.3549890" lon="-8.6146350">
        <ele>11.0</ele>
        <time>2021-05-21T09:22:04Z</time>
      </trkpt>
      <trkpt lat="42.3550000" lon="-8.6146480">
        <ele>11.1</ele>
        <time>2021-05-21T09:22:05Z</time>
      </trkpt>
      <trkpt lat="42.3550130" lon="-8.6146560">
        <ele>11.2</ele>
        <time>2021-05-21T09:22:06Z</time>
      </trkpt>
      <trkpt lat="42.3550270" lon="-8.6146730">
        <ele>11.4</ele>
        <time>2021-05-21T09:22:07Z</time>
      </trkpt>
      <trkpt lat="42.3550330" lon="-8.6146760">
        <ele>11.5</ele>
        <time>2021-05-21T09:22:08Z</time>
      </trkpt>
      <trkpt lat="42.3550380" lon="-8.6146800">
        <ele>11.5</ele>
        <time>2021-05-21T09:22:09Z</time>
      </trkpt>
      <trkpt lat="42.3550430" lon="-8.6146830">
        <ele>11.6</ele>
        <time>2021-05-21T09:22:10Z</time>
      </trkpt>
      <trkpt lat="42.3550620" lon="-8.6146950">
        <ele>11.8</ele>
        <time>2021-05-21T09:22:11Z</time>
      </trkpt>
      <trkpt lat="42.3550720" lon="-8.6147010">
        <ele>11.9</ele>
        <time>2021-05-21T09:22:12Z</time>
      </trkpt>
      <trkpt lat="42.3550830" lon="-8.6147070">
        <ele>12.0</ele>
        <time>2021-05-21T09:22:13Z</time>
      </trkpt>
      <trkpt lat="42.3550870" lon="-8.6147140">
        <ele>12.1</ele>
        <time>2021-05-21T09:22:14Z</time>
      </trkpt>
      <trkpt lat="42.3551000" lon="-8.6147140">
        <ele>12.3</ele>
        <time>2021-05-21T09:22:15Z</time>
      </trkpt>
      <trkpt lat="42.3551140" lon="-8.6147240">
        <ele>12.4</ele>
        <time>2021-05-21T09:22:16Z</time>
      </trkpt>
      <trkpt lat="42.3551330" lon="-8.6147200">
        <ele>12.6</ele>
        <time>2021-05-21T09:22:17Z</time>
      </trkpt>
      <trkpt lat="42.3551380" lon="-8.6147200">
        <ele>12.7</ele>
        <time>2021-05-21T09:22:18Z</time>
      </trkpt>
      <trkpt lat="42.3551500" lon="-8.6147220">
        <ele>12.8</ele>
        <time>2021-05-21T09:22:19Z</time>
      </trkpt>
      <trkpt lat="42.3551640" lon="-8.6147280">
        <ele>13.0</ele>
        <time>2021-05-21T09:22:20Z</time>
      </trkpt>
      <trkpt lat="42.3551700" lon="-8.6147320">
        <ele>13.0</ele>
        <time>2021-05-21T09:22:21Z</time>
      </trkpt>
      <trkpt lat="42.3551770" lon="-8.6147360">
        <ele>13.1</ele>
        <time>2021-05-21T09:22:22Z</time>
      </trkpt>
      <trkpt lat="42.3551830" lon="-8.6147400">
        <ele>13.2</ele>
        <time>2021-05-21T09:22:23Z</time>
      </trkpt>
      <trkpt lat="42.3551810" lon="-8.6147450">
        <ele>13.2</ele>
        <time>2021-05-21T09:22:24Z</time>
      </trkpt>
      <trkpt lat="42.3551920" lon="-8.6147500">
        <ele>13.3</ele>
        <time>2021-05-21T09:22:25Z</time>
      </trkpt>
      <trkpt lat="42.3552040" lon="-8.6147510">
        <ele>13.5</ele>
        <time>2021-05-21T09:22:26Z</time>
      </trkpt>
      <trkpt lat="42.3552110" lon="-8.6147570">
        <ele>13.5</ele>
        <time>2021-05-21T09:22:27Z</time>
      </trkpt>
      <trkpt lat="42.3552210" lon="-8.6147660">
        <ele>13.7</ele>
        <time>2021-05-21T09:22:28Z</time>
      </trkpt>
      <trkpt lat="42.3552260" lon="-8.6147700">
        <ele>13.7</ele>
        <time>2021-05-21T09:22:29Z</time>
      </trkpt>
      <trkpt lat="42.3552320" lon="-8.6147740">
        <ele>13.8</ele>
        <time>2021-05-21T09:22:30Z</time>
      </trkpt>
      <trkpt lat="42.3552370" lon="-8.6147780">
        <ele>13.8</ele>
        <time>2021-05-21T09:22:31Z</time>
      </trkpt>
      <trkpt lat="42.3552430" lon="-8.6147820">
        <ele>13.9</ele>
        <time>2021-05-21T09:22:32Z</time>
      </trkpt>
      <trkpt lat="42.3552590" lon="-8.6147970">
        <ele>14.1</ele>
        <time>2021-05-21T09:22:33Z</time>
      </trkpt>
      <trkpt lat="42.3552730" lon="-8.6148050">
        <ele>14.2</ele>
        <time>2021-05-21T09:22:34Z</time>
      </trkpt>
      <trkpt lat="42.3552830" lon="-8.6148100">
        <ele>14.3</ele>
        <time>2021-05-21T09:22:35Z</time>
      </trkpt>
      <trkpt lat="42.3552910" lon="-8.6148150">
        <ele>14.4</ele>
        <time>2021-05-21T09:22:36Z</time>
      </trkpt>
      <trkpt lat="42.3553080" lon="-8.6148190">
        <ele>14.5</ele>
        <time>2021-05-21T09:22:37Z</time>
      </trkpt>
      <trkpt lat="42.3553170" lon="-8.6148210">
        <ele>14.6</ele>
        <time>2021-05-21T09:22:38Z</time>
      </trkpt>
      <trkpt lat="42.3553290" lon="-8.6148220">
        <ele>14.7</ele>
        <time>2021-05-21T09:22:39Z</time>
      </trkpt>
      <trkpt lat="42.3553300" lon="-8.6148330">
        <ele>14.8</ele>
        <time>2021-05-21T09:22:40Z</time>
      </trkpt>
      <trkpt lat="42.3553410" lon="-8.6148360">
        <ele>14.8</ele>
        <time>2021-05-21T09:22:41Z</time>
      </trkpt>
      <trkpt lat="42.3553500" lon="-8.6148600">
        <ele>15.0</ele>
        <time>2021-05-21T09:22:42Z</time>
      </trkpt>
      <trkpt lat="42.3553570" lon="-8.6148720">
        <ele>15.1</ele>
        <time>2021-05-21T09:22:43Z</time>
      </trkpt>
      <trkpt lat="42.3553650" lon="-8.6148830">
        <ele>15.2</ele>
        <time>2021-05-21T09:22:44Z</time>
      </trkpt>
      <trkpt lat="42.3553770" lon="-8.6148950">
        <ele>15.3</ele>
        <time>2021-05-21T09:22:45Z</time>
      </trkpt>
      <trkpt lat="42.3553810" lon="-8.6149020">
        <ele>15.4</ele>
        <time>2021-05-21T09:22:46Z</time>
      </trkpt>
      <trkpt lat="42.3553860" lon="-8.6149100">
        <ele>15.5</ele>
        <time>2021-05-21T09:22:47Z</time>
      </trkpt>
      <trkpt lat="42.3553900" lon="-8.6149170">
        <ele>15.5</ele>
        <time>2021-05-21T09:22:48Z</time>
      </trkpt>
      <trkpt lat="42.3553950" lon="-8.6149240">
        <ele>15.6</ele>
        <time>2021-05-21T09:22:49Z</time>
      </trkpt>
      <trkpt lat="42.3554190" lon="-8.6149480">
        <ele>15.8</ele>
        <time>2021-05-21T09:22:50Z</time>
      </trkpt>
      <trkpt lat="42.3554170" lon="-8.6149590">
        <ele>15.9</ele>
        <time>2021-05-21T09:22:51Z</time>
      </trkpt>
      <trkpt lat="42.3554240" lon="-8.6149700">
        <ele>16.0</ele>
        <time>2021-05-21T09:22:52Z</time>
      </trkpt>
      <trkpt lat="42.3554240" lon="-8.6149830">
        <ele>16.1</ele>
        <time>2021-05-21T09:22:53Z</time>
      </trkpt>
      <trkpt lat="42.3554310" lon="-8.6149850">
        <ele>16.2</ele>
        <time>2021-05-21T09:22:54Z</time>
      </trkpt>
      <trkpt lat="42.3554310" lon="-8.6149890">
        <ele>16.2</ele>
        <time>2021-05-21T09:22:55Z</time>
      </trkpt>
      <trkpt lat="42.3554410" lon="-8.6150120">
        <ele>16.4</ele>
        <time>2021-05-21T09:22:56Z</time>
      </trkpt>
      <trkpt lat="42.3554510" lon="-8.6150180">
        <ele>16.5</ele>
        <time>2021-05-21T09:22:57Z</time>
      </trkpt>
      <trkpt lat="42.3554670" lon="-8.6150410">
        <ele>16.7</ele>
        <time>2021-05-21T09:22:58Z</time>
      </trkpt>
      <trkpt lat="42.3554760" lon="-8.6150500">
        <ele>16.8</ele>
        <time>2021-05-21T09:22:59Z</time>
      </trkpt>
      <trkpt lat="42.3554840" lon="-8.6150590">
        <ele>16.9</ele>
        <time>2021-05-21T09:23:00Z</time>
      </trkpt>
      <trkpt lat="42.3554920" lon="-8.6150570">
        <ele>17.0</ele>
        <time>2021-05-21T09:23:01Z</time>
      </trkpt>
      <trkpt lat="42.3554910" lon="-8.6150630">
        <ele>17.0</ele>
        <time>2021-05-21T09:23:02Z</time>
      </trkpt>
      <trkpt lat="42.3554890" lon="-8.6150680">
        <ele>17.1</ele>
        <time>2021-05-21T09:23:03Z</time>
      </trkpt>
      <trkpt lat="42.3554980" lon="-8.6150810">
        <ele>17.2</ele>
        <time>2021-05-21T09:23:04Z</time>
      </trkpt>
      <trkpt lat="42.3555080" lon="-8.6150930">
        <ele>17.4</ele>
        <time>2021-05-21T09:23:05Z</time>
      </trkpt>
      <trkpt lat="42.3555190" lon="-8.6150940">
        <ele>17.5</ele>
        <time>2021-05-21T09:23:06Z</time>
      </trkpt>
      <trkpt lat="42.3555220" lon="-8.6150930">
        <ele>17.5</ele>
        <time>2021-05-21T09:23:07Z</time>
      </trkpt>
      <trkpt lat="42.3555320" lon="-8.6151040">
        <ele>17.6</ele>
        <time>2021-05-21T09:23:08Z</time>
      </trkpt>
      <trkpt lat="42.3555330" lon="-8.6151080">
        <ele>17.6</ele>
        <time>2021-05-21T09:23:09Z</time>
      </trkpt>
      <trkpt lat="42.3555270" lon="-8.6151270">
        <ele>17.8</ele>
        <time>2021-05-21T09:23:10Z</time>
      </trkpt>
      <trkpt lat="42.3555410" lon="-8.6151450">
        <ele>18.0</ele>
        <time>2021-05-21T09:23:11Z</time>
      </trkpt>
      <trkpt lat="42.3555490" lon="-8.6151530">
        <ele>18.1</ele>
        <time>2021-05-21T09:23:12Z</time>
      </trkpt>
      <trkpt lat="42.3555580" lon="-8.6151620">
        <ele>18.2</ele>
        <time>2021-05-21T09:23:13Z</time>
      </trkpt>
      <trkpt lat="42.3555790" lon="-8.6151640">
        <ele>18.4</ele>
        <time>2021-05-21T09:23:14Z</time>
      </trkpt>
      <trkpt lat="42.3555900" lon="-8.6151660">
        <ele>18.5</ele>
        <time>2021-05-21T09:23:15Z</time>
      </trkpt>
      <trkpt lat="42.3556000" lon="-8.6151670">
        <ele>18.6</ele>
        <time>2021-05-21T09:23:16Z</time>
      </trkpt>
      <trkpt lat="42.3556100" lon="-8.6151690">
        <ele>18.7</ele>
        <time>2021-05-21T09:23:17Z</time>
      </trkpt>
      <trkpt lat="42.3556180" lon="-8.6151750">
        <ele>18.8</ele>
        <time>2021-05-21T09:23:18Z</time>
      </trkpt>
      <trkpt lat="42.3556230" lon="-8.6151820">
        <ele>18.9</ele>
        <time>2021-05-21T09:23:19Z</time>
      </trkpt>
      <trkpt lat="42.3556340" lon="-8.6151910">
        <ele>19.0</ele>
        <time>2021-05-21T09:23:20Z</time>
      </trkpt>
      <trkpt lat="42.3556400" lon="-8.6151930">
        <ele>19.0</ele>
        <time>2021-05-21T09:23:21Z</time>
      </trkpt>
      <trkpt lat="42.3556430" lon="-8.6152140">
        <ele>19.2</ele>
        <time>2021-05-21T09:23:22Z</time>
      </trkpt>
      <trkpt lat="42.3556450" lon="-8.6152240">
        <ele>19.3</ele>
        <time>2021-05-21T09:23:23Z</time>
      </trkpt>
      <trkpt lat="42.3556380" lon="-8.6152180">
        <ele>19.3</ele>
        <time>2021-05-21T09:23:24Z</time>
      </trkpt>
      <trkpt lat="42.3556460" lon="-8.6152140">
        <ele>19.4</ele>
        <time>2021-05-21T09:23:25Z</time>
      </trkpt>
      <trkpt lat="42.3556470" lon="-8.6152100">
        <ele>19.4</ele>
        <time>2021-05-21T09:23:26Z</time>
      </trkpt>
      <trkpt lat="42.3556500" lon="-8.6152130">
        <ele>19.5</ele>
        <time>2021-05-21T09:23:27Z</time>
      </trkpt>
      <trkpt lat="42.3556560" lon="-8.6152030">
        <ele>19.5</ele>
        <time>2021-05-21T09:23:28Z</time>
      </trkpt>
      <trkpt lat="42.3556630" lon="-8.6152050">
        <ele>19.6</ele>
        <time>2021-05-21T09:23:29Z</time>
      </trkpt>
      <trkpt lat="42.3556620" lon="-8.6152090">
        <ele>19.6</ele>
        <time>2021-05-21T09:23:30Z</time>
      </trkpt>
      <trkpt lat="42.3556610" lon="-8.6152100">
        <ele>19.6</ele>
        <time>2021-05-21T09:23:31Z</time>
      </trkpt>
      <trkpt lat="42.3556570" lon="-8.6152090">
        <ele>19.7</ele>
        <time>2021-05-21T09:23:32Z</time>
      </trkpt>
      <trkpt lat="42.3556610" lon="-8.6152090">
        <ele>19.7</ele>
        <time>2021-05-21T09:23:33Z</time>
      </trkpt>
      <trkpt lat="42.3556580" lon="-8.6152130">
        <ele>19.7</ele>
        <time>2021-05-21T09:23:34Z</time>
      </trkpt>
      <trkpt lat="42.3556610" lon="-8.6152050">
        <ele>19.8</ele>
        <time>2021-05-21T09:23:35Z</time>
      </trkpt>
      <trkpt lat="42.3556620" lon="-8.6152110">
        <ele>19.8</ele>
        <time>2021-05-21T09:23:36Z</time>
      </trkpt>
      <trkpt lat="42.3556650" lon="-8.6152060">
        <ele>19.9</ele>
        <time>2021-05-21T09:23:37Z</time>
      </trkpt>
      <trkpt lat="42.3556680" lon="-8.6152110">
        <ele>19.9</ele>
        <time>2021-05-21T09:23:38Z</time>
      </trkpt>
      <trkpt lat="42.3556730" lon="-8.6152180">
        <ele>19.9</ele>
        <time>2021-05-21T09:23:39Z</time>
      </trkpt>
      <trkpt lat="42.3556830" lon="-8.6152320">
        <ele>20.1</ele>
        <time>2021-05-21T09:23:40Z</time>
      </trkpt>
      <trkpt lat="42.3556990" lon="-8.6152470">
        <ele>20.2</ele>
        <time>2021-05-21T09:23:41Z</time>
      </trkpt>
      <trkpt lat="42.3557110" lon="-8.6152580">
        <ele>20.3</ele>
        <time>2021-05-21T09:23:42Z</time>
      </trkpt>
      <trkpt lat="42.3557110" lon="-8.6152600">
        <ele>20.3</ele>
        <time>2021-05-21T09:23:43Z</time>
      </trkpt>
      <trkpt lat="42.3557100" lon="-8.6152600">
        <ele>20.3</ele>
        <time>2021-05-21T09:23:44Z</time>
      </trkpt>
      <trkpt lat="42.3557160" lon="-8.6152750">
        <ele>20.4</ele>
        <time>2021-05-21T09:23:45Z</time>
      </trkpt>
      <trkpt lat="42.3557340" lon="-8.6152750">
        <ele>20.6</ele>
        <time>2021-05-21T09:23:46Z</time>
      </trkpt>
      <trkpt lat="42.3557430" lon="-8.6152900">
        <ele>20.7</ele>
        <time>2021-05-21T09:23:47Z</time>
      </trkpt>
      <trkpt lat="42.3557580" lon="-8.6153130">
        <ele>20.9</ele>
        <time>2021-05-21T09:23:48Z</time>
      </trkpt>
      <trkpt lat="42.3557620" lon="-8.6153240">
        <ele>20.9</ele>
        <time>2021-05-21T09:23:49Z</time>
      </trkpt>
      <trkpt lat="42.3557660" lon="-8.6153360">
        <ele>21.0</ele>
        <time>2021-05-21T09:23:50Z</time>
      </trkpt>
      <trkpt lat="42.3557750" lon="-8.6153560">
        <ele>21.1</ele>
        <time>2021-05-21T09:23:51Z</time>
      </trkpt>
      <trkpt lat="42.3557820" lon="-8.6153700">
        <ele>21.2</ele>
        <time>2021-05-21T09:23:52Z</time>
      </trkpt>
      <trkpt lat="42.3557960" lon="-8.6153800">
        <ele>21.4</ele>
        <time>2021-05-21T09:23:53Z</time>
      </trkpt>
      <trkpt lat="42.3558100" lon="-8.6153900">
        <ele>21.5</ele>
        <time>2021-05-21T09:23:54Z</time>
      </trkpt>
      <trkpt lat="42.3558260" lon="-8.6153970">
        <ele>21.6</ele>
        <time>2021-05-21T09:23:55Z</time>
      </trkpt>
      <trkpt lat="42.3558340" lon="-8.6154100">
        <ele>21.7</ele>
        <time>2021-05-21T09:23:56Z</time>
      </trkpt>
      <trkpt lat="42.3558410" lon="-8.6154220">
        <ele>21.8</ele>
        <time>2021-05-21T09:23:57Z</time>
      </trkpt>
      <trkpt lat="42.3558470" lon="-8.6154360">
        <ele>21.9</ele>
        <time>2021-05-21T09:23:58Z</time>
      </trkpt>
      <trkpt lat="42.3558570" lon="-8.6154470">
        <ele>22.0</ele>
        <time>2021-05-21T09:23:59Z</time>
      </trkpt>
      <trkpt lat="42.3558570" lon="-8.6154590">
        <ele>22.1</ele>
        <time>2021-05-21T09:24:00Z</time>
      </trkpt>
      <trkpt lat="42.3558680" lon="-8.6154610">
        <ele>22.2</ele>
        <time>2021-05-21T09:24:01Z</time>
      </trkpt>
      <trkpt lat="42.3558770" lon="-8.6154680">
        <ele>22.3</ele>
        <time>2021-05-21T09:24:02Z</time>
      </trkpt>
      <trkpt lat="42.3558850" lon="-8.6154750">
        <ele>22.3</ele>
        <time>2021-05-21T09:24:03Z</time>
      </trkpt>
      <trkpt lat="42.3558940" lon="-8.6154820">
        <ele>22.4</ele>
        <time>2021-05-21T09:24:04Z</time>
      </trkpt>
      <trkpt lat="42.3558970" lon="-8.6154770">
        <ele>22.5</ele>
        <time>2021-05-21T09:24:05Z</time>
      </trkpt>
      <trkpt lat="42.3559100" lon="-8.6154810">
        <ele>22.6</ele>
        <time>2021-05-21T09:24:06Z</time>
      </trkpt>
      <trkpt lat="42.3559250" lon="-8.6154840">
        <ele>22.7</ele>
        <time>2021-05-21T09:24:07Z</time>
      </trkpt>
      <trkpt lat="42.3559240" lon="-8.6154960">
        <ele>22.8</ele>
        <time>2021-05-21T09:24:08Z</time>
      </trkpt>
      <trkpt lat="42.3559200" lon="-8.6154960">
        <ele>22.8</ele>
        <time>2021-05-21T09:24:09Z</time>
      </trkpt>
      <trkpt lat="42.3559200" lon="-8.6154980">
        <ele>22.8</ele>
        <time>2021-05-21T09:24:10Z</time>
      </trkpt>
      <trkpt lat="42.3559350" lon="-8.6155340">
        <ele>23.0</ele>
        <time>2021-05-21T09:24:12Z</time>
      </trkpt>
      <trkpt lat="42.3559380" lon="-8.6155490">
        <ele>23.1</ele>
        <time>2021-05-21T09:24:13Z</time>
      </trkpt>
      <trkpt lat="42.3559440" lon="-8.6155590">
        <ele>23.2</ele>
        <time>2021-05-21T09:24:14Z</time>
      </trkpt>
      <trkpt lat="42.3559490" lon="-8.6155700">
        <ele>23.3</ele>
        <time>2021-05-21T09:24:15Z</time>
      </trkpt>
      <trkpt lat="42.3559650" lon="-8.6155830">
        <ele>23.4</ele>
        <time>2021-05-21T09:24:16Z</time>
      </trkpt>
      <trkpt lat="42.3559740" lon="-8.6155970">
        <ele>23.5</ele>
        <time>2021-05-21T09:24:17Z</time>
      </trkpt>
      <trkpt lat="42.3559850" lon="-8.6156060">
        <ele>23.6</ele>
        <time>2021-05-21T09:24:18Z</time>
      </trkpt>
      <trkpt lat="42.3559900" lon="-8.6156260">
        <ele>23.8</ele>
        <time>2021-05-21T09:24:19Z</time>
      </trkpt>
      <trkpt lat="42.3560080" lon="-8.6156430">
        <ele>23.9</ele>
        <time>2021-05-21T09:24:20Z</time>
      </trkpt>
      <trkpt lat="42.3560140" lon="-8.6156550">
        <ele>24.0</ele>
        <time>2021-05-21T09:24:21Z</time>
      </trkpt>
      <trkpt lat="42.3560210" lon="-8.6156930">
        <ele>24.3</ele>
        <time>2021-05-21T09:24:22Z</time>
      </trkpt>
      <trkpt lat="42.3560250" lon="-8.6157020">
        <ele>24.3</ele>
        <time>2021-05-21T09:24:23Z</time>
      </trkpt>
      <trkpt lat="42.3560340" lon="-8.6157280">
        <ele>24.5</ele>
        <time>2021-05-21T09:24:24Z</time>
      </trkpt>
      <trkpt lat="42.3560310" lon="-8.6157300">
        <ele>24.6</ele>
        <time>2021-05-21T09:24:25Z</time>
      </trkpt>
      <trkpt lat="42.3560320" lon="-8.6157480">
        <ele>24.7</ele>
        <time>2021-05-21T09:24:26Z</time>
      </trkpt>
      <trkpt lat="42.3560300" lon="-8.6157520">
        <ele>24.7</ele>
        <time>2021-05-21T09:24:27Z</time>
      </trkpt>
      <trkpt lat="42.3560320" lon="-8.6157520">
        <ele>24.7</ele>
        <time>2021-05-21T09:24:28Z</time>
      </trkpt>
      <trkpt lat="42.3560330" lon="-8.6157530">
        <ele>24.8</ele>
        <time>2021-05-21T09:24:29Z</time>
      </trkpt>
      <trkpt lat="42.3560350" lon="-8.6157540">
        <ele>24.8</ele>
        <time>2021-05-21T09:24:30Z</time>
      </trkpt>
      <trkpt lat="42.3560360" lon="-8.6157540">
        <ele>24.8</ele>
        <time>2021-05-21T09:24:31Z</time>
      </trkpt>
      <trkpt lat="42.3560380" lon="-8.6157550">
        <ele>24.8</ele>
        <time>2021-05-21T09:24:32Z</time>
      </trkpt>
      <trkpt lat="42.3560390" lon="-8.6157550">
        <ele>24.8</ele>
        <time>2021-05-21T09:24:33Z</time>
      </trkpt>
      <trkpt lat="42.3560410" lon="-8.6157560">
        <ele>24.8</ele>
        <time>2021-05-21T09:24:34Z</time>
      </trkpt>
      <trkpt lat="42.3560420" lon="-8.6157570">
        <ele>24.8</ele>
        <time>2021-05-21T09:24:35Z</time>
      </trkpt>
      <trkpt lat="42.3560430" lon="-8.6157570">
        <ele>24.9</ele>
        <time>2021-05-21T09:24:36Z</time>
      </trkpt>
      <trkpt lat="42.3560450" lon="-8.6157580">
        <ele>24.9</ele>
        <time>2021-05-21T09:24:37Z</time>
      </trkpt>
      <trkpt lat="42.3560460" lon="-8.6157590">
        <ele>24.9</ele>
        <time>2021-05-21T09:24:38Z</time>
      </trkpt>
      <trkpt lat="42.3560480" lon="-8.6157590">
        <ele>24.9</ele>
        <time>2021-05-21T09:24:39Z</time>
      </trkpt>
      <trkpt lat="42.3560490" lon="-8.6157600">
        <ele>24.9</ele>
        <time>2021-05-21T09:24:40Z</time>
      </trkpt>
      <trkpt lat="42.3560510" lon="-8.6157600">
        <ele>24.9</ele>
        <time>2021-05-21T09:24:41Z</time>
      </trkpt>
      <trkpt lat="42.3560520" lon="-8.6157610">
        <ele>25.0</ele>
        <time>2021-05-21T09:24:42Z</time>
      </trkpt>
      <trkpt lat="42.3560540" lon="-8.6157620">
        <ele>25.0</ele>
        <time>2021-05-21T09:24:43Z</time>
      </trkpt>
      <trkpt lat="42.3560550" lon="-8.6157620">
        <ele>25.0</ele>
        <time>2021-05-21T09:24:44Z</time>
      </trkpt>
      <trkpt lat="42.3560560" lon="-8.6157630">
        <ele>25.0</ele>
        <time>2021-05-21T09:24:45Z</time>
      </trkpt>
      <trkpt lat="42.3560580" lon="-8.6157640">
        <ele>25.0</ele>
        <time>2021-05-21T09:24:46Z</time>
      </trkpt>
      <trkpt lat="42.3560590" lon="-8.6157640">
        <ele>25.0</ele>
        <time>2021-05-21T09:24:47Z</time>
      </trkpt>
      <trkpt lat="42.3560610" lon="-8.6157650">
        <ele>25.1</ele>
        <time>2021-05-21T09:24:48Z</time>
      </trkpt>
      <trkpt lat="42.3560620" lon="-8.6157650">
        <ele>25.1</ele>
        <time>2021-05-21T09:24:49Z</time>
      </trkpt>
      <trkpt lat="42.3560640" lon="-8.6157660">
        <ele>25.1</ele>
        <time>2021-05-21T09:24:50Z</time>
      </trkpt>
      <trkpt lat="42.3560650" lon="-8.6157670">
        <ele>25.1</ele>
        <time>2021-05-21T09:24:51Z</time>
      </trkpt>
      <trkpt lat="42.3560670" lon="-8.6157670">
        <ele>25.1</ele>
        <time>2021-05-21T09:24:52Z</time>
      </trkpt>
      <trkpt lat="42.3560680" lon="-8.6157680">
        <ele>25.1</ele>
        <time>2021-05-21T09:24:53Z</time>
      </trkpt>
      <trkpt lat="42.3560800" lon="-8.6157720">
        <ele>25.3</ele>
        <time>2021-05-21T09:24:54Z</time>
      </trkpt>
      <trkpt lat="42.3560880" lon="-8.6157780">
        <ele>25.3</ele>
        <time>2021-05-21T09:24:55Z</time>
      </trkpt>
      <trkpt lat="42.3560890" lon="-8.6157870">
        <ele>25.4</ele>
        <time>2021-05-21T09:24:56Z</time>
      </trkpt>
      <trkpt lat="42.3560900" lon="-8.6157960">
        <ele>25.5</ele>
        <time>2021-05-21T09:24:57Z</time>
      </trkpt>
      <trkpt lat="42.3561040" lon="-8.6158090">
        <ele>25.7</ele>
        <time>2021-05-21T09:24:58Z</time>
      </trkpt>
      <trkpt lat="42.3561080" lon="-8.6158230">
        <ele>25.8</ele>
        <time>2021-05-21T09:24:59Z</time>
      </trkpt>
      <trkpt lat="42.3561090" lon="-8.6158320">
        <ele>25.9</ele>
        <time>2021-05-21T09:25:00Z</time>
      </trkpt>
      <trkpt lat="42.3561170" lon="-8.6158510">
        <ele>26.0</ele>
        <time>2021-05-21T09:25:01Z</time>
      </trkpt>
      <trkpt lat="42.3561290" lon="-8.6158720">
        <ele>26.3</ele>
        <time>2021-05-21T09:25:02Z</time>
      </trkpt>
      <trkpt lat="42.3561320" lon="-8.6158850">
        <ele>26.4</ele>
        <time>2021-05-21T09:25:03Z</time>
      </trkpt>
      <trkpt lat="42.3561280" lon="-8.6158870">
        <ele>26.4</ele>
        <time>2021-05-21T09:25:04Z</time>
      </trkpt>
      <trkpt lat="42.3561310" lon="-8.6158800">
        <ele>26.5</ele>
        <time>2021-05-21T09:25:05Z</time>
      </trkpt>
      <trkpt lat="42.3561430" lon="-8.6158870">
        <ele>26.6</ele>
        <time>2021-05-21T09:25:06Z</time>
      </trkpt>
      <trkpt lat="42.3561530" lon="-8.6158970">
        <ele>26.7</ele>
        <time>2021-05-21T09:25:07Z</time>
      </trkpt>
      <trkpt lat="42.3561740" lon="-8.6159130">
        <ele>27.0</ele>
        <time>2021-05-21T09:25:08Z</time>
      </trkpt>
      <trkpt lat="42.3561700" lon="-8.6159300">
        <ele>27.1</ele>
        <time>2021-05-21T09:25:09Z</time>
      </trkpt>
      <trkpt lat="42.3561800" lon="-8.6159430">
        <ele>27.2</ele>
        <time>2021-05-21T09:25:10Z</time>
      </trkpt>
      <trkpt lat="42.3561880" lon="-8.6159630">
        <ele>27.4</ele>
        <time>2021-05-21T09:25:11Z</time>
      </trkpt>
      <trkpt lat="42.3561940" lon="-8.6159760">
        <ele>27.5</ele>
        <time>2021-05-21T09:25:12Z</time>
      </trkpt>
      <trkpt lat="42.3562100" lon="-8.6159840">
        <ele>27.6</ele>
        <time>2021-05-21T09:25:13Z</time>
      </trkpt>
      <trkpt lat="42.3562210" lon="-8.6159850">
        <ele>27.7</ele>
        <time>2021-05-21T09:25:14Z</time>
      </trkpt>
      <trkpt lat="42.3562270" lon="-8.6159910">
        <ele>27.8</ele>
        <time>2021-05-21T09:25:15Z</time>
      </trkpt>
      <trkpt lat="42.3562400" lon="-8.6160020">
        <ele>27.9</ele>
        <time>2021-05-21T09:25:16Z</time>
      </trkpt>
      <trkpt lat="42.3562530" lon="-8.6160120">
        <ele>28.0</ele>
        <time>2021-05-21T09:25:17Z</time>
      </trkpt>
      <trkpt lat="42.3562640" lon="-8.6160160">
        <ele>28.1</ele>
        <time>2021-05-21T09:25:18Z</time>
      </trkpt>
      <trkpt lat="42.3562740" lon="-8.6160200">
        <ele>28.1</ele>
        <time>2021-05-21T09:25:19Z</time>
      </trkpt>
      <trkpt lat="42.3562770" lon="-8.6160280">
        <ele>28.2</ele>
        <time>2021-05-21T09:25:20Z</time>
      </trkpt>
      <trkpt lat="42.3562770" lon="-8.6160430">
        <ele>28.2</ele>
        <time>2021-05-21T09:25:21Z</time>
      </trkpt>
      <trkpt lat="42.3562780" lon="-8.6160490">
        <ele>28.3</ele>
        <time>2021-05-21T09:25:22Z</time>
      </trkpt>
      <trkpt lat="42.3562880" lon="-8.6160540">
        <ele>28.3</ele>
        <time>2021-05-21T09:25:23Z</time>
      </trkpt>
      <trkpt lat="42.3562970" lon="-8.6160610">
        <ele>28.4</ele>
        <time>2021-05-21T09:25:24Z</time>
      </trkpt>
      <trkpt lat="42.3563080" lon="-8.6160680">
        <ele>28.4</ele>
        <time>2021-05-21T09:25:25Z</time>
      </trkpt>
      <trkpt lat="42.3563090" lon="-8.6160790">
        <ele>28.5</ele>
        <time>2021-05-21T09:25:26Z</time>
      </trkpt>
      <trkpt lat="42.3563260" lon="-8.6160810">
        <ele>28.6</ele>
        <time>2021-05-21T09:25:27Z</time>
      </trkpt>
      <trkpt lat="42.3563390" lon="-8.6160800">
        <ele>28.6</ele>
        <time>2021-05-21T09:25:28Z</time>
      </trkpt>
      <trkpt lat="42.3563510" lon="-8.6160800">
        <ele>28.7</ele>
        <time>2021-05-21T09:25:29Z</time>
      </trkpt>
      <trkpt lat="42.3563570" lon="-8.6160730">
        <ele>28.7</ele>
        <time>2021-05-21T09:25:30Z</time>
      </trkpt>
      <trkpt lat="42.3563680" lon="-8.6160750">
        <ele>28.8</ele>
        <time>2021-05-21T09:25:31Z</time>
      </trkpt>
      <trkpt lat="42.3563780" lon="-8.6160760">
        <ele>28.8</ele>
        <time>2021-05-21T09:25:32Z</time>
      </trkpt>
      <trkpt lat="42.3563890" lon="-8.6160780">
        <ele>28.9</ele>
        <time>2021-05-21T09:25:33Z</time>
      </trkpt>
      <trkpt lat="42.3563990" lon="-8.6160790">
        <ele>28.9</ele>
        <time>2021-05-21T09:25:34Z</time>
      </trkpt>
      <trkpt lat="42.3564140" lon="-8.6160820">
        <ele>29.0</ele>
        <time>2021-05-21T09:25:35Z</time>
      </trkpt>
      <trkpt lat="42.3564340" lon="-8.6160870">
        <ele>29.0</ele>
        <time>2021-05-21T09:25:36Z</time>
      </trkpt>
      <trkpt lat="42.3564490" lon="-8.6161080">
        <ele>29.1</ele>
        <time>2021-05-21T09:25:37Z</time>
      </trkpt>
      <trkpt lat="42.3564560" lon="-8.6161200">
        <ele>29.2</ele>
        <time>2021-05-21T09:25:38Z</time>
      </trkpt>
      <trkpt lat="42.3564630" lon="-8.6161310">
        <ele>29.2</ele>
        <time>2021-05-21T09:25:39Z</time>
      </trkpt>
      <trkpt lat="42.3564700" lon="-8.6161430">
        <ele>29.2</ele>
        <time>2021-05-21T09:25:40Z</time>
      </trkpt>
      <trkpt lat="42.3564780" lon="-8.6161560">
        <ele>29.3</ele>
        <time>2021-05-21T09:25:41Z</time>
      </trkpt>
      <trkpt lat="42.3564880" lon="-8.6161690">
        <ele>29.3</ele>
        <time>2021-05-21T09:25:42Z</time>
      </trkpt>
      <trkpt lat="42.3564990" lon="-8.6161810">
        <ele>29.4</ele>
        <time>2021-05-21T09:25:43Z</time>
      </trkpt>
      <trkpt lat="42.3565130" lon="-8.6161990">
        <ele>29.5</ele>
        <time>2021-05-21T09:25:44Z</time>
      </trkpt>
      <trkpt lat="42.3565240" lon="-8.6162040">
        <ele>29.5</ele>
        <time>2021-05-21T09:25:45Z</time>
      </trkpt>
      <trkpt lat="42.3565390" lon="-8.6162060">
        <ele>29.6</ele>
        <time>2021-05-21T09:25:46Z</time>
      </trkpt>
      <trkpt lat="42.3565520" lon="-8.6162140">
        <ele>29.6</ele>
        <time>2021-05-21T09:25:47Z</time>
      </trkpt>
      <trkpt lat="42.3565740" lon="-8.6162410">
        <ele>29.7</ele>
        <time>2021-05-21T09:25:48Z</time>
      </trkpt>
      <trkpt lat="42.3565840" lon="-8.6162440">
        <ele>29.8</ele>
        <time>2021-05-21T09:25:49Z</time>
      </trkpt>
      <trkpt lat="42.3565940" lon="-8.6162480">
        <ele>29.8</ele>
        <time>2021-05-21T09:25:50Z</time>
      </trkpt>
      <trkpt lat="42.3566040" lon="-8.6162520">
        <ele>29.9</ele>
        <time>2021-05-21T09:25:51Z</time>
      </trkpt>
      <trkpt lat="42.3566190" lon="-8.6162420">
        <ele>29.9</ele>
        <time>2021-05-21T09:25:52Z</time>
      </trkpt>
      <trkpt lat="42.3566370" lon="-8.6162540">
        <ele>30.1</ele>
        <time>2021-05-21T09:25:53Z</time>
      </trkpt>
      <trkpt lat="42.3566540" lon="-8.6162640">
        <ele>30.2</ele>
        <time>2021-05-21T09:25:54Z</time>
      </trkpt>
      <trkpt lat="42.3566660" lon="-8.6162680">
        <ele>30.2</ele>
        <time>2021-05-21T09:25:55Z</time>
      </trkpt>
      <trkpt lat="42.3566770" lon="-8.6162720">
        <ele>30.3</ele>
        <time>2021-05-21T09:25:56Z</time>
      </trkpt>
      <trkpt lat="42.3566880" lon="-8.6162820">
        <ele>30.4</ele>
        <time>2021-05-21T09:25:57Z</time>
      </trkpt>
      <trkpt lat="42.3567070" lon="-8.6162920">
        <ele>30.5</ele>
        <time>2021-05-21T09:25:58Z</time>
      </trkpt>
      <trkpt lat="42.3567220" lon="-8.6162890">
        <ele>30.6</ele>
        <time>2021-05-21T09:25:59Z</time>
      </trkpt>
      <trkpt lat="42.3567420" lon="-8.6162900">
        <ele>30.8</ele>
        <time>2021-05-21T09:26:00Z</time>
      </trkpt>
      <trkpt lat="42.3567420" lon="-8.6162910">
        <ele>30.8</ele>
        <time>2021-05-21T09:26:01Z</time>
      </trkpt>
      <trkpt lat="42.3567590" lon="-8.6163030">
        <ele>30.9</ele>
        <time>2021-05-21T09:26:02Z</time>
      </trkpt>
      <trkpt lat="42.3567690" lon="-8.6163070">
        <ele>31.0</ele>
        <time>2021-05-21T09:26:03Z</time>
      </trkpt>
      <trkpt lat="42.3567830" lon="-8.6163210">
        <ele>31.1</ele>
        <time>2021-05-21T09:26:04Z</time>
      </trkpt>
      <trkpt lat="42.3568000" lon="-8.6163120">
        <ele>31.3</ele>
        <time>2021-05-21T09:26:05Z</time>
      </trkpt>
      <trkpt lat="42.3568070" lon="-8.6163070">
        <ele>31.4</ele>
        <time>2021-05-21T09:26:06Z</time>
      </trkpt>
      <trkpt lat="42.3568300" lon="-8.6163140">
        <ele>31.6</ele>
        <time>2021-05-21T09:26:07Z</time>
      </trkpt>
      <trkpt lat="42.3568450" lon="-8.6163120">
        <ele>31.7</ele>
        <time>2021-05-21T09:26:08Z</time>
      </trkpt>
      <trkpt lat="42.3568510" lon="-8.6163090">
        <ele>31.8</ele>
        <time>2021-05-21T09:26:09Z</time>
      </trkpt>
      <trkpt lat="42.3568580" lon="-8.6163050">
        <ele>31.8</ele>
        <time>2021-05-21T09:26:10Z</time>
      </trkpt>
      <trkpt lat="42.3568640" lon="-8.6163020">
        <ele>31.9</ele>
        <time>2021-05-21T09:26:11Z</time>
      </trkpt>
      <trkpt lat="42.3568710" lon="-8.6162990">
        <ele>32.0</ele>
        <time>2021-05-21T09:26:12Z</time>
      </trkpt>
      <trkpt lat="42.3568810" lon="-8.6162970">
        <ele>32.1</ele>
        <time>2021-05-21T09:26:13Z</time>
      </trkpt>
      <trkpt lat="42.3569010" lon="-8.6163000">
        <ele>32.3</ele>
        <time>2021-05-21T09:26:14Z</time>
      </trkpt>
      <trkpt lat="42.3569070" lon="-8.6162930">
        <ele>32.4</ele>
        <time>2021-05-21T09:26:15Z</time>
      </trkpt>
      <trkpt lat="42.3569190" lon="-8.6162960">
        <ele>32.5</ele>
        <time>2021-05-21T09:26:16Z</time>
      </trkpt>
      <trkpt lat="42.3569350" lon="-8.6162850">
        <ele>32.6</ele>
        <time>2021-05-21T09:26:17Z</time>
      </trkpt>
      <trkpt lat="42.3569510" lon="-8.6162840">
        <ele>32.8</ele>
        <time>2021-05-21T09:26:18Z</time>
      </trkpt>
      <trkpt lat="42.3569590" lon="-8.6162830">
        <ele>32.9</ele>
        <time>2021-05-21T09:26:19Z</time>
      </trkpt>
      <trkpt lat="42.3569680" lon="-8.6162810">
        <ele>33.0</ele>
        <time>2021-05-21T09:26:20Z</time>
      </trkpt>
      <trkpt lat="42.3569760" lon="-8.6162790">
        <ele>33.1</ele>
        <time>2021-05-21T09:26:21Z</time>
      </trkpt>
      <trkpt lat="42.3569900" lon="-8.6162770">
        <ele>33.2</ele>
        <time>2021-05-21T09:26:22Z</time>
      </trkpt>
      <trkpt lat="42.3569980" lon="-8.6162760">
        <ele>33.3</ele>
        <time>2021-05-21T09:26:23Z</time>
      </trkpt>
      <trkpt lat="42.3570070" lon="-8.6162690">
        <ele>33.4</ele>
        <time>2021-05-21T09:26:24Z</time>
      </trkpt>
      <trkpt lat="42.3570180" lon="-8.6162580">
        <ele>33.5</ele>
        <time>2021-05-21T09:26:25Z</time>
      </trkpt>
      <trkpt lat="42.3570280" lon="-8.6162500">
        <ele>33.6</ele>
        <time>2021-05-21T09:26:26Z</time>
      </trkpt>
      <trkpt lat="42.3570380" lon="-8.6162530">
        <ele>33.7</ele>
        <time>2021-05-21T09:26:27Z</time>
      </trkpt>
      <trkpt lat="42.3570550" lon="-8.6162530">
        <ele>33.9</ele>
        <time>2021-05-21T09:26:28Z</time>
      </trkpt>
      <trkpt lat="42.3570610" lon="-8.6162520">
        <ele>34.0</ele>
        <time>2021-05-21T09:26:29Z</time>
      </trkpt>
      <trkpt lat="42.3570660" lon="-8.6162500">
        <ele>34.0</ele>
        <time>2021-05-21T09:26:30Z</time>
      </trkpt>
      <trkpt lat="42.3570720" lon="-8.6162490">
        <ele>34.1</ele>
        <time>2021-05-21T09:26:32Z</time>
      </trkpt>
      <trkpt lat="42.3570780" lon="-8.6162470">
        <ele>34.1</ele>
        <time>2021-05-21T09:26:33Z</time>
      </trkpt>
      <trkpt lat="42.3570900" lon="-8.6162450">
        <ele>34.3</ele>
        <time>2021-05-21T09:26:34Z</time>
      </trkpt>
      <trkpt lat="42.3570970" lon="-8.6162420">
        <ele>34.3</ele>
        <time>2021-05-21T09:26:35Z</time>
      </trkpt>
      <trkpt lat="42.3571090" lon="-8.6162440">
        <ele>34.5</ele>
        <time>2021-05-21T09:26:36Z</time>
      </trkpt>
      <trkpt lat="42.3571120" lon="-8.6162420">
        <ele>34.5</ele>
        <time>2021-05-21T09:26:37Z</time>
      </trkpt>
      <trkpt lat="42.3571140" lon="-8.6162420">
        <ele>34.5</ele>
        <time>2021-05-21T09:26:38Z</time>
      </trkpt>
      <trkpt lat="42.3571190" lon="-8.6162380">
        <ele>34.6</ele>
        <time>2021-05-21T09:26:39Z</time>
      </trkpt>
      <trkpt lat="42.3571270" lon="-8.6162340">
        <ele>34.7</ele>
        <time>2021-05-21T09:26:40Z</time>
      </trkpt>
      <trkpt lat="42.3571340" lon="-8.6162250">
        <ele>34.8</ele>
        <time>2021-05-21T09:26:41Z</time>
      </trkpt>
      <trkpt lat="42.3571450" lon="-8.6162190">
        <ele>34.9</ele>
        <time>2021-05-21T09:26:42Z</time>
      </trkpt>
      <trkpt lat="42.3571520" lon="-8.6162130">
        <ele>35.0</ele>
        <time>2021-05-21T09:26:43Z</time>
      </trkpt>
      <trkpt lat="42.3571550" lon="-8.6162080">
        <ele>35.0</ele>
        <time>2021-05-21T09:26:44Z</time>
      </trkpt>
      <trkpt lat="42.3571610" lon="-8.6162030">
        <ele>35.1</ele>
        <time>2021-05-21T09:26:45Z</time>
      </trkpt>
      <trkpt lat="42.3571670" lon="-8.6162030">
        <ele>35.1</ele>
        <time>2021-05-21T09:26:46Z</time>
      </trkpt>
      <trkpt lat="42.3571700" lon="-8.6161960">
        <ele>35.2</ele>
        <time>2021-05-21T09:26:47Z</time>
      </trkpt>
      <trkpt lat="42.3571790" lon="-8.6161920">
        <ele>35.3</ele>
        <time>2021-05-21T09:26:48Z</time>
      </trkpt>
      <trkpt lat="42.3571910" lon="-8.6161910">
        <ele>35.4</ele>
        <time>2021-05-21T09:26:49Z</time>
      </trkpt>
      <trkpt lat="42.3571900" lon="-8.6162040">
        <ele>35.5</ele>
        <time>2021-05-21T09:26:50Z</time>
      </trkpt>
      <trkpt lat="42.3571980" lon="-8.6162050">
        <ele>35.6</ele>
        <time>2021-05-21T09:26:51Z</time>
      </trkpt>
      <trkpt lat="42.3572150" lon="-8.6162160">
        <ele>35.7</ele>
        <time>2021-05-21T09:26:52Z</time>
      </trkpt>
      <trkpt lat="42.3572310" lon="-8.6162180">
        <ele>35.9</ele>
        <time>2021-05-21T09:26:53Z</time>
      </trkpt>
      <trkpt lat="42.3572470" lon="-8.6162260">
        <ele>36.1</ele>
        <time>2021-05-21T09:26:54Z</time>
      </trkpt>
      <trkpt lat="42.3572490" lon="-8.6162340">
        <ele>36.1</ele>
        <time>2021-05-21T09:26:55Z</time>
      </trkpt>
      <trkpt lat="42.3572550" lon="-8.6162400">
        <ele>36.2</ele>
        <time>2021-05-21T09:26:56Z</time>
      </trkpt>
      <trkpt lat="42.3572600" lon="-8.6162490">
        <ele>36.3</ele>
        <time>2021-05-21T09:26:57Z</time>
      </trkpt>
      <trkpt lat="42.3572710" lon="-8.6162560">
        <ele>36.4</ele>
        <time>2021-05-21T09:26:58Z</time>
      </trkpt>
      <trkpt lat="42.3572850" lon="-8.6162680">
        <ele>36.5</ele>
        <time>2021-05-21T09:26:59Z</time>
      </trkpt>
      <trkpt lat="42.3572930" lon="-8.6162780">
        <ele>36.6</ele>
        <time>2021-05-21T09:27:00Z</time>
      </trkpt>
      <trkpt lat="42.3573020" lon="-8.6162830">
        <ele>36.7</ele>
        <time>2021-05-21T09:27:01Z</time>
      </trkpt>
      <trkpt lat="42.3573080" lon="-8.6162910">
        <ele>36.8</ele>
        <time>2021-05-21T09:27:02Z</time>
      </trkpt>
      <trkpt lat="42.3573130" lon="-8.6162980">
        <ele>36.8</ele>
        <time>2021-05-21T09:27:03Z</time>
      </trkpt>
      <trkpt lat="42.3573140" lon="-8.6163040">
        <ele>36.9</ele>
        <time>2021-05-21T09:27:04Z</time>
      </trkpt>
      <trkpt lat="42.3573240" lon="-8.6163180">
        <ele>37.0</ele>
        <time>2021-05-21T09:27:05Z</time>
      </trkpt>
      <trkpt lat="42.3573260" lon="-8.6163200">
        <ele>37.0</ele>
        <time>2021-05-21T09:27:06Z</time>
      </trkpt>
      <trkpt lat="42.3573330" lon="-8.6163210">
        <ele>37.1</ele>
        <time>2021-05-21T09:27:07Z</time>
      </trkpt>
      <trkpt lat="42.3573430" lon="-8.6163280">
        <ele>37.1</ele>
        <time>2021-05-21T09:27:08Z</time>
      </trkpt>
      <trkpt lat="42.3573550" lon="-8.6163340">
        <ele>37.2</ele>
        <time>2021-05-21T09:27:09Z</time>
      </trkpt>
      <trkpt lat="42.3573650" lon="-8.6163370">
        <ele>37.3</ele>
        <time>2021-05-21T09:27:10Z</time>
      </trkpt>
      <trkpt lat="42.3573740" lon="-8.6163450">
        <ele>37.4</ele>
        <time>2021-05-21T09:27:11Z</time>
      </trkpt>
      <trkpt lat="42.3573770" lon="-8.6163460">
        <ele>37.4</ele>
        <time>2021-05-21T09:27:12Z</time>
      </trkpt>
      <trkpt lat="42.3573800" lon="-8.6163450">
        <ele>37.4</ele>
        <time>2021-05-21T09:27:13Z</time>
      </trkpt>
      <trkpt lat="42.3573920" lon="-8.6163490">
        <ele>37.5</ele>
        <time>2021-05-21T09:27:14Z</time>
      </trkpt>
      <trkpt lat="42.3574090" lon="-8.6163500">
        <ele>37.7</ele>
        <time>2021-05-21T09:27:15Z</time>
      </trkpt>
      <trkpt lat="42.3574130" lon="-8.6163560">
        <ele>37.7</ele>
        <time>2021-05-21T09:27:16Z</time>
      </trkpt>
      <trkpt lat="42.3574140" lon="-8.6163640">
        <ele>37.8</ele>
        <time>2021-05-21T09:27:17Z</time>
      </trkpt>
      <trkpt lat="42.3574260" lon="-8.6163620">
        <ele>37.8</ele>
        <time>2021-05-21T09:27:18Z</time>
      </trkpt>
      <trkpt lat="42.3574340" lon="-8.6163640">
        <ele>37.9</ele>
        <time>2021-05-21T09:27:19Z</time>
      </trkpt>
      <trkpt lat="42.3574530" lon="-8.6163750">
        <ele>38.1</ele>
        <time>2021-05-21T09:27:20Z</time>
      </trkpt>
      <trkpt lat="42.3574630" lon="-8.6163800">
        <ele>38.1</ele>
        <time>2021-05-21T09:27:21Z</time>
      </trkpt>
      <trkpt lat="42.3574730" lon="-8.6163840">
        <ele>38.2</ele>
        <time>2021-05-21T09:27:22Z</time>
      </trkpt>
      <trkpt lat="42.3574890" lon="-8.6163780">
        <ele>38.3</ele>
        <time>2021-05-21T09:27:23Z</time>
      </trkpt>
      <trkpt lat="42.3575070" lon="-8.6163810">
        <ele>38.5</ele>
        <time>2021-05-21T09:27:24Z</time>
      </trkpt>
      <trkpt lat="42.3575170" lon="-8.6163730">
        <ele>38.6</ele>
        <time>2021-05-21T09:27:25Z</time>
      </trkpt>
      <trkpt lat="42.3575260" lon="-8.6163680">
        <ele>38.7</ele>
        <time>2021-05-21T09:27:26Z</time>
      </trkpt>
      <trkpt lat="42.3575400" lon="-8.6163640">
        <ele>38.8</ele>
        <time>2021-05-21T09:27:27Z</time>
      </trkpt>
      <trkpt lat="42.3575540" lon="-8.6163690">
        <ele>38.9</ele>
        <time>2021-05-21T09:27:28Z</time>
      </trkpt>
      <trkpt lat="42.3575690" lon="-8.6163670">
        <ele>39.0</ele>
        <time>2021-05-21T09:27:29Z</time>
      </trkpt>
      <trkpt lat="42.3575840" lon="-8.6163610">
        <ele>39.2</ele>
        <time>2021-05-21T09:27:30Z</time>
      </trkpt>
      <trkpt lat="42.3575980" lon="-8.6163540">
        <ele>39.3</ele>
        <time>2021-05-21T09:27:31Z</time>
      </trkpt>
      <trkpt lat="42.3576140" lon="-8.6163370">
        <ele>39.5</ele>
        <time>2021-05-21T09:27:32Z</time>
      </trkpt>
      <trkpt lat="42.3576220" lon="-8.6163290">
        <ele>39.6</ele>
        <time>2021-05-21T09:27:33Z</time>
      </trkpt>
      <trkpt lat="42.3576310" lon="-8.6163220">
        <ele>39.7</ele>
        <time>2021-05-21T09:27:34Z</time>
      </trkpt>
      <trkpt lat="42.3576460" lon="-8.6163210">
        <ele>39.8</ele>
        <time>2021-05-21T09:27:35Z</time>
      </trkpt>
      <trkpt lat="42.3576590" lon="-8.6163210">
        <ele>40.0</ele>
        <time>2021-05-21T09:27:36Z</time>
      </trkpt>
      <trkpt lat="42.3576670" lon="-8.6163050">
        <ele>40.1</ele>
        <time>2021-05-21T09:27:37Z</time>
      </trkpt>
      <trkpt lat="42.3576790" lon="-8.6162960">
        <ele>40.2</ele>
        <time>2021-05-21T09:27:38Z</time>
      </trkpt>
      <trkpt lat="42.3576810" lon="-8.6162860">
        <ele>40.3</ele>
        <time>2021-05-21T09:27:39Z</time>
      </trkpt>
      <trkpt lat="42.3576990" lon="-8.6162760">
        <ele>40.5</ele>
        <time>2021-05-21T09:27:40Z</time>
      </trkpt>
      <trkpt lat="42.3577050" lon="-8.6162730">
        <ele>40.6</ele>
        <time>2021-05-21T09:27:41Z</time>
      </trkpt>
      <trkpt lat="42.3577160" lon="-8.6162670">
        <ele>40.7</ele>
        <time>2021-05-21T09:27:42Z</time>
      </trkpt>
      <trkpt lat="42.3577290" lon="-8.6162500">
        <ele>40.9</ele>
        <time>2021-05-21T09:27:43Z</time>
      </trkpt>
      <trkpt lat="42.3577490" lon="-8.6162380">
        <ele>41.1</ele>
        <time>2021-05-21T09:27:44Z</time>
      </trkpt>
      <trkpt lat="42.3577570" lon="-8.6162320">
        <ele>41.2</ele>
        <time>2021-05-21T09:27:45Z</time>
      </trkpt>
      <trkpt lat="42.3577650" lon="-8.6162260">
        <ele>41.3</ele>
        <time>2021-05-21T09:27:46Z</time>
      </trkpt>
      <trkpt lat="42.3577810" lon="-8.6162160">
        <ele>41.4</ele>
        <time>2021-05-21T09:27:47Z</time>
      </trkpt>
      <trkpt lat="42.3577910" lon="-8.6162050">
        <ele>41.5</ele>
        <time>2021-05-21T09:27:48Z</time>
      </trkpt>
      <trkpt lat="42.3578110" lon="-8.6161970">
        <ele>41.7</ele>
        <time>2021-05-21T09:27:49Z</time>
      </trkpt>
      <trkpt lat="42.3578190" lon="-8.6161850">
        <ele>41.8</ele>
        <time>2021-05-21T09:27:50Z</time>
      </trkpt>
      <trkpt lat="42.3578310" lon="-8.6161740">
        <ele>41.9</ele>
        <time>2021-05-21T09:27:51Z</time>
      </trkpt>
      <trkpt lat="42.3578390" lon="-8.6161650">
        <ele>42.0</ele>
        <time>2021-05-21T09:27:52Z</time>
      </trkpt>
      <trkpt lat="42.3578440" lon="-8.6161580">
        <ele>42.0</ele>
        <time>2021-05-21T09:27:53Z</time>
      </trkpt>
      <trkpt lat="42.3578520" lon="-8.6161520">
        <ele>42.1</ele>
        <time>2021-05-21T09:27:54Z</time>
      </trkpt>
      <trkpt lat="42.3578630" lon="-8.6161420">
        <ele>42.2</ele>
        <time>2021-05-21T09:27:55Z</time>
      </trkpt>
      <trkpt lat="42.3578740" lon="-8.6161290">
        <ele>42.3</ele>
        <time>2021-05-21T09:27:56Z</time>
      </trkpt>
      <trkpt lat="42.3578810" lon="-8.6161160">
        <ele>42.4</ele>
        <time>2021-05-21T09:27:57Z</time>
      </trkpt>
      <trkpt lat="42.3578930" lon="-8.6161040">
        <ele>42.5</ele>
        <time>2021-05-21T09:27:59Z</time>
      </trkpt>
      <trkpt lat="42.3579000" lon="-8.6160970">
        <ele>42.5</ele>
        <time>2021-05-21T09:28:00Z</time>
      </trkpt>
      <trkpt lat="42.3579030" lon="-8.6160950">
        <ele>42.5</ele>
        <time>2021-05-21T09:28:01Z</time>
      </trkpt>
      <trkpt lat="42.3579130" lon="-8.6160810">
        <ele>42.6</ele>
        <time>2021-05-21T09:28:02Z</time>
      </trkpt>
      <trkpt lat="42.3579230" lon="-8.6160720">
        <ele>42.7</ele>
        <time>2021-05-21T09:28:03Z</time>
      </trkpt>
      <trkpt lat="42.3579270" lon="-8.6160610">
        <ele>42.7</ele>
        <time>2021-05-21T09:28:04Z</time>
      </trkpt>
      <trkpt lat="42.3579330" lon="-8.6160440">
        <ele>42.8</ele>
        <time>2021-05-21T09:28:05Z</time>
      </trkpt>
      <trkpt lat="42.3579370" lon="-8.6160310">
        <ele>42.8</ele>
        <time>2021-05-21T09:28:06Z</time>
      </trkpt>
      <trkpt lat="42.3579490" lon="-8.6160280">
        <ele>42.9</ele>
        <time>2021-05-21T09:28:07Z</time>
      </trkpt>
      <trkpt lat="42.3579590" lon="-8.6160210">
        <ele>42.9</ele>
        <time>2021-05-21T09:28:08Z</time>
      </trkpt>
      <trkpt lat="42.3579660" lon="-8.6160090">
        <ele>42.9</ele>
        <time>2021-05-21T09:28:09Z</time>
      </trkpt>
      <trkpt lat="42.3579730" lon="-8.6160040">
        <ele>43.0</ele>
        <time>2021-05-21T09:28:10Z</time>
      </trkpt>
      <trkpt lat="42.3579780" lon="-8.6159950">
        <ele>43.0</ele>
        <time>2021-05-21T09:28:11Z</time>
      </trkpt>
      <trkpt lat="42.3579820" lon="-8.6160010">
        <ele>43.0</ele>
        <time>2021-05-21T09:28:12Z</time>
      </trkpt>
      <trkpt lat="42.3579850" lon="-8.6160050">
        <ele>43.0</ele>
        <time>2021-05-21T09:28:13Z</time>
      </trkpt>
      <trkpt lat="42.3579910" lon="-8.6159950">
        <ele>43.0</ele>
        <time>2021-05-21T09:28:14Z</time>
      </trkpt>
      <trkpt lat="42.3579980" lon="-8.6159840">
        <ele>43.1</ele>
        <time>2021-05-21T09:28:15Z</time>
      </trkpt>
      <trkpt lat="42.3579990" lon="-8.6159740">
        <ele>43.1</ele>
        <time>2021-05-21T09:28:16Z</time>
      </trkpt>
      <trkpt lat="42.3580060" lon="-8.6159610">
        <ele>43.1</ele>
        <time>2021-05-21T09:28:17Z</time>
      </trkpt>
      <trkpt lat="42.3580090" lon="-8.6159570">
        <ele>43.1</ele>
        <time>2021-05-21T09:28:18Z</time>
      </trkpt>
      <trkpt lat="42.3580200" lon="-8.6159530">
        <ele>43.1</ele>
        <time>2021-05-21T09:28:19Z</time>
      </trkpt>
      <trkpt lat="42.3580390" lon="-8.6159430">
        <ele>43.2</ele>
        <time>2021-05-21T09:28:20Z</time>
      </trkpt>
      <trkpt lat="42.3580400" lon="-8.6159430">
        <ele>43.2</ele>
        <time>2021-05-21T09:28:21Z</time>
      </trkpt>
      <trkpt lat="42.3580420" lon="-8.6159240">
        <ele>43.2</ele>
        <time>2021-05-21T09:28:22Z</time>
      </trkpt>
      <trkpt lat="42.3580520" lon="-8.6159090">
        <ele>43.2</ele>
        <time>2021-05-21T09:28:23Z</time>
      </trkpt>
      <trkpt lat="42.3580570" lon="-8.6158930">
        <ele>43.2</ele>
        <time>2021-05-21T09:28:24Z</time>
      </trkpt>
      <trkpt lat="42.3580680" lon="-8.6158790">
        <ele>43.2</ele>
        <time>2021-05-21T09:28:25Z</time>
      </trkpt>
      <trkpt lat="42.3580700" lon="-8.6158760">
        <ele>43.2</ele>
        <time>2021-05-21T09:28:26Z</time>
      </trkpt>
      <trkpt lat="42.3580740" lon="-8.6158730">
        <ele>43.2</ele>
        <time>2021-05-21T09:28:27Z</time>
      </trkpt>
      <trkpt lat="42.3580780" lon="-8.6158700">
        <ele>43.2</ele>
        <time>2021-05-21T09:28:28Z</time>
      </trkpt>
      <trkpt lat="42.3580820" lon="-8.6158670">
        <ele>43.2</ele>
        <time>2021-05-21T09:28:29Z</time>
      </trkpt>
      <trkpt lat="42.3580850" lon="-8.6158650">
        <ele>43.2</ele>
        <time>2021-05-21T09:28:30Z</time>
      </trkpt>
      <trkpt lat="42.3580890" lon="-8.6158620">
        <ele>43.2</ele>
        <time>2021-05-21T09:28:31Z</time>
      </trkpt>
      <trkpt lat="42.3580930" lon="-8.6158590">
        <ele>43.2</ele>
        <time>2021-05-21T09:28:32Z</time>
      </trkpt>
      <trkpt lat="42.3580970" lon="-8.6158560">
        <ele>43.2</ele>
        <time>2021-05-21T09:28:33Z</time>
      </trkpt>
      <trkpt lat="42.3581010" lon="-8.6158530">
        <ele>43.2</ele>
        <time>2021-05-21T09:28:34Z</time>
      </trkpt>
      <trkpt lat="42.3581040" lon="-8.6158470">
        <ele>43.2</ele>
        <time>2021-05-21T09:28:35Z</time>
      </trkpt>
      <trkpt lat="42.3581110" lon="-8.6158370">
        <ele>43.2</ele>
        <time>2021-05-21T09:28:36Z</time>
      </trkpt>
      <trkpt lat="42.3581060" lon="-8.6158370">
        <ele>43.2</ele>
        <time>2021-05-21T09:28:37Z</time>
      </trkpt>
      <trkpt lat="42.3581010" lon="-8.6158450">
        <ele>43.2</ele>
        <time>2021-05-21T09:28:38Z</time>
      </trkpt>
      <trkpt lat="42.3580970" lon="-8.6158550">
        <ele>43.2</ele>
        <time>2021-05-21T09:28:39Z</time>
      </trkpt>
      <trkpt lat="42.3580840" lon="-8.6158640">
        <ele>43.2</ele>
        <time>2021-05-21T09:28:40Z</time>
      </trkpt>
      <trkpt lat="42.3580710" lon="-8.6158740">
        <ele>43.2</ele>
        <time>2021-05-21T09:28:41Z</time>
      </trkpt>
      <trkpt lat="42.3580710" lon="-8.6158740">
        <ele>43.2</ele>
        <time>2021-05-21T09:28:42Z</time>
      </trkpt>
      <trkpt lat="42.3580540" lon="-8.6158890">
        <ele>43.1</ele>
        <time>2021-05-21T09:28:43Z</time>
      </trkpt>
      <trkpt lat="42.3580460" lon="-8.6158990">
        <ele>43.1</ele>
        <time>2021-05-21T09:28:44Z</time>
      </trkpt>
      <trkpt lat="42.3580450" lon="-8.6159060">
        <ele>43.1</ele>
        <time>2021-05-21T09:28:45Z</time>
      </trkpt>
      <trkpt lat="42.3580420" lon="-8.6159090">
        <ele>43.1</ele>
        <time>2021-05-21T09:28:46Z</time>
      </trkpt>
      <trkpt lat="42.3580380" lon="-8.6158970">
        <ele>43.1</ele>
        <time>2021-05-21T09:28:47Z</time>
      </trkpt>
      <trkpt lat="42.3580370" lon="-8.6158890">
        <ele>43.1</ele>
        <time>2021-05-21T09:28:48Z</time>
      </trkpt>
      <trkpt lat="42.3580340" lon="-8.6158870">
        <ele>43.1</ele>
        <time>2021-05-21T09:28:49Z</time>
      </trkpt>
      <trkpt lat="42.3580300" lon="-8.6158830">
        <ele>43.1</ele>
        <time>2021-05-21T09:28:50Z</time>
      </trkpt>
      <trkpt lat="42.3580280" lon="-8.6158890">
        <ele>43.1</ele>
        <time>2021-05-21T09:28:51Z</time>
      </trkpt>
      <trkpt lat="42.3580300" lon="-8.6158970">
        <ele>43.1</ele>
        <time>2021-05-21T09:28:52Z</time>
      </trkpt>
      <trkpt lat="42.3580290" lon="-8.6159010">
        <ele>43.1</ele>
        <time>2021-05-21T09:28:53Z</time>
      </trkpt>
      <trkpt lat="42.3580200" lon="-8.6159080">
        <ele>43.0</ele>
        <time>2021-05-21T09:28:54Z</time>
      </trkpt>
      <trkpt lat="42.3580190" lon="-8.6159050">
        <ele>43.0</ele>
        <time>2021-05-21T09:28:55Z</time>
      </trkpt>
      <trkpt lat="42.3580240" lon="-8.6159180">
        <ele>43.0</ele>
        <time>2021-05-21T09:28:56Z</time>
      </trkpt>
      <trkpt lat="42.3580290" lon="-8.6159240">
        <ele>43.0</ele>
        <time>2021-05-21T09:28:57Z</time>
      </trkpt>
      <trkpt lat="42.3580360" lon="-8.6159410">
        <ele>43.0</ele>
        <time>2021-05-21T09:28:58Z</time>
      </trkpt>
      <trkpt lat="42.3580370" lon="-8.6159510">
        <ele>43.0</ele>
        <time>2021-05-21T09:28:59Z</time>
      </trkpt>
      <trkpt lat="42.3580390" lon="-8.6159550">
        <ele>43.0</ele>
        <time>2021-05-21T09:29:00Z</time>
      </trkpt>
      <trkpt lat="42.3580370" lon="-8.6159640">
        <ele>43.0</ele>
        <time>2021-05-21T09:29:01Z</time>
      </trkpt>
      <trkpt lat="42.3580440" lon="-8.6159710">
        <ele>43.0</ele>
        <time>2021-05-21T09:29:02Z</time>
      </trkpt>
      <trkpt lat="42.3580540" lon="-8.6159790">
        <ele>42.9</ele>
        <time>2021-05-21T09:29:03Z</time>
      </trkpt>
      <trkpt lat="42.3580650" lon="-8.6159890">
        <ele>42.9</ele>
        <time>2021-05-21T09:29:04Z</time>
      </trkpt>
      <trkpt lat="42.3580660" lon="-8.6159880">
        <ele>42.9</ele>
        <time>2021-05-21T09:29:05Z</time>
      </trkpt>
      <trkpt lat="42.3580800" lon="-8.6160010">
        <ele>42.9</ele>
        <time>2021-05-21T09:29:06Z</time>
      </trkpt>
      <trkpt lat="42.3580880" lon="-8.6159990">
        <ele>42.9</ele>
        <time>2021-05-21T09:29:07Z</time>
      </trkpt>
      <trkpt lat="42.3580980" lon="-8.6159960">
        <ele>42.9</ele>
        <time>2021-05-21T09:29:08Z</time>
      </trkpt>
      <trkpt lat="42.3581030" lon="-8.6159840">
        <ele>42.9</ele>
        <time>2021-05-21T09:29:09Z</time>
      </trkpt>
      <trkpt lat="42.3581110" lon="-8.6159760">
        <ele>42.8</ele>
        <time>2021-05-21T09:29:10Z</time>
      </trkpt>
      <trkpt lat="42.3581180" lon="-8.6159720">
        <ele>42.8</ele>
        <time>2021-05-21T09:29:11Z</time>
      </trkpt>
      <trkpt lat="42.3581220" lon="-8.6159700">
        <ele>42.8</ele>
        <time>2021-05-21T09:29:12Z</time>
      </trkpt>
      <trkpt lat="42.3581250" lon="-8.6159680">
        <ele>42.8</ele>
        <time>2021-05-21T09:29:13Z</time>
      </trkpt>
      <trkpt lat="42.3581290" lon="-8.6159660">
        <ele>42.8</ele>
        <time>2021-05-21T09:29:14Z</time>
      </trkpt>
      <trkpt lat="42.3581320" lon="-8.6159640">
        <ele>42.8</ele>
        <time>2021-05-21T09:29:15Z</time>
      </trkpt>
      <trkpt lat="42.3581360" lon="-8.6159620">
        <ele>42.8</ele>
        <time>2021-05-21T09:29:16Z</time>
      </trkpt>
      <trkpt lat="42.3581390" lon="-8.6159600">
        <ele>42.8</ele>
        <time>2021-05-21T09:29:17Z</time>
      </trkpt>
      <trkpt lat="42.3581430" lon="-8.6159580">
        <ele>42.8</ele>
        <time>2021-05-21T09:29:18Z</time>
      </trkpt>
      <trkpt lat="42.3581460" lon="-8.6159560">
        <ele>42.8</ele>
        <time>2021-05-21T09:29:19Z</time>
      </trkpt>
      <trkpt lat="42.3581400" lon="-8.6159490">
        <ele>42.8</ele>
        <time>2021-05-21T09:29:20Z</time>
      </trkpt>
      <trkpt lat="42.3581390" lon="-8.6159460">
        <ele>42.8</ele>
        <time>2021-05-21T09:29:21Z</time>
      </trkpt>
      <trkpt lat="42.3581400" lon="-8.6159430">
        <ele>42.8</ele>
        <time>2021-05-21T09:29:22Z</time>
      </trkpt>
      <trkpt lat="42.3581510" lon="-8.6159470">
        <ele>42.8</ele>
        <time>2021-05-21T09:29:23Z</time>
      </trkpt>
      <trkpt lat="42.3581510" lon="-8.6159430">
        <ele>42.8</ele>
        <time>2021-05-21T09:29:24Z</time>
      </trkpt>
      <trkpt lat="42.3581550" lon="-8.6159320">
        <ele>42.8</ele>
        <time>2021-05-21T09:29:25Z</time>
      </trkpt>
      <trkpt lat="42.3581510" lon="-8.6159320">
        <ele>42.8</ele>
        <time>2021-05-21T09:29:26Z</time>
      </trkpt>
      <trkpt lat="42.3581470" lon="-8.6159350">
        <ele>42.8</ele>
        <time>2021-05-21T09:29:27Z</time>
      </trkpt>
      <trkpt lat="42.3581390" lon="-8.6159420">
        <ele>42.8</ele>
        <time>2021-05-21T09:29:28Z</time>
      </trkpt>
      <trkpt lat="42.3581520" lon="-8.6159350">
        <ele>42.8</ele>
        <time>2021-05-21T09:29:29Z</time>
      </trkpt>
      <trkpt lat="42.3581620" lon="-8.6159320">
        <ele>42.8</ele>
        <time>2021-05-21T09:29:30Z</time>
      </trkpt>
      <trkpt lat="42.3581600" lon="-8.6159310">
        <ele>42.8</ele>
        <time>2021-05-21T09:29:31Z</time>
      </trkpt>
      <trkpt lat="42.3581580" lon="-8.6159300">
        <ele>42.8</ele>
        <time>2021-05-21T09:29:32Z</time>
      </trkpt>
      <trkpt lat="42.3581610" lon="-8.6159280">
        <ele>42.7</ele>
        <time>2021-05-21T09:29:33Z</time>
      </trkpt>
      <trkpt lat="42.3581610" lon="-8.6159210">
        <ele>42.7</ele>
        <time>2021-05-21T09:29:34Z</time>
      </trkpt>
      <trkpt lat="42.3581520" lon="-8.6159230">
        <ele>42.7</ele>
        <time>2021-05-21T09:29:35Z</time>
      </trkpt>
      <trkpt lat="42.3581480" lon="-8.6159320">
        <ele>42.7</ele>
        <time>2021-05-21T09:29:36Z</time>
      </trkpt>
      <trkpt lat="42.3581460" lon="-8.6159360">
        <ele>42.7</ele>
        <time>2021-05-21T09:29:37Z</time>
      </trkpt>
      <trkpt lat="42.3581450" lon="-8.6159350">
        <ele>42.7</ele>
        <time>2021-05-21T09:29:38Z</time>
      </trkpt>
      <trkpt lat="42.3581390" lon="-8.6159350">
        <ele>42.7</ele>
        <time>2021-05-21T09:29:39Z</time>
      </trkpt>
      <trkpt lat="42.3581310" lon="-8.6159380">
        <ele>42.7</ele>
        <time>2021-05-21T09:29:40Z</time>
      </trkpt>
      <trkpt lat="42.3581110" lon="-8.6159520">
        <ele>42.7</ele>
        <time>2021-05-21T09:29:41Z</time>
      </trkpt>
      <trkpt lat="42.3580970" lon="-8.6159540">
        <ele>42.7</ele>
        <time>2021-05-21T09:29:42Z</time>
      </trkpt>
      <trkpt lat="42.3580940" lon="-8.6159480">
        <ele>42.7</ele>
        <time>2021-05-21T09:29:43Z</time>
      </trkpt>
      <trkpt lat="42.3580880" lon="-8.6159370">
        <ele>42.7</ele>
        <time>2021-05-21T09:29:44Z</time>
      </trkpt>
      <trkpt lat="42.3580780" lon="-8.6159170">
        <ele>42.7</ele>
        <time>2021-05-21T09:29:45Z</time>
      </trkpt>
      <trkpt lat="42.3580740" lon="-8.6159170">
        <ele>42.7</ele>
        <time>2021-05-21T09:29:46Z</time>
      </trkpt>
      <trkpt lat="42.3580640" lon="-8.6159010">
        <ele>42.7</ele>
        <time>2021-05-21T09:29:47Z</time>
      </trkpt>
      <trkpt lat="42.3580530" lon="-8.6158910">
        <ele>42.7</ele>
        <time>2021-05-21T09:29:48Z</time>
      </trkpt>
      <trkpt lat="42.3580490" lon="-8.6158900">
        <ele>42.7</ele>
        <time>2021-05-21T09:29:49Z</time>
      </trkpt>
      <trkpt lat="42.3580450" lon="-8.6158920">
        <ele>42.7</ele>
        <time>2021-05-21T09:29:50Z</time>
      </trkpt>
      <trkpt lat="42.3580410" lon="-8.6158930">
        <ele>42.7</ele>
        <time>2021-05-21T09:29:51Z</time>
      </trkpt>
      <trkpt lat="42.3580380" lon="-8.6158990">
        <ele>42.7</ele>
        <time>2021-05-21T09:29:52Z</time>
      </trkpt>
      <trkpt lat="42.3580360" lon="-8.6159000">
        <ele>42.7</ele>
        <time>2021-05-21T09:29:53Z</time>
      </trkpt>
      <trkpt lat="42.3580380" lon="-8.6158990">
        <ele>42.7</ele>
        <time>2021-05-21T09:29:54Z</time>
      </trkpt>
      <trkpt lat="42.3580420" lon="-8.6158960">
        <ele>42.7</ele>
        <time>2021-05-21T09:29:55Z</time>
      </trkpt>
      <trkpt lat="42.3580380" lon="-8.6158850">
        <ele>42.7</ele>
        <time>2021-05-21T09:29:56Z</time>
      </trkpt>
      <trkpt lat="42.3580260" lon="-8.6158800">
        <ele>42.7</ele>
        <time>2021-05-21T09:29:57Z</time>
      </trkpt>
      <trkpt lat="42.3580130" lon="-8.6158650">
        <ele>42.7</ele>
        <time>2021-05-21T09:29:58Z</time>
      </trkpt>
      <trkpt lat="42.3580030" lon="-8.6158540">
        <ele>42.7</ele>
        <time>2021-05-21T09:29:59Z</time>
      </trkpt>
      <trkpt lat="42.3579980" lon="-8.6158400">
        <ele>42.7</ele>
        <time>2021-05-21T09:30:00Z</time>
      </trkpt>
      <trkpt lat="42.3579890" lon="-8.6158290">
        <ele>42.7</ele>
        <time>2021-05-21T09:30:01Z</time>
      </trkpt>
      <trkpt lat="42.3579860" lon="-8.6158120">
        <ele>42.7</ele>
        <time>2021-05-21T09:30:02Z</time>
      </trkpt>
      <trkpt lat="42.3579850" lon="-8.6158030">
        <ele>42.7</ele>
        <time>2021-05-21T09:30:03Z</time>
      </trkpt>
      <trkpt lat="42.3579830" lon="-8.6157930">
        <ele>42.8</ele>
        <time>2021-05-21T09:30:04Z</time>
      </trkpt>
      <trkpt lat="42.3579860" lon="-8.6157940">
        <ele>42.8</ele>
        <time>2021-05-21T09:30:05Z</time>
      </trkpt>
      <trkpt lat="42.3579880" lon="-8.6157990">
        <ele>42.8</ele>
        <time>2021-05-21T09:30:06Z</time>
      </trkpt>
      <trkpt lat="42.3579920" lon="-8.6158060">
        <ele>42.8</ele>
        <time>2021-05-21T09:30:07Z</time>
      </trkpt>
      <trkpt lat="42.3579930" lon="-8.6158040">
        <ele>42.8</ele>
        <time>2021-05-21T09:30:08Z</time>
      </trkpt>
      <trkpt lat="42.3579980" lon="-8.6158050">
        <ele>42.8</ele>
        <time>2021-05-21T09:30:09Z</time>
      </trkpt>
      <trkpt lat="42.3580010" lon="-8.6158080">
        <ele>42.8</ele>
        <time>2021-05-21T09:30:10Z</time>
      </trkpt>
      <trkpt lat="42.3580010" lon="-8.6158070">
        <ele>42.8</ele>
        <time>2021-05-21T09:30:11Z</time>
      </trkpt>
      <trkpt lat="42.3580040" lon="-8.6158120">
        <ele>42.8</ele>
        <time>2021-05-21T09:30:12Z</time>
      </trkpt>
      <trkpt lat="42.3580060" lon="-8.6158150">
        <ele>42.8</ele>
        <time>2021-05-21T09:30:13Z</time>
      </trkpt>
      <trkpt lat="42.3580040" lon="-8.6158130">
        <ele>42.8</ele>
        <time>2021-05-21T09:30:14Z</time>
      </trkpt>
      <trkpt lat="42.3580020" lon="-8.6158110">
        <ele>42.8</ele>
        <time>2021-05-21T09:30:15Z</time>
      </trkpt>
      <trkpt lat="42.3580010" lon="-8.6158020">
        <ele>42.8</ele>
        <time>2021-05-21T09:30:16Z</time>
      </trkpt>
      <trkpt lat="42.3580050" lon="-8.6157930">
        <ele>42.8</ele>
        <time>2021-05-21T09:30:17Z</time>
      </trkpt>
      <trkpt lat="42.3580060" lon="-8.6157870">
        <ele>42.8</ele>
        <time>2021-05-21T09:30:18Z</time>
      </trkpt>
      <trkpt lat="42.3580040" lon="-8.6157790">
        <ele>42.8</ele>
        <time>2021-05-21T09:30:19Z</time>
      </trkpt>
      <trkpt lat="42.3579980" lon="-8.6157720">
        <ele>42.8</ele>
        <time>2021-05-21T09:30:20Z</time>
      </trkpt>
      <trkpt lat="42.3579930" lon="-8.6157620">
        <ele>42.8</ele>
        <time>2021-05-21T09:30:21Z</time>
      </trkpt>
      <trkpt lat="42.3579940" lon="-8.6157550">
        <ele>42.8</ele>
        <time>2021-05-21T09:30:22Z</time>
      </trkpt>
      <trkpt lat="42.3579920" lon="-8.6157540">
        <ele>42.8</ele>
        <time>2021-05-21T09:30:23Z</time>
      </trkpt>
      <trkpt lat="42.3579930" lon="-8.6157520">
        <ele>42.8</ele>
        <time>2021-05-21T09:30:24Z</time>
      </trkpt>
      <trkpt lat="42.3579960" lon="-8.6157520">
        <ele>42.8</ele>
        <time>2021-05-21T09:30:25Z</time>
      </trkpt>
      <trkpt lat="42.3579940" lon="-8.6157490">
        <ele>42.8</ele>
        <time>2021-05-21T09:30:26Z</time>
      </trkpt>
      <trkpt lat="42.3579920" lon="-8.6157500">
        <ele>42.8</ele>
        <time>2021-05-21T09:30:27Z</time>
      </trkpt>
      <trkpt lat="42.3579960" lon="-8.6157520">
        <ele>42.8</ele>
        <time>2021-05-21T09:30:28Z</time>
      </trkpt>
      <trkpt lat="42.3579940" lon="-8.6157560">
        <ele>42.8</ele>
        <time>2021-05-21T09:30:29Z</time>
      </trkpt>
      <trkpt lat="42.3579950" lon="-8.6157600">
        <ele>42.8</ele>
        <time>2021-05-21T09:30:30Z</time>
      </trkpt>
      <trkpt lat="42.3579960" lon="-8.6157620">
        <ele>42.8</ele>
        <time>2021-05-21T09:30:31Z</time>
      </trkpt>
      <trkpt lat="42.3580010" lon="-8.6157590">
        <ele>42.8</ele>
        <time>2021-05-21T09:30:32Z</time>
      </trkpt>
      <trkpt lat="42.3579980" lon="-8.6157550">
        <ele>42.8</ele>
        <time>2021-05-21T09:30:33Z</time>
      </trkpt>
      <trkpt lat="42.3579990" lon="-8.6157460">
        <ele>42.8</ele>
        <time>2021-05-21T09:30:34Z</time>
      </trkpt>
      <trkpt lat="42.3580040" lon="-8.6157480">
        <ele>42.8</ele>
        <time>2021-05-21T09:30:35Z</time>
      </trkpt>
      <trkpt lat="42.3580070" lon="-8.6157530">
        <ele>42.8</ele>
        <time>2021-05-21T09:30:36Z</time>
      </trkpt>
      <trkpt lat="42.3580090" lon="-8.6157590">
        <ele>42.8</ele>
        <time>2021-05-21T09:30:37Z</time>
      </trkpt>
      <trkpt lat="42.3580120" lon="-8.6157600">
        <ele>42.9</ele>
        <time>2021-05-21T09:30:38Z</time>
      </trkpt>
      <trkpt lat="42.3580150" lon="-8.6157580">
        <ele>42.9</ele>
        <time>2021-05-21T09:30:39Z</time>
      </trkpt>
      <trkpt lat="42.3580240" lon="-8.6157670">
        <ele>42.9</ele>
        <time>2021-05-21T09:30:40Z</time>
      </trkpt>
      <trkpt lat="42.3580280" lon="-8.6157680">
        <ele>42.9</ele>
        <time>2021-05-21T09:30:41Z</time>
      </trkpt>
      <trkpt lat="42.3580330" lon="-8.6157660">
        <ele>42.9</ele>
        <time>2021-05-21T09:30:42Z</time>
      </trkpt>
      <trkpt lat="42.3580380" lon="-8.6157660">
        <ele>42.9</ele>
        <time>2021-05-21T09:30:43Z</time>
      </trkpt>
      <trkpt lat="42.3580400" lon="-8.6157630">
        <ele>42.9</ele>
        <time>2021-05-21T09:30:44Z</time>
      </trkpt>
      <trkpt lat="42.3580440" lon="-8.6157610">
        <ele>42.9</ele>
        <time>2021-05-21T09:30:45Z</time>
      </trkpt>
      <trkpt lat="42.3580480" lon="-8.6157590">
        <ele>42.9</ele>
        <time>2021-05-21T09:30:46Z</time>
      </trkpt>
      <trkpt lat="42.3580560" lon="-8.6157610">
        <ele>42.9</ele>
        <time>2021-05-21T09:30:47Z</time>
      </trkpt>
      <trkpt lat="42.3580660" lon="-8.6157580">
        <ele>42.9</ele>
        <time>2021-05-21T09:30:48Z</time>
      </trkpt>
      <trkpt lat="42.3580780" lon="-8.6157560">
        <ele>42.9</ele>
        <time>2021-05-21T09:30:49Z</time>
      </trkpt>
      <trkpt lat="42.3580850" lon="-8.6157530">
        <ele>42.9</ele>
        <time>2021-05-21T09:30:50Z</time>
      </trkpt>
      <trkpt lat="42.3580930" lon="-8.6157590">
        <ele>43.0</ele>
        <time>2021-05-21T09:30:51Z</time>
      </trkpt>
      <trkpt lat="42.3580970" lon="-8.6157630">
        <ele>43.0</ele>
        <time>2021-05-21T09:30:52Z</time>
      </trkpt>
      <trkpt lat="42.3581010" lon="-8.6157670">
        <ele>43.0</ele>
        <time>2021-05-21T09:30:53Z</time>
      </trkpt>
      <trkpt lat="42.3581040" lon="-8.6157700">
        <ele>43.0</ele>
        <time>2021-05-21T09:30:54Z</time>
      </trkpt>
      <trkpt lat="42.3581080" lon="-8.6157740">
        <ele>43.0</ele>
        <time>2021-05-21T09:30:55Z</time>
      </trkpt>
      <trkpt lat="42.3581120" lon="-8.6157780">
        <ele>43.0</ele>
        <time>2021-05-21T09:30:56Z</time>
      </trkpt>
      <trkpt lat="42.3581160" lon="-8.6157820">
        <ele>43.0</ele>
        <time>2021-05-21T09:30:57Z</time>
      </trkpt>
      <trkpt lat="42.3581120" lon="-8.6157920">
        <ele>43.0</ele>
        <time>2021-05-21T09:30:58Z</time>
      </trkpt>
      <trkpt lat="42.3581150" lon="-8.6158010">
        <ele>43.0</ele>
        <time>2021-05-21T09:30:59Z</time>
      </trkpt>
      <trkpt lat="42.3581150" lon="-8.6158010">
        <ele>43.0</ele>
        <time>2021-05-21T09:31:00Z</time>
      </trkpt>
      <trkpt lat="42.3581170" lon="-8.6158210">
        <ele>43.0</ele>
        <time>2021-05-21T09:31:01Z</time>
      </trkpt>
      <trkpt lat="42.3581090" lon="-8.6158300">
        <ele>43.1</ele>
        <time>2021-05-21T09:31:02Z</time>
      </trkpt>
      <trkpt lat="42.3581050" lon="-8.6158360">
        <ele>43.1</ele>
        <time>2021-05-21T09:31:03Z</time>
      </trkpt>
      <trkpt lat="42.3581000" lon="-8.6158420">
        <ele>43.1</ele>
        <time>2021-05-21T09:31:04Z</time>
      </trkpt>
      <trkpt lat="42.3580910" lon="-8.6158490">
        <ele>43.1</ele>
        <time>2021-05-21T09:31:05Z</time>
      </trkpt>
      <trkpt lat="42.3580840" lon="-8.6158530">
        <ele>43.1</ele>
        <time>2021-05-21T09:31:06Z</time>
      </trkpt>
      <trkpt lat="42.3580800" lon="-8.6158530">
        <ele>43.1</ele>
        <time>2021-05-21T09:31:07Z</time>
      </trkpt>
      <trkpt lat="42.3580800" lon="-8.6158520">
        <ele>43.1</ele>
        <time>2021-05-21T09:31:08Z</time>
      </trkpt>
      <trkpt lat="42.3580860" lon="-8.6158600">
        <ele>43.2</ele>
        <time>2021-05-21T09:31:09Z</time>
      </trkpt>
      <trkpt lat="42.3580940" lon="-8.6158580">
        <ele>43.2</ele>
        <time>2021-05-21T09:31:10Z</time>
      </trkpt>
      <trkpt lat="42.3581020" lon="-8.6158580">
        <ele>43.2</ele>
        <time>2021-05-21T09:31:11Z</time>
      </trkpt>
      <trkpt lat="42.3581000" lon="-8.6158610">
        <ele>43.2</ele>
        <time>2021-05-21T09:31:12Z</time>
      </trkpt>
      <trkpt lat="42.3581030" lon="-8.6158570">
        <ele>43.2</ele>
        <time>2021-05-21T09:31:13Z</time>
      </trkpt>
      <trkpt lat="42.3581090" lon="-8.6158560">
        <ele>43.2</ele>
        <time>2021-05-21T09:31:14Z</time>
      </trkpt>
      <trkpt lat="42.3581100" lon="-8.6158590">
        <ele>43.2</ele>
        <time>2021-05-21T09:31:15Z</time>
      </trkpt>
      <trkpt lat="42.3581070" lon="-8.6158580">
        <ele>43.2</ele>
        <time>2021-05-21T09:31:16Z</time>
      </trkpt>
      <trkpt lat="42.3581140" lon="-8.6158480">
        <ele>43.3</ele>
        <time>2021-05-21T09:31:17Z</time>
      </trkpt>
      <trkpt lat="42.3581230" lon="-8.6158450">
        <ele>43.3</ele>
        <time>2021-05-21T09:31:18Z</time>
      </trkpt>
      <trkpt lat="42.3581220" lon="-8.6158500">
        <ele>43.3</ele>
        <time>2021-05-21T09:31:19Z</time>
      </trkpt>
      <trkpt lat="42.3581290" lon="-8.6158600">
        <ele>43.3</ele>
        <time>2021-05-21T09:31:20Z</time>
      </trkpt>
      <trkpt lat="42.3581250" lon="-8.6158720">
        <ele>43.3</ele>
        <time>2021-05-21T09:31:21Z</time>
      </trkpt>
      <trkpt lat="42.3581290" lon="-8.6158750">
        <ele>43.4</ele>
        <time>2021-05-21T09:31:22Z</time>
      </trkpt>
      <trkpt lat="42.3581340" lon="-8.6158820">
        <ele>43.4</ele>
        <time>2021-05-21T09:31:23Z</time>
      </trkpt>
      <trkpt lat="42.3581330" lon="-8.6158890">
        <ele>43.4</ele>
        <time>2021-05-21T09:31:24Z</time>
      </trkpt>
      <trkpt lat="42.3581300" lon="-8.6158920">
        <ele>43.4</ele>
        <time>2021-05-21T09:31:25Z</time>
      </trkpt>
      <trkpt lat="42.3581200" lon="-8.6158940">
        <ele>43.4</ele>
        <time>2021-05-21T09:31:26Z</time>
      </trkpt>
      <trkpt lat="42.3581190" lon="-8.6159020">
        <ele>43.4</ele>
        <time>2021-05-21T09:31:27Z</time>
      </trkpt>
      <trkpt lat="42.3581240" lon="-8.6159130">
        <ele>43.5</ele>
        <time>2021-05-21T09:31:28Z</time>
      </trkpt>
      <trkpt lat="42.3581230" lon="-8.6159160">
        <ele>43.5</ele>
        <time>2021-05-21T09:31:29Z</time>
      </trkpt>
      <trkpt lat="42.3581170" lon="-8.6159190">
        <ele>43.5</ele>
        <time>2021-05-21T09:31:30Z</time>
      </trkpt>
      <trkpt lat="42.3581150" lon="-8.6159220">
        <ele>43.5</ele>
        <time>2021-05-21T09:31:31Z</time>
      </trkpt>
      <trkpt lat="42.3581210" lon="-8.6159260">
        <ele>43.5</ele>
        <time>2021-05-21T09:31:32Z</time>
      </trkpt>
      <trkpt lat="42.3581330" lon="-8.6159270">
        <ele>43.5</ele>
        <time>2021-05-21T09:31:33Z</time>
      </trkpt>
      <trkpt lat="42.3581350" lon="-8.6159280">
        <ele>43.6</ele>
        <time>2021-05-21T09:31:34Z</time>
      </trkpt>
      <trkpt lat="42.3581460" lon="-8.6159140">
        <ele>43.6</ele>
        <time>2021-05-21T09:31:35Z</time>
      </trkpt>
      <trkpt lat="42.3581520" lon="-8.6159110">
        <ele>43.6</ele>
        <time>2021-05-21T09:31:36Z</time>
      </trkpt>
      <trkpt lat="42.3581430" lon="-8.6159130">
        <ele>43.6</ele>
        <time>2021-05-21T09:31:37Z</time>
      </trkpt>
      <trkpt lat="42.3581390" lon="-8.6159100">
        <ele>43.7</ele>
        <time>2021-05-21T09:31:38Z</time>
      </trkpt>
      <trkpt lat="42.3581360" lon="-8.6159060">
        <ele>43.7</ele>
        <time>2021-05-21T09:31:39Z</time>
      </trkpt>
      <trkpt lat="42.3581320" lon="-8.6159030">
        <ele>43.7</ele>
        <time>2021-05-21T09:31:40Z</time>
      </trkpt>
      <trkpt lat="42.3581290" lon="-8.6159000">
        <ele>43.7</ele>
        <time>2021-05-21T09:31:41Z</time>
      </trkpt>
      <trkpt lat="42.3581250" lon="-8.6158970">
        <ele>43.7</ele>
        <time>2021-05-21T09:31:42Z</time>
      </trkpt>
      <trkpt lat="42.3581220" lon="-8.6158940">
        <ele>43.7</ele>
        <time>2021-05-21T09:31:43Z</time>
      </trkpt>
      <trkpt lat="42.3581180" lon="-8.6158900">
        <ele>43.7</ele>
        <time>2021-05-21T09:31:44Z</time>
      </trkpt>
      <trkpt lat="42.3581150" lon="-8.6158870">
        <ele>43.8</ele>
        <time>2021-05-21T09:31:45Z</time>
      </trkpt>
      <trkpt lat="42.3581110" lon="-8.6158840">
        <ele>43.8</ele>
        <time>2021-05-21T09:31:46Z</time>
      </trkpt>
      <trkpt lat="42.3580880" lon="-8.6158610">
        <ele>43.9</ele>
        <time>2021-05-21T09:31:47Z</time>
      </trkpt>
      <trkpt lat="42.3580800" lon="-8.6158520">
        <ele>43.9</ele>
        <time>2021-05-21T09:31:48Z</time>
      </trkpt>
      <trkpt lat="42.3580730" lon="-8.6158430">
        <ele>43.9</ele>
        <time>2021-05-21T09:31:49Z</time>
      </trkpt>
      <trkpt lat="42.3580710" lon="-8.6158370">
        <ele>43.9</ele>
        <time>2021-05-21T09:31:50Z</time>
      </trkpt>
      <trkpt lat="42.3580620" lon="-8.6158350">
        <ele>44.0</ele>
        <time>2021-05-21T09:31:51Z</time>
      </trkpt>
      <trkpt lat="42.3580610" lon="-8.6158270">
        <ele>44.0</ele>
        <time>2021-05-21T09:31:52Z</time>
      </trkpt>
      <trkpt lat="42.3580550" lon="-8.6158190">
        <ele>44.0</ele>
        <time>2021-05-21T09:31:53Z</time>
      </trkpt>
      <trkpt lat="42.3580530" lon="-8.6158060">
        <ele>44.1</ele>
        <time>2021-05-21T09:31:54Z</time>
      </trkpt>
      <trkpt lat="42.3580510" lon="-8.6158010">
        <ele>44.1</ele>
        <time>2021-05-21T09:31:55Z</time>
      </trkpt>
      <trkpt lat="42.3580490" lon="-8.6157950">
        <ele>44.1</ele>
        <time>2021-05-21T09:31:56Z</time>
      </trkpt>
      <trkpt lat="42.3580520" lon="-8.6157820">
        <ele>44.1</ele>
        <time>2021-05-21T09:31:57Z</time>
      </trkpt>
      <trkpt lat="42.3580630" lon="-8.6157860">
        <ele>44.2</ele>
        <time>2021-05-21T09:31:58Z</time>
      </trkpt>
      <trkpt lat="42.3580700" lon="-8.6157820">
        <ele>44.2</ele>
        <time>2021-05-21T09:31:59Z</time>
      </trkpt>
      <trkpt lat="42.3580850" lon="-8.6157780">
        <ele>44.2</ele>
        <time>2021-05-21T09:32:00Z</time>
      </trkpt>
      <trkpt lat="42.3580870" lon="-8.6157560">
        <ele>44.3</ele>
        <time>2021-05-21T09:32:01Z</time>
      </trkpt>
      <trkpt lat="42.3580930" lon="-8.6157490">
        <ele>44.3</ele>
        <time>2021-05-21T09:32:02Z</time>
      </trkpt>
      <trkpt lat="42.3581010" lon="-8.6157450">
        <ele>44.3</ele>
        <time>2021-05-21T09:32:03Z</time>
      </trkpt>
      <trkpt lat="42.3581180" lon="-8.6157350">
        <ele>44.4</ele>
        <time>2021-05-21T09:32:04Z</time>
      </trkpt>
      <trkpt lat="42.3581290" lon="-8.6157240">
        <ele>44.5</ele>
        <time>2021-05-21T09:32:05Z</time>
      </trkpt>
      <trkpt lat="42.3581400" lon="-8.6157120">
        <ele>44.5</ele>
        <time>2021-05-21T09:32:06Z</time>
      </trkpt>
      <trkpt lat="42.3581580" lon="-8.6157070">
        <ele>44.6</ele>
        <time>2021-05-21T09:32:07Z</time>
      </trkpt>
      <trkpt lat="42.3581710" lon="-8.6157020">
        <ele>44.6</ele>
        <time>2021-05-21T09:32:08Z</time>
      </trkpt>
      <trkpt lat="42.3581770" lon="-8.6157040">
        <ele>44.6</ele>
        <time>2021-05-21T09:32:09Z</time>
      </trkpt>
      <trkpt lat="42.3581940" lon="-8.6157030">
        <ele>44.7</ele>
        <time>2021-05-21T09:32:10Z</time>
      </trkpt>
      <trkpt lat="42.3581990" lon="-8.6156920">
        <ele>44.7</ele>
        <time>2021-05-21T09:32:11Z</time>
      </trkpt>
      <trkpt lat="42.3582110" lon="-8.6156760">
        <ele>44.8</ele>
        <time>2021-05-21T09:32:12Z</time>
      </trkpt>
      <trkpt lat="42.3582210" lon="-8.6156720">
        <ele>44.8</ele>
        <time>2021-05-21T09:32:13Z</time>
      </trkpt>
      <trkpt lat="42.3582300" lon="-8.6156660">
        <ele>44.9</ele>
        <time>2021-05-21T09:32:14Z</time>
      </trkpt>
      <trkpt lat="42.3582320" lon="-8.6156640">
        <ele>44.9</ele>
        <time>2021-05-21T09:32:15Z</time>
      </trkpt>
      <trkpt lat="42.3582340" lon="-8.6156630">
        <ele>44.9</ele>
        <time>2021-05-21T09:32:16Z</time>
      </trkpt>
      <trkpt lat="42.3582310" lon="-8.6156610">
        <ele>44.9</ele>
        <time>2021-05-21T09:32:17Z</time>
      </trkpt>
      <trkpt lat="42.3582280" lon="-8.6156600">
        <ele>44.9</ele>
        <time>2021-05-21T09:32:18Z</time>
      </trkpt>
      <trkpt lat="42.3582260" lon="-8.6156490">
        <ele>45.0</ele>
        <time>2021-05-21T09:32:19Z</time>
      </trkpt>
      <trkpt lat="42.3582300" lon="-8.6156400">
        <ele>45.0</ele>
        <time>2021-05-21T09:32:20Z</time>
      </trkpt>
      <trkpt lat="42.3582430" lon="-8.6156400">
        <ele>45.1</ele>
        <time>2021-05-21T09:32:21Z</time>
      </trkpt>
      <trkpt lat="42.3582570" lon="-8.6156350">
        <ele>45.1</ele>
        <time>2021-05-21T09:32:22Z</time>
      </trkpt>
      <trkpt lat="42.3582650" lon="-8.6156330">
        <ele>45.2</ele>
        <time>2021-05-21T09:32:23Z</time>
      </trkpt>
      <trkpt lat="42.3582740" lon="-8.6156320">
        <ele>45.2</ele>
        <time>2021-05-21T09:32:24Z</time>
      </trkpt>
      <trkpt lat="42.3582820" lon="-8.6156300">
        <ele>45.2</ele>
        <time>2021-05-21T09:32:25Z</time>
      </trkpt>
      <trkpt lat="42.3582900" lon="-8.6156170">
        <ele>45.3</ele>
        <time>2021-05-21T09:32:26Z</time>
      </trkpt>
      <trkpt lat="42.3582990" lon="-8.6156190">
        <ele>45.4</ele>
        <time>2021-05-21T09:32:27Z</time>
      </trkpt>
      <trkpt lat="42.3583130" lon="-8.6156120">
        <ele>45.4</ele>
        <time>2021-05-21T09:32:28Z</time>
      </trkpt>
      <trkpt lat="42.3583310" lon="-8.6156030">
        <ele>45.6</ele>
        <time>2021-05-21T09:32:29Z</time>
      </trkpt>
      <trkpt lat="42.3583320" lon="-8.6156010">
        <ele>45.6</ele>
        <time>2021-05-21T09:32:30Z</time>
      </trkpt>
      <trkpt lat="42.3583330" lon="-8.6155980">
        <ele>45.6</ele>
        <time>2021-05-21T09:32:31Z</time>
      </trkpt>
      <trkpt lat="42.3583340" lon="-8.6155960">
        <ele>45.6</ele>
        <time>2021-05-21T09:32:32Z</time>
      </trkpt>
      <trkpt lat="42.3583350" lon="-8.6155930">
        <ele>45.6</ele>
        <time>2021-05-21T09:32:33Z</time>
      </trkpt>
      <trkpt lat="42.3583360" lon="-8.6155900">
        <ele>45.6</ele>
        <time>2021-05-21T09:32:34Z</time>
      </trkpt>
      <trkpt lat="42.3583370" lon="-8.6155880">
        <ele>45.6</ele>
        <time>2021-05-21T09:32:35Z</time>
      </trkpt>
      <trkpt lat="42.3583380" lon="-8.6155850">
        <ele>45.6</ele>
        <time>2021-05-21T09:32:36Z</time>
      </trkpt>
      <trkpt lat="42.3583390" lon="-8.6155830">
        <ele>45.7</ele>
        <time>2021-05-21T09:32:37Z</time>
      </trkpt>
      <trkpt lat="42.3583400" lon="-8.6155800">
        <ele>45.7</ele>
        <time>2021-05-21T09:32:38Z</time>
      </trkpt>
      <trkpt lat="42.3583510" lon="-8.6155750">
        <ele>45.8</ele>
        <time>2021-05-21T09:32:39Z</time>
      </trkpt>
      <trkpt lat="42.3583590" lon="-8.6155720">
        <ele>45.8</ele>
        <time>2021-05-21T09:32:40Z</time>
      </trkpt>
      <trkpt lat="42.3583700" lon="-8.6155680">
        <ele>45.9</ele>
        <time>2021-05-21T09:32:41Z</time>
      </trkpt>
      <trkpt lat="42.3583750" lon="-8.6155690">
        <ele>45.9</ele>
        <time>2021-05-21T09:32:42Z</time>
      </trkpt>
      <trkpt lat="42.3583910" lon="-8.6155580">
        <ele>46.0</ele>
        <time>2021-05-21T09:32:43Z</time>
      </trkpt>
      <trkpt lat="42.3583960" lon="-8.6155540">
        <ele>46.1</ele>
        <time>2021-05-21T09:32:44Z</time>
      </trkpt>
      <trkpt lat="42.3584030" lon="-8.6155380">
        <ele>46.2</ele>
        <time>2021-05-21T09:32:45Z</time>
      </trkpt>
      <trkpt lat="42.3584140" lon="-8.6155190">
        <ele>46.3</ele>
        <time>2021-05-21T09:32:46Z</time>
      </trkpt>
      <trkpt lat="42.3584220" lon="-8.6155120">
        <ele>46.4</ele>
        <time>2021-05-21T09:32:47Z</time>
      </trkpt>
      <trkpt lat="42.3584260" lon="-8.6155100">
        <ele>46.4</ele>
        <time>2021-05-21T09:32:48Z</time>
      </trkpt>
      <trkpt lat="42.3584440" lon="-8.6155000">
        <ele>46.6</ele>
        <time>2021-05-21T09:32:49Z</time>
      </trkpt>
      <trkpt lat="42.3584510" lon="-8.6154970">
        <ele>46.6</ele>
        <time>2021-05-21T09:32:50Z</time>
      </trkpt>
      <trkpt lat="42.3584630" lon="-8.6154950">
        <ele>46.7</ele>
        <time>2021-05-21T09:32:51Z</time>
      </trkpt>
      <trkpt lat="42.3584710" lon="-8.6154850">
        <ele>46.8</ele>
        <time>2021-05-21T09:32:52Z</time>
      </trkpt>
      <trkpt lat="42.3584900" lon="-8.6154750">
        <ele>47.0</ele>
        <time>2021-05-21T09:32:53Z</time>
      </trkpt>
      <trkpt lat="42.3584960" lon="-8.6154740">
        <ele>47.0</ele>
        <time>2021-05-21T09:32:54Z</time>
      </trkpt>
      <trkpt lat="42.3585020" lon="-8.6154720">
        <ele>47.1</ele>
        <time>2021-05-21T09:32:55Z</time>
      </trkpt>
      <trkpt lat="42.3585080" lon="-8.6154700">
        <ele>47.1</ele>
        <time>2021-05-21T09:32:56Z</time>
      </trkpt>
      <trkpt lat="42.3585230" lon="-8.6154590">
        <ele>47.3</ele>
        <time>2021-05-21T09:32:57Z</time>
      </trkpt>
      <trkpt lat="42.3585340" lon="-8.6154550">
        <ele>47.4</ele>
        <time>2021-05-21T09:32:58Z</time>
      </trkpt>
      <trkpt lat="42.3585430" lon="-8.6154580">
        <ele>47.4</ele>
        <time>2021-05-21T09:32:59Z</time>
      </trkpt>
      <trkpt lat="42.3585510" lon="-8.6154540">
        <ele>47.5</ele>
        <time>2021-05-21T09:33:00Z</time>
      </trkpt>
      <trkpt lat="42.3585670" lon="-8.6154550">
        <ele>47.6</ele>
        <time>2021-05-21T09:33:01Z</time>
      </trkpt>
      <trkpt lat="42.3585740" lon="-8.6154520">
        <ele>47.7</ele>
        <time>2021-05-21T09:33:02Z</time>
      </trkpt>
      <trkpt lat="42.3585820" lon="-8.6154500">
        <ele>47.8</ele>
        <time>2021-05-21T09:33:03Z</time>
      </trkpt>
      <trkpt lat="42.3585950" lon="-8.6154410">
        <ele>47.9</ele>
        <time>2021-05-21T09:33:04Z</time>
      </trkpt>
      <trkpt lat="42.3585980" lon="-8.6154390">
        <ele>47.9</ele>
        <time>2021-05-21T09:33:05Z</time>
      </trkpt>
      <trkpt lat="42.3586040" lon="-8.6154350">
        <ele>48.0</ele>
        <time>2021-05-21T09:33:06Z</time>
      </trkpt>
      <trkpt lat="42.3586140" lon="-8.6154290">
        <ele>48.0</ele>
        <time>2021-05-21T09:33:07Z</time>
      </trkpt>
      <trkpt lat="42.3586180" lon="-8.6154220">
        <ele>48.1</ele>
        <time>2021-05-21T09:33:08Z</time>
      </trkpt>
      <trkpt lat="42.3586270" lon="-8.6154220">
        <ele>48.2</ele>
        <time>2021-05-21T09:33:09Z</time>
      </trkpt>
      <trkpt lat="42.3586290" lon="-8.6154220">
        <ele>48.2</ele>
        <time>2021-05-21T09:33:10Z</time>
      </trkpt>
      <trkpt lat="42.3586400" lon="-8.6154080">
        <ele>48.3</ele>
        <time>2021-05-21T09:33:11Z</time>
      </trkpt>
      <trkpt lat="42.3586440" lon="-8.6154110">
        <ele>48.3</ele>
        <time>2021-05-21T09:33:12Z</time>
      </trkpt>
      <trkpt lat="42.3586430" lon="-8.6154090">
        <ele>48.3</ele>
        <time>2021-05-21T09:33:13Z</time>
      </trkpt>
      <trkpt lat="42.3586490" lon="-8.6154110">
        <ele>48.4</ele>
        <time>2021-05-21T09:33:14Z</time>
      </trkpt>
      <trkpt lat="42.3586450" lon="-8.6154010">
        <ele>48.4</ele>
        <time>2021-05-21T09:33:15Z</time>
      </trkpt>
      <trkpt lat="42.3586440" lon="-8.6153980">
        <ele>48.5</ele>
        <time>2021-05-21T09:33:16Z</time>
      </trkpt>
      <trkpt lat="42.3586380" lon="-8.6153900">
        <ele>48.5</ele>
        <time>2021-05-21T09:33:17Z</time>
      </trkpt>
      <trkpt lat="42.3586330" lon="-8.6153850">
        <ele>48.6</ele>
        <time>2021-05-21T09:33:18Z</time>
      </trkpt>
      <trkpt lat="42.3586280" lon="-8.6153860">
        <ele>48.6</ele>
        <time>2021-05-21T09:33:19Z</time>
      </trkpt>
      <trkpt lat="42.3586260" lon="-8.6153870">
        <ele>48.6</ele>
        <time>2021-05-21T09:33:20Z</time>
      </trkpt>
      <trkpt lat="42.3586280" lon="-8.6153900">
        <ele>48.6</ele>
        <time>2021-05-21T09:33:21Z</time>
      </trkpt>
      <trkpt lat="42.3586230" lon="-8.6153880">
        <ele>48.7</ele>
        <time>2021-05-21T09:33:22Z</time>
      </trkpt>
      <trkpt lat="42.3586220" lon="-8.6153980">
        <ele>48.7</ele>
        <time>2021-05-21T09:33:23Z</time>
      </trkpt>
      <trkpt lat="42.3586200" lon="-8.6153970">
        <ele>48.7</ele>
        <time>2021-05-21T09:33:24Z</time>
      </trkpt>
      <trkpt lat="42.3586220" lon="-8.6153960">
        <ele>48.8</ele>
        <time>2021-05-21T09:33:25Z</time>
      </trkpt>
      <trkpt lat="42.3586210" lon="-8.6153990">
        <ele>48.8</ele>
        <time>2021-05-21T09:33:26Z</time>
      </trkpt>
      <trkpt lat="42.3586210" lon="-8.6153980">
        <ele>48.8</ele>
        <time>2021-05-21T09:33:27Z</time>
      </trkpt>
      <trkpt lat="42.3586200" lon="-8.6154030">
        <ele>48.8</ele>
        <time>2021-05-21T09:33:28Z</time>
      </trkpt>
      <trkpt lat="42.3586190" lon="-8.6153950">
        <ele>48.9</ele>
        <time>2021-05-21T09:33:29Z</time>
      </trkpt>
      <trkpt lat="42.3586230" lon="-8.6153990">
        <ele>48.9</ele>
        <time>2021-05-21T09:33:30Z</time>
      </trkpt>
      <trkpt lat="42.3586240" lon="-8.6153990">
        <ele>48.9</ele>
        <time>2021-05-21T09:33:31Z</time>
      </trkpt>
      <trkpt lat="42.3586320" lon="-8.6153940">
        <ele>48.9</ele>
        <time>2021-05-21T09:33:32Z</time>
      </trkpt>
      <trkpt lat="42.3586320" lon="-8.6153970">
        <ele>49.0</ele>
        <time>2021-05-21T09:33:33Z</time>
      </trkpt>
      <trkpt lat="42.3586300" lon="-8.6154020">
        <ele>49.0</ele>
        <time>2021-05-21T09:33:34Z</time>
      </trkpt>
      <trkpt lat="42.3586310" lon="-8.6154080">
        <ele>49.0</ele>
        <time>2021-05-21T09:33:35Z</time>
      </trkpt>
      <trkpt lat="42.3586370" lon="-8.6154140">
        <ele>49.1</ele>
        <time>2021-05-21T09:33:36Z</time>
      </trkpt>
      <trkpt lat="42.3586420" lon="-8.6154120">
        <ele>49.1</ele>
        <time>2021-05-21T09:33:37Z</time>
      </trkpt>
      <trkpt lat="42.3586400" lon="-8.6154130">
        <ele>49.1</ele>
        <time>2021-05-21T09:33:38Z</time>
      </trkpt>
      <trkpt lat="42.3586430" lon="-8.6154100">
        <ele>49.1</ele>
        <time>2021-05-21T09:33:39Z</time>
      </trkpt>
      <trkpt lat="42.3586490" lon="-8.6154140">
        <ele>49.2</ele>
        <time>2021-05-21T09:33:40Z</time>
      </trkpt>
      <trkpt lat="42.3586510" lon="-8.6154160">
        <ele>49.2</ele>
        <time>2021-05-21T09:33:41Z</time>
      </trkpt>
      <trkpt lat="42.3586440" lon="-8.6154190">
        <ele>49.2</ele>
        <time>2021-05-21T09:33:42Z</time>
      </trkpt>
      <trkpt lat="42.3586410" lon="-8.6154180">
        <ele>49.3</ele>
        <time>2021-05-21T09:33:43Z</time>
      </trkpt>
      <trkpt lat="42.3586370" lon="-8.6154200">
        <ele>49.3</ele>
        <time>2021-05-21T09:33:44Z</time>
      </trkpt>
      <trkpt lat="42.3586330" lon="-8.6154140">
        <ele>49.3</ele>
        <time>2021-05-21T09:33:45Z</time>
      </trkpt>
      <trkpt lat="42.3586450" lon="-8.6154130">
        <ele>49.4</ele>
        <time>2021-05-21T09:33:46Z</time>
      </trkpt>
      <trkpt lat="42.3586420" lon="-8.6154190">
        <ele>49.4</ele>
        <time>2021-05-21T09:33:47Z</time>
      </trkpt>
      <trkpt lat="42.3586480" lon="-8.6154180">
        <ele>49.5</ele>
        <time>2021-05-21T09:33:48Z</time>
      </trkpt>
      <trkpt lat="42.3586460" lon="-8.6154150">
        <ele>49.5</ele>
        <time>2021-05-21T09:33:49Z</time>
      </trkpt>
      <trkpt lat="42.3586470" lon="-8.6154140">
        <ele>49.5</ele>
        <time>2021-05-21T09:33:50Z</time>
      </trkpt>
      <trkpt lat="42.3586500" lon="-8.6154120">
        <ele>49.5</ele>
        <time>2021-05-21T09:33:51Z</time>
      </trkpt>
      <trkpt lat="42.3586570" lon="-8.6154110">
        <ele>49.5</ele>
        <time>2021-05-21T09:33:52Z</time>
      </trkpt>
      <trkpt lat="42.3586630" lon="-8.6154090">
        <ele>49.6</ele>
        <time>2021-05-21T09:33:53Z</time>
      </trkpt>
      <trkpt lat="42.3586610" lon="-8.6154100">
        <ele>49.6</ele>
        <time>2021-05-21T09:33:54Z</time>
      </trkpt>
      <trkpt lat="42.3586610" lon="-8.6154120">
        <ele>49.6</ele>
        <time>2021-05-21T09:33:55Z</time>
      </trkpt>
      <trkpt lat="42.3586540" lon="-8.6154130">
        <ele>49.6</ele>
        <time>2021-05-21T09:33:56Z</time>
      </trkpt>
      <trkpt lat="42.3586630" lon="-8.6154110">
        <ele>49.7</ele>
        <time>2021-05-21T09:33:57Z</time>
      </trkpt>
      <trkpt lat="42.3586640" lon="-8.6154120">
        <ele>49.7</ele>
        <time>2021-05-21T09:33:58Z</time>
      </trkpt>
      <trkpt lat="42.3586620" lon="-8.6154130">
        <ele>49.7</ele>
        <time>2021-05-21T09:33:59Z</time>
      </trkpt>
      <trkpt lat="42.3586610" lon="-8.6154160">
        <ele>49.7</ele>
        <time>2021-05-21T09:34:00Z</time>
      </trkpt>
      <trkpt lat="42.3586620" lon="-8.6154140">
        <ele>49.7</ele>
        <time>2021-05-21T09:34:01Z</time>
      </trkpt>
      <trkpt lat="42.3586590" lon="-8.6154150">
        <ele>49.8</ele>
        <time>2021-05-21T09:34:02Z</time>
      </trkpt>
      <trkpt lat="42.3586590" lon="-8.6154130">
        <ele>49.8</ele>
        <time>2021-05-21T09:34:03Z</time>
      </trkpt>
      <trkpt lat="42.3586630" lon="-8.6154130">
        <ele>49.8</ele>
        <time>2021-05-21T09:34:04Z</time>
      </trkpt>
      <trkpt lat="42.3586630" lon="-8.6154130">
        <ele>49.8</ele>
        <time>2021-05-21T09:34:05Z</time>
      </trkpt>
      <trkpt lat="42.3586630" lon="-8.6154160">
        <ele>49.8</ele>
        <time>2021-05-21T09:34:06Z</time>
      </trkpt>
      <trkpt lat="42.3586650" lon="-8.6154160">
        <ele>49.8</ele>
        <time>2021-05-21T09:34:07Z</time>
      </trkpt>
      <trkpt lat="42.3586610" lon="-8.6154140">
        <ele>49.8</ele>
        <time>2021-05-21T09:34:08Z</time>
      </trkpt>
      <trkpt lat="42.3586580" lon="-8.6154120">
        <ele>49.8</ele>
        <time>2021-05-21T09:34:09Z</time>
      </trkpt>
      <trkpt lat="42.3586570" lon="-8.6154090">
        <ele>49.9</ele>
        <time>2021-05-21T09:34:10Z</time>
      </trkpt>
      <trkpt lat="42.3586530" lon="-8.6154060">
        <ele>49.9</ele>
        <time>2021-05-21T09:34:11Z</time>
      </trkpt>
      <trkpt lat="42.3586460" lon="-8.6154060">
        <ele>49.9</ele>
        <time>2021-05-21T09:34:12Z</time>
      </trkpt>
      <trkpt lat="42.3586430" lon="-8.6154030">
        <ele>49.9</ele>
        <time>2021-05-21T09:34:13Z</time>
      </trkpt>
      <trkpt lat="42.3586390" lon="-8.6154010">
        <ele>50.0</ele>
        <time>2021-05-21T09:34:14Z</time>
      </trkpt>
      <trkpt lat="42.3586320" lon="-8.6154010">
        <ele>50.0</ele>
        <time>2021-05-21T09:34:15Z</time>
      </trkpt>
      <trkpt lat="42.3586270" lon="-8.6154010">
        <ele>50.0</ele>
        <time>2021-05-21T09:34:16Z</time>
      </trkpt>
      <trkpt lat="42.3586260" lon="-8.6154010">
        <ele>50.0</ele>
        <time>2021-05-21T09:34:17Z</time>
      </trkpt>
      <trkpt lat="42.3586230" lon="-8.6154000">
        <ele>50.0</ele>
        <time>2021-05-21T09:34:18Z</time>
      </trkpt>
      <trkpt lat="42.3586220" lon="-8.6154060">
        <ele>50.1</ele>
        <time>2021-05-21T09:34:19Z</time>
      </trkpt>
      <trkpt lat="42.3586160" lon="-8.6154040">
        <ele>50.1</ele>
        <time>2021-05-21T09:34:20Z</time>
      </trkpt>
      <trkpt lat="42.3586100" lon="-8.6154080">
        <ele>50.1</ele>
        <time>2021-05-21T09:34:21Z</time>
      </trkpt>
      <trkpt lat="42.3586040" lon="-8.6154100">
        <ele>50.1</ele>
        <time>2021-05-21T09:34:22Z</time>
      </trkpt>
      <trkpt lat="42.3586110" lon="-8.6154110">
        <ele>50.2</ele>
        <time>2021-05-21T09:34:23Z</time>
      </trkpt>
      <trkpt lat="42.3586080" lon="-8.6154120">
        <ele>50.2</ele>
        <time>2021-05-21T09:34:24Z</time>
      </trkpt>
      <trkpt lat="42.3586110" lon="-8.6154130">
        <ele>50.2</ele>
        <time>2021-05-21T09:34:25Z</time>
      </trkpt>
      <trkpt lat="42.3586140" lon="-8.6154110">
        <ele>50.2</ele>
        <time>2021-05-21T09:34:26Z</time>
      </trkpt>
      <trkpt lat="42.3586200" lon="-8.6154050">
        <ele>50.3</ele>
        <time>2021-05-21T09:34:27Z</time>
      </trkpt>
      <trkpt lat="42.3586280" lon="-8.6154030">
        <ele>50.3</ele>
        <time>2021-05-21T09:34:28Z</time>
      </trkpt>
      <trkpt lat="42.3586310" lon="-8.6154030">
        <ele>50.3</ele>
        <time>2021-05-21T09:34:29Z</time>
      </trkpt>
      <trkpt lat="42.3586330" lon="-8.6154000">
        <ele>50.3</ele>
        <time>2021-05-21T09:34:30Z</time>
      </trkpt>
      <trkpt lat="42.3586340" lon="-8.6154010">
        <ele>50.3</ele>
        <time>2021-05-21T09:34:31Z</time>
      </trkpt>
      <trkpt lat="42.3586380" lon="-8.6153990">
        <ele>50.3</ele>
        <time>2021-05-21T09:34:32Z</time>
      </trkpt>
      <trkpt lat="42.3586400" lon="-8.6154010">
        <ele>50.3</ele>
        <time>2021-05-21T09:34:33Z</time>
      </trkpt>
      <trkpt lat="42.3586420" lon="-8.6153970">
        <ele>50.4</ele>
        <time>2021-05-21T09:34:34Z</time>
      </trkpt>
      <trkpt lat="42.3586480" lon="-8.6153980">
        <ele>50.4</ele>
        <time>2021-05-21T09:34:35Z</time>
      </trkpt>
      <trkpt lat="42.3586540" lon="-8.6153990">
        <ele>50.4</ele>
        <time>2021-05-21T09:34:36Z</time>
      </trkpt>
      <trkpt lat="42.3586580" lon="-8.6153990">
        <ele>50.4</ele>
        <time>2021-05-21T09:34:37Z</time>
      </trkpt>
      <trkpt lat="42.3586660" lon="-8.6153980">
        <ele>50.4</ele>
        <time>2021-05-21T09:34:38Z</time>
      </trkpt>
      <trkpt lat="42.3586700" lon="-8.6154030">
        <ele>50.5</ele>
        <time>2021-05-21T09:34:39Z</time>
      </trkpt>
      <trkpt lat="42.3586830" lon="-8.6154030">
        <ele>50.5</ele>
        <time>2021-05-21T09:34:40Z</time>
      </trkpt>
      <trkpt lat="42.3586890" lon="-8.6154020">
        <ele>50.5</ele>
        <time>2021-05-21T09:34:41Z</time>
      </trkpt>
      <trkpt lat="42.3586840" lon="-8.6153970">
        <ele>50.6</ele>
        <time>2021-05-21T09:34:42Z</time>
      </trkpt>
      <trkpt lat="42.3586860" lon="-8.6153940">
        <ele>50.6</ele>
        <time>2021-05-21T09:34:43Z</time>
      </trkpt>
      <trkpt lat="42.3586880" lon="-8.6153900">
        <ele>50.6</ele>
        <time>2021-05-21T09:34:44Z</time>
      </trkpt>
      <trkpt lat="42.3586920" lon="-8.6153890">
        <ele>50.6</ele>
        <time>2021-05-21T09:34:45Z</time>
      </trkpt>
      <trkpt lat="42.3586920" lon="-8.6153890">
        <ele>50.6</ele>
        <time>2021-05-21T09:34:46Z</time>
      </trkpt>
      <trkpt lat="42.3586920" lon="-8.6153890">
        <ele>50.6</ele>
        <time>2021-05-21T09:34:47Z</time>
      </trkpt>
      <trkpt lat="42.3586920" lon="-8.6153890">
        <ele>50.6</ele>
        <time>2021-05-21T09:34:48Z</time>
      </trkpt>
      <trkpt lat="42.3586920" lon="-8.6153890">
        <ele>50.6</ele>
        <time>2021-05-21T09:34:49Z</time>
      </trkpt>
      <trkpt lat="42.3586920" lon="-8.6153890">
        <ele>50.6</ele>
        <time>2021-05-21T09:34:50Z</time>
      </trkpt>
      <trkpt lat="42.3586920" lon="-8.6153890">
        <ele>50.6</ele>
        <time>2021-05-21T09:34:51Z</time>
      </trkpt>
      <trkpt lat="42.3586920" lon="-8.6153890">
        <ele>50.6</ele>
        <time>2021-05-21T09:34:52Z</time>
      </trkpt>
      <trkpt lat="42.3586920" lon="-8.6153890">
        <ele>50.6</ele>
        <time>2021-05-21T09:34:53Z</time>
      </trkpt>
      <trkpt lat="42.3586920" lon="-8.6153890">
        <ele>50.6</ele>
        <time>2021-05-21T09:34:54Z</time>
      </trkpt>
      <trkpt lat="42.3586830" lon="-8.6153820">
        <ele>50.6</ele>
        <time>2021-05-21T09:34:55Z</time>
      </trkpt>
      <trkpt lat="42.3586800" lon="-8.6153790">
        <ele>50.7</ele>
        <time>2021-05-21T09:34:56Z</time>
      </trkpt>
      <trkpt lat="42.3586780" lon="-8.6153750">
        <ele>50.7</ele>
        <time>2021-05-21T09:34:57Z</time>
      </trkpt>
      <trkpt lat="42.3586790" lon="-8.6153740">
        <ele>50.7</ele>
        <time>2021-05-21T09:34:58Z</time>
      </trkpt>
      <trkpt lat="42.3586810" lon="-8.6153730">
        <ele>50.7</ele>
        <time>2021-05-21T09:34:59Z</time>
      </trkpt>
      <trkpt lat="42.3586860" lon="-8.6153690">
        <ele>50.7</ele>
        <time>2021-05-21T09:35:00Z</time>
      </trkpt>
      <trkpt lat="42.3586890" lon="-8.6153680">
        <ele>50.7</ele>
        <time>2021-05-21T09:35:01Z</time>
      </trkpt>
      <trkpt lat="42.3586940" lon="-8.6153640">
        <ele>50.7</ele>
        <time>2021-05-21T09:35:02Z</time>
      </trkpt>
      <trkpt lat="42.3586970" lon="-8.6153600">
        <ele>50.7</ele>
        <time>2021-05-21T09:35:03Z</time>
      </trkpt>
      <trkpt lat="42.3587000" lon="-8.6153590">
        <ele>50.8</ele>
        <time>2021-05-21T09:35:04Z</time>
      </trkpt>
      <trkpt lat="42.3587020" lon="-8.6153550">
        <ele>50.8</ele>
        <time>2021-05-21T09:35:05Z</time>
      </trkpt>
      <trkpt lat="42.3587060" lon="-8.6153510">
        <ele>50.8</ele>
        <time>2021-05-21T09:35:06Z</time>
      </trkpt>
      <trkpt lat="42.3587090" lon="-8.6153490">
        <ele>50.8</ele>
        <time>2021-05-21T09:35:07Z</time>
      </trkpt>
      <trkpt lat="42.3587060" lon="-8.6153490">
        <ele>50.8</ele>
        <time>2021-05-21T09:35:08Z</time>
      </trkpt>
      <trkpt lat="42.3587090" lon="-8.6153450">
        <ele>50.8</ele>
        <time>2021-05-21T09:35:09Z</time>
      </trkpt>
      <trkpt lat="42.3587120" lon="-8.6153420">
        <ele>50.8</ele>
        <time>2021-05-21T09:35:10Z</time>
      </trkpt>
      <trkpt lat="42.3587120" lon="-8.6153360">
        <ele>50.8</ele>
        <time>2021-05-21T09:35:11Z</time>
      </trkpt>
      <trkpt lat="42.3587160" lon="-8.6153290">
        <ele>50.9</ele>
        <time>2021-05-21T09:35:12Z</time>
      </trkpt>
      <trkpt lat="42.3587210" lon="-8.6153250">
        <ele>50.9</ele>
        <time>2021-05-21T09:35:13Z</time>
      </trkpt>
      <trkpt lat="42.3587160" lon="-8.6153250">
        <ele>50.9</ele>
        <time>2021-05-21T09:35:14Z</time>
      </trkpt>
      <trkpt lat="42.3587140" lon="-8.6153240">
        <ele>50.9</ele>
        <time>2021-05-21T09:35:15Z</time>
      </trkpt>
      <trkpt lat="42.3587130" lon="-8.6153210">
        <ele>50.9</ele>
        <time>2021-05-21T09:35:16Z</time>
      </trkpt>
      <trkpt lat="42.3587130" lon="-8.6153210">
        <ele>50.9</ele>
        <time>2021-05-21T09:35:17Z</time>
      </trkpt>
      <trkpt lat="42.3587090" lon="-8.6153200">
        <ele>50.9</ele>
        <time>2021-05-21T09:35:18Z</time>
      </trkpt>
      <trkpt lat="42.3587080" lon="-8.6153200">
        <ele>50.9</ele>
        <time>2021-05-21T09:35:19Z</time>
      </trkpt>
      <trkpt lat="42.3587080" lon="-8.6153170">
        <ele>50.9</ele>
        <time>2021-05-21T09:35:20Z</time>
      </trkpt>
      <trkpt lat="42.3587180" lon="-8.6153370">
        <ele>51.0</ele>
        <time>2021-05-21T09:35:21Z</time>
      </trkpt>
      <trkpt lat="42.3587240" lon="-8.6153500">
        <ele>51.0</ele>
        <time>2021-05-21T09:35:22Z</time>
      </trkpt>
      <trkpt lat="42.3587290" lon="-8.6153580">
        <ele>51.1</ele>
        <time>2021-05-21T09:35:23Z</time>
      </trkpt>
      <trkpt lat="42.3587380" lon="-8.6153660">
        <ele>51.1</ele>
        <time>2021-05-21T09:35:24Z</time>
      </trkpt>
      <trkpt lat="42.3587370" lon="-8.6153710">
        <ele>51.1</ele>
        <time>2021-05-21T09:35:25Z</time>
      </trkpt>
      <trkpt lat="42.3587500" lon="-8.6153740">
        <ele>51.2</ele>
        <time>2021-05-21T09:35:26Z</time>
      </trkpt>
      <trkpt lat="42.3587500" lon="-8.6153730">
        <ele>51.2</ele>
        <time>2021-05-21T09:35:27Z</time>
      </trkpt>
      <trkpt lat="42.3587580" lon="-8.6153690">
        <ele>51.2</ele>
        <time>2021-05-21T09:35:28Z</time>
      </trkpt>
      <trkpt lat="42.3587580" lon="-8.6153780">
        <ele>51.2</ele>
        <time>2021-05-21T09:35:29Z</time>
      </trkpt>
      <trkpt lat="42.3587660" lon="-8.6153780">
        <ele>51.2</ele>
        <time>2021-05-21T09:35:30Z</time>
      </trkpt>
      <trkpt lat="42.3587690" lon="-8.6153820">
        <ele>51.3</ele>
        <time>2021-05-21T09:35:31Z</time>
      </trkpt>
      <trkpt lat="42.3587760" lon="-8.6153800">
        <ele>51.3</ele>
        <time>2021-05-21T09:35:32Z</time>
      </trkpt>
      <trkpt lat="42.3587850" lon="-8.6153770">
        <ele>51.3</ele>
        <time>2021-05-21T09:35:33Z</time>
      </trkpt>
      <trkpt lat="42.3587970" lon="-8.6153750">
        <ele>51.3</ele>
        <time>2021-05-21T09:35:34Z</time>
      </trkpt>
      <trkpt lat="42.3588010" lon="-8.6153780">
        <ele>51.4</ele>
        <time>2021-05-21T09:35:35Z</time>
      </trkpt>
      <trkpt lat="42.3588020" lon="-8.6153740">
        <ele>51.4</ele>
        <time>2021-05-21T09:35:36Z</time>
      </trkpt>
      <trkpt lat="42.3588050" lon="-8.6153790">
        <ele>51.4</ele>
        <time>2021-05-21T09:35:37Z</time>
      </trkpt>
      <trkpt lat="42.3588070" lon="-8.6153840">
        <ele>51.4</ele>
        <time>2021-05-21T09:35:38Z</time>
      </trkpt>
      <trkpt lat="42.3588140" lon="-8.6153810">
        <ele>51.4</ele>
        <time>2021-05-21T09:35:39Z</time>
      </trkpt>
      <trkpt lat="42.3588290" lon="-8.6153880">
        <ele>51.5</ele>
        <time>2021-05-21T09:35:40Z</time>
      </trkpt>
      <trkpt lat="42.3588360" lon="-8.6153870">
        <ele>51.5</ele>
        <time>2021-05-21T09:35:41Z</time>
      </trkpt>
      <trkpt lat="42.3588510" lon="-8.6153880">
        <ele>51.6</ele>
        <time>2021-05-21T09:35:42Z</time>
      </trkpt>
      <trkpt lat="42.3588620" lon="-8.6153890">
        <ele>51.6</ele>
        <time>2021-05-21T09:35:43Z</time>
      </trkpt>
      <trkpt lat="42.3588770" lon="-8.6153860">
        <ele>51.6</ele>
        <time>2021-05-21T09:35:44Z</time>
      </trkpt>
      <trkpt lat="42.3588890" lon="-8.6153840">
        <ele>51.7</ele>
        <time>2021-05-21T09:35:45Z</time>
      </trkpt>
      <trkpt lat="42.3588930" lon="-8.6153880">
        <ele>51.7</ele>
        <time>2021-05-21T09:35:46Z</time>
      </trkpt>
      <trkpt lat="42.3589110" lon="-8.6153860">
        <ele>51.8</ele>
        <time>2021-05-21T09:35:47Z</time>
      </trkpt>
      <trkpt lat="42.3589160" lon="-8.6153930">
        <ele>51.8</ele>
        <time>2021-05-21T09:35:48Z</time>
      </trkpt>
      <trkpt lat="42.3589250" lon="-8.6154030">
        <ele>51.8</ele>
        <time>2021-05-21T09:35:49Z</time>
      </trkpt>
      <trkpt lat="42.3589420" lon="-8.6154070">
        <ele>51.9</ele>
        <time>2021-05-21T09:35:50Z</time>
      </trkpt>
      <trkpt lat="42.3589530" lon="-8.6154200">
        <ele>51.9</ele>
        <time>2021-05-21T09:35:51Z</time>
      </trkpt>
      <trkpt lat="42.3589590" lon="-8.6154250">
        <ele>51.9</ele>
        <time>2021-05-21T09:35:52Z</time>
      </trkpt>
      <trkpt lat="42.3589660" lon="-8.6154310">
        <ele>51.8</ele>
        <time>2021-05-21T09:35:53Z</time>
      </trkpt>
      <trkpt lat="42.3589720" lon="-8.6154360">
        <ele>51.9</ele>
        <time>2021-05-21T09:35:54Z</time>
      </trkpt>
      <trkpt lat="42.3589800" lon="-8.6154400">
        <ele>51.9</ele>
        <time>2021-05-21T09:35:55Z</time>
      </trkpt>
      <trkpt lat="42.3589900" lon="-8.6154460">
        <ele>51.9</ele>
        <time>2021-05-21T09:35:56Z</time>
      </trkpt>
      <trkpt lat="42.3589990" lon="-8.6154510">
        <ele>51.9</ele>
        <time>2021-05-21T09:35:57Z</time>
      </trkpt>
      <trkpt lat="42.3590050" lon="-8.6154550">
        <ele>51.9</ele>
        <time>2021-05-21T09:35:58Z</time>
      </trkpt>
      <trkpt lat="42.3590160" lon="-8.6154630">
        <ele>52.0</ele>
        <time>2021-05-21T09:35:59Z</time>
      </trkpt>
      <trkpt lat="42.3590170" lon="-8.6154580">
        <ele>52.0</ele>
        <time>2021-05-21T09:36:00Z</time>
      </trkpt>
      <trkpt lat="42.3590270" lon="-8.6154610">
        <ele>52.0</ele>
        <time>2021-05-21T09:36:01Z</time>
      </trkpt>
      <trkpt lat="42.3590450" lon="-8.6154720">
        <ele>52.1</ele>
        <time>2021-05-21T09:36:02Z</time>
      </trkpt>
      <trkpt lat="42.3590550" lon="-8.6154750">
        <ele>52.1</ele>
        <time>2021-05-21T09:36:03Z</time>
      </trkpt>
      <trkpt lat="42.3590670" lon="-8.6154830">
        <ele>52.1</ele>
        <time>2021-05-21T09:36:04Z</time>
      </trkpt>
      <trkpt lat="42.3590750" lon="-8.6154870">
        <ele>52.1</ele>
        <time>2021-05-21T09:36:05Z</time>
      </trkpt>
      <trkpt lat="42.3590820" lon="-8.6154920">
        <ele>52.1</ele>
        <time>2021-05-21T09:36:06Z</time>
      </trkpt>
      <trkpt lat="42.3590890" lon="-8.6154960">
        <ele>52.2</ele>
        <time>2021-05-21T09:36:07Z</time>
      </trkpt>
      <trkpt lat="42.3590980" lon="-8.6155120">
        <ele>52.2</ele>
        <time>2021-05-21T09:36:08Z</time>
      </trkpt>
      <trkpt lat="42.3591100" lon="-8.6155220">
        <ele>52.2</ele>
        <time>2021-05-21T09:36:09Z</time>
      </trkpt>
      <trkpt lat="42.3591130" lon="-8.6155300">
        <ele>52.2</ele>
        <time>2021-05-21T09:36:10Z</time>
      </trkpt>
      <trkpt lat="42.3591270" lon="-8.6155400">
        <ele>52.3</ele>
        <time>2021-05-21T09:36:11Z</time>
      </trkpt>
      <trkpt lat="42.3591370" lon="-8.6155390">
        <ele>52.3</ele>
        <time>2021-05-21T09:36:12Z</time>
      </trkpt>
      <trkpt lat="42.3591550" lon="-8.6155520">
        <ele>52.3</ele>
        <time>2021-05-21T09:36:13Z</time>
      </trkpt>
      <trkpt lat="42.3591650" lon="-8.6155610">
        <ele>52.3</ele>
        <time>2021-05-21T09:36:14Z</time>
      </trkpt>
      <trkpt lat="42.3591750" lon="-8.6155690">
        <ele>52.3</ele>
        <time>2021-05-21T09:36:15Z</time>
      </trkpt>
      <trkpt lat="42.3591920" lon="-8.6155900">
        <ele>52.4</ele>
        <time>2021-05-21T09:36:16Z</time>
      </trkpt>
      <trkpt lat="42.3591970" lon="-8.6155950">
        <ele>52.4</ele>
        <time>2021-05-21T09:36:17Z</time>
      </trkpt>
      <trkpt lat="42.3592030" lon="-8.6156000">
        <ele>52.4</ele>
        <time>2021-05-21T09:36:18Z</time>
      </trkpt>
      <trkpt lat="42.3592110" lon="-8.6156030">
        <ele>52.4</ele>
        <time>2021-05-21T09:36:19Z</time>
      </trkpt>
      <trkpt lat="42.3592210" lon="-8.6156090">
        <ele>52.4</ele>
        <time>2021-05-21T09:36:20Z</time>
      </trkpt>
      <trkpt lat="42.3592320" lon="-8.6156210">
        <ele>52.4</ele>
        <time>2021-05-21T09:36:21Z</time>
      </trkpt>
      <trkpt lat="42.3592400" lon="-8.6156300">
        <ele>52.5</ele>
        <time>2021-05-21T09:36:22Z</time>
      </trkpt>
      <trkpt lat="42.3592460" lon="-8.6156340">
        <ele>52.5</ele>
        <time>2021-05-21T09:36:23Z</time>
      </trkpt>
      <trkpt lat="42.3592580" lon="-8.6156450">
        <ele>52.5</ele>
        <time>2021-05-21T09:36:24Z</time>
      </trkpt>
      <trkpt lat="42.3592720" lon="-8.6156580">
        <ele>52.5</ele>
        <time>2021-05-21T09:36:25Z</time>
      </trkpt>
      <trkpt lat="42.3592820" lon="-8.6156640">
        <ele>52.5</ele>
        <time>2021-05-21T09:36:26Z</time>
      </trkpt>
      <trkpt lat="42.3592910" lon="-8.6156700">
        <ele>52.6</ele>
        <time>2021-05-21T09:36:27Z</time>
      </trkpt>
      <trkpt lat="42.3593000" lon="-8.6156760">
        <ele>52.6</ele>
        <time>2021-05-21T09:36:28Z</time>
      </trkpt>
      <trkpt lat="42.3593150" lon="-8.6156770">
        <ele>52.6</ele>
        <time>2021-05-21T09:36:29Z</time>
      </trkpt>
      <trkpt lat="42.3593240" lon="-8.6156780">
        <ele>52.6</ele>
        <time>2021-05-21T09:36:30Z</time>
      </trkpt>
      <trkpt lat="42.3593330" lon="-8.6156800">
        <ele>52.6</ele>
        <time>2021-05-21T09:36:31Z</time>
      </trkpt>
      <trkpt lat="42.3593420" lon="-8.6156820">
        <ele>52.6</ele>
        <time>2021-05-21T09:36:32Z</time>
      </trkpt>
      <trkpt lat="42.3593730" lon="-8.6156920">
        <ele>52.6</ele>
        <time>2021-05-21T09:36:33Z</time>
      </trkpt>
      <trkpt lat="42.3593790" lon="-8.6156900">
        <ele>52.6</ele>
        <time>2021-05-21T09:36:34Z</time>
      </trkpt>
      <trkpt lat="42.3593930" lon="-8.6156910">
        <ele>52.6</ele>
        <time>2021-05-21T09:36:35Z</time>
      </trkpt>
      <trkpt lat="42.3594040" lon="-8.6157060">
        <ele>52.6</ele>
        <time>2021-05-21T09:36:36Z</time>
      </trkpt>
      <trkpt lat="42.3594210" lon="-8.6157120">
        <ele>52.6</ele>
        <time>2021-05-21T09:36:37Z</time>
      </trkpt>
      <trkpt lat="42.3594320" lon="-8.6157210">
        <ele>52.6</ele>
        <time>2021-05-21T09:36:38Z</time>
      </trkpt>
      <trkpt lat="42.3594480" lon="-8.6157310">
        <ele>52.6</ele>
        <time>2021-05-21T09:36:39Z</time>
      </trkpt>
      <trkpt lat="42.3594560" lon="-8.6157360">
        <ele>52.6</ele>
        <time>2021-05-21T09:36:40Z</time>
      </trkpt>
      <trkpt lat="42.3594630" lon="-8.6157410">
        <ele>52.7</ele>
        <time>2021-05-21T09:36:41Z</time>
      </trkpt>
      <trkpt lat="42.3594710" lon="-8.6157460">
        <ele>52.7</ele>
        <time>2021-05-21T09:36:42Z</time>
      </trkpt>
      <trkpt lat="42.3594900" lon="-8.6157520">
        <ele>52.7</ele>
        <time>2021-05-21T09:36:43Z</time>
      </trkpt>
      <trkpt lat="42.3594890" lon="-8.6157650">
        <ele>52.7</ele>
        <time>2021-05-21T09:36:44Z</time>
      </trkpt>
      <trkpt lat="42.3594970" lon="-8.6157630">
        <ele>52.7</ele>
        <time>2021-05-21T09:36:45Z</time>
      </trkpt>
      <trkpt lat="42.3595130" lon="-8.6157700">
        <ele>52.6</ele>
        <time>2021-05-21T09:36:46Z</time>
      </trkpt>
      <trkpt lat="42.3595290" lon="-8.6157620">
        <ele>52.6</ele>
        <time>2021-05-21T09:36:47Z</time>
      </trkpt>
      <trkpt lat="42.3595620" lon="-8.6157600">
        <ele>52.6</ele>
        <time>2021-05-21T09:36:48Z</time>
      </trkpt>
      <trkpt lat="42.3595700" lon="-8.6157610">
        <ele>52.6</ele>
        <time>2021-05-21T09:36:49Z</time>
      </trkpt>
      <trkpt lat="42.3595870" lon="-8.6157620">
        <ele>52.6</ele>
        <time>2021-05-21T09:36:50Z</time>
      </trkpt>
      <trkpt lat="42.3596050" lon="-8.6157620">
        <ele>52.6</ele>
        <time>2021-05-21T09:36:51Z</time>
      </trkpt>
      <trkpt lat="42.3596340" lon="-8.6157580">
        <ele>52.6</ele>
        <time>2021-05-21T09:36:52Z</time>
      </trkpt>
      <trkpt lat="42.3596430" lon="-8.6157570">
        <ele>52.6</ele>
        <time>2021-05-21T09:36:53Z</time>
      </trkpt>
      <trkpt lat="42.3596750" lon="-8.6157560">
        <ele>52.6</ele>
        <time>2021-05-21T09:36:54Z</time>
      </trkpt>
      <trkpt lat="42.3596810" lon="-8.6157540">
        <ele>52.6</ele>
        <time>2021-05-21T09:36:55Z</time>
      </trkpt>
      <trkpt lat="42.3597120" lon="-8.6157510">
        <ele>52.6</ele>
        <time>2021-05-21T09:36:56Z</time>
      </trkpt>
      <trkpt lat="42.3597190" lon="-8.6157550">
        <ele>52.6</ele>
        <time>2021-05-21T09:36:57Z</time>
      </trkpt>
      <trkpt lat="42.3597340" lon="-8.6157560">
        <ele>52.6</ele>
        <time>2021-05-21T09:36:58Z</time>
      </trkpt>
      <trkpt lat="42.3597460" lon="-8.6157550">
        <ele>52.6</ele>
        <time>2021-05-21T09:36:59Z</time>
      </trkpt>
      <trkpt lat="42.3597570" lon="-8.6157540">
        <ele>52.6</ele>
        <time>2021-05-21T09:37:00Z</time>
      </trkpt>
      <trkpt lat="42.3597660" lon="-8.6157510">
        <ele>52.6</ele>
        <time>2021-05-21T09:37:01Z</time>
      </trkpt>
      <trkpt lat="42.3597780" lon="-8.6157460">
        <ele>52.6</ele>
        <time>2021-05-21T09:37:02Z</time>
      </trkpt>
      <trkpt lat="42.3597890" lon="-8.6157430">
        <ele>52.6</ele>
        <time>2021-05-21T09:37:03Z</time>
      </trkpt>
      <trkpt lat="42.3598070" lon="-8.6157350">
        <ele>52.6</ele>
        <time>2021-05-21T09:37:04Z</time>
      </trkpt>
      <trkpt lat="42.3598140" lon="-8.6157310">
        <ele>52.6</ele>
        <time>2021-05-21T09:37:05Z</time>
      </trkpt>
      <trkpt lat="42.3598240" lon="-8.6157300">
        <ele>52.6</ele>
        <time>2021-05-21T09:37:06Z</time>
      </trkpt>
      <trkpt lat="42.3598320" lon="-8.6157300">
        <ele>52.7</ele>
        <time>2021-05-21T09:37:07Z</time>
      </trkpt>
      <trkpt lat="42.3598480" lon="-8.6157210">
        <ele>52.7</ele>
        <time>2021-05-21T09:37:08Z</time>
      </trkpt>
      <trkpt lat="42.3598590" lon="-8.6157270">
        <ele>52.7</ele>
        <time>2021-05-21T09:37:09Z</time>
      </trkpt>
      <trkpt lat="42.3598650" lon="-8.6157160">
        <ele>52.7</ele>
        <time>2021-05-21T09:37:10Z</time>
      </trkpt>
      <trkpt lat="42.3598780" lon="-8.6157140">
        <ele>52.7</ele>
        <time>2021-05-21T09:37:11Z</time>
      </trkpt>
      <trkpt lat="42.3598950" lon="-8.6157140">
        <ele>52.7</ele>
        <time>2021-05-21T09:37:12Z</time>
      </trkpt>
      <trkpt lat="42.3599070" lon="-8.6157170">
        <ele>52.7</ele>
        <time>2021-05-21T09:37:13Z</time>
      </trkpt>
      <trkpt lat="42.3599240" lon="-8.6157180">
        <ele>52.8</ele>
        <time>2021-05-21T09:37:14Z</time>
      </trkpt>
      <trkpt lat="42.3599380" lon="-8.6157170">
        <ele>52.8</ele>
        <time>2021-05-21T09:37:15Z</time>
      </trkpt>
      <trkpt lat="42.3599540" lon="-8.6157210">
        <ele>52.8</ele>
        <time>2021-05-21T09:37:16Z</time>
      </trkpt>
      <trkpt lat="42.3599710" lon="-8.6157180">
        <ele>52.9</ele>
        <time>2021-05-21T09:37:17Z</time>
      </trkpt>
      <trkpt lat="42.3599860" lon="-8.6157090">
        <ele>52.9</ele>
        <time>2021-05-21T09:37:18Z</time>
      </trkpt>
      <trkpt lat="42.3600020" lon="-8.6157100">
        <ele>52.9</ele>
        <time>2021-05-21T09:37:19Z</time>
      </trkpt>
      <trkpt lat="42.3600170" lon="-8.6157090">
        <ele>53.0</ele>
        <time>2021-05-21T09:37:20Z</time>
      </trkpt>
      <trkpt lat="42.3600310" lon="-8.6157040">
        <ele>53.0</ele>
        <time>2021-05-21T09:37:21Z</time>
      </trkpt>
      <trkpt lat="42.3600450" lon="-8.6157070">
        <ele>53.1</ele>
        <time>2021-05-21T09:37:22Z</time>
      </trkpt>
      <trkpt lat="42.3600620" lon="-8.6157070">
        <ele>53.1</ele>
        <time>2021-05-21T09:37:23Z</time>
      </trkpt>
      <trkpt lat="42.3600760" lon="-8.6157000">
        <ele>53.2</ele>
        <time>2021-05-21T09:37:24Z</time>
      </trkpt>
      <trkpt lat="42.3600880" lon="-8.6156950">
        <ele>53.2</ele>
        <time>2021-05-21T09:37:25Z</time>
      </trkpt>
      <trkpt lat="42.3601060" lon="-8.6156950">
        <ele>53.3</ele>
        <time>2021-05-21T09:37:26Z</time>
      </trkpt>
      <trkpt lat="42.3601190" lon="-8.6156970">
        <ele>53.4</ele>
        <time>2021-05-21T09:37:27Z</time>
      </trkpt>
      <trkpt lat="42.3601330" lon="-8.6156930">
        <ele>53.5</ele>
        <time>2021-05-21T09:37:28Z</time>
      </trkpt>
      <trkpt lat="42.3601470" lon="-8.6156910">
        <ele>53.5</ele>
        <time>2021-05-21T09:37:29Z</time>
      </trkpt>
      <trkpt lat="42.3601690" lon="-8.6156910">
        <ele>53.7</ele>
        <time>2021-05-21T09:37:30Z</time>
      </trkpt>
      <trkpt lat="42.3601770" lon="-8.6156930">
        <ele>53.7</ele>
        <time>2021-05-21T09:37:31Z</time>
      </trkpt>
      <trkpt lat="42.3601850" lon="-8.6156940">
        <ele>53.8</ele>
        <time>2021-05-21T09:37:32Z</time>
      </trkpt>
      <trkpt lat="42.3602020" lon="-8.6156960">
        <ele>53.9</ele>
        <time>2021-05-21T09:37:33Z</time>
      </trkpt>
      <trkpt lat="42.3602160" lon="-8.6156920">
        <ele>54.0</ele>
        <time>2021-05-21T09:37:34Z</time>
      </trkpt>
      <trkpt lat="42.3602370" lon="-8.6156900">
        <ele>54.2</ele>
        <time>2021-05-21T09:37:35Z</time>
      </trkpt>
      <trkpt lat="42.3602450" lon="-8.6156900">
        <ele>54.3</ele>
        <time>2021-05-21T09:37:36Z</time>
      </trkpt>
      <trkpt lat="42.3602530" lon="-8.6156910">
        <ele>54.4</ele>
        <time>2021-05-21T09:37:37Z</time>
      </trkpt>
      <trkpt lat="42.3602750" lon="-8.6156980">
        <ele>54.6</ele>
        <time>2021-05-21T09:37:38Z</time>
      </trkpt>
      <trkpt lat="42.3602830" lon="-8.6156980">
        <ele>54.6</ele>
        <time>2021-05-21T09:37:39Z</time>
      </trkpt>
      <trkpt lat="42.3602920" lon="-8.6156990">
        <ele>54.7</ele>
        <time>2021-05-21T09:37:40Z</time>
      </trkpt>
      <trkpt lat="42.3603040" lon="-8.6157070">
        <ele>54.9</ele>
        <time>2021-05-21T09:37:41Z</time>
      </trkpt>
      <trkpt lat="42.3603160" lon="-8.6157170">
        <ele>55.0</ele>
        <time>2021-05-21T09:37:42Z</time>
      </trkpt>
      <trkpt lat="42.3603380" lon="-8.6157220">
        <ele>55.3</ele>
        <time>2021-05-21T09:37:43Z</time>
      </trkpt>
      <trkpt lat="42.3603470" lon="-8.6157270">
        <ele>55.4</ele>
        <time>2021-05-21T09:37:44Z</time>
      </trkpt>
      <trkpt lat="42.3603550" lon="-8.6157330">
        <ele>55.5</ele>
        <time>2021-05-21T09:37:45Z</time>
      </trkpt>
      <trkpt lat="42.3603630" lon="-8.6157480">
        <ele>55.6</ele>
        <time>2021-05-21T09:37:46Z</time>
      </trkpt>
      <trkpt lat="42.3603730" lon="-8.6157560">
        <ele>55.8</ele>
        <time>2021-05-21T09:37:47Z</time>
      </trkpt>
      <trkpt lat="42.3603860" lon="-8.6157550">
        <ele>55.9</ele>
        <time>2021-05-21T09:37:48Z</time>
      </trkpt>
      <trkpt lat="42.3603930" lon="-8.6157720">
        <ele>56.1</ele>
        <time>2021-05-21T09:37:49Z</time>
      </trkpt>
      <trkpt lat="42.3603970" lon="-8.6157810">
        <ele>56.2</ele>
        <time>2021-05-21T09:37:50Z</time>
      </trkpt>
      <trkpt lat="42.3604000" lon="-8.6157950">
        <ele>56.4</ele>
        <time>2021-05-21T09:37:51Z</time>
      </trkpt>
      <trkpt lat="42.3604060" lon="-8.6158130">
        <ele>56.5</ele>
        <time>2021-05-21T09:37:52Z</time>
      </trkpt>
      <trkpt lat="42.3604170" lon="-8.6158230">
        <ele>56.7</ele>
        <time>2021-05-21T09:37:53Z</time>
      </trkpt>
      <trkpt lat="42.3604220" lon="-8.6158320">
        <ele>56.8</ele>
        <time>2021-05-21T09:37:54Z</time>
      </trkpt>
      <trkpt lat="42.3604270" lon="-8.6158450">
        <ele>56.9</ele>
        <time>2021-05-21T09:37:55Z</time>
      </trkpt>
      <trkpt lat="42.3604360" lon="-8.6158650">
        <ele>57.2</ele>
        <time>2021-05-21T09:37:56Z</time>
      </trkpt>
      <trkpt lat="42.3604460" lon="-8.6158810">
        <ele>57.4</ele>
        <time>2021-05-21T09:37:57Z</time>
      </trkpt>
      <trkpt lat="42.3604530" lon="-8.6158980">
        <ele>57.5</ele>
        <time>2021-05-21T09:37:58Z</time>
      </trkpt>
      <trkpt lat="42.3604630" lon="-8.6159160">
        <ele>57.7</ele>
        <time>2021-05-21T09:37:59Z</time>
      </trkpt>
      <trkpt lat="42.3604750" lon="-8.6159270">
        <ele>57.9</ele>
        <time>2021-05-21T09:38:00Z</time>
      </trkpt>
      <trkpt lat="42.3604850" lon="-8.6159360">
        <ele>58.1</ele>
        <time>2021-05-21T09:38:01Z</time>
      </trkpt>
      <trkpt lat="42.3604880" lon="-8.6159470">
        <ele>58.2</ele>
        <time>2021-05-21T09:38:02Z</time>
      </trkpt>
      <trkpt lat="42.3604900" lon="-8.6159570">
        <ele>58.3</ele>
        <time>2021-05-21T09:38:03Z</time>
      </trkpt>
      <trkpt lat="42.3604910" lon="-8.6159630">
        <ele>58.3</ele>
        <time>2021-05-21T09:38:04Z</time>
      </trkpt>
      <trkpt lat="42.3605040" lon="-8.6159860">
        <ele>58.6</ele>
        <time>2021-05-21T09:38:05Z</time>
      </trkpt>
      <trkpt lat="42.3605060" lon="-8.6159960">
        <ele>58.7</ele>
        <time>2021-05-21T09:38:06Z</time>
      </trkpt>
      <trkpt lat="42.3605090" lon="-8.6160060">
        <ele>58.8</ele>
        <time>2021-05-21T09:38:07Z</time>
      </trkpt>
      <trkpt lat="42.3605110" lon="-8.6160130">
        <ele>58.8</ele>
        <time>2021-05-21T09:38:08Z</time>
      </trkpt>
      <trkpt lat="42.3605090" lon="-8.6160240">
        <ele>58.9</ele>
        <time>2021-05-21T09:38:09Z</time>
      </trkpt>
      <trkpt lat="42.3605040" lon="-8.6160400">
        <ele>59.1</ele>
        <time>2021-05-21T09:38:10Z</time>
      </trkpt>
      <trkpt lat="42.3605090" lon="-8.6160510">
        <ele>59.2</ele>
        <time>2021-05-21T09:38:11Z</time>
      </trkpt>
      <trkpt lat="42.3605140" lon="-8.6160550">
        <ele>59.4</ele>
        <time>2021-05-21T09:38:12Z</time>
      </trkpt>
      <trkpt lat="42.3605210" lon="-8.6160600">
        <ele>59.5</ele>
        <time>2021-05-21T09:38:13Z</time>
      </trkpt>
      <trkpt lat="42.3605290" lon="-8.6160660">
        <ele>59.6</ele>
        <time>2021-05-21T09:38:14Z</time>
      </trkpt>
      <trkpt lat="42.3605360" lon="-8.6160710">
        <ele>59.6</ele>
        <time>2021-05-21T09:38:15Z</time>
      </trkpt>
      <trkpt lat="42.3605430" lon="-8.6160770">
        <ele>59.7</ele>
        <time>2021-05-21T09:38:16Z</time>
      </trkpt>
      <trkpt lat="42.3605440" lon="-8.6160810">
        <ele>59.7</ele>
        <time>2021-05-21T09:38:17Z</time>
      </trkpt>
      <trkpt lat="42.3605470" lon="-8.6160860">
        <ele>59.7</ele>
        <time>2021-05-21T09:38:18Z</time>
      </trkpt>
      <trkpt lat="42.3605520" lon="-8.6160920">
        <ele>59.7</ele>
        <time>2021-05-21T09:38:19Z</time>
      </trkpt>
      <trkpt lat="42.3605580" lon="-8.6160930">
        <ele>59.8</ele>
        <time>2021-05-21T09:38:20Z</time>
      </trkpt>
      <trkpt lat="42.3605720" lon="-8.6160980">
        <ele>59.9</ele>
        <time>2021-05-21T09:38:21Z</time>
      </trkpt>
      <trkpt lat="42.3605800" lon="-8.6161060">
        <ele>59.9</ele>
        <time>2021-05-21T09:38:22Z</time>
      </trkpt>
      <trkpt lat="42.3605910" lon="-8.6161120">
        <ele>60.0</ele>
        <time>2021-05-21T09:38:23Z</time>
      </trkpt>
      <trkpt lat="42.3606000" lon="-8.6161140">
        <ele>60.0</ele>
        <time>2021-05-21T09:38:24Z</time>
      </trkpt>
      <trkpt lat="42.3606210" lon="-8.6161230">
        <ele>60.1</ele>
        <time>2021-05-21T09:38:25Z</time>
      </trkpt>
      <trkpt lat="42.3606280" lon="-8.6161280">
        <ele>60.2</ele>
        <time>2021-05-21T09:38:26Z</time>
      </trkpt>
      <trkpt lat="42.3606350" lon="-8.6161320">
        <ele>60.2</ele>
        <time>2021-05-21T09:38:27Z</time>
      </trkpt>
      <trkpt lat="42.3606490" lon="-8.6161440">
        <ele>60.2</ele>
        <time>2021-05-21T09:38:28Z</time>
      </trkpt>
      <trkpt lat="42.3606590" lon="-8.6161500">
        <ele>60.3</ele>
        <time>2021-05-21T09:38:29Z</time>
      </trkpt>
      <trkpt lat="42.3606690" lon="-8.6161550">
        <ele>60.3</ele>
        <time>2021-05-21T09:38:30Z</time>
      </trkpt>
      <trkpt lat="42.3606760" lon="-8.6161600">
        <ele>60.4</ele>
        <time>2021-05-21T09:38:31Z</time>
      </trkpt>
      <trkpt lat="42.3606860" lon="-8.6161650">
        <ele>60.4</ele>
        <time>2021-05-21T09:38:32Z</time>
      </trkpt>
      <trkpt lat="42.3607020" lon="-8.6161780">
        <ele>60.4</ele>
        <time>2021-05-21T09:38:33Z</time>
      </trkpt>
      <trkpt lat="42.3607120" lon="-8.6161820">
        <ele>60.5</ele>
        <time>2021-05-21T09:38:34Z</time>
      </trkpt>
      <trkpt lat="42.3607190" lon="-8.6161900">
        <ele>60.5</ele>
        <time>2021-05-21T09:38:35Z</time>
      </trkpt>
      <trkpt lat="42.3607270" lon="-8.6161960">
        <ele>60.5</ele>
        <time>2021-05-21T09:38:36Z</time>
      </trkpt>
      <trkpt lat="42.3607390" lon="-8.6161980">
        <ele>60.5</ele>
        <time>2021-05-21T09:38:37Z</time>
      </trkpt>
      <trkpt lat="42.3607520" lon="-8.6162050">
        <ele>60.6</ele>
        <time>2021-05-21T09:38:38Z</time>
      </trkpt>
      <trkpt lat="42.3607600" lon="-8.6162130">
        <ele>60.6</ele>
        <time>2021-05-21T09:38:39Z</time>
      </trkpt>
      <trkpt lat="42.3607820" lon="-8.6162150">
        <ele>60.7</ele>
        <time>2021-05-21T09:38:40Z</time>
      </trkpt>
      <trkpt lat="42.3607920" lon="-8.6162170">
        <ele>60.7</ele>
        <time>2021-05-21T09:38:41Z</time>
      </trkpt>
      <trkpt lat="42.3608010" lon="-8.6162180">
        <ele>60.7</ele>
        <time>2021-05-21T09:38:42Z</time>
      </trkpt>
      <trkpt lat="42.3608220" lon="-8.6162210">
        <ele>60.7</ele>
        <time>2021-05-21T09:38:43Z</time>
      </trkpt>
      <trkpt lat="42.3608340" lon="-8.6162240">
        <ele>60.8</ele>
        <time>2021-05-21T09:38:44Z</time>
      </trkpt>
      <trkpt lat="42.3608450" lon="-8.6162260">
        <ele>60.8</ele>
        <time>2021-05-21T09:38:45Z</time>
      </trkpt>
      <trkpt lat="42.3608670" lon="-8.6162270">
        <ele>60.9</ele>
        <time>2021-05-21T09:38:46Z</time>
      </trkpt>
      <trkpt lat="42.3608770" lon="-8.6162270">
        <ele>60.9</ele>
        <time>2021-05-21T09:38:47Z</time>
      </trkpt>
      <trkpt lat="42.3608870" lon="-8.6162270">
        <ele>60.9</ele>
        <time>2021-05-21T09:38:48Z</time>
      </trkpt>
      <trkpt lat="42.3609040" lon="-8.6162240">
        <ele>61.0</ele>
        <time>2021-05-21T09:38:49Z</time>
      </trkpt>
      <trkpt lat="42.3609200" lon="-8.6162240">
        <ele>61.0</ele>
        <time>2021-05-21T09:38:50Z</time>
      </trkpt>
      <trkpt lat="42.3609330" lon="-8.6162290">
        <ele>61.0</ele>
        <time>2021-05-21T09:38:51Z</time>
      </trkpt>
      <trkpt lat="42.3609480" lon="-8.6162310">
        <ele>61.1</ele>
        <time>2021-05-21T09:38:52Z</time>
      </trkpt>
      <trkpt lat="42.3609610" lon="-8.6162280">
        <ele>61.1</ele>
        <time>2021-05-21T09:38:53Z</time>
      </trkpt>
      <trkpt lat="42.3609770" lon="-8.6162260">
        <ele>61.2</ele>
        <time>2021-05-21T09:38:54Z</time>
      </trkpt>
      <trkpt lat="42.3609920" lon="-8.6162260">
        <ele>61.2</ele>
        <time>2021-05-21T09:38:55Z</time>
      </trkpt>
      <trkpt lat="42.3610070" lon="-8.6162250">
        <ele>61.3</ele>
        <time>2021-05-21T09:38:56Z</time>
      </trkpt>
      <trkpt lat="42.3610220" lon="-8.6162240">
        <ele>61.3</ele>
        <time>2021-05-21T09:38:57Z</time>
      </trkpt>
      <trkpt lat="42.3610370" lon="-8.6162140">
        <ele>61.4</ele>
        <time>2021-05-21T09:38:58Z</time>
      </trkpt>
      <trkpt lat="42.3610510" lon="-8.6162080">
        <ele>61.4</ele>
        <time>2021-05-21T09:38:59Z</time>
      </trkpt>
      <trkpt lat="42.3610640" lon="-8.6162030">
        <ele>61.4</ele>
        <time>2021-05-21T09:39:00Z</time>
      </trkpt>
      <trkpt lat="42.3610770" lon="-8.6162020">
        <ele>61.5</ele>
        <time>2021-05-21T09:39:01Z</time>
      </trkpt>
      <trkpt lat="42.3610930" lon="-8.6162010">
        <ele>61.5</ele>
        <time>2021-05-21T09:39:02Z</time>
      </trkpt>
      <trkpt lat="42.3611070" lon="-8.6162040">
        <ele>61.6</ele>
        <time>2021-05-21T09:39:03Z</time>
      </trkpt>
      <trkpt lat="42.3611200" lon="-8.6161990">
        <ele>61.6</ele>
        <time>2021-05-21T09:39:04Z</time>
      </trkpt>
      <trkpt lat="42.3611420" lon="-8.6161940">
        <ele>61.7</ele>
        <time>2021-05-21T09:39:05Z</time>
      </trkpt>
      <trkpt lat="42.3611500" lon="-8.6161930">
        <ele>61.8</ele>
        <time>2021-05-21T09:39:06Z</time>
      </trkpt>
      <trkpt lat="42.3611590" lon="-8.6161920">
        <ele>61.8</ele>
        <time>2021-05-21T09:39:07Z</time>
      </trkpt>
      <trkpt lat="42.3611730" lon="-8.6161880">
        <ele>61.9</ele>
        <time>2021-05-21T09:39:08Z</time>
      </trkpt>
      <trkpt lat="42.3611870" lon="-8.6161860">
        <ele>62.0</ele>
        <time>2021-05-21T09:39:09Z</time>
      </trkpt>
      <trkpt lat="42.3612010" lon="-8.6161820">
        <ele>62.0</ele>
        <time>2021-05-21T09:39:10Z</time>
      </trkpt>
      <trkpt lat="42.3612150" lon="-8.6161850">
        <ele>62.1</ele>
        <time>2021-05-21T09:39:11Z</time>
      </trkpt>
      <trkpt lat="42.3612380" lon="-8.6161850">
        <ele>62.2</ele>
        <time>2021-05-21T09:39:12Z</time>
      </trkpt>
      <trkpt lat="42.3612460" lon="-8.6161800">
        <ele>62.3</ele>
        <time>2021-05-21T09:39:13Z</time>
      </trkpt>
      <trkpt lat="42.3612550" lon="-8.6161760">
        <ele>62.4</ele>
        <time>2021-05-21T09:39:14Z</time>
      </trkpt>
      <trkpt lat="42.3612680" lon="-8.6161750">
        <ele>62.4</ele>
        <time>2021-05-21T09:39:15Z</time>
      </trkpt>
      <trkpt lat="42.3612770" lon="-8.6161780">
        <ele>62.5</ele>
        <time>2021-05-21T09:39:16Z</time>
      </trkpt>
      <trkpt lat="42.3612820" lon="-8.6161810">
        <ele>62.5</ele>
        <time>2021-05-21T09:39:17Z</time>
      </trkpt>
      <trkpt lat="42.3612960" lon="-8.6161840">
        <ele>62.6</ele>
        <time>2021-05-21T09:39:18Z</time>
      </trkpt>
      <trkpt lat="42.3613050" lon="-8.6161850">
        <ele>62.7</ele>
        <time>2021-05-21T09:39:19Z</time>
      </trkpt>
      <trkpt lat="42.3613130" lon="-8.6161860">
        <ele>62.7</ele>
        <time>2021-05-21T09:39:20Z</time>
      </trkpt>
      <trkpt lat="42.3613220" lon="-8.6161870">
        <ele>62.8</ele>
        <time>2021-05-21T09:39:21Z</time>
      </trkpt>
      <trkpt lat="42.3613280" lon="-8.6161830">
        <ele>62.8</ele>
        <time>2021-05-21T09:39:22Z</time>
      </trkpt>
      <trkpt lat="42.3613340" lon="-8.6161780">
        <ele>62.9</ele>
        <time>2021-05-21T09:39:23Z</time>
      </trkpt>
      <trkpt lat="42.3613430" lon="-8.6161770">
        <ele>62.9</ele>
        <time>2021-05-21T09:39:24Z</time>
      </trkpt>
      <trkpt lat="42.3613540" lon="-8.6161800">
        <ele>63.0</ele>
        <time>2021-05-21T09:39:25Z</time>
      </trkpt>
      <trkpt lat="42.3613600" lon="-8.6161810">
        <ele>63.1</ele>
        <time>2021-05-21T09:39:26Z</time>
      </trkpt>
      <trkpt lat="42.3613700" lon="-8.6161850">
        <ele>63.1</ele>
        <time>2021-05-21T09:39:27Z</time>
      </trkpt>
      <trkpt lat="42.3613770" lon="-8.6161900">
        <ele>63.2</ele>
        <time>2021-05-21T09:39:28Z</time>
      </trkpt>
      <trkpt lat="42.3613850" lon="-8.6161960">
        <ele>63.2</ele>
        <time>2021-05-21T09:39:29Z</time>
      </trkpt>
      <trkpt lat="42.3613940" lon="-8.6162010">
        <ele>63.3</ele>
        <time>2021-05-21T09:39:30Z</time>
      </trkpt>
      <trkpt lat="42.3614000" lon="-8.6162070">
        <ele>63.4</ele>
        <time>2021-05-21T09:39:31Z</time>
      </trkpt>
      <trkpt lat="42.3614110" lon="-8.6162120">
        <ele>63.4</ele>
        <time>2021-05-21T09:39:32Z</time>
      </trkpt>
      <trkpt lat="42.3614220" lon="-8.6162240">
        <ele>63.5</ele>
        <time>2021-05-21T09:39:33Z</time>
      </trkpt>
      <trkpt lat="42.3614260" lon="-8.6162310">
        <ele>63.6</ele>
        <time>2021-05-21T09:39:34Z</time>
      </trkpt>
      <trkpt lat="42.3614330" lon="-8.6162380">
        <ele>63.6</ele>
        <time>2021-05-21T09:39:35Z</time>
      </trkpt>
      <trkpt lat="42.3614440" lon="-8.6162440">
        <ele>63.7</ele>
        <time>2021-05-21T09:39:36Z</time>
      </trkpt>
      <trkpt lat="42.3614560" lon="-8.6162510">
        <ele>63.8</ele>
        <time>2021-05-21T09:39:37Z</time>
      </trkpt>
      <trkpt lat="42.3614650" lon="-8.6162540">
        <ele>63.9</ele>
        <time>2021-05-21T09:39:38Z</time>
      </trkpt>
      <trkpt lat="42.3614840" lon="-8.6162630">
        <ele>64.0</ele>
        <time>2021-05-21T09:39:39Z</time>
      </trkpt>
      <trkpt lat="42.3614930" lon="-8.6162680">
        <ele>64.1</ele>
        <time>2021-05-21T09:39:40Z</time>
      </trkpt>
      <trkpt lat="42.3615030" lon="-8.6162720">
        <ele>64.2</ele>
        <time>2021-05-21T09:39:41Z</time>
      </trkpt>
      <trkpt lat="42.3615140" lon="-8.6162750">
        <ele>64.3</ele>
        <time>2021-05-21T09:39:42Z</time>
      </trkpt>
      <trkpt lat="42.3615070" lon="-8.6162740">
        <ele>64.3</ele>
        <time>2021-05-21T09:39:43Z</time>
      </trkpt>
      <trkpt lat="42.3615280" lon="-8.6162840">
        <ele>64.5</ele>
        <time>2021-05-21T09:39:44Z</time>
      </trkpt>
      <trkpt lat="42.3615360" lon="-8.6162900">
        <ele>64.5</ele>
        <time>2021-05-21T09:39:45Z</time>
      </trkpt>
      <trkpt lat="42.3615420" lon="-8.6162900">
        <ele>64.6</ele>
        <time>2021-05-21T09:39:46Z</time>
      </trkpt>
      <trkpt lat="42.3615580" lon="-8.6162900">
        <ele>64.7</ele>
        <time>2021-05-21T09:39:47Z</time>
      </trkpt>
      <trkpt lat="42.3615710" lon="-8.6162960">
        <ele>64.8</ele>
        <time>2021-05-21T09:39:48Z</time>
      </trkpt>
      <trkpt lat="42.3615900" lon="-8.6162930">
        <ele>65.0</ele>
        <time>2021-05-21T09:39:49Z</time>
      </trkpt>
      <trkpt lat="42.3616050" lon="-8.6162920">
        <ele>65.1</ele>
        <time>2021-05-21T09:39:50Z</time>
      </trkpt>
      <trkpt lat="42.3615970" lon="-8.6162920">
        <ele>65.2</ele>
        <time>2021-05-21T09:39:51Z</time>
      </trkpt>
      <trkpt lat="42.3616100" lon="-8.6162920">
        <ele>65.3</ele>
        <time>2021-05-21T09:39:52Z</time>
      </trkpt>
      <trkpt lat="42.3616200" lon="-8.6162960">
        <ele>65.4</ele>
        <time>2021-05-21T09:39:53Z</time>
      </trkpt>
      <trkpt lat="42.3616350" lon="-8.6163000">
        <ele>65.5</ele>
        <time>2021-05-21T09:39:54Z</time>
      </trkpt>
      <trkpt lat="42.3616570" lon="-8.6163020">
        <ele>65.7</ele>
        <time>2021-05-21T09:39:55Z</time>
      </trkpt>
      <trkpt lat="42.3616670" lon="-8.6163090">
        <ele>65.8</ele>
        <time>2021-05-21T09:39:56Z</time>
      </trkpt>
      <trkpt lat="42.3616780" lon="-8.6163210">
        <ele>65.9</ele>
        <time>2021-05-21T09:39:57Z</time>
      </trkpt>
      <trkpt lat="42.3616840" lon="-8.6163270">
        <ele>66.0</ele>
        <time>2021-05-21T09:39:58Z</time>
      </trkpt>
      <trkpt lat="42.3616920" lon="-8.6163280">
        <ele>66.1</ele>
        <time>2021-05-21T09:39:59Z</time>
      </trkpt>
      <trkpt lat="42.3617020" lon="-8.6163370">
        <ele>66.2</ele>
        <time>2021-05-21T09:40:00Z</time>
      </trkpt>
      <trkpt lat="42.3617190" lon="-8.6163420">
        <ele>66.3</ele>
        <time>2021-05-21T09:40:01Z</time>
      </trkpt>
      <trkpt lat="42.3617260" lon="-8.6163420">
        <ele>66.4</ele>
        <time>2021-05-21T09:40:02Z</time>
      </trkpt>
      <trkpt lat="42.3617370" lon="-8.6163470">
        <ele>66.5</ele>
        <time>2021-05-21T09:40:03Z</time>
      </trkpt>
      <trkpt lat="42.3617480" lon="-8.6163500">
        <ele>66.5</ele>
        <time>2021-05-21T09:40:04Z</time>
      </trkpt>
      <trkpt lat="42.3617580" lon="-8.6163480">
        <ele>66.6</ele>
        <time>2021-05-21T09:40:05Z</time>
      </trkpt>
      <trkpt lat="42.3617770" lon="-8.6163480">
        <ele>66.8</ele>
        <time>2021-05-21T09:40:06Z</time>
      </trkpt>
      <trkpt lat="42.3617990" lon="-8.6163500">
        <ele>66.9</ele>
        <time>2021-05-21T09:40:07Z</time>
      </trkpt>
      <trkpt lat="42.3618120" lon="-8.6163480">
        <ele>67.0</ele>
        <time>2021-05-21T09:40:08Z</time>
      </trkpt>
      <trkpt lat="42.3618300" lon="-8.6163470">
        <ele>67.2</ele>
        <time>2021-05-21T09:40:09Z</time>
      </trkpt>
      <trkpt lat="42.3618460" lon="-8.6163460">
        <ele>67.3</ele>
        <time>2021-05-21T09:40:10Z</time>
      </trkpt>
      <trkpt lat="42.3618580" lon="-8.6163430">
        <ele>67.4</ele>
        <time>2021-05-21T09:40:11Z</time>
      </trkpt>
      <trkpt lat="42.3618600" lon="-8.6163440">
        <ele>67.4</ele>
        <time>2021-05-21T09:40:12Z</time>
      </trkpt>
      <trkpt lat="42.3618750" lon="-8.6163440">
        <ele>67.4</ele>
        <time>2021-05-21T09:40:13Z</time>
      </trkpt>
      <trkpt lat="42.3618860" lon="-8.6163430">
        <ele>67.4</ele>
        <time>2021-05-21T09:40:14Z</time>
      </trkpt>
      <trkpt lat="42.3619030" lon="-8.6163350">
        <ele>67.5</ele>
        <time>2021-05-21T09:40:15Z</time>
      </trkpt>
      <trkpt lat="42.3619150" lon="-8.6163320">
        <ele>67.5</ele>
        <time>2021-05-21T09:40:16Z</time>
      </trkpt>
      <trkpt lat="42.3619300" lon="-8.6163240">
        <ele>67.6</ele>
        <time>2021-05-21T09:40:17Z</time>
      </trkpt>
      <trkpt lat="42.3619340" lon="-8.6163190">
        <ele>67.6</ele>
        <time>2021-05-21T09:40:18Z</time>
      </trkpt>
      <trkpt lat="42.3619530" lon="-8.6163110">
        <ele>67.7</ele>
        <time>2021-05-21T09:40:19Z</time>
      </trkpt>
      <trkpt lat="42.3619580" lon="-8.6163170">
        <ele>67.7</ele>
        <time>2021-05-21T09:40:20Z</time>
      </trkpt>
      <trkpt lat="42.3619710" lon="-8.6163170">
        <ele>67.7</ele>
        <time>2021-05-21T09:40:21Z</time>
      </trkpt>
      <trkpt lat="42.3619880" lon="-8.6163170">
        <ele>67.8</ele>
        <time>2021-05-21T09:40:22Z</time>
      </trkpt>
      <trkpt lat="42.3619920" lon="-8.6163200">
        <ele>67.8</ele>
        <time>2021-05-21T09:40:23Z</time>
      </trkpt>
      <trkpt lat="42.3620090" lon="-8.6163180">
        <ele>67.8</ele>
        <time>2021-05-21T09:40:24Z</time>
      </trkpt>
      <trkpt lat="42.3620190" lon="-8.6163170">
        <ele>67.9</ele>
        <time>2021-05-21T09:40:25Z</time>
      </trkpt>
      <trkpt lat="42.3620430" lon="-8.6163150">
        <ele>67.9</ele>
        <time>2021-05-21T09:40:26Z</time>
      </trkpt>
      <trkpt lat="42.3620520" lon="-8.6163150">
        <ele>68.0</ele>
        <time>2021-05-21T09:40:27Z</time>
      </trkpt>
      <trkpt lat="42.3620610" lon="-8.6163150">
        <ele>68.0</ele>
        <time>2021-05-21T09:40:28Z</time>
      </trkpt>
      <trkpt lat="42.3620700" lon="-8.6163120">
        <ele>68.0</ele>
        <time>2021-05-21T09:40:29Z</time>
      </trkpt>
      <trkpt lat="42.3620780" lon="-8.6163110">
        <ele>68.1</ele>
        <time>2021-05-21T09:40:30Z</time>
      </trkpt>
      <trkpt lat="42.3620930" lon="-8.6163100">
        <ele>68.1</ele>
        <time>2021-05-21T09:40:31Z</time>
      </trkpt>
      <trkpt lat="42.3621070" lon="-8.6163050">
        <ele>68.2</ele>
        <time>2021-05-21T09:40:32Z</time>
      </trkpt>
      <trkpt lat="42.3621230" lon="-8.6162980">
        <ele>68.2</ele>
        <time>2021-05-21T09:40:33Z</time>
      </trkpt>
      <trkpt lat="42.3621360" lon="-8.6162990">
        <ele>68.3</ele>
        <time>2021-05-21T09:40:34Z</time>
      </trkpt>
      <trkpt lat="42.3621520" lon="-8.6163000">
        <ele>68.3</ele>
        <time>2021-05-21T09:40:35Z</time>
      </trkpt>
      <trkpt lat="42.3621640" lon="-8.6162970">
        <ele>68.4</ele>
        <time>2021-05-21T09:40:36Z</time>
      </trkpt>
      <trkpt lat="42.3621720" lon="-8.6162990">
        <ele>68.4</ele>
        <time>2021-05-21T09:40:37Z</time>
      </trkpt>
      <trkpt lat="42.3621850" lon="-8.6163000">
        <ele>68.5</ele>
        <time>2021-05-21T09:40:38Z</time>
      </trkpt>
      <trkpt lat="42.3622040" lon="-8.6163040">
        <ele>68.6</ele>
        <time>2021-05-21T09:40:39Z</time>
      </trkpt>
      <trkpt lat="42.3622130" lon="-8.6163050">
        <ele>68.6</ele>
        <time>2021-05-21T09:40:40Z</time>
      </trkpt>
      <trkpt lat="42.3622230" lon="-8.6163050">
        <ele>68.7</ele>
        <time>2021-05-21T09:40:41Z</time>
      </trkpt>
      <trkpt lat="42.3622450" lon="-8.6163000">
        <ele>68.7</ele>
        <time>2021-05-21T09:40:42Z</time>
      </trkpt>
      <trkpt lat="42.3622530" lon="-8.6162990">
        <ele>68.8</ele>
        <time>2021-05-21T09:40:43Z</time>
      </trkpt>
      <trkpt lat="42.3622620" lon="-8.6162980">
        <ele>68.8</ele>
        <time>2021-05-21T09:40:44Z</time>
      </trkpt>
      <trkpt lat="42.3622790" lon="-8.6162960">
        <ele>68.9</ele>
        <time>2021-05-21T09:40:45Z</time>
      </trkpt>
      <trkpt lat="42.3622880" lon="-8.6162950">
        <ele>68.9</ele>
        <time>2021-05-21T09:40:46Z</time>
      </trkpt>
      <trkpt lat="42.3622970" lon="-8.6162940">
        <ele>69.0</ele>
        <time>2021-05-21T09:40:47Z</time>
      </trkpt>
      <trkpt lat="42.3623060" lon="-8.6162930">
        <ele>69.0</ele>
        <time>2021-05-21T09:40:48Z</time>
      </trkpt>
      <trkpt lat="42.3623240" lon="-8.6162940">
        <ele>69.1</ele>
        <time>2021-05-21T09:40:49Z</time>
      </trkpt>
      <trkpt lat="42.3623330" lon="-8.6162900">
        <ele>69.1</ele>
        <time>2021-05-21T09:40:50Z</time>
      </trkpt>
      <trkpt lat="42.3623480" lon="-8.6162910">
        <ele>69.2</ele>
        <time>2021-05-21T09:40:51Z</time>
      </trkpt>
      <trkpt lat="42.3623650" lon="-8.6162880">
        <ele>69.3</ele>
        <time>2021-05-21T09:40:52Z</time>
      </trkpt>
      <trkpt lat="42.3623880" lon="-8.6162850">
        <ele>69.4</ele>
        <time>2021-05-21T09:40:53Z</time>
      </trkpt>
      <trkpt lat="42.3623980" lon="-8.6162810">
        <ele>69.4</ele>
        <time>2021-05-21T09:40:54Z</time>
      </trkpt>
      <trkpt lat="42.3624070" lon="-8.6162770">
        <ele>69.4</ele>
        <time>2021-05-21T09:40:55Z</time>
      </trkpt>
      <trkpt lat="42.3624190" lon="-8.6162780">
        <ele>69.5</ele>
        <time>2021-05-21T09:40:56Z</time>
      </trkpt>
      <trkpt lat="42.3624330" lon="-8.6162830">
        <ele>69.6</ele>
        <time>2021-05-21T09:40:57Z</time>
      </trkpt>
      <trkpt lat="42.3624430" lon="-8.6162820">
        <ele>69.6</ele>
        <time>2021-05-21T09:40:58Z</time>
      </trkpt>
      <trkpt lat="42.3624500" lon="-8.6162840">
        <ele>69.6</ele>
        <time>2021-05-21T09:40:59Z</time>
      </trkpt>
      <trkpt lat="42.3624640" lon="-8.6162870">
        <ele>69.7</ele>
        <time>2021-05-21T09:41:00Z</time>
      </trkpt>
      <trkpt lat="42.3624770" lon="-8.6162910">
        <ele>69.8</ele>
        <time>2021-05-21T09:41:01Z</time>
      </trkpt>
      <trkpt lat="42.3624920" lon="-8.6162970">
        <ele>69.9</ele>
        <time>2021-05-21T09:41:02Z</time>
      </trkpt>
      <trkpt lat="42.3625070" lon="-8.6162960">
        <ele>69.9</ele>
        <time>2021-05-21T09:41:03Z</time>
      </trkpt>
      <trkpt lat="42.3625120" lon="-8.6162940">
        <ele>70.0</ele>
        <time>2021-05-21T09:41:04Z</time>
      </trkpt>
      <trkpt lat="42.3625240" lon="-8.6163020">
        <ele>70.0</ele>
        <time>2021-05-21T09:41:05Z</time>
      </trkpt>
      <trkpt lat="42.3625420" lon="-8.6162940">
        <ele>70.1</ele>
        <time>2021-05-21T09:41:06Z</time>
      </trkpt>
      <trkpt lat="42.3625560" lon="-8.6162970">
        <ele>70.2</ele>
        <time>2021-05-21T09:41:07Z</time>
      </trkpt>
      <trkpt lat="42.3625720" lon="-8.6163000">
        <ele>70.3</ele>
        <time>2021-05-21T09:41:08Z</time>
      </trkpt>
      <trkpt lat="42.3625830" lon="-8.6163010">
        <ele>70.4</ele>
        <time>2021-05-21T09:41:09Z</time>
      </trkpt>
      <trkpt lat="42.3625860" lon="-8.6163000">
        <ele>70.4</ele>
        <time>2021-05-21T09:41:10Z</time>
      </trkpt>
      <trkpt lat="42.3625920" lon="-8.6163040">
        <ele>70.5</ele>
        <time>2021-05-21T09:41:11Z</time>
      </trkpt>
      <trkpt lat="42.3626010" lon="-8.6163040">
        <ele>70.5</ele>
        <time>2021-05-21T09:41:12Z</time>
      </trkpt>
      <trkpt lat="42.3626060" lon="-8.6163160">
        <ele>70.6</ele>
        <time>2021-05-21T09:41:13Z</time>
      </trkpt>
      <trkpt lat="42.3626090" lon="-8.6163210">
        <ele>70.6</ele>
        <time>2021-05-21T09:41:14Z</time>
      </trkpt>
      <trkpt lat="42.3626140" lon="-8.6163160">
        <ele>70.7</ele>
        <time>2021-05-21T09:41:15Z</time>
      </trkpt>
      <trkpt lat="42.3626290" lon="-8.6163220">
        <ele>70.8</ele>
        <time>2021-05-21T09:41:16Z</time>
      </trkpt>
      <trkpt lat="42.3626390" lon="-8.6163280">
        <ele>70.8</ele>
        <time>2021-05-21T09:41:17Z</time>
      </trkpt>
      <trkpt lat="42.3626500" lon="-8.6163280">
        <ele>70.9</ele>
        <time>2021-05-21T09:41:18Z</time>
      </trkpt>
      <trkpt lat="42.3626640" lon="-8.6163280">
        <ele>71.0</ele>
        <time>2021-05-21T09:41:19Z</time>
      </trkpt>
      <trkpt lat="42.3626740" lon="-8.6163350">
        <ele>71.1</ele>
        <time>2021-05-21T09:41:20Z</time>
      </trkpt>
      <trkpt lat="42.3626820" lon="-8.6163410">
        <ele>71.2</ele>
        <time>2021-05-21T09:41:21Z</time>
      </trkpt>
      <trkpt lat="42.3626850" lon="-8.6163470">
        <ele>71.2</ele>
        <time>2021-05-21T09:41:22Z</time>
      </trkpt>
      <trkpt lat="42.3626930" lon="-8.6163480">
        <ele>71.3</ele>
        <time>2021-05-21T09:41:23Z</time>
      </trkpt>
      <trkpt lat="42.3627090" lon="-8.6163520">
        <ele>71.4</ele>
        <time>2021-05-21T09:41:24Z</time>
      </trkpt>
      <trkpt lat="42.3627190" lon="-8.6163520">
        <ele>71.5</ele>
        <time>2021-05-21T09:41:25Z</time>
      </trkpt>
      <trkpt lat="42.3627220" lon="-8.6163590">
        <ele>71.5</ele>
        <time>2021-05-21T09:41:26Z</time>
      </trkpt>
      <trkpt lat="42.3627390" lon="-8.6163540">
        <ele>71.6</ele>
        <time>2021-05-21T09:41:27Z</time>
      </trkpt>
      <trkpt lat="42.3627510" lon="-8.6163510">
        <ele>71.7</ele>
        <time>2021-05-21T09:41:28Z</time>
      </trkpt>
      <trkpt lat="42.3627730" lon="-8.6163590">
        <ele>71.9</ele>
        <time>2021-05-21T09:41:29Z</time>
      </trkpt>
      <trkpt lat="42.3627790" lon="-8.6163640">
        <ele>72.0</ele>
        <time>2021-05-21T09:41:30Z</time>
      </trkpt>
      <trkpt lat="42.3627860" lon="-8.6163680">
        <ele>72.1</ele>
        <time>2021-05-21T09:41:31Z</time>
      </trkpt>
      <trkpt lat="42.3628020" lon="-8.6163660">
        <ele>72.2</ele>
        <time>2021-05-21T09:41:32Z</time>
      </trkpt>
      <trkpt lat="42.3628180" lon="-8.6163630">
        <ele>72.4</ele>
        <time>2021-05-21T09:41:33Z</time>
      </trkpt>
      <trkpt lat="42.3628350" lon="-8.6163750">
        <ele>72.5</ele>
        <time>2021-05-21T09:41:34Z</time>
      </trkpt>
      <trkpt lat="42.3628410" lon="-8.6163830">
        <ele>72.6</ele>
        <time>2021-05-21T09:41:35Z</time>
      </trkpt>
      <trkpt lat="42.3628600" lon="-8.6164010">
        <ele>72.8</ele>
        <time>2021-05-21T09:41:36Z</time>
      </trkpt>
      <trkpt lat="42.3628680" lon="-8.6164090">
        <ele>72.9</ele>
        <time>2021-05-21T09:41:37Z</time>
      </trkpt>
      <trkpt lat="42.3628760" lon="-8.6164180">
        <ele>73.0</ele>
        <time>2021-05-21T09:41:38Z</time>
      </trkpt>
      <trkpt lat="42.3628910" lon="-8.6164190">
        <ele>73.2</ele>
        <time>2021-05-21T09:41:39Z</time>
      </trkpt>
      <trkpt lat="42.3628920" lon="-8.6164220">
        <ele>73.2</ele>
        <time>2021-05-21T09:41:40Z</time>
      </trkpt>
      <trkpt lat="42.3629070" lon="-8.6164310">
        <ele>73.4</ele>
        <time>2021-05-21T09:41:41Z</time>
      </trkpt>
      <trkpt lat="42.3629030" lon="-8.6164230">
        <ele>73.5</ele>
        <time>2021-05-21T09:41:42Z</time>
      </trkpt>
      <trkpt lat="42.3629210" lon="-8.6164270">
        <ele>73.7</ele>
        <time>2021-05-21T09:41:43Z</time>
      </trkpt>
      <trkpt lat="42.3629400" lon="-8.6164310">
        <ele>73.9</ele>
        <time>2021-05-21T09:41:44Z</time>
      </trkpt>
      <trkpt lat="42.3629480" lon="-8.6164310">
        <ele>74.0</ele>
        <time>2021-05-21T09:41:45Z</time>
      </trkpt>
      <trkpt lat="42.3629610" lon="-8.6164350">
        <ele>74.1</ele>
        <time>2021-05-21T09:41:46Z</time>
      </trkpt>
      <trkpt lat="42.3629700" lon="-8.6164420">
        <ele>74.2</ele>
        <time>2021-05-21T09:41:47Z</time>
      </trkpt>
      <trkpt lat="42.3629800" lon="-8.6164340">
        <ele>74.3</ele>
        <time>2021-05-21T09:41:48Z</time>
      </trkpt>
      <trkpt lat="42.3629880" lon="-8.6164360">
        <ele>74.4</ele>
        <time>2021-05-21T09:41:49Z</time>
      </trkpt>
      <trkpt lat="42.3630050" lon="-8.6164400">
        <ele>74.6</ele>
        <time>2021-05-21T09:41:50Z</time>
      </trkpt>
      <trkpt lat="42.3630170" lon="-8.6164470">
        <ele>74.7</ele>
        <time>2021-05-21T09:41:51Z</time>
      </trkpt>
      <trkpt lat="42.3630250" lon="-8.6164480">
        <ele>74.8</ele>
        <time>2021-05-21T09:41:52Z</time>
      </trkpt>
      <trkpt lat="42.3630340" lon="-8.6164540">
        <ele>74.9</ele>
        <time>2021-05-21T09:41:53Z</time>
      </trkpt>
      <trkpt lat="42.3630350" lon="-8.6164540">
        <ele>74.9</ele>
        <time>2021-05-21T09:41:54Z</time>
      </trkpt>
      <trkpt lat="42.3630460" lon="-8.6164600">
        <ele>75.1</ele>
        <time>2021-05-21T09:41:55Z</time>
      </trkpt>
      <trkpt lat="42.3630520" lon="-8.6164660">
        <ele>75.2</ele>
        <time>2021-05-21T09:41:56Z</time>
      </trkpt>
      <trkpt lat="42.3630670" lon="-8.6164710">
        <ele>75.3</ele>
        <time>2021-05-21T09:41:57Z</time>
      </trkpt>
      <trkpt lat="42.3630830" lon="-8.6164630">
        <ele>75.5</ele>
        <time>2021-05-21T09:41:58Z</time>
      </trkpt>
      <trkpt lat="42.3630920" lon="-8.6164620">
        <ele>75.6</ele>
        <time>2021-05-21T09:41:59Z</time>
      </trkpt>
      <trkpt lat="42.3631000" lon="-8.6164600">
        <ele>75.7</ele>
        <time>2021-05-21T09:42:00Z</time>
      </trkpt>
      <trkpt lat="42.3631080" lon="-8.6164590">
        <ele>75.8</ele>
        <time>2021-05-21T09:42:01Z</time>
      </trkpt>
      <trkpt lat="42.3631210" lon="-8.6164690">
        <ele>75.9</ele>
        <time>2021-05-21T09:42:02Z</time>
      </trkpt>
      <trkpt lat="42.3631390" lon="-8.6164770">
        <ele>76.2</ele>
        <time>2021-05-21T09:42:03Z</time>
      </trkpt>
      <trkpt lat="42.3631570" lon="-8.6164760">
        <ele>76.4</ele>
        <time>2021-05-21T09:42:04Z</time>
      </trkpt>
      <trkpt lat="42.3631670" lon="-8.6164930">
        <ele>76.6</ele>
        <time>2021-05-21T09:42:05Z</time>
      </trkpt>
      <trkpt lat="42.3631730" lon="-8.6165040">
        <ele>76.7</ele>
        <time>2021-05-21T09:42:06Z</time>
      </trkpt>
      <trkpt lat="42.3631920" lon="-8.6165180">
        <ele>76.9</ele>
        <time>2021-05-21T09:42:07Z</time>
      </trkpt>
      <trkpt lat="42.3632070" lon="-8.6165300">
        <ele>77.2</ele>
        <time>2021-05-21T09:42:08Z</time>
      </trkpt>
      <trkpt lat="42.3632220" lon="-8.6165310">
        <ele>77.3</ele>
        <time>2021-05-21T09:42:09Z</time>
      </trkpt>
      <trkpt lat="42.3632350" lon="-8.6165410">
        <ele>77.5</ele>
        <time>2021-05-21T09:42:10Z</time>
      </trkpt>
      <trkpt lat="42.3632450" lon="-8.6165400">
        <ele>77.7</ele>
        <time>2021-05-21T09:42:11Z</time>
      </trkpt>
      <trkpt lat="42.3632510" lon="-8.6165540">
        <ele>77.8</ele>
        <time>2021-05-21T09:42:12Z</time>
      </trkpt>
      <trkpt lat="42.3632640" lon="-8.6165600">
        <ele>78.0</ele>
        <time>2021-05-21T09:42:13Z</time>
      </trkpt>
      <trkpt lat="42.3632790" lon="-8.6165670">
        <ele>78.2</ele>
        <time>2021-05-21T09:42:14Z</time>
      </trkpt>
      <trkpt lat="42.3632880" lon="-8.6165680">
        <ele>78.4</ele>
        <time>2021-05-21T09:42:15Z</time>
      </trkpt>
      <trkpt lat="42.3632940" lon="-8.6165660">
        <ele>78.4</ele>
        <time>2021-05-21T09:42:16Z</time>
      </trkpt>
      <trkpt lat="42.3633120" lon="-8.6165630">
        <ele>78.7</ele>
        <time>2021-05-21T09:42:17Z</time>
      </trkpt>
      <trkpt lat="42.3633280" lon="-8.6165740">
        <ele>78.9</ele>
        <time>2021-05-21T09:42:18Z</time>
      </trkpt>
      <trkpt lat="42.3633350" lon="-8.6165800">
        <ele>79.1</ele>
        <time>2021-05-21T09:42:19Z</time>
      </trkpt>
      <trkpt lat="42.3633430" lon="-8.6165860">
        <ele>79.2</ele>
        <time>2021-05-21T09:42:20Z</time>
      </trkpt>
      <trkpt lat="42.3633500" lon="-8.6165920">
        <ele>79.3</ele>
        <time>2021-05-21T09:42:21Z</time>
      </trkpt>
      <trkpt lat="42.3633680" lon="-8.6166120">
        <ele>79.6</ele>
        <time>2021-05-21T09:42:22Z</time>
      </trkpt>
      <trkpt lat="42.3633760" lon="-8.6166190">
        <ele>79.7</ele>
        <time>2021-05-21T09:42:23Z</time>
      </trkpt>
      <trkpt lat="42.3633840" lon="-8.6166260">
        <ele>79.8</ele>
        <time>2021-05-21T09:42:24Z</time>
      </trkpt>
      <trkpt lat="42.3633940" lon="-8.6166360">
        <ele>80.0</ele>
        <time>2021-05-21T09:42:25Z</time>
      </trkpt>
      <trkpt lat="42.3634050" lon="-8.6166490">
        <ele>80.2</ele>
        <time>2021-05-21T09:42:26Z</time>
      </trkpt>
      <trkpt lat="42.3634130" lon="-8.6166630">
        <ele>80.3</ele>
        <time>2021-05-21T09:42:27Z</time>
      </trkpt>
      <trkpt lat="42.3634260" lon="-8.6166780">
        <ele>80.5</ele>
        <time>2021-05-21T09:42:28Z</time>
      </trkpt>
      <trkpt lat="42.3634270" lon="-8.6166890">
        <ele>80.6</ele>
        <time>2021-05-21T09:42:29Z</time>
      </trkpt>
      <trkpt lat="42.3634360" lon="-8.6167180">
        <ele>80.8</ele>
        <time>2021-05-21T09:42:30Z</time>
      </trkpt>
      <trkpt lat="42.3634390" lon="-8.6167370">
        <ele>81.0</ele>
        <time>2021-05-21T09:42:31Z</time>
      </trkpt>
      <trkpt lat="42.3634500" lon="-8.6167550">
        <ele>81.2</ele>
        <time>2021-05-21T09:42:32Z</time>
      </trkpt>
      <trkpt lat="42.3634740" lon="-8.6167650">
        <ele>81.4</ele>
        <time>2021-05-21T09:42:33Z</time>
      </trkpt>
      <trkpt lat="42.3634820" lon="-8.6167720">
        <ele>81.5</ele>
        <time>2021-05-21T09:42:34Z</time>
      </trkpt>
      <trkpt lat="42.3634910" lon="-8.6167800">
        <ele>81.6</ele>
        <time>2021-05-21T09:42:35Z</time>
      </trkpt>
      <trkpt lat="42.3635060" lon="-8.6167810">
        <ele>81.8</ele>
        <time>2021-05-21T09:42:36Z</time>
      </trkpt>
      <trkpt lat="42.3635140" lon="-8.6167760">
        <ele>81.9</ele>
        <time>2021-05-21T09:42:37Z</time>
      </trkpt>
      <trkpt lat="42.3635180" lon="-8.6167750">
        <ele>81.9</ele>
        <time>2021-05-21T09:42:38Z</time>
      </trkpt>
      <trkpt lat="42.3635360" lon="-8.6167770">
        <ele>82.1</ele>
        <time>2021-05-21T09:42:39Z</time>
      </trkpt>
      <trkpt lat="42.3635500" lon="-8.6167820">
        <ele>82.3</ele>
        <time>2021-05-21T09:42:40Z</time>
      </trkpt>
      <trkpt lat="42.3635610" lon="-8.6167810">
        <ele>82.4</ele>
        <time>2021-05-21T09:42:41Z</time>
      </trkpt>
      <trkpt lat="42.3635690" lon="-8.6167830">
        <ele>82.5</ele>
        <time>2021-05-21T09:42:42Z</time>
      </trkpt>
      <trkpt lat="42.3635780" lon="-8.6167860">
        <ele>82.6</ele>
        <time>2021-05-21T09:42:43Z</time>
      </trkpt>
      <trkpt lat="42.3635860" lon="-8.6167880">
        <ele>82.7</ele>
        <time>2021-05-21T09:42:44Z</time>
      </trkpt>
      <trkpt lat="42.3636080" lon="-8.6167970">
        <ele>82.9</ele>
        <time>2021-05-21T09:42:45Z</time>
      </trkpt>
      <trkpt lat="42.3636130" lon="-8.6168000">
        <ele>83.0</ele>
        <time>2021-05-21T09:42:46Z</time>
      </trkpt>
      <trkpt lat="42.3636190" lon="-8.6168020">
        <ele>83.0</ele>
        <time>2021-05-21T09:42:47Z</time>
      </trkpt>
      <trkpt lat="42.3636240" lon="-8.6168050">
        <ele>83.1</ele>
        <time>2021-05-21T09:42:48Z</time>
      </trkpt>
      <trkpt lat="42.3636300" lon="-8.6168070">
        <ele>83.2</ele>
        <time>2021-05-21T09:42:49Z</time>
      </trkpt>
      <trkpt lat="42.3636480" lon="-8.6168020">
        <ele>83.4</ele>
        <time>2021-05-21T09:42:50Z</time>
      </trkpt>
      <trkpt lat="42.3636490" lon="-8.6167980">
        <ele>83.4</ele>
        <time>2021-05-21T09:42:51Z</time>
      </trkpt>
      <trkpt lat="42.3636530" lon="-8.6168070">
        <ele>83.5</ele>
        <time>2021-05-21T09:42:52Z</time>
      </trkpt>
      <trkpt lat="42.3636570" lon="-8.6168170">
        <ele>83.6</ele>
        <time>2021-05-21T09:42:53Z</time>
      </trkpt>
      <trkpt lat="42.3636570" lon="-8.6168110">
        <ele>83.7</ele>
        <time>2021-05-21T09:42:54Z</time>
      </trkpt>
      <trkpt lat="42.3636800" lon="-8.6168250">
        <ele>84.0</ele>
        <time>2021-05-21T09:42:55Z</time>
      </trkpt>
      <trkpt lat="42.3636850" lon="-8.6168170">
        <ele>84.1</ele>
        <time>2021-05-21T09:42:56Z</time>
      </trkpt>
      <trkpt lat="42.3636930" lon="-8.6168210">
        <ele>84.2</ele>
        <time>2021-05-21T09:42:57Z</time>
      </trkpt>
      <trkpt lat="42.3637020" lon="-8.6168310">
        <ele>84.3</ele>
        <time>2021-05-21T09:42:58Z</time>
      </trkpt>
      <trkpt lat="42.3637100" lon="-8.6168300">
        <ele>84.4</ele>
        <time>2021-05-21T09:42:59Z</time>
      </trkpt>
      <trkpt lat="42.3637310" lon="-8.6168280">
        <ele>84.7</ele>
        <time>2021-05-21T09:43:00Z</time>
      </trkpt>
      <trkpt lat="42.3637410" lon="-8.6168290">
        <ele>84.8</ele>
        <time>2021-05-21T09:43:01Z</time>
      </trkpt>
      <trkpt lat="42.3637540" lon="-8.6168330">
        <ele>85.0</ele>
        <time>2021-05-21T09:43:02Z</time>
      </trkpt>
      <trkpt lat="42.3637590" lon="-8.6168310">
        <ele>85.1</ele>
        <time>2021-05-21T09:43:03Z</time>
      </trkpt>
      <trkpt lat="42.3637710" lon="-8.6168210">
        <ele>85.2</ele>
        <time>2021-05-21T09:43:04Z</time>
      </trkpt>
      <trkpt lat="42.3637840" lon="-8.6168220">
        <ele>85.4</ele>
        <time>2021-05-21T09:43:05Z</time>
      </trkpt>
      <trkpt lat="42.3637970" lon="-8.6168160">
        <ele>85.6</ele>
        <time>2021-05-21T09:43:06Z</time>
      </trkpt>
      <trkpt lat="42.3638000" lon="-8.6168110">
        <ele>85.6</ele>
        <time>2021-05-21T09:43:07Z</time>
      </trkpt>
      <trkpt lat="42.3638050" lon="-8.6168100">
        <ele>85.7</ele>
        <time>2021-05-21T09:43:08Z</time>
      </trkpt>
      <trkpt lat="42.3638170" lon="-8.6168040">
        <ele>85.9</ele>
        <time>2021-05-21T09:43:09Z</time>
      </trkpt>
      <trkpt lat="42.3638280" lon="-8.6168020">
        <ele>86.0</ele>
        <time>2021-05-21T09:43:10Z</time>
      </trkpt>
      <trkpt lat="42.3638390" lon="-8.6168110">
        <ele>86.2</ele>
        <time>2021-05-21T09:43:11Z</time>
      </trkpt>
      <trkpt lat="42.3638520" lon="-8.6168070">
        <ele>86.4</ele>
        <time>2021-05-21T09:43:12Z</time>
      </trkpt>
      <trkpt lat="42.3638530" lon="-8.6168080">
        <ele>86.4</ele>
        <time>2021-05-21T09:43:14Z</time>
      </trkpt>
      <trkpt lat="42.3638610" lon="-8.6168160">
        <ele>86.5</ele>
        <time>2021-05-21T09:43:15Z</time>
      </trkpt>
      <trkpt lat="42.3638670" lon="-8.6168200">
        <ele>86.6</ele>
        <time>2021-05-21T09:43:16Z</time>
      </trkpt>
      <trkpt lat="42.3638920" lon="-8.6168240">
        <ele>86.9</ele>
        <time>2021-05-21T09:43:17Z</time>
      </trkpt>
      <trkpt lat="42.3639030" lon="-8.6168440">
        <ele>87.1</ele>
        <time>2021-05-21T09:43:18Z</time>
      </trkpt>
      <trkpt lat="42.3639090" lon="-8.6168350">
        <ele>87.3</ele>
        <time>2021-05-21T09:43:19Z</time>
      </trkpt>
      <trkpt lat="42.3639170" lon="-8.6168400">
        <ele>87.4</ele>
        <time>2021-05-21T09:43:20Z</time>
      </trkpt>
      <trkpt lat="42.3639190" lon="-8.6168320">
        <ele>87.5</ele>
        <time>2021-05-21T09:43:21Z</time>
      </trkpt>
      <trkpt lat="42.3639260" lon="-8.6168320">
        <ele>87.5</ele>
        <time>2021-05-21T09:43:22Z</time>
      </trkpt>
      <trkpt lat="42.3639360" lon="-8.6168310">
        <ele>87.7</ele>
        <time>2021-05-21T09:43:23Z</time>
      </trkpt>
      <trkpt lat="42.3639490" lon="-8.6168280">
        <ele>87.8</ele>
        <time>2021-05-21T09:43:24Z</time>
      </trkpt>
      <trkpt lat="42.3639710" lon="-8.6168350">
        <ele>88.1</ele>
        <time>2021-05-21T09:43:25Z</time>
      </trkpt>
      <trkpt lat="42.3639860" lon="-8.6168250">
        <ele>88.3</ele>
        <time>2021-05-21T09:43:26Z</time>
      </trkpt>
      <trkpt lat="42.3640020" lon="-8.6168070">
        <ele>88.6</ele>
        <time>2021-05-21T09:43:27Z</time>
      </trkpt>
      <trkpt lat="42.3640110" lon="-8.6168040">
        <ele>88.7</ele>
        <time>2021-05-21T09:43:28Z</time>
      </trkpt>
      <trkpt lat="42.3640190" lon="-8.6168010">
        <ele>88.8</ele>
        <time>2021-05-21T09:43:29Z</time>
      </trkpt>
      <trkpt lat="42.3640420" lon="-8.6167890">
        <ele>89.0</ele>
        <time>2021-05-21T09:43:30Z</time>
      </trkpt>
      <trkpt lat="42.3640530" lon="-8.6167800">
        <ele>89.2</ele>
        <time>2021-05-21T09:43:31Z</time>
      </trkpt>
      <trkpt lat="42.3640670" lon="-8.6167590">
        <ele>89.4</ele>
        <time>2021-05-21T09:43:32Z</time>
      </trkpt>
      <trkpt lat="42.3640730" lon="-8.6167500">
        <ele>89.5</ele>
        <time>2021-05-21T09:43:33Z</time>
      </trkpt>
      <trkpt lat="42.3640790" lon="-8.6167400">
        <ele>89.6</ele>
        <time>2021-05-21T09:43:34Z</time>
      </trkpt>
      <trkpt lat="42.3641000" lon="-8.6167120">
        <ele>90.0</ele>
        <time>2021-05-21T09:43:35Z</time>
      </trkpt>
      <trkpt lat="42.3641070" lon="-8.6167020">
        <ele>90.1</ele>
        <time>2021-05-21T09:43:36Z</time>
      </trkpt>
      <trkpt lat="42.3641210" lon="-8.6167000">
        <ele>90.2</ele>
        <time>2021-05-21T09:43:37Z</time>
      </trkpt>
      <trkpt lat="42.3641230" lon="-8.6166900">
        <ele>90.3</ele>
        <time>2021-05-21T09:43:38Z</time>
      </trkpt>
      <trkpt lat="42.3641380" lon="-8.6166770">
        <ele>90.5</ele>
        <time>2021-05-21T09:43:39Z</time>
      </trkpt>
      <trkpt lat="42.3641500" lon="-8.6166660">
        <ele>90.6</ele>
        <time>2021-05-21T09:43:40Z</time>
      </trkpt>
      <trkpt lat="42.3641580" lon="-8.6166620">
        <ele>90.7</ele>
        <time>2021-05-21T09:43:41Z</time>
      </trkpt>
      <trkpt lat="42.3641660" lon="-8.6166590">
        <ele>90.8</ele>
        <time>2021-05-21T09:43:42Z</time>
      </trkpt>
      <trkpt lat="42.3641740" lon="-8.6166550">
        <ele>90.9</ele>
        <time>2021-05-21T09:43:43Z</time>
      </trkpt>
      <trkpt lat="42.3641820" lon="-8.6166520">
        <ele>90.9</ele>
        <time>2021-05-21T09:43:44Z</time>
      </trkpt>
      <trkpt lat="42.3641930" lon="-8.6166580">
        <ele>91.0</ele>
        <time>2021-05-21T09:43:45Z</time>
      </trkpt>
      <trkpt lat="42.3642010" lon="-8.6166540">
        <ele>91.1</ele>
        <time>2021-05-21T09:43:46Z</time>
      </trkpt>
      <trkpt lat="42.3642140" lon="-8.6166460">
        <ele>91.2</ele>
        <time>2021-05-21T09:43:47Z</time>
      </trkpt>
      <trkpt lat="42.3642140" lon="-8.6166360">
        <ele>91.3</ele>
        <time>2021-05-21T09:43:48Z</time>
      </trkpt>
      <trkpt lat="42.3642160" lon="-8.6166220">
        <ele>91.3</ele>
        <time>2021-05-21T09:43:49Z</time>
      </trkpt>
      <trkpt lat="42.3642260" lon="-8.6166250">
        <ele>91.4</ele>
        <time>2021-05-21T09:43:50Z</time>
      </trkpt>
      <trkpt lat="42.3642410" lon="-8.6166380">
        <ele>91.5</ele>
        <time>2021-05-21T09:43:51Z</time>
      </trkpt>
      <trkpt lat="42.3642570" lon="-8.6166350">
        <ele>91.6</ele>
        <time>2021-05-21T09:43:52Z</time>
      </trkpt>
      <trkpt lat="42.3642650" lon="-8.6166330">
        <ele>91.7</ele>
        <time>2021-05-21T09:43:53Z</time>
      </trkpt>
      <trkpt lat="42.3642700" lon="-8.6166360">
        <ele>91.7</ele>
        <time>2021-05-21T09:43:54Z</time>
      </trkpt>
      <trkpt lat="42.3642710" lon="-8.6166310">
        <ele>91.8</ele>
        <time>2021-05-21T09:43:55Z</time>
      </trkpt>
      <trkpt lat="42.3642890" lon="-8.6166290">
        <ele>91.9</ele>
        <time>2021-05-21T09:43:56Z</time>
      </trkpt>
      <trkpt lat="42.3643010" lon="-8.6166210">
        <ele>91.9</ele>
        <time>2021-05-21T09:43:57Z</time>
      </trkpt>
      <trkpt lat="42.3643200" lon="-8.6166350">
        <ele>92.1</ele>
        <time>2021-05-21T09:43:58Z</time>
      </trkpt>
      <trkpt lat="42.3643300" lon="-8.6166270">
        <ele>92.1</ele>
        <time>2021-05-21T09:43:59Z</time>
      </trkpt>
      <trkpt lat="42.3643390" lon="-8.6166190">
        <ele>92.2</ele>
        <time>2021-05-21T09:44:00Z</time>
      </trkpt>
      <trkpt lat="42.3643480" lon="-8.6166080">
        <ele>92.2</ele>
        <time>2021-05-21T09:44:01Z</time>
      </trkpt>
      <trkpt lat="42.3643610" lon="-8.6166110">
        <ele>92.3</ele>
        <time>2021-05-21T09:44:02Z</time>
      </trkpt>
      <trkpt lat="42.3643770" lon="-8.6166120">
        <ele>92.4</ele>
        <time>2021-05-21T09:44:03Z</time>
      </trkpt>
      <trkpt lat="42.3643900" lon="-8.6166100">
        <ele>92.5</ele>
        <time>2021-05-21T09:44:04Z</time>
      </trkpt>
      <trkpt lat="42.3644130" lon="-8.6166050">
        <ele>92.6</ele>
        <time>2021-05-21T09:44:05Z</time>
      </trkpt>
      <trkpt lat="42.3644240" lon="-8.6166020">
        <ele>92.6</ele>
        <time>2021-05-21T09:44:06Z</time>
      </trkpt>
      <trkpt lat="42.3644360" lon="-8.6166000">
        <ele>92.7</ele>
        <time>2021-05-21T09:44:07Z</time>
      </trkpt>
      <trkpt lat="42.3644610" lon="-8.6165960">
        <ele>92.8</ele>
        <time>2021-05-21T09:44:08Z</time>
      </trkpt>
      <trkpt lat="42.3644720" lon="-8.6165890">
        <ele>92.9</ele>
        <time>2021-05-21T09:44:09Z</time>
      </trkpt>
      <trkpt lat="42.3644800" lon="-8.6165830">
        <ele>92.9</ele>
        <time>2021-05-21T09:44:10Z</time>
      </trkpt>
      <trkpt lat="42.3645020" lon="-8.6165810">
        <ele>93.1</ele>
        <time>2021-05-21T09:44:11Z</time>
      </trkpt>
      <trkpt lat="42.3645070" lon="-8.6165810">
        <ele>93.1</ele>
        <time>2021-05-21T09:44:12Z</time>
      </trkpt>
      <trkpt lat="42.3645110" lon="-8.6165860">
        <ele>93.1</ele>
        <time>2021-05-21T09:44:13Z</time>
      </trkpt>
      <trkpt lat="42.3645260" lon="-8.6165760">
        <ele>93.2</ele>
        <time>2021-05-21T09:44:14Z</time>
      </trkpt>
      <trkpt lat="42.3645320" lon="-8.6165780">
        <ele>93.2</ele>
        <time>2021-05-21T09:44:15Z</time>
      </trkpt>
      <trkpt lat="42.3645370" lon="-8.6165770">
        <ele>93.3</ele>
        <time>2021-05-21T09:44:16Z</time>
      </trkpt>
      <trkpt lat="42.3645460" lon="-8.6165790">
        <ele>93.3</ele>
        <time>2021-05-21T09:44:17Z</time>
      </trkpt>
      <trkpt lat="42.3645630" lon="-8.6165890">
        <ele>93.4</ele>
        <time>2021-05-21T09:44:18Z</time>
      </trkpt>
      <trkpt lat="42.3645770" lon="-8.6165880">
        <ele>93.5</ele>
        <time>2021-05-21T09:44:19Z</time>
      </trkpt>
      <trkpt lat="42.3645840" lon="-8.6165860">
        <ele>93.5</ele>
        <time>2021-05-21T09:44:20Z</time>
      </trkpt>
      <trkpt lat="42.3645940" lon="-8.6165870">
        <ele>93.6</ele>
        <time>2021-05-21T09:44:21Z</time>
      </trkpt>
      <trkpt lat="42.3646140" lon="-8.6165910">
        <ele>93.7</ele>
        <time>2021-05-21T09:44:22Z</time>
      </trkpt>
      <trkpt lat="42.3646210" lon="-8.6165940">
        <ele>93.7</ele>
        <time>2021-05-21T09:44:23Z</time>
      </trkpt>
      <trkpt lat="42.3646270" lon="-8.6165970">
        <ele>93.7</ele>
        <time>2021-05-21T09:44:24Z</time>
      </trkpt>
      <trkpt lat="42.3646340" lon="-8.6166000">
        <ele>93.8</ele>
        <time>2021-05-21T09:44:25Z</time>
      </trkpt>
      <trkpt lat="42.3646480" lon="-8.6166110">
        <ele>93.8</ele>
        <time>2021-05-21T09:44:26Z</time>
      </trkpt>
      <trkpt lat="42.3646620" lon="-8.6166170">
        <ele>93.9</ele>
        <time>2021-05-21T09:44:27Z</time>
      </trkpt>
      <trkpt lat="42.3646750" lon="-8.6166150">
        <ele>94.0</ele>
        <time>2021-05-21T09:44:28Z</time>
      </trkpt>
      <trkpt lat="42.3646890" lon="-8.6166150">
        <ele>94.0</ele>
        <time>2021-05-21T09:44:29Z</time>
      </trkpt>
      <trkpt lat="42.3647070" lon="-8.6166200">
        <ele>94.1</ele>
        <time>2021-05-21T09:44:30Z</time>
      </trkpt>
      <trkpt lat="42.3647190" lon="-8.6166340">
        <ele>94.2</ele>
        <time>2021-05-21T09:44:31Z</time>
      </trkpt>
      <trkpt lat="42.3647280" lon="-8.6166290">
        <ele>94.2</ele>
        <time>2021-05-21T09:44:32Z</time>
      </trkpt>
      <trkpt lat="42.3647370" lon="-8.6166290">
        <ele>94.3</ele>
        <time>2021-05-21T09:44:33Z</time>
      </trkpt>
      <trkpt lat="42.3647480" lon="-8.6166330">
        <ele>94.3</ele>
        <time>2021-05-21T09:44:34Z</time>
      </trkpt>
      <trkpt lat="42.3647560" lon="-8.6166360">
        <ele>94.4</ele>
        <time>2021-05-21T09:44:35Z</time>
      </trkpt>
      <trkpt lat="42.3647770" lon="-8.6166490">
        <ele>94.5</ele>
        <time>2021-05-21T09:44:36Z</time>
      </trkpt>
      <trkpt lat="42.3647850" lon="-8.6166540">
        <ele>94.5</ele>
        <time>2021-05-21T09:44:37Z</time>
      </trkpt>
      <trkpt lat="42.3647920" lon="-8.6166610">
        <ele>94.6</ele>
        <time>2021-05-21T09:44:38Z</time>
      </trkpt>
      <trkpt lat="42.3648050" lon="-8.6166650">
        <ele>94.6</ele>
        <time>2021-05-21T09:44:39Z</time>
      </trkpt>
      <trkpt lat="42.3648110" lon="-8.6166620">
        <ele>94.6</ele>
        <time>2021-05-21T09:44:40Z</time>
      </trkpt>
      <trkpt lat="42.3648130" lon="-8.6166580">
        <ele>94.7</ele>
        <time>2021-05-21T09:44:41Z</time>
      </trkpt>
      <trkpt lat="42.3648190" lon="-8.6166550">
        <ele>94.7</ele>
        <time>2021-05-21T09:44:42Z</time>
      </trkpt>
      <trkpt lat="42.3648320" lon="-8.6166590">
        <ele>94.8</ele>
        <time>2021-05-21T09:44:43Z</time>
      </trkpt>
      <trkpt lat="42.3648460" lon="-8.6166640">
        <ele>94.8</ele>
        <time>2021-05-21T09:44:44Z</time>
      </trkpt>
      <trkpt lat="42.3648650" lon="-8.6166610">
        <ele>94.9</ele>
        <time>2021-05-21T09:44:45Z</time>
      </trkpt>
      <trkpt lat="42.3648870" lon="-8.6166600">
        <ele>95.0</ele>
        <time>2021-05-21T09:44:46Z</time>
      </trkpt>
      <trkpt lat="42.3648940" lon="-8.6166620">
        <ele>95.1</ele>
        <time>2021-05-21T09:44:47Z</time>
      </trkpt>
      <trkpt lat="42.3649020" lon="-8.6166650">
        <ele>95.1</ele>
        <time>2021-05-21T09:44:48Z</time>
      </trkpt>
      <trkpt lat="42.3649100" lon="-8.6166680">
        <ele>95.2</ele>
        <time>2021-05-21T09:44:49Z</time>
      </trkpt>
      <trkpt lat="42.3649210" lon="-8.6166660">
        <ele>95.2</ele>
        <time>2021-05-21T09:44:50Z</time>
      </trkpt>
      <trkpt lat="42.3649180" lon="-8.6166580">
        <ele>95.3</ele>
        <time>2021-05-21T09:44:51Z</time>
      </trkpt>
      <trkpt lat="42.3649380" lon="-8.6166660">
        <ele>95.4</ele>
        <time>2021-05-21T09:44:52Z</time>
      </trkpt>
      <trkpt lat="42.3649480" lon="-8.6166710">
        <ele>95.5</ele>
        <time>2021-05-21T09:44:53Z</time>
      </trkpt>
      <trkpt lat="42.3649520" lon="-8.6166660">
        <ele>95.5</ele>
        <time>2021-05-21T09:44:54Z</time>
      </trkpt>
      <trkpt lat="42.3649490" lon="-8.6166630">
        <ele>95.5</ele>
        <time>2021-05-21T09:44:55Z</time>
      </trkpt>
      <trkpt lat="42.3649560" lon="-8.6166600">
        <ele>95.6</ele>
        <time>2021-05-21T09:44:56Z</time>
      </trkpt>
      <trkpt lat="42.3649540" lon="-8.6166510">
        <ele>95.6</ele>
        <time>2021-05-21T09:44:57Z</time>
      </trkpt>
      <trkpt lat="42.3649540" lon="-8.6166460">
        <ele>95.7</ele>
        <time>2021-05-21T09:44:58Z</time>
      </trkpt>
      <trkpt lat="42.3649600" lon="-8.6166380">
        <ele>95.7</ele>
        <time>2021-05-21T09:44:59Z</time>
      </trkpt>
      <trkpt lat="42.3649720" lon="-8.6166350">
        <ele>95.8</ele>
        <time>2021-05-21T09:45:00Z</time>
      </trkpt>
      <trkpt lat="42.3649760" lon="-8.6166370">
        <ele>95.8</ele>
        <time>2021-05-21T09:45:01Z</time>
      </trkpt>
      <trkpt lat="42.3649810" lon="-8.6166400">
        <ele>95.9</ele>
        <time>2021-05-21T09:45:02Z</time>
      </trkpt>
      <trkpt lat="42.3649850" lon="-8.6166430">
        <ele>95.9</ele>
        <time>2021-05-21T09:45:03Z</time>
      </trkpt>
      <trkpt lat="42.3649900" lon="-8.6166460">
        <ele>96.0</ele>
        <time>2021-05-21T09:45:04Z</time>
      </trkpt>
      <trkpt lat="42.3649940" lon="-8.6166480">
        <ele>96.0</ele>
        <time>2021-05-21T09:45:05Z</time>
      </trkpt>
      <trkpt lat="42.3649990" lon="-8.6166510">
        <ele>96.1</ele>
        <time>2021-05-21T09:45:06Z</time>
      </trkpt>
      <trkpt lat="42.3650230" lon="-8.6166690">
        <ele>96.3</ele>
        <time>2021-05-21T09:45:07Z</time>
      </trkpt>
      <trkpt lat="42.3650330" lon="-8.6166770">
        <ele>96.4</ele>
        <time>2021-05-21T09:45:08Z</time>
      </trkpt>
      <trkpt lat="42.3650410" lon="-8.6166910">
        <ele>96.6</ele>
        <time>2021-05-21T09:45:09Z</time>
      </trkpt>
      <trkpt lat="42.3650510" lon="-8.6167020">
        <ele>96.7</ele>
        <time>2021-05-21T09:45:10Z</time>
      </trkpt>
      <trkpt lat="42.3650560" lon="-8.6167060">
        <ele>96.8</ele>
        <time>2021-05-21T09:45:11Z</time>
      </trkpt>
      <trkpt lat="42.3650640" lon="-8.6167150">
        <ele>96.9</ele>
        <time>2021-05-21T09:45:12Z</time>
      </trkpt>
      <trkpt lat="42.3650740" lon="-8.6167260">
        <ele>97.1</ele>
        <time>2021-05-21T09:45:13Z</time>
      </trkpt>
      <trkpt lat="42.3650810" lon="-8.6167340">
        <ele>97.2</ele>
        <time>2021-05-21T09:45:14Z</time>
      </trkpt>
      <trkpt lat="42.3650980" lon="-8.6167530">
        <ele>97.5</ele>
        <time>2021-05-21T09:45:15Z</time>
      </trkpt>
      <trkpt lat="42.3651050" lon="-8.6167610">
        <ele>97.6</ele>
        <time>2021-05-21T09:45:16Z</time>
      </trkpt>
      <trkpt lat="42.3651110" lon="-8.6167690">
        <ele>97.7</ele>
        <time>2021-05-21T09:45:17Z</time>
      </trkpt>
      <trkpt lat="42.3651150" lon="-8.6167780">
        <ele>97.8</ele>
        <time>2021-05-21T09:45:18Z</time>
      </trkpt>
      <trkpt lat="42.3651230" lon="-8.6167740">
        <ele>97.9</ele>
        <time>2021-05-21T09:45:19Z</time>
      </trkpt>
      <trkpt lat="42.3651290" lon="-8.6167820">
        <ele>98.0</ele>
        <time>2021-05-21T09:45:20Z</time>
      </trkpt>
      <trkpt lat="42.3651380" lon="-8.6167930">
        <ele>98.2</ele>
        <time>2021-05-21T09:45:21Z</time>
      </trkpt>
      <trkpt lat="42.3651410" lon="-8.6167900">
        <ele>98.2</ele>
        <time>2021-05-21T09:45:22Z</time>
      </trkpt>
      <trkpt lat="42.3651440" lon="-8.6167900">
        <ele>98.3</ele>
        <time>2021-05-21T09:45:23Z</time>
      </trkpt>
      <trkpt lat="42.3651670" lon="-8.6168040">
        <ele>98.7</ele>
        <time>2021-05-21T09:45:24Z</time>
      </trkpt>
      <trkpt lat="42.3651770" lon="-8.6168100">
        <ele>98.8</ele>
        <time>2021-05-21T09:45:25Z</time>
      </trkpt>
      <trkpt lat="42.3651880" lon="-8.6168160">
        <ele>99.0</ele>
        <time>2021-05-21T09:45:26Z</time>
      </trkpt>
      <trkpt lat="42.3651910" lon="-8.6168190">
        <ele>99.1</ele>
        <time>2021-05-21T09:45:27Z</time>
      </trkpt>
      <trkpt lat="42.3651940" lon="-8.6168260">
        <ele>99.2</ele>
        <time>2021-05-21T09:45:28Z</time>
      </trkpt>
      <trkpt lat="42.3652100" lon="-8.6168300">
        <ele>99.4</ele>
        <time>2021-05-21T09:45:29Z</time>
      </trkpt>
      <trkpt lat="42.3652210" lon="-8.6168400">
        <ele>99.6</ele>
        <time>2021-05-21T09:45:30Z</time>
      </trkpt>
      <trkpt lat="42.3652300" lon="-8.6168450">
        <ele>99.8</ele>
        <time>2021-05-21T09:45:31Z</time>
      </trkpt>
      <trkpt lat="42.3652410" lon="-8.6168490">
        <ele>100.0</ele>
        <time>2021-05-21T09:45:32Z</time>
      </trkpt>
      <trkpt lat="42.3652480" lon="-8.6168530">
        <ele>100.1</ele>
        <time>2021-05-21T09:45:33Z</time>
      </trkpt>
      <trkpt lat="42.3652590" lon="-8.6168600">
        <ele>100.3</ele>
        <time>2021-05-21T09:45:34Z</time>
      </trkpt>
      <trkpt lat="42.3652570" lon="-8.6168680">
        <ele>100.4</ele>
        <time>2021-05-21T09:45:35Z</time>
      </trkpt>
      <trkpt lat="42.3652630" lon="-8.6168700">
        <ele>100.5</ele>
        <time>2021-05-21T09:45:36Z</time>
      </trkpt>
      <trkpt lat="42.3652720" lon="-8.6168860">
        <ele>100.8</ele>
        <time>2021-05-21T09:45:37Z</time>
      </trkpt>
      <trkpt lat="42.3652770" lon="-8.6168890">
        <ele>100.9</ele>
        <time>2021-05-21T09:45:38Z</time>
      </trkpt>
      <trkpt lat="42.3652810" lon="-8.6168970">
        <ele>101.0</ele>
        <time>2021-05-21T09:45:39Z</time>
      </trkpt>
      <trkpt lat="42.3652840" lon="-8.6169000">
        <ele>101.1</ele>
        <time>2021-05-21T09:45:40Z</time>
      </trkpt>
      <trkpt lat="42.3652860" lon="-8.6169130">
        <ele>101.3</ele>
        <time>2021-05-21T09:45:41Z</time>
      </trkpt>
      <trkpt lat="42.3652910" lon="-8.6169260">
        <ele>101.5</ele>
        <time>2021-05-21T09:45:42Z</time>
      </trkpt>
      <trkpt lat="42.3652950" lon="-8.6169490">
        <ele>101.8</ele>
        <time>2021-05-21T09:45:43Z</time>
      </trkpt>
      <trkpt lat="42.3652980" lon="-8.6169680">
        <ele>102.1</ele>
        <time>2021-05-21T09:45:44Z</time>
      </trkpt>
      <trkpt lat="42.3652970" lon="-8.6169690">
        <ele>102.1</ele>
        <time>2021-05-21T09:45:45Z</time>
      </trkpt>
      <trkpt lat="42.3652940" lon="-8.6169710">
        <ele>102.2</ele>
        <time>2021-05-21T09:45:46Z</time>
      </trkpt>
      <trkpt lat="42.3652900" lon="-8.6169940">
        <ele>102.5</ele>
        <time>2021-05-21T09:45:47Z</time>
      </trkpt>
      <trkpt lat="42.3652870" lon="-8.6170080">
        <ele>102.7</ele>
        <time>2021-05-21T09:45:48Z</time>
      </trkpt>
      <trkpt lat="42.3652840" lon="-8.6170170">
        <ele>102.9</ele>
        <time>2021-05-21T09:45:49Z</time>
      </trkpt>
      <trkpt lat="42.3652860" lon="-8.6170280">
        <ele>103.0</ele>
        <time>2021-05-21T09:45:50Z</time>
      </trkpt>
      <trkpt lat="42.3652780" lon="-8.6170260">
        <ele>103.2</ele>
        <time>2021-05-21T09:45:51Z</time>
      </trkpt>
      <trkpt lat="42.3652770" lon="-8.6170220">
        <ele>103.2</ele>
        <time>2021-05-21T09:45:52Z</time>
      </trkpt>
      <trkpt lat="42.3652700" lon="-8.6170220">
        <ele>103.4</ele>
        <time>2021-05-21T09:45:53Z</time>
      </trkpt>
      <trkpt lat="42.3652630" lon="-8.6170190">
        <ele>103.5</ele>
        <time>2021-05-21T09:45:54Z</time>
      </trkpt>
      <trkpt lat="42.3652560" lon="-8.6170190">
        <ele>103.7</ele>
        <time>2021-05-21T09:45:55Z</time>
      </trkpt>
      <trkpt lat="42.3652610" lon="-8.6170190">
        <ele>103.8</ele>
        <time>2021-05-21T09:45:56Z</time>
      </trkpt>
      <trkpt lat="42.3652520" lon="-8.6170300">
        <ele>104.0</ele>
        <time>2021-05-21T09:45:57Z</time>
      </trkpt>
      <trkpt lat="42.3652430" lon="-8.6170350">
        <ele>104.2</ele>
        <time>2021-05-21T09:45:58Z</time>
      </trkpt>
      <trkpt lat="42.3652360" lon="-8.6170360">
        <ele>104.3</ele>
        <time>2021-05-21T09:45:59Z</time>
      </trkpt>
      <trkpt lat="42.3652270" lon="-8.6170420">
        <ele>104.5</ele>
        <time>2021-05-21T09:46:00Z</time>
      </trkpt>
      <trkpt lat="42.3652140" lon="-8.6170490">
        <ele>104.8</ele>
        <time>2021-05-21T09:46:01Z</time>
      </trkpt>
      <trkpt lat="42.3652070" lon="-8.6170470">
        <ele>104.9</ele>
        <time>2021-05-21T09:46:02Z</time>
      </trkpt>
      <trkpt lat="42.3652060" lon="-8.6170510">
        <ele>105.0</ele>
        <time>2021-05-21T09:46:03Z</time>
      </trkpt>
      <trkpt lat="42.3651950" lon="-8.6170610">
        <ele>105.3</ele>
        <time>2021-05-21T09:46:04Z</time>
      </trkpt>
      <trkpt lat="42.3651920" lon="-8.6170690">
        <ele>105.4</ele>
        <time>2021-05-21T09:46:05Z</time>
      </trkpt>
      <trkpt lat="42.3651870" lon="-8.6170760">
        <ele>105.5</ele>
        <time>2021-05-21T09:46:06Z</time>
      </trkpt>
      <trkpt lat="42.3651790" lon="-8.6170840">
        <ele>105.7</ele>
        <time>2021-05-21T09:46:07Z</time>
      </trkpt>
      <trkpt lat="42.3651750" lon="-8.6170980">
        <ele>105.9</ele>
        <time>2021-05-21T09:46:08Z</time>
      </trkpt>
      <trkpt lat="42.3651770" lon="-8.6171060">
        <ele>106.1</ele>
        <time>2021-05-21T09:46:09Z</time>
      </trkpt>
      <trkpt lat="42.3651750" lon="-8.6171110">
        <ele>106.1</ele>
        <time>2021-05-21T09:46:10Z</time>
      </trkpt>
      <trkpt lat="42.3651720" lon="-8.6171260">
        <ele>106.4</ele>
        <time>2021-05-21T09:46:11Z</time>
      </trkpt>
      <trkpt lat="42.3651710" lon="-8.6171450">
        <ele>106.6</ele>
        <time>2021-05-21T09:46:12Z</time>
      </trkpt>
      <trkpt lat="42.3651700" lon="-8.6171620">
        <ele>106.9</ele>
        <time>2021-05-21T09:46:13Z</time>
      </trkpt>
      <trkpt lat="42.3651700" lon="-8.6171720">
        <ele>107.0</ele>
        <time>2021-05-21T09:46:14Z</time>
      </trkpt>
      <trkpt lat="42.3651660" lon="-8.6171940">
        <ele>107.3</ele>
        <time>2021-05-21T09:46:16Z</time>
      </trkpt>
      <trkpt lat="42.3651570" lon="-8.6172110">
        <ele>107.6</ele>
        <time>2021-05-21T09:46:17Z</time>
      </trkpt>
      <trkpt lat="42.3651550" lon="-8.6172280">
        <ele>107.8</ele>
        <time>2021-05-21T09:46:18Z</time>
      </trkpt>
      <trkpt lat="42.3651540" lon="-8.6172420">
        <ele>108.0</ele>
        <time>2021-05-21T09:46:19Z</time>
      </trkpt>
      <trkpt lat="42.3651450" lon="-8.6172650">
        <ele>108.3</ele>
        <time>2021-05-21T09:46:20Z</time>
      </trkpt>
      <trkpt lat="42.3651470" lon="-8.6172770">
        <ele>108.5</ele>
        <time>2021-05-21T09:46:21Z</time>
      </trkpt>
      <trkpt lat="42.3651460" lon="-8.6172920">
        <ele>108.7</ele>
        <time>2021-05-21T09:46:22Z</time>
      </trkpt>
      <trkpt lat="42.3651440" lon="-8.6173080">
        <ele>108.9</ele>
        <time>2021-05-21T09:46:23Z</time>
      </trkpt>
      <trkpt lat="42.3651380" lon="-8.6173410">
        <ele>109.3</ele>
        <time>2021-05-21T09:46:24Z</time>
      </trkpt>
      <trkpt lat="42.3651360" lon="-8.6173510">
        <ele>109.4</ele>
        <time>2021-05-21T09:46:25Z</time>
      </trkpt>
      <trkpt lat="42.3651350" lon="-8.6173620">
        <ele>109.5</ele>
        <time>2021-05-21T09:46:26Z</time>
      </trkpt>
      <trkpt lat="42.3651360" lon="-8.6173710">
        <ele>109.6</ele>
        <time>2021-05-21T09:46:27Z</time>
      </trkpt>
      <trkpt lat="42.3651320" lon="-8.6173820">
        <ele>109.7</ele>
        <time>2021-05-21T09:46:28Z</time>
      </trkpt>
      <trkpt lat="42.3651210" lon="-8.6173960">
        <ele>109.9</ele>
        <time>2021-05-21T09:46:29Z</time>
      </trkpt>
      <trkpt lat="42.3651040" lon="-8.6174130">
        <ele>110.2</ele>
        <time>2021-05-21T09:46:30Z</time>
      </trkpt>
      <trkpt lat="42.3650980" lon="-8.6174220">
        <ele>110.3</ele>
        <time>2021-05-21T09:46:31Z</time>
      </trkpt>
      <trkpt lat="42.3650930" lon="-8.6174300">
        <ele>110.4</ele>
        <time>2021-05-21T09:46:32Z</time>
      </trkpt>
      <trkpt lat="42.3650800" lon="-8.6174340">
        <ele>110.6</ele>
        <time>2021-05-21T09:46:33Z</time>
      </trkpt>
      <trkpt lat="42.3650690" lon="-8.6174370">
        <ele>110.7</ele>
        <time>2021-05-21T09:46:34Z</time>
      </trkpt>
      <trkpt lat="42.3650630" lon="-8.6174450">
        <ele>110.8</ele>
        <time>2021-05-21T09:46:35Z</time>
      </trkpt>
      <trkpt lat="42.3650570" lon="-8.6174520">
        <ele>110.9</ele>
        <time>2021-05-21T09:46:36Z</time>
      </trkpt>
      <trkpt lat="42.3650440" lon="-8.6174670">
        <ele>111.1</ele>
        <time>2021-05-21T09:46:37Z</time>
      </trkpt>
      <trkpt lat="42.3650400" lon="-8.6174780">
        <ele>111.2</ele>
        <time>2021-05-21T09:46:38Z</time>
      </trkpt>
      <trkpt lat="42.3650230" lon="-8.6174850">
        <ele>111.4</ele>
        <time>2021-05-21T09:46:39Z</time>
      </trkpt>
      <trkpt lat="42.3650120" lon="-8.6174920">
        <ele>111.5</ele>
        <time>2021-05-21T09:46:40Z</time>
      </trkpt>
      <trkpt lat="42.3650150" lon="-8.6174920">
        <ele>111.5</ele>
        <time>2021-05-21T09:46:41Z</time>
      </trkpt>
      <trkpt lat="42.3650040" lon="-8.6175010">
        <ele>111.6</ele>
        <time>2021-05-21T09:46:42Z</time>
      </trkpt>
      <trkpt lat="42.3649890" lon="-8.6175070">
        <ele>111.7</ele>
        <time>2021-05-21T09:46:43Z</time>
      </trkpt>
      <trkpt lat="42.3649820" lon="-8.6175090">
        <ele>111.8</ele>
        <time>2021-05-21T09:46:44Z</time>
      </trkpt>
      <trkpt lat="42.3649760" lon="-8.6175150">
        <ele>111.9</ele>
        <time>2021-05-21T09:46:45Z</time>
      </trkpt>
      <trkpt lat="42.3649800" lon="-8.6175240">
        <ele>111.9</ele>
        <time>2021-05-21T09:46:46Z</time>
      </trkpt>
      <trkpt lat="42.3649770" lon="-8.6175230">
        <ele>111.9</ele>
        <time>2021-05-21T09:46:47Z</time>
      </trkpt>
      <trkpt lat="42.3649780" lon="-8.6175220">
        <ele>111.9</ele>
        <time>2021-05-21T09:46:48Z</time>
      </trkpt>
      <trkpt lat="42.3649760" lon="-8.6175310">
        <ele>112.0</ele>
        <time>2021-05-21T09:46:49Z</time>
      </trkpt>
      <trkpt lat="42.3649600" lon="-8.6175370">
        <ele>112.1</ele>
        <time>2021-05-21T09:46:50Z</time>
      </trkpt>
      <trkpt lat="42.3649560" lon="-8.6175360">
        <ele>112.1</ele>
        <time>2021-05-21T09:46:51Z</time>
      </trkpt>
      <trkpt lat="42.3649480" lon="-8.6175410">
        <ele>112.2</ele>
        <time>2021-05-21T09:46:52Z</time>
      </trkpt>
      <trkpt lat="42.3649350" lon="-8.6175580">
        <ele>112.3</ele>
        <time>2021-05-21T09:46:53Z</time>
      </trkpt>
      <trkpt lat="42.3649210" lon="-8.6175680">
        <ele>112.4</ele>
        <time>2021-05-21T09:46:54Z</time>
      </trkpt>
      <trkpt lat="42.3649160" lon="-8.6175780">
        <ele>112.4</ele>
        <time>2021-05-21T09:46:55Z</time>
      </trkpt>
      <trkpt lat="42.3649100" lon="-8.6175870">
        <ele>112.5</ele>
        <time>2021-05-21T09:46:56Z</time>
      </trkpt>
      <trkpt lat="42.3649040" lon="-8.6175960">
        <ele>112.5</ele>
        <time>2021-05-21T09:46:57Z</time>
      </trkpt>
      <trkpt lat="42.3648940" lon="-8.6176060">
        <ele>112.6</ele>
        <time>2021-05-21T09:46:58Z</time>
      </trkpt>
      <trkpt lat="42.3648850" lon="-8.6176290">
        <ele>112.7</ele>
        <time>2021-05-21T09:46:59Z</time>
      </trkpt>
      <trkpt lat="42.3648670" lon="-8.6176520">
        <ele>112.8</ele>
        <time>2021-05-21T09:47:00Z</time>
      </trkpt>
      <trkpt lat="42.3648620" lon="-8.6176610">
        <ele>112.8</ele>
        <time>2021-05-21T09:47:01Z</time>
      </trkpt>
      <trkpt lat="42.3648560" lon="-8.6176700">
        <ele>112.9</ele>
        <time>2021-05-21T09:47:02Z</time>
      </trkpt>
      <trkpt lat="42.3648450" lon="-8.6176770">
        <ele>112.9</ele>
        <time>2021-05-21T09:47:03Z</time>
      </trkpt>
      <trkpt lat="42.3648310" lon="-8.6176800">
        <ele>113.0</ele>
        <time>2021-05-21T09:47:04Z</time>
      </trkpt>
      <trkpt lat="42.3648300" lon="-8.6176930">
        <ele>113.1</ele>
        <time>2021-05-21T09:47:05Z</time>
      </trkpt>
      <trkpt lat="42.3648220" lon="-8.6176980">
        <ele>113.1</ele>
        <time>2021-05-21T09:47:06Z</time>
      </trkpt>
      <trkpt lat="42.3648100" lon="-8.6177050">
        <ele>113.1</ele>
        <time>2021-05-21T09:47:07Z</time>
      </trkpt>
      <trkpt lat="42.3648020" lon="-8.6177170">
        <ele>113.2</ele>
        <time>2021-05-21T09:47:08Z</time>
      </trkpt>
      <trkpt lat="42.3647840" lon="-8.6177430">
        <ele>113.3</ele>
        <time>2021-05-21T09:47:09Z</time>
      </trkpt>
      <trkpt lat="42.3647760" lon="-8.6177510">
        <ele>113.3</ele>
        <time>2021-05-21T09:47:10Z</time>
      </trkpt>
      <trkpt lat="42.3647640" lon="-8.6177630">
        <ele>113.4</ele>
        <time>2021-05-21T09:47:11Z</time>
      </trkpt>
      <trkpt lat="42.3647590" lon="-8.6177620">
        <ele>113.4</ele>
        <time>2021-05-21T09:47:12Z</time>
      </trkpt>
      <trkpt lat="42.3647520" lon="-8.6177710">
        <ele>113.5</ele>
        <time>2021-05-21T09:47:13Z</time>
      </trkpt>
      <trkpt lat="42.3647430" lon="-8.6177780">
        <ele>113.5</ele>
        <time>2021-05-21T09:47:14Z</time>
      </trkpt>
      <trkpt lat="42.3647260" lon="-8.6177950">
        <ele>113.6</ele>
        <time>2021-05-21T09:47:15Z</time>
      </trkpt>
      <trkpt lat="42.3647120" lon="-8.6178090">
        <ele>113.7</ele>
        <time>2021-05-21T09:47:16Z</time>
      </trkpt>
      <trkpt lat="42.3647030" lon="-8.6178200">
        <ele>113.7</ele>
        <time>2021-05-21T09:47:17Z</time>
      </trkpt>
      <trkpt lat="42.3646940" lon="-8.6178320">
        <ele>113.8</ele>
        <time>2021-05-21T09:47:18Z</time>
      </trkpt>
      <trkpt lat="42.3646780" lon="-8.6178320">
        <ele>113.8</ele>
        <time>2021-05-21T09:47:19Z</time>
      </trkpt>
      <trkpt lat="42.3646700" lon="-8.6178340">
        <ele>113.9</ele>
        <time>2021-05-21T09:47:20Z</time>
      </trkpt>
      <trkpt lat="42.3646620" lon="-8.6178370">
        <ele>113.9</ele>
        <time>2021-05-21T09:47:21Z</time>
      </trkpt>
      <trkpt lat="42.3646540" lon="-8.6178390">
        <ele>113.9</ele>
        <time>2021-05-21T09:47:22Z</time>
      </trkpt>
      <trkpt lat="42.3646420" lon="-8.6178410">
        <ele>114.0</ele>
        <time>2021-05-21T09:47:23Z</time>
      </trkpt>
      <trkpt lat="42.3646320" lon="-8.6178540">
        <ele>114.0</ele>
        <time>2021-05-21T09:47:24Z</time>
      </trkpt>
      <trkpt lat="42.3646240" lon="-8.6178540">
        <ele>114.1</ele>
        <time>2021-05-21T09:47:25Z</time>
      </trkpt>
      <trkpt lat="42.3646140" lon="-8.6178530">
        <ele>114.1</ele>
        <time>2021-05-21T09:47:26Z</time>
      </trkpt>
      <trkpt lat="42.3646000" lon="-8.6178630">
        <ele>114.2</ele>
        <time>2021-05-21T09:47:27Z</time>
      </trkpt>
      <trkpt lat="42.3645930" lon="-8.6178660">
        <ele>114.2</ele>
        <time>2021-05-21T09:47:28Z</time>
      </trkpt>
      <trkpt lat="42.3645820" lon="-8.6178680">
        <ele>114.3</ele>
        <time>2021-05-21T09:47:29Z</time>
      </trkpt>
      <trkpt lat="42.3645710" lon="-8.6178690">
        <ele>114.3</ele>
        <time>2021-05-21T09:47:30Z</time>
      </trkpt>
      <trkpt lat="42.3645610" lon="-8.6178670">
        <ele>114.3</ele>
        <time>2021-05-21T09:47:31Z</time>
      </trkpt>
      <trkpt lat="42.3645520" lon="-8.6178660">
        <ele>114.4</ele>
        <time>2021-05-21T09:47:32Z</time>
      </trkpt>
      <trkpt lat="42.3645400" lon="-8.6178660">
        <ele>114.4</ele>
        <time>2021-05-21T09:47:34Z</time>
      </trkpt>
      <trkpt lat="42.3645270" lon="-8.6178570">
        <ele>114.5</ele>
        <time>2021-05-21T09:47:35Z</time>
      </trkpt>
      <trkpt lat="42.3644950" lon="-8.6178510">
        <ele>114.6</ele>
        <time>2021-05-21T09:47:36Z</time>
      </trkpt>
      <trkpt lat="42.3644880" lon="-8.6178510">
        <ele>114.7</ele>
        <time>2021-05-21T09:47:37Z</time>
      </trkpt>
      <trkpt lat="42.3644780" lon="-8.6178380">
        <ele>114.7</ele>
        <time>2021-05-21T09:47:38Z</time>
      </trkpt>
      <trkpt lat="42.3644570" lon="-8.6178420">
        <ele>114.8</ele>
        <time>2021-05-21T09:47:39Z</time>
      </trkpt>
      <trkpt lat="42.3644390" lon="-8.6178390">
        <ele>114.9</ele>
        <time>2021-05-21T09:47:40Z</time>
      </trkpt>
      <trkpt lat="42.3644230" lon="-8.6178320">
        <ele>114.9</ele>
        <time>2021-05-21T09:47:41Z</time>
      </trkpt>
      <trkpt lat="42.3644050" lon="-8.6178330">
        <ele>115.0</ele>
        <time>2021-05-21T09:47:42Z</time>
      </trkpt>
      <trkpt lat="42.3643940" lon="-8.6178390">
        <ele>115.1</ele>
        <time>2021-05-21T09:47:43Z</time>
      </trkpt>
      <trkpt lat="42.3643730" lon="-8.6178430">
        <ele>115.2</ele>
        <time>2021-05-21T09:47:44Z</time>
      </trkpt>
      <trkpt lat="42.3643640" lon="-8.6178420">
        <ele>115.2</ele>
        <time>2021-05-21T09:47:45Z</time>
      </trkpt>
      <trkpt lat="42.3643560" lon="-8.6178410">
        <ele>115.2</ele>
        <time>2021-05-21T09:47:46Z</time>
      </trkpt>
      <trkpt lat="42.3643380" lon="-8.6178390">
        <ele>115.3</ele>
        <time>2021-05-21T09:47:47Z</time>
      </trkpt>
      <trkpt lat="42.3643280" lon="-8.6178380">
        <ele>115.3</ele>
        <time>2021-05-21T09:47:48Z</time>
      </trkpt>
      <trkpt lat="42.3643060" lon="-8.6178430">
        <ele>115.4</ele>
        <time>2021-05-21T09:47:49Z</time>
      </trkpt>
      <trkpt lat="42.3642980" lon="-8.6178490">
        <ele>115.5</ele>
        <time>2021-05-21T09:47:50Z</time>
      </trkpt>
      <trkpt lat="42.3642770" lon="-8.6178640">
        <ele>115.6</ele>
        <time>2021-05-21T09:47:51Z</time>
      </trkpt>
      <trkpt lat="42.3642640" lon="-8.6178700">
        <ele>116.0</ele>
        <time>2021-05-21T09:47:52Z</time>
      </trkpt>
      <trkpt lat="42.3642560" lon="-8.6178740">
        <ele>116.1</ele>
        <time>2021-05-21T09:47:53Z</time>
      </trkpt>
      <trkpt lat="42.3642530" lon="-8.6178930">
        <ele>116.2</ele>
        <time>2021-05-21T09:47:54Z</time>
      </trkpt>
      <trkpt lat="42.3642640" lon="-8.6179190">
        <ele>116.4</ele>
        <time>2021-05-21T09:47:55Z</time>
      </trkpt>
      <trkpt lat="42.3642740" lon="-8.6179300">
        <ele>116.5</ele>
        <time>2021-05-21T09:47:56Z</time>
      </trkpt>
      <trkpt lat="42.3642820" lon="-8.6179420">
        <ele>116.6</ele>
        <time>2021-05-21T09:47:57Z</time>
      </trkpt>
      <trkpt lat="42.3642880" lon="-8.6179500">
        <ele>116.7</ele>
        <time>2021-05-21T09:47:58Z</time>
      </trkpt>
      <trkpt lat="42.3642920" lon="-8.6179670">
        <ele>116.8</ele>
        <time>2021-05-21T09:47:59Z</time>
      </trkpt>
      <trkpt lat="42.3642980" lon="-8.6179860">
        <ele>117.0</ele>
        <time>2021-05-21T09:48:00Z</time>
      </trkpt>
      <trkpt lat="42.3642970" lon="-8.6179940">
        <ele>117.0</ele>
        <time>2021-05-21T09:48:01Z</time>
      </trkpt>
      <trkpt lat="42.3643000" lon="-8.6180110">
        <ele>117.1</ele>
        <time>2021-05-21T09:48:02Z</time>
      </trkpt>
      <trkpt lat="42.3643170" lon="-8.6180210">
        <ele>117.3</ele>
        <time>2021-05-21T09:48:03Z</time>
      </trkpt>
      <trkpt lat="42.3643350" lon="-8.6180450">
        <ele>117.6</ele>
        <time>2021-05-21T09:48:04Z</time>
      </trkpt>
      <trkpt lat="42.3643340" lon="-8.6180550">
        <ele>117.7</ele>
        <time>2021-05-21T09:48:05Z</time>
      </trkpt>
      <trkpt lat="42.3643330" lon="-8.6180650">
        <ele>117.8</ele>
        <time>2021-05-21T09:48:06Z</time>
      </trkpt>
      <trkpt lat="42.3643370" lon="-8.6180810">
        <ele>117.9</ele>
        <time>2021-05-21T09:48:07Z</time>
      </trkpt>
      <trkpt lat="42.3643370" lon="-8.6181030">
        <ele>118.1</ele>
        <time>2021-05-21T09:48:08Z</time>
      </trkpt>
      <trkpt lat="42.3643460" lon="-8.6181250">
        <ele>118.4</ele>
        <time>2021-05-21T09:48:09Z</time>
      </trkpt>
      <trkpt lat="42.3643510" lon="-8.6181350">
        <ele>118.5</ele>
        <time>2021-05-21T09:48:10Z</time>
      </trkpt>
      <trkpt lat="42.3643570" lon="-8.6181450">
        <ele>118.6</ele>
        <time>2021-05-21T09:48:11Z</time>
      </trkpt>
      <trkpt lat="42.3643620" lon="-8.6181540">
        <ele>118.7</ele>
        <time>2021-05-21T09:48:12Z</time>
      </trkpt>
      <trkpt lat="42.3643790" lon="-8.6181650">
        <ele>118.9</ele>
        <time>2021-05-21T09:48:13Z</time>
      </trkpt>
      <trkpt lat="42.3643840" lon="-8.6181780">
        <ele>119.1</ele>
        <time>2021-05-21T09:48:14Z</time>
      </trkpt>
      <trkpt lat="42.3643930" lon="-8.6181860">
        <ele>119.2</ele>
        <time>2021-05-21T09:48:15Z</time>
      </trkpt>
      <trkpt lat="42.3643960" lon="-8.6181980">
        <ele>119.4</ele>
        <time>2021-05-21T09:48:16Z</time>
      </trkpt>
      <trkpt lat="42.3644040" lon="-8.6182090">
        <ele>119.5</ele>
        <time>2021-05-21T09:48:17Z</time>
      </trkpt>
      <trkpt lat="42.3644080" lon="-8.6182330">
        <ele>119.8</ele>
        <time>2021-05-21T09:48:18Z</time>
      </trkpt>
      <trkpt lat="42.3644160" lon="-8.6182430">
        <ele>119.9</ele>
        <time>2021-05-21T09:48:19Z</time>
      </trkpt>
      <trkpt lat="42.3644230" lon="-8.6182440">
        <ele>120.0</ele>
        <time>2021-05-21T09:48:20Z</time>
      </trkpt>
      <trkpt lat="42.3644290" lon="-8.6182470">
        <ele>120.1</ele>
        <time>2021-05-21T09:48:21Z</time>
      </trkpt>
      <trkpt lat="42.3644360" lon="-8.6182500">
        <ele>120.2</ele>
        <time>2021-05-21T09:48:22Z</time>
      </trkpt>
      <trkpt lat="42.3644420" lon="-8.6182540">
        <ele>120.3</ele>
        <time>2021-05-21T09:48:23Z</time>
      </trkpt>
      <trkpt lat="42.3644490" lon="-8.6182570">
        <ele>120.4</ele>
        <time>2021-05-21T09:48:24Z</time>
      </trkpt>
      <trkpt lat="42.3644550" lon="-8.6182600">
        <ele>120.5</ele>
        <time>2021-05-21T09:48:25Z</time>
      </trkpt>
      <trkpt lat="42.3644740" lon="-8.6182750">
        <ele>120.5</ele>
        <time>2021-05-21T09:48:26Z</time>
      </trkpt>
      <trkpt lat="42.3644840" lon="-8.6182830">
        <ele>120.7</ele>
        <time>2021-05-21T09:48:27Z</time>
      </trkpt>
      <trkpt lat="42.3644980" lon="-8.6182830">
        <ele>120.9</ele>
        <time>2021-05-21T09:48:28Z</time>
      </trkpt>
      <trkpt lat="42.3645130" lon="-8.6182750">
        <ele>121.1</ele>
        <time>2021-05-21T09:48:29Z</time>
      </trkpt>
      <trkpt lat="42.3645230" lon="-8.6182820">
        <ele>121.2</ele>
        <time>2021-05-21T09:48:30Z</time>
      </trkpt>
      <trkpt lat="42.3645340" lon="-8.6182890">
        <ele>121.3</ele>
        <time>2021-05-21T09:48:31Z</time>
      </trkpt>
      <trkpt lat="42.3645420" lon="-8.6182900">
        <ele>121.4</ele>
        <time>2021-05-21T09:48:32Z</time>
      </trkpt>
      <trkpt lat="42.3645480" lon="-8.6183030">
        <ele>121.6</ele>
        <time>2021-05-21T09:48:33Z</time>
      </trkpt>
      <trkpt lat="42.3645590" lon="-8.6183010">
        <ele>121.7</ele>
        <time>2021-05-21T09:48:34Z</time>
      </trkpt>
      <trkpt lat="42.3645730" lon="-8.6182990">
        <ele>121.9</ele>
        <time>2021-05-21T09:48:35Z</time>
      </trkpt>
      <trkpt lat="42.3645830" lon="-8.6182930">
        <ele>122.0</ele>
        <time>2021-05-21T09:48:36Z</time>
      </trkpt>
      <trkpt lat="42.3645950" lon="-8.6182870">
        <ele>122.1</ele>
        <time>2021-05-21T09:48:37Z</time>
      </trkpt>
      <trkpt lat="42.3646020" lon="-8.6182880">
        <ele>122.2</ele>
        <time>2021-05-21T09:48:38Z</time>
      </trkpt>
      <trkpt lat="42.3646190" lon="-8.6182840">
        <ele>122.3</ele>
        <time>2021-05-21T09:48:39Z</time>
      </trkpt>
      <trkpt lat="42.3646290" lon="-8.6182820">
        <ele>122.4</ele>
        <time>2021-05-21T09:48:40Z</time>
      </trkpt>
      <trkpt lat="42.3646380" lon="-8.6182790">
        <ele>122.5</ele>
        <time>2021-05-21T09:48:41Z</time>
      </trkpt>
      <trkpt lat="42.3646510" lon="-8.6182720">
        <ele>122.6</ele>
        <time>2021-05-21T09:48:42Z</time>
      </trkpt>
      <trkpt lat="42.3646670" lon="-8.6182700">
        <ele>122.7</ele>
        <time>2021-05-21T09:48:43Z</time>
      </trkpt>
      <trkpt lat="42.3646820" lon="-8.6182710">
        <ele>122.8</ele>
        <time>2021-05-21T09:48:44Z</time>
      </trkpt>
      <trkpt lat="42.3646950" lon="-8.6182710">
        <ele>122.9</ele>
        <time>2021-05-21T09:48:45Z</time>
      </trkpt>
      <trkpt lat="42.3647030" lon="-8.6182690">
        <ele>123.0</ele>
        <time>2021-05-21T09:48:46Z</time>
      </trkpt>
      <trkpt lat="42.3647230" lon="-8.6182670">
        <ele>123.1</ele>
        <time>2021-05-21T09:48:47Z</time>
      </trkpt>
      <trkpt lat="42.3647430" lon="-8.6182680">
        <ele>123.2</ele>
        <time>2021-05-21T09:48:48Z</time>
      </trkpt>
      <trkpt lat="42.3647530" lon="-8.6182710">
        <ele>123.3</ele>
        <time>2021-05-21T09:48:49Z</time>
      </trkpt>
      <trkpt lat="42.3647640" lon="-8.6182800">
        <ele>123.4</ele>
        <time>2021-05-21T09:48:50Z</time>
      </trkpt>
      <trkpt lat="42.3647750" lon="-8.6182790">
        <ele>123.4</ele>
        <time>2021-05-21T09:48:51Z</time>
      </trkpt>
      <trkpt lat="42.3647830" lon="-8.6182770">
        <ele>123.5</ele>
        <time>2021-05-21T09:48:52Z</time>
      </trkpt>
      <trkpt lat="42.3647990" lon="-8.6182800">
        <ele>123.6</ele>
        <time>2021-05-21T09:48:53Z</time>
      </trkpt>
      <trkpt lat="42.3648160" lon="-8.6182860">
        <ele>123.7</ele>
        <time>2021-05-21T09:48:54Z</time>
      </trkpt>
      <trkpt lat="42.3648380" lon="-8.6182810">
        <ele>123.8</ele>
        <time>2021-05-21T09:48:55Z</time>
      </trkpt>
      <trkpt lat="42.3648490" lon="-8.6182780">
        <ele>123.9</ele>
        <time>2021-05-21T09:48:56Z</time>
      </trkpt>
      <trkpt lat="42.3648590" lon="-8.6182750">
        <ele>124.0</ele>
        <time>2021-05-21T09:48:57Z</time>
      </trkpt>
      <trkpt lat="42.3648680" lon="-8.6182680">
        <ele>124.0</ele>
        <time>2021-05-21T09:48:58Z</time>
      </trkpt>
      <trkpt lat="42.3648860" lon="-8.6182640">
        <ele>124.1</ele>
        <time>2021-05-21T09:48:59Z</time>
      </trkpt>
      <trkpt lat="42.3648890" lon="-8.6182650">
        <ele>124.1</ele>
        <time>2021-05-21T09:49:00Z</time>
      </trkpt>
      <trkpt lat="42.3649080" lon="-8.6182710">
        <ele>124.2</ele>
        <time>2021-05-21T09:49:01Z</time>
      </trkpt>
      <trkpt lat="42.3649190" lon="-8.6182780">
        <ele>124.3</ele>
        <time>2021-05-21T09:49:02Z</time>
      </trkpt>
      <trkpt lat="42.3649280" lon="-8.6182810">
        <ele>124.4</ele>
        <time>2021-05-21T09:49:03Z</time>
      </trkpt>
      <trkpt lat="42.3649380" lon="-8.6182900">
        <ele>124.4</ele>
        <time>2021-05-21T09:49:04Z</time>
      </trkpt>
      <trkpt lat="42.3649450" lon="-8.6182880">
        <ele>124.5</ele>
        <time>2021-05-21T09:49:05Z</time>
      </trkpt>
      <trkpt lat="42.3649640" lon="-8.6182910">
        <ele>124.6</ele>
        <time>2021-05-21T09:49:06Z</time>
      </trkpt>
      <trkpt lat="42.3649780" lon="-8.6182950">
        <ele>124.7</ele>
        <time>2021-05-21T09:49:07Z</time>
      </trkpt>
      <trkpt lat="42.3649840" lon="-8.6182950">
        <ele>124.7</ele>
        <time>2021-05-21T09:49:08Z</time>
      </trkpt>
      <trkpt lat="42.3649970" lon="-8.6183000">
        <ele>124.8</ele>
        <time>2021-05-21T09:49:09Z</time>
      </trkpt>
      <trkpt lat="42.3650050" lon="-8.6183050">
        <ele>124.8</ele>
        <time>2021-05-21T09:49:10Z</time>
      </trkpt>
      <trkpt lat="42.3650240" lon="-8.6183120">
        <ele>125.0</ele>
        <time>2021-05-21T09:49:11Z</time>
      </trkpt>
      <trkpt lat="42.3650320" lon="-8.6183150">
        <ele>125.0</ele>
        <time>2021-05-21T09:49:12Z</time>
      </trkpt>
      <trkpt lat="42.3650540" lon="-8.6183250">
        <ele>125.2</ele>
        <time>2021-05-21T09:49:13Z</time>
      </trkpt>
      <trkpt lat="42.3650630" lon="-8.6183290">
        <ele>125.2</ele>
        <time>2021-05-21T09:49:14Z</time>
      </trkpt>
      <trkpt lat="42.3650710" lon="-8.6183320">
        <ele>125.3</ele>
        <time>2021-05-21T09:49:15Z</time>
      </trkpt>
      <trkpt lat="42.3650880" lon="-8.6183480">
        <ele>125.4</ele>
        <time>2021-05-21T09:49:16Z</time>
      </trkpt>
      <trkpt lat="42.3650970" lon="-8.6183510">
        <ele>125.5</ele>
        <time>2021-05-21T09:49:17Z</time>
      </trkpt>
      <trkpt lat="42.3651060" lon="-8.6183550">
        <ele>125.5</ele>
        <time>2021-05-21T09:49:18Z</time>
      </trkpt>
      <trkpt lat="42.3651180" lon="-8.6183540">
        <ele>125.6</ele>
        <time>2021-05-21T09:49:19Z</time>
      </trkpt>
      <trkpt lat="42.3651250" lon="-8.6183640">
        <ele>125.7</ele>
        <time>2021-05-21T09:49:20Z</time>
      </trkpt>
      <trkpt lat="42.3651310" lon="-8.6183590">
        <ele>125.7</ele>
        <time>2021-05-21T09:49:21Z</time>
      </trkpt>
      <trkpt lat="42.3651420" lon="-8.6183590">
        <ele>125.8</ele>
        <time>2021-05-21T09:49:22Z</time>
      </trkpt>
      <trkpt lat="42.3651600" lon="-8.6183640">
        <ele>126.0</ele>
        <time>2021-05-21T09:49:23Z</time>
      </trkpt>
      <trkpt lat="42.3651770" lon="-8.6183680">
        <ele>126.1</ele>
        <time>2021-05-21T09:49:24Z</time>
      </trkpt>
      <trkpt lat="42.3651890" lon="-8.6183750">
        <ele>126.2</ele>
        <time>2021-05-21T09:49:25Z</time>
      </trkpt>
      <trkpt lat="42.3652060" lon="-8.6183700">
        <ele>126.3</ele>
        <time>2021-05-21T09:49:26Z</time>
      </trkpt>
      <trkpt lat="42.3652160" lon="-8.6183740">
        <ele>126.4</ele>
        <time>2021-05-21T09:49:27Z</time>
      </trkpt>
      <trkpt lat="42.3652240" lon="-8.6183770">
        <ele>126.5</ele>
        <time>2021-05-21T09:49:28Z</time>
      </trkpt>
      <trkpt lat="42.3652370" lon="-8.6183860">
        <ele>126.6</ele>
        <time>2021-05-21T09:49:29Z</time>
      </trkpt>
      <trkpt lat="42.3652440" lon="-8.6184060">
        <ele>126.7</ele>
        <time>2021-05-21T09:49:30Z</time>
      </trkpt>
      <trkpt lat="42.3652470" lon="-8.6184100">
        <ele>126.8</ele>
        <time>2021-05-21T09:49:31Z</time>
      </trkpt>
      <trkpt lat="42.3652510" lon="-8.6184160">
        <ele>126.8</ele>
        <time>2021-05-21T09:49:32Z</time>
      </trkpt>
      <trkpt lat="42.3652590" lon="-8.6184230">
        <ele>126.9</ele>
        <time>2021-05-21T09:49:33Z</time>
      </trkpt>
      <trkpt lat="42.3652640" lon="-8.6184340">
        <ele>127.0</ele>
        <time>2021-05-21T09:49:34Z</time>
      </trkpt>
      <trkpt lat="42.3652690" lon="-8.6184470">
        <ele>127.1</ele>
        <time>2021-05-21T09:49:35Z</time>
      </trkpt>
      <trkpt lat="42.3652740" lon="-8.6184410">
        <ele>127.1</ele>
        <time>2021-05-21T09:49:36Z</time>
      </trkpt>
      <trkpt lat="42.3652880" lon="-8.6184420">
        <ele>127.2</ele>
        <time>2021-05-21T09:49:37Z</time>
      </trkpt>
      <trkpt lat="42.3653000" lon="-8.6184600">
        <ele>127.4</ele>
        <time>2021-05-21T09:49:38Z</time>
      </trkpt>
      <trkpt lat="42.3653040" lon="-8.6184730">
        <ele>127.5</ele>
        <time>2021-05-21T09:49:39Z</time>
      </trkpt>
      <trkpt lat="42.3653140" lon="-8.6184770">
        <ele>127.6</ele>
        <time>2021-05-21T09:49:40Z</time>
      </trkpt>
      <trkpt lat="42.3653180" lon="-8.6184850">
        <ele>127.6</ele>
        <time>2021-05-21T09:49:41Z</time>
      </trkpt>
      <trkpt lat="42.3653300" lon="-8.6184950">
        <ele>127.7</ele>
        <time>2021-05-21T09:49:42Z</time>
      </trkpt>
      <trkpt lat="42.3653270" lon="-8.6185010">
        <ele>127.8</ele>
        <time>2021-05-21T09:49:43Z</time>
      </trkpt>
      <trkpt lat="42.3653370" lon="-8.6185070">
        <ele>127.9</ele>
        <time>2021-05-21T09:49:44Z</time>
      </trkpt>
      <trkpt lat="42.3653420" lon="-8.6185100">
        <ele>127.9</ele>
        <time>2021-05-21T09:49:45Z</time>
      </trkpt>
      <trkpt lat="42.3653530" lon="-8.6185150">
        <ele>128.0</ele>
        <time>2021-05-21T09:49:46Z</time>
      </trkpt>
      <trkpt lat="42.3653600" lon="-8.6185180">
        <ele>128.1</ele>
        <time>2021-05-21T09:49:47Z</time>
      </trkpt>
      <trkpt lat="42.3653690" lon="-8.6185330">
        <ele>128.2</ele>
        <time>2021-05-21T09:49:48Z</time>
      </trkpt>
      <trkpt lat="42.3653790" lon="-8.6185400">
        <ele>128.3</ele>
        <time>2021-05-21T09:49:49Z</time>
      </trkpt>
      <trkpt lat="42.3653900" lon="-8.6185500">
        <ele>128.4</ele>
        <time>2021-05-21T09:49:50Z</time>
      </trkpt>
      <trkpt lat="42.3653970" lon="-8.6185550">
        <ele>128.5</ele>
        <time>2021-05-21T09:49:51Z</time>
      </trkpt>
      <trkpt lat="42.3653970" lon="-8.6185670">
        <ele>128.6</ele>
        <time>2021-05-21T09:49:52Z</time>
      </trkpt>
      <trkpt lat="42.3654090" lon="-8.6185790">
        <ele>128.7</ele>
        <time>2021-05-21T09:49:53Z</time>
      </trkpt>
      <trkpt lat="42.3654160" lon="-8.6185740">
        <ele>128.8</ele>
        <time>2021-05-21T09:49:54Z</time>
      </trkpt>
      <trkpt lat="42.3654260" lon="-8.6185810">
        <ele>128.8</ele>
        <time>2021-05-21T09:49:55Z</time>
      </trkpt>
      <trkpt lat="42.3654330" lon="-8.6185940">
        <ele>129.0</ele>
        <time>2021-05-21T09:49:56Z</time>
      </trkpt>
      <trkpt lat="42.3654420" lon="-8.6186010">
        <ele>129.0</ele>
        <time>2021-05-21T09:49:57Z</time>
      </trkpt>
      <trkpt lat="42.3654500" lon="-8.6186060">
        <ele>129.1</ele>
        <time>2021-05-21T09:49:58Z</time>
      </trkpt>
      <trkpt lat="42.3654540" lon="-8.6186130">
        <ele>129.2</ele>
        <time>2021-05-21T09:49:59Z</time>
      </trkpt>
      <trkpt lat="42.3654560" lon="-8.6186200">
        <ele>129.2</ele>
        <time>2021-05-21T09:50:00Z</time>
      </trkpt>
      <trkpt lat="42.3654600" lon="-8.6186260">
        <ele>129.3</ele>
        <time>2021-05-21T09:50:01Z</time>
      </trkpt>
      <trkpt lat="42.3654670" lon="-8.6186440">
        <ele>129.4</ele>
        <time>2021-05-21T09:50:02Z</time>
      </trkpt>
      <trkpt lat="42.3654840" lon="-8.6186610">
        <ele>129.6</ele>
        <time>2021-05-21T09:50:03Z</time>
      </trkpt>
      <trkpt lat="42.3654900" lon="-8.6186670">
        <ele>129.6</ele>
        <time>2021-05-21T09:50:04Z</time>
      </trkpt>
      <trkpt lat="42.3654970" lon="-8.6186740">
        <ele>129.7</ele>
        <time>2021-05-21T09:50:05Z</time>
      </trkpt>
      <trkpt lat="42.3655070" lon="-8.6186740">
        <ele>129.8</ele>
        <time>2021-05-21T09:50:06Z</time>
      </trkpt>
      <trkpt lat="42.3655100" lon="-8.6186810">
        <ele>129.8</ele>
        <time>2021-05-21T09:50:07Z</time>
      </trkpt>
      <trkpt lat="42.3655260" lon="-8.6186860">
        <ele>130.0</ele>
        <time>2021-05-21T09:50:08Z</time>
      </trkpt>
      <trkpt lat="42.3655400" lon="-8.6186960">
        <ele>130.1</ele>
        <time>2021-05-21T09:50:09Z</time>
      </trkpt>
      <trkpt lat="42.3655490" lon="-8.6187130">
        <ele>130.2</ele>
        <time>2021-05-21T09:50:10Z</time>
      </trkpt>
      <trkpt lat="42.3655600" lon="-8.6187410">
        <ele>130.4</ele>
        <time>2021-05-21T09:50:11Z</time>
      </trkpt>
      <trkpt lat="42.3655650" lon="-8.6187470">
        <ele>130.4</ele>
        <time>2021-05-21T09:50:12Z</time>
      </trkpt>
      <trkpt lat="42.3655710" lon="-8.6187530">
        <ele>130.5</ele>
        <time>2021-05-21T09:50:13Z</time>
      </trkpt>
      <trkpt lat="42.3655830" lon="-8.6187730">
        <ele>130.6</ele>
        <time>2021-05-21T09:50:14Z</time>
      </trkpt>
      <trkpt lat="42.3655860" lon="-8.6187770">
        <ele>130.6</ele>
        <time>2021-05-21T09:50:15Z</time>
      </trkpt>
      <trkpt lat="42.3655970" lon="-8.6187870">
        <ele>130.7</ele>
        <time>2021-05-21T09:50:16Z</time>
      </trkpt>
      <trkpt lat="42.3656130" lon="-8.6188100">
        <ele>130.9</ele>
        <time>2021-05-21T09:50:17Z</time>
      </trkpt>
      <trkpt lat="42.3656190" lon="-8.6188180">
        <ele>131.0</ele>
        <time>2021-05-21T09:50:18Z</time>
      </trkpt>
      <trkpt lat="42.3656260" lon="-8.6188270">
        <ele>131.0</ele>
        <time>2021-05-21T09:50:19Z</time>
      </trkpt>
      <trkpt lat="42.3656320" lon="-8.6188420">
        <ele>131.1</ele>
        <time>2021-05-21T09:50:20Z</time>
      </trkpt>
      <trkpt lat="42.3656380" lon="-8.6188530">
        <ele>131.2</ele>
        <time>2021-05-21T09:50:21Z</time>
      </trkpt>
      <trkpt lat="42.3656430" lon="-8.6188630">
        <ele>131.3</ele>
        <time>2021-05-21T09:50:22Z</time>
      </trkpt>
      <trkpt lat="42.3656510" lon="-8.6188770">
        <ele>131.4</ele>
        <time>2021-05-21T09:50:23Z</time>
      </trkpt>
      <trkpt lat="42.3656600" lon="-8.6188950">
        <ele>131.5</ele>
        <time>2021-05-21T09:50:24Z</time>
      </trkpt>
      <trkpt lat="42.3656770" lon="-8.6189070">
        <ele>131.6</ele>
        <time>2021-05-21T09:50:25Z</time>
      </trkpt>
      <trkpt lat="42.3656850" lon="-8.6189120">
        <ele>131.7</ele>
        <time>2021-05-21T09:50:26Z</time>
      </trkpt>
      <trkpt lat="42.3656940" lon="-8.6189180">
        <ele>131.8</ele>
        <time>2021-05-21T09:50:27Z</time>
      </trkpt>
      <trkpt lat="42.3657060" lon="-8.6189330">
        <ele>131.9</ele>
        <time>2021-05-21T09:50:28Z</time>
      </trkpt>
      <trkpt lat="42.3657110" lon="-8.6189400">
        <ele>131.9</ele>
        <time>2021-05-21T09:50:29Z</time>
      </trkpt>
      <trkpt lat="42.3657150" lon="-8.6189470">
        <ele>131.9</ele>
        <time>2021-05-21T09:50:30Z</time>
      </trkpt>
      <trkpt lat="42.3657260" lon="-8.6189590">
        <ele>132.0</ele>
        <time>2021-05-21T09:50:31Z</time>
      </trkpt>
      <trkpt lat="42.3657380" lon="-8.6189680">
        <ele>132.1</ele>
        <time>2021-05-21T09:50:32Z</time>
      </trkpt>
      <trkpt lat="42.3657430" lon="-8.6189800">
        <ele>132.2</ele>
        <time>2021-05-21T09:50:33Z</time>
      </trkpt>
      <trkpt lat="42.3657510" lon="-8.6189880">
        <ele>132.3</ele>
        <time>2021-05-21T09:50:34Z</time>
      </trkpt>
      <trkpt lat="42.3657560" lon="-8.6190010">
        <ele>132.3</ele>
        <time>2021-05-21T09:50:35Z</time>
      </trkpt>
      <trkpt lat="42.3657610" lon="-8.6190030">
        <ele>132.4</ele>
        <time>2021-05-21T09:50:36Z</time>
      </trkpt>
      <trkpt lat="42.3657670" lon="-8.6190030">
        <ele>132.4</ele>
        <time>2021-05-21T09:50:37Z</time>
      </trkpt>
      <trkpt lat="42.3657700" lon="-8.6190070">
        <ele>132.4</ele>
        <time>2021-05-21T09:50:38Z</time>
      </trkpt>
      <trkpt lat="42.3657810" lon="-8.6190200">
        <ele>132.5</ele>
        <time>2021-05-21T09:50:39Z</time>
      </trkpt>
      <trkpt lat="42.3657940" lon="-8.6190310">
        <ele>132.6</ele>
        <time>2021-05-21T09:50:40Z</time>
      </trkpt>
      <trkpt lat="42.3658030" lon="-8.6190420">
        <ele>132.7</ele>
        <time>2021-05-21T09:50:41Z</time>
      </trkpt>
      <trkpt lat="42.3658110" lon="-8.6190540">
        <ele>132.7</ele>
        <time>2021-05-21T09:50:42Z</time>
      </trkpt>
      <trkpt lat="42.3658220" lon="-8.6190600">
        <ele>132.8</ele>
        <time>2021-05-21T09:50:43Z</time>
      </trkpt>
      <trkpt lat="42.3658240" lon="-8.6190730">
        <ele>132.9</ele>
        <time>2021-05-21T09:50:44Z</time>
      </trkpt>
      <trkpt lat="42.3658320" lon="-8.6190820">
        <ele>132.9</ele>
        <time>2021-05-21T09:50:45Z</time>
      </trkpt>
      <trkpt lat="42.3658410" lon="-8.6190890">
        <ele>133.0</ele>
        <time>2021-05-21T09:50:46Z</time>
      </trkpt>
      <trkpt lat="42.3658520" lon="-8.6191000">
        <ele>133.1</ele>
        <time>2021-05-21T09:50:47Z</time>
      </trkpt>
      <trkpt lat="42.3658580" lon="-8.6191110">
        <ele>133.1</ele>
        <time>2021-05-21T09:50:48Z</time>
      </trkpt>
      <trkpt lat="42.3658660" lon="-8.6191250">
        <ele>133.2</ele>
        <time>2021-05-21T09:50:49Z</time>
      </trkpt>
      <trkpt lat="42.3658740" lon="-8.6191320">
        <ele>133.2</ele>
        <time>2021-05-21T09:50:50Z</time>
      </trkpt>
      <trkpt lat="42.3658900" lon="-8.6191470">
        <ele>133.3</ele>
        <time>2021-05-21T09:50:51Z</time>
      </trkpt>
      <trkpt lat="42.3659000" lon="-8.6191600">
        <ele>133.4</ele>
        <time>2021-05-21T09:50:52Z</time>
      </trkpt>
      <trkpt lat="42.3659070" lon="-8.6191670">
        <ele>133.4</ele>
        <time>2021-05-21T09:50:53Z</time>
      </trkpt>
      <trkpt lat="42.3659160" lon="-8.6191670">
        <ele>133.5</ele>
        <time>2021-05-21T09:50:54Z</time>
      </trkpt>
      <trkpt lat="42.3659320" lon="-8.6191770">
        <ele>133.5</ele>
        <time>2021-05-21T09:50:55Z</time>
      </trkpt>
      <trkpt lat="42.3659420" lon="-8.6191900">
        <ele>133.6</ele>
        <time>2021-05-21T09:50:56Z</time>
      </trkpt>
      <trkpt lat="42.3659500" lon="-8.6191970">
        <ele>133.7</ele>
        <time>2021-05-21T09:50:57Z</time>
      </trkpt>
      <trkpt lat="42.3659570" lon="-8.6192090">
        <ele>133.7</ele>
        <time>2021-05-21T09:50:58Z</time>
      </trkpt>
      <trkpt lat="42.3659670" lon="-8.6192260">
        <ele>133.8</ele>
        <time>2021-05-21T09:50:59Z</time>
      </trkpt>
      <trkpt lat="42.3659840" lon="-8.6192330">
        <ele>133.9</ele>
        <time>2021-05-21T09:51:00Z</time>
      </trkpt>
      <trkpt lat="42.3659930" lon="-8.6192450">
        <ele>133.9</ele>
        <time>2021-05-21T09:51:01Z</time>
      </trkpt>
      <trkpt lat="42.3660050" lon="-8.6192550">
        <ele>134.0</ele>
        <time>2021-05-21T09:51:02Z</time>
      </trkpt>
      <trkpt lat="42.3660170" lon="-8.6192700">
        <ele>134.1</ele>
        <time>2021-05-21T09:51:03Z</time>
      </trkpt>
      <trkpt lat="42.3660290" lon="-8.6192770">
        <ele>134.1</ele>
        <time>2021-05-21T09:51:04Z</time>
      </trkpt>
      <trkpt lat="42.3660500" lon="-8.6192960">
        <ele>134.2</ele>
        <time>2021-05-21T09:51:05Z</time>
      </trkpt>
      <trkpt lat="42.3660570" lon="-8.6193020">
        <ele>134.3</ele>
        <time>2021-05-21T09:51:06Z</time>
      </trkpt>
      <trkpt lat="42.3660650" lon="-8.6193080">
        <ele>134.3</ele>
        <time>2021-05-21T09:51:07Z</time>
      </trkpt>
      <trkpt lat="42.3660750" lon="-8.6193120">
        <ele>134.4</ele>
        <time>2021-05-21T09:51:08Z</time>
      </trkpt>
      <trkpt lat="42.3660860" lon="-8.6193200">
        <ele>134.4</ele>
        <time>2021-05-21T09:51:09Z</time>
      </trkpt>
      <trkpt lat="42.3660920" lon="-8.6193350">
        <ele>134.5</ele>
        <time>2021-05-21T09:51:10Z</time>
      </trkpt>
      <trkpt lat="42.3661000" lon="-8.6193440">
        <ele>134.5</ele>
        <time>2021-05-21T09:51:11Z</time>
      </trkpt>
      <trkpt lat="42.3661170" lon="-8.6193500">
        <ele>134.6</ele>
        <time>2021-05-21T09:51:12Z</time>
      </trkpt>
      <trkpt lat="42.3661240" lon="-8.6193540">
        <ele>134.7</ele>
        <time>2021-05-21T09:51:13Z</time>
      </trkpt>
      <trkpt lat="42.3661350" lon="-8.6193600">
        <ele>134.7</ele>
        <time>2021-05-21T09:51:14Z</time>
      </trkpt>
      <trkpt lat="42.3661450" lon="-8.6193710">
        <ele>134.8</ele>
        <time>2021-05-21T09:51:15Z</time>
      </trkpt>
      <trkpt lat="42.3661610" lon="-8.6193810">
        <ele>134.9</ele>
        <time>2021-05-21T09:51:16Z</time>
      </trkpt>
      <trkpt lat="42.3661680" lon="-8.6193850">
        <ele>134.9</ele>
        <time>2021-05-21T09:51:17Z</time>
      </trkpt>
      <trkpt lat="42.3661760" lon="-8.6193900">
        <ele>135.0</ele>
        <time>2021-05-21T09:51:18Z</time>
      </trkpt>
      <trkpt lat="42.3661830" lon="-8.6193940">
        <ele>135.0</ele>
        <time>2021-05-21T09:51:19Z</time>
      </trkpt>
      <trkpt lat="42.3661930" lon="-8.6193960">
        <ele>135.1</ele>
        <time>2021-05-21T09:51:20Z</time>
      </trkpt>
      <trkpt lat="42.3662000" lon="-8.6194040">
        <ele>135.1</ele>
        <time>2021-05-21T09:51:21Z</time>
      </trkpt>
      <trkpt lat="42.3662130" lon="-8.6194070">
        <ele>135.2</ele>
        <time>2021-05-21T09:51:22Z</time>
      </trkpt>
      <trkpt lat="42.3662230" lon="-8.6194100">
        <ele>135.3</ele>
        <time>2021-05-21T09:51:23Z</time>
      </trkpt>
      <trkpt lat="42.3662320" lon="-8.6194140">
        <ele>135.3</ele>
        <time>2021-05-21T09:51:24Z</time>
      </trkpt>
      <trkpt lat="42.3662420" lon="-8.6194200">
        <ele>135.4</ele>
        <time>2021-05-21T09:51:25Z</time>
      </trkpt>
      <trkpt lat="42.3662620" lon="-8.6194250">
        <ele>135.5</ele>
        <time>2021-05-21T09:51:26Z</time>
      </trkpt>
      <trkpt lat="42.3662710" lon="-8.6194300">
        <ele>135.6</ele>
        <time>2021-05-21T09:51:27Z</time>
      </trkpt>
      <trkpt lat="42.3662800" lon="-8.6194340">
        <ele>135.6</ele>
        <time>2021-05-21T09:51:28Z</time>
      </trkpt>
      <trkpt lat="42.3662880" lon="-8.6194340">
        <ele>135.7</ele>
        <time>2021-05-21T09:51:29Z</time>
      </trkpt>
      <trkpt lat="42.3662940" lon="-8.6194420">
        <ele>135.8</ele>
        <time>2021-05-21T09:51:30Z</time>
      </trkpt>
      <trkpt lat="42.3663060" lon="-8.6194530">
        <ele>135.9</ele>
        <time>2021-05-21T09:51:31Z</time>
      </trkpt>
      <trkpt lat="42.3663170" lon="-8.6194580">
        <ele>135.9</ele>
        <time>2021-05-21T09:51:32Z</time>
      </trkpt>
      <trkpt lat="42.3663300" lon="-8.6194730">
        <ele>136.0</ele>
        <time>2021-05-21T09:51:33Z</time>
      </trkpt>
      <trkpt lat="42.3663470" lon="-8.6194780">
        <ele>136.2</ele>
        <time>2021-05-21T09:51:34Z</time>
      </trkpt>
      <trkpt lat="42.3663580" lon="-8.6194820">
        <ele>136.3</ele>
        <time>2021-05-21T09:51:35Z</time>
      </trkpt>
      <trkpt lat="42.3663680" lon="-8.6194850">
        <ele>136.3</ele>
        <time>2021-05-21T09:51:36Z</time>
      </trkpt>
      <trkpt lat="42.3663790" lon="-8.6194870">
        <ele>136.4</ele>
        <time>2021-05-21T09:51:37Z</time>
      </trkpt>
      <trkpt lat="42.3663840" lon="-8.6194950">
        <ele>136.5</ele>
        <time>2021-05-21T09:51:38Z</time>
      </trkpt>
      <trkpt lat="42.3663950" lon="-8.6195070">
        <ele>136.6</ele>
        <time>2021-05-21T09:51:39Z</time>
      </trkpt>
      <trkpt lat="42.3664070" lon="-8.6195110">
        <ele>136.7</ele>
        <time>2021-05-21T09:51:40Z</time>
      </trkpt>
      <trkpt lat="42.3664110" lon="-8.6195120">
        <ele>136.7</ele>
        <time>2021-05-21T09:51:41Z</time>
      </trkpt>
      <trkpt lat="42.3664210" lon="-8.6195220">
        <ele>136.8</ele>
        <time>2021-05-21T09:51:42Z</time>
      </trkpt>
      <trkpt lat="42.3664340" lon="-8.6195310">
        <ele>136.9</ele>
        <time>2021-05-21T09:51:43Z</time>
      </trkpt>
      <trkpt lat="42.3664360" lon="-8.6195350">
        <ele>137.0</ele>
        <time>2021-05-21T09:51:44Z</time>
      </trkpt>
      <trkpt lat="42.3664500" lon="-8.6195350">
        <ele>137.1</ele>
        <time>2021-05-21T09:51:45Z</time>
      </trkpt>
      <trkpt lat="42.3664670" lon="-8.6195470">
        <ele>137.2</ele>
        <time>2021-05-21T09:51:46Z</time>
      </trkpt>
      <trkpt lat="42.3664720" lon="-8.6195470">
        <ele>137.3</ele>
        <time>2021-05-21T09:51:47Z</time>
      </trkpt>
      <trkpt lat="42.3664730" lon="-8.6195410">
        <ele>137.3</ele>
        <time>2021-05-21T09:51:48Z</time>
      </trkpt>
      <trkpt lat="42.3664810" lon="-8.6195500">
        <ele>137.4</ele>
        <time>2021-05-21T09:51:49Z</time>
      </trkpt>
      <trkpt lat="42.3665030" lon="-8.6195630">
        <ele>137.6</ele>
        <time>2021-05-21T09:51:50Z</time>
      </trkpt>
      <trkpt lat="42.3665120" lon="-8.6195710">
        <ele>137.7</ele>
        <time>2021-05-21T09:51:51Z</time>
      </trkpt>
      <trkpt lat="42.3665220" lon="-8.6195780">
        <ele>137.8</ele>
        <time>2021-05-21T09:51:52Z</time>
      </trkpt>
      <trkpt lat="42.3665280" lon="-8.6195740">
        <ele>137.9</ele>
        <time>2021-05-21T09:51:53Z</time>
      </trkpt>
      <trkpt lat="42.3665400" lon="-8.6195730">
        <ele>138.0</ele>
        <time>2021-05-21T09:51:54Z</time>
      </trkpt>
      <trkpt lat="42.3665510" lon="-8.6195770">
        <ele>138.1</ele>
        <time>2021-05-21T09:51:55Z</time>
      </trkpt>
      <trkpt lat="42.3665730" lon="-8.6196010">
        <ele>138.4</ele>
        <time>2021-05-21T09:51:56Z</time>
      </trkpt>
      <trkpt lat="42.3665780" lon="-8.6196110">
        <ele>138.4</ele>
        <time>2021-05-21T09:51:57Z</time>
      </trkpt>
      <trkpt lat="42.3665870" lon="-8.6196220">
        <ele>138.5</ele>
        <time>2021-05-21T09:51:58Z</time>
      </trkpt>
      <trkpt lat="42.3666030" lon="-8.6196260">
        <ele>138.7</ele>
        <time>2021-05-21T09:51:59Z</time>
      </trkpt>
      <trkpt lat="42.3666130" lon="-8.6196430">
        <ele>138.8</ele>
        <time>2021-05-21T09:52:00Z</time>
      </trkpt>
      <trkpt lat="42.3666160" lon="-8.6196540">
        <ele>138.9</ele>
        <time>2021-05-21T09:52:01Z</time>
      </trkpt>
      <trkpt lat="42.3666190" lon="-8.6196650">
        <ele>139.0</ele>
        <time>2021-05-21T09:52:02Z</time>
      </trkpt>
      <trkpt lat="42.3666310" lon="-8.6196790">
        <ele>139.1</ele>
        <time>2021-05-21T09:52:03Z</time>
      </trkpt>
      <trkpt lat="42.3666400" lon="-8.6196990">
        <ele>139.3</ele>
        <time>2021-05-21T09:52:04Z</time>
      </trkpt>
      <trkpt lat="42.3666500" lon="-8.6197070">
        <ele>139.4</ele>
        <time>2021-05-21T09:52:05Z</time>
      </trkpt>
      <trkpt lat="42.3666590" lon="-8.6197160">
        <ele>139.5</ele>
        <time>2021-05-21T09:52:06Z</time>
      </trkpt>
      <trkpt lat="42.3666650" lon="-8.6197230">
        <ele>139.6</ele>
        <time>2021-05-21T09:52:07Z</time>
      </trkpt>
      <trkpt lat="42.3666780" lon="-8.6197460">
        <ele>141.0</ele>
        <time>2021-05-21T09:52:08Z</time>
      </trkpt>
      <trkpt lat="42.3666820" lon="-8.6197550">
        <ele>141.0</ele>
        <time>2021-05-21T09:52:09Z</time>
      </trkpt>
      <trkpt lat="42.3666870" lon="-8.6197640">
        <ele>141.1</ele>
        <time>2021-05-21T09:52:10Z</time>
      </trkpt>
      <trkpt lat="42.3666850" lon="-8.6197740">
        <ele>141.1</ele>
        <time>2021-05-21T09:52:11Z</time>
      </trkpt>
      <trkpt lat="42.3666830" lon="-8.6197880">
        <ele>141.2</ele>
        <time>2021-05-21T09:52:12Z</time>
      </trkpt>
      <trkpt lat="42.3666810" lon="-8.6198030">
        <ele>141.2</ele>
        <time>2021-05-21T09:52:13Z</time>
      </trkpt>
      <trkpt lat="42.3666830" lon="-8.6198120">
        <ele>141.2</ele>
        <time>2021-05-21T09:52:14Z</time>
      </trkpt>
      <trkpt lat="42.3666780" lon="-8.6198110">
        <ele>141.3</ele>
        <time>2021-05-21T09:52:15Z</time>
      </trkpt>
      <trkpt lat="42.3666730" lon="-8.6198250">
        <ele>141.3</ele>
        <time>2021-05-21T09:52:16Z</time>
      </trkpt>
      <trkpt lat="42.3666710" lon="-8.6198310">
        <ele>141.3</ele>
        <time>2021-05-21T09:52:17Z</time>
      </trkpt>
      <trkpt lat="42.3666670" lon="-8.6198430">
        <ele>141.4</ele>
        <time>2021-05-21T09:52:18Z</time>
      </trkpt>
      <trkpt lat="42.3666640" lon="-8.6198500">
        <ele>141.4</ele>
        <time>2021-05-21T09:52:19Z</time>
      </trkpt>
      <trkpt lat="42.3666590" lon="-8.6198650">
        <ele>141.4</ele>
        <time>2021-05-21T09:52:20Z</time>
      </trkpt>
      <trkpt lat="42.3666550" lon="-8.6198790">
        <ele>141.5</ele>
        <time>2021-05-21T09:52:21Z</time>
      </trkpt>
      <trkpt lat="42.3666500" lon="-8.6198990">
        <ele>141.5</ele>
        <time>2021-05-21T09:52:22Z</time>
      </trkpt>
      <trkpt lat="42.3666450" lon="-8.6199080">
        <ele>141.6</ele>
        <time>2021-05-21T09:52:23Z</time>
      </trkpt>
      <trkpt lat="42.3666390" lon="-8.6199160">
        <ele>141.6</ele>
        <time>2021-05-21T09:52:24Z</time>
      </trkpt>
      <trkpt lat="42.3666340" lon="-8.6199240">
        <ele>141.6</ele>
        <time>2021-05-21T09:52:25Z</time>
      </trkpt>
      <trkpt lat="42.3666300" lon="-8.6199370">
        <ele>141.7</ele>
        <time>2021-05-21T09:52:26Z</time>
      </trkpt>
      <trkpt lat="42.3666250" lon="-8.6199520">
        <ele>141.7</ele>
        <time>2021-05-21T09:52:27Z</time>
      </trkpt>
      <trkpt lat="42.3666220" lon="-8.6199580">
        <ele>141.7</ele>
        <time>2021-05-21T09:52:28Z</time>
      </trkpt>
      <trkpt lat="42.3666080" lon="-8.6199930">
        <ele>141.8</ele>
        <time>2021-05-21T09:52:29Z</time>
      </trkpt>
      <trkpt lat="42.3666070" lon="-8.6200050">
        <ele>141.9</ele>
        <time>2021-05-21T09:52:30Z</time>
      </trkpt>
      <trkpt lat="42.3666050" lon="-8.6200180">
        <ele>141.9</ele>
        <time>2021-05-21T09:52:31Z</time>
      </trkpt>
      <trkpt lat="42.3665980" lon="-8.6200520">
        <ele>141.9</ele>
        <time>2021-05-21T09:52:32Z</time>
      </trkpt>
      <trkpt lat="42.3665970" lon="-8.6200680">
        <ele>142.0</ele>
        <time>2021-05-21T09:52:33Z</time>
      </trkpt>
      <trkpt lat="42.3665910" lon="-8.6200850">
        <ele>142.0</ele>
        <time>2021-05-21T09:52:34Z</time>
      </trkpt>
      <trkpt lat="42.3665910" lon="-8.6200990">
        <ele>142.0</ele>
        <time>2021-05-21T09:52:35Z</time>
      </trkpt>
      <trkpt lat="42.3665880" lon="-8.6201100">
        <ele>142.0</ele>
        <time>2021-05-21T09:52:36Z</time>
      </trkpt>
      <trkpt lat="42.3665920" lon="-8.6201180">
        <ele>142.0</ele>
        <time>2021-05-21T09:52:37Z</time>
      </trkpt>
      <trkpt lat="42.3665920" lon="-8.6201370">
        <ele>142.1</ele>
        <time>2021-05-21T09:52:38Z</time>
      </trkpt>
      <trkpt lat="42.3665900" lon="-8.6201480">
        <ele>142.1</ele>
        <time>2021-05-21T09:52:39Z</time>
      </trkpt>
      <trkpt lat="42.3665920" lon="-8.6201570">
        <ele>142.1</ele>
        <time>2021-05-21T09:52:40Z</time>
      </trkpt>
      <trkpt lat="42.3665930" lon="-8.6201800">
        <ele>142.1</ele>
        <time>2021-05-21T09:52:41Z</time>
      </trkpt>
      <trkpt lat="42.3665930" lon="-8.6201950">
        <ele>142.1</ele>
        <time>2021-05-21T09:52:42Z</time>
      </trkpt>
      <trkpt lat="42.3665970" lon="-8.6202090">
        <ele>142.1</ele>
        <time>2021-05-21T09:52:43Z</time>
      </trkpt>
      <trkpt lat="42.3666090" lon="-8.6202190">
        <ele>142.1</ele>
        <time>2021-05-21T09:52:44Z</time>
      </trkpt>
      <trkpt lat="42.3666180" lon="-8.6202290">
        <ele>142.1</ele>
        <time>2021-05-21T09:52:45Z</time>
      </trkpt>
      <trkpt lat="42.3666310" lon="-8.6202440">
        <ele>142.0</ele>
        <time>2021-05-21T09:52:46Z</time>
      </trkpt>
      <trkpt lat="42.3666390" lon="-8.6202570">
        <ele>142.0</ele>
        <time>2021-05-21T09:52:47Z</time>
      </trkpt>
      <trkpt lat="42.3666490" lon="-8.6202700">
        <ele>142.0</ele>
        <time>2021-05-21T09:52:48Z</time>
      </trkpt>
      <trkpt lat="42.3666650" lon="-8.6202820">
        <ele>142.0</ele>
        <time>2021-05-21T09:52:49Z</time>
      </trkpt>
      <trkpt lat="42.3666700" lon="-8.6202920">
        <ele>141.9</ele>
        <time>2021-05-21T09:52:50Z</time>
      </trkpt>
      <trkpt lat="42.3666690" lon="-8.6202940">
        <ele>141.9</ele>
        <time>2021-05-21T09:52:51Z</time>
      </trkpt>
      <trkpt lat="42.3666630" lon="-8.6202960">
        <ele>141.9</ele>
        <time>2021-05-21T09:52:52Z</time>
      </trkpt>
      <trkpt lat="42.3666630" lon="-8.6203020">
        <ele>141.9</ele>
        <time>2021-05-21T09:52:53Z</time>
      </trkpt>
      <trkpt lat="42.3666670" lon="-8.6203080">
        <ele>141.9</ele>
        <time>2021-05-21T09:52:54Z</time>
      </trkpt>
      <trkpt lat="42.3666730" lon="-8.6203090">
        <ele>141.9</ele>
        <time>2021-05-21T09:52:55Z</time>
      </trkpt>
      <trkpt lat="42.3666780" lon="-8.6203090">
        <ele>141.9</ele>
        <time>2021-05-21T09:52:56Z</time>
      </trkpt>
      <trkpt lat="42.3666840" lon="-8.6203100">
        <ele>141.9</ele>
        <time>2021-05-21T09:52:57Z</time>
      </trkpt>
      <trkpt lat="42.3666930" lon="-8.6203110">
        <ele>141.8</ele>
        <time>2021-05-21T09:52:58Z</time>
      </trkpt>
      <trkpt lat="42.3667010" lon="-8.6203060">
        <ele>141.8</ele>
        <time>2021-05-21T09:52:59Z</time>
      </trkpt>
      <trkpt lat="42.3667080" lon="-8.6203020">
        <ele>141.8</ele>
        <time>2021-05-21T09:53:00Z</time>
      </trkpt>
      <trkpt lat="42.3667130" lon="-8.6203030">
        <ele>141.8</ele>
        <time>2021-05-21T09:53:01Z</time>
      </trkpt>
      <trkpt lat="42.3667150" lon="-8.6203070">
        <ele>141.8</ele>
        <time>2021-05-21T09:53:02Z</time>
      </trkpt>
      <trkpt lat="42.3667150" lon="-8.6203070">
        <ele>141.8</ele>
        <time>2021-05-21T09:53:03Z</time>
      </trkpt>
      <trkpt lat="42.3667140" lon="-8.6203070">
        <ele>141.8</ele>
        <time>2021-05-21T09:53:04Z</time>
      </trkpt>
      <trkpt lat="42.3667140" lon="-8.6203080">
        <ele>141.8</ele>
        <time>2021-05-21T09:53:05Z</time>
      </trkpt>
      <trkpt lat="42.3667140" lon="-8.6203080">
        <ele>141.8</ele>
        <time>2021-05-21T09:53:06Z</time>
      </trkpt>
      <trkpt lat="42.3667140" lon="-8.6203080">
        <ele>141.8</ele>
        <time>2021-05-21T09:53:07Z</time>
      </trkpt>
      <trkpt lat="42.3667140" lon="-8.6203080">
        <ele>141.8</ele>
        <time>2021-05-21T09:53:08Z</time>
      </trkpt>
      <trkpt lat="42.3667130" lon="-8.6203080">
        <ele>141.8</ele>
        <time>2021-05-21T09:53:09Z</time>
      </trkpt>
      <trkpt lat="42.3667130" lon="-8.6203080">
        <ele>141.8</ele>
        <time>2021-05-21T09:53:10Z</time>
      </trkpt>
      <trkpt lat="42.3667130" lon="-8.6203080">
        <ele>141.8</ele>
        <time>2021-05-21T09:53:11Z</time>
      </trkpt>
      <trkpt lat="42.3667130" lon="-8.6203080">
        <ele>141.8</ele>
        <time>2021-05-21T09:53:12Z</time>
      </trkpt>
      <trkpt lat="42.3667120" lon="-8.6203090">
        <ele>141.8</ele>
        <time>2021-05-21T09:53:13Z</time>
      </trkpt>
      <trkpt lat="42.3667120" lon="-8.6203090">
        <ele>141.8</ele>
        <time>2021-05-21T09:53:14Z</time>
      </trkpt>
      <trkpt lat="42.3667120" lon="-8.6203090">
        <ele>141.8</ele>
        <time>2021-05-21T09:53:15Z</time>
      </trkpt>
      <trkpt lat="42.3667120" lon="-8.6203090">
        <ele>141.8</ele>
        <time>2021-05-21T09:53:16Z</time>
      </trkpt>
      <trkpt lat="42.3667120" lon="-8.6203090">
        <ele>141.8</ele>
        <time>2021-05-21T09:53:17Z</time>
      </trkpt>
      <trkpt lat="42.3667110" lon="-8.6203090">
        <ele>141.8</ele>
        <time>2021-05-21T09:53:18Z</time>
      </trkpt>
      <trkpt lat="42.3667110" lon="-8.6203090">
        <ele>141.8</ele>
        <time>2021-05-21T09:53:19Z</time>
      </trkpt>
      <trkpt lat="42.3667110" lon="-8.6203090">
        <ele>141.8</ele>
        <time>2021-05-21T09:53:20Z</time>
      </trkpt>
      <trkpt lat="42.3667110" lon="-8.6203100">
        <ele>141.8</ele>
        <time>2021-05-21T09:53:21Z</time>
      </trkpt>
      <trkpt lat="42.3667110" lon="-8.6203100">
        <ele>141.8</ele>
        <time>2021-05-21T09:53:22Z</time>
      </trkpt>
      <trkpt lat="42.3667100" lon="-8.6203100">
        <ele>141.8</ele>
        <time>2021-05-21T09:53:23Z</time>
      </trkpt>
      <trkpt lat="42.3667100" lon="-8.6203100">
        <ele>141.8</ele>
        <time>2021-05-21T09:53:24Z</time>
      </trkpt>
      <trkpt lat="42.3667100" lon="-8.6203100">
        <ele>141.8</ele>
        <time>2021-05-21T09:53:25Z</time>
      </trkpt>
      <trkpt lat="42.3667100" lon="-8.6203100">
        <ele>141.8</ele>
        <time>2021-05-21T09:53:26Z</time>
      </trkpt>
      <trkpt lat="42.3667100" lon="-8.6203100">
        <ele>141.8</ele>
        <time>2021-05-21T09:53:27Z</time>
      </trkpt>
      <trkpt lat="42.3667090" lon="-8.6203100">
        <ele>141.8</ele>
        <time>2021-05-21T09:53:28Z</time>
      </trkpt>
      <trkpt lat="42.3667090" lon="-8.6203110">
        <ele>141.8</ele>
        <time>2021-05-21T09:53:29Z</time>
      </trkpt>
      <trkpt lat="42.3667090" lon="-8.6203110">
        <ele>141.8</ele>
        <time>2021-05-21T09:53:30Z</time>
      </trkpt>
      <trkpt lat="42.3667090" lon="-8.6203110">
        <ele>141.8</ele>
        <time>2021-05-21T09:53:31Z</time>
      </trkpt>
      <trkpt lat="42.3667090" lon="-8.6203110">
        <ele>141.8</ele>
        <time>2021-05-21T09:53:32Z</time>
      </trkpt>
      <trkpt lat="42.3667080" lon="-8.6203110">
        <ele>141.8</ele>
        <time>2021-05-21T09:53:33Z</time>
      </trkpt>
      <trkpt lat="42.3667080" lon="-8.6203110">
        <ele>141.8</ele>
        <time>2021-05-21T09:53:34Z</time>
      </trkpt>
      <trkpt lat="42.3667080" lon="-8.6203110">
        <ele>141.8</ele>
        <time>2021-05-21T09:53:35Z</time>
      </trkpt>
      <trkpt lat="42.3667080" lon="-8.6203110">
        <ele>141.8</ele>
        <time>2021-05-21T09:53:36Z</time>
      </trkpt>
      <trkpt lat="42.3667070" lon="-8.6203120">
        <ele>141.8</ele>
        <time>2021-05-21T09:53:37Z</time>
      </trkpt>
      <trkpt lat="42.3667070" lon="-8.6203120">
        <ele>141.8</ele>
        <time>2021-05-21T09:53:38Z</time>
      </trkpt>
      <trkpt lat="42.3667070" lon="-8.6203120">
        <ele>141.8</ele>
        <time>2021-05-21T09:53:39Z</time>
      </trkpt>
      <trkpt lat="42.3667070" lon="-8.6203120">
        <ele>141.8</ele>
        <time>2021-05-21T09:53:40Z</time>
      </trkpt>
      <trkpt lat="42.3667070" lon="-8.6203120">
        <ele>141.8</ele>
        <time>2021-05-21T09:53:41Z</time>
      </trkpt>
      <trkpt lat="42.3667060" lon="-8.6203120">
        <ele>141.8</ele>
        <time>2021-05-21T09:53:42Z</time>
      </trkpt>
      <trkpt lat="42.3667060" lon="-8.6203120">
        <ele>141.8</ele>
        <time>2021-05-21T09:53:43Z</time>
      </trkpt>
      <trkpt lat="42.3667060" lon="-8.6203120">
        <ele>141.8</ele>
        <time>2021-05-21T09:53:44Z</time>
      </trkpt>
      <trkpt lat="42.3667060" lon="-8.6203130">
        <ele>141.8</ele>
        <time>2021-05-21T09:53:45Z</time>
      </trkpt>
      <trkpt lat="42.3667060" lon="-8.6203130">
        <ele>141.8</ele>
        <time>2021-05-21T09:53:46Z</time>
      </trkpt>
      <trkpt lat="42.3667050" lon="-8.6203130">
        <ele>141.8</ele>
        <time>2021-05-21T09:53:47Z</time>
      </trkpt>
      <trkpt lat="42.3667050" lon="-8.6203130">
        <ele>141.8</ele>
        <time>2021-05-21T09:53:48Z</time>
      </trkpt>
      <trkpt lat="42.3667050" lon="-8.6203130">
        <ele>141.8</ele>
        <time>2021-05-21T09:53:49Z</time>
      </trkpt>
      <trkpt lat="42.3667050" lon="-8.6203130">
        <ele>141.8</ele>
        <time>2021-05-21T09:53:50Z</time>
      </trkpt>
      <trkpt lat="42.3667050" lon="-8.6203130">
        <ele>141.8</ele>
        <time>2021-05-21T09:53:51Z</time>
      </trkpt>
      <trkpt lat="42.3667040" lon="-8.6203130">
        <ele>141.8</ele>
        <time>2021-05-21T09:53:52Z</time>
      </trkpt>
      <trkpt lat="42.3667040" lon="-8.6203140">
        <ele>141.8</ele>
        <time>2021-05-21T09:53:53Z</time>
      </trkpt>
      <trkpt lat="42.3667040" lon="-8.6203140">
        <ele>141.8</ele>
        <time>2021-05-21T09:53:54Z</time>
      </trkpt>
      <trkpt lat="42.3667040" lon="-8.6203140">
        <ele>141.8</ele>
        <time>2021-05-21T09:53:55Z</time>
      </trkpt>
      <trkpt lat="42.3667030" lon="-8.6203140">
        <ele>141.8</ele>
        <time>2021-05-21T09:53:56Z</time>
      </trkpt>
      <trkpt lat="42.3667030" lon="-8.6203140">
        <ele>141.8</ele>
        <time>2021-05-21T09:53:57Z</time>
      </trkpt>
      <trkpt lat="42.3667030" lon="-8.6203140">
        <ele>141.8</ele>
        <time>2021-05-21T09:53:58Z</time>
      </trkpt>
      <trkpt lat="42.3667030" lon="-8.6203140">
        <ele>141.8</ele>
        <time>2021-05-21T09:53:59Z</time>
      </trkpt>
      <trkpt lat="42.3667030" lon="-8.6203140">
        <ele>141.8</ele>
        <time>2021-05-21T09:54:00Z</time>
      </trkpt>
      <trkpt lat="42.3667020" lon="-8.6203150">
        <ele>141.8</ele>
        <time>2021-05-21T09:54:01Z</time>
      </trkpt>
      <trkpt lat="42.3667020" lon="-8.6203150">
        <ele>141.8</ele>
        <time>2021-05-21T09:54:02Z</time>
      </trkpt>
      <trkpt lat="42.3667020" lon="-8.6203150">
        <ele>141.8</ele>
        <time>2021-05-21T09:54:03Z</time>
      </trkpt>
      <trkpt lat="42.3667020" lon="-8.6203150">
        <ele>141.8</ele>
        <time>2021-05-21T09:54:04Z</time>
      </trkpt>
      <trkpt lat="42.3667020" lon="-8.6203150">
        <ele>141.8</ele>
        <time>2021-05-21T09:54:05Z</time>
      </trkpt>
      <trkpt lat="42.3667010" lon="-8.6203150">
        <ele>141.8</ele>
        <time>2021-05-21T09:54:06Z</time>
      </trkpt>
      <trkpt lat="42.3667010" lon="-8.6203150">
        <ele>141.8</ele>
        <time>2021-05-21T09:54:07Z</time>
      </trkpt>
      <trkpt lat="42.3667010" lon="-8.6203150">
        <ele>141.8</ele>
        <time>2021-05-21T09:54:08Z</time>
      </trkpt>
      <trkpt lat="42.3667010" lon="-8.6203160">
        <ele>141.8</ele>
        <time>2021-05-21T09:54:09Z</time>
      </trkpt>
      <trkpt lat="42.3667010" lon="-8.6203160">
        <ele>141.8</ele>
        <time>2021-05-21T09:54:10Z</time>
      </trkpt>
      <trkpt lat="42.3667000" lon="-8.6203160">
        <ele>141.8</ele>
        <time>2021-05-21T09:54:11Z</time>
      </trkpt>
      <trkpt lat="42.3667000" lon="-8.6203160">
        <ele>141.8</ele>
        <time>2021-05-21T09:54:12Z</time>
      </trkpt>
      <trkpt lat="42.3667000" lon="-8.6203160">
        <ele>141.8</ele>
        <time>2021-05-21T09:54:13Z</time>
      </trkpt>
      <trkpt lat="42.3667000" lon="-8.6203160">
        <ele>141.8</ele>
        <time>2021-05-21T09:54:14Z</time>
      </trkpt>
      <trkpt lat="42.3667000" lon="-8.6203160">
        <ele>141.8</ele>
        <time>2021-05-21T09:54:15Z</time>
      </trkpt>
      <trkpt lat="42.3666990" lon="-8.6203160">
        <ele>141.7</ele>
        <time>2021-05-21T09:54:16Z</time>
      </trkpt>
      <trkpt lat="42.3666990" lon="-8.6203170">
        <ele>141.7</ele>
        <time>2021-05-21T09:54:17Z</time>
      </trkpt>
      <trkpt lat="42.3666990" lon="-8.6203170">
        <ele>141.7</ele>
        <time>2021-05-21T09:54:18Z</time>
      </trkpt>
      <trkpt lat="42.3666990" lon="-8.6203170">
        <ele>141.7</ele>
        <time>2021-05-21T09:54:19Z</time>
      </trkpt>
      <trkpt lat="42.3666980" lon="-8.6203170">
        <ele>141.7</ele>
        <time>2021-05-21T09:54:20Z</time>
      </trkpt>
      <trkpt lat="42.3666980" lon="-8.6203170">
        <ele>141.7</ele>
        <time>2021-05-21T09:54:21Z</time>
      </trkpt>
      <trkpt lat="42.3666980" lon="-8.6203170">
        <ele>141.7</ele>
        <time>2021-05-21T09:54:22Z</time>
      </trkpt>
      <trkpt lat="42.3666980" lon="-8.6203170">
        <ele>141.7</ele>
        <time>2021-05-21T09:54:23Z</time>
      </trkpt>
      <trkpt lat="42.3666980" lon="-8.6203170">
        <ele>141.7</ele>
        <time>2021-05-21T09:54:24Z</time>
      </trkpt>
      <trkpt lat="42.3666970" lon="-8.6203180">
        <ele>141.7</ele>
        <time>2021-05-21T09:54:25Z</time>
      </trkpt>
      <trkpt lat="42.3666970" lon="-8.6203180">
        <ele>141.7</ele>
        <time>2021-05-21T09:54:26Z</time>
      </trkpt>
      <trkpt lat="42.3666970" lon="-8.6203180">
        <ele>141.7</ele>
        <time>2021-05-21T09:54:27Z</time>
      </trkpt>
      <trkpt lat="42.3666970" lon="-8.6203180">
        <ele>141.7</ele>
        <time>2021-05-21T09:54:28Z</time>
      </trkpt>
      <trkpt lat="42.3666970" lon="-8.6203180">
        <ele>141.7</ele>
        <time>2021-05-21T09:54:29Z</time>
      </trkpt>
      <trkpt lat="42.3666960" lon="-8.6203180">
        <ele>141.7</ele>
        <time>2021-05-21T09:54:30Z</time>
      </trkpt>
      <trkpt lat="42.3666960" lon="-8.6203180">
        <ele>141.7</ele>
        <time>2021-05-21T09:54:31Z</time>
      </trkpt>
      <trkpt lat="42.3666960" lon="-8.6203180">
        <ele>141.7</ele>
        <time>2021-05-21T09:54:32Z</time>
      </trkpt>
      <trkpt lat="42.3666960" lon="-8.6203190">
        <ele>141.7</ele>
        <time>2021-05-21T09:54:33Z</time>
      </trkpt>
      <trkpt lat="42.3666960" lon="-8.6203190">
        <ele>141.7</ele>
        <time>2021-05-21T09:54:34Z</time>
      </trkpt>
      <trkpt lat="42.3666950" lon="-8.6203190">
        <ele>141.7</ele>
        <time>2021-05-21T09:54:35Z</time>
      </trkpt>
      <trkpt lat="42.3666950" lon="-8.6203190">
        <ele>141.7</ele>
        <time>2021-05-21T09:54:36Z</time>
      </trkpt>
      <trkpt lat="42.3666950" lon="-8.6203190">
        <ele>141.7</ele>
        <time>2021-05-21T09:54:37Z</time>
      </trkpt>
      <trkpt lat="42.3666950" lon="-8.6203190">
        <ele>141.7</ele>
        <time>2021-05-21T09:54:38Z</time>
      </trkpt>
      <trkpt lat="42.3666940" lon="-8.6203190">
        <ele>141.7</ele>
        <time>2021-05-21T09:54:39Z</time>
      </trkpt>
      <trkpt lat="42.3666940" lon="-8.6203190">
        <ele>141.7</ele>
        <time>2021-05-21T09:54:40Z</time>
      </trkpt>
      <trkpt lat="42.3666940" lon="-8.6203200">
        <ele>141.7</ele>
        <time>2021-05-21T09:54:41Z</time>
      </trkpt>
      <trkpt lat="42.3666940" lon="-8.6203200">
        <ele>141.7</ele>
        <time>2021-05-21T09:54:42Z</time>
      </trkpt>
      <trkpt lat="42.3666940" lon="-8.6203200">
        <ele>141.7</ele>
        <time>2021-05-21T09:54:43Z</time>
      </trkpt>
      <trkpt lat="42.3666930" lon="-8.6203200">
        <ele>141.7</ele>
        <time>2021-05-21T09:54:44Z</time>
      </trkpt>
      <trkpt lat="42.3666930" lon="-8.6203200">
        <ele>141.7</ele>
        <time>2021-05-21T09:54:45Z</time>
      </trkpt>
      <trkpt lat="42.3666930" lon="-8.6203200">
        <ele>141.7</ele>
        <time>2021-05-21T09:54:46Z</time>
      </trkpt>
      <trkpt lat="42.3666930" lon="-8.6203200">
        <ele>141.7</ele>
        <time>2021-05-21T09:54:47Z</time>
      </trkpt>
      <trkpt lat="42.3666930" lon="-8.6203200">
        <ele>141.7</ele>
        <time>2021-05-21T09:54:48Z</time>
      </trkpt>
      <trkpt lat="42.3666920" lon="-8.6203210">
        <ele>141.7</ele>
        <time>2021-05-21T09:54:49Z</time>
      </trkpt>
      <trkpt lat="42.3666920" lon="-8.6203210">
        <ele>141.7</ele>
        <time>2021-05-21T09:54:50Z</time>
      </trkpt>
      <trkpt lat="42.3666920" lon="-8.6203210">
        <ele>141.7</ele>
        <time>2021-05-21T09:54:51Z</time>
      </trkpt>
      <trkpt lat="42.3666920" lon="-8.6203210">
        <ele>141.7</ele>
        <time>2021-05-21T09:54:52Z</time>
      </trkpt>
      <trkpt lat="42.3666920" lon="-8.6203210">
        <ele>141.7</ele>
        <time>2021-05-21T09:54:53Z</time>
      </trkpt>
      <trkpt lat="42.3666910" lon="-8.6203210">
        <ele>141.7</ele>
        <time>2021-05-21T09:54:54Z</time>
      </trkpt>
      <trkpt lat="42.3666910" lon="-8.6203210">
        <ele>141.7</ele>
        <time>2021-05-21T09:54:55Z</time>
      </trkpt>
      <trkpt lat="42.3666910" lon="-8.6203210">
        <ele>141.7</ele>
        <time>2021-05-21T09:54:56Z</time>
      </trkpt>
      <trkpt lat="42.3666910" lon="-8.6203220">
        <ele>141.7</ele>
        <time>2021-05-21T09:54:57Z</time>
      </trkpt>
      <trkpt lat="42.3666910" lon="-8.6203220">
        <ele>141.7</ele>
        <time>2021-05-21T09:54:58Z</time>
      </trkpt>
      <trkpt lat="42.3666900" lon="-8.6203220">
        <ele>141.7</ele>
        <time>2021-05-21T09:54:59Z</time>
      </trkpt>
      <trkpt lat="42.3666900" lon="-8.6203220">
        <ele>141.7</ele>
        <time>2021-05-21T09:55:00Z</time>
      </trkpt>
      <trkpt lat="42.3666900" lon="-8.6203220">
        <ele>141.7</ele>
        <time>2021-05-21T09:55:01Z</time>
      </trkpt>
      <trkpt lat="42.3666900" lon="-8.6203220">
        <ele>141.7</ele>
        <time>2021-05-21T09:55:02Z</time>
      </trkpt>
      <trkpt lat="42.3666890" lon="-8.6203220">
        <ele>141.7</ele>
        <time>2021-05-21T09:55:03Z</time>
      </trkpt>
      <trkpt lat="42.3666890" lon="-8.6203220">
        <ele>141.7</ele>
        <time>2021-05-21T09:55:04Z</time>
      </trkpt>
      <trkpt lat="42.3666890" lon="-8.6203230">
        <ele>141.7</ele>
        <time>2021-05-21T09:55:05Z</time>
      </trkpt>
      <trkpt lat="42.3666890" lon="-8.6203230">
        <ele>141.7</ele>
        <time>2021-05-21T09:55:06Z</time>
      </trkpt>
      <trkpt lat="42.3666890" lon="-8.6203230">
        <ele>141.7</ele>
        <time>2021-05-21T09:55:07Z</time>
      </trkpt>
      <trkpt lat="42.3666880" lon="-8.6203230">
        <ele>141.7</ele>
        <time>2021-05-21T09:55:08Z</time>
      </trkpt>
      <trkpt lat="42.3666880" lon="-8.6203230">
        <ele>141.7</ele>
        <time>2021-05-21T09:55:09Z</time>
      </trkpt>
      <trkpt lat="42.3666880" lon="-8.6203230">
        <ele>141.7</ele>
        <time>2021-05-21T09:55:10Z</time>
      </trkpt>
      <trkpt lat="42.3666880" lon="-8.6203230">
        <ele>141.7</ele>
        <time>2021-05-21T09:55:11Z</time>
      </trkpt>
      <trkpt lat="42.3666880" lon="-8.6203230">
        <ele>141.7</ele>
        <time>2021-05-21T09:55:12Z</time>
      </trkpt>
      <trkpt lat="42.3666870" lon="-8.6203240">
        <ele>141.7</ele>
        <time>2021-05-21T09:55:13Z</time>
      </trkpt>
      <trkpt lat="42.3666870" lon="-8.6203240">
        <ele>141.7</ele>
        <time>2021-05-21T09:55:14Z</time>
      </trkpt>
      <trkpt lat="42.3666870" lon="-8.6203240">
        <ele>141.7</ele>
        <time>2021-05-21T09:55:15Z</time>
      </trkpt>
      <trkpt lat="42.3666870" lon="-8.6203240">
        <ele>141.7</ele>
        <time>2021-05-21T09:55:16Z</time>
      </trkpt>
      <trkpt lat="42.3666870" lon="-8.6203240">
        <ele>141.7</ele>
        <time>2021-05-21T09:55:17Z</time>
      </trkpt>
      <trkpt lat="42.3666860" lon="-8.6203240">
        <ele>141.7</ele>
        <time>2021-05-21T09:55:18Z</time>
      </trkpt>
      <trkpt lat="42.3666860" lon="-8.6203240">
        <ele>141.7</ele>
        <time>2021-05-21T09:55:19Z</time>
      </trkpt>
      <trkpt lat="42.3666860" lon="-8.6203240">
        <ele>141.7</ele>
        <time>2021-05-21T09:55:20Z</time>
      </trkpt>
      <trkpt lat="42.3666860" lon="-8.6203250">
        <ele>141.7</ele>
        <time>2021-05-21T09:55:21Z</time>
      </trkpt>
      <trkpt lat="42.3666850" lon="-8.6203250">
        <ele>141.7</ele>
        <time>2021-05-21T09:55:22Z</time>
      </trkpt>
      <trkpt lat="42.3666850" lon="-8.6203250">
        <ele>141.7</ele>
        <time>2021-05-21T09:55:23Z</time>
      </trkpt>
      <trkpt lat="42.3666850" lon="-8.6203250">
        <ele>141.7</ele>
        <time>2021-05-21T09:55:24Z</time>
      </trkpt>
      <trkpt lat="42.3666850" lon="-8.6203250">
        <ele>141.7</ele>
        <time>2021-05-21T09:55:25Z</time>
      </trkpt>
      <trkpt lat="42.3666850" lon="-8.6203250">
        <ele>141.7</ele>
        <time>2021-05-21T09:55:26Z</time>
      </trkpt>
      <trkpt lat="42.3666840" lon="-8.6203250">
        <ele>141.7</ele>
        <time>2021-05-21T09:55:27Z</time>
      </trkpt>
      <trkpt lat="42.3666840" lon="-8.6203250">
        <ele>141.7</ele>
        <time>2021-05-21T09:55:28Z</time>
      </trkpt>
      <trkpt lat="42.3666840" lon="-8.6203260">
        <ele>141.7</ele>
        <time>2021-05-21T09:55:29Z</time>
      </trkpt>
      <trkpt lat="42.3666840" lon="-8.6203260">
        <ele>141.7</ele>
        <time>2021-05-21T09:55:30Z</time>
      </trkpt>
      <trkpt lat="42.3666840" lon="-8.6203260">
        <ele>141.7</ele>
        <time>2021-05-21T09:55:31Z</time>
      </trkpt>
      <trkpt lat="42.3666830" lon="-8.6203260">
        <ele>141.7</ele>
        <time>2021-05-21T09:55:32Z</time>
      </trkpt>
      <trkpt lat="42.3666830" lon="-8.6203260">
        <ele>141.7</ele>
        <time>2021-05-21T09:55:33Z</time>
      </trkpt>
      <trkpt lat="42.3666830" lon="-8.6203260">
        <ele>141.7</ele>
        <time>2021-05-21T09:55:34Z</time>
      </trkpt>
      <trkpt lat="42.3666830" lon="-8.6203260">
        <ele>141.7</ele>
        <time>2021-05-21T09:55:35Z</time>
      </trkpt>
      <trkpt lat="42.3666830" lon="-8.6203260">
        <ele>141.7</ele>
        <time>2021-05-21T09:55:36Z</time>
      </trkpt>
      <trkpt lat="42.3666820" lon="-8.6203270">
        <ele>141.7</ele>
        <time>2021-05-21T09:55:37Z</time>
      </trkpt>
      <trkpt lat="42.3666820" lon="-8.6203270">
        <ele>141.7</ele>
        <time>2021-05-21T09:55:38Z</time>
      </trkpt>
      <trkpt lat="42.3666820" lon="-8.6203270">
        <ele>141.7</ele>
        <time>2021-05-21T09:55:39Z</time>
      </trkpt>
      <trkpt lat="42.3666820" lon="-8.6203270">
        <ele>141.7</ele>
        <time>2021-05-21T09:55:40Z</time>
      </trkpt>
      <trkpt lat="42.3666820" lon="-8.6203270">
        <ele>141.7</ele>
        <time>2021-05-21T09:55:41Z</time>
      </trkpt>
      <trkpt lat="42.3666810" lon="-8.6203270">
        <ele>141.7</ele>
        <time>2021-05-21T09:55:42Z</time>
      </trkpt>
      <trkpt lat="42.3666810" lon="-8.6203270">
        <ele>141.7</ele>
        <time>2021-05-21T09:55:43Z</time>
      </trkpt>
      <trkpt lat="42.3666810" lon="-8.6203270">
        <ele>141.7</ele>
        <time>2021-05-21T09:55:44Z</time>
      </trkpt>
      <trkpt lat="42.3666810" lon="-8.6203280">
        <ele>141.7</ele>
        <time>2021-05-21T09:55:45Z</time>
      </trkpt>
      <trkpt lat="42.3666800" lon="-8.6203280">
        <ele>141.7</ele>
        <time>2021-05-21T09:55:46Z</time>
      </trkpt>
      <trkpt lat="42.3666800" lon="-8.6203280">
        <ele>141.7</ele>
        <time>2021-05-21T09:55:47Z</time>
      </trkpt>
      <trkpt lat="42.3666800" lon="-8.6203280">
        <ele>141.7</ele>
        <time>2021-05-21T09:55:48Z</time>
      </trkpt>
      <trkpt lat="42.3666800" lon="-8.6203280">
        <ele>141.7</ele>
        <time>2021-05-21T09:55:49Z</time>
      </trkpt>
      <trkpt lat="42.3666800" lon="-8.6203280">
        <ele>141.7</ele>
        <time>2021-05-21T09:55:50Z</time>
      </trkpt>
      <trkpt lat="42.3666790" lon="-8.6203280">
        <ele>141.7</ele>
        <time>2021-05-21T09:55:51Z</time>
      </trkpt>
      <trkpt lat="42.3666790" lon="-8.6203280">
        <ele>141.8</ele>
        <time>2021-05-21T09:55:52Z</time>
      </trkpt>
      <trkpt lat="42.3666790" lon="-8.6203290">
        <ele>141.8</ele>
        <time>2021-05-21T09:55:53Z</time>
      </trkpt>
      <trkpt lat="42.3666790" lon="-8.6203290">
        <ele>141.8</ele>
        <time>2021-05-21T09:55:54Z</time>
      </trkpt>
      <trkpt lat="42.3666790" lon="-8.6203290">
        <ele>141.8</ele>
        <time>2021-05-21T09:55:55Z</time>
      </trkpt>
      <trkpt lat="42.3666780" lon="-8.6203290">
        <ele>141.8</ele>
        <time>2021-05-21T09:55:56Z</time>
      </trkpt>
      <trkpt lat="42.3666780" lon="-8.6203290">
        <ele>141.8</ele>
        <time>2021-05-21T09:55:57Z</time>
      </trkpt>
      <trkpt lat="42.3666780" lon="-8.6203290">
        <ele>141.8</ele>
        <time>2021-05-21T09:55:58Z</time>
      </trkpt>
      <trkpt lat="42.3666780" lon="-8.6203290">
        <ele>141.8</ele>
        <time>2021-05-21T09:55:59Z</time>
      </trkpt>
      <trkpt lat="42.3666780" lon="-8.6203290">
        <ele>141.8</ele>
        <time>2021-05-21T09:56:00Z</time>
      </trkpt>
      <trkpt lat="42.3666770" lon="-8.6203300">
        <ele>141.8</ele>
        <time>2021-05-21T09:56:01Z</time>
      </trkpt>
      <trkpt lat="42.3666770" lon="-8.6203300">
        <ele>141.8</ele>
        <time>2021-05-21T09:56:02Z</time>
      </trkpt>
      <trkpt lat="42.3666770" lon="-8.6203300">
        <ele>141.8</ele>
        <time>2021-05-21T09:56:03Z</time>
      </trkpt>
      <trkpt lat="42.3666770" lon="-8.6203300">
        <ele>141.8</ele>
        <time>2021-05-21T09:56:04Z</time>
      </trkpt>
      <trkpt lat="42.3666770" lon="-8.6203300">
        <ele>141.8</ele>
        <time>2021-05-21T09:56:05Z</time>
      </trkpt>
      <trkpt lat="42.3666760" lon="-8.6203300">
        <ele>141.8</ele>
        <time>2021-05-21T09:56:06Z</time>
      </trkpt>
      <trkpt lat="42.3666760" lon="-8.6203300">
        <ele>141.8</ele>
        <time>2021-05-21T09:56:07Z</time>
      </trkpt>
      <trkpt lat="42.3666760" lon="-8.6203300">
        <ele>141.8</ele>
        <time>2021-05-21T09:56:08Z</time>
      </trkpt>
      <trkpt lat="42.3666760" lon="-8.6203310">
        <ele>141.8</ele>
        <time>2021-05-21T09:56:09Z</time>
      </trkpt>
      <trkpt lat="42.3666750" lon="-8.6203310">
        <ele>141.8</ele>
        <time>2021-05-21T09:56:10Z</time>
      </trkpt>
      <trkpt lat="42.3666750" lon="-8.6203310">
        <ele>141.8</ele>
        <time>2021-05-21T09:56:11Z</time>
      </trkpt>
      <trkpt lat="42.3666750" lon="-8.6203310">
        <ele>141.8</ele>
        <time>2021-05-21T09:56:12Z</time>
      </trkpt>
      <trkpt lat="42.3666750" lon="-8.6203310">
        <ele>141.9</ele>
        <time>2021-05-21T09:56:13Z</time>
      </trkpt>
      <trkpt lat="42.3666750" lon="-8.6203310">
        <ele>141.9</ele>
        <time>2021-05-21T09:56:14Z</time>
      </trkpt>
      <trkpt lat="42.3666740" lon="-8.6203310">
        <ele>141.9</ele>
        <time>2021-05-21T09:56:15Z</time>
      </trkpt>
      <trkpt lat="42.3666740" lon="-8.6203310">
        <ele>141.9</ele>
        <time>2021-05-21T09:56:16Z</time>
      </trkpt>
      <trkpt lat="42.3666740" lon="-8.6203320">
        <ele>141.9</ele>
        <time>2021-05-21T09:56:17Z</time>
      </trkpt>
      <trkpt lat="42.3666740" lon="-8.6203320">
        <ele>141.9</ele>
        <time>2021-05-21T09:56:18Z</time>
      </trkpt>
      <trkpt lat="42.3666740" lon="-8.6203320">
        <ele>141.9</ele>
        <time>2021-05-21T09:56:19Z</time>
      </trkpt>
      <trkpt lat="42.3666730" lon="-8.6203320">
        <ele>141.9</ele>
        <time>2021-05-21T09:56:20Z</time>
      </trkpt>
      <trkpt lat="42.3666730" lon="-8.6203320">
        <ele>141.9</ele>
        <time>2021-05-21T09:56:21Z</time>
      </trkpt>
      <trkpt lat="42.3666730" lon="-8.6203320">
        <ele>141.9</ele>
        <time>2021-05-21T09:56:22Z</time>
      </trkpt>
      <trkpt lat="42.3666730" lon="-8.6203320">
        <ele>141.9</ele>
        <time>2021-05-21T09:56:23Z</time>
      </trkpt>
      <trkpt lat="42.3666730" lon="-8.6203320">
        <ele>141.9</ele>
        <time>2021-05-21T09:56:24Z</time>
      </trkpt>
      <trkpt lat="42.3666720" lon="-8.6203330">
        <ele>141.9</ele>
        <time>2021-05-21T09:56:25Z</time>
      </trkpt>
      <trkpt lat="42.3666720" lon="-8.6203330">
        <ele>141.9</ele>
        <time>2021-05-21T09:56:26Z</time>
      </trkpt>
      <trkpt lat="42.3666720" lon="-8.6203330">
        <ele>141.9</ele>
        <time>2021-05-21T09:56:27Z</time>
      </trkpt>
      <trkpt lat="42.3666720" lon="-8.6203330">
        <ele>141.9</ele>
        <time>2021-05-21T09:56:28Z</time>
      </trkpt>
      <trkpt lat="42.3666710" lon="-8.6203330">
        <ele>141.9</ele>
        <time>2021-05-21T09:56:29Z</time>
      </trkpt>
      <trkpt lat="42.3666710" lon="-8.6203330">
        <ele>141.9</ele>
        <time>2021-05-21T09:56:30Z</time>
      </trkpt>
      <trkpt lat="42.3666710" lon="-8.6203330">
        <ele>141.9</ele>
        <time>2021-05-21T09:56:31Z</time>
      </trkpt>
      <trkpt lat="42.3666710" lon="-8.6203330">
        <ele>142.0</ele>
        <time>2021-05-21T09:56:32Z</time>
      </trkpt>
      <trkpt lat="42.3666710" lon="-8.6203340">
        <ele>142.0</ele>
        <time>2021-05-21T09:56:33Z</time>
      </trkpt>
      <trkpt lat="42.3666700" lon="-8.6203340">
        <ele>142.0</ele>
        <time>2021-05-21T09:56:34Z</time>
      </trkpt>
      <trkpt lat="42.3666700" lon="-8.6203340">
        <ele>142.0</ele>
        <time>2021-05-21T09:56:35Z</time>
      </trkpt>
      <trkpt lat="42.3666700" lon="-8.6203340">
        <ele>142.0</ele>
        <time>2021-05-21T09:56:36Z</time>
      </trkpt>
      <trkpt lat="42.3666700" lon="-8.6203340">
        <ele>142.0</ele>
        <time>2021-05-21T09:56:37Z</time>
      </trkpt>
      <trkpt lat="42.3666700" lon="-8.6203340">
        <ele>142.0</ele>
        <time>2021-05-21T09:56:38Z</time>
      </trkpt>
      <trkpt lat="42.3666690" lon="-8.6203340">
        <ele>142.0</ele>
        <time>2021-05-21T09:56:39Z</time>
      </trkpt>
      <trkpt lat="42.3666690" lon="-8.6203340">
        <ele>142.0</ele>
        <time>2021-05-21T09:56:40Z</time>
      </trkpt>
      <trkpt lat="42.3666690" lon="-8.6203350">
        <ele>142.1</ele>
        <time>2021-05-21T09:56:41Z</time>
      </trkpt>
      <trkpt lat="42.3666690" lon="-8.6203350">
        <ele>142.1</ele>
        <time>2021-05-21T09:56:42Z</time>
      </trkpt>
      <trkpt lat="42.3666690" lon="-8.6203350">
        <ele>142.1</ele>
        <time>2021-05-21T09:56:43Z</time>
      </trkpt>
      <trkpt lat="42.3666680" lon="-8.6203350">
        <ele>142.1</ele>
        <time>2021-05-21T09:56:44Z</time>
      </trkpt>
      <trkpt lat="42.3666680" lon="-8.6203350">
        <ele>142.1</ele>
        <time>2021-05-21T09:56:45Z</time>
      </trkpt>
      <trkpt lat="42.3666680" lon="-8.6203350">
        <ele>142.1</ele>
        <time>2021-05-21T09:56:46Z</time>
      </trkpt>
      <trkpt lat="42.3666680" lon="-8.6203350">
        <ele>142.1</ele>
        <time>2021-05-21T09:56:47Z</time>
      </trkpt>
      <trkpt lat="42.3666680" lon="-8.6203350">
        <ele>142.1</ele>
        <time>2021-05-21T09:56:48Z</time>
      </trkpt>
      <trkpt lat="42.3666670" lon="-8.6203360">
        <ele>142.1</ele>
        <time>2021-05-21T09:56:49Z</time>
      </trkpt>
      <trkpt lat="42.3666670" lon="-8.6203360">
        <ele>142.1</ele>
        <time>2021-05-21T09:56:50Z</time>
      </trkpt>
      <trkpt lat="42.3666670" lon="-8.6203360">
        <ele>142.1</ele>
        <time>2021-05-21T09:56:51Z</time>
      </trkpt>
      <trkpt lat="42.3666670" lon="-8.6203360">
        <ele>142.1</ele>
        <time>2021-05-21T09:56:52Z</time>
      </trkpt>
      <trkpt lat="42.3666660" lon="-8.6203360">
        <ele>142.1</ele>
        <time>2021-05-21T09:56:53Z</time>
      </trkpt>
      <trkpt lat="42.3666660" lon="-8.6203360">
        <ele>142.1</ele>
        <time>2021-05-21T09:56:54Z</time>
      </trkpt>
      <trkpt lat="42.3666660" lon="-8.6203360">
        <ele>142.1</ele>
        <time>2021-05-21T09:56:55Z</time>
      </trkpt>
      <trkpt lat="42.3666660" lon="-8.6203360">
        <ele>142.1</ele>
        <time>2021-05-21T09:56:56Z</time>
      </trkpt>
      <trkpt lat="42.3666660" lon="-8.6203370">
        <ele>142.2</ele>
        <time>2021-05-21T09:56:57Z</time>
      </trkpt>
      <trkpt lat="42.3666650" lon="-8.6203370">
        <ele>142.1</ele>
        <time>2021-05-21T09:56:58Z</time>
      </trkpt>
      <trkpt lat="42.3666650" lon="-8.6203370">
        <ele>142.1</ele>
        <time>2021-05-21T09:56:59Z</time>
      </trkpt>
      <trkpt lat="42.3666650" lon="-8.6203370">
        <ele>142.1</ele>
        <time>2021-05-21T09:57:00Z</time>
      </trkpt>
      <trkpt lat="42.3666650" lon="-8.6203370">
        <ele>142.2</ele>
        <time>2021-05-21T09:57:01Z</time>
      </trkpt>
      <trkpt lat="42.3666650" lon="-8.6203370">
        <ele>142.2</ele>
        <time>2021-05-21T09:57:02Z</time>
      </trkpt>
      <trkpt lat="42.3666640" lon="-8.6203370">
        <ele>142.2</ele>
        <time>2021-05-21T09:57:03Z</time>
      </trkpt>
      <trkpt lat="42.3666640" lon="-8.6203370">
        <ele>142.2</ele>
        <time>2021-05-21T09:57:04Z</time>
      </trkpt>
      <trkpt lat="42.3666640" lon="-8.6203380">
        <ele>142.2</ele>
        <time>2021-05-21T09:57:05Z</time>
      </trkpt>
      <trkpt lat="42.3666640" lon="-8.6203380">
        <ele>142.2</ele>
        <time>2021-05-21T09:57:06Z</time>
      </trkpt>
      <trkpt lat="42.3666640" lon="-8.6203380">
        <ele>142.2</ele>
        <time>2021-05-21T09:57:07Z</time>
      </trkpt>
      <trkpt lat="42.3666630" lon="-8.6203380">
        <ele>142.2</ele>
        <time>2021-05-21T09:57:08Z</time>
      </trkpt>
      <trkpt lat="42.3666630" lon="-8.6203380">
        <ele>142.2</ele>
        <time>2021-05-21T09:57:09Z</time>
      </trkpt>
      <trkpt lat="42.3666630" lon="-8.6203380">
        <ele>142.2</ele>
        <time>2021-05-21T09:57:10Z</time>
      </trkpt>
      <trkpt lat="42.3666630" lon="-8.6203380">
        <ele>142.2</ele>
        <time>2021-05-21T09:57:11Z</time>
      </trkpt>
      <trkpt lat="42.3666620" lon="-8.6203380">
        <ele>142.2</ele>
        <time>2021-05-21T09:57:12Z</time>
      </trkpt>
      <trkpt lat="42.3666620" lon="-8.6203390">
        <ele>142.2</ele>
        <time>2021-05-21T09:57:13Z</time>
      </trkpt>
      <trkpt lat="42.3666620" lon="-8.6203390">
        <ele>142.2</ele>
        <time>2021-05-21T09:57:14Z</time>
      </trkpt>
      <trkpt lat="42.3666620" lon="-8.6203390">
        <ele>142.3</ele>
        <time>2021-05-21T09:57:15Z</time>
      </trkpt>
      <trkpt lat="42.3666620" lon="-8.6203390">
        <ele>142.3</ele>
        <time>2021-05-21T09:57:16Z</time>
      </trkpt>
      <trkpt lat="42.3666610" lon="-8.6203390">
        <ele>142.3</ele>
        <time>2021-05-21T09:57:17Z</time>
      </trkpt>
      <trkpt lat="42.3666610" lon="-8.6203390">
        <ele>142.3</ele>
        <time>2021-05-21T09:57:18Z</time>
      </trkpt>
      <trkpt lat="42.3666610" lon="-8.6203390">
        <ele>142.3</ele>
        <time>2021-05-21T09:57:19Z</time>
      </trkpt>
      <trkpt lat="42.3666610" lon="-8.6203390">
        <ele>142.3</ele>
        <time>2021-05-21T09:57:20Z</time>
      </trkpt>
      <trkpt lat="42.3666610" lon="-8.6203400">
        <ele>142.3</ele>
        <time>2021-05-21T09:57:21Z</time>
      </trkpt>
      <trkpt lat="42.3666600" lon="-8.6203400">
        <ele>142.3</ele>
        <time>2021-05-21T09:57:22Z</time>
      </trkpt>
      <trkpt lat="42.3666600" lon="-8.6203400">
        <ele>142.3</ele>
        <time>2021-05-21T09:57:23Z</time>
      </trkpt>
      <trkpt lat="42.3666600" lon="-8.6203400">
        <ele>142.3</ele>
        <time>2021-05-21T09:57:24Z</time>
      </trkpt>
      <trkpt lat="42.3666600" lon="-8.6203400">
        <ele>142.3</ele>
        <time>2021-05-21T09:57:25Z</time>
      </trkpt>
      <trkpt lat="42.3666600" lon="-8.6203400">
        <ele>142.3</ele>
        <time>2021-05-21T09:57:26Z</time>
      </trkpt>
      <trkpt lat="42.3666590" lon="-8.6203400">
        <ele>142.3</ele>
        <time>2021-05-21T09:57:27Z</time>
      </trkpt>
      <trkpt lat="42.3666590" lon="-8.6203400">
        <ele>142.3</ele>
        <time>2021-05-21T09:57:28Z</time>
      </trkpt>
      <trkpt lat="42.3666590" lon="-8.6203410">
        <ele>142.3</ele>
        <time>2021-05-21T09:57:29Z</time>
      </trkpt>
      <trkpt lat="42.3666590" lon="-8.6203410">
        <ele>142.3</ele>
        <time>2021-05-21T09:57:30Z</time>
      </trkpt>
      <trkpt lat="42.3666590" lon="-8.6203410">
        <ele>142.3</ele>
        <time>2021-05-21T09:57:31Z</time>
      </trkpt>
      <trkpt lat="42.3666580" lon="-8.6203410">
        <ele>142.3</ele>
        <time>2021-05-21T09:57:32Z</time>
      </trkpt>
      <trkpt lat="42.3666580" lon="-8.6203410">
        <ele>142.3</ele>
        <time>2021-05-21T09:57:33Z</time>
      </trkpt>
      <trkpt lat="42.3666580" lon="-8.6203410">
        <ele>142.3</ele>
        <time>2021-05-21T09:57:34Z</time>
      </trkpt>
      <trkpt lat="42.3666580" lon="-8.6203410">
        <ele>142.3</ele>
        <time>2021-05-21T09:57:35Z</time>
      </trkpt>
      <trkpt lat="42.3666570" lon="-8.6203410">
        <ele>142.3</ele>
        <time>2021-05-21T09:57:36Z</time>
      </trkpt>
      <trkpt lat="42.3666570" lon="-8.6203420">
        <ele>142.3</ele>
        <time>2021-05-21T09:57:37Z</time>
      </trkpt>
      <trkpt lat="42.3666570" lon="-8.6203420">
        <ele>142.3</ele>
        <time>2021-05-21T09:57:38Z</time>
      </trkpt>
      <trkpt lat="42.3666570" lon="-8.6203420">
        <ele>142.3</ele>
        <time>2021-05-21T09:57:39Z</time>
      </trkpt>
      <trkpt lat="42.3666570" lon="-8.6203420">
        <ele>142.3</ele>
        <time>2021-05-21T09:57:40Z</time>
      </trkpt>
      <trkpt lat="42.3666560" lon="-8.6203420">
        <ele>142.3</ele>
        <time>2021-05-21T09:57:41Z</time>
      </trkpt>
      <trkpt lat="42.3666560" lon="-8.6203420">
        <ele>142.3</ele>
        <time>2021-05-21T09:57:42Z</time>
      </trkpt>
      <trkpt lat="42.3666560" lon="-8.6203420">
        <ele>142.3</ele>
        <time>2021-05-21T09:57:43Z</time>
      </trkpt>
      <trkpt lat="42.3666560" lon="-8.6203420">
        <ele>142.3</ele>
        <time>2021-05-21T09:57:44Z</time>
      </trkpt>
      <trkpt lat="42.3666560" lon="-8.6203430">
        <ele>142.3</ele>
        <time>2021-05-21T09:57:45Z</time>
      </trkpt>
      <trkpt lat="42.3666550" lon="-8.6203430">
        <ele>142.3</ele>
        <time>2021-05-21T09:57:46Z</time>
      </trkpt>
      <trkpt lat="42.3666550" lon="-8.6203430">
        <ele>142.3</ele>
        <time>2021-05-21T09:57:47Z</time>
      </trkpt>
      <trkpt lat="42.3666550" lon="-8.6203430">
        <ele>142.3</ele>
        <time>2021-05-21T09:57:48Z</time>
      </trkpt>
      <trkpt lat="42.3666550" lon="-8.6203430">
        <ele>142.3</ele>
        <time>2021-05-21T09:57:49Z</time>
      </trkpt>
      <trkpt lat="42.3666550" lon="-8.6203430">
        <ele>142.3</ele>
        <time>2021-05-21T09:57:50Z</time>
      </trkpt>
      <trkpt lat="42.3666540" lon="-8.6203430">
        <ele>142.3</ele>
        <time>2021-05-21T09:57:51Z</time>
      </trkpt>
      <trkpt lat="42.3666540" lon="-8.6203430">
        <ele>142.3</ele>
        <time>2021-05-21T09:57:52Z</time>
      </trkpt>
      <trkpt lat="42.3666540" lon="-8.6203440">
        <ele>142.3</ele>
        <time>2021-05-21T09:57:53Z</time>
      </trkpt>
      <trkpt lat="42.3666540" lon="-8.6203440">
        <ele>142.3</ele>
        <time>2021-05-21T09:57:54Z</time>
      </trkpt>
      <trkpt lat="42.3666530" lon="-8.6203440">
        <ele>142.3</ele>
        <time>2021-05-21T09:57:55Z</time>
      </trkpt>
      <trkpt lat="42.3666530" lon="-8.6203440">
        <ele>142.3</ele>
        <time>2021-05-21T09:57:56Z</time>
      </trkpt>
      <trkpt lat="42.3666530" lon="-8.6203440">
        <ele>142.3</ele>
        <time>2021-05-21T09:57:57Z</time>
      </trkpt>
      <trkpt lat="42.3666530" lon="-8.6203440">
        <ele>142.3</ele>
        <time>2021-05-21T09:57:58Z</time>
      </trkpt>
      <trkpt lat="42.3666530" lon="-8.6203440">
        <ele>142.3</ele>
        <time>2021-05-21T09:57:59Z</time>
      </trkpt>
      <trkpt lat="42.3666520" lon="-8.6203440">
        <ele>142.3</ele>
        <time>2021-05-21T09:58:00Z</time>
      </trkpt>
      <trkpt lat="42.3666520" lon="-8.6203450">
        <ele>142.3</ele>
        <time>2021-05-21T09:58:01Z</time>
      </trkpt>
      <trkpt lat="42.3666520" lon="-8.6203450">
        <ele>142.3</ele>
        <time>2021-05-21T09:58:02Z</time>
      </trkpt>
      <trkpt lat="42.3666520" lon="-8.6203450">
        <ele>142.3</ele>
        <time>2021-05-21T09:58:03Z</time>
      </trkpt>
      <trkpt lat="42.3666520" lon="-8.6203450">
        <ele>142.3</ele>
        <time>2021-05-21T09:58:04Z</time>
      </trkpt>
      <trkpt lat="42.3666510" lon="-8.6203450">
        <ele>142.3</ele>
        <time>2021-05-21T09:58:05Z</time>
      </trkpt>
      <trkpt lat="42.3666510" lon="-8.6203450">
        <ele>142.3</ele>
        <time>2021-05-21T09:58:06Z</time>
      </trkpt>
      <trkpt lat="42.3666510" lon="-8.6203450">
        <ele>142.3</ele>
        <time>2021-05-21T09:58:07Z</time>
      </trkpt>
      <trkpt lat="42.3666510" lon="-8.6203450">
        <ele>142.3</ele>
        <time>2021-05-21T09:58:08Z</time>
      </trkpt>
      <trkpt lat="42.3666510" lon="-8.6203460">
        <ele>142.3</ele>
        <time>2021-05-21T09:58:09Z</time>
      </trkpt>
      <trkpt lat="42.3666500" lon="-8.6203460">
        <ele>142.3</ele>
        <time>2021-05-21T09:58:10Z</time>
      </trkpt>
      <trkpt lat="42.3666500" lon="-8.6203460">
        <ele>142.3</ele>
        <time>2021-05-21T09:58:11Z</time>
      </trkpt>
      <trkpt lat="42.3666500" lon="-8.6203460">
        <ele>142.3</ele>
        <time>2021-05-21T09:58:12Z</time>
      </trkpt>
      <trkpt lat="42.3666500" lon="-8.6203460">
        <ele>142.3</ele>
        <time>2021-05-21T09:58:13Z</time>
      </trkpt>
      <trkpt lat="42.3666500" lon="-8.6203460">
        <ele>142.3</ele>
        <time>2021-05-21T09:58:14Z</time>
      </trkpt>
      <trkpt lat="42.3666490" lon="-8.6203460">
        <ele>142.3</ele>
        <time>2021-05-21T09:58:15Z</time>
      </trkpt>
      <trkpt lat="42.3666490" lon="-8.6203460">
        <ele>142.3</ele>
        <time>2021-05-21T09:58:16Z</time>
      </trkpt>
      <trkpt lat="42.3666490" lon="-8.6203470">
        <ele>142.3</ele>
        <time>2021-05-21T09:58:17Z</time>
      </trkpt>
      <trkpt lat="42.3666490" lon="-8.6203470">
        <ele>142.3</ele>
        <time>2021-05-21T09:58:18Z</time>
      </trkpt>
      <trkpt lat="42.3666480" lon="-8.6203470">
        <ele>142.3</ele>
        <time>2021-05-21T09:58:19Z</time>
      </trkpt>
      <trkpt lat="42.3666480" lon="-8.6203470">
        <ele>142.3</ele>
        <time>2021-05-21T09:58:20Z</time>
      </trkpt>
      <trkpt lat="42.3666480" lon="-8.6203470">
        <ele>142.3</ele>
        <time>2021-05-21T09:58:21Z</time>
      </trkpt>
      <trkpt lat="42.3666480" lon="-8.6203470">
        <ele>142.3</ele>
        <time>2021-05-21T09:58:22Z</time>
      </trkpt>
      <trkpt lat="42.3666480" lon="-8.6203470">
        <ele>142.3</ele>
        <time>2021-05-21T09:58:23Z</time>
      </trkpt>
      <trkpt lat="42.3666470" lon="-8.6203470">
        <ele>142.3</ele>
        <time>2021-05-21T09:58:24Z</time>
      </trkpt>
      <trkpt lat="42.3666470" lon="-8.6203480">
        <ele>142.3</ele>
        <time>2021-05-21T09:58:25Z</time>
      </trkpt>
      <trkpt lat="42.3666470" lon="-8.6203480">
        <ele>142.3</ele>
        <time>2021-05-21T09:58:26Z</time>
      </trkpt>
      <trkpt lat="42.3666470" lon="-8.6203480">
        <ele>142.3</ele>
        <time>2021-05-21T09:58:27Z</time>
      </trkpt>
      <trkpt lat="42.3666470" lon="-8.6203480">
        <ele>142.3</ele>
        <time>2021-05-21T09:58:28Z</time>
      </trkpt>
      <trkpt lat="42.3666460" lon="-8.6203480">
        <ele>142.3</ele>
        <time>2021-05-21T09:58:29Z</time>
      </trkpt>
      <trkpt lat="42.3666460" lon="-8.6203480">
        <ele>142.3</ele>
        <time>2021-05-21T09:58:30Z</time>
      </trkpt>
      <trkpt lat="42.3666460" lon="-8.6203480">
        <ele>142.3</ele>
        <time>2021-05-21T09:58:31Z</time>
      </trkpt>
      <trkpt lat="42.3666460" lon="-8.6203480">
        <ele>142.3</ele>
        <time>2021-05-21T09:58:32Z</time>
      </trkpt>
      <trkpt lat="42.3666460" lon="-8.6203490">
        <ele>142.3</ele>
        <time>2021-05-21T09:58:33Z</time>
      </trkpt>
      <trkpt lat="42.3666450" lon="-8.6203490">
        <ele>142.3</ele>
        <time>2021-05-21T09:58:34Z</time>
      </trkpt>
      <trkpt lat="42.3666450" lon="-8.6203490">
        <ele>142.3</ele>
        <time>2021-05-21T09:58:35Z</time>
      </trkpt>
      <trkpt lat="42.3666450" lon="-8.6203490">
        <ele>142.3</ele>
        <time>2021-05-21T09:58:36Z</time>
      </trkpt>
      <trkpt lat="42.3666450" lon="-8.6203490">
        <ele>142.3</ele>
        <time>2021-05-21T09:58:37Z</time>
      </trkpt>
      <trkpt lat="42.3666440" lon="-8.6203490">
        <ele>142.3</ele>
        <time>2021-05-21T09:58:38Z</time>
      </trkpt>
      <trkpt lat="42.3666440" lon="-8.6203490">
        <ele>142.3</ele>
        <time>2021-05-21T09:58:39Z</time>
      </trkpt>
      <trkpt lat="42.3666440" lon="-8.6203490">
        <ele>142.3</ele>
        <time>2021-05-21T09:58:40Z</time>
      </trkpt>
      <trkpt lat="42.3666440" lon="-8.6203500">
        <ele>142.3</ele>
        <time>2021-05-21T09:58:41Z</time>
      </trkpt>
      <trkpt lat="42.3666440" lon="-8.6203500">
        <ele>142.3</ele>
        <time>2021-05-21T09:58:42Z</time>
      </trkpt>
      <trkpt lat="42.3666430" lon="-8.6203500">
        <ele>142.3</ele>
        <time>2021-05-21T09:58:43Z</time>
      </trkpt>
      <trkpt lat="42.3666430" lon="-8.6203500">
        <ele>142.3</ele>
        <time>2021-05-21T09:58:44Z</time>
      </trkpt>
      <trkpt lat="42.3666430" lon="-8.6203500">
        <ele>142.3</ele>
        <time>2021-05-21T09:58:45Z</time>
      </trkpt>
      <trkpt lat="42.3666430" lon="-8.6203500">
        <ele>142.3</ele>
        <time>2021-05-21T09:58:46Z</time>
      </trkpt>
      <trkpt lat="42.3666430" lon="-8.6203500">
        <ele>142.3</ele>
        <time>2021-05-21T09:58:47Z</time>
      </trkpt>
      <trkpt lat="42.3666420" lon="-8.6203500">
        <ele>142.3</ele>
        <time>2021-05-21T09:58:48Z</time>
      </trkpt>
      <trkpt lat="42.3666420" lon="-8.6203510">
        <ele>142.3</ele>
        <time>2021-05-21T09:58:49Z</time>
      </trkpt>
      <trkpt lat="42.3666420" lon="-8.6203510">
        <ele>142.3</ele>
        <time>2021-05-21T09:58:50Z</time>
      </trkpt>
      <trkpt lat="42.3666420" lon="-8.6203510">
        <ele>142.3</ele>
        <time>2021-05-21T09:58:51Z</time>
      </trkpt>
      <trkpt lat="42.3666420" lon="-8.6203510">
        <ele>142.3</ele>
        <time>2021-05-21T09:58:52Z</time>
      </trkpt>
      <trkpt lat="42.3666410" lon="-8.6203510">
        <ele>142.3</ele>
        <time>2021-05-21T09:58:53Z</time>
      </trkpt>
      <trkpt lat="42.3666410" lon="-8.6203510">
        <ele>142.3</ele>
        <time>2021-05-21T09:58:54Z</time>
      </trkpt>
      <trkpt lat="42.3666410" lon="-8.6203510">
        <ele>142.3</ele>
        <time>2021-05-21T09:58:55Z</time>
      </trkpt>
      <trkpt lat="42.3666410" lon="-8.6203510">
        <ele>142.3</ele>
        <time>2021-05-21T09:58:56Z</time>
      </trkpt>
      <trkpt lat="42.3666410" lon="-8.6203520">
        <ele>142.3</ele>
        <time>2021-05-21T09:58:57Z</time>
      </trkpt>
      <trkpt lat="42.3666400" lon="-8.6203520">
        <ele>142.3</ele>
        <time>2021-05-21T09:58:58Z</time>
      </trkpt>
      <trkpt lat="42.3666400" lon="-8.6203520">
        <ele>142.3</ele>
        <time>2021-05-21T09:58:59Z</time>
      </trkpt>
      <trkpt lat="42.3666400" lon="-8.6203520">
        <ele>142.3</ele>
        <time>2021-05-21T09:59:00Z</time>
      </trkpt>
      <trkpt lat="42.3666400" lon="-8.6203520">
        <ele>142.3</ele>
        <time>2021-05-21T09:59:01Z</time>
      </trkpt>
      <trkpt lat="42.3666390" lon="-8.6203520">
        <ele>142.3</ele>
        <time>2021-05-21T09:59:02Z</time>
      </trkpt>
      <trkpt lat="42.3666390" lon="-8.6203520">
        <ele>142.3</ele>
        <time>2021-05-21T09:59:03Z</time>
      </trkpt>
      <trkpt lat="42.3666390" lon="-8.6203520">
        <ele>142.3</ele>
        <time>2021-05-21T09:59:04Z</time>
      </trkpt>
      <trkpt lat="42.3666390" lon="-8.6203530">
        <ele>142.3</ele>
        <time>2021-05-21T09:59:05Z</time>
      </trkpt>
      <trkpt lat="42.3666390" lon="-8.6203530">
        <ele>142.3</ele>
        <time>2021-05-21T09:59:06Z</time>
      </trkpt>
      <trkpt lat="42.3666380" lon="-8.6203530">
        <ele>142.3</ele>
        <time>2021-05-21T09:59:07Z</time>
      </trkpt>
      <trkpt lat="42.3666380" lon="-8.6203530">
        <ele>142.3</ele>
        <time>2021-05-21T09:59:08Z</time>
      </trkpt>
      <trkpt lat="42.3666380" lon="-8.6203530">
        <ele>142.3</ele>
        <time>2021-05-21T09:59:09Z</time>
      </trkpt>
      <trkpt lat="42.3666400" lon="-8.6203510">
        <ele>142.3</ele>
        <time>2021-05-21T09:59:10Z</time>
      </trkpt>
      <trkpt lat="42.3666410" lon="-8.6203480">
        <ele>142.3</ele>
        <time>2021-05-21T09:59:11Z</time>
      </trkpt>
      <trkpt lat="42.3666430" lon="-8.6203460">
        <ele>142.3</ele>
        <time>2021-05-21T09:59:12Z</time>
      </trkpt>
      <trkpt lat="42.3666460" lon="-8.6203430">
        <ele>142.3</ele>
        <time>2021-05-21T09:59:13Z</time>
      </trkpt>
      <trkpt lat="42.3666590" lon="-8.6203410">
        <ele>142.3</ele>
        <time>2021-05-21T09:59:14Z</time>
      </trkpt>
      <trkpt lat="42.3666680" lon="-8.6203350">
        <ele>142.3</ele>
        <time>2021-05-21T09:59:15Z</time>
      </trkpt>
      <trkpt lat="42.3666770" lon="-8.6203320">
        <ele>142.3</ele>
        <time>2021-05-21T09:59:16Z</time>
      </trkpt>
      <trkpt lat="42.3666850" lon="-8.6203240">
        <ele>142.4</ele>
        <time>2021-05-21T09:59:17Z</time>
      </trkpt>
      <trkpt lat="42.3666990" lon="-8.6203240">
        <ele>142.4</ele>
        <time>2021-05-21T09:59:18Z</time>
      </trkpt>
      <trkpt lat="42.3667020" lon="-8.6203330">
        <ele>142.4</ele>
        <time>2021-05-21T09:59:19Z</time>
      </trkpt>
      <trkpt lat="42.3667120" lon="-8.6203390">
        <ele>142.4</ele>
        <time>2021-05-21T09:59:20Z</time>
      </trkpt>
      <trkpt lat="42.3667220" lon="-8.6203500">
        <ele>142.4</ele>
        <time>2021-05-21T09:59:21Z</time>
      </trkpt>
      <trkpt lat="42.3667330" lon="-8.6203730">
        <ele>142.5</ele>
        <time>2021-05-21T09:59:22Z</time>
      </trkpt>
      <trkpt lat="42.3667360" lon="-8.6203840">
        <ele>142.5</ele>
        <time>2021-05-21T09:59:23Z</time>
      </trkpt>
      <trkpt lat="42.3667390" lon="-8.6203950">
        <ele>142.5</ele>
        <time>2021-05-21T09:59:24Z</time>
      </trkpt>
      <trkpt lat="42.3667380" lon="-8.6203960">
        <ele>142.5</ele>
        <time>2021-05-21T09:59:25Z</time>
      </trkpt>
      <trkpt lat="42.3667410" lon="-8.6203970">
        <ele>142.5</ele>
        <time>2021-05-21T09:59:26Z</time>
      </trkpt>
      <trkpt lat="42.3667450" lon="-8.6203980">
        <ele>142.5</ele>
        <time>2021-05-21T09:59:27Z</time>
      </trkpt>
      <trkpt lat="42.3667490" lon="-8.6203990">
        <ele>142.5</ele>
        <time>2021-05-21T09:59:28Z</time>
      </trkpt>
      <trkpt lat="42.3667530" lon="-8.6204000">
        <ele>142.5</ele>
        <time>2021-05-21T09:59:29Z</time>
      </trkpt>
      <trkpt lat="42.3667560" lon="-8.6204020">
        <ele>142.5</ele>
        <time>2021-05-21T09:59:30Z</time>
      </trkpt>
      <trkpt lat="42.3667600" lon="-8.6204030">
        <ele>142.5</ele>
        <time>2021-05-21T09:59:31Z</time>
      </trkpt>
      <trkpt lat="42.3667640" lon="-8.6204040">
        <ele>142.6</ele>
        <time>2021-05-21T09:59:32Z</time>
      </trkpt>
      <trkpt lat="42.3667680" lon="-8.6204050">
        <ele>142.6</ele>
        <time>2021-05-21T09:59:33Z</time>
      </trkpt>
      <trkpt lat="42.3667710" lon="-8.6204060">
        <ele>142.6</ele>
        <time>2021-05-21T09:59:34Z</time>
      </trkpt>
      <trkpt lat="42.3667750" lon="-8.6204070">
        <ele>142.6</ele>
        <time>2021-05-21T09:59:35Z</time>
      </trkpt>
      <trkpt lat="42.3667740" lon="-8.6204030">
        <ele>142.6</ele>
        <time>2021-05-21T09:59:36Z</time>
      </trkpt>
      <trkpt lat="42.3667830" lon="-8.6203980">
        <ele>142.6</ele>
        <time>2021-05-21T09:59:37Z</time>
      </trkpt>
      <trkpt lat="42.3667830" lon="-8.6203980">
        <ele>142.6</ele>
        <time>2021-05-21T09:59:38Z</time>
      </trkpt>
      <trkpt lat="42.3667830" lon="-8.6203980">
        <ele>142.6</ele>
        <time>2021-05-21T09:59:39Z</time>
      </trkpt>
      <trkpt lat="42.3667890" lon="-8.6203980">
        <ele>142.6</ele>
        <time>2021-05-21T09:59:40Z</time>
      </trkpt>
      <trkpt lat="42.3668060" lon="-8.6203960">
        <ele>142.7</ele>
        <time>2021-05-21T09:59:41Z</time>
      </trkpt>
      <trkpt lat="42.3668120" lon="-8.6203950">
        <ele>142.7</ele>
        <time>2021-05-21T09:59:42Z</time>
      </trkpt>
      <trkpt lat="42.3668190" lon="-8.6203940">
        <ele>142.7</ele>
        <time>2021-05-21T09:59:43Z</time>
      </trkpt>
      <trkpt lat="42.3668250" lon="-8.6203930">
        <ele>142.7</ele>
        <time>2021-05-21T09:59:44Z</time>
      </trkpt>
      <trkpt lat="42.3668320" lon="-8.6203920">
        <ele>142.7</ele>
        <time>2021-05-21T09:59:45Z</time>
      </trkpt>
      <trkpt lat="42.3668380" lon="-8.6203900">
        <ele>142.7</ele>
        <time>2021-05-21T09:59:46Z</time>
      </trkpt>
      <trkpt lat="42.3668440" lon="-8.6203890">
        <ele>142.8</ele>
        <time>2021-05-21T09:59:47Z</time>
      </trkpt>
      <trkpt lat="42.3668510" lon="-8.6203880">
        <ele>142.8</ele>
        <time>2021-05-21T09:59:48Z</time>
      </trkpt>
      <trkpt lat="42.3668570" lon="-8.6203870">
        <ele>142.8</ele>
        <time>2021-05-21T09:59:49Z</time>
      </trkpt>
      <trkpt lat="42.3668620" lon="-8.6203860">
        <ele>142.8</ele>
        <time>2021-05-21T09:59:50Z</time>
      </trkpt>
      <trkpt lat="42.3668650" lon="-8.6203840">
        <ele>142.8</ele>
        <time>2021-05-21T09:59:51Z</time>
      </trkpt>
      <trkpt lat="42.3668650" lon="-8.6203840">
        <ele>142.8</ele>
        <time>2021-05-21T09:59:52Z</time>
      </trkpt>
      <trkpt lat="42.3668650" lon="-8.6203840">
        <ele>142.8</ele>
        <time>2021-05-21T09:59:53Z</time>
      </trkpt>
      <trkpt lat="42.3668680" lon="-8.6203960">
        <ele>142.8</ele>
        <time>2021-05-21T09:59:54Z</time>
      </trkpt>
      <trkpt lat="42.3668700" lon="-8.6203980">
        <ele>142.8</ele>
        <time>2021-05-21T09:59:55Z</time>
      </trkpt>
      <trkpt lat="42.3668730" lon="-8.6203960">
        <ele>142.8</ele>
        <time>2021-05-21T09:59:56Z</time>
      </trkpt>
      <trkpt lat="42.3668790" lon="-8.6203820">
        <ele>142.9</ele>
        <time>2021-05-21T09:59:57Z</time>
      </trkpt>
      <trkpt lat="42.3668800" lon="-8.6203630">
        <ele>142.9</ele>
        <time>2021-05-21T09:59:58Z</time>
      </trkpt>
      <trkpt lat="42.3668770" lon="-8.6203550">
        <ele>142.9</ele>
        <time>2021-05-21T09:59:59Z</time>
      </trkpt>
      <trkpt lat="42.3668740" lon="-8.6203410">
        <ele>143.0</ele>
        <time>2021-05-21T10:00:00Z</time>
      </trkpt>
      <trkpt lat="42.3668790" lon="-8.6203300">
        <ele>143.0</ele>
        <time>2021-05-21T10:00:01Z</time>
      </trkpt>
      <trkpt lat="42.3668840" lon="-8.6203220">
        <ele>143.0</ele>
        <time>2021-05-21T10:00:02Z</time>
      </trkpt>
      <trkpt lat="42.3668780" lon="-8.6203020">
        <ele>143.0</ele>
        <time>2021-05-21T10:00:03Z</time>
      </trkpt>
      <trkpt lat="42.3668660" lon="-8.6202920">
        <ele>143.1</ele>
        <time>2021-05-21T10:00:04Z</time>
      </trkpt>
      <trkpt lat="42.3668550" lon="-8.6202830">
        <ele>143.1</ele>
        <time>2021-05-21T10:00:05Z</time>
      </trkpt>
      <trkpt lat="42.3668250" lon="-8.6202740">
        <ele>143.1</ele>
        <time>2021-05-21T10:00:06Z</time>
      </trkpt>
      <trkpt lat="42.3668130" lon="-8.6202710">
        <ele>143.2</ele>
        <time>2021-05-21T10:00:07Z</time>
      </trkpt>
      <trkpt lat="42.3668030" lon="-8.6202670">
        <ele>143.2</ele>
        <time>2021-05-21T10:00:08Z</time>
      </trkpt>
      <trkpt lat="42.3667990" lon="-8.6202680">
        <ele>143.2</ele>
        <time>2021-05-21T10:00:09Z</time>
      </trkpt>
      <trkpt lat="42.3667800" lon="-8.6202600">
        <ele>143.2</ele>
        <time>2021-05-21T10:00:10Z</time>
      </trkpt>
      <trkpt lat="42.3667720" lon="-8.6202570">
        <ele>143.2</ele>
        <time>2021-05-21T10:00:11Z</time>
      </trkpt>
      <trkpt lat="42.3667610" lon="-8.6202460">
        <ele>143.2</ele>
        <time>2021-05-21T10:00:12Z</time>
      </trkpt>
      <trkpt lat="42.3667490" lon="-8.6202480">
        <ele>143.2</ele>
        <time>2021-05-21T10:00:13Z</time>
      </trkpt>
      <trkpt lat="42.3667490" lon="-8.6202470">
        <ele>143.2</ele>
        <time>2021-05-21T10:00:14Z</time>
      </trkpt>
      <trkpt lat="42.3667430" lon="-8.6202430">
        <ele>143.2</ele>
        <time>2021-05-21T10:00:15Z</time>
      </trkpt>
      <trkpt lat="42.3667390" lon="-8.6202470">
        <ele>143.2</ele>
        <time>2021-05-21T10:00:16Z</time>
      </trkpt>
      <trkpt lat="42.3667370" lon="-8.6202410">
        <ele>143.2</ele>
        <time>2021-05-21T10:00:17Z</time>
      </trkpt>
      <trkpt lat="42.3667340" lon="-8.6202370">
        <ele>143.2</ele>
        <time>2021-05-21T10:00:18Z</time>
      </trkpt>
      <trkpt lat="42.3667340" lon="-8.6202280">
        <ele>143.2</ele>
        <time>2021-05-21T10:00:19Z</time>
      </trkpt>
      <trkpt lat="42.3667320" lon="-8.6202230">
        <ele>143.2</ele>
        <time>2021-05-21T10:00:20Z</time>
      </trkpt>
      <trkpt lat="42.3667310" lon="-8.6202160">
        <ele>143.2</ele>
        <time>2021-05-21T10:00:21Z</time>
      </trkpt>
      <trkpt lat="42.3667320" lon="-8.6202110">
        <ele>143.2</ele>
        <time>2021-05-21T10:00:22Z</time>
      </trkpt>
      <trkpt lat="42.3667320" lon="-8.6202120">
        <ele>143.2</ele>
        <time>2021-05-21T10:00:23Z</time>
      </trkpt>
      <trkpt lat="42.3667320" lon="-8.6202110">
        <ele>143.2</ele>
        <time>2021-05-21T10:00:24Z</time>
      </trkpt>
      <trkpt lat="42.3667350" lon="-8.6202050">
        <ele>143.2</ele>
        <time>2021-05-21T10:00:25Z</time>
      </trkpt>
      <trkpt lat="42.3667390" lon="-8.6202010">
        <ele>143.2</ele>
        <time>2021-05-21T10:00:26Z</time>
      </trkpt>
      <trkpt lat="42.3667390" lon="-8.6201920">
        <ele>143.2</ele>
        <time>2021-05-21T10:00:27Z</time>
      </trkpt>
      <trkpt lat="42.3667420" lon="-8.6201880">
        <ele>143.2</ele>
        <time>2021-05-21T10:00:28Z</time>
      </trkpt>
      <trkpt lat="42.3667420" lon="-8.6201800">
        <ele>143.2</ele>
        <time>2021-05-21T10:00:29Z</time>
      </trkpt>
      <trkpt lat="42.3667490" lon="-8.6201790">
        <ele>143.2</ele>
        <time>2021-05-21T10:00:30Z</time>
      </trkpt>
      <trkpt lat="42.3667550" lon="-8.6201810">
        <ele>143.2</ele>
        <time>2021-05-21T10:00:31Z</time>
      </trkpt>
      <trkpt lat="42.3667610" lon="-8.6201810">
        <ele>143.2</ele>
        <time>2021-05-21T10:00:32Z</time>
      </trkpt>
      <trkpt lat="42.3667630" lon="-8.6201830">
        <ele>143.2</ele>
        <time>2021-05-21T10:00:33Z</time>
      </trkpt>
      <trkpt lat="42.3667630" lon="-8.6201850">
        <ele>143.2</ele>
        <time>2021-05-21T10:00:34Z</time>
      </trkpt>
      <trkpt lat="42.3667650" lon="-8.6201880">
        <ele>143.2</ele>
        <time>2021-05-21T10:00:35Z</time>
      </trkpt>
      <trkpt lat="42.3667660" lon="-8.6201940">
        <ele>143.2</ele>
        <time>2021-05-21T10:00:36Z</time>
      </trkpt>
      <trkpt lat="42.3667670" lon="-8.6202010">
        <ele>143.2</ele>
        <time>2021-05-21T10:00:37Z</time>
      </trkpt>
      <trkpt lat="42.3667670" lon="-8.6202010">
        <ele>143.2</ele>
        <time>2021-05-21T10:00:38Z</time>
      </trkpt>
      <trkpt lat="42.3667680" lon="-8.6202090">
        <ele>143.2</ele>
        <time>2021-05-21T10:00:39Z</time>
      </trkpt>
      <trkpt lat="42.3667710" lon="-8.6202080">
        <ele>143.2</ele>
        <time>2021-05-21T10:00:40Z</time>
      </trkpt>
      <trkpt lat="42.3667720" lon="-8.6202120">
        <ele>143.2</ele>
        <time>2021-05-21T10:00:41Z</time>
      </trkpt>
      <trkpt lat="42.3667740" lon="-8.6202190">
        <ele>143.1</ele>
        <time>2021-05-21T10:00:42Z</time>
      </trkpt>
      <trkpt lat="42.3667720" lon="-8.6202230">
        <ele>143.1</ele>
        <time>2021-05-21T10:00:43Z</time>
      </trkpt>
      <trkpt lat="42.3667740" lon="-8.6202260">
        <ele>143.1</ele>
        <time>2021-05-21T10:00:44Z</time>
      </trkpt>
      <trkpt lat="42.3667750" lon="-8.6202270">
        <ele>143.1</ele>
        <time>2021-05-21T10:00:45Z</time>
      </trkpt>
      <trkpt lat="42.3667770" lon="-8.6202290">
        <ele>143.1</ele>
        <time>2021-05-21T10:00:46Z</time>
      </trkpt>
      <trkpt lat="42.3667780" lon="-8.6202320">
        <ele>143.1</ele>
        <time>2021-05-21T10:00:47Z</time>
      </trkpt>
      <trkpt lat="42.3667810" lon="-8.6202350">
        <ele>143.1</ele>
        <time>2021-05-21T10:00:48Z</time>
      </trkpt>
      <trkpt lat="42.3667840" lon="-8.6202330">
        <ele>143.1</ele>
        <time>2021-05-21T10:00:49Z</time>
      </trkpt>
      <trkpt lat="42.3667870" lon="-8.6202350">
        <ele>143.1</ele>
        <time>2021-05-21T10:00:50Z</time>
      </trkpt>
      <trkpt lat="42.3667900" lon="-8.6202340">
        <ele>143.1</ele>
        <time>2021-05-21T10:00:51Z</time>
      </trkpt>
      <trkpt lat="42.3667920" lon="-8.6202350">
        <ele>143.1</ele>
        <time>2021-05-21T10:00:52Z</time>
      </trkpt>
      <trkpt lat="42.3667890" lon="-8.6202360">
        <ele>143.1</ele>
        <time>2021-05-21T10:00:53Z</time>
      </trkpt>
      <trkpt lat="42.3667840" lon="-8.6202360">
        <ele>143.1</ele>
        <time>2021-05-21T10:00:54Z</time>
      </trkpt>
      <trkpt lat="42.3667840" lon="-8.6202350">
        <ele>143.1</ele>
        <time>2021-05-21T10:00:55Z</time>
      </trkpt>
      <trkpt lat="42.3667860" lon="-8.6202330">
        <ele>143.1</ele>
        <time>2021-05-21T10:00:56Z</time>
      </trkpt>
      <trkpt lat="42.3667860" lon="-8.6202320">
        <ele>143.1</ele>
        <time>2021-05-21T10:00:57Z</time>
      </trkpt>
      <trkpt lat="42.3667890" lon="-8.6202300">
        <ele>143.1</ele>
        <time>2021-05-21T10:00:58Z</time>
      </trkpt>
      <trkpt lat="42.3667880" lon="-8.6202320">
        <ele>143.1</ele>
        <time>2021-05-21T10:00:59Z</time>
      </trkpt>
      <trkpt lat="42.3667850" lon="-8.6202320">
        <ele>143.1</ele>
        <time>2021-05-21T10:01:00Z</time>
      </trkpt>
      <trkpt lat="42.3667810" lon="-8.6202320">
        <ele>143.1</ele>
        <time>2021-05-21T10:01:01Z</time>
      </trkpt>
      <trkpt lat="42.3667850" lon="-8.6202310">
        <ele>143.0</ele>
        <time>2021-05-21T10:01:02Z</time>
      </trkpt>
      <trkpt lat="42.3667870" lon="-8.6202290">
        <ele>143.0</ele>
        <time>2021-05-21T10:01:03Z</time>
      </trkpt>
      <trkpt lat="42.3667900" lon="-8.6202210">
        <ele>143.0</ele>
        <time>2021-05-21T10:01:04Z</time>
      </trkpt>
      <trkpt lat="42.3667910" lon="-8.6202170">
        <ele>143.0</ele>
        <time>2021-05-21T10:01:05Z</time>
      </trkpt>
      <trkpt lat="42.3667910" lon="-8.6202170">
        <ele>143.0</ele>
        <time>2021-05-21T10:01:06Z</time>
      </trkpt>
      <trkpt lat="42.3667900" lon="-8.6202170">
        <ele>143.0</ele>
        <time>2021-05-21T10:01:07Z</time>
      </trkpt>
      <trkpt lat="42.3667910" lon="-8.6202170">
        <ele>143.0</ele>
        <time>2021-05-21T10:01:08Z</time>
      </trkpt>
      <trkpt lat="42.3667920" lon="-8.6202180">
        <ele>143.0</ele>
        <time>2021-05-21T10:01:09Z</time>
      </trkpt>
      <trkpt lat="42.3667940" lon="-8.6202150">
        <ele>143.0</ele>
        <time>2021-05-21T10:01:10Z</time>
      </trkpt>
      <trkpt lat="42.3668050" lon="-8.6202150">
        <ele>143.0</ele>
        <time>2021-05-21T10:01:11Z</time>
      </trkpt>
      <trkpt lat="42.3668050" lon="-8.6202130">
        <ele>142.9</ele>
        <time>2021-05-21T10:01:12Z</time>
      </trkpt>
      <trkpt lat="42.3668060" lon="-8.6202150">
        <ele>142.9</ele>
        <time>2021-05-21T10:01:13Z</time>
      </trkpt>
      <trkpt lat="42.3668090" lon="-8.6202200">
        <ele>142.9</ele>
        <time>2021-05-21T10:01:14Z</time>
      </trkpt>
      <trkpt lat="42.3668090" lon="-8.6202200">
        <ele>142.9</ele>
        <time>2021-05-21T10:01:15Z</time>
      </trkpt>
      <trkpt lat="42.3668030" lon="-8.6202230">
        <ele>142.9</ele>
        <time>2021-05-21T10:01:16Z</time>
      </trkpt>
      <trkpt lat="42.3667960" lon="-8.6202250">
        <ele>142.9</ele>
        <time>2021-05-21T10:01:17Z</time>
      </trkpt>
      <trkpt lat="42.3667890" lon="-8.6202270">
        <ele>142.9</ele>
        <time>2021-05-21T10:01:18Z</time>
      </trkpt>
      <trkpt lat="42.3667850" lon="-8.6202310">
        <ele>142.8</ele>
        <time>2021-05-21T10:01:19Z</time>
      </trkpt>
      <trkpt lat="42.3667850" lon="-8.6202390">
        <ele>142.8</ele>
        <time>2021-05-21T10:01:20Z</time>
      </trkpt>
      <trkpt lat="42.3667870" lon="-8.6202370">
        <ele>142.8</ele>
        <time>2021-05-21T10:01:21Z</time>
      </trkpt>
      <trkpt lat="42.3667870" lon="-8.6202360">
        <ele>142.8</ele>
        <time>2021-05-21T10:01:22Z</time>
      </trkpt>
      <trkpt lat="42.3667840" lon="-8.6202390">
        <ele>142.8</ele>
        <time>2021-05-21T10:01:23Z</time>
      </trkpt>
      <trkpt lat="42.3667820" lon="-8.6202410">
        <ele>142.8</ele>
        <time>2021-05-21T10:01:24Z</time>
      </trkpt>
      <trkpt lat="42.3667810" lon="-8.6202370">
        <ele>142.8</ele>
        <time>2021-05-21T10:01:25Z</time>
      </trkpt>
      <trkpt lat="42.3667800" lon="-8.6202310">
        <ele>142.7</ele>
        <time>2021-05-21T10:01:26Z</time>
      </trkpt>
      <trkpt lat="42.3667750" lon="-8.6202310">
        <ele>142.7</ele>
        <time>2021-05-21T10:01:27Z</time>
      </trkpt>
      <trkpt lat="42.3667790" lon="-8.6202200">
        <ele>142.7</ele>
        <time>2021-05-21T10:01:28Z</time>
      </trkpt>
      <trkpt lat="42.3667800" lon="-8.6202130">
        <ele>142.7</ele>
        <time>2021-05-21T10:01:29Z</time>
      </trkpt>
      <trkpt lat="42.3667770" lon="-8.6202070">
        <ele>142.6</ele>
        <time>2021-05-21T10:01:30Z</time>
      </trkpt>
      <trkpt lat="42.3667790" lon="-8.6202030">
        <ele>142.6</ele>
        <time>2021-05-21T10:01:31Z</time>
      </trkpt>
      <trkpt lat="42.3667720" lon="-8.6202010">
        <ele>142.6</ele>
        <time>2021-05-21T10:01:32Z</time>
      </trkpt>
      <trkpt lat="42.3667710" lon="-8.6202030">
        <ele>142.6</ele>
        <time>2021-05-21T10:01:33Z</time>
      </trkpt>
      <trkpt lat="42.3667710" lon="-8.6202040">
        <ele>142.6</ele>
        <time>2021-05-21T10:01:34Z</time>
      </trkpt>
      <trkpt lat="42.3667700" lon="-8.6202060">
        <ele>142.6</ele>
        <time>2021-05-21T10:01:35Z</time>
      </trkpt>
      <trkpt lat="42.3667690" lon="-8.6202070">
        <ele>142.6</ele>
        <time>2021-05-21T10:01:36Z</time>
      </trkpt>
      <trkpt lat="42.3667680" lon="-8.6202080">
        <ele>142.6</ele>
        <time>2021-05-21T10:01:37Z</time>
      </trkpt>
      <trkpt lat="42.3667680" lon="-8.6202100">
        <ele>142.6</ele>
        <time>2021-05-21T10:01:38Z</time>
      </trkpt>
      <trkpt lat="42.3667670" lon="-8.6202110">
        <ele>142.5</ele>
        <time>2021-05-21T10:01:39Z</time>
      </trkpt>
      <trkpt lat="42.3667660" lon="-8.6202130">
        <ele>142.5</ele>
        <time>2021-05-21T10:01:40Z</time>
      </trkpt>
      <trkpt lat="42.3667650" lon="-8.6202140">
        <ele>142.5</ele>
        <time>2021-05-21T10:01:41Z</time>
      </trkpt>
      <trkpt lat="42.3667640" lon="-8.6202150">
        <ele>142.5</ele>
        <time>2021-05-21T10:01:42Z</time>
      </trkpt>
      <trkpt lat="42.3667640" lon="-8.6202170">
        <ele>142.5</ele>
        <time>2021-05-21T10:01:43Z</time>
      </trkpt>
      <trkpt lat="42.3667630" lon="-8.6202180">
        <ele>142.5</ele>
        <time>2021-05-21T10:01:44Z</time>
      </trkpt>
      <trkpt lat="42.3667620" lon="-8.6202200">
        <ele>142.5</ele>
        <time>2021-05-21T10:01:45Z</time>
      </trkpt>
      <trkpt lat="42.3667610" lon="-8.6202210">
        <ele>142.5</ele>
        <time>2021-05-21T10:01:46Z</time>
      </trkpt>
      <trkpt lat="42.3667610" lon="-8.6202230">
        <ele>142.5</ele>
        <time>2021-05-21T10:01:47Z</time>
      </trkpt>
      <trkpt lat="42.3667600" lon="-8.6202240">
        <ele>142.5</ele>
        <time>2021-05-21T10:01:48Z</time>
      </trkpt>
      <trkpt lat="42.3667590" lon="-8.6202250">
        <ele>142.5</ele>
        <time>2021-05-21T10:01:49Z</time>
      </trkpt>
      <trkpt lat="42.3667580" lon="-8.6202270">
        <ele>142.5</ele>
        <time>2021-05-21T10:01:50Z</time>
      </trkpt>
      <trkpt lat="42.3667570" lon="-8.6202280">
        <ele>142.4</ele>
        <time>2021-05-21T10:01:51Z</time>
      </trkpt>
      <trkpt lat="42.3667570" lon="-8.6202300">
        <ele>142.4</ele>
        <time>2021-05-21T10:01:52Z</time>
      </trkpt>
      <trkpt lat="42.3667560" lon="-8.6202310">
        <ele>142.4</ele>
        <time>2021-05-21T10:01:53Z</time>
      </trkpt>
      <trkpt lat="42.3667550" lon="-8.6202320">
        <ele>142.4</ele>
        <time>2021-05-21T10:01:54Z</time>
      </trkpt>
      <trkpt lat="42.3667540" lon="-8.6202340">
        <ele>142.4</ele>
        <time>2021-05-21T10:01:55Z</time>
      </trkpt>
      <trkpt lat="42.3667540" lon="-8.6202350">
        <ele>142.4</ele>
        <time>2021-05-21T10:01:56Z</time>
      </trkpt>
      <trkpt lat="42.3667530" lon="-8.6202370">
        <ele>142.4</ele>
        <time>2021-05-21T10:01:57Z</time>
      </trkpt>
      <trkpt lat="42.3667520" lon="-8.6202380">
        <ele>142.4</ele>
        <time>2021-05-21T10:01:58Z</time>
      </trkpt>
      <trkpt lat="42.3667450" lon="-8.6202440">
        <ele>142.3</ele>
        <time>2021-05-21T10:01:59Z</time>
      </trkpt>
      <trkpt lat="42.3667350" lon="-8.6202440">
        <ele>142.3</ele>
        <time>2021-05-21T10:02:00Z</time>
      </trkpt>
      <trkpt lat="42.3667330" lon="-8.6202500">
        <ele>142.3</ele>
        <time>2021-05-21T10:02:01Z</time>
      </trkpt>
      <trkpt lat="42.3667260" lon="-8.6202540">
        <ele>142.2</ele>
        <time>2021-05-21T10:02:02Z</time>
      </trkpt>
      <trkpt lat="42.3667180" lon="-8.6202600">
        <ele>142.1</ele>
        <time>2021-05-21T10:02:03Z</time>
      </trkpt>
      <trkpt lat="42.3667130" lon="-8.6202600">
        <ele>142.1</ele>
        <time>2021-05-21T10:02:04Z</time>
      </trkpt>
      <trkpt lat="42.3667120" lon="-8.6202630">
        <ele>142.1</ele>
        <time>2021-05-21T10:02:05Z</time>
      </trkpt>
      <trkpt lat="42.3667080" lon="-8.6202680">
        <ele>142.1</ele>
        <time>2021-05-21T10:02:06Z</time>
      </trkpt>
      <trkpt lat="42.3667030" lon="-8.6202750">
        <ele>142.0</ele>
        <time>2021-05-21T10:02:07Z</time>
      </trkpt>
      <trkpt lat="42.3667010" lon="-8.6202810">
        <ele>142.0</ele>
        <time>2021-05-21T10:02:08Z</time>
      </trkpt>
      <trkpt lat="42.3667020" lon="-8.6202840">
        <ele>142.0</ele>
        <time>2021-05-21T10:02:09Z</time>
      </trkpt>
      <trkpt lat="42.3667000" lon="-8.6202890">
        <ele>141.9</ele>
        <time>2021-05-21T10:02:10Z</time>
      </trkpt>
      <trkpt lat="42.3667010" lon="-8.6202930">
        <ele>141.9</ele>
        <time>2021-05-21T10:02:11Z</time>
      </trkpt>
      <trkpt lat="42.3666990" lon="-8.6202970">
        <ele>141.9</ele>
        <time>2021-05-21T10:02:12Z</time>
      </trkpt>
      <trkpt lat="42.3667000" lon="-8.6202990">
        <ele>141.9</ele>
        <time>2021-05-21T10:02:13Z</time>
      </trkpt>
      <trkpt lat="42.3667010" lon="-8.6203010">
        <ele>141.8</ele>
        <time>2021-05-21T10:02:14Z</time>
      </trkpt>
      <trkpt lat="42.3667030" lon="-8.6203080">
        <ele>141.8</ele>
        <time>2021-05-21T10:02:15Z</time>
      </trkpt>
      <trkpt lat="42.3667050" lon="-8.6203010">
        <ele>141.8</ele>
        <time>2021-05-21T10:02:16Z</time>
      </trkpt>
      <trkpt lat="42.3667020" lon="-8.6203060">
        <ele>141.7</ele>
        <time>2021-05-21T10:02:17Z</time>
      </trkpt>
      <trkpt lat="42.3667000" lon="-8.6203080">
        <ele>141.7</ele>
        <time>2021-05-21T10:02:18Z</time>
      </trkpt>
      <trkpt lat="42.3666940" lon="-8.6203100">
        <ele>141.7</ele>
        <time>2021-05-21T10:02:19Z</time>
      </trkpt>
      <trkpt lat="42.3666890" lon="-8.6203200">
        <ele>141.6</ele>
        <time>2021-05-21T10:02:20Z</time>
      </trkpt>
      <trkpt lat="42.3666850" lon="-8.6203250">
        <ele>141.5</ele>
        <time>2021-05-21T10:02:21Z</time>
      </trkpt>
      <trkpt lat="42.3666840" lon="-8.6203180">
        <ele>141.5</ele>
        <time>2021-05-21T10:02:22Z</time>
      </trkpt>
      <trkpt lat="42.3666810" lon="-8.6203220">
        <ele>141.5</ele>
        <time>2021-05-21T10:02:23Z</time>
      </trkpt>
      <trkpt lat="42.3666770" lon="-8.6203200">
        <ele>141.4</ele>
        <time>2021-05-21T10:02:24Z</time>
      </trkpt>
      <trkpt lat="42.3666740" lon="-8.6203170">
        <ele>141.4</ele>
        <time>2021-05-21T10:02:25Z</time>
      </trkpt>
      <trkpt lat="42.3666720" lon="-8.6203130">
        <ele>141.4</ele>
        <time>2021-05-21T10:02:26Z</time>
      </trkpt>
      <trkpt lat="42.3666690" lon="-8.6203140">
        <ele>141.3</ele>
        <time>2021-05-21T10:02:27Z</time>
      </trkpt>
      <trkpt lat="42.3666650" lon="-8.6203160">
        <ele>141.3</ele>
        <time>2021-05-21T10:02:28Z</time>
      </trkpt>
      <trkpt lat="42.3666630" lon="-8.6203180">
        <ele>141.3</ele>
        <time>2021-05-21T10:02:29Z</time>
      </trkpt>
      <trkpt lat="42.3666580" lon="-8.6203230">
        <ele>141.2</ele>
        <time>2021-05-21T10:02:30Z</time>
      </trkpt>
      <trkpt lat="42.3666580" lon="-8.6203230">
        <ele>141.2</ele>
        <time>2021-05-21T10:02:31Z</time>
      </trkpt>
      <trkpt lat="42.3666540" lon="-8.6203230">
        <ele>141.2</ele>
        <time>2021-05-21T10:02:32Z</time>
      </trkpt>
      <trkpt lat="42.3666520" lon="-8.6203230">
        <ele>141.2</ele>
        <time>2021-05-21T10:02:33Z</time>
      </trkpt>
      <trkpt lat="42.3666510" lon="-8.6203310">
        <ele>141.1</ele>
        <time>2021-05-21T10:02:34Z</time>
      </trkpt>
      <trkpt lat="42.3666510" lon="-8.6203300">
        <ele>141.1</ele>
        <time>2021-05-21T10:02:35Z</time>
      </trkpt>
      <trkpt lat="42.3666490" lon="-8.6203340">
        <ele>141.1</ele>
        <time>2021-05-21T10:02:36Z</time>
      </trkpt>
      <trkpt lat="42.3666480" lon="-8.6203320">
        <ele>141.1</ele>
        <time>2021-05-21T10:02:37Z</time>
      </trkpt>
      <trkpt lat="42.3666440" lon="-8.6203330">
        <ele>141.0</ele>
        <time>2021-05-21T10:02:38Z</time>
      </trkpt>
      <trkpt lat="42.3666440" lon="-8.6203330">
        <ele>141.0</ele>
        <time>2021-05-21T10:02:39Z</time>
      </trkpt>
      <trkpt lat="42.3666480" lon="-8.6203240">
        <ele>141.0</ele>
        <time>2021-05-21T10:02:40Z</time>
      </trkpt>
      <trkpt lat="42.3666490" lon="-8.6203240">
        <ele>141.0</ele>
        <time>2021-05-21T10:02:41Z</time>
      </trkpt>
      <trkpt lat="42.3666500" lon="-8.6203260">
        <ele>140.9</ele>
        <time>2021-05-21T10:02:42Z</time>
      </trkpt>
      <trkpt lat="42.3666510" lon="-8.6203280">
        <ele>140.9</ele>
        <time>2021-05-21T10:02:43Z</time>
      </trkpt>
      <trkpt lat="42.3666500" lon="-8.6203320">
        <ele>140.9</ele>
        <time>2021-05-21T10:02:44Z</time>
      </trkpt>
      <trkpt lat="42.3666440" lon="-8.6203390">
        <ele>140.8</ele>
        <time>2021-05-21T10:02:45Z</time>
      </trkpt>
      <trkpt lat="42.3666430" lon="-8.6203420">
        <ele>140.8</ele>
        <time>2021-05-21T10:02:46Z</time>
      </trkpt>
      <trkpt lat="42.3666450" lon="-8.6203440">
        <ele>140.8</ele>
        <time>2021-05-21T10:02:47Z</time>
      </trkpt>
      <trkpt lat="42.3666460" lon="-8.6203490">
        <ele>140.8</ele>
        <time>2021-05-21T10:02:48Z</time>
      </trkpt>
      <trkpt lat="42.3666520" lon="-8.6203450">
        <ele>140.7</ele>
        <time>2021-05-21T10:02:49Z</time>
      </trkpt>
      <trkpt lat="42.3666720" lon="-8.6203450">
        <ele>140.5</ele>
        <time>2021-05-21T10:02:50Z</time>
      </trkpt>
      <trkpt lat="42.3666780" lon="-8.6203540">
        <ele>140.4</ele>
        <time>2021-05-21T10:02:51Z</time>
      </trkpt>
      <trkpt lat="42.3666840" lon="-8.6203600">
        <ele>140.4</ele>
        <time>2021-05-21T10:02:52Z</time>
      </trkpt>
      <trkpt lat="42.3666990" lon="-8.6203650">
        <ele>140.2</ele>
        <time>2021-05-21T10:02:53Z</time>
      </trkpt>
      <trkpt lat="42.3667240" lon="-8.6203680">
        <ele>140.0</ele>
        <time>2021-05-21T10:02:54Z</time>
      </trkpt>
      <trkpt lat="42.3667350" lon="-8.6203690">
        <ele>139.9</ele>
        <time>2021-05-21T10:02:55Z</time>
      </trkpt>
      <trkpt lat="42.3667450" lon="-8.6203710">
        <ele>139.8</ele>
        <time>2021-05-21T10:02:56Z</time>
      </trkpt>
      <trkpt lat="42.3667560" lon="-8.6203760">
        <ele>139.7</ele>
        <time>2021-05-21T10:02:57Z</time>
      </trkpt>
      <trkpt lat="42.3667700" lon="-8.6203820">
        <ele>139.5</ele>
        <time>2021-05-21T10:02:58Z</time>
      </trkpt>
      <trkpt lat="42.3667800" lon="-8.6203850">
        <ele>139.4</ele>
        <time>2021-05-21T10:02:59Z</time>
      </trkpt>
      <trkpt lat="42.3667960" lon="-8.6203960">
        <ele>139.3</ele>
        <time>2021-05-21T10:03:00Z</time>
      </trkpt>
      <trkpt lat="42.3668050" lon="-8.6204040">
        <ele>139.2</ele>
        <time>2021-05-21T10:03:01Z</time>
      </trkpt>
      <trkpt lat="42.3668150" lon="-8.6204120">
        <ele>139.1</ele>
        <time>2021-05-21T10:03:02Z</time>
      </trkpt>
      <trkpt lat="42.3668340" lon="-8.6204100">
        <ele>138.9</ele>
        <time>2021-05-21T10:03:03Z</time>
      </trkpt>
      <trkpt lat="42.3668500" lon="-8.6204120">
        <ele>138.7</ele>
        <time>2021-05-21T10:03:04Z</time>
      </trkpt>
      <trkpt lat="42.3668680" lon="-8.6204140">
        <ele>138.6</ele>
        <time>2021-05-21T10:03:05Z</time>
      </trkpt>
      <trkpt lat="42.3668820" lon="-8.6204160">
        <ele>138.4</ele>
        <time>2021-05-21T10:03:06Z</time>
      </trkpt>
      <trkpt lat="42.3669000" lon="-8.6204070">
        <ele>138.3</ele>
        <time>2021-05-21T10:03:07Z</time>
      </trkpt>
      <trkpt lat="42.3669120" lon="-8.6204170">
        <ele>138.1</ele>
        <time>2021-05-21T10:03:08Z</time>
      </trkpt>
      <trkpt lat="42.3669280" lon="-8.6204230">
        <ele>138.0</ele>
        <time>2021-05-21T10:03:09Z</time>
      </trkpt>
      <trkpt lat="42.3669400" lon="-8.6204340">
        <ele>137.8</ele>
        <time>2021-05-21T10:03:10Z</time>
      </trkpt>
      <trkpt lat="42.3669500" lon="-8.6204390">
        <ele>137.7</ele>
        <time>2021-05-21T10:03:11Z</time>
      </trkpt>
      <trkpt lat="42.3669610" lon="-8.6204440">
        <ele>137.6</ele>
        <time>2021-05-21T10:03:12Z</time>
      </trkpt>
      <trkpt lat="42.3669720" lon="-8.6204460">
        <ele>137.5</ele>
        <time>2021-05-21T10:03:13Z</time>
      </trkpt>
      <trkpt lat="42.3669940" lon="-8.6204730">
        <ele>137.2</ele>
        <time>2021-05-21T10:03:14Z</time>
      </trkpt>
      <trkpt lat="42.3670020" lon="-8.6204790">
        <ele>137.1</ele>
        <time>2021-05-21T10:03:15Z</time>
      </trkpt>
      <trkpt lat="42.3670140" lon="-8.6204780">
        <ele>137.0</ele>
        <time>2021-05-21T10:03:16Z</time>
      </trkpt>
      <trkpt lat="42.3670170" lon="-8.6204840">
        <ele>137.0</ele>
        <time>2021-05-21T10:03:17Z</time>
      </trkpt>
      <trkpt lat="42.3670360" lon="-8.6204920">
        <ele>136.8</ele>
        <time>2021-05-21T10:03:18Z</time>
      </trkpt>
      <trkpt lat="42.3670500" lon="-8.6205040">
        <ele>136.6</ele>
        <time>2021-05-21T10:03:19Z</time>
      </trkpt>
      <trkpt lat="42.3670580" lon="-8.6205120">
        <ele>136.5</ele>
        <time>2021-05-21T10:03:20Z</time>
      </trkpt>
      <trkpt lat="42.3670670" lon="-8.6205200">
        <ele>136.4</ele>
        <time>2021-05-21T10:03:21Z</time>
      </trkpt>
      <trkpt lat="42.3670840" lon="-8.6205240">
        <ele>136.2</ele>
        <time>2021-05-21T10:03:22Z</time>
      </trkpt>
      <trkpt lat="42.3670970" lon="-8.6205300">
        <ele>136.1</ele>
        <time>2021-05-21T10:03:23Z</time>
      </trkpt>
      <trkpt lat="42.3671070" lon="-8.6205320">
        <ele>136.0</ele>
        <time>2021-05-21T10:03:24Z</time>
      </trkpt>
      <trkpt lat="42.3671160" lon="-8.6205340">
        <ele>135.9</ele>
        <time>2021-05-21T10:03:25Z</time>
      </trkpt>
      <trkpt lat="42.3671330" lon="-8.6205330">
        <ele>135.7</ele>
        <time>2021-05-21T10:03:26Z</time>
      </trkpt>
      <trkpt lat="42.3671520" lon="-8.6205380">
        <ele>135.5</ele>
        <time>2021-05-21T10:03:27Z</time>
      </trkpt>
      <trkpt lat="42.3671610" lon="-8.6205400">
        <ele>135.4</ele>
        <time>2021-05-21T10:03:28Z</time>
      </trkpt>
      <trkpt lat="42.3671700" lon="-8.6205410">
        <ele>135.3</ele>
        <time>2021-05-21T10:03:29Z</time>
      </trkpt>
      <trkpt lat="42.3671890" lon="-8.6205520">
        <ele>135.1</ele>
        <time>2021-05-21T10:03:30Z</time>
      </trkpt>
      <trkpt lat="42.3671960" lon="-8.6205560">
        <ele>135.0</ele>
        <time>2021-05-21T10:03:31Z</time>
      </trkpt>
      <trkpt lat="42.3672040" lon="-8.6205600">
        <ele>135.0</ele>
        <time>2021-05-21T10:03:32Z</time>
      </trkpt>
      <trkpt lat="42.3672120" lon="-8.6205680">
        <ele>134.9</ele>
        <time>2021-05-21T10:03:33Z</time>
      </trkpt>
      <trkpt lat="42.3672310" lon="-8.6205710">
        <ele>134.7</ele>
        <time>2021-05-21T10:03:34Z</time>
      </trkpt>
      <trkpt lat="42.3672490" lon="-8.6205830">
        <ele>134.5</ele>
        <time>2021-05-21T10:03:35Z</time>
      </trkpt>
      <trkpt lat="42.3672550" lon="-8.6205830">
        <ele>134.4</ele>
        <time>2021-05-21T10:03:36Z</time>
      </trkpt>
      <trkpt lat="42.3672620" lon="-8.6205840">
        <ele>134.4</ele>
        <time>2021-05-21T10:03:37Z</time>
      </trkpt>
      <trkpt lat="42.3672680" lon="-8.6205840">
        <ele>134.3</ele>
        <time>2021-05-21T10:03:38Z</time>
      </trkpt>
      <trkpt lat="42.3672840" lon="-8.6205800">
        <ele>134.1</ele>
        <time>2021-05-21T10:03:39Z</time>
      </trkpt>
      <trkpt lat="42.3672980" lon="-8.6205720">
        <ele>134.0</ele>
        <time>2021-05-21T10:03:40Z</time>
      </trkpt>
      <trkpt lat="42.3672950" lon="-8.6205790">
        <ele>133.9</ele>
        <time>2021-05-21T10:03:41Z</time>
      </trkpt>
      <trkpt lat="42.3673040" lon="-8.6205780">
        <ele>133.9</ele>
        <time>2021-05-21T10:03:42Z</time>
      </trkpt>
      <trkpt lat="42.3673160" lon="-8.6205850">
        <ele>133.7</ele>
        <time>2021-05-21T10:03:43Z</time>
      </trkpt>
      <trkpt lat="42.3673290" lon="-8.6205780">
        <ele>133.6</ele>
        <time>2021-05-21T10:03:44Z</time>
      </trkpt>
      <trkpt lat="42.3673400" lon="-8.6205830">
        <ele>133.5</ele>
        <time>2021-05-21T10:03:45Z</time>
      </trkpt>
      <trkpt lat="42.3673540" lon="-8.6205800">
        <ele>133.4</ele>
        <time>2021-05-21T10:03:46Z</time>
      </trkpt>
      <trkpt lat="42.3673650" lon="-8.6205800">
        <ele>133.3</ele>
        <time>2021-05-21T10:03:47Z</time>
      </trkpt>
      <trkpt lat="42.3673860" lon="-8.6205780">
        <ele>133.1</ele>
        <time>2021-05-21T10:03:48Z</time>
      </trkpt>
      <trkpt lat="42.3673950" lon="-8.6205760">
        <ele>133.0</ele>
        <time>2021-05-21T10:03:49Z</time>
      </trkpt>
      <trkpt lat="42.3674040" lon="-8.6205740">
        <ele>132.9</ele>
        <time>2021-05-21T10:03:50Z</time>
      </trkpt>
      <trkpt lat="42.3674200" lon="-8.6205780">
        <ele>132.7</ele>
        <time>2021-05-21T10:03:51Z</time>
      </trkpt>
      <trkpt lat="42.3674380" lon="-8.6205800">
        <ele>132.6</ele>
        <time>2021-05-21T10:03:52Z</time>
      </trkpt>
      <trkpt lat="42.3674480" lon="-8.6205750">
        <ele>132.5</ele>
        <time>2021-05-21T10:03:53Z</time>
      </trkpt>
      <trkpt lat="42.3674650" lon="-8.6205750">
        <ele>132.3</ele>
        <time>2021-05-21T10:03:54Z</time>
      </trkpt>
      <trkpt lat="42.3674800" lon="-8.6205800">
        <ele>132.2</ele>
        <time>2021-05-21T10:03:55Z</time>
      </trkpt>
      <trkpt lat="42.3674810" lon="-8.6205940">
        <ele>132.1</ele>
        <time>2021-05-21T10:03:56Z</time>
      </trkpt>
      <trkpt lat="42.3674870" lon="-8.6206060">
        <ele>132.0</ele>
        <time>2021-05-21T10:03:57Z</time>
      </trkpt>
      <trkpt lat="42.3675160" lon="-8.6206080">
        <ele>131.7</ele>
        <time>2021-05-21T10:03:58Z</time>
      </trkpt>
      <trkpt lat="42.3675260" lon="-8.6206100">
        <ele>131.6</ele>
        <time>2021-05-21T10:03:59Z</time>
      </trkpt>
      <trkpt lat="42.3675360" lon="-8.6206140">
        <ele>131.5</ele>
        <time>2021-05-21T10:04:00Z</time>
      </trkpt>
      <trkpt lat="42.3675570" lon="-8.6206200">
        <ele>131.3</ele>
        <time>2021-05-21T10:04:01Z</time>
      </trkpt>
      <trkpt lat="42.3675650" lon="-8.6206260">
        <ele>131.2</ele>
        <time>2021-05-21T10:04:02Z</time>
      </trkpt>
      <trkpt lat="42.3675650" lon="-8.6206320">
        <ele>131.1</ele>
        <time>2021-05-21T10:04:03Z</time>
      </trkpt>
      <trkpt lat="42.3675880" lon="-8.6206410">
        <ele>130.9</ele>
        <time>2021-05-21T10:04:04Z</time>
      </trkpt>
      <trkpt lat="42.3676000" lon="-8.6206440">
        <ele>130.8</ele>
        <time>2021-05-21T10:04:05Z</time>
      </trkpt>
      <trkpt lat="42.3676160" lon="-8.6206500">
        <ele>130.6</ele>
        <time>2021-05-21T10:04:06Z</time>
      </trkpt>
      <trkpt lat="42.3676380" lon="-8.6206550">
        <ele>130.4</ele>
        <time>2021-05-21T10:04:07Z</time>
      </trkpt>
      <trkpt lat="42.3676470" lon="-8.6206580">
        <ele>130.3</ele>
        <time>2021-05-21T10:04:08Z</time>
      </trkpt>
      <trkpt lat="42.3676550" lon="-8.6206610">
        <ele>130.2</ele>
        <time>2021-05-21T10:04:09Z</time>
      </trkpt>
      <trkpt lat="42.3676750" lon="-8.6206750">
        <ele>130.0</ele>
        <time>2021-05-21T10:04:10Z</time>
      </trkpt>
      <trkpt lat="42.3676830" lon="-8.6206830">
        <ele>129.9</ele>
        <time>2021-05-21T10:04:11Z</time>
      </trkpt>
      <trkpt lat="42.3676900" lon="-8.6206900">
        <ele>129.8</ele>
        <time>2021-05-21T10:04:12Z</time>
      </trkpt>
      <trkpt lat="42.3676850" lon="-8.6207020">
        <ele>129.7</ele>
        <time>2021-05-21T10:04:13Z</time>
      </trkpt>
      <trkpt lat="42.3676890" lon="-8.6207130">
        <ele>129.6</ele>
        <time>2021-05-21T10:04:14Z</time>
      </trkpt>
      <trkpt lat="42.3677030" lon="-8.6207230">
        <ele>129.5</ele>
        <time>2021-05-21T10:04:15Z</time>
      </trkpt>
      <trkpt lat="42.3677240" lon="-8.6207280">
        <ele>129.3</ele>
        <time>2021-05-21T10:04:16Z</time>
      </trkpt>
      <trkpt lat="42.3677390" lon="-8.6207310">
        <ele>129.1</ele>
        <time>2021-05-21T10:04:17Z</time>
      </trkpt>
      <trkpt lat="42.3677370" lon="-8.6207390">
        <ele>129.0</ele>
        <time>2021-05-21T10:04:18Z</time>
      </trkpt>
      <trkpt lat="42.3677570" lon="-8.6207460">
        <ele>128.8</ele>
        <time>2021-05-21T10:04:19Z</time>
      </trkpt>
      <trkpt lat="42.3677620" lon="-8.6207620">
        <ele>128.7</ele>
        <time>2021-05-21T10:04:20Z</time>
      </trkpt>
      <trkpt lat="42.3677760" lon="-8.6207780">
        <ele>128.5</ele>
        <time>2021-05-21T10:04:21Z</time>
      </trkpt>
      <trkpt lat="42.3677820" lon="-8.6207900">
        <ele>128.4</ele>
        <time>2021-05-21T10:04:22Z</time>
      </trkpt>
      <trkpt lat="42.3677930" lon="-8.6207980">
        <ele>128.3</ele>
        <time>2021-05-21T10:04:23Z</time>
      </trkpt>
      <trkpt lat="42.3678080" lon="-8.6208090">
        <ele>128.1</ele>
        <time>2021-05-21T10:04:24Z</time>
      </trkpt>
      <trkpt lat="42.3678310" lon="-8.6208240">
        <ele>127.8</ele>
        <time>2021-05-21T10:04:25Z</time>
      </trkpt>
      <trkpt lat="42.3678420" lon="-8.6208300">
        <ele>127.7</ele>
        <time>2021-05-21T10:04:26Z</time>
      </trkpt>
      <trkpt lat="42.3678530" lon="-8.6208360">
        <ele>127.6</ele>
        <time>2021-05-21T10:04:27Z</time>
      </trkpt>
      <trkpt lat="42.3678740" lon="-8.6208510">
        <ele>127.3</ele>
        <time>2021-05-21T10:04:28Z</time>
      </trkpt>
      <trkpt lat="42.3678810" lon="-8.6208560">
        <ele>127.3</ele>
        <time>2021-05-21T10:04:29Z</time>
      </trkpt>
      <trkpt lat="42.3678890" lon="-8.6208610">
        <ele>127.2</ele>
        <time>2021-05-21T10:04:30Z</time>
      </trkpt>
      <trkpt lat="42.3678920" lon="-8.6208700">
        <ele>127.1</ele>
        <time>2021-05-21T10:04:31Z</time>
      </trkpt>
      <trkpt lat="42.3679060" lon="-8.6208830">
        <ele>126.9</ele>
        <time>2021-05-21T10:04:32Z</time>
      </trkpt>
      <trkpt lat="42.3679080" lon="-8.6208970">
        <ele>126.8</ele>
        <time>2021-05-21T10:04:33Z</time>
      </trkpt>
      <trkpt lat="42.3679190" lon="-8.6209100">
        <ele>126.6</ele>
        <time>2021-05-21T10:04:34Z</time>
      </trkpt>
      <trkpt lat="42.3679340" lon="-8.6209230">
        <ele>126.5</ele>
        <time>2021-05-21T10:04:35Z</time>
      </trkpt>
      <trkpt lat="42.3679440" lon="-8.6209460">
        <ele>126.3</ele>
        <time>2021-05-21T10:04:36Z</time>
      </trkpt>
      <trkpt lat="42.3679580" lon="-8.6209590">
        <ele>126.1</ele>
        <time>2021-05-21T10:04:37Z</time>
      </trkpt>
      <trkpt lat="42.3679660" lon="-8.6209750">
        <ele>126.0</ele>
        <time>2021-05-21T10:04:38Z</time>
      </trkpt>
      <trkpt lat="42.3679730" lon="-8.6209920">
        <ele>125.8</ele>
        <time>2021-05-21T10:04:39Z</time>
      </trkpt>
      <trkpt lat="42.3679830" lon="-8.6210180">
        <ele>125.6</ele>
        <time>2021-05-21T10:04:40Z</time>
      </trkpt>
      <trkpt lat="42.3679910" lon="-8.6210320">
        <ele>125.5</ele>
        <time>2021-05-21T10:04:41Z</time>
      </trkpt>
      <trkpt lat="42.3679980" lon="-8.6210450">
        <ele>125.4</ele>
        <time>2021-05-21T10:04:42Z</time>
      </trkpt>
      <trkpt lat="42.3680060" lon="-8.6210640">
        <ele>125.2</ele>
        <time>2021-05-21T10:04:43Z</time>
      </trkpt>
      <trkpt lat="42.3680100" lon="-8.6210840">
        <ele>125.1</ele>
        <time>2021-05-21T10:04:44Z</time>
      </trkpt>
      <trkpt lat="42.3680230" lon="-8.6210940">
        <ele>125.0</ele>
        <time>2021-05-21T10:04:45Z</time>
      </trkpt>
      <trkpt lat="42.3680220" lon="-8.6211020">
        <ele>124.9</ele>
        <time>2021-05-21T10:04:46Z</time>
      </trkpt>
      <trkpt lat="42.3680280" lon="-8.6211200">
        <ele>124.8</ele>
        <time>2021-05-21T10:04:47Z</time>
      </trkpt>
      <trkpt lat="42.3680370" lon="-8.6211470">
        <ele>124.6</ele>
        <time>2021-05-21T10:04:48Z</time>
      </trkpt>
      <trkpt lat="42.3680370" lon="-8.6211590">
        <ele>124.6</ele>
        <time>2021-05-21T10:04:49Z</time>
      </trkpt>
      <trkpt lat="42.3680360" lon="-8.6211700">
        <ele>124.5</ele>
        <time>2021-05-21T10:04:50Z</time>
      </trkpt>
      <trkpt lat="42.3680480" lon="-8.6211930">
        <ele>124.3</ele>
        <time>2021-05-21T10:04:51Z</time>
      </trkpt>
      <trkpt lat="42.3680540" lon="-8.6212020">
        <ele>124.2</ele>
        <time>2021-05-21T10:04:52Z</time>
      </trkpt>
      <trkpt lat="42.3680600" lon="-8.6212120">
        <ele>124.2</ele>
        <time>2021-05-21T10:04:53Z</time>
      </trkpt>
      <trkpt lat="42.3680590" lon="-8.6212310">
        <ele>124.1</ele>
        <time>2021-05-21T10:04:54Z</time>
      </trkpt>
      <trkpt lat="42.3680720" lon="-8.6212450">
        <ele>123.9</ele>
        <time>2021-05-21T10:04:55Z</time>
      </trkpt>
      <trkpt lat="42.3680720" lon="-8.6212570">
        <ele>123.9</ele>
        <time>2021-05-21T10:04:56Z</time>
      </trkpt>
      <trkpt lat="42.3680770" lon="-8.6212740">
        <ele>123.8</ele>
        <time>2021-05-21T10:04:57Z</time>
      </trkpt>
      <trkpt lat="42.3680790" lon="-8.6212830">
        <ele>123.7</ele>
        <time>2021-05-21T10:04:58Z</time>
      </trkpt>
      <trkpt lat="42.3680800" lon="-8.6213050">
        <ele>123.6</ele>
        <time>2021-05-21T10:04:59Z</time>
      </trkpt>
      <trkpt lat="42.3680840" lon="-8.6213270">
        <ele>123.5</ele>
        <time>2021-05-21T10:05:00Z</time>
      </trkpt>
      <trkpt lat="42.3680900" lon="-8.6213450">
        <ele>123.4</ele>
        <time>2021-05-21T10:05:01Z</time>
      </trkpt>
      <trkpt lat="42.3680940" lon="-8.6213630">
        <ele>123.3</ele>
        <time>2021-05-21T10:05:02Z</time>
      </trkpt>
      <trkpt lat="42.3680930" lon="-8.6213890">
        <ele>123.2</ele>
        <time>2021-05-21T10:05:03Z</time>
      </trkpt>
      <trkpt lat="42.3680880" lon="-8.6214070">
        <ele>123.1</ele>
        <time>2021-05-21T10:05:04Z</time>
      </trkpt>
      <trkpt lat="42.3680970" lon="-8.6214310">
        <ele>122.9</ele>
        <time>2021-05-21T10:05:05Z</time>
      </trkpt>
      <trkpt lat="42.3680960" lon="-8.6214540">
        <ele>122.8</ele>
        <time>2021-05-21T10:05:06Z</time>
      </trkpt>
      <trkpt lat="42.3681010" lon="-8.6214710">
        <ele>122.7</ele>
        <time>2021-05-21T10:05:07Z</time>
      </trkpt>
      <trkpt lat="42.3681020" lon="-8.6214820">
        <ele>122.7</ele>
        <time>2021-05-21T10:05:08Z</time>
      </trkpt>
      <trkpt lat="42.3681020" lon="-8.6214930">
        <ele>122.6</ele>
        <time>2021-05-21T10:05:09Z</time>
      </trkpt>
      <trkpt lat="42.3681020" lon="-8.6215040">
        <ele>122.6</ele>
        <time>2021-05-21T10:05:10Z</time>
      </trkpt>
      <trkpt lat="42.3681100" lon="-8.6215260">
        <ele>122.4</ele>
        <time>2021-05-21T10:05:11Z</time>
      </trkpt>
      <trkpt lat="42.3681080" lon="-8.6215400">
        <ele>122.4</ele>
        <time>2021-05-21T10:05:12Z</time>
      </trkpt>
      <trkpt lat="42.3681210" lon="-8.6215580">
        <ele>122.2</ele>
        <time>2021-05-21T10:05:13Z</time>
      </trkpt>
      <trkpt lat="42.3681250" lon="-8.6215650">
        <ele>122.2</ele>
        <time>2021-05-21T10:05:14Z</time>
      </trkpt>
      <trkpt lat="42.3681300" lon="-8.6215710">
        <ele>122.1</ele>
        <time>2021-05-21T10:05:15Z</time>
      </trkpt>
      <trkpt lat="42.3681340" lon="-8.6215780">
        <ele>122.1</ele>
        <time>2021-05-21T10:05:16Z</time>
      </trkpt>
      <trkpt lat="42.3681380" lon="-8.6215840">
        <ele>122.0</ele>
        <time>2021-05-21T10:05:17Z</time>
      </trkpt>
      <trkpt lat="42.3681470" lon="-8.6216050">
        <ele>121.9</ele>
        <time>2021-05-21T10:05:18Z</time>
      </trkpt>
      <trkpt lat="42.3681480" lon="-8.6216190">
        <ele>121.8</ele>
        <time>2021-05-21T10:05:19Z</time>
      </trkpt>
      <trkpt lat="42.3681500" lon="-8.6216340">
        <ele>121.7</ele>
        <time>2021-05-21T10:05:20Z</time>
      </trkpt>
      <trkpt lat="42.3681450" lon="-8.6216520">
        <ele>121.6</ele>
        <time>2021-05-21T10:05:21Z</time>
      </trkpt>
      <trkpt lat="42.3681450" lon="-8.6216640">
        <ele>121.5</ele>
        <time>2021-05-21T10:05:22Z</time>
      </trkpt>
      <trkpt lat="42.3681470" lon="-8.6216810">
        <ele>121.4</ele>
        <time>2021-05-21T10:05:23Z</time>
      </trkpt>
      <trkpt lat="42.3681470" lon="-8.6216840">
        <ele>121.4</ele>
        <time>2021-05-21T10:05:24Z</time>
      </trkpt>
      <trkpt lat="42.3681510" lon="-8.6217030">
        <ele>121.3</ele>
        <time>2021-05-21T10:05:25Z</time>
      </trkpt>
      <trkpt lat="42.3681520" lon="-8.6217200">
        <ele>121.2</ele>
        <time>2021-05-21T10:05:26Z</time>
      </trkpt>
      <trkpt lat="42.3681630" lon="-8.6217450">
        <ele>121.0</ele>
        <time>2021-05-21T10:05:27Z</time>
      </trkpt>
      <trkpt lat="42.3681670" lon="-8.6217540">
        <ele>120.9</ele>
        <time>2021-05-21T10:05:28Z</time>
      </trkpt>
      <trkpt lat="42.3681710" lon="-8.6217630">
        <ele>120.8</ele>
        <time>2021-05-21T10:05:29Z</time>
      </trkpt>
      <trkpt lat="42.3681790" lon="-8.6217740">
        <ele>120.7</ele>
        <time>2021-05-21T10:05:30Z</time>
      </trkpt>
      <trkpt lat="42.3681740" lon="-8.6217900">
        <ele>120.6</ele>
        <time>2021-05-21T10:05:31Z</time>
      </trkpt>
      <trkpt lat="42.3681770" lon="-8.6218060">
        <ele>120.5</ele>
        <time>2021-05-21T10:05:32Z</time>
      </trkpt>
      <trkpt lat="42.3681810" lon="-8.6218250">
        <ele>120.3</ele>
        <time>2021-05-21T10:05:33Z</time>
      </trkpt>
      <trkpt lat="42.3681880" lon="-8.6218520">
        <ele>120.1</ele>
        <time>2021-05-21T10:05:34Z</time>
      </trkpt>
      <trkpt lat="42.3681960" lon="-8.6218620">
        <ele>119.9</ele>
        <time>2021-05-21T10:05:35Z</time>
      </trkpt>
      <trkpt lat="42.3682000" lon="-8.6218790">
        <ele>119.8</ele>
        <time>2021-05-21T10:05:36Z</time>
      </trkpt>
      <trkpt lat="42.3682050" lon="-8.6218920">
        <ele>119.7</ele>
        <time>2021-05-21T10:05:37Z</time>
      </trkpt>
      <trkpt lat="42.3682070" lon="-8.6219050">
        <ele>119.5</ele>
        <time>2021-05-21T10:05:38Z</time>
      </trkpt>
      <trkpt lat="42.3682120" lon="-8.6219190">
        <ele>119.4</ele>
        <time>2021-05-21T10:05:39Z</time>
      </trkpt>
      <trkpt lat="42.3682210" lon="-8.6219370">
        <ele>119.2</ele>
        <time>2021-05-21T10:05:40Z</time>
      </trkpt>
      <trkpt lat="42.3682360" lon="-8.6219470">
        <ele>119.0</ele>
        <time>2021-05-21T10:05:41Z</time>
      </trkpt>
      <trkpt lat="42.3682400" lon="-8.6219610">
        <ele>118.9</ele>
        <time>2021-05-21T10:05:42Z</time>
      </trkpt>
      <trkpt lat="42.3682350" lon="-8.6219750">
        <ele>118.7</ele>
        <time>2021-05-21T10:05:43Z</time>
      </trkpt>
      <trkpt lat="42.3682400" lon="-8.6219930">
        <ele>118.6</ele>
        <time>2021-05-21T10:05:44Z</time>
      </trkpt>
      <trkpt lat="42.3682380" lon="-8.6220130">
        <ele>118.4</ele>
        <time>2021-05-21T10:05:45Z</time>
      </trkpt>
      <trkpt lat="42.3682440" lon="-8.6220300">
        <ele>118.2</ele>
        <time>2021-05-21T10:05:46Z</time>
      </trkpt>
      <trkpt lat="42.3682460" lon="-8.6220440">
        <ele>118.1</ele>
        <time>2021-05-21T10:05:47Z</time>
      </trkpt>
      <trkpt lat="42.3682440" lon="-8.6220550">
        <ele>118.0</ele>
        <time>2021-05-21T10:05:48Z</time>
      </trkpt>
      <trkpt lat="42.3682460" lon="-8.6220690">
        <ele>117.8</ele>
        <time>2021-05-21T10:05:49Z</time>
      </trkpt>
      <trkpt lat="42.3682480" lon="-8.6220930">
        <ele>117.6</ele>
        <time>2021-05-21T10:05:50Z</time>
      </trkpt>
      <trkpt lat="42.3682580" lon="-8.6221230">
        <ele>117.3</ele>
        <time>2021-05-21T10:05:51Z</time>
      </trkpt>
      <trkpt lat="42.3682600" lon="-8.6221330">
        <ele>117.2</ele>
        <time>2021-05-21T10:05:52Z</time>
      </trkpt>
      <trkpt lat="42.3682620" lon="-8.6221420">
        <ele>117.1</ele>
        <time>2021-05-21T10:05:53Z</time>
      </trkpt>
      <trkpt lat="42.3682660" lon="-8.6221550">
        <ele>117.0</ele>
        <time>2021-05-21T10:05:54Z</time>
      </trkpt>
      <trkpt lat="42.3682700" lon="-8.6221690">
        <ele>116.8</ele>
        <time>2021-05-21T10:05:55Z</time>
      </trkpt>
      <trkpt lat="42.3682730" lon="-8.6221810">
        <ele>116.7</ele>
        <time>2021-05-21T10:05:56Z</time>
      </trkpt>
      <trkpt lat="42.3682780" lon="-8.6222080">
        <ele>116.5</ele>
        <time>2021-05-21T10:05:57Z</time>
      </trkpt>
      <trkpt lat="42.3682800" lon="-8.6222200">
        <ele>116.3</ele>
        <time>2021-05-21T10:05:58Z</time>
      </trkpt>
      <trkpt lat="42.3682820" lon="-8.6222310">
        <ele>116.2</ele>
        <time>2021-05-21T10:05:59Z</time>
      </trkpt>
      <trkpt lat="42.3682910" lon="-8.6222610">
        <ele>115.9</ele>
        <time>2021-05-21T10:06:00Z</time>
      </trkpt>
      <trkpt lat="42.3682960" lon="-8.6222680">
        <ele>115.8</ele>
        <time>2021-05-21T10:06:01Z</time>
      </trkpt>
      <trkpt lat="42.3683030" lon="-8.6222870">
        <ele>115.6</ele>
        <time>2021-05-21T10:06:02Z</time>
      </trkpt>
      <trkpt lat="42.3682920" lon="-8.6223060">
        <ele>115.4</ele>
        <time>2021-05-21T10:06:03Z</time>
      </trkpt>
      <trkpt lat="42.3682950" lon="-8.6223430">
        <ele>115.0</ele>
        <time>2021-05-21T10:06:04Z</time>
      </trkpt>
      <trkpt lat="42.3682950" lon="-8.6223550">
        <ele>114.9</ele>
        <time>2021-05-21T10:06:05Z</time>
      </trkpt>
      <trkpt lat="42.3683030" lon="-8.6223720">
        <ele>114.7</ele>
        <time>2021-05-21T10:06:06Z</time>
      </trkpt>
      <trkpt lat="42.3683020" lon="-8.6223800">
        <ele>114.6</ele>
        <time>2021-05-21T10:06:07Z</time>
      </trkpt>
      <trkpt lat="42.3683040" lon="-8.6223890">
        <ele>114.5</ele>
        <time>2021-05-21T10:06:08Z</time>
      </trkpt>
      <trkpt lat="42.3683080" lon="-8.6224010">
        <ele>114.4</ele>
        <time>2021-05-21T10:06:09Z</time>
      </trkpt>
      <trkpt lat="42.3683160" lon="-8.6224150">
        <ele>114.2</ele>
        <time>2021-05-21T10:06:10Z</time>
      </trkpt>
      <trkpt lat="42.3683140" lon="-8.6224280">
        <ele>114.1</ele>
        <time>2021-05-21T10:06:11Z</time>
      </trkpt>
      <trkpt lat="42.3683220" lon="-8.6224540">
        <ele>113.8</ele>
        <time>2021-05-21T10:06:12Z</time>
      </trkpt>
      <trkpt lat="42.3683250" lon="-8.6224750">
        <ele>113.6</ele>
        <time>2021-05-21T10:06:13Z</time>
      </trkpt>
      <trkpt lat="42.3683270" lon="-8.6224870">
        <ele>113.5</ele>
        <time>2021-05-21T10:06:14Z</time>
      </trkpt>
      <trkpt lat="42.3683350" lon="-8.6224960">
        <ele>113.4</ele>
        <time>2021-05-21T10:06:15Z</time>
      </trkpt>
      <trkpt lat="42.3683460" lon="-8.6225120">
        <ele>113.2</ele>
        <time>2021-05-21T10:06:16Z</time>
      </trkpt>
      <trkpt lat="42.3683530" lon="-8.6225300">
        <ele>113.0</ele>
        <time>2021-05-21T10:06:17Z</time>
      </trkpt>
      <trkpt lat="42.3683640" lon="-8.6225380">
        <ele>112.8</ele>
        <time>2021-05-21T10:06:18Z</time>
      </trkpt>
      <trkpt lat="42.3683740" lon="-8.6225460">
        <ele>112.7</ele>
        <time>2021-05-21T10:06:19Z</time>
      </trkpt>
      <trkpt lat="42.3683850" lon="-8.6225520">
        <ele>112.5</ele>
        <time>2021-05-21T10:06:20Z</time>
      </trkpt>
      <trkpt lat="42.3683910" lon="-8.6225580">
        <ele>112.4</ele>
        <time>2021-05-21T10:06:21Z</time>
      </trkpt>
      <trkpt lat="42.3684070" lon="-8.6225620">
        <ele>112.2</ele>
        <time>2021-05-21T10:06:22Z</time>
      </trkpt>
      <trkpt lat="42.3684140" lon="-8.6225650">
        <ele>112.1</ele>
        <time>2021-05-21T10:06:23Z</time>
      </trkpt>
      <trkpt lat="42.3684200" lon="-8.6225690">
        <ele>112.0</ele>
        <time>2021-05-21T10:06:24Z</time>
      </trkpt>
      <trkpt lat="42.3684270" lon="-8.6225730">
        <ele>111.9</ele>
        <time>2021-05-21T10:06:25Z</time>
      </trkpt>
      <trkpt lat="42.3684350" lon="-8.6225750">
        <ele>111.8</ele>
        <time>2021-05-21T10:06:26Z</time>
      </trkpt>
      <trkpt lat="42.3684440" lon="-8.6225750">
        <ele>111.7</ele>
        <time>2021-05-21T10:06:27Z</time>
      </trkpt>
      <trkpt lat="42.3684470" lon="-8.6225760">
        <ele>111.7</ele>
        <time>2021-05-21T10:06:28Z</time>
      </trkpt>
      <trkpt lat="42.3684560" lon="-8.6225800">
        <ele>111.5</ele>
        <time>2021-05-21T10:06:29Z</time>
      </trkpt>
      <trkpt lat="42.3684650" lon="-8.6225840">
        <ele>111.4</ele>
        <time>2021-05-21T10:06:30Z</time>
      </trkpt>
      <trkpt lat="42.3684780" lon="-8.6225960">
        <ele>111.2</ele>
        <time>2021-05-21T10:06:31Z</time>
      </trkpt>
      <trkpt lat="42.3684820" lon="-8.6225970">
        <ele>111.2</ele>
        <time>2021-05-21T10:06:32Z</time>
      </trkpt>
      <trkpt lat="42.3684910" lon="-8.6226080">
        <ele>111.0</ele>
        <time>2021-05-21T10:06:33Z</time>
      </trkpt>
      <trkpt lat="42.3685010" lon="-8.6226200">
        <ele>110.9</ele>
        <time>2021-05-21T10:06:34Z</time>
      </trkpt>
      <trkpt lat="42.3685060" lon="-8.6226240">
        <ele>110.8</ele>
        <time>2021-05-21T10:06:35Z</time>
      </trkpt>
      <trkpt lat="42.3685030" lon="-8.6226230">
        <ele>110.7</ele>
        <time>2021-05-21T10:06:36Z</time>
      </trkpt>
      <trkpt lat="42.3685030" lon="-8.6226260">
        <ele>110.7</ele>
        <time>2021-05-21T10:06:37Z</time>
      </trkpt>
      <trkpt lat="42.3685130" lon="-8.6226310">
        <ele>110.6</ele>
        <time>2021-05-21T10:06:38Z</time>
      </trkpt>
      <trkpt lat="42.3685240" lon="-8.6226340">
        <ele>110.4</ele>
        <time>2021-05-21T10:06:39Z</time>
      </trkpt>
      <trkpt lat="42.3685270" lon="-8.6226450">
        <ele>110.3</ele>
        <time>2021-05-21T10:06:40Z</time>
      </trkpt>
      <trkpt lat="42.3685340" lon="-8.6226510">
        <ele>110.2</ele>
        <time>2021-05-21T10:06:41Z</time>
      </trkpt>
      <trkpt lat="42.3685470" lon="-8.6226610">
        <ele>110.0</ele>
        <time>2021-05-21T10:06:42Z</time>
      </trkpt>
      <trkpt lat="42.3685540" lon="-8.6226640">
        <ele>110.0</ele>
        <time>2021-05-21T10:06:43Z</time>
      </trkpt>
      <trkpt lat="42.3685620" lon="-8.6226680">
        <ele>109.8</ele>
        <time>2021-05-21T10:06:44Z</time>
      </trkpt>
      <trkpt lat="42.3685690" lon="-8.6226720">
        <ele>109.7</ele>
        <time>2021-05-21T10:06:45Z</time>
      </trkpt>
      <trkpt lat="42.3685720" lon="-8.6226880">
        <ele>109.5</ele>
        <time>2021-05-21T10:06:46Z</time>
      </trkpt>
      <trkpt lat="42.3685750" lon="-8.6226970">
        <ele>109.5</ele>
        <time>2021-05-21T10:06:47Z</time>
      </trkpt>
      <trkpt lat="42.3685870" lon="-8.6227090">
        <ele>109.3</ele>
        <time>2021-05-21T10:06:48Z</time>
      </trkpt>
      <trkpt lat="42.3685910" lon="-8.6227150">
        <ele>109.3</ele>
        <time>2021-05-21T10:06:49Z</time>
      </trkpt>
      <trkpt lat="42.3686030" lon="-8.6227400">
        <ele>109.1</ele>
        <time>2021-05-21T10:06:50Z</time>
      </trkpt>
      <trkpt lat="42.3686100" lon="-8.6227470">
        <ele>109.0</ele>
        <time>2021-05-21T10:06:51Z</time>
      </trkpt>
      <trkpt lat="42.3686190" lon="-8.6227600">
        <ele>108.9</ele>
        <time>2021-05-21T10:06:52Z</time>
      </trkpt>
      <trkpt lat="42.3686240" lon="-8.6227760">
        <ele>108.8</ele>
        <time>2021-05-21T10:06:53Z</time>
      </trkpt>
      <trkpt lat="42.3686320" lon="-8.6227970">
        <ele>108.6</ele>
        <time>2021-05-21T10:06:54Z</time>
      </trkpt>
      <trkpt lat="42.3686420" lon="-8.6228130">
        <ele>108.5</ele>
        <time>2021-05-21T10:06:55Z</time>
      </trkpt>
      <trkpt lat="42.3686520" lon="-8.6228380">
        <ele>108.3</ele>
        <time>2021-05-21T10:06:56Z</time>
      </trkpt>
      <trkpt lat="42.3686560" lon="-8.6228470">
        <ele>108.3</ele>
        <time>2021-05-21T10:06:57Z</time>
      </trkpt>
      <trkpt lat="42.3686610" lon="-8.6228570">
        <ele>108.2</ele>
        <time>2021-05-21T10:06:58Z</time>
      </trkpt>
      <trkpt lat="42.3686670" lon="-8.6228690">
        <ele>108.2</ele>
        <time>2021-05-21T10:06:59Z</time>
      </trkpt>
      <trkpt lat="42.3686690" lon="-8.6228850">
        <ele>108.1</ele>
        <time>2021-05-21T10:07:00Z</time>
      </trkpt>
      <trkpt lat="42.3686730" lon="-8.6228980">
        <ele>108.0</ele>
        <time>2021-05-21T10:07:01Z</time>
      </trkpt>
      <trkpt lat="42.3686780" lon="-8.6229150">
        <ele>108.0</ele>
        <time>2021-05-21T10:07:02Z</time>
      </trkpt>
      <trkpt lat="42.3686870" lon="-8.6229380">
        <ele>107.9</ele>
        <time>2021-05-21T10:07:03Z</time>
      </trkpt>
      <trkpt lat="42.3686960" lon="-8.6229620">
        <ele>107.8</ele>
        <time>2021-05-21T10:07:04Z</time>
      </trkpt>
      <trkpt lat="42.3686980" lon="-8.6229750">
        <ele>107.7</ele>
        <time>2021-05-21T10:07:05Z</time>
      </trkpt>
      <trkpt lat="42.3686990" lon="-8.6229870">
        <ele>107.7</ele>
        <time>2021-05-21T10:07:06Z</time>
      </trkpt>
      <trkpt lat="42.3687030" lon="-8.6230080">
        <ele>107.6</ele>
        <time>2021-05-21T10:07:07Z</time>
      </trkpt>
      <trkpt lat="42.3687030" lon="-8.6230270">
        <ele>107.6</ele>
        <time>2021-05-21T10:07:08Z</time>
      </trkpt>
      <trkpt lat="42.3687030" lon="-8.6230460">
        <ele>107.5</ele>
        <time>2021-05-21T10:07:09Z</time>
      </trkpt>
      <trkpt lat="42.3687020" lon="-8.6230570">
        <ele>107.5</ele>
        <time>2021-05-21T10:07:10Z</time>
      </trkpt>
      <trkpt lat="42.3687080" lon="-8.6230680">
        <ele>107.5</ele>
        <time>2021-05-21T10:07:11Z</time>
      </trkpt>
      <trkpt lat="42.3687140" lon="-8.6230840">
        <ele>107.4</ele>
        <time>2021-05-21T10:07:12Z</time>
      </trkpt>
      <trkpt lat="42.3687140" lon="-8.6231060">
        <ele>107.4</ele>
        <time>2021-05-21T10:07:13Z</time>
      </trkpt>
      <trkpt lat="42.3687210" lon="-8.6231340">
        <ele>107.3</ele>
        <time>2021-05-21T10:07:14Z</time>
      </trkpt>
      <trkpt lat="42.3687250" lon="-8.6231440">
        <ele>107.3</ele>
        <time>2021-05-21T10:07:15Z</time>
      </trkpt>
      <trkpt lat="42.3687300" lon="-8.6231550">
        <ele>107.3</ele>
        <time>2021-05-21T10:07:16Z</time>
      </trkpt>
      <trkpt lat="42.3687370" lon="-8.6231820">
        <ele>107.2</ele>
        <time>2021-05-21T10:07:17Z</time>
      </trkpt>
      <trkpt lat="42.3687410" lon="-8.6231950">
        <ele>107.2</ele>
        <time>2021-05-21T10:07:18Z</time>
      </trkpt>
      <trkpt lat="42.3687440" lon="-8.6232080">
        <ele>107.2</ele>
        <time>2021-05-21T10:07:19Z</time>
      </trkpt>
      <trkpt lat="42.3687450" lon="-8.6232240">
        <ele>107.1</ele>
        <time>2021-05-21T10:07:20Z</time>
      </trkpt>
      <trkpt lat="42.3687460" lon="-8.6232400">
        <ele>107.1</ele>
        <time>2021-05-21T10:07:21Z</time>
      </trkpt>
      <trkpt lat="42.3687510" lon="-8.6232530">
        <ele>107.1</ele>
        <time>2021-05-21T10:07:22Z</time>
      </trkpt>
      <trkpt lat="42.3687540" lon="-8.6232690">
        <ele>107.1</ele>
        <time>2021-05-21T10:07:23Z</time>
      </trkpt>
      <trkpt lat="42.3687570" lon="-8.6232860">
        <ele>107.1</ele>
        <time>2021-05-21T10:07:24Z</time>
      </trkpt>
      <trkpt lat="42.3687560" lon="-8.6233000">
        <ele>107.0</ele>
        <time>2021-05-21T10:07:25Z</time>
      </trkpt>
      <trkpt lat="42.3687650" lon="-8.6233280">
        <ele>107.0</ele>
        <time>2021-05-21T10:07:26Z</time>
      </trkpt>
      <trkpt lat="42.3687660" lon="-8.6233380">
        <ele>107.0</ele>
        <time>2021-05-21T10:07:27Z</time>
      </trkpt>
      <trkpt lat="42.3687680" lon="-8.6233480">
        <ele>107.0</ele>
        <time>2021-05-21T10:07:28Z</time>
      </trkpt>
      <trkpt lat="42.3687700" lon="-8.6233750">
        <ele>107.0</ele>
        <time>2021-05-21T10:07:29Z</time>
      </trkpt>
      <trkpt lat="42.3687710" lon="-8.6233870">
        <ele>107.0</ele>
        <time>2021-05-21T10:07:30Z</time>
      </trkpt>
      <trkpt lat="42.3687720" lon="-8.6233980">
        <ele>107.0</ele>
        <time>2021-05-21T10:07:31Z</time>
      </trkpt>
      <trkpt lat="42.3687740" lon="-8.6234110">
        <ele>106.9</ele>
        <time>2021-05-21T10:07:32Z</time>
      </trkpt>
      <trkpt lat="42.3687770" lon="-8.6234210">
        <ele>106.9</ele>
        <time>2021-05-21T10:07:33Z</time>
      </trkpt>
      <trkpt lat="42.3687830" lon="-8.6234310">
        <ele>106.9</ele>
        <time>2021-05-21T10:07:34Z</time>
      </trkpt>
      <trkpt lat="42.3687890" lon="-8.6234450">
        <ele>106.9</ele>
        <time>2021-05-21T10:07:35Z</time>
      </trkpt>
      <trkpt lat="42.3687950" lon="-8.6234560">
        <ele>106.9</ele>
        <time>2021-05-21T10:07:36Z</time>
      </trkpt>
      <trkpt lat="42.3687990" lon="-8.6234680">
        <ele>106.9</ele>
        <time>2021-05-21T10:07:37Z</time>
      </trkpt>
      <trkpt lat="42.3688050" lon="-8.6234780">
        <ele>106.9</ele>
        <time>2021-05-21T10:07:38Z</time>
      </trkpt>
      <trkpt lat="42.3688030" lon="-8.6234940">
        <ele>106.9</ele>
        <time>2021-05-21T10:07:39Z</time>
      </trkpt>
      <trkpt lat="42.3688020" lon="-8.6234950">
        <ele>106.9</ele>
        <time>2021-05-21T10:07:40Z</time>
      </trkpt>
      <trkpt lat="42.3687990" lon="-8.6235100">
        <ele>106.9</ele>
        <time>2021-05-21T10:07:41Z</time>
      </trkpt>
      <trkpt lat="42.3688020" lon="-8.6235040">
        <ele>106.9</ele>
        <time>2021-05-21T10:07:42Z</time>
      </trkpt>
      <trkpt lat="42.3687950" lon="-8.6235240">
        <ele>106.9</ele>
        <time>2021-05-21T10:07:43Z</time>
      </trkpt>
      <trkpt lat="42.3687970" lon="-8.6235220">
        <ele>106.9</ele>
        <time>2021-05-21T10:07:44Z</time>
      </trkpt>
      <trkpt lat="42.3687970" lon="-8.6235320">
        <ele>106.9</ele>
        <time>2021-05-21T10:07:45Z</time>
      </trkpt>
      <trkpt lat="42.3688070" lon="-8.6235470">
        <ele>106.9</ele>
        <time>2021-05-21T10:07:46Z</time>
      </trkpt>
      <trkpt lat="42.3688080" lon="-8.6235560">
        <ele>106.9</ele>
        <time>2021-05-21T10:07:47Z</time>
      </trkpt>
      <trkpt lat="42.3688180" lon="-8.6235730">
        <ele>106.9</ele>
        <time>2021-05-21T10:07:48Z</time>
      </trkpt>
      <trkpt lat="42.3688230" lon="-8.6235880">
        <ele>106.9</ele>
        <time>2021-05-21T10:07:49Z</time>
      </trkpt>
      <trkpt lat="42.3688310" lon="-8.6236130">
        <ele>106.9</ele>
        <time>2021-05-21T10:07:50Z</time>
      </trkpt>
      <trkpt lat="42.3688350" lon="-8.6236250">
        <ele>106.9</ele>
        <time>2021-05-21T10:07:51Z</time>
      </trkpt>
      <trkpt lat="42.3688400" lon="-8.6236360">
        <ele>106.9</ele>
        <time>2021-05-21T10:07:52Z</time>
      </trkpt>
      <trkpt lat="42.3688480" lon="-8.6236590">
        <ele>107.0</ele>
        <time>2021-05-21T10:07:53Z</time>
      </trkpt>
      <trkpt lat="42.3688540" lon="-8.6236710">
        <ele>107.0</ele>
        <time>2021-05-21T10:07:54Z</time>
      </trkpt>
      <trkpt lat="42.3688600" lon="-8.6236820">
        <ele>107.0</ele>
        <time>2021-05-21T10:07:55Z</time>
      </trkpt>
      <trkpt lat="42.3688710" lon="-8.6237060">
        <ele>107.0</ele>
        <time>2021-05-21T10:07:56Z</time>
      </trkpt>
      <trkpt lat="42.3688750" lon="-8.6237150">
        <ele>107.0</ele>
        <time>2021-05-21T10:07:57Z</time>
      </trkpt>
      <trkpt lat="42.3688800" lon="-8.6237230">
        <ele>107.0</ele>
        <time>2021-05-21T10:07:58Z</time>
      </trkpt>
      <trkpt lat="42.3688850" lon="-8.6237380">
        <ele>107.0</ele>
        <time>2021-05-21T10:07:59Z</time>
      </trkpt>
      <trkpt lat="42.3688910" lon="-8.6237520">
        <ele>107.0</ele>
        <time>2021-05-21T10:08:00Z</time>
      </trkpt>
      <trkpt lat="42.3688890" lon="-8.6237410">
        <ele>107.1</ele>
        <time>2021-05-21T10:08:01Z</time>
      </trkpt>
      <trkpt lat="42.3688920" lon="-8.6237370">
        <ele>107.1</ele>
        <time>2021-05-21T10:08:02Z</time>
      </trkpt>
      <trkpt lat="42.3688960" lon="-8.6237370">
        <ele>107.1</ele>
        <time>2021-05-21T10:08:03Z</time>
      </trkpt>
      <trkpt lat="42.3689070" lon="-8.6237500">
        <ele>107.1</ele>
        <time>2021-05-21T10:08:04Z</time>
      </trkpt>
      <trkpt lat="42.3689060" lon="-8.6237770">
        <ele>107.1</ele>
        <time>2021-05-21T10:08:05Z</time>
      </trkpt>
      <trkpt lat="42.3689080" lon="-8.6237890">
        <ele>107.1</ele>
        <time>2021-05-21T10:08:06Z</time>
      </trkpt>
      <trkpt lat="42.3689110" lon="-8.6238020">
        <ele>107.2</ele>
        <time>2021-05-21T10:08:07Z</time>
      </trkpt>
      <trkpt lat="42.3689160" lon="-8.6238130">
        <ele>107.2</ele>
        <time>2021-05-21T10:08:08Z</time>
      </trkpt>
      <trkpt lat="42.3689270" lon="-8.6238230">
        <ele>107.2</ele>
        <time>2021-05-21T10:08:09Z</time>
      </trkpt>
      <trkpt lat="42.3689320" lon="-8.6238380">
        <ele>107.2</ele>
        <time>2021-05-21T10:08:10Z</time>
      </trkpt>
      <trkpt lat="42.3689310" lon="-8.6238660">
        <ele>107.3</ele>
        <time>2021-05-21T10:08:11Z</time>
      </trkpt>
      <trkpt lat="42.3689310" lon="-8.6238820">
        <ele>107.3</ele>
        <time>2021-05-21T10:08:12Z</time>
      </trkpt>
      <trkpt lat="42.3689420" lon="-8.6239060">
        <ele>107.4</ele>
        <time>2021-05-21T10:08:13Z</time>
      </trkpt>
      <trkpt lat="42.3689400" lon="-8.6239180">
        <ele>107.4</ele>
        <time>2021-05-21T10:08:14Z</time>
      </trkpt>
      <trkpt lat="42.3689470" lon="-8.6239350">
        <ele>107.4</ele>
        <time>2021-05-21T10:08:15Z</time>
      </trkpt>
      <trkpt lat="42.3689490" lon="-8.6239560">
        <ele>107.5</ele>
        <time>2021-05-21T10:08:16Z</time>
      </trkpt>
      <trkpt lat="42.3689490" lon="-8.6239770">
        <ele>107.5</ele>
        <time>2021-05-21T10:08:17Z</time>
      </trkpt>
      <trkpt lat="42.3689480" lon="-8.6240000">
        <ele>107.6</ele>
        <time>2021-05-21T10:08:18Z</time>
      </trkpt>
      <trkpt lat="42.3689500" lon="-8.6240210">
        <ele>107.6</ele>
        <time>2021-05-21T10:08:19Z</time>
      </trkpt>
      <trkpt lat="42.3689550" lon="-8.6240360">
        <ele>107.7</ele>
        <time>2021-05-21T10:08:20Z</time>
      </trkpt>
      <trkpt lat="42.3689610" lon="-8.6240440">
        <ele>107.7</ele>
        <time>2021-05-21T10:08:21Z</time>
      </trkpt>
      <trkpt lat="42.3689620" lon="-8.6240630">
        <ele>107.8</ele>
        <time>2021-05-21T10:08:22Z</time>
      </trkpt>
      <trkpt lat="42.3689680" lon="-8.6240770">
        <ele>107.8</ele>
        <time>2021-05-21T10:08:23Z</time>
      </trkpt>
      <trkpt lat="42.3689720" lon="-8.6241060">
        <ele>107.9</ele>
        <time>2021-05-21T10:08:24Z</time>
      </trkpt>
      <trkpt lat="42.3689720" lon="-8.6241180">
        <ele>107.9</ele>
        <time>2021-05-21T10:08:25Z</time>
      </trkpt>
      <trkpt lat="42.3689710" lon="-8.6241310">
        <ele>108.0</ele>
        <time>2021-05-21T10:08:26Z</time>
      </trkpt>
      <trkpt lat="42.3689750" lon="-8.6241590">
        <ele>108.1</ele>
        <time>2021-05-21T10:08:27Z</time>
      </trkpt>
      <trkpt lat="42.3689760" lon="-8.6241700">
        <ele>108.1</ele>
        <time>2021-05-21T10:08:28Z</time>
      </trkpt>
      <trkpt lat="42.3689760" lon="-8.6241800">
        <ele>108.1</ele>
        <time>2021-05-21T10:08:29Z</time>
      </trkpt>
      <trkpt lat="42.3689810" lon="-8.6241810">
        <ele>108.1</ele>
        <time>2021-05-21T10:08:30Z</time>
      </trkpt>
      <trkpt lat="42.3689820" lon="-8.6242030">
        <ele>108.2</ele>
        <time>2021-05-21T10:08:31Z</time>
      </trkpt>
      <trkpt lat="42.3689880" lon="-8.6242210">
        <ele>108.3</ele>
        <time>2021-05-21T10:08:32Z</time>
      </trkpt>
      <trkpt lat="42.3689880" lon="-8.6242420">
        <ele>108.3</ele>
        <time>2021-05-21T10:08:33Z</time>
      </trkpt>
      <trkpt lat="42.3689930" lon="-8.6242610">
        <ele>108.4</ele>
        <time>2021-05-21T10:08:34Z</time>
      </trkpt>
      <trkpt lat="42.3689950" lon="-8.6242930">
        <ele>108.5</ele>
        <time>2021-05-21T10:08:35Z</time>
      </trkpt>
      <trkpt lat="42.3689960" lon="-8.6243040">
        <ele>108.6</ele>
        <time>2021-05-21T10:08:36Z</time>
      </trkpt>
      <trkpt lat="42.3689980" lon="-8.6243150">
        <ele>108.7</ele>
        <time>2021-05-21T10:08:37Z</time>
      </trkpt>
      <trkpt lat="42.3690000" lon="-8.6243420">
        <ele>108.8</ele>
        <time>2021-05-21T10:08:38Z</time>
      </trkpt>
      <trkpt lat="42.3690010" lon="-8.6243540">
        <ele>108.9</ele>
        <time>2021-05-21T10:08:39Z</time>
      </trkpt>
      <trkpt lat="42.3690020" lon="-8.6243660">
        <ele>109.0</ele>
        <time>2021-05-21T10:08:40Z</time>
      </trkpt>
      <trkpt lat="42.3690130" lon="-8.6243870">
        <ele>109.2</ele>
        <time>2021-05-21T10:08:41Z</time>
      </trkpt>
      <trkpt lat="42.3690200" lon="-8.6243970">
        <ele>109.3</ele>
        <time>2021-05-21T10:08:42Z</time>
      </trkpt>
      <trkpt lat="42.3690300" lon="-8.6244070">
        <ele>109.4</ele>
        <time>2021-05-21T10:08:43Z</time>
      </trkpt>
      <trkpt lat="42.3690360" lon="-8.6244300">
        <ele>109.5</ele>
        <time>2021-05-21T10:08:44Z</time>
      </trkpt>
      <trkpt lat="42.3690400" lon="-8.6244390">
        <ele>109.6</ele>
        <time>2021-05-21T10:08:45Z</time>
      </trkpt>
      <trkpt lat="42.3690500" lon="-8.6244450">
        <ele>109.7</ele>
        <time>2021-05-21T10:08:46Z</time>
      </trkpt>
      <trkpt lat="42.3690560" lon="-8.6244640">
        <ele>109.9</ele>
        <time>2021-05-21T10:08:47Z</time>
      </trkpt>
      <trkpt lat="42.3690640" lon="-8.6244920">
        <ele>110.1</ele>
        <time>2021-05-21T10:08:48Z</time>
      </trkpt>
      <trkpt lat="42.3690680" lon="-8.6245030">
        <ele>110.2</ele>
        <time>2021-05-21T10:08:49Z</time>
      </trkpt>
      <trkpt lat="42.3690720" lon="-8.6245130">
        <ele>110.3</ele>
        <time>2021-05-21T10:08:50Z</time>
      </trkpt>
      <trkpt lat="42.3690790" lon="-8.6245230">
        <ele>110.4</ele>
        <time>2021-05-21T10:08:51Z</time>
      </trkpt>
      <trkpt lat="42.3690850" lon="-8.6245320">
        <ele>110.5</ele>
        <time>2021-05-21T10:08:52Z</time>
      </trkpt>
      <trkpt lat="42.3690950" lon="-8.6245440">
        <ele>110.6</ele>
        <time>2021-05-21T10:08:53Z</time>
      </trkpt>
      <trkpt lat="42.3691070" lon="-8.6245670">
        <ele>110.8</ele>
        <time>2021-05-21T10:08:54Z</time>
      </trkpt>
      <trkpt lat="42.3691150" lon="-8.6245750">
        <ele>110.9</ele>
        <time>2021-05-21T10:08:55Z</time>
      </trkpt>
      <trkpt lat="42.3691220" lon="-8.6245830">
        <ele>111.0</ele>
        <time>2021-05-21T10:08:56Z</time>
      </trkpt>
      <trkpt lat="42.3691320" lon="-8.6245970">
        <ele>111.2</ele>
        <time>2021-05-21T10:08:57Z</time>
      </trkpt>
      <trkpt lat="42.3691350" lon="-8.6246060">
        <ele>111.3</ele>
        <time>2021-05-21T10:08:58Z</time>
      </trkpt>
      <trkpt lat="42.3691470" lon="-8.6246140">
        <ele>111.4</ele>
        <time>2021-05-21T10:08:59Z</time>
      </trkpt>
      <trkpt lat="42.3691640" lon="-8.6246250">
        <ele>111.6</ele>
        <time>2021-05-21T10:09:00Z</time>
      </trkpt>
      <trkpt lat="42.3691720" lon="-8.6246440">
        <ele>111.8</ele>
        <time>2021-05-21T10:09:01Z</time>
      </trkpt>
      <trkpt lat="42.3691800" lon="-8.6246600">
        <ele>111.9</ele>
        <time>2021-05-21T10:09:02Z</time>
      </trkpt>
      <trkpt lat="42.3691870" lon="-8.6246830">
        <ele>112.1</ele>
        <time>2021-05-21T10:09:03Z</time>
      </trkpt>
      <trkpt lat="42.3691980" lon="-8.6246930">
        <ele>112.3</ele>
        <time>2021-05-21T10:09:04Z</time>
      </trkpt>
      <trkpt lat="42.3692060" lon="-8.6246970">
        <ele>112.4</ele>
        <time>2021-05-21T10:09:05Z</time>
      </trkpt>
      <trkpt lat="42.3692150" lon="-8.6247070">
        <ele>112.5</ele>
        <time>2021-05-21T10:09:06Z</time>
      </trkpt>
      <trkpt lat="42.3692200" lon="-8.6247240">
        <ele>112.7</ele>
        <time>2021-05-21T10:09:07Z</time>
      </trkpt>
      <trkpt lat="42.3692310" lon="-8.6247500">
        <ele>112.9</ele>
        <time>2021-05-21T10:09:08Z</time>
      </trkpt>
      <trkpt lat="42.3692320" lon="-8.6247630">
        <ele>113.0</ele>
        <time>2021-05-21T10:09:09Z</time>
      </trkpt>
      <trkpt lat="42.3692430" lon="-8.6247770">
        <ele>113.1</ele>
        <time>2021-05-21T10:09:10Z</time>
      </trkpt>
      <trkpt lat="42.3692510" lon="-8.6247890">
        <ele>113.2</ele>
        <time>2021-05-21T10:09:11Z</time>
      </trkpt>
      <trkpt lat="42.3692620" lon="-8.6248140">
        <ele>113.4</ele>
        <time>2021-05-21T10:09:12Z</time>
      </trkpt>
      <trkpt lat="42.3692680" lon="-8.6248240">
        <ele>113.5</ele>
        <time>2021-05-21T10:09:13Z</time>
      </trkpt>
      <trkpt lat="42.3692750" lon="-8.6248330">
        <ele>113.6</ele>
        <time>2021-05-21T10:09:14Z</time>
      </trkpt>
      <trkpt lat="42.3692780" lon="-8.6248430">
        <ele>113.6</ele>
        <time>2021-05-21T10:09:15Z</time>
      </trkpt>
      <trkpt lat="42.3692850" lon="-8.6248490">
        <ele>113.7</ele>
        <time>2021-05-21T10:09:16Z</time>
      </trkpt>
      <trkpt lat="42.3692890" lon="-8.6248690">
        <ele>113.8</ele>
        <time>2021-05-21T10:09:17Z</time>
      </trkpt>
      <trkpt lat="42.3692980" lon="-8.6248800">
        <ele>113.9</ele>
        <time>2021-05-21T10:09:18Z</time>
      </trkpt>
      <trkpt lat="42.3693030" lon="-8.6248940">
        <ele>113.9</ele>
        <time>2021-05-21T10:09:19Z</time>
      </trkpt>
      <trkpt lat="42.3693160" lon="-8.6249010">
        <ele>114.0</ele>
        <time>2021-05-21T10:09:20Z</time>
      </trkpt>
      <trkpt lat="42.3693240" lon="-8.6249190">
        <ele>114.0</ele>
        <time>2021-05-21T10:09:21Z</time>
      </trkpt>
      <trkpt lat="42.3693260" lon="-8.6249340">
        <ele>114.1</ele>
        <time>2021-05-21T10:09:22Z</time>
      </trkpt>
      <trkpt lat="42.3693270" lon="-8.6249470">
        <ele>114.1</ele>
        <time>2021-05-21T10:09:23Z</time>
      </trkpt>
      <trkpt lat="42.3693340" lon="-8.6249650">
        <ele>114.2</ele>
        <time>2021-05-21T10:09:24Z</time>
      </trkpt>
      <trkpt lat="42.3693400" lon="-8.6249700">
        <ele>114.2</ele>
        <time>2021-05-21T10:09:25Z</time>
      </trkpt>
      <trkpt lat="42.3693460" lon="-8.6249820">
        <ele>114.2</ele>
        <time>2021-05-21T10:09:26Z</time>
      </trkpt>
      <trkpt lat="42.3693510" lon="-8.6249940">
        <ele>114.2</ele>
        <time>2021-05-21T10:09:27Z</time>
      </trkpt>
      <trkpt lat="42.3693540" lon="-8.6250180">
        <ele>114.2</ele>
        <time>2021-05-21T10:09:28Z</time>
      </trkpt>
      <trkpt lat="42.3693560" lon="-8.6250300">
        <ele>114.2</ele>
        <time>2021-05-21T10:09:29Z</time>
      </trkpt>
      <trkpt lat="42.3693650" lon="-8.6250410">
        <ele>114.2</ele>
        <time>2021-05-21T10:09:30Z</time>
      </trkpt>
      <trkpt lat="42.3693680" lon="-8.6250600">
        <ele>114.2</ele>
        <time>2021-05-21T10:09:31Z</time>
      </trkpt>
      <trkpt lat="42.3693740" lon="-8.6250830">
        <ele>114.2</ele>
        <time>2021-05-21T10:09:32Z</time>
      </trkpt>
      <trkpt lat="42.3693800" lon="-8.6250930">
        <ele>114.2</ele>
        <time>2021-05-21T10:09:33Z</time>
      </trkpt>
      <trkpt lat="42.3693850" lon="-8.6251040">
        <ele>114.2</ele>
        <time>2021-05-21T10:09:34Z</time>
      </trkpt>
      <trkpt lat="42.3693920" lon="-8.6251320">
        <ele>114.1</ele>
        <time>2021-05-21T10:09:35Z</time>
      </trkpt>
      <trkpt lat="42.3693990" lon="-8.6251480">
        <ele>114.1</ele>
        <time>2021-05-21T10:09:36Z</time>
      </trkpt>
      <trkpt lat="42.3694180" lon="-8.6251540">
        <ele>114.1</ele>
        <time>2021-05-21T10:09:37Z</time>
      </trkpt>
      <trkpt lat="42.3694260" lon="-8.6251670">
        <ele>114.0</ele>
        <time>2021-05-21T10:09:38Z</time>
      </trkpt>
      <trkpt lat="42.3694380" lon="-8.6251820">
        <ele>114.0</ele>
        <time>2021-05-21T10:09:39Z</time>
      </trkpt>
      <trkpt lat="42.3694470" lon="-8.6251980">
        <ele>114.0</ele>
        <time>2021-05-21T10:09:40Z</time>
      </trkpt>
      <trkpt lat="42.3694590" lon="-8.6252130">
        <ele>113.9</ele>
        <time>2021-05-21T10:09:41Z</time>
      </trkpt>
      <trkpt lat="42.3694720" lon="-8.6252210">
        <ele>113.9</ele>
        <time>2021-05-21T10:09:42Z</time>
      </trkpt>
      <trkpt lat="42.3694880" lon="-8.6252280">
        <ele>113.8</ele>
        <time>2021-05-21T10:09:43Z</time>
      </trkpt>
      <trkpt lat="42.3694980" lon="-8.6252470">
        <ele>113.7</ele>
        <time>2021-05-21T10:09:44Z</time>
      </trkpt>
      <trkpt lat="42.3695070" lon="-8.6252570">
        <ele>113.7</ele>
        <time>2021-05-21T10:09:45Z</time>
      </trkpt>
      <trkpt lat="42.3695210" lon="-8.6252680">
        <ele>113.6</ele>
        <time>2021-05-21T10:09:46Z</time>
      </trkpt>
      <trkpt lat="42.3695400" lon="-8.6252890">
        <ele>113.6</ele>
        <time>2021-05-21T10:09:47Z</time>
      </trkpt>
      <trkpt lat="42.3695460" lon="-8.6252960">
        <ele>113.5</ele>
        <time>2021-05-21T10:09:48Z</time>
      </trkpt>
      <trkpt lat="42.3695530" lon="-8.6253020">
        <ele>113.5</ele>
        <time>2021-05-21T10:09:49Z</time>
      </trkpt>
      <trkpt lat="42.3695680" lon="-8.6253180">
        <ele>113.4</ele>
        <time>2021-05-21T10:09:50Z</time>
      </trkpt>
      <trkpt lat="42.3695810" lon="-8.6253220">
        <ele>113.4</ele>
        <time>2021-05-21T10:09:51Z</time>
      </trkpt>
      <trkpt lat="42.3695990" lon="-8.6253350">
        <ele>113.3</ele>
        <time>2021-05-21T10:09:52Z</time>
      </trkpt>
      <trkpt lat="42.3696060" lon="-8.6253410">
        <ele>113.3</ele>
        <time>2021-05-21T10:09:53Z</time>
      </trkpt>
      <trkpt lat="42.3696140" lon="-8.6253480">
        <ele>113.3</ele>
        <time>2021-05-21T10:09:54Z</time>
      </trkpt>
      <trkpt lat="42.3696260" lon="-8.6253590">
        <ele>113.2</ele>
        <time>2021-05-21T10:09:55Z</time>
      </trkpt>
      <trkpt lat="42.3696390" lon="-8.6253720">
        <ele>113.2</ele>
        <time>2021-05-21T10:09:56Z</time>
      </trkpt>
      <trkpt lat="42.3696620" lon="-8.6253810">
        <ele>113.1</ele>
        <time>2021-05-21T10:09:57Z</time>
      </trkpt>
      <trkpt lat="42.3696690" lon="-8.6253850">
        <ele>113.0</ele>
        <time>2021-05-21T10:09:58Z</time>
      </trkpt>
      <trkpt lat="42.3696770" lon="-8.6253900">
        <ele>113.0</ele>
        <time>2021-05-21T10:09:59Z</time>
      </trkpt>
      <trkpt lat="42.3696870" lon="-8.6254060">
        <ele>113.0</ele>
        <time>2021-05-21T10:10:00Z</time>
      </trkpt>
      <trkpt lat="42.3697030" lon="-8.6254090">
        <ele>112.9</ele>
        <time>2021-05-21T10:10:01Z</time>
      </trkpt>
      <trkpt lat="42.3697260" lon="-8.6254190">
        <ele>112.8</ele>
        <time>2021-05-21T10:10:02Z</time>
      </trkpt>
      <trkpt lat="42.3697350" lon="-8.6254220">
        <ele>112.8</ele>
        <time>2021-05-21T10:10:03Z</time>
      </trkpt>
      <trkpt lat="42.3697430" lon="-8.6254260">
        <ele>112.7</ele>
        <time>2021-05-21T10:10:04Z</time>
      </trkpt>
      <trkpt lat="42.3697650" lon="-8.6254330">
        <ele>112.7</ele>
        <time>2021-05-21T10:10:05Z</time>
      </trkpt>
      <trkpt lat="42.3697750" lon="-8.6254380">
        <ele>112.6</ele>
        <time>2021-05-21T10:10:06Z</time>
      </trkpt>
      <trkpt lat="42.3697850" lon="-8.6254430">
        <ele>112.6</ele>
        <time>2021-05-21T10:10:07Z</time>
      </trkpt>
      <trkpt lat="42.3697980" lon="-8.6254440">
        <ele>112.5</ele>
        <time>2021-05-21T10:10:08Z</time>
      </trkpt>
      <trkpt lat="42.3698110" lon="-8.6254570">
        <ele>112.5</ele>
        <time>2021-05-21T10:10:09Z</time>
      </trkpt>
      <trkpt lat="42.3698250" lon="-8.6254630">
        <ele>112.4</ele>
        <time>2021-05-21T10:10:10Z</time>
      </trkpt>
      <trkpt lat="42.3698380" lon="-8.6254660">
        <ele>112.4</ele>
        <time>2021-05-21T10:10:11Z</time>
      </trkpt>
      <trkpt lat="42.3698570" lon="-8.6254800">
        <ele>112.3</ele>
        <time>2021-05-21T10:10:12Z</time>
      </trkpt>
      <trkpt lat="42.3698650" lon="-8.6254870">
        <ele>112.2</ele>
        <time>2021-05-21T10:10:13Z</time>
      </trkpt>
      <trkpt lat="42.3698740" lon="-8.6254950">
        <ele>112.2</ele>
        <time>2021-05-21T10:10:14Z</time>
      </trkpt>
      <trkpt lat="42.3698900" lon="-8.6254940">
        <ele>112.2</ele>
        <time>2021-05-21T10:10:15Z</time>
      </trkpt>
      <trkpt lat="42.3699020" lon="-8.6255020">
        <ele>112.1</ele>
        <time>2021-05-21T10:10:16Z</time>
      </trkpt>
      <trkpt lat="42.3699140" lon="-8.6255010">
        <ele>112.1</ele>
        <time>2021-05-21T10:10:17Z</time>
      </trkpt>
      <trkpt lat="42.3699230" lon="-8.6255070">
        <ele>112.0</ele>
        <time>2021-05-21T10:10:18Z</time>
      </trkpt>
      <trkpt lat="42.3699350" lon="-8.6255100">
        <ele>112.0</ele>
        <time>2021-05-21T10:10:19Z</time>
      </trkpt>
      <trkpt lat="42.3699450" lon="-8.6255190">
        <ele>112.0</ele>
        <time>2021-05-21T10:10:20Z</time>
      </trkpt>
      <trkpt lat="42.3699530" lon="-8.6255310">
        <ele>111.9</ele>
        <time>2021-05-21T10:10:21Z</time>
      </trkpt>
      <trkpt lat="42.3699610" lon="-8.6255390">
        <ele>111.9</ele>
        <time>2021-05-21T10:10:22Z</time>
      </trkpt>
      <trkpt lat="42.3699760" lon="-8.6255510">
        <ele>111.8</ele>
        <time>2021-05-21T10:10:23Z</time>
      </trkpt>
      <trkpt lat="42.3699870" lon="-8.6255540">
        <ele>111.8</ele>
        <time>2021-05-21T10:10:24Z</time>
      </trkpt>
      <trkpt lat="42.3700060" lon="-8.6255630">
        <ele>111.7</ele>
        <time>2021-05-21T10:10:25Z</time>
      </trkpt>
      <trkpt lat="42.3700150" lon="-8.6255650">
        <ele>111.7</ele>
        <time>2021-05-21T10:10:26Z</time>
      </trkpt>
      <trkpt lat="42.3700230" lon="-8.6255660">
        <ele>111.7</ele>
        <time>2021-05-21T10:10:27Z</time>
      </trkpt>
      <trkpt lat="42.3700330" lon="-8.6255720">
        <ele>111.6</ele>
        <time>2021-05-21T10:10:28Z</time>
      </trkpt>
      <trkpt lat="42.3700440" lon="-8.6255730">
        <ele>111.6</ele>
        <time>2021-05-21T10:10:29Z</time>
      </trkpt>
      <trkpt lat="42.3700550" lon="-8.6255840">
        <ele>111.6</ele>
        <time>2021-05-21T10:10:30Z</time>
      </trkpt>
      <trkpt lat="42.3700650" lon="-8.6255900">
        <ele>111.5</ele>
        <time>2021-05-21T10:10:31Z</time>
      </trkpt>
      <trkpt lat="42.3700720" lon="-8.6255970">
        <ele>111.5</ele>
        <time>2021-05-21T10:10:32Z</time>
      </trkpt>
      <trkpt lat="42.3700850" lon="-8.6256020">
        <ele>111.5</ele>
        <time>2021-05-21T10:10:33Z</time>
      </trkpt>
      <trkpt lat="42.3701020" lon="-8.6256180">
        <ele>111.4</ele>
        <time>2021-05-21T10:10:34Z</time>
      </trkpt>
      <trkpt lat="42.3701090" lon="-8.6256250">
        <ele>111.4</ele>
        <time>2021-05-21T10:10:35Z</time>
      </trkpt>
      <trkpt lat="42.3701170" lon="-8.6256320">
        <ele>111.3</ele>
        <time>2021-05-21T10:10:36Z</time>
      </trkpt>
      <trkpt lat="42.3701240" lon="-8.6256470">
        <ele>111.3</ele>
        <time>2021-05-21T10:10:37Z</time>
      </trkpt>
      <trkpt lat="42.3701280" lon="-8.6256540">
        <ele>111.3</ele>
        <time>2021-05-21T10:10:38Z</time>
      </trkpt>
      <trkpt lat="42.3701360" lon="-8.6256670">
        <ele>111.3</ele>
        <time>2021-05-21T10:10:39Z</time>
      </trkpt>
      <trkpt lat="42.3701440" lon="-8.6256790">
        <ele>111.2</ele>
        <time>2021-05-21T10:10:40Z</time>
      </trkpt>
      <trkpt lat="42.3701530" lon="-8.6256890">
        <ele>111.2</ele>
        <time>2021-05-21T10:10:41Z</time>
      </trkpt>
      <trkpt lat="42.3701670" lon="-8.6256930">
        <ele>111.1</ele>
        <time>2021-05-21T10:10:42Z</time>
      </trkpt>
      <trkpt lat="42.3701770" lon="-8.6256960">
        <ele>111.1</ele>
        <time>2021-05-21T10:10:43Z</time>
      </trkpt>
      <trkpt lat="42.3701950" lon="-8.6257100">
        <ele>111.1</ele>
        <time>2021-05-21T10:10:44Z</time>
      </trkpt>
      <trkpt lat="42.3702110" lon="-8.6257050">
        <ele>111.0</ele>
        <time>2021-05-21T10:10:45Z</time>
      </trkpt>
      <trkpt lat="42.3702230" lon="-8.6257120">
        <ele>111.0</ele>
        <time>2021-05-21T10:10:46Z</time>
      </trkpt>
      <trkpt lat="42.3702370" lon="-8.6257240">
        <ele>111.0</ele>
        <time>2021-05-21T10:10:47Z</time>
      </trkpt>
      <trkpt lat="42.3702510" lon="-8.6257310">
        <ele>110.9</ele>
        <time>2021-05-21T10:10:48Z</time>
      </trkpt>
      <trkpt lat="42.3702700" lon="-8.6257430">
        <ele>110.9</ele>
        <time>2021-05-21T10:10:49Z</time>
      </trkpt>
      <trkpt lat="42.3702780" lon="-8.6257460">
        <ele>110.9</ele>
        <time>2021-05-21T10:10:50Z</time>
      </trkpt>
      <trkpt lat="42.3702870" lon="-8.6257500">
        <ele>110.8</ele>
        <time>2021-05-21T10:10:51Z</time>
      </trkpt>
      <trkpt lat="42.3703070" lon="-8.6257600">
        <ele>110.8</ele>
        <time>2021-05-21T10:10:52Z</time>
      </trkpt>
      <trkpt lat="42.3703170" lon="-8.6257640">
        <ele>110.8</ele>
        <time>2021-05-21T10:10:53Z</time>
      </trkpt>
      <trkpt lat="42.3703270" lon="-8.6257680">
        <ele>110.8</ele>
        <time>2021-05-21T10:10:54Z</time>
      </trkpt>
      <trkpt lat="42.3703490" lon="-8.6257700">
        <ele>110.7</ele>
        <time>2021-05-21T10:10:55Z</time>
      </trkpt>
      <trkpt lat="42.3703570" lon="-8.6257720">
        <ele>110.7</ele>
        <time>2021-05-21T10:10:56Z</time>
      </trkpt>
      <trkpt lat="42.3703660" lon="-8.6257730">
        <ele>110.7</ele>
        <time>2021-05-21T10:10:57Z</time>
      </trkpt>
      <trkpt lat="42.3703870" lon="-8.6257780">
        <ele>110.7</ele>
        <time>2021-05-21T10:10:58Z</time>
      </trkpt>
      <trkpt lat="42.3703970" lon="-8.6257770">
        <ele>110.7</ele>
        <time>2021-05-21T10:10:59Z</time>
      </trkpt>
      <trkpt lat="42.3704060" lon="-8.6257750">
        <ele>110.6</ele>
        <time>2021-05-21T10:11:00Z</time>
      </trkpt>
      <trkpt lat="42.3704240" lon="-8.6257810">
        <ele>110.6</ele>
        <time>2021-05-21T10:11:01Z</time>
      </trkpt>
      <trkpt lat="42.3704340" lon="-8.6257820">
        <ele>110.6</ele>
        <time>2021-05-21T10:11:02Z</time>
      </trkpt>
      <trkpt lat="42.3704430" lon="-8.6257820">
        <ele>110.6</ele>
        <time>2021-05-21T10:11:03Z</time>
      </trkpt>
      <trkpt lat="42.3704550" lon="-8.6257960">
        <ele>110.6</ele>
        <time>2021-05-21T10:11:04Z</time>
      </trkpt>
      <trkpt lat="42.3704680" lon="-8.6257980">
        <ele>110.6</ele>
        <time>2021-05-21T10:11:05Z</time>
      </trkpt>
      <trkpt lat="42.3704830" lon="-8.6258020">
        <ele>110.5</ele>
        <time>2021-05-21T10:11:06Z</time>
      </trkpt>
      <trkpt lat="42.3704960" lon="-8.6258140">
        <ele>110.5</ele>
        <time>2021-05-21T10:11:07Z</time>
      </trkpt>
      <trkpt lat="42.3705170" lon="-8.6258300">
        <ele>110.5</ele>
        <time>2021-05-21T10:11:08Z</time>
      </trkpt>
      <trkpt lat="42.3705240" lon="-8.6258370">
        <ele>110.5</ele>
        <time>2021-05-21T10:11:09Z</time>
      </trkpt>
      <trkpt lat="42.3705320" lon="-8.6258430">
        <ele>110.5</ele>
        <time>2021-05-21T10:11:10Z</time>
      </trkpt>
      <trkpt lat="42.3705460" lon="-8.6258590">
        <ele>110.5</ele>
        <time>2021-05-21T10:11:11Z</time>
      </trkpt>
      <trkpt lat="42.3705530" lon="-8.6258680">
        <ele>110.4</ele>
        <time>2021-05-21T10:11:12Z</time>
      </trkpt>
      <trkpt lat="42.3705590" lon="-8.6258780">
        <ele>110.4</ele>
        <time>2021-05-21T10:11:13Z</time>
      </trkpt>
      <trkpt lat="42.3705680" lon="-8.6258950">
        <ele>110.4</ele>
        <time>2021-05-21T10:11:14Z</time>
      </trkpt>
      <trkpt lat="42.3705760" lon="-8.6259080">
        <ele>110.4</ele>
        <time>2021-05-21T10:11:15Z</time>
      </trkpt>
      <trkpt lat="42.3705830" lon="-8.6259240">
        <ele>110.4</ele>
        <time>2021-05-21T10:11:16Z</time>
      </trkpt>
      <trkpt lat="42.3705820" lon="-8.6259440">
        <ele>110.4</ele>
        <time>2021-05-21T10:11:17Z</time>
      </trkpt>
      <trkpt lat="42.3705920" lon="-8.6259700">
        <ele>110.3</ele>
        <time>2021-05-21T10:11:18Z</time>
      </trkpt>
      <trkpt lat="42.3705980" lon="-8.6259800">
        <ele>110.3</ele>
        <time>2021-05-21T10:11:19Z</time>
      </trkpt>
      <trkpt lat="42.3706030" lon="-8.6259890">
        <ele>110.3</ele>
        <time>2021-05-21T10:11:20Z</time>
      </trkpt>
      <trkpt lat="42.3706130" lon="-8.6260170">
        <ele>110.2</ele>
        <time>2021-05-21T10:11:21Z</time>
      </trkpt>
      <trkpt lat="42.3706180" lon="-8.6260270">
        <ele>110.2</ele>
        <time>2021-05-21T10:11:22Z</time>
      </trkpt>
      <trkpt lat="42.3706240" lon="-8.6260360">
        <ele>110.2</ele>
        <time>2021-05-21T10:11:23Z</time>
      </trkpt>
      <trkpt lat="42.3706330" lon="-8.6260510">
        <ele>110.1</ele>
        <time>2021-05-21T10:11:24Z</time>
      </trkpt>
      <trkpt lat="42.3706420" lon="-8.6260640">
        <ele>110.1</ele>
        <time>2021-05-21T10:11:25Z</time>
      </trkpt>
      <trkpt lat="42.3706630" lon="-8.6260790">
        <ele>110.0</ele>
        <time>2021-05-21T10:11:26Z</time>
      </trkpt>
      <trkpt lat="42.3706700" lon="-8.6260870">
        <ele>110.0</ele>
        <time>2021-05-21T10:11:27Z</time>
      </trkpt>
      <trkpt lat="42.3706780" lon="-8.6260960">
        <ele>109.9</ele>
        <time>2021-05-21T10:11:28Z</time>
      </trkpt>
      <trkpt lat="42.3706970" lon="-8.6261080">
        <ele>109.9</ele>
        <time>2021-05-21T10:11:29Z</time>
      </trkpt>
      <trkpt lat="42.3707090" lon="-8.6261080">
        <ele>109.8</ele>
        <time>2021-05-21T10:11:30Z</time>
      </trkpt>
      <trkpt lat="42.3707200" lon="-8.6261090">
        <ele>109.8</ele>
        <time>2021-05-21T10:11:31Z</time>
      </trkpt>
      <trkpt lat="42.3707330" lon="-8.6261140">
        <ele>109.7</ele>
        <time>2021-05-21T10:11:32Z</time>
      </trkpt>
      <trkpt lat="42.3707460" lon="-8.6261190">
        <ele>109.6</ele>
        <time>2021-05-21T10:11:33Z</time>
      </trkpt>
      <trkpt lat="42.3707680" lon="-8.6261250">
        <ele>109.6</ele>
        <time>2021-05-21T10:11:34Z</time>
      </trkpt>
      <trkpt lat="42.3707750" lon="-8.6261280">
        <ele>109.5</ele>
        <time>2021-05-21T10:11:35Z</time>
      </trkpt>
      <trkpt lat="42.3707830" lon="-8.6261300">
        <ele>109.5</ele>
        <time>2021-05-21T10:11:36Z</time>
      </trkpt>
      <trkpt lat="42.3707960" lon="-8.6261210">
        <ele>109.5</ele>
        <time>2021-05-21T10:11:37Z</time>
      </trkpt>
      <trkpt lat="42.3708070" lon="-8.6261230">
        <ele>109.4</ele>
        <time>2021-05-21T10:11:38Z</time>
      </trkpt>
      <trkpt lat="42.3708190" lon="-8.6261170">
        <ele>109.4</ele>
        <time>2021-05-21T10:11:39Z</time>
      </trkpt>
      <trkpt lat="42.3708390" lon="-8.6261050">
        <ele>109.4</ele>
        <time>2021-05-21T10:11:40Z</time>
      </trkpt>
      <trkpt lat="42.3708470" lon="-8.6261010">
        <ele>109.4</ele>
        <time>2021-05-21T10:11:41Z</time>
      </trkpt>
      <trkpt lat="42.3708540" lon="-8.6260970">
        <ele>109.4</ele>
        <time>2021-05-21T10:11:42Z</time>
      </trkpt>
      <trkpt lat="42.3708710" lon="-8.6260910">
        <ele>109.4</ele>
        <time>2021-05-21T10:11:43Z</time>
      </trkpt>
      <trkpt lat="42.3708780" lon="-8.6260870">
        <ele>109.4</ele>
        <time>2021-05-21T10:11:44Z</time>
      </trkpt>
      <trkpt lat="42.3708850" lon="-8.6260840">
        <ele>109.4</ele>
        <time>2021-05-21T10:11:45Z</time>
      </trkpt>
      <trkpt lat="42.3708920" lon="-8.6260800">
        <ele>109.4</ele>
        <time>2021-05-21T10:11:46Z</time>
      </trkpt>
      <trkpt lat="42.3709040" lon="-8.6260760">
        <ele>109.4</ele>
        <time>2021-05-21T10:11:47Z</time>
      </trkpt>
      <trkpt lat="42.3709110" lon="-8.6260710">
        <ele>109.4</ele>
        <time>2021-05-21T10:11:48Z</time>
      </trkpt>
      <trkpt lat="42.3709240" lon="-8.6260680">
        <ele>109.4</ele>
        <time>2021-05-21T10:11:49Z</time>
      </trkpt>
      <trkpt lat="42.3709370" lon="-8.6260590">
        <ele>109.4</ele>
        <time>2021-05-21T10:11:50Z</time>
      </trkpt>
      <trkpt lat="42.3709480" lon="-8.6260550">
        <ele>109.4</ele>
        <time>2021-05-21T10:11:51Z</time>
      </trkpt>
      <trkpt lat="42.3709550" lon="-8.6260580">
        <ele>109.4</ele>
        <time>2021-05-21T10:11:52Z</time>
      </trkpt>
      <trkpt lat="42.3709670" lon="-8.6260580">
        <ele>109.4</ele>
        <time>2021-05-21T10:11:53Z</time>
      </trkpt>
      <trkpt lat="42.3709800" lon="-8.6260550">
        <ele>109.4</ele>
        <time>2021-05-21T10:11:54Z</time>
      </trkpt>
      <trkpt lat="42.3709890" lon="-8.6260570">
        <ele>109.4</ele>
        <time>2021-05-21T10:11:55Z</time>
      </trkpt>
      <trkpt lat="42.3710030" lon="-8.6260510">
        <ele>109.4</ele>
        <time>2021-05-21T10:11:56Z</time>
      </trkpt>
      <trkpt lat="42.3710170" lon="-8.6260440">
        <ele>109.4</ele>
        <time>2021-05-21T10:11:57Z</time>
      </trkpt>
      <trkpt lat="42.3710360" lon="-8.6260380">
        <ele>109.4</ele>
        <time>2021-05-21T10:11:58Z</time>
      </trkpt>
      <trkpt lat="42.3710450" lon="-8.6260340">
        <ele>109.4</ele>
        <time>2021-05-21T10:11:59Z</time>
      </trkpt>
      <trkpt lat="42.3710550" lon="-8.6260310">
        <ele>109.4</ele>
        <time>2021-05-21T10:12:00Z</time>
      </trkpt>
      <trkpt lat="42.3710600" lon="-8.6260300">
        <ele>109.5</ele>
        <time>2021-05-21T10:12:01Z</time>
      </trkpt>
      <trkpt lat="42.3710700" lon="-8.6260300">
        <ele>109.5</ele>
        <time>2021-05-21T10:12:02Z</time>
      </trkpt>
      <trkpt lat="42.3710840" lon="-8.6260310">
        <ele>109.5</ele>
        <time>2021-05-21T10:12:03Z</time>
      </trkpt>
      <trkpt lat="42.3711030" lon="-8.6260250">
        <ele>109.5</ele>
        <time>2021-05-21T10:12:04Z</time>
      </trkpt>
      <trkpt lat="42.3711110" lon="-8.6260210">
        <ele>109.5</ele>
        <time>2021-05-21T10:12:05Z</time>
      </trkpt>
      <trkpt lat="42.3711200" lon="-8.6260160">
        <ele>109.5</ele>
        <time>2021-05-21T10:12:06Z</time>
      </trkpt>
      <trkpt lat="42.3711390" lon="-8.6260080">
        <ele>109.6</ele>
        <time>2021-05-21T10:12:07Z</time>
      </trkpt>
      <trkpt lat="42.3711480" lon="-8.6260070">
        <ele>109.6</ele>
        <time>2021-05-21T10:12:08Z</time>
      </trkpt>
      <trkpt lat="42.3711570" lon="-8.6260060">
        <ele>109.6</ele>
        <time>2021-05-21T10:12:09Z</time>
      </trkpt>
      <trkpt lat="42.3711810" lon="-8.6260010">
        <ele>109.7</ele>
        <time>2021-05-21T10:12:10Z</time>
      </trkpt>
      <trkpt lat="42.3711900" lon="-8.6259940">
        <ele>109.7</ele>
        <time>2021-05-21T10:12:11Z</time>
      </trkpt>
      <trkpt lat="42.3711990" lon="-8.6259880">
        <ele>109.7</ele>
        <time>2021-05-21T10:12:12Z</time>
      </trkpt>
      <trkpt lat="42.3712180" lon="-8.6259840">
        <ele>109.8</ele>
        <time>2021-05-21T10:12:13Z</time>
      </trkpt>
      <trkpt lat="42.3712270" lon="-8.6259810">
        <ele>109.8</ele>
        <time>2021-05-21T10:12:14Z</time>
      </trkpt>
      <trkpt lat="42.3712370" lon="-8.6259780">
        <ele>109.8</ele>
        <time>2021-05-21T10:12:15Z</time>
      </trkpt>
      <trkpt lat="42.3712500" lon="-8.6259730">
        <ele>109.8</ele>
        <time>2021-05-21T10:12:16Z</time>
      </trkpt>
      <trkpt lat="42.3712640" lon="-8.6259710">
        <ele>109.9</ele>
        <time>2021-05-21T10:12:17Z</time>
      </trkpt>
      <trkpt lat="42.3712820" lon="-8.6259630">
        <ele>109.9</ele>
        <time>2021-05-21T10:12:18Z</time>
      </trkpt>
      <trkpt lat="42.3712910" lon="-8.6259600">
        <ele>110.0</ele>
        <time>2021-05-21T10:12:19Z</time>
      </trkpt>
      <trkpt lat="42.3712990" lon="-8.6259560">
        <ele>110.0</ele>
        <time>2021-05-21T10:12:20Z</time>
      </trkpt>
      <trkpt lat="42.3713080" lon="-8.6259520">
        <ele>110.0</ele>
        <time>2021-05-21T10:12:21Z</time>
      </trkpt>
      <trkpt lat="42.3713210" lon="-8.6259480">
        <ele>110.0</ele>
        <time>2021-05-21T10:12:22Z</time>
      </trkpt>
      <trkpt lat="42.3713290" lon="-8.6259450">
        <ele>110.1</ele>
        <time>2021-05-21T10:12:23Z</time>
      </trkpt>
      <trkpt lat="42.3713410" lon="-8.6259390">
        <ele>110.1</ele>
        <time>2021-05-21T10:12:24Z</time>
      </trkpt>
      <trkpt lat="42.3713570" lon="-8.6259320">
        <ele>110.1</ele>
        <time>2021-05-21T10:12:25Z</time>
      </trkpt>
      <trkpt lat="42.3713680" lon="-8.6259290">
        <ele>110.2</ele>
        <time>2021-05-21T10:12:26Z</time>
      </trkpt>
      <trkpt lat="42.3713770" lon="-8.6259230">
        <ele>110.2</ele>
        <time>2021-05-21T10:12:27Z</time>
      </trkpt>
      <trkpt lat="42.3713880" lon="-8.6259160">
        <ele>110.2</ele>
        <time>2021-05-21T10:12:28Z</time>
      </trkpt>
      <trkpt lat="42.3713980" lon="-8.6259090">
        <ele>110.2</ele>
        <time>2021-05-21T10:12:29Z</time>
      </trkpt>
      <trkpt lat="42.3714100" lon="-8.6259000">
        <ele>110.3</ele>
        <time>2021-05-21T10:12:30Z</time>
      </trkpt>
      <trkpt lat="42.3714280" lon="-8.6258890">
        <ele>110.3</ele>
        <time>2021-05-21T10:12:31Z</time>
      </trkpt>
      <trkpt lat="42.3714450" lon="-8.6258760">
        <ele>110.3</ele>
        <time>2021-05-21T10:12:32Z</time>
      </trkpt>
      <trkpt lat="42.3714530" lon="-8.6258690">
        <ele>110.3</ele>
        <time>2021-05-21T10:12:33Z</time>
      </trkpt>
      <trkpt lat="42.3714620" lon="-8.6258630">
        <ele>110.3</ele>
        <time>2021-05-21T10:12:34Z</time>
      </trkpt>
      <trkpt lat="42.3714690" lon="-8.6258550">
        <ele>110.3</ele>
        <time>2021-05-21T10:12:35Z</time>
      </trkpt>
      <trkpt lat="42.3714820" lon="-8.6258380">
        <ele>110.3</ele>
        <time>2021-05-21T10:12:36Z</time>
      </trkpt>
      <trkpt lat="42.3715010" lon="-8.6258290">
        <ele>110.3</ele>
        <time>2021-05-21T10:12:37Z</time>
      </trkpt>
      <trkpt lat="42.3715080" lon="-8.6258230">
        <ele>110.3</ele>
        <time>2021-05-21T10:12:38Z</time>
      </trkpt>
      <trkpt lat="42.3715160" lon="-8.6258180">
        <ele>110.3</ele>
        <time>2021-05-21T10:12:39Z</time>
      </trkpt>
      <trkpt lat="42.3715340" lon="-8.6258040">
        <ele>110.3</ele>
        <time>2021-05-21T10:12:40Z</time>
      </trkpt>
      <trkpt lat="42.3715450" lon="-8.6258010">
        <ele>110.3</ele>
        <time>2021-05-21T10:12:41Z</time>
      </trkpt>
      <trkpt lat="42.3715630" lon="-8.6257800">
        <ele>110.3</ele>
        <time>2021-05-21T10:12:42Z</time>
      </trkpt>
      <trkpt lat="42.3715720" lon="-8.6257720">
        <ele>110.3</ele>
        <time>2021-05-21T10:12:43Z</time>
      </trkpt>
      <trkpt lat="42.3715820" lon="-8.6257640">
        <ele>110.3</ele>
        <time>2021-05-21T10:12:44Z</time>
      </trkpt>
      <trkpt lat="42.3715980" lon="-8.6257600">
        <ele>110.3</ele>
        <time>2021-05-21T10:12:45Z</time>
      </trkpt>
      <trkpt lat="42.3716130" lon="-8.6257520">
        <ele>110.2</ele>
        <time>2021-05-21T10:12:46Z</time>
      </trkpt>
      <trkpt lat="42.3716250" lon="-8.6257450">
        <ele>110.2</ele>
        <time>2021-05-21T10:12:47Z</time>
      </trkpt>
      <trkpt lat="42.3716370" lon="-8.6257250">
        <ele>110.2</ele>
        <time>2021-05-21T10:12:48Z</time>
      </trkpt>
      <trkpt lat="42.3716560" lon="-8.6257090">
        <ele>110.2</ele>
        <time>2021-05-21T10:12:49Z</time>
      </trkpt>
      <trkpt lat="42.3716640" lon="-8.6257050">
        <ele>110.2</ele>
        <time>2021-05-21T10:12:50Z</time>
      </trkpt>
      <trkpt lat="42.3716720" lon="-8.6257020">
        <ele>110.2</ele>
        <time>2021-05-21T10:12:51Z</time>
      </trkpt>
      <trkpt lat="42.3716930" lon="-8.6256940">
        <ele>110.1</ele>
        <time>2021-05-21T10:12:52Z</time>
      </trkpt>
      <trkpt lat="42.3717020" lon="-8.6256930">
        <ele>110.1</ele>
        <time>2021-05-21T10:12:53Z</time>
      </trkpt>
      <trkpt lat="42.3717120" lon="-8.6256920">
        <ele>110.1</ele>
        <time>2021-05-21T10:12:54Z</time>
      </trkpt>
      <trkpt lat="42.3717250" lon="-8.6256890">
        <ele>110.1</ele>
        <time>2021-05-21T10:12:55Z</time>
      </trkpt>
      <trkpt lat="42.3717390" lon="-8.6256830">
        <ele>110.1</ele>
        <time>2021-05-21T10:12:56Z</time>
      </trkpt>
      <trkpt lat="42.3717510" lon="-8.6256750">
        <ele>110.1</ele>
        <time>2021-05-21T10:12:57Z</time>
      </trkpt>
      <trkpt lat="42.3717580" lon="-8.6256620">
        <ele>110.1</ele>
        <time>2021-05-21T10:12:58Z</time>
      </trkpt>
      <trkpt lat="42.3717700" lon="-8.6256620">
        <ele>110.0</ele>
        <time>2021-05-21T10:12:59Z</time>
      </trkpt>
      <trkpt lat="42.3717830" lon="-8.6256550">
        <ele>110.0</ele>
        <time>2021-05-21T10:13:00Z</time>
      </trkpt>
      <trkpt lat="42.3717940" lon="-8.6256450">
        <ele>110.0</ele>
        <time>2021-05-21T10:13:01Z</time>
      </trkpt>
      <trkpt lat="42.3718080" lon="-8.6256390">
        <ele>110.0</ele>
        <time>2021-05-21T10:13:02Z</time>
      </trkpt>
      <trkpt lat="42.3718200" lon="-8.6256290">
        <ele>110.0</ele>
        <time>2021-05-21T10:13:03Z</time>
      </trkpt>
      <trkpt lat="42.3718390" lon="-8.6256130">
        <ele>110.0</ele>
        <time>2021-05-21T10:13:04Z</time>
      </trkpt>
      <trkpt lat="42.3718470" lon="-8.6256100">
        <ele>110.0</ele>
        <time>2021-05-21T10:13:05Z</time>
      </trkpt>
      <trkpt lat="42.3718550" lon="-8.6256060">
        <ele>110.0</ele>
        <time>2021-05-21T10:13:06Z</time>
      </trkpt>
      <trkpt lat="42.3718690" lon="-8.6255970">
        <ele>110.0</ele>
        <time>2021-05-21T10:13:07Z</time>
      </trkpt>
      <trkpt lat="42.3718790" lon="-8.6255830">
        <ele>110.0</ele>
        <time>2021-05-21T10:13:08Z</time>
      </trkpt>
      <trkpt lat="42.3718970" lon="-8.6255700">
        <ele>110.0</ele>
        <time>2021-05-21T10:13:09Z</time>
      </trkpt>
      <trkpt lat="42.3719040" lon="-8.6255620">
        <ele>110.0</ele>
        <time>2021-05-21T10:13:10Z</time>
      </trkpt>
      <trkpt lat="42.3719100" lon="-8.6255550">
        <ele>110.0</ele>
        <time>2021-05-21T10:13:11Z</time>
      </trkpt>
      <trkpt lat="42.3719300" lon="-8.6255440">
        <ele>110.0</ele>
        <time>2021-05-21T10:13:12Z</time>
      </trkpt>
      <trkpt lat="42.3719380" lon="-8.6255380">
        <ele>110.0</ele>
        <time>2021-05-21T10:13:13Z</time>
      </trkpt>
      <trkpt lat="42.3719450" lon="-8.6255320">
        <ele>110.0</ele>
        <time>2021-05-21T10:13:14Z</time>
      </trkpt>
      <trkpt lat="42.3719540" lon="-8.6255200">
        <ele>110.0</ele>
        <time>2021-05-21T10:13:15Z</time>
      </trkpt>
      <trkpt lat="42.3719600" lon="-8.6255070">
        <ele>110.0</ele>
        <time>2021-05-21T10:13:16Z</time>
      </trkpt>
      <trkpt lat="42.3719700" lon="-8.6254960">
        <ele>110.1</ele>
        <time>2021-05-21T10:13:17Z</time>
      </trkpt>
      <trkpt lat="42.3719830" lon="-8.6254880">
        <ele>110.1</ele>
        <time>2021-05-21T10:13:18Z</time>
      </trkpt>
      <trkpt lat="42.3719950" lon="-8.6254780">
        <ele>110.1</ele>
        <time>2021-05-21T10:13:19Z</time>
      </trkpt>
      <trkpt lat="42.3720120" lon="-8.6254610">
        <ele>110.1</ele>
        <time>2021-05-21T10:13:20Z</time>
      </trkpt>
      <trkpt lat="42.3720190" lon="-8.6254530">
        <ele>110.1</ele>
        <time>2021-05-21T10:13:21Z</time>
      </trkpt>
      <trkpt lat="42.3720270" lon="-8.6254460">
        <ele>110.1</ele>
        <time>2021-05-21T10:13:22Z</time>
      </trkpt>
      <trkpt lat="42.3720370" lon="-8.6254370">
        <ele>110.1</ele>
        <time>2021-05-21T10:13:23Z</time>
      </trkpt>
      <trkpt lat="42.3720500" lon="-8.6254270">
        <ele>110.1</ele>
        <time>2021-05-21T10:13:24Z</time>
      </trkpt>
      <trkpt lat="42.3720570" lon="-8.6254120">
        <ele>110.1</ele>
        <time>2021-05-21T10:13:25Z</time>
      </trkpt>
      <trkpt lat="42.3720700" lon="-8.6254010">
        <ele>110.2</ele>
        <time>2021-05-21T10:13:26Z</time>
      </trkpt>
      <trkpt lat="42.3720880" lon="-8.6253830">
        <ele>110.2</ele>
        <time>2021-05-21T10:13:27Z</time>
      </trkpt>
      <trkpt lat="42.3720940" lon="-8.6253750">
        <ele>110.2</ele>
        <time>2021-05-21T10:13:28Z</time>
      </trkpt>
      <trkpt lat="42.3720990" lon="-8.6253660">
        <ele>110.2</ele>
        <time>2021-05-21T10:13:29Z</time>
      </trkpt>
      <trkpt lat="42.3721180" lon="-8.6253540">
        <ele>110.2</ele>
        <time>2021-05-21T10:13:30Z</time>
      </trkpt>
      <trkpt lat="42.3721270" lon="-8.6253510">
        <ele>110.2</ele>
        <time>2021-05-21T10:13:31Z</time>
      </trkpt>
      <trkpt lat="42.3721360" lon="-8.6253470">
        <ele>110.2</ele>
        <time>2021-05-21T10:13:32Z</time>
      </trkpt>
      <trkpt lat="42.3721460" lon="-8.6253390">
        <ele>110.3</ele>
        <time>2021-05-21T10:13:33Z</time>
      </trkpt>
      <trkpt lat="42.3721570" lon="-8.6253340">
        <ele>110.3</ele>
        <time>2021-05-21T10:13:34Z</time>
      </trkpt>
      <trkpt lat="42.3721660" lon="-8.6253240">
        <ele>110.3</ele>
        <time>2021-05-21T10:13:35Z</time>
      </trkpt>
      <trkpt lat="42.3721730" lon="-8.6253170">
        <ele>110.3</ele>
        <time>2021-05-21T10:13:36Z</time>
      </trkpt>
      <trkpt lat="42.3721790" lon="-8.6253140">
        <ele>110.3</ele>
        <time>2021-05-21T10:13:37Z</time>
      </trkpt>
      <trkpt lat="42.3721840" lon="-8.6253040">
        <ele>110.3</ele>
        <time>2021-05-21T10:13:38Z</time>
      </trkpt>
      <trkpt lat="42.3721940" lon="-8.6252930">
        <ele>110.3</ele>
        <time>2021-05-21T10:13:39Z</time>
      </trkpt>
      <trkpt lat="42.3721930" lon="-8.6252890">
        <ele>110.3</ele>
        <time>2021-05-21T10:13:40Z</time>
      </trkpt>
      <trkpt lat="42.3722060" lon="-8.6252780">
        <ele>110.4</ele>
        <time>2021-05-21T10:13:41Z</time>
      </trkpt>
      <trkpt lat="42.3722200" lon="-8.6252670">
        <ele>110.4</ele>
        <time>2021-05-21T10:13:42Z</time>
      </trkpt>
      <trkpt lat="42.3722280" lon="-8.6252630">
        <ele>110.4</ele>
        <time>2021-05-21T10:13:43Z</time>
      </trkpt>
      <trkpt lat="42.3722370" lon="-8.6252500">
        <ele>110.4</ele>
        <time>2021-05-21T10:13:44Z</time>
      </trkpt>
      <trkpt lat="42.3722440" lon="-8.6252410">
        <ele>110.4</ele>
        <time>2021-05-21T10:13:45Z</time>
      </trkpt>
      <trkpt lat="42.3722450" lon="-8.6252330">
        <ele>110.4</ele>
        <time>2021-05-21T10:13:46Z</time>
      </trkpt>
      <trkpt lat="42.3722510" lon="-8.6252250">
        <ele>110.4</ele>
        <time>2021-05-21T10:13:47Z</time>
      </trkpt>
      <trkpt lat="42.3722600" lon="-8.6252080">
        <ele>110.5</ele>
        <time>2021-05-21T10:13:48Z</time>
      </trkpt>
      <trkpt lat="42.3722720" lon="-8.6251940">
        <ele>110.5</ele>
        <time>2021-05-21T10:13:49Z</time>
      </trkpt>
      <trkpt lat="42.3722760" lon="-8.6251880">
        <ele>110.5</ele>
        <time>2021-05-21T10:13:50Z</time>
      </trkpt>
      <trkpt lat="42.3722810" lon="-8.6251790">
        <ele>110.5</ele>
        <time>2021-05-21T10:13:51Z</time>
      </trkpt>
      <trkpt lat="42.3722890" lon="-8.6251700">
        <ele>110.5</ele>
        <time>2021-05-21T10:13:52Z</time>
      </trkpt>
      <trkpt lat="42.3722960" lon="-8.6251590">
        <ele>110.6</ele>
        <time>2021-05-21T10:13:53Z</time>
      </trkpt>
      <trkpt lat="42.3723050" lon="-8.6251510">
        <ele>110.6</ele>
        <time>2021-05-21T10:13:54Z</time>
      </trkpt>
      <trkpt lat="42.3723210" lon="-8.6251300">
        <ele>110.6</ele>
        <time>2021-05-21T10:13:55Z</time>
      </trkpt>
      <trkpt lat="42.3723270" lon="-8.6251250">
        <ele>110.6</ele>
        <time>2021-05-21T10:13:56Z</time>
      </trkpt>
      <trkpt lat="42.3723340" lon="-8.6251190">
        <ele>110.7</ele>
        <time>2021-05-21T10:13:57Z</time>
      </trkpt>
      <trkpt lat="42.3723380" lon="-8.6251100">
        <ele>110.7</ele>
        <time>2021-05-21T10:13:58Z</time>
      </trkpt>
      <trkpt lat="42.3723500" lon="-8.6250990">
        <ele>110.7</ele>
        <time>2021-05-21T10:13:59Z</time>
      </trkpt>
      <trkpt lat="42.3723610" lon="-8.6250940">
        <ele>110.7</ele>
        <time>2021-05-21T10:14:00Z</time>
      </trkpt>
      <trkpt lat="42.3723730" lon="-8.6250760">
        <ele>110.8</ele>
        <time>2021-05-21T10:14:01Z</time>
      </trkpt>
      <trkpt lat="42.3723780" lon="-8.6250680">
        <ele>110.8</ele>
        <time>2021-05-21T10:14:02Z</time>
      </trkpt>
      <trkpt lat="42.3723840" lon="-8.6250600">
        <ele>110.8</ele>
        <time>2021-05-21T10:14:03Z</time>
      </trkpt>
      <trkpt lat="42.3723890" lon="-8.6250520">
        <ele>110.8</ele>
        <time>2021-05-21T10:14:04Z</time>
      </trkpt>
      <trkpt lat="42.3724010" lon="-8.6250410">
        <ele>110.9</ele>
        <time>2021-05-21T10:14:05Z</time>
      </trkpt>
      <trkpt lat="42.3724160" lon="-8.6250300">
        <ele>110.9</ele>
        <time>2021-05-21T10:14:06Z</time>
      </trkpt>
      <trkpt lat="42.3724190" lon="-8.6250240">
        <ele>110.9</ele>
        <time>2021-05-21T10:14:07Z</time>
      </trkpt>
      <trkpt lat="42.3724310" lon="-8.6250140">
        <ele>111.0</ele>
        <time>2021-05-21T10:14:08Z</time>
      </trkpt>
      <trkpt lat="42.3724430" lon="-8.6250040">
        <ele>111.0</ele>
        <time>2021-05-21T10:14:09Z</time>
      </trkpt>
      <trkpt lat="42.3724480" lon="-8.6249980">
        <ele>111.0</ele>
        <time>2021-05-21T10:14:10Z</time>
      </trkpt>
      <trkpt lat="42.3724700" lon="-8.6249840">
        <ele>111.1</ele>
        <time>2021-05-21T10:14:11Z</time>
      </trkpt>
      <trkpt lat="42.3724710" lon="-8.6249830">
        <ele>111.1</ele>
        <time>2021-05-21T10:14:12Z</time>
      </trkpt>
      <trkpt lat="42.3724810" lon="-8.6249740">
        <ele>111.1</ele>
        <time>2021-05-21T10:14:13Z</time>
      </trkpt>
      <trkpt lat="42.3724950" lon="-8.6249660">
        <ele>111.2</ele>
        <time>2021-05-21T10:14:14Z</time>
      </trkpt>
      <trkpt lat="42.3725020" lon="-8.6249560">
        <ele>111.2</ele>
        <time>2021-05-21T10:14:15Z</time>
      </trkpt>
      <trkpt lat="42.3725150" lon="-8.6249500">
        <ele>111.2</ele>
        <time>2021-05-21T10:14:16Z</time>
      </trkpt>
      <trkpt lat="42.3725240" lon="-8.6249420">
        <ele>111.3</ele>
        <time>2021-05-21T10:14:17Z</time>
      </trkpt>
      <trkpt lat="42.3725340" lon="-8.6249380">
        <ele>111.3</ele>
        <time>2021-05-21T10:14:18Z</time>
      </trkpt>
      <trkpt lat="42.3725460" lon="-8.6249320">
        <ele>111.3</ele>
        <time>2021-05-21T10:14:19Z</time>
      </trkpt>
      <trkpt lat="42.3725560" lon="-8.6249210">
        <ele>111.4</ele>
        <time>2021-05-21T10:14:20Z</time>
      </trkpt>
      <trkpt lat="42.3725610" lon="-8.6249130">
        <ele>111.4</ele>
        <time>2021-05-21T10:14:21Z</time>
      </trkpt>
      <trkpt lat="42.3725760" lon="-8.6249030">
        <ele>111.4</ele>
        <time>2021-05-21T10:14:22Z</time>
      </trkpt>
      <trkpt lat="42.3725810" lon="-8.6248960">
        <ele>111.4</ele>
        <time>2021-05-21T10:14:23Z</time>
      </trkpt>
      <trkpt lat="42.3725910" lon="-8.6248930">
        <ele>111.5</ele>
        <time>2021-05-21T10:14:24Z</time>
      </trkpt>
      <trkpt lat="42.3726010" lon="-8.6248860">
        <ele>111.5</ele>
        <time>2021-05-21T10:14:25Z</time>
      </trkpt>
      <trkpt lat="42.3726130" lon="-8.6248770">
        <ele>111.5</ele>
        <time>2021-05-21T10:14:26Z</time>
      </trkpt>
      <trkpt lat="42.3726290" lon="-8.6248650">
        <ele>111.5</ele>
        <time>2021-05-21T10:14:27Z</time>
      </trkpt>
      <trkpt lat="42.3726390" lon="-8.6248560">
        <ele>111.6</ele>
        <time>2021-05-21T10:14:28Z</time>
      </trkpt>
      <trkpt lat="42.3726540" lon="-8.6248490">
        <ele>111.6</ele>
        <time>2021-05-21T10:14:29Z</time>
      </trkpt>
      <trkpt lat="42.3726680" lon="-8.6248440">
        <ele>111.6</ele>
        <time>2021-05-21T10:14:30Z</time>
      </trkpt>
      <trkpt lat="42.3726850" lon="-8.6248320">
        <ele>111.6</ele>
        <time>2021-05-21T10:14:31Z</time>
      </trkpt>
      <trkpt lat="42.3726930" lon="-8.6248270">
        <ele>111.6</ele>
        <time>2021-05-21T10:14:32Z</time>
      </trkpt>
      <trkpt lat="42.3727000" lon="-8.6248210">
        <ele>111.7</ele>
        <time>2021-05-21T10:14:33Z</time>
      </trkpt>
      <trkpt lat="42.3727100" lon="-8.6248170">
        <ele>111.7</ele>
        <time>2021-05-21T10:14:34Z</time>
      </trkpt>
      <trkpt lat="42.3727280" lon="-8.6248150">
        <ele>111.7</ele>
        <time>2021-05-21T10:14:35Z</time>
      </trkpt>
      <trkpt lat="42.3727450" lon="-8.6248050">
        <ele>111.7</ele>
        <time>2021-05-21T10:14:36Z</time>
      </trkpt>
      <trkpt lat="42.3727600" lon="-8.6248060">
        <ele>111.7</ele>
        <time>2021-05-21T10:14:37Z</time>
      </trkpt>
      <trkpt lat="42.3727780" lon="-8.6248120">
        <ele>111.7</ele>
        <time>2021-05-21T10:14:38Z</time>
      </trkpt>
      <trkpt lat="42.3727940" lon="-8.6248110">
        <ele>111.7</ele>
        <time>2021-05-21T10:14:39Z</time>
      </trkpt>
      <trkpt lat="42.3728100" lon="-8.6248200">
        <ele>111.8</ele>
        <time>2021-05-21T10:14:40Z</time>
      </trkpt>
      <trkpt lat="42.3728280" lon="-8.6248200">
        <ele>111.8</ele>
        <time>2021-05-21T10:14:41Z</time>
      </trkpt>
      <trkpt lat="42.3728420" lon="-8.6248130">
        <ele>111.8</ele>
        <time>2021-05-21T10:14:42Z</time>
      </trkpt>
      <trkpt lat="42.3728570" lon="-8.6248200">
        <ele>111.8</ele>
        <time>2021-05-21T10:14:43Z</time>
      </trkpt>
      <trkpt lat="42.3728710" lon="-8.6248300">
        <ele>111.8</ele>
        <time>2021-05-21T10:14:44Z</time>
      </trkpt>
      <trkpt lat="42.3728830" lon="-8.6248370">
        <ele>111.8</ele>
        <time>2021-05-21T10:14:45Z</time>
      </trkpt>
      <trkpt lat="42.3728970" lon="-8.6248410">
        <ele>111.8</ele>
        <time>2021-05-21T10:14:46Z</time>
      </trkpt>
      <trkpt lat="42.3729100" lon="-8.6248470">
        <ele>111.8</ele>
        <time>2021-05-21T10:14:47Z</time>
      </trkpt>
      <trkpt lat="42.3729220" lon="-8.6248550">
        <ele>111.8</ele>
        <time>2021-05-21T10:14:48Z</time>
      </trkpt>
      <trkpt lat="42.3729340" lon="-8.6248650">
        <ele>111.8</ele>
        <time>2021-05-21T10:14:49Z</time>
      </trkpt>
      <trkpt lat="42.3729470" lon="-8.6248690">
        <ele>111.8</ele>
        <time>2021-05-21T10:14:50Z</time>
      </trkpt>
      <trkpt lat="42.3729620" lon="-8.6248720">
        <ele>111.9</ele>
        <time>2021-05-21T10:14:51Z</time>
      </trkpt>
      <trkpt lat="42.3729810" lon="-8.6248860">
        <ele>111.9</ele>
        <time>2021-05-21T10:14:52Z</time>
      </trkpt>
      <trkpt lat="42.3729870" lon="-8.6248920">
        <ele>111.9</ele>
        <time>2021-05-21T10:14:53Z</time>
      </trkpt>
      <trkpt lat="42.3729940" lon="-8.6248970">
        <ele>111.9</ele>
        <time>2021-05-21T10:14:54Z</time>
      </trkpt>
      <trkpt lat="42.3730130" lon="-8.6249090">
        <ele>111.9</ele>
        <time>2021-05-21T10:14:55Z</time>
      </trkpt>
      <trkpt lat="42.3730200" lon="-8.6249150">
        <ele>111.9</ele>
        <time>2021-05-21T10:14:56Z</time>
      </trkpt>
      <trkpt lat="42.3730270" lon="-8.6249200">
        <ele>111.9</ele>
        <time>2021-05-21T10:14:57Z</time>
      </trkpt>
      <trkpt lat="42.3730380" lon="-8.6249310">
        <ele>111.9</ele>
        <time>2021-05-21T10:14:58Z</time>
      </trkpt>
      <trkpt lat="42.3730530" lon="-8.6249380">
        <ele>111.9</ele>
        <time>2021-05-21T10:14:59Z</time>
      </trkpt>
      <trkpt lat="42.3730720" lon="-8.6249510">
        <ele>111.9</ele>
        <time>2021-05-21T10:15:00Z</time>
      </trkpt>
      <trkpt lat="42.3730810" lon="-8.6249540">
        <ele>112.0</ele>
        <time>2021-05-21T10:15:01Z</time>
      </trkpt>
      <trkpt lat="42.3730900" lon="-8.6249570">
        <ele>112.0</ele>
        <time>2021-05-21T10:15:02Z</time>
      </trkpt>
      <trkpt lat="42.3731000" lon="-8.6249670">
        <ele>112.0</ele>
        <time>2021-05-21T10:15:03Z</time>
      </trkpt>
      <trkpt lat="42.3731110" lon="-8.6249710">
        <ele>112.0</ele>
        <time>2021-05-21T10:15:04Z</time>
      </trkpt>
      <trkpt lat="42.3731250" lon="-8.6249730">
        <ele>112.0</ele>
        <time>2021-05-21T10:15:05Z</time>
      </trkpt>
      <trkpt lat="42.3731370" lon="-8.6249860">
        <ele>112.0</ele>
        <time>2021-05-21T10:15:06Z</time>
      </trkpt>
      <trkpt lat="42.3731520" lon="-8.6249870">
        <ele>112.1</ele>
        <time>2021-05-21T10:15:07Z</time>
      </trkpt>
      <trkpt lat="42.3731640" lon="-8.6249920">
        <ele>112.1</ele>
        <time>2021-05-21T10:15:08Z</time>
      </trkpt>
      <trkpt lat="42.3731750" lon="-8.6249910">
        <ele>112.1</ele>
        <time>2021-05-21T10:15:09Z</time>
      </trkpt>
      <trkpt lat="42.3731860" lon="-8.6249980">
        <ele>112.1</ele>
        <time>2021-05-21T10:15:10Z</time>
      </trkpt>
      <trkpt lat="42.3731980" lon="-8.6250030">
        <ele>112.1</ele>
        <time>2021-05-21T10:15:11Z</time>
      </trkpt>
      <trkpt lat="42.3732090" lon="-8.6250040">
        <ele>112.1</ele>
        <time>2021-05-21T10:15:12Z</time>
      </trkpt>
      <trkpt lat="42.3732190" lon="-8.6250120">
        <ele>112.2</ele>
        <time>2021-05-21T10:15:13Z</time>
      </trkpt>
      <trkpt lat="42.3732310" lon="-8.6250210">
        <ele>112.2</ele>
        <time>2021-05-21T10:15:14Z</time>
      </trkpt>
      <trkpt lat="42.3732450" lon="-8.6250230">
        <ele>112.2</ele>
        <time>2021-05-21T10:15:15Z</time>
      </trkpt>
      <trkpt lat="42.3732570" lon="-8.6250340">
        <ele>112.3</ele>
        <time>2021-05-21T10:15:16Z</time>
      </trkpt>
      <trkpt lat="42.3732680" lon="-8.6250450">
        <ele>112.3</ele>
        <time>2021-05-21T10:15:17Z</time>
      </trkpt>
      <trkpt lat="42.3732840" lon="-8.6250660">
        <ele>112.3</ele>
        <time>2021-05-21T10:15:18Z</time>
      </trkpt>
      <trkpt lat="42.3732910" lon="-8.6250710">
        <ele>112.4</ele>
        <time>2021-05-21T10:15:19Z</time>
      </trkpt>
      <trkpt lat="42.3732980" lon="-8.6250760">
        <ele>112.4</ele>
        <time>2021-05-21T10:15:20Z</time>
      </trkpt>
      <trkpt lat="42.3733170" lon="-8.6250930">
        <ele>112.4</ele>
        <time>2021-05-21T10:15:21Z</time>
      </trkpt>
      <trkpt lat="42.3733260" lon="-8.6250970">
        <ele>112.5</ele>
        <time>2021-05-21T10:15:22Z</time>
      </trkpt>
      <trkpt lat="42.3733360" lon="-8.6251000">
        <ele>112.5</ele>
        <time>2021-05-21T10:15:23Z</time>
      </trkpt>
      <trkpt lat="42.3733500" lon="-8.6251020">
        <ele>112.5</ele>
        <time>2021-05-21T10:15:24Z</time>
      </trkpt>
      <trkpt lat="42.3733630" lon="-8.6251080">
        <ele>112.6</ele>
        <time>2021-05-21T10:15:25Z</time>
      </trkpt>
      <trkpt lat="42.3733690" lon="-8.6251130">
        <ele>112.6</ele>
        <time>2021-05-21T10:15:26Z</time>
      </trkpt>
      <trkpt lat="42.3733760" lon="-8.6251180">
        <ele>112.6</ele>
        <time>2021-05-21T10:15:27Z</time>
      </trkpt>
      <trkpt lat="42.3733910" lon="-8.6251280">
        <ele>112.7</ele>
        <time>2021-05-21T10:15:28Z</time>
      </trkpt>
      <trkpt lat="42.3733970" lon="-8.6251330">
        <ele>112.7</ele>
        <time>2021-05-21T10:15:29Z</time>
      </trkpt>
      <trkpt lat="42.3734080" lon="-8.6251360">
        <ele>112.7</ele>
        <time>2021-05-21T10:15:30Z</time>
      </trkpt>
      <trkpt lat="42.3734170" lon="-8.6251410">
        <ele>112.7</ele>
        <time>2021-05-21T10:15:31Z</time>
      </trkpt>
      <trkpt lat="42.3734340" lon="-8.6251640">
        <ele>112.8</ele>
        <time>2021-05-21T10:15:32Z</time>
      </trkpt>
      <trkpt lat="42.3734410" lon="-8.6251710">
        <ele>112.8</ele>
        <time>2021-05-21T10:15:33Z</time>
      </trkpt>
      <trkpt lat="42.3734480" lon="-8.6251790">
        <ele>112.8</ele>
        <time>2021-05-21T10:15:34Z</time>
      </trkpt>
      <trkpt lat="42.3734540" lon="-8.6251830">
        <ele>112.9</ele>
        <time>2021-05-21T10:15:35Z</time>
      </trkpt>
      <trkpt lat="42.3734630" lon="-8.6251990">
        <ele>112.9</ele>
        <time>2021-05-21T10:15:36Z</time>
      </trkpt>
      <trkpt lat="42.3734670" lon="-8.6252070">
        <ele>112.9</ele>
        <time>2021-05-21T10:15:37Z</time>
      </trkpt>
      <trkpt lat="42.3734780" lon="-8.6252160">
        <ele>113.0</ele>
        <time>2021-05-21T10:15:38Z</time>
      </trkpt>
      <trkpt lat="42.3734830" lon="-8.6252230">
        <ele>113.0</ele>
        <time>2021-05-21T10:15:39Z</time>
      </trkpt>
      <trkpt lat="42.3734980" lon="-8.6252310">
        <ele>113.1</ele>
        <time>2021-05-21T10:15:40Z</time>
      </trkpt>
      <trkpt lat="42.3735050" lon="-8.6252430">
        <ele>113.1</ele>
        <time>2021-05-21T10:15:41Z</time>
      </trkpt>
      <trkpt lat="42.3735220" lon="-8.6252480">
        <ele>113.2</ele>
        <time>2021-05-21T10:15:42Z</time>
      </trkpt>
      <trkpt lat="42.3735350" lon="-8.6252600">
        <ele>113.2</ele>
        <time>2021-05-21T10:15:43Z</time>
      </trkpt>
      <trkpt lat="42.3735460" lon="-8.6252650">
        <ele>113.3</ele>
        <time>2021-05-21T10:15:44Z</time>
      </trkpt>
      <trkpt lat="42.3735560" lon="-8.6252690">
        <ele>113.3</ele>
        <time>2021-05-21T10:15:45Z</time>
      </trkpt>
      <trkpt lat="42.3735670" lon="-8.6252840">
        <ele>113.4</ele>
        <time>2021-05-21T10:15:46Z</time>
      </trkpt>
      <trkpt lat="42.3735770" lon="-8.6252910">
        <ele>113.4</ele>
        <time>2021-05-21T10:15:47Z</time>
      </trkpt>
      <trkpt lat="42.3735860" lon="-8.6252970">
        <ele>113.4</ele>
        <time>2021-05-21T10:15:48Z</time>
      </trkpt>
      <trkpt lat="42.3735950" lon="-8.6253020">
        <ele>113.5</ele>
        <time>2021-05-21T10:15:49Z</time>
      </trkpt>
      <trkpt lat="42.3736060" lon="-8.6253090">
        <ele>113.5</ele>
        <time>2021-05-21T10:15:50Z</time>
      </trkpt>
      <trkpt lat="42.3736170" lon="-8.6253140">
        <ele>113.5</ele>
        <time>2021-05-21T10:15:51Z</time>
      </trkpt>
      <trkpt lat="42.3736380" lon="-8.6253220">
        <ele>113.6</ele>
        <time>2021-05-21T10:15:52Z</time>
      </trkpt>
      <trkpt lat="42.3736460" lon="-8.6253240">
        <ele>113.6</ele>
        <time>2021-05-21T10:15:53Z</time>
      </trkpt>
      <trkpt lat="42.3736550" lon="-8.6253270">
        <ele>113.6</ele>
        <time>2021-05-21T10:15:54Z</time>
      </trkpt>
      <trkpt lat="42.3736690" lon="-8.6253340">
        <ele>113.7</ele>
        <time>2021-05-21T10:15:55Z</time>
      </trkpt>
      <trkpt lat="42.3736760" lon="-8.6253350">
        <ele>113.7</ele>
        <time>2021-05-21T10:15:56Z</time>
      </trkpt>
      <trkpt lat="42.3736870" lon="-8.6253400">
        <ele>113.7</ele>
        <time>2021-05-21T10:15:57Z</time>
      </trkpt>
      <trkpt lat="42.3736980" lon="-8.6253540">
        <ele>113.8</ele>
        <time>2021-05-21T10:15:58Z</time>
      </trkpt>
      <trkpt lat="42.3737130" lon="-8.6253590">
        <ele>113.8</ele>
        <time>2021-05-21T10:15:59Z</time>
      </trkpt>
      <trkpt lat="42.3737240" lon="-8.6253650">
        <ele>113.8</ele>
        <time>2021-05-21T10:16:00Z</time>
      </trkpt>
      <trkpt lat="42.3737360" lon="-8.6253700">
        <ele>113.8</ele>
        <time>2021-05-21T10:16:01Z</time>
      </trkpt>
      <trkpt lat="42.3737450" lon="-8.6253820">
        <ele>113.8</ele>
        <time>2021-05-21T10:16:02Z</time>
      </trkpt>
      <trkpt lat="42.3737710" lon="-8.6253840">
        <ele>113.9</ele>
        <time>2021-05-21T10:16:03Z</time>
      </trkpt>
      <trkpt lat="42.3737760" lon="-8.6253880">
        <ele>113.9</ele>
        <time>2021-05-21T10:16:04Z</time>
      </trkpt>
      <trkpt lat="42.3737810" lon="-8.6253910">
        <ele>113.9</ele>
        <time>2021-05-21T10:16:05Z</time>
      </trkpt>
      <trkpt lat="42.3738100" lon="-8.6254070">
        <ele>113.9</ele>
        <time>2021-05-21T10:16:06Z</time>
      </trkpt>
      <trkpt lat="42.3738160" lon="-8.6254090">
        <ele>113.9</ele>
        <time>2021-05-21T10:16:07Z</time>
      </trkpt>
      <trkpt lat="42.3738300" lon="-8.6254150">
        <ele>113.9</ele>
        <time>2021-05-21T10:16:08Z</time>
      </trkpt>
      <trkpt lat="42.3738460" lon="-8.6254130">
        <ele>113.9</ele>
        <time>2021-05-21T10:16:09Z</time>
      </trkpt>
      <trkpt lat="42.3738610" lon="-8.6254050">
        <ele>113.9</ele>
        <time>2021-05-21T10:16:10Z</time>
      </trkpt>
      <trkpt lat="42.3738760" lon="-8.6254080">
        <ele>113.9</ele>
        <time>2021-05-21T10:16:11Z</time>
      </trkpt>
      <trkpt lat="42.3738920" lon="-8.6254120">
        <ele>113.8</ele>
        <time>2021-05-21T10:16:12Z</time>
      </trkpt>
      <trkpt lat="42.3739070" lon="-8.6254100">
        <ele>113.8</ele>
        <time>2021-05-21T10:16:13Z</time>
      </trkpt>
      <trkpt lat="42.3739220" lon="-8.6254110">
        <ele>113.8</ele>
        <time>2021-05-21T10:16:14Z</time>
      </trkpt>
      <trkpt lat="42.3739390" lon="-8.6254140">
        <ele>113.8</ele>
        <time>2021-05-21T10:16:15Z</time>
      </trkpt>
      <trkpt lat="42.3739540" lon="-8.6254130">
        <ele>113.7</ele>
        <time>2021-05-21T10:16:16Z</time>
      </trkpt>
      <trkpt lat="42.3739680" lon="-8.6254130">
        <ele>113.7</ele>
        <time>2021-05-21T10:16:17Z</time>
      </trkpt>
      <trkpt lat="42.3739840" lon="-8.6254110">
        <ele>113.6</ele>
        <time>2021-05-21T10:16:18Z</time>
      </trkpt>
      <trkpt lat="42.3739970" lon="-8.6254130">
        <ele>113.6</ele>
        <time>2021-05-21T10:16:19Z</time>
      </trkpt>
      <trkpt lat="42.3740110" lon="-8.6254080">
        <ele>113.6</ele>
        <time>2021-05-21T10:16:20Z</time>
      </trkpt>
      <trkpt lat="42.3740250" lon="-8.6254060">
        <ele>113.5</ele>
        <time>2021-05-21T10:16:21Z</time>
      </trkpt>
      <trkpt lat="42.3740390" lon="-8.6254090">
        <ele>113.5</ele>
        <time>2021-05-21T10:16:22Z</time>
      </trkpt>
      <trkpt lat="42.3740550" lon="-8.6254070">
        <ele>113.4</ele>
        <time>2021-05-21T10:16:23Z</time>
      </trkpt>
      <trkpt lat="42.3740690" lon="-8.6254060">
        <ele>113.4</ele>
        <time>2021-05-21T10:16:24Z</time>
      </trkpt>
      <trkpt lat="42.3740840" lon="-8.6254010">
        <ele>113.3</ele>
        <time>2021-05-21T10:16:25Z</time>
      </trkpt>
      <trkpt lat="42.3740990" lon="-8.6254040">
        <ele>113.2</ele>
        <time>2021-05-21T10:16:26Z</time>
      </trkpt>
      <trkpt lat="42.3741140" lon="-8.6254050">
        <ele>113.2</ele>
        <time>2021-05-21T10:16:27Z</time>
      </trkpt>
      <trkpt lat="42.3741260" lon="-8.6254050">
        <ele>113.1</ele>
        <time>2021-05-21T10:16:28Z</time>
      </trkpt>
      <trkpt lat="42.3741400" lon="-8.6253930">
        <ele>113.1</ele>
        <time>2021-05-21T10:16:29Z</time>
      </trkpt>
      <trkpt lat="42.3741540" lon="-8.6253840">
        <ele>113.0</ele>
        <time>2021-05-21T10:16:30Z</time>
      </trkpt>
      <trkpt lat="42.3741680" lon="-8.6253800">
        <ele>112.9</ele>
        <time>2021-05-21T10:16:31Z</time>
      </trkpt>
      <trkpt lat="42.3741820" lon="-8.6253840">
        <ele>112.8</ele>
        <time>2021-05-21T10:16:32Z</time>
      </trkpt>
      <trkpt lat="42.3741960" lon="-8.6253820">
        <ele>112.8</ele>
        <time>2021-05-21T10:16:33Z</time>
      </trkpt>
      <trkpt lat="42.3742160" lon="-8.6253760">
        <ele>112.7</ele>
        <time>2021-05-21T10:16:34Z</time>
      </trkpt>
      <trkpt lat="42.3742240" lon="-8.6253740">
        <ele>112.6</ele>
        <time>2021-05-21T10:16:35Z</time>
      </trkpt>
      <trkpt lat="42.3742330" lon="-8.6253730">
        <ele>112.6</ele>
        <time>2021-05-21T10:16:36Z</time>
      </trkpt>
      <trkpt lat="42.3742530" lon="-8.6253670">
        <ele>112.5</ele>
        <time>2021-05-21T10:16:37Z</time>
      </trkpt>
      <trkpt lat="42.3742630" lon="-8.6253650">
        <ele>112.5</ele>
        <time>2021-05-21T10:16:38Z</time>
      </trkpt>
      <trkpt lat="42.3742720" lon="-8.6253620">
        <ele>112.4</ele>
        <time>2021-05-21T10:16:39Z</time>
      </trkpt>
      <trkpt lat="42.3742930" lon="-8.6253590">
        <ele>112.3</ele>
        <time>2021-05-21T10:16:40Z</time>
      </trkpt>
      <trkpt lat="42.3743010" lon="-8.6253540">
        <ele>112.2</ele>
        <time>2021-05-21T10:16:41Z</time>
      </trkpt>
      <trkpt lat="42.3743080" lon="-8.6253500">
        <ele>112.2</ele>
        <time>2021-05-21T10:16:42Z</time>
      </trkpt>
      <trkpt lat="42.3743250" lon="-8.6253390">
        <ele>112.1</ele>
        <time>2021-05-21T10:16:43Z</time>
      </trkpt>
      <trkpt lat="42.3743340" lon="-8.6253370">
        <ele>112.0</ele>
        <time>2021-05-21T10:16:44Z</time>
      </trkpt>
      <trkpt lat="42.3743420" lon="-8.6253340">
        <ele>112.0</ele>
        <time>2021-05-21T10:16:45Z</time>
      </trkpt>
      <trkpt lat="42.3743510" lon="-8.6253310">
        <ele>111.9</ele>
        <time>2021-05-21T10:16:46Z</time>
      </trkpt>
      <trkpt lat="42.3743650" lon="-8.6253300">
        <ele>111.9</ele>
        <time>2021-05-21T10:16:47Z</time>
      </trkpt>
      <trkpt lat="42.3743750" lon="-8.6253220">
        <ele>111.8</ele>
        <time>2021-05-21T10:16:48Z</time>
      </trkpt>
      <trkpt lat="42.3743860" lon="-8.6253120">
        <ele>111.7</ele>
        <time>2021-05-21T10:16:49Z</time>
      </trkpt>
      <trkpt lat="42.3743950" lon="-8.6253060">
        <ele>111.6</ele>
        <time>2021-05-21T10:16:50Z</time>
      </trkpt>
      <trkpt lat="42.3744090" lon="-8.6253090">
        <ele>111.5</ele>
        <time>2021-05-21T10:16:51Z</time>
      </trkpt>
      <trkpt lat="42.3744230" lon="-8.6253150">
        <ele>111.4</ele>
        <time>2021-05-21T10:16:52Z</time>
      </trkpt>
      <trkpt lat="42.3744380" lon="-8.6253220">
        <ele>111.3</ele>
        <time>2021-05-21T10:16:53Z</time>
      </trkpt>
      <trkpt lat="42.3744500" lon="-8.6253250">
        <ele>111.2</ele>
        <time>2021-05-21T10:16:54Z</time>
      </trkpt>
      <trkpt lat="42.3744660" lon="-8.6253420">
        <ele>111.1</ele>
        <time>2021-05-21T10:16:55Z</time>
      </trkpt>
      <trkpt lat="42.3744840" lon="-8.6253620">
        <ele>110.9</ele>
        <time>2021-05-21T10:16:56Z</time>
      </trkpt>
      <trkpt lat="42.3744920" lon="-8.6253650">
        <ele>110.8</ele>
        <time>2021-05-21T10:16:57Z</time>
      </trkpt>
      <trkpt lat="42.3744990" lon="-8.6253690">
        <ele>110.8</ele>
        <time>2021-05-21T10:16:58Z</time>
      </trkpt>
      <trkpt lat="42.3745040" lon="-8.6253780">
        <ele>110.7</ele>
        <time>2021-05-21T10:16:59Z</time>
      </trkpt>
      <trkpt lat="42.3745140" lon="-8.6253920">
        <ele>110.6</ele>
        <time>2021-05-21T10:17:00Z</time>
      </trkpt>
      <trkpt lat="42.3745270" lon="-8.6253910">
        <ele>110.5</ele>
        <time>2021-05-21T10:17:01Z</time>
      </trkpt>
      <trkpt lat="42.3745370" lon="-8.6254120">
        <ele>110.3</ele>
        <time>2021-05-21T10:17:02Z</time>
      </trkpt>
      <trkpt lat="42.3745460" lon="-8.6254220">
        <ele>110.2</ele>
        <time>2021-05-21T10:17:03Z</time>
      </trkpt>
      <trkpt lat="42.3745520" lon="-8.6254370">
        <ele>110.1</ele>
        <time>2021-05-21T10:17:04Z</time>
      </trkpt>
      <trkpt lat="42.3745540" lon="-8.6254490">
        <ele>110.0</ele>
        <time>2021-05-21T10:17:05Z</time>
      </trkpt>
      <trkpt lat="42.3745660" lon="-8.6254610">
        <ele>109.8</ele>
        <time>2021-05-21T10:17:06Z</time>
      </trkpt>
      <trkpt lat="42.3745720" lon="-8.6254740">
        <ele>109.7</ele>
        <time>2021-05-21T10:17:07Z</time>
      </trkpt>
      <trkpt lat="42.3745780" lon="-8.6254820">
        <ele>109.7</ele>
        <time>2021-05-21T10:17:08Z</time>
      </trkpt>
      <trkpt lat="42.3745890" lon="-8.6254960">
        <ele>109.5</ele>
        <time>2021-05-21T10:17:09Z</time>
      </trkpt>
      <trkpt lat="42.3745990" lon="-8.6255000">
        <ele>109.4</ele>
        <time>2021-05-21T10:17:10Z</time>
      </trkpt>
      <trkpt lat="42.3746030" lon="-8.6255180">
        <ele>109.3</ele>
        <time>2021-05-21T10:17:11Z</time>
      </trkpt>
      <trkpt lat="42.3746110" lon="-8.6255260">
        <ele>109.2</ele>
        <time>2021-05-21T10:17:12Z</time>
      </trkpt>
      <trkpt lat="42.3746310" lon="-8.6255430">
        <ele>109.0</ele>
        <time>2021-05-21T10:17:13Z</time>
      </trkpt>
      <trkpt lat="42.3746390" lon="-8.6255480">
        <ele>108.9</ele>
        <time>2021-05-21T10:17:14Z</time>
      </trkpt>
      <trkpt lat="42.3746460" lon="-8.6255520">
        <ele>108.8</ele>
        <time>2021-05-21T10:17:15Z</time>
      </trkpt>
      <trkpt lat="42.3746520" lon="-8.6255620">
        <ele>108.7</ele>
        <time>2021-05-21T10:17:16Z</time>
      </trkpt>
      <trkpt lat="42.3746550" lon="-8.6255700">
        <ele>108.7</ele>
        <time>2021-05-21T10:17:17Z</time>
      </trkpt>
      <trkpt lat="42.3746690" lon="-8.6255790">
        <ele>108.5</ele>
        <time>2021-05-21T10:17:18Z</time>
      </trkpt>
      <trkpt lat="42.3746810" lon="-8.6255930">
        <ele>108.4</ele>
        <time>2021-05-21T10:17:19Z</time>
      </trkpt>
      <trkpt lat="42.3746900" lon="-8.6256030">
        <ele>108.2</ele>
        <time>2021-05-21T10:17:20Z</time>
      </trkpt>
      <trkpt lat="42.3747040" lon="-8.6256080">
        <ele>108.1</ele>
        <time>2021-05-21T10:17:21Z</time>
      </trkpt>
      <trkpt lat="42.3747160" lon="-8.6256140">
        <ele>108.0</ele>
        <time>2021-05-21T10:17:22Z</time>
      </trkpt>
      <trkpt lat="42.3747340" lon="-8.6256140">
        <ele>107.8</ele>
        <time>2021-05-21T10:17:23Z</time>
      </trkpt>
      <trkpt lat="42.3747430" lon="-8.6256260">
        <ele>107.7</ele>
        <time>2021-05-21T10:17:24Z</time>
      </trkpt>
      <trkpt lat="42.3747580" lon="-8.6256430">
        <ele>107.5</ele>
        <time>2021-05-21T10:17:25Z</time>
      </trkpt>
      <trkpt lat="42.3747650" lon="-8.6256480">
        <ele>107.5</ele>
        <time>2021-05-21T10:17:26Z</time>
      </trkpt>
      <trkpt lat="42.3747820" lon="-8.6256560">
        <ele>107.3</ele>
        <time>2021-05-21T10:17:27Z</time>
      </trkpt>
      <trkpt lat="42.3747920" lon="-8.6256600">
        <ele>107.2</ele>
        <time>2021-05-21T10:17:28Z</time>
      </trkpt>
      <trkpt lat="42.3748030" lon="-8.6256630">
        <ele>107.1</ele>
        <time>2021-05-21T10:17:29Z</time>
      </trkpt>
      <trkpt lat="42.3748130" lon="-8.6256750">
        <ele>107.0</ele>
        <time>2021-05-21T10:17:30Z</time>
      </trkpt>
      <trkpt lat="42.3748240" lon="-8.6256870">
        <ele>106.9</ele>
        <time>2021-05-21T10:17:31Z</time>
      </trkpt>
      <trkpt lat="42.3748340" lon="-8.6256930">
        <ele>106.8</ele>
        <time>2021-05-21T10:17:32Z</time>
      </trkpt>
      <trkpt lat="42.3748460" lon="-8.6256940">
        <ele>106.7</ele>
        <time>2021-05-21T10:17:33Z</time>
      </trkpt>
      <trkpt lat="42.3748600" lon="-8.6256930">
        <ele>106.6</ele>
        <time>2021-05-21T10:17:34Z</time>
      </trkpt>
      <trkpt lat="42.3748630" lon="-8.6256960">
        <ele>106.5</ele>
        <time>2021-05-21T10:17:35Z</time>
      </trkpt>
      <trkpt lat="42.3748800" lon="-8.6257070">
        <ele>106.4</ele>
        <time>2021-05-21T10:17:36Z</time>
      </trkpt>
      <trkpt lat="42.3748840" lon="-8.6257160">
        <ele>106.3</ele>
        <time>2021-05-21T10:17:37Z</time>
      </trkpt>
      <trkpt lat="42.3749100" lon="-8.6257280">
        <ele>106.1</ele>
        <time>2021-05-21T10:17:38Z</time>
      </trkpt>
      <trkpt lat="42.3749180" lon="-8.6257330">
        <ele>106.1</ele>
        <time>2021-05-21T10:17:39Z</time>
      </trkpt>
      <trkpt lat="42.3749300" lon="-8.6257410">
        <ele>105.9</ele>
        <time>2021-05-21T10:17:40Z</time>
      </trkpt>
      <trkpt lat="42.3749470" lon="-8.6257460">
        <ele>105.8</ele>
        <time>2021-05-21T10:17:41Z</time>
      </trkpt>
      <trkpt lat="42.3749610" lon="-8.6257470">
        <ele>105.7</ele>
        <time>2021-05-21T10:17:42Z</time>
      </trkpt>
      <trkpt lat="42.3749760" lon="-8.6257500">
        <ele>105.6</ele>
        <time>2021-05-21T10:17:43Z</time>
      </trkpt>
      <trkpt lat="42.3749890" lon="-8.6257510">
        <ele>105.5</ele>
        <time>2021-05-21T10:17:44Z</time>
      </trkpt>
      <trkpt lat="42.3750050" lon="-8.6257660">
        <ele>105.3</ele>
        <time>2021-05-21T10:17:45Z</time>
      </trkpt>
      <trkpt lat="42.3750230" lon="-8.6257730">
        <ele>105.2</ele>
        <time>2021-05-21T10:17:46Z</time>
      </trkpt>
      <trkpt lat="42.3750290" lon="-8.6257820">
        <ele>105.1</ele>
        <time>2021-05-21T10:17:47Z</time>
      </trkpt>
      <trkpt lat="42.3750300" lon="-8.6257900">
        <ele>105.1</ele>
        <time>2021-05-21T10:17:48Z</time>
      </trkpt>
      <trkpt lat="42.3750390" lon="-8.6257860">
        <ele>105.0</ele>
        <time>2021-05-21T10:17:49Z</time>
      </trkpt>
      <trkpt lat="42.3750470" lon="-8.6257970">
        <ele>104.9</ele>
        <time>2021-05-21T10:17:50Z</time>
      </trkpt>
      <trkpt lat="42.3750590" lon="-8.6257970">
        <ele>104.8</ele>
        <time>2021-05-21T10:17:51Z</time>
      </trkpt>
      <trkpt lat="42.3750840" lon="-8.6258080">
        <ele>104.6</ele>
        <time>2021-05-21T10:17:52Z</time>
      </trkpt>
      <trkpt lat="42.3751000" lon="-8.6258080">
        <ele>104.5</ele>
        <time>2021-05-21T10:17:53Z</time>
      </trkpt>
      <trkpt lat="42.3751230" lon="-8.6258180">
        <ele>104.3</ele>
        <time>2021-05-21T10:17:54Z</time>
      </trkpt>
      <trkpt lat="42.3751310" lon="-8.6258220">
        <ele>104.2</ele>
        <time>2021-05-21T10:17:55Z</time>
      </trkpt>
      <trkpt lat="42.3751380" lon="-8.6258260">
        <ele>104.2</ele>
        <time>2021-05-21T10:17:56Z</time>
      </trkpt>
      <trkpt lat="42.3751480" lon="-8.6258450">
        <ele>104.0</ele>
        <time>2021-05-21T10:17:57Z</time>
      </trkpt>
      <trkpt lat="42.3751600" lon="-8.6258610">
        <ele>103.9</ele>
        <time>2021-05-21T10:17:58Z</time>
      </trkpt>
      <trkpt lat="42.3751800" lon="-8.6258740">
        <ele>103.7</ele>
        <time>2021-05-21T10:17:59Z</time>
      </trkpt>
      <trkpt lat="42.3751860" lon="-8.6258830">
        <ele>103.6</ele>
        <time>2021-05-21T10:18:00Z</time>
      </trkpt>
      <trkpt lat="42.3751920" lon="-8.6258920">
        <ele>103.6</ele>
        <time>2021-05-21T10:18:01Z</time>
      </trkpt>
      <trkpt lat="42.3752060" lon="-8.6259010">
        <ele>103.4</ele>
        <time>2021-05-21T10:18:02Z</time>
      </trkpt>
      <trkpt lat="42.3752180" lon="-8.6259200">
        <ele>103.2</ele>
        <time>2021-05-21T10:18:03Z</time>
      </trkpt>
      <trkpt lat="42.3752270" lon="-8.6259290">
        <ele>103.1</ele>
        <time>2021-05-21T10:18:04Z</time>
      </trkpt>
      <trkpt lat="42.3752350" lon="-8.6259330">
        <ele>103.1</ele>
        <time>2021-05-21T10:18:05Z</time>
      </trkpt>
      <trkpt lat="42.3752460" lon="-8.6259410">
        <ele>103.0</ele>
        <time>2021-05-21T10:18:06Z</time>
      </trkpt>
      <trkpt lat="42.3752670" lon="-8.6259690">
        <ele>102.7</ele>
        <time>2021-05-21T10:18:07Z</time>
      </trkpt>
      <trkpt lat="42.3752720" lon="-8.6259800">
        <ele>102.6</ele>
        <time>2021-05-21T10:18:08Z</time>
      </trkpt>
      <trkpt lat="42.3752830" lon="-8.6259900">
        <ele>102.5</ele>
        <time>2021-05-21T10:18:09Z</time>
      </trkpt>
      <trkpt lat="42.3752980" lon="-8.6260120">
        <ele>102.3</ele>
        <time>2021-05-21T10:18:10Z</time>
      </trkpt>
      <trkpt lat="42.3753060" lon="-8.6260280">
        <ele>102.2</ele>
        <time>2021-05-21T10:18:11Z</time>
      </trkpt>
      <trkpt lat="42.3753190" lon="-8.6260390">
        <ele>102.0</ele>
        <time>2021-05-21T10:18:12Z</time>
      </trkpt>
      <trkpt lat="42.3753290" lon="-8.6260500">
        <ele>101.9</ele>
        <time>2021-05-21T10:18:13Z</time>
      </trkpt>
      <trkpt lat="42.3753340" lon="-8.6260590">
        <ele>101.8</ele>
        <time>2021-05-21T10:18:14Z</time>
      </trkpt>
      <trkpt lat="42.3753440" lon="-8.6260710">
        <ele>101.7</ele>
        <time>2021-05-21T10:18:15Z</time>
      </trkpt>
      <trkpt lat="42.3753530" lon="-8.6260830">
        <ele>101.6</ele>
        <time>2021-05-21T10:18:16Z</time>
      </trkpt>
      <trkpt lat="42.3753640" lon="-8.6260920">
        <ele>101.5</ele>
        <time>2021-05-21T10:18:17Z</time>
      </trkpt>
      <trkpt lat="42.3753700" lon="-8.6260970">
        <ele>101.4</ele>
        <time>2021-05-21T10:18:18Z</time>
      </trkpt>
      <trkpt lat="42.3753880" lon="-8.6261190">
        <ele>101.2</ele>
        <time>2021-05-21T10:18:19Z</time>
      </trkpt>
      <trkpt lat="42.3753910" lon="-8.6261290">
        <ele>101.1</ele>
        <time>2021-05-21T10:18:20Z</time>
      </trkpt>
      <trkpt lat="42.3753950" lon="-8.6261400">
        <ele>101.1</ele>
        <time>2021-05-21T10:18:21Z</time>
      </trkpt>
      <trkpt lat="42.3754030" lon="-8.6261470">
        <ele>101.0</ele>
        <time>2021-05-21T10:18:22Z</time>
      </trkpt>
      <trkpt lat="42.3754140" lon="-8.6261480">
        <ele>100.9</ele>
        <time>2021-05-21T10:18:23Z</time>
      </trkpt>
      <trkpt lat="42.3754240" lon="-8.6261610">
        <ele>100.7</ele>
        <time>2021-05-21T10:18:24Z</time>
      </trkpt>
      <trkpt lat="42.3754340" lon="-8.6261710">
        <ele>100.6</ele>
        <time>2021-05-21T10:18:25Z</time>
      </trkpt>
      <trkpt lat="42.3754490" lon="-8.6261900">
        <ele>100.5</ele>
        <time>2021-05-21T10:18:26Z</time>
      </trkpt>
      <trkpt lat="42.3754610" lon="-8.6261970">
        <ele>100.3</ele>
        <time>2021-05-21T10:18:27Z</time>
      </trkpt>
      <trkpt lat="42.3754690" lon="-8.6262170">
        <ele>100.2</ele>
        <time>2021-05-21T10:18:28Z</time>
      </trkpt>
      <trkpt lat="42.3754790" lon="-8.6262310">
        <ele>100.1</ele>
        <time>2021-05-21T10:18:29Z</time>
      </trkpt>
      <trkpt lat="42.3754880" lon="-8.6262360">
        <ele>100.0</ele>
        <time>2021-05-21T10:18:30Z</time>
      </trkpt>
      <trkpt lat="42.3754950" lon="-8.6262430">
        <ele>99.9</ele>
        <time>2021-05-21T10:18:31Z</time>
      </trkpt>
      <trkpt lat="42.3754990" lon="-8.6262500">
        <ele>99.9</ele>
        <time>2021-05-21T10:18:32Z</time>
      </trkpt>
      <trkpt lat="42.3755100" lon="-8.6262670">
        <ele>99.7</ele>
        <time>2021-05-21T10:18:33Z</time>
      </trkpt>
      <trkpt lat="42.3755210" lon="-8.6262760">
        <ele>99.6</ele>
        <time>2021-05-21T10:18:34Z</time>
      </trkpt>
      <trkpt lat="42.3755290" lon="-8.6262830">
        <ele>99.5</ele>
        <time>2021-05-21T10:18:35Z</time>
      </trkpt>
      <trkpt lat="42.3755370" lon="-8.6262860">
        <ele>99.4</ele>
        <time>2021-05-21T10:18:36Z</time>
      </trkpt>
      <trkpt lat="42.3755480" lon="-8.6262990">
        <ele>99.3</ele>
        <time>2021-05-21T10:18:37Z</time>
      </trkpt>
      <trkpt lat="42.3755610" lon="-8.6263180">
        <ele>99.1</ele>
        <time>2021-05-21T10:18:38Z</time>
      </trkpt>
      <trkpt lat="42.3755700" lon="-8.6263240">
        <ele>99.1</ele>
        <time>2021-05-21T10:18:39Z</time>
      </trkpt>
      <trkpt lat="42.3755790" lon="-8.6263300">
        <ele>99.0</ele>
        <time>2021-05-21T10:18:40Z</time>
      </trkpt>
      <trkpt lat="42.3755880" lon="-8.6263360">
        <ele>98.9</ele>
        <time>2021-05-21T10:18:41Z</time>
      </trkpt>
      <trkpt lat="42.3755980" lon="-8.6263430">
        <ele>98.8</ele>
        <time>2021-05-21T10:18:42Z</time>
      </trkpt>
      <trkpt lat="42.3756140" lon="-8.6263540">
        <ele>98.6</ele>
        <time>2021-05-21T10:18:43Z</time>
      </trkpt>
      <trkpt lat="42.3756280" lon="-8.6263590">
        <ele>98.5</ele>
        <time>2021-05-21T10:18:44Z</time>
      </trkpt>
      <trkpt lat="42.3756370" lon="-8.6263750">
        <ele>98.3</ele>
        <time>2021-05-21T10:18:45Z</time>
      </trkpt>
      <trkpt lat="42.3756490" lon="-8.6263940">
        <ele>98.2</ele>
        <time>2021-05-21T10:18:46Z</time>
      </trkpt>
      <trkpt lat="42.3756620" lon="-8.6264100">
        <ele>98.0</ele>
        <time>2021-05-21T10:18:47Z</time>
      </trkpt>
      <trkpt lat="42.3756740" lon="-8.6264230">
        <ele>97.8</ele>
        <time>2021-05-21T10:18:48Z</time>
      </trkpt>
      <trkpt lat="42.3756880" lon="-8.6264320">
        <ele>97.7</ele>
        <time>2021-05-21T10:18:49Z</time>
      </trkpt>
      <trkpt lat="42.3756940" lon="-8.6264510">
        <ele>97.6</ele>
        <time>2021-05-21T10:18:50Z</time>
      </trkpt>
      <trkpt lat="42.3757060" lon="-8.6264610">
        <ele>97.4</ele>
        <time>2021-05-21T10:18:51Z</time>
      </trkpt>
      <trkpt lat="42.3757210" lon="-8.6264680">
        <ele>97.3</ele>
        <time>2021-05-21T10:18:52Z</time>
      </trkpt>
      <trkpt lat="42.3757320" lon="-8.6264800">
        <ele>97.1</ele>
        <time>2021-05-21T10:18:53Z</time>
      </trkpt>
      <trkpt lat="42.3757440" lon="-8.6264940">
        <ele>97.0</ele>
        <time>2021-05-21T10:18:54Z</time>
      </trkpt>
      <trkpt lat="42.3757580" lon="-8.6265070">
        <ele>96.8</ele>
        <time>2021-05-21T10:18:55Z</time>
      </trkpt>
      <trkpt lat="42.3757770" lon="-8.6265230">
        <ele>96.6</ele>
        <time>2021-05-21T10:18:56Z</time>
      </trkpt>
      <trkpt lat="42.3757860" lon="-8.6265270">
        <ele>96.5</ele>
        <time>2021-05-21T10:18:57Z</time>
      </trkpt>
      <trkpt lat="42.3757950" lon="-8.6265300">
        <ele>96.4</ele>
        <time>2021-05-21T10:18:58Z</time>
      </trkpt>
      <trkpt lat="42.3758070" lon="-8.6265300">
        <ele>96.3</ele>
        <time>2021-05-21T10:18:59Z</time>
      </trkpt>
      <trkpt lat="42.3758160" lon="-8.6265460">
        <ele>96.2</ele>
        <time>2021-05-21T10:19:00Z</time>
      </trkpt>
      <trkpt lat="42.3758240" lon="-8.6265510">
        <ele>96.1</ele>
        <time>2021-05-21T10:19:01Z</time>
      </trkpt>
      <trkpt lat="42.3758240" lon="-8.6265650">
        <ele>96.0</ele>
        <time>2021-05-21T10:19:02Z</time>
      </trkpt>
      <trkpt lat="42.3758350" lon="-8.6265750">
        <ele>95.9</ele>
        <time>2021-05-21T10:19:03Z</time>
      </trkpt>
      <trkpt lat="42.3758510" lon="-8.6265810">
        <ele>95.8</ele>
        <time>2021-05-21T10:19:04Z</time>
      </trkpt>
      <trkpt lat="42.3758590" lon="-8.6265820">
        <ele>95.7</ele>
        <time>2021-05-21T10:19:05Z</time>
      </trkpt>
      <trkpt lat="42.3758680" lon="-8.6265920">
        <ele>95.6</ele>
        <time>2021-05-21T10:19:06Z</time>
      </trkpt>
      <trkpt lat="42.3758820" lon="-8.6265980">
        <ele>95.5</ele>
        <time>2021-05-21T10:19:07Z</time>
      </trkpt>
      <trkpt lat="42.3758950" lon="-8.6266040">
        <ele>95.3</ele>
        <time>2021-05-21T10:19:08Z</time>
      </trkpt>
      <trkpt lat="42.3759060" lon="-8.6266190">
        <ele>95.2</ele>
        <time>2021-05-21T10:19:09Z</time>
      </trkpt>
      <trkpt lat="42.3759210" lon="-8.6266390">
        <ele>95.0</ele>
        <time>2021-05-21T10:19:10Z</time>
      </trkpt>
      <trkpt lat="42.3759290" lon="-8.6266470">
        <ele>94.9</ele>
        <time>2021-05-21T10:19:11Z</time>
      </trkpt>
      <trkpt lat="42.3759380" lon="-8.6266550">
        <ele>94.8</ele>
        <time>2021-05-21T10:19:12Z</time>
      </trkpt>
      <trkpt lat="42.3759500" lon="-8.6266580">
        <ele>94.7</ele>
        <time>2021-05-21T10:19:13Z</time>
      </trkpt>
      <trkpt lat="42.3759590" lon="-8.6266710">
        <ele>94.6</ele>
        <time>2021-05-21T10:19:14Z</time>
      </trkpt>
      <trkpt lat="42.3759680" lon="-8.6266740">
        <ele>94.6</ele>
        <time>2021-05-21T10:19:15Z</time>
      </trkpt>
      <trkpt lat="42.3759770" lon="-8.6266870">
        <ele>94.5</ele>
        <time>2021-05-21T10:19:16Z</time>
      </trkpt>
      <trkpt lat="42.3759790" lon="-8.6267090">
        <ele>94.3</ele>
        <time>2021-05-21T10:19:17Z</time>
      </trkpt>
      <trkpt lat="42.3759950" lon="-8.6267090">
        <ele>94.2</ele>
        <time>2021-05-21T10:19:18Z</time>
      </trkpt>
      <trkpt lat="42.3760070" lon="-8.6267070">
        <ele>94.1</ele>
        <time>2021-05-21T10:19:19Z</time>
      </trkpt>
      <trkpt lat="42.3760180" lon="-8.6267060">
        <ele>94.0</ele>
        <time>2021-05-21T10:19:20Z</time>
      </trkpt>
      <trkpt lat="42.3760290" lon="-8.6267130">
        <ele>93.9</ele>
        <time>2021-05-21T10:19:21Z</time>
      </trkpt>
      <trkpt lat="42.3760380" lon="-8.6267130">
        <ele>93.9</ele>
        <time>2021-05-21T10:19:22Z</time>
      </trkpt>
      <trkpt lat="42.3760500" lon="-8.6267190">
        <ele>93.8</ele>
        <time>2021-05-21T10:19:23Z</time>
      </trkpt>
      <trkpt lat="42.3760630" lon="-8.6267320">
        <ele>93.7</ele>
        <time>2021-05-21T10:19:24Z</time>
      </trkpt>
      <trkpt lat="42.3760760" lon="-8.6267400">
        <ele>93.6</ele>
        <time>2021-05-21T10:19:25Z</time>
      </trkpt>
      <trkpt lat="42.3760860" lon="-8.6267640">
        <ele>93.4</ele>
        <time>2021-05-21T10:19:26Z</time>
      </trkpt>
      <trkpt lat="42.3760990" lon="-8.6267730">
        <ele>93.3</ele>
        <time>2021-05-21T10:19:27Z</time>
      </trkpt>
      <trkpt lat="42.3761110" lon="-8.6267820">
        <ele>93.3</ele>
        <time>2021-05-21T10:19:28Z</time>
      </trkpt>
      <trkpt lat="42.3761240" lon="-8.6267880">
        <ele>93.2</ele>
        <time>2021-05-21T10:19:29Z</time>
      </trkpt>
      <trkpt lat="42.3761340" lon="-8.6268010">
        <ele>93.1</ele>
        <time>2021-05-21T10:19:30Z</time>
      </trkpt>
      <trkpt lat="42.3761410" lon="-8.6268210">
        <ele>93.0</ele>
        <time>2021-05-21T10:19:31Z</time>
      </trkpt>
      <trkpt lat="42.3761570" lon="-8.6268270">
        <ele>92.9</ele>
        <time>2021-05-21T10:19:32Z</time>
      </trkpt>
      <trkpt lat="42.3761670" lon="-8.6268350">
        <ele>92.9</ele>
        <time>2021-05-21T10:19:33Z</time>
      </trkpt>
      <trkpt lat="42.3761790" lon="-8.6268520">
        <ele>92.8</ele>
        <time>2021-05-21T10:19:34Z</time>
      </trkpt>
      <trkpt lat="42.3761840" lon="-8.6268660">
        <ele>92.8</ele>
        <time>2021-05-21T10:19:35Z</time>
      </trkpt>
      <trkpt lat="42.3762000" lon="-8.6268860">
        <ele>92.7</ele>
        <time>2021-05-21T10:19:36Z</time>
      </trkpt>
      <trkpt lat="42.3762050" lon="-8.6268950">
        <ele>92.6</ele>
        <time>2021-05-21T10:19:37Z</time>
      </trkpt>
      <trkpt lat="42.3762110" lon="-8.6269040">
        <ele>92.6</ele>
        <time>2021-05-21T10:19:38Z</time>
      </trkpt>
      <trkpt lat="42.3762200" lon="-8.6269160">
        <ele>92.5</ele>
        <time>2021-05-21T10:19:39Z</time>
      </trkpt>
      <trkpt lat="42.3762290" lon="-8.6269120">
        <ele>92.5</ele>
        <time>2021-05-21T10:19:40Z</time>
      </trkpt>
      <trkpt lat="42.3762270" lon="-8.6269260">
        <ele>92.5</ele>
        <time>2021-05-21T10:19:41Z</time>
      </trkpt>
      <trkpt lat="42.3762370" lon="-8.6269370">
        <ele>92.4</ele>
        <time>2021-05-21T10:19:42Z</time>
      </trkpt>
      <trkpt lat="42.3762470" lon="-8.6269460">
        <ele>92.4</ele>
        <time>2021-05-21T10:19:43Z</time>
      </trkpt>
      <trkpt lat="42.3762660" lon="-8.6269540">
        <ele>92.4</ele>
        <time>2021-05-21T10:19:44Z</time>
      </trkpt>
      <trkpt lat="42.3762730" lon="-8.6269710">
        <ele>92.3</ele>
        <time>2021-05-21T10:19:45Z</time>
      </trkpt>
      <trkpt lat="42.3762870" lon="-8.6269780">
        <ele>92.3</ele>
        <time>2021-05-21T10:19:46Z</time>
      </trkpt>
      <trkpt lat="42.3762990" lon="-8.6269800">
        <ele>92.3</ele>
        <time>2021-05-21T10:19:47Z</time>
      </trkpt>
      <trkpt lat="42.3763130" lon="-8.6269910">
        <ele>92.2</ele>
        <time>2021-05-21T10:19:48Z</time>
      </trkpt>
      <trkpt lat="42.3763250" lon="-8.6269990">
        <ele>92.2</ele>
        <time>2021-05-21T10:19:49Z</time>
      </trkpt>
      <trkpt lat="42.3763420" lon="-8.6269930">
        <ele>92.2</ele>
        <time>2021-05-21T10:19:50Z</time>
      </trkpt>
      <trkpt lat="42.3763520" lon="-8.6269970">
        <ele>92.2</ele>
        <time>2021-05-21T10:19:51Z</time>
      </trkpt>
      <trkpt lat="42.3763620" lon="-8.6270030">
        <ele>92.2</ele>
        <time>2021-05-21T10:19:52Z</time>
      </trkpt>
      <trkpt lat="42.3763690" lon="-8.6270090">
        <ele>92.1</ele>
        <time>2021-05-21T10:19:53Z</time>
      </trkpt>
      <trkpt lat="42.3763770" lon="-8.6270030">
        <ele>92.1</ele>
        <time>2021-05-21T10:19:54Z</time>
      </trkpt>
      <trkpt lat="42.3763830" lon="-8.6270100">
        <ele>92.1</ele>
        <time>2021-05-21T10:19:55Z</time>
      </trkpt>
      <trkpt lat="42.3763900" lon="-8.6270210">
        <ele>92.1</ele>
        <time>2021-05-21T10:19:56Z</time>
      </trkpt>
      <trkpt lat="42.3764010" lon="-8.6270310">
        <ele>92.1</ele>
        <time>2021-05-21T10:19:57Z</time>
      </trkpt>
      <trkpt lat="42.3764090" lon="-8.6270280">
        <ele>92.1</ele>
        <time>2021-05-21T10:19:58Z</time>
      </trkpt>
      <trkpt lat="42.3764200" lon="-8.6270330">
        <ele>92.1</ele>
        <time>2021-05-21T10:19:59Z</time>
      </trkpt>
      <trkpt lat="42.3764340" lon="-8.6270380">
        <ele>92.1</ele>
        <time>2021-05-21T10:20:00Z</time>
      </trkpt>
      <trkpt lat="42.3764520" lon="-8.6270430">
        <ele>92.1</ele>
        <time>2021-05-21T10:20:01Z</time>
      </trkpt>
      <trkpt lat="42.3764590" lon="-8.6270460">
        <ele>92.1</ele>
        <time>2021-05-21T10:20:02Z</time>
      </trkpt>
      <trkpt lat="42.3764650" lon="-8.6270500">
        <ele>92.1</ele>
        <time>2021-05-21T10:20:03Z</time>
      </trkpt>
      <trkpt lat="42.3764710" lon="-8.6270540">
        <ele>92.1</ele>
        <time>2021-05-21T10:20:04Z</time>
      </trkpt>
      <trkpt lat="42.3764810" lon="-8.6270470">
        <ele>92.1</ele>
        <time>2021-05-21T10:20:05Z</time>
      </trkpt>
      <trkpt lat="42.3764910" lon="-8.6270460">
        <ele>92.1</ele>
        <time>2021-05-21T10:20:06Z</time>
      </trkpt>
      <trkpt lat="42.3765010" lon="-8.6270460">
        <ele>92.1</ele>
        <time>2021-05-21T10:20:07Z</time>
      </trkpt>
      <trkpt lat="42.3765090" lon="-8.6270510">
        <ele>92.1</ele>
        <time>2021-05-21T10:20:08Z</time>
      </trkpt>
      <trkpt lat="42.3765240" lon="-8.6270450">
        <ele>92.1</ele>
        <time>2021-05-21T10:20:09Z</time>
      </trkpt>
      <trkpt lat="42.3765370" lon="-8.6270400">
        <ele>92.1</ele>
        <time>2021-05-21T10:20:10Z</time>
      </trkpt>
      <trkpt lat="42.3765570" lon="-8.6270390">
        <ele>92.1</ele>
        <time>2021-05-21T10:20:11Z</time>
      </trkpt>
      <trkpt lat="42.3765650" lon="-8.6270400">
        <ele>92.1</ele>
        <time>2021-05-21T10:20:12Z</time>
      </trkpt>
      <trkpt lat="42.3765730" lon="-8.6270400">
        <ele>92.1</ele>
        <time>2021-05-21T10:20:13Z</time>
      </trkpt>
      <trkpt lat="42.3765840" lon="-8.6270390">
        <ele>92.2</ele>
        <time>2021-05-21T10:20:14Z</time>
      </trkpt>
      <trkpt lat="42.3765960" lon="-8.6270390">
        <ele>92.2</ele>
        <time>2021-05-21T10:20:15Z</time>
      </trkpt>
      <trkpt lat="42.3766070" lon="-8.6270420">
        <ele>92.2</ele>
        <time>2021-05-21T10:20:16Z</time>
      </trkpt>
      <trkpt lat="42.3766180" lon="-8.6270330">
        <ele>92.2</ele>
        <time>2021-05-21T10:20:17Z</time>
      </trkpt>
      <trkpt lat="42.3766290" lon="-8.6270260">
        <ele>92.3</ele>
        <time>2021-05-21T10:20:18Z</time>
      </trkpt>
      <trkpt lat="42.3766360" lon="-8.6270260">
        <ele>92.3</ele>
        <time>2021-05-21T10:20:19Z</time>
      </trkpt>
      <trkpt lat="42.3766540" lon="-8.6270230">
        <ele>92.3</ele>
        <time>2021-05-21T10:20:20Z</time>
      </trkpt>
      <trkpt lat="42.3766720" lon="-8.6270230">
        <ele>92.4</ele>
        <time>2021-05-21T10:20:21Z</time>
      </trkpt>
      <trkpt lat="42.3766770" lon="-8.6270240">
        <ele>92.4</ele>
        <time>2021-05-21T10:20:22Z</time>
      </trkpt>
      <trkpt lat="42.3766870" lon="-8.6270230">
        <ele>92.5</ele>
        <time>2021-05-21T10:20:23Z</time>
      </trkpt>
      <trkpt lat="42.3767030" lon="-8.6270190">
        <ele>92.5</ele>
        <time>2021-05-21T10:20:24Z</time>
      </trkpt>
      <trkpt lat="42.3767240" lon="-8.6270150">
        <ele>92.6</ele>
        <time>2021-05-21T10:20:25Z</time>
      </trkpt>
      <trkpt lat="42.3767330" lon="-8.6270140">
        <ele>92.7</ele>
        <time>2021-05-21T10:20:26Z</time>
      </trkpt>
      <trkpt lat="42.3767410" lon="-8.6270130">
        <ele>92.7</ele>
        <time>2021-05-21T10:20:27Z</time>
      </trkpt>
      <trkpt lat="42.3767540" lon="-8.6270120">
        <ele>92.8</ele>
        <time>2021-05-21T10:20:28Z</time>
      </trkpt>
      <trkpt lat="42.3767630" lon="-8.6270110">
        <ele>92.8</ele>
        <time>2021-05-21T10:20:29Z</time>
      </trkpt>
      <trkpt lat="42.3767770" lon="-8.6270090">
        <ele>92.9</ele>
        <time>2021-05-21T10:20:30Z</time>
      </trkpt>
      <trkpt lat="42.3767950" lon="-8.6270080">
        <ele>93.0</ele>
        <time>2021-05-21T10:20:31Z</time>
      </trkpt>
      <trkpt lat="42.3768120" lon="-8.6270070">
        <ele>93.1</ele>
        <time>2021-05-21T10:20:32Z</time>
      </trkpt>
      <trkpt lat="42.3768210" lon="-8.6270150">
        <ele>93.1</ele>
        <time>2021-05-21T10:20:33Z</time>
      </trkpt>
      <trkpt lat="42.3768390" lon="-8.6270090">
        <ele>93.2</ele>
        <time>2021-05-21T10:20:34Z</time>
      </trkpt>
      <trkpt lat="42.3768510" lon="-8.6270050">
        <ele>93.3</ele>
        <time>2021-05-21T10:20:35Z</time>
      </trkpt>
      <trkpt lat="42.3768660" lon="-8.6269990">
        <ele>93.4</ele>
        <time>2021-05-21T10:20:36Z</time>
      </trkpt>
      <trkpt lat="42.3768850" lon="-8.6269970">
        <ele>93.5</ele>
        <time>2021-05-21T10:20:37Z</time>
      </trkpt>
      <trkpt lat="42.3769020" lon="-8.6269940">
        <ele>93.6</ele>
        <time>2021-05-21T10:20:38Z</time>
      </trkpt>
      <trkpt lat="42.3769130" lon="-8.6269940">
        <ele>93.7</ele>
        <time>2021-05-21T10:20:39Z</time>
      </trkpt>
      <trkpt lat="42.3769230" lon="-8.6269940">
        <ele>93.7</ele>
        <time>2021-05-21T10:20:40Z</time>
      </trkpt>
      <trkpt lat="42.3769350" lon="-8.6269910">
        <ele>93.8</ele>
        <time>2021-05-21T10:20:41Z</time>
      </trkpt>
      <trkpt lat="42.3769470" lon="-8.6269880">
        <ele>93.9</ele>
        <time>2021-05-21T10:20:42Z</time>
      </trkpt>
      <trkpt lat="42.3769610" lon="-8.6269900">
        <ele>94.0</ele>
        <time>2021-05-21T10:20:43Z</time>
      </trkpt>
      <trkpt lat="42.3769670" lon="-8.6269850">
        <ele>94.0</ele>
        <time>2021-05-21T10:20:44Z</time>
      </trkpt>
      <trkpt lat="42.3769910" lon="-8.6269810">
        <ele>94.1</ele>
        <time>2021-05-21T10:20:45Z</time>
      </trkpt>
      <trkpt lat="42.3769980" lon="-8.6269810">
        <ele>94.2</ele>
        <time>2021-05-21T10:20:46Z</time>
      </trkpt>
      <trkpt lat="42.3770060" lon="-8.6269810">
        <ele>94.2</ele>
        <time>2021-05-21T10:20:47Z</time>
      </trkpt>
      <trkpt lat="42.3770200" lon="-8.6269840">
        <ele>94.3</ele>
        <time>2021-05-21T10:20:48Z</time>
      </trkpt>
      <trkpt lat="42.3770360" lon="-8.6269850">
        <ele>94.4</ele>
        <time>2021-05-21T10:20:49Z</time>
      </trkpt>
      <trkpt lat="42.3770440" lon="-8.6269820">
        <ele>94.5</ele>
        <time>2021-05-21T10:20:50Z</time>
      </trkpt>
      <trkpt lat="42.3770530" lon="-8.6269880">
        <ele>94.5</ele>
        <time>2021-05-21T10:20:51Z</time>
      </trkpt>
      <trkpt lat="42.3770650" lon="-8.6269920">
        <ele>94.6</ele>
        <time>2021-05-21T10:20:52Z</time>
      </trkpt>
      <trkpt lat="42.3770810" lon="-8.6269900">
        <ele>94.7</ele>
        <time>2021-05-21T10:20:53Z</time>
      </trkpt>
      <trkpt lat="42.3770930" lon="-8.6269890">
        <ele>94.8</ele>
        <time>2021-05-21T10:20:54Z</time>
      </trkpt>
      <trkpt lat="42.3771060" lon="-8.6269930">
        <ele>94.9</ele>
        <time>2021-05-21T10:20:55Z</time>
      </trkpt>
      <trkpt lat="42.3771180" lon="-8.6269870">
        <ele>95.0</ele>
        <time>2021-05-21T10:20:56Z</time>
      </trkpt>
      <trkpt lat="42.3771220" lon="-8.6269900">
        <ele>95.0</ele>
        <time>2021-05-21T10:20:57Z</time>
      </trkpt>
      <trkpt lat="42.3771410" lon="-8.6269850">
        <ele>95.1</ele>
        <time>2021-05-21T10:20:58Z</time>
      </trkpt>
      <trkpt lat="42.3771520" lon="-8.6269850">
        <ele>95.2</ele>
        <time>2021-05-21T10:20:59Z</time>
      </trkpt>
      <trkpt lat="42.3771630" lon="-8.6269840">
        <ele>95.3</ele>
        <time>2021-05-21T10:21:00Z</time>
      </trkpt>
      <trkpt lat="42.3771770" lon="-8.6269900">
        <ele>95.4</ele>
        <time>2021-05-21T10:21:01Z</time>
      </trkpt>
      <trkpt lat="42.3771840" lon="-8.6269880">
        <ele>95.5</ele>
        <time>2021-05-21T10:21:02Z</time>
      </trkpt>
      <trkpt lat="42.3771980" lon="-8.6269960">
        <ele>95.6</ele>
        <time>2021-05-21T10:21:03Z</time>
      </trkpt>
      <trkpt lat="42.3772120" lon="-8.6270050">
        <ele>95.7</ele>
        <time>2021-05-21T10:21:04Z</time>
      </trkpt>
      <trkpt lat="42.3772290" lon="-8.6270130">
        <ele>95.8</ele>
        <time>2021-05-21T10:21:05Z</time>
      </trkpt>
      <trkpt lat="42.3772440" lon="-8.6270250">
        <ele>95.9</ele>
        <time>2021-05-21T10:21:06Z</time>
      </trkpt>
      <trkpt lat="42.3772560" lon="-8.6270310">
        <ele>96.0</ele>
        <time>2021-05-21T10:21:07Z</time>
      </trkpt>
      <trkpt lat="42.3772780" lon="-8.6270380">
        <ele>96.2</ele>
        <time>2021-05-21T10:21:08Z</time>
      </trkpt>
      <trkpt lat="42.3772860" lon="-8.6270500">
        <ele>96.2</ele>
        <time>2021-05-21T10:21:09Z</time>
      </trkpt>
      <trkpt lat="42.3773000" lon="-8.6270590">
        <ele>96.3</ele>
        <time>2021-05-21T10:21:10Z</time>
      </trkpt>
      <trkpt lat="42.3773090" lon="-8.6270750">
        <ele>96.4</ele>
        <time>2021-05-21T10:21:11Z</time>
      </trkpt>
      <trkpt lat="42.3773260" lon="-8.6270910">
        <ele>96.5</ele>
        <time>2021-05-21T10:21:12Z</time>
      </trkpt>
      <trkpt lat="42.3773350" lon="-8.6270950">
        <ele>96.5</ele>
        <time>2021-05-21T10:21:13Z</time>
      </trkpt>
      <trkpt lat="42.3773430" lon="-8.6271000">
        <ele>96.6</ele>
        <time>2021-05-21T10:21:14Z</time>
      </trkpt>
      <trkpt lat="42.3773530" lon="-8.6271260">
        <ele>96.7</ele>
        <time>2021-05-21T10:21:15Z</time>
      </trkpt>
      <trkpt lat="42.3773570" lon="-8.6271350">
        <ele>96.7</ele>
        <time>2021-05-21T10:21:16Z</time>
      </trkpt>
      <trkpt lat="42.3773620" lon="-8.6271440">
        <ele>96.7</ele>
        <time>2021-05-21T10:21:17Z</time>
      </trkpt>
      <trkpt lat="42.3773790" lon="-8.6271670">
        <ele>96.8</ele>
        <time>2021-05-21T10:21:18Z</time>
      </trkpt>
      <trkpt lat="42.3773850" lon="-8.6271790">
        <ele>96.8</ele>
        <time>2021-05-21T10:21:19Z</time>
      </trkpt>
      <trkpt lat="42.3773910" lon="-8.6271910">
        <ele>96.8</ele>
        <time>2021-05-21T10:21:20Z</time>
      </trkpt>
      <trkpt lat="42.3773990" lon="-8.6272090">
        <ele>96.8</ele>
        <time>2021-05-21T10:21:21Z</time>
      </trkpt>
      <trkpt lat="42.3774140" lon="-8.6272190">
        <ele>96.9</ele>
        <time>2021-05-21T10:21:22Z</time>
      </trkpt>
      <trkpt lat="42.3774270" lon="-8.6272320">
        <ele>96.9</ele>
        <time>2021-05-21T10:21:23Z</time>
      </trkpt>
      <trkpt lat="42.3774370" lon="-8.6272440">
        <ele>96.9</ele>
        <time>2021-05-21T10:21:24Z</time>
      </trkpt>
      <trkpt lat="42.3774510" lon="-8.6272530">
        <ele>96.9</ele>
        <time>2021-05-21T10:21:25Z</time>
      </trkpt>
      <trkpt lat="42.3774650" lon="-8.6272610">
        <ele>96.9</ele>
        <time>2021-05-21T10:21:26Z</time>
      </trkpt>
      <trkpt lat="42.3774870" lon="-8.6272740">
        <ele>96.8</ele>
        <time>2021-05-21T10:21:27Z</time>
      </trkpt>
      <trkpt lat="42.3774960" lon="-8.6272770">
        <ele>96.8</ele>
        <time>2021-05-21T10:21:28Z</time>
      </trkpt>
      <trkpt lat="42.3775050" lon="-8.6272810">
        <ele>96.8</ele>
        <time>2021-05-21T10:21:29Z</time>
      </trkpt>
      <trkpt lat="42.3775220" lon="-8.6272820">
        <ele>96.8</ele>
        <time>2021-05-21T10:21:30Z</time>
      </trkpt>
      <trkpt lat="42.3775340" lon="-8.6272830">
        <ele>96.8</ele>
        <time>2021-05-21T10:21:31Z</time>
      </trkpt>
      <trkpt lat="42.3775510" lon="-8.6272780">
        <ele>96.7</ele>
        <time>2021-05-21T10:21:32Z</time>
      </trkpt>
      <trkpt lat="42.3775640" lon="-8.6272770">
        <ele>96.7</ele>
        <time>2021-05-21T10:21:33Z</time>
      </trkpt>
      <trkpt lat="42.3775780" lon="-8.6272820">
        <ele>96.6</ele>
        <time>2021-05-21T10:21:34Z</time>
      </trkpt>
      <trkpt lat="42.3775920" lon="-8.6272750">
        <ele>96.6</ele>
        <time>2021-05-21T10:21:35Z</time>
      </trkpt>
      <trkpt lat="42.3776060" lon="-8.6272740">
        <ele>96.6</ele>
        <time>2021-05-21T10:21:36Z</time>
      </trkpt>
      <trkpt lat="42.3776210" lon="-8.6272690">
        <ele>96.5</ele>
        <time>2021-05-21T10:21:37Z</time>
      </trkpt>
      <trkpt lat="42.3776300" lon="-8.6272640">
        <ele>96.5</ele>
        <time>2021-05-21T10:21:38Z</time>
      </trkpt>
      <trkpt lat="42.3776410" lon="-8.6272570">
        <ele>96.5</ele>
        <time>2021-05-21T10:21:39Z</time>
      </trkpt>
      <trkpt lat="42.3776480" lon="-8.6272550">
        <ele>96.4</ele>
        <time>2021-05-21T10:21:40Z</time>
      </trkpt>
      <trkpt lat="42.3776600" lon="-8.6272500">
        <ele>96.4</ele>
        <time>2021-05-21T10:21:41Z</time>
      </trkpt>
      <trkpt lat="42.3776680" lon="-8.6272460">
        <ele>96.4</ele>
        <time>2021-05-21T10:21:42Z</time>
      </trkpt>
      <trkpt lat="42.3776790" lon="-8.6272420">
        <ele>96.3</ele>
        <time>2021-05-21T10:21:43Z</time>
      </trkpt>
      <trkpt lat="42.3776910" lon="-8.6272300">
        <ele>96.3</ele>
        <time>2021-05-21T10:21:44Z</time>
      </trkpt>
      <trkpt lat="42.3776960" lon="-8.6272280">
        <ele>96.2</ele>
        <time>2021-05-21T10:21:45Z</time>
      </trkpt>
      <trkpt lat="42.3777080" lon="-8.6272300">
        <ele>96.2</ele>
        <time>2021-05-21T10:21:46Z</time>
      </trkpt>
      <trkpt lat="42.3777150" lon="-8.6272320">
        <ele>96.2</ele>
        <time>2021-05-21T10:21:47Z</time>
      </trkpt>
      <trkpt lat="42.3777250" lon="-8.6272280">
        <ele>96.1</ele>
        <time>2021-05-21T10:21:48Z</time>
      </trkpt>
      <trkpt lat="42.3777390" lon="-8.6272260">
        <ele>96.1</ele>
        <time>2021-05-21T10:21:49Z</time>
      </trkpt>
      <trkpt lat="42.3777540" lon="-8.6272260">
        <ele>96.0</ele>
        <time>2021-05-21T10:21:50Z</time>
      </trkpt>
      <trkpt lat="42.3777680" lon="-8.6272250">
        <ele>96.0</ele>
        <time>2021-05-21T10:21:51Z</time>
      </trkpt>
      <trkpt lat="42.3777780" lon="-8.6272220">
        <ele>95.9</ele>
        <time>2021-05-21T10:21:52Z</time>
      </trkpt>
      <trkpt lat="42.3777910" lon="-8.6272270">
        <ele>95.9</ele>
        <time>2021-05-21T10:21:53Z</time>
      </trkpt>
      <trkpt lat="42.3778020" lon="-8.6272260">
        <ele>95.8</ele>
        <time>2021-05-21T10:21:54Z</time>
      </trkpt>
      <trkpt lat="42.3778080" lon="-8.6272330">
        <ele>95.8</ele>
        <time>2021-05-21T10:21:55Z</time>
      </trkpt>
      <trkpt lat="42.3778180" lon="-8.6272340">
        <ele>95.7</ele>
        <time>2021-05-21T10:21:56Z</time>
      </trkpt>
      <trkpt lat="42.3778370" lon="-8.6272240">
        <ele>95.7</ele>
        <time>2021-05-21T10:21:57Z</time>
      </trkpt>
      <trkpt lat="42.3778600" lon="-8.6272250">
        <ele>95.6</ele>
        <time>2021-05-21T10:21:58Z</time>
      </trkpt>
      <trkpt lat="42.3778690" lon="-8.6272240">
        <ele>95.5</ele>
        <time>2021-05-21T10:21:59Z</time>
      </trkpt>
      <trkpt lat="42.3778790" lon="-8.6272220">
        <ele>95.5</ele>
        <time>2021-05-21T10:22:00Z</time>
      </trkpt>
      <trkpt lat="42.3778800" lon="-8.6272210">
        <ele>95.5</ele>
        <time>2021-05-21T10:22:01Z</time>
      </trkpt>
      <trkpt lat="42.3778930" lon="-8.6272230">
        <ele>95.4</ele>
        <time>2021-05-21T10:22:02Z</time>
      </trkpt>
      <trkpt lat="42.3778990" lon="-8.6272260">
        <ele>95.4</ele>
        <time>2021-05-21T10:22:03Z</time>
      </trkpt>
      <trkpt lat="42.3779110" lon="-8.6272260">
        <ele>95.3</ele>
        <time>2021-05-21T10:22:04Z</time>
      </trkpt>
      <trkpt lat="42.3779250" lon="-8.6272320">
        <ele>95.3</ele>
        <time>2021-05-21T10:22:05Z</time>
      </trkpt>
      <trkpt lat="42.3779220" lon="-8.6272430">
        <ele>95.2</ele>
        <time>2021-05-21T10:22:06Z</time>
      </trkpt>
      <trkpt lat="42.3779360" lon="-8.6272420">
        <ele>95.1</ele>
        <time>2021-05-21T10:22:07Z</time>
      </trkpt>
      <trkpt lat="42.3779580" lon="-8.6272490">
        <ele>95.0</ele>
        <time>2021-05-21T10:22:08Z</time>
      </trkpt>
      <trkpt lat="42.3779690" lon="-8.6272540">
        <ele>95.0</ele>
        <time>2021-05-21T10:22:09Z</time>
      </trkpt>
      <trkpt lat="42.3779810" lon="-8.6272580">
        <ele>94.9</ele>
        <time>2021-05-21T10:22:10Z</time>
      </trkpt>
      <trkpt lat="42.3779900" lon="-8.6272580">
        <ele>94.9</ele>
        <time>2021-05-21T10:22:11Z</time>
      </trkpt>
      <trkpt lat="42.3780100" lon="-8.6272650">
        <ele>94.8</ele>
        <time>2021-05-21T10:22:12Z</time>
      </trkpt>
      <trkpt lat="42.3780280" lon="-8.6272620">
        <ele>94.7</ele>
        <time>2021-05-21T10:22:13Z</time>
      </trkpt>
      <trkpt lat="42.3780390" lon="-8.6272620">
        <ele>94.6</ele>
        <time>2021-05-21T10:22:14Z</time>
      </trkpt>
      <trkpt lat="42.3780500" lon="-8.6272610">
        <ele>94.6</ele>
        <time>2021-05-21T10:22:15Z</time>
      </trkpt>
      <trkpt lat="42.3780740" lon="-8.6272600">
        <ele>94.4</ele>
        <time>2021-05-21T10:22:16Z</time>
      </trkpt>
      <trkpt lat="42.3780840" lon="-8.6272580">
        <ele>94.4</ele>
        <time>2021-05-21T10:22:17Z</time>
      </trkpt>
      <trkpt lat="42.3780950" lon="-8.6272570">
        <ele>94.3</ele>
        <time>2021-05-21T10:22:18Z</time>
      </trkpt>
      <trkpt lat="42.3781090" lon="-8.6272640">
        <ele>94.2</ele>
        <time>2021-05-21T10:22:19Z</time>
      </trkpt>
      <trkpt lat="42.3781250" lon="-8.6272680">
        <ele>94.1</ele>
        <time>2021-05-21T10:22:20Z</time>
      </trkpt>
      <trkpt lat="42.3781400" lon="-8.6272680">
        <ele>94.0</ele>
        <time>2021-05-21T10:22:21Z</time>
      </trkpt>
      <trkpt lat="42.3781440" lon="-8.6272630">
        <ele>94.0</ele>
        <time>2021-05-21T10:22:22Z</time>
      </trkpt>
      <trkpt lat="42.3781540" lon="-8.6272670">
        <ele>94.0</ele>
        <time>2021-05-21T10:22:23Z</time>
      </trkpt>
      <trkpt lat="42.3781770" lon="-8.6272690">
        <ele>93.8</ele>
        <time>2021-05-21T10:22:24Z</time>
      </trkpt>
      <trkpt lat="42.3781860" lon="-8.6272690">
        <ele>93.7</ele>
        <time>2021-05-21T10:22:25Z</time>
      </trkpt>
      <trkpt lat="42.3781960" lon="-8.6272690">
        <ele>93.7</ele>
        <time>2021-05-21T10:22:26Z</time>
      </trkpt>
      <trkpt lat="42.3782150" lon="-8.6272770">
        <ele>93.5</ele>
        <time>2021-05-21T10:22:27Z</time>
      </trkpt>
      <trkpt lat="42.3782270" lon="-8.6272810">
        <ele>93.4</ele>
        <time>2021-05-21T10:22:28Z</time>
      </trkpt>
      <trkpt lat="42.3782380" lon="-8.6272850">
        <ele>93.4</ele>
        <time>2021-05-21T10:22:29Z</time>
      </trkpt>
      <trkpt lat="42.3782530" lon="-8.6272920">
        <ele>93.2</ele>
        <time>2021-05-21T10:22:30Z</time>
      </trkpt>
      <trkpt lat="42.3782670" lon="-8.6272930">
        <ele>93.1</ele>
        <time>2021-05-21T10:22:31Z</time>
      </trkpt>
      <trkpt lat="42.3782830" lon="-8.6272890">
        <ele>93.0</ele>
        <time>2021-05-21T10:22:32Z</time>
      </trkpt>
      <trkpt lat="42.3783000" lon="-8.6272940">
        <ele>92.9</ele>
        <time>2021-05-21T10:22:33Z</time>
      </trkpt>
      <trkpt lat="42.3783130" lon="-8.6272860">
        <ele>92.8</ele>
        <time>2021-05-21T10:22:34Z</time>
      </trkpt>
      <trkpt lat="42.3783270" lon="-8.6272920">
        <ele>92.7</ele>
        <time>2021-05-21T10:22:35Z</time>
      </trkpt>
      <trkpt lat="42.3783470" lon="-8.6273010">
        <ele>92.5</ele>
        <time>2021-05-21T10:22:36Z</time>
      </trkpt>
      <trkpt lat="42.3783550" lon="-8.6273050">
        <ele>92.4</ele>
        <time>2021-05-21T10:22:37Z</time>
      </trkpt>
      <trkpt lat="42.3783630" lon="-8.6273080">
        <ele>92.4</ele>
        <time>2021-05-21T10:22:38Z</time>
      </trkpt>
      <trkpt lat="42.3783800" lon="-8.6273190">
        <ele>92.2</ele>
        <time>2021-05-21T10:22:39Z</time>
      </trkpt>
      <trkpt lat="42.3783880" lon="-8.6273240">
        <ele>92.2</ele>
        <time>2021-05-21T10:22:40Z</time>
      </trkpt>
      <trkpt lat="42.3783970" lon="-8.6273290">
        <ele>92.1</ele>
        <time>2021-05-21T10:22:41Z</time>
      </trkpt>
      <trkpt lat="42.3784130" lon="-8.6273360">
        <ele>92.0</ele>
        <time>2021-05-21T10:22:42Z</time>
      </trkpt>
      <trkpt lat="42.3784230" lon="-8.6273410">
        <ele>91.9</ele>
        <time>2021-05-21T10:22:43Z</time>
      </trkpt>
      <trkpt lat="42.3784320" lon="-8.6273450">
        <ele>91.8</ele>
        <time>2021-05-21T10:22:44Z</time>
      </trkpt>
      <trkpt lat="42.3784400" lon="-8.6273480">
        <ele>91.7</ele>
        <time>2021-05-21T10:22:45Z</time>
      </trkpt>
      <trkpt lat="42.3784460" lon="-8.6273620">
        <ele>91.6</ele>
        <time>2021-05-21T10:22:46Z</time>
      </trkpt>
      <trkpt lat="42.3784550" lon="-8.6273710">
        <ele>91.6</ele>
        <time>2021-05-21T10:22:47Z</time>
      </trkpt>
      <trkpt lat="42.3784790" lon="-8.6273870">
        <ele>91.4</ele>
        <time>2021-05-21T10:22:48Z</time>
      </trkpt>
      <trkpt lat="42.3784880" lon="-8.6273920">
        <ele>91.3</ele>
        <time>2021-05-21T10:22:49Z</time>
      </trkpt>
      <trkpt lat="42.3784980" lon="-8.6273970">
        <ele>91.2</ele>
        <time>2021-05-21T10:22:50Z</time>
      </trkpt>
      <trkpt lat="42.3785170" lon="-8.6274010">
        <ele>91.0</ele>
        <time>2021-05-21T10:22:51Z</time>
      </trkpt>
      <trkpt lat="42.3785310" lon="-8.6274060">
        <ele>90.9</ele>
        <time>2021-05-21T10:22:52Z</time>
      </trkpt>
      <trkpt lat="42.3785480" lon="-8.6274150">
        <ele>90.8</ele>
        <time>2021-05-21T10:22:53Z</time>
      </trkpt>
      <trkpt lat="42.3785610" lon="-8.6274220">
        <ele>90.7</ele>
        <time>2021-05-21T10:22:54Z</time>
      </trkpt>
      <trkpt lat="42.3785700" lon="-8.6274270">
        <ele>90.6</ele>
        <time>2021-05-21T10:22:55Z</time>
      </trkpt>
      <trkpt lat="42.3785790" lon="-8.6274350">
        <ele>90.6</ele>
        <time>2021-05-21T10:22:56Z</time>
      </trkpt>
      <trkpt lat="42.3785850" lon="-8.6274440">
        <ele>90.5</ele>
        <time>2021-05-21T10:22:57Z</time>
      </trkpt>
      <trkpt lat="42.3786030" lon="-8.6274630">
        <ele>90.4</ele>
        <time>2021-05-21T10:22:58Z</time>
      </trkpt>
      <trkpt lat="42.3786120" lon="-8.6274690">
        <ele>90.3</ele>
        <time>2021-05-21T10:22:59Z</time>
      </trkpt>
      <trkpt lat="42.3786220" lon="-8.6274750">
        <ele>90.2</ele>
        <time>2021-05-21T10:23:00Z</time>
      </trkpt>
      <trkpt lat="42.3786340" lon="-8.6274870">
        <ele>90.1</ele>
        <time>2021-05-21T10:23:01Z</time>
      </trkpt>
      <trkpt lat="42.3786450" lon="-8.6274950">
        <ele>90.1</ele>
        <time>2021-05-21T10:23:02Z</time>
      </trkpt>
      <trkpt lat="42.3786550" lon="-8.6275020">
        <ele>90.0</ele>
        <time>2021-05-21T10:23:03Z</time>
      </trkpt>
      <trkpt lat="42.3786690" lon="-8.6275160">
        <ele>89.9</ele>
        <time>2021-05-21T10:23:04Z</time>
      </trkpt>
      <trkpt lat="42.3786880" lon="-8.6275230">
        <ele>89.8</ele>
        <time>2021-05-21T10:23:05Z</time>
      </trkpt>
      <trkpt lat="42.3787030" lon="-8.6275250">
        <ele>89.7</ele>
        <time>2021-05-21T10:23:06Z</time>
      </trkpt>
      <trkpt lat="42.3787150" lon="-8.6275250">
        <ele>89.7</ele>
        <time>2021-05-21T10:23:07Z</time>
      </trkpt>
      <trkpt lat="42.3787210" lon="-8.6275460">
        <ele>89.6</ele>
        <time>2021-05-21T10:23:08Z</time>
      </trkpt>
      <trkpt lat="42.3787320" lon="-8.6275450">
        <ele>89.5</ele>
        <time>2021-05-21T10:23:09Z</time>
      </trkpt>
      <trkpt lat="42.3787430" lon="-8.6275670">
        <ele>89.4</ele>
        <time>2021-05-21T10:23:10Z</time>
      </trkpt>
      <trkpt lat="42.3787510" lon="-8.6275750">
        <ele>89.4</ele>
        <time>2021-05-21T10:23:11Z</time>
      </trkpt>
      <trkpt lat="42.3787590" lon="-8.6275840">
        <ele>89.3</ele>
        <time>2021-05-21T10:23:12Z</time>
      </trkpt>
      <trkpt lat="42.3787640" lon="-8.6276010">
        <ele>89.2</ele>
        <time>2021-05-21T10:23:13Z</time>
      </trkpt>
      <trkpt lat="42.3787780" lon="-8.6276160">
        <ele>89.1</ele>
        <time>2021-05-21T10:23:14Z</time>
      </trkpt>
      <trkpt lat="42.3787860" lon="-8.6276250">
        <ele>89.1</ele>
        <time>2021-05-21T10:23:15Z</time>
      </trkpt>
      <trkpt lat="42.3787960" lon="-8.6276470">
        <ele>89.0</ele>
        <time>2021-05-21T10:23:16Z</time>
      </trkpt>
      <trkpt lat="42.3788080" lon="-8.6276680">
        <ele>88.9</ele>
        <time>2021-05-21T10:23:17Z</time>
      </trkpt>
      <trkpt lat="42.3788140" lon="-8.6276780">
        <ele>88.8</ele>
        <time>2021-05-21T10:23:18Z</time>
      </trkpt>
      <trkpt lat="42.3788200" lon="-8.6276890">
        <ele>88.7</ele>
        <time>2021-05-21T10:23:19Z</time>
      </trkpt>
      <trkpt lat="42.3788340" lon="-8.6277000">
        <ele>88.6</ele>
        <time>2021-05-21T10:23:20Z</time>
      </trkpt>
      <trkpt lat="42.3788380" lon="-8.6277150">
        <ele>88.5</ele>
        <time>2021-05-21T10:23:21Z</time>
      </trkpt>
      <trkpt lat="42.3788460" lon="-8.6277230">
        <ele>88.4</ele>
        <time>2021-05-21T10:23:22Z</time>
      </trkpt>
      <trkpt lat="42.3788610" lon="-8.6277440">
        <ele>88.2</ele>
        <time>2021-05-21T10:23:23Z</time>
      </trkpt>
      <trkpt lat="42.3788680" lon="-8.6277510">
        <ele>88.2</ele>
        <time>2021-05-21T10:23:24Z</time>
      </trkpt>
      <trkpt lat="42.3788740" lon="-8.6277590">
        <ele>88.1</ele>
        <time>2021-05-21T10:23:25Z</time>
      </trkpt>
      <trkpt lat="42.3788930" lon="-8.6277660">
        <ele>87.9</ele>
        <time>2021-05-21T10:23:26Z</time>
      </trkpt>
      <trkpt lat="42.3789040" lon="-8.6277710">
        <ele>87.8</ele>
        <time>2021-05-21T10:23:27Z</time>
      </trkpt>
      <trkpt lat="42.3789140" lon="-8.6277750">
        <ele>87.6</ele>
        <time>2021-05-21T10:23:28Z</time>
      </trkpt>
      <trkpt lat="42.3789230" lon="-8.6277720">
        <ele>87.5</ele>
        <time>2021-05-21T10:23:29Z</time>
      </trkpt>
      <trkpt lat="42.3789290" lon="-8.6277830">
        <ele>87.4</ele>
        <time>2021-05-21T10:23:30Z</time>
      </trkpt>
      <trkpt lat="42.3789450" lon="-8.6277850">
        <ele>87.2</ele>
        <time>2021-05-21T10:23:31Z</time>
      </trkpt>
      <trkpt lat="42.3789610" lon="-8.6277860">
        <ele>87.0</ele>
        <time>2021-05-21T10:23:32Z</time>
      </trkpt>
      <trkpt lat="42.3789710" lon="-8.6277930">
        <ele>86.9</ele>
        <time>2021-05-21T10:23:33Z</time>
      </trkpt>
      <trkpt lat="42.3789770" lon="-8.6278010">
        <ele>86.8</ele>
        <time>2021-05-21T10:23:34Z</time>
      </trkpt>
      <trkpt lat="42.3789900" lon="-8.6278250">
        <ele>86.5</ele>
        <time>2021-05-21T10:23:35Z</time>
      </trkpt>
      <trkpt lat="42.3789970" lon="-8.6278450">
        <ele>86.2</ele>
        <time>2021-05-21T10:23:36Z</time>
      </trkpt>
      <trkpt lat="42.3790080" lon="-8.6278560">
        <ele>86.0</ele>
        <time>2021-05-21T10:23:37Z</time>
      </trkpt>
      <trkpt lat="42.3790200" lon="-8.6278860">
        <ele>85.7</ele>
        <time>2021-05-21T10:23:38Z</time>
      </trkpt>
      <trkpt lat="42.3790260" lon="-8.6279010">
        <ele>85.5</ele>
        <time>2021-05-21T10:23:39Z</time>
      </trkpt>
      <trkpt lat="42.3790330" lon="-8.6279150">
        <ele>85.3</ele>
        <time>2021-05-21T10:23:40Z</time>
      </trkpt>
      <trkpt lat="42.3790420" lon="-8.6279540">
        <ele>85.1</ele>
        <time>2021-05-21T10:23:41Z</time>
      </trkpt>
      <trkpt lat="42.3790450" lon="-8.6279640">
        <ele>85.0</ele>
        <time>2021-05-21T10:23:42Z</time>
      </trkpt>
      <trkpt lat="42.3790550" lon="-8.6279860">
        <ele>84.8</ele>
        <time>2021-05-21T10:23:43Z</time>
      </trkpt>
      <trkpt lat="42.3790590" lon="-8.6280040">
        <ele>84.7</ele>
        <time>2021-05-21T10:23:44Z</time>
      </trkpt>
      <trkpt lat="42.3790660" lon="-8.6280210">
        <ele>84.5</ele>
        <time>2021-05-21T10:23:45Z</time>
      </trkpt>
      <trkpt lat="42.3790740" lon="-8.6280230">
        <ele>84.5</ele>
        <time>2021-05-21T10:23:46Z</time>
      </trkpt>
      <trkpt lat="42.3790790" lon="-8.6280390">
        <ele>84.3</ele>
        <time>2021-05-21T10:23:47Z</time>
      </trkpt>
      <trkpt lat="42.3790780" lon="-8.6280560">
        <ele>84.2</ele>
        <time>2021-05-21T10:23:48Z</time>
      </trkpt>
      <trkpt lat="42.3790800" lon="-8.6280740">
        <ele>84.1</ele>
        <time>2021-05-21T10:23:49Z</time>
      </trkpt>
      <trkpt lat="42.3790890" lon="-8.6280800">
        <ele>84.0</ele>
        <time>2021-05-21T10:23:50Z</time>
      </trkpt>
      <trkpt lat="42.3791010" lon="-8.6281130">
        <ele>83.7</ele>
        <time>2021-05-21T10:23:51Z</time>
      </trkpt>
      <trkpt lat="42.3791060" lon="-8.6281240">
        <ele>83.7</ele>
        <time>2021-05-21T10:23:52Z</time>
      </trkpt>
      <trkpt lat="42.3791130" lon="-8.6281350">
        <ele>83.6</ele>
        <time>2021-05-21T10:23:53Z</time>
      </trkpt>
      <trkpt lat="42.3791160" lon="-8.6281460">
        <ele>83.5</ele>
        <time>2021-05-21T10:23:54Z</time>
      </trkpt>
      <trkpt lat="42.3791150" lon="-8.6281680">
        <ele>83.3</ele>
        <time>2021-05-21T10:23:55Z</time>
      </trkpt>
      <trkpt lat="42.3791230" lon="-8.6281740">
        <ele>83.2</ele>
        <time>2021-05-21T10:23:56Z</time>
      </trkpt>
      <trkpt lat="42.3791280" lon="-8.6281800">
        <ele>83.2</ele>
        <time>2021-05-21T10:23:57Z</time>
      </trkpt>
      <trkpt lat="42.3791360" lon="-8.6281990">
        <ele>83.0</ele>
        <time>2021-05-21T10:23:58Z</time>
      </trkpt>
      <trkpt lat="42.3791440" lon="-8.6282110">
        <ele>82.9</ele>
        <time>2021-05-21T10:23:59Z</time>
      </trkpt>
      <trkpt lat="42.3791510" lon="-8.6282290">
        <ele>82.8</ele>
        <time>2021-05-21T10:24:00Z</time>
      </trkpt>
      <trkpt lat="42.3791570" lon="-8.6282370">
        <ele>82.7</ele>
        <time>2021-05-21T10:24:01Z</time>
      </trkpt>
      <trkpt lat="42.3791640" lon="-8.6282550">
        <ele>82.6</ele>
        <time>2021-05-21T10:24:02Z</time>
      </trkpt>
      <trkpt lat="42.3791690" lon="-8.6282680">
        <ele>82.5</ele>
        <time>2021-05-21T10:24:03Z</time>
      </trkpt>
      <trkpt lat="42.3791760" lon="-8.6282820">
        <ele>82.4</ele>
        <time>2021-05-21T10:24:04Z</time>
      </trkpt>
      <trkpt lat="42.3791810" lon="-8.6283040">
        <ele>82.2</ele>
        <time>2021-05-21T10:24:05Z</time>
      </trkpt>
      <trkpt lat="42.3791790" lon="-8.6283160">
        <ele>82.1</ele>
        <time>2021-05-21T10:24:06Z</time>
      </trkpt>
      <trkpt lat="42.3791830" lon="-8.6283270">
        <ele>82.0</ele>
        <time>2021-05-21T10:24:07Z</time>
      </trkpt>
      <trkpt lat="42.3791890" lon="-8.6283490">
        <ele>81.9</ele>
        <time>2021-05-21T10:24:08Z</time>
      </trkpt>
      <trkpt lat="42.3791950" lon="-8.6283750">
        <ele>81.7</ele>
        <time>2021-05-21T10:24:09Z</time>
      </trkpt>
      <trkpt lat="42.3791970" lon="-8.6283850">
        <ele>81.6</ele>
        <time>2021-05-21T10:24:10Z</time>
      </trkpt>
      <trkpt lat="42.3792000" lon="-8.6283960">
        <ele>81.6</ele>
        <time>2021-05-21T10:24:11Z</time>
      </trkpt>
      <trkpt lat="42.3792090" lon="-8.6284030">
        <ele>81.5</ele>
        <time>2021-05-21T10:24:12Z</time>
      </trkpt>
      <trkpt lat="42.3792170" lon="-8.6284210">
        <ele>81.3</ele>
        <time>2021-05-21T10:24:13Z</time>
      </trkpt>
      <trkpt lat="42.3792220" lon="-8.6284300">
        <ele>81.3</ele>
        <time>2021-05-21T10:24:14Z</time>
      </trkpt>
      <trkpt lat="42.3792290" lon="-8.6284410">
        <ele>81.2</ele>
        <time>2021-05-21T10:24:15Z</time>
      </trkpt>
      <trkpt lat="42.3792350" lon="-8.6284580">
        <ele>81.1</ele>
        <time>2021-05-21T10:24:16Z</time>
      </trkpt>
      <trkpt lat="42.3792400" lon="-8.6284700">
        <ele>81.0</ele>
        <time>2021-05-21T10:24:17Z</time>
      </trkpt>
      <trkpt lat="42.3792580" lon="-8.6285000">
        <ele>80.7</ele>
        <time>2021-05-21T10:24:18Z</time>
      </trkpt>
      <trkpt lat="42.3792590" lon="-8.6285130">
        <ele>80.7</ele>
        <time>2021-05-21T10:24:19Z</time>
      </trkpt>
      <trkpt lat="42.3792670" lon="-8.6285400">
        <ele>80.5</ele>
        <time>2021-05-21T10:24:20Z</time>
      </trkpt>
      <trkpt lat="42.3792720" lon="-8.6285480">
        <ele>80.4</ele>
        <time>2021-05-21T10:24:21Z</time>
      </trkpt>
      <trkpt lat="42.3792770" lon="-8.6285570">
        <ele>80.4</ele>
        <time>2021-05-21T10:24:22Z</time>
      </trkpt>
      <trkpt lat="42.3792830" lon="-8.6285660">
        <ele>80.3</ele>
        <time>2021-05-21T10:24:23Z</time>
      </trkpt>
      <trkpt lat="42.3792850" lon="-8.6285890">
        <ele>80.2</ele>
        <time>2021-05-21T10:24:24Z</time>
      </trkpt>
      <trkpt lat="42.3792880" lon="-8.6285930">
        <ele>80.1</ele>
        <time>2021-05-21T10:24:25Z</time>
      </trkpt>
      <trkpt lat="42.3792920" lon="-8.6286110">
        <ele>80.0</ele>
        <time>2021-05-21T10:24:26Z</time>
      </trkpt>
      <trkpt lat="42.3793010" lon="-8.6286340">
        <ele>79.9</ele>
        <time>2021-05-21T10:24:27Z</time>
      </trkpt>
      <trkpt lat="42.3793060" lon="-8.6286590">
        <ele>79.7</ele>
        <time>2021-05-21T10:24:28Z</time>
      </trkpt>
      <trkpt lat="42.3793080" lon="-8.6286690">
        <ele>79.6</ele>
        <time>2021-05-21T10:24:29Z</time>
      </trkpt>
      <trkpt lat="42.3793100" lon="-8.6286790">
        <ele>79.6</ele>
        <time>2021-05-21T10:24:30Z</time>
      </trkpt>
      <trkpt lat="42.3793120" lon="-8.6286890">
        <ele>79.5</ele>
        <time>2021-05-21T10:24:31Z</time>
      </trkpt>
      <trkpt lat="42.3793150" lon="-8.6287100">
        <ele>79.4</ele>
        <time>2021-05-21T10:24:32Z</time>
      </trkpt>
      <trkpt lat="42.3793140" lon="-8.6287200">
        <ele>79.3</ele>
        <time>2021-05-21T10:24:33Z</time>
      </trkpt>
      <trkpt lat="42.3793170" lon="-8.6287350">
        <ele>79.2</ele>
        <time>2021-05-21T10:24:34Z</time>
      </trkpt>
      <trkpt lat="42.3793210" lon="-8.6287560">
        <ele>79.1</ele>
        <time>2021-05-21T10:24:35Z</time>
      </trkpt>
      <trkpt lat="42.3793320" lon="-8.6287780">
        <ele>79.0</ele>
        <time>2021-05-21T10:24:36Z</time>
      </trkpt>
      <trkpt lat="42.3793410" lon="-8.6287850">
        <ele>78.8</ele>
        <time>2021-05-21T10:24:37Z</time>
      </trkpt>
      <trkpt lat="42.3793470" lon="-8.6287960">
        <ele>78.7</ele>
        <time>2021-05-21T10:24:38Z</time>
      </trkpt>
      <trkpt lat="42.3793560" lon="-8.6288000">
        <ele>78.6</ele>
        <time>2021-05-21T10:24:39Z</time>
      </trkpt>
      <trkpt lat="42.3793630" lon="-8.6287960">
        <ele>78.6</ele>
        <time>2021-05-21T10:24:40Z</time>
      </trkpt>
      <trkpt lat="42.3793720" lon="-8.6288060">
        <ele>78.5</ele>
        <time>2021-05-21T10:24:41Z</time>
      </trkpt>
      <trkpt lat="42.3793830" lon="-8.6288150">
        <ele>78.4</ele>
        <time>2021-05-21T10:24:42Z</time>
      </trkpt>
      <trkpt lat="42.3794020" lon="-8.6288220">
        <ele>78.3</ele>
        <time>2021-05-21T10:24:43Z</time>
      </trkpt>
      <trkpt lat="42.3794080" lon="-8.6288280">
        <ele>78.3</ele>
        <time>2021-05-21T10:24:44Z</time>
      </trkpt>
      <trkpt lat="42.3794130" lon="-8.6288350">
        <ele>78.2</ele>
        <time>2021-05-21T10:24:45Z</time>
      </trkpt>
      <trkpt lat="42.3794190" lon="-8.6288410">
        <ele>78.2</ele>
        <time>2021-05-21T10:24:46Z</time>
      </trkpt>
      <trkpt lat="42.3794330" lon="-8.6288600">
        <ele>78.0</ele>
        <time>2021-05-21T10:24:47Z</time>
      </trkpt>
      <trkpt lat="42.3794380" lon="-8.6288790">
        <ele>78.0</ele>
        <time>2021-05-21T10:24:48Z</time>
      </trkpt>
      <trkpt lat="42.3794520" lon="-8.6288910">
        <ele>77.9</ele>
        <time>2021-05-21T10:24:49Z</time>
      </trkpt>
      <trkpt lat="42.3794670" lon="-8.6289040">
        <ele>77.8</ele>
        <time>2021-05-21T10:24:50Z</time>
      </trkpt>
      <trkpt lat="42.3794790" lon="-8.6289190">
        <ele>77.7</ele>
        <time>2021-05-21T10:24:51Z</time>
      </trkpt>
      <trkpt lat="42.3794850" lon="-8.6289410">
        <ele>77.6</ele>
        <time>2021-05-21T10:24:52Z</time>
      </trkpt>
      <trkpt lat="42.3795000" lon="-8.6289470">
        <ele>77.5</ele>
        <time>2021-05-21T10:24:53Z</time>
      </trkpt>
      <trkpt lat="42.3795110" lon="-8.6289640">
        <ele>77.4</ele>
        <time>2021-05-21T10:24:54Z</time>
      </trkpt>
      <trkpt lat="42.3795190" lon="-8.6289810">
        <ele>77.3</ele>
        <time>2021-05-21T10:24:55Z</time>
      </trkpt>
      <trkpt lat="42.3795360" lon="-8.6289900">
        <ele>77.2</ele>
        <time>2021-05-21T10:24:56Z</time>
      </trkpt>
      <trkpt lat="42.3795510" lon="-8.6290110">
        <ele>77.1</ele>
        <time>2021-05-21T10:24:57Z</time>
      </trkpt>
      <trkpt lat="42.3795570" lon="-8.6290200">
        <ele>77.1</ele>
        <time>2021-05-21T10:24:58Z</time>
      </trkpt>
      <trkpt lat="42.3795630" lon="-8.6290290">
        <ele>77.1</ele>
        <time>2021-05-21T10:24:59Z</time>
      </trkpt>
      <trkpt lat="42.3795800" lon="-8.6290520">
        <ele>77.0</ele>
        <time>2021-05-21T10:25:00Z</time>
      </trkpt>
      <trkpt lat="42.3795870" lon="-8.6290600">
        <ele>76.9</ele>
        <time>2021-05-21T10:25:01Z</time>
      </trkpt>
      <trkpt lat="42.3795940" lon="-8.6290690">
        <ele>76.9</ele>
        <time>2021-05-21T10:25:02Z</time>
      </trkpt>
      <trkpt lat="42.3796060" lon="-8.6290770">
        <ele>76.8</ele>
        <time>2021-05-21T10:25:03Z</time>
      </trkpt>
      <trkpt lat="42.3796180" lon="-8.6290890">
        <ele>76.8</ele>
        <time>2021-05-21T10:25:04Z</time>
      </trkpt>
      <trkpt lat="42.3796340" lon="-8.6291070">
        <ele>76.7</ele>
        <time>2021-05-21T10:25:05Z</time>
      </trkpt>
      <trkpt lat="42.3796410" lon="-8.6291130">
        <ele>76.6</ele>
        <time>2021-05-21T10:25:06Z</time>
      </trkpt>
      <trkpt lat="42.3796470" lon="-8.6291200">
        <ele>76.6</ele>
        <time>2021-05-21T10:25:07Z</time>
      </trkpt>
      <trkpt lat="42.3796600" lon="-8.6291280">
        <ele>76.5</ele>
        <time>2021-05-21T10:25:08Z</time>
      </trkpt>
      <trkpt lat="42.3796650" lon="-8.6291480">
        <ele>76.5</ele>
        <time>2021-05-21T10:25:09Z</time>
      </trkpt>
      <trkpt lat="42.3796720" lon="-8.6291530">
        <ele>76.4</ele>
        <time>2021-05-21T10:25:10Z</time>
      </trkpt>
      <trkpt lat="42.3796830" lon="-8.6291620">
        <ele>76.4</ele>
        <time>2021-05-21T10:25:11Z</time>
      </trkpt>
      <trkpt lat="42.3796920" lon="-8.6291680">
        <ele>76.3</ele>
        <time>2021-05-21T10:25:12Z</time>
      </trkpt>
      <trkpt lat="42.3796990" lon="-8.6291690">
        <ele>76.3</ele>
        <time>2021-05-21T10:25:13Z</time>
      </trkpt>
      <trkpt lat="42.3797170" lon="-8.6291750">
        <ele>76.2</ele>
        <time>2021-05-21T10:25:14Z</time>
      </trkpt>
      <trkpt lat="42.3797230" lon="-8.6291690">
        <ele>76.2</ele>
        <time>2021-05-21T10:25:15Z</time>
      </trkpt>
      <trkpt lat="42.3797500" lon="-8.6291800">
        <ele>76.1</ele>
        <time>2021-05-21T10:25:16Z</time>
      </trkpt>
      <trkpt lat="42.3797560" lon="-8.6291850">
        <ele>76.1</ele>
        <time>2021-05-21T10:25:17Z</time>
      </trkpt>
      <trkpt lat="42.3797620" lon="-8.6291890">
        <ele>76.0</ele>
        <time>2021-05-21T10:25:18Z</time>
      </trkpt>
      <trkpt lat="42.3797710" lon="-8.6291880">
        <ele>76.0</ele>
        <time>2021-05-21T10:25:19Z</time>
      </trkpt>
      <trkpt lat="42.3797830" lon="-8.6291950">
        <ele>75.9</ele>
        <time>2021-05-21T10:25:20Z</time>
      </trkpt>
      <trkpt lat="42.3797910" lon="-8.6292020">
        <ele>75.9</ele>
        <time>2021-05-21T10:25:21Z</time>
      </trkpt>
      <trkpt lat="42.3798020" lon="-8.6292110">
        <ele>75.9</ele>
        <time>2021-05-21T10:25:22Z</time>
      </trkpt>
      <trkpt lat="42.3798170" lon="-8.6292100">
        <ele>75.8</ele>
        <time>2021-05-21T10:25:23Z</time>
      </trkpt>
      <trkpt lat="42.3798250" lon="-8.6292170">
        <ele>75.8</ele>
        <time>2021-05-21T10:25:24Z</time>
      </trkpt>
      <trkpt lat="42.3798400" lon="-8.6292260">
        <ele>75.7</ele>
        <time>2021-05-21T10:25:25Z</time>
      </trkpt>
      <trkpt lat="42.3798520" lon="-8.6292300">
        <ele>75.7</ele>
        <time>2021-05-21T10:25:26Z</time>
      </trkpt>
      <trkpt lat="42.3798630" lon="-8.6292350">
        <ele>75.6</ele>
        <time>2021-05-21T10:25:27Z</time>
      </trkpt>
      <trkpt lat="42.3798790" lon="-8.6292330">
        <ele>75.6</ele>
        <time>2021-05-21T10:25:28Z</time>
      </trkpt>
      <trkpt lat="42.3798830" lon="-8.6292410">
        <ele>75.5</ele>
        <time>2021-05-21T10:25:29Z</time>
      </trkpt>
      <trkpt lat="42.3798950" lon="-8.6292470">
        <ele>75.5</ele>
        <time>2021-05-21T10:25:30Z</time>
      </trkpt>
      <trkpt lat="42.3799160" lon="-8.6292430">
        <ele>75.4</ele>
        <time>2021-05-21T10:25:31Z</time>
      </trkpt>
      <trkpt lat="42.3799260" lon="-8.6292540">
        <ele>75.4</ele>
        <time>2021-05-21T10:25:32Z</time>
      </trkpt>
      <trkpt lat="42.3799430" lon="-8.6292550">
        <ele>75.3</ele>
        <time>2021-05-21T10:25:33Z</time>
      </trkpt>
      <trkpt lat="42.3799530" lon="-8.6292560">
        <ele>75.3</ele>
        <time>2021-05-21T10:25:34Z</time>
      </trkpt>
      <trkpt lat="42.3799630" lon="-8.6292570">
        <ele>75.2</ele>
        <time>2021-05-21T10:25:35Z</time>
      </trkpt>
      <trkpt lat="42.3799760" lon="-8.6292630">
        <ele>75.2</ele>
        <time>2021-05-21T10:25:36Z</time>
      </trkpt>
      <trkpt lat="42.3799840" lon="-8.6292650">
        <ele>75.2</ele>
        <time>2021-05-21T10:25:37Z</time>
      </trkpt>
      <trkpt lat="42.3799920" lon="-8.6292730">
        <ele>75.2</ele>
        <time>2021-05-21T10:25:38Z</time>
      </trkpt>
      <trkpt lat="42.3800010" lon="-8.6292750">
        <ele>75.1</ele>
        <time>2021-05-21T10:25:39Z</time>
      </trkpt>
      <trkpt lat="42.3800100" lon="-8.6292790">
        <ele>75.1</ele>
        <time>2021-05-21T10:25:40Z</time>
      </trkpt>
      <trkpt lat="42.3800240" lon="-8.6292790">
        <ele>75.1</ele>
        <time>2021-05-21T10:25:41Z</time>
      </trkpt>
      <trkpt lat="42.3800380" lon="-8.6292900">
        <ele>75.0</ele>
        <time>2021-05-21T10:25:42Z</time>
      </trkpt>
      <trkpt lat="42.3800390" lon="-8.6292910">
        <ele>75.0</ele>
        <time>2021-05-21T10:25:43Z</time>
      </trkpt>
      <trkpt lat="42.3800540" lon="-8.6292970">
        <ele>74.9</ele>
        <time>2021-05-21T10:25:44Z</time>
      </trkpt>
      <trkpt lat="42.3800760" lon="-8.6293090">
        <ele>74.9</ele>
        <time>2021-05-21T10:25:45Z</time>
      </trkpt>
      <trkpt lat="42.3800860" lon="-8.6293120">
        <ele>74.8</ele>
        <time>2021-05-21T10:25:46Z</time>
      </trkpt>
      <trkpt lat="42.3800960" lon="-8.6293160">
        <ele>74.8</ele>
        <time>2021-05-21T10:25:47Z</time>
      </trkpt>
      <trkpt lat="42.3801170" lon="-8.6293230">
        <ele>74.7</ele>
        <time>2021-05-21T10:25:48Z</time>
      </trkpt>
      <trkpt lat="42.3801270" lon="-8.6293270">
        <ele>74.7</ele>
        <time>2021-05-21T10:25:49Z</time>
      </trkpt>
      <trkpt lat="42.3801360" lon="-8.6293300">
        <ele>74.7</ele>
        <time>2021-05-21T10:25:50Z</time>
      </trkpt>
      <trkpt lat="42.3801460" lon="-8.6293330">
        <ele>74.7</ele>
        <time>2021-05-21T10:25:51Z</time>
      </trkpt>
      <trkpt lat="42.3801610" lon="-8.6293410">
        <ele>74.6</ele>
        <time>2021-05-21T10:25:52Z</time>
      </trkpt>
      <trkpt lat="42.3801680" lon="-8.6293350">
        <ele>74.6</ele>
        <time>2021-05-21T10:25:53Z</time>
      </trkpt>
      <trkpt lat="42.3801860" lon="-8.6293430">
        <ele>74.5</ele>
        <time>2021-05-21T10:25:54Z</time>
      </trkpt>
      <trkpt lat="42.3801980" lon="-8.6293450">
        <ele>74.5</ele>
        <time>2021-05-21T10:25:55Z</time>
      </trkpt>
      <trkpt lat="42.3802100" lon="-8.6293530">
        <ele>74.4</ele>
        <time>2021-05-21T10:25:56Z</time>
      </trkpt>
      <trkpt lat="42.3802270" lon="-8.6293570">
        <ele>74.4</ele>
        <time>2021-05-21T10:25:57Z</time>
      </trkpt>
      <trkpt lat="42.3802490" lon="-8.6293670">
        <ele>74.3</ele>
        <time>2021-05-21T10:25:58Z</time>
      </trkpt>
      <trkpt lat="42.3802580" lon="-8.6293720">
        <ele>74.3</ele>
        <time>2021-05-21T10:25:59Z</time>
      </trkpt>
      <trkpt lat="42.3802660" lon="-8.6293760">
        <ele>74.2</ele>
        <time>2021-05-21T10:26:00Z</time>
      </trkpt>
      <trkpt lat="42.3802840" lon="-8.6293840">
        <ele>74.2</ele>
        <time>2021-05-21T10:26:01Z</time>
      </trkpt>
      <trkpt lat="42.3802990" lon="-8.6293860">
        <ele>74.1</ele>
        <time>2021-05-21T10:26:02Z</time>
      </trkpt>
      <trkpt lat="42.3803200" lon="-8.6294020">
        <ele>74.0</ele>
        <time>2021-05-21T10:26:03Z</time>
      </trkpt>
      <trkpt lat="42.3803260" lon="-8.6294070">
        <ele>74.0</ele>
        <time>2021-05-21T10:26:04Z</time>
      </trkpt>
      <trkpt lat="42.3803310" lon="-8.6294130">
        <ele>74.0</ele>
        <time>2021-05-21T10:26:05Z</time>
      </trkpt>
      <trkpt lat="42.3803450" lon="-8.6294160">
        <ele>73.9</ele>
        <time>2021-05-21T10:26:06Z</time>
      </trkpt>
      <trkpt lat="42.3803520" lon="-8.6294200">
        <ele>73.9</ele>
        <time>2021-05-21T10:26:07Z</time>
      </trkpt>
      <trkpt lat="42.3803600" lon="-8.6294230">
        <ele>73.9</ele>
        <time>2021-05-21T10:26:08Z</time>
      </trkpt>
      <trkpt lat="42.3803670" lon="-8.6294270">
        <ele>73.9</ele>
        <time>2021-05-21T10:26:09Z</time>
      </trkpt>
      <trkpt lat="42.3803740" lon="-8.6294360">
        <ele>73.8</ele>
        <time>2021-05-21T10:26:10Z</time>
      </trkpt>
      <trkpt lat="42.3803860" lon="-8.6294400">
        <ele>73.8</ele>
        <time>2021-05-21T10:26:11Z</time>
      </trkpt>
      <trkpt lat="42.3803930" lon="-8.6294440">
        <ele>73.7</ele>
        <time>2021-05-21T10:26:12Z</time>
      </trkpt>
      <trkpt lat="42.3804010" lon="-8.6294500">
        <ele>73.7</ele>
        <time>2021-05-21T10:26:13Z</time>
      </trkpt>
      <trkpt lat="42.3804120" lon="-8.6294620">
        <ele>73.6</ele>
        <time>2021-05-21T10:26:14Z</time>
      </trkpt>
      <trkpt lat="42.3804220" lon="-8.6294680">
        <ele>73.6</ele>
        <time>2021-05-21T10:26:15Z</time>
      </trkpt>
      <trkpt lat="42.3804300" lon="-8.6294760">
        <ele>73.6</ele>
        <time>2021-05-21T10:26:16Z</time>
      </trkpt>
      <trkpt lat="42.3804480" lon="-8.6294870">
        <ele>73.5</ele>
        <time>2021-05-21T10:26:17Z</time>
      </trkpt>
      <trkpt lat="42.3804620" lon="-8.6294880">
        <ele>73.4</ele>
        <time>2021-05-21T10:26:18Z</time>
      </trkpt>
      <trkpt lat="42.3804820" lon="-8.6294960">
        <ele>73.3</ele>
        <time>2021-05-21T10:26:19Z</time>
      </trkpt>
      <trkpt lat="42.3804920" lon="-8.6295000">
        <ele>73.3</ele>
        <time>2021-05-21T10:26:20Z</time>
      </trkpt>
      <trkpt lat="42.3804970" lon="-8.6295080">
        <ele>73.3</ele>
        <time>2021-05-21T10:26:21Z</time>
      </trkpt>
      <trkpt lat="42.3805080" lon="-8.6295170">
        <ele>73.2</ele>
        <time>2021-05-21T10:26:22Z</time>
      </trkpt>
      <trkpt lat="42.3805220" lon="-8.6295210">
        <ele>73.2</ele>
        <time>2021-05-21T10:26:23Z</time>
      </trkpt>
      <trkpt lat="42.3805290" lon="-8.6295270">
        <ele>73.1</ele>
        <time>2021-05-21T10:26:24Z</time>
      </trkpt>
      <trkpt lat="42.3805380" lon="-8.6295370">
        <ele>73.1</ele>
        <time>2021-05-21T10:26:25Z</time>
      </trkpt>
      <trkpt lat="42.3805550" lon="-8.6295400">
        <ele>73.0</ele>
        <time>2021-05-21T10:26:26Z</time>
      </trkpt>
      <trkpt lat="42.3805660" lon="-8.6295430">
        <ele>73.0</ele>
        <time>2021-05-21T10:26:27Z</time>
      </trkpt>
      <trkpt lat="42.3805760" lon="-8.6295460">
        <ele>72.9</ele>
        <time>2021-05-21T10:26:28Z</time>
      </trkpt>
      <trkpt lat="42.3805920" lon="-8.6295460">
        <ele>72.9</ele>
        <time>2021-05-21T10:26:29Z</time>
      </trkpt>
      <trkpt lat="42.3805950" lon="-8.6295550">
        <ele>72.8</ele>
        <time>2021-05-21T10:26:30Z</time>
      </trkpt>
      <trkpt lat="42.3806090" lon="-8.6295540">
        <ele>72.8</ele>
        <time>2021-05-21T10:26:31Z</time>
      </trkpt>
      <trkpt lat="42.3806260" lon="-8.6295600">
        <ele>72.7</ele>
        <time>2021-05-21T10:26:32Z</time>
      </trkpt>
      <trkpt lat="42.3806320" lon="-8.6295630">
        <ele>72.7</ele>
        <time>2021-05-21T10:26:33Z</time>
      </trkpt>
      <trkpt lat="42.3806440" lon="-8.6295670">
        <ele>72.6</ele>
        <time>2021-05-21T10:26:34Z</time>
      </trkpt>
      <trkpt lat="42.3806530" lon="-8.6295730">
        <ele>72.6</ele>
        <time>2021-05-21T10:26:35Z</time>
      </trkpt>
      <trkpt lat="42.3806650" lon="-8.6295700">
        <ele>72.6</ele>
        <time>2021-05-21T10:26:36Z</time>
      </trkpt>
      <trkpt lat="42.3806760" lon="-8.6295760">
        <ele>72.5</ele>
        <time>2021-05-21T10:26:37Z</time>
      </trkpt>
      <trkpt lat="42.3806890" lon="-8.6295830">
        <ele>72.5</ele>
        <time>2021-05-21T10:26:38Z</time>
      </trkpt>
      <trkpt lat="42.3807020" lon="-8.6295870">
        <ele>72.4</ele>
        <time>2021-05-21T10:26:39Z</time>
      </trkpt>
      <trkpt lat="42.3807060" lon="-8.6295870">
        <ele>72.4</ele>
        <time>2021-05-21T10:26:40Z</time>
      </trkpt>
      <trkpt lat="42.3807240" lon="-8.6295870">
        <ele>72.4</ele>
        <time>2021-05-21T10:26:41Z</time>
      </trkpt>
      <trkpt lat="42.3807350" lon="-8.6295860">
        <ele>72.3</ele>
        <time>2021-05-21T10:26:42Z</time>
      </trkpt>
      <trkpt lat="42.3807680" lon="-8.6295890">
        <ele>72.2</ele>
        <time>2021-05-21T10:26:43Z</time>
      </trkpt>
      <trkpt lat="42.3807800" lon="-8.6295880">
        <ele>72.2</ele>
        <time>2021-05-21T10:26:44Z</time>
      </trkpt>
      <trkpt lat="42.3807990" lon="-8.6295810">
        <ele>72.1</ele>
        <time>2021-05-21T10:26:45Z</time>
      </trkpt>
      <trkpt lat="42.3808140" lon="-8.6295820">
        <ele>72.1</ele>
        <time>2021-05-21T10:26:46Z</time>
      </trkpt>
      <trkpt lat="42.3808310" lon="-8.6295890">
        <ele>72.0</ele>
        <time>2021-05-21T10:26:47Z</time>
      </trkpt>
      <trkpt lat="42.3808480" lon="-8.6295940">
        <ele>72.0</ele>
        <time>2021-05-21T10:26:48Z</time>
      </trkpt>
      <trkpt lat="42.3808670" lon="-8.6295970">
        <ele>71.9</ele>
        <time>2021-05-21T10:26:49Z</time>
      </trkpt>
      <trkpt lat="42.3808810" lon="-8.6295980">
        <ele>71.9</ele>
        <time>2021-05-21T10:26:50Z</time>
      </trkpt>
      <trkpt lat="42.3808950" lon="-8.6295990">
        <ele>71.8</ele>
        <time>2021-05-21T10:26:51Z</time>
      </trkpt>
      <trkpt lat="42.3809140" lon="-8.6295960">
        <ele>71.8</ele>
        <time>2021-05-21T10:26:52Z</time>
      </trkpt>
      <trkpt lat="42.3809350" lon="-8.6295910">
        <ele>71.7</ele>
        <time>2021-05-21T10:26:53Z</time>
      </trkpt>
      <trkpt lat="42.3809430" lon="-8.6295900">
        <ele>71.7</ele>
        <time>2021-05-21T10:26:54Z</time>
      </trkpt>
      <trkpt lat="42.3809520" lon="-8.6295880">
        <ele>71.7</ele>
        <time>2021-05-21T10:26:55Z</time>
      </trkpt>
      <trkpt lat="42.3809580" lon="-8.6295860">
        <ele>71.7</ele>
        <time>2021-05-21T10:26:56Z</time>
      </trkpt>
      <trkpt lat="42.3809660" lon="-8.6295870">
        <ele>71.6</ele>
        <time>2021-05-21T10:26:57Z</time>
      </trkpt>
      <trkpt lat="42.3809750" lon="-8.6295900">
        <ele>71.6</ele>
        <time>2021-05-21T10:26:58Z</time>
      </trkpt>
      <trkpt lat="42.3809820" lon="-8.6295960">
        <ele>71.6</ele>
        <time>2021-05-21T10:26:59Z</time>
      </trkpt>
      <trkpt lat="42.3810040" lon="-8.6295810">
        <ele>71.6</ele>
        <time>2021-05-21T10:27:00Z</time>
      </trkpt>
      <trkpt lat="42.3810130" lon="-8.6295790">
        <ele>71.6</ele>
        <time>2021-05-21T10:27:01Z</time>
      </trkpt>
      <trkpt lat="42.3810360" lon="-8.6295700">
        <ele>71.6</ele>
        <time>2021-05-21T10:27:02Z</time>
      </trkpt>
      <trkpt lat="42.3810430" lon="-8.6295670">
        <ele>71.5</ele>
        <time>2021-05-21T10:27:03Z</time>
      </trkpt>
      <trkpt lat="42.3810490" lon="-8.6295630">
        <ele>71.5</ele>
        <time>2021-05-21T10:27:04Z</time>
      </trkpt>
      <trkpt lat="42.3810610" lon="-8.6295570">
        <ele>71.5</ele>
        <time>2021-05-21T10:27:05Z</time>
      </trkpt>
      <trkpt lat="42.3810680" lon="-8.6295630">
        <ele>71.5</ele>
        <time>2021-05-21T10:27:06Z</time>
      </trkpt>
      <trkpt lat="42.3810770" lon="-8.6295680">
        <ele>71.5</ele>
        <time>2021-05-21T10:27:07Z</time>
      </trkpt>
      <trkpt lat="42.3810960" lon="-8.6295660">
        <ele>71.5</ele>
        <time>2021-05-21T10:27:08Z</time>
      </trkpt>
      <trkpt lat="42.3811050" lon="-8.6295670">
        <ele>71.5</ele>
        <time>2021-05-21T10:27:09Z</time>
      </trkpt>
      <trkpt lat="42.3811140" lon="-8.6295680">
        <ele>71.5</ele>
        <time>2021-05-21T10:27:10Z</time>
      </trkpt>
      <trkpt lat="42.3811310" lon="-8.6295680">
        <ele>71.5</ele>
        <time>2021-05-21T10:27:11Z</time>
      </trkpt>
      <trkpt lat="42.3811380" lon="-8.6295680">
        <ele>71.4</ele>
        <time>2021-05-21T10:27:12Z</time>
      </trkpt>
      <trkpt lat="42.3811410" lon="-8.6295680">
        <ele>71.4</ele>
        <time>2021-05-21T10:27:13Z</time>
      </trkpt>
      <trkpt lat="42.3811560" lon="-8.6295680">
        <ele>71.4</ele>
        <time>2021-05-21T10:27:14Z</time>
      </trkpt>
      <trkpt lat="42.3811740" lon="-8.6295600">
        <ele>71.3</ele>
        <time>2021-05-21T10:27:15Z</time>
      </trkpt>
      <trkpt lat="42.3811810" lon="-8.6295610">
        <ele>71.2</ele>
        <time>2021-05-21T10:27:16Z</time>
      </trkpt>
      <trkpt lat="42.3811930" lon="-8.6295610">
        <ele>71.2</ele>
        <time>2021-05-21T10:27:17Z</time>
      </trkpt>
      <trkpt lat="42.3812030" lon="-8.6295590">
        <ele>71.1</ele>
        <time>2021-05-21T10:27:18Z</time>
      </trkpt>
      <trkpt lat="42.3812210" lon="-8.6295540">
        <ele>71.0</ele>
        <time>2021-05-21T10:27:19Z</time>
      </trkpt>
      <trkpt lat="42.3812320" lon="-8.6295530">
        <ele>71.0</ele>
        <time>2021-05-21T10:27:20Z</time>
      </trkpt>
      <trkpt lat="42.3812440" lon="-8.6295510">
        <ele>70.9</ele>
        <time>2021-05-21T10:27:21Z</time>
      </trkpt>
      <trkpt lat="42.3812560" lon="-8.6295410">
        <ele>70.8</ele>
        <time>2021-05-21T10:27:22Z</time>
      </trkpt>
      <trkpt lat="42.3812760" lon="-8.6295350">
        <ele>70.7</ele>
        <time>2021-05-21T10:27:23Z</time>
      </trkpt>
      <trkpt lat="42.3812870" lon="-8.6295410">
        <ele>70.7</ele>
        <time>2021-05-21T10:27:24Z</time>
      </trkpt>
      <trkpt lat="42.3812930" lon="-8.6295380">
        <ele>70.6</ele>
        <time>2021-05-21T10:27:25Z</time>
      </trkpt>
      <trkpt lat="42.3813050" lon="-8.6295350">
        <ele>70.6</ele>
        <time>2021-05-21T10:27:26Z</time>
      </trkpt>
      <trkpt lat="42.3813170" lon="-8.6295300">
        <ele>70.5</ele>
        <time>2021-05-21T10:27:27Z</time>
      </trkpt>
      <trkpt lat="42.3813240" lon="-8.6295300">
        <ele>70.5</ele>
        <time>2021-05-21T10:27:28Z</time>
      </trkpt>
      <trkpt lat="42.3813320" lon="-8.6295260">
        <ele>70.4</ele>
        <time>2021-05-21T10:27:29Z</time>
      </trkpt>
      <trkpt lat="42.3813330" lon="-8.6295220">
        <ele>70.4</ele>
        <time>2021-05-21T10:27:30Z</time>
      </trkpt>
      <trkpt lat="42.3813510" lon="-8.6295190">
        <ele>70.3</ele>
        <time>2021-05-21T10:27:31Z</time>
      </trkpt>
      <trkpt lat="42.3813670" lon="-8.6295180">
        <ele>70.2</ele>
        <time>2021-05-21T10:27:32Z</time>
      </trkpt>
      <trkpt lat="42.3813870" lon="-8.6295060">
        <ele>70.1</ele>
        <time>2021-05-21T10:27:33Z</time>
      </trkpt>
      <trkpt lat="42.3813980" lon="-8.6295030">
        <ele>70.0</ele>
        <time>2021-05-21T10:27:34Z</time>
      </trkpt>
      <trkpt lat="42.3814060" lon="-8.6295010">
        <ele>70.0</ele>
        <time>2021-05-21T10:27:35Z</time>
      </trkpt>
      <trkpt lat="42.3814180" lon="-8.6295010">
        <ele>69.9</ele>
        <time>2021-05-21T10:27:36Z</time>
      </trkpt>
      <trkpt lat="42.3814290" lon="-8.6295040">
        <ele>69.8</ele>
        <time>2021-05-21T10:27:37Z</time>
      </trkpt>
      <trkpt lat="42.3814380" lon="-8.6295030">
        <ele>69.8</ele>
        <time>2021-05-21T10:27:38Z</time>
      </trkpt>
      <trkpt lat="42.3814490" lon="-8.6295020">
        <ele>69.7</ele>
        <time>2021-05-21T10:27:39Z</time>
      </trkpt>
      <trkpt lat="42.3814640" lon="-8.6294980">
        <ele>69.6</ele>
        <time>2021-05-21T10:27:40Z</time>
      </trkpt>
      <trkpt lat="42.3814720" lon="-8.6295000">
        <ele>69.6</ele>
        <time>2021-05-21T10:27:41Z</time>
      </trkpt>
      <trkpt lat="42.3814850" lon="-8.6294990">
        <ele>69.5</ele>
        <time>2021-05-21T10:27:42Z</time>
      </trkpt>
      <trkpt lat="42.3814940" lon="-8.6295010">
        <ele>69.4</ele>
        <time>2021-05-21T10:27:43Z</time>
      </trkpt>
      <trkpt lat="42.3815040" lon="-8.6295070">
        <ele>69.4</ele>
        <time>2021-05-21T10:27:44Z</time>
      </trkpt>
      <trkpt lat="42.3815100" lon="-8.6295070">
        <ele>69.3</ele>
        <time>2021-05-21T10:27:45Z</time>
      </trkpt>
      <trkpt lat="42.3815230" lon="-8.6295030">
        <ele>69.3</ele>
        <time>2021-05-21T10:27:46Z</time>
      </trkpt>
      <trkpt lat="42.3815290" lon="-8.6295040">
        <ele>69.2</ele>
        <time>2021-05-21T10:27:47Z</time>
      </trkpt>
      <trkpt lat="42.3815300" lon="-8.6295080">
        <ele>69.2</ele>
        <time>2021-05-21T10:27:48Z</time>
      </trkpt>
      <trkpt lat="42.3815410" lon="-8.6295120">
        <ele>69.2</ele>
        <time>2021-05-21T10:27:49Z</time>
      </trkpt>
      <trkpt lat="42.3815510" lon="-8.6295150">
        <ele>69.1</ele>
        <time>2021-05-21T10:27:50Z</time>
      </trkpt>
      <trkpt lat="42.3815620" lon="-8.6295210">
        <ele>69.0</ele>
        <time>2021-05-21T10:27:51Z</time>
      </trkpt>
      <trkpt lat="42.3815710" lon="-8.6295260">
        <ele>69.0</ele>
        <time>2021-05-21T10:27:52Z</time>
      </trkpt>
      <trkpt lat="42.3815860" lon="-8.6295210">
        <ele>68.9</ele>
        <time>2021-05-21T10:27:53Z</time>
      </trkpt>
      <trkpt lat="42.3816140" lon="-8.6295200">
        <ele>68.7</ele>
        <time>2021-05-21T10:27:54Z</time>
      </trkpt>
      <trkpt lat="42.3816240" lon="-8.6295240">
        <ele>68.7</ele>
        <time>2021-05-21T10:27:55Z</time>
      </trkpt>
      <trkpt lat="42.3816300" lon="-8.6295210">
        <ele>68.6</ele>
        <time>2021-05-21T10:27:56Z</time>
      </trkpt>
      <trkpt lat="42.3816460" lon="-8.6295180">
        <ele>68.6</ele>
        <time>2021-05-21T10:27:57Z</time>
      </trkpt>
      <trkpt lat="42.3816560" lon="-8.6295200">
        <ele>68.5</ele>
        <time>2021-05-21T10:27:58Z</time>
      </trkpt>
      <trkpt lat="42.3816560" lon="-8.6295270">
        <ele>68.5</ele>
        <time>2021-05-21T10:27:59Z</time>
      </trkpt>
      <trkpt lat="42.3816550" lon="-8.6295260">
        <ele>68.5</ele>
        <time>2021-05-21T10:28:00Z</time>
      </trkpt>
      <trkpt lat="42.3816640" lon="-8.6295250">
        <ele>68.4</ele>
        <time>2021-05-21T10:28:01Z</time>
      </trkpt>
      <trkpt lat="42.3816670" lon="-8.6295330">
        <ele>68.4</ele>
        <time>2021-05-21T10:28:02Z</time>
      </trkpt>
      <trkpt lat="42.3816830" lon="-8.6295350">
        <ele>68.3</ele>
        <time>2021-05-21T10:28:03Z</time>
      </trkpt>
      <trkpt lat="42.3816990" lon="-8.6295320">
        <ele>68.2</ele>
        <time>2021-05-21T10:28:04Z</time>
      </trkpt>
      <trkpt lat="42.3817140" lon="-8.6295370">
        <ele>68.1</ele>
        <time>2021-05-21T10:28:05Z</time>
      </trkpt>
      <trkpt lat="42.3817300" lon="-8.6295390">
        <ele>68.0</ele>
        <time>2021-05-21T10:28:06Z</time>
      </trkpt>
      <trkpt lat="42.3817390" lon="-8.6295450">
        <ele>67.9</ele>
        <time>2021-05-21T10:28:07Z</time>
      </trkpt>
      <trkpt lat="42.3817450" lon="-8.6295460">
        <ele>67.9</ele>
        <time>2021-05-21T10:28:08Z</time>
      </trkpt>
      <trkpt lat="42.3817600" lon="-8.6295480">
        <ele>67.8</ele>
        <time>2021-05-21T10:28:09Z</time>
      </trkpt>
      <trkpt lat="42.3817730" lon="-8.6295420">
        <ele>67.7</ele>
        <time>2021-05-21T10:28:10Z</time>
      </trkpt>
      <trkpt lat="42.3818040" lon="-8.6295530">
        <ele>67.5</ele>
        <time>2021-05-21T10:28:11Z</time>
      </trkpt>
      <trkpt lat="42.3818110" lon="-8.6295540">
        <ele>67.5</ele>
        <time>2021-05-21T10:28:12Z</time>
      </trkpt>
      <trkpt lat="42.3818320" lon="-8.6295660">
        <ele>67.3</ele>
        <time>2021-05-21T10:28:13Z</time>
      </trkpt>
      <trkpt lat="42.3818430" lon="-8.6295720">
        <ele>67.3</ele>
        <time>2021-05-21T10:28:14Z</time>
      </trkpt>
      <trkpt lat="42.3818530" lon="-8.6295780">
        <ele>67.2</ele>
        <time>2021-05-21T10:28:15Z</time>
      </trkpt>
      <trkpt lat="42.3818670" lon="-8.6295760">
        <ele>67.1</ele>
        <time>2021-05-21T10:28:16Z</time>
      </trkpt>
      <trkpt lat="42.3818830" lon="-8.6295760">
        <ele>67.0</ele>
        <time>2021-05-21T10:28:17Z</time>
      </trkpt>
      <trkpt lat="42.3818940" lon="-8.6295790">
        <ele>66.9</ele>
        <time>2021-05-21T10:28:18Z</time>
      </trkpt>
      <trkpt lat="42.3819160" lon="-8.6295820">
        <ele>66.8</ele>
        <time>2021-05-21T10:28:19Z</time>
      </trkpt>
      <trkpt lat="42.3819370" lon="-8.6295890">
        <ele>66.7</ele>
        <time>2021-05-21T10:28:20Z</time>
      </trkpt>
      <trkpt lat="42.3819480" lon="-8.6295890">
        <ele>66.6</ele>
        <time>2021-05-21T10:28:21Z</time>
      </trkpt>
      <trkpt lat="42.3819580" lon="-8.6295920">
        <ele>66.5</ele>
        <time>2021-05-21T10:28:22Z</time>
      </trkpt>
      <trkpt lat="42.3819650" lon="-8.6295930">
        <ele>66.5</ele>
        <time>2021-05-21T10:28:23Z</time>
      </trkpt>
      <trkpt lat="42.3819740" lon="-8.6296010">
        <ele>66.4</ele>
        <time>2021-05-21T10:28:24Z</time>
      </trkpt>
      <trkpt lat="42.3819820" lon="-8.6296060">
        <ele>66.4</ele>
        <time>2021-05-21T10:28:25Z</time>
      </trkpt>
      <trkpt lat="42.3819840" lon="-8.6296120">
        <ele>66.3</ele>
        <time>2021-05-21T10:28:26Z</time>
      </trkpt>
      <trkpt lat="42.3819930" lon="-8.6296110">
        <ele>66.3</ele>
        <time>2021-05-21T10:28:27Z</time>
      </trkpt>
      <trkpt lat="42.3820020" lon="-8.6296160">
        <ele>66.2</ele>
        <time>2021-05-21T10:28:28Z</time>
      </trkpt>
      <trkpt lat="42.3820340" lon="-8.6296200">
        <ele>66.0</ele>
        <time>2021-05-21T10:28:29Z</time>
      </trkpt>
      <trkpt lat="42.3820440" lon="-8.6296240">
        <ele>65.9</ele>
        <time>2021-05-21T10:28:30Z</time>
      </trkpt>
      <trkpt lat="42.3820590" lon="-8.6296220">
        <ele>65.8</ele>
        <time>2021-05-21T10:28:31Z</time>
      </trkpt>
      <trkpt lat="42.3820770" lon="-8.6296150">
        <ele>65.7</ele>
        <time>2021-05-21T10:28:32Z</time>
      </trkpt>
      <trkpt lat="42.3820920" lon="-8.6296130">
        <ele>65.6</ele>
        <time>2021-05-21T10:28:33Z</time>
      </trkpt>
      <trkpt lat="42.3821070" lon="-8.6296160">
        <ele>65.5</ele>
        <time>2021-05-21T10:28:34Z</time>
      </trkpt>
      <trkpt lat="42.3821270" lon="-8.6296130">
        <ele>65.4</ele>
        <time>2021-05-21T10:28:35Z</time>
      </trkpt>
      <trkpt lat="42.3821400" lon="-8.6296040">
        <ele>65.3</ele>
        <time>2021-05-21T10:28:36Z</time>
      </trkpt>
      <trkpt lat="42.3821530" lon="-8.6295960">
        <ele>65.2</ele>
        <time>2021-05-21T10:28:37Z</time>
      </trkpt>
      <trkpt lat="42.3821710" lon="-8.6296060">
        <ele>65.1</ele>
        <time>2021-05-21T10:28:38Z</time>
      </trkpt>
      <trkpt lat="42.3821820" lon="-8.6296080">
        <ele>65.0</ele>
        <time>2021-05-21T10:28:39Z</time>
      </trkpt>
      <trkpt lat="42.3821920" lon="-8.6296110">
        <ele>65.0</ele>
        <time>2021-05-21T10:28:40Z</time>
      </trkpt>
      <trkpt lat="42.3822020" lon="-8.6296060">
        <ele>64.9</ele>
        <time>2021-05-21T10:28:41Z</time>
      </trkpt>
      <trkpt lat="42.3822110" lon="-8.6296080">
        <ele>64.8</ele>
        <time>2021-05-21T10:28:42Z</time>
      </trkpt>
      <trkpt lat="42.3822270" lon="-8.6296110">
        <ele>64.7</ele>
        <time>2021-05-21T10:28:43Z</time>
      </trkpt>
      <trkpt lat="42.3822430" lon="-8.6296200">
        <ele>64.6</ele>
        <time>2021-05-21T10:28:44Z</time>
      </trkpt>
      <trkpt lat="42.3822500" lon="-8.6296230">
        <ele>64.6</ele>
        <time>2021-05-21T10:28:45Z</time>
      </trkpt>
      <trkpt lat="42.3822570" lon="-8.6296270">
        <ele>64.5</ele>
        <time>2021-05-21T10:28:46Z</time>
      </trkpt>
      <trkpt lat="42.3822640" lon="-8.6296310">
        <ele>64.5</ele>
        <time>2021-05-21T10:28:47Z</time>
      </trkpt>
      <trkpt lat="42.3822920" lon="-8.6296320">
        <ele>64.3</ele>
        <time>2021-05-21T10:28:48Z</time>
      </trkpt>
      <trkpt lat="42.3823010" lon="-8.6296350">
        <ele>64.3</ele>
        <time>2021-05-21T10:28:49Z</time>
      </trkpt>
      <trkpt lat="42.3823140" lon="-8.6296320">
        <ele>64.2</ele>
        <time>2021-05-21T10:28:50Z</time>
      </trkpt>
      <trkpt lat="42.3823290" lon="-8.6296250">
        <ele>64.1</ele>
        <time>2021-05-21T10:28:51Z</time>
      </trkpt>
      <trkpt lat="42.3823390" lon="-8.6296250">
        <ele>64.0</ele>
        <time>2021-05-21T10:28:52Z</time>
      </trkpt>
      <trkpt lat="42.3823430" lon="-8.6296200">
        <ele>64.0</ele>
        <time>2021-05-21T10:28:53Z</time>
      </trkpt>
      <trkpt lat="42.3823530" lon="-8.6296160">
        <ele>63.9</ele>
        <time>2021-05-21T10:28:54Z</time>
      </trkpt>
      <trkpt lat="42.3823620" lon="-8.6296190">
        <ele>63.9</ele>
        <time>2021-05-21T10:28:55Z</time>
      </trkpt>
      <trkpt lat="42.3823790" lon="-8.6296140">
        <ele>63.8</ele>
        <time>2021-05-21T10:28:56Z</time>
      </trkpt>
      <trkpt lat="42.3823850" lon="-8.6296170">
        <ele>63.8</ele>
        <time>2021-05-21T10:28:57Z</time>
      </trkpt>
      <trkpt lat="42.3823970" lon="-8.6296230">
        <ele>63.7</ele>
        <time>2021-05-21T10:28:58Z</time>
      </trkpt>
      <trkpt lat="42.3824150" lon="-8.6296290">
        <ele>63.6</ele>
        <time>2021-05-21T10:28:59Z</time>
      </trkpt>
      <trkpt lat="42.3824300" lon="-8.6296290">
        <ele>63.5</ele>
        <time>2021-05-21T10:29:00Z</time>
      </trkpt>
      <trkpt lat="42.3824490" lon="-8.6296350">
        <ele>63.4</ele>
        <time>2021-05-21T10:29:01Z</time>
      </trkpt>
      <trkpt lat="42.3824600" lon="-8.6296340">
        <ele>63.3</ele>
        <time>2021-05-21T10:29:02Z</time>
      </trkpt>
      <trkpt lat="42.3824710" lon="-8.6296340">
        <ele>63.3</ele>
        <time>2021-05-21T10:29:03Z</time>
      </trkpt>
      <trkpt lat="42.3824790" lon="-8.6296360">
        <ele>63.2</ele>
        <time>2021-05-21T10:29:04Z</time>
      </trkpt>
      <trkpt lat="42.3824830" lon="-8.6296440">
        <ele>63.2</ele>
        <time>2021-05-21T10:29:05Z</time>
      </trkpt>
      <trkpt lat="42.3825010" lon="-8.6296450">
        <ele>63.1</ele>
        <time>2021-05-21T10:29:06Z</time>
      </trkpt>
      <trkpt lat="42.3825040" lon="-8.6296570">
        <ele>63.1</ele>
        <time>2021-05-21T10:29:07Z</time>
      </trkpt>
      <trkpt lat="42.3825250" lon="-8.6296570">
        <ele>63.0</ele>
        <time>2021-05-21T10:29:08Z</time>
      </trkpt>
      <trkpt lat="42.3825350" lon="-8.6296580">
        <ele>62.9</ele>
        <time>2021-05-21T10:29:09Z</time>
      </trkpt>
      <trkpt lat="42.3825630" lon="-8.6296520">
        <ele>62.8</ele>
        <time>2021-05-21T10:29:10Z</time>
      </trkpt>
      <trkpt lat="42.3825740" lon="-8.6296510">
        <ele>62.7</ele>
        <time>2021-05-21T10:29:11Z</time>
      </trkpt>
      <trkpt lat="42.3825830" lon="-8.6296510">
        <ele>62.7</ele>
        <time>2021-05-21T10:29:12Z</time>
      </trkpt>
      <trkpt lat="42.3825850" lon="-8.6296560">
        <ele>62.7</ele>
        <time>2021-05-21T10:29:13Z</time>
      </trkpt>
      <trkpt lat="42.3826090" lon="-8.6296420">
        <ele>62.6</ele>
        <time>2021-05-21T10:29:14Z</time>
      </trkpt>
      <trkpt lat="42.3826240" lon="-8.6296450">
        <ele>62.5</ele>
        <time>2021-05-21T10:29:15Z</time>
      </trkpt>
      <trkpt lat="42.3826440" lon="-8.6296490">
        <ele>62.4</ele>
        <time>2021-05-21T10:29:16Z</time>
      </trkpt>
      <trkpt lat="42.3826550" lon="-8.6296520">
        <ele>62.3</ele>
        <time>2021-05-21T10:29:17Z</time>
      </trkpt>
      <trkpt lat="42.3826610" lon="-8.6296540">
        <ele>62.3</ele>
        <time>2021-05-21T10:29:18Z</time>
      </trkpt>
      <trkpt lat="42.3826730" lon="-8.6296560">
        <ele>62.3</ele>
        <time>2021-05-21T10:29:19Z</time>
      </trkpt>
      <trkpt lat="42.3826830" lon="-8.6296540">
        <ele>62.2</ele>
        <time>2021-05-21T10:29:20Z</time>
      </trkpt>
      <trkpt lat="42.3826980" lon="-8.6296540">
        <ele>62.2</ele>
        <time>2021-05-21T10:29:21Z</time>
      </trkpt>
      <trkpt lat="42.3827040" lon="-8.6296480">
        <ele>62.1</ele>
        <time>2021-05-21T10:29:22Z</time>
      </trkpt>
      <trkpt lat="42.3827150" lon="-8.6296490">
        <ele>62.1</ele>
        <time>2021-05-21T10:29:23Z</time>
      </trkpt>
      <trkpt lat="42.3827290" lon="-8.6296500">
        <ele>62.0</ele>
        <time>2021-05-21T10:29:24Z</time>
      </trkpt>
      <trkpt lat="42.3827390" lon="-8.6296570">
        <ele>62.0</ele>
        <time>2021-05-21T10:29:25Z</time>
      </trkpt>
      <trkpt lat="42.3827570" lon="-8.6296540">
        <ele>61.9</ele>
        <time>2021-05-21T10:29:26Z</time>
      </trkpt>
      <trkpt lat="42.3827670" lon="-8.6296680">
        <ele>61.8</ele>
        <time>2021-05-21T10:29:27Z</time>
      </trkpt>
      <trkpt lat="42.3827800" lon="-8.6296780">
        <ele>61.8</ele>
        <time>2021-05-21T10:29:28Z</time>
      </trkpt>
      <trkpt lat="42.3827850" lon="-8.6296840">
        <ele>61.7</ele>
        <time>2021-05-21T10:29:29Z</time>
      </trkpt>
      <trkpt lat="42.3827910" lon="-8.6296840">
        <ele>61.7</ele>
        <time>2021-05-21T10:29:30Z</time>
      </trkpt>
      <trkpt lat="42.3828050" lon="-8.6296930">
        <ele>61.6</ele>
        <time>2021-05-21T10:29:31Z</time>
      </trkpt>
      <trkpt lat="42.3828170" lon="-8.6296990">
        <ele>61.6</ele>
        <time>2021-05-21T10:29:32Z</time>
      </trkpt>
      <trkpt lat="42.3828290" lon="-8.6297040">
        <ele>61.5</ele>
        <time>2021-05-21T10:29:33Z</time>
      </trkpt>
      <trkpt lat="42.3828460" lon="-8.6297070">
        <ele>61.5</ele>
        <time>2021-05-21T10:29:34Z</time>
      </trkpt>
      <trkpt lat="42.3828520" lon="-8.6297180">
        <ele>61.4</ele>
        <time>2021-05-21T10:29:35Z</time>
      </trkpt>
      <trkpt lat="42.3828570" lon="-8.6297220">
        <ele>61.4</ele>
        <time>2021-05-21T10:29:36Z</time>
      </trkpt>
      <trkpt lat="42.3828760" lon="-8.6297250">
        <ele>61.3</ele>
        <time>2021-05-21T10:29:37Z</time>
      </trkpt>
      <trkpt lat="42.3828960" lon="-8.6297380">
        <ele>61.2</ele>
        <time>2021-05-21T10:29:38Z</time>
      </trkpt>
      <trkpt lat="42.3829060" lon="-8.6297430">
        <ele>61.2</ele>
        <time>2021-05-21T10:29:39Z</time>
      </trkpt>
      <trkpt lat="42.3829150" lon="-8.6297480">
        <ele>61.1</ele>
        <time>2021-05-21T10:29:40Z</time>
      </trkpt>
      <trkpt lat="42.3829220" lon="-8.6297470">
        <ele>61.1</ele>
        <time>2021-05-21T10:29:41Z</time>
      </trkpt>
      <trkpt lat="42.3829370" lon="-8.6297500">
        <ele>61.0</ele>
        <time>2021-05-21T10:29:42Z</time>
      </trkpt>
      <trkpt lat="42.3829490" lon="-8.6297500">
        <ele>61.0</ele>
        <time>2021-05-21T10:29:43Z</time>
      </trkpt>
      <trkpt lat="42.3829580" lon="-8.6297450">
        <ele>61.0</ele>
        <time>2021-05-21T10:29:44Z</time>
      </trkpt>
      <trkpt lat="42.3829760" lon="-8.6297520">
        <ele>60.9</ele>
        <time>2021-05-21T10:29:45Z</time>
      </trkpt>
      <trkpt lat="42.3829920" lon="-8.6297520">
        <ele>60.8</ele>
        <time>2021-05-21T10:29:46Z</time>
      </trkpt>
      <trkpt lat="42.3830050" lon="-8.6297560">
        <ele>60.8</ele>
        <time>2021-05-21T10:29:47Z</time>
      </trkpt>
      <trkpt lat="42.3830120" lon="-8.6297650">
        <ele>60.7</ele>
        <time>2021-05-21T10:29:48Z</time>
      </trkpt>
      <trkpt lat="42.3830350" lon="-8.6297650">
        <ele>60.6</ele>
        <time>2021-05-21T10:29:49Z</time>
      </trkpt>
      <trkpt lat="42.3830630" lon="-8.6297730">
        <ele>60.5</ele>
        <time>2021-05-21T10:29:50Z</time>
      </trkpt>
      <trkpt lat="42.3830950" lon="-8.6297780">
        <ele>60.4</ele>
        <time>2021-05-21T10:29:51Z</time>
      </trkpt>
      <trkpt lat="42.3831050" lon="-8.6297780">
        <ele>60.3</ele>
        <time>2021-05-21T10:29:52Z</time>
      </trkpt>
      <trkpt lat="42.3831320" lon="-8.6297750">
        <ele>60.2</ele>
        <time>2021-05-21T10:29:53Z</time>
      </trkpt>
      <trkpt lat="42.3831420" lon="-8.6297750">
        <ele>60.1</ele>
        <time>2021-05-21T10:29:54Z</time>
      </trkpt>
      <trkpt lat="42.3831680" lon="-8.6297840">
        <ele>60.0</ele>
        <time>2021-05-21T10:29:55Z</time>
      </trkpt>
      <trkpt lat="42.3831770" lon="-8.6297910">
        <ele>60.0</ele>
        <time>2021-05-21T10:29:56Z</time>
      </trkpt>
      <trkpt lat="42.3831930" lon="-8.6297970">
        <ele>59.9</ele>
        <time>2021-05-21T10:29:57Z</time>
      </trkpt>
      <trkpt lat="42.3832060" lon="-8.6297980">
        <ele>59.8</ele>
        <time>2021-05-21T10:29:58Z</time>
      </trkpt>
      <trkpt lat="42.3832100" lon="-8.6298050">
        <ele>59.8</ele>
        <time>2021-05-21T10:29:59Z</time>
      </trkpt>
      <trkpt lat="42.3832150" lon="-8.6298170">
        <ele>59.8</ele>
        <time>2021-05-21T10:30:00Z</time>
      </trkpt>
      <trkpt lat="42.3832240" lon="-8.6298220">
        <ele>59.7</ele>
        <time>2021-05-21T10:30:01Z</time>
      </trkpt>
      <trkpt lat="42.3832260" lon="-8.6298300">
        <ele>59.7</ele>
        <time>2021-05-21T10:30:02Z</time>
      </trkpt>
      <trkpt lat="42.3832360" lon="-8.6298500">
        <ele>59.6</ele>
        <time>2021-05-21T10:30:03Z</time>
      </trkpt>
      <trkpt lat="42.3832450" lon="-8.6298570">
        <ele>59.5</ele>
        <time>2021-05-21T10:30:04Z</time>
      </trkpt>
      <trkpt lat="42.3832530" lon="-8.6298630">
        <ele>59.5</ele>
        <time>2021-05-21T10:30:05Z</time>
      </trkpt>
      <trkpt lat="42.3832670" lon="-8.6298600">
        <ele>59.4</ele>
        <time>2021-05-21T10:30:06Z</time>
      </trkpt>
      <trkpt lat="42.3832760" lon="-8.6298660">
        <ele>59.4</ele>
        <time>2021-05-21T10:30:07Z</time>
      </trkpt>
      <trkpt lat="42.3832830" lon="-8.6298740">
        <ele>59.3</ele>
        <time>2021-05-21T10:30:08Z</time>
      </trkpt>
      <trkpt lat="42.3833020" lon="-8.6298770">
        <ele>59.2</ele>
        <time>2021-05-21T10:30:09Z</time>
      </trkpt>
      <trkpt lat="42.3833110" lon="-8.6298800">
        <ele>59.2</ele>
        <time>2021-05-21T10:30:10Z</time>
      </trkpt>
      <trkpt lat="42.3833200" lon="-8.6298830">
        <ele>59.2</ele>
        <time>2021-05-21T10:30:11Z</time>
      </trkpt>
      <trkpt lat="42.3833270" lon="-8.6298850">
        <ele>59.1</ele>
        <time>2021-05-21T10:30:12Z</time>
      </trkpt>
      <trkpt lat="42.3833430" lon="-8.6298880">
        <ele>59.0</ele>
        <time>2021-05-21T10:30:13Z</time>
      </trkpt>
      <trkpt lat="42.3833560" lon="-8.6298880">
        <ele>59.0</ele>
        <time>2021-05-21T10:30:14Z</time>
      </trkpt>
      <trkpt lat="42.3833710" lon="-8.6298910">
        <ele>58.9</ele>
        <time>2021-05-21T10:30:15Z</time>
      </trkpt>
      <trkpt lat="42.3833960" lon="-8.6299040">
        <ele>58.7</ele>
        <time>2021-05-21T10:30:16Z</time>
      </trkpt>
      <trkpt lat="42.3834040" lon="-8.6299100">
        <ele>58.7</ele>
        <time>2021-05-21T10:30:17Z</time>
      </trkpt>
      <trkpt lat="42.3834130" lon="-8.6299150">
        <ele>58.6</ele>
        <time>2021-05-21T10:30:18Z</time>
      </trkpt>
      <trkpt lat="42.3834260" lon="-8.6299270">
        <ele>58.5</ele>
        <time>2021-05-21T10:30:19Z</time>
      </trkpt>
      <trkpt lat="42.3834360" lon="-8.6299330">
        <ele>58.4</ele>
        <time>2021-05-21T10:30:20Z</time>
      </trkpt>
      <trkpt lat="42.3834450" lon="-8.6299400">
        <ele>58.4</ele>
        <time>2021-05-21T10:30:21Z</time>
      </trkpt>
      <trkpt lat="42.3834610" lon="-8.6299570">
        <ele>58.2</ele>
        <time>2021-05-21T10:30:22Z</time>
      </trkpt>
      <trkpt lat="42.3834690" lon="-8.6299630">
        <ele>58.1</ele>
        <time>2021-05-21T10:30:23Z</time>
      </trkpt>
      <trkpt lat="42.3834770" lon="-8.6299690">
        <ele>58.1</ele>
        <time>2021-05-21T10:30:24Z</time>
      </trkpt>
      <trkpt lat="42.3834860" lon="-8.6299730">
        <ele>58.0</ele>
        <time>2021-05-21T10:30:25Z</time>
      </trkpt>
      <trkpt lat="42.3834950" lon="-8.6299830">
        <ele>57.9</ele>
        <time>2021-05-21T10:30:26Z</time>
      </trkpt>
      <trkpt lat="42.3835010" lon="-8.6299820">
        <ele>57.8</ele>
        <time>2021-05-21T10:30:27Z</time>
      </trkpt>
      <trkpt lat="42.3835090" lon="-8.6299800">
        <ele>57.8</ele>
        <time>2021-05-21T10:30:28Z</time>
      </trkpt>
      <trkpt lat="42.3835310" lon="-8.6299910">
        <ele>57.6</ele>
        <time>2021-05-21T10:30:29Z</time>
      </trkpt>
      <trkpt lat="42.3835370" lon="-8.6299950">
        <ele>57.5</ele>
        <time>2021-05-21T10:30:30Z</time>
      </trkpt>
      <trkpt lat="42.3835440" lon="-8.6300000">
        <ele>57.4</ele>
        <time>2021-05-21T10:30:31Z</time>
      </trkpt>
      <trkpt lat="42.3835590" lon="-8.6300130">
        <ele>57.2</ele>
        <time>2021-05-21T10:30:32Z</time>
      </trkpt>
      <trkpt lat="42.3835650" lon="-8.6300160">
        <ele>57.1</ele>
        <time>2021-05-21T10:30:33Z</time>
      </trkpt>
      <trkpt lat="42.3835720" lon="-8.6300200">
        <ele>57.1</ele>
        <time>2021-05-21T10:30:34Z</time>
      </trkpt>
      <trkpt lat="42.3835780" lon="-8.6300230">
        <ele>57.0</ele>
        <time>2021-05-21T10:30:35Z</time>
      </trkpt>
      <trkpt lat="42.3836100" lon="-8.6300410">
        <ele>56.6</ele>
        <time>2021-05-21T10:30:36Z</time>
      </trkpt>
      <trkpt lat="42.3836210" lon="-8.6300450">
        <ele>56.4</ele>
        <time>2021-05-21T10:30:37Z</time>
      </trkpt>
      <trkpt lat="42.3836350" lon="-8.6300550">
        <ele>56.2</ele>
        <time>2021-05-21T10:30:38Z</time>
      </trkpt>
      <trkpt lat="42.3836360" lon="-8.6300620">
        <ele>56.1</ele>
        <time>2021-05-21T10:30:39Z</time>
      </trkpt>
      <trkpt lat="42.3836370" lon="-8.6300740">
        <ele>56.0</ele>
        <time>2021-05-21T10:30:40Z</time>
      </trkpt>
      <trkpt lat="42.3836420" lon="-8.6300760">
        <ele>55.9</ele>
        <time>2021-05-21T10:30:41Z</time>
      </trkpt>
      <trkpt lat="42.3836530" lon="-8.6300820">
        <ele>55.7</ele>
        <time>2021-05-21T10:30:42Z</time>
      </trkpt>
      <trkpt lat="42.3836630" lon="-8.6300840">
        <ele>55.6</ele>
        <time>2021-05-21T10:30:43Z</time>
      </trkpt>
      <trkpt lat="42.3836770" lon="-8.6300810">
        <ele>55.4</ele>
        <time>2021-05-21T10:30:44Z</time>
      </trkpt>
      <trkpt lat="42.3836890" lon="-8.6300770">
        <ele>55.1</ele>
        <time>2021-05-21T10:30:45Z</time>
      </trkpt>
      <trkpt lat="42.3836950" lon="-8.6300730">
        <ele>55.0</ele>
        <time>2021-05-21T10:30:46Z</time>
      </trkpt>
      <trkpt lat="42.3837000" lon="-8.6300680">
        <ele>54.9</ele>
        <time>2021-05-21T10:30:47Z</time>
      </trkpt>
      <trkpt lat="42.3837060" lon="-8.6300640">
        <ele>54.8</ele>
        <time>2021-05-21T10:30:48Z</time>
      </trkpt>
      <trkpt lat="42.3837120" lon="-8.6300600">
        <ele>54.7</ele>
        <time>2021-05-21T10:30:49Z</time>
      </trkpt>
      <trkpt lat="42.3837250" lon="-8.6300490">
        <ele>54.4</ele>
        <time>2021-05-21T10:30:50Z</time>
      </trkpt>
      <trkpt lat="42.3837280" lon="-8.6300430">
        <ele>54.3</ele>
        <time>2021-05-21T10:30:51Z</time>
      </trkpt>
      <trkpt lat="42.3837310" lon="-8.6300380">
        <ele>54.2</ele>
        <time>2021-05-21T10:30:52Z</time>
      </trkpt>
      <trkpt lat="42.3837340" lon="-8.6300330">
        <ele>54.1</ele>
        <time>2021-05-21T10:30:53Z</time>
      </trkpt>
      <trkpt lat="42.3837370" lon="-8.6300270">
        <ele>54.0</ele>
        <time>2021-05-21T10:30:54Z</time>
      </trkpt>
      <trkpt lat="42.3837400" lon="-8.6300220">
        <ele>54.0</ele>
        <time>2021-05-21T10:30:55Z</time>
      </trkpt>
      <trkpt lat="42.3837440" lon="-8.6300240">
        <ele>53.9</ele>
        <time>2021-05-21T10:30:56Z</time>
      </trkpt>
      <trkpt lat="42.3837660" lon="-8.6300200">
        <ele>53.5</ele>
        <time>2021-05-21T10:30:57Z</time>
      </trkpt>
      <trkpt lat="42.3837730" lon="-8.6300160">
        <ele>53.3</ele>
        <time>2021-05-21T10:30:58Z</time>
      </trkpt>
      <trkpt lat="42.3837970" lon="-8.6300040">
        <ele>52.8</ele>
        <time>2021-05-21T10:30:59Z</time>
      </trkpt>
      <trkpt lat="42.3838000" lon="-8.6300070">
        <ele>52.8</ele>
        <time>2021-05-21T10:31:00Z</time>
      </trkpt>
      <trkpt lat="42.3838120" lon="-8.6300010">
        <ele>52.5</ele>
        <time>2021-05-21T10:31:01Z</time>
      </trkpt>
      <trkpt lat="42.3838250" lon="-8.6299970">
        <ele>52.3</ele>
        <time>2021-05-21T10:31:02Z</time>
      </trkpt>
      <trkpt lat="42.3838260" lon="-8.6299980">
        <ele>52.2</ele>
        <time>2021-05-21T10:31:03Z</time>
      </trkpt>
      <trkpt lat="42.3838390" lon="-8.6299930">
        <ele>52.0</ele>
        <time>2021-05-21T10:31:04Z</time>
      </trkpt>
      <trkpt lat="42.3838380" lon="-8.6299920">
        <ele>52.0</ele>
        <time>2021-05-21T10:31:05Z</time>
      </trkpt>
      <trkpt lat="42.3838450" lon="-8.6299790">
        <ele>51.7</ele>
        <time>2021-05-21T10:31:06Z</time>
      </trkpt>
      <trkpt lat="42.3838540" lon="-8.6299770">
        <ele>51.6</ele>
        <time>2021-05-21T10:31:07Z</time>
      </trkpt>
      <trkpt lat="42.3838730" lon="-8.6299660">
        <ele>51.2</ele>
        <time>2021-05-21T10:31:08Z</time>
      </trkpt>
      <trkpt lat="42.3838840" lon="-8.6299660">
        <ele>51.0</ele>
        <time>2021-05-21T10:31:09Z</time>
      </trkpt>
      <trkpt lat="42.3838940" lon="-8.6299650">
        <ele>50.8</ele>
        <time>2021-05-21T10:31:10Z</time>
      </trkpt>
      <trkpt lat="42.3839000" lon="-8.6299620">
        <ele>50.7</ele>
        <time>2021-05-21T10:31:11Z</time>
      </trkpt>
      <trkpt lat="42.3839000" lon="-8.6299730">
        <ele>50.5</ele>
        <time>2021-05-21T10:31:12Z</time>
      </trkpt>
      <trkpt lat="42.3839090" lon="-8.6299800">
        <ele>50.3</ele>
        <time>2021-05-21T10:31:13Z</time>
      </trkpt>
      <trkpt lat="42.3839270" lon="-8.6299750">
        <ele>50.0</ele>
        <time>2021-05-21T10:31:14Z</time>
      </trkpt>
      <trkpt lat="42.3839540" lon="-8.6299700">
        <ele>49.5</ele>
        <time>2021-05-21T10:31:15Z</time>
      </trkpt>
      <trkpt lat="42.3839750" lon="-8.6299800">
        <ele>49.2</ele>
        <time>2021-05-21T10:31:16Z</time>
      </trkpt>
      <trkpt lat="42.3839820" lon="-8.6299840">
        <ele>49.1</ele>
        <time>2021-05-21T10:31:17Z</time>
      </trkpt>
      <trkpt lat="42.3839890" lon="-8.6299880">
        <ele>49.0</ele>
        <time>2021-05-21T10:31:18Z</time>
      </trkpt>
      <trkpt lat="42.3839920" lon="-8.6300100">
        <ele>48.7</ele>
        <time>2021-05-21T10:31:19Z</time>
      </trkpt>
      <trkpt lat="42.3840050" lon="-8.6300180">
        <ele>48.5</ele>
        <time>2021-05-21T10:31:20Z</time>
      </trkpt>
      <trkpt lat="42.3840280" lon="-8.6300180">
        <ele>48.2</ele>
        <time>2021-05-21T10:31:21Z</time>
      </trkpt>
      <trkpt lat="42.3840420" lon="-8.6300240">
        <ele>48.0</ele>
        <time>2021-05-21T10:31:22Z</time>
      </trkpt>
      <trkpt lat="42.3840660" lon="-8.6300370">
        <ele>47.7</ele>
        <time>2021-05-21T10:31:23Z</time>
      </trkpt>
      <trkpt lat="42.3840790" lon="-8.6300400">
        <ele>47.5</ele>
        <time>2021-05-21T10:31:24Z</time>
      </trkpt>
      <trkpt lat="42.3840910" lon="-8.6300440">
        <ele>47.4</ele>
        <time>2021-05-21T10:31:25Z</time>
      </trkpt>
      <trkpt lat="42.3840910" lon="-8.6300570">
        <ele>47.3</ele>
        <time>2021-05-21T10:31:26Z</time>
      </trkpt>
      <trkpt lat="42.3841000" lon="-8.6300640">
        <ele>47.1</ele>
        <time>2021-05-21T10:31:27Z</time>
      </trkpt>
      <trkpt lat="42.3841120" lon="-8.6300790">
        <ele>47.0</ele>
        <time>2021-05-21T10:31:28Z</time>
      </trkpt>
      <trkpt lat="42.3841280" lon="-8.6300890">
        <ele>46.8</ele>
        <time>2021-05-21T10:31:29Z</time>
      </trkpt>
      <trkpt lat="42.3841360" lon="-8.6300980">
        <ele>46.7</ele>
        <time>2021-05-21T10:31:30Z</time>
      </trkpt>
      <trkpt lat="42.3841450" lon="-8.6301070">
        <ele>46.6</ele>
        <time>2021-05-21T10:31:31Z</time>
      </trkpt>
      <trkpt lat="42.3841520" lon="-8.6301140">
        <ele>46.5</ele>
        <time>2021-05-21T10:31:32Z</time>
      </trkpt>
      <trkpt lat="42.3841580" lon="-8.6301220">
        <ele>46.4</ele>
        <time>2021-05-21T10:31:33Z</time>
      </trkpt>
      <trkpt lat="42.3841640" lon="-8.6301300">
        <ele>46.3</ele>
        <time>2021-05-21T10:31:34Z</time>
      </trkpt>
      <trkpt lat="42.3841790" lon="-8.6301500">
        <ele>46.2</ele>
        <time>2021-05-21T10:31:35Z</time>
      </trkpt>
      <trkpt lat="42.3841880" lon="-8.6301590">
        <ele>46.1</ele>
        <time>2021-05-21T10:31:36Z</time>
      </trkpt>
      <trkpt lat="42.3841960" lon="-8.6301690">
        <ele>46.0</ele>
        <time>2021-05-21T10:31:37Z</time>
      </trkpt>
      <trkpt lat="42.3842060" lon="-8.6301880">
        <ele>45.9</ele>
        <time>2021-05-21T10:31:38Z</time>
      </trkpt>
      <trkpt lat="42.3842140" lon="-8.6301940">
        <ele>45.8</ele>
        <time>2021-05-21T10:31:39Z</time>
      </trkpt>
      <trkpt lat="42.3842210" lon="-8.6302010">
        <ele>45.7</ele>
        <time>2021-05-21T10:31:40Z</time>
      </trkpt>
      <trkpt lat="42.3842280" lon="-8.6302070">
        <ele>45.7</ele>
        <time>2021-05-21T10:31:41Z</time>
      </trkpt>
      <trkpt lat="42.3842410" lon="-8.6302140">
        <ele>45.6</ele>
        <time>2021-05-21T10:31:42Z</time>
      </trkpt>
      <trkpt lat="42.3842480" lon="-8.6302340">
        <ele>45.5</ele>
        <time>2021-05-21T10:31:43Z</time>
      </trkpt>
      <trkpt lat="42.3842590" lon="-8.6302530">
        <ele>45.4</ele>
        <time>2021-05-21T10:31:44Z</time>
      </trkpt>
      <trkpt lat="42.3842670" lon="-8.6302610">
        <ele>45.3</ele>
        <time>2021-05-21T10:31:45Z</time>
      </trkpt>
      <trkpt lat="42.3842750" lon="-8.6302680">
        <ele>45.3</ele>
        <time>2021-05-21T10:31:46Z</time>
      </trkpt>
      <trkpt lat="42.3842860" lon="-8.6302790">
        <ele>45.2</ele>
        <time>2021-05-21T10:31:47Z</time>
      </trkpt>
      <trkpt lat="42.3842950" lon="-8.6302910">
        <ele>45.1</ele>
        <time>2021-05-21T10:31:48Z</time>
      </trkpt>
      <trkpt lat="42.3842990" lon="-8.6302920">
        <ele>45.1</ele>
        <time>2021-05-21T10:31:49Z</time>
      </trkpt>
      <trkpt lat="42.3843100" lon="-8.6303020">
        <ele>45.0</ele>
        <time>2021-05-21T10:31:50Z</time>
      </trkpt>
      <trkpt lat="42.3843150" lon="-8.6303110">
        <ele>45.0</ele>
        <time>2021-05-21T10:31:51Z</time>
      </trkpt>
      <trkpt lat="42.3843230" lon="-8.6303260">
        <ele>44.9</ele>
        <time>2021-05-21T10:31:52Z</time>
      </trkpt>
      <trkpt lat="42.3843330" lon="-8.6303330">
        <ele>44.9</ele>
        <time>2021-05-21T10:31:53Z</time>
      </trkpt>
      <trkpt lat="42.3843470" lon="-8.6303560">
        <ele>44.8</ele>
        <time>2021-05-21T10:31:54Z</time>
      </trkpt>
      <trkpt lat="42.3843590" lon="-8.6303680">
        <ele>44.7</ele>
        <time>2021-05-21T10:31:55Z</time>
      </trkpt>
      <trkpt lat="42.3843680" lon="-8.6303870">
        <ele>44.6</ele>
        <time>2021-05-21T10:31:56Z</time>
      </trkpt>
      <trkpt lat="42.3843720" lon="-8.6303960">
        <ele>44.6</ele>
        <time>2021-05-21T10:31:57Z</time>
      </trkpt>
      <trkpt lat="42.3843760" lon="-8.6304040">
        <ele>44.6</ele>
        <time>2021-05-21T10:31:58Z</time>
      </trkpt>
      <trkpt lat="42.3843960" lon="-8.6304120">
        <ele>44.5</ele>
        <time>2021-05-21T10:31:59Z</time>
      </trkpt>
      <trkpt lat="42.3844230" lon="-8.6304350">
        <ele>44.4</ele>
        <time>2021-05-21T10:32:00Z</time>
      </trkpt>
      <trkpt lat="42.3844340" lon="-8.6304400">
        <ele>44.3</ele>
        <time>2021-05-21T10:32:01Z</time>
      </trkpt>
      <trkpt lat="42.3844510" lon="-8.6304570">
        <ele>44.3</ele>
        <time>2021-05-21T10:32:02Z</time>
      </trkpt>
      <trkpt lat="42.3844650" lon="-8.6304620">
        <ele>44.2</ele>
        <time>2021-05-21T10:32:03Z</time>
      </trkpt>
      <trkpt lat="42.3844800" lon="-8.6304660">
        <ele>44.2</ele>
        <time>2021-05-21T10:32:04Z</time>
      </trkpt>
      <trkpt lat="42.3844940" lon="-8.6304730">
        <ele>44.1</ele>
        <time>2021-05-21T10:32:05Z</time>
      </trkpt>
      <trkpt lat="42.3845060" lon="-8.6304860">
        <ele>44.1</ele>
        <time>2021-05-21T10:32:06Z</time>
      </trkpt>
      <trkpt lat="42.3845190" lon="-8.6304910">
        <ele>44.0</ele>
        <time>2021-05-21T10:32:07Z</time>
      </trkpt>
      <trkpt lat="42.3845300" lon="-8.6304970">
        <ele>44.0</ele>
        <time>2021-05-21T10:32:08Z</time>
      </trkpt>
      <trkpt lat="42.3845390" lon="-8.6304980">
        <ele>43.9</ele>
        <time>2021-05-21T10:32:09Z</time>
      </trkpt>
      <trkpt lat="42.3845370" lon="-8.6305160">
        <ele>43.9</ele>
        <time>2021-05-21T10:32:10Z</time>
      </trkpt>
      <trkpt lat="42.3845400" lon="-8.6305290">
        <ele>43.9</ele>
        <time>2021-05-21T10:32:11Z</time>
      </trkpt>
      <trkpt lat="42.3845500" lon="-8.6305410">
        <ele>43.8</ele>
        <time>2021-05-21T10:32:12Z</time>
      </trkpt>
      <trkpt lat="42.3845610" lon="-8.6305570">
        <ele>43.8</ele>
        <time>2021-05-21T10:32:13Z</time>
      </trkpt>
      <trkpt lat="42.3845720" lon="-8.6305620">
        <ele>43.7</ele>
        <time>2021-05-21T10:32:14Z</time>
      </trkpt>
      <trkpt lat="42.3845810" lon="-8.6305840">
        <ele>43.6</ele>
        <time>2021-05-21T10:32:15Z</time>
      </trkpt>
      <trkpt lat="42.3846000" lon="-8.6305980">
        <ele>43.5</ele>
        <time>2021-05-21T10:32:16Z</time>
      </trkpt>
      <trkpt lat="42.3846070" lon="-8.6306010">
        <ele>43.5</ele>
        <time>2021-05-21T10:32:17Z</time>
      </trkpt>
      <trkpt lat="42.3846140" lon="-8.6306040">
        <ele>43.5</ele>
        <time>2021-05-21T10:32:18Z</time>
      </trkpt>
      <trkpt lat="42.3846260" lon="-8.6306070">
        <ele>43.4</ele>
        <time>2021-05-21T10:32:19Z</time>
      </trkpt>
      <trkpt lat="42.3846430" lon="-8.6306120">
        <ele>43.3</ele>
        <time>2021-05-21T10:32:20Z</time>
      </trkpt>
      <trkpt lat="42.3846510" lon="-8.6306110">
        <ele>43.3</ele>
        <time>2021-05-21T10:32:21Z</time>
      </trkpt>
      <trkpt lat="42.3846650" lon="-8.6306080">
        <ele>43.2</ele>
        <time>2021-05-21T10:32:22Z</time>
      </trkpt>
      <trkpt lat="42.3846750" lon="-8.6306120">
        <ele>43.2</ele>
        <time>2021-05-21T10:32:23Z</time>
      </trkpt>
      <trkpt lat="42.3846820" lon="-8.6306180">
        <ele>43.1</ele>
        <time>2021-05-21T10:32:24Z</time>
      </trkpt>
      <trkpt lat="42.3847020" lon="-8.6306210">
        <ele>43.0</ele>
        <time>2021-05-21T10:32:25Z</time>
      </trkpt>
      <trkpt lat="42.3847270" lon="-8.6306180">
        <ele>42.9</ele>
        <time>2021-05-21T10:32:26Z</time>
      </trkpt>
      <trkpt lat="42.3847370" lon="-8.6306170">
        <ele>42.9</ele>
        <time>2021-05-21T10:32:27Z</time>
      </trkpt>
      <trkpt lat="42.3847470" lon="-8.6306170">
        <ele>42.8</ele>
        <time>2021-05-21T10:32:28Z</time>
      </trkpt>
      <trkpt lat="42.3847640" lon="-8.6306100">
        <ele>42.8</ele>
        <time>2021-05-21T10:32:29Z</time>
      </trkpt>
      <trkpt lat="42.3847810" lon="-8.6306030">
        <ele>42.7</ele>
        <time>2021-05-21T10:32:30Z</time>
      </trkpt>
      <trkpt lat="42.3847960" lon="-8.6306010">
        <ele>42.7</ele>
        <time>2021-05-21T10:32:31Z</time>
      </trkpt>
      <trkpt lat="42.3848120" lon="-8.6305990">
        <ele>42.6</ele>
        <time>2021-05-21T10:32:32Z</time>
      </trkpt>
      <trkpt lat="42.3848270" lon="-8.6306000">
        <ele>42.6</ele>
        <time>2021-05-21T10:32:33Z</time>
      </trkpt>
      <trkpt lat="42.3848410" lon="-8.6305930">
        <ele>42.6</ele>
        <time>2021-05-21T10:32:34Z</time>
      </trkpt>
      <trkpt lat="42.3848560" lon="-8.6305830">
        <ele>42.5</ele>
        <time>2021-05-21T10:32:35Z</time>
      </trkpt>
      <trkpt lat="42.3848690" lon="-8.6305790">
        <ele>42.5</ele>
        <time>2021-05-21T10:32:36Z</time>
      </trkpt>
      <trkpt lat="42.3848820" lon="-8.6305870">
        <ele>42.4</ele>
        <time>2021-05-21T10:32:37Z</time>
      </trkpt>
      <trkpt lat="42.3848980" lon="-8.6305790">
        <ele>42.4</ele>
        <time>2021-05-21T10:32:38Z</time>
      </trkpt>
      <trkpt lat="42.3849130" lon="-8.6305810">
        <ele>42.4</ele>
        <time>2021-05-21T10:32:39Z</time>
      </trkpt>
      <trkpt lat="42.3849260" lon="-8.6305680">
        <ele>42.4</ele>
        <time>2021-05-21T10:32:40Z</time>
      </trkpt>
      <trkpt lat="42.3849400" lon="-8.6305630">
        <ele>42.3</ele>
        <time>2021-05-21T10:32:41Z</time>
      </trkpt>
      <trkpt lat="42.3849540" lon="-8.6305550">
        <ele>42.3</ele>
        <time>2021-05-21T10:32:42Z</time>
      </trkpt>
      <trkpt lat="42.3849650" lon="-8.6305480">
        <ele>42.3</ele>
        <time>2021-05-21T10:32:43Z</time>
      </trkpt>
      <trkpt lat="42.3849810" lon="-8.6305490">
        <ele>42.3</ele>
        <time>2021-05-21T10:32:44Z</time>
      </trkpt>
      <trkpt lat="42.3850030" lon="-8.6305430">
        <ele>42.2</ele>
        <time>2021-05-21T10:32:45Z</time>
      </trkpt>
      <trkpt lat="42.3850100" lon="-8.6305370">
        <ele>42.2</ele>
        <time>2021-05-21T10:32:46Z</time>
      </trkpt>
      <trkpt lat="42.3850180" lon="-8.6305300">
        <ele>42.2</ele>
        <time>2021-05-21T10:32:47Z</time>
      </trkpt>
      <trkpt lat="42.3850340" lon="-8.6305280">
        <ele>42.2</ele>
        <time>2021-05-21T10:32:48Z</time>
      </trkpt>
      <trkpt lat="42.3850500" lon="-8.6305330">
        <ele>42.2</ele>
        <time>2021-05-21T10:32:49Z</time>
      </trkpt>
      <trkpt lat="42.3850730" lon="-8.6305210">
        <ele>42.1</ele>
        <time>2021-05-21T10:32:50Z</time>
      </trkpt>
      <trkpt lat="42.3850810" lon="-8.6305180">
        <ele>42.1</ele>
        <time>2021-05-21T10:32:51Z</time>
      </trkpt>
      <trkpt lat="42.3850880" lon="-8.6305140">
        <ele>42.1</ele>
        <time>2021-05-21T10:32:52Z</time>
      </trkpt>
      <trkpt lat="42.3851040" lon="-8.6305040">
        <ele>42.1</ele>
        <time>2021-05-21T10:32:53Z</time>
      </trkpt>
      <trkpt lat="42.3851100" lon="-8.6304990">
        <ele>42.1</ele>
        <time>2021-05-21T10:32:54Z</time>
      </trkpt>
      <trkpt lat="42.3851150" lon="-8.6304950">
        <ele>42.1</ele>
        <time>2021-05-21T10:32:55Z</time>
      </trkpt>
      <trkpt lat="42.3851200" lon="-8.6304900">
        <ele>42.1</ele>
        <time>2021-05-21T10:32:56Z</time>
      </trkpt>
      <trkpt lat="42.3851390" lon="-8.6304860">
        <ele>42.1</ele>
        <time>2021-05-21T10:32:57Z</time>
      </trkpt>
      <trkpt lat="42.3851490" lon="-8.6304800">
        <ele>42.1</ele>
        <time>2021-05-21T10:32:58Z</time>
      </trkpt>
      <trkpt lat="42.3851580" lon="-8.6304750">
        <ele>42.1</ele>
        <time>2021-05-21T10:32:59Z</time>
      </trkpt>
      <trkpt lat="42.3851660" lon="-8.6304710">
        <ele>42.1</ele>
        <time>2021-05-21T10:33:00Z</time>
      </trkpt>
      <trkpt lat="42.3851740" lon="-8.6304710">
        <ele>42.1</ele>
        <time>2021-05-21T10:33:01Z</time>
      </trkpt>
      <trkpt lat="42.3851920" lon="-8.6304630">
        <ele>42.1</ele>
        <time>2021-05-21T10:33:02Z</time>
      </trkpt>
      <trkpt lat="42.3851970" lon="-8.6304580">
        <ele>42.1</ele>
        <time>2021-05-21T10:33:03Z</time>
      </trkpt>
      <trkpt lat="42.3852040" lon="-8.6304640">
        <ele>42.1</ele>
        <time>2021-05-21T10:33:04Z</time>
      </trkpt>
      <trkpt lat="42.3852110" lon="-8.6304670">
        <ele>42.1</ele>
        <time>2021-05-21T10:33:05Z</time>
      </trkpt>
      <trkpt lat="42.3852160" lon="-8.6304750">
        <ele>42.1</ele>
        <time>2021-05-21T10:33:06Z</time>
      </trkpt>
      <trkpt lat="42.3852280" lon="-8.6304730">
        <ele>42.1</ele>
        <time>2021-05-21T10:33:07Z</time>
      </trkpt>
      <trkpt lat="42.3852350" lon="-8.6304700">
        <ele>42.1</ele>
        <time>2021-05-21T10:33:08Z</time>
      </trkpt>
      <trkpt lat="42.3852500" lon="-8.6304810">
        <ele>42.1</ele>
        <time>2021-05-21T10:33:09Z</time>
      </trkpt>
      <trkpt lat="42.3852590" lon="-8.6304850">
        <ele>42.1</ele>
        <time>2021-05-21T10:33:10Z</time>
      </trkpt>
      <trkpt lat="42.3852630" lon="-8.6304820">
        <ele>42.1</ele>
        <time>2021-05-21T10:33:11Z</time>
      </trkpt>
      <trkpt lat="42.3852710" lon="-8.6304800">
        <ele>42.1</ele>
        <time>2021-05-21T10:33:12Z</time>
      </trkpt>
      <trkpt lat="42.3852820" lon="-8.6304770">
        <ele>42.1</ele>
        <time>2021-05-21T10:33:13Z</time>
      </trkpt>
      <trkpt lat="42.3852940" lon="-8.6304760">
        <ele>42.1</ele>
        <time>2021-05-21T10:33:14Z</time>
      </trkpt>
      <trkpt lat="42.3853110" lon="-8.6304810">
        <ele>42.1</ele>
        <time>2021-05-21T10:33:15Z</time>
      </trkpt>
      <trkpt lat="42.3853220" lon="-8.6304830">
        <ele>42.1</ele>
        <time>2021-05-21T10:33:16Z</time>
      </trkpt>
      <trkpt lat="42.3853330" lon="-8.6304840">
        <ele>42.1</ele>
        <time>2021-05-21T10:33:17Z</time>
      </trkpt>
      <trkpt lat="42.3853450" lon="-8.6304860">
        <ele>42.1</ele>
        <time>2021-05-21T10:33:18Z</time>
      </trkpt>
      <trkpt lat="42.3853640" lon="-8.6304830">
        <ele>42.1</ele>
        <time>2021-05-21T10:33:19Z</time>
      </trkpt>
      <trkpt lat="42.3853820" lon="-8.6304850">
        <ele>42.1</ele>
        <time>2021-05-21T10:33:20Z</time>
      </trkpt>
      <trkpt lat="42.3853930" lon="-8.6304870">
        <ele>42.1</ele>
        <time>2021-05-21T10:33:21Z</time>
      </trkpt>
      <trkpt lat="42.3854180" lon="-8.6304770">
        <ele>42.1</ele>
        <time>2021-05-21T10:33:22Z</time>
      </trkpt>
      <trkpt lat="42.3854260" lon="-8.6304740">
        <ele>42.1</ele>
        <time>2021-05-21T10:33:23Z</time>
      </trkpt>
      <trkpt lat="42.3854330" lon="-8.6304720">
        <ele>42.1</ele>
        <time>2021-05-21T10:33:24Z</time>
      </trkpt>
      <trkpt lat="42.3854570" lon="-8.6304790">
        <ele>42.1</ele>
        <time>2021-05-21T10:33:25Z</time>
      </trkpt>
      <trkpt lat="42.3854680" lon="-8.6304790">
        <ele>42.2</ele>
        <time>2021-05-21T10:33:26Z</time>
      </trkpt>
      <trkpt lat="42.3854780" lon="-8.6304780">
        <ele>42.2</ele>
        <time>2021-05-21T10:33:27Z</time>
      </trkpt>
      <trkpt lat="42.3854970" lon="-8.6304700">
        <ele>42.2</ele>
        <time>2021-05-21T10:33:28Z</time>
      </trkpt>
      <trkpt lat="42.3855080" lon="-8.6304750">
        <ele>42.2</ele>
        <time>2021-05-21T10:33:29Z</time>
      </trkpt>
      <trkpt lat="42.3855220" lon="-8.6304750">
        <ele>42.2</ele>
        <time>2021-05-21T10:33:30Z</time>
      </trkpt>
      <trkpt lat="42.3855380" lon="-8.6304670">
        <ele>42.2</ele>
        <time>2021-05-21T10:33:31Z</time>
      </trkpt>
      <trkpt lat="42.3855550" lon="-8.6304740">
        <ele>42.2</ele>
        <time>2021-05-21T10:33:32Z</time>
      </trkpt>
      <trkpt lat="42.3855690" lon="-8.6304690">
        <ele>42.2</ele>
        <time>2021-05-21T10:33:33Z</time>
      </trkpt>
      <trkpt lat="42.3855810" lon="-8.6304650">
        <ele>42.2</ele>
        <time>2021-05-21T10:33:34Z</time>
      </trkpt>
      <trkpt lat="42.3856000" lon="-8.6304630">
        <ele>42.3</ele>
        <time>2021-05-21T10:33:35Z</time>
      </trkpt>
      <trkpt lat="42.3856120" lon="-8.6304620">
        <ele>42.3</ele>
        <time>2021-05-21T10:33:36Z</time>
      </trkpt>
      <trkpt lat="42.3856300" lon="-8.6304550">
        <ele>42.3</ele>
        <time>2021-05-21T10:33:37Z</time>
      </trkpt>
      <trkpt lat="42.3856500" lon="-8.6304610">
        <ele>42.3</ele>
        <time>2021-05-21T10:33:38Z</time>
      </trkpt>
      <trkpt lat="42.3856640" lon="-8.6304500">
        <ele>42.3</ele>
        <time>2021-05-21T10:33:39Z</time>
      </trkpt>
      <trkpt lat="42.3856780" lon="-8.6304470">
        <ele>42.3</ele>
        <time>2021-05-21T10:33:40Z</time>
      </trkpt>
      <trkpt lat="42.3856930" lon="-8.6304480">
        <ele>42.4</ele>
        <time>2021-05-21T10:33:41Z</time>
      </trkpt>
      <trkpt lat="42.3857090" lon="-8.6304490">
        <ele>42.4</ele>
        <time>2021-05-21T10:33:42Z</time>
      </trkpt>
      <trkpt lat="42.3857210" lon="-8.6304460">
        <ele>42.4</ele>
        <time>2021-05-21T10:33:43Z</time>
      </trkpt>
      <trkpt lat="42.3857380" lon="-8.6304460">
        <ele>42.4</ele>
        <time>2021-05-21T10:33:44Z</time>
      </trkpt>
      <trkpt lat="42.3857540" lon="-8.6304490">
        <ele>42.4</ele>
        <time>2021-05-21T10:33:45Z</time>
      </trkpt>
      <trkpt lat="42.3857710" lon="-8.6304500">
        <ele>42.4</ele>
        <time>2021-05-21T10:33:46Z</time>
      </trkpt>
      <trkpt lat="42.3857830" lon="-8.6304470">
        <ele>42.5</ele>
        <time>2021-05-21T10:33:47Z</time>
      </trkpt>
      <trkpt lat="42.3857950" lon="-8.6304540">
        <ele>42.5</ele>
        <time>2021-05-21T10:33:48Z</time>
      </trkpt>
      <trkpt lat="42.3858110" lon="-8.6304490">
        <ele>42.5</ele>
        <time>2021-05-21T10:33:49Z</time>
      </trkpt>
      <trkpt lat="42.3858260" lon="-8.6304490">
        <ele>42.5</ele>
        <time>2021-05-21T10:33:50Z</time>
      </trkpt>
      <trkpt lat="42.3858400" lon="-8.6304450">
        <ele>42.6</ele>
        <time>2021-05-21T10:33:51Z</time>
      </trkpt>
      <trkpt lat="42.3858550" lon="-8.6304530">
        <ele>42.6</ele>
        <time>2021-05-21T10:33:52Z</time>
      </trkpt>
      <trkpt lat="42.3858700" lon="-8.6304430">
        <ele>42.6</ele>
        <time>2021-05-21T10:33:53Z</time>
      </trkpt>
      <trkpt lat="42.3858900" lon="-8.6304370">
        <ele>42.7</ele>
        <time>2021-05-21T10:33:54Z</time>
      </trkpt>
      <trkpt lat="42.3858980" lon="-8.6304350">
        <ele>42.7</ele>
        <time>2021-05-21T10:33:55Z</time>
      </trkpt>
      <trkpt lat="42.3859070" lon="-8.6304340">
        <ele>42.7</ele>
        <time>2021-05-21T10:33:56Z</time>
      </trkpt>
      <trkpt lat="42.3859200" lon="-8.6304280">
        <ele>42.7</ele>
        <time>2021-05-21T10:33:57Z</time>
      </trkpt>
      <trkpt lat="42.3859310" lon="-8.6304260">
        <ele>42.8</ele>
        <time>2021-05-21T10:33:58Z</time>
      </trkpt>
      <trkpt lat="42.3859380" lon="-8.6304110">
        <ele>42.8</ele>
        <time>2021-05-21T10:33:59Z</time>
      </trkpt>
      <trkpt lat="42.3859320" lon="-8.6304130">
        <ele>42.8</ele>
        <time>2021-05-21T10:34:00Z</time>
      </trkpt>
      <trkpt lat="42.3859320" lon="-8.6304130">
        <ele>42.8</ele>
        <time>2021-05-21T10:34:01Z</time>
      </trkpt>
      <trkpt lat="42.3859490" lon="-8.6304040">
        <ele>42.8</ele>
        <time>2021-05-21T10:34:02Z</time>
      </trkpt>
      <trkpt lat="42.3859530" lon="-8.6304100">
        <ele>42.9</ele>
        <time>2021-05-21T10:34:03Z</time>
      </trkpt>
      <trkpt lat="42.3859560" lon="-8.6304170">
        <ele>42.9</ele>
        <time>2021-05-21T10:34:04Z</time>
      </trkpt>
      <trkpt lat="42.3859680" lon="-8.6304050">
        <ele>42.9</ele>
        <time>2021-05-21T10:34:05Z</time>
      </trkpt>
      <trkpt lat="42.3859760" lon="-8.6304070">
        <ele>42.9</ele>
        <time>2021-05-21T10:34:06Z</time>
      </trkpt>
      <trkpt lat="42.3859950" lon="-8.6304070">
        <ele>43.0</ele>
        <time>2021-05-21T10:34:07Z</time>
      </trkpt>
      <trkpt lat="42.3860000" lon="-8.6304090">
        <ele>43.0</ele>
        <time>2021-05-21T10:34:08Z</time>
      </trkpt>
      <trkpt lat="42.3860170" lon="-8.6304080">
        <ele>43.0</ele>
        <time>2021-05-21T10:34:09Z</time>
      </trkpt>
      <trkpt lat="42.3860210" lon="-8.6304090">
        <ele>43.1</ele>
        <time>2021-05-21T10:34:10Z</time>
      </trkpt>
      <trkpt lat="42.3860310" lon="-8.6304020">
        <ele>43.1</ele>
        <time>2021-05-21T10:34:11Z</time>
      </trkpt>
      <trkpt lat="42.3860430" lon="-8.6304080">
        <ele>43.1</ele>
        <time>2021-05-21T10:34:12Z</time>
      </trkpt>
      <trkpt lat="42.3860590" lon="-8.6304080">
        <ele>43.2</ele>
        <time>2021-05-21T10:34:13Z</time>
      </trkpt>
      <trkpt lat="42.3860710" lon="-8.6304140">
        <ele>43.2</ele>
        <time>2021-05-21T10:34:14Z</time>
      </trkpt>
      <trkpt lat="42.3860770" lon="-8.6304270">
        <ele>43.2</ele>
        <time>2021-05-21T10:34:15Z</time>
      </trkpt>
      <trkpt lat="42.3860910" lon="-8.6304300">
        <ele>43.1</ele>
        <time>2021-05-21T10:34:16Z</time>
      </trkpt>
      <trkpt lat="42.3861130" lon="-8.6304350">
        <ele>43.1</ele>
        <time>2021-05-21T10:34:17Z</time>
      </trkpt>
      <trkpt lat="42.3861210" lon="-8.6304380">
        <ele>43.1</ele>
        <time>2021-05-21T10:34:18Z</time>
      </trkpt>
      <trkpt lat="42.3861280" lon="-8.6304420">
        <ele>43.1</ele>
        <time>2021-05-21T10:34:19Z</time>
      </trkpt>
      <trkpt lat="42.3861560" lon="-8.6304560">
        <ele>43.0</ele>
        <time>2021-05-21T10:34:20Z</time>
      </trkpt>
      <trkpt lat="42.3861620" lon="-8.6304580">
        <ele>43.0</ele>
        <time>2021-05-21T10:34:21Z</time>
      </trkpt>
      <trkpt lat="42.3861690" lon="-8.6304610">
        <ele>43.0</ele>
        <time>2021-05-21T10:34:22Z</time>
      </trkpt>
      <trkpt lat="42.3861960" lon="-8.6304620">
        <ele>43.0</ele>
        <time>2021-05-21T10:34:23Z</time>
      </trkpt>
      <trkpt lat="42.3862080" lon="-8.6304610">
        <ele>42.9</ele>
        <time>2021-05-21T10:34:24Z</time>
      </trkpt>
      <trkpt lat="42.3862340" lon="-8.6304410">
        <ele>42.9</ele>
        <time>2021-05-21T10:34:25Z</time>
      </trkpt>
      <trkpt lat="42.3862430" lon="-8.6304370">
        <ele>42.8</ele>
        <time>2021-05-21T10:34:26Z</time>
      </trkpt>
      <trkpt lat="42.3862610" lon="-8.6304340">
        <ele>42.8</ele>
        <time>2021-05-21T10:34:27Z</time>
      </trkpt>
      <trkpt lat="42.3862790" lon="-8.6304350">
        <ele>42.7</ele>
        <time>2021-05-21T10:34:28Z</time>
      </trkpt>
      <trkpt lat="42.3862940" lon="-8.6304320">
        <ele>42.7</ele>
        <time>2021-05-21T10:34:29Z</time>
      </trkpt>
      <trkpt lat="42.3863080" lon="-8.6304210">
        <ele>42.7</ele>
        <time>2021-05-21T10:34:30Z</time>
      </trkpt>
      <trkpt lat="42.3863250" lon="-8.6304220">
        <ele>42.6</ele>
        <time>2021-05-21T10:34:31Z</time>
      </trkpt>
      <trkpt lat="42.3863370" lon="-8.6304140">
        <ele>42.6</ele>
        <time>2021-05-21T10:34:32Z</time>
      </trkpt>
      <trkpt lat="42.3863500" lon="-8.6304140">
        <ele>42.6</ele>
        <time>2021-05-21T10:34:33Z</time>
      </trkpt>
      <trkpt lat="42.3863560" lon="-8.6304170">
        <ele>42.6</ele>
        <time>2021-05-21T10:34:34Z</time>
      </trkpt>
      <trkpt lat="42.3863640" lon="-8.6304160">
        <ele>42.5</ele>
        <time>2021-05-21T10:34:35Z</time>
      </trkpt>
      <trkpt lat="42.3863590" lon="-8.6304130">
        <ele>42.5</ele>
        <time>2021-05-21T10:34:36Z</time>
      </trkpt>
      <trkpt lat="42.3863700" lon="-8.6304110">
        <ele>42.5</ele>
        <time>2021-05-21T10:34:37Z</time>
      </trkpt>
      <trkpt lat="42.3863850" lon="-8.6304050">
        <ele>42.5</ele>
        <time>2021-05-21T10:34:38Z</time>
      </trkpt>
      <trkpt lat="42.3863910" lon="-8.6304040">
        <ele>42.5</ele>
        <time>2021-05-21T10:34:39Z</time>
      </trkpt>
      <trkpt lat="42.3864060" lon="-8.6304020">
        <ele>42.4</ele>
        <time>2021-05-21T10:34:40Z</time>
      </trkpt>
      <trkpt lat="42.3864120" lon="-8.6303990">
        <ele>42.4</ele>
        <time>2021-05-21T10:34:41Z</time>
      </trkpt>
      <trkpt lat="42.3864220" lon="-8.6303940">
        <ele>42.4</ele>
        <time>2021-05-21T10:34:42Z</time>
      </trkpt>
      <trkpt lat="42.3864420" lon="-8.6303820">
        <ele>42.3</ele>
        <time>2021-05-21T10:34:43Z</time>
      </trkpt>
      <trkpt lat="42.3864500" lon="-8.6303790">
        <ele>42.3</ele>
        <time>2021-05-21T10:34:44Z</time>
      </trkpt>
      <trkpt lat="42.3864570" lon="-8.6303750">
        <ele>42.3</ele>
        <time>2021-05-21T10:34:45Z</time>
      </trkpt>
      <trkpt lat="42.3864620" lon="-8.6303680">
        <ele>42.3</ele>
        <time>2021-05-21T10:34:46Z</time>
      </trkpt>
      <trkpt lat="42.3864790" lon="-8.6303600">
        <ele>42.3</ele>
        <time>2021-05-21T10:34:47Z</time>
      </trkpt>
      <trkpt lat="42.3864870" lon="-8.6303540">
        <ele>42.2</ele>
        <time>2021-05-21T10:34:48Z</time>
      </trkpt>
      <trkpt lat="42.3865000" lon="-8.6303500">
        <ele>42.2</ele>
        <time>2021-05-21T10:34:49Z</time>
      </trkpt>
      <trkpt lat="42.3865070" lon="-8.6303410">
        <ele>42.2</ele>
        <time>2021-05-21T10:34:50Z</time>
      </trkpt>
      <trkpt lat="42.3865190" lon="-8.6303310">
        <ele>42.2</ele>
        <time>2021-05-21T10:34:51Z</time>
      </trkpt>
      <trkpt lat="42.3865290" lon="-8.6303240">
        <ele>42.2</ele>
        <time>2021-05-21T10:34:52Z</time>
      </trkpt>
      <trkpt lat="42.3865370" lon="-8.6303170">
        <ele>42.1</ele>
        <time>2021-05-21T10:34:53Z</time>
      </trkpt>
      <trkpt lat="42.3865440" lon="-8.6303090">
        <ele>42.1</ele>
        <time>2021-05-21T10:34:54Z</time>
      </trkpt>
      <trkpt lat="42.3865510" lon="-8.6303020">
        <ele>42.1</ele>
        <time>2021-05-21T10:34:55Z</time>
      </trkpt>
      <trkpt lat="42.3865580" lon="-8.6303000">
        <ele>42.1</ele>
        <time>2021-05-21T10:34:56Z</time>
      </trkpt>
      <trkpt lat="42.3865720" lon="-8.6302880">
        <ele>42.0</ele>
        <time>2021-05-21T10:34:57Z</time>
      </trkpt>
      <trkpt lat="42.3865800" lon="-8.6302780">
        <ele>42.0</ele>
        <time>2021-05-21T10:34:58Z</time>
      </trkpt>
      <trkpt lat="42.3865940" lon="-8.6302620">
        <ele>42.0</ele>
        <time>2021-05-21T10:34:59Z</time>
      </trkpt>
      <trkpt lat="42.3866080" lon="-8.6302560">
        <ele>42.0</ele>
        <time>2021-05-21T10:35:00Z</time>
      </trkpt>
      <trkpt lat="42.3866250" lon="-8.6302420">
        <ele>41.9</ele>
        <time>2021-05-21T10:35:01Z</time>
      </trkpt>
      <trkpt lat="42.3866330" lon="-8.6302370">
        <ele>41.9</ele>
        <time>2021-05-21T10:35:02Z</time>
      </trkpt>
      <trkpt lat="42.3866420" lon="-8.6302320">
        <ele>41.9</ele>
        <time>2021-05-21T10:35:03Z</time>
      </trkpt>
      <trkpt lat="42.3866600" lon="-8.6302250">
        <ele>41.8</ele>
        <time>2021-05-21T10:35:04Z</time>
      </trkpt>
      <trkpt lat="42.3866680" lon="-8.6302180">
        <ele>41.8</ele>
        <time>2021-05-21T10:35:05Z</time>
      </trkpt>
      <trkpt lat="42.3866770" lon="-8.6302110">
        <ele>41.8</ele>
        <time>2021-05-21T10:35:06Z</time>
      </trkpt>
      <trkpt lat="42.3866940" lon="-8.6301940">
        <ele>41.8</ele>
        <time>2021-05-21T10:35:07Z</time>
      </trkpt>
      <trkpt lat="42.3867020" lon="-8.6301900">
        <ele>41.7</ele>
        <time>2021-05-21T10:35:08Z</time>
      </trkpt>
      <trkpt lat="42.3867090" lon="-8.6301870">
        <ele>41.7</ele>
        <time>2021-05-21T10:35:09Z</time>
      </trkpt>
      <trkpt lat="42.3867170" lon="-8.6301830">
        <ele>41.7</ele>
        <time>2021-05-21T10:35:10Z</time>
      </trkpt>
      <trkpt lat="42.3867280" lon="-8.6301610">
        <ele>41.7</ele>
        <time>2021-05-21T10:35:11Z</time>
      </trkpt>
      <trkpt lat="42.3867440" lon="-8.6301540">
        <ele>41.6</ele>
        <time>2021-05-21T10:35:12Z</time>
      </trkpt>
      <trkpt lat="42.3867530" lon="-8.6301460">
        <ele>41.6</ele>
        <time>2021-05-21T10:35:13Z</time>
      </trkpt>
      <trkpt lat="42.3867680" lon="-8.6301300">
        <ele>41.6</ele>
        <time>2021-05-21T10:35:14Z</time>
      </trkpt>
      <trkpt lat="42.3867810" lon="-8.6301270">
        <ele>41.6</ele>
        <time>2021-05-21T10:35:15Z</time>
      </trkpt>
      <trkpt lat="42.3867920" lon="-8.6301100">
        <ele>41.5</ele>
        <time>2021-05-21T10:35:16Z</time>
      </trkpt>
      <trkpt lat="42.3868110" lon="-8.6300820">
        <ele>41.5</ele>
        <time>2021-05-21T10:35:17Z</time>
      </trkpt>
      <trkpt lat="42.3868150" lon="-8.6300720">
        <ele>41.5</ele>
        <time>2021-05-21T10:35:18Z</time>
      </trkpt>
      <trkpt lat="42.3868180" lon="-8.6300720">
        <ele>41.5</ele>
        <time>2021-05-21T10:35:19Z</time>
      </trkpt>
      <trkpt lat="42.3868300" lon="-8.6300580">
        <ele>41.4</ele>
        <time>2021-05-21T10:35:20Z</time>
      </trkpt>
      <trkpt lat="42.3868420" lon="-8.6300450">
        <ele>41.4</ele>
        <time>2021-05-21T10:35:21Z</time>
      </trkpt>
      <trkpt lat="42.3868470" lon="-8.6300370">
        <ele>41.4</ele>
        <time>2021-05-21T10:35:22Z</time>
      </trkpt>
      <trkpt lat="42.3868590" lon="-8.6300230">
        <ele>41.4</ele>
        <time>2021-05-21T10:35:23Z</time>
      </trkpt>
      <trkpt lat="42.3868630" lon="-8.6300140">
        <ele>41.3</ele>
        <time>2021-05-21T10:35:24Z</time>
      </trkpt>
      <trkpt lat="42.3868780" lon="-8.6300050">
        <ele>41.3</ele>
        <time>2021-05-21T10:35:25Z</time>
      </trkpt>
      <trkpt lat="42.3868920" lon="-8.6299880">
        <ele>41.3</ele>
        <time>2021-05-21T10:35:26Z</time>
      </trkpt>
      <trkpt lat="42.3869080" lon="-8.6299840">
        <ele>41.3</ele>
        <time>2021-05-21T10:35:27Z</time>
      </trkpt>
      <trkpt lat="42.3869220" lon="-8.6299790">
        <ele>41.2</ele>
        <time>2021-05-21T10:35:28Z</time>
      </trkpt>
      <trkpt lat="42.3869330" lon="-8.6299800">
        <ele>41.2</ele>
        <time>2021-05-21T10:35:29Z</time>
      </trkpt>
      <trkpt lat="42.3869410" lon="-8.6299710">
        <ele>41.2</ele>
        <time>2021-05-21T10:35:30Z</time>
      </trkpt>
      <trkpt lat="42.3869550" lon="-8.6299620">
        <ele>41.2</ele>
        <time>2021-05-21T10:35:31Z</time>
      </trkpt>
      <trkpt lat="42.3869640" lon="-8.6299460">
        <ele>41.2</ele>
        <time>2021-05-21T10:35:32Z</time>
      </trkpt>
      <trkpt lat="42.3869760" lon="-8.6299360">
        <ele>41.2</ele>
        <time>2021-05-21T10:35:33Z</time>
      </trkpt>
      <trkpt lat="42.3869940" lon="-8.6299390">
        <ele>41.1</ele>
        <time>2021-05-21T10:35:34Z</time>
      </trkpt>
      <trkpt lat="42.3870030" lon="-8.6299320">
        <ele>41.1</ele>
        <time>2021-05-21T10:35:35Z</time>
      </trkpt>
      <trkpt lat="42.3870110" lon="-8.6299240">
        <ele>41.1</ele>
        <time>2021-05-21T10:35:36Z</time>
      </trkpt>
      <trkpt lat="42.3870200" lon="-8.6299160">
        <ele>41.1</ele>
        <time>2021-05-21T10:35:37Z</time>
      </trkpt>
      <trkpt lat="42.3870400" lon="-8.6299030">
        <ele>41.1</ele>
        <time>2021-05-21T10:35:38Z</time>
      </trkpt>
      <trkpt lat="42.3870520" lon="-8.6298990">
        <ele>41.1</ele>
        <time>2021-05-21T10:35:39Z</time>
      </trkpt>
      <trkpt lat="42.3870640" lon="-8.6298950">
        <ele>41.1</ele>
        <time>2021-05-21T10:35:40Z</time>
      </trkpt>
      <trkpt lat="42.3870590" lon="-8.6298890">
        <ele>41.0</ele>
        <time>2021-05-21T10:35:41Z</time>
      </trkpt>
      <trkpt lat="42.3870640" lon="-8.6298850">
        <ele>41.0</ele>
        <time>2021-05-21T10:35:42Z</time>
      </trkpt>
      <trkpt lat="42.3870730" lon="-8.6298860">
        <ele>41.0</ele>
        <time>2021-05-21T10:35:43Z</time>
      </trkpt>
      <trkpt lat="42.3870950" lon="-8.6298720">
        <ele>41.0</ele>
        <time>2021-05-21T10:35:44Z</time>
      </trkpt>
      <trkpt lat="42.3871150" lon="-8.6298780">
        <ele>41.0</ele>
        <time>2021-05-21T10:35:45Z</time>
      </trkpt>
      <trkpt lat="42.3871260" lon="-8.6298730">
        <ele>41.0</ele>
        <time>2021-05-21T10:35:46Z</time>
      </trkpt>
      <trkpt lat="42.3871370" lon="-8.6298690">
        <ele>41.0</ele>
        <time>2021-05-21T10:35:47Z</time>
      </trkpt>
      <trkpt lat="42.3871500" lon="-8.6298740">
        <ele>40.9</ele>
        <time>2021-05-21T10:35:48Z</time>
      </trkpt>
      <trkpt lat="42.3871690" lon="-8.6298710">
        <ele>40.9</ele>
        <time>2021-05-21T10:35:49Z</time>
      </trkpt>
      <trkpt lat="42.3871820" lon="-8.6298640">
        <ele>40.9</ele>
        <time>2021-05-21T10:35:50Z</time>
      </trkpt>
      <trkpt lat="42.3871890" lon="-8.6298630">
        <ele>40.9</ele>
        <time>2021-05-21T10:35:51Z</time>
      </trkpt>
      <trkpt lat="42.3872040" lon="-8.6298590">
        <ele>40.9</ele>
        <time>2021-05-21T10:35:52Z</time>
      </trkpt>
      <trkpt lat="42.3872230" lon="-8.6298540">
        <ele>40.9</ele>
        <time>2021-05-21T10:35:53Z</time>
      </trkpt>
      <trkpt lat="42.3872320" lon="-8.6298510">
        <ele>40.9</ele>
        <time>2021-05-21T10:35:54Z</time>
      </trkpt>
      <trkpt lat="42.3872410" lon="-8.6298470">
        <ele>40.8</ele>
        <time>2021-05-21T10:35:55Z</time>
      </trkpt>
      <trkpt lat="42.3872590" lon="-8.6298390">
        <ele>40.8</ele>
        <time>2021-05-21T10:35:56Z</time>
      </trkpt>
      <trkpt lat="42.3872750" lon="-8.6298330">
        <ele>40.8</ele>
        <time>2021-05-21T10:35:57Z</time>
      </trkpt>
      <trkpt lat="42.3872930" lon="-8.6298290">
        <ele>40.8</ele>
        <time>2021-05-21T10:35:58Z</time>
      </trkpt>
      <trkpt lat="42.3873080" lon="-8.6298230">
        <ele>40.8</ele>
        <time>2021-05-21T10:35:59Z</time>
      </trkpt>
      <trkpt lat="42.3873220" lon="-8.6298090">
        <ele>40.8</ele>
        <time>2021-05-21T10:36:00Z</time>
      </trkpt>
      <trkpt lat="42.3873340" lon="-8.6297920">
        <ele>40.7</ele>
        <time>2021-05-21T10:36:01Z</time>
      </trkpt>
      <trkpt lat="42.3873500" lon="-8.6297930">
        <ele>40.7</ele>
        <time>2021-05-21T10:36:02Z</time>
      </trkpt>
      <trkpt lat="42.3873620" lon="-8.6297810">
        <ele>40.7</ele>
        <time>2021-05-21T10:36:03Z</time>
      </trkpt>
      <trkpt lat="42.3873830" lon="-8.6297730">
        <ele>40.7</ele>
        <time>2021-05-21T10:36:04Z</time>
      </trkpt>
      <trkpt lat="42.3873910" lon="-8.6297690">
        <ele>40.7</ele>
        <time>2021-05-21T10:36:05Z</time>
      </trkpt>
      <trkpt lat="42.3874000" lon="-8.6297660">
        <ele>40.7</ele>
        <time>2021-05-21T10:36:06Z</time>
      </trkpt>
      <trkpt lat="42.3874110" lon="-8.6297500">
        <ele>40.7</ele>
        <time>2021-05-21T10:36:07Z</time>
      </trkpt>
      <trkpt lat="42.3874180" lon="-8.6297450">
        <ele>40.6</ele>
        <time>2021-05-21T10:36:08Z</time>
      </trkpt>
      <trkpt lat="42.3874260" lon="-8.6297390">
        <ele>40.6</ele>
        <time>2021-05-21T10:36:09Z</time>
      </trkpt>
      <trkpt lat="42.3874330" lon="-8.6297340">
        <ele>40.6</ele>
        <time>2021-05-21T10:36:10Z</time>
      </trkpt>
      <trkpt lat="42.3874460" lon="-8.6297210">
        <ele>40.6</ele>
        <time>2021-05-21T10:36:11Z</time>
      </trkpt>
      <trkpt lat="42.3874570" lon="-8.6297140">
        <ele>40.6</ele>
        <time>2021-05-21T10:36:12Z</time>
      </trkpt>
      <trkpt lat="42.3874680" lon="-8.6297060">
        <ele>40.6</ele>
        <time>2021-05-21T10:36:13Z</time>
      </trkpt>
      <trkpt lat="42.3874830" lon="-8.6296980">
        <ele>40.6</ele>
        <time>2021-05-21T10:36:14Z</time>
      </trkpt>
      <trkpt lat="42.3874990" lon="-8.6296930">
        <ele>40.6</ele>
        <time>2021-05-21T10:36:15Z</time>
      </trkpt>
      <trkpt lat="42.3875090" lon="-8.6296800">
        <ele>40.6</ele>
        <time>2021-05-21T10:36:16Z</time>
      </trkpt>
      <trkpt lat="42.3875320" lon="-8.6296670">
        <ele>40.6</ele>
        <time>2021-05-21T10:36:17Z</time>
      </trkpt>
      <trkpt lat="42.3875370" lon="-8.6296620">
        <ele>40.6</ele>
        <time>2021-05-21T10:36:18Z</time>
      </trkpt>
      <trkpt lat="42.3875430" lon="-8.6296570">
        <ele>40.6</ele>
        <time>2021-05-21T10:36:19Z</time>
      </trkpt>
      <trkpt lat="42.3875550" lon="-8.6296430">
        <ele>40.6</ele>
        <time>2021-05-21T10:36:20Z</time>
      </trkpt>
      <trkpt lat="42.3875670" lon="-8.6296320">
        <ele>40.6</ele>
        <time>2021-05-21T10:36:21Z</time>
      </trkpt>
      <trkpt lat="42.3875860" lon="-8.6296200">
        <ele>40.6</ele>
        <time>2021-05-21T10:36:22Z</time>
      </trkpt>
      <trkpt lat="42.3875930" lon="-8.6296110">
        <ele>40.6</ele>
        <time>2021-05-21T10:36:23Z</time>
      </trkpt>
      <trkpt lat="42.3876140" lon="-8.6295980">
        <ele>40.6</ele>
        <time>2021-05-21T10:36:24Z</time>
      </trkpt>
      <trkpt lat="42.3876210" lon="-8.6295900">
        <ele>40.6</ele>
        <time>2021-05-21T10:36:25Z</time>
      </trkpt>
      <trkpt lat="42.3876290" lon="-8.6295830">
        <ele>40.6</ele>
        <time>2021-05-21T10:36:26Z</time>
      </trkpt>
      <trkpt lat="42.3876370" lon="-8.6295770">
        <ele>40.6</ele>
        <time>2021-05-21T10:36:27Z</time>
      </trkpt>
      <trkpt lat="42.3876460" lon="-8.6295680">
        <ele>40.6</ele>
        <time>2021-05-21T10:36:28Z</time>
      </trkpt>
      <trkpt lat="42.3876540" lon="-8.6295620">
        <ele>40.6</ele>
        <time>2021-05-21T10:36:29Z</time>
      </trkpt>
      <trkpt lat="42.3876630" lon="-8.6295510">
        <ele>40.6</ele>
        <time>2021-05-21T10:36:30Z</time>
      </trkpt>
      <trkpt lat="42.3876720" lon="-8.6295430">
        <ele>40.6</ele>
        <time>2021-05-21T10:36:31Z</time>
      </trkpt>
      <trkpt lat="42.3876850" lon="-8.6295410">
        <ele>40.6</ele>
        <time>2021-05-21T10:36:32Z</time>
      </trkpt>
      <trkpt lat="42.3876970" lon="-8.6295320">
        <ele>40.6</ele>
        <time>2021-05-21T10:36:33Z</time>
      </trkpt>
      <trkpt lat="42.3877080" lon="-8.6295200">
        <ele>40.6</ele>
        <time>2021-05-21T10:36:34Z</time>
      </trkpt>
      <trkpt lat="42.3877170" lon="-8.6295120">
        <ele>40.6</ele>
        <time>2021-05-21T10:36:35Z</time>
      </trkpt>
      <trkpt lat="42.3877320" lon="-8.6295100">
        <ele>40.6</ele>
        <time>2021-05-21T10:36:36Z</time>
      </trkpt>
      <trkpt lat="42.3877410" lon="-8.6295050">
        <ele>40.6</ele>
        <time>2021-05-21T10:36:37Z</time>
      </trkpt>
      <trkpt lat="42.3877570" lon="-8.6294990">
        <ele>40.5</ele>
        <time>2021-05-21T10:36:38Z</time>
      </trkpt>
      <trkpt lat="42.3877670" lon="-8.6294980">
        <ele>40.5</ele>
        <time>2021-05-21T10:36:39Z</time>
      </trkpt>
      <trkpt lat="42.3877770" lon="-8.6294970">
        <ele>40.5</ele>
        <time>2021-05-21T10:36:40Z</time>
      </trkpt>
      <trkpt lat="42.3877780" lon="-8.6295000">
        <ele>40.5</ele>
        <time>2021-05-21T10:36:41Z</time>
      </trkpt>
      <trkpt lat="42.3877920" lon="-8.6295020">
        <ele>40.5</ele>
        <time>2021-05-21T10:36:42Z</time>
      </trkpt>
      <trkpt lat="42.3878020" lon="-8.6295020">
        <ele>40.5</ele>
        <time>2021-05-21T10:36:43Z</time>
      </trkpt>
      <trkpt lat="42.3878110" lon="-8.6295090">
        <ele>40.5</ele>
        <time>2021-05-21T10:36:44Z</time>
      </trkpt>
      <trkpt lat="42.3878240" lon="-8.6295130">
        <ele>40.5</ele>
        <time>2021-05-21T10:36:45Z</time>
      </trkpt>
      <trkpt lat="42.3878320" lon="-8.6295100">
        <ele>40.5</ele>
        <time>2021-05-21T10:36:46Z</time>
      </trkpt>
      <trkpt lat="42.3878460" lon="-8.6295080">
        <ele>40.5</ele>
        <time>2021-05-21T10:36:47Z</time>
      </trkpt>
      <trkpt lat="42.3878710" lon="-8.6295030">
        <ele>40.4</ele>
        <time>2021-05-21T10:36:48Z</time>
      </trkpt>
      <trkpt lat="42.3878830" lon="-8.6295020">
        <ele>40.4</ele>
        <time>2021-05-21T10:36:49Z</time>
      </trkpt>
      <trkpt lat="42.3878970" lon="-8.6295070">
        <ele>40.4</ele>
        <time>2021-05-21T10:36:50Z</time>
      </trkpt>
      <trkpt lat="42.3879130" lon="-8.6295130">
        <ele>40.4</ele>
        <time>2021-05-21T10:36:51Z</time>
      </trkpt>
      <trkpt lat="42.3879190" lon="-8.6295070">
        <ele>40.4</ele>
        <time>2021-05-21T10:36:52Z</time>
      </trkpt>
      <trkpt lat="42.3879340" lon="-8.6295040">
        <ele>40.4</ele>
        <time>2021-05-21T10:36:53Z</time>
      </trkpt>
      <trkpt lat="42.3879430" lon="-8.6295010">
        <ele>40.4</ele>
        <time>2021-05-21T10:36:54Z</time>
      </trkpt>
      <trkpt lat="42.3879630" lon="-8.6295050">
        <ele>40.3</ele>
        <time>2021-05-21T10:36:55Z</time>
      </trkpt>
      <trkpt lat="42.3879710" lon="-8.6295030">
        <ele>40.3</ele>
        <time>2021-05-21T10:36:56Z</time>
      </trkpt>
      <trkpt lat="42.3879790" lon="-8.6295020">
        <ele>40.3</ele>
        <time>2021-05-21T10:36:57Z</time>
      </trkpt>
      <trkpt lat="42.3879770" lon="-8.6294990">
        <ele>40.3</ele>
        <time>2021-05-21T10:36:58Z</time>
      </trkpt>
      <trkpt lat="42.3879930" lon="-8.6294970">
        <ele>40.3</ele>
        <time>2021-05-21T10:36:59Z</time>
      </trkpt>
      <trkpt lat="42.3880080" lon="-8.6294970">
        <ele>40.3</ele>
        <time>2021-05-21T10:37:00Z</time>
      </trkpt>
      <trkpt lat="42.3880230" lon="-8.6294910">
        <ele>40.3</ele>
        <time>2021-05-21T10:37:01Z</time>
      </trkpt>
      <trkpt lat="42.3880360" lon="-8.6294970">
        <ele>40.3</ele>
        <time>2021-05-21T10:37:02Z</time>
      </trkpt>
      <trkpt lat="42.3880660" lon="-8.6295100">
        <ele>40.2</ele>
        <time>2021-05-21T10:37:03Z</time>
      </trkpt>
      <trkpt lat="42.3880720" lon="-8.6295110">
        <ele>40.2</ele>
        <time>2021-05-21T10:37:04Z</time>
      </trkpt>
      <trkpt lat="42.3880890" lon="-8.6295150">
        <ele>40.2</ele>
        <time>2021-05-21T10:37:05Z</time>
      </trkpt>
      <trkpt lat="42.3880990" lon="-8.6295270">
        <ele>40.2</ele>
        <time>2021-05-21T10:37:06Z</time>
      </trkpt>
      <trkpt lat="42.3881150" lon="-8.6295330">
        <ele>40.2</ele>
        <time>2021-05-21T10:37:07Z</time>
      </trkpt>
      <trkpt lat="42.3881260" lon="-8.6295390">
        <ele>40.2</ele>
        <time>2021-05-21T10:37:08Z</time>
      </trkpt>
      <trkpt lat="42.3881350" lon="-8.6295490">
        <ele>40.2</ele>
        <time>2021-05-21T10:37:09Z</time>
      </trkpt>
      <trkpt lat="42.3881410" lon="-8.6295590">
        <ele>40.2</ele>
        <time>2021-05-21T10:37:10Z</time>
      </trkpt>
      <trkpt lat="42.3881490" lon="-8.6295590">
        <ele>40.2</ele>
        <time>2021-05-21T10:37:11Z</time>
      </trkpt>
      <trkpt lat="42.3881670" lon="-8.6295660">
        <ele>40.2</ele>
        <time>2021-05-21T10:37:12Z</time>
      </trkpt>
      <trkpt lat="42.3881790" lon="-8.6295730">
        <ele>40.2</ele>
        <time>2021-05-21T10:37:13Z</time>
      </trkpt>
      <trkpt lat="42.3881950" lon="-8.6295860">
        <ele>40.2</ele>
        <time>2021-05-21T10:37:14Z</time>
      </trkpt>
      <trkpt lat="42.3882060" lon="-8.6295870">
        <ele>40.2</ele>
        <time>2021-05-21T10:37:15Z</time>
      </trkpt>
      <trkpt lat="42.3882110" lon="-8.6295870">
        <ele>40.2</ele>
        <time>2021-05-21T10:37:16Z</time>
      </trkpt>
      <trkpt lat="42.3882300" lon="-8.6295980">
        <ele>40.2</ele>
        <time>2021-05-21T10:37:17Z</time>
      </trkpt>
      <trkpt lat="42.3882390" lon="-8.6296050">
        <ele>40.2</ele>
        <time>2021-05-21T10:37:18Z</time>
      </trkpt>
      <trkpt lat="42.3882540" lon="-8.6296120">
        <ele>40.2</ele>
        <time>2021-05-21T10:37:19Z</time>
      </trkpt>
      <trkpt lat="42.3882670" lon="-8.6296150">
        <ele>40.3</ele>
        <time>2021-05-21T10:37:20Z</time>
      </trkpt>
      <trkpt lat="42.3882790" lon="-8.6296170">
        <ele>40.3</ele>
        <time>2021-05-21T10:37:21Z</time>
      </trkpt>
      <trkpt lat="42.3882840" lon="-8.6296250">
        <ele>40.3</ele>
        <time>2021-05-21T10:37:22Z</time>
      </trkpt>
      <trkpt lat="42.3882980" lon="-8.6296290">
        <ele>40.3</ele>
        <time>2021-05-21T10:37:23Z</time>
      </trkpt>
      <trkpt lat="42.3883070" lon="-8.6296370">
        <ele>40.3</ele>
        <time>2021-05-21T10:37:24Z</time>
      </trkpt>
      <trkpt lat="42.3883170" lon="-8.6296410">
        <ele>40.3</ele>
        <time>2021-05-21T10:37:25Z</time>
      </trkpt>
      <trkpt lat="42.3883270" lon="-8.6296520">
        <ele>40.3</ele>
        <time>2021-05-21T10:37:26Z</time>
      </trkpt>
      <trkpt lat="42.3883340" lon="-8.6296570">
        <ele>40.3</ele>
        <time>2021-05-21T10:37:27Z</time>
      </trkpt>
      <trkpt lat="42.3883480" lon="-8.6296590">
        <ele>40.3</ele>
        <time>2021-05-21T10:37:28Z</time>
      </trkpt>
      <trkpt lat="42.3883520" lon="-8.6296660">
        <ele>40.3</ele>
        <time>2021-05-21T10:37:29Z</time>
      </trkpt>
      <trkpt lat="42.3883650" lon="-8.6296730">
        <ele>40.3</ele>
        <time>2021-05-21T10:37:30Z</time>
      </trkpt>
      <trkpt lat="42.3883820" lon="-8.6296880">
        <ele>40.3</ele>
        <time>2021-05-21T10:37:31Z</time>
      </trkpt>
      <trkpt lat="42.3883890" lon="-8.6296940">
        <ele>40.3</ele>
        <time>2021-05-21T10:37:32Z</time>
      </trkpt>
      <trkpt lat="42.3883970" lon="-8.6297000">
        <ele>40.3</ele>
        <time>2021-05-21T10:37:33Z</time>
      </trkpt>
      <trkpt lat="42.3884020" lon="-8.6297020">
        <ele>40.3</ele>
        <time>2021-05-21T10:37:34Z</time>
      </trkpt>
      <trkpt lat="42.3884080" lon="-8.6297030">
        <ele>40.3</ele>
        <time>2021-05-21T10:37:35Z</time>
      </trkpt>
      <trkpt lat="42.3884170" lon="-8.6297100">
        <ele>40.3</ele>
        <time>2021-05-21T10:37:36Z</time>
      </trkpt>
      <trkpt lat="42.3884290" lon="-8.6297200">
        <ele>40.3</ele>
        <time>2021-05-21T10:37:37Z</time>
      </trkpt>
      <trkpt lat="42.3884470" lon="-8.6297220">
        <ele>40.3</ele>
        <time>2021-05-21T10:37:38Z</time>
      </trkpt>
      <trkpt lat="42.3884470" lon="-8.6297250">
        <ele>40.3</ele>
        <time>2021-05-21T10:37:39Z</time>
      </trkpt>
      <trkpt lat="42.3884570" lon="-8.6297300">
        <ele>40.3</ele>
        <time>2021-05-21T10:37:40Z</time>
      </trkpt>
      <trkpt lat="42.3884800" lon="-8.6297400">
        <ele>40.3</ele>
        <time>2021-05-21T10:37:41Z</time>
      </trkpt>
      <trkpt lat="42.3884880" lon="-8.6297430">
        <ele>40.3</ele>
        <time>2021-05-21T10:37:42Z</time>
      </trkpt>
      <trkpt lat="42.3884950" lon="-8.6297470">
        <ele>40.3</ele>
        <time>2021-05-21T10:37:43Z</time>
      </trkpt>
      <trkpt lat="42.3885130" lon="-8.6297550">
        <ele>40.3</ele>
        <time>2021-05-21T10:37:44Z</time>
      </trkpt>
      <trkpt lat="42.3885270" lon="-8.6297590">
        <ele>40.3</ele>
        <time>2021-05-21T10:37:45Z</time>
      </trkpt>
      <trkpt lat="42.3885330" lon="-8.6297600">
        <ele>40.3</ele>
        <time>2021-05-21T10:37:46Z</time>
      </trkpt>
      <trkpt lat="42.3885390" lon="-8.6297580">
        <ele>40.3</ele>
        <time>2021-05-21T10:37:47Z</time>
      </trkpt>
      <trkpt lat="42.3885450" lon="-8.6297590">
        <ele>40.3</ele>
        <time>2021-05-21T10:37:48Z</time>
      </trkpt>
      <trkpt lat="42.3885620" lon="-8.6297640">
        <ele>40.3</ele>
        <time>2021-05-21T10:37:49Z</time>
      </trkpt>
      <trkpt lat="42.3885870" lon="-8.6297670">
        <ele>40.2</ele>
        <time>2021-05-21T10:37:50Z</time>
      </trkpt>
      <trkpt lat="42.3885970" lon="-8.6297690">
        <ele>40.2</ele>
        <time>2021-05-21T10:37:51Z</time>
      </trkpt>
      <trkpt lat="42.3886080" lon="-8.6297700">
        <ele>40.2</ele>
        <time>2021-05-21T10:37:52Z</time>
      </trkpt>
      <trkpt lat="42.3886180" lon="-8.6297720">
        <ele>40.2</ele>
        <time>2021-05-21T10:37:53Z</time>
      </trkpt>
      <trkpt lat="42.3886220" lon="-8.6297770">
        <ele>40.2</ele>
        <time>2021-05-21T10:37:54Z</time>
      </trkpt>
      <trkpt lat="42.3886310" lon="-8.6297800">
        <ele>40.2</ele>
        <time>2021-05-21T10:37:55Z</time>
      </trkpt>
      <trkpt lat="42.3886350" lon="-8.6297770">
        <ele>40.2</ele>
        <time>2021-05-21T10:37:56Z</time>
      </trkpt>
      <trkpt lat="42.3886510" lon="-8.6297870">
        <ele>40.2</ele>
        <time>2021-05-21T10:37:57Z</time>
      </trkpt>
      <trkpt lat="42.3886800" lon="-8.6298000">
        <ele>40.2</ele>
        <time>2021-05-21T10:37:58Z</time>
      </trkpt>
      <trkpt lat="42.3886890" lon="-8.6298020">
        <ele>40.2</ele>
        <time>2021-05-21T10:37:59Z</time>
      </trkpt>
      <trkpt lat="42.3887050" lon="-8.6298080">
        <ele>40.2</ele>
        <time>2021-05-21T10:38:00Z</time>
      </trkpt>
      <trkpt lat="42.3887220" lon="-8.6298100">
        <ele>40.2</ele>
        <time>2021-05-21T10:38:01Z</time>
      </trkpt>
      <trkpt lat="42.3887530" lon="-8.6298110">
        <ele>40.2</ele>
        <time>2021-05-21T10:38:02Z</time>
      </trkpt>
      <trkpt lat="42.3887610" lon="-8.6298120">
        <ele>40.2</ele>
        <time>2021-05-21T10:38:03Z</time>
      </trkpt>
      <trkpt lat="42.3887780" lon="-8.6298230">
        <ele>40.2</ele>
        <time>2021-05-21T10:38:04Z</time>
      </trkpt>
      <trkpt lat="42.3887940" lon="-8.6298230">
        <ele>40.2</ele>
        <time>2021-05-21T10:38:05Z</time>
      </trkpt>
      <trkpt lat="42.3888110" lon="-8.6298280">
        <ele>40.2</ele>
        <time>2021-05-21T10:38:06Z</time>
      </trkpt>
      <trkpt lat="42.3888290" lon="-8.6298350">
        <ele>40.2</ele>
        <time>2021-05-21T10:38:07Z</time>
      </trkpt>
      <trkpt lat="42.3888460" lon="-8.6298340">
        <ele>40.2</ele>
        <time>2021-05-21T10:38:08Z</time>
      </trkpt>
      <trkpt lat="42.3888600" lon="-8.6298370">
        <ele>40.2</ele>
        <time>2021-05-21T10:38:09Z</time>
      </trkpt>
      <trkpt lat="42.3888760" lon="-8.6298410">
        <ele>40.2</ele>
        <time>2021-05-21T10:38:10Z</time>
      </trkpt>
      <trkpt lat="42.3888920" lon="-8.6298460">
        <ele>40.2</ele>
        <time>2021-05-21T10:38:11Z</time>
      </trkpt>
      <trkpt lat="42.3889070" lon="-8.6298500">
        <ele>40.2</ele>
        <time>2021-05-21T10:38:12Z</time>
      </trkpt>
      <trkpt lat="42.3889220" lon="-8.6298530">
        <ele>40.2</ele>
        <time>2021-05-21T10:38:13Z</time>
      </trkpt>
      <trkpt lat="42.3889350" lon="-8.6298590">
        <ele>40.2</ele>
        <time>2021-05-21T10:38:14Z</time>
      </trkpt>
      <trkpt lat="42.3889470" lon="-8.6298630">
        <ele>40.2</ele>
        <time>2021-05-21T10:38:15Z</time>
      </trkpt>
      <trkpt lat="42.3889550" lon="-8.6298700">
        <ele>40.2</ele>
        <time>2021-05-21T10:38:16Z</time>
      </trkpt>
      <trkpt lat="42.3889750" lon="-8.6298790">
        <ele>40.2</ele>
        <time>2021-05-21T10:38:17Z</time>
      </trkpt>
      <trkpt lat="42.3889850" lon="-8.6298840">
        <ele>40.2</ele>
        <time>2021-05-21T10:38:18Z</time>
      </trkpt>
      <trkpt lat="42.3889940" lon="-8.6298880">
        <ele>40.2</ele>
        <time>2021-05-21T10:38:19Z</time>
      </trkpt>
      <trkpt lat="42.3890060" lon="-8.6298950">
        <ele>40.2</ele>
        <time>2021-05-21T10:38:20Z</time>
      </trkpt>
      <trkpt lat="42.3890090" lon="-8.6298940">
        <ele>40.2</ele>
        <time>2021-05-21T10:38:21Z</time>
      </trkpt>
      <trkpt lat="42.3890180" lon="-8.6298980">
        <ele>40.3</ele>
        <time>2021-05-21T10:38:22Z</time>
      </trkpt>
      <trkpt lat="42.3890270" lon="-8.6299060">
        <ele>40.3</ele>
        <time>2021-05-21T10:38:23Z</time>
      </trkpt>
      <trkpt lat="42.3890390" lon="-8.6299150">
        <ele>40.3</ele>
        <time>2021-05-21T10:38:24Z</time>
      </trkpt>
      <trkpt lat="42.3890540" lon="-8.6299270">
        <ele>40.3</ele>
        <time>2021-05-21T10:38:25Z</time>
      </trkpt>
      <trkpt lat="42.3890650" lon="-8.6299320">
        <ele>40.3</ele>
        <time>2021-05-21T10:38:26Z</time>
      </trkpt>
      <trkpt lat="42.3890730" lon="-8.6299330">
        <ele>40.3</ele>
        <time>2021-05-21T10:38:27Z</time>
      </trkpt>
      <trkpt lat="42.3890740" lon="-8.6299380">
        <ele>40.3</ele>
        <time>2021-05-21T10:38:28Z</time>
      </trkpt>
      <trkpt lat="42.3890840" lon="-8.6299500">
        <ele>40.3</ele>
        <time>2021-05-21T10:38:29Z</time>
      </trkpt>
      <trkpt lat="42.3891010" lon="-8.6299480">
        <ele>40.2</ele>
        <time>2021-05-21T10:38:30Z</time>
      </trkpt>
      <trkpt lat="42.3891130" lon="-8.6299540">
        <ele>40.2</ele>
        <time>2021-05-21T10:38:31Z</time>
      </trkpt>
      <trkpt lat="42.3891440" lon="-8.6299610">
        <ele>40.2</ele>
        <time>2021-05-21T10:38:32Z</time>
      </trkpt>
      <trkpt lat="42.3891530" lon="-8.6299660">
        <ele>40.2</ele>
        <time>2021-05-21T10:38:33Z</time>
      </trkpt>
      <trkpt lat="42.3891650" lon="-8.6299670">
        <ele>40.2</ele>
        <time>2021-05-21T10:38:34Z</time>
      </trkpt>
      <trkpt lat="42.3891830" lon="-8.6299710">
        <ele>40.2</ele>
        <time>2021-05-21T10:38:35Z</time>
      </trkpt>
      <trkpt lat="42.3891990" lon="-8.6299710">
        <ele>40.2</ele>
        <time>2021-05-21T10:38:36Z</time>
      </trkpt>
      <trkpt lat="42.3892160" lon="-8.6299690">
        <ele>40.2</ele>
        <time>2021-05-21T10:38:37Z</time>
      </trkpt>
      <trkpt lat="42.3892330" lon="-8.6299680">
        <ele>40.2</ele>
        <time>2021-05-21T10:38:38Z</time>
      </trkpt>
      <trkpt lat="42.3892430" lon="-8.6299680">
        <ele>40.2</ele>
        <time>2021-05-21T10:38:39Z</time>
      </trkpt>
      <trkpt lat="42.3892630" lon="-8.6299740">
        <ele>40.2</ele>
        <time>2021-05-21T10:38:40Z</time>
      </trkpt>
      <trkpt lat="42.3892730" lon="-8.6299750">
        <ele>40.2</ele>
        <time>2021-05-21T10:38:41Z</time>
      </trkpt>
      <trkpt lat="42.3892840" lon="-8.6299770">
        <ele>40.1</ele>
        <time>2021-05-21T10:38:42Z</time>
      </trkpt>
      <trkpt lat="42.3893200" lon="-8.6299870">
        <ele>40.1</ele>
        <time>2021-05-21T10:38:43Z</time>
      </trkpt>
      <trkpt lat="42.3893420" lon="-8.6299930">
        <ele>40.1</ele>
        <time>2021-05-21T10:38:44Z</time>
      </trkpt>
      <trkpt lat="42.3893650" lon="-8.6300000">
        <ele>40.1</ele>
        <time>2021-05-21T10:38:45Z</time>
      </trkpt>
      <trkpt lat="42.3893670" lon="-8.6300050">
        <ele>40.1</ele>
        <time>2021-05-21T10:38:46Z</time>
      </trkpt>
      <trkpt lat="42.3893840" lon="-8.6300020">
        <ele>40.0</ele>
        <time>2021-05-21T10:38:47Z</time>
      </trkpt>
      <trkpt lat="42.3894000" lon="-8.6299980">
        <ele>40.0</ele>
        <time>2021-05-21T10:38:48Z</time>
      </trkpt>
      <trkpt lat="42.3894160" lon="-8.6299940">
        <ele>40.0</ele>
        <time>2021-05-21T10:38:49Z</time>
      </trkpt>
      <trkpt lat="42.3894430" lon="-8.6300020">
        <ele>39.9</ele>
        <time>2021-05-21T10:38:50Z</time>
      </trkpt>
      <trkpt lat="42.3894520" lon="-8.6300060">
        <ele>39.9</ele>
        <time>2021-05-21T10:38:51Z</time>
      </trkpt>
      <trkpt lat="42.3894640" lon="-8.6300150">
        <ele>39.9</ele>
        <time>2021-05-21T10:38:52Z</time>
      </trkpt>
      <trkpt lat="42.3894680" lon="-8.6300200">
        <ele>39.9</ele>
        <time>2021-05-21T10:38:53Z</time>
      </trkpt>
      <trkpt lat="42.3894760" lon="-8.6300210">
        <ele>39.9</ele>
        <time>2021-05-21T10:38:54Z</time>
      </trkpt>
      <trkpt lat="42.3894830" lon="-8.6300220">
        <ele>39.9</ele>
        <time>2021-05-21T10:38:55Z</time>
      </trkpt>
      <trkpt lat="42.3894960" lon="-8.6300210">
        <ele>39.9</ele>
        <time>2021-05-21T10:38:56Z</time>
      </trkpt>
      <trkpt lat="42.3894970" lon="-8.6300230">
        <ele>39.9</ele>
        <time>2021-05-21T10:38:57Z</time>
      </trkpt>
      <trkpt lat="42.3895040" lon="-8.6300200">
        <ele>39.8</ele>
        <time>2021-05-21T10:38:58Z</time>
      </trkpt>
      <trkpt lat="42.3895180" lon="-8.6300200">
        <ele>39.8</ele>
        <time>2021-05-21T10:38:59Z</time>
      </trkpt>
      <trkpt lat="42.3895280" lon="-8.6300220">
        <ele>39.8</ele>
        <time>2021-05-21T10:39:00Z</time>
      </trkpt>
      <trkpt lat="42.3895370" lon="-8.6300230">
        <ele>39.8</ele>
        <time>2021-05-21T10:39:01Z</time>
      </trkpt>
      <trkpt lat="42.3895470" lon="-8.6300250">
        <ele>39.7</ele>
        <time>2021-05-21T10:39:02Z</time>
      </trkpt>
      <trkpt lat="42.3895610" lon="-8.6300270">
        <ele>39.7</ele>
        <time>2021-05-21T10:39:03Z</time>
      </trkpt>
      <trkpt lat="42.3895750" lon="-8.6300220">
        <ele>39.7</ele>
        <time>2021-05-21T10:39:04Z</time>
      </trkpt>
      <trkpt lat="42.3895800" lon="-8.6300210">
        <ele>39.6</ele>
        <time>2021-05-21T10:39:05Z</time>
      </trkpt>
      <trkpt lat="42.3895890" lon="-8.6300260">
        <ele>39.6</ele>
        <time>2021-05-21T10:39:06Z</time>
      </trkpt>
      <trkpt lat="42.3895950" lon="-8.6300300">
        <ele>39.6</ele>
        <time>2021-05-21T10:39:07Z</time>
      </trkpt>
      <trkpt lat="42.3896080" lon="-8.6300380">
        <ele>39.5</ele>
        <time>2021-05-21T10:39:08Z</time>
      </trkpt>
      <trkpt lat="42.3896270" lon="-8.6300380">
        <ele>39.5</ele>
        <time>2021-05-21T10:39:09Z</time>
      </trkpt>
      <trkpt lat="42.3896390" lon="-8.6300380">
        <ele>39.4</ele>
        <time>2021-05-21T10:39:10Z</time>
      </trkpt>
      <trkpt lat="42.3896500" lon="-8.6300390">
        <ele>39.4</ele>
        <time>2021-05-21T10:39:11Z</time>
      </trkpt>
      <trkpt lat="42.3896600" lon="-8.6300440">
        <ele>39.3</ele>
        <time>2021-05-21T10:39:12Z</time>
      </trkpt>
      <trkpt lat="42.3896740" lon="-8.6300460">
        <ele>39.3</ele>
        <time>2021-05-21T10:39:13Z</time>
      </trkpt>
      <trkpt lat="42.3896910" lon="-8.6300530">
        <ele>39.2</ele>
        <time>2021-05-21T10:39:14Z</time>
      </trkpt>
      <trkpt lat="42.3897000" lon="-8.6300530">
        <ele>39.2</ele>
        <time>2021-05-21T10:39:15Z</time>
      </trkpt>
      <trkpt lat="42.3897080" lon="-8.6300520">
        <ele>39.2</ele>
        <time>2021-05-21T10:39:16Z</time>
      </trkpt>
      <trkpt lat="42.3897170" lon="-8.6300520">
        <ele>39.1</ele>
        <time>2021-05-21T10:39:17Z</time>
      </trkpt>
      <trkpt lat="42.3897440" lon="-8.6300400">
        <ele>39.0</ele>
        <time>2021-05-21T10:39:18Z</time>
      </trkpt>
      <trkpt lat="42.3897530" lon="-8.6300370">
        <ele>39.0</ele>
        <time>2021-05-21T10:39:19Z</time>
      </trkpt>
      <trkpt lat="42.3897620" lon="-8.6300320">
        <ele>38.9</ele>
        <time>2021-05-21T10:39:20Z</time>
      </trkpt>
      <trkpt lat="42.3897730" lon="-8.6300320">
        <ele>38.9</ele>
        <time>2021-05-21T10:39:21Z</time>
      </trkpt>
      <trkpt lat="42.3897840" lon="-8.6300310">
        <ele>38.8</ele>
        <time>2021-05-21T10:39:22Z</time>
      </trkpt>
      <trkpt lat="42.3898060" lon="-8.6300350">
        <ele>38.7</ele>
        <time>2021-05-21T10:39:23Z</time>
      </trkpt>
      <trkpt lat="42.3898160" lon="-8.6300330">
        <ele>38.7</ele>
        <time>2021-05-21T10:39:24Z</time>
      </trkpt>
      <trkpt lat="42.3898260" lon="-8.6300320">
        <ele>38.7</ele>
        <time>2021-05-21T10:39:25Z</time>
      </trkpt>
      <trkpt lat="42.3898560" lon="-8.6300280">
        <ele>38.5</ele>
        <time>2021-05-21T10:39:26Z</time>
      </trkpt>
      <trkpt lat="42.3898630" lon="-8.6300250">
        <ele>38.5</ele>
        <time>2021-05-21T10:39:27Z</time>
      </trkpt>
      <trkpt lat="42.3898770" lon="-8.6300130">
        <ele>38.4</ele>
        <time>2021-05-21T10:39:28Z</time>
      </trkpt>
      <trkpt lat="42.3898900" lon="-8.6300060">
        <ele>38.4</ele>
        <time>2021-05-21T10:39:29Z</time>
      </trkpt>
      <trkpt lat="42.3899070" lon="-8.6299970">
        <ele>38.3</ele>
        <time>2021-05-21T10:39:30Z</time>
      </trkpt>
      <trkpt lat="42.3899250" lon="-8.6299960">
        <ele>38.2</ele>
        <time>2021-05-21T10:39:31Z</time>
      </trkpt>
      <trkpt lat="42.3899420" lon="-8.6299960">
        <ele>38.2</ele>
        <time>2021-05-21T10:39:32Z</time>
      </trkpt>
      <trkpt lat="42.3899570" lon="-8.6300000">
        <ele>38.1</ele>
        <time>2021-05-21T10:39:33Z</time>
      </trkpt>
      <trkpt lat="42.3899760" lon="-8.6299900">
        <ele>38.0</ele>
        <time>2021-05-21T10:39:34Z</time>
      </trkpt>
      <trkpt lat="42.3899840" lon="-8.6299880">
        <ele>38.0</ele>
        <time>2021-05-21T10:39:35Z</time>
      </trkpt>
      <trkpt lat="42.3899910" lon="-8.6299860">
        <ele>38.0</ele>
        <time>2021-05-21T10:39:36Z</time>
      </trkpt>
      <trkpt lat="42.3899980" lon="-8.6299840">
        <ele>37.9</ele>
        <time>2021-05-21T10:39:37Z</time>
      </trkpt>
      <trkpt lat="42.3900230" lon="-8.6299750">
        <ele>37.8</ele>
        <time>2021-05-21T10:39:38Z</time>
      </trkpt>
      <trkpt lat="42.3900320" lon="-8.6299720">
        <ele>37.8</ele>
        <time>2021-05-21T10:39:39Z</time>
      </trkpt>
      <trkpt lat="42.3900420" lon="-8.6299680">
        <ele>37.8</ele>
        <time>2021-05-21T10:39:40Z</time>
      </trkpt>
      <trkpt lat="42.3900530" lon="-8.6299700">
        <ele>37.7</ele>
        <time>2021-05-21T10:39:41Z</time>
      </trkpt>
      <trkpt lat="42.3900700" lon="-8.6299690">
        <ele>37.7</ele>
        <time>2021-05-21T10:39:42Z</time>
      </trkpt>
      <trkpt lat="42.3900890" lon="-8.6299730">
        <ele>37.6</ele>
        <time>2021-05-21T10:39:43Z</time>
      </trkpt>
      <trkpt lat="42.3901050" lon="-8.6299720">
        <ele>37.6</ele>
        <time>2021-05-21T10:39:44Z</time>
      </trkpt>
      <trkpt lat="42.3901200" lon="-8.6299700">
        <ele>37.5</ele>
        <time>2021-05-21T10:39:45Z</time>
      </trkpt>
      <trkpt lat="42.3901370" lon="-8.6299700">
        <ele>37.5</ele>
        <time>2021-05-21T10:39:46Z</time>
      </trkpt>
      <trkpt lat="42.3901540" lon="-8.6299680">
        <ele>37.4</ele>
        <time>2021-05-21T10:39:47Z</time>
      </trkpt>
      <trkpt lat="42.3901710" lon="-8.6299600">
        <ele>37.4</ele>
        <time>2021-05-21T10:39:48Z</time>
      </trkpt>
      <trkpt lat="42.3901850" lon="-8.6299650">
        <ele>37.4</ele>
        <time>2021-05-21T10:39:49Z</time>
      </trkpt>
      <trkpt lat="42.3901980" lon="-8.6299680">
        <ele>37.3</ele>
        <time>2021-05-21T10:39:50Z</time>
      </trkpt>
      <trkpt lat="42.3902110" lon="-8.6299660">
        <ele>37.3</ele>
        <time>2021-05-21T10:39:51Z</time>
      </trkpt>
      <trkpt lat="42.3902250" lon="-8.6299570">
        <ele>37.3</ele>
        <time>2021-05-21T10:39:52Z</time>
      </trkpt>
      <trkpt lat="42.3902410" lon="-8.6299570">
        <ele>37.2</ele>
        <time>2021-05-21T10:39:53Z</time>
      </trkpt>
      <trkpt lat="42.3902550" lon="-8.6299480">
        <ele>37.2</ele>
        <time>2021-05-21T10:39:54Z</time>
      </trkpt>
      <trkpt lat="42.3902700" lon="-8.6299450">
        <ele>37.2</ele>
        <time>2021-05-21T10:39:55Z</time>
      </trkpt>
      <trkpt lat="42.3902850" lon="-8.6299370">
        <ele>37.1</ele>
        <time>2021-05-21T10:39:56Z</time>
      </trkpt>
      <trkpt lat="42.3903010" lon="-8.6299380">
        <ele>37.1</ele>
        <time>2021-05-21T10:39:57Z</time>
      </trkpt>
      <trkpt lat="42.3903160" lon="-8.6299440">
        <ele>37.1</ele>
        <time>2021-05-21T10:39:58Z</time>
      </trkpt>
      <trkpt lat="42.3903330" lon="-8.6299430">
        <ele>37.0</ele>
        <time>2021-05-21T10:39:59Z</time>
      </trkpt>
      <trkpt lat="42.3903490" lon="-8.6299450">
        <ele>37.0</ele>
        <time>2021-05-21T10:40:00Z</time>
      </trkpt>
      <trkpt lat="42.3903640" lon="-8.6299420">
        <ele>36.9</ele>
        <time>2021-05-21T10:40:01Z</time>
      </trkpt>
      <trkpt lat="42.3903790" lon="-8.6299360">
        <ele>36.9</ele>
        <time>2021-05-21T10:40:02Z</time>
      </trkpt>
      <trkpt lat="42.3903930" lon="-8.6299400">
        <ele>36.9</ele>
        <time>2021-05-21T10:40:03Z</time>
      </trkpt>
      <trkpt lat="42.3904090" lon="-8.6299340">
        <ele>36.8</ele>
        <time>2021-05-21T10:40:04Z</time>
      </trkpt>
      <trkpt lat="42.3904260" lon="-8.6299350">
        <ele>36.8</ele>
        <time>2021-05-21T10:40:05Z</time>
      </trkpt>
      <trkpt lat="42.3904400" lon="-8.6299300">
        <ele>36.8</ele>
        <time>2021-05-21T10:40:06Z</time>
      </trkpt>
      <trkpt lat="42.3904540" lon="-8.6299300">
        <ele>36.7</ele>
        <time>2021-05-21T10:40:07Z</time>
      </trkpt>
      <trkpt lat="42.3904670" lon="-8.6299200">
        <ele>36.7</ele>
        <time>2021-05-21T10:40:08Z</time>
      </trkpt>
      <trkpt lat="42.3904840" lon="-8.6299150">
        <ele>36.7</ele>
        <time>2021-05-21T10:40:09Z</time>
      </trkpt>
      <trkpt lat="42.3904990" lon="-8.6299020">
        <ele>36.6</ele>
        <time>2021-05-21T10:40:10Z</time>
      </trkpt>
      <trkpt lat="42.3905140" lon="-8.6298960">
        <ele>36.6</ele>
        <time>2021-05-21T10:40:11Z</time>
      </trkpt>
      <trkpt lat="42.3905270" lon="-8.6298830">
        <ele>36.6</ele>
        <time>2021-05-21T10:40:12Z</time>
      </trkpt>
      <trkpt lat="42.3905430" lon="-8.6298770">
        <ele>36.5</ele>
        <time>2021-05-21T10:40:13Z</time>
      </trkpt>
      <trkpt lat="42.3905560" lon="-8.6298690">
        <ele>36.5</ele>
        <time>2021-05-21T10:40:14Z</time>
      </trkpt>
      <trkpt lat="42.3905700" lon="-8.6298670">
        <ele>36.5</ele>
        <time>2021-05-21T10:40:15Z</time>
      </trkpt>
      <trkpt lat="42.3905810" lon="-8.6298530">
        <ele>36.4</ele>
        <time>2021-05-21T10:40:16Z</time>
      </trkpt>
      <trkpt lat="42.3905900" lon="-8.6298430">
        <ele>36.4</ele>
        <time>2021-05-21T10:40:17Z</time>
      </trkpt>
      <trkpt lat="42.3906020" lon="-8.6298330">
        <ele>36.4</ele>
        <time>2021-05-21T10:40:18Z</time>
      </trkpt>
      <trkpt lat="42.3906120" lon="-8.6298290">
        <ele>36.4</ele>
        <time>2021-05-21T10:40:19Z</time>
      </trkpt>
      <trkpt lat="42.3906230" lon="-8.6298220">
        <ele>36.4</ele>
        <time>2021-05-21T10:40:20Z</time>
      </trkpt>
      <trkpt lat="42.3906310" lon="-8.6298170">
        <ele>36.4</ele>
        <time>2021-05-21T10:40:21Z</time>
      </trkpt>
      <trkpt lat="42.3906410" lon="-8.6298100">
        <ele>36.4</ele>
        <time>2021-05-21T10:40:22Z</time>
      </trkpt>
      <trkpt lat="42.3906520" lon="-8.6298040">
        <ele>36.3</ele>
        <time>2021-05-21T10:40:23Z</time>
      </trkpt>
      <trkpt lat="42.3906630" lon="-8.6298000">
        <ele>36.3</ele>
        <time>2021-05-21T10:40:24Z</time>
      </trkpt>
      <trkpt lat="42.3906750" lon="-8.6297920">
        <ele>36.3</ele>
        <time>2021-05-21T10:40:25Z</time>
      </trkpt>
      <trkpt lat="42.3906840" lon="-8.6297820">
        <ele>36.3</ele>
        <time>2021-05-21T10:40:26Z</time>
      </trkpt>
      <trkpt lat="42.3906950" lon="-8.6297740">
        <ele>36.3</ele>
        <time>2021-05-21T10:40:27Z</time>
      </trkpt>
      <trkpt lat="42.3907050" lon="-8.6297690">
        <ele>36.3</ele>
        <time>2021-05-21T10:40:28Z</time>
      </trkpt>
      <trkpt lat="42.3907240" lon="-8.6297580">
        <ele>36.2</ele>
        <time>2021-05-21T10:40:29Z</time>
      </trkpt>
      <trkpt lat="42.3907320" lon="-8.6297520">
        <ele>36.2</ele>
        <time>2021-05-21T10:40:30Z</time>
      </trkpt>
      <trkpt lat="42.3907400" lon="-8.6297470">
        <ele>36.2</ele>
        <time>2021-05-21T10:40:31Z</time>
      </trkpt>
      <trkpt lat="42.3907630" lon="-8.6297440">
        <ele>36.2</ele>
        <time>2021-05-21T10:40:32Z</time>
      </trkpt>
      <trkpt lat="42.3907730" lon="-8.6297430">
        <ele>36.2</ele>
        <time>2021-05-21T10:40:33Z</time>
      </trkpt>
      <trkpt lat="42.3907820" lon="-8.6297410">
        <ele>36.2</ele>
        <time>2021-05-21T10:40:34Z</time>
      </trkpt>
      <trkpt lat="42.3907960" lon="-8.6297280">
        <ele>36.1</ele>
        <time>2021-05-21T10:40:35Z</time>
      </trkpt>
      <trkpt lat="42.3908080" lon="-8.6297210">
        <ele>36.1</ele>
        <time>2021-05-21T10:40:36Z</time>
      </trkpt>
      <trkpt lat="42.3908250" lon="-8.6297210">
        <ele>36.1</ele>
        <time>2021-05-21T10:40:37Z</time>
      </trkpt>
      <trkpt lat="42.3908400" lon="-8.6297180">
        <ele>36.1</ele>
        <time>2021-05-21T10:40:38Z</time>
      </trkpt>
      <trkpt lat="42.3908600" lon="-8.6297050">
        <ele>36.1</ele>
        <time>2021-05-21T10:40:39Z</time>
      </trkpt>
      <trkpt lat="42.3908700" lon="-8.6297050">
        <ele>36.0</ele>
        <time>2021-05-21T10:40:40Z</time>
      </trkpt>
      <trkpt lat="42.3908800" lon="-8.6297040">
        <ele>36.0</ele>
        <time>2021-05-21T10:40:41Z</time>
      </trkpt>
      <trkpt lat="42.3908960" lon="-8.6297170">
        <ele>36.0</ele>
        <time>2021-05-21T10:40:42Z</time>
      </trkpt>
      <trkpt lat="42.3909100" lon="-8.6297180">
        <ele>36.0</ele>
        <time>2021-05-21T10:40:43Z</time>
      </trkpt>
      <trkpt lat="42.3909250" lon="-8.6297170">
        <ele>36.0</ele>
        <time>2021-05-21T10:40:44Z</time>
      </trkpt>
      <trkpt lat="42.3909390" lon="-8.6297250">
        <ele>35.9</ele>
        <time>2021-05-21T10:40:45Z</time>
      </trkpt>
      <trkpt lat="42.3909540" lon="-8.6297240">
        <ele>35.9</ele>
        <time>2021-05-21T10:40:46Z</time>
      </trkpt>
      <trkpt lat="42.3909690" lon="-8.6297300">
        <ele>35.9</ele>
        <time>2021-05-21T10:40:47Z</time>
      </trkpt>
      <trkpt lat="42.3909840" lon="-8.6297240">
        <ele>35.9</ele>
        <time>2021-05-21T10:40:48Z</time>
      </trkpt>
      <trkpt lat="42.3910000" lon="-8.6297210">
        <ele>35.9</ele>
        <time>2021-05-21T10:40:49Z</time>
      </trkpt>
      <trkpt lat="42.3910170" lon="-8.6297210">
        <ele>35.8</ele>
        <time>2021-05-21T10:40:50Z</time>
      </trkpt>
      <trkpt lat="42.3910300" lon="-8.6297190">
        <ele>35.8</ele>
        <time>2021-05-21T10:40:51Z</time>
      </trkpt>
      <trkpt lat="42.3910420" lon="-8.6297140">
        <ele>35.8</ele>
        <time>2021-05-21T10:40:52Z</time>
      </trkpt>
      <trkpt lat="42.3910560" lon="-8.6297080">
        <ele>35.8</ele>
        <time>2021-05-21T10:40:53Z</time>
      </trkpt>
      <trkpt lat="42.3910690" lon="-8.6297010">
        <ele>35.8</ele>
        <time>2021-05-21T10:40:54Z</time>
      </trkpt>
      <trkpt lat="42.3910790" lon="-8.6296950">
        <ele>35.8</ele>
        <time>2021-05-21T10:40:55Z</time>
      </trkpt>
      <trkpt lat="42.3910910" lon="-8.6296920">
        <ele>35.7</ele>
        <time>2021-05-21T10:40:56Z</time>
      </trkpt>
      <trkpt lat="42.3910990" lon="-8.6296730">
        <ele>35.7</ele>
        <time>2021-05-21T10:40:57Z</time>
      </trkpt>
      <trkpt lat="42.3911100" lon="-8.6296640">
        <ele>35.7</ele>
        <time>2021-05-21T10:40:58Z</time>
      </trkpt>
      <trkpt lat="42.3911150" lon="-8.6296540">
        <ele>35.7</ele>
        <time>2021-05-21T10:40:59Z</time>
      </trkpt>
      <trkpt lat="42.3911320" lon="-8.6296530">
        <ele>35.7</ele>
        <time>2021-05-21T10:41:00Z</time>
      </trkpt>
      <trkpt lat="42.3911420" lon="-8.6296550">
        <ele>35.7</ele>
        <time>2021-05-21T10:41:01Z</time>
      </trkpt>
      <trkpt lat="42.3911510" lon="-8.6296540">
        <ele>35.6</ele>
        <time>2021-05-21T10:41:02Z</time>
      </trkpt>
      <trkpt lat="42.3911610" lon="-8.6296620">
        <ele>35.6</ele>
        <time>2021-05-21T10:41:03Z</time>
      </trkpt>
      <trkpt lat="42.3911730" lon="-8.6296620">
        <ele>35.6</ele>
        <time>2021-05-21T10:41:04Z</time>
      </trkpt>
      <trkpt lat="42.3911840" lon="-8.6296630">
        <ele>35.6</ele>
        <time>2021-05-21T10:41:05Z</time>
      </trkpt>
      <trkpt lat="42.3911960" lon="-8.6296620">
        <ele>35.6</ele>
        <time>2021-05-21T10:41:06Z</time>
      </trkpt>
      <trkpt lat="42.3912060" lon="-8.6296640">
        <ele>35.6</ele>
        <time>2021-05-21T10:41:07Z</time>
      </trkpt>
      <trkpt lat="42.3912260" lon="-8.6296580">
        <ele>35.6</ele>
        <time>2021-05-21T10:41:08Z</time>
      </trkpt>
      <trkpt lat="42.3912340" lon="-8.6296600">
        <ele>35.6</ele>
        <time>2021-05-21T10:41:09Z</time>
      </trkpt>
      <trkpt lat="42.3912430" lon="-8.6296630">
        <ele>35.6</ele>
        <time>2021-05-21T10:41:10Z</time>
      </trkpt>
      <trkpt lat="42.3912560" lon="-8.6296660">
        <ele>35.5</ele>
        <time>2021-05-21T10:41:11Z</time>
      </trkpt>
      <trkpt lat="42.3912700" lon="-8.6296730">
        <ele>35.5</ele>
        <time>2021-05-21T10:41:12Z</time>
      </trkpt>
      <trkpt lat="42.3912850" lon="-8.6296780">
        <ele>35.5</ele>
        <time>2021-05-21T10:41:13Z</time>
      </trkpt>
      <trkpt lat="42.3912980" lon="-8.6296810">
        <ele>35.5</ele>
        <time>2021-05-21T10:41:14Z</time>
      </trkpt>
      <trkpt lat="42.3913120" lon="-8.6296850">
        <ele>35.5</ele>
        <time>2021-05-21T10:41:15Z</time>
      </trkpt>
      <trkpt lat="42.3913280" lon="-8.6296830">
        <ele>35.5</ele>
        <time>2021-05-21T10:41:16Z</time>
      </trkpt>
      <trkpt lat="42.3913540" lon="-8.6296900">
        <ele>35.5</ele>
        <time>2021-05-21T10:41:17Z</time>
      </trkpt>
      <trkpt lat="42.3913660" lon="-8.6296930">
        <ele>35.4</ele>
        <time>2021-05-21T10:41:18Z</time>
      </trkpt>
      <trkpt lat="42.3913780" lon="-8.6296900">
        <ele>35.4</ele>
        <time>2021-05-21T10:41:19Z</time>
      </trkpt>
      <trkpt lat="42.3913960" lon="-8.6296900">
        <ele>35.4</ele>
        <time>2021-05-21T10:41:20Z</time>
      </trkpt>
      <trkpt lat="42.3914090" lon="-8.6296910">
        <ele>35.4</ele>
        <time>2021-05-21T10:41:21Z</time>
      </trkpt>
      <trkpt lat="42.3914210" lon="-8.6297060">
        <ele>35.4</ele>
        <time>2021-05-21T10:41:22Z</time>
      </trkpt>
      <trkpt lat="42.3914350" lon="-8.6297120">
        <ele>35.4</ele>
        <time>2021-05-21T10:41:23Z</time>
      </trkpt>
      <trkpt lat="42.3914520" lon="-8.6297070">
        <ele>35.4</ele>
        <time>2021-05-21T10:41:24Z</time>
      </trkpt>
      <trkpt lat="42.3914730" lon="-8.6297130">
        <ele>35.4</ele>
        <time>2021-05-21T10:41:25Z</time>
      </trkpt>
      <trkpt lat="42.3914820" lon="-8.6297180">
        <ele>35.3</ele>
        <time>2021-05-21T10:41:26Z</time>
      </trkpt>
      <trkpt lat="42.3914900" lon="-8.6297230">
        <ele>35.3</ele>
        <time>2021-05-21T10:41:27Z</time>
      </trkpt>
      <trkpt lat="42.3915110" lon="-8.6297300">
        <ele>35.3</ele>
        <time>2021-05-21T10:41:28Z</time>
      </trkpt>
      <trkpt lat="42.3915200" lon="-8.6297350">
        <ele>35.3</ele>
        <time>2021-05-21T10:41:29Z</time>
      </trkpt>
      <trkpt lat="42.3915290" lon="-8.6297390">
        <ele>35.3</ele>
        <time>2021-05-21T10:41:30Z</time>
      </trkpt>
      <trkpt lat="42.3915410" lon="-8.6297420">
        <ele>35.3</ele>
        <time>2021-05-21T10:41:31Z</time>
      </trkpt>
      <trkpt lat="42.3915540" lon="-8.6297410">
        <ele>35.3</ele>
        <time>2021-05-21T10:41:32Z</time>
      </trkpt>
      <trkpt lat="42.3915650" lon="-8.6297380">
        <ele>35.2</ele>
        <time>2021-05-21T10:41:33Z</time>
      </trkpt>
      <trkpt lat="42.3915870" lon="-8.6297360">
        <ele>35.2</ele>
        <time>2021-05-21T10:41:34Z</time>
      </trkpt>
      <trkpt lat="42.3915950" lon="-8.6297360">
        <ele>35.2</ele>
        <time>2021-05-21T10:41:35Z</time>
      </trkpt>
      <trkpt lat="42.3916040" lon="-8.6297370">
        <ele>35.2</ele>
        <time>2021-05-21T10:41:36Z</time>
      </trkpt>
      <trkpt lat="42.3916170" lon="-8.6297210">
        <ele>35.2</ele>
        <time>2021-05-21T10:41:37Z</time>
      </trkpt>
      <trkpt lat="42.3916330" lon="-8.6297290">
        <ele>35.1</ele>
        <time>2021-05-21T10:41:38Z</time>
      </trkpt>
      <trkpt lat="42.3916460" lon="-8.6297350">
        <ele>35.1</ele>
        <time>2021-05-21T10:41:39Z</time>
      </trkpt>
      <trkpt lat="42.3916590" lon="-8.6297380">
        <ele>35.1</ele>
        <time>2021-05-21T10:41:40Z</time>
      </trkpt>
      <trkpt lat="42.3916700" lon="-8.6297380">
        <ele>35.1</ele>
        <time>2021-05-21T10:41:41Z</time>
      </trkpt>
      <trkpt lat="42.3916810" lon="-8.6297370">
        <ele>35.1</ele>
        <time>2021-05-21T10:41:42Z</time>
      </trkpt>
      <trkpt lat="42.3916950" lon="-8.6297440">
        <ele>35.1</ele>
        <time>2021-05-21T10:41:43Z</time>
      </trkpt>
      <trkpt lat="42.3917060" lon="-8.6297530">
        <ele>35.0</ele>
        <time>2021-05-21T10:41:44Z</time>
      </trkpt>
      <trkpt lat="42.3917230" lon="-8.6297530">
        <ele>35.0</ele>
        <time>2021-05-21T10:41:45Z</time>
      </trkpt>
      <trkpt lat="42.3917360" lon="-8.6297550">
        <ele>35.0</ele>
        <time>2021-05-21T10:41:46Z</time>
      </trkpt>
      <trkpt lat="42.3917490" lon="-8.6297640">
        <ele>35.0</ele>
        <time>2021-05-21T10:41:47Z</time>
      </trkpt>
      <trkpt lat="42.3917630" lon="-8.6297780">
        <ele>35.0</ele>
        <time>2021-05-21T10:41:48Z</time>
      </trkpt>
      <trkpt lat="42.3917760" lon="-8.6297870">
        <ele>34.9</ele>
        <time>2021-05-21T10:41:49Z</time>
      </trkpt>
      <trkpt lat="42.3917880" lon="-8.6297950">
        <ele>34.9</ele>
        <time>2021-05-21T10:41:50Z</time>
      </trkpt>
      <trkpt lat="42.3918020" lon="-8.6298010">
        <ele>34.9</ele>
        <time>2021-05-21T10:41:51Z</time>
      </trkpt>
      <trkpt lat="42.3918150" lon="-8.6298050">
        <ele>34.9</ele>
        <time>2021-05-21T10:41:52Z</time>
      </trkpt>
      <trkpt lat="42.3918260" lon="-8.6298250">
        <ele>34.9</ele>
        <time>2021-05-21T10:41:53Z</time>
      </trkpt>
      <trkpt lat="42.3918390" lon="-8.6298290">
        <ele>34.9</ele>
        <time>2021-05-21T10:41:54Z</time>
      </trkpt>
      <trkpt lat="42.3918530" lon="-8.6298300">
        <ele>34.9</ele>
        <time>2021-05-21T10:41:55Z</time>
      </trkpt>
      <trkpt lat="42.3918650" lon="-8.6298390">
        <ele>34.9</ele>
        <time>2021-05-21T10:41:56Z</time>
      </trkpt>
      <trkpt lat="42.3918790" lon="-8.6298440">
        <ele>34.8</ele>
        <time>2021-05-21T10:41:57Z</time>
      </trkpt>
      <trkpt lat="42.3918910" lon="-8.6298520">
        <ele>34.8</ele>
        <time>2021-05-21T10:41:58Z</time>
      </trkpt>
      <trkpt lat="42.3919060" lon="-8.6298550">
        <ele>34.8</ele>
        <time>2021-05-21T10:41:59Z</time>
      </trkpt>
      <trkpt lat="42.3919190" lon="-8.6298620">
        <ele>34.8</ele>
        <time>2021-05-21T10:42:00Z</time>
      </trkpt>
      <trkpt lat="42.3919310" lon="-8.6298700">
        <ele>34.8</ele>
        <time>2021-05-21T10:42:01Z</time>
      </trkpt>
      <trkpt lat="42.3919440" lon="-8.6298790">
        <ele>34.8</ele>
        <time>2021-05-21T10:42:02Z</time>
      </trkpt>
      <trkpt lat="42.3919580" lon="-8.6298750">
        <ele>34.8</ele>
        <time>2021-05-21T10:42:03Z</time>
      </trkpt>
      <trkpt lat="42.3919710" lon="-8.6298800">
        <ele>34.8</ele>
        <time>2021-05-21T10:42:04Z</time>
      </trkpt>
      <trkpt lat="42.3919860" lon="-8.6298800">
        <ele>34.8</ele>
        <time>2021-05-21T10:42:05Z</time>
      </trkpt>
      <trkpt lat="42.3919990" lon="-8.6298740">
        <ele>34.8</ele>
        <time>2021-05-21T10:42:06Z</time>
      </trkpt>
      <trkpt lat="42.3920090" lon="-8.6298840">
        <ele>34.8</ele>
        <time>2021-05-21T10:42:07Z</time>
      </trkpt>
      <trkpt lat="42.3920200" lon="-8.6298890">
        <ele>34.8</ele>
        <time>2021-05-21T10:42:08Z</time>
      </trkpt>
      <trkpt lat="42.3920320" lon="-8.6298970">
        <ele>34.8</ele>
        <time>2021-05-21T10:42:09Z</time>
      </trkpt>
      <trkpt lat="42.3920450" lon="-8.6299000">
        <ele>34.7</ele>
        <time>2021-05-21T10:42:10Z</time>
      </trkpt>
      <trkpt lat="42.3920710" lon="-8.6299120">
        <ele>34.7</ele>
        <time>2021-05-21T10:42:12Z</time>
      </trkpt>
      <trkpt lat="42.3920860" lon="-8.6299090">
        <ele>34.7</ele>
        <time>2021-05-21T10:42:13Z</time>
      </trkpt>
      <trkpt lat="42.3921000" lon="-8.6299020">
        <ele>34.7</ele>
        <time>2021-05-21T10:42:14Z</time>
      </trkpt>
      <trkpt lat="42.3921140" lon="-8.6298990">
        <ele>34.7</ele>
        <time>2021-05-21T10:42:15Z</time>
      </trkpt>
      <trkpt lat="42.3921280" lon="-8.6298940">
        <ele>34.7</ele>
        <time>2021-05-21T10:42:16Z</time>
      </trkpt>
      <trkpt lat="42.3921410" lon="-8.6298950">
        <ele>34.7</ele>
        <time>2021-05-21T10:42:17Z</time>
      </trkpt>
      <trkpt lat="42.3921590" lon="-8.6298930">
        <ele>34.7</ele>
        <time>2021-05-21T10:42:18Z</time>
      </trkpt>
      <trkpt lat="42.3921710" lon="-8.6298940">
        <ele>34.6</ele>
        <time>2021-05-21T10:42:19Z</time>
      </trkpt>
      <trkpt lat="42.3921830" lon="-8.6298830">
        <ele>34.6</ele>
        <time>2021-05-21T10:42:20Z</time>
      </trkpt>
      <trkpt lat="42.3921980" lon="-8.6298880">
        <ele>34.6</ele>
        <time>2021-05-21T10:42:21Z</time>
      </trkpt>
      <trkpt lat="42.3922130" lon="-8.6298840">
        <ele>34.6</ele>
        <time>2021-05-21T10:42:22Z</time>
      </trkpt>
      <trkpt lat="42.3922260" lon="-8.6298800">
        <ele>34.6</ele>
        <time>2021-05-21T10:42:24Z</time>
      </trkpt>
      <trkpt lat="42.3922400" lon="-8.6298840">
        <ele>34.6</ele>
        <time>2021-05-21T10:42:25Z</time>
      </trkpt>
      <trkpt lat="42.3922540" lon="-8.6298850">
        <ele>34.6</ele>
        <time>2021-05-21T10:42:26Z</time>
      </trkpt>
      <trkpt lat="42.3922690" lon="-8.6298770">
        <ele>34.6</ele>
        <time>2021-05-21T10:42:27Z</time>
      </trkpt>
      <trkpt lat="42.3922850" lon="-8.6298830">
        <ele>34.6</ele>
        <time>2021-05-21T10:42:28Z</time>
      </trkpt>
      <trkpt lat="42.3922970" lon="-8.6298700">
        <ele>34.6</ele>
        <time>2021-05-21T10:42:29Z</time>
      </trkpt>
      <trkpt lat="42.3923090" lon="-8.6298640">
        <ele>34.6</ele>
        <time>2021-05-21T10:42:30Z</time>
      </trkpt>
      <trkpt lat="42.3923220" lon="-8.6298580">
        <ele>34.5</ele>
        <time>2021-05-21T10:42:31Z</time>
      </trkpt>
      <trkpt lat="42.3923390" lon="-8.6298600">
        <ele>34.5</ele>
        <time>2021-05-21T10:42:32Z</time>
      </trkpt>
      <trkpt lat="42.3923520" lon="-8.6298460">
        <ele>34.5</ele>
        <time>2021-05-21T10:42:33Z</time>
      </trkpt>
      <trkpt lat="42.3923630" lon="-8.6298400">
        <ele>34.5</ele>
        <time>2021-05-21T10:42:34Z</time>
      </trkpt>
      <trkpt lat="42.3923840" lon="-8.6298310">
        <ele>34.5</ele>
        <time>2021-05-21T10:42:35Z</time>
      </trkpt>
      <trkpt lat="42.3923930" lon="-8.6298290">
        <ele>34.5</ele>
        <time>2021-05-21T10:42:36Z</time>
      </trkpt>
      <trkpt lat="42.3924020" lon="-8.6298280">
        <ele>34.5</ele>
        <time>2021-05-21T10:42:37Z</time>
      </trkpt>
      <trkpt lat="42.3924250" lon="-8.6298280">
        <ele>34.5</ele>
        <time>2021-05-21T10:42:38Z</time>
      </trkpt>
      <trkpt lat="42.3924330" lon="-8.6298260">
        <ele>34.5</ele>
        <time>2021-05-21T10:42:39Z</time>
      </trkpt>
      <trkpt lat="42.3924420" lon="-8.6298240">
        <ele>34.5</ele>
        <time>2021-05-21T10:42:40Z</time>
      </trkpt>
      <trkpt lat="42.3924570" lon="-8.6298260">
        <ele>34.5</ele>
        <time>2021-05-21T10:42:41Z</time>
      </trkpt>
      <trkpt lat="42.3924710" lon="-8.6298230">
        <ele>34.5</ele>
        <time>2021-05-21T10:42:42Z</time>
      </trkpt>
      <trkpt lat="42.3924810" lon="-8.6298130">
        <ele>34.5</ele>
        <time>2021-05-21T10:42:43Z</time>
      </trkpt>
      <trkpt lat="42.3924950" lon="-8.6298050">
        <ele>34.5</ele>
        <time>2021-05-21T10:42:44Z</time>
      </trkpt>
      <trkpt lat="42.3925070" lon="-8.6297990">
        <ele>34.5</ele>
        <time>2021-05-21T10:42:45Z</time>
      </trkpt>
      <trkpt lat="42.3925210" lon="-8.6297900">
        <ele>34.4</ele>
        <time>2021-05-21T10:42:46Z</time>
      </trkpt>
      <trkpt lat="42.3925370" lon="-8.6297860">
        <ele>34.4</ele>
        <time>2021-05-21T10:42:47Z</time>
      </trkpt>
      <trkpt lat="42.3925480" lon="-8.6297770">
        <ele>34.4</ele>
        <time>2021-05-21T10:42:48Z</time>
      </trkpt>
      <trkpt lat="42.3925620" lon="-8.6297740">
        <ele>34.4</ele>
        <time>2021-05-21T10:42:49Z</time>
      </trkpt>
      <trkpt lat="42.3925770" lon="-8.6297720">
        <ele>34.4</ele>
        <time>2021-05-21T10:42:50Z</time>
      </trkpt>
      <trkpt lat="42.3925970" lon="-8.6297630">
        <ele>34.4</ele>
        <time>2021-05-21T10:42:51Z</time>
      </trkpt>
      <trkpt lat="42.3926040" lon="-8.6297610">
        <ele>34.4</ele>
        <time>2021-05-21T10:42:52Z</time>
      </trkpt>
      <trkpt lat="42.3926120" lon="-8.6297580">
        <ele>34.4</ele>
        <time>2021-05-21T10:42:53Z</time>
      </trkpt>
      <trkpt lat="42.3926250" lon="-8.6297520">
        <ele>34.4</ele>
        <time>2021-05-21T10:42:54Z</time>
      </trkpt>
      <trkpt lat="42.3926400" lon="-8.6297400">
        <ele>34.3</ele>
        <time>2021-05-21T10:42:55Z</time>
      </trkpt>
      <trkpt lat="42.3926550" lon="-8.6297370">
        <ele>34.3</ele>
        <time>2021-05-21T10:42:56Z</time>
      </trkpt>
      <trkpt lat="42.3926690" lon="-8.6297370">
        <ele>34.3</ele>
        <time>2021-05-21T10:42:57Z</time>
      </trkpt>
      <trkpt lat="42.3926840" lon="-8.6297390">
        <ele>34.3</ele>
        <time>2021-05-21T10:42:58Z</time>
      </trkpt>
      <trkpt lat="42.3926970" lon="-8.6297280">
        <ele>34.3</ele>
        <time>2021-05-21T10:42:59Z</time>
      </trkpt>
      <trkpt lat="42.3927090" lon="-8.6297260">
        <ele>34.3</ele>
        <time>2021-05-21T10:43:00Z</time>
      </trkpt>
      <trkpt lat="42.3927250" lon="-8.6297240">
        <ele>34.3</ele>
        <time>2021-05-21T10:43:01Z</time>
      </trkpt>
      <trkpt lat="42.3927380" lon="-8.6297220">
        <ele>34.3</ele>
        <time>2021-05-21T10:43:02Z</time>
      </trkpt>
      <trkpt lat="42.3927540" lon="-8.6297280">
        <ele>34.3</ele>
        <time>2021-05-21T10:43:03Z</time>
      </trkpt>
      <trkpt lat="42.3927690" lon="-8.6297200">
        <ele>34.3</ele>
        <time>2021-05-21T10:43:04Z</time>
      </trkpt>
      <trkpt lat="42.3927850" lon="-8.6297150">
        <ele>34.3</ele>
        <time>2021-05-21T10:43:05Z</time>
      </trkpt>
      <trkpt lat="42.3928000" lon="-8.6297090">
        <ele>34.3</ele>
        <time>2021-05-21T10:43:06Z</time>
      </trkpt>
      <trkpt lat="42.3928150" lon="-8.6297080">
        <ele>34.2</ele>
        <time>2021-05-21T10:43:07Z</time>
      </trkpt>
      <trkpt lat="42.3928300" lon="-8.6296990">
        <ele>34.2</ele>
        <time>2021-05-21T10:43:08Z</time>
      </trkpt>
      <trkpt lat="42.3928440" lon="-8.6296980">
        <ele>34.2</ele>
        <time>2021-05-21T10:43:09Z</time>
      </trkpt>
      <trkpt lat="42.3928580" lon="-8.6296930">
        <ele>34.2</ele>
        <time>2021-05-21T10:43:10Z</time>
      </trkpt>
      <trkpt lat="42.3928730" lon="-8.6296850">
        <ele>34.2</ele>
        <time>2021-05-21T10:43:11Z</time>
      </trkpt>
      <trkpt lat="42.3928860" lon="-8.6296770">
        <ele>34.2</ele>
        <time>2021-05-21T10:43:12Z</time>
      </trkpt>
      <trkpt lat="42.3929000" lon="-8.6296800">
        <ele>34.2</ele>
        <time>2021-05-21T10:43:13Z</time>
      </trkpt>
      <trkpt lat="42.3929100" lon="-8.6296810">
        <ele>34.2</ele>
        <time>2021-05-21T10:43:14Z</time>
      </trkpt>
      <trkpt lat="42.3929210" lon="-8.6296740">
        <ele>34.2</ele>
        <time>2021-05-21T10:43:15Z</time>
      </trkpt>
      <trkpt lat="42.3929340" lon="-8.6296640">
        <ele>34.2</ele>
        <time>2021-05-21T10:43:16Z</time>
      </trkpt>
      <trkpt lat="42.3929490" lon="-8.6296610">
        <ele>34.2</ele>
        <time>2021-05-21T10:43:17Z</time>
      </trkpt>
      <trkpt lat="42.3929610" lon="-8.6296550">
        <ele>34.1</ele>
        <time>2021-05-21T10:43:18Z</time>
      </trkpt>
      <trkpt lat="42.3929720" lon="-8.6296490">
        <ele>34.1</ele>
        <time>2021-05-21T10:43:19Z</time>
      </trkpt>
      <trkpt lat="42.3929830" lon="-8.6296430">
        <ele>34.1</ele>
        <time>2021-05-21T10:43:20Z</time>
      </trkpt>
      <trkpt lat="42.3929970" lon="-8.6296470">
        <ele>34.1</ele>
        <time>2021-05-21T10:43:21Z</time>
      </trkpt>
      <trkpt lat="42.3930210" lon="-8.6296400">
        <ele>34.1</ele>
        <time>2021-05-21T10:43:22Z</time>
      </trkpt>
      <trkpt lat="42.3930350" lon="-8.6296390">
        <ele>34.1</ele>
        <time>2021-05-21T10:43:23Z</time>
      </trkpt>
      <trkpt lat="42.3930480" lon="-8.6296370">
        <ele>34.0</ele>
        <time>2021-05-21T10:43:24Z</time>
      </trkpt>
      <trkpt lat="42.3930660" lon="-8.6296270">
        <ele>34.0</ele>
        <time>2021-05-21T10:43:25Z</time>
      </trkpt>
      <trkpt lat="42.3930720" lon="-8.6296260">
        <ele>34.0</ele>
        <time>2021-05-21T10:43:26Z</time>
      </trkpt>
      <trkpt lat="42.3930850" lon="-8.6296180">
        <ele>34.0</ele>
        <time>2021-05-21T10:43:27Z</time>
      </trkpt>
      <trkpt lat="42.3930990" lon="-8.6296150">
        <ele>34.0</ele>
        <time>2021-05-21T10:43:28Z</time>
      </trkpt>
      <trkpt lat="42.3931110" lon="-8.6296120">
        <ele>34.0</ele>
        <time>2021-05-21T10:43:29Z</time>
      </trkpt>
      <trkpt lat="42.3931230" lon="-8.6296070">
        <ele>34.0</ele>
        <time>2021-05-21T10:43:30Z</time>
      </trkpt>
      <trkpt lat="42.3931350" lon="-8.6296070">
        <ele>34.0</ele>
        <time>2021-05-21T10:43:31Z</time>
      </trkpt>
      <trkpt lat="42.3931470" lon="-8.6295980">
        <ele>33.9</ele>
        <time>2021-05-21T10:43:32Z</time>
      </trkpt>
      <trkpt lat="42.3931640" lon="-8.6295980">
        <ele>33.9</ele>
        <time>2021-05-21T10:43:33Z</time>
      </trkpt>
      <trkpt lat="42.3931770" lon="-8.6295920">
        <ele>33.9</ele>
        <time>2021-05-21T10:43:34Z</time>
      </trkpt>
      <trkpt lat="42.3931910" lon="-8.6295930">
        <ele>33.9</ele>
        <time>2021-05-21T10:43:35Z</time>
      </trkpt>
      <trkpt lat="42.3932120" lon="-8.6295890">
        <ele>33.9</ele>
        <time>2021-05-21T10:43:36Z</time>
      </trkpt>
      <trkpt lat="42.3932210" lon="-8.6295880">
        <ele>33.9</ele>
        <time>2021-05-21T10:43:37Z</time>
      </trkpt>
      <trkpt lat="42.3932300" lon="-8.6295860">
        <ele>33.9</ele>
        <time>2021-05-21T10:43:38Z</time>
      </trkpt>
      <trkpt lat="42.3932440" lon="-8.6295850">
        <ele>33.9</ele>
        <time>2021-05-21T10:43:39Z</time>
      </trkpt>
      <trkpt lat="42.3932600" lon="-8.6295900">
        <ele>33.9</ele>
        <time>2021-05-21T10:43:40Z</time>
      </trkpt>
      <trkpt lat="42.3932740" lon="-8.6295880">
        <ele>33.9</ele>
        <time>2021-05-21T10:43:41Z</time>
      </trkpt>
      <trkpt lat="42.3932910" lon="-8.6295950">
        <ele>33.9</ele>
        <time>2021-05-21T10:43:42Z</time>
      </trkpt>
      <trkpt lat="42.3932950" lon="-8.6296010">
        <ele>33.9</ele>
        <time>2021-05-21T10:43:43Z</time>
      </trkpt>
      <trkpt lat="42.3933090" lon="-8.6295980">
        <ele>33.9</ele>
        <time>2021-05-21T10:43:44Z</time>
      </trkpt>
      <trkpt lat="42.3933210" lon="-8.6295700">
        <ele>33.8</ele>
        <time>2021-05-21T10:43:45Z</time>
      </trkpt>
      <trkpt lat="42.3933360" lon="-8.6295660">
        <ele>33.8</ele>
        <time>2021-05-21T10:43:46Z</time>
      </trkpt>
      <trkpt lat="42.3933500" lon="-8.6295460">
        <ele>33.8</ele>
        <time>2021-05-21T10:43:47Z</time>
      </trkpt>
      <trkpt lat="42.3933710" lon="-8.6295370">
        <ele>33.8</ele>
        <time>2021-05-21T10:43:48Z</time>
      </trkpt>
      <trkpt lat="42.3933800" lon="-8.6295400">
        <ele>33.8</ele>
        <time>2021-05-21T10:43:49Z</time>
      </trkpt>
      <trkpt lat="42.3933900" lon="-8.6295420">
        <ele>33.8</ele>
        <time>2021-05-21T10:43:50Z</time>
      </trkpt>
      <trkpt lat="42.3934050" lon="-8.6295340">
        <ele>33.8</ele>
        <time>2021-05-21T10:43:51Z</time>
      </trkpt>
      <trkpt lat="42.3934190" lon="-8.6295350">
        <ele>33.8</ele>
        <time>2021-05-21T10:43:52Z</time>
      </trkpt>
      <trkpt lat="42.3934360" lon="-8.6295380">
        <ele>33.8</ele>
        <time>2021-05-21T10:43:53Z</time>
      </trkpt>
      <trkpt lat="42.3934520" lon="-8.6295390">
        <ele>33.8</ele>
        <time>2021-05-21T10:43:54Z</time>
      </trkpt>
      <trkpt lat="42.3934750" lon="-8.6295350">
        <ele>33.8</ele>
        <time>2021-05-21T10:43:55Z</time>
      </trkpt>
      <trkpt lat="42.3934840" lon="-8.6295320">
        <ele>33.8</ele>
        <time>2021-05-21T10:43:56Z</time>
      </trkpt>
      <trkpt lat="42.3934940" lon="-8.6295290">
        <ele>33.8</ele>
        <time>2021-05-21T10:43:57Z</time>
      </trkpt>
      <trkpt lat="42.3935100" lon="-8.6295330">
        <ele>33.8</ele>
        <time>2021-05-21T10:43:58Z</time>
      </trkpt>
      <trkpt lat="42.3935270" lon="-8.6295280">
        <ele>33.8</ele>
        <time>2021-05-21T10:43:59Z</time>
      </trkpt>
      <trkpt lat="42.3935410" lon="-8.6295190">
        <ele>33.8</ele>
        <time>2021-05-21T10:44:00Z</time>
      </trkpt>
      <trkpt lat="42.3935560" lon="-8.6295130">
        <ele>33.8</ele>
        <time>2021-05-21T10:44:01Z</time>
      </trkpt>
      <trkpt lat="42.3935710" lon="-8.6295140">
        <ele>33.8</ele>
        <time>2021-05-21T10:44:02Z</time>
      </trkpt>
      <trkpt lat="42.3935840" lon="-8.6295160">
        <ele>33.8</ele>
        <time>2021-05-21T10:44:03Z</time>
      </trkpt>
      <trkpt lat="42.3936050" lon="-8.6295130">
        <ele>33.8</ele>
        <time>2021-05-21T10:44:04Z</time>
      </trkpt>
      <trkpt lat="42.3936150" lon="-8.6295120">
        <ele>33.8</ele>
        <time>2021-05-21T10:44:05Z</time>
      </trkpt>
      <trkpt lat="42.3936250" lon="-8.6295120">
        <ele>33.8</ele>
        <time>2021-05-21T10:44:06Z</time>
      </trkpt>
      <trkpt lat="42.3936500" lon="-8.6294920">
        <ele>33.8</ele>
        <time>2021-05-21T10:44:07Z</time>
      </trkpt>
      <trkpt lat="42.3936570" lon="-8.6294850">
        <ele>33.8</ele>
        <time>2021-05-21T10:44:08Z</time>
      </trkpt>
      <trkpt lat="42.3936710" lon="-8.6294740">
        <ele>33.8</ele>
        <time>2021-05-21T10:44:09Z</time>
      </trkpt>
      <trkpt lat="42.3936860" lon="-8.6294710">
        <ele>33.8</ele>
        <time>2021-05-21T10:44:10Z</time>
      </trkpt>
      <trkpt lat="42.3937030" lon="-8.6294710">
        <ele>33.8</ele>
        <time>2021-05-21T10:44:11Z</time>
      </trkpt>
      <trkpt lat="42.3937160" lon="-8.6294650">
        <ele>33.8</ele>
        <time>2021-05-21T10:44:12Z</time>
      </trkpt>
      <trkpt lat="42.3937300" lon="-8.6294660">
        <ele>33.8</ele>
        <time>2021-05-21T10:44:13Z</time>
      </trkpt>
      <trkpt lat="42.3937430" lon="-8.6294690">
        <ele>33.8</ele>
        <time>2021-05-21T10:44:14Z</time>
      </trkpt>
      <trkpt lat="42.3937630" lon="-8.6294630">
        <ele>33.8</ele>
        <time>2021-05-21T10:44:15Z</time>
      </trkpt>
      <trkpt lat="42.3937710" lon="-8.6294570">
        <ele>33.8</ele>
        <time>2021-05-21T10:44:16Z</time>
      </trkpt>
      <trkpt lat="42.3937780" lon="-8.6294520">
        <ele>33.8</ele>
        <time>2021-05-21T10:44:17Z</time>
      </trkpt>
      <trkpt lat="42.3937910" lon="-8.6294490">
        <ele>33.8</ele>
        <time>2021-05-21T10:44:18Z</time>
      </trkpt>
      <trkpt lat="42.3938050" lon="-8.6294390">
        <ele>33.8</ele>
        <time>2021-05-21T10:44:19Z</time>
      </trkpt>
      <trkpt lat="42.3938160" lon="-8.6294260">
        <ele>33.8</ele>
        <time>2021-05-21T10:44:20Z</time>
      </trkpt>
      <trkpt lat="42.3938280" lon="-8.6294220">
        <ele>33.8</ele>
        <time>2021-05-21T10:44:21Z</time>
      </trkpt>
      <trkpt lat="42.3938390" lon="-8.6294220">
        <ele>33.8</ele>
        <time>2021-05-21T10:44:22Z</time>
      </trkpt>
      <trkpt lat="42.3938510" lon="-8.6294250">
        <ele>33.8</ele>
        <time>2021-05-21T10:44:23Z</time>
      </trkpt>
      <trkpt lat="42.3938630" lon="-8.6294240">
        <ele>33.8</ele>
        <time>2021-05-21T10:44:24Z</time>
      </trkpt>
      <trkpt lat="42.3938720" lon="-8.6294190">
        <ele>33.9</ele>
        <time>2021-05-21T10:44:25Z</time>
      </trkpt>
      <trkpt lat="42.3938860" lon="-8.6294070">
        <ele>33.9</ele>
        <time>2021-05-21T10:44:26Z</time>
      </trkpt>
      <trkpt lat="42.3939010" lon="-8.6294160">
        <ele>33.9</ele>
        <time>2021-05-21T10:44:27Z</time>
      </trkpt>
      <trkpt lat="42.3939130" lon="-8.6294280">
        <ele>33.9</ele>
        <time>2021-05-21T10:44:28Z</time>
      </trkpt>
      <trkpt lat="42.3939270" lon="-8.6294370">
        <ele>33.9</ele>
        <time>2021-05-21T10:44:29Z</time>
      </trkpt>
      <trkpt lat="42.3939420" lon="-8.6294450">
        <ele>33.9</ele>
        <time>2021-05-21T10:44:30Z</time>
      </trkpt>
      <trkpt lat="42.3939530" lon="-8.6294560">
        <ele>33.9</ele>
        <time>2021-05-21T10:44:31Z</time>
      </trkpt>
      <trkpt lat="42.3939640" lon="-8.6294550">
        <ele>33.9</ele>
        <time>2021-05-21T10:44:32Z</time>
      </trkpt>
      <trkpt lat="42.3939740" lon="-8.6294650">
        <ele>33.9</ele>
        <time>2021-05-21T10:44:33Z</time>
      </trkpt>
      <trkpt lat="42.3939870" lon="-8.6294740">
        <ele>33.9</ele>
        <time>2021-05-21T10:44:34Z</time>
      </trkpt>
      <trkpt lat="42.3940180" lon="-8.6294800">
        <ele>33.9</ele>
        <time>2021-05-21T10:44:36Z</time>
      </trkpt>
      <trkpt lat="42.3940300" lon="-8.6294830">
        <ele>33.9</ele>
        <time>2021-05-21T10:44:37Z</time>
      </trkpt>
      <trkpt lat="42.3940450" lon="-8.6294790">
        <ele>33.9</ele>
        <time>2021-05-21T10:44:38Z</time>
      </trkpt>
      <trkpt lat="42.3940600" lon="-8.6294790">
        <ele>33.9</ele>
        <time>2021-05-21T10:44:39Z</time>
      </trkpt>
      <trkpt lat="42.3940750" lon="-8.6294860">
        <ele>33.9</ele>
        <time>2021-05-21T10:44:40Z</time>
      </trkpt>
      <trkpt lat="42.3940910" lon="-8.6294870">
        <ele>33.9</ele>
        <time>2021-05-21T10:44:41Z</time>
      </trkpt>
      <trkpt lat="42.3941040" lon="-8.6294860">
        <ele>33.9</ele>
        <time>2021-05-21T10:44:42Z</time>
      </trkpt>
      <trkpt lat="42.3941190" lon="-8.6294880">
        <ele>33.9</ele>
        <time>2021-05-21T10:44:43Z</time>
      </trkpt>
      <trkpt lat="42.3941300" lon="-8.6294830">
        <ele>33.9</ele>
        <time>2021-05-21T10:44:44Z</time>
      </trkpt>
      <trkpt lat="42.3941380" lon="-8.6294790">
        <ele>33.9</ele>
        <time>2021-05-21T10:44:45Z</time>
      </trkpt>
      <trkpt lat="42.3941480" lon="-8.6294810">
        <ele>33.9</ele>
        <time>2021-05-21T10:44:46Z</time>
      </trkpt>
      <trkpt lat="42.3941580" lon="-8.6294790">
        <ele>33.9</ele>
        <time>2021-05-21T10:44:47Z</time>
      </trkpt>
      <trkpt lat="42.3941710" lon="-8.6294700">
        <ele>33.9</ele>
        <time>2021-05-21T10:44:48Z</time>
      </trkpt>
      <trkpt lat="42.3941820" lon="-8.6294650">
        <ele>33.9</ele>
        <time>2021-05-21T10:44:49Z</time>
      </trkpt>
      <trkpt lat="42.3941900" lon="-8.6294580">
        <ele>33.9</ele>
        <time>2021-05-21T10:44:50Z</time>
      </trkpt>
      <trkpt lat="42.3942000" lon="-8.6294500">
        <ele>33.9</ele>
        <time>2021-05-21T10:44:51Z</time>
      </trkpt>
      <trkpt lat="42.3942140" lon="-8.6294450">
        <ele>33.9</ele>
        <time>2021-05-21T10:44:52Z</time>
      </trkpt>
      <trkpt lat="42.3942270" lon="-8.6294450">
        <ele>33.9</ele>
        <time>2021-05-21T10:44:53Z</time>
      </trkpt>
      <trkpt lat="42.3942360" lon="-8.6294430">
        <ele>33.9</ele>
        <time>2021-05-21T10:44:54Z</time>
      </trkpt>
      <trkpt lat="42.3942500" lon="-8.6294440">
        <ele>33.9</ele>
        <time>2021-05-21T10:44:55Z</time>
      </trkpt>
      <trkpt lat="42.3942620" lon="-8.6294370">
        <ele>33.9</ele>
        <time>2021-05-21T10:44:56Z</time>
      </trkpt>
      <trkpt lat="42.3942850" lon="-8.6294320">
        <ele>33.9</ele>
        <time>2021-05-21T10:44:57Z</time>
      </trkpt>
      <trkpt lat="42.3942930" lon="-8.6294280">
        <ele>33.9</ele>
        <time>2021-05-21T10:44:58Z</time>
      </trkpt>
      <trkpt lat="42.3943020" lon="-8.6294250">
        <ele>33.9</ele>
        <time>2021-05-21T10:44:59Z</time>
      </trkpt>
      <trkpt lat="42.3943150" lon="-8.6294150">
        <ele>33.9</ele>
        <time>2021-05-21T10:45:00Z</time>
      </trkpt>
      <trkpt lat="42.3943280" lon="-8.6294120">
        <ele>33.9</ele>
        <time>2021-05-21T10:45:01Z</time>
      </trkpt>
      <trkpt lat="42.3943400" lon="-8.6294020">
        <ele>33.9</ele>
        <time>2021-05-21T10:45:02Z</time>
      </trkpt>
      <trkpt lat="42.3943540" lon="-8.6294020">
        <ele>33.9</ele>
        <time>2021-05-21T10:45:03Z</time>
      </trkpt>
      <trkpt lat="42.3943680" lon="-8.6293980">
        <ele>33.9</ele>
        <time>2021-05-21T10:45:04Z</time>
      </trkpt>
      <trkpt lat="42.3943810" lon="-8.6293930">
        <ele>33.9</ele>
        <time>2021-05-21T10:45:05Z</time>
      </trkpt>
      <trkpt lat="42.3943950" lon="-8.6293850">
        <ele>33.9</ele>
        <time>2021-05-21T10:45:06Z</time>
      </trkpt>
      <trkpt lat="42.3944070" lon="-8.6293770">
        <ele>33.9</ele>
        <time>2021-05-21T10:45:07Z</time>
      </trkpt>
      <trkpt lat="42.3944180" lon="-8.6293690">
        <ele>33.9</ele>
        <time>2021-05-21T10:45:08Z</time>
      </trkpt>
      <trkpt lat="42.3944340" lon="-8.6293660">
        <ele>33.8</ele>
        <time>2021-05-21T10:45:09Z</time>
      </trkpt>
      <trkpt lat="42.3944480" lon="-8.6293570">
        <ele>33.8</ele>
        <time>2021-05-21T10:45:10Z</time>
      </trkpt>
      <trkpt lat="42.3944600" lon="-8.6293430">
        <ele>33.8</ele>
        <time>2021-05-21T10:45:11Z</time>
      </trkpt>
      <trkpt lat="42.3944730" lon="-8.6293290">
        <ele>33.8</ele>
        <time>2021-05-21T10:45:12Z</time>
      </trkpt>
      <trkpt lat="42.3944900" lon="-8.6293240">
        <ele>33.8</ele>
        <time>2021-05-21T10:45:13Z</time>
      </trkpt>
      <trkpt lat="42.3945040" lon="-8.6293130">
        <ele>33.8</ele>
        <time>2021-05-21T10:45:14Z</time>
      </trkpt>
      <trkpt lat="42.3945210" lon="-8.6293050">
        <ele>33.8</ele>
        <time>2021-05-21T10:45:15Z</time>
      </trkpt>
      <trkpt lat="42.3945320" lon="-8.6292870">
        <ele>33.8</ele>
        <time>2021-05-21T10:45:16Z</time>
      </trkpt>
      <trkpt lat="42.3945450" lon="-8.6292800">
        <ele>33.8</ele>
        <time>2021-05-21T10:45:17Z</time>
      </trkpt>
      <trkpt lat="42.3945640" lon="-8.6292650">
        <ele>33.8</ele>
        <time>2021-05-21T10:45:18Z</time>
      </trkpt>
      <trkpt lat="42.3945720" lon="-8.6292650">
        <ele>33.8</ele>
        <time>2021-05-21T10:45:20Z</time>
      </trkpt>
      <trkpt lat="42.3945810" lon="-8.6292640">
        <ele>33.8</ele>
        <time>2021-05-21T10:45:21Z</time>
      </trkpt>
      <trkpt lat="42.3945960" lon="-8.6292590">
        <ele>33.8</ele>
        <time>2021-05-21T10:45:22Z</time>
      </trkpt>
      <trkpt lat="42.3946000" lon="-8.6292480">
        <ele>33.8</ele>
        <time>2021-05-21T10:45:23Z</time>
      </trkpt>
      <trkpt lat="42.3945990" lon="-8.6292460">
        <ele>33.8</ele>
        <time>2021-05-21T10:45:24Z</time>
      </trkpt>
      <trkpt lat="42.3946130" lon="-8.6292410">
        <ele>33.8</ele>
        <time>2021-05-21T10:45:25Z</time>
      </trkpt>
      <trkpt lat="42.3946300" lon="-8.6292310">
        <ele>33.8</ele>
        <time>2021-05-21T10:45:26Z</time>
      </trkpt>
      <trkpt lat="42.3946420" lon="-8.6292310">
        <ele>33.8</ele>
        <time>2021-05-21T10:45:27Z</time>
      </trkpt>
      <trkpt lat="42.3946540" lon="-8.6292330">
        <ele>33.8</ele>
        <time>2021-05-21T10:45:28Z</time>
      </trkpt>
      <trkpt lat="42.3946660" lon="-8.6292270">
        <ele>33.8</ele>
        <time>2021-05-21T10:45:29Z</time>
      </trkpt>
      <trkpt lat="42.3946780" lon="-8.6292210">
        <ele>33.8</ele>
        <time>2021-05-21T10:45:30Z</time>
      </trkpt>
      <trkpt lat="42.3946940" lon="-8.6292080">
        <ele>33.8</ele>
        <time>2021-05-21T10:45:31Z</time>
      </trkpt>
      <trkpt lat="42.3946940" lon="-8.6292020">
        <ele>33.8</ele>
        <time>2021-05-21T10:45:32Z</time>
      </trkpt>
      <trkpt lat="42.3946950" lon="-8.6291970">
        <ele>33.8</ele>
        <time>2021-05-21T10:45:33Z</time>
      </trkpt>
      <trkpt lat="42.3946950" lon="-8.6291920">
        <ele>33.8</ele>
        <time>2021-05-21T10:45:34Z</time>
      </trkpt>
      <trkpt lat="42.3946960" lon="-8.6291870">
        <ele>33.8</ele>
        <time>2021-05-21T10:45:35Z</time>
      </trkpt>
      <trkpt lat="42.3946960" lon="-8.6291810">
        <ele>33.8</ele>
        <time>2021-05-21T10:45:36Z</time>
      </trkpt>
      <trkpt lat="42.3946970" lon="-8.6291760">
        <ele>33.8</ele>
        <time>2021-05-21T10:45:37Z</time>
      </trkpt>
      <trkpt lat="42.3946930" lon="-8.6291740">
        <ele>33.8</ele>
        <time>2021-05-21T10:45:38Z</time>
      </trkpt>
      <trkpt lat="42.3946900" lon="-8.6291790">
        <ele>33.8</ele>
        <time>2021-05-21T10:45:39Z</time>
      </trkpt>
      <trkpt lat="42.3946880" lon="-8.6291690">
        <ele>33.8</ele>
        <time>2021-05-21T10:45:40Z</time>
      </trkpt>
      <trkpt lat="42.3946880" lon="-8.6291690">
        <ele>33.8</ele>
        <time>2021-05-21T10:45:41Z</time>
      </trkpt>
      <trkpt lat="42.3946870" lon="-8.6291740">
        <ele>33.8</ele>
        <time>2021-05-21T10:45:42Z</time>
      </trkpt>
      <trkpt lat="42.3946880" lon="-8.6291750">
        <ele>33.8</ele>
        <time>2021-05-21T10:45:43Z</time>
      </trkpt>
      <trkpt lat="42.3946910" lon="-8.6291650">
        <ele>33.8</ele>
        <time>2021-05-21T10:45:44Z</time>
      </trkpt>
      <trkpt lat="42.3946920" lon="-8.6291560">
        <ele>33.8</ele>
        <time>2021-05-21T10:45:45Z</time>
      </trkpt>
      <trkpt lat="42.3947020" lon="-8.6291560">
        <ele>33.8</ele>
        <time>2021-05-21T10:45:46Z</time>
      </trkpt>
      <trkpt lat="42.3947050" lon="-8.6291500">
        <ele>33.7</ele>
        <time>2021-05-21T10:45:47Z</time>
      </trkpt>
      <trkpt lat="42.3947060" lon="-8.6291440">
        <ele>33.7</ele>
        <time>2021-05-21T10:45:48Z</time>
      </trkpt>
      <trkpt lat="42.3947010" lon="-8.6291470">
        <ele>33.7</ele>
        <time>2021-05-21T10:45:49Z</time>
      </trkpt>
      <trkpt lat="42.3946990" lon="-8.6291530">
        <ele>33.7</ele>
        <time>2021-05-21T10:45:50Z</time>
      </trkpt>
      <trkpt lat="42.3946930" lon="-8.6291540">
        <ele>33.7</ele>
        <time>2021-05-21T10:45:51Z</time>
      </trkpt>
      <trkpt lat="42.3946910" lon="-8.6291590">
        <ele>33.7</ele>
        <time>2021-05-21T10:45:52Z</time>
      </trkpt>
      <trkpt lat="42.3946920" lon="-8.6291690">
        <ele>33.7</ele>
        <time>2021-05-21T10:45:53Z</time>
      </trkpt>
      <trkpt lat="42.3946980" lon="-8.6291740">
        <ele>33.7</ele>
        <time>2021-05-21T10:45:54Z</time>
      </trkpt>
      <trkpt lat="42.3946950" lon="-8.6291810">
        <ele>33.7</ele>
        <time>2021-05-21T10:45:55Z</time>
      </trkpt>
      <trkpt lat="42.3946960" lon="-8.6291910">
        <ele>33.7</ele>
        <time>2021-05-21T10:45:56Z</time>
      </trkpt>
      <trkpt lat="42.3946930" lon="-8.6291970">
        <ele>33.7</ele>
        <time>2021-05-21T10:45:57Z</time>
      </trkpt>
      <trkpt lat="42.3946980" lon="-8.6292030">
        <ele>33.7</ele>
        <time>2021-05-21T10:45:58Z</time>
      </trkpt>
      <trkpt lat="42.3947040" lon="-8.6292140">
        <ele>33.7</ele>
        <time>2021-05-21T10:45:59Z</time>
      </trkpt>
      <trkpt lat="42.3947020" lon="-8.6292290">
        <ele>33.7</ele>
        <time>2021-05-21T10:46:00Z</time>
      </trkpt>
      <trkpt lat="42.3947060" lon="-8.6292330">
        <ele>33.7</ele>
        <time>2021-05-21T10:46:01Z</time>
      </trkpt>
      <trkpt lat="42.3947080" lon="-8.6292410">
        <ele>33.7</ele>
        <time>2021-05-21T10:46:02Z</time>
      </trkpt>
      <trkpt lat="42.3947010" lon="-8.6292480">
        <ele>33.7</ele>
        <time>2021-05-21T10:46:03Z</time>
      </trkpt>
      <trkpt lat="42.3946930" lon="-8.6292440">
        <ele>33.7</ele>
        <time>2021-05-21T10:46:04Z</time>
      </trkpt>
      <trkpt lat="42.3946940" lon="-8.6292400">
        <ele>33.7</ele>
        <time>2021-05-21T10:46:05Z</time>
      </trkpt>
      <trkpt lat="42.3946910" lon="-8.6292390">
        <ele>33.7</ele>
        <time>2021-05-21T10:46:06Z</time>
      </trkpt>
      <trkpt lat="42.3946850" lon="-8.6292350">
        <ele>33.7</ele>
        <time>2021-05-21T10:46:07Z</time>
      </trkpt>
      <trkpt lat="42.3946880" lon="-8.6292250">
        <ele>33.7</ele>
        <time>2021-05-21T10:46:08Z</time>
      </trkpt>
      <trkpt lat="42.3946850" lon="-8.6292170">
        <ele>33.7</ele>
        <time>2021-05-21T10:46:09Z</time>
      </trkpt>
      <trkpt lat="42.3946830" lon="-8.6292170">
        <ele>33.7</ele>
        <time>2021-05-21T10:46:10Z</time>
      </trkpt>
      <trkpt lat="42.3946810" lon="-8.6292160">
        <ele>33.7</ele>
        <time>2021-05-21T10:46:11Z</time>
      </trkpt>
      <trkpt lat="42.3946770" lon="-8.6292190">
        <ele>33.7</ele>
        <time>2021-05-21T10:46:12Z</time>
      </trkpt>
      <trkpt lat="42.3946740" lon="-8.6292260">
        <ele>33.7</ele>
        <time>2021-05-21T10:46:13Z</time>
      </trkpt>
      <trkpt lat="42.3946750" lon="-8.6292280">
        <ele>33.7</ele>
        <time>2021-05-21T10:46:14Z</time>
      </trkpt>
      <trkpt lat="42.3946750" lon="-8.6292300">
        <ele>33.7</ele>
        <time>2021-05-21T10:46:15Z</time>
      </trkpt>
      <trkpt lat="42.3946790" lon="-8.6292300">
        <ele>33.7</ele>
        <time>2021-05-21T10:46:16Z</time>
      </trkpt>
      <trkpt lat="42.3946750" lon="-8.6292280">
        <ele>33.7</ele>
        <time>2021-05-21T10:46:17Z</time>
      </trkpt>
      <trkpt lat="42.3946680" lon="-8.6292260">
        <ele>33.7</ele>
        <time>2021-05-21T10:46:18Z</time>
      </trkpt>
      <trkpt lat="42.3946660" lon="-8.6292250">
        <ele>33.7</ele>
        <time>2021-05-21T10:46:19Z</time>
      </trkpt>
      <trkpt lat="42.3946670" lon="-8.6292220">
        <ele>33.7</ele>
        <time>2021-05-21T10:46:20Z</time>
      </trkpt>
      <trkpt lat="42.3946690" lon="-8.6292180">
        <ele>33.7</ele>
        <time>2021-05-21T10:46:21Z</time>
      </trkpt>
      <trkpt lat="42.3946670" lon="-8.6292150">
        <ele>33.7</ele>
        <time>2021-05-21T10:46:22Z</time>
      </trkpt>
      <trkpt lat="42.3946630" lon="-8.6292140">
        <ele>33.7</ele>
        <time>2021-05-21T10:46:23Z</time>
      </trkpt>
      <trkpt lat="42.3946630" lon="-8.6292120">
        <ele>33.7</ele>
        <time>2021-05-21T10:46:24Z</time>
      </trkpt>
      <trkpt lat="42.3946640" lon="-8.6292090">
        <ele>33.7</ele>
        <time>2021-05-21T10:46:25Z</time>
      </trkpt>
      <trkpt lat="42.3946640" lon="-8.6292070">
        <ele>33.7</ele>
        <time>2021-05-21T10:46:26Z</time>
      </trkpt>
      <trkpt lat="42.3946620" lon="-8.6292030">
        <ele>33.7</ele>
        <time>2021-05-21T10:46:27Z</time>
      </trkpt>
      <trkpt lat="42.3946620" lon="-8.6292040">
        <ele>33.7</ele>
        <time>2021-05-21T10:46:28Z</time>
      </trkpt>
      <trkpt lat="42.3946590" lon="-8.6292090">
        <ele>33.7</ele>
        <time>2021-05-21T10:46:29Z</time>
      </trkpt>
      <trkpt lat="42.3946550" lon="-8.6292180">
        <ele>33.7</ele>
        <time>2021-05-21T10:46:30Z</time>
      </trkpt>
      <trkpt lat="42.3946520" lon="-8.6292260">
        <ele>33.7</ele>
        <time>2021-05-21T10:46:31Z</time>
      </trkpt>
      <trkpt lat="42.3946500" lon="-8.6292260">
        <ele>33.7</ele>
        <time>2021-05-21T10:46:32Z</time>
      </trkpt>
      <trkpt lat="42.3946520" lon="-8.6292210">
        <ele>33.7</ele>
        <time>2021-05-21T10:46:33Z</time>
      </trkpt>
      <trkpt lat="42.3946540" lon="-8.6292160">
        <ele>33.7</ele>
        <time>2021-05-21T10:46:34Z</time>
      </trkpt>
      <trkpt lat="42.3946500" lon="-8.6292180">
        <ele>33.7</ele>
        <time>2021-05-21T10:46:35Z</time>
      </trkpt>
      <trkpt lat="42.3946560" lon="-8.6292130">
        <ele>33.7</ele>
        <time>2021-05-21T10:46:36Z</time>
      </trkpt>
      <trkpt lat="42.3946600" lon="-8.6292170">
        <ele>33.7</ele>
        <time>2021-05-21T10:46:37Z</time>
      </trkpt>
      <trkpt lat="42.3946630" lon="-8.6292200">
        <ele>33.6</ele>
        <time>2021-05-21T10:46:38Z</time>
      </trkpt>
      <trkpt lat="42.3946630" lon="-8.6292250">
        <ele>33.6</ele>
        <time>2021-05-21T10:46:39Z</time>
      </trkpt>
      <trkpt lat="42.3946600" lon="-8.6292230">
        <ele>33.6</ele>
        <time>2021-05-21T10:46:40Z</time>
      </trkpt>
      <trkpt lat="42.3946610" lon="-8.6292280">
        <ele>33.6</ele>
        <time>2021-05-21T10:46:41Z</time>
      </trkpt>
      <trkpt lat="42.3946600" lon="-8.6292310">
        <ele>33.6</ele>
        <time>2021-05-21T10:46:42Z</time>
      </trkpt>
      <trkpt lat="42.3946600" lon="-8.6292320">
        <ele>33.6</ele>
        <time>2021-05-21T10:46:43Z</time>
      </trkpt>
      <trkpt lat="42.3946600" lon="-8.6292370">
        <ele>33.6</ele>
        <time>2021-05-21T10:46:44Z</time>
      </trkpt>
      <trkpt lat="42.3946630" lon="-8.6292430">
        <ele>33.6</ele>
        <time>2021-05-21T10:46:45Z</time>
      </trkpt>
      <trkpt lat="42.3946610" lon="-8.6292420">
        <ele>33.6</ele>
        <time>2021-05-21T10:46:46Z</time>
      </trkpt>
      <trkpt lat="42.3946680" lon="-8.6292400">
        <ele>33.6</ele>
        <time>2021-05-21T10:46:47Z</time>
      </trkpt>
      <trkpt lat="42.3946670" lon="-8.6292400">
        <ele>33.6</ele>
        <time>2021-05-21T10:46:48Z</time>
      </trkpt>
      <trkpt lat="42.3946660" lon="-8.6292410">
        <ele>33.6</ele>
        <time>2021-05-21T10:46:49Z</time>
      </trkpt>
      <trkpt lat="42.3946660" lon="-8.6292420">
        <ele>33.6</ele>
        <time>2021-05-21T10:46:50Z</time>
      </trkpt>
      <trkpt lat="42.3946630" lon="-8.6292410">
        <ele>33.6</ele>
        <time>2021-05-21T10:46:51Z</time>
      </trkpt>
      <trkpt lat="42.3946630" lon="-8.6292350">
        <ele>33.6</ele>
        <time>2021-05-21T10:46:52Z</time>
      </trkpt>
      <trkpt lat="42.3946640" lon="-8.6292290">
        <ele>33.6</ele>
        <time>2021-05-21T10:46:53Z</time>
      </trkpt>
      <trkpt lat="42.3946640" lon="-8.6292250">
        <ele>33.6</ele>
        <time>2021-05-21T10:46:54Z</time>
      </trkpt>
      <trkpt lat="42.3946630" lon="-8.6292200">
        <ele>33.6</ele>
        <time>2021-05-21T10:46:55Z</time>
      </trkpt>
      <trkpt lat="42.3946660" lon="-8.6292140">
        <ele>33.6</ele>
        <time>2021-05-21T10:46:56Z</time>
      </trkpt>
      <trkpt lat="42.3946620" lon="-8.6292140">
        <ele>33.6</ele>
        <time>2021-05-21T10:46:57Z</time>
      </trkpt>
      <trkpt lat="42.3946600" lon="-8.6292130">
        <ele>33.6</ele>
        <time>2021-05-21T10:46:58Z</time>
      </trkpt>
      <trkpt lat="42.3946570" lon="-8.6292070">
        <ele>33.6</ele>
        <time>2021-05-21T10:46:59Z</time>
      </trkpt>
      <trkpt lat="42.3946530" lon="-8.6292010">
        <ele>33.6</ele>
        <time>2021-05-21T10:47:00Z</time>
      </trkpt>
      <trkpt lat="42.3946500" lon="-8.6291990">
        <ele>33.6</ele>
        <time>2021-05-21T10:47:01Z</time>
      </trkpt>
      <trkpt lat="42.3946480" lon="-8.6291970">
        <ele>33.6</ele>
        <time>2021-05-21T10:47:02Z</time>
      </trkpt>
      <trkpt lat="42.3946560" lon="-8.6291940">
        <ele>33.6</ele>
        <time>2021-05-21T10:47:03Z</time>
      </trkpt>
      <trkpt lat="42.3946530" lon="-8.6291920">
        <ele>33.6</ele>
        <time>2021-05-21T10:47:04Z</time>
      </trkpt>
      <trkpt lat="42.3946650" lon="-8.6291910">
        <ele>33.6</ele>
        <time>2021-05-21T10:47:06Z</time>
      </trkpt>
      <trkpt lat="42.3946670" lon="-8.6291790">
        <ele>33.6</ele>
        <time>2021-05-21T10:47:07Z</time>
      </trkpt>
      <trkpt lat="42.3946640" lon="-8.6291800">
        <ele>33.6</ele>
        <time>2021-05-21T10:47:08Z</time>
      </trkpt>
      <trkpt lat="42.3946630" lon="-8.6291780">
        <ele>33.6</ele>
        <time>2021-05-21T10:47:09Z</time>
      </trkpt>
      <trkpt lat="42.3946520" lon="-8.6291800">
        <ele>33.6</ele>
        <time>2021-05-21T10:47:10Z</time>
      </trkpt>
      <trkpt lat="42.3946560" lon="-8.6291730">
        <ele>33.6</ele>
        <time>2021-05-21T10:47:11Z</time>
      </trkpt>
      <trkpt lat="42.3946620" lon="-8.6291650">
        <ele>33.6</ele>
        <time>2021-05-21T10:47:12Z</time>
      </trkpt>
      <trkpt lat="42.3946660" lon="-8.6291600">
        <ele>33.6</ele>
        <time>2021-05-21T10:47:13Z</time>
      </trkpt>
      <trkpt lat="42.3946600" lon="-8.6291640">
        <ele>33.6</ele>
        <time>2021-05-21T10:47:14Z</time>
      </trkpt>
      <trkpt lat="42.3946610" lon="-8.6291600">
        <ele>33.6</ele>
        <time>2021-05-21T10:47:15Z</time>
      </trkpt>
      <trkpt lat="42.3946550" lon="-8.6291610">
        <ele>33.6</ele>
        <time>2021-05-21T10:47:16Z</time>
      </trkpt>
      <trkpt lat="42.3946560" lon="-8.6291580">
        <ele>33.6</ele>
        <time>2021-05-21T10:47:17Z</time>
      </trkpt>
      <trkpt lat="42.3946550" lon="-8.6291570">
        <ele>33.6</ele>
        <time>2021-05-21T10:47:18Z</time>
      </trkpt>
      <trkpt lat="42.3946560" lon="-8.6291590">
        <ele>33.6</ele>
        <time>2021-05-21T10:47:19Z</time>
      </trkpt>
      <trkpt lat="42.3946430" lon="-8.6291740">
        <ele>33.6</ele>
        <time>2021-05-21T10:47:20Z</time>
      </trkpt>
      <trkpt lat="42.3946470" lon="-8.6291990">
        <ele>33.6</ele>
        <time>2021-05-21T10:47:21Z</time>
      </trkpt>
      <trkpt lat="42.3946530" lon="-8.6292090">
        <ele>33.6</ele>
        <time>2021-05-21T10:47:22Z</time>
      </trkpt>
      <trkpt lat="42.3946590" lon="-8.6292140">
        <ele>33.6</ele>
        <time>2021-05-21T10:47:23Z</time>
      </trkpt>
      <trkpt lat="42.3946630" lon="-8.6292200">
        <ele>33.6</ele>
        <time>2021-05-21T10:47:24Z</time>
      </trkpt>
      <trkpt lat="42.3946660" lon="-8.6292250">
        <ele>33.6</ele>
        <time>2021-05-21T10:47:25Z</time>
      </trkpt>
      <trkpt lat="42.3946700" lon="-8.6292310">
        <ele>33.6</ele>
        <time>2021-05-21T10:47:26Z</time>
      </trkpt>
      <trkpt lat="42.3946720" lon="-8.6292320">
        <ele>33.6</ele>
        <time>2021-05-21T10:47:27Z</time>
      </trkpt>
      <trkpt lat="42.3946710" lon="-8.6292260">
        <ele>33.5</ele>
        <time>2021-05-21T10:47:28Z</time>
      </trkpt>
      <trkpt lat="42.3946720" lon="-8.6292260">
        <ele>33.5</ele>
        <time>2021-05-21T10:47:29Z</time>
      </trkpt>
      <trkpt lat="42.3946710" lon="-8.6292240">
        <ele>33.5</ele>
        <time>2021-05-21T10:47:30Z</time>
      </trkpt>
      <trkpt lat="42.3946750" lon="-8.6292240">
        <ele>33.5</ele>
        <time>2021-05-21T10:47:31Z</time>
      </trkpt>
      <trkpt lat="42.3946740" lon="-8.6292290">
        <ele>33.5</ele>
        <time>2021-05-21T10:47:32Z</time>
      </trkpt>
      <trkpt lat="42.3946780" lon="-8.6292260">
        <ele>33.5</ele>
        <time>2021-05-21T10:47:33Z</time>
      </trkpt>
      <trkpt lat="42.3946850" lon="-8.6292200">
        <ele>33.5</ele>
        <time>2021-05-21T10:47:34Z</time>
      </trkpt>
      <trkpt lat="42.3946870" lon="-8.6292160">
        <ele>33.5</ele>
        <time>2021-05-21T10:47:35Z</time>
      </trkpt>
      <trkpt lat="42.3946910" lon="-8.6292150">
        <ele>33.5</ele>
        <time>2021-05-21T10:47:36Z</time>
      </trkpt>
      <trkpt lat="42.3946940" lon="-8.6292120">
        <ele>33.5</ele>
        <time>2021-05-21T10:47:37Z</time>
      </trkpt>
      <trkpt lat="42.3946960" lon="-8.6292080">
        <ele>33.5</ele>
        <time>2021-05-21T10:47:38Z</time>
      </trkpt>
      <trkpt lat="42.3946950" lon="-8.6292120">
        <ele>33.5</ele>
        <time>2021-05-21T10:47:39Z</time>
      </trkpt>
      <trkpt lat="42.3946920" lon="-8.6292120">
        <ele>33.5</ele>
        <time>2021-05-21T10:47:40Z</time>
      </trkpt>
      <trkpt lat="42.3946890" lon="-8.6292170">
        <ele>33.5</ele>
        <time>2021-05-21T10:47:41Z</time>
      </trkpt>
      <trkpt lat="42.3946820" lon="-8.6292200">
        <ele>33.5</ele>
        <time>2021-05-21T10:47:42Z</time>
      </trkpt>
      <trkpt lat="42.3946730" lon="-8.6292220">
        <ele>33.5</ele>
        <time>2021-05-21T10:47:43Z</time>
      </trkpt>
      <trkpt lat="42.3946650" lon="-8.6292180">
        <ele>33.5</ele>
        <time>2021-05-21T10:47:44Z</time>
      </trkpt>
      <trkpt lat="42.3946670" lon="-8.6292190">
        <ele>33.5</ele>
        <time>2021-05-21T10:47:45Z</time>
      </trkpt>
      <trkpt lat="42.3946670" lon="-8.6292180">
        <ele>33.5</ele>
        <time>2021-05-21T10:47:46Z</time>
      </trkpt>
      <trkpt lat="42.3946680" lon="-8.6292180">
        <ele>33.5</ele>
        <time>2021-05-21T10:47:47Z</time>
      </trkpt>
      <trkpt lat="42.3946690" lon="-8.6292180">
        <ele>33.5</ele>
        <time>2021-05-21T10:47:48Z</time>
      </trkpt>
      <trkpt lat="42.3946690" lon="-8.6292180">
        <ele>33.5</ele>
        <time>2021-05-21T10:47:49Z</time>
      </trkpt>
      <trkpt lat="42.3946700" lon="-8.6292170">
        <ele>33.5</ele>
        <time>2021-05-21T10:47:50Z</time>
      </trkpt>
      <trkpt lat="42.3946710" lon="-8.6292170">
        <ele>33.5</ele>
        <time>2021-05-21T10:47:51Z</time>
      </trkpt>
      <trkpt lat="42.3946710" lon="-8.6292170">
        <ele>33.5</ele>
        <time>2021-05-21T10:47:52Z</time>
      </trkpt>
      <trkpt lat="42.3946720" lon="-8.6292160">
        <ele>33.5</ele>
        <time>2021-05-21T10:47:53Z</time>
      </trkpt>
      <trkpt lat="42.3946730" lon="-8.6292160">
        <ele>33.5</ele>
        <time>2021-05-21T10:47:54Z</time>
      </trkpt>
      <trkpt lat="42.3946730" lon="-8.6292160">
        <ele>33.5</ele>
        <time>2021-05-21T10:47:55Z</time>
      </trkpt>
      <trkpt lat="42.3946740" lon="-8.6292160">
        <ele>33.5</ele>
        <time>2021-05-21T10:47:56Z</time>
      </trkpt>
      <trkpt lat="42.3946750" lon="-8.6292150">
        <ele>33.5</ele>
        <time>2021-05-21T10:47:57Z</time>
      </trkpt>
      <trkpt lat="42.3946760" lon="-8.6292150">
        <ele>33.5</ele>
        <time>2021-05-21T10:47:58Z</time>
      </trkpt>
      <trkpt lat="42.3946760" lon="-8.6292150">
        <ele>33.5</ele>
        <time>2021-05-21T10:47:59Z</time>
      </trkpt>
      <trkpt lat="42.3946770" lon="-8.6292140">
        <ele>33.5</ele>
        <time>2021-05-21T10:48:00Z</time>
      </trkpt>
      <trkpt lat="42.3946780" lon="-8.6292140">
        <ele>33.5</ele>
        <time>2021-05-21T10:48:01Z</time>
      </trkpt>
      <trkpt lat="42.3946780" lon="-8.6292140">
        <ele>33.5</ele>
        <time>2021-05-21T10:48:02Z</time>
      </trkpt>
      <trkpt lat="42.3946790" lon="-8.6292140">
        <ele>33.5</ele>
        <time>2021-05-21T10:48:03Z</time>
      </trkpt>
      <trkpt lat="42.3946800" lon="-8.6292130">
        <ele>33.5</ele>
        <time>2021-05-21T10:48:04Z</time>
      </trkpt>
      <trkpt lat="42.3946800" lon="-8.6292130">
        <ele>33.5</ele>
        <time>2021-05-21T10:48:05Z</time>
      </trkpt>
      <trkpt lat="42.3946810" lon="-8.6292130">
        <ele>33.5</ele>
        <time>2021-05-21T10:48:06Z</time>
      </trkpt>
      <trkpt lat="42.3946820" lon="-8.6292120">
        <ele>33.5</ele>
        <time>2021-05-21T10:48:07Z</time>
      </trkpt>
      <trkpt lat="42.3946820" lon="-8.6292120">
        <ele>33.5</ele>
        <time>2021-05-21T10:48:08Z</time>
      </trkpt>
      <trkpt lat="42.3946830" lon="-8.6292120">
        <ele>33.5</ele>
        <time>2021-05-21T10:48:09Z</time>
      </trkpt>
      <trkpt lat="42.3946840" lon="-8.6292120">
        <ele>33.5</ele>
        <time>2021-05-21T10:48:10Z</time>
      </trkpt>
      <trkpt lat="42.3946840" lon="-8.6292110">
        <ele>33.5</ele>
        <time>2021-05-21T10:48:11Z</time>
      </trkpt>
      <trkpt lat="42.3946850" lon="-8.6292110">
        <ele>33.5</ele>
        <time>2021-05-21T10:48:12Z</time>
      </trkpt>
      <trkpt lat="42.3946860" lon="-8.6292110">
        <ele>33.5</ele>
        <time>2021-05-21T10:48:13Z</time>
      </trkpt>
      <trkpt lat="42.3946860" lon="-8.6292110">
        <ele>33.5</ele>
        <time>2021-05-21T10:48:14Z</time>
      </trkpt>
      <trkpt lat="42.3946870" lon="-8.6292100">
        <ele>33.5</ele>
        <time>2021-05-21T10:48:15Z</time>
      </trkpt>
      <trkpt lat="42.3946880" lon="-8.6292100">
        <ele>33.5</ele>
        <time>2021-05-21T10:48:16Z</time>
      </trkpt>
      <trkpt lat="42.3946880" lon="-8.6292100">
        <ele>33.5</ele>
        <time>2021-05-21T10:48:17Z</time>
      </trkpt>
      <trkpt lat="42.3946890" lon="-8.6292090">
        <ele>33.5</ele>
        <time>2021-05-21T10:48:18Z</time>
      </trkpt>
      <trkpt lat="42.3946900" lon="-8.6292090">
        <ele>33.5</ele>
        <time>2021-05-21T10:48:19Z</time>
      </trkpt>
      <trkpt lat="42.3946900" lon="-8.6292090">
        <ele>33.5</ele>
        <time>2021-05-21T10:48:20Z</time>
      </trkpt>
      <trkpt lat="42.3946910" lon="-8.6292090">
        <ele>33.5</ele>
        <time>2021-05-21T10:48:21Z</time>
      </trkpt>
      <trkpt lat="42.3946920" lon="-8.6292080">
        <ele>33.5</ele>
        <time>2021-05-21T10:48:22Z</time>
      </trkpt>
      <trkpt lat="42.3946920" lon="-8.6292080">
        <ele>33.5</ele>
        <time>2021-05-21T10:48:23Z</time>
      </trkpt>
      <trkpt lat="42.3946930" lon="-8.6292080">
        <ele>33.5</ele>
        <time>2021-05-21T10:48:24Z</time>
      </trkpt>
      <trkpt lat="42.3946940" lon="-8.6292070">
        <ele>33.5</ele>
        <time>2021-05-21T10:48:25Z</time>
      </trkpt>
      <trkpt lat="42.3946950" lon="-8.6292070">
        <ele>33.5</ele>
        <time>2021-05-21T10:48:26Z</time>
      </trkpt>
      <trkpt lat="42.3946950" lon="-8.6292070">
        <ele>33.5</ele>
        <time>2021-05-21T10:48:27Z</time>
      </trkpt>
      <trkpt lat="42.3946960" lon="-8.6292070">
        <ele>33.5</ele>
        <time>2021-05-21T10:48:28Z</time>
      </trkpt>
      <trkpt lat="42.3946970" lon="-8.6292060">
        <ele>33.5</ele>
        <time>2021-05-21T10:48:29Z</time>
      </trkpt>
      <trkpt lat="42.3946970" lon="-8.6292060">
        <ele>33.5</ele>
        <time>2021-05-21T10:48:30Z</time>
      </trkpt>
      <trkpt lat="42.3946980" lon="-8.6292060">
        <ele>33.5</ele>
        <time>2021-05-21T10:48:31Z</time>
      </trkpt>
      <trkpt lat="42.3946990" lon="-8.6292050">
        <ele>33.5</ele>
        <time>2021-05-21T10:48:32Z</time>
      </trkpt>
      <trkpt lat="42.3946990" lon="-8.6292050">
        <ele>33.5</ele>
        <time>2021-05-21T10:48:33Z</time>
      </trkpt>
      <trkpt lat="42.3947000" lon="-8.6292050">
        <ele>33.5</ele>
        <time>2021-05-21T10:48:34Z</time>
      </trkpt>
      <trkpt lat="42.3947010" lon="-8.6292050">
        <ele>33.5</ele>
        <time>2021-05-21T10:48:35Z</time>
      </trkpt>
      <trkpt lat="42.3947010" lon="-8.6292040">
        <ele>33.5</ele>
        <time>2021-05-21T10:48:36Z</time>
      </trkpt>
      <trkpt lat="42.3947020" lon="-8.6292040">
        <ele>33.5</ele>
        <time>2021-05-21T10:48:37Z</time>
      </trkpt>
      <trkpt lat="42.3947040" lon="-8.6291940">
        <ele>33.5</ele>
        <time>2021-05-21T10:48:38Z</time>
      </trkpt>
      <trkpt lat="42.3947000" lon="-8.6292000">
        <ele>33.5</ele>
        <time>2021-05-21T10:48:39Z</time>
      </trkpt>
      <trkpt lat="42.3947000" lon="-8.6291990">
        <ele>33.5</ele>
        <time>2021-05-21T10:48:40Z</time>
      </trkpt>
      <trkpt lat="42.3946980" lon="-8.6292000">
        <ele>33.5</ele>
        <time>2021-05-21T10:48:41Z</time>
      </trkpt>
      <trkpt lat="42.3946970" lon="-8.6292010">
        <ele>33.5</ele>
        <time>2021-05-21T10:48:42Z</time>
      </trkpt>
      <trkpt lat="42.3946930" lon="-8.6292010">
        <ele>33.5</ele>
        <time>2021-05-21T10:48:43Z</time>
      </trkpt>
      <trkpt lat="42.3946900" lon="-8.6292050">
        <ele>33.5</ele>
        <time>2021-05-21T10:48:44Z</time>
      </trkpt>
      <trkpt lat="42.3946900" lon="-8.6292060">
        <ele>33.5</ele>
        <time>2021-05-21T10:48:45Z</time>
      </trkpt>
      <trkpt lat="42.3946810" lon="-8.6292100">
        <ele>33.5</ele>
        <time>2021-05-21T10:48:46Z</time>
      </trkpt>
      <trkpt lat="42.3946750" lon="-8.6292080">
        <ele>33.5</ele>
        <time>2021-05-21T10:48:47Z</time>
      </trkpt>
      <trkpt lat="42.3946790" lon="-8.6292070">
        <ele>33.5</ele>
        <time>2021-05-21T10:48:48Z</time>
      </trkpt>
      <trkpt lat="42.3946800" lon="-8.6292100">
        <ele>33.5</ele>
        <time>2021-05-21T10:48:49Z</time>
      </trkpt>
      <trkpt lat="42.3946820" lon="-8.6292110">
        <ele>33.5</ele>
        <time>2021-05-21T10:48:50Z</time>
      </trkpt>
      <trkpt lat="42.3946840" lon="-8.6292150">
        <ele>33.5</ele>
        <time>2021-05-21T10:48:51Z</time>
      </trkpt>
      <trkpt lat="42.3946830" lon="-8.6292220">
        <ele>33.5</ele>
        <time>2021-05-21T10:48:53Z</time>
      </trkpt>
      <trkpt lat="42.3946790" lon="-8.6292300">
        <ele>33.5</ele>
        <time>2021-05-21T10:48:54Z</time>
      </trkpt>
      <trkpt lat="42.3946690" lon="-8.6292280">
        <ele>33.5</ele>
        <time>2021-05-21T10:48:55Z</time>
      </trkpt>
      <trkpt lat="42.3946630" lon="-8.6292290">
        <ele>33.5</ele>
        <time>2021-05-21T10:48:56Z</time>
      </trkpt>
      <trkpt lat="42.3946620" lon="-8.6292340">
        <ele>33.5</ele>
        <time>2021-05-21T10:48:57Z</time>
      </trkpt>
      <trkpt lat="42.3946720" lon="-8.6292290">
        <ele>33.5</ele>
        <time>2021-05-21T10:48:58Z</time>
      </trkpt>
      <trkpt lat="42.3946740" lon="-8.6292260">
        <ele>33.5</ele>
        <time>2021-05-21T10:48:59Z</time>
      </trkpt>
      <trkpt lat="42.3946720" lon="-8.6292250">
        <ele>33.5</ele>
        <time>2021-05-21T10:49:00Z</time>
      </trkpt>
      <trkpt lat="42.3946700" lon="-8.6292150">
        <ele>33.5</ele>
        <time>2021-05-21T10:49:01Z</time>
      </trkpt>
      <trkpt lat="42.3946770" lon="-8.6292030">
        <ele>33.5</ele>
        <time>2021-05-21T10:49:02Z</time>
      </trkpt>
      <trkpt lat="42.3946740" lon="-8.6292040">
        <ele>33.5</ele>
        <time>2021-05-21T10:49:03Z</time>
      </trkpt>
      <trkpt lat="42.3946760" lon="-8.6292010">
        <ele>33.5</ele>
        <time>2021-05-21T10:49:04Z</time>
      </trkpt>
      <trkpt lat="42.3946730" lon="-8.6291990">
        <ele>33.5</ele>
        <time>2021-05-21T10:49:05Z</time>
      </trkpt>
      <trkpt lat="42.3946690" lon="-8.6292010">
        <ele>33.5</ele>
        <time>2021-05-21T10:49:06Z</time>
      </trkpt>
      <trkpt lat="42.3946670" lon="-8.6291990">
        <ele>33.5</ele>
        <time>2021-05-21T10:49:07Z</time>
      </trkpt>
      <trkpt lat="42.3946660" lon="-8.6291970">
        <ele>33.5</ele>
        <time>2021-05-21T10:49:08Z</time>
      </trkpt>
      <trkpt lat="42.3946620" lon="-8.6291940">
        <ele>33.5</ele>
        <time>2021-05-21T10:49:09Z</time>
      </trkpt>
      <trkpt lat="42.3946590" lon="-8.6291920">
        <ele>33.5</ele>
        <time>2021-05-21T10:49:10Z</time>
      </trkpt>
      <trkpt lat="42.3946580" lon="-8.6291910">
        <ele>33.5</ele>
        <time>2021-05-21T10:49:11Z</time>
      </trkpt>
      <trkpt lat="42.3946580" lon="-8.6291910">
        <ele>33.5</ele>
        <time>2021-05-21T10:49:12Z</time>
      </trkpt>
      <trkpt lat="42.3946340" lon="-8.6292120">
        <ele>33.5</ele>
        <time>2021-05-21T10:49:13Z</time>
      </trkpt>
      <trkpt lat="42.3946320" lon="-8.6292070">
        <ele>33.5</ele>
        <time>2021-05-21T10:49:14Z</time>
      </trkpt>
      <trkpt lat="42.3946350" lon="-8.6292000">
        <ele>33.5</ele>
        <time>2021-05-21T10:49:15Z</time>
      </trkpt>
      <trkpt lat="42.3946340" lon="-8.6292020">
        <ele>33.5</ele>
        <time>2021-05-21T10:49:16Z</time>
      </trkpt>
      <trkpt lat="42.3946360" lon="-8.6292040">
        <ele>33.5</ele>
        <time>2021-05-21T10:49:17Z</time>
      </trkpt>
      <trkpt lat="42.3946390" lon="-8.6292020">
        <ele>33.5</ele>
        <time>2021-05-21T10:49:18Z</time>
      </trkpt>
      <trkpt lat="42.3946390" lon="-8.6291980">
        <ele>33.5</ele>
        <time>2021-05-21T10:49:19Z</time>
      </trkpt>
      <trkpt lat="42.3946360" lon="-8.6291890">
        <ele>33.5</ele>
        <time>2021-05-21T10:49:20Z</time>
      </trkpt>
      <trkpt lat="42.3946350" lon="-8.6291860">
        <ele>33.5</ele>
        <time>2021-05-21T10:49:21Z</time>
      </trkpt>
      <trkpt lat="42.3946350" lon="-8.6291860">
        <ele>33.5</ele>
        <time>2021-05-21T10:49:22Z</time>
      </trkpt>
      <trkpt lat="42.3946520" lon="-8.6291830">
        <ele>33.5</ele>
        <time>2021-05-21T10:49:23Z</time>
      </trkpt>
      <trkpt lat="42.3946620" lon="-8.6291830">
        <ele>33.5</ele>
        <time>2021-05-21T10:49:24Z</time>
      </trkpt>
      <trkpt lat="42.3946620" lon="-8.6291830">
        <ele>33.5</ele>
        <time>2021-05-21T10:49:25Z</time>
      </trkpt>
      <trkpt lat="42.3946610" lon="-8.6291820">
        <ele>33.5</ele>
        <time>2021-05-21T10:49:26Z</time>
      </trkpt>
      <trkpt lat="42.3946580" lon="-8.6291830">
        <ele>33.5</ele>
        <time>2021-05-21T10:49:27Z</time>
      </trkpt>
      <trkpt lat="42.3946590" lon="-8.6291820">
        <ele>33.5</ele>
        <time>2021-05-21T10:49:28Z</time>
      </trkpt>
      <trkpt lat="42.3946580" lon="-8.6291760">
        <ele>33.5</ele>
        <time>2021-05-21T10:49:29Z</time>
      </trkpt>
      <trkpt lat="42.3946550" lon="-8.6291750">
        <ele>33.5</ele>
        <time>2021-05-21T10:49:30Z</time>
      </trkpt>
      <trkpt lat="42.3946520" lon="-8.6291770">
        <ele>33.5</ele>
        <time>2021-05-21T10:49:31Z</time>
      </trkpt>
      <trkpt lat="42.3946480" lon="-8.6291780">
        <ele>33.5</ele>
        <time>2021-05-21T10:49:32Z</time>
      </trkpt>
      <trkpt lat="42.3946440" lon="-8.6291760">
        <ele>33.5</ele>
        <time>2021-05-21T10:49:33Z</time>
      </trkpt>
      <trkpt lat="42.3946440" lon="-8.6291760">
        <ele>33.5</ele>
        <time>2021-05-21T10:49:34Z</time>
      </trkpt>
      <trkpt lat="42.3946440" lon="-8.6291730">
        <ele>33.5</ele>
        <time>2021-05-21T10:49:35Z</time>
      </trkpt>
      <trkpt lat="42.3946430" lon="-8.6291790">
        <ele>33.5</ele>
        <time>2021-05-21T10:49:36Z</time>
      </trkpt>
      <trkpt lat="42.3946470" lon="-8.6291740">
        <ele>33.5</ele>
        <time>2021-05-21T10:49:37Z</time>
      </trkpt>
      <trkpt lat="42.3946460" lon="-8.6291760">
        <ele>33.5</ele>
        <time>2021-05-21T10:49:38Z</time>
      </trkpt>
      <trkpt lat="42.3946410" lon="-8.6291870">
        <ele>33.5</ele>
        <time>2021-05-21T10:49:39Z</time>
      </trkpt>
      <trkpt lat="42.3946400" lon="-8.6291940">
        <ele>33.5</ele>
        <time>2021-05-21T10:49:40Z</time>
      </trkpt>
      <trkpt lat="42.3946480" lon="-8.6291970">
        <ele>33.5</ele>
        <time>2021-05-21T10:49:41Z</time>
      </trkpt>
      <trkpt lat="42.3946420" lon="-8.6292210">
        <ele>33.5</ele>
        <time>2021-05-21T10:49:42Z</time>
      </trkpt>
      <trkpt lat="42.3946490" lon="-8.6292140">
        <ele>33.5</ele>
        <time>2021-05-21T10:49:43Z</time>
      </trkpt>
      <trkpt lat="42.3946510" lon="-8.6292170">
        <ele>33.5</ele>
        <time>2021-05-21T10:49:44Z</time>
      </trkpt>
      <trkpt lat="42.3946540" lon="-8.6292120">
        <ele>33.5</ele>
        <time>2021-05-21T10:49:45Z</time>
      </trkpt>
      <trkpt lat="42.3946560" lon="-8.6292140">
        <ele>33.5</ele>
        <time>2021-05-21T10:49:46Z</time>
      </trkpt>
      <trkpt lat="42.3946550" lon="-8.6292190">
        <ele>33.5</ele>
        <time>2021-05-21T10:49:47Z</time>
      </trkpt>
      <trkpt lat="42.3946530" lon="-8.6292220">
        <ele>33.5</ele>
        <time>2021-05-21T10:49:48Z</time>
      </trkpt>
      <trkpt lat="42.3946580" lon="-8.6292200">
        <ele>33.5</ele>
        <time>2021-05-21T10:49:49Z</time>
      </trkpt>
      <trkpt lat="42.3946540" lon="-8.6292280">
        <ele>33.5</ele>
        <time>2021-05-21T10:49:50Z</time>
      </trkpt>
      <trkpt lat="42.3946600" lon="-8.6292310">
        <ele>33.5</ele>
        <time>2021-05-21T10:49:51Z</time>
      </trkpt>
      <trkpt lat="42.3946580" lon="-8.6292400">
        <ele>33.5</ele>
        <time>2021-05-21T10:49:52Z</time>
      </trkpt>
      <trkpt lat="42.3946540" lon="-8.6292460">
        <ele>33.5</ele>
        <time>2021-05-21T10:49:53Z</time>
      </trkpt>
      <trkpt lat="42.3946510" lon="-8.6292520">
        <ele>33.5</ele>
        <time>2021-05-21T10:49:54Z</time>
      </trkpt>
      <trkpt lat="42.3946490" lon="-8.6292580">
        <ele>33.5</ele>
        <time>2021-05-21T10:49:55Z</time>
      </trkpt>
      <trkpt lat="42.3946540" lon="-8.6292510">
        <ele>33.5</ele>
        <time>2021-05-21T10:49:56Z</time>
      </trkpt>
      <trkpt lat="42.3946620" lon="-8.6292490">
        <ele>33.5</ele>
        <time>2021-05-21T10:49:57Z</time>
      </trkpt>
      <trkpt lat="42.3946700" lon="-8.6292410">
        <ele>33.5</ele>
        <time>2021-05-21T10:49:58Z</time>
      </trkpt>
      <trkpt lat="42.3946700" lon="-8.6292260">
        <ele>33.5</ele>
        <time>2021-05-21T10:49:59Z</time>
      </trkpt>
      <trkpt lat="42.3946740" lon="-8.6292150">
        <ele>33.5</ele>
        <time>2021-05-21T10:50:00Z</time>
      </trkpt>
      <trkpt lat="42.3946770" lon="-8.6292070">
        <ele>33.5</ele>
        <time>2021-05-21T10:50:01Z</time>
      </trkpt>
      <trkpt lat="42.3946760" lon="-8.6292020">
        <ele>33.5</ele>
        <time>2021-05-21T10:50:02Z</time>
      </trkpt>
      <trkpt lat="42.3946760" lon="-8.6291940">
        <ele>33.5</ele>
        <time>2021-05-21T10:50:03Z</time>
      </trkpt>
      <trkpt lat="42.3946770" lon="-8.6291880">
        <ele>33.5</ele>
        <time>2021-05-21T10:50:04Z</time>
      </trkpt>
      <trkpt lat="42.3946760" lon="-8.6291860">
        <ele>33.5</ele>
        <time>2021-05-21T10:50:05Z</time>
      </trkpt>
      <trkpt lat="42.3946730" lon="-8.6291820">
        <ele>33.5</ele>
        <time>2021-05-21T10:50:06Z</time>
      </trkpt>
      <trkpt lat="42.3946710" lon="-8.6291810">
        <ele>33.5</ele>
        <time>2021-05-21T10:50:07Z</time>
      </trkpt>
      <trkpt lat="42.3946730" lon="-8.6291770">
        <ele>33.5</ele>
        <time>2021-05-21T10:50:08Z</time>
      </trkpt>
      <trkpt lat="42.3946760" lon="-8.6291730">
        <ele>33.5</ele>
        <time>2021-05-21T10:50:09Z</time>
      </trkpt>
      <trkpt lat="42.3946840" lon="-8.6291660">
        <ele>33.5</ele>
        <time>2021-05-21T10:50:10Z</time>
      </trkpt>
      <trkpt lat="42.3946870" lon="-8.6291630">
        <ele>33.5</ele>
        <time>2021-05-21T10:50:11Z</time>
      </trkpt>
      <trkpt lat="42.3946930" lon="-8.6291590">
        <ele>33.5</ele>
        <time>2021-05-21T10:50:12Z</time>
      </trkpt>
      <trkpt lat="42.3946910" lon="-8.6291620">
        <ele>33.5</ele>
        <time>2021-05-21T10:50:13Z</time>
      </trkpt>
      <trkpt lat="42.3946900" lon="-8.6291580">
        <ele>33.5</ele>
        <time>2021-05-21T10:50:14Z</time>
      </trkpt>
      <trkpt lat="42.3946910" lon="-8.6291560">
        <ele>33.5</ele>
        <time>2021-05-21T10:50:15Z</time>
      </trkpt>
      <trkpt lat="42.3946930" lon="-8.6291510">
        <ele>33.5</ele>
        <time>2021-05-21T10:50:16Z</time>
      </trkpt>
      <trkpt lat="42.3946930" lon="-8.6291500">
        <ele>33.5</ele>
        <time>2021-05-21T10:50:18Z</time>
      </trkpt>
      <trkpt lat="42.3946930" lon="-8.6291460">
        <ele>33.5</ele>
        <time>2021-05-21T10:50:19Z</time>
      </trkpt>
      <trkpt lat="42.3946920" lon="-8.6291490">
        <ele>33.5</ele>
        <time>2021-05-21T10:50:20Z</time>
      </trkpt>
      <trkpt lat="42.3946930" lon="-8.6291460">
        <ele>33.5</ele>
        <time>2021-05-21T10:50:21Z</time>
      </trkpt>
      <trkpt lat="42.3946930" lon="-8.6291460">
        <ele>33.5</ele>
        <time>2021-05-21T10:50:22Z</time>
      </trkpt>
      <trkpt lat="42.3946930" lon="-8.6291460">
        <ele>33.5</ele>
        <time>2021-05-21T10:50:23Z</time>
      </trkpt>
      <trkpt lat="42.3946930" lon="-8.6291460">
        <ele>33.5</ele>
        <time>2021-05-21T10:50:24Z</time>
      </trkpt>
      <trkpt lat="42.3946930" lon="-8.6291460">
        <ele>33.5</ele>
        <time>2021-05-21T10:50:25Z</time>
      </trkpt>
      <trkpt lat="42.3946840" lon="-8.6291420">
        <ele>33.5</ele>
        <time>2021-05-21T10:50:26Z</time>
      </trkpt>
      <trkpt lat="42.3946870" lon="-8.6291380">
        <ele>33.5</ele>
        <time>2021-05-21T10:50:27Z</time>
      </trkpt>
      <trkpt lat="42.3946810" lon="-8.6291400">
        <ele>33.5</ele>
        <time>2021-05-21T10:50:28Z</time>
      </trkpt>
      <trkpt lat="42.3946800" lon="-8.6291540">
        <ele>33.5</ele>
        <time>2021-05-21T10:50:29Z</time>
      </trkpt>
      <trkpt lat="42.3946780" lon="-8.6291610">
        <ele>33.5</ele>
        <time>2021-05-21T10:50:30Z</time>
      </trkpt>
      <trkpt lat="42.3946800" lon="-8.6291640">
        <ele>33.5</ele>
        <time>2021-05-21T10:50:31Z</time>
      </trkpt>
      <trkpt lat="42.3946760" lon="-8.6291710">
        <ele>33.4</ele>
        <time>2021-05-21T10:50:32Z</time>
      </trkpt>
      <trkpt lat="42.3946770" lon="-8.6291740">
        <ele>33.4</ele>
        <time>2021-05-21T10:50:33Z</time>
      </trkpt>
      <trkpt lat="42.3946780" lon="-8.6291780">
        <ele>33.4</ele>
        <time>2021-05-21T10:50:34Z</time>
      </trkpt>
      <trkpt lat="42.3946780" lon="-8.6291800">
        <ele>33.4</ele>
        <time>2021-05-21T10:50:35Z</time>
      </trkpt>
      <trkpt lat="42.3946770" lon="-8.6291830">
        <ele>33.4</ele>
        <time>2021-05-21T10:50:36Z</time>
      </trkpt>
      <trkpt lat="42.3946730" lon="-8.6291870">
        <ele>33.4</ele>
        <time>2021-05-21T10:50:37Z</time>
      </trkpt>
      <trkpt lat="42.3946760" lon="-8.6291880">
        <ele>33.4</ele>
        <time>2021-05-21T10:50:38Z</time>
      </trkpt>
      <trkpt lat="42.3946730" lon="-8.6291900">
        <ele>33.4</ele>
        <time>2021-05-21T10:50:39Z</time>
      </trkpt>
      <trkpt lat="42.3946720" lon="-8.6291910">
        <ele>33.4</ele>
        <time>2021-05-21T10:50:40Z</time>
      </trkpt>
      <trkpt lat="42.3946740" lon="-8.6291890">
        <ele>33.4</ele>
        <time>2021-05-21T10:50:41Z</time>
      </trkpt>
      <trkpt lat="42.3946740" lon="-8.6291860">
        <ele>33.4</ele>
        <time>2021-05-21T10:50:42Z</time>
      </trkpt>
      <trkpt lat="42.3946730" lon="-8.6291890">
        <ele>33.4</ele>
        <time>2021-05-21T10:50:43Z</time>
      </trkpt>
      <trkpt lat="42.3946740" lon="-8.6291940">
        <ele>33.4</ele>
        <time>2021-05-21T10:50:44Z</time>
      </trkpt>
      <trkpt lat="42.3946760" lon="-8.6291960">
        <ele>33.4</ele>
        <time>2021-05-21T10:50:45Z</time>
      </trkpt>
      <trkpt lat="42.3946770" lon="-8.6291980">
        <ele>33.4</ele>
        <time>2021-05-21T10:50:46Z</time>
      </trkpt>
      <trkpt lat="42.3946790" lon="-8.6291970">
        <ele>33.4</ele>
        <time>2021-05-21T10:50:47Z</time>
      </trkpt>
      <trkpt lat="42.3946830" lon="-8.6291990">
        <ele>33.4</ele>
        <time>2021-05-21T10:50:48Z</time>
      </trkpt>
      <trkpt lat="42.3946860" lon="-8.6292020">
        <ele>33.4</ele>
        <time>2021-05-21T10:50:49Z</time>
      </trkpt>
      <trkpt lat="42.3946870" lon="-8.6292060">
        <ele>33.4</ele>
        <time>2021-05-21T10:50:50Z</time>
      </trkpt>
      <trkpt lat="42.3946870" lon="-8.6292040">
        <ele>33.4</ele>
        <time>2021-05-21T10:50:51Z</time>
      </trkpt>
      <trkpt lat="42.3946860" lon="-8.6292080">
        <ele>33.4</ele>
        <time>2021-05-21T10:50:52Z</time>
      </trkpt>
      <trkpt lat="42.3946850" lon="-8.6292030">
        <ele>33.4</ele>
        <time>2021-05-21T10:50:53Z</time>
      </trkpt>
      <trkpt lat="42.3946840" lon="-8.6291960">
        <ele>33.4</ele>
        <time>2021-05-21T10:50:54Z</time>
      </trkpt>
      <trkpt lat="42.3946850" lon="-8.6291900">
        <ele>33.4</ele>
        <time>2021-05-21T10:50:55Z</time>
      </trkpt>
      <trkpt lat="42.3946890" lon="-8.6291870">
        <ele>33.4</ele>
        <time>2021-05-21T10:50:56Z</time>
      </trkpt>
      <trkpt lat="42.3946940" lon="-8.6291850">
        <ele>33.4</ele>
        <time>2021-05-21T10:50:57Z</time>
      </trkpt>
      <trkpt lat="42.3946940" lon="-8.6291760">
        <ele>33.4</ele>
        <time>2021-05-21T10:50:58Z</time>
      </trkpt>
      <trkpt lat="42.3946930" lon="-8.6291780">
        <ele>33.4</ele>
        <time>2021-05-21T10:50:59Z</time>
      </trkpt>
      <trkpt lat="42.3946920" lon="-8.6291770">
        <ele>33.4</ele>
        <time>2021-05-21T10:51:00Z</time>
      </trkpt>
      <trkpt lat="42.3946890" lon="-8.6291830">
        <ele>33.4</ele>
        <time>2021-05-21T10:51:01Z</time>
      </trkpt>
      <trkpt lat="42.3946820" lon="-8.6291930">
        <ele>33.4</ele>
        <time>2021-05-21T10:51:02Z</time>
      </trkpt>
      <trkpt lat="42.3946850" lon="-8.6291940">
        <ele>33.4</ele>
        <time>2021-05-21T10:51:03Z</time>
      </trkpt>
      <trkpt lat="42.3946850" lon="-8.6291830">
        <ele>33.4</ele>
        <time>2021-05-21T10:51:04Z</time>
      </trkpt>
      <trkpt lat="42.3946760" lon="-8.6291860">
        <ele>33.4</ele>
        <time>2021-05-21T10:51:05Z</time>
      </trkpt>
      <trkpt lat="42.3946770" lon="-8.6291870">
        <ele>33.4</ele>
        <time>2021-05-21T10:51:06Z</time>
      </trkpt>
      <trkpt lat="42.3946830" lon="-8.6291790">
        <ele>33.4</ele>
        <time>2021-05-21T10:51:07Z</time>
      </trkpt>
      <trkpt lat="42.3946840" lon="-8.6291820">
        <ele>33.4</ele>
        <time>2021-05-21T10:51:08Z</time>
      </trkpt>
      <trkpt lat="42.3946820" lon="-8.6291870">
        <ele>33.4</ele>
        <time>2021-05-21T10:51:09Z</time>
      </trkpt>
      <trkpt lat="42.3946780" lon="-8.6291920">
        <ele>33.4</ele>
        <time>2021-05-21T10:51:10Z</time>
      </trkpt>
      <trkpt lat="42.3946690" lon="-8.6291960">
        <ele>33.4</ele>
        <time>2021-05-21T10:51:11Z</time>
      </trkpt>
      <trkpt lat="42.3946680" lon="-8.6291970">
        <ele>33.4</ele>
        <time>2021-05-21T10:51:12Z</time>
      </trkpt>
      <trkpt lat="42.3946710" lon="-8.6292070">
        <ele>33.4</ele>
        <time>2021-05-21T10:51:13Z</time>
      </trkpt>
      <trkpt lat="42.3946760" lon="-8.6292050">
        <ele>33.4</ele>
        <time>2021-05-21T10:51:14Z</time>
      </trkpt>
      <trkpt lat="42.3946710" lon="-8.6292070">
        <ele>33.4</ele>
        <time>2021-05-21T10:51:15Z</time>
      </trkpt>
      <trkpt lat="42.3946650" lon="-8.6292090">
        <ele>33.4</ele>
        <time>2021-05-21T10:51:16Z</time>
      </trkpt>
      <trkpt lat="42.3946620" lon="-8.6292090">
        <ele>33.4</ele>
        <time>2021-05-21T10:51:17Z</time>
      </trkpt>
      <trkpt lat="42.3946680" lon="-8.6292100">
        <ele>33.4</ele>
        <time>2021-05-21T10:51:18Z</time>
      </trkpt>
      <trkpt lat="42.3946610" lon="-8.6292250">
        <ele>33.4</ele>
        <time>2021-05-21T10:51:19Z</time>
      </trkpt>
      <trkpt lat="42.3946570" lon="-8.6292390">
        <ele>33.4</ele>
        <time>2021-05-21T10:51:20Z</time>
      </trkpt>
      <trkpt lat="42.3946440" lon="-8.6292570">
        <ele>33.4</ele>
        <time>2021-05-21T10:51:21Z</time>
      </trkpt>
      <trkpt lat="42.3946430" lon="-8.6292610">
        <ele>33.4</ele>
        <time>2021-05-21T10:51:22Z</time>
      </trkpt>
      <trkpt lat="42.3946470" lon="-8.6292560">
        <ele>33.4</ele>
        <time>2021-05-21T10:51:23Z</time>
      </trkpt>
      <trkpt lat="42.3946500" lon="-8.6292520">
        <ele>33.4</ele>
        <time>2021-05-21T10:51:24Z</time>
      </trkpt>
      <trkpt lat="42.3946480" lon="-8.6292500">
        <ele>33.4</ele>
        <time>2021-05-21T10:51:25Z</time>
      </trkpt>
      <trkpt lat="42.3946480" lon="-8.6292490">
        <ele>33.4</ele>
        <time>2021-05-21T10:51:26Z</time>
      </trkpt>
      <trkpt lat="42.3946440" lon="-8.6292490">
        <ele>33.4</ele>
        <time>2021-05-21T10:51:27Z</time>
      </trkpt>
      <trkpt lat="42.3946440" lon="-8.6292460">
        <ele>33.4</ele>
        <time>2021-05-21T10:51:28Z</time>
      </trkpt>
      <trkpt lat="42.3946360" lon="-8.6292530">
        <ele>33.4</ele>
        <time>2021-05-21T10:51:29Z</time>
      </trkpt>
      <trkpt lat="42.3946460" lon="-8.6292600">
        <ele>33.4</ele>
        <time>2021-05-21T10:51:30Z</time>
      </trkpt>
      <trkpt lat="42.3946340" lon="-8.6292610">
        <ele>33.4</ele>
        <time>2021-05-21T10:51:31Z</time>
      </trkpt>
      <trkpt lat="42.3946300" lon="-8.6292740">
        <ele>33.4</ele>
        <time>2021-05-21T10:51:32Z</time>
      </trkpt>
      <trkpt lat="42.3946450" lon="-8.6292460">
        <ele>33.3</ele>
        <time>2021-05-21T10:51:33Z</time>
      </trkpt>
      <trkpt lat="42.3946570" lon="-8.6292320">
        <ele>33.3</ele>
        <time>2021-05-21T10:51:34Z</time>
      </trkpt>
      <trkpt lat="42.3946640" lon="-8.6292210">
        <ele>33.3</ele>
        <time>2021-05-21T10:51:35Z</time>
      </trkpt>
      <trkpt lat="42.3946650" lon="-8.6292170">
        <ele>33.3</ele>
        <time>2021-05-21T10:51:36Z</time>
      </trkpt>
      <trkpt lat="42.3946680" lon="-8.6292170">
        <ele>33.3</ele>
        <time>2021-05-21T10:51:37Z</time>
      </trkpt>
      <trkpt lat="42.3946730" lon="-8.6292110">
        <ele>33.3</ele>
        <time>2021-05-21T10:51:38Z</time>
      </trkpt>
      <trkpt lat="42.3946740" lon="-8.6292100">
        <ele>33.3</ele>
        <time>2021-05-21T10:51:39Z</time>
      </trkpt>
      <trkpt lat="42.3946740" lon="-8.6292080">
        <ele>33.3</ele>
        <time>2021-05-21T10:51:40Z</time>
      </trkpt>
      <trkpt lat="42.3946700" lon="-8.6292060">
        <ele>33.3</ele>
        <time>2021-05-21T10:51:41Z</time>
      </trkpt>
      <trkpt lat="42.3946680" lon="-8.6292060">
        <ele>33.3</ele>
        <time>2021-05-21T10:51:42Z</time>
      </trkpt>
      <trkpt lat="42.3946660" lon="-8.6292140">
        <ele>33.3</ele>
        <time>2021-05-21T10:51:43Z</time>
      </trkpt>
      <trkpt lat="42.3946660" lon="-8.6292170">
        <ele>33.3</ele>
        <time>2021-05-21T10:51:44Z</time>
      </trkpt>
      <trkpt lat="42.3946680" lon="-8.6292170">
        <ele>33.3</ele>
        <time>2021-05-21T10:51:45Z</time>
      </trkpt>
      <trkpt lat="42.3946710" lon="-8.6292130">
        <ele>33.3</ele>
        <time>2021-05-21T10:51:46Z</time>
      </trkpt>
      <trkpt lat="42.3946730" lon="-8.6292150">
        <ele>33.3</ele>
        <time>2021-05-21T10:51:47Z</time>
      </trkpt>
      <trkpt lat="42.3946740" lon="-8.6292140">
        <ele>33.3</ele>
        <time>2021-05-21T10:51:48Z</time>
      </trkpt>
      <trkpt lat="42.3946800" lon="-8.6292090">
        <ele>33.3</ele>
        <time>2021-05-21T10:51:49Z</time>
      </trkpt>
      <trkpt lat="42.3946800" lon="-8.6292090">
        <ele>33.3</ele>
        <time>2021-05-21T10:51:50Z</time>
      </trkpt>
      <trkpt lat="42.3946810" lon="-8.6292060">
        <ele>33.3</ele>
        <time>2021-05-21T10:51:51Z</time>
      </trkpt>
      <trkpt lat="42.3946800" lon="-8.6292030">
        <ele>33.3</ele>
        <time>2021-05-21T10:51:52Z</time>
      </trkpt>
      <trkpt lat="42.3946800" lon="-8.6292020">
        <ele>33.3</ele>
        <time>2021-05-21T10:51:53Z</time>
      </trkpt>
      <trkpt lat="42.3946830" lon="-8.6292040">
        <ele>33.3</ele>
        <time>2021-05-21T10:51:54Z</time>
      </trkpt>
      <trkpt lat="42.3946800" lon="-8.6292070">
        <ele>33.3</ele>
        <time>2021-05-21T10:51:55Z</time>
      </trkpt>
      <trkpt lat="42.3946770" lon="-8.6292120">
        <ele>33.3</ele>
        <time>2021-05-21T10:51:56Z</time>
      </trkpt>
      <trkpt lat="42.3946770" lon="-8.6292170">
        <ele>33.3</ele>
        <time>2021-05-21T10:51:57Z</time>
      </trkpt>
      <trkpt lat="42.3946730" lon="-8.6292180">
        <ele>33.3</ele>
        <time>2021-05-21T10:51:58Z</time>
      </trkpt>
      <trkpt lat="42.3946710" lon="-8.6292150">
        <ele>33.3</ele>
        <time>2021-05-21T10:51:59Z</time>
      </trkpt>
      <trkpt lat="42.3946720" lon="-8.6292130">
        <ele>33.3</ele>
        <time>2021-05-21T10:52:00Z</time>
      </trkpt>
      <trkpt lat="42.3946710" lon="-8.6292180">
        <ele>33.3</ele>
        <time>2021-05-21T10:52:01Z</time>
      </trkpt>
      <trkpt lat="42.3946690" lon="-8.6292190">
        <ele>33.3</ele>
        <time>2021-05-21T10:52:02Z</time>
      </trkpt>
      <trkpt lat="42.3946700" lon="-8.6292240">
        <ele>33.3</ele>
        <time>2021-05-21T10:52:03Z</time>
      </trkpt>
      <trkpt lat="42.3946710" lon="-8.6292240">
        <ele>33.3</ele>
        <time>2021-05-21T10:52:04Z</time>
      </trkpt>
      <trkpt lat="42.3946710" lon="-8.6292230">
        <ele>33.3</ele>
        <time>2021-05-21T10:52:05Z</time>
      </trkpt>
      <trkpt lat="42.3946720" lon="-8.6292240">
        <ele>33.3</ele>
        <time>2021-05-21T10:52:06Z</time>
      </trkpt>
      <trkpt lat="42.3946710" lon="-8.6292250">
        <ele>33.3</ele>
        <time>2021-05-21T10:52:07Z</time>
      </trkpt>
      <trkpt lat="42.3946740" lon="-8.6292250">
        <ele>33.3</ele>
        <time>2021-05-21T10:52:08Z</time>
      </trkpt>
      <trkpt lat="42.3946740" lon="-8.6292260">
        <ele>33.3</ele>
        <time>2021-05-21T10:52:09Z</time>
      </trkpt>
      <trkpt lat="42.3946710" lon="-8.6292250">
        <ele>33.3</ele>
        <time>2021-05-21T10:52:10Z</time>
      </trkpt>
      <trkpt lat="42.3946700" lon="-8.6292260">
        <ele>33.3</ele>
        <time>2021-05-21T10:52:11Z</time>
      </trkpt>
      <trkpt lat="42.3946700" lon="-8.6292240">
        <ele>33.3</ele>
        <time>2021-05-21T10:52:12Z</time>
      </trkpt>
      <trkpt lat="42.3946700" lon="-8.6292270">
        <ele>33.3</ele>
        <time>2021-05-21T10:52:13Z</time>
      </trkpt>
      <trkpt lat="42.3946660" lon="-8.6292340">
        <ele>33.3</ele>
        <time>2021-05-21T10:52:14Z</time>
      </trkpt>
      <trkpt lat="42.3946720" lon="-8.6292330">
        <ele>33.3</ele>
        <time>2021-05-21T10:52:15Z</time>
      </trkpt>
      <trkpt lat="42.3946700" lon="-8.6292370">
        <ele>33.3</ele>
        <time>2021-05-21T10:52:16Z</time>
      </trkpt>
      <trkpt lat="42.3946690" lon="-8.6292420">
        <ele>33.3</ele>
        <time>2021-05-21T10:52:17Z</time>
      </trkpt>
      <trkpt lat="42.3946660" lon="-8.6292470">
        <ele>33.3</ele>
        <time>2021-05-21T10:52:18Z</time>
      </trkpt>
      <trkpt lat="42.3946610" lon="-8.6292480">
        <ele>33.3</ele>
        <time>2021-05-21T10:52:19Z</time>
      </trkpt>
      <trkpt lat="42.3946630" lon="-8.6292490">
        <ele>33.3</ele>
        <time>2021-05-21T10:52:20Z</time>
      </trkpt>
      <trkpt lat="42.3946580" lon="-8.6292500">
        <ele>33.3</ele>
        <time>2021-05-21T10:52:21Z</time>
      </trkpt>
      <trkpt lat="42.3946580" lon="-8.6292480">
        <ele>33.3</ele>
        <time>2021-05-21T10:52:22Z</time>
      </trkpt>
      <trkpt lat="42.3946610" lon="-8.6292490">
        <ele>33.3</ele>
        <time>2021-05-21T10:52:23Z</time>
      </trkpt>
      <trkpt lat="42.3946630" lon="-8.6292430">
        <ele>33.3</ele>
        <time>2021-05-21T10:52:24Z</time>
      </trkpt>
      <trkpt lat="42.3946670" lon="-8.6292400">
        <ele>33.3</ele>
        <time>2021-05-21T10:52:25Z</time>
      </trkpt>
      <trkpt lat="42.3946760" lon="-8.6292410">
        <ele>33.3</ele>
        <time>2021-05-21T10:52:26Z</time>
      </trkpt>
      <trkpt lat="42.3946770" lon="-8.6292450">
        <ele>33.3</ele>
        <time>2021-05-21T10:52:27Z</time>
      </trkpt>
      <trkpt lat="42.3946860" lon="-8.6292390">
        <ele>33.3</ele>
        <time>2021-05-21T10:52:28Z</time>
      </trkpt>
      <trkpt lat="42.3946950" lon="-8.6292300">
        <ele>33.3</ele>
        <time>2021-05-21T10:52:29Z</time>
      </trkpt>
      <trkpt lat="42.3947070" lon="-8.6292160">
        <ele>33.3</ele>
        <time>2021-05-21T10:52:30Z</time>
      </trkpt>
      <trkpt lat="42.3947200" lon="-8.6292120">
        <ele>33.3</ele>
        <time>2021-05-21T10:52:31Z</time>
      </trkpt>
      <trkpt lat="42.3947240" lon="-8.6292080">
        <ele>33.3</ele>
        <time>2021-05-21T10:52:32Z</time>
      </trkpt>
      <trkpt lat="42.3947370" lon="-8.6291990">
        <ele>33.3</ele>
        <time>2021-05-21T10:52:33Z</time>
      </trkpt>
      <trkpt lat="42.3947500" lon="-8.6292020">
        <ele>33.3</ele>
        <time>2021-05-21T10:52:34Z</time>
      </trkpt>
      <trkpt lat="42.3947730" lon="-8.6291870">
        <ele>33.3</ele>
        <time>2021-05-21T10:52:35Z</time>
      </trkpt>
      <trkpt lat="42.3947740" lon="-8.6291800">
        <ele>33.3</ele>
        <time>2021-05-21T10:52:36Z</time>
      </trkpt>
      <trkpt lat="42.3947920" lon="-8.6291770">
        <ele>33.3</ele>
        <time>2021-05-21T10:52:37Z</time>
      </trkpt>
      <trkpt lat="42.3948010" lon="-8.6291730">
        <ele>33.3</ele>
        <time>2021-05-21T10:52:38Z</time>
      </trkpt>
      <trkpt lat="42.3948110" lon="-8.6291700">
        <ele>33.3</ele>
        <time>2021-05-21T10:52:39Z</time>
      </trkpt>
      <trkpt lat="42.3948280" lon="-8.6291630">
        <ele>33.3</ele>
        <time>2021-05-21T10:52:40Z</time>
      </trkpt>
      <trkpt lat="42.3948400" lon="-8.6291570">
        <ele>33.3</ele>
        <time>2021-05-21T10:52:41Z</time>
      </trkpt>
      <trkpt lat="42.3948510" lon="-8.6291500">
        <ele>33.3</ele>
        <time>2021-05-21T10:52:42Z</time>
      </trkpt>
      <trkpt lat="42.3948540" lon="-8.6291490">
        <ele>33.3</ele>
        <time>2021-05-21T10:52:43Z</time>
      </trkpt>
      <trkpt lat="42.3948590" lon="-8.6291370">
        <ele>33.3</ele>
        <time>2021-05-21T10:52:44Z</time>
      </trkpt>
      <trkpt lat="42.3948660" lon="-8.6291300">
        <ele>33.3</ele>
        <time>2021-05-21T10:52:45Z</time>
      </trkpt>
      <trkpt lat="42.3948770" lon="-8.6291250">
        <ele>33.3</ele>
        <time>2021-05-21T10:52:46Z</time>
      </trkpt>
      <trkpt lat="42.3948900" lon="-8.6291160">
        <ele>33.3</ele>
        <time>2021-05-21T10:52:47Z</time>
      </trkpt>
      <trkpt lat="42.3948970" lon="-8.6291100">
        <ele>33.3</ele>
        <time>2021-05-21T10:52:48Z</time>
      </trkpt>
      <trkpt lat="42.3949050" lon="-8.6291030">
        <ele>33.3</ele>
        <time>2021-05-21T10:52:49Z</time>
      </trkpt>
      <trkpt lat="42.3949120" lon="-8.6290970">
        <ele>33.3</ele>
        <time>2021-05-21T10:52:50Z</time>
      </trkpt>
      <trkpt lat="42.3949400" lon="-8.6290730">
        <ele>33.3</ele>
        <time>2021-05-21T10:52:51Z</time>
      </trkpt>
      <trkpt lat="42.3949480" lon="-8.6290660">
        <ele>33.3</ele>
        <time>2021-05-21T10:52:52Z</time>
      </trkpt>
      <trkpt lat="42.3949590" lon="-8.6290610">
        <ele>33.3</ele>
        <time>2021-05-21T10:52:53Z</time>
      </trkpt>
      <trkpt lat="42.3949690" lon="-8.6290480">
        <ele>33.3</ele>
        <time>2021-05-21T10:52:54Z</time>
      </trkpt>
      <trkpt lat="42.3949750" lon="-8.6290470">
        <ele>33.4</ele>
        <time>2021-05-21T10:52:55Z</time>
      </trkpt>
      <trkpt lat="42.3949930" lon="-8.6290300">
        <ele>33.4</ele>
        <time>2021-05-21T10:52:56Z</time>
      </trkpt>
      <trkpt lat="42.3950010" lon="-8.6290250">
        <ele>33.4</ele>
        <time>2021-05-21T10:52:57Z</time>
      </trkpt>
      <trkpt lat="42.3950080" lon="-8.6290210">
        <ele>33.4</ele>
        <time>2021-05-21T10:52:58Z</time>
      </trkpt>
      <trkpt lat="42.3950160" lon="-8.6290160">
        <ele>33.4</ele>
        <time>2021-05-21T10:52:59Z</time>
      </trkpt>
      <trkpt lat="42.3950380" lon="-8.6289990">
        <ele>33.4</ele>
        <time>2021-05-21T10:53:00Z</time>
      </trkpt>
      <trkpt lat="42.3950450" lon="-8.6289960">
        <ele>33.4</ele>
        <time>2021-05-21T10:53:01Z</time>
      </trkpt>
      <trkpt lat="42.3950510" lon="-8.6289940">
        <ele>33.4</ele>
        <time>2021-05-21T10:53:02Z</time>
      </trkpt>
      <trkpt lat="42.3950710" lon="-8.6289860">
        <ele>33.3</ele>
        <time>2021-05-21T10:53:03Z</time>
      </trkpt>
      <trkpt lat="42.3950860" lon="-8.6289830">
        <ele>33.3</ele>
        <time>2021-05-21T10:53:04Z</time>
      </trkpt>
      <trkpt lat="42.3951090" lon="-8.6289870">
        <ele>33.3</ele>
        <time>2021-05-21T10:53:05Z</time>
      </trkpt>
      <trkpt lat="42.3951170" lon="-8.6289860">
        <ele>33.2</ele>
        <time>2021-05-21T10:53:06Z</time>
      </trkpt>
      <trkpt lat="42.3951260" lon="-8.6289850">
        <ele>33.2</ele>
        <time>2021-05-21T10:53:07Z</time>
      </trkpt>
      <trkpt lat="42.3951460" lon="-8.6289940">
        <ele>33.2</ele>
        <time>2021-05-21T10:53:08Z</time>
      </trkpt>
      <trkpt lat="42.3951530" lon="-8.6290010">
        <ele>33.2</ele>
        <time>2021-05-21T10:53:09Z</time>
      </trkpt>
      <trkpt lat="42.3951590" lon="-8.6290090">
        <ele>33.2</ele>
        <time>2021-05-21T10:53:10Z</time>
      </trkpt>
      <trkpt lat="42.3951720" lon="-8.6290120">
        <ele>33.2</ele>
        <time>2021-05-21T10:53:11Z</time>
      </trkpt>
      <trkpt lat="42.3951880" lon="-8.6290060">
        <ele>33.1</ele>
        <time>2021-05-21T10:53:12Z</time>
      </trkpt>
      <trkpt lat="42.3952000" lon="-8.6290000">
        <ele>33.1</ele>
        <time>2021-05-21T10:53:13Z</time>
      </trkpt>
      <trkpt lat="42.3952150" lon="-8.6289890">
        <ele>33.1</ele>
        <time>2021-05-21T10:53:14Z</time>
      </trkpt>
      <trkpt lat="42.3952270" lon="-8.6289780">
        <ele>33.1</ele>
        <time>2021-05-21T10:53:15Z</time>
      </trkpt>
      <trkpt lat="42.3952390" lon="-8.6289690">
        <ele>33.0</ele>
        <time>2021-05-21T10:53:16Z</time>
      </trkpt>
      <trkpt lat="42.3952530" lon="-8.6289580">
        <ele>33.0</ele>
        <time>2021-05-21T10:53:17Z</time>
      </trkpt>
      <trkpt lat="42.3952680" lon="-8.6289580">
        <ele>33.0</ele>
        <time>2021-05-21T10:53:18Z</time>
      </trkpt>
      <trkpt lat="42.3952830" lon="-8.6289590">
        <ele>33.0</ele>
        <time>2021-05-21T10:53:19Z</time>
      </trkpt>
      <trkpt lat="42.3952950" lon="-8.6289510">
        <ele>32.9</ele>
        <time>2021-05-21T10:53:20Z</time>
      </trkpt>
      <trkpt lat="42.3953170" lon="-8.6289420">
        <ele>32.9</ele>
        <time>2021-05-21T10:53:21Z</time>
      </trkpt>
      <trkpt lat="42.3953260" lon="-8.6289420">
        <ele>32.9</ele>
        <time>2021-05-21T10:53:22Z</time>
      </trkpt>
      <trkpt lat="42.3953360" lon="-8.6289410">
        <ele>32.9</ele>
        <time>2021-05-21T10:53:23Z</time>
      </trkpt>
      <trkpt lat="42.3953490" lon="-8.6289430">
        <ele>32.8</ele>
        <time>2021-05-21T10:53:24Z</time>
      </trkpt>
      <trkpt lat="42.3953660" lon="-8.6289310">
        <ele>32.8</ele>
        <time>2021-05-21T10:53:25Z</time>
      </trkpt>
      <trkpt lat="42.3953800" lon="-8.6289280">
        <ele>32.8</ele>
        <time>2021-05-21T10:53:26Z</time>
      </trkpt>
      <trkpt lat="42.3953950" lon="-8.6289220">
        <ele>32.8</ele>
        <time>2021-05-21T10:53:27Z</time>
      </trkpt>
      <trkpt lat="42.3954180" lon="-8.6289150">
        <ele>32.8</ele>
        <time>2021-05-21T10:53:28Z</time>
      </trkpt>
      <trkpt lat="42.3954260" lon="-8.6289130">
        <ele>32.8</ele>
        <time>2021-05-21T10:53:29Z</time>
      </trkpt>
      <trkpt lat="42.3954350" lon="-8.6289110">
        <ele>32.8</ele>
        <time>2021-05-21T10:53:30Z</time>
      </trkpt>
      <trkpt lat="42.3954570" lon="-8.6289080">
        <ele>32.7</ele>
        <time>2021-05-21T10:53:31Z</time>
      </trkpt>
      <trkpt lat="42.3954640" lon="-8.6289060">
        <ele>32.7</ele>
        <time>2021-05-21T10:53:32Z</time>
      </trkpt>
      <trkpt lat="42.3954720" lon="-8.6289040">
        <ele>32.7</ele>
        <time>2021-05-21T10:53:33Z</time>
      </trkpt>
      <trkpt lat="42.3954870" lon="-8.6289010">
        <ele>32.7</ele>
        <time>2021-05-21T10:53:34Z</time>
      </trkpt>
      <trkpt lat="42.3955030" lon="-8.6289010">
        <ele>32.7</ele>
        <time>2021-05-21T10:53:35Z</time>
      </trkpt>
      <trkpt lat="42.3955260" lon="-8.6289000">
        <ele>32.7</ele>
        <time>2021-05-21T10:53:36Z</time>
      </trkpt>
      <trkpt lat="42.3955340" lon="-8.6288980">
        <ele>32.7</ele>
        <time>2021-05-21T10:53:37Z</time>
      </trkpt>
      <trkpt lat="42.3955430" lon="-8.6288950">
        <ele>32.7</ele>
        <time>2021-05-21T10:53:38Z</time>
      </trkpt>
      <trkpt lat="42.3955560" lon="-8.6288930">
        <ele>32.7</ele>
        <time>2021-05-21T10:53:39Z</time>
      </trkpt>
      <trkpt lat="42.3955670" lon="-8.6288910">
        <ele>32.7</ele>
        <time>2021-05-21T10:53:40Z</time>
      </trkpt>
      <trkpt lat="42.3955760" lon="-8.6288800">
        <ele>32.7</ele>
        <time>2021-05-21T10:53:41Z</time>
      </trkpt>
      <trkpt lat="42.3955890" lon="-8.6288720">
        <ele>32.7</ele>
        <time>2021-05-21T10:53:42Z</time>
      </trkpt>
      <trkpt lat="42.3956030" lon="-8.6288710">
        <ele>32.7</ele>
        <time>2021-05-21T10:53:43Z</time>
      </trkpt>
      <trkpt lat="42.3956160" lon="-8.6288670">
        <ele>32.7</ele>
        <time>2021-05-21T10:53:44Z</time>
      </trkpt>
      <trkpt lat="42.3956290" lon="-8.6288570">
        <ele>32.7</ele>
        <time>2021-05-21T10:53:45Z</time>
      </trkpt>
      <trkpt lat="42.3956420" lon="-8.6288580">
        <ele>32.7</ele>
        <time>2021-05-21T10:53:46Z</time>
      </trkpt>
      <trkpt lat="42.3956530" lon="-8.6288550">
        <ele>32.7</ele>
        <time>2021-05-21T10:53:47Z</time>
      </trkpt>
      <trkpt lat="42.3956640" lon="-8.6288580">
        <ele>32.7</ele>
        <time>2021-05-21T10:53:48Z</time>
      </trkpt>
      <trkpt lat="42.3956740" lon="-8.6288640">
        <ele>32.7</ele>
        <time>2021-05-21T10:53:49Z</time>
      </trkpt>
      <trkpt lat="42.3956810" lon="-8.6288580">
        <ele>32.7</ele>
        <time>2021-05-21T10:53:50Z</time>
      </trkpt>
      <trkpt lat="42.3956960" lon="-8.6288670">
        <ele>32.7</ele>
        <time>2021-05-21T10:53:51Z</time>
      </trkpt>
      <trkpt lat="42.3957120" lon="-8.6288650">
        <ele>32.7</ele>
        <time>2021-05-21T10:53:52Z</time>
      </trkpt>
      <trkpt lat="42.3957200" lon="-8.6288560">
        <ele>32.7</ele>
        <time>2021-05-21T10:53:53Z</time>
      </trkpt>
      <trkpt lat="42.3957300" lon="-8.6288680">
        <ele>32.7</ele>
        <time>2021-05-21T10:53:54Z</time>
      </trkpt>
      <trkpt lat="42.3957470" lon="-8.6288690">
        <ele>32.7</ele>
        <time>2021-05-21T10:53:55Z</time>
      </trkpt>
      <trkpt lat="42.3957530" lon="-8.6288650">
        <ele>32.7</ele>
        <time>2021-05-21T10:53:56Z</time>
      </trkpt>
      <trkpt lat="42.3957590" lon="-8.6288620">
        <ele>32.7</ele>
        <time>2021-05-21T10:53:57Z</time>
      </trkpt>
      <trkpt lat="42.3957650" lon="-8.6288580">
        <ele>32.7</ele>
        <time>2021-05-21T10:53:58Z</time>
      </trkpt>
      <trkpt lat="42.3957770" lon="-8.6288520">
        <ele>32.7</ele>
        <time>2021-05-21T10:53:59Z</time>
      </trkpt>
      <trkpt lat="42.3957860" lon="-8.6288500">
        <ele>32.7</ele>
        <time>2021-05-21T10:54:00Z</time>
      </trkpt>
      <trkpt lat="42.3957950" lon="-8.6288470">
        <ele>32.7</ele>
        <time>2021-05-21T10:54:01Z</time>
      </trkpt>
      <trkpt lat="42.3958040" lon="-8.6288450">
        <ele>32.8</ele>
        <time>2021-05-21T10:54:02Z</time>
      </trkpt>
      <trkpt lat="42.3958110" lon="-8.6288530">
        <ele>32.8</ele>
        <time>2021-05-21T10:54:03Z</time>
      </trkpt>
      <trkpt lat="42.3958230" lon="-8.6288490">
        <ele>32.8</ele>
        <time>2021-05-21T10:54:04Z</time>
      </trkpt>
      <trkpt lat="42.3958250" lon="-8.6288460">
        <ele>32.8</ele>
        <time>2021-05-21T10:54:05Z</time>
      </trkpt>
      <trkpt lat="42.3958360" lon="-8.6288370">
        <ele>32.8</ele>
        <time>2021-05-21T10:54:06Z</time>
      </trkpt>
      <trkpt lat="42.3958500" lon="-8.6288360">
        <ele>32.8</ele>
        <time>2021-05-21T10:54:07Z</time>
      </trkpt>
      <trkpt lat="42.3958650" lon="-8.6288330">
        <ele>32.8</ele>
        <time>2021-05-21T10:54:08Z</time>
      </trkpt>
      <trkpt lat="42.3958830" lon="-8.6288340">
        <ele>32.8</ele>
        <time>2021-05-21T10:54:09Z</time>
      </trkpt>
      <trkpt lat="42.3958930" lon="-8.6288360">
        <ele>32.8</ele>
        <time>2021-05-21T10:54:10Z</time>
      </trkpt>
      <trkpt lat="42.3959020" lon="-8.6288390">
        <ele>32.9</ele>
        <time>2021-05-21T10:54:11Z</time>
      </trkpt>
      <trkpt lat="42.3959120" lon="-8.6288400">
        <ele>32.9</ele>
        <time>2021-05-21T10:54:12Z</time>
      </trkpt>
      <trkpt lat="42.3959250" lon="-8.6288450">
        <ele>32.9</ele>
        <time>2021-05-21T10:54:13Z</time>
      </trkpt>
      <trkpt lat="42.3959320" lon="-8.6288410">
        <ele>32.9</ele>
        <time>2021-05-21T10:54:14Z</time>
      </trkpt>
      <trkpt lat="42.3959500" lon="-8.6288340">
        <ele>32.9</ele>
        <time>2021-05-21T10:54:15Z</time>
      </trkpt>
      <trkpt lat="42.3959570" lon="-8.6288310">
        <ele>32.9</ele>
        <time>2021-05-21T10:54:16Z</time>
      </trkpt>
      <trkpt lat="42.3959660" lon="-8.6288350">
        <ele>32.9</ele>
        <time>2021-05-21T10:54:17Z</time>
      </trkpt>
      <trkpt lat="42.3959860" lon="-8.6288350">
        <ele>33.0</ele>
        <time>2021-05-21T10:54:18Z</time>
      </trkpt>
      <trkpt lat="42.3959950" lon="-8.6288350">
        <ele>33.0</ele>
        <time>2021-05-21T10:54:19Z</time>
      </trkpt>
      <trkpt lat="42.3960040" lon="-8.6288350">
        <ele>33.0</ele>
        <time>2021-05-21T10:54:20Z</time>
      </trkpt>
      <trkpt lat="42.3960290" lon="-8.6288460">
        <ele>33.0</ele>
        <time>2021-05-21T10:54:21Z</time>
      </trkpt>
      <trkpt lat="42.3960410" lon="-8.6288470">
        <ele>33.0</ele>
        <time>2021-05-21T10:54:22Z</time>
      </trkpt>
      <trkpt lat="42.3960550" lon="-8.6288580">
        <ele>33.0</ele>
        <time>2021-05-21T10:54:23Z</time>
      </trkpt>
      <trkpt lat="42.3960680" lon="-8.6288700">
        <ele>33.1</ele>
        <time>2021-05-21T10:54:24Z</time>
      </trkpt>
      <trkpt lat="42.3960770" lon="-8.6288830">
        <ele>33.1</ele>
        <time>2021-05-21T10:54:25Z</time>
      </trkpt>
      <trkpt lat="42.3960930" lon="-8.6288920">
        <ele>33.1</ele>
        <time>2021-05-21T10:54:26Z</time>
      </trkpt>
      <trkpt lat="42.3961060" lon="-8.6289000">
        <ele>33.2</ele>
        <time>2021-05-21T10:54:27Z</time>
      </trkpt>
      <trkpt lat="42.3961200" lon="-8.6289140">
        <ele>33.2</ele>
        <time>2021-05-21T10:54:28Z</time>
      </trkpt>
      <trkpt lat="42.3961360" lon="-8.6289250">
        <ele>33.2</ele>
        <time>2021-05-21T10:54:29Z</time>
      </trkpt>
      <trkpt lat="42.3961440" lon="-8.6289330">
        <ele>33.2</ele>
        <time>2021-05-21T10:54:30Z</time>
      </trkpt>
      <trkpt lat="42.3961560" lon="-8.6289460">
        <ele>33.2</ele>
        <time>2021-05-21T10:54:31Z</time>
      </trkpt>
      <trkpt lat="42.3961660" lon="-8.6289610">
        <ele>33.2</ele>
        <time>2021-05-21T10:54:32Z</time>
      </trkpt>
      <trkpt lat="42.3961770" lon="-8.6289720">
        <ele>33.3</ele>
        <time>2021-05-21T10:54:33Z</time>
      </trkpt>
      <trkpt lat="42.3961910" lon="-8.6289800">
        <ele>33.3</ele>
        <time>2021-05-21T10:54:34Z</time>
      </trkpt>
      <trkpt lat="42.3962100" lon="-8.6289940">
        <ele>33.3</ele>
        <time>2021-05-21T10:54:35Z</time>
      </trkpt>
      <trkpt lat="42.3962170" lon="-8.6290000">
        <ele>33.3</ele>
        <time>2021-05-21T10:54:36Z</time>
      </trkpt>
      <trkpt lat="42.3962250" lon="-8.6290050">
        <ele>33.3</ele>
        <time>2021-05-21T10:54:37Z</time>
      </trkpt>
      <trkpt lat="42.3962340" lon="-8.6290210">
        <ele>33.3</ele>
        <time>2021-05-21T10:54:38Z</time>
      </trkpt>
      <trkpt lat="42.3962390" lon="-8.6290390">
        <ele>33.4</ele>
        <time>2021-05-21T10:54:39Z</time>
      </trkpt>
      <trkpt lat="42.3962590" lon="-8.6290560">
        <ele>33.4</ele>
        <time>2021-05-21T10:54:40Z</time>
      </trkpt>
      <trkpt lat="42.3962670" lon="-8.6290600">
        <ele>33.4</ele>
        <time>2021-05-21T10:54:41Z</time>
      </trkpt>
      <trkpt lat="42.3962750" lon="-8.6290650">
        <ele>33.4</ele>
        <time>2021-05-21T10:54:42Z</time>
      </trkpt>
      <trkpt lat="42.3962880" lon="-8.6290710">
        <ele>33.4</ele>
        <time>2021-05-21T10:54:43Z</time>
      </trkpt>
      <trkpt lat="42.3963000" lon="-8.6290790">
        <ele>33.5</ele>
        <time>2021-05-21T10:54:44Z</time>
      </trkpt>
      <trkpt lat="42.3963100" lon="-8.6290940">
        <ele>33.5</ele>
        <time>2021-05-21T10:54:45Z</time>
      </trkpt>
      <trkpt lat="42.3963190" lon="-8.6291100">
        <ele>33.5</ele>
        <time>2021-05-21T10:54:46Z</time>
      </trkpt>
      <trkpt lat="42.3963270" lon="-8.6291250">
        <ele>33.6</ele>
        <time>2021-05-21T10:54:47Z</time>
      </trkpt>
      <trkpt lat="42.3963360" lon="-8.6291390">
        <ele>33.6</ele>
        <time>2021-05-21T10:54:48Z</time>
      </trkpt>
      <trkpt lat="42.3963530" lon="-8.6291550">
        <ele>33.6</ele>
        <time>2021-05-21T10:54:49Z</time>
      </trkpt>
      <trkpt lat="42.3963610" lon="-8.6291610">
        <ele>33.7</ele>
        <time>2021-05-21T10:54:50Z</time>
      </trkpt>
      <trkpt lat="42.3963690" lon="-8.6291660">
        <ele>33.7</ele>
        <time>2021-05-21T10:54:51Z</time>
      </trkpt>
      <trkpt lat="42.3963790" lon="-8.6291840">
        <ele>33.7</ele>
        <time>2021-05-21T10:54:52Z</time>
      </trkpt>
      <trkpt lat="42.3963860" lon="-8.6291890">
        <ele>33.7</ele>
        <time>2021-05-21T10:54:53Z</time>
      </trkpt>
      <trkpt lat="42.3963930" lon="-8.6291930">
        <ele>33.7</ele>
        <time>2021-05-21T10:54:54Z</time>
      </trkpt>
      <trkpt lat="42.3964000" lon="-8.6291980">
        <ele>33.8</ele>
        <time>2021-05-21T10:54:55Z</time>
      </trkpt>
      <trkpt lat="42.3964040" lon="-8.6292060">
        <ele>33.8</ele>
        <time>2021-05-21T10:54:56Z</time>
      </trkpt>
      <trkpt lat="42.3964150" lon="-8.6292070">
        <ele>33.8</ele>
        <time>2021-05-21T10:54:57Z</time>
      </trkpt>
      <trkpt lat="42.3964220" lon="-8.6292170">
        <ele>33.8</ele>
        <time>2021-05-21T10:54:58Z</time>
      </trkpt>
      <trkpt lat="42.3964210" lon="-8.6292200">
        <ele>33.8</ele>
        <time>2021-05-21T10:54:59Z</time>
      </trkpt>
      <trkpt lat="42.3964240" lon="-8.6292280">
        <ele>33.8</ele>
        <time>2021-05-21T10:55:00Z</time>
      </trkpt>
      <trkpt lat="42.3964310" lon="-8.6292410">
        <ele>33.9</ele>
        <time>2021-05-21T10:55:01Z</time>
      </trkpt>
      <trkpt lat="42.3964380" lon="-8.6292640">
        <ele>33.9</ele>
        <time>2021-05-21T10:55:02Z</time>
      </trkpt>
      <trkpt lat="42.3964330" lon="-8.6292690">
        <ele>33.9</ele>
        <time>2021-05-21T10:55:03Z</time>
      </trkpt>
      <trkpt lat="42.3964250" lon="-8.6292650">
        <ele>33.9</ele>
        <time>2021-05-21T10:55:04Z</time>
      </trkpt>
      <trkpt lat="42.3964170" lon="-8.6292600">
        <ele>34.0</ele>
        <time>2021-05-21T10:55:05Z</time>
      </trkpt>
      <trkpt lat="42.3964090" lon="-8.6292560">
        <ele>34.0</ele>
        <time>2021-05-21T10:55:06Z</time>
      </trkpt>
      <trkpt lat="42.3964010" lon="-8.6292510">
        <ele>34.0</ele>
        <time>2021-05-21T10:55:07Z</time>
      </trkpt>
      <trkpt lat="42.3963890" lon="-8.6292280">
        <ele>34.0</ele>
        <time>2021-05-21T10:55:08Z</time>
      </trkpt>
      <trkpt lat="42.3963830" lon="-8.6292240">
        <ele>34.1</ele>
        <time>2021-05-21T10:55:09Z</time>
      </trkpt>
      <trkpt lat="42.3963860" lon="-8.6292320">
        <ele>34.1</ele>
        <time>2021-05-21T10:55:10Z</time>
      </trkpt>
      <trkpt lat="42.3963840" lon="-8.6292360">
        <ele>34.1</ele>
        <time>2021-05-21T10:55:11Z</time>
      </trkpt>
      <trkpt lat="42.3963800" lon="-8.6292390">
        <ele>34.1</ele>
        <time>2021-05-21T10:55:12Z</time>
      </trkpt>
      <trkpt lat="42.3963710" lon="-8.6292530">
        <ele>34.1</ele>
        <time>2021-05-21T10:55:13Z</time>
      </trkpt>
      <trkpt lat="42.3963810" lon="-8.6292660">
        <ele>34.2</ele>
        <time>2021-05-21T10:55:14Z</time>
      </trkpt>
      <trkpt lat="42.3963880" lon="-8.6292740">
        <ele>34.2</ele>
        <time>2021-05-21T10:55:15Z</time>
      </trkpt>
      <trkpt lat="42.3963950" lon="-8.6292790">
        <ele>34.2</ele>
        <time>2021-05-21T10:55:16Z</time>
      </trkpt>
      <trkpt lat="42.3964120" lon="-8.6292900">
        <ele>34.2</ele>
        <time>2021-05-21T10:55:17Z</time>
      </trkpt>
      <trkpt lat="42.3964190" lon="-8.6292980">
        <ele>34.3</ele>
        <time>2021-05-21T10:55:18Z</time>
      </trkpt>
      <trkpt lat="42.3964260" lon="-8.6293070">
        <ele>34.3</ele>
        <time>2021-05-21T10:55:19Z</time>
      </trkpt>
      <trkpt lat="42.3964370" lon="-8.6293230">
        <ele>34.3</ele>
        <time>2021-05-21T10:55:20Z</time>
      </trkpt>
      <trkpt lat="42.3964450" lon="-8.6293280">
        <ele>34.3</ele>
        <time>2021-05-21T10:55:21Z</time>
      </trkpt>
      <trkpt lat="42.3964430" lon="-8.6293390">
        <ele>34.4</ele>
        <time>2021-05-21T10:55:22Z</time>
      </trkpt>
      <trkpt lat="42.3964580" lon="-8.6293490">
        <ele>34.4</ele>
        <time>2021-05-21T10:55:23Z</time>
      </trkpt>
      <trkpt lat="42.3964660" lon="-8.6293620">
        <ele>34.4</ele>
        <time>2021-05-21T10:55:24Z</time>
      </trkpt>
      <trkpt lat="42.3964800" lon="-8.6293710">
        <ele>34.5</ele>
        <time>2021-05-21T10:55:25Z</time>
      </trkpt>
      <trkpt lat="42.3964920" lon="-8.6293830">
        <ele>34.5</ele>
        <time>2021-05-21T10:55:26Z</time>
      </trkpt>
      <trkpt lat="42.3965070" lon="-8.6293910">
        <ele>34.5</ele>
        <time>2021-05-21T10:55:27Z</time>
      </trkpt>
      <trkpt lat="42.3965110" lon="-8.6294010">
        <ele>34.6</ele>
        <time>2021-05-21T10:55:28Z</time>
      </trkpt>
      <trkpt lat="42.3965160" lon="-8.6294150">
        <ele>34.6</ele>
        <time>2021-05-21T10:55:29Z</time>
      </trkpt>
      <trkpt lat="42.3965240" lon="-8.6294290">
        <ele>34.6</ele>
        <time>2021-05-21T10:55:30Z</time>
      </trkpt>
      <trkpt lat="42.3965370" lon="-8.6294400">
        <ele>34.6</ele>
        <time>2021-05-21T10:55:31Z</time>
      </trkpt>
      <trkpt lat="42.3965480" lon="-8.6294530">
        <ele>34.7</ele>
        <time>2021-05-21T10:55:32Z</time>
      </trkpt>
      <trkpt lat="42.3965600" lon="-8.6294710">
        <ele>34.7</ele>
        <time>2021-05-21T10:55:33Z</time>
      </trkpt>
      <trkpt lat="42.3965680" lon="-8.6294960">
        <ele>34.8</ele>
        <time>2021-05-21T10:55:34Z</time>
      </trkpt>
      <trkpt lat="42.3965760" lon="-8.6295030">
        <ele>34.8</ele>
        <time>2021-05-21T10:55:35Z</time>
      </trkpt>
      <trkpt lat="42.3965830" lon="-8.6295100">
        <ele>34.8</ele>
        <time>2021-05-21T10:55:36Z</time>
      </trkpt>
      <trkpt lat="42.3965930" lon="-8.6295200">
        <ele>34.8</ele>
        <time>2021-05-21T10:55:37Z</time>
      </trkpt>
      <trkpt lat="42.3966030" lon="-8.6295250">
        <ele>34.9</ele>
        <time>2021-05-21T10:55:38Z</time>
      </trkpt>
      <trkpt lat="42.3966050" lon="-8.6295340">
        <ele>34.9</ele>
        <time>2021-05-21T10:55:39Z</time>
      </trkpt>
      <trkpt lat="42.3966120" lon="-8.6295550">
        <ele>34.9</ele>
        <time>2021-05-21T10:55:40Z</time>
      </trkpt>
      <trkpt lat="42.3966240" lon="-8.6295740">
        <ele>35.0</ele>
        <time>2021-05-21T10:55:41Z</time>
      </trkpt>
      <trkpt lat="42.3966350" lon="-8.6295880">
        <ele>35.0</ele>
        <time>2021-05-21T10:55:42Z</time>
      </trkpt>
      <trkpt lat="42.3966500" lon="-8.6295970">
        <ele>35.0</ele>
        <time>2021-05-21T10:55:43Z</time>
      </trkpt>
      <trkpt lat="42.3966590" lon="-8.6296150">
        <ele>35.1</ele>
        <time>2021-05-21T10:55:44Z</time>
      </trkpt>
      <trkpt lat="42.3966660" lon="-8.6296290">
        <ele>35.1</ele>
        <time>2021-05-21T10:55:45Z</time>
      </trkpt>
      <trkpt lat="42.3966710" lon="-8.6296490">
        <ele>35.1</ele>
        <time>2021-05-21T10:55:46Z</time>
      </trkpt>
      <trkpt lat="42.3966760" lon="-8.6296570">
        <ele>35.1</ele>
        <time>2021-05-21T10:55:47Z</time>
      </trkpt>
      <trkpt lat="42.3966870" lon="-8.6296560">
        <ele>35.2</ele>
        <time>2021-05-21T10:55:48Z</time>
      </trkpt>
      <trkpt lat="42.3967000" lon="-8.6296700">
        <ele>35.2</ele>
        <time>2021-05-21T10:55:49Z</time>
      </trkpt>
      <trkpt lat="42.3967070" lon="-8.6296820">
        <ele>35.2</ele>
        <time>2021-05-21T10:55:50Z</time>
      </trkpt>
      <trkpt lat="42.3967240" lon="-8.6296890">
        <ele>35.3</ele>
        <time>2021-05-21T10:55:51Z</time>
      </trkpt>
      <trkpt lat="42.3967340" lon="-8.6296990">
        <ele>35.3</ele>
        <time>2021-05-21T10:55:52Z</time>
      </trkpt>
      <trkpt lat="42.3967450" lon="-8.6297160">
        <ele>35.3</ele>
        <time>2021-05-21T10:55:53Z</time>
      </trkpt>
      <trkpt lat="42.3967540" lon="-8.6297240">
        <ele>35.4</ele>
        <time>2021-05-21T10:55:54Z</time>
      </trkpt>
      <trkpt lat="42.3967620" lon="-8.6297320">
        <ele>35.4</ele>
        <time>2021-05-21T10:55:55Z</time>
      </trkpt>
      <trkpt lat="42.3967750" lon="-8.6297530">
        <ele>35.4</ele>
        <time>2021-05-21T10:55:56Z</time>
      </trkpt>
      <trkpt lat="42.3967810" lon="-8.6297620">
        <ele>35.4</ele>
        <time>2021-05-21T10:55:57Z</time>
      </trkpt>
      <trkpt lat="42.3967870" lon="-8.6297720">
        <ele>35.5</ele>
        <time>2021-05-21T10:55:58Z</time>
      </trkpt>
      <trkpt lat="42.3967940" lon="-8.6297730">
        <ele>35.5</ele>
        <time>2021-05-21T10:55:59Z</time>
      </trkpt>
      <trkpt lat="42.3968090" lon="-8.6297810">
        <ele>35.5</ele>
        <time>2021-05-21T10:56:00Z</time>
      </trkpt>
      <trkpt lat="42.3968100" lon="-8.6297910">
        <ele>35.5</ele>
        <time>2021-05-21T10:56:01Z</time>
      </trkpt>
      <trkpt lat="42.3968350" lon="-8.6298160">
        <ele>35.6</ele>
        <time>2021-05-21T10:56:02Z</time>
      </trkpt>
      <trkpt lat="42.3968410" lon="-8.6298220">
        <ele>35.6</ele>
        <time>2021-05-21T10:56:03Z</time>
      </trkpt>
      <trkpt lat="42.3968620" lon="-8.6298300">
        <ele>35.7</ele>
        <time>2021-05-21T10:56:04Z</time>
      </trkpt>
      <trkpt lat="42.3968740" lon="-8.6298410">
        <ele>35.7</ele>
        <time>2021-05-21T10:56:05Z</time>
      </trkpt>
      <trkpt lat="42.3968910" lon="-8.6298430">
        <ele>35.7</ele>
        <time>2021-05-21T10:56:06Z</time>
      </trkpt>
      <trkpt lat="42.3969050" lon="-8.6298520">
        <ele>35.8</ele>
        <time>2021-05-21T10:56:07Z</time>
      </trkpt>
      <trkpt lat="42.3969180" lon="-8.6298670">
        <ele>35.8</ele>
        <time>2021-05-21T10:56:08Z</time>
      </trkpt>
      <trkpt lat="42.3969300" lon="-8.6298760">
        <ele>35.9</ele>
        <time>2021-05-21T10:56:09Z</time>
      </trkpt>
      <trkpt lat="42.3969420" lon="-8.6298890">
        <ele>35.9</ele>
        <time>2021-05-21T10:56:10Z</time>
      </trkpt>
      <trkpt lat="42.3969550" lon="-8.6298950">
        <ele>35.9</ele>
        <time>2021-05-21T10:56:11Z</time>
      </trkpt>
      <trkpt lat="42.3969690" lon="-8.6299000">
        <ele>36.0</ele>
        <time>2021-05-21T10:56:12Z</time>
      </trkpt>
      <trkpt lat="42.3969770" lon="-8.6299080">
        <ele>36.0</ele>
        <time>2021-05-21T10:56:13Z</time>
      </trkpt>
      <trkpt lat="42.3969800" lon="-8.6299170">
        <ele>36.0</ele>
        <time>2021-05-21T10:56:14Z</time>
      </trkpt>
      <trkpt lat="42.3969760" lon="-8.6299150">
        <ele>36.0</ele>
        <time>2021-05-21T10:56:15Z</time>
      </trkpt>
      <trkpt lat="42.3969770" lon="-8.6299160">
        <ele>36.0</ele>
        <time>2021-05-21T10:56:16Z</time>
      </trkpt>
      <trkpt lat="42.3969790" lon="-8.6299160">
        <ele>36.0</ele>
        <time>2021-05-21T10:56:17Z</time>
      </trkpt>
      <trkpt lat="42.3969810" lon="-8.6299170">
        <ele>36.1</ele>
        <time>2021-05-21T10:56:18Z</time>
      </trkpt>
      <trkpt lat="42.3969820" lon="-8.6299170">
        <ele>36.1</ele>
        <time>2021-05-21T10:56:19Z</time>
      </trkpt>
      <trkpt lat="42.3969840" lon="-8.6299180">
        <ele>36.1</ele>
        <time>2021-05-21T10:56:20Z</time>
      </trkpt>
      <trkpt lat="42.3969860" lon="-8.6299180">
        <ele>36.1</ele>
        <time>2021-05-21T10:56:21Z</time>
      </trkpt>
      <trkpt lat="42.3969870" lon="-8.6299190">
        <ele>36.1</ele>
        <time>2021-05-21T10:56:22Z</time>
      </trkpt>
      <trkpt lat="42.3969890" lon="-8.6299190">
        <ele>36.1</ele>
        <time>2021-05-21T10:56:23Z</time>
      </trkpt>
      <trkpt lat="42.3969910" lon="-8.6299190">
        <ele>36.1</ele>
        <time>2021-05-21T10:56:24Z</time>
      </trkpt>
      <trkpt lat="42.3969920" lon="-8.6299200">
        <ele>36.1</ele>
        <time>2021-05-21T10:56:25Z</time>
      </trkpt>
      <trkpt lat="42.3969940" lon="-8.6299200">
        <ele>36.1</ele>
        <time>2021-05-21T10:56:26Z</time>
      </trkpt>
      <trkpt lat="42.3969960" lon="-8.6299210">
        <ele>36.1</ele>
        <time>2021-05-21T10:56:27Z</time>
      </trkpt>
      <trkpt lat="42.3969970" lon="-8.6299210">
        <ele>36.1</ele>
        <time>2021-05-21T10:56:28Z</time>
      </trkpt>
      <trkpt lat="42.3969990" lon="-8.6299220">
        <ele>36.1</ele>
        <time>2021-05-21T10:56:29Z</time>
      </trkpt>
      <trkpt lat="42.3970010" lon="-8.6299220">
        <ele>36.1</ele>
        <time>2021-05-21T10:56:30Z</time>
      </trkpt>
      <trkpt lat="42.3970020" lon="-8.6299230">
        <ele>36.1</ele>
        <time>2021-05-21T10:56:31Z</time>
      </trkpt>
      <trkpt lat="42.3970040" lon="-8.6299230">
        <ele>36.1</ele>
        <time>2021-05-21T10:56:32Z</time>
      </trkpt>
      <trkpt lat="42.3970060" lon="-8.6299230">
        <ele>36.1</ele>
        <time>2021-05-21T10:56:33Z</time>
      </trkpt>
      <trkpt lat="42.3970070" lon="-8.6299240">
        <ele>36.1</ele>
        <time>2021-05-21T10:56:34Z</time>
      </trkpt>
      <trkpt lat="42.3970090" lon="-8.6299240">
        <ele>36.1</ele>
        <time>2021-05-21T10:56:35Z</time>
      </trkpt>
      <trkpt lat="42.3970110" lon="-8.6299250">
        <ele>36.1</ele>
        <time>2021-05-21T10:56:36Z</time>
      </trkpt>
      <trkpt lat="42.3970120" lon="-8.6299250">
        <ele>36.1</ele>
        <time>2021-05-21T10:56:37Z</time>
      </trkpt>
      <trkpt lat="42.3970140" lon="-8.6299260">
        <ele>36.1</ele>
        <time>2021-05-21T10:56:38Z</time>
      </trkpt>
      <trkpt lat="42.3970160" lon="-8.6299260">
        <ele>36.2</ele>
        <time>2021-05-21T10:56:39Z</time>
      </trkpt>
      <trkpt lat="42.3970170" lon="-8.6299270">
        <ele>36.2</ele>
        <time>2021-05-21T10:56:40Z</time>
      </trkpt>
      <trkpt lat="42.3970190" lon="-8.6299270">
        <ele>36.2</ele>
        <time>2021-05-21T10:56:41Z</time>
      </trkpt>
      <trkpt lat="42.3970370" lon="-8.6299300">
        <ele>36.2</ele>
        <time>2021-05-21T10:56:42Z</time>
      </trkpt>
      <trkpt lat="42.3970490" lon="-8.6299350">
        <ele>36.2</ele>
        <time>2021-05-21T10:56:43Z</time>
      </trkpt>
      <trkpt lat="42.3970640" lon="-8.6299400">
        <ele>36.3</ele>
        <time>2021-05-21T10:56:44Z</time>
      </trkpt>
      <trkpt lat="42.3970800" lon="-8.6299440">
        <ele>36.3</ele>
        <time>2021-05-21T10:56:45Z</time>
      </trkpt>
      <trkpt lat="42.3970850" lon="-8.6299510">
        <ele>36.4</ele>
        <time>2021-05-21T10:56:46Z</time>
      </trkpt>
      <trkpt lat="42.3970960" lon="-8.6299550">
        <ele>36.4</ele>
        <time>2021-05-21T10:56:47Z</time>
      </trkpt>
      <trkpt lat="42.3971080" lon="-8.6299610">
        <ele>36.4</ele>
        <time>2021-05-21T10:56:48Z</time>
      </trkpt>
      <trkpt lat="42.3971200" lon="-8.6299630">
        <ele>36.5</ele>
        <time>2021-05-21T10:56:49Z</time>
      </trkpt>
      <trkpt lat="42.3971390" lon="-8.6299690">
        <ele>36.5</ele>
        <time>2021-05-21T10:56:50Z</time>
      </trkpt>
      <trkpt lat="42.3971540" lon="-8.6299660">
        <ele>36.6</ele>
        <time>2021-05-21T10:56:51Z</time>
      </trkpt>
      <trkpt lat="42.3971570" lon="-8.6299700">
        <ele>36.6</ele>
        <time>2021-05-21T10:56:52Z</time>
      </trkpt>
      <trkpt lat="42.3971680" lon="-8.6299770">
        <ele>36.6</ele>
        <time>2021-05-21T10:56:53Z</time>
      </trkpt>
      <trkpt lat="42.3971830" lon="-8.6299780">
        <ele>36.6</ele>
        <time>2021-05-21T10:56:54Z</time>
      </trkpt>
      <trkpt lat="42.3971950" lon="-8.6299920">
        <ele>36.7</ele>
        <time>2021-05-21T10:56:55Z</time>
      </trkpt>
      <trkpt lat="42.3972160" lon="-8.6299910">
        <ele>36.7</ele>
        <time>2021-05-21T10:56:56Z</time>
      </trkpt>
      <trkpt lat="42.3972240" lon="-8.6299930">
        <ele>36.8</ele>
        <time>2021-05-21T10:56:57Z</time>
      </trkpt>
      <trkpt lat="42.3972330" lon="-8.6299960">
        <ele>36.8</ele>
        <time>2021-05-21T10:56:58Z</time>
      </trkpt>
      <trkpt lat="42.3972410" lon="-8.6299970">
        <ele>36.8</ele>
        <time>2021-05-21T10:56:59Z</time>
      </trkpt>
      <trkpt lat="42.3972500" lon="-8.6299980">
        <ele>36.8</ele>
        <time>2021-05-21T10:57:00Z</time>
      </trkpt>
      <trkpt lat="42.3972660" lon="-8.6300040">
        <ele>36.9</ele>
        <time>2021-05-21T10:57:01Z</time>
      </trkpt>
      <trkpt lat="42.3972760" lon="-8.6300020">
        <ele>36.9</ele>
        <time>2021-05-21T10:57:02Z</time>
      </trkpt>
      <trkpt lat="42.3972860" lon="-8.6300020">
        <ele>36.9</ele>
        <time>2021-05-21T10:57:03Z</time>
      </trkpt>
      <trkpt lat="42.3972980" lon="-8.6300040">
        <ele>37.0</ele>
        <time>2021-05-21T10:57:04Z</time>
      </trkpt>
      <trkpt lat="42.3973200" lon="-8.6300160">
        <ele>37.0</ele>
        <time>2021-05-21T10:57:05Z</time>
      </trkpt>
      <trkpt lat="42.3973260" lon="-8.6300200">
        <ele>37.1</ele>
        <time>2021-05-21T10:57:06Z</time>
      </trkpt>
      <trkpt lat="42.3973330" lon="-8.6300240">
        <ele>37.1</ele>
        <time>2021-05-21T10:57:07Z</time>
      </trkpt>
      <trkpt lat="42.3973490" lon="-8.6300310">
        <ele>37.1</ele>
        <time>2021-05-21T10:57:08Z</time>
      </trkpt>
      <trkpt lat="42.3973590" lon="-8.6300340">
        <ele>37.2</ele>
        <time>2021-05-21T10:57:09Z</time>
      </trkpt>
      <trkpt lat="42.3973690" lon="-8.6300370">
        <ele>37.2</ele>
        <time>2021-05-21T10:57:10Z</time>
      </trkpt>
      <trkpt lat="42.3973810" lon="-8.6300380">
        <ele>37.2</ele>
        <time>2021-05-21T10:57:11Z</time>
      </trkpt>
      <trkpt lat="42.3973980" lon="-8.6300340">
        <ele>37.3</ele>
        <time>2021-05-21T10:57:12Z</time>
      </trkpt>
      <trkpt lat="42.3974120" lon="-8.6300430">
        <ele>37.3</ele>
        <time>2021-05-21T10:57:13Z</time>
      </trkpt>
      <trkpt lat="42.3974300" lon="-8.6300340">
        <ele>37.4</ele>
        <time>2021-05-21T10:57:14Z</time>
      </trkpt>
      <trkpt lat="42.3974450" lon="-8.6300390">
        <ele>37.4</ele>
        <time>2021-05-21T10:57:15Z</time>
      </trkpt>
      <trkpt lat="42.3974610" lon="-8.6300340">
        <ele>37.4</ele>
        <time>2021-05-21T10:57:16Z</time>
      </trkpt>
      <trkpt lat="42.3974760" lon="-8.6300430">
        <ele>37.5</ele>
        <time>2021-05-21T10:57:17Z</time>
      </trkpt>
      <trkpt lat="42.3974890" lon="-8.6300460">
        <ele>37.5</ele>
        <time>2021-05-21T10:57:18Z</time>
      </trkpt>
      <trkpt lat="42.3975030" lon="-8.6300350">
        <ele>37.6</ele>
        <time>2021-05-21T10:57:19Z</time>
      </trkpt>
      <trkpt lat="42.3975130" lon="-8.6300320">
        <ele>37.6</ele>
        <time>2021-05-21T10:57:20Z</time>
      </trkpt>
      <trkpt lat="42.3975230" lon="-8.6300330">
        <ele>37.6</ele>
        <time>2021-05-21T10:57:21Z</time>
      </trkpt>
      <trkpt lat="42.3975340" lon="-8.6300360">
        <ele>37.7</ele>
        <time>2021-05-21T10:57:22Z</time>
      </trkpt>
      <trkpt lat="42.3975420" lon="-8.6300340">
        <ele>37.7</ele>
        <time>2021-05-21T10:57:23Z</time>
      </trkpt>
      <trkpt lat="42.3975530" lon="-8.6300310">
        <ele>37.7</ele>
        <time>2021-05-21T10:57:24Z</time>
      </trkpt>
      <trkpt lat="42.3975650" lon="-8.6300310">
        <ele>37.8</ele>
        <time>2021-05-21T10:57:25Z</time>
      </trkpt>
      <trkpt lat="42.3975780" lon="-8.6300310">
        <ele>37.8</ele>
        <time>2021-05-21T10:57:26Z</time>
      </trkpt>
      <trkpt lat="42.3975890" lon="-8.6300250">
        <ele>37.8</ele>
        <time>2021-05-21T10:57:27Z</time>
      </trkpt>
      <trkpt lat="42.3976090" lon="-8.6300280">
        <ele>37.9</ele>
        <time>2021-05-21T10:57:28Z</time>
      </trkpt>
      <trkpt lat="42.3976230" lon="-8.6300240">
        <ele>37.9</ele>
        <time>2021-05-21T10:57:29Z</time>
      </trkpt>
      <trkpt lat="42.3976350" lon="-8.6300100">
        <ele>38.0</ele>
        <time>2021-05-21T10:57:30Z</time>
      </trkpt>
      <trkpt lat="42.3976440" lon="-8.6300100">
        <ele>38.0</ele>
        <time>2021-05-21T10:57:31Z</time>
      </trkpt>
      <trkpt lat="42.3976580" lon="-8.6300240">
        <ele>38.1</ele>
        <time>2021-05-21T10:57:32Z</time>
      </trkpt>
      <trkpt lat="42.3976660" lon="-8.6300220">
        <ele>38.1</ele>
        <time>2021-05-21T10:57:33Z</time>
      </trkpt>
      <trkpt lat="42.3976810" lon="-8.6300180">
        <ele>38.1</ele>
        <time>2021-05-21T10:57:34Z</time>
      </trkpt>
      <trkpt lat="42.3976900" lon="-8.6300160">
        <ele>38.2</ele>
        <time>2021-05-21T10:57:35Z</time>
      </trkpt>
      <trkpt lat="42.3977100" lon="-8.6300140">
        <ele>38.2</ele>
        <time>2021-05-21T10:57:36Z</time>
      </trkpt>
      <trkpt lat="42.3977200" lon="-8.6300080">
        <ele>38.3</ele>
        <time>2021-05-21T10:57:37Z</time>
      </trkpt>
      <trkpt lat="42.3977310" lon="-8.6300080">
        <ele>38.3</ele>
        <time>2021-05-21T10:57:38Z</time>
      </trkpt>
      <trkpt lat="42.3977350" lon="-8.6300020">
        <ele>38.3</ele>
        <time>2021-05-21T10:57:39Z</time>
      </trkpt>
      <trkpt lat="42.3977460" lon="-8.6299960">
        <ele>38.4</ele>
        <time>2021-05-21T10:57:40Z</time>
      </trkpt>
      <trkpt lat="42.3977540" lon="-8.6299860">
        <ele>38.4</ele>
        <time>2021-05-21T10:57:41Z</time>
      </trkpt>
      <trkpt lat="42.3977690" lon="-8.6299830">
        <ele>38.4</ele>
        <time>2021-05-21T10:57:42Z</time>
      </trkpt>
      <trkpt lat="42.3977770" lon="-8.6299870">
        <ele>38.5</ele>
        <time>2021-05-21T10:57:43Z</time>
      </trkpt>
      <trkpt lat="42.3977920" lon="-8.6299890">
        <ele>38.5</ele>
        <time>2021-05-21T10:57:44Z</time>
      </trkpt>
      <trkpt lat="42.3977980" lon="-8.6299840">
        <ele>38.5</ele>
        <time>2021-05-21T10:57:45Z</time>
      </trkpt>
      <trkpt lat="42.3978070" lon="-8.6299770">
        <ele>38.6</ele>
        <time>2021-05-21T10:57:46Z</time>
      </trkpt>
      <trkpt lat="42.3978280" lon="-8.6299720">
        <ele>38.6</ele>
        <time>2021-05-21T10:57:47Z</time>
      </trkpt>
      <trkpt lat="42.3978370" lon="-8.6299720">
        <ele>38.7</ele>
        <time>2021-05-21T10:57:48Z</time>
      </trkpt>
      <trkpt lat="42.3978470" lon="-8.6299710">
        <ele>38.7</ele>
        <time>2021-05-21T10:57:49Z</time>
      </trkpt>
      <trkpt lat="42.3978560" lon="-8.6299670">
        <ele>38.7</ele>
        <time>2021-05-21T10:57:50Z</time>
      </trkpt>
      <trkpt lat="42.3978670" lon="-8.6299610">
        <ele>38.8</ele>
        <time>2021-05-21T10:57:51Z</time>
      </trkpt>
      <trkpt lat="42.3978770" lon="-8.6299580">
        <ele>38.8</ele>
        <time>2021-05-21T10:57:52Z</time>
      </trkpt>
      <trkpt lat="42.3978940" lon="-8.6299530">
        <ele>38.9</ele>
        <time>2021-05-21T10:57:53Z</time>
      </trkpt>
      <trkpt lat="42.3978990" lon="-8.6299510">
        <ele>38.9</ele>
        <time>2021-05-21T10:57:54Z</time>
      </trkpt>
      <trkpt lat="42.3979110" lon="-8.6299460">
        <ele>38.9</ele>
        <time>2021-05-21T10:57:55Z</time>
      </trkpt>
      <trkpt lat="42.3979260" lon="-8.6299470">
        <ele>39.0</ele>
        <time>2021-05-21T10:57:56Z</time>
      </trkpt>
      <trkpt lat="42.3979280" lon="-8.6299520">
        <ele>39.0</ele>
        <time>2021-05-21T10:57:57Z</time>
      </trkpt>
      <trkpt lat="42.3979390" lon="-8.6299450">
        <ele>39.0</ele>
        <time>2021-05-21T10:57:58Z</time>
      </trkpt>
      <trkpt lat="42.3979550" lon="-8.6299420">
        <ele>39.1</ele>
        <time>2021-05-21T10:57:59Z</time>
      </trkpt>
      <trkpt lat="42.3979710" lon="-8.6299310">
        <ele>39.1</ele>
        <time>2021-05-21T10:58:00Z</time>
      </trkpt>
      <trkpt lat="42.3979730" lon="-8.6299260">
        <ele>39.1</ele>
        <time>2021-05-21T10:58:01Z</time>
      </trkpt>
      <trkpt lat="42.3979840" lon="-8.6299200">
        <ele>39.2</ele>
        <time>2021-05-21T10:58:02Z</time>
      </trkpt>
      <trkpt lat="42.3979970" lon="-8.6299140">
        <ele>39.2</ele>
        <time>2021-05-21T10:58:03Z</time>
      </trkpt>
      <trkpt lat="42.3980160" lon="-8.6299070">
        <ele>39.3</ele>
        <time>2021-05-21T10:58:04Z</time>
      </trkpt>
      <trkpt lat="42.3980260" lon="-8.6299010">
        <ele>39.3</ele>
        <time>2021-05-21T10:58:05Z</time>
      </trkpt>
      <trkpt lat="42.3980360" lon="-8.6298960">
        <ele>39.4</ele>
        <time>2021-05-21T10:58:06Z</time>
      </trkpt>
      <trkpt lat="42.3980530" lon="-8.6298890">
        <ele>39.4</ele>
        <time>2021-05-21T10:58:07Z</time>
      </trkpt>
      <trkpt lat="42.3980640" lon="-8.6298860">
        <ele>39.5</ele>
        <time>2021-05-21T10:58:08Z</time>
      </trkpt>
      <trkpt lat="42.3980740" lon="-8.6298820">
        <ele>39.5</ele>
        <time>2021-05-21T10:58:09Z</time>
      </trkpt>
      <trkpt lat="42.3980820" lon="-8.6298780">
        <ele>39.5</ele>
        <time>2021-05-21T10:58:10Z</time>
      </trkpt>
      <trkpt lat="42.3980940" lon="-8.6298740">
        <ele>39.6</ele>
        <time>2021-05-21T10:58:11Z</time>
      </trkpt>
      <trkpt lat="42.3981070" lon="-8.6298670">
        <ele>39.6</ele>
        <time>2021-05-21T10:58:12Z</time>
      </trkpt>
      <trkpt lat="42.3981340" lon="-8.6298620">
        <ele>39.7</ele>
        <time>2021-05-21T10:58:13Z</time>
      </trkpt>
      <trkpt lat="42.3981410" lon="-8.6298580">
        <ele>39.7</ele>
        <time>2021-05-21T10:58:14Z</time>
      </trkpt>
      <trkpt lat="42.3981490" lon="-8.6298550">
        <ele>39.8</ele>
        <time>2021-05-21T10:58:15Z</time>
      </trkpt>
      <trkpt lat="42.3981570" lon="-8.6298510">
        <ele>39.8</ele>
        <time>2021-05-21T10:58:16Z</time>
      </trkpt>
      <trkpt lat="42.3981680" lon="-8.6298550">
        <ele>39.8</ele>
        <time>2021-05-21T10:58:17Z</time>
      </trkpt>
      <trkpt lat="42.3981810" lon="-8.6298510">
        <ele>39.9</ele>
        <time>2021-05-21T10:58:18Z</time>
      </trkpt>
      <trkpt lat="42.3982000" lon="-8.6298280">
        <ele>40.0</ele>
        <time>2021-05-21T10:58:19Z</time>
      </trkpt>
      <trkpt lat="42.3982040" lon="-8.6298230">
        <ele>40.0</ele>
        <time>2021-05-21T10:58:20Z</time>
      </trkpt>
      <trkpt lat="42.3982090" lon="-8.6298170">
        <ele>40.0</ele>
        <time>2021-05-21T10:58:21Z</time>
      </trkpt>
      <trkpt lat="42.3982240" lon="-8.6298120">
        <ele>40.1</ele>
        <time>2021-05-21T10:58:22Z</time>
      </trkpt>
      <trkpt lat="42.3982270" lon="-8.6298050">
        <ele>40.1</ele>
        <time>2021-05-21T10:58:23Z</time>
      </trkpt>
      <trkpt lat="42.3982410" lon="-8.6297970">
        <ele>40.1</ele>
        <time>2021-05-21T10:58:24Z</time>
      </trkpt>
      <trkpt lat="42.3982480" lon="-8.6297880">
        <ele>40.2</ele>
        <time>2021-05-21T10:58:25Z</time>
      </trkpt>
      <trkpt lat="42.3982600" lon="-8.6297860">
        <ele>40.2</ele>
        <time>2021-05-21T10:58:26Z</time>
      </trkpt>
      <trkpt lat="42.3982770" lon="-8.6297840">
        <ele>40.3</ele>
        <time>2021-05-21T10:58:27Z</time>
      </trkpt>
      <trkpt lat="42.3982920" lon="-8.6297890">
        <ele>40.3</ele>
        <time>2021-05-21T10:58:28Z</time>
      </trkpt>
      <trkpt lat="42.3983030" lon="-8.6297750">
        <ele>40.3</ele>
        <time>2021-05-21T10:58:29Z</time>
      </trkpt>
      <trkpt lat="42.3983210" lon="-8.6297700">
        <ele>40.4</ele>
        <time>2021-05-21T10:58:30Z</time>
      </trkpt>
      <trkpt lat="42.3983320" lon="-8.6297710">
        <ele>40.4</ele>
        <time>2021-05-21T10:58:31Z</time>
      </trkpt>
      <trkpt lat="42.3983430" lon="-8.6297730">
        <ele>40.5</ele>
        <time>2021-05-21T10:58:32Z</time>
      </trkpt>
      <trkpt lat="42.3983530" lon="-8.6297770">
        <ele>40.5</ele>
        <time>2021-05-21T10:58:33Z</time>
      </trkpt>
      <trkpt lat="42.3983610" lon="-8.6297780">
        <ele>40.5</ele>
        <time>2021-05-21T10:58:34Z</time>
      </trkpt>
      <trkpt lat="42.3983710" lon="-8.6297820">
        <ele>40.5</ele>
        <time>2021-05-21T10:58:35Z</time>
      </trkpt>
      <trkpt lat="42.3983900" lon="-8.6297800">
        <ele>40.6</ele>
        <time>2021-05-21T10:58:36Z</time>
      </trkpt>
      <trkpt lat="42.3984030" lon="-8.6297760">
        <ele>40.6</ele>
        <time>2021-05-21T10:58:37Z</time>
      </trkpt>
      <trkpt lat="42.3984240" lon="-8.6297870">
        <ele>40.7</ele>
        <time>2021-05-21T10:58:38Z</time>
      </trkpt>
      <trkpt lat="42.3984360" lon="-8.6297860">
        <ele>40.7</ele>
        <time>2021-05-21T10:58:39Z</time>
      </trkpt>
      <trkpt lat="42.3984470" lon="-8.6297860">
        <ele>40.8</ele>
        <time>2021-05-21T10:58:40Z</time>
      </trkpt>
      <trkpt lat="42.3984640" lon="-8.6297870">
        <ele>40.8</ele>
        <time>2021-05-21T10:58:41Z</time>
      </trkpt>
      <trkpt lat="42.3984720" lon="-8.6297880">
        <ele>40.8</ele>
        <time>2021-05-21T10:58:42Z</time>
      </trkpt>
      <trkpt lat="42.3984790" lon="-8.6297900">
        <ele>40.9</ele>
        <time>2021-05-21T10:58:43Z</time>
      </trkpt>
      <trkpt lat="42.3984870" lon="-8.6297920">
        <ele>40.9</ele>
        <time>2021-05-21T10:58:44Z</time>
      </trkpt>
      <trkpt lat="42.3984950" lon="-8.6297950">
        <ele>40.9</ele>
        <time>2021-05-21T10:58:45Z</time>
      </trkpt>
      <trkpt lat="42.3985120" lon="-8.6298020">
        <ele>40.9</ele>
        <time>2021-05-21T10:58:46Z</time>
      </trkpt>
      <trkpt lat="42.3985210" lon="-8.6298050">
        <ele>41.0</ele>
        <time>2021-05-21T10:58:47Z</time>
      </trkpt>
      <trkpt lat="42.3985260" lon="-8.6298100">
        <ele>41.0</ele>
        <time>2021-05-21T10:58:48Z</time>
      </trkpt>
      <trkpt lat="42.3985410" lon="-8.6298100">
        <ele>41.0</ele>
        <time>2021-05-21T10:58:49Z</time>
      </trkpt>
      <trkpt lat="42.3985540" lon="-8.6298100">
        <ele>41.1</ele>
        <time>2021-05-21T10:58:50Z</time>
      </trkpt>
      <trkpt lat="42.3985730" lon="-8.6298110">
        <ele>41.1</ele>
        <time>2021-05-21T10:58:51Z</time>
      </trkpt>
      <trkpt lat="42.3985860" lon="-8.6298220">
        <ele>41.1</ele>
        <time>2021-05-21T10:58:52Z</time>
      </trkpt>
      <trkpt lat="42.3986120" lon="-8.6298160">
        <ele>41.2</ele>
        <time>2021-05-21T10:58:53Z</time>
      </trkpt>
      <trkpt lat="42.3986190" lon="-8.6298200">
        <ele>41.2</ele>
        <time>2021-05-21T10:58:54Z</time>
      </trkpt>
      <trkpt lat="42.3986270" lon="-8.6298230">
        <ele>41.2</ele>
        <time>2021-05-21T10:58:55Z</time>
      </trkpt>
      <trkpt lat="42.3986490" lon="-8.6298210">
        <ele>41.3</ele>
        <time>2021-05-21T10:58:56Z</time>
      </trkpt>
      <trkpt lat="42.3986560" lon="-8.6298200">
        <ele>41.3</ele>
        <time>2021-05-21T10:58:57Z</time>
      </trkpt>
      <trkpt lat="42.3986640" lon="-8.6298190">
        <ele>41.3</ele>
        <time>2021-05-21T10:58:58Z</time>
      </trkpt>
      <trkpt lat="42.3986740" lon="-8.6298240">
        <ele>41.4</ele>
        <time>2021-05-21T10:58:59Z</time>
      </trkpt>
      <trkpt lat="42.3986920" lon="-8.6298220">
        <ele>41.4</ele>
        <time>2021-05-21T10:59:00Z</time>
      </trkpt>
      <trkpt lat="42.3987020" lon="-8.6298230">
        <ele>41.4</ele>
        <time>2021-05-21T10:59:01Z</time>
      </trkpt>
      <trkpt lat="42.3987140" lon="-8.6298290">
        <ele>41.4</ele>
        <time>2021-05-21T10:59:02Z</time>
      </trkpt>
      <trkpt lat="42.3987240" lon="-8.6298290">
        <ele>41.5</ele>
        <time>2021-05-21T10:59:03Z</time>
      </trkpt>
      <trkpt lat="42.3987410" lon="-8.6298170">
        <ele>41.5</ele>
        <time>2021-05-21T10:59:04Z</time>
      </trkpt>
      <trkpt lat="42.3987530" lon="-8.6298120">
        <ele>41.5</ele>
        <time>2021-05-21T10:59:05Z</time>
      </trkpt>
      <trkpt lat="42.3987660" lon="-8.6298120">
        <ele>41.6</ele>
        <time>2021-05-21T10:59:06Z</time>
      </trkpt>
      <trkpt lat="42.3987740" lon="-8.6298190">
        <ele>41.6</ele>
        <time>2021-05-21T10:59:07Z</time>
      </trkpt>
      <trkpt lat="42.3987770" lon="-8.6298300">
        <ele>41.6</ele>
        <time>2021-05-21T10:59:08Z</time>
      </trkpt>
      <trkpt lat="42.3987890" lon="-8.6298320">
        <ele>41.6</ele>
        <time>2021-05-21T10:59:09Z</time>
      </trkpt>
      <trkpt lat="42.3988050" lon="-8.6298430">
        <ele>41.6</ele>
        <time>2021-05-21T10:59:10Z</time>
      </trkpt>
      <trkpt lat="42.3988210" lon="-8.6298450">
        <ele>41.7</ele>
        <time>2021-05-21T10:59:11Z</time>
      </trkpt>
      <trkpt lat="42.3988370" lon="-8.6298480">
        <ele>41.7</ele>
        <time>2021-05-21T10:59:12Z</time>
      </trkpt>
      <trkpt lat="42.3988480" lon="-8.6298510">
        <ele>41.7</ele>
        <time>2021-05-21T10:59:13Z</time>
      </trkpt>
      <trkpt lat="42.3988560" lon="-8.6298590">
        <ele>41.7</ele>
        <time>2021-05-21T10:59:14Z</time>
      </trkpt>
      <trkpt lat="42.3988700" lon="-8.6298660">
        <ele>41.8</ele>
        <time>2021-05-21T10:59:15Z</time>
      </trkpt>
      <trkpt lat="42.3988900" lon="-8.6298700">
        <ele>41.8</ele>
        <time>2021-05-21T10:59:16Z</time>
      </trkpt>
      <trkpt lat="42.3989000" lon="-8.6298750">
        <ele>41.8</ele>
        <time>2021-05-21T10:59:17Z</time>
      </trkpt>
      <trkpt lat="42.3989100" lon="-8.6298810">
        <ele>41.8</ele>
        <time>2021-05-21T10:59:18Z</time>
      </trkpt>
      <trkpt lat="42.3989250" lon="-8.6298820">
        <ele>41.8</ele>
        <time>2021-05-21T10:59:19Z</time>
      </trkpt>
      <trkpt lat="42.3989410" lon="-8.6298930">
        <ele>41.9</ele>
        <time>2021-05-21T10:59:20Z</time>
      </trkpt>
      <trkpt lat="42.3989690" lon="-8.6298980">
        <ele>41.9</ele>
        <time>2021-05-21T10:59:21Z</time>
      </trkpt>
      <trkpt lat="42.3989780" lon="-8.6298960">
        <ele>41.9</ele>
        <time>2021-05-21T10:59:22Z</time>
      </trkpt>
      <trkpt lat="42.3989940" lon="-8.6298990">
        <ele>41.9</ele>
        <time>2021-05-21T10:59:23Z</time>
      </trkpt>
      <trkpt lat="42.3990090" lon="-8.6299070">
        <ele>42.0</ele>
        <time>2021-05-21T10:59:24Z</time>
      </trkpt>
      <trkpt lat="42.3990220" lon="-8.6299120">
        <ele>42.0</ele>
        <time>2021-05-21T10:59:25Z</time>
      </trkpt>
      <trkpt lat="42.3990370" lon="-8.6299190">
        <ele>42.0</ele>
        <time>2021-05-21T10:59:26Z</time>
      </trkpt>
      <trkpt lat="42.3990490" lon="-8.6299280">
        <ele>42.0</ele>
        <time>2021-05-21T10:59:27Z</time>
      </trkpt>
      <trkpt lat="42.3990650" lon="-8.6299340">
        <ele>42.0</ele>
        <time>2021-05-21T10:59:28Z</time>
      </trkpt>
      <trkpt lat="42.3990850" lon="-8.6299410">
        <ele>42.1</ele>
        <time>2021-05-21T10:59:29Z</time>
      </trkpt>
      <trkpt lat="42.3990940" lon="-8.6299430">
        <ele>42.1</ele>
        <time>2021-05-21T10:59:30Z</time>
      </trkpt>
      <trkpt lat="42.3991020" lon="-8.6299460">
        <ele>42.1</ele>
        <time>2021-05-21T10:59:31Z</time>
      </trkpt>
      <trkpt lat="42.3991170" lon="-8.6299500">
        <ele>42.1</ele>
        <time>2021-05-21T10:59:32Z</time>
      </trkpt>
      <trkpt lat="42.3991310" lon="-8.6299600">
        <ele>42.1</ele>
        <time>2021-05-21T10:59:33Z</time>
      </trkpt>
      <trkpt lat="42.3991430" lon="-8.6299610">
        <ele>42.2</ele>
        <time>2021-05-21T10:59:34Z</time>
      </trkpt>
      <trkpt lat="42.3991540" lon="-8.6299680">
        <ele>42.2</ele>
        <time>2021-05-21T10:59:35Z</time>
      </trkpt>
      <trkpt lat="42.3991670" lon="-8.6299690">
        <ele>42.2</ele>
        <time>2021-05-21T10:59:36Z</time>
      </trkpt>
      <trkpt lat="42.3991800" lon="-8.6299810">
        <ele>42.2</ele>
        <time>2021-05-21T10:59:37Z</time>
      </trkpt>
      <trkpt lat="42.3991890" lon="-8.6299910">
        <ele>42.2</ele>
        <time>2021-05-21T10:59:38Z</time>
      </trkpt>
      <trkpt lat="42.3992030" lon="-8.6299960">
        <ele>42.2</ele>
        <time>2021-05-21T10:59:39Z</time>
      </trkpt>
      <trkpt lat="42.3992140" lon="-8.6300050">
        <ele>42.3</ele>
        <time>2021-05-21T10:59:40Z</time>
      </trkpt>
      <trkpt lat="42.3992320" lon="-8.6300180">
        <ele>42.3</ele>
        <time>2021-05-21T10:59:41Z</time>
      </trkpt>
      <trkpt lat="42.3992400" lon="-8.6300270">
        <ele>42.3</ele>
        <time>2021-05-21T10:59:42Z</time>
      </trkpt>
      <trkpt lat="42.3992470" lon="-8.6300350">
        <ele>42.3</ele>
        <time>2021-05-21T10:59:43Z</time>
      </trkpt>
      <trkpt lat="42.3992660" lon="-8.6300480">
        <ele>42.3</ele>
        <time>2021-05-21T10:59:44Z</time>
      </trkpt>
      <trkpt lat="42.3992730" lon="-8.6300560">
        <ele>42.3</ele>
        <time>2021-05-21T10:59:45Z</time>
      </trkpt>
      <trkpt lat="42.3992800" lon="-8.6300630">
        <ele>42.4</ele>
        <time>2021-05-21T10:59:46Z</time>
      </trkpt>
      <trkpt lat="42.3992980" lon="-8.6300820">
        <ele>42.4</ele>
        <time>2021-05-21T10:59:47Z</time>
      </trkpt>
      <trkpt lat="42.3993070" lon="-8.6300850">
        <ele>42.4</ele>
        <time>2021-05-21T10:59:48Z</time>
      </trkpt>
      <trkpt lat="42.3993150" lon="-8.6300890">
        <ele>42.4</ele>
        <time>2021-05-21T10:59:49Z</time>
      </trkpt>
      <trkpt lat="42.3993340" lon="-8.6301010">
        <ele>42.4</ele>
        <time>2021-05-21T10:59:50Z</time>
      </trkpt>
      <trkpt lat="42.3993420" lon="-8.6301050">
        <ele>42.4</ele>
        <time>2021-05-21T10:59:51Z</time>
      </trkpt>
      <trkpt lat="42.3993500" lon="-8.6301090">
        <ele>42.4</ele>
        <time>2021-05-21T10:59:52Z</time>
      </trkpt>
      <trkpt lat="42.3993620" lon="-8.6301110">
        <ele>42.5</ele>
        <time>2021-05-21T10:59:53Z</time>
      </trkpt>
      <trkpt lat="42.3993710" lon="-8.6301210">
        <ele>42.5</ele>
        <time>2021-05-21T10:59:54Z</time>
      </trkpt>
      <trkpt lat="42.3993780" lon="-8.6301330">
        <ele>42.5</ele>
        <time>2021-05-21T10:59:55Z</time>
      </trkpt>
      <trkpt lat="42.3993990" lon="-8.6301440">
        <ele>42.5</ele>
        <time>2021-05-21T10:59:56Z</time>
      </trkpt>
      <trkpt lat="42.3994090" lon="-8.6301470">
        <ele>42.5</ele>
        <time>2021-05-21T10:59:57Z</time>
      </trkpt>
      <trkpt lat="42.3994180" lon="-8.6301490">
        <ele>42.5</ele>
        <time>2021-05-21T10:59:58Z</time>
      </trkpt>
      <trkpt lat="42.3994330" lon="-8.6301510">
        <ele>42.6</ele>
        <time>2021-05-21T10:59:59Z</time>
      </trkpt>
      <trkpt lat="42.3994450" lon="-8.6301570">
        <ele>42.6</ele>
        <time>2021-05-21T11:00:00Z</time>
      </trkpt>
      <trkpt lat="42.3994630" lon="-8.6301660">
        <ele>42.6</ele>
        <time>2021-05-21T11:00:01Z</time>
      </trkpt>
      <trkpt lat="42.3994710" lon="-8.6301720">
        <ele>42.6</ele>
        <time>2021-05-21T11:00:02Z</time>
      </trkpt>
      <trkpt lat="42.3994780" lon="-8.6301780">
        <ele>42.6</ele>
        <time>2021-05-21T11:00:03Z</time>
      </trkpt>
      <trkpt lat="42.3994970" lon="-8.6301910">
        <ele>42.7</ele>
        <time>2021-05-21T11:00:04Z</time>
      </trkpt>
      <trkpt lat="42.3995040" lon="-8.6301960">
        <ele>42.7</ele>
        <time>2021-05-21T11:00:05Z</time>
      </trkpt>
      <trkpt lat="42.3995110" lon="-8.6302020">
        <ele>42.7</ele>
        <time>2021-05-21T11:00:06Z</time>
      </trkpt>
      <trkpt lat="42.3995210" lon="-8.6301990">
        <ele>42.7</ele>
        <time>2021-05-21T11:00:07Z</time>
      </trkpt>
      <trkpt lat="42.3995280" lon="-8.6302080">
        <ele>42.7</ele>
        <time>2021-05-21T11:00:08Z</time>
      </trkpt>
      <trkpt lat="42.3995290" lon="-8.6302150">
        <ele>42.7</ele>
        <time>2021-05-21T11:00:09Z</time>
      </trkpt>
      <trkpt lat="42.3995410" lon="-8.6302280">
        <ele>42.7</ele>
        <time>2021-05-21T11:00:10Z</time>
      </trkpt>
      <trkpt lat="42.3995550" lon="-8.6302330">
        <ele>42.8</ele>
        <time>2021-05-21T11:00:11Z</time>
      </trkpt>
      <trkpt lat="42.3995620" lon="-8.6302380">
        <ele>42.8</ele>
        <time>2021-05-21T11:00:12Z</time>
      </trkpt>
      <trkpt lat="42.3995680" lon="-8.6302430">
        <ele>42.8</ele>
        <time>2021-05-21T11:00:13Z</time>
      </trkpt>
      <trkpt lat="42.3995750" lon="-8.6302480">
        <ele>42.8</ele>
        <time>2021-05-21T11:00:14Z</time>
      </trkpt>
      <trkpt lat="42.3995870" lon="-8.6302530">
        <ele>42.8</ele>
        <time>2021-05-21T11:00:15Z</time>
      </trkpt>
      <trkpt lat="42.3995940" lon="-8.6302600">
        <ele>42.8</ele>
        <time>2021-05-21T11:00:16Z</time>
      </trkpt>
      <trkpt lat="42.3996000" lon="-8.6302660">
        <ele>42.8</ele>
        <time>2021-05-21T11:00:17Z</time>
      </trkpt>
      <trkpt lat="42.3996070" lon="-8.6302730">
        <ele>42.9</ele>
        <time>2021-05-21T11:00:18Z</time>
      </trkpt>
      <trkpt lat="42.3996200" lon="-8.6302800">
        <ele>42.9</ele>
        <time>2021-05-21T11:00:19Z</time>
      </trkpt>
      <trkpt lat="42.3996250" lon="-8.6302820">
        <ele>42.9</ele>
        <time>2021-05-21T11:00:20Z</time>
      </trkpt>
      <trkpt lat="42.3996390" lon="-8.6302820">
        <ele>42.9</ele>
        <time>2021-05-21T11:00:21Z</time>
      </trkpt>
      <trkpt lat="42.3996450" lon="-8.6302890">
        <ele>42.9</ele>
        <time>2021-05-21T11:00:22Z</time>
      </trkpt>
      <trkpt lat="42.3996590" lon="-8.6302910">
        <ele>42.9</ele>
        <time>2021-05-21T11:00:23Z</time>
      </trkpt>
      <trkpt lat="42.3996710" lon="-8.6302840">
        <ele>43.0</ele>
        <time>2021-05-21T11:00:24Z</time>
      </trkpt>
      <trkpt lat="42.3996870" lon="-8.6302890">
        <ele>43.0</ele>
        <time>2021-05-21T11:00:25Z</time>
      </trkpt>
      <trkpt lat="42.3997040" lon="-8.6302980">
        <ele>43.0</ele>
        <time>2021-05-21T11:00:26Z</time>
      </trkpt>
      <trkpt lat="42.3997120" lon="-8.6303000">
        <ele>43.0</ele>
        <time>2021-05-21T11:00:27Z</time>
      </trkpt>
      <trkpt lat="42.3997200" lon="-8.6303030">
        <ele>43.0</ele>
        <time>2021-05-21T11:00:28Z</time>
      </trkpt>
      <trkpt lat="42.3997280" lon="-8.6303050">
        <ele>43.0</ele>
        <time>2021-05-21T11:00:29Z</time>
      </trkpt>
      <trkpt lat="42.3997440" lon="-8.6303250">
        <ele>43.1</ele>
        <time>2021-05-21T11:00:30Z</time>
      </trkpt>
      <trkpt lat="42.3997500" lon="-8.6303330">
        <ele>43.1</ele>
        <time>2021-05-21T11:00:31Z</time>
      </trkpt>
      <trkpt lat="42.3997570" lon="-8.6303410">
        <ele>43.1</ele>
        <time>2021-05-21T11:00:32Z</time>
      </trkpt>
      <trkpt lat="42.3997760" lon="-8.6303510">
        <ele>43.1</ele>
        <time>2021-05-21T11:00:33Z</time>
      </trkpt>
      <trkpt lat="42.3997850" lon="-8.6303560">
        <ele>43.1</ele>
        <time>2021-05-21T11:00:34Z</time>
      </trkpt>
      <trkpt lat="42.3997940" lon="-8.6303600">
        <ele>43.1</ele>
        <time>2021-05-21T11:00:35Z</time>
      </trkpt>
      <trkpt lat="42.3998080" lon="-8.6303680">
        <ele>43.2</ele>
        <time>2021-05-21T11:00:36Z</time>
      </trkpt>
      <trkpt lat="42.3998220" lon="-8.6303780">
        <ele>43.2</ele>
        <time>2021-05-21T11:00:37Z</time>
      </trkpt>
      <trkpt lat="42.3998450" lon="-8.6303720">
        <ele>43.2</ele>
        <time>2021-05-21T11:00:38Z</time>
      </trkpt>
      <trkpt lat="42.3998540" lon="-8.6303750">
        <ele>43.2</ele>
        <time>2021-05-21T11:00:39Z</time>
      </trkpt>
      <trkpt lat="42.3998620" lon="-8.6303770">
        <ele>43.2</ele>
        <time>2021-05-21T11:00:40Z</time>
      </trkpt>
      <trkpt lat="42.3998740" lon="-8.6303880">
        <ele>43.3</ele>
        <time>2021-05-21T11:00:41Z</time>
      </trkpt>
      <trkpt lat="42.3998850" lon="-8.6304000">
        <ele>43.3</ele>
        <time>2021-05-21T11:00:42Z</time>
      </trkpt>
      <trkpt lat="42.3999080" lon="-8.6304020">
        <ele>43.3</ele>
        <time>2021-05-21T11:00:43Z</time>
      </trkpt>
      <trkpt lat="42.3999160" lon="-8.6304020">
        <ele>43.3</ele>
        <time>2021-05-21T11:00:44Z</time>
      </trkpt>
      <trkpt lat="42.3999250" lon="-8.6304030">
        <ele>43.3</ele>
        <time>2021-05-21T11:00:45Z</time>
      </trkpt>
      <trkpt lat="42.3999410" lon="-8.6304110">
        <ele>43.3</ele>
        <time>2021-05-21T11:00:46Z</time>
      </trkpt>
      <trkpt lat="42.3999550" lon="-8.6304170">
        <ele>43.4</ele>
        <time>2021-05-21T11:00:47Z</time>
      </trkpt>
      <trkpt lat="42.3999670" lon="-8.6304300">
        <ele>43.4</ele>
        <time>2021-05-21T11:00:48Z</time>
      </trkpt>
      <trkpt lat="42.3999800" lon="-8.6304340">
        <ele>43.4</ele>
        <time>2021-05-21T11:00:49Z</time>
      </trkpt>
      <trkpt lat="42.3999880" lon="-8.6304440">
        <ele>43.4</ele>
        <time>2021-05-21T11:00:50Z</time>
      </trkpt>
      <trkpt lat="42.4000000" lon="-8.6304370">
        <ele>43.4</ele>
        <time>2021-05-21T11:00:51Z</time>
      </trkpt>
      <trkpt lat="42.4000110" lon="-8.6304380">
        <ele>43.5</ele>
        <time>2021-05-21T11:00:52Z</time>
      </trkpt>
      <trkpt lat="42.4000170" lon="-8.6304350">
        <ele>43.5</ele>
        <time>2021-05-21T11:00:53Z</time>
      </trkpt>
      <trkpt lat="42.4000280" lon="-8.6304500">
        <ele>43.5</ele>
        <time>2021-05-21T11:00:54Z</time>
      </trkpt>
      <trkpt lat="42.4000390" lon="-8.6304510">
        <ele>43.5</ele>
        <time>2021-05-21T11:00:55Z</time>
      </trkpt>
      <trkpt lat="42.4000550" lon="-8.6304460">
        <ele>43.5</ele>
        <time>2021-05-21T11:00:56Z</time>
      </trkpt>
      <trkpt lat="42.4000660" lon="-8.6304440">
        <ele>43.5</ele>
        <time>2021-05-21T11:00:57Z</time>
      </trkpt>
      <trkpt lat="42.4000770" lon="-8.6304430">
        <ele>43.5</ele>
        <time>2021-05-21T11:00:58Z</time>
      </trkpt>
      <trkpt lat="42.4000820" lon="-8.6304600">
        <ele>43.6</ele>
        <time>2021-05-21T11:00:59Z</time>
      </trkpt>
      <trkpt lat="42.4000980" lon="-8.6304680">
        <ele>43.6</ele>
        <time>2021-05-21T11:01:00Z</time>
      </trkpt>
      <trkpt lat="42.4001140" lon="-8.6304660">
        <ele>43.6</ele>
        <time>2021-05-21T11:01:01Z</time>
      </trkpt>
      <trkpt lat="42.4001160" lon="-8.6304720">
        <ele>43.6</ele>
        <time>2021-05-21T11:01:02Z</time>
      </trkpt>
      <trkpt lat="42.4001180" lon="-8.6304730">
        <ele>43.6</ele>
        <time>2021-05-21T11:01:03Z</time>
      </trkpt>
      <trkpt lat="42.4001240" lon="-8.6304820">
        <ele>43.6</ele>
        <time>2021-05-21T11:01:04Z</time>
      </trkpt>
      <trkpt lat="42.4001330" lon="-8.6304890">
        <ele>43.7</ele>
        <time>2021-05-21T11:01:05Z</time>
      </trkpt>
      <trkpt lat="42.4001450" lon="-8.6304980">
        <ele>43.7</ele>
        <time>2021-05-21T11:01:06Z</time>
      </trkpt>
      <trkpt lat="42.4001500" lon="-8.6305120">
        <ele>43.7</ele>
        <time>2021-05-21T11:01:07Z</time>
      </trkpt>
      <trkpt lat="42.4001700" lon="-8.6305170">
        <ele>43.7</ele>
        <time>2021-05-21T11:01:08Z</time>
      </trkpt>
      <trkpt lat="42.4001810" lon="-8.6305170">
        <ele>43.7</ele>
        <time>2021-05-21T11:01:09Z</time>
      </trkpt>
      <trkpt lat="42.4001910" lon="-8.6305170">
        <ele>43.8</ele>
        <time>2021-05-21T11:01:10Z</time>
      </trkpt>
      <trkpt lat="42.4001990" lon="-8.6305260">
        <ele>43.8</ele>
        <time>2021-05-21T11:01:11Z</time>
      </trkpt>
      <trkpt lat="42.4002110" lon="-8.6305390">
        <ele>43.8</ele>
        <time>2021-05-21T11:01:12Z</time>
      </trkpt>
      <trkpt lat="42.4002200" lon="-8.6305450">
        <ele>43.8</ele>
        <time>2021-05-21T11:01:13Z</time>
      </trkpt>
      <trkpt lat="42.4002400" lon="-8.6305580">
        <ele>43.8</ele>
        <time>2021-05-21T11:01:14Z</time>
      </trkpt>
      <trkpt lat="42.4002480" lon="-8.6305650">
        <ele>43.8</ele>
        <time>2021-05-21T11:01:15Z</time>
      </trkpt>
      <trkpt lat="42.4002550" lon="-8.6305710">
        <ele>43.8</ele>
        <time>2021-05-21T11:01:16Z</time>
      </trkpt>
      <trkpt lat="42.4002670" lon="-8.6305790">
        <ele>43.8</ele>
        <time>2021-05-21T11:01:17Z</time>
      </trkpt>
      <trkpt lat="42.4002790" lon="-8.6305930">
        <ele>43.9</ele>
        <time>2021-05-21T11:01:18Z</time>
      </trkpt>
      <trkpt lat="42.4002980" lon="-8.6306010">
        <ele>43.9</ele>
        <time>2021-05-21T11:01:19Z</time>
      </trkpt>
      <trkpt lat="42.4003100" lon="-8.6306120">
        <ele>43.9</ele>
        <time>2021-05-21T11:01:20Z</time>
      </trkpt>
      <trkpt lat="42.4003210" lon="-8.6306220">
        <ele>43.9</ele>
        <time>2021-05-21T11:01:21Z</time>
      </trkpt>
      <trkpt lat="42.4003330" lon="-8.6306330">
        <ele>43.9</ele>
        <time>2021-05-21T11:01:22Z</time>
      </trkpt>
      <trkpt lat="42.4003470" lon="-8.6306440">
        <ele>43.9</ele>
        <time>2021-05-21T11:01:23Z</time>
      </trkpt>
      <trkpt lat="42.4003600" lon="-8.6306530">
        <ele>44.0</ele>
        <time>2021-05-21T11:01:24Z</time>
      </trkpt>
      <trkpt lat="42.4003750" lon="-8.6306590">
        <ele>44.0</ele>
        <time>2021-05-21T11:01:25Z</time>
      </trkpt>
      <trkpt lat="42.4003910" lon="-8.6306710">
        <ele>44.0</ele>
        <time>2021-05-21T11:01:26Z</time>
      </trkpt>
      <trkpt lat="42.4004000" lon="-8.6306760">
        <ele>44.0</ele>
        <time>2021-05-21T11:01:27Z</time>
      </trkpt>
      <trkpt lat="42.4004100" lon="-8.6306820">
        <ele>44.0</ele>
        <time>2021-05-21T11:01:28Z</time>
      </trkpt>
      <trkpt lat="42.4004160" lon="-8.6306860">
        <ele>44.0</ele>
        <time>2021-05-21T11:01:29Z</time>
      </trkpt>
      <trkpt lat="42.4004290" lon="-8.6306910">
        <ele>44.0</ele>
        <time>2021-05-21T11:01:30Z</time>
      </trkpt>
      <trkpt lat="42.4004380" lon="-8.6307010">
        <ele>44.0</ele>
        <time>2021-05-21T11:01:31Z</time>
      </trkpt>
      <trkpt lat="42.4004530" lon="-8.6307080">
        <ele>44.1</ele>
        <time>2021-05-21T11:01:32Z</time>
      </trkpt>
      <trkpt lat="42.4004630" lon="-8.6307210">
        <ele>44.1</ele>
        <time>2021-05-21T11:01:33Z</time>
      </trkpt>
      <trkpt lat="42.4004680" lon="-8.6307310">
        <ele>44.1</ele>
        <time>2021-05-21T11:01:34Z</time>
      </trkpt>
      <trkpt lat="42.4004800" lon="-8.6307360">
        <ele>44.1</ele>
        <time>2021-05-21T11:01:35Z</time>
      </trkpt>
      <trkpt lat="42.4004950" lon="-8.6307390">
        <ele>44.1</ele>
        <time>2021-05-21T11:01:36Z</time>
      </trkpt>
      <trkpt lat="42.4005030" lon="-8.6307360">
        <ele>44.1</ele>
        <time>2021-05-21T11:01:37Z</time>
      </trkpt>
      <trkpt lat="42.4005150" lon="-8.6307420">
        <ele>44.1</ele>
        <time>2021-05-21T11:01:38Z</time>
      </trkpt>
      <trkpt lat="42.4005250" lon="-8.6307490">
        <ele>44.1</ele>
        <time>2021-05-21T11:01:39Z</time>
      </trkpt>
      <trkpt lat="42.4005360" lon="-8.6307540">
        <ele>44.1</ele>
        <time>2021-05-21T11:01:40Z</time>
      </trkpt>
      <trkpt lat="42.4005530" lon="-8.6307650">
        <ele>44.1</ele>
        <time>2021-05-21T11:01:41Z</time>
      </trkpt>
      <trkpt lat="42.4005620" lon="-8.6307680">
        <ele>44.1</ele>
        <time>2021-05-21T11:01:42Z</time>
      </trkpt>
      <trkpt lat="42.4005730" lon="-8.6307790">
        <ele>44.1</ele>
        <time>2021-05-21T11:01:43Z</time>
      </trkpt>
      <trkpt lat="42.4005820" lon="-8.6307840">
        <ele>44.1</ele>
        <time>2021-05-21T11:01:44Z</time>
      </trkpt>
      <trkpt lat="42.4006000" lon="-8.6308020">
        <ele>44.1</ele>
        <time>2021-05-21T11:01:45Z</time>
      </trkpt>
      <trkpt lat="42.4006070" lon="-8.6308080">
        <ele>44.0</ele>
        <time>2021-05-21T11:01:46Z</time>
      </trkpt>
      <trkpt lat="42.4006140" lon="-8.6308140">
        <ele>44.0</ele>
        <time>2021-05-21T11:01:47Z</time>
      </trkpt>
      <trkpt lat="42.4006190" lon="-8.6308210">
        <ele>44.0</ele>
        <time>2021-05-21T11:01:48Z</time>
      </trkpt>
      <trkpt lat="42.4006340" lon="-8.6308280">
        <ele>44.0</ele>
        <time>2021-05-21T11:01:49Z</time>
      </trkpt>
      <trkpt lat="42.4006450" lon="-8.6308380">
        <ele>44.0</ele>
        <time>2021-05-21T11:01:50Z</time>
      </trkpt>
      <trkpt lat="42.4006510" lon="-8.6308490">
        <ele>44.0</ele>
        <time>2021-05-21T11:01:51Z</time>
      </trkpt>
      <trkpt lat="42.4006690" lon="-8.6308660">
        <ele>44.0</ele>
        <time>2021-05-21T11:01:52Z</time>
      </trkpt>
      <trkpt lat="42.4006810" lon="-8.6308770">
        <ele>44.0</ele>
        <time>2021-05-21T11:01:53Z</time>
      </trkpt>
      <trkpt lat="42.4006930" lon="-8.6308930">
        <ele>43.9</ele>
        <time>2021-05-21T11:01:54Z</time>
      </trkpt>
      <trkpt lat="42.4007080" lon="-8.6309030">
        <ele>43.9</ele>
        <time>2021-05-21T11:01:55Z</time>
      </trkpt>
      <trkpt lat="42.4007160" lon="-8.6309120">
        <ele>43.9</ele>
        <time>2021-05-21T11:01:56Z</time>
      </trkpt>
      <trkpt lat="42.4007240" lon="-8.6309200">
        <ele>43.9</ele>
        <time>2021-05-21T11:01:57Z</time>
      </trkpt>
      <trkpt lat="42.4007290" lon="-8.6309370">
        <ele>43.9</ele>
        <time>2021-05-21T11:01:58Z</time>
      </trkpt>
      <trkpt lat="42.4007410" lon="-8.6309490">
        <ele>43.9</ele>
        <time>2021-05-21T11:01:59Z</time>
      </trkpt>
      <trkpt lat="42.4007560" lon="-8.6309660">
        <ele>43.8</ele>
        <time>2021-05-21T11:02:00Z</time>
      </trkpt>
      <trkpt lat="42.4007620" lon="-8.6309750">
        <ele>43.8</ele>
        <time>2021-05-21T11:02:01Z</time>
      </trkpt>
      <trkpt lat="42.4007690" lon="-8.6309830">
        <ele>43.8</ele>
        <time>2021-05-21T11:02:02Z</time>
      </trkpt>
      <trkpt lat="42.4007760" lon="-8.6310030">
        <ele>43.8</ele>
        <time>2021-05-21T11:02:03Z</time>
      </trkpt>
      <trkpt lat="42.4007820" lon="-8.6310080">
        <ele>43.8</ele>
        <time>2021-05-21T11:02:04Z</time>
      </trkpt>
      <trkpt lat="42.4007860" lon="-8.6310100">
        <ele>43.8</ele>
        <time>2021-05-21T11:02:05Z</time>
      </trkpt>
      <trkpt lat="42.4007910" lon="-8.6310180">
        <ele>43.8</ele>
        <time>2021-05-21T11:02:06Z</time>
      </trkpt>
      <trkpt lat="42.4008040" lon="-8.6310260">
        <ele>43.7</ele>
        <time>2021-05-21T11:02:07Z</time>
      </trkpt>
      <trkpt lat="42.4008140" lon="-8.6310340">
        <ele>43.7</ele>
        <time>2021-05-21T11:02:08Z</time>
      </trkpt>
      <trkpt lat="42.4008210" lon="-8.6310400">
        <ele>43.7</ele>
        <time>2021-05-21T11:02:09Z</time>
      </trkpt>
      <trkpt lat="42.4008270" lon="-8.6310560">
        <ele>43.7</ele>
        <time>2021-05-21T11:02:10Z</time>
      </trkpt>
      <trkpt lat="42.4008370" lon="-8.6310620">
        <ele>43.7</ele>
        <time>2021-05-21T11:02:11Z</time>
      </trkpt>
      <trkpt lat="42.4008460" lon="-8.6310750">
        <ele>43.6</ele>
        <time>2021-05-21T11:02:12Z</time>
      </trkpt>
      <trkpt lat="42.4008540" lon="-8.6310880">
        <ele>43.6</ele>
        <time>2021-05-21T11:02:13Z</time>
      </trkpt>
      <trkpt lat="42.4008630" lon="-8.6311010">
        <ele>43.6</ele>
        <time>2021-05-21T11:02:14Z</time>
      </trkpt>
      <trkpt lat="42.4008730" lon="-8.6311050">
        <ele>43.6</ele>
        <time>2021-05-21T11:02:15Z</time>
      </trkpt>
      <trkpt lat="42.4008920" lon="-8.6311250">
        <ele>43.5</ele>
        <time>2021-05-21T11:02:16Z</time>
      </trkpt>
      <trkpt lat="42.4008980" lon="-8.6311340">
        <ele>43.5</ele>
        <time>2021-05-21T11:02:17Z</time>
      </trkpt>
      <trkpt lat="42.4009050" lon="-8.6311420">
        <ele>43.5</ele>
        <time>2021-05-21T11:02:18Z</time>
      </trkpt>
      <trkpt lat="42.4009130" lon="-8.6311470">
        <ele>43.5</ele>
        <time>2021-05-21T11:02:19Z</time>
      </trkpt>
      <trkpt lat="42.4009190" lon="-8.6311540">
        <ele>43.4</ele>
        <time>2021-05-21T11:02:20Z</time>
      </trkpt>
      <trkpt lat="42.4009270" lon="-8.6311710">
        <ele>43.4</ele>
        <time>2021-05-21T11:02:21Z</time>
      </trkpt>
      <trkpt lat="42.4009320" lon="-8.6311900">
        <ele>43.4</ele>
        <time>2021-05-21T11:02:22Z</time>
      </trkpt>
      <trkpt lat="42.4009420" lon="-8.6312030">
        <ele>43.4</ele>
        <time>2021-05-21T11:02:23Z</time>
      </trkpt>
      <trkpt lat="42.4009570" lon="-8.6312170">
        <ele>43.3</ele>
        <time>2021-05-21T11:02:24Z</time>
      </trkpt>
      <trkpt lat="42.4009680" lon="-8.6312250">
        <ele>43.3</ele>
        <time>2021-05-21T11:02:25Z</time>
      </trkpt>
      <trkpt lat="42.4009820" lon="-8.6312440">
        <ele>43.3</ele>
        <time>2021-05-21T11:02:26Z</time>
      </trkpt>
      <trkpt lat="42.4009890" lon="-8.6312550">
        <ele>43.3</ele>
        <time>2021-05-21T11:02:27Z</time>
      </trkpt>
      <trkpt lat="42.4009970" lon="-8.6312650">
        <ele>43.2</ele>
        <time>2021-05-21T11:02:28Z</time>
      </trkpt>
      <trkpt lat="42.4010150" lon="-8.6312830">
        <ele>43.2</ele>
        <time>2021-05-21T11:02:29Z</time>
      </trkpt>
      <trkpt lat="42.4010200" lon="-8.6312900">
        <ele>43.2</ele>
        <time>2021-05-21T11:02:30Z</time>
      </trkpt>
      <trkpt lat="42.4010250" lon="-8.6312970">
        <ele>43.2</ele>
        <time>2021-05-21T11:02:31Z</time>
      </trkpt>
      <trkpt lat="42.4010390" lon="-8.6313180">
        <ele>43.1</ele>
        <time>2021-05-21T11:02:32Z</time>
      </trkpt>
      <trkpt lat="42.4010500" lon="-8.6313250">
        <ele>43.1</ele>
        <time>2021-05-21T11:02:33Z</time>
      </trkpt>
      <trkpt lat="42.4010600" lon="-8.6313330">
        <ele>43.1</ele>
        <time>2021-05-21T11:02:34Z</time>
      </trkpt>
      <trkpt lat="42.4010710" lon="-8.6313450">
        <ele>43.1</ele>
        <time>2021-05-21T11:02:35Z</time>
      </trkpt>
      <trkpt lat="42.4010860" lon="-8.6313570">
        <ele>43.0</ele>
        <time>2021-05-21T11:02:36Z</time>
      </trkpt>
      <trkpt lat="42.4011000" lon="-8.6313800">
        <ele>43.0</ele>
        <time>2021-05-21T11:02:37Z</time>
      </trkpt>
      <trkpt lat="42.4011050" lon="-8.6313880">
        <ele>43.0</ele>
        <time>2021-05-21T11:02:38Z</time>
      </trkpt>
      <trkpt lat="42.4011110" lon="-8.6313950">
        <ele>43.0</ele>
        <time>2021-05-21T11:02:39Z</time>
      </trkpt>
      <trkpt lat="42.4011180" lon="-8.6314090">
        <ele>42.9</ele>
        <time>2021-05-21T11:02:40Z</time>
      </trkpt>
      <trkpt lat="42.4011270" lon="-8.6314160">
        <ele>42.9</ele>
        <time>2021-05-21T11:02:41Z</time>
      </trkpt>
      <trkpt lat="42.4011340" lon="-8.6314200">
        <ele>42.9</ele>
        <time>2021-05-21T11:02:42Z</time>
      </trkpt>
      <trkpt lat="42.4011490" lon="-8.6314310">
        <ele>42.8</ele>
        <time>2021-05-21T11:02:43Z</time>
      </trkpt>
      <trkpt lat="42.4011580" lon="-8.6314390">
        <ele>42.8</ele>
        <time>2021-05-21T11:02:44Z</time>
      </trkpt>
      <trkpt lat="42.4011700" lon="-8.6314510">
        <ele>42.8</ele>
        <time>2021-05-21T11:02:45Z</time>
      </trkpt>
      <trkpt lat="42.4011830" lon="-8.6314660">
        <ele>42.8</ele>
        <time>2021-05-21T11:02:46Z</time>
      </trkpt>
      <trkpt lat="42.4011990" lon="-8.6314720">
        <ele>42.7</ele>
        <time>2021-05-21T11:02:47Z</time>
      </trkpt>
      <trkpt lat="42.4012090" lon="-8.6314790">
        <ele>42.7</ele>
        <time>2021-05-21T11:02:48Z</time>
      </trkpt>
      <trkpt lat="42.4012160" lon="-8.6314940">
        <ele>42.7</ele>
        <time>2021-05-21T11:02:49Z</time>
      </trkpt>
      <trkpt lat="42.4012180" lon="-8.6315030">
        <ele>42.7</ele>
        <time>2021-05-21T11:02:50Z</time>
      </trkpt>
      <trkpt lat="42.4012300" lon="-8.6315180">
        <ele>42.6</ele>
        <time>2021-05-21T11:02:51Z</time>
      </trkpt>
      <trkpt lat="42.4012390" lon="-8.6315360">
        <ele>42.6</ele>
        <time>2021-05-21T11:02:52Z</time>
      </trkpt>
      <trkpt lat="42.4012460" lon="-8.6315430">
        <ele>42.6</ele>
        <time>2021-05-21T11:02:53Z</time>
      </trkpt>
      <trkpt lat="42.4012550" lon="-8.6315510">
        <ele>42.5</ele>
        <time>2021-05-21T11:02:54Z</time>
      </trkpt>
      <trkpt lat="42.4012730" lon="-8.6315710">
        <ele>42.5</ele>
        <time>2021-05-21T11:02:55Z</time>
      </trkpt>
      <trkpt lat="42.4012810" lon="-8.6315750">
        <ele>42.5</ele>
        <time>2021-05-21T11:02:56Z</time>
      </trkpt>
      <trkpt lat="42.4012900" lon="-8.6315800">
        <ele>42.4</ele>
        <time>2021-05-21T11:02:57Z</time>
      </trkpt>
      <trkpt lat="42.4012950" lon="-8.6316010">
        <ele>42.4</ele>
        <time>2021-05-21T11:02:58Z</time>
      </trkpt>
      <trkpt lat="42.4012960" lon="-8.6316100">
        <ele>42.4</ele>
        <time>2021-05-21T11:02:59Z</time>
      </trkpt>
      <trkpt lat="42.4012930" lon="-8.6316150">
        <ele>42.4</ele>
        <time>2021-05-21T11:03:00Z</time>
      </trkpt>
      <trkpt lat="42.4012880" lon="-8.6316250">
        <ele>42.4</ele>
        <time>2021-05-21T11:03:01Z</time>
      </trkpt>
      <trkpt lat="42.4012960" lon="-8.6316450">
        <ele>42.3</ele>
        <time>2021-05-21T11:03:02Z</time>
      </trkpt>
      <trkpt lat="42.4013050" lon="-8.6316570">
        <ele>42.3</ele>
        <time>2021-05-21T11:03:03Z</time>
      </trkpt>
      <trkpt lat="42.4013190" lon="-8.6316810">
        <ele>42.2</ele>
        <time>2021-05-21T11:03:04Z</time>
      </trkpt>
      <trkpt lat="42.4013250" lon="-8.6316870">
        <ele>42.2</ele>
        <time>2021-05-21T11:03:05Z</time>
      </trkpt>
      <trkpt lat="42.4013320" lon="-8.6316940">
        <ele>42.2</ele>
        <time>2021-05-21T11:03:06Z</time>
      </trkpt>
      <trkpt lat="42.4013390" lon="-8.6317040">
        <ele>42.2</ele>
        <time>2021-05-21T11:03:07Z</time>
      </trkpt>
      <trkpt lat="42.4013530" lon="-8.6317180">
        <ele>42.1</ele>
        <time>2021-05-21T11:03:08Z</time>
      </trkpt>
      <trkpt lat="42.4013480" lon="-8.6317340">
        <ele>42.1</ele>
        <time>2021-05-21T11:03:09Z</time>
      </trkpt>
      <trkpt lat="42.4013500" lon="-8.6317530">
        <ele>42.0</ele>
        <time>2021-05-21T11:03:10Z</time>
      </trkpt>
      <trkpt lat="42.4013530" lon="-8.6317660">
        <ele>42.0</ele>
        <time>2021-05-21T11:03:11Z</time>
      </trkpt>
      <trkpt lat="42.4013580" lon="-8.6317760">
        <ele>42.0</ele>
        <time>2021-05-21T11:03:12Z</time>
      </trkpt>
      <trkpt lat="42.4013420" lon="-8.6317920">
        <ele>41.9</ele>
        <time>2021-05-21T11:03:13Z</time>
      </trkpt>
      <trkpt lat="42.4013350" lon="-8.6318040">
        <ele>41.9</ele>
        <time>2021-05-21T11:03:14Z</time>
      </trkpt>
      <trkpt lat="42.4013270" lon="-8.6318170">
        <ele>41.9</ele>
        <time>2021-05-21T11:03:15Z</time>
      </trkpt>
      <trkpt lat="42.4013240" lon="-8.6318310">
        <ele>41.8</ele>
        <time>2021-05-21T11:03:16Z</time>
      </trkpt>
      <trkpt lat="42.4013230" lon="-8.6318460">
        <ele>41.8</ele>
        <time>2021-05-21T11:03:17Z</time>
      </trkpt>
      <trkpt lat="42.4013200" lon="-8.6318590">
        <ele>41.8</ele>
        <time>2021-05-21T11:03:18Z</time>
      </trkpt>
      <trkpt lat="42.4013030" lon="-8.6318710">
        <ele>41.7</ele>
        <time>2021-05-21T11:03:19Z</time>
      </trkpt>
      <trkpt lat="42.4012930" lon="-8.6318770">
        <ele>41.7</ele>
        <time>2021-05-21T11:03:20Z</time>
      </trkpt>
      <trkpt lat="42.4012840" lon="-8.6318840">
        <ele>41.6</ele>
        <time>2021-05-21T11:03:21Z</time>
      </trkpt>
      <trkpt lat="42.4012740" lon="-8.6318890">
        <ele>41.6</ele>
        <time>2021-05-21T11:03:22Z</time>
      </trkpt>
      <trkpt lat="42.4012590" lon="-8.6319040">
        <ele>41.5</ele>
        <time>2021-05-21T11:03:23Z</time>
      </trkpt>
      <trkpt lat="42.4012490" lon="-8.6319110">
        <ele>41.5</ele>
        <time>2021-05-21T11:03:24Z</time>
      </trkpt>
      <trkpt lat="42.4012490" lon="-8.6319030">
        <ele>41.5</ele>
        <time>2021-05-21T11:03:25Z</time>
      </trkpt>
      <trkpt lat="42.4012500" lon="-8.6318940">
        <ele>41.5</ele>
        <time>2021-05-21T11:03:26Z</time>
      </trkpt>
      <trkpt lat="42.4012450" lon="-8.6318870">
        <ele>41.4</ele>
        <time>2021-05-21T11:03:27Z</time>
      </trkpt>
      <trkpt lat="42.4012530" lon="-8.6318760">
        <ele>41.4</ele>
        <time>2021-05-21T11:03:28Z</time>
      </trkpt>
      <trkpt lat="42.4012690" lon="-8.6318810">
        <ele>41.4</ele>
        <time>2021-05-21T11:03:29Z</time>
      </trkpt>
      <trkpt lat="42.4012820" lon="-8.6318750">
        <ele>41.3</ele>
        <time>2021-05-21T11:03:30Z</time>
      </trkpt>
      <trkpt lat="42.4012960" lon="-8.6318700">
        <ele>41.3</ele>
        <time>2021-05-21T11:03:31Z</time>
      </trkpt>
      <trkpt lat="42.4013100" lon="-8.6318520">
        <ele>41.2</ele>
        <time>2021-05-21T11:03:32Z</time>
      </trkpt>
      <trkpt lat="42.4013120" lon="-8.6318340">
        <ele>41.2</ele>
        <time>2021-05-21T11:03:33Z</time>
      </trkpt>
      <trkpt lat="42.4013250" lon="-8.6318090">
        <ele>41.1</ele>
        <time>2021-05-21T11:03:34Z</time>
      </trkpt>
      <trkpt lat="42.4013210" lon="-8.6317980">
        <ele>41.1</ele>
        <time>2021-05-21T11:03:35Z</time>
      </trkpt>
      <trkpt lat="42.4013370" lon="-8.6317710">
        <ele>41.0</ele>
        <time>2021-05-21T11:03:36Z</time>
      </trkpt>
      <trkpt lat="42.4013430" lon="-8.6317550">
        <ele>40.9</ele>
        <time>2021-05-21T11:03:37Z</time>
      </trkpt>
      <trkpt lat="42.4013550" lon="-8.6317310">
        <ele>40.9</ele>
        <time>2021-05-21T11:03:38Z</time>
      </trkpt>
      <trkpt lat="42.4013630" lon="-8.6317090">
        <ele>40.8</ele>
        <time>2021-05-21T11:03:39Z</time>
      </trkpt>
      <trkpt lat="42.4013720" lon="-8.6316990">
        <ele>40.8</ele>
        <time>2021-05-21T11:03:40Z</time>
      </trkpt>
      <trkpt lat="42.4013810" lon="-8.6316880">
        <ele>40.7</ele>
        <time>2021-05-21T11:03:41Z</time>
      </trkpt>
      <trkpt lat="42.4013930" lon="-8.6316830">
        <ele>40.7</ele>
        <time>2021-05-21T11:03:42Z</time>
      </trkpt>
      <trkpt lat="42.4013980" lon="-8.6316800">
        <ele>40.7</ele>
        <time>2021-05-21T11:03:43Z</time>
      </trkpt>
      <trkpt lat="42.4014080" lon="-8.6316970">
        <ele>40.6</ele>
        <time>2021-05-21T11:03:44Z</time>
      </trkpt>
      <trkpt lat="42.4014120" lon="-8.6317140">
        <ele>40.6</ele>
        <time>2021-05-21T11:03:45Z</time>
      </trkpt>
      <trkpt lat="42.4014170" lon="-8.6317310">
        <ele>40.5</ele>
        <time>2021-05-21T11:03:46Z</time>
      </trkpt>
      <trkpt lat="42.4014330" lon="-8.6317450">
        <ele>40.5</ele>
        <time>2021-05-21T11:03:47Z</time>
      </trkpt>
      <trkpt lat="42.4014400" lon="-8.6317610">
        <ele>40.4</ele>
        <time>2021-05-21T11:03:48Z</time>
      </trkpt>
      <trkpt lat="42.4014550" lon="-8.6317730">
        <ele>40.4</ele>
        <time>2021-05-21T11:03:49Z</time>
      </trkpt>
      <trkpt lat="42.4014640" lon="-8.6317830">
        <ele>40.4</ele>
        <time>2021-05-21T11:03:50Z</time>
      </trkpt>
      <trkpt lat="42.4014740" lon="-8.6317900">
        <ele>40.3</ele>
        <time>2021-05-21T11:03:51Z</time>
      </trkpt>
      <trkpt lat="42.4014850" lon="-8.6317960">
        <ele>40.3</ele>
        <time>2021-05-21T11:03:52Z</time>
      </trkpt>
      <trkpt lat="42.4014910" lon="-8.6318060">
        <ele>40.3</ele>
        <time>2021-05-21T11:03:53Z</time>
      </trkpt>
      <trkpt lat="42.4015000" lon="-8.6318120">
        <ele>40.2</ele>
        <time>2021-05-21T11:03:54Z</time>
      </trkpt>
      <trkpt lat="42.4015140" lon="-8.6318340">
        <ele>40.2</ele>
        <time>2021-05-21T11:03:55Z</time>
      </trkpt>
      <trkpt lat="42.4015240" lon="-8.6318460">
        <ele>40.1</ele>
        <time>2021-05-21T11:03:56Z</time>
      </trkpt>
      <trkpt lat="42.4015360" lon="-8.6318560">
        <ele>40.1</ele>
        <time>2021-05-21T11:03:57Z</time>
      </trkpt>
      <trkpt lat="42.4015440" lon="-8.6318670">
        <ele>40.0</ele>
        <time>2021-05-21T11:03:58Z</time>
      </trkpt>
      <trkpt lat="42.4015560" lon="-8.6318700">
        <ele>40.0</ele>
        <time>2021-05-21T11:03:59Z</time>
      </trkpt>
      <trkpt lat="42.4015680" lon="-8.6318770">
        <ele>40.0</ele>
        <time>2021-05-21T11:04:00Z</time>
      </trkpt>
      <trkpt lat="42.4015790" lon="-8.6318910">
        <ele>39.9</ele>
        <time>2021-05-21T11:04:01Z</time>
      </trkpt>
      <trkpt lat="42.4015860" lon="-8.6319090">
        <ele>39.9</ele>
        <time>2021-05-21T11:04:02Z</time>
      </trkpt>
      <trkpt lat="42.4015890" lon="-8.6319220">
        <ele>39.9</ele>
        <time>2021-05-21T11:04:03Z</time>
      </trkpt>
      <trkpt lat="42.4015990" lon="-8.6319250">
        <ele>39.8</ele>
        <time>2021-05-21T11:04:04Z</time>
      </trkpt>
      <trkpt lat="42.4016120" lon="-8.6319430">
        <ele>39.8</ele>
        <time>2021-05-21T11:04:05Z</time>
      </trkpt>
      <trkpt lat="42.4016260" lon="-8.6319560">
        <ele>39.7</ele>
        <time>2021-05-21T11:04:06Z</time>
      </trkpt>
      <trkpt lat="42.4016400" lon="-8.6319670">
        <ele>39.7</ele>
        <time>2021-05-21T11:04:07Z</time>
      </trkpt>
      <trkpt lat="42.4016540" lon="-8.6319800">
        <ele>39.6</ele>
        <time>2021-05-21T11:04:08Z</time>
      </trkpt>
      <trkpt lat="42.4016630" lon="-8.6319910">
        <ele>39.6</ele>
        <time>2021-05-21T11:04:09Z</time>
      </trkpt>
      <trkpt lat="42.4016780" lon="-8.6319950">
        <ele>39.6</ele>
        <time>2021-05-21T11:04:10Z</time>
      </trkpt>
      <trkpt lat="42.4016910" lon="-8.6320020">
        <ele>39.5</ele>
        <time>2021-05-21T11:04:11Z</time>
      </trkpt>
      <trkpt lat="42.4017170" lon="-8.6320120">
        <ele>39.5</ele>
        <time>2021-05-21T11:04:12Z</time>
      </trkpt>
      <trkpt lat="42.4017270" lon="-8.6320150">
        <ele>39.4</ele>
        <time>2021-05-21T11:04:13Z</time>
      </trkpt>
      <trkpt lat="42.4017430" lon="-8.6320310">
        <ele>39.4</ele>
        <time>2021-05-21T11:04:14Z</time>
      </trkpt>
      <trkpt lat="42.4017500" lon="-8.6320400">
        <ele>39.4</ele>
        <time>2021-05-21T11:04:15Z</time>
      </trkpt>
      <trkpt lat="42.4017580" lon="-8.6320480">
        <ele>39.4</ele>
        <time>2021-05-21T11:04:16Z</time>
      </trkpt>
      <trkpt lat="42.4017710" lon="-8.6320530">
        <ele>39.3</ele>
        <time>2021-05-21T11:04:17Z</time>
      </trkpt>
      <trkpt lat="42.4017840" lon="-8.6320650">
        <ele>39.3</ele>
        <time>2021-05-21T11:04:18Z</time>
      </trkpt>
      <trkpt lat="42.4017960" lon="-8.6320740">
        <ele>39.3</ele>
        <time>2021-05-21T11:04:19Z</time>
      </trkpt>
      <trkpt lat="42.4018090" lon="-8.6320890">
        <ele>39.2</ele>
        <time>2021-05-21T11:04:20Z</time>
      </trkpt>
      <trkpt lat="42.4018250" lon="-8.6320950">
        <ele>39.2</ele>
        <time>2021-05-21T11:04:21Z</time>
      </trkpt>
      <trkpt lat="42.4018340" lon="-8.6321070">
        <ele>39.1</ele>
        <time>2021-05-21T11:04:22Z</time>
      </trkpt>
      <trkpt lat="42.4018410" lon="-8.6321090">
        <ele>39.1</ele>
        <time>2021-05-21T11:04:23Z</time>
      </trkpt>
      <trkpt lat="42.4018400" lon="-8.6321100">
        <ele>39.1</ele>
        <time>2021-05-21T11:04:24Z</time>
      </trkpt>
      <trkpt lat="42.4018470" lon="-8.6321150">
        <ele>39.1</ele>
        <time>2021-05-21T11:04:25Z</time>
      </trkpt>
      <trkpt lat="42.4018540" lon="-8.6321170">
        <ele>39.1</ele>
        <time>2021-05-21T11:04:26Z</time>
      </trkpt>
      <trkpt lat="42.4018680" lon="-8.6321210">
        <ele>39.1</ele>
        <time>2021-05-21T11:04:27Z</time>
      </trkpt>
      <trkpt lat="42.4018840" lon="-8.6321360">
        <ele>39.0</ele>
        <time>2021-05-21T11:04:28Z</time>
      </trkpt>
      <trkpt lat="42.4018960" lon="-8.6321500">
        <ele>38.9</ele>
        <time>2021-05-21T11:04:29Z</time>
      </trkpt>
      <trkpt lat="42.4019120" lon="-8.6321630">
        <ele>38.9</ele>
        <time>2021-05-21T11:04:30Z</time>
      </trkpt>
      <trkpt lat="42.4019200" lon="-8.6321700">
        <ele>38.9</ele>
        <time>2021-05-21T11:04:31Z</time>
      </trkpt>
      <trkpt lat="42.4019280" lon="-8.6321760">
        <ele>38.8</ele>
        <time>2021-05-21T11:04:32Z</time>
      </trkpt>
      <trkpt lat="42.4019410" lon="-8.6321790">
        <ele>38.8</ele>
        <time>2021-05-21T11:04:33Z</time>
      </trkpt>
      <trkpt lat="42.4019500" lon="-8.6321820">
        <ele>38.8</ele>
        <time>2021-05-21T11:04:34Z</time>
      </trkpt>
      <trkpt lat="42.4019600" lon="-8.6321760">
        <ele>38.7</ele>
        <time>2021-05-21T11:04:35Z</time>
      </trkpt>
      <trkpt lat="42.4019660" lon="-8.6321730">
        <ele>38.7</ele>
        <time>2021-05-21T11:04:36Z</time>
      </trkpt>
      <trkpt lat="42.4019780" lon="-8.6321700">
        <ele>38.7</ele>
        <time>2021-05-21T11:04:37Z</time>
      </trkpt>
      <trkpt lat="42.4019900" lon="-8.6321650">
        <ele>38.6</ele>
        <time>2021-05-21T11:04:38Z</time>
      </trkpt>
      <trkpt lat="42.4020110" lon="-8.6321670">
        <ele>38.6</ele>
        <time>2021-05-21T11:04:39Z</time>
      </trkpt>
      <trkpt lat="42.4020200" lon="-8.6321640">
        <ele>38.5</ele>
        <time>2021-05-21T11:04:40Z</time>
      </trkpt>
      <trkpt lat="42.4020250" lon="-8.6321590">
        <ele>38.5</ele>
        <time>2021-05-21T11:04:41Z</time>
      </trkpt>
      <trkpt lat="42.4020370" lon="-8.6321580">
        <ele>38.5</ele>
        <time>2021-05-21T11:04:42Z</time>
      </trkpt>
      <trkpt lat="42.4020490" lon="-8.6321630">
        <ele>38.4</ele>
        <time>2021-05-21T11:04:43Z</time>
      </trkpt>
      <trkpt lat="42.4020530" lon="-8.6321640">
        <ele>38.4</ele>
        <time>2021-05-21T11:04:44Z</time>
      </trkpt>
      <trkpt lat="42.4020650" lon="-8.6321650">
        <ele>38.4</ele>
        <time>2021-05-21T11:04:45Z</time>
      </trkpt>
      <trkpt lat="42.4020810" lon="-8.6321620">
        <ele>38.3</ele>
        <time>2021-05-21T11:04:46Z</time>
      </trkpt>
      <trkpt lat="42.4021030" lon="-8.6321530">
        <ele>38.3</ele>
        <time>2021-05-21T11:04:47Z</time>
      </trkpt>
      <trkpt lat="42.4021120" lon="-8.6321500">
        <ele>38.2</ele>
        <time>2021-05-21T11:04:48Z</time>
      </trkpt>
      <trkpt lat="42.4021210" lon="-8.6321480">
        <ele>38.2</ele>
        <time>2021-05-21T11:04:49Z</time>
      </trkpt>
      <trkpt lat="42.4021430" lon="-8.6321430">
        <ele>38.1</ele>
        <time>2021-05-21T11:04:50Z</time>
      </trkpt>
      <trkpt lat="42.4021520" lon="-8.6321410">
        <ele>38.1</ele>
        <time>2021-05-21T11:04:51Z</time>
      </trkpt>
      <trkpt lat="42.4021600" lon="-8.6321390">
        <ele>38.1</ele>
        <time>2021-05-21T11:04:52Z</time>
      </trkpt>
      <trkpt lat="42.4021710" lon="-8.6321320">
        <ele>38.1</ele>
        <time>2021-05-21T11:04:53Z</time>
      </trkpt>
      <trkpt lat="42.4021770" lon="-8.6321330">
        <ele>38.0</ele>
        <time>2021-05-21T11:04:54Z</time>
      </trkpt>
      <trkpt lat="42.4021930" lon="-8.6321300">
        <ele>38.0</ele>
        <time>2021-05-21T11:04:55Z</time>
      </trkpt>
      <trkpt lat="42.4022060" lon="-8.6321230">
        <ele>38.0</ele>
        <time>2021-05-21T11:04:56Z</time>
      </trkpt>
      <trkpt lat="42.4022180" lon="-8.6321200">
        <ele>37.9</ele>
        <time>2021-05-21T11:04:57Z</time>
      </trkpt>
      <trkpt lat="42.4022270" lon="-8.6321230">
        <ele>37.9</ele>
        <time>2021-05-21T11:04:58Z</time>
      </trkpt>
      <trkpt lat="42.4022430" lon="-8.6321120">
        <ele>37.9</ele>
        <time>2021-05-21T11:04:59Z</time>
      </trkpt>
      <trkpt lat="42.4022580" lon="-8.6321130">
        <ele>37.8</ele>
        <time>2021-05-21T11:05:00Z</time>
      </trkpt>
      <trkpt lat="42.4022860" lon="-8.6321170">
        <ele>37.8</ele>
        <time>2021-05-21T11:05:01Z</time>
      </trkpt>
      <trkpt lat="42.4022940" lon="-8.6321180">
        <ele>37.7</ele>
        <time>2021-05-21T11:05:02Z</time>
      </trkpt>
      <trkpt lat="42.4023080" lon="-8.6321270">
        <ele>37.7</ele>
        <time>2021-05-21T11:05:03Z</time>
      </trkpt>
      <trkpt lat="42.4023280" lon="-8.6321240">
        <ele>37.7</ele>
        <time>2021-05-21T11:05:04Z</time>
      </trkpt>
      <trkpt lat="42.4023560" lon="-8.6321280">
        <ele>37.6</ele>
        <time>2021-05-21T11:05:05Z</time>
      </trkpt>
      <trkpt lat="42.4023650" lon="-8.6321310">
        <ele>37.6</ele>
        <time>2021-05-21T11:05:06Z</time>
      </trkpt>
      <trkpt lat="42.4023780" lon="-8.6321360">
        <ele>37.6</ele>
        <time>2021-05-21T11:05:07Z</time>
      </trkpt>
      <trkpt lat="42.4023820" lon="-8.6321480">
        <ele>37.6</ele>
        <time>2021-05-21T11:05:08Z</time>
      </trkpt>
      <trkpt lat="42.4023920" lon="-8.6321510">
        <ele>37.6</ele>
        <time>2021-05-21T11:05:09Z</time>
      </trkpt>
      <trkpt lat="42.4024090" lon="-8.6321580">
        <ele>37.5</ele>
        <time>2021-05-21T11:05:10Z</time>
      </trkpt>
      <trkpt lat="42.4024160" lon="-8.6321550">
        <ele>37.5</ele>
        <time>2021-05-21T11:05:11Z</time>
      </trkpt>
      <trkpt lat="42.4024260" lon="-8.6321590">
        <ele>37.5</ele>
        <time>2021-05-21T11:05:12Z</time>
      </trkpt>
      <trkpt lat="42.4024440" lon="-8.6321690">
        <ele>37.5</ele>
        <time>2021-05-21T11:05:13Z</time>
      </trkpt>
      <trkpt lat="42.4024520" lon="-8.6321730">
        <ele>37.5</ele>
        <time>2021-05-21T11:05:14Z</time>
      </trkpt>
      <trkpt lat="42.4024600" lon="-8.6321770">
        <ele>37.5</ele>
        <time>2021-05-21T11:05:15Z</time>
      </trkpt>
      <trkpt lat="42.4024750" lon="-8.6321800">
        <ele>37.4</ele>
        <time>2021-05-21T11:05:16Z</time>
      </trkpt>
      <trkpt lat="42.4024880" lon="-8.6321780">
        <ele>37.4</ele>
        <time>2021-05-21T11:05:17Z</time>
      </trkpt>
      <trkpt lat="42.4025070" lon="-8.6321820">
        <ele>37.4</ele>
        <time>2021-05-21T11:05:18Z</time>
      </trkpt>
      <trkpt lat="42.4025210" lon="-8.6321870">
        <ele>37.4</ele>
        <time>2021-05-21T11:05:19Z</time>
      </trkpt>
      <trkpt lat="42.4025280" lon="-8.6321820">
        <ele>37.4</ele>
        <time>2021-05-21T11:05:20Z</time>
      </trkpt>
      <trkpt lat="42.4025410" lon="-8.6321770">
        <ele>37.4</ele>
        <time>2021-05-21T11:05:21Z</time>
      </trkpt>
      <trkpt lat="42.4025550" lon="-8.6321750">
        <ele>37.4</ele>
        <time>2021-05-21T11:05:22Z</time>
      </trkpt>
      <trkpt lat="42.4025690" lon="-8.6321760">
        <ele>37.4</ele>
        <time>2021-05-21T11:05:23Z</time>
      </trkpt>
      <trkpt lat="42.4025870" lon="-8.6321790">
        <ele>37.4</ele>
        <time>2021-05-21T11:05:24Z</time>
      </trkpt>
      <trkpt lat="42.4026030" lon="-8.6321770">
        <ele>37.3</ele>
        <time>2021-05-21T11:05:25Z</time>
      </trkpt>
      <trkpt lat="42.4026110" lon="-8.6321800">
        <ele>37.3</ele>
        <time>2021-05-21T11:05:26Z</time>
      </trkpt>
      <trkpt lat="42.4026230" lon="-8.6321750">
        <ele>37.3</ele>
        <time>2021-05-21T11:05:27Z</time>
      </trkpt>
      <trkpt lat="42.4026380" lon="-8.6321740">
        <ele>37.3</ele>
        <time>2021-05-21T11:05:28Z</time>
      </trkpt>
      <trkpt lat="42.4026500" lon="-8.6321750">
        <ele>37.3</ele>
        <time>2021-05-21T11:05:29Z</time>
      </trkpt>
      <trkpt lat="42.4026550" lon="-8.6321680">
        <ele>37.3</ele>
        <time>2021-05-21T11:05:30Z</time>
      </trkpt>
      <trkpt lat="42.4026730" lon="-8.6321680">
        <ele>37.3</ele>
        <time>2021-05-21T11:05:31Z</time>
      </trkpt>
      <trkpt lat="42.4026860" lon="-8.6321700">
        <ele>37.3</ele>
        <time>2021-05-21T11:05:32Z</time>
      </trkpt>
      <trkpt lat="42.4027010" lon="-8.6321710">
        <ele>37.3</ele>
        <time>2021-05-21T11:05:33Z</time>
      </trkpt>
      <trkpt lat="42.4027150" lon="-8.6321750">
        <ele>37.3</ele>
        <time>2021-05-21T11:05:34Z</time>
      </trkpt>
      <trkpt lat="42.4027390" lon="-8.6321760">
        <ele>37.3</ele>
        <time>2021-05-21T11:05:35Z</time>
      </trkpt>
      <trkpt lat="42.4027470" lon="-8.6321740">
        <ele>37.3</ele>
        <time>2021-05-21T11:05:36Z</time>
      </trkpt>
      <trkpt lat="42.4027550" lon="-8.6321710">
        <ele>37.3</ele>
        <time>2021-05-21T11:05:37Z</time>
      </trkpt>
      <trkpt lat="42.4027870" lon="-8.6321800">
        <ele>37.3</ele>
        <time>2021-05-21T11:05:38Z</time>
      </trkpt>
      <trkpt lat="42.4028010" lon="-8.6321810">
        <ele>37.3</ele>
        <time>2021-05-21T11:05:39Z</time>
      </trkpt>
      <trkpt lat="42.4028150" lon="-8.6321800">
        <ele>37.3</ele>
        <time>2021-05-21T11:05:40Z</time>
      </trkpt>
      <trkpt lat="42.4028330" lon="-8.6321700">
        <ele>37.3</ele>
        <time>2021-05-21T11:05:41Z</time>
      </trkpt>
      <trkpt lat="42.4028620" lon="-8.6321700">
        <ele>37.3</ele>
        <time>2021-05-21T11:05:42Z</time>
      </trkpt>
      <trkpt lat="42.4028710" lon="-8.6321660">
        <ele>37.3</ele>
        <time>2021-05-21T11:05:43Z</time>
      </trkpt>
      <trkpt lat="42.4028950" lon="-8.6321840">
        <ele>37.3</ele>
        <time>2021-05-21T11:05:44Z</time>
      </trkpt>
      <trkpt lat="42.4029030" lon="-8.6321900">
        <ele>37.3</ele>
        <time>2021-05-21T11:05:45Z</time>
      </trkpt>
      <trkpt lat="42.4029320" lon="-8.6321830">
        <ele>37.3</ele>
        <time>2021-05-21T11:05:46Z</time>
      </trkpt>
      <trkpt lat="42.4029410" lon="-8.6321790">
        <ele>37.3</ele>
        <time>2021-05-21T11:05:47Z</time>
      </trkpt>
      <trkpt lat="42.4029540" lon="-8.6321830">
        <ele>37.3</ele>
        <time>2021-05-21T11:05:48Z</time>
      </trkpt>
      <trkpt lat="42.4029630" lon="-8.6321830">
        <ele>37.3</ele>
        <time>2021-05-21T11:05:49Z</time>
      </trkpt>
      <trkpt lat="42.4029750" lon="-8.6321770">
        <ele>37.3</ele>
        <time>2021-05-21T11:05:50Z</time>
      </trkpt>
      <trkpt lat="42.4029830" lon="-8.6321720">
        <ele>37.3</ele>
        <time>2021-05-21T11:05:51Z</time>
      </trkpt>
      <trkpt lat="42.4029920" lon="-8.6321680">
        <ele>37.3</ele>
        <time>2021-05-21T11:05:52Z</time>
      </trkpt>
      <trkpt lat="42.4030010" lon="-8.6321700">
        <ele>37.3</ele>
        <time>2021-05-21T11:05:53Z</time>
      </trkpt>
      <trkpt lat="42.4030300" lon="-8.6321640">
        <ele>37.4</ele>
        <time>2021-05-21T11:05:54Z</time>
      </trkpt>
      <trkpt lat="42.4030380" lon="-8.6321640">
        <ele>37.4</ele>
        <time>2021-05-21T11:05:55Z</time>
      </trkpt>
      <trkpt lat="42.4030510" lon="-8.6321680">
        <ele>37.4</ele>
        <time>2021-05-21T11:05:56Z</time>
      </trkpt>
      <trkpt lat="42.4030590" lon="-8.6321660">
        <ele>37.4</ele>
        <time>2021-05-21T11:05:57Z</time>
      </trkpt>
      <trkpt lat="42.4030720" lon="-8.6321700">
        <ele>37.4</ele>
        <time>2021-05-21T11:05:58Z</time>
      </trkpt>
      <trkpt lat="42.4030810" lon="-8.6321700">
        <ele>37.4</ele>
        <time>2021-05-21T11:05:59Z</time>
      </trkpt>
      <trkpt lat="42.4030920" lon="-8.6321830">
        <ele>37.4</ele>
        <time>2021-05-21T11:06:00Z</time>
      </trkpt>
      <trkpt lat="42.4031010" lon="-8.6321920">
        <ele>37.4</ele>
        <time>2021-05-21T11:06:01Z</time>
      </trkpt>
      <trkpt lat="42.4031160" lon="-8.6321960">
        <ele>37.4</ele>
        <time>2021-05-21T11:06:02Z</time>
      </trkpt>
      <trkpt lat="42.4031350" lon="-8.6322000">
        <ele>37.4</ele>
        <time>2021-05-21T11:06:03Z</time>
      </trkpt>
      <trkpt lat="42.4031460" lon="-8.6322070">
        <ele>37.4</ele>
        <time>2021-05-21T11:06:04Z</time>
      </trkpt>
      <trkpt lat="42.4031640" lon="-8.6322090">
        <ele>37.4</ele>
        <time>2021-05-21T11:06:05Z</time>
      </trkpt>
      <trkpt lat="42.4031810" lon="-8.6322120">
        <ele>37.4</ele>
        <time>2021-05-21T11:06:06Z</time>
      </trkpt>
      <trkpt lat="42.4031910" lon="-8.6322150">
        <ele>37.4</ele>
        <time>2021-05-21T11:06:07Z</time>
      </trkpt>
      <trkpt lat="42.4032000" lon="-8.6322170">
        <ele>37.4</ele>
        <time>2021-05-21T11:06:08Z</time>
      </trkpt>
      <trkpt lat="42.4032160" lon="-8.6322150">
        <ele>37.4</ele>
        <time>2021-05-21T11:06:09Z</time>
      </trkpt>
      <trkpt lat="42.4032260" lon="-8.6322100">
        <ele>37.4</ele>
        <time>2021-05-21T11:06:10Z</time>
      </trkpt>
      <trkpt lat="42.4032350" lon="-8.6322140">
        <ele>37.4</ele>
        <time>2021-05-21T11:06:11Z</time>
      </trkpt>
      <trkpt lat="42.4032520" lon="-8.6322150">
        <ele>37.4</ele>
        <time>2021-05-21T11:06:12Z</time>
      </trkpt>
      <trkpt lat="42.4032650" lon="-8.6322140">
        <ele>37.4</ele>
        <time>2021-05-21T11:06:13Z</time>
      </trkpt>
      <trkpt lat="42.4032730" lon="-8.6322150">
        <ele>37.4</ele>
        <time>2021-05-21T11:06:14Z</time>
      </trkpt>
      <trkpt lat="42.4032860" lon="-8.6322150">
        <ele>37.4</ele>
        <time>2021-05-21T11:06:15Z</time>
      </trkpt>
      <trkpt lat="42.4032980" lon="-8.6322120">
        <ele>37.4</ele>
        <time>2021-05-21T11:06:16Z</time>
      </trkpt>
      <trkpt lat="42.4033150" lon="-8.6322100">
        <ele>37.4</ele>
        <time>2021-05-21T11:06:17Z</time>
      </trkpt>
      <trkpt lat="42.4033330" lon="-8.6322200">
        <ele>37.4</ele>
        <time>2021-05-21T11:06:18Z</time>
      </trkpt>
      <trkpt lat="42.4033600" lon="-8.6322230">
        <ele>37.4</ele>
        <time>2021-05-21T11:06:19Z</time>
      </trkpt>
      <trkpt lat="42.4033700" lon="-8.6322260">
        <ele>37.4</ele>
        <time>2021-05-21T11:06:20Z</time>
      </trkpt>
      <trkpt lat="42.4033790" lon="-8.6322280">
        <ele>37.5</ele>
        <time>2021-05-21T11:06:21Z</time>
      </trkpt>
      <trkpt lat="42.4033940" lon="-8.6322390">
        <ele>37.5</ele>
        <time>2021-05-21T11:06:22Z</time>
      </trkpt>
      <trkpt lat="42.4034100" lon="-8.6322410">
        <ele>37.5</ele>
        <time>2021-05-21T11:06:23Z</time>
      </trkpt>
      <trkpt lat="42.4034330" lon="-8.6322410">
        <ele>37.5</ele>
        <time>2021-05-21T11:06:24Z</time>
      </trkpt>
      <trkpt lat="42.4034400" lon="-8.6322430">
        <ele>37.5</ele>
        <time>2021-05-21T11:06:25Z</time>
      </trkpt>
      <trkpt lat="42.4034470" lon="-8.6322450">
        <ele>37.5</ele>
        <time>2021-05-21T11:06:26Z</time>
      </trkpt>
      <trkpt lat="42.4034640" lon="-8.6322480">
        <ele>37.5</ele>
        <time>2021-05-21T11:06:27Z</time>
      </trkpt>
      <trkpt lat="42.4034760" lon="-8.6322530">
        <ele>37.4</ele>
        <time>2021-05-21T11:06:28Z</time>
      </trkpt>
      <trkpt lat="42.4034900" lon="-8.6322530">
        <ele>37.4</ele>
        <time>2021-05-21T11:06:29Z</time>
      </trkpt>
      <trkpt lat="42.4035060" lon="-8.6322540">
        <ele>37.4</ele>
        <time>2021-05-21T11:06:30Z</time>
      </trkpt>
      <trkpt lat="42.4035200" lon="-8.6322570">
        <ele>37.4</ele>
        <time>2021-05-21T11:06:31Z</time>
      </trkpt>
      <trkpt lat="42.4035330" lon="-8.6322580">
        <ele>37.4</ele>
        <time>2021-05-21T11:06:32Z</time>
      </trkpt>
      <trkpt lat="42.4035480" lon="-8.6322630">
        <ele>37.4</ele>
        <time>2021-05-21T11:06:33Z</time>
      </trkpt>
      <trkpt lat="42.4035620" lon="-8.6322710">
        <ele>37.4</ele>
        <time>2021-05-21T11:06:34Z</time>
      </trkpt>
      <trkpt lat="42.4035800" lon="-8.6322700">
        <ele>37.4</ele>
        <time>2021-05-21T11:06:35Z</time>
      </trkpt>
      <trkpt lat="42.4035910" lon="-8.6322680">
        <ele>37.4</ele>
        <time>2021-05-21T11:06:36Z</time>
      </trkpt>
      <trkpt lat="42.4036130" lon="-8.6322700">
        <ele>37.3</ele>
        <time>2021-05-21T11:06:37Z</time>
      </trkpt>
      <trkpt lat="42.4036210" lon="-8.6322740">
        <ele>37.3</ele>
        <time>2021-05-21T11:06:38Z</time>
      </trkpt>
      <trkpt lat="42.4036300" lon="-8.6322790">
        <ele>37.3</ele>
        <time>2021-05-21T11:06:39Z</time>
      </trkpt>
      <trkpt lat="42.4036520" lon="-8.6322850">
        <ele>37.3</ele>
        <time>2021-05-21T11:06:40Z</time>
      </trkpt>
      <trkpt lat="42.4036610" lon="-8.6322900">
        <ele>37.3</ele>
        <time>2021-05-21T11:06:41Z</time>
      </trkpt>
      <trkpt lat="42.4036690" lon="-8.6322940">
        <ele>37.2</ele>
        <time>2021-05-21T11:06:42Z</time>
      </trkpt>
      <trkpt lat="42.4036830" lon="-8.6322970">
        <ele>37.2</ele>
        <time>2021-05-21T11:06:43Z</time>
      </trkpt>
      <trkpt lat="42.4037030" lon="-8.6323010">
        <ele>37.2</ele>
        <time>2021-05-21T11:06:44Z</time>
      </trkpt>
      <trkpt lat="42.4037160" lon="-8.6323090">
        <ele>37.1</ele>
        <time>2021-05-21T11:06:45Z</time>
      </trkpt>
      <trkpt lat="42.4037350" lon="-8.6323110">
        <ele>37.1</ele>
        <time>2021-05-21T11:06:46Z</time>
      </trkpt>
      <trkpt lat="42.4037630" lon="-8.6323030">
        <ele>37.0</ele>
        <time>2021-05-21T11:06:47Z</time>
      </trkpt>
      <trkpt lat="42.4037730" lon="-8.6323010">
        <ele>37.0</ele>
        <time>2021-05-21T11:06:48Z</time>
      </trkpt>
      <trkpt lat="42.4037960" lon="-8.6323040">
        <ele>37.0</ele>
        <time>2021-05-21T11:06:49Z</time>
      </trkpt>
      <trkpt lat="42.4038040" lon="-8.6323090">
        <ele>36.9</ele>
        <time>2021-05-21T11:06:50Z</time>
      </trkpt>
      <trkpt lat="42.4038130" lon="-8.6323140">
        <ele>36.9</ele>
        <time>2021-05-21T11:06:51Z</time>
      </trkpt>
      <trkpt lat="42.4038310" lon="-8.6323130">
        <ele>36.9</ele>
        <time>2021-05-21T11:06:52Z</time>
      </trkpt>
      <trkpt lat="42.4038490" lon="-8.6323190">
        <ele>36.8</ele>
        <time>2021-05-21T11:06:53Z</time>
      </trkpt>
      <trkpt lat="42.4038640" lon="-8.6323260">
        <ele>36.8</ele>
        <time>2021-05-21T11:06:54Z</time>
      </trkpt>
      <trkpt lat="42.4038800" lon="-8.6323380">
        <ele>36.7</ele>
        <time>2021-05-21T11:06:55Z</time>
      </trkpt>
      <trkpt lat="42.4038960" lon="-8.6323470">
        <ele>36.7</ele>
        <time>2021-05-21T11:06:56Z</time>
      </trkpt>
      <trkpt lat="42.4039120" lon="-8.6323400">
        <ele>36.6</ele>
        <time>2021-05-21T11:06:57Z</time>
      </trkpt>
      <trkpt lat="42.4039270" lon="-8.6323450">
        <ele>36.6</ele>
        <time>2021-05-21T11:06:58Z</time>
      </trkpt>
      <trkpt lat="42.4039440" lon="-8.6323420">
        <ele>36.5</ele>
        <time>2021-05-21T11:06:59Z</time>
      </trkpt>
      <trkpt lat="42.4039600" lon="-8.6323430">
        <ele>36.4</ele>
        <time>2021-05-21T11:07:00Z</time>
      </trkpt>
      <trkpt lat="42.4039760" lon="-8.6323510">
        <ele>36.4</ele>
        <time>2021-05-21T11:07:01Z</time>
      </trkpt>
      <trkpt lat="42.4039910" lon="-8.6323450">
        <ele>36.3</ele>
        <time>2021-05-21T11:07:02Z</time>
      </trkpt>
      <trkpt lat="42.4040060" lon="-8.6323360">
        <ele>36.3</ele>
        <time>2021-05-21T11:07:03Z</time>
      </trkpt>
      <trkpt lat="42.4040210" lon="-8.6323310">
        <ele>36.2</ele>
        <time>2021-05-21T11:07:04Z</time>
      </trkpt>
      <trkpt lat="42.4040360" lon="-8.6323300">
        <ele>36.2</ele>
        <time>2021-05-21T11:07:05Z</time>
      </trkpt>
      <trkpt lat="42.4040500" lon="-8.6323290">
        <ele>36.1</ele>
        <time>2021-05-21T11:07:06Z</time>
      </trkpt>
      <trkpt lat="42.4040550" lon="-8.6323270">
        <ele>36.1</ele>
        <time>2021-05-21T11:07:07Z</time>
      </trkpt>
      <trkpt lat="42.4040690" lon="-8.6323260">
        <ele>36.0</ele>
        <time>2021-05-21T11:07:08Z</time>
      </trkpt>
      <trkpt lat="42.4040930" lon="-8.6323280">
        <ele>35.9</ele>
        <time>2021-05-21T11:07:09Z</time>
      </trkpt>
      <trkpt lat="42.4041030" lon="-8.6323250">
        <ele>35.9</ele>
        <time>2021-05-21T11:07:10Z</time>
      </trkpt>
      <trkpt lat="42.4041130" lon="-8.6323230">
        <ele>35.9</ele>
        <time>2021-05-21T11:07:11Z</time>
      </trkpt>
      <trkpt lat="42.4041210" lon="-8.6323240">
        <ele>35.8</ele>
        <time>2021-05-21T11:07:12Z</time>
      </trkpt>
      <trkpt lat="42.4041270" lon="-8.6323230">
        <ele>35.8</ele>
        <time>2021-05-21T11:07:13Z</time>
      </trkpt>
      <trkpt lat="42.4041320" lon="-8.6323230">
        <ele>35.8</ele>
        <time>2021-05-21T11:07:14Z</time>
      </trkpt>
      <trkpt lat="42.4041380" lon="-8.6323230">
        <ele>35.8</ele>
        <time>2021-05-21T11:07:15Z</time>
      </trkpt>
      <trkpt lat="42.4041440" lon="-8.6323220">
        <ele>35.8</ele>
        <time>2021-05-21T11:07:16Z</time>
      </trkpt>
      <trkpt lat="42.4041500" lon="-8.6323220">
        <ele>35.7</ele>
        <time>2021-05-21T11:07:17Z</time>
      </trkpt>
      <trkpt lat="42.4041800" lon="-8.6323280">
        <ele>35.6</ele>
        <time>2021-05-21T11:07:18Z</time>
      </trkpt>
      <trkpt lat="42.4041880" lon="-8.6323330">
        <ele>35.6</ele>
        <time>2021-05-21T11:07:19Z</time>
      </trkpt>
      <trkpt lat="42.4041950" lon="-8.6323430">
        <ele>35.6</ele>
        <time>2021-05-21T11:07:20Z</time>
      </trkpt>
      <trkpt lat="42.4042020" lon="-8.6323420">
        <ele>35.6</ele>
        <time>2021-05-21T11:07:21Z</time>
      </trkpt>
      <trkpt lat="42.4042160" lon="-8.6323450">
        <ele>35.5</ele>
        <time>2021-05-21T11:07:22Z</time>
      </trkpt>
      <trkpt lat="42.4042480" lon="-8.6323510">
        <ele>35.4</ele>
        <time>2021-05-21T11:07:23Z</time>
      </trkpt>
      <trkpt lat="42.4042560" lon="-8.6323490">
        <ele>35.4</ele>
        <time>2021-05-21T11:07:24Z</time>
      </trkpt>
      <trkpt lat="42.4042720" lon="-8.6323530">
        <ele>35.3</ele>
        <time>2021-05-21T11:07:25Z</time>
      </trkpt>
      <trkpt lat="42.4042890" lon="-8.6323570">
        <ele>35.3</ele>
        <time>2021-05-21T11:07:26Z</time>
      </trkpt>
      <trkpt lat="42.4043040" lon="-8.6323610">
        <ele>35.3</ele>
        <time>2021-05-21T11:07:27Z</time>
      </trkpt>
      <trkpt lat="42.4043210" lon="-8.6323640">
        <ele>35.2</ele>
        <time>2021-05-21T11:07:28Z</time>
      </trkpt>
      <trkpt lat="42.4043380" lon="-8.6323680">
        <ele>35.2</ele>
        <time>2021-05-21T11:07:29Z</time>
      </trkpt>
      <trkpt lat="42.4043540" lon="-8.6323740">
        <ele>35.1</ele>
        <time>2021-05-21T11:07:30Z</time>
      </trkpt>
      <trkpt lat="42.4043700" lon="-8.6323710">
        <ele>35.1</ele>
        <time>2021-05-21T11:07:31Z</time>
      </trkpt>
      <trkpt lat="42.4043850" lon="-8.6323740">
        <ele>35.1</ele>
        <time>2021-05-21T11:07:32Z</time>
      </trkpt>
      <trkpt lat="42.4044000" lon="-8.6323820">
        <ele>35.0</ele>
        <time>2021-05-21T11:07:33Z</time>
      </trkpt>
      <trkpt lat="42.4044160" lon="-8.6323950">
        <ele>35.0</ele>
        <time>2021-05-21T11:07:34Z</time>
      </trkpt>
      <trkpt lat="42.4044320" lon="-8.6323980">
        <ele>34.9</ele>
        <time>2021-05-21T11:07:35Z</time>
      </trkpt>
      <trkpt lat="42.4044490" lon="-8.6324000">
        <ele>34.9</ele>
        <time>2021-05-21T11:07:36Z</time>
      </trkpt>
      <trkpt lat="42.4044640" lon="-8.6324020">
        <ele>34.8</ele>
        <time>2021-05-21T11:07:37Z</time>
      </trkpt>
      <trkpt lat="42.4044820" lon="-8.6324000">
        <ele>34.8</ele>
        <time>2021-05-21T11:07:38Z</time>
      </trkpt>
      <trkpt lat="42.4044970" lon="-8.6324100">
        <ele>34.7</ele>
        <time>2021-05-21T11:07:39Z</time>
      </trkpt>
      <trkpt lat="42.4045130" lon="-8.6324050">
        <ele>34.6</ele>
        <time>2021-05-21T11:07:40Z</time>
      </trkpt>
      <trkpt lat="42.4045290" lon="-8.6324160">
        <ele>34.6</ele>
        <time>2021-05-21T11:07:41Z</time>
      </trkpt>
      <trkpt lat="42.4045430" lon="-8.6324160">
        <ele>34.5</ele>
        <time>2021-05-21T11:07:42Z</time>
      </trkpt>
      <trkpt lat="42.4045550" lon="-8.6324270">
        <ele>34.5</ele>
        <time>2021-05-21T11:07:43Z</time>
      </trkpt>
      <trkpt lat="42.4045700" lon="-8.6324340">
        <ele>34.4</ele>
        <time>2021-05-21T11:07:44Z</time>
      </trkpt>
      <trkpt lat="42.4045850" lon="-8.6324390">
        <ele>34.4</ele>
        <time>2021-05-21T11:07:45Z</time>
      </trkpt>
      <trkpt lat="42.4045980" lon="-8.6324410">
        <ele>34.3</ele>
        <time>2021-05-21T11:07:46Z</time>
      </trkpt>
      <trkpt lat="42.4046110" lon="-8.6324490">
        <ele>34.3</ele>
        <time>2021-05-21T11:07:47Z</time>
      </trkpt>
      <trkpt lat="42.4046240" lon="-8.6324500">
        <ele>34.2</ele>
        <time>2021-05-21T11:07:48Z</time>
      </trkpt>
      <trkpt lat="42.4046370" lon="-8.6324490">
        <ele>34.2</ele>
        <time>2021-05-21T11:07:49Z</time>
      </trkpt>
      <trkpt lat="42.4046510" lon="-8.6324410">
        <ele>34.1</ele>
        <time>2021-05-21T11:07:50Z</time>
      </trkpt>
      <trkpt lat="42.4046620" lon="-8.6324340">
        <ele>34.1</ele>
        <time>2021-05-21T11:07:51Z</time>
      </trkpt>
      <trkpt lat="42.4046730" lon="-8.6324380">
        <ele>34.1</ele>
        <time>2021-05-21T11:07:52Z</time>
      </trkpt>
      <trkpt lat="42.4046800" lon="-8.6324490">
        <ele>34.0</ele>
        <time>2021-05-21T11:07:53Z</time>
      </trkpt>
      <trkpt lat="42.4046830" lon="-8.6324540">
        <ele>34.0</ele>
        <time>2021-05-21T11:07:54Z</time>
      </trkpt>
      <trkpt lat="42.4046870" lon="-8.6324520">
        <ele>34.0</ele>
        <time>2021-05-21T11:07:55Z</time>
      </trkpt>
      <trkpt lat="42.4046980" lon="-8.6324500">
        <ele>34.0</ele>
        <time>2021-05-21T11:07:56Z</time>
      </trkpt>
      <trkpt lat="42.4047070" lon="-8.6324520">
        <ele>33.9</ele>
        <time>2021-05-21T11:07:57Z</time>
      </trkpt>
      <trkpt lat="42.4047200" lon="-8.6324540">
        <ele>33.9</ele>
        <time>2021-05-21T11:07:58Z</time>
      </trkpt>
      <trkpt lat="42.4047340" lon="-8.6324570">
        <ele>33.8</ele>
        <time>2021-05-21T11:07:59Z</time>
      </trkpt>
      <trkpt lat="42.4047460" lon="-8.6324540">
        <ele>33.8</ele>
        <time>2021-05-21T11:08:00Z</time>
      </trkpt>
      <trkpt lat="42.4047540" lon="-8.6324560">
        <ele>33.8</ele>
        <time>2021-05-21T11:08:01Z</time>
      </trkpt>
      <trkpt lat="42.4047630" lon="-8.6324590">
        <ele>33.7</ele>
        <time>2021-05-21T11:08:02Z</time>
      </trkpt>
      <trkpt lat="42.4047710" lon="-8.6324620">
        <ele>33.7</ele>
        <time>2021-05-21T11:08:03Z</time>
      </trkpt>
      <trkpt lat="42.4047840" lon="-8.6324650">
        <ele>33.7</ele>
        <time>2021-05-21T11:08:04Z</time>
      </trkpt>
      <trkpt lat="42.4047970" lon="-8.6324720">
        <ele>33.6</ele>
        <time>2021-05-21T11:08:05Z</time>
      </trkpt>
      <trkpt lat="42.4048100" lon="-8.6324750">
        <ele>33.6</ele>
        <time>2021-05-21T11:08:06Z</time>
      </trkpt>
      <trkpt lat="42.4048220" lon="-8.6324850">
        <ele>33.5</ele>
        <time>2021-05-21T11:08:07Z</time>
      </trkpt>
      <trkpt lat="42.4048540" lon="-8.6324850">
        <ele>33.4</ele>
        <time>2021-05-21T11:08:08Z</time>
      </trkpt>
      <trkpt lat="42.4048620" lon="-8.6324880">
        <ele>33.4</ele>
        <time>2021-05-21T11:08:09Z</time>
      </trkpt>
      <trkpt lat="42.4048710" lon="-8.6325000">
        <ele>33.3</ele>
        <time>2021-05-21T11:08:10Z</time>
      </trkpt>
      <trkpt lat="42.4048800" lon="-8.6325120">
        <ele>33.3</ele>
        <time>2021-05-21T11:08:11Z</time>
      </trkpt>
      <trkpt lat="42.4048880" lon="-8.6325180">
        <ele>33.3</ele>
        <time>2021-05-21T11:08:12Z</time>
      </trkpt>
      <trkpt lat="42.4049040" lon="-8.6325180">
        <ele>33.2</ele>
        <time>2021-05-21T11:08:13Z</time>
      </trkpt>
      <trkpt lat="42.4049180" lon="-8.6325310">
        <ele>33.1</ele>
        <time>2021-05-21T11:08:14Z</time>
      </trkpt>
      <trkpt lat="42.4049290" lon="-8.6325350">
        <ele>33.1</ele>
        <time>2021-05-21T11:08:15Z</time>
      </trkpt>
      <trkpt lat="42.4049470" lon="-8.6325410">
        <ele>33.0</ele>
        <time>2021-05-21T11:08:16Z</time>
      </trkpt>
      <trkpt lat="42.4049640" lon="-8.6325370">
        <ele>33.0</ele>
        <time>2021-05-21T11:08:17Z</time>
      </trkpt>
      <trkpt lat="42.4049680" lon="-8.6325360">
        <ele>33.0</ele>
        <time>2021-05-21T11:08:18Z</time>
      </trkpt>
      <trkpt lat="42.4049810" lon="-8.6325430">
        <ele>32.9</ele>
        <time>2021-05-21T11:08:19Z</time>
      </trkpt>
      <trkpt lat="42.4049890" lon="-8.6325450">
        <ele>32.9</ele>
        <time>2021-05-21T11:08:20Z</time>
      </trkpt>
      <trkpt lat="42.4049980" lon="-8.6325430">
        <ele>32.9</ele>
        <time>2021-05-21T11:08:21Z</time>
      </trkpt>
      <trkpt lat="42.4050090" lon="-8.6325460">
        <ele>32.8</ele>
        <time>2021-05-21T11:08:22Z</time>
      </trkpt>
      <trkpt lat="42.4050270" lon="-8.6325530">
        <ele>32.8</ele>
        <time>2021-05-21T11:08:23Z</time>
      </trkpt>
      <trkpt lat="42.4050410" lon="-8.6325560">
        <ele>32.7</ele>
        <time>2021-05-21T11:08:24Z</time>
      </trkpt>
      <trkpt lat="42.4050650" lon="-8.6325470">
        <ele>32.6</ele>
        <time>2021-05-21T11:08:25Z</time>
      </trkpt>
      <trkpt lat="42.4050740" lon="-8.6325500">
        <ele>32.6</ele>
        <time>2021-05-21T11:08:26Z</time>
      </trkpt>
      <trkpt lat="42.4050840" lon="-8.6325540">
        <ele>32.6</ele>
        <time>2021-05-21T11:08:27Z</time>
      </trkpt>
      <trkpt lat="42.4051060" lon="-8.6325590">
        <ele>32.5</ele>
        <time>2021-05-21T11:08:28Z</time>
      </trkpt>
      <trkpt lat="42.4051150" lon="-8.6325560">
        <ele>32.5</ele>
        <time>2021-05-21T11:08:29Z</time>
      </trkpt>
      <trkpt lat="42.4051240" lon="-8.6325520">
        <ele>32.4</ele>
        <time>2021-05-21T11:08:30Z</time>
      </trkpt>
      <trkpt lat="42.4051400" lon="-8.6325520">
        <ele>32.4</ele>
        <time>2021-05-21T11:08:31Z</time>
      </trkpt>
      <trkpt lat="42.4051480" lon="-8.6325540">
        <ele>32.4</ele>
        <time>2021-05-21T11:08:32Z</time>
      </trkpt>
      <trkpt lat="42.4051560" lon="-8.6325570">
        <ele>32.4</ele>
        <time>2021-05-21T11:08:33Z</time>
      </trkpt>
      <trkpt lat="42.4051640" lon="-8.6325590">
        <ele>32.3</ele>
        <time>2021-05-21T11:08:34Z</time>
      </trkpt>
      <trkpt lat="42.4051790" lon="-8.6325500">
        <ele>32.3</ele>
        <time>2021-05-21T11:08:35Z</time>
      </trkpt>
      <trkpt lat="42.4051870" lon="-8.6325490">
        <ele>32.3</ele>
        <time>2021-05-21T11:08:36Z</time>
      </trkpt>
      <trkpt lat="42.4051950" lon="-8.6325480">
        <ele>32.3</ele>
        <time>2021-05-21T11:08:37Z</time>
      </trkpt>
      <trkpt lat="42.4052030" lon="-8.6325470">
        <ele>32.3</ele>
        <time>2021-05-21T11:08:38Z</time>
      </trkpt>
      <trkpt lat="42.4052230" lon="-8.6325530">
        <ele>32.2</ele>
        <time>2021-05-21T11:08:39Z</time>
      </trkpt>
      <trkpt lat="42.4052350" lon="-8.6325500">
        <ele>32.2</ele>
        <time>2021-05-21T11:08:40Z</time>
      </trkpt>
      <trkpt lat="42.4052480" lon="-8.6325480">
        <ele>32.2</ele>
        <time>2021-05-21T11:08:41Z</time>
      </trkpt>
      <trkpt lat="42.4052590" lon="-8.6325490">
        <ele>32.1</ele>
        <time>2021-05-21T11:08:42Z</time>
      </trkpt>
      <trkpt lat="42.4052690" lon="-8.6325570">
        <ele>32.1</ele>
        <time>2021-05-21T11:08:43Z</time>
      </trkpt>
      <trkpt lat="42.4052830" lon="-8.6325650">
        <ele>32.1</ele>
        <time>2021-05-21T11:08:44Z</time>
      </trkpt>
      <trkpt lat="42.4052980" lon="-8.6325670">
        <ele>32.1</ele>
        <time>2021-05-21T11:08:45Z</time>
      </trkpt>
      <trkpt lat="42.4053150" lon="-8.6325630">
        <ele>32.0</ele>
        <time>2021-05-21T11:08:46Z</time>
      </trkpt>
      <trkpt lat="42.4053320" lon="-8.6325570">
        <ele>32.0</ele>
        <time>2021-05-21T11:08:47Z</time>
      </trkpt>
      <trkpt lat="42.4053510" lon="-8.6325520">
        <ele>32.0</ele>
        <time>2021-05-21T11:08:48Z</time>
      </trkpt>
      <trkpt lat="42.4053600" lon="-8.6325520">
        <ele>32.0</ele>
        <time>2021-05-21T11:08:49Z</time>
      </trkpt>
      <trkpt lat="42.4053680" lon="-8.6325510">
        <ele>32.0</ele>
        <time>2021-05-21T11:08:50Z</time>
      </trkpt>
      <trkpt lat="42.4053850" lon="-8.6325510">
        <ele>31.9</ele>
        <time>2021-05-21T11:08:51Z</time>
      </trkpt>
      <trkpt lat="42.4053960" lon="-8.6325580">
        <ele>31.9</ele>
        <time>2021-05-21T11:08:52Z</time>
      </trkpt>
      <trkpt lat="42.4054150" lon="-8.6325630">
        <ele>31.9</ele>
        <time>2021-05-21T11:08:53Z</time>
      </trkpt>
      <trkpt lat="42.4054260" lon="-8.6325650">
        <ele>31.9</ele>
        <time>2021-05-21T11:08:54Z</time>
      </trkpt>
      <trkpt lat="42.4054380" lon="-8.6325680">
        <ele>31.9</ele>
        <time>2021-05-21T11:08:55Z</time>
      </trkpt>
      <trkpt lat="42.4054520" lon="-8.6325640">
        <ele>31.8</ele>
        <time>2021-05-21T11:08:56Z</time>
      </trkpt>
      <trkpt lat="42.4054720" lon="-8.6325650">
        <ele>31.8</ele>
        <time>2021-05-21T11:08:57Z</time>
      </trkpt>
      <trkpt lat="42.4054840" lon="-8.6325670">
        <ele>31.8</ele>
        <time>2021-05-21T11:08:58Z</time>
      </trkpt>
      <trkpt lat="42.4055010" lon="-8.6325730">
        <ele>31.8</ele>
        <time>2021-05-21T11:08:59Z</time>
      </trkpt>
      <trkpt lat="42.4055170" lon="-8.6325660">
        <ele>31.7</ele>
        <time>2021-05-21T11:09:00Z</time>
      </trkpt>
      <trkpt lat="42.4055310" lon="-8.6325690">
        <ele>31.7</ele>
        <time>2021-05-21T11:09:01Z</time>
      </trkpt>
      <trkpt lat="42.4055430" lon="-8.6325800">
        <ele>31.7</ele>
        <time>2021-05-21T11:09:02Z</time>
      </trkpt>
      <trkpt lat="42.4055630" lon="-8.6325870">
        <ele>31.7</ele>
        <time>2021-05-21T11:09:03Z</time>
      </trkpt>
      <trkpt lat="42.4055780" lon="-8.6325910">
        <ele>31.7</ele>
        <time>2021-05-21T11:09:04Z</time>
      </trkpt>
      <trkpt lat="42.4055900" lon="-8.6325910">
        <ele>31.6</ele>
        <time>2021-05-21T11:09:05Z</time>
      </trkpt>
      <trkpt lat="42.4056100" lon="-8.6325810">
        <ele>31.6</ele>
        <time>2021-05-21T11:09:06Z</time>
      </trkpt>
      <trkpt lat="42.4056240" lon="-8.6325760">
        <ele>31.6</ele>
        <time>2021-05-21T11:09:07Z</time>
      </trkpt>
      <trkpt lat="42.4056410" lon="-8.6325860">
        <ele>31.6</ele>
        <time>2021-05-21T11:09:08Z</time>
      </trkpt>
      <trkpt lat="42.4056530" lon="-8.6325860">
        <ele>31.6</ele>
        <time>2021-05-21T11:09:09Z</time>
      </trkpt>
      <trkpt lat="42.4056690" lon="-8.6325940">
        <ele>31.5</ele>
        <time>2021-05-21T11:09:10Z</time>
      </trkpt>
      <trkpt lat="42.4056840" lon="-8.6326020">
        <ele>31.5</ele>
        <time>2021-05-21T11:09:11Z</time>
      </trkpt>
      <trkpt lat="42.4056950" lon="-8.6326040">
        <ele>31.5</ele>
        <time>2021-05-21T11:09:12Z</time>
      </trkpt>
      <trkpt lat="42.4056990" lon="-8.6326050">
        <ele>31.5</ele>
        <time>2021-05-21T11:09:13Z</time>
      </trkpt>
      <trkpt lat="42.4057130" lon="-8.6326110">
        <ele>31.5</ele>
        <time>2021-05-21T11:09:14Z</time>
      </trkpt>
      <trkpt lat="42.4057280" lon="-8.6326150">
        <ele>31.5</ele>
        <time>2021-05-21T11:09:15Z</time>
      </trkpt>
      <trkpt lat="42.4057400" lon="-8.6326180">
        <ele>31.4</ele>
        <time>2021-05-21T11:09:16Z</time>
      </trkpt>
      <trkpt lat="42.4057640" lon="-8.6326190">
        <ele>31.4</ele>
        <time>2021-05-21T11:09:17Z</time>
      </trkpt>
      <trkpt lat="42.4057730" lon="-8.6326180">
        <ele>31.4</ele>
        <time>2021-05-21T11:09:18Z</time>
      </trkpt>
      <trkpt lat="42.4057810" lon="-8.6326160">
        <ele>31.4</ele>
        <time>2021-05-21T11:09:19Z</time>
      </trkpt>
      <trkpt lat="42.4057960" lon="-8.6326290">
        <ele>31.4</ele>
        <time>2021-05-21T11:09:20Z</time>
      </trkpt>
      <trkpt lat="42.4058080" lon="-8.6326310">
        <ele>31.4</ele>
        <time>2021-05-21T11:09:21Z</time>
      </trkpt>
      <trkpt lat="42.4058240" lon="-8.6326310">
        <ele>31.3</ele>
        <time>2021-05-21T11:09:22Z</time>
      </trkpt>
      <trkpt lat="42.4058410" lon="-8.6326340">
        <ele>31.3</ele>
        <time>2021-05-21T11:09:23Z</time>
      </trkpt>
      <trkpt lat="42.4058550" lon="-8.6326370">
        <ele>31.3</ele>
        <time>2021-05-21T11:09:24Z</time>
      </trkpt>
      <trkpt lat="42.4058690" lon="-8.6326470">
        <ele>31.3</ele>
        <time>2021-05-21T11:09:25Z</time>
      </trkpt>
      <trkpt lat="42.4058830" lon="-8.6326490">
        <ele>31.3</ele>
        <time>2021-05-21T11:09:26Z</time>
      </trkpt>
      <trkpt lat="42.4059000" lon="-8.6326490">
        <ele>31.3</ele>
        <time>2021-05-21T11:09:27Z</time>
      </trkpt>
      <trkpt lat="42.4059180" lon="-8.6326530">
        <ele>31.2</ele>
        <time>2021-05-21T11:09:28Z</time>
      </trkpt>
      <trkpt lat="42.4059330" lon="-8.6326590">
        <ele>31.2</ele>
        <time>2021-05-21T11:09:29Z</time>
      </trkpt>
      <trkpt lat="42.4059470" lon="-8.6326600">
        <ele>31.2</ele>
        <time>2021-05-21T11:09:30Z</time>
      </trkpt>
      <trkpt lat="42.4059620" lon="-8.6326620">
        <ele>31.2</ele>
        <time>2021-05-21T11:09:31Z</time>
      </trkpt>
      <trkpt lat="42.4059770" lon="-8.6326670">
        <ele>31.2</ele>
        <time>2021-05-21T11:09:32Z</time>
      </trkpt>
      <trkpt lat="42.4059940" lon="-8.6326700">
        <ele>31.2</ele>
        <time>2021-05-21T11:09:33Z</time>
      </trkpt>
      <trkpt lat="42.4060070" lon="-8.6326750">
        <ele>31.2</ele>
        <time>2021-05-21T11:09:34Z</time>
      </trkpt>
      <trkpt lat="42.4060220" lon="-8.6326830">
        <ele>31.1</ele>
        <time>2021-05-21T11:09:35Z</time>
      </trkpt>
      <trkpt lat="42.4060380" lon="-8.6326830">
        <ele>31.1</ele>
        <time>2021-05-21T11:09:36Z</time>
      </trkpt>
      <trkpt lat="42.4060510" lon="-8.6326900">
        <ele>31.1</ele>
        <time>2021-05-21T11:09:37Z</time>
      </trkpt>
      <trkpt lat="42.4060640" lon="-8.6326990">
        <ele>31.1</ele>
        <time>2021-05-21T11:09:38Z</time>
      </trkpt>
      <trkpt lat="42.4060770" lon="-8.6327050">
        <ele>31.1</ele>
        <time>2021-05-21T11:09:39Z</time>
      </trkpt>
      <trkpt lat="42.4060920" lon="-8.6327090">
        <ele>31.1</ele>
        <time>2021-05-21T11:09:40Z</time>
      </trkpt>
      <trkpt lat="42.4061070" lon="-8.6327060">
        <ele>31.1</ele>
        <time>2021-05-21T11:09:41Z</time>
      </trkpt>
      <trkpt lat="42.4061220" lon="-8.6327060">
        <ele>31.1</ele>
        <time>2021-05-21T11:09:42Z</time>
      </trkpt>
      <trkpt lat="42.4061340" lon="-8.6327110">
        <ele>31.0</ele>
        <time>2021-05-21T11:09:43Z</time>
      </trkpt>
      <trkpt lat="42.4061480" lon="-8.6327170">
        <ele>31.0</ele>
        <time>2021-05-21T11:09:44Z</time>
      </trkpt>
      <trkpt lat="42.4061630" lon="-8.6327240">
        <ele>31.0</ele>
        <time>2021-05-21T11:09:45Z</time>
      </trkpt>
      <trkpt lat="42.4061760" lon="-8.6327300">
        <ele>31.0</ele>
        <time>2021-05-21T11:09:46Z</time>
      </trkpt>
      <trkpt lat="42.4061880" lon="-8.6327420">
        <ele>31.0</ele>
        <time>2021-05-21T11:09:47Z</time>
      </trkpt>
      <trkpt lat="42.4062020" lon="-8.6327500">
        <ele>31.0</ele>
        <time>2021-05-21T11:09:48Z</time>
      </trkpt>
      <trkpt lat="42.4062120" lon="-8.6327600">
        <ele>30.9</ele>
        <time>2021-05-21T11:09:49Z</time>
      </trkpt>
      <trkpt lat="42.4062190" lon="-8.6327650">
        <ele>30.9</ele>
        <time>2021-05-21T11:09:50Z</time>
      </trkpt>
      <trkpt lat="42.4062320" lon="-8.6327670">
        <ele>30.9</ele>
        <time>2021-05-21T11:09:51Z</time>
      </trkpt>
      <trkpt lat="42.4062480" lon="-8.6327750">
        <ele>30.9</ele>
        <time>2021-05-21T11:09:52Z</time>
      </trkpt>
      <trkpt lat="42.4062620" lon="-8.6327760">
        <ele>30.9</ele>
        <time>2021-05-21T11:09:53Z</time>
      </trkpt>
      <trkpt lat="42.4062730" lon="-8.6327840">
        <ele>30.8</ele>
        <time>2021-05-21T11:09:54Z</time>
      </trkpt>
      <trkpt lat="42.4062810" lon="-8.6327900">
        <ele>30.8</ele>
        <time>2021-05-21T11:09:55Z</time>
      </trkpt>
      <trkpt lat="42.4062940" lon="-8.6327950">
        <ele>30.8</ele>
        <time>2021-05-21T11:09:56Z</time>
      </trkpt>
      <trkpt lat="42.4063090" lon="-8.6328000">
        <ele>30.8</ele>
        <time>2021-05-21T11:09:57Z</time>
      </trkpt>
      <trkpt lat="42.4063170" lon="-8.6328090">
        <ele>30.8</ele>
        <time>2021-05-21T11:09:58Z</time>
      </trkpt>
      <trkpt lat="42.4063250" lon="-8.6328130">
        <ele>30.8</ele>
        <time>2021-05-21T11:09:59Z</time>
      </trkpt>
      <trkpt lat="42.4063340" lon="-8.6328190">
        <ele>30.8</ele>
        <time>2021-05-21T11:10:00Z</time>
      </trkpt>
      <trkpt lat="42.4063490" lon="-8.6328240">
        <ele>30.7</ele>
        <time>2021-05-21T11:10:01Z</time>
      </trkpt>
      <trkpt lat="42.4063630" lon="-8.6328310">
        <ele>30.7</ele>
        <time>2021-05-21T11:10:02Z</time>
      </trkpt>
      <trkpt lat="42.4063730" lon="-8.6328410">
        <ele>30.7</ele>
        <time>2021-05-21T11:10:03Z</time>
      </trkpt>
      <trkpt lat="42.4063800" lon="-8.6328490">
        <ele>30.7</ele>
        <time>2021-05-21T11:10:04Z</time>
      </trkpt>
      <trkpt lat="42.4063920" lon="-8.6328540">
        <ele>30.7</ele>
        <time>2021-05-21T11:10:05Z</time>
      </trkpt>
      <trkpt lat="42.4063990" lon="-8.6328610">
        <ele>30.6</ele>
        <time>2021-05-21T11:10:06Z</time>
      </trkpt>
      <trkpt lat="42.4064110" lon="-8.6328660">
        <ele>30.6</ele>
        <time>2021-05-21T11:10:07Z</time>
      </trkpt>
      <trkpt lat="42.4064240" lon="-8.6328750">
        <ele>30.6</ele>
        <time>2021-05-21T11:10:08Z</time>
      </trkpt>
      <trkpt lat="42.4064440" lon="-8.6328830">
        <ele>30.6</ele>
        <time>2021-05-21T11:10:09Z</time>
      </trkpt>
      <trkpt lat="42.4064520" lon="-8.6328870">
        <ele>30.6</ele>
        <time>2021-05-21T11:10:10Z</time>
      </trkpt>
      <trkpt lat="42.4064610" lon="-8.6328920">
        <ele>30.5</ele>
        <time>2021-05-21T11:10:11Z</time>
      </trkpt>
      <trkpt lat="42.4064740" lon="-8.6328960">
        <ele>30.5</ele>
        <time>2021-05-21T11:10:12Z</time>
      </trkpt>
      <trkpt lat="42.4064840" lon="-8.6328980">
        <ele>30.5</ele>
        <time>2021-05-21T11:10:13Z</time>
      </trkpt>
      <trkpt lat="42.4064940" lon="-8.6329050">
        <ele>30.5</ele>
        <time>2021-05-21T11:10:14Z</time>
      </trkpt>
      <trkpt lat="42.4065120" lon="-8.6329150">
        <ele>30.5</ele>
        <time>2021-05-21T11:10:15Z</time>
      </trkpt>
      <trkpt lat="42.4065210" lon="-8.6329190">
        <ele>30.5</ele>
        <time>2021-05-21T11:10:16Z</time>
      </trkpt>
      <trkpt lat="42.4065300" lon="-8.6329240">
        <ele>30.4</ele>
        <time>2021-05-21T11:10:17Z</time>
      </trkpt>
      <trkpt lat="42.4065480" lon="-8.6329260">
        <ele>30.4</ele>
        <time>2021-05-21T11:10:18Z</time>
      </trkpt>
      <trkpt lat="42.4065470" lon="-8.6329370">
        <ele>30.4</ele>
        <time>2021-05-21T11:10:19Z</time>
      </trkpt>
      <trkpt lat="42.4065590" lon="-8.6329480">
        <ele>30.4</ele>
        <time>2021-05-21T11:10:20Z</time>
      </trkpt>
      <trkpt lat="42.4065710" lon="-8.6329570">
        <ele>30.4</ele>
        <time>2021-05-21T11:10:21Z</time>
      </trkpt>
      <trkpt lat="42.4065760" lon="-8.6329630">
        <ele>30.4</ele>
        <time>2021-05-21T11:10:22Z</time>
      </trkpt>
      <trkpt lat="42.4065800" lon="-8.6329680">
        <ele>30.4</ele>
        <time>2021-05-21T11:10:23Z</time>
      </trkpt>
      <trkpt lat="42.4065850" lon="-8.6329740">
        <ele>30.4</ele>
        <time>2021-05-21T11:10:24Z</time>
      </trkpt>
      <trkpt lat="42.4065900" lon="-8.6329800">
        <ele>30.4</ele>
        <time>2021-05-21T11:10:25Z</time>
      </trkpt>
      <trkpt lat="42.4066000" lon="-8.6329800">
        <ele>30.3</ele>
        <time>2021-05-21T11:10:26Z</time>
      </trkpt>
      <trkpt lat="42.4066110" lon="-8.6329840">
        <ele>30.3</ele>
        <time>2021-05-21T11:10:27Z</time>
      </trkpt>
      <trkpt lat="42.4066200" lon="-8.6329920">
        <ele>30.3</ele>
        <time>2021-05-21T11:10:28Z</time>
      </trkpt>
      <trkpt lat="42.4066330" lon="-8.6329910">
        <ele>30.3</ele>
        <time>2021-05-21T11:10:29Z</time>
      </trkpt>
      <trkpt lat="42.4066440" lon="-8.6329930">
        <ele>30.3</ele>
        <time>2021-05-21T11:10:30Z</time>
      </trkpt>
      <trkpt lat="42.4066550" lon="-8.6329980">
        <ele>30.3</ele>
        <time>2021-05-21T11:10:31Z</time>
      </trkpt>
      <trkpt lat="42.4066760" lon="-8.6330030">
        <ele>30.3</ele>
        <time>2021-05-21T11:10:32Z</time>
      </trkpt>
      <trkpt lat="42.4066860" lon="-8.6330080">
        <ele>30.3</ele>
        <time>2021-05-21T11:10:33Z</time>
      </trkpt>
      <trkpt lat="42.4066960" lon="-8.6330130">
        <ele>30.2</ele>
        <time>2021-05-21T11:10:34Z</time>
      </trkpt>
      <trkpt lat="42.4067060" lon="-8.6330150">
        <ele>30.2</ele>
        <time>2021-05-21T11:10:35Z</time>
      </trkpt>
      <trkpt lat="42.4067170" lon="-8.6330210">
        <ele>30.2</ele>
        <time>2021-05-21T11:10:36Z</time>
      </trkpt>
      <trkpt lat="42.4067270" lon="-8.6330310">
        <ele>30.2</ele>
        <time>2021-05-21T11:10:37Z</time>
      </trkpt>
      <trkpt lat="42.4067380" lon="-8.6330400">
        <ele>30.2</ele>
        <time>2021-05-21T11:10:38Z</time>
      </trkpt>
      <trkpt lat="42.4067460" lon="-8.6330470">
        <ele>30.2</ele>
        <time>2021-05-21T11:10:39Z</time>
      </trkpt>
      <trkpt lat="42.4067570" lon="-8.6330490">
        <ele>30.2</ele>
        <time>2021-05-21T11:10:40Z</time>
      </trkpt>
      <trkpt lat="42.4067660" lon="-8.6330540">
        <ele>30.2</ele>
        <time>2021-05-21T11:10:41Z</time>
      </trkpt>
      <trkpt lat="42.4067760" lon="-8.6330580">
        <ele>30.2</ele>
        <time>2021-05-21T11:10:42Z</time>
      </trkpt>
      <trkpt lat="42.4067900" lon="-8.6330620">
        <ele>30.2</ele>
        <time>2021-05-21T11:10:43Z</time>
      </trkpt>
      <trkpt lat="42.4068050" lon="-8.6330650">
        <ele>30.2</ele>
        <time>2021-05-21T11:10:44Z</time>
      </trkpt>
      <trkpt lat="42.4068220" lon="-8.6330730">
        <ele>30.2</ele>
        <time>2021-05-21T11:10:45Z</time>
      </trkpt>
      <trkpt lat="42.4068380" lon="-8.6330750">
        <ele>30.2</ele>
        <time>2021-05-21T11:10:46Z</time>
      </trkpt>
      <trkpt lat="42.4068500" lon="-8.6330860">
        <ele>30.2</ele>
        <time>2021-05-21T11:10:47Z</time>
      </trkpt>
      <trkpt lat="42.4068640" lon="-8.6330960">
        <ele>30.1</ele>
        <time>2021-05-21T11:10:48Z</time>
      </trkpt>
      <trkpt lat="42.4068770" lon="-8.6330950">
        <ele>30.1</ele>
        <time>2021-05-21T11:10:49Z</time>
      </trkpt>
      <trkpt lat="42.4068910" lon="-8.6331010">
        <ele>30.1</ele>
        <time>2021-05-21T11:10:50Z</time>
      </trkpt>
      <trkpt lat="42.4069050" lon="-8.6331090">
        <ele>30.1</ele>
        <time>2021-05-21T11:10:51Z</time>
      </trkpt>
      <trkpt lat="42.4069200" lon="-8.6331120">
        <ele>30.1</ele>
        <time>2021-05-21T11:10:52Z</time>
      </trkpt>
      <trkpt lat="42.4069310" lon="-8.6331190">
        <ele>30.1</ele>
        <time>2021-05-21T11:10:53Z</time>
      </trkpt>
      <trkpt lat="42.4069400" lon="-8.6331250">
        <ele>30.1</ele>
        <time>2021-05-21T11:10:54Z</time>
      </trkpt>
      <trkpt lat="42.4069480" lon="-8.6331260">
        <ele>30.1</ele>
        <time>2021-05-21T11:10:55Z</time>
      </trkpt>
      <trkpt lat="42.4069610" lon="-8.6331290">
        <ele>30.1</ele>
        <time>2021-05-21T11:10:56Z</time>
      </trkpt>
      <trkpt lat="42.4069720" lon="-8.6331330">
        <ele>30.1</ele>
        <time>2021-05-21T11:10:57Z</time>
      </trkpt>
      <trkpt lat="42.4069850" lon="-8.6331370">
        <ele>30.1</ele>
        <time>2021-05-21T11:10:58Z</time>
      </trkpt>
      <trkpt lat="42.4069930" lon="-8.6331370">
        <ele>30.1</ele>
        <time>2021-05-21T11:10:59Z</time>
      </trkpt>
      <trkpt lat="42.4070110" lon="-8.6331490">
        <ele>30.1</ele>
        <time>2021-05-21T11:11:00Z</time>
      </trkpt>
      <trkpt lat="42.4070190" lon="-8.6331530">
        <ele>30.1</ele>
        <time>2021-05-21T11:11:01Z</time>
      </trkpt>
      <trkpt lat="42.4070260" lon="-8.6331580">
        <ele>30.1</ele>
        <time>2021-05-21T11:11:02Z</time>
      </trkpt>
      <trkpt lat="42.4070370" lon="-8.6331660">
        <ele>30.1</ele>
        <time>2021-05-21T11:11:03Z</time>
      </trkpt>
      <trkpt lat="42.4070550" lon="-8.6331750">
        <ele>30.1</ele>
        <time>2021-05-21T11:11:04Z</time>
      </trkpt>
      <trkpt lat="42.4070710" lon="-8.6331690">
        <ele>30.1</ele>
        <time>2021-05-21T11:11:05Z</time>
      </trkpt>
      <trkpt lat="42.4070850" lon="-8.6331770">
        <ele>30.0</ele>
        <time>2021-05-21T11:11:06Z</time>
      </trkpt>
      <trkpt lat="42.4071000" lon="-8.6331810">
        <ele>30.0</ele>
        <time>2021-05-21T11:11:07Z</time>
      </trkpt>
      <trkpt lat="42.4071130" lon="-8.6331840">
        <ele>30.0</ele>
        <time>2021-05-21T11:11:08Z</time>
      </trkpt>
      <trkpt lat="42.4071270" lon="-8.6331910">
        <ele>30.0</ele>
        <time>2021-05-21T11:11:09Z</time>
      </trkpt>
      <trkpt lat="42.4071400" lon="-8.6332000">
        <ele>30.0</ele>
        <time>2021-05-21T11:11:10Z</time>
      </trkpt>
      <trkpt lat="42.4071500" lon="-8.6332020">
        <ele>30.0</ele>
        <time>2021-05-21T11:11:11Z</time>
      </trkpt>
      <trkpt lat="42.4071620" lon="-8.6332080">
        <ele>30.1</ele>
        <time>2021-05-21T11:11:12Z</time>
      </trkpt>
      <trkpt lat="42.4071730" lon="-8.6332090">
        <ele>30.1</ele>
        <time>2021-05-21T11:11:13Z</time>
      </trkpt>
      <trkpt lat="42.4071910" lon="-8.6332120">
        <ele>30.1</ele>
        <time>2021-05-21T11:11:14Z</time>
      </trkpt>
      <trkpt lat="42.4072010" lon="-8.6332190">
        <ele>30.1</ele>
        <time>2021-05-21T11:11:15Z</time>
      </trkpt>
      <trkpt lat="42.4072050" lon="-8.6332220">
        <ele>30.1</ele>
        <time>2021-05-21T11:11:16Z</time>
      </trkpt>
      <trkpt lat="42.4072170" lon="-8.6332270">
        <ele>30.1</ele>
        <time>2021-05-21T11:11:17Z</time>
      </trkpt>
      <trkpt lat="42.4072270" lon="-8.6332300">
        <ele>30.1</ele>
        <time>2021-05-21T11:11:18Z</time>
      </trkpt>
      <trkpt lat="42.4072510" lon="-8.6332360">
        <ele>30.1</ele>
        <time>2021-05-21T11:11:19Z</time>
      </trkpt>
      <trkpt lat="42.4072600" lon="-8.6332390">
        <ele>30.1</ele>
        <time>2021-05-21T11:11:20Z</time>
      </trkpt>
      <trkpt lat="42.4072680" lon="-8.6332420">
        <ele>30.1</ele>
        <time>2021-05-21T11:11:21Z</time>
      </trkpt>
      <trkpt lat="42.4072840" lon="-8.6332450">
        <ele>30.1</ele>
        <time>2021-05-21T11:11:22Z</time>
      </trkpt>
      <trkpt lat="42.4072910" lon="-8.6332490">
        <ele>30.1</ele>
        <time>2021-05-21T11:11:23Z</time>
      </trkpt>
      <trkpt lat="42.4072980" lon="-8.6332550">
        <ele>30.1</ele>
        <time>2021-05-21T11:11:24Z</time>
      </trkpt>
      <trkpt lat="42.4073130" lon="-8.6332530">
        <ele>30.1</ele>
        <time>2021-05-21T11:11:25Z</time>
      </trkpt>
      <trkpt lat="42.4073310" lon="-8.6332580">
        <ele>30.1</ele>
        <time>2021-05-21T11:11:26Z</time>
      </trkpt>
      <trkpt lat="42.4073390" lon="-8.6332590">
        <ele>30.1</ele>
        <time>2021-05-21T11:11:27Z</time>
      </trkpt>
      <trkpt lat="42.4073530" lon="-8.6332590">
        <ele>30.1</ele>
        <time>2021-05-21T11:11:28Z</time>
      </trkpt>
      <trkpt lat="42.4073610" lon="-8.6332520">
        <ele>30.1</ele>
        <time>2021-05-21T11:11:29Z</time>
      </trkpt>
      <trkpt lat="42.4073680" lon="-8.6332480">
        <ele>30.1</ele>
        <time>2021-05-21T11:11:30Z</time>
      </trkpt>
      <trkpt lat="42.4073820" lon="-8.6332430">
        <ele>30.1</ele>
        <time>2021-05-21T11:11:31Z</time>
      </trkpt>
      <trkpt lat="42.4073960" lon="-8.6332400">
        <ele>30.1</ele>
        <time>2021-05-21T11:11:32Z</time>
      </trkpt>
      <trkpt lat="42.4074090" lon="-8.6332360">
        <ele>30.1</ele>
        <time>2021-05-21T11:11:33Z</time>
      </trkpt>
      <trkpt lat="42.4074210" lon="-8.6332380">
        <ele>30.1</ele>
        <time>2021-05-21T11:11:34Z</time>
      </trkpt>
      <trkpt lat="42.4074260" lon="-8.6332370">
        <ele>30.1</ele>
        <time>2021-05-21T11:11:35Z</time>
      </trkpt>
      <trkpt lat="42.4074430" lon="-8.6332400">
        <ele>30.1</ele>
        <time>2021-05-21T11:11:36Z</time>
      </trkpt>
      <trkpt lat="42.4074620" lon="-8.6332410">
        <ele>30.2</ele>
        <time>2021-05-21T11:11:37Z</time>
      </trkpt>
      <trkpt lat="42.4074790" lon="-8.6332380">
        <ele>30.2</ele>
        <time>2021-05-21T11:11:38Z</time>
      </trkpt>
      <trkpt lat="42.4074960" lon="-8.6332340">
        <ele>30.2</ele>
        <time>2021-05-21T11:11:39Z</time>
      </trkpt>
      <trkpt lat="42.4075120" lon="-8.6332280">
        <ele>30.2</ele>
        <time>2021-05-21T11:11:40Z</time>
      </trkpt>
      <trkpt lat="42.4075290" lon="-8.6332220">
        <ele>30.2</ele>
        <time>2021-05-21T11:11:41Z</time>
      </trkpt>
      <trkpt lat="42.4075460" lon="-8.6332220">
        <ele>30.2</ele>
        <time>2021-05-21T11:11:42Z</time>
      </trkpt>
      <trkpt lat="42.4075620" lon="-8.6332250">
        <ele>30.2</ele>
        <time>2021-05-21T11:11:43Z</time>
      </trkpt>
      <trkpt lat="42.4075790" lon="-8.6332220">
        <ele>30.2</ele>
        <time>2021-05-21T11:11:44Z</time>
      </trkpt>
      <trkpt lat="42.4075920" lon="-8.6332310">
        <ele>30.2</ele>
        <time>2021-05-21T11:11:45Z</time>
      </trkpt>
      <trkpt lat="42.4075980" lon="-8.6332270">
        <ele>30.2</ele>
        <time>2021-05-21T11:11:46Z</time>
      </trkpt>
      <trkpt lat="42.4076110" lon="-8.6332200">
        <ele>30.2</ele>
        <time>2021-05-21T11:11:47Z</time>
      </trkpt>
      <trkpt lat="42.4076210" lon="-8.6332200">
        <ele>30.2</ele>
        <time>2021-05-21T11:11:48Z</time>
      </trkpt>
      <trkpt lat="42.4076400" lon="-8.6332240">
        <ele>30.2</ele>
        <time>2021-05-21T11:11:49Z</time>
      </trkpt>
      <trkpt lat="42.4076500" lon="-8.6332270">
        <ele>30.2</ele>
        <time>2021-05-21T11:11:50Z</time>
      </trkpt>
      <trkpt lat="42.4076600" lon="-8.6332290">
        <ele>30.2</ele>
        <time>2021-05-21T11:11:51Z</time>
      </trkpt>
      <trkpt lat="42.4076800" lon="-8.6332410">
        <ele>30.2</ele>
        <time>2021-05-21T11:11:52Z</time>
      </trkpt>
      <trkpt lat="42.4076890" lon="-8.6332460">
        <ele>30.2</ele>
        <time>2021-05-21T11:11:53Z</time>
      </trkpt>
      <trkpt lat="42.4076970" lon="-8.6332500">
        <ele>30.2</ele>
        <time>2021-05-21T11:11:54Z</time>
      </trkpt>
      <trkpt lat="42.4077010" lon="-8.6332490">
        <ele>30.2</ele>
        <time>2021-05-21T11:11:55Z</time>
      </trkpt>
      <trkpt lat="42.4077160" lon="-8.6332510">
        <ele>30.2</ele>
        <time>2021-05-21T11:11:56Z</time>
      </trkpt>
      <trkpt lat="42.4077320" lon="-8.6332570">
        <ele>30.3</ele>
        <time>2021-05-21T11:11:57Z</time>
      </trkpt>
      <trkpt lat="42.4077500" lon="-8.6332580">
        <ele>30.3</ele>
        <time>2021-05-21T11:11:58Z</time>
      </trkpt>
      <trkpt lat="42.4077660" lon="-8.6332620">
        <ele>30.3</ele>
        <time>2021-05-21T11:11:59Z</time>
      </trkpt>
      <trkpt lat="42.4077840" lon="-8.6332710">
        <ele>30.3</ele>
        <time>2021-05-21T11:12:00Z</time>
      </trkpt>
      <trkpt lat="42.4078010" lon="-8.6332780">
        <ele>30.3</ele>
        <time>2021-05-21T11:12:01Z</time>
      </trkpt>
      <trkpt lat="42.4078180" lon="-8.6332790">
        <ele>30.3</ele>
        <time>2021-05-21T11:12:02Z</time>
      </trkpt>
      <trkpt lat="42.4078310" lon="-8.6332850">
        <ele>30.3</ele>
        <time>2021-05-21T11:12:03Z</time>
      </trkpt>
      <trkpt lat="42.4078480" lon="-8.6332900">
        <ele>30.3</ele>
        <time>2021-05-21T11:12:04Z</time>
      </trkpt>
      <trkpt lat="42.4078650" lon="-8.6332990">
        <ele>30.3</ele>
        <time>2021-05-21T11:12:05Z</time>
      </trkpt>
      <trkpt lat="42.4078810" lon="-8.6333020">
        <ele>30.3</ele>
        <time>2021-05-21T11:12:06Z</time>
      </trkpt>
      <trkpt lat="42.4078940" lon="-8.6332970">
        <ele>30.4</ele>
        <time>2021-05-21T11:12:07Z</time>
      </trkpt>
      <trkpt lat="42.4079010" lon="-8.6332960">
        <ele>30.4</ele>
        <time>2021-05-21T11:12:08Z</time>
      </trkpt>
      <trkpt lat="42.4079050" lon="-8.6332930">
        <ele>30.4</ele>
        <time>2021-05-21T11:12:09Z</time>
      </trkpt>
      <trkpt lat="42.4078990" lon="-8.6332920">
        <ele>30.4</ele>
        <time>2021-05-21T11:12:10Z</time>
      </trkpt>
      <trkpt lat="42.4079170" lon="-8.6332970">
        <ele>30.4</ele>
        <time>2021-05-21T11:12:11Z</time>
      </trkpt>
      <trkpt lat="42.4079300" lon="-8.6333020">
        <ele>30.4</ele>
        <time>2021-05-21T11:12:12Z</time>
      </trkpt>
      <trkpt lat="42.4079450" lon="-8.6332920">
        <ele>30.4</ele>
        <time>2021-05-21T11:12:13Z</time>
      </trkpt>
      <trkpt lat="42.4079540" lon="-8.6333030">
        <ele>30.4</ele>
        <time>2021-05-21T11:12:14Z</time>
      </trkpt>
      <trkpt lat="42.4079620" lon="-8.6333060">
        <ele>30.4</ele>
        <time>2021-05-21T11:12:15Z</time>
      </trkpt>
      <trkpt lat="42.4079830" lon="-8.6333110">
        <ele>30.5</ele>
        <time>2021-05-21T11:12:16Z</time>
      </trkpt>
      <trkpt lat="42.4079960" lon="-8.6333080">
        <ele>30.5</ele>
        <time>2021-05-21T11:12:17Z</time>
      </trkpt>
      <trkpt lat="42.4080060" lon="-8.6333020">
        <ele>30.5</ele>
        <time>2021-05-21T11:12:18Z</time>
      </trkpt>
      <trkpt lat="42.4080230" lon="-8.6333090">
        <ele>30.5</ele>
        <time>2021-05-21T11:12:19Z</time>
      </trkpt>
      <trkpt lat="42.4080370" lon="-8.6333180">
        <ele>30.5</ele>
        <time>2021-05-21T11:12:20Z</time>
      </trkpt>
      <trkpt lat="42.4080540" lon="-8.6333200">
        <ele>30.5</ele>
        <time>2021-05-21T11:12:21Z</time>
      </trkpt>
      <trkpt lat="42.4080680" lon="-8.6333260">
        <ele>30.6</ele>
        <time>2021-05-21T11:12:22Z</time>
      </trkpt>
      <trkpt lat="42.4080810" lon="-8.6333340">
        <ele>30.6</ele>
        <time>2021-05-21T11:12:23Z</time>
      </trkpt>
      <trkpt lat="42.4080960" lon="-8.6333450">
        <ele>30.6</ele>
        <time>2021-05-21T11:12:24Z</time>
      </trkpt>
      <trkpt lat="42.4081040" lon="-8.6333530">
        <ele>30.6</ele>
        <time>2021-05-21T11:12:25Z</time>
      </trkpt>
      <trkpt lat="42.4081130" lon="-8.6333620">
        <ele>30.6</ele>
        <time>2021-05-21T11:12:26Z</time>
      </trkpt>
      <trkpt lat="42.4081250" lon="-8.6333610">
        <ele>30.6</ele>
        <time>2021-05-21T11:12:27Z</time>
      </trkpt>
      <trkpt lat="42.4081410" lon="-8.6333660">
        <ele>30.7</ele>
        <time>2021-05-21T11:12:28Z</time>
      </trkpt>
      <trkpt lat="42.4081580" lon="-8.6333770">
        <ele>30.7</ele>
        <time>2021-05-21T11:12:29Z</time>
      </trkpt>
      <trkpt lat="42.4081710" lon="-8.6333740">
        <ele>30.7</ele>
        <time>2021-05-21T11:12:30Z</time>
      </trkpt>
      <trkpt lat="42.4081830" lon="-8.6333850">
        <ele>30.7</ele>
        <time>2021-05-21T11:12:31Z</time>
      </trkpt>
      <trkpt lat="42.4082000" lon="-8.6333900">
        <ele>30.7</ele>
        <time>2021-05-21T11:12:32Z</time>
      </trkpt>
      <trkpt lat="42.4082190" lon="-8.6333940">
        <ele>30.8</ele>
        <time>2021-05-21T11:12:33Z</time>
      </trkpt>
      <trkpt lat="42.4082330" lon="-8.6334030">
        <ele>30.8</ele>
        <time>2021-05-21T11:12:34Z</time>
      </trkpt>
      <trkpt lat="42.4082530" lon="-8.6334110">
        <ele>30.8</ele>
        <time>2021-05-21T11:12:35Z</time>
      </trkpt>
      <trkpt lat="42.4082620" lon="-8.6334190">
        <ele>30.8</ele>
        <time>2021-05-21T11:12:36Z</time>
      </trkpt>
      <trkpt lat="42.4082810" lon="-8.6334180">
        <ele>30.9</ele>
        <time>2021-05-21T11:12:37Z</time>
      </trkpt>
      <trkpt lat="42.4082910" lon="-8.6334180">
        <ele>30.9</ele>
        <time>2021-05-21T11:12:38Z</time>
      </trkpt>
      <trkpt lat="42.4083000" lon="-8.6334190">
        <ele>30.9</ele>
        <time>2021-05-21T11:12:39Z</time>
      </trkpt>
      <trkpt lat="42.4083190" lon="-8.6334210">
        <ele>30.9</ele>
        <time>2021-05-21T11:12:40Z</time>
      </trkpt>
      <trkpt lat="42.4083300" lon="-8.6334210">
        <ele>31.0</ele>
        <time>2021-05-21T11:12:41Z</time>
      </trkpt>
      <trkpt lat="42.4083440" lon="-8.6334140">
        <ele>31.0</ele>
        <time>2021-05-21T11:12:42Z</time>
      </trkpt>
      <trkpt lat="42.4083520" lon="-8.6334100">
        <ele>31.0</ele>
        <time>2021-05-21T11:12:43Z</time>
      </trkpt>
      <trkpt lat="42.4083550" lon="-8.6334130">
        <ele>31.0</ele>
        <time>2021-05-21T11:12:44Z</time>
      </trkpt>
      <trkpt lat="42.4083630" lon="-8.6334130">
        <ele>31.0</ele>
        <time>2021-05-21T11:12:45Z</time>
      </trkpt>
      <trkpt lat="42.4083760" lon="-8.6334180">
        <ele>31.0</ele>
        <time>2021-05-21T11:12:46Z</time>
      </trkpt>
      <trkpt lat="42.4083840" lon="-8.6334280">
        <ele>31.1</ele>
        <time>2021-05-21T11:12:47Z</time>
      </trkpt>
      <trkpt lat="42.4083920" lon="-8.6334280">
        <ele>31.1</ele>
        <time>2021-05-21T11:12:48Z</time>
      </trkpt>
      <trkpt lat="42.4084080" lon="-8.6334260">
        <ele>31.1</ele>
        <time>2021-05-21T11:12:49Z</time>
      </trkpt>
      <trkpt lat="42.4084230" lon="-8.6334250">
        <ele>31.1</ele>
        <time>2021-05-21T11:12:50Z</time>
      </trkpt>
      <trkpt lat="42.4084360" lon="-8.6334200">
        <ele>31.1</ele>
        <time>2021-05-21T11:12:51Z</time>
      </trkpt>
      <trkpt lat="42.4084440" lon="-8.6334250">
        <ele>31.2</ele>
        <time>2021-05-21T11:12:52Z</time>
      </trkpt>
      <trkpt lat="42.4084560" lon="-8.6334220">
        <ele>31.2</ele>
        <time>2021-05-21T11:12:53Z</time>
      </trkpt>
      <trkpt lat="42.4084730" lon="-8.6334220">
        <ele>31.2</ele>
        <time>2021-05-21T11:12:54Z</time>
      </trkpt>
      <trkpt lat="42.4084870" lon="-8.6334210">
        <ele>31.2</ele>
        <time>2021-05-21T11:12:55Z</time>
      </trkpt>
      <trkpt lat="42.4085080" lon="-8.6334200">
        <ele>31.3</ele>
        <time>2021-05-21T11:12:56Z</time>
      </trkpt>
      <trkpt lat="42.4085180" lon="-8.6334210">
        <ele>31.3</ele>
        <time>2021-05-21T11:12:57Z</time>
      </trkpt>
      <trkpt lat="42.4085270" lon="-8.6334220">
        <ele>31.3</ele>
        <time>2021-05-21T11:12:58Z</time>
      </trkpt>
      <trkpt lat="42.4085390" lon="-8.6334200">
        <ele>31.3</ele>
        <time>2021-05-21T11:12:59Z</time>
      </trkpt>
      <trkpt lat="42.4085540" lon="-8.6334190">
        <ele>31.4</ele>
        <time>2021-05-21T11:13:00Z</time>
      </trkpt>
      <trkpt lat="42.4085670" lon="-8.6334210">
        <ele>31.4</ele>
        <time>2021-05-21T11:13:01Z</time>
      </trkpt>
      <trkpt lat="42.4085750" lon="-8.6334260">
        <ele>31.4</ele>
        <time>2021-05-21T11:13:02Z</time>
      </trkpt>
      <trkpt lat="42.4085900" lon="-8.6334210">
        <ele>31.4</ele>
        <time>2021-05-21T11:13:03Z</time>
      </trkpt>
      <trkpt lat="42.4086080" lon="-8.6334090">
        <ele>31.5</ele>
        <time>2021-05-21T11:13:04Z</time>
      </trkpt>
      <trkpt lat="42.4086160" lon="-8.6334080">
        <ele>31.5</ele>
        <time>2021-05-21T11:13:05Z</time>
      </trkpt>
      <trkpt lat="42.4086240" lon="-8.6334060">
        <ele>31.5</ele>
        <time>2021-05-21T11:13:06Z</time>
      </trkpt>
      <trkpt lat="42.4086470" lon="-8.6334090">
        <ele>31.6</ele>
        <time>2021-05-21T11:13:07Z</time>
      </trkpt>
      <trkpt lat="42.4086550" lon="-8.6334080">
        <ele>31.6</ele>
        <time>2021-05-21T11:13:08Z</time>
      </trkpt>
      <trkpt lat="42.4086630" lon="-8.6334070">
        <ele>31.6</ele>
        <time>2021-05-21T11:13:09Z</time>
      </trkpt>
      <trkpt lat="42.4086750" lon="-8.6333980">
        <ele>31.6</ele>
        <time>2021-05-21T11:13:10Z</time>
      </trkpt>
      <trkpt lat="42.4086820" lon="-8.6334010">
        <ele>31.6</ele>
        <time>2021-05-21T11:13:11Z</time>
      </trkpt>
      <trkpt lat="42.4086950" lon="-8.6334050">
        <ele>31.7</ele>
        <time>2021-05-21T11:13:12Z</time>
      </trkpt>
      <trkpt lat="42.4087120" lon="-8.6334000">
        <ele>31.7</ele>
        <time>2021-05-21T11:13:13Z</time>
      </trkpt>
      <trkpt lat="42.4087260" lon="-8.6334040">
        <ele>31.7</ele>
        <time>2021-05-21T11:13:14Z</time>
      </trkpt>
      <trkpt lat="42.4087470" lon="-8.6333990">
        <ele>31.8</ele>
        <time>2021-05-21T11:13:15Z</time>
      </trkpt>
      <trkpt lat="42.4087570" lon="-8.6333980">
        <ele>31.8</ele>
        <time>2021-05-21T11:13:16Z</time>
      </trkpt>
      <trkpt lat="42.4087670" lon="-8.6333970">
        <ele>31.8</ele>
        <time>2021-05-21T11:13:17Z</time>
      </trkpt>
      <trkpt lat="42.4087820" lon="-8.6333940">
        <ele>31.9</ele>
        <time>2021-05-21T11:13:18Z</time>
      </trkpt>
      <trkpt lat="42.4087940" lon="-8.6333920">
        <ele>31.9</ele>
        <time>2021-05-21T11:13:19Z</time>
      </trkpt>
      <trkpt lat="42.4088160" lon="-8.6333900">
        <ele>32.0</ele>
        <time>2021-05-21T11:13:20Z</time>
      </trkpt>
      <trkpt lat="42.4088240" lon="-8.6333880">
        <ele>32.0</ele>
        <time>2021-05-21T11:13:21Z</time>
      </trkpt>
      <trkpt lat="42.4088310" lon="-8.6333870">
        <ele>32.0</ele>
        <time>2021-05-21T11:13:22Z</time>
      </trkpt>
      <trkpt lat="42.4088410" lon="-8.6333860">
        <ele>32.0</ele>
        <time>2021-05-21T11:13:23Z</time>
      </trkpt>
      <trkpt lat="42.4088620" lon="-8.6333930">
        <ele>32.1</ele>
        <time>2021-05-21T11:13:24Z</time>
      </trkpt>
      <trkpt lat="42.4088750" lon="-8.6333940">
        <ele>32.1</ele>
        <time>2021-05-21T11:13:25Z</time>
      </trkpt>
      <trkpt lat="42.4088840" lon="-8.6333950">
        <ele>32.1</ele>
        <time>2021-05-21T11:13:26Z</time>
      </trkpt>
      <trkpt lat="42.4088960" lon="-8.6333910">
        <ele>32.2</ele>
        <time>2021-05-21T11:13:27Z</time>
      </trkpt>
      <trkpt lat="42.4089110" lon="-8.6333810">
        <ele>32.2</ele>
        <time>2021-05-21T11:13:28Z</time>
      </trkpt>
      <trkpt lat="42.4089250" lon="-8.6333730">
        <ele>32.3</ele>
        <time>2021-05-21T11:13:29Z</time>
      </trkpt>
      <trkpt lat="42.4089340" lon="-8.6333670">
        <ele>32.3</ele>
        <time>2021-05-21T11:13:30Z</time>
      </trkpt>
      <trkpt lat="42.4089410" lon="-8.6333540">
        <ele>32.3</ele>
        <time>2021-05-21T11:13:31Z</time>
      </trkpt>
      <trkpt lat="42.4089490" lon="-8.6333500">
        <ele>32.3</ele>
        <time>2021-05-21T11:13:32Z</time>
      </trkpt>
      <trkpt lat="42.4089600" lon="-8.6333540">
        <ele>32.4</ele>
        <time>2021-05-21T11:13:33Z</time>
      </trkpt>
      <trkpt lat="42.4089730" lon="-8.6333560">
        <ele>32.4</ele>
        <time>2021-05-21T11:13:34Z</time>
      </trkpt>
      <trkpt lat="42.4089800" lon="-8.6333520">
        <ele>32.4</ele>
        <time>2021-05-21T11:13:35Z</time>
      </trkpt>
      <trkpt lat="42.4089910" lon="-8.6333490">
        <ele>32.5</ele>
        <time>2021-05-21T11:13:36Z</time>
      </trkpt>
      <trkpt lat="42.4090010" lon="-8.6333450">
        <ele>32.5</ele>
        <time>2021-05-21T11:13:37Z</time>
      </trkpt>
      <trkpt lat="42.4090070" lon="-8.6333430">
        <ele>32.5</ele>
        <time>2021-05-21T11:13:38Z</time>
      </trkpt>
      <trkpt lat="42.4090250" lon="-8.6333310">
        <ele>32.6</ele>
        <time>2021-05-21T11:13:39Z</time>
      </trkpt>
      <trkpt lat="42.4090320" lon="-8.6333240">
        <ele>32.6</ele>
        <time>2021-05-21T11:13:40Z</time>
      </trkpt>
      <trkpt lat="42.4090400" lon="-8.6333170">
        <ele>32.6</ele>
        <time>2021-05-21T11:13:41Z</time>
      </trkpt>
      <trkpt lat="42.4090520" lon="-8.6333070">
        <ele>32.6</ele>
        <time>2021-05-21T11:13:42Z</time>
      </trkpt>
      <trkpt lat="42.4090600" lon="-8.6333040">
        <ele>32.7</ele>
        <time>2021-05-21T11:13:43Z</time>
      </trkpt>
      <trkpt lat="42.4090680" lon="-8.6333000">
        <ele>32.7</ele>
        <time>2021-05-21T11:13:44Z</time>
      </trkpt>
      <trkpt lat="42.4090760" lon="-8.6332970">
        <ele>32.7</ele>
        <time>2021-05-21T11:13:45Z</time>
      </trkpt>
      <trkpt lat="42.4090930" lon="-8.6332900">
        <ele>32.8</ele>
        <time>2021-05-21T11:13:46Z</time>
      </trkpt>
      <trkpt lat="42.4091040" lon="-8.6332860">
        <ele>32.8</ele>
        <time>2021-05-21T11:13:47Z</time>
      </trkpt>
      <trkpt lat="42.4091140" lon="-8.6332830">
        <ele>32.8</ele>
        <time>2021-05-21T11:13:48Z</time>
      </trkpt>
      <trkpt lat="42.4091290" lon="-8.6332800">
        <ele>32.9</ele>
        <time>2021-05-21T11:13:49Z</time>
      </trkpt>
      <trkpt lat="42.4091470" lon="-8.6332770">
        <ele>32.9</ele>
        <time>2021-05-21T11:13:50Z</time>
      </trkpt>
      <trkpt lat="42.4091820" lon="-8.6332760">
        <ele>33.0</ele>
        <time>2021-05-21T11:13:51Z</time>
      </trkpt>
      <trkpt lat="42.4091900" lon="-8.6332790">
        <ele>33.0</ele>
        <time>2021-05-21T11:13:52Z</time>
      </trkpt>
      <trkpt lat="42.4092000" lon="-8.6332920">
        <ele>33.0</ele>
        <time>2021-05-21T11:13:53Z</time>
      </trkpt>
      <trkpt lat="42.4092040" lon="-8.6332930">
        <ele>33.1</ele>
        <time>2021-05-21T11:13:54Z</time>
      </trkpt>
      <trkpt lat="42.4092030" lon="-8.6332860">
        <ele>33.1</ele>
        <time>2021-05-21T11:13:55Z</time>
      </trkpt>
      <trkpt lat="42.4092210" lon="-8.6332790">
        <ele>33.1</ele>
        <time>2021-05-21T11:13:56Z</time>
      </trkpt>
      <trkpt lat="42.4092420" lon="-8.6332780">
        <ele>33.2</ele>
        <time>2021-05-21T11:13:57Z</time>
      </trkpt>
      <trkpt lat="42.4092500" lon="-8.6332800">
        <ele>33.2</ele>
        <time>2021-05-21T11:13:58Z</time>
      </trkpt>
      <trkpt lat="42.4092590" lon="-8.6332830">
        <ele>33.2</ele>
        <time>2021-05-21T11:13:59Z</time>
      </trkpt>
      <trkpt lat="42.4092670" lon="-8.6332850">
        <ele>33.2</ele>
        <time>2021-05-21T11:14:00Z</time>
      </trkpt>
      <trkpt lat="42.4092880" lon="-8.6332830">
        <ele>33.3</ele>
        <time>2021-05-21T11:14:01Z</time>
      </trkpt>
      <trkpt lat="42.4093020" lon="-8.6332820">
        <ele>33.3</ele>
        <time>2021-05-21T11:14:02Z</time>
      </trkpt>
      <trkpt lat="42.4093170" lon="-8.6332840">
        <ele>33.3</ele>
        <time>2021-05-21T11:14:03Z</time>
      </trkpt>
      <trkpt lat="42.4093290" lon="-8.6332810">
        <ele>33.3</ele>
        <time>2021-05-21T11:14:04Z</time>
      </trkpt>
      <trkpt lat="42.4093380" lon="-8.6332820">
        <ele>33.4</ele>
        <time>2021-05-21T11:14:05Z</time>
      </trkpt>
      <trkpt lat="42.4093470" lon="-8.6332760">
        <ele>33.4</ele>
        <time>2021-05-21T11:14:06Z</time>
      </trkpt>
      <trkpt lat="42.4093560" lon="-8.6332750">
        <ele>33.4</ele>
        <time>2021-05-21T11:14:07Z</time>
      </trkpt>
      <trkpt lat="42.4093680" lon="-8.6332700">
        <ele>33.4</ele>
        <time>2021-05-21T11:14:08Z</time>
      </trkpt>
      <trkpt lat="42.4093940" lon="-8.6332770">
        <ele>33.5</ele>
        <time>2021-05-21T11:14:09Z</time>
      </trkpt>
      <trkpt lat="42.4094010" lon="-8.6332770">
        <ele>33.5</ele>
        <time>2021-05-21T11:14:10Z</time>
      </trkpt>
      <trkpt lat="42.4094090" lon="-8.6332780">
        <ele>33.5</ele>
        <time>2021-05-21T11:14:11Z</time>
      </trkpt>
      <trkpt lat="42.4094290" lon="-8.6332640">
        <ele>33.5</ele>
        <time>2021-05-21T11:14:12Z</time>
      </trkpt>
      <trkpt lat="42.4094360" lon="-8.6332580">
        <ele>33.5</ele>
        <time>2021-05-21T11:14:13Z</time>
      </trkpt>
      <trkpt lat="42.4094430" lon="-8.6332530">
        <ele>33.5</ele>
        <time>2021-05-21T11:14:14Z</time>
      </trkpt>
      <trkpt lat="42.4094570" lon="-8.6332490">
        <ele>33.5</ele>
        <time>2021-05-21T11:14:15Z</time>
      </trkpt>
      <trkpt lat="42.4094680" lon="-8.6332440">
        <ele>33.6</ele>
        <time>2021-05-21T11:14:16Z</time>
      </trkpt>
      <trkpt lat="42.4094790" lon="-8.6332400">
        <ele>33.6</ele>
        <time>2021-05-21T11:14:17Z</time>
      </trkpt>
      <trkpt lat="42.4094910" lon="-8.6332290">
        <ele>33.6</ele>
        <time>2021-05-21T11:14:18Z</time>
      </trkpt>
      <trkpt lat="42.4095040" lon="-8.6332250">
        <ele>33.6</ele>
        <time>2021-05-21T11:14:19Z</time>
      </trkpt>
      <trkpt lat="42.4095130" lon="-8.6332110">
        <ele>33.6</ele>
        <time>2021-05-21T11:14:20Z</time>
      </trkpt>
      <trkpt lat="42.4095290" lon="-8.6331980">
        <ele>33.6</ele>
        <time>2021-05-21T11:14:21Z</time>
      </trkpt>
      <trkpt lat="42.4095400" lon="-8.6331900">
        <ele>33.6</ele>
        <time>2021-05-21T11:14:22Z</time>
      </trkpt>
      <trkpt lat="42.4095470" lon="-8.6331860">
        <ele>33.6</ele>
        <time>2021-05-21T11:14:23Z</time>
      </trkpt>
      <trkpt lat="42.4095560" lon="-8.6331730">
        <ele>33.6</ele>
        <time>2021-05-21T11:14:24Z</time>
      </trkpt>
      <trkpt lat="42.4095620" lon="-8.6331790">
        <ele>33.6</ele>
        <time>2021-05-21T11:14:25Z</time>
      </trkpt>
      <trkpt lat="42.4095730" lon="-8.6331740">
        <ele>33.6</ele>
        <time>2021-05-21T11:14:26Z</time>
      </trkpt>
      <trkpt lat="42.4095910" lon="-8.6331690">
        <ele>33.7</ele>
        <time>2021-05-21T11:14:27Z</time>
      </trkpt>
      <trkpt lat="42.4096040" lon="-8.6331540">
        <ele>33.7</ele>
        <time>2021-05-21T11:14:28Z</time>
      </trkpt>
      <trkpt lat="42.4096160" lon="-8.6331480">
        <ele>33.7</ele>
        <time>2021-05-21T11:14:29Z</time>
      </trkpt>
      <trkpt lat="42.4096280" lon="-8.6331420">
        <ele>33.7</ele>
        <time>2021-05-21T11:14:30Z</time>
      </trkpt>
      <trkpt lat="42.4096330" lon="-8.6331440">
        <ele>33.7</ele>
        <time>2021-05-21T11:14:31Z</time>
      </trkpt>
      <trkpt lat="42.4096480" lon="-8.6331380">
        <ele>33.7</ele>
        <time>2021-05-21T11:14:32Z</time>
      </trkpt>
      <trkpt lat="42.4096700" lon="-8.6331360">
        <ele>33.7</ele>
        <time>2021-05-21T11:14:33Z</time>
      </trkpt>
      <trkpt lat="42.4096820" lon="-8.6331300">
        <ele>33.7</ele>
        <time>2021-05-21T11:14:34Z</time>
      </trkpt>
      <trkpt lat="42.4096950" lon="-8.6331230">
        <ele>33.7</ele>
        <time>2021-05-21T11:14:35Z</time>
      </trkpt>
      <trkpt lat="42.4097080" lon="-8.6331290">
        <ele>33.7</ele>
        <time>2021-05-21T11:14:36Z</time>
      </trkpt>
      <trkpt lat="42.4097220" lon="-8.6331240">
        <ele>33.7</ele>
        <time>2021-05-21T11:14:37Z</time>
      </trkpt>
      <trkpt lat="42.4097360" lon="-8.6331230">
        <ele>33.7</ele>
        <time>2021-05-21T11:14:38Z</time>
      </trkpt>
      <trkpt lat="42.4097440" lon="-8.6331220">
        <ele>33.7</ele>
        <time>2021-05-21T11:14:39Z</time>
      </trkpt>
      <trkpt lat="42.4097530" lon="-8.6331220">
        <ele>33.7</ele>
        <time>2021-05-21T11:14:40Z</time>
      </trkpt>
      <trkpt lat="42.4097670" lon="-8.6331230">
        <ele>33.7</ele>
        <time>2021-05-21T11:14:41Z</time>
      </trkpt>
      <trkpt lat="42.4097840" lon="-8.6331290">
        <ele>33.7</ele>
        <time>2021-05-21T11:14:42Z</time>
      </trkpt>
      <trkpt lat="42.4097900" lon="-8.6331300">
        <ele>33.7</ele>
        <time>2021-05-21T11:14:43Z</time>
      </trkpt>
      <trkpt lat="42.4098020" lon="-8.6331270">
        <ele>33.7</ele>
        <time>2021-05-21T11:14:44Z</time>
      </trkpt>
      <trkpt lat="42.4098200" lon="-8.6331290">
        <ele>33.7</ele>
        <time>2021-05-21T11:14:45Z</time>
      </trkpt>
      <trkpt lat="42.4098390" lon="-8.6331320">
        <ele>33.6</ele>
        <time>2021-05-21T11:14:46Z</time>
      </trkpt>
      <trkpt lat="42.4098490" lon="-8.6331330">
        <ele>33.6</ele>
        <time>2021-05-21T11:14:47Z</time>
      </trkpt>
      <trkpt lat="42.4098590" lon="-8.6331330">
        <ele>33.6</ele>
        <time>2021-05-21T11:14:48Z</time>
      </trkpt>
      <trkpt lat="42.4098730" lon="-8.6331260">
        <ele>33.6</ele>
        <time>2021-05-21T11:14:49Z</time>
      </trkpt>
      <trkpt lat="42.4098790" lon="-8.6331310">
        <ele>33.6</ele>
        <time>2021-05-21T11:14:50Z</time>
      </trkpt>
      <trkpt lat="42.4098940" lon="-8.6331410">
        <ele>33.6</ele>
        <time>2021-05-21T11:14:51Z</time>
      </trkpt>
      <trkpt lat="42.4099080" lon="-8.6331380">
        <ele>33.6</ele>
        <time>2021-05-21T11:14:52Z</time>
      </trkpt>
      <trkpt lat="42.4099180" lon="-8.6331370">
        <ele>33.6</ele>
        <time>2021-05-21T11:14:53Z</time>
      </trkpt>
      <trkpt lat="42.4099260" lon="-8.6331390">
        <ele>33.6</ele>
        <time>2021-05-21T11:14:54Z</time>
      </trkpt>
      <trkpt lat="42.4099430" lon="-8.6331330">
        <ele>33.6</ele>
        <time>2021-05-21T11:14:55Z</time>
      </trkpt>
      <trkpt lat="42.4099550" lon="-8.6331310">
        <ele>33.6</ele>
        <time>2021-05-21T11:14:56Z</time>
      </trkpt>
      <trkpt lat="42.4099700" lon="-8.6331280">
        <ele>33.6</ele>
        <time>2021-05-21T11:14:57Z</time>
      </trkpt>
      <trkpt lat="42.4099850" lon="-8.6331280">
        <ele>33.6</ele>
        <time>2021-05-21T11:14:58Z</time>
      </trkpt>
      <trkpt lat="42.4099970" lon="-8.6331290">
        <ele>33.6</ele>
        <time>2021-05-21T11:14:59Z</time>
      </trkpt>
      <trkpt lat="42.4100140" lon="-8.6331270">
        <ele>33.5</ele>
        <time>2021-05-21T11:15:00Z</time>
      </trkpt>
      <trkpt lat="42.4100270" lon="-8.6331240">
        <ele>33.5</ele>
        <time>2021-05-21T11:15:01Z</time>
      </trkpt>
      <trkpt lat="42.4100390" lon="-8.6331280">
        <ele>33.5</ele>
        <time>2021-05-21T11:15:02Z</time>
      </trkpt>
      <trkpt lat="42.4100500" lon="-8.6331240">
        <ele>33.5</ele>
        <time>2021-05-21T11:15:03Z</time>
      </trkpt>
      <trkpt lat="42.4100650" lon="-8.6331210">
        <ele>33.5</ele>
        <time>2021-05-21T11:15:04Z</time>
      </trkpt>
      <trkpt lat="42.4100800" lon="-8.6331190">
        <ele>33.5</ele>
        <time>2021-05-21T11:15:05Z</time>
      </trkpt>
      <trkpt lat="42.4100920" lon="-8.6331180">
        <ele>33.4</ele>
        <time>2021-05-21T11:15:06Z</time>
      </trkpt>
      <trkpt lat="42.4101020" lon="-8.6331150">
        <ele>33.4</ele>
        <time>2021-05-21T11:15:07Z</time>
      </trkpt>
      <trkpt lat="42.4101100" lon="-8.6331220">
        <ele>33.4</ele>
        <time>2021-05-21T11:15:08Z</time>
      </trkpt>
      <trkpt lat="42.4101380" lon="-8.6331310">
        <ele>33.4</ele>
        <time>2021-05-21T11:15:09Z</time>
      </trkpt>
      <trkpt lat="42.4101460" lon="-8.6331330">
        <ele>33.4</ele>
        <time>2021-05-21T11:15:10Z</time>
      </trkpt>
      <trkpt lat="42.4101660" lon="-8.6331390">
        <ele>33.3</ele>
        <time>2021-05-21T11:15:11Z</time>
      </trkpt>
      <trkpt lat="42.4101810" lon="-8.6331370">
        <ele>33.3</ele>
        <time>2021-05-21T11:15:12Z</time>
      </trkpt>
      <trkpt lat="42.4101940" lon="-8.6331380">
        <ele>33.3</ele>
        <time>2021-05-21T11:15:13Z</time>
      </trkpt>
      <trkpt lat="42.4102130" lon="-8.6331410">
        <ele>33.2</ele>
        <time>2021-05-21T11:15:14Z</time>
      </trkpt>
      <trkpt lat="42.4102300" lon="-8.6331410">
        <ele>33.2</ele>
        <time>2021-05-21T11:15:15Z</time>
      </trkpt>
      <trkpt lat="42.4102440" lon="-8.6331400">
        <ele>33.2</ele>
        <time>2021-05-21T11:15:16Z</time>
      </trkpt>
      <trkpt lat="42.4102560" lon="-8.6331390">
        <ele>33.1</ele>
        <time>2021-05-21T11:15:17Z</time>
      </trkpt>
      <trkpt lat="42.4102670" lon="-8.6331380">
        <ele>33.1</ele>
        <time>2021-05-21T11:15:18Z</time>
      </trkpt>
      <trkpt lat="42.4102790" lon="-8.6331370">
        <ele>33.1</ele>
        <time>2021-05-21T11:15:19Z</time>
      </trkpt>
      <trkpt lat="42.4103010" lon="-8.6331300">
        <ele>33.1</ele>
        <time>2021-05-21T11:15:20Z</time>
      </trkpt>
      <trkpt lat="42.4103100" lon="-8.6331270">
        <ele>33.0</ele>
        <time>2021-05-21T11:15:21Z</time>
      </trkpt>
      <trkpt lat="42.4103190" lon="-8.6331240">
        <ele>33.0</ele>
        <time>2021-05-21T11:15:22Z</time>
      </trkpt>
      <trkpt lat="42.4103300" lon="-8.6331160">
        <ele>33.0</ele>
        <time>2021-05-21T11:15:23Z</time>
      </trkpt>
      <trkpt lat="42.4103330" lon="-8.6331110">
        <ele>33.0</ele>
        <time>2021-05-21T11:15:24Z</time>
      </trkpt>
      <trkpt lat="42.4103430" lon="-8.6331020">
        <ele>32.9</ele>
        <time>2021-05-21T11:15:25Z</time>
      </trkpt>
      <trkpt lat="42.4103570" lon="-8.6330980">
        <ele>32.9</ele>
        <time>2021-05-21T11:15:26Z</time>
      </trkpt>
      <trkpt lat="42.4103700" lon="-8.6330950">
        <ele>32.9</ele>
        <time>2021-05-21T11:15:27Z</time>
      </trkpt>
      <trkpt lat="42.4103810" lon="-8.6330830">
        <ele>32.9</ele>
        <time>2021-05-21T11:15:28Z</time>
      </trkpt>
      <trkpt lat="42.4103950" lon="-8.6330690">
        <ele>32.8</ele>
        <time>2021-05-21T11:15:29Z</time>
      </trkpt>
      <trkpt lat="42.4104000" lon="-8.6330700">
        <ele>32.8</ele>
        <time>2021-05-21T11:15:30Z</time>
      </trkpt>
      <trkpt lat="42.4104100" lon="-8.6330660">
        <ele>32.8</ele>
        <time>2021-05-21T11:15:31Z</time>
      </trkpt>
      <trkpt lat="42.4104190" lon="-8.6330420">
        <ele>32.7</ele>
        <time>2021-05-21T11:15:32Z</time>
      </trkpt>
      <trkpt lat="42.4104230" lon="-8.6330320">
        <ele>32.7</ele>
        <time>2021-05-21T11:15:33Z</time>
      </trkpt>
      <trkpt lat="42.4104420" lon="-8.6330180">
        <ele>32.6</ele>
        <time>2021-05-21T11:15:34Z</time>
      </trkpt>
      <trkpt lat="42.4104540" lon="-8.6330160">
        <ele>32.6</ele>
        <time>2021-05-21T11:15:35Z</time>
      </trkpt>
      <trkpt lat="42.4104700" lon="-8.6330080">
        <ele>32.5</ele>
        <time>2021-05-21T11:15:36Z</time>
      </trkpt>
      <trkpt lat="42.4104790" lon="-8.6329980">
        <ele>32.5</ele>
        <time>2021-05-21T11:15:37Z</time>
      </trkpt>
      <trkpt lat="42.4104930" lon="-8.6329820">
        <ele>32.4</ele>
        <time>2021-05-21T11:15:38Z</time>
      </trkpt>
      <trkpt lat="42.4105040" lon="-8.6329810">
        <ele>32.4</ele>
        <time>2021-05-21T11:15:39Z</time>
      </trkpt>
      <trkpt lat="42.4105210" lon="-8.6329760">
        <ele>32.3</ele>
        <time>2021-05-21T11:15:40Z</time>
      </trkpt>
      <trkpt lat="42.4105390" lon="-8.6329670">
        <ele>32.2</ele>
        <time>2021-05-21T11:15:41Z</time>
      </trkpt>
      <trkpt lat="42.4105540" lon="-8.6329710">
        <ele>32.2</ele>
        <time>2021-05-21T11:15:42Z</time>
      </trkpt>
      <trkpt lat="42.4105650" lon="-8.6329640">
        <ele>32.1</ele>
        <time>2021-05-21T11:15:43Z</time>
      </trkpt>
      <trkpt lat="42.4105750" lon="-8.6329720">
        <ele>32.1</ele>
        <time>2021-05-21T11:15:44Z</time>
      </trkpt>
      <trkpt lat="42.4105870" lon="-8.6329670">
        <ele>32.0</ele>
        <time>2021-05-21T11:15:45Z</time>
      </trkpt>
      <trkpt lat="42.4105980" lon="-8.6329510">
        <ele>32.0</ele>
        <time>2021-05-21T11:15:46Z</time>
      </trkpt>
      <trkpt lat="42.4106060" lon="-8.6329490">
        <ele>31.9</ele>
        <time>2021-05-21T11:15:47Z</time>
      </trkpt>
      <trkpt lat="42.4106130" lon="-8.6329570">
        <ele>31.9</ele>
        <time>2021-05-21T11:15:48Z</time>
      </trkpt>
      <trkpt lat="42.4106200" lon="-8.6329640">
        <ele>31.9</ele>
        <time>2021-05-21T11:15:49Z</time>
      </trkpt>
      <trkpt lat="42.4106370" lon="-8.6329660">
        <ele>31.8</ele>
        <time>2021-05-21T11:15:50Z</time>
      </trkpt>
      <trkpt lat="42.4106470" lon="-8.6329670">
        <ele>31.8</ele>
        <time>2021-05-21T11:15:51Z</time>
      </trkpt>
      <trkpt lat="42.4106560" lon="-8.6329690">
        <ele>31.7</ele>
        <time>2021-05-21T11:15:52Z</time>
      </trkpt>
      <trkpt lat="42.4106690" lon="-8.6329750">
        <ele>31.7</ele>
        <time>2021-05-21T11:15:53Z</time>
      </trkpt>
      <trkpt lat="42.4106840" lon="-8.6329800">
        <ele>31.6</ele>
        <time>2021-05-21T11:15:54Z</time>
      </trkpt>
      <trkpt lat="42.4106910" lon="-8.6329880">
        <ele>31.6</ele>
        <time>2021-05-21T11:15:55Z</time>
      </trkpt>
      <trkpt lat="42.4107000" lon="-8.6329990">
        <ele>31.5</ele>
        <time>2021-05-21T11:15:56Z</time>
      </trkpt>
      <trkpt lat="42.4107140" lon="-8.6329990">
        <ele>31.5</ele>
        <time>2021-05-21T11:15:57Z</time>
      </trkpt>
      <trkpt lat="42.4107330" lon="-8.6330070">
        <ele>31.4</ele>
        <time>2021-05-21T11:15:58Z</time>
      </trkpt>
      <trkpt lat="42.4107440" lon="-8.6330140">
        <ele>31.3</ele>
        <time>2021-05-21T11:15:59Z</time>
      </trkpt>
      <trkpt lat="42.4107560" lon="-8.6330220">
        <ele>31.3</ele>
        <time>2021-05-21T11:16:00Z</time>
      </trkpt>
      <trkpt lat="42.4107770" lon="-8.6330330">
        <ele>31.2</ele>
        <time>2021-05-21T11:16:01Z</time>
      </trkpt>
      <trkpt lat="42.4107840" lon="-8.6330390">
        <ele>31.1</ele>
        <time>2021-05-21T11:16:02Z</time>
      </trkpt>
      <trkpt lat="42.4107920" lon="-8.6330440">
        <ele>31.1</ele>
        <time>2021-05-21T11:16:03Z</time>
      </trkpt>
      <trkpt lat="42.4108040" lon="-8.6330560">
        <ele>31.0</ele>
        <time>2021-05-21T11:16:04Z</time>
      </trkpt>
      <trkpt lat="42.4108200" lon="-8.6330560">
        <ele>30.9</ele>
        <time>2021-05-21T11:16:05Z</time>
      </trkpt>
      <trkpt lat="42.4108410" lon="-8.6330530">
        <ele>30.8</ele>
        <time>2021-05-21T11:16:06Z</time>
      </trkpt>
      <trkpt lat="42.4108520" lon="-8.6330560">
        <ele>30.8</ele>
        <time>2021-05-21T11:16:07Z</time>
      </trkpt>
      <trkpt lat="42.4108630" lon="-8.6330590">
        <ele>30.7</ele>
        <time>2021-05-21T11:16:08Z</time>
      </trkpt>
      <trkpt lat="42.4108800" lon="-8.6330660">
        <ele>30.7</ele>
        <time>2021-05-21T11:16:09Z</time>
      </trkpt>
      <trkpt lat="42.4108830" lon="-8.6330630">
        <ele>30.6</ele>
        <time>2021-05-21T11:16:10Z</time>
      </trkpt>
      <trkpt lat="42.4108970" lon="-8.6330680">
        <ele>30.6</ele>
        <time>2021-05-21T11:16:11Z</time>
      </trkpt>
      <trkpt lat="42.4109130" lon="-8.6330690">
        <ele>30.5</ele>
        <time>2021-05-21T11:16:12Z</time>
      </trkpt>
      <trkpt lat="42.4109200" lon="-8.6330680">
        <ele>30.5</ele>
        <time>2021-05-21T11:16:13Z</time>
      </trkpt>
      <trkpt lat="42.4109300" lon="-8.6330740">
        <ele>30.4</ele>
        <time>2021-05-21T11:16:14Z</time>
      </trkpt>
      <trkpt lat="42.4109420" lon="-8.6330770">
        <ele>30.4</ele>
        <time>2021-05-21T11:16:15Z</time>
      </trkpt>
      <trkpt lat="42.4109520" lon="-8.6330820">
        <ele>30.3</ele>
        <time>2021-05-21T11:16:16Z</time>
      </trkpt>
      <trkpt lat="42.4109640" lon="-8.6330810">
        <ele>30.3</ele>
        <time>2021-05-21T11:16:17Z</time>
      </trkpt>
      <trkpt lat="42.4109840" lon="-8.6330740">
        <ele>30.2</ele>
        <time>2021-05-21T11:16:18Z</time>
      </trkpt>
      <trkpt lat="42.4109950" lon="-8.6330720">
        <ele>30.1</ele>
        <time>2021-05-21T11:16:19Z</time>
      </trkpt>
      <trkpt lat="42.4110060" lon="-8.6330700">
        <ele>30.1</ele>
        <time>2021-05-21T11:16:20Z</time>
      </trkpt>
      <trkpt lat="42.4110180" lon="-8.6330650">
        <ele>30.0</ele>
        <time>2021-05-21T11:16:21Z</time>
      </trkpt>
      <trkpt lat="42.4110280" lon="-8.6330600">
        <ele>30.0</ele>
        <time>2021-05-21T11:16:22Z</time>
      </trkpt>
      <trkpt lat="42.4110370" lon="-8.6330660">
        <ele>29.9</ele>
        <time>2021-05-21T11:16:23Z</time>
      </trkpt>
      <trkpt lat="42.4110460" lon="-8.6330670">
        <ele>29.9</ele>
        <time>2021-05-21T11:16:24Z</time>
      </trkpt>
      <trkpt lat="42.4110560" lon="-8.6330790">
        <ele>29.8</ele>
        <time>2021-05-21T11:16:25Z</time>
      </trkpt>
      <trkpt lat="42.4110670" lon="-8.6330790">
        <ele>29.8</ele>
        <time>2021-05-21T11:16:26Z</time>
      </trkpt>
      <trkpt lat="42.4110750" lon="-8.6330830">
        <ele>29.8</ele>
        <time>2021-05-21T11:16:27Z</time>
      </trkpt>
      <trkpt lat="42.4110960" lon="-8.6330880">
        <ele>29.7</ele>
        <time>2021-05-21T11:16:28Z</time>
      </trkpt>
      <trkpt lat="42.4111200" lon="-8.6330920">
        <ele>29.6</ele>
        <time>2021-05-21T11:16:29Z</time>
      </trkpt>
      <trkpt lat="42.4111270" lon="-8.6330940">
        <ele>29.6</ele>
        <time>2021-05-21T11:16:30Z</time>
      </trkpt>
      <trkpt lat="42.4111340" lon="-8.6330970">
        <ele>29.5</ele>
        <time>2021-05-21T11:16:31Z</time>
      </trkpt>
      <trkpt lat="42.4111410" lon="-8.6331010">
        <ele>29.5</ele>
        <time>2021-05-21T11:16:32Z</time>
      </trkpt>
      <trkpt lat="42.4111560" lon="-8.6331000">
        <ele>29.5</ele>
        <time>2021-05-21T11:16:33Z</time>
      </trkpt>
      <trkpt lat="42.4111660" lon="-8.6331100">
        <ele>29.4</ele>
        <time>2021-05-21T11:16:34Z</time>
      </trkpt>
      <trkpt lat="42.4111850" lon="-8.6331100">
        <ele>29.4</ele>
        <time>2021-05-21T11:16:35Z</time>
      </trkpt>
      <trkpt lat="42.4111950" lon="-8.6331090">
        <ele>29.3</ele>
        <time>2021-05-21T11:16:36Z</time>
      </trkpt>
      <trkpt lat="42.4112130" lon="-8.6331150">
        <ele>29.3</ele>
        <time>2021-05-21T11:16:37Z</time>
      </trkpt>
      <trkpt lat="42.4112270" lon="-8.6331240">
        <ele>29.2</ele>
        <time>2021-05-21T11:16:38Z</time>
      </trkpt>
      <trkpt lat="42.4112430" lon="-8.6331360">
        <ele>29.1</ele>
        <time>2021-05-21T11:16:39Z</time>
      </trkpt>
      <trkpt lat="42.4112530" lon="-8.6331390">
        <ele>29.1</ele>
        <time>2021-05-21T11:16:40Z</time>
      </trkpt>
      <trkpt lat="42.4112700" lon="-8.6331340">
        <ele>29.0</ele>
        <time>2021-05-21T11:16:41Z</time>
      </trkpt>
      <trkpt lat="42.4112800" lon="-8.6331320">
        <ele>29.0</ele>
        <time>2021-05-21T11:16:42Z</time>
      </trkpt>
      <trkpt lat="42.4112980" lon="-8.6331280">
        <ele>28.9</ele>
        <time>2021-05-21T11:16:43Z</time>
      </trkpt>
      <trkpt lat="42.4113080" lon="-8.6331290">
        <ele>28.9</ele>
        <time>2021-05-21T11:16:44Z</time>
      </trkpt>
      <trkpt lat="42.4113170" lon="-8.6331290">
        <ele>28.9</ele>
        <time>2021-05-21T11:16:45Z</time>
      </trkpt>
      <trkpt lat="42.4113360" lon="-8.6331240">
        <ele>28.8</ele>
        <time>2021-05-21T11:16:46Z</time>
      </trkpt>
      <trkpt lat="42.4113450" lon="-8.6331230">
        <ele>28.8</ele>
        <time>2021-05-21T11:16:47Z</time>
      </trkpt>
      <trkpt lat="42.4113540" lon="-8.6331230">
        <ele>28.7</ele>
        <time>2021-05-21T11:16:48Z</time>
      </trkpt>
      <trkpt lat="42.4113620" lon="-8.6331260">
        <ele>28.7</ele>
        <time>2021-05-21T11:16:49Z</time>
      </trkpt>
      <trkpt lat="42.4113710" lon="-8.6331220">
        <ele>28.7</ele>
        <time>2021-05-21T11:16:50Z</time>
      </trkpt>
      <trkpt lat="42.4113800" lon="-8.6331330">
        <ele>28.6</ele>
        <time>2021-05-21T11:16:51Z</time>
      </trkpt>
      <trkpt lat="42.4113900" lon="-8.6331280">
        <ele>28.6</ele>
        <time>2021-05-21T11:16:52Z</time>
      </trkpt>
      <trkpt lat="42.4113980" lon="-8.6331230">
        <ele>28.5</ele>
        <time>2021-05-21T11:16:53Z</time>
      </trkpt>
      <trkpt lat="42.4114080" lon="-8.6331290">
        <ele>28.5</ele>
        <time>2021-05-21T11:16:54Z</time>
      </trkpt>
      <trkpt lat="42.4114200" lon="-8.6331290">
        <ele>28.5</ele>
        <time>2021-05-21T11:16:55Z</time>
      </trkpt>
      <trkpt lat="42.4114380" lon="-8.6331310">
        <ele>28.4</ele>
        <time>2021-05-21T11:16:56Z</time>
      </trkpt>
      <trkpt lat="42.4114470" lon="-8.6331310">
        <ele>28.4</ele>
        <time>2021-05-21T11:16:57Z</time>
      </trkpt>
      <trkpt lat="42.4114560" lon="-8.6331300">
        <ele>28.3</ele>
        <time>2021-05-21T11:16:58Z</time>
      </trkpt>
      <trkpt lat="42.4114840" lon="-8.6331330">
        <ele>28.2</ele>
        <time>2021-05-21T11:16:59Z</time>
      </trkpt>
      <trkpt lat="42.4114930" lon="-8.6331350">
        <ele>28.2</ele>
        <time>2021-05-21T11:17:00Z</time>
      </trkpt>
      <trkpt lat="42.4115090" lon="-8.6331320">
        <ele>28.1</ele>
        <time>2021-05-21T11:17:01Z</time>
      </trkpt>
      <trkpt lat="42.4115220" lon="-8.6331290">
        <ele>28.1</ele>
        <time>2021-05-21T11:17:02Z</time>
      </trkpt>
      <trkpt lat="42.4115360" lon="-8.6331280">
        <ele>28.0</ele>
        <time>2021-05-21T11:17:03Z</time>
      </trkpt>
      <trkpt lat="42.4115540" lon="-8.6331310">
        <ele>27.9</ele>
        <time>2021-05-21T11:17:04Z</time>
      </trkpt>
      <trkpt lat="42.4115670" lon="-8.6331250">
        <ele>27.9</ele>
        <time>2021-05-21T11:17:05Z</time>
      </trkpt>
      <trkpt lat="42.4115760" lon="-8.6331220">
        <ele>27.8</ele>
        <time>2021-05-21T11:17:06Z</time>
      </trkpt>
      <trkpt lat="42.4115830" lon="-8.6331240">
        <ele>27.8</ele>
        <time>2021-05-21T11:17:07Z</time>
      </trkpt>
      <trkpt lat="42.4115870" lon="-8.6331220">
        <ele>27.8</ele>
        <time>2021-05-21T11:17:08Z</time>
      </trkpt>
      <trkpt lat="42.4116020" lon="-8.6331150">
        <ele>27.7</ele>
        <time>2021-05-21T11:17:09Z</time>
      </trkpt>
      <trkpt lat="42.4116110" lon="-8.6331110">
        <ele>27.7</ele>
        <time>2021-05-21T11:17:10Z</time>
      </trkpt>
      <trkpt lat="42.4116210" lon="-8.6331060">
        <ele>27.7</ele>
        <time>2021-05-21T11:17:11Z</time>
      </trkpt>
      <trkpt lat="42.4116270" lon="-8.6331050">
        <ele>27.6</ele>
        <time>2021-05-21T11:17:12Z</time>
      </trkpt>
      <trkpt lat="42.4116370" lon="-8.6330980">
        <ele>27.6</ele>
        <time>2021-05-21T11:17:13Z</time>
      </trkpt>
      <trkpt lat="42.4116590" lon="-8.6330920">
        <ele>27.5</ele>
        <time>2021-05-21T11:17:14Z</time>
      </trkpt>
      <trkpt lat="42.4116680" lon="-8.6330910">
        <ele>27.5</ele>
        <time>2021-05-21T11:17:15Z</time>
      </trkpt>
      <trkpt lat="42.4116760" lon="-8.6330890">
        <ele>27.4</ele>
        <time>2021-05-21T11:17:16Z</time>
      </trkpt>
      <trkpt lat="42.4116900" lon="-8.6330890">
        <ele>27.4</ele>
        <time>2021-05-21T11:17:17Z</time>
      </trkpt>
      <trkpt lat="42.4117050" lon="-8.6330880">
        <ele>27.3</ele>
        <time>2021-05-21T11:17:18Z</time>
      </trkpt>
      <trkpt lat="42.4117110" lon="-8.6330870">
        <ele>27.3</ele>
        <time>2021-05-21T11:17:19Z</time>
      </trkpt>
      <trkpt lat="42.4117240" lon="-8.6330910">
        <ele>27.3</ele>
        <time>2021-05-21T11:17:20Z</time>
      </trkpt>
      <trkpt lat="42.4117370" lon="-8.6330950">
        <ele>27.2</ele>
        <time>2021-05-21T11:17:21Z</time>
      </trkpt>
      <trkpt lat="42.4117460" lon="-8.6330990">
        <ele>27.2</ele>
        <time>2021-05-21T11:17:22Z</time>
      </trkpt>
      <trkpt lat="42.4117640" lon="-8.6330890">
        <ele>27.1</ele>
        <time>2021-05-21T11:17:23Z</time>
      </trkpt>
      <trkpt lat="42.4117820" lon="-8.6330890">
        <ele>27.0</ele>
        <time>2021-05-21T11:17:24Z</time>
      </trkpt>
      <trkpt lat="42.4117890" lon="-8.6330890">
        <ele>27.0</ele>
        <time>2021-05-21T11:17:25Z</time>
      </trkpt>
      <trkpt lat="42.4117970" lon="-8.6330880">
        <ele>27.0</ele>
        <time>2021-05-21T11:17:26Z</time>
      </trkpt>
      <trkpt lat="42.4118040" lon="-8.6330870">
        <ele>26.9</ele>
        <time>2021-05-21T11:17:27Z</time>
      </trkpt>
      <trkpt lat="42.4118170" lon="-8.6330860">
        <ele>26.9</ele>
        <time>2021-05-21T11:17:28Z</time>
      </trkpt>
      <trkpt lat="42.4118280" lon="-8.6330870">
        <ele>26.8</ele>
        <time>2021-05-21T11:17:29Z</time>
      </trkpt>
      <trkpt lat="42.4118380" lon="-8.6330830">
        <ele>26.8</ele>
        <time>2021-05-21T11:17:30Z</time>
      </trkpt>
      <trkpt lat="42.4118510" lon="-8.6330830">
        <ele>26.7</ele>
        <time>2021-05-21T11:17:31Z</time>
      </trkpt>
      <trkpt lat="42.4118600" lon="-8.6330870">
        <ele>26.7</ele>
        <time>2021-05-21T11:17:32Z</time>
      </trkpt>
      <trkpt lat="42.4118680" lon="-8.6330870">
        <ele>26.7</ele>
        <time>2021-05-21T11:17:33Z</time>
      </trkpt>
      <trkpt lat="42.4118870" lon="-8.6330910">
        <ele>26.6</ele>
        <time>2021-05-21T11:17:34Z</time>
      </trkpt>
      <trkpt lat="42.4118980" lon="-8.6330930">
        <ele>26.5</ele>
        <time>2021-05-21T11:17:35Z</time>
      </trkpt>
      <trkpt lat="42.4119080" lon="-8.6330940">
        <ele>26.5</ele>
        <time>2021-05-21T11:17:36Z</time>
      </trkpt>
      <trkpt lat="42.4119210" lon="-8.6330920">
        <ele>26.4</ele>
        <time>2021-05-21T11:17:37Z</time>
      </trkpt>
      <trkpt lat="42.4119280" lon="-8.6330910">
        <ele>26.4</ele>
        <time>2021-05-21T11:17:38Z</time>
      </trkpt>
      <trkpt lat="42.4119400" lon="-8.6330900">
        <ele>26.4</ele>
        <time>2021-05-21T11:17:39Z</time>
      </trkpt>
      <trkpt lat="42.4119570" lon="-8.6330850">
        <ele>26.3</ele>
        <time>2021-05-21T11:17:40Z</time>
      </trkpt>
      <trkpt lat="42.4119710" lon="-8.6330820">
        <ele>26.2</ele>
        <time>2021-05-21T11:17:41Z</time>
      </trkpt>
      <trkpt lat="42.4119800" lon="-8.6330790">
        <ele>26.2</ele>
        <time>2021-05-21T11:17:42Z</time>
      </trkpt>
      <trkpt lat="42.4119850" lon="-8.6330750">
        <ele>26.2</ele>
        <time>2021-05-21T11:17:43Z</time>
      </trkpt>
      <trkpt lat="42.4119920" lon="-8.6330770">
        <ele>26.1</ele>
        <time>2021-05-21T11:17:44Z</time>
      </trkpt>
      <trkpt lat="42.4120070" lon="-8.6330760">
        <ele>26.1</ele>
        <time>2021-05-21T11:17:45Z</time>
      </trkpt>
      <trkpt lat="42.4120290" lon="-8.6330740">
        <ele>26.0</ele>
        <time>2021-05-21T11:17:46Z</time>
      </trkpt>
      <trkpt lat="42.4120380" lon="-8.6330730">
        <ele>26.0</ele>
        <time>2021-05-21T11:17:47Z</time>
      </trkpt>
      <trkpt lat="42.4120480" lon="-8.6330720">
        <ele>25.9</ele>
        <time>2021-05-21T11:17:48Z</time>
      </trkpt>
      <trkpt lat="42.4120660" lon="-8.6330670">
        <ele>25.9</ele>
        <time>2021-05-21T11:17:49Z</time>
      </trkpt>
      <trkpt lat="42.4120750" lon="-8.6330650">
        <ele>25.8</ele>
        <time>2021-05-21T11:17:50Z</time>
      </trkpt>
      <trkpt lat="42.4120840" lon="-8.6330630">
        <ele>25.8</ele>
        <time>2021-05-21T11:17:51Z</time>
      </trkpt>
      <trkpt lat="42.4120980" lon="-8.6330620">
        <ele>25.7</ele>
        <time>2021-05-21T11:17:52Z</time>
      </trkpt>
      <trkpt lat="42.4121130" lon="-8.6330620">
        <ele>25.7</ele>
        <time>2021-05-21T11:17:53Z</time>
      </trkpt>
      <trkpt lat="42.4121200" lon="-8.6330560">
        <ele>25.6</ele>
        <time>2021-05-21T11:17:54Z</time>
      </trkpt>
      <trkpt lat="42.4121310" lon="-8.6330530">
        <ele>25.6</ele>
        <time>2021-05-21T11:17:55Z</time>
      </trkpt>
      <trkpt lat="42.4121440" lon="-8.6330570">
        <ele>25.6</ele>
        <time>2021-05-21T11:17:56Z</time>
      </trkpt>
      <trkpt lat="42.4121590" lon="-8.6330610">
        <ele>25.5</ele>
        <time>2021-05-21T11:17:57Z</time>
      </trkpt>
      <trkpt lat="42.4121750" lon="-8.6330600">
        <ele>25.4</ele>
        <time>2021-05-21T11:17:58Z</time>
      </trkpt>
      <trkpt lat="42.4121900" lon="-8.6330610">
        <ele>25.4</ele>
        <time>2021-05-21T11:17:59Z</time>
      </trkpt>
      <trkpt lat="42.4122030" lon="-8.6330600">
        <ele>25.4</ele>
        <time>2021-05-21T11:18:00Z</time>
      </trkpt>
      <trkpt lat="42.4122180" lon="-8.6330590">
        <ele>25.3</ele>
        <time>2021-05-21T11:18:01Z</time>
      </trkpt>
      <trkpt lat="42.4122250" lon="-8.6330580">
        <ele>25.3</ele>
        <time>2021-05-21T11:18:02Z</time>
      </trkpt>
      <trkpt lat="42.4122330" lon="-8.6330580">
        <ele>25.3</ele>
        <time>2021-05-21T11:18:03Z</time>
      </trkpt>
      <trkpt lat="42.4122400" lon="-8.6330570">
        <ele>25.2</ele>
        <time>2021-05-21T11:18:04Z</time>
      </trkpt>
      <trkpt lat="42.4122500" lon="-8.6330650">
        <ele>25.2</ele>
        <time>2021-05-21T11:18:05Z</time>
      </trkpt>
      <trkpt lat="42.4122670" lon="-8.6330650">
        <ele>25.1</ele>
        <time>2021-05-21T11:18:06Z</time>
      </trkpt>
      <trkpt lat="42.4122780" lon="-8.6330680">
        <ele>25.1</ele>
        <time>2021-05-21T11:18:07Z</time>
      </trkpt>
      <trkpt lat="42.4122910" lon="-8.6330670">
        <ele>25.1</ele>
        <time>2021-05-21T11:18:08Z</time>
      </trkpt>
      <trkpt lat="42.4123000" lon="-8.6330660">
        <ele>25.0</ele>
        <time>2021-05-21T11:18:09Z</time>
      </trkpt>
      <trkpt lat="42.4123130" lon="-8.6330710">
        <ele>25.0</ele>
        <time>2021-05-21T11:18:10Z</time>
      </trkpt>
      <trkpt lat="42.4123190" lon="-8.6330710">
        <ele>25.0</ele>
        <time>2021-05-21T11:18:11Z</time>
      </trkpt>
      <trkpt lat="42.4123280" lon="-8.6330610">
        <ele>24.9</ele>
        <time>2021-05-21T11:18:12Z</time>
      </trkpt>
      <trkpt lat="42.4123390" lon="-8.6330610">
        <ele>24.9</ele>
        <time>2021-05-21T11:18:13Z</time>
      </trkpt>
      <trkpt lat="42.4123560" lon="-8.6330650">
        <ele>24.9</ele>
        <time>2021-05-21T11:18:14Z</time>
      </trkpt>
      <trkpt lat="42.4123710" lon="-8.6330670">
        <ele>24.8</ele>
        <time>2021-05-21T11:18:15Z</time>
      </trkpt>
      <trkpt lat="42.4123860" lon="-8.6330580">
        <ele>24.8</ele>
        <time>2021-05-21T11:18:16Z</time>
      </trkpt>
      <trkpt lat="42.4124080" lon="-8.6330700">
        <ele>24.7</ele>
        <time>2021-05-21T11:18:17Z</time>
      </trkpt>
      <trkpt lat="42.4124170" lon="-8.6330700">
        <ele>24.7</ele>
        <time>2021-05-21T11:18:18Z</time>
      </trkpt>
      <trkpt lat="42.4124250" lon="-8.6330710">
        <ele>24.6</ele>
        <time>2021-05-21T11:18:19Z</time>
      </trkpt>
      <trkpt lat="42.4124500" lon="-8.6330740">
        <ele>24.6</ele>
        <time>2021-05-21T11:18:20Z</time>
      </trkpt>
      <trkpt lat="42.4124600" lon="-8.6330760">
        <ele>24.5</ele>
        <time>2021-05-21T11:18:21Z</time>
      </trkpt>
      <trkpt lat="42.4124700" lon="-8.6330780">
        <ele>24.5</ele>
        <time>2021-05-21T11:18:22Z</time>
      </trkpt>
      <trkpt lat="42.4124910" lon="-8.6330850">
        <ele>24.5</ele>
        <time>2021-05-21T11:18:23Z</time>
      </trkpt>
      <trkpt lat="42.4124990" lon="-8.6330850">
        <ele>24.4</ele>
        <time>2021-05-21T11:18:24Z</time>
      </trkpt>
      <trkpt lat="42.4125070" lon="-8.6330850">
        <ele>24.4</ele>
        <time>2021-05-21T11:18:25Z</time>
      </trkpt>
      <trkpt lat="42.4125110" lon="-8.6330840">
        <ele>24.4</ele>
        <time>2021-05-21T11:18:26Z</time>
      </trkpt>
      <trkpt lat="42.4125200" lon="-8.6330870">
        <ele>24.4</ele>
        <time>2021-05-21T11:18:27Z</time>
      </trkpt>
      <trkpt lat="42.4125350" lon="-8.6330920">
        <ele>24.3</ele>
        <time>2021-05-21T11:18:28Z</time>
      </trkpt>
      <trkpt lat="42.4125460" lon="-8.6330960">
        <ele>24.3</ele>
        <time>2021-05-21T11:18:29Z</time>
      </trkpt>
      <trkpt lat="42.4125710" lon="-8.6331010">
        <ele>24.2</ele>
        <time>2021-05-21T11:18:30Z</time>
      </trkpt>
      <trkpt lat="42.4125880" lon="-8.6331040">
        <ele>24.2</ele>
        <time>2021-05-21T11:18:31Z</time>
      </trkpt>
      <trkpt lat="42.4125990" lon="-8.6331090">
        <ele>24.2</ele>
        <time>2021-05-21T11:18:32Z</time>
      </trkpt>
      <trkpt lat="42.4126040" lon="-8.6331140">
        <ele>24.2</ele>
        <time>2021-05-21T11:18:33Z</time>
      </trkpt>
      <trkpt lat="42.4126190" lon="-8.6331150">
        <ele>24.1</ele>
        <time>2021-05-21T11:18:34Z</time>
      </trkpt>
      <trkpt lat="42.4126320" lon="-8.6331190">
        <ele>24.1</ele>
        <time>2021-05-21T11:18:35Z</time>
      </trkpt>
      <trkpt lat="42.4126450" lon="-8.6331200">
        <ele>24.1</ele>
        <time>2021-05-21T11:18:36Z</time>
      </trkpt>
      <trkpt lat="42.4126630" lon="-8.6331240">
        <ele>24.0</ele>
        <time>2021-05-21T11:18:37Z</time>
      </trkpt>
      <trkpt lat="42.4126870" lon="-8.6331310">
        <ele>24.0</ele>
        <time>2021-05-21T11:18:38Z</time>
      </trkpt>
      <trkpt lat="42.4126960" lon="-8.6331350">
        <ele>23.9</ele>
        <time>2021-05-21T11:18:39Z</time>
      </trkpt>
      <trkpt lat="42.4127040" lon="-8.6331380">
        <ele>23.9</ele>
        <time>2021-05-21T11:18:40Z</time>
      </trkpt>
      <trkpt lat="42.4127230" lon="-8.6331430">
        <ele>23.9</ele>
        <time>2021-05-21T11:18:41Z</time>
      </trkpt>
      <trkpt lat="42.4127330" lon="-8.6331410">
        <ele>23.9</ele>
        <time>2021-05-21T11:18:42Z</time>
      </trkpt>
      <trkpt lat="42.4127480" lon="-8.6331410">
        <ele>23.8</ele>
        <time>2021-05-21T11:18:43Z</time>
      </trkpt>
      <trkpt lat="42.4127640" lon="-8.6331450">
        <ele>23.8</ele>
        <time>2021-05-21T11:18:44Z</time>
      </trkpt>
      <trkpt lat="42.4127850" lon="-8.6331510">
        <ele>23.7</ele>
        <time>2021-05-21T11:18:45Z</time>
      </trkpt>
      <trkpt lat="42.4127960" lon="-8.6331580">
        <ele>23.7</ele>
        <time>2021-05-21T11:18:46Z</time>
      </trkpt>
      <trkpt lat="42.4128060" lon="-8.6331650">
        <ele>23.7</ele>
        <time>2021-05-21T11:18:47Z</time>
      </trkpt>
      <trkpt lat="42.4128160" lon="-8.6331710">
        <ele>23.7</ele>
        <time>2021-05-21T11:18:48Z</time>
      </trkpt>
      <trkpt lat="42.4128280" lon="-8.6331740">
        <ele>23.6</ele>
        <time>2021-05-21T11:18:49Z</time>
      </trkpt>
      <trkpt lat="42.4128390" lon="-8.6331760">
        <ele>23.6</ele>
        <time>2021-05-21T11:18:50Z</time>
      </trkpt>
      <trkpt lat="42.4128500" lon="-8.6331730">
        <ele>23.6</ele>
        <time>2021-05-21T11:18:51Z</time>
      </trkpt>
      <trkpt lat="42.4128620" lon="-8.6331760">
        <ele>23.6</ele>
        <time>2021-05-21T11:18:52Z</time>
      </trkpt>
      <trkpt lat="42.4128730" lon="-8.6331820">
        <ele>23.5</ele>
        <time>2021-05-21T11:18:53Z</time>
      </trkpt>
      <trkpt lat="42.4128890" lon="-8.6331930">
        <ele>23.5</ele>
        <time>2021-05-21T11:18:54Z</time>
      </trkpt>
      <trkpt lat="42.4129040" lon="-8.6331940">
        <ele>23.5</ele>
        <time>2021-05-21T11:18:55Z</time>
      </trkpt>
      <trkpt lat="42.4129210" lon="-8.6331950">
        <ele>23.4</ele>
        <time>2021-05-21T11:18:56Z</time>
      </trkpt>
      <trkpt lat="42.4129320" lon="-8.6331940">
        <ele>23.4</ele>
        <time>2021-05-21T11:18:57Z</time>
      </trkpt>
      <trkpt lat="42.4129500" lon="-8.6331980">
        <ele>23.3</ele>
        <time>2021-05-21T11:18:58Z</time>
      </trkpt>
      <trkpt lat="42.4129680" lon="-8.6332000">
        <ele>23.3</ele>
        <time>2021-05-21T11:18:59Z</time>
      </trkpt>
      <trkpt lat="42.4129790" lon="-8.6332020">
        <ele>23.3</ele>
        <time>2021-05-21T11:19:00Z</time>
      </trkpt>
      <trkpt lat="42.4129890" lon="-8.6332050">
        <ele>23.2</ele>
        <time>2021-05-21T11:19:01Z</time>
      </trkpt>
      <trkpt lat="42.4129970" lon="-8.6332060">
        <ele>23.2</ele>
        <time>2021-05-21T11:19:02Z</time>
      </trkpt>
      <trkpt lat="42.4130080" lon="-8.6332040">
        <ele>23.2</ele>
        <time>2021-05-21T11:19:03Z</time>
      </trkpt>
      <trkpt lat="42.4130240" lon="-8.6332060">
        <ele>23.2</ele>
        <time>2021-05-21T11:19:04Z</time>
      </trkpt>
      <trkpt lat="42.4130450" lon="-8.6332070">
        <ele>23.1</ele>
        <time>2021-05-21T11:19:05Z</time>
      </trkpt>
      <trkpt lat="42.4130530" lon="-8.6332050">
        <ele>23.1</ele>
        <time>2021-05-21T11:19:06Z</time>
      </trkpt>
      <trkpt lat="42.4130610" lon="-8.6332020">
        <ele>23.1</ele>
        <time>2021-05-21T11:19:07Z</time>
      </trkpt>
      <trkpt lat="42.4130770" lon="-8.6332040">
        <ele>23.1</ele>
        <time>2021-05-21T11:19:08Z</time>
      </trkpt>
      <trkpt lat="42.4130840" lon="-8.6332030">
        <ele>23.1</ele>
        <time>2021-05-21T11:19:09Z</time>
      </trkpt>
      <trkpt lat="42.4130940" lon="-8.6331990">
        <ele>23.0</ele>
        <time>2021-05-21T11:19:10Z</time>
      </trkpt>
      <trkpt lat="42.4131000" lon="-8.6331950">
        <ele>23.0</ele>
        <time>2021-05-21T11:19:11Z</time>
      </trkpt>
      <trkpt lat="42.4131150" lon="-8.6331950">
        <ele>23.0</ele>
        <time>2021-05-21T11:19:12Z</time>
      </trkpt>
      <trkpt lat="42.4131280" lon="-8.6331980">
        <ele>23.0</ele>
        <time>2021-05-21T11:19:13Z</time>
      </trkpt>
      <trkpt lat="42.4131480" lon="-8.6332000">
        <ele>22.9</ele>
        <time>2021-05-21T11:19:14Z</time>
      </trkpt>
      <trkpt lat="42.4131550" lon="-8.6331940">
        <ele>22.9</ele>
        <time>2021-05-21T11:19:15Z</time>
      </trkpt>
      <trkpt lat="42.4131660" lon="-8.6331880">
        <ele>22.9</ele>
        <time>2021-05-21T11:19:16Z</time>
      </trkpt>
      <trkpt lat="42.4131730" lon="-8.6331920">
        <ele>22.9</ele>
        <time>2021-05-21T11:19:17Z</time>
      </trkpt>
      <trkpt lat="42.4131840" lon="-8.6331920">
        <ele>22.9</ele>
        <time>2021-05-21T11:19:18Z</time>
      </trkpt>
      <trkpt lat="42.4132030" lon="-8.6331810">
        <ele>22.8</ele>
        <time>2021-05-21T11:19:19Z</time>
      </trkpt>
      <trkpt lat="42.4132180" lon="-8.6331750">
        <ele>22.8</ele>
        <time>2021-05-21T11:19:20Z</time>
      </trkpt>
      <trkpt lat="42.4132330" lon="-8.6331760">
        <ele>22.8</ele>
        <time>2021-05-21T11:19:21Z</time>
      </trkpt>
      <trkpt lat="42.4132450" lon="-8.6331770">
        <ele>22.8</ele>
        <time>2021-05-21T11:19:22Z</time>
      </trkpt>
      <trkpt lat="42.4132730" lon="-8.6331720">
        <ele>22.7</ele>
        <time>2021-05-21T11:19:23Z</time>
      </trkpt>
      <trkpt lat="42.4132820" lon="-8.6331710">
        <ele>22.7</ele>
        <time>2021-05-21T11:19:24Z</time>
      </trkpt>
      <trkpt lat="42.4132930" lon="-8.6331810">
        <ele>22.7</ele>
        <time>2021-05-21T11:19:25Z</time>
      </trkpt>
      <trkpt lat="42.4133050" lon="-8.6331800">
        <ele>22.7</ele>
        <time>2021-05-21T11:19:26Z</time>
      </trkpt>
      <trkpt lat="42.4133170" lon="-8.6331760">
        <ele>22.6</ele>
        <time>2021-05-21T11:19:27Z</time>
      </trkpt>
      <trkpt lat="42.4133250" lon="-8.6331740">
        <ele>22.6</ele>
        <time>2021-05-21T11:19:28Z</time>
      </trkpt>
      <trkpt lat="42.4133430" lon="-8.6331650">
        <ele>22.6</ele>
        <time>2021-05-21T11:19:29Z</time>
      </trkpt>
      <trkpt lat="42.4133520" lon="-8.6331670">
        <ele>22.6</ele>
        <time>2021-05-21T11:19:30Z</time>
      </trkpt>
      <trkpt lat="42.4133720" lon="-8.6331600">
        <ele>22.6</ele>
        <time>2021-05-21T11:19:31Z</time>
      </trkpt>
      <trkpt lat="42.4133820" lon="-8.6331640">
        <ele>22.5</ele>
        <time>2021-05-21T11:19:32Z</time>
      </trkpt>
      <trkpt lat="42.4133910" lon="-8.6331610">
        <ele>22.5</ele>
        <time>2021-05-21T11:19:33Z</time>
      </trkpt>
      <trkpt lat="42.4134020" lon="-8.6331510">
        <ele>22.5</ele>
        <time>2021-05-21T11:19:34Z</time>
      </trkpt>
      <trkpt lat="42.4134200" lon="-8.6331400">
        <ele>22.5</ele>
        <time>2021-05-21T11:19:35Z</time>
      </trkpt>
      <trkpt lat="42.4134300" lon="-8.6331410">
        <ele>22.5</ele>
        <time>2021-05-21T11:19:36Z</time>
      </trkpt>
      <trkpt lat="42.4134480" lon="-8.6331390">
        <ele>22.4</ele>
        <time>2021-05-21T11:19:37Z</time>
      </trkpt>
      <trkpt lat="42.4134580" lon="-8.6331380">
        <ele>22.4</ele>
        <time>2021-05-21T11:19:38Z</time>
      </trkpt>
      <trkpt lat="42.4134670" lon="-8.6331370">
        <ele>22.4</ele>
        <time>2021-05-21T11:19:39Z</time>
      </trkpt>
      <trkpt lat="42.4134700" lon="-8.6331330">
        <ele>22.4</ele>
        <time>2021-05-21T11:19:40Z</time>
      </trkpt>
      <trkpt lat="42.4134830" lon="-8.6331230">
        <ele>22.4</ele>
        <time>2021-05-21T11:19:41Z</time>
      </trkpt>
      <trkpt lat="42.4134930" lon="-8.6331200">
        <ele>22.4</ele>
        <time>2021-05-21T11:19:42Z</time>
      </trkpt>
      <trkpt lat="42.4134960" lon="-8.6331180">
        <ele>22.4</ele>
        <time>2021-05-21T11:19:43Z</time>
      </trkpt>
      <trkpt lat="42.4135220" lon="-8.6331160">
        <ele>22.3</ele>
        <time>2021-05-21T11:19:44Z</time>
      </trkpt>
      <trkpt lat="42.4135480" lon="-8.6331100">
        <ele>22.3</ele>
        <time>2021-05-21T11:19:45Z</time>
      </trkpt>
      <trkpt lat="42.4135570" lon="-8.6331090">
        <ele>22.3</ele>
        <time>2021-05-21T11:19:46Z</time>
      </trkpt>
      <trkpt lat="42.4135650" lon="-8.6331070">
        <ele>22.3</ele>
        <time>2021-05-21T11:19:47Z</time>
      </trkpt>
      <trkpt lat="42.4135730" lon="-8.6331060">
        <ele>22.3</ele>
        <time>2021-05-21T11:19:48Z</time>
      </trkpt>
      <trkpt lat="42.4135860" lon="-8.6331120">
        <ele>22.2</ele>
        <time>2021-05-21T11:19:49Z</time>
      </trkpt>
      <trkpt lat="42.4135990" lon="-8.6331180">
        <ele>22.2</ele>
        <time>2021-05-21T11:19:50Z</time>
      </trkpt>
      <trkpt lat="42.4136290" lon="-8.6331200">
        <ele>22.2</ele>
        <time>2021-05-21T11:19:51Z</time>
      </trkpt>
      <trkpt lat="42.4136360" lon="-8.6331180">
        <ele>22.2</ele>
        <time>2021-05-21T11:19:52Z</time>
      </trkpt>
      <trkpt lat="42.4136550" lon="-8.6331090">
        <ele>22.1</ele>
        <time>2021-05-21T11:19:53Z</time>
      </trkpt>
      <trkpt lat="42.4136650" lon="-8.6331080">
        <ele>22.1</ele>
        <time>2021-05-21T11:19:54Z</time>
      </trkpt>
      <trkpt lat="42.4136740" lon="-8.6331060">
        <ele>22.1</ele>
        <time>2021-05-21T11:19:55Z</time>
      </trkpt>
      <trkpt lat="42.4136870" lon="-8.6331080">
        <ele>22.1</ele>
        <time>2021-05-21T11:19:56Z</time>
      </trkpt>
      <trkpt lat="42.4137040" lon="-8.6331050">
        <ele>22.1</ele>
        <time>2021-05-21T11:19:57Z</time>
      </trkpt>
      <trkpt lat="42.4137220" lon="-8.6331010">
        <ele>22.1</ele>
        <time>2021-05-21T11:19:58Z</time>
      </trkpt>
      <trkpt lat="42.4137330" lon="-8.6330950">
        <ele>22.0</ele>
        <time>2021-05-21T11:19:59Z</time>
      </trkpt>
      <trkpt lat="42.4137350" lon="-8.6330870">
        <ele>22.0</ele>
        <time>2021-05-21T11:20:00Z</time>
      </trkpt>
      <trkpt lat="42.4137440" lon="-8.6330720">
        <ele>22.0</ele>
        <time>2021-05-21T11:20:01Z</time>
      </trkpt>
      <trkpt lat="42.4137520" lon="-8.6330650">
        <ele>22.0</ele>
        <time>2021-05-21T11:20:02Z</time>
      </trkpt>
      <trkpt lat="42.4137760" lon="-8.6330730">
        <ele>22.0</ele>
        <time>2021-05-21T11:20:03Z</time>
      </trkpt>
      <trkpt lat="42.4137860" lon="-8.6330740">
        <ele>21.9</ele>
        <time>2021-05-21T11:20:04Z</time>
      </trkpt>
      <trkpt lat="42.4137950" lon="-8.6330760">
        <ele>21.9</ele>
        <time>2021-05-21T11:20:05Z</time>
      </trkpt>
      <trkpt lat="42.4138100" lon="-8.6330740">
        <ele>21.9</ele>
        <time>2021-05-21T11:20:06Z</time>
      </trkpt>
      <trkpt lat="42.4138240" lon="-8.6330700">
        <ele>21.9</ele>
        <time>2021-05-21T11:20:07Z</time>
      </trkpt>
      <trkpt lat="42.4138390" lon="-8.6330740">
        <ele>21.9</ele>
        <time>2021-05-21T11:20:08Z</time>
      </trkpt>
      <trkpt lat="42.4138570" lon="-8.6330800">
        <ele>21.9</ele>
        <time>2021-05-21T11:20:09Z</time>
      </trkpt>
      <trkpt lat="42.4138700" lon="-8.6330840">
        <ele>21.8</ele>
        <time>2021-05-21T11:20:10Z</time>
      </trkpt>
      <trkpt lat="42.4138860" lon="-8.6330940">
        <ele>21.8</ele>
        <time>2021-05-21T11:20:11Z</time>
      </trkpt>
      <trkpt lat="42.4138960" lon="-8.6330970">
        <ele>21.8</ele>
        <time>2021-05-21T11:20:12Z</time>
      </trkpt>
      <trkpt lat="42.4139090" lon="-8.6330890">
        <ele>21.8</ele>
        <time>2021-05-21T11:20:13Z</time>
      </trkpt>
      <trkpt lat="42.4139200" lon="-8.6330930">
        <ele>21.8</ele>
        <time>2021-05-21T11:20:14Z</time>
      </trkpt>
      <trkpt lat="42.4139320" lon="-8.6330850">
        <ele>21.8</ele>
        <time>2021-05-21T11:20:15Z</time>
      </trkpt>
      <trkpt lat="42.4139470" lon="-8.6330820">
        <ele>21.8</ele>
        <time>2021-05-21T11:20:16Z</time>
      </trkpt>
      <trkpt lat="42.4139630" lon="-8.6330760">
        <ele>21.7</ele>
        <time>2021-05-21T11:20:17Z</time>
      </trkpt>
      <trkpt lat="42.4139690" lon="-8.6330730">
        <ele>21.7</ele>
        <time>2021-05-21T11:20:18Z</time>
      </trkpt>
      <trkpt lat="42.4139760" lon="-8.6330690">
        <ele>21.7</ele>
        <time>2021-05-21T11:20:19Z</time>
      </trkpt>
      <trkpt lat="42.4139820" lon="-8.6330660">
        <ele>21.7</ele>
        <time>2021-05-21T11:20:20Z</time>
      </trkpt>
      <trkpt lat="42.4139960" lon="-8.6330670">
        <ele>21.7</ele>
        <time>2021-05-21T11:20:21Z</time>
      </trkpt>
      <trkpt lat="42.4140140" lon="-8.6330590">
        <ele>21.7</ele>
        <time>2021-05-21T11:20:22Z</time>
      </trkpt>
      <trkpt lat="42.4140300" lon="-8.6330580">
        <ele>21.7</ele>
        <time>2021-05-21T11:20:23Z</time>
      </trkpt>
      <trkpt lat="42.4140440" lon="-8.6330580">
        <ele>21.7</ele>
        <time>2021-05-21T11:20:24Z</time>
      </trkpt>
      <trkpt lat="42.4140670" lon="-8.6330610">
        <ele>21.6</ele>
        <time>2021-05-21T11:20:25Z</time>
      </trkpt>
      <trkpt lat="42.4140760" lon="-8.6330640">
        <ele>21.6</ele>
        <time>2021-05-21T11:20:26Z</time>
      </trkpt>
      <trkpt lat="42.4140860" lon="-8.6330660">
        <ele>21.6</ele>
        <time>2021-05-21T11:20:27Z</time>
      </trkpt>
      <trkpt lat="42.4140930" lon="-8.6330690">
        <ele>21.6</ele>
        <time>2021-05-21T11:20:28Z</time>
      </trkpt>
      <trkpt lat="42.4141100" lon="-8.6330710">
        <ele>21.6</ele>
        <time>2021-05-21T11:20:29Z</time>
      </trkpt>
      <trkpt lat="42.4141170" lon="-8.6330750">
        <ele>21.6</ele>
        <time>2021-05-21T11:20:30Z</time>
      </trkpt>
      <trkpt lat="42.4141420" lon="-8.6330790">
        <ele>21.6</ele>
        <time>2021-05-21T11:20:31Z</time>
      </trkpt>
      <trkpt lat="42.4141500" lon="-8.6330800">
        <ele>21.6</ele>
        <time>2021-05-21T11:20:32Z</time>
      </trkpt>
      <trkpt lat="42.4141590" lon="-8.6330800">
        <ele>21.6</ele>
        <time>2021-05-21T11:20:33Z</time>
      </trkpt>
      <trkpt lat="42.4141800" lon="-8.6330880">
        <ele>21.5</ele>
        <time>2021-05-21T11:20:34Z</time>
      </trkpt>
      <trkpt lat="42.4141870" lon="-8.6330920">
        <ele>21.5</ele>
        <time>2021-05-21T11:20:35Z</time>
      </trkpt>
      <trkpt lat="42.4141950" lon="-8.6330950">
        <ele>21.5</ele>
        <time>2021-05-21T11:20:36Z</time>
      </trkpt>
      <trkpt lat="42.4142170" lon="-8.6331030">
        <ele>21.5</ele>
        <time>2021-05-21T11:20:37Z</time>
      </trkpt>
      <trkpt lat="42.4142270" lon="-8.6331070">
        <ele>21.5</ele>
        <time>2021-05-21T11:20:38Z</time>
      </trkpt>
      <trkpt lat="42.4142360" lon="-8.6331110">
        <ele>21.5</ele>
        <time>2021-05-21T11:20:39Z</time>
      </trkpt>
      <trkpt lat="42.4142410" lon="-8.6331120">
        <ele>21.5</ele>
        <time>2021-05-21T11:20:40Z</time>
      </trkpt>
      <trkpt lat="42.4142550" lon="-8.6331130">
        <ele>21.5</ele>
        <time>2021-05-21T11:20:41Z</time>
      </trkpt>
      <trkpt lat="42.4142660" lon="-8.6331200">
        <ele>21.5</ele>
        <time>2021-05-21T11:20:42Z</time>
      </trkpt>
      <trkpt lat="42.4142790" lon="-8.6331250">
        <ele>21.5</ele>
        <time>2021-05-21T11:20:43Z</time>
      </trkpt>
      <trkpt lat="42.4142940" lon="-8.6331260">
        <ele>21.5</ele>
        <time>2021-05-21T11:20:44Z</time>
      </trkpt>
      <trkpt lat="42.4143150" lon="-8.6331260">
        <ele>21.5</ele>
        <time>2021-05-21T11:20:45Z</time>
      </trkpt>
      <trkpt lat="42.4143240" lon="-8.6331260">
        <ele>21.4</ele>
        <time>2021-05-21T11:20:46Z</time>
      </trkpt>
      <trkpt lat="42.4143320" lon="-8.6331250">
        <ele>21.4</ele>
        <time>2021-05-21T11:20:47Z</time>
      </trkpt>
      <trkpt lat="42.4143430" lon="-8.6331260">
        <ele>21.4</ele>
        <time>2021-05-21T11:20:48Z</time>
      </trkpt>
      <trkpt lat="42.4143550" lon="-8.6331350">
        <ele>21.4</ele>
        <time>2021-05-21T11:20:49Z</time>
      </trkpt>
      <trkpt lat="42.4143650" lon="-8.6331380">
        <ele>21.4</ele>
        <time>2021-05-21T11:20:50Z</time>
      </trkpt>
      <trkpt lat="42.4143850" lon="-8.6331420">
        <ele>21.4</ele>
        <time>2021-05-21T11:20:51Z</time>
      </trkpt>
      <trkpt lat="42.4143930" lon="-8.6331430">
        <ele>21.4</ele>
        <time>2021-05-21T11:20:52Z</time>
      </trkpt>
      <trkpt lat="42.4144010" lon="-8.6331430">
        <ele>21.4</ele>
        <time>2021-05-21T11:20:53Z</time>
      </trkpt>
      <trkpt lat="42.4144120" lon="-8.6331480">
        <ele>21.4</ele>
        <time>2021-05-21T11:20:54Z</time>
      </trkpt>
      <trkpt lat="42.4144250" lon="-8.6331480">
        <ele>21.4</ele>
        <time>2021-05-21T11:20:55Z</time>
      </trkpt>
      <trkpt lat="42.4144360" lon="-8.6331520">
        <ele>21.4</ele>
        <time>2021-05-21T11:20:56Z</time>
      </trkpt>
      <trkpt lat="42.4144550" lon="-8.6331560">
        <ele>21.4</ele>
        <time>2021-05-21T11:20:57Z</time>
      </trkpt>
      <trkpt lat="42.4144640" lon="-8.6331630">
        <ele>21.4</ele>
        <time>2021-05-21T11:20:58Z</time>
      </trkpt>
      <trkpt lat="42.4144720" lon="-8.6331690">
        <ele>21.4</ele>
        <time>2021-05-21T11:20:59Z</time>
      </trkpt>
      <trkpt lat="42.4144890" lon="-8.6331750">
        <ele>21.3</ele>
        <time>2021-05-21T11:21:00Z</time>
      </trkpt>
      <trkpt lat="42.4145040" lon="-8.6331760">
        <ele>21.3</ele>
        <time>2021-05-21T11:21:01Z</time>
      </trkpt>
      <trkpt lat="42.4145210" lon="-8.6331800">
        <ele>21.3</ele>
        <time>2021-05-21T11:21:02Z</time>
      </trkpt>
      <trkpt lat="42.4145290" lon="-8.6331870">
        <ele>21.3</ele>
        <time>2021-05-21T11:21:03Z</time>
      </trkpt>
      <trkpt lat="42.4145470" lon="-8.6331920">
        <ele>21.3</ele>
        <time>2021-05-21T11:21:04Z</time>
      </trkpt>
      <trkpt lat="42.4145560" lon="-8.6331960">
        <ele>21.3</ele>
        <time>2021-05-21T11:21:05Z</time>
      </trkpt>
      <trkpt lat="42.4145650" lon="-8.6332010">
        <ele>21.3</ele>
        <time>2021-05-21T11:21:06Z</time>
      </trkpt>
      <trkpt lat="42.4145700" lon="-8.6331950">
        <ele>21.3</ele>
        <time>2021-05-21T11:21:07Z</time>
      </trkpt>
      <trkpt lat="42.4145830" lon="-8.6332010">
        <ele>21.3</ele>
        <time>2021-05-21T11:21:08Z</time>
      </trkpt>
      <trkpt lat="42.4145920" lon="-8.6332100">
        <ele>21.3</ele>
        <time>2021-05-21T11:21:09Z</time>
      </trkpt>
      <trkpt lat="42.4146080" lon="-8.6332130">
        <ele>21.3</ele>
        <time>2021-05-21T11:21:10Z</time>
      </trkpt>
      <trkpt lat="42.4146200" lon="-8.6332150">
        <ele>21.3</ele>
        <time>2021-05-21T11:21:11Z</time>
      </trkpt>
      <trkpt lat="42.4146300" lon="-8.6332220">
        <ele>21.3</ele>
        <time>2021-05-21T11:21:12Z</time>
      </trkpt>
      <trkpt lat="42.4146380" lon="-8.6332230">
        <ele>21.3</ele>
        <time>2021-05-21T11:21:13Z</time>
      </trkpt>
      <trkpt lat="42.4146470" lon="-8.6332250">
        <ele>21.3</ele>
        <time>2021-05-21T11:21:14Z</time>
      </trkpt>
      <trkpt lat="42.4146650" lon="-8.6332290">
        <ele>21.3</ele>
        <time>2021-05-21T11:21:15Z</time>
      </trkpt>
      <trkpt lat="42.4146820" lon="-8.6332340">
        <ele>21.2</ele>
        <time>2021-05-21T11:21:16Z</time>
      </trkpt>
      <trkpt lat="42.4146950" lon="-8.6332390">
        <ele>21.2</ele>
        <time>2021-05-21T11:21:17Z</time>
      </trkpt>
      <trkpt lat="42.4147040" lon="-8.6332440">
        <ele>21.2</ele>
        <time>2021-05-21T11:21:18Z</time>
      </trkpt>
      <trkpt lat="42.4147090" lon="-8.6332490">
        <ele>21.2</ele>
        <time>2021-05-21T11:21:19Z</time>
      </trkpt>
      <trkpt lat="42.4147270" lon="-8.6332590">
        <ele>21.2</ele>
        <time>2021-05-21T11:21:20Z</time>
      </trkpt>
      <trkpt lat="42.4147330" lon="-8.6332640">
        <ele>21.2</ele>
        <time>2021-05-21T11:21:21Z</time>
      </trkpt>
      <trkpt lat="42.4147430" lon="-8.6332620">
        <ele>21.2</ele>
        <time>2021-05-21T11:21:22Z</time>
      </trkpt>
      <trkpt lat="42.4147620" lon="-8.6332660">
        <ele>21.2</ele>
        <time>2021-05-21T11:21:23Z</time>
      </trkpt>
      <trkpt lat="42.4147750" lon="-8.6332690">
        <ele>21.2</ele>
        <time>2021-05-21T11:21:24Z</time>
      </trkpt>
      <trkpt lat="42.4147950" lon="-8.6332700">
        <ele>21.2</ele>
        <time>2021-05-21T11:21:25Z</time>
      </trkpt>
      <trkpt lat="42.4148060" lon="-8.6332700">
        <ele>21.2</ele>
        <time>2021-05-21T11:21:26Z</time>
      </trkpt>
      <trkpt lat="42.4148160" lon="-8.6332710">
        <ele>21.2</ele>
        <time>2021-05-21T11:21:27Z</time>
      </trkpt>
      <trkpt lat="42.4148330" lon="-8.6332660">
        <ele>21.2</ele>
        <time>2021-05-21T11:21:28Z</time>
      </trkpt>
      <trkpt lat="42.4148500" lon="-8.6332660">
        <ele>21.2</ele>
        <time>2021-05-21T11:21:29Z</time>
      </trkpt>
      <trkpt lat="42.4148710" lon="-8.6332630">
        <ele>21.2</ele>
        <time>2021-05-21T11:21:30Z</time>
      </trkpt>
      <trkpt lat="42.4148810" lon="-8.6332680">
        <ele>21.2</ele>
        <time>2021-05-21T11:21:31Z</time>
      </trkpt>
      <trkpt lat="42.4148910" lon="-8.6332730">
        <ele>21.2</ele>
        <time>2021-05-21T11:21:32Z</time>
      </trkpt>
      <trkpt lat="42.4149050" lon="-8.6332740">
        <ele>21.1</ele>
        <time>2021-05-21T11:21:33Z</time>
      </trkpt>
      <trkpt lat="42.4149170" lon="-8.6332730">
        <ele>21.1</ele>
        <time>2021-05-21T11:21:34Z</time>
      </trkpt>
      <trkpt lat="42.4149240" lon="-8.6332780">
        <ele>21.1</ele>
        <time>2021-05-21T11:21:35Z</time>
      </trkpt>
      <trkpt lat="42.4149360" lon="-8.6332760">
        <ele>21.1</ele>
        <time>2021-05-21T11:21:36Z</time>
      </trkpt>
      <trkpt lat="42.4149540" lon="-8.6332800">
        <ele>21.1</ele>
        <time>2021-05-21T11:21:37Z</time>
      </trkpt>
      <trkpt lat="42.4149630" lon="-8.6332880">
        <ele>21.1</ele>
        <time>2021-05-21T11:21:38Z</time>
      </trkpt>
      <trkpt lat="42.4149700" lon="-8.6332950">
        <ele>21.1</ele>
        <time>2021-05-21T11:21:39Z</time>
      </trkpt>
      <trkpt lat="42.4149840" lon="-8.6333010">
        <ele>21.1</ele>
        <time>2021-05-21T11:21:40Z</time>
      </trkpt>
      <trkpt lat="42.4149990" lon="-8.6333030">
        <ele>21.1</ele>
        <time>2021-05-21T11:21:41Z</time>
      </trkpt>
      <trkpt lat="42.4150080" lon="-8.6333060">
        <ele>21.1</ele>
        <time>2021-05-21T11:21:42Z</time>
      </trkpt>
      <trkpt lat="42.4150160" lon="-8.6333090">
        <ele>21.1</ele>
        <time>2021-05-21T11:21:43Z</time>
      </trkpt>
      <trkpt lat="42.4150240" lon="-8.6333120">
        <ele>21.1</ele>
        <time>2021-05-21T11:21:44Z</time>
      </trkpt>
      <trkpt lat="42.4150350" lon="-8.6333130">
        <ele>21.1</ele>
        <time>2021-05-21T11:21:45Z</time>
      </trkpt>
      <trkpt lat="42.4150490" lon="-8.6333120">
        <ele>21.1</ele>
        <time>2021-05-21T11:21:46Z</time>
      </trkpt>
      <trkpt lat="42.4150550" lon="-8.6333100">
        <ele>21.1</ele>
        <time>2021-05-21T11:21:47Z</time>
      </trkpt>
      <trkpt lat="42.4150620" lon="-8.6333070">
        <ele>21.1</ele>
        <time>2021-05-21T11:21:48Z</time>
      </trkpt>
      <trkpt lat="42.4150770" lon="-8.6333070">
        <ele>21.1</ele>
        <time>2021-05-21T11:21:49Z</time>
      </trkpt>
      <trkpt lat="42.4150880" lon="-8.6333100">
        <ele>21.1</ele>
        <time>2021-05-21T11:21:50Z</time>
      </trkpt>
      <trkpt lat="42.4150990" lon="-8.6333070">
        <ele>21.1</ele>
        <time>2021-05-21T11:21:51Z</time>
      </trkpt>
      <trkpt lat="42.4151150" lon="-8.6332980">
        <ele>21.1</ele>
        <time>2021-05-21T11:21:52Z</time>
      </trkpt>
      <trkpt lat="42.4151410" lon="-8.6332910">
        <ele>21.1</ele>
        <time>2021-05-21T11:21:53Z</time>
      </trkpt>
      <trkpt lat="42.4151500" lon="-8.6332900">
        <ele>21.1</ele>
        <time>2021-05-21T11:21:54Z</time>
      </trkpt>
      <trkpt lat="42.4151650" lon="-8.6332920">
        <ele>21.1</ele>
        <time>2021-05-21T11:21:55Z</time>
      </trkpt>
      <trkpt lat="42.4151740" lon="-8.6332910">
        <ele>21.1</ele>
        <time>2021-05-21T11:21:56Z</time>
      </trkpt>
      <trkpt lat="42.4151860" lon="-8.6332910">
        <ele>21.1</ele>
        <time>2021-05-21T11:21:57Z</time>
      </trkpt>
      <trkpt lat="42.4152050" lon="-8.6332860">
        <ele>21.1</ele>
        <time>2021-05-21T11:21:58Z</time>
      </trkpt>
      <trkpt lat="42.4152130" lon="-8.6332890">
        <ele>21.1</ele>
        <time>2021-05-21T11:21:59Z</time>
      </trkpt>
      <trkpt lat="42.4152390" lon="-8.6332820">
        <ele>21.1</ele>
        <time>2021-05-21T11:22:00Z</time>
      </trkpt>
      <trkpt lat="42.4152490" lon="-8.6332770">
        <ele>21.1</ele>
        <time>2021-05-21T11:22:01Z</time>
      </trkpt>
      <trkpt lat="42.4152630" lon="-8.6332710">
        <ele>21.1</ele>
        <time>2021-05-21T11:22:02Z</time>
      </trkpt>
      <trkpt lat="42.4152760" lon="-8.6332640">
        <ele>21.1</ele>
        <time>2021-05-21T11:22:03Z</time>
      </trkpt>
      <trkpt lat="42.4152950" lon="-8.6332600">
        <ele>21.1</ele>
        <time>2021-05-21T11:22:04Z</time>
      </trkpt>
      <trkpt lat="42.4153080" lon="-8.6332600">
        <ele>21.1</ele>
        <time>2021-05-21T11:22:05Z</time>
      </trkpt>
      <trkpt lat="42.4153210" lon="-8.6332600">
        <ele>21.1</ele>
        <time>2021-05-21T11:22:06Z</time>
      </trkpt>
      <trkpt lat="42.4153330" lon="-8.6332520">
        <ele>21.1</ele>
        <time>2021-05-21T11:22:07Z</time>
      </trkpt>
      <trkpt lat="42.4153480" lon="-8.6332410">
        <ele>21.1</ele>
        <time>2021-05-21T11:22:08Z</time>
      </trkpt>
      <trkpt lat="42.4153620" lon="-8.6332470">
        <ele>21.1</ele>
        <time>2021-05-21T11:22:09Z</time>
      </trkpt>
      <trkpt lat="42.4153790" lon="-8.6332500">
        <ele>21.1</ele>
        <time>2021-05-21T11:22:10Z</time>
      </trkpt>
      <trkpt lat="42.4153950" lon="-8.6332520">
        <ele>21.1</ele>
        <time>2021-05-21T11:22:11Z</time>
      </trkpt>
      <trkpt lat="42.4154090" lon="-8.6332450">
        <ele>21.1</ele>
        <time>2021-05-21T11:22:12Z</time>
      </trkpt>
      <trkpt lat="42.4154170" lon="-8.6332280">
        <ele>21.1</ele>
        <time>2021-05-21T11:22:13Z</time>
      </trkpt>
      <trkpt lat="42.4154310" lon="-8.6332150">
        <ele>21.1</ele>
        <time>2021-05-21T11:22:14Z</time>
      </trkpt>
      <trkpt lat="42.4154490" lon="-8.6331930">
        <ele>21.1</ele>
        <time>2021-05-21T11:22:15Z</time>
      </trkpt>
      <trkpt lat="42.4154510" lon="-8.6331840">
        <ele>21.1</ele>
        <time>2021-05-21T11:22:16Z</time>
      </trkpt>
      <trkpt lat="42.4154540" lon="-8.6331750">
        <ele>21.1</ele>
        <time>2021-05-21T11:22:17Z</time>
      </trkpt>
      <trkpt lat="42.4154560" lon="-8.6331590">
        <ele>21.1</ele>
        <time>2021-05-21T11:22:18Z</time>
      </trkpt>
      <trkpt lat="42.4154650" lon="-8.6331570">
        <ele>21.1</ele>
        <time>2021-05-21T11:22:19Z</time>
      </trkpt>
      <trkpt lat="42.4154810" lon="-8.6331520">
        <ele>21.1</ele>
        <time>2021-05-21T11:22:20Z</time>
      </trkpt>
      <trkpt lat="42.4154910" lon="-8.6331390">
        <ele>21.1</ele>
        <time>2021-05-21T11:22:21Z</time>
      </trkpt>
      <trkpt lat="42.4155000" lon="-8.6331280">
        <ele>21.1</ele>
        <time>2021-05-21T11:22:22Z</time>
      </trkpt>
      <trkpt lat="42.4155130" lon="-8.6331380">
        <ele>21.1</ele>
        <time>2021-05-21T11:22:23Z</time>
      </trkpt>
      <trkpt lat="42.4155290" lon="-8.6331350">
        <ele>21.1</ele>
        <time>2021-05-21T11:22:24Z</time>
      </trkpt>
      <trkpt lat="42.4155420" lon="-8.6331390">
        <ele>21.1</ele>
        <time>2021-05-21T11:22:25Z</time>
      </trkpt>
      <trkpt lat="42.4155470" lon="-8.6331550">
        <ele>21.1</ele>
        <time>2021-05-21T11:22:26Z</time>
      </trkpt>
      <trkpt lat="42.4155590" lon="-8.6331490">
        <ele>21.1</ele>
        <time>2021-05-21T11:22:27Z</time>
      </trkpt>
      <trkpt lat="42.4155710" lon="-8.6331480">
        <ele>21.1</ele>
        <time>2021-05-21T11:22:28Z</time>
      </trkpt>
      <trkpt lat="42.4155900" lon="-8.6331480">
        <ele>21.1</ele>
        <time>2021-05-21T11:22:29Z</time>
      </trkpt>
      <trkpt lat="42.4156000" lon="-8.6331460">
        <ele>21.1</ele>
        <time>2021-05-21T11:22:30Z</time>
      </trkpt>
      <trkpt lat="42.4156080" lon="-8.6331510">
        <ele>21.1</ele>
        <time>2021-05-21T11:22:31Z</time>
      </trkpt>
      <trkpt lat="42.4156190" lon="-8.6331500">
        <ele>21.1</ele>
        <time>2021-05-21T11:22:32Z</time>
      </trkpt>
      <trkpt lat="42.4156300" lon="-8.6331550">
        <ele>21.1</ele>
        <time>2021-05-21T11:22:33Z</time>
      </trkpt>
      <trkpt lat="42.4156450" lon="-8.6331590">
        <ele>21.1</ele>
        <time>2021-05-21T11:22:34Z</time>
      </trkpt>
      <trkpt lat="42.4156570" lon="-8.6331600">
        <ele>21.1</ele>
        <time>2021-05-21T11:22:35Z</time>
      </trkpt>
      <trkpt lat="42.4156740" lon="-8.6331610">
        <ele>21.1</ele>
        <time>2021-05-21T11:22:36Z</time>
      </trkpt>
      <trkpt lat="42.4156850" lon="-8.6331590">
        <ele>21.1</ele>
        <time>2021-05-21T11:22:37Z</time>
      </trkpt>
      <trkpt lat="42.4156970" lon="-8.6331660">
        <ele>21.1</ele>
        <time>2021-05-21T11:22:38Z</time>
      </trkpt>
      <trkpt lat="42.4157030" lon="-8.6331710">
        <ele>21.1</ele>
        <time>2021-05-21T11:22:39Z</time>
      </trkpt>
      <trkpt lat="42.4157170" lon="-8.6331800">
        <ele>21.1</ele>
        <time>2021-05-21T11:22:40Z</time>
      </trkpt>
      <trkpt lat="42.4157280" lon="-8.6331830">
        <ele>21.1</ele>
        <time>2021-05-21T11:22:41Z</time>
      </trkpt>
      <trkpt lat="42.4157440" lon="-8.6331840">
        <ele>21.1</ele>
        <time>2021-05-21T11:22:42Z</time>
      </trkpt>
      <trkpt lat="42.4157650" lon="-8.6331920">
        <ele>21.1</ele>
        <time>2021-05-21T11:22:43Z</time>
      </trkpt>
      <trkpt lat="42.4157740" lon="-8.6331930">
        <ele>21.1</ele>
        <time>2021-05-21T11:22:44Z</time>
      </trkpt>
      <trkpt lat="42.4157830" lon="-8.6331950">
        <ele>21.1</ele>
        <time>2021-05-21T11:22:45Z</time>
      </trkpt>
      <trkpt lat="42.4157990" lon="-8.6332030">
        <ele>21.1</ele>
        <time>2021-05-21T11:22:46Z</time>
      </trkpt>
      <trkpt lat="42.4158120" lon="-8.6332130">
        <ele>21.1</ele>
        <time>2021-05-21T11:22:47Z</time>
      </trkpt>
      <trkpt lat="42.4158190" lon="-8.6332160">
        <ele>21.1</ele>
        <time>2021-05-21T11:22:48Z</time>
      </trkpt>
      <trkpt lat="42.4158250" lon="-8.6332170">
        <ele>21.1</ele>
        <time>2021-05-21T11:22:49Z</time>
      </trkpt>
      <trkpt lat="42.4158370" lon="-8.6332190">
        <ele>21.1</ele>
        <time>2021-05-21T11:22:50Z</time>
      </trkpt>
      <trkpt lat="42.4158400" lon="-8.6332040">
        <ele>21.1</ele>
        <time>2021-05-21T11:22:51Z</time>
      </trkpt>
      <trkpt lat="42.4158520" lon="-8.6331880">
        <ele>21.1</ele>
        <time>2021-05-21T11:22:52Z</time>
      </trkpt>
      <trkpt lat="42.4158570" lon="-8.6331850">
        <ele>21.2</ele>
        <time>2021-05-21T11:22:53Z</time>
      </trkpt>
      <trkpt lat="42.4158650" lon="-8.6331770">
        <ele>21.2</ele>
        <time>2021-05-21T11:22:54Z</time>
      </trkpt>
      <trkpt lat="42.4158760" lon="-8.6331730">
        <ele>21.2</ele>
        <time>2021-05-21T11:22:55Z</time>
      </trkpt>
      <trkpt lat="42.4158970" lon="-8.6331740">
        <ele>21.2</ele>
        <time>2021-05-21T11:22:56Z</time>
      </trkpt>
      <trkpt lat="42.4159040" lon="-8.6331810">
        <ele>21.2</ele>
        <time>2021-05-21T11:22:57Z</time>
      </trkpt>
      <trkpt lat="42.4159130" lon="-8.6331880">
        <ele>21.2</ele>
        <time>2021-05-21T11:22:58Z</time>
      </trkpt>
      <trkpt lat="42.4159260" lon="-8.6331990">
        <ele>21.2</ele>
        <time>2021-05-21T11:22:59Z</time>
      </trkpt>
      <trkpt lat="42.4159410" lon="-8.6332070">
        <ele>21.2</ele>
        <time>2021-05-21T11:23:00Z</time>
      </trkpt>
      <trkpt lat="42.4159490" lon="-8.6332090">
        <ele>21.2</ele>
        <time>2021-05-21T11:23:01Z</time>
      </trkpt>
      <trkpt lat="42.4159590" lon="-8.6332180">
        <ele>21.2</ele>
        <time>2021-05-21T11:23:02Z</time>
      </trkpt>
      <trkpt lat="42.4159530" lon="-8.6332200">
        <ele>21.2</ele>
        <time>2021-05-21T11:23:03Z</time>
      </trkpt>
      <trkpt lat="42.4159490" lon="-8.6332240">
        <ele>21.2</ele>
        <time>2021-05-21T11:23:04Z</time>
      </trkpt>
      <trkpt lat="42.4159540" lon="-8.6332260">
        <ele>21.2</ele>
        <time>2021-05-21T11:23:05Z</time>
      </trkpt>
      <trkpt lat="42.4159670" lon="-8.6332270">
        <ele>21.2</ele>
        <time>2021-05-21T11:23:06Z</time>
      </trkpt>
      <trkpt lat="42.4159780" lon="-8.6332330">
        <ele>21.2</ele>
        <time>2021-05-21T11:23:07Z</time>
      </trkpt>
      <trkpt lat="42.4159850" lon="-8.6332320">
        <ele>21.2</ele>
        <time>2021-05-21T11:23:08Z</time>
      </trkpt>
      <trkpt lat="42.4159910" lon="-8.6332280">
        <ele>21.2</ele>
        <time>2021-05-21T11:23:09Z</time>
      </trkpt>
      <trkpt lat="42.4159890" lon="-8.6332290">
        <ele>21.2</ele>
        <time>2021-05-21T11:23:10Z</time>
      </trkpt>
      <trkpt lat="42.4159830" lon="-8.6332270">
        <ele>21.2</ele>
        <time>2021-05-21T11:23:11Z</time>
      </trkpt>
      <trkpt lat="42.4159780" lon="-8.6332290">
        <ele>21.2</ele>
        <time>2021-05-21T11:23:12Z</time>
      </trkpt>
      <trkpt lat="42.4159780" lon="-8.6332310">
        <ele>21.2</ele>
        <time>2021-05-21T11:23:13Z</time>
      </trkpt>
      <trkpt lat="42.4159840" lon="-8.6332280">
        <ele>21.2</ele>
        <time>2021-05-21T11:23:14Z</time>
      </trkpt>
      <trkpt lat="42.4159850" lon="-8.6332290">
        <ele>21.2</ele>
        <time>2021-05-21T11:23:15Z</time>
      </trkpt>
      <trkpt lat="42.4159850" lon="-8.6332290">
        <ele>21.2</ele>
        <time>2021-05-21T11:23:16Z</time>
      </trkpt>
      <trkpt lat="42.4159880" lon="-8.6332280">
        <ele>21.2</ele>
        <time>2021-05-21T11:23:17Z</time>
      </trkpt>
      <trkpt lat="42.4159910" lon="-8.6332210">
        <ele>21.2</ele>
        <time>2021-05-21T11:23:18Z</time>
      </trkpt>
      <trkpt lat="42.4159990" lon="-8.6332190">
        <ele>21.2</ele>
        <time>2021-05-21T11:23:19Z</time>
      </trkpt>
      <trkpt lat="42.4160000" lon="-8.6332210">
        <ele>21.2</ele>
        <time>2021-05-21T11:23:20Z</time>
      </trkpt>
      <trkpt lat="42.4160050" lon="-8.6332180">
        <ele>21.2</ele>
        <time>2021-05-21T11:23:21Z</time>
      </trkpt>
      <trkpt lat="42.4160080" lon="-8.6332150">
        <ele>21.2</ele>
        <time>2021-05-21T11:23:22Z</time>
      </trkpt>
      <trkpt lat="42.4160090" lon="-8.6332160">
        <ele>21.2</ele>
        <time>2021-05-21T11:23:23Z</time>
      </trkpt>
      <trkpt lat="42.4160040" lon="-8.6332160">
        <ele>21.2</ele>
        <time>2021-05-21T11:23:24Z</time>
      </trkpt>
      <trkpt lat="42.4160000" lon="-8.6332190">
        <ele>21.2</ele>
        <time>2021-05-21T11:23:25Z</time>
      </trkpt>
      <trkpt lat="42.4159980" lon="-8.6332200">
        <ele>21.2</ele>
        <time>2021-05-21T11:23:26Z</time>
      </trkpt>
      <trkpt lat="42.4159950" lon="-8.6332250">
        <ele>21.2</ele>
        <time>2021-05-21T11:23:27Z</time>
      </trkpt>
      <trkpt lat="42.4159940" lon="-8.6332230">
        <ele>21.2</ele>
        <time>2021-05-21T11:23:28Z</time>
      </trkpt>
      <trkpt lat="42.4159930" lon="-8.6332240">
        <ele>21.2</ele>
        <time>2021-05-21T11:23:29Z</time>
      </trkpt>
      <trkpt lat="42.4159920" lon="-8.6332250">
        <ele>21.2</ele>
        <time>2021-05-21T11:23:30Z</time>
      </trkpt>
      <trkpt lat="42.4159920" lon="-8.6332240">
        <ele>21.2</ele>
        <time>2021-05-21T11:23:31Z</time>
      </trkpt>
      <trkpt lat="42.4159930" lon="-8.6332270">
        <ele>21.2</ele>
        <time>2021-05-21T11:23:32Z</time>
      </trkpt>
      <trkpt lat="42.4160050" lon="-8.6332200">
        <ele>21.2</ele>
        <time>2021-05-21T11:23:33Z</time>
      </trkpt>
      <trkpt lat="42.4160150" lon="-8.6332180">
        <ele>21.2</ele>
        <time>2021-05-21T11:23:34Z</time>
      </trkpt>
      <trkpt lat="42.4160140" lon="-8.6332190">
        <ele>21.2</ele>
        <time>2021-05-21T11:23:35Z</time>
      </trkpt>
      <trkpt lat="42.4160090" lon="-8.6332170">
        <ele>21.2</ele>
        <time>2021-05-21T11:23:36Z</time>
      </trkpt>
      <trkpt lat="42.4160080" lon="-8.6332160">
        <ele>21.2</ele>
        <time>2021-05-21T11:23:37Z</time>
      </trkpt>
      <trkpt lat="42.4160070" lon="-8.6332180">
        <ele>21.2</ele>
        <time>2021-05-21T11:23:38Z</time>
      </trkpt>
      <trkpt lat="42.4160080" lon="-8.6332180">
        <ele>21.2</ele>
        <time>2021-05-21T11:23:39Z</time>
      </trkpt>
      <trkpt lat="42.4160080" lon="-8.6332200">
        <ele>21.2</ele>
        <time>2021-05-21T11:23:40Z</time>
      </trkpt>
      <trkpt lat="42.4160110" lon="-8.6332200">
        <ele>21.2</ele>
        <time>2021-05-21T11:23:41Z</time>
      </trkpt>
      <trkpt lat="42.4160130" lon="-8.6332170">
        <ele>21.2</ele>
        <time>2021-05-21T11:23:42Z</time>
      </trkpt>
      <trkpt lat="42.4160130" lon="-8.6332150">
        <ele>21.2</ele>
        <time>2021-05-21T11:23:43Z</time>
      </trkpt>
      <trkpt lat="42.4160090" lon="-8.6332160">
        <ele>21.2</ele>
        <time>2021-05-21T11:23:44Z</time>
      </trkpt>
      <trkpt lat="42.4160080" lon="-8.6332170">
        <ele>21.2</ele>
        <time>2021-05-21T11:23:45Z</time>
      </trkpt>
      <trkpt lat="42.4160080" lon="-8.6332180">
        <ele>21.2</ele>
        <time>2021-05-21T11:23:46Z</time>
      </trkpt>
      <trkpt lat="42.4160090" lon="-8.6332180">
        <ele>21.3</ele>
        <time>2021-05-21T11:23:47Z</time>
      </trkpt>
      <trkpt lat="42.4160170" lon="-8.6332140">
        <ele>21.3</ele>
        <time>2021-05-21T11:23:48Z</time>
      </trkpt>
      <trkpt lat="42.4160200" lon="-8.6332140">
        <ele>21.3</ele>
        <time>2021-05-21T11:23:49Z</time>
      </trkpt>
      <trkpt lat="42.4160180" lon="-8.6332130">
        <ele>21.3</ele>
        <time>2021-05-21T11:23:50Z</time>
      </trkpt>
      <trkpt lat="42.4160200" lon="-8.6332110">
        <ele>21.3</ele>
        <time>2021-05-21T11:23:51Z</time>
      </trkpt>
      <trkpt lat="42.4160240" lon="-8.6332080">
        <ele>21.3</ele>
        <time>2021-05-21T11:23:52Z</time>
      </trkpt>
      <trkpt lat="42.4160230" lon="-8.6332100">
        <ele>21.3</ele>
        <time>2021-05-21T11:23:53Z</time>
      </trkpt>
      <trkpt lat="42.4160250" lon="-8.6332120">
        <ele>21.3</ele>
        <time>2021-05-21T11:23:54Z</time>
      </trkpt>
      <trkpt lat="42.4160310" lon="-8.6332120">
        <ele>21.3</ele>
        <time>2021-05-21T11:23:55Z</time>
      </trkpt>
      <trkpt lat="42.4160370" lon="-8.6332150">
        <ele>21.3</ele>
        <time>2021-05-21T11:23:56Z</time>
      </trkpt>
      <trkpt lat="42.4160500" lon="-8.6332240">
        <ele>21.3</ele>
        <time>2021-05-21T11:23:57Z</time>
      </trkpt>
      <trkpt lat="42.4160480" lon="-8.6332310">
        <ele>21.3</ele>
        <time>2021-05-21T11:23:58Z</time>
      </trkpt>
      <trkpt lat="42.4160540" lon="-8.6332350">
        <ele>21.3</ele>
        <time>2021-05-21T11:23:59Z</time>
      </trkpt>
      <trkpt lat="42.4160610" lon="-8.6332490">
        <ele>21.3</ele>
        <time>2021-05-21T11:24:00Z</time>
      </trkpt>
      <trkpt lat="42.4160670" lon="-8.6332580">
        <ele>21.3</ele>
        <time>2021-05-21T11:24:01Z</time>
      </trkpt>
      <trkpt lat="42.4160680" lon="-8.6332660">
        <ele>21.3</ele>
        <time>2021-05-21T11:24:02Z</time>
      </trkpt>
      <trkpt lat="42.4160750" lon="-8.6332740">
        <ele>21.3</ele>
        <time>2021-05-21T11:24:03Z</time>
      </trkpt>
      <trkpt lat="42.4160870" lon="-8.6332800">
        <ele>21.3</ele>
        <time>2021-05-21T11:24:04Z</time>
      </trkpt>
      <trkpt lat="42.4161070" lon="-8.6332840">
        <ele>21.3</ele>
        <time>2021-05-21T11:24:05Z</time>
      </trkpt>
      <trkpt lat="42.4161140" lon="-8.6332830">
        <ele>21.3</ele>
        <time>2021-05-21T11:24:06Z</time>
      </trkpt>
      <trkpt lat="42.4161220" lon="-8.6332820">
        <ele>21.3</ele>
        <time>2021-05-21T11:24:07Z</time>
      </trkpt>
      <trkpt lat="42.4161290" lon="-8.6332810">
        <ele>21.3</ele>
        <time>2021-05-21T11:24:08Z</time>
      </trkpt>
      <trkpt lat="42.4161390" lon="-8.6332860">
        <ele>21.3</ele>
        <time>2021-05-21T11:24:09Z</time>
      </trkpt>
      <trkpt lat="42.4161500" lon="-8.6332880">
        <ele>21.3</ele>
        <time>2021-05-21T11:24:10Z</time>
      </trkpt>
      <trkpt lat="42.4161510" lon="-8.6332890">
        <ele>21.3</ele>
        <time>2021-05-21T11:24:11Z</time>
      </trkpt>
      <trkpt lat="42.4161610" lon="-8.6332930">
        <ele>21.3</ele>
        <time>2021-05-21T11:24:12Z</time>
      </trkpt>
      <trkpt lat="42.4161750" lon="-8.6332930">
        <ele>21.3</ele>
        <time>2021-05-21T11:24:13Z</time>
      </trkpt>
      <trkpt lat="42.4161850" lon="-8.6333020">
        <ele>21.3</ele>
        <time>2021-05-21T11:24:14Z</time>
      </trkpt>
      <trkpt lat="42.4161910" lon="-8.6333010">
        <ele>21.3</ele>
        <time>2021-05-21T11:24:15Z</time>
      </trkpt>
      <trkpt lat="42.4161930" lon="-8.6333140">
        <ele>21.4</ele>
        <time>2021-05-21T11:24:16Z</time>
      </trkpt>
      <trkpt lat="42.4161970" lon="-8.6333160">
        <ele>21.4</ele>
        <time>2021-05-21T11:24:17Z</time>
      </trkpt>
      <trkpt lat="42.4162000" lon="-8.6333170">
        <ele>21.4</ele>
        <time>2021-05-21T11:24:18Z</time>
      </trkpt>
      <trkpt lat="42.4162030" lon="-8.6333190">
        <ele>21.4</ele>
        <time>2021-05-21T11:24:19Z</time>
      </trkpt>
      <trkpt lat="42.4162070" lon="-8.6333210">
        <ele>21.4</ele>
        <time>2021-05-21T11:24:20Z</time>
      </trkpt>
      <trkpt lat="42.4162100" lon="-8.6333230">
        <ele>21.4</ele>
        <time>2021-05-21T11:24:21Z</time>
      </trkpt>
      <trkpt lat="42.4162140" lon="-8.6333250">
        <ele>21.4</ele>
        <time>2021-05-21T11:24:22Z</time>
      </trkpt>
      <trkpt lat="42.4162170" lon="-8.6333270">
        <ele>21.4</ele>
        <time>2021-05-21T11:24:23Z</time>
      </trkpt>
      <trkpt lat="42.4162200" lon="-8.6333280">
        <ele>21.4</ele>
        <time>2021-05-21T11:24:24Z</time>
      </trkpt>
      <trkpt lat="42.4162240" lon="-8.6333300">
        <ele>21.4</ele>
        <time>2021-05-21T11:24:25Z</time>
      </trkpt>
      <trkpt lat="42.4162270" lon="-8.6333320">
        <ele>21.4</ele>
        <time>2021-05-21T11:24:26Z</time>
      </trkpt>
      <trkpt lat="42.4162340" lon="-8.6333330">
        <ele>21.4</ele>
        <time>2021-05-21T11:24:27Z</time>
      </trkpt>
      <trkpt lat="42.4162590" lon="-8.6333470">
        <ele>21.4</ele>
        <time>2021-05-21T11:24:28Z</time>
      </trkpt>
      <trkpt lat="42.4162730" lon="-8.6333500">
        <ele>21.4</ele>
        <time>2021-05-21T11:24:29Z</time>
      </trkpt>
      <trkpt lat="42.4162840" lon="-8.6333480">
        <ele>21.4</ele>
        <time>2021-05-21T11:24:30Z</time>
      </trkpt>
      <trkpt lat="42.4162940" lon="-8.6333530">
        <ele>21.4</ele>
        <time>2021-05-21T11:24:31Z</time>
      </trkpt>
      <trkpt lat="42.4163130" lon="-8.6333570">
        <ele>21.4</ele>
        <time>2021-05-21T11:24:32Z</time>
      </trkpt>
      <trkpt lat="42.4163210" lon="-8.6333620">
        <ele>21.4</ele>
        <time>2021-05-21T11:24:33Z</time>
      </trkpt>
      <trkpt lat="42.4163330" lon="-8.6333680">
        <ele>21.4</ele>
        <time>2021-05-21T11:24:34Z</time>
      </trkpt>
      <trkpt lat="42.4163410" lon="-8.6333720">
        <ele>21.4</ele>
        <time>2021-05-21T11:24:35Z</time>
      </trkpt>
      <trkpt lat="42.4163560" lon="-8.6333780">
        <ele>21.4</ele>
        <time>2021-05-21T11:24:36Z</time>
      </trkpt>
      <trkpt lat="42.4163640" lon="-8.6333900">
        <ele>21.4</ele>
        <time>2021-05-21T11:24:37Z</time>
      </trkpt>
      <trkpt lat="42.4163700" lon="-8.6333920">
        <ele>21.4</ele>
        <time>2021-05-21T11:24:38Z</time>
      </trkpt>
      <trkpt lat="42.4163830" lon="-8.6334020">
        <ele>21.4</ele>
        <time>2021-05-21T11:24:39Z</time>
      </trkpt>
      <trkpt lat="42.4163950" lon="-8.6334080">
        <ele>21.4</ele>
        <time>2021-05-21T11:24:40Z</time>
      </trkpt>
      <trkpt lat="42.4164070" lon="-8.6334130">
        <ele>21.4</ele>
        <time>2021-05-21T11:24:41Z</time>
      </trkpt>
      <trkpt lat="42.4164180" lon="-8.6334170">
        <ele>21.4</ele>
        <time>2021-05-21T11:24:42Z</time>
      </trkpt>
      <trkpt lat="42.4164300" lon="-8.6334240">
        <ele>21.4</ele>
        <time>2021-05-21T11:24:43Z</time>
      </trkpt>
      <trkpt lat="42.4164300" lon="-8.6334310">
        <ele>21.4</ele>
        <time>2021-05-21T11:24:44Z</time>
      </trkpt>
      <trkpt lat="42.4164380" lon="-8.6334400">
        <ele>21.5</ele>
        <time>2021-05-21T11:24:45Z</time>
      </trkpt>
      <trkpt lat="42.4164440" lon="-8.6334420">
        <ele>21.5</ele>
        <time>2021-05-21T11:24:46Z</time>
      </trkpt>
      <trkpt lat="42.4164600" lon="-8.6334490">
        <ele>21.5</ele>
        <time>2021-05-21T11:24:47Z</time>
      </trkpt>
      <trkpt lat="42.4164720" lon="-8.6334560">
        <ele>21.5</ele>
        <time>2021-05-21T11:24:48Z</time>
      </trkpt>
      <trkpt lat="42.4164790" lon="-8.6334570">
        <ele>21.5</ele>
        <time>2021-05-21T11:24:49Z</time>
      </trkpt>
      <trkpt lat="42.4164890" lon="-8.6334680">
        <ele>21.5</ele>
        <time>2021-05-21T11:24:50Z</time>
      </trkpt>
      <trkpt lat="42.4164950" lon="-8.6334780">
        <ele>21.5</ele>
        <time>2021-05-21T11:24:51Z</time>
      </trkpt>
      <trkpt lat="42.4165170" lon="-8.6334830">
        <ele>21.5</ele>
        <time>2021-05-21T11:24:52Z</time>
      </trkpt>
      <trkpt lat="42.4165260" lon="-8.6334930">
        <ele>21.5</ele>
        <time>2021-05-21T11:24:53Z</time>
      </trkpt>
      <trkpt lat="42.4165350" lon="-8.6334970">
        <ele>21.5</ele>
        <time>2021-05-21T11:24:54Z</time>
      </trkpt>
      <trkpt lat="42.4165310" lon="-8.6335100">
        <ele>21.5</ele>
        <time>2021-05-21T11:24:55Z</time>
      </trkpt>
      <trkpt lat="42.4165440" lon="-8.6335190">
        <ele>21.6</ele>
        <time>2021-05-21T11:24:56Z</time>
      </trkpt>
      <trkpt lat="42.4165560" lon="-8.6335210">
        <ele>21.6</ele>
        <time>2021-05-21T11:24:57Z</time>
      </trkpt>
      <trkpt lat="42.4165670" lon="-8.6335330">
        <ele>21.6</ele>
        <time>2021-05-21T11:24:58Z</time>
      </trkpt>
      <trkpt lat="42.4165800" lon="-8.6335530">
        <ele>21.6</ele>
        <time>2021-05-21T11:24:59Z</time>
      </trkpt>
      <trkpt lat="42.4165810" lon="-8.6335500">
        <ele>21.6</ele>
        <time>2021-05-21T11:25:00Z</time>
      </trkpt>
      <trkpt lat="42.4165930" lon="-8.6335620">
        <ele>21.6</ele>
        <time>2021-05-21T11:25:01Z</time>
      </trkpt>
      <trkpt lat="42.4165970" lon="-8.6335670">
        <ele>21.6</ele>
        <time>2021-05-21T11:25:02Z</time>
      </trkpt>
      <trkpt lat="42.4166110" lon="-8.6335680">
        <ele>21.6</ele>
        <time>2021-05-21T11:25:03Z</time>
      </trkpt>
      <trkpt lat="42.4166210" lon="-8.6335230">
        <ele>21.7</ele>
        <time>2021-05-21T11:25:04Z</time>
      </trkpt>
      <trkpt lat="42.4166290" lon="-8.6335010">
        <ele>21.7</ele>
        <time>2021-05-21T11:25:05Z</time>
      </trkpt>
      <trkpt lat="42.4166440" lon="-8.6334460">
        <ele>21.7</ele>
        <time>2021-05-21T11:25:06Z</time>
      </trkpt>
      <trkpt lat="42.4166560" lon="-8.6334000">
        <ele>21.8</ele>
        <time>2021-05-21T11:25:07Z</time>
      </trkpt>
      <trkpt lat="42.4166560" lon="-8.6333810">
        <ele>21.8</ele>
        <time>2021-05-21T11:25:08Z</time>
      </trkpt>
      <trkpt lat="42.4166530" lon="-8.6333560">
        <ele>21.8</ele>
        <time>2021-05-21T11:25:09Z</time>
      </trkpt>
      <trkpt lat="42.4166610" lon="-8.6333390">
        <ele>21.9</ele>
        <time>2021-05-21T11:25:10Z</time>
      </trkpt>
      <trkpt lat="42.4166730" lon="-8.6333200">
        <ele>21.9</ele>
        <time>2021-05-21T11:25:11Z</time>
      </trkpt>
      <trkpt lat="42.4166790" lon="-8.6333100">
        <ele>21.9</ele>
        <time>2021-05-21T11:25:12Z</time>
      </trkpt>
      <trkpt lat="42.4166840" lon="-8.6333010">
        <ele>21.9</ele>
        <time>2021-05-21T11:25:13Z</time>
      </trkpt>
      <trkpt lat="42.4166890" lon="-8.6332910">
        <ele>21.9</ele>
        <time>2021-05-21T11:25:14Z</time>
      </trkpt>
      <trkpt lat="42.4167040" lon="-8.6332690">
        <ele>22.0</ele>
        <time>2021-05-21T11:25:15Z</time>
      </trkpt>
      <trkpt lat="42.4167100" lon="-8.6332560">
        <ele>22.0</ele>
        <time>2021-05-21T11:25:16Z</time>
      </trkpt>
      <trkpt lat="42.4167140" lon="-8.6332380">
        <ele>22.1</ele>
        <time>2021-05-21T11:25:17Z</time>
      </trkpt>
      <trkpt lat="42.4167240" lon="-8.6332210">
        <ele>22.1</ele>
        <time>2021-05-21T11:25:18Z</time>
      </trkpt>
      <trkpt lat="42.4167320" lon="-8.6332060">
        <ele>22.2</ele>
        <time>2021-05-21T11:25:19Z</time>
      </trkpt>
      <trkpt lat="42.4167280" lon="-8.6331840">
        <ele>22.2</ele>
        <time>2021-05-21T11:25:20Z</time>
      </trkpt>
      <trkpt lat="42.4167350" lon="-8.6331540">
        <ele>22.3</ele>
        <time>2021-05-21T11:25:21Z</time>
      </trkpt>
      <trkpt lat="42.4167320" lon="-8.6331440">
        <ele>22.3</ele>
        <time>2021-05-21T11:25:22Z</time>
      </trkpt>
      <trkpt lat="42.4167280" lon="-8.6331330">
        <ele>22.4</ele>
        <time>2021-05-21T11:25:23Z</time>
      </trkpt>
      <trkpt lat="42.4167320" lon="-8.6331260">
        <ele>22.4</ele>
        <time>2021-05-21T11:25:24Z</time>
      </trkpt>
      <trkpt lat="42.4167340" lon="-8.6331170">
        <ele>22.4</ele>
        <time>2021-05-21T11:25:25Z</time>
      </trkpt>
      <trkpt lat="42.4167350" lon="-8.6331030">
        <ele>22.5</ele>
        <time>2021-05-21T11:25:26Z</time>
      </trkpt>
      <trkpt lat="42.4167350" lon="-8.6330870">
        <ele>22.5</ele>
        <time>2021-05-21T11:25:27Z</time>
      </trkpt>
      <trkpt lat="42.4167400" lon="-8.6330790">
        <ele>22.7</ele>
        <time>2021-05-21T11:25:28Z</time>
      </trkpt>
      <trkpt lat="42.4167330" lon="-8.6330760">
        <ele>22.8</ele>
        <time>2021-05-21T11:25:29Z</time>
      </trkpt>
      <trkpt lat="42.4167370" lon="-8.6330790">
        <ele>22.8</ele>
        <time>2021-05-21T11:25:30Z</time>
      </trkpt>
      <trkpt lat="42.4167410" lon="-8.6330780">
        <ele>22.8</ele>
        <time>2021-05-21T11:25:31Z</time>
      </trkpt>
      <trkpt lat="42.4167520" lon="-8.6330760">
        <ele>22.9</ele>
        <time>2021-05-21T11:25:32Z</time>
      </trkpt>
      <trkpt lat="42.4167620" lon="-8.6330790">
        <ele>23.0</ele>
        <time>2021-05-21T11:25:33Z</time>
      </trkpt>
      <trkpt lat="42.4167760" lon="-8.6330750">
        <ele>23.1</ele>
        <time>2021-05-21T11:25:34Z</time>
      </trkpt>
      <trkpt lat="42.4167810" lon="-8.6330720">
        <ele>23.1</ele>
        <time>2021-05-21T11:25:35Z</time>
      </trkpt>
      <trkpt lat="42.4167860" lon="-8.6330700">
        <ele>23.2</ele>
        <time>2021-05-21T11:25:36Z</time>
      </trkpt>
      <trkpt lat="42.4167910" lon="-8.6330670">
        <ele>23.2</ele>
        <time>2021-05-21T11:25:37Z</time>
      </trkpt>
      <trkpt lat="42.4167960" lon="-8.6330640">
        <ele>23.3</ele>
        <time>2021-05-21T11:25:38Z</time>
      </trkpt>
      <trkpt lat="42.4168120" lon="-8.6330640">
        <ele>23.4</ele>
        <time>2021-05-21T11:25:39Z</time>
      </trkpt>
      <trkpt lat="42.4168220" lon="-8.6330570">
        <ele>23.5</ele>
        <time>2021-05-21T11:25:40Z</time>
      </trkpt>
      <trkpt lat="42.4168310" lon="-8.6330540">
        <ele>24.0</ele>
        <time>2021-05-21T11:25:41Z</time>
      </trkpt>
      <trkpt lat="42.4168370" lon="-8.6330580">
        <ele>24.0</ele>
        <time>2021-05-21T11:25:42Z</time>
      </trkpt>
      <trkpt lat="42.4168490" lon="-8.6330650">
        <ele>24.1</ele>
        <time>2021-05-21T11:25:43Z</time>
      </trkpt>
      <trkpt lat="42.4168580" lon="-8.6330760">
        <ele>24.1</ele>
        <time>2021-05-21T11:25:44Z</time>
      </trkpt>
      <trkpt lat="42.4168710" lon="-8.6330930">
        <ele>24.2</ele>
        <time>2021-05-21T11:25:45Z</time>
      </trkpt>
      <trkpt lat="42.4168740" lon="-8.6331180">
        <ele>24.3</ele>
        <time>2021-05-21T11:25:46Z</time>
      </trkpt>
      <trkpt lat="42.4168730" lon="-8.6331330">
        <ele>24.3</ele>
        <time>2021-05-21T11:25:47Z</time>
      </trkpt>
      <trkpt lat="42.4168720" lon="-8.6331460">
        <ele>24.3</ele>
        <time>2021-05-21T11:25:48Z</time>
      </trkpt>
      <trkpt lat="42.4168740" lon="-8.6331620">
        <ele>24.3</ele>
        <time>2021-05-21T11:25:49Z</time>
      </trkpt>
      <trkpt lat="42.4168820" lon="-8.6331890">
        <ele>24.2</ele>
        <time>2021-05-21T11:25:50Z</time>
      </trkpt>
      <trkpt lat="42.4168870" lon="-8.6332070">
        <ele>24.2</ele>
        <time>2021-05-21T11:25:51Z</time>
      </trkpt>
      <trkpt lat="42.4168860" lon="-8.6332130">
        <ele>24.1</ele>
        <time>2021-05-21T11:25:52Z</time>
      </trkpt>
      <trkpt lat="42.4168910" lon="-8.6332280">
        <ele>24.1</ele>
        <time>2021-05-21T11:25:53Z</time>
      </trkpt>
      <trkpt lat="42.4168880" lon="-8.6332460">
        <ele>24.0</ele>
        <time>2021-05-21T11:25:54Z</time>
      </trkpt>
      <trkpt lat="42.4168840" lon="-8.6332590">
        <ele>23.9</ele>
        <time>2021-05-21T11:25:55Z</time>
      </trkpt>
      <trkpt lat="42.4168840" lon="-8.6332760">
        <ele>23.9</ele>
        <time>2021-05-21T11:25:56Z</time>
      </trkpt>
      <trkpt lat="42.4168840" lon="-8.6332920">
        <ele>23.8</ele>
        <time>2021-05-21T11:25:57Z</time>
      </trkpt>
      <trkpt lat="42.4168820" lon="-8.6333170">
        <ele>23.7</ele>
        <time>2021-05-21T11:25:58Z</time>
      </trkpt>
      <trkpt lat="42.4168770" lon="-8.6333340">
        <ele>23.6</ele>
        <time>2021-05-21T11:25:59Z</time>
      </trkpt>
      <trkpt lat="42.4168710" lon="-8.6333530">
        <ele>23.5</ele>
        <time>2021-05-21T11:26:00Z</time>
      </trkpt>
      <trkpt lat="42.4168690" lon="-8.6333780">
        <ele>23.3</ele>
        <time>2021-05-21T11:26:01Z</time>
      </trkpt>
      <trkpt lat="42.4168810" lon="-8.6334040">
        <ele>23.1</ele>
        <time>2021-05-21T11:26:02Z</time>
      </trkpt>
      <trkpt lat="42.4168860" lon="-8.6334150">
        <ele>23.0</ele>
        <time>2021-05-21T11:26:03Z</time>
      </trkpt>
      <trkpt lat="42.4168910" lon="-8.6334250">
        <ele>23.0</ele>
        <time>2021-05-21T11:26:04Z</time>
      </trkpt>
      <trkpt lat="42.4169110" lon="-8.6334540">
        <ele>22.7</ele>
        <time>2021-05-21T11:26:05Z</time>
      </trkpt>
      <trkpt lat="42.4169140" lon="-8.6334620">
        <ele>22.6</ele>
        <time>2021-05-21T11:26:06Z</time>
      </trkpt>
      <trkpt lat="42.4169170" lon="-8.6334690">
        <ele>22.5</ele>
        <time>2021-05-21T11:26:07Z</time>
      </trkpt>
      <trkpt lat="42.4169320" lon="-8.6334860">
        <ele>22.3</ele>
        <time>2021-05-21T11:26:08Z</time>
      </trkpt>
      <trkpt lat="42.4169330" lon="-8.6334990">
        <ele>22.2</ele>
        <time>2021-05-21T11:26:09Z</time>
      </trkpt>
      <trkpt lat="42.4169360" lon="-8.6335160">
        <ele>22.1</ele>
        <time>2021-05-21T11:26:10Z</time>
      </trkpt>
      <trkpt lat="42.4169400" lon="-8.6335280">
        <ele>22.0</ele>
        <time>2021-05-21T11:26:11Z</time>
      </trkpt>
      <trkpt lat="42.4169440" lon="-8.6335390">
        <ele>21.9</ele>
        <time>2021-05-21T11:26:12Z</time>
      </trkpt>
      <trkpt lat="42.4169490" lon="-8.6335510">
        <ele>21.8</ele>
        <time>2021-05-21T11:26:13Z</time>
      </trkpt>
      <trkpt lat="42.4169520" lon="-8.6335560">
        <ele>21.7</ele>
        <time>2021-05-21T11:26:14Z</time>
      </trkpt>
      <trkpt lat="42.4169550" lon="-8.6335610">
        <ele>21.7</ele>
        <time>2021-05-21T11:26:15Z</time>
      </trkpt>
      <trkpt lat="42.4169580" lon="-8.6335650">
        <ele>21.7</ele>
        <time>2021-05-21T11:26:16Z</time>
      </trkpt>
      <trkpt lat="42.4169610" lon="-8.6335700">
        <ele>21.7</ele>
        <time>2021-05-21T11:26:17Z</time>
      </trkpt>
      <trkpt lat="42.4169640" lon="-8.6335750">
        <ele>21.7</ele>
        <time>2021-05-21T11:26:18Z</time>
      </trkpt>
      <trkpt lat="42.4169670" lon="-8.6335800">
        <ele>21.7</ele>
        <time>2021-05-21T11:26:19Z</time>
      </trkpt>
      <trkpt lat="42.4169710" lon="-8.6335910">
        <ele>21.7</ele>
        <time>2021-05-21T11:26:20Z</time>
      </trkpt>
      <trkpt lat="42.4169770" lon="-8.6335990">
        <ele>21.7</ele>
        <time>2021-05-21T11:26:21Z</time>
      </trkpt>
      <trkpt lat="42.4169840" lon="-8.6335970">
        <ele>21.7</ele>
        <time>2021-05-21T11:26:22Z</time>
      </trkpt>
      <trkpt lat="42.4169900" lon="-8.6336040">
        <ele>21.7</ele>
        <time>2021-05-21T11:26:23Z</time>
      </trkpt>
      <trkpt lat="42.4169980" lon="-8.6336170">
        <ele>21.7</ele>
        <time>2021-05-21T11:26:24Z</time>
      </trkpt>
      <trkpt lat="42.4170030" lon="-8.6336260">
        <ele>21.7</ele>
        <time>2021-05-21T11:26:25Z</time>
      </trkpt>
      <trkpt lat="42.4170080" lon="-8.6336320">
        <ele>21.7</ele>
        <time>2021-05-21T11:26:26Z</time>
      </trkpt>
      <trkpt lat="42.4170210" lon="-8.6336370">
        <ele>21.7</ele>
        <time>2021-05-21T11:26:27Z</time>
      </trkpt>
      <trkpt lat="42.4170280" lon="-8.6336360">
        <ele>21.7</ele>
        <time>2021-05-21T11:26:28Z</time>
      </trkpt>
      <trkpt lat="42.4170350" lon="-8.6336430">
        <ele>21.6</ele>
        <time>2021-05-21T11:26:29Z</time>
      </trkpt>
      <trkpt lat="42.4170600" lon="-8.6336370">
        <ele>21.6</ele>
        <time>2021-05-21T11:26:30Z</time>
      </trkpt>
      <trkpt lat="42.4170690" lon="-8.6336360">
        <ele>21.6</ele>
        <time>2021-05-21T11:26:31Z</time>
      </trkpt>
      <trkpt lat="42.4170780" lon="-8.6336340">
        <ele>21.6</ele>
        <time>2021-05-21T11:26:32Z</time>
      </trkpt>
      <trkpt lat="42.4170950" lon="-8.6336280">
        <ele>21.6</ele>
        <time>2021-05-21T11:26:33Z</time>
      </trkpt>
      <trkpt lat="42.4170920" lon="-8.6336200">
        <ele>21.6</ele>
        <time>2021-05-21T11:26:34Z</time>
      </trkpt>
      <trkpt lat="42.4171070" lon="-8.6336170">
        <ele>21.6</ele>
        <time>2021-05-21T11:26:35Z</time>
      </trkpt>
      <trkpt lat="42.4171130" lon="-8.6336130">
        <ele>21.6</ele>
        <time>2021-05-21T11:26:36Z</time>
      </trkpt>
      <trkpt lat="42.4171100" lon="-8.6336070">
        <ele>21.6</ele>
        <time>2021-05-21T11:26:37Z</time>
      </trkpt>
      <trkpt lat="42.4171280" lon="-8.6336070">
        <ele>21.6</ele>
        <time>2021-05-21T11:26:38Z</time>
      </trkpt>
      <trkpt lat="42.4171360" lon="-8.6336030">
        <ele>21.6</ele>
        <time>2021-05-21T11:26:39Z</time>
      </trkpt>
      <trkpt lat="42.4171420" lon="-8.6336030">
        <ele>21.6</ele>
        <time>2021-05-21T11:26:40Z</time>
      </trkpt>
      <trkpt lat="42.4171560" lon="-8.6336120">
        <ele>21.6</ele>
        <time>2021-05-21T11:26:41Z</time>
      </trkpt>
      <trkpt lat="42.4171710" lon="-8.6336100">
        <ele>21.6</ele>
        <time>2021-05-21T11:26:42Z</time>
      </trkpt>
      <trkpt lat="42.4171900" lon="-8.6336150">
        <ele>21.6</ele>
        <time>2021-05-21T11:26:43Z</time>
      </trkpt>
      <trkpt lat="42.4172020" lon="-8.6336160">
        <ele>21.6</ele>
        <time>2021-05-21T11:26:44Z</time>
      </trkpt>
      <trkpt lat="42.4172140" lon="-8.6336170">
        <ele>21.6</ele>
        <time>2021-05-21T11:26:45Z</time>
      </trkpt>
      <trkpt lat="42.4172300" lon="-8.6336240">
        <ele>21.6</ele>
        <time>2021-05-21T11:26:46Z</time>
      </trkpt>
      <trkpt lat="42.4172470" lon="-8.6336210">
        <ele>21.6</ele>
        <time>2021-05-21T11:26:47Z</time>
      </trkpt>
      <trkpt lat="42.4172680" lon="-8.6336200">
        <ele>21.6</ele>
        <time>2021-05-21T11:26:48Z</time>
      </trkpt>
      <trkpt lat="42.4172760" lon="-8.6336210">
        <ele>21.6</ele>
        <time>2021-05-21T11:26:49Z</time>
      </trkpt>
      <trkpt lat="42.4172840" lon="-8.6336210">
        <ele>21.6</ele>
        <time>2021-05-21T11:26:50Z</time>
      </trkpt>
      <trkpt lat="42.4172930" lon="-8.6336270">
        <ele>21.6</ele>
        <time>2021-05-21T11:26:51Z</time>
      </trkpt>
      <trkpt lat="42.4173120" lon="-8.6336260">
        <ele>21.6</ele>
        <time>2021-05-21T11:26:52Z</time>
      </trkpt>
      <trkpt lat="42.4173280" lon="-8.6336230">
        <ele>21.6</ele>
        <time>2021-05-21T11:26:53Z</time>
      </trkpt>
      <trkpt lat="42.4173400" lon="-8.6336220">
        <ele>21.6</ele>
        <time>2021-05-21T11:26:54Z</time>
      </trkpt>
      <trkpt lat="42.4173620" lon="-8.6336200">
        <ele>21.6</ele>
        <time>2021-05-21T11:26:55Z</time>
      </trkpt>
      <trkpt lat="42.4173730" lon="-8.6336220">
        <ele>21.6</ele>
        <time>2021-05-21T11:26:56Z</time>
      </trkpt>
      <trkpt lat="42.4173830" lon="-8.6336240">
        <ele>21.6</ele>
        <time>2021-05-21T11:26:57Z</time>
      </trkpt>
      <trkpt lat="42.4173910" lon="-8.6336240">
        <ele>21.6</ele>
        <time>2021-05-21T11:26:58Z</time>
      </trkpt>
      <trkpt lat="42.4173990" lon="-8.6336250">
        <ele>21.6</ele>
        <time>2021-05-21T11:26:59Z</time>
      </trkpt>
      <trkpt lat="42.4174140" lon="-8.6336260">
        <ele>21.6</ele>
        <time>2021-05-21T11:27:00Z</time>
      </trkpt>
      <trkpt lat="42.4174330" lon="-8.6336170">
        <ele>21.6</ele>
        <time>2021-05-21T11:27:01Z</time>
      </trkpt>
      <trkpt lat="42.4174420" lon="-8.6336140">
        <ele>21.6</ele>
        <time>2021-05-21T11:27:02Z</time>
      </trkpt>
      <trkpt lat="42.4174500" lon="-8.6336110">
        <ele>21.6</ele>
        <time>2021-05-21T11:27:03Z</time>
      </trkpt>
      <trkpt lat="42.4174570" lon="-8.6336230">
        <ele>21.6</ele>
        <time>2021-05-21T11:27:04Z</time>
      </trkpt>
      <trkpt lat="42.4174740" lon="-8.6336200">
        <ele>21.6</ele>
        <time>2021-05-21T11:27:05Z</time>
      </trkpt>
      <trkpt lat="42.4174830" lon="-8.6336160">
        <ele>21.6</ele>
        <time>2021-05-21T11:27:06Z</time>
      </trkpt>
      <trkpt lat="42.4174860" lon="-8.6336230">
        <ele>21.6</ele>
        <time>2021-05-21T11:27:07Z</time>
      </trkpt>
      <trkpt lat="42.4175020" lon="-8.6336320">
        <ele>21.6</ele>
        <time>2021-05-21T11:27:08Z</time>
      </trkpt>
      <trkpt lat="42.4175120" lon="-8.6336190">
        <ele>21.6</ele>
        <time>2021-05-21T11:27:09Z</time>
      </trkpt>
      <trkpt lat="42.4175220" lon="-8.6336260">
        <ele>21.6</ele>
        <time>2021-05-21T11:27:10Z</time>
      </trkpt>
      <trkpt lat="42.4175400" lon="-8.6336200">
        <ele>21.6</ele>
        <time>2021-05-21T11:27:11Z</time>
      </trkpt>
      <trkpt lat="42.4175590" lon="-8.6336210">
        <ele>21.6</ele>
        <time>2021-05-21T11:27:12Z</time>
      </trkpt>
      <trkpt lat="42.4175660" lon="-8.6336180">
        <ele>21.6</ele>
        <time>2021-05-21T11:27:13Z</time>
      </trkpt>
      <trkpt lat="42.4175720" lon="-8.6336140">
        <ele>21.6</ele>
        <time>2021-05-21T11:27:14Z</time>
      </trkpt>
      <trkpt lat="42.4175790" lon="-8.6336100">
        <ele>21.6</ele>
        <time>2021-05-21T11:27:15Z</time>
      </trkpt>
      <trkpt lat="42.4176040" lon="-8.6335900">
        <ele>21.6</ele>
        <time>2021-05-21T11:27:16Z</time>
      </trkpt>
      <trkpt lat="42.4176300" lon="-8.6335630">
        <ele>21.6</ele>
        <time>2021-05-21T11:27:17Z</time>
      </trkpt>
      <trkpt lat="42.4176370" lon="-8.6335580">
        <ele>21.6</ele>
        <time>2021-05-21T11:27:18Z</time>
      </trkpt>
      <trkpt lat="42.4176610" lon="-8.6335410">
        <ele>21.6</ele>
        <time>2021-05-21T11:27:19Z</time>
      </trkpt>
      <trkpt lat="42.4176700" lon="-8.6335340">
        <ele>21.6</ele>
        <time>2021-05-21T11:27:20Z</time>
      </trkpt>
      <trkpt lat="42.4176700" lon="-8.6335270">
        <ele>21.6</ele>
        <time>2021-05-21T11:27:21Z</time>
      </trkpt>
      <trkpt lat="42.4176810" lon="-8.6335230">
        <ele>21.6</ele>
        <time>2021-05-21T11:27:22Z</time>
      </trkpt>
      <trkpt lat="42.4176930" lon="-8.6335280">
        <ele>21.6</ele>
        <time>2021-05-21T11:27:23Z</time>
      </trkpt>
      <trkpt lat="42.4177040" lon="-8.6335270">
        <ele>21.6</ele>
        <time>2021-05-21T11:27:24Z</time>
      </trkpt>
      <trkpt lat="42.4177190" lon="-8.6335210">
        <ele>21.6</ele>
        <time>2021-05-21T11:27:25Z</time>
      </trkpt>
      <trkpt lat="42.4177320" lon="-8.6335150">
        <ele>21.6</ele>
        <time>2021-05-21T11:27:26Z</time>
      </trkpt>
      <trkpt lat="42.4177470" lon="-8.6335140">
        <ele>21.6</ele>
        <time>2021-05-21T11:27:27Z</time>
      </trkpt>
      <trkpt lat="42.4177520" lon="-8.6335090">
        <ele>21.6</ele>
        <time>2021-05-21T11:27:28Z</time>
      </trkpt>
      <trkpt lat="42.4177600" lon="-8.6335120">
        <ele>21.6</ele>
        <time>2021-05-21T11:27:29Z</time>
      </trkpt>
      <trkpt lat="42.4177770" lon="-8.6335210">
        <ele>21.6</ele>
        <time>2021-05-21T11:27:30Z</time>
      </trkpt>
      <trkpt lat="42.4177890" lon="-8.6335190">
        <ele>21.6</ele>
        <time>2021-05-21T11:27:31Z</time>
      </trkpt>
      <trkpt lat="42.4177970" lon="-8.6335310">
        <ele>21.6</ele>
        <time>2021-05-21T11:27:32Z</time>
      </trkpt>
      <trkpt lat="42.4178090" lon="-8.6335340">
        <ele>21.6</ele>
        <time>2021-05-21T11:27:33Z</time>
      </trkpt>
      <trkpt lat="42.4178200" lon="-8.6335360">
        <ele>21.6</ele>
        <time>2021-05-21T11:27:34Z</time>
      </trkpt>
      <trkpt lat="42.4178340" lon="-8.6335500">
        <ele>21.6</ele>
        <time>2021-05-21T11:27:35Z</time>
      </trkpt>
      <trkpt lat="42.4178360" lon="-8.6335730">
        <ele>21.6</ele>
        <time>2021-05-21T11:27:36Z</time>
      </trkpt>
      <trkpt lat="42.4178430" lon="-8.6336170">
        <ele>21.6</ele>
        <time>2021-05-21T11:27:37Z</time>
      </trkpt>
      <trkpt lat="42.4178490" lon="-8.6336350">
        <ele>21.6</ele>
        <time>2021-05-21T11:27:38Z</time>
      </trkpt>
      <trkpt lat="42.4178760" lon="-8.6336550">
        <ele>21.6</ele>
        <time>2021-05-21T11:27:39Z</time>
      </trkpt>
      <trkpt lat="42.4178820" lon="-8.6336620">
        <ele>21.6</ele>
        <time>2021-05-21T11:27:40Z</time>
      </trkpt>
      <trkpt lat="42.4179060" lon="-8.6336850">
        <ele>21.6</ele>
        <time>2021-05-21T11:27:41Z</time>
      </trkpt>
      <trkpt lat="42.4179130" lon="-8.6336920">
        <ele>21.6</ele>
        <time>2021-05-21T11:27:42Z</time>
      </trkpt>
      <trkpt lat="42.4179340" lon="-8.6337240">
        <ele>21.6</ele>
        <time>2021-05-21T11:27:43Z</time>
      </trkpt>
      <trkpt lat="42.4179410" lon="-8.6337340">
        <ele>21.6</ele>
        <time>2021-05-21T11:27:44Z</time>
      </trkpt>
      <trkpt lat="42.4179480" lon="-8.6337510">
        <ele>21.5</ele>
        <time>2021-05-21T11:27:45Z</time>
      </trkpt>
      <trkpt lat="42.4179590" lon="-8.6337680">
        <ele>21.5</ele>
        <time>2021-05-21T11:27:46Z</time>
      </trkpt>
      <trkpt lat="42.4179760" lon="-8.6337810">
        <ele>21.5</ele>
        <time>2021-05-21T11:27:47Z</time>
      </trkpt>
      <trkpt lat="42.4179840" lon="-8.6337930">
        <ele>21.5</ele>
        <time>2021-05-21T11:27:48Z</time>
      </trkpt>
      <trkpt lat="42.4180040" lon="-8.6338100">
        <ele>21.5</ele>
        <time>2021-05-21T11:27:49Z</time>
      </trkpt>
      <trkpt lat="42.4180070" lon="-8.6338250">
        <ele>21.5</ele>
        <time>2021-05-21T11:27:50Z</time>
      </trkpt>
      <trkpt lat="42.4180190" lon="-8.6338490">
        <ele>21.5</ele>
        <time>2021-05-21T11:27:51Z</time>
      </trkpt>
      <trkpt lat="42.4180240" lon="-8.6338580">
        <ele>21.5</ele>
        <time>2021-05-21T11:27:52Z</time>
      </trkpt>
      <trkpt lat="42.4180290" lon="-8.6338660">
        <ele>21.5</ele>
        <time>2021-05-21T11:27:53Z</time>
      </trkpt>
      <trkpt lat="42.4180410" lon="-8.6338770">
        <ele>21.5</ele>
        <time>2021-05-21T11:27:54Z</time>
      </trkpt>
      <trkpt lat="42.4180560" lon="-8.6338850">
        <ele>21.5</ele>
        <time>2021-05-21T11:27:55Z</time>
      </trkpt>
      <trkpt lat="42.4180670" lon="-8.6338970">
        <ele>21.5</ele>
        <time>2021-05-21T11:27:56Z</time>
      </trkpt>
      <trkpt lat="42.4180760" lon="-8.6339110">
        <ele>21.5</ele>
        <time>2021-05-21T11:27:57Z</time>
      </trkpt>
      <trkpt lat="42.4180910" lon="-8.6339230">
        <ele>21.5</ele>
        <time>2021-05-21T11:27:58Z</time>
      </trkpt>
      <trkpt lat="42.4180950" lon="-8.6339280">
        <ele>21.5</ele>
        <time>2021-05-21T11:27:59Z</time>
      </trkpt>
      <trkpt lat="42.4181080" lon="-8.6339310">
        <ele>21.5</ele>
        <time>2021-05-21T11:28:00Z</time>
      </trkpt>
      <trkpt lat="42.4181190" lon="-8.6339370">
        <ele>21.4</ele>
        <time>2021-05-21T11:28:01Z</time>
      </trkpt>
      <trkpt lat="42.4181280" lon="-8.6339460">
        <ele>21.4</ele>
        <time>2021-05-21T11:28:02Z</time>
      </trkpt>
      <trkpt lat="42.4181390" lon="-8.6339500">
        <ele>21.4</ele>
        <time>2021-05-21T11:28:03Z</time>
      </trkpt>
      <trkpt lat="42.4181530" lon="-8.6339750">
        <ele>21.4</ele>
        <time>2021-05-21T11:28:04Z</time>
      </trkpt>
      <trkpt lat="42.4181590" lon="-8.6339870">
        <ele>21.4</ele>
        <time>2021-05-21T11:28:05Z</time>
      </trkpt>
      <trkpt lat="42.4181660" lon="-8.6339980">
        <ele>21.4</ele>
        <time>2021-05-21T11:28:06Z</time>
      </trkpt>
      <trkpt lat="42.4181680" lon="-8.6340140">
        <ele>21.4</ele>
        <time>2021-05-21T11:28:07Z</time>
      </trkpt>
      <trkpt lat="42.4181680" lon="-8.6340290">
        <ele>21.4</ele>
        <time>2021-05-21T11:28:08Z</time>
      </trkpt>
      <trkpt lat="42.4181790" lon="-8.6340420">
        <ele>21.4</ele>
        <time>2021-05-21T11:28:09Z</time>
      </trkpt>
      <trkpt lat="42.4181880" lon="-8.6340550">
        <ele>21.4</ele>
        <time>2021-05-21T11:28:10Z</time>
      </trkpt>
      <trkpt lat="42.4181920" lon="-8.6340690">
        <ele>21.3</ele>
        <time>2021-05-21T11:28:11Z</time>
      </trkpt>
      <trkpt lat="42.4182000" lon="-8.6340790">
        <ele>21.3</ele>
        <time>2021-05-21T11:28:12Z</time>
      </trkpt>
      <trkpt lat="42.4182100" lon="-8.6340940">
        <ele>21.3</ele>
        <time>2021-05-21T11:28:13Z</time>
      </trkpt>
      <trkpt lat="42.4182160" lon="-8.6341210">
        <ele>21.3</ele>
        <time>2021-05-21T11:28:14Z</time>
      </trkpt>
      <trkpt lat="42.4182220" lon="-8.6341380">
        <ele>21.3</ele>
        <time>2021-05-21T11:28:15Z</time>
      </trkpt>
      <trkpt lat="42.4182220" lon="-8.6341520">
        <ele>21.3</ele>
        <time>2021-05-21T11:28:16Z</time>
      </trkpt>
      <trkpt lat="42.4182280" lon="-8.6341640">
        <ele>21.3</ele>
        <time>2021-05-21T11:28:17Z</time>
      </trkpt>
      <trkpt lat="42.4182440" lon="-8.6341830">
        <ele>21.3</ele>
        <time>2021-05-21T11:28:18Z</time>
      </trkpt>
      <trkpt lat="42.4182530" lon="-8.6341900">
        <ele>21.2</ele>
        <time>2021-05-21T11:28:19Z</time>
      </trkpt>
      <trkpt lat="42.4182640" lon="-8.6342030">
        <ele>21.2</ele>
        <time>2021-05-21T11:28:20Z</time>
      </trkpt>
      <trkpt lat="42.4182660" lon="-8.6342260">
        <ele>21.2</ele>
        <time>2021-05-21T11:28:21Z</time>
      </trkpt>
      <trkpt lat="42.4182730" lon="-8.6342450">
        <ele>21.2</ele>
        <time>2021-05-21T11:28:22Z</time>
      </trkpt>
      <trkpt lat="42.4182730" lon="-8.6342680">
        <ele>21.2</ele>
        <time>2021-05-21T11:28:23Z</time>
      </trkpt>
      <trkpt lat="42.4182730" lon="-8.6342790">
        <ele>21.2</ele>
        <time>2021-05-21T11:28:24Z</time>
      </trkpt>
      <trkpt lat="42.4182860" lon="-8.6342890">
        <ele>21.2</ele>
        <time>2021-05-21T11:28:25Z</time>
      </trkpt>
      <trkpt lat="42.4182870" lon="-8.6343060">
        <ele>21.1</ele>
        <time>2021-05-21T11:28:26Z</time>
      </trkpt>
      <trkpt lat="42.4182970" lon="-8.6343170">
        <ele>21.1</ele>
        <time>2021-05-21T11:28:27Z</time>
      </trkpt>
      <trkpt lat="42.4182990" lon="-8.6343340">
        <ele>21.1</ele>
        <time>2021-05-21T11:28:28Z</time>
      </trkpt>
      <trkpt lat="42.4183090" lon="-8.6343420">
        <ele>21.1</ele>
        <time>2021-05-21T11:28:29Z</time>
      </trkpt>
      <trkpt lat="42.4183100" lon="-8.6343630">
        <ele>21.1</ele>
        <time>2021-05-21T11:28:30Z</time>
      </trkpt>
      <trkpt lat="42.4183100" lon="-8.6343860">
        <ele>21.1</ele>
        <time>2021-05-21T11:28:31Z</time>
      </trkpt>
      <trkpt lat="42.4183090" lon="-8.6343960">
        <ele>21.1</ele>
        <time>2021-05-21T11:28:32Z</time>
      </trkpt>
      <trkpt lat="42.4183140" lon="-8.6344090">
        <ele>21.1</ele>
        <time>2021-05-21T11:28:33Z</time>
      </trkpt>
      <trkpt lat="42.4183160" lon="-8.6344340">
        <ele>21.0</ele>
        <time>2021-05-21T11:28:34Z</time>
      </trkpt>
      <trkpt lat="42.4183170" lon="-8.6344470">
        <ele>21.0</ele>
        <time>2021-05-21T11:28:35Z</time>
      </trkpt>
      <trkpt lat="42.4183210" lon="-8.6344620">
        <ele>21.0</ele>
        <time>2021-05-21T11:28:36Z</time>
      </trkpt>
      <trkpt lat="42.4183140" lon="-8.6344730">
        <ele>21.0</ele>
        <time>2021-05-21T11:28:37Z</time>
      </trkpt>
      <trkpt lat="42.4183140" lon="-8.6344870">
        <ele>21.0</ele>
        <time>2021-05-21T11:28:38Z</time>
      </trkpt>
      <trkpt lat="42.4183150" lon="-8.6344860">
        <ele>21.0</ele>
        <time>2021-05-21T11:28:39Z</time>
      </trkpt>
      <trkpt lat="42.4183140" lon="-8.6344920">
        <ele>21.0</ele>
        <time>2021-05-21T11:28:40Z</time>
      </trkpt>
      <trkpt lat="42.4183130" lon="-8.6345160">
        <ele>21.0</ele>
        <time>2021-05-21T11:28:41Z</time>
      </trkpt>
      <trkpt lat="42.4183180" lon="-8.6345270">
        <ele>21.0</ele>
        <time>2021-05-21T11:28:42Z</time>
      </trkpt>
      <trkpt lat="42.4183150" lon="-8.6345400">
        <ele>21.0</ele>
        <time>2021-05-21T11:28:43Z</time>
      </trkpt>
      <trkpt lat="42.4183160" lon="-8.6345590">
        <ele>21.0</ele>
        <time>2021-05-21T11:28:44Z</time>
      </trkpt>
      <trkpt lat="42.4183180" lon="-8.6345830">
        <ele>20.9</ele>
        <time>2021-05-21T11:28:45Z</time>
      </trkpt>
      <trkpt lat="42.4183220" lon="-8.6346010">
        <ele>20.9</ele>
        <time>2021-05-21T11:28:46Z</time>
      </trkpt>
      <trkpt lat="42.4183270" lon="-8.6346140">
        <ele>20.9</ele>
        <time>2021-05-21T11:28:47Z</time>
      </trkpt>
      <trkpt lat="42.4183330" lon="-8.6346350">
        <ele>20.9</ele>
        <time>2021-05-21T11:28:48Z</time>
      </trkpt>
      <trkpt lat="42.4183280" lon="-8.6346580">
        <ele>20.9</ele>
        <time>2021-05-21T11:28:49Z</time>
      </trkpt>
      <trkpt lat="42.4183250" lon="-8.6346680">
        <ele>20.9</ele>
        <time>2021-05-21T11:28:50Z</time>
      </trkpt>
      <trkpt lat="42.4183210" lon="-8.6346780">
        <ele>20.9</ele>
        <time>2021-05-21T11:28:51Z</time>
      </trkpt>
      <trkpt lat="42.4183180" lon="-8.6346880">
        <ele>20.8</ele>
        <time>2021-05-21T11:28:52Z</time>
      </trkpt>
      <trkpt lat="42.4183120" lon="-8.6347090">
        <ele>20.8</ele>
        <time>2021-05-21T11:28:53Z</time>
      </trkpt>
      <trkpt lat="42.4183160" lon="-8.6347180">
        <ele>20.8</ele>
        <time>2021-05-21T11:28:54Z</time>
      </trkpt>
      <trkpt lat="42.4183210" lon="-8.6347360">
        <ele>20.8</ele>
        <time>2021-05-21T11:28:55Z</time>
      </trkpt>
      <trkpt lat="42.4183280" lon="-8.6347660">
        <ele>20.7</ele>
        <time>2021-05-21T11:28:56Z</time>
      </trkpt>
      <trkpt lat="42.4183310" lon="-8.6347770">
        <ele>20.7</ele>
        <time>2021-05-21T11:28:57Z</time>
      </trkpt>
      <trkpt lat="42.4183350" lon="-8.6347880">
        <ele>20.7</ele>
        <time>2021-05-21T11:28:58Z</time>
      </trkpt>
      <trkpt lat="42.4183390" lon="-8.6348070">
        <ele>20.7</ele>
        <time>2021-05-21T11:28:59Z</time>
      </trkpt>
      <trkpt lat="42.4183410" lon="-8.6348180">
        <ele>20.7</ele>
        <time>2021-05-21T11:29:00Z</time>
      </trkpt>
      <trkpt lat="42.4183420" lon="-8.6348300">
        <ele>20.7</ele>
        <time>2021-05-21T11:29:01Z</time>
      </trkpt>
      <trkpt lat="42.4183440" lon="-8.6348420">
        <ele>20.7</ele>
        <time>2021-05-21T11:29:02Z</time>
      </trkpt>
      <trkpt lat="42.4183490" lon="-8.6348550">
        <ele>20.6</ele>
        <time>2021-05-21T11:29:03Z</time>
      </trkpt>
      <trkpt lat="42.4183490" lon="-8.6348750">
        <ele>20.6</ele>
        <time>2021-05-21T11:29:04Z</time>
      </trkpt>
      <trkpt lat="42.4183500" lon="-8.6348870">
        <ele>20.6</ele>
        <time>2021-05-21T11:29:05Z</time>
      </trkpt>
      <trkpt lat="42.4183480" lon="-8.6349090">
        <ele>20.6</ele>
        <time>2021-05-21T11:29:06Z</time>
      </trkpt>
      <trkpt lat="42.4183560" lon="-8.6349150">
        <ele>20.6</ele>
        <time>2021-05-21T11:29:07Z</time>
      </trkpt>
      <trkpt lat="42.4183570" lon="-8.6349330">
        <ele>20.5</ele>
        <time>2021-05-21T11:29:08Z</time>
      </trkpt>
      <trkpt lat="42.4183560" lon="-8.6349450">
        <ele>20.5</ele>
        <time>2021-05-21T11:29:09Z</time>
      </trkpt>
      <trkpt lat="42.4183560" lon="-8.6349670">
        <ele>20.5</ele>
        <time>2021-05-21T11:29:10Z</time>
      </trkpt>
      <trkpt lat="42.4183540" lon="-8.6349800">
        <ele>20.5</ele>
        <time>2021-05-21T11:29:11Z</time>
      </trkpt>
      <trkpt lat="42.4183570" lon="-8.6350080">
        <ele>20.5</ele>
        <time>2021-05-21T11:29:12Z</time>
      </trkpt>
      <trkpt lat="42.4183600" lon="-8.6350200">
        <ele>20.4</ele>
        <time>2021-05-21T11:29:13Z</time>
      </trkpt>
      <trkpt lat="42.4183620" lon="-8.6350310">
        <ele>20.4</ele>
        <time>2021-05-21T11:29:14Z</time>
      </trkpt>
      <trkpt lat="42.4183670" lon="-8.6350560">
        <ele>20.4</ele>
        <time>2021-05-21T11:29:15Z</time>
      </trkpt>
      <trkpt lat="42.4183670" lon="-8.6350790">
        <ele>20.4</ele>
        <time>2021-05-21T11:29:16Z</time>
      </trkpt>
      <trkpt lat="42.4183710" lon="-8.6351000">
        <ele>20.4</ele>
        <time>2021-05-21T11:29:17Z</time>
      </trkpt>
      <trkpt lat="42.4183740" lon="-8.6351150">
        <ele>20.3</ele>
        <time>2021-05-21T11:29:18Z</time>
      </trkpt>
      <trkpt lat="42.4183840" lon="-8.6351360">
        <ele>20.3</ele>
        <time>2021-05-21T11:29:19Z</time>
      </trkpt>
      <trkpt lat="42.4183950" lon="-8.6351480">
        <ele>20.3</ele>
        <time>2021-05-21T11:29:20Z</time>
      </trkpt>
      <trkpt lat="42.4183970" lon="-8.6351680">
        <ele>20.3</ele>
        <time>2021-05-21T11:29:21Z</time>
      </trkpt>
      <trkpt lat="42.4184090" lon="-8.6351790">
        <ele>20.3</ele>
        <time>2021-05-21T11:29:22Z</time>
      </trkpt>
      <trkpt lat="42.4184140" lon="-8.6352030">
        <ele>20.2</ele>
        <time>2021-05-21T11:29:23Z</time>
      </trkpt>
      <trkpt lat="42.4184180" lon="-8.6352230">
        <ele>20.2</ele>
        <time>2021-05-21T11:29:24Z</time>
      </trkpt>
      <trkpt lat="42.4184310" lon="-8.6352520">
        <ele>20.2</ele>
        <time>2021-05-21T11:29:25Z</time>
      </trkpt>
      <trkpt lat="42.4184320" lon="-8.6352660">
        <ele>20.2</ele>
        <time>2021-05-21T11:29:26Z</time>
      </trkpt>
      <trkpt lat="42.4184340" lon="-8.6352800">
        <ele>20.2</ele>
        <time>2021-05-21T11:29:27Z</time>
      </trkpt>
      <trkpt lat="42.4184360" lon="-8.6352970">
        <ele>20.2</ele>
        <time>2021-05-21T11:29:28Z</time>
      </trkpt>
      <trkpt lat="42.4184460" lon="-8.6353140">
        <ele>20.1</ele>
        <time>2021-05-21T11:29:29Z</time>
      </trkpt>
      <trkpt lat="42.4184500" lon="-8.6353280">
        <ele>20.1</ele>
        <time>2021-05-21T11:29:30Z</time>
      </trkpt>
      <trkpt lat="42.4184560" lon="-8.6353390">
        <ele>20.1</ele>
        <time>2021-05-21T11:29:31Z</time>
      </trkpt>
      <trkpt lat="42.4184580" lon="-8.6353560">
        <ele>20.1</ele>
        <time>2021-05-21T11:29:32Z</time>
      </trkpt>
      <trkpt lat="42.4184620" lon="-8.6353760">
        <ele>20.1</ele>
        <time>2021-05-21T11:29:33Z</time>
      </trkpt>
      <trkpt lat="42.4184710" lon="-8.6353920">
        <ele>20.1</ele>
        <time>2021-05-21T11:29:34Z</time>
      </trkpt>
      <trkpt lat="42.4184820" lon="-8.6354110">
        <ele>20.1</ele>
        <time>2021-05-21T11:29:35Z</time>
      </trkpt>
      <trkpt lat="42.4184950" lon="-8.6354200">
        <ele>20.1</ele>
        <time>2021-05-21T11:29:36Z</time>
      </trkpt>
      <trkpt lat="42.4184990" lon="-8.6354380">
        <ele>20.1</ele>
        <time>2021-05-21T11:29:37Z</time>
      </trkpt>
      <trkpt lat="42.4184980" lon="-8.6354610">
        <ele>20.1</ele>
        <time>2021-05-21T11:29:38Z</time>
      </trkpt>
      <trkpt lat="42.4185110" lon="-8.6354770">
        <ele>20.0</ele>
        <time>2021-05-21T11:29:39Z</time>
      </trkpt>
      <trkpt lat="42.4185110" lon="-8.6354970">
        <ele>20.0</ele>
        <time>2021-05-21T11:29:40Z</time>
      </trkpt>
      <trkpt lat="42.4185130" lon="-8.6355260">
        <ele>20.0</ele>
        <time>2021-05-21T11:29:41Z</time>
      </trkpt>
      <trkpt lat="42.4185150" lon="-8.6355370">
        <ele>20.0</ele>
        <time>2021-05-21T11:29:42Z</time>
      </trkpt>
      <trkpt lat="42.4185210" lon="-8.6355480">
        <ele>20.0</ele>
        <time>2021-05-21T11:29:43Z</time>
      </trkpt>
      <trkpt lat="42.4185270" lon="-8.6355620">
        <ele>20.0</ele>
        <time>2021-05-21T11:29:44Z</time>
      </trkpt>
      <trkpt lat="42.4185310" lon="-8.6355750">
        <ele>20.0</ele>
        <time>2021-05-21T11:29:45Z</time>
      </trkpt>
      <trkpt lat="42.4185420" lon="-8.6356010">
        <ele>20.0</ele>
        <time>2021-05-21T11:29:46Z</time>
      </trkpt>
      <trkpt lat="42.4185480" lon="-8.6356090">
        <ele>20.0</ele>
        <time>2021-05-21T11:29:47Z</time>
      </trkpt>
      <trkpt lat="42.4185540" lon="-8.6356180">
        <ele>20.0</ele>
        <time>2021-05-21T11:29:48Z</time>
      </trkpt>
      <trkpt lat="42.4185620" lon="-8.6356400">
        <ele>20.0</ele>
        <time>2021-05-21T11:29:49Z</time>
      </trkpt>
      <trkpt lat="42.4185680" lon="-8.6356580">
        <ele>20.0</ele>
        <time>2021-05-21T11:29:50Z</time>
      </trkpt>
      <trkpt lat="42.4185840" lon="-8.6356730">
        <ele>20.0</ele>
        <time>2021-05-21T11:29:51Z</time>
      </trkpt>
      <trkpt lat="42.4185920" lon="-8.6356790">
        <ele>19.9</ele>
        <time>2021-05-21T11:29:52Z</time>
      </trkpt>
      <trkpt lat="42.4186000" lon="-8.6356860">
        <ele>19.9</ele>
        <time>2021-05-21T11:29:53Z</time>
      </trkpt>
      <trkpt lat="42.4186010" lon="-8.6357080">
        <ele>19.9</ele>
        <time>2021-05-21T11:29:54Z</time>
      </trkpt>
      <trkpt lat="42.4186060" lon="-8.6357260">
        <ele>19.9</ele>
        <time>2021-05-21T11:29:55Z</time>
      </trkpt>
      <trkpt lat="42.4186110" lon="-8.6357490">
        <ele>19.9</ele>
        <time>2021-05-21T11:29:56Z</time>
      </trkpt>
      <trkpt lat="42.4186150" lon="-8.6357530">
        <ele>19.9</ele>
        <time>2021-05-21T11:29:57Z</time>
      </trkpt>
      <trkpt lat="42.4186200" lon="-8.6357670">
        <ele>19.9</ele>
        <time>2021-05-21T11:29:58Z</time>
      </trkpt>
      <trkpt lat="42.4186240" lon="-8.6357860">
        <ele>19.9</ele>
        <time>2021-05-21T11:29:59Z</time>
      </trkpt>
      <trkpt lat="42.4186250" lon="-8.6357980">
        <ele>19.9</ele>
        <time>2021-05-21T11:30:00Z</time>
      </trkpt>
      <trkpt lat="42.4186280" lon="-8.6358090">
        <ele>19.9</ele>
        <time>2021-05-21T11:30:01Z</time>
      </trkpt>
      <trkpt lat="42.4186250" lon="-8.6358290">
        <ele>19.9</ele>
        <time>2021-05-21T11:30:02Z</time>
      </trkpt>
      <trkpt lat="42.4186230" lon="-8.6358430">
        <ele>19.9</ele>
        <time>2021-05-21T11:30:03Z</time>
      </trkpt>
      <trkpt lat="42.4186230" lon="-8.6358530">
        <ele>19.9</ele>
        <time>2021-05-21T11:30:04Z</time>
      </trkpt>
      <trkpt lat="42.4186240" lon="-8.6358540">
        <ele>19.9</ele>
        <time>2021-05-21T11:30:05Z</time>
      </trkpt>
      <trkpt lat="42.4186240" lon="-8.6358530">
        <ele>19.9</ele>
        <time>2021-05-21T11:30:06Z</time>
      </trkpt>
      <trkpt lat="42.4186230" lon="-8.6358500">
        <ele>19.9</ele>
        <time>2021-05-21T11:30:07Z</time>
      </trkpt>
      <trkpt lat="42.4186280" lon="-8.6358590">
        <ele>19.8</ele>
        <time>2021-05-21T11:30:08Z</time>
      </trkpt>
      <trkpt lat="42.4186300" lon="-8.6358730">
        <ele>19.8</ele>
        <time>2021-05-21T11:30:09Z</time>
      </trkpt>
      <trkpt lat="42.4186290" lon="-8.6359010">
        <ele>19.8</ele>
        <time>2021-05-21T11:30:10Z</time>
      </trkpt>
      <trkpt lat="42.4186310" lon="-8.6359200">
        <ele>19.8</ele>
        <time>2021-05-21T11:30:11Z</time>
      </trkpt>
      <trkpt lat="42.4186290" lon="-8.6359480">
        <ele>19.8</ele>
        <time>2021-05-21T11:30:12Z</time>
      </trkpt>
      <trkpt lat="42.4186250" lon="-8.6359890">
        <ele>19.8</ele>
        <time>2021-05-21T11:30:13Z</time>
      </trkpt>
      <trkpt lat="42.4186260" lon="-8.6360040">
        <ele>19.8</ele>
        <time>2021-05-21T11:30:14Z</time>
      </trkpt>
      <trkpt lat="42.4186400" lon="-8.6360410">
        <ele>19.7</ele>
        <time>2021-05-21T11:30:15Z</time>
      </trkpt>
      <trkpt lat="42.4186440" lon="-8.6360520">
        <ele>19.7</ele>
        <time>2021-05-21T11:30:16Z</time>
      </trkpt>
      <trkpt lat="42.4186630" lon="-8.6360800">
        <ele>19.7</ele>
        <time>2021-05-21T11:30:17Z</time>
      </trkpt>
      <trkpt lat="42.4186730" lon="-8.6360860">
        <ele>19.7</ele>
        <time>2021-05-21T11:30:18Z</time>
      </trkpt>
      <trkpt lat="42.4186790" lon="-8.6361100">
        <ele>19.7</ele>
        <time>2021-05-21T11:30:19Z</time>
      </trkpt>
      <trkpt lat="42.4186860" lon="-8.6361290">
        <ele>19.7</ele>
        <time>2021-05-21T11:30:20Z</time>
      </trkpt>
      <trkpt lat="42.4187100" lon="-8.6361560">
        <ele>19.7</ele>
        <time>2021-05-21T11:30:21Z</time>
      </trkpt>
      <trkpt lat="42.4187210" lon="-8.6361620">
        <ele>19.7</ele>
        <time>2021-05-21T11:30:22Z</time>
      </trkpt>
      <trkpt lat="42.4187350" lon="-8.6361820">
        <ele>19.7</ele>
        <time>2021-05-21T11:30:23Z</time>
      </trkpt>
      <trkpt lat="42.4187520" lon="-8.6361920">
        <ele>19.7</ele>
        <time>2021-05-21T11:30:24Z</time>
      </trkpt>
      <trkpt lat="42.4187630" lon="-8.6362080">
        <ele>19.7</ele>
        <time>2021-05-21T11:30:25Z</time>
      </trkpt>
      <trkpt lat="42.4187780" lon="-8.6362240">
        <ele>19.7</ele>
        <time>2021-05-21T11:30:26Z</time>
      </trkpt>
      <trkpt lat="42.4187800" lon="-8.6362290">
        <ele>19.7</ele>
        <time>2021-05-21T11:30:27Z</time>
      </trkpt>
      <trkpt lat="42.4187820" lon="-8.6362330">
        <ele>19.7</ele>
        <time>2021-05-21T11:30:28Z</time>
      </trkpt>
      <trkpt lat="42.4187830" lon="-8.6362380">
        <ele>19.7</ele>
        <time>2021-05-21T11:30:29Z</time>
      </trkpt>
      <trkpt lat="42.4187850" lon="-8.6362420">
        <ele>19.7</ele>
        <time>2021-05-21T11:30:30Z</time>
      </trkpt>
      <trkpt lat="42.4187870" lon="-8.6362470">
        <ele>19.7</ele>
        <time>2021-05-21T11:30:31Z</time>
      </trkpt>
      <trkpt lat="42.4188010" lon="-8.6362550">
        <ele>19.7</ele>
        <time>2021-05-21T11:30:32Z</time>
      </trkpt>
      <trkpt lat="42.4188130" lon="-8.6362520">
        <ele>19.7</ele>
        <time>2021-05-21T11:30:33Z</time>
      </trkpt>
      <trkpt lat="42.4188220" lon="-8.6362510">
        <ele>19.7</ele>
        <time>2021-05-21T11:30:34Z</time>
      </trkpt>
      <trkpt lat="42.4188340" lon="-8.6362590">
        <ele>19.7</ele>
        <time>2021-05-21T11:30:35Z</time>
      </trkpt>
      <trkpt lat="42.4188490" lon="-8.6362620">
        <ele>19.7</ele>
        <time>2021-05-21T11:30:36Z</time>
      </trkpt>
      <trkpt lat="42.4188710" lon="-8.6362640">
        <ele>19.6</ele>
        <time>2021-05-21T11:30:37Z</time>
      </trkpt>
      <trkpt lat="42.4188810" lon="-8.6362660">
        <ele>19.6</ele>
        <time>2021-05-21T11:30:38Z</time>
      </trkpt>
      <trkpt lat="42.4188910" lon="-8.6362680">
        <ele>19.6</ele>
        <time>2021-05-21T11:30:39Z</time>
      </trkpt>
      <trkpt lat="42.4189120" lon="-8.6362690">
        <ele>19.6</ele>
        <time>2021-05-21T11:30:40Z</time>
      </trkpt>
      <trkpt lat="42.4189230" lon="-8.6362660">
        <ele>19.6</ele>
        <time>2021-05-21T11:30:41Z</time>
      </trkpt>
      <trkpt lat="42.4189410" lon="-8.6362580">
        <ele>19.6</ele>
        <time>2021-05-21T11:30:42Z</time>
      </trkpt>
      <trkpt lat="42.4189530" lon="-8.6362600">
        <ele>19.6</ele>
        <time>2021-05-21T11:30:43Z</time>
      </trkpt>
      <trkpt lat="42.4189730" lon="-8.6362490">
        <ele>19.6</ele>
        <time>2021-05-21T11:30:44Z</time>
      </trkpt>
      <trkpt lat="42.4189810" lon="-8.6362500">
        <ele>19.6</ele>
        <time>2021-05-21T11:30:45Z</time>
      </trkpt>
      <trkpt lat="42.4189890" lon="-8.6362510">
        <ele>19.6</ele>
        <time>2021-05-21T11:30:46Z</time>
      </trkpt>
      <trkpt lat="42.4190000" lon="-8.6362430">
        <ele>19.6</ele>
        <time>2021-05-21T11:30:47Z</time>
      </trkpt>
      <trkpt lat="42.4190170" lon="-8.6362460">
        <ele>19.6</ele>
        <time>2021-05-21T11:30:48Z</time>
      </trkpt>
      <trkpt lat="42.4190350" lon="-8.6362430">
        <ele>19.6</ele>
        <time>2021-05-21T11:30:49Z</time>
      </trkpt>
      <trkpt lat="42.4190440" lon="-8.6362470">
        <ele>19.6</ele>
        <time>2021-05-21T11:30:50Z</time>
      </trkpt>
      <trkpt lat="42.4190540" lon="-8.6362500">
        <ele>19.6</ele>
        <time>2021-05-21T11:30:51Z</time>
      </trkpt>
      <trkpt lat="42.4190650" lon="-8.6362610">
        <ele>19.6</ele>
        <time>2021-05-21T11:30:52Z</time>
      </trkpt>
      <trkpt lat="42.4190770" lon="-8.6362650">
        <ele>19.6</ele>
        <time>2021-05-21T11:30:53Z</time>
      </trkpt>
      <trkpt lat="42.4190890" lon="-8.6362690">
        <ele>19.6</ele>
        <time>2021-05-21T11:30:54Z</time>
      </trkpt>
      <trkpt lat="42.4191100" lon="-8.6362880">
        <ele>19.6</ele>
        <time>2021-05-21T11:30:55Z</time>
      </trkpt>
      <trkpt lat="42.4191170" lon="-8.6362970">
        <ele>19.6</ele>
        <time>2021-05-21T11:30:56Z</time>
      </trkpt>
      <trkpt lat="42.4191250" lon="-8.6363050">
        <ele>19.6</ele>
        <time>2021-05-21T11:30:57Z</time>
      </trkpt>
      <trkpt lat="42.4191500" lon="-8.6363180">
        <ele>19.6</ele>
        <time>2021-05-21T11:30:58Z</time>
      </trkpt>
      <trkpt lat="42.4191570" lon="-8.6363200">
        <ele>19.6</ele>
        <time>2021-05-21T11:30:59Z</time>
      </trkpt>
      <trkpt lat="42.4191640" lon="-8.6363210">
        <ele>19.6</ele>
        <time>2021-05-21T11:31:00Z</time>
      </trkpt>
      <trkpt lat="42.4191820" lon="-8.6363370">
        <ele>19.6</ele>
        <time>2021-05-21T11:31:01Z</time>
      </trkpt>
      <trkpt lat="42.4191940" lon="-8.6363420">
        <ele>19.6</ele>
        <time>2021-05-21T11:31:02Z</time>
      </trkpt>
      <trkpt lat="42.4192050" lon="-8.6363460">
        <ele>19.6</ele>
        <time>2021-05-21T11:31:03Z</time>
      </trkpt>
      <trkpt lat="42.4192190" lon="-8.6363660">
        <ele>19.7</ele>
        <time>2021-05-21T11:31:04Z</time>
      </trkpt>
      <trkpt lat="42.4192250" lon="-8.6363770">
        <ele>19.7</ele>
        <time>2021-05-21T11:31:05Z</time>
      </trkpt>
      <trkpt lat="42.4192300" lon="-8.6363890">
        <ele>19.7</ele>
        <time>2021-05-21T11:31:06Z</time>
      </trkpt>
      <trkpt lat="42.4192500" lon="-8.6363840">
        <ele>19.7</ele>
        <time>2021-05-21T11:31:07Z</time>
      </trkpt>
      <trkpt lat="42.4192650" lon="-8.6363860">
        <ele>19.7</ele>
        <time>2021-05-21T11:31:08Z</time>
      </trkpt>
      <trkpt lat="42.4192790" lon="-8.6363990">
        <ele>19.7</ele>
        <time>2021-05-21T11:31:09Z</time>
      </trkpt>
      <trkpt lat="42.4192900" lon="-8.6364040">
        <ele>19.7</ele>
        <time>2021-05-21T11:31:10Z</time>
      </trkpt>
      <trkpt lat="42.4193060" lon="-8.6363970">
        <ele>19.7</ele>
        <time>2021-05-21T11:31:11Z</time>
      </trkpt>
      <trkpt lat="42.4193140" lon="-8.6363980">
        <ele>19.7</ele>
        <time>2021-05-21T11:31:12Z</time>
      </trkpt>
      <trkpt lat="42.4193210" lon="-8.6364030">
        <ele>19.7</ele>
        <time>2021-05-21T11:31:13Z</time>
      </trkpt>
      <trkpt lat="42.4193280" lon="-8.6364140">
        <ele>19.7</ele>
        <time>2021-05-21T11:31:14Z</time>
      </trkpt>
      <trkpt lat="42.4193470" lon="-8.6364130">
        <ele>19.8</ele>
        <time>2021-05-21T11:31:15Z</time>
      </trkpt>
      <trkpt lat="42.4193620" lon="-8.6364210">
        <ele>19.8</ele>
        <time>2021-05-21T11:31:16Z</time>
      </trkpt>
      <trkpt lat="42.4193760" lon="-8.6364280">
        <ele>19.8</ele>
        <time>2021-05-21T11:31:17Z</time>
      </trkpt>
      <trkpt lat="42.4193940" lon="-8.6364260">
        <ele>19.8</ele>
        <time>2021-05-21T11:31:18Z</time>
      </trkpt>
      <trkpt lat="42.4194080" lon="-8.6364220">
        <ele>19.8</ele>
        <time>2021-05-21T11:31:19Z</time>
      </trkpt>
      <trkpt lat="42.4194240" lon="-8.6364210">
        <ele>19.9</ele>
        <time>2021-05-21T11:31:20Z</time>
      </trkpt>
      <trkpt lat="42.4194330" lon="-8.6364210">
        <ele>19.9</ele>
        <time>2021-05-21T11:31:21Z</time>
      </trkpt>
      <trkpt lat="42.4194390" lon="-8.6364400">
        <ele>19.9</ele>
        <time>2021-05-21T11:31:22Z</time>
      </trkpt>
      <trkpt lat="42.4194640" lon="-8.6364520">
        <ele>19.9</ele>
        <time>2021-05-21T11:31:23Z</time>
      </trkpt>
      <trkpt lat="42.4194760" lon="-8.6364560">
        <ele>20.0</ele>
        <time>2021-05-21T11:31:24Z</time>
      </trkpt>
      <trkpt lat="42.4194880" lon="-8.6364570">
        <ele>20.0</ele>
        <time>2021-05-21T11:31:25Z</time>
      </trkpt>
      <trkpt lat="42.4195000" lon="-8.6364750">
        <ele>20.0</ele>
        <time>2021-05-21T11:31:26Z</time>
      </trkpt>
      <trkpt lat="42.4195150" lon="-8.6364760">
        <ele>20.0</ele>
        <time>2021-05-21T11:31:27Z</time>
      </trkpt>
      <trkpt lat="42.4195200" lon="-8.6364770">
        <ele>20.1</ele>
        <time>2021-05-21T11:31:28Z</time>
      </trkpt>
      <trkpt lat="42.4195320" lon="-8.6364720">
        <ele>20.1</ele>
        <time>2021-05-21T11:31:29Z</time>
      </trkpt>
      <trkpt lat="42.4195430" lon="-8.6364800">
        <ele>20.1</ele>
        <time>2021-05-21T11:31:30Z</time>
      </trkpt>
      <trkpt lat="42.4195500" lon="-8.6364960">
        <ele>20.2</ele>
        <time>2021-05-21T11:31:31Z</time>
      </trkpt>
      <trkpt lat="42.4195590" lon="-8.6364970">
        <ele>20.2</ele>
        <time>2021-05-21T11:31:32Z</time>
      </trkpt>
      <trkpt lat="42.4195840" lon="-8.6365000">
        <ele>20.2</ele>
        <time>2021-05-21T11:31:33Z</time>
      </trkpt>
      <trkpt lat="42.4195920" lon="-8.6365060">
        <ele>20.3</ele>
        <time>2021-05-21T11:31:34Z</time>
      </trkpt>
      <trkpt lat="42.4196010" lon="-8.6365110">
        <ele>20.3</ele>
        <time>2021-05-21T11:31:35Z</time>
      </trkpt>
      <trkpt lat="42.4196150" lon="-8.6365370">
        <ele>20.4</ele>
        <time>2021-05-21T11:31:36Z</time>
      </trkpt>
      <trkpt lat="42.4196210" lon="-8.6365470">
        <ele>20.4</ele>
        <time>2021-05-21T11:31:37Z</time>
      </trkpt>
      <trkpt lat="42.4196270" lon="-8.6365580">
        <ele>20.4</ele>
        <time>2021-05-21T11:31:38Z</time>
      </trkpt>
      <trkpt lat="42.4196460" lon="-8.6365650">
        <ele>20.5</ele>
        <time>2021-05-21T11:31:39Z</time>
      </trkpt>
      <trkpt lat="42.4196550" lon="-8.6365710">
        <ele>20.5</ele>
        <time>2021-05-21T11:31:40Z</time>
      </trkpt>
      <trkpt lat="42.4196650" lon="-8.6365780">
        <ele>20.5</ele>
        <time>2021-05-21T11:31:41Z</time>
      </trkpt>
      <trkpt lat="42.4196830" lon="-8.6365940">
        <ele>20.6</ele>
        <time>2021-05-21T11:31:42Z</time>
      </trkpt>
      <trkpt lat="42.4196960" lon="-8.6365930">
        <ele>20.6</ele>
        <time>2021-05-21T11:31:43Z</time>
      </trkpt>
      <trkpt lat="42.4197090" lon="-8.6365930">
        <ele>20.7</ele>
        <time>2021-05-21T11:31:44Z</time>
      </trkpt>
      <trkpt lat="42.4197090" lon="-8.6365890">
        <ele>20.7</ele>
        <time>2021-05-21T11:31:45Z</time>
      </trkpt>
      <trkpt lat="42.4197200" lon="-8.6365840">
        <ele>20.7</ele>
        <time>2021-05-21T11:31:46Z</time>
      </trkpt>
      <trkpt lat="42.4197360" lon="-8.6365960">
        <ele>20.8</ele>
        <time>2021-05-21T11:31:47Z</time>
      </trkpt>
      <trkpt lat="42.4197580" lon="-8.6366040">
        <ele>20.8</ele>
        <time>2021-05-21T11:31:48Z</time>
      </trkpt>
      <trkpt lat="42.4197690" lon="-8.6366110">
        <ele>20.9</ele>
        <time>2021-05-21T11:31:49Z</time>
      </trkpt>
      <trkpt lat="42.4197800" lon="-8.6366180">
        <ele>20.9</ele>
        <time>2021-05-21T11:31:50Z</time>
      </trkpt>
      <trkpt lat="42.4197860" lon="-8.6366170">
        <ele>20.9</ele>
        <time>2021-05-21T11:31:51Z</time>
      </trkpt>
      <trkpt lat="42.4198000" lon="-8.6366180">
        <ele>20.9</ele>
        <time>2021-05-21T11:31:52Z</time>
      </trkpt>
      <trkpt lat="42.4198070" lon="-8.6366170">
        <ele>21.0</ele>
        <time>2021-05-21T11:31:53Z</time>
      </trkpt>
      <trkpt lat="42.4198190" lon="-8.6366130">
        <ele>21.0</ele>
        <time>2021-05-21T11:31:54Z</time>
      </trkpt>
      <trkpt lat="42.4198250" lon="-8.6366170">
        <ele>21.0</ele>
        <time>2021-05-21T11:31:55Z</time>
      </trkpt>
      <trkpt lat="42.4198340" lon="-8.6366210">
        <ele>21.1</ele>
        <time>2021-05-21T11:31:56Z</time>
      </trkpt>
      <trkpt lat="42.4198400" lon="-8.6366300">
        <ele>21.1</ele>
        <time>2021-05-21T11:31:57Z</time>
      </trkpt>
      <trkpt lat="42.4198520" lon="-8.6366270">
        <ele>21.1</ele>
        <time>2021-05-21T11:31:58Z</time>
      </trkpt>
      <trkpt lat="42.4198640" lon="-8.6366280">
        <ele>21.2</ele>
        <time>2021-05-21T11:31:59Z</time>
      </trkpt>
      <trkpt lat="42.4198720" lon="-8.6366310">
        <ele>21.2</ele>
        <time>2021-05-21T11:32:00Z</time>
      </trkpt>
      <trkpt lat="42.4198830" lon="-8.6366340">
        <ele>21.2</ele>
        <time>2021-05-21T11:32:01Z</time>
      </trkpt>
      <trkpt lat="42.4198880" lon="-8.6366330">
        <ele>21.2</ele>
        <time>2021-05-21T11:32:02Z</time>
      </trkpt>
      <trkpt lat="42.4198890" lon="-8.6366300">
        <ele>21.2</ele>
        <time>2021-05-21T11:32:03Z</time>
      </trkpt>
      <trkpt lat="42.4198850" lon="-8.6366300">
        <ele>21.3</ele>
        <time>2021-05-21T11:32:04Z</time>
      </trkpt>
      <trkpt lat="42.4198840" lon="-8.6366280">
        <ele>21.3</ele>
        <time>2021-05-21T11:32:05Z</time>
      </trkpt>
      <trkpt lat="42.4198750" lon="-8.6366260">
        <ele>21.3</ele>
        <time>2021-05-21T11:32:06Z</time>
      </trkpt>
      <trkpt lat="42.4198670" lon="-8.6366400">
        <ele>21.3</ele>
        <time>2021-05-21T11:32:07Z</time>
      </trkpt>
      <trkpt lat="42.4198670" lon="-8.6366430">
        <ele>21.3</ele>
        <time>2021-05-21T11:32:08Z</time>
      </trkpt>
      <trkpt lat="42.4198670" lon="-8.6366470">
        <ele>21.4</ele>
        <time>2021-05-21T11:32:09Z</time>
      </trkpt>
      <trkpt lat="42.4198690" lon="-8.6366500">
        <ele>21.4</ele>
        <time>2021-05-21T11:32:10Z</time>
      </trkpt>
      <trkpt lat="42.4198780" lon="-8.6366490">
        <ele>21.4</ele>
        <time>2021-05-21T11:32:11Z</time>
      </trkpt>
      <trkpt lat="42.4198980" lon="-8.6366620">
        <ele>21.5</ele>
        <time>2021-05-21T11:32:12Z</time>
      </trkpt>
      <trkpt lat="42.4199100" lon="-8.6366630">
        <ele>21.5</ele>
        <time>2021-05-21T11:32:13Z</time>
      </trkpt>
      <trkpt lat="42.4199110" lon="-8.6366660">
        <ele>21.5</ele>
        <time>2021-05-21T11:32:14Z</time>
      </trkpt>
      <trkpt lat="42.4199110" lon="-8.6366640">
        <ele>21.5</ele>
        <time>2021-05-21T11:32:15Z</time>
      </trkpt>
      <trkpt lat="42.4199110" lon="-8.6366750">
        <ele>21.5</ele>
        <time>2021-05-21T11:32:16Z</time>
      </trkpt>
      <trkpt lat="42.4199130" lon="-8.6366740">
        <ele>21.5</ele>
        <time>2021-05-21T11:32:17Z</time>
      </trkpt>
      <trkpt lat="42.4199140" lon="-8.6366720">
        <ele>21.6</ele>
        <time>2021-05-21T11:32:18Z</time>
      </trkpt>
      <trkpt lat="42.4199210" lon="-8.6366670">
        <ele>21.6</ele>
        <time>2021-05-21T11:32:19Z</time>
      </trkpt>
      <trkpt lat="42.4199240" lon="-8.6366630">
        <ele>21.6</ele>
        <time>2021-05-21T11:32:20Z</time>
      </trkpt>
      <trkpt lat="42.4199270" lon="-8.6366610">
        <ele>21.6</ele>
        <time>2021-05-21T11:32:21Z</time>
      </trkpt>
      <trkpt lat="42.4199290" lon="-8.6366650">
        <ele>21.6</ele>
        <time>2021-05-21T11:32:22Z</time>
      </trkpt>
      <trkpt lat="42.4199310" lon="-8.6366620">
        <ele>21.6</ele>
        <time>2021-05-21T11:32:23Z</time>
      </trkpt>
      <trkpt lat="42.4199250" lon="-8.6366700">
        <ele>21.6</ele>
        <time>2021-05-21T11:32:24Z</time>
      </trkpt>
      <trkpt lat="42.4199250" lon="-8.6366750">
        <ele>21.7</ele>
        <time>2021-05-21T11:32:25Z</time>
      </trkpt>
      <trkpt lat="42.4199280" lon="-8.6366770">
        <ele>21.7</ele>
        <time>2021-05-21T11:32:26Z</time>
      </trkpt>
      <trkpt lat="42.4199410" lon="-8.6366740">
        <ele>21.7</ele>
        <time>2021-05-21T11:32:27Z</time>
      </trkpt>
      <trkpt lat="42.4199410" lon="-8.6366770">
        <ele>21.7</ele>
        <time>2021-05-21T11:32:28Z</time>
      </trkpt>
      <trkpt lat="42.4199420" lon="-8.6366790">
        <ele>21.7</ele>
        <time>2021-05-21T11:32:29Z</time>
      </trkpt>
      <trkpt lat="42.4199420" lon="-8.6366810">
        <ele>21.7</ele>
        <time>2021-05-21T11:32:30Z</time>
      </trkpt>
      <trkpt lat="42.4199460" lon="-8.6366800">
        <ele>21.7</ele>
        <time>2021-05-21T11:32:31Z</time>
      </trkpt>
      <trkpt lat="42.4199520" lon="-8.6366690">
        <ele>21.7</ele>
        <time>2021-05-21T11:32:32Z</time>
      </trkpt>
      <trkpt lat="42.4199510" lon="-8.6366730">
        <ele>21.7</ele>
        <time>2021-05-21T11:32:33Z</time>
      </trkpt>
      <trkpt lat="42.4199440" lon="-8.6366840">
        <ele>21.8</ele>
        <time>2021-05-21T11:32:34Z</time>
      </trkpt>
      <trkpt lat="42.4199440" lon="-8.6366870">
        <ele>21.8</ele>
        <time>2021-05-21T11:32:35Z</time>
      </trkpt>
      <trkpt lat="42.4199580" lon="-8.6366780">
        <ele>21.8</ele>
        <time>2021-05-21T11:32:36Z</time>
      </trkpt>
      <trkpt lat="42.4199600" lon="-8.6366760">
        <ele>21.8</ele>
        <time>2021-05-21T11:32:37Z</time>
      </trkpt>
      <trkpt lat="42.4199610" lon="-8.6366730">
        <ele>21.8</ele>
        <time>2021-05-21T11:32:38Z</time>
      </trkpt>
      <trkpt lat="42.4199680" lon="-8.6366780">
        <ele>21.8</ele>
        <time>2021-05-21T11:32:39Z</time>
      </trkpt>
      <trkpt lat="42.4199770" lon="-8.6366750">
        <ele>21.8</ele>
        <time>2021-05-21T11:32:40Z</time>
      </trkpt>
      <trkpt lat="42.4199880" lon="-8.6366670">
        <ele>21.8</ele>
        <time>2021-05-21T11:32:41Z</time>
      </trkpt>
      <trkpt lat="42.4200020" lon="-8.6366540">
        <ele>21.8</ele>
        <time>2021-05-21T11:32:42Z</time>
      </trkpt>
      <trkpt lat="42.4200100" lon="-8.6366520">
        <ele>21.8</ele>
        <time>2021-05-21T11:32:43Z</time>
      </trkpt>
      <trkpt lat="42.4200190" lon="-8.6366510">
        <ele>21.8</ele>
        <time>2021-05-21T11:32:44Z</time>
      </trkpt>
      <trkpt lat="42.4200220" lon="-8.6366500">
        <ele>21.8</ele>
        <time>2021-05-21T11:32:45Z</time>
      </trkpt>
      <trkpt lat="42.4200210" lon="-8.6366550">
        <ele>21.8</ele>
        <time>2021-05-21T11:32:46Z</time>
      </trkpt>
      <trkpt lat="42.4200240" lon="-8.6366540">
        <ele>21.8</ele>
        <time>2021-05-21T11:32:47Z</time>
      </trkpt>
      <trkpt lat="42.4200240" lon="-8.6366530">
        <ele>21.8</ele>
        <time>2021-05-21T11:32:48Z</time>
      </trkpt>
      <trkpt lat="42.4200200" lon="-8.6366520">
        <ele>21.8</ele>
        <time>2021-05-21T11:32:49Z</time>
      </trkpt>
      <trkpt lat="42.4200220" lon="-8.6366510">
        <ele>21.8</ele>
        <time>2021-05-21T11:32:50Z</time>
      </trkpt>
      <trkpt lat="42.4200240" lon="-8.6366500">
        <ele>21.8</ele>
        <time>2021-05-21T11:32:51Z</time>
      </trkpt>
      <trkpt lat="42.4200240" lon="-8.6366500">
        <ele>21.8</ele>
        <time>2021-05-21T11:32:52Z</time>
      </trkpt>
      <trkpt lat="42.4200250" lon="-8.6366470">
        <ele>21.8</ele>
        <time>2021-05-21T11:32:53Z</time>
      </trkpt>
      <trkpt lat="42.4200230" lon="-8.6366500">
        <ele>21.8</ele>
        <time>2021-05-21T11:32:54Z</time>
      </trkpt>
      <trkpt lat="42.4200220" lon="-8.6366510">
        <ele>21.8</ele>
        <time>2021-05-21T11:32:55Z</time>
      </trkpt>
      <trkpt lat="42.4200170" lon="-8.6366530">
        <ele>21.8</ele>
        <time>2021-05-21T11:32:56Z</time>
      </trkpt>
      <trkpt lat="42.4200160" lon="-8.6366600">
        <ele>21.8</ele>
        <time>2021-05-21T11:32:57Z</time>
      </trkpt>
      <trkpt lat="42.4200190" lon="-8.6366620">
        <ele>21.8</ele>
        <time>2021-05-21T11:32:58Z</time>
      </trkpt>
      <trkpt lat="42.4200150" lon="-8.6366560">
        <ele>21.8</ele>
        <time>2021-05-21T11:32:59Z</time>
      </trkpt>
      <trkpt lat="42.4200150" lon="-8.6366550">
        <ele>21.8</ele>
        <time>2021-05-21T11:33:00Z</time>
      </trkpt>
      <trkpt lat="42.4200110" lon="-8.6366580">
        <ele>21.8</ele>
        <time>2021-05-21T11:33:01Z</time>
      </trkpt>
      <trkpt lat="42.4200110" lon="-8.6366590">
        <ele>21.8</ele>
        <time>2021-05-21T11:33:02Z</time>
      </trkpt>
      <trkpt lat="42.4200110" lon="-8.6366620">
        <ele>21.8</ele>
        <time>2021-05-21T11:33:03Z</time>
      </trkpt>
      <trkpt lat="42.4200090" lon="-8.6366610">
        <ele>21.8</ele>
        <time>2021-05-21T11:33:04Z</time>
      </trkpt>
      <trkpt lat="42.4200070" lon="-8.6366590">
        <ele>21.8</ele>
        <time>2021-05-21T11:33:05Z</time>
      </trkpt>
      <trkpt lat="42.4200060" lon="-8.6366640">
        <ele>21.8</ele>
        <time>2021-05-21T11:33:06Z</time>
      </trkpt>
      <trkpt lat="42.4200040" lon="-8.6366630">
        <ele>21.8</ele>
        <time>2021-05-21T11:33:07Z</time>
      </trkpt>
      <trkpt lat="42.4200090" lon="-8.6366540">
        <ele>21.8</ele>
        <time>2021-05-21T11:33:08Z</time>
      </trkpt>
      <trkpt lat="42.4200050" lon="-8.6366480">
        <ele>21.8</ele>
        <time>2021-05-21T11:33:09Z</time>
      </trkpt>
      <trkpt lat="42.4199990" lon="-8.6366430">
        <ele>21.8</ele>
        <time>2021-05-21T11:33:10Z</time>
      </trkpt>
      <trkpt lat="42.4199970" lon="-8.6366450">
        <ele>21.8</ele>
        <time>2021-05-21T11:33:11Z</time>
      </trkpt>
      <trkpt lat="42.4199910" lon="-8.6366380">
        <ele>21.8</ele>
        <time>2021-05-21T11:33:12Z</time>
      </trkpt>
      <trkpt lat="42.4199910" lon="-8.6366330">
        <ele>21.8</ele>
        <time>2021-05-21T11:33:13Z</time>
      </trkpt>
      <trkpt lat="42.4199920" lon="-8.6366290">
        <ele>21.8</ele>
        <time>2021-05-21T11:33:14Z</time>
      </trkpt>
      <trkpt lat="42.4199940" lon="-8.6366250">
        <ele>21.8</ele>
        <time>2021-05-21T11:33:15Z</time>
      </trkpt>
      <trkpt lat="42.4199950" lon="-8.6366210">
        <ele>21.8</ele>
        <time>2021-05-21T11:33:16Z</time>
      </trkpt>
      <trkpt lat="42.4199970" lon="-8.6366170">
        <ele>21.8</ele>
        <time>2021-05-21T11:33:17Z</time>
      </trkpt>
      <trkpt lat="42.4199980" lon="-8.6366140">
        <ele>21.8</ele>
        <time>2021-05-21T11:33:18Z</time>
      </trkpt>
      <trkpt lat="42.4200000" lon="-8.6366100">
        <ele>21.8</ele>
        <time>2021-05-21T11:33:19Z</time>
      </trkpt>
      <trkpt lat="42.4200020" lon="-8.6366060">
        <ele>21.8</ele>
        <time>2021-05-21T11:33:20Z</time>
      </trkpt>
      <trkpt lat="42.4200030" lon="-8.6366020">
        <ele>21.8</ele>
        <time>2021-05-21T11:33:21Z</time>
      </trkpt>
      <trkpt lat="42.4200050" lon="-8.6365980">
        <ele>21.8</ele>
        <time>2021-05-21T11:33:22Z</time>
      </trkpt>
      <trkpt lat="42.4200060" lon="-8.6365940">
        <ele>21.8</ele>
        <time>2021-05-21T11:33:23Z</time>
      </trkpt>
      <trkpt lat="42.4200080" lon="-8.6365900">
        <ele>21.8</ele>
        <time>2021-05-21T11:33:24Z</time>
      </trkpt>
      <trkpt lat="42.4200090" lon="-8.6365860">
        <ele>21.8</ele>
        <time>2021-05-21T11:33:25Z</time>
      </trkpt>
      <trkpt lat="42.4200110" lon="-8.6365820">
        <ele>21.8</ele>
        <time>2021-05-21T11:33:26Z</time>
      </trkpt>
      <trkpt lat="42.4200130" lon="-8.6365780">
        <ele>21.8</ele>
        <time>2021-05-21T11:33:27Z</time>
      </trkpt>
      <trkpt lat="42.4200140" lon="-8.6365750">
        <ele>21.8</ele>
        <time>2021-05-21T11:33:29Z</time>
      </trkpt>
      <trkpt lat="42.4200160" lon="-8.6365710">
        <ele>21.8</ele>
        <time>2021-05-21T11:33:30Z</time>
      </trkpt>
      <trkpt lat="42.4200170" lon="-8.6365670">
        <ele>21.8</ele>
        <time>2021-05-21T11:33:31Z</time>
      </trkpt>
      <trkpt lat="42.4200190" lon="-8.6365630">
        <ele>21.8</ele>
        <time>2021-05-21T11:33:32Z</time>
      </trkpt>
      <trkpt lat="42.4200200" lon="-8.6365590">
        <ele>21.8</ele>
        <time>2021-05-21T11:33:33Z</time>
      </trkpt>
      <trkpt lat="42.4200220" lon="-8.6365550">
        <ele>21.8</ele>
        <time>2021-05-21T11:33:34Z</time>
      </trkpt>
      <trkpt lat="42.4200260" lon="-8.6364990">
        <ele>21.9</ele>
        <time>2021-05-21T11:33:35Z</time>
      </trkpt>
      <trkpt lat="42.4200260" lon="-8.6364560">
        <ele>21.9</ele>
        <time>2021-05-21T11:33:36Z</time>
      </trkpt>
      <trkpt lat="42.4200300" lon="-8.6363930">
        <ele>21.9</ele>
        <time>2021-05-21T11:33:37Z</time>
      </trkpt>
      <trkpt lat="42.4200200" lon="-8.6363620">
        <ele>21.9</ele>
        <time>2021-05-21T11:33:38Z</time>
      </trkpt>
      <trkpt lat="42.4200200" lon="-8.6363630">
        <ele>21.9</ele>
        <time>2021-05-21T11:33:51Z</time>
      </trkpt>
      <trkpt lat="42.4200200" lon="-8.6363630">
        <ele>21.9</ele>
        <time>2021-05-21T11:33:57Z</time>
      </trkpt>
      <trkpt lat="42.4200200" lon="-8.6363630">
        <ele>21.9</ele>
        <time>2021-05-21T11:34:03Z</time>
      </trkpt>
      <trkpt lat="42.4200200" lon="-8.6363640">
        <ele>21.9</ele>
        <time>2021-05-21T11:34:08Z</time>
      </trkpt>
      <trkpt lat="42.4200200" lon="-8.6363640">
        <ele>21.9</ele>
        <time>2021-05-21T11:34:09Z</time>
      </trkpt>
      <trkpt lat="42.4200190" lon="-8.6363640">
        <ele>21.9</ele>
        <time>2021-05-21T11:34:20Z</time>
      </trkpt>
      <trkpt lat="42.4200190" lon="-8.6363650">
        <ele>21.9</ele>
        <time>2021-05-21T11:34:21Z</time>
      </trkpt>
      <trkpt lat="42.4200190" lon="-8.6363650">
        <ele>21.9</ele>
        <time>2021-05-21T11:34:27Z</time>
      </trkpt>
      <trkpt lat="42.4200190" lon="-8.6363660">
        <ele>21.9</ele>
        <time>2021-05-21T11:34:33Z</time>
      </trkpt>
      <trkpt lat="42.4200190" lon="-8.6363660">
        <ele>21.9</ele>
        <time>2021-05-21T11:34:39Z</time>
      </trkpt>
      <trkpt lat="42.4200190" lon="-8.6363660">
        <ele>21.9</ele>
        <time>2021-05-21T11:34:45Z</time>
      </trkpt>
      <trkpt lat="42.4200190" lon="-8.6363670">
        <ele>21.9</ele>
        <time>2021-05-21T11:34:51Z</time>
      </trkpt>
      <trkpt lat="42.4200190" lon="-8.6363670">
        <ele>21.9</ele>
        <time>2021-05-21T11:34:57Z</time>
      </trkpt>
      <trkpt lat="42.4200190" lon="-8.6363670">
        <ele>21.9</ele>
        <time>2021-05-21T11:35:03Z</time>
      </trkpt>
      <trkpt lat="42.4200190" lon="-8.6363680">
        <ele>21.9</ele>
        <time>2021-05-21T11:35:11Z</time>
      </trkpt>
      <trkpt lat="42.4200190" lon="-8.6363680">
        <ele>21.9</ele>
        <time>2021-05-21T11:35:12Z</time>
      </trkpt>
      <trkpt lat="42.4200190" lon="-8.6363680">
        <ele>21.9</ele>
        <time>2021-05-21T11:35:18Z</time>
      </trkpt>
      <trkpt lat="42.4200190" lon="-8.6363690">
        <ele>21.9</ele>
        <time>2021-05-21T11:35:24Z</time>
      </trkpt>
      <trkpt lat="42.4200190" lon="-8.6363690">
        <ele>21.9</ele>
        <time>2021-05-21T11:35:30Z</time>
      </trkpt>
      <trkpt lat="42.4200180" lon="-8.6363690">
        <ele>21.9</ele>
        <time>2021-05-21T11:35:36Z</time>
      </trkpt>
      <trkpt lat="42.4200180" lon="-8.6363700">
        <ele>21.9</ele>
        <time>2021-05-21T11:35:42Z</time>
      </trkpt>
      <trkpt lat="42.4200180" lon="-8.6363700">
        <ele>21.9</ele>
        <time>2021-05-21T11:35:48Z</time>
      </trkpt>
      <trkpt lat="42.4200180" lon="-8.6363700">
        <ele>21.9</ele>
        <time>2021-05-21T11:35:54Z</time>
      </trkpt>
      <trkpt lat="42.4200180" lon="-8.6363710">
        <ele>21.9</ele>
        <time>2021-05-21T11:35:55Z</time>
      </trkpt>
      <trkpt lat="42.4200180" lon="-8.6363710">
        <ele>21.9</ele>
        <time>2021-05-21T11:36:01Z</time>
      </trkpt>
      <trkpt lat="42.4200180" lon="-8.6363720">
        <ele>21.9</ele>
        <time>2021-05-21T11:36:08Z</time>
      </trkpt>
      <trkpt lat="42.4200180" lon="-8.6363720">
        <ele>21.9</ele>
        <time>2021-05-21T11:36:14Z</time>
      </trkpt>
      <trkpt lat="42.4200180" lon="-8.6363720">
        <ele>21.9</ele>
        <time>2021-05-21T11:36:15Z</time>
      </trkpt>
      <trkpt lat="42.4200180" lon="-8.6363730">
        <ele>21.9</ele>
        <time>2021-05-21T11:36:16Z</time>
      </trkpt>
      <trkpt lat="42.4200180" lon="-8.6363730">
        <ele>21.9</ele>
        <time>2021-05-21T11:36:17Z</time>
      </trkpt>
      <trkpt lat="42.4200180" lon="-8.6363730">
        <ele>21.9</ele>
        <time>2021-05-21T11:36:18Z</time>
      </trkpt>
      <trkpt lat="42.4200180" lon="-8.6363740">
        <ele>21.9</ele>
        <time>2021-05-21T11:36:19Z</time>
      </trkpt>
      <trkpt lat="42.4200170" lon="-8.6363740">
        <ele>21.9</ele>
        <time>2021-05-21T11:36:20Z</time>
      </trkpt>
      <trkpt lat="42.4200170" lon="-8.6363740">
        <ele>21.9</ele>
        <time>2021-05-21T11:36:21Z</time>
      </trkpt>
      <trkpt lat="42.4200170" lon="-8.6363750">
        <ele>21.9</ele>
        <time>2021-05-21T11:36:22Z</time>
      </trkpt>
      <trkpt lat="42.4200170" lon="-8.6363750">
        <ele>21.9</ele>
        <time>2021-05-21T11:36:23Z</time>
      </trkpt>
      <trkpt lat="42.4200170" lon="-8.6363750">
        <ele>21.9</ele>
        <time>2021-05-21T11:36:24Z</time>
      </trkpt>
      <trkpt lat="42.4200170" lon="-8.6363760">
        <ele>21.9</ele>
        <time>2021-05-21T11:36:25Z</time>
      </trkpt>
      <trkpt lat="42.4200170" lon="-8.6363760">
        <ele>21.9</ele>
        <time>2021-05-21T11:36:26Z</time>
      </trkpt>
      <trkpt lat="42.4200170" lon="-8.6363760">
        <ele>21.9</ele>
        <time>2021-05-21T11:36:39Z</time>
      </trkpt>
      <trkpt lat="42.4200170" lon="-8.6363770">
        <ele>21.9</ele>
        <time>2021-05-21T11:36:41Z</time>
      </trkpt>
      <trkpt lat="42.4200170" lon="-8.6363770">
        <ele>21.9</ele>
        <time>2021-05-21T11:36:45Z</time>
      </trkpt>
      <trkpt lat="42.4200170" lon="-8.6363770">
        <ele>21.9</ele>
        <time>2021-05-21T11:36:51Z</time>
      </trkpt>
      <trkpt lat="42.4200170" lon="-8.6363780">
        <ele>21.9</ele>
        <time>2021-05-21T11:36:57Z</time>
      </trkpt>
      <trkpt lat="42.4200170" lon="-8.6363780">
        <ele>21.9</ele>
        <time>2021-05-21T11:37:03Z</time>
      </trkpt>
      <trkpt lat="42.4200160" lon="-8.6363790">
        <ele>21.9</ele>
        <time>2021-05-21T11:37:09Z</time>
      </trkpt>
      <trkpt lat="42.4200160" lon="-8.6363790">
        <ele>21.9</ele>
        <time>2021-05-21T11:37:15Z</time>
      </trkpt>
      <trkpt lat="42.4200160" lon="-8.6363790">
        <ele>21.9</ele>
        <time>2021-05-21T11:37:21Z</time>
      </trkpt>
      <trkpt lat="42.4200160" lon="-8.6363800">
        <ele>21.9</ele>
        <time>2021-05-21T11:37:27Z</time>
      </trkpt>
      <trkpt lat="42.4200160" lon="-8.6363800">
        <ele>21.9</ele>
        <time>2021-05-21T11:37:35Z</time>
      </trkpt>
      <trkpt lat="42.4200160" lon="-8.6363800">
        <ele>21.9</ele>
        <time>2021-05-21T11:37:41Z</time>
      </trkpt>
      <trkpt lat="42.4200160" lon="-8.6363810">
        <ele>21.9</ele>
        <time>2021-05-21T11:37:47Z</time>
      </trkpt>
      <trkpt lat="42.4200160" lon="-8.6363810">
        <ele>21.9</ele>
        <time>2021-05-21T11:37:53Z</time>
      </trkpt>
      <trkpt lat="42.4200160" lon="-8.6363810">
        <ele>21.9</ele>
        <time>2021-05-21T11:37:59Z</time>
      </trkpt>
      <trkpt lat="42.4200160" lon="-8.6363820">
        <ele>21.9</ele>
        <time>2021-05-21T11:38:05Z</time>
      </trkpt>
      <trkpt lat="42.4200160" lon="-8.6363820">
        <ele>21.9</ele>
        <time>2021-05-21T11:38:11Z</time>
      </trkpt>
      <trkpt lat="42.4200160" lon="-8.6363820">
        <ele>21.9</ele>
        <time>2021-05-21T11:38:17Z</time>
      </trkpt>
      <trkpt lat="42.4200160" lon="-8.6363830">
        <ele>21.9</ele>
        <time>2021-05-21T11:38:23Z</time>
      </trkpt>
      <trkpt lat="42.4200160" lon="-8.6363830">
        <ele>21.9</ele>
        <time>2021-05-21T11:38:29Z</time>
      </trkpt>
      <trkpt lat="42.4200150" lon="-8.6363830">
        <ele>21.9</ele>
        <time>2021-05-21T11:38:35Z</time>
      </trkpt>
      <trkpt lat="42.4200150" lon="-8.6363840">
        <ele>21.9</ele>
        <time>2021-05-21T11:38:41Z</time>
      </trkpt>
      <trkpt lat="42.4200150" lon="-8.6363840">
        <ele>21.9</ele>
        <time>2021-05-21T11:38:47Z</time>
      </trkpt>
      <trkpt lat="42.4200150" lon="-8.6363850">
        <ele>21.9</ele>
        <time>2021-05-21T11:38:54Z</time>
      </trkpt>
      <trkpt lat="42.4200150" lon="-8.6363850">
        <ele>21.9</ele>
        <time>2021-05-21T11:39:00Z</time>
      </trkpt>
      <trkpt lat="42.4200150" lon="-8.6363850">
        <ele>21.9</ele>
        <time>2021-05-21T11:39:06Z</time>
      </trkpt>
      <trkpt lat="42.4200150" lon="-8.6363860">
        <ele>21.9</ele>
        <time>2021-05-21T11:39:12Z</time>
      </trkpt>
      <trkpt lat="42.4200150" lon="-8.6363860">
        <ele>21.9</ele>
        <time>2021-05-21T11:39:18Z</time>
      </trkpt>
      <trkpt lat="42.4200150" lon="-8.6363860">
        <ele>21.9</ele>
        <time>2021-05-21T11:39:24Z</time>
      </trkpt>
      <trkpt lat="42.4200150" lon="-8.6363870">
        <ele>21.9</ele>
        <time>2021-05-21T11:39:30Z</time>
      </trkpt>
      <trkpt lat="42.4200150" lon="-8.6363870">
        <ele>21.9</ele>
        <time>2021-05-21T11:39:37Z</time>
      </trkpt>
      <trkpt lat="42.4200150" lon="-8.6363870">
        <ele>21.9</ele>
        <time>2021-05-21T11:39:43Z</time>
      </trkpt>
      <trkpt lat="42.4200150" lon="-8.6363880">
        <ele>21.9</ele>
        <time>2021-05-21T11:39:49Z</time>
      </trkpt>
      <trkpt lat="42.4200140" lon="-8.6363880">
        <ele>21.9</ele>
        <time>2021-05-21T11:39:55Z</time>
      </trkpt>
      <trkpt lat="42.4200140" lon="-8.6363880">
        <ele>21.9</ele>
        <time>2021-05-21T11:40:01Z</time>
      </trkpt>
      <trkpt lat="42.4200140" lon="-8.6363890">
        <ele>21.9</ele>
        <time>2021-05-21T11:40:07Z</time>
      </trkpt>
      <trkpt lat="42.4200140" lon="-8.6363890">
        <ele>21.9</ele>
        <time>2021-05-21T11:40:13Z</time>
      </trkpt>
      <trkpt lat="42.4200140" lon="-8.6363890">
        <ele>21.9</ele>
        <time>2021-05-21T11:40:19Z</time>
      </trkpt>
      <trkpt lat="42.4200140" lon="-8.6363900">
        <ele>21.9</ele>
        <time>2021-05-21T11:40:25Z</time>
      </trkpt>
      <trkpt lat="42.4200140" lon="-8.6363900">
        <ele>21.9</ele>
        <time>2021-05-21T11:40:26Z</time>
      </trkpt>
      <trkpt lat="42.4200140" lon="-8.6363910">
        <ele>21.9</ele>
        <time>2021-05-21T11:40:27Z</time>
      </trkpt>
      <trkpt lat="42.4200140" lon="-8.6363910">
        <ele>21.9</ele>
        <time>2021-05-21T11:40:28Z</time>
      </trkpt>
      <trkpt lat="42.4200140" lon="-8.6363910">
        <ele>21.9</ele>
        <time>2021-05-21T11:40:29Z</time>
      </trkpt>
      <trkpt lat="42.4200140" lon="-8.6363920">
        <ele>21.9</ele>
        <time>2021-05-21T11:40:30Z</time>
      </trkpt>
      <trkpt lat="42.4200140" lon="-8.6363920">
        <ele>21.9</ele>
        <time>2021-05-21T11:40:32Z</time>
      </trkpt>
      <trkpt lat="42.4200140" lon="-8.6363920">
        <ele>21.9</ele>
        <time>2021-05-21T11:40:33Z</time>
      </trkpt>
      <trkpt lat="42.4200140" lon="-8.6363930">
        <ele>21.9</ele>
        <time>2021-05-21T11:40:34Z</time>
      </trkpt>
      <trkpt lat="42.4200130" lon="-8.6363930">
        <ele>21.9</ele>
        <time>2021-05-21T11:40:35Z</time>
      </trkpt>
      <trkpt lat="42.4200130" lon="-8.6363930">
        <ele>21.9</ele>
        <time>2021-05-21T11:40:36Z</time>
      </trkpt>
      <trkpt lat="42.4200130" lon="-8.6363940">
        <ele>21.9</ele>
        <time>2021-05-21T11:40:37Z</time>
      </trkpt>
      <trkpt lat="42.4200130" lon="-8.6363940">
        <ele>21.9</ele>
        <time>2021-05-21T11:40:38Z</time>
      </trkpt>
      <trkpt lat="42.4200130" lon="-8.6363940">
        <ele>21.9</ele>
        <time>2021-05-21T11:40:39Z</time>
      </trkpt>
      <trkpt lat="42.4200130" lon="-8.6363950">
        <ele>21.9</ele>
        <time>2021-05-21T11:40:41Z</time>
      </trkpt>
      <trkpt lat="42.4200130" lon="-8.6363950">
        <ele>21.9</ele>
        <time>2021-05-21T11:40:55Z</time>
      </trkpt>
      <trkpt lat="42.4200130" lon="-8.6363950">
        <ele>21.9</ele>
        <time>2021-05-21T11:41:03Z</time>
      </trkpt>
      <trkpt lat="42.4200130" lon="-8.6363960">
        <ele>21.9</ele>
        <time>2021-05-21T11:41:09Z</time>
      </trkpt>
      <trkpt lat="42.4200130" lon="-8.6363960">
        <ele>21.9</ele>
        <time>2021-05-21T11:41:11Z</time>
      </trkpt>
      <trkpt lat="42.4200130" lon="-8.6363970">
        <ele>21.9</ele>
        <time>2021-05-21T11:41:17Z</time>
      </trkpt>
      <trkpt lat="42.4200130" lon="-8.6363970">
        <ele>21.9</ele>
        <time>2021-05-21T11:41:23Z</time>
      </trkpt>
      <trkpt lat="42.4200130" lon="-8.6363970">
        <ele>21.9</ele>
        <time>2021-05-21T11:41:29Z</time>
      </trkpt>
      <trkpt lat="42.4200120" lon="-8.6363980">
        <ele>21.9</ele>
        <time>2021-05-21T11:41:35Z</time>
      </trkpt>
      <trkpt lat="42.4200120" lon="-8.6363980">
        <ele>21.9</ele>
        <time>2021-05-21T11:41:41Z</time>
      </trkpt>
      <trkpt lat="42.4200120" lon="-8.6363980">
        <ele>21.9</ele>
        <time>2021-05-21T11:41:47Z</time>
      </trkpt>
      <trkpt lat="42.4200120" lon="-8.6363990">
        <ele>21.9</ele>
        <time>2021-05-21T11:41:53Z</time>
      </trkpt>
      <trkpt lat="42.4200120" lon="-8.6363990">
        <ele>21.9</ele>
        <time>2021-05-21T11:41:59Z</time>
      </trkpt>
      <trkpt lat="42.4200120" lon="-8.6363990">
        <ele>21.9</ele>
        <time>2021-05-21T11:42:05Z</time>
      </trkpt>
      <trkpt lat="42.4200120" lon="-8.6364000">
        <ele>21.9</ele>
        <time>2021-05-21T11:42:11Z</time>
      </trkpt>
      <trkpt lat="42.4200120" lon="-8.6364000">
        <ele>21.9</ele>
        <time>2021-05-21T11:42:17Z</time>
      </trkpt>
      <trkpt lat="42.4200120" lon="-8.6364000">
        <ele>21.9</ele>
        <time>2021-05-21T11:42:23Z</time>
      </trkpt>
      <trkpt lat="42.4200120" lon="-8.6364010">
        <ele>21.9</ele>
        <time>2021-05-21T11:42:29Z</time>
      </trkpt>
      <trkpt lat="42.4200120" lon="-8.6364010">
        <ele>21.9</ele>
        <time>2021-05-21T11:42:35Z</time>
      </trkpt>
      <trkpt lat="42.4200120" lon="-8.6364010">
        <ele>21.9</ele>
        <time>2021-05-21T11:42:41Z</time>
      </trkpt>
      <trkpt lat="42.4200120" lon="-8.6364020">
        <ele>21.9</ele>
        <time>2021-05-21T11:42:47Z</time>
      </trkpt>
      <trkpt lat="42.4200120" lon="-8.6364020">
        <ele>21.9</ele>
        <time>2021-05-21T11:42:53Z</time>
      </trkpt>
      <trkpt lat="42.4200110" lon="-8.6364030">
        <ele>21.9</ele>
        <time>2021-05-21T11:42:59Z</time>
      </trkpt>
      <trkpt lat="42.4200110" lon="-8.6364030">
        <ele>21.9</ele>
        <time>2021-05-21T11:43:05Z</time>
      </trkpt>
      <trkpt lat="42.4200110" lon="-8.6364030">
        <ele>21.9</ele>
        <time>2021-05-21T11:43:11Z</time>
      </trkpt>
      <trkpt lat="42.4200110" lon="-8.6364040">
        <ele>21.9</ele>
        <time>2021-05-21T11:43:17Z</time>
      </trkpt>
      <trkpt lat="42.4200110" lon="-8.6364040">
        <ele>21.9</ele>
        <time>2021-05-21T11:43:23Z</time>
      </trkpt>
      <trkpt lat="42.4200110" lon="-8.6364040">
        <ele>21.9</ele>
        <time>2021-05-21T11:43:29Z</time>
      </trkpt>
      <trkpt lat="42.4200110" lon="-8.6364050">
        <ele>21.9</ele>
        <time>2021-05-21T11:43:35Z</time>
      </trkpt>
      <trkpt lat="42.4200110" lon="-8.6364050">
        <ele>21.9</ele>
        <time>2021-05-21T11:43:41Z</time>
      </trkpt>
      <trkpt lat="42.4200110" lon="-8.6364050">
        <ele>21.9</ele>
        <time>2021-05-21T11:43:47Z</time>
      </trkpt>
      <trkpt lat="42.4200110" lon="-8.6364060">
        <ele>21.9</ele>
        <time>2021-05-21T11:43:53Z</time>
      </trkpt>
      <trkpt lat="42.4200110" lon="-8.6364060">
        <ele>21.9</ele>
        <time>2021-05-21T11:43:59Z</time>
      </trkpt>
      <trkpt lat="42.4200110" lon="-8.6364060">
        <ele>21.9</ele>
        <time>2021-05-21T11:44:05Z</time>
      </trkpt>
      <trkpt lat="42.4200110" lon="-8.6364070">
        <ele>21.9</ele>
        <time>2021-05-21T11:44:11Z</time>
      </trkpt>
      <trkpt lat="42.4200100" lon="-8.6364070">
        <ele>21.9</ele>
        <time>2021-05-21T11:44:17Z</time>
      </trkpt>
      <trkpt lat="42.4200100" lon="-8.6364070">
        <ele>21.9</ele>
        <time>2021-05-21T11:44:23Z</time>
      </trkpt>
      <trkpt lat="42.4200100" lon="-8.6364080">
        <ele>21.9</ele>
        <time>2021-05-21T11:44:29Z</time>
      </trkpt>
      <trkpt lat="42.4200100" lon="-8.6364080">
        <ele>21.9</ele>
        <time>2021-05-21T11:44:35Z</time>
      </trkpt>
      <trkpt lat="42.4200100" lon="-8.6364080">
        <ele>21.9</ele>
        <time>2021-05-21T11:44:41Z</time>
      </trkpt>
      <trkpt lat="42.4200100" lon="-8.6364090">
        <ele>21.9</ele>
        <time>2021-05-21T11:44:47Z</time>
      </trkpt>
      <trkpt lat="42.4200100" lon="-8.6364090">
        <ele>21.9</ele>
        <time>2021-05-21T11:44:53Z</time>
      </trkpt>
      <trkpt lat="42.4200100" lon="-8.6364100">
        <ele>21.9</ele>
        <time>2021-05-21T11:44:59Z</time>
      </trkpt>
      <trkpt lat="42.4200100" lon="-8.6364100">
        <ele>21.9</ele>
        <time>2021-05-21T11:45:05Z</time>
      </trkpt>
      <trkpt lat="42.4200100" lon="-8.6364100">
        <ele>21.9</ele>
        <time>2021-05-21T11:45:11Z</time>
      </trkpt>
      <trkpt lat="42.4200100" lon="-8.6364110">
        <ele>21.9</ele>
        <time>2021-05-21T11:45:17Z</time>
      </trkpt>
      <trkpt lat="42.4200100" lon="-8.6364110">
        <ele>21.9</ele>
        <time>2021-05-21T11:45:23Z</time>
      </trkpt>
      <trkpt lat="42.4200100" lon="-8.6364110">
        <ele>21.9</ele>
        <time>2021-05-21T11:45:29Z</time>
      </trkpt>
      <trkpt lat="42.4200090" lon="-8.6364120">
        <ele>21.9</ele>
        <time>2021-05-21T11:45:35Z</time>
      </trkpt>
      <trkpt lat="42.4200090" lon="-8.6364120">
        <ele>21.9</ele>
        <time>2021-05-21T11:45:41Z</time>
      </trkpt>
      <trkpt lat="42.4200090" lon="-8.6364120">
        <ele>21.9</ele>
        <time>2021-05-21T11:45:47Z</time>
      </trkpt>
      <trkpt lat="42.4200090" lon="-8.6364130">
        <ele>21.9</ele>
        <time>2021-05-21T11:45:53Z</time>
      </trkpt>
      <trkpt lat="42.4200090" lon="-8.6364130">
        <ele>21.9</ele>
        <time>2021-05-21T11:45:59Z</time>
      </trkpt>
      <trkpt lat="42.4200090" lon="-8.6364130">
        <ele>21.9</ele>
        <time>2021-05-21T11:46:05Z</time>
      </trkpt>
      <trkpt lat="42.4200090" lon="-8.6364140">
        <ele>21.9</ele>
        <time>2021-05-21T11:46:06Z</time>
      </trkpt>
      <trkpt lat="42.4200090" lon="-8.6364140">
        <ele>21.9</ele>
        <time>2021-05-21T11:46:07Z</time>
      </trkpt>
      <trkpt lat="42.4200090" lon="-8.6364140">
        <ele>21.9</ele>
        <time>2021-05-21T11:46:08Z</time>
      </trkpt>
      <trkpt lat="42.4200090" lon="-8.6364150">
        <ele>21.9</ele>
        <time>2021-05-21T11:46:09Z</time>
      </trkpt>
      <trkpt lat="42.4200090" lon="-8.6364150">
        <ele>21.9</ele>
        <time>2021-05-21T11:46:10Z</time>
      </trkpt>
      <trkpt lat="42.4200090" lon="-8.6364160">
        <ele>21.9</ele>
        <time>2021-05-21T11:46:11Z</time>
      </trkpt>
      <trkpt lat="42.4200090" lon="-8.6364160">
        <ele>21.9</ele>
        <time>2021-05-21T11:46:12Z</time>
      </trkpt>
      <trkpt lat="42.4200090" lon="-8.6364160">
        <ele>21.9</ele>
        <time>2021-05-21T11:46:13Z</time>
      </trkpt>
      <trkpt lat="42.4200080" lon="-8.6364170">
        <ele>21.9</ele>
        <time>2021-05-21T11:46:15Z</time>
      </trkpt>
      <trkpt lat="42.4200080" lon="-8.6364170">
        <ele>21.9</ele>
        <time>2021-05-21T11:46:30Z</time>
      </trkpt>
      <trkpt lat="42.4200080" lon="-8.6364170">
        <ele>21.9</ele>
        <time>2021-05-21T11:46:36Z</time>
      </trkpt>
      <trkpt lat="42.4200080" lon="-8.6364180">
        <ele>21.9</ele>
        <time>2021-05-21T11:46:39Z</time>
      </trkpt>
      <trkpt lat="42.4200080" lon="-8.6364180">
        <ele>21.9</ele>
        <time>2021-05-21T11:46:42Z</time>
      </trkpt>
      <trkpt lat="42.4200080" lon="-8.6364180">
        <ele>21.9</ele>
        <time>2021-05-21T11:46:45Z</time>
      </trkpt>
      <trkpt lat="42.4200080" lon="-8.6364190">
        <ele>21.9</ele>
        <time>2021-05-21T11:46:51Z</time>
      </trkpt>
      <trkpt lat="42.4200080" lon="-8.6364190">
        <ele>21.9</ele>
        <time>2021-05-21T11:46:57Z</time>
      </trkpt>
      <trkpt lat="42.4200080" lon="-8.6364190">
        <ele>21.9</ele>
        <time>2021-05-21T11:47:03Z</time>
      </trkpt>
      <trkpt lat="42.4200080" lon="-8.6364200">
        <ele>21.9</ele>
        <time>2021-05-21T11:47:09Z</time>
      </trkpt>
      <trkpt lat="42.4200080" lon="-8.6364200">
        <ele>21.9</ele>
        <time>2021-05-21T11:47:15Z</time>
      </trkpt>
      <trkpt lat="42.4200080" lon="-8.6364200">
        <ele>21.9</ele>
        <time>2021-05-21T11:47:21Z</time>
      </trkpt>
      <trkpt lat="42.4200080" lon="-8.6364210">
        <ele>21.9</ele>
        <time>2021-05-21T11:47:27Z</time>
      </trkpt>
      <trkpt lat="42.4200070" lon="-8.6364210">
        <ele>22.0</ele>
        <time>2021-05-21T11:47:33Z</time>
      </trkpt>
      <trkpt lat="42.4200070" lon="-8.6364220">
        <ele>22.0</ele>
        <time>2021-05-21T11:47:39Z</time>
      </trkpt>
      <trkpt lat="42.4200070" lon="-8.6364220">
        <ele>22.0</ele>
        <time>2021-05-21T11:47:45Z</time>
      </trkpt>
      <trkpt lat="42.4200070" lon="-8.6364220">
        <ele>22.0</ele>
        <time>2021-05-21T11:47:51Z</time>
      </trkpt>
      <trkpt lat="42.4200070" lon="-8.6364230">
        <ele>22.0</ele>
        <time>2021-05-21T11:47:57Z</time>
      </trkpt>
      <trkpt lat="42.4200070" lon="-8.6364230">
        <ele>22.0</ele>
        <time>2021-05-21T11:48:03Z</time>
      </trkpt>
      <trkpt lat="42.4200070" lon="-8.6364230">
        <ele>22.0</ele>
        <time>2021-05-21T11:48:09Z</time>
      </trkpt>
      <trkpt lat="42.4200070" lon="-8.6364240">
        <ele>22.0</ele>
        <time>2021-05-21T11:48:15Z</time>
      </trkpt>
      <trkpt lat="42.4200070" lon="-8.6364240">
        <ele>22.0</ele>
        <time>2021-05-21T11:48:21Z</time>
      </trkpt>
      <trkpt lat="42.4200070" lon="-8.6364240">
        <ele>22.0</ele>
        <time>2021-05-21T11:48:27Z</time>
      </trkpt>
      <trkpt lat="42.4200070" lon="-8.6364250">
        <ele>22.0</ele>
        <time>2021-05-21T11:48:33Z</time>
      </trkpt>
      <trkpt lat="42.4200070" lon="-8.6364250">
        <ele>22.0</ele>
        <time>2021-05-21T11:48:39Z</time>
      </trkpt>
      <trkpt lat="42.4200070" lon="-8.6364250">
        <ele>22.0</ele>
        <time>2021-05-21T11:48:45Z</time>
      </trkpt>
      <trkpt lat="42.4200070" lon="-8.6364260">
        <ele>22.0</ele>
        <time>2021-05-21T11:48:51Z</time>
      </trkpt>
      <trkpt lat="42.4200060" lon="-8.6364260">
        <ele>22.0</ele>
        <time>2021-05-21T11:48:57Z</time>
      </trkpt>
      <trkpt lat="42.4200060" lon="-8.6364260">
        <ele>22.0</ele>
        <time>2021-05-21T11:49:03Z</time>
      </trkpt>
      <trkpt lat="42.4200060" lon="-8.6364270">
        <ele>22.0</ele>
        <time>2021-05-21T11:49:09Z</time>
      </trkpt>
      <trkpt lat="42.4200060" lon="-8.6364270">
        <ele>22.0</ele>
        <time>2021-05-21T11:49:15Z</time>
      </trkpt>
      <trkpt lat="42.4200060" lon="-8.6364280">
        <ele>22.0</ele>
        <time>2021-05-21T11:49:21Z</time>
      </trkpt>
      <trkpt lat="42.4200060" lon="-8.6364280">
        <ele>22.0</ele>
        <time>2021-05-21T11:49:27Z</time>
      </trkpt>
      <trkpt lat="42.4200060" lon="-8.6364280">
        <ele>22.0</ele>
        <time>2021-05-21T11:49:33Z</time>
      </trkpt>
      <trkpt lat="42.4200060" lon="-8.6364290">
        <ele>22.0</ele>
        <time>2021-05-21T11:49:39Z</time>
      </trkpt>
      <trkpt lat="42.4200060" lon="-8.6364290">
        <ele>22.0</ele>
        <time>2021-05-21T11:49:45Z</time>
      </trkpt>
      <trkpt lat="42.4200060" lon="-8.6364290">
        <ele>22.0</ele>
        <time>2021-05-21T11:49:51Z</time>
      </trkpt>
      <trkpt lat="42.4200060" lon="-8.6364300">
        <ele>22.0</ele>
        <time>2021-05-21T11:49:57Z</time>
      </trkpt>
      <trkpt lat="42.4200060" lon="-8.6364300">
        <ele>22.0</ele>
        <time>2021-05-21T11:50:03Z</time>
      </trkpt>
      <trkpt lat="42.4200060" lon="-8.6364300">
        <ele>22.0</ele>
        <time>2021-05-21T11:50:09Z</time>
      </trkpt>
      <trkpt lat="42.4200050" lon="-8.6364310">
        <ele>22.0</ele>
        <time>2021-05-21T11:50:15Z</time>
      </trkpt>
      <trkpt lat="42.4200050" lon="-8.6364310">
        <ele>22.0</ele>
        <time>2021-05-21T11:50:21Z</time>
      </trkpt>
      <trkpt lat="42.4200050" lon="-8.6364310">
        <ele>22.0</ele>
        <time>2021-05-21T11:50:27Z</time>
      </trkpt>
      <trkpt lat="42.4200050" lon="-8.6364320">
        <ele>22.0</ele>
        <time>2021-05-21T11:50:33Z</time>
      </trkpt>
      <trkpt lat="42.4200050" lon="-8.6364320">
        <ele>22.0</ele>
        <time>2021-05-21T11:50:39Z</time>
      </trkpt>
      <trkpt lat="42.4200050" lon="-8.6364320">
        <ele>22.0</ele>
        <time>2021-05-21T11:50:45Z</time>
      </trkpt>
      <trkpt lat="42.4200050" lon="-8.6364330">
        <ele>22.0</ele>
        <time>2021-05-21T11:50:51Z</time>
      </trkpt>
      <trkpt lat="42.4200050" lon="-8.6364330">
        <ele>22.0</ele>
        <time>2021-05-21T11:50:57Z</time>
      </trkpt>
      <trkpt lat="42.4200050" lon="-8.6364330">
        <ele>22.0</ele>
        <time>2021-05-21T11:51:03Z</time>
      </trkpt>
      <trkpt lat="42.4200050" lon="-8.6364340">
        <ele>22.0</ele>
        <time>2021-05-21T11:51:09Z</time>
      </trkpt>
      <trkpt lat="42.4200050" lon="-8.6364340">
        <ele>22.0</ele>
        <time>2021-05-21T11:51:15Z</time>
      </trkpt>
      <trkpt lat="42.4200050" lon="-8.6364350">
        <ele>22.0</ele>
        <time>2021-05-21T11:51:21Z</time>
      </trkpt>
      <trkpt lat="42.4200050" lon="-8.6364350">
        <ele>22.0</ele>
        <time>2021-05-21T11:51:27Z</time>
      </trkpt>
      <trkpt lat="42.4200040" lon="-8.6364350">
        <ele>22.0</ele>
        <time>2021-05-21T11:51:33Z</time>
      </trkpt>
      <trkpt lat="42.4200040" lon="-8.6364360">
        <ele>22.0</ele>
        <time>2021-05-21T11:51:39Z</time>
      </trkpt>
      <trkpt lat="42.4200040" lon="-8.6364360">
        <ele>22.0</ele>
        <time>2021-05-21T11:51:45Z</time>
      </trkpt>
      <trkpt lat="42.4200040" lon="-8.6364360">
        <ele>22.0</ele>
        <time>2021-05-21T11:51:51Z</time>
      </trkpt>
      <trkpt lat="42.4200040" lon="-8.6364370">
        <ele>22.0</ele>
        <time>2021-05-21T11:51:57Z</time>
      </trkpt>
      <trkpt lat="42.4200040" lon="-8.6364370">
        <ele>22.0</ele>
        <time>2021-05-21T11:52:03Z</time>
      </trkpt>
      <trkpt lat="42.4200040" lon="-8.6364370">
        <ele>22.0</ele>
        <time>2021-05-21T11:52:09Z</time>
      </trkpt>
      <trkpt lat="42.4200040" lon="-8.6364380">
        <ele>22.0</ele>
        <time>2021-05-21T11:52:15Z</time>
      </trkpt>
      <trkpt lat="42.4200040" lon="-8.6364380">
        <ele>22.0</ele>
        <time>2021-05-21T11:52:21Z</time>
      </trkpt>
      <trkpt lat="42.4200040" lon="-8.6364380">
        <ele>22.0</ele>
        <time>2021-05-21T11:52:27Z</time>
      </trkpt>
      <trkpt lat="42.4200040" lon="-8.6364390">
        <ele>22.0</ele>
        <time>2021-05-21T11:52:33Z</time>
      </trkpt>
      <trkpt lat="42.4200040" lon="-8.6364390">
        <ele>22.0</ele>
        <time>2021-05-21T11:52:39Z</time>
      </trkpt>
      <trkpt lat="42.4200040" lon="-8.6364390">
        <ele>22.0</ele>
        <time>2021-05-21T11:52:45Z</time>
      </trkpt>
      <trkpt lat="42.4200040" lon="-8.6364400">
        <ele>22.0</ele>
        <time>2021-05-21T11:52:51Z</time>
      </trkpt>
      <trkpt lat="42.4200030" lon="-8.6364400">
        <ele>22.0</ele>
        <time>2021-05-21T11:52:57Z</time>
      </trkpt>
      <trkpt lat="42.4200030" lon="-8.6364410">
        <ele>22.0</ele>
        <time>2021-05-21T11:53:03Z</time>
      </trkpt>
      <trkpt lat="42.4200030" lon="-8.6364410">
        <ele>22.0</ele>
        <time>2021-05-21T11:53:09Z</time>
      </trkpt>
      <trkpt lat="42.4200030" lon="-8.6364410">
        <ele>22.0</ele>
        <time>2021-05-21T11:53:15Z</time>
      </trkpt>
      <trkpt lat="42.4200030" lon="-8.6364420">
        <ele>22.0</ele>
        <time>2021-05-21T11:53:21Z</time>
      </trkpt>
      <trkpt lat="42.4200030" lon="-8.6364420">
        <ele>22.0</ele>
        <time>2021-05-21T11:53:27Z</time>
      </trkpt>
      <trkpt lat="42.4200030" lon="-8.6364420">
        <ele>22.0</ele>
        <time>2021-05-21T11:53:33Z</time>
      </trkpt>
      <trkpt lat="42.4200030" lon="-8.6364430">
        <ele>22.0</ele>
        <time>2021-05-21T11:53:39Z</time>
      </trkpt>
      <trkpt lat="42.4200030" lon="-8.6364430">
        <ele>22.0</ele>
        <time>2021-05-21T11:53:45Z</time>
      </trkpt>
      <trkpt lat="42.4200030" lon="-8.6364430">
        <ele>22.0</ele>
        <time>2021-05-21T11:53:51Z</time>
      </trkpt>
      <trkpt lat="42.4200030" lon="-8.6364440">
        <ele>22.0</ele>
        <time>2021-05-21T11:53:57Z</time>
      </trkpt>
      <trkpt lat="42.4200030" lon="-8.6364440">
        <ele>22.0</ele>
        <time>2021-05-21T11:54:03Z</time>
      </trkpt>
      <trkpt lat="42.4200030" lon="-8.6364440">
        <ele>22.0</ele>
        <time>2021-05-21T11:54:09Z</time>
      </trkpt>
      <trkpt lat="42.4200020" lon="-8.6364450">
        <ele>22.0</ele>
        <time>2021-05-21T11:54:15Z</time>
      </trkpt>
      <trkpt lat="42.4200020" lon="-8.6364450">
        <ele>22.0</ele>
        <time>2021-05-21T11:54:21Z</time>
      </trkpt>
      <trkpt lat="42.4200020" lon="-8.6364450">
        <ele>22.0</ele>
        <time>2021-05-21T11:54:27Z</time>
      </trkpt>
      <trkpt lat="42.4200020" lon="-8.6364460">
        <ele>22.0</ele>
        <time>2021-05-21T11:54:33Z</time>
      </trkpt>
      <trkpt lat="42.4200020" lon="-8.6364460">
        <ele>22.0</ele>
        <time>2021-05-21T11:54:39Z</time>
      </trkpt>
      <trkpt lat="42.4200020" lon="-8.6364470">
        <ele>22.0</ele>
        <time>2021-05-21T11:54:45Z</time>
      </trkpt>
      <trkpt lat="42.4200020" lon="-8.6364470">
        <ele>22.0</ele>
        <time>2021-05-21T11:54:51Z</time>
      </trkpt>
      <trkpt lat="42.4200020" lon="-8.6364470">
        <ele>22.0</ele>
        <time>2021-05-21T11:54:57Z</time>
      </trkpt>
      <trkpt lat="42.4200020" lon="-8.6364480">
        <ele>22.0</ele>
        <time>2021-05-21T11:55:03Z</time>
      </trkpt>
      <trkpt lat="42.4200020" lon="-8.6364480">
        <ele>22.0</ele>
        <time>2021-05-21T11:55:09Z</time>
      </trkpt>
      <trkpt lat="42.4200020" lon="-8.6364480">
        <ele>22.0</ele>
        <time>2021-05-21T11:55:13Z</time>
      </trkpt>
      <trkpt lat="42.4200020" lon="-8.6364490">
        <ele>22.0</ele>
        <time>2021-05-21T11:55:14Z</time>
      </trkpt>
      <trkpt lat="42.4200020" lon="-8.6364490">
        <ele>22.0</ele>
        <time>2021-05-21T11:55:19Z</time>
      </trkpt>
      <trkpt lat="42.4200020" lon="-8.6364490">
        <ele>22.0</ele>
        <time>2021-05-21T11:55:25Z</time>
      </trkpt>
      <trkpt lat="42.4200010" lon="-8.6364500">
        <ele>22.0</ele>
        <time>2021-05-21T11:55:31Z</time>
      </trkpt>
      <trkpt lat="42.4200010" lon="-8.6364500">
        <ele>22.0</ele>
        <time>2021-05-21T11:55:37Z</time>
      </trkpt>
      <trkpt lat="42.4200010" lon="-8.6364500">
        <ele>22.0</ele>
        <time>2021-05-21T11:55:43Z</time>
      </trkpt>
      <trkpt lat="42.4200010" lon="-8.6364510">
        <ele>22.0</ele>
        <time>2021-05-21T11:55:49Z</time>
      </trkpt>
      <trkpt lat="42.4200010" lon="-8.6364510">
        <ele>22.0</ele>
        <time>2021-05-21T11:55:55Z</time>
      </trkpt>
      <trkpt lat="42.4200010" lon="-8.6364510">
        <ele>22.0</ele>
        <time>2021-05-21T11:56:01Z</time>
      </trkpt>
      <trkpt lat="42.4200010" lon="-8.6364520">
        <ele>22.0</ele>
        <time>2021-05-21T11:56:07Z</time>
      </trkpt>
      <trkpt lat="42.4200010" lon="-8.6364520">
        <ele>22.0</ele>
        <time>2021-05-21T11:56:13Z</time>
      </trkpt>
      <trkpt lat="42.4200010" lon="-8.6364530">
        <ele>22.0</ele>
        <time>2021-05-21T11:56:19Z</time>
      </trkpt>
      <trkpt lat="42.4200010" lon="-8.6364530">
        <ele>22.0</ele>
        <time>2021-05-21T11:56:25Z</time>
      </trkpt>
      <trkpt lat="42.4200010" lon="-8.6364530">
        <ele>22.0</ele>
        <time>2021-05-21T11:56:31Z</time>
      </trkpt>
      <trkpt lat="42.4200010" lon="-8.6364540">
        <ele>22.0</ele>
        <time>2021-05-21T11:56:37Z</time>
      </trkpt>
      <trkpt lat="42.4200010" lon="-8.6364540">
        <ele>22.0</ele>
        <time>2021-05-21T11:56:43Z</time>
      </trkpt>
      <trkpt lat="42.4200000" lon="-8.6364540">
        <ele>22.0</ele>
        <time>2021-05-21T11:56:49Z</time>
      </trkpt>
      <trkpt lat="42.4200000" lon="-8.6364550">
        <ele>22.0</ele>
        <time>2021-05-21T11:56:55Z</time>
      </trkpt>
      <trkpt lat="42.4200000" lon="-8.6364550">
        <ele>22.0</ele>
        <time>2021-05-21T11:57:01Z</time>
      </trkpt>
      <trkpt lat="42.4200000" lon="-8.6364550">
        <ele>22.0</ele>
        <time>2021-05-21T11:57:07Z</time>
      </trkpt>
      <trkpt lat="42.4200000" lon="-8.6364560">
        <ele>22.0</ele>
        <time>2021-05-21T11:57:13Z</time>
      </trkpt>
      <trkpt lat="42.4200000" lon="-8.6364560">
        <ele>22.0</ele>
        <time>2021-05-21T11:57:19Z</time>
      </trkpt>
      <trkpt lat="42.4200000" lon="-8.6364560">
        <ele>22.0</ele>
        <time>2021-05-21T11:57:25Z</time>
      </trkpt>
      <trkpt lat="42.4200000" lon="-8.6364570">
        <ele>22.0</ele>
        <time>2021-05-21T11:57:31Z</time>
      </trkpt>
      <trkpt lat="42.4200000" lon="-8.6364570">
        <ele>22.0</ele>
        <time>2021-05-21T11:57:37Z</time>
      </trkpt>
      <trkpt lat="42.4200000" lon="-8.6364570">
        <ele>22.0</ele>
        <time>2021-05-21T11:57:43Z</time>
      </trkpt>
      <trkpt lat="42.4200000" lon="-8.6364580">
        <ele>22.0</ele>
        <time>2021-05-21T11:57:49Z</time>
      </trkpt>
      <trkpt lat="42.4200000" lon="-8.6364580">
        <ele>22.0</ele>
        <time>2021-05-21T11:57:55Z</time>
      </trkpt>
      <trkpt lat="42.4200000" lon="-8.6364580">
        <ele>22.0</ele>
        <time>2021-05-21T11:58:01Z</time>
      </trkpt>
      <trkpt lat="42.4199990" lon="-8.6364590">
        <ele>22.0</ele>
        <time>2021-05-21T11:58:07Z</time>
      </trkpt>
      <trkpt lat="42.4199990" lon="-8.6364590">
        <ele>22.0</ele>
        <time>2021-05-21T11:58:13Z</time>
      </trkpt>
      <trkpt lat="42.4199990" lon="-8.6364600">
        <ele>22.0</ele>
        <time>2021-05-21T11:58:19Z</time>
      </trkpt>
      <trkpt lat="42.4199990" lon="-8.6364600">
        <ele>22.0</ele>
        <time>2021-05-21T11:58:25Z</time>
      </trkpt>
      <trkpt lat="42.4199990" lon="-8.6364600">
        <ele>22.0</ele>
        <time>2021-05-21T11:58:31Z</time>
      </trkpt>
      <trkpt lat="42.4199990" lon="-8.6364610">
        <ele>22.0</ele>
        <time>2021-05-21T11:58:37Z</time>
      </trkpt>
      <trkpt lat="42.4199990" lon="-8.6364610">
        <ele>22.0</ele>
        <time>2021-05-21T11:58:43Z</time>
      </trkpt>
      <trkpt lat="42.4199990" lon="-8.6364610">
        <ele>22.0</ele>
        <time>2021-05-21T11:58:49Z</time>
      </trkpt>
      <trkpt lat="42.4199990" lon="-8.6364620">
        <ele>22.0</ele>
        <time>2021-05-21T11:58:55Z</time>
      </trkpt>
      <trkpt lat="42.4199990" lon="-8.6364620">
        <ele>22.0</ele>
        <time>2021-05-21T11:59:01Z</time>
      </trkpt>
      <trkpt lat="42.4199990" lon="-8.6364620">
        <ele>22.0</ele>
        <time>2021-05-21T11:59:07Z</time>
      </trkpt>
      <trkpt lat="42.4199990" lon="-8.6364630">
        <ele>22.0</ele>
        <time>2021-05-21T11:59:13Z</time>
      </trkpt>
      <trkpt lat="42.4199990" lon="-8.6364630">
        <ele>22.0</ele>
        <time>2021-05-21T11:59:19Z</time>
      </trkpt>
      <trkpt lat="42.4199990" lon="-8.6364630">
        <ele>22.0</ele>
        <time>2021-05-21T11:59:25Z</time>
      </trkpt>
      <trkpt lat="42.4199980" lon="-8.6364640">
        <ele>22.0</ele>
        <time>2021-05-21T11:59:31Z</time>
      </trkpt>
      <trkpt lat="42.4199980" lon="-8.6364640">
        <ele>22.0</ele>
        <time>2021-05-21T11:59:37Z</time>
      </trkpt>
      <trkpt lat="42.4199980" lon="-8.6364640">
        <ele>22.0</ele>
        <time>2021-05-21T11:59:43Z</time>
      </trkpt>
      <trkpt lat="42.4199980" lon="-8.6364650">
        <ele>22.0</ele>
        <time>2021-05-21T11:59:49Z</time>
      </trkpt>
      <trkpt lat="42.4199980" lon="-8.6364650">
        <ele>22.0</ele>
        <time>2021-05-21T11:59:55Z</time>
      </trkpt>
      <trkpt lat="42.4199980" lon="-8.6364660">
        <ele>22.0</ele>
        <time>2021-05-21T12:00:01Z</time>
      </trkpt>
      <trkpt lat="42.4199980" lon="-8.6364660">
        <ele>22.0</ele>
        <time>2021-05-21T12:00:07Z</time>
      </trkpt>
      <trkpt lat="42.4199980" lon="-8.6364660">
        <ele>22.0</ele>
        <time>2021-05-21T12:00:13Z</time>
      </trkpt>
      <trkpt lat="42.4199980" lon="-8.6364670">
        <ele>22.0</ele>
        <time>2021-05-21T12:00:19Z</time>
      </trkpt>
      <trkpt lat="42.4199980" lon="-8.6364670">
        <ele>22.0</ele>
        <time>2021-05-21T12:00:25Z</time>
      </trkpt>
      <trkpt lat="42.4199980" lon="-8.6364670">
        <ele>22.0</ele>
        <time>2021-05-21T12:00:32Z</time>
      </trkpt>
      <trkpt lat="42.4199980" lon="-8.6364680">
        <ele>22.0</ele>
        <time>2021-05-21T12:00:34Z</time>
      </trkpt>
      <trkpt lat="42.4199980" lon="-8.6364680">
        <ele>22.0</ele>
        <time>2021-05-21T12:00:40Z</time>
      </trkpt>
      <trkpt lat="42.4199970" lon="-8.6364680">
        <ele>22.0</ele>
        <time>2021-05-21T12:00:46Z</time>
      </trkpt>
      <trkpt lat="42.4199970" lon="-8.6364690">
        <ele>22.0</ele>
        <time>2021-05-21T12:00:52Z</time>
      </trkpt>
      <trkpt lat="42.4199970" lon="-8.6364690">
        <ele>22.0</ele>
        <time>2021-05-21T12:00:58Z</time>
      </trkpt>
      <trkpt lat="42.4199970" lon="-8.6364690">
        <ele>22.0</ele>
        <time>2021-05-21T12:01:04Z</time>
      </trkpt>
      <trkpt lat="42.4199970" lon="-8.6364700">
        <ele>22.0</ele>
        <time>2021-05-21T12:01:10Z</time>
      </trkpt>
      <trkpt lat="42.4199970" lon="-8.6364700">
        <ele>22.0</ele>
        <time>2021-05-21T12:01:17Z</time>
      </trkpt>
      <trkpt lat="42.4199970" lon="-8.6364700">
        <ele>22.0</ele>
        <time>2021-05-21T12:01:23Z</time>
      </trkpt>
      <trkpt lat="42.4199970" lon="-8.6364710">
        <ele>22.0</ele>
        <time>2021-05-21T12:01:29Z</time>
      </trkpt>
      <trkpt lat="42.4199970" lon="-8.6364710">
        <ele>22.0</ele>
        <time>2021-05-21T12:01:35Z</time>
      </trkpt>
      <trkpt lat="42.4199970" lon="-8.6364720">
        <ele>22.0</ele>
        <time>2021-05-21T12:01:41Z</time>
      </trkpt>
      <trkpt lat="42.4199970" lon="-8.6364720">
        <ele>22.0</ele>
        <time>2021-05-21T12:01:47Z</time>
      </trkpt>
      <trkpt lat="42.4199970" lon="-8.6364720">
        <ele>22.0</ele>
        <time>2021-05-21T12:01:53Z</time>
      </trkpt>
      <trkpt lat="42.4199970" lon="-8.6364730">
        <ele>22.0</ele>
        <time>2021-05-21T12:01:59Z</time>
      </trkpt>
      <trkpt lat="42.4199970" lon="-8.6364730">
        <ele>22.0</ele>
        <time>2021-05-21T12:02:05Z</time>
      </trkpt>
      <trkpt lat="42.4199960" lon="-8.6364730">
        <ele>22.0</ele>
        <time>2021-05-21T12:02:11Z</time>
      </trkpt>
      <trkpt lat="42.4199960" lon="-8.6364740">
        <ele>22.0</ele>
        <time>2021-05-21T12:02:17Z</time>
      </trkpt>
      <trkpt lat="42.4199960" lon="-8.6364740">
        <ele>22.0</ele>
        <time>2021-05-21T12:02:23Z</time>
      </trkpt>
      <trkpt lat="42.4199960" lon="-8.6364740">
        <ele>22.0</ele>
        <time>2021-05-21T12:02:29Z</time>
      </trkpt>
      <trkpt lat="42.4199960" lon="-8.6364750">
        <ele>22.0</ele>
        <time>2021-05-21T12:02:35Z</time>
      </trkpt>
      <trkpt lat="42.4199960" lon="-8.6364750">
        <ele>22.0</ele>
        <time>2021-05-21T12:02:41Z</time>
      </trkpt>
      <trkpt lat="42.4199960" lon="-8.6364750">
        <ele>22.0</ele>
        <time>2021-05-21T12:02:47Z</time>
      </trkpt>
      <trkpt lat="42.4199960" lon="-8.6364760">
        <ele>22.0</ele>
        <time>2021-05-21T12:02:53Z</time>
      </trkpt>
      <trkpt lat="42.4199960" lon="-8.6364760">
        <ele>22.0</ele>
        <time>2021-05-21T12:02:59Z</time>
      </trkpt>
      <trkpt lat="42.4199960" lon="-8.6364760">
        <ele>22.0</ele>
        <time>2021-05-21T12:03:05Z</time>
      </trkpt>
      <trkpt lat="42.4199960" lon="-8.6364770">
        <ele>22.0</ele>
        <time>2021-05-21T12:03:11Z</time>
      </trkpt>
      <trkpt lat="42.4199960" lon="-8.6364770">
        <ele>22.0</ele>
        <time>2021-05-21T12:03:17Z</time>
      </trkpt>
      <trkpt lat="42.4199960" lon="-8.6364780">
        <ele>22.0</ele>
        <time>2021-05-21T12:03:23Z</time>
      </trkpt>
      <trkpt lat="42.4199950" lon="-8.6364780">
        <ele>22.0</ele>
        <time>2021-05-21T12:03:29Z</time>
      </trkpt>
      <trkpt lat="42.4199950" lon="-8.6364780">
        <ele>22.0</ele>
        <time>2021-05-21T12:03:35Z</time>
      </trkpt>
      <trkpt lat="42.4199950" lon="-8.6364790">
        <ele>22.0</ele>
        <time>2021-05-21T12:03:41Z</time>
      </trkpt>
      <trkpt lat="42.4199950" lon="-8.6364790">
        <ele>22.0</ele>
        <time>2021-05-21T12:03:47Z</time>
      </trkpt>
      <trkpt lat="42.4199950" lon="-8.6364790">
        <ele>22.0</ele>
        <time>2021-05-21T12:03:53Z</time>
      </trkpt>
      <trkpt lat="42.4199950" lon="-8.6364800">
        <ele>22.0</ele>
        <time>2021-05-21T12:03:59Z</time>
      </trkpt>
      <trkpt lat="42.4199950" lon="-8.6364800">
        <ele>22.0</ele>
        <time>2021-05-21T12:04:05Z</time>
      </trkpt>
      <trkpt lat="42.4199950" lon="-8.6364800">
        <ele>22.0</ele>
        <time>2021-05-21T12:04:11Z</time>
      </trkpt>
      <trkpt lat="42.4199950" lon="-8.6364810">
        <ele>22.0</ele>
        <time>2021-05-21T12:04:17Z</time>
      </trkpt>
      <trkpt lat="42.4199950" lon="-8.6364810">
        <ele>22.0</ele>
        <time>2021-05-21T12:04:23Z</time>
      </trkpt>
      <trkpt lat="42.4199950" lon="-8.6364810">
        <ele>22.0</ele>
        <time>2021-05-21T12:04:29Z</time>
      </trkpt>
      <trkpt lat="42.4199950" lon="-8.6364820">
        <ele>22.0</ele>
        <time>2021-05-21T12:04:35Z</time>
      </trkpt>
      <trkpt lat="42.4199950" lon="-8.6364820">
        <ele>22.0</ele>
        <time>2021-05-21T12:04:41Z</time>
      </trkpt>
      <trkpt lat="42.4199950" lon="-8.6364820">
        <ele>22.0</ele>
        <time>2021-05-21T12:04:47Z</time>
      </trkpt>
      <trkpt lat="42.4199940" lon="-8.6364830">
        <ele>22.0</ele>
        <time>2021-05-21T12:04:53Z</time>
      </trkpt>
      <trkpt lat="42.4199940" lon="-8.6364830">
        <ele>22.0</ele>
        <time>2021-05-21T12:04:59Z</time>
      </trkpt>
      <trkpt lat="42.4199940" lon="-8.6364840">
        <ele>22.0</ele>
        <time>2021-05-21T12:05:05Z</time>
      </trkpt>
      <trkpt lat="42.4199940" lon="-8.6364840">
        <ele>22.0</ele>
        <time>2021-05-21T12:05:11Z</time>
      </trkpt>
      <trkpt lat="42.4199940" lon="-8.6364840">
        <ele>22.0</ele>
        <time>2021-05-21T12:05:17Z</time>
      </trkpt>
      <trkpt lat="42.4199940" lon="-8.6364850">
        <ele>22.1</ele>
        <time>2021-05-21T12:05:23Z</time>
      </trkpt>
      <trkpt lat="42.4199940" lon="-8.6364850">
        <ele>22.1</ele>
        <time>2021-05-21T12:05:29Z</time>
      </trkpt>
      <trkpt lat="42.4199940" lon="-8.6364850">
        <ele>22.1</ele>
        <time>2021-05-21T12:05:35Z</time>
      </trkpt>
      <trkpt lat="42.4199940" lon="-8.6364860">
        <ele>22.1</ele>
        <time>2021-05-21T12:05:41Z</time>
      </trkpt>
      <trkpt lat="42.4199940" lon="-8.6364860">
        <ele>22.1</ele>
        <time>2021-05-21T12:05:47Z</time>
      </trkpt>
      <trkpt lat="42.4199940" lon="-8.6364860">
        <ele>22.1</ele>
        <time>2021-05-21T12:05:53Z</time>
      </trkpt>
      <trkpt lat="42.4199940" lon="-8.6364870">
        <ele>22.1</ele>
        <time>2021-05-21T12:05:59Z</time>
      </trkpt>
      <trkpt lat="42.4199940" lon="-8.6364870">
        <ele>22.1</ele>
        <time>2021-05-21T12:06:05Z</time>
      </trkpt>
      <trkpt lat="42.4199930" lon="-8.6364870">
        <ele>22.1</ele>
        <time>2021-05-21T12:06:11Z</time>
      </trkpt>
      <trkpt lat="42.4199930" lon="-8.6364880">
        <ele>22.1</ele>
        <time>2021-05-21T12:06:17Z</time>
      </trkpt>
      <trkpt lat="42.4199930" lon="-8.6364880">
        <ele>22.1</ele>
        <time>2021-05-21T12:06:23Z</time>
      </trkpt>
      <trkpt lat="42.4199930" lon="-8.6364880">
        <ele>22.1</ele>
        <time>2021-05-21T12:06:29Z</time>
      </trkpt>
      <trkpt lat="42.4199930" lon="-8.6364890">
        <ele>22.1</ele>
        <time>2021-05-21T12:06:35Z</time>
      </trkpt>
      <trkpt lat="42.4199930" lon="-8.6364890">
        <ele>22.1</ele>
        <time>2021-05-21T12:06:41Z</time>
      </trkpt>
      <trkpt lat="42.4199930" lon="-8.6364890">
        <ele>22.1</ele>
        <time>2021-05-21T12:06:47Z</time>
      </trkpt>
      <trkpt lat="42.4199930" lon="-8.6364900">
        <ele>22.1</ele>
        <time>2021-05-21T12:06:53Z</time>
      </trkpt>
      <trkpt lat="42.4199930" lon="-8.6364900">
        <ele>22.1</ele>
        <time>2021-05-21T12:06:59Z</time>
      </trkpt>
      <trkpt lat="42.4199930" lon="-8.6364910">
        <ele>22.1</ele>
        <time>2021-05-21T12:07:05Z</time>
      </trkpt>
      <trkpt lat="42.4199930" lon="-8.6364910">
        <ele>22.1</ele>
        <time>2021-05-21T12:07:11Z</time>
      </trkpt>
      <trkpt lat="42.4199930" lon="-8.6364910">
        <ele>22.1</ele>
        <time>2021-05-21T12:07:17Z</time>
      </trkpt>
      <trkpt lat="42.4199930" lon="-8.6364920">
        <ele>22.1</ele>
        <time>2021-05-21T12:07:23Z</time>
      </trkpt>
      <trkpt lat="42.4199920" lon="-8.6364920">
        <ele>22.1</ele>
        <time>2021-05-21T12:07:24Z</time>
      </trkpt>
      <trkpt lat="42.4199920" lon="-8.6364920">
        <ele>22.1</ele>
        <time>2021-05-21T12:07:29Z</time>
      </trkpt>
      <trkpt lat="42.4199920" lon="-8.6364930">
        <ele>22.1</ele>
        <time>2021-05-21T12:07:35Z</time>
      </trkpt>
      <trkpt lat="42.4199920" lon="-8.6364930">
        <ele>22.1</ele>
        <time>2021-05-21T12:07:36Z</time>
      </trkpt>
      <trkpt lat="42.4199920" lon="-8.6364930">
        <ele>22.1</ele>
        <time>2021-05-21T12:07:37Z</time>
      </trkpt>
      <trkpt lat="42.4199920" lon="-8.6364940">
        <ele>22.1</ele>
        <time>2021-05-21T12:07:42Z</time>
      </trkpt>
      <trkpt lat="42.4199920" lon="-8.6364940">
        <ele>22.1</ele>
        <time>2021-05-21T12:07:48Z</time>
      </trkpt>
      <trkpt lat="42.4199920" lon="-8.6364940">
        <ele>22.1</ele>
        <time>2021-05-21T12:07:54Z</time>
      </trkpt>
      <trkpt lat="42.4199920" lon="-8.6364950">
        <ele>22.1</ele>
        <time>2021-05-21T12:08:00Z</time>
      </trkpt>
      <trkpt lat="42.4199920" lon="-8.6364950">
        <ele>22.1</ele>
        <time>2021-05-21T12:08:06Z</time>
      </trkpt>
      <trkpt lat="42.4199920" lon="-8.6364950">
        <ele>22.1</ele>
        <time>2021-05-21T12:08:12Z</time>
      </trkpt>
      <trkpt lat="42.4199920" lon="-8.6364960">
        <ele>22.1</ele>
        <time>2021-05-21T12:08:18Z</time>
      </trkpt>
      <trkpt lat="42.4199920" lon="-8.6364960">
        <ele>22.1</ele>
        <time>2021-05-21T12:08:24Z</time>
      </trkpt>
      <trkpt lat="42.4199920" lon="-8.6364970">
        <ele>22.1</ele>
        <time>2021-05-21T12:08:30Z</time>
      </trkpt>
      <trkpt lat="42.4199910" lon="-8.6364970">
        <ele>22.1</ele>
        <time>2021-05-21T12:08:36Z</time>
      </trkpt>
      <trkpt lat="42.4199910" lon="-8.6364970">
        <ele>22.1</ele>
        <time>2021-05-21T12:08:42Z</time>
      </trkpt>
      <trkpt lat="42.4199910" lon="-8.6364980">
        <ele>22.1</ele>
        <time>2021-05-21T12:08:48Z</time>
      </trkpt>
      <trkpt lat="42.4199910" lon="-8.6364980">
        <ele>22.1</ele>
        <time>2021-05-21T12:08:54Z</time>
      </trkpt>
      <trkpt lat="42.4199910" lon="-8.6364980">
        <ele>22.1</ele>
        <time>2021-05-21T12:09:00Z</time>
      </trkpt>
      <trkpt lat="42.4199910" lon="-8.6364990">
        <ele>22.1</ele>
        <time>2021-05-21T12:09:06Z</time>
      </trkpt>
      <trkpt lat="42.4199910" lon="-8.6364990">
        <ele>22.1</ele>
        <time>2021-05-21T12:09:12Z</time>
      </trkpt>
      <trkpt lat="42.4199910" lon="-8.6364990">
        <ele>22.1</ele>
        <time>2021-05-21T12:09:18Z</time>
      </trkpt>
      <trkpt lat="42.4199910" lon="-8.6365000">
        <ele>22.1</ele>
        <time>2021-05-21T12:09:24Z</time>
      </trkpt>
      <trkpt lat="42.4199910" lon="-8.6365000">
        <ele>22.1</ele>
        <time>2021-05-21T12:09:30Z</time>
      </trkpt>
      <trkpt lat="42.4199910" lon="-8.6365000">
        <ele>22.1</ele>
        <time>2021-05-21T12:09:36Z</time>
      </trkpt>
      <trkpt lat="42.4199910" lon="-8.6365010">
        <ele>22.1</ele>
        <time>2021-05-21T12:09:42Z</time>
      </trkpt>
      <trkpt lat="42.4199910" lon="-8.6365010">
        <ele>22.1</ele>
        <time>2021-05-21T12:09:48Z</time>
      </trkpt>
      <trkpt lat="42.4199900" lon="-8.6365010">
        <ele>22.1</ele>
        <time>2021-05-21T12:09:54Z</time>
      </trkpt>
      <trkpt lat="42.4199900" lon="-8.6365020">
        <ele>22.1</ele>
        <time>2021-05-21T12:10:00Z</time>
      </trkpt>
      <trkpt lat="42.4199900" lon="-8.6365020">
        <ele>22.1</ele>
        <time>2021-05-21T12:10:06Z</time>
      </trkpt>
      <trkpt lat="42.4199900" lon="-8.6365030">
        <ele>22.1</ele>
        <time>2021-05-21T12:10:12Z</time>
      </trkpt>
      <trkpt lat="42.4199900" lon="-8.6365030">
        <ele>22.1</ele>
        <time>2021-05-21T12:10:18Z</time>
      </trkpt>
      <trkpt lat="42.4199900" lon="-8.6365030">
        <ele>22.1</ele>
        <time>2021-05-21T12:10:24Z</time>
      </trkpt>
      <trkpt lat="42.4199900" lon="-8.6365040">
        <ele>22.1</ele>
        <time>2021-05-21T12:10:30Z</time>
      </trkpt>
      <trkpt lat="42.4199900" lon="-8.6365040">
        <ele>22.1</ele>
        <time>2021-05-21T12:10:36Z</time>
      </trkpt>
      <trkpt lat="42.4199900" lon="-8.6365040">
        <ele>22.1</ele>
        <time>2021-05-21T12:10:42Z</time>
      </trkpt>
      <trkpt lat="42.4199900" lon="-8.6365050">
        <ele>22.1</ele>
        <time>2021-05-21T12:10:48Z</time>
      </trkpt>
      <trkpt lat="42.4199900" lon="-8.6365050">
        <ele>22.1</ele>
        <time>2021-05-21T12:10:54Z</time>
      </trkpt>
      <trkpt lat="42.4199900" lon="-8.6365050">
        <ele>22.1</ele>
        <time>2021-05-21T12:11:00Z</time>
      </trkpt>
      <trkpt lat="42.4199900" lon="-8.6365060">
        <ele>22.1</ele>
        <time>2021-05-21T12:11:06Z</time>
      </trkpt>
      <trkpt lat="42.4199900" lon="-8.6365060">
        <ele>22.1</ele>
        <time>2021-05-21T12:11:12Z</time>
      </trkpt>
      <trkpt lat="42.4199890" lon="-8.6365060">
        <ele>22.1</ele>
        <time>2021-05-21T12:11:18Z</time>
      </trkpt>
      <trkpt lat="42.4199890" lon="-8.6365070">
        <ele>22.1</ele>
        <time>2021-05-21T12:11:24Z</time>
      </trkpt>
      <trkpt lat="42.4199890" lon="-8.6365070">
        <ele>22.1</ele>
        <time>2021-05-21T12:11:30Z</time>
      </trkpt>
      <trkpt lat="42.4199890" lon="-8.6365070">
        <ele>22.1</ele>
        <time>2021-05-21T12:11:36Z</time>
      </trkpt>
      <trkpt lat="42.4199890" lon="-8.6365080">
        <ele>22.1</ele>
        <time>2021-05-21T12:11:42Z</time>
      </trkpt>
      <trkpt lat="42.4199890" lon="-8.6365080">
        <ele>22.1</ele>
        <time>2021-05-21T12:11:48Z</time>
      </trkpt>
      <trkpt lat="42.4199890" lon="-8.6365090">
        <ele>22.1</ele>
        <time>2021-05-21T12:11:54Z</time>
      </trkpt>
      <trkpt lat="42.4199890" lon="-8.6365090">
        <ele>22.1</ele>
        <time>2021-05-21T12:12:00Z</time>
      </trkpt>
      <trkpt lat="42.4199890" lon="-8.6365090">
        <ele>22.1</ele>
        <time>2021-05-21T12:12:06Z</time>
      </trkpt>
      <trkpt lat="42.4199890" lon="-8.6365100">
        <ele>22.1</ele>
        <time>2021-05-21T12:12:12Z</time>
      </trkpt>
      <trkpt lat="42.4199890" lon="-8.6365100">
        <ele>22.1</ele>
        <time>2021-05-21T12:12:18Z</time>
      </trkpt>
      <trkpt lat="42.4199890" lon="-8.6365100">
        <ele>22.1</ele>
        <time>2021-05-21T12:12:24Z</time>
      </trkpt>
      <trkpt lat="42.4199890" lon="-8.6365110">
        <ele>22.1</ele>
        <time>2021-05-21T12:12:30Z</time>
      </trkpt>
      <trkpt lat="42.4199880" lon="-8.6365110">
        <ele>22.1</ele>
        <time>2021-05-21T12:12:36Z</time>
      </trkpt>
      <trkpt lat="42.4199880" lon="-8.6365110">
        <ele>22.1</ele>
        <time>2021-05-21T12:12:42Z</time>
      </trkpt>
      <trkpt lat="42.4199880" lon="-8.6365120">
        <ele>22.1</ele>
        <time>2021-05-21T12:12:48Z</time>
      </trkpt>
      <trkpt lat="42.4199880" lon="-8.6365120">
        <ele>22.1</ele>
        <time>2021-05-21T12:12:54Z</time>
      </trkpt>
      <trkpt lat="42.4199880" lon="-8.6365120">
        <ele>22.1</ele>
        <time>2021-05-21T12:13:00Z</time>
      </trkpt>
      <trkpt lat="42.4199880" lon="-8.6365130">
        <ele>22.1</ele>
        <time>2021-05-21T12:13:06Z</time>
      </trkpt>
      <trkpt lat="42.4199880" lon="-8.6365130">
        <ele>22.1</ele>
        <time>2021-05-21T12:13:12Z</time>
      </trkpt>
      <trkpt lat="42.4199880" lon="-8.6365130">
        <ele>22.1</ele>
        <time>2021-05-21T12:13:19Z</time>
      </trkpt>
      <trkpt lat="42.4199880" lon="-8.6365140">
        <ele>22.1</ele>
        <time>2021-05-21T12:13:25Z</time>
      </trkpt>
      <trkpt lat="42.4199880" lon="-8.6365140">
        <ele>22.1</ele>
        <time>2021-05-21T12:13:31Z</time>
      </trkpt>
      <trkpt lat="42.4199880" lon="-8.6365140">
        <ele>22.1</ele>
        <time>2021-05-21T12:13:37Z</time>
      </trkpt>
      <trkpt lat="42.4199880" lon="-8.6365150">
        <ele>22.1</ele>
        <time>2021-05-21T12:13:43Z</time>
      </trkpt>
      <trkpt lat="42.4199880" lon="-8.6365150">
        <ele>22.1</ele>
        <time>2021-05-21T12:13:49Z</time>
      </trkpt>
      <trkpt lat="42.4199870" lon="-8.6365160">
        <ele>22.1</ele>
        <time>2021-05-21T12:13:55Z</time>
      </trkpt>
      <trkpt lat="42.4199870" lon="-8.6365160">
        <ele>22.1</ele>
        <time>2021-05-21T12:14:01Z</time>
      </trkpt>
      <trkpt lat="42.4199870" lon="-8.6365160">
        <ele>22.1</ele>
        <time>2021-05-21T12:14:07Z</time>
      </trkpt>
      <trkpt lat="42.4199870" lon="-8.6365170">
        <ele>22.1</ele>
        <time>2021-05-21T12:14:13Z</time>
      </trkpt>
      <trkpt lat="42.4199870" lon="-8.6365170">
        <ele>22.1</ele>
        <time>2021-05-21T12:14:19Z</time>
      </trkpt>
      <trkpt lat="42.4199870" lon="-8.6365170">
        <ele>22.1</ele>
        <time>2021-05-21T12:14:25Z</time>
      </trkpt>
      <trkpt lat="42.4199870" lon="-8.6365180">
        <ele>22.1</ele>
        <time>2021-05-21T12:14:31Z</time>
      </trkpt>
      <trkpt lat="42.4199870" lon="-8.6365180">
        <ele>22.1</ele>
        <time>2021-05-21T12:14:37Z</time>
      </trkpt>
      <trkpt lat="42.4199870" lon="-8.6365180">
        <ele>22.1</ele>
        <time>2021-05-21T12:14:43Z</time>
      </trkpt>
      <trkpt lat="42.4199870" lon="-8.6365190">
        <ele>22.1</ele>
        <time>2021-05-21T12:14:49Z</time>
      </trkpt>
      <trkpt lat="42.4199870" lon="-8.6365190">
        <ele>22.1</ele>
        <time>2021-05-21T12:14:55Z</time>
      </trkpt>
      <trkpt lat="42.4199870" lon="-8.6365190">
        <ele>22.1</ele>
        <time>2021-05-21T12:15:01Z</time>
      </trkpt>
      <trkpt lat="42.4199870" lon="-8.6365200">
        <ele>22.1</ele>
        <time>2021-05-21T12:15:07Z</time>
      </trkpt>
      <trkpt lat="42.4199870" lon="-8.6365200">
        <ele>22.1</ele>
        <time>2021-05-21T12:15:13Z</time>
      </trkpt>
      <trkpt lat="42.4199860" lon="-8.6365200">
        <ele>22.1</ele>
        <time>2021-05-21T12:15:19Z</time>
      </trkpt>
      <trkpt lat="42.4199860" lon="-8.6365210">
        <ele>22.1</ele>
        <time>2021-05-21T12:15:25Z</time>
      </trkpt>
      <trkpt lat="42.4199860" lon="-8.6365210">
        <ele>22.1</ele>
        <time>2021-05-21T12:15:31Z</time>
      </trkpt>
      <trkpt lat="42.4199860" lon="-8.6365220">
        <ele>22.1</ele>
        <time>2021-05-21T12:15:37Z</time>
      </trkpt>
      <trkpt lat="42.4199860" lon="-8.6365220">
        <ele>22.1</ele>
        <time>2021-05-21T12:15:43Z</time>
      </trkpt>
      <trkpt lat="42.4199860" lon="-8.6365220">
        <ele>22.1</ele>
        <time>2021-05-21T12:15:49Z</time>
      </trkpt>
      <trkpt lat="42.4199860" lon="-8.6365230">
        <ele>22.1</ele>
        <time>2021-05-21T12:15:55Z</time>
      </trkpt>
      <trkpt lat="42.4199860" lon="-8.6365230">
        <ele>22.1</ele>
        <time>2021-05-21T12:16:01Z</time>
      </trkpt>
      <trkpt lat="42.4199860" lon="-8.6365230">
        <ele>22.1</ele>
        <time>2021-05-21T12:16:07Z</time>
      </trkpt>
      <trkpt lat="42.4199860" lon="-8.6365240">
        <ele>22.1</ele>
        <time>2021-05-21T12:16:13Z</time>
      </trkpt>
      <trkpt lat="42.4199860" lon="-8.6365240">
        <ele>22.1</ele>
        <time>2021-05-21T12:16:19Z</time>
      </trkpt>
      <trkpt lat="42.4199860" lon="-8.6365240">
        <ele>22.1</ele>
        <time>2021-05-21T12:16:25Z</time>
      </trkpt>
      <trkpt lat="42.4199860" lon="-8.6365250">
        <ele>22.1</ele>
        <time>2021-05-21T12:16:31Z</time>
      </trkpt>
      <trkpt lat="42.4199850" lon="-8.6365250">
        <ele>22.1</ele>
        <time>2021-05-21T12:16:37Z</time>
      </trkpt>
      <trkpt lat="42.4199850" lon="-8.6365250">
        <ele>22.1</ele>
        <time>2021-05-21T12:16:43Z</time>
      </trkpt>
      <trkpt lat="42.4199850" lon="-8.6365260">
        <ele>22.1</ele>
        <time>2021-05-21T12:16:49Z</time>
      </trkpt>
      <trkpt lat="42.4199850" lon="-8.6365260">
        <ele>22.1</ele>
        <time>2021-05-21T12:16:55Z</time>
      </trkpt>
      <trkpt lat="42.4199850" lon="-8.6365260">
        <ele>22.1</ele>
        <time>2021-05-21T12:17:01Z</time>
      </trkpt>
      <trkpt lat="42.4199850" lon="-8.6365270">
        <ele>22.1</ele>
        <time>2021-05-21T12:17:07Z</time>
      </trkpt>
      <trkpt lat="42.4199850" lon="-8.6365270">
        <ele>22.1</ele>
        <time>2021-05-21T12:17:13Z</time>
      </trkpt>
      <trkpt lat="42.4199850" lon="-8.6365280">
        <ele>22.1</ele>
        <time>2021-05-21T12:17:19Z</time>
      </trkpt>
      <trkpt lat="42.4199850" lon="-8.6365280">
        <ele>22.1</ele>
        <time>2021-05-21T12:17:25Z</time>
      </trkpt>
      <trkpt lat="42.4199850" lon="-8.6365280">
        <ele>22.1</ele>
        <time>2021-05-21T12:17:31Z</time>
      </trkpt>
      <trkpt lat="42.4199850" lon="-8.6365290">
        <ele>22.1</ele>
        <time>2021-05-21T12:17:37Z</time>
      </trkpt>
      <trkpt lat="42.4199850" lon="-8.6365290">
        <ele>22.1</ele>
        <time>2021-05-21T12:17:43Z</time>
      </trkpt>
      <trkpt lat="42.4199850" lon="-8.6365290">
        <ele>22.1</ele>
        <time>2021-05-21T12:17:55Z</time>
      </trkpt>
      <trkpt lat="42.4199850" lon="-8.6365300">
        <ele>22.1</ele>
        <time>2021-05-21T12:17:56Z</time>
      </trkpt>
      <trkpt lat="42.4199840" lon="-8.6365300">
        <ele>22.1</ele>
        <time>2021-05-21T12:18:02Z</time>
      </trkpt>
      <trkpt lat="42.4199840" lon="-8.6365300">
        <ele>22.1</ele>
        <time>2021-05-21T12:18:08Z</time>
      </trkpt>
      <trkpt lat="42.4199840" lon="-8.6365310">
        <ele>22.1</ele>
        <time>2021-05-21T12:18:14Z</time>
      </trkpt>
      <trkpt lat="42.4199840" lon="-8.6365310">
        <ele>22.1</ele>
        <time>2021-05-21T12:18:20Z</time>
      </trkpt>
      <trkpt lat="42.4199840" lon="-8.6365310">
        <ele>22.1</ele>
        <time>2021-05-21T12:18:26Z</time>
      </trkpt>
      <trkpt lat="42.4199840" lon="-8.6365320">
        <ele>22.1</ele>
        <time>2021-05-21T12:18:32Z</time>
      </trkpt>
      <trkpt lat="42.4199840" lon="-8.6365320">
        <ele>22.1</ele>
        <time>2021-05-21T12:18:38Z</time>
      </trkpt>
      <trkpt lat="42.4199840" lon="-8.6365320">
        <ele>22.1</ele>
        <time>2021-05-21T12:18:44Z</time>
      </trkpt>
      <trkpt lat="42.4199840" lon="-8.6365330">
        <ele>22.1</ele>
        <time>2021-05-21T12:18:50Z</time>
      </trkpt>
      <trkpt lat="42.4199840" lon="-8.6365330">
        <ele>22.1</ele>
        <time>2021-05-21T12:18:56Z</time>
      </trkpt>
      <trkpt lat="42.4199840" lon="-8.6365340">
        <ele>22.1</ele>
        <time>2021-05-21T12:19:02Z</time>
      </trkpt>
      <trkpt lat="42.4199840" lon="-8.6365340">
        <ele>22.1</ele>
        <time>2021-05-21T12:19:08Z</time>
      </trkpt>
      <trkpt lat="42.4199840" lon="-8.6365340">
        <ele>22.1</ele>
        <time>2021-05-21T12:19:14Z</time>
      </trkpt>
      <trkpt lat="42.4199830" lon="-8.6365350">
        <ele>22.1</ele>
        <time>2021-05-21T12:19:20Z</time>
      </trkpt>
      <trkpt lat="42.4199830" lon="-8.6365350">
        <ele>22.1</ele>
        <time>2021-05-21T12:19:22Z</time>
      </trkpt>
      <trkpt lat="42.4199830" lon="-8.6365350">
        <ele>22.1</ele>
        <time>2021-05-21T12:19:27Z</time>
      </trkpt>
      <trkpt lat="42.4199830" lon="-8.6365360">
        <ele>22.1</ele>
        <time>2021-05-21T12:19:33Z</time>
      </trkpt>
      <trkpt lat="42.4199830" lon="-8.6365360">
        <ele>22.1</ele>
        <time>2021-05-21T12:19:39Z</time>
      </trkpt>
      <trkpt lat="42.4199830" lon="-8.6365360">
        <ele>22.1</ele>
        <time>2021-05-21T12:19:45Z</time>
      </trkpt>
      <trkpt lat="42.4199830" lon="-8.6365370">
        <ele>22.1</ele>
        <time>2021-05-21T12:19:51Z</time>
      </trkpt>
      <trkpt lat="42.4199830" lon="-8.6365370">
        <ele>22.1</ele>
        <time>2021-05-21T12:19:57Z</time>
      </trkpt>
      <trkpt lat="42.4199830" lon="-8.6365370">
        <ele>22.1</ele>
        <time>2021-05-21T12:20:03Z</time>
      </trkpt>
      <trkpt lat="42.4199830" lon="-8.6365380">
        <ele>22.1</ele>
        <time>2021-05-21T12:20:09Z</time>
      </trkpt>
      <trkpt lat="42.4199830" lon="-8.6365380">
        <ele>22.1</ele>
        <time>2021-05-21T12:20:15Z</time>
      </trkpt>
      <trkpt lat="42.4199830" lon="-8.6365380">
        <ele>22.1</ele>
        <time>2021-05-21T12:20:21Z</time>
      </trkpt>
      <trkpt lat="42.4199830" lon="-8.6365390">
        <ele>22.1</ele>
        <time>2021-05-21T12:20:27Z</time>
      </trkpt>
      <trkpt lat="42.4199830" lon="-8.6365390">
        <ele>22.1</ele>
        <time>2021-05-21T12:20:33Z</time>
      </trkpt>
      <trkpt lat="42.4199820" lon="-8.6365400">
        <ele>22.1</ele>
        <time>2021-05-21T12:20:39Z</time>
      </trkpt>
      <trkpt lat="42.4199820" lon="-8.6365400">
        <ele>22.1</ele>
        <time>2021-05-21T12:20:45Z</time>
      </trkpt>
      <trkpt lat="42.4199820" lon="-8.6365400">
        <ele>22.1</ele>
        <time>2021-05-21T12:20:51Z</time>
      </trkpt>
      <trkpt lat="42.4199820" lon="-8.6365410">
        <ele>22.1</ele>
        <time>2021-05-21T12:20:57Z</time>
      </trkpt>
      <trkpt lat="42.4199820" lon="-8.6365410">
        <ele>22.1</ele>
        <time>2021-05-21T12:21:03Z</time>
      </trkpt>
      <trkpt lat="42.4199820" lon="-8.6365410">
        <ele>22.1</ele>
        <time>2021-05-21T12:21:09Z</time>
      </trkpt>
      <trkpt lat="42.4199820" lon="-8.6365420">
        <ele>22.1</ele>
        <time>2021-05-21T12:21:15Z</time>
      </trkpt>
      <trkpt lat="42.4199820" lon="-8.6365420">
        <ele>22.1</ele>
        <time>2021-05-21T12:21:21Z</time>
      </trkpt>
      <trkpt lat="42.4199820" lon="-8.6365420">
        <ele>22.1</ele>
        <time>2021-05-21T12:21:27Z</time>
      </trkpt>
      <trkpt lat="42.4199820" lon="-8.6365430">
        <ele>22.1</ele>
        <time>2021-05-21T12:21:33Z</time>
      </trkpt>
      <trkpt lat="42.4199820" lon="-8.6365430">
        <ele>22.1</ele>
        <time>2021-05-21T12:21:39Z</time>
      </trkpt>
      <trkpt lat="42.4199820" lon="-8.6365430">
        <ele>22.1</ele>
        <time>2021-05-21T12:21:45Z</time>
      </trkpt>
      <trkpt lat="42.4199820" lon="-8.6365440">
        <ele>22.1</ele>
        <time>2021-05-21T12:21:50Z</time>
      </trkpt>
      <trkpt lat="42.4199810" lon="-8.6365440">
        <ele>22.1</ele>
        <time>2021-05-21T12:21:56Z</time>
      </trkpt>
      <trkpt lat="42.4199810" lon="-8.6365440">
        <ele>22.1</ele>
        <time>2021-05-21T12:22:02Z</time>
      </trkpt>
      <trkpt lat="42.4199810" lon="-8.6365450">
        <ele>22.1</ele>
        <time>2021-05-21T12:22:08Z</time>
      </trkpt>
      <trkpt lat="42.4199810" lon="-8.6365450">
        <ele>22.1</ele>
        <time>2021-05-21T12:22:14Z</time>
      </trkpt>
      <trkpt lat="42.4199810" lon="-8.6365450">
        <ele>22.1</ele>
        <time>2021-05-21T12:22:20Z</time>
      </trkpt>
      <trkpt lat="42.4199810" lon="-8.6365460">
        <ele>22.1</ele>
        <time>2021-05-21T12:22:26Z</time>
      </trkpt>
      <trkpt lat="42.4199810" lon="-8.6365460">
        <ele>22.1</ele>
        <time>2021-05-21T12:22:32Z</time>
      </trkpt>
      <trkpt lat="42.4199810" lon="-8.6365470">
        <ele>22.1</ele>
        <time>2021-05-21T12:22:38Z</time>
      </trkpt>
      <trkpt lat="42.4199810" lon="-8.6365470">
        <ele>22.1</ele>
        <time>2021-05-21T12:22:44Z</time>
      </trkpt>
      <trkpt lat="42.4199810" lon="-8.6365470">
        <ele>22.1</ele>
        <time>2021-05-21T12:22:50Z</time>
      </trkpt>
      <trkpt lat="42.4199810" lon="-8.6365480">
        <ele>22.1</ele>
        <time>2021-05-21T12:22:56Z</time>
      </trkpt>
      <trkpt lat="42.4199810" lon="-8.6365480">
        <ele>22.1</ele>
        <time>2021-05-21T12:23:02Z</time>
      </trkpt>
      <trkpt lat="42.4199810" lon="-8.6365480">
        <ele>22.1</ele>
        <time>2021-05-21T12:23:08Z</time>
      </trkpt>
      <trkpt lat="42.4199800" lon="-8.6365490">
        <ele>22.1</ele>
        <time>2021-05-21T12:23:14Z</time>
      </trkpt>
      <trkpt lat="42.4199800" lon="-8.6365490">
        <ele>22.1</ele>
        <time>2021-05-21T12:23:20Z</time>
      </trkpt>
      <trkpt lat="42.4199800" lon="-8.6365490">
        <ele>22.1</ele>
        <time>2021-05-21T12:23:26Z</time>
      </trkpt>
      <trkpt lat="42.4199800" lon="-8.6365500">
        <ele>22.1</ele>
        <time>2021-05-21T12:23:32Z</time>
      </trkpt>
      <trkpt lat="42.4199800" lon="-8.6365500">
        <ele>22.1</ele>
        <time>2021-05-21T12:23:38Z</time>
      </trkpt>
      <trkpt lat="42.4199800" lon="-8.6365500">
        <ele>22.1</ele>
        <time>2021-05-21T12:23:44Z</time>
      </trkpt>
      <trkpt lat="42.4199800" lon="-8.6365510">
        <ele>22.1</ele>
        <time>2021-05-21T12:23:50Z</time>
      </trkpt>
      <trkpt lat="42.4199800" lon="-8.6365510">
        <ele>22.1</ele>
        <time>2021-05-21T12:23:56Z</time>
      </trkpt>
      <trkpt lat="42.4199800" lon="-8.6365510">
        <ele>22.1</ele>
        <time>2021-05-21T12:24:02Z</time>
      </trkpt>
      <trkpt lat="42.4199800" lon="-8.6365520">
        <ele>22.1</ele>
        <time>2021-05-21T12:24:08Z</time>
      </trkpt>
      <trkpt lat="42.4199800" lon="-8.6365520">
        <ele>22.1</ele>
        <time>2021-05-21T12:24:14Z</time>
      </trkpt>
      <trkpt lat="42.4199800" lon="-8.6365530">
        <ele>22.1</ele>
        <time>2021-05-21T12:24:20Z</time>
      </trkpt>
      <trkpt lat="42.4199800" lon="-8.6365530">
        <ele>22.1</ele>
        <time>2021-05-21T12:24:26Z</time>
      </trkpt>
      <trkpt lat="42.4199800" lon="-8.6365530">
        <ele>22.1</ele>
        <time>2021-05-21T12:24:32Z</time>
      </trkpt>
      <trkpt lat="42.4199790" lon="-8.6365540">
        <ele>22.1</ele>
        <time>2021-05-21T12:24:38Z</time>
      </trkpt>
      <trkpt lat="42.4199790" lon="-8.6365540">
        <ele>22.1</ele>
        <time>2021-05-21T12:24:44Z</time>
      </trkpt>
      <trkpt lat="42.4199790" lon="-8.6365540">
        <ele>22.1</ele>
        <time>2021-05-21T12:24:50Z</time>
      </trkpt>
      <trkpt lat="42.4199790" lon="-8.6365550">
        <ele>22.1</ele>
        <time>2021-05-21T12:24:56Z</time>
      </trkpt>
      <trkpt lat="42.4199790" lon="-8.6365550">
        <ele>22.1</ele>
        <time>2021-05-21T12:25:02Z</time>
      </trkpt>
      <trkpt lat="42.4199790" lon="-8.6365550">
        <ele>22.1</ele>
        <time>2021-05-21T12:25:08Z</time>
      </trkpt>
      <trkpt lat="42.4199790" lon="-8.6365560">
        <ele>22.1</ele>
        <time>2021-05-21T12:25:14Z</time>
      </trkpt>
      <trkpt lat="42.4199790" lon="-8.6365560">
        <ele>22.1</ele>
        <time>2021-05-21T12:25:20Z</time>
      </trkpt>
      <trkpt lat="42.4199790" lon="-8.6365560">
        <ele>22.1</ele>
        <time>2021-05-21T12:25:26Z</time>
      </trkpt>
      <trkpt lat="42.4199790" lon="-8.6365570">
        <ele>22.1</ele>
        <time>2021-05-21T12:25:32Z</time>
      </trkpt>
      <trkpt lat="42.4199790" lon="-8.6365570">
        <ele>22.1</ele>
        <time>2021-05-21T12:25:38Z</time>
      </trkpt>
      <trkpt lat="42.4199790" lon="-8.6365570">
        <ele>22.1</ele>
        <time>2021-05-21T12:25:44Z</time>
      </trkpt>
      <trkpt lat="42.4199790" lon="-8.6365580">
        <ele>22.1</ele>
        <time>2021-05-21T12:25:50Z</time>
      </trkpt>
      <trkpt lat="42.4199780" lon="-8.6365580">
        <ele>22.1</ele>
        <time>2021-05-21T12:25:56Z</time>
      </trkpt>
      <trkpt lat="42.4199780" lon="-8.6365590">
        <ele>22.1</ele>
        <time>2021-05-21T12:26:02Z</time>
      </trkpt>
      <trkpt lat="42.4199780" lon="-8.6365590">
        <ele>22.1</ele>
        <time>2021-05-21T12:26:08Z</time>
      </trkpt>
      <trkpt lat="42.4199780" lon="-8.6365590">
        <ele>22.1</ele>
        <time>2021-05-21T12:26:14Z</time>
      </trkpt>
      <trkpt lat="42.4199780" lon="-8.6365600">
        <ele>22.1</ele>
        <time>2021-05-21T12:26:20Z</time>
      </trkpt>
      <trkpt lat="42.4199780" lon="-8.6365600">
        <ele>22.1</ele>
        <time>2021-05-21T12:26:26Z</time>
      </trkpt>
      <trkpt lat="42.4199780" lon="-8.6365600">
        <ele>22.1</ele>
        <time>2021-05-21T12:26:32Z</time>
      </trkpt>
      <trkpt lat="42.4199780" lon="-8.6365610">
        <ele>22.1</ele>
        <time>2021-05-21T12:26:38Z</time>
      </trkpt>
      <trkpt lat="42.4199780" lon="-8.6365610">
        <ele>22.1</ele>
        <time>2021-05-21T12:26:44Z</time>
      </trkpt>
      <trkpt lat="42.4199780" lon="-8.6365610">
        <ele>22.1</ele>
        <time>2021-05-21T12:26:50Z</time>
      </trkpt>
      <trkpt lat="42.4199780" lon="-8.6365620">
        <ele>22.1</ele>
        <time>2021-05-21T12:26:56Z</time>
      </trkpt>
      <trkpt lat="42.4199780" lon="-8.6365620">
        <ele>22.1</ele>
        <time>2021-05-21T12:27:02Z</time>
      </trkpt>
      <trkpt lat="42.4199780" lon="-8.6365620">
        <ele>22.1</ele>
        <time>2021-05-21T12:27:08Z</time>
      </trkpt>
      <trkpt lat="42.4199780" lon="-8.6365630">
        <ele>22.1</ele>
        <time>2021-05-21T12:27:14Z</time>
      </trkpt>
      <trkpt lat="42.4199770" lon="-8.6365630">
        <ele>22.1</ele>
        <time>2021-05-21T12:27:20Z</time>
      </trkpt>
      <trkpt lat="42.4199770" lon="-8.6365630">
        <ele>22.1</ele>
        <time>2021-05-21T12:27:26Z</time>
      </trkpt>
      <trkpt lat="42.4199770" lon="-8.6365640">
        <ele>22.1</ele>
        <time>2021-05-21T12:27:32Z</time>
      </trkpt>
      <trkpt lat="42.4199770" lon="-8.6365640">
        <ele>22.1</ele>
        <time>2021-05-21T12:27:38Z</time>
      </trkpt>
      <trkpt lat="42.4199770" lon="-8.6365650">
        <ele>22.1</ele>
        <time>2021-05-21T12:27:44Z</time>
      </trkpt>
      <trkpt lat="42.4199770" lon="-8.6365650">
        <ele>22.1</ele>
        <time>2021-05-21T12:27:50Z</time>
      </trkpt>
      <trkpt lat="42.4199770" lon="-8.6365650">
        <ele>22.1</ele>
        <time>2021-05-21T12:27:56Z</time>
      </trkpt>
      <trkpt lat="42.4199770" lon="-8.6365660">
        <ele>22.1</ele>
        <time>2021-05-21T12:28:02Z</time>
      </trkpt>
      <trkpt lat="42.4199770" lon="-8.6365660">
        <ele>22.1</ele>
        <time>2021-05-21T12:28:08Z</time>
      </trkpt>
      <trkpt lat="42.4199770" lon="-8.6365660">
        <ele>22.1</ele>
        <time>2021-05-21T12:28:14Z</time>
      </trkpt>
      <trkpt lat="42.4199770" lon="-8.6365670">
        <ele>22.1</ele>
        <time>2021-05-21T12:28:21Z</time>
      </trkpt>
      <trkpt lat="42.4199770" lon="-8.6365670">
        <ele>22.1</ele>
        <time>2021-05-21T12:28:27Z</time>
      </trkpt>
      <trkpt lat="42.4199770" lon="-8.6365670">
        <ele>22.1</ele>
        <time>2021-05-21T12:28:33Z</time>
      </trkpt>
      <trkpt lat="42.4199760" lon="-8.6365680">
        <ele>22.1</ele>
        <time>2021-05-21T12:28:39Z</time>
      </trkpt>
      <trkpt lat="42.4199760" lon="-8.6365680">
        <ele>22.1</ele>
        <time>2021-05-21T12:28:45Z</time>
      </trkpt>
      <trkpt lat="42.4199760" lon="-8.6365680">
        <ele>22.1</ele>
        <time>2021-05-21T12:28:51Z</time>
      </trkpt>
      <trkpt lat="42.4199760" lon="-8.6365690">
        <ele>22.1</ele>
        <time>2021-05-21T12:28:57Z</time>
      </trkpt>
      <trkpt lat="42.4199760" lon="-8.6365690">
        <ele>22.1</ele>
        <time>2021-05-21T12:29:02Z</time>
      </trkpt>
      <trkpt lat="42.4199760" lon="-8.6365690">
        <ele>22.1</ele>
        <time>2021-05-21T12:29:08Z</time>
      </trkpt>
      <trkpt lat="42.4199760" lon="-8.6365700">
        <ele>22.1</ele>
        <time>2021-05-21T12:29:14Z</time>
      </trkpt>
      <trkpt lat="42.4199760" lon="-8.6365700">
        <ele>22.1</ele>
        <time>2021-05-21T12:29:20Z</time>
      </trkpt>
      <trkpt lat="42.4199760" lon="-8.6365700">
        <ele>22.1</ele>
        <time>2021-05-21T12:29:26Z</time>
      </trkpt>
      <trkpt lat="42.4199760" lon="-8.6365710">
        <ele>22.1</ele>
        <time>2021-05-21T12:29:32Z</time>
      </trkpt>
      <trkpt lat="42.4199760" lon="-8.6365710">
        <ele>22.1</ele>
        <time>2021-05-21T12:29:38Z</time>
      </trkpt>
      <trkpt lat="42.4199760" lon="-8.6365720">
        <ele>22.1</ele>
        <time>2021-05-21T12:29:44Z</time>
      </trkpt>
      <trkpt lat="42.4199760" lon="-8.6365720">
        <ele>22.1</ele>
        <time>2021-05-21T12:29:50Z</time>
      </trkpt>
      <trkpt lat="42.4199750" lon="-8.6365720">
        <ele>22.1</ele>
        <time>2021-05-21T12:29:56Z</time>
      </trkpt>
      <trkpt lat="42.4199750" lon="-8.6365730">
        <ele>22.1</ele>
        <time>2021-05-21T12:30:02Z</time>
      </trkpt>
      <trkpt lat="42.4199750" lon="-8.6365730">
        <ele>22.1</ele>
        <time>2021-05-21T12:30:08Z</time>
      </trkpt>
      <trkpt lat="42.4199750" lon="-8.6365730">
        <ele>22.1</ele>
        <time>2021-05-21T12:30:14Z</time>
      </trkpt>
      <trkpt lat="42.4199750" lon="-8.6365740">
        <ele>22.1</ele>
        <time>2021-05-21T12:30:20Z</time>
      </trkpt>
      <trkpt lat="42.4199750" lon="-8.6365740">
        <ele>22.1</ele>
        <time>2021-05-21T12:30:26Z</time>
      </trkpt>
      <trkpt lat="42.4199750" lon="-8.6365740">
        <ele>22.1</ele>
        <time>2021-05-21T12:30:32Z</time>
      </trkpt>
      <trkpt lat="42.4199750" lon="-8.6365750">
        <ele>22.1</ele>
        <time>2021-05-21T12:30:38Z</time>
      </trkpt>
      <trkpt lat="42.4199750" lon="-8.6365750">
        <ele>22.1</ele>
        <time>2021-05-21T12:30:44Z</time>
      </trkpt>
      <trkpt lat="42.4199750" lon="-8.6365750">
        <ele>22.1</ele>
        <time>2021-05-21T12:30:50Z</time>
      </trkpt>
      <trkpt lat="42.4199750" lon="-8.6365760">
        <ele>22.1</ele>
        <time>2021-05-21T12:30:56Z</time>
      </trkpt>
      <trkpt lat="42.4199750" lon="-8.6365760">
        <ele>22.1</ele>
        <time>2021-05-21T12:31:02Z</time>
      </trkpt>
      <trkpt lat="42.4199750" lon="-8.6365760">
        <ele>22.1</ele>
        <time>2021-05-21T12:31:08Z</time>
      </trkpt>
      <trkpt lat="42.4199750" lon="-8.6365770">
        <ele>22.1</ele>
        <time>2021-05-21T12:31:14Z</time>
      </trkpt>
      <trkpt lat="42.4199740" lon="-8.6365770">
        <ele>22.1</ele>
        <time>2021-05-21T12:31:20Z</time>
      </trkpt>
      <trkpt lat="42.4199740" lon="-8.6365780">
        <ele>22.1</ele>
        <time>2021-05-21T12:31:26Z</time>
      </trkpt>
      <trkpt lat="42.4199740" lon="-8.6365780">
        <ele>22.1</ele>
        <time>2021-05-21T12:31:32Z</time>
      </trkpt>
      <trkpt lat="42.4199740" lon="-8.6365780">
        <ele>22.1</ele>
        <time>2021-05-21T12:31:38Z</time>
      </trkpt>
      <trkpt lat="42.4199740" lon="-8.6365790">
        <ele>22.1</ele>
        <time>2021-05-21T12:31:44Z</time>
      </trkpt>
      <trkpt lat="42.4199740" lon="-8.6365790">
        <ele>22.1</ele>
        <time>2021-05-21T12:31:50Z</time>
      </trkpt>
      <trkpt lat="42.4199740" lon="-8.6365790">
        <ele>22.1</ele>
        <time>2021-05-21T12:31:56Z</time>
      </trkpt>
      <trkpt lat="42.4199740" lon="-8.6365800">
        <ele>22.1</ele>
        <time>2021-05-21T12:32:02Z</time>
      </trkpt>
      <trkpt lat="42.4199740" lon="-8.6365800">
        <ele>22.1</ele>
        <time>2021-05-21T12:32:08Z</time>
      </trkpt>
      <trkpt lat="42.4199740" lon="-8.6365800">
        <ele>22.1</ele>
        <time>2021-05-21T12:32:14Z</time>
      </trkpt>
      <trkpt lat="42.4199740" lon="-8.6365810">
        <ele>22.1</ele>
        <time>2021-05-21T12:32:20Z</time>
      </trkpt>
      <trkpt lat="42.4199740" lon="-8.6365810">
        <ele>22.1</ele>
        <time>2021-05-21T12:32:26Z</time>
      </trkpt>
      <trkpt lat="42.4199740" lon="-8.6365810">
        <ele>22.1</ele>
        <time>2021-05-21T12:32:32Z</time>
      </trkpt>
      <trkpt lat="42.4199730" lon="-8.6365820">
        <ele>22.1</ele>
        <time>2021-05-21T12:32:38Z</time>
      </trkpt>
      <trkpt lat="42.4199730" lon="-8.6365820">
        <ele>22.1</ele>
        <time>2021-05-21T12:32:44Z</time>
      </trkpt>
      <trkpt lat="42.4199730" lon="-8.6365820">
        <ele>22.1</ele>
        <time>2021-05-21T12:32:50Z</time>
      </trkpt>
      <trkpt lat="42.4199730" lon="-8.6365830">
        <ele>22.1</ele>
        <time>2021-05-21T12:32:56Z</time>
      </trkpt>
      <trkpt lat="42.4199730" lon="-8.6365830">
        <ele>22.1</ele>
        <time>2021-05-21T12:33:02Z</time>
      </trkpt>
      <trkpt lat="42.4199730" lon="-8.6365840">
        <ele>22.1</ele>
        <time>2021-05-21T12:33:08Z</time>
      </trkpt>
      <trkpt lat="42.4199730" lon="-8.6365840">
        <ele>22.1</ele>
        <time>2021-05-21T12:33:14Z</time>
      </trkpt>
      <trkpt lat="42.4199730" lon="-8.6365840">
        <ele>22.1</ele>
        <time>2021-05-21T12:33:20Z</time>
      </trkpt>
      <trkpt lat="42.4199730" lon="-8.6365850">
        <ele>22.1</ele>
        <time>2021-05-21T12:33:26Z</time>
      </trkpt>
      <trkpt lat="42.4199730" lon="-8.6365850">
        <ele>22.1</ele>
        <time>2021-05-21T12:33:32Z</time>
      </trkpt>
      <trkpt lat="42.4199730" lon="-8.6365850">
        <ele>22.1</ele>
        <time>2021-05-21T12:33:38Z</time>
      </trkpt>
      <trkpt lat="42.4199730" lon="-8.6365860">
        <ele>22.1</ele>
        <time>2021-05-21T12:33:44Z</time>
      </trkpt>
      <trkpt lat="42.4199730" lon="-8.6365860">
        <ele>22.1</ele>
        <time>2021-05-21T12:33:50Z</time>
      </trkpt>
      <trkpt lat="42.4199730" lon="-8.6365860">
        <ele>22.1</ele>
        <time>2021-05-21T12:33:56Z</time>
      </trkpt>
      <trkpt lat="42.4199720" lon="-8.6365870">
        <ele>22.1</ele>
        <time>2021-05-21T12:34:02Z</time>
      </trkpt>
      <trkpt lat="42.4199720" lon="-8.6365870">
        <ele>22.1</ele>
        <time>2021-05-21T12:34:08Z</time>
      </trkpt>
      <trkpt lat="42.4199720" lon="-8.6365870">
        <ele>22.1</ele>
        <time>2021-05-21T12:34:14Z</time>
      </trkpt>
      <trkpt lat="42.4199720" lon="-8.6365880">
        <ele>22.1</ele>
        <time>2021-05-21T12:34:20Z</time>
      </trkpt>
      <trkpt lat="42.4199720" lon="-8.6365880">
        <ele>22.1</ele>
        <time>2021-05-21T12:34:26Z</time>
      </trkpt>
      <trkpt lat="42.4199720" lon="-8.6365880">
        <ele>22.1</ele>
        <time>2021-05-21T12:34:32Z</time>
      </trkpt>
      <trkpt lat="42.4199720" lon="-8.6365890">
        <ele>22.1</ele>
        <time>2021-05-21T12:34:38Z</time>
      </trkpt>
      <trkpt lat="42.4199720" lon="-8.6365890">
        <ele>22.1</ele>
        <time>2021-05-21T12:34:44Z</time>
      </trkpt>
      <trkpt lat="42.4199720" lon="-8.6365900">
        <ele>22.1</ele>
        <time>2021-05-21T12:34:50Z</time>
      </trkpt>
      <trkpt lat="42.4199720" lon="-8.6365900">
        <ele>22.1</ele>
        <time>2021-05-21T12:34:56Z</time>
      </trkpt>
      <trkpt lat="42.4199720" lon="-8.6365900">
        <ele>22.1</ele>
        <time>2021-05-21T12:35:01Z</time>
      </trkpt>
      <trkpt lat="42.4199720" lon="-8.6365910">
        <ele>22.1</ele>
        <time>2021-05-21T12:35:07Z</time>
      </trkpt>
      <trkpt lat="42.4199720" lon="-8.6365910">
        <ele>22.1</ele>
        <time>2021-05-21T12:35:19Z</time>
      </trkpt>
      <trkpt lat="42.4199710" lon="-8.6365910">
        <ele>22.1</ele>
        <time>2021-05-21T12:35:25Z</time>
      </trkpt>
      <trkpt lat="42.4199710" lon="-8.6365920">
        <ele>22.1</ele>
        <time>2021-05-21T12:35:31Z</time>
      </trkpt>
      <trkpt lat="42.4199710" lon="-8.6365920">
        <ele>22.1</ele>
        <time>2021-05-21T12:35:37Z</time>
      </trkpt>
      <trkpt lat="42.4199710" lon="-8.6365920">
        <ele>22.1</ele>
        <time>2021-05-21T12:35:43Z</time>
      </trkpt>
      <trkpt lat="42.4199710" lon="-8.6365930">
        <ele>22.1</ele>
        <time>2021-05-21T12:35:49Z</time>
      </trkpt>
      <trkpt lat="42.4199710" lon="-8.6365930">
        <ele>22.1</ele>
        <time>2021-05-21T12:35:56Z</time>
      </trkpt>
      <trkpt lat="42.4199710" lon="-8.6365930">
        <ele>22.1</ele>
        <time>2021-05-21T12:36:02Z</time>
      </trkpt>
      <trkpt lat="42.4199710" lon="-8.6365940">
        <ele>22.1</ele>
        <time>2021-05-21T12:36:08Z</time>
      </trkpt>
      <trkpt lat="42.4199710" lon="-8.6365940">
        <ele>22.1</ele>
        <time>2021-05-21T12:36:14Z</time>
      </trkpt>
      <trkpt lat="42.4199710" lon="-8.6365940">
        <ele>22.1</ele>
        <time>2021-05-21T12:36:20Z</time>
      </trkpt>
      <trkpt lat="42.4199710" lon="-8.6365950">
        <ele>22.1</ele>
        <time>2021-05-21T12:36:26Z</time>
      </trkpt>
      <trkpt lat="42.4199710" lon="-8.6365950">
        <ele>22.1</ele>
        <time>2021-05-21T12:36:32Z</time>
      </trkpt>
      <trkpt lat="42.4199710" lon="-8.6365950">
        <ele>22.1</ele>
        <time>2021-05-21T12:36:38Z</time>
      </trkpt>
      <trkpt lat="42.4199700" lon="-8.6365960">
        <ele>22.1</ele>
        <time>2021-05-21T12:36:44Z</time>
      </trkpt>
      <trkpt lat="42.4199700" lon="-8.6365960">
        <ele>22.1</ele>
        <time>2021-05-21T12:36:50Z</time>
      </trkpt>
      <trkpt lat="42.4199700" lon="-8.6365970">
        <ele>22.1</ele>
        <time>2021-05-21T12:36:56Z</time>
      </trkpt>
      <trkpt lat="42.4199700" lon="-8.6365970">
        <ele>22.1</ele>
        <time>2021-05-21T12:37:02Z</time>
      </trkpt>
      <trkpt lat="42.4199700" lon="-8.6365970">
        <ele>22.1</ele>
        <time>2021-05-21T12:37:08Z</time>
      </trkpt>
      <trkpt lat="42.4199700" lon="-8.6365980">
        <ele>22.1</ele>
        <time>2021-05-21T12:37:14Z</time>
      </trkpt>
      <trkpt lat="42.4199700" lon="-8.6365980">
        <ele>22.1</ele>
        <time>2021-05-21T12:37:20Z</time>
      </trkpt>
      <trkpt lat="42.4199700" lon="-8.6365980">
        <ele>22.1</ele>
        <time>2021-05-21T12:37:21Z</time>
      </trkpt>
      <trkpt lat="42.4199700" lon="-8.6365990">
        <ele>22.1</ele>
        <time>2021-05-21T12:37:22Z</time>
      </trkpt>
      <trkpt lat="42.4199700" lon="-8.6365990">
        <ele>22.1</ele>
        <time>2021-05-21T12:37:27Z</time>
      </trkpt>
      <trkpt lat="42.4199700" lon="-8.6365990">
        <ele>22.1</ele>
        <time>2021-05-21T12:37:33Z</time>
      </trkpt>
      <trkpt lat="42.4199700" lon="-8.6366000">
        <ele>22.1</ele>
        <time>2021-05-21T12:37:36Z</time>
      </trkpt>
      <trkpt lat="42.4199700" lon="-8.6366000">
        <ele>22.1</ele>
        <time>2021-05-21T12:37:37Z</time>
      </trkpt>
      <trkpt lat="42.4199700" lon="-8.6366000">
        <ele>22.1</ele>
        <time>2021-05-21T12:37:38Z</time>
      </trkpt>
      <trkpt lat="42.4199690" lon="-8.6366010">
        <ele>22.1</ele>
        <time>2021-05-21T12:37:39Z</time>
      </trkpt>
      <trkpt lat="42.4199690" lon="-8.6366010">
        <ele>22.1</ele>
        <time>2021-05-21T12:37:40Z</time>
      </trkpt>
      <trkpt lat="42.4199690" lon="-8.6366010">
        <ele>22.1</ele>
        <time>2021-05-21T12:37:41Z</time>
      </trkpt>
      <trkpt lat="42.4199690" lon="-8.6366020">
        <ele>22.1</ele>
        <time>2021-05-21T12:37:42Z</time>
      </trkpt>
      <trkpt lat="42.4199690" lon="-8.6366020">
        <ele>22.1</ele>
        <time>2021-05-21T12:37:43Z</time>
      </trkpt>
      <trkpt lat="42.4199690" lon="-8.6366030">
        <ele>22.1</ele>
        <time>2021-05-21T12:37:44Z</time>
      </trkpt>
      <trkpt lat="42.4199690" lon="-8.6366030">
        <ele>22.1</ele>
        <time>2021-05-21T12:37:45Z</time>
      </trkpt>
      <trkpt lat="42.4199690" lon="-8.6366030">
        <ele>22.1</ele>
        <time>2021-05-21T12:37:46Z</time>
      </trkpt>
      <trkpt lat="42.4199690" lon="-8.6366040">
        <ele>22.1</ele>
        <time>2021-05-21T12:37:47Z</time>
      </trkpt>
      <trkpt lat="42.4199690" lon="-8.6366040">
        <ele>22.1</ele>
        <time>2021-05-21T12:37:48Z</time>
      </trkpt>
      <trkpt lat="42.4199690" lon="-8.6366040">
        <ele>22.1</ele>
        <time>2021-05-21T12:37:49Z</time>
      </trkpt>
      <trkpt lat="42.4199690" lon="-8.6366050">
        <ele>22.1</ele>
        <time>2021-05-21T12:37:50Z</time>
      </trkpt>
      <trkpt lat="42.4199690" lon="-8.6366050">
        <ele>22.1</ele>
        <time>2021-05-21T12:37:51Z</time>
      </trkpt>
      <trkpt lat="42.4199680" lon="-8.6366050">
        <ele>22.1</ele>
        <time>2021-05-21T12:37:52Z</time>
      </trkpt>
      <trkpt lat="42.4199680" lon="-8.6366060">
        <ele>22.1</ele>
        <time>2021-05-21T12:37:53Z</time>
      </trkpt>
      <trkpt lat="42.4199680" lon="-8.6366060">
        <ele>22.1</ele>
        <time>2021-05-21T12:37:54Z</time>
      </trkpt>
      <trkpt lat="42.4199680" lon="-8.6366060">
        <ele>22.1</ele>
        <time>2021-05-21T12:37:55Z</time>
      </trkpt>
      <trkpt lat="42.4199680" lon="-8.6366070">
        <ele>22.1</ele>
        <time>2021-05-21T12:37:56Z</time>
      </trkpt>
      <trkpt lat="42.4199680" lon="-8.6366070">
        <ele>22.1</ele>
        <time>2021-05-21T12:37:57Z</time>
      </trkpt>
      <trkpt lat="42.4199680" lon="-8.6366070">
        <ele>22.1</ele>
        <time>2021-05-21T12:37:58Z</time>
      </trkpt>
      <trkpt lat="42.4199680" lon="-8.6366080">
        <ele>22.1</ele>
        <time>2021-05-21T12:37:59Z</time>
      </trkpt>
      <trkpt lat="42.4199680" lon="-8.6366080">
        <ele>22.1</ele>
        <time>2021-05-21T12:38:00Z</time>
      </trkpt>
      <trkpt lat="42.4199680" lon="-8.6366090">
        <ele>22.1</ele>
        <time>2021-05-21T12:38:01Z</time>
      </trkpt>
      <trkpt lat="42.4199680" lon="-8.6366090">
        <ele>22.1</ele>
        <time>2021-05-21T12:38:02Z</time>
      </trkpt>
      <trkpt lat="42.4199680" lon="-8.6366090">
        <ele>22.1</ele>
        <time>2021-05-21T12:38:03Z</time>
      </trkpt>
      <trkpt lat="42.4199680" lon="-8.6366100">
        <ele>22.1</ele>
        <time>2021-05-21T12:38:04Z</time>
      </trkpt>
      <trkpt lat="42.4199680" lon="-8.6366100">
        <ele>22.1</ele>
        <time>2021-05-21T12:38:05Z</time>
      </trkpt>
      <trkpt lat="42.4199670" lon="-8.6366100">
        <ele>22.1</ele>
        <time>2021-05-21T12:38:06Z</time>
      </trkpt>
      <trkpt lat="42.4199670" lon="-8.6366110">
        <ele>22.1</ele>
        <time>2021-05-21T12:38:07Z</time>
      </trkpt>
      <trkpt lat="42.4199670" lon="-8.6366110">
        <ele>22.1</ele>
        <time>2021-05-21T12:38:08Z</time>
      </trkpt>
      <trkpt lat="42.4199670" lon="-8.6366110">
        <ele>22.1</ele>
        <time>2021-05-21T12:38:09Z</time>
      </trkpt>
      <trkpt lat="42.4199670" lon="-8.6366120">
        <ele>22.1</ele>
        <time>2021-05-21T12:38:10Z</time>
      </trkpt>
      <trkpt lat="42.4199670" lon="-8.6366120">
        <ele>22.1</ele>
        <time>2021-05-21T12:38:11Z</time>
      </trkpt>
      <trkpt lat="42.4199670" lon="-8.6366120">
        <ele>22.1</ele>
        <time>2021-05-21T12:38:12Z</time>
      </trkpt>
      <trkpt lat="42.4199670" lon="-8.6366130">
        <ele>22.1</ele>
        <time>2021-05-21T12:38:13Z</time>
      </trkpt>
      <trkpt lat="42.4199670" lon="-8.6366130">
        <ele>22.1</ele>
        <time>2021-05-21T12:38:14Z</time>
      </trkpt>
      <trkpt lat="42.4199670" lon="-8.6366130">
        <ele>22.1</ele>
        <time>2021-05-21T12:38:15Z</time>
      </trkpt>
      <trkpt lat="42.4199670" lon="-8.6366140">
        <ele>22.1</ele>
        <time>2021-05-21T12:38:16Z</time>
      </trkpt>
      <trkpt lat="42.4199670" lon="-8.6366140">
        <ele>22.1</ele>
        <time>2021-05-21T12:38:17Z</time>
      </trkpt>
      <trkpt lat="42.4199670" lon="-8.6366150">
        <ele>22.1</ele>
        <time>2021-05-21T12:38:18Z</time>
      </trkpt>
      <trkpt lat="42.4199660" lon="-8.6366150">
        <ele>22.1</ele>
        <time>2021-05-21T12:38:19Z</time>
      </trkpt>
      <trkpt lat="42.4199660" lon="-8.6366150">
        <ele>22.1</ele>
        <time>2021-05-21T12:38:20Z</time>
      </trkpt>
      <trkpt lat="42.4199660" lon="-8.6366160">
        <ele>22.1</ele>
        <time>2021-05-21T12:38:21Z</time>
      </trkpt>
      <trkpt lat="42.4199660" lon="-8.6366160">
        <ele>22.1</ele>
        <time>2021-05-21T12:38:22Z</time>
      </trkpt>
      <trkpt lat="42.4199660" lon="-8.6366160">
        <ele>22.1</ele>
        <time>2021-05-21T12:38:23Z</time>
      </trkpt>
      <trkpt lat="42.4199660" lon="-8.6366170">
        <ele>22.1</ele>
        <time>2021-05-21T12:38:24Z</time>
      </trkpt>
      <trkpt lat="42.4199660" lon="-8.6366170">
        <ele>22.1</ele>
        <time>2021-05-21T12:38:25Z</time>
      </trkpt>
      <trkpt lat="42.4199660" lon="-8.6366170">
        <ele>22.1</ele>
        <time>2021-05-21T12:38:26Z</time>
      </trkpt>
      <trkpt lat="42.4199660" lon="-8.6366180">
        <ele>22.1</ele>
        <time>2021-05-21T12:38:27Z</time>
      </trkpt>
      <trkpt lat="42.4199660" lon="-8.6366180">
        <ele>22.1</ele>
        <time>2021-05-21T12:38:28Z</time>
      </trkpt>
      <trkpt lat="42.4199660" lon="-8.6366180">
        <ele>22.1</ele>
        <time>2021-05-21T12:38:29Z</time>
      </trkpt>
      <trkpt lat="42.4199660" lon="-8.6366190">
        <ele>22.1</ele>
        <time>2021-05-21T12:38:30Z</time>
      </trkpt>
      <trkpt lat="42.4199660" lon="-8.6366190">
        <ele>22.1</ele>
        <time>2021-05-21T12:38:31Z</time>
      </trkpt>
      <trkpt lat="42.4199660" lon="-8.6366190">
        <ele>22.1</ele>
        <time>2021-05-21T12:38:32Z</time>
      </trkpt>
      <trkpt lat="42.4199650" lon="-8.6366200">
        <ele>22.1</ele>
        <time>2021-05-21T12:38:33Z</time>
      </trkpt>
      <trkpt lat="42.4199650" lon="-8.6366200">
        <ele>22.1</ele>
        <time>2021-05-21T12:38:35Z</time>
      </trkpt>
      <trkpt lat="42.4199650" lon="-8.6366210">
        <ele>22.1</ele>
        <time>2021-05-21T12:38:36Z</time>
      </trkpt>
      <trkpt lat="42.4199650" lon="-8.6366210">
        <ele>22.1</ele>
        <time>2021-05-21T12:38:37Z</time>
      </trkpt>
      <trkpt lat="42.4199650" lon="-8.6366210">
        <ele>22.1</ele>
        <time>2021-05-21T12:38:38Z</time>
      </trkpt>
      <trkpt lat="42.4199650" lon="-8.6366220">
        <ele>22.1</ele>
        <time>2021-05-21T12:38:39Z</time>
      </trkpt>
      <trkpt lat="42.4199650" lon="-8.6366220">
        <ele>22.1</ele>
        <time>2021-05-21T12:38:40Z</time>
      </trkpt>
      <trkpt lat="42.4199650" lon="-8.6366220">
        <ele>22.1</ele>
        <time>2021-05-21T12:38:41Z</time>
      </trkpt>
      <trkpt lat="42.4199650" lon="-8.6366230">
        <ele>22.1</ele>
        <time>2021-05-21T12:38:42Z</time>
      </trkpt>
      <trkpt lat="42.4199650" lon="-8.6366230">
        <ele>22.1</ele>
        <time>2021-05-21T12:38:43Z</time>
      </trkpt>
      <trkpt lat="42.4199650" lon="-8.6366230">
        <ele>22.1</ele>
        <time>2021-05-21T12:38:44Z</time>
      </trkpt>
      <trkpt lat="42.4199650" lon="-8.6366240">
        <ele>22.1</ele>
        <time>2021-05-21T12:38:45Z</time>
      </trkpt>
      <trkpt lat="42.4199650" lon="-8.6366240">
        <ele>22.1</ele>
        <time>2021-05-21T12:38:46Z</time>
      </trkpt>
      <trkpt lat="42.4199640" lon="-8.6366240">
        <ele>22.1</ele>
        <time>2021-05-21T12:38:47Z</time>
      </trkpt>
      <trkpt lat="42.4199640" lon="-8.6366250">
        <ele>22.1</ele>
        <time>2021-05-21T12:38:48Z</time>
      </trkpt>
      <trkpt lat="42.4199640" lon="-8.6366250">
        <ele>22.1</ele>
        <time>2021-05-21T12:38:49Z</time>
      </trkpt>
      <trkpt lat="42.4199640" lon="-8.6366250">
        <ele>22.1</ele>
        <time>2021-05-21T12:38:50Z</time>
      </trkpt>
      <trkpt lat="42.4199640" lon="-8.6366260">
        <ele>22.1</ele>
        <time>2021-05-21T12:38:51Z</time>
      </trkpt>
      <trkpt lat="42.4199640" lon="-8.6366260">
        <ele>22.1</ele>
        <time>2021-05-21T12:38:52Z</time>
      </trkpt>
      <trkpt lat="42.4199640" lon="-8.6366260">
        <ele>22.1</ele>
        <time>2021-05-21T12:38:53Z</time>
      </trkpt>
      <trkpt lat="42.4199640" lon="-8.6366270">
        <ele>22.1</ele>
        <time>2021-05-21T12:38:54Z</time>
      </trkpt>
      <trkpt lat="42.4199640" lon="-8.6366270">
        <ele>22.1</ele>
        <time>2021-05-21T12:38:55Z</time>
      </trkpt>
      <trkpt lat="42.4199640" lon="-8.6366280">
        <ele>22.1</ele>
        <time>2021-05-21T12:38:56Z</time>
      </trkpt>
      <trkpt lat="42.4199640" lon="-8.6366280">
        <ele>22.1</ele>
        <time>2021-05-21T12:38:57Z</time>
      </trkpt>
      <trkpt lat="42.4199640" lon="-8.6366280">
        <ele>22.1</ele>
        <time>2021-05-21T12:38:58Z</time>
      </trkpt>
      <trkpt lat="42.4199640" lon="-8.6366290">
        <ele>22.1</ele>
        <time>2021-05-21T12:38:59Z</time>
      </trkpt>
      <trkpt lat="42.4199630" lon="-8.6366290">
        <ele>22.1</ele>
        <time>2021-05-21T12:39:00Z</time>
      </trkpt>
      <trkpt lat="42.4199630" lon="-8.6366290">
        <ele>22.1</ele>
        <time>2021-05-21T12:39:01Z</time>
      </trkpt>
      <trkpt lat="42.4199630" lon="-8.6366300">
        <ele>22.1</ele>
        <time>2021-05-21T12:39:02Z</time>
      </trkpt>
      <trkpt lat="42.4199630" lon="-8.6366300">
        <ele>22.1</ele>
        <time>2021-05-21T12:39:03Z</time>
      </trkpt>
      <trkpt lat="42.4199630" lon="-8.6366300">
        <ele>22.1</ele>
        <time>2021-05-21T12:39:04Z</time>
      </trkpt>
      <trkpt lat="42.4199630" lon="-8.6366310">
        <ele>22.1</ele>
        <time>2021-05-21T12:39:05Z</time>
      </trkpt>
      <trkpt lat="42.4199630" lon="-8.6366310">
        <ele>22.1</ele>
        <time>2021-05-21T12:39:06Z</time>
      </trkpt>
      <trkpt lat="42.4199630" lon="-8.6366310">
        <ele>22.1</ele>
        <time>2021-05-21T12:39:07Z</time>
      </trkpt>
      <trkpt lat="42.4199630" lon="-8.6366320">
        <ele>22.1</ele>
        <time>2021-05-21T12:39:08Z</time>
      </trkpt>
      <trkpt lat="42.4199630" lon="-8.6366320">
        <ele>22.1</ele>
        <time>2021-05-21T12:39:09Z</time>
      </trkpt>
      <trkpt lat="42.4199630" lon="-8.6366320">
        <ele>22.1</ele>
        <time>2021-05-21T12:39:10Z</time>
      </trkpt>
      <trkpt lat="42.4199630" lon="-8.6366330">
        <ele>22.1</ele>
        <time>2021-05-21T12:39:11Z</time>
      </trkpt>
      <trkpt lat="42.4199630" lon="-8.6366330">
        <ele>22.1</ele>
        <time>2021-05-21T12:39:12Z</time>
      </trkpt>
      <trkpt lat="42.4199630" lon="-8.6366340">
        <ele>22.1</ele>
        <time>2021-05-21T12:39:13Z</time>
      </trkpt>
      <trkpt lat="42.4199620" lon="-8.6366340">
        <ele>22.1</ele>
        <time>2021-05-21T12:39:14Z</time>
      </trkpt>
      <trkpt lat="42.4199620" lon="-8.6366340">
        <ele>22.1</ele>
        <time>2021-05-21T12:39:15Z</time>
      </trkpt>
      <trkpt lat="42.4199620" lon="-8.6366350">
        <ele>22.1</ele>
        <time>2021-05-21T12:39:16Z</time>
      </trkpt>
      <trkpt lat="42.4199620" lon="-8.6366350">
        <ele>22.1</ele>
        <time>2021-05-21T12:39:17Z</time>
      </trkpt>
      <trkpt lat="42.4199620" lon="-8.6366350">
        <ele>22.1</ele>
        <time>2021-05-21T12:39:18Z</time>
      </trkpt>
      <trkpt lat="42.4199620" lon="-8.6366360">
        <ele>22.1</ele>
        <time>2021-05-21T12:39:19Z</time>
      </trkpt>
      <trkpt lat="42.4199620" lon="-8.6366360">
        <ele>22.1</ele>
        <time>2021-05-21T12:39:20Z</time>
      </trkpt>
      <trkpt lat="42.4199590" lon="-8.6366300">
        <ele>22.1</ele>
        <time>2021-05-21T12:39:21Z</time>
      </trkpt>
      <trkpt lat="42.4199570" lon="-8.6366270">
        <ele>22.1</ele>
        <time>2021-05-21T12:39:22Z</time>
      </trkpt>
      <trkpt lat="42.4199530" lon="-8.6366320">
        <ele>22.1</ele>
        <time>2021-05-21T12:39:23Z</time>
      </trkpt>
      <trkpt lat="42.4199500" lon="-8.6366350">
        <ele>22.1</ele>
        <time>2021-05-21T12:39:24Z</time>
      </trkpt>
      <trkpt lat="42.4199500" lon="-8.6366310">
        <ele>22.1</ele>
        <time>2021-05-21T12:39:25Z</time>
      </trkpt>
      <trkpt lat="42.4199500" lon="-8.6366260">
        <ele>22.1</ele>
        <time>2021-05-21T12:39:26Z</time>
      </trkpt>
      <trkpt lat="42.4199490" lon="-8.6366270">
        <ele>22.1</ele>
        <time>2021-05-21T12:39:27Z</time>
      </trkpt>
      <trkpt lat="42.4199480" lon="-8.6366240">
        <ele>22.1</ele>
        <time>2021-05-21T12:39:28Z</time>
      </trkpt>
      <trkpt lat="42.4199500" lon="-8.6366180">
        <ele>22.1</ele>
        <time>2021-05-21T12:39:29Z</time>
      </trkpt>
      <trkpt lat="42.4199540" lon="-8.6366160">
        <ele>22.2</ele>
        <time>2021-05-21T12:39:30Z</time>
      </trkpt>
      <trkpt lat="42.4199560" lon="-8.6366070">
        <ele>22.2</ele>
        <time>2021-05-21T12:39:31Z</time>
      </trkpt>
      <trkpt lat="42.4199580" lon="-8.6365990">
        <ele>22.2</ele>
        <time>2021-05-21T12:39:32Z</time>
      </trkpt>
      <trkpt lat="42.4199590" lon="-8.6365920">
        <ele>22.2</ele>
        <time>2021-05-21T12:39:33Z</time>
      </trkpt>
      <trkpt lat="42.4199580" lon="-8.6365930">
        <ele>22.2</ele>
        <time>2021-05-21T12:39:34Z</time>
      </trkpt>
      <trkpt lat="42.4199560" lon="-8.6365950">
        <ele>22.2</ele>
        <time>2021-05-21T12:39:35Z</time>
      </trkpt>
      <trkpt lat="42.4199530" lon="-8.6365850">
        <ele>22.2</ele>
        <time>2021-05-21T12:39:36Z</time>
      </trkpt>
      <trkpt lat="42.4199520" lon="-8.6365840">
        <ele>22.2</ele>
        <time>2021-05-21T12:39:37Z</time>
      </trkpt>
      <trkpt lat="42.4199530" lon="-8.6365810">
        <ele>22.2</ele>
        <time>2021-05-21T12:39:38Z</time>
      </trkpt>
      <trkpt lat="42.4199510" lon="-8.6365820">
        <ele>22.2</ele>
        <time>2021-05-21T12:39:39Z</time>
      </trkpt>
      <trkpt lat="42.4199520" lon="-8.6365810">
        <ele>22.2</ele>
        <time>2021-05-21T12:39:40Z</time>
      </trkpt>
      <trkpt lat="42.4199560" lon="-8.6365870">
        <ele>22.2</ele>
        <time>2021-05-21T12:39:41Z</time>
      </trkpt>
      <trkpt lat="42.4199540" lon="-8.6365830">
        <ele>22.2</ele>
        <time>2021-05-21T12:39:42Z</time>
      </trkpt>
      <trkpt lat="42.4199560" lon="-8.6365640">
        <ele>22.2</ele>
        <time>2021-05-21T12:39:43Z</time>
      </trkpt>
      <trkpt lat="42.4199560" lon="-8.6365490">
        <ele>22.2</ele>
        <time>2021-05-21T12:39:44Z</time>
      </trkpt>
      <trkpt lat="42.4199640" lon="-8.6365090">
        <ele>22.2</ele>
        <time>2021-05-21T12:39:45Z</time>
      </trkpt>
      <trkpt lat="42.4199690" lon="-8.6365030">
        <ele>22.2</ele>
        <time>2021-05-21T12:39:46Z</time>
      </trkpt>
      <trkpt lat="42.4199760" lon="-8.6365090">
        <ele>22.2</ele>
        <time>2021-05-21T12:39:47Z</time>
      </trkpt>
      <trkpt lat="42.4199830" lon="-8.6365060">
        <ele>22.2</ele>
        <time>2021-05-21T12:39:48Z</time>
      </trkpt>
      <trkpt lat="42.4199900" lon="-8.6364990">
        <ele>22.2</ele>
        <time>2021-05-21T12:39:49Z</time>
      </trkpt>
      <trkpt lat="42.4200000" lon="-8.6364960">
        <ele>22.2</ele>
        <time>2021-05-21T12:39:50Z</time>
      </trkpt>
      <trkpt lat="42.4200080" lon="-8.6364990">
        <ele>22.2</ele>
        <time>2021-05-21T12:39:51Z</time>
      </trkpt>
      <trkpt lat="42.4200200" lon="-8.6364990">
        <ele>22.2</ele>
        <time>2021-05-21T12:39:52Z</time>
      </trkpt>
      <trkpt lat="42.4200280" lon="-8.6365010">
        <ele>22.3</ele>
        <time>2021-05-21T12:39:53Z</time>
      </trkpt>
      <trkpt lat="42.4200200" lon="-8.6365070">
        <ele>22.3</ele>
        <time>2021-05-21T12:39:54Z</time>
      </trkpt>
      <trkpt lat="42.4200050" lon="-8.6365250">
        <ele>22.3</ele>
        <time>2021-05-21T12:39:55Z</time>
      </trkpt>
      <trkpt lat="42.4199980" lon="-8.6365350">
        <ele>22.3</ele>
        <time>2021-05-21T12:39:56Z</time>
      </trkpt>
      <trkpt lat="42.4199960" lon="-8.6365460">
        <ele>22.3</ele>
        <time>2021-05-21T12:39:57Z</time>
      </trkpt>
      <trkpt lat="42.4199930" lon="-8.6365540">
        <ele>22.3</ele>
        <time>2021-05-21T12:39:58Z</time>
      </trkpt>
      <trkpt lat="42.4199950" lon="-8.6365620">
        <ele>22.3</ele>
        <time>2021-05-21T12:39:59Z</time>
      </trkpt>
      <trkpt lat="42.4200000" lon="-8.6365700">
        <ele>22.3</ele>
        <time>2021-05-21T12:40:00Z</time>
      </trkpt>
      <trkpt lat="42.4199980" lon="-8.6365840">
        <ele>22.3</ele>
        <time>2021-05-21T12:40:01Z</time>
      </trkpt>
      <trkpt lat="42.4199930" lon="-8.6365970">
        <ele>22.3</ele>
        <time>2021-05-21T12:40:02Z</time>
      </trkpt>
      <trkpt lat="42.4199880" lon="-8.6366110">
        <ele>22.3</ele>
        <time>2021-05-21T12:40:03Z</time>
      </trkpt>
      <trkpt lat="42.4199830" lon="-8.6366240">
        <ele>22.3</ele>
        <time>2021-05-21T12:40:04Z</time>
      </trkpt>
      <trkpt lat="42.4199780" lon="-8.6366370">
        <ele>22.3</ele>
        <time>2021-05-21T12:40:05Z</time>
      </trkpt>
      <trkpt lat="42.4199780" lon="-8.6366410">
        <ele>22.3</ele>
        <time>2021-05-21T12:40:06Z</time>
      </trkpt>
      <trkpt lat="42.4199730" lon="-8.6366450">
        <ele>22.3</ele>
        <time>2021-05-21T12:40:07Z</time>
      </trkpt>
      <trkpt lat="42.4199710" lon="-8.6366500">
        <ele>22.3</ele>
        <time>2021-05-21T12:40:08Z</time>
      </trkpt>
      <trkpt lat="42.4199760" lon="-8.6366620">
        <ele>22.3</ele>
        <time>2021-05-21T12:40:09Z</time>
      </trkpt>
      <trkpt lat="42.4199760" lon="-8.6366620">
        <ele>22.3</ele>
        <time>2021-05-21T12:40:10Z</time>
      </trkpt>
      <trkpt lat="42.4199760" lon="-8.6366620">
        <ele>22.3</ele>
        <time>2021-05-21T12:40:11Z</time>
      </trkpt>
      <trkpt lat="42.4199710" lon="-8.6366710">
        <ele>22.3</ele>
        <time>2021-05-21T12:40:12Z</time>
      </trkpt>
      <trkpt lat="42.4199680" lon="-8.6366690">
        <ele>22.3</ele>
        <time>2021-05-21T12:40:13Z</time>
      </trkpt>
      <trkpt lat="42.4199630" lon="-8.6366720">
        <ele>22.3</ele>
        <time>2021-05-21T12:40:14Z</time>
      </trkpt>
      <trkpt lat="42.4199570" lon="-8.6366840">
        <ele>22.4</ele>
        <time>2021-05-21T12:40:15Z</time>
      </trkpt>
      <trkpt lat="42.4199520" lon="-8.6366840">
        <ele>22.4</ele>
        <time>2021-05-21T12:40:16Z</time>
      </trkpt>
      <trkpt lat="42.4199510" lon="-8.6366780">
        <ele>22.4</ele>
        <time>2021-05-21T12:40:17Z</time>
      </trkpt>
      <trkpt lat="42.4199500" lon="-8.6366780">
        <ele>22.4</ele>
        <time>2021-05-21T12:40:18Z</time>
      </trkpt>
      <trkpt lat="42.4199490" lon="-8.6366750">
        <ele>22.4</ele>
        <time>2021-05-21T12:40:19Z</time>
      </trkpt>
      <trkpt lat="42.4199460" lon="-8.6366760">
        <ele>22.4</ele>
        <time>2021-05-21T12:40:20Z</time>
      </trkpt>
      <trkpt lat="42.4199430" lon="-8.6366850">
        <ele>22.4</ele>
        <time>2021-05-21T12:40:21Z</time>
      </trkpt>
      <trkpt lat="42.4199360" lon="-8.6366870">
        <ele>22.4</ele>
        <time>2021-05-21T12:40:22Z</time>
      </trkpt>
      <trkpt lat="42.4199310" lon="-8.6366800">
        <ele>22.4</ele>
        <time>2021-05-21T12:40:23Z</time>
      </trkpt>
      <trkpt lat="42.4199330" lon="-8.6366870">
        <ele>22.4</ele>
        <time>2021-05-21T12:40:24Z</time>
      </trkpt>
      <trkpt lat="42.4199230" lon="-8.6366940">
        <ele>22.4</ele>
        <time>2021-05-21T12:40:25Z</time>
      </trkpt>
      <trkpt lat="42.4199220" lon="-8.6367010">
        <ele>22.4</ele>
        <time>2021-05-21T12:40:26Z</time>
      </trkpt>
      <trkpt lat="42.4199080" lon="-8.6367090">
        <ele>22.4</ele>
        <time>2021-05-21T12:40:27Z</time>
      </trkpt>
      <trkpt lat="42.4199030" lon="-8.6367170">
        <ele>22.4</ele>
        <time>2021-05-21T12:40:28Z</time>
      </trkpt>
      <trkpt lat="42.4198930" lon="-8.6367150">
        <ele>22.4</ele>
        <time>2021-05-21T12:40:29Z</time>
      </trkpt>
      <trkpt lat="42.4198930" lon="-8.6367180">
        <ele>22.4</ele>
        <time>2021-05-21T12:40:30Z</time>
      </trkpt>
      <trkpt lat="42.4198920" lon="-8.6367210">
        <ele>22.4</ele>
        <time>2021-05-21T12:40:31Z</time>
      </trkpt>
      <trkpt lat="42.4198910" lon="-8.6367290">
        <ele>22.4</ele>
        <time>2021-05-21T12:40:32Z</time>
      </trkpt>
      <trkpt lat="42.4198930" lon="-8.6367290">
        <ele>22.4</ele>
        <time>2021-05-21T12:40:33Z</time>
      </trkpt>
      <trkpt lat="42.4198890" lon="-8.6367270">
        <ele>22.4</ele>
        <time>2021-05-21T12:40:34Z</time>
      </trkpt>
      <trkpt lat="42.4198800" lon="-8.6367310">
        <ele>22.4</ele>
        <time>2021-05-21T12:40:35Z</time>
      </trkpt>
      <trkpt lat="42.4198810" lon="-8.6367290">
        <ele>22.4</ele>
        <time>2021-05-21T12:40:36Z</time>
      </trkpt>
      <trkpt lat="42.4198810" lon="-8.6367320">
        <ele>22.4</ele>
        <time>2021-05-21T12:40:37Z</time>
      </trkpt>
      <trkpt lat="42.4198820" lon="-8.6367310">
        <ele>22.4</ele>
        <time>2021-05-21T12:40:39Z</time>
      </trkpt>
      <trkpt lat="42.4198870" lon="-8.6367290">
        <ele>22.4</ele>
        <time>2021-05-21T12:40:40Z</time>
      </trkpt>
      <trkpt lat="42.4198900" lon="-8.6367230">
        <ele>22.4</ele>
        <time>2021-05-21T12:40:41Z</time>
      </trkpt>
      <trkpt lat="42.4198860" lon="-8.6367230">
        <ele>22.4</ele>
        <time>2021-05-21T12:40:42Z</time>
      </trkpt>
      <trkpt lat="42.4198860" lon="-8.6367200">
        <ele>22.4</ele>
        <time>2021-05-21T12:40:43Z</time>
      </trkpt>
      <trkpt lat="42.4198840" lon="-8.6367110">
        <ele>22.4</ele>
        <time>2021-05-21T12:40:44Z</time>
      </trkpt>
      <trkpt lat="42.4198790" lon="-8.6367100">
        <ele>22.4</ele>
        <time>2021-05-21T12:40:45Z</time>
      </trkpt>
      <trkpt lat="42.4198720" lon="-8.6367080">
        <ele>22.4</ele>
        <time>2021-05-21T12:40:46Z</time>
      </trkpt>
      <trkpt lat="42.4198770" lon="-8.6367100">
        <ele>22.4</ele>
        <time>2021-05-21T12:40:47Z</time>
      </trkpt>
      <trkpt lat="42.4198880" lon="-8.6366970">
        <ele>22.5</ele>
        <time>2021-05-21T12:40:48Z</time>
      </trkpt>
      <trkpt lat="42.4198980" lon="-8.6367090">
        <ele>22.5</ele>
        <time>2021-05-21T12:40:49Z</time>
      </trkpt>
      <trkpt lat="42.4199060" lon="-8.6366970">
        <ele>22.5</ele>
        <time>2021-05-21T12:40:50Z</time>
      </trkpt>
      <trkpt lat="42.4199380" lon="-8.6366860">
        <ele>22.5</ele>
        <time>2021-05-21T12:40:51Z</time>
      </trkpt>
      <trkpt lat="42.4199500" lon="-8.6366800">
        <ele>22.5</ele>
        <time>2021-05-21T12:40:52Z</time>
      </trkpt>
      <trkpt lat="42.4199830" lon="-8.6366710">
        <ele>22.5</ele>
        <time>2021-05-21T12:40:53Z</time>
      </trkpt>
      <trkpt lat="42.4200170" lon="-8.6366700">
        <ele>22.5</ele>
        <time>2021-05-21T12:40:54Z</time>
      </trkpt>
      <trkpt lat="42.4200260" lon="-8.6366720">
        <ele>22.5</ele>
        <time>2021-05-21T12:40:55Z</time>
      </trkpt>
      <trkpt lat="42.4200550" lon="-8.6366640">
        <ele>22.6</ele>
        <time>2021-05-21T12:40:56Z</time>
      </trkpt>
      <trkpt lat="42.4200640" lon="-8.6366560">
        <ele>22.6</ele>
        <time>2021-05-21T12:40:57Z</time>
      </trkpt>
      <trkpt lat="42.4200890" lon="-8.6366520">
        <ele>22.6</ele>
        <time>2021-05-21T12:40:58Z</time>
      </trkpt>
      <trkpt lat="42.4200980" lon="-8.6366470">
        <ele>22.6</ele>
        <time>2021-05-21T12:40:59Z</time>
      </trkpt>
      <trkpt lat="42.4201080" lon="-8.6366420">
        <ele>22.6</ele>
        <time>2021-05-21T12:41:00Z</time>
      </trkpt>
      <trkpt lat="42.4201400" lon="-8.6366260">
        <ele>22.6</ele>
        <time>2021-05-21T12:41:01Z</time>
      </trkpt>
      <trkpt lat="42.4201500" lon="-8.6366200">
        <ele>22.6</ele>
        <time>2021-05-21T12:41:02Z</time>
      </trkpt>
      <trkpt lat="42.4201610" lon="-8.6366130">
        <ele>22.6</ele>
        <time>2021-05-21T12:41:03Z</time>
      </trkpt>
      <trkpt lat="42.4201640" lon="-8.6366140">
        <ele>22.6</ele>
        <time>2021-05-21T12:41:04Z</time>
      </trkpt>
      <trkpt lat="42.4201710" lon="-8.6366080">
        <ele>22.6</ele>
        <time>2021-05-21T12:41:05Z</time>
      </trkpt>
      <trkpt lat="42.4201790" lon="-8.6366050">
        <ele>22.6</ele>
        <time>2021-05-21T12:41:06Z</time>
      </trkpt>
      <trkpt lat="42.4201820" lon="-8.6366050">
        <ele>22.6</ele>
        <time>2021-05-21T12:41:07Z</time>
      </trkpt>
      <trkpt lat="42.4201820" lon="-8.6366040">
        <ele>22.6</ele>
        <time>2021-05-21T12:41:08Z</time>
      </trkpt>
      <trkpt lat="42.4201870" lon="-8.6365990">
        <ele>22.6</ele>
        <time>2021-05-21T12:41:09Z</time>
      </trkpt>
      <trkpt lat="42.4201940" lon="-8.6365970">
        <ele>22.6</ele>
        <time>2021-05-21T12:41:10Z</time>
      </trkpt>
      <trkpt lat="42.4202020" lon="-8.6365860">
        <ele>22.7</ele>
        <time>2021-05-21T12:41:11Z</time>
      </trkpt>
      <trkpt lat="42.4202120" lon="-8.6365760">
        <ele>22.7</ele>
        <time>2021-05-21T12:41:12Z</time>
      </trkpt>
      <trkpt lat="42.4202260" lon="-8.6365540">
        <ele>22.7</ele>
        <time>2021-05-21T12:41:13Z</time>
      </trkpt>
      <trkpt lat="42.4202330" lon="-8.6365500">
        <ele>22.7</ele>
        <time>2021-05-21T12:41:14Z</time>
      </trkpt>
      <trkpt lat="42.4202460" lon="-8.6365420">
        <ele>22.8</ele>
        <time>2021-05-21T12:41:15Z</time>
      </trkpt>
      <trkpt lat="42.4202540" lon="-8.6365370">
        <ele>22.8</ele>
        <time>2021-05-21T12:41:16Z</time>
      </trkpt>
      <trkpt lat="42.4202680" lon="-8.6365400">
        <ele>22.9</ele>
        <time>2021-05-21T12:41:17Z</time>
      </trkpt>
      <trkpt lat="42.4202720" lon="-8.6365450">
        <ele>22.9</ele>
        <time>2021-05-21T12:41:18Z</time>
      </trkpt>
      <trkpt lat="42.4202780" lon="-8.6365480">
        <ele>22.9</ele>
        <time>2021-05-21T12:41:19Z</time>
      </trkpt>
      <trkpt lat="42.4202840" lon="-8.6365570">
        <ele>23.0</ele>
        <time>2021-05-21T12:41:20Z</time>
      </trkpt>
      <trkpt lat="42.4202950" lon="-8.6365680">
        <ele>23.0</ele>
        <time>2021-05-21T12:41:21Z</time>
      </trkpt>
      <trkpt lat="42.4203080" lon="-8.6365730">
        <ele>23.1</ele>
        <time>2021-05-21T12:41:22Z</time>
      </trkpt>
      <trkpt lat="42.4203140" lon="-8.6365750">
        <ele>23.1</ele>
        <time>2021-05-21T12:41:23Z</time>
      </trkpt>
      <trkpt lat="42.4203250" lon="-8.6365800">
        <ele>23.2</ele>
        <time>2021-05-21T12:41:24Z</time>
      </trkpt>
      <trkpt lat="42.4203400" lon="-8.6365920">
        <ele>23.2</ele>
        <time>2021-05-21T12:41:25Z</time>
      </trkpt>
      <trkpt lat="42.4203470" lon="-8.6365970">
        <ele>23.3</ele>
        <time>2021-05-21T12:41:26Z</time>
      </trkpt>
      <trkpt lat="42.4203590" lon="-8.6365930">
        <ele>23.3</ele>
        <time>2021-05-21T12:41:27Z</time>
      </trkpt>
      <trkpt lat="42.4203760" lon="-8.6365950">
        <ele>23.4</ele>
        <time>2021-05-21T12:41:28Z</time>
      </trkpt>
      <trkpt lat="42.4203840" lon="-8.6366060">
        <ele>23.4</ele>
        <time>2021-05-21T12:41:29Z</time>
      </trkpt>
      <trkpt lat="42.4203930" lon="-8.6366040">
        <ele>23.4</ele>
        <time>2021-05-21T12:41:30Z</time>
      </trkpt>
      <trkpt lat="42.4204030" lon="-8.6365990">
        <ele>23.5</ele>
        <time>2021-05-21T12:41:31Z</time>
      </trkpt>
      <trkpt lat="42.4204280" lon="-8.6365900">
        <ele>23.6</ele>
        <time>2021-05-21T12:41:32Z</time>
      </trkpt>
      <trkpt lat="42.4204390" lon="-8.6365860">
        <ele>23.6</ele>
        <time>2021-05-21T12:41:33Z</time>
      </trkpt>
      <trkpt lat="42.4204500" lon="-8.6365820">
        <ele>23.7</ele>
        <time>2021-05-21T12:41:34Z</time>
      </trkpt>
      <trkpt lat="42.4204710" lon="-8.6365550">
        <ele>23.8</ele>
        <time>2021-05-21T12:41:35Z</time>
      </trkpt>
      <trkpt lat="42.4204920" lon="-8.6365470">
        <ele>23.8</ele>
        <time>2021-05-21T12:41:36Z</time>
      </trkpt>
      <trkpt lat="42.4205060" lon="-8.6365450">
        <ele>23.9</ele>
        <time>2021-05-21T12:41:37Z</time>
      </trkpt>
      <trkpt lat="42.4205190" lon="-8.6365420">
        <ele>23.9</ele>
        <time>2021-05-21T12:41:38Z</time>
      </trkpt>
      <trkpt lat="42.4205350" lon="-8.6365430">
        <ele>24.0</ele>
        <time>2021-05-21T12:41:39Z</time>
      </trkpt>
      <trkpt lat="42.4205480" lon="-8.6365360">
        <ele>24.0</ele>
        <time>2021-05-21T12:41:40Z</time>
      </trkpt>
      <trkpt lat="42.4205670" lon="-8.6365320">
        <ele>24.1</ele>
        <time>2021-05-21T12:41:41Z</time>
      </trkpt>
      <trkpt lat="42.4205790" lon="-8.6365310">
        <ele>24.1</ele>
        <time>2021-05-21T12:41:42Z</time>
      </trkpt>
      <trkpt lat="42.4205900" lon="-8.6365300">
        <ele>24.2</ele>
        <time>2021-05-21T12:41:43Z</time>
      </trkpt>
      <trkpt lat="42.4205970" lon="-8.6365370">
        <ele>24.2</ele>
        <time>2021-05-21T12:41:44Z</time>
      </trkpt>
      <trkpt lat="42.4205920" lon="-8.6365310">
        <ele>24.2</ele>
        <time>2021-05-21T12:41:45Z</time>
      </trkpt>
      <trkpt lat="42.4205970" lon="-8.6365270">
        <ele>24.2</ele>
        <time>2021-05-21T12:41:46Z</time>
      </trkpt>
      <trkpt lat="42.4206050" lon="-8.6365240">
        <ele>24.2</ele>
        <time>2021-05-21T12:41:47Z</time>
      </trkpt>
      <trkpt lat="42.4206110" lon="-8.6365130">
        <ele>24.3</ele>
        <time>2021-05-21T12:41:48Z</time>
      </trkpt>
      <trkpt lat="42.4206190" lon="-8.6365060">
        <ele>24.3</ele>
        <time>2021-05-21T12:41:49Z</time>
      </trkpt>
      <trkpt lat="42.4206270" lon="-8.6365040">
        <ele>24.3</ele>
        <time>2021-05-21T12:41:50Z</time>
      </trkpt>
      <trkpt lat="42.4206360" lon="-8.6365020">
        <ele>24.4</ele>
        <time>2021-05-21T12:41:51Z</time>
      </trkpt>
      <trkpt lat="42.4206410" lon="-8.6365020">
        <ele>24.4</ele>
        <time>2021-05-21T12:41:52Z</time>
      </trkpt>
      <trkpt lat="42.4206480" lon="-8.6365020">
        <ele>24.4</ele>
        <time>2021-05-21T12:41:53Z</time>
      </trkpt>
      <trkpt lat="42.4206550" lon="-8.6364940">
        <ele>24.4</ele>
        <time>2021-05-21T12:41:54Z</time>
      </trkpt>
      <trkpt lat="42.4206630" lon="-8.6364910">
        <ele>24.5</ele>
        <time>2021-05-21T12:41:55Z</time>
      </trkpt>
      <trkpt lat="42.4206710" lon="-8.6364830">
        <ele>24.5</ele>
        <time>2021-05-21T12:41:56Z</time>
      </trkpt>
      <trkpt lat="42.4206780" lon="-8.6364790">
        <ele>24.5</ele>
        <time>2021-05-21T12:41:57Z</time>
      </trkpt>
      <trkpt lat="42.4206880" lon="-8.6364780">
        <ele>24.5</ele>
        <time>2021-05-21T12:41:58Z</time>
      </trkpt>
      <trkpt lat="42.4206940" lon="-8.6364820">
        <ele>24.6</ele>
        <time>2021-05-21T12:41:59Z</time>
      </trkpt>
      <trkpt lat="42.4207020" lon="-8.6364860">
        <ele>24.6</ele>
        <time>2021-05-21T12:42:00Z</time>
      </trkpt>
      <trkpt lat="42.4207170" lon="-8.6364860">
        <ele>24.6</ele>
        <time>2021-05-21T12:42:01Z</time>
      </trkpt>
      <trkpt lat="42.4207390" lon="-8.6364740">
        <ele>24.7</ele>
        <time>2021-05-21T12:42:02Z</time>
      </trkpt>
      <trkpt lat="42.4207490" lon="-8.6364710">
        <ele>24.7</ele>
        <time>2021-05-21T12:42:03Z</time>
      </trkpt>
      <trkpt lat="42.4207640" lon="-8.6364630">
        <ele>24.8</ele>
        <time>2021-05-21T12:42:04Z</time>
      </trkpt>
      <trkpt lat="42.4207700" lon="-8.6364600">
        <ele>24.8</ele>
        <time>2021-05-21T12:42:05Z</time>
      </trkpt>
      <trkpt lat="42.4207790" lon="-8.6364560">
        <ele>24.8</ele>
        <time>2021-05-21T12:42:06Z</time>
      </trkpt>
      <trkpt lat="42.4207970" lon="-8.6364580">
        <ele>24.9</ele>
        <time>2021-05-21T12:42:07Z</time>
      </trkpt>
      <trkpt lat="42.4208000" lon="-8.6364510">
        <ele>24.9</ele>
        <time>2021-05-21T12:42:08Z</time>
      </trkpt>
      <trkpt lat="42.4208070" lon="-8.6364470">
        <ele>24.9</ele>
        <time>2021-05-21T12:42:09Z</time>
      </trkpt>
      <trkpt lat="42.4208250" lon="-8.6364440">
        <ele>25.0</ele>
        <time>2021-05-21T12:42:10Z</time>
      </trkpt>
      <trkpt lat="42.4208330" lon="-8.6364350">
        <ele>25.0</ele>
        <time>2021-05-21T12:42:11Z</time>
      </trkpt>
      <trkpt lat="42.4208430" lon="-8.6364320">
        <ele>25.0</ele>
        <time>2021-05-21T12:42:12Z</time>
      </trkpt>
      <trkpt lat="42.4208560" lon="-8.6364340">
        <ele>25.1</ele>
        <time>2021-05-21T12:42:13Z</time>
      </trkpt>
      <trkpt lat="42.4208610" lon="-8.6364340">
        <ele>25.1</ele>
        <time>2021-05-21T12:42:14Z</time>
      </trkpt>
      <trkpt lat="42.4208770" lon="-8.6364330">
        <ele>25.1</ele>
        <time>2021-05-21T12:42:15Z</time>
      </trkpt>
      <trkpt lat="42.4208870" lon="-8.6364300">
        <ele>25.2</ele>
        <time>2021-05-21T12:42:16Z</time>
      </trkpt>
      <trkpt lat="42.4208930" lon="-8.6364330">
        <ele>25.2</ele>
        <time>2021-05-21T12:42:17Z</time>
      </trkpt>
      <trkpt lat="42.4209140" lon="-8.6364250">
        <ele>25.2</ele>
        <time>2021-05-21T12:42:18Z</time>
      </trkpt>
      <trkpt lat="42.4209210" lon="-8.6364220">
        <ele>25.2</ele>
        <time>2021-05-21T12:42:19Z</time>
      </trkpt>
      <trkpt lat="42.4209280" lon="-8.6364200">
        <ele>25.3</ele>
        <time>2021-05-21T12:42:20Z</time>
      </trkpt>
      <trkpt lat="42.4209360" lon="-8.6364190">
        <ele>25.3</ele>
        <time>2021-05-21T12:42:21Z</time>
      </trkpt>
      <trkpt lat="42.4209430" lon="-8.6364180">
        <ele>25.3</ele>
        <time>2021-05-21T12:42:22Z</time>
      </trkpt>
      <trkpt lat="42.4209550" lon="-8.6364120">
        <ele>25.3</ele>
        <time>2021-05-21T12:42:23Z</time>
      </trkpt>
      <trkpt lat="42.4209720" lon="-8.6364100">
        <ele>25.3</ele>
        <time>2021-05-21T12:42:24Z</time>
      </trkpt>
      <trkpt lat="42.4209780" lon="-8.6364100">
        <ele>25.4</ele>
        <time>2021-05-21T12:42:25Z</time>
      </trkpt>
      <trkpt lat="42.4209820" lon="-8.6364110">
        <ele>25.4</ele>
        <time>2021-05-21T12:42:26Z</time>
      </trkpt>
      <trkpt lat="42.4209890" lon="-8.6364110">
        <ele>25.4</ele>
        <time>2021-05-21T12:42:27Z</time>
      </trkpt>
      <trkpt lat="42.4210020" lon="-8.6364080">
        <ele>25.4</ele>
        <time>2021-05-21T12:42:28Z</time>
      </trkpt>
      <trkpt lat="42.4210100" lon="-8.6364010">
        <ele>25.4</ele>
        <time>2021-05-21T12:42:30Z</time>
      </trkpt>
      <trkpt lat="42.4210210" lon="-8.6363950">
        <ele>25.5</ele>
        <time>2021-05-21T12:42:31Z</time>
      </trkpt>
      <trkpt lat="42.4210370" lon="-8.6363940">
        <ele>25.5</ele>
        <time>2021-05-21T12:42:32Z</time>
      </trkpt>
      <trkpt lat="42.4210480" lon="-8.6363920">
        <ele>25.5</ele>
        <time>2021-05-21T12:42:33Z</time>
      </trkpt>
      <trkpt lat="42.4210600" lon="-8.6363970">
        <ele>25.5</ele>
        <time>2021-05-21T12:42:34Z</time>
      </trkpt>
      <trkpt lat="42.4210660" lon="-8.6363890">
        <ele>25.5</ele>
        <time>2021-05-21T12:42:35Z</time>
      </trkpt>
      <trkpt lat="42.4210760" lon="-8.6363840">
        <ele>25.5</ele>
        <time>2021-05-21T12:42:36Z</time>
      </trkpt>
      <trkpt lat="42.4210790" lon="-8.6363790">
        <ele>25.5</ele>
        <time>2021-05-21T12:42:37Z</time>
      </trkpt>
      <trkpt lat="42.4210880" lon="-8.6363820">
        <ele>25.6</ele>
        <time>2021-05-21T12:42:38Z</time>
      </trkpt>
      <trkpt lat="42.4210930" lon="-8.6363780">
        <ele>25.6</ele>
        <time>2021-05-21T12:42:39Z</time>
      </trkpt>
      <trkpt lat="42.4210980" lon="-8.6363770">
        <ele>25.6</ele>
        <time>2021-05-21T12:42:40Z</time>
      </trkpt>
      <trkpt lat="42.4211050" lon="-8.6363750">
        <ele>25.6</ele>
        <time>2021-05-21T12:42:41Z</time>
      </trkpt>
      <trkpt lat="42.4211130" lon="-8.6363720">
        <ele>25.6</ele>
        <time>2021-05-21T12:42:42Z</time>
      </trkpt>
      <trkpt lat="42.4211220" lon="-8.6363670">
        <ele>25.6</ele>
        <time>2021-05-21T12:42:43Z</time>
      </trkpt>
      <trkpt lat="42.4211350" lon="-8.6363710">
        <ele>25.6</ele>
        <time>2021-05-21T12:42:44Z</time>
      </trkpt>
      <trkpt lat="42.4211460" lon="-8.6363650">
        <ele>25.7</ele>
        <time>2021-05-21T12:42:45Z</time>
      </trkpt>
      <trkpt lat="42.4211520" lon="-8.6363540">
        <ele>25.7</ele>
        <time>2021-05-21T12:42:46Z</time>
      </trkpt>
      <trkpt lat="42.4211640" lon="-8.6363530">
        <ele>25.7</ele>
        <time>2021-05-21T12:42:47Z</time>
      </trkpt>
      <trkpt lat="42.4211700" lon="-8.6363420">
        <ele>25.7</ele>
        <time>2021-05-21T12:42:48Z</time>
      </trkpt>
      <trkpt lat="42.4211810" lon="-8.6363420">
        <ele>25.7</ele>
        <time>2021-05-21T12:42:49Z</time>
      </trkpt>
      <trkpt lat="42.4211880" lon="-8.6363380">
        <ele>25.7</ele>
        <time>2021-05-21T12:42:50Z</time>
      </trkpt>
      <trkpt lat="42.4212010" lon="-8.6363320">
        <ele>25.7</ele>
        <time>2021-05-21T12:42:51Z</time>
      </trkpt>
      <trkpt lat="42.4212110" lon="-8.6363280">
        <ele>25.7</ele>
        <time>2021-05-21T12:42:52Z</time>
      </trkpt>
      <trkpt lat="42.4212160" lon="-8.6363230">
        <ele>25.7</ele>
        <time>2021-05-21T12:42:53Z</time>
      </trkpt>
      <trkpt lat="42.4212260" lon="-8.6363170">
        <ele>25.7</ele>
        <time>2021-05-21T12:42:54Z</time>
      </trkpt>
      <trkpt lat="42.4212420" lon="-8.6363140">
        <ele>25.8</ele>
        <time>2021-05-21T12:42:55Z</time>
      </trkpt>
      <trkpt lat="42.4212540" lon="-8.6363160">
        <ele>25.8</ele>
        <time>2021-05-21T12:42:56Z</time>
      </trkpt>
      <trkpt lat="42.4212620" lon="-8.6363170">
        <ele>25.8</ele>
        <time>2021-05-21T12:42:57Z</time>
      </trkpt>
      <trkpt lat="42.4212680" lon="-8.6363170">
        <ele>25.8</ele>
        <time>2021-05-21T12:42:58Z</time>
      </trkpt>
      <trkpt lat="42.4212790" lon="-8.6363130">
        <ele>25.8</ele>
        <time>2021-05-21T12:42:59Z</time>
      </trkpt>
      <trkpt lat="42.4212840" lon="-8.6363150">
        <ele>25.8</ele>
        <time>2021-05-21T12:43:00Z</time>
      </trkpt>
      <trkpt lat="42.4212860" lon="-8.6363230">
        <ele>25.8</ele>
        <time>2021-05-21T12:43:01Z</time>
      </trkpt>
      <trkpt lat="42.4212980" lon="-8.6363270">
        <ele>25.8</ele>
        <time>2021-05-21T12:43:02Z</time>
      </trkpt>
      <trkpt lat="42.4213040" lon="-8.6363280">
        <ele>25.8</ele>
        <time>2021-05-21T12:43:03Z</time>
      </trkpt>
      <trkpt lat="42.4213080" lon="-8.6363290">
        <ele>25.8</ele>
        <time>2021-05-21T12:43:04Z</time>
      </trkpt>
      <trkpt lat="42.4213160" lon="-8.6363360">
        <ele>25.8</ele>
        <time>2021-05-21T12:43:05Z</time>
      </trkpt>
      <trkpt lat="42.4213200" lon="-8.6363370">
        <ele>25.8</ele>
        <time>2021-05-21T12:43:06Z</time>
      </trkpt>
      <trkpt lat="42.4213330" lon="-8.6363410">
        <ele>25.9</ele>
        <time>2021-05-21T12:43:07Z</time>
      </trkpt>
      <trkpt lat="42.4213550" lon="-8.6363370">
        <ele>25.9</ele>
        <time>2021-05-21T12:43:08Z</time>
      </trkpt>
      <trkpt lat="42.4213630" lon="-8.6363360">
        <ele>25.9</ele>
        <time>2021-05-21T12:43:09Z</time>
      </trkpt>
      <trkpt lat="42.4213720" lon="-8.6363360">
        <ele>25.9</ele>
        <time>2021-05-21T12:43:10Z</time>
      </trkpt>
      <trkpt lat="42.4213790" lon="-8.6363420">
        <ele>25.9</ele>
        <time>2021-05-21T12:43:11Z</time>
      </trkpt>
      <trkpt lat="42.4213880" lon="-8.6363370">
        <ele>25.9</ele>
        <time>2021-05-21T12:43:12Z</time>
      </trkpt>
      <trkpt lat="42.4213930" lon="-8.6363350">
        <ele>25.9</ele>
        <time>2021-05-21T12:43:13Z</time>
      </trkpt>
      <trkpt lat="42.4214050" lon="-8.6363360">
        <ele>25.9</ele>
        <time>2021-05-21T12:43:14Z</time>
      </trkpt>
      <trkpt lat="42.4214170" lon="-8.6363460">
        <ele>25.9</ele>
        <time>2021-05-21T12:43:15Z</time>
      </trkpt>
      <trkpt lat="42.4214300" lon="-8.6363470">
        <ele>25.9</ele>
        <time>2021-05-21T12:43:16Z</time>
      </trkpt>
      <trkpt lat="42.4214400" lon="-8.6363490">
        <ele>25.9</ele>
        <time>2021-05-21T12:43:17Z</time>
      </trkpt>
      <trkpt lat="42.4214450" lon="-8.6363480">
        <ele>25.9</ele>
        <time>2021-05-21T12:43:18Z</time>
      </trkpt>
      <trkpt lat="42.4214490" lon="-8.6363390">
        <ele>25.9</ele>
        <time>2021-05-21T12:43:19Z</time>
      </trkpt>
      <trkpt lat="42.4214570" lon="-8.6363420">
        <ele>26.0</ele>
        <time>2021-05-21T12:43:20Z</time>
      </trkpt>
      <trkpt lat="42.4214680" lon="-8.6363410">
        <ele>26.0</ele>
        <time>2021-05-21T12:43:21Z</time>
      </trkpt>
      <trkpt lat="42.4214820" lon="-8.6363400">
        <ele>26.0</ele>
        <time>2021-05-21T12:43:22Z</time>
      </trkpt>
      <trkpt lat="42.4214890" lon="-8.6363400">
        <ele>26.0</ele>
        <time>2021-05-21T12:43:23Z</time>
      </trkpt>
      <trkpt lat="42.4215010" lon="-8.6363400">
        <ele>26.0</ele>
        <time>2021-05-21T12:43:24Z</time>
      </trkpt>
      <trkpt lat="42.4215100" lon="-8.6363430">
        <ele>26.0</ele>
        <time>2021-05-21T12:43:25Z</time>
      </trkpt>
      <trkpt lat="42.4215190" lon="-8.6363410">
        <ele>26.0</ele>
        <time>2021-05-21T12:43:26Z</time>
      </trkpt>
      <trkpt lat="42.4215300" lon="-8.6363420">
        <ele>26.0</ele>
        <time>2021-05-21T12:43:27Z</time>
      </trkpt>
      <trkpt lat="42.4215400" lon="-8.6363420">
        <ele>26.0</ele>
        <time>2021-05-21T12:43:28Z</time>
      </trkpt>
      <trkpt lat="42.4215510" lon="-8.6363410">
        <ele>26.0</ele>
        <time>2021-05-21T12:43:29Z</time>
      </trkpt>
      <trkpt lat="42.4215610" lon="-8.6363370">
        <ele>26.0</ele>
        <time>2021-05-21T12:43:30Z</time>
      </trkpt>
      <trkpt lat="42.4215680" lon="-8.6363360">
        <ele>26.0</ele>
        <time>2021-05-21T12:43:31Z</time>
      </trkpt>
      <trkpt lat="42.4215740" lon="-8.6363250">
        <ele>26.0</ele>
        <time>2021-05-21T12:43:32Z</time>
      </trkpt>
      <trkpt lat="42.4215760" lon="-8.6363140">
        <ele>26.0</ele>
        <time>2021-05-21T12:43:33Z</time>
      </trkpt>
      <trkpt lat="42.4215810" lon="-8.6363070">
        <ele>26.0</ele>
        <time>2021-05-21T12:43:34Z</time>
      </trkpt>
      <trkpt lat="42.4215910" lon="-8.6362990">
        <ele>26.0</ele>
        <time>2021-05-21T12:43:35Z</time>
      </trkpt>
      <trkpt lat="42.4215970" lon="-8.6362870">
        <ele>25.9</ele>
        <time>2021-05-21T12:43:36Z</time>
      </trkpt>
      <trkpt lat="42.4216060" lon="-8.6362790">
        <ele>25.9</ele>
        <time>2021-05-21T12:43:37Z</time>
      </trkpt>
      <trkpt lat="42.4216160" lon="-8.6362700">
        <ele>25.9</ele>
        <time>2021-05-21T12:43:38Z</time>
      </trkpt>
      <trkpt lat="42.4216240" lon="-8.6362610">
        <ele>25.9</ele>
        <time>2021-05-21T12:43:39Z</time>
      </trkpt>
      <trkpt lat="42.4216330" lon="-8.6362580">
        <ele>25.9</ele>
        <time>2021-05-21T12:43:40Z</time>
      </trkpt>
      <trkpt lat="42.4216470" lon="-8.6362560">
        <ele>25.9</ele>
        <time>2021-05-21T12:43:41Z</time>
      </trkpt>
      <trkpt lat="42.4216450" lon="-8.6362570">
        <ele>25.9</ele>
        <time>2021-05-21T12:43:42Z</time>
      </trkpt>
      <trkpt lat="42.4216460" lon="-8.6362550">
        <ele>25.9</ele>
        <time>2021-05-21T12:43:43Z</time>
      </trkpt>
      <trkpt lat="42.4216530" lon="-8.6362590">
        <ele>25.9</ele>
        <time>2021-05-21T12:43:44Z</time>
      </trkpt>
      <trkpt lat="42.4216620" lon="-8.6362620">
        <ele>25.9</ele>
        <time>2021-05-21T12:43:45Z</time>
      </trkpt>
      <trkpt lat="42.4216740" lon="-8.6362620">
        <ele>25.9</ele>
        <time>2021-05-21T12:43:46Z</time>
      </trkpt>
      <trkpt lat="42.4216830" lon="-8.6362640">
        <ele>25.9</ele>
        <time>2021-05-21T12:43:47Z</time>
      </trkpt>
      <trkpt lat="42.4216920" lon="-8.6362660">
        <ele>25.9</ele>
        <time>2021-05-21T12:43:48Z</time>
      </trkpt>
      <trkpt lat="42.4217010" lon="-8.6362680">
        <ele>25.9</ele>
        <time>2021-05-21T12:43:49Z</time>
      </trkpt>
      <trkpt lat="42.4217070" lon="-8.6362780">
        <ele>25.9</ele>
        <time>2021-05-21T12:43:50Z</time>
      </trkpt>
      <trkpt lat="42.4217190" lon="-8.6362890">
        <ele>25.9</ele>
        <time>2021-05-21T12:43:51Z</time>
      </trkpt>
      <trkpt lat="42.4217290" lon="-8.6362990">
        <ele>25.9</ele>
        <time>2021-05-21T12:43:52Z</time>
      </trkpt>
      <trkpt lat="42.4217420" lon="-8.6363150">
        <ele>25.9</ele>
        <time>2021-05-21T12:43:53Z</time>
      </trkpt>
      <trkpt lat="42.4217510" lon="-8.6363280">
        <ele>25.9</ele>
        <time>2021-05-21T12:43:54Z</time>
      </trkpt>
      <trkpt lat="42.4217600" lon="-8.6363410">
        <ele>25.9</ele>
        <time>2021-05-21T12:43:55Z</time>
      </trkpt>
      <trkpt lat="42.4217740" lon="-8.6363530">
        <ele>25.7</ele>
        <time>2021-05-21T12:43:56Z</time>
      </trkpt>
      <trkpt lat="42.4217840" lon="-8.6363640">
        <ele>25.7</ele>
        <time>2021-05-21T12:43:57Z</time>
      </trkpt>
      <trkpt lat="42.4218180" lon="-8.6363820">
        <ele>25.7</ele>
        <time>2021-05-21T12:43:58Z</time>
      </trkpt>
      <trkpt lat="42.4218270" lon="-8.6363890">
        <ele>25.7</ele>
        <time>2021-05-21T12:43:59Z</time>
      </trkpt>
      <trkpt lat="42.4218390" lon="-8.6363940">
        <ele>25.7</ele>
        <time>2021-05-21T12:44:00Z</time>
      </trkpt>
      <trkpt lat="42.4218590" lon="-8.6363920">
        <ele>25.7</ele>
        <time>2021-05-21T12:44:01Z</time>
      </trkpt>
      <trkpt lat="42.4218790" lon="-8.6364000">
        <ele>25.6</ele>
        <time>2021-05-21T12:44:02Z</time>
      </trkpt>
      <trkpt lat="42.4218880" lon="-8.6364000">
        <ele>25.6</ele>
        <time>2021-05-21T12:44:03Z</time>
      </trkpt>
      <trkpt lat="42.4218980" lon="-8.6364000">
        <ele>25.6</ele>
        <time>2021-05-21T12:44:04Z</time>
      </trkpt>
      <trkpt lat="42.4219230" lon="-8.6363910">
        <ele>25.6</ele>
        <time>2021-05-21T12:44:05Z</time>
      </trkpt>
      <trkpt lat="42.4219360" lon="-8.6363810">
        <ele>25.6</ele>
        <time>2021-05-21T12:44:06Z</time>
      </trkpt>
      <trkpt lat="42.4219390" lon="-8.6363750">
        <ele>25.6</ele>
        <time>2021-05-21T12:44:07Z</time>
      </trkpt>
      <trkpt lat="42.4219430" lon="-8.6363770">
        <ele>25.6</ele>
        <time>2021-05-21T12:44:08Z</time>
      </trkpt>
      <trkpt lat="42.4219510" lon="-8.6363720">
        <ele>25.5</ele>
        <time>2021-05-21T12:44:09Z</time>
      </trkpt>
      <trkpt lat="42.4219550" lon="-8.6363760">
        <ele>25.5</ele>
        <time>2021-05-21T12:44:10Z</time>
      </trkpt>
      <trkpt lat="42.4219630" lon="-8.6363690">
        <ele>25.5</ele>
        <time>2021-05-21T12:44:11Z</time>
      </trkpt>
      <trkpt lat="42.4219720" lon="-8.6363680">
        <ele>25.5</ele>
        <time>2021-05-21T12:44:12Z</time>
      </trkpt>
      <trkpt lat="42.4219740" lon="-8.6363660">
        <ele>25.5</ele>
        <time>2021-05-21T12:44:13Z</time>
      </trkpt>
      <trkpt lat="42.4219850" lon="-8.6363590">
        <ele>25.5</ele>
        <time>2021-05-21T12:44:14Z</time>
      </trkpt>
      <trkpt lat="42.4219980" lon="-8.6363540">
        <ele>25.5</ele>
        <time>2021-05-21T12:44:15Z</time>
      </trkpt>
      <trkpt lat="42.4220150" lon="-8.6363490">
        <ele>25.5</ele>
        <time>2021-05-21T12:44:16Z</time>
      </trkpt>
      <trkpt lat="42.4220230" lon="-8.6363520">
        <ele>25.5</ele>
        <time>2021-05-21T12:44:17Z</time>
      </trkpt>
      <trkpt lat="42.4220270" lon="-8.6363550">
        <ele>25.5</ele>
        <time>2021-05-21T12:44:18Z</time>
      </trkpt>
      <trkpt lat="42.4220270" lon="-8.6363700">
        <ele>25.5</ele>
        <time>2021-05-21T12:44:19Z</time>
      </trkpt>
      <trkpt lat="42.4220250" lon="-8.6363810">
        <ele>25.5</ele>
        <time>2021-05-21T12:44:20Z</time>
      </trkpt>
      <trkpt lat="42.4220210" lon="-8.6363920">
        <ele>25.5</ele>
        <time>2021-05-21T12:44:21Z</time>
      </trkpt>
      <trkpt lat="42.4220180" lon="-8.6363970">
        <ele>25.5</ele>
        <time>2021-05-21T12:44:22Z</time>
      </trkpt>
      <trkpt lat="42.4220180" lon="-8.6364070">
        <ele>25.5</ele>
        <time>2021-05-21T12:44:23Z</time>
      </trkpt>
      <trkpt lat="42.4220230" lon="-8.6364120">
        <ele>25.5</ele>
        <time>2021-05-21T12:44:24Z</time>
      </trkpt>
      <trkpt lat="42.4220240" lon="-8.6364210">
        <ele>25.5</ele>
        <time>2021-05-21T12:44:25Z</time>
      </trkpt>
      <trkpt lat="42.4220260" lon="-8.6364200">
        <ele>25.5</ele>
        <time>2021-05-21T12:44:26Z</time>
      </trkpt>
      <trkpt lat="42.4220270" lon="-8.6364250">
        <ele>25.5</ele>
        <time>2021-05-21T12:44:27Z</time>
      </trkpt>
      <trkpt lat="42.4220200" lon="-8.6364260">
        <ele>25.5</ele>
        <time>2021-05-21T12:44:28Z</time>
      </trkpt>
      <trkpt lat="42.4220210" lon="-8.6364390">
        <ele>25.5</ele>
        <time>2021-05-21T12:44:29Z</time>
      </trkpt>
      <trkpt lat="42.4220240" lon="-8.6364420">
        <ele>25.4</ele>
        <time>2021-05-21T12:44:30Z</time>
      </trkpt>
      <trkpt lat="42.4220280" lon="-8.6364310">
        <ele>25.4</ele>
        <time>2021-05-21T12:44:31Z</time>
      </trkpt>
      <trkpt lat="42.4220270" lon="-8.6364310">
        <ele>25.4</ele>
        <time>2021-05-21T12:44:32Z</time>
      </trkpt>
      <trkpt lat="42.4220280" lon="-8.6364220">
        <ele>25.4</ele>
        <time>2021-05-21T12:44:33Z</time>
      </trkpt>
      <trkpt lat="42.4220260" lon="-8.6364230">
        <ele>25.4</ele>
        <time>2021-05-21T12:44:34Z</time>
      </trkpt>
      <trkpt lat="42.4220220" lon="-8.6364210">
        <ele>25.4</ele>
        <time>2021-05-21T12:44:35Z</time>
      </trkpt>
      <trkpt lat="42.4220160" lon="-8.6364270">
        <ele>25.4</ele>
        <time>2021-05-21T12:44:36Z</time>
      </trkpt>
      <trkpt lat="42.4220120" lon="-8.6364270">
        <ele>25.4</ele>
        <time>2021-05-21T12:44:37Z</time>
      </trkpt>
      <trkpt lat="42.4220080" lon="-8.6364320">
        <ele>25.4</ele>
        <time>2021-05-21T12:44:38Z</time>
      </trkpt>
      <trkpt lat="42.4220080" lon="-8.6364310">
        <ele>25.4</ele>
        <time>2021-05-21T12:44:39Z</time>
      </trkpt>
      <trkpt lat="42.4220070" lon="-8.6364360">
        <ele>25.4</ele>
        <time>2021-05-21T12:44:40Z</time>
      </trkpt>
      <trkpt lat="42.4220100" lon="-8.6364550">
        <ele>25.4</ele>
        <time>2021-05-21T12:44:41Z</time>
      </trkpt>
      <trkpt lat="42.4220090" lon="-8.6364680">
        <ele>25.4</ele>
        <time>2021-05-21T12:44:42Z</time>
      </trkpt>
      <trkpt lat="42.4220090" lon="-8.6364790">
        <ele>25.4</ele>
        <time>2021-05-21T12:44:43Z</time>
      </trkpt>
      <trkpt lat="42.4220080" lon="-8.6364930">
        <ele>25.4</ele>
        <time>2021-05-21T12:44:44Z</time>
      </trkpt>
      <trkpt lat="42.4220130" lon="-8.6365030">
        <ele>25.4</ele>
        <time>2021-05-21T12:44:45Z</time>
      </trkpt>
      <trkpt lat="42.4220180" lon="-8.6365080">
        <ele>25.4</ele>
        <time>2021-05-21T12:44:46Z</time>
      </trkpt>
      <trkpt lat="42.4220230" lon="-8.6365220">
        <ele>25.4</ele>
        <time>2021-05-21T12:44:47Z</time>
      </trkpt>
      <trkpt lat="42.4220290" lon="-8.6365290">
        <ele>25.4</ele>
        <time>2021-05-21T12:44:48Z</time>
      </trkpt>
      <trkpt lat="42.4220340" lon="-8.6365330">
        <ele>25.4</ele>
        <time>2021-05-21T12:44:49Z</time>
      </trkpt>
      <trkpt lat="42.4220410" lon="-8.6365310">
        <ele>25.4</ele>
        <time>2021-05-21T12:44:50Z</time>
      </trkpt>
      <trkpt lat="42.4220500" lon="-8.6365300">
        <ele>25.4</ele>
        <time>2021-05-21T12:44:51Z</time>
      </trkpt>
      <trkpt lat="42.4220610" lon="-8.6365310">
        <ele>25.4</ele>
        <time>2021-05-21T12:44:52Z</time>
      </trkpt>
      <trkpt lat="42.4220640" lon="-8.6365320">
        <ele>25.3</ele>
        <time>2021-05-21T12:44:53Z</time>
      </trkpt>
      <trkpt lat="42.4220710" lon="-8.6365380">
        <ele>25.3</ele>
        <time>2021-05-21T12:44:54Z</time>
      </trkpt>
      <trkpt lat="42.4220810" lon="-8.6365330">
        <ele>25.3</ele>
        <time>2021-05-21T12:44:55Z</time>
      </trkpt>
      <trkpt lat="42.4220880" lon="-8.6365300">
        <ele>25.3</ele>
        <time>2021-05-21T12:44:56Z</time>
      </trkpt>
      <trkpt lat="42.4220970" lon="-8.6365270">
        <ele>25.3</ele>
        <time>2021-05-21T12:44:57Z</time>
      </trkpt>
      <trkpt lat="42.4221130" lon="-8.6365250">
        <ele>25.3</ele>
        <time>2021-05-21T12:44:58Z</time>
      </trkpt>
      <trkpt lat="42.4221200" lon="-8.6365190">
        <ele>25.2</ele>
        <time>2021-05-21T12:44:59Z</time>
      </trkpt>
      <trkpt lat="42.4221200" lon="-8.6365170">
        <ele>25.2</ele>
        <time>2021-05-21T12:45:00Z</time>
      </trkpt>
      <trkpt lat="42.4221380" lon="-8.6365190">
        <ele>25.2</ele>
        <time>2021-05-21T12:45:01Z</time>
      </trkpt>
      <trkpt lat="42.4221370" lon="-8.6365230">
        <ele>25.2</ele>
        <time>2021-05-21T12:45:02Z</time>
      </trkpt>
      <trkpt lat="42.4221440" lon="-8.6365190">
        <ele>25.2</ele>
        <time>2021-05-21T12:45:03Z</time>
      </trkpt>
      <trkpt lat="42.4221470" lon="-8.6365240">
        <ele>25.2</ele>
        <time>2021-05-21T12:45:04Z</time>
      </trkpt>
      <trkpt lat="42.4221620" lon="-8.6365260">
        <ele>25.2</ele>
        <time>2021-05-21T12:45:05Z</time>
      </trkpt>
      <trkpt lat="42.4221730" lon="-8.6365210">
        <ele>25.1</ele>
        <time>2021-05-21T12:45:06Z</time>
      </trkpt>
      <trkpt lat="42.4221950" lon="-8.6365260">
        <ele>25.1</ele>
        <time>2021-05-21T12:45:07Z</time>
      </trkpt>
      <trkpt lat="42.4222060" lon="-8.6365340">
        <ele>25.1</ele>
        <time>2021-05-21T12:45:08Z</time>
      </trkpt>
      <trkpt lat="42.4222430" lon="-8.6365450">
        <ele>25.0</ele>
        <time>2021-05-21T12:45:09Z</time>
      </trkpt>
      <trkpt lat="42.4222560" lon="-8.6365500">
        <ele>25.0</ele>
        <time>2021-05-21T12:45:10Z</time>
      </trkpt>
      <trkpt lat="42.4222910" lon="-8.6365600">
        <ele>24.9</ele>
        <time>2021-05-21T12:45:11Z</time>
      </trkpt>
      <trkpt lat="42.4223040" lon="-8.6365630">
        <ele>24.9</ele>
        <time>2021-05-21T12:45:12Z</time>
      </trkpt>
      <trkpt lat="42.4223120" lon="-8.6365740">
        <ele>24.9</ele>
        <time>2021-05-21T12:45:13Z</time>
      </trkpt>
      <trkpt lat="42.4223190" lon="-8.6365860">
        <ele>24.8</ele>
        <time>2021-05-21T12:45:14Z</time>
      </trkpt>
      <trkpt lat="42.4223160" lon="-8.6365880">
        <ele>24.8</ele>
        <time>2021-05-21T12:45:15Z</time>
      </trkpt>
      <trkpt lat="42.4223200" lon="-8.6366030">
        <ele>24.8</ele>
        <time>2021-05-21T12:45:16Z</time>
      </trkpt>
      <trkpt lat="42.4223150" lon="-8.6366100">
        <ele>24.8</ele>
        <time>2021-05-21T12:45:17Z</time>
      </trkpt>
      <trkpt lat="42.4223130" lon="-8.6366110">
        <ele>24.8</ele>
        <time>2021-05-21T12:45:18Z</time>
      </trkpt>
      <trkpt lat="42.4223110" lon="-8.6366130">
        <ele>24.8</ele>
        <time>2021-05-21T12:45:19Z</time>
      </trkpt>
      <trkpt lat="42.4223090" lon="-8.6366120">
        <ele>24.8</ele>
        <time>2021-05-21T12:45:20Z</time>
      </trkpt>
      <trkpt lat="42.4223050" lon="-8.6366290">
        <ele>24.7</ele>
        <time>2021-05-21T12:45:21Z</time>
      </trkpt>
      <trkpt lat="42.4222940" lon="-8.6366350">
        <ele>24.7</ele>
        <time>2021-05-21T12:45:22Z</time>
      </trkpt>
      <trkpt lat="42.4222880" lon="-8.6366450">
        <ele>24.7</ele>
        <time>2021-05-21T12:45:23Z</time>
      </trkpt>
      <trkpt lat="42.4222840" lon="-8.6366490">
        <ele>24.7</ele>
        <time>2021-05-21T12:45:24Z</time>
      </trkpt>
      <trkpt lat="42.4222730" lon="-8.6366550">
        <ele>24.7</ele>
        <time>2021-05-21T12:45:25Z</time>
      </trkpt>
      <trkpt lat="42.4222630" lon="-8.6366610">
        <ele>24.6</ele>
        <time>2021-05-21T12:45:26Z</time>
      </trkpt>
      <trkpt lat="42.4222500" lon="-8.6366680">
        <ele>24.6</ele>
        <time>2021-05-21T12:45:27Z</time>
      </trkpt>
      <trkpt lat="42.4222380" lon="-8.6366820">
        <ele>24.6</ele>
        <time>2021-05-21T12:45:28Z</time>
      </trkpt>
      <trkpt lat="42.4222250" lon="-8.6366890">
        <ele>24.5</ele>
        <time>2021-05-21T12:45:29Z</time>
      </trkpt>
      <trkpt lat="42.4222020" lon="-8.6366890">
        <ele>24.5</ele>
        <time>2021-05-21T12:45:30Z</time>
      </trkpt>
      <trkpt lat="42.4221760" lon="-8.6366850">
        <ele>24.4</ele>
        <time>2021-05-21T12:45:31Z</time>
      </trkpt>
      <trkpt lat="42.4221660" lon="-8.6366800">
        <ele>24.4</ele>
        <time>2021-05-21T12:45:32Z</time>
      </trkpt>
      <trkpt lat="42.4221480" lon="-8.6366840">
        <ele>24.4</ele>
        <time>2021-05-21T12:45:33Z</time>
      </trkpt>
      <trkpt lat="42.4221400" lon="-8.6366910">
        <ele>24.4</ele>
        <time>2021-05-21T12:45:34Z</time>
      </trkpt>
      <trkpt lat="42.4221320" lon="-8.6366970">
        <ele>24.3</ele>
        <time>2021-05-21T12:45:35Z</time>
      </trkpt>
      <trkpt lat="42.4221270" lon="-8.6366880">
        <ele>24.3</ele>
        <time>2021-05-21T12:45:36Z</time>
      </trkpt>
      <trkpt lat="42.4221300" lon="-8.6366900">
        <ele>24.3</ele>
        <time>2021-05-21T12:45:37Z</time>
      </trkpt>
      <trkpt lat="42.4221410" lon="-8.6366900">
        <ele>24.3</ele>
        <time>2021-05-21T12:45:38Z</time>
      </trkpt>
      <trkpt lat="42.4221540" lon="-8.6366900">
        <ele>24.3</ele>
        <time>2021-05-21T12:45:39Z</time>
      </trkpt>
      <trkpt lat="42.4221640" lon="-8.6366880">
        <ele>24.2</ele>
        <time>2021-05-21T12:45:40Z</time>
      </trkpt>
      <trkpt lat="42.4221740" lon="-8.6366930">
        <ele>24.2</ele>
        <time>2021-05-21T12:45:41Z</time>
      </trkpt>
      <trkpt lat="42.4221820" lon="-8.6366970">
        <ele>24.2</ele>
        <time>2021-05-21T12:45:42Z</time>
      </trkpt>
      <trkpt lat="42.4221800" lon="-8.6366890">
        <ele>24.2</ele>
        <time>2021-05-21T12:45:43Z</time>
      </trkpt>
      <trkpt lat="42.4221960" lon="-8.6366860">
        <ele>24.2</ele>
        <time>2021-05-21T12:45:44Z</time>
      </trkpt>
      <trkpt lat="42.4222080" lon="-8.6366870">
        <ele>24.1</ele>
        <time>2021-05-21T12:45:45Z</time>
      </trkpt>
      <trkpt lat="42.4222230" lon="-8.6366840">
        <ele>24.1</ele>
        <time>2021-05-21T12:45:46Z</time>
      </trkpt>
      <trkpt lat="42.4222120" lon="-8.6366820">
        <ele>24.1</ele>
        <time>2021-05-21T12:45:47Z</time>
      </trkpt>
      <trkpt lat="42.4222130" lon="-8.6366860">
        <ele>24.1</ele>
        <time>2021-05-21T12:45:48Z</time>
      </trkpt>
      <trkpt lat="42.4222190" lon="-8.6367040">
        <ele>24.0</ele>
        <time>2021-05-21T12:45:49Z</time>
      </trkpt>
      <trkpt lat="42.4222210" lon="-8.6367110">
        <ele>24.0</ele>
        <time>2021-05-21T12:45:50Z</time>
      </trkpt>
      <trkpt lat="42.4222260" lon="-8.6367190">
        <ele>24.0</ele>
        <time>2021-05-21T12:45:51Z</time>
      </trkpt>
      <trkpt lat="42.4222330" lon="-8.6367280">
        <ele>24.0</ele>
        <time>2021-05-21T12:45:52Z</time>
      </trkpt>
      <trkpt lat="42.4222410" lon="-8.6367270">
        <ele>24.0</ele>
        <time>2021-05-21T12:45:53Z</time>
      </trkpt>
      <trkpt lat="42.4222440" lon="-8.6367220">
        <ele>24.0</ele>
        <time>2021-05-21T12:45:54Z</time>
      </trkpt>
      <trkpt lat="42.4222610" lon="-8.6367260">
        <ele>23.9</ele>
        <time>2021-05-21T12:45:55Z</time>
      </trkpt>
      <trkpt lat="42.4222720" lon="-8.6367260">
        <ele>23.9</ele>
        <time>2021-05-21T12:45:56Z</time>
      </trkpt>
      <trkpt lat="42.4222830" lon="-8.6367100">
        <ele>23.9</ele>
        <time>2021-05-21T12:45:57Z</time>
      </trkpt>
      <trkpt lat="42.4223000" lon="-8.6367000">
        <ele>23.8</ele>
        <time>2021-05-21T12:45:58Z</time>
      </trkpt>
      <trkpt lat="42.4223180" lon="-8.6367010">
        <ele>23.8</ele>
        <time>2021-05-21T12:45:59Z</time>
      </trkpt>
      <trkpt lat="42.4223370" lon="-8.6366920">
        <ele>23.7</ele>
        <time>2021-05-21T12:46:00Z</time>
      </trkpt>
      <trkpt lat="42.4223510" lon="-8.6366830">
        <ele>23.7</ele>
        <time>2021-05-21T12:46:01Z</time>
      </trkpt>
      <trkpt lat="42.4223680" lon="-8.6366730">
        <ele>23.6</ele>
        <time>2021-05-21T12:46:02Z</time>
      </trkpt>
      <trkpt lat="42.4223910" lon="-8.6366470">
        <ele>23.6</ele>
        <time>2021-05-21T12:46:03Z</time>
      </trkpt>
      <trkpt lat="42.4223960" lon="-8.6366370">
        <ele>23.5</ele>
        <time>2021-05-21T12:46:04Z</time>
      </trkpt>
      <trkpt lat="42.4224120" lon="-8.6366040">
        <ele>23.5</ele>
        <time>2021-05-21T12:46:05Z</time>
      </trkpt>
      <trkpt lat="42.4224180" lon="-8.6365970">
        <ele>23.5</ele>
        <time>2021-05-21T12:46:06Z</time>
      </trkpt>
      <trkpt lat="42.4224440" lon="-8.6365980">
        <ele>23.4</ele>
        <time>2021-05-21T12:46:07Z</time>
      </trkpt>
      <trkpt lat="42.4224550" lon="-8.6365960">
        <ele>23.4</ele>
        <time>2021-05-21T12:46:08Z</time>
      </trkpt>
      <trkpt lat="42.4224710" lon="-8.6365940">
        <ele>23.3</ele>
        <time>2021-05-21T12:46:09Z</time>
      </trkpt>
      <trkpt lat="42.4224830" lon="-8.6366020">
        <ele>23.3</ele>
        <time>2021-05-21T12:46:10Z</time>
      </trkpt>
      <trkpt lat="42.4224860" lon="-8.6366070">
        <ele>23.3</ele>
        <time>2021-05-21T12:46:11Z</time>
      </trkpt>
      <trkpt lat="42.4225040" lon="-8.6366190">
        <ele>23.2</ele>
        <time>2021-05-21T12:46:12Z</time>
      </trkpt>
      <trkpt lat="42.4225120" lon="-8.6366280">
        <ele>23.2</ele>
        <time>2021-05-21T12:46:13Z</time>
      </trkpt>
      <trkpt lat="42.4225200" lon="-8.6366300">
        <ele>23.2</ele>
        <time>2021-05-21T12:46:14Z</time>
      </trkpt>
      <trkpt lat="42.4225410" lon="-8.6366390">
        <ele>23.1</ele>
        <time>2021-05-21T12:46:15Z</time>
      </trkpt>
      <trkpt lat="42.4225650" lon="-8.6366580">
        <ele>23.1</ele>
        <time>2021-05-21T12:46:16Z</time>
      </trkpt>
      <trkpt lat="42.4225730" lon="-8.6366670">
        <ele>23.0</ele>
        <time>2021-05-21T12:46:17Z</time>
      </trkpt>
      <trkpt lat="42.4225780" lon="-8.6366840">
        <ele>23.0</ele>
        <time>2021-05-21T12:46:18Z</time>
      </trkpt>
      <trkpt lat="42.4225880" lon="-8.6366900">
        <ele>23.0</ele>
        <time>2021-05-21T12:46:19Z</time>
      </trkpt>
      <trkpt lat="42.4226000" lon="-8.6367000">
        <ele>22.9</ele>
        <time>2021-05-21T12:46:20Z</time>
      </trkpt>
      <trkpt lat="42.4226120" lon="-8.6367060">
        <ele>22.9</ele>
        <time>2021-05-21T12:46:21Z</time>
      </trkpt>
      <trkpt lat="42.4226240" lon="-8.6367190">
        <ele>22.9</ele>
        <time>2021-05-21T12:46:22Z</time>
      </trkpt>
      <trkpt lat="42.4226330" lon="-8.6367340">
        <ele>22.8</ele>
        <time>2021-05-21T12:46:23Z</time>
      </trkpt>
      <trkpt lat="42.4226420" lon="-8.6367420">
        <ele>22.8</ele>
        <time>2021-05-21T12:46:24Z</time>
      </trkpt>
      <trkpt lat="42.4226430" lon="-8.6367520">
        <ele>22.8</ele>
        <time>2021-05-21T12:46:25Z</time>
      </trkpt>
      <trkpt lat="42.4226510" lon="-8.6367570">
        <ele>22.8</ele>
        <time>2021-05-21T12:46:26Z</time>
      </trkpt>
      <trkpt lat="42.4226700" lon="-8.6367530">
        <ele>22.7</ele>
        <time>2021-05-21T12:46:27Z</time>
      </trkpt>
      <trkpt lat="42.4226750" lon="-8.6367540">
        <ele>22.7</ele>
        <time>2021-05-21T12:46:28Z</time>
      </trkpt>
      <trkpt lat="42.4226920" lon="-8.6367480">
        <ele>22.7</ele>
        <time>2021-05-21T12:46:29Z</time>
      </trkpt>
      <trkpt lat="42.4227080" lon="-8.6367440">
        <ele>22.6</ele>
        <time>2021-05-21T12:46:30Z</time>
      </trkpt>
      <trkpt lat="42.4227190" lon="-8.6367400">
        <ele>22.6</ele>
        <time>2021-05-21T12:46:31Z</time>
      </trkpt>
      <trkpt lat="42.4227300" lon="-8.6367380">
        <ele>22.6</ele>
        <time>2021-05-21T12:46:32Z</time>
      </trkpt>
      <trkpt lat="42.4227360" lon="-8.6367410">
        <ele>22.6</ele>
        <time>2021-05-21T12:46:33Z</time>
      </trkpt>
      <trkpt lat="42.4227490" lon="-8.6367360">
        <ele>22.5</ele>
        <time>2021-05-21T12:46:34Z</time>
      </trkpt>
      <trkpt lat="42.4227500" lon="-8.6367600">
        <ele>22.5</ele>
        <time>2021-05-21T12:46:35Z</time>
      </trkpt>
      <trkpt lat="42.4227550" lon="-8.6367510">
        <ele>22.5</ele>
        <time>2021-05-21T12:46:36Z</time>
      </trkpt>
      <trkpt lat="42.4227700" lon="-8.6367440">
        <ele>22.4</ele>
        <time>2021-05-21T12:46:37Z</time>
      </trkpt>
      <trkpt lat="42.4227840" lon="-8.6367400">
        <ele>22.4</ele>
        <time>2021-05-21T12:46:38Z</time>
      </trkpt>
      <trkpt lat="42.4227790" lon="-8.6367380">
        <ele>22.4</ele>
        <time>2021-05-21T12:46:39Z</time>
      </trkpt>
      <trkpt lat="42.4227770" lon="-8.6367390">
        <ele>22.4</ele>
        <time>2021-05-21T12:46:40Z</time>
      </trkpt>
      <trkpt lat="42.4227860" lon="-8.6367430">
        <ele>22.4</ele>
        <time>2021-05-21T12:46:41Z</time>
      </trkpt>
      <trkpt lat="42.4227900" lon="-8.6367440">
        <ele>22.3</ele>
        <time>2021-05-21T12:46:42Z</time>
      </trkpt>
      <trkpt lat="42.4227940" lon="-8.6367550">
        <ele>22.3</ele>
        <time>2021-05-21T12:46:43Z</time>
      </trkpt>
      <trkpt lat="42.4228010" lon="-8.6367510">
        <ele>22.3</ele>
        <time>2021-05-21T12:46:44Z</time>
      </trkpt>
      <trkpt lat="42.4228040" lon="-8.6367240">
        <ele>22.3</ele>
        <time>2021-05-21T12:46:45Z</time>
      </trkpt>
      <trkpt lat="42.4228060" lon="-8.6367150">
        <ele>22.2</ele>
        <time>2021-05-21T12:46:46Z</time>
      </trkpt>
      <trkpt lat="42.4228070" lon="-8.6367070">
        <ele>22.2</ele>
        <time>2021-05-21T12:46:47Z</time>
      </trkpt>
      <trkpt lat="42.4228190" lon="-8.6367020">
        <ele>22.2</ele>
        <time>2021-05-21T12:46:48Z</time>
      </trkpt>
      <trkpt lat="42.4228290" lon="-8.6367120">
        <ele>22.2</ele>
        <time>2021-05-21T12:46:49Z</time>
      </trkpt>
      <trkpt lat="42.4228400" lon="-8.6367150">
        <ele>22.1</ele>
        <time>2021-05-21T12:46:50Z</time>
      </trkpt>
      <trkpt lat="42.4228540" lon="-8.6367310">
        <ele>22.1</ele>
        <time>2021-05-21T12:46:51Z</time>
      </trkpt>
      <trkpt lat="42.4228590" lon="-8.6367410">
        <ele>22.1</ele>
        <time>2021-05-21T12:46:52Z</time>
      </trkpt>
      <trkpt lat="42.4228640" lon="-8.6367520">
        <ele>22.1</ele>
        <time>2021-05-21T12:46:53Z</time>
      </trkpt>
      <trkpt lat="42.4228810" lon="-8.6367550">
        <ele>22.0</ele>
        <time>2021-05-21T12:46:54Z</time>
      </trkpt>
      <trkpt lat="42.4228960" lon="-8.6367480">
        <ele>22.0</ele>
        <time>2021-05-21T12:46:55Z</time>
      </trkpt>
      <trkpt lat="42.4229030" lon="-8.6367540">
        <ele>22.0</ele>
        <time>2021-05-21T12:46:56Z</time>
      </trkpt>
      <trkpt lat="42.4229120" lon="-8.6367560">
        <ele>21.9</ele>
        <time>2021-05-21T12:46:57Z</time>
      </trkpt>
      <trkpt lat="42.4229240" lon="-8.6367560">
        <ele>21.9</ele>
        <time>2021-05-21T12:46:58Z</time>
      </trkpt>
      <trkpt lat="42.4229350" lon="-8.6367590">
        <ele>21.9</ele>
        <time>2021-05-21T12:46:59Z</time>
      </trkpt>
      <trkpt lat="42.4229440" lon="-8.6367590">
        <ele>21.9</ele>
        <time>2021-05-21T12:47:00Z</time>
      </trkpt>
      <trkpt lat="42.4229530" lon="-8.6367600">
        <ele>21.8</ele>
        <time>2021-05-21T12:47:01Z</time>
      </trkpt>
      <trkpt lat="42.4229620" lon="-8.6367610">
        <ele>21.8</ele>
        <time>2021-05-21T12:47:02Z</time>
      </trkpt>
      <trkpt lat="42.4229770" lon="-8.6367810">
        <ele>21.8</ele>
        <time>2021-05-21T12:47:03Z</time>
      </trkpt>
      <trkpt lat="42.4229830" lon="-8.6367930">
        <ele>21.7</ele>
        <time>2021-05-21T12:47:04Z</time>
      </trkpt>
      <trkpt lat="42.4229980" lon="-8.6367990">
        <ele>21.7</ele>
        <time>2021-05-21T12:47:05Z</time>
      </trkpt>
      <trkpt lat="42.4230130" lon="-8.6367970">
        <ele>21.7</ele>
        <time>2021-05-21T12:47:06Z</time>
      </trkpt>
      <trkpt lat="42.4230200" lon="-8.6367950">
        <ele>21.7</ele>
        <time>2021-05-21T12:47:07Z</time>
      </trkpt>
      <trkpt lat="42.4230360" lon="-8.6367960">
        <ele>21.6</ele>
        <time>2021-05-21T12:47:08Z</time>
      </trkpt>
      <trkpt lat="42.4230460" lon="-8.6367830">
        <ele>21.6</ele>
        <time>2021-05-21T12:47:09Z</time>
      </trkpt>
      <trkpt lat="42.4230610" lon="-8.6367850">
        <ele>21.5</ele>
        <time>2021-05-21T12:47:10Z</time>
      </trkpt>
      <trkpt lat="42.4230790" lon="-8.6367890">
        <ele>21.5</ele>
        <time>2021-05-21T12:47:11Z</time>
      </trkpt>
      <trkpt lat="42.4230990" lon="-8.6367850">
        <ele>21.5</ele>
        <time>2021-05-21T12:47:12Z</time>
      </trkpt>
      <trkpt lat="42.4231040" lon="-8.6367910">
        <ele>21.5</ele>
        <time>2021-05-21T12:47:13Z</time>
      </trkpt>
      <trkpt lat="42.4231070" lon="-8.6367910">
        <ele>21.4</ele>
        <time>2021-05-21T12:47:14Z</time>
      </trkpt>
      <trkpt lat="42.4231060" lon="-8.6367960">
        <ele>21.4</ele>
        <time>2021-05-21T12:47:15Z</time>
      </trkpt>
      <trkpt lat="42.4231300" lon="-8.6367890">
        <ele>21.4</ele>
        <time>2021-05-21T12:47:16Z</time>
      </trkpt>
      <trkpt lat="42.4231250" lon="-8.6368080">
        <ele>21.4</ele>
        <time>2021-05-21T12:47:17Z</time>
      </trkpt>
      <trkpt lat="42.4231170" lon="-8.6368210">
        <ele>21.3</ele>
        <time>2021-05-21T12:47:18Z</time>
      </trkpt>
      <trkpt lat="42.4231120" lon="-8.6368370">
        <ele>21.3</ele>
        <time>2021-05-21T12:47:19Z</time>
      </trkpt>
      <trkpt lat="42.4231230" lon="-8.6368610">
        <ele>21.3</ele>
        <time>2021-05-21T12:47:20Z</time>
      </trkpt>
      <trkpt lat="42.4231300" lon="-8.6368700">
        <ele>21.2</ele>
        <time>2021-05-21T12:47:21Z</time>
      </trkpt>
      <trkpt lat="42.4231420" lon="-8.6368770">
        <ele>21.2</ele>
        <time>2021-05-21T12:47:22Z</time>
      </trkpt>
      <trkpt lat="42.4231470" lon="-8.6368830">
        <ele>21.2</ele>
        <time>2021-05-21T12:47:23Z</time>
      </trkpt>
      <trkpt lat="42.4231480" lon="-8.6368790">
        <ele>21.2</ele>
        <time>2021-05-21T12:47:24Z</time>
      </trkpt>
      <trkpt lat="42.4231570" lon="-8.6368720">
        <ele>21.2</ele>
        <time>2021-05-21T12:47:25Z</time>
      </trkpt>
      <trkpt lat="42.4231600" lon="-8.6368650">
        <ele>21.2</ele>
        <time>2021-05-21T12:47:26Z</time>
      </trkpt>
      <trkpt lat="42.4231750" lon="-8.6368610">
        <ele>21.1</ele>
        <time>2021-05-21T12:47:27Z</time>
      </trkpt>
      <trkpt lat="42.4231820" lon="-8.6368520">
        <ele>21.1</ele>
        <time>2021-05-21T12:47:28Z</time>
      </trkpt>
      <trkpt lat="42.4231830" lon="-8.6368500">
        <ele>21.1</ele>
        <time>2021-05-21T12:47:29Z</time>
      </trkpt>
      <trkpt lat="42.4231830" lon="-8.6368470">
        <ele>21.1</ele>
        <time>2021-05-21T12:47:30Z</time>
      </trkpt>
      <trkpt lat="42.4231880" lon="-8.6368410">
        <ele>21.1</ele>
        <time>2021-05-21T12:47:31Z</time>
      </trkpt>
      <trkpt lat="42.4231960" lon="-8.6368550">
        <ele>21.0</ele>
        <time>2021-05-21T12:47:32Z</time>
      </trkpt>
      <trkpt lat="42.4232050" lon="-8.6368580">
        <ele>21.0</ele>
        <time>2021-05-21T12:47:33Z</time>
      </trkpt>
      <trkpt lat="42.4232130" lon="-8.6368660">
        <ele>21.0</ele>
        <time>2021-05-21T12:47:34Z</time>
      </trkpt>
      <trkpt lat="42.4232280" lon="-8.6368760">
        <ele>21.0</ele>
        <time>2021-05-21T12:47:35Z</time>
      </trkpt>
      <trkpt lat="42.4232370" lon="-8.6368790">
        <ele>21.0</ele>
        <time>2021-05-21T12:47:36Z</time>
      </trkpt>
      <trkpt lat="42.4232330" lon="-8.6368800">
        <ele>20.9</ele>
        <time>2021-05-21T12:47:37Z</time>
      </trkpt>
      <trkpt lat="42.4232440" lon="-8.6368820">
        <ele>20.9</ele>
        <time>2021-05-21T12:47:38Z</time>
      </trkpt>
      <trkpt lat="42.4232480" lon="-8.6368980">
        <ele>20.9</ele>
        <time>2021-05-21T12:47:39Z</time>
      </trkpt>
      <trkpt lat="42.4232540" lon="-8.6368990">
        <ele>20.9</ele>
        <time>2021-05-21T12:47:40Z</time>
      </trkpt>
      <trkpt lat="42.4232590" lon="-8.6369040">
        <ele>20.9</ele>
        <time>2021-05-21T12:47:41Z</time>
      </trkpt>
      <trkpt lat="42.4232630" lon="-8.6369110">
        <ele>20.9</ele>
        <time>2021-05-21T12:47:42Z</time>
      </trkpt>
      <trkpt lat="42.4232750" lon="-8.6369190">
        <ele>20.8</ele>
        <time>2021-05-21T12:47:43Z</time>
      </trkpt>
      <trkpt lat="42.4232830" lon="-8.6369240">
        <ele>20.8</ele>
        <time>2021-05-21T12:47:44Z</time>
      </trkpt>
      <trkpt lat="42.4232900" lon="-8.6369290">
        <ele>20.8</ele>
        <time>2021-05-21T12:47:45Z</time>
      </trkpt>
      <trkpt lat="42.4232980" lon="-8.6369340">
        <ele>20.8</ele>
        <time>2021-05-21T12:47:46Z</time>
      </trkpt>
      <trkpt lat="42.4233080" lon="-8.6369360">
        <ele>20.8</ele>
        <time>2021-05-21T12:47:47Z</time>
      </trkpt>
      <trkpt lat="42.4233150" lon="-8.6369380">
        <ele>20.8</ele>
        <time>2021-05-21T12:47:48Z</time>
      </trkpt>
      <trkpt lat="42.4233260" lon="-8.6369340">
        <ele>20.8</ele>
        <time>2021-05-21T12:47:49Z</time>
      </trkpt>
      <trkpt lat="42.4233370" lon="-8.6369440">
        <ele>20.7</ele>
        <time>2021-05-21T12:47:50Z</time>
      </trkpt>
      <trkpt lat="42.4233470" lon="-8.6369490">
        <ele>20.7</ele>
        <time>2021-05-21T12:47:51Z</time>
      </trkpt>
      <trkpt lat="42.4233580" lon="-8.6369500">
        <ele>20.7</ele>
        <time>2021-05-21T12:47:52Z</time>
      </trkpt>
      <trkpt lat="42.4233640" lon="-8.6369570">
        <ele>20.7</ele>
        <time>2021-05-21T12:47:53Z</time>
      </trkpt>
      <trkpt lat="42.4233710" lon="-8.6369760">
        <ele>20.6</ele>
        <time>2021-05-21T12:47:54Z</time>
      </trkpt>
      <trkpt lat="42.4233760" lon="-8.6369810">
        <ele>20.6</ele>
        <time>2021-05-21T12:47:55Z</time>
      </trkpt>
      <trkpt lat="42.4233880" lon="-8.6369980">
        <ele>20.6</ele>
        <time>2021-05-21T12:47:56Z</time>
      </trkpt>
      <trkpt lat="42.4234030" lon="-8.6370050">
        <ele>20.6</ele>
        <time>2021-05-21T12:47:57Z</time>
      </trkpt>
      <trkpt lat="42.4234150" lon="-8.6370100">
        <ele>20.6</ele>
        <time>2021-05-21T12:47:58Z</time>
      </trkpt>
      <trkpt lat="42.4234190" lon="-8.6370210">
        <ele>20.6</ele>
        <time>2021-05-21T12:47:59Z</time>
      </trkpt>
      <trkpt lat="42.4234280" lon="-8.6370230">
        <ele>20.5</ele>
        <time>2021-05-21T12:48:00Z</time>
      </trkpt>
      <trkpt lat="42.4234410" lon="-8.6370260">
        <ele>20.5</ele>
        <time>2021-05-21T12:48:01Z</time>
      </trkpt>
      <trkpt lat="42.4234500" lon="-8.6370330">
        <ele>20.5</ele>
        <time>2021-05-21T12:48:02Z</time>
      </trkpt>
      <trkpt lat="42.4234590" lon="-8.6370340">
        <ele>20.5</ele>
        <time>2021-05-21T12:48:03Z</time>
      </trkpt>
      <trkpt lat="42.4234700" lon="-8.6370290">
        <ele>20.5</ele>
        <time>2021-05-21T12:48:04Z</time>
      </trkpt>
      <trkpt lat="42.4234830" lon="-8.6370210">
        <ele>20.5</ele>
        <time>2021-05-21T12:48:05Z</time>
      </trkpt>
      <trkpt lat="42.4234890" lon="-8.6370180">
        <ele>20.5</ele>
        <time>2021-05-21T12:48:06Z</time>
      </trkpt>
      <trkpt lat="42.4234950" lon="-8.6370160">
        <ele>20.4</ele>
        <time>2021-05-21T12:48:07Z</time>
      </trkpt>
      <trkpt lat="42.4235080" lon="-8.6370160">
        <ele>20.4</ele>
        <time>2021-05-21T12:48:08Z</time>
      </trkpt>
      <trkpt lat="42.4235110" lon="-8.6370120">
        <ele>20.4</ele>
        <time>2021-05-21T12:48:09Z</time>
      </trkpt>
      <trkpt lat="42.4235130" lon="-8.6370120">
        <ele>20.4</ele>
        <time>2021-05-21T12:48:10Z</time>
      </trkpt>
      <trkpt lat="42.4235210" lon="-8.6370080">
        <ele>20.4</ele>
        <time>2021-05-21T12:48:11Z</time>
      </trkpt>
      <trkpt lat="42.4235280" lon="-8.6370010">
        <ele>20.4</ele>
        <time>2021-05-21T12:48:12Z</time>
      </trkpt>
      <trkpt lat="42.4235420" lon="-8.6369840">
        <ele>20.4</ele>
        <time>2021-05-21T12:48:13Z</time>
      </trkpt>
      <trkpt lat="42.4235580" lon="-8.6369890">
        <ele>20.3</ele>
        <time>2021-05-21T12:48:14Z</time>
      </trkpt>
      <trkpt lat="42.4235640" lon="-8.6369910">
        <ele>20.3</ele>
        <time>2021-05-21T12:48:15Z</time>
      </trkpt>
      <trkpt lat="42.4235710" lon="-8.6369930">
        <ele>20.3</ele>
        <time>2021-05-21T12:48:16Z</time>
      </trkpt>
      <trkpt lat="42.4235770" lon="-8.6369950">
        <ele>20.3</ele>
        <time>2021-05-21T12:48:17Z</time>
      </trkpt>
      <trkpt lat="42.4235880" lon="-8.6370030">
        <ele>20.3</ele>
        <time>2021-05-21T12:48:18Z</time>
      </trkpt>
      <trkpt lat="42.4235870" lon="-8.6370030">
        <ele>20.3</ele>
        <time>2021-05-21T12:48:19Z</time>
      </trkpt>
      <trkpt lat="42.4235860" lon="-8.6369990">
        <ele>20.3</ele>
        <time>2021-05-21T12:48:20Z</time>
      </trkpt>
      <trkpt lat="42.4235990" lon="-8.6369860">
        <ele>20.3</ele>
        <time>2021-05-21T12:48:21Z</time>
      </trkpt>
      <trkpt lat="42.4236070" lon="-8.6369670">
        <ele>20.2</ele>
        <time>2021-05-21T12:48:22Z</time>
      </trkpt>
      <trkpt lat="42.4236130" lon="-8.6369540">
        <ele>20.2</ele>
        <time>2021-05-21T12:48:23Z</time>
      </trkpt>
      <trkpt lat="42.4236160" lon="-8.6369470">
        <ele>20.2</ele>
        <time>2021-05-21T12:48:24Z</time>
      </trkpt>
      <trkpt lat="42.4236320" lon="-8.6369420">
        <ele>20.2</ele>
        <time>2021-05-21T12:48:25Z</time>
      </trkpt>
      <trkpt lat="42.4236520" lon="-8.6369340">
        <ele>20.1</ele>
        <time>2021-05-21T12:48:26Z</time>
      </trkpt>
      <trkpt lat="42.4236650" lon="-8.6369350">
        <ele>20.1</ele>
        <time>2021-05-21T12:48:27Z</time>
      </trkpt>
      <trkpt lat="42.4236770" lon="-8.6369490">
        <ele>20.1</ele>
        <time>2021-05-21T12:48:28Z</time>
      </trkpt>
      <trkpt lat="42.4236860" lon="-8.6369430">
        <ele>20.1</ele>
        <time>2021-05-21T12:48:29Z</time>
      </trkpt>
      <trkpt lat="42.4237000" lon="-8.6369310">
        <ele>20.1</ele>
        <time>2021-05-21T12:48:30Z</time>
      </trkpt>
      <trkpt lat="42.4237210" lon="-8.6369270">
        <ele>20.0</ele>
        <time>2021-05-21T12:48:31Z</time>
      </trkpt>
      <trkpt lat="42.4237300" lon="-8.6369210">
        <ele>20.0</ele>
        <time>2021-05-21T12:48:32Z</time>
      </trkpt>
      <trkpt lat="42.4237420" lon="-8.6369180">
        <ele>20.0</ele>
        <time>2021-05-21T12:48:33Z</time>
      </trkpt>
      <trkpt lat="42.4237560" lon="-8.6369170">
        <ele>20.0</ele>
        <time>2021-05-21T12:48:34Z</time>
      </trkpt>
      <trkpt lat="42.4237530" lon="-8.6369070">
        <ele>20.0</ele>
        <time>2021-05-21T12:48:35Z</time>
      </trkpt>
      <trkpt lat="42.4237580" lon="-8.6368950">
        <ele>19.9</ele>
        <time>2021-05-21T12:48:36Z</time>
      </trkpt>
      <trkpt lat="42.4237690" lon="-8.6369000">
        <ele>19.9</ele>
        <time>2021-05-21T12:48:37Z</time>
      </trkpt>
      <trkpt lat="42.4237720" lon="-8.6369010">
        <ele>19.9</ele>
        <time>2021-05-21T12:48:38Z</time>
      </trkpt>
      <trkpt lat="42.4237740" lon="-8.6369010">
        <ele>19.9</ele>
        <time>2021-05-21T12:48:39Z</time>
      </trkpt>
      <trkpt lat="42.4237770" lon="-8.6369020">
        <ele>19.9</ele>
        <time>2021-05-21T12:48:40Z</time>
      </trkpt>
      <trkpt lat="42.4237790" lon="-8.6369030">
        <ele>19.9</ele>
        <time>2021-05-21T12:48:41Z</time>
      </trkpt>
      <trkpt lat="42.4237820" lon="-8.6369040">
        <ele>19.9</ele>
        <time>2021-05-21T12:48:42Z</time>
      </trkpt>
      <trkpt lat="42.4237840" lon="-8.6369050">
        <ele>19.9</ele>
        <time>2021-05-21T12:48:43Z</time>
      </trkpt>
      <trkpt lat="42.4237870" lon="-8.6369060">
        <ele>19.9</ele>
        <time>2021-05-21T12:48:44Z</time>
      </trkpt>
      <trkpt lat="42.4237890" lon="-8.6369060">
        <ele>19.9</ele>
        <time>2021-05-21T12:48:45Z</time>
      </trkpt>
      <trkpt lat="42.4237920" lon="-8.6369070">
        <ele>19.9</ele>
        <time>2021-05-21T12:48:46Z</time>
      </trkpt>
      <trkpt lat="42.4237940" lon="-8.6369080">
        <ele>19.9</ele>
        <time>2021-05-21T12:48:47Z</time>
      </trkpt>
      <trkpt lat="42.4238110" lon="-8.6369060">
        <ele>19.9</ele>
        <time>2021-05-21T12:48:48Z</time>
      </trkpt>
      <trkpt lat="42.4238290" lon="-8.6369080">
        <ele>19.9</ele>
        <time>2021-05-21T12:48:49Z</time>
      </trkpt>
      <trkpt lat="42.4238480" lon="-8.6369130">
        <ele>19.8</ele>
        <time>2021-05-21T12:48:50Z</time>
      </trkpt>
      <trkpt lat="42.4238630" lon="-8.6369250">
        <ele>19.8</ele>
        <time>2021-05-21T12:48:51Z</time>
      </trkpt>
      <trkpt lat="42.4238710" lon="-8.6369420">
        <ele>19.8</ele>
        <time>2021-05-21T12:48:52Z</time>
      </trkpt>
      <trkpt lat="42.4238790" lon="-8.6369410">
        <ele>19.8</ele>
        <time>2021-05-21T12:48:53Z</time>
      </trkpt>
      <trkpt lat="42.4238900" lon="-8.6369390">
        <ele>19.8</ele>
        <time>2021-05-21T12:48:54Z</time>
      </trkpt>
      <trkpt lat="42.4239030" lon="-8.6369440">
        <ele>19.8</ele>
        <time>2021-05-21T12:48:55Z</time>
      </trkpt>
      <trkpt lat="42.4239190" lon="-8.6369420">
        <ele>19.7</ele>
        <time>2021-05-21T12:48:56Z</time>
      </trkpt>
      <trkpt lat="42.4239200" lon="-8.6369360">
        <ele>19.7</ele>
        <time>2021-05-21T12:48:57Z</time>
      </trkpt>
      <trkpt lat="42.4239330" lon="-8.6369370">
        <ele>19.7</ele>
        <time>2021-05-21T12:48:58Z</time>
      </trkpt>
      <trkpt lat="42.4239400" lon="-8.6369370">
        <ele>19.7</ele>
        <time>2021-05-21T12:48:59Z</time>
      </trkpt>
      <trkpt lat="42.4239510" lon="-8.6369330">
        <ele>19.7</ele>
        <time>2021-05-21T12:49:00Z</time>
      </trkpt>
      <trkpt lat="42.4239650" lon="-8.6369380">
        <ele>19.7</ele>
        <time>2021-05-21T12:49:01Z</time>
      </trkpt>
      <trkpt lat="42.4239840" lon="-8.6369270">
        <ele>19.7</ele>
        <time>2021-05-21T12:49:02Z</time>
      </trkpt>
      <trkpt lat="42.4240060" lon="-8.6369280">
        <ele>19.6</ele>
        <time>2021-05-21T12:49:03Z</time>
      </trkpt>
      <trkpt lat="42.4240180" lon="-8.6369280">
        <ele>19.6</ele>
        <time>2021-05-21T12:49:04Z</time>
      </trkpt>
      <trkpt lat="42.4240300" lon="-8.6369240">
        <ele>19.6</ele>
        <time>2021-05-21T12:49:05Z</time>
      </trkpt>
      <trkpt lat="42.4240450" lon="-8.6369350">
        <ele>19.6</ele>
        <time>2021-05-21T12:49:06Z</time>
      </trkpt>
      <trkpt lat="42.4240820" lon="-8.6369460">
        <ele>19.6</ele>
        <time>2021-05-21T12:49:07Z</time>
      </trkpt>
      <trkpt lat="42.4241150" lon="-8.6369790">
        <ele>19.5</ele>
        <time>2021-05-21T12:49:08Z</time>
      </trkpt>
      <trkpt lat="42.4241480" lon="-8.6369950">
        <ele>19.5</ele>
        <time>2021-05-21T12:49:09Z</time>
      </trkpt>
      <trkpt lat="42.4241560" lon="-8.6369990">
        <ele>19.5</ele>
        <time>2021-05-21T12:49:10Z</time>
      </trkpt>
      <trkpt lat="42.4241820" lon="-8.6370090">
        <ele>19.5</ele>
        <time>2021-05-21T12:49:11Z</time>
      </trkpt>
      <trkpt lat="42.4241940" lon="-8.6370120">
        <ele>19.5</ele>
        <time>2021-05-21T12:49:12Z</time>
      </trkpt>
      <trkpt lat="42.4242110" lon="-8.6370140">
        <ele>19.5</ele>
        <time>2021-05-21T12:49:13Z</time>
      </trkpt>
      <trkpt lat="42.4242220" lon="-8.6370200">
        <ele>19.5</ele>
        <time>2021-05-21T12:49:14Z</time>
      </trkpt>
      <trkpt lat="42.4242300" lon="-8.6370210">
        <ele>19.5</ele>
        <time>2021-05-21T12:49:15Z</time>
      </trkpt>
      <trkpt lat="42.4242370" lon="-8.6370220">
        <ele>19.5</ele>
        <time>2021-05-21T12:49:16Z</time>
      </trkpt>
      <trkpt lat="42.4242450" lon="-8.6370230">
        <ele>19.5</ele>
        <time>2021-05-21T12:49:17Z</time>
      </trkpt>
      <trkpt lat="42.4242530" lon="-8.6370240">
        <ele>19.5</ele>
        <time>2021-05-21T12:49:18Z</time>
      </trkpt>
      <trkpt lat="42.4242610" lon="-8.6370230">
        <ele>19.4</ele>
        <time>2021-05-21T12:49:19Z</time>
      </trkpt>
      <trkpt lat="42.4242600" lon="-8.6370120">
        <ele>19.4</ele>
        <time>2021-05-21T12:49:20Z</time>
      </trkpt>
      <trkpt lat="42.4242590" lon="-8.6370070">
        <ele>19.4</ele>
        <time>2021-05-21T12:49:21Z</time>
      </trkpt>
      <trkpt lat="42.4242580" lon="-8.6369980">
        <ele>19.4</ele>
        <time>2021-05-21T12:49:22Z</time>
      </trkpt>
      <trkpt lat="42.4242670" lon="-8.6369950">
        <ele>19.4</ele>
        <time>2021-05-21T12:49:23Z</time>
      </trkpt>
      <trkpt lat="42.4242780" lon="-8.6370000">
        <ele>19.4</ele>
        <time>2021-05-21T12:49:24Z</time>
      </trkpt>
      <trkpt lat="42.4242910" lon="-8.6370120">
        <ele>19.4</ele>
        <time>2021-05-21T12:49:25Z</time>
      </trkpt>
      <trkpt lat="42.4242960" lon="-8.6370110">
        <ele>19.4</ele>
        <time>2021-05-21T12:49:26Z</time>
      </trkpt>
      <trkpt lat="42.4243000" lon="-8.6370090">
        <ele>19.4</ele>
        <time>2021-05-21T12:49:27Z</time>
      </trkpt>
      <trkpt lat="42.4243050" lon="-8.6370080">
        <ele>19.4</ele>
        <time>2021-05-21T12:49:28Z</time>
      </trkpt>
      <trkpt lat="42.4243090" lon="-8.6370070">
        <ele>19.4</ele>
        <time>2021-05-21T12:49:29Z</time>
      </trkpt>
      <trkpt lat="42.4243130" lon="-8.6370060">
        <ele>19.4</ele>
        <time>2021-05-21T12:49:30Z</time>
      </trkpt>
      <trkpt lat="42.4243180" lon="-8.6370040">
        <ele>19.4</ele>
        <time>2021-05-21T12:49:31Z</time>
      </trkpt>
      <trkpt lat="42.4243220" lon="-8.6370030">
        <ele>19.4</ele>
        <time>2021-05-21T12:49:32Z</time>
      </trkpt>
      <trkpt lat="42.4243260" lon="-8.6369960">
        <ele>19.4</ele>
        <time>2021-05-21T12:49:33Z</time>
      </trkpt>
      <trkpt lat="42.4243240" lon="-8.6369980">
        <ele>19.4</ele>
        <time>2021-05-21T12:49:34Z</time>
      </trkpt>
      <trkpt lat="42.4243180" lon="-8.6369910">
        <ele>19.4</ele>
        <time>2021-05-21T12:49:35Z</time>
      </trkpt>
      <trkpt lat="42.4243180" lon="-8.6369810">
        <ele>19.4</ele>
        <time>2021-05-21T12:49:36Z</time>
      </trkpt>
      <trkpt lat="42.4243140" lon="-8.6369730">
        <ele>19.4</ele>
        <time>2021-05-21T12:49:37Z</time>
      </trkpt>
      <trkpt lat="42.4243190" lon="-8.6369660">
        <ele>19.4</ele>
        <time>2021-05-21T12:49:38Z</time>
      </trkpt>
      <trkpt lat="42.4243230" lon="-8.6369540">
        <ele>19.4</ele>
        <time>2021-05-21T12:49:39Z</time>
      </trkpt>
      <trkpt lat="42.4243420" lon="-8.6369630">
        <ele>19.4</ele>
        <time>2021-05-21T12:49:40Z</time>
      </trkpt>
      <trkpt lat="42.4243370" lon="-8.6369560">
        <ele>19.4</ele>
        <time>2021-05-21T12:49:41Z</time>
      </trkpt>
      <trkpt lat="42.4243310" lon="-8.6369520">
        <ele>19.4</ele>
        <time>2021-05-21T12:49:42Z</time>
      </trkpt>
      <trkpt lat="42.4243290" lon="-8.6369490">
        <ele>19.4</ele>
        <time>2021-05-21T12:49:43Z</time>
      </trkpt>
      <trkpt lat="42.4243160" lon="-8.6369370">
        <ele>19.4</ele>
        <time>2021-05-21T12:49:44Z</time>
      </trkpt>
      <trkpt lat="42.4243280" lon="-8.6369500">
        <ele>19.4</ele>
        <time>2021-05-21T12:49:45Z</time>
      </trkpt>
      <trkpt lat="42.4243360" lon="-8.6369490">
        <ele>19.4</ele>
        <time>2021-05-21T12:49:46Z</time>
      </trkpt>
      <trkpt lat="42.4243430" lon="-8.6369510">
        <ele>19.4</ele>
        <time>2021-05-21T12:49:47Z</time>
      </trkpt>
      <trkpt lat="42.4243530" lon="-8.6369540">
        <ele>19.4</ele>
        <time>2021-05-21T12:49:48Z</time>
      </trkpt>
      <trkpt lat="42.4243610" lon="-8.6369570">
        <ele>19.4</ele>
        <time>2021-05-21T12:49:49Z</time>
      </trkpt>
      <trkpt lat="42.4243710" lon="-8.6369720">
        <ele>19.4</ele>
        <time>2021-05-21T12:49:50Z</time>
      </trkpt>
      <trkpt lat="42.4243800" lon="-8.6369810">
        <ele>19.4</ele>
        <time>2021-05-21T12:49:51Z</time>
      </trkpt>
      <trkpt lat="42.4244000" lon="-8.6369770">
        <ele>19.4</ele>
        <time>2021-05-21T12:49:52Z</time>
      </trkpt>
      <trkpt lat="42.4244100" lon="-8.6369750">
        <ele>19.4</ele>
        <time>2021-05-21T12:49:53Z</time>
      </trkpt>
      <trkpt lat="42.4244220" lon="-8.6369790">
        <ele>19.4</ele>
        <time>2021-05-21T12:49:54Z</time>
      </trkpt>
      <trkpt lat="42.4244400" lon="-8.6369880">
        <ele>19.4</ele>
        <time>2021-05-21T12:49:55Z</time>
      </trkpt>
      <trkpt lat="42.4244780" lon="-8.6369880">
        <ele>19.3</ele>
        <time>2021-05-21T12:49:56Z</time>
      </trkpt>
      <trkpt lat="42.4244950" lon="-8.6369880">
        <ele>19.3</ele>
        <time>2021-05-21T12:49:57Z</time>
      </trkpt>
      <trkpt lat="42.4245070" lon="-8.6369870">
        <ele>19.3</ele>
        <time>2021-05-21T12:49:58Z</time>
      </trkpt>
      <trkpt lat="42.4245070" lon="-8.6369910">
        <ele>19.3</ele>
        <time>2021-05-21T12:49:59Z</time>
      </trkpt>
      <trkpt lat="42.4245140" lon="-8.6369900">
        <ele>19.3</ele>
        <time>2021-05-21T12:50:00Z</time>
      </trkpt>
      <trkpt lat="42.4245200" lon="-8.6369890">
        <ele>19.3</ele>
        <time>2021-05-21T12:50:01Z</time>
      </trkpt>
      <trkpt lat="42.4245220" lon="-8.6369900">
        <ele>19.3</ele>
        <time>2021-05-21T12:50:02Z</time>
      </trkpt>
      <trkpt lat="42.4245340" lon="-8.6369980">
        <ele>19.3</ele>
        <time>2021-05-21T12:50:03Z</time>
      </trkpt>
      <trkpt lat="42.4245610" lon="-8.6370200">
        <ele>19.3</ele>
        <time>2021-05-21T12:50:04Z</time>
      </trkpt>
      <trkpt lat="42.4245680" lon="-8.6370250">
        <ele>19.3</ele>
        <time>2021-05-21T12:50:05Z</time>
      </trkpt>
      <trkpt lat="42.4245810" lon="-8.6370240">
        <ele>19.3</ele>
        <time>2021-05-21T12:50:06Z</time>
      </trkpt>
      <trkpt lat="42.4245890" lon="-8.6370290">
        <ele>19.3</ele>
        <time>2021-05-21T12:50:07Z</time>
      </trkpt>
      <trkpt lat="42.4246030" lon="-8.6370270">
        <ele>19.3</ele>
        <time>2021-05-21T12:50:08Z</time>
      </trkpt>
      <trkpt lat="42.4246430" lon="-8.6370090">
        <ele>19.3</ele>
        <time>2021-05-21T12:50:09Z</time>
      </trkpt>
      <trkpt lat="42.4246590" lon="-8.6370060">
        <ele>19.3</ele>
        <time>2021-05-21T12:50:10Z</time>
      </trkpt>
      <trkpt lat="42.4247100" lon="-8.6370250">
        <ele>19.3</ele>
        <time>2021-05-21T12:50:11Z</time>
      </trkpt>
      <trkpt lat="42.4247200" lon="-8.6370360">
        <ele>19.3</ele>
        <time>2021-05-21T12:50:12Z</time>
      </trkpt>
      <trkpt lat="42.4247360" lon="-8.6370440">
        <ele>19.3</ele>
        <time>2021-05-21T12:50:13Z</time>
      </trkpt>
      <trkpt lat="42.4247570" lon="-8.6370550">
        <ele>19.3</ele>
        <time>2021-05-21T12:50:14Z</time>
      </trkpt>
      <trkpt lat="42.4247680" lon="-8.6370650">
        <ele>19.3</ele>
        <time>2021-05-21T12:50:15Z</time>
      </trkpt>
      <trkpt lat="42.4247730" lon="-8.6370710">
        <ele>19.3</ele>
        <time>2021-05-21T12:50:16Z</time>
      </trkpt>
      <trkpt lat="42.4247810" lon="-8.6370740">
        <ele>19.3</ele>
        <time>2021-05-21T12:50:17Z</time>
      </trkpt>
      <trkpt lat="42.4247880" lon="-8.6370770">
        <ele>19.3</ele>
        <time>2021-05-21T12:50:18Z</time>
      </trkpt>
      <trkpt lat="42.4247960" lon="-8.6370800">
        <ele>19.3</ele>
        <time>2021-05-21T12:50:19Z</time>
      </trkpt>
      <trkpt lat="42.4248030" lon="-8.6370830">
        <ele>19.3</ele>
        <time>2021-05-21T12:50:20Z</time>
      </trkpt>
      <trkpt lat="42.4248300" lon="-8.6370840">
        <ele>19.3</ele>
        <time>2021-05-21T12:50:21Z</time>
      </trkpt>
      <trkpt lat="42.4248420" lon="-8.6370810">
        <ele>19.3</ele>
        <time>2021-05-21T12:50:22Z</time>
      </trkpt>
      <trkpt lat="42.4248560" lon="-8.6370840">
        <ele>19.3</ele>
        <time>2021-05-21T12:50:23Z</time>
      </trkpt>
      <trkpt lat="42.4248680" lon="-8.6371140">
        <ele>19.3</ele>
        <time>2021-05-21T12:50:24Z</time>
      </trkpt>
      <trkpt lat="42.4248890" lon="-8.6371220">
        <ele>19.3</ele>
        <time>2021-05-21T12:50:25Z</time>
      </trkpt>
      <trkpt lat="42.4248990" lon="-8.6371170">
        <ele>19.3</ele>
        <time>2021-05-21T12:50:26Z</time>
      </trkpt>
      <trkpt lat="42.4249270" lon="-8.6371400">
        <ele>19.3</ele>
        <time>2021-05-21T12:50:27Z</time>
      </trkpt>
      <trkpt lat="42.4249350" lon="-8.6371530">
        <ele>19.3</ele>
        <time>2021-05-21T12:50:28Z</time>
      </trkpt>
      <trkpt lat="42.4249350" lon="-8.6371500">
        <ele>19.3</ele>
        <time>2021-05-21T12:50:29Z</time>
      </trkpt>
      <trkpt lat="42.4249420" lon="-8.6371510">
        <ele>19.3</ele>
        <time>2021-05-21T12:50:30Z</time>
      </trkpt>
      <trkpt lat="42.4249470" lon="-8.6371560">
        <ele>19.3</ele>
        <time>2021-05-21T12:50:31Z</time>
      </trkpt>
      <trkpt lat="42.4249520" lon="-8.6371660">
        <ele>19.3</ele>
        <time>2021-05-21T12:50:32Z</time>
      </trkpt>
      <trkpt lat="42.4249560" lon="-8.6371850">
        <ele>19.3</ele>
        <time>2021-05-21T12:50:33Z</time>
      </trkpt>
      <trkpt lat="42.4249880" lon="-8.6372240">
        <ele>19.4</ele>
        <time>2021-05-21T12:50:34Z</time>
      </trkpt>
      <trkpt lat="42.4250030" lon="-8.6372350">
        <ele>19.4</ele>
        <time>2021-05-21T12:50:35Z</time>
      </trkpt>
      <trkpt lat="42.4250410" lon="-8.6372440">
        <ele>19.4</ele>
        <time>2021-05-21T12:50:36Z</time>
      </trkpt>
      <trkpt lat="42.4250590" lon="-8.6372390">
        <ele>19.4</ele>
        <time>2021-05-21T12:50:37Z</time>
      </trkpt>
      <trkpt lat="42.4250730" lon="-8.6372410">
        <ele>19.4</ele>
        <time>2021-05-21T12:50:38Z</time>
      </trkpt>
      <trkpt lat="42.4250940" lon="-8.6372560">
        <ele>19.4</ele>
        <time>2021-05-21T12:50:39Z</time>
      </trkpt>
      <trkpt lat="42.4250980" lon="-8.6372580">
        <ele>19.4</ele>
        <time>2021-05-21T12:50:40Z</time>
      </trkpt>
      <trkpt lat="42.4251130" lon="-8.6372660">
        <ele>19.4</ele>
        <time>2021-05-21T12:50:41Z</time>
      </trkpt>
      <trkpt lat="42.4251220" lon="-8.6372830">
        <ele>19.5</ele>
        <time>2021-05-21T12:50:42Z</time>
      </trkpt>
      <trkpt lat="42.4251310" lon="-8.6373390">
        <ele>19.5</ele>
        <time>2021-05-21T12:50:43Z</time>
      </trkpt>
      <trkpt lat="42.4251600" lon="-8.6373710">
        <ele>19.5</ele>
        <time>2021-05-21T12:50:44Z</time>
      </trkpt>
      <trkpt lat="42.4251760" lon="-8.6373750">
        <ele>19.5</ele>
        <time>2021-05-21T12:50:45Z</time>
      </trkpt>
      <trkpt lat="42.4251930" lon="-8.6374080">
        <ele>19.5</ele>
        <time>2021-05-21T12:50:46Z</time>
      </trkpt>
      <trkpt lat="42.4251930" lon="-8.6374240">
        <ele>19.5</ele>
        <time>2021-05-21T12:50:47Z</time>
      </trkpt>
      <trkpt lat="42.4252150" lon="-8.6374580">
        <ele>19.5</ele>
        <time>2021-05-21T12:50:48Z</time>
      </trkpt>
      <trkpt lat="42.4252190" lon="-8.6374660">
        <ele>19.5</ele>
        <time>2021-05-21T12:50:49Z</time>
      </trkpt>
      <trkpt lat="42.4252260" lon="-8.6374810">
        <ele>19.5</ele>
        <time>2021-05-21T12:50:50Z</time>
      </trkpt>
      <trkpt lat="42.4252280" lon="-8.6375050">
        <ele>19.5</ele>
        <time>2021-05-21T12:50:51Z</time>
      </trkpt>
      <trkpt lat="42.4252410" lon="-8.6375400">
        <ele>19.6</ele>
        <time>2021-05-21T12:50:52Z</time>
      </trkpt>
      <trkpt lat="42.4252440" lon="-8.6375520">
        <ele>19.6</ele>
        <time>2021-05-21T12:50:53Z</time>
      </trkpt>
      <trkpt lat="42.4252400" lon="-8.6375540">
        <ele>19.6</ele>
        <time>2021-05-21T12:50:54Z</time>
      </trkpt>
      <trkpt lat="42.4252410" lon="-8.6375540">
        <ele>19.6</ele>
        <time>2021-05-21T12:50:55Z</time>
      </trkpt>
      <trkpt lat="42.4252460" lon="-8.6375530">
        <ele>19.6</ele>
        <time>2021-05-21T12:50:56Z</time>
      </trkpt>
      <trkpt lat="42.4252450" lon="-8.6375670">
        <ele>19.6</ele>
        <time>2021-05-21T12:50:57Z</time>
      </trkpt>
      <trkpt lat="42.4252640" lon="-8.6375730">
        <ele>19.6</ele>
        <time>2021-05-21T12:50:58Z</time>
      </trkpt>
      <trkpt lat="42.4252530" lon="-8.6375890">
        <ele>19.6</ele>
        <time>2021-05-21T12:50:59Z</time>
      </trkpt>
      <trkpt lat="42.4252520" lon="-8.6375860">
        <ele>19.6</ele>
        <time>2021-05-21T12:51:00Z</time>
      </trkpt>
      <trkpt lat="42.4252450" lon="-8.6375770">
        <ele>19.6</ele>
        <time>2021-05-21T12:51:01Z</time>
      </trkpt>
      <trkpt lat="42.4252390" lon="-8.6375690">
        <ele>19.6</ele>
        <time>2021-05-21T12:51:02Z</time>
      </trkpt>
      <trkpt lat="42.4252320" lon="-8.6375600">
        <ele>19.6</ele>
        <time>2021-05-21T12:51:03Z</time>
      </trkpt>
      <trkpt lat="42.4252250" lon="-8.6375520">
        <ele>19.6</ele>
        <time>2021-05-21T12:51:04Z</time>
      </trkpt>
      <trkpt lat="42.4252400" lon="-8.6375540">
        <ele>19.6</ele>
        <time>2021-05-21T12:51:05Z</time>
      </trkpt>
      <trkpt lat="42.4252430" lon="-8.6375580">
        <ele>19.6</ele>
        <time>2021-05-21T12:51:06Z</time>
      </trkpt>
      <trkpt lat="42.4252320" lon="-8.6375580">
        <ele>19.6</ele>
        <time>2021-05-21T12:51:07Z</time>
      </trkpt>
      <trkpt lat="42.4252370" lon="-8.6375620">
        <ele>19.6</ele>
        <time>2021-05-21T12:51:08Z</time>
      </trkpt>
      <trkpt lat="42.4252290" lon="-8.6375590">
        <ele>19.6</ele>
        <time>2021-05-21T12:51:09Z</time>
      </trkpt>
      <trkpt lat="42.4252330" lon="-8.6375670">
        <ele>19.6</ele>
        <time>2021-05-21T12:51:10Z</time>
      </trkpt>
      <trkpt lat="42.4252400" lon="-8.6375950">
        <ele>19.6</ele>
        <time>2021-05-21T12:51:11Z</time>
      </trkpt>
      <trkpt lat="42.4252440" lon="-8.6376020">
        <ele>19.6</ele>
        <time>2021-05-21T12:51:12Z</time>
      </trkpt>
      <trkpt lat="42.4252550" lon="-8.6376120">
        <ele>19.6</ele>
        <time>2021-05-21T12:51:13Z</time>
      </trkpt>
      <trkpt lat="42.4252640" lon="-8.6376140">
        <ele>19.6</ele>
        <time>2021-05-21T12:51:14Z</time>
      </trkpt>
      <trkpt lat="42.4252750" lon="-8.6376140">
        <ele>19.6</ele>
        <time>2021-05-21T12:51:15Z</time>
      </trkpt>
      <trkpt lat="42.4252830" lon="-8.6376160">
        <ele>19.6</ele>
        <time>2021-05-21T12:51:16Z</time>
      </trkpt>
      <trkpt lat="42.4252930" lon="-8.6376080">
        <ele>19.6</ele>
        <time>2021-05-21T12:51:17Z</time>
      </trkpt>
      <trkpt lat="42.4253060" lon="-8.6376110">
        <ele>19.6</ele>
        <time>2021-05-21T12:51:18Z</time>
      </trkpt>
      <trkpt lat="42.4253130" lon="-8.6376180">
        <ele>19.6</ele>
        <time>2021-05-21T12:51:19Z</time>
      </trkpt>
      <trkpt lat="42.4253110" lon="-8.6376130">
        <ele>19.6</ele>
        <time>2021-05-21T12:51:20Z</time>
      </trkpt>
      <trkpt lat="42.4253100" lon="-8.6376020">
        <ele>19.6</ele>
        <time>2021-05-21T12:51:21Z</time>
      </trkpt>
      <trkpt lat="42.4253090" lon="-8.6376040">
        <ele>19.6</ele>
        <time>2021-05-21T12:51:22Z</time>
      </trkpt>
      <trkpt lat="42.4253090" lon="-8.6375960">
        <ele>19.6</ele>
        <time>2021-05-21T12:51:23Z</time>
      </trkpt>
      <trkpt lat="42.4253220" lon="-8.6375930">
        <ele>19.6</ele>
        <time>2021-05-21T12:51:24Z</time>
      </trkpt>
      <trkpt lat="42.4253240" lon="-8.6375890">
        <ele>19.7</ele>
        <time>2021-05-21T12:51:25Z</time>
      </trkpt>
      <trkpt lat="42.4253300" lon="-8.6375890">
        <ele>19.7</ele>
        <time>2021-05-21T12:51:26Z</time>
      </trkpt>
      <trkpt lat="42.4253340" lon="-8.6375910">
        <ele>19.7</ele>
        <time>2021-05-21T12:51:27Z</time>
      </trkpt>
      <trkpt lat="42.4253370" lon="-8.6375930">
        <ele>19.7</ele>
        <time>2021-05-21T12:51:28Z</time>
      </trkpt>
      <trkpt lat="42.4253450" lon="-8.6376050">
        <ele>19.7</ele>
        <time>2021-05-21T12:51:29Z</time>
      </trkpt>
      <trkpt lat="42.4253480" lon="-8.6376020">
        <ele>19.7</ele>
        <time>2021-05-21T12:51:30Z</time>
      </trkpt>
      <trkpt lat="42.4253500" lon="-8.6375980">
        <ele>19.7</ele>
        <time>2021-05-21T12:51:31Z</time>
      </trkpt>
      <trkpt lat="42.4253490" lon="-8.6375930">
        <ele>19.7</ele>
        <time>2021-05-21T12:51:32Z</time>
      </trkpt>
      <trkpt lat="42.4253480" lon="-8.6375890">
        <ele>19.7</ele>
        <time>2021-05-21T12:51:33Z</time>
      </trkpt>
      <trkpt lat="42.4253480" lon="-8.6375880">
        <ele>19.7</ele>
        <time>2021-05-21T12:51:34Z</time>
      </trkpt>
      <trkpt lat="42.4253570" lon="-8.6375820">
        <ele>19.7</ele>
        <time>2021-05-21T12:51:35Z</time>
      </trkpt>
      <trkpt lat="42.4253730" lon="-8.6375600">
        <ele>19.7</ele>
        <time>2021-05-21T12:51:36Z</time>
      </trkpt>
      <trkpt lat="42.4253740" lon="-8.6375240">
        <ele>19.7</ele>
        <time>2021-05-21T12:51:37Z</time>
      </trkpt>
      <trkpt lat="42.4253730" lon="-8.6375100">
        <ele>19.7</ele>
        <time>2021-05-21T12:51:38Z</time>
      </trkpt>
      <trkpt lat="42.4253770" lon="-8.6374940">
        <ele>19.7</ele>
        <time>2021-05-21T12:51:39Z</time>
      </trkpt>
      <trkpt lat="42.4253760" lon="-8.6374850">
        <ele>19.7</ele>
        <time>2021-05-21T12:51:40Z</time>
      </trkpt>
      <trkpt lat="42.4253820" lon="-8.6374780">
        <ele>19.7</ele>
        <time>2021-05-21T12:51:41Z</time>
      </trkpt>
      <trkpt lat="42.4253590" lon="-8.6375210">
        <ele>19.7</ele>
        <time>2021-05-21T12:51:42Z</time>
      </trkpt>
      <trkpt lat="42.4253660" lon="-8.6375590">
        <ele>19.7</ele>
        <time>2021-05-21T12:51:43Z</time>
      </trkpt>
      <trkpt lat="42.4253750" lon="-8.6375500">
        <ele>19.7</ele>
        <time>2021-05-21T12:51:44Z</time>
      </trkpt>
      <trkpt lat="42.4253730" lon="-8.6375480">
        <ele>19.7</ele>
        <time>2021-05-21T12:51:45Z</time>
      </trkpt>
      <trkpt lat="42.4253710" lon="-8.6375490">
        <ele>19.7</ele>
        <time>2021-05-21T12:51:46Z</time>
      </trkpt>
      <trkpt lat="42.4253730" lon="-8.6375500">
        <ele>19.7</ele>
        <time>2021-05-21T12:51:47Z</time>
      </trkpt>
      <trkpt lat="42.4253770" lon="-8.6375540">
        <ele>19.7</ele>
        <time>2021-05-21T12:51:48Z</time>
      </trkpt>
      <trkpt lat="42.4253790" lon="-8.6375500">
        <ele>19.7</ele>
        <time>2021-05-21T12:51:49Z</time>
      </trkpt>
      <trkpt lat="42.4253900" lon="-8.6375570">
        <ele>19.7</ele>
        <time>2021-05-21T12:51:50Z</time>
      </trkpt>
      <trkpt lat="42.4253860" lon="-8.6375340">
        <ele>19.8</ele>
        <time>2021-05-21T12:51:51Z</time>
      </trkpt>
      <trkpt lat="42.4253860" lon="-8.6375390">
        <ele>19.8</ele>
        <time>2021-05-21T12:51:52Z</time>
      </trkpt>
      <trkpt lat="42.4253960" lon="-8.6375400">
        <ele>19.8</ele>
        <time>2021-05-21T12:51:53Z</time>
      </trkpt>
      <trkpt lat="42.4254010" lon="-8.6375620">
        <ele>19.8</ele>
        <time>2021-05-21T12:51:54Z</time>
      </trkpt>
      <trkpt lat="42.4254040" lon="-8.6375790">
        <ele>19.8</ele>
        <time>2021-05-21T12:51:55Z</time>
      </trkpt>
      <trkpt lat="42.4254380" lon="-8.6376120">
        <ele>19.8</ele>
        <time>2021-05-21T12:51:56Z</time>
      </trkpt>
      <trkpt lat="42.4254480" lon="-8.6376260">
        <ele>19.8</ele>
        <time>2021-05-21T12:51:57Z</time>
      </trkpt>
      <trkpt lat="42.4254800" lon="-8.6376690">
        <ele>19.8</ele>
        <time>2021-05-21T12:51:58Z</time>
      </trkpt>
      <trkpt lat="42.4254930" lon="-8.6376880">
        <ele>19.8</ele>
        <time>2021-05-21T12:51:59Z</time>
      </trkpt>
      <trkpt lat="42.4255110" lon="-8.6377220">
        <ele>19.8</ele>
        <time>2021-05-21T12:52:00Z</time>
      </trkpt>
      <trkpt lat="42.4255210" lon="-8.6377280">
        <ele>19.8</ele>
        <time>2021-05-21T12:52:01Z</time>
      </trkpt>
      <trkpt lat="42.4255310" lon="-8.6377350">
        <ele>19.8</ele>
        <time>2021-05-21T12:52:02Z</time>
      </trkpt>
      <trkpt lat="42.4255340" lon="-8.6377320">
        <ele>19.8</ele>
        <time>2021-05-21T12:52:03Z</time>
      </trkpt>
      <trkpt lat="42.4255440" lon="-8.6377300">
        <ele>19.9</ele>
        <time>2021-05-21T12:52:04Z</time>
      </trkpt>
      <trkpt lat="42.4255720" lon="-8.6377330">
        <ele>19.9</ele>
        <time>2021-05-21T12:52:05Z</time>
      </trkpt>
      <trkpt lat="42.4255840" lon="-8.6377340">
        <ele>19.9</ele>
        <time>2021-05-21T12:52:06Z</time>
      </trkpt>
      <trkpt lat="42.4256150" lon="-8.6377200">
        <ele>19.9</ele>
        <time>2021-05-21T12:52:07Z</time>
      </trkpt>
      <trkpt lat="42.4256240" lon="-8.6377130">
        <ele>19.9</ele>
        <time>2021-05-21T12:52:08Z</time>
      </trkpt>
      <trkpt lat="42.4256540" lon="-8.6376990">
        <ele>19.9</ele>
        <time>2021-05-21T12:52:09Z</time>
      </trkpt>
      <trkpt lat="42.4256670" lon="-8.6376970">
        <ele>19.9</ele>
        <time>2021-05-21T12:52:10Z</time>
      </trkpt>
      <trkpt lat="42.4256740" lon="-8.6377130">
        <ele>19.9</ele>
        <time>2021-05-21T12:52:11Z</time>
      </trkpt>
      <trkpt lat="42.4256890" lon="-8.6377370">
        <ele>19.9</ele>
        <time>2021-05-21T12:52:12Z</time>
      </trkpt>
      <trkpt lat="42.4257030" lon="-8.6377560">
        <ele>20.0</ele>
        <time>2021-05-21T12:52:13Z</time>
      </trkpt>
      <trkpt lat="42.4257070" lon="-8.6377660">
        <ele>20.0</ele>
        <time>2021-05-21T12:52:14Z</time>
      </trkpt>
      <trkpt lat="42.4257100" lon="-8.6377770">
        <ele>20.0</ele>
        <time>2021-05-21T12:52:15Z</time>
      </trkpt>
      <trkpt lat="42.4257130" lon="-8.6377880">
        <ele>20.0</ele>
        <time>2021-05-21T12:52:16Z</time>
      </trkpt>
      <trkpt lat="42.4257140" lon="-8.6378020">
        <ele>20.0</ele>
        <time>2021-05-21T12:52:17Z</time>
      </trkpt>
      <trkpt lat="42.4257210" lon="-8.6378120">
        <ele>20.0</ele>
        <time>2021-05-21T12:52:18Z</time>
      </trkpt>
      <trkpt lat="42.4257340" lon="-8.6378110">
        <ele>20.0</ele>
        <time>2021-05-21T12:52:19Z</time>
      </trkpt>
      <trkpt lat="42.4257360" lon="-8.6378130">
        <ele>20.0</ele>
        <time>2021-05-21T12:52:20Z</time>
      </trkpt>
      <trkpt lat="42.4257380" lon="-8.6378140">
        <ele>20.0</ele>
        <time>2021-05-21T12:52:21Z</time>
      </trkpt>
      <trkpt lat="42.4257400" lon="-8.6378150">
        <ele>20.0</ele>
        <time>2021-05-21T12:52:22Z</time>
      </trkpt>
      <trkpt lat="42.4257420" lon="-8.6378170">
        <ele>20.0</ele>
        <time>2021-05-21T12:52:23Z</time>
      </trkpt>
      <trkpt lat="42.4257440" lon="-8.6378180">
        <ele>20.0</ele>
        <time>2021-05-21T12:52:24Z</time>
      </trkpt>
      <trkpt lat="42.4257460" lon="-8.6378190">
        <ele>20.0</ele>
        <time>2021-05-21T12:52:25Z</time>
      </trkpt>
      <trkpt lat="42.4257480" lon="-8.6378200">
        <ele>20.0</ele>
        <time>2021-05-21T12:52:26Z</time>
      </trkpt>
      <trkpt lat="42.4257490" lon="-8.6378220">
        <ele>20.0</ele>
        <time>2021-05-21T12:52:27Z</time>
      </trkpt>
      <trkpt lat="42.4257510" lon="-8.6378230">
        <ele>20.0</ele>
        <time>2021-05-21T12:52:28Z</time>
      </trkpt>
      <trkpt lat="42.4257530" lon="-8.6378240">
        <ele>20.0</ele>
        <time>2021-05-21T12:52:29Z</time>
      </trkpt>
      <trkpt lat="42.4257550" lon="-8.6378260">
        <ele>20.0</ele>
        <time>2021-05-21T12:52:30Z</time>
      </trkpt>
      <trkpt lat="42.4257570" lon="-8.6378270">
        <ele>20.0</ele>
        <time>2021-05-21T12:52:31Z</time>
      </trkpt>
      <trkpt lat="42.4257590" lon="-8.6378280">
        <ele>20.0</ele>
        <time>2021-05-21T12:52:32Z</time>
      </trkpt>
      <trkpt lat="42.4257610" lon="-8.6378300">
        <ele>20.0</ele>
        <time>2021-05-21T12:52:33Z</time>
      </trkpt>
      <trkpt lat="42.4257630" lon="-8.6378310">
        <ele>20.0</ele>
        <time>2021-05-21T12:52:34Z</time>
      </trkpt>
      <trkpt lat="42.4257480" lon="-8.6378570">
        <ele>20.1</ele>
        <time>2021-05-21T12:52:35Z</time>
      </trkpt>
      <trkpt lat="42.4257340" lon="-8.6378670">
        <ele>20.1</ele>
        <time>2021-05-21T12:52:36Z</time>
      </trkpt>
      <trkpt lat="42.4257250" lon="-8.6378870">
        <ele>20.1</ele>
        <time>2021-05-21T12:52:37Z</time>
      </trkpt>
      <trkpt lat="42.4257380" lon="-8.6379040">
        <ele>20.1</ele>
        <time>2021-05-21T12:52:38Z</time>
      </trkpt>
      <trkpt lat="42.4257470" lon="-8.6378990">
        <ele>20.1</ele>
        <time>2021-05-21T12:52:39Z</time>
      </trkpt>
      <trkpt lat="42.4257540" lon="-8.6379070">
        <ele>20.1</ele>
        <time>2021-05-21T12:52:40Z</time>
      </trkpt>
      <trkpt lat="42.4257630" lon="-8.6379190">
        <ele>20.1</ele>
        <time>2021-05-21T12:52:41Z</time>
      </trkpt>
      <trkpt lat="42.4257770" lon="-8.6379220">
        <ele>20.2</ele>
        <time>2021-05-21T12:52:42Z</time>
      </trkpt>
      <trkpt lat="42.4257860" lon="-8.6379210">
        <ele>20.2</ele>
        <time>2021-05-21T12:52:43Z</time>
      </trkpt>
      <trkpt lat="42.4257950" lon="-8.6379180">
        <ele>20.2</ele>
        <time>2021-05-21T12:52:44Z</time>
      </trkpt>
      <trkpt lat="42.4258070" lon="-8.6379280">
        <ele>20.2</ele>
        <time>2021-05-21T12:52:45Z</time>
      </trkpt>
      <trkpt lat="42.4258220" lon="-8.6379430">
        <ele>20.2</ele>
        <time>2021-05-21T12:52:46Z</time>
      </trkpt>
      <trkpt lat="42.4258440" lon="-8.6379400">
        <ele>20.2</ele>
        <time>2021-05-21T12:52:47Z</time>
      </trkpt>
      <trkpt lat="42.4258550" lon="-8.6379390">
        <ele>20.2</ele>
        <time>2021-05-21T12:52:48Z</time>
      </trkpt>
      <trkpt lat="42.4258650" lon="-8.6379390">
        <ele>20.3</ele>
        <time>2021-05-21T12:52:49Z</time>
      </trkpt>
      <trkpt lat="42.4258880" lon="-8.6379650">
        <ele>20.3</ele>
        <time>2021-05-21T12:52:50Z</time>
      </trkpt>
      <trkpt lat="42.4258970" lon="-8.6379750">
        <ele>20.3</ele>
        <time>2021-05-21T12:52:51Z</time>
      </trkpt>
      <trkpt lat="42.4259070" lon="-8.6380040">
        <ele>20.3</ele>
        <time>2021-05-21T12:52:52Z</time>
      </trkpt>
      <trkpt lat="42.4259100" lon="-8.6380140">
        <ele>20.3</ele>
        <time>2021-05-21T12:52:53Z</time>
      </trkpt>
      <trkpt lat="42.4259120" lon="-8.6380240">
        <ele>20.3</ele>
        <time>2021-05-21T12:52:54Z</time>
      </trkpt>
      <trkpt lat="42.4259140" lon="-8.6380380">
        <ele>20.4</ele>
        <time>2021-05-21T12:52:55Z</time>
      </trkpt>
      <trkpt lat="42.4259140" lon="-8.6380540">
        <ele>20.4</ele>
        <time>2021-05-21T12:52:56Z</time>
      </trkpt>
      <trkpt lat="42.4259180" lon="-8.6380690">
        <ele>20.4</ele>
        <time>2021-05-21T12:52:57Z</time>
      </trkpt>
      <trkpt lat="42.4259300" lon="-8.6380760">
        <ele>20.4</ele>
        <time>2021-05-21T12:52:58Z</time>
      </trkpt>
      <trkpt lat="42.4259360" lon="-8.6380710">
        <ele>20.4</ele>
        <time>2021-05-21T12:52:59Z</time>
      </trkpt>
      <trkpt lat="42.4259460" lon="-8.6380650">
        <ele>20.4</ele>
        <time>2021-05-21T12:53:00Z</time>
      </trkpt>
      <trkpt lat="42.4259550" lon="-8.6380930">
        <ele>20.5</ele>
        <time>2021-05-21T12:53:01Z</time>
      </trkpt>
      <trkpt lat="42.4259600" lon="-8.6381170">
        <ele>20.5</ele>
        <time>2021-05-21T12:53:02Z</time>
      </trkpt>
      <trkpt lat="42.4259760" lon="-8.6381530">
        <ele>20.5</ele>
        <time>2021-05-21T12:53:03Z</time>
      </trkpt>
      <trkpt lat="42.4259730" lon="-8.6381640">
        <ele>20.5</ele>
        <time>2021-05-21T12:53:04Z</time>
      </trkpt>
      <trkpt lat="42.4259860" lon="-8.6381700">
        <ele>20.6</ele>
        <time>2021-05-21T12:53:05Z</time>
      </trkpt>
      <trkpt lat="42.4259900" lon="-8.6381830">
        <ele>20.6</ele>
        <time>2021-05-21T12:53:06Z</time>
      </trkpt>
      <trkpt lat="42.4259880" lon="-8.6381970">
        <ele>20.6</ele>
        <time>2021-05-21T12:53:07Z</time>
      </trkpt>
      <trkpt lat="42.4259970" lon="-8.6382220">
        <ele>20.6</ele>
        <time>2021-05-21T12:53:08Z</time>
      </trkpt>
      <trkpt lat="42.4260050" lon="-8.6382300">
        <ele>20.6</ele>
        <time>2021-05-21T12:53:09Z</time>
      </trkpt>
      <trkpt lat="42.4260420" lon="-8.6382200">
        <ele>20.7</ele>
        <time>2021-05-21T12:53:10Z</time>
      </trkpt>
      <trkpt lat="42.4260520" lon="-8.6382170">
        <ele>20.7</ele>
        <time>2021-05-21T12:53:11Z</time>
      </trkpt>
      <trkpt lat="42.4260550" lon="-8.6382410">
        <ele>20.7</ele>
        <time>2021-05-21T12:53:12Z</time>
      </trkpt>
      <trkpt lat="42.4260590" lon="-8.6382550">
        <ele>20.7</ele>
        <time>2021-05-21T12:53:13Z</time>
      </trkpt>
      <trkpt lat="42.4260620" lon="-8.6382680">
        <ele>20.7</ele>
        <time>2021-05-21T12:53:14Z</time>
      </trkpt>
      <trkpt lat="42.4260670" lon="-8.6382950">
        <ele>20.8</ele>
        <time>2021-05-21T12:53:15Z</time>
      </trkpt>
      <trkpt lat="42.4260650" lon="-8.6383070">
        <ele>20.8</ele>
        <time>2021-05-21T12:53:16Z</time>
      </trkpt>
      <trkpt lat="42.4260650" lon="-8.6383240">
        <ele>20.8</ele>
        <time>2021-05-21T12:53:17Z</time>
      </trkpt>
      <trkpt lat="42.4260760" lon="-8.6383290">
        <ele>20.8</ele>
        <time>2021-05-21T12:53:18Z</time>
      </trkpt>
      <trkpt lat="42.4260880" lon="-8.6383390">
        <ele>20.8</ele>
        <time>2021-05-21T12:53:19Z</time>
      </trkpt>
      <trkpt lat="42.4261060" lon="-8.6383430">
        <ele>20.8</ele>
        <time>2021-05-21T12:53:20Z</time>
      </trkpt>
      <trkpt lat="42.4261140" lon="-8.6383440">
        <ele>20.9</ele>
        <time>2021-05-21T12:53:21Z</time>
      </trkpt>
      <trkpt lat="42.4261220" lon="-8.6383450">
        <ele>20.9</ele>
        <time>2021-05-21T12:53:22Z</time>
      </trkpt>
      <trkpt lat="42.4261300" lon="-8.6383460">
        <ele>20.9</ele>
        <time>2021-05-21T12:53:23Z</time>
      </trkpt>
      <trkpt lat="42.4261460" lon="-8.6383420">
        <ele>20.9</ele>
        <time>2021-05-21T12:53:24Z</time>
      </trkpt>
      <trkpt lat="42.4261570" lon="-8.6383390">
        <ele>20.9</ele>
        <time>2021-05-21T12:53:25Z</time>
      </trkpt>
      <trkpt lat="42.4261670" lon="-8.6383350">
        <ele>20.9</ele>
        <time>2021-05-21T12:53:26Z</time>
      </trkpt>
      <trkpt lat="42.4261960" lon="-8.6383170">
        <ele>21.0</ele>
        <time>2021-05-21T12:53:27Z</time>
      </trkpt>
      <trkpt lat="42.4262060" lon="-8.6383110">
        <ele>21.0</ele>
        <time>2021-05-21T12:53:28Z</time>
      </trkpt>
      <trkpt lat="42.4262340" lon="-8.6383040">
        <ele>21.0</ele>
        <time>2021-05-21T12:53:29Z</time>
      </trkpt>
      <trkpt lat="42.4262640" lon="-8.6383030">
        <ele>21.1</ele>
        <time>2021-05-21T12:53:30Z</time>
      </trkpt>
      <trkpt lat="42.4262950" lon="-8.6383050">
        <ele>21.1</ele>
        <time>2021-05-21T12:53:31Z</time>
      </trkpt>
      <trkpt lat="42.4263240" lon="-8.6382910">
        <ele>21.1</ele>
        <time>2021-05-21T12:53:32Z</time>
      </trkpt>
      <trkpt lat="42.4263710" lon="-8.6382800">
        <ele>21.2</ele>
        <time>2021-05-21T12:53:33Z</time>
      </trkpt>
      <trkpt lat="42.4264170" lon="-8.6382740">
        <ele>21.3</ele>
        <time>2021-05-21T12:53:34Z</time>
      </trkpt>
      <trkpt lat="42.4264390" lon="-8.6382730">
        <ele>21.3</ele>
        <time>2021-05-21T12:53:35Z</time>
      </trkpt>
      <trkpt lat="42.4264500" lon="-8.6382810">
        <ele>21.3</ele>
        <time>2021-05-21T12:53:36Z</time>
      </trkpt>
      <trkpt lat="42.4264560" lon="-8.6382900">
        <ele>21.3</ele>
        <time>2021-05-21T12:53:37Z</time>
      </trkpt>
      <trkpt lat="42.4264690" lon="-8.6383000">
        <ele>21.3</ele>
        <time>2021-05-21T12:53:38Z</time>
      </trkpt>
      <trkpt lat="42.4264800" lon="-8.6383060">
        <ele>21.3</ele>
        <time>2021-05-21T12:53:39Z</time>
      </trkpt>
      <trkpt lat="42.4264860" lon="-8.6383090">
        <ele>21.3</ele>
        <time>2021-05-21T12:53:40Z</time>
      </trkpt>
      <trkpt lat="42.4264790" lon="-8.6383130">
        <ele>21.4</ele>
        <time>2021-05-21T12:53:41Z</time>
      </trkpt>
      <trkpt lat="42.4264750" lon="-8.6383260">
        <ele>21.4</ele>
        <time>2021-05-21T12:53:42Z</time>
      </trkpt>
      <trkpt lat="42.4265060" lon="-8.6383310">
        <ele>21.4</ele>
        <time>2021-05-21T12:53:43Z</time>
      </trkpt>
      <trkpt lat="42.4265310" lon="-8.6383280">
        <ele>21.4</ele>
        <time>2021-05-21T12:53:44Z</time>
      </trkpt>
      <trkpt lat="42.4265280" lon="-8.6383300">
        <ele>21.4</ele>
        <time>2021-05-21T12:53:45Z</time>
      </trkpt>
      <trkpt lat="42.4265230" lon="-8.6383610">
        <ele>21.5</ele>
        <time>2021-05-21T12:53:46Z</time>
      </trkpt>
      <trkpt lat="42.4265380" lon="-8.6383700">
        <ele>21.5</ele>
        <time>2021-05-21T12:53:47Z</time>
      </trkpt>
      <trkpt lat="42.4265480" lon="-8.6383760">
        <ele>21.5</ele>
        <time>2021-05-21T12:53:48Z</time>
      </trkpt>
      <trkpt lat="42.4265570" lon="-8.6383810">
        <ele>21.5</ele>
        <time>2021-05-21T12:53:49Z</time>
      </trkpt>
      <trkpt lat="42.4265700" lon="-8.6384020">
        <ele>21.6</ele>
        <time>2021-05-21T12:53:50Z</time>
      </trkpt>
      <trkpt lat="42.4265700" lon="-8.6384330">
        <ele>21.6</ele>
        <time>2021-05-21T12:53:51Z</time>
      </trkpt>
      <trkpt lat="42.4265690" lon="-8.6384630">
        <ele>21.6</ele>
        <time>2021-05-21T12:53:52Z</time>
      </trkpt>
      <trkpt lat="42.4265590" lon="-8.6385180">
        <ele>21.6</ele>
        <time>2021-05-21T12:53:53Z</time>
      </trkpt>
      <trkpt lat="42.4265570" lon="-8.6385470">
        <ele>21.6</ele>
        <time>2021-05-21T12:53:54Z</time>
      </trkpt>
      <trkpt lat="42.4265610" lon="-8.6385580">
        <ele>21.6</ele>
        <time>2021-05-21T12:53:55Z</time>
      </trkpt>
      <trkpt lat="42.4265640" lon="-8.6385680">
        <ele>21.6</ele>
        <time>2021-05-21T12:53:56Z</time>
      </trkpt>
      <trkpt lat="42.4265680" lon="-8.6385790">
        <ele>21.6</ele>
        <time>2021-05-21T12:53:57Z</time>
      </trkpt>
      <trkpt lat="42.4265590" lon="-8.6385980">
        <ele>21.6</ele>
        <time>2021-05-21T12:53:58Z</time>
      </trkpt>
      <trkpt lat="42.4265560" lon="-8.6386030">
        <ele>21.7</ele>
        <time>2021-05-21T12:53:59Z</time>
      </trkpt>
      <trkpt lat="42.4265630" lon="-8.6386030">
        <ele>21.7</ele>
        <time>2021-05-21T12:54:00Z</time>
      </trkpt>
      <trkpt lat="42.4265660" lon="-8.6385930">
        <ele>21.7</ele>
        <time>2021-05-21T12:54:01Z</time>
      </trkpt>
      <trkpt lat="42.4265690" lon="-8.6385910">
        <ele>21.7</ele>
        <time>2021-05-21T12:54:02Z</time>
      </trkpt>
      <trkpt lat="42.4265720" lon="-8.6385960">
        <ele>21.7</ele>
        <time>2021-05-21T12:54:03Z</time>
      </trkpt>
      <trkpt lat="42.4265700" lon="-8.6386020">
        <ele>21.7</ele>
        <time>2021-05-21T12:54:04Z</time>
      </trkpt>
      <trkpt lat="42.4265750" lon="-8.6385990">
        <ele>21.7</ele>
        <time>2021-05-21T12:54:05Z</time>
      </trkpt>
      <trkpt lat="42.4265690" lon="-8.6386060">
        <ele>21.7</ele>
        <time>2021-05-21T12:54:06Z</time>
      </trkpt>
      <trkpt lat="42.4265730" lon="-8.6386110">
        <ele>21.7</ele>
        <time>2021-05-21T12:54:07Z</time>
      </trkpt>
      <trkpt lat="42.4265800" lon="-8.6386150">
        <ele>21.7</ele>
        <time>2021-05-21T12:54:08Z</time>
      </trkpt>
      <trkpt lat="42.4265820" lon="-8.6386170">
        <ele>21.7</ele>
        <time>2021-05-21T12:54:09Z</time>
      </trkpt>
      <trkpt lat="42.4265740" lon="-8.6386240">
        <ele>21.7</ele>
        <time>2021-05-21T12:54:10Z</time>
      </trkpt>
      <trkpt lat="42.4265650" lon="-8.6386320">
        <ele>21.7</ele>
        <time>2021-05-21T12:54:11Z</time>
      </trkpt>
      <trkpt lat="42.4265550" lon="-8.6386460">
        <ele>21.7</ele>
        <time>2021-05-21T12:54:12Z</time>
      </trkpt>
      <trkpt lat="42.4265670" lon="-8.6386410">
        <ele>21.7</ele>
        <time>2021-05-21T12:54:13Z</time>
      </trkpt>
      <trkpt lat="42.4265750" lon="-8.6386420">
        <ele>21.7</ele>
        <time>2021-05-21T12:54:14Z</time>
      </trkpt>
      <trkpt lat="42.4265830" lon="-8.6386440">
        <ele>21.7</ele>
        <time>2021-05-21T12:54:15Z</time>
      </trkpt>
      <trkpt lat="42.4265910" lon="-8.6386450">
        <ele>21.7</ele>
        <time>2021-05-21T12:54:16Z</time>
      </trkpt>
      <trkpt lat="42.4265940" lon="-8.6386420">
        <ele>21.7</ele>
        <time>2021-05-21T12:54:17Z</time>
      </trkpt>
      <trkpt lat="42.4265960" lon="-8.6386470">
        <ele>21.7</ele>
        <time>2021-05-21T12:54:18Z</time>
      </trkpt>
      <trkpt lat="42.4265980" lon="-8.6386450">
        <ele>21.7</ele>
        <time>2021-05-21T12:54:19Z</time>
      </trkpt>
      <trkpt lat="42.4265880" lon="-8.6386510">
        <ele>21.7</ele>
        <time>2021-05-21T12:54:20Z</time>
      </trkpt>
      <trkpt lat="42.4265780" lon="-8.6386540">
        <ele>21.7</ele>
        <time>2021-05-21T12:54:21Z</time>
      </trkpt>
      <trkpt lat="42.4265610" lon="-8.6386590">
        <ele>21.8</ele>
        <time>2021-05-21T12:54:22Z</time>
      </trkpt>
      <trkpt lat="42.4265600" lon="-8.6386570">
        <ele>21.8</ele>
        <time>2021-05-21T12:54:23Z</time>
      </trkpt>
      <trkpt lat="42.4265590" lon="-8.6386570">
        <ele>21.8</ele>
        <time>2021-05-21T12:54:24Z</time>
      </trkpt>
      <trkpt lat="42.4265540" lon="-8.6386650">
        <ele>21.8</ele>
        <time>2021-05-21T12:54:25Z</time>
      </trkpt>
      <trkpt lat="42.4265530" lon="-8.6386710">
        <ele>21.8</ele>
        <time>2021-05-21T12:54:26Z</time>
      </trkpt>
      <trkpt lat="42.4265570" lon="-8.6386660">
        <ele>21.8</ele>
        <time>2021-05-21T12:54:27Z</time>
      </trkpt>
      <trkpt lat="42.4265680" lon="-8.6386590">
        <ele>21.8</ele>
        <time>2021-05-21T12:54:28Z</time>
      </trkpt>
      <trkpt lat="42.4265600" lon="-8.6386800">
        <ele>21.8</ele>
        <time>2021-05-21T12:54:29Z</time>
      </trkpt>
      <trkpt lat="42.4265600" lon="-8.6386800">
        <ele>21.8</ele>
        <time>2021-05-21T12:54:30Z</time>
      </trkpt>
      <trkpt lat="42.4265620" lon="-8.6386730">
        <ele>21.8</ele>
        <time>2021-05-21T12:54:31Z</time>
      </trkpt>
      <trkpt lat="42.4265630" lon="-8.6386730">
        <ele>21.8</ele>
        <time>2021-05-21T12:54:32Z</time>
      </trkpt>
      <trkpt lat="42.4265630" lon="-8.6386730">
        <ele>21.8</ele>
        <time>2021-05-21T12:54:33Z</time>
      </trkpt>
      <trkpt lat="42.4265630" lon="-8.6386730">
        <ele>21.8</ele>
        <time>2021-05-21T12:54:34Z</time>
      </trkpt>
      <trkpt lat="42.4265630" lon="-8.6386730">
        <ele>21.8</ele>
        <time>2021-05-21T12:54:35Z</time>
      </trkpt>
      <trkpt lat="42.4265610" lon="-8.6386600">
        <ele>21.8</ele>
        <time>2021-05-21T12:54:36Z</time>
      </trkpt>
      <trkpt lat="42.4265610" lon="-8.6386740">
        <ele>21.8</ele>
        <time>2021-05-21T12:54:37Z</time>
      </trkpt>
      <trkpt lat="42.4265610" lon="-8.6386740">
        <ele>21.8</ele>
        <time>2021-05-21T12:54:38Z</time>
      </trkpt>
      <trkpt lat="42.4265610" lon="-8.6386740">
        <ele>21.8</ele>
        <time>2021-05-21T12:54:39Z</time>
      </trkpt>
      <trkpt lat="42.4265610" lon="-8.6386740">
        <ele>21.8</ele>
        <time>2021-05-21T12:54:40Z</time>
      </trkpt>
      <trkpt lat="42.4265610" lon="-8.6386740">
        <ele>21.8</ele>
        <time>2021-05-21T12:54:41Z</time>
      </trkpt>
      <trkpt lat="42.4265710" lon="-8.6386680">
        <ele>21.8</ele>
        <time>2021-05-21T12:54:42Z</time>
      </trkpt>
      <trkpt lat="42.4265770" lon="-8.6386680">
        <ele>21.8</ele>
        <time>2021-05-21T12:54:43Z</time>
      </trkpt>
      <trkpt lat="42.4265790" lon="-8.6386670">
        <ele>21.8</ele>
        <time>2021-05-21T12:54:44Z</time>
      </trkpt>
      <trkpt lat="42.4265820" lon="-8.6386670">
        <ele>21.8</ele>
        <time>2021-05-21T12:54:45Z</time>
      </trkpt>
      <trkpt lat="42.4265840" lon="-8.6386700">
        <ele>21.8</ele>
        <time>2021-05-21T12:54:46Z</time>
      </trkpt>
      <trkpt lat="42.4265870" lon="-8.6386720">
        <ele>21.8</ele>
        <time>2021-05-21T12:54:47Z</time>
      </trkpt>
      <trkpt lat="42.4265940" lon="-8.6386740">
        <ele>21.8</ele>
        <time>2021-05-21T12:54:48Z</time>
      </trkpt>
      <trkpt lat="42.4266030" lon="-8.6386620">
        <ele>21.9</ele>
        <time>2021-05-21T12:54:49Z</time>
      </trkpt>
      <trkpt lat="42.4266070" lon="-8.6386650">
        <ele>21.9</ele>
        <time>2021-05-21T12:54:50Z</time>
      </trkpt>
      <trkpt lat="42.4266080" lon="-8.6386880">
        <ele>21.9</ele>
        <time>2021-05-21T12:54:51Z</time>
      </trkpt>
      <trkpt lat="42.4266140" lon="-8.6386950">
        <ele>21.9</ele>
        <time>2021-05-21T12:54:52Z</time>
      </trkpt>
      <trkpt lat="42.4266210" lon="-8.6387010">
        <ele>21.9</ele>
        <time>2021-05-21T12:54:53Z</time>
      </trkpt>
      <trkpt lat="42.4266280" lon="-8.6387160">
        <ele>21.9</ele>
        <time>2021-05-21T12:54:54Z</time>
      </trkpt>
      <trkpt lat="42.4266300" lon="-8.6387220">
        <ele>21.9</ele>
        <time>2021-05-21T12:54:55Z</time>
      </trkpt>
      <trkpt lat="42.4266350" lon="-8.6387090">
        <ele>21.9</ele>
        <time>2021-05-21T12:54:56Z</time>
      </trkpt>
      <trkpt lat="42.4266340" lon="-8.6387080">
        <ele>21.9</ele>
        <time>2021-05-21T12:54:57Z</time>
      </trkpt>
      <trkpt lat="42.4266380" lon="-8.6387010">
        <ele>21.9</ele>
        <time>2021-05-21T12:54:58Z</time>
      </trkpt>
      <trkpt lat="42.4266470" lon="-8.6386950">
        <ele>21.9</ele>
        <time>2021-05-21T12:54:59Z</time>
      </trkpt>
      <trkpt lat="42.4266610" lon="-8.6387100">
        <ele>21.9</ele>
        <time>2021-05-21T12:55:00Z</time>
      </trkpt>
      <trkpt lat="42.4266680" lon="-8.6387320">
        <ele>22.0</ele>
        <time>2021-05-21T12:55:01Z</time>
      </trkpt>
      <trkpt lat="42.4266820" lon="-8.6387090">
        <ele>22.0</ele>
        <time>2021-05-21T12:55:02Z</time>
      </trkpt>
      <trkpt lat="42.4266880" lon="-8.6387100">
        <ele>22.0</ele>
        <time>2021-05-21T12:55:03Z</time>
      </trkpt>
      <trkpt lat="42.4266930" lon="-8.6387100">
        <ele>22.0</ele>
        <time>2021-05-21T12:55:04Z</time>
      </trkpt>
      <trkpt lat="42.4266990" lon="-8.6387110">
        <ele>22.0</ele>
        <time>2021-05-21T12:55:05Z</time>
      </trkpt>
      <trkpt lat="42.4267040" lon="-8.6387110">
        <ele>22.0</ele>
        <time>2021-05-21T12:55:06Z</time>
      </trkpt>
      <trkpt lat="42.4267120" lon="-8.6387300">
        <ele>22.0</ele>
        <time>2021-05-21T12:55:07Z</time>
      </trkpt>
      <trkpt lat="42.4267190" lon="-8.6387410">
        <ele>22.0</ele>
        <time>2021-05-21T12:55:08Z</time>
      </trkpt>
      <trkpt lat="42.4267250" lon="-8.6387520">
        <ele>22.0</ele>
        <time>2021-05-21T12:55:09Z</time>
      </trkpt>
      <trkpt lat="42.4267360" lon="-8.6388020">
        <ele>22.1</ele>
        <time>2021-05-21T12:55:10Z</time>
      </trkpt>
      <trkpt lat="42.4267400" lon="-8.6388240">
        <ele>22.1</ele>
        <time>2021-05-21T12:55:11Z</time>
      </trkpt>
      <trkpt lat="42.4267510" lon="-8.6388830">
        <ele>22.1</ele>
        <time>2021-05-21T12:55:12Z</time>
      </trkpt>
      <trkpt lat="42.4267630" lon="-8.6389300">
        <ele>22.1</ele>
        <time>2021-05-21T12:55:13Z</time>
      </trkpt>
      <trkpt lat="42.4267900" lon="-8.6389650">
        <ele>22.2</ele>
        <time>2021-05-21T12:55:14Z</time>
      </trkpt>
      <trkpt lat="42.4268180" lon="-8.6389990">
        <ele>22.3</ele>
        <time>2021-05-21T12:55:15Z</time>
      </trkpt>
      <trkpt lat="42.4268290" lon="-8.6389890">
        <ele>22.4</ele>
        <time>2021-05-21T12:55:16Z</time>
      </trkpt>
      <trkpt lat="42.4268380" lon="-8.6389860">
        <ele>22.4</ele>
        <time>2021-05-21T12:55:17Z</time>
      </trkpt>
      <trkpt lat="42.4268470" lon="-8.6389820">
        <ele>22.4</ele>
        <time>2021-05-21T12:55:18Z</time>
      </trkpt>
      <trkpt lat="42.4268560" lon="-8.6389790">
        <ele>22.4</ele>
        <time>2021-05-21T12:55:19Z</time>
      </trkpt>
      <trkpt lat="42.4268940" lon="-8.6390130">
        <ele>22.5</ele>
        <time>2021-05-21T12:55:20Z</time>
      </trkpt>
      <trkpt lat="42.4269150" lon="-8.6390360">
        <ele>22.6</ele>
        <time>2021-05-21T12:55:21Z</time>
      </trkpt>
      <trkpt lat="42.4269170" lon="-8.6390460">
        <ele>22.6</ele>
        <time>2021-05-21T12:55:22Z</time>
      </trkpt>
      <trkpt lat="42.4269200" lon="-8.6390930">
        <ele>22.7</ele>
        <time>2021-05-21T12:55:23Z</time>
      </trkpt>
      <trkpt lat="42.4269260" lon="-8.6391180">
        <ele>22.8</ele>
        <time>2021-05-21T12:55:24Z</time>
      </trkpt>
      <trkpt lat="42.4269380" lon="-8.6391590">
        <ele>22.9</ele>
        <time>2021-05-21T12:55:25Z</time>
      </trkpt>
      <trkpt lat="42.4269410" lon="-8.6391860">
        <ele>23.0</ele>
        <time>2021-05-21T12:55:26Z</time>
      </trkpt>
      <trkpt lat="42.4269490" lon="-8.6392060">
        <ele>23.1</ele>
        <time>2021-05-21T12:55:27Z</time>
      </trkpt>
      <trkpt lat="42.4269530" lon="-8.6392300">
        <ele>23.1</ele>
        <time>2021-05-21T12:55:28Z</time>
      </trkpt>
      <trkpt lat="42.4269540" lon="-8.6392320">
        <ele>23.1</ele>
        <time>2021-05-21T12:55:29Z</time>
      </trkpt>
      <trkpt lat="42.4269460" lon="-8.6392080">
        <ele>23.2</ele>
        <time>2021-05-21T12:55:30Z</time>
      </trkpt>
      <trkpt lat="42.4269350" lon="-8.6392020">
        <ele>23.3</ele>
        <time>2021-05-21T12:55:31Z</time>
      </trkpt>
      <trkpt lat="42.4269280" lon="-8.6392000">
        <ele>23.3</ele>
        <time>2021-05-21T12:55:32Z</time>
      </trkpt>
      <trkpt lat="42.4269350" lon="-8.6392070">
        <ele>23.3</ele>
        <time>2021-05-21T12:55:33Z</time>
      </trkpt>
      <trkpt lat="42.4269210" lon="-8.6391860">
        <ele>23.4</ele>
        <time>2021-05-21T12:55:34Z</time>
      </trkpt>
      <trkpt lat="42.4269130" lon="-8.6391790">
        <ele>23.5</ele>
        <time>2021-05-21T12:55:35Z</time>
      </trkpt>
      <trkpt lat="42.4269110" lon="-8.6391700">
        <ele>23.5</ele>
        <time>2021-05-21T12:55:36Z</time>
      </trkpt>
      <trkpt lat="42.4269060" lon="-8.6391920">
        <ele>23.6</ele>
        <time>2021-05-21T12:55:37Z</time>
      </trkpt>
      <trkpt lat="42.4268940" lon="-8.6392020">
        <ele>23.7</ele>
        <time>2021-05-21T12:55:38Z</time>
      </trkpt>
      <trkpt lat="42.4268890" lon="-8.6392040">
        <ele>23.7</ele>
        <time>2021-05-21T12:55:39Z</time>
      </trkpt>
      <trkpt lat="42.4268870" lon="-8.6391900">
        <ele>23.7</ele>
        <time>2021-05-21T12:55:40Z</time>
      </trkpt>
      <trkpt lat="42.4268790" lon="-8.6392140">
        <ele>23.8</ele>
        <time>2021-05-21T12:55:41Z</time>
      </trkpt>
      <trkpt lat="42.4268860" lon="-8.6392290">
        <ele>23.9</ele>
        <time>2021-05-21T12:55:42Z</time>
      </trkpt>
      <trkpt lat="42.4268950" lon="-8.6392500">
        <ele>24.0</ele>
        <time>2021-05-21T12:55:43Z</time>
      </trkpt>
      <trkpt lat="42.4269140" lon="-8.6392710">
        <ele>24.1</ele>
        <time>2021-05-21T12:55:44Z</time>
      </trkpt>
      <trkpt lat="42.4269190" lon="-8.6392900">
        <ele>24.2</ele>
        <time>2021-05-21T12:55:45Z</time>
      </trkpt>
      <trkpt lat="42.4269360" lon="-8.6392910">
        <ele>24.3</ele>
        <time>2021-05-21T12:55:46Z</time>
      </trkpt>
      <trkpt lat="42.4269420" lon="-8.6393160">
        <ele>24.4</ele>
        <time>2021-05-21T12:55:47Z</time>
      </trkpt>
      <trkpt lat="42.4269560" lon="-8.6393140">
        <ele>24.5</ele>
        <time>2021-05-21T12:55:48Z</time>
      </trkpt>
      <trkpt lat="42.4269710" lon="-8.6393120">
        <ele>24.6</ele>
        <time>2021-05-21T12:55:49Z</time>
      </trkpt>
      <trkpt lat="42.4270000" lon="-8.6393080">
        <ele>24.8</ele>
        <time>2021-05-21T12:55:50Z</time>
      </trkpt>
      <trkpt lat="42.4270080" lon="-8.6393020">
        <ele>24.8</ele>
        <time>2021-05-21T12:55:51Z</time>
      </trkpt>
      <trkpt lat="42.4270330" lon="-8.6392750">
        <ele>25.0</ele>
        <time>2021-05-21T12:55:52Z</time>
      </trkpt>
      <trkpt lat="42.4270600" lon="-8.6392320">
        <ele>25.2</ele>
        <time>2021-05-21T12:55:53Z</time>
      </trkpt>
      <trkpt lat="42.4270720" lon="-8.6392200">
        <ele>25.3</ele>
        <time>2021-05-21T12:55:54Z</time>
      </trkpt>
      <trkpt lat="42.4270750" lon="-8.6392210">
        <ele>25.3</ele>
        <time>2021-05-21T12:55:55Z</time>
      </trkpt>
      <trkpt lat="42.4270830" lon="-8.6392170">
        <ele>25.4</ele>
        <time>2021-05-21T12:55:56Z</time>
      </trkpt>
      <trkpt lat="42.4270900" lon="-8.6392170">
        <ele>25.4</ele>
        <time>2021-05-21T12:55:57Z</time>
      </trkpt>
      <trkpt lat="42.4271000" lon="-8.6392150">
        <ele>25.5</ele>
        <time>2021-05-21T12:55:58Z</time>
      </trkpt>
      <trkpt lat="42.4271050" lon="-8.6392160">
        <ele>25.5</ele>
        <time>2021-05-21T12:55:59Z</time>
      </trkpt>
      <trkpt lat="42.4271090" lon="-8.6392180">
        <ele>25.5</ele>
        <time>2021-05-21T12:56:00Z</time>
      </trkpt>
      <trkpt lat="42.4271140" lon="-8.6392190">
        <ele>25.6</ele>
        <time>2021-05-21T12:56:01Z</time>
      </trkpt>
      <trkpt lat="42.4271180" lon="-8.6392210">
        <ele>25.5</ele>
        <time>2021-05-21T12:56:02Z</time>
      </trkpt>
      <trkpt lat="42.4271230" lon="-8.6392220">
        <ele>25.5</ele>
        <time>2021-05-21T12:56:03Z</time>
      </trkpt>
      <trkpt lat="42.4271270" lon="-8.6392240">
        <ele>25.5</ele>
        <time>2021-05-21T12:56:04Z</time>
      </trkpt>
      <trkpt lat="42.4271280" lon="-8.6392220">
        <ele>25.5</ele>
        <time>2021-05-21T12:56:05Z</time>
      </trkpt>
      <trkpt lat="42.4271210" lon="-8.6392280">
        <ele>25.5</ele>
        <time>2021-05-21T12:56:06Z</time>
      </trkpt>
      <trkpt lat="42.4271190" lon="-8.6392430">
        <ele>25.5</ele>
        <time>2021-05-21T12:56:07Z</time>
      </trkpt>
      <trkpt lat="42.4271300" lon="-8.6392660">
        <ele>25.5</ele>
        <time>2021-05-21T12:56:08Z</time>
      </trkpt>
      <trkpt lat="42.4271360" lon="-8.6392810">
        <ele>25.5</ele>
        <time>2021-05-21T12:56:09Z</time>
      </trkpt>
      <trkpt lat="42.4271390" lon="-8.6392880">
        <ele>25.5</ele>
        <time>2021-05-21T12:56:10Z</time>
      </trkpt>
      <trkpt lat="42.4271410" lon="-8.6392940">
        <ele>25.5</ele>
        <time>2021-05-21T12:56:11Z</time>
      </trkpt>
      <trkpt lat="42.4271440" lon="-8.6393010">
        <ele>25.5</ele>
        <time>2021-05-21T12:56:12Z</time>
      </trkpt>
      <trkpt lat="42.4271460" lon="-8.6393070">
        <ele>25.4</ele>
        <time>2021-05-21T12:56:13Z</time>
      </trkpt>
      <trkpt lat="42.4271480" lon="-8.6393130">
        <ele>25.4</ele>
        <time>2021-05-21T12:56:14Z</time>
      </trkpt>
      <trkpt lat="42.4271510" lon="-8.6393200">
        <ele>25.4</ele>
        <time>2021-05-21T12:56:15Z</time>
      </trkpt>
      <trkpt lat="42.4271530" lon="-8.6393260">
        <ele>25.4</ele>
        <time>2021-05-21T12:56:16Z</time>
      </trkpt>
      <trkpt lat="42.4271560" lon="-8.6393330">
        <ele>25.4</ele>
        <time>2021-05-21T12:56:17Z</time>
      </trkpt>
      <trkpt lat="42.4271580" lon="-8.6393390">
        <ele>25.4</ele>
        <time>2021-05-21T12:56:18Z</time>
      </trkpt>
      <trkpt lat="42.4271470" lon="-8.6393350">
        <ele>25.4</ele>
        <time>2021-05-21T12:56:19Z</time>
      </trkpt>
      <trkpt lat="42.4271410" lon="-8.6393280">
        <ele>25.4</ele>
        <time>2021-05-21T12:56:20Z</time>
      </trkpt>
      <trkpt lat="42.4271480" lon="-8.6393270">
        <ele>25.4</ele>
        <time>2021-05-21T12:56:21Z</time>
      </trkpt>
      <trkpt lat="42.4271600" lon="-8.6393350">
        <ele>25.4</ele>
        <time>2021-05-21T12:56:22Z</time>
      </trkpt>
      <trkpt lat="42.4271700" lon="-8.6393330">
        <ele>25.4</ele>
        <time>2021-05-21T12:56:23Z</time>
      </trkpt>
      <trkpt lat="42.4271790" lon="-8.6393190">
        <ele>25.4</ele>
        <time>2021-05-21T12:56:24Z</time>
      </trkpt>
      <trkpt lat="42.4271830" lon="-8.6393140">
        <ele>25.4</ele>
        <time>2021-05-21T12:56:25Z</time>
      </trkpt>
      <trkpt lat="42.4271830" lon="-8.6393230">
        <ele>25.4</ele>
        <time>2021-05-21T12:56:26Z</time>
      </trkpt>
      <trkpt lat="42.4271760" lon="-8.6393220">
        <ele>25.4</ele>
        <time>2021-05-21T12:56:27Z</time>
      </trkpt>
      <trkpt lat="42.4271710" lon="-8.6393200">
        <ele>25.4</ele>
        <time>2021-05-21T12:56:28Z</time>
      </trkpt>
      <trkpt lat="42.4271790" lon="-8.6393210">
        <ele>25.4</ele>
        <time>2021-05-21T12:56:29Z</time>
      </trkpt>
      <trkpt lat="42.4271790" lon="-8.6393340">
        <ele>25.4</ele>
        <time>2021-05-21T12:56:30Z</time>
      </trkpt>
      <trkpt lat="42.4271810" lon="-8.6393380">
        <ele>25.4</ele>
        <time>2021-05-21T12:56:31Z</time>
      </trkpt>
      <trkpt lat="42.4271850" lon="-8.6393510">
        <ele>25.3</ele>
        <time>2021-05-21T12:56:32Z</time>
      </trkpt>
      <trkpt lat="42.4271930" lon="-8.6393720">
        <ele>25.3</ele>
        <time>2021-05-21T12:56:33Z</time>
      </trkpt>
      <trkpt lat="42.4271920" lon="-8.6393840">
        <ele>25.3</ele>
        <time>2021-05-21T12:56:34Z</time>
      </trkpt>
      <trkpt lat="42.4271970" lon="-8.6393960">
        <ele>25.3</ele>
        <time>2021-05-21T12:56:35Z</time>
      </trkpt>
      <trkpt lat="42.4272110" lon="-8.6394010">
        <ele>25.3</ele>
        <time>2021-05-21T12:56:36Z</time>
      </trkpt>
      <trkpt lat="42.4272240" lon="-8.6394190">
        <ele>25.3</ele>
        <time>2021-05-21T12:56:37Z</time>
      </trkpt>
      <trkpt lat="42.4272330" lon="-8.6394300">
        <ele>25.3</ele>
        <time>2021-05-21T12:56:38Z</time>
      </trkpt>
      <trkpt lat="42.4272470" lon="-8.6394240">
        <ele>25.3</ele>
        <time>2021-05-21T12:56:39Z</time>
      </trkpt>
      <trkpt lat="42.4272490" lon="-8.6394340">
        <ele>25.3</ele>
        <time>2021-05-21T12:56:40Z</time>
      </trkpt>
      <trkpt lat="42.4272410" lon="-8.6394510">
        <ele>25.3</ele>
        <time>2021-05-21T12:56:41Z</time>
      </trkpt>
      <trkpt lat="42.4272450" lon="-8.6394550">
        <ele>25.3</ele>
        <time>2021-05-21T12:56:42Z</time>
      </trkpt>
      <trkpt lat="42.4272690" lon="-8.6394400">
        <ele>25.2</ele>
        <time>2021-05-21T12:56:43Z</time>
      </trkpt>
      <trkpt lat="42.4272820" lon="-8.6394320">
        <ele>25.2</ele>
        <time>2021-05-21T12:56:44Z</time>
      </trkpt>
      <trkpt lat="42.4272820" lon="-8.6394320">
        <ele>25.2</ele>
        <time>2021-05-21T12:56:45Z</time>
      </trkpt>
      <trkpt lat="42.4273160" lon="-8.6394300">
        <ele>25.2</ele>
        <time>2021-05-21T12:56:46Z</time>
      </trkpt>
      <trkpt lat="42.4273180" lon="-8.6394340">
        <ele>25.2</ele>
        <time>2021-05-21T12:56:47Z</time>
      </trkpt>
      <trkpt lat="42.4273190" lon="-8.6394330">
        <ele>25.2</ele>
        <time>2021-05-21T12:56:48Z</time>
      </trkpt>
      <trkpt lat="42.4273200" lon="-8.6394350">
        <ele>25.2</ele>
        <time>2021-05-21T12:56:49Z</time>
      </trkpt>
      <trkpt lat="42.4273210" lon="-8.6394420">
        <ele>25.2</ele>
        <time>2021-05-21T12:56:50Z</time>
      </trkpt>
      <trkpt lat="42.4273250" lon="-8.6394410">
        <ele>25.2</ele>
        <time>2021-05-21T12:56:51Z</time>
      </trkpt>
      <trkpt lat="42.4273230" lon="-8.6394710">
        <ele>25.2</ele>
        <time>2021-05-21T12:56:52Z</time>
      </trkpt>
      <trkpt lat="42.4273220" lon="-8.6394770">
        <ele>25.2</ele>
        <time>2021-05-21T12:56:53Z</time>
      </trkpt>
      <trkpt lat="42.4273220" lon="-8.6394810">
        <ele>25.2</ele>
        <time>2021-05-21T12:56:54Z</time>
      </trkpt>
      <trkpt lat="42.4273200" lon="-8.6394810">
        <ele>25.2</ele>
        <time>2021-05-21T12:56:55Z</time>
      </trkpt>
      <trkpt lat="42.4273250" lon="-8.6394810">
        <ele>25.2</ele>
        <time>2021-05-21T12:56:56Z</time>
      </trkpt>
      <trkpt lat="42.4273330" lon="-8.6394840">
        <ele>25.2</ele>
        <time>2021-05-21T12:56:57Z</time>
      </trkpt>
      <trkpt lat="42.4273350" lon="-8.6394830">
        <ele>25.2</ele>
        <time>2021-05-21T12:56:58Z</time>
      </trkpt>
      <trkpt lat="42.4273370" lon="-8.6394810">
        <ele>25.1</ele>
        <time>2021-05-21T12:56:59Z</time>
      </trkpt>
      <trkpt lat="42.4273420" lon="-8.6394790">
        <ele>25.1</ele>
        <time>2021-05-21T12:57:00Z</time>
      </trkpt>
      <trkpt lat="42.4273510" lon="-8.6394800">
        <ele>25.1</ele>
        <time>2021-05-21T12:57:01Z</time>
      </trkpt>
      <trkpt lat="42.4273560" lon="-8.6394730">
        <ele>25.1</ele>
        <time>2021-05-21T12:57:02Z</time>
      </trkpt>
      <trkpt lat="42.4273540" lon="-8.6394670">
        <ele>25.1</ele>
        <time>2021-05-21T12:57:03Z</time>
      </trkpt>
      <trkpt lat="42.4273550" lon="-8.6394580">
        <ele>25.1</ele>
        <time>2021-05-21T12:57:04Z</time>
      </trkpt>
      <trkpt lat="42.4273570" lon="-8.6394530">
        <ele>25.1</ele>
        <time>2021-05-21T12:57:05Z</time>
      </trkpt>
      <trkpt lat="42.4273550" lon="-8.6394410">
        <ele>25.1</ele>
        <time>2021-05-21T12:57:06Z</time>
      </trkpt>
      <trkpt lat="42.4273590" lon="-8.6394300">
        <ele>25.1</ele>
        <time>2021-05-21T12:57:07Z</time>
      </trkpt>
      <trkpt lat="42.4273500" lon="-8.6394080">
        <ele>25.1</ele>
        <time>2021-05-21T12:57:08Z</time>
      </trkpt>
      <trkpt lat="42.4273440" lon="-8.6393980">
        <ele>25.1</ele>
        <time>2021-05-21T12:57:09Z</time>
      </trkpt>
      <trkpt lat="42.4273360" lon="-8.6393930">
        <ele>25.1</ele>
        <time>2021-05-21T12:57:10Z</time>
      </trkpt>
      <trkpt lat="42.4273330" lon="-8.6393880">
        <ele>25.1</ele>
        <time>2021-05-21T12:57:11Z</time>
      </trkpt>
      <trkpt lat="42.4273390" lon="-8.6393910">
        <ele>25.1</ele>
        <time>2021-05-21T12:57:12Z</time>
      </trkpt>
      <trkpt lat="42.4273320" lon="-8.6393830">
        <ele>25.1</ele>
        <time>2021-05-21T12:57:13Z</time>
      </trkpt>
      <trkpt lat="42.4273260" lon="-8.6393800">
        <ele>25.1</ele>
        <time>2021-05-21T12:57:14Z</time>
      </trkpt>
      <trkpt lat="42.4273190" lon="-8.6393770">
        <ele>25.1</ele>
        <time>2021-05-21T12:57:15Z</time>
      </trkpt>
      <trkpt lat="42.4273110" lon="-8.6393700">
        <ele>25.1</ele>
        <time>2021-05-21T12:57:16Z</time>
      </trkpt>
      <trkpt lat="42.4273080" lon="-8.6393630">
        <ele>25.1</ele>
        <time>2021-05-21T12:57:17Z</time>
      </trkpt>
      <trkpt lat="42.4273030" lon="-8.6393580">
        <ele>25.1</ele>
        <time>2021-05-21T12:57:18Z</time>
      </trkpt>
      <trkpt lat="42.4272930" lon="-8.6393620">
        <ele>25.1</ele>
        <time>2021-05-21T12:57:19Z</time>
      </trkpt>
      <trkpt lat="42.4272900" lon="-8.6393620">
        <ele>25.1</ele>
        <time>2021-05-21T12:57:20Z</time>
      </trkpt>
      <trkpt lat="42.4272860" lon="-8.6393630">
        <ele>25.1</ele>
        <time>2021-05-21T12:57:21Z</time>
      </trkpt>
      <trkpt lat="42.4272870" lon="-8.6393620">
        <ele>25.1</ele>
        <time>2021-05-21T12:57:22Z</time>
      </trkpt>
      <trkpt lat="42.4272850" lon="-8.6393660">
        <ele>25.1</ele>
        <time>2021-05-21T12:57:23Z</time>
      </trkpt>
      <trkpt lat="42.4272830" lon="-8.6393650">
        <ele>25.1</ele>
        <time>2021-05-21T12:57:24Z</time>
      </trkpt>
      <trkpt lat="42.4272820" lon="-8.6393650">
        <ele>25.1</ele>
        <time>2021-05-21T12:57:25Z</time>
      </trkpt>
      <trkpt lat="42.4272840" lon="-8.6393620">
        <ele>25.1</ele>
        <time>2021-05-21T12:57:26Z</time>
      </trkpt>
      <trkpt lat="42.4272850" lon="-8.6393610">
        <ele>25.1</ele>
        <time>2021-05-21T12:57:27Z</time>
      </trkpt>
      <trkpt lat="42.4272910" lon="-8.6393550">
        <ele>25.1</ele>
        <time>2021-05-21T12:57:28Z</time>
      </trkpt>
      <trkpt lat="42.4272930" lon="-8.6393580">
        <ele>25.1</ele>
        <time>2021-05-21T12:57:29Z</time>
      </trkpt>
      <trkpt lat="42.4272950" lon="-8.6393640">
        <ele>25.1</ele>
        <time>2021-05-21T12:57:30Z</time>
      </trkpt>
      <trkpt lat="42.4272920" lon="-8.6393650">
        <ele>25.1</ele>
        <time>2021-05-21T12:57:31Z</time>
      </trkpt>
      <trkpt lat="42.4272840" lon="-8.6393580">
        <ele>25.1</ele>
        <time>2021-05-21T12:57:32Z</time>
      </trkpt>
      <trkpt lat="42.4272800" lon="-8.6393590">
        <ele>25.1</ele>
        <time>2021-05-21T12:57:33Z</time>
      </trkpt>
      <trkpt lat="42.4272760" lon="-8.6393620">
        <ele>25.1</ele>
        <time>2021-05-21T12:57:34Z</time>
      </trkpt>
      <trkpt lat="42.4272760" lon="-8.6393630">
        <ele>25.1</ele>
        <time>2021-05-21T12:57:35Z</time>
      </trkpt>
      <trkpt lat="42.4272770" lon="-8.6393640">
        <ele>25.1</ele>
        <time>2021-05-21T12:57:36Z</time>
      </trkpt>
      <trkpt lat="42.4272830" lon="-8.6393640">
        <ele>25.1</ele>
        <time>2021-05-21T12:57:37Z</time>
      </trkpt>
      <trkpt lat="42.4272890" lon="-8.6393770">
        <ele>25.1</ele>
        <time>2021-05-21T12:57:38Z</time>
      </trkpt>
      <trkpt lat="42.4272980" lon="-8.6393840">
        <ele>25.1</ele>
        <time>2021-05-21T12:57:39Z</time>
      </trkpt>
      <trkpt lat="42.4273070" lon="-8.6393860">
        <ele>25.1</ele>
        <time>2021-05-21T12:57:40Z</time>
      </trkpt>
      <trkpt lat="42.4273160" lon="-8.6393940">
        <ele>25.1</ele>
        <time>2021-05-21T12:57:41Z</time>
      </trkpt>
      <trkpt lat="42.4273160" lon="-8.6393960">
        <ele>25.1</ele>
        <time>2021-05-21T12:57:42Z</time>
      </trkpt>
      <trkpt lat="42.4273180" lon="-8.6394020">
        <ele>25.1</ele>
        <time>2021-05-21T12:57:43Z</time>
      </trkpt>
      <trkpt lat="42.4273300" lon="-8.6394170">
        <ele>25.1</ele>
        <time>2021-05-21T12:57:44Z</time>
      </trkpt>
      <trkpt lat="42.4273340" lon="-8.6394250">
        <ele>25.1</ele>
        <time>2021-05-21T12:57:45Z</time>
      </trkpt>
      <trkpt lat="42.4273350" lon="-8.6394320">
        <ele>25.1</ele>
        <time>2021-05-21T12:57:46Z</time>
      </trkpt>
      <trkpt lat="42.4273290" lon="-8.6394310">
        <ele>25.1</ele>
        <time>2021-05-21T12:57:47Z</time>
      </trkpt>
      <trkpt lat="42.4273320" lon="-8.6394360">
        <ele>25.1</ele>
        <time>2021-05-21T12:57:48Z</time>
      </trkpt>
      <trkpt lat="42.4273310" lon="-8.6394500">
        <ele>25.1</ele>
        <time>2021-05-21T12:57:49Z</time>
      </trkpt>
      <trkpt lat="42.4273330" lon="-8.6394660">
        <ele>25.1</ele>
        <time>2021-05-21T12:57:50Z</time>
      </trkpt>
      <trkpt lat="42.4273280" lon="-8.6394750">
        <ele>25.1</ele>
        <time>2021-05-21T12:57:51Z</time>
      </trkpt>
      <trkpt lat="42.4273260" lon="-8.6394790">
        <ele>25.1</ele>
        <time>2021-05-21T12:57:52Z</time>
      </trkpt>
      <trkpt lat="42.4273270" lon="-8.6394960">
        <ele>25.1</ele>
        <time>2021-05-21T12:57:53Z</time>
      </trkpt>
      <trkpt lat="42.4273290" lon="-8.6394950">
        <ele>25.1</ele>
        <time>2021-05-21T12:57:54Z</time>
      </trkpt>
      <trkpt lat="42.4273320" lon="-8.6395060">
        <ele>25.1</ele>
        <time>2021-05-21T12:57:55Z</time>
      </trkpt>
      <trkpt lat="42.4273320" lon="-8.6395170">
        <ele>25.1</ele>
        <time>2021-05-21T12:57:56Z</time>
      </trkpt>
      <trkpt lat="42.4273340" lon="-8.6395280">
        <ele>25.1</ele>
        <time>2021-05-21T12:57:57Z</time>
      </trkpt>
      <trkpt lat="42.4273330" lon="-8.6395430">
        <ele>25.1</ele>
        <time>2021-05-21T12:57:58Z</time>
      </trkpt>
      <trkpt lat="42.4273340" lon="-8.6395580">
        <ele>25.1</ele>
        <time>2021-05-21T12:57:59Z</time>
      </trkpt>
      <trkpt lat="42.4273280" lon="-8.6395840">
        <ele>25.2</ele>
        <time>2021-05-21T12:58:00Z</time>
      </trkpt>
      <trkpt lat="42.4273350" lon="-8.6395800">
        <ele>25.2</ele>
        <time>2021-05-21T12:58:01Z</time>
      </trkpt>
      <trkpt lat="42.4273340" lon="-8.6396000">
        <ele>25.2</ele>
        <time>2021-05-21T12:58:02Z</time>
      </trkpt>
      <trkpt lat="42.4273260" lon="-8.6396040">
        <ele>25.2</ele>
        <time>2021-05-21T12:58:03Z</time>
      </trkpt>
      <trkpt lat="42.4273290" lon="-8.6396220">
        <ele>25.2</ele>
        <time>2021-05-21T12:58:04Z</time>
      </trkpt>
      <trkpt lat="42.4273350" lon="-8.6396270">
        <ele>25.2</ele>
        <time>2021-05-21T12:58:05Z</time>
      </trkpt>
      <trkpt lat="42.4273360" lon="-8.6396390">
        <ele>25.3</ele>
        <time>2021-05-21T12:58:06Z</time>
      </trkpt>
      <trkpt lat="42.4273360" lon="-8.6396600">
        <ele>25.3</ele>
        <time>2021-05-21T12:58:07Z</time>
      </trkpt>
      <trkpt lat="42.4273390" lon="-8.6396700">
        <ele>25.3</ele>
        <time>2021-05-21T12:58:08Z</time>
      </trkpt>
      <trkpt lat="42.4273440" lon="-8.6396840">
        <ele>25.3</ele>
        <time>2021-05-21T12:58:09Z</time>
      </trkpt>
      <trkpt lat="42.4273450" lon="-8.6396980">
        <ele>25.3</ele>
        <time>2021-05-21T12:58:10Z</time>
      </trkpt>
      <trkpt lat="42.4273420" lon="-8.6397310">
        <ele>25.3</ele>
        <time>2021-05-21T12:58:11Z</time>
      </trkpt>
      <trkpt lat="42.4273420" lon="-8.6397390">
        <ele>25.3</ele>
        <time>2021-05-21T12:58:12Z</time>
      </trkpt>
      <trkpt lat="42.4273430" lon="-8.6397470">
        <ele>25.3</ele>
        <time>2021-05-21T12:58:13Z</time>
      </trkpt>
      <trkpt lat="42.4273430" lon="-8.6397550">
        <ele>25.3</ele>
        <time>2021-05-21T12:58:14Z</time>
      </trkpt>
      <trkpt lat="42.4273440" lon="-8.6397630">
        <ele>25.3</ele>
        <time>2021-05-21T12:58:15Z</time>
      </trkpt>
      <trkpt lat="42.4273540" lon="-8.6397700">
        <ele>25.3</ele>
        <time>2021-05-21T12:58:16Z</time>
      </trkpt>
      <trkpt lat="42.4273600" lon="-8.6397790">
        <ele>25.3</ele>
        <time>2021-05-21T12:58:17Z</time>
      </trkpt>
      <trkpt lat="42.4273660" lon="-8.6397880">
        <ele>25.3</ele>
        <time>2021-05-21T12:58:18Z</time>
      </trkpt>
      <trkpt lat="42.4273750" lon="-8.6398090">
        <ele>25.3</ele>
        <time>2021-05-21T12:58:19Z</time>
      </trkpt>
      <trkpt lat="42.4273780" lon="-8.6398180">
        <ele>25.3</ele>
        <time>2021-05-21T12:58:20Z</time>
      </trkpt>
      <trkpt lat="42.4273800" lon="-8.6398280">
        <ele>25.4</ele>
        <time>2021-05-21T12:58:21Z</time>
      </trkpt>
      <trkpt lat="42.4273820" lon="-8.6398370">
        <ele>25.4</ele>
        <time>2021-05-21T12:58:22Z</time>
      </trkpt>
      <trkpt lat="42.4273950" lon="-8.6398420">
        <ele>25.4</ele>
        <time>2021-05-21T12:58:23Z</time>
      </trkpt>
      <trkpt lat="42.4274030" lon="-8.6398490">
        <ele>25.4</ele>
        <time>2021-05-21T12:58:24Z</time>
      </trkpt>
      <trkpt lat="42.4274090" lon="-8.6398580">
        <ele>25.4</ele>
        <time>2021-05-21T12:58:25Z</time>
      </trkpt>
      <trkpt lat="42.4274130" lon="-8.6398620">
        <ele>25.4</ele>
        <time>2021-05-21T12:58:26Z</time>
      </trkpt>
      <trkpt lat="42.4274230" lon="-8.6398640">
        <ele>25.4</ele>
        <time>2021-05-21T12:58:27Z</time>
      </trkpt>
      <trkpt lat="42.4274290" lon="-8.6398750">
        <ele>25.4</ele>
        <time>2021-05-21T12:58:28Z</time>
      </trkpt>
      <trkpt lat="42.4274350" lon="-8.6398910">
        <ele>25.4</ele>
        <time>2021-05-21T12:58:29Z</time>
      </trkpt>
      <trkpt lat="42.4274450" lon="-8.6398970">
        <ele>25.4</ele>
        <time>2021-05-21T12:58:30Z</time>
      </trkpt>
      <trkpt lat="42.4274520" lon="-8.6399140">
        <ele>25.4</ele>
        <time>2021-05-21T12:58:31Z</time>
      </trkpt>
      <trkpt lat="42.4274600" lon="-8.6399170">
        <ele>25.4</ele>
        <time>2021-05-21T12:58:32Z</time>
      </trkpt>
      <trkpt lat="42.4274740" lon="-8.6399120">
        <ele>25.4</ele>
        <time>2021-05-21T12:58:33Z</time>
      </trkpt>
      <trkpt lat="42.4274710" lon="-8.6399270">
        <ele>25.4</ele>
        <time>2021-05-21T12:58:34Z</time>
      </trkpt>
      <trkpt lat="42.4274930" lon="-8.6399100">
        <ele>25.4</ele>
        <time>2021-05-21T12:58:35Z</time>
      </trkpt>
      <trkpt lat="42.4275170" lon="-8.6399000">
        <ele>25.4</ele>
        <time>2021-05-21T12:58:36Z</time>
      </trkpt>
      <trkpt lat="42.4275290" lon="-8.6398940">
        <ele>25.4</ele>
        <time>2021-05-21T12:58:37Z</time>
      </trkpt>
      <trkpt lat="42.4275560" lon="-8.6398770">
        <ele>25.5</ele>
        <time>2021-05-21T12:58:38Z</time>
      </trkpt>
      <trkpt lat="42.4275860" lon="-8.6398650">
        <ele>25.5</ele>
        <time>2021-05-21T12:58:39Z</time>
      </trkpt>
      <trkpt lat="42.4276020" lon="-8.6398590">
        <ele>25.5</ele>
        <time>2021-05-21T12:58:40Z</time>
      </trkpt>
      <trkpt lat="42.4276160" lon="-8.6398570">
        <ele>25.5</ele>
        <time>2021-05-21T12:58:41Z</time>
      </trkpt>
      <trkpt lat="42.4276310" lon="-8.6398500">
        <ele>25.5</ele>
        <time>2021-05-21T12:58:42Z</time>
      </trkpt>
      <trkpt lat="42.4276410" lon="-8.6398500">
        <ele>25.5</ele>
        <time>2021-05-21T12:58:43Z</time>
      </trkpt>
      <trkpt lat="42.4276490" lon="-8.6398560">
        <ele>25.5</ele>
        <time>2021-05-21T12:58:44Z</time>
      </trkpt>
      <trkpt lat="42.4276550" lon="-8.6398660">
        <ele>25.5</ele>
        <time>2021-05-21T12:58:45Z</time>
      </trkpt>
      <trkpt lat="42.4276530" lon="-8.6398880">
        <ele>25.5</ele>
        <time>2021-05-21T12:58:46Z</time>
      </trkpt>
      <trkpt lat="42.4276540" lon="-8.6399010">
        <ele>25.5</ele>
        <time>2021-05-21T12:58:47Z</time>
      </trkpt>
      <trkpt lat="42.4276550" lon="-8.6399100">
        <ele>25.5</ele>
        <time>2021-05-21T12:58:48Z</time>
      </trkpt>
      <trkpt lat="42.4276640" lon="-8.6399120">
        <ele>25.5</ele>
        <time>2021-05-21T12:58:49Z</time>
      </trkpt>
      <trkpt lat="42.4276790" lon="-8.6399190">
        <ele>25.5</ele>
        <time>2021-05-21T12:58:50Z</time>
      </trkpt>
      <trkpt lat="42.4276840" lon="-8.6399300">
        <ele>25.5</ele>
        <time>2021-05-21T12:58:51Z</time>
      </trkpt>
      <trkpt lat="42.4276920" lon="-8.6399450">
        <ele>25.5</ele>
        <time>2021-05-21T12:58:52Z</time>
      </trkpt>
      <trkpt lat="42.4277000" lon="-8.6399470">
        <ele>25.5</ele>
        <time>2021-05-21T12:58:53Z</time>
      </trkpt>
      <trkpt lat="42.4277130" lon="-8.6399600">
        <ele>25.5</ele>
        <time>2021-05-21T12:58:54Z</time>
      </trkpt>
      <trkpt lat="42.4277190" lon="-8.6399660">
        <ele>25.6</ele>
        <time>2021-05-21T12:58:55Z</time>
      </trkpt>
      <trkpt lat="42.4277270" lon="-8.6399690">
        <ele>25.6</ele>
        <time>2021-05-21T12:58:56Z</time>
      </trkpt>
      <trkpt lat="42.4277190" lon="-8.6399880">
        <ele>25.6</ele>
        <time>2021-05-21T12:58:57Z</time>
      </trkpt>
      <trkpt lat="42.4277140" lon="-8.6399950">
        <ele>25.6</ele>
        <time>2021-05-21T12:58:58Z</time>
      </trkpt>
      <trkpt lat="42.4277080" lon="-8.6400030">
        <ele>25.6</ele>
        <time>2021-05-21T12:58:59Z</time>
      </trkpt>
      <trkpt lat="42.4277020" lon="-8.6400100">
        <ele>25.6</ele>
        <time>2021-05-21T12:59:00Z</time>
      </trkpt>
      <trkpt lat="42.4276790" lon="-8.6400440">
        <ele>25.6</ele>
        <time>2021-05-21T12:59:01Z</time>
      </trkpt>
      <trkpt lat="42.4276760" lon="-8.6400480">
        <ele>25.6</ele>
        <time>2021-05-21T12:59:02Z</time>
      </trkpt>
      <trkpt lat="42.4276750" lon="-8.6400480">
        <ele>25.6</ele>
        <time>2021-05-21T12:59:03Z</time>
      </trkpt>
      <trkpt lat="42.4276730" lon="-8.6400490">
        <ele>25.6</ele>
        <time>2021-05-21T12:59:04Z</time>
      </trkpt>
      <trkpt lat="42.4276730" lon="-8.6400500">
        <ele>25.6</ele>
        <time>2021-05-21T12:59:05Z</time>
      </trkpt>
      <trkpt lat="42.4276660" lon="-8.6400580">
        <ele>25.6</ele>
        <time>2021-05-21T12:59:06Z</time>
      </trkpt>
      <trkpt lat="42.4276660" lon="-8.6400580">
        <ele>25.6</ele>
        <time>2021-05-21T12:59:07Z</time>
      </trkpt>
      <trkpt lat="42.4276560" lon="-8.6400660">
        <ele>25.6</ele>
        <time>2021-05-21T12:59:08Z</time>
      </trkpt>
      <trkpt lat="42.4276540" lon="-8.6400720">
        <ele>25.6</ele>
        <time>2021-05-21T12:59:09Z</time>
      </trkpt>
      <trkpt lat="42.4276520" lon="-8.6400770">
        <ele>25.6</ele>
        <time>2021-05-21T12:59:10Z</time>
      </trkpt>
      <trkpt lat="42.4276490" lon="-8.6400820">
        <ele>25.6</ele>
        <time>2021-05-21T12:59:11Z</time>
      </trkpt>
      <trkpt lat="42.4276470" lon="-8.6400870">
        <ele>25.6</ele>
        <time>2021-05-21T12:59:12Z</time>
      </trkpt>
      <trkpt lat="42.4276440" lon="-8.6400920">
        <ele>25.6</ele>
        <time>2021-05-21T12:59:13Z</time>
      </trkpt>
      <trkpt lat="42.4276410" lon="-8.6400970">
        <ele>25.6</ele>
        <time>2021-05-21T12:59:14Z</time>
      </trkpt>
      <trkpt lat="42.4276390" lon="-8.6401020">
        <ele>25.6</ele>
        <time>2021-05-21T12:59:15Z</time>
      </trkpt>
      <trkpt lat="42.4276360" lon="-8.6401070">
        <ele>25.6</ele>
        <time>2021-05-21T12:59:16Z</time>
      </trkpt>
      <trkpt lat="42.4276370" lon="-8.6401080">
        <ele>25.6</ele>
        <time>2021-05-21T12:59:17Z</time>
      </trkpt>
      <trkpt lat="42.4276350" lon="-8.6401060">
        <ele>25.6</ele>
        <time>2021-05-21T12:59:18Z</time>
      </trkpt>
      <trkpt lat="42.4276380" lon="-8.6401040">
        <ele>25.6</ele>
        <time>2021-05-21T12:59:19Z</time>
      </trkpt>
      <trkpt lat="42.4276380" lon="-8.6401060">
        <ele>25.6</ele>
        <time>2021-05-21T12:59:20Z</time>
      </trkpt>
      <trkpt lat="42.4276430" lon="-8.6401040">
        <ele>25.6</ele>
        <time>2021-05-21T12:59:21Z</time>
      </trkpt>
      <trkpt lat="42.4276440" lon="-8.6401060">
        <ele>25.6</ele>
        <time>2021-05-21T12:59:22Z</time>
      </trkpt>
      <trkpt lat="42.4276480" lon="-8.6401030">
        <ele>25.6</ele>
        <time>2021-05-21T12:59:23Z</time>
      </trkpt>
      <trkpt lat="42.4276590" lon="-8.6401120">
        <ele>25.6</ele>
        <time>2021-05-21T12:59:24Z</time>
      </trkpt>
      <trkpt lat="42.4276540" lon="-8.6401200">
        <ele>25.6</ele>
        <time>2021-05-21T12:59:25Z</time>
      </trkpt>
      <trkpt lat="42.4276610" lon="-8.6401220">
        <ele>25.6</ele>
        <time>2021-05-21T12:59:26Z</time>
      </trkpt>
      <trkpt lat="42.4276650" lon="-8.6401180">
        <ele>25.6</ele>
        <time>2021-05-21T12:59:27Z</time>
      </trkpt>
      <trkpt lat="42.4276600" lon="-8.6401230">
        <ele>25.6</ele>
        <time>2021-05-21T12:59:28Z</time>
      </trkpt>
      <trkpt lat="42.4276650" lon="-8.6401260">
        <ele>25.6</ele>
        <time>2021-05-21T12:59:29Z</time>
      </trkpt>
      <trkpt lat="42.4276780" lon="-8.6401300">
        <ele>25.6</ele>
        <time>2021-05-21T12:59:30Z</time>
      </trkpt>
      <trkpt lat="42.4276920" lon="-8.6401280">
        <ele>25.7</ele>
        <time>2021-05-21T12:59:31Z</time>
      </trkpt>
      <trkpt lat="42.4276970" lon="-8.6401350">
        <ele>25.7</ele>
        <time>2021-05-21T12:59:32Z</time>
      </trkpt>
      <trkpt lat="42.4277060" lon="-8.6401350">
        <ele>25.7</ele>
        <time>2021-05-21T12:59:33Z</time>
      </trkpt>
      <trkpt lat="42.4277100" lon="-8.6401390">
        <ele>25.7</ele>
        <time>2021-05-21T12:59:34Z</time>
      </trkpt>
      <trkpt lat="42.4277100" lon="-8.6401430">
        <ele>25.7</ele>
        <time>2021-05-21T12:59:35Z</time>
      </trkpt>
      <trkpt lat="42.4277100" lon="-8.6401420">
        <ele>25.7</ele>
        <time>2021-05-21T12:59:36Z</time>
      </trkpt>
      <trkpt lat="42.4277070" lon="-8.6401510">
        <ele>25.7</ele>
        <time>2021-05-21T12:59:37Z</time>
      </trkpt>
      <trkpt lat="42.4277030" lon="-8.6401550">
        <ele>25.7</ele>
        <time>2021-05-21T12:59:38Z</time>
      </trkpt>
      <trkpt lat="42.4277040" lon="-8.6401580">
        <ele>25.7</ele>
        <time>2021-05-21T12:59:39Z</time>
      </trkpt>
      <trkpt lat="42.4277060" lon="-8.6401570">
        <ele>25.7</ele>
        <time>2021-05-21T12:59:40Z</time>
      </trkpt>
      <trkpt lat="42.4277130" lon="-8.6401620">
        <ele>25.7</ele>
        <time>2021-05-21T12:59:41Z</time>
      </trkpt>
      <trkpt lat="42.4277190" lon="-8.6401640">
        <ele>25.7</ele>
        <time>2021-05-21T12:59:42Z</time>
      </trkpt>
      <trkpt lat="42.4277290" lon="-8.6401690">
        <ele>25.7</ele>
        <time>2021-05-21T12:59:43Z</time>
      </trkpt>
      <trkpt lat="42.4277430" lon="-8.6401710">
        <ele>25.7</ele>
        <time>2021-05-21T12:59:44Z</time>
      </trkpt>
      <trkpt lat="42.4277510" lon="-8.6401760">
        <ele>25.7</ele>
        <time>2021-05-21T12:59:45Z</time>
      </trkpt>
      <trkpt lat="42.4277530" lon="-8.6401910">
        <ele>25.7</ele>
        <time>2021-05-21T12:59:46Z</time>
      </trkpt>
      <trkpt lat="42.4277550" lon="-8.6401960">
        <ele>25.7</ele>
        <time>2021-05-21T12:59:47Z</time>
      </trkpt>
      <trkpt lat="42.4277640" lon="-8.6401990">
        <ele>25.7</ele>
        <time>2021-05-21T12:59:48Z</time>
      </trkpt>
      <trkpt lat="42.4277690" lon="-8.6402070">
        <ele>25.7</ele>
        <time>2021-05-21T12:59:49Z</time>
      </trkpt>
      <trkpt lat="42.4277760" lon="-8.6402230">
        <ele>25.7</ele>
        <time>2021-05-21T12:59:50Z</time>
      </trkpt>
      <trkpt lat="42.4277810" lon="-8.6402340">
        <ele>25.7</ele>
        <time>2021-05-21T12:59:51Z</time>
      </trkpt>
      <trkpt lat="42.4277880" lon="-8.6402380">
        <ele>25.7</ele>
        <time>2021-05-21T12:59:52Z</time>
      </trkpt>
      <trkpt lat="42.4277820" lon="-8.6402490">
        <ele>25.7</ele>
        <time>2021-05-21T12:59:53Z</time>
      </trkpt>
      <trkpt lat="42.4277760" lon="-8.6402480">
        <ele>25.8</ele>
        <time>2021-05-21T12:59:54Z</time>
      </trkpt>
      <trkpt lat="42.4277920" lon="-8.6402430">
        <ele>25.8</ele>
        <time>2021-05-21T12:59:55Z</time>
      </trkpt>
      <trkpt lat="42.4277950" lon="-8.6402420">
        <ele>25.8</ele>
        <time>2021-05-21T12:59:56Z</time>
      </trkpt>
      <trkpt lat="42.4277930" lon="-8.6402470">
        <ele>25.8</ele>
        <time>2021-05-21T12:59:57Z</time>
      </trkpt>
      <trkpt lat="42.4277910" lon="-8.6402490">
        <ele>25.8</ele>
        <time>2021-05-21T12:59:58Z</time>
      </trkpt>
      <trkpt lat="42.4277940" lon="-8.6402540">
        <ele>25.8</ele>
        <time>2021-05-21T12:59:59Z</time>
      </trkpt>
      <trkpt lat="42.4277950" lon="-8.6402630">
        <ele>25.8</ele>
        <time>2021-05-21T13:00:00Z</time>
      </trkpt>
      <trkpt lat="42.4278030" lon="-8.6402700">
        <ele>25.8</ele>
        <time>2021-05-21T13:00:01Z</time>
      </trkpt>
      <trkpt lat="42.4278050" lon="-8.6402780">
        <ele>25.8</ele>
        <time>2021-05-21T13:00:02Z</time>
      </trkpt>
      <trkpt lat="42.4278220" lon="-8.6402780">
        <ele>25.8</ele>
        <time>2021-05-21T13:00:03Z</time>
      </trkpt>
      <trkpt lat="42.4278330" lon="-8.6402810">
        <ele>25.8</ele>
        <time>2021-05-21T13:00:04Z</time>
      </trkpt>
      <trkpt lat="42.4278450" lon="-8.6402900">
        <ele>25.8</ele>
        <time>2021-05-21T13:00:05Z</time>
      </trkpt>
      <trkpt lat="42.4278580" lon="-8.6402940">
        <ele>25.8</ele>
        <time>2021-05-21T13:00:06Z</time>
      </trkpt>
      <trkpt lat="42.4278650" lon="-8.6403020">
        <ele>25.8</ele>
        <time>2021-05-21T13:00:07Z</time>
      </trkpt>
      <trkpt lat="42.4278740" lon="-8.6403090">
        <ele>25.8</ele>
        <time>2021-05-21T13:00:08Z</time>
      </trkpt>
      <trkpt lat="42.4278780" lon="-8.6403160">
        <ele>25.8</ele>
        <time>2021-05-21T13:00:09Z</time>
      </trkpt>
      <trkpt lat="42.4278850" lon="-8.6403230">
        <ele>25.8</ele>
        <time>2021-05-21T13:00:10Z</time>
      </trkpt>
      <trkpt lat="42.4278990" lon="-8.6403330">
        <ele>25.8</ele>
        <time>2021-05-21T13:00:11Z</time>
      </trkpt>
      <trkpt lat="42.4279070" lon="-8.6403420">
        <ele>25.8</ele>
        <time>2021-05-21T13:00:12Z</time>
      </trkpt>
      <trkpt lat="42.4279120" lon="-8.6403490">
        <ele>25.9</ele>
        <time>2021-05-21T13:00:13Z</time>
      </trkpt>
      <trkpt lat="42.4279170" lon="-8.6403560">
        <ele>25.9</ele>
        <time>2021-05-21T13:00:14Z</time>
      </trkpt>
      <trkpt lat="42.4279130" lon="-8.6403590">
        <ele>25.9</ele>
        <time>2021-05-21T13:00:15Z</time>
      </trkpt>
      <trkpt lat="42.4279160" lon="-8.6403720">
        <ele>25.9</ele>
        <time>2021-05-21T13:00:16Z</time>
      </trkpt>
      <trkpt lat="42.4279200" lon="-8.6403770">
        <ele>25.9</ele>
        <time>2021-05-21T13:00:17Z</time>
      </trkpt>
      <trkpt lat="42.4279300" lon="-8.6403870">
        <ele>25.9</ele>
        <time>2021-05-21T13:00:18Z</time>
      </trkpt>
      <trkpt lat="42.4279370" lon="-8.6403930">
        <ele>25.9</ele>
        <time>2021-05-21T13:00:19Z</time>
      </trkpt>
      <trkpt lat="42.4279410" lon="-8.6403950">
        <ele>25.9</ele>
        <time>2021-05-21T13:00:20Z</time>
      </trkpt>
      <trkpt lat="42.4279360" lon="-8.6403980">
        <ele>25.9</ele>
        <time>2021-05-21T13:00:21Z</time>
      </trkpt>
      <trkpt lat="42.4279410" lon="-8.6404040">
        <ele>25.9</ele>
        <time>2021-05-21T13:00:22Z</time>
      </trkpt>
      <trkpt lat="42.4279550" lon="-8.6404090">
        <ele>25.9</ele>
        <time>2021-05-21T13:00:23Z</time>
      </trkpt>
      <trkpt lat="42.4279620" lon="-8.6404090">
        <ele>25.9</ele>
        <time>2021-05-21T13:00:24Z</time>
      </trkpt>
      <trkpt lat="42.4279700" lon="-8.6404240">
        <ele>25.9</ele>
        <time>2021-05-21T13:00:25Z</time>
      </trkpt>
      <trkpt lat="42.4279820" lon="-8.6404220">
        <ele>25.9</ele>
        <time>2021-05-21T13:00:26Z</time>
      </trkpt>
      <trkpt lat="42.4279880" lon="-8.6404390">
        <ele>25.9</ele>
        <time>2021-05-21T13:00:27Z</time>
      </trkpt>
      <trkpt lat="42.4280010" lon="-8.6404420">
        <ele>25.9</ele>
        <time>2021-05-21T13:00:28Z</time>
      </trkpt>
      <trkpt lat="42.4280100" lon="-8.6404440">
        <ele>25.9</ele>
        <time>2021-05-21T13:00:29Z</time>
      </trkpt>
      <trkpt lat="42.4280130" lon="-8.6404650">
        <ele>25.9</ele>
        <time>2021-05-21T13:00:30Z</time>
      </trkpt>
      <trkpt lat="42.4280120" lon="-8.6404780">
        <ele>25.9</ele>
        <time>2021-05-21T13:00:31Z</time>
      </trkpt>
      <trkpt lat="42.4280120" lon="-8.6404900">
        <ele>25.9</ele>
        <time>2021-05-21T13:00:32Z</time>
      </trkpt>
      <trkpt lat="42.4280110" lon="-8.6405030">
        <ele>25.9</ele>
        <time>2021-05-21T13:00:33Z</time>
      </trkpt>
      <trkpt lat="42.4280050" lon="-8.6405190">
        <ele>25.9</ele>
        <time>2021-05-21T13:00:34Z</time>
      </trkpt>
      <trkpt lat="42.4280010" lon="-8.6405270">
        <ele>25.9</ele>
        <time>2021-05-21T13:00:35Z</time>
      </trkpt>
      <trkpt lat="42.4279970" lon="-8.6405340">
        <ele>25.9</ele>
        <time>2021-05-21T13:00:36Z</time>
      </trkpt>
      <trkpt lat="42.4279930" lon="-8.6405420">
        <ele>25.9</ele>
        <time>2021-05-21T13:00:37Z</time>
      </trkpt>
      <trkpt lat="42.4279880" lon="-8.6405490">
        <ele>25.9</ele>
        <time>2021-05-21T13:00:38Z</time>
      </trkpt>
      <trkpt lat="42.4279840" lon="-8.6405560">
        <ele>25.9</ele>
        <time>2021-05-21T13:00:39Z</time>
      </trkpt>
      <trkpt lat="42.4279800" lon="-8.6405640">
        <ele>25.9</ele>
        <time>2021-05-21T13:00:40Z</time>
      </trkpt>
      <trkpt lat="42.4279760" lon="-8.6405710">
        <ele>25.9</ele>
        <time>2021-05-21T13:00:41Z</time>
      </trkpt>
      <trkpt lat="42.4279720" lon="-8.6405780">
        <ele>25.9</ele>
        <time>2021-05-21T13:00:42Z</time>
      </trkpt>
      <trkpt lat="42.4279680" lon="-8.6405860">
        <ele>25.9</ele>
        <time>2021-05-21T13:00:43Z</time>
      </trkpt>
      <trkpt lat="42.4279640" lon="-8.6405930">
        <ele>25.9</ele>
        <time>2021-05-21T13:00:44Z</time>
      </trkpt>
      <trkpt lat="42.4279600" lon="-8.6406010">
        <ele>25.9</ele>
        <time>2021-05-21T13:00:45Z</time>
      </trkpt>
      <trkpt lat="42.4279550" lon="-8.6406080">
        <ele>25.9</ele>
        <time>2021-05-21T13:00:46Z</time>
      </trkpt>
      <trkpt lat="42.4279510" lon="-8.6406150">
        <ele>25.9</ele>
        <time>2021-05-21T13:00:47Z</time>
      </trkpt>
      <trkpt lat="42.4279470" lon="-8.6406230">
        <ele>25.9</ele>
        <time>2021-05-21T13:00:48Z</time>
      </trkpt>
      <trkpt lat="42.4279430" lon="-8.6406300">
        <ele>25.9</ele>
        <time>2021-05-21T13:00:49Z</time>
      </trkpt>
      <trkpt lat="42.4279530" lon="-8.6406180">
        <ele>25.9</ele>
        <time>2021-05-21T13:00:50Z</time>
      </trkpt>
      <trkpt lat="42.4279580" lon="-8.6406110">
        <ele>25.9</ele>
        <time>2021-05-21T13:00:51Z</time>
      </trkpt>
      <trkpt lat="42.4279570" lon="-8.6406080">
        <ele>25.9</ele>
        <time>2021-05-21T13:00:52Z</time>
      </trkpt>
      <trkpt lat="42.4279650" lon="-8.6405970">
        <ele>25.9</ele>
        <time>2021-05-21T13:00:53Z</time>
      </trkpt>
      <trkpt lat="42.4279960" lon="-8.6405720">
        <ele>25.9</ele>
        <time>2021-05-21T13:00:54Z</time>
      </trkpt>
      <trkpt lat="42.4280030" lon="-8.6405690">
        <ele>25.9</ele>
        <time>2021-05-21T13:00:55Z</time>
      </trkpt>
      <trkpt lat="42.4280070" lon="-8.6405640">
        <ele>25.9</ele>
        <time>2021-05-21T13:00:56Z</time>
      </trkpt>
      <trkpt lat="42.4280120" lon="-8.6405590">
        <ele>25.9</ele>
        <time>2021-05-21T13:00:57Z</time>
      </trkpt>
      <trkpt lat="42.4280050" lon="-8.6405630">
        <ele>25.9</ele>
        <time>2021-05-21T13:00:58Z</time>
      </trkpt>
      <trkpt lat="42.4279910" lon="-8.6405710">
        <ele>25.9</ele>
        <time>2021-05-21T13:00:59Z</time>
      </trkpt>
      <trkpt lat="42.4279900" lon="-8.6405670">
        <ele>25.9</ele>
        <time>2021-05-21T13:01:00Z</time>
      </trkpt>
      <trkpt lat="42.4279920" lon="-8.6405620">
        <ele>25.9</ele>
        <time>2021-05-21T13:01:01Z</time>
      </trkpt>
      <trkpt lat="42.4279910" lon="-8.6405580">
        <ele>25.9</ele>
        <time>2021-05-21T13:01:02Z</time>
      </trkpt>
      <trkpt lat="42.4279950" lon="-8.6405520">
        <ele>25.9</ele>
        <time>2021-05-21T13:01:03Z</time>
      </trkpt>
      <trkpt lat="42.4279930" lon="-8.6405510">
        <ele>25.9</ele>
        <time>2021-05-21T13:01:04Z</time>
      </trkpt>
      <trkpt lat="42.4279900" lon="-8.6405520">
        <ele>25.9</ele>
        <time>2021-05-21T13:01:05Z</time>
      </trkpt>
      <trkpt lat="42.4279830" lon="-8.6405560">
        <ele>25.9</ele>
        <time>2021-05-21T13:01:06Z</time>
      </trkpt>
      <trkpt lat="42.4279800" lon="-8.6405550">
        <ele>25.9</ele>
        <time>2021-05-21T13:01:07Z</time>
      </trkpt>
      <trkpt lat="42.4279770" lon="-8.6405570">
        <ele>25.9</ele>
        <time>2021-05-21T13:01:08Z</time>
      </trkpt>
      <trkpt lat="42.4279790" lon="-8.6405540">
        <ele>25.9</ele>
        <time>2021-05-21T13:01:09Z</time>
      </trkpt>
      <trkpt lat="42.4279830" lon="-8.6405500">
        <ele>25.9</ele>
        <time>2021-05-21T13:01:10Z</time>
      </trkpt>
      <trkpt lat="42.4279810" lon="-8.6405490">
        <ele>25.9</ele>
        <time>2021-05-21T13:01:11Z</time>
      </trkpt>
      <trkpt lat="42.4279810" lon="-8.6405510">
        <ele>25.9</ele>
        <time>2021-05-21T13:01:12Z</time>
      </trkpt>
      <trkpt lat="42.4279860" lon="-8.6405470">
        <ele>25.9</ele>
        <time>2021-05-21T13:01:13Z</time>
      </trkpt>
      <trkpt lat="42.4279880" lon="-8.6405460">
        <ele>25.9</ele>
        <time>2021-05-21T13:01:14Z</time>
      </trkpt>
      <trkpt lat="42.4279910" lon="-8.6405420">
        <ele>25.9</ele>
        <time>2021-05-21T13:01:15Z</time>
      </trkpt>
      <trkpt lat="42.4280040" lon="-8.6405370">
        <ele>25.9</ele>
        <time>2021-05-21T13:01:16Z</time>
      </trkpt>
      <trkpt lat="42.4280090" lon="-8.6405340">
        <ele>25.9</ele>
        <time>2021-05-21T13:01:17Z</time>
      </trkpt>
      <trkpt lat="42.4280050" lon="-8.6405410">
        <ele>25.8</ele>
        <time>2021-05-21T13:01:18Z</time>
      </trkpt>
      <trkpt lat="42.4280000" lon="-8.6405490">
        <ele>25.8</ele>
        <time>2021-05-21T13:01:19Z</time>
      </trkpt>
      <trkpt lat="42.4280040" lon="-8.6405450">
        <ele>25.8</ele>
        <time>2021-05-21T13:01:20Z</time>
      </trkpt>
      <trkpt lat="42.4280050" lon="-8.6405480">
        <ele>25.8</ele>
        <time>2021-05-21T13:01:21Z</time>
      </trkpt>
      <trkpt lat="42.4280090" lon="-8.6405420">
        <ele>25.8</ele>
        <time>2021-05-21T13:01:22Z</time>
      </trkpt>
      <trkpt lat="42.4280080" lon="-8.6405450">
        <ele>25.8</ele>
        <time>2021-05-21T13:01:23Z</time>
      </trkpt>
      <trkpt lat="42.4280160" lon="-8.6405370">
        <ele>25.8</ele>
        <time>2021-05-21T13:01:24Z</time>
      </trkpt>
      <trkpt lat="42.4280180" lon="-8.6405310">
        <ele>25.8</ele>
        <time>2021-05-21T13:01:25Z</time>
      </trkpt>
      <trkpt lat="42.4280230" lon="-8.6405250">
        <ele>25.8</ele>
        <time>2021-05-21T13:01:26Z</time>
      </trkpt>
      <trkpt lat="42.4280270" lon="-8.6405200">
        <ele>25.8</ele>
        <time>2021-05-21T13:01:27Z</time>
      </trkpt>
      <trkpt lat="42.4280320" lon="-8.6405160">
        <ele>25.8</ele>
        <time>2021-05-21T13:01:28Z</time>
      </trkpt>
      <trkpt lat="42.4280290" lon="-8.6405170">
        <ele>25.8</ele>
        <time>2021-05-21T13:01:29Z</time>
      </trkpt>
      <trkpt lat="42.4280300" lon="-8.6405180">
        <ele>25.8</ele>
        <time>2021-05-21T13:01:30Z</time>
      </trkpt>
      <trkpt lat="42.4280400" lon="-8.6405070">
        <ele>25.8</ele>
        <time>2021-05-21T13:01:31Z</time>
      </trkpt>
      <trkpt lat="42.4280430" lon="-8.6405070">
        <ele>25.8</ele>
        <time>2021-05-21T13:01:32Z</time>
      </trkpt>
      <trkpt lat="42.4280400" lon="-8.6405110">
        <ele>25.8</ele>
        <time>2021-05-21T13:01:33Z</time>
      </trkpt>
      <trkpt lat="42.4280390" lon="-8.6405130">
        <ele>25.8</ele>
        <time>2021-05-21T13:01:34Z</time>
      </trkpt>
      <trkpt lat="42.4280440" lon="-8.6405070">
        <ele>25.8</ele>
        <time>2021-05-21T13:01:35Z</time>
      </trkpt>
      <trkpt lat="42.4280370" lon="-8.6405070">
        <ele>25.8</ele>
        <time>2021-05-21T13:01:36Z</time>
      </trkpt>
      <trkpt lat="42.4280360" lon="-8.6405060">
        <ele>25.8</ele>
        <time>2021-05-21T13:01:37Z</time>
      </trkpt>
      <trkpt lat="42.4280320" lon="-8.6405080">
        <ele>25.8</ele>
        <time>2021-05-21T13:01:38Z</time>
      </trkpt>
      <trkpt lat="42.4280280" lon="-8.6405130">
        <ele>25.8</ele>
        <time>2021-05-21T13:01:39Z</time>
      </trkpt>
      <trkpt lat="42.4280290" lon="-8.6405130">
        <ele>25.8</ele>
        <time>2021-05-21T13:01:40Z</time>
      </trkpt>
      <trkpt lat="42.4280270" lon="-8.6405150">
        <ele>25.8</ele>
        <time>2021-05-21T13:01:41Z</time>
      </trkpt>
      <trkpt lat="42.4280250" lon="-8.6405130">
        <ele>25.8</ele>
        <time>2021-05-21T13:01:42Z</time>
      </trkpt>
      <trkpt lat="42.4280240" lon="-8.6405110">
        <ele>25.8</ele>
        <time>2021-05-21T13:01:43Z</time>
      </trkpt>
      <trkpt lat="42.4280260" lon="-8.6405140">
        <ele>25.8</ele>
        <time>2021-05-21T13:01:44Z</time>
      </trkpt>
      <trkpt lat="42.4280260" lon="-8.6405140">
        <ele>25.8</ele>
        <time>2021-05-21T13:01:45Z</time>
      </trkpt>
      <trkpt lat="42.4280210" lon="-8.6405180">
        <ele>25.8</ele>
        <time>2021-05-21T13:01:46Z</time>
      </trkpt>
      <trkpt lat="42.4280210" lon="-8.6405150">
        <ele>25.8</ele>
        <time>2021-05-21T13:01:47Z</time>
      </trkpt>
      <trkpt lat="42.4280270" lon="-8.6405050">
        <ele>25.8</ele>
        <time>2021-05-21T13:01:48Z</time>
      </trkpt>
      <trkpt lat="42.4280290" lon="-8.6405060">
        <ele>25.8</ele>
        <time>2021-05-21T13:01:49Z</time>
      </trkpt>
      <trkpt lat="42.4280390" lon="-8.6404970">
        <ele>25.8</ele>
        <time>2021-05-21T13:01:50Z</time>
      </trkpt>
      <trkpt lat="42.4280380" lon="-8.6405010">
        <ele>25.8</ele>
        <time>2021-05-21T13:01:51Z</time>
      </trkpt>
      <trkpt lat="42.4280410" lon="-8.6405030">
        <ele>25.8</ele>
        <time>2021-05-21T13:01:52Z</time>
      </trkpt>
      <trkpt lat="42.4280390" lon="-8.6405030">
        <ele>25.8</ele>
        <time>2021-05-21T13:01:53Z</time>
      </trkpt>
      <trkpt lat="42.4280420" lon="-8.6405010">
        <ele>25.8</ele>
        <time>2021-05-21T13:01:54Z</time>
      </trkpt>
      <trkpt lat="42.4280390" lon="-8.6405070">
        <ele>25.8</ele>
        <time>2021-05-21T13:01:55Z</time>
      </trkpt>
      <trkpt lat="42.4280400" lon="-8.6405120">
        <ele>25.8</ele>
        <time>2021-05-21T13:01:56Z</time>
      </trkpt>
      <trkpt lat="42.4280380" lon="-8.6405160">
        <ele>25.8</ele>
        <time>2021-05-21T13:01:57Z</time>
      </trkpt>
      <trkpt lat="42.4280410" lon="-8.6405180">
        <ele>25.8</ele>
        <time>2021-05-21T13:01:58Z</time>
      </trkpt>
      <trkpt lat="42.4280400" lon="-8.6405170">
        <ele>25.8</ele>
        <time>2021-05-21T13:01:59Z</time>
      </trkpt>
      <trkpt lat="42.4280350" lon="-8.6405230">
        <ele>25.8</ele>
        <time>2021-05-21T13:02:00Z</time>
      </trkpt>
      <trkpt lat="42.4280380" lon="-8.6405220">
        <ele>25.8</ele>
        <time>2021-05-21T13:02:01Z</time>
      </trkpt>
      <trkpt lat="42.4280380" lon="-8.6405190">
        <ele>25.8</ele>
        <time>2021-05-21T13:02:02Z</time>
      </trkpt>
      <trkpt lat="42.4280390" lon="-8.6405160">
        <ele>25.8</ele>
        <time>2021-05-21T13:02:03Z</time>
      </trkpt>
      <trkpt lat="42.4280350" lon="-8.6405210">
        <ele>25.8</ele>
        <time>2021-05-21T13:02:04Z</time>
      </trkpt>
      <trkpt lat="42.4280120" lon="-8.6405260">
        <ele>25.8</ele>
        <time>2021-05-21T13:02:05Z</time>
      </trkpt>
      <trkpt lat="42.4280000" lon="-8.6405280">
        <ele>25.8</ele>
        <time>2021-05-21T13:02:06Z</time>
      </trkpt>
      <trkpt lat="42.4279990" lon="-8.6405280">
        <ele>25.8</ele>
        <time>2021-05-21T13:02:07Z</time>
      </trkpt>
      <trkpt lat="42.4279990" lon="-8.6405230">
        <ele>25.8</ele>
        <time>2021-05-21T13:02:08Z</time>
      </trkpt>
      <trkpt lat="42.4280010" lon="-8.6405230">
        <ele>25.8</ele>
        <time>2021-05-21T13:02:09Z</time>
      </trkpt>
      <trkpt lat="42.4280050" lon="-8.6405270">
        <ele>25.8</ele>
        <time>2021-05-21T13:02:10Z</time>
      </trkpt>
      <trkpt lat="42.4280080" lon="-8.6405300">
        <ele>25.8</ele>
        <time>2021-05-21T13:02:11Z</time>
      </trkpt>
      <trkpt lat="42.4280140" lon="-8.6405320">
        <ele>25.8</ele>
        <time>2021-05-21T13:02:12Z</time>
      </trkpt>
      <trkpt lat="42.4280250" lon="-8.6405330">
        <ele>25.8</ele>
        <time>2021-05-21T13:02:13Z</time>
      </trkpt>
      <trkpt lat="42.4280170" lon="-8.6405470">
        <ele>25.8</ele>
        <time>2021-05-21T13:02:14Z</time>
      </trkpt>
      <trkpt lat="42.4280110" lon="-8.6405500">
        <ele>25.8</ele>
        <time>2021-05-21T13:02:15Z</time>
      </trkpt>
      <trkpt lat="42.4280080" lon="-8.6405520">
        <ele>25.8</ele>
        <time>2021-05-21T13:02:16Z</time>
      </trkpt>
      <trkpt lat="42.4280100" lon="-8.6405490">
        <ele>25.8</ele>
        <time>2021-05-21T13:02:17Z</time>
      </trkpt>
      <trkpt lat="42.4280100" lon="-8.6405500">
        <ele>25.8</ele>
        <time>2021-05-21T13:02:18Z</time>
      </trkpt>
      <trkpt lat="42.4280130" lon="-8.6405530">
        <ele>25.8</ele>
        <time>2021-05-21T13:02:19Z</time>
      </trkpt>
      <trkpt lat="42.4280190" lon="-8.6405590">
        <ele>25.8</ele>
        <time>2021-05-21T13:02:20Z</time>
      </trkpt>
      <trkpt lat="42.4280220" lon="-8.6405600">
        <ele>25.8</ele>
        <time>2021-05-21T13:02:21Z</time>
      </trkpt>
      <trkpt lat="42.4280160" lon="-8.6405750">
        <ele>25.8</ele>
        <time>2021-05-21T13:02:22Z</time>
      </trkpt>
      <trkpt lat="42.4280190" lon="-8.6405820">
        <ele>25.8</ele>
        <time>2021-05-21T13:02:23Z</time>
      </trkpt>
      <trkpt lat="42.4280330" lon="-8.6405840">
        <ele>25.8</ele>
        <time>2021-05-21T13:02:24Z</time>
      </trkpt>
      <trkpt lat="42.4280380" lon="-8.6405930">
        <ele>25.8</ele>
        <time>2021-05-21T13:02:25Z</time>
      </trkpt>
      <trkpt lat="42.4280380" lon="-8.6405980">
        <ele>25.8</ele>
        <time>2021-05-21T13:02:26Z</time>
      </trkpt>
      <trkpt lat="42.4280520" lon="-8.6406010">
        <ele>25.8</ele>
        <time>2021-05-21T13:02:27Z</time>
      </trkpt>
      <trkpt lat="42.4280660" lon="-8.6406130">
        <ele>25.8</ele>
        <time>2021-05-21T13:02:28Z</time>
      </trkpt>
      <trkpt lat="42.4280690" lon="-8.6406330">
        <ele>25.8</ele>
        <time>2021-05-21T13:02:29Z</time>
      </trkpt>
      <trkpt lat="42.4280740" lon="-8.6406380">
        <ele>25.8</ele>
        <time>2021-05-21T13:02:30Z</time>
      </trkpt>
      <trkpt lat="42.4280820" lon="-8.6406470">
        <ele>25.8</ele>
        <time>2021-05-21T13:02:31Z</time>
      </trkpt>
      <trkpt lat="42.4280960" lon="-8.6406480">
        <ele>25.8</ele>
        <time>2021-05-21T13:02:32Z</time>
      </trkpt>
      <trkpt lat="42.4281040" lon="-8.6406510">
        <ele>25.8</ele>
        <time>2021-05-21T13:02:33Z</time>
      </trkpt>
      <trkpt lat="42.4281080" lon="-8.6406720">
        <ele>25.8</ele>
        <time>2021-05-21T13:02:34Z</time>
      </trkpt>
      <trkpt lat="42.4281190" lon="-8.6406830">
        <ele>25.8</ele>
        <time>2021-05-21T13:02:35Z</time>
      </trkpt>
      <trkpt lat="42.4281250" lon="-8.6406830">
        <ele>25.8</ele>
        <time>2021-05-21T13:02:36Z</time>
      </trkpt>
      <trkpt lat="42.4281320" lon="-8.6406840">
        <ele>25.8</ele>
        <time>2021-05-21T13:02:37Z</time>
      </trkpt>
      <trkpt lat="42.4281380" lon="-8.6406840">
        <ele>25.8</ele>
        <time>2021-05-21T13:02:38Z</time>
      </trkpt>
      <trkpt lat="42.4281450" lon="-8.6406840">
        <ele>25.8</ele>
        <time>2021-05-21T13:02:39Z</time>
      </trkpt>
      <trkpt lat="42.4281560" lon="-8.6406860">
        <ele>25.8</ele>
        <time>2021-05-21T13:02:40Z</time>
      </trkpt>
      <trkpt lat="42.4281600" lon="-8.6406980">
        <ele>25.8</ele>
        <time>2021-05-21T13:02:41Z</time>
      </trkpt>
      <trkpt lat="42.4281730" lon="-8.6407170">
        <ele>25.8</ele>
        <time>2021-05-21T13:02:42Z</time>
      </trkpt>
      <trkpt lat="42.4281680" lon="-8.6407360">
        <ele>25.8</ele>
        <time>2021-05-21T13:02:43Z</time>
      </trkpt>
      <trkpt lat="42.4281810" lon="-8.6407550">
        <ele>25.8</ele>
        <time>2021-05-21T13:02:44Z</time>
      </trkpt>
      <trkpt lat="42.4281860" lon="-8.6407690">
        <ele>25.8</ele>
        <time>2021-05-21T13:02:45Z</time>
      </trkpt>
      <trkpt lat="42.4281800" lon="-8.6407930">
        <ele>25.8</ele>
        <time>2021-05-21T13:02:46Z</time>
      </trkpt>
      <trkpt lat="42.4281760" lon="-8.6408050">
        <ele>25.8</ele>
        <time>2021-05-21T13:02:47Z</time>
      </trkpt>
      <trkpt lat="42.4281820" lon="-8.6407970">
        <ele>25.8</ele>
        <time>2021-05-21T13:02:48Z</time>
      </trkpt>
      <trkpt lat="42.4281570" lon="-8.6408280">
        <ele>25.8</ele>
        <time>2021-05-21T13:02:49Z</time>
      </trkpt>
      <trkpt lat="42.4281450" lon="-8.6408630">
        <ele>25.8</ele>
        <time>2021-05-21T13:02:50Z</time>
      </trkpt>
      <trkpt lat="42.4281440" lon="-8.6408790">
        <ele>25.8</ele>
        <time>2021-05-21T13:02:51Z</time>
      </trkpt>
      <trkpt lat="42.4281450" lon="-8.6408940">
        <ele>25.8</ele>
        <time>2021-05-21T13:02:52Z</time>
      </trkpt>
      <trkpt lat="42.4281440" lon="-8.6408950">
        <ele>25.8</ele>
        <time>2021-05-21T13:02:53Z</time>
      </trkpt>
      <trkpt lat="42.4281390" lon="-8.6409140">
        <ele>25.8</ele>
        <time>2021-05-21T13:02:54Z</time>
      </trkpt>
      <trkpt lat="42.4281400" lon="-8.6409220">
        <ele>25.8</ele>
        <time>2021-05-21T13:02:55Z</time>
      </trkpt>
      <trkpt lat="42.4281500" lon="-8.6409260">
        <ele>25.8</ele>
        <time>2021-05-21T13:02:56Z</time>
      </trkpt>
      <trkpt lat="42.4281610" lon="-8.6409240">
        <ele>25.8</ele>
        <time>2021-05-21T13:02:57Z</time>
      </trkpt>
      <trkpt lat="42.4281680" lon="-8.6409380">
        <ele>25.8</ele>
        <time>2021-05-21T13:02:58Z</time>
      </trkpt>
      <trkpt lat="42.4281700" lon="-8.6409770">
        <ele>25.8</ele>
        <time>2021-05-21T13:02:59Z</time>
      </trkpt>
      <trkpt lat="42.4281820" lon="-8.6409890">
        <ele>25.8</ele>
        <time>2021-05-21T13:03:00Z</time>
      </trkpt>
      <trkpt lat="42.4281840" lon="-8.6409990">
        <ele>25.8</ele>
        <time>2021-05-21T13:03:01Z</time>
      </trkpt>
      <trkpt lat="42.4281850" lon="-8.6410110">
        <ele>25.8</ele>
        <time>2021-05-21T13:03:02Z</time>
      </trkpt>
      <trkpt lat="42.4282070" lon="-8.6410160">
        <ele>25.8</ele>
        <time>2021-05-21T13:03:03Z</time>
      </trkpt>
      <trkpt lat="42.4282180" lon="-8.6410110">
        <ele>25.8</ele>
        <time>2021-05-21T13:03:04Z</time>
      </trkpt>
      <trkpt lat="42.4282280" lon="-8.6410030">
        <ele>25.8</ele>
        <time>2021-05-21T13:03:05Z</time>
      </trkpt>
      <trkpt lat="42.4282420" lon="-8.6410140">
        <ele>25.7</ele>
        <time>2021-05-21T13:03:06Z</time>
      </trkpt>
      <trkpt lat="42.4282740" lon="-8.6410350">
        <ele>25.7</ele>
        <time>2021-05-21T13:03:07Z</time>
      </trkpt>
      <trkpt lat="42.4282870" lon="-8.6410450">
        <ele>25.7</ele>
        <time>2021-05-21T13:03:08Z</time>
      </trkpt>
      <trkpt lat="42.4283360" lon="-8.6410630">
        <ele>25.7</ele>
        <time>2021-05-21T13:03:09Z</time>
      </trkpt>
      <trkpt lat="42.4283480" lon="-8.6410750">
        <ele>25.7</ele>
        <time>2021-05-21T13:03:10Z</time>
      </trkpt>
      <trkpt lat="42.4283870" lon="-8.6410860">
        <ele>25.7</ele>
        <time>2021-05-21T13:03:11Z</time>
      </trkpt>
      <trkpt lat="42.4284210" lon="-8.6410840">
        <ele>25.7</ele>
        <time>2021-05-21T13:03:12Z</time>
      </trkpt>
      <trkpt lat="42.4284370" lon="-8.6410780">
        <ele>25.7</ele>
        <time>2021-05-21T13:03:13Z</time>
      </trkpt>
      <trkpt lat="42.4284800" lon="-8.6410920">
        <ele>25.6</ele>
        <time>2021-05-21T13:03:14Z</time>
      </trkpt>
      <trkpt lat="42.4285060" lon="-8.6411020">
        <ele>25.6</ele>
        <time>2021-05-21T13:03:15Z</time>
      </trkpt>
      <trkpt lat="42.4285050" lon="-8.6411200">
        <ele>25.6</ele>
        <time>2021-05-21T13:03:16Z</time>
      </trkpt>
      <trkpt lat="42.4284990" lon="-8.6411190">
        <ele>25.6</ele>
        <time>2021-05-21T13:03:17Z</time>
      </trkpt>
      <trkpt lat="42.4285090" lon="-8.6411420">
        <ele>25.6</ele>
        <time>2021-05-21T13:03:18Z</time>
      </trkpt>
      <trkpt lat="42.4285220" lon="-8.6411750">
        <ele>25.6</ele>
        <time>2021-05-21T13:03:19Z</time>
      </trkpt>
      <trkpt lat="42.4285290" lon="-8.6412280">
        <ele>25.6</ele>
        <time>2021-05-21T13:03:20Z</time>
      </trkpt>
      <trkpt lat="42.4285350" lon="-8.6412450">
        <ele>25.6</ele>
        <time>2021-05-21T13:03:21Z</time>
      </trkpt>
      <trkpt lat="42.4285330" lon="-8.6412720">
        <ele>25.6</ele>
        <time>2021-05-21T13:03:22Z</time>
      </trkpt>
      <trkpt lat="42.4285230" lon="-8.6412840">
        <ele>25.6</ele>
        <time>2021-05-21T13:03:23Z</time>
      </trkpt>
      <trkpt lat="42.4285140" lon="-8.6412970">
        <ele>25.6</ele>
        <time>2021-05-21T13:03:24Z</time>
      </trkpt>
      <trkpt lat="42.4285320" lon="-8.6413170">
        <ele>25.6</ele>
        <time>2021-05-21T13:03:25Z</time>
      </trkpt>
      <trkpt lat="42.4285500" lon="-8.6413300">
        <ele>25.6</ele>
        <time>2021-05-21T13:03:26Z</time>
      </trkpt>
      <trkpt lat="42.4285790" lon="-8.6413480">
        <ele>25.6</ele>
        <time>2021-05-21T13:03:27Z</time>
      </trkpt>
      <trkpt lat="42.4285840" lon="-8.6413890">
        <ele>25.6</ele>
        <time>2021-05-21T13:03:28Z</time>
      </trkpt>
      <trkpt lat="42.4285750" lon="-8.6414080">
        <ele>25.6</ele>
        <time>2021-05-21T13:03:29Z</time>
      </trkpt>
      <trkpt lat="42.4286010" lon="-8.6414470">
        <ele>25.5</ele>
        <time>2021-05-21T13:03:30Z</time>
      </trkpt>
      <trkpt lat="42.4286190" lon="-8.6414550">
        <ele>25.5</ele>
        <time>2021-05-21T13:03:31Z</time>
      </trkpt>
      <trkpt lat="42.4286330" lon="-8.6414400">
        <ele>25.5</ele>
        <time>2021-05-21T13:03:32Z</time>
      </trkpt>
      <trkpt lat="42.4286650" lon="-8.6414410">
        <ele>25.5</ele>
        <time>2021-05-21T13:03:33Z</time>
      </trkpt>
      <trkpt lat="42.4287540" lon="-8.6414390">
        <ele>25.5</ele>
        <time>2021-05-21T13:03:34Z</time>
      </trkpt>
      <trkpt lat="42.4287890" lon="-8.6414470">
        <ele>25.5</ele>
        <time>2021-05-21T13:03:35Z</time>
      </trkpt>
      <trkpt lat="42.4288060" lon="-8.6414420">
        <ele>25.5</ele>
        <time>2021-05-21T13:03:36Z</time>
      </trkpt>
      <trkpt lat="42.4288070" lon="-8.6414520">
        <ele>25.5</ele>
        <time>2021-05-21T13:03:37Z</time>
      </trkpt>
      <trkpt lat="42.4288170" lon="-8.6414710">
        <ele>25.5</ele>
        <time>2021-05-21T13:03:38Z</time>
      </trkpt>
      <trkpt lat="42.4287990" lon="-8.6414780">
        <ele>25.5</ele>
        <time>2021-05-21T13:03:39Z</time>
      </trkpt>
      <trkpt lat="42.4288660" lon="-8.6414990">
        <ele>25.5</ele>
        <time>2021-05-21T13:03:40Z</time>
      </trkpt>
      <trkpt lat="42.4289090" lon="-8.6415220">
        <ele>25.5</ele>
        <time>2021-05-21T13:03:41Z</time>
      </trkpt>
      <trkpt lat="42.4289300" lon="-8.6415280">
        <ele>25.5</ele>
        <time>2021-05-21T13:03:42Z</time>
      </trkpt>
      <trkpt lat="42.4289260" lon="-8.6415310">
        <ele>25.5</ele>
        <time>2021-05-21T13:03:43Z</time>
      </trkpt>
      <trkpt lat="42.4289360" lon="-8.6415450">
        <ele>25.5</ele>
        <time>2021-05-21T13:03:44Z</time>
      </trkpt>
      <trkpt lat="42.4289460" lon="-8.6415600">
        <ele>25.5</ele>
        <time>2021-05-21T13:03:45Z</time>
      </trkpt>
      <trkpt lat="42.4289570" lon="-8.6415740">
        <ele>25.5</ele>
        <time>2021-05-21T13:03:46Z</time>
      </trkpt>
      <trkpt lat="42.4289670" lon="-8.6415890">
        <ele>25.5</ele>
        <time>2021-05-21T13:03:47Z</time>
      </trkpt>
      <trkpt lat="42.4289770" lon="-8.6416040">
        <ele>25.4</ele>
        <time>2021-05-21T13:03:48Z</time>
      </trkpt>
      <trkpt lat="42.4289870" lon="-8.6416180">
        <ele>25.4</ele>
        <time>2021-05-21T13:03:49Z</time>
      </trkpt>
      <trkpt lat="42.4289970" lon="-8.6416330">
        <ele>25.4</ele>
        <time>2021-05-21T13:03:50Z</time>
      </trkpt>
      <trkpt lat="42.4290070" lon="-8.6416480">
        <ele>25.4</ele>
        <time>2021-05-21T13:03:51Z</time>
      </trkpt>
      <trkpt lat="42.4290170" lon="-8.6416620">
        <ele>25.4</ele>
        <time>2021-05-21T13:03:52Z</time>
      </trkpt>
      <trkpt lat="42.4290270" lon="-8.6416770">
        <ele>25.4</ele>
        <time>2021-05-21T13:03:54Z</time>
      </trkpt>
      <trkpt lat="42.4290380" lon="-8.6416910">
        <ele>25.4</ele>
        <time>2021-05-21T13:03:55Z</time>
      </trkpt>
      <trkpt lat="42.4290480" lon="-8.6417060">
        <ele>25.4</ele>
        <time>2021-05-21T13:03:56Z</time>
      </trkpt>
      <trkpt lat="42.4290580" lon="-8.6417210">
        <ele>25.4</ele>
        <time>2021-05-21T13:03:57Z</time>
      </trkpt>
      <trkpt lat="42.4290680" lon="-8.6417350">
        <ele>25.4</ele>
        <time>2021-05-21T13:03:58Z</time>
      </trkpt>
      <trkpt lat="42.4290780" lon="-8.6417500">
        <ele>25.3</ele>
        <time>2021-05-21T13:03:59Z</time>
      </trkpt>
      <trkpt lat="42.4290880" lon="-8.6417650">
        <ele>25.3</ele>
        <time>2021-05-21T13:04:00Z</time>
      </trkpt>
      <trkpt lat="42.4290980" lon="-8.6417790">
        <ele>25.3</ele>
        <time>2021-05-21T13:04:01Z</time>
      </trkpt>
      <trkpt lat="42.4291080" lon="-8.6417940">
        <ele>25.3</ele>
        <time>2021-05-21T13:04:02Z</time>
      </trkpt>
      <trkpt lat="42.4291190" lon="-8.6418080">
        <ele>25.3</ele>
        <time>2021-05-21T13:04:03Z</time>
      </trkpt>
      <trkpt lat="42.4291290" lon="-8.6418230">
        <ele>25.3</ele>
        <time>2021-05-21T13:04:04Z</time>
      </trkpt>
      <trkpt lat="42.4291390" lon="-8.6418380">
        <ele>25.3</ele>
        <time>2021-05-21T13:04:05Z</time>
      </trkpt>
      <trkpt lat="42.4291490" lon="-8.6418520">
        <ele>25.3</ele>
        <time>2021-05-21T13:04:06Z</time>
      </trkpt>
      <trkpt lat="42.4291590" lon="-8.6418670">
        <ele>25.3</ele>
        <time>2021-05-21T13:04:07Z</time>
      </trkpt>
      <trkpt lat="42.4291650" lon="-8.6418740">
        <ele>25.2</ele>
        <time>2021-05-21T13:04:08Z</time>
      </trkpt>
      <trkpt lat="42.4291530" lon="-8.6418800">
        <ele>25.2</ele>
        <time>2021-05-21T13:04:09Z</time>
      </trkpt>
      <trkpt lat="42.4291320" lon="-8.6418900">
        <ele>25.2</ele>
        <time>2021-05-21T13:04:10Z</time>
      </trkpt>
      <trkpt lat="42.4291140" lon="-8.6418980">
        <ele>25.2</ele>
        <time>2021-05-21T13:04:11Z</time>
      </trkpt>
      <trkpt lat="42.4291040" lon="-8.6419010">
        <ele>25.2</ele>
        <time>2021-05-21T13:04:12Z</time>
      </trkpt>
      <trkpt lat="42.4290950" lon="-8.6419050">
        <ele>25.2</ele>
        <time>2021-05-21T13:04:13Z</time>
      </trkpt>
      <trkpt lat="42.4290610" lon="-8.6419420">
        <ele>25.2</ele>
        <time>2021-05-21T13:04:14Z</time>
      </trkpt>
      <trkpt lat="42.4290420" lon="-8.6419520">
        <ele>25.1</ele>
        <time>2021-05-21T13:04:15Z</time>
      </trkpt>
      <trkpt lat="42.4290100" lon="-8.6419660">
        <ele>25.1</ele>
        <time>2021-05-21T13:04:16Z</time>
      </trkpt>
      <trkpt lat="42.4289800" lon="-8.6419660">
        <ele>25.1</ele>
        <time>2021-05-21T13:04:17Z</time>
      </trkpt>
      <trkpt lat="42.4289600" lon="-8.6419790">
        <ele>25.1</ele>
        <time>2021-05-21T13:04:18Z</time>
      </trkpt>
      <trkpt lat="42.4289570" lon="-8.6419850">
        <ele>25.1</ele>
        <time>2021-05-21T13:04:19Z</time>
      </trkpt>
      <trkpt lat="42.4289530" lon="-8.6419920">
        <ele>25.1</ele>
        <time>2021-05-21T13:04:20Z</time>
      </trkpt>
      <trkpt lat="42.4289500" lon="-8.6419980">
        <ele>25.1</ele>
        <time>2021-05-21T13:04:21Z</time>
      </trkpt>
      <trkpt lat="42.4289460" lon="-8.6420040">
        <ele>25.0</ele>
        <time>2021-05-21T13:04:22Z</time>
      </trkpt>
      <trkpt lat="42.4289550" lon="-8.6420100">
        <ele>25.0</ele>
        <time>2021-05-21T13:04:23Z</time>
      </trkpt>
      <trkpt lat="42.4289520" lon="-8.6420190">
        <ele>25.0</ele>
        <time>2021-05-21T13:04:24Z</time>
      </trkpt>
      <trkpt lat="42.4289440" lon="-8.6420290">
        <ele>25.0</ele>
        <time>2021-05-21T13:04:25Z</time>
      </trkpt>
      <trkpt lat="42.4289400" lon="-8.6420240">
        <ele>25.0</ele>
        <time>2021-05-21T13:04:26Z</time>
      </trkpt>
      <trkpt lat="42.4289330" lon="-8.6420160">
        <ele>25.0</ele>
        <time>2021-05-21T13:04:27Z</time>
      </trkpt>
      <trkpt lat="42.4289180" lon="-8.6420190">
        <ele>25.0</ele>
        <time>2021-05-21T13:04:28Z</time>
      </trkpt>
      <trkpt lat="42.4289170" lon="-8.6420160">
        <ele>25.0</ele>
        <time>2021-05-21T13:04:29Z</time>
      </trkpt>
      <trkpt lat="42.4289210" lon="-8.6420080">
        <ele>25.0</ele>
        <time>2021-05-21T13:04:30Z</time>
      </trkpt>
      <trkpt lat="42.4289170" lon="-8.6420180">
        <ele>25.0</ele>
        <time>2021-05-21T13:04:31Z</time>
      </trkpt>
      <trkpt lat="42.4289190" lon="-8.6420100">
        <ele>25.0</ele>
        <time>2021-05-21T13:04:32Z</time>
      </trkpt>
      <trkpt lat="42.4289160" lon="-8.6419970">
        <ele>25.0</ele>
        <time>2021-05-21T13:04:33Z</time>
      </trkpt>
      <trkpt lat="42.4289080" lon="-8.6419910">
        <ele>25.0</ele>
        <time>2021-05-21T13:04:34Z</time>
      </trkpt>
      <trkpt lat="42.4289130" lon="-8.6419950">
        <ele>25.0</ele>
        <time>2021-05-21T13:04:35Z</time>
      </trkpt>
      <trkpt lat="42.4289210" lon="-8.6420030">
        <ele>24.9</ele>
        <time>2021-05-21T13:04:36Z</time>
      </trkpt>
      <trkpt lat="42.4289270" lon="-8.6420120">
        <ele>24.9</ele>
        <time>2021-05-21T13:04:37Z</time>
      </trkpt>
      <trkpt lat="42.4289340" lon="-8.6420330">
        <ele>24.9</ele>
        <time>2021-05-21T13:04:38Z</time>
      </trkpt>
      <trkpt lat="42.4289260" lon="-8.6420670">
        <ele>24.9</ele>
        <time>2021-05-21T13:04:39Z</time>
      </trkpt>
      <trkpt lat="42.4289250" lon="-8.6421070">
        <ele>24.9</ele>
        <time>2021-05-21T13:04:40Z</time>
      </trkpt>
      <trkpt lat="42.4289160" lon="-8.6421410">
        <ele>24.8</ele>
        <time>2021-05-21T13:04:41Z</time>
      </trkpt>
      <trkpt lat="42.4288890" lon="-8.6421840">
        <ele>24.8</ele>
        <time>2021-05-21T13:04:42Z</time>
      </trkpt>
      <trkpt lat="42.4288760" lon="-8.6422050">
        <ele>24.8</ele>
        <time>2021-05-21T13:04:43Z</time>
      </trkpt>
      <trkpt lat="42.4288680" lon="-8.6422230">
        <ele>24.8</ele>
        <time>2021-05-21T13:04:44Z</time>
      </trkpt>
      <trkpt lat="42.4288540" lon="-8.6422470">
        <ele>24.8</ele>
        <time>2021-05-21T13:04:45Z</time>
      </trkpt>
      <trkpt lat="42.4288450" lon="-8.6422570">
        <ele>24.8</ele>
        <time>2021-05-21T13:04:46Z</time>
      </trkpt>
      <trkpt lat="42.4288370" lon="-8.6422670">
        <ele>24.7</ele>
        <time>2021-05-21T13:04:47Z</time>
      </trkpt>
      <trkpt lat="42.4288190" lon="-8.6422840">
        <ele>24.7</ele>
        <time>2021-05-21T13:04:48Z</time>
      </trkpt>
      <trkpt lat="42.4288100" lon="-8.6422900">
        <ele>24.7</ele>
        <time>2021-05-21T13:04:49Z</time>
      </trkpt>
      <trkpt lat="42.4287820" lon="-8.6422990">
        <ele>24.7</ele>
        <time>2021-05-21T13:04:50Z</time>
      </trkpt>
      <trkpt lat="42.4287730" lon="-8.6423020">
        <ele>24.7</ele>
        <time>2021-05-21T13:04:51Z</time>
      </trkpt>
      <trkpt lat="42.4287420" lon="-8.6423010">
        <ele>24.7</ele>
        <time>2021-05-21T13:04:52Z</time>
      </trkpt>
      <trkpt lat="42.4287090" lon="-8.6422980">
        <ele>24.6</ele>
        <time>2021-05-21T13:04:53Z</time>
      </trkpt>
      <trkpt lat="42.4286800" lon="-8.6423040">
        <ele>24.6</ele>
        <time>2021-05-21T13:04:54Z</time>
      </trkpt>
      <trkpt lat="42.4286680" lon="-8.6423040">
        <ele>24.5</ele>
        <time>2021-05-21T13:04:55Z</time>
      </trkpt>
      <trkpt lat="42.4286700" lon="-8.6423180">
        <ele>24.5</ele>
        <time>2021-05-21T13:04:56Z</time>
      </trkpt>
      <trkpt lat="42.4286700" lon="-8.6423440">
        <ele>24.5</ele>
        <time>2021-05-21T13:04:57Z</time>
      </trkpt>
      <trkpt lat="42.4286580" lon="-8.6423630">
        <ele>24.6</ele>
        <time>2021-05-21T13:04:58Z</time>
      </trkpt>
      <trkpt lat="42.4286590" lon="-8.6423690">
        <ele>24.6</ele>
        <time>2021-05-21T13:04:59Z</time>
      </trkpt>
      <trkpt lat="42.4286540" lon="-8.6423740">
        <ele>24.6</ele>
        <time>2021-05-21T13:05:00Z</time>
      </trkpt>
      <trkpt lat="42.4286600" lon="-8.6423760">
        <ele>24.6</ele>
        <time>2021-05-21T13:05:01Z</time>
      </trkpt>
      <trkpt lat="42.4286670" lon="-8.6423750">
        <ele>24.6</ele>
        <time>2021-05-21T13:05:02Z</time>
      </trkpt>
      <trkpt lat="42.4286810" lon="-8.6423730">
        <ele>24.6</ele>
        <time>2021-05-21T13:05:03Z</time>
      </trkpt>
      <trkpt lat="42.4286900" lon="-8.6423880">
        <ele>24.6</ele>
        <time>2021-05-21T13:05:04Z</time>
      </trkpt>
      <trkpt lat="42.4286880" lon="-8.6423940">
        <ele>24.6</ele>
        <time>2021-05-21T13:05:05Z</time>
      </trkpt>
      <trkpt lat="42.4286870" lon="-8.6423930">
        <ele>24.6</ele>
        <time>2021-05-21T13:05:06Z</time>
      </trkpt>
      <trkpt lat="42.4286890" lon="-8.6424050">
        <ele>24.6</ele>
        <time>2021-05-21T13:05:07Z</time>
      </trkpt>
      <trkpt lat="42.4286860" lon="-8.6424210">
        <ele>24.6</ele>
        <time>2021-05-21T13:05:08Z</time>
      </trkpt>
      <trkpt lat="42.4286910" lon="-8.6424330">
        <ele>24.6</ele>
        <time>2021-05-21T13:05:09Z</time>
      </trkpt>
      <trkpt lat="42.4286900" lon="-8.6424600">
        <ele>24.6</ele>
        <time>2021-05-21T13:05:10Z</time>
      </trkpt>
      <trkpt lat="42.4287000" lon="-8.6424740">
        <ele>24.6</ele>
        <time>2021-05-21T13:05:11Z</time>
      </trkpt>
      <trkpt lat="42.4287050" lon="-8.6424870">
        <ele>24.6</ele>
        <time>2021-05-21T13:05:12Z</time>
      </trkpt>
      <trkpt lat="42.4286940" lon="-8.6424790">
        <ele>24.6</ele>
        <time>2021-05-21T13:05:13Z</time>
      </trkpt>
      <trkpt lat="42.4286960" lon="-8.6424890">
        <ele>24.6</ele>
        <time>2021-05-21T13:05:14Z</time>
      </trkpt>
      <trkpt lat="42.4287020" lon="-8.6424930">
        <ele>24.6</ele>
        <time>2021-05-21T13:05:15Z</time>
      </trkpt>
      <trkpt lat="42.4287080" lon="-8.6425020">
        <ele>24.6</ele>
        <time>2021-05-21T13:05:16Z</time>
      </trkpt>
      <trkpt lat="42.4287180" lon="-8.6425220">
        <ele>24.6</ele>
        <time>2021-05-21T13:05:17Z</time>
      </trkpt>
      <trkpt lat="42.4287140" lon="-8.6425350">
        <ele>24.6</ele>
        <time>2021-05-21T13:05:18Z</time>
      </trkpt>
      <trkpt lat="42.4287210" lon="-8.6425310">
        <ele>24.6</ele>
        <time>2021-05-21T13:05:19Z</time>
      </trkpt>
      <trkpt lat="42.4287220" lon="-8.6425270">
        <ele>24.6</ele>
        <time>2021-05-21T13:05:20Z</time>
      </trkpt>
      <trkpt lat="42.4287280" lon="-8.6425270">
        <ele>24.6</ele>
        <time>2021-05-21T13:05:21Z</time>
      </trkpt>
      <trkpt lat="42.4287380" lon="-8.6425290">
        <ele>24.6</ele>
        <time>2021-05-21T13:05:22Z</time>
      </trkpt>
      <trkpt lat="42.4287500" lon="-8.6425210">
        <ele>24.6</ele>
        <time>2021-05-21T13:05:23Z</time>
      </trkpt>
      <trkpt lat="42.4287600" lon="-8.6425460">
        <ele>24.7</ele>
        <time>2021-05-21T13:05:24Z</time>
      </trkpt>
      <trkpt lat="42.4287700" lon="-8.6425480">
        <ele>24.7</ele>
        <time>2021-05-21T13:05:25Z</time>
      </trkpt>
      <trkpt lat="42.4287850" lon="-8.6425350">
        <ele>24.7</ele>
        <time>2021-05-21T13:05:26Z</time>
      </trkpt>
      <trkpt lat="42.4287860" lon="-8.6425240">
        <ele>24.7</ele>
        <time>2021-05-21T13:05:27Z</time>
      </trkpt>
      <trkpt lat="42.4287880" lon="-8.6425120">
        <ele>24.7</ele>
        <time>2021-05-21T13:05:28Z</time>
      </trkpt>
      <trkpt lat="42.4287970" lon="-8.6424940">
        <ele>24.7</ele>
        <time>2021-05-21T13:05:29Z</time>
      </trkpt>
      <trkpt lat="42.4288040" lon="-8.6424910">
        <ele>24.7</ele>
        <time>2021-05-21T13:05:30Z</time>
      </trkpt>
      <trkpt lat="42.4288150" lon="-8.6424840">
        <ele>24.7</ele>
        <time>2021-05-21T13:05:31Z</time>
      </trkpt>
      <trkpt lat="42.4288320" lon="-8.6424800">
        <ele>24.7</ele>
        <time>2021-05-21T13:05:32Z</time>
      </trkpt>
      <trkpt lat="42.4288420" lon="-8.6424840">
        <ele>24.7</ele>
        <time>2021-05-21T13:05:33Z</time>
      </trkpt>
      <trkpt lat="42.4288430" lon="-8.6425200">
        <ele>24.7</ele>
        <time>2021-05-21T13:05:34Z</time>
      </trkpt>
      <trkpt lat="42.4288510" lon="-8.6425300">
        <ele>24.7</ele>
        <time>2021-05-21T13:05:35Z</time>
      </trkpt>
      <trkpt lat="42.4288580" lon="-8.6425390">
        <ele>24.7</ele>
        <time>2021-05-21T13:05:36Z</time>
      </trkpt>
      <trkpt lat="42.4288660" lon="-8.6425570">
        <ele>24.8</ele>
        <time>2021-05-21T13:05:37Z</time>
      </trkpt>
      <trkpt lat="42.4288770" lon="-8.6425430">
        <ele>24.8</ele>
        <time>2021-05-21T13:05:38Z</time>
      </trkpt>
      <trkpt lat="42.4288870" lon="-8.6425400">
        <ele>24.8</ele>
        <time>2021-05-21T13:05:39Z</time>
      </trkpt>
      <trkpt lat="42.4289050" lon="-8.6425490">
        <ele>24.8</ele>
        <time>2021-05-21T13:05:40Z</time>
      </trkpt>
      <trkpt lat="42.4289120" lon="-8.6425580">
        <ele>24.8</ele>
        <time>2021-05-21T13:05:41Z</time>
      </trkpt>
      <trkpt lat="42.4289200" lon="-8.6425660">
        <ele>24.8</ele>
        <time>2021-05-21T13:05:42Z</time>
      </trkpt>
      <trkpt lat="42.4289330" lon="-8.6425620">
        <ele>24.8</ele>
        <time>2021-05-21T13:05:43Z</time>
      </trkpt>
      <trkpt lat="42.4289400" lon="-8.6425680">
        <ele>24.8</ele>
        <time>2021-05-21T13:05:44Z</time>
      </trkpt>
      <trkpt lat="42.4289470" lon="-8.6425810">
        <ele>24.8</ele>
        <time>2021-05-21T13:05:45Z</time>
      </trkpt>
      <trkpt lat="42.4289670" lon="-8.6425900">
        <ele>24.8</ele>
        <time>2021-05-21T13:05:46Z</time>
      </trkpt>
      <trkpt lat="42.4289760" lon="-8.6425850">
        <ele>24.8</ele>
        <time>2021-05-21T13:05:47Z</time>
      </trkpt>
      <trkpt lat="42.4289850" lon="-8.6425810">
        <ele>24.8</ele>
        <time>2021-05-21T13:05:48Z</time>
      </trkpt>
      <trkpt lat="42.4290120" lon="-8.6425630">
        <ele>24.9</ele>
        <time>2021-05-21T13:05:49Z</time>
      </trkpt>
      <trkpt lat="42.4290400" lon="-8.6425640">
        <ele>24.9</ele>
        <time>2021-05-21T13:05:50Z</time>
      </trkpt>
      <trkpt lat="42.4290500" lon="-8.6425660">
        <ele>24.9</ele>
        <time>2021-05-21T13:05:51Z</time>
      </trkpt>
      <trkpt lat="42.4290610" lon="-8.6425670">
        <ele>24.9</ele>
        <time>2021-05-21T13:05:52Z</time>
      </trkpt>
      <trkpt lat="42.4290620" lon="-8.6425570">
        <ele>24.9</ele>
        <time>2021-05-21T13:05:53Z</time>
      </trkpt>
      <trkpt lat="42.4290750" lon="-8.6425570">
        <ele>24.9</ele>
        <time>2021-05-21T13:05:54Z</time>
      </trkpt>
      <trkpt lat="42.4290890" lon="-8.6425750">
        <ele>24.9</ele>
        <time>2021-05-21T13:05:55Z</time>
      </trkpt>
      <trkpt lat="42.4290930" lon="-8.6426020">
        <ele>24.9</ele>
        <time>2021-05-21T13:05:56Z</time>
      </trkpt>
      <trkpt lat="42.4291010" lon="-8.6426170">
        <ele>25.0</ele>
        <time>2021-05-21T13:05:57Z</time>
      </trkpt>
      <trkpt lat="42.4291100" lon="-8.6426260">
        <ele>25.0</ele>
        <time>2021-05-21T13:05:58Z</time>
      </trkpt>
      <trkpt lat="42.4291230" lon="-8.6426460">
        <ele>25.0</ele>
        <time>2021-05-21T13:06:00Z</time>
      </trkpt>
      <trkpt lat="42.4291370" lon="-8.6426490">
        <ele>25.0</ele>
        <time>2021-05-21T13:06:01Z</time>
      </trkpt>
      <trkpt lat="42.4291350" lon="-8.6426650">
        <ele>25.0</ele>
        <time>2021-05-21T13:06:02Z</time>
      </trkpt>
      <trkpt lat="42.4291350" lon="-8.6426850">
        <ele>25.0</ele>
        <time>2021-05-21T13:06:03Z</time>
      </trkpt>
      <trkpt lat="42.4291310" lon="-8.6427060">
        <ele>25.0</ele>
        <time>2021-05-21T13:06:04Z</time>
      </trkpt>
      <trkpt lat="42.4291300" lon="-8.6427240">
        <ele>25.1</ele>
        <time>2021-05-21T13:06:05Z</time>
      </trkpt>
      <trkpt lat="42.4291340" lon="-8.6427450">
        <ele>25.1</ele>
        <time>2021-05-21T13:06:06Z</time>
      </trkpt>
      <trkpt lat="42.4291390" lon="-8.6427690">
        <ele>25.1</ele>
        <time>2021-05-21T13:06:07Z</time>
      </trkpt>
      <trkpt lat="42.4291580" lon="-8.6427890">
        <ele>25.1</ele>
        <time>2021-05-21T13:06:08Z</time>
      </trkpt>
      <trkpt lat="42.4291660" lon="-8.6428020">
        <ele>25.1</ele>
        <time>2021-05-21T13:06:09Z</time>
      </trkpt>
      <trkpt lat="42.4291730" lon="-8.6428140">
        <ele>25.1</ele>
        <time>2021-05-21T13:06:10Z</time>
      </trkpt>
      <trkpt lat="42.4291780" lon="-8.6428510">
        <ele>25.2</ele>
        <time>2021-05-21T13:06:11Z</time>
      </trkpt>
      <trkpt lat="42.4291810" lon="-8.6428630">
        <ele>25.2</ele>
        <time>2021-05-21T13:06:12Z</time>
      </trkpt>
      <trkpt lat="42.4291750" lon="-8.6428830">
        <ele>25.2</ele>
        <time>2021-05-21T13:06:13Z</time>
      </trkpt>
      <trkpt lat="42.4291730" lon="-8.6429180">
        <ele>25.2</ele>
        <time>2021-05-21T13:06:14Z</time>
      </trkpt>
      <trkpt lat="42.4291870" lon="-8.6429410">
        <ele>25.2</ele>
        <time>2021-05-21T13:06:15Z</time>
      </trkpt>
      <trkpt lat="42.4291950" lon="-8.6429680">
        <ele>25.3</ele>
        <time>2021-05-21T13:06:16Z</time>
      </trkpt>
      <trkpt lat="42.4292100" lon="-8.6430080">
        <ele>25.2</ele>
        <time>2021-05-21T13:06:17Z</time>
      </trkpt>
      <trkpt lat="42.4292240" lon="-8.6430510">
        <ele>25.2</ele>
        <time>2021-05-21T13:06:18Z</time>
      </trkpt>
      <trkpt lat="42.4292300" lon="-8.6430650">
        <ele>25.2</ele>
        <time>2021-05-21T13:06:19Z</time>
      </trkpt>
      <trkpt lat="42.4292370" lon="-8.6430800">
        <ele>25.2</ele>
        <time>2021-05-21T13:06:20Z</time>
      </trkpt>
      <trkpt lat="42.4292490" lon="-8.6431000">
        <ele>25.2</ele>
        <time>2021-05-21T13:06:21Z</time>
      </trkpt>
      <trkpt lat="42.4292590" lon="-8.6431070">
        <ele>25.2</ele>
        <time>2021-05-21T13:06:22Z</time>
      </trkpt>
      <trkpt lat="42.4292820" lon="-8.6431060">
        <ele>25.2</ele>
        <time>2021-05-21T13:06:23Z</time>
      </trkpt>
      <trkpt lat="42.4292940" lon="-8.6431060">
        <ele>25.2</ele>
        <time>2021-05-21T13:06:24Z</time>
      </trkpt>
      <trkpt lat="42.4293050" lon="-8.6431050">
        <ele>25.2</ele>
        <time>2021-05-21T13:06:25Z</time>
      </trkpt>
      <trkpt lat="42.4293120" lon="-8.6430990">
        <ele>25.2</ele>
        <time>2021-05-21T13:06:26Z</time>
      </trkpt>
      <trkpt lat="42.4293240" lon="-8.6430710">
        <ele>25.2</ele>
        <time>2021-05-21T13:06:27Z</time>
      </trkpt>
      <trkpt lat="42.4293290" lon="-8.6430660">
        <ele>25.2</ele>
        <time>2021-05-21T13:06:28Z</time>
      </trkpt>
      <trkpt lat="42.4293340" lon="-8.6430750">
        <ele>25.2</ele>
        <time>2021-05-21T13:06:29Z</time>
      </trkpt>
      <trkpt lat="42.4293450" lon="-8.6430830">
        <ele>25.2</ele>
        <time>2021-05-21T13:06:30Z</time>
      </trkpt>
      <trkpt lat="42.4293300" lon="-8.6431170">
        <ele>25.1</ele>
        <time>2021-05-21T13:06:31Z</time>
      </trkpt>
      <trkpt lat="42.4293440" lon="-8.6431280">
        <ele>25.1</ele>
        <time>2021-05-21T13:06:32Z</time>
      </trkpt>
      <trkpt lat="42.4293560" lon="-8.6431320">
        <ele>25.1</ele>
        <time>2021-05-21T13:06:33Z</time>
      </trkpt>
      <trkpt lat="42.4293630" lon="-8.6431390">
        <ele>25.1</ele>
        <time>2021-05-21T13:06:34Z</time>
      </trkpt>
      <trkpt lat="42.4293620" lon="-8.6431580">
        <ele>25.1</ele>
        <time>2021-05-21T13:06:35Z</time>
      </trkpt>
      <trkpt lat="42.4293600" lon="-8.6431800">
        <ele>25.1</ele>
        <time>2021-05-21T13:06:36Z</time>
      </trkpt>
      <trkpt lat="42.4293540" lon="-8.6432070">
        <ele>25.1</ele>
        <time>2021-05-21T13:06:37Z</time>
      </trkpt>
      <trkpt lat="42.4293530" lon="-8.6432130">
        <ele>25.1</ele>
        <time>2021-05-21T13:06:38Z</time>
      </trkpt>
      <trkpt lat="42.4293600" lon="-8.6432270">
        <ele>25.1</ele>
        <time>2021-05-21T13:06:39Z</time>
      </trkpt>
      <trkpt lat="42.4293640" lon="-8.6432400">
        <ele>25.1</ele>
        <time>2021-05-21T13:06:40Z</time>
      </trkpt>
      <trkpt lat="42.4293690" lon="-8.6432480">
        <ele>25.1</ele>
        <time>2021-05-21T13:06:41Z</time>
      </trkpt>
      <trkpt lat="42.4293710" lon="-8.6432490">
        <ele>25.1</ele>
        <time>2021-05-21T13:06:42Z</time>
      </trkpt>
      <trkpt lat="42.4293730" lon="-8.6432500">
        <ele>25.1</ele>
        <time>2021-05-21T13:06:43Z</time>
      </trkpt>
      <trkpt lat="42.4293810" lon="-8.6432510">
        <ele>25.1</ele>
        <time>2021-05-21T13:06:44Z</time>
      </trkpt>
      <trkpt lat="42.4293930" lon="-8.6432610">
        <ele>25.0</ele>
        <time>2021-05-21T13:06:45Z</time>
      </trkpt>
      <trkpt lat="42.4294000" lon="-8.6432800">
        <ele>25.0</ele>
        <time>2021-05-21T13:06:46Z</time>
      </trkpt>
      <trkpt lat="42.4294090" lon="-8.6432840">
        <ele>25.0</ele>
        <time>2021-05-21T13:06:47Z</time>
      </trkpt>
      <trkpt lat="42.4294190" lon="-8.6432900">
        <ele>25.0</ele>
        <time>2021-05-21T13:06:48Z</time>
      </trkpt>
      <trkpt lat="42.4294300" lon="-8.6432980">
        <ele>25.0</ele>
        <time>2021-05-21T13:06:49Z</time>
      </trkpt>
      <trkpt lat="42.4294340" lon="-8.6433040">
        <ele>25.0</ele>
        <time>2021-05-21T13:06:50Z</time>
      </trkpt>
      <trkpt lat="42.4294360" lon="-8.6432960">
        <ele>25.0</ele>
        <time>2021-05-21T13:06:51Z</time>
      </trkpt>
      <trkpt lat="42.4294480" lon="-8.6433000">
        <ele>25.0</ele>
        <time>2021-05-21T13:06:52Z</time>
      </trkpt>
      <trkpt lat="42.4294630" lon="-8.6433000">
        <ele>25.0</ele>
        <time>2021-05-21T13:06:53Z</time>
      </trkpt>
      <trkpt lat="42.4294680" lon="-8.6433090">
        <ele>25.0</ele>
        <time>2021-05-21T13:06:54Z</time>
      </trkpt>
      <trkpt lat="42.4294630" lon="-8.6433290">
        <ele>25.0</ele>
        <time>2021-05-21T13:06:55Z</time>
      </trkpt>
      <trkpt lat="42.4294600" lon="-8.6433320">
        <ele>25.0</ele>
        <time>2021-05-21T13:06:56Z</time>
      </trkpt>
      <trkpt lat="42.4294570" lon="-8.6433440">
        <ele>25.0</ele>
        <time>2021-05-21T13:06:57Z</time>
      </trkpt>
      <trkpt lat="42.4294620" lon="-8.6433480">
        <ele>25.0</ele>
        <time>2021-05-21T13:06:58Z</time>
      </trkpt>
      <trkpt lat="42.4294730" lon="-8.6433610">
        <ele>25.0</ele>
        <time>2021-05-21T13:06:59Z</time>
      </trkpt>
      <trkpt lat="42.4294800" lon="-8.6433640">
        <ele>25.0</ele>
        <time>2021-05-21T13:07:00Z</time>
      </trkpt>
      <trkpt lat="42.4295010" lon="-8.6433650">
        <ele>25.0</ele>
        <time>2021-05-21T13:07:01Z</time>
      </trkpt>
      <trkpt lat="42.4295150" lon="-8.6433700">
        <ele>25.0</ele>
        <time>2021-05-21T13:07:02Z</time>
      </trkpt>
      <trkpt lat="42.4295290" lon="-8.6433740">
        <ele>25.0</ele>
        <time>2021-05-21T13:07:03Z</time>
      </trkpt>
      <trkpt lat="42.4295400" lon="-8.6433670">
        <ele>25.0</ele>
        <time>2021-05-21T13:07:04Z</time>
      </trkpt>
      <trkpt lat="42.4295610" lon="-8.6433510">
        <ele>25.0</ele>
        <time>2021-05-21T13:07:05Z</time>
      </trkpt>
      <trkpt lat="42.4295730" lon="-8.6433490">
        <ele>24.9</ele>
        <time>2021-05-21T13:07:06Z</time>
      </trkpt>
      <trkpt lat="42.4295800" lon="-8.6433470">
        <ele>24.9</ele>
        <time>2021-05-21T13:07:07Z</time>
      </trkpt>
      <trkpt lat="42.4295940" lon="-8.6433530">
        <ele>24.9</ele>
        <time>2021-05-21T13:07:08Z</time>
      </trkpt>
      <trkpt lat="42.4296130" lon="-8.6433600">
        <ele>24.9</ele>
        <time>2021-05-21T13:07:09Z</time>
      </trkpt>
      <trkpt lat="42.4296220" lon="-8.6433640">
        <ele>24.9</ele>
        <time>2021-05-21T13:07:10Z</time>
      </trkpt>
      <trkpt lat="42.4296300" lon="-8.6433690">
        <ele>24.9</ele>
        <time>2021-05-21T13:07:11Z</time>
      </trkpt>
      <trkpt lat="42.4296520" lon="-8.6433790">
        <ele>24.9</ele>
        <time>2021-05-21T13:07:12Z</time>
      </trkpt>
      <trkpt lat="42.4296600" lon="-8.6433830">
        <ele>24.9</ele>
        <time>2021-05-21T13:07:13Z</time>
      </trkpt>
      <trkpt lat="42.4296680" lon="-8.6433880">
        <ele>24.9</ele>
        <time>2021-05-21T13:07:14Z</time>
      </trkpt>
      <trkpt lat="42.4296740" lon="-8.6433950">
        <ele>24.9</ele>
        <time>2021-05-21T13:07:15Z</time>
      </trkpt>
      <trkpt lat="42.4296830" lon="-8.6433990">
        <ele>24.9</ele>
        <time>2021-05-21T13:07:16Z</time>
      </trkpt>
      <trkpt lat="42.4296890" lon="-8.6433960">
        <ele>24.9</ele>
        <time>2021-05-21T13:07:17Z</time>
      </trkpt>
      <trkpt lat="42.4296970" lon="-8.6434000">
        <ele>24.9</ele>
        <time>2021-05-21T13:07:18Z</time>
      </trkpt>
      <trkpt lat="42.4297020" lon="-8.6434120">
        <ele>24.9</ele>
        <time>2021-05-21T13:07:19Z</time>
      </trkpt>
      <trkpt lat="42.4297190" lon="-8.6434200">
        <ele>24.9</ele>
        <time>2021-05-21T13:07:20Z</time>
      </trkpt>
      <trkpt lat="42.4297220" lon="-8.6434330">
        <ele>24.9</ele>
        <time>2021-05-21T13:07:21Z</time>
      </trkpt>
      <trkpt lat="42.4297180" lon="-8.6434440">
        <ele>24.8</ele>
        <time>2021-05-21T13:07:22Z</time>
      </trkpt>
      <trkpt lat="42.4297250" lon="-8.6434580">
        <ele>24.8</ele>
        <time>2021-05-21T13:07:23Z</time>
      </trkpt>
      <trkpt lat="42.4297360" lon="-8.6434740">
        <ele>24.8</ele>
        <time>2021-05-21T13:07:24Z</time>
      </trkpt>
      <trkpt lat="42.4297450" lon="-8.6434920">
        <ele>24.8</ele>
        <time>2021-05-21T13:07:25Z</time>
      </trkpt>
      <trkpt lat="42.4297510" lon="-8.6435010">
        <ele>24.8</ele>
        <time>2021-05-21T13:07:26Z</time>
      </trkpt>
      <trkpt lat="42.4297560" lon="-8.6435100">
        <ele>24.8</ele>
        <time>2021-05-21T13:07:27Z</time>
      </trkpt>
      <trkpt lat="42.4297560" lon="-8.6435230">
        <ele>24.8</ele>
        <time>2021-05-21T13:07:28Z</time>
      </trkpt>
      <trkpt lat="42.4297560" lon="-8.6435150">
        <ele>24.8</ele>
        <time>2021-05-21T13:07:29Z</time>
      </trkpt>
      <trkpt lat="42.4297670" lon="-8.6435260">
        <ele>24.8</ele>
        <time>2021-05-21T13:07:30Z</time>
      </trkpt>
      <trkpt lat="42.4297780" lon="-8.6435300">
        <ele>24.8</ele>
        <time>2021-05-21T13:07:31Z</time>
      </trkpt>
      <trkpt lat="42.4297840" lon="-8.6435360">
        <ele>24.8</ele>
        <time>2021-05-21T13:07:32Z</time>
      </trkpt>
      <trkpt lat="42.4298010" lon="-8.6435460">
        <ele>24.8</ele>
        <time>2021-05-21T13:07:33Z</time>
      </trkpt>
      <trkpt lat="42.4298100" lon="-8.6435560">
        <ele>24.8</ele>
        <time>2021-05-21T13:07:34Z</time>
      </trkpt>
      <trkpt lat="42.4298210" lon="-8.6435650">
        <ele>24.8</ele>
        <time>2021-05-21T13:07:35Z</time>
      </trkpt>
      <trkpt lat="42.4298300" lon="-8.6435570">
        <ele>24.8</ele>
        <time>2021-05-21T13:07:36Z</time>
      </trkpt>
      <trkpt lat="42.4298360" lon="-8.6435540">
        <ele>24.8</ele>
        <time>2021-05-21T13:07:37Z</time>
      </trkpt>
      <trkpt lat="42.4298430" lon="-8.6435510">
        <ele>24.8</ele>
        <time>2021-05-21T13:07:38Z</time>
      </trkpt>
      <trkpt lat="42.4298580" lon="-8.6435460">
        <ele>24.8</ele>
        <time>2021-05-21T13:07:39Z</time>
      </trkpt>
      <trkpt lat="42.4298760" lon="-8.6435550">
        <ele>24.8</ele>
        <time>2021-05-21T13:07:40Z</time>
      </trkpt>
      <trkpt lat="42.4298920" lon="-8.6435490">
        <ele>24.8</ele>
        <time>2021-05-21T13:07:41Z</time>
      </trkpt>
      <trkpt lat="42.4298990" lon="-8.6435450">
        <ele>24.8</ele>
        <time>2021-05-21T13:07:42Z</time>
      </trkpt>
      <trkpt lat="42.4299020" lon="-8.6435460">
        <ele>24.8</ele>
        <time>2021-05-21T13:07:43Z</time>
      </trkpt>
      <trkpt lat="42.4299110" lon="-8.6435390">
        <ele>24.8</ele>
        <time>2021-05-21T13:07:44Z</time>
      </trkpt>
      <trkpt lat="42.4299190" lon="-8.6435400">
        <ele>24.8</ele>
        <time>2021-05-21T13:07:45Z</time>
      </trkpt>
      <trkpt lat="42.4299190" lon="-8.6435390">
        <ele>24.8</ele>
        <time>2021-05-21T13:07:46Z</time>
      </trkpt>
      <trkpt lat="42.4299360" lon="-8.6435570">
        <ele>24.8</ele>
        <time>2021-05-21T13:07:47Z</time>
      </trkpt>
      <trkpt lat="42.4299470" lon="-8.6435660">
        <ele>24.8</ele>
        <time>2021-05-21T13:07:48Z</time>
      </trkpt>
      <trkpt lat="42.4299520" lon="-8.6435720">
        <ele>24.8</ele>
        <time>2021-05-21T13:07:49Z</time>
      </trkpt>
      <trkpt lat="42.4299580" lon="-8.6435720">
        <ele>24.8</ele>
        <time>2021-05-21T13:07:50Z</time>
      </trkpt>
      <trkpt lat="42.4299780" lon="-8.6435850">
        <ele>24.8</ele>
        <time>2021-05-21T13:07:52Z</time>
      </trkpt>
      <trkpt lat="42.4299790" lon="-8.6435830">
        <ele>24.8</ele>
        <time>2021-05-21T13:07:54Z</time>
      </trkpt>
      <trkpt lat="42.4299900" lon="-8.6435980">
        <ele>24.8</ele>
        <time>2021-05-21T13:07:55Z</time>
      </trkpt>
      <trkpt lat="42.4300030" lon="-8.6436050">
        <ele>24.8</ele>
        <time>2021-05-21T13:07:56Z</time>
      </trkpt>
      <trkpt lat="42.4300070" lon="-8.6435990">
        <ele>24.8</ele>
        <time>2021-05-21T13:07:57Z</time>
      </trkpt>
      <trkpt lat="42.4300120" lon="-8.6435910">
        <ele>24.8</ele>
        <time>2021-05-21T13:07:58Z</time>
      </trkpt>
      <trkpt lat="42.4300240" lon="-8.6435800">
        <ele>24.8</ele>
        <time>2021-05-21T13:07:59Z</time>
      </trkpt>
      <trkpt lat="42.4300350" lon="-8.6435730">
        <ele>24.8</ele>
        <time>2021-05-21T13:08:00Z</time>
      </trkpt>
      <trkpt lat="42.4300370" lon="-8.6435400">
        <ele>24.8</ele>
        <time>2021-05-21T13:08:01Z</time>
      </trkpt>
      <trkpt lat="42.4300360" lon="-8.6435150">
        <ele>24.8</ele>
        <time>2021-05-21T13:08:02Z</time>
      </trkpt>
      <trkpt lat="42.4300340" lon="-8.6434900">
        <ele>24.8</ele>
        <time>2021-05-21T13:08:03Z</time>
      </trkpt>
      <trkpt lat="42.4300310" lon="-8.6434650">
        <ele>24.8</ele>
        <time>2021-05-21T13:08:04Z</time>
      </trkpt>
      <trkpt lat="42.4300290" lon="-8.6434400">
        <ele>24.8</ele>
        <time>2021-05-21T13:08:05Z</time>
      </trkpt>
      <trkpt lat="42.4300270" lon="-8.6434160">
        <ele>24.8</ele>
        <time>2021-05-21T13:08:06Z</time>
      </trkpt>
      <trkpt lat="42.4300250" lon="-8.6433910">
        <ele>24.8</ele>
        <time>2021-05-21T13:08:07Z</time>
      </trkpt>
      <trkpt lat="42.4300220" lon="-8.6433660">
        <ele>24.8</ele>
        <time>2021-05-21T13:08:08Z</time>
      </trkpt>
      <trkpt lat="42.4300200" lon="-8.6433410">
        <ele>24.8</ele>
        <time>2021-05-21T13:08:09Z</time>
      </trkpt>
      <trkpt lat="42.4300210" lon="-8.6433300">
        <ele>24.8</ele>
        <time>2021-05-21T13:08:10Z</time>
      </trkpt>
      <trkpt lat="42.4300200" lon="-8.6433260">
        <ele>24.8</ele>
        <time>2021-05-21T13:08:11Z</time>
      </trkpt>
      <trkpt lat="42.4300160" lon="-8.6433260">
        <ele>24.8</ele>
        <time>2021-05-21T13:08:12Z</time>
      </trkpt>
      <trkpt lat="42.4300220" lon="-8.6433160">
        <ele>24.8</ele>
        <time>2021-05-21T13:08:13Z</time>
      </trkpt>
      <trkpt lat="42.4300360" lon="-8.6433190">
        <ele>24.8</ele>
        <time>2021-05-21T13:08:14Z</time>
      </trkpt>
      <trkpt lat="42.4300380" lon="-8.6433270">
        <ele>24.8</ele>
        <time>2021-05-21T13:08:15Z</time>
      </trkpt>
      <trkpt lat="42.4300300" lon="-8.6433450">
        <ele>24.8</ele>
        <time>2021-05-21T13:08:16Z</time>
      </trkpt>
      <trkpt lat="42.4300250" lon="-8.6433640">
        <ele>24.8</ele>
        <time>2021-05-21T13:08:17Z</time>
      </trkpt>
      <trkpt lat="42.4300270" lon="-8.6433810">
        <ele>24.8</ele>
        <time>2021-05-21T13:08:18Z</time>
      </trkpt>
      <trkpt lat="42.4300280" lon="-8.6433910">
        <ele>24.8</ele>
        <time>2021-05-21T13:08:19Z</time>
      </trkpt>
      <trkpt lat="42.4300260" lon="-8.6434040">
        <ele>24.8</ele>
        <time>2021-05-21T13:08:20Z</time>
      </trkpt>
      <trkpt lat="42.4300230" lon="-8.6434150">
        <ele>24.8</ele>
        <time>2021-05-21T13:08:21Z</time>
      </trkpt>
      <trkpt lat="42.4300260" lon="-8.6434250">
        <ele>24.8</ele>
        <time>2021-05-21T13:08:22Z</time>
      </trkpt>
      <trkpt lat="42.4300360" lon="-8.6434690">
        <ele>24.8</ele>
        <time>2021-05-21T13:08:23Z</time>
      </trkpt>
      <trkpt lat="42.4300380" lon="-8.6434820">
        <ele>24.8</ele>
        <time>2021-05-21T13:08:24Z</time>
      </trkpt>
      <trkpt lat="42.4300410" lon="-8.6435010">
        <ele>24.8</ele>
        <time>2021-05-21T13:08:25Z</time>
      </trkpt>
      <trkpt lat="42.4300440" lon="-8.6435210">
        <ele>24.8</ele>
        <time>2021-05-21T13:08:26Z</time>
      </trkpt>
      <trkpt lat="42.4300410" lon="-8.6435380">
        <ele>24.8</ele>
        <time>2021-05-21T13:08:27Z</time>
      </trkpt>
      <trkpt lat="42.4300420" lon="-8.6435420">
        <ele>24.8</ele>
        <time>2021-05-21T13:08:28Z</time>
      </trkpt>
      <trkpt lat="42.4300410" lon="-8.6435440">
        <ele>24.8</ele>
        <time>2021-05-21T13:08:29Z</time>
      </trkpt>
      <trkpt lat="42.4300400" lon="-8.6435430">
        <ele>24.8</ele>
        <time>2021-05-21T13:08:30Z</time>
      </trkpt>
      <trkpt lat="42.4300390" lon="-8.6435490">
        <ele>24.8</ele>
        <time>2021-05-21T13:08:31Z</time>
      </trkpt>
      <trkpt lat="42.4300410" lon="-8.6435490">
        <ele>24.8</ele>
        <time>2021-05-21T13:08:32Z</time>
      </trkpt>
      <trkpt lat="42.4300450" lon="-8.6435480">
        <ele>24.8</ele>
        <time>2021-05-21T13:08:33Z</time>
      </trkpt>
      <trkpt lat="42.4300490" lon="-8.6435480">
        <ele>24.8</ele>
        <time>2021-05-21T13:08:34Z</time>
      </trkpt>
      <trkpt lat="42.4300560" lon="-8.6435480">
        <ele>24.8</ele>
        <time>2021-05-21T13:08:35Z</time>
      </trkpt>
      <trkpt lat="42.4300630" lon="-8.6435480">
        <ele>24.8</ele>
        <time>2021-05-21T13:08:36Z</time>
      </trkpt>
      <trkpt lat="42.4300610" lon="-8.6435470">
        <ele>24.8</ele>
        <time>2021-05-21T13:08:37Z</time>
      </trkpt>
      <trkpt lat="42.4300590" lon="-8.6435470">
        <ele>24.8</ele>
        <time>2021-05-21T13:08:38Z</time>
      </trkpt>
      <trkpt lat="42.4300560" lon="-8.6435480">
        <ele>24.8</ele>
        <time>2021-05-21T13:08:39Z</time>
      </trkpt>
      <trkpt lat="42.4300530" lon="-8.6435480">
        <ele>24.8</ele>
        <time>2021-05-21T13:08:40Z</time>
      </trkpt>
      <trkpt lat="42.4300510" lon="-8.6435490">
        <ele>24.8</ele>
        <time>2021-05-21T13:08:41Z</time>
      </trkpt>
      <trkpt lat="42.4300480" lon="-8.6435490">
        <ele>24.8</ele>
        <time>2021-05-21T13:08:42Z</time>
      </trkpt>
      <trkpt lat="42.4300450" lon="-8.6435500">
        <ele>24.8</ele>
        <time>2021-05-21T13:08:43Z</time>
      </trkpt>
      <trkpt lat="42.4300430" lon="-8.6435500">
        <ele>24.8</ele>
        <time>2021-05-21T13:08:44Z</time>
      </trkpt>
      <trkpt lat="42.4300400" lon="-8.6435510">
        <ele>24.8</ele>
        <time>2021-05-21T13:08:45Z</time>
      </trkpt>
      <trkpt lat="42.4300370" lon="-8.6435510">
        <ele>24.7</ele>
        <time>2021-05-21T13:08:46Z</time>
      </trkpt>
      <trkpt lat="42.4300350" lon="-8.6435520">
        <ele>24.7</ele>
        <time>2021-05-21T13:08:47Z</time>
      </trkpt>
      <trkpt lat="42.4300320" lon="-8.6435520">
        <ele>24.7</ele>
        <time>2021-05-21T13:08:48Z</time>
      </trkpt>
      <trkpt lat="42.4300290" lon="-8.6435530">
        <ele>24.7</ele>
        <time>2021-05-21T13:08:49Z</time>
      </trkpt>
      <trkpt lat="42.4300270" lon="-8.6435530">
        <ele>24.7</ele>
        <time>2021-05-21T13:08:50Z</time>
      </trkpt>
      <trkpt lat="42.4300240" lon="-8.6435540">
        <ele>24.7</ele>
        <time>2021-05-21T13:08:51Z</time>
      </trkpt>
      <trkpt lat="42.4299980" lon="-8.6435690">
        <ele>24.7</ele>
        <time>2021-05-21T13:08:52Z</time>
      </trkpt>
      <trkpt lat="42.4299670" lon="-8.6435720">
        <ele>24.7</ele>
        <time>2021-05-21T13:08:53Z</time>
      </trkpt>
      <trkpt lat="42.4299550" lon="-8.6435800">
        <ele>24.7</ele>
        <time>2021-05-21T13:08:54Z</time>
      </trkpt>
      <trkpt lat="42.4299160" lon="-8.6435890">
        <ele>24.7</ele>
        <time>2021-05-21T13:08:55Z</time>
      </trkpt>
      <trkpt lat="42.4298860" lon="-8.6435810">
        <ele>24.7</ele>
        <time>2021-05-21T13:08:56Z</time>
      </trkpt>
      <trkpt lat="42.4298790" lon="-8.6435400">
        <ele>24.7</ele>
        <time>2021-05-21T13:08:57Z</time>
      </trkpt>
      <trkpt lat="42.4298910" lon="-8.6435470">
        <ele>24.7</ele>
        <time>2021-05-21T13:08:58Z</time>
      </trkpt>
      <trkpt lat="42.4298960" lon="-8.6435430">
        <ele>24.7</ele>
        <time>2021-05-21T13:08:59Z</time>
      </trkpt>
      <trkpt lat="42.4299000" lon="-8.6435570">
        <ele>24.7</ele>
        <time>2021-05-21T13:09:00Z</time>
      </trkpt>
      <trkpt lat="42.4298940" lon="-8.6435660">
        <ele>24.7</ele>
        <time>2021-05-21T13:09:01Z</time>
      </trkpt>
      <trkpt lat="42.4298960" lon="-8.6435660">
        <ele>24.7</ele>
        <time>2021-05-21T13:09:02Z</time>
      </trkpt>
      <trkpt lat="42.4298980" lon="-8.6435520">
        <ele>24.7</ele>
        <time>2021-05-21T13:09:03Z</time>
      </trkpt>
      <trkpt lat="42.4298950" lon="-8.6435510">
        <ele>24.7</ele>
        <time>2021-05-21T13:09:04Z</time>
      </trkpt>
      <trkpt lat="42.4298850" lon="-8.6435510">
        <ele>24.7</ele>
        <time>2021-05-21T13:09:05Z</time>
      </trkpt>
      <trkpt lat="42.4298770" lon="-8.6435650">
        <ele>24.7</ele>
        <time>2021-05-21T13:09:06Z</time>
      </trkpt>
      <trkpt lat="42.4298710" lon="-8.6435710">
        <ele>24.7</ele>
        <time>2021-05-21T13:09:07Z</time>
      </trkpt>
      <trkpt lat="42.4298650" lon="-8.6435750">
        <ele>24.7</ele>
        <time>2021-05-21T13:09:08Z</time>
      </trkpt>
      <trkpt lat="42.4298590" lon="-8.6435470">
        <ele>24.7</ele>
        <time>2021-05-21T13:09:09Z</time>
      </trkpt>
      <trkpt lat="42.4298600" lon="-8.6435350">
        <ele>24.7</ele>
        <time>2021-05-21T13:09:10Z</time>
      </trkpt>
      <trkpt lat="42.4298600" lon="-8.6435340">
        <ele>24.7</ele>
        <time>2021-05-21T13:09:11Z</time>
      </trkpt>
      <trkpt lat="42.4298590" lon="-8.6435290">
        <ele>24.7</ele>
        <time>2021-05-21T13:09:12Z</time>
      </trkpt>
      <trkpt lat="42.4298580" lon="-8.6435270">
        <ele>24.7</ele>
        <time>2021-05-21T13:09:13Z</time>
      </trkpt>
      <trkpt lat="42.4298550" lon="-8.6435160">
        <ele>24.7</ele>
        <time>2021-05-21T13:09:14Z</time>
      </trkpt>
      <trkpt lat="42.4298520" lon="-8.6435070">
        <ele>24.7</ele>
        <time>2021-05-21T13:09:15Z</time>
      </trkpt>
      <trkpt lat="42.4298460" lon="-8.6435110">
        <ele>24.7</ele>
        <time>2021-05-21T13:09:16Z</time>
      </trkpt>
      <trkpt lat="42.4298560" lon="-8.6434970">
        <ele>24.7</ele>
        <time>2021-05-21T13:09:17Z</time>
      </trkpt>
      <trkpt lat="42.4298710" lon="-8.6434830">
        <ele>24.7</ele>
        <time>2021-05-21T13:09:18Z</time>
      </trkpt>
      <trkpt lat="42.4298850" lon="-8.6434840">
        <ele>24.7</ele>
        <time>2021-05-21T13:09:19Z</time>
      </trkpt>
      <trkpt lat="42.4298950" lon="-8.6434570">
        <ele>24.7</ele>
        <time>2021-05-21T13:09:20Z</time>
      </trkpt>
      <trkpt lat="42.4298990" lon="-8.6434470">
        <ele>24.7</ele>
        <time>2021-05-21T13:09:21Z</time>
      </trkpt>
      <trkpt lat="42.4299020" lon="-8.6434360">
        <ele>24.7</ele>
        <time>2021-05-21T13:09:22Z</time>
      </trkpt>
      <trkpt lat="42.4299270" lon="-8.6434070">
        <ele>24.7</ele>
        <time>2021-05-21T13:09:23Z</time>
      </trkpt>
      <trkpt lat="42.4299500" lon="-8.6433690">
        <ele>24.7</ele>
        <time>2021-05-21T13:09:24Z</time>
      </trkpt>
      <trkpt lat="42.4299750" lon="-8.6433370">
        <ele>24.7</ele>
        <time>2021-05-21T13:09:25Z</time>
      </trkpt>
      <trkpt lat="42.4299840" lon="-8.6433320">
        <ele>24.7</ele>
        <time>2021-05-21T13:09:26Z</time>
      </trkpt>
      <trkpt lat="42.4299920" lon="-8.6433220">
        <ele>24.7</ele>
        <time>2021-05-21T13:09:27Z</time>
      </trkpt>
      <trkpt lat="42.4300020" lon="-8.6433220">
        <ele>24.7</ele>
        <time>2021-05-21T13:09:28Z</time>
      </trkpt>
      <trkpt lat="42.4300130" lon="-8.6433160">
        <ele>24.7</ele>
        <time>2021-05-21T13:09:29Z</time>
      </trkpt>
      <trkpt lat="42.4300230" lon="-8.6433010">
        <ele>24.7</ele>
        <time>2021-05-21T13:09:30Z</time>
      </trkpt>
      <trkpt lat="42.4300280" lon="-8.6432960">
        <ele>24.7</ele>
        <time>2021-05-21T13:09:31Z</time>
      </trkpt>
      <trkpt lat="42.4300340" lon="-8.6432950">
        <ele>24.7</ele>
        <time>2021-05-21T13:09:32Z</time>
      </trkpt>
      <trkpt lat="42.4300430" lon="-8.6432930">
        <ele>24.7</ele>
        <time>2021-05-21T13:09:33Z</time>
      </trkpt>
      <trkpt lat="42.4300500" lon="-8.6433560">
        <ele>24.7</ele>
        <time>2021-05-21T13:09:34Z</time>
      </trkpt>
      <trkpt lat="42.4300580" lon="-8.6433870">
        <ele>24.6</ele>
        <time>2021-05-21T13:09:35Z</time>
      </trkpt>
      <trkpt lat="42.4300610" lon="-8.6434070">
        <ele>24.6</ele>
        <time>2021-05-21T13:09:36Z</time>
      </trkpt>
      <trkpt lat="42.4300640" lon="-8.6434280">
        <ele>24.6</ele>
        <time>2021-05-21T13:09:37Z</time>
      </trkpt>
      <trkpt lat="42.4300610" lon="-8.6434510">
        <ele>24.6</ele>
        <time>2021-05-21T13:09:38Z</time>
      </trkpt>
      <trkpt lat="42.4300690" lon="-8.6434690">
        <ele>24.6</ele>
        <time>2021-05-21T13:09:39Z</time>
      </trkpt>
      <trkpt lat="42.4300660" lon="-8.6434830">
        <ele>24.6</ele>
        <time>2021-05-21T13:09:40Z</time>
      </trkpt>
      <trkpt lat="42.4300740" lon="-8.6434940">
        <ele>24.6</ele>
        <time>2021-05-21T13:09:41Z</time>
      </trkpt>
      <trkpt lat="42.4300750" lon="-8.6435010">
        <ele>24.6</ele>
        <time>2021-05-21T13:09:42Z</time>
      </trkpt>
      <trkpt lat="42.4300810" lon="-8.6435160">
        <ele>24.6</ele>
        <time>2021-05-21T13:09:43Z</time>
      </trkpt>
      <trkpt lat="42.4300820" lon="-8.6435250">
        <ele>24.5</ele>
        <time>2021-05-21T13:09:44Z</time>
      </trkpt>
      <trkpt lat="42.4300830" lon="-8.6435350">
        <ele>24.5</ele>
        <time>2021-05-21T13:09:45Z</time>
      </trkpt>
      <trkpt lat="42.4300670" lon="-8.6435540">
        <ele>24.5</ele>
        <time>2021-05-21T13:09:46Z</time>
      </trkpt>
      <trkpt lat="42.4300580" lon="-8.6435580">
        <ele>24.5</ele>
        <time>2021-05-21T13:09:47Z</time>
      </trkpt>
      <trkpt lat="42.4300490" lon="-8.6435630">
        <ele>24.5</ele>
        <time>2021-05-21T13:09:48Z</time>
      </trkpt>
      <trkpt lat="42.4300510" lon="-8.6435560">
        <ele>24.5</ele>
        <time>2021-05-21T13:09:49Z</time>
      </trkpt>
      <trkpt lat="42.4300550" lon="-8.6435500">
        <ele>24.5</ele>
        <time>2021-05-21T13:09:50Z</time>
      </trkpt>
      <trkpt lat="42.4300620" lon="-8.6435450">
        <ele>24.5</ele>
        <time>2021-05-21T13:09:51Z</time>
      </trkpt>
      <trkpt lat="42.4300660" lon="-8.6435450">
        <ele>24.5</ele>
        <time>2021-05-21T13:09:52Z</time>
      </trkpt>
      <trkpt lat="42.4300630" lon="-8.6435470">
        <ele>24.5</ele>
        <time>2021-05-21T13:09:53Z</time>
      </trkpt>
      <trkpt lat="42.4300670" lon="-8.6435520">
        <ele>24.5</ele>
        <time>2021-05-21T13:09:54Z</time>
      </trkpt>
      <trkpt lat="42.4300730" lon="-8.6435500">
        <ele>24.5</ele>
        <time>2021-05-21T13:09:55Z</time>
      </trkpt>
      <trkpt lat="42.4300700" lon="-8.6435490">
        <ele>24.5</ele>
        <time>2021-05-21T13:09:56Z</time>
      </trkpt>
      <trkpt lat="42.4300720" lon="-8.6435470">
        <ele>24.5</ele>
        <time>2021-05-21T13:09:57Z</time>
      </trkpt>
      <trkpt lat="42.4300750" lon="-8.6435420">
        <ele>24.5</ele>
        <time>2021-05-21T13:09:58Z</time>
      </trkpt>
      <trkpt lat="42.4300710" lon="-8.6435380">
        <ele>24.5</ele>
        <time>2021-05-21T13:09:59Z</time>
      </trkpt>
      <trkpt lat="42.4300610" lon="-8.6435410">
        <ele>24.5</ele>
        <time>2021-05-21T13:10:00Z</time>
      </trkpt>
      <trkpt lat="42.4300510" lon="-8.6435440">
        <ele>24.5</ele>
        <time>2021-05-21T13:10:01Z</time>
      </trkpt>
      <trkpt lat="42.4300420" lon="-8.6435470">
        <ele>24.5</ele>
        <time>2021-05-21T13:10:02Z</time>
      </trkpt>
      <trkpt lat="42.4300320" lon="-8.6435490">
        <ele>24.5</ele>
        <time>2021-05-21T13:10:03Z</time>
      </trkpt>
      <trkpt lat="42.4300220" lon="-8.6435520">
        <ele>24.5</ele>
        <time>2021-05-21T13:10:04Z</time>
      </trkpt>
      <trkpt lat="42.4300120" lon="-8.6435550">
        <ele>24.5</ele>
        <time>2021-05-21T13:10:05Z</time>
      </trkpt>
      <trkpt lat="42.4300020" lon="-8.6435580">
        <ele>24.5</ele>
        <time>2021-05-21T13:10:06Z</time>
      </trkpt>
      <trkpt lat="42.4300070" lon="-8.6435600">
        <ele>24.5</ele>
        <time>2021-05-21T13:10:08Z</time>
      </trkpt>
      <trkpt lat="42.4300110" lon="-8.6435590">
        <ele>24.5</ele>
        <time>2021-05-21T13:10:09Z</time>
      </trkpt>
      <trkpt lat="42.4300150" lon="-8.6435570">
        <ele>24.5</ele>
        <time>2021-05-21T13:10:10Z</time>
      </trkpt>
      <trkpt lat="42.4300180" lon="-8.6435550">
        <ele>24.5</ele>
        <time>2021-05-21T13:10:11Z</time>
      </trkpt>
      <trkpt lat="42.4300220" lon="-8.6435530">
        <ele>24.5</ele>
        <time>2021-05-21T13:10:12Z</time>
      </trkpt>
      <trkpt lat="42.4300260" lon="-8.6435520">
        <ele>24.5</ele>
        <time>2021-05-21T13:10:13Z</time>
      </trkpt>
      <trkpt lat="42.4300300" lon="-8.6435500">
        <ele>24.5</ele>
        <time>2021-05-21T13:10:14Z</time>
      </trkpt>
      <trkpt lat="42.4300340" lon="-8.6435480">
        <ele>24.5</ele>
        <time>2021-05-21T13:10:15Z</time>
      </trkpt>
      <trkpt lat="42.4300380" lon="-8.6435460">
        <ele>24.5</ele>
        <time>2021-05-21T13:10:16Z</time>
      </trkpt>
      <trkpt lat="42.4300410" lon="-8.6435450">
        <ele>24.5</ele>
        <time>2021-05-21T13:10:17Z</time>
      </trkpt>
      <trkpt lat="42.4300450" lon="-8.6435430">
        <ele>24.5</ele>
        <time>2021-05-21T13:10:18Z</time>
      </trkpt>
      <trkpt lat="42.4300490" lon="-8.6435410">
        <ele>24.5</ele>
        <time>2021-05-21T13:10:19Z</time>
      </trkpt>
      <trkpt lat="42.4300580" lon="-8.6435400">
        <ele>24.5</ele>
        <time>2021-05-21T13:10:20Z</time>
      </trkpt>
      <trkpt lat="42.4300520" lon="-8.6435530">
        <ele>24.5</ele>
        <time>2021-05-21T13:10:21Z</time>
      </trkpt>
      <trkpt lat="42.4300520" lon="-8.6435540">
        <ele>24.5</ele>
        <time>2021-05-21T13:10:23Z</time>
      </trkpt>
      <trkpt lat="42.4300440" lon="-8.6435790">
        <ele>24.5</ele>
        <time>2021-05-21T13:10:24Z</time>
      </trkpt>
      <trkpt lat="42.4300400" lon="-8.6435920">
        <ele>24.5</ele>
        <time>2021-05-21T13:10:25Z</time>
      </trkpt>
      <trkpt lat="42.4300410" lon="-8.6435950">
        <ele>24.5</ele>
        <time>2021-05-21T13:10:26Z</time>
      </trkpt>
      <trkpt lat="42.4300420" lon="-8.6435980">
        <ele>24.5</ele>
        <time>2021-05-21T13:10:27Z</time>
      </trkpt>
      <trkpt lat="42.4300430" lon="-8.6436020">
        <ele>24.5</ele>
        <time>2021-05-21T13:10:28Z</time>
      </trkpt>
      <trkpt lat="42.4300440" lon="-8.6436050">
        <ele>24.5</ele>
        <time>2021-05-21T13:10:29Z</time>
      </trkpt>
      <trkpt lat="42.4300450" lon="-8.6436080">
        <ele>24.5</ele>
        <time>2021-05-21T13:10:30Z</time>
      </trkpt>
      <trkpt lat="42.4300470" lon="-8.6436110">
        <ele>24.5</ele>
        <time>2021-05-21T13:10:31Z</time>
      </trkpt>
      <trkpt lat="42.4300480" lon="-8.6436140">
        <ele>24.5</ele>
        <time>2021-05-21T13:10:32Z</time>
      </trkpt>
      <trkpt lat="42.4300490" lon="-8.6436170">
        <ele>24.5</ele>
        <time>2021-05-21T13:10:33Z</time>
      </trkpt>
      <trkpt lat="42.4300500" lon="-8.6436200">
        <ele>24.5</ele>
        <time>2021-05-21T13:10:34Z</time>
      </trkpt>
      <trkpt lat="42.4300510" lon="-8.6436240">
        <ele>24.5</ele>
        <time>2021-05-21T13:10:35Z</time>
      </trkpt>
      <trkpt lat="42.4300520" lon="-8.6436270">
        <ele>24.5</ele>
        <time>2021-05-21T13:10:36Z</time>
      </trkpt>
      <trkpt lat="42.4300530" lon="-8.6436300">
        <ele>24.5</ele>
        <time>2021-05-21T13:10:37Z</time>
      </trkpt>
      <trkpt lat="42.4300540" lon="-8.6436330">
        <ele>24.5</ele>
        <time>2021-05-21T13:10:38Z</time>
      </trkpt>
      <trkpt lat="42.4300580" lon="-8.6436270">
        <ele>24.5</ele>
        <time>2021-05-21T13:10:39Z</time>
      </trkpt>
      <trkpt lat="42.4300620" lon="-8.6436240">
        <ele>24.5</ele>
        <time>2021-05-21T13:10:40Z</time>
      </trkpt>
      <trkpt lat="42.4300660" lon="-8.6436200">
        <ele>24.5</ele>
        <time>2021-05-21T13:10:41Z</time>
      </trkpt>
      <trkpt lat="42.4300700" lon="-8.6436170">
        <ele>24.5</ele>
        <time>2021-05-21T13:10:42Z</time>
      </trkpt>
      <trkpt lat="42.4300740" lon="-8.6436130">
        <ele>24.5</ele>
        <time>2021-05-21T13:10:43Z</time>
      </trkpt>
      <trkpt lat="42.4300780" lon="-8.6436100">
        <ele>24.5</ele>
        <time>2021-05-21T13:10:44Z</time>
      </trkpt>
      <trkpt lat="42.4300820" lon="-8.6436060">
        <ele>24.5</ele>
        <time>2021-05-21T13:10:45Z</time>
      </trkpt>
      <trkpt lat="42.4300860" lon="-8.6436030">
        <ele>24.5</ele>
        <time>2021-05-21T13:10:46Z</time>
      </trkpt>
      <trkpt lat="42.4300900" lon="-8.6435990">
        <ele>24.5</ele>
        <time>2021-05-21T13:10:47Z</time>
      </trkpt>
      <trkpt lat="42.4300810" lon="-8.6435960">
        <ele>24.5</ele>
        <time>2021-05-21T13:10:48Z</time>
      </trkpt>
      <trkpt lat="42.4300700" lon="-8.6435970">
        <ele>24.5</ele>
        <time>2021-05-21T13:10:49Z</time>
      </trkpt>
      <trkpt lat="42.4300590" lon="-8.6435970">
        <ele>24.5</ele>
        <time>2021-05-21T13:10:50Z</time>
      </trkpt>
      <trkpt lat="42.4300480" lon="-8.6435980">
        <ele>24.5</ele>
        <time>2021-05-21T13:10:51Z</time>
      </trkpt>
      <trkpt lat="42.4300370" lon="-8.6435990">
        <ele>24.5</ele>
        <time>2021-05-21T13:10:52Z</time>
      </trkpt>
      <trkpt lat="42.4300370" lon="-8.6435990">
        <ele>24.5</ele>
        <time>2021-05-21T13:10:53Z</time>
      </trkpt>
      <trkpt lat="42.4300030" lon="-8.6436130">
        <ele>24.5</ele>
        <time>2021-05-21T13:10:54Z</time>
      </trkpt>
      <trkpt lat="42.4299870" lon="-8.6436250">
        <ele>24.5</ele>
        <time>2021-05-21T13:10:55Z</time>
      </trkpt>
      <trkpt lat="42.4299820" lon="-8.6436300">
        <ele>24.5</ele>
        <time>2021-05-21T13:10:56Z</time>
      </trkpt>
      <trkpt lat="42.4299770" lon="-8.6436340">
        <ele>24.5</ele>
        <time>2021-05-21T13:10:57Z</time>
      </trkpt>
      <trkpt lat="42.4299720" lon="-8.6436390">
        <ele>24.5</ele>
        <time>2021-05-21T13:10:58Z</time>
      </trkpt>
      <trkpt lat="42.4299670" lon="-8.6436430">
        <ele>24.5</ele>
        <time>2021-05-21T13:10:59Z</time>
      </trkpt>
      <trkpt lat="42.4299620" lon="-8.6436470">
        <ele>24.5</ele>
        <time>2021-05-21T13:11:00Z</time>
      </trkpt>
      <trkpt lat="42.4299560" lon="-8.6436520">
        <ele>24.5</ele>
        <time>2021-05-21T13:11:01Z</time>
      </trkpt>
      <trkpt lat="42.4299510" lon="-8.6436560">
        <ele>24.5</ele>
        <time>2021-05-21T13:11:02Z</time>
      </trkpt>
      <trkpt lat="42.4299460" lon="-8.6436600">
        <ele>24.5</ele>
        <time>2021-05-21T13:11:03Z</time>
      </trkpt>
      <trkpt lat="42.4299410" lon="-8.6436650">
        <ele>24.5</ele>
        <time>2021-05-21T13:11:04Z</time>
      </trkpt>
      <trkpt lat="42.4299360" lon="-8.6436690">
        <ele>24.5</ele>
        <time>2021-05-21T13:11:05Z</time>
      </trkpt>
      <trkpt lat="42.4299310" lon="-8.6436740">
        <ele>24.5</ele>
        <time>2021-05-21T13:11:06Z</time>
      </trkpt>
      <trkpt lat="42.4299260" lon="-8.6436780">
        <ele>24.5</ele>
        <time>2021-05-21T13:11:07Z</time>
      </trkpt>
      <trkpt lat="42.4299260" lon="-8.6436780">
        <ele>24.5</ele>
        <time>2021-05-21T13:11:08Z</time>
      </trkpt>
      <trkpt lat="42.4299260" lon="-8.6436730">
        <ele>24.5</ele>
        <time>2021-05-21T13:11:09Z</time>
      </trkpt>
      <trkpt lat="42.4299250" lon="-8.6436690">
        <ele>24.5</ele>
        <time>2021-05-21T13:11:10Z</time>
      </trkpt>
      <trkpt lat="42.4299290" lon="-8.6436680">
        <ele>24.5</ele>
        <time>2021-05-21T13:11:11Z</time>
      </trkpt>
      <trkpt lat="42.4299420" lon="-8.6436590">
        <ele>24.5</ele>
        <time>2021-05-21T13:11:12Z</time>
      </trkpt>
      <trkpt lat="42.4299400" lon="-8.6436540">
        <ele>24.5</ele>
        <time>2021-05-21T13:11:13Z</time>
      </trkpt>
      <trkpt lat="42.4299400" lon="-8.6436590">
        <ele>24.5</ele>
        <time>2021-05-21T13:11:14Z</time>
      </trkpt>
      <trkpt lat="42.4299330" lon="-8.6436550">
        <ele>24.5</ele>
        <time>2021-05-21T13:11:15Z</time>
      </trkpt>
      <trkpt lat="42.4299290" lon="-8.6436580">
        <ele>24.5</ele>
        <time>2021-05-21T13:11:16Z</time>
      </trkpt>
      <trkpt lat="42.4299290" lon="-8.6436580">
        <ele>24.5</ele>
        <time>2021-05-21T13:11:17Z</time>
      </trkpt>
      <trkpt lat="42.4299280" lon="-8.6436610">
        <ele>24.4</ele>
        <time>2021-05-21T13:11:18Z</time>
      </trkpt>
      <trkpt lat="42.4299280" lon="-8.6436610">
        <ele>24.4</ele>
        <time>2021-05-21T13:11:19Z</time>
      </trkpt>
      <trkpt lat="42.4299200" lon="-8.6436700">
        <ele>24.4</ele>
        <time>2021-05-21T13:11:20Z</time>
      </trkpt>
      <trkpt lat="42.4299150" lon="-8.6436790">
        <ele>24.4</ele>
        <time>2021-05-21T13:11:21Z</time>
      </trkpt>
      <trkpt lat="42.4299190" lon="-8.6436840">
        <ele>24.4</ele>
        <time>2021-05-21T13:11:22Z</time>
      </trkpt>
      <trkpt lat="42.4299210" lon="-8.6436810">
        <ele>24.4</ele>
        <time>2021-05-21T13:11:23Z</time>
      </trkpt>
      <trkpt lat="42.4299150" lon="-8.6436980">
        <ele>24.4</ele>
        <time>2021-05-21T13:11:24Z</time>
      </trkpt>
      <trkpt lat="42.4299190" lon="-8.6436970">
        <ele>24.4</ele>
        <time>2021-05-21T13:11:25Z</time>
      </trkpt>
      <trkpt lat="42.4299290" lon="-8.6436930">
        <ele>24.4</ele>
        <time>2021-05-21T13:11:26Z</time>
      </trkpt>
      <trkpt lat="42.4299320" lon="-8.6436980">
        <ele>24.4</ele>
        <time>2021-05-21T13:11:27Z</time>
      </trkpt>
      <trkpt lat="42.4299400" lon="-8.6436910">
        <ele>24.4</ele>
        <time>2021-05-21T13:11:28Z</time>
      </trkpt>
      <trkpt lat="42.4299410" lon="-8.6436900">
        <ele>24.4</ele>
        <time>2021-05-21T13:11:29Z</time>
      </trkpt>
      <trkpt lat="42.4299560" lon="-8.6436800">
        <ele>24.4</ele>
        <time>2021-05-21T13:11:30Z</time>
      </trkpt>
      <trkpt lat="42.4299470" lon="-8.6436840">
        <ele>24.4</ele>
        <time>2021-05-21T13:11:31Z</time>
      </trkpt>
      <trkpt lat="42.4299470" lon="-8.6436800">
        <ele>24.4</ele>
        <time>2021-05-21T13:11:32Z</time>
      </trkpt>
      <trkpt lat="42.4299500" lon="-8.6436770">
        <ele>24.4</ele>
        <time>2021-05-21T13:11:33Z</time>
      </trkpt>
      <trkpt lat="42.4299510" lon="-8.6436800">
        <ele>24.4</ele>
        <time>2021-05-21T13:11:34Z</time>
      </trkpt>
      <trkpt lat="42.4299540" lon="-8.6436710">
        <ele>24.4</ele>
        <time>2021-05-21T13:11:35Z</time>
      </trkpt>
      <trkpt lat="42.4299530" lon="-8.6436710">
        <ele>24.4</ele>
        <time>2021-05-21T13:11:36Z</time>
      </trkpt>
      <trkpt lat="42.4299520" lon="-8.6436710">
        <ele>24.4</ele>
        <time>2021-05-21T13:11:37Z</time>
      </trkpt>
      <trkpt lat="42.4299520" lon="-8.6436710">
        <ele>24.4</ele>
        <time>2021-05-21T13:11:38Z</time>
      </trkpt>
      <trkpt lat="42.4299520" lon="-8.6436710">
        <ele>24.4</ele>
        <time>2021-05-21T13:11:39Z</time>
      </trkpt>
      <trkpt lat="42.4299520" lon="-8.6436710">
        <ele>24.4</ele>
        <time>2021-05-21T13:11:40Z</time>
      </trkpt>
      <trkpt lat="42.4299590" lon="-8.6436610">
        <ele>24.4</ele>
        <time>2021-05-21T13:11:41Z</time>
      </trkpt>
      <trkpt lat="42.4299620" lon="-8.6436520">
        <ele>24.4</ele>
        <time>2021-05-21T13:11:42Z</time>
      </trkpt>
      <trkpt lat="42.4299690" lon="-8.6436430">
        <ele>24.4</ele>
        <time>2021-05-21T13:11:43Z</time>
      </trkpt>
      <trkpt lat="42.4299690" lon="-8.6436440">
        <ele>24.4</ele>
        <time>2021-05-21T13:11:44Z</time>
      </trkpt>
      <trkpt lat="42.4299700" lon="-8.6436420">
        <ele>24.4</ele>
        <time>2021-05-21T13:11:45Z</time>
      </trkpt>
      <trkpt lat="42.4299720" lon="-8.6436410">
        <ele>24.4</ele>
        <time>2021-05-21T13:11:46Z</time>
      </trkpt>
      <trkpt lat="42.4299730" lon="-8.6436390">
        <ele>24.4</ele>
        <time>2021-05-21T13:11:47Z</time>
      </trkpt>
      <trkpt lat="42.4299750" lon="-8.6436380">
        <ele>24.4</ele>
        <time>2021-05-21T13:11:48Z</time>
      </trkpt>
      <trkpt lat="42.4299760" lon="-8.6436360">
        <ele>24.4</ele>
        <time>2021-05-21T13:11:49Z</time>
      </trkpt>
      <trkpt lat="42.4299780" lon="-8.6436350">
        <ele>24.4</ele>
        <time>2021-05-21T13:11:50Z</time>
      </trkpt>
      <trkpt lat="42.4299790" lon="-8.6436330">
        <ele>24.4</ele>
        <time>2021-05-21T13:11:51Z</time>
      </trkpt>
      <trkpt lat="42.4299810" lon="-8.6436320">
        <ele>24.4</ele>
        <time>2021-05-21T13:11:52Z</time>
      </trkpt>
      <trkpt lat="42.4299820" lon="-8.6436300">
        <ele>24.4</ele>
        <time>2021-05-21T13:11:53Z</time>
      </trkpt>
      <trkpt lat="42.4299840" lon="-8.6436290">
        <ele>24.4</ele>
        <time>2021-05-21T13:11:54Z</time>
      </trkpt>
      <trkpt lat="42.4299850" lon="-8.6436270">
        <ele>24.4</ele>
        <time>2021-05-21T13:11:55Z</time>
      </trkpt>
      <trkpt lat="42.4299870" lon="-8.6436260">
        <ele>24.4</ele>
        <time>2021-05-21T13:11:56Z</time>
      </trkpt>
      <trkpt lat="42.4299880" lon="-8.6436240">
        <ele>24.4</ele>
        <time>2021-05-21T13:11:57Z</time>
      </trkpt>
      <trkpt lat="42.4299900" lon="-8.6436230">
        <ele>24.4</ele>
        <time>2021-05-21T13:11:58Z</time>
      </trkpt>
      <trkpt lat="42.4299910" lon="-8.6436210">
        <ele>24.4</ele>
        <time>2021-05-21T13:11:59Z</time>
      </trkpt>
      <trkpt lat="42.4299930" lon="-8.6436200">
        <ele>24.4</ele>
        <time>2021-05-21T13:12:00Z</time>
      </trkpt>
      <trkpt lat="42.4299940" lon="-8.6436180">
        <ele>24.4</ele>
        <time>2021-05-21T13:12:01Z</time>
      </trkpt>
      <trkpt lat="42.4299960" lon="-8.6436170">
        <ele>24.4</ele>
        <time>2021-05-21T13:12:02Z</time>
      </trkpt>
      <trkpt lat="42.4299970" lon="-8.6436150">
        <ele>24.4</ele>
        <time>2021-05-21T13:12:03Z</time>
      </trkpt>
      <trkpt lat="42.4299990" lon="-8.6436140">
        <ele>24.4</ele>
        <time>2021-05-21T13:12:04Z</time>
      </trkpt>
      <trkpt lat="42.4299990" lon="-8.6436140">
        <ele>24.4</ele>
        <time>2021-05-21T13:12:05Z</time>
      </trkpt>
      <trkpt lat="42.4299990" lon="-8.6436140">
        <ele>24.4</ele>
        <time>2021-05-21T13:12:06Z</time>
      </trkpt>
      <trkpt lat="42.4299990" lon="-8.6436140">
        <ele>24.4</ele>
        <time>2021-05-21T13:12:07Z</time>
      </trkpt>
      <trkpt lat="42.4299990" lon="-8.6436140">
        <ele>24.4</ele>
        <time>2021-05-21T13:12:08Z</time>
      </trkpt>
      <trkpt lat="42.4299990" lon="-8.6436140">
        <ele>24.4</ele>
        <time>2021-05-21T13:12:09Z</time>
      </trkpt>
      <trkpt lat="42.4299990" lon="-8.6436140">
        <ele>24.4</ele>
        <time>2021-05-21T13:12:10Z</time>
      </trkpt>
      <trkpt lat="42.4299990" lon="-8.6436140">
        <ele>24.4</ele>
        <time>2021-05-21T13:12:11Z</time>
      </trkpt>
      <trkpt lat="42.4299830" lon="-8.6436570">
        <ele>24.4</ele>
        <time>2021-05-21T13:12:12Z</time>
      </trkpt>
      <trkpt lat="42.4299850" lon="-8.6436590">
        <ele>24.4</ele>
        <time>2021-05-21T13:12:13Z</time>
      </trkpt>
      <trkpt lat="42.4299850" lon="-8.6436590">
        <ele>24.4</ele>
        <time>2021-05-21T13:12:14Z</time>
      </trkpt>
      <trkpt lat="42.4299850" lon="-8.6436590">
        <ele>24.4</ele>
        <time>2021-05-21T13:12:15Z</time>
      </trkpt>
      <trkpt lat="42.4299910" lon="-8.6436640">
        <ele>24.4</ele>
        <time>2021-05-21T13:12:16Z</time>
      </trkpt>
      <trkpt lat="42.4299910" lon="-8.6436640">
        <ele>24.4</ele>
        <time>2021-05-21T13:12:17Z</time>
      </trkpt>
      <trkpt lat="42.4299910" lon="-8.6436640">
        <ele>24.4</ele>
        <time>2021-05-21T13:12:18Z</time>
      </trkpt>
      <trkpt lat="42.4299910" lon="-8.6436640">
        <ele>24.4</ele>
        <time>2021-05-21T13:12:19Z</time>
      </trkpt>
      <trkpt lat="42.4299910" lon="-8.6436640">
        <ele>24.4</ele>
        <time>2021-05-21T13:12:20Z</time>
      </trkpt>
      <trkpt lat="42.4299910" lon="-8.6436640">
        <ele>24.4</ele>
        <time>2021-05-21T13:12:21Z</time>
      </trkpt>
      <trkpt lat="42.4299980" lon="-8.6436600">
        <ele>24.4</ele>
        <time>2021-05-21T13:12:22Z</time>
      </trkpt>
      <trkpt lat="42.4299890" lon="-8.6436700">
        <ele>24.4</ele>
        <time>2021-05-21T13:12:23Z</time>
      </trkpt>
      <trkpt lat="42.4299900" lon="-8.6436770">
        <ele>24.4</ele>
        <time>2021-05-21T13:12:24Z</time>
      </trkpt>
      <trkpt lat="42.4299870" lon="-8.6436810">
        <ele>24.4</ele>
        <time>2021-05-21T13:12:25Z</time>
      </trkpt>
      <trkpt lat="42.4299840" lon="-8.6436810">
        <ele>24.4</ele>
        <time>2021-05-21T13:12:26Z</time>
      </trkpt>
      <trkpt lat="42.4299840" lon="-8.6436760">
        <ele>24.4</ele>
        <time>2021-05-21T13:12:28Z</time>
      </trkpt>
      <trkpt lat="42.4299770" lon="-8.6436730">
        <ele>24.4</ele>
        <time>2021-05-21T13:12:29Z</time>
      </trkpt>
      <trkpt lat="42.4299840" lon="-8.6436540">
        <ele>24.4</ele>
        <time>2021-05-21T13:12:30Z</time>
      </trkpt>
      <trkpt lat="42.4299890" lon="-8.6436370">
        <ele>24.4</ele>
        <time>2021-05-21T13:12:31Z</time>
      </trkpt>
      <trkpt lat="42.4299870" lon="-8.6436380">
        <ele>24.4</ele>
        <time>2021-05-21T13:12:32Z</time>
      </trkpt>
      <trkpt lat="42.4299870" lon="-8.6436360">
        <ele>24.4</ele>
        <time>2021-05-21T13:12:33Z</time>
      </trkpt>
      <trkpt lat="42.4299870" lon="-8.6436370">
        <ele>24.4</ele>
        <time>2021-05-21T13:12:34Z</time>
      </trkpt>
      <trkpt lat="42.4299760" lon="-8.6436340">
        <ele>24.4</ele>
        <time>2021-05-21T13:12:35Z</time>
      </trkpt>
      <trkpt lat="42.4299760" lon="-8.6436340">
        <ele>24.4</ele>
        <time>2021-05-21T13:12:36Z</time>
      </trkpt>
      <trkpt lat="42.4299700" lon="-8.6436280">
        <ele>24.4</ele>
        <time>2021-05-21T13:12:37Z</time>
      </trkpt>
      <trkpt lat="42.4299700" lon="-8.6436270">
        <ele>24.4</ele>
        <time>2021-05-21T13:12:38Z</time>
      </trkpt>
      <trkpt lat="42.4299700" lon="-8.6436200">
        <ele>24.4</ele>
        <time>2021-05-21T13:12:39Z</time>
      </trkpt>
      <trkpt lat="42.4299700" lon="-8.6436200">
        <ele>24.4</ele>
        <time>2021-05-21T13:12:40Z</time>
      </trkpt>
      <trkpt lat="42.4299500" lon="-8.6436390">
        <ele>24.4</ele>
        <time>2021-05-21T13:12:41Z</time>
      </trkpt>
      <trkpt lat="42.4299500" lon="-8.6436390">
        <ele>24.4</ele>
        <time>2021-05-21T13:12:42Z</time>
      </trkpt>
      <trkpt lat="42.4299490" lon="-8.6436490">
        <ele>24.4</ele>
        <time>2021-05-21T13:12:43Z</time>
      </trkpt>
      <trkpt lat="42.4299480" lon="-8.6436500">
        <ele>24.4</ele>
        <time>2021-05-21T13:12:44Z</time>
      </trkpt>
      <trkpt lat="42.4299330" lon="-8.6436590">
        <ele>24.4</ele>
        <time>2021-05-21T13:12:45Z</time>
      </trkpt>
      <trkpt lat="42.4299330" lon="-8.6436590">
        <ele>24.4</ele>
        <time>2021-05-21T13:12:46Z</time>
      </trkpt>
      <trkpt lat="42.4299330" lon="-8.6436590">
        <ele>24.4</ele>
        <time>2021-05-21T13:12:47Z</time>
      </trkpt>
      <trkpt lat="42.4299580" lon="-8.6436460">
        <ele>24.4</ele>
        <time>2021-05-21T13:12:48Z</time>
      </trkpt>
      <trkpt lat="42.4299650" lon="-8.6436470">
        <ele>24.4</ele>
        <time>2021-05-21T13:12:49Z</time>
      </trkpt>
      <trkpt lat="42.4299740" lon="-8.6436390">
        <ele>24.4</ele>
        <time>2021-05-21T13:12:50Z</time>
      </trkpt>
      <trkpt lat="42.4299760" lon="-8.6436320">
        <ele>24.4</ele>
        <time>2021-05-21T13:12:51Z</time>
      </trkpt>
      <trkpt lat="42.4299830" lon="-8.6436290">
        <ele>24.4</ele>
        <time>2021-05-21T13:12:52Z</time>
      </trkpt>
      <trkpt lat="42.4299820" lon="-8.6436260">
        <ele>24.4</ele>
        <time>2021-05-21T13:12:53Z</time>
      </trkpt>
      <trkpt lat="42.4299810" lon="-8.6436380">
        <ele>24.4</ele>
        <time>2021-05-21T13:12:54Z</time>
      </trkpt>
      <trkpt lat="42.4299750" lon="-8.6436430">
        <ele>24.4</ele>
        <time>2021-05-21T13:12:55Z</time>
      </trkpt>
      <trkpt lat="42.4299800" lon="-8.6436430">
        <ele>24.4</ele>
        <time>2021-05-21T13:12:56Z</time>
      </trkpt>
      <trkpt lat="42.4299800" lon="-8.6436430">
        <ele>24.4</ele>
        <time>2021-05-21T13:12:57Z</time>
      </trkpt>
      <trkpt lat="42.4299680" lon="-8.6436600">
        <ele>24.4</ele>
        <time>2021-05-21T13:12:58Z</time>
      </trkpt>
      <trkpt lat="42.4299660" lon="-8.6436700">
        <ele>24.4</ele>
        <time>2021-05-21T13:12:59Z</time>
      </trkpt>
      <trkpt lat="42.4299640" lon="-8.6436780">
        <ele>24.4</ele>
        <time>2021-05-21T13:13:00Z</time>
      </trkpt>
      <trkpt lat="42.4299670" lon="-8.6436760">
        <ele>24.4</ele>
        <time>2021-05-21T13:13:01Z</time>
      </trkpt>
      <trkpt lat="42.4299700" lon="-8.6436740">
        <ele>24.4</ele>
        <time>2021-05-21T13:13:02Z</time>
      </trkpt>
      <trkpt lat="42.4299730" lon="-8.6436720">
        <ele>24.4</ele>
        <time>2021-05-21T13:13:03Z</time>
      </trkpt>
      <trkpt lat="42.4299760" lon="-8.6436700">
        <ele>24.4</ele>
        <time>2021-05-21T13:13:04Z</time>
      </trkpt>
      <trkpt lat="42.4299790" lon="-8.6436680">
        <ele>24.4</ele>
        <time>2021-05-21T13:13:05Z</time>
      </trkpt>
      <trkpt lat="42.4299830" lon="-8.6436650">
        <ele>24.4</ele>
        <time>2021-05-21T13:13:06Z</time>
      </trkpt>
      <trkpt lat="42.4299860" lon="-8.6436630">
        <ele>24.4</ele>
        <time>2021-05-21T13:13:07Z</time>
      </trkpt>
      <trkpt lat="42.4299890" lon="-8.6436610">
        <ele>24.4</ele>
        <time>2021-05-21T13:13:08Z</time>
      </trkpt>
      <trkpt lat="42.4299920" lon="-8.6436590">
        <ele>24.4</ele>
        <time>2021-05-21T13:13:09Z</time>
      </trkpt>
      <trkpt lat="42.4299950" lon="-8.6436570">
        <ele>24.4</ele>
        <time>2021-05-21T13:13:10Z</time>
      </trkpt>
      <trkpt lat="42.4299980" lon="-8.6436550">
        <ele>24.4</ele>
        <time>2021-05-21T13:13:11Z</time>
      </trkpt>
      <trkpt lat="42.4300010" lon="-8.6436530">
        <ele>24.4</ele>
        <time>2021-05-21T13:13:12Z</time>
      </trkpt>
      <trkpt lat="42.4300100" lon="-8.6436370">
        <ele>24.4</ele>
        <time>2021-05-21T13:13:13Z</time>
      </trkpt>
      <trkpt lat="42.4300130" lon="-8.6436290">
        <ele>24.4</ele>
        <time>2021-05-21T13:13:14Z</time>
      </trkpt>
      <trkpt lat="42.4300170" lon="-8.6436190">
        <ele>24.4</ele>
        <time>2021-05-21T13:13:15Z</time>
      </trkpt>
      <trkpt lat="42.4300170" lon="-8.6436190">
        <ele>24.4</ele>
        <time>2021-05-21T13:13:16Z</time>
      </trkpt>
      <trkpt lat="42.4300170" lon="-8.6436190">
        <ele>24.4</ele>
        <time>2021-05-21T13:13:17Z</time>
      </trkpt>
      <trkpt lat="42.4300300" lon="-8.6436030">
        <ele>24.4</ele>
        <time>2021-05-21T13:13:18Z</time>
      </trkpt>
      <trkpt lat="42.4300210" lon="-8.6436100">
        <ele>24.4</ele>
        <time>2021-05-21T13:13:19Z</time>
      </trkpt>
      <trkpt lat="42.4300210" lon="-8.6436110">
        <ele>24.4</ele>
        <time>2021-05-21T13:13:20Z</time>
      </trkpt>
      <trkpt lat="42.4300190" lon="-8.6436130">
        <ele>24.4</ele>
        <time>2021-05-21T13:13:21Z</time>
      </trkpt>
      <trkpt lat="42.4300180" lon="-8.6436160">
        <ele>24.4</ele>
        <time>2021-05-21T13:13:22Z</time>
      </trkpt>
      <trkpt lat="42.4300090" lon="-8.6436330">
        <ele>24.4</ele>
        <time>2021-05-21T13:13:23Z</time>
      </trkpt>
      <trkpt lat="42.4300020" lon="-8.6436390">
        <ele>24.4</ele>
        <time>2021-05-21T13:13:24Z</time>
      </trkpt>
      <trkpt lat="42.4300010" lon="-8.6436440">
        <ele>24.4</ele>
        <time>2021-05-21T13:13:25Z</time>
      </trkpt>
      <trkpt lat="42.4300040" lon="-8.6436420">
        <ele>24.4</ele>
        <time>2021-05-21T13:13:26Z</time>
      </trkpt>
      <trkpt lat="42.4300110" lon="-8.6436420">
        <ele>24.4</ele>
        <time>2021-05-21T13:13:27Z</time>
      </trkpt>
      <trkpt lat="42.4300020" lon="-8.6436530">
        <ele>24.4</ele>
        <time>2021-05-21T13:13:28Z</time>
      </trkpt>
      <trkpt lat="42.4300010" lon="-8.6436550">
        <ele>24.4</ele>
        <time>2021-05-21T13:13:29Z</time>
      </trkpt>
      <trkpt lat="42.4299910" lon="-8.6436650">
        <ele>24.4</ele>
        <time>2021-05-21T13:13:30Z</time>
      </trkpt>
      <trkpt lat="42.4299850" lon="-8.6436770">
        <ele>24.4</ele>
        <time>2021-05-21T13:13:31Z</time>
      </trkpt>
      <trkpt lat="42.4299780" lon="-8.6436880">
        <ele>24.3</ele>
        <time>2021-05-21T13:13:32Z</time>
      </trkpt>
      <trkpt lat="42.4299740" lon="-8.6436970">
        <ele>24.3</ele>
        <time>2021-05-21T13:13:33Z</time>
      </trkpt>
      <trkpt lat="42.4299740" lon="-8.6436970">
        <ele>24.3</ele>
        <time>2021-05-21T13:13:34Z</time>
      </trkpt>
      <trkpt lat="42.4299690" lon="-8.6437030">
        <ele>24.3</ele>
        <time>2021-05-21T13:13:35Z</time>
      </trkpt>
      <trkpt lat="42.4299630" lon="-8.6437120">
        <ele>24.3</ele>
        <time>2021-05-21T13:13:36Z</time>
      </trkpt>
      <trkpt lat="42.4299710" lon="-8.6437010">
        <ele>24.3</ele>
        <time>2021-05-21T13:13:37Z</time>
      </trkpt>
      <trkpt lat="42.4299840" lon="-8.6436870">
        <ele>24.3</ele>
        <time>2021-05-21T13:13:38Z</time>
      </trkpt>
      <trkpt lat="42.4299850" lon="-8.6436870">
        <ele>24.3</ele>
        <time>2021-05-21T13:13:39Z</time>
      </trkpt>
      <trkpt lat="42.4299770" lon="-8.6436870">
        <ele>24.3</ele>
        <time>2021-05-21T13:13:40Z</time>
      </trkpt>
      <trkpt lat="42.4299800" lon="-8.6436800">
        <ele>24.3</ele>
        <time>2021-05-21T13:13:41Z</time>
      </trkpt>
      <trkpt lat="42.4299890" lon="-8.6436780">
        <ele>24.3</ele>
        <time>2021-05-21T13:13:42Z</time>
      </trkpt>
      <trkpt lat="42.4299900" lon="-8.6436770">
        <ele>24.3</ele>
        <time>2021-05-21T13:13:43Z</time>
      </trkpt>
      <trkpt lat="42.4299910" lon="-8.6436820">
        <ele>24.3</ele>
        <time>2021-05-21T13:13:44Z</time>
      </trkpt>
      <trkpt lat="42.4299960" lon="-8.6436770">
        <ele>24.3</ele>
        <time>2021-05-21T13:13:45Z</time>
      </trkpt>
      <trkpt lat="42.4300000" lon="-8.6436690">
        <ele>24.3</ele>
        <time>2021-05-21T13:13:46Z</time>
      </trkpt>
      <trkpt lat="42.4300030" lon="-8.6436610">
        <ele>24.3</ele>
        <time>2021-05-21T13:13:47Z</time>
      </trkpt>
      <trkpt lat="42.4300010" lon="-8.6436590">
        <ele>24.3</ele>
        <time>2021-05-21T13:13:48Z</time>
      </trkpt>
      <trkpt lat="42.4299940" lon="-8.6436710">
        <ele>24.3</ele>
        <time>2021-05-21T13:13:49Z</time>
      </trkpt>
      <trkpt lat="42.4299910" lon="-8.6436780">
        <ele>24.3</ele>
        <time>2021-05-21T13:13:50Z</time>
      </trkpt>
      <trkpt lat="42.4299870" lon="-8.6436780">
        <ele>24.3</ele>
        <time>2021-05-21T13:13:51Z</time>
      </trkpt>
      <trkpt lat="42.4299870" lon="-8.6436790">
        <ele>24.3</ele>
        <time>2021-05-21T13:13:52Z</time>
      </trkpt>
      <trkpt lat="42.4299930" lon="-8.6436780">
        <ele>24.3</ele>
        <time>2021-05-21T13:13:53Z</time>
      </trkpt>
      <trkpt lat="42.4299880" lon="-8.6436830">
        <ele>24.3</ele>
        <time>2021-05-21T13:13:54Z</time>
      </trkpt>
      <trkpt lat="42.4299850" lon="-8.6436840">
        <ele>24.3</ele>
        <time>2021-05-21T13:13:55Z</time>
      </trkpt>
      <trkpt lat="42.4299880" lon="-8.6436820">
        <ele>24.3</ele>
        <time>2021-05-21T13:13:56Z</time>
      </trkpt>
      <trkpt lat="42.4299820" lon="-8.6436990">
        <ele>24.3</ele>
        <time>2021-05-21T13:13:57Z</time>
      </trkpt>
      <trkpt lat="42.4299800" lon="-8.6437120">
        <ele>24.3</ele>
        <time>2021-05-21T13:13:58Z</time>
      </trkpt>
      <trkpt lat="42.4299800" lon="-8.6437120">
        <ele>24.3</ele>
        <time>2021-05-21T13:13:59Z</time>
      </trkpt>
      <trkpt lat="42.4299820" lon="-8.6436990">
        <ele>24.3</ele>
        <time>2021-05-21T13:14:00Z</time>
      </trkpt>
      <trkpt lat="42.4299850" lon="-8.6436960">
        <ele>24.3</ele>
        <time>2021-05-21T13:14:01Z</time>
      </trkpt>
      <trkpt lat="42.4299860" lon="-8.6436960">
        <ele>24.3</ele>
        <time>2021-05-21T13:14:02Z</time>
      </trkpt>
      <trkpt lat="42.4299840" lon="-8.6436960">
        <ele>24.3</ele>
        <time>2021-05-21T13:14:03Z</time>
      </trkpt>
      <trkpt lat="42.4299920" lon="-8.6436970">
        <ele>24.3</ele>
        <time>2021-05-21T13:14:04Z</time>
      </trkpt>
      <trkpt lat="42.4299970" lon="-8.6436940">
        <ele>24.3</ele>
        <time>2021-05-21T13:14:05Z</time>
      </trkpt>
      <trkpt lat="42.4300010" lon="-8.6436830">
        <ele>24.3</ele>
        <time>2021-05-21T13:14:06Z</time>
      </trkpt>
      <trkpt lat="42.4300000" lon="-8.6436700">
        <ele>24.3</ele>
        <time>2021-05-21T13:14:07Z</time>
      </trkpt>
      <trkpt lat="42.4300010" lon="-8.6436540">
        <ele>24.3</ele>
        <time>2021-05-21T13:14:08Z</time>
      </trkpt>
      <trkpt lat="42.4299990" lon="-8.6436470">
        <ele>24.3</ele>
        <time>2021-05-21T13:14:09Z</time>
      </trkpt>
      <trkpt lat="42.4299970" lon="-8.6436390">
        <ele>24.3</ele>
        <time>2021-05-21T13:14:10Z</time>
      </trkpt>
      <trkpt lat="42.4299950" lon="-8.6436320">
        <ele>24.3</ele>
        <time>2021-05-21T13:14:11Z</time>
      </trkpt>
      <trkpt lat="42.4299930" lon="-8.6436250">
        <ele>24.3</ele>
        <time>2021-05-21T13:14:12Z</time>
      </trkpt>
      <trkpt lat="42.4299910" lon="-8.6436180">
        <ele>24.3</ele>
        <time>2021-05-21T13:14:13Z</time>
      </trkpt>
      <trkpt lat="42.4299900" lon="-8.6436100">
        <ele>24.3</ele>
        <time>2021-05-21T13:14:14Z</time>
      </trkpt>
      <trkpt lat="42.4299920" lon="-8.6435930">
        <ele>24.3</ele>
        <time>2021-05-21T13:14:15Z</time>
      </trkpt>
      <trkpt lat="42.4299900" lon="-8.6435700">
        <ele>24.3</ele>
        <time>2021-05-21T13:14:16Z</time>
      </trkpt>
      <trkpt lat="42.4299800" lon="-8.6435720">
        <ele>24.3</ele>
        <time>2021-05-21T13:14:17Z</time>
      </trkpt>
      <trkpt lat="42.4299690" lon="-8.6435730">
        <ele>24.3</ele>
        <time>2021-05-21T13:14:18Z</time>
      </trkpt>
      <trkpt lat="42.4299780" lon="-8.6435250">
        <ele>24.3</ele>
        <time>2021-05-21T13:14:19Z</time>
      </trkpt>
      <trkpt lat="42.4299810" lon="-8.6434980">
        <ele>24.3</ele>
        <time>2021-05-21T13:14:20Z</time>
      </trkpt>
      <trkpt lat="42.4299810" lon="-8.6434980">
        <ele>24.3</ele>
        <time>2021-05-21T13:14:21Z</time>
      </trkpt>
      <trkpt lat="42.4299770" lon="-8.6434830">
        <ele>24.3</ele>
        <time>2021-05-21T13:14:22Z</time>
      </trkpt>
      <trkpt lat="42.4299790" lon="-8.6434500">
        <ele>24.3</ele>
        <time>2021-05-21T13:14:23Z</time>
      </trkpt>
      <trkpt lat="42.4299800" lon="-8.6434350">
        <ele>24.3</ele>
        <time>2021-05-21T13:14:24Z</time>
      </trkpt>
      <trkpt lat="42.4299800" lon="-8.6434200">
        <ele>24.3</ele>
        <time>2021-05-21T13:14:25Z</time>
      </trkpt>
      <trkpt lat="42.4299800" lon="-8.6434050">
        <ele>24.3</ele>
        <time>2021-05-21T13:14:26Z</time>
      </trkpt>
      <trkpt lat="42.4299770" lon="-8.6434020">
        <ele>24.3</ele>
        <time>2021-05-21T13:14:27Z</time>
      </trkpt>
      <trkpt lat="42.4299770" lon="-8.6433930">
        <ele>24.3</ele>
        <time>2021-05-21T13:14:28Z</time>
      </trkpt>
      <trkpt lat="42.4299830" lon="-8.6433970">
        <ele>24.3</ele>
        <time>2021-05-21T13:14:29Z</time>
      </trkpt>
      <trkpt lat="42.4299830" lon="-8.6433970">
        <ele>24.3</ele>
        <time>2021-05-21T13:14:30Z</time>
      </trkpt>
      <trkpt lat="42.4299840" lon="-8.6434070">
        <ele>24.3</ele>
        <time>2021-05-21T13:14:31Z</time>
      </trkpt>
      <trkpt lat="42.4299840" lon="-8.6434140">
        <ele>24.3</ele>
        <time>2021-05-21T13:14:32Z</time>
      </trkpt>
      <trkpt lat="42.4299890" lon="-8.6434280">
        <ele>24.3</ele>
        <time>2021-05-21T13:14:33Z</time>
      </trkpt>
      <trkpt lat="42.4300000" lon="-8.6434350">
        <ele>24.3</ele>
        <time>2021-05-21T13:14:34Z</time>
      </trkpt>
      <trkpt lat="42.4300240" lon="-8.6434630">
        <ele>24.3</ele>
        <time>2021-05-21T13:14:35Z</time>
      </trkpt>
      <trkpt lat="42.4300400" lon="-8.6434830">
        <ele>24.3</ele>
        <time>2021-05-21T13:14:36Z</time>
      </trkpt>
      <trkpt lat="42.4300400" lon="-8.6435030">
        <ele>24.3</ele>
        <time>2021-05-21T13:14:37Z</time>
      </trkpt>
      <trkpt lat="42.4300400" lon="-8.6435250">
        <ele>24.3</ele>
        <time>2021-05-21T13:14:38Z</time>
      </trkpt>
      <trkpt lat="42.4300410" lon="-8.6435470">
        <ele>24.3</ele>
        <time>2021-05-21T13:14:39Z</time>
      </trkpt>
      <trkpt lat="42.4300190" lon="-8.6435790">
        <ele>24.3</ele>
        <time>2021-05-21T13:14:40Z</time>
      </trkpt>
      <trkpt lat="42.4300110" lon="-8.6436030">
        <ele>24.2</ele>
        <time>2021-05-21T13:14:41Z</time>
      </trkpt>
      <trkpt lat="42.4300100" lon="-8.6436080">
        <ele>24.2</ele>
        <time>2021-05-21T13:14:42Z</time>
      </trkpt>
      <trkpt lat="42.4300090" lon="-8.6436130">
        <ele>24.2</ele>
        <time>2021-05-21T13:14:43Z</time>
      </trkpt>
      <trkpt lat="42.4300090" lon="-8.6436170">
        <ele>24.2</ele>
        <time>2021-05-21T13:14:44Z</time>
      </trkpt>
      <trkpt lat="42.4300080" lon="-8.6436220">
        <ele>24.2</ele>
        <time>2021-05-21T13:14:45Z</time>
      </trkpt>
      <trkpt lat="42.4300070" lon="-8.6436270">
        <ele>24.2</ele>
        <time>2021-05-21T13:14:46Z</time>
      </trkpt>
      <trkpt lat="42.4300060" lon="-8.6436320">
        <ele>24.2</ele>
        <time>2021-05-21T13:14:47Z</time>
      </trkpt>
      <trkpt lat="42.4300110" lon="-8.6436320">
        <ele>24.2</ele>
        <time>2021-05-21T13:14:48Z</time>
      </trkpt>
      <trkpt lat="42.4300120" lon="-8.6436340">
        <ele>24.2</ele>
        <time>2021-05-21T13:14:49Z</time>
      </trkpt>
      <trkpt lat="42.4300120" lon="-8.6436360">
        <ele>24.2</ele>
        <time>2021-05-21T13:14:50Z</time>
      </trkpt>
      <trkpt lat="42.4300130" lon="-8.6436370">
        <ele>24.2</ele>
        <time>2021-05-21T13:14:51Z</time>
      </trkpt>
      <trkpt lat="42.4300140" lon="-8.6436390">
        <ele>24.2</ele>
        <time>2021-05-21T13:14:52Z</time>
      </trkpt>
      <trkpt lat="42.4300150" lon="-8.6436410">
        <ele>24.2</ele>
        <time>2021-05-21T13:14:54Z</time>
      </trkpt>
      <trkpt lat="42.4300160" lon="-8.6436430">
        <ele>24.2</ele>
        <time>2021-05-21T13:14:55Z</time>
      </trkpt>
      <trkpt lat="42.4300170" lon="-8.6436450">
        <ele>24.2</ele>
        <time>2021-05-21T13:14:56Z</time>
      </trkpt>
      <trkpt lat="42.4300170" lon="-8.6436470">
        <ele>24.2</ele>
        <time>2021-05-21T13:14:57Z</time>
      </trkpt>
      <trkpt lat="42.4300180" lon="-8.6436490">
        <ele>24.2</ele>
        <time>2021-05-21T13:14:58Z</time>
      </trkpt>
      <trkpt lat="42.4300190" lon="-8.6436510">
        <ele>24.2</ele>
        <time>2021-05-21T13:14:59Z</time>
      </trkpt>
      <trkpt lat="42.4300200" lon="-8.6436520">
        <ele>24.2</ele>
        <time>2021-05-21T13:15:00Z</time>
      </trkpt>
      <trkpt lat="42.4300210" lon="-8.6436540">
        <ele>24.2</ele>
        <time>2021-05-21T13:15:01Z</time>
      </trkpt>
      <trkpt lat="42.4300220" lon="-8.6436560">
        <ele>24.2</ele>
        <time>2021-05-21T13:15:02Z</time>
      </trkpt>
      <trkpt lat="42.4300220" lon="-8.6436580">
        <ele>24.2</ele>
        <time>2021-05-21T13:15:03Z</time>
      </trkpt>
      <trkpt lat="42.4300230" lon="-8.6436600">
        <ele>24.2</ele>
        <time>2021-05-21T13:15:04Z</time>
      </trkpt>
      <trkpt lat="42.4300240" lon="-8.6436620">
        <ele>24.2</ele>
        <time>2021-05-21T13:15:05Z</time>
      </trkpt>
      <trkpt lat="42.4300250" lon="-8.6436640">
        <ele>24.2</ele>
        <time>2021-05-21T13:15:06Z</time>
      </trkpt>
      <trkpt lat="42.4300260" lon="-8.6436660">
        <ele>24.2</ele>
        <time>2021-05-21T13:15:07Z</time>
      </trkpt>
      <trkpt lat="42.4300270" lon="-8.6436670">
        <ele>24.2</ele>
        <time>2021-05-21T13:15:08Z</time>
      </trkpt>
      <trkpt lat="42.4300270" lon="-8.6436690">
        <ele>24.2</ele>
        <time>2021-05-21T13:15:09Z</time>
      </trkpt>
      <trkpt lat="42.4300280" lon="-8.6436710">
        <ele>24.2</ele>
        <time>2021-05-21T13:15:10Z</time>
      </trkpt>
      <trkpt lat="42.4300290" lon="-8.6436730">
        <ele>24.2</ele>
        <time>2021-05-21T13:15:11Z</time>
      </trkpt>
      <trkpt lat="42.4300250" lon="-8.6436670">
        <ele>24.2</ele>
        <time>2021-05-21T13:15:12Z</time>
      </trkpt>
      <trkpt lat="42.4300250" lon="-8.6436670">
        <ele>24.2</ele>
        <time>2021-05-21T13:15:13Z</time>
      </trkpt>
      <trkpt lat="42.4300250" lon="-8.6436670">
        <ele>24.2</ele>
        <time>2021-05-21T13:15:14Z</time>
      </trkpt>
      <trkpt lat="42.4300280" lon="-8.6436590">
        <ele>24.2</ele>
        <time>2021-05-21T13:15:15Z</time>
      </trkpt>
      <trkpt lat="42.4300180" lon="-8.6436540">
        <ele>24.2</ele>
        <time>2021-05-21T13:15:16Z</time>
      </trkpt>
      <trkpt lat="42.4300300" lon="-8.6436300">
        <ele>24.2</ele>
        <time>2021-05-21T13:15:17Z</time>
      </trkpt>
      <trkpt lat="42.4300380" lon="-8.6436260">
        <ele>24.2</ele>
        <time>2021-05-21T13:15:18Z</time>
      </trkpt>
      <trkpt lat="42.4300260" lon="-8.6436240">
        <ele>24.2</ele>
        <time>2021-05-21T13:15:19Z</time>
      </trkpt>
      <trkpt lat="42.4300240" lon="-8.6436380">
        <ele>24.2</ele>
        <time>2021-05-21T13:15:20Z</time>
      </trkpt>
      <trkpt lat="42.4300310" lon="-8.6436460">
        <ele>24.2</ele>
        <time>2021-05-21T13:15:21Z</time>
      </trkpt>
      <trkpt lat="42.4300350" lon="-8.6436450">
        <ele>24.2</ele>
        <time>2021-05-21T13:15:22Z</time>
      </trkpt>
      <trkpt lat="42.4300400" lon="-8.6436370">
        <ele>24.2</ele>
        <time>2021-05-21T13:15:23Z</time>
      </trkpt>
      <trkpt lat="42.4300230" lon="-8.6436470">
        <ele>24.2</ele>
        <time>2021-05-21T13:15:24Z</time>
      </trkpt>
      <trkpt lat="42.4300040" lon="-8.6436630">
        <ele>24.2</ele>
        <time>2021-05-21T13:15:25Z</time>
      </trkpt>
      <trkpt lat="42.4299990" lon="-8.6436580">
        <ele>24.2</ele>
        <time>2021-05-21T13:15:26Z</time>
      </trkpt>
      <trkpt lat="42.4299920" lon="-8.6436560">
        <ele>24.2</ele>
        <time>2021-05-21T13:15:27Z</time>
      </trkpt>
      <trkpt lat="42.4299850" lon="-8.6436550">
        <ele>24.2</ele>
        <time>2021-05-21T13:15:28Z</time>
      </trkpt>
      <trkpt lat="42.4299770" lon="-8.6436540">
        <ele>24.2</ele>
        <time>2021-05-21T13:15:29Z</time>
      </trkpt>
      <trkpt lat="42.4299700" lon="-8.6436530">
        <ele>24.2</ele>
        <time>2021-05-21T13:15:30Z</time>
      </trkpt>
      <trkpt lat="42.4299630" lon="-8.6436510">
        <ele>24.2</ele>
        <time>2021-05-21T13:15:31Z</time>
      </trkpt>
      <trkpt lat="42.4299560" lon="-8.6436500">
        <ele>24.2</ele>
        <time>2021-05-21T13:15:32Z</time>
      </trkpt>
      <trkpt lat="42.4299540" lon="-8.6436420">
        <ele>24.2</ele>
        <time>2021-05-21T13:15:33Z</time>
      </trkpt>
      <trkpt lat="42.4299530" lon="-8.6436340">
        <ele>24.2</ele>
        <time>2021-05-21T13:15:34Z</time>
      </trkpt>
      <trkpt lat="42.4299510" lon="-8.6436260">
        <ele>24.2</ele>
        <time>2021-05-21T13:15:35Z</time>
      </trkpt>
      <trkpt lat="42.4299490" lon="-8.6436190">
        <ele>24.2</ele>
        <time>2021-05-21T13:15:36Z</time>
      </trkpt>
      <trkpt lat="42.4299470" lon="-8.6436110">
        <ele>24.2</ele>
        <time>2021-05-21T13:15:37Z</time>
      </trkpt>
      <trkpt lat="42.4299460" lon="-8.6436030">
        <ele>24.2</ele>
        <time>2021-05-21T13:15:38Z</time>
      </trkpt>
      <trkpt lat="42.4299440" lon="-8.6435950">
        <ele>24.2</ele>
        <time>2021-05-21T13:15:39Z</time>
      </trkpt>
      <trkpt lat="42.4299450" lon="-8.6435910">
        <ele>24.2</ele>
        <time>2021-05-21T13:15:40Z</time>
      </trkpt>
      <trkpt lat="42.4299460" lon="-8.6435840">
        <ele>24.2</ele>
        <time>2021-05-21T13:15:41Z</time>
      </trkpt>
      <trkpt lat="42.4299480" lon="-8.6435820">
        <ele>24.2</ele>
        <time>2021-05-21T13:15:42Z</time>
      </trkpt>
      <trkpt lat="42.4299560" lon="-8.6435930">
        <ele>24.2</ele>
        <time>2021-05-21T13:15:43Z</time>
      </trkpt>
      <trkpt lat="42.4299610" lon="-8.6435990">
        <ele>24.2</ele>
        <time>2021-05-21T13:15:44Z</time>
      </trkpt>
      <trkpt lat="42.4299650" lon="-8.6436060">
        <ele>24.2</ele>
        <time>2021-05-21T13:15:45Z</time>
      </trkpt>
      <trkpt lat="42.4299660" lon="-8.6436110">
        <ele>24.2</ele>
        <time>2021-05-21T13:15:46Z</time>
      </trkpt>
      <trkpt lat="42.4299700" lon="-8.6436150">
        <ele>24.2</ele>
        <time>2021-05-21T13:15:47Z</time>
      </trkpt>
      <trkpt lat="42.4299700" lon="-8.6436240">
        <ele>24.2</ele>
        <time>2021-05-21T13:15:48Z</time>
      </trkpt>
      <trkpt lat="42.4299770" lon="-8.6436210">
        <ele>24.2</ele>
        <time>2021-05-21T13:15:49Z</time>
      </trkpt>
      <trkpt lat="42.4299850" lon="-8.6436170">
        <ele>24.2</ele>
        <time>2021-05-21T13:15:50Z</time>
      </trkpt>
      <trkpt lat="42.4299930" lon="-8.6436180">
        <ele>24.2</ele>
        <time>2021-05-21T13:15:51Z</time>
      </trkpt>
      <trkpt lat="42.4299950" lon="-8.6436240">
        <ele>24.2</ele>
        <time>2021-05-21T13:15:52Z</time>
      </trkpt>
      <trkpt lat="42.4299950" lon="-8.6436240">
        <ele>24.2</ele>
        <time>2021-05-21T13:15:53Z</time>
      </trkpt>
      <trkpt lat="42.4300010" lon="-8.6436390">
        <ele>24.2</ele>
        <time>2021-05-21T13:15:54Z</time>
      </trkpt>
      <trkpt lat="42.4300180" lon="-8.6436340">
        <ele>24.2</ele>
        <time>2021-05-21T13:15:55Z</time>
      </trkpt>
      <trkpt lat="42.4300270" lon="-8.6436330">
        <ele>24.2</ele>
        <time>2021-05-21T13:15:56Z</time>
      </trkpt>
      <trkpt lat="42.4300370" lon="-8.6436320">
        <ele>24.2</ele>
        <time>2021-05-21T13:15:57Z</time>
      </trkpt>
      <trkpt lat="42.4300460" lon="-8.6436310">
        <ele>24.2</ele>
        <time>2021-05-21T13:15:58Z</time>
      </trkpt>
      <trkpt lat="42.4300560" lon="-8.6436300">
        <ele>24.2</ele>
        <time>2021-05-21T13:15:59Z</time>
      </trkpt>
      <trkpt lat="42.4300630" lon="-8.6436200">
        <ele>24.2</ele>
        <time>2021-05-21T13:16:00Z</time>
      </trkpt>
      <trkpt lat="42.4300670" lon="-8.6436150">
        <ele>24.2</ele>
        <time>2021-05-21T13:16:01Z</time>
      </trkpt>
      <trkpt lat="42.4300700" lon="-8.6436100">
        <ele>24.2</ele>
        <time>2021-05-21T13:16:02Z</time>
      </trkpt>
      <trkpt lat="42.4300740" lon="-8.6436050">
        <ele>24.2</ele>
        <time>2021-05-21T13:16:03Z</time>
      </trkpt>
      <trkpt lat="42.4300770" lon="-8.6436000">
        <ele>24.2</ele>
        <time>2021-05-21T13:16:04Z</time>
      </trkpt>
      <trkpt lat="42.4300800" lon="-8.6435950">
        <ele>24.2</ele>
        <time>2021-05-21T13:16:05Z</time>
      </trkpt>
      <trkpt lat="42.4300840" lon="-8.6435890">
        <ele>24.2</ele>
        <time>2021-05-21T13:16:06Z</time>
      </trkpt>
      <trkpt lat="42.4300870" lon="-8.6435840">
        <ele>24.2</ele>
        <time>2021-05-21T13:16:07Z</time>
      </trkpt>
      <trkpt lat="42.4300900" lon="-8.6435790">
        <ele>24.2</ele>
        <time>2021-05-21T13:16:08Z</time>
      </trkpt>
      <trkpt lat="42.4300940" lon="-8.6435740">
        <ele>24.2</ele>
        <time>2021-05-21T13:16:09Z</time>
      </trkpt>
      <trkpt lat="42.4300970" lon="-8.6435690">
        <ele>24.2</ele>
        <time>2021-05-21T13:16:10Z</time>
      </trkpt>
      <trkpt lat="42.4301010" lon="-8.6435640">
        <ele>24.2</ele>
        <time>2021-05-21T13:16:11Z</time>
      </trkpt>
      <trkpt lat="42.4301040" lon="-8.6435590">
        <ele>24.2</ele>
        <time>2021-05-21T13:16:12Z</time>
      </trkpt>
      <trkpt lat="42.4301390" lon="-8.6435340">
        <ele>24.2</ele>
        <time>2021-05-21T13:16:13Z</time>
      </trkpt>
      <trkpt lat="42.4301730" lon="-8.6435110">
        <ele>24.2</ele>
        <time>2021-05-21T13:16:14Z</time>
      </trkpt>
      <trkpt lat="42.4301660" lon="-8.6435160">
        <ele>24.2</ele>
        <time>2021-05-21T13:16:15Z</time>
      </trkpt>
      <trkpt lat="42.4301590" lon="-8.6435210">
        <ele>24.2</ele>
        <time>2021-05-21T13:16:16Z</time>
      </trkpt>
      <trkpt lat="42.4301510" lon="-8.6435270">
        <ele>24.2</ele>
        <time>2021-05-21T13:16:17Z</time>
      </trkpt>
      <trkpt lat="42.4301440" lon="-8.6435320">
        <ele>24.2</ele>
        <time>2021-05-21T13:16:18Z</time>
      </trkpt>
      <trkpt lat="42.4301370" lon="-8.6435380">
        <ele>24.2</ele>
        <time>2021-05-21T13:16:19Z</time>
      </trkpt>
      <trkpt lat="42.4301230" lon="-8.6435520">
        <ele>24.2</ele>
        <time>2021-05-21T13:16:20Z</time>
      </trkpt>
      <trkpt lat="42.4301140" lon="-8.6435600">
        <ele>24.1</ele>
        <time>2021-05-21T13:16:21Z</time>
      </trkpt>
      <trkpt lat="42.4301060" lon="-8.6435580">
        <ele>24.1</ele>
        <time>2021-05-21T13:16:22Z</time>
      </trkpt>
      <trkpt lat="42.4300870" lon="-8.6435670">
        <ele>24.1</ele>
        <time>2021-05-21T13:16:23Z</time>
      </trkpt>
      <trkpt lat="42.4300570" lon="-8.6436130">
        <ele>24.1</ele>
        <time>2021-05-21T13:16:24Z</time>
      </trkpt>
      <trkpt lat="42.4300310" lon="-8.6436290">
        <ele>24.1</ele>
        <time>2021-05-21T13:16:25Z</time>
      </trkpt>
      <trkpt lat="42.4300410" lon="-8.6436170">
        <ele>24.1</ele>
        <time>2021-05-21T13:16:26Z</time>
      </trkpt>
      <trkpt lat="42.4300470" lon="-8.6436110">
        <ele>24.1</ele>
        <time>2021-05-21T13:16:27Z</time>
      </trkpt>
      <trkpt lat="42.4300500" lon="-8.6436120">
        <ele>24.1</ele>
        <time>2021-05-21T13:16:28Z</time>
      </trkpt>
      <trkpt lat="42.4300500" lon="-8.6436110">
        <ele>24.1</ele>
        <time>2021-05-21T13:16:29Z</time>
      </trkpt>
      <trkpt lat="42.4300550" lon="-8.6436040">
        <ele>24.1</ele>
        <time>2021-05-21T13:16:30Z</time>
      </trkpt>
      <trkpt lat="42.4300550" lon="-8.6436040">
        <ele>24.1</ele>
        <time>2021-05-21T13:16:31Z</time>
      </trkpt>
      <trkpt lat="42.4300400" lon="-8.6436010">
        <ele>24.1</ele>
        <time>2021-05-21T13:16:32Z</time>
      </trkpt>
      <trkpt lat="42.4300480" lon="-8.6435830">
        <ele>24.1</ele>
        <time>2021-05-21T13:16:33Z</time>
      </trkpt>
      <trkpt lat="42.4300480" lon="-8.6435820">
        <ele>24.1</ele>
        <time>2021-05-21T13:16:34Z</time>
      </trkpt>
      <trkpt lat="42.4300620" lon="-8.6435710">
        <ele>24.1</ele>
        <time>2021-05-21T13:16:35Z</time>
      </trkpt>
      <trkpt lat="42.4300620" lon="-8.6435710">
        <ele>24.1</ele>
        <time>2021-05-21T13:16:36Z</time>
      </trkpt>
      <trkpt lat="42.4300620" lon="-8.6435710">
        <ele>24.1</ele>
        <time>2021-05-21T13:16:37Z</time>
      </trkpt>
      <trkpt lat="42.4300620" lon="-8.6435710">
        <ele>24.1</ele>
        <time>2021-05-21T13:16:38Z</time>
      </trkpt>
      <trkpt lat="42.4300380" lon="-8.6436050">
        <ele>24.1</ele>
        <time>2021-05-21T13:16:39Z</time>
      </trkpt>
      <trkpt lat="42.4300260" lon="-8.6436230">
        <ele>24.1</ele>
        <time>2021-05-21T13:16:40Z</time>
      </trkpt>
      <trkpt lat="42.4300210" lon="-8.6436190">
        <ele>24.1</ele>
        <time>2021-05-21T13:16:41Z</time>
      </trkpt>
      <trkpt lat="42.4300080" lon="-8.6436520">
        <ele>24.1</ele>
        <time>2021-05-21T13:16:42Z</time>
      </trkpt>
      <trkpt lat="42.4299980" lon="-8.6436320">
        <ele>24.1</ele>
        <time>2021-05-21T13:16:43Z</time>
      </trkpt>
      <trkpt lat="42.4300040" lon="-8.6436230">
        <ele>24.1</ele>
        <time>2021-05-21T13:16:44Z</time>
      </trkpt>
      <trkpt lat="42.4300100" lon="-8.6436150">
        <ele>24.1</ele>
        <time>2021-05-21T13:16:45Z</time>
      </trkpt>
      <trkpt lat="42.4300160" lon="-8.6436070">
        <ele>24.1</ele>
        <time>2021-05-21T13:16:46Z</time>
      </trkpt>
      <trkpt lat="42.4300220" lon="-8.6435990">
        <ele>24.1</ele>
        <time>2021-05-21T13:16:47Z</time>
      </trkpt>
      <trkpt lat="42.4300280" lon="-8.6435900">
        <ele>24.1</ele>
        <time>2021-05-21T13:16:48Z</time>
      </trkpt>
      <trkpt lat="42.4300340" lon="-8.6435820">
        <ele>24.1</ele>
        <time>2021-05-21T13:16:49Z</time>
      </trkpt>
      <trkpt lat="42.4300580" lon="-8.6435650">
        <ele>24.1</ele>
        <time>2021-05-21T13:16:51Z</time>
      </trkpt>
      <trkpt lat="42.4300670" lon="-8.6435590">
        <ele>24.1</ele>
        <time>2021-05-21T13:16:52Z</time>
      </trkpt>
      <trkpt lat="42.4300770" lon="-8.6435520">
        <ele>24.1</ele>
        <time>2021-05-21T13:16:53Z</time>
      </trkpt>
      <trkpt lat="42.4300780" lon="-8.6435570">
        <ele>24.1</ele>
        <time>2021-05-21T13:16:54Z</time>
      </trkpt>
      <trkpt lat="42.4300810" lon="-8.6435550">
        <ele>24.1</ele>
        <time>2021-05-21T13:16:55Z</time>
      </trkpt>
      <trkpt lat="42.4300590" lon="-8.6435640">
        <ele>24.1</ele>
        <time>2021-05-21T13:16:56Z</time>
      </trkpt>
      <trkpt lat="42.4300650" lon="-8.6435690">
        <ele>24.1</ele>
        <time>2021-05-21T13:16:57Z</time>
      </trkpt>
      <trkpt lat="42.4300590" lon="-8.6435840">
        <ele>24.1</ele>
        <time>2021-05-21T13:16:58Z</time>
      </trkpt>
      <trkpt lat="42.4300620" lon="-8.6435840">
        <ele>24.1</ele>
        <time>2021-05-21T13:16:59Z</time>
      </trkpt>
      <trkpt lat="42.4300650" lon="-8.6435790">
        <ele>24.1</ele>
        <time>2021-05-21T13:17:00Z</time>
      </trkpt>
      <trkpt lat="42.4300790" lon="-8.6435840">
        <ele>24.1</ele>
        <time>2021-05-21T13:17:01Z</time>
      </trkpt>
      <trkpt lat="42.4300720" lon="-8.6435940">
        <ele>24.1</ele>
        <time>2021-05-21T13:17:02Z</time>
      </trkpt>
      <trkpt lat="42.4300660" lon="-8.6436010">
        <ele>24.1</ele>
        <time>2021-05-21T13:17:03Z</time>
      </trkpt>
      <trkpt lat="42.4300730" lon="-8.6436170">
        <ele>24.1</ele>
        <time>2021-05-21T13:17:04Z</time>
      </trkpt>
      <trkpt lat="42.4300830" lon="-8.6436440">
        <ele>24.1</ele>
        <time>2021-05-21T13:17:05Z</time>
      </trkpt>
      <trkpt lat="42.4300960" lon="-8.6436420">
        <ele>24.1</ele>
        <time>2021-05-21T13:17:06Z</time>
      </trkpt>
      <trkpt lat="42.4300960" lon="-8.6436620">
        <ele>24.1</ele>
        <time>2021-05-21T13:17:07Z</time>
      </trkpt>
      <trkpt lat="42.4300870" lon="-8.6436730">
        <ele>24.1</ele>
        <time>2021-05-21T13:17:08Z</time>
      </trkpt>
      <trkpt lat="42.4300770" lon="-8.6436830">
        <ele>24.1</ele>
        <time>2021-05-21T13:17:09Z</time>
      </trkpt>
      <trkpt lat="42.4300670" lon="-8.6436940">
        <ele>24.1</ele>
        <time>2021-05-21T13:17:10Z</time>
      </trkpt>
      <trkpt lat="42.4300570" lon="-8.6437040">
        <ele>24.1</ele>
        <time>2021-05-21T13:17:11Z</time>
      </trkpt>
      <trkpt lat="42.4300480" lon="-8.6437150">
        <ele>24.1</ele>
        <time>2021-05-21T13:17:12Z</time>
      </trkpt>
      <trkpt lat="42.4300380" lon="-8.6437250">
        <ele>24.1</ele>
        <time>2021-05-21T13:17:13Z</time>
      </trkpt>
      <trkpt lat="42.4300430" lon="-8.6437410">
        <ele>24.1</ele>
        <time>2021-05-21T13:17:14Z</time>
      </trkpt>
      <trkpt lat="42.4300410" lon="-8.6437470">
        <ele>24.1</ele>
        <time>2021-05-21T13:17:15Z</time>
      </trkpt>
      <trkpt lat="42.4300410" lon="-8.6437580">
        <ele>24.1</ele>
        <time>2021-05-21T13:17:16Z</time>
      </trkpt>
      <trkpt lat="42.4300470" lon="-8.6437660">
        <ele>24.0</ele>
        <time>2021-05-21T13:17:17Z</time>
      </trkpt>
      <trkpt lat="42.4300590" lon="-8.6437770">
        <ele>24.0</ele>
        <time>2021-05-21T13:17:18Z</time>
      </trkpt>
      <trkpt lat="42.4300610" lon="-8.6437800">
        <ele>24.0</ele>
        <time>2021-05-21T13:17:19Z</time>
      </trkpt>
      <trkpt lat="42.4300630" lon="-8.6437820">
        <ele>24.0</ele>
        <time>2021-05-21T13:17:20Z</time>
      </trkpt>
      <trkpt lat="42.4300650" lon="-8.6437850">
        <ele>24.0</ele>
        <time>2021-05-21T13:17:21Z</time>
      </trkpt>
      <trkpt lat="42.4300670" lon="-8.6437880">
        <ele>24.0</ele>
        <time>2021-05-21T13:17:22Z</time>
      </trkpt>
      <trkpt lat="42.4300690" lon="-8.6437910">
        <ele>24.0</ele>
        <time>2021-05-21T13:17:23Z</time>
      </trkpt>
      <trkpt lat="42.4300700" lon="-8.6437940">
        <ele>24.0</ele>
        <time>2021-05-21T13:17:24Z</time>
      </trkpt>
      <trkpt lat="42.4300720" lon="-8.6437970">
        <ele>24.0</ele>
        <time>2021-05-21T13:17:25Z</time>
      </trkpt>
      <trkpt lat="42.4300740" lon="-8.6437990">
        <ele>24.0</ele>
        <time>2021-05-21T13:17:26Z</time>
      </trkpt>
      <trkpt lat="42.4300760" lon="-8.6438020">
        <ele>24.0</ele>
        <time>2021-05-21T13:17:27Z</time>
      </trkpt>
      <trkpt lat="42.4300780" lon="-8.6438050">
        <ele>24.0</ele>
        <time>2021-05-21T13:17:28Z</time>
      </trkpt>
      <trkpt lat="42.4300800" lon="-8.6438080">
        <ele>24.0</ele>
        <time>2021-05-21T13:17:29Z</time>
      </trkpt>
      <trkpt lat="42.4300810" lon="-8.6437850">
        <ele>24.0</ele>
        <time>2021-05-21T13:17:30Z</time>
      </trkpt>
      <trkpt lat="42.4300820" lon="-8.6437720">
        <ele>24.0</ele>
        <time>2021-05-21T13:17:31Z</time>
      </trkpt>
      <trkpt lat="42.4300820" lon="-8.6437590">
        <ele>24.0</ele>
        <time>2021-05-21T13:17:32Z</time>
      </trkpt>
      <trkpt lat="42.4300820" lon="-8.6437460">
        <ele>24.0</ele>
        <time>2021-05-21T13:17:33Z</time>
      </trkpt>
      <trkpt lat="42.4300910" lon="-8.6437470">
        <ele>24.0</ele>
        <time>2021-05-21T13:17:34Z</time>
      </trkpt>
      <trkpt lat="42.4300990" lon="-8.6437400">
        <ele>24.0</ele>
        <time>2021-05-21T13:17:35Z</time>
      </trkpt>
      <trkpt lat="42.4301060" lon="-8.6437320">
        <ele>24.0</ele>
        <time>2021-05-21T13:17:36Z</time>
      </trkpt>
      <trkpt lat="42.4301140" lon="-8.6437250">
        <ele>24.0</ele>
        <time>2021-05-21T13:17:37Z</time>
      </trkpt>
      <trkpt lat="42.4301220" lon="-8.6437170">
        <ele>24.0</ele>
        <time>2021-05-21T13:17:38Z</time>
      </trkpt>
      <trkpt lat="42.4301170" lon="-8.6437140">
        <ele>24.0</ele>
        <time>2021-05-21T13:17:39Z</time>
      </trkpt>
      <trkpt lat="42.4301090" lon="-8.6437130">
        <ele>24.0</ele>
        <time>2021-05-21T13:17:40Z</time>
      </trkpt>
      <trkpt lat="42.4301070" lon="-8.6436970">
        <ele>24.0</ele>
        <time>2021-05-21T13:17:41Z</time>
      </trkpt>
      <trkpt lat="42.4301130" lon="-8.6436740">
        <ele>24.0</ele>
        <time>2021-05-21T13:17:42Z</time>
      </trkpt>
      <trkpt lat="42.4301160" lon="-8.6436680">
        <ele>24.0</ele>
        <time>2021-05-21T13:17:43Z</time>
      </trkpt>
      <trkpt lat="42.4301220" lon="-8.6436540">
        <ele>24.0</ele>
        <time>2021-05-21T13:17:44Z</time>
      </trkpt>
      <trkpt lat="42.4301220" lon="-8.6436430">
        <ele>24.0</ele>
        <time>2021-05-21T13:17:45Z</time>
      </trkpt>
      <trkpt lat="42.4301240" lon="-8.6436380">
        <ele>24.0</ele>
        <time>2021-05-21T13:17:46Z</time>
      </trkpt>
      <trkpt lat="42.4301220" lon="-8.6436200">
        <ele>24.0</ele>
        <time>2021-05-21T13:17:47Z</time>
      </trkpt>
      <trkpt lat="42.4301180" lon="-8.6436340">
        <ele>24.0</ele>
        <time>2021-05-21T13:17:48Z</time>
      </trkpt>
      <trkpt lat="42.4301130" lon="-8.6436470">
        <ele>24.0</ele>
        <time>2021-05-21T13:17:49Z</time>
      </trkpt>
      <trkpt lat="42.4301080" lon="-8.6436600">
        <ele>24.0</ele>
        <time>2021-05-21T13:17:50Z</time>
      </trkpt>
      <trkpt lat="42.4301040" lon="-8.6436740">
        <ele>24.0</ele>
        <time>2021-05-21T13:17:51Z</time>
      </trkpt>
      <trkpt lat="42.4300990" lon="-8.6436870">
        <ele>24.0</ele>
        <time>2021-05-21T13:17:52Z</time>
      </trkpt>
      <trkpt lat="42.4300990" lon="-8.6437020">
        <ele>24.0</ele>
        <time>2021-05-21T13:17:53Z</time>
      </trkpt>
      <trkpt lat="42.4300900" lon="-8.6437220">
        <ele>24.0</ele>
        <time>2021-05-21T13:17:54Z</time>
      </trkpt>
      <trkpt lat="42.4300800" lon="-8.6437350">
        <ele>24.0</ele>
        <time>2021-05-21T13:17:55Z</time>
      </trkpt>
      <trkpt lat="42.4300760" lon="-8.6437360">
        <ele>24.0</ele>
        <time>2021-05-21T13:17:56Z</time>
      </trkpt>
      <trkpt lat="42.4300760" lon="-8.6437350">
        <ele>24.0</ele>
        <time>2021-05-21T13:17:57Z</time>
      </trkpt>
      <trkpt lat="42.4300810" lon="-8.6437450">
        <ele>24.0</ele>
        <time>2021-05-21T13:17:58Z</time>
      </trkpt>
      <trkpt lat="42.4300890" lon="-8.6437550">
        <ele>24.0</ele>
        <time>2021-05-21T13:17:59Z</time>
      </trkpt>
      <trkpt lat="42.4300830" lon="-8.6437560">
        <ele>24.0</ele>
        <time>2021-05-21T13:18:00Z</time>
      </trkpt>
      <trkpt lat="42.4300860" lon="-8.6437640">
        <ele>24.0</ele>
        <time>2021-05-21T13:18:01Z</time>
      </trkpt>
      <trkpt lat="42.4300880" lon="-8.6437690">
        <ele>24.0</ele>
        <time>2021-05-21T13:18:02Z</time>
      </trkpt>
      <trkpt lat="42.4300860" lon="-8.6437690">
        <ele>24.0</ele>
        <time>2021-05-21T13:18:03Z</time>
      </trkpt>
      <trkpt lat="42.4300850" lon="-8.6437630">
        <ele>24.0</ele>
        <time>2021-05-21T13:18:04Z</time>
      </trkpt>
      <trkpt lat="42.4300850" lon="-8.6437460">
        <ele>24.0</ele>
        <time>2021-05-21T13:18:05Z</time>
      </trkpt>
      <trkpt lat="42.4300920" lon="-8.6437360">
        <ele>24.0</ele>
        <time>2021-05-21T13:18:06Z</time>
      </trkpt>
      <trkpt lat="42.4300880" lon="-8.6437220">
        <ele>24.0</ele>
        <time>2021-05-21T13:18:07Z</time>
      </trkpt>
      <trkpt lat="42.4300840" lon="-8.6436930">
        <ele>24.0</ele>
        <time>2021-05-21T13:18:08Z</time>
      </trkpt>
      <trkpt lat="42.4300910" lon="-8.6436820">
        <ele>24.0</ele>
        <time>2021-05-21T13:18:09Z</time>
      </trkpt>
      <trkpt lat="42.4300990" lon="-8.6436660">
        <ele>24.0</ele>
        <time>2021-05-21T13:18:10Z</time>
      </trkpt>
      <trkpt lat="42.4300990" lon="-8.6436600">
        <ele>24.0</ele>
        <time>2021-05-21T13:18:11Z</time>
      </trkpt>
      <trkpt lat="42.4301040" lon="-8.6436560">
        <ele>24.0</ele>
        <time>2021-05-21T13:18:12Z</time>
      </trkpt>
      <trkpt lat="42.4301030" lon="-8.6436570">
        <ele>24.0</ele>
        <time>2021-05-21T13:18:13Z</time>
      </trkpt>
      <trkpt lat="42.4301110" lon="-8.6436400">
        <ele>24.0</ele>
        <time>2021-05-21T13:18:14Z</time>
      </trkpt>
      <trkpt lat="42.4301160" lon="-8.6436370">
        <ele>24.0</ele>
        <time>2021-05-21T13:18:15Z</time>
      </trkpt>
      <trkpt lat="42.4301160" lon="-8.6436450">
        <ele>24.0</ele>
        <time>2021-05-21T13:18:16Z</time>
      </trkpt>
      <trkpt lat="42.4301180" lon="-8.6436450">
        <ele>24.0</ele>
        <time>2021-05-21T13:18:17Z</time>
      </trkpt>
      <trkpt lat="42.4301290" lon="-8.6436400">
        <ele>24.0</ele>
        <time>2021-05-21T13:18:18Z</time>
      </trkpt>
      <trkpt lat="42.4301400" lon="-8.6436400">
        <ele>24.0</ele>
        <time>2021-05-21T13:18:19Z</time>
      </trkpt>
      <trkpt lat="42.4301390" lon="-8.6436470">
        <ele>24.0</ele>
        <time>2021-05-21T13:18:20Z</time>
      </trkpt>
      <trkpt lat="42.4301380" lon="-8.6436740">
        <ele>24.0</ele>
        <time>2021-05-21T13:18:21Z</time>
      </trkpt>
      <trkpt lat="42.4301340" lon="-8.6436820">
        <ele>24.0</ele>
        <time>2021-05-21T13:18:22Z</time>
      </trkpt>
      <trkpt lat="42.4301370" lon="-8.6437200">
        <ele>24.0</ele>
        <time>2021-05-21T13:18:23Z</time>
      </trkpt>
      <trkpt lat="42.4301400" lon="-8.6437340">
        <ele>24.0</ele>
        <time>2021-05-21T13:18:24Z</time>
      </trkpt>
      <trkpt lat="42.4301420" lon="-8.6437380">
        <ele>24.0</ele>
        <time>2021-05-21T13:18:25Z</time>
      </trkpt>
      <trkpt lat="42.4301430" lon="-8.6437420">
        <ele>24.0</ele>
        <time>2021-05-21T13:18:26Z</time>
      </trkpt>
      <trkpt lat="42.4301450" lon="-8.6437460">
        <ele>24.0</ele>
        <time>2021-05-21T13:18:27Z</time>
      </trkpt>
      <trkpt lat="42.4301460" lon="-8.6437510">
        <ele>24.0</ele>
        <time>2021-05-21T13:18:28Z</time>
      </trkpt>
      <trkpt lat="42.4301480" lon="-8.6437550">
        <ele>24.0</ele>
        <time>2021-05-21T13:18:29Z</time>
      </trkpt>
      <trkpt lat="42.4301490" lon="-8.6437590">
        <ele>24.0</ele>
        <time>2021-05-21T13:18:30Z</time>
      </trkpt>
      <trkpt lat="42.4301510" lon="-8.6437630">
        <ele>24.0</ele>
        <time>2021-05-21T13:18:31Z</time>
      </trkpt>
      <trkpt lat="42.4301520" lon="-8.6437670">
        <ele>24.0</ele>
        <time>2021-05-21T13:18:32Z</time>
      </trkpt>
      <trkpt lat="42.4301610" lon="-8.6437720">
        <ele>24.0</ele>
        <time>2021-05-21T13:18:33Z</time>
      </trkpt>
      <trkpt lat="42.4301710" lon="-8.6437710">
        <ele>24.0</ele>
        <time>2021-05-21T13:18:34Z</time>
      </trkpt>
      <trkpt lat="42.4301770" lon="-8.6437780">
        <ele>24.0</ele>
        <time>2021-05-21T13:18:35Z</time>
      </trkpt>
      <trkpt lat="42.4301730" lon="-8.6437750">
        <ele>23.9</ele>
        <time>2021-05-21T13:18:36Z</time>
      </trkpt>
      <trkpt lat="42.4301770" lon="-8.6437740">
        <ele>23.9</ele>
        <time>2021-05-21T13:18:37Z</time>
      </trkpt>
      <trkpt lat="42.4301860" lon="-8.6437750">
        <ele>23.9</ele>
        <time>2021-05-21T13:18:38Z</time>
      </trkpt>
      <trkpt lat="42.4302040" lon="-8.6437970">
        <ele>23.9</ele>
        <time>2021-05-21T13:18:39Z</time>
      </trkpt>
      <trkpt lat="42.4302040" lon="-8.6438050">
        <ele>23.9</ele>
        <time>2021-05-21T13:18:40Z</time>
      </trkpt>
      <trkpt lat="42.4302060" lon="-8.6438060">
        <ele>23.9</ele>
        <time>2021-05-21T13:18:41Z</time>
      </trkpt>
      <trkpt lat="42.4302160" lon="-8.6438120">
        <ele>23.9</ele>
        <time>2021-05-21T13:18:42Z</time>
      </trkpt>
      <trkpt lat="42.4302340" lon="-8.6438130">
        <ele>23.9</ele>
        <time>2021-05-21T13:18:43Z</time>
      </trkpt>
      <trkpt lat="42.4302420" lon="-8.6438180">
        <ele>23.9</ele>
        <time>2021-05-21T13:18:44Z</time>
      </trkpt>
      <trkpt lat="42.4302400" lon="-8.6438270">
        <ele>23.8</ele>
        <time>2021-05-21T13:18:45Z</time>
      </trkpt>
      <trkpt lat="42.4302440" lon="-8.6438520">
        <ele>23.8</ele>
        <time>2021-05-21T13:18:46Z</time>
      </trkpt>
      <trkpt lat="42.4302520" lon="-8.6438480">
        <ele>23.8</ele>
        <time>2021-05-21T13:18:47Z</time>
      </trkpt>
      <trkpt lat="42.4302630" lon="-8.6438490">
        <ele>23.8</ele>
        <time>2021-05-21T13:18:48Z</time>
      </trkpt>
      <trkpt lat="42.4302770" lon="-8.6438420">
        <ele>23.8</ele>
        <time>2021-05-21T13:18:49Z</time>
      </trkpt>
      <trkpt lat="42.4302860" lon="-8.6438310">
        <ele>23.8</ele>
        <time>2021-05-21T13:18:50Z</time>
      </trkpt>
      <trkpt lat="42.4303020" lon="-8.6438110">
        <ele>23.8</ele>
        <time>2021-05-21T13:18:51Z</time>
      </trkpt>
      <trkpt lat="42.4303300" lon="-8.6437950">
        <ele>23.7</ele>
        <time>2021-05-21T13:18:52Z</time>
      </trkpt>
      <trkpt lat="42.4303540" lon="-8.6437740">
        <ele>23.7</ele>
        <time>2021-05-21T13:18:53Z</time>
      </trkpt>
      <trkpt lat="42.4303770" lon="-8.6437430">
        <ele>23.7</ele>
        <time>2021-05-21T13:18:54Z</time>
      </trkpt>
      <trkpt lat="42.4304020" lon="-8.6437350">
        <ele>23.6</ele>
        <time>2021-05-21T13:18:55Z</time>
      </trkpt>
      <trkpt lat="42.4304100" lon="-8.6437350">
        <ele>23.6</ele>
        <time>2021-05-21T13:18:56Z</time>
      </trkpt>
      <trkpt lat="42.4304170" lon="-8.6437350">
        <ele>23.6</ele>
        <time>2021-05-21T13:18:57Z</time>
      </trkpt>
      <trkpt lat="42.4304260" lon="-8.6437520">
        <ele>23.6</ele>
        <time>2021-05-21T13:18:58Z</time>
      </trkpt>
      <trkpt lat="42.4304180" lon="-8.6437690">
        <ele>23.6</ele>
        <time>2021-05-21T13:18:59Z</time>
      </trkpt>
      <trkpt lat="42.4304290" lon="-8.6437720">
        <ele>23.6</ele>
        <time>2021-05-21T13:19:00Z</time>
      </trkpt>
      <trkpt lat="42.4304390" lon="-8.6437660">
        <ele>23.6</ele>
        <time>2021-05-21T13:19:01Z</time>
      </trkpt>
      <trkpt lat="42.4304500" lon="-8.6437680">
        <ele>23.5</ele>
        <time>2021-05-21T13:19:02Z</time>
      </trkpt>
      <trkpt lat="42.4304590" lon="-8.6437740">
        <ele>23.5</ele>
        <time>2021-05-21T13:19:03Z</time>
      </trkpt>
      <trkpt lat="42.4304650" lon="-8.6437870">
        <ele>23.5</ele>
        <time>2021-05-21T13:19:04Z</time>
      </trkpt>
      <trkpt lat="42.4304620" lon="-8.6438010">
        <ele>23.5</ele>
        <time>2021-05-21T13:19:05Z</time>
      </trkpt>
      <trkpt lat="42.4304570" lon="-8.6438170">
        <ele>23.5</ele>
        <time>2021-05-21T13:19:06Z</time>
      </trkpt>
      <trkpt lat="42.4304590" lon="-8.6438540">
        <ele>23.5</ele>
        <time>2021-05-21T13:19:07Z</time>
      </trkpt>
      <trkpt lat="42.4304560" lon="-8.6438740">
        <ele>23.4</ele>
        <time>2021-05-21T13:19:08Z</time>
      </trkpt>
      <trkpt lat="42.4304550" lon="-8.6439080">
        <ele>23.4</ele>
        <time>2021-05-21T13:19:09Z</time>
      </trkpt>
      <trkpt lat="42.4304540" lon="-8.6439200">
        <ele>23.4</ele>
        <time>2021-05-21T13:19:10Z</time>
      </trkpt>
      <trkpt lat="42.4304420" lon="-8.6439550">
        <ele>23.4</ele>
        <time>2021-05-21T13:19:11Z</time>
      </trkpt>
      <trkpt lat="42.4304430" lon="-8.6439690">
        <ele>23.4</ele>
        <time>2021-05-21T13:19:12Z</time>
      </trkpt>
      <trkpt lat="42.4304610" lon="-8.6439740">
        <ele>23.4</ele>
        <time>2021-05-21T13:19:13Z</time>
      </trkpt>
      <trkpt lat="42.4304660" lon="-8.6439740">
        <ele>23.4</ele>
        <time>2021-05-21T13:19:14Z</time>
      </trkpt>
      <trkpt lat="42.4304790" lon="-8.6439820">
        <ele>23.4</ele>
        <time>2021-05-21T13:19:15Z</time>
      </trkpt>
      <trkpt lat="42.4304910" lon="-8.6440040">
        <ele>23.4</ele>
        <time>2021-05-21T13:19:16Z</time>
      </trkpt>
      <trkpt lat="42.4304920" lon="-8.6440140">
        <ele>23.3</ele>
        <time>2021-05-21T13:19:17Z</time>
      </trkpt>
      <trkpt lat="42.4304970" lon="-8.6440220">
        <ele>23.3</ele>
        <time>2021-05-21T13:19:18Z</time>
      </trkpt>
      <trkpt lat="42.4305120" lon="-8.6440300">
        <ele>23.3</ele>
        <time>2021-05-21T13:19:19Z</time>
      </trkpt>
      <trkpt lat="42.4305250" lon="-8.6440500">
        <ele>23.3</ele>
        <time>2021-05-21T13:19:20Z</time>
      </trkpt>
      <trkpt lat="42.4305380" lon="-8.6440510">
        <ele>23.3</ele>
        <time>2021-05-21T13:19:21Z</time>
      </trkpt>
      <trkpt lat="42.4305480" lon="-8.6440510">
        <ele>23.3</ele>
        <time>2021-05-21T13:19:22Z</time>
      </trkpt>
      <trkpt lat="42.4305480" lon="-8.6440640">
        <ele>23.3</ele>
        <time>2021-05-21T13:19:23Z</time>
      </trkpt>
      <trkpt lat="42.4305430" lon="-8.6440640">
        <ele>23.3</ele>
        <time>2021-05-21T13:19:24Z</time>
      </trkpt>
      <trkpt lat="42.4305480" lon="-8.6440710">
        <ele>23.3</ele>
        <time>2021-05-21T13:19:25Z</time>
      </trkpt>
      <trkpt lat="42.4305610" lon="-8.6440770">
        <ele>23.2</ele>
        <time>2021-05-21T13:19:26Z</time>
      </trkpt>
      <trkpt lat="42.4305770" lon="-8.6440840">
        <ele>23.2</ele>
        <time>2021-05-21T13:19:27Z</time>
      </trkpt>
      <trkpt lat="42.4305890" lon="-8.6440840">
        <ele>23.2</ele>
        <time>2021-05-21T13:19:28Z</time>
      </trkpt>
      <trkpt lat="42.4306000" lon="-8.6440850">
        <ele>23.2</ele>
        <time>2021-05-21T13:19:29Z</time>
      </trkpt>
      <trkpt lat="42.4305870" lon="-8.6441040">
        <ele>23.2</ele>
        <time>2021-05-21T13:19:30Z</time>
      </trkpt>
      <trkpt lat="42.4305880" lon="-8.6441060">
        <ele>23.2</ele>
        <time>2021-05-21T13:19:31Z</time>
      </trkpt>
      <trkpt lat="42.4305890" lon="-8.6441030">
        <ele>23.2</ele>
        <time>2021-05-21T13:19:32Z</time>
      </trkpt>
      <trkpt lat="42.4305920" lon="-8.6440960">
        <ele>23.2</ele>
        <time>2021-05-21T13:19:33Z</time>
      </trkpt>
      <trkpt lat="42.4306080" lon="-8.6440650">
        <ele>23.2</ele>
        <time>2021-05-21T13:19:34Z</time>
      </trkpt>
      <trkpt lat="42.4306150" lon="-8.6440600">
        <ele>23.2</ele>
        <time>2021-05-21T13:19:35Z</time>
      </trkpt>
      <trkpt lat="42.4306190" lon="-8.6440480">
        <ele>23.2</ele>
        <time>2021-05-21T13:19:36Z</time>
      </trkpt>
      <trkpt lat="42.4306230" lon="-8.6440310">
        <ele>23.2</ele>
        <time>2021-05-21T13:19:37Z</time>
      </trkpt>
      <trkpt lat="42.4306240" lon="-8.6440280">
        <ele>23.2</ele>
        <time>2021-05-21T13:19:38Z</time>
      </trkpt>
      <trkpt lat="42.4306240" lon="-8.6440310">
        <ele>23.2</ele>
        <time>2021-05-21T13:19:39Z</time>
      </trkpt>
      <trkpt lat="42.4306250" lon="-8.6440400">
        <ele>23.2</ele>
        <time>2021-05-21T13:19:40Z</time>
      </trkpt>
      <trkpt lat="42.4306360" lon="-8.6440320">
        <ele>23.2</ele>
        <time>2021-05-21T13:19:41Z</time>
      </trkpt>
      <trkpt lat="42.4306360" lon="-8.6440260">
        <ele>23.2</ele>
        <time>2021-05-21T13:19:42Z</time>
      </trkpt>
      <trkpt lat="42.4306340" lon="-8.6440150">
        <ele>23.2</ele>
        <time>2021-05-21T13:19:43Z</time>
      </trkpt>
      <trkpt lat="42.4306290" lon="-8.6440110">
        <ele>23.2</ele>
        <time>2021-05-21T13:19:44Z</time>
      </trkpt>
      <trkpt lat="42.4306250" lon="-8.6440040">
        <ele>23.1</ele>
        <time>2021-05-21T13:19:45Z</time>
      </trkpt>
      <trkpt lat="42.4306350" lon="-8.6440150">
        <ele>23.1</ele>
        <time>2021-05-21T13:19:46Z</time>
      </trkpt>
      <trkpt lat="42.4306350" lon="-8.6440210">
        <ele>23.1</ele>
        <time>2021-05-21T13:19:47Z</time>
      </trkpt>
      <trkpt lat="42.4306300" lon="-8.6440220">
        <ele>23.1</ele>
        <time>2021-05-21T13:19:48Z</time>
      </trkpt>
      <trkpt lat="42.4306340" lon="-8.6440360">
        <ele>23.1</ele>
        <time>2021-05-21T13:19:49Z</time>
      </trkpt>
      <trkpt lat="42.4306410" lon="-8.6440430">
        <ele>23.1</ele>
        <time>2021-05-21T13:19:50Z</time>
      </trkpt>
      <trkpt lat="42.4306510" lon="-8.6440560">
        <ele>23.1</ele>
        <time>2021-05-21T13:19:51Z</time>
      </trkpt>
      <trkpt lat="42.4306510" lon="-8.6440750">
        <ele>23.1</ele>
        <time>2021-05-21T13:19:52Z</time>
      </trkpt>
      <trkpt lat="42.4306500" lon="-8.6440920">
        <ele>23.1</ele>
        <time>2021-05-21T13:19:53Z</time>
      </trkpt>
      <trkpt lat="42.4306600" lon="-8.6440970">
        <ele>23.1</ele>
        <time>2021-05-21T13:19:54Z</time>
      </trkpt>
      <trkpt lat="42.4306800" lon="-8.6441030">
        <ele>23.1</ele>
        <time>2021-05-21T13:19:55Z</time>
      </trkpt>
      <trkpt lat="42.4306820" lon="-8.6441120">
        <ele>23.1</ele>
        <time>2021-05-21T13:19:56Z</time>
      </trkpt>
      <trkpt lat="42.4306850" lon="-8.6441220">
        <ele>23.1</ele>
        <time>2021-05-21T13:19:57Z</time>
      </trkpt>
      <trkpt lat="42.4306870" lon="-8.6441310">
        <ele>23.1</ele>
        <time>2021-05-21T13:19:58Z</time>
      </trkpt>
      <trkpt lat="42.4306840" lon="-8.6441350">
        <ele>23.1</ele>
        <time>2021-05-21T13:19:59Z</time>
      </trkpt>
      <trkpt lat="42.4306900" lon="-8.6441380">
        <ele>23.1</ele>
        <time>2021-05-21T13:20:00Z</time>
      </trkpt>
      <trkpt lat="42.4306930" lon="-8.6441440">
        <ele>23.1</ele>
        <time>2021-05-21T13:20:01Z</time>
      </trkpt>
      <trkpt lat="42.4307050" lon="-8.6441420">
        <ele>23.1</ele>
        <time>2021-05-21T13:20:02Z</time>
      </trkpt>
      <trkpt lat="42.4307070" lon="-8.6441460">
        <ele>23.1</ele>
        <time>2021-05-21T13:20:03Z</time>
      </trkpt>
      <trkpt lat="42.4307150" lon="-8.6441600">
        <ele>23.1</ele>
        <time>2021-05-21T13:20:04Z</time>
      </trkpt>
      <trkpt lat="42.4307280" lon="-8.6441800">
        <ele>23.1</ele>
        <time>2021-05-21T13:20:05Z</time>
      </trkpt>
      <trkpt lat="42.4307340" lon="-8.6441940">
        <ele>23.1</ele>
        <time>2021-05-21T13:20:06Z</time>
      </trkpt>
      <trkpt lat="42.4307410" lon="-8.6442070">
        <ele>23.0</ele>
        <time>2021-05-21T13:20:07Z</time>
      </trkpt>
      <trkpt lat="42.4307450" lon="-8.6442280">
        <ele>23.0</ele>
        <time>2021-05-21T13:20:08Z</time>
      </trkpt>
      <trkpt lat="42.4307480" lon="-8.6442290">
        <ele>23.0</ele>
        <time>2021-05-21T13:20:09Z</time>
      </trkpt>
      <trkpt lat="42.4307460" lon="-8.6442480">
        <ele>23.0</ele>
        <time>2021-05-21T13:20:10Z</time>
      </trkpt>
      <trkpt lat="42.4307510" lon="-8.6442500">
        <ele>22.9</ele>
        <time>2021-05-21T13:20:11Z</time>
      </trkpt>
      <trkpt lat="42.4307520" lon="-8.6442550">
        <ele>22.9</ele>
        <time>2021-05-21T13:20:12Z</time>
      </trkpt>
      <trkpt lat="42.4307550" lon="-8.6442590">
        <ele>22.9</ele>
        <time>2021-05-21T13:20:13Z</time>
      </trkpt>
      <trkpt lat="42.4307550" lon="-8.6442530">
        <ele>22.9</ele>
        <time>2021-05-21T13:20:14Z</time>
      </trkpt>
      <trkpt lat="42.4307560" lon="-8.6442410">
        <ele>22.9</ele>
        <time>2021-05-21T13:20:15Z</time>
      </trkpt>
      <trkpt lat="42.4307600" lon="-8.6442430">
        <ele>22.9</ele>
        <time>2021-05-21T13:20:16Z</time>
      </trkpt>
      <trkpt lat="42.4307570" lon="-8.6442390">
        <ele>22.9</ele>
        <time>2021-05-21T13:20:17Z</time>
      </trkpt>
      <trkpt lat="42.4307540" lon="-8.6442380">
        <ele>22.9</ele>
        <time>2021-05-21T13:20:18Z</time>
      </trkpt>
      <trkpt lat="42.4307410" lon="-8.6442260">
        <ele>22.9</ele>
        <time>2021-05-21T13:20:19Z</time>
      </trkpt>
      <trkpt lat="42.4307250" lon="-8.6442350">
        <ele>22.9</ele>
        <time>2021-05-21T13:20:20Z</time>
      </trkpt>
      <trkpt lat="42.4307190" lon="-8.6442370">
        <ele>22.9</ele>
        <time>2021-05-21T13:20:21Z</time>
      </trkpt>
      <trkpt lat="42.4307140" lon="-8.6442310">
        <ele>22.9</ele>
        <time>2021-05-21T13:20:22Z</time>
      </trkpt>
      <trkpt lat="42.4307090" lon="-8.6442260">
        <ele>22.9</ele>
        <time>2021-05-21T13:20:23Z</time>
      </trkpt>
      <trkpt lat="42.4307030" lon="-8.6442220">
        <ele>22.9</ele>
        <time>2021-05-21T13:20:24Z</time>
      </trkpt>
      <trkpt lat="42.4306970" lon="-8.6442180">
        <ele>22.9</ele>
        <time>2021-05-21T13:20:25Z</time>
      </trkpt>
      <trkpt lat="42.4306920" lon="-8.6442130">
        <ele>22.9</ele>
        <time>2021-05-21T13:20:26Z</time>
      </trkpt>
      <trkpt lat="42.4306860" lon="-8.6442090">
        <ele>22.9</ele>
        <time>2021-05-21T13:20:27Z</time>
      </trkpt>
      <trkpt lat="42.4306840" lon="-8.6442040">
        <ele>22.9</ele>
        <time>2021-05-21T13:20:28Z</time>
      </trkpt>
      <trkpt lat="42.4306800" lon="-8.6442050">
        <ele>22.9</ele>
        <time>2021-05-21T13:20:29Z</time>
      </trkpt>
      <trkpt lat="42.4306800" lon="-8.6442040">
        <ele>22.9</ele>
        <time>2021-05-21T13:20:30Z</time>
      </trkpt>
      <trkpt lat="42.4306780" lon="-8.6442000">
        <ele>22.9</ele>
        <time>2021-05-21T13:20:31Z</time>
      </trkpt>
      <trkpt lat="42.4306760" lon="-8.6442020">
        <ele>22.9</ele>
        <time>2021-05-21T13:20:32Z</time>
      </trkpt>
      <trkpt lat="42.4306730" lon="-8.6442010">
        <ele>22.9</ele>
        <time>2021-05-21T13:20:33Z</time>
      </trkpt>
      <trkpt lat="42.4306700" lon="-8.6442020">
        <ele>22.9</ele>
        <time>2021-05-21T13:20:34Z</time>
      </trkpt>
      <trkpt lat="42.4306700" lon="-8.6441990">
        <ele>22.9</ele>
        <time>2021-05-21T13:20:35Z</time>
      </trkpt>
      <trkpt lat="42.4306730" lon="-8.6441940">
        <ele>22.9</ele>
        <time>2021-05-21T13:20:36Z</time>
      </trkpt>
      <trkpt lat="42.4306740" lon="-8.6441920">
        <ele>22.9</ele>
        <time>2021-05-21T13:20:37Z</time>
      </trkpt>
      <trkpt lat="42.4306620" lon="-8.6441840">
        <ele>22.9</ele>
        <time>2021-05-21T13:20:38Z</time>
      </trkpt>
      <trkpt lat="42.4306680" lon="-8.6442040">
        <ele>22.9</ele>
        <time>2021-05-21T13:20:39Z</time>
      </trkpt>
      <trkpt lat="42.4306730" lon="-8.6442150">
        <ele>22.8</ele>
        <time>2021-05-21T13:20:40Z</time>
      </trkpt>
      <trkpt lat="42.4306780" lon="-8.6442250">
        <ele>22.8</ele>
        <time>2021-05-21T13:20:41Z</time>
      </trkpt>
      <trkpt lat="42.4306830" lon="-8.6442360">
        <ele>22.8</ele>
        <time>2021-05-21T13:20:42Z</time>
      </trkpt>
      <trkpt lat="42.4306800" lon="-8.6442380">
        <ele>22.8</ele>
        <time>2021-05-21T13:20:43Z</time>
      </trkpt>
      <trkpt lat="42.4306770" lon="-8.6442390">
        <ele>22.8</ele>
        <time>2021-05-21T13:20:44Z</time>
      </trkpt>
      <trkpt lat="42.4306890" lon="-8.6442560">
        <ele>22.8</ele>
        <time>2021-05-21T13:20:45Z</time>
      </trkpt>
      <trkpt lat="42.4306900" lon="-8.6442490">
        <ele>22.8</ele>
        <time>2021-05-21T13:20:46Z</time>
      </trkpt>
      <trkpt lat="42.4306910" lon="-8.6442490">
        <ele>22.8</ele>
        <time>2021-05-21T13:20:47Z</time>
      </trkpt>
      <trkpt lat="42.4306880" lon="-8.6442440">
        <ele>22.8</ele>
        <time>2021-05-21T13:20:48Z</time>
      </trkpt>
      <trkpt lat="42.4306850" lon="-8.6442650">
        <ele>22.8</ele>
        <time>2021-05-21T13:20:49Z</time>
      </trkpt>
      <trkpt lat="42.4306750" lon="-8.6442760">
        <ele>22.8</ele>
        <time>2021-05-21T13:20:50Z</time>
      </trkpt>
      <trkpt lat="42.4306790" lon="-8.6442790">
        <ele>22.8</ele>
        <time>2021-05-21T13:20:51Z</time>
      </trkpt>
      <trkpt lat="42.4306810" lon="-8.6442800">
        <ele>22.8</ele>
        <time>2021-05-21T13:20:52Z</time>
      </trkpt>
      <trkpt lat="42.4306840" lon="-8.6442820">
        <ele>22.8</ele>
        <time>2021-05-21T13:20:53Z</time>
      </trkpt>
      <trkpt lat="42.4306860" lon="-8.6442830">
        <ele>22.8</ele>
        <time>2021-05-21T13:20:54Z</time>
      </trkpt>
      <trkpt lat="42.4306890" lon="-8.6442850">
        <ele>22.8</ele>
        <time>2021-05-21T13:20:55Z</time>
      </trkpt>
      <trkpt lat="42.4306920" lon="-8.6442870">
        <ele>22.8</ele>
        <time>2021-05-21T13:20:56Z</time>
      </trkpt>
      <trkpt lat="42.4306940" lon="-8.6442880">
        <ele>22.8</ele>
        <time>2021-05-21T13:20:57Z</time>
      </trkpt>
      <trkpt lat="42.4306970" lon="-8.6442900">
        <ele>22.8</ele>
        <time>2021-05-21T13:20:58Z</time>
      </trkpt>
      <trkpt lat="42.4307000" lon="-8.6442920">
        <ele>22.8</ele>
        <time>2021-05-21T13:20:59Z</time>
      </trkpt>
      <trkpt lat="42.4307020" lon="-8.6442930">
        <ele>22.8</ele>
        <time>2021-05-21T13:21:00Z</time>
      </trkpt>
      <trkpt lat="42.4307050" lon="-8.6442950">
        <ele>22.8</ele>
        <time>2021-05-21T13:21:01Z</time>
      </trkpt>
      <trkpt lat="42.4307070" lon="-8.6442960">
        <ele>22.8</ele>
        <time>2021-05-21T13:21:02Z</time>
      </trkpt>
      <trkpt lat="42.4307100" lon="-8.6442980">
        <ele>22.8</ele>
        <time>2021-05-21T13:21:03Z</time>
      </trkpt>
      <trkpt lat="42.4307150" lon="-8.6443200">
        <ele>22.8</ele>
        <time>2021-05-21T13:21:04Z</time>
      </trkpt>
      <trkpt lat="42.4307230" lon="-8.6443310">
        <ele>22.8</ele>
        <time>2021-05-21T13:21:05Z</time>
      </trkpt>
      <trkpt lat="42.4307320" lon="-8.6443330">
        <ele>22.8</ele>
        <time>2021-05-21T13:21:06Z</time>
      </trkpt>
      <trkpt lat="42.4307320" lon="-8.6443330">
        <ele>22.8</ele>
        <time>2021-05-21T13:21:07Z</time>
      </trkpt>
      <trkpt lat="42.4307320" lon="-8.6443330">
        <ele>22.8</ele>
        <time>2021-05-21T13:21:08Z</time>
      </trkpt>
      <trkpt lat="42.4307440" lon="-8.6443340">
        <ele>22.8</ele>
        <time>2021-05-21T13:21:09Z</time>
      </trkpt>
      <trkpt lat="42.4307400" lon="-8.6443380">
        <ele>22.8</ele>
        <time>2021-05-21T13:21:10Z</time>
      </trkpt>
      <trkpt lat="42.4307420" lon="-8.6443390">
        <ele>22.8</ele>
        <time>2021-05-21T13:21:11Z</time>
      </trkpt>
      <trkpt lat="42.4307460" lon="-8.6443380">
        <ele>22.8</ele>
        <time>2021-05-21T13:21:12Z</time>
      </trkpt>
      <trkpt lat="42.4307530" lon="-8.6443330">
        <ele>22.8</ele>
        <time>2021-05-21T13:21:13Z</time>
      </trkpt>
      <trkpt lat="42.4307480" lon="-8.6443470">
        <ele>22.8</ele>
        <time>2021-05-21T13:21:14Z</time>
      </trkpt>
      <trkpt lat="42.4307460" lon="-8.6443490">
        <ele>22.8</ele>
        <time>2021-05-21T13:21:15Z</time>
      </trkpt>
      <trkpt lat="42.4307380" lon="-8.6443510">
        <ele>22.8</ele>
        <time>2021-05-21T13:21:16Z</time>
      </trkpt>
      <trkpt lat="42.4307360" lon="-8.6443470">
        <ele>22.8</ele>
        <time>2021-05-21T13:21:17Z</time>
      </trkpt>
      <trkpt lat="42.4307330" lon="-8.6443420">
        <ele>22.8</ele>
        <time>2021-05-21T13:21:18Z</time>
      </trkpt>
      <trkpt lat="42.4307350" lon="-8.6443350">
        <ele>22.8</ele>
        <time>2021-05-21T13:21:19Z</time>
      </trkpt>
      <trkpt lat="42.4307460" lon="-8.6443330">
        <ele>22.8</ele>
        <time>2021-05-21T13:21:20Z</time>
      </trkpt>
      <trkpt lat="42.4307530" lon="-8.6443270">
        <ele>22.8</ele>
        <time>2021-05-21T13:21:21Z</time>
      </trkpt>
      <trkpt lat="42.4307470" lon="-8.6443200">
        <ele>22.8</ele>
        <time>2021-05-21T13:21:22Z</time>
      </trkpt>
      <trkpt lat="42.4307490" lon="-8.6443150">
        <ele>22.8</ele>
        <time>2021-05-21T13:21:23Z</time>
      </trkpt>
      <trkpt lat="42.4307490" lon="-8.6443100">
        <ele>22.8</ele>
        <time>2021-05-21T13:21:24Z</time>
      </trkpt>
      <trkpt lat="42.4307460" lon="-8.6443070">
        <ele>22.8</ele>
        <time>2021-05-21T13:21:25Z</time>
      </trkpt>
      <trkpt lat="42.4307440" lon="-8.6443060">
        <ele>22.8</ele>
        <time>2021-05-21T13:21:26Z</time>
      </trkpt>
      <trkpt lat="42.4307430" lon="-8.6443030">
        <ele>22.8</ele>
        <time>2021-05-21T13:21:27Z</time>
      </trkpt>
      <trkpt lat="42.4307410" lon="-8.6443000">
        <ele>22.8</ele>
        <time>2021-05-21T13:21:28Z</time>
      </trkpt>
      <trkpt lat="42.4307430" lon="-8.6442990">
        <ele>22.8</ele>
        <time>2021-05-21T13:21:29Z</time>
      </trkpt>
      <trkpt lat="42.4307450" lon="-8.6443010">
        <ele>22.8</ele>
        <time>2021-05-21T13:21:30Z</time>
      </trkpt>
      <trkpt lat="42.4307480" lon="-8.6443020">
        <ele>22.8</ele>
        <time>2021-05-21T13:21:31Z</time>
      </trkpt>
      <trkpt lat="42.4307500" lon="-8.6443040">
        <ele>22.8</ele>
        <time>2021-05-21T13:21:32Z</time>
      </trkpt>
      <trkpt lat="42.4307530" lon="-8.6443060">
        <ele>22.8</ele>
        <time>2021-05-21T13:21:33Z</time>
      </trkpt>
      <trkpt lat="42.4307560" lon="-8.6443080">
        <ele>22.8</ele>
        <time>2021-05-21T13:21:34Z</time>
      </trkpt>
      <trkpt lat="42.4307580" lon="-8.6443090">
        <ele>22.8</ele>
        <time>2021-05-21T13:21:35Z</time>
      </trkpt>
      <trkpt lat="42.4307610" lon="-8.6443110">
        <ele>22.8</ele>
        <time>2021-05-21T13:21:36Z</time>
      </trkpt>
      <trkpt lat="42.4307640" lon="-8.6443130">
        <ele>22.8</ele>
        <time>2021-05-21T13:21:37Z</time>
      </trkpt>
      <trkpt lat="42.4307660" lon="-8.6443150">
        <ele>22.8</ele>
        <time>2021-05-21T13:21:38Z</time>
      </trkpt>
      <trkpt lat="42.4307690" lon="-8.6443160">
        <ele>22.8</ele>
        <time>2021-05-21T13:21:39Z</time>
      </trkpt>
      <trkpt lat="42.4307710" lon="-8.6443180">
        <ele>22.8</ele>
        <time>2021-05-21T13:21:40Z</time>
      </trkpt>
      <trkpt lat="42.4307740" lon="-8.6443200">
        <ele>22.8</ele>
        <time>2021-05-21T13:21:41Z</time>
      </trkpt>
      <trkpt lat="42.4307920" lon="-8.6443350">
        <ele>22.8</ele>
        <time>2021-05-21T13:21:42Z</time>
      </trkpt>
      <trkpt lat="42.4308040" lon="-8.6443380">
        <ele>22.8</ele>
        <time>2021-05-21T13:21:43Z</time>
      </trkpt>
      <trkpt lat="42.4308200" lon="-8.6443350">
        <ele>22.8</ele>
        <time>2021-05-21T13:21:44Z</time>
      </trkpt>
      <trkpt lat="42.4308500" lon="-8.6443360">
        <ele>22.7</ele>
        <time>2021-05-21T13:21:45Z</time>
      </trkpt>
      <trkpt lat="42.4308640" lon="-8.6443330">
        <ele>22.7</ele>
        <time>2021-05-21T13:21:46Z</time>
      </trkpt>
      <trkpt lat="42.4308920" lon="-8.6443310">
        <ele>22.6</ele>
        <time>2021-05-21T13:21:47Z</time>
      </trkpt>
      <trkpt lat="42.4309020" lon="-8.6443270">
        <ele>22.6</ele>
        <time>2021-05-21T13:21:48Z</time>
      </trkpt>
      <trkpt lat="42.4309090" lon="-8.6443200">
        <ele>22.5</ele>
        <time>2021-05-21T13:21:49Z</time>
      </trkpt>
      <trkpt lat="42.4309230" lon="-8.6443220">
        <ele>22.5</ele>
        <time>2021-05-21T13:21:50Z</time>
      </trkpt>
      <trkpt lat="42.4309360" lon="-8.6443230">
        <ele>22.4</ele>
        <time>2021-05-21T13:21:51Z</time>
      </trkpt>
      <trkpt lat="42.4309640" lon="-8.6442990">
        <ele>22.3</ele>
        <time>2021-05-21T13:21:53Z</time>
      </trkpt>
      <trkpt lat="42.4309860" lon="-8.6442670">
        <ele>22.1</ele>
        <time>2021-05-21T13:21:55Z</time>
      </trkpt>
      <trkpt lat="42.4309970" lon="-8.6442520">
        <ele>22.0</ele>
        <time>2021-05-21T13:21:57Z</time>
      </trkpt>
      <trkpt lat="42.4309960" lon="-8.6442490">
        <ele>22.0</ele>
        <time>2021-05-21T13:21:58Z</time>
      </trkpt>
      <trkpt lat="42.4310060" lon="-8.6442440">
        <ele>22.0</ele>
        <time>2021-05-21T13:21:59Z</time>
      </trkpt>
      <trkpt lat="42.4310070" lon="-8.6442410">
        <ele>22.0</ele>
        <time>2021-05-21T13:22:01Z</time>
      </trkpt>
      <trkpt lat="42.4310200" lon="-8.6442350">
        <ele>21.9</ele>
        <time>2021-05-21T13:22:02Z</time>
      </trkpt>
      <trkpt lat="42.4310370" lon="-8.6442210">
        <ele>21.8</ele>
        <time>2021-05-21T13:22:03Z</time>
      </trkpt>
      <trkpt lat="42.4310520" lon="-8.6442130">
        <ele>21.7</ele>
        <time>2021-05-21T13:22:04Z</time>
      </trkpt>
      <trkpt lat="42.4310670" lon="-8.6441990">
        <ele>21.7</ele>
        <time>2021-05-21T13:22:05Z</time>
      </trkpt>
      <trkpt lat="42.4310720" lon="-8.6441950">
        <ele>21.6</ele>
        <time>2021-05-21T13:22:06Z</time>
      </trkpt>
      <trkpt lat="42.4310820" lon="-8.6441870">
        <ele>21.6</ele>
        <time>2021-05-21T13:22:07Z</time>
      </trkpt>
      <trkpt lat="42.4310900" lon="-8.6441800">
        <ele>21.5</ele>
        <time>2021-05-21T13:22:08Z</time>
      </trkpt>
      <trkpt lat="42.4310910" lon="-8.6441770">
        <ele>21.5</ele>
        <time>2021-05-21T13:22:09Z</time>
      </trkpt>
      <trkpt lat="42.4311050" lon="-8.6441660">
        <ele>21.5</ele>
        <time>2021-05-21T13:22:10Z</time>
      </trkpt>
      <trkpt lat="42.4311160" lon="-8.6441600">
        <ele>21.4</ele>
        <time>2021-05-21T13:22:11Z</time>
      </trkpt>
      <trkpt lat="42.4311260" lon="-8.6441560">
        <ele>21.4</ele>
        <time>2021-05-21T13:22:12Z</time>
      </trkpt>
      <trkpt lat="42.4311360" lon="-8.6441520">
        <ele>21.3</ele>
        <time>2021-05-21T13:22:13Z</time>
      </trkpt>
      <trkpt lat="42.4311470" lon="-8.6441450">
        <ele>21.3</ele>
        <time>2021-05-21T13:22:14Z</time>
      </trkpt>
      <trkpt lat="42.4311590" lon="-8.6441340">
        <ele>21.2</ele>
        <time>2021-05-21T13:22:15Z</time>
      </trkpt>
      <trkpt lat="42.4311680" lon="-8.6441250">
        <ele>21.1</ele>
        <time>2021-05-21T13:22:16Z</time>
      </trkpt>
      <trkpt lat="42.4311730" lon="-8.6441210">
        <ele>21.1</ele>
        <time>2021-05-21T13:22:17Z</time>
      </trkpt>
      <trkpt lat="42.4311760" lon="-8.6441160">
        <ele>21.1</ele>
        <time>2021-05-21T13:22:18Z</time>
      </trkpt>
      <trkpt lat="42.4311790" lon="-8.6441120">
        <ele>21.1</ele>
        <time>2021-05-21T13:22:19Z</time>
      </trkpt>
      <trkpt lat="42.4311820" lon="-8.6441100">
        <ele>21.1</ele>
        <time>2021-05-21T13:22:20Z</time>
      </trkpt>
      <trkpt lat="42.4311820" lon="-8.6441070">
        <ele>21.1</ele>
        <time>2021-05-21T13:22:21Z</time>
      </trkpt>
      <trkpt lat="42.4311870" lon="-8.6440990">
        <ele>21.1</ele>
        <time>2021-05-21T13:22:22Z</time>
      </trkpt>
      <trkpt lat="42.4312020" lon="-8.6440930">
        <ele>21.1</ele>
        <time>2021-05-21T13:22:23Z</time>
      </trkpt>
      <trkpt lat="42.4312210" lon="-8.6440810">
        <ele>21.0</ele>
        <time>2021-05-21T13:22:24Z</time>
      </trkpt>
      <trkpt lat="42.4312290" lon="-8.6440770">
        <ele>21.0</ele>
        <time>2021-05-21T13:22:25Z</time>
      </trkpt>
      <trkpt lat="42.4312360" lon="-8.6440740">
        <ele>21.0</ele>
        <time>2021-05-21T13:22:26Z</time>
      </trkpt>
      <trkpt lat="42.4312450" lon="-8.6440650">
        <ele>21.0</ele>
        <time>2021-05-21T13:22:27Z</time>
      </trkpt>
      <trkpt lat="42.4312540" lon="-8.6440610">
        <ele>21.0</ele>
        <time>2021-05-21T13:22:28Z</time>
      </trkpt>
      <trkpt lat="42.4312630" lon="-8.6440520">
        <ele>21.0</ele>
        <time>2021-05-21T13:22:29Z</time>
      </trkpt>
      <trkpt lat="42.4312750" lon="-8.6440470">
        <ele>21.0</ele>
        <time>2021-05-21T13:22:30Z</time>
      </trkpt>
      <trkpt lat="42.4312840" lon="-8.6440420">
        <ele>21.0</ele>
        <time>2021-05-21T13:22:31Z</time>
      </trkpt>
      <trkpt lat="42.4312940" lon="-8.6440410">
        <ele>21.0</ele>
        <time>2021-05-21T13:22:32Z</time>
      </trkpt>
      <trkpt lat="42.4313080" lon="-8.6440460">
        <ele>21.0</ele>
        <time>2021-05-21T13:22:33Z</time>
      </trkpt>
      <trkpt lat="42.4313150" lon="-8.6440490">
        <ele>20.9</ele>
        <time>2021-05-21T13:22:34Z</time>
      </trkpt>
      <trkpt lat="42.4313220" lon="-8.6440530">
        <ele>20.9</ele>
        <time>2021-05-21T13:22:35Z</time>
      </trkpt>
      <trkpt lat="42.4313290" lon="-8.6440570">
        <ele>20.9</ele>
        <time>2021-05-21T13:22:36Z</time>
      </trkpt>
      <trkpt lat="42.4313360" lon="-8.6440640">
        <ele>20.9</ele>
        <time>2021-05-21T13:22:37Z</time>
      </trkpt>
      <trkpt lat="42.4313440" lon="-8.6440680">
        <ele>20.9</ele>
        <time>2021-05-21T13:22:38Z</time>
      </trkpt>
      <trkpt lat="42.4313530" lon="-8.6440710">
        <ele>20.9</ele>
        <time>2021-05-21T13:22:39Z</time>
      </trkpt>
      <trkpt lat="42.4313610" lon="-8.6440750">
        <ele>20.9</ele>
        <time>2021-05-21T13:22:40Z</time>
      </trkpt>
      <trkpt lat="42.4313830" lon="-8.6440780">
        <ele>20.9</ele>
        <time>2021-05-21T13:22:41Z</time>
      </trkpt>
      <trkpt lat="42.4313920" lon="-8.6440790">
        <ele>20.9</ele>
        <time>2021-05-21T13:22:42Z</time>
      </trkpt>
      <trkpt lat="42.4314010" lon="-8.6440800">
        <ele>20.9</ele>
        <time>2021-05-21T13:22:43Z</time>
      </trkpt>
      <trkpt lat="42.4314120" lon="-8.6440830">
        <ele>20.8</ele>
        <time>2021-05-21T13:22:44Z</time>
      </trkpt>
      <trkpt lat="42.4314250" lon="-8.6440860">
        <ele>20.8</ele>
        <time>2021-05-21T13:22:45Z</time>
      </trkpt>
      <trkpt lat="42.4314340" lon="-8.6440860">
        <ele>20.8</ele>
        <time>2021-05-21T13:22:46Z</time>
      </trkpt>
      <trkpt lat="42.4314450" lon="-8.6440830">
        <ele>20.8</ele>
        <time>2021-05-21T13:22:47Z</time>
      </trkpt>
      <trkpt lat="42.4314550" lon="-8.6440810">
        <ele>20.8</ele>
        <time>2021-05-21T13:22:48Z</time>
      </trkpt>
      <trkpt lat="42.4314690" lon="-8.6440820">
        <ele>20.8</ele>
        <time>2021-05-21T13:22:49Z</time>
      </trkpt>
      <trkpt lat="42.4314750" lon="-8.6440790">
        <ele>20.8</ele>
        <time>2021-05-21T13:22:50Z</time>
      </trkpt>
      <trkpt lat="42.4314820" lon="-8.6440790">
        <ele>20.8</ele>
        <time>2021-05-21T13:22:51Z</time>
      </trkpt>
      <trkpt lat="42.4314990" lon="-8.6440830">
        <ele>20.8</ele>
        <time>2021-05-21T13:22:52Z</time>
      </trkpt>
      <trkpt lat="42.4315190" lon="-8.6440780">
        <ele>20.7</ele>
        <time>2021-05-21T13:22:53Z</time>
      </trkpt>
      <trkpt lat="42.4315280" lon="-8.6440760">
        <ele>20.7</ele>
        <time>2021-05-21T13:22:54Z</time>
      </trkpt>
      <trkpt lat="42.4315370" lon="-8.6440750">
        <ele>20.7</ele>
        <time>2021-05-21T13:22:55Z</time>
      </trkpt>
      <trkpt lat="42.4315450" lon="-8.6440690">
        <ele>20.7</ele>
        <time>2021-05-21T13:22:56Z</time>
      </trkpt>
      <trkpt lat="42.4315520" lon="-8.6440660">
        <ele>20.7</ele>
        <time>2021-05-21T13:22:57Z</time>
      </trkpt>
      <trkpt lat="42.4315560" lon="-8.6440600">
        <ele>20.7</ele>
        <time>2021-05-21T13:22:58Z</time>
      </trkpt>
      <trkpt lat="42.4315630" lon="-8.6440540">
        <ele>20.7</ele>
        <time>2021-05-21T13:22:59Z</time>
      </trkpt>
      <trkpt lat="42.4315710" lon="-8.6440500">
        <ele>20.7</ele>
        <time>2021-05-21T13:23:00Z</time>
      </trkpt>
      <trkpt lat="42.4315780" lon="-8.6440460">
        <ele>20.7</ele>
        <time>2021-05-21T13:23:01Z</time>
      </trkpt>
      <trkpt lat="42.4315780" lon="-8.6440380">
        <ele>20.7</ele>
        <time>2021-05-21T13:23:02Z</time>
      </trkpt>
      <trkpt lat="42.4315740" lon="-8.6440370">
        <ele>20.7</ele>
        <time>2021-05-21T13:23:03Z</time>
      </trkpt>
      <trkpt lat="42.4315900" lon="-8.6440290">
        <ele>20.6</ele>
        <time>2021-05-21T13:23:04Z</time>
      </trkpt>
      <trkpt lat="42.4316080" lon="-8.6440150">
        <ele>20.6</ele>
        <time>2021-05-21T13:23:05Z</time>
      </trkpt>
      <trkpt lat="42.4316170" lon="-8.6440080">
        <ele>20.2</ele>
        <time>2021-05-21T13:23:06Z</time>
      </trkpt>
      <trkpt lat="42.4316300" lon="-8.6440000">
        <ele>20.2</ele>
        <time>2021-05-21T13:23:07Z</time>
      </trkpt>
      <trkpt lat="42.4316430" lon="-8.6439910">
        <ele>20.2</ele>
        <time>2021-05-21T13:23:08Z</time>
      </trkpt>
      <trkpt lat="42.4316560" lon="-8.6439810">
        <ele>20.2</ele>
        <time>2021-05-21T13:23:09Z</time>
      </trkpt>
      <trkpt lat="42.4316670" lon="-8.6439590">
        <ele>20.2</ele>
        <time>2021-05-21T13:23:10Z</time>
      </trkpt>
      <trkpt lat="42.4316760" lon="-8.6439350">
        <ele>20.3</ele>
        <time>2021-05-21T13:23:11Z</time>
      </trkpt>
      <trkpt lat="42.4316820" lon="-8.6439220">
        <ele>20.0</ele>
        <time>2021-05-21T13:23:12Z</time>
      </trkpt>
      <trkpt lat="42.4316990" lon="-8.6438980">
        <ele>20.0</ele>
        <time>2021-05-21T13:23:13Z</time>
      </trkpt>
      <trkpt lat="42.4317030" lon="-8.6438890">
        <ele>20.0</ele>
        <time>2021-05-21T13:23:14Z</time>
      </trkpt>
      <trkpt lat="42.4317080" lon="-8.6438800">
        <ele>20.0</ele>
        <time>2021-05-21T13:23:15Z</time>
      </trkpt>
      <trkpt lat="42.4317220" lon="-8.6438500">
        <ele>20.0</ele>
        <time>2021-05-21T13:23:16Z</time>
      </trkpt>
      <trkpt lat="42.4317260" lon="-8.6438360">
        <ele>20.0</ele>
        <time>2021-05-21T13:23:17Z</time>
      </trkpt>
      <trkpt lat="42.4317310" lon="-8.6438310">
        <ele>20.0</ele>
        <time>2021-05-21T13:23:18Z</time>
      </trkpt>
      <trkpt lat="42.4317350" lon="-8.6438230">
        <ele>20.0</ele>
        <time>2021-05-21T13:23:19Z</time>
      </trkpt>
      <trkpt lat="42.4317410" lon="-8.6438120">
        <ele>19.9</ele>
        <time>2021-05-21T13:23:20Z</time>
      </trkpt>
      <trkpt lat="42.4317400" lon="-8.6438190">
        <ele>19.9</ele>
        <time>2021-05-21T13:23:21Z</time>
      </trkpt>
      <trkpt lat="42.4317340" lon="-8.6437910">
        <ele>19.9</ele>
        <time>2021-05-21T13:23:22Z</time>
      </trkpt>
      <trkpt lat="42.4317280" lon="-8.6437410">
        <ele>19.9</ele>
        <time>2021-05-21T13:23:23Z</time>
      </trkpt>
      <trkpt lat="42.4317270" lon="-8.6437270">
        <ele>19.9</ele>
        <time>2021-05-21T13:23:24Z</time>
      </trkpt>
      <trkpt lat="42.4317180" lon="-8.6436710">
        <ele>19.8</ele>
        <time>2021-05-21T13:23:25Z</time>
      </trkpt>
      <trkpt lat="42.4317110" lon="-8.6436410">
        <ele>19.8</ele>
        <time>2021-05-21T13:23:26Z</time>
      </trkpt>
      <trkpt lat="42.4317030" lon="-8.6436200">
        <ele>19.8</ele>
        <time>2021-05-21T13:23:27Z</time>
      </trkpt>
      <trkpt lat="42.4316990" lon="-8.6436250">
        <ele>19.8</ele>
        <time>2021-05-21T13:23:28Z</time>
      </trkpt>
      <trkpt lat="42.4317000" lon="-8.6436250">
        <ele>19.8</ele>
        <time>2021-05-21T13:23:29Z</time>
      </trkpt>
      <trkpt lat="42.4317020" lon="-8.6436260">
        <ele>19.8</ele>
        <time>2021-05-21T13:23:30Z</time>
      </trkpt>
      <trkpt lat="42.4316960" lon="-8.6436280">
        <ele>19.8</ele>
        <time>2021-05-21T13:23:31Z</time>
      </trkpt>
      <trkpt lat="42.4317030" lon="-8.6436280">
        <ele>19.8</ele>
        <time>2021-05-21T13:23:32Z</time>
      </trkpt>
      <trkpt lat="42.4317070" lon="-8.6436420">
        <ele>19.8</ele>
        <time>2021-05-21T13:23:33Z</time>
      </trkpt>
      <trkpt lat="42.4317170" lon="-8.6436520">
        <ele>19.8</ele>
        <time>2021-05-21T13:23:34Z</time>
      </trkpt>
      <trkpt lat="42.4317230" lon="-8.6436650">
        <ele>19.8</ele>
        <time>2021-05-21T13:23:35Z</time>
      </trkpt>
      <trkpt lat="42.4317350" lon="-8.6436680">
        <ele>19.8</ele>
        <time>2021-05-21T13:23:36Z</time>
      </trkpt>
      <trkpt lat="42.4317470" lon="-8.6436700">
        <ele>19.8</ele>
        <time>2021-05-21T13:23:37Z</time>
      </trkpt>
      <trkpt lat="42.4317660" lon="-8.6436720">
        <ele>19.7</ele>
        <time>2021-05-21T13:23:38Z</time>
      </trkpt>
      <trkpt lat="42.4317770" lon="-8.6436790">
        <ele>19.7</ele>
        <time>2021-05-21T13:23:39Z</time>
      </trkpt>
      <trkpt lat="42.4318000" lon="-8.6436770">
        <ele>19.7</ele>
        <time>2021-05-21T13:23:40Z</time>
      </trkpt>
      <trkpt lat="42.4318120" lon="-8.6436900">
        <ele>19.7</ele>
        <time>2021-05-21T13:23:41Z</time>
      </trkpt>
      <trkpt lat="42.4318240" lon="-8.6437000">
        <ele>19.7</ele>
        <time>2021-05-21T13:23:42Z</time>
      </trkpt>
      <trkpt lat="42.4318380" lon="-8.6437130">
        <ele>19.5</ele>
        <time>2021-05-21T13:23:43Z</time>
      </trkpt>
      <trkpt lat="42.4318510" lon="-8.6437210">
        <ele>19.4</ele>
        <time>2021-05-21T13:23:44Z</time>
      </trkpt>
      <trkpt lat="42.4318650" lon="-8.6437280">
        <ele>19.3</ele>
        <time>2021-05-21T13:23:45Z</time>
      </trkpt>
      <trkpt lat="42.4318830" lon="-8.6437450">
        <ele>19.1</ele>
        <time>2021-05-21T13:23:46Z</time>
      </trkpt>
      <trkpt lat="42.4318920" lon="-8.6437450">
        <ele>19.1</ele>
        <time>2021-05-21T13:23:47Z</time>
      </trkpt>
      <trkpt lat="42.4319070" lon="-8.6437440">
        <ele>18.9</ele>
        <time>2021-05-21T13:23:48Z</time>
      </trkpt>
      <trkpt lat="42.4319110" lon="-8.6437430">
        <ele>18.9</ele>
        <time>2021-05-21T13:23:49Z</time>
      </trkpt>
      <trkpt lat="42.4319230" lon="-8.6437500">
        <ele>18.8</ele>
        <time>2021-05-21T13:23:50Z</time>
      </trkpt>
      <trkpt lat="42.4319600" lon="-8.6437800">
        <ele>18.5</ele>
        <time>2021-05-21T13:23:51Z</time>
      </trkpt>
      <trkpt lat="42.4319770" lon="-8.6437760">
        <ele>18.4</ele>
        <time>2021-05-21T13:23:52Z</time>
      </trkpt>
      <trkpt lat="42.4319880" lon="-8.6437740">
        <ele>18.3</ele>
        <time>2021-05-21T13:23:53Z</time>
      </trkpt>
      <trkpt lat="42.4319980" lon="-8.6437710">
        <ele>18.3</ele>
        <time>2021-05-21T13:23:54Z</time>
      </trkpt>
      <trkpt lat="42.4320090" lon="-8.6437690">
        <ele>18.2</ele>
        <time>2021-05-21T13:23:55Z</time>
      </trkpt>
      <trkpt lat="42.4320410" lon="-8.6437800">
        <ele>18.0</ele>
        <time>2021-05-21T13:23:56Z</time>
      </trkpt>
      <trkpt lat="42.4320480" lon="-8.6437830">
        <ele>17.9</ele>
        <time>2021-05-21T13:23:57Z</time>
      </trkpt>
      <trkpt lat="42.4320510" lon="-8.6437700">
        <ele>17.8</ele>
        <time>2021-05-21T13:23:58Z</time>
      </trkpt>
      <trkpt lat="42.4320490" lon="-8.6437560">
        <ele>17.8</ele>
        <time>2021-05-21T13:23:59Z</time>
      </trkpt>
      <trkpt lat="42.4320530" lon="-8.6437480">
        <ele>17.7</ele>
        <time>2021-05-21T13:24:00Z</time>
      </trkpt>
      <trkpt lat="42.4320540" lon="-8.6437410">
        <ele>17.7</ele>
        <time>2021-05-21T13:24:01Z</time>
      </trkpt>
      <trkpt lat="42.4320840" lon="-8.6437420">
        <ele>17.4</ele>
        <time>2021-05-21T13:24:02Z</time>
      </trkpt>
      <trkpt lat="42.4320950" lon="-8.6437470">
        <ele>17.3</ele>
        <time>2021-05-21T13:24:03Z</time>
      </trkpt>
      <trkpt lat="42.4321190" lon="-8.6437640">
        <ele>17.1</ele>
        <time>2021-05-21T13:24:04Z</time>
      </trkpt>
      <trkpt lat="42.4321280" lon="-8.6437640">
        <ele>17.0</ele>
        <time>2021-05-21T13:24:05Z</time>
      </trkpt>
      <trkpt lat="42.4321360" lon="-8.6437660">
        <ele>17.0</ele>
        <time>2021-05-21T13:24:06Z</time>
      </trkpt>
      <trkpt lat="42.4321540" lon="-8.6437680">
        <ele>16.8</ele>
        <time>2021-05-21T13:24:07Z</time>
      </trkpt>
      <trkpt lat="42.4321610" lon="-8.6437610">
        <ele>16.7</ele>
        <time>2021-05-21T13:24:08Z</time>
      </trkpt>
      <trkpt lat="42.4321840" lon="-8.6437650">
        <ele>16.5</ele>
        <time>2021-05-21T13:24:09Z</time>
      </trkpt>
      <trkpt lat="42.4321910" lon="-8.6437650">
        <ele>16.5</ele>
        <time>2021-05-21T13:24:10Z</time>
      </trkpt>
      <trkpt lat="42.4322000" lon="-8.6437550">
        <ele>16.4</ele>
        <time>2021-05-21T13:24:11Z</time>
      </trkpt>
      <trkpt lat="42.4322090" lon="-8.6437480">
        <ele>16.3</ele>
        <time>2021-05-21T13:24:12Z</time>
      </trkpt>
      <trkpt lat="42.4322170" lon="-8.6437350">
        <ele>16.2</ele>
        <time>2021-05-21T13:24:13Z</time>
      </trkpt>
      <trkpt lat="42.4322330" lon="-8.6437280">
        <ele>16.0</ele>
        <time>2021-05-21T13:24:14Z</time>
      </trkpt>
      <trkpt lat="42.4322430" lon="-8.6437210">
        <ele>15.9</ele>
        <time>2021-05-21T13:24:15Z</time>
      </trkpt>
      <trkpt lat="42.4322530" lon="-8.6437220">
        <ele>15.8</ele>
        <time>2021-05-21T13:24:16Z</time>
      </trkpt>
      <trkpt lat="42.4322590" lon="-8.6437210">
        <ele>15.8</ele>
        <time>2021-05-21T13:24:17Z</time>
      </trkpt>
      <trkpt lat="42.4322630" lon="-8.6437190">
        <ele>15.8</ele>
        <time>2021-05-21T13:24:18Z</time>
      </trkpt>
      <trkpt lat="42.4322640" lon="-8.6437080">
        <ele>15.7</ele>
        <time>2021-05-21T13:24:19Z</time>
      </trkpt>
      <trkpt lat="42.4322690" lon="-8.6437070">
        <ele>15.6</ele>
        <time>2021-05-21T13:24:20Z</time>
      </trkpt>
      <trkpt lat="42.4322810" lon="-8.6436980">
        <ele>15.5</ele>
        <time>2021-05-21T13:24:21Z</time>
      </trkpt>
      <trkpt lat="42.4322860" lon="-8.6436920">
        <ele>15.5</ele>
        <time>2021-05-21T13:24:22Z</time>
      </trkpt>
      <trkpt lat="42.4322920" lon="-8.6436870">
        <ele>15.4</ele>
        <time>2021-05-21T13:24:23Z</time>
      </trkpt>
      <trkpt lat="42.4322980" lon="-8.6436840">
        <ele>15.3</ele>
        <time>2021-05-21T13:24:24Z</time>
      </trkpt>
      <trkpt lat="42.4323100" lon="-8.6436780">
        <ele>15.2</ele>
        <time>2021-05-21T13:24:25Z</time>
      </trkpt>
      <trkpt lat="42.4323200" lon="-8.6436760">
        <ele>15.1</ele>
        <time>2021-05-21T13:24:26Z</time>
      </trkpt>
      <trkpt lat="42.4323270" lon="-8.6436760">
        <ele>15.1</ele>
        <time>2021-05-21T13:24:27Z</time>
      </trkpt>
      <trkpt lat="42.4323360" lon="-8.6436770">
        <ele>15.0</ele>
        <time>2021-05-21T13:24:28Z</time>
      </trkpt>
      <trkpt lat="42.4323490" lon="-8.6436800">
        <ele>14.9</ele>
        <time>2021-05-21T13:24:29Z</time>
      </trkpt>
      <trkpt lat="42.4323620" lon="-8.6436770">
        <ele>14.8</ele>
        <time>2021-05-21T13:24:30Z</time>
      </trkpt>
      <trkpt lat="42.4323730" lon="-8.6436740">
        <ele>14.7</ele>
        <time>2021-05-21T13:24:32Z</time>
      </trkpt>
      <trkpt lat="42.4323830" lon="-8.6436730">
        <ele>14.6</ele>
        <time>2021-05-21T13:24:33Z</time>
      </trkpt>
      <trkpt lat="42.4323950" lon="-8.6436650">
        <ele>14.5</ele>
        <time>2021-05-21T13:24:34Z</time>
      </trkpt>
      <trkpt lat="42.4324090" lon="-8.6436610">
        <ele>14.3</ele>
        <time>2021-05-21T13:24:35Z</time>
      </trkpt>
      <trkpt lat="42.4324140" lon="-8.6436540">
        <ele>14.3</ele>
        <time>2021-05-21T13:24:36Z</time>
      </trkpt>
      <trkpt lat="42.4324240" lon="-8.6436420">
        <ele>14.2</ele>
        <time>2021-05-21T13:24:37Z</time>
      </trkpt>
      <trkpt lat="42.4324340" lon="-8.6436400">
        <ele>14.1</ele>
        <time>2021-05-21T13:24:38Z</time>
      </trkpt>
      <trkpt lat="42.4324400" lon="-8.6436360">
        <ele>14.0</ele>
        <time>2021-05-21T13:24:39Z</time>
      </trkpt>
      <trkpt lat="42.4324490" lon="-8.6436310">
        <ele>13.9</ele>
        <time>2021-05-21T13:24:40Z</time>
      </trkpt>
      <trkpt lat="42.4324600" lon="-8.6436280">
        <ele>13.8</ele>
        <time>2021-05-21T13:24:41Z</time>
      </trkpt>
      <trkpt lat="42.4324690" lon="-8.6436200">
        <ele>13.7</ele>
        <time>2021-05-21T13:24:42Z</time>
      </trkpt>
      <trkpt lat="42.4324720" lon="-8.6436100">
        <ele>13.7</ele>
        <time>2021-05-21T13:24:43Z</time>
      </trkpt>
      <trkpt lat="42.4324790" lon="-8.6436090">
        <ele>13.6</ele>
        <time>2021-05-21T13:24:44Z</time>
      </trkpt>
      <trkpt lat="42.4324890" lon="-8.6436010">
        <ele>13.5</ele>
        <time>2021-05-21T13:24:45Z</time>
      </trkpt>
      <trkpt lat="42.4325010" lon="-8.6435900">
        <ele>13.4</ele>
        <time>2021-05-21T13:24:46Z</time>
      </trkpt>
      <trkpt lat="42.4325060" lon="-8.6435840">
        <ele>13.3</ele>
        <time>2021-05-21T13:24:47Z</time>
      </trkpt>
      <trkpt lat="42.4325180" lon="-8.6435780">
        <ele>13.2</ele>
        <time>2021-05-21T13:24:48Z</time>
      </trkpt>
      <trkpt lat="42.4325270" lon="-8.6435650">
        <ele>13.1</ele>
        <time>2021-05-21T13:24:49Z</time>
      </trkpt>
      <trkpt lat="42.4325320" lon="-8.6435570">
        <ele>13.0</ele>
        <time>2021-05-21T13:24:50Z</time>
      </trkpt>
      <trkpt lat="42.4325390" lon="-8.6435400">
        <ele>12.9</ele>
        <time>2021-05-21T13:24:51Z</time>
      </trkpt>
      <trkpt lat="42.4325470" lon="-8.6435250">
        <ele>12.7</ele>
        <time>2021-05-21T13:24:52Z</time>
      </trkpt>
      <trkpt lat="42.4325590" lon="-8.6435090">
        <ele>12.6</ele>
        <time>2021-05-21T13:24:53Z</time>
      </trkpt>
      <trkpt lat="42.4325660" lon="-8.6435050">
        <ele>12.5</ele>
        <time>2021-05-21T13:24:54Z</time>
      </trkpt>
      <trkpt lat="42.4325760" lon="-8.6434970">
        <ele>12.4</ele>
        <time>2021-05-21T13:24:55Z</time>
      </trkpt>
      <trkpt lat="42.4325820" lon="-8.6434880">
        <ele>12.3</ele>
        <time>2021-05-21T13:24:56Z</time>
      </trkpt>
      <trkpt lat="42.4325910" lon="-8.6434790">
        <ele>12.2</ele>
        <time>2021-05-21T13:24:57Z</time>
      </trkpt>
      <trkpt lat="42.4326030" lon="-8.6434740">
        <ele>12.1</ele>
        <time>2021-05-21T13:24:58Z</time>
      </trkpt>
      <trkpt lat="42.4326130" lon="-8.6434680">
        <ele>12.0</ele>
        <time>2021-05-21T13:24:59Z</time>
      </trkpt>
      <trkpt lat="42.4326250" lon="-8.6434550">
        <ele>11.9</ele>
        <time>2021-05-21T13:25:00Z</time>
      </trkpt>
      <trkpt lat="42.4326390" lon="-8.6434520">
        <ele>11.7</ele>
        <time>2021-05-21T13:25:01Z</time>
      </trkpt>
      <trkpt lat="42.4326570" lon="-8.6434450">
        <ele>11.8</ele>
        <time>2021-05-21T13:25:02Z</time>
      </trkpt>
      <trkpt lat="42.4326730" lon="-8.6434430">
        <ele>13.2</ele>
        <time>2021-05-21T13:25:03Z</time>
      </trkpt>
      <trkpt lat="42.4326840" lon="-8.6434330">
        <ele>15.6</ele>
        <time>2021-05-21T13:25:04Z</time>
      </trkpt>
      <trkpt lat="42.4326950" lon="-8.6434300">
        <ele>15.6</ele>
        <time>2021-05-21T13:25:05Z</time>
      </trkpt>
      <trkpt lat="42.4326920" lon="-8.6434170">
        <ele>15.6</ele>
        <time>2021-05-21T13:25:06Z</time>
      </trkpt>
      <trkpt lat="42.4326940" lon="-8.6434040">
        <ele>15.5</ele>
        <time>2021-05-21T13:25:07Z</time>
      </trkpt>
      <trkpt lat="42.4326930" lon="-8.6433990">
        <ele>15.5</ele>
        <time>2021-05-21T13:25:08Z</time>
      </trkpt>
      <trkpt lat="42.4326980" lon="-8.6433940">
        <ele>15.5</ele>
        <time>2021-05-21T13:25:09Z</time>
      </trkpt>
      <trkpt lat="42.4326960" lon="-8.6433850">
        <ele>15.5</ele>
        <time>2021-05-21T13:25:10Z</time>
      </trkpt>
      <trkpt lat="42.4326910" lon="-8.6433800">
        <ele>15.5</ele>
        <time>2021-05-21T13:25:11Z</time>
      </trkpt>
      <trkpt lat="42.4326870" lon="-8.6433690">
        <ele>15.5</ele>
        <time>2021-05-21T13:25:12Z</time>
      </trkpt>
      <trkpt lat="42.4326840" lon="-8.6433600">
        <ele>15.5</ele>
        <time>2021-05-21T13:25:13Z</time>
      </trkpt>
      <trkpt lat="42.4326690" lon="-8.6433540">
        <ele>15.5</ele>
        <time>2021-05-21T13:25:14Z</time>
      </trkpt>
      <trkpt lat="42.4326660" lon="-8.6433560">
        <ele>15.5</ele>
        <time>2021-05-21T13:25:15Z</time>
      </trkpt>
      <trkpt lat="42.4326620" lon="-8.6433570">
        <ele>15.5</ele>
        <time>2021-05-21T13:25:16Z</time>
      </trkpt>
      <trkpt lat="42.4326580" lon="-8.6433580">
        <ele>15.5</ele>
        <time>2021-05-21T13:25:17Z</time>
      </trkpt>
      <trkpt lat="42.4326540" lon="-8.6433590">
        <ele>15.4</ele>
        <time>2021-05-21T13:25:18Z</time>
      </trkpt>
      <trkpt lat="42.4326510" lon="-8.6433610">
        <ele>15.4</ele>
        <time>2021-05-21T13:25:19Z</time>
      </trkpt>
      <trkpt lat="42.4326470" lon="-8.6433620">
        <ele>15.4</ele>
        <time>2021-05-21T13:25:20Z</time>
      </trkpt>
      <trkpt lat="42.4326490" lon="-8.6433530">
        <ele>15.4</ele>
        <time>2021-05-21T13:25:21Z</time>
      </trkpt>
      <trkpt lat="42.4326490" lon="-8.6433470">
        <ele>15.4</ele>
        <time>2021-05-21T13:25:22Z</time>
      </trkpt>
      <trkpt lat="42.4326570" lon="-8.6433410">
        <ele>15.4</ele>
        <time>2021-05-21T13:25:23Z</time>
      </trkpt>
      <trkpt lat="42.4326760" lon="-8.6433320">
        <ele>15.4</ele>
        <time>2021-05-21T13:25:24Z</time>
      </trkpt>
      <trkpt lat="42.4326820" lon="-8.6433200">
        <ele>15.4</ele>
        <time>2021-05-21T13:25:25Z</time>
      </trkpt>
      <trkpt lat="42.4326920" lon="-8.6433220">
        <ele>15.4</ele>
        <time>2021-05-21T13:25:26Z</time>
      </trkpt>
      <trkpt lat="42.4326910" lon="-8.6433310">
        <ele>15.3</ele>
        <time>2021-05-21T13:25:27Z</time>
      </trkpt>
      <trkpt lat="42.4326960" lon="-8.6433330">
        <ele>15.3</ele>
        <time>2021-05-21T13:25:28Z</time>
      </trkpt>
      <trkpt lat="42.4327020" lon="-8.6433320">
        <ele>15.3</ele>
        <time>2021-05-21T13:25:29Z</time>
      </trkpt>
      <trkpt lat="42.4327060" lon="-8.6433340">
        <ele>15.3</ele>
        <time>2021-05-21T13:25:30Z</time>
      </trkpt>
      <trkpt lat="42.4327070" lon="-8.6433290">
        <ele>15.3</ele>
        <time>2021-05-21T13:25:31Z</time>
      </trkpt>
      <trkpt lat="42.4327100" lon="-8.6433310">
        <ele>15.3</ele>
        <time>2021-05-21T13:25:32Z</time>
      </trkpt>
      <trkpt lat="42.4327190" lon="-8.6433340">
        <ele>15.3</ele>
        <time>2021-05-21T13:25:33Z</time>
      </trkpt>
      <trkpt lat="42.4327270" lon="-8.6433340">
        <ele>15.3</ele>
        <time>2021-05-21T13:25:34Z</time>
      </trkpt>
      <trkpt lat="42.4327300" lon="-8.6433400">
        <ele>15.3</ele>
        <time>2021-05-21T13:25:35Z</time>
      </trkpt>
      <trkpt lat="42.4327290" lon="-8.6433400">
        <ele>15.3</ele>
        <time>2021-05-21T13:25:36Z</time>
      </trkpt>
      <trkpt lat="42.4327340" lon="-8.6433420">
        <ele>15.3</ele>
        <time>2021-05-21T13:25:37Z</time>
      </trkpt>
      <trkpt lat="42.4327360" lon="-8.6433450">
        <ele>15.3</ele>
        <time>2021-05-21T13:25:38Z</time>
      </trkpt>
      <trkpt lat="42.4327360" lon="-8.6433500">
        <ele>15.3</ele>
        <time>2021-05-21T13:25:39Z</time>
      </trkpt>
      <trkpt lat="42.4327360" lon="-8.6433500">
        <ele>15.3</ele>
        <time>2021-05-21T13:25:40Z</time>
      </trkpt>
      <trkpt lat="42.4327360" lon="-8.6433450">
        <ele>15.3</ele>
        <time>2021-05-21T13:25:41Z</time>
      </trkpt>
      <trkpt lat="42.4327400" lon="-8.6433480">
        <ele>15.3</ele>
        <time>2021-05-21T13:25:42Z</time>
      </trkpt>
      <trkpt lat="42.4327430" lon="-8.6433460">
        <ele>15.3</ele>
        <time>2021-05-21T13:25:43Z</time>
      </trkpt>
      <trkpt lat="42.4327520" lon="-8.6433430">
        <ele>15.3</ele>
        <time>2021-05-21T13:25:44Z</time>
      </trkpt>
      <trkpt lat="42.4327600" lon="-8.6433480">
        <ele>15.3</ele>
        <time>2021-05-21T13:25:45Z</time>
      </trkpt>
      <trkpt lat="42.4327610" lon="-8.6433500">
        <ele>15.3</ele>
        <time>2021-05-21T13:25:46Z</time>
      </trkpt>
      <trkpt lat="42.4327630" lon="-8.6433490">
        <ele>15.3</ele>
        <time>2021-05-21T13:25:47Z</time>
      </trkpt>
      <trkpt lat="42.4327540" lon="-8.6433430">
        <ele>15.3</ele>
        <time>2021-05-21T13:25:48Z</time>
      </trkpt>
      <trkpt lat="42.4327520" lon="-8.6433360">
        <ele>15.3</ele>
        <time>2021-05-21T13:25:49Z</time>
      </trkpt>
      <trkpt lat="42.4327560" lon="-8.6433310">
        <ele>15.2</ele>
        <time>2021-05-21T13:25:50Z</time>
      </trkpt>
      <trkpt lat="42.4327560" lon="-8.6433160">
        <ele>15.2</ele>
        <time>2021-05-21T13:25:51Z</time>
      </trkpt>
      <trkpt lat="42.4327650" lon="-8.6433330">
        <ele>15.2</ele>
        <time>2021-05-21T13:25:52Z</time>
      </trkpt>
      <trkpt lat="42.4327590" lon="-8.6433570">
        <ele>15.2</ele>
        <time>2021-05-21T13:25:53Z</time>
      </trkpt>
      <trkpt lat="42.4327550" lon="-8.6433710">
        <ele>15.2</ele>
        <time>2021-05-21T13:25:54Z</time>
      </trkpt>
      <trkpt lat="42.4327630" lon="-8.6433780">
        <ele>15.2</ele>
        <time>2021-05-21T13:25:55Z</time>
      </trkpt>
      <trkpt lat="42.4327600" lon="-8.6433570">
        <ele>15.2</ele>
        <time>2021-05-21T13:25:56Z</time>
      </trkpt>
      <trkpt lat="42.4327540" lon="-8.6433250">
        <ele>15.2</ele>
        <time>2021-05-21T13:25:57Z</time>
      </trkpt>
      <trkpt lat="42.4327650" lon="-8.6433340">
        <ele>15.2</ele>
        <time>2021-05-21T13:25:58Z</time>
      </trkpt>
      <trkpt lat="42.4327760" lon="-8.6433390">
        <ele>15.2</ele>
        <time>2021-05-21T13:25:59Z</time>
      </trkpt>
      <trkpt lat="42.4327810" lon="-8.6433180">
        <ele>15.1</ele>
        <time>2021-05-21T13:26:00Z</time>
      </trkpt>
      <trkpt lat="42.4328100" lon="-8.6433210">
        <ele>15.1</ele>
        <time>2021-05-21T13:26:01Z</time>
      </trkpt>
      <trkpt lat="42.4328170" lon="-8.6433220">
        <ele>15.1</ele>
        <time>2021-05-21T13:26:02Z</time>
      </trkpt>
      <trkpt lat="42.4328410" lon="-8.6433190">
        <ele>15.1</ele>
        <time>2021-05-21T13:26:03Z</time>
      </trkpt>
      <trkpt lat="42.4328430" lon="-8.6432950">
        <ele>15.1</ele>
        <time>2021-05-21T13:26:04Z</time>
      </trkpt>
      <trkpt lat="42.4328450" lon="-8.6433090">
        <ele>15.1</ele>
        <time>2021-05-21T13:26:05Z</time>
      </trkpt>
      <trkpt lat="42.4328510" lon="-8.6433260">
        <ele>15.1</ele>
        <time>2021-05-21T13:26:06Z</time>
      </trkpt>
      <trkpt lat="42.4328580" lon="-8.6433430">
        <ele>15.1</ele>
        <time>2021-05-21T13:26:07Z</time>
      </trkpt>
      <trkpt lat="42.4328640" lon="-8.6433600">
        <ele>15.1</ele>
        <time>2021-05-21T13:26:08Z</time>
      </trkpt>
      <trkpt lat="42.4328700" lon="-8.6433750">
        <ele>15.1</ele>
        <time>2021-05-21T13:26:09Z</time>
      </trkpt>
      <trkpt lat="42.4328750" lon="-8.6433740">
        <ele>15.0</ele>
        <time>2021-05-21T13:26:10Z</time>
      </trkpt>
      <trkpt lat="42.4328860" lon="-8.6433720">
        <ele>15.0</ele>
        <time>2021-05-21T13:26:11Z</time>
      </trkpt>
      <trkpt lat="42.4328850" lon="-8.6433730">
        <ele>15.0</ele>
        <time>2021-05-21T13:26:12Z</time>
      </trkpt>
      <trkpt lat="42.4328890" lon="-8.6433710">
        <ele>15.0</ele>
        <time>2021-05-21T13:26:13Z</time>
      </trkpt>
      <trkpt lat="42.4328910" lon="-8.6433730">
        <ele>15.0</ele>
        <time>2021-05-21T13:26:14Z</time>
      </trkpt>
      <trkpt lat="42.4328920" lon="-8.6433750">
        <ele>15.0</ele>
        <time>2021-05-21T13:26:15Z</time>
      </trkpt>
      <trkpt lat="42.4329000" lon="-8.6433730">
        <ele>15.0</ele>
        <time>2021-05-21T13:26:16Z</time>
      </trkpt>
      <trkpt lat="42.4328970" lon="-8.6433710">
        <ele>15.0</ele>
        <time>2021-05-21T13:26:17Z</time>
      </trkpt>
      <trkpt lat="42.4329020" lon="-8.6433690">
        <ele>15.0</ele>
        <time>2021-05-21T13:26:18Z</time>
      </trkpt>
      <trkpt lat="42.4329010" lon="-8.6433720">
        <ele>15.0</ele>
        <time>2021-05-21T13:26:19Z</time>
      </trkpt>
      <trkpt lat="42.4328990" lon="-8.6433740">
        <ele>15.0</ele>
        <time>2021-05-21T13:26:20Z</time>
      </trkpt>
      <trkpt lat="42.4328980" lon="-8.6433760">
        <ele>15.0</ele>
        <time>2021-05-21T13:26:21Z</time>
      </trkpt>
      <trkpt lat="42.4329060" lon="-8.6433710">
        <ele>15.0</ele>
        <time>2021-05-21T13:26:22Z</time>
      </trkpt>
      <trkpt lat="42.4329060" lon="-8.6433700">
        <ele>15.0</ele>
        <time>2021-05-21T13:26:23Z</time>
      </trkpt>
      <trkpt lat="42.4329070" lon="-8.6433700">
        <ele>15.0</ele>
        <time>2021-05-21T13:26:24Z</time>
      </trkpt>
      <trkpt lat="42.4329120" lon="-8.6433670">
        <ele>15.0</ele>
        <time>2021-05-21T13:26:25Z</time>
      </trkpt>
      <trkpt lat="42.4329130" lon="-8.6433670">
        <ele>15.0</ele>
        <time>2021-05-21T13:26:26Z</time>
      </trkpt>
      <trkpt lat="42.4329170" lon="-8.6433710">
        <ele>15.0</ele>
        <time>2021-05-21T13:26:27Z</time>
      </trkpt>
      <trkpt lat="42.4329160" lon="-8.6433680">
        <ele>15.0</ele>
        <time>2021-05-21T13:26:28Z</time>
      </trkpt>
      <trkpt lat="42.4329170" lon="-8.6433650">
        <ele>15.0</ele>
        <time>2021-05-21T13:26:29Z</time>
      </trkpt>
      <trkpt lat="42.4329210" lon="-8.6433660">
        <ele>15.0</ele>
        <time>2021-05-21T13:26:30Z</time>
      </trkpt>
      <trkpt lat="42.4329230" lon="-8.6433640">
        <ele>15.0</ele>
        <time>2021-05-21T13:26:31Z</time>
      </trkpt>
      <trkpt lat="42.4329250" lon="-8.6433590">
        <ele>15.0</ele>
        <time>2021-05-21T13:26:32Z</time>
      </trkpt>
      <trkpt lat="42.4329300" lon="-8.6433560">
        <ele>15.0</ele>
        <time>2021-05-21T13:26:33Z</time>
      </trkpt>
      <trkpt lat="42.4329290" lon="-8.6433550">
        <ele>14.9</ele>
        <time>2021-05-21T13:26:34Z</time>
      </trkpt>
      <trkpt lat="42.4329310" lon="-8.6433540">
        <ele>14.9</ele>
        <time>2021-05-21T13:26:35Z</time>
      </trkpt>
      <trkpt lat="42.4329310" lon="-8.6433520">
        <ele>14.9</ele>
        <time>2021-05-21T13:26:36Z</time>
      </trkpt>
      <trkpt lat="42.4329760" lon="-8.6433390">
        <ele>14.9</ele>
        <time>2021-05-21T13:26:38Z</time>
      </trkpt>
      <trkpt lat="42.4327990" lon="-8.6435260">
        <ele>14.9</ele>
        <time>2021-05-21T13:26:39Z</time>
      </trkpt>
      <trkpt lat="42.4327950" lon="-8.6435340">
        <ele>14.9</ele>
        <time>2021-05-21T13:26:40Z</time>
      </trkpt>
      <trkpt lat="42.4327880" lon="-8.6435550">
        <ele>14.9</ele>
        <time>2021-05-21T13:26:41Z</time>
      </trkpt>
      <trkpt lat="42.4327800" lon="-8.6435720">
        <ele>14.9</ele>
        <time>2021-05-21T13:26:42Z</time>
      </trkpt>
      <trkpt lat="42.4327690" lon="-8.6435900">
        <ele>14.9</ele>
        <time>2021-05-21T13:26:43Z</time>
      </trkpt>
      <trkpt lat="42.4327600" lon="-8.6436060">
        <ele>14.9</ele>
        <time>2021-05-21T13:26:44Z</time>
      </trkpt>
      <trkpt lat="42.4327770" lon="-8.6435500">
        <ele>14.9</ele>
        <time>2021-05-21T13:26:46Z</time>
      </trkpt>
      <trkpt lat="42.4327640" lon="-8.6435570">
        <ele>14.9</ele>
        <time>2021-05-21T13:26:47Z</time>
      </trkpt>
      <trkpt lat="42.4327600" lon="-8.6435650">
        <ele>14.9</ele>
        <time>2021-05-21T13:26:48Z</time>
      </trkpt>
      <trkpt lat="42.4327580" lon="-8.6435530">
        <ele>14.9</ele>
        <time>2021-05-21T13:26:49Z</time>
      </trkpt>
      <trkpt lat="42.4327550" lon="-8.6435580">
        <ele>14.9</ele>
        <time>2021-05-21T13:26:50Z</time>
      </trkpt>
      <trkpt lat="42.4327770" lon="-8.6435120">
        <ele>14.9</ele>
        <time>2021-05-21T13:26:51Z</time>
      </trkpt>
      <trkpt lat="42.4327790" lon="-8.6435250">
        <ele>14.9</ele>
        <time>2021-05-21T13:26:52Z</time>
      </trkpt>
      <trkpt lat="42.4327840" lon="-8.6435370">
        <ele>14.9</ele>
        <time>2021-05-21T13:26:53Z</time>
      </trkpt>
      <trkpt lat="42.4327880" lon="-8.6435480">
        <ele>14.9</ele>
        <time>2021-05-21T13:26:54Z</time>
      </trkpt>
      <trkpt lat="42.4327920" lon="-8.6435590">
        <ele>14.9</ele>
        <time>2021-05-21T13:26:55Z</time>
      </trkpt>
      <trkpt lat="42.4327970" lon="-8.6435710">
        <ele>14.9</ele>
        <time>2021-05-21T13:26:56Z</time>
      </trkpt>
      <trkpt lat="42.4328010" lon="-8.6435820">
        <ele>14.9</ele>
        <time>2021-05-21T13:26:57Z</time>
      </trkpt>
      <trkpt lat="42.4327940" lon="-8.6435890">
        <ele>14.9</ele>
        <time>2021-05-21T13:26:58Z</time>
      </trkpt>
      <trkpt lat="42.4327910" lon="-8.6435960">
        <ele>14.9</ele>
        <time>2021-05-21T13:26:59Z</time>
      </trkpt>
      <trkpt lat="42.4327920" lon="-8.6436000">
        <ele>14.9</ele>
        <time>2021-05-21T13:27:00Z</time>
      </trkpt>
      <trkpt lat="42.4327940" lon="-8.6435920">
        <ele>14.9</ele>
        <time>2021-05-21T13:27:01Z</time>
      </trkpt>
      <trkpt lat="42.4327890" lon="-8.6436220">
        <ele>14.9</ele>
        <time>2021-05-21T13:27:02Z</time>
      </trkpt>
      <trkpt lat="42.4327850" lon="-8.6436270">
        <ele>14.9</ele>
        <time>2021-05-21T13:27:03Z</time>
      </trkpt>
      <trkpt lat="42.4328030" lon="-8.6435870">
        <ele>14.9</ele>
        <time>2021-05-21T13:27:04Z</time>
      </trkpt>
      <trkpt lat="42.4328020" lon="-8.6435770">
        <ele>14.9</ele>
        <time>2021-05-21T13:27:05Z</time>
      </trkpt>
      <trkpt lat="42.4328030" lon="-8.6435650">
        <ele>14.9</ele>
        <time>2021-05-21T13:27:06Z</time>
      </trkpt>
      <trkpt lat="42.4328040" lon="-8.6435630">
        <ele>14.9</ele>
        <time>2021-05-21T13:27:07Z</time>
      </trkpt>
      <trkpt lat="42.4328060" lon="-8.6435600">
        <ele>14.9</ele>
        <time>2021-05-21T13:27:08Z</time>
      </trkpt>
      <trkpt lat="42.4327930" lon="-8.6435470">
        <ele>14.9</ele>
        <time>2021-05-21T13:27:09Z</time>
      </trkpt>
      <trkpt lat="42.4327920" lon="-8.6435500">
        <ele>14.9</ele>
        <time>2021-05-21T13:27:10Z</time>
      </trkpt>
      <trkpt lat="42.4327900" lon="-8.6435520">
        <ele>14.9</ele>
        <time>2021-05-21T13:27:11Z</time>
      </trkpt>
      <trkpt lat="42.4327870" lon="-8.6435530">
        <ele>14.9</ele>
        <time>2021-05-21T13:27:12Z</time>
      </trkpt>
      <trkpt lat="42.4327810" lon="-8.6435580">
        <ele>14.9</ele>
        <time>2021-05-21T13:27:13Z</time>
      </trkpt>
      <trkpt lat="42.4327860" lon="-8.6435620">
        <ele>14.9</ele>
        <time>2021-05-21T13:27:14Z</time>
      </trkpt>
      <trkpt lat="42.4327930" lon="-8.6435670">
        <ele>14.9</ele>
        <time>2021-05-21T13:27:15Z</time>
      </trkpt>
      <trkpt lat="42.4327910" lon="-8.6435690">
        <ele>14.9</ele>
        <time>2021-05-21T13:27:16Z</time>
      </trkpt>
      <trkpt lat="42.4327890" lon="-8.6435720">
        <ele>14.9</ele>
        <time>2021-05-21T13:27:17Z</time>
      </trkpt>
      <trkpt lat="42.4327890" lon="-8.6435770">
        <ele>14.9</ele>
        <time>2021-05-21T13:27:18Z</time>
      </trkpt>
      <trkpt lat="42.4327760" lon="-8.6435880">
        <ele>14.9</ele>
        <time>2021-05-21T13:27:20Z</time>
      </trkpt>
      <trkpt lat="42.4327740" lon="-8.6435980">
        <ele>14.9</ele>
        <time>2021-05-21T13:27:21Z</time>
      </trkpt>
      <trkpt lat="42.4327720" lon="-8.6436050">
        <ele>14.8</ele>
        <time>2021-05-21T13:27:22Z</time>
      </trkpt>
      <trkpt lat="42.4327710" lon="-8.6436130">
        <ele>14.8</ele>
        <time>2021-05-21T13:27:23Z</time>
      </trkpt>
      <trkpt lat="42.4327690" lon="-8.6436170">
        <ele>14.8</ele>
        <time>2021-05-21T13:27:24Z</time>
      </trkpt>
      <trkpt lat="42.4327660" lon="-8.6436210">
        <ele>14.8</ele>
        <time>2021-05-21T13:27:25Z</time>
      </trkpt>
      <trkpt lat="42.4327650" lon="-8.6436230">
        <ele>14.8</ele>
        <time>2021-05-21T13:27:26Z</time>
      </trkpt>
      <trkpt lat="42.4327710" lon="-8.6434890">
        <ele>14.8</ele>
        <time>2021-05-21T13:27:38Z</time>
      </trkpt>
      <trkpt lat="42.4327720" lon="-8.6434870">
        <ele>14.8</ele>
        <time>2021-05-21T13:27:40Z</time>
      </trkpt>
      <trkpt lat="42.4327730" lon="-8.6434850">
        <ele>14.8</ele>
        <time>2021-05-21T13:27:44Z</time>
      </trkpt>
      <trkpt lat="42.4327740" lon="-8.6434830">
        <ele>14.8</ele>
        <time>2021-05-21T13:27:50Z</time>
      </trkpt>
      <trkpt lat="42.4327750" lon="-8.6434810">
        <ele>14.8</ele>
        <time>2021-05-21T13:27:53Z</time>
      </trkpt>
      <trkpt lat="42.4327760" lon="-8.6434790">
        <ele>14.8</ele>
        <time>2021-05-21T13:27:55Z</time>
      </trkpt>
      <trkpt lat="42.4327770" lon="-8.6434770">
        <ele>14.8</ele>
        <time>2021-05-21T13:27:56Z</time>
      </trkpt>
      <trkpt lat="42.4327780" lon="-8.6434740">
        <ele>14.8</ele>
        <time>2021-05-21T13:28:02Z</time>
      </trkpt>
      <trkpt lat="42.4327790" lon="-8.6434720">
        <ele>14.8</ele>
        <time>2021-05-21T13:28:08Z</time>
      </trkpt>
      <trkpt lat="42.4327800" lon="-8.6434700">
        <ele>14.8</ele>
        <time>2021-05-21T13:28:14Z</time>
      </trkpt>
      <trkpt lat="42.4327810" lon="-8.6434680">
        <ele>14.8</ele>
        <time>2021-05-21T13:28:21Z</time>
      </trkpt>
      <trkpt lat="42.4327820" lon="-8.6434660">
        <ele>14.8</ele>
        <time>2021-05-21T13:28:27Z</time>
      </trkpt>
      <trkpt lat="42.4327830" lon="-8.6434640">
        <ele>14.8</ele>
        <time>2021-05-21T13:28:33Z</time>
      </trkpt>
      <trkpt lat="42.4327840" lon="-8.6434620">
        <ele>14.8</ele>
        <time>2021-05-21T13:28:39Z</time>
      </trkpt>
      <trkpt lat="42.4327850" lon="-8.6434600">
        <ele>14.8</ele>
        <time>2021-05-21T13:28:45Z</time>
      </trkpt>
      <trkpt lat="42.4327850" lon="-8.6434580">
        <ele>14.8</ele>
        <time>2021-05-21T13:28:51Z</time>
      </trkpt>
      <trkpt lat="42.4327860" lon="-8.6434560">
        <ele>14.8</ele>
        <time>2021-05-21T13:28:57Z</time>
      </trkpt>
      <trkpt lat="42.4327870" lon="-8.6434540">
        <ele>14.8</ele>
        <time>2021-05-21T13:29:03Z</time>
      </trkpt>
      <trkpt lat="42.4327880" lon="-8.6434520">
        <ele>14.8</ele>
        <time>2021-05-21T13:29:09Z</time>
      </trkpt>
      <trkpt lat="42.4327890" lon="-8.6434500">
        <ele>14.8</ele>
        <time>2021-05-21T13:29:15Z</time>
      </trkpt>
      <trkpt lat="42.4327900" lon="-8.6434480">
        <ele>14.8</ele>
        <time>2021-05-21T13:29:20Z</time>
      </trkpt>
      <trkpt lat="42.4327910" lon="-8.6434460">
        <ele>14.8</ele>
        <time>2021-05-21T13:29:21Z</time>
      </trkpt>
      <trkpt lat="42.4327920" lon="-8.6434430">
        <ele>14.8</ele>
        <time>2021-05-21T13:29:27Z</time>
      </trkpt>
      <trkpt lat="42.4327930" lon="-8.6434410">
        <ele>14.8</ele>
        <time>2021-05-21T13:29:33Z</time>
      </trkpt>
      <trkpt lat="42.4327940" lon="-8.6434390">
        <ele>14.8</ele>
        <time>2021-05-21T13:29:39Z</time>
      </trkpt>
      <trkpt lat="42.4327950" lon="-8.6434370">
        <ele>14.8</ele>
        <time>2021-05-21T13:29:45Z</time>
      </trkpt>
      <trkpt lat="42.4327960" lon="-8.6434350">
        <ele>14.8</ele>
        <time>2021-05-21T13:29:51Z</time>
      </trkpt>
      <trkpt lat="42.4327970" lon="-8.6434330">
        <ele>14.8</ele>
        <time>2021-05-21T13:29:57Z</time>
      </trkpt>
      <trkpt lat="42.4327980" lon="-8.6434310">
        <ele>14.8</ele>
        <time>2021-05-21T13:30:03Z</time>
      </trkpt>
      <trkpt lat="42.4327990" lon="-8.6434290">
        <ele>14.8</ele>
        <time>2021-05-21T13:30:04Z</time>
      </trkpt>
      <trkpt lat="42.4328100" lon="-8.6434580">
        <ele>14.8</ele>
        <time>2021-05-21T13:30:05Z</time>
      </trkpt>
      <trkpt lat="42.4328110" lon="-8.6434380">
        <ele>14.8</ele>
        <time>2021-05-21T13:30:06Z</time>
      </trkpt>
      <trkpt lat="42.4328170" lon="-8.6434060">
        <ele>14.8</ele>
        <time>2021-05-21T13:30:07Z</time>
      </trkpt>
      <trkpt lat="42.4328270" lon="-8.6433930">
        <ele>14.8</ele>
        <time>2021-05-21T13:30:09Z</time>
      </trkpt>
      <trkpt lat="42.4328400" lon="-8.6433280">
        <ele>14.8</ele>
        <time>2021-05-21T13:30:10Z</time>
      </trkpt>
      <trkpt lat="42.4328460" lon="-8.6433050">
        <ele>14.8</ele>
        <time>2021-05-21T13:30:11Z</time>
      </trkpt>
      <trkpt lat="42.4328400" lon="-8.6433130">
        <ele>14.8</ele>
        <time>2021-05-21T13:30:12Z</time>
      </trkpt>
      <trkpt lat="42.4328340" lon="-8.6433190">
        <ele>14.8</ele>
        <time>2021-05-21T13:30:13Z</time>
      </trkpt>
      <trkpt lat="42.4328270" lon="-8.6433260">
        <ele>14.8</ele>
        <time>2021-05-21T13:30:14Z</time>
      </trkpt>
      <trkpt lat="42.4328220" lon="-8.6433260">
        <ele>14.8</ele>
        <time>2021-05-21T13:30:15Z</time>
      </trkpt>
      <trkpt lat="42.4328240" lon="-8.6433220">
        <ele>14.8</ele>
        <time>2021-05-21T13:30:16Z</time>
      </trkpt>
      <trkpt lat="42.4328240" lon="-8.6433140">
        <ele>14.8</ele>
        <time>2021-05-21T13:30:17Z</time>
      </trkpt>
      <trkpt lat="42.4328220" lon="-8.6433200">
        <ele>14.8</ele>
        <time>2021-05-21T13:30:18Z</time>
      </trkpt>
      <trkpt lat="42.4328120" lon="-8.6433320">
        <ele>14.8</ele>
        <time>2021-05-21T13:30:19Z</time>
      </trkpt>
      <trkpt lat="42.4328130" lon="-8.6433330">
        <ele>14.8</ele>
        <time>2021-05-21T13:30:20Z</time>
      </trkpt>
      <trkpt lat="42.4328210" lon="-8.6433320">
        <ele>14.8</ele>
        <time>2021-05-21T13:30:21Z</time>
      </trkpt>
      <trkpt lat="42.4328300" lon="-8.6433340">
        <ele>14.8</ele>
        <time>2021-05-21T13:30:22Z</time>
      </trkpt>
      <trkpt lat="42.4328130" lon="-8.6433530">
        <ele>14.8</ele>
        <time>2021-05-21T13:30:23Z</time>
      </trkpt>
      <trkpt lat="42.4328050" lon="-8.6433780">
        <ele>14.8</ele>
        <time>2021-05-21T13:30:24Z</time>
      </trkpt>
      <trkpt lat="42.4328050" lon="-8.6434040">
        <ele>14.7</ele>
        <time>2021-05-21T13:30:25Z</time>
      </trkpt>
      <trkpt lat="42.4328010" lon="-8.6434120">
        <ele>14.7</ele>
        <time>2021-05-21T13:30:26Z</time>
      </trkpt>
      <trkpt lat="42.4327960" lon="-8.6434190">
        <ele>14.7</ele>
        <time>2021-05-21T13:30:27Z</time>
      </trkpt>
      <trkpt lat="42.4327920" lon="-8.6434270">
        <ele>14.7</ele>
        <time>2021-05-21T13:30:28Z</time>
      </trkpt>
      <trkpt lat="42.4327850" lon="-8.6434430">
        <ele>14.7</ele>
        <time>2021-05-21T13:30:29Z</time>
      </trkpt>
      <trkpt lat="42.4327780" lon="-8.6434590">
        <ele>14.7</ele>
        <time>2021-05-21T13:30:30Z</time>
      </trkpt>
      <trkpt lat="42.4327610" lon="-8.6434830">
        <ele>14.7</ele>
        <time>2021-05-21T13:30:31Z</time>
      </trkpt>
      <trkpt lat="42.4327530" lon="-8.6434910">
        <ele>14.7</ele>
        <time>2021-05-21T13:30:32Z</time>
      </trkpt>
      <trkpt lat="42.4327460" lon="-8.6434980">
        <ele>14.7</ele>
        <time>2021-05-21T13:30:33Z</time>
      </trkpt>
      <trkpt lat="42.4327790" lon="-8.6435060">
        <ele>14.7</ele>
        <time>2021-05-21T13:30:34Z</time>
      </trkpt>
      <trkpt lat="42.4328180" lon="-8.6434540">
        <ele>14.7</ele>
        <time>2021-05-21T13:30:35Z</time>
      </trkpt>
      <trkpt lat="42.4328320" lon="-8.6434850">
        <ele>14.7</ele>
        <time>2021-05-21T13:30:36Z</time>
      </trkpt>
      <trkpt lat="42.4328530" lon="-8.6434160">
        <ele>14.7</ele>
        <time>2021-05-21T13:30:37Z</time>
      </trkpt>
      <trkpt lat="42.4328680" lon="-8.6434640">
        <ele>14.7</ele>
        <time>2021-05-21T13:30:38Z</time>
      </trkpt>
      <trkpt lat="42.4328720" lon="-8.6435260">
        <ele>14.6</ele>
        <time>2021-05-21T13:30:39Z</time>
      </trkpt>
      <trkpt lat="42.4328600" lon="-8.6435580">
        <ele>14.6</ele>
        <time>2021-05-21T13:30:40Z</time>
      </trkpt>
      <trkpt lat="42.4328510" lon="-8.6433950">
        <ele>14.9</ele>
        <time>2021-05-22T06:24:40Z</time>
      </trkpt>
      <trkpt lat="42.4328540" lon="-8.6433970">
        <ele>14.9</ele>
        <time>2021-05-22T06:24:41Z</time>
      </trkpt>
      <trkpt lat="42.4328570" lon="-8.6433990">
        <ele>14.9</ele>
        <time>2021-05-22T06:24:42Z</time>
      </trkpt>
      <trkpt lat="42.4328600" lon="-8.6434010">
        <ele>14.9</ele>
        <time>2021-05-22T06:24:43Z</time>
      </trkpt>
      <trkpt lat="42.4328630" lon="-8.6434030">
        <ele>14.9</ele>
        <time>2021-05-22T06:24:44Z</time>
      </trkpt>
      <trkpt lat="42.4328660" lon="-8.6434050">
        <ele>14.9</ele>
        <time>2021-05-22T06:24:45Z</time>
      </trkpt>
      <trkpt lat="42.4328690" lon="-8.6434070">
        <ele>14.9</ele>
        <time>2021-05-22T06:24:46Z</time>
      </trkpt>
      <trkpt lat="42.4328720" lon="-8.6434090">
        <ele>14.9</ele>
        <time>2021-05-22T06:24:47Z</time>
      </trkpt>
      <trkpt lat="42.4328750" lon="-8.6434110">
        <ele>14.9</ele>
        <time>2021-05-22T06:24:48Z</time>
      </trkpt>
      <trkpt lat="42.4328780" lon="-8.6434130">
        <ele>14.9</ele>
        <time>2021-05-22T06:24:49Z</time>
      </trkpt>
      <trkpt lat="42.4328810" lon="-8.6434160">
        <ele>14.9</ele>
        <time>2021-05-22T06:24:50Z</time>
      </trkpt>
      <trkpt lat="42.4328840" lon="-8.6434180">
        <ele>14.9</ele>
        <time>2021-05-22T06:24:51Z</time>
      </trkpt>
      <trkpt lat="42.4328870" lon="-8.6434200">
        <ele>14.9</ele>
        <time>2021-05-22T06:24:52Z</time>
      </trkpt>
      <trkpt lat="42.4328900" lon="-8.6434220">
        <ele>14.9</ele>
        <time>2021-05-22T06:24:53Z</time>
      </trkpt>
      <trkpt lat="42.4328930" lon="-8.6434240">
        <ele>14.9</ele>
        <time>2021-05-22T06:24:54Z</time>
      </trkpt>
      <trkpt lat="42.4328960" lon="-8.6434260">
        <ele>14.9</ele>
        <time>2021-05-22T06:24:55Z</time>
      </trkpt>
      <trkpt lat="42.4328990" lon="-8.6434280">
        <ele>14.9</ele>
        <time>2021-05-22T06:24:56Z</time>
      </trkpt>
      <trkpt lat="42.4329020" lon="-8.6434300">
        <ele>14.9</ele>
        <time>2021-05-22T06:24:57Z</time>
      </trkpt>
      <trkpt lat="42.4329050" lon="-8.6434320">
        <ele>14.9</ele>
        <time>2021-05-22T06:24:58Z</time>
      </trkpt>
      <trkpt lat="42.4329080" lon="-8.6434340">
        <ele>14.9</ele>
        <time>2021-05-22T06:24:59Z</time>
      </trkpt>
      <trkpt lat="42.4329110" lon="-8.6434360">
        <ele>14.9</ele>
        <time>2021-05-22T06:25:00Z</time>
      </trkpt>
      <trkpt lat="42.4329140" lon="-8.6434380">
        <ele>14.9</ele>
        <time>2021-05-22T06:25:01Z</time>
      </trkpt>
      <trkpt lat="42.4329170" lon="-8.6434400">
        <ele>14.9</ele>
        <time>2021-05-22T06:25:02Z</time>
      </trkpt>
      <trkpt lat="42.4329200" lon="-8.6434420">
        <ele>14.8</ele>
        <time>2021-05-22T06:25:03Z</time>
      </trkpt>
      <trkpt lat="42.4329230" lon="-8.6434440">
        <ele>14.8</ele>
        <time>2021-05-22T06:25:04Z</time>
      </trkpt>
      <trkpt lat="42.4329260" lon="-8.6434460">
        <ele>14.8</ele>
        <time>2021-05-22T06:25:05Z</time>
      </trkpt>
      <trkpt lat="42.4329290" lon="-8.6434480">
        <ele>14.8</ele>
        <time>2021-05-22T06:25:06Z</time>
      </trkpt>
      <trkpt lat="42.4329320" lon="-8.6434500">
        <ele>14.8</ele>
        <time>2021-05-22T06:25:07Z</time>
      </trkpt>
      <trkpt lat="42.4329360" lon="-8.6434520">
        <ele>14.8</ele>
        <time>2021-05-22T06:25:08Z</time>
      </trkpt>
      <trkpt lat="42.4329390" lon="-8.6434550">
        <ele>14.8</ele>
        <time>2021-05-22T06:25:09Z</time>
      </trkpt>
      <trkpt lat="42.4329420" lon="-8.6434570">
        <ele>14.8</ele>
        <time>2021-05-22T06:25:10Z</time>
      </trkpt>
      <trkpt lat="42.4329450" lon="-8.6434590">
        <ele>14.8</ele>
        <time>2021-05-22T06:25:11Z</time>
      </trkpt>
      <trkpt lat="42.4329480" lon="-8.6434610">
        <ele>14.8</ele>
        <time>2021-05-22T06:25:12Z</time>
      </trkpt>
      <trkpt lat="42.4329510" lon="-8.6434630">
        <ele>14.8</ele>
        <time>2021-05-22T06:25:13Z</time>
      </trkpt>
      <trkpt lat="42.4329540" lon="-8.6434650">
        <ele>14.8</ele>
        <time>2021-05-22T06:25:14Z</time>
      </trkpt>
      <trkpt lat="42.4329570" lon="-8.6434670">
        <ele>14.8</ele>
        <time>2021-05-22T06:25:15Z</time>
      </trkpt>
      <trkpt lat="42.4329600" lon="-8.6434690">
        <ele>14.8</ele>
        <time>2021-05-22T06:25:16Z</time>
      </trkpt>
      <trkpt lat="42.4329630" lon="-8.6434710">
        <ele>14.8</ele>
        <time>2021-05-22T06:25:17Z</time>
      </trkpt>
      <trkpt lat="42.4329660" lon="-8.6434730">
        <ele>14.8</ele>
        <time>2021-05-22T06:25:18Z</time>
      </trkpt>
      <trkpt lat="42.4329690" lon="-8.6434750">
        <ele>14.8</ele>
        <time>2021-05-22T06:25:19Z</time>
      </trkpt>
      <trkpt lat="42.4329720" lon="-8.6434770">
        <ele>14.8</ele>
        <time>2021-05-22T06:25:20Z</time>
      </trkpt>
      <trkpt lat="42.4329750" lon="-8.6434790">
        <ele>14.8</ele>
        <time>2021-05-22T06:25:21Z</time>
      </trkpt>
      <trkpt lat="42.4329780" lon="-8.6434810">
        <ele>14.8</ele>
        <time>2021-05-22T06:25:22Z</time>
      </trkpt>
      <trkpt lat="42.4329810" lon="-8.6434830">
        <ele>14.8</ele>
        <time>2021-05-22T06:25:23Z</time>
      </trkpt>
      <trkpt lat="42.4329840" lon="-8.6434850">
        <ele>14.8</ele>
        <time>2021-05-22T06:25:24Z</time>
      </trkpt>
      <trkpt lat="42.4329870" lon="-8.6434870">
        <ele>14.7</ele>
        <time>2021-05-22T06:25:25Z</time>
      </trkpt>
      <trkpt lat="42.4329900" lon="-8.6434890">
        <ele>14.7</ele>
        <time>2021-05-22T06:25:26Z</time>
      </trkpt>
      <trkpt lat="42.4329930" lon="-8.6434920">
        <ele>14.7</ele>
        <time>2021-05-22T06:25:27Z</time>
      </trkpt>
      <trkpt lat="42.4329960" lon="-8.6434940">
        <ele>14.7</ele>
        <time>2021-05-22T06:25:28Z</time>
      </trkpt>
      <trkpt lat="42.4329990" lon="-8.6434960">
        <ele>14.7</ele>
        <time>2021-05-22T06:25:29Z</time>
      </trkpt>
      <trkpt lat="42.4330020" lon="-8.6434980">
        <ele>14.7</ele>
        <time>2021-05-22T06:25:30Z</time>
      </trkpt>
      <trkpt lat="42.4330050" lon="-8.6435000">
        <ele>14.7</ele>
        <time>2021-05-22T06:25:31Z</time>
      </trkpt>
      <trkpt lat="42.4330080" lon="-8.6435020">
        <ele>14.7</ele>
        <time>2021-05-22T06:25:32Z</time>
      </trkpt>
      <trkpt lat="42.4330110" lon="-8.6435040">
        <ele>14.7</ele>
        <time>2021-05-22T06:25:33Z</time>
      </trkpt>
      <trkpt lat="42.4330140" lon="-8.6435060">
        <ele>14.7</ele>
        <time>2021-05-22T06:25:34Z</time>
      </trkpt>
      <trkpt lat="42.4330170" lon="-8.6435080">
        <ele>14.7</ele>
        <time>2021-05-22T06:25:35Z</time>
      </trkpt>
      <trkpt lat="42.4330200" lon="-8.6435100">
        <ele>14.7</ele>
        <time>2021-05-22T06:25:36Z</time>
      </trkpt>
      <trkpt lat="42.4330390" lon="-8.6435570">
        <ele>14.6</ele>
        <time>2021-05-22T06:25:37Z</time>
      </trkpt>
      <trkpt lat="42.4330770" lon="-8.6436100">
        <ele>14.4</ele>
        <time>2021-05-22T06:25:38Z</time>
      </trkpt>
      <trkpt lat="42.4330970" lon="-8.6436350">
        <ele>14.3</ele>
        <time>2021-05-22T06:25:39Z</time>
      </trkpt>
      <trkpt lat="42.4331070" lon="-8.6436470">
        <ele>14.2</ele>
        <time>2021-05-22T06:25:40Z</time>
      </trkpt>
      <trkpt lat="42.4331370" lon="-8.6436790">
        <ele>14.1</ele>
        <time>2021-05-22T06:25:41Z</time>
      </trkpt>
      <trkpt lat="42.4331460" lon="-8.6436900">
        <ele>14.1</ele>
        <time>2021-05-22T06:25:42Z</time>
      </trkpt>
      <trkpt lat="42.4331810" lon="-8.6437290">
        <ele>14.0</ele>
        <time>2021-05-22T06:25:44Z</time>
      </trkpt>
      <trkpt lat="42.4331940" lon="-8.6437430">
        <ele>14.0</ele>
        <time>2021-05-22T06:25:45Z</time>
      </trkpt>
      <trkpt lat="42.4332070" lon="-8.6437580">
        <ele>13.9</ele>
        <time>2021-05-22T06:25:46Z</time>
      </trkpt>
      <trkpt lat="42.4332370" lon="-8.6437900">
        <ele>13.8</ele>
        <time>2021-05-22T06:25:47Z</time>
      </trkpt>
      <trkpt lat="42.4332460" lon="-8.6438010">
        <ele>13.8</ele>
        <time>2021-05-22T06:25:48Z</time>
      </trkpt>
      <trkpt lat="42.4328100" lon="-8.6434940">
        <ele>14.5</ele>
        <time>2021-05-22T06:25:59Z</time>
      </trkpt>
      <trkpt lat="42.4327980" lon="-8.6435170">
        <ele>14.5</ele>
        <time>2021-05-22T06:26:05Z</time>
      </trkpt>
      <trkpt lat="42.4328100" lon="-8.6435010">
        <ele>14.5</ele>
        <time>2021-05-22T06:26:11Z</time>
      </trkpt>
      <trkpt lat="42.4328110" lon="-8.6434860">
        <ele>14.5</ele>
        <time>2021-05-22T06:26:17Z</time>
      </trkpt>
      <trkpt lat="42.4327990" lon="-8.6434740">
        <ele>14.5</ele>
        <time>2021-05-22T06:26:18Z</time>
      </trkpt>
      <trkpt lat="42.4328130" lon="-8.6435490">
        <ele>14.5</ele>
        <time>2021-05-22T06:26:24Z</time>
      </trkpt>
      <trkpt lat="42.4328350" lon="-8.6435780">
        <ele>14.5</ele>
        <time>2021-05-22T06:26:30Z</time>
      </trkpt>
      <trkpt lat="42.4328140" lon="-8.6435560">
        <ele>14.5</ele>
        <time>2021-05-22T06:26:36Z</time>
      </trkpt>
      <trkpt lat="42.4328020" lon="-8.6435280">
        <ele>14.5</ele>
        <time>2021-05-22T06:26:42Z</time>
      </trkpt>
      <trkpt lat="42.4328140" lon="-8.6435870">
        <ele>14.5</ele>
        <time>2021-05-22T06:26:48Z</time>
      </trkpt>
      <trkpt lat="42.4328120" lon="-8.6436070">
        <ele>14.5</ele>
        <time>2021-05-22T06:26:54Z</time>
      </trkpt>
      <trkpt lat="42.4327820" lon="-8.6435110">
        <ele>14.5</ele>
        <time>2021-05-22T06:27:00Z</time>
      </trkpt>
      <trkpt lat="42.4327780" lon="-8.6435200">
        <ele>14.5</ele>
        <time>2021-05-22T06:27:06Z</time>
      </trkpt>
      <trkpt lat="42.4327930" lon="-8.6435350">
        <ele>14.5</ele>
        <time>2021-05-22T06:27:12Z</time>
      </trkpt>
      <trkpt lat="42.4327910" lon="-8.6435030">
        <ele>14.5</ele>
        <time>2021-05-22T06:27:18Z</time>
      </trkpt>
      <trkpt lat="42.4327920" lon="-8.6435310">
        <ele>14.5</ele>
        <time>2021-05-22T06:27:24Z</time>
      </trkpt>
      <trkpt lat="42.4328100" lon="-8.6436070">
        <ele>14.5</ele>
        <time>2021-05-22T06:27:30Z</time>
      </trkpt>
      <trkpt lat="42.4328550" lon="-8.6437940">
        <ele>14.0</ele>
        <time>2021-05-22T06:27:36Z</time>
      </trkpt>
      <trkpt lat="42.4328610" lon="-8.6438190">
        <ele>14.0</ele>
        <time>2021-05-22T06:27:37Z</time>
      </trkpt>
      <trkpt lat="42.4329460" lon="-8.6436680">
        <ele>14.0</ele>
        <time>2021-05-22T06:27:40Z</time>
      </trkpt>
      <trkpt lat="42.4329580" lon="-8.6437170">
        <ele>14.0</ele>
        <time>2021-05-22T06:27:41Z</time>
      </trkpt>
      <trkpt lat="42.4329580" lon="-8.6436870">
        <ele>14.0</ele>
        <time>2021-05-22T06:27:42Z</time>
      </trkpt>
      <trkpt lat="42.4329850" lon="-8.6436880">
        <ele>14.0</ele>
        <time>2021-05-22T06:27:43Z</time>
      </trkpt>
      <trkpt lat="42.4329630" lon="-8.6436550">
        <ele>14.0</ele>
        <time>2021-05-22T06:27:44Z</time>
      </trkpt>
      <trkpt lat="42.4329560" lon="-8.6436400">
        <ele>14.0</ele>
        <time>2021-05-22T06:27:45Z</time>
      </trkpt>
      <trkpt lat="42.4329320" lon="-8.6436520">
        <ele>14.0</ele>
        <time>2021-05-22T06:27:46Z</time>
      </trkpt>
      <trkpt lat="42.4329350" lon="-8.6436550">
        <ele>14.1</ele>
        <time>2021-05-22T06:27:47Z</time>
      </trkpt>
      <trkpt lat="42.4329500" lon="-8.6436750">
        <ele>14.1</ele>
        <time>2021-05-22T06:27:48Z</time>
      </trkpt>
      <trkpt lat="42.4329540" lon="-8.6436810">
        <ele>14.1</ele>
        <time>2021-05-22T06:27:49Z</time>
      </trkpt>
      <trkpt lat="42.4329500" lon="-8.6436950">
        <ele>14.1</ele>
        <time>2021-05-22T06:27:50Z</time>
      </trkpt>
      <trkpt lat="42.4329420" lon="-8.6436880">
        <ele>14.1</ele>
        <time>2021-05-22T06:27:51Z</time>
      </trkpt>
      <trkpt lat="42.4329210" lon="-8.6436820">
        <ele>14.1</ele>
        <time>2021-05-22T06:27:52Z</time>
      </trkpt>
      <trkpt lat="42.4329090" lon="-8.6436690">
        <ele>14.1</ele>
        <time>2021-05-22T06:27:53Z</time>
      </trkpt>
      <trkpt lat="42.4329020" lon="-8.6436550">
        <ele>14.1</ele>
        <time>2021-05-22T06:27:54Z</time>
      </trkpt>
      <trkpt lat="42.4328990" lon="-8.6436580">
        <ele>14.1</ele>
        <time>2021-05-22T06:27:55Z</time>
      </trkpt>
      <trkpt lat="42.4328990" lon="-8.6436660">
        <ele>14.1</ele>
        <time>2021-05-22T06:27:56Z</time>
      </trkpt>
      <trkpt lat="42.4329000" lon="-8.6436730">
        <ele>14.1</ele>
        <time>2021-05-22T06:27:57Z</time>
      </trkpt>
      <trkpt lat="42.4329000" lon="-8.6436800">
        <ele>14.1</ele>
        <time>2021-05-22T06:27:58Z</time>
      </trkpt>
      <trkpt lat="42.4329010" lon="-8.6436880">
        <ele>14.1</ele>
        <time>2021-05-22T06:27:59Z</time>
      </trkpt>
      <trkpt lat="42.4329010" lon="-8.6436950">
        <ele>14.1</ele>
        <time>2021-05-22T06:28:00Z</time>
      </trkpt>
      <trkpt lat="42.4329020" lon="-8.6437030">
        <ele>14.1</ele>
        <time>2021-05-22T06:28:01Z</time>
      </trkpt>
      <trkpt lat="42.4329020" lon="-8.6437100">
        <ele>14.1</ele>
        <time>2021-05-22T06:28:02Z</time>
      </trkpt>
      <trkpt lat="42.4328960" lon="-8.6437170">
        <ele>14.1</ele>
        <time>2021-05-22T06:28:03Z</time>
      </trkpt>
      <trkpt lat="42.4329030" lon="-8.6437200">
        <ele>14.1</ele>
        <time>2021-05-22T06:28:04Z</time>
      </trkpt>
      <trkpt lat="42.4329000" lon="-8.6437360">
        <ele>14.1</ele>
        <time>2021-05-22T06:28:05Z</time>
      </trkpt>
      <trkpt lat="42.4329000" lon="-8.6437520">
        <ele>14.1</ele>
        <time>2021-05-22T06:28:06Z</time>
      </trkpt>
      <trkpt lat="42.4329010" lon="-8.6437650">
        <ele>14.1</ele>
        <time>2021-05-22T06:28:07Z</time>
      </trkpt>
      <trkpt lat="42.4329020" lon="-8.6437900">
        <ele>14.0</ele>
        <time>2021-05-22T06:28:08Z</time>
      </trkpt>
      <trkpt lat="42.4329050" lon="-8.6437970">
        <ele>14.0</ele>
        <time>2021-05-22T06:28:09Z</time>
      </trkpt>
      <trkpt lat="42.4329040" lon="-8.6438030">
        <ele>14.0</ele>
        <time>2021-05-22T06:28:10Z</time>
      </trkpt>
      <trkpt lat="42.4329040" lon="-8.6437970">
        <ele>13.9</ele>
        <time>2021-05-22T06:28:11Z</time>
      </trkpt>
      <trkpt lat="42.4329070" lon="-8.6438040">
        <ele>13.9</ele>
        <time>2021-05-22T06:28:12Z</time>
      </trkpt>
      <trkpt lat="42.4329070" lon="-8.6438210">
        <ele>13.9</ele>
        <time>2021-05-22T06:28:13Z</time>
      </trkpt>
      <trkpt lat="42.4329150" lon="-8.6438330">
        <ele>13.8</ele>
        <time>2021-05-22T06:28:14Z</time>
      </trkpt>
      <trkpt lat="42.4329090" lon="-8.6438640">
        <ele>13.8</ele>
        <time>2021-05-22T06:28:15Z</time>
      </trkpt>
      <trkpt lat="42.4329110" lon="-8.6438810">
        <ele>13.7</ele>
        <time>2021-05-22T06:28:16Z</time>
      </trkpt>
      <trkpt lat="42.4329140" lon="-8.6439080">
        <ele>13.6</ele>
        <time>2021-05-22T06:28:17Z</time>
      </trkpt>
      <trkpt lat="42.4329230" lon="-8.6439160">
        <ele>13.6</ele>
        <time>2021-05-22T06:28:18Z</time>
      </trkpt>
      <trkpt lat="42.4329270" lon="-8.6439250">
        <ele>13.6</ele>
        <time>2021-05-22T06:28:19Z</time>
      </trkpt>
      <trkpt lat="42.4329290" lon="-8.6439470">
        <ele>13.5</ele>
        <time>2021-05-22T06:28:20Z</time>
      </trkpt>
      <trkpt lat="42.4329350" lon="-8.6439610">
        <ele>13.5</ele>
        <time>2021-05-22T06:28:21Z</time>
      </trkpt>
      <trkpt lat="42.4329400" lon="-8.6439850">
        <ele>13.4</ele>
        <time>2021-05-22T06:28:22Z</time>
      </trkpt>
      <trkpt lat="42.4329410" lon="-8.6439940">
        <ele>13.4</ele>
        <time>2021-05-22T06:28:23Z</time>
      </trkpt>
      <trkpt lat="42.4329410" lon="-8.6440040">
        <ele>13.3</ele>
        <time>2021-05-22T06:28:24Z</time>
      </trkpt>
      <trkpt lat="42.4329420" lon="-8.6440130">
        <ele>13.3</ele>
        <time>2021-05-22T06:28:25Z</time>
      </trkpt>
      <trkpt lat="42.4329470" lon="-8.6440290">
        <ele>13.3</ele>
        <time>2021-05-22T06:28:26Z</time>
      </trkpt>
      <trkpt lat="42.4329530" lon="-8.6440500">
        <ele>13.2</ele>
        <time>2021-05-22T06:28:27Z</time>
      </trkpt>
      <trkpt lat="42.4329470" lon="-8.6440830">
        <ele>13.1</ele>
        <time>2021-05-22T06:28:28Z</time>
      </trkpt>
      <trkpt lat="42.4329430" lon="-8.6441000">
        <ele>13.0</ele>
        <time>2021-05-22T06:28:29Z</time>
      </trkpt>
      <trkpt lat="42.4329470" lon="-8.6441240">
        <ele>13.0</ele>
        <time>2021-05-22T06:28:30Z</time>
      </trkpt>
      <trkpt lat="42.4329470" lon="-8.6441480">
        <ele>12.9</ele>
        <time>2021-05-22T06:28:31Z</time>
      </trkpt>
      <trkpt lat="42.4329770" lon="-8.6441660">
        <ele>12.7</ele>
        <time>2021-05-22T06:28:32Z</time>
      </trkpt>
      <trkpt lat="42.4329870" lon="-8.6441740">
        <ele>12.7</ele>
        <time>2021-05-22T06:28:33Z</time>
      </trkpt>
      <trkpt lat="42.4330120" lon="-8.6441970">
        <ele>12.6</ele>
        <time>2021-05-22T06:28:34Z</time>
      </trkpt>
      <trkpt lat="42.4330190" lon="-8.6442060">
        <ele>12.5</ele>
        <time>2021-05-22T06:28:35Z</time>
      </trkpt>
      <trkpt lat="42.4330250" lon="-8.6442260">
        <ele>12.5</ele>
        <time>2021-05-22T06:28:36Z</time>
      </trkpt>
      <trkpt lat="42.4330220" lon="-8.6442430">
        <ele>12.4</ele>
        <time>2021-05-22T06:28:37Z</time>
      </trkpt>
      <trkpt lat="42.4330170" lon="-8.6442820">
        <ele>12.6</ele>
        <time>2021-05-22T06:28:38Z</time>
      </trkpt>
      <trkpt lat="42.4330000" lon="-8.6443160">
        <ele>12.7</ele>
        <time>2021-05-22T06:28:39Z</time>
      </trkpt>
      <trkpt lat="42.4330080" lon="-8.6443660">
        <ele>12.5</ele>
        <time>2021-05-22T06:28:40Z</time>
      </trkpt>
      <trkpt lat="42.4330080" lon="-8.6443710">
        <ele>12.5</ele>
        <time>2021-05-22T06:28:41Z</time>
      </trkpt>
      <trkpt lat="42.4330130" lon="-8.6443810">
        <ele>12.5</ele>
        <time>2021-05-22T06:28:42Z</time>
      </trkpt>
      <trkpt lat="42.4330170" lon="-8.6443920">
        <ele>12.5</ele>
        <time>2021-05-22T06:28:43Z</time>
      </trkpt>
      <trkpt lat="42.4330220" lon="-8.6444020">
        <ele>12.4</ele>
        <time>2021-05-22T06:28:44Z</time>
      </trkpt>
      <trkpt lat="42.4330270" lon="-8.6444130">
        <ele>12.4</ele>
        <time>2021-05-22T06:28:45Z</time>
      </trkpt>
      <trkpt lat="42.4330320" lon="-8.6444180">
        <ele>12.4</ele>
        <time>2021-05-22T06:28:46Z</time>
      </trkpt>
      <trkpt lat="42.4330340" lon="-8.6444380">
        <ele>12.4</ele>
        <time>2021-05-22T06:28:47Z</time>
      </trkpt>
      <trkpt lat="42.4330410" lon="-8.6444570">
        <ele>12.3</ele>
        <time>2021-05-22T06:28:48Z</time>
      </trkpt>
      <trkpt lat="42.4330430" lon="-8.6444720">
        <ele>12.3</ele>
        <time>2021-05-22T06:28:49Z</time>
      </trkpt>
      <trkpt lat="42.4330480" lon="-8.6444790">
        <ele>12.3</ele>
        <time>2021-05-22T06:28:50Z</time>
      </trkpt>
      <trkpt lat="42.4330590" lon="-8.6444910">
        <ele>12.2</ele>
        <time>2021-05-22T06:28:51Z</time>
      </trkpt>
      <trkpt lat="42.4330660" lon="-8.6445060">
        <ele>12.2</ele>
        <time>2021-05-22T06:28:52Z</time>
      </trkpt>
      <trkpt lat="42.4330740" lon="-8.6445270">
        <ele>12.1</ele>
        <time>2021-05-22T06:28:53Z</time>
      </trkpt>
      <trkpt lat="42.4330820" lon="-8.6445510">
        <ele>12.1</ele>
        <time>2021-05-22T06:28:54Z</time>
      </trkpt>
      <trkpt lat="42.4330900" lon="-8.6445670">
        <ele>12.0</ele>
        <time>2021-05-22T06:28:55Z</time>
      </trkpt>
      <trkpt lat="42.4330970" lon="-8.6445920">
        <ele>12.0</ele>
        <time>2021-05-22T06:28:56Z</time>
      </trkpt>
      <trkpt lat="42.4331020" lon="-8.6446020">
        <ele>12.0</ele>
        <time>2021-05-22T06:28:57Z</time>
      </trkpt>
      <trkpt lat="42.4331060" lon="-8.6446120">
        <ele>11.9</ele>
        <time>2021-05-22T06:28:58Z</time>
      </trkpt>
      <trkpt lat="42.4331180" lon="-8.6446410">
        <ele>11.8</ele>
        <time>2021-05-22T06:28:59Z</time>
      </trkpt>
      <trkpt lat="42.4331210" lon="-8.6446510">
        <ele>11.7</ele>
        <time>2021-05-22T06:29:00Z</time>
      </trkpt>
      <trkpt lat="42.4331250" lon="-8.6446600">
        <ele>11.7</ele>
        <time>2021-05-22T06:29:01Z</time>
      </trkpt>
      <trkpt lat="42.4331370" lon="-8.6446820">
        <ele>11.6</ele>
        <time>2021-05-22T06:29:02Z</time>
      </trkpt>
      <trkpt lat="42.4331400" lon="-8.6446960">
        <ele>11.6</ele>
        <time>2021-05-22T06:29:03Z</time>
      </trkpt>
      <trkpt lat="42.4331440" lon="-8.6447100">
        <ele>11.5</ele>
        <time>2021-05-22T06:29:04Z</time>
      </trkpt>
      <trkpt lat="42.4331400" lon="-8.6447090">
        <ele>11.5</ele>
        <time>2021-05-22T06:29:05Z</time>
      </trkpt>
      <trkpt lat="42.4331420" lon="-8.6447150">
        <ele>11.5</ele>
        <time>2021-05-22T06:29:06Z</time>
      </trkpt>
      <trkpt lat="42.4331470" lon="-8.6447260">
        <ele>11.5</ele>
        <time>2021-05-22T06:29:07Z</time>
      </trkpt>
      <trkpt lat="42.4331510" lon="-8.6447220">
        <ele>11.5</ele>
        <time>2021-05-22T06:29:08Z</time>
      </trkpt>
      <trkpt lat="42.4331560" lon="-8.6447260">
        <ele>11.4</ele>
        <time>2021-05-22T06:29:09Z</time>
      </trkpt>
      <trkpt lat="42.4331600" lon="-8.6447320">
        <ele>11.4</ele>
        <time>2021-05-22T06:29:10Z</time>
      </trkpt>
      <trkpt lat="42.4331680" lon="-8.6447360">
        <ele>11.4</ele>
        <time>2021-05-22T06:29:11Z</time>
      </trkpt>
      <trkpt lat="42.4331790" lon="-8.6447380">
        <ele>11.4</ele>
        <time>2021-05-22T06:29:12Z</time>
      </trkpt>
      <trkpt lat="42.4331910" lon="-8.6447430">
        <ele>11.4</ele>
        <time>2021-05-22T06:29:13Z</time>
      </trkpt>
      <trkpt lat="42.4331950" lon="-8.6447460">
        <ele>11.4</ele>
        <time>2021-05-22T06:29:14Z</time>
      </trkpt>
      <trkpt lat="42.4331990" lon="-8.6447480">
        <ele>11.4</ele>
        <time>2021-05-22T06:29:15Z</time>
      </trkpt>
      <trkpt lat="42.4332020" lon="-8.6447580">
        <ele>11.4</ele>
        <time>2021-05-22T06:29:16Z</time>
      </trkpt>
      <trkpt lat="42.4332080" lon="-8.6447630">
        <ele>11.5</ele>
        <time>2021-05-22T06:29:17Z</time>
      </trkpt>
      <trkpt lat="42.4332130" lon="-8.6447630">
        <ele>11.5</ele>
        <time>2021-05-22T06:29:18Z</time>
      </trkpt>
      <trkpt lat="42.4332250" lon="-8.6447710">
        <ele>11.5</ele>
        <time>2021-05-22T06:29:19Z</time>
      </trkpt>
      <trkpt lat="42.4332390" lon="-8.6447860">
        <ele>11.5</ele>
        <time>2021-05-22T06:29:20Z</time>
      </trkpt>
      <trkpt lat="42.4332470" lon="-8.6448030">
        <ele>11.5</ele>
        <time>2021-05-22T06:29:21Z</time>
      </trkpt>
      <trkpt lat="42.4332670" lon="-8.6448200">
        <ele>11.5</ele>
        <time>2021-05-22T06:29:22Z</time>
      </trkpt>
      <trkpt lat="42.4332780" lon="-8.6448170">
        <ele>11.5</ele>
        <time>2021-05-22T06:29:23Z</time>
      </trkpt>
      <trkpt lat="42.4332780" lon="-8.6448250">
        <ele>11.5</ele>
        <time>2021-05-22T06:29:24Z</time>
      </trkpt>
      <trkpt lat="42.4332930" lon="-8.6448520">
        <ele>11.5</ele>
        <time>2021-05-22T06:29:25Z</time>
      </trkpt>
      <trkpt lat="42.4333010" lon="-8.6448770">
        <ele>11.6</ele>
        <time>2021-05-22T06:29:26Z</time>
      </trkpt>
      <trkpt lat="42.4333030" lon="-8.6448920">
        <ele>11.6</ele>
        <time>2021-05-22T06:29:27Z</time>
      </trkpt>
      <trkpt lat="42.4333050" lon="-8.6449070">
        <ele>11.6</ele>
        <time>2021-05-22T06:29:28Z</time>
      </trkpt>
      <trkpt lat="42.4333050" lon="-8.6449300">
        <ele>11.6</ele>
        <time>2021-05-22T06:29:29Z</time>
      </trkpt>
      <trkpt lat="42.4333160" lon="-8.6449460">
        <ele>11.6</ele>
        <time>2021-05-22T06:29:30Z</time>
      </trkpt>
      <trkpt lat="42.4333190" lon="-8.6449640">
        <ele>11.7</ele>
        <time>2021-05-22T06:29:31Z</time>
      </trkpt>
      <trkpt lat="42.4333210" lon="-8.6449760">
        <ele>11.7</ele>
        <time>2021-05-22T06:29:32Z</time>
      </trkpt>
      <trkpt lat="42.4333180" lon="-8.6449920">
        <ele>11.7</ele>
        <time>2021-05-22T06:29:33Z</time>
      </trkpt>
      <trkpt lat="42.4333150" lon="-8.6450040">
        <ele>11.7</ele>
        <time>2021-05-22T06:29:34Z</time>
      </trkpt>
      <trkpt lat="42.4333160" lon="-8.6450300">
        <ele>11.7</ele>
        <time>2021-05-22T06:29:35Z</time>
      </trkpt>
      <trkpt lat="42.4333180" lon="-8.6450490">
        <ele>11.8</ele>
        <time>2021-05-22T06:29:36Z</time>
      </trkpt>
      <trkpt lat="42.4333280" lon="-8.6450690">
        <ele>11.8</ele>
        <time>2021-05-22T06:29:37Z</time>
      </trkpt>
      <trkpt lat="42.4333300" lon="-8.6450910">
        <ele>11.8</ele>
        <time>2021-05-22T06:29:38Z</time>
      </trkpt>
      <trkpt lat="42.4333410" lon="-8.6451040">
        <ele>11.8</ele>
        <time>2021-05-22T06:29:39Z</time>
      </trkpt>
      <trkpt lat="42.4333470" lon="-8.6451190">
        <ele>11.9</ele>
        <time>2021-05-22T06:29:40Z</time>
      </trkpt>
      <trkpt lat="42.4333490" lon="-8.6451430">
        <ele>11.9</ele>
        <time>2021-05-22T06:29:41Z</time>
      </trkpt>
      <trkpt lat="42.4333570" lon="-8.6451780">
        <ele>11.9</ele>
        <time>2021-05-22T06:29:42Z</time>
      </trkpt>
      <trkpt lat="42.4333600" lon="-8.6451910">
        <ele>11.9</ele>
        <time>2021-05-22T06:29:43Z</time>
      </trkpt>
      <trkpt lat="42.4333760" lon="-8.6451840">
        <ele>11.9</ele>
        <time>2021-05-22T06:29:44Z</time>
      </trkpt>
      <trkpt lat="42.4333760" lon="-8.6451930">
        <ele>11.9</ele>
        <time>2021-05-22T06:29:45Z</time>
      </trkpt>
      <trkpt lat="42.4333820" lon="-8.6451860">
        <ele>11.9</ele>
        <time>2021-05-22T06:29:46Z</time>
      </trkpt>
      <trkpt lat="42.4333910" lon="-8.6451800">
        <ele>11.9</ele>
        <time>2021-05-22T06:29:47Z</time>
      </trkpt>
      <trkpt lat="42.4333940" lon="-8.6451800">
        <ele>11.9</ele>
        <time>2021-05-22T06:29:48Z</time>
      </trkpt>
      <trkpt lat="42.4333870" lon="-8.6451760">
        <ele>11.9</ele>
        <time>2021-05-22T06:29:49Z</time>
      </trkpt>
      <trkpt lat="42.4333780" lon="-8.6451770">
        <ele>11.9</ele>
        <time>2021-05-22T06:29:50Z</time>
      </trkpt>
      <trkpt lat="42.4333830" lon="-8.6451870">
        <ele>11.9</ele>
        <time>2021-05-22T06:29:51Z</time>
      </trkpt>
      <trkpt lat="42.4333990" lon="-8.6451760">
        <ele>11.8</ele>
        <time>2021-05-22T06:29:52Z</time>
      </trkpt>
      <trkpt lat="42.4334070" lon="-8.6451800">
        <ele>11.8</ele>
        <time>2021-05-22T06:29:53Z</time>
      </trkpt>
      <trkpt lat="42.4334160" lon="-8.6451690">
        <ele>11.8</ele>
        <time>2021-05-22T06:29:54Z</time>
      </trkpt>
      <trkpt lat="42.4334250" lon="-8.6451650">
        <ele>11.8</ele>
        <time>2021-05-22T06:29:55Z</time>
      </trkpt>
      <trkpt lat="42.4334310" lon="-8.6451640">
        <ele>11.8</ele>
        <time>2021-05-22T06:29:56Z</time>
      </trkpt>
      <trkpt lat="42.4334420" lon="-8.6451680">
        <ele>11.8</ele>
        <time>2021-05-22T06:29:57Z</time>
      </trkpt>
      <trkpt lat="42.4334490" lon="-8.6451660">
        <ele>11.8</ele>
        <time>2021-05-22T06:29:58Z</time>
      </trkpt>
      <trkpt lat="42.4334560" lon="-8.6451580">
        <ele>11.7</ele>
        <time>2021-05-22T06:29:59Z</time>
      </trkpt>
      <trkpt lat="42.4334640" lon="-8.6451450">
        <ele>11.7</ele>
        <time>2021-05-22T06:30:00Z</time>
      </trkpt>
      <trkpt lat="42.4334870" lon="-8.6451390">
        <ele>11.6</ele>
        <time>2021-05-22T06:30:01Z</time>
      </trkpt>
      <trkpt lat="42.4335150" lon="-8.6451490">
        <ele>11.6</ele>
        <time>2021-05-22T06:30:02Z</time>
      </trkpt>
      <trkpt lat="42.4335430" lon="-8.6451600">
        <ele>11.5</ele>
        <time>2021-05-22T06:30:03Z</time>
      </trkpt>
      <trkpt lat="42.4335580" lon="-8.6451670">
        <ele>11.4</ele>
        <time>2021-05-22T06:30:04Z</time>
      </trkpt>
      <trkpt lat="42.4335930" lon="-8.6451880">
        <ele>11.3</ele>
        <time>2021-05-22T06:30:05Z</time>
      </trkpt>
      <trkpt lat="42.4336230" lon="-8.6452070">
        <ele>11.2</ele>
        <time>2021-05-22T06:30:06Z</time>
      </trkpt>
      <trkpt lat="42.4336440" lon="-8.6452410">
        <ele>11.1</ele>
        <time>2021-05-22T06:30:07Z</time>
      </trkpt>
      <trkpt lat="42.4336510" lon="-8.6452530">
        <ele>11.1</ele>
        <time>2021-05-22T06:30:08Z</time>
      </trkpt>
      <trkpt lat="42.4336690" lon="-8.6452570">
        <ele>11.0</ele>
        <time>2021-05-22T06:30:09Z</time>
      </trkpt>
      <trkpt lat="42.4336730" lon="-8.6452490">
        <ele>11.0</ele>
        <time>2021-05-22T06:30:10Z</time>
      </trkpt>
      <trkpt lat="42.4336790" lon="-8.6452500">
        <ele>11.0</ele>
        <time>2021-05-22T06:30:11Z</time>
      </trkpt>
      <trkpt lat="42.4336910" lon="-8.6452570">
        <ele>10.9</ele>
        <time>2021-05-22T06:30:12Z</time>
      </trkpt>
      <trkpt lat="42.4337090" lon="-8.6452510">
        <ele>10.9</ele>
        <time>2021-05-22T06:30:13Z</time>
      </trkpt>
      <trkpt lat="42.4337240" lon="-8.6452470">
        <ele>10.8</ele>
        <time>2021-05-22T06:30:14Z</time>
      </trkpt>
      <trkpt lat="42.4337300" lon="-8.6452440">
        <ele>10.8</ele>
        <time>2021-05-22T06:30:15Z</time>
      </trkpt>
      <trkpt lat="42.4337360" lon="-8.6452400">
        <ele>10.8</ele>
        <time>2021-05-22T06:30:16Z</time>
      </trkpt>
      <trkpt lat="42.4337420" lon="-8.6452370">
        <ele>10.8</ele>
        <time>2021-05-22T06:30:17Z</time>
      </trkpt>
      <trkpt lat="42.4337480" lon="-8.6452340">
        <ele>10.8</ele>
        <time>2021-05-22T06:30:18Z</time>
      </trkpt>
      <trkpt lat="42.4337650" lon="-8.6452410">
        <ele>10.7</ele>
        <time>2021-05-22T06:30:19Z</time>
      </trkpt>
      <trkpt lat="42.4337790" lon="-8.6452590">
        <ele>10.6</ele>
        <time>2021-05-22T06:30:20Z</time>
      </trkpt>
      <trkpt lat="42.4338020" lon="-8.6452360">
        <ele>10.6</ele>
        <time>2021-05-22T06:30:21Z</time>
      </trkpt>
      <trkpt lat="42.4338110" lon="-8.6452220">
        <ele>10.5</ele>
        <time>2021-05-22T06:30:22Z</time>
      </trkpt>
      <trkpt lat="42.4338100" lon="-8.6451640">
        <ele>10.4</ele>
        <time>2021-05-22T06:30:23Z</time>
      </trkpt>
      <trkpt lat="42.4338030" lon="-8.6451400">
        <ele>10.3</ele>
        <time>2021-05-22T06:30:24Z</time>
      </trkpt>
      <trkpt lat="42.4337910" lon="-8.6451110">
        <ele>10.3</ele>
        <time>2021-05-22T06:30:25Z</time>
      </trkpt>
      <trkpt lat="42.4337970" lon="-8.6451010">
        <ele>10.2</ele>
        <time>2021-05-22T06:30:26Z</time>
      </trkpt>
      <trkpt lat="42.4337980" lon="-8.6450990">
        <ele>10.2</ele>
        <time>2021-05-22T06:30:27Z</time>
      </trkpt>
      <trkpt lat="42.4338250" lon="-8.6451040">
        <ele>10.2</ele>
        <time>2021-05-22T06:30:28Z</time>
      </trkpt>
      <trkpt lat="42.4338360" lon="-8.6450980">
        <ele>10.1</ele>
        <time>2021-05-22T06:30:29Z</time>
      </trkpt>
      <trkpt lat="42.4338540" lon="-8.6451030">
        <ele>10.1</ele>
        <time>2021-05-22T06:30:30Z</time>
      </trkpt>
      <trkpt lat="42.4338530" lon="-8.6450970">
        <ele>10.1</ele>
        <time>2021-05-22T06:30:31Z</time>
      </trkpt>
      <trkpt lat="42.4338730" lon="-8.6450920">
        <ele>10.0</ele>
        <time>2021-05-22T06:30:32Z</time>
      </trkpt>
      <trkpt lat="42.4338810" lon="-8.6450910">
        <ele>10.0</ele>
        <time>2021-05-22T06:30:33Z</time>
      </trkpt>
      <trkpt lat="42.4338960" lon="-8.6450670">
        <ele>9.9</ele>
        <time>2021-05-22T06:30:34Z</time>
      </trkpt>
      <trkpt lat="42.4339050" lon="-8.6450610">
        <ele>9.9</ele>
        <time>2021-05-22T06:30:35Z</time>
      </trkpt>
      <trkpt lat="42.4339110" lon="-8.6450510">
        <ele>9.9</ele>
        <time>2021-05-22T06:30:36Z</time>
      </trkpt>
      <trkpt lat="42.4339160" lon="-8.6450470">
        <ele>9.9</ele>
        <time>2021-05-22T06:30:37Z</time>
      </trkpt>
      <trkpt lat="42.4339300" lon="-8.6450420">
        <ele>9.8</ele>
        <time>2021-05-22T06:30:38Z</time>
      </trkpt>
      <trkpt lat="42.4339460" lon="-8.6450310">
        <ele>9.8</ele>
        <time>2021-05-22T06:30:39Z</time>
      </trkpt>
      <trkpt lat="42.4339550" lon="-8.6450260">
        <ele>9.8</ele>
        <time>2021-05-22T06:30:40Z</time>
      </trkpt>
      <trkpt lat="42.4339560" lon="-8.6450190">
        <ele>9.8</ele>
        <time>2021-05-22T06:30:41Z</time>
      </trkpt>
      <trkpt lat="42.4339580" lon="-8.6450130">
        <ele>9.8</ele>
        <time>2021-05-22T06:30:42Z</time>
      </trkpt>
      <trkpt lat="42.4339610" lon="-8.6450040">
        <ele>9.7</ele>
        <time>2021-05-22T06:30:43Z</time>
      </trkpt>
      <trkpt lat="42.4339700" lon="-8.6449970">
        <ele>9.7</ele>
        <time>2021-05-22T06:30:44Z</time>
      </trkpt>
      <trkpt lat="42.4339770" lon="-8.6449930">
        <ele>9.7</ele>
        <time>2021-05-22T06:30:45Z</time>
      </trkpt>
      <trkpt lat="42.4339880" lon="-8.6449810">
        <ele>9.7</ele>
        <time>2021-05-22T06:30:46Z</time>
      </trkpt>
      <trkpt lat="42.4340070" lon="-8.6449700">
        <ele>9.6</ele>
        <time>2021-05-22T06:30:47Z</time>
      </trkpt>
      <trkpt lat="42.4340180" lon="-8.6449570">
        <ele>9.6</ele>
        <time>2021-05-22T06:30:48Z</time>
      </trkpt>
      <trkpt lat="42.4340200" lon="-8.6449550">
        <ele>9.6</ele>
        <time>2021-05-22T06:30:49Z</time>
      </trkpt>
      <trkpt lat="42.4340110" lon="-8.6449490">
        <ele>9.6</ele>
        <time>2021-05-22T06:30:50Z</time>
      </trkpt>
      <trkpt lat="42.4340080" lon="-8.6449400">
        <ele>9.5</ele>
        <time>2021-05-22T06:30:51Z</time>
      </trkpt>
      <trkpt lat="42.4340140" lon="-8.6449230">
        <ele>9.5</ele>
        <time>2021-05-22T06:30:52Z</time>
      </trkpt>
      <trkpt lat="42.4340440" lon="-8.6449000">
        <ele>9.5</ele>
        <time>2021-05-22T06:30:53Z</time>
      </trkpt>
      <trkpt lat="42.4340800" lon="-8.6448810">
        <ele>9.4</ele>
        <time>2021-05-22T06:30:54Z</time>
      </trkpt>
      <trkpt lat="42.4341110" lon="-8.6448850">
        <ele>9.3</ele>
        <time>2021-05-22T06:30:55Z</time>
      </trkpt>
      <trkpt lat="42.4341220" lon="-8.6448860">
        <ele>9.3</ele>
        <time>2021-05-22T06:30:56Z</time>
      </trkpt>
      <trkpt lat="42.4341150" lon="-8.6448650">
        <ele>9.3</ele>
        <time>2021-05-22T06:30:57Z</time>
      </trkpt>
      <trkpt lat="42.4341410" lon="-8.6448690">
        <ele>9.2</ele>
        <time>2021-05-22T06:30:58Z</time>
      </trkpt>
      <trkpt lat="42.4341450" lon="-8.6448640">
        <ele>9.2</ele>
        <time>2021-05-22T06:30:59Z</time>
      </trkpt>
      <trkpt lat="42.4341540" lon="-8.6448620">
        <ele>9.2</ele>
        <time>2021-05-22T06:31:00Z</time>
      </trkpt>
      <trkpt lat="42.4341570" lon="-8.6448550">
        <ele>9.2</ele>
        <time>2021-05-22T06:31:01Z</time>
      </trkpt>
      <trkpt lat="42.4341630" lon="-8.6448540">
        <ele>9.2</ele>
        <time>2021-05-22T06:31:02Z</time>
      </trkpt>
      <trkpt lat="42.4341800" lon="-8.6448640">
        <ele>9.2</ele>
        <time>2021-05-22T06:31:03Z</time>
      </trkpt>
      <trkpt lat="42.4342120" lon="-8.6448820">
        <ele>9.1</ele>
        <time>2021-05-22T06:31:04Z</time>
      </trkpt>
      <trkpt lat="42.4342240" lon="-8.6448920">
        <ele>9.1</ele>
        <time>2021-05-22T06:31:05Z</time>
      </trkpt>
      <trkpt lat="42.4342440" lon="-8.6449050">
        <ele>9.1</ele>
        <time>2021-05-22T06:31:06Z</time>
      </trkpt>
      <trkpt lat="42.4342560" lon="-8.6449130">
        <ele>9.1</ele>
        <time>2021-05-22T06:31:07Z</time>
      </trkpt>
      <trkpt lat="42.4342700" lon="-8.6449170">
        <ele>9.1</ele>
        <time>2021-05-22T06:31:08Z</time>
      </trkpt>
      <trkpt lat="42.4342870" lon="-8.6449310">
        <ele>9.1</ele>
        <time>2021-05-22T06:31:09Z</time>
      </trkpt>
      <trkpt lat="42.4342980" lon="-8.6449370">
        <ele>9.0</ele>
        <time>2021-05-22T06:31:10Z</time>
      </trkpt>
      <trkpt lat="42.4343100" lon="-8.6449390">
        <ele>9.0</ele>
        <time>2021-05-22T06:31:11Z</time>
      </trkpt>
      <trkpt lat="42.4343190" lon="-8.6449400">
        <ele>9.0</ele>
        <time>2021-05-22T06:31:12Z</time>
      </trkpt>
      <trkpt lat="42.4343230" lon="-8.6449440">
        <ele>9.0</ele>
        <time>2021-05-22T06:31:13Z</time>
      </trkpt>
      <trkpt lat="42.4343470" lon="-8.6449630">
        <ele>9.0</ele>
        <time>2021-05-22T06:31:14Z</time>
      </trkpt>
      <trkpt lat="42.4343670" lon="-8.6449850">
        <ele>9.0</ele>
        <time>2021-05-22T06:31:15Z</time>
      </trkpt>
      <trkpt lat="42.4343720" lon="-8.6449940">
        <ele>9.0</ele>
        <time>2021-05-22T06:31:16Z</time>
      </trkpt>
      <trkpt lat="42.4343890" lon="-8.6450070">
        <ele>9.0</ele>
        <time>2021-05-22T06:31:17Z</time>
      </trkpt>
      <trkpt lat="42.4343980" lon="-8.6450140">
        <ele>9.0</ele>
        <time>2021-05-22T06:31:18Z</time>
      </trkpt>
      <trkpt lat="42.4344060" lon="-8.6450210">
        <ele>9.0</ele>
        <time>2021-05-22T06:31:19Z</time>
      </trkpt>
      <trkpt lat="42.4344150" lon="-8.6450280">
        <ele>9.0</ele>
        <time>2021-05-22T06:31:20Z</time>
      </trkpt>
      <trkpt lat="42.4344350" lon="-8.6450480">
        <ele>8.9</ele>
        <time>2021-05-22T06:31:21Z</time>
      </trkpt>
      <trkpt lat="42.4344460" lon="-8.6450560">
        <ele>8.9</ele>
        <time>2021-05-22T06:31:22Z</time>
      </trkpt>
      <trkpt lat="42.4344560" lon="-8.6450630">
        <ele>8.9</ele>
        <time>2021-05-22T06:31:23Z</time>
      </trkpt>
      <trkpt lat="42.4344690" lon="-8.6450760">
        <ele>8.9</ele>
        <time>2021-05-22T06:31:24Z</time>
      </trkpt>
      <trkpt lat="42.4344850" lon="-8.6450760">
        <ele>8.9</ele>
        <time>2021-05-22T06:31:25Z</time>
      </trkpt>
      <trkpt lat="42.4345130" lon="-8.6450850">
        <ele>8.9</ele>
        <time>2021-05-22T06:31:26Z</time>
      </trkpt>
      <trkpt lat="42.4345070" lon="-8.6450970">
        <ele>8.9</ele>
        <time>2021-05-22T06:31:27Z</time>
      </trkpt>
      <trkpt lat="42.4345220" lon="-8.6451010">
        <ele>8.9</ele>
        <time>2021-05-22T06:31:28Z</time>
      </trkpt>
      <trkpt lat="42.4345320" lon="-8.6451170">
        <ele>8.9</ele>
        <time>2021-05-22T06:31:29Z</time>
      </trkpt>
      <trkpt lat="42.4345300" lon="-8.6451330">
        <ele>8.9</ele>
        <time>2021-05-22T06:31:30Z</time>
      </trkpt>
      <trkpt lat="42.4345290" lon="-8.6451640">
        <ele>8.8</ele>
        <time>2021-05-22T06:31:31Z</time>
      </trkpt>
      <trkpt lat="42.4345400" lon="-8.6451820">
        <ele>8.8</ele>
        <time>2021-05-22T06:31:32Z</time>
      </trkpt>
      <trkpt lat="42.4345410" lon="-8.6451990">
        <ele>8.8</ele>
        <time>2021-05-22T06:31:33Z</time>
      </trkpt>
      <trkpt lat="42.4345740" lon="-8.6451930">
        <ele>8.8</ele>
        <time>2021-05-22T06:31:34Z</time>
      </trkpt>
      <trkpt lat="42.4345870" lon="-8.6451900">
        <ele>8.8</ele>
        <time>2021-05-22T06:31:35Z</time>
      </trkpt>
      <trkpt lat="42.4346010" lon="-8.6451820">
        <ele>8.6</ele>
        <time>2021-05-22T06:31:36Z</time>
      </trkpt>
      <trkpt lat="42.4346180" lon="-8.6451670">
        <ele>8.6</ele>
        <time>2021-05-22T06:31:37Z</time>
      </trkpt>
      <trkpt lat="42.4346220" lon="-8.6451640">
        <ele>8.6</ele>
        <time>2021-05-22T06:31:38Z</time>
      </trkpt>
      <trkpt lat="42.4346290" lon="-8.6451540">
        <ele>8.6</ele>
        <time>2021-05-22T06:31:39Z</time>
      </trkpt>
      <trkpt lat="42.4346420" lon="-8.6451380">
        <ele>8.6</ele>
        <time>2021-05-22T06:31:40Z</time>
      </trkpt>
      <trkpt lat="42.4346320" lon="-8.6450900">
        <ele>8.5</ele>
        <time>2021-05-22T06:31:41Z</time>
      </trkpt>
      <trkpt lat="42.4346280" lon="-8.6450740">
        <ele>8.5</ele>
        <time>2021-05-22T06:31:42Z</time>
      </trkpt>
      <trkpt lat="42.4346600" lon="-8.6450610">
        <ele>8.5</ele>
        <time>2021-05-22T06:31:43Z</time>
      </trkpt>
      <trkpt lat="42.4346700" lon="-8.6450630">
        <ele>8.5</ele>
        <time>2021-05-22T06:31:44Z</time>
      </trkpt>
      <trkpt lat="42.4346780" lon="-8.6450420">
        <ele>8.4</ele>
        <time>2021-05-22T06:31:45Z</time>
      </trkpt>
      <trkpt lat="42.4346890" lon="-8.6450330">
        <ele>8.4</ele>
        <time>2021-05-22T06:31:46Z</time>
      </trkpt>
      <trkpt lat="42.4347220" lon="-8.6450280">
        <ele>8.4</ele>
        <time>2021-05-22T06:31:47Z</time>
      </trkpt>
      <trkpt lat="42.4347300" lon="-8.6450300">
        <ele>8.4</ele>
        <time>2021-05-22T06:31:48Z</time>
      </trkpt>
      <trkpt lat="42.4347280" lon="-8.6450090">
        <ele>8.4</ele>
        <time>2021-05-22T06:31:49Z</time>
      </trkpt>
      <trkpt lat="42.4347350" lon="-8.6450030">
        <ele>8.4</ele>
        <time>2021-05-22T06:31:50Z</time>
      </trkpt>
      <trkpt lat="42.4347400" lon="-8.6449940">
        <ele>8.3</ele>
        <time>2021-05-22T06:31:51Z</time>
      </trkpt>
      <trkpt lat="42.4347530" lon="-8.6449780">
        <ele>8.3</ele>
        <time>2021-05-22T06:31:52Z</time>
      </trkpt>
      <trkpt lat="42.4347660" lon="-8.6449780">
        <ele>8.3</ele>
        <time>2021-05-22T06:31:53Z</time>
      </trkpt>
      <trkpt lat="42.4347780" lon="-8.6449780">
        <ele>8.3</ele>
        <time>2021-05-22T06:31:54Z</time>
      </trkpt>
      <trkpt lat="42.4347740" lon="-8.6449540">
        <ele>8.3</ele>
        <time>2021-05-22T06:31:55Z</time>
      </trkpt>
      <trkpt lat="42.4347720" lon="-8.6449410">
        <ele>8.3</ele>
        <time>2021-05-22T06:31:56Z</time>
      </trkpt>
      <trkpt lat="42.4347710" lon="-8.6449290">
        <ele>8.3</ele>
        <time>2021-05-22T06:31:57Z</time>
      </trkpt>
      <trkpt lat="42.4347680" lon="-8.6448980">
        <ele>8.2</ele>
        <time>2021-05-22T06:31:58Z</time>
      </trkpt>
      <trkpt lat="42.4347680" lon="-8.6448820">
        <ele>8.2</ele>
        <time>2021-05-22T06:31:59Z</time>
      </trkpt>
      <trkpt lat="42.4347670" lon="-8.6448660">
        <ele>8.2</ele>
        <time>2021-05-22T06:32:00Z</time>
      </trkpt>
      <trkpt lat="42.4347980" lon="-8.6448720">
        <ele>8.2</ele>
        <time>2021-05-22T06:32:01Z</time>
      </trkpt>
      <trkpt lat="42.4348090" lon="-8.6448660">
        <ele>8.2</ele>
        <time>2021-05-22T06:32:02Z</time>
      </trkpt>
      <trkpt lat="42.4348100" lon="-8.6448610">
        <ele>8.2</ele>
        <time>2021-05-22T06:32:03Z</time>
      </trkpt>
      <trkpt lat="42.4348120" lon="-8.6448550">
        <ele>8.2</ele>
        <time>2021-05-22T06:32:04Z</time>
      </trkpt>
      <trkpt lat="42.4348130" lon="-8.6448500">
        <ele>8.2</ele>
        <time>2021-05-22T06:32:05Z</time>
      </trkpt>
      <trkpt lat="42.4348140" lon="-8.6448450">
        <ele>8.2</ele>
        <time>2021-05-22T06:32:06Z</time>
      </trkpt>
      <trkpt lat="42.4348150" lon="-8.6448400">
        <ele>8.2</ele>
        <time>2021-05-22T06:32:07Z</time>
      </trkpt>
      <trkpt lat="42.4348160" lon="-8.6448350">
        <ele>8.2</ele>
        <time>2021-05-22T06:32:08Z</time>
      </trkpt>
      <trkpt lat="42.4348170" lon="-8.6448300">
        <ele>8.2</ele>
        <time>2021-05-22T06:32:09Z</time>
      </trkpt>
      <trkpt lat="42.4348190" lon="-8.6448240">
        <ele>8.2</ele>
        <time>2021-05-22T06:32:10Z</time>
      </trkpt>
      <trkpt lat="42.4348200" lon="-8.6448190">
        <ele>8.2</ele>
        <time>2021-05-22T06:32:11Z</time>
      </trkpt>
      <trkpt lat="42.4348210" lon="-8.6448140">
        <ele>8.2</ele>
        <time>2021-05-22T06:32:12Z</time>
      </trkpt>
      <trkpt lat="42.4348270" lon="-8.6448060">
        <ele>8.2</ele>
        <time>2021-05-22T06:32:13Z</time>
      </trkpt>
      <trkpt lat="42.4348400" lon="-8.6447920">
        <ele>8.2</ele>
        <time>2021-05-22T06:32:14Z</time>
      </trkpt>
      <trkpt lat="42.4348390" lon="-8.6447820">
        <ele>8.2</ele>
        <time>2021-05-22T06:32:15Z</time>
      </trkpt>
      <trkpt lat="42.4348380" lon="-8.6447700">
        <ele>8.2</ele>
        <time>2021-05-22T06:32:16Z</time>
      </trkpt>
      <trkpt lat="42.4348360" lon="-8.6447690">
        <ele>8.2</ele>
        <time>2021-05-22T06:32:17Z</time>
      </trkpt>
      <trkpt lat="42.4348340" lon="-8.6447670">
        <ele>8.1</ele>
        <time>2021-05-22T06:32:18Z</time>
      </trkpt>
      <trkpt lat="42.4348430" lon="-8.6447610">
        <ele>8.1</ele>
        <time>2021-05-22T06:32:19Z</time>
      </trkpt>
      <trkpt lat="42.4348460" lon="-8.6447580">
        <ele>8.1</ele>
        <time>2021-05-22T06:32:20Z</time>
      </trkpt>
      <trkpt lat="42.4348470" lon="-8.6447650">
        <ele>8.1</ele>
        <time>2021-05-22T06:32:21Z</time>
      </trkpt>
      <trkpt lat="42.4348460" lon="-8.6447670">
        <ele>8.1</ele>
        <time>2021-05-22T06:32:22Z</time>
      </trkpt>
      <trkpt lat="42.4348430" lon="-8.6447660">
        <ele>8.1</ele>
        <time>2021-05-22T06:32:23Z</time>
      </trkpt>
      <trkpt lat="42.4348420" lon="-8.6447630">
        <ele>8.1</ele>
        <time>2021-05-22T06:32:24Z</time>
      </trkpt>
      <trkpt lat="42.4348430" lon="-8.6447710">
        <ele>8.1</ele>
        <time>2021-05-22T06:32:25Z</time>
      </trkpt>
      <trkpt lat="42.4348430" lon="-8.6447670">
        <ele>8.1</ele>
        <time>2021-05-22T06:32:26Z</time>
      </trkpt>
      <trkpt lat="42.4348420" lon="-8.6447670">
        <ele>8.1</ele>
        <time>2021-05-22T06:32:27Z</time>
      </trkpt>
      <trkpt lat="42.4348370" lon="-8.6447670">
        <ele>8.1</ele>
        <time>2021-05-22T06:32:28Z</time>
      </trkpt>
      <trkpt lat="42.4348260" lon="-8.6447610">
        <ele>8.1</ele>
        <time>2021-05-22T06:32:29Z</time>
      </trkpt>
      <trkpt lat="42.4348260" lon="-8.6447610">
        <ele>8.1</ele>
        <time>2021-05-22T06:32:30Z</time>
      </trkpt>
      <trkpt lat="42.4348380" lon="-8.6447540">
        <ele>8.1</ele>
        <time>2021-05-22T06:32:31Z</time>
      </trkpt>
      <trkpt lat="42.4348430" lon="-8.6447480">
        <ele>8.1</ele>
        <time>2021-05-22T06:32:32Z</time>
      </trkpt>
      <trkpt lat="42.4348440" lon="-8.6447450">
        <ele>8.1</ele>
        <time>2021-05-22T06:32:33Z</time>
      </trkpt>
      <trkpt lat="42.4348590" lon="-8.6447370">
        <ele>8.1</ele>
        <time>2021-05-22T06:32:34Z</time>
      </trkpt>
      <trkpt lat="42.4348710" lon="-8.6447310">
        <ele>8.1</ele>
        <time>2021-05-22T06:32:35Z</time>
      </trkpt>
      <trkpt lat="42.4348760" lon="-8.6447200">
        <ele>8.1</ele>
        <time>2021-05-22T06:32:36Z</time>
      </trkpt>
      <trkpt lat="42.4348860" lon="-8.6447140">
        <ele>8.1</ele>
        <time>2021-05-22T06:32:37Z</time>
      </trkpt>
      <trkpt lat="42.4348970" lon="-8.6447110">
        <ele>8.1</ele>
        <time>2021-05-22T06:32:38Z</time>
      </trkpt>
      <trkpt lat="42.4349180" lon="-8.6447020">
        <ele>8.2</ele>
        <time>2021-05-22T06:32:39Z</time>
      </trkpt>
      <trkpt lat="42.4349270" lon="-8.6447000">
        <ele>8.2</ele>
        <time>2021-05-22T06:32:40Z</time>
      </trkpt>
      <trkpt lat="42.4349350" lon="-8.6446970">
        <ele>8.2</ele>
        <time>2021-05-22T06:32:41Z</time>
      </trkpt>
      <trkpt lat="42.4349520" lon="-8.6446930">
        <ele>8.2</ele>
        <time>2021-05-22T06:32:42Z</time>
      </trkpt>
      <trkpt lat="42.4349670" lon="-8.6446940">
        <ele>8.2</ele>
        <time>2021-05-22T06:32:43Z</time>
      </trkpt>
      <trkpt lat="42.4349720" lon="-8.6446950">
        <ele>8.2</ele>
        <time>2021-05-22T06:32:44Z</time>
      </trkpt>
      <trkpt lat="42.4349720" lon="-8.6446930">
        <ele>8.2</ele>
        <time>2021-05-22T06:32:45Z</time>
      </trkpt>
      <trkpt lat="42.4349810" lon="-8.6446890">
        <ele>8.2</ele>
        <time>2021-05-22T06:32:46Z</time>
      </trkpt>
      <trkpt lat="42.4349930" lon="-8.6446790">
        <ele>8.2</ele>
        <time>2021-05-22T06:32:47Z</time>
      </trkpt>
      <trkpt lat="42.4350200" lon="-8.6446620">
        <ele>8.2</ele>
        <time>2021-05-22T06:32:48Z</time>
      </trkpt>
      <trkpt lat="42.4350270" lon="-8.6446560">
        <ele>8.2</ele>
        <time>2021-05-22T06:32:49Z</time>
      </trkpt>
      <trkpt lat="42.4350260" lon="-8.6446520">
        <ele>8.2</ele>
        <time>2021-05-22T06:32:50Z</time>
      </trkpt>
      <trkpt lat="42.4350340" lon="-8.6446450">
        <ele>8.2</ele>
        <time>2021-05-22T06:32:51Z</time>
      </trkpt>
      <trkpt lat="42.4350400" lon="-8.6446310">
        <ele>8.2</ele>
        <time>2021-05-22T06:32:52Z</time>
      </trkpt>
      <trkpt lat="42.4350510" lon="-8.6446260">
        <ele>8.2</ele>
        <time>2021-05-22T06:32:53Z</time>
      </trkpt>
      <trkpt lat="42.4350630" lon="-8.6446150">
        <ele>8.3</ele>
        <time>2021-05-22T06:32:54Z</time>
      </trkpt>
      <trkpt lat="42.4350710" lon="-8.6446140">
        <ele>9.3</ele>
        <time>2021-05-22T06:32:55Z</time>
      </trkpt>
      <trkpt lat="42.4350810" lon="-8.6446040">
        <ele>9.3</ele>
        <time>2021-05-22T06:32:56Z</time>
      </trkpt>
      <trkpt lat="42.4350930" lon="-8.6445970">
        <ele>9.3</ele>
        <time>2021-05-22T06:32:57Z</time>
      </trkpt>
      <trkpt lat="42.4351040" lon="-8.6445880">
        <ele>9.3</ele>
        <time>2021-05-22T06:32:58Z</time>
      </trkpt>
      <trkpt lat="42.4351080" lon="-8.6445770">
        <ele>9.3</ele>
        <time>2021-05-22T06:32:59Z</time>
      </trkpt>
      <trkpt lat="42.4351220" lon="-8.6445680">
        <ele>9.3</ele>
        <time>2021-05-22T06:33:00Z</time>
      </trkpt>
      <trkpt lat="42.4351310" lon="-8.6445570">
        <ele>9.3</ele>
        <time>2021-05-22T06:33:01Z</time>
      </trkpt>
      <trkpt lat="42.4351430" lon="-8.6445440">
        <ele>9.3</ele>
        <time>2021-05-22T06:33:02Z</time>
      </trkpt>
      <trkpt lat="42.4351600" lon="-8.6445380">
        <ele>9.4</ele>
        <time>2021-05-22T06:33:03Z</time>
      </trkpt>
      <trkpt lat="42.4351790" lon="-8.6445280">
        <ele>9.4</ele>
        <time>2021-05-22T06:33:04Z</time>
      </trkpt>
      <trkpt lat="42.4351870" lon="-8.6445230">
        <ele>9.4</ele>
        <time>2021-05-22T06:33:05Z</time>
      </trkpt>
      <trkpt lat="42.4351940" lon="-8.6445190">
        <ele>9.4</ele>
        <time>2021-05-22T06:33:06Z</time>
      </trkpt>
      <trkpt lat="42.4352090" lon="-8.6445060">
        <ele>9.5</ele>
        <time>2021-05-22T06:33:07Z</time>
      </trkpt>
      <trkpt lat="42.4352190" lon="-8.6444970">
        <ele>9.5</ele>
        <time>2021-05-22T06:33:08Z</time>
      </trkpt>
      <trkpt lat="42.4352300" lon="-8.6444860">
        <ele>9.5</ele>
        <time>2021-05-22T06:33:09Z</time>
      </trkpt>
      <trkpt lat="42.4352420" lon="-8.6444740">
        <ele>9.5</ele>
        <time>2021-05-22T06:33:10Z</time>
      </trkpt>
      <trkpt lat="42.4352560" lon="-8.6444620">
        <ele>9.5</ele>
        <time>2021-05-22T06:33:11Z</time>
      </trkpt>
      <trkpt lat="42.4352650" lon="-8.6444500">
        <ele>9.5</ele>
        <time>2021-05-22T06:33:12Z</time>
      </trkpt>
      <trkpt lat="42.4352800" lon="-8.6444310">
        <ele>9.5</ele>
        <time>2021-05-22T06:33:13Z</time>
      </trkpt>
      <trkpt lat="42.4352870" lon="-8.6444250">
        <ele>9.5</ele>
        <time>2021-05-22T06:33:14Z</time>
      </trkpt>
      <trkpt lat="42.4352930" lon="-8.6444190">
        <ele>9.5</ele>
        <time>2021-05-22T06:33:15Z</time>
      </trkpt>
      <trkpt lat="42.4352990" lon="-8.6444070">
        <ele>9.5</ele>
        <time>2021-05-22T06:33:16Z</time>
      </trkpt>
      <trkpt lat="42.4353070" lon="-8.6443990">
        <ele>9.5</ele>
        <time>2021-05-22T06:33:17Z</time>
      </trkpt>
      <trkpt lat="42.4353170" lon="-8.6443930">
        <ele>9.5</ele>
        <time>2021-05-22T06:33:18Z</time>
      </trkpt>
      <trkpt lat="42.4353340" lon="-8.6443850">
        <ele>9.5</ele>
        <time>2021-05-22T06:33:19Z</time>
      </trkpt>
      <trkpt lat="42.4353440" lon="-8.6443780">
        <ele>9.5</ele>
        <time>2021-05-22T06:33:20Z</time>
      </trkpt>
      <trkpt lat="42.4353590" lon="-8.6443610">
        <ele>9.5</ele>
        <time>2021-05-22T06:33:21Z</time>
      </trkpt>
      <trkpt lat="42.4353660" lon="-8.6443520">
        <ele>9.6</ele>
        <time>2021-05-22T06:33:22Z</time>
      </trkpt>
      <trkpt lat="42.4353740" lon="-8.6443440">
        <ele>9.6</ele>
        <time>2021-05-22T06:33:23Z</time>
      </trkpt>
      <trkpt lat="42.4353900" lon="-8.6443230">
        <ele>9.6</ele>
        <time>2021-05-22T06:33:24Z</time>
      </trkpt>
      <trkpt lat="42.4353960" lon="-8.6443130">
        <ele>9.6</ele>
        <time>2021-05-22T06:33:25Z</time>
      </trkpt>
      <trkpt lat="42.4354030" lon="-8.6443030">
        <ele>9.6</ele>
        <time>2021-05-22T06:33:26Z</time>
      </trkpt>
      <trkpt lat="42.4354130" lon="-8.6442960">
        <ele>9.6</ele>
        <time>2021-05-22T06:33:27Z</time>
      </trkpt>
      <trkpt lat="42.4354220" lon="-8.6442860">
        <ele>9.6</ele>
        <time>2021-05-22T06:33:28Z</time>
      </trkpt>
      <trkpt lat="42.4354320" lon="-8.6442790">
        <ele>9.6</ele>
        <time>2021-05-22T06:33:29Z</time>
      </trkpt>
      <trkpt lat="42.4354430" lon="-8.6442650">
        <ele>9.6</ele>
        <time>2021-05-22T06:33:30Z</time>
      </trkpt>
      <trkpt lat="42.4354610" lon="-8.6442550">
        <ele>9.6</ele>
        <time>2021-05-22T06:33:31Z</time>
      </trkpt>
      <trkpt lat="42.4354720" lon="-8.6442420">
        <ele>9.6</ele>
        <time>2021-05-22T06:33:32Z</time>
      </trkpt>
      <trkpt lat="42.4354870" lon="-8.6442350">
        <ele>9.6</ele>
        <time>2021-05-22T06:33:33Z</time>
      </trkpt>
      <trkpt lat="42.4354940" lon="-8.6442220">
        <ele>9.6</ele>
        <time>2021-05-22T06:33:34Z</time>
      </trkpt>
      <trkpt lat="42.4355020" lon="-8.6442090">
        <ele>9.6</ele>
        <time>2021-05-22T06:33:35Z</time>
      </trkpt>
      <trkpt lat="42.4355100" lon="-8.6442000">
        <ele>9.6</ele>
        <time>2021-05-22T06:33:36Z</time>
      </trkpt>
      <trkpt lat="42.4355220" lon="-8.6441900">
        <ele>9.6</ele>
        <time>2021-05-22T06:33:37Z</time>
      </trkpt>
      <trkpt lat="42.4355350" lon="-8.6441810">
        <ele>9.6</ele>
        <time>2021-05-22T06:33:38Z</time>
      </trkpt>
      <trkpt lat="42.4355480" lon="-8.6441760">
        <ele>9.6</ele>
        <time>2021-05-22T06:33:39Z</time>
      </trkpt>
      <trkpt lat="42.4355510" lon="-8.6441610">
        <ele>9.6</ele>
        <time>2021-05-22T06:33:40Z</time>
      </trkpt>
      <trkpt lat="42.4355610" lon="-8.6441530">
        <ele>9.6</ele>
        <time>2021-05-22T06:33:41Z</time>
      </trkpt>
      <trkpt lat="42.4355800" lon="-8.6441370">
        <ele>9.6</ele>
        <time>2021-05-22T06:33:42Z</time>
      </trkpt>
      <trkpt lat="42.4355860" lon="-8.6441270">
        <ele>9.6</ele>
        <time>2021-05-22T06:33:43Z</time>
      </trkpt>
      <trkpt lat="42.4356020" lon="-8.6441230">
        <ele>9.6</ele>
        <time>2021-05-22T06:33:44Z</time>
      </trkpt>
      <trkpt lat="42.4356110" lon="-8.6441120">
        <ele>9.6</ele>
        <time>2021-05-22T06:33:45Z</time>
      </trkpt>
      <trkpt lat="42.4356280" lon="-8.6441010">
        <ele>9.6</ele>
        <time>2021-05-22T06:33:46Z</time>
      </trkpt>
      <trkpt lat="42.4356360" lon="-8.6440910">
        <ele>9.6</ele>
        <time>2021-05-22T06:33:47Z</time>
      </trkpt>
      <trkpt lat="42.4356540" lon="-8.6440760">
        <ele>9.5</ele>
        <time>2021-05-22T06:33:48Z</time>
      </trkpt>
      <trkpt lat="42.4356620" lon="-8.6440670">
        <ele>9.5</ele>
        <time>2021-05-22T06:33:49Z</time>
      </trkpt>
      <trkpt lat="42.4356700" lon="-8.6440590">
        <ele>9.5</ele>
        <time>2021-05-22T06:33:50Z</time>
      </trkpt>
      <trkpt lat="42.4356850" lon="-8.6440390">
        <ele>9.5</ele>
        <time>2021-05-22T06:33:51Z</time>
      </trkpt>
      <trkpt lat="42.4356940" lon="-8.6440340">
        <ele>9.5</ele>
        <time>2021-05-22T06:33:52Z</time>
      </trkpt>
      <trkpt lat="42.4357020" lon="-8.6440290">
        <ele>9.5</ele>
        <time>2021-05-22T06:33:53Z</time>
      </trkpt>
      <trkpt lat="42.4357130" lon="-8.6440190">
        <ele>9.5</ele>
        <time>2021-05-22T06:33:54Z</time>
      </trkpt>
      <trkpt lat="42.4357180" lon="-8.6440110">
        <ele>9.4</ele>
        <time>2021-05-22T06:33:55Z</time>
      </trkpt>
      <trkpt lat="42.4357310" lon="-8.6440000">
        <ele>9.4</ele>
        <time>2021-05-22T06:33:56Z</time>
      </trkpt>
      <trkpt lat="42.4357420" lon="-8.6439870">
        <ele>9.4</ele>
        <time>2021-05-22T06:33:57Z</time>
      </trkpt>
      <trkpt lat="42.4357520" lon="-8.6439760">
        <ele>9.4</ele>
        <time>2021-05-22T06:33:58Z</time>
      </trkpt>
      <trkpt lat="42.4357660" lon="-8.6439640">
        <ele>9.4</ele>
        <time>2021-05-22T06:33:59Z</time>
      </trkpt>
      <trkpt lat="42.4357790" lon="-8.6439540">
        <ele>9.4</ele>
        <time>2021-05-22T06:34:00Z</time>
      </trkpt>
      <trkpt lat="42.4357970" lon="-8.6439340">
        <ele>9.3</ele>
        <time>2021-05-22T06:34:01Z</time>
      </trkpt>
      <trkpt lat="42.4358070" lon="-8.6439270">
        <ele>9.3</ele>
        <time>2021-05-22T06:34:02Z</time>
      </trkpt>
      <trkpt lat="42.4358160" lon="-8.6439210">
        <ele>9.3</ele>
        <time>2021-05-22T06:34:03Z</time>
      </trkpt>
      <trkpt lat="42.4358380" lon="-8.6439040">
        <ele>9.3</ele>
        <time>2021-05-22T06:34:04Z</time>
      </trkpt>
      <trkpt lat="42.4358450" lon="-8.6438990">
        <ele>9.3</ele>
        <time>2021-05-22T06:34:05Z</time>
      </trkpt>
      <trkpt lat="42.4358520" lon="-8.6438930">
        <ele>9.2</ele>
        <time>2021-05-22T06:34:06Z</time>
      </trkpt>
      <trkpt lat="42.4358630" lon="-8.6438790">
        <ele>9.2</ele>
        <time>2021-05-22T06:34:07Z</time>
      </trkpt>
      <trkpt lat="42.4358710" lon="-8.6438650">
        <ele>9.2</ele>
        <time>2021-05-22T06:34:08Z</time>
      </trkpt>
      <trkpt lat="42.4358860" lon="-8.6438490">
        <ele>9.2</ele>
        <time>2021-05-22T06:34:09Z</time>
      </trkpt>
      <trkpt lat="42.4358930" lon="-8.6438410">
        <ele>9.2</ele>
        <time>2021-05-22T06:34:10Z</time>
      </trkpt>
      <trkpt lat="42.4359000" lon="-8.6438320">
        <ele>9.2</ele>
        <time>2021-05-22T06:34:11Z</time>
      </trkpt>
      <trkpt lat="42.4359200" lon="-8.6438170">
        <ele>9.1</ele>
        <time>2021-05-22T06:34:12Z</time>
      </trkpt>
      <trkpt lat="42.4359290" lon="-8.6438100">
        <ele>9.1</ele>
        <time>2021-05-22T06:34:13Z</time>
      </trkpt>
      <trkpt lat="42.4359380" lon="-8.6438040">
        <ele>9.1</ele>
        <time>2021-05-22T06:34:14Z</time>
      </trkpt>
      <trkpt lat="42.4359510" lon="-8.6437920">
        <ele>9.1</ele>
        <time>2021-05-22T06:34:15Z</time>
      </trkpt>
      <trkpt lat="42.4359620" lon="-8.6437790">
        <ele>9.1</ele>
        <time>2021-05-22T06:34:16Z</time>
      </trkpt>
      <trkpt lat="42.4359740" lon="-8.6437670">
        <ele>9.0</ele>
        <time>2021-05-22T06:34:17Z</time>
      </trkpt>
      <trkpt lat="42.4359800" lon="-8.6437640">
        <ele>9.0</ele>
        <time>2021-05-22T06:34:18Z</time>
      </trkpt>
      <trkpt lat="42.4359900" lon="-8.6437540">
        <ele>9.0</ele>
        <time>2021-05-22T06:34:19Z</time>
      </trkpt>
      <trkpt lat="42.4360000" lon="-8.6437440">
        <ele>9.0</ele>
        <time>2021-05-22T06:34:20Z</time>
      </trkpt>
      <trkpt lat="42.4360150" lon="-8.6437300">
        <ele>9.0</ele>
        <time>2021-05-22T06:34:21Z</time>
      </trkpt>
      <trkpt lat="42.4360400" lon="-8.6437140">
        <ele>8.9</ele>
        <time>2021-05-22T06:34:22Z</time>
      </trkpt>
      <trkpt lat="42.4360480" lon="-8.6437070">
        <ele>8.9</ele>
        <time>2021-05-22T06:34:23Z</time>
      </trkpt>
      <trkpt lat="42.4360560" lon="-8.6437050">
        <ele>8.9</ele>
        <time>2021-05-22T06:34:24Z</time>
      </trkpt>
      <trkpt lat="42.4360700" lon="-8.6436950">
        <ele>8.8</ele>
        <time>2021-05-22T06:34:25Z</time>
      </trkpt>
      <trkpt lat="42.4360820" lon="-8.6436890">
        <ele>8.8</ele>
        <time>2021-05-22T06:34:26Z</time>
      </trkpt>
      <trkpt lat="42.4360960" lon="-8.6436760">
        <ele>8.8</ele>
        <time>2021-05-22T06:34:27Z</time>
      </trkpt>
      <trkpt lat="42.4361040" lon="-8.6436660">
        <ele>8.7</ele>
        <time>2021-05-22T06:34:28Z</time>
      </trkpt>
      <trkpt lat="42.4361150" lon="-8.6436610">
        <ele>8.7</ele>
        <time>2021-05-22T06:34:29Z</time>
      </trkpt>
      <trkpt lat="42.4361230" lon="-8.6436450">
        <ele>8.7</ele>
        <time>2021-05-22T06:34:30Z</time>
      </trkpt>
      <trkpt lat="42.4361270" lon="-8.6436350">
        <ele>8.7</ele>
        <time>2021-05-22T06:34:31Z</time>
      </trkpt>
      <trkpt lat="42.4361280" lon="-8.6436400">
        <ele>8.7</ele>
        <time>2021-05-22T06:34:32Z</time>
      </trkpt>
      <trkpt lat="42.4361320" lon="-8.6436340">
        <ele>8.7</ele>
        <time>2021-05-22T06:34:33Z</time>
      </trkpt>
      <trkpt lat="42.4361390" lon="-8.6436280">
        <ele>8.5</ele>
        <time>2021-05-22T06:34:34Z</time>
      </trkpt>
      <trkpt lat="42.4361360" lon="-8.6436230">
        <ele>8.5</ele>
        <time>2021-05-22T06:34:35Z</time>
      </trkpt>
      <trkpt lat="42.4361320" lon="-8.6436190">
        <ele>8.4</ele>
        <time>2021-05-22T06:34:36Z</time>
      </trkpt>
      <trkpt lat="42.4361460" lon="-8.6436100">
        <ele>8.3</ele>
        <time>2021-05-22T06:34:37Z</time>
      </trkpt>
      <trkpt lat="42.4361570" lon="-8.6436110">
        <ele>8.2</ele>
        <time>2021-05-22T06:34:38Z</time>
      </trkpt>
      <trkpt lat="42.4361640" lon="-8.6436030">
        <ele>8.2</ele>
        <time>2021-05-22T06:34:39Z</time>
      </trkpt>
      <trkpt lat="42.4361750" lon="-8.6435950">
        <ele>8.1</ele>
        <time>2021-05-22T06:34:40Z</time>
      </trkpt>
      <trkpt lat="42.4361780" lon="-8.6435920">
        <ele>8.1</ele>
        <time>2021-05-22T06:34:41Z</time>
      </trkpt>
      <trkpt lat="42.4361700" lon="-8.6435910">
        <ele>8.1</ele>
        <time>2021-05-22T06:34:42Z</time>
      </trkpt>
      <trkpt lat="42.4361680" lon="-8.6435930">
        <ele>8.1</ele>
        <time>2021-05-22T06:34:43Z</time>
      </trkpt>
      <trkpt lat="42.4361660" lon="-8.6435960">
        <ele>8.0</ele>
        <time>2021-05-22T06:34:44Z</time>
      </trkpt>
      <trkpt lat="42.4361660" lon="-8.6435960">
        <ele>8.0</ele>
        <time>2021-05-22T06:34:45Z</time>
      </trkpt>
      <trkpt lat="42.4361640" lon="-8.6436010">
        <ele>8.0</ele>
        <time>2021-05-22T06:34:46Z</time>
      </trkpt>
      <trkpt lat="42.4361640" lon="-8.6436010">
        <ele>8.0</ele>
        <time>2021-05-22T06:34:47Z</time>
      </trkpt>
      <trkpt lat="42.4361640" lon="-8.6436000">
        <ele>8.0</ele>
        <time>2021-05-22T06:34:48Z</time>
      </trkpt>
      <trkpt lat="42.4361600" lon="-8.6435980">
        <ele>8.0</ele>
        <time>2021-05-22T06:34:49Z</time>
      </trkpt>
      <trkpt lat="42.4361620" lon="-8.6435980">
        <ele>8.0</ele>
        <time>2021-05-22T06:34:50Z</time>
      </trkpt>
      <trkpt lat="42.4361650" lon="-8.6435990">
        <ele>8.0</ele>
        <time>2021-05-22T06:34:51Z</time>
      </trkpt>
      <trkpt lat="42.4361670" lon="-8.6435970">
        <ele>8.0</ele>
        <time>2021-05-22T06:34:52Z</time>
      </trkpt>
      <trkpt lat="42.4361690" lon="-8.6435920">
        <ele>7.9</ele>
        <time>2021-05-22T06:34:53Z</time>
      </trkpt>
      <trkpt lat="42.4361820" lon="-8.6435850">
        <ele>7.9</ele>
        <time>2021-05-22T06:34:54Z</time>
      </trkpt>
      <trkpt lat="42.4361760" lon="-8.6435870">
        <ele>7.8</ele>
        <time>2021-05-22T06:34:55Z</time>
      </trkpt>
      <trkpt lat="42.4361740" lon="-8.6435820">
        <ele>7.8</ele>
        <time>2021-05-22T06:34:56Z</time>
      </trkpt>
      <trkpt lat="42.4361740" lon="-8.6435800">
        <ele>7.8</ele>
        <time>2021-05-22T06:34:57Z</time>
      </trkpt>
      <trkpt lat="42.4361850" lon="-8.6435710">
        <ele>7.8</ele>
        <time>2021-05-22T06:34:58Z</time>
      </trkpt>
      <trkpt lat="42.4361930" lon="-8.6435630">
        <ele>7.8</ele>
        <time>2021-05-22T06:34:59Z</time>
      </trkpt>
      <trkpt lat="42.4361980" lon="-8.6435630">
        <ele>7.8</ele>
        <time>2021-05-22T06:35:00Z</time>
      </trkpt>
      <trkpt lat="42.4362090" lon="-8.6435580">
        <ele>7.8</ele>
        <time>2021-05-22T06:35:01Z</time>
      </trkpt>
      <trkpt lat="42.4362280" lon="-8.6435490">
        <ele>7.7</ele>
        <time>2021-05-22T06:35:02Z</time>
      </trkpt>
      <trkpt lat="42.4362360" lon="-8.6435430">
        <ele>7.7</ele>
        <time>2021-05-22T06:35:03Z</time>
      </trkpt>
      <trkpt lat="42.4362440" lon="-8.6435380">
        <ele>7.7</ele>
        <time>2021-05-22T06:35:04Z</time>
      </trkpt>
      <trkpt lat="42.4362620" lon="-8.6435230">
        <ele>7.7</ele>
        <time>2021-05-22T06:35:05Z</time>
      </trkpt>
      <trkpt lat="42.4362680" lon="-8.6435150">
        <ele>7.7</ele>
        <time>2021-05-22T06:35:06Z</time>
      </trkpt>
      <trkpt lat="42.4362750" lon="-8.6435080">
        <ele>7.7</ele>
        <time>2021-05-22T06:35:07Z</time>
      </trkpt>
      <trkpt lat="42.4362850" lon="-8.6435020">
        <ele>7.7</ele>
        <time>2021-05-22T06:35:08Z</time>
      </trkpt>
      <trkpt lat="42.4363060" lon="-8.6434890">
        <ele>7.7</ele>
        <time>2021-05-22T06:35:09Z</time>
      </trkpt>
      <trkpt lat="42.4363250" lon="-8.6434810">
        <ele>7.7</ele>
        <time>2021-05-22T06:35:10Z</time>
      </trkpt>
      <trkpt lat="42.4363330" lon="-8.6434800">
        <ele>7.7</ele>
        <time>2021-05-22T06:35:11Z</time>
      </trkpt>
      <trkpt lat="42.4363420" lon="-8.6434780">
        <ele>7.7</ele>
        <time>2021-05-22T06:35:12Z</time>
      </trkpt>
      <trkpt lat="42.4363570" lon="-8.6434770">
        <ele>7.7</ele>
        <time>2021-05-22T06:35:13Z</time>
      </trkpt>
      <trkpt lat="42.4363650" lon="-8.6434770">
        <ele>7.7</ele>
        <time>2021-05-22T06:35:14Z</time>
      </trkpt>
      <trkpt lat="42.4363750" lon="-8.6434760">
        <ele>7.7</ele>
        <time>2021-05-22T06:35:15Z</time>
      </trkpt>
      <trkpt lat="42.4363940" lon="-8.6434750">
        <ele>7.7</ele>
        <time>2021-05-22T06:35:16Z</time>
      </trkpt>
      <trkpt lat="42.4364040" lon="-8.6434720">
        <ele>7.7</ele>
        <time>2021-05-22T06:35:17Z</time>
      </trkpt>
      <trkpt lat="42.4364140" lon="-8.6434700">
        <ele>7.7</ele>
        <time>2021-05-22T06:35:18Z</time>
      </trkpt>
      <trkpt lat="42.4364260" lon="-8.6434670">
        <ele>7.7</ele>
        <time>2021-05-22T06:35:19Z</time>
      </trkpt>
      <trkpt lat="42.4364420" lon="-8.6434660">
        <ele>7.7</ele>
        <time>2021-05-22T06:35:20Z</time>
      </trkpt>
      <trkpt lat="42.4364540" lon="-8.6434630">
        <ele>7.7</ele>
        <time>2021-05-22T06:35:21Z</time>
      </trkpt>
      <trkpt lat="42.4364650" lon="-8.6434580">
        <ele>7.7</ele>
        <time>2021-05-22T06:35:22Z</time>
      </trkpt>
      <trkpt lat="42.4364700" lon="-8.6434550">
        <ele>7.7</ele>
        <time>2021-05-22T06:35:23Z</time>
      </trkpt>
      <trkpt lat="42.4364810" lon="-8.6434590">
        <ele>7.7</ele>
        <time>2021-05-22T06:35:24Z</time>
      </trkpt>
      <trkpt lat="42.4364900" lon="-8.6434610">
        <ele>7.7</ele>
        <time>2021-05-22T06:35:25Z</time>
      </trkpt>
      <trkpt lat="42.4364940" lon="-8.6434590">
        <ele>7.7</ele>
        <time>2021-05-22T06:35:26Z</time>
      </trkpt>
      <trkpt lat="42.4364950" lon="-8.6434620">
        <ele>7.7</ele>
        <time>2021-05-22T06:35:27Z</time>
      </trkpt>
      <trkpt lat="42.4365050" lon="-8.6434620">
        <ele>7.7</ele>
        <time>2021-05-22T06:35:28Z</time>
      </trkpt>
      <trkpt lat="42.4365170" lon="-8.6434570">
        <ele>7.7</ele>
        <time>2021-05-22T06:35:29Z</time>
      </trkpt>
      <trkpt lat="42.4365250" lon="-8.6434530">
        <ele>7.7</ele>
        <time>2021-05-22T06:35:30Z</time>
      </trkpt>
      <trkpt lat="42.4365340" lon="-8.6434500">
        <ele>7.7</ele>
        <time>2021-05-22T06:35:31Z</time>
      </trkpt>
      <trkpt lat="42.4365420" lon="-8.6434460">
        <ele>7.7</ele>
        <time>2021-05-22T06:35:32Z</time>
      </trkpt>
      <trkpt lat="42.4365620" lon="-8.6434350">
        <ele>7.7</ele>
        <time>2021-05-22T06:35:33Z</time>
      </trkpt>
      <trkpt lat="42.4365720" lon="-8.6434260">
        <ele>7.7</ele>
        <time>2021-05-22T06:35:34Z</time>
      </trkpt>
      <trkpt lat="42.4365820" lon="-8.6434120">
        <ele>7.7</ele>
        <time>2021-05-22T06:35:35Z</time>
      </trkpt>
      <trkpt lat="42.4365880" lon="-8.6434010">
        <ele>7.7</ele>
        <time>2021-05-22T06:35:36Z</time>
      </trkpt>
      <trkpt lat="42.4365930" lon="-8.6433900">
        <ele>7.7</ele>
        <time>2021-05-22T06:35:37Z</time>
      </trkpt>
      <trkpt lat="42.4365980" lon="-8.6433790">
        <ele>7.7</ele>
        <time>2021-05-22T06:35:38Z</time>
      </trkpt>
      <trkpt lat="42.4366100" lon="-8.6433720">
        <ele>7.8</ele>
        <time>2021-05-22T06:35:39Z</time>
      </trkpt>
      <trkpt lat="42.4366170" lon="-8.6433660">
        <ele>7.8</ele>
        <time>2021-05-22T06:35:40Z</time>
      </trkpt>
      <trkpt lat="42.4366230" lon="-8.6433560">
        <ele>7.8</ele>
        <time>2021-05-22T06:35:41Z</time>
      </trkpt>
      <trkpt lat="42.4366260" lon="-8.6433450">
        <ele>7.8</ele>
        <time>2021-05-22T06:35:42Z</time>
      </trkpt>
      <trkpt lat="42.4366230" lon="-8.6433280">
        <ele>7.8</ele>
        <time>2021-05-22T06:35:43Z</time>
      </trkpt>
      <trkpt lat="42.4366240" lon="-8.6433160">
        <ele>7.8</ele>
        <time>2021-05-22T06:35:44Z</time>
      </trkpt>
      <trkpt lat="42.4366290" lon="-8.6433080">
        <ele>7.8</ele>
        <time>2021-05-22T06:35:45Z</time>
      </trkpt>
      <trkpt lat="42.4366420" lon="-8.6432910">
        <ele>7.8</ele>
        <time>2021-05-22T06:35:46Z</time>
      </trkpt>
      <trkpt lat="42.4366440" lon="-8.6432840">
        <ele>7.8</ele>
        <time>2021-05-22T06:35:47Z</time>
      </trkpt>
      <trkpt lat="42.4366580" lon="-8.6432720">
        <ele>7.9</ele>
        <time>2021-05-22T06:35:48Z</time>
      </trkpt>
      <trkpt lat="42.4366660" lon="-8.6432680">
        <ele>7.9</ele>
        <time>2021-05-22T06:35:49Z</time>
      </trkpt>
      <trkpt lat="42.4366710" lon="-8.6432630">
        <ele>7.9</ele>
        <time>2021-05-22T06:35:50Z</time>
      </trkpt>
      <trkpt lat="42.4366780" lon="-8.6432620">
        <ele>7.9</ele>
        <time>2021-05-22T06:35:51Z</time>
      </trkpt>
      <trkpt lat="42.4367040" lon="-8.6432470">
        <ele>7.9</ele>
        <time>2021-05-22T06:35:52Z</time>
      </trkpt>
      <trkpt lat="42.4367150" lon="-8.6432390">
        <ele>7.9</ele>
        <time>2021-05-22T06:35:53Z</time>
      </trkpt>
      <trkpt lat="42.4367290" lon="-8.6432250">
        <ele>7.9</ele>
        <time>2021-05-22T06:35:54Z</time>
      </trkpt>
      <trkpt lat="42.4367590" lon="-8.6432040">
        <ele>8.0</ele>
        <time>2021-05-22T06:35:55Z</time>
      </trkpt>
      <trkpt lat="42.4367670" lon="-8.6431980">
        <ele>8.0</ele>
        <time>2021-05-22T06:35:56Z</time>
      </trkpt>
      <trkpt lat="42.4367810" lon="-8.6431910">
        <ele>8.0</ele>
        <time>2021-05-22T06:35:57Z</time>
      </trkpt>
      <trkpt lat="42.4367930" lon="-8.6431710">
        <ele>8.0</ele>
        <time>2021-05-22T06:35:58Z</time>
      </trkpt>
      <trkpt lat="42.4368170" lon="-8.6431610">
        <ele>8.1</ele>
        <time>2021-05-22T06:35:59Z</time>
      </trkpt>
      <trkpt lat="42.4368290" lon="-8.6431570">
        <ele>8.1</ele>
        <time>2021-05-22T06:36:00Z</time>
      </trkpt>
      <trkpt lat="42.4368600" lon="-8.6431740">
        <ele>8.1</ele>
        <time>2021-05-22T06:36:01Z</time>
      </trkpt>
      <trkpt lat="42.4368700" lon="-8.6431830">
        <ele>8.1</ele>
        <time>2021-05-22T06:36:02Z</time>
      </trkpt>
      <trkpt lat="42.4368870" lon="-8.6431830">
        <ele>8.1</ele>
        <time>2021-05-22T06:36:03Z</time>
      </trkpt>
      <trkpt lat="42.4369040" lon="-8.6431720">
        <ele>8.2</ele>
        <time>2021-05-22T06:36:04Z</time>
      </trkpt>
      <trkpt lat="42.4369250" lon="-8.6431810">
        <ele>8.2</ele>
        <time>2021-05-22T06:36:05Z</time>
      </trkpt>
      <trkpt lat="42.4369320" lon="-8.6431870">
        <ele>8.2</ele>
        <time>2021-05-22T06:36:06Z</time>
      </trkpt>
      <trkpt lat="42.4369400" lon="-8.6431920">
        <ele>8.2</ele>
        <time>2021-05-22T06:36:07Z</time>
      </trkpt>
      <trkpt lat="42.4369560" lon="-8.6432000">
        <ele>8.2</ele>
        <time>2021-05-22T06:36:08Z</time>
      </trkpt>
      <trkpt lat="42.4369620" lon="-8.6432080">
        <ele>8.2</ele>
        <time>2021-05-22T06:36:09Z</time>
      </trkpt>
      <trkpt lat="42.4369670" lon="-8.6432110">
        <ele>8.2</ele>
        <time>2021-05-22T06:36:10Z</time>
      </trkpt>
      <trkpt lat="42.4369750" lon="-8.6432240">
        <ele>8.3</ele>
        <time>2021-05-22T06:36:11Z</time>
      </trkpt>
      <trkpt lat="42.4369910" lon="-8.6432340">
        <ele>8.4</ele>
        <time>2021-05-22T06:36:12Z</time>
      </trkpt>
      <trkpt lat="42.4369960" lon="-8.6432440">
        <ele>8.4</ele>
        <time>2021-05-22T06:36:13Z</time>
      </trkpt>
      <trkpt lat="42.4370040" lon="-8.6432610">
        <ele>8.4</ele>
        <time>2021-05-22T06:36:14Z</time>
      </trkpt>
      <trkpt lat="42.4370080" lon="-8.6432640">
        <ele>8.4</ele>
        <time>2021-05-22T06:36:15Z</time>
      </trkpt>
      <trkpt lat="42.4370150" lon="-8.6432720">
        <ele>8.4</ele>
        <time>2021-05-22T06:36:16Z</time>
      </trkpt>
      <trkpt lat="42.4370250" lon="-8.6432850">
        <ele>8.4</ele>
        <time>2021-05-22T06:36:17Z</time>
      </trkpt>
      <trkpt lat="42.4370280" lon="-8.6433000">
        <ele>8.4</ele>
        <time>2021-05-22T06:36:18Z</time>
      </trkpt>
      <trkpt lat="42.4370330" lon="-8.6433120">
        <ele>8.4</ele>
        <time>2021-05-22T06:36:19Z</time>
      </trkpt>
      <trkpt lat="42.4370480" lon="-8.6433320">
        <ele>8.4</ele>
        <time>2021-05-22T06:36:20Z</time>
      </trkpt>
      <trkpt lat="42.4370650" lon="-8.6433460">
        <ele>8.4</ele>
        <time>2021-05-22T06:36:21Z</time>
      </trkpt>
      <trkpt lat="42.4370760" lon="-8.6433620">
        <ele>8.5</ele>
        <time>2021-05-22T06:36:22Z</time>
      </trkpt>
      <trkpt lat="42.4370790" lon="-8.6433820">
        <ele>8.5</ele>
        <time>2021-05-22T06:36:23Z</time>
      </trkpt>
      <trkpt lat="42.4370820" lon="-8.6434010">
        <ele>8.5</ele>
        <time>2021-05-22T06:36:24Z</time>
      </trkpt>
      <trkpt lat="42.4370840" lon="-8.6434120">
        <ele>8.5</ele>
        <time>2021-05-22T06:36:25Z</time>
      </trkpt>
      <trkpt lat="42.4370880" lon="-8.6434160">
        <ele>8.5</ele>
        <time>2021-05-22T06:36:26Z</time>
      </trkpt>
      <trkpt lat="42.4370920" lon="-8.6434210">
        <ele>8.5</ele>
        <time>2021-05-22T06:36:27Z</time>
      </trkpt>
      <trkpt lat="42.4370940" lon="-8.6434140">
        <ele>8.5</ele>
        <time>2021-05-22T06:36:28Z</time>
      </trkpt>
      <trkpt lat="42.4370980" lon="-8.6434140">
        <ele>8.5</ele>
        <time>2021-05-22T06:36:29Z</time>
      </trkpt>
      <trkpt lat="42.4371100" lon="-8.6434240">
        <ele>8.5</ele>
        <time>2021-05-22T06:36:30Z</time>
      </trkpt>
      <trkpt lat="42.4371170" lon="-8.6434190">
        <ele>8.5</ele>
        <time>2021-05-22T06:36:31Z</time>
      </trkpt>
      <trkpt lat="42.4371230" lon="-8.6434160">
        <ele>8.6</ele>
        <time>2021-05-22T06:36:32Z</time>
      </trkpt>
      <trkpt lat="42.4371280" lon="-8.6434130">
        <ele>8.6</ele>
        <time>2021-05-22T06:36:33Z</time>
      </trkpt>
      <trkpt lat="42.4371340" lon="-8.6434100">
        <ele>8.6</ele>
        <time>2021-05-22T06:36:34Z</time>
      </trkpt>
      <trkpt lat="42.4371390" lon="-8.6434060">
        <ele>8.6</ele>
        <time>2021-05-22T06:36:35Z</time>
      </trkpt>
      <trkpt lat="42.4371440" lon="-8.6434030">
        <ele>8.6</ele>
        <time>2021-05-22T06:36:36Z</time>
      </trkpt>
      <trkpt lat="42.4371500" lon="-8.6434000">
        <ele>8.6</ele>
        <time>2021-05-22T06:36:37Z</time>
      </trkpt>
      <trkpt lat="42.4371550" lon="-8.6433970">
        <ele>8.6</ele>
        <time>2021-05-22T06:36:38Z</time>
      </trkpt>
      <trkpt lat="42.4371740" lon="-8.6433770">
        <ele>8.6</ele>
        <time>2021-05-22T06:36:39Z</time>
      </trkpt>
      <trkpt lat="42.4371810" lon="-8.6433770">
        <ele>8.6</ele>
        <time>2021-05-22T06:36:40Z</time>
      </trkpt>
      <trkpt lat="42.4371890" lon="-8.6433770">
        <ele>8.6</ele>
        <time>2021-05-22T06:36:41Z</time>
      </trkpt>
      <trkpt lat="42.4371960" lon="-8.6433770">
        <ele>8.7</ele>
        <time>2021-05-22T06:36:42Z</time>
      </trkpt>
      <trkpt lat="42.4372220" lon="-8.6433770">
        <ele>8.7</ele>
        <time>2021-05-22T06:36:43Z</time>
      </trkpt>
      <trkpt lat="42.4372340" lon="-8.6433710">
        <ele>8.7</ele>
        <time>2021-05-22T06:36:44Z</time>
      </trkpt>
      <trkpt lat="42.4372580" lon="-8.6433650">
        <ele>8.7</ele>
        <time>2021-05-22T06:36:45Z</time>
      </trkpt>
      <trkpt lat="42.4372630" lon="-8.6433590">
        <ele>8.7</ele>
        <time>2021-05-22T06:36:46Z</time>
      </trkpt>
      <trkpt lat="42.4372680" lon="-8.6433530">
        <ele>8.8</ele>
        <time>2021-05-22T06:36:47Z</time>
      </trkpt>
      <trkpt lat="42.4372820" lon="-8.6433440">
        <ele>8.8</ele>
        <time>2021-05-22T06:36:48Z</time>
      </trkpt>
      <trkpt lat="42.4372850" lon="-8.6433440">
        <ele>8.8</ele>
        <time>2021-05-22T06:36:49Z</time>
      </trkpt>
      <trkpt lat="42.4372980" lon="-8.6433410">
        <ele>8.8</ele>
        <time>2021-05-22T06:36:50Z</time>
      </trkpt>
      <trkpt lat="42.4373240" lon="-8.6433230">
        <ele>8.8</ele>
        <time>2021-05-22T06:36:51Z</time>
      </trkpt>
      <trkpt lat="42.4373350" lon="-8.6433170">
        <ele>8.9</ele>
        <time>2021-05-22T06:36:52Z</time>
      </trkpt>
      <trkpt lat="42.4373630" lon="-8.6432880">
        <ele>8.9</ele>
        <time>2021-05-22T06:36:53Z</time>
      </trkpt>
      <trkpt lat="42.4373730" lon="-8.6432740">
        <ele>8.9</ele>
        <time>2021-05-22T06:36:54Z</time>
      </trkpt>
      <trkpt lat="42.4373890" lon="-8.6432500">
        <ele>9.0</ele>
        <time>2021-05-22T06:36:55Z</time>
      </trkpt>
      <trkpt lat="42.4374020" lon="-8.6432490">
        <ele>9.0</ele>
        <time>2021-05-22T06:36:56Z</time>
      </trkpt>
      <trkpt lat="42.4374220" lon="-8.6432540">
        <ele>9.0</ele>
        <time>2021-05-22T06:36:57Z</time>
      </trkpt>
      <trkpt lat="42.4374330" lon="-8.6432550">
        <ele>9.0</ele>
        <time>2021-05-22T06:36:58Z</time>
      </trkpt>
      <trkpt lat="42.4374410" lon="-8.6432480">
        <ele>9.0</ele>
        <time>2021-05-22T06:36:59Z</time>
      </trkpt>
      <trkpt lat="42.4374510" lon="-8.6432450">
        <ele>9.1</ele>
        <time>2021-05-22T06:37:00Z</time>
      </trkpt>
      <trkpt lat="42.4374600" lon="-8.6432230">
        <ele>9.1</ele>
        <time>2021-05-22T06:37:01Z</time>
      </trkpt>
      <trkpt lat="42.4374700" lon="-8.6432280">
        <ele>9.1</ele>
        <time>2021-05-22T06:37:02Z</time>
      </trkpt>
      <trkpt lat="42.4374570" lon="-8.6432310">
        <ele>9.1</ele>
        <time>2021-05-22T06:37:03Z</time>
      </trkpt>
      <trkpt lat="42.4374380" lon="-8.6432280">
        <ele>9.1</ele>
        <time>2021-05-22T06:37:04Z</time>
      </trkpt>
      <trkpt lat="42.4374300" lon="-8.6432240">
        <ele>9.2</ele>
        <time>2021-05-22T06:37:05Z</time>
      </trkpt>
      <trkpt lat="42.4374450" lon="-8.6432660">
        <ele>9.2</ele>
        <time>2021-05-22T06:37:06Z</time>
      </trkpt>
      <trkpt lat="42.4374550" lon="-8.6432770">
        <ele>9.2</ele>
        <time>2021-05-22T06:37:07Z</time>
      </trkpt>
      <trkpt lat="42.4374580" lon="-8.6432840">
        <ele>9.2</ele>
        <time>2021-05-22T06:37:08Z</time>
      </trkpt>
      <trkpt lat="42.4374650" lon="-8.6432940">
        <ele>9.3</ele>
        <time>2021-05-22T06:37:09Z</time>
      </trkpt>
      <trkpt lat="42.4374780" lon="-8.6433060">
        <ele>9.3</ele>
        <time>2021-05-22T06:37:10Z</time>
      </trkpt>
      <trkpt lat="42.4375040" lon="-8.6433180">
        <ele>9.3</ele>
        <time>2021-05-22T06:37:11Z</time>
      </trkpt>
      <trkpt lat="42.4375140" lon="-8.6433320">
        <ele>9.4</ele>
        <time>2021-05-22T06:37:12Z</time>
      </trkpt>
      <trkpt lat="42.4375330" lon="-8.6433510">
        <ele>9.4</ele>
        <time>2021-05-22T06:37:13Z</time>
      </trkpt>
      <trkpt lat="42.4375470" lon="-8.6433470">
        <ele>9.5</ele>
        <time>2021-05-22T06:37:14Z</time>
      </trkpt>
      <trkpt lat="42.4375810" lon="-8.6433430">
        <ele>9.5</ele>
        <time>2021-05-22T06:37:15Z</time>
      </trkpt>
      <trkpt lat="42.4375900" lon="-8.6433420">
        <ele>9.6</ele>
        <time>2021-05-22T06:37:16Z</time>
      </trkpt>
      <trkpt lat="42.4376340" lon="-8.6433370">
        <ele>9.7</ele>
        <time>2021-05-22T06:37:17Z</time>
      </trkpt>
      <trkpt lat="42.4376940" lon="-8.6433410">
        <ele>9.8</ele>
        <time>2021-05-22T06:37:18Z</time>
      </trkpt>
      <trkpt lat="42.4377360" lon="-8.6433350">
        <ele>10.0</ele>
        <time>2021-05-22T06:37:19Z</time>
      </trkpt>
      <trkpt lat="42.4377520" lon="-8.6433330">
        <ele>10.0</ele>
        <time>2021-05-22T06:37:20Z</time>
      </trkpt>
      <trkpt lat="42.4377790" lon="-8.6433180">
        <ele>10.1</ele>
        <time>2021-05-22T06:37:21Z</time>
      </trkpt>
      <trkpt lat="42.4377770" lon="-8.6433250">
        <ele>10.1</ele>
        <time>2021-05-22T06:37:22Z</time>
      </trkpt>
      <trkpt lat="42.4377820" lon="-8.6433210">
        <ele>10.1</ele>
        <time>2021-05-22T06:37:23Z</time>
      </trkpt>
      <trkpt lat="42.4377910" lon="-8.6433160">
        <ele>10.1</ele>
        <time>2021-05-22T06:37:24Z</time>
      </trkpt>
      <trkpt lat="42.4378110" lon="-8.6433060">
        <ele>10.2</ele>
        <time>2021-05-22T06:37:25Z</time>
      </trkpt>
      <trkpt lat="42.4378380" lon="-8.6433090">
        <ele>10.3</ele>
        <time>2021-05-22T06:37:26Z</time>
      </trkpt>
      <trkpt lat="42.4378670" lon="-8.6433030">
        <ele>10.3</ele>
        <time>2021-05-22T06:37:27Z</time>
      </trkpt>
      <trkpt lat="42.4378760" lon="-8.6433050">
        <ele>10.4</ele>
        <time>2021-05-22T06:37:28Z</time>
      </trkpt>
      <trkpt lat="42.4378890" lon="-8.6433140">
        <ele>10.4</ele>
        <time>2021-05-22T06:37:29Z</time>
      </trkpt>
      <trkpt lat="42.4379050" lon="-8.6432930">
        <ele>10.4</ele>
        <time>2021-05-22T06:37:30Z</time>
      </trkpt>
      <trkpt lat="42.4379180" lon="-8.6432960">
        <ele>10.5</ele>
        <time>2021-05-22T06:37:31Z</time>
      </trkpt>
      <trkpt lat="42.4379280" lon="-8.6432970">
        <ele>10.5</ele>
        <time>2021-05-22T06:37:32Z</time>
      </trkpt>
      <trkpt lat="42.4379350" lon="-8.6432930">
        <ele>10.5</ele>
        <time>2021-05-22T06:37:33Z</time>
      </trkpt>
      <trkpt lat="42.4379370" lon="-8.6432970">
        <ele>10.5</ele>
        <time>2021-05-22T06:37:34Z</time>
      </trkpt>
      <trkpt lat="42.4379430" lon="-8.6433030">
        <ele>10.6</ele>
        <time>2021-05-22T06:37:35Z</time>
      </trkpt>
      <trkpt lat="42.4379590" lon="-8.6432870">
        <ele>10.6</ele>
        <time>2021-05-22T06:37:36Z</time>
      </trkpt>
      <trkpt lat="42.4379660" lon="-8.6432890">
        <ele>10.6</ele>
        <time>2021-05-22T06:37:37Z</time>
      </trkpt>
      <trkpt lat="42.4379810" lon="-8.6432850">
        <ele>10.7</ele>
        <time>2021-05-22T06:37:38Z</time>
      </trkpt>
      <trkpt lat="42.4380000" lon="-8.6432750">
        <ele>10.7</ele>
        <time>2021-05-22T06:37:39Z</time>
      </trkpt>
      <trkpt lat="42.4380030" lon="-8.6432580">
        <ele>10.8</ele>
        <time>2021-05-22T06:37:40Z</time>
      </trkpt>
      <trkpt lat="42.4380070" lon="-8.6432480">
        <ele>10.8</ele>
        <time>2021-05-22T06:37:41Z</time>
      </trkpt>
      <trkpt lat="42.4380170" lon="-8.6432320">
        <ele>10.8</ele>
        <time>2021-05-22T06:37:42Z</time>
      </trkpt>
      <trkpt lat="42.4380350" lon="-8.6432130">
        <ele>10.9</ele>
        <time>2021-05-22T06:37:43Z</time>
      </trkpt>
      <trkpt lat="42.4380430" lon="-8.6432080">
        <ele>10.9</ele>
        <time>2021-05-22T06:37:44Z</time>
      </trkpt>
      <trkpt lat="42.4380510" lon="-8.6432030">
        <ele>10.9</ele>
        <time>2021-05-22T06:37:45Z</time>
      </trkpt>
      <trkpt lat="42.4380640" lon="-8.6431880">
        <ele>11.0</ele>
        <time>2021-05-22T06:37:46Z</time>
      </trkpt>
      <trkpt lat="42.4380710" lon="-8.6431630">
        <ele>11.0</ele>
        <time>2021-05-22T06:37:47Z</time>
      </trkpt>
      <trkpt lat="42.4380880" lon="-8.6431510">
        <ele>11.1</ele>
        <time>2021-05-22T06:37:48Z</time>
      </trkpt>
      <trkpt lat="42.4380970" lon="-8.6431460">
        <ele>11.1</ele>
        <time>2021-05-22T06:37:49Z</time>
      </trkpt>
      <trkpt lat="42.4381060" lon="-8.6431400">
        <ele>11.1</ele>
        <time>2021-05-22T06:37:50Z</time>
      </trkpt>
      <trkpt lat="42.4381220" lon="-8.6431210">
        <ele>11.2</ele>
        <time>2021-05-22T06:37:51Z</time>
      </trkpt>
      <trkpt lat="42.4381310" lon="-8.6431120">
        <ele>11.2</ele>
        <time>2021-05-22T06:37:52Z</time>
      </trkpt>
      <trkpt lat="42.4381410" lon="-8.6431030">
        <ele>11.2</ele>
        <time>2021-05-22T06:37:53Z</time>
      </trkpt>
      <trkpt lat="42.4381550" lon="-8.6430970">
        <ele>11.3</ele>
        <time>2021-05-22T06:37:54Z</time>
      </trkpt>
      <trkpt lat="42.4381640" lon="-8.6430840">
        <ele>11.3</ele>
        <time>2021-05-22T06:37:55Z</time>
      </trkpt>
      <trkpt lat="42.4381650" lon="-8.6430760">
        <ele>11.3</ele>
        <time>2021-05-22T06:37:56Z</time>
      </trkpt>
      <trkpt lat="42.4381800" lon="-8.6430590">
        <ele>11.4</ele>
        <time>2021-05-22T06:37:57Z</time>
      </trkpt>
      <trkpt lat="42.4381890" lon="-8.6430560">
        <ele>11.4</ele>
        <time>2021-05-22T06:37:58Z</time>
      </trkpt>
      <trkpt lat="42.4382020" lon="-8.6430500">
        <ele>11.5</ele>
        <time>2021-05-22T06:37:59Z</time>
      </trkpt>
      <trkpt lat="42.4382130" lon="-8.6430570">
        <ele>11.5</ele>
        <time>2021-05-22T06:38:00Z</time>
      </trkpt>
      <trkpt lat="42.4382230" lon="-8.6430470">
        <ele>11.5</ele>
        <time>2021-05-22T06:38:01Z</time>
      </trkpt>
      <trkpt lat="42.4382480" lon="-8.6430520">
        <ele>11.6</ele>
        <time>2021-05-22T06:38:02Z</time>
      </trkpt>
      <trkpt lat="42.4382600" lon="-8.6430600">
        <ele>11.6</ele>
        <time>2021-05-22T06:38:03Z</time>
      </trkpt>
      <trkpt lat="42.4382770" lon="-8.6430720">
        <ele>11.7</ele>
        <time>2021-05-22T06:38:04Z</time>
      </trkpt>
      <trkpt lat="42.4382890" lon="-8.6430720">
        <ele>11.7</ele>
        <time>2021-05-22T06:38:05Z</time>
      </trkpt>
      <trkpt lat="42.4383050" lon="-8.6430710">
        <ele>11.8</ele>
        <time>2021-05-22T06:38:06Z</time>
      </trkpt>
      <trkpt lat="42.4383180" lon="-8.6430710">
        <ele>11.8</ele>
        <time>2021-05-22T06:38:07Z</time>
      </trkpt>
      <trkpt lat="42.4383290" lon="-8.6430620">
        <ele>11.8</ele>
        <time>2021-05-22T06:38:08Z</time>
      </trkpt>
      <trkpt lat="42.4383440" lon="-8.6430620">
        <ele>11.9</ele>
        <time>2021-05-22T06:38:09Z</time>
      </trkpt>
      <trkpt lat="42.4383600" lon="-8.6430580">
        <ele>11.9</ele>
        <time>2021-05-22T06:38:10Z</time>
      </trkpt>
      <trkpt lat="42.4383690" lon="-8.6430520">
        <ele>12.0</ele>
        <time>2021-05-22T06:38:11Z</time>
      </trkpt>
      <trkpt lat="42.4383760" lon="-8.6430390">
        <ele>12.0</ele>
        <time>2021-05-22T06:38:12Z</time>
      </trkpt>
      <trkpt lat="42.4383940" lon="-8.6430320">
        <ele>12.1</ele>
        <time>2021-05-22T06:38:13Z</time>
      </trkpt>
      <trkpt lat="42.4384040" lon="-8.6430310">
        <ele>12.1</ele>
        <time>2021-05-22T06:38:14Z</time>
      </trkpt>
      <trkpt lat="42.4384130" lon="-8.6430310">
        <ele>12.1</ele>
        <time>2021-05-22T06:38:15Z</time>
      </trkpt>
      <trkpt lat="42.4384230" lon="-8.6430300">
        <ele>12.1</ele>
        <time>2021-05-22T06:38:16Z</time>
      </trkpt>
      <trkpt lat="42.4384300" lon="-8.6430270">
        <ele>12.1</ele>
        <time>2021-05-22T06:38:17Z</time>
      </trkpt>
      <trkpt lat="42.4384410" lon="-8.6430270">
        <ele>12.2</ele>
        <time>2021-05-22T06:38:18Z</time>
      </trkpt>
      <trkpt lat="42.4384510" lon="-8.6430260">
        <ele>12.2</ele>
        <time>2021-05-22T06:38:19Z</time>
      </trkpt>
      <trkpt lat="42.4384490" lon="-8.6430270">
        <ele>12.2</ele>
        <time>2021-05-22T06:38:20Z</time>
      </trkpt>
      <trkpt lat="42.4384460" lon="-8.6430270">
        <ele>12.2</ele>
        <time>2021-05-22T06:38:21Z</time>
      </trkpt>
      <trkpt lat="42.4384590" lon="-8.6430160">
        <ele>12.2</ele>
        <time>2021-05-22T06:38:22Z</time>
      </trkpt>
      <trkpt lat="42.4384660" lon="-8.6430080">
        <ele>12.2</ele>
        <time>2021-05-22T06:38:23Z</time>
      </trkpt>
      <trkpt lat="42.4384820" lon="-8.6429980">
        <ele>12.3</ele>
        <time>2021-05-22T06:38:24Z</time>
      </trkpt>
      <trkpt lat="42.4384920" lon="-8.6429950">
        <ele>12.3</ele>
        <time>2021-05-22T06:38:25Z</time>
      </trkpt>
      <trkpt lat="42.4385070" lon="-8.6429990">
        <ele>12.3</ele>
        <time>2021-05-22T06:38:26Z</time>
      </trkpt>
      <trkpt lat="42.4385180" lon="-8.6429960">
        <ele>12.4</ele>
        <time>2021-05-22T06:38:27Z</time>
      </trkpt>
      <trkpt lat="42.4385210" lon="-8.6429880">
        <ele>12.4</ele>
        <time>2021-05-22T06:38:28Z</time>
      </trkpt>
      <trkpt lat="42.4385220" lon="-8.6429690">
        <ele>12.4</ele>
        <time>2021-05-22T06:38:29Z</time>
      </trkpt>
      <trkpt lat="42.4385250" lon="-8.6429510">
        <ele>12.4</ele>
        <time>2021-05-22T06:38:30Z</time>
      </trkpt>
      <trkpt lat="42.4385540" lon="-8.6429410">
        <ele>12.5</ele>
        <time>2021-05-22T06:38:31Z</time>
      </trkpt>
      <trkpt lat="42.4385640" lon="-8.6429420">
        <ele>12.5</ele>
        <time>2021-05-22T06:38:32Z</time>
      </trkpt>
      <trkpt lat="42.4385720" lon="-8.6429210">
        <ele>12.5</ele>
        <time>2021-05-22T06:38:33Z</time>
      </trkpt>
      <trkpt lat="42.4385720" lon="-8.6429060">
        <ele>12.6</ele>
        <time>2021-05-22T06:38:34Z</time>
      </trkpt>
      <trkpt lat="42.4385720" lon="-8.6428900">
        <ele>12.6</ele>
        <time>2021-05-22T06:38:35Z</time>
      </trkpt>
      <trkpt lat="42.4385900" lon="-8.6428780">
        <ele>12.6</ele>
        <time>2021-05-22T06:38:36Z</time>
      </trkpt>
      <trkpt lat="42.4385990" lon="-8.6428750">
        <ele>12.6</ele>
        <time>2021-05-22T06:38:37Z</time>
      </trkpt>
      <trkpt lat="42.4386070" lon="-8.6428720">
        <ele>12.7</ele>
        <time>2021-05-22T06:38:38Z</time>
      </trkpt>
      <trkpt lat="42.4386290" lon="-8.6428630">
        <ele>12.7</ele>
        <time>2021-05-22T06:38:39Z</time>
      </trkpt>
      <trkpt lat="42.4386340" lon="-8.6428540">
        <ele>12.7</ele>
        <time>2021-05-22T06:38:40Z</time>
      </trkpt>
      <trkpt lat="42.4386390" lon="-8.6428450">
        <ele>12.7</ele>
        <time>2021-05-22T06:38:41Z</time>
      </trkpt>
      <trkpt lat="42.4386410" lon="-8.6428310">
        <ele>12.8</ele>
        <time>2021-05-22T06:38:42Z</time>
      </trkpt>
      <trkpt lat="42.4386430" lon="-8.6428130">
        <ele>12.8</ele>
        <time>2021-05-22T06:38:43Z</time>
      </trkpt>
      <trkpt lat="42.4386480" lon="-8.6427990">
        <ele>12.8</ele>
        <time>2021-05-22T06:38:44Z</time>
      </trkpt>
      <trkpt lat="42.4386670" lon="-8.6427730">
        <ele>12.9</ele>
        <time>2021-05-22T06:38:45Z</time>
      </trkpt>
      <trkpt lat="42.4386760" lon="-8.6427680">
        <ele>12.9</ele>
        <time>2021-05-22T06:38:46Z</time>
      </trkpt>
      <trkpt lat="42.4386900" lon="-8.6427520">
        <ele>12.9</ele>
        <time>2021-05-22T06:38:47Z</time>
      </trkpt>
      <trkpt lat="42.4387020" lon="-8.6427380">
        <ele>12.9</ele>
        <time>2021-05-22T06:38:48Z</time>
      </trkpt>
      <trkpt lat="42.4387300" lon="-8.6427530">
        <ele>13.0</ele>
        <time>2021-05-22T06:38:49Z</time>
      </trkpt>
      <trkpt lat="42.4387800" lon="-8.6427870">
        <ele>13.1</ele>
        <time>2021-05-22T06:38:50Z</time>
      </trkpt>
      <trkpt lat="42.4388050" lon="-8.6428100">
        <ele>13.1</ele>
        <time>2021-05-22T06:38:51Z</time>
      </trkpt>
      <trkpt lat="42.4388330" lon="-8.6428270">
        <ele>13.2</ele>
        <time>2021-05-22T06:38:52Z</time>
      </trkpt>
      <trkpt lat="42.4388430" lon="-8.6428380">
        <ele>13.2</ele>
        <time>2021-05-22T06:38:53Z</time>
      </trkpt>
      <trkpt lat="42.4388740" lon="-8.6428360">
        <ele>13.2</ele>
        <time>2021-05-22T06:38:54Z</time>
      </trkpt>
      <trkpt lat="42.4388830" lon="-8.6428350">
        <ele>13.2</ele>
        <time>2021-05-22T06:38:55Z</time>
      </trkpt>
      <trkpt lat="42.4389070" lon="-8.6428340">
        <ele>13.3</ele>
        <time>2021-05-22T06:38:56Z</time>
      </trkpt>
      <trkpt lat="42.4389180" lon="-8.6428300">
        <ele>13.3</ele>
        <time>2021-05-22T06:38:57Z</time>
      </trkpt>
      <trkpt lat="42.4389210" lon="-8.6428300">
        <ele>13.3</ele>
        <time>2021-05-22T06:38:58Z</time>
      </trkpt>
      <trkpt lat="42.4389290" lon="-8.6428300">
        <ele>13.3</ele>
        <time>2021-05-22T06:38:59Z</time>
      </trkpt>
      <trkpt lat="42.4389350" lon="-8.6428250">
        <ele>13.3</ele>
        <time>2021-05-22T06:39:00Z</time>
      </trkpt>
      <trkpt lat="42.4389480" lon="-8.6428160">
        <ele>13.4</ele>
        <time>2021-05-22T06:39:01Z</time>
      </trkpt>
      <trkpt lat="42.4389590" lon="-8.6428100">
        <ele>13.4</ele>
        <time>2021-05-22T06:39:02Z</time>
      </trkpt>
      <trkpt lat="42.4389710" lon="-8.6428010">
        <ele>13.4</ele>
        <time>2021-05-22T06:39:03Z</time>
      </trkpt>
      <trkpt lat="42.4389730" lon="-8.6427970">
        <ele>13.4</ele>
        <time>2021-05-22T06:39:04Z</time>
      </trkpt>
      <trkpt lat="42.4389750" lon="-8.6427950">
        <ele>13.4</ele>
        <time>2021-05-22T06:39:05Z</time>
      </trkpt>
      <trkpt lat="42.4389800" lon="-8.6427900">
        <ele>13.4</ele>
        <time>2021-05-22T06:39:06Z</time>
      </trkpt>
      <trkpt lat="42.4389920" lon="-8.6427820">
        <ele>13.5</ele>
        <time>2021-05-22T06:39:07Z</time>
      </trkpt>
      <trkpt lat="42.4390040" lon="-8.6427780">
        <ele>13.5</ele>
        <time>2021-05-22T06:39:08Z</time>
      </trkpt>
      <trkpt lat="42.4390140" lon="-8.6427720">
        <ele>13.5</ele>
        <time>2021-05-22T06:39:09Z</time>
      </trkpt>
      <trkpt lat="42.4390250" lon="-8.6427680">
        <ele>13.5</ele>
        <time>2021-05-22T06:39:10Z</time>
      </trkpt>
      <trkpt lat="42.4390340" lon="-8.6427640">
        <ele>13.5</ele>
        <time>2021-05-22T06:39:11Z</time>
      </trkpt>
      <trkpt lat="42.4390470" lon="-8.6427660">
        <ele>13.6</ele>
        <time>2021-05-22T06:39:12Z</time>
      </trkpt>
      <trkpt lat="42.4390610" lon="-8.6427520">
        <ele>13.6</ele>
        <time>2021-05-22T06:39:13Z</time>
      </trkpt>
      <trkpt lat="42.4390790" lon="-8.6427400">
        <ele>13.6</ele>
        <time>2021-05-22T06:39:14Z</time>
      </trkpt>
      <trkpt lat="42.4390900" lon="-8.6427270">
        <ele>13.7</ele>
        <time>2021-05-22T06:39:15Z</time>
      </trkpt>
      <trkpt lat="42.4391070" lon="-8.6427110">
        <ele>13.7</ele>
        <time>2021-05-22T06:39:16Z</time>
      </trkpt>
      <trkpt lat="42.4391120" lon="-8.6426980">
        <ele>13.7</ele>
        <time>2021-05-22T06:39:17Z</time>
      </trkpt>
      <trkpt lat="42.4391180" lon="-8.6426860">
        <ele>13.7</ele>
        <time>2021-05-22T06:39:18Z</time>
      </trkpt>
      <trkpt lat="42.4391280" lon="-8.6426700">
        <ele>13.8</ele>
        <time>2021-05-22T06:39:19Z</time>
      </trkpt>
      <trkpt lat="42.4391440" lon="-8.6426660">
        <ele>13.8</ele>
        <time>2021-05-22T06:39:20Z</time>
      </trkpt>
      <trkpt lat="42.4391640" lon="-8.6426550">
        <ele>13.8</ele>
        <time>2021-05-22T06:39:21Z</time>
      </trkpt>
      <trkpt lat="42.4391720" lon="-8.6426430">
        <ele>13.9</ele>
        <time>2021-05-22T06:39:22Z</time>
      </trkpt>
      <trkpt lat="42.4391930" lon="-8.6426380">
        <ele>13.9</ele>
        <time>2021-05-22T06:39:23Z</time>
      </trkpt>
      <trkpt lat="42.4392020" lon="-8.6426360">
        <ele>13.9</ele>
        <time>2021-05-22T06:39:24Z</time>
      </trkpt>
      <trkpt lat="42.4392110" lon="-8.6426340">
        <ele>13.9</ele>
        <time>2021-05-22T06:39:25Z</time>
      </trkpt>
      <trkpt lat="42.4392230" lon="-8.6426360">
        <ele>13.9</ele>
        <time>2021-05-22T06:39:26Z</time>
      </trkpt>
      <trkpt lat="42.4392310" lon="-8.6426350">
        <ele>13.9</ele>
        <time>2021-05-22T06:39:27Z</time>
      </trkpt>
      <trkpt lat="42.4392310" lon="-8.6426240">
        <ele>14.0</ele>
        <time>2021-05-22T06:39:28Z</time>
      </trkpt>
      <trkpt lat="42.4392330" lon="-8.6426250">
        <ele>14.0</ele>
        <time>2021-05-22T06:39:29Z</time>
      </trkpt>
      <trkpt lat="42.4392270" lon="-8.6426290">
        <ele>14.0</ele>
        <time>2021-05-22T06:39:30Z</time>
      </trkpt>
      <trkpt lat="42.4392320" lon="-8.6426380">
        <ele>14.0</ele>
        <time>2021-05-22T06:39:31Z</time>
      </trkpt>
      <trkpt lat="42.4392410" lon="-8.6426400">
        <ele>14.0</ele>
        <time>2021-05-22T06:39:32Z</time>
      </trkpt>
      <trkpt lat="42.4392420" lon="-8.6426430">
        <ele>14.0</ele>
        <time>2021-05-22T06:39:33Z</time>
      </trkpt>
      <trkpt lat="42.4392610" lon="-8.6426470">
        <ele>14.0</ele>
        <time>2021-05-22T06:39:34Z</time>
      </trkpt>
      <trkpt lat="42.4392690" lon="-8.6426420">
        <ele>14.0</ele>
        <time>2021-05-22T06:39:35Z</time>
      </trkpt>
      <trkpt lat="42.4392950" lon="-8.6426340">
        <ele>14.1</ele>
        <time>2021-05-22T06:39:36Z</time>
      </trkpt>
      <trkpt lat="42.4393040" lon="-8.6426270">
        <ele>14.1</ele>
        <time>2021-05-22T06:39:37Z</time>
      </trkpt>
      <trkpt lat="42.4393190" lon="-8.6426260">
        <ele>14.1</ele>
        <time>2021-05-22T06:39:38Z</time>
      </trkpt>
      <trkpt lat="42.4393320" lon="-8.6426170">
        <ele>14.1</ele>
        <time>2021-05-22T06:39:39Z</time>
      </trkpt>
      <trkpt lat="42.4393690" lon="-8.6426220">
        <ele>14.2</ele>
        <time>2021-05-22T06:39:40Z</time>
      </trkpt>
      <trkpt lat="42.4393880" lon="-8.6426200">
        <ele>14.2</ele>
        <time>2021-05-22T06:39:41Z</time>
      </trkpt>
      <trkpt lat="42.4394150" lon="-8.6426270">
        <ele>14.3</ele>
        <time>2021-05-22T06:39:42Z</time>
      </trkpt>
      <trkpt lat="42.4394250" lon="-8.6426340">
        <ele>14.3</ele>
        <time>2021-05-22T06:39:43Z</time>
      </trkpt>
      <trkpt lat="42.4394360" lon="-8.6426300">
        <ele>14.3</ele>
        <time>2021-05-22T06:39:44Z</time>
      </trkpt>
      <trkpt lat="42.4394390" lon="-8.6426230">
        <ele>14.3</ele>
        <time>2021-05-22T06:39:45Z</time>
      </trkpt>
      <trkpt lat="42.4394510" lon="-8.6426160">
        <ele>14.3</ele>
        <time>2021-05-22T06:39:46Z</time>
      </trkpt>
      <trkpt lat="42.4394670" lon="-8.6426100">
        <ele>14.3</ele>
        <time>2021-05-22T06:39:47Z</time>
      </trkpt>
      <trkpt lat="42.4394810" lon="-8.6426060">
        <ele>14.4</ele>
        <time>2021-05-22T06:39:48Z</time>
      </trkpt>
      <trkpt lat="42.4395100" lon="-8.6426090">
        <ele>14.4</ele>
        <time>2021-05-22T06:39:49Z</time>
      </trkpt>
      <trkpt lat="42.4395200" lon="-8.6426130">
        <ele>14.4</ele>
        <time>2021-05-22T06:39:50Z</time>
      </trkpt>
      <trkpt lat="42.4395530" lon="-8.6426180">
        <ele>14.5</ele>
        <time>2021-05-22T06:39:51Z</time>
      </trkpt>
      <trkpt lat="42.4395640" lon="-8.6426210">
        <ele>14.5</ele>
        <time>2021-05-22T06:39:52Z</time>
      </trkpt>
      <trkpt lat="42.4395790" lon="-8.6426200">
        <ele>14.5</ele>
        <time>2021-05-22T06:39:53Z</time>
      </trkpt>
      <trkpt lat="42.4395920" lon="-8.6426260">
        <ele>14.5</ele>
        <time>2021-05-22T06:39:54Z</time>
      </trkpt>
      <trkpt lat="42.4395950" lon="-8.6426220">
        <ele>14.5</ele>
        <time>2021-05-22T06:39:55Z</time>
      </trkpt>
      <trkpt lat="42.4396070" lon="-8.6426210">
        <ele>14.5</ele>
        <time>2021-05-22T06:39:56Z</time>
      </trkpt>
      <trkpt lat="42.4396210" lon="-8.6426270">
        <ele>14.6</ele>
        <time>2021-05-22T06:39:57Z</time>
      </trkpt>
      <trkpt lat="42.4396340" lon="-8.6426310">
        <ele>14.6</ele>
        <time>2021-05-22T06:39:58Z</time>
      </trkpt>
      <trkpt lat="42.4396410" lon="-8.6426310">
        <ele>14.6</ele>
        <time>2021-05-22T06:39:59Z</time>
      </trkpt>
      <trkpt lat="42.4396500" lon="-8.6426300">
        <ele>14.6</ele>
        <time>2021-05-22T06:40:00Z</time>
      </trkpt>
      <trkpt lat="42.4396630" lon="-8.6426260">
        <ele>14.6</ele>
        <time>2021-05-22T06:40:01Z</time>
      </trkpt>
      <trkpt lat="42.4396750" lon="-8.6426130">
        <ele>14.6</ele>
        <time>2021-05-22T06:40:02Z</time>
      </trkpt>
      <trkpt lat="42.4397060" lon="-8.6426160">
        <ele>14.6</ele>
        <time>2021-05-22T06:40:03Z</time>
      </trkpt>
      <trkpt lat="42.4397150" lon="-8.6426150">
        <ele>14.7</ele>
        <time>2021-05-22T06:40:04Z</time>
      </trkpt>
      <trkpt lat="42.4397370" lon="-8.6426120">
        <ele>14.7</ele>
        <time>2021-05-22T06:40:05Z</time>
      </trkpt>
      <trkpt lat="42.4397500" lon="-8.6426130">
        <ele>14.7</ele>
        <time>2021-05-22T06:40:06Z</time>
      </trkpt>
      <trkpt lat="42.4397620" lon="-8.6426130">
        <ele>14.7</ele>
        <time>2021-05-22T06:40:07Z</time>
      </trkpt>
      <trkpt lat="42.4397810" lon="-8.6426030">
        <ele>14.7</ele>
        <time>2021-05-22T06:40:08Z</time>
      </trkpt>
      <trkpt lat="42.4397950" lon="-8.6426130">
        <ele>14.8</ele>
        <time>2021-05-22T06:40:09Z</time>
      </trkpt>
      <trkpt lat="42.4397980" lon="-8.6426130">
        <ele>14.8</ele>
        <time>2021-05-22T06:40:10Z</time>
      </trkpt>
      <trkpt lat="42.4398110" lon="-8.6426120">
        <ele>14.8</ele>
        <time>2021-05-22T06:40:11Z</time>
      </trkpt>
      <trkpt lat="42.4398310" lon="-8.6426160">
        <ele>14.8</ele>
        <time>2021-05-22T06:40:12Z</time>
      </trkpt>
      <trkpt lat="42.4398430" lon="-8.6426150">
        <ele>14.8</ele>
        <time>2021-05-22T06:40:13Z</time>
      </trkpt>
      <trkpt lat="42.4398590" lon="-8.6426250">
        <ele>14.8</ele>
        <time>2021-05-22T06:40:14Z</time>
      </trkpt>
      <trkpt lat="42.4398800" lon="-8.6426170">
        <ele>14.9</ele>
        <time>2021-05-22T06:40:15Z</time>
      </trkpt>
      <trkpt lat="42.4398910" lon="-8.6426150">
        <ele>14.9</ele>
        <time>2021-05-22T06:40:16Z</time>
      </trkpt>
      <trkpt lat="42.4399030" lon="-8.6426120">
        <ele>14.9</ele>
        <time>2021-05-22T06:40:17Z</time>
      </trkpt>
      <trkpt lat="42.4399210" lon="-8.6425980">
        <ele>14.9</ele>
        <time>2021-05-22T06:40:18Z</time>
      </trkpt>
      <trkpt lat="42.4399290" lon="-8.6425930">
        <ele>15.0</ele>
        <time>2021-05-22T06:40:19Z</time>
      </trkpt>
      <trkpt lat="42.4399370" lon="-8.6425880">
        <ele>15.0</ele>
        <time>2021-05-22T06:40:20Z</time>
      </trkpt>
      <trkpt lat="42.4399610" lon="-8.6425730">
        <ele>15.0</ele>
        <time>2021-05-22T06:40:21Z</time>
      </trkpt>
      <trkpt lat="42.4399690" lon="-8.6425620">
        <ele>15.0</ele>
        <time>2021-05-22T06:40:22Z</time>
      </trkpt>
      <trkpt lat="42.4399830" lon="-8.6425480">
        <ele>15.1</ele>
        <time>2021-05-22T06:40:23Z</time>
      </trkpt>
      <trkpt lat="42.4399920" lon="-8.6425360">
        <ele>15.1</ele>
        <time>2021-05-22T06:40:24Z</time>
      </trkpt>
      <trkpt lat="42.4400000" lon="-8.6425370">
        <ele>15.1</ele>
        <time>2021-05-22T06:40:25Z</time>
      </trkpt>
      <trkpt lat="42.4400040" lon="-8.6425440">
        <ele>15.1</ele>
        <time>2021-05-22T06:40:26Z</time>
      </trkpt>
      <trkpt lat="42.4400150" lon="-8.6425420">
        <ele>15.1</ele>
        <time>2021-05-22T06:40:27Z</time>
      </trkpt>
      <trkpt lat="42.4400230" lon="-8.6425320">
        <ele>15.1</ele>
        <time>2021-05-22T06:40:28Z</time>
      </trkpt>
      <trkpt lat="42.4400380" lon="-8.6425180">
        <ele>15.2</ele>
        <time>2021-05-22T06:40:29Z</time>
      </trkpt>
      <trkpt lat="42.4400450" lon="-8.6425130">
        <ele>15.2</ele>
        <time>2021-05-22T06:40:30Z</time>
      </trkpt>
      <trkpt lat="42.4400510" lon="-8.6425090">
        <ele>15.2</ele>
        <time>2021-05-22T06:40:31Z</time>
      </trkpt>
      <trkpt lat="42.4400570" lon="-8.6425040">
        <ele>15.2</ele>
        <time>2021-05-22T06:40:32Z</time>
      </trkpt>
      <trkpt lat="42.4400670" lon="-8.6424940">
        <ele>15.2</ele>
        <time>2021-05-22T06:40:33Z</time>
      </trkpt>
      <trkpt lat="42.4400840" lon="-8.6424810">
        <ele>15.3</ele>
        <time>2021-05-22T06:40:34Z</time>
      </trkpt>
      <trkpt lat="42.4400940" lon="-8.6424700">
        <ele>15.3</ele>
        <time>2021-05-22T06:40:35Z</time>
      </trkpt>
      <trkpt lat="42.4401030" lon="-8.6424610">
        <ele>15.3</ele>
        <time>2021-05-22T06:40:36Z</time>
      </trkpt>
      <trkpt lat="42.4401050" lon="-8.6424530">
        <ele>15.3</ele>
        <time>2021-05-22T06:40:37Z</time>
      </trkpt>
      <trkpt lat="42.4401120" lon="-8.6424610">
        <ele>15.3</ele>
        <time>2021-05-22T06:40:38Z</time>
      </trkpt>
      <trkpt lat="42.4401190" lon="-8.6424580">
        <ele>15.3</ele>
        <time>2021-05-22T06:40:39Z</time>
      </trkpt>
      <trkpt lat="42.4401270" lon="-8.6424540">
        <ele>15.4</ele>
        <time>2021-05-22T06:40:40Z</time>
      </trkpt>
      <trkpt lat="42.4401340" lon="-8.6424510">
        <ele>15.4</ele>
        <time>2021-05-22T06:40:41Z</time>
      </trkpt>
      <trkpt lat="42.4401420" lon="-8.6424470">
        <ele>15.4</ele>
        <time>2021-05-22T06:40:42Z</time>
      </trkpt>
      <trkpt lat="42.4401560" lon="-8.6424430">
        <ele>15.4</ele>
        <time>2021-05-22T06:40:43Z</time>
      </trkpt>
      <trkpt lat="42.4401650" lon="-8.6424370">
        <ele>15.4</ele>
        <time>2021-05-22T06:40:44Z</time>
      </trkpt>
      <trkpt lat="42.4401730" lon="-8.6424400">
        <ele>15.5</ele>
        <time>2021-05-22T06:40:45Z</time>
      </trkpt>
      <trkpt lat="42.4401930" lon="-8.6424300">
        <ele>15.5</ele>
        <time>2021-05-22T06:40:46Z</time>
      </trkpt>
      <trkpt lat="42.4402040" lon="-8.6424320">
        <ele>15.5</ele>
        <time>2021-05-22T06:40:47Z</time>
      </trkpt>
      <trkpt lat="42.4402150" lon="-8.6424330">
        <ele>15.6</ele>
        <time>2021-05-22T06:40:48Z</time>
      </trkpt>
      <trkpt lat="42.4402560" lon="-8.6424330">
        <ele>15.7</ele>
        <time>2021-05-22T06:40:49Z</time>
      </trkpt>
      <trkpt lat="42.4402750" lon="-8.6424410">
        <ele>15.7</ele>
        <time>2021-05-22T06:40:50Z</time>
      </trkpt>
      <trkpt lat="42.4403120" lon="-8.6424510">
        <ele>15.8</ele>
        <time>2021-05-22T06:40:51Z</time>
      </trkpt>
      <trkpt lat="42.4403400" lon="-8.6424530">
        <ele>15.9</ele>
        <time>2021-05-22T06:40:52Z</time>
      </trkpt>
      <trkpt lat="42.4403740" lon="-8.6424700">
        <ele>16.0</ele>
        <time>2021-05-22T06:40:53Z</time>
      </trkpt>
      <trkpt lat="42.4403920" lon="-8.6424760">
        <ele>16.0</ele>
        <time>2021-05-22T06:40:54Z</time>
      </trkpt>
      <trkpt lat="42.4404050" lon="-8.6424800">
        <ele>16.0</ele>
        <time>2021-05-22T06:40:55Z</time>
      </trkpt>
      <trkpt lat="42.4404140" lon="-8.6424740">
        <ele>16.1</ele>
        <time>2021-05-22T06:40:56Z</time>
      </trkpt>
      <trkpt lat="42.4404090" lon="-8.6424750">
        <ele>16.1</ele>
        <time>2021-05-22T06:40:57Z</time>
      </trkpt>
      <trkpt lat="42.4404130" lon="-8.6424680">
        <ele>16.1</ele>
        <time>2021-05-22T06:40:58Z</time>
      </trkpt>
      <trkpt lat="42.4404340" lon="-8.6424760">
        <ele>16.1</ele>
        <time>2021-05-22T06:40:59Z</time>
      </trkpt>
      <trkpt lat="42.4404620" lon="-8.6424870">
        <ele>16.2</ele>
        <time>2021-05-22T06:41:00Z</time>
      </trkpt>
      <trkpt lat="42.4404840" lon="-8.6425090">
        <ele>16.3</ele>
        <time>2021-05-22T06:41:01Z</time>
      </trkpt>
      <trkpt lat="42.4405160" lon="-8.6425210">
        <ele>16.3</ele>
        <time>2021-05-22T06:41:02Z</time>
      </trkpt>
      <trkpt lat="42.4405250" lon="-8.6425260">
        <ele>16.3</ele>
        <time>2021-05-22T06:41:03Z</time>
      </trkpt>
      <trkpt lat="42.4405340" lon="-8.6425380">
        <ele>16.3</ele>
        <time>2021-05-22T06:41:04Z</time>
      </trkpt>
      <trkpt lat="42.4405510" lon="-8.6425430">
        <ele>16.4</ele>
        <time>2021-05-22T06:41:05Z</time>
      </trkpt>
      <trkpt lat="42.4405770" lon="-8.6425560">
        <ele>16.4</ele>
        <time>2021-05-22T06:41:06Z</time>
      </trkpt>
      <trkpt lat="42.4406050" lon="-8.6425720">
        <ele>16.5</ele>
        <time>2021-05-22T06:41:07Z</time>
      </trkpt>
      <trkpt lat="42.4406120" lon="-8.6425770">
        <ele>16.5</ele>
        <time>2021-05-22T06:41:08Z</time>
      </trkpt>
      <trkpt lat="42.4406280" lon="-8.6425840">
        <ele>16.5</ele>
        <time>2021-05-22T06:41:09Z</time>
      </trkpt>
      <trkpt lat="42.4406410" lon="-8.6425910">
        <ele>16.6</ele>
        <time>2021-05-22T06:41:10Z</time>
      </trkpt>
      <trkpt lat="42.4406550" lon="-8.6425970">
        <ele>16.6</ele>
        <time>2021-05-22T06:41:11Z</time>
      </trkpt>
      <trkpt lat="42.4406700" lon="-8.6426110">
        <ele>16.7</ele>
        <time>2021-05-22T06:41:12Z</time>
      </trkpt>
      <trkpt lat="42.4406820" lon="-8.6426160">
        <ele>16.7</ele>
        <time>2021-05-22T06:41:13Z</time>
      </trkpt>
      <trkpt lat="42.4406920" lon="-8.6426220">
        <ele>16.7</ele>
        <time>2021-05-22T06:41:14Z</time>
      </trkpt>
      <trkpt lat="42.4407030" lon="-8.6426310">
        <ele>16.8</ele>
        <time>2021-05-22T06:41:15Z</time>
      </trkpt>
      <trkpt lat="42.4407170" lon="-8.6426410">
        <ele>16.8</ele>
        <time>2021-05-22T06:41:16Z</time>
      </trkpt>
      <trkpt lat="42.4407280" lon="-8.6426510">
        <ele>16.8</ele>
        <time>2021-05-22T06:41:17Z</time>
      </trkpt>
      <trkpt lat="42.4407420" lon="-8.6426550">
        <ele>16.9</ele>
        <time>2021-05-22T06:41:18Z</time>
      </trkpt>
      <trkpt lat="42.4407480" lon="-8.6426520">
        <ele>16.9</ele>
        <time>2021-05-22T06:41:19Z</time>
      </trkpt>
      <trkpt lat="42.4407460" lon="-8.6426450">
        <ele>16.9</ele>
        <time>2021-05-22T06:41:20Z</time>
      </trkpt>
      <trkpt lat="42.4407560" lon="-8.6426520">
        <ele>17.0</ele>
        <time>2021-05-22T06:41:21Z</time>
      </trkpt>
      <trkpt lat="42.4407660" lon="-8.6426570">
        <ele>17.0</ele>
        <time>2021-05-22T06:41:22Z</time>
      </trkpt>
      <trkpt lat="42.4407750" lon="-8.6426580">
        <ele>17.0</ele>
        <time>2021-05-22T06:41:23Z</time>
      </trkpt>
      <trkpt lat="42.4407810" lon="-8.6426520">
        <ele>17.0</ele>
        <time>2021-05-22T06:41:24Z</time>
      </trkpt>
      <trkpt lat="42.4407880" lon="-8.6426550">
        <ele>17.1</ele>
        <time>2021-05-22T06:41:25Z</time>
      </trkpt>
      <trkpt lat="42.4407970" lon="-8.6426670">
        <ele>17.1</ele>
        <time>2021-05-22T06:41:26Z</time>
      </trkpt>
      <trkpt lat="42.4408090" lon="-8.6426800">
        <ele>17.1</ele>
        <time>2021-05-22T06:41:27Z</time>
      </trkpt>
      <trkpt lat="42.4408280" lon="-8.6426910">
        <ele>17.2</ele>
        <time>2021-05-22T06:41:28Z</time>
      </trkpt>
      <trkpt lat="42.4408360" lon="-8.6426950">
        <ele>17.2</ele>
        <time>2021-05-22T06:41:29Z</time>
      </trkpt>
      <trkpt lat="42.4408430" lon="-8.6427000">
        <ele>17.2</ele>
        <time>2021-05-22T06:41:30Z</time>
      </trkpt>
      <trkpt lat="42.4408500" lon="-8.6427090">
        <ele>17.3</ele>
        <time>2021-05-22T06:41:31Z</time>
      </trkpt>
      <trkpt lat="42.4408620" lon="-8.6427220">
        <ele>17.3</ele>
        <time>2021-05-22T06:41:32Z</time>
      </trkpt>
      <trkpt lat="42.4408700" lon="-8.6427320">
        <ele>17.3</ele>
        <time>2021-05-22T06:41:33Z</time>
      </trkpt>
      <trkpt lat="42.4408830" lon="-8.6427490">
        <ele>17.4</ele>
        <time>2021-05-22T06:41:34Z</time>
      </trkpt>
      <trkpt lat="42.4408970" lon="-8.6427580">
        <ele>17.4</ele>
        <time>2021-05-22T06:41:35Z</time>
      </trkpt>
      <trkpt lat="42.4409030" lon="-8.6427570">
        <ele>17.4</ele>
        <time>2021-05-22T06:41:36Z</time>
      </trkpt>
      <trkpt lat="42.4409110" lon="-8.6427680">
        <ele>17.4</ele>
        <time>2021-05-22T06:41:37Z</time>
      </trkpt>
      <trkpt lat="42.4409090" lon="-8.6427760">
        <ele>17.5</ele>
        <time>2021-05-22T06:41:38Z</time>
      </trkpt>
      <trkpt lat="42.4409150" lon="-8.6427840">
        <ele>17.5</ele>
        <time>2021-05-22T06:41:39Z</time>
      </trkpt>
      <trkpt lat="42.4409230" lon="-8.6427910">
        <ele>17.5</ele>
        <time>2021-05-22T06:41:40Z</time>
      </trkpt>
      <trkpt lat="42.4409310" lon="-8.6427990">
        <ele>17.5</ele>
        <time>2021-05-22T06:41:41Z</time>
      </trkpt>
      <trkpt lat="42.4409350" lon="-8.6427990">
        <ele>17.5</ele>
        <time>2021-05-22T06:41:42Z</time>
      </trkpt>
      <trkpt lat="42.4409470" lon="-8.6428040">
        <ele>17.6</ele>
        <time>2021-05-22T06:41:43Z</time>
      </trkpt>
      <trkpt lat="42.4409510" lon="-8.6428050">
        <ele>17.6</ele>
        <time>2021-05-22T06:41:44Z</time>
      </trkpt>
      <trkpt lat="42.4409660" lon="-8.6428040">
        <ele>17.6</ele>
        <time>2021-05-22T06:41:45Z</time>
      </trkpt>
      <trkpt lat="42.4409750" lon="-8.6428040">
        <ele>17.6</ele>
        <time>2021-05-22T06:41:46Z</time>
      </trkpt>
      <trkpt lat="42.4409810" lon="-8.6428080">
        <ele>17.6</ele>
        <time>2021-05-22T06:41:47Z</time>
      </trkpt>
      <trkpt lat="42.4410010" lon="-8.6428220">
        <ele>17.6</ele>
        <time>2021-05-22T06:41:48Z</time>
      </trkpt>
      <trkpt lat="42.4410090" lon="-8.6428280">
        <ele>17.6</ele>
        <time>2021-05-22T06:41:49Z</time>
      </trkpt>
      <trkpt lat="42.4410180" lon="-8.6428340">
        <ele>17.6</ele>
        <time>2021-05-22T06:41:50Z</time>
      </trkpt>
      <trkpt lat="42.4410420" lon="-8.6428590">
        <ele>17.6</ele>
        <time>2021-05-22T06:41:51Z</time>
      </trkpt>
      <trkpt lat="42.4410520" lon="-8.6428710">
        <ele>17.6</ele>
        <time>2021-05-22T06:41:52Z</time>
      </trkpt>
      <trkpt lat="42.4410580" lon="-8.6429120">
        <ele>17.6</ele>
        <time>2021-05-22T06:41:53Z</time>
      </trkpt>
      <trkpt lat="42.4410650" lon="-8.6429360">
        <ele>17.6</ele>
        <time>2021-05-22T06:41:54Z</time>
      </trkpt>
      <trkpt lat="42.4410710" lon="-8.6429460">
        <ele>17.6</ele>
        <time>2021-05-22T06:41:55Z</time>
      </trkpt>
      <trkpt lat="42.4410800" lon="-8.6429600">
        <ele>17.6</ele>
        <time>2021-05-22T06:41:56Z</time>
      </trkpt>
      <trkpt lat="42.4410940" lon="-8.6429720">
        <ele>17.6</ele>
        <time>2021-05-22T06:41:57Z</time>
      </trkpt>
      <trkpt lat="42.4411060" lon="-8.6429770">
        <ele>17.6</ele>
        <time>2021-05-22T06:41:58Z</time>
      </trkpt>
      <trkpt lat="42.4411240" lon="-8.6429930">
        <ele>17.6</ele>
        <time>2021-05-22T06:41:59Z</time>
      </trkpt>
      <trkpt lat="42.4411420" lon="-8.6429950">
        <ele>17.5</ele>
        <time>2021-05-22T06:42:00Z</time>
      </trkpt>
      <trkpt lat="42.4411490" lon="-8.6429950">
        <ele>17.5</ele>
        <time>2021-05-22T06:42:01Z</time>
      </trkpt>
      <trkpt lat="42.4411570" lon="-8.6429960">
        <ele>17.5</ele>
        <time>2021-05-22T06:42:02Z</time>
      </trkpt>
      <trkpt lat="42.4411650" lon="-8.6429960">
        <ele>17.5</ele>
        <time>2021-05-22T06:42:03Z</time>
      </trkpt>
      <trkpt lat="42.4411720" lon="-8.6429900">
        <ele>17.5</ele>
        <time>2021-05-22T06:42:04Z</time>
      </trkpt>
      <trkpt lat="42.4411900" lon="-8.6430010">
        <ele>17.5</ele>
        <time>2021-05-22T06:42:05Z</time>
      </trkpt>
      <trkpt lat="42.4412000" lon="-8.6430000">
        <ele>17.4</ele>
        <time>2021-05-22T06:42:06Z</time>
      </trkpt>
      <trkpt lat="42.4412280" lon="-8.6430100">
        <ele>17.4</ele>
        <time>2021-05-22T06:42:07Z</time>
      </trkpt>
      <trkpt lat="42.4412390" lon="-8.6430150">
        <ele>17.4</ele>
        <time>2021-05-22T06:42:08Z</time>
      </trkpt>
      <trkpt lat="42.4412510" lon="-8.6430190">
        <ele>17.3</ele>
        <time>2021-05-22T06:42:09Z</time>
      </trkpt>
      <trkpt lat="42.4412700" lon="-8.6430300">
        <ele>17.3</ele>
        <time>2021-05-22T06:42:10Z</time>
      </trkpt>
      <trkpt lat="42.4412770" lon="-8.6430360">
        <ele>17.3</ele>
        <time>2021-05-22T06:42:11Z</time>
      </trkpt>
      <trkpt lat="42.4412850" lon="-8.6430410">
        <ele>17.2</ele>
        <time>2021-05-22T06:42:12Z</time>
      </trkpt>
      <trkpt lat="42.4412920" lon="-8.6430400">
        <ele>17.2</ele>
        <time>2021-05-22T06:42:13Z</time>
      </trkpt>
      <trkpt lat="42.4413080" lon="-8.6430440">
        <ele>17.2</ele>
        <time>2021-05-22T06:42:14Z</time>
      </trkpt>
      <trkpt lat="42.4413190" lon="-8.6430340">
        <ele>17.2</ele>
        <time>2021-05-22T06:42:15Z</time>
      </trkpt>
      <trkpt lat="42.4413260" lon="-8.6430380">
        <ele>17.1</ele>
        <time>2021-05-22T06:42:16Z</time>
      </trkpt>
      <trkpt lat="42.4413370" lon="-8.6430440">
        <ele>17.1</ele>
        <time>2021-05-22T06:42:17Z</time>
      </trkpt>
      <trkpt lat="42.4413480" lon="-8.6430490">
        <ele>17.1</ele>
        <time>2021-05-22T06:42:18Z</time>
      </trkpt>
      <trkpt lat="42.4413590" lon="-8.6430400">
        <ele>17.1</ele>
        <time>2021-05-22T06:42:19Z</time>
      </trkpt>
      <trkpt lat="42.4413800" lon="-8.6430590">
        <ele>17.0</ele>
        <time>2021-05-22T06:42:20Z</time>
      </trkpt>
      <trkpt lat="42.4414120" lon="-8.6430590">
        <ele>16.9</ele>
        <time>2021-05-22T06:42:21Z</time>
      </trkpt>
      <trkpt lat="42.4414290" lon="-8.6430550">
        <ele>16.9</ele>
        <time>2021-05-22T06:42:22Z</time>
      </trkpt>
      <trkpt lat="42.4414420" lon="-8.6430520">
        <ele>16.9</ele>
        <time>2021-05-22T06:42:23Z</time>
      </trkpt>
      <trkpt lat="42.4414770" lon="-8.6430550">
        <ele>16.8</ele>
        <time>2021-05-22T06:42:24Z</time>
      </trkpt>
      <trkpt lat="42.4414940" lon="-8.6430490">
        <ele>16.8</ele>
        <time>2021-05-22T06:42:25Z</time>
      </trkpt>
      <trkpt lat="42.4415050" lon="-8.6430520">
        <ele>16.7</ele>
        <time>2021-05-22T06:42:26Z</time>
      </trkpt>
      <trkpt lat="42.4415150" lon="-8.6430540">
        <ele>16.7</ele>
        <time>2021-05-22T06:42:27Z</time>
      </trkpt>
      <trkpt lat="42.4415360" lon="-8.6430540">
        <ele>16.7</ele>
        <time>2021-05-22T06:42:28Z</time>
      </trkpt>
      <trkpt lat="42.4415430" lon="-8.6430420">
        <ele>16.7</ele>
        <time>2021-05-22T06:42:29Z</time>
      </trkpt>
      <trkpt lat="42.4415550" lon="-8.6430390">
        <ele>16.6</ele>
        <time>2021-05-22T06:42:30Z</time>
      </trkpt>
      <trkpt lat="42.4415660" lon="-8.6430280">
        <ele>16.6</ele>
        <time>2021-05-22T06:42:31Z</time>
      </trkpt>
      <trkpt lat="42.4415710" lon="-8.6430210">
        <ele>16.6</ele>
        <time>2021-05-22T06:42:32Z</time>
      </trkpt>
      <trkpt lat="42.4415770" lon="-8.6430210">
        <ele>16.6</ele>
        <time>2021-05-22T06:42:33Z</time>
      </trkpt>
      <trkpt lat="42.4415900" lon="-8.6430120">
        <ele>16.6</ele>
        <time>2021-05-22T06:42:34Z</time>
      </trkpt>
      <trkpt lat="42.4415890" lon="-8.6429990">
        <ele>16.5</ele>
        <time>2021-05-22T06:42:35Z</time>
      </trkpt>
      <trkpt lat="42.4415920" lon="-8.6429870">
        <ele>16.5</ele>
        <time>2021-05-22T06:42:36Z</time>
      </trkpt>
      <trkpt lat="42.4415980" lon="-8.6429770">
        <ele>16.5</ele>
        <time>2021-05-22T06:42:37Z</time>
      </trkpt>
      <trkpt lat="42.4416160" lon="-8.6429710">
        <ele>16.5</ele>
        <time>2021-05-22T06:42:38Z</time>
      </trkpt>
      <trkpt lat="42.4416230" lon="-8.6429600">
        <ele>16.5</ele>
        <time>2021-05-22T06:42:39Z</time>
      </trkpt>
      <trkpt lat="42.4416280" lon="-8.6429540">
        <ele>16.5</ele>
        <time>2021-05-22T06:42:40Z</time>
      </trkpt>
      <trkpt lat="42.4416390" lon="-8.6429450">
        <ele>16.4</ele>
        <time>2021-05-22T06:42:41Z</time>
      </trkpt>
      <trkpt lat="42.4416520" lon="-8.6429480">
        <ele>16.4</ele>
        <time>2021-05-22T06:42:42Z</time>
      </trkpt>
      <trkpt lat="42.4416750" lon="-8.6429600">
        <ele>16.4</ele>
        <time>2021-05-22T06:42:44Z</time>
      </trkpt>
      <trkpt lat="42.4416860" lon="-8.6429690">
        <ele>16.4</ele>
        <time>2021-05-22T06:42:45Z</time>
      </trkpt>
      <trkpt lat="42.4417070" lon="-8.6429630">
        <ele>16.3</ele>
        <time>2021-05-22T06:42:46Z</time>
      </trkpt>
      <trkpt lat="42.4417180" lon="-8.6429730">
        <ele>16.3</ele>
        <time>2021-05-22T06:42:47Z</time>
      </trkpt>
      <trkpt lat="42.4417300" lon="-8.6429670">
        <ele>16.3</ele>
        <time>2021-05-22T06:42:48Z</time>
      </trkpt>
      <trkpt lat="42.4417350" lon="-8.6429730">
        <ele>16.3</ele>
        <time>2021-05-22T06:42:49Z</time>
      </trkpt>
      <trkpt lat="42.4417550" lon="-8.6429760">
        <ele>16.3</ele>
        <time>2021-05-22T06:42:50Z</time>
      </trkpt>
      <trkpt lat="42.4417620" lon="-8.6429940">
        <ele>16.2</ele>
        <time>2021-05-22T06:42:51Z</time>
      </trkpt>
      <trkpt lat="42.4417700" lon="-8.6430100">
        <ele>16.2</ele>
        <time>2021-05-22T06:42:52Z</time>
      </trkpt>
      <trkpt lat="42.4417860" lon="-8.6430140">
        <ele>16.2</ele>
        <time>2021-05-22T06:42:53Z</time>
      </trkpt>
      <trkpt lat="42.4418060" lon="-8.6430130">
        <ele>16.2</ele>
        <time>2021-05-22T06:42:54Z</time>
      </trkpt>
      <trkpt lat="42.4418160" lon="-8.6430140">
        <ele>16.2</ele>
        <time>2021-05-22T06:42:55Z</time>
      </trkpt>
      <trkpt lat="42.4418230" lon="-8.6430110">
        <ele>16.2</ele>
        <time>2021-05-22T06:42:56Z</time>
      </trkpt>
      <trkpt lat="42.4418380" lon="-8.6430080">
        <ele>16.2</ele>
        <time>2021-05-22T06:42:57Z</time>
      </trkpt>
      <trkpt lat="42.4418510" lon="-8.6430080">
        <ele>16.1</ele>
        <time>2021-05-22T06:42:58Z</time>
      </trkpt>
      <trkpt lat="42.4418640" lon="-8.6430050">
        <ele>16.1</ele>
        <time>2021-05-22T06:42:59Z</time>
      </trkpt>
      <trkpt lat="42.4418820" lon="-8.6430100">
        <ele>16.1</ele>
        <time>2021-05-22T06:43:00Z</time>
      </trkpt>
      <trkpt lat="42.4418940" lon="-8.6430100">
        <ele>16.1</ele>
        <time>2021-05-22T06:43:01Z</time>
      </trkpt>
      <trkpt lat="42.4419130" lon="-8.6430110">
        <ele>16.1</ele>
        <time>2021-05-22T06:43:02Z</time>
      </trkpt>
      <trkpt lat="42.4419360" lon="-8.6430150">
        <ele>16.0</ele>
        <time>2021-05-22T06:43:03Z</time>
      </trkpt>
      <trkpt lat="42.4419430" lon="-8.6430180">
        <ele>16.0</ele>
        <time>2021-05-22T06:43:04Z</time>
      </trkpt>
      <trkpt lat="42.4419500" lon="-8.6430210">
        <ele>16.0</ele>
        <time>2021-05-22T06:43:05Z</time>
      </trkpt>
      <trkpt lat="42.4419610" lon="-8.6430260">
        <ele>16.0</ele>
        <time>2021-05-22T06:43:06Z</time>
      </trkpt>
      <trkpt lat="42.4419790" lon="-8.6430350">
        <ele>16.0</ele>
        <time>2021-05-22T06:43:07Z</time>
      </trkpt>
      <trkpt lat="42.4419930" lon="-8.6430320">
        <ele>16.0</ele>
        <time>2021-05-22T06:43:08Z</time>
      </trkpt>
      <trkpt lat="42.4420000" lon="-8.6430440">
        <ele>16.0</ele>
        <time>2021-05-22T06:43:09Z</time>
      </trkpt>
      <trkpt lat="42.4420130" lon="-8.6430490">
        <ele>15.9</ele>
        <time>2021-05-22T06:43:10Z</time>
      </trkpt>
      <trkpt lat="42.4420300" lon="-8.6430500">
        <ele>15.9</ele>
        <time>2021-05-22T06:43:11Z</time>
      </trkpt>
      <trkpt lat="42.4420440" lon="-8.6430510">
        <ele>15.9</ele>
        <time>2021-05-22T06:43:12Z</time>
      </trkpt>
      <trkpt lat="42.4420550" lon="-8.6430550">
        <ele>15.9</ele>
        <time>2021-05-22T06:43:13Z</time>
      </trkpt>
      <trkpt lat="42.4420550" lon="-8.6430520">
        <ele>15.9</ele>
        <time>2021-05-22T06:43:14Z</time>
      </trkpt>
      <trkpt lat="42.4420720" lon="-8.6430580">
        <ele>15.9</ele>
        <time>2021-05-22T06:43:15Z</time>
      </trkpt>
      <trkpt lat="42.4420780" lon="-8.6430610">
        <ele>15.9</ele>
        <time>2021-05-22T06:43:16Z</time>
      </trkpt>
      <trkpt lat="42.4421030" lon="-8.6430740">
        <ele>15.8</ele>
        <time>2021-05-22T06:43:17Z</time>
      </trkpt>
      <trkpt lat="42.4421110" lon="-8.6430790">
        <ele>15.8</ele>
        <time>2021-05-22T06:43:18Z</time>
      </trkpt>
      <trkpt lat="42.4421210" lon="-8.6430780">
        <ele>15.8</ele>
        <time>2021-05-22T06:43:19Z</time>
      </trkpt>
      <trkpt lat="42.4421350" lon="-8.6430780">
        <ele>15.8</ele>
        <time>2021-05-22T06:43:20Z</time>
      </trkpt>
      <trkpt lat="42.4421510" lon="-8.6430880">
        <ele>15.7</ele>
        <time>2021-05-22T06:43:21Z</time>
      </trkpt>
      <trkpt lat="42.4421640" lon="-8.6430980">
        <ele>15.7</ele>
        <time>2021-05-22T06:43:22Z</time>
      </trkpt>
      <trkpt lat="42.4421960" lon="-8.6430930">
        <ele>15.6</ele>
        <time>2021-05-22T06:43:24Z</time>
      </trkpt>
      <trkpt lat="42.4422090" lon="-8.6430950">
        <ele>15.6</ele>
        <time>2021-05-22T06:43:25Z</time>
      </trkpt>
      <trkpt lat="42.4422230" lon="-8.6430920">
        <ele>15.6</ele>
        <time>2021-05-22T06:43:27Z</time>
      </trkpt>
      <trkpt lat="42.4422250" lon="-8.6430900">
        <ele>15.6</ele>
        <time>2021-05-22T06:43:28Z</time>
      </trkpt>
      <trkpt lat="42.4422450" lon="-8.6430940">
        <ele>15.5</ele>
        <time>2021-05-22T06:43:29Z</time>
      </trkpt>
      <trkpt lat="42.4422540" lon="-8.6430940">
        <ele>15.5</ele>
        <time>2021-05-22T06:43:30Z</time>
      </trkpt>
      <trkpt lat="42.4422640" lon="-8.6430950">
        <ele>15.5</ele>
        <time>2021-05-22T06:43:31Z</time>
      </trkpt>
      <trkpt lat="42.4422780" lon="-8.6430980">
        <ele>15.4</ele>
        <time>2021-05-22T06:43:32Z</time>
      </trkpt>
      <trkpt lat="42.4422950" lon="-8.6431000">
        <ele>15.4</ele>
        <time>2021-05-22T06:43:33Z</time>
      </trkpt>
      <trkpt lat="42.4423100" lon="-8.6431060">
        <ele>15.3</ele>
        <time>2021-05-22T06:43:34Z</time>
      </trkpt>
      <trkpt lat="42.4423230" lon="-8.6431070">
        <ele>15.2</ele>
        <time>2021-05-22T06:43:35Z</time>
      </trkpt>
      <trkpt lat="42.4423410" lon="-8.6431170">
        <ele>15.2</ele>
        <time>2021-05-22T06:43:36Z</time>
      </trkpt>
      <trkpt lat="42.4423570" lon="-8.6431210">
        <ele>15.1</ele>
        <time>2021-05-22T06:43:37Z</time>
      </trkpt>
      <trkpt lat="42.4423780" lon="-8.6431210">
        <ele>15.0</ele>
        <time>2021-05-22T06:43:38Z</time>
      </trkpt>
      <trkpt lat="42.4423730" lon="-8.6431300">
        <ele>14.9</ele>
        <time>2021-05-22T06:43:39Z</time>
      </trkpt>
      <trkpt lat="42.4423720" lon="-8.6431360">
        <ele>14.9</ele>
        <time>2021-05-22T06:43:40Z</time>
      </trkpt>
      <trkpt lat="42.4423790" lon="-8.6431500">
        <ele>14.9</ele>
        <time>2021-05-22T06:43:41Z</time>
      </trkpt>
      <trkpt lat="42.4424140" lon="-8.6431530">
        <ele>14.7</ele>
        <time>2021-05-22T06:43:42Z</time>
      </trkpt>
      <trkpt lat="42.4424400" lon="-8.6431640">
        <ele>14.5</ele>
        <time>2021-05-22T06:43:43Z</time>
      </trkpt>
      <trkpt lat="42.4424510" lon="-8.6431690">
        <ele>14.4</ele>
        <time>2021-05-22T06:43:44Z</time>
      </trkpt>
      <trkpt lat="42.4424830" lon="-8.6431740">
        <ele>14.2</ele>
        <time>2021-05-22T06:43:45Z</time>
      </trkpt>
      <trkpt lat="42.4424910" lon="-8.6431760">
        <ele>14.2</ele>
        <time>2021-05-22T06:43:46Z</time>
      </trkpt>
      <trkpt lat="42.4425100" lon="-8.6431880">
        <ele>14.1</ele>
        <time>2021-05-22T06:43:47Z</time>
      </trkpt>
      <trkpt lat="42.4425160" lon="-8.6431880">
        <ele>14.0</ele>
        <time>2021-05-22T06:43:48Z</time>
      </trkpt>
      <trkpt lat="42.4425180" lon="-8.6431820">
        <ele>14.0</ele>
        <time>2021-05-22T06:43:49Z</time>
      </trkpt>
      <trkpt lat="42.4425390" lon="-8.6431880">
        <ele>13.9</ele>
        <time>2021-05-22T06:43:50Z</time>
      </trkpt>
      <trkpt lat="42.4425470" lon="-8.6431900">
        <ele>13.8</ele>
        <time>2021-05-22T06:43:51Z</time>
      </trkpt>
      <trkpt lat="42.4425550" lon="-8.6431910">
        <ele>13.8</ele>
        <time>2021-05-22T06:43:52Z</time>
      </trkpt>
      <trkpt lat="42.4425660" lon="-8.6431970">
        <ele>13.7</ele>
        <time>2021-05-22T06:43:53Z</time>
      </trkpt>
      <trkpt lat="42.4425750" lon="-8.6432010">
        <ele>13.6</ele>
        <time>2021-05-22T06:43:54Z</time>
      </trkpt>
      <trkpt lat="42.4425830" lon="-8.6432060">
        <ele>13.6</ele>
        <time>2021-05-22T06:43:55Z</time>
      </trkpt>
      <trkpt lat="42.4425920" lon="-8.6432100">
        <ele>13.5</ele>
        <time>2021-05-22T06:43:56Z</time>
      </trkpt>
      <trkpt lat="42.4426000" lon="-8.6432190">
        <ele>13.5</ele>
        <time>2021-05-22T06:43:57Z</time>
      </trkpt>
      <trkpt lat="42.4426100" lon="-8.6432160">
        <ele>13.4</ele>
        <time>2021-05-22T06:43:58Z</time>
      </trkpt>
      <trkpt lat="42.4426190" lon="-8.6432190">
        <ele>13.4</ele>
        <time>2021-05-22T06:43:59Z</time>
      </trkpt>
      <trkpt lat="42.4426380" lon="-8.6432330">
        <ele>13.2</ele>
        <time>2021-05-22T06:44:00Z</time>
      </trkpt>
      <trkpt lat="42.4426460" lon="-8.6432390">
        <ele>13.2</ele>
        <time>2021-05-22T06:44:01Z</time>
      </trkpt>
      <trkpt lat="42.4426530" lon="-8.6432460">
        <ele>13.1</ele>
        <time>2021-05-22T06:44:02Z</time>
      </trkpt>
      <trkpt lat="42.4426590" lon="-8.6432520">
        <ele>13.1</ele>
        <time>2021-05-22T06:44:03Z</time>
      </trkpt>
      <trkpt lat="42.4426660" lon="-8.6432550">
        <ele>13.0</ele>
        <time>2021-05-22T06:44:04Z</time>
      </trkpt>
      <trkpt lat="42.4426730" lon="-8.6432600">
        <ele>13.0</ele>
        <time>2021-05-22T06:44:05Z</time>
      </trkpt>
      <trkpt lat="42.4426810" lon="-8.6432670">
        <ele>12.9</ele>
        <time>2021-05-22T06:44:06Z</time>
      </trkpt>
      <trkpt lat="42.4426960" lon="-8.6432750">
        <ele>12.8</ele>
        <time>2021-05-22T06:44:07Z</time>
      </trkpt>
      <trkpt lat="42.4427100" lon="-8.6432840">
        <ele>12.7</ele>
        <time>2021-05-22T06:44:08Z</time>
      </trkpt>
      <trkpt lat="42.4427260" lon="-8.6432900">
        <ele>12.6</ele>
        <time>2021-05-22T06:44:09Z</time>
      </trkpt>
      <trkpt lat="42.4427380" lon="-8.6432970">
        <ele>12.6</ele>
        <time>2021-05-22T06:44:10Z</time>
      </trkpt>
      <trkpt lat="42.4427500" lon="-8.6433040">
        <ele>12.5</ele>
        <time>2021-05-22T06:44:11Z</time>
      </trkpt>
      <trkpt lat="42.4427590" lon="-8.6433030">
        <ele>12.4</ele>
        <time>2021-05-22T06:44:12Z</time>
      </trkpt>
      <trkpt lat="42.4427670" lon="-8.6433080">
        <ele>12.4</ele>
        <time>2021-05-22T06:44:13Z</time>
      </trkpt>
      <trkpt lat="42.4427860" lon="-8.6433180">
        <ele>12.3</ele>
        <time>2021-05-22T06:44:14Z</time>
      </trkpt>
      <trkpt lat="42.4427940" lon="-8.6433240">
        <ele>12.2</ele>
        <time>2021-05-22T06:44:15Z</time>
      </trkpt>
      <trkpt lat="42.4428030" lon="-8.6433310">
        <ele>12.2</ele>
        <time>2021-05-22T06:44:16Z</time>
      </trkpt>
      <trkpt lat="42.4428220" lon="-8.6433350">
        <ele>12.1</ele>
        <time>2021-05-22T06:44:17Z</time>
      </trkpt>
      <trkpt lat="42.4428370" lon="-8.6433440">
        <ele>12.0</ele>
        <time>2021-05-22T06:44:18Z</time>
      </trkpt>
      <trkpt lat="42.4428530" lon="-8.6433420">
        <ele>11.9</ele>
        <time>2021-05-22T06:44:19Z</time>
      </trkpt>
      <trkpt lat="42.4428720" lon="-8.6433390">
        <ele>11.8</ele>
        <time>2021-05-22T06:44:20Z</time>
      </trkpt>
      <trkpt lat="42.4428880" lon="-8.6433430">
        <ele>11.7</ele>
        <time>2021-05-22T06:44:21Z</time>
      </trkpt>
      <trkpt lat="42.4428970" lon="-8.6433450">
        <ele>11.7</ele>
        <time>2021-05-22T06:44:22Z</time>
      </trkpt>
      <trkpt lat="42.4429060" lon="-8.6433520">
        <ele>11.6</ele>
        <time>2021-05-22T06:44:23Z</time>
      </trkpt>
      <trkpt lat="42.4429200" lon="-8.6433660">
        <ele>11.5</ele>
        <time>2021-05-22T06:44:24Z</time>
      </trkpt>
      <trkpt lat="42.4429280" lon="-8.6433740">
        <ele>11.5</ele>
        <time>2021-05-22T06:44:25Z</time>
      </trkpt>
      <trkpt lat="42.4429450" lon="-8.6433850">
        <ele>11.4</ele>
        <time>2021-05-22T06:44:26Z</time>
      </trkpt>
      <trkpt lat="42.4429570" lon="-8.6433890">
        <ele>11.3</ele>
        <time>2021-05-22T06:44:27Z</time>
      </trkpt>
      <trkpt lat="42.4429680" lon="-8.6433920">
        <ele>11.2</ele>
        <time>2021-05-22T06:44:28Z</time>
      </trkpt>
      <trkpt lat="42.4429940" lon="-8.6433960">
        <ele>11.1</ele>
        <time>2021-05-22T06:44:29Z</time>
      </trkpt>
      <trkpt lat="42.4430060" lon="-8.6433950">
        <ele>11.1</ele>
        <time>2021-05-22T06:44:30Z</time>
      </trkpt>
      <trkpt lat="42.4430220" lon="-8.6433960">
        <ele>11.0</ele>
        <time>2021-05-22T06:44:31Z</time>
      </trkpt>
      <trkpt lat="42.4430320" lon="-8.6434050">
        <ele>10.9</ele>
        <time>2021-05-22T06:44:32Z</time>
      </trkpt>
      <trkpt lat="42.4430450" lon="-8.6434160">
        <ele>10.9</ele>
        <time>2021-05-22T06:44:33Z</time>
      </trkpt>
      <trkpt lat="42.4430540" lon="-8.6434030">
        <ele>10.8</ele>
        <time>2021-05-22T06:44:34Z</time>
      </trkpt>
      <trkpt lat="42.4430630" lon="-8.6434060">
        <ele>10.8</ele>
        <time>2021-05-22T06:44:35Z</time>
      </trkpt>
      <trkpt lat="42.4430700" lon="-8.6433980">
        <ele>10.7</ele>
        <time>2021-05-22T06:44:36Z</time>
      </trkpt>
      <trkpt lat="42.4430790" lon="-8.6433990">
        <ele>10.7</ele>
        <time>2021-05-22T06:44:37Z</time>
      </trkpt>
      <trkpt lat="42.4430960" lon="-8.6434040">
        <ele>10.6</ele>
        <time>2021-05-22T06:44:38Z</time>
      </trkpt>
      <trkpt lat="42.4431120" lon="-8.6434130">
        <ele>10.6</ele>
        <time>2021-05-22T06:44:39Z</time>
      </trkpt>
      <trkpt lat="42.4431230" lon="-8.6434140">
        <ele>10.5</ele>
        <time>2021-05-22T06:44:40Z</time>
      </trkpt>
      <trkpt lat="42.4431460" lon="-8.6434240">
        <ele>10.4</ele>
        <time>2021-05-22T06:44:41Z</time>
      </trkpt>
      <trkpt lat="42.4431560" lon="-8.6434300">
        <ele>10.4</ele>
        <time>2021-05-22T06:44:42Z</time>
      </trkpt>
      <trkpt lat="42.4431670" lon="-8.6434360">
        <ele>10.3</ele>
        <time>2021-05-22T06:44:43Z</time>
      </trkpt>
      <trkpt lat="42.4431820" lon="-8.6434470">
        <ele>10.3</ele>
        <time>2021-05-22T06:44:44Z</time>
      </trkpt>
      <trkpt lat="42.4432010" lon="-8.6434500">
        <ele>10.2</ele>
        <time>2021-05-22T06:44:45Z</time>
      </trkpt>
      <trkpt lat="42.4432230" lon="-8.6434570">
        <ele>10.1</ele>
        <time>2021-05-22T06:44:46Z</time>
      </trkpt>
      <trkpt lat="42.4432330" lon="-8.6434610">
        <ele>10.1</ele>
        <time>2021-05-22T06:44:47Z</time>
      </trkpt>
      <trkpt lat="42.4432440" lon="-8.6434640">
        <ele>10.0</ele>
        <time>2021-05-22T06:44:48Z</time>
      </trkpt>
      <trkpt lat="42.4432620" lon="-8.6434670">
        <ele>10.0</ele>
        <time>2021-05-22T06:44:49Z</time>
      </trkpt>
      <trkpt lat="42.4432770" lon="-8.6434670">
        <ele>9.9</ele>
        <time>2021-05-22T06:44:50Z</time>
      </trkpt>
      <trkpt lat="42.4433010" lon="-8.6434850">
        <ele>9.8</ele>
        <time>2021-05-22T06:44:51Z</time>
      </trkpt>
      <trkpt lat="42.4433100" lon="-8.6434900">
        <ele>9.8</ele>
        <time>2021-05-22T06:44:52Z</time>
      </trkpt>
      <trkpt lat="42.4433180" lon="-8.6434940">
        <ele>9.7</ele>
        <time>2021-05-22T06:44:53Z</time>
      </trkpt>
      <trkpt lat="42.4433260" lon="-8.6434930">
        <ele>9.7</ele>
        <time>2021-05-22T06:44:54Z</time>
      </trkpt>
      <trkpt lat="42.4433370" lon="-8.6434980">
        <ele>9.7</ele>
        <time>2021-05-22T06:44:55Z</time>
      </trkpt>
      <trkpt lat="42.4433480" lon="-8.6435090">
        <ele>9.6</ele>
        <time>2021-05-22T06:44:56Z</time>
      </trkpt>
      <trkpt lat="42.4433630" lon="-8.6435210">
        <ele>9.6</ele>
        <time>2021-05-22T06:44:57Z</time>
      </trkpt>
      <trkpt lat="42.4433800" lon="-8.6435260">
        <ele>9.5</ele>
        <time>2021-05-22T06:44:58Z</time>
      </trkpt>
      <trkpt lat="42.4433890" lon="-8.6435350">
        <ele>9.5</ele>
        <time>2021-05-22T06:44:59Z</time>
      </trkpt>
      <trkpt lat="42.4433970" lon="-8.6435310">
        <ele>9.4</ele>
        <time>2021-05-22T06:45:00Z</time>
      </trkpt>
      <trkpt lat="42.4434090" lon="-8.6435310">
        <ele>9.4</ele>
        <time>2021-05-22T06:45:01Z</time>
      </trkpt>
      <trkpt lat="42.4434180" lon="-8.6435330">
        <ele>9.3</ele>
        <time>2021-05-22T06:45:02Z</time>
      </trkpt>
      <trkpt lat="42.4434300" lon="-8.6435410">
        <ele>9.3</ele>
        <time>2021-05-22T06:45:03Z</time>
      </trkpt>
      <trkpt lat="42.4434450" lon="-8.6435440">
        <ele>9.2</ele>
        <time>2021-05-22T06:45:04Z</time>
      </trkpt>
      <trkpt lat="42.4434620" lon="-8.6435550">
        <ele>9.2</ele>
        <time>2021-05-22T06:45:05Z</time>
      </trkpt>
      <trkpt lat="42.4434720" lon="-8.6435590">
        <ele>9.1</ele>
        <time>2021-05-22T06:45:06Z</time>
      </trkpt>
      <trkpt lat="42.4434860" lon="-8.6435590">
        <ele>9.1</ele>
        <time>2021-05-22T06:45:07Z</time>
      </trkpt>
      <trkpt lat="42.4434910" lon="-8.6435560">
        <ele>9.1</ele>
        <time>2021-05-22T06:45:08Z</time>
      </trkpt>
      <trkpt lat="42.4435070" lon="-8.6435530">
        <ele>9.0</ele>
        <time>2021-05-22T06:45:09Z</time>
      </trkpt>
      <trkpt lat="42.4435190" lon="-8.6435560">
        <ele>9.0</ele>
        <time>2021-05-22T06:45:10Z</time>
      </trkpt>
      <trkpt lat="42.4435290" lon="-8.6435620">
        <ele>8.9</ele>
        <time>2021-05-22T06:45:11Z</time>
      </trkpt>
      <trkpt lat="42.4435370" lon="-8.6435670">
        <ele>8.9</ele>
        <time>2021-05-22T06:45:12Z</time>
      </trkpt>
      <trkpt lat="42.4435460" lon="-8.6435700">
        <ele>8.9</ele>
        <time>2021-05-22T06:45:13Z</time>
      </trkpt>
      <trkpt lat="42.4435640" lon="-8.6435800">
        <ele>8.8</ele>
        <time>2021-05-22T06:45:14Z</time>
      </trkpt>
      <trkpt lat="42.4435840" lon="-8.6435910">
        <ele>8.7</ele>
        <time>2021-05-22T06:45:15Z</time>
      </trkpt>
      <trkpt lat="42.4435930" lon="-8.6435950">
        <ele>8.7</ele>
        <time>2021-05-22T06:45:16Z</time>
      </trkpt>
      <trkpt lat="42.4436020" lon="-8.6435990">
        <ele>8.7</ele>
        <time>2021-05-22T06:45:17Z</time>
      </trkpt>
      <trkpt lat="42.4436210" lon="-8.6436050">
        <ele>8.6</ele>
        <time>2021-05-22T06:45:18Z</time>
      </trkpt>
      <trkpt lat="42.4436300" lon="-8.6436070">
        <ele>8.6</ele>
        <time>2021-05-22T06:45:19Z</time>
      </trkpt>
      <trkpt lat="42.4436400" lon="-8.6436090">
        <ele>8.6</ele>
        <time>2021-05-22T06:45:20Z</time>
      </trkpt>
      <trkpt lat="42.4436500" lon="-8.6436140">
        <ele>8.6</ele>
        <time>2021-05-22T06:45:21Z</time>
      </trkpt>
      <trkpt lat="42.4436600" lon="-8.6436220">
        <ele>8.5</ele>
        <time>2021-05-22T06:45:22Z</time>
      </trkpt>
      <trkpt lat="42.4436700" lon="-8.6436230">
        <ele>8.5</ele>
        <time>2021-05-22T06:45:23Z</time>
      </trkpt>
      <trkpt lat="42.4436940" lon="-8.6436410">
        <ele>8.4</ele>
        <time>2021-05-22T06:45:24Z</time>
      </trkpt>
      <trkpt lat="42.4437010" lon="-8.6436450">
        <ele>8.4</ele>
        <time>2021-05-22T06:45:25Z</time>
      </trkpt>
      <trkpt lat="42.4437090" lon="-8.6436480">
        <ele>8.4</ele>
        <time>2021-05-22T06:45:26Z</time>
      </trkpt>
      <trkpt lat="42.4437270" lon="-8.6436570">
        <ele>8.3</ele>
        <time>2021-05-22T06:45:27Z</time>
      </trkpt>
      <trkpt lat="42.4437400" lon="-8.6436610">
        <ele>8.3</ele>
        <time>2021-05-22T06:45:28Z</time>
      </trkpt>
      <trkpt lat="42.4437490" lon="-8.6436740">
        <ele>8.2</ele>
        <time>2021-05-22T06:45:29Z</time>
      </trkpt>
      <trkpt lat="42.4437620" lon="-8.6436810">
        <ele>8.2</ele>
        <time>2021-05-22T06:45:30Z</time>
      </trkpt>
      <trkpt lat="42.4437740" lon="-8.6436710">
        <ele>8.2</ele>
        <time>2021-05-22T06:45:31Z</time>
      </trkpt>
      <trkpt lat="42.4437980" lon="-8.6436760">
        <ele>8.1</ele>
        <time>2021-05-22T06:45:32Z</time>
      </trkpt>
      <trkpt lat="42.4438070" lon="-8.6436760">
        <ele>8.1</ele>
        <time>2021-05-22T06:45:33Z</time>
      </trkpt>
      <trkpt lat="42.4438170" lon="-8.6436760">
        <ele>8.0</ele>
        <time>2021-05-22T06:45:34Z</time>
      </trkpt>
      <trkpt lat="42.4438220" lon="-8.6436750">
        <ele>8.0</ele>
        <time>2021-05-22T06:45:35Z</time>
      </trkpt>
      <trkpt lat="42.4438390" lon="-8.6436790">
        <ele>8.0</ele>
        <time>2021-05-22T06:45:36Z</time>
      </trkpt>
      <trkpt lat="42.4438460" lon="-8.6436760">
        <ele>8.0</ele>
        <time>2021-05-22T06:45:37Z</time>
      </trkpt>
      <trkpt lat="42.4438610" lon="-8.6436780">
        <ele>7.9</ele>
        <time>2021-05-22T06:45:38Z</time>
      </trkpt>
      <trkpt lat="42.4438740" lon="-8.6436810">
        <ele>7.9</ele>
        <time>2021-05-22T06:45:39Z</time>
      </trkpt>
      <trkpt lat="42.4438900" lon="-8.6436850">
        <ele>7.8</ele>
        <time>2021-05-22T06:45:40Z</time>
      </trkpt>
      <trkpt lat="42.4438980" lon="-8.6436840">
        <ele>7.8</ele>
        <time>2021-05-22T06:45:41Z</time>
      </trkpt>
      <trkpt lat="42.4439090" lon="-8.6436840">
        <ele>7.8</ele>
        <time>2021-05-22T06:45:42Z</time>
      </trkpt>
      <trkpt lat="42.4439290" lon="-8.6436830">
        <ele>7.7</ele>
        <time>2021-05-22T06:45:43Z</time>
      </trkpt>
      <trkpt lat="42.4439360" lon="-8.6436710">
        <ele>7.7</ele>
        <time>2021-05-22T06:45:44Z</time>
      </trkpt>
      <trkpt lat="42.4439610" lon="-8.6436680">
        <ele>7.6</ele>
        <time>2021-05-22T06:45:45Z</time>
      </trkpt>
      <trkpt lat="42.4439710" lon="-8.6436630">
        <ele>7.6</ele>
        <time>2021-05-22T06:45:46Z</time>
      </trkpt>
      <trkpt lat="42.4439800" lon="-8.6436590">
        <ele>7.6</ele>
        <time>2021-05-22T06:45:47Z</time>
      </trkpt>
      <trkpt lat="42.4439970" lon="-8.6436500">
        <ele>7.6</ele>
        <time>2021-05-22T06:45:48Z</time>
      </trkpt>
      <trkpt lat="42.4440090" lon="-8.6436460">
        <ele>7.6</ele>
        <time>2021-05-22T06:45:49Z</time>
      </trkpt>
      <trkpt lat="42.4440250" lon="-8.6436400">
        <ele>7.6</ele>
        <time>2021-05-22T06:45:50Z</time>
      </trkpt>
      <trkpt lat="42.4440420" lon="-8.6436360">
        <ele>7.6</ele>
        <time>2021-05-22T06:45:51Z</time>
      </trkpt>
      <trkpt lat="42.4440700" lon="-8.6436250">
        <ele>7.6</ele>
        <time>2021-05-22T06:45:52Z</time>
      </trkpt>
      <trkpt lat="42.4440800" lon="-8.6436180">
        <ele>7.6</ele>
        <time>2021-05-22T06:45:53Z</time>
      </trkpt>
      <trkpt lat="42.4441100" lon="-8.6436140">
        <ele>7.6</ele>
        <time>2021-05-22T06:45:54Z</time>
      </trkpt>
      <trkpt lat="42.4441200" lon="-8.6436120">
        <ele>7.6</ele>
        <time>2021-05-22T06:45:55Z</time>
      </trkpt>
      <trkpt lat="42.4441350" lon="-8.6436020">
        <ele>7.6</ele>
        <time>2021-05-22T06:45:56Z</time>
      </trkpt>
      <trkpt lat="42.4441460" lon="-8.6436000">
        <ele>7.6</ele>
        <time>2021-05-22T06:45:57Z</time>
      </trkpt>
      <trkpt lat="42.4441600" lon="-8.6435950">
        <ele>7.6</ele>
        <time>2021-05-22T06:45:58Z</time>
      </trkpt>
      <trkpt lat="42.4441750" lon="-8.6435850">
        <ele>7.6</ele>
        <time>2021-05-22T06:45:59Z</time>
      </trkpt>
      <trkpt lat="42.4441830" lon="-8.6435810">
        <ele>7.6</ele>
        <time>2021-05-22T06:46:00Z</time>
      </trkpt>
      <trkpt lat="42.4441930" lon="-8.6435820">
        <ele>7.6</ele>
        <time>2021-05-22T06:46:01Z</time>
      </trkpt>
      <trkpt lat="42.4442060" lon="-8.6435730">
        <ele>7.6</ele>
        <time>2021-05-22T06:46:02Z</time>
      </trkpt>
      <trkpt lat="42.4442200" lon="-8.6435670">
        <ele>7.6</ele>
        <time>2021-05-22T06:46:03Z</time>
      </trkpt>
      <trkpt lat="42.4442360" lon="-8.6435620">
        <ele>7.6</ele>
        <time>2021-05-22T06:46:04Z</time>
      </trkpt>
      <trkpt lat="42.4442440" lon="-8.6435530">
        <ele>7.7</ele>
        <time>2021-05-22T06:46:05Z</time>
      </trkpt>
      <trkpt lat="42.4442580" lon="-8.6435520">
        <ele>7.7</ele>
        <time>2021-05-22T06:46:06Z</time>
      </trkpt>
      <trkpt lat="42.4442660" lon="-8.6435420">
        <ele>7.7</ele>
        <time>2021-05-22T06:46:07Z</time>
      </trkpt>
      <trkpt lat="42.4442770" lon="-8.6435380">
        <ele>7.7</ele>
        <time>2021-05-22T06:46:08Z</time>
      </trkpt>
      <trkpt lat="42.4442850" lon="-8.6435300">
        <ele>7.7</ele>
        <time>2021-05-22T06:46:09Z</time>
      </trkpt>
      <trkpt lat="42.4442910" lon="-8.6435270">
        <ele>7.7</ele>
        <time>2021-05-22T06:46:10Z</time>
      </trkpt>
      <trkpt lat="42.4443110" lon="-8.6435160">
        <ele>7.7</ele>
        <time>2021-05-22T06:46:11Z</time>
      </trkpt>
      <trkpt lat="42.4443200" lon="-8.6435100">
        <ele>7.7</ele>
        <time>2021-05-22T06:46:12Z</time>
      </trkpt>
      <trkpt lat="42.4443320" lon="-8.6435050">
        <ele>7.8</ele>
        <time>2021-05-22T06:46:13Z</time>
      </trkpt>
      <trkpt lat="42.4443520" lon="-8.6435050">
        <ele>7.8</ele>
        <time>2021-05-22T06:46:14Z</time>
      </trkpt>
      <trkpt lat="42.4443630" lon="-8.6435060">
        <ele>7.8</ele>
        <time>2021-05-22T06:46:15Z</time>
      </trkpt>
      <trkpt lat="42.4443760" lon="-8.6435010">
        <ele>7.8</ele>
        <time>2021-05-22T06:46:16Z</time>
      </trkpt>
      <trkpt lat="42.4443850" lon="-8.6435000">
        <ele>7.8</ele>
        <time>2021-05-22T06:46:17Z</time>
      </trkpt>
      <trkpt lat="42.4443960" lon="-8.6435020">
        <ele>7.8</ele>
        <time>2021-05-22T06:46:18Z</time>
      </trkpt>
      <trkpt lat="42.4444130" lon="-8.6434980">
        <ele>7.8</ele>
        <time>2021-05-22T06:46:19Z</time>
      </trkpt>
      <trkpt lat="42.4444200" lon="-8.6434910">
        <ele>7.8</ele>
        <time>2021-05-22T06:46:20Z</time>
      </trkpt>
      <trkpt lat="42.4444300" lon="-8.6434970">
        <ele>7.9</ele>
        <time>2021-05-22T06:46:21Z</time>
      </trkpt>
      <trkpt lat="42.4444310" lon="-8.6434920">
        <ele>7.9</ele>
        <time>2021-05-22T06:46:22Z</time>
      </trkpt>
      <trkpt lat="42.4444420" lon="-8.6434910">
        <ele>7.9</ele>
        <time>2021-05-22T06:46:23Z</time>
      </trkpt>
      <trkpt lat="42.4444610" lon="-8.6434820">
        <ele>7.9</ele>
        <time>2021-05-22T06:46:24Z</time>
      </trkpt>
      <trkpt lat="42.4444690" lon="-8.6434750">
        <ele>7.9</ele>
        <time>2021-05-22T06:46:25Z</time>
      </trkpt>
      <trkpt lat="42.4444770" lon="-8.6434680">
        <ele>7.9</ele>
        <time>2021-05-22T06:46:26Z</time>
      </trkpt>
      <trkpt lat="42.4445180" lon="-8.6434590">
        <ele>8.0</ele>
        <time>2021-05-22T06:46:28Z</time>
      </trkpt>
      <trkpt lat="42.4445280" lon="-8.6434580">
        <ele>8.0</ele>
        <time>2021-05-22T06:46:29Z</time>
      </trkpt>
      <trkpt lat="42.4445370" lon="-8.6434560">
        <ele>8.0</ele>
        <time>2021-05-22T06:46:30Z</time>
      </trkpt>
      <trkpt lat="42.4445460" lon="-8.6434550">
        <ele>8.0</ele>
        <time>2021-05-22T06:46:31Z</time>
      </trkpt>
      <trkpt lat="42.4445560" lon="-8.6434520">
        <ele>8.0</ele>
        <time>2021-05-22T06:46:32Z</time>
      </trkpt>
      <trkpt lat="42.4445660" lon="-8.6434440">
        <ele>8.0</ele>
        <time>2021-05-22T06:46:33Z</time>
      </trkpt>
      <trkpt lat="42.4445770" lon="-8.6434400">
        <ele>8.1</ele>
        <time>2021-05-22T06:46:34Z</time>
      </trkpt>
      <trkpt lat="42.4445900" lon="-8.6434410">
        <ele>8.1</ele>
        <time>2021-05-22T06:46:35Z</time>
      </trkpt>
      <trkpt lat="42.4446060" lon="-8.6434330">
        <ele>8.1</ele>
        <time>2021-05-22T06:46:36Z</time>
      </trkpt>
      <trkpt lat="42.4446250" lon="-8.6434230">
        <ele>8.1</ele>
        <time>2021-05-22T06:46:37Z</time>
      </trkpt>
      <trkpt lat="42.4446320" lon="-8.6434200">
        <ele>8.1</ele>
        <time>2021-05-22T06:46:38Z</time>
      </trkpt>
      <trkpt lat="42.4446400" lon="-8.6434160">
        <ele>8.2</ele>
        <time>2021-05-22T06:46:39Z</time>
      </trkpt>
      <trkpt lat="42.4446530" lon="-8.6434060">
        <ele>8.2</ele>
        <time>2021-05-22T06:46:40Z</time>
      </trkpt>
      <trkpt lat="42.4446610" lon="-8.6434010">
        <ele>8.2</ele>
        <time>2021-05-22T06:46:41Z</time>
      </trkpt>
      <trkpt lat="42.4446710" lon="-8.6433980">
        <ele>8.2</ele>
        <time>2021-05-22T06:46:42Z</time>
      </trkpt>
      <trkpt lat="42.4446920" lon="-8.6433860">
        <ele>8.2</ele>
        <time>2021-05-22T06:46:43Z</time>
      </trkpt>
      <trkpt lat="42.4446970" lon="-8.6433790">
        <ele>8.3</ele>
        <time>2021-05-22T06:46:44Z</time>
      </trkpt>
      <trkpt lat="42.4447020" lon="-8.6433720">
        <ele>8.3</ele>
        <time>2021-05-22T06:46:45Z</time>
      </trkpt>
      <trkpt lat="42.4447230" lon="-8.6433770">
        <ele>8.3</ele>
        <time>2021-05-22T06:46:46Z</time>
      </trkpt>
      <trkpt lat="42.4447260" lon="-8.6433740">
        <ele>8.3</ele>
        <time>2021-05-22T06:46:47Z</time>
      </trkpt>
      <trkpt lat="42.4447350" lon="-8.6433760">
        <ele>8.3</ele>
        <time>2021-05-22T06:46:48Z</time>
      </trkpt>
      <trkpt lat="42.4447400" lon="-8.6433800">
        <ele>8.3</ele>
        <time>2021-05-22T06:46:49Z</time>
      </trkpt>
      <trkpt lat="42.4447550" lon="-8.6433810">
        <ele>8.4</ele>
        <time>2021-05-22T06:46:50Z</time>
      </trkpt>
      <trkpt lat="42.4447660" lon="-8.6433830">
        <ele>8.4</ele>
        <time>2021-05-22T06:46:51Z</time>
      </trkpt>
      <trkpt lat="42.4447850" lon="-8.6433840">
        <ele>8.4</ele>
        <time>2021-05-22T06:46:52Z</time>
      </trkpt>
      <trkpt lat="42.4447950" lon="-8.6433870">
        <ele>8.5</ele>
        <time>2021-05-22T06:46:53Z</time>
      </trkpt>
      <trkpt lat="42.4448040" lon="-8.6433890">
        <ele>8.5</ele>
        <time>2021-05-22T06:46:54Z</time>
      </trkpt>
      <trkpt lat="42.4448160" lon="-8.6433880">
        <ele>8.5</ele>
        <time>2021-05-22T06:46:55Z</time>
      </trkpt>
      <trkpt lat="42.4448180" lon="-8.6433830">
        <ele>8.5</ele>
        <time>2021-05-22T06:46:56Z</time>
      </trkpt>
      <trkpt lat="42.4448280" lon="-8.6433810">
        <ele>8.5</ele>
        <time>2021-05-22T06:46:57Z</time>
      </trkpt>
      <trkpt lat="42.4448380" lon="-8.6433850">
        <ele>8.6</ele>
        <time>2021-05-22T06:46:58Z</time>
      </trkpt>
      <trkpt lat="42.4448400" lon="-8.6433430">
        <ele>8.7</ele>
        <time>2021-05-22T06:46:59Z</time>
      </trkpt>
      <trkpt lat="42.4448410" lon="-8.6433350">
        <ele>8.7</ele>
        <time>2021-05-22T06:47:00Z</time>
      </trkpt>
      <trkpt lat="42.4448570" lon="-8.6433160">
        <ele>8.7</ele>
        <time>2021-05-22T06:47:01Z</time>
      </trkpt>
      <trkpt lat="42.4448680" lon="-8.6433020">
        <ele>8.8</ele>
        <time>2021-05-22T06:47:02Z</time>
      </trkpt>
      <trkpt lat="42.4448850" lon="-8.6432660">
        <ele>8.9</ele>
        <time>2021-05-22T06:47:03Z</time>
      </trkpt>
      <trkpt lat="42.4448880" lon="-8.6432520">
        <ele>8.9</ele>
        <time>2021-05-22T06:47:04Z</time>
      </trkpt>
      <trkpt lat="42.4448960" lon="-8.6432220">
        <ele>9.0</ele>
        <time>2021-05-22T06:47:05Z</time>
      </trkpt>
      <trkpt lat="42.4449060" lon="-8.6432180">
        <ele>9.0</ele>
        <time>2021-05-22T06:47:06Z</time>
      </trkpt>
      <trkpt lat="42.4449090" lon="-8.6432060">
        <ele>9.1</ele>
        <time>2021-05-22T06:47:07Z</time>
      </trkpt>
      <trkpt lat="42.4449230" lon="-8.6432030">
        <ele>9.1</ele>
        <time>2021-05-22T06:47:08Z</time>
      </trkpt>
      <trkpt lat="42.4449300" lon="-8.6432010">
        <ele>9.2</ele>
        <time>2021-05-22T06:47:09Z</time>
      </trkpt>
      <trkpt lat="42.4449480" lon="-8.6431900">
        <ele>9.2</ele>
        <time>2021-05-22T06:47:10Z</time>
      </trkpt>
      <trkpt lat="42.4449550" lon="-8.6431830">
        <ele>9.3</ele>
        <time>2021-05-22T06:47:11Z</time>
      </trkpt>
      <trkpt lat="42.4449630" lon="-8.6431770">
        <ele>9.3</ele>
        <time>2021-05-22T06:47:12Z</time>
      </trkpt>
      <trkpt lat="42.4449780" lon="-8.6431700">
        <ele>9.4</ele>
        <time>2021-05-22T06:47:13Z</time>
      </trkpt>
      <trkpt lat="42.4449850" lon="-8.6431550">
        <ele>9.5</ele>
        <time>2021-05-22T06:47:14Z</time>
      </trkpt>
      <trkpt lat="42.4449940" lon="-8.6431480">
        <ele>9.5</ele>
        <time>2021-05-22T06:47:15Z</time>
      </trkpt>
      <trkpt lat="42.4449970" lon="-8.6431330">
        <ele>9.6</ele>
        <time>2021-05-22T06:47:16Z</time>
      </trkpt>
      <trkpt lat="42.4450070" lon="-8.6431220">
        <ele>9.6</ele>
        <time>2021-05-22T06:47:17Z</time>
      </trkpt>
      <trkpt lat="42.4450140" lon="-8.6431080">
        <ele>9.7</ele>
        <time>2021-05-22T06:47:18Z</time>
      </trkpt>
      <trkpt lat="42.4450230" lon="-8.6431010">
        <ele>9.8</ele>
        <time>2021-05-22T06:47:19Z</time>
      </trkpt>
      <trkpt lat="42.4450330" lon="-8.6430940">
        <ele>9.8</ele>
        <time>2021-05-22T06:47:20Z</time>
      </trkpt>
      <trkpt lat="42.4450450" lon="-8.6430930">
        <ele>9.9</ele>
        <time>2021-05-22T06:47:21Z</time>
      </trkpt>
      <trkpt lat="42.4450550" lon="-8.6430830">
        <ele>10.0</ele>
        <time>2021-05-22T06:47:22Z</time>
      </trkpt>
      <trkpt lat="42.4450620" lon="-8.6430820">
        <ele>10.0</ele>
        <time>2021-05-22T06:47:23Z</time>
      </trkpt>
      <trkpt lat="42.4450740" lon="-8.6430790">
        <ele>10.1</ele>
        <time>2021-05-22T06:47:24Z</time>
      </trkpt>
      <trkpt lat="42.4450900" lon="-8.6430740">
        <ele>10.2</ele>
        <time>2021-05-22T06:47:25Z</time>
      </trkpt>
      <trkpt lat="42.4451200" lon="-8.6430650">
        <ele>10.4</ele>
        <time>2021-05-22T06:47:26Z</time>
      </trkpt>
      <trkpt lat="42.4451320" lon="-8.6430570">
        <ele>10.5</ele>
        <time>2021-05-22T06:47:27Z</time>
      </trkpt>
      <trkpt lat="42.4451370" lon="-8.6430520">
        <ele>10.5</ele>
        <time>2021-05-22T06:47:28Z</time>
      </trkpt>
      <trkpt lat="42.4451460" lon="-8.6430410">
        <ele>10.6</ele>
        <time>2021-05-22T06:47:29Z</time>
      </trkpt>
      <trkpt lat="42.4451660" lon="-8.6430440">
        <ele>10.7</ele>
        <time>2021-05-22T06:47:30Z</time>
      </trkpt>
      <trkpt lat="42.4451760" lon="-8.6430360">
        <ele>10.8</ele>
        <time>2021-05-22T06:47:31Z</time>
      </trkpt>
      <trkpt lat="42.4451800" lon="-8.6430240">
        <ele>10.9</ele>
        <time>2021-05-22T06:47:32Z</time>
      </trkpt>
      <trkpt lat="42.4451880" lon="-8.6430200">
        <ele>10.9</ele>
        <time>2021-05-22T06:47:33Z</time>
      </trkpt>
      <trkpt lat="42.4451990" lon="-8.6430040">
        <ele>11.0</ele>
        <time>2021-05-22T06:47:34Z</time>
      </trkpt>
      <trkpt lat="42.4451980" lon="-8.6429840">
        <ele>11.1</ele>
        <time>2021-05-22T06:47:35Z</time>
      </trkpt>
      <trkpt lat="42.4452090" lon="-8.6429730">
        <ele>11.2</ele>
        <time>2021-05-22T06:47:36Z</time>
      </trkpt>
      <trkpt lat="42.4452280" lon="-8.6429680">
        <ele>11.3</ele>
        <time>2021-05-22T06:47:37Z</time>
      </trkpt>
      <trkpt lat="42.4452430" lon="-8.6429560">
        <ele>11.4</ele>
        <time>2021-05-22T06:47:38Z</time>
      </trkpt>
      <trkpt lat="42.4452610" lon="-8.6429560">
        <ele>11.5</ele>
        <time>2021-05-22T06:47:39Z</time>
      </trkpt>
      <trkpt lat="42.4452700" lon="-8.6429580">
        <ele>11.6</ele>
        <time>2021-05-22T06:47:40Z</time>
      </trkpt>
      <trkpt lat="42.4452770" lon="-8.6429500">
        <ele>11.6</ele>
        <time>2021-05-22T06:47:41Z</time>
      </trkpt>
      <trkpt lat="42.4452860" lon="-8.6429400">
        <ele>11.7</ele>
        <time>2021-05-22T06:47:42Z</time>
      </trkpt>
      <trkpt lat="42.4452990" lon="-8.6429330">
        <ele>11.8</ele>
        <time>2021-05-22T06:47:43Z</time>
      </trkpt>
      <trkpt lat="42.4453170" lon="-8.6429330">
        <ele>11.9</ele>
        <time>2021-05-22T06:47:44Z</time>
      </trkpt>
      <trkpt lat="42.4453270" lon="-8.6429280">
        <ele>11.9</ele>
        <time>2021-05-22T06:47:45Z</time>
      </trkpt>
      <trkpt lat="42.4453400" lon="-8.6429270">
        <ele>12.0</ele>
        <time>2021-05-22T06:47:46Z</time>
      </trkpt>
      <trkpt lat="42.4453470" lon="-8.6429290">
        <ele>12.1</ele>
        <time>2021-05-22T06:47:47Z</time>
      </trkpt>
      <trkpt lat="42.4453540" lon="-8.6429280">
        <ele>12.1</ele>
        <time>2021-05-22T06:47:48Z</time>
      </trkpt>
      <trkpt lat="42.4453600" lon="-8.6429170">
        <ele>12.1</ele>
        <time>2021-05-22T06:47:49Z</time>
      </trkpt>
      <trkpt lat="42.4453750" lon="-8.6429080">
        <ele>12.2</ele>
        <time>2021-05-22T06:47:50Z</time>
      </trkpt>
      <trkpt lat="42.4453870" lon="-8.6429020">
        <ele>12.3</ele>
        <time>2021-05-22T06:47:51Z</time>
      </trkpt>
      <trkpt lat="42.4454010" lon="-8.6428980">
        <ele>12.4</ele>
        <time>2021-05-22T06:47:52Z</time>
      </trkpt>
      <trkpt lat="42.4454190" lon="-8.6428850">
        <ele>12.5</ele>
        <time>2021-05-22T06:47:53Z</time>
      </trkpt>
      <trkpt lat="42.4454310" lon="-8.6428870">
        <ele>12.5</ele>
        <time>2021-05-22T06:47:54Z</time>
      </trkpt>
      <trkpt lat="42.4454410" lon="-8.6428910">
        <ele>12.6</ele>
        <time>2021-05-22T06:47:55Z</time>
      </trkpt>
      <trkpt lat="42.4454520" lon="-8.6428980">
        <ele>12.7</ele>
        <time>2021-05-22T06:47:56Z</time>
      </trkpt>
      <trkpt lat="42.4454640" lon="-8.6428920">
        <ele>12.7</ele>
        <time>2021-05-22T06:47:57Z</time>
      </trkpt>
      <trkpt lat="42.4454940" lon="-8.6428810">
        <ele>12.9</ele>
        <time>2021-05-22T06:47:58Z</time>
      </trkpt>
      <trkpt lat="42.4455030" lon="-8.6428740">
        <ele>12.9</ele>
        <time>2021-05-22T06:47:59Z</time>
      </trkpt>
      <trkpt lat="42.4455210" lon="-8.6428680">
        <ele>13.0</ele>
        <time>2021-05-22T06:48:00Z</time>
      </trkpt>
      <trkpt lat="42.4455290" lon="-8.6428620">
        <ele>13.1</ele>
        <time>2021-05-22T06:48:01Z</time>
      </trkpt>
      <trkpt lat="42.4455370" lon="-8.6428570">
        <ele>13.1</ele>
        <time>2021-05-22T06:48:02Z</time>
      </trkpt>
      <trkpt lat="42.4455380" lon="-8.6428570">
        <ele>13.1</ele>
        <time>2021-05-22T06:48:03Z</time>
      </trkpt>
      <trkpt lat="42.4455510" lon="-8.6428620">
        <ele>13.2</ele>
        <time>2021-05-22T06:48:04Z</time>
      </trkpt>
      <trkpt lat="42.4455620" lon="-8.6428590">
        <ele>13.2</ele>
        <time>2021-05-22T06:48:05Z</time>
      </trkpt>
      <trkpt lat="42.4455730" lon="-8.6428470">
        <ele>13.3</ele>
        <time>2021-05-22T06:48:06Z</time>
      </trkpt>
      <trkpt lat="42.4455950" lon="-8.6428440">
        <ele>13.4</ele>
        <time>2021-05-22T06:48:07Z</time>
      </trkpt>
      <trkpt lat="42.4456030" lon="-8.6428380">
        <ele>13.5</ele>
        <time>2021-05-22T06:48:08Z</time>
      </trkpt>
      <trkpt lat="42.4456110" lon="-8.6428330">
        <ele>13.5</ele>
        <time>2021-05-22T06:48:09Z</time>
      </trkpt>
      <trkpt lat="42.4456280" lon="-8.6428310">
        <ele>13.6</ele>
        <time>2021-05-22T06:48:10Z</time>
      </trkpt>
      <trkpt lat="42.4456420" lon="-8.6428370">
        <ele>13.7</ele>
        <time>2021-05-22T06:48:11Z</time>
      </trkpt>
      <trkpt lat="42.4456630" lon="-8.6428340">
        <ele>13.8</ele>
        <time>2021-05-22T06:48:12Z</time>
      </trkpt>
      <trkpt lat="42.4456720" lon="-8.6428310">
        <ele>13.8</ele>
        <time>2021-05-22T06:48:13Z</time>
      </trkpt>
      <trkpt lat="42.4456820" lon="-8.6428290">
        <ele>13.8</ele>
        <time>2021-05-22T06:48:14Z</time>
      </trkpt>
      <trkpt lat="42.4456940" lon="-8.6428320">
        <ele>13.9</ele>
        <time>2021-05-22T06:48:15Z</time>
      </trkpt>
      <trkpt lat="42.4457070" lon="-8.6428250">
        <ele>14.0</ele>
        <time>2021-05-22T06:48:16Z</time>
      </trkpt>
      <trkpt lat="42.4457160" lon="-8.6428150">
        <ele>14.0</ele>
        <time>2021-05-22T06:48:17Z</time>
      </trkpt>
      <trkpt lat="42.4457290" lon="-8.6428150">
        <ele>14.1</ele>
        <time>2021-05-22T06:48:18Z</time>
      </trkpt>
      <trkpt lat="42.4457430" lon="-8.6428140">
        <ele>14.1</ele>
        <time>2021-05-22T06:48:19Z</time>
      </trkpt>
      <trkpt lat="42.4457750" lon="-8.6428080">
        <ele>14.3</ele>
        <time>2021-05-22T06:48:20Z</time>
      </trkpt>
      <trkpt lat="42.4457810" lon="-8.6428080">
        <ele>14.3</ele>
        <time>2021-05-22T06:48:21Z</time>
      </trkpt>
      <trkpt lat="42.4457970" lon="-8.6428090">
        <ele>14.4</ele>
        <time>2021-05-22T06:48:22Z</time>
      </trkpt>
      <trkpt lat="42.4458110" lon="-8.6428110">
        <ele>14.4</ele>
        <time>2021-05-22T06:48:23Z</time>
      </trkpt>
      <trkpt lat="42.4458250" lon="-8.6428090">
        <ele>14.5</ele>
        <time>2021-05-22T06:48:24Z</time>
      </trkpt>
      <trkpt lat="42.4458410" lon="-8.6428060">
        <ele>14.6</ele>
        <time>2021-05-22T06:48:25Z</time>
      </trkpt>
      <trkpt lat="42.4458610" lon="-8.6428070">
        <ele>14.6</ele>
        <time>2021-05-22T06:48:26Z</time>
      </trkpt>
      <trkpt lat="42.4458750" lon="-8.6428030">
        <ele>14.7</ele>
        <time>2021-05-22T06:48:27Z</time>
      </trkpt>
      <trkpt lat="42.4458880" lon="-8.6428050">
        <ele>14.7</ele>
        <time>2021-05-22T06:48:28Z</time>
      </trkpt>
      <trkpt lat="42.4459000" lon="-8.6428020">
        <ele>14.8</ele>
        <time>2021-05-22T06:48:29Z</time>
      </trkpt>
      <trkpt lat="42.4459050" lon="-8.6427960">
        <ele>14.8</ele>
        <time>2021-05-22T06:48:30Z</time>
      </trkpt>
      <trkpt lat="42.4459280" lon="-8.6427830">
        <ele>14.9</ele>
        <time>2021-05-22T06:48:31Z</time>
      </trkpt>
      <trkpt lat="42.4459360" lon="-8.6427800">
        <ele>14.9</ele>
        <time>2021-05-22T06:48:32Z</time>
      </trkpt>
      <trkpt lat="42.4459450" lon="-8.6427760">
        <ele>15.0</ele>
        <time>2021-05-22T06:48:33Z</time>
      </trkpt>
      <trkpt lat="42.4459570" lon="-8.6427710">
        <ele>15.0</ele>
        <time>2021-05-22T06:48:34Z</time>
      </trkpt>
      <trkpt lat="42.4459610" lon="-8.6427690">
        <ele>15.0</ele>
        <time>2021-05-22T06:48:35Z</time>
      </trkpt>
      <trkpt lat="42.4459710" lon="-8.6427620">
        <ele>15.0</ele>
        <time>2021-05-22T06:48:36Z</time>
      </trkpt>
      <trkpt lat="42.4459930" lon="-8.6427480">
        <ele>15.1</ele>
        <time>2021-05-22T06:48:37Z</time>
      </trkpt>
      <trkpt lat="42.4459990" lon="-8.6427410">
        <ele>15.1</ele>
        <time>2021-05-22T06:48:38Z</time>
      </trkpt>
      <trkpt lat="42.4460050" lon="-8.6427340">
        <ele>15.1</ele>
        <time>2021-05-22T06:48:39Z</time>
      </trkpt>
      <trkpt lat="42.4460270" lon="-8.6427250">
        <ele>15.2</ele>
        <time>2021-05-22T06:48:40Z</time>
      </trkpt>
      <trkpt lat="42.4460360" lon="-8.6427210">
        <ele>15.2</ele>
        <time>2021-05-22T06:48:41Z</time>
      </trkpt>
      <trkpt lat="42.4460450" lon="-8.6427160">
        <ele>15.2</ele>
        <time>2021-05-22T06:48:42Z</time>
      </trkpt>
      <trkpt lat="42.4460560" lon="-8.6427150">
        <ele>15.2</ele>
        <time>2021-05-22T06:48:43Z</time>
      </trkpt>
      <trkpt lat="42.4460770" lon="-8.6427100">
        <ele>15.3</ele>
        <time>2021-05-22T06:48:44Z</time>
      </trkpt>
      <trkpt lat="42.4460920" lon="-8.6427140">
        <ele>15.3</ele>
        <time>2021-05-22T06:48:45Z</time>
      </trkpt>
      <trkpt lat="42.4461040" lon="-8.6427220">
        <ele>15.3</ele>
        <time>2021-05-22T06:48:46Z</time>
      </trkpt>
      <trkpt lat="42.4461150" lon="-8.6427310">
        <ele>15.3</ele>
        <time>2021-05-22T06:48:47Z</time>
      </trkpt>
      <trkpt lat="42.4461320" lon="-8.6427340">
        <ele>15.4</ele>
        <time>2021-05-22T06:48:48Z</time>
      </trkpt>
      <trkpt lat="42.4461430" lon="-8.6427340">
        <ele>15.4</ele>
        <time>2021-05-22T06:48:49Z</time>
      </trkpt>
      <trkpt lat="42.4461560" lon="-8.6427240">
        <ele>15.4</ele>
        <time>2021-05-22T06:48:50Z</time>
      </trkpt>
      <trkpt lat="42.4461610" lon="-8.6427190">
        <ele>15.4</ele>
        <time>2021-05-22T06:48:51Z</time>
      </trkpt>
      <trkpt lat="42.4461720" lon="-8.6427190">
        <ele>15.4</ele>
        <time>2021-05-22T06:48:52Z</time>
      </trkpt>
      <trkpt lat="42.4461880" lon="-8.6427140">
        <ele>15.4</ele>
        <time>2021-05-22T06:48:53Z</time>
      </trkpt>
      <trkpt lat="42.4462010" lon="-8.6427180">
        <ele>15.4</ele>
        <time>2021-05-22T06:48:54Z</time>
      </trkpt>
      <trkpt lat="42.4462150" lon="-8.6427100">
        <ele>15.5</ele>
        <time>2021-05-22T06:48:55Z</time>
      </trkpt>
      <trkpt lat="42.4462290" lon="-8.6427080">
        <ele>15.5</ele>
        <time>2021-05-22T06:48:56Z</time>
      </trkpt>
      <trkpt lat="42.4462440" lon="-8.6427110">
        <ele>15.5</ele>
        <time>2021-05-22T06:48:57Z</time>
      </trkpt>
      <trkpt lat="42.4462620" lon="-8.6427100">
        <ele>15.5</ele>
        <time>2021-05-22T06:48:58Z</time>
      </trkpt>
      <trkpt lat="42.4462720" lon="-8.6427120">
        <ele>15.5</ele>
        <time>2021-05-22T06:48:59Z</time>
      </trkpt>
      <trkpt lat="42.4462810" lon="-8.6427130">
        <ele>15.5</ele>
        <time>2021-05-22T06:49:00Z</time>
      </trkpt>
      <trkpt lat="42.4462960" lon="-8.6427250">
        <ele>15.6</ele>
        <time>2021-05-22T06:49:01Z</time>
      </trkpt>
      <trkpt lat="42.4463100" lon="-8.6427310">
        <ele>15.6</ele>
        <time>2021-05-22T06:49:02Z</time>
      </trkpt>
      <trkpt lat="42.4463220" lon="-8.6427330">
        <ele>15.6</ele>
        <time>2021-05-22T06:49:03Z</time>
      </trkpt>
      <trkpt lat="42.4463290" lon="-8.6427310">
        <ele>15.6</ele>
        <time>2021-05-22T06:49:04Z</time>
      </trkpt>
      <trkpt lat="42.4463420" lon="-8.6427340">
        <ele>15.6</ele>
        <time>2021-05-22T06:49:05Z</time>
      </trkpt>
      <trkpt lat="42.4463470" lon="-8.6427400">
        <ele>15.6</ele>
        <time>2021-05-22T06:49:06Z</time>
      </trkpt>
      <trkpt lat="42.4463600" lon="-8.6427390">
        <ele>15.6</ele>
        <time>2021-05-22T06:49:07Z</time>
      </trkpt>
      <trkpt lat="42.4463690" lon="-8.6427400">
        <ele>15.6</ele>
        <time>2021-05-22T06:49:08Z</time>
      </trkpt>
      <trkpt lat="42.4463800" lon="-8.6427440">
        <ele>15.7</ele>
        <time>2021-05-22T06:49:09Z</time>
      </trkpt>
      <trkpt lat="42.4463880" lon="-8.6427510">
        <ele>15.7</ele>
        <time>2021-05-22T06:49:10Z</time>
      </trkpt>
      <trkpt lat="42.4463970" lon="-8.6427520">
        <ele>15.7</ele>
        <time>2021-05-22T06:49:11Z</time>
      </trkpt>
      <trkpt lat="42.4464140" lon="-8.6427550">
        <ele>15.7</ele>
        <time>2021-05-22T06:49:12Z</time>
      </trkpt>
      <trkpt lat="42.4464250" lon="-8.6427620">
        <ele>15.7</ele>
        <time>2021-05-22T06:49:13Z</time>
      </trkpt>
      <trkpt lat="42.4464430" lon="-8.6427700">
        <ele>15.7</ele>
        <time>2021-05-22T06:49:14Z</time>
      </trkpt>
      <trkpt lat="42.4464570" lon="-8.6427700">
        <ele>15.7</ele>
        <time>2021-05-22T06:49:15Z</time>
      </trkpt>
      <trkpt lat="42.4464670" lon="-8.6427750">
        <ele>15.7</ele>
        <time>2021-05-22T06:49:16Z</time>
      </trkpt>
      <trkpt lat="42.4464760" lon="-8.6427750">
        <ele>15.8</ele>
        <time>2021-05-22T06:49:17Z</time>
      </trkpt>
      <trkpt lat="42.4464870" lon="-8.6427750">
        <ele>15.8</ele>
        <time>2021-05-22T06:49:18Z</time>
      </trkpt>
      <trkpt lat="42.4465170" lon="-8.6427950">
        <ele>15.8</ele>
        <time>2021-05-22T06:49:19Z</time>
      </trkpt>
      <trkpt lat="42.4465280" lon="-8.6428010">
        <ele>15.8</ele>
        <time>2021-05-22T06:49:20Z</time>
      </trkpt>
      <trkpt lat="42.4465390" lon="-8.6428070">
        <ele>15.8</ele>
        <time>2021-05-22T06:49:21Z</time>
      </trkpt>
      <trkpt lat="42.4465490" lon="-8.6428190">
        <ele>15.8</ele>
        <time>2021-05-22T06:49:22Z</time>
      </trkpt>
      <trkpt lat="42.4465560" lon="-8.6428280">
        <ele>15.8</ele>
        <time>2021-05-22T06:49:23Z</time>
      </trkpt>
      <trkpt lat="42.4465660" lon="-8.6428280">
        <ele>15.9</ele>
        <time>2021-05-22T06:49:24Z</time>
      </trkpt>
      <trkpt lat="42.4465750" lon="-8.6428380">
        <ele>15.9</ele>
        <time>2021-05-22T06:49:25Z</time>
      </trkpt>
      <trkpt lat="42.4465760" lon="-8.6428420">
        <ele>15.9</ele>
        <time>2021-05-22T06:49:26Z</time>
      </trkpt>
      <trkpt lat="42.4465890" lon="-8.6428340">
        <ele>15.9</ele>
        <time>2021-05-22T06:49:27Z</time>
      </trkpt>
      <trkpt lat="42.4466170" lon="-8.6428210">
        <ele>15.9</ele>
        <time>2021-05-22T06:49:28Z</time>
      </trkpt>
      <trkpt lat="42.4466250" lon="-8.6428200">
        <ele>15.9</ele>
        <time>2021-05-22T06:49:29Z</time>
      </trkpt>
      <trkpt lat="42.4466430" lon="-8.6428170">
        <ele>15.9</ele>
        <time>2021-05-22T06:49:30Z</time>
      </trkpt>
      <trkpt lat="42.4466620" lon="-8.6428210">
        <ele>16.0</ele>
        <time>2021-05-22T06:49:31Z</time>
      </trkpt>
      <trkpt lat="42.4466760" lon="-8.6428200">
        <ele>16.0</ele>
        <time>2021-05-22T06:49:32Z</time>
      </trkpt>
      <trkpt lat="42.4466900" lon="-8.6428250">
        <ele>16.0</ele>
        <time>2021-05-22T06:49:33Z</time>
      </trkpt>
      <trkpt lat="42.4467010" lon="-8.6428140">
        <ele>16.0</ele>
        <time>2021-05-22T06:49:34Z</time>
      </trkpt>
      <trkpt lat="42.4467130" lon="-8.6428110">
        <ele>16.0</ele>
        <time>2021-05-22T06:49:35Z</time>
      </trkpt>
      <trkpt lat="42.4467240" lon="-8.6428120">
        <ele>16.0</ele>
        <time>2021-05-22T06:49:36Z</time>
      </trkpt>
      <trkpt lat="42.4467330" lon="-8.6428200">
        <ele>16.0</ele>
        <time>2021-05-22T06:49:37Z</time>
      </trkpt>
      <trkpt lat="42.4467490" lon="-8.6428250">
        <ele>16.0</ele>
        <time>2021-05-22T06:49:38Z</time>
      </trkpt>
      <trkpt lat="42.4467580" lon="-8.6428250">
        <ele>16.1</ele>
        <time>2021-05-22T06:49:39Z</time>
      </trkpt>
      <trkpt lat="42.4467680" lon="-8.6428240">
        <ele>16.1</ele>
        <time>2021-05-22T06:49:40Z</time>
      </trkpt>
      <trkpt lat="42.4467830" lon="-8.6428270">
        <ele>16.1</ele>
        <time>2021-05-22T06:49:41Z</time>
      </trkpt>
      <trkpt lat="42.4467950" lon="-8.6428270">
        <ele>16.1</ele>
        <time>2021-05-22T06:49:42Z</time>
      </trkpt>
      <trkpt lat="42.4468140" lon="-8.6428310">
        <ele>16.1</ele>
        <time>2021-05-22T06:49:43Z</time>
      </trkpt>
      <trkpt lat="42.4468320" lon="-8.6428320">
        <ele>16.1</ele>
        <time>2021-05-22T06:49:44Z</time>
      </trkpt>
      <trkpt lat="42.4468490" lon="-8.6428340">
        <ele>16.1</ele>
        <time>2021-05-22T06:49:45Z</time>
      </trkpt>
      <trkpt lat="42.4468850" lon="-8.6428330">
        <ele>16.2</ele>
        <time>2021-05-22T06:49:46Z</time>
      </trkpt>
      <trkpt lat="42.4468940" lon="-8.6428320">
        <ele>16.2</ele>
        <time>2021-05-22T06:49:47Z</time>
      </trkpt>
      <trkpt lat="42.4469240" lon="-8.6428300">
        <ele>16.2</ele>
        <time>2021-05-22T06:49:48Z</time>
      </trkpt>
      <trkpt lat="42.4469350" lon="-8.6428300">
        <ele>16.2</ele>
        <time>2021-05-22T06:49:49Z</time>
      </trkpt>
      <trkpt lat="42.4469530" lon="-8.6428290">
        <ele>16.2</ele>
        <time>2021-05-22T06:49:50Z</time>
      </trkpt>
      <trkpt lat="42.4469680" lon="-8.6428260">
        <ele>16.3</ele>
        <time>2021-05-22T06:49:51Z</time>
      </trkpt>
      <trkpt lat="42.4469960" lon="-8.6428260">
        <ele>16.3</ele>
        <time>2021-05-22T06:49:52Z</time>
      </trkpt>
      <trkpt lat="42.4470050" lon="-8.6428230">
        <ele>16.3</ele>
        <time>2021-05-22T06:49:53Z</time>
      </trkpt>
      <trkpt lat="42.4470230" lon="-8.6428230">
        <ele>16.3</ele>
        <time>2021-05-22T06:49:54Z</time>
      </trkpt>
      <trkpt lat="42.4470360" lon="-8.6428230">
        <ele>16.3</ele>
        <time>2021-05-22T06:49:55Z</time>
      </trkpt>
      <trkpt lat="42.4470460" lon="-8.6428180">
        <ele>16.3</ele>
        <time>2021-05-22T06:49:56Z</time>
      </trkpt>
      <trkpt lat="42.4470630" lon="-8.6428190">
        <ele>16.4</ele>
        <time>2021-05-22T06:49:57Z</time>
      </trkpt>
      <trkpt lat="42.4470730" lon="-8.6428140">
        <ele>16.4</ele>
        <time>2021-05-22T06:49:58Z</time>
      </trkpt>
      <trkpt lat="42.4470860" lon="-8.6428180">
        <ele>16.4</ele>
        <time>2021-05-22T06:49:59Z</time>
      </trkpt>
      <trkpt lat="42.4470910" lon="-8.6428120">
        <ele>16.4</ele>
        <time>2021-05-22T06:50:00Z</time>
      </trkpt>
      <trkpt lat="42.4471000" lon="-8.6428200">
        <ele>16.4</ele>
        <time>2021-05-22T06:50:01Z</time>
      </trkpt>
      <trkpt lat="42.4471060" lon="-8.6428170">
        <ele>16.4</ele>
        <time>2021-05-22T06:50:02Z</time>
      </trkpt>
      <trkpt lat="42.4471140" lon="-8.6428190">
        <ele>16.4</ele>
        <time>2021-05-22T06:50:03Z</time>
      </trkpt>
      <trkpt lat="42.4471260" lon="-8.6428220">
        <ele>16.5</ele>
        <time>2021-05-22T06:50:04Z</time>
      </trkpt>
      <trkpt lat="42.4471360" lon="-8.6428280">
        <ele>16.5</ele>
        <time>2021-05-22T06:50:05Z</time>
      </trkpt>
      <trkpt lat="42.4471550" lon="-8.6428360">
        <ele>16.5</ele>
        <time>2021-05-22T06:50:06Z</time>
      </trkpt>
      <trkpt lat="42.4471700" lon="-8.6428380">
        <ele>16.5</ele>
        <time>2021-05-22T06:50:07Z</time>
      </trkpt>
      <trkpt lat="42.4471780" lon="-8.6428380">
        <ele>16.5</ele>
        <time>2021-05-22T06:50:08Z</time>
      </trkpt>
      <trkpt lat="42.4471880" lon="-8.6428370">
        <ele>16.6</ele>
        <time>2021-05-22T06:50:09Z</time>
      </trkpt>
      <trkpt lat="42.4471910" lon="-8.6428420">
        <ele>16.6</ele>
        <time>2021-05-22T06:50:10Z</time>
      </trkpt>
      <trkpt lat="42.4471980" lon="-8.6428490">
        <ele>16.6</ele>
        <time>2021-05-22T06:50:11Z</time>
      </trkpt>
      <trkpt lat="42.4472110" lon="-8.6428500">
        <ele>16.6</ele>
        <time>2021-05-22T06:50:12Z</time>
      </trkpt>
      <trkpt lat="42.4472170" lon="-8.6428510">
        <ele>16.6</ele>
        <time>2021-05-22T06:50:13Z</time>
      </trkpt>
      <trkpt lat="42.4472290" lon="-8.6428540">
        <ele>16.7</ele>
        <time>2021-05-22T06:50:14Z</time>
      </trkpt>
      <trkpt lat="42.4472440" lon="-8.6428510">
        <ele>16.7</ele>
        <time>2021-05-22T06:50:15Z</time>
      </trkpt>
      <trkpt lat="42.4472600" lon="-8.6428510">
        <ele>16.7</ele>
        <time>2021-05-22T06:50:16Z</time>
      </trkpt>
      <trkpt lat="42.4472720" lon="-8.6428540">
        <ele>16.8</ele>
        <time>2021-05-22T06:50:17Z</time>
      </trkpt>
      <trkpt lat="42.4472820" lon="-8.6428550">
        <ele>16.8</ele>
        <time>2021-05-22T06:50:18Z</time>
      </trkpt>
      <trkpt lat="42.4472880" lon="-8.6428540">
        <ele>16.8</ele>
        <time>2021-05-22T06:50:19Z</time>
      </trkpt>
      <trkpt lat="42.4473000" lon="-8.6428590">
        <ele>16.8</ele>
        <time>2021-05-22T06:50:20Z</time>
      </trkpt>
      <trkpt lat="42.4473060" lon="-8.6428560">
        <ele>16.8</ele>
        <time>2021-05-22T06:50:21Z</time>
      </trkpt>
      <trkpt lat="42.4473170" lon="-8.6428590">
        <ele>16.9</ele>
        <time>2021-05-22T06:50:22Z</time>
      </trkpt>
      <trkpt lat="42.4473280" lon="-8.6428640">
        <ele>16.9</ele>
        <time>2021-05-22T06:50:23Z</time>
      </trkpt>
      <trkpt lat="42.4473490" lon="-8.6428700">
        <ele>16.9</ele>
        <time>2021-05-22T06:50:24Z</time>
      </trkpt>
      <trkpt lat="42.4473570" lon="-8.6428690">
        <ele>17.0</ele>
        <time>2021-05-22T06:50:25Z</time>
      </trkpt>
      <trkpt lat="42.4473650" lon="-8.6428680">
        <ele>17.0</ele>
        <time>2021-05-22T06:50:26Z</time>
      </trkpt>
      <trkpt lat="42.4473770" lon="-8.6428730">
        <ele>17.0</ele>
        <time>2021-05-22T06:50:27Z</time>
      </trkpt>
      <trkpt lat="42.4473870" lon="-8.6428710">
        <ele>17.0</ele>
        <time>2021-05-22T06:50:28Z</time>
      </trkpt>
      <trkpt lat="42.4474000" lon="-8.6428690">
        <ele>17.0</ele>
        <time>2021-05-22T06:50:29Z</time>
      </trkpt>
      <trkpt lat="42.4474230" lon="-8.6428710">
        <ele>17.1</ele>
        <time>2021-05-22T06:50:30Z</time>
      </trkpt>
      <trkpt lat="42.4474300" lon="-8.6428720">
        <ele>17.1</ele>
        <time>2021-05-22T06:50:31Z</time>
      </trkpt>
      <trkpt lat="42.4474380" lon="-8.6428720">
        <ele>17.1</ele>
        <time>2021-05-22T06:50:32Z</time>
      </trkpt>
      <trkpt lat="42.4474560" lon="-8.6428830">
        <ele>17.1</ele>
        <time>2021-05-22T06:50:33Z</time>
      </trkpt>
      <trkpt lat="42.4474650" lon="-8.6428870">
        <ele>17.1</ele>
        <time>2021-05-22T06:50:34Z</time>
      </trkpt>
      <trkpt lat="42.4474750" lon="-8.6428910">
        <ele>17.1</ele>
        <time>2021-05-22T06:50:35Z</time>
      </trkpt>
      <trkpt lat="42.4474980" lon="-8.6428960">
        <ele>17.1</ele>
        <time>2021-05-22T06:50:36Z</time>
      </trkpt>
      <trkpt lat="42.4475080" lon="-8.6428980">
        <ele>17.1</ele>
        <time>2021-05-22T06:50:37Z</time>
      </trkpt>
      <trkpt lat="42.4475170" lon="-8.6429010">
        <ele>17.1</ele>
        <time>2021-05-22T06:50:38Z</time>
      </trkpt>
      <trkpt lat="42.4475310" lon="-8.6429060">
        <ele>17.1</ele>
        <time>2021-05-22T06:50:39Z</time>
      </trkpt>
      <trkpt lat="42.4475450" lon="-8.6429060">
        <ele>17.1</ele>
        <time>2021-05-22T06:50:40Z</time>
      </trkpt>
      <trkpt lat="42.4475600" lon="-8.6429040">
        <ele>17.1</ele>
        <time>2021-05-22T06:50:41Z</time>
      </trkpt>
      <trkpt lat="42.4475730" lon="-8.6428980">
        <ele>17.1</ele>
        <time>2021-05-22T06:50:42Z</time>
      </trkpt>
      <trkpt lat="42.4475830" lon="-8.6429010">
        <ele>17.1</ele>
        <time>2021-05-22T06:50:43Z</time>
      </trkpt>
      <trkpt lat="42.4475950" lon="-8.6429050">
        <ele>17.1</ele>
        <time>2021-05-22T06:50:44Z</time>
      </trkpt>
      <trkpt lat="42.4476030" lon="-8.6429060">
        <ele>17.1</ele>
        <time>2021-05-22T06:50:45Z</time>
      </trkpt>
      <trkpt lat="42.4476170" lon="-8.6429060">
        <ele>17.1</ele>
        <time>2021-05-22T06:50:46Z</time>
      </trkpt>
      <trkpt lat="42.4476330" lon="-8.6428950">
        <ele>17.1</ele>
        <time>2021-05-22T06:50:47Z</time>
      </trkpt>
      <trkpt lat="42.4476530" lon="-8.6428890">
        <ele>17.1</ele>
        <time>2021-05-22T06:50:48Z</time>
      </trkpt>
      <trkpt lat="42.4476620" lon="-8.6428880">
        <ele>17.1</ele>
        <time>2021-05-22T06:50:49Z</time>
      </trkpt>
      <trkpt lat="42.4476720" lon="-8.6428880">
        <ele>17.0</ele>
        <time>2021-05-22T06:50:50Z</time>
      </trkpt>
      <trkpt lat="42.4476890" lon="-8.6428920">
        <ele>17.0</ele>
        <time>2021-05-22T06:50:51Z</time>
      </trkpt>
      <trkpt lat="42.4477000" lon="-8.6428920">
        <ele>17.0</ele>
        <time>2021-05-22T06:50:52Z</time>
      </trkpt>
      <trkpt lat="42.4477100" lon="-8.6428930">
        <ele>17.0</ele>
        <time>2021-05-22T06:50:53Z</time>
      </trkpt>
      <trkpt lat="42.4477310" lon="-8.6428930">
        <ele>16.9</ele>
        <time>2021-05-22T06:50:54Z</time>
      </trkpt>
      <trkpt lat="42.4477410" lon="-8.6428920">
        <ele>16.9</ele>
        <time>2021-05-22T06:50:55Z</time>
      </trkpt>
      <trkpt lat="42.4477520" lon="-8.6428920">
        <ele>16.9</ele>
        <time>2021-05-22T06:50:56Z</time>
      </trkpt>
      <trkpt lat="42.4477670" lon="-8.6428860">
        <ele>16.8</ele>
        <time>2021-05-22T06:50:57Z</time>
      </trkpt>
      <trkpt lat="42.4477810" lon="-8.6428800">
        <ele>16.8</ele>
        <time>2021-05-22T06:50:58Z</time>
      </trkpt>
      <trkpt lat="42.4477960" lon="-8.6428750">
        <ele>16.7</ele>
        <time>2021-05-22T06:50:59Z</time>
      </trkpt>
      <trkpt lat="42.4478140" lon="-8.6428660">
        <ele>16.7</ele>
        <time>2021-05-22T06:51:00Z</time>
      </trkpt>
      <trkpt lat="42.4478280" lon="-8.6428650">
        <ele>16.6</ele>
        <time>2021-05-22T06:51:01Z</time>
      </trkpt>
      <trkpt lat="42.4478420" lon="-8.6428560">
        <ele>16.6</ele>
        <time>2021-05-22T06:51:02Z</time>
      </trkpt>
      <trkpt lat="42.4478610" lon="-8.6428490">
        <ele>16.4</ele>
        <time>2021-05-22T06:51:03Z</time>
      </trkpt>
      <trkpt lat="42.4478700" lon="-8.6428470">
        <ele>16.4</ele>
        <time>2021-05-22T06:51:04Z</time>
      </trkpt>
      <trkpt lat="42.4478780" lon="-8.6428450">
        <ele>16.3</ele>
        <time>2021-05-22T06:51:05Z</time>
      </trkpt>
      <trkpt lat="42.4478900" lon="-8.6428390">
        <ele>16.2</ele>
        <time>2021-05-22T06:51:06Z</time>
      </trkpt>
      <trkpt lat="42.4478970" lon="-8.6428410">
        <ele>16.1</ele>
        <time>2021-05-22T06:51:07Z</time>
      </trkpt>
      <trkpt lat="42.4479100" lon="-8.6428390">
        <ele>16.0</ele>
        <time>2021-05-22T06:51:08Z</time>
      </trkpt>
      <trkpt lat="42.4479280" lon="-8.6428300">
        <ele>15.8</ele>
        <time>2021-05-22T06:51:09Z</time>
      </trkpt>
      <trkpt lat="42.4479380" lon="-8.6428260">
        <ele>15.7</ele>
        <time>2021-05-22T06:51:10Z</time>
      </trkpt>
      <trkpt lat="42.4479470" lon="-8.6428220">
        <ele>15.7</ele>
        <time>2021-05-22T06:51:11Z</time>
      </trkpt>
      <trkpt lat="42.4479580" lon="-8.6428140">
        <ele>15.5</ele>
        <time>2021-05-22T06:51:12Z</time>
      </trkpt>
      <trkpt lat="42.4479640" lon="-8.6428060">
        <ele>15.5</ele>
        <time>2021-05-22T06:51:13Z</time>
      </trkpt>
      <trkpt lat="42.4479770" lon="-8.6428060">
        <ele>15.3</ele>
        <time>2021-05-22T06:51:14Z</time>
      </trkpt>
      <trkpt lat="42.4479880" lon="-8.6427960">
        <ele>15.2</ele>
        <time>2021-05-22T06:51:15Z</time>
      </trkpt>
      <trkpt lat="42.4480040" lon="-8.6427880">
        <ele>15.0</ele>
        <time>2021-05-22T06:51:16Z</time>
      </trkpt>
      <trkpt lat="42.4480200" lon="-8.6427790">
        <ele>14.9</ele>
        <time>2021-05-22T06:51:17Z</time>
      </trkpt>
      <trkpt lat="42.4480350" lon="-8.6427720">
        <ele>14.7</ele>
        <time>2021-05-22T06:51:18Z</time>
      </trkpt>
      <trkpt lat="42.4480490" lon="-8.6427690">
        <ele>14.6</ele>
        <time>2021-05-22T06:51:19Z</time>
      </trkpt>
      <trkpt lat="42.4480620" lon="-8.6427670">
        <ele>14.5</ele>
        <time>2021-05-22T06:51:20Z</time>
      </trkpt>
      <trkpt lat="42.4480800" lon="-8.6427580">
        <ele>14.3</ele>
        <time>2021-05-22T06:51:21Z</time>
      </trkpt>
      <trkpt lat="42.4480840" lon="-8.6427490">
        <ele>14.2</ele>
        <time>2021-05-22T06:51:22Z</time>
      </trkpt>
      <trkpt lat="42.4480890" lon="-8.6427390">
        <ele>14.1</ele>
        <time>2021-05-22T06:51:23Z</time>
      </trkpt>
      <trkpt lat="42.4480930" lon="-8.6427300">
        <ele>14.1</ele>
        <time>2021-05-22T06:51:24Z</time>
      </trkpt>
      <trkpt lat="42.4481080" lon="-8.6427170">
        <ele>13.9</ele>
        <time>2021-05-22T06:51:25Z</time>
      </trkpt>
      <trkpt lat="42.4481170" lon="-8.6427100">
        <ele>13.8</ele>
        <time>2021-05-22T06:51:26Z</time>
      </trkpt>
      <trkpt lat="42.4481250" lon="-8.6427040">
        <ele>13.7</ele>
        <time>2021-05-22T06:51:27Z</time>
      </trkpt>
      <trkpt lat="42.4481420" lon="-8.6426890">
        <ele>13.5</ele>
        <time>2021-05-22T06:51:28Z</time>
      </trkpt>
      <trkpt lat="42.4481480" lon="-8.6426800">
        <ele>13.5</ele>
        <time>2021-05-22T06:51:29Z</time>
      </trkpt>
      <trkpt lat="42.4481550" lon="-8.6426710">
        <ele>13.4</ele>
        <time>2021-05-22T06:51:30Z</time>
      </trkpt>
      <trkpt lat="42.4481670" lon="-8.6426570">
        <ele>13.2</ele>
        <time>2021-05-22T06:51:31Z</time>
      </trkpt>
      <trkpt lat="42.4481820" lon="-8.6426460">
        <ele>13.1</ele>
        <time>2021-05-22T06:51:32Z</time>
      </trkpt>
      <trkpt lat="42.4481910" lon="-8.6426350">
        <ele>13.0</ele>
        <time>2021-05-22T06:51:33Z</time>
      </trkpt>
      <trkpt lat="42.4481960" lon="-8.6426120">
        <ele>12.8</ele>
        <time>2021-05-22T06:51:34Z</time>
      </trkpt>
      <trkpt lat="42.4482010" lon="-8.6425960">
        <ele>12.7</ele>
        <time>2021-05-22T06:51:35Z</time>
      </trkpt>
      <trkpt lat="42.4482150" lon="-8.6425860">
        <ele>12.6</ele>
        <time>2021-05-22T06:51:36Z</time>
      </trkpt>
      <trkpt lat="42.4482200" lon="-8.6425730">
        <ele>12.5</ele>
        <time>2021-05-22T06:51:37Z</time>
      </trkpt>
      <trkpt lat="42.4482290" lon="-8.6425660">
        <ele>12.4</ele>
        <time>2021-05-22T06:51:38Z</time>
      </trkpt>
      <trkpt lat="42.4482370" lon="-8.6425570">
        <ele>12.3</ele>
        <time>2021-05-22T06:51:39Z</time>
      </trkpt>
      <trkpt lat="42.4482500" lon="-8.6425480">
        <ele>12.2</ele>
        <time>2021-05-22T06:51:40Z</time>
      </trkpt>
      <trkpt lat="42.4482610" lon="-8.6425410">
        <ele>12.1</ele>
        <time>2021-05-22T06:51:41Z</time>
      </trkpt>
      <trkpt lat="42.4482740" lon="-8.6425390">
        <ele>12.0</ele>
        <time>2021-05-22T06:51:42Z</time>
      </trkpt>
      <trkpt lat="42.4482860" lon="-8.6425260">
        <ele>11.9</ele>
        <time>2021-05-22T06:51:43Z</time>
      </trkpt>
      <trkpt lat="42.4482970" lon="-8.6425200">
        <ele>11.8</ele>
        <time>2021-05-22T06:51:44Z</time>
      </trkpt>
      <trkpt lat="42.4483150" lon="-8.6425240">
        <ele>11.7</ele>
        <time>2021-05-22T06:51:45Z</time>
      </trkpt>
      <trkpt lat="42.4483290" lon="-8.6425040">
        <ele>11.5</ele>
        <time>2021-05-22T06:51:46Z</time>
      </trkpt>
      <trkpt lat="42.4483380" lon="-8.6424950">
        <ele>11.4</ele>
        <time>2021-05-22T06:51:47Z</time>
      </trkpt>
      <trkpt lat="42.4483460" lon="-8.6424900">
        <ele>11.4</ele>
        <time>2021-05-22T06:51:48Z</time>
      </trkpt>
      <trkpt lat="42.4483630" lon="-8.6424830">
        <ele>11.3</ele>
        <time>2021-05-22T06:51:49Z</time>
      </trkpt>
      <trkpt lat="42.4483700" lon="-8.6424740">
        <ele>11.2</ele>
        <time>2021-05-22T06:51:50Z</time>
      </trkpt>
      <trkpt lat="42.4483720" lon="-8.6424530">
        <ele>11.1</ele>
        <time>2021-05-22T06:51:51Z</time>
      </trkpt>
      <trkpt lat="42.4483880" lon="-8.6424450">
        <ele>10.9</ele>
        <time>2021-05-22T06:51:52Z</time>
      </trkpt>
      <trkpt lat="42.4484100" lon="-8.6424420">
        <ele>10.8</ele>
        <time>2021-05-22T06:51:53Z</time>
      </trkpt>
      <trkpt lat="42.4484200" lon="-8.6424350">
        <ele>10.7</ele>
        <time>2021-05-22T06:51:54Z</time>
      </trkpt>
      <trkpt lat="42.4484300" lon="-8.6424290">
        <ele>10.6</ele>
        <time>2021-05-22T06:51:55Z</time>
      </trkpt>
      <trkpt lat="42.4484560" lon="-8.6424170">
        <ele>10.4</ele>
        <time>2021-05-22T06:51:56Z</time>
      </trkpt>
      <trkpt lat="42.4484600" lon="-8.6424120">
        <ele>10.4</ele>
        <time>2021-05-22T06:51:57Z</time>
      </trkpt>
      <trkpt lat="42.4484650" lon="-8.6424070">
        <ele>10.3</ele>
        <time>2021-05-22T06:51:58Z</time>
      </trkpt>
      <trkpt lat="42.4484750" lon="-8.6424010">
        <ele>10.2</ele>
        <time>2021-05-22T06:51:59Z</time>
      </trkpt>
      <trkpt lat="42.4484840" lon="-8.6423920">
        <ele>10.2</ele>
        <time>2021-05-22T06:52:00Z</time>
      </trkpt>
      <trkpt lat="42.4484900" lon="-8.6423900">
        <ele>10.1</ele>
        <time>2021-05-22T06:52:01Z</time>
      </trkpt>
      <trkpt lat="42.4484950" lon="-8.6423890">
        <ele>10.1</ele>
        <time>2021-05-22T06:52:02Z</time>
      </trkpt>
      <trkpt lat="42.4485100" lon="-8.6423870">
        <ele>10.0</ele>
        <time>2021-05-22T06:52:03Z</time>
      </trkpt>
      <trkpt lat="42.4485190" lon="-8.6423840">
        <ele>9.9</ele>
        <time>2021-05-22T06:52:04Z</time>
      </trkpt>
      <trkpt lat="42.4485380" lon="-8.6423780">
        <ele>9.8</ele>
        <time>2021-05-22T06:52:05Z</time>
      </trkpt>
      <trkpt lat="42.4485460" lon="-8.6423750">
        <ele>9.7</ele>
        <time>2021-05-22T06:52:06Z</time>
      </trkpt>
      <trkpt lat="42.4485550" lon="-8.6423730">
        <ele>9.7</ele>
        <time>2021-05-22T06:52:07Z</time>
      </trkpt>
      <trkpt lat="42.4485780" lon="-8.6423670">
        <ele>9.5</ele>
        <time>2021-05-22T06:52:08Z</time>
      </trkpt>
      <trkpt lat="42.4485850" lon="-8.6423630">
        <ele>9.5</ele>
        <time>2021-05-22T06:52:09Z</time>
      </trkpt>
      <trkpt lat="42.4485920" lon="-8.6423590">
        <ele>9.4</ele>
        <time>2021-05-22T06:52:10Z</time>
      </trkpt>
      <trkpt lat="42.4486050" lon="-8.6423470">
        <ele>9.3</ele>
        <time>2021-05-22T06:52:11Z</time>
      </trkpt>
      <trkpt lat="42.4486160" lon="-8.6423380">
        <ele>9.2</ele>
        <time>2021-05-22T06:52:12Z</time>
      </trkpt>
      <trkpt lat="42.4486240" lon="-8.6423300">
        <ele>9.2</ele>
        <time>2021-05-22T06:52:13Z</time>
      </trkpt>
      <trkpt lat="42.4486390" lon="-8.6423340">
        <ele>9.1</ele>
        <time>2021-05-22T06:52:14Z</time>
      </trkpt>
      <trkpt lat="42.4486480" lon="-8.6423240">
        <ele>9.0</ele>
        <time>2021-05-22T06:52:15Z</time>
      </trkpt>
      <trkpt lat="42.4486560" lon="-8.6423190">
        <ele>9.0</ele>
        <time>2021-05-22T06:52:16Z</time>
      </trkpt>
      <trkpt lat="42.4486640" lon="-8.6423090">
        <ele>8.9</ele>
        <time>2021-05-22T06:52:17Z</time>
      </trkpt>
      <trkpt lat="42.4486720" lon="-8.6423020">
        <ele>8.8</ele>
        <time>2021-05-22T06:52:18Z</time>
      </trkpt>
      <trkpt lat="42.4486820" lon="-8.6423000">
        <ele>8.8</ele>
        <time>2021-05-22T06:52:19Z</time>
      </trkpt>
      <trkpt lat="42.4486920" lon="-8.6422960">
        <ele>8.7</ele>
        <time>2021-05-22T06:52:20Z</time>
      </trkpt>
      <trkpt lat="42.4487010" lon="-8.6422880">
        <ele>8.6</ele>
        <time>2021-05-22T06:52:21Z</time>
      </trkpt>
      <trkpt lat="42.4487080" lon="-8.6422820">
        <ele>8.6</ele>
        <time>2021-05-22T06:52:22Z</time>
      </trkpt>
      <trkpt lat="42.4487200" lon="-8.6422810">
        <ele>8.5</ele>
        <time>2021-05-22T06:52:23Z</time>
      </trkpt>
      <trkpt lat="42.4487240" lon="-8.6422790">
        <ele>8.5</ele>
        <time>2021-05-22T06:52:24Z</time>
      </trkpt>
      <trkpt lat="42.4487330" lon="-8.6422740">
        <ele>8.4</ele>
        <time>2021-05-22T06:52:25Z</time>
      </trkpt>
      <trkpt lat="42.4487530" lon="-8.6422720">
        <ele>8.3</ele>
        <time>2021-05-22T06:52:26Z</time>
      </trkpt>
      <trkpt lat="42.4487610" lon="-8.6422680">
        <ele>8.3</ele>
        <time>2021-05-22T06:52:27Z</time>
      </trkpt>
      <trkpt lat="42.4487710" lon="-8.6422630">
        <ele>8.2</ele>
        <time>2021-05-22T06:52:28Z</time>
      </trkpt>
      <trkpt lat="42.4487820" lon="-8.6422570">
        <ele>8.2</ele>
        <time>2021-05-22T06:52:29Z</time>
      </trkpt>
      <trkpt lat="42.4487920" lon="-8.6422570">
        <ele>8.1</ele>
        <time>2021-05-22T06:52:30Z</time>
      </trkpt>
      <trkpt lat="42.4488020" lon="-8.6422540">
        <ele>8.0</ele>
        <time>2021-05-22T06:52:31Z</time>
      </trkpt>
      <trkpt lat="42.4488170" lon="-8.6422500">
        <ele>8.0</ele>
        <time>2021-05-22T06:52:32Z</time>
      </trkpt>
      <trkpt lat="42.4488230" lon="-8.6422400">
        <ele>7.9</ele>
        <time>2021-05-22T06:52:33Z</time>
      </trkpt>
      <trkpt lat="42.4488350" lon="-8.6422370">
        <ele>7.9</ele>
        <time>2021-05-22T06:52:34Z</time>
      </trkpt>
      <trkpt lat="42.4488490" lon="-8.6422290">
        <ele>7.8</ele>
        <time>2021-05-22T06:52:35Z</time>
      </trkpt>
      <trkpt lat="42.4488550" lon="-8.6422220">
        <ele>7.7</ele>
        <time>2021-05-22T06:52:36Z</time>
      </trkpt>
      <trkpt lat="42.4488650" lon="-8.6422150">
        <ele>7.7</ele>
        <time>2021-05-22T06:52:37Z</time>
      </trkpt>
      <trkpt lat="42.4488740" lon="-8.6422090">
        <ele>7.6</ele>
        <time>2021-05-22T06:52:38Z</time>
      </trkpt>
      <trkpt lat="42.4488820" lon="-8.6422050">
        <ele>7.6</ele>
        <time>2021-05-22T06:52:39Z</time>
      </trkpt>
      <trkpt lat="42.4488920" lon="-8.6421960">
        <ele>7.6</ele>
        <time>2021-05-22T06:52:40Z</time>
      </trkpt>
      <trkpt lat="42.4488990" lon="-8.6421970">
        <ele>7.5</ele>
        <time>2021-05-22T06:52:41Z</time>
      </trkpt>
      <trkpt lat="42.4489110" lon="-8.6421910">
        <ele>7.5</ele>
        <time>2021-05-22T06:52:42Z</time>
      </trkpt>
      <trkpt lat="42.4489200" lon="-8.6421890">
        <ele>7.4</ele>
        <time>2021-05-22T06:52:43Z</time>
      </trkpt>
      <trkpt lat="42.4489270" lon="-8.6421810">
        <ele>7.4</ele>
        <time>2021-05-22T06:52:44Z</time>
      </trkpt>
      <trkpt lat="42.4489380" lon="-8.6421710">
        <ele>7.3</ele>
        <time>2021-05-22T06:52:45Z</time>
      </trkpt>
      <trkpt lat="42.4489500" lon="-8.6421650">
        <ele>7.3</ele>
        <time>2021-05-22T06:52:46Z</time>
      </trkpt>
      <trkpt lat="42.4489540" lon="-8.6421640">
        <ele>7.3</ele>
        <time>2021-05-22T06:52:47Z</time>
      </trkpt>
      <trkpt lat="42.4489700" lon="-8.6421590">
        <ele>7.2</ele>
        <time>2021-05-22T06:52:48Z</time>
      </trkpt>
      <trkpt lat="42.4489790" lon="-8.6421630">
        <ele>7.2</ele>
        <time>2021-05-22T06:52:49Z</time>
      </trkpt>
      <trkpt lat="42.4489880" lon="-8.6421580">
        <ele>7.1</ele>
        <time>2021-05-22T06:52:50Z</time>
      </trkpt>
      <trkpt lat="42.4489980" lon="-8.6421530">
        <ele>7.1</ele>
        <time>2021-05-22T06:52:51Z</time>
      </trkpt>
      <trkpt lat="42.4490130" lon="-8.6421540">
        <ele>7.1</ele>
        <time>2021-05-22T06:52:52Z</time>
      </trkpt>
      <trkpt lat="42.4490250" lon="-8.6421510">
        <ele>7.0</ele>
        <time>2021-05-22T06:52:53Z</time>
      </trkpt>
      <trkpt lat="42.4490340" lon="-8.6421430">
        <ele>7.0</ele>
        <time>2021-05-22T06:52:54Z</time>
      </trkpt>
      <trkpt lat="42.4490430" lon="-8.6421340">
        <ele>6.9</ele>
        <time>2021-05-22T06:52:55Z</time>
      </trkpt>
      <trkpt lat="42.4490590" lon="-8.6421270">
        <ele>6.9</ele>
        <time>2021-05-22T06:52:56Z</time>
      </trkpt>
      <trkpt lat="42.4490710" lon="-8.6421270">
        <ele>6.9</ele>
        <time>2021-05-22T06:52:57Z</time>
      </trkpt>
      <trkpt lat="42.4490830" lon="-8.6421240">
        <ele>6.8</ele>
        <time>2021-05-22T06:52:58Z</time>
      </trkpt>
      <trkpt lat="42.4490900" lon="-8.6421210">
        <ele>6.8</ele>
        <time>2021-05-22T06:52:59Z</time>
      </trkpt>
      <trkpt lat="42.4491040" lon="-8.6421080">
        <ele>6.8</ele>
        <time>2021-05-22T06:53:00Z</time>
      </trkpt>
      <trkpt lat="42.4491100" lon="-8.6421020">
        <ele>6.8</ele>
        <time>2021-05-22T06:53:01Z</time>
      </trkpt>
      <trkpt lat="42.4491150" lon="-8.6420950">
        <ele>6.7</ele>
        <time>2021-05-22T06:53:02Z</time>
      </trkpt>
      <trkpt lat="42.4491210" lon="-8.6420880">
        <ele>6.7</ele>
        <time>2021-05-22T06:53:03Z</time>
      </trkpt>
      <trkpt lat="42.4491310" lon="-8.6420840">
        <ele>6.7</ele>
        <time>2021-05-22T06:53:04Z</time>
      </trkpt>
      <trkpt lat="42.4491450" lon="-8.6420880">
        <ele>6.7</ele>
        <time>2021-05-22T06:53:05Z</time>
      </trkpt>
      <trkpt lat="42.4491550" lon="-8.6420870">
        <ele>6.6</ele>
        <time>2021-05-22T06:53:06Z</time>
      </trkpt>
      <trkpt lat="42.4491730" lon="-8.6420920">
        <ele>6.6</ele>
        <time>2021-05-22T06:53:07Z</time>
      </trkpt>
      <trkpt lat="42.4491850" lon="-8.6420920">
        <ele>6.6</ele>
        <time>2021-05-22T06:53:08Z</time>
      </trkpt>
      <trkpt lat="42.4491920" lon="-8.6420940">
        <ele>6.6</ele>
        <time>2021-05-22T06:53:09Z</time>
      </trkpt>
      <trkpt lat="42.4492040" lon="-8.6421010">
        <ele>6.5</ele>
        <time>2021-05-22T06:53:10Z</time>
      </trkpt>
      <trkpt lat="42.4492160" lon="-8.6421000">
        <ele>6.5</ele>
        <time>2021-05-22T06:53:11Z</time>
      </trkpt>
      <trkpt lat="42.4492250" lon="-8.6420990">
        <ele>6.5</ele>
        <time>2021-05-22T06:53:12Z</time>
      </trkpt>
      <trkpt lat="42.4492380" lon="-8.6421020">
        <ele>6.5</ele>
        <time>2021-05-22T06:53:13Z</time>
      </trkpt>
      <trkpt lat="42.4492520" lon="-8.6420940">
        <ele>6.4</ele>
        <time>2021-05-22T06:53:14Z</time>
      </trkpt>
      <trkpt lat="42.4492610" lon="-8.6420890">
        <ele>6.4</ele>
        <time>2021-05-22T06:53:15Z</time>
      </trkpt>
      <trkpt lat="42.4492760" lon="-8.6420870">
        <ele>6.4</ele>
        <time>2021-05-22T06:53:16Z</time>
      </trkpt>
      <trkpt lat="42.4492850" lon="-8.6420840">
        <ele>6.4</ele>
        <time>2021-05-22T06:53:17Z</time>
      </trkpt>
      <trkpt lat="42.4493030" lon="-8.6420840">
        <ele>6.3</ele>
        <time>2021-05-22T06:53:18Z</time>
      </trkpt>
      <trkpt lat="42.4493130" lon="-8.6420820">
        <ele>6.3</ele>
        <time>2021-05-22T06:53:19Z</time>
      </trkpt>
      <trkpt lat="42.4493220" lon="-8.6420810">
        <ele>6.3</ele>
        <time>2021-05-22T06:53:20Z</time>
      </trkpt>
      <trkpt lat="42.4493320" lon="-8.6420800">
        <ele>6.3</ele>
        <time>2021-05-22T06:53:21Z</time>
      </trkpt>
      <trkpt lat="42.4493430" lon="-8.6420780">
        <ele>6.3</ele>
        <time>2021-05-22T06:53:22Z</time>
      </trkpt>
      <trkpt lat="42.4493510" lon="-8.6420790">
        <ele>6.3</ele>
        <time>2021-05-22T06:53:23Z</time>
      </trkpt>
      <trkpt lat="42.4493650" lon="-8.6420800">
        <ele>6.2</ele>
        <time>2021-05-22T06:53:24Z</time>
      </trkpt>
      <trkpt lat="42.4493720" lon="-8.6420780">
        <ele>6.2</ele>
        <time>2021-05-22T06:53:25Z</time>
      </trkpt>
      <trkpt lat="42.4493790" lon="-8.6420770">
        <ele>6.2</ele>
        <time>2021-05-22T06:53:26Z</time>
      </trkpt>
      <trkpt lat="42.4493860" lon="-8.6420750">
        <ele>6.2</ele>
        <time>2021-05-22T06:53:27Z</time>
      </trkpt>
      <trkpt lat="42.4493990" lon="-8.6420770">
        <ele>6.2</ele>
        <time>2021-05-22T06:53:28Z</time>
      </trkpt>
      <trkpt lat="42.4494070" lon="-8.6420680">
        <ele>6.2</ele>
        <time>2021-05-22T06:53:29Z</time>
      </trkpt>
      <trkpt lat="42.4494130" lon="-8.6420670">
        <ele>6.2</ele>
        <time>2021-05-22T06:53:30Z</time>
      </trkpt>
      <trkpt lat="42.4494220" lon="-8.6420630">
        <ele>6.2</ele>
        <time>2021-05-22T06:53:31Z</time>
      </trkpt>
      <trkpt lat="42.4494310" lon="-8.6420660">
        <ele>6.2</ele>
        <time>2021-05-22T06:53:32Z</time>
      </trkpt>
      <trkpt lat="42.4494410" lon="-8.6420670">
        <ele>6.2</ele>
        <time>2021-05-22T06:53:33Z</time>
      </trkpt>
      <trkpt lat="42.4494510" lon="-8.6420600">
        <ele>6.2</ele>
        <time>2021-05-22T06:53:34Z</time>
      </trkpt>
      <trkpt lat="42.4494610" lon="-8.6420540">
        <ele>6.1</ele>
        <time>2021-05-22T06:53:35Z</time>
      </trkpt>
      <trkpt lat="42.4494740" lon="-8.6420570">
        <ele>6.1</ele>
        <time>2021-05-22T06:53:36Z</time>
      </trkpt>
      <trkpt lat="42.4495000" lon="-8.6420530">
        <ele>6.1</ele>
        <time>2021-05-22T06:53:37Z</time>
      </trkpt>
      <trkpt lat="42.4495100" lon="-8.6420450">
        <ele>6.1</ele>
        <time>2021-05-22T06:53:38Z</time>
      </trkpt>
      <trkpt lat="42.4495230" lon="-8.6420440">
        <ele>6.1</ele>
        <time>2021-05-22T06:53:39Z</time>
      </trkpt>
      <trkpt lat="42.4495300" lon="-8.6420520">
        <ele>6.1</ele>
        <time>2021-05-22T06:53:40Z</time>
      </trkpt>
      <trkpt lat="42.4495430" lon="-8.6420510">
        <ele>6.1</ele>
        <time>2021-05-22T06:53:41Z</time>
      </trkpt>
      <trkpt lat="42.4495590" lon="-8.6420530">
        <ele>6.1</ele>
        <time>2021-05-22T06:53:42Z</time>
      </trkpt>
      <trkpt lat="42.4495730" lon="-8.6420500">
        <ele>6.1</ele>
        <time>2021-05-22T06:53:43Z</time>
      </trkpt>
      <trkpt lat="42.4495810" lon="-8.6420470">
        <ele>6.1</ele>
        <time>2021-05-22T06:53:44Z</time>
      </trkpt>
      <trkpt lat="42.4495910" lon="-8.6420430">
        <ele>6.1</ele>
        <time>2021-05-22T06:53:45Z</time>
      </trkpt>
      <trkpt lat="42.4496010" lon="-8.6420410">
        <ele>6.1</ele>
        <time>2021-05-22T06:53:46Z</time>
      </trkpt>
      <trkpt lat="42.4496110" lon="-8.6420380">
        <ele>6.1</ele>
        <time>2021-05-22T06:53:47Z</time>
      </trkpt>
      <trkpt lat="42.4496150" lon="-8.6420300">
        <ele>6.1</ele>
        <time>2021-05-22T06:53:48Z</time>
      </trkpt>
      <trkpt lat="42.4496190" lon="-8.6420290">
        <ele>6.1</ele>
        <time>2021-05-22T06:53:49Z</time>
      </trkpt>
      <trkpt lat="42.4496270" lon="-8.6420270">
        <ele>6.1</ele>
        <time>2021-05-22T06:53:50Z</time>
      </trkpt>
      <trkpt lat="42.4496410" lon="-8.6420240">
        <ele>6.2</ele>
        <time>2021-05-22T06:53:51Z</time>
      </trkpt>
      <trkpt lat="42.4496550" lon="-8.6420220">
        <ele>6.2</ele>
        <time>2021-05-22T06:53:52Z</time>
      </trkpt>
      <trkpt lat="42.4496760" lon="-8.6420200">
        <ele>6.2</ele>
        <time>2021-05-22T06:53:53Z</time>
      </trkpt>
      <trkpt lat="42.4496840" lon="-8.6420190">
        <ele>6.2</ele>
        <time>2021-05-22T06:53:54Z</time>
      </trkpt>
      <trkpt lat="42.4496920" lon="-8.6420180">
        <ele>6.2</ele>
        <time>2021-05-22T06:53:55Z</time>
      </trkpt>
      <trkpt lat="42.4497030" lon="-8.6420090">
        <ele>6.2</ele>
        <time>2021-05-22T06:53:56Z</time>
      </trkpt>
      <trkpt lat="42.4497110" lon="-8.6420070">
        <ele>6.2</ele>
        <time>2021-05-22T06:53:57Z</time>
      </trkpt>
      <trkpt lat="42.4497180" lon="-8.6420040">
        <ele>6.2</ele>
        <time>2021-05-22T06:53:58Z</time>
      </trkpt>
      <trkpt lat="42.4497260" lon="-8.6420020">
        <ele>6.2</ele>
        <time>2021-05-22T06:53:59Z</time>
      </trkpt>
      <trkpt lat="42.4497370" lon="-8.6419940">
        <ele>6.2</ele>
        <time>2021-05-22T06:54:00Z</time>
      </trkpt>
      <trkpt lat="42.4497450" lon="-8.6419900">
        <ele>6.2</ele>
        <time>2021-05-22T06:54:01Z</time>
      </trkpt>
      <trkpt lat="42.4497550" lon="-8.6419880">
        <ele>6.2</ele>
        <time>2021-05-22T06:54:02Z</time>
      </trkpt>
      <trkpt lat="42.4497690" lon="-8.6419840">
        <ele>6.2</ele>
        <time>2021-05-22T06:54:03Z</time>
      </trkpt>
      <trkpt lat="42.4497770" lon="-8.6419810">
        <ele>6.2</ele>
        <time>2021-05-22T06:54:04Z</time>
      </trkpt>
      <trkpt lat="42.4497880" lon="-8.6419760">
        <ele>6.2</ele>
        <time>2021-05-22T06:54:05Z</time>
      </trkpt>
      <trkpt lat="42.4498030" lon="-8.6419760">
        <ele>6.2</ele>
        <time>2021-05-22T06:54:06Z</time>
      </trkpt>
      <trkpt lat="42.4498100" lon="-8.6419660">
        <ele>6.2</ele>
        <time>2021-05-22T06:54:07Z</time>
      </trkpt>
      <trkpt lat="42.4498180" lon="-8.6419630">
        <ele>6.2</ele>
        <time>2021-05-22T06:54:08Z</time>
      </trkpt>
      <trkpt lat="42.4498240" lon="-8.6419610">
        <ele>6.2</ele>
        <time>2021-05-22T06:54:09Z</time>
      </trkpt>
      <trkpt lat="42.4498360" lon="-8.6419560">
        <ele>6.2</ele>
        <time>2021-05-22T06:54:10Z</time>
      </trkpt>
      <trkpt lat="42.4498460" lon="-8.6419500">
        <ele>6.2</ele>
        <time>2021-05-22T06:54:11Z</time>
      </trkpt>
      <trkpt lat="42.4498570" lon="-8.6419450">
        <ele>6.2</ele>
        <time>2021-05-22T06:54:12Z</time>
      </trkpt>
      <trkpt lat="42.4498730" lon="-8.6419450">
        <ele>6.2</ele>
        <time>2021-05-22T06:54:13Z</time>
      </trkpt>
      <trkpt lat="42.4498820" lon="-8.6419430">
        <ele>6.2</ele>
        <time>2021-05-22T06:54:14Z</time>
      </trkpt>
      <trkpt lat="42.4498920" lon="-8.6419420">
        <ele>6.2</ele>
        <time>2021-05-22T06:54:15Z</time>
      </trkpt>
      <trkpt lat="42.4499010" lon="-8.6419360">
        <ele>6.2</ele>
        <time>2021-05-22T06:54:16Z</time>
      </trkpt>
      <trkpt lat="42.4499000" lon="-8.6419370">
        <ele>6.2</ele>
        <time>2021-05-22T06:54:17Z</time>
      </trkpt>
      <trkpt lat="42.4499060" lon="-8.6419330">
        <ele>6.2</ele>
        <time>2021-05-22T06:54:18Z</time>
      </trkpt>
      <trkpt lat="42.4499170" lon="-8.6419270">
        <ele>6.2</ele>
        <time>2021-05-22T06:54:19Z</time>
      </trkpt>
      <trkpt lat="42.4499320" lon="-8.6419210">
        <ele>6.2</ele>
        <time>2021-05-22T06:54:20Z</time>
      </trkpt>
      <trkpt lat="42.4499430" lon="-8.6419190">
        <ele>6.2</ele>
        <time>2021-05-22T06:54:21Z</time>
      </trkpt>
      <trkpt lat="42.4499520" lon="-8.6419160">
        <ele>6.2</ele>
        <time>2021-05-22T06:54:22Z</time>
      </trkpt>
      <trkpt lat="42.4499620" lon="-8.6419160">
        <ele>6.2</ele>
        <time>2021-05-22T06:54:23Z</time>
      </trkpt>
      <trkpt lat="42.4499750" lon="-8.6419070">
        <ele>6.2</ele>
        <time>2021-05-22T06:54:24Z</time>
      </trkpt>
      <trkpt lat="42.4499880" lon="-8.6419010">
        <ele>6.2</ele>
        <time>2021-05-22T06:54:25Z</time>
      </trkpt>
      <trkpt lat="42.4499910" lon="-8.6418980">
        <ele>6.2</ele>
        <time>2021-05-22T06:54:26Z</time>
      </trkpt>
      <trkpt lat="42.4499990" lon="-8.6418840">
        <ele>6.2</ele>
        <time>2021-05-22T06:54:27Z</time>
      </trkpt>
      <trkpt lat="42.4500060" lon="-8.6418790">
        <ele>6.2</ele>
        <time>2021-05-22T06:54:28Z</time>
      </trkpt>
      <trkpt lat="42.4500160" lon="-8.6418730">
        <ele>6.2</ele>
        <time>2021-05-22T06:54:29Z</time>
      </trkpt>
      <trkpt lat="42.4500330" lon="-8.6418680">
        <ele>6.2</ele>
        <time>2021-05-22T06:54:30Z</time>
      </trkpt>
      <trkpt lat="42.4500400" lon="-8.6418650">
        <ele>6.2</ele>
        <time>2021-05-22T06:54:31Z</time>
      </trkpt>
      <trkpt lat="42.4500460" lon="-8.6418620">
        <ele>6.2</ele>
        <time>2021-05-22T06:54:32Z</time>
      </trkpt>
      <trkpt lat="42.4500520" lon="-8.6418590">
        <ele>6.2</ele>
        <time>2021-05-22T06:54:33Z</time>
      </trkpt>
      <trkpt lat="42.4500630" lon="-8.6418520">
        <ele>6.2</ele>
        <time>2021-05-22T06:54:34Z</time>
      </trkpt>
      <trkpt lat="42.4500720" lon="-8.6418500">
        <ele>6.2</ele>
        <time>2021-05-22T06:54:35Z</time>
      </trkpt>
      <trkpt lat="42.4500810" lon="-8.6418540">
        <ele>6.2</ele>
        <time>2021-05-22T06:54:36Z</time>
      </trkpt>
      <trkpt lat="42.4500980" lon="-8.6418470">
        <ele>6.3</ele>
        <time>2021-05-22T06:54:37Z</time>
      </trkpt>
      <trkpt lat="42.4501040" lon="-8.6418530">
        <ele>6.3</ele>
        <time>2021-05-22T06:54:38Z</time>
      </trkpt>
      <trkpt lat="42.4501120" lon="-8.6418540">
        <ele>6.3</ele>
        <time>2021-05-22T06:54:39Z</time>
      </trkpt>
      <trkpt lat="42.4501210" lon="-8.6418500">
        <ele>6.3</ele>
        <time>2021-05-22T06:54:40Z</time>
      </trkpt>
      <trkpt lat="42.4501280" lon="-8.6418460">
        <ele>6.3</ele>
        <time>2021-05-22T06:54:41Z</time>
      </trkpt>
      <trkpt lat="42.4501400" lon="-8.6418470">
        <ele>6.3</ele>
        <time>2021-05-22T06:54:42Z</time>
      </trkpt>
      <trkpt lat="42.4501590" lon="-8.6418450">
        <ele>6.3</ele>
        <time>2021-05-22T06:54:43Z</time>
      </trkpt>
      <trkpt lat="42.4501680" lon="-8.6418430">
        <ele>6.3</ele>
        <time>2021-05-22T06:54:44Z</time>
      </trkpt>
      <trkpt lat="42.4501780" lon="-8.6418400">
        <ele>6.3</ele>
        <time>2021-05-22T06:54:45Z</time>
      </trkpt>
      <trkpt lat="42.4501880" lon="-8.6418400">
        <ele>6.3</ele>
        <time>2021-05-22T06:54:46Z</time>
      </trkpt>
      <trkpt lat="42.4502000" lon="-8.6418360">
        <ele>6.3</ele>
        <time>2021-05-22T06:54:47Z</time>
      </trkpt>
      <trkpt lat="42.4502090" lon="-8.6418360">
        <ele>6.3</ele>
        <time>2021-05-22T06:54:48Z</time>
      </trkpt>
      <trkpt lat="42.4502220" lon="-8.6418380">
        <ele>6.3</ele>
        <time>2021-05-22T06:54:49Z</time>
      </trkpt>
      <trkpt lat="42.4502310" lon="-8.6418370">
        <ele>6.3</ele>
        <time>2021-05-22T06:54:50Z</time>
      </trkpt>
      <trkpt lat="42.4502400" lon="-8.6418360">
        <ele>6.3</ele>
        <time>2021-05-22T06:54:51Z</time>
      </trkpt>
      <trkpt lat="42.4502530" lon="-8.6418290">
        <ele>6.3</ele>
        <time>2021-05-22T06:54:52Z</time>
      </trkpt>
      <trkpt lat="42.4502580" lon="-8.6418190">
        <ele>6.3</ele>
        <time>2021-05-22T06:54:53Z</time>
      </trkpt>
      <trkpt lat="42.4502690" lon="-8.6418070">
        <ele>6.3</ele>
        <time>2021-05-22T06:54:54Z</time>
      </trkpt>
      <trkpt lat="42.4502790" lon="-8.6418030">
        <ele>6.3</ele>
        <time>2021-05-22T06:54:55Z</time>
      </trkpt>
      <trkpt lat="42.4502850" lon="-8.6417990">
        <ele>6.3</ele>
        <time>2021-05-22T06:54:56Z</time>
      </trkpt>
      <trkpt lat="42.4502890" lon="-8.6418010">
        <ele>6.3</ele>
        <time>2021-05-22T06:54:57Z</time>
      </trkpt>
      <trkpt lat="42.4503050" lon="-8.6417980">
        <ele>6.3</ele>
        <time>2021-05-22T06:54:58Z</time>
      </trkpt>
      <trkpt lat="42.4503220" lon="-8.6418000">
        <ele>6.3</ele>
        <time>2021-05-22T06:54:59Z</time>
      </trkpt>
      <trkpt lat="42.4503350" lon="-8.6418010">
        <ele>6.3</ele>
        <time>2021-05-22T06:55:00Z</time>
      </trkpt>
      <trkpt lat="42.4503510" lon="-8.6418040">
        <ele>6.3</ele>
        <time>2021-05-22T06:55:01Z</time>
      </trkpt>
      <trkpt lat="42.4503680" lon="-8.6417990">
        <ele>6.3</ele>
        <time>2021-05-22T06:55:02Z</time>
      </trkpt>
      <trkpt lat="42.4503670" lon="-8.6417960">
        <ele>6.3</ele>
        <time>2021-05-22T06:55:03Z</time>
      </trkpt>
      <trkpt lat="42.4503730" lon="-8.6417970">
        <ele>6.3</ele>
        <time>2021-05-22T06:55:04Z</time>
      </trkpt>
      <trkpt lat="42.4503800" lon="-8.6417900">
        <ele>6.3</ele>
        <time>2021-05-22T06:55:05Z</time>
      </trkpt>
      <trkpt lat="42.4503990" lon="-8.6417900">
        <ele>6.3</ele>
        <time>2021-05-22T06:55:06Z</time>
      </trkpt>
      <trkpt lat="42.4504070" lon="-8.6417860">
        <ele>6.3</ele>
        <time>2021-05-22T06:55:07Z</time>
      </trkpt>
      <trkpt lat="42.4504160" lon="-8.6417890">
        <ele>6.4</ele>
        <time>2021-05-22T06:55:08Z</time>
      </trkpt>
      <trkpt lat="42.4504270" lon="-8.6417800">
        <ele>6.4</ele>
        <time>2021-05-22T06:55:09Z</time>
      </trkpt>
      <trkpt lat="42.4504410" lon="-8.6417810">
        <ele>6.4</ele>
        <time>2021-05-22T06:55:10Z</time>
      </trkpt>
      <trkpt lat="42.4504500" lon="-8.6417810">
        <ele>6.4</ele>
        <time>2021-05-22T06:55:11Z</time>
      </trkpt>
      <trkpt lat="42.4504600" lon="-8.6417790">
        <ele>6.4</ele>
        <time>2021-05-22T06:55:12Z</time>
      </trkpt>
      <trkpt lat="42.4504680" lon="-8.6417800">
        <ele>6.4</ele>
        <time>2021-05-22T06:55:13Z</time>
      </trkpt>
      <trkpt lat="42.4504780" lon="-8.6417750">
        <ele>6.4</ele>
        <time>2021-05-22T06:55:14Z</time>
      </trkpt>
      <trkpt lat="42.4504820" lon="-8.6417700">
        <ele>6.4</ele>
        <time>2021-05-22T06:55:15Z</time>
      </trkpt>
      <trkpt lat="42.4504870" lon="-8.6417690">
        <ele>6.4</ele>
        <time>2021-05-22T06:55:16Z</time>
      </trkpt>
      <trkpt lat="42.4504930" lon="-8.6417670">
        <ele>6.4</ele>
        <time>2021-05-22T06:55:17Z</time>
      </trkpt>
      <trkpt lat="42.4505030" lon="-8.6417720">
        <ele>6.4</ele>
        <time>2021-05-22T06:55:18Z</time>
      </trkpt>
      <trkpt lat="42.4505190" lon="-8.6417710">
        <ele>6.4</ele>
        <time>2021-05-22T06:55:19Z</time>
      </trkpt>
      <trkpt lat="42.4505350" lon="-8.6417720">
        <ele>6.4</ele>
        <time>2021-05-22T06:55:20Z</time>
      </trkpt>
      <trkpt lat="42.4505450" lon="-8.6417710">
        <ele>6.4</ele>
        <time>2021-05-22T06:55:21Z</time>
      </trkpt>
      <trkpt lat="42.4505500" lon="-8.6417660">
        <ele>6.4</ele>
        <time>2021-05-22T06:55:22Z</time>
      </trkpt>
      <trkpt lat="42.4505620" lon="-8.6417630">
        <ele>6.4</ele>
        <time>2021-05-22T06:55:23Z</time>
      </trkpt>
      <trkpt lat="42.4505660" lon="-8.6417560">
        <ele>6.4</ele>
        <time>2021-05-22T06:55:24Z</time>
      </trkpt>
      <trkpt lat="42.4505770" lon="-8.6417520">
        <ele>6.4</ele>
        <time>2021-05-22T06:55:25Z</time>
      </trkpt>
      <trkpt lat="42.4505950" lon="-8.6417410">
        <ele>6.4</ele>
        <time>2021-05-22T06:55:26Z</time>
      </trkpt>
      <trkpt lat="42.4506050" lon="-8.6417390">
        <ele>6.4</ele>
        <time>2021-05-22T06:55:27Z</time>
      </trkpt>
      <trkpt lat="42.4506160" lon="-8.6417360">
        <ele>6.4</ele>
        <time>2021-05-22T06:55:28Z</time>
      </trkpt>
      <trkpt lat="42.4506240" lon="-8.6417330">
        <ele>6.4</ele>
        <time>2021-05-22T06:55:29Z</time>
      </trkpt>
      <trkpt lat="42.4506360" lon="-8.6417320">
        <ele>6.4</ele>
        <time>2021-05-22T06:55:30Z</time>
      </trkpt>
      <trkpt lat="42.4506490" lon="-8.6417280">
        <ele>6.4</ele>
        <time>2021-05-22T06:55:31Z</time>
      </trkpt>
      <trkpt lat="42.4506610" lon="-8.6417210">
        <ele>6.4</ele>
        <time>2021-05-22T06:55:32Z</time>
      </trkpt>
      <trkpt lat="42.4506700" lon="-8.6417150">
        <ele>6.4</ele>
        <time>2021-05-22T06:55:33Z</time>
      </trkpt>
      <trkpt lat="42.4506770" lon="-8.6417160">
        <ele>6.4</ele>
        <time>2021-05-22T06:55:34Z</time>
      </trkpt>
      <trkpt lat="42.4506890" lon="-8.6417110">
        <ele>6.4</ele>
        <time>2021-05-22T06:55:35Z</time>
      </trkpt>
      <trkpt lat="42.4507030" lon="-8.6417060">
        <ele>6.4</ele>
        <time>2021-05-22T06:55:36Z</time>
      </trkpt>
      <trkpt lat="42.4507210" lon="-8.6417030">
        <ele>6.4</ele>
        <time>2021-05-22T06:55:37Z</time>
      </trkpt>
      <trkpt lat="42.4507370" lon="-8.6416990">
        <ele>6.4</ele>
        <time>2021-05-22T06:55:38Z</time>
      </trkpt>
      <trkpt lat="42.4507390" lon="-8.6416980">
        <ele>6.4</ele>
        <time>2021-05-22T06:55:39Z</time>
      </trkpt>
      <trkpt lat="42.4507480" lon="-8.6416920">
        <ele>6.4</ele>
        <time>2021-05-22T06:55:40Z</time>
      </trkpt>
      <trkpt lat="42.4507600" lon="-8.6416890">
        <ele>6.4</ele>
        <time>2021-05-22T06:55:41Z</time>
      </trkpt>
      <trkpt lat="42.4507690" lon="-8.6416850">
        <ele>6.4</ele>
        <time>2021-05-22T06:55:42Z</time>
      </trkpt>
      <trkpt lat="42.4507780" lon="-8.6416760">
        <ele>6.4</ele>
        <time>2021-05-22T06:55:43Z</time>
      </trkpt>
      <trkpt lat="42.4507990" lon="-8.6416680">
        <ele>6.4</ele>
        <time>2021-05-22T06:55:44Z</time>
      </trkpt>
      <trkpt lat="42.4508130" lon="-8.6416630">
        <ele>6.4</ele>
        <time>2021-05-22T06:55:45Z</time>
      </trkpt>
      <trkpt lat="42.4508220" lon="-8.6416620">
        <ele>6.4</ele>
        <time>2021-05-22T06:55:46Z</time>
      </trkpt>
      <trkpt lat="42.4508290" lon="-8.6416520">
        <ele>6.4</ele>
        <time>2021-05-22T06:55:47Z</time>
      </trkpt>
      <trkpt lat="42.4508310" lon="-8.6416450">
        <ele>6.4</ele>
        <time>2021-05-22T06:55:48Z</time>
      </trkpt>
      <trkpt lat="42.4508530" lon="-8.6416370">
        <ele>6.3</ele>
        <time>2021-05-22T06:55:49Z</time>
      </trkpt>
      <trkpt lat="42.4508610" lon="-8.6416310">
        <ele>6.3</ele>
        <time>2021-05-22T06:55:50Z</time>
      </trkpt>
      <trkpt lat="42.4508750" lon="-8.6416260">
        <ele>6.3</ele>
        <time>2021-05-22T06:55:51Z</time>
      </trkpt>
      <trkpt lat="42.4508930" lon="-8.6416230">
        <ele>6.3</ele>
        <time>2021-05-22T06:55:52Z</time>
      </trkpt>
      <trkpt lat="42.4509220" lon="-8.6416220">
        <ele>6.3</ele>
        <time>2021-05-22T06:55:53Z</time>
      </trkpt>
      <trkpt lat="42.4509300" lon="-8.6416190">
        <ele>6.3</ele>
        <time>2021-05-22T06:55:54Z</time>
      </trkpt>
      <trkpt lat="42.4509560" lon="-8.6416140">
        <ele>6.3</ele>
        <time>2021-05-22T06:55:55Z</time>
      </trkpt>
      <trkpt lat="42.4509670" lon="-8.6416100">
        <ele>6.3</ele>
        <time>2021-05-22T06:55:56Z</time>
      </trkpt>
      <trkpt lat="42.4509850" lon="-8.6416060">
        <ele>6.3</ele>
        <time>2021-05-22T06:55:57Z</time>
      </trkpt>
      <trkpt lat="42.4510000" lon="-8.6416080">
        <ele>6.3</ele>
        <time>2021-05-22T06:55:58Z</time>
      </trkpt>
      <trkpt lat="42.4510070" lon="-8.6416030">
        <ele>6.3</ele>
        <time>2021-05-22T06:55:59Z</time>
      </trkpt>
      <trkpt lat="42.4510190" lon="-8.6415980">
        <ele>6.3</ele>
        <time>2021-05-22T06:56:00Z</time>
      </trkpt>
      <trkpt lat="42.4510310" lon="-8.6415890">
        <ele>6.3</ele>
        <time>2021-05-22T06:56:01Z</time>
      </trkpt>
      <trkpt lat="42.4510440" lon="-8.6415870">
        <ele>6.3</ele>
        <time>2021-05-22T06:56:02Z</time>
      </trkpt>
      <trkpt lat="42.4510560" lon="-8.6415790">
        <ele>6.3</ele>
        <time>2021-05-22T06:56:03Z</time>
      </trkpt>
      <trkpt lat="42.4510650" lon="-8.6415760">
        <ele>6.3</ele>
        <time>2021-05-22T06:56:04Z</time>
      </trkpt>
      <trkpt lat="42.4510770" lon="-8.6415740">
        <ele>6.3</ele>
        <time>2021-05-22T06:56:05Z</time>
      </trkpt>
      <trkpt lat="42.4510910" lon="-8.6415650">
        <ele>6.3</ele>
        <time>2021-05-22T06:56:06Z</time>
      </trkpt>
      <trkpt lat="42.4511000" lon="-8.6415590">
        <ele>6.3</ele>
        <time>2021-05-22T06:56:07Z</time>
      </trkpt>
      <trkpt lat="42.4511050" lon="-8.6415580">
        <ele>6.3</ele>
        <time>2021-05-22T06:56:08Z</time>
      </trkpt>
      <trkpt lat="42.4511160" lon="-8.6415580">
        <ele>6.3</ele>
        <time>2021-05-22T06:56:09Z</time>
      </trkpt>
      <trkpt lat="42.4511220" lon="-8.6415580">
        <ele>6.3</ele>
        <time>2021-05-22T06:56:10Z</time>
      </trkpt>
      <trkpt lat="42.4511370" lon="-8.6415520">
        <ele>6.3</ele>
        <time>2021-05-22T06:56:11Z</time>
      </trkpt>
      <trkpt lat="42.4511510" lon="-8.6415500">
        <ele>6.3</ele>
        <time>2021-05-22T06:56:12Z</time>
      </trkpt>
      <trkpt lat="42.4511610" lon="-8.6415460">
        <ele>6.3</ele>
        <time>2021-05-22T06:56:13Z</time>
      </trkpt>
      <trkpt lat="42.4511700" lon="-8.6415480">
        <ele>6.3</ele>
        <time>2021-05-22T06:56:14Z</time>
      </trkpt>
      <trkpt lat="42.4511790" lon="-8.6415490">
        <ele>6.3</ele>
        <time>2021-05-22T06:56:15Z</time>
      </trkpt>
      <trkpt lat="42.4511880" lon="-8.6415510">
        <ele>6.3</ele>
        <time>2021-05-22T06:56:16Z</time>
      </trkpt>
      <trkpt lat="42.4512040" lon="-8.6415470">
        <ele>6.3</ele>
        <time>2021-05-22T06:56:17Z</time>
      </trkpt>
      <trkpt lat="42.4512080" lon="-8.6415450">
        <ele>6.3</ele>
        <time>2021-05-22T06:56:18Z</time>
      </trkpt>
      <trkpt lat="42.4512130" lon="-8.6415440">
        <ele>6.3</ele>
        <time>2021-05-22T06:56:19Z</time>
      </trkpt>
      <trkpt lat="42.4512170" lon="-8.6415420">
        <ele>6.3</ele>
        <time>2021-05-22T06:56:20Z</time>
      </trkpt>
      <trkpt lat="42.4512210" lon="-8.6415400">
        <ele>6.3</ele>
        <time>2021-05-22T06:56:21Z</time>
      </trkpt>
      <trkpt lat="42.4512250" lon="-8.6415380">
        <ele>6.3</ele>
        <time>2021-05-22T06:56:22Z</time>
      </trkpt>
      <trkpt lat="42.4512380" lon="-8.6415360">
        <ele>6.3</ele>
        <time>2021-05-22T06:56:23Z</time>
      </trkpt>
      <trkpt lat="42.4512350" lon="-8.6415260">
        <ele>6.3</ele>
        <time>2021-05-22T06:56:24Z</time>
      </trkpt>
      <trkpt lat="42.4512310" lon="-8.6415260">
        <ele>6.3</ele>
        <time>2021-05-22T06:56:25Z</time>
      </trkpt>
      <trkpt lat="42.4512300" lon="-8.6415280">
        <ele>6.3</ele>
        <time>2021-05-22T06:56:26Z</time>
      </trkpt>
      <trkpt lat="42.4512300" lon="-8.6415290">
        <ele>6.3</ele>
        <time>2021-05-22T06:56:27Z</time>
      </trkpt>
      <trkpt lat="42.4512430" lon="-8.6415330">
        <ele>6.3</ele>
        <time>2021-05-22T06:56:28Z</time>
      </trkpt>
      <trkpt lat="42.4512500" lon="-8.6415240">
        <ele>6.3</ele>
        <time>2021-05-22T06:56:29Z</time>
      </trkpt>
      <trkpt lat="42.4512610" lon="-8.6415200">
        <ele>6.4</ele>
        <time>2021-05-22T06:56:30Z</time>
      </trkpt>
      <trkpt lat="42.4512690" lon="-8.6415240">
        <ele>6.4</ele>
        <time>2021-05-22T06:56:31Z</time>
      </trkpt>
      <trkpt lat="42.4512750" lon="-8.6415280">
        <ele>6.4</ele>
        <time>2021-05-22T06:56:32Z</time>
      </trkpt>
      <trkpt lat="42.4512830" lon="-8.6415300">
        <ele>6.4</ele>
        <time>2021-05-22T06:56:33Z</time>
      </trkpt>
      <trkpt lat="42.4513050" lon="-8.6415350">
        <ele>6.4</ele>
        <time>2021-05-22T06:56:34Z</time>
      </trkpt>
      <trkpt lat="42.4513170" lon="-8.6415360">
        <ele>6.4</ele>
        <time>2021-05-22T06:56:35Z</time>
      </trkpt>
      <trkpt lat="42.4513280" lon="-8.6415360">
        <ele>6.4</ele>
        <time>2021-05-22T06:56:36Z</time>
      </trkpt>
      <trkpt lat="42.4513340" lon="-8.6415320">
        <ele>6.4</ele>
        <time>2021-05-22T06:56:37Z</time>
      </trkpt>
      <trkpt lat="42.4513560" lon="-8.6415370">
        <ele>6.4</ele>
        <time>2021-05-22T06:56:38Z</time>
      </trkpt>
      <trkpt lat="42.4513610" lon="-8.6415340">
        <ele>6.4</ele>
        <time>2021-05-22T06:56:39Z</time>
      </trkpt>
      <trkpt lat="42.4513710" lon="-8.6415310">
        <ele>6.4</ele>
        <time>2021-05-22T06:56:40Z</time>
      </trkpt>
      <trkpt lat="42.4513830" lon="-8.6415290">
        <ele>6.5</ele>
        <time>2021-05-22T06:56:41Z</time>
      </trkpt>
      <trkpt lat="42.4513950" lon="-8.6415260">
        <ele>6.5</ele>
        <time>2021-05-22T06:56:42Z</time>
      </trkpt>
      <trkpt lat="42.4514060" lon="-8.6415270">
        <ele>6.5</ele>
        <time>2021-05-22T06:56:43Z</time>
      </trkpt>
      <trkpt lat="42.4514160" lon="-8.6415280">
        <ele>6.5</ele>
        <time>2021-05-22T06:56:44Z</time>
      </trkpt>
      <trkpt lat="42.4514260" lon="-8.6415250">
        <ele>6.5</ele>
        <time>2021-05-22T06:56:45Z</time>
      </trkpt>
      <trkpt lat="42.4514310" lon="-8.6415230">
        <ele>6.5</ele>
        <time>2021-05-22T06:56:46Z</time>
      </trkpt>
      <trkpt lat="42.4514520" lon="-8.6415290">
        <ele>6.5</ele>
        <time>2021-05-22T06:56:47Z</time>
      </trkpt>
      <trkpt lat="42.4514650" lon="-8.6415290">
        <ele>6.5</ele>
        <time>2021-05-22T06:56:48Z</time>
      </trkpt>
      <trkpt lat="42.4514740" lon="-8.6415280">
        <ele>6.5</ele>
        <time>2021-05-22T06:56:49Z</time>
      </trkpt>
      <trkpt lat="42.4514830" lon="-8.6415260">
        <ele>6.5</ele>
        <time>2021-05-22T06:56:50Z</time>
      </trkpt>
      <trkpt lat="42.4514920" lon="-8.6415250">
        <ele>6.5</ele>
        <time>2021-05-22T06:56:51Z</time>
      </trkpt>
      <trkpt lat="42.4514980" lon="-8.6415190">
        <ele>6.5</ele>
        <time>2021-05-22T06:56:52Z</time>
      </trkpt>
      <trkpt lat="42.4515100" lon="-8.6415160">
        <ele>6.6</ele>
        <time>2021-05-22T06:56:53Z</time>
      </trkpt>
      <trkpt lat="42.4515140" lon="-8.6415140">
        <ele>6.6</ele>
        <time>2021-05-22T06:56:54Z</time>
      </trkpt>
      <trkpt lat="42.4515210" lon="-8.6415150">
        <ele>6.6</ele>
        <time>2021-05-22T06:56:55Z</time>
      </trkpt>
      <trkpt lat="42.4515360" lon="-8.6415130">
        <ele>6.6</ele>
        <time>2021-05-22T06:56:56Z</time>
      </trkpt>
      <trkpt lat="42.4515490" lon="-8.6415050">
        <ele>6.6</ele>
        <time>2021-05-22T06:56:57Z</time>
      </trkpt>
      <trkpt lat="42.4515600" lon="-8.6415030">
        <ele>6.6</ele>
        <time>2021-05-22T06:56:58Z</time>
      </trkpt>
      <trkpt lat="42.4515660" lon="-8.6414980">
        <ele>6.6</ele>
        <time>2021-05-22T06:56:59Z</time>
      </trkpt>
      <trkpt lat="42.4515770" lon="-8.6414910">
        <ele>6.6</ele>
        <time>2021-05-22T06:57:00Z</time>
      </trkpt>
      <trkpt lat="42.4515900" lon="-8.6414880">
        <ele>6.6</ele>
        <time>2021-05-22T06:57:01Z</time>
      </trkpt>
      <trkpt lat="42.4515990" lon="-8.6414820">
        <ele>6.6</ele>
        <time>2021-05-22T06:57:02Z</time>
      </trkpt>
      <trkpt lat="42.4516100" lon="-8.6414820">
        <ele>6.6</ele>
        <time>2021-05-22T06:57:03Z</time>
      </trkpt>
      <trkpt lat="42.4516160" lon="-8.6414790">
        <ele>6.6</ele>
        <time>2021-05-22T06:57:04Z</time>
      </trkpt>
      <trkpt lat="42.4516260" lon="-8.6414750">
        <ele>6.6</ele>
        <time>2021-05-22T06:57:05Z</time>
      </trkpt>
      <trkpt lat="42.4516350" lon="-8.6414720">
        <ele>6.6</ele>
        <time>2021-05-22T06:57:06Z</time>
      </trkpt>
      <trkpt lat="42.4516420" lon="-8.6414690">
        <ele>6.6</ele>
        <time>2021-05-22T06:57:07Z</time>
      </trkpt>
      <trkpt lat="42.4516540" lon="-8.6414640">
        <ele>6.6</ele>
        <time>2021-05-22T06:57:08Z</time>
      </trkpt>
      <trkpt lat="42.4516710" lon="-8.6414610">
        <ele>6.6</ele>
        <time>2021-05-22T06:57:09Z</time>
      </trkpt>
      <trkpt lat="42.4516830" lon="-8.6414550">
        <ele>6.6</ele>
        <time>2021-05-22T06:57:10Z</time>
      </trkpt>
      <trkpt lat="42.4516900" lon="-8.6414530">
        <ele>6.6</ele>
        <time>2021-05-22T06:57:11Z</time>
      </trkpt>
      <trkpt lat="42.4517050" lon="-8.6414490">
        <ele>6.6</ele>
        <time>2021-05-22T06:57:12Z</time>
      </trkpt>
      <trkpt lat="42.4517180" lon="-8.6414460">
        <ele>6.6</ele>
        <time>2021-05-22T06:57:13Z</time>
      </trkpt>
      <trkpt lat="42.4517360" lon="-8.6414530">
        <ele>6.6</ele>
        <time>2021-05-22T06:57:14Z</time>
      </trkpt>
      <trkpt lat="42.4517480" lon="-8.6414560">
        <ele>6.7</ele>
        <time>2021-05-22T06:57:15Z</time>
      </trkpt>
      <trkpt lat="42.4517630" lon="-8.6414620">
        <ele>6.7</ele>
        <time>2021-05-22T06:57:16Z</time>
      </trkpt>
      <trkpt lat="42.4517760" lon="-8.6414690">
        <ele>6.7</ele>
        <time>2021-05-22T06:57:17Z</time>
      </trkpt>
      <trkpt lat="42.4517860" lon="-8.6414800">
        <ele>6.7</ele>
        <time>2021-05-22T06:57:18Z</time>
      </trkpt>
      <trkpt lat="42.4518000" lon="-8.6414820">
        <ele>6.7</ele>
        <time>2021-05-22T06:57:19Z</time>
      </trkpt>
      <trkpt lat="42.4518110" lon="-8.6414880">
        <ele>6.7</ele>
        <time>2021-05-22T06:57:20Z</time>
      </trkpt>
      <trkpt lat="42.4518190" lon="-8.6414880">
        <ele>6.7</ele>
        <time>2021-05-22T06:57:21Z</time>
      </trkpt>
      <trkpt lat="42.4518290" lon="-8.6414900">
        <ele>6.7</ele>
        <time>2021-05-22T06:57:22Z</time>
      </trkpt>
      <trkpt lat="42.4518330" lon="-8.6414880">
        <ele>6.7</ele>
        <time>2021-05-22T06:57:23Z</time>
      </trkpt>
      <trkpt lat="42.4518430" lon="-8.6414920">
        <ele>6.7</ele>
        <time>2021-05-22T06:57:24Z</time>
      </trkpt>
      <trkpt lat="42.4518490" lon="-8.6414900">
        <ele>6.7</ele>
        <time>2021-05-22T06:57:25Z</time>
      </trkpt>
      <trkpt lat="42.4518620" lon="-8.6414970">
        <ele>6.7</ele>
        <time>2021-05-22T06:57:26Z</time>
      </trkpt>
      <trkpt lat="42.4518700" lon="-8.6414980">
        <ele>6.7</ele>
        <time>2021-05-22T06:57:27Z</time>
      </trkpt>
      <trkpt lat="42.4518770" lon="-8.6415000">
        <ele>6.7</ele>
        <time>2021-05-22T06:57:28Z</time>
      </trkpt>
      <trkpt lat="42.4518850" lon="-8.6415020">
        <ele>6.7</ele>
        <time>2021-05-22T06:57:29Z</time>
      </trkpt>
      <trkpt lat="42.4519020" lon="-8.6415030">
        <ele>6.7</ele>
        <time>2021-05-22T06:57:30Z</time>
      </trkpt>
      <trkpt lat="42.4519140" lon="-8.6415090">
        <ele>6.7</ele>
        <time>2021-05-22T06:57:31Z</time>
      </trkpt>
      <trkpt lat="42.4519260" lon="-8.6415160">
        <ele>6.7</ele>
        <time>2021-05-22T06:57:32Z</time>
      </trkpt>
      <trkpt lat="42.4519350" lon="-8.6415250">
        <ele>6.7</ele>
        <time>2021-05-22T06:57:33Z</time>
      </trkpt>
      <trkpt lat="42.4519510" lon="-8.6415350">
        <ele>6.7</ele>
        <time>2021-05-22T06:57:34Z</time>
      </trkpt>
      <trkpt lat="42.4519630" lon="-8.6415470">
        <ele>6.7</ele>
        <time>2021-05-22T06:57:35Z</time>
      </trkpt>
      <trkpt lat="42.4519700" lon="-8.6415500">
        <ele>6.7</ele>
        <time>2021-05-22T06:57:36Z</time>
      </trkpt>
      <trkpt lat="42.4519770" lon="-8.6415540">
        <ele>6.7</ele>
        <time>2021-05-22T06:57:37Z</time>
      </trkpt>
      <trkpt lat="42.4519840" lon="-8.6415580">
        <ele>6.7</ele>
        <time>2021-05-22T06:57:38Z</time>
      </trkpt>
      <trkpt lat="42.4520010" lon="-8.6415630">
        <ele>6.7</ele>
        <time>2021-05-22T06:57:39Z</time>
      </trkpt>
      <trkpt lat="42.4520190" lon="-8.6415750">
        <ele>6.7</ele>
        <time>2021-05-22T06:57:40Z</time>
      </trkpt>
      <trkpt lat="42.4520280" lon="-8.6415810">
        <ele>6.7</ele>
        <time>2021-05-22T06:57:41Z</time>
      </trkpt>
      <trkpt lat="42.4520350" lon="-8.6415910">
        <ele>6.7</ele>
        <time>2021-05-22T06:57:42Z</time>
      </trkpt>
      <trkpt lat="42.4520480" lon="-8.6415980">
        <ele>6.7</ele>
        <time>2021-05-22T06:57:43Z</time>
      </trkpt>
      <trkpt lat="42.4520510" lon="-8.6416010">
        <ele>6.7</ele>
        <time>2021-05-22T06:57:44Z</time>
      </trkpt>
      <trkpt lat="42.4520520" lon="-8.6416050">
        <ele>6.7</ele>
        <time>2021-05-22T06:57:45Z</time>
      </trkpt>
      <trkpt lat="42.4520680" lon="-8.6416120">
        <ele>6.7</ele>
        <time>2021-05-22T06:57:46Z</time>
      </trkpt>
      <trkpt lat="42.4520760" lon="-8.6416160">
        <ele>6.7</ele>
        <time>2021-05-22T06:57:47Z</time>
      </trkpt>
      <trkpt lat="42.4520900" lon="-8.6416200">
        <ele>6.7</ele>
        <time>2021-05-22T06:57:48Z</time>
      </trkpt>
      <trkpt lat="42.4520940" lon="-8.6416170">
        <ele>6.7</ele>
        <time>2021-05-22T06:57:49Z</time>
      </trkpt>
      <trkpt lat="42.4520940" lon="-8.6416190">
        <ele>6.7</ele>
        <time>2021-05-22T06:57:50Z</time>
      </trkpt>
      <trkpt lat="42.4521080" lon="-8.6416210">
        <ele>6.7</ele>
        <time>2021-05-22T06:57:51Z</time>
      </trkpt>
      <trkpt lat="42.4521110" lon="-8.6416260">
        <ele>6.7</ele>
        <time>2021-05-22T06:57:52Z</time>
      </trkpt>
      <trkpt lat="42.4521260" lon="-8.6416340">
        <ele>6.7</ele>
        <time>2021-05-22T06:57:53Z</time>
      </trkpt>
      <trkpt lat="42.4521400" lon="-8.6416410">
        <ele>6.7</ele>
        <time>2021-05-22T06:57:54Z</time>
      </trkpt>
      <trkpt lat="42.4521590" lon="-8.6416500">
        <ele>6.7</ele>
        <time>2021-05-22T06:57:55Z</time>
      </trkpt>
      <trkpt lat="42.4521670" lon="-8.6416530">
        <ele>6.8</ele>
        <time>2021-05-22T06:57:56Z</time>
      </trkpt>
      <trkpt lat="42.4521750" lon="-8.6416560">
        <ele>6.8</ele>
        <time>2021-05-22T06:57:57Z</time>
      </trkpt>
      <trkpt lat="42.4521800" lon="-8.6416600">
        <ele>6.8</ele>
        <time>2021-05-22T06:57:58Z</time>
      </trkpt>
      <trkpt lat="42.4521890" lon="-8.6416670">
        <ele>6.8</ele>
        <time>2021-05-22T06:57:59Z</time>
      </trkpt>
      <trkpt lat="42.4522010" lon="-8.6416700">
        <ele>6.8</ele>
        <time>2021-05-22T06:58:00Z</time>
      </trkpt>
      <trkpt lat="42.4522140" lon="-8.6416770">
        <ele>6.8</ele>
        <time>2021-05-22T06:58:01Z</time>
      </trkpt>
      <trkpt lat="42.4522290" lon="-8.6416800">
        <ele>6.8</ele>
        <time>2021-05-22T06:58:02Z</time>
      </trkpt>
      <trkpt lat="42.4522300" lon="-8.6416780">
        <ele>6.8</ele>
        <time>2021-05-22T06:58:03Z</time>
      </trkpt>
      <trkpt lat="42.4522470" lon="-8.6416890">
        <ele>6.8</ele>
        <time>2021-05-22T06:58:04Z</time>
      </trkpt>
      <trkpt lat="42.4522590" lon="-8.6416900">
        <ele>6.8</ele>
        <time>2021-05-22T06:58:05Z</time>
      </trkpt>
      <trkpt lat="42.4522660" lon="-8.6416920">
        <ele>6.8</ele>
        <time>2021-05-22T06:58:06Z</time>
      </trkpt>
      <trkpt lat="42.4522710" lon="-8.6417000">
        <ele>6.9</ele>
        <time>2021-05-22T06:58:07Z</time>
      </trkpt>
      <trkpt lat="42.4522800" lon="-8.6417050">
        <ele>6.9</ele>
        <time>2021-05-22T06:58:08Z</time>
      </trkpt>
      <trkpt lat="42.4522890" lon="-8.6417030">
        <ele>6.9</ele>
        <time>2021-05-22T06:58:09Z</time>
      </trkpt>
      <trkpt lat="42.4523100" lon="-8.6417090">
        <ele>6.9</ele>
        <time>2021-05-22T06:58:10Z</time>
      </trkpt>
      <trkpt lat="42.4523170" lon="-8.6417130">
        <ele>6.9</ele>
        <time>2021-05-22T06:58:11Z</time>
      </trkpt>
      <trkpt lat="42.4523250" lon="-8.6417160">
        <ele>6.9</ele>
        <time>2021-05-22T06:58:12Z</time>
      </trkpt>
      <trkpt lat="42.4523330" lon="-8.6417170">
        <ele>6.9</ele>
        <time>2021-05-22T06:58:13Z</time>
      </trkpt>
      <trkpt lat="42.4523420" lon="-8.6417210">
        <ele>6.9</ele>
        <time>2021-05-22T06:58:14Z</time>
      </trkpt>
      <trkpt lat="42.4523460" lon="-8.6417230">
        <ele>6.9</ele>
        <time>2021-05-22T06:58:15Z</time>
      </trkpt>
      <trkpt lat="42.4523540" lon="-8.6417260">
        <ele>7.0</ele>
        <time>2021-05-22T06:58:16Z</time>
      </trkpt>
      <trkpt lat="42.4523600" lon="-8.6417270">
        <ele>7.0</ele>
        <time>2021-05-22T06:58:17Z</time>
      </trkpt>
      <trkpt lat="42.4523600" lon="-8.6417290">
        <ele>7.0</ele>
        <time>2021-05-22T06:58:18Z</time>
      </trkpt>
      <trkpt lat="42.4523720" lon="-8.6417330">
        <ele>7.0</ele>
        <time>2021-05-22T06:58:19Z</time>
      </trkpt>
      <trkpt lat="42.4523780" lon="-8.6417370">
        <ele>7.0</ele>
        <time>2021-05-22T06:58:20Z</time>
      </trkpt>
      <trkpt lat="42.4523880" lon="-8.6417400">
        <ele>7.0</ele>
        <time>2021-05-22T06:58:21Z</time>
      </trkpt>
      <trkpt lat="42.4524030" lon="-8.6417410">
        <ele>7.0</ele>
        <time>2021-05-22T06:58:22Z</time>
      </trkpt>
      <trkpt lat="42.4524070" lon="-8.6417430">
        <ele>7.0</ele>
        <time>2021-05-22T06:58:23Z</time>
      </trkpt>
      <trkpt lat="42.4524160" lon="-8.6417460">
        <ele>7.0</ele>
        <time>2021-05-22T06:58:24Z</time>
      </trkpt>
      <trkpt lat="42.4524250" lon="-8.6417480">
        <ele>7.0</ele>
        <time>2021-05-22T06:58:25Z</time>
      </trkpt>
      <trkpt lat="42.4524240" lon="-8.6417460">
        <ele>7.1</ele>
        <time>2021-05-22T06:58:26Z</time>
      </trkpt>
      <trkpt lat="42.4524330" lon="-8.6417490">
        <ele>7.1</ele>
        <time>2021-05-22T06:58:27Z</time>
      </trkpt>
      <trkpt lat="42.4524340" lon="-8.6417520">
        <ele>7.1</ele>
        <time>2021-05-22T06:58:28Z</time>
      </trkpt>
      <trkpt lat="42.4524500" lon="-8.6417610">
        <ele>7.1</ele>
        <time>2021-05-22T06:58:29Z</time>
      </trkpt>
      <trkpt lat="42.4524620" lon="-8.6417710">
        <ele>7.1</ele>
        <time>2021-05-22T06:58:30Z</time>
      </trkpt>
      <trkpt lat="42.4524750" lon="-8.6417690">
        <ele>7.1</ele>
        <time>2021-05-22T06:58:31Z</time>
      </trkpt>
      <trkpt lat="42.4524790" lon="-8.6417730">
        <ele>7.1</ele>
        <time>2021-05-22T06:58:32Z</time>
      </trkpt>
      <trkpt lat="42.4524820" lon="-8.6417800">
        <ele>7.2</ele>
        <time>2021-05-22T06:58:33Z</time>
      </trkpt>
      <trkpt lat="42.4524950" lon="-8.6417810">
        <ele>7.2</ele>
        <time>2021-05-22T06:58:34Z</time>
      </trkpt>
      <trkpt lat="42.4525040" lon="-8.6417840">
        <ele>7.2</ele>
        <time>2021-05-22T06:58:35Z</time>
      </trkpt>
      <trkpt lat="42.4525110" lon="-8.6417850">
        <ele>7.2</ele>
        <time>2021-05-22T06:58:36Z</time>
      </trkpt>
      <trkpt lat="42.4525270" lon="-8.6418070">
        <ele>7.2</ele>
        <time>2021-05-22T06:58:37Z</time>
      </trkpt>
      <trkpt lat="42.4525370" lon="-8.6418130">
        <ele>7.3</ele>
        <time>2021-05-22T06:58:38Z</time>
      </trkpt>
      <trkpt lat="42.4525470" lon="-8.6418200">
        <ele>7.3</ele>
        <time>2021-05-22T06:58:39Z</time>
      </trkpt>
      <trkpt lat="42.4525580" lon="-8.6418240">
        <ele>7.3</ele>
        <time>2021-05-22T06:58:40Z</time>
      </trkpt>
      <trkpt lat="42.4525720" lon="-8.6418250">
        <ele>7.3</ele>
        <time>2021-05-22T06:58:41Z</time>
      </trkpt>
      <trkpt lat="42.4525830" lon="-8.6418250">
        <ele>7.3</ele>
        <time>2021-05-22T06:58:42Z</time>
      </trkpt>
      <trkpt lat="42.4525980" lon="-8.6418310">
        <ele>7.4</ele>
        <time>2021-05-22T06:58:43Z</time>
      </trkpt>
      <trkpt lat="42.4526040" lon="-8.6418320">
        <ele>7.4</ele>
        <time>2021-05-22T06:58:44Z</time>
      </trkpt>
      <trkpt lat="42.4526150" lon="-8.6418310">
        <ele>7.4</ele>
        <time>2021-05-22T06:58:45Z</time>
      </trkpt>
      <trkpt lat="42.4526350" lon="-8.6418390">
        <ele>7.4</ele>
        <time>2021-05-22T06:58:46Z</time>
      </trkpt>
      <trkpt lat="42.4526410" lon="-8.6418400">
        <ele>7.4</ele>
        <time>2021-05-22T06:58:47Z</time>
      </trkpt>
      <trkpt lat="42.4526500" lon="-8.6418430">
        <ele>7.4</ele>
        <time>2021-05-22T06:58:48Z</time>
      </trkpt>
      <trkpt lat="42.4526560" lon="-8.6418450">
        <ele>7.4</ele>
        <time>2021-05-22T06:58:49Z</time>
      </trkpt>
      <trkpt lat="42.4526690" lon="-8.6418520">
        <ele>7.5</ele>
        <time>2021-05-22T06:58:50Z</time>
      </trkpt>
      <trkpt lat="42.4526780" lon="-8.6418640">
        <ele>7.5</ele>
        <time>2021-05-22T06:58:51Z</time>
      </trkpt>
      <trkpt lat="42.4526860" lon="-8.6418660">
        <ele>7.5</ele>
        <time>2021-05-22T06:58:52Z</time>
      </trkpt>
      <trkpt lat="42.4526930" lon="-8.6418700">
        <ele>7.5</ele>
        <time>2021-05-22T06:58:53Z</time>
      </trkpt>
      <trkpt lat="42.4526920" lon="-8.6418720">
        <ele>7.5</ele>
        <time>2021-05-22T06:58:54Z</time>
      </trkpt>
      <trkpt lat="42.4526980" lon="-8.6418750">
        <ele>7.5</ele>
        <time>2021-05-22T06:58:55Z</time>
      </trkpt>
      <trkpt lat="42.4527110" lon="-8.6418790">
        <ele>7.5</ele>
        <time>2021-05-22T06:58:56Z</time>
      </trkpt>
      <trkpt lat="42.4527230" lon="-8.6418930">
        <ele>7.6</ele>
        <time>2021-05-22T06:58:57Z</time>
      </trkpt>
      <trkpt lat="42.4527310" lon="-8.6419010">
        <ele>7.6</ele>
        <time>2021-05-22T06:58:58Z</time>
      </trkpt>
      <trkpt lat="42.4527360" lon="-8.6419090">
        <ele>7.6</ele>
        <time>2021-05-22T06:58:59Z</time>
      </trkpt>
      <trkpt lat="42.4527540" lon="-8.6419170">
        <ele>7.6</ele>
        <time>2021-05-22T06:59:00Z</time>
      </trkpt>
      <trkpt lat="42.4527650" lon="-8.6419220">
        <ele>7.6</ele>
        <time>2021-05-22T06:59:01Z</time>
      </trkpt>
      <trkpt lat="42.4527800" lon="-8.6419350">
        <ele>7.6</ele>
        <time>2021-05-22T06:59:02Z</time>
      </trkpt>
      <trkpt lat="42.4527900" lon="-8.6419400">
        <ele>7.7</ele>
        <time>2021-05-22T06:59:03Z</time>
      </trkpt>
      <trkpt lat="42.4527990" lon="-8.6419450">
        <ele>7.7</ele>
        <time>2021-05-22T06:59:04Z</time>
      </trkpt>
      <trkpt lat="42.4528060" lon="-8.6419480">
        <ele>7.7</ele>
        <time>2021-05-22T06:59:05Z</time>
      </trkpt>
      <trkpt lat="42.4528150" lon="-8.6419510">
        <ele>7.7</ele>
        <time>2021-05-22T06:59:06Z</time>
      </trkpt>
      <trkpt lat="42.4528270" lon="-8.6419660">
        <ele>7.7</ele>
        <time>2021-05-22T06:59:07Z</time>
      </trkpt>
      <trkpt lat="42.4528370" lon="-8.6419750">
        <ele>7.7</ele>
        <time>2021-05-22T06:59:08Z</time>
      </trkpt>
      <trkpt lat="42.4528430" lon="-8.6419760">
        <ele>7.7</ele>
        <time>2021-05-22T06:59:09Z</time>
      </trkpt>
      <trkpt lat="42.4528550" lon="-8.6419830">
        <ele>7.7</ele>
        <time>2021-05-22T06:59:10Z</time>
      </trkpt>
      <trkpt lat="42.4528700" lon="-8.6419890">
        <ele>7.8</ele>
        <time>2021-05-22T06:59:11Z</time>
      </trkpt>
      <trkpt lat="42.4528780" lon="-8.6419930">
        <ele>7.8</ele>
        <time>2021-05-22T06:59:12Z</time>
      </trkpt>
      <trkpt lat="42.4528860" lon="-8.6419960">
        <ele>7.8</ele>
        <time>2021-05-22T06:59:13Z</time>
      </trkpt>
      <trkpt lat="42.4529010" lon="-8.6420090">
        <ele>7.8</ele>
        <time>2021-05-22T06:59:14Z</time>
      </trkpt>
      <trkpt lat="42.4529080" lon="-8.6420100">
        <ele>7.8</ele>
        <time>2021-05-22T06:59:15Z</time>
      </trkpt>
      <trkpt lat="42.4529140" lon="-8.6420110">
        <ele>7.8</ele>
        <time>2021-05-22T06:59:16Z</time>
      </trkpt>
      <trkpt lat="42.4529210" lon="-8.6420120">
        <ele>7.8</ele>
        <time>2021-05-22T06:59:17Z</time>
      </trkpt>
      <trkpt lat="42.4529310" lon="-8.6420190">
        <ele>7.8</ele>
        <time>2021-05-22T06:59:18Z</time>
      </trkpt>
      <trkpt lat="42.4529390" lon="-8.6420280">
        <ele>7.8</ele>
        <time>2021-05-22T06:59:19Z</time>
      </trkpt>
      <trkpt lat="42.4529420" lon="-8.6420310">
        <ele>7.8</ele>
        <time>2021-05-22T06:59:20Z</time>
      </trkpt>
      <trkpt lat="42.4529480" lon="-8.6420360">
        <ele>7.8</ele>
        <time>2021-05-22T06:59:21Z</time>
      </trkpt>
      <trkpt lat="42.4529630" lon="-8.6420510">
        <ele>7.8</ele>
        <time>2021-05-22T06:59:22Z</time>
      </trkpt>
      <trkpt lat="42.4529710" lon="-8.6420580">
        <ele>7.8</ele>
        <time>2021-05-22T06:59:23Z</time>
      </trkpt>
      <trkpt lat="42.4529790" lon="-8.6420640">
        <ele>7.8</ele>
        <time>2021-05-22T06:59:24Z</time>
      </trkpt>
      <trkpt lat="42.4529850" lon="-8.6420840">
        <ele>7.9</ele>
        <time>2021-05-22T06:59:25Z</time>
      </trkpt>
      <trkpt lat="42.4529940" lon="-8.6420880">
        <ele>7.9</ele>
        <time>2021-05-22T06:59:26Z</time>
      </trkpt>
      <trkpt lat="42.4530060" lon="-8.6420860">
        <ele>7.9</ele>
        <time>2021-05-22T06:59:27Z</time>
      </trkpt>
      <trkpt lat="42.4530140" lon="-8.6420880">
        <ele>7.9</ele>
        <time>2021-05-22T06:59:28Z</time>
      </trkpt>
      <trkpt lat="42.4530140" lon="-8.6420830">
        <ele>7.9</ele>
        <time>2021-05-22T06:59:29Z</time>
      </trkpt>
      <trkpt lat="42.4530150" lon="-8.6420800">
        <ele>7.9</ele>
        <time>2021-05-22T06:59:30Z</time>
      </trkpt>
      <trkpt lat="42.4530270" lon="-8.6420910">
        <ele>7.9</ele>
        <time>2021-05-22T06:59:31Z</time>
      </trkpt>
      <trkpt lat="42.4530360" lon="-8.6420960">
        <ele>7.9</ele>
        <time>2021-05-22T06:59:32Z</time>
      </trkpt>
      <trkpt lat="42.4530420" lon="-8.6421000">
        <ele>7.9</ele>
        <time>2021-05-22T06:59:33Z</time>
      </trkpt>
      <trkpt lat="42.4530480" lon="-8.6421080">
        <ele>7.9</ele>
        <time>2021-05-22T06:59:34Z</time>
      </trkpt>
      <trkpt lat="42.4530460" lon="-8.6421160">
        <ele>7.9</ele>
        <time>2021-05-22T06:59:35Z</time>
      </trkpt>
      <trkpt lat="42.4530530" lon="-8.6421240">
        <ele>7.9</ele>
        <time>2021-05-22T06:59:36Z</time>
      </trkpt>
      <trkpt lat="42.4530570" lon="-8.6421310">
        <ele>7.9</ele>
        <time>2021-05-22T06:59:37Z</time>
      </trkpt>
      <trkpt lat="42.4530670" lon="-8.6421450">
        <ele>7.9</ele>
        <time>2021-05-22T06:59:38Z</time>
      </trkpt>
      <trkpt lat="42.4530670" lon="-8.6421500">
        <ele>7.9</ele>
        <time>2021-05-22T06:59:39Z</time>
      </trkpt>
      <trkpt lat="42.4530680" lon="-8.6421560">
        <ele>7.9</ele>
        <time>2021-05-22T06:59:40Z</time>
      </trkpt>
      <trkpt lat="42.4530690" lon="-8.6421610">
        <ele>7.9</ele>
        <time>2021-05-22T06:59:41Z</time>
      </trkpt>
      <trkpt lat="42.4530700" lon="-8.6421670">
        <ele>7.9</ele>
        <time>2021-05-22T06:59:42Z</time>
      </trkpt>
      <trkpt lat="42.4530700" lon="-8.6421720">
        <ele>7.9</ele>
        <time>2021-05-22T06:59:43Z</time>
      </trkpt>
      <trkpt lat="42.4530710" lon="-8.6421780">
        <ele>7.9</ele>
        <time>2021-05-22T06:59:44Z</time>
      </trkpt>
      <trkpt lat="42.4530880" lon="-8.6421900">
        <ele>8.0</ele>
        <time>2021-05-22T06:59:45Z</time>
      </trkpt>
      <trkpt lat="42.4530950" lon="-8.6421970">
        <ele>8.0</ele>
        <time>2021-05-22T06:59:46Z</time>
      </trkpt>
      <trkpt lat="42.4531030" lon="-8.6422030">
        <ele>8.0</ele>
        <time>2021-05-22T06:59:47Z</time>
      </trkpt>
      <trkpt lat="42.4531130" lon="-8.6422120">
        <ele>8.0</ele>
        <time>2021-05-22T06:59:48Z</time>
      </trkpt>
      <trkpt lat="42.4531210" lon="-8.6422250">
        <ele>8.0</ele>
        <time>2021-05-22T06:59:49Z</time>
      </trkpt>
      <trkpt lat="42.4531300" lon="-8.6422330">
        <ele>8.0</ele>
        <time>2021-05-22T06:59:50Z</time>
      </trkpt>
      <trkpt lat="42.4531380" lon="-8.6422280">
        <ele>8.0</ele>
        <time>2021-05-22T06:59:51Z</time>
      </trkpt>
      <trkpt lat="42.4531530" lon="-8.6422260">
        <ele>8.0</ele>
        <time>2021-05-22T06:59:52Z</time>
      </trkpt>
      <trkpt lat="42.4531650" lon="-8.6422310">
        <ele>8.0</ele>
        <time>2021-05-22T06:59:53Z</time>
      </trkpt>
      <trkpt lat="42.4531770" lon="-8.6422380">
        <ele>8.0</ele>
        <time>2021-05-22T06:59:54Z</time>
      </trkpt>
      <trkpt lat="42.4531870" lon="-8.6422390">
        <ele>8.0</ele>
        <time>2021-05-22T06:59:55Z</time>
      </trkpt>
      <trkpt lat="42.4531870" lon="-8.6422510">
        <ele>8.0</ele>
        <time>2021-05-22T06:59:56Z</time>
      </trkpt>
      <trkpt lat="42.4531970" lon="-8.6422500">
        <ele>8.0</ele>
        <time>2021-05-22T06:59:57Z</time>
      </trkpt>
      <trkpt lat="42.4532030" lon="-8.6422570">
        <ele>8.1</ele>
        <time>2021-05-22T06:59:58Z</time>
      </trkpt>
      <trkpt lat="42.4532140" lon="-8.6422660">
        <ele>8.1</ele>
        <time>2021-05-22T06:59:59Z</time>
      </trkpt>
      <trkpt lat="42.4532270" lon="-8.6422710">
        <ele>8.1</ele>
        <time>2021-05-22T07:00:00Z</time>
      </trkpt>
      <trkpt lat="42.4532440" lon="-8.6422820">
        <ele>8.1</ele>
        <time>2021-05-22T07:00:01Z</time>
      </trkpt>
      <trkpt lat="42.4532530" lon="-8.6422860">
        <ele>8.1</ele>
        <time>2021-05-22T07:00:02Z</time>
      </trkpt>
      <trkpt lat="42.4532610" lon="-8.6422900">
        <ele>8.1</ele>
        <time>2021-05-22T07:00:03Z</time>
      </trkpt>
      <trkpt lat="42.4532710" lon="-8.6422970">
        <ele>8.1</ele>
        <time>2021-05-22T07:00:04Z</time>
      </trkpt>
      <trkpt lat="42.4532850" lon="-8.6423010">
        <ele>8.1</ele>
        <time>2021-05-22T07:00:05Z</time>
      </trkpt>
      <trkpt lat="42.4532930" lon="-8.6422990">
        <ele>8.1</ele>
        <time>2021-05-22T07:00:06Z</time>
      </trkpt>
      <trkpt lat="42.4533030" lon="-8.6423040">
        <ele>8.1</ele>
        <time>2021-05-22T07:00:07Z</time>
      </trkpt>
      <trkpt lat="42.4533180" lon="-8.6423120">
        <ele>8.1</ele>
        <time>2021-05-22T07:00:08Z</time>
      </trkpt>
      <trkpt lat="42.4533320" lon="-8.6423220">
        <ele>8.1</ele>
        <time>2021-05-22T07:00:09Z</time>
      </trkpt>
      <trkpt lat="42.4533400" lon="-8.6423250">
        <ele>8.2</ele>
        <time>2021-05-22T07:00:10Z</time>
      </trkpt>
      <trkpt lat="42.4533470" lon="-8.6423290">
        <ele>8.2</ele>
        <time>2021-05-22T07:00:11Z</time>
      </trkpt>
      <trkpt lat="42.4533540" lon="-8.6423330">
        <ele>8.2</ele>
        <time>2021-05-22T07:00:12Z</time>
      </trkpt>
      <trkpt lat="42.4533830" lon="-8.6423500">
        <ele>8.2</ele>
        <time>2021-05-22T07:00:13Z</time>
      </trkpt>
      <trkpt lat="42.4533930" lon="-8.6423540">
        <ele>8.2</ele>
        <time>2021-05-22T07:00:14Z</time>
      </trkpt>
      <trkpt lat="42.4534080" lon="-8.6423580">
        <ele>8.2</ele>
        <time>2021-05-22T07:00:15Z</time>
      </trkpt>
      <trkpt lat="42.4534270" lon="-8.6423630">
        <ele>8.2</ele>
        <time>2021-05-22T07:00:16Z</time>
      </trkpt>
      <trkpt lat="42.4534310" lon="-8.6423640">
        <ele>8.2</ele>
        <time>2021-05-22T07:00:17Z</time>
      </trkpt>
      <trkpt lat="42.4534400" lon="-8.6423670">
        <ele>8.2</ele>
        <time>2021-05-22T07:00:18Z</time>
      </trkpt>
      <trkpt lat="42.4534490" lon="-8.6423670">
        <ele>8.2</ele>
        <time>2021-05-22T07:00:19Z</time>
      </trkpt>
      <trkpt lat="42.4534590" lon="-8.6423710">
        <ele>8.3</ele>
        <time>2021-05-22T07:00:20Z</time>
      </trkpt>
      <trkpt lat="42.4534680" lon="-8.6423710">
        <ele>8.3</ele>
        <time>2021-05-22T07:00:21Z</time>
      </trkpt>
      <trkpt lat="42.4534750" lon="-8.6423770">
        <ele>8.3</ele>
        <time>2021-05-22T07:00:22Z</time>
      </trkpt>
      <trkpt lat="42.4534790" lon="-8.6423860">
        <ele>8.3</ele>
        <time>2021-05-22T07:00:23Z</time>
      </trkpt>
      <trkpt lat="42.4534890" lon="-8.6423930">
        <ele>8.3</ele>
        <time>2021-05-22T07:00:24Z</time>
      </trkpt>
      <trkpt lat="42.4534950" lon="-8.6423940">
        <ele>8.3</ele>
        <time>2021-05-22T07:00:25Z</time>
      </trkpt>
      <trkpt lat="42.4535160" lon="-8.6424030">
        <ele>8.3</ele>
        <time>2021-05-22T07:00:26Z</time>
      </trkpt>
      <trkpt lat="42.4535330" lon="-8.6424160">
        <ele>8.3</ele>
        <time>2021-05-22T07:00:27Z</time>
      </trkpt>
      <trkpt lat="42.4535490" lon="-8.6424200">
        <ele>8.4</ele>
        <time>2021-05-22T07:00:28Z</time>
      </trkpt>
      <trkpt lat="42.4535670" lon="-8.6424310">
        <ele>8.4</ele>
        <time>2021-05-22T07:00:29Z</time>
      </trkpt>
      <trkpt lat="42.4535750" lon="-8.6424360">
        <ele>8.4</ele>
        <time>2021-05-22T07:00:30Z</time>
      </trkpt>
      <trkpt lat="42.4535830" lon="-8.6424410">
        <ele>8.4</ele>
        <time>2021-05-22T07:00:31Z</time>
      </trkpt>
      <trkpt lat="42.4535950" lon="-8.6424460">
        <ele>8.4</ele>
        <time>2021-05-22T07:00:32Z</time>
      </trkpt>
      <trkpt lat="42.4536080" lon="-8.6424560">
        <ele>8.4</ele>
        <time>2021-05-22T07:00:33Z</time>
      </trkpt>
      <trkpt lat="42.4536190" lon="-8.6424610">
        <ele>8.4</ele>
        <time>2021-05-22T07:00:34Z</time>
      </trkpt>
      <trkpt lat="42.4536320" lon="-8.6424770">
        <ele>8.4</ele>
        <time>2021-05-22T07:00:35Z</time>
      </trkpt>
      <trkpt lat="42.4536450" lon="-8.6424860">
        <ele>8.4</ele>
        <time>2021-05-22T07:00:36Z</time>
      </trkpt>
      <trkpt lat="42.4536560" lon="-8.6424890">
        <ele>8.4</ele>
        <time>2021-05-22T07:00:37Z</time>
      </trkpt>
      <trkpt lat="42.4536630" lon="-8.6424950">
        <ele>8.4</ele>
        <time>2021-05-22T07:00:38Z</time>
      </trkpt>
      <trkpt lat="42.4536710" lon="-8.6424950">
        <ele>8.4</ele>
        <time>2021-05-22T07:00:39Z</time>
      </trkpt>
      <trkpt lat="42.4536790" lon="-8.6425020">
        <ele>8.4</ele>
        <time>2021-05-22T07:00:40Z</time>
      </trkpt>
      <trkpt lat="42.4536850" lon="-8.6425080">
        <ele>8.4</ele>
        <time>2021-05-22T07:00:41Z</time>
      </trkpt>
      <trkpt lat="42.4536940" lon="-8.6425090">
        <ele>8.4</ele>
        <time>2021-05-22T07:00:42Z</time>
      </trkpt>
      <trkpt lat="42.4537120" lon="-8.6425180">
        <ele>8.4</ele>
        <time>2021-05-22T07:00:43Z</time>
      </trkpt>
      <trkpt lat="42.4537210" lon="-8.6425220">
        <ele>8.4</ele>
        <time>2021-05-22T07:00:44Z</time>
      </trkpt>
      <trkpt lat="42.4537290" lon="-8.6425270">
        <ele>8.4</ele>
        <time>2021-05-22T07:00:45Z</time>
      </trkpt>
      <trkpt lat="42.4537400" lon="-8.6425360">
        <ele>8.4</ele>
        <time>2021-05-22T07:00:46Z</time>
      </trkpt>
      <trkpt lat="42.4537440" lon="-8.6425410">
        <ele>8.4</ele>
        <time>2021-05-22T07:00:47Z</time>
      </trkpt>
      <trkpt lat="42.4537490" lon="-8.6425460">
        <ele>8.4</ele>
        <time>2021-05-22T07:00:48Z</time>
      </trkpt>
      <trkpt lat="42.4537530" lon="-8.6425510">
        <ele>8.4</ele>
        <time>2021-05-22T07:00:49Z</time>
      </trkpt>
      <trkpt lat="42.4537580" lon="-8.6425560">
        <ele>8.4</ele>
        <time>2021-05-22T07:00:50Z</time>
      </trkpt>
      <trkpt lat="42.4537620" lon="-8.6425610">
        <ele>8.4</ele>
        <time>2021-05-22T07:00:51Z</time>
      </trkpt>
      <trkpt lat="42.4537680" lon="-8.6425670">
        <ele>8.4</ele>
        <time>2021-05-22T07:00:52Z</time>
      </trkpt>
      <trkpt lat="42.4537800" lon="-8.6425690">
        <ele>8.4</ele>
        <time>2021-05-22T07:00:53Z</time>
      </trkpt>
      <trkpt lat="42.4537910" lon="-8.6425790">
        <ele>8.4</ele>
        <time>2021-05-22T07:00:54Z</time>
      </trkpt>
      <trkpt lat="42.4538020" lon="-8.6425930">
        <ele>8.4</ele>
        <time>2021-05-22T07:00:55Z</time>
      </trkpt>
      <trkpt lat="42.4538110" lon="-8.6426050">
        <ele>8.4</ele>
        <time>2021-05-22T07:00:56Z</time>
      </trkpt>
      <trkpt lat="42.4538180" lon="-8.6426100">
        <ele>8.4</ele>
        <time>2021-05-22T07:00:57Z</time>
      </trkpt>
      <trkpt lat="42.4538380" lon="-8.6426170">
        <ele>8.3</ele>
        <time>2021-05-22T07:00:58Z</time>
      </trkpt>
      <trkpt lat="42.4538470" lon="-8.6426220">
        <ele>8.3</ele>
        <time>2021-05-22T07:00:59Z</time>
      </trkpt>
      <trkpt lat="42.4538520" lon="-8.6426240">
        <ele>8.3</ele>
        <time>2021-05-22T07:01:00Z</time>
      </trkpt>
      <trkpt lat="42.4538650" lon="-8.6426310">
        <ele>8.3</ele>
        <time>2021-05-22T07:01:01Z</time>
      </trkpt>
      <trkpt lat="42.4538700" lon="-8.6426300">
        <ele>8.3</ele>
        <time>2021-05-22T07:01:02Z</time>
      </trkpt>
      <trkpt lat="42.4538780" lon="-8.6426390">
        <ele>8.3</ele>
        <time>2021-05-22T07:01:03Z</time>
      </trkpt>
      <trkpt lat="42.4538870" lon="-8.6426470">
        <ele>8.3</ele>
        <time>2021-05-22T07:01:04Z</time>
      </trkpt>
      <trkpt lat="42.4538960" lon="-8.6426540">
        <ele>8.3</ele>
        <time>2021-05-22T07:01:05Z</time>
      </trkpt>
      <trkpt lat="42.4539160" lon="-8.6426710">
        <ele>8.3</ele>
        <time>2021-05-22T07:01:06Z</time>
      </trkpt>
      <trkpt lat="42.4539240" lon="-8.6426730">
        <ele>8.2</ele>
        <time>2021-05-22T07:01:08Z</time>
      </trkpt>
      <trkpt lat="42.4539320" lon="-8.6426760">
        <ele>8.2</ele>
        <time>2021-05-22T07:01:09Z</time>
      </trkpt>
      <trkpt lat="42.4539380" lon="-8.6426790">
        <ele>8.2</ele>
        <time>2021-05-22T07:01:10Z</time>
      </trkpt>
      <trkpt lat="42.4539470" lon="-8.6426770">
        <ele>8.2</ele>
        <time>2021-05-22T07:01:11Z</time>
      </trkpt>
      <trkpt lat="42.4539610" lon="-8.6426880">
        <ele>8.2</ele>
        <time>2021-05-22T07:01:12Z</time>
      </trkpt>
      <trkpt lat="42.4539730" lon="-8.6426900">
        <ele>8.2</ele>
        <time>2021-05-22T07:01:13Z</time>
      </trkpt>
      <trkpt lat="42.4539850" lon="-8.6426970">
        <ele>8.2</ele>
        <time>2021-05-22T07:01:14Z</time>
      </trkpt>
      <trkpt lat="42.4539940" lon="-8.6426980">
        <ele>8.2</ele>
        <time>2021-05-22T07:01:15Z</time>
      </trkpt>
      <trkpt lat="42.4540070" lon="-8.6427160">
        <ele>8.2</ele>
        <time>2021-05-22T07:01:16Z</time>
      </trkpt>
      <trkpt lat="42.4540160" lon="-8.6427260">
        <ele>8.2</ele>
        <time>2021-05-22T07:01:17Z</time>
      </trkpt>
      <trkpt lat="42.4540240" lon="-8.6427350">
        <ele>8.2</ele>
        <time>2021-05-22T07:01:18Z</time>
      </trkpt>
      <trkpt lat="42.4540360" lon="-8.6427400">
        <ele>8.2</ele>
        <time>2021-05-22T07:01:19Z</time>
      </trkpt>
      <trkpt lat="42.4540450" lon="-8.6427410">
        <ele>8.2</ele>
        <time>2021-05-22T07:01:20Z</time>
      </trkpt>
      <trkpt lat="42.4540590" lon="-8.6427510">
        <ele>8.2</ele>
        <time>2021-05-22T07:01:21Z</time>
      </trkpt>
      <trkpt lat="42.4540790" lon="-8.6427660">
        <ele>8.2</ele>
        <time>2021-05-22T07:01:22Z</time>
      </trkpt>
      <trkpt lat="42.4540860" lon="-8.6427710">
        <ele>8.2</ele>
        <time>2021-05-22T07:01:23Z</time>
      </trkpt>
      <trkpt lat="42.4540920" lon="-8.6427770">
        <ele>8.2</ele>
        <time>2021-05-22T07:01:24Z</time>
      </trkpt>
      <trkpt lat="42.4541000" lon="-8.6427770">
        <ele>8.2</ele>
        <time>2021-05-22T07:01:25Z</time>
      </trkpt>
      <trkpt lat="42.4541110" lon="-8.6427900">
        <ele>8.2</ele>
        <time>2021-05-22T07:01:26Z</time>
      </trkpt>
      <trkpt lat="42.4541210" lon="-8.6427940">
        <ele>8.2</ele>
        <time>2021-05-22T07:01:27Z</time>
      </trkpt>
      <trkpt lat="42.4541370" lon="-8.6428080">
        <ele>8.2</ele>
        <time>2021-05-22T07:01:28Z</time>
      </trkpt>
      <trkpt lat="42.4541480" lon="-8.6428210">
        <ele>8.2</ele>
        <time>2021-05-22T07:01:29Z</time>
      </trkpt>
      <trkpt lat="42.4541600" lon="-8.6428310">
        <ele>8.2</ele>
        <time>2021-05-22T07:01:30Z</time>
      </trkpt>
      <trkpt lat="42.4541640" lon="-8.6428390">
        <ele>8.2</ele>
        <time>2021-05-22T07:01:31Z</time>
      </trkpt>
      <trkpt lat="42.4541760" lon="-8.6428540">
        <ele>8.2</ele>
        <time>2021-05-22T07:01:32Z</time>
      </trkpt>
      <trkpt lat="42.4541890" lon="-8.6428640">
        <ele>8.2</ele>
        <time>2021-05-22T07:01:33Z</time>
      </trkpt>
      <trkpt lat="42.4541960" lon="-8.6428690">
        <ele>8.2</ele>
        <time>2021-05-22T07:01:34Z</time>
      </trkpt>
      <trkpt lat="42.4542040" lon="-8.6428750">
        <ele>8.2</ele>
        <time>2021-05-22T07:01:35Z</time>
      </trkpt>
      <trkpt lat="42.4542110" lon="-8.6428800">
        <ele>8.2</ele>
        <time>2021-05-22T07:01:36Z</time>
      </trkpt>
      <trkpt lat="42.4542230" lon="-8.6428930">
        <ele>8.2</ele>
        <time>2021-05-22T07:01:37Z</time>
      </trkpt>
      <trkpt lat="42.4542310" lon="-8.6428980">
        <ele>8.2</ele>
        <time>2021-05-22T07:01:38Z</time>
      </trkpt>
      <trkpt lat="42.4542360" lon="-8.6429100">
        <ele>8.2</ele>
        <time>2021-05-22T07:01:39Z</time>
      </trkpt>
      <trkpt lat="42.4542450" lon="-8.6429120">
        <ele>8.2</ele>
        <time>2021-05-22T07:01:40Z</time>
      </trkpt>
      <trkpt lat="42.4542580" lon="-8.6429200">
        <ele>8.2</ele>
        <time>2021-05-22T07:01:41Z</time>
      </trkpt>
      <trkpt lat="42.4542660" lon="-8.6429190">
        <ele>8.2</ele>
        <time>2021-05-22T07:01:42Z</time>
      </trkpt>
      <trkpt lat="42.4542830" lon="-8.6429330">
        <ele>8.2</ele>
        <time>2021-05-22T07:01:43Z</time>
      </trkpt>
      <trkpt lat="42.4542940" lon="-8.6429360">
        <ele>8.2</ele>
        <time>2021-05-22T07:01:44Z</time>
      </trkpt>
      <trkpt lat="42.4543090" lon="-8.6429470">
        <ele>8.2</ele>
        <time>2021-05-22T07:01:45Z</time>
      </trkpt>
      <trkpt lat="42.4543250" lon="-8.6429580">
        <ele>8.2</ele>
        <time>2021-05-22T07:01:46Z</time>
      </trkpt>
      <trkpt lat="42.4543350" lon="-8.6429610">
        <ele>8.2</ele>
        <time>2021-05-22T07:01:47Z</time>
      </trkpt>
      <trkpt lat="42.4543360" lon="-8.6429600">
        <ele>8.2</ele>
        <time>2021-05-22T07:01:48Z</time>
      </trkpt>
      <trkpt lat="42.4543430" lon="-8.6429680">
        <ele>8.2</ele>
        <time>2021-05-22T07:01:49Z</time>
      </trkpt>
      <trkpt lat="42.4543570" lon="-8.6429730">
        <ele>8.2</ele>
        <time>2021-05-22T07:01:50Z</time>
      </trkpt>
      <trkpt lat="42.4543690" lon="-8.6429780">
        <ele>8.2</ele>
        <time>2021-05-22T07:01:51Z</time>
      </trkpt>
      <trkpt lat="42.4543830" lon="-8.6429920">
        <ele>8.2</ele>
        <time>2021-05-22T07:01:52Z</time>
      </trkpt>
      <trkpt lat="42.4543950" lon="-8.6429970">
        <ele>8.2</ele>
        <time>2021-05-22T07:01:53Z</time>
      </trkpt>
      <trkpt lat="42.4544160" lon="-8.6430110">
        <ele>8.2</ele>
        <time>2021-05-22T07:01:54Z</time>
      </trkpt>
      <trkpt lat="42.4544130" lon="-8.6430040">
        <ele>8.2</ele>
        <time>2021-05-22T07:01:55Z</time>
      </trkpt>
      <trkpt lat="42.4544290" lon="-8.6430130">
        <ele>8.2</ele>
        <time>2021-05-22T07:01:56Z</time>
      </trkpt>
      <trkpt lat="42.4544420" lon="-8.6430220">
        <ele>8.2</ele>
        <time>2021-05-22T07:01:57Z</time>
      </trkpt>
      <trkpt lat="42.4544560" lon="-8.6430360">
        <ele>8.2</ele>
        <time>2021-05-22T07:01:58Z</time>
      </trkpt>
      <trkpt lat="42.4544640" lon="-8.6430450">
        <ele>8.2</ele>
        <time>2021-05-22T07:01:59Z</time>
      </trkpt>
      <trkpt lat="42.4544710" lon="-8.6430540">
        <ele>8.2</ele>
        <time>2021-05-22T07:02:00Z</time>
      </trkpt>
      <trkpt lat="42.4544780" lon="-8.6430630">
        <ele>8.2</ele>
        <time>2021-05-22T07:02:01Z</time>
      </trkpt>
      <trkpt lat="42.4544850" lon="-8.6430690">
        <ele>8.2</ele>
        <time>2021-05-22T07:02:02Z</time>
      </trkpt>
      <trkpt lat="42.4544910" lon="-8.6430680">
        <ele>8.2</ele>
        <time>2021-05-22T07:02:03Z</time>
      </trkpt>
      <trkpt lat="42.4545060" lon="-8.6430750">
        <ele>8.2</ele>
        <time>2021-05-22T07:02:04Z</time>
      </trkpt>
      <trkpt lat="42.4545250" lon="-8.6430940">
        <ele>8.2</ele>
        <time>2021-05-22T07:02:05Z</time>
      </trkpt>
      <trkpt lat="42.4545330" lon="-8.6430990">
        <ele>8.2</ele>
        <time>2021-05-22T07:02:06Z</time>
      </trkpt>
      <trkpt lat="42.4545410" lon="-8.6431050">
        <ele>8.2</ele>
        <time>2021-05-22T07:02:07Z</time>
      </trkpt>
      <trkpt lat="42.4545500" lon="-8.6431130">
        <ele>8.2</ele>
        <time>2021-05-22T07:02:08Z</time>
      </trkpt>
      <trkpt lat="42.4545610" lon="-8.6431250">
        <ele>8.2</ele>
        <time>2021-05-22T07:02:09Z</time>
      </trkpt>
      <trkpt lat="42.4545630" lon="-8.6431300">
        <ele>8.2</ele>
        <time>2021-05-22T07:02:10Z</time>
      </trkpt>
      <trkpt lat="42.4545760" lon="-8.6431440">
        <ele>8.2</ele>
        <time>2021-05-22T07:02:11Z</time>
      </trkpt>
      <trkpt lat="42.4545840" lon="-8.6431530">
        <ele>8.2</ele>
        <time>2021-05-22T07:02:12Z</time>
      </trkpt>
      <trkpt lat="42.4545920" lon="-8.6431610">
        <ele>8.2</ele>
        <time>2021-05-22T07:02:13Z</time>
      </trkpt>
      <trkpt lat="42.4546050" lon="-8.6431620">
        <ele>8.2</ele>
        <time>2021-05-22T07:02:14Z</time>
      </trkpt>
      <trkpt lat="42.4546160" lon="-8.6431580">
        <ele>8.2</ele>
        <time>2021-05-22T07:02:15Z</time>
      </trkpt>
      <trkpt lat="42.4546280" lon="-8.6431650">
        <ele>8.2</ele>
        <time>2021-05-22T07:02:16Z</time>
      </trkpt>
      <trkpt lat="42.4546350" lon="-8.6431720">
        <ele>8.2</ele>
        <time>2021-05-22T07:02:17Z</time>
      </trkpt>
      <trkpt lat="42.4546520" lon="-8.6431870">
        <ele>8.2</ele>
        <time>2021-05-22T07:02:18Z</time>
      </trkpt>
      <trkpt lat="42.4546630" lon="-8.6431980">
        <ele>8.2</ele>
        <time>2021-05-22T07:02:19Z</time>
      </trkpt>
      <trkpt lat="42.4546790" lon="-8.6432080">
        <ele>8.2</ele>
        <time>2021-05-22T07:02:20Z</time>
      </trkpt>
      <trkpt lat="42.4546930" lon="-8.6432160">
        <ele>8.2</ele>
        <time>2021-05-22T07:02:21Z</time>
      </trkpt>
      <trkpt lat="42.4547120" lon="-8.6432140">
        <ele>8.2</ele>
        <time>2021-05-22T07:02:22Z</time>
      </trkpt>
      <trkpt lat="42.4547230" lon="-8.6432210">
        <ele>8.2</ele>
        <time>2021-05-22T07:02:23Z</time>
      </trkpt>
      <trkpt lat="42.4547330" lon="-8.6432270">
        <ele>8.2</ele>
        <time>2021-05-22T07:02:24Z</time>
      </trkpt>
      <trkpt lat="42.4547310" lon="-8.6432220">
        <ele>8.2</ele>
        <time>2021-05-22T07:02:25Z</time>
      </trkpt>
      <trkpt lat="42.4547400" lon="-8.6432260">
        <ele>8.2</ele>
        <time>2021-05-22T07:02:26Z</time>
      </trkpt>
      <trkpt lat="42.4547580" lon="-8.6432390">
        <ele>8.1</ele>
        <time>2021-05-22T07:02:27Z</time>
      </trkpt>
      <trkpt lat="42.4547650" lon="-8.6432440">
        <ele>8.1</ele>
        <time>2021-05-22T07:02:28Z</time>
      </trkpt>
      <trkpt lat="42.4547730" lon="-8.6432490">
        <ele>8.1</ele>
        <time>2021-05-22T07:02:29Z</time>
      </trkpt>
      <trkpt lat="42.4547780" lon="-8.6432580">
        <ele>8.1</ele>
        <time>2021-05-22T07:02:30Z</time>
      </trkpt>
      <trkpt lat="42.4548000" lon="-8.6432760">
        <ele>8.1</ele>
        <time>2021-05-22T07:02:31Z</time>
      </trkpt>
      <trkpt lat="42.4548050" lon="-8.6432760">
        <ele>8.1</ele>
        <time>2021-05-22T07:02:32Z</time>
      </trkpt>
      <trkpt lat="42.4548220" lon="-8.6432900">
        <ele>8.1</ele>
        <time>2021-05-22T07:02:33Z</time>
      </trkpt>
      <trkpt lat="42.4548260" lon="-8.6432950">
        <ele>8.1</ele>
        <time>2021-05-22T07:02:34Z</time>
      </trkpt>
      <trkpt lat="42.4548390" lon="-8.6433010">
        <ele>8.1</ele>
        <time>2021-05-22T07:02:35Z</time>
      </trkpt>
      <trkpt lat="42.4548500" lon="-8.6433120">
        <ele>8.1</ele>
        <time>2021-05-22T07:02:36Z</time>
      </trkpt>
      <trkpt lat="42.4548630" lon="-8.6433170">
        <ele>8.1</ele>
        <time>2021-05-22T07:02:37Z</time>
      </trkpt>
      <trkpt lat="42.4548770" lon="-8.6433230">
        <ele>8.1</ele>
        <time>2021-05-22T07:02:38Z</time>
      </trkpt>
      <trkpt lat="42.4548950" lon="-8.6433200">
        <ele>8.1</ele>
        <time>2021-05-22T07:02:39Z</time>
      </trkpt>
      <trkpt lat="42.4549060" lon="-8.6433250">
        <ele>8.1</ele>
        <time>2021-05-22T07:02:40Z</time>
      </trkpt>
      <trkpt lat="42.4549160" lon="-8.6433290">
        <ele>8.0</ele>
        <time>2021-05-22T07:02:41Z</time>
      </trkpt>
      <trkpt lat="42.4549260" lon="-8.6433340">
        <ele>8.0</ele>
        <time>2021-05-22T07:02:42Z</time>
      </trkpt>
      <trkpt lat="42.4549530" lon="-8.6433430">
        <ele>8.0</ele>
        <time>2021-05-22T07:02:43Z</time>
      </trkpt>
      <trkpt lat="42.4549620" lon="-8.6433460">
        <ele>8.0</ele>
        <time>2021-05-22T07:02:44Z</time>
      </trkpt>
      <trkpt lat="42.4549740" lon="-8.6433560">
        <ele>8.0</ele>
        <time>2021-05-22T07:02:45Z</time>
      </trkpt>
      <trkpt lat="42.4549810" lon="-8.6433730">
        <ele>8.0</ele>
        <time>2021-05-22T07:02:46Z</time>
      </trkpt>
      <trkpt lat="42.4550120" lon="-8.6434040">
        <ele>8.0</ele>
        <time>2021-05-22T07:02:47Z</time>
      </trkpt>
      <trkpt lat="42.4550210" lon="-8.6434180">
        <ele>8.0</ele>
        <time>2021-05-22T07:02:48Z</time>
      </trkpt>
      <trkpt lat="42.4550360" lon="-8.6434240">
        <ele>8.0</ele>
        <time>2021-05-22T07:02:49Z</time>
      </trkpt>
      <trkpt lat="42.4550490" lon="-8.6434350">
        <ele>8.0</ele>
        <time>2021-05-22T07:02:50Z</time>
      </trkpt>
      <trkpt lat="42.4550640" lon="-8.6434450">
        <ele>7.9</ele>
        <time>2021-05-22T07:02:51Z</time>
      </trkpt>
      <trkpt lat="42.4550810" lon="-8.6434520">
        <ele>7.9</ele>
        <time>2021-05-22T07:02:52Z</time>
      </trkpt>
      <trkpt lat="42.4550950" lon="-8.6434610">
        <ele>7.9</ele>
        <time>2021-05-22T07:02:53Z</time>
      </trkpt>
      <trkpt lat="42.4551120" lon="-8.6434690">
        <ele>7.9</ele>
        <time>2021-05-22T07:02:54Z</time>
      </trkpt>
      <trkpt lat="42.4551420" lon="-8.6434900">
        <ele>7.9</ele>
        <time>2021-05-22T07:02:55Z</time>
      </trkpt>
      <trkpt lat="42.4551500" lon="-8.6434960">
        <ele>7.9</ele>
        <time>2021-05-22T07:02:56Z</time>
      </trkpt>
      <trkpt lat="42.4551760" lon="-8.6435130">
        <ele>7.9</ele>
        <time>2021-05-22T07:02:57Z</time>
      </trkpt>
      <trkpt lat="42.4551830" lon="-8.6435190">
        <ele>7.9</ele>
        <time>2021-05-22T07:02:58Z</time>
      </trkpt>
      <trkpt lat="42.4552040" lon="-8.6435250">
        <ele>7.8</ele>
        <time>2021-05-22T07:02:59Z</time>
      </trkpt>
      <trkpt lat="42.4552170" lon="-8.6435360">
        <ele>7.8</ele>
        <time>2021-05-22T07:03:00Z</time>
      </trkpt>
      <trkpt lat="42.4552430" lon="-8.6435520">
        <ele>7.8</ele>
        <time>2021-05-22T07:03:01Z</time>
      </trkpt>
      <trkpt lat="42.4552500" lon="-8.6435600">
        <ele>7.8</ele>
        <time>2021-05-22T07:03:02Z</time>
      </trkpt>
      <trkpt lat="42.4552650" lon="-8.6435690">
        <ele>7.8</ele>
        <time>2021-05-22T07:03:03Z</time>
      </trkpt>
      <trkpt lat="42.4552800" lon="-8.6435800">
        <ele>7.8</ele>
        <time>2021-05-22T07:03:04Z</time>
      </trkpt>
      <trkpt lat="42.4552940" lon="-8.6435850">
        <ele>7.8</ele>
        <time>2021-05-22T07:03:05Z</time>
      </trkpt>
      <trkpt lat="42.4553070" lon="-8.6435940">
        <ele>7.8</ele>
        <time>2021-05-22T07:03:06Z</time>
      </trkpt>
      <trkpt lat="42.4553200" lon="-8.6436060">
        <ele>7.8</ele>
        <time>2021-05-22T07:03:07Z</time>
      </trkpt>
      <trkpt lat="42.4553340" lon="-8.6436150">
        <ele>7.8</ele>
        <time>2021-05-22T07:03:08Z</time>
      </trkpt>
      <trkpt lat="42.4553600" lon="-8.6436240">
        <ele>7.8</ele>
        <time>2021-05-22T07:03:09Z</time>
      </trkpt>
      <trkpt lat="42.4553700" lon="-8.6436280">
        <ele>7.8</ele>
        <time>2021-05-22T07:03:10Z</time>
      </trkpt>
      <trkpt lat="42.4553820" lon="-8.6436420">
        <ele>7.8</ele>
        <time>2021-05-22T07:03:11Z</time>
      </trkpt>
      <trkpt lat="42.4553960" lon="-8.6436510">
        <ele>7.8</ele>
        <time>2021-05-22T07:03:12Z</time>
      </trkpt>
      <trkpt lat="42.4554150" lon="-8.6436530">
        <ele>7.8</ele>
        <time>2021-05-22T07:03:13Z</time>
      </trkpt>
      <trkpt lat="42.4554270" lon="-8.6436620">
        <ele>7.8</ele>
        <time>2021-05-22T07:03:14Z</time>
      </trkpt>
      <trkpt lat="42.4554440" lon="-8.6436720">
        <ele>7.7</ele>
        <time>2021-05-22T07:03:15Z</time>
      </trkpt>
      <trkpt lat="42.4554570" lon="-8.6436770">
        <ele>7.7</ele>
        <time>2021-05-22T07:03:16Z</time>
      </trkpt>
      <trkpt lat="42.4554750" lon="-8.6436860">
        <ele>7.7</ele>
        <time>2021-05-22T07:03:17Z</time>
      </trkpt>
      <trkpt lat="42.4554890" lon="-8.6436940">
        <ele>7.7</ele>
        <time>2021-05-22T07:03:18Z</time>
      </trkpt>
      <trkpt lat="42.4555140" lon="-8.6437150">
        <ele>7.7</ele>
        <time>2021-05-22T07:03:19Z</time>
      </trkpt>
      <trkpt lat="42.4555230" lon="-8.6437210">
        <ele>7.7</ele>
        <time>2021-05-22T07:03:20Z</time>
      </trkpt>
      <trkpt lat="42.4555360" lon="-8.6437290">
        <ele>7.7</ele>
        <time>2021-05-22T07:03:21Z</time>
      </trkpt>
      <trkpt lat="42.4555520" lon="-8.6437300">
        <ele>7.7</ele>
        <time>2021-05-22T07:03:22Z</time>
      </trkpt>
      <trkpt lat="42.4555690" lon="-8.6437400">
        <ele>7.7</ele>
        <time>2021-05-22T07:03:23Z</time>
      </trkpt>
      <trkpt lat="42.4555820" lon="-8.6437450">
        <ele>7.7</ele>
        <time>2021-05-22T07:03:24Z</time>
      </trkpt>
      <trkpt lat="42.4555950" lon="-8.6437530">
        <ele>7.7</ele>
        <time>2021-05-22T07:03:25Z</time>
      </trkpt>
      <trkpt lat="42.4556140" lon="-8.6437690">
        <ele>7.7</ele>
        <time>2021-05-22T07:03:26Z</time>
      </trkpt>
      <trkpt lat="42.4556260" lon="-8.6437800">
        <ele>7.7</ele>
        <time>2021-05-22T07:03:27Z</time>
      </trkpt>
      <trkpt lat="42.4556380" lon="-8.6437920">
        <ele>7.7</ele>
        <time>2021-05-22T07:03:28Z</time>
      </trkpt>
      <trkpt lat="42.4556520" lon="-8.6438020">
        <ele>7.7</ele>
        <time>2021-05-22T07:03:29Z</time>
      </trkpt>
      <trkpt lat="42.4556640" lon="-8.6438080">
        <ele>7.7</ele>
        <time>2021-05-22T07:03:30Z</time>
      </trkpt>
      <trkpt lat="42.4556780" lon="-8.6438160">
        <ele>7.7</ele>
        <time>2021-05-22T07:03:31Z</time>
      </trkpt>
      <trkpt lat="42.4556940" lon="-8.6438240">
        <ele>7.7</ele>
        <time>2021-05-22T07:03:32Z</time>
      </trkpt>
      <trkpt lat="42.4557210" lon="-8.6438430">
        <ele>7.7</ele>
        <time>2021-05-22T07:03:33Z</time>
      </trkpt>
      <trkpt lat="42.4557290" lon="-8.6438490">
        <ele>7.8</ele>
        <time>2021-05-22T07:03:34Z</time>
      </trkpt>
      <trkpt lat="42.4557570" lon="-8.6438670">
        <ele>7.8</ele>
        <time>2021-05-22T07:03:35Z</time>
      </trkpt>
      <trkpt lat="42.4557630" lon="-8.6438730">
        <ele>7.8</ele>
        <time>2021-05-22T07:03:36Z</time>
      </trkpt>
      <trkpt lat="42.4557890" lon="-8.6438940">
        <ele>7.8</ele>
        <time>2021-05-22T07:03:37Z</time>
      </trkpt>
      <trkpt lat="42.4557950" lon="-8.6438990">
        <ele>7.8</ele>
        <time>2021-05-22T07:03:38Z</time>
      </trkpt>
      <trkpt lat="42.4558090" lon="-8.6439130">
        <ele>7.7</ele>
        <time>2021-05-22T07:03:39Z</time>
      </trkpt>
      <trkpt lat="42.4558280" lon="-8.6439100">
        <ele>7.7</ele>
        <time>2021-05-22T07:03:40Z</time>
      </trkpt>
      <trkpt lat="42.4558440" lon="-8.6439170">
        <ele>7.7</ele>
        <time>2021-05-22T07:03:41Z</time>
      </trkpt>
      <trkpt lat="42.4558610" lon="-8.6439310">
        <ele>7.7</ele>
        <time>2021-05-22T07:03:42Z</time>
      </trkpt>
      <trkpt lat="42.4558780" lon="-8.6439400">
        <ele>7.7</ele>
        <time>2021-05-22T07:03:43Z</time>
      </trkpt>
      <trkpt lat="42.4558930" lon="-8.6439490">
        <ele>7.7</ele>
        <time>2021-05-22T07:03:44Z</time>
      </trkpt>
      <trkpt lat="42.4559100" lon="-8.6439580">
        <ele>7.7</ele>
        <time>2021-05-22T07:03:45Z</time>
      </trkpt>
      <trkpt lat="42.4559280" lon="-8.6439650">
        <ele>7.7</ele>
        <time>2021-05-22T07:03:46Z</time>
      </trkpt>
      <trkpt lat="42.4559470" lon="-8.6439720">
        <ele>7.7</ele>
        <time>2021-05-22T07:03:47Z</time>
      </trkpt>
      <trkpt lat="42.4559590" lon="-8.6439770">
        <ele>7.7</ele>
        <time>2021-05-22T07:03:48Z</time>
      </trkpt>
      <trkpt lat="42.4559870" lon="-8.6439960">
        <ele>7.7</ele>
        <time>2021-05-22T07:03:49Z</time>
      </trkpt>
      <trkpt lat="42.4559930" lon="-8.6440020">
        <ele>7.7</ele>
        <time>2021-05-22T07:03:50Z</time>
      </trkpt>
      <trkpt lat="42.4560100" lon="-8.6440150">
        <ele>7.6</ele>
        <time>2021-05-22T07:03:51Z</time>
      </trkpt>
      <trkpt lat="42.4560270" lon="-8.6440100">
        <ele>7.6</ele>
        <time>2021-05-22T07:03:52Z</time>
      </trkpt>
      <trkpt lat="42.4560390" lon="-8.6440160">
        <ele>7.6</ele>
        <time>2021-05-22T07:03:53Z</time>
      </trkpt>
      <trkpt lat="42.4560550" lon="-8.6440160">
        <ele>7.6</ele>
        <time>2021-05-22T07:03:54Z</time>
      </trkpt>
      <trkpt lat="42.4560700" lon="-8.6440180">
        <ele>7.6</ele>
        <time>2021-05-22T07:03:55Z</time>
      </trkpt>
      <trkpt lat="42.4560810" lon="-8.6440290">
        <ele>7.6</ele>
        <time>2021-05-22T07:03:56Z</time>
      </trkpt>
      <trkpt lat="42.4561020" lon="-8.6440330">
        <ele>7.6</ele>
        <time>2021-05-22T07:03:57Z</time>
      </trkpt>
      <trkpt lat="42.4561100" lon="-8.6440350">
        <ele>7.6</ele>
        <time>2021-05-22T07:03:58Z</time>
      </trkpt>
      <trkpt lat="42.4561170" lon="-8.6440380">
        <ele>7.6</ele>
        <time>2021-05-22T07:03:59Z</time>
      </trkpt>
      <trkpt lat="42.4561420" lon="-8.6440550">
        <ele>7.6</ele>
        <time>2021-05-22T07:04:00Z</time>
      </trkpt>
      <trkpt lat="42.4561510" lon="-8.6440630">
        <ele>7.6</ele>
        <time>2021-05-22T07:04:01Z</time>
      </trkpt>
      <trkpt lat="42.4561780" lon="-8.6440860">
        <ele>7.6</ele>
        <time>2021-05-22T07:04:02Z</time>
      </trkpt>
      <trkpt lat="42.4561870" lon="-8.6440940">
        <ele>7.6</ele>
        <time>2021-05-22T07:04:03Z</time>
      </trkpt>
      <trkpt lat="42.4562140" lon="-8.6441110">
        <ele>7.6</ele>
        <time>2021-05-22T07:04:04Z</time>
      </trkpt>
      <trkpt lat="42.4562220" lon="-8.6441210">
        <ele>7.6</ele>
        <time>2021-05-22T07:04:05Z</time>
      </trkpt>
      <trkpt lat="42.4562370" lon="-8.6441380">
        <ele>7.7</ele>
        <time>2021-05-22T07:04:06Z</time>
      </trkpt>
      <trkpt lat="42.4562520" lon="-8.6441450">
        <ele>7.7</ele>
        <time>2021-05-22T07:04:07Z</time>
      </trkpt>
      <trkpt lat="42.4562610" lon="-8.6441560">
        <ele>7.7</ele>
        <time>2021-05-22T07:04:08Z</time>
      </trkpt>
      <trkpt lat="42.4562800" lon="-8.6441690">
        <ele>7.7</ele>
        <time>2021-05-22T07:04:09Z</time>
      </trkpt>
      <trkpt lat="42.4562990" lon="-8.6441890">
        <ele>7.7</ele>
        <time>2021-05-22T07:04:10Z</time>
      </trkpt>
      <trkpt lat="42.4563050" lon="-8.6441960">
        <ele>7.7</ele>
        <time>2021-05-22T07:04:11Z</time>
      </trkpt>
      <trkpt lat="42.4563120" lon="-8.6442020">
        <ele>7.7</ele>
        <time>2021-05-22T07:04:12Z</time>
      </trkpt>
      <trkpt lat="42.4563310" lon="-8.6442230">
        <ele>7.7</ele>
        <time>2021-05-22T07:04:13Z</time>
      </trkpt>
      <trkpt lat="42.4563400" lon="-8.6442280">
        <ele>7.7</ele>
        <time>2021-05-22T07:04:14Z</time>
      </trkpt>
      <trkpt lat="42.4563480" lon="-8.6442340">
        <ele>7.7</ele>
        <time>2021-05-22T07:04:15Z</time>
      </trkpt>
      <trkpt lat="42.4563670" lon="-8.6442480">
        <ele>7.8</ele>
        <time>2021-05-22T07:04:16Z</time>
      </trkpt>
      <trkpt lat="42.4563750" lon="-8.6442530">
        <ele>7.8</ele>
        <time>2021-05-22T07:04:17Z</time>
      </trkpt>
      <trkpt lat="42.4563830" lon="-8.6442590">
        <ele>7.8</ele>
        <time>2021-05-22T07:04:18Z</time>
      </trkpt>
      <trkpt lat="42.4564040" lon="-8.6442660">
        <ele>7.8</ele>
        <time>2021-05-22T07:04:19Z</time>
      </trkpt>
      <trkpt lat="42.4564110" lon="-8.6442710">
        <ele>7.8</ele>
        <time>2021-05-22T07:04:20Z</time>
      </trkpt>
      <trkpt lat="42.4564190" lon="-8.6442770">
        <ele>7.8</ele>
        <time>2021-05-22T07:04:21Z</time>
      </trkpt>
      <trkpt lat="42.4564380" lon="-8.6442940">
        <ele>7.8</ele>
        <time>2021-05-22T07:04:22Z</time>
      </trkpt>
      <trkpt lat="42.4564440" lon="-8.6442990">
        <ele>7.8</ele>
        <time>2021-05-22T07:04:23Z</time>
      </trkpt>
      <trkpt lat="42.4564490" lon="-8.6443040">
        <ele>7.8</ele>
        <time>2021-05-22T07:04:24Z</time>
      </trkpt>
      <trkpt lat="42.4564600" lon="-8.6443020">
        <ele>7.8</ele>
        <time>2021-05-22T07:04:25Z</time>
      </trkpt>
      <trkpt lat="42.4564710" lon="-8.6443100">
        <ele>7.8</ele>
        <time>2021-05-22T07:04:26Z</time>
      </trkpt>
      <trkpt lat="42.4564830" lon="-8.6443120">
        <ele>7.9</ele>
        <time>2021-05-22T07:04:27Z</time>
      </trkpt>
      <trkpt lat="42.4564980" lon="-8.6443230">
        <ele>7.9</ele>
        <time>2021-05-22T07:04:28Z</time>
      </trkpt>
      <trkpt lat="42.4565090" lon="-8.6443320">
        <ele>7.9</ele>
        <time>2021-05-22T07:04:29Z</time>
      </trkpt>
      <trkpt lat="42.4565270" lon="-8.6443470">
        <ele>7.9</ele>
        <time>2021-05-22T07:04:30Z</time>
      </trkpt>
      <trkpt lat="42.4565400" lon="-8.6443570">
        <ele>7.9</ele>
        <time>2021-05-22T07:04:31Z</time>
      </trkpt>
      <trkpt lat="42.4565550" lon="-8.6443690">
        <ele>7.9</ele>
        <time>2021-05-22T07:04:32Z</time>
      </trkpt>
      <trkpt lat="42.4565670" lon="-8.6443760">
        <ele>8.0</ele>
        <time>2021-05-22T07:04:33Z</time>
      </trkpt>
      <trkpt lat="42.4565840" lon="-8.6443800">
        <ele>8.0</ele>
        <time>2021-05-22T07:04:34Z</time>
      </trkpt>
      <trkpt lat="42.4566000" lon="-8.6443810">
        <ele>8.0</ele>
        <time>2021-05-22T07:04:35Z</time>
      </trkpt>
      <trkpt lat="42.4566110" lon="-8.6443800">
        <ele>8.0</ele>
        <time>2021-05-22T07:04:36Z</time>
      </trkpt>
      <trkpt lat="42.4566290" lon="-8.6443910">
        <ele>8.1</ele>
        <time>2021-05-22T07:04:37Z</time>
      </trkpt>
      <trkpt lat="42.4566450" lon="-8.6444010">
        <ele>8.1</ele>
        <time>2021-05-22T07:04:38Z</time>
      </trkpt>
      <trkpt lat="42.4566520" lon="-8.6444050">
        <ele>8.1</ele>
        <time>2021-05-22T07:04:39Z</time>
      </trkpt>
      <trkpt lat="42.4566600" lon="-8.6444080">
        <ele>8.1</ele>
        <time>2021-05-22T07:04:40Z</time>
      </trkpt>
      <trkpt lat="42.4566670" lon="-8.6444120">
        <ele>8.1</ele>
        <time>2021-05-22T07:04:41Z</time>
      </trkpt>
      <trkpt lat="42.4566760" lon="-8.6444170">
        <ele>8.1</ele>
        <time>2021-05-22T07:04:42Z</time>
      </trkpt>
      <trkpt lat="42.4566770" lon="-8.6444160">
        <ele>8.1</ele>
        <time>2021-05-22T07:04:43Z</time>
      </trkpt>
      <trkpt lat="42.4566780" lon="-8.6444150">
        <ele>8.1</ele>
        <time>2021-05-22T07:04:44Z</time>
      </trkpt>
      <trkpt lat="42.4566800" lon="-8.6444140">
        <ele>8.1</ele>
        <time>2021-05-22T07:04:45Z</time>
      </trkpt>
      <trkpt lat="42.4566810" lon="-8.6444130">
        <ele>8.1</ele>
        <time>2021-05-22T07:04:46Z</time>
      </trkpt>
      <trkpt lat="42.4566820" lon="-8.6444120">
        <ele>8.1</ele>
        <time>2021-05-22T07:04:47Z</time>
      </trkpt>
      <trkpt lat="42.4566830" lon="-8.6444110">
        <ele>8.1</ele>
        <time>2021-05-22T07:04:48Z</time>
      </trkpt>
      <trkpt lat="42.4566840" lon="-8.6444100">
        <ele>8.1</ele>
        <time>2021-05-22T07:04:49Z</time>
      </trkpt>
      <trkpt lat="42.4566850" lon="-8.6444090">
        <ele>8.1</ele>
        <time>2021-05-22T07:04:50Z</time>
      </trkpt>
      <trkpt lat="42.4566870" lon="-8.6444080">
        <ele>8.1</ele>
        <time>2021-05-22T07:04:51Z</time>
      </trkpt>
      <trkpt lat="42.4566880" lon="-8.6444070">
        <ele>8.1</ele>
        <time>2021-05-22T07:04:52Z</time>
      </trkpt>
      <trkpt lat="42.4566890" lon="-8.6444060">
        <ele>8.1</ele>
        <time>2021-05-22T07:04:53Z</time>
      </trkpt>
      <trkpt lat="42.4566900" lon="-8.6444050">
        <ele>8.2</ele>
        <time>2021-05-22T07:04:54Z</time>
      </trkpt>
      <trkpt lat="42.4566910" lon="-8.6444040">
        <ele>8.2</ele>
        <time>2021-05-22T07:04:55Z</time>
      </trkpt>
      <trkpt lat="42.4566920" lon="-8.6444030">
        <ele>8.2</ele>
        <time>2021-05-22T07:04:56Z</time>
      </trkpt>
      <trkpt lat="42.4566940" lon="-8.6444020">
        <ele>8.2</ele>
        <time>2021-05-22T07:04:57Z</time>
      </trkpt>
      <trkpt lat="42.4566950" lon="-8.6444000">
        <ele>8.2</ele>
        <time>2021-05-22T07:04:58Z</time>
      </trkpt>
      <trkpt lat="42.4566960" lon="-8.6443990">
        <ele>8.2</ele>
        <time>2021-05-22T07:04:59Z</time>
      </trkpt>
      <trkpt lat="42.4566970" lon="-8.6443980">
        <ele>8.2</ele>
        <time>2021-05-22T07:05:00Z</time>
      </trkpt>
      <trkpt lat="42.4566980" lon="-8.6443970">
        <ele>8.2</ele>
        <time>2021-05-22T07:05:01Z</time>
      </trkpt>
      <trkpt lat="42.4566990" lon="-8.6443960">
        <ele>8.2</ele>
        <time>2021-05-22T07:05:02Z</time>
      </trkpt>
      <trkpt lat="42.4567000" lon="-8.6443950">
        <ele>8.2</ele>
        <time>2021-05-22T07:05:03Z</time>
      </trkpt>
      <trkpt lat="42.4567020" lon="-8.6443940">
        <ele>8.2</ele>
        <time>2021-05-22T07:05:04Z</time>
      </trkpt>
      <trkpt lat="42.4567030" lon="-8.6443930">
        <ele>8.2</ele>
        <time>2021-05-22T07:05:05Z</time>
      </trkpt>
      <trkpt lat="42.4567040" lon="-8.6443920">
        <ele>8.2</ele>
        <time>2021-05-22T07:05:06Z</time>
      </trkpt>
      <trkpt lat="42.4567050" lon="-8.6443910">
        <ele>8.2</ele>
        <time>2021-05-22T07:05:07Z</time>
      </trkpt>
      <trkpt lat="42.4567060" lon="-8.6443900">
        <ele>8.2</ele>
        <time>2021-05-22T07:05:08Z</time>
      </trkpt>
      <trkpt lat="42.4567070" lon="-8.6443890">
        <ele>8.2</ele>
        <time>2021-05-22T07:05:09Z</time>
      </trkpt>
      <trkpt lat="42.4567090" lon="-8.6443880">
        <ele>8.2</ele>
        <time>2021-05-22T07:05:10Z</time>
      </trkpt>
      <trkpt lat="42.4567100" lon="-8.6443870">
        <ele>8.2</ele>
        <time>2021-05-22T07:05:11Z</time>
      </trkpt>
      <trkpt lat="42.4567110" lon="-8.6443860">
        <ele>8.2</ele>
        <time>2021-05-22T07:05:12Z</time>
      </trkpt>
      <trkpt lat="42.4567120" lon="-8.6443850">
        <ele>8.2</ele>
        <time>2021-05-22T07:05:13Z</time>
      </trkpt>
      <trkpt lat="42.4567260" lon="-8.6443980">
        <ele>8.2</ele>
        <time>2021-05-22T07:05:14Z</time>
      </trkpt>
      <trkpt lat="42.4567340" lon="-8.6444020">
        <ele>8.2</ele>
        <time>2021-05-22T07:05:15Z</time>
      </trkpt>
      <trkpt lat="42.4567410" lon="-8.6444070">
        <ele>8.3</ele>
        <time>2021-05-22T07:05:16Z</time>
      </trkpt>
      <trkpt lat="42.4567480" lon="-8.6444120">
        <ele>8.3</ele>
        <time>2021-05-22T07:05:17Z</time>
      </trkpt>
      <trkpt lat="42.4567460" lon="-8.6444100">
        <ele>8.3</ele>
        <time>2021-05-22T07:05:18Z</time>
      </trkpt>
      <trkpt lat="42.4567510" lon="-8.6444140">
        <ele>8.3</ele>
        <time>2021-05-22T07:05:19Z</time>
      </trkpt>
      <trkpt lat="42.4567610" lon="-8.6444210">
        <ele>8.3</ele>
        <time>2021-05-22T07:05:20Z</time>
      </trkpt>
      <trkpt lat="42.4567670" lon="-8.6444250">
        <ele>8.3</ele>
        <time>2021-05-22T07:05:21Z</time>
      </trkpt>
      <trkpt lat="42.4567670" lon="-8.6444250">
        <ele>8.3</ele>
        <time>2021-05-22T07:05:22Z</time>
      </trkpt>
      <trkpt lat="42.4567650" lon="-8.6444250">
        <ele>8.3</ele>
        <time>2021-05-22T07:05:23Z</time>
      </trkpt>
      <trkpt lat="42.4567620" lon="-8.6444200">
        <ele>8.3</ele>
        <time>2021-05-22T07:05:24Z</time>
      </trkpt>
      <trkpt lat="42.4567640" lon="-8.6444230">
        <ele>8.3</ele>
        <time>2021-05-22T07:05:25Z</time>
      </trkpt>
      <trkpt lat="42.4567620" lon="-8.6444230">
        <ele>8.3</ele>
        <time>2021-05-22T07:05:26Z</time>
      </trkpt>
      <trkpt lat="42.4567640" lon="-8.6444210">
        <ele>8.3</ele>
        <time>2021-05-22T07:05:27Z</time>
      </trkpt>
      <trkpt lat="42.4567630" lon="-8.6444160">
        <ele>8.3</ele>
        <time>2021-05-22T07:05:28Z</time>
      </trkpt>
      <trkpt lat="42.4567640" lon="-8.6444180">
        <ele>8.3</ele>
        <time>2021-05-22T07:05:29Z</time>
      </trkpt>
      <trkpt lat="42.4567650" lon="-8.6444190">
        <ele>8.3</ele>
        <time>2021-05-22T07:05:30Z</time>
      </trkpt>
      <trkpt lat="42.4567660" lon="-8.6444190">
        <ele>8.3</ele>
        <time>2021-05-22T07:05:31Z</time>
      </trkpt>
      <trkpt lat="42.4567650" lon="-8.6444200">
        <ele>8.4</ele>
        <time>2021-05-22T07:05:32Z</time>
      </trkpt>
      <trkpt lat="42.4567650" lon="-8.6444220">
        <ele>8.4</ele>
        <time>2021-05-22T07:05:33Z</time>
      </trkpt>
      <trkpt lat="42.4567660" lon="-8.6444210">
        <ele>8.4</ele>
        <time>2021-05-22T07:05:34Z</time>
      </trkpt>
      <trkpt lat="42.4567640" lon="-8.6444210">
        <ele>8.4</ele>
        <time>2021-05-22T07:05:35Z</time>
      </trkpt>
      <trkpt lat="42.4567650" lon="-8.6444200">
        <ele>8.4</ele>
        <time>2021-05-22T07:05:36Z</time>
      </trkpt>
      <trkpt lat="42.4567670" lon="-8.6444270">
        <ele>8.4</ele>
        <time>2021-05-22T07:05:37Z</time>
      </trkpt>
      <trkpt lat="42.4567680" lon="-8.6444280">
        <ele>8.4</ele>
        <time>2021-05-22T07:05:38Z</time>
      </trkpt>
      <trkpt lat="42.4567680" lon="-8.6444290">
        <ele>8.4</ele>
        <time>2021-05-22T07:05:39Z</time>
      </trkpt>
      <trkpt lat="42.4567690" lon="-8.6444290">
        <ele>8.4</ele>
        <time>2021-05-22T07:05:40Z</time>
      </trkpt>
      <trkpt lat="42.4567680" lon="-8.6444310">
        <ele>8.4</ele>
        <time>2021-05-22T07:05:41Z</time>
      </trkpt>
      <trkpt lat="42.4567680" lon="-8.6444330">
        <ele>8.4</ele>
        <time>2021-05-22T07:05:42Z</time>
      </trkpt>
      <trkpt lat="42.4567690" lon="-8.6444350">
        <ele>8.4</ele>
        <time>2021-05-22T07:05:43Z</time>
      </trkpt>
      <trkpt lat="42.4567700" lon="-8.6444340">
        <ele>8.4</ele>
        <time>2021-05-22T07:05:44Z</time>
      </trkpt>
      <trkpt lat="42.4567660" lon="-8.6444380">
        <ele>8.4</ele>
        <time>2021-05-22T07:05:45Z</time>
      </trkpt>
      <trkpt lat="42.4567620" lon="-8.6444380">
        <ele>8.4</ele>
        <time>2021-05-22T07:05:46Z</time>
      </trkpt>
      <trkpt lat="42.4567640" lon="-8.6444410">
        <ele>8.4</ele>
        <time>2021-05-22T07:05:47Z</time>
      </trkpt>
      <trkpt lat="42.4567630" lon="-8.6444430">
        <ele>8.4</ele>
        <time>2021-05-22T07:05:48Z</time>
      </trkpt>
      <trkpt lat="42.4567610" lon="-8.6444440">
        <ele>8.4</ele>
        <time>2021-05-22T07:05:49Z</time>
      </trkpt>
      <trkpt lat="42.4567610" lon="-8.6444540">
        <ele>8.4</ele>
        <time>2021-05-22T07:05:50Z</time>
      </trkpt>
      <trkpt lat="42.4567600" lon="-8.6444580">
        <ele>8.4</ele>
        <time>2021-05-22T07:05:51Z</time>
      </trkpt>
      <trkpt lat="42.4567560" lon="-8.6444630">
        <ele>8.4</ele>
        <time>2021-05-22T07:05:52Z</time>
      </trkpt>
      <trkpt lat="42.4567560" lon="-8.6444690">
        <ele>8.4</ele>
        <time>2021-05-22T07:05:53Z</time>
      </trkpt>
      <trkpt lat="42.4567560" lon="-8.6444720">
        <ele>8.5</ele>
        <time>2021-05-22T07:05:54Z</time>
      </trkpt>
      <trkpt lat="42.4567630" lon="-8.6444760">
        <ele>8.5</ele>
        <time>2021-05-22T07:05:55Z</time>
      </trkpt>
      <trkpt lat="42.4567670" lon="-8.6444760">
        <ele>8.5</ele>
        <time>2021-05-22T07:05:56Z</time>
      </trkpt>
      <trkpt lat="42.4567660" lon="-8.6444750">
        <ele>8.5</ele>
        <time>2021-05-22T07:05:57Z</time>
      </trkpt>
      <trkpt lat="42.4567690" lon="-8.6444740">
        <ele>8.5</ele>
        <time>2021-05-22T07:05:58Z</time>
      </trkpt>
      <trkpt lat="42.4567690" lon="-8.6444690">
        <ele>8.5</ele>
        <time>2021-05-22T07:05:59Z</time>
      </trkpt>
      <trkpt lat="42.4567800" lon="-8.6444660">
        <ele>8.5</ele>
        <time>2021-05-22T07:06:00Z</time>
      </trkpt>
      <trkpt lat="42.4567840" lon="-8.6444620">
        <ele>8.5</ele>
        <time>2021-05-22T07:06:01Z</time>
      </trkpt>
      <trkpt lat="42.4568040" lon="-8.6444660">
        <ele>8.5</ele>
        <time>2021-05-22T07:06:02Z</time>
      </trkpt>
      <trkpt lat="42.4568120" lon="-8.6444690">
        <ele>8.5</ele>
        <time>2021-05-22T07:06:03Z</time>
      </trkpt>
      <trkpt lat="42.4568210" lon="-8.6444720">
        <ele>8.5</ele>
        <time>2021-05-22T07:06:04Z</time>
      </trkpt>
      <trkpt lat="42.4568290" lon="-8.6444750">
        <ele>8.6</ele>
        <time>2021-05-22T07:06:05Z</time>
      </trkpt>
      <trkpt lat="42.4568380" lon="-8.6444780">
        <ele>8.6</ele>
        <time>2021-05-22T07:06:06Z</time>
      </trkpt>
      <trkpt lat="42.4568430" lon="-8.6444630">
        <ele>8.6</ele>
        <time>2021-05-22T07:06:07Z</time>
      </trkpt>
      <trkpt lat="42.4568440" lon="-8.6444570">
        <ele>8.6</ele>
        <time>2021-05-22T07:06:08Z</time>
      </trkpt>
      <trkpt lat="42.4568460" lon="-8.6444520">
        <ele>8.6</ele>
        <time>2021-05-22T07:06:09Z</time>
      </trkpt>
      <trkpt lat="42.4568480" lon="-8.6444460">
        <ele>8.6</ele>
        <time>2021-05-22T07:06:10Z</time>
      </trkpt>
      <trkpt lat="42.4568500" lon="-8.6444410">
        <ele>8.6</ele>
        <time>2021-05-22T07:06:11Z</time>
      </trkpt>
      <trkpt lat="42.4568510" lon="-8.6444350">
        <ele>8.6</ele>
        <time>2021-05-22T07:06:12Z</time>
      </trkpt>
      <trkpt lat="42.4568530" lon="-8.6444300">
        <ele>8.6</ele>
        <time>2021-05-22T07:06:13Z</time>
      </trkpt>
      <trkpt lat="42.4568540" lon="-8.6444310">
        <ele>8.6</ele>
        <time>2021-05-22T07:06:14Z</time>
      </trkpt>
      <trkpt lat="42.4568440" lon="-8.6444290">
        <ele>8.7</ele>
        <time>2021-05-22T07:06:15Z</time>
      </trkpt>
      <trkpt lat="42.4568420" lon="-8.6444270">
        <ele>8.7</ele>
        <time>2021-05-22T07:06:16Z</time>
      </trkpt>
      <trkpt lat="42.4568520" lon="-8.6444230">
        <ele>8.7</ele>
        <time>2021-05-22T07:06:17Z</time>
      </trkpt>
      <trkpt lat="42.4568560" lon="-8.6444270">
        <ele>8.7</ele>
        <time>2021-05-22T07:06:18Z</time>
      </trkpt>
      <trkpt lat="42.4568620" lon="-8.6444200">
        <ele>8.7</ele>
        <time>2021-05-22T07:06:19Z</time>
      </trkpt>
      <trkpt lat="42.4568710" lon="-8.6444150">
        <ele>8.7</ele>
        <time>2021-05-22T07:06:20Z</time>
      </trkpt>
      <trkpt lat="42.4568840" lon="-8.6444090">
        <ele>8.7</ele>
        <time>2021-05-22T07:06:21Z</time>
      </trkpt>
      <trkpt lat="42.4568890" lon="-8.6444040">
        <ele>8.8</ele>
        <time>2021-05-22T07:06:22Z</time>
      </trkpt>
      <trkpt lat="42.4568980" lon="-8.6444010">
        <ele>8.8</ele>
        <time>2021-05-22T07:06:23Z</time>
      </trkpt>
      <trkpt lat="42.4569080" lon="-8.6443960">
        <ele>8.8</ele>
        <time>2021-05-22T07:06:24Z</time>
      </trkpt>
      <trkpt lat="42.4569160" lon="-8.6443930">
        <ele>8.8</ele>
        <time>2021-05-22T07:06:25Z</time>
      </trkpt>
      <trkpt lat="42.4569240" lon="-8.6443820">
        <ele>8.8</ele>
        <time>2021-05-22T07:06:26Z</time>
      </trkpt>
      <trkpt lat="42.4569290" lon="-8.6443790">
        <ele>8.8</ele>
        <time>2021-05-22T07:06:27Z</time>
      </trkpt>
      <trkpt lat="42.4569400" lon="-8.6443700">
        <ele>8.9</ele>
        <time>2021-05-22T07:06:28Z</time>
      </trkpt>
      <trkpt lat="42.4569430" lon="-8.6443650">
        <ele>8.9</ele>
        <time>2021-05-22T07:06:29Z</time>
      </trkpt>
      <trkpt lat="42.4569470" lon="-8.6443570">
        <ele>8.9</ele>
        <time>2021-05-22T07:06:30Z</time>
      </trkpt>
      <trkpt lat="42.4569540" lon="-8.6443510">
        <ele>8.9</ele>
        <time>2021-05-22T07:06:31Z</time>
      </trkpt>
      <trkpt lat="42.4569530" lon="-8.6443570">
        <ele>8.9</ele>
        <time>2021-05-22T07:06:32Z</time>
      </trkpt>
      <trkpt lat="42.4569570" lon="-8.6443520">
        <ele>8.9</ele>
        <time>2021-05-22T07:06:33Z</time>
      </trkpt>
      <trkpt lat="42.4569670" lon="-8.6443480">
        <ele>8.9</ele>
        <time>2021-05-22T07:06:34Z</time>
      </trkpt>
      <trkpt lat="42.4569730" lon="-8.6443290">
        <ele>9.0</ele>
        <time>2021-05-22T07:06:35Z</time>
      </trkpt>
      <trkpt lat="42.4569790" lon="-8.6443210">
        <ele>9.0</ele>
        <time>2021-05-22T07:06:36Z</time>
      </trkpt>
      <trkpt lat="42.4569780" lon="-8.6443130">
        <ele>9.0</ele>
        <time>2021-05-22T07:06:37Z</time>
      </trkpt>
      <trkpt lat="42.4569790" lon="-8.6443120">
        <ele>9.0</ele>
        <time>2021-05-22T07:06:38Z</time>
      </trkpt>
      <trkpt lat="42.4569830" lon="-8.6443060">
        <ele>9.0</ele>
        <time>2021-05-22T07:06:39Z</time>
      </trkpt>
      <trkpt lat="42.4569900" lon="-8.6443020">
        <ele>9.0</ele>
        <time>2021-05-22T07:06:40Z</time>
      </trkpt>
      <trkpt lat="42.4570030" lon="-8.6442910">
        <ele>9.0</ele>
        <time>2021-05-22T07:06:41Z</time>
      </trkpt>
      <trkpt lat="42.4570120" lon="-8.6442820">
        <ele>9.1</ele>
        <time>2021-05-22T07:06:42Z</time>
      </trkpt>
      <trkpt lat="42.4570210" lon="-8.6442720">
        <ele>9.1</ele>
        <time>2021-05-22T07:06:43Z</time>
      </trkpt>
      <trkpt lat="42.4570350" lon="-8.6442690">
        <ele>9.1</ele>
        <time>2021-05-22T07:06:44Z</time>
      </trkpt>
      <trkpt lat="42.4570520" lon="-8.6442650">
        <ele>9.2</ele>
        <time>2021-05-22T07:06:45Z</time>
      </trkpt>
      <trkpt lat="42.4570640" lon="-8.6442710">
        <ele>9.2</ele>
        <time>2021-05-22T07:06:46Z</time>
      </trkpt>
      <trkpt lat="42.4570750" lon="-8.6442760">
        <ele>9.3</ele>
        <time>2021-05-22T07:06:47Z</time>
      </trkpt>
      <trkpt lat="42.4570830" lon="-8.6442730">
        <ele>9.3</ele>
        <time>2021-05-22T07:06:48Z</time>
      </trkpt>
      <trkpt lat="42.4570880" lon="-8.6442780">
        <ele>9.3</ele>
        <time>2021-05-22T07:06:49Z</time>
      </trkpt>
      <trkpt lat="42.4570910" lon="-8.6442910">
        <ele>9.3</ele>
        <time>2021-05-22T07:06:50Z</time>
      </trkpt>
      <trkpt lat="42.4570980" lon="-8.6442980">
        <ele>9.3</ele>
        <time>2021-05-22T07:06:51Z</time>
      </trkpt>
      <trkpt lat="42.4571080" lon="-8.6442820">
        <ele>9.4</ele>
        <time>2021-05-22T07:06:52Z</time>
      </trkpt>
      <trkpt lat="42.4571120" lon="-8.6442770">
        <ele>9.4</ele>
        <time>2021-05-22T07:06:53Z</time>
      </trkpt>
      <trkpt lat="42.4571230" lon="-8.6442680">
        <ele>9.5</ele>
        <time>2021-05-22T07:06:54Z</time>
      </trkpt>
      <trkpt lat="42.4571650" lon="-8.6442570">
        <ele>9.6</ele>
        <time>2021-05-22T07:06:55Z</time>
      </trkpt>
      <trkpt lat="42.4571790" lon="-8.6442520">
        <ele>9.6</ele>
        <time>2021-05-22T07:06:56Z</time>
      </trkpt>
      <trkpt lat="42.4571960" lon="-8.6442330">
        <ele>9.7</ele>
        <time>2021-05-22T07:06:57Z</time>
      </trkpt>
      <trkpt lat="42.4572070" lon="-8.6442280">
        <ele>9.8</ele>
        <time>2021-05-22T07:06:58Z</time>
      </trkpt>
      <trkpt lat="42.4572250" lon="-8.6442280">
        <ele>9.8</ele>
        <time>2021-05-22T07:06:59Z</time>
      </trkpt>
      <trkpt lat="42.4572380" lon="-8.6442360">
        <ele>9.9</ele>
        <time>2021-05-22T07:07:00Z</time>
      </trkpt>
      <trkpt lat="42.4572570" lon="-8.6442360">
        <ele>10.0</ele>
        <time>2021-05-22T07:07:01Z</time>
      </trkpt>
      <trkpt lat="42.4572700" lon="-8.6442350">
        <ele>10.1</ele>
        <time>2021-05-22T07:07:02Z</time>
      </trkpt>
      <trkpt lat="42.4572840" lon="-8.6442370">
        <ele>10.2</ele>
        <time>2021-05-22T07:07:03Z</time>
      </trkpt>
      <trkpt lat="42.4572930" lon="-8.6442370">
        <ele>10.3</ele>
        <time>2021-05-22T07:07:04Z</time>
      </trkpt>
      <trkpt lat="42.4573020" lon="-8.6442390">
        <ele>10.3</ele>
        <time>2021-05-22T07:07:05Z</time>
      </trkpt>
      <trkpt lat="42.4573120" lon="-8.6442400">
        <ele>10.4</ele>
        <time>2021-05-22T07:07:06Z</time>
      </trkpt>
      <trkpt lat="42.4573180" lon="-8.6442560">
        <ele>10.5</ele>
        <time>2021-05-22T07:07:07Z</time>
      </trkpt>
      <trkpt lat="42.4573290" lon="-8.6442600">
        <ele>10.6</ele>
        <time>2021-05-22T07:07:08Z</time>
      </trkpt>
      <trkpt lat="42.4573490" lon="-8.6442680">
        <ele>10.7</ele>
        <time>2021-05-22T07:07:09Z</time>
      </trkpt>
      <trkpt lat="42.4573580" lon="-8.6442690">
        <ele>10.8</ele>
        <time>2021-05-22T07:07:10Z</time>
      </trkpt>
      <trkpt lat="42.4573660" lon="-8.6442700">
        <ele>10.9</ele>
        <time>2021-05-22T07:07:11Z</time>
      </trkpt>
      <trkpt lat="42.4573820" lon="-8.6442660">
        <ele>11.0</ele>
        <time>2021-05-22T07:07:12Z</time>
      </trkpt>
      <trkpt lat="42.4573900" lon="-8.6442640">
        <ele>11.1</ele>
        <time>2021-05-22T07:07:13Z</time>
      </trkpt>
      <trkpt lat="42.4574020" lon="-8.6442600">
        <ele>11.2</ele>
        <time>2021-05-22T07:07:14Z</time>
      </trkpt>
      <trkpt lat="42.4574080" lon="-8.6442590">
        <ele>11.2</ele>
        <time>2021-05-22T07:07:15Z</time>
      </trkpt>
      <trkpt lat="42.4574130" lon="-8.6442630">
        <ele>11.3</ele>
        <time>2021-05-22T07:07:16Z</time>
      </trkpt>
      <trkpt lat="42.4574340" lon="-8.6442620">
        <ele>11.5</ele>
        <time>2021-05-22T07:07:17Z</time>
      </trkpt>
      <trkpt lat="42.4574450" lon="-8.6442630">
        <ele>11.6</ele>
        <time>2021-05-22T07:07:18Z</time>
      </trkpt>
      <trkpt lat="42.4574550" lon="-8.6442650">
        <ele>11.7</ele>
        <time>2021-05-22T07:07:19Z</time>
      </trkpt>
      <trkpt lat="42.4574620" lon="-8.6442640">
        <ele>11.7</ele>
        <time>2021-05-22T07:07:20Z</time>
      </trkpt>
      <trkpt lat="42.4574710" lon="-8.6442660">
        <ele>11.8</ele>
        <time>2021-05-22T07:07:21Z</time>
      </trkpt>
      <trkpt lat="42.4574830" lon="-8.6442640">
        <ele>11.9</ele>
        <time>2021-05-22T07:07:22Z</time>
      </trkpt>
      <trkpt lat="42.4574890" lon="-8.6442630">
        <ele>12.0</ele>
        <time>2021-05-22T07:07:23Z</time>
      </trkpt>
      <trkpt lat="42.4574970" lon="-8.6442650">
        <ele>12.0</ele>
        <time>2021-05-22T07:07:24Z</time>
      </trkpt>
      <trkpt lat="42.4575060" lon="-8.6442630">
        <ele>12.1</ele>
        <time>2021-05-22T07:07:25Z</time>
      </trkpt>
      <trkpt lat="42.4575150" lon="-8.6442610">
        <ele>12.2</ele>
        <time>2021-05-22T07:07:26Z</time>
      </trkpt>
      <trkpt lat="42.4575270" lon="-8.6442570">
        <ele>12.3</ele>
        <time>2021-05-22T07:07:27Z</time>
      </trkpt>
      <trkpt lat="42.4575340" lon="-8.6442550">
        <ele>12.4</ele>
        <time>2021-05-22T07:07:28Z</time>
      </trkpt>
      <trkpt lat="42.4575430" lon="-8.6442510">
        <ele>12.5</ele>
        <time>2021-05-22T07:07:29Z</time>
      </trkpt>
      <trkpt lat="42.4575490" lon="-8.6442490">
        <ele>12.5</ele>
        <time>2021-05-22T07:07:30Z</time>
      </trkpt>
      <trkpt lat="42.4575570" lon="-8.6442480">
        <ele>12.6</ele>
        <time>2021-05-22T07:07:31Z</time>
      </trkpt>
      <trkpt lat="42.4575680" lon="-8.6442420">
        <ele>12.7</ele>
        <time>2021-05-22T07:07:32Z</time>
      </trkpt>
      <trkpt lat="42.4575750" lon="-8.6442460">
        <ele>12.8</ele>
        <time>2021-05-22T07:07:33Z</time>
      </trkpt>
      <trkpt lat="42.4575870" lon="-8.6442500">
        <ele>12.9</ele>
        <time>2021-05-22T07:07:34Z</time>
      </trkpt>
      <trkpt lat="42.4575960" lon="-8.6442530">
        <ele>13.0</ele>
        <time>2021-05-22T07:07:35Z</time>
      </trkpt>
      <trkpt lat="42.4576010" lon="-8.6442520">
        <ele>13.1</ele>
        <time>2021-05-22T07:07:36Z</time>
      </trkpt>
      <trkpt lat="42.4576060" lon="-8.6442550">
        <ele>13.1</ele>
        <time>2021-05-22T07:07:37Z</time>
      </trkpt>
      <trkpt lat="42.4576170" lon="-8.6442590">
        <ele>13.2</ele>
        <time>2021-05-22T07:07:38Z</time>
      </trkpt>
      <trkpt lat="42.4576210" lon="-8.6442630">
        <ele>13.3</ele>
        <time>2021-05-22T07:07:39Z</time>
      </trkpt>
      <trkpt lat="42.4576300" lon="-8.6442630">
        <ele>13.3</ele>
        <time>2021-05-22T07:07:40Z</time>
      </trkpt>
      <trkpt lat="42.4576450" lon="-8.6442670">
        <ele>13.5</ele>
        <time>2021-05-22T07:07:41Z</time>
      </trkpt>
      <trkpt lat="42.4576560" lon="-8.6442670">
        <ele>13.6</ele>
        <time>2021-05-22T07:07:42Z</time>
      </trkpt>
      <trkpt lat="42.4576660" lon="-8.6442730">
        <ele>13.7</ele>
        <time>2021-05-22T07:07:43Z</time>
      </trkpt>
      <trkpt lat="42.4576760" lon="-8.6442760">
        <ele>13.8</ele>
        <time>2021-05-22T07:07:44Z</time>
      </trkpt>
      <trkpt lat="42.4576890" lon="-8.6442780">
        <ele>13.9</ele>
        <time>2021-05-22T07:07:45Z</time>
      </trkpt>
      <trkpt lat="42.4576980" lon="-8.6442780">
        <ele>14.0</ele>
        <time>2021-05-22T07:07:46Z</time>
      </trkpt>
      <trkpt lat="42.4577070" lon="-8.6442790">
        <ele>14.1</ele>
        <time>2021-05-22T07:07:47Z</time>
      </trkpt>
      <trkpt lat="42.4577150" lon="-8.6442800">
        <ele>14.1</ele>
        <time>2021-05-22T07:07:48Z</time>
      </trkpt>
      <trkpt lat="42.4577290" lon="-8.6442850">
        <ele>14.3</ele>
        <time>2021-05-22T07:07:49Z</time>
      </trkpt>
      <trkpt lat="42.4577390" lon="-8.6442860">
        <ele>14.4</ele>
        <time>2021-05-22T07:07:50Z</time>
      </trkpt>
      <trkpt lat="42.4577490" lon="-8.6442890">
        <ele>14.5</ele>
        <time>2021-05-22T07:07:51Z</time>
      </trkpt>
      <trkpt lat="42.4577720" lon="-8.6442920">
        <ele>14.7</ele>
        <time>2021-05-22T07:07:52Z</time>
      </trkpt>
      <trkpt lat="42.4577790" lon="-8.6442920">
        <ele>14.7</ele>
        <time>2021-05-22T07:07:53Z</time>
      </trkpt>
      <trkpt lat="42.4577870" lon="-8.6442920">
        <ele>14.8</ele>
        <time>2021-05-22T07:07:54Z</time>
      </trkpt>
      <trkpt lat="42.4577940" lon="-8.6442910">
        <ele>14.9</ele>
        <time>2021-05-22T07:07:55Z</time>
      </trkpt>
      <trkpt lat="42.4578030" lon="-8.6443000">
        <ele>15.0</ele>
        <time>2021-05-22T07:07:56Z</time>
      </trkpt>
      <trkpt lat="42.4578200" lon="-8.6443000">
        <ele>15.1</ele>
        <time>2021-05-22T07:07:57Z</time>
      </trkpt>
      <trkpt lat="42.4578280" lon="-8.6442980">
        <ele>15.2</ele>
        <time>2021-05-22T07:07:58Z</time>
      </trkpt>
      <trkpt lat="42.4578420" lon="-8.6443020">
        <ele>15.3</ele>
        <time>2021-05-22T07:07:59Z</time>
      </trkpt>
      <trkpt lat="42.4578540" lon="-8.6443070">
        <ele>15.4</ele>
        <time>2021-05-22T07:08:00Z</time>
      </trkpt>
      <trkpt lat="42.4578650" lon="-8.6443080">
        <ele>15.5</ele>
        <time>2021-05-22T07:08:01Z</time>
      </trkpt>
      <trkpt lat="42.4578800" lon="-8.6443070">
        <ele>15.6</ele>
        <time>2021-05-22T07:08:02Z</time>
      </trkpt>
      <trkpt lat="42.4578860" lon="-8.6443130">
        <ele>15.6</ele>
        <time>2021-05-22T07:08:03Z</time>
      </trkpt>
      <trkpt lat="42.4578950" lon="-8.6443190">
        <ele>15.7</ele>
        <time>2021-05-22T07:08:04Z</time>
      </trkpt>
      <trkpt lat="42.4579070" lon="-8.6443210">
        <ele>15.8</ele>
        <time>2021-05-22T07:08:05Z</time>
      </trkpt>
      <trkpt lat="42.4579170" lon="-8.6443310">
        <ele>15.9</ele>
        <time>2021-05-22T07:08:06Z</time>
      </trkpt>
      <trkpt lat="42.4579290" lon="-8.6443340">
        <ele>15.9</ele>
        <time>2021-05-22T07:08:07Z</time>
      </trkpt>
      <trkpt lat="42.4579420" lon="-8.6443400">
        <ele>16.0</ele>
        <time>2021-05-22T07:08:08Z</time>
      </trkpt>
      <trkpt lat="42.4579490" lon="-8.6443460">
        <ele>16.1</ele>
        <time>2021-05-22T07:08:09Z</time>
      </trkpt>
      <trkpt lat="42.4579650" lon="-8.6443550">
        <ele>16.2</ele>
        <time>2021-05-22T07:08:10Z</time>
      </trkpt>
      <trkpt lat="42.4579730" lon="-8.6443590">
        <ele>16.2</ele>
        <time>2021-05-22T07:08:11Z</time>
      </trkpt>
      <trkpt lat="42.4579820" lon="-8.6443550">
        <ele>16.3</ele>
        <time>2021-05-22T07:08:12Z</time>
      </trkpt>
      <trkpt lat="42.4580040" lon="-8.6443560">
        <ele>16.4</ele>
        <time>2021-05-22T07:08:13Z</time>
      </trkpt>
      <trkpt lat="42.4580120" lon="-8.6443560">
        <ele>16.4</ele>
        <time>2021-05-22T07:08:14Z</time>
      </trkpt>
      <trkpt lat="42.4580190" lon="-8.6443570">
        <ele>16.4</ele>
        <time>2021-05-22T07:08:15Z</time>
      </trkpt>
      <trkpt lat="42.4580250" lon="-8.6443580">
        <ele>16.5</ele>
        <time>2021-05-22T07:08:16Z</time>
      </trkpt>
      <trkpt lat="42.4580380" lon="-8.6443600">
        <ele>16.5</ele>
        <time>2021-05-22T07:08:17Z</time>
      </trkpt>
      <trkpt lat="42.4580480" lon="-8.6443590">
        <ele>16.5</ele>
        <time>2021-05-22T07:08:18Z</time>
      </trkpt>
      <trkpt lat="42.4580750" lon="-8.6443580">
        <ele>16.6</ele>
        <time>2021-05-22T07:08:19Z</time>
      </trkpt>
      <trkpt lat="42.4580870" lon="-8.6443550">
        <ele>16.7</ele>
        <time>2021-05-22T07:08:20Z</time>
      </trkpt>
      <trkpt lat="42.4580900" lon="-8.6443610">
        <ele>16.7</ele>
        <time>2021-05-22T07:08:21Z</time>
      </trkpt>
      <trkpt lat="42.4580990" lon="-8.6443600">
        <ele>16.7</ele>
        <time>2021-05-22T07:08:22Z</time>
      </trkpt>
      <trkpt lat="42.4581120" lon="-8.6443700">
        <ele>16.7</ele>
        <time>2021-05-22T07:08:23Z</time>
      </trkpt>
      <trkpt lat="42.4581180" lon="-8.6443680">
        <ele>16.8</ele>
        <time>2021-05-22T07:08:24Z</time>
      </trkpt>
      <trkpt lat="42.4581310" lon="-8.6443660">
        <ele>16.8</ele>
        <time>2021-05-22T07:08:25Z</time>
      </trkpt>
      <trkpt lat="42.4581390" lon="-8.6443630">
        <ele>16.8</ele>
        <time>2021-05-22T07:08:26Z</time>
      </trkpt>
      <trkpt lat="42.4581480" lon="-8.6443630">
        <ele>16.8</ele>
        <time>2021-05-22T07:08:27Z</time>
      </trkpt>
      <trkpt lat="42.4581680" lon="-8.6443590">
        <ele>16.9</ele>
        <time>2021-05-22T07:08:28Z</time>
      </trkpt>
      <trkpt lat="42.4581740" lon="-8.6443610">
        <ele>16.9</ele>
        <time>2021-05-22T07:08:29Z</time>
      </trkpt>
      <trkpt lat="42.4581800" lon="-8.6443640">
        <ele>16.9</ele>
        <time>2021-05-22T07:08:30Z</time>
      </trkpt>
      <trkpt lat="42.4581860" lon="-8.6443670">
        <ele>16.9</ele>
        <time>2021-05-22T07:08:31Z</time>
      </trkpt>
      <trkpt lat="42.4581980" lon="-8.6443700">
        <ele>17.0</ele>
        <time>2021-05-22T07:08:32Z</time>
      </trkpt>
      <trkpt lat="42.4582110" lon="-8.6443730">
        <ele>17.0</ele>
        <time>2021-05-22T07:08:33Z</time>
      </trkpt>
      <trkpt lat="42.4582180" lon="-8.6443700">
        <ele>17.0</ele>
        <time>2021-05-22T07:08:34Z</time>
      </trkpt>
      <trkpt lat="42.4582200" lon="-8.6443710">
        <ele>17.0</ele>
        <time>2021-05-22T07:08:35Z</time>
      </trkpt>
      <trkpt lat="42.4582250" lon="-8.6443780">
        <ele>17.0</ele>
        <time>2021-05-22T07:08:36Z</time>
      </trkpt>
      <trkpt lat="42.4582310" lon="-8.6443810">
        <ele>17.1</ele>
        <time>2021-05-22T07:08:37Z</time>
      </trkpt>
      <trkpt lat="42.4582380" lon="-8.6443710">
        <ele>17.1</ele>
        <time>2021-05-22T07:08:38Z</time>
      </trkpt>
      <trkpt lat="42.4582480" lon="-8.6443800">
        <ele>17.1</ele>
        <time>2021-05-22T07:08:39Z</time>
      </trkpt>
      <trkpt lat="42.4582590" lon="-8.6443720">
        <ele>17.1</ele>
        <time>2021-05-22T07:08:40Z</time>
      </trkpt>
      <trkpt lat="42.4582720" lon="-8.6443720">
        <ele>17.2</ele>
        <time>2021-05-22T07:08:41Z</time>
      </trkpt>
      <trkpt lat="42.4582810" lon="-8.6443740">
        <ele>17.2</ele>
        <time>2021-05-22T07:08:42Z</time>
      </trkpt>
      <trkpt lat="42.4582950" lon="-8.6443780">
        <ele>17.3</ele>
        <time>2021-05-22T07:08:43Z</time>
      </trkpt>
      <trkpt lat="42.4583000" lon="-8.6443830">
        <ele>17.3</ele>
        <time>2021-05-22T07:08:44Z</time>
      </trkpt>
      <trkpt lat="42.4583100" lon="-8.6443800">
        <ele>17.3</ele>
        <time>2021-05-22T07:08:45Z</time>
      </trkpt>
      <trkpt lat="42.4583370" lon="-8.6443790">
        <ele>17.4</ele>
        <time>2021-05-22T07:08:46Z</time>
      </trkpt>
      <trkpt lat="42.4583460" lon="-8.6443750">
        <ele>17.4</ele>
        <time>2021-05-22T07:08:47Z</time>
      </trkpt>
      <trkpt lat="42.4583790" lon="-8.6443670">
        <ele>17.6</ele>
        <time>2021-05-22T07:08:48Z</time>
      </trkpt>
      <trkpt lat="42.4583860" lon="-8.6443630">
        <ele>17.6</ele>
        <time>2021-05-22T07:08:49Z</time>
      </trkpt>
      <trkpt lat="42.4583990" lon="-8.6443610">
        <ele>17.7</ele>
        <time>2021-05-22T07:08:50Z</time>
      </trkpt>
      <trkpt lat="42.4584040" lon="-8.6443610">
        <ele>17.7</ele>
        <time>2021-05-22T07:08:51Z</time>
      </trkpt>
      <trkpt lat="42.4584100" lon="-8.6443620">
        <ele>17.7</ele>
        <time>2021-05-22T07:08:52Z</time>
      </trkpt>
      <trkpt lat="42.4584150" lon="-8.6443630">
        <ele>17.7</ele>
        <time>2021-05-22T07:08:53Z</time>
      </trkpt>
      <trkpt lat="42.4584200" lon="-8.6443630">
        <ele>17.7</ele>
        <time>2021-05-22T07:08:54Z</time>
      </trkpt>
      <trkpt lat="42.4584250" lon="-8.6443640">
        <ele>17.8</ele>
        <time>2021-05-22T07:08:55Z</time>
      </trkpt>
      <trkpt lat="42.4584340" lon="-8.6443570">
        <ele>17.8</ele>
        <time>2021-05-22T07:08:56Z</time>
      </trkpt>
      <trkpt lat="42.4584430" lon="-8.6443480">
        <ele>17.9</ele>
        <time>2021-05-22T07:08:57Z</time>
      </trkpt>
      <trkpt lat="42.4584550" lon="-8.6443360">
        <ele>17.9</ele>
        <time>2021-05-22T07:08:58Z</time>
      </trkpt>
      <trkpt lat="42.4584680" lon="-8.6443280">
        <ele>18.0</ele>
        <time>2021-05-22T07:08:59Z</time>
      </trkpt>
      <trkpt lat="42.4584840" lon="-8.6443210">
        <ele>18.1</ele>
        <time>2021-05-22T07:09:00Z</time>
      </trkpt>
      <trkpt lat="42.4585060" lon="-8.6443250">
        <ele>18.2</ele>
        <time>2021-05-22T07:09:01Z</time>
      </trkpt>
      <trkpt lat="42.4585130" lon="-8.6443240">
        <ele>18.2</ele>
        <time>2021-05-22T07:09:02Z</time>
      </trkpt>
      <trkpt lat="42.4585210" lon="-8.6443220">
        <ele>18.2</ele>
        <time>2021-05-22T07:09:03Z</time>
      </trkpt>
      <trkpt lat="42.4585310" lon="-8.6443220">
        <ele>18.3</ele>
        <time>2021-05-22T07:09:04Z</time>
      </trkpt>
      <trkpt lat="42.4585410" lon="-8.6443290">
        <ele>18.3</ele>
        <time>2021-05-22T07:09:05Z</time>
      </trkpt>
      <trkpt lat="42.4585480" lon="-8.6443280">
        <ele>18.4</ele>
        <time>2021-05-22T07:09:06Z</time>
      </trkpt>
      <trkpt lat="42.4585600" lon="-8.6443210">
        <ele>18.4</ele>
        <time>2021-05-22T07:09:07Z</time>
      </trkpt>
      <trkpt lat="42.4585790" lon="-8.6443090">
        <ele>18.5</ele>
        <time>2021-05-22T07:09:08Z</time>
      </trkpt>
      <trkpt lat="42.4585920" lon="-8.6443080">
        <ele>18.6</ele>
        <time>2021-05-22T07:09:09Z</time>
      </trkpt>
      <trkpt lat="42.4586030" lon="-8.6443120">
        <ele>18.6</ele>
        <time>2021-05-22T07:09:10Z</time>
      </trkpt>
      <trkpt lat="42.4586120" lon="-8.6443140">
        <ele>18.7</ele>
        <time>2021-05-22T07:09:11Z</time>
      </trkpt>
      <trkpt lat="42.4586290" lon="-8.6443120">
        <ele>18.8</ele>
        <time>2021-05-22T07:09:12Z</time>
      </trkpt>
      <trkpt lat="42.4586330" lon="-8.6443110">
        <ele>18.8</ele>
        <time>2021-05-22T07:09:13Z</time>
      </trkpt>
      <trkpt lat="42.4586400" lon="-8.6443140">
        <ele>18.8</ele>
        <time>2021-05-22T07:09:14Z</time>
      </trkpt>
      <trkpt lat="42.4586690" lon="-8.6443370">
        <ele>19.0</ele>
        <time>2021-05-22T07:09:15Z</time>
      </trkpt>
      <trkpt lat="42.4586770" lon="-8.6443530">
        <ele>19.1</ele>
        <time>2021-05-22T07:09:16Z</time>
      </trkpt>
      <trkpt lat="42.4586910" lon="-8.6443590">
        <ele>19.2</ele>
        <time>2021-05-22T07:09:17Z</time>
      </trkpt>
      <trkpt lat="42.4587030" lon="-8.6443640">
        <ele>19.2</ele>
        <time>2021-05-22T07:09:18Z</time>
      </trkpt>
      <trkpt lat="42.4587090" lon="-8.6443670">
        <ele>19.3</ele>
        <time>2021-05-22T07:09:19Z</time>
      </trkpt>
      <trkpt lat="42.4587120" lon="-8.6443690">
        <ele>19.3</ele>
        <time>2021-05-22T07:09:20Z</time>
      </trkpt>
      <trkpt lat="42.4587160" lon="-8.6443730">
        <ele>19.3</ele>
        <time>2021-05-22T07:09:21Z</time>
      </trkpt>
      <trkpt lat="42.4587170" lon="-8.6443700">
        <ele>19.3</ele>
        <time>2021-05-22T07:09:22Z</time>
      </trkpt>
      <trkpt lat="42.4587280" lon="-8.6443720">
        <ele>19.4</ele>
        <time>2021-05-22T07:09:23Z</time>
      </trkpt>
      <trkpt lat="42.4587360" lon="-8.6443740">
        <ele>19.5</ele>
        <time>2021-05-22T07:09:24Z</time>
      </trkpt>
      <trkpt lat="42.4587380" lon="-8.6443690">
        <ele>19.5</ele>
        <time>2021-05-22T07:09:25Z</time>
      </trkpt>
      <trkpt lat="42.4587580" lon="-8.6443410">
        <ele>19.7</ele>
        <time>2021-05-22T07:09:26Z</time>
      </trkpt>
      <trkpt lat="42.4587750" lon="-8.6443380">
        <ele>19.8</ele>
        <time>2021-05-22T07:09:27Z</time>
      </trkpt>
      <trkpt lat="42.4587900" lon="-8.6443390">
        <ele>19.9</ele>
        <time>2021-05-22T07:09:28Z</time>
      </trkpt>
      <trkpt lat="42.4588190" lon="-8.6443480">
        <ele>20.1</ele>
        <time>2021-05-22T07:09:29Z</time>
      </trkpt>
      <trkpt lat="42.4588270" lon="-8.6443540">
        <ele>20.2</ele>
        <time>2021-05-22T07:09:30Z</time>
      </trkpt>
      <trkpt lat="42.4588360" lon="-8.6443580">
        <ele>20.3</ele>
        <time>2021-05-22T07:09:31Z</time>
      </trkpt>
      <trkpt lat="42.4588450" lon="-8.6443620">
        <ele>20.4</ele>
        <time>2021-05-22T07:09:32Z</time>
      </trkpt>
      <trkpt lat="42.4588610" lon="-8.6443610">
        <ele>20.5</ele>
        <time>2021-05-22T07:09:33Z</time>
      </trkpt>
      <trkpt lat="42.4588730" lon="-8.6443650">
        <ele>20.6</ele>
        <time>2021-05-22T07:09:34Z</time>
      </trkpt>
      <trkpt lat="42.4588830" lon="-8.6443660">
        <ele>20.7</ele>
        <time>2021-05-22T07:09:35Z</time>
      </trkpt>
      <trkpt lat="42.4588900" lon="-8.6443720">
        <ele>20.8</ele>
        <time>2021-05-22T07:09:36Z</time>
      </trkpt>
      <trkpt lat="42.4588980" lon="-8.6443750">
        <ele>20.8</ele>
        <time>2021-05-22T07:09:37Z</time>
      </trkpt>
      <trkpt lat="42.4589080" lon="-8.6443810">
        <ele>20.9</ele>
        <time>2021-05-22T07:09:38Z</time>
      </trkpt>
      <trkpt lat="42.4589200" lon="-8.6443900">
        <ele>21.0</ele>
        <time>2021-05-22T07:09:39Z</time>
      </trkpt>
      <trkpt lat="42.4589380" lon="-8.6443920">
        <ele>21.2</ele>
        <time>2021-05-22T07:09:40Z</time>
      </trkpt>
      <trkpt lat="42.4589480" lon="-8.6443950">
        <ele>21.3</ele>
        <time>2021-05-22T07:09:41Z</time>
      </trkpt>
      <trkpt lat="42.4589580" lon="-8.6443970">
        <ele>21.3</ele>
        <time>2021-05-22T07:09:42Z</time>
      </trkpt>
      <trkpt lat="42.4589710" lon="-8.6444030">
        <ele>21.4</ele>
        <time>2021-05-22T07:09:43Z</time>
      </trkpt>
      <trkpt lat="42.4589870" lon="-8.6444070">
        <ele>21.6</ele>
        <time>2021-05-22T07:09:44Z</time>
      </trkpt>
      <trkpt lat="42.4590080" lon="-8.6444120">
        <ele>21.7</ele>
        <time>2021-05-22T07:09:45Z</time>
      </trkpt>
      <trkpt lat="42.4590170" lon="-8.6444130">
        <ele>21.8</ele>
        <time>2021-05-22T07:09:46Z</time>
      </trkpt>
      <trkpt lat="42.4590260" lon="-8.6444150">
        <ele>21.8</ele>
        <time>2021-05-22T07:09:47Z</time>
      </trkpt>
      <trkpt lat="42.4590490" lon="-8.6444190">
        <ele>22.0</ele>
        <time>2021-05-22T07:09:48Z</time>
      </trkpt>
      <trkpt lat="42.4590570" lon="-8.6444210">
        <ele>22.0</ele>
        <time>2021-05-22T07:09:49Z</time>
      </trkpt>
      <trkpt lat="42.4590650" lon="-8.6444220">
        <ele>22.1</ele>
        <time>2021-05-22T07:09:50Z</time>
      </trkpt>
      <trkpt lat="42.4590790" lon="-8.6444260">
        <ele>22.2</ele>
        <time>2021-05-22T07:09:51Z</time>
      </trkpt>
      <trkpt lat="42.4590920" lon="-8.6444270">
        <ele>22.3</ele>
        <time>2021-05-22T07:09:52Z</time>
      </trkpt>
      <trkpt lat="42.4590990" lon="-8.6444220">
        <ele>22.3</ele>
        <time>2021-05-22T07:09:53Z</time>
      </trkpt>
      <trkpt lat="42.4591170" lon="-8.6444340">
        <ele>22.4</ele>
        <time>2021-05-22T07:09:54Z</time>
      </trkpt>
      <trkpt lat="42.4591260" lon="-8.6444400">
        <ele>22.4</ele>
        <time>2021-05-22T07:09:55Z</time>
      </trkpt>
      <trkpt lat="42.4591350" lon="-8.6444460">
        <ele>22.5</ele>
        <time>2021-05-22T07:09:56Z</time>
      </trkpt>
      <trkpt lat="42.4591400" lon="-8.6444500">
        <ele>22.5</ele>
        <time>2021-05-22T07:09:57Z</time>
      </trkpt>
      <trkpt lat="42.4591440" lon="-8.6444500">
        <ele>22.5</ele>
        <time>2021-05-22T07:09:58Z</time>
      </trkpt>
      <trkpt lat="42.4591490" lon="-8.6444550">
        <ele>22.5</ele>
        <time>2021-05-22T07:09:59Z</time>
      </trkpt>
      <trkpt lat="42.4591560" lon="-8.6444590">
        <ele>22.6</ele>
        <time>2021-05-22T07:10:00Z</time>
      </trkpt>
      <trkpt lat="42.4591690" lon="-8.6444640">
        <ele>22.6</ele>
        <time>2021-05-22T07:10:01Z</time>
      </trkpt>
      <trkpt lat="42.4591770" lon="-8.6444700">
        <ele>22.6</ele>
        <time>2021-05-22T07:10:02Z</time>
      </trkpt>
      <trkpt lat="42.4591830" lon="-8.6444700">
        <ele>22.6</ele>
        <time>2021-05-22T07:10:03Z</time>
      </trkpt>
      <trkpt lat="42.4591880" lon="-8.6444700">
        <ele>22.7</ele>
        <time>2021-05-22T07:10:04Z</time>
      </trkpt>
      <trkpt lat="42.4591960" lon="-8.6444720">
        <ele>22.7</ele>
        <time>2021-05-22T07:10:05Z</time>
      </trkpt>
      <trkpt lat="42.4592110" lon="-8.6444720">
        <ele>22.7</ele>
        <time>2021-05-22T07:10:06Z</time>
      </trkpt>
      <trkpt lat="42.4592180" lon="-8.6444710">
        <ele>22.7</ele>
        <time>2021-05-22T07:10:07Z</time>
      </trkpt>
      <trkpt lat="42.4592260" lon="-8.6444690">
        <ele>22.7</ele>
        <time>2021-05-22T07:10:08Z</time>
      </trkpt>
      <trkpt lat="42.4592330" lon="-8.6444680">
        <ele>22.7</ele>
        <time>2021-05-22T07:10:09Z</time>
      </trkpt>
      <trkpt lat="42.4592560" lon="-8.6444700">
        <ele>22.8</ele>
        <time>2021-05-22T07:10:10Z</time>
      </trkpt>
      <trkpt lat="42.4592640" lon="-8.6444720">
        <ele>22.8</ele>
        <time>2021-05-22T07:10:11Z</time>
      </trkpt>
      <trkpt lat="42.4592710" lon="-8.6444750">
        <ele>22.8</ele>
        <time>2021-05-22T07:10:12Z</time>
      </trkpt>
      <trkpt lat="42.4592890" lon="-8.6444770">
        <ele>22.8</ele>
        <time>2021-05-22T07:10:13Z</time>
      </trkpt>
      <trkpt lat="42.4593050" lon="-8.6444850">
        <ele>22.8</ele>
        <time>2021-05-22T07:10:14Z</time>
      </trkpt>
      <trkpt lat="42.4593260" lon="-8.6444930">
        <ele>22.7</ele>
        <time>2021-05-22T07:10:15Z</time>
      </trkpt>
      <trkpt lat="42.4593360" lon="-8.6444890">
        <ele>22.7</ele>
        <time>2021-05-22T07:10:16Z</time>
      </trkpt>
      <trkpt lat="42.4593510" lon="-8.6444970">
        <ele>22.7</ele>
        <time>2021-05-22T07:10:17Z</time>
      </trkpt>
      <trkpt lat="42.4593660" lon="-8.6445020">
        <ele>22.7</ele>
        <time>2021-05-22T07:10:18Z</time>
      </trkpt>
      <trkpt lat="42.4593770" lon="-8.6445060">
        <ele>22.6</ele>
        <time>2021-05-22T07:10:19Z</time>
      </trkpt>
      <trkpt lat="42.4593970" lon="-8.6445100">
        <ele>22.6</ele>
        <time>2021-05-22T07:10:20Z</time>
      </trkpt>
      <trkpt lat="42.4594110" lon="-8.6445160">
        <ele>22.5</ele>
        <time>2021-05-22T07:10:21Z</time>
      </trkpt>
      <trkpt lat="42.4594230" lon="-8.6445210">
        <ele>22.5</ele>
        <time>2021-05-22T07:10:22Z</time>
      </trkpt>
      <trkpt lat="42.4594340" lon="-8.6445250">
        <ele>22.5</ele>
        <time>2021-05-22T07:10:23Z</time>
      </trkpt>
      <trkpt lat="42.4594370" lon="-8.6445240">
        <ele>22.5</ele>
        <time>2021-05-22T07:10:24Z</time>
      </trkpt>
      <trkpt lat="42.4594560" lon="-8.6445250">
        <ele>22.4</ele>
        <time>2021-05-22T07:10:25Z</time>
      </trkpt>
      <trkpt lat="42.4594660" lon="-8.6445370">
        <ele>22.3</ele>
        <time>2021-05-22T07:10:26Z</time>
      </trkpt>
      <trkpt lat="42.4594820" lon="-8.6445360">
        <ele>22.3</ele>
        <time>2021-05-22T07:10:27Z</time>
      </trkpt>
      <trkpt lat="42.4594930" lon="-8.6445320">
        <ele>22.2</ele>
        <time>2021-05-22T07:10:28Z</time>
      </trkpt>
      <trkpt lat="42.4595020" lon="-8.6445470">
        <ele>22.1</ele>
        <time>2021-05-22T07:10:29Z</time>
      </trkpt>
      <trkpt lat="42.4595140" lon="-8.6445510">
        <ele>22.1</ele>
        <time>2021-05-22T07:10:30Z</time>
      </trkpt>
      <trkpt lat="42.4595250" lon="-8.6445570">
        <ele>22.0</ele>
        <time>2021-05-22T07:10:31Z</time>
      </trkpt>
      <trkpt lat="42.4595440" lon="-8.6445660">
        <ele>21.9</ele>
        <time>2021-05-22T07:10:32Z</time>
      </trkpt>
      <trkpt lat="42.4595560" lon="-8.6445730">
        <ele>21.8</ele>
        <time>2021-05-22T07:10:33Z</time>
      </trkpt>
      <trkpt lat="42.4595730" lon="-8.6445720">
        <ele>21.7</ele>
        <time>2021-05-22T07:10:34Z</time>
      </trkpt>
      <trkpt lat="42.4595870" lon="-8.6445710">
        <ele>21.7</ele>
        <time>2021-05-22T07:10:35Z</time>
      </trkpt>
      <trkpt lat="42.4595930" lon="-8.6445740">
        <ele>21.6</ele>
        <time>2021-05-22T07:10:36Z</time>
      </trkpt>
      <trkpt lat="42.4596070" lon="-8.6445770">
        <ele>21.5</ele>
        <time>2021-05-22T07:10:37Z</time>
      </trkpt>
      <trkpt lat="42.4596170" lon="-8.6445740">
        <ele>21.5</ele>
        <time>2021-05-22T07:10:38Z</time>
      </trkpt>
      <trkpt lat="42.4596350" lon="-8.6445760">
        <ele>21.4</ele>
        <time>2021-05-22T07:10:39Z</time>
      </trkpt>
      <trkpt lat="42.4596480" lon="-8.6445850">
        <ele>21.3</ele>
        <time>2021-05-22T07:10:40Z</time>
      </trkpt>
      <trkpt lat="42.4596600" lon="-8.6445890">
        <ele>21.2</ele>
        <time>2021-05-22T07:10:41Z</time>
      </trkpt>
      <trkpt lat="42.4596770" lon="-8.6445920">
        <ele>21.1</ele>
        <time>2021-05-22T07:10:42Z</time>
      </trkpt>
      <trkpt lat="42.4596940" lon="-8.6445880">
        <ele>21.0</ele>
        <time>2021-05-22T07:10:43Z</time>
      </trkpt>
      <trkpt lat="42.4597040" lon="-8.6445870">
        <ele>20.9</ele>
        <time>2021-05-22T07:10:44Z</time>
      </trkpt>
      <trkpt lat="42.4597140" lon="-8.6445870">
        <ele>20.9</ele>
        <time>2021-05-22T07:10:45Z</time>
      </trkpt>
      <trkpt lat="42.4597230" lon="-8.6445860">
        <ele>20.8</ele>
        <time>2021-05-22T07:10:46Z</time>
      </trkpt>
      <trkpt lat="42.4597350" lon="-8.6445890">
        <ele>20.7</ele>
        <time>2021-05-22T07:10:47Z</time>
      </trkpt>
      <trkpt lat="42.4597420" lon="-8.6445930">
        <ele>20.7</ele>
        <time>2021-05-22T07:10:48Z</time>
      </trkpt>
      <trkpt lat="42.4597510" lon="-8.6445910">
        <ele>20.6</ele>
        <time>2021-05-22T07:10:49Z</time>
      </trkpt>
      <trkpt lat="42.4597600" lon="-8.6446000">
        <ele>20.6</ele>
        <time>2021-05-22T07:10:50Z</time>
      </trkpt>
      <trkpt lat="42.4597670" lon="-8.6446050">
        <ele>20.5</ele>
        <time>2021-05-22T07:10:51Z</time>
      </trkpt>
      <trkpt lat="42.4597750" lon="-8.6446120">
        <ele>20.5</ele>
        <time>2021-05-22T07:10:52Z</time>
      </trkpt>
      <trkpt lat="42.4597860" lon="-8.6446150">
        <ele>20.4</ele>
        <time>2021-05-22T07:10:53Z</time>
      </trkpt>
      <trkpt lat="42.4598000" lon="-8.6446260">
        <ele>20.3</ele>
        <time>2021-05-22T07:10:54Z</time>
      </trkpt>
      <trkpt lat="42.4598220" lon="-8.6446390">
        <ele>20.1</ele>
        <time>2021-05-22T07:10:55Z</time>
      </trkpt>
      <trkpt lat="42.4598290" lon="-8.6446430">
        <ele>20.1</ele>
        <time>2021-05-22T07:10:56Z</time>
      </trkpt>
      <trkpt lat="42.4598350" lon="-8.6446470">
        <ele>20.1</ele>
        <time>2021-05-22T07:10:57Z</time>
      </trkpt>
      <trkpt lat="42.4598430" lon="-8.6446360">
        <ele>20.0</ele>
        <time>2021-05-22T07:10:58Z</time>
      </trkpt>
      <trkpt lat="42.4598550" lon="-8.6446470">
        <ele>19.9</ele>
        <time>2021-05-22T07:10:59Z</time>
      </trkpt>
      <trkpt lat="42.4598670" lon="-8.6446520">
        <ele>19.8</ele>
        <time>2021-05-22T07:11:00Z</time>
      </trkpt>
      <trkpt lat="42.4598840" lon="-8.6446490">
        <ele>19.7</ele>
        <time>2021-05-22T07:11:01Z</time>
      </trkpt>
      <trkpt lat="42.4598950" lon="-8.6446470">
        <ele>19.7</ele>
        <time>2021-05-22T07:11:02Z</time>
      </trkpt>
      <trkpt lat="42.4599050" lon="-8.6446440">
        <ele>19.6</ele>
        <time>2021-05-22T07:11:03Z</time>
      </trkpt>
      <trkpt lat="42.4599230" lon="-8.6446580">
        <ele>19.5</ele>
        <time>2021-05-22T07:11:04Z</time>
      </trkpt>
      <trkpt lat="42.4599310" lon="-8.6446630">
        <ele>19.5</ele>
        <time>2021-05-22T07:11:05Z</time>
      </trkpt>
      <trkpt lat="42.4599380" lon="-8.6446680">
        <ele>19.4</ele>
        <time>2021-05-22T07:11:06Z</time>
      </trkpt>
      <trkpt lat="42.4599590" lon="-8.6446810">
        <ele>19.3</ele>
        <time>2021-05-22T07:11:07Z</time>
      </trkpt>
      <trkpt lat="42.4599700" lon="-8.6446810">
        <ele>19.2</ele>
        <time>2021-05-22T07:11:08Z</time>
      </trkpt>
      <trkpt lat="42.4599800" lon="-8.6446810">
        <ele>19.2</ele>
        <time>2021-05-22T07:11:09Z</time>
      </trkpt>
      <trkpt lat="42.4600010" lon="-8.6446870">
        <ele>19.0</ele>
        <time>2021-05-22T07:11:10Z</time>
      </trkpt>
      <trkpt lat="42.4600100" lon="-8.6446900">
        <ele>19.0</ele>
        <time>2021-05-22T07:11:11Z</time>
      </trkpt>
      <trkpt lat="42.4600180" lon="-8.6446930">
        <ele>19.0</ele>
        <time>2021-05-22T07:11:12Z</time>
      </trkpt>
      <trkpt lat="42.4600360" lon="-8.6446970">
        <ele>18.9</ele>
        <time>2021-05-22T07:11:13Z</time>
      </trkpt>
      <trkpt lat="42.4600420" lon="-8.6447010">
        <ele>18.8</ele>
        <time>2021-05-22T07:11:14Z</time>
      </trkpt>
      <trkpt lat="42.4600490" lon="-8.6447050">
        <ele>18.8</ele>
        <time>2021-05-22T07:11:15Z</time>
      </trkpt>
      <trkpt lat="42.4600550" lon="-8.6447090">
        <ele>18.7</ele>
        <time>2021-05-22T07:11:16Z</time>
      </trkpt>
      <trkpt lat="42.4600640" lon="-8.6447080">
        <ele>18.7</ele>
        <time>2021-05-22T07:11:17Z</time>
      </trkpt>
      <trkpt lat="42.4600790" lon="-8.6447110">
        <ele>18.6</ele>
        <time>2021-05-22T07:11:18Z</time>
      </trkpt>
      <trkpt lat="42.4600880" lon="-8.6447210">
        <ele>18.6</ele>
        <time>2021-05-22T07:11:19Z</time>
      </trkpt>
      <trkpt lat="42.4600990" lon="-8.6447250">
        <ele>18.5</ele>
        <time>2021-05-22T07:11:20Z</time>
      </trkpt>
      <trkpt lat="42.4601150" lon="-8.6447310">
        <ele>18.4</ele>
        <time>2021-05-22T07:11:21Z</time>
      </trkpt>
      <trkpt lat="42.4601260" lon="-8.6447320">
        <ele>18.4</ele>
        <time>2021-05-22T07:11:22Z</time>
      </trkpt>
      <trkpt lat="42.4601430" lon="-8.6447410">
        <ele>18.3</ele>
        <time>2021-05-22T07:11:23Z</time>
      </trkpt>
      <trkpt lat="42.4601600" lon="-8.6447510">
        <ele>18.2</ele>
        <time>2021-05-22T07:11:24Z</time>
      </trkpt>
      <trkpt lat="42.4601690" lon="-8.6447460">
        <ele>18.2</ele>
        <time>2021-05-22T07:11:25Z</time>
      </trkpt>
      <trkpt lat="42.4601790" lon="-8.6447400">
        <ele>18.1</ele>
        <time>2021-05-22T07:11:26Z</time>
      </trkpt>
      <trkpt lat="42.4602000" lon="-8.6447460">
        <ele>18.0</ele>
        <time>2021-05-22T07:11:27Z</time>
      </trkpt>
      <trkpt lat="42.4602140" lon="-8.6447500">
        <ele>18.0</ele>
        <time>2021-05-22T07:11:28Z</time>
      </trkpt>
      <trkpt lat="42.4602390" lon="-8.6447430">
        <ele>17.8</ele>
        <time>2021-05-22T07:11:29Z</time>
      </trkpt>
      <trkpt lat="42.4602460" lon="-8.6447410">
        <ele>17.8</ele>
        <time>2021-05-22T07:11:30Z</time>
      </trkpt>
      <trkpt lat="42.4602540" lon="-8.6447390">
        <ele>17.8</ele>
        <time>2021-05-22T07:11:31Z</time>
      </trkpt>
      <trkpt lat="42.4602750" lon="-8.6447380">
        <ele>17.7</ele>
        <time>2021-05-22T07:11:32Z</time>
      </trkpt>
      <trkpt lat="42.4602890" lon="-8.6447340">
        <ele>17.6</ele>
        <time>2021-05-22T07:11:33Z</time>
      </trkpt>
      <trkpt lat="42.4603020" lon="-8.6447380">
        <ele>17.6</ele>
        <time>2021-05-22T07:11:34Z</time>
      </trkpt>
      <trkpt lat="42.4603130" lon="-8.6447390">
        <ele>17.5</ele>
        <time>2021-05-22T07:11:35Z</time>
      </trkpt>
      <trkpt lat="42.4603240" lon="-8.6447400">
        <ele>17.5</ele>
        <time>2021-05-22T07:11:36Z</time>
      </trkpt>
      <trkpt lat="42.4603400" lon="-8.6447400">
        <ele>17.4</ele>
        <time>2021-05-22T07:11:37Z</time>
      </trkpt>
      <trkpt lat="42.4603580" lon="-8.6447380">
        <ele>17.4</ele>
        <time>2021-05-22T07:11:38Z</time>
      </trkpt>
      <trkpt lat="42.4603810" lon="-8.6447330">
        <ele>17.3</ele>
        <time>2021-05-22T07:11:39Z</time>
      </trkpt>
      <trkpt lat="42.4603910" lon="-8.6447350">
        <ele>17.2</ele>
        <time>2021-05-22T07:11:40Z</time>
      </trkpt>
      <trkpt lat="42.4604000" lon="-8.6447370">
        <ele>17.2</ele>
        <time>2021-05-22T07:11:41Z</time>
      </trkpt>
      <trkpt lat="42.4604080" lon="-8.6447340">
        <ele>17.1</ele>
        <time>2021-05-22T07:11:42Z</time>
      </trkpt>
      <trkpt lat="42.4604160" lon="-8.6447320">
        <ele>17.1</ele>
        <time>2021-05-22T07:11:43Z</time>
      </trkpt>
      <trkpt lat="42.4604340" lon="-8.6447390">
        <ele>17.0</ele>
        <time>2021-05-22T07:11:44Z</time>
      </trkpt>
      <trkpt lat="42.4604490" lon="-8.6447340">
        <ele>17.0</ele>
        <time>2021-05-22T07:11:45Z</time>
      </trkpt>
      <trkpt lat="42.4604570" lon="-8.6447310">
        <ele>16.9</ele>
        <time>2021-05-22T07:11:46Z</time>
      </trkpt>
      <trkpt lat="42.4604650" lon="-8.6447290">
        <ele>16.9</ele>
        <time>2021-05-22T07:11:47Z</time>
      </trkpt>
      <trkpt lat="42.4604730" lon="-8.6447260">
        <ele>16.9</ele>
        <time>2021-05-22T07:11:48Z</time>
      </trkpt>
      <trkpt lat="42.4604870" lon="-8.6447270">
        <ele>16.8</ele>
        <time>2021-05-22T07:11:49Z</time>
      </trkpt>
      <trkpt lat="42.4604960" lon="-8.6447290">
        <ele>16.8</ele>
        <time>2021-05-22T07:11:50Z</time>
      </trkpt>
      <trkpt lat="42.4605020" lon="-8.6447340">
        <ele>16.8</ele>
        <time>2021-05-22T07:11:51Z</time>
      </trkpt>
      <trkpt lat="42.4605230" lon="-8.6447350">
        <ele>16.7</ele>
        <time>2021-05-22T07:11:52Z</time>
      </trkpt>
      <trkpt lat="42.4605310" lon="-8.6447320">
        <ele>16.6</ele>
        <time>2021-05-22T07:11:53Z</time>
      </trkpt>
      <trkpt lat="42.4605400" lon="-8.6447300">
        <ele>16.6</ele>
        <time>2021-05-22T07:11:54Z</time>
      </trkpt>
      <trkpt lat="42.4605580" lon="-8.6447250">
        <ele>16.5</ele>
        <time>2021-05-22T07:11:55Z</time>
      </trkpt>
      <trkpt lat="42.4605720" lon="-8.6447310">
        <ele>16.5</ele>
        <time>2021-05-22T07:11:56Z</time>
      </trkpt>
      <trkpt lat="42.4605860" lon="-8.6447290">
        <ele>16.4</ele>
        <time>2021-05-22T07:11:57Z</time>
      </trkpt>
      <trkpt lat="42.4605900" lon="-8.6447270">
        <ele>16.4</ele>
        <time>2021-05-22T07:11:58Z</time>
      </trkpt>
      <trkpt lat="42.4605970" lon="-8.6447300">
        <ele>16.4</ele>
        <time>2021-05-22T07:11:59Z</time>
      </trkpt>
      <trkpt lat="42.4606030" lon="-8.6447320">
        <ele>16.4</ele>
        <time>2021-05-22T07:12:00Z</time>
      </trkpt>
      <trkpt lat="42.4606250" lon="-8.6447280">
        <ele>16.3</ele>
        <time>2021-05-22T07:12:01Z</time>
      </trkpt>
      <trkpt lat="42.4606330" lon="-8.6447250">
        <ele>16.2</ele>
        <time>2021-05-22T07:12:02Z</time>
      </trkpt>
      <trkpt lat="42.4606410" lon="-8.6447220">
        <ele>16.2</ele>
        <time>2021-05-22T07:12:03Z</time>
      </trkpt>
      <trkpt lat="42.4606500" lon="-8.6447220">
        <ele>16.2</ele>
        <time>2021-05-22T07:12:04Z</time>
      </trkpt>
      <trkpt lat="42.4606620" lon="-8.6447230">
        <ele>16.1</ele>
        <time>2021-05-22T07:12:05Z</time>
      </trkpt>
      <trkpt lat="42.4606730" lon="-8.6447230">
        <ele>16.1</ele>
        <time>2021-05-22T07:12:06Z</time>
      </trkpt>
      <trkpt lat="42.4606860" lon="-8.6447050">
        <ele>16.0</ele>
        <time>2021-05-22T07:12:07Z</time>
      </trkpt>
      <trkpt lat="42.4606930" lon="-8.6447000">
        <ele>16.0</ele>
        <time>2021-05-22T07:12:08Z</time>
      </trkpt>
      <trkpt lat="42.4607010" lon="-8.6446960">
        <ele>16.0</ele>
        <time>2021-05-22T07:12:09Z</time>
      </trkpt>
      <trkpt lat="42.4607080" lon="-8.6446910">
        <ele>15.9</ele>
        <time>2021-05-22T07:12:10Z</time>
      </trkpt>
      <trkpt lat="42.4607220" lon="-8.6446940">
        <ele>15.9</ele>
        <time>2021-05-22T07:12:11Z</time>
      </trkpt>
      <trkpt lat="42.4607400" lon="-8.6446750">
        <ele>15.8</ele>
        <time>2021-05-22T07:12:12Z</time>
      </trkpt>
      <trkpt lat="42.4607580" lon="-8.6446610">
        <ele>15.7</ele>
        <time>2021-05-22T07:12:13Z</time>
      </trkpt>
      <trkpt lat="42.4607660" lon="-8.6446570">
        <ele>15.7</ele>
        <time>2021-05-22T07:12:14Z</time>
      </trkpt>
      <trkpt lat="42.4607750" lon="-8.6446520">
        <ele>15.7</ele>
        <time>2021-05-22T07:12:15Z</time>
      </trkpt>
      <trkpt lat="42.4607910" lon="-8.6446310">
        <ele>15.6</ele>
        <time>2021-05-22T07:12:16Z</time>
      </trkpt>
      <trkpt lat="42.4607960" lon="-8.6446190">
        <ele>15.6</ele>
        <time>2021-05-22T07:12:17Z</time>
      </trkpt>
      <trkpt lat="42.4608040" lon="-8.6446030">
        <ele>15.6</ele>
        <time>2021-05-22T07:12:18Z</time>
      </trkpt>
      <trkpt lat="42.4608230" lon="-8.6445950">
        <ele>15.6</ele>
        <time>2021-05-22T07:12:19Z</time>
      </trkpt>
      <trkpt lat="42.4608250" lon="-8.6445930">
        <ele>15.6</ele>
        <time>2021-05-22T07:12:20Z</time>
      </trkpt>
      <trkpt lat="42.4608390" lon="-8.6445810">
        <ele>15.5</ele>
        <time>2021-05-22T07:12:21Z</time>
      </trkpt>
      <trkpt lat="42.4608520" lon="-8.6445660">
        <ele>15.5</ele>
        <time>2021-05-22T07:12:22Z</time>
      </trkpt>
      <trkpt lat="42.4608690" lon="-8.6445480">
        <ele>15.5</ele>
        <time>2021-05-22T07:12:23Z</time>
      </trkpt>
      <trkpt lat="42.4608780" lon="-8.6445390">
        <ele>15.5</ele>
        <time>2021-05-22T07:12:24Z</time>
      </trkpt>
      <trkpt lat="42.4608860" lon="-8.6445290">
        <ele>15.5</ele>
        <time>2021-05-22T07:12:25Z</time>
      </trkpt>
      <trkpt lat="42.4609070" lon="-8.6445090">
        <ele>15.5</ele>
        <time>2021-05-22T07:12:26Z</time>
      </trkpt>
      <trkpt lat="42.4609150" lon="-8.6445020">
        <ele>15.4</ele>
        <time>2021-05-22T07:12:27Z</time>
      </trkpt>
      <trkpt lat="42.4609240" lon="-8.6444960">
        <ele>15.4</ele>
        <time>2021-05-22T07:12:28Z</time>
      </trkpt>
      <trkpt lat="42.4609340" lon="-8.6444690">
        <ele>15.4</ele>
        <time>2021-05-22T07:12:29Z</time>
      </trkpt>
      <trkpt lat="42.4609410" lon="-8.6444620">
        <ele>15.4</ele>
        <time>2021-05-22T07:12:30Z</time>
      </trkpt>
      <trkpt lat="42.4609490" lon="-8.6444570">
        <ele>15.4</ele>
        <time>2021-05-22T07:12:31Z</time>
      </trkpt>
      <trkpt lat="42.4609570" lon="-8.6444460">
        <ele>15.4</ele>
        <time>2021-05-22T07:12:32Z</time>
      </trkpt>
      <trkpt lat="42.4609700" lon="-8.6444430">
        <ele>15.4</ele>
        <time>2021-05-22T07:12:33Z</time>
      </trkpt>
      <trkpt lat="42.4610040" lon="-8.6444260">
        <ele>15.4</ele>
        <time>2021-05-22T07:12:34Z</time>
      </trkpt>
      <trkpt lat="42.4610130" lon="-8.6444180">
        <ele>15.4</ele>
        <time>2021-05-22T07:12:35Z</time>
      </trkpt>
      <trkpt lat="42.4610310" lon="-8.6444030">
        <ele>15.4</ele>
        <time>2021-05-22T07:12:36Z</time>
      </trkpt>
      <trkpt lat="42.4610350" lon="-8.6443940">
        <ele>15.5</ele>
        <time>2021-05-22T07:12:37Z</time>
      </trkpt>
      <trkpt lat="42.4610400" lon="-8.6443850">
        <ele>15.5</ele>
        <time>2021-05-22T07:12:38Z</time>
      </trkpt>
      <trkpt lat="42.4610550" lon="-8.6443730">
        <ele>15.5</ele>
        <time>2021-05-22T07:12:39Z</time>
      </trkpt>
      <trkpt lat="42.4610640" lon="-8.6443620">
        <ele>15.5</ele>
        <time>2021-05-22T07:12:40Z</time>
      </trkpt>
      <trkpt lat="42.4610840" lon="-8.6443420">
        <ele>15.5</ele>
        <time>2021-05-22T07:12:41Z</time>
      </trkpt>
      <trkpt lat="42.4610890" lon="-8.6443360">
        <ele>15.5</ele>
        <time>2021-05-22T07:12:42Z</time>
      </trkpt>
      <trkpt lat="42.4610940" lon="-8.6443290">
        <ele>15.5</ele>
        <time>2021-05-22T07:12:43Z</time>
      </trkpt>
      <trkpt lat="42.4611050" lon="-8.6443210">
        <ele>15.6</ele>
        <time>2021-05-22T07:12:44Z</time>
      </trkpt>
      <trkpt lat="42.4611120" lon="-8.6443170">
        <ele>15.6</ele>
        <time>2021-05-22T07:12:45Z</time>
      </trkpt>
      <trkpt lat="42.4611270" lon="-8.6443120">
        <ele>15.6</ele>
        <time>2021-05-22T07:12:46Z</time>
      </trkpt>
      <trkpt lat="42.4611410" lon="-8.6443020">
        <ele>15.6</ele>
        <time>2021-05-22T07:12:47Z</time>
      </trkpt>
      <trkpt lat="42.4611510" lon="-8.6442950">
        <ele>15.6</ele>
        <time>2021-05-22T07:12:48Z</time>
      </trkpt>
      <trkpt lat="42.4611640" lon="-8.6442840">
        <ele>15.7</ele>
        <time>2021-05-22T07:12:49Z</time>
      </trkpt>
      <trkpt lat="42.4611670" lon="-8.6442750">
        <ele>15.7</ele>
        <time>2021-05-22T07:12:50Z</time>
      </trkpt>
      <trkpt lat="42.4611760" lon="-8.6442680">
        <ele>15.7</ele>
        <time>2021-05-22T07:12:51Z</time>
      </trkpt>
      <trkpt lat="42.4611900" lon="-8.6442560">
        <ele>15.7</ele>
        <time>2021-05-22T07:12:52Z</time>
      </trkpt>
      <trkpt lat="42.4612010" lon="-8.6442510">
        <ele>15.7</ele>
        <time>2021-05-22T07:12:53Z</time>
      </trkpt>
      <trkpt lat="42.4612140" lon="-8.6442460">
        <ele>15.8</ele>
        <time>2021-05-22T07:12:54Z</time>
      </trkpt>
      <trkpt lat="42.4612280" lon="-8.6442390">
        <ele>15.8</ele>
        <time>2021-05-22T07:12:55Z</time>
      </trkpt>
      <trkpt lat="42.4612480" lon="-8.6442270">
        <ele>15.8</ele>
        <time>2021-05-22T07:12:56Z</time>
      </trkpt>
      <trkpt lat="42.4612550" lon="-8.6442240">
        <ele>15.8</ele>
        <time>2021-05-22T07:12:57Z</time>
      </trkpt>
      <trkpt lat="42.4612630" lon="-8.6442200">
        <ele>15.8</ele>
        <time>2021-05-22T07:12:58Z</time>
      </trkpt>
      <trkpt lat="42.4612680" lon="-8.6442120">
        <ele>15.9</ele>
        <time>2021-05-22T07:12:59Z</time>
      </trkpt>
      <trkpt lat="42.4612780" lon="-8.6442120">
        <ele>15.9</ele>
        <time>2021-05-22T07:13:00Z</time>
      </trkpt>
      <trkpt lat="42.4612970" lon="-8.6442100">
        <ele>15.9</ele>
        <time>2021-05-22T07:13:01Z</time>
      </trkpt>
      <trkpt lat="42.4613160" lon="-8.6442010">
        <ele>16.0</ele>
        <time>2021-05-22T07:13:02Z</time>
      </trkpt>
      <trkpt lat="42.4613260" lon="-8.6441920">
        <ele>16.0</ele>
        <time>2021-05-22T07:13:03Z</time>
      </trkpt>
      <trkpt lat="42.4613460" lon="-8.6441840">
        <ele>16.1</ele>
        <time>2021-05-22T07:13:04Z</time>
      </trkpt>
      <trkpt lat="42.4613540" lon="-8.6441790">
        <ele>16.1</ele>
        <time>2021-05-22T07:13:05Z</time>
      </trkpt>
      <trkpt lat="42.4613630" lon="-8.6441740">
        <ele>16.1</ele>
        <time>2021-05-22T07:13:06Z</time>
      </trkpt>
      <trkpt lat="42.4613690" lon="-8.6441680">
        <ele>16.2</ele>
        <time>2021-05-22T07:13:07Z</time>
      </trkpt>
      <trkpt lat="42.4613840" lon="-8.6441650">
        <ele>16.2</ele>
        <time>2021-05-22T07:13:08Z</time>
      </trkpt>
      <trkpt lat="42.4613960" lon="-8.6441610">
        <ele>16.2</ele>
        <time>2021-05-22T07:13:09Z</time>
      </trkpt>
      <trkpt lat="42.4614080" lon="-8.6441540">
        <ele>16.3</ele>
        <time>2021-05-22T07:13:10Z</time>
      </trkpt>
      <trkpt lat="42.4614210" lon="-8.6441440">
        <ele>16.4</ele>
        <time>2021-05-22T07:13:11Z</time>
      </trkpt>
      <trkpt lat="42.4614400" lon="-8.6441370">
        <ele>16.5</ele>
        <time>2021-05-22T07:13:12Z</time>
      </trkpt>
      <trkpt lat="42.4614490" lon="-8.6441330">
        <ele>16.5</ele>
        <time>2021-05-22T07:13:13Z</time>
      </trkpt>
      <trkpt lat="42.4614590" lon="-8.6441280">
        <ele>16.6</ele>
        <time>2021-05-22T07:13:14Z</time>
      </trkpt>
      <trkpt lat="42.4614710" lon="-8.6441210">
        <ele>16.6</ele>
        <time>2021-05-22T07:13:15Z</time>
      </trkpt>
      <trkpt lat="42.4614850" lon="-8.6441140">
        <ele>16.7</ele>
        <time>2021-05-22T07:13:16Z</time>
      </trkpt>
      <trkpt lat="42.4615050" lon="-8.6441050">
        <ele>16.8</ele>
        <time>2021-05-22T07:13:17Z</time>
      </trkpt>
      <trkpt lat="42.4615130" lon="-8.6441000">
        <ele>16.9</ele>
        <time>2021-05-22T07:13:18Z</time>
      </trkpt>
      <trkpt lat="42.4615210" lon="-8.6440940">
        <ele>16.9</ele>
        <time>2021-05-22T07:13:19Z</time>
      </trkpt>
      <trkpt lat="42.4615260" lon="-8.6440890">
        <ele>17.0</ele>
        <time>2021-05-22T07:13:20Z</time>
      </trkpt>
      <trkpt lat="42.4615430" lon="-8.6440890">
        <ele>17.1</ele>
        <time>2021-05-22T07:13:21Z</time>
      </trkpt>
      <trkpt lat="42.4615420" lon="-8.6440880">
        <ele>17.1</ele>
        <time>2021-05-22T07:13:22Z</time>
      </trkpt>
      <trkpt lat="42.4615530" lon="-8.6440900">
        <ele>17.2</ele>
        <time>2021-05-22T07:13:23Z</time>
      </trkpt>
      <trkpt lat="42.4615640" lon="-8.6440830">
        <ele>17.2</ele>
        <time>2021-05-22T07:13:24Z</time>
      </trkpt>
      <trkpt lat="42.4615780" lon="-8.6440700">
        <ele>17.4</ele>
        <time>2021-05-22T07:13:25Z</time>
      </trkpt>
      <trkpt lat="42.4615970" lon="-8.6440590">
        <ele>17.5</ele>
        <time>2021-05-22T07:13:26Z</time>
      </trkpt>
      <trkpt lat="42.4616050" lon="-8.6440550">
        <ele>17.6</ele>
        <time>2021-05-22T07:13:27Z</time>
      </trkpt>
      <trkpt lat="42.4616140" lon="-8.6440500">
        <ele>17.7</ele>
        <time>2021-05-22T07:13:28Z</time>
      </trkpt>
      <trkpt lat="42.4616230" lon="-8.6440450">
        <ele>17.7</ele>
        <time>2021-05-22T07:13:29Z</time>
      </trkpt>
      <trkpt lat="42.4616350" lon="-8.6440370">
        <ele>17.8</ele>
        <time>2021-05-22T07:13:30Z</time>
      </trkpt>
      <trkpt lat="42.4616440" lon="-8.6440350">
        <ele>17.9</ele>
        <time>2021-05-22T07:13:31Z</time>
      </trkpt>
      <trkpt lat="42.4616620" lon="-8.6440290">
        <ele>18.0</ele>
        <time>2021-05-22T07:13:32Z</time>
      </trkpt>
      <trkpt lat="42.4616800" lon="-8.6440290">
        <ele>18.2</ele>
        <time>2021-05-22T07:13:33Z</time>
      </trkpt>
      <trkpt lat="42.4616910" lon="-8.6440250">
        <ele>18.3</ele>
        <time>2021-05-22T07:13:34Z</time>
      </trkpt>
      <trkpt lat="42.4616960" lon="-8.6440180">
        <ele>18.3</ele>
        <time>2021-05-22T07:13:35Z</time>
      </trkpt>
      <trkpt lat="42.4617140" lon="-8.6440160">
        <ele>18.4</ele>
        <time>2021-05-22T07:13:36Z</time>
      </trkpt>
      <trkpt lat="42.4617300" lon="-8.6440150">
        <ele>18.6</ele>
        <time>2021-05-22T07:13:37Z</time>
      </trkpt>
      <trkpt lat="42.4617350" lon="-8.6440090">
        <ele>18.6</ele>
        <time>2021-05-22T07:13:38Z</time>
      </trkpt>
      <trkpt lat="42.4617460" lon="-8.6440030">
        <ele>18.7</ele>
        <time>2021-05-22T07:13:39Z</time>
      </trkpt>
      <trkpt lat="42.4617480" lon="-8.6440080">
        <ele>18.7</ele>
        <time>2021-05-22T07:13:40Z</time>
      </trkpt>
      <trkpt lat="42.4617540" lon="-8.6440070">
        <ele>18.8</ele>
        <time>2021-05-22T07:13:41Z</time>
      </trkpt>
      <trkpt lat="42.4617630" lon="-8.6440100">
        <ele>18.8</ele>
        <time>2021-05-22T07:13:42Z</time>
      </trkpt>
      <trkpt lat="42.4617760" lon="-8.6440130">
        <ele>18.9</ele>
        <time>2021-05-22T07:13:43Z</time>
      </trkpt>
      <trkpt lat="42.4617930" lon="-8.6440280">
        <ele>19.1</ele>
        <time>2021-05-22T07:13:44Z</time>
      </trkpt>
      <trkpt lat="42.4618000" lon="-8.6440350">
        <ele>19.2</ele>
        <time>2021-05-22T07:13:45Z</time>
      </trkpt>
      <trkpt lat="42.4618070" lon="-8.6440410">
        <ele>19.2</ele>
        <time>2021-05-22T07:13:46Z</time>
      </trkpt>
      <trkpt lat="42.4618310" lon="-8.6440610">
        <ele>19.4</ele>
        <time>2021-05-22T07:13:47Z</time>
      </trkpt>
      <trkpt lat="42.4618380" lon="-8.6440680">
        <ele>19.5</ele>
        <time>2021-05-22T07:13:48Z</time>
      </trkpt>
      <trkpt lat="42.4618580" lon="-8.6440720">
        <ele>19.7</ele>
        <time>2021-05-22T07:13:49Z</time>
      </trkpt>
      <trkpt lat="42.4618720" lon="-8.6440730">
        <ele>19.8</ele>
        <time>2021-05-22T07:13:50Z</time>
      </trkpt>
      <trkpt lat="42.4618790" lon="-8.6440750">
        <ele>19.8</ele>
        <time>2021-05-22T07:13:51Z</time>
      </trkpt>
      <trkpt lat="42.4618910" lon="-8.6440850">
        <ele>20.0</ele>
        <time>2021-05-22T07:13:52Z</time>
      </trkpt>
      <trkpt lat="42.4619010" lon="-8.6440990">
        <ele>20.1</ele>
        <time>2021-05-22T07:13:53Z</time>
      </trkpt>
      <trkpt lat="42.4619090" lon="-8.6441120">
        <ele>20.2</ele>
        <time>2021-05-22T07:13:54Z</time>
      </trkpt>
      <trkpt lat="42.4619140" lon="-8.6441190">
        <ele>20.2</ele>
        <time>2021-05-22T07:13:55Z</time>
      </trkpt>
      <trkpt lat="42.4619190" lon="-8.6441290">
        <ele>20.3</ele>
        <time>2021-05-22T07:13:56Z</time>
      </trkpt>
      <trkpt lat="42.4619300" lon="-8.6441450">
        <ele>20.4</ele>
        <time>2021-05-22T07:13:57Z</time>
      </trkpt>
      <trkpt lat="42.4619360" lon="-8.6441510">
        <ele>20.5</ele>
        <time>2021-05-22T07:13:58Z</time>
      </trkpt>
      <trkpt lat="42.4619430" lon="-8.6441570">
        <ele>20.6</ele>
        <time>2021-05-22T07:13:59Z</time>
      </trkpt>
      <trkpt lat="42.4619490" lon="-8.6441630">
        <ele>20.7</ele>
        <time>2021-05-22T07:14:00Z</time>
      </trkpt>
      <trkpt lat="42.4619580" lon="-8.6441720">
        <ele>20.8</ele>
        <time>2021-05-22T07:14:01Z</time>
      </trkpt>
      <trkpt lat="42.4619710" lon="-8.6441860">
        <ele>20.9</ele>
        <time>2021-05-22T07:14:02Z</time>
      </trkpt>
      <trkpt lat="42.4619840" lon="-8.6441920">
        <ele>21.0</ele>
        <time>2021-05-22T07:14:03Z</time>
      </trkpt>
      <trkpt lat="42.4619940" lon="-8.6442010">
        <ele>21.1</ele>
        <time>2021-05-22T07:14:04Z</time>
      </trkpt>
      <trkpt lat="42.4619990" lon="-8.6442080">
        <ele>21.2</ele>
        <time>2021-05-22T07:14:05Z</time>
      </trkpt>
      <trkpt lat="42.4620130" lon="-8.6442140">
        <ele>21.3</ele>
        <time>2021-05-22T07:14:06Z</time>
      </trkpt>
      <trkpt lat="42.4620220" lon="-8.6442100">
        <ele>21.4</ele>
        <time>2021-05-22T07:14:07Z</time>
      </trkpt>
      <trkpt lat="42.4620350" lon="-8.6442160">
        <ele>21.6</ele>
        <time>2021-05-22T07:14:08Z</time>
      </trkpt>
      <trkpt lat="42.4620530" lon="-8.6442300">
        <ele>21.8</ele>
        <time>2021-05-22T07:14:09Z</time>
      </trkpt>
      <trkpt lat="42.4620600" lon="-8.6442370">
        <ele>21.8</ele>
        <time>2021-05-22T07:14:10Z</time>
      </trkpt>
      <trkpt lat="42.4620680" lon="-8.6442430">
        <ele>21.9</ele>
        <time>2021-05-22T07:14:11Z</time>
      </trkpt>
      <trkpt lat="42.4620770" lon="-8.6442470">
        <ele>22.0</ele>
        <time>2021-05-22T07:14:12Z</time>
      </trkpt>
      <trkpt lat="42.4620870" lon="-8.6442490">
        <ele>22.1</ele>
        <time>2021-05-22T07:14:13Z</time>
      </trkpt>
      <trkpt lat="42.4621010" lon="-8.6442560">
        <ele>22.3</ele>
        <time>2021-05-22T07:14:14Z</time>
      </trkpt>
      <trkpt lat="42.4621080" lon="-8.6442530">
        <ele>22.3</ele>
        <time>2021-05-22T07:14:15Z</time>
      </trkpt>
      <trkpt lat="42.4621170" lon="-8.6442610">
        <ele>22.4</ele>
        <time>2021-05-22T07:14:16Z</time>
      </trkpt>
      <trkpt lat="42.4621300" lon="-8.6442630">
        <ele>22.6</ele>
        <time>2021-05-22T07:14:17Z</time>
      </trkpt>
      <trkpt lat="42.4621430" lon="-8.6442680">
        <ele>22.7</ele>
        <time>2021-05-22T07:14:18Z</time>
      </trkpt>
      <trkpt lat="42.4621550" lon="-8.6442720">
        <ele>22.8</ele>
        <time>2021-05-22T07:14:19Z</time>
      </trkpt>
      <trkpt lat="42.4621620" lon="-8.6442780">
        <ele>22.9</ele>
        <time>2021-05-22T07:14:20Z</time>
      </trkpt>
      <trkpt lat="42.4621740" lon="-8.6442830">
        <ele>23.0</ele>
        <time>2021-05-22T07:14:21Z</time>
      </trkpt>
      <trkpt lat="42.4621860" lon="-8.6442900">
        <ele>23.2</ele>
        <time>2021-05-22T07:14:22Z</time>
      </trkpt>
      <trkpt lat="42.4621960" lon="-8.6442950">
        <ele>23.3</ele>
        <time>2021-05-22T07:14:23Z</time>
      </trkpt>
      <trkpt lat="42.4622080" lon="-8.6443010">
        <ele>23.4</ele>
        <time>2021-05-22T07:14:24Z</time>
      </trkpt>
      <trkpt lat="42.4622210" lon="-8.6443060">
        <ele>23.6</ele>
        <time>2021-05-22T07:14:25Z</time>
      </trkpt>
      <trkpt lat="42.4622280" lon="-8.6443050">
        <ele>23.6</ele>
        <time>2021-05-22T07:14:26Z</time>
      </trkpt>
      <trkpt lat="42.4622390" lon="-8.6443080">
        <ele>23.7</ele>
        <time>2021-05-22T07:14:27Z</time>
      </trkpt>
      <trkpt lat="42.4622510" lon="-8.6443080">
        <ele>23.9</ele>
        <time>2021-05-22T07:14:28Z</time>
      </trkpt>
      <trkpt lat="42.4622600" lon="-8.6443150">
        <ele>24.0</ele>
        <time>2021-05-22T07:14:29Z</time>
      </trkpt>
      <trkpt lat="42.4622700" lon="-8.6443190">
        <ele>24.1</ele>
        <time>2021-05-22T07:14:30Z</time>
      </trkpt>
      <trkpt lat="42.4622820" lon="-8.6443220">
        <ele>24.2</ele>
        <time>2021-05-22T07:14:31Z</time>
      </trkpt>
      <trkpt lat="42.4622880" lon="-8.6443240">
        <ele>24.2</ele>
        <time>2021-05-22T07:14:32Z</time>
      </trkpt>
      <trkpt lat="42.4623100" lon="-8.6443280">
        <ele>24.5</ele>
        <time>2021-05-22T07:14:33Z</time>
      </trkpt>
      <trkpt lat="42.4623200" lon="-8.6443310">
        <ele>24.6</ele>
        <time>2021-05-22T07:14:34Z</time>
      </trkpt>
      <trkpt lat="42.4623290" lon="-8.6443350">
        <ele>24.6</ele>
        <time>2021-05-22T07:14:35Z</time>
      </trkpt>
      <trkpt lat="42.4623390" lon="-8.6443340">
        <ele>24.7</ele>
        <time>2021-05-22T07:14:36Z</time>
      </trkpt>
      <trkpt lat="42.4623550" lon="-8.6443360">
        <ele>24.9</ele>
        <time>2021-05-22T07:14:37Z</time>
      </trkpt>
      <trkpt lat="42.4623620" lon="-8.6443370">
        <ele>25.0</ele>
        <time>2021-05-22T07:14:38Z</time>
      </trkpt>
      <trkpt lat="42.4623710" lon="-8.6443420">
        <ele>25.1</ele>
        <time>2021-05-22T07:14:39Z</time>
      </trkpt>
      <trkpt lat="42.4623820" lon="-8.6443450">
        <ele>25.2</ele>
        <time>2021-05-22T07:14:40Z</time>
      </trkpt>
      <trkpt lat="42.4623890" lon="-8.6443470">
        <ele>25.2</ele>
        <time>2021-05-22T07:14:41Z</time>
      </trkpt>
      <trkpt lat="42.4624010" lon="-8.6443540">
        <ele>25.3</ele>
        <time>2021-05-22T07:14:42Z</time>
      </trkpt>
      <trkpt lat="42.4624160" lon="-8.6443470">
        <ele>25.5</ele>
        <time>2021-05-22T07:14:43Z</time>
      </trkpt>
      <trkpt lat="42.4624250" lon="-8.6443440">
        <ele>25.6</ele>
        <time>2021-05-22T07:14:44Z</time>
      </trkpt>
      <trkpt lat="42.4624340" lon="-8.6443410">
        <ele>25.6</ele>
        <time>2021-05-22T07:14:45Z</time>
      </trkpt>
      <trkpt lat="42.4624450" lon="-8.6443460">
        <ele>25.8</ele>
        <time>2021-05-22T07:14:46Z</time>
      </trkpt>
      <trkpt lat="42.4624670" lon="-8.6443480">
        <ele>25.9</ele>
        <time>2021-05-22T07:14:47Z</time>
      </trkpt>
      <trkpt lat="42.4624760" lon="-8.6443480">
        <ele>26.0</ele>
        <time>2021-05-22T07:14:48Z</time>
      </trkpt>
      <trkpt lat="42.4624860" lon="-8.6443490">
        <ele>26.1</ele>
        <time>2021-05-22T07:14:49Z</time>
      </trkpt>
      <trkpt lat="42.4624990" lon="-8.6443430">
        <ele>26.2</ele>
        <time>2021-05-22T07:14:50Z</time>
      </trkpt>
      <trkpt lat="42.4625050" lon="-8.6443370">
        <ele>26.3</ele>
        <time>2021-05-22T07:14:51Z</time>
      </trkpt>
      <trkpt lat="42.4625200" lon="-8.6443360">
        <ele>26.4</ele>
        <time>2021-05-22T07:14:52Z</time>
      </trkpt>
      <trkpt lat="42.4625280" lon="-8.6443350">
        <ele>26.5</ele>
        <time>2021-05-22T07:14:53Z</time>
      </trkpt>
      <trkpt lat="42.4625440" lon="-8.6443360">
        <ele>26.6</ele>
        <time>2021-05-22T07:14:54Z</time>
      </trkpt>
      <trkpt lat="42.4625510" lon="-8.6443380">
        <ele>26.7</ele>
        <time>2021-05-22T07:14:55Z</time>
      </trkpt>
      <trkpt lat="42.4625600" lon="-8.6443330">
        <ele>26.8</ele>
        <time>2021-05-22T07:14:56Z</time>
      </trkpt>
      <trkpt lat="42.4625680" lon="-8.6443360">
        <ele>26.8</ele>
        <time>2021-05-22T07:14:57Z</time>
      </trkpt>
      <trkpt lat="42.4625820" lon="-8.6443420">
        <ele>26.9</ele>
        <time>2021-05-22T07:14:58Z</time>
      </trkpt>
      <trkpt lat="42.4626090" lon="-8.6443560">
        <ele>27.2</ele>
        <time>2021-05-22T07:14:59Z</time>
      </trkpt>
      <trkpt lat="42.4626170" lon="-8.6443630">
        <ele>27.3</ele>
        <time>2021-05-22T07:15:00Z</time>
      </trkpt>
      <trkpt lat="42.4626280" lon="-8.6443780">
        <ele>27.4</ele>
        <time>2021-05-22T07:15:01Z</time>
      </trkpt>
      <trkpt lat="42.4626430" lon="-8.6443860">
        <ele>27.5</ele>
        <time>2021-05-22T07:15:02Z</time>
      </trkpt>
      <trkpt lat="42.4626650" lon="-8.6443960">
        <ele>27.7</ele>
        <time>2021-05-22T07:15:03Z</time>
      </trkpt>
      <trkpt lat="42.4626740" lon="-8.6443960">
        <ele>27.8</ele>
        <time>2021-05-22T07:15:04Z</time>
      </trkpt>
      <trkpt lat="42.4626820" lon="-8.6443950">
        <ele>27.8</ele>
        <time>2021-05-22T07:15:05Z</time>
      </trkpt>
      <trkpt lat="42.4626970" lon="-8.6443970">
        <ele>27.9</ele>
        <time>2021-05-22T07:15:06Z</time>
      </trkpt>
      <trkpt lat="42.4627120" lon="-8.6443960">
        <ele>28.0</ele>
        <time>2021-05-22T07:15:07Z</time>
      </trkpt>
      <trkpt lat="42.4627220" lon="-8.6443980">
        <ele>28.1</ele>
        <time>2021-05-22T07:15:08Z</time>
      </trkpt>
      <trkpt lat="42.4627290" lon="-8.6443940">
        <ele>28.2</ele>
        <time>2021-05-22T07:15:09Z</time>
      </trkpt>
      <trkpt lat="42.4627390" lon="-8.6444000">
        <ele>28.2</ele>
        <time>2021-05-22T07:15:10Z</time>
      </trkpt>
      <trkpt lat="42.4627470" lon="-8.6444020">
        <ele>28.3</ele>
        <time>2021-05-22T07:15:11Z</time>
      </trkpt>
      <trkpt lat="42.4627590" lon="-8.6444040">
        <ele>28.4</ele>
        <time>2021-05-22T07:15:12Z</time>
      </trkpt>
      <trkpt lat="42.4627750" lon="-8.6444030">
        <ele>28.5</ele>
        <time>2021-05-22T07:15:13Z</time>
      </trkpt>
      <trkpt lat="42.4627830" lon="-8.6443990">
        <ele>28.6</ele>
        <time>2021-05-22T07:15:14Z</time>
      </trkpt>
      <trkpt lat="42.4627980" lon="-8.6444010">
        <ele>28.7</ele>
        <time>2021-05-22T07:15:15Z</time>
      </trkpt>
      <trkpt lat="42.4628100" lon="-8.6444060">
        <ele>28.7</ele>
        <time>2021-05-22T07:15:16Z</time>
      </trkpt>
      <trkpt lat="42.4628340" lon="-8.6444000">
        <ele>28.9</ele>
        <time>2021-05-22T07:15:17Z</time>
      </trkpt>
      <trkpt lat="42.4628430" lon="-8.6443980">
        <ele>29.0</ele>
        <time>2021-05-22T07:15:18Z</time>
      </trkpt>
      <trkpt lat="42.4628520" lon="-8.6443970">
        <ele>29.0</ele>
        <time>2021-05-22T07:15:19Z</time>
      </trkpt>
      <trkpt lat="42.4628640" lon="-8.6443970">
        <ele>29.1</ele>
        <time>2021-05-22T07:15:20Z</time>
      </trkpt>
      <trkpt lat="42.4628750" lon="-8.6443950">
        <ele>29.2</ele>
        <time>2021-05-22T07:15:21Z</time>
      </trkpt>
      <trkpt lat="42.4628810" lon="-8.6443920">
        <ele>29.2</ele>
        <time>2021-05-22T07:15:22Z</time>
      </trkpt>
      <trkpt lat="42.4628890" lon="-8.6443890">
        <ele>29.3</ele>
        <time>2021-05-22T07:15:23Z</time>
      </trkpt>
      <trkpt lat="42.4629010" lon="-8.6443940">
        <ele>29.4</ele>
        <time>2021-05-22T07:15:24Z</time>
      </trkpt>
      <trkpt lat="42.4628970" lon="-8.6443810">
        <ele>29.4</ele>
        <time>2021-05-22T07:15:25Z</time>
      </trkpt>
      <trkpt lat="42.4629070" lon="-8.6443760">
        <ele>29.5</ele>
        <time>2021-05-22T07:15:26Z</time>
      </trkpt>
      <trkpt lat="42.4629200" lon="-8.6443870">
        <ele>29.6</ele>
        <time>2021-05-22T07:15:27Z</time>
      </trkpt>
      <trkpt lat="42.4629300" lon="-8.6443830">
        <ele>29.7</ele>
        <time>2021-05-22T07:15:28Z</time>
      </trkpt>
      <trkpt lat="42.4629420" lon="-8.6443810">
        <ele>29.7</ele>
        <time>2021-05-22T07:15:29Z</time>
      </trkpt>
      <trkpt lat="42.4629630" lon="-8.6443790">
        <ele>29.9</ele>
        <time>2021-05-22T07:15:30Z</time>
      </trkpt>
      <trkpt lat="42.4629730" lon="-8.6443770">
        <ele>30.0</ele>
        <time>2021-05-22T07:15:31Z</time>
      </trkpt>
      <trkpt lat="42.4629820" lon="-8.6443740">
        <ele>30.0</ele>
        <time>2021-05-22T07:15:32Z</time>
      </trkpt>
      <trkpt lat="42.4630070" lon="-8.6443800">
        <ele>30.2</ele>
        <time>2021-05-22T07:15:33Z</time>
      </trkpt>
      <trkpt lat="42.4630150" lon="-8.6443820">
        <ele>30.2</ele>
        <time>2021-05-22T07:15:34Z</time>
      </trkpt>
      <trkpt lat="42.4630240" lon="-8.6443850">
        <ele>30.3</ele>
        <time>2021-05-22T07:15:35Z</time>
      </trkpt>
      <trkpt lat="42.4630370" lon="-8.6443830">
        <ele>30.4</ele>
        <time>2021-05-22T07:15:36Z</time>
      </trkpt>
      <trkpt lat="42.4630510" lon="-8.6443890">
        <ele>30.5</ele>
        <time>2021-05-22T07:15:37Z</time>
      </trkpt>
      <trkpt lat="42.4630600" lon="-8.6443800">
        <ele>30.6</ele>
        <time>2021-05-22T07:15:38Z</time>
      </trkpt>
      <trkpt lat="42.4630640" lon="-8.6443780">
        <ele>30.6</ele>
        <time>2021-05-22T07:15:39Z</time>
      </trkpt>
      <trkpt lat="42.4630830" lon="-8.6443750">
        <ele>30.8</ele>
        <time>2021-05-22T07:15:40Z</time>
      </trkpt>
      <trkpt lat="42.4630910" lon="-8.6443710">
        <ele>30.8</ele>
        <time>2021-05-22T07:15:41Z</time>
      </trkpt>
      <trkpt lat="42.4631010" lon="-8.6443700">
        <ele>30.9</ele>
        <time>2021-05-22T07:15:42Z</time>
      </trkpt>
      <trkpt lat="42.4631120" lon="-8.6443760">
        <ele>31.0</ele>
        <time>2021-05-22T07:15:43Z</time>
      </trkpt>
      <trkpt lat="42.4631350" lon="-8.6443830">
        <ele>31.2</ele>
        <time>2021-05-22T07:15:44Z</time>
      </trkpt>
      <trkpt lat="42.4631440" lon="-8.6443860">
        <ele>31.2</ele>
        <time>2021-05-22T07:15:45Z</time>
      </trkpt>
      <trkpt lat="42.4631530" lon="-8.6443880">
        <ele>31.3</ele>
        <time>2021-05-22T07:15:46Z</time>
      </trkpt>
      <trkpt lat="42.4631640" lon="-8.6443880">
        <ele>31.4</ele>
        <time>2021-05-22T07:15:47Z</time>
      </trkpt>
      <trkpt lat="42.4631760" lon="-8.6443870">
        <ele>31.5</ele>
        <time>2021-05-22T07:15:48Z</time>
      </trkpt>
      <trkpt lat="42.4631890" lon="-8.6443870">
        <ele>31.6</ele>
        <time>2021-05-22T07:15:49Z</time>
      </trkpt>
      <trkpt lat="42.4632020" lon="-8.6443850">
        <ele>31.7</ele>
        <time>2021-05-22T07:15:50Z</time>
      </trkpt>
      <trkpt lat="42.4632170" lon="-8.6443810">
        <ele>31.9</ele>
        <time>2021-05-22T07:15:51Z</time>
      </trkpt>
      <trkpt lat="42.4632300" lon="-8.6443780">
        <ele>32.0</ele>
        <time>2021-05-22T07:15:52Z</time>
      </trkpt>
      <trkpt lat="42.4632400" lon="-8.6443700">
        <ele>32.1</ele>
        <time>2021-05-22T07:15:53Z</time>
      </trkpt>
      <trkpt lat="42.4632460" lon="-8.6443650">
        <ele>32.2</ele>
        <time>2021-05-22T07:15:54Z</time>
      </trkpt>
      <trkpt lat="42.4632590" lon="-8.6443680">
        <ele>32.3</ele>
        <time>2021-05-22T07:15:55Z</time>
      </trkpt>
      <trkpt lat="42.4632740" lon="-8.6443870">
        <ele>32.5</ele>
        <time>2021-05-22T07:15:56Z</time>
      </trkpt>
      <trkpt lat="42.4632890" lon="-8.6443880">
        <ele>32.6</ele>
        <time>2021-05-22T07:15:57Z</time>
      </trkpt>
      <trkpt lat="42.4632970" lon="-8.6443850">
        <ele>32.7</ele>
        <time>2021-05-22T07:15:58Z</time>
      </trkpt>
      <trkpt lat="42.4633090" lon="-8.6443860">
        <ele>32.8</ele>
        <time>2021-05-22T07:15:59Z</time>
      </trkpt>
      <trkpt lat="42.4633250" lon="-8.6443840">
        <ele>33.0</ele>
        <time>2021-05-22T07:16:00Z</time>
      </trkpt>
      <trkpt lat="42.4633400" lon="-8.6443840">
        <ele>33.1</ele>
        <time>2021-05-22T07:16:01Z</time>
      </trkpt>
      <trkpt lat="42.4633500" lon="-8.6443830">
        <ele>33.2</ele>
        <time>2021-05-22T07:16:02Z</time>
      </trkpt>
      <trkpt lat="42.4633610" lon="-8.6443720">
        <ele>33.4</ele>
        <time>2021-05-22T07:16:03Z</time>
      </trkpt>
      <trkpt lat="42.4633740" lon="-8.6443660">
        <ele>33.5</ele>
        <time>2021-05-22T07:16:04Z</time>
      </trkpt>
      <trkpt lat="42.4633860" lon="-8.6443630">
        <ele>33.6</ele>
        <time>2021-05-22T07:16:05Z</time>
      </trkpt>
      <trkpt lat="42.4633960" lon="-8.6443640">
        <ele>33.7</ele>
        <time>2021-05-22T07:16:06Z</time>
      </trkpt>
      <trkpt lat="42.4634030" lon="-8.6443610">
        <ele>33.8</ele>
        <time>2021-05-22T07:16:07Z</time>
      </trkpt>
      <trkpt lat="42.4634100" lon="-8.6443590">
        <ele>33.9</ele>
        <time>2021-05-22T07:16:08Z</time>
      </trkpt>
      <trkpt lat="42.4634200" lon="-8.6443570">
        <ele>34.0</ele>
        <time>2021-05-22T07:16:09Z</time>
      </trkpt>
      <trkpt lat="42.4634330" lon="-8.6443520">
        <ele>34.1</ele>
        <time>2021-05-22T07:16:10Z</time>
      </trkpt>
      <trkpt lat="42.4634500" lon="-8.6443490">
        <ele>34.3</ele>
        <time>2021-05-22T07:16:11Z</time>
      </trkpt>
      <trkpt lat="42.4634670" lon="-8.6443480">
        <ele>34.4</ele>
        <time>2021-05-22T07:16:12Z</time>
      </trkpt>
      <trkpt lat="42.4634780" lon="-8.6443460">
        <ele>34.5</ele>
        <time>2021-05-22T07:16:13Z</time>
      </trkpt>
      <trkpt lat="42.4634870" lon="-8.6443400">
        <ele>34.6</ele>
        <time>2021-05-22T07:16:14Z</time>
      </trkpt>
      <trkpt lat="42.4635020" lon="-8.6443370">
        <ele>34.8</ele>
        <time>2021-05-22T07:16:15Z</time>
      </trkpt>
      <trkpt lat="42.4635150" lon="-8.6443350">
        <ele>34.9</ele>
        <time>2021-05-22T07:16:16Z</time>
      </trkpt>
      <trkpt lat="42.4635240" lon="-8.6443340">
        <ele>35.0</ele>
        <time>2021-05-22T07:16:17Z</time>
      </trkpt>
      <trkpt lat="42.4635320" lon="-8.6443320">
        <ele>35.0</ele>
        <time>2021-05-22T07:16:18Z</time>
      </trkpt>
      <trkpt lat="42.4635400" lon="-8.6443310">
        <ele>35.1</ele>
        <time>2021-05-22T07:16:19Z</time>
      </trkpt>
      <trkpt lat="42.4635490" lon="-8.6443310">
        <ele>35.2</ele>
        <time>2021-05-22T07:16:20Z</time>
      </trkpt>
      <trkpt lat="42.4635640" lon="-8.6443360">
        <ele>35.3</ele>
        <time>2021-05-22T07:16:21Z</time>
      </trkpt>
      <trkpt lat="42.4635730" lon="-8.6443370">
        <ele>35.4</ele>
        <time>2021-05-22T07:16:22Z</time>
      </trkpt>
      <trkpt lat="42.4635950" lon="-8.6443390">
        <ele>35.5</ele>
        <time>2021-05-22T07:16:23Z</time>
      </trkpt>
      <trkpt lat="42.4636030" lon="-8.6443420">
        <ele>35.6</ele>
        <time>2021-05-22T07:16:24Z</time>
      </trkpt>
      <trkpt lat="42.4636110" lon="-8.6443440">
        <ele>35.7</ele>
        <time>2021-05-22T07:16:25Z</time>
      </trkpt>
      <trkpt lat="42.4636150" lon="-8.6443470">
        <ele>35.7</ele>
        <time>2021-05-22T07:16:26Z</time>
      </trkpt>
      <trkpt lat="42.4636250" lon="-8.6443560">
        <ele>35.8</ele>
        <time>2021-05-22T07:16:27Z</time>
      </trkpt>
      <trkpt lat="42.4636360" lon="-8.6443650">
        <ele>35.9</ele>
        <time>2021-05-22T07:16:28Z</time>
      </trkpt>
      <trkpt lat="42.4636470" lon="-8.6443680">
        <ele>36.0</ele>
        <time>2021-05-22T07:16:29Z</time>
      </trkpt>
      <trkpt lat="42.4636550" lon="-8.6443720">
        <ele>36.0</ele>
        <time>2021-05-22T07:16:30Z</time>
      </trkpt>
      <trkpt lat="42.4636690" lon="-8.6443820">
        <ele>36.1</ele>
        <time>2021-05-22T07:16:31Z</time>
      </trkpt>
      <trkpt lat="42.4636800" lon="-8.6443870">
        <ele>36.2</ele>
        <time>2021-05-22T07:16:32Z</time>
      </trkpt>
      <trkpt lat="42.4636880" lon="-8.6443880">
        <ele>36.3</ele>
        <time>2021-05-22T07:16:33Z</time>
      </trkpt>
      <trkpt lat="42.4636990" lon="-8.6443950">
        <ele>36.3</ele>
        <time>2021-05-22T07:16:34Z</time>
      </trkpt>
      <trkpt lat="42.4637160" lon="-8.6444130">
        <ele>36.5</ele>
        <time>2021-05-22T07:16:35Z</time>
      </trkpt>
      <trkpt lat="42.4637230" lon="-8.6444180">
        <ele>36.6</ele>
        <time>2021-05-22T07:16:36Z</time>
      </trkpt>
      <trkpt lat="42.4637310" lon="-8.6444240">
        <ele>36.6</ele>
        <time>2021-05-22T07:16:37Z</time>
      </trkpt>
      <trkpt lat="42.4637400" lon="-8.6444370">
        <ele>36.7</ele>
        <time>2021-05-22T07:16:38Z</time>
      </trkpt>
      <trkpt lat="42.4637470" lon="-8.6444490">
        <ele>36.8</ele>
        <time>2021-05-22T07:16:39Z</time>
      </trkpt>
      <trkpt lat="42.4637480" lon="-8.6444570">
        <ele>36.8</ele>
        <time>2021-05-22T07:16:40Z</time>
      </trkpt>
      <trkpt lat="42.4637550" lon="-8.6444610">
        <ele>36.9</ele>
        <time>2021-05-22T07:16:41Z</time>
      </trkpt>
      <trkpt lat="42.4637670" lon="-8.6444580">
        <ele>37.0</ele>
        <time>2021-05-22T07:16:42Z</time>
      </trkpt>
      <trkpt lat="42.4637740" lon="-8.6444630">
        <ele>37.0</ele>
        <time>2021-05-22T07:16:43Z</time>
      </trkpt>
      <trkpt lat="42.4637820" lon="-8.6444720">
        <ele>37.1</ele>
        <time>2021-05-22T07:16:44Z</time>
      </trkpt>
      <trkpt lat="42.4637860" lon="-8.6444800">
        <ele>37.2</ele>
        <time>2021-05-22T07:16:45Z</time>
      </trkpt>
      <trkpt lat="42.4637890" lon="-8.6444820">
        <ele>37.2</ele>
        <time>2021-05-22T07:16:46Z</time>
      </trkpt>
      <trkpt lat="42.4637960" lon="-8.6444900">
        <ele>37.3</ele>
        <time>2021-05-22T07:16:47Z</time>
      </trkpt>
      <trkpt lat="42.4638060" lon="-8.6445000">
        <ele>37.4</ele>
        <time>2021-05-22T07:16:48Z</time>
      </trkpt>
      <trkpt lat="42.4638190" lon="-8.6445150">
        <ele>37.5</ele>
        <time>2021-05-22T07:16:49Z</time>
      </trkpt>
      <trkpt lat="42.4638270" lon="-8.6445310">
        <ele>37.6</ele>
        <time>2021-05-22T07:16:50Z</time>
      </trkpt>
      <trkpt lat="42.4638450" lon="-8.6445520">
        <ele>37.8</ele>
        <time>2021-05-22T07:16:51Z</time>
      </trkpt>
      <trkpt lat="42.4638520" lon="-8.6445590">
        <ele>37.8</ele>
        <time>2021-05-22T07:16:52Z</time>
      </trkpt>
      <trkpt lat="42.4638580" lon="-8.6445660">
        <ele>37.9</ele>
        <time>2021-05-22T07:16:53Z</time>
      </trkpt>
      <trkpt lat="42.4638730" lon="-8.6445810">
        <ele>38.0</ele>
        <time>2021-05-22T07:16:54Z</time>
      </trkpt>
      <trkpt lat="42.4638830" lon="-8.6445890">
        <ele>38.1</ele>
        <time>2021-05-22T07:16:55Z</time>
      </trkpt>
      <trkpt lat="42.4638920" lon="-8.6445960">
        <ele>38.1</ele>
        <time>2021-05-22T07:16:56Z</time>
      </trkpt>
      <trkpt lat="42.4639080" lon="-8.6446070">
        <ele>38.3</ele>
        <time>2021-05-22T07:16:57Z</time>
      </trkpt>
      <trkpt lat="42.4639160" lon="-8.6446160">
        <ele>38.3</ele>
        <time>2021-05-22T07:16:58Z</time>
      </trkpt>
      <trkpt lat="42.4639230" lon="-8.6446240">
        <ele>38.4</ele>
        <time>2021-05-22T07:16:59Z</time>
      </trkpt>
      <trkpt lat="42.4639300" lon="-8.6446330">
        <ele>38.4</ele>
        <time>2021-05-22T07:17:00Z</time>
      </trkpt>
      <trkpt lat="42.4639340" lon="-8.6446420">
        <ele>38.5</ele>
        <time>2021-05-22T07:17:01Z</time>
      </trkpt>
      <trkpt lat="42.4639410" lon="-8.6446430">
        <ele>38.5</ele>
        <time>2021-05-22T07:17:02Z</time>
      </trkpt>
      <trkpt lat="42.4639480" lon="-8.6446510">
        <ele>38.6</ele>
        <time>2021-05-22T07:17:03Z</time>
      </trkpt>
      <trkpt lat="42.4639580" lon="-8.6446580">
        <ele>38.6</ele>
        <time>2021-05-22T07:17:04Z</time>
      </trkpt>
      <trkpt lat="42.4639690" lon="-8.6446820">
        <ele>38.8</ele>
        <time>2021-05-22T07:17:05Z</time>
      </trkpt>
      <trkpt lat="42.4639690" lon="-8.6446960">
        <ele>38.8</ele>
        <time>2021-05-22T07:17:06Z</time>
      </trkpt>
      <trkpt lat="42.4639780" lon="-8.6447180">
        <ele>38.6</ele>
        <time>2021-05-22T07:17:07Z</time>
      </trkpt>
      <trkpt lat="42.4639800" lon="-8.6447340">
        <ele>38.6</ele>
        <time>2021-05-22T07:17:08Z</time>
      </trkpt>
      <trkpt lat="42.4639840" lon="-8.6447450">
        <ele>38.5</ele>
        <time>2021-05-22T07:17:09Z</time>
      </trkpt>
      <trkpt lat="42.4639900" lon="-8.6447560">
        <ele>38.4</ele>
        <time>2021-05-22T07:17:10Z</time>
      </trkpt>
      <trkpt lat="42.4639950" lon="-8.6447610">
        <ele>38.4</ele>
        <time>2021-05-22T07:17:11Z</time>
      </trkpt>
      <trkpt lat="42.4640000" lon="-8.6447710">
        <ele>38.3</ele>
        <time>2021-05-22T07:17:12Z</time>
      </trkpt>
      <trkpt lat="42.4640060" lon="-8.6447870">
        <ele>38.2</ele>
        <time>2021-05-22T07:17:13Z</time>
      </trkpt>
      <trkpt lat="42.4640200" lon="-8.6448190">
        <ele>37.9</ele>
        <time>2021-05-22T07:17:14Z</time>
      </trkpt>
      <trkpt lat="42.4640230" lon="-8.6448260">
        <ele>37.9</ele>
        <time>2021-05-22T07:17:15Z</time>
      </trkpt>
      <trkpt lat="42.4640250" lon="-8.6448320">
        <ele>37.8</ele>
        <time>2021-05-22T07:17:16Z</time>
      </trkpt>
      <trkpt lat="42.4640230" lon="-8.6448440">
        <ele>37.7</ele>
        <time>2021-05-22T07:17:17Z</time>
      </trkpt>
      <trkpt lat="42.4640310" lon="-8.6448640">
        <ele>37.6</ele>
        <time>2021-05-22T07:17:18Z</time>
      </trkpt>
      <trkpt lat="42.4640310" lon="-8.6448720">
        <ele>37.5</ele>
        <time>2021-05-22T07:17:19Z</time>
      </trkpt>
      <trkpt lat="42.4640350" lon="-8.6449030">
        <ele>37.3</ele>
        <time>2021-05-22T07:17:20Z</time>
      </trkpt>
      <trkpt lat="42.4640360" lon="-8.6449120">
        <ele>37.2</ele>
        <time>2021-05-22T07:17:21Z</time>
      </trkpt>
      <trkpt lat="42.4640380" lon="-8.6449210">
        <ele>37.1</ele>
        <time>2021-05-22T07:17:22Z</time>
      </trkpt>
      <trkpt lat="42.4640380" lon="-8.6449310">
        <ele>37.0</ele>
        <time>2021-05-22T07:17:23Z</time>
      </trkpt>
      <trkpt lat="42.4640400" lon="-8.6449420">
        <ele>36.9</ele>
        <time>2021-05-22T07:17:24Z</time>
      </trkpt>
      <trkpt lat="42.4640400" lon="-8.6449540">
        <ele>36.8</ele>
        <time>2021-05-22T07:17:25Z</time>
      </trkpt>
      <trkpt lat="42.4640430" lon="-8.6449660">
        <ele>36.7</ele>
        <time>2021-05-22T07:17:26Z</time>
      </trkpt>
      <trkpt lat="42.4640480" lon="-8.6449870">
        <ele>36.5</ele>
        <time>2021-05-22T07:17:27Z</time>
      </trkpt>
      <trkpt lat="42.4640460" lon="-8.6450060">
        <ele>36.3</ele>
        <time>2021-05-22T07:17:28Z</time>
      </trkpt>
      <trkpt lat="42.4640540" lon="-8.6450180">
        <ele>36.1</ele>
        <time>2021-05-22T07:17:29Z</time>
      </trkpt>
      <trkpt lat="42.4640570" lon="-8.6450230">
        <ele>36.1</ele>
        <time>2021-05-22T07:17:30Z</time>
      </trkpt>
      <trkpt lat="42.4640580" lon="-8.6450420">
        <ele>35.9</ele>
        <time>2021-05-22T07:17:31Z</time>
      </trkpt>
      <trkpt lat="42.4640640" lon="-8.6450630">
        <ele>35.7</ele>
        <time>2021-05-22T07:17:32Z</time>
      </trkpt>
      <trkpt lat="42.4640630" lon="-8.6450690">
        <ele>35.6</ele>
        <time>2021-05-22T07:17:33Z</time>
      </trkpt>
      <trkpt lat="42.4640630" lon="-8.6450870">
        <ele>35.4</ele>
        <time>2021-05-22T07:17:34Z</time>
      </trkpt>
      <trkpt lat="42.4640710" lon="-8.6451090">
        <ele>35.2</ele>
        <time>2021-05-22T07:17:35Z</time>
      </trkpt>
      <trkpt lat="42.4640780" lon="-8.6451260">
        <ele>35.0</ele>
        <time>2021-05-22T07:17:36Z</time>
      </trkpt>
      <trkpt lat="42.4640900" lon="-8.6451500">
        <ele>34.7</ele>
        <time>2021-05-22T07:17:37Z</time>
      </trkpt>
      <trkpt lat="42.4640960" lon="-8.6451590">
        <ele>34.6</ele>
        <time>2021-05-22T07:17:38Z</time>
      </trkpt>
      <trkpt lat="42.4641010" lon="-8.6451690">
        <ele>34.5</ele>
        <time>2021-05-22T07:17:39Z</time>
      </trkpt>
      <trkpt lat="42.4641040" lon="-8.6451840">
        <ele>34.3</ele>
        <time>2021-05-22T07:17:40Z</time>
      </trkpt>
      <trkpt lat="42.4641070" lon="-8.6451990">
        <ele>34.1</ele>
        <time>2021-05-22T07:17:41Z</time>
      </trkpt>
      <trkpt lat="42.4641050" lon="-8.6452100">
        <ele>34.0</ele>
        <time>2021-05-22T07:17:42Z</time>
      </trkpt>
      <trkpt lat="42.4641090" lon="-8.6452280">
        <ele>33.8</ele>
        <time>2021-05-22T07:17:43Z</time>
      </trkpt>
      <trkpt lat="42.4641150" lon="-8.6452460">
        <ele>33.6</ele>
        <time>2021-05-22T07:17:44Z</time>
      </trkpt>
      <trkpt lat="42.4641190" lon="-8.6452760">
        <ele>33.3</ele>
        <time>2021-05-22T07:17:45Z</time>
      </trkpt>
      <trkpt lat="42.4641200" lon="-8.6452870">
        <ele>33.2</ele>
        <time>2021-05-22T07:17:46Z</time>
      </trkpt>
      <trkpt lat="42.4641220" lon="-8.6452990">
        <ele>33.1</ele>
        <time>2021-05-22T07:17:47Z</time>
      </trkpt>
      <trkpt lat="42.4641260" lon="-8.6453160">
        <ele>32.9</ele>
        <time>2021-05-22T07:17:48Z</time>
      </trkpt>
      <trkpt lat="42.4641330" lon="-8.6453350">
        <ele>32.6</ele>
        <time>2021-05-22T07:17:49Z</time>
      </trkpt>
      <trkpt lat="42.4641450" lon="-8.6453600">
        <ele>32.3</ele>
        <time>2021-05-22T07:17:50Z</time>
      </trkpt>
      <trkpt lat="42.4641480" lon="-8.6453710">
        <ele>32.2</ele>
        <time>2021-05-22T07:17:51Z</time>
      </trkpt>
      <trkpt lat="42.4641520" lon="-8.6453820">
        <ele>32.1</ele>
        <time>2021-05-22T07:17:52Z</time>
      </trkpt>
      <trkpt lat="42.4641610" lon="-8.6454140">
        <ele>31.7</ele>
        <time>2021-05-22T07:17:53Z</time>
      </trkpt>
      <trkpt lat="42.4641650" lon="-8.6454240">
        <ele>31.6</ele>
        <time>2021-05-22T07:17:54Z</time>
      </trkpt>
      <trkpt lat="42.4641690" lon="-8.6454350">
        <ele>31.5</ele>
        <time>2021-05-22T07:17:55Z</time>
      </trkpt>
      <trkpt lat="42.4641690" lon="-8.6454450">
        <ele>31.4</ele>
        <time>2021-05-22T07:17:56Z</time>
      </trkpt>
      <trkpt lat="42.4641730" lon="-8.6454570">
        <ele>31.2</ele>
        <time>2021-05-22T07:17:57Z</time>
      </trkpt>
      <trkpt lat="42.4641770" lon="-8.6454750">
        <ele>31.0</ele>
        <time>2021-05-22T07:17:58Z</time>
      </trkpt>
      <trkpt lat="42.4641810" lon="-8.6455050">
        <ele>30.7</ele>
        <time>2021-05-22T07:17:59Z</time>
      </trkpt>
      <trkpt lat="42.4641870" lon="-8.6455190">
        <ele>30.6</ele>
        <time>2021-05-22T07:18:00Z</time>
      </trkpt>
      <trkpt lat="42.4641920" lon="-8.6455330">
        <ele>30.4</ele>
        <time>2021-05-22T07:18:01Z</time>
      </trkpt>
      <trkpt lat="42.4641980" lon="-8.6455520">
        <ele>30.2</ele>
        <time>2021-05-22T07:18:02Z</time>
      </trkpt>
      <trkpt lat="42.4642000" lon="-8.6455650">
        <ele>30.0</ele>
        <time>2021-05-22T07:18:03Z</time>
      </trkpt>
      <trkpt lat="42.4642060" lon="-8.6455790">
        <ele>29.9</ele>
        <time>2021-05-22T07:18:04Z</time>
      </trkpt>
      <trkpt lat="42.4642110" lon="-8.6455920">
        <ele>29.7</ele>
        <time>2021-05-22T07:18:05Z</time>
      </trkpt>
      <trkpt lat="42.4642100" lon="-8.6456100">
        <ele>29.5</ele>
        <time>2021-05-22T07:18:06Z</time>
      </trkpt>
      <trkpt lat="42.4642130" lon="-8.6456240">
        <ele>29.4</ele>
        <time>2021-05-22T07:18:07Z</time>
      </trkpt>
      <trkpt lat="42.4642240" lon="-8.6456450">
        <ele>29.1</ele>
        <time>2021-05-22T07:18:08Z</time>
      </trkpt>
      <trkpt lat="42.4642300" lon="-8.6456560">
        <ele>29.0</ele>
        <time>2021-05-22T07:18:09Z</time>
      </trkpt>
      <trkpt lat="42.4642370" lon="-8.6456680">
        <ele>28.8</ele>
        <time>2021-05-22T07:18:10Z</time>
      </trkpt>
      <trkpt lat="42.4642430" lon="-8.6456800">
        <ele>28.7</ele>
        <time>2021-05-22T07:18:11Z</time>
      </trkpt>
      <trkpt lat="42.4642520" lon="-8.6456940">
        <ele>28.5</ele>
        <time>2021-05-22T07:18:12Z</time>
      </trkpt>
      <trkpt lat="42.4642560" lon="-8.6457050">
        <ele>28.4</ele>
        <time>2021-05-22T07:18:13Z</time>
      </trkpt>
      <trkpt lat="42.4642680" lon="-8.6457270">
        <ele>28.1</ele>
        <time>2021-05-22T07:18:14Z</time>
      </trkpt>
      <trkpt lat="42.4642720" lon="-8.6457390">
        <ele>28.0</ele>
        <time>2021-05-22T07:18:15Z</time>
      </trkpt>
      <trkpt lat="42.4642760" lon="-8.6457500">
        <ele>27.8</ele>
        <time>2021-05-22T07:18:16Z</time>
      </trkpt>
      <trkpt lat="42.4642830" lon="-8.6457640">
        <ele>27.7</ele>
        <time>2021-05-22T07:18:17Z</time>
      </trkpt>
      <trkpt lat="42.4642900" lon="-8.6457770">
        <ele>27.5</ele>
        <time>2021-05-22T07:18:18Z</time>
      </trkpt>
      <trkpt lat="42.4642940" lon="-8.6457810">
        <ele>27.5</ele>
        <time>2021-05-22T07:18:19Z</time>
      </trkpt>
      <trkpt lat="42.4643020" lon="-8.6457980">
        <ele>27.3</ele>
        <time>2021-05-22T07:18:20Z</time>
      </trkpt>
      <trkpt lat="42.4643140" lon="-8.6458160">
        <ele>27.1</ele>
        <time>2021-05-22T07:18:21Z</time>
      </trkpt>
      <trkpt lat="42.4643210" lon="-8.6458270">
        <ele>26.9</ele>
        <time>2021-05-22T07:18:22Z</time>
      </trkpt>
      <trkpt lat="42.4643340" lon="-8.6458470">
        <ele>26.7</ele>
        <time>2021-05-22T07:18:23Z</time>
      </trkpt>
      <trkpt lat="42.4643410" lon="-8.6458530">
        <ele>26.6</ele>
        <time>2021-05-22T07:18:24Z</time>
      </trkpt>
      <trkpt lat="42.4643450" lon="-8.6458620">
        <ele>26.5</ele>
        <time>2021-05-22T07:18:25Z</time>
      </trkpt>
      <trkpt lat="42.4643530" lon="-8.6458760">
        <ele>26.4</ele>
        <time>2021-05-22T07:18:26Z</time>
      </trkpt>
      <trkpt lat="42.4643670" lon="-8.6458930">
        <ele>26.2</ele>
        <time>2021-05-22T07:18:27Z</time>
      </trkpt>
      <trkpt lat="42.4643750" lon="-8.6459010">
        <ele>26.1</ele>
        <time>2021-05-22T07:18:28Z</time>
      </trkpt>
      <trkpt lat="42.4643830" lon="-8.6459080">
        <ele>26.0</ele>
        <time>2021-05-22T07:18:29Z</time>
      </trkpt>
      <trkpt lat="42.4643930" lon="-8.6459150">
        <ele>25.9</ele>
        <time>2021-05-22T07:18:30Z</time>
      </trkpt>
      <trkpt lat="42.4643990" lon="-8.6459230">
        <ele>25.8</ele>
        <time>2021-05-22T07:18:31Z</time>
      </trkpt>
      <trkpt lat="42.4644060" lon="-8.6459370">
        <ele>25.7</ele>
        <time>2021-05-22T07:18:32Z</time>
      </trkpt>
      <trkpt lat="42.4644120" lon="-8.6459460">
        <ele>25.7</ele>
        <time>2021-05-22T07:18:33Z</time>
      </trkpt>
      <trkpt lat="42.4644180" lon="-8.6459550">
        <ele>25.6</ele>
        <time>2021-05-22T07:18:34Z</time>
      </trkpt>
      <trkpt lat="42.4644290" lon="-8.6459670">
        <ele>25.5</ele>
        <time>2021-05-22T07:18:35Z</time>
      </trkpt>
      <trkpt lat="42.4644410" lon="-8.6459820">
        <ele>25.3</ele>
        <time>2021-05-22T07:18:36Z</time>
      </trkpt>
      <trkpt lat="42.4644470" lon="-8.6459840">
        <ele>25.3</ele>
        <time>2021-05-22T07:18:37Z</time>
      </trkpt>
      <trkpt lat="42.4644570" lon="-8.6459980">
        <ele>25.2</ele>
        <time>2021-05-22T07:18:38Z</time>
      </trkpt>
      <trkpt lat="42.4644770" lon="-8.6460110">
        <ele>25.0</ele>
        <time>2021-05-22T07:18:39Z</time>
      </trkpt>
      <trkpt lat="42.4644920" lon="-8.6460180">
        <ele>24.9</ele>
        <time>2021-05-22T07:18:40Z</time>
      </trkpt>
      <trkpt lat="42.4645080" lon="-8.6460240">
        <ele>24.7</ele>
        <time>2021-05-22T07:18:41Z</time>
      </trkpt>
      <trkpt lat="42.4645240" lon="-8.6460280">
        <ele>24.6</ele>
        <time>2021-05-22T07:18:42Z</time>
      </trkpt>
      <trkpt lat="42.4645410" lon="-8.6460420">
        <ele>24.5</ele>
        <time>2021-05-22T07:18:43Z</time>
      </trkpt>
      <trkpt lat="42.4645550" lon="-8.6460510">
        <ele>24.3</ele>
        <time>2021-05-22T07:18:44Z</time>
      </trkpt>
      <trkpt lat="42.4645740" lon="-8.6460570">
        <ele>24.2</ele>
        <time>2021-05-22T07:18:45Z</time>
      </trkpt>
      <trkpt lat="42.4645870" lon="-8.6460620">
        <ele>24.1</ele>
        <time>2021-05-22T07:18:46Z</time>
      </trkpt>
      <trkpt lat="42.4646030" lon="-8.6460710">
        <ele>23.9</ele>
        <time>2021-05-22T07:18:47Z</time>
      </trkpt>
      <trkpt lat="42.4646190" lon="-8.6460790">
        <ele>23.8</ele>
        <time>2021-05-22T07:18:48Z</time>
      </trkpt>
      <trkpt lat="42.4646280" lon="-8.6460860">
        <ele>23.7</ele>
        <time>2021-05-22T07:18:49Z</time>
      </trkpt>
      <trkpt lat="42.4646470" lon="-8.6460940">
        <ele>23.6</ele>
        <time>2021-05-22T07:18:50Z</time>
      </trkpt>
      <trkpt lat="42.4646550" lon="-8.6460990">
        <ele>23.5</ele>
        <time>2021-05-22T07:18:51Z</time>
      </trkpt>
      <trkpt lat="42.4646640" lon="-8.6461050">
        <ele>23.4</ele>
        <time>2021-05-22T07:18:52Z</time>
      </trkpt>
      <trkpt lat="42.4646780" lon="-8.6461100">
        <ele>23.3</ele>
        <time>2021-05-22T07:18:53Z</time>
      </trkpt>
      <trkpt lat="42.4646910" lon="-8.6461160">
        <ele>23.2</ele>
        <time>2021-05-22T07:18:54Z</time>
      </trkpt>
      <trkpt lat="42.4647010" lon="-8.6461150">
        <ele>23.1</ele>
        <time>2021-05-22T07:18:55Z</time>
      </trkpt>
      <trkpt lat="42.4647160" lon="-8.6461170">
        <ele>22.9</ele>
        <time>2021-05-22T07:18:56Z</time>
      </trkpt>
      <trkpt lat="42.4647230" lon="-8.6461170">
        <ele>22.9</ele>
        <time>2021-05-22T07:18:57Z</time>
      </trkpt>
      <trkpt lat="42.4647420" lon="-8.6461180">
        <ele>22.7</ele>
        <time>2021-05-22T07:18:58Z</time>
      </trkpt>
      <trkpt lat="42.4647570" lon="-8.6461250">
        <ele>22.5</ele>
        <time>2021-05-22T07:18:59Z</time>
      </trkpt>
      <trkpt lat="42.4647640" lon="-8.6461290">
        <ele>22.5</ele>
        <time>2021-05-22T07:19:00Z</time>
      </trkpt>
      <trkpt lat="42.4647760" lon="-8.6461300">
        <ele>22.3</ele>
        <time>2021-05-22T07:19:01Z</time>
      </trkpt>
      <trkpt lat="42.4647860" lon="-8.6461280">
        <ele>22.2</ele>
        <time>2021-05-22T07:19:02Z</time>
      </trkpt>
      <trkpt lat="42.4647960" lon="-8.6461390">
        <ele>22.1</ele>
        <time>2021-05-22T07:19:03Z</time>
      </trkpt>
      <trkpt lat="42.4648030" lon="-8.6461460">
        <ele>22.0</ele>
        <time>2021-05-22T07:19:04Z</time>
      </trkpt>
      <trkpt lat="42.4648070" lon="-8.6461530">
        <ele>21.9</ele>
        <time>2021-05-22T07:19:05Z</time>
      </trkpt>
      <trkpt lat="42.4648070" lon="-8.6461600">
        <ele>21.4</ele>
        <time>2021-05-22T07:19:06Z</time>
      </trkpt>
      <trkpt lat="42.4648080" lon="-8.6461750">
        <ele>21.3</ele>
        <time>2021-05-22T07:19:07Z</time>
      </trkpt>
      <trkpt lat="42.4648130" lon="-8.6461930">
        <ele>21.3</ele>
        <time>2021-05-22T07:19:08Z</time>
      </trkpt>
      <trkpt lat="42.4648120" lon="-8.6462160">
        <ele>21.3</ele>
        <time>2021-05-22T07:19:09Z</time>
      </trkpt>
      <trkpt lat="42.4648120" lon="-8.6462320">
        <ele>21.3</ele>
        <time>2021-05-22T07:19:10Z</time>
      </trkpt>
      <trkpt lat="42.4648090" lon="-8.6462440">
        <ele>21.3</ele>
        <time>2021-05-22T07:19:11Z</time>
      </trkpt>
      <trkpt lat="42.4648100" lon="-8.6462540">
        <ele>21.3</ele>
        <time>2021-05-22T07:19:12Z</time>
      </trkpt>
      <trkpt lat="42.4648150" lon="-8.6462640">
        <ele>21.3</ele>
        <time>2021-05-22T07:19:13Z</time>
      </trkpt>
      <trkpt lat="42.4648170" lon="-8.6462680">
        <ele>21.3</ele>
        <time>2021-05-22T07:19:14Z</time>
      </trkpt>
      <trkpt lat="42.4648140" lon="-8.6462720">
        <ele>21.3</ele>
        <time>2021-05-22T07:19:15Z</time>
      </trkpt>
      <trkpt lat="42.4648100" lon="-8.6462700">
        <ele>21.3</ele>
        <time>2021-05-22T07:19:16Z</time>
      </trkpt>
      <trkpt lat="42.4648060" lon="-8.6462470">
        <ele>21.3</ele>
        <time>2021-05-22T07:19:17Z</time>
      </trkpt>
      <trkpt lat="42.4648120" lon="-8.6462490">
        <ele>21.3</ele>
        <time>2021-05-22T07:19:18Z</time>
      </trkpt>
      <trkpt lat="42.4648160" lon="-8.6462510">
        <ele>21.3</ele>
        <time>2021-05-22T07:19:19Z</time>
      </trkpt>
      <trkpt lat="42.4648210" lon="-8.6462500">
        <ele>21.2</ele>
        <time>2021-05-22T07:19:20Z</time>
      </trkpt>
      <trkpt lat="42.4648230" lon="-8.6462750">
        <ele>21.2</ele>
        <time>2021-05-22T07:19:21Z</time>
      </trkpt>
      <trkpt lat="42.4648430" lon="-8.6462890">
        <ele>21.1</ele>
        <time>2021-05-22T07:19:22Z</time>
      </trkpt>
      <trkpt lat="42.4648650" lon="-8.6463260">
        <ele>21.0</ele>
        <time>2021-05-22T07:19:23Z</time>
      </trkpt>
      <trkpt lat="42.4648760" lon="-8.6463190">
        <ele>21.0</ele>
        <time>2021-05-22T07:19:24Z</time>
      </trkpt>
      <trkpt lat="42.4648830" lon="-8.6462960">
        <ele>21.0</ele>
        <time>2021-05-22T07:19:25Z</time>
      </trkpt>
      <trkpt lat="42.4648910" lon="-8.6463230">
        <ele>20.9</ele>
        <time>2021-05-22T07:19:26Z</time>
      </trkpt>
      <trkpt lat="42.4648870" lon="-8.6463270">
        <ele>20.9</ele>
        <time>2021-05-22T07:19:27Z</time>
      </trkpt>
      <trkpt lat="42.4648870" lon="-8.6463350">
        <ele>20.9</ele>
        <time>2021-05-22T07:19:28Z</time>
      </trkpt>
      <trkpt lat="42.4648780" lon="-8.6463510">
        <ele>20.9</ele>
        <time>2021-05-22T07:19:29Z</time>
      </trkpt>
      <trkpt lat="42.4648840" lon="-8.6463750">
        <ele>20.9</ele>
        <time>2021-05-22T07:19:30Z</time>
      </trkpt>
      <trkpt lat="42.4648930" lon="-8.6463810">
        <ele>20.8</ele>
        <time>2021-05-22T07:19:31Z</time>
      </trkpt>
      <trkpt lat="42.4648920" lon="-8.6463840">
        <ele>20.8</ele>
        <time>2021-05-22T07:19:32Z</time>
      </trkpt>
      <trkpt lat="42.4648840" lon="-8.6463990">
        <ele>20.8</ele>
        <time>2021-05-22T07:19:33Z</time>
      </trkpt>
      <trkpt lat="42.4648820" lon="-8.6464020">
        <ele>20.8</ele>
        <time>2021-05-22T07:19:34Z</time>
      </trkpt>
      <trkpt lat="42.4648810" lon="-8.6464040">
        <ele>20.8</ele>
        <time>2021-05-22T07:19:35Z</time>
      </trkpt>
      <trkpt lat="42.4648760" lon="-8.6464100">
        <ele>20.8</ele>
        <time>2021-05-22T07:19:36Z</time>
      </trkpt>
      <trkpt lat="42.4648740" lon="-8.6464460">
        <ele>20.7</ele>
        <time>2021-05-22T07:19:37Z</time>
      </trkpt>
      <trkpt lat="42.4648740" lon="-8.6464520">
        <ele>20.7</ele>
        <time>2021-05-22T07:19:38Z</time>
      </trkpt>
      <trkpt lat="42.4648760" lon="-8.6464670">
        <ele>20.7</ele>
        <time>2021-05-22T07:19:39Z</time>
      </trkpt>
      <trkpt lat="42.4648790" lon="-8.6464760">
        <ele>20.7</ele>
        <time>2021-05-22T07:19:40Z</time>
      </trkpt>
      <trkpt lat="42.4648810" lon="-8.6464850">
        <ele>20.7</ele>
        <time>2021-05-22T07:19:41Z</time>
      </trkpt>
      <trkpt lat="42.4648840" lon="-8.6464940">
        <ele>20.7</ele>
        <time>2021-05-22T07:19:42Z</time>
      </trkpt>
      <trkpt lat="42.4648860" lon="-8.6465030">
        <ele>20.7</ele>
        <time>2021-05-22T07:19:43Z</time>
      </trkpt>
      <trkpt lat="42.4648910" lon="-8.6465230">
        <ele>20.6</ele>
        <time>2021-05-22T07:19:44Z</time>
      </trkpt>
      <trkpt lat="42.4648910" lon="-8.6465490">
        <ele>20.6</ele>
        <time>2021-05-22T07:19:45Z</time>
      </trkpt>
      <trkpt lat="42.4648940" lon="-8.6465780">
        <ele>20.6</ele>
        <time>2021-05-22T07:19:46Z</time>
      </trkpt>
      <trkpt lat="42.4649000" lon="-8.6465880">
        <ele>20.5</ele>
        <time>2021-05-22T07:19:47Z</time>
      </trkpt>
      <trkpt lat="42.4649050" lon="-8.6465970">
        <ele>20.5</ele>
        <time>2021-05-22T07:19:48Z</time>
      </trkpt>
      <trkpt lat="42.4649020" lon="-8.6466180">
        <ele>20.5</ele>
        <time>2021-05-22T07:19:49Z</time>
      </trkpt>
      <trkpt lat="42.4648960" lon="-8.6465970">
        <ele>20.5</ele>
        <time>2021-05-22T07:19:50Z</time>
      </trkpt>
      <trkpt lat="42.4649010" lon="-8.6465980">
        <ele>20.5</ele>
        <time>2021-05-22T07:19:51Z</time>
      </trkpt>
      <trkpt lat="42.4649020" lon="-8.6466060">
        <ele>20.5</ele>
        <time>2021-05-22T07:19:52Z</time>
      </trkpt>
      <trkpt lat="42.4648950" lon="-8.6466220">
        <ele>20.4</ele>
        <time>2021-05-22T07:19:53Z</time>
      </trkpt>
      <trkpt lat="42.4648970" lon="-8.6466180">
        <ele>20.4</ele>
        <time>2021-05-22T07:19:54Z</time>
      </trkpt>
      <trkpt lat="42.4648920" lon="-8.6466360">
        <ele>20.4</ele>
        <time>2021-05-22T07:19:55Z</time>
      </trkpt>
      <trkpt lat="42.4648930" lon="-8.6466460">
        <ele>20.4</ele>
        <time>2021-05-22T07:19:56Z</time>
      </trkpt>
      <trkpt lat="42.4649030" lon="-8.6466570">
        <ele>20.4</ele>
        <time>2021-05-22T07:19:57Z</time>
      </trkpt>
      <trkpt lat="42.4649110" lon="-8.6466750">
        <ele>20.4</ele>
        <time>2021-05-22T07:19:58Z</time>
      </trkpt>
      <trkpt lat="42.4649140" lon="-8.6466770">
        <ele>20.4</ele>
        <time>2021-05-22T07:19:59Z</time>
      </trkpt>
      <trkpt lat="42.4649090" lon="-8.6466710">
        <ele>20.3</ele>
        <time>2021-05-22T07:20:00Z</time>
      </trkpt>
      <trkpt lat="42.4649150" lon="-8.6466670">
        <ele>20.3</ele>
        <time>2021-05-22T07:20:01Z</time>
      </trkpt>
      <trkpt lat="42.4649120" lon="-8.6466630">
        <ele>20.3</ele>
        <time>2021-05-22T07:20:02Z</time>
      </trkpt>
      <trkpt lat="42.4649160" lon="-8.6466630">
        <ele>20.3</ele>
        <time>2021-05-22T07:20:03Z</time>
      </trkpt>
      <trkpt lat="42.4649230" lon="-8.6466860">
        <ele>20.3</ele>
        <time>2021-05-22T07:20:04Z</time>
      </trkpt>
      <trkpt lat="42.4649240" lon="-8.6467010">
        <ele>20.3</ele>
        <time>2021-05-22T07:20:05Z</time>
      </trkpt>
      <trkpt lat="42.4649280" lon="-8.6467150">
        <ele>20.3</ele>
        <time>2021-05-22T07:20:06Z</time>
      </trkpt>
      <trkpt lat="42.4649310" lon="-8.6467250">
        <ele>20.2</ele>
        <time>2021-05-22T07:20:07Z</time>
      </trkpt>
      <trkpt lat="42.4649420" lon="-8.6467330">
        <ele>20.2</ele>
        <time>2021-05-22T07:20:08Z</time>
      </trkpt>
      <trkpt lat="42.4649450" lon="-8.6467470">
        <ele>20.2</ele>
        <time>2021-05-22T07:20:09Z</time>
      </trkpt>
      <trkpt lat="42.4649480" lon="-8.6467580">
        <ele>20.2</ele>
        <time>2021-05-22T07:20:10Z</time>
      </trkpt>
      <trkpt lat="42.4649580" lon="-8.6467750">
        <ele>20.2</ele>
        <time>2021-05-22T07:20:11Z</time>
      </trkpt>
      <trkpt lat="42.4649580" lon="-8.6467930">
        <ele>20.2</ele>
        <time>2021-05-22T07:20:12Z</time>
      </trkpt>
      <trkpt lat="42.4649570" lon="-8.6468020">
        <ele>20.2</ele>
        <time>2021-05-22T07:20:13Z</time>
      </trkpt>
      <trkpt lat="42.4649590" lon="-8.6468180">
        <ele>20.1</ele>
        <time>2021-05-22T07:20:14Z</time>
      </trkpt>
      <trkpt lat="42.4649640" lon="-8.6468300">
        <ele>20.1</ele>
        <time>2021-05-22T07:20:15Z</time>
      </trkpt>
      <trkpt lat="42.4649690" lon="-8.6468490">
        <ele>20.1</ele>
        <time>2021-05-22T07:20:16Z</time>
      </trkpt>
      <trkpt lat="42.4649730" lon="-8.6468580">
        <ele>20.1</ele>
        <time>2021-05-22T07:20:17Z</time>
      </trkpt>
      <trkpt lat="42.4649760" lon="-8.6468680">
        <ele>20.1</ele>
        <time>2021-05-22T07:20:18Z</time>
      </trkpt>
      <trkpt lat="42.4649800" lon="-8.6468780">
        <ele>20.1</ele>
        <time>2021-05-22T07:20:19Z</time>
      </trkpt>
      <trkpt lat="42.4649900" lon="-8.6469000">
        <ele>20.1</ele>
        <time>2021-05-22T07:20:20Z</time>
      </trkpt>
      <trkpt lat="42.4649980" lon="-8.6469130">
        <ele>20.0</ele>
        <time>2021-05-22T07:20:21Z</time>
      </trkpt>
      <trkpt lat="42.4650010" lon="-8.6469230">
        <ele>20.0</ele>
        <time>2021-05-22T07:20:22Z</time>
      </trkpt>
      <trkpt lat="42.4650080" lon="-8.6469400">
        <ele>20.0</ele>
        <time>2021-05-22T07:20:23Z</time>
      </trkpt>
      <trkpt lat="42.4650130" lon="-8.6469550">
        <ele>20.0</ele>
        <time>2021-05-22T07:20:24Z</time>
      </trkpt>
      <trkpt lat="42.4650250" lon="-8.6469790">
        <ele>20.0</ele>
        <time>2021-05-22T07:20:25Z</time>
      </trkpt>
      <trkpt lat="42.4650310" lon="-8.6469870">
        <ele>20.0</ele>
        <time>2021-05-22T07:20:26Z</time>
      </trkpt>
      <trkpt lat="42.4650360" lon="-8.6469960">
        <ele>20.0</ele>
        <time>2021-05-22T07:20:27Z</time>
      </trkpt>
      <trkpt lat="42.4650420" lon="-8.6470080">
        <ele>20.0</ele>
        <time>2021-05-22T07:20:28Z</time>
      </trkpt>
      <trkpt lat="42.4650440" lon="-8.6470210">
        <ele>20.0</ele>
        <time>2021-05-22T07:20:29Z</time>
      </trkpt>
      <trkpt lat="42.4650520" lon="-8.6470370">
        <ele>20.0</ele>
        <time>2021-05-22T07:20:30Z</time>
      </trkpt>
      <trkpt lat="42.4650540" lon="-8.6470490">
        <ele>19.9</ele>
        <time>2021-05-22T07:20:31Z</time>
      </trkpt>
      <trkpt lat="42.4650580" lon="-8.6470540">
        <ele>19.9</ele>
        <time>2021-05-22T07:20:32Z</time>
      </trkpt>
      <trkpt lat="42.4650670" lon="-8.6470630">
        <ele>19.9</ele>
        <time>2021-05-22T07:20:33Z</time>
      </trkpt>
      <trkpt lat="42.4650690" lon="-8.6470650">
        <ele>19.9</ele>
        <time>2021-05-22T07:20:34Z</time>
      </trkpt>
      <trkpt lat="42.4650670" lon="-8.6470660">
        <ele>19.9</ele>
        <time>2021-05-22T07:20:35Z</time>
      </trkpt>
      <trkpt lat="42.4650600" lon="-8.6470610">
        <ele>19.9</ele>
        <time>2021-05-22T07:20:36Z</time>
      </trkpt>
      <trkpt lat="42.4650590" lon="-8.6470580">
        <ele>19.9</ele>
        <time>2021-05-22T07:20:37Z</time>
      </trkpt>
      <trkpt lat="42.4650580" lon="-8.6470610">
        <ele>19.9</ele>
        <time>2021-05-22T07:20:38Z</time>
      </trkpt>
      <trkpt lat="42.4650600" lon="-8.6470610">
        <ele>19.9</ele>
        <time>2021-05-22T07:20:39Z</time>
      </trkpt>
      <trkpt lat="42.4650590" lon="-8.6470590">
        <ele>19.9</ele>
        <time>2021-05-22T07:20:40Z</time>
      </trkpt>
      <trkpt lat="42.4650610" lon="-8.6470610">
        <ele>19.9</ele>
        <time>2021-05-22T07:20:41Z</time>
      </trkpt>
      <trkpt lat="42.4650630" lon="-8.6470620">
        <ele>19.9</ele>
        <time>2021-05-22T07:20:42Z</time>
      </trkpt>
      <trkpt lat="42.4650660" lon="-8.6470720">
        <ele>19.9</ele>
        <time>2021-05-22T07:20:43Z</time>
      </trkpt>
      <trkpt lat="42.4650740" lon="-8.6470730">
        <ele>19.9</ele>
        <time>2021-05-22T07:20:44Z</time>
      </trkpt>
      <trkpt lat="42.4650740" lon="-8.6470740">
        <ele>19.9</ele>
        <time>2021-05-22T07:20:45Z</time>
      </trkpt>
      <trkpt lat="42.4650780" lon="-8.6470750">
        <ele>19.9</ele>
        <time>2021-05-22T07:20:46Z</time>
      </trkpt>
      <trkpt lat="42.4650780" lon="-8.6470760">
        <ele>19.9</ele>
        <time>2021-05-22T07:20:47Z</time>
      </trkpt>
      <trkpt lat="42.4650780" lon="-8.6470760">
        <ele>19.9</ele>
        <time>2021-05-22T07:20:48Z</time>
      </trkpt>
      <trkpt lat="42.4650730" lon="-8.6470750">
        <ele>19.9</ele>
        <time>2021-05-22T07:20:49Z</time>
      </trkpt>
      <trkpt lat="42.4650710" lon="-8.6470720">
        <ele>19.9</ele>
        <time>2021-05-22T07:20:50Z</time>
      </trkpt>
      <trkpt lat="42.4650710" lon="-8.6470700">
        <ele>19.9</ele>
        <time>2021-05-22T07:20:51Z</time>
      </trkpt>
      <trkpt lat="42.4650760" lon="-8.6470750">
        <ele>19.9</ele>
        <time>2021-05-22T07:20:52Z</time>
      </trkpt>
      <trkpt lat="42.4650820" lon="-8.6470840">
        <ele>19.9</ele>
        <time>2021-05-22T07:20:53Z</time>
      </trkpt>
      <trkpt lat="42.4650830" lon="-8.6470910">
        <ele>19.9</ele>
        <time>2021-05-22T07:20:54Z</time>
      </trkpt>
      <trkpt lat="42.4650880" lon="-8.6470970">
        <ele>19.9</ele>
        <time>2021-05-22T07:20:55Z</time>
      </trkpt>
      <trkpt lat="42.4650920" lon="-8.6471030">
        <ele>19.9</ele>
        <time>2021-05-22T07:20:56Z</time>
      </trkpt>
      <trkpt lat="42.4651010" lon="-8.6471170">
        <ele>19.9</ele>
        <time>2021-05-22T07:20:57Z</time>
      </trkpt>
      <trkpt lat="42.4651060" lon="-8.6471270">
        <ele>19.9</ele>
        <time>2021-05-22T07:20:58Z</time>
      </trkpt>
      <trkpt lat="42.4651110" lon="-8.6471420">
        <ele>19.9</ele>
        <time>2021-05-22T07:20:59Z</time>
      </trkpt>
      <trkpt lat="42.4651180" lon="-8.6471520">
        <ele>19.9</ele>
        <time>2021-05-22T07:21:00Z</time>
      </trkpt>
      <trkpt lat="42.4651160" lon="-8.6471550">
        <ele>19.9</ele>
        <time>2021-05-22T07:21:01Z</time>
      </trkpt>
      <trkpt lat="42.4651240" lon="-8.6471680">
        <ele>19.9</ele>
        <time>2021-05-22T07:21:02Z</time>
      </trkpt>
      <trkpt lat="42.4651190" lon="-8.6471630">
        <ele>19.9</ele>
        <time>2021-05-22T07:21:03Z</time>
      </trkpt>
      <trkpt lat="42.4651150" lon="-8.6471620">
        <ele>19.9</ele>
        <time>2021-05-22T07:21:04Z</time>
      </trkpt>
      <trkpt lat="42.4651140" lon="-8.6471540">
        <ele>19.9</ele>
        <time>2021-05-22T07:21:05Z</time>
      </trkpt>
      <trkpt lat="42.4651180" lon="-8.6471630">
        <ele>19.9</ele>
        <time>2021-05-22T07:21:06Z</time>
      </trkpt>
      <trkpt lat="42.4651200" lon="-8.6471690">
        <ele>19.8</ele>
        <time>2021-05-22T07:21:07Z</time>
      </trkpt>
      <trkpt lat="42.4651220" lon="-8.6471690">
        <ele>19.8</ele>
        <time>2021-05-22T07:21:08Z</time>
      </trkpt>
      <trkpt lat="42.4651200" lon="-8.6471600">
        <ele>19.8</ele>
        <time>2021-05-22T07:21:09Z</time>
      </trkpt>
      <trkpt lat="42.4651210" lon="-8.6471580">
        <ele>19.8</ele>
        <time>2021-05-22T07:21:10Z</time>
      </trkpt>
      <trkpt lat="42.4651210" lon="-8.6471650">
        <ele>19.8</ele>
        <time>2021-05-22T07:21:11Z</time>
      </trkpt>
      <trkpt lat="42.4651190" lon="-8.6471700">
        <ele>19.8</ele>
        <time>2021-05-22T07:21:12Z</time>
      </trkpt>
      <trkpt lat="42.4651290" lon="-8.6471830">
        <ele>19.8</ele>
        <time>2021-05-22T07:21:13Z</time>
      </trkpt>
      <trkpt lat="42.4651340" lon="-8.6471880">
        <ele>19.8</ele>
        <time>2021-05-22T07:21:14Z</time>
      </trkpt>
      <trkpt lat="42.4651380" lon="-8.6472010">
        <ele>19.8</ele>
        <time>2021-05-22T07:21:15Z</time>
      </trkpt>
      <trkpt lat="42.4651450" lon="-8.6472130">
        <ele>19.8</ele>
        <time>2021-05-22T07:21:16Z</time>
      </trkpt>
      <trkpt lat="42.4651480" lon="-8.6472210">
        <ele>19.8</ele>
        <time>2021-05-22T07:21:17Z</time>
      </trkpt>
      <trkpt lat="42.4651540" lon="-8.6472330">
        <ele>19.8</ele>
        <time>2021-05-22T07:21:18Z</time>
      </trkpt>
      <trkpt lat="42.4651580" lon="-8.6472350">
        <ele>19.8</ele>
        <time>2021-05-22T07:21:19Z</time>
      </trkpt>
      <trkpt lat="42.4651640" lon="-8.6472470">
        <ele>19.8</ele>
        <time>2021-05-22T07:21:20Z</time>
      </trkpt>
      <trkpt lat="42.4651710" lon="-8.6472570">
        <ele>19.8</ele>
        <time>2021-05-22T07:21:21Z</time>
      </trkpt>
      <trkpt lat="42.4651750" lon="-8.6472650">
        <ele>19.8</ele>
        <time>2021-05-22T07:21:22Z</time>
      </trkpt>
      <trkpt lat="42.4651830" lon="-8.6472710">
        <ele>19.8</ele>
        <time>2021-05-22T07:21:23Z</time>
      </trkpt>
      <trkpt lat="42.4651960" lon="-8.6472840">
        <ele>19.8</ele>
        <time>2021-05-22T07:21:24Z</time>
      </trkpt>
      <trkpt lat="42.4652010" lon="-8.6472860">
        <ele>19.8</ele>
        <time>2021-05-22T07:21:25Z</time>
      </trkpt>
      <trkpt lat="42.4651910" lon="-8.6472810">
        <ele>19.8</ele>
        <time>2021-05-22T07:21:26Z</time>
      </trkpt>
      <trkpt lat="42.4652050" lon="-8.6472840">
        <ele>19.8</ele>
        <time>2021-05-22T07:21:27Z</time>
      </trkpt>
      <trkpt lat="42.4652140" lon="-8.6472980">
        <ele>19.8</ele>
        <time>2021-05-22T07:21:28Z</time>
      </trkpt>
      <trkpt lat="42.4652170" lon="-8.6473050">
        <ele>19.8</ele>
        <time>2021-05-22T07:21:29Z</time>
      </trkpt>
      <trkpt lat="42.4652210" lon="-8.6473160">
        <ele>19.8</ele>
        <time>2021-05-22T07:21:30Z</time>
      </trkpt>
      <trkpt lat="42.4652260" lon="-8.6473250">
        <ele>19.8</ele>
        <time>2021-05-22T07:21:31Z</time>
      </trkpt>
      <trkpt lat="42.4652320" lon="-8.6473410">
        <ele>19.8</ele>
        <time>2021-05-22T07:21:32Z</time>
      </trkpt>
      <trkpt lat="42.4652420" lon="-8.6473500">
        <ele>19.7</ele>
        <time>2021-05-22T07:21:33Z</time>
      </trkpt>
      <trkpt lat="42.4652510" lon="-8.6473660">
        <ele>19.7</ele>
        <time>2021-05-22T07:21:34Z</time>
      </trkpt>
      <trkpt lat="42.4652600" lon="-8.6473780">
        <ele>19.7</ele>
        <time>2021-05-22T07:21:35Z</time>
      </trkpt>
      <trkpt lat="42.4652680" lon="-8.6473900">
        <ele>19.7</ele>
        <time>2021-05-22T07:21:36Z</time>
      </trkpt>
      <trkpt lat="42.4652810" lon="-8.6473940">
        <ele>19.7</ele>
        <time>2021-05-22T07:21:37Z</time>
      </trkpt>
      <trkpt lat="42.4652910" lon="-8.6473990">
        <ele>19.7</ele>
        <time>2021-05-22T07:21:38Z</time>
      </trkpt>
      <trkpt lat="42.4652990" lon="-8.6474090">
        <ele>19.7</ele>
        <time>2021-05-22T07:21:39Z</time>
      </trkpt>
      <trkpt lat="42.4653080" lon="-8.6474160">
        <ele>19.7</ele>
        <time>2021-05-22T07:21:40Z</time>
      </trkpt>
      <trkpt lat="42.4653170" lon="-8.6474230">
        <ele>19.7</ele>
        <time>2021-05-22T07:21:41Z</time>
      </trkpt>
      <trkpt lat="42.4653230" lon="-8.6474330">
        <ele>19.7</ele>
        <time>2021-05-22T07:21:42Z</time>
      </trkpt>
      <trkpt lat="42.4653350" lon="-8.6474430">
        <ele>19.7</ele>
        <time>2021-05-22T07:21:43Z</time>
      </trkpt>
      <trkpt lat="42.4653410" lon="-8.6474430">
        <ele>19.7</ele>
        <time>2021-05-22T07:21:44Z</time>
      </trkpt>
      <trkpt lat="42.4653550" lon="-8.6474580">
        <ele>19.7</ele>
        <time>2021-05-22T07:21:45Z</time>
      </trkpt>
      <trkpt lat="42.4653610" lon="-8.6474640">
        <ele>19.7</ele>
        <time>2021-05-22T07:21:46Z</time>
      </trkpt>
      <trkpt lat="42.4653660" lon="-8.6474700">
        <ele>19.7</ele>
        <time>2021-05-22T07:21:47Z</time>
      </trkpt>
      <trkpt lat="42.4653720" lon="-8.6474760">
        <ele>19.7</ele>
        <time>2021-05-22T07:21:48Z</time>
      </trkpt>
      <trkpt lat="42.4653840" lon="-8.6474870">
        <ele>19.7</ele>
        <time>2021-05-22T07:21:49Z</time>
      </trkpt>
      <trkpt lat="42.4653920" lon="-8.6474930">
        <ele>19.6</ele>
        <time>2021-05-22T07:21:50Z</time>
      </trkpt>
      <trkpt lat="42.4653990" lon="-8.6474980">
        <ele>19.6</ele>
        <time>2021-05-22T07:21:51Z</time>
      </trkpt>
      <trkpt lat="42.4654060" lon="-8.6475040">
        <ele>19.6</ele>
        <time>2021-05-22T07:21:52Z</time>
      </trkpt>
      <trkpt lat="42.4654250" lon="-8.6475150">
        <ele>19.6</ele>
        <time>2021-05-22T07:21:53Z</time>
      </trkpt>
      <trkpt lat="42.4654330" lon="-8.6475220">
        <ele>19.6</ele>
        <time>2021-05-22T07:21:54Z</time>
      </trkpt>
      <trkpt lat="42.4654400" lon="-8.6475280">
        <ele>19.6</ele>
        <time>2021-05-22T07:21:55Z</time>
      </trkpt>
      <trkpt lat="42.4654470" lon="-8.6475350">
        <ele>19.6</ele>
        <time>2021-05-22T07:21:56Z</time>
      </trkpt>
      <trkpt lat="42.4654580" lon="-8.6475420">
        <ele>19.6</ele>
        <time>2021-05-22T07:21:57Z</time>
      </trkpt>
      <trkpt lat="42.4654650" lon="-8.6475520">
        <ele>19.6</ele>
        <time>2021-05-22T07:21:58Z</time>
      </trkpt>
      <trkpt lat="42.4654810" lon="-8.6475630">
        <ele>19.6</ele>
        <time>2021-05-22T07:21:59Z</time>
      </trkpt>
      <trkpt lat="42.4654900" lon="-8.6475700">
        <ele>19.6</ele>
        <time>2021-05-22T07:22:00Z</time>
      </trkpt>
      <trkpt lat="42.4654980" lon="-8.6475760">
        <ele>19.6</ele>
        <time>2021-05-22T07:22:01Z</time>
      </trkpt>
      <trkpt lat="42.4655040" lon="-8.6475810">
        <ele>19.6</ele>
        <time>2021-05-22T07:22:02Z</time>
      </trkpt>
      <trkpt lat="42.4655140" lon="-8.6475910">
        <ele>19.6</ele>
        <time>2021-05-22T07:22:03Z</time>
      </trkpt>
      <trkpt lat="42.4655380" lon="-8.6476030">
        <ele>19.6</ele>
        <time>2021-05-22T07:22:04Z</time>
      </trkpt>
      <trkpt lat="42.4655460" lon="-8.6476080">
        <ele>19.6</ele>
        <time>2021-05-22T07:22:05Z</time>
      </trkpt>
      <trkpt lat="42.4655550" lon="-8.6476140">
        <ele>19.6</ele>
        <time>2021-05-22T07:22:06Z</time>
      </trkpt>
      <trkpt lat="42.4655630" lon="-8.6476210">
        <ele>19.6</ele>
        <time>2021-05-22T07:22:07Z</time>
      </trkpt>
      <trkpt lat="42.4655680" lon="-8.6476300">
        <ele>19.6</ele>
        <time>2021-05-22T07:22:08Z</time>
      </trkpt>
      <trkpt lat="42.4655780" lon="-8.6476360">
        <ele>19.6</ele>
        <time>2021-05-22T07:22:09Z</time>
      </trkpt>
      <trkpt lat="42.4655900" lon="-8.6476420">
        <ele>19.6</ele>
        <time>2021-05-22T07:22:10Z</time>
      </trkpt>
      <trkpt lat="42.4656010" lon="-8.6476490">
        <ele>19.6</ele>
        <time>2021-05-22T07:22:11Z</time>
      </trkpt>
      <trkpt lat="42.4656090" lon="-8.6476580">
        <ele>19.6</ele>
        <time>2021-05-22T07:22:12Z</time>
      </trkpt>
      <trkpt lat="42.4656210" lon="-8.6476670">
        <ele>19.6</ele>
        <time>2021-05-22T07:22:13Z</time>
      </trkpt>
      <trkpt lat="42.4656300" lon="-8.6476720">
        <ele>19.6</ele>
        <time>2021-05-22T07:22:14Z</time>
      </trkpt>
      <trkpt lat="42.4656400" lon="-8.6476790">
        <ele>19.5</ele>
        <time>2021-05-22T07:22:15Z</time>
      </trkpt>
      <trkpt lat="42.4656560" lon="-8.6476950">
        <ele>19.5</ele>
        <time>2021-05-22T07:22:16Z</time>
      </trkpt>
      <trkpt lat="42.4656620" lon="-8.6477030">
        <ele>19.5</ele>
        <time>2021-05-22T07:22:17Z</time>
      </trkpt>
      <trkpt lat="42.4656690" lon="-8.6477100">
        <ele>19.5</ele>
        <time>2021-05-22T07:22:18Z</time>
      </trkpt>
      <trkpt lat="42.4656860" lon="-8.6477240">
        <ele>19.5</ele>
        <time>2021-05-22T07:22:19Z</time>
      </trkpt>
      <trkpt lat="42.4656950" lon="-8.6477290">
        <ele>19.5</ele>
        <time>2021-05-22T07:22:20Z</time>
      </trkpt>
      <trkpt lat="42.4657040" lon="-8.6477340">
        <ele>19.5</ele>
        <time>2021-05-22T07:22:21Z</time>
      </trkpt>
      <trkpt lat="42.4657110" lon="-8.6477400">
        <ele>19.5</ele>
        <time>2021-05-22T07:22:22Z</time>
      </trkpt>
      <trkpt lat="42.4657220" lon="-8.6477480">
        <ele>19.5</ele>
        <time>2021-05-22T07:22:23Z</time>
      </trkpt>
      <trkpt lat="42.4657310" lon="-8.6477600">
        <ele>19.5</ele>
        <time>2021-05-22T07:22:24Z</time>
      </trkpt>
      <trkpt lat="42.4657500" lon="-8.6477800">
        <ele>19.5</ele>
        <time>2021-05-22T07:22:25Z</time>
      </trkpt>
      <trkpt lat="42.4657540" lon="-8.6477860">
        <ele>19.5</ele>
        <time>2021-05-22T07:22:26Z</time>
      </trkpt>
      <trkpt lat="42.4657580" lon="-8.6477930">
        <ele>19.5</ele>
        <time>2021-05-22T07:22:27Z</time>
      </trkpt>
      <trkpt lat="42.4657640" lon="-8.6478030">
        <ele>19.5</ele>
        <time>2021-05-22T07:22:28Z</time>
      </trkpt>
      <trkpt lat="42.4657690" lon="-8.6478150">
        <ele>19.5</ele>
        <time>2021-05-22T07:22:29Z</time>
      </trkpt>
      <trkpt lat="42.4657770" lon="-8.6478270">
        <ele>19.5</ele>
        <time>2021-05-22T07:22:30Z</time>
      </trkpt>
      <trkpt lat="42.4657830" lon="-8.6478370">
        <ele>19.4</ele>
        <time>2021-05-22T07:22:31Z</time>
      </trkpt>
      <trkpt lat="42.4657950" lon="-8.6478520">
        <ele>19.4</ele>
        <time>2021-05-22T07:22:32Z</time>
      </trkpt>
      <trkpt lat="42.4658030" lon="-8.6478590">
        <ele>19.4</ele>
        <time>2021-05-22T07:22:33Z</time>
      </trkpt>
      <trkpt lat="42.4658120" lon="-8.6478730">
        <ele>19.4</ele>
        <time>2021-05-22T07:22:34Z</time>
      </trkpt>
      <trkpt lat="42.4658230" lon="-8.6478870">
        <ele>19.4</ele>
        <time>2021-05-22T07:22:35Z</time>
      </trkpt>
      <trkpt lat="42.4658270" lon="-8.6478970">
        <ele>19.4</ele>
        <time>2021-05-22T07:22:36Z</time>
      </trkpt>
      <trkpt lat="42.4658320" lon="-8.6479030">
        <ele>19.4</ele>
        <time>2021-05-22T07:22:37Z</time>
      </trkpt>
      <trkpt lat="42.4658470" lon="-8.6479190">
        <ele>19.3</ele>
        <time>2021-05-22T07:22:38Z</time>
      </trkpt>
      <trkpt lat="42.4658630" lon="-8.6479380">
        <ele>19.3</ele>
        <time>2021-05-22T07:22:39Z</time>
      </trkpt>
      <trkpt lat="42.4658680" lon="-8.6479470">
        <ele>19.3</ele>
        <time>2021-05-22T07:22:40Z</time>
      </trkpt>
      <trkpt lat="42.4658740" lon="-8.6479570">
        <ele>19.3</ele>
        <time>2021-05-22T07:22:41Z</time>
      </trkpt>
      <trkpt lat="42.4658850" lon="-8.6479680">
        <ele>19.3</ele>
        <time>2021-05-22T07:22:42Z</time>
      </trkpt>
      <trkpt lat="42.4658980" lon="-8.6479820">
        <ele>19.2</ele>
        <time>2021-05-22T07:22:43Z</time>
      </trkpt>
      <trkpt lat="42.4659060" lon="-8.6479860">
        <ele>19.2</ele>
        <time>2021-05-22T07:22:44Z</time>
      </trkpt>
      <trkpt lat="42.4659160" lon="-8.6479870">
        <ele>19.2</ele>
        <time>2021-05-22T07:22:45Z</time>
      </trkpt>
      <trkpt lat="42.4659270" lon="-8.6479890">
        <ele>19.2</ele>
        <time>2021-05-22T07:22:46Z</time>
      </trkpt>
      <trkpt lat="42.4659390" lon="-8.6479910">
        <ele>19.2</ele>
        <time>2021-05-22T07:22:47Z</time>
      </trkpt>
      <trkpt lat="42.4659500" lon="-8.6479900">
        <ele>19.2</ele>
        <time>2021-05-22T07:22:48Z</time>
      </trkpt>
      <trkpt lat="42.4659600" lon="-8.6479930">
        <ele>19.1</ele>
        <time>2021-05-22T07:22:49Z</time>
      </trkpt>
      <trkpt lat="42.4659810" lon="-8.6479980">
        <ele>19.1</ele>
        <time>2021-05-22T07:22:50Z</time>
      </trkpt>
      <trkpt lat="42.4659900" lon="-8.6480020">
        <ele>19.1</ele>
        <time>2021-05-22T07:22:51Z</time>
      </trkpt>
      <trkpt lat="42.4659980" lon="-8.6480060">
        <ele>19.1</ele>
        <time>2021-05-22T07:22:52Z</time>
      </trkpt>
      <trkpt lat="42.4660100" lon="-8.6480100">
        <ele>19.0</ele>
        <time>2021-05-22T07:22:53Z</time>
      </trkpt>
      <trkpt lat="42.4660140" lon="-8.6480220">
        <ele>19.0</ele>
        <time>2021-05-22T07:22:54Z</time>
      </trkpt>
      <trkpt lat="42.4660240" lon="-8.6480240">
        <ele>19.0</ele>
        <time>2021-05-22T07:22:55Z</time>
      </trkpt>
      <trkpt lat="42.4660340" lon="-8.6480330">
        <ele>19.0</ele>
        <time>2021-05-22T07:22:56Z</time>
      </trkpt>
      <trkpt lat="42.4660500" lon="-8.6480410">
        <ele>18.9</ele>
        <time>2021-05-22T07:22:57Z</time>
      </trkpt>
      <trkpt lat="42.4660560" lon="-8.6480410">
        <ele>18.9</ele>
        <time>2021-05-22T07:22:58Z</time>
      </trkpt>
      <trkpt lat="42.4660700" lon="-8.6480520">
        <ele>18.9</ele>
        <time>2021-05-22T07:22:59Z</time>
      </trkpt>
      <trkpt lat="42.4660810" lon="-8.6480560">
        <ele>18.9</ele>
        <time>2021-05-22T07:23:00Z</time>
      </trkpt>
      <trkpt lat="42.4660940" lon="-8.6480640">
        <ele>18.9</ele>
        <time>2021-05-22T07:23:01Z</time>
      </trkpt>
      <trkpt lat="42.4660970" lon="-8.6480680">
        <ele>18.8</ele>
        <time>2021-05-22T07:23:02Z</time>
      </trkpt>
      <trkpt lat="42.4661070" lon="-8.6480780">
        <ele>18.8</ele>
        <time>2021-05-22T07:23:03Z</time>
      </trkpt>
      <trkpt lat="42.4661250" lon="-8.6480860">
        <ele>18.8</ele>
        <time>2021-05-22T07:23:04Z</time>
      </trkpt>
      <trkpt lat="42.4661330" lon="-8.6480900">
        <ele>18.8</ele>
        <time>2021-05-22T07:23:05Z</time>
      </trkpt>
      <trkpt lat="42.4661420" lon="-8.6480930">
        <ele>18.8</ele>
        <time>2021-05-22T07:23:06Z</time>
      </trkpt>
      <trkpt lat="42.4661600" lon="-8.6481030">
        <ele>18.7</ele>
        <time>2021-05-22T07:23:07Z</time>
      </trkpt>
      <trkpt lat="42.4661690" lon="-8.6481050">
        <ele>18.7</ele>
        <time>2021-05-22T07:23:08Z</time>
      </trkpt>
      <trkpt lat="42.4661850" lon="-8.6481090">
        <ele>18.7</ele>
        <time>2021-05-22T07:23:09Z</time>
      </trkpt>
      <trkpt lat="42.4661950" lon="-8.6481160">
        <ele>18.7</ele>
        <time>2021-05-22T07:23:10Z</time>
      </trkpt>
      <trkpt lat="42.4662050" lon="-8.6481210">
        <ele>18.7</ele>
        <time>2021-05-22T07:23:11Z</time>
      </trkpt>
      <trkpt lat="42.4662160" lon="-8.6481310">
        <ele>18.6</ele>
        <time>2021-05-22T07:23:12Z</time>
      </trkpt>
      <trkpt lat="42.4662280" lon="-8.6481370">
        <ele>18.6</ele>
        <time>2021-05-22T07:23:13Z</time>
      </trkpt>
      <trkpt lat="42.4662370" lon="-8.6481420">
        <ele>18.6</ele>
        <time>2021-05-22T07:23:14Z</time>
      </trkpt>
      <trkpt lat="42.4662490" lon="-8.6481450">
        <ele>18.6</ele>
        <time>2021-05-22T07:23:15Z</time>
      </trkpt>
      <trkpt lat="42.4662570" lon="-8.6481530">
        <ele>18.6</ele>
        <time>2021-05-22T07:23:16Z</time>
      </trkpt>
      <trkpt lat="42.4662620" lon="-8.6481510">
        <ele>18.6</ele>
        <time>2021-05-22T07:23:17Z</time>
      </trkpt>
      <trkpt lat="42.4662750" lon="-8.6481620">
        <ele>18.6</ele>
        <time>2021-05-22T07:23:18Z</time>
      </trkpt>
      <trkpt lat="42.4662860" lon="-8.6481670">
        <ele>18.6</ele>
        <time>2021-05-22T07:23:19Z</time>
      </trkpt>
      <trkpt lat="42.4662950" lon="-8.6481720">
        <ele>18.6</ele>
        <time>2021-05-22T07:23:20Z</time>
      </trkpt>
      <trkpt lat="42.4663100" lon="-8.6481750">
        <ele>18.5</ele>
        <time>2021-05-22T07:23:21Z</time>
      </trkpt>
      <trkpt lat="42.4663120" lon="-8.6481810">
        <ele>18.5</ele>
        <time>2021-05-22T07:23:22Z</time>
      </trkpt>
      <trkpt lat="42.4663230" lon="-8.6481890">
        <ele>18.5</ele>
        <time>2021-05-22T07:23:23Z</time>
      </trkpt>
      <trkpt lat="42.4663350" lon="-8.6481960">
        <ele>18.5</ele>
        <time>2021-05-22T07:23:24Z</time>
      </trkpt>
      <trkpt lat="42.4663440" lon="-8.6482010">
        <ele>18.5</ele>
        <time>2021-05-22T07:23:25Z</time>
      </trkpt>
      <trkpt lat="42.4663530" lon="-8.6482070">
        <ele>18.5</ele>
        <time>2021-05-22T07:23:26Z</time>
      </trkpt>
      <trkpt lat="42.4663710" lon="-8.6482120">
        <ele>18.5</ele>
        <time>2021-05-22T07:23:27Z</time>
      </trkpt>
      <trkpt lat="42.4663930" lon="-8.6482190">
        <ele>18.5</ele>
        <time>2021-05-22T07:23:28Z</time>
      </trkpt>
      <trkpt lat="42.4664010" lon="-8.6482250">
        <ele>18.5</ele>
        <time>2021-05-22T07:23:29Z</time>
      </trkpt>
      <trkpt lat="42.4664100" lon="-8.6482300">
        <ele>18.5</ele>
        <time>2021-05-22T07:23:30Z</time>
      </trkpt>
      <trkpt lat="42.4664200" lon="-8.6482340">
        <ele>18.5</ele>
        <time>2021-05-22T07:23:31Z</time>
      </trkpt>
      <trkpt lat="42.4664360" lon="-8.6482410">
        <ele>18.4</ele>
        <time>2021-05-22T07:23:32Z</time>
      </trkpt>
      <trkpt lat="42.4664570" lon="-8.6482520">
        <ele>18.4</ele>
        <time>2021-05-22T07:23:33Z</time>
      </trkpt>
      <trkpt lat="42.4664640" lon="-8.6482560">
        <ele>18.4</ele>
        <time>2021-05-22T07:23:34Z</time>
      </trkpt>
      <trkpt lat="42.4664720" lon="-8.6482610">
        <ele>18.4</ele>
        <time>2021-05-22T07:23:35Z</time>
      </trkpt>
      <trkpt lat="42.4664840" lon="-8.6482670">
        <ele>18.4</ele>
        <time>2021-05-22T07:23:36Z</time>
      </trkpt>
      <trkpt lat="42.4664990" lon="-8.6482750">
        <ele>18.4</ele>
        <time>2021-05-22T07:23:37Z</time>
      </trkpt>
      <trkpt lat="42.4665080" lon="-8.6482790">
        <ele>18.4</ele>
        <time>2021-05-22T07:23:38Z</time>
      </trkpt>
      <trkpt lat="42.4665190" lon="-8.6482880">
        <ele>18.4</ele>
        <time>2021-05-22T07:23:39Z</time>
      </trkpt>
      <trkpt lat="42.4665280" lon="-8.6482960">
        <ele>18.4</ele>
        <time>2021-05-22T07:23:40Z</time>
      </trkpt>
      <trkpt lat="42.4665390" lon="-8.6483000">
        <ele>18.4</ele>
        <time>2021-05-22T07:23:41Z</time>
      </trkpt>
      <trkpt lat="42.4665470" lon="-8.6483050">
        <ele>18.4</ele>
        <time>2021-05-22T07:23:42Z</time>
      </trkpt>
      <trkpt lat="42.4665620" lon="-8.6483080">
        <ele>18.4</ele>
        <time>2021-05-22T07:23:43Z</time>
      </trkpt>
      <trkpt lat="42.4665730" lon="-8.6483140">
        <ele>18.4</ele>
        <time>2021-05-22T07:23:44Z</time>
      </trkpt>
      <trkpt lat="42.4665840" lon="-8.6483150">
        <ele>18.4</ele>
        <time>2021-05-22T07:23:45Z</time>
      </trkpt>
      <trkpt lat="42.4665920" lon="-8.6483180">
        <ele>18.4</ele>
        <time>2021-05-22T07:23:46Z</time>
      </trkpt>
      <trkpt lat="42.4666060" lon="-8.6483200">
        <ele>18.4</ele>
        <time>2021-05-22T07:23:47Z</time>
      </trkpt>
      <trkpt lat="42.4666210" lon="-8.6483270">
        <ele>18.4</ele>
        <time>2021-05-22T07:23:48Z</time>
      </trkpt>
      <trkpt lat="42.4666330" lon="-8.6483330">
        <ele>18.3</ele>
        <time>2021-05-22T07:23:49Z</time>
      </trkpt>
      <trkpt lat="42.4666460" lon="-8.6483330">
        <ele>18.3</ele>
        <time>2021-05-22T07:23:50Z</time>
      </trkpt>
      <trkpt lat="42.4666560" lon="-8.6483360">
        <ele>18.3</ele>
        <time>2021-05-22T07:23:51Z</time>
      </trkpt>
      <trkpt lat="42.4666740" lon="-8.6483480">
        <ele>18.3</ele>
        <time>2021-05-22T07:23:52Z</time>
      </trkpt>
      <trkpt lat="42.4666850" lon="-8.6483500">
        <ele>18.3</ele>
        <time>2021-05-22T07:23:53Z</time>
      </trkpt>
      <trkpt lat="42.4666950" lon="-8.6483530">
        <ele>18.3</ele>
        <time>2021-05-22T07:23:54Z</time>
      </trkpt>
      <trkpt lat="42.4667070" lon="-8.6483590">
        <ele>18.3</ele>
        <time>2021-05-22T07:23:55Z</time>
      </trkpt>
      <trkpt lat="42.4667160" lon="-8.6483600">
        <ele>18.3</ele>
        <time>2021-05-22T07:23:56Z</time>
      </trkpt>
      <trkpt lat="42.4667270" lon="-8.6483630">
        <ele>18.3</ele>
        <time>2021-05-22T07:23:57Z</time>
      </trkpt>
      <trkpt lat="42.4667350" lon="-8.6483640">
        <ele>18.3</ele>
        <time>2021-05-22T07:23:58Z</time>
      </trkpt>
      <trkpt lat="42.4667420" lon="-8.6483640">
        <ele>18.3</ele>
        <time>2021-05-22T07:23:59Z</time>
      </trkpt>
      <trkpt lat="42.4667460" lon="-8.6483700">
        <ele>18.3</ele>
        <time>2021-05-22T07:24:00Z</time>
      </trkpt>
      <trkpt lat="42.4667580" lon="-8.6483730">
        <ele>18.3</ele>
        <time>2021-05-22T07:24:01Z</time>
      </trkpt>
      <trkpt lat="42.4667690" lon="-8.6483750">
        <ele>18.3</ele>
        <time>2021-05-22T07:24:02Z</time>
      </trkpt>
      <trkpt lat="42.4667880" lon="-8.6483780">
        <ele>18.3</ele>
        <time>2021-05-22T07:24:03Z</time>
      </trkpt>
      <trkpt lat="42.4668010" lon="-8.6483790">
        <ele>18.3</ele>
        <time>2021-05-22T07:24:04Z</time>
      </trkpt>
      <trkpt lat="42.4668150" lon="-8.6483790">
        <ele>18.3</ele>
        <time>2021-05-22T07:24:05Z</time>
      </trkpt>
      <trkpt lat="42.4668260" lon="-8.6483880">
        <ele>18.3</ele>
        <time>2021-05-22T07:24:06Z</time>
      </trkpt>
      <trkpt lat="42.4668380" lon="-8.6483930">
        <ele>18.3</ele>
        <time>2021-05-22T07:24:07Z</time>
      </trkpt>
      <trkpt lat="42.4668470" lon="-8.6483930">
        <ele>18.3</ele>
        <time>2021-05-22T07:24:08Z</time>
      </trkpt>
      <trkpt lat="42.4668630" lon="-8.6484030">
        <ele>18.3</ele>
        <time>2021-05-22T07:24:09Z</time>
      </trkpt>
      <trkpt lat="42.4668790" lon="-8.6484070">
        <ele>18.3</ele>
        <time>2021-05-22T07:24:10Z</time>
      </trkpt>
      <trkpt lat="42.4668900" lon="-8.6484090">
        <ele>18.3</ele>
        <time>2021-05-22T07:24:11Z</time>
      </trkpt>
      <trkpt lat="42.4669020" lon="-8.6484100">
        <ele>18.3</ele>
        <time>2021-05-22T07:24:12Z</time>
      </trkpt>
      <trkpt lat="42.4669130" lon="-8.6484160">
        <ele>18.3</ele>
        <time>2021-05-22T07:24:13Z</time>
      </trkpt>
      <trkpt lat="42.4669340" lon="-8.6484160">
        <ele>18.3</ele>
        <time>2021-05-22T07:24:14Z</time>
      </trkpt>
      <trkpt lat="42.4669420" lon="-8.6484200">
        <ele>18.3</ele>
        <time>2021-05-22T07:24:15Z</time>
      </trkpt>
      <trkpt lat="42.4669510" lon="-8.6484230">
        <ele>18.3</ele>
        <time>2021-05-22T07:24:16Z</time>
      </trkpt>
      <trkpt lat="42.4669640" lon="-8.6484280">
        <ele>18.3</ele>
        <time>2021-05-22T07:24:17Z</time>
      </trkpt>
      <trkpt lat="42.4669710" lon="-8.6484290">
        <ele>18.3</ele>
        <time>2021-05-22T07:24:18Z</time>
      </trkpt>
      <trkpt lat="42.4669930" lon="-8.6484380">
        <ele>18.3</ele>
        <time>2021-05-22T07:24:19Z</time>
      </trkpt>
      <trkpt lat="42.4670000" lon="-8.6484430">
        <ele>18.3</ele>
        <time>2021-05-22T07:24:20Z</time>
      </trkpt>
      <trkpt lat="42.4670070" lon="-8.6484470">
        <ele>18.3</ele>
        <time>2021-05-22T07:24:21Z</time>
      </trkpt>
      <trkpt lat="42.4670190" lon="-8.6484460">
        <ele>18.3</ele>
        <time>2021-05-22T07:24:22Z</time>
      </trkpt>
      <trkpt lat="42.4670350" lon="-8.6484510">
        <ele>18.3</ele>
        <time>2021-05-22T07:24:23Z</time>
      </trkpt>
      <trkpt lat="42.4670560" lon="-8.6484490">
        <ele>18.3</ele>
        <time>2021-05-22T07:24:24Z</time>
      </trkpt>
      <trkpt lat="42.4670640" lon="-8.6484480">
        <ele>18.3</ele>
        <time>2021-05-22T07:24:25Z</time>
      </trkpt>
      <trkpt lat="42.4670720" lon="-8.6484470">
        <ele>18.3</ele>
        <time>2021-05-22T07:24:26Z</time>
      </trkpt>
      <trkpt lat="42.4670860" lon="-8.6484490">
        <ele>18.3</ele>
        <time>2021-05-22T07:24:27Z</time>
      </trkpt>
      <trkpt lat="42.4670940" lon="-8.6484520">
        <ele>18.3</ele>
        <time>2021-05-22T07:24:28Z</time>
      </trkpt>
      <trkpt lat="42.4671010" lon="-8.6484540">
        <ele>18.2</ele>
        <time>2021-05-22T07:24:29Z</time>
      </trkpt>
      <trkpt lat="42.4671080" lon="-8.6484570">
        <ele>18.2</ele>
        <time>2021-05-22T07:24:30Z</time>
      </trkpt>
      <trkpt lat="42.4671180" lon="-8.6484620">
        <ele>18.2</ele>
        <time>2021-05-22T07:24:31Z</time>
      </trkpt>
      <trkpt lat="42.4671270" lon="-8.6484640">
        <ele>18.2</ele>
        <time>2021-05-22T07:24:32Z</time>
      </trkpt>
      <trkpt lat="42.4671420" lon="-8.6484570">
        <ele>18.2</ele>
        <time>2021-05-22T07:24:33Z</time>
      </trkpt>
      <trkpt lat="42.4671640" lon="-8.6484620">
        <ele>18.2</ele>
        <time>2021-05-22T07:24:34Z</time>
      </trkpt>
      <trkpt lat="42.4671720" lon="-8.6484650">
        <ele>18.2</ele>
        <time>2021-05-22T07:24:35Z</time>
      </trkpt>
      <trkpt lat="42.4671810" lon="-8.6484670">
        <ele>18.2</ele>
        <time>2021-05-22T07:24:36Z</time>
      </trkpt>
      <trkpt lat="42.4672030" lon="-8.6484770">
        <ele>18.2</ele>
        <time>2021-05-22T07:24:37Z</time>
      </trkpt>
      <trkpt lat="42.4672070" lon="-8.6484790">
        <ele>18.2</ele>
        <time>2021-05-22T07:24:38Z</time>
      </trkpt>
      <trkpt lat="42.4672120" lon="-8.6484820">
        <ele>18.2</ele>
        <time>2021-05-22T07:24:39Z</time>
      </trkpt>
      <trkpt lat="42.4672160" lon="-8.6484840">
        <ele>18.2</ele>
        <time>2021-05-22T07:24:40Z</time>
      </trkpt>
      <trkpt lat="42.4672290" lon="-8.6484850">
        <ele>18.2</ele>
        <time>2021-05-22T07:24:41Z</time>
      </trkpt>
      <trkpt lat="42.4672500" lon="-8.6484800">
        <ele>18.2</ele>
        <time>2021-05-22T07:24:42Z</time>
      </trkpt>
      <trkpt lat="42.4672630" lon="-8.6484820">
        <ele>18.2</ele>
        <time>2021-05-22T07:24:43Z</time>
      </trkpt>
      <trkpt lat="42.4672720" lon="-8.6484860">
        <ele>18.2</ele>
        <time>2021-05-22T07:24:44Z</time>
      </trkpt>
      <trkpt lat="42.4672800" lon="-8.6484890">
        <ele>18.2</ele>
        <time>2021-05-22T07:24:45Z</time>
      </trkpt>
      <trkpt lat="42.4672940" lon="-8.6484830">
        <ele>18.2</ele>
        <time>2021-05-22T07:24:46Z</time>
      </trkpt>
      <trkpt lat="42.4673100" lon="-8.6484820">
        <ele>18.2</ele>
        <time>2021-05-22T07:24:47Z</time>
      </trkpt>
      <trkpt lat="42.4673200" lon="-8.6484850">
        <ele>18.2</ele>
        <time>2021-05-22T07:24:48Z</time>
      </trkpt>
      <trkpt lat="42.4673310" lon="-8.6484890">
        <ele>18.2</ele>
        <time>2021-05-22T07:24:49Z</time>
      </trkpt>
      <trkpt lat="42.4673400" lon="-8.6484880">
        <ele>18.2</ele>
        <time>2021-05-22T07:24:50Z</time>
      </trkpt>
      <trkpt lat="42.4673530" lon="-8.6484850">
        <ele>18.1</ele>
        <time>2021-05-22T07:24:51Z</time>
      </trkpt>
      <trkpt lat="42.4673730" lon="-8.6484810">
        <ele>18.1</ele>
        <time>2021-05-22T07:24:52Z</time>
      </trkpt>
      <trkpt lat="42.4673880" lon="-8.6484730">
        <ele>18.1</ele>
        <time>2021-05-22T07:24:53Z</time>
      </trkpt>
      <trkpt lat="42.4674010" lon="-8.6484740">
        <ele>18.1</ele>
        <time>2021-05-22T07:24:54Z</time>
      </trkpt>
      <trkpt lat="42.4674130" lon="-8.6484730">
        <ele>18.1</ele>
        <time>2021-05-22T07:24:55Z</time>
      </trkpt>
      <trkpt lat="42.4674220" lon="-8.6484720">
        <ele>18.1</ele>
        <time>2021-05-22T07:24:56Z</time>
      </trkpt>
      <trkpt lat="42.4674350" lon="-8.6484700">
        <ele>18.1</ele>
        <time>2021-05-22T07:24:57Z</time>
      </trkpt>
      <trkpt lat="42.4674400" lon="-8.6484690">
        <ele>18.1</ele>
        <time>2021-05-22T07:24:58Z</time>
      </trkpt>
      <trkpt lat="42.4674550" lon="-8.6484660">
        <ele>18.1</ele>
        <time>2021-05-22T07:24:59Z</time>
      </trkpt>
      <trkpt lat="42.4674660" lon="-8.6484620">
        <ele>18.1</ele>
        <time>2021-05-22T07:25:00Z</time>
      </trkpt>
      <trkpt lat="42.4674890" lon="-8.6484510">
        <ele>18.1</ele>
        <time>2021-05-22T07:25:01Z</time>
      </trkpt>
      <trkpt lat="42.4674990" lon="-8.6484460">
        <ele>18.1</ele>
        <time>2021-05-22T07:25:02Z</time>
      </trkpt>
      <trkpt lat="42.4675080" lon="-8.6484410">
        <ele>18.1</ele>
        <time>2021-05-22T07:25:03Z</time>
      </trkpt>
      <trkpt lat="42.4675190" lon="-8.6484340">
        <ele>18.1</ele>
        <time>2021-05-22T07:25:04Z</time>
      </trkpt>
      <trkpt lat="42.4675370" lon="-8.6484230">
        <ele>18.1</ele>
        <time>2021-05-22T07:25:05Z</time>
      </trkpt>
      <trkpt lat="42.4675500" lon="-8.6484190">
        <ele>18.1</ele>
        <time>2021-05-22T07:25:06Z</time>
      </trkpt>
      <trkpt lat="42.4675670" lon="-8.6484130">
        <ele>18.1</ele>
        <time>2021-05-22T07:25:07Z</time>
      </trkpt>
      <trkpt lat="42.4675730" lon="-8.6484080">
        <ele>18.1</ele>
        <time>2021-05-22T07:25:08Z</time>
      </trkpt>
      <trkpt lat="42.4675830" lon="-8.6484000">
        <ele>18.1</ele>
        <time>2021-05-22T07:25:09Z</time>
      </trkpt>
      <trkpt lat="42.4675990" lon="-8.6484000">
        <ele>18.1</ele>
        <time>2021-05-22T07:25:10Z</time>
      </trkpt>
      <trkpt lat="42.4676080" lon="-8.6483920">
        <ele>18.1</ele>
        <time>2021-05-22T07:25:11Z</time>
      </trkpt>
      <trkpt lat="42.4676190" lon="-8.6483870">
        <ele>18.1</ele>
        <time>2021-05-22T07:25:12Z</time>
      </trkpt>
      <trkpt lat="42.4676310" lon="-8.6483770">
        <ele>18.1</ele>
        <time>2021-05-22T07:25:13Z</time>
      </trkpt>
      <trkpt lat="42.4676460" lon="-8.6483680">
        <ele>18.1</ele>
        <time>2021-05-22T07:25:14Z</time>
      </trkpt>
      <trkpt lat="42.4676610" lon="-8.6483620">
        <ele>18.1</ele>
        <time>2021-05-22T07:25:15Z</time>
      </trkpt>
      <trkpt lat="42.4676720" lon="-8.6483550">
        <ele>18.1</ele>
        <time>2021-05-22T07:25:16Z</time>
      </trkpt>
      <trkpt lat="42.4676870" lon="-8.6483460">
        <ele>18.1</ele>
        <time>2021-05-22T07:25:17Z</time>
      </trkpt>
      <trkpt lat="42.4677010" lon="-8.6483390">
        <ele>18.1</ele>
        <time>2021-05-22T07:25:18Z</time>
      </trkpt>
      <trkpt lat="42.4677130" lon="-8.6483310">
        <ele>18.1</ele>
        <time>2021-05-22T07:25:19Z</time>
      </trkpt>
      <trkpt lat="42.4677330" lon="-8.6483230">
        <ele>18.1</ele>
        <time>2021-05-22T07:25:20Z</time>
      </trkpt>
      <trkpt lat="42.4677440" lon="-8.6483260">
        <ele>18.1</ele>
        <time>2021-05-22T07:25:21Z</time>
      </trkpt>
      <trkpt lat="42.4677510" lon="-8.6483220">
        <ele>18.1</ele>
        <time>2021-05-22T07:25:22Z</time>
      </trkpt>
      <trkpt lat="42.4677590" lon="-8.6483190">
        <ele>18.1</ele>
        <time>2021-05-22T07:25:23Z</time>
      </trkpt>
      <trkpt lat="42.4677700" lon="-8.6483160">
        <ele>18.1</ele>
        <time>2021-05-22T07:25:24Z</time>
      </trkpt>
      <trkpt lat="42.4677860" lon="-8.6483100">
        <ele>18.1</ele>
        <time>2021-05-22T07:25:25Z</time>
      </trkpt>
      <trkpt lat="42.4677930" lon="-8.6483070">
        <ele>18.1</ele>
        <time>2021-05-22T07:25:26Z</time>
      </trkpt>
      <trkpt lat="42.4678030" lon="-8.6483000">
        <ele>18.1</ele>
        <time>2021-05-22T07:25:27Z</time>
      </trkpt>
      <trkpt lat="42.4678160" lon="-8.6482920">
        <ele>18.1</ele>
        <time>2021-05-22T07:25:28Z</time>
      </trkpt>
      <trkpt lat="42.4678310" lon="-8.6482910">
        <ele>18.2</ele>
        <time>2021-05-22T07:25:29Z</time>
      </trkpt>
      <trkpt lat="42.4678520" lon="-8.6482840">
        <ele>18.2</ele>
        <time>2021-05-22T07:25:30Z</time>
      </trkpt>
      <trkpt lat="42.4678600" lon="-8.6482830">
        <ele>18.2</ele>
        <time>2021-05-22T07:25:31Z</time>
      </trkpt>
      <trkpt lat="42.4678680" lon="-8.6482830">
        <ele>18.2</ele>
        <time>2021-05-22T07:25:32Z</time>
      </trkpt>
      <trkpt lat="42.4678860" lon="-8.6482790">
        <ele>18.2</ele>
        <time>2021-05-22T07:25:33Z</time>
      </trkpt>
      <trkpt lat="42.4678920" lon="-8.6482780">
        <ele>18.2</ele>
        <time>2021-05-22T07:25:34Z</time>
      </trkpt>
      <trkpt lat="42.4678950" lon="-8.6482780">
        <ele>18.2</ele>
        <time>2021-05-22T07:25:35Z</time>
      </trkpt>
      <trkpt lat="42.4679050" lon="-8.6482800">
        <ele>18.2</ele>
        <time>2021-05-22T07:25:36Z</time>
      </trkpt>
      <trkpt lat="42.4679270" lon="-8.6482790">
        <ele>18.2</ele>
        <time>2021-05-22T07:25:37Z</time>
      </trkpt>
      <trkpt lat="42.4679480" lon="-8.6482830">
        <ele>18.2</ele>
        <time>2021-05-22T07:25:38Z</time>
      </trkpt>
      <trkpt lat="42.4679570" lon="-8.6482850">
        <ele>18.2</ele>
        <time>2021-05-22T07:25:39Z</time>
      </trkpt>
      <trkpt lat="42.4679670" lon="-8.6482870">
        <ele>18.3</ele>
        <time>2021-05-22T07:25:40Z</time>
      </trkpt>
      <trkpt lat="42.4679750" lon="-8.6482880">
        <ele>18.3</ele>
        <time>2021-05-22T07:25:41Z</time>
      </trkpt>
      <trkpt lat="42.4679840" lon="-8.6482910">
        <ele>18.3</ele>
        <time>2021-05-22T07:25:42Z</time>
      </trkpt>
      <trkpt lat="42.4679980" lon="-8.6482940">
        <ele>18.3</ele>
        <time>2021-05-22T07:25:43Z</time>
      </trkpt>
      <trkpt lat="42.4680030" lon="-8.6482980">
        <ele>18.3</ele>
        <time>2021-05-22T07:25:44Z</time>
      </trkpt>
      <trkpt lat="42.4680150" lon="-8.6483050">
        <ele>18.3</ele>
        <time>2021-05-22T07:25:45Z</time>
      </trkpt>
      <trkpt lat="42.4680220" lon="-8.6483040">
        <ele>18.3</ele>
        <time>2021-05-22T07:25:46Z</time>
      </trkpt>
      <trkpt lat="42.4680270" lon="-8.6483000">
        <ele>18.3</ele>
        <time>2021-05-22T07:25:47Z</time>
      </trkpt>
      <trkpt lat="42.4680360" lon="-8.6482950">
        <ele>18.3</ele>
        <time>2021-05-22T07:25:48Z</time>
      </trkpt>
      <trkpt lat="42.4680440" lon="-8.6482950">
        <ele>18.3</ele>
        <time>2021-05-22T07:25:49Z</time>
      </trkpt>
      <trkpt lat="42.4680520" lon="-8.6482960">
        <ele>18.3</ele>
        <time>2021-05-22T07:25:50Z</time>
      </trkpt>
      <trkpt lat="42.4680600" lon="-8.6482970">
        <ele>18.3</ele>
        <time>2021-05-22T07:25:51Z</time>
      </trkpt>
      <trkpt lat="42.4680680" lon="-8.6482970">
        <ele>18.3</ele>
        <time>2021-05-22T07:25:52Z</time>
      </trkpt>
      <trkpt lat="42.4680760" lon="-8.6482980">
        <ele>18.3</ele>
        <time>2021-05-22T07:25:53Z</time>
      </trkpt>
      <trkpt lat="42.4680850" lon="-8.6482990">
        <ele>18.3</ele>
        <time>2021-05-22T07:25:54Z</time>
      </trkpt>
      <trkpt lat="42.4680930" lon="-8.6482990">
        <ele>18.3</ele>
        <time>2021-05-22T07:25:55Z</time>
      </trkpt>
      <trkpt lat="42.4681010" lon="-8.6483000">
        <ele>18.3</ele>
        <time>2021-05-22T07:25:56Z</time>
      </trkpt>
      <trkpt lat="42.4681090" lon="-8.6483010">
        <ele>18.4</ele>
        <time>2021-05-22T07:25:57Z</time>
      </trkpt>
      <trkpt lat="42.4681170" lon="-8.6483010">
        <ele>18.4</ele>
        <time>2021-05-22T07:25:58Z</time>
      </trkpt>
      <trkpt lat="42.4681250" lon="-8.6483020">
        <ele>18.4</ele>
        <time>2021-05-22T07:25:59Z</time>
      </trkpt>
      <trkpt lat="42.4681330" lon="-8.6483030">
        <ele>18.4</ele>
        <time>2021-05-22T07:26:00Z</time>
      </trkpt>
      <trkpt lat="42.4681410" lon="-8.6483030">
        <ele>18.4</ele>
        <time>2021-05-22T07:26:01Z</time>
      </trkpt>
      <trkpt lat="42.4681490" lon="-8.6483040">
        <ele>18.4</ele>
        <time>2021-05-22T07:26:02Z</time>
      </trkpt>
      <trkpt lat="42.4681570" lon="-8.6483050">
        <ele>18.4</ele>
        <time>2021-05-22T07:26:03Z</time>
      </trkpt>
      <trkpt lat="42.4681650" lon="-8.6483060">
        <ele>18.4</ele>
        <time>2021-05-22T07:26:04Z</time>
      </trkpt>
      <trkpt lat="42.4681730" lon="-8.6483060">
        <ele>18.4</ele>
        <time>2021-05-22T07:26:05Z</time>
      </trkpt>
      <trkpt lat="42.4681810" lon="-8.6483070">
        <ele>18.4</ele>
        <time>2021-05-22T07:26:06Z</time>
      </trkpt>
      <trkpt lat="42.4681890" lon="-8.6483080">
        <ele>18.4</ele>
        <time>2021-05-22T07:26:07Z</time>
      </trkpt>
      <trkpt lat="42.4681980" lon="-8.6483080">
        <ele>18.4</ele>
        <time>2021-05-22T07:26:08Z</time>
      </trkpt>
      <trkpt lat="42.4682060" lon="-8.6483090">
        <ele>18.4</ele>
        <time>2021-05-22T07:26:09Z</time>
      </trkpt>
      <trkpt lat="42.4682140" lon="-8.6483100">
        <ele>18.4</ele>
        <time>2021-05-22T07:26:10Z</time>
      </trkpt>
      <trkpt lat="42.4682220" lon="-8.6483100">
        <ele>18.4</ele>
        <time>2021-05-22T07:26:11Z</time>
      </trkpt>
      <trkpt lat="42.4682300" lon="-8.6483110">
        <ele>18.4</ele>
        <time>2021-05-22T07:26:12Z</time>
      </trkpt>
      <trkpt lat="42.4682380" lon="-8.6483120">
        <ele>18.4</ele>
        <time>2021-05-22T07:26:13Z</time>
      </trkpt>
      <trkpt lat="42.4682460" lon="-8.6483120">
        <ele>18.4</ele>
        <time>2021-05-22T07:26:14Z</time>
      </trkpt>
      <trkpt lat="42.4682540" lon="-8.6483130">
        <ele>18.4</ele>
        <time>2021-05-22T07:26:15Z</time>
      </trkpt>
      <trkpt lat="42.4682660" lon="-8.6483130">
        <ele>18.4</ele>
        <time>2021-05-22T07:26:16Z</time>
      </trkpt>
      <trkpt lat="42.4682790" lon="-8.6483150">
        <ele>18.4</ele>
        <time>2021-05-22T07:26:17Z</time>
      </trkpt>
      <trkpt lat="42.4682840" lon="-8.6483130">
        <ele>18.4</ele>
        <time>2021-05-22T07:26:18Z</time>
      </trkpt>
      <trkpt lat="42.4683030" lon="-8.6483140">
        <ele>18.4</ele>
        <time>2021-05-22T07:26:19Z</time>
      </trkpt>
      <trkpt lat="42.4683110" lon="-8.6483150">
        <ele>18.4</ele>
        <time>2021-05-22T07:26:20Z</time>
      </trkpt>
      <trkpt lat="42.4683180" lon="-8.6483170">
        <ele>18.4</ele>
        <time>2021-05-22T07:26:21Z</time>
      </trkpt>
      <trkpt lat="42.4683250" lon="-8.6483190">
        <ele>18.4</ele>
        <time>2021-05-22T07:26:22Z</time>
      </trkpt>
      <trkpt lat="42.4683330" lon="-8.6483270">
        <ele>18.4</ele>
        <time>2021-05-22T07:26:23Z</time>
      </trkpt>
      <trkpt lat="42.4683390" lon="-8.6483410">
        <ele>18.5</ele>
        <time>2021-05-22T07:26:24Z</time>
      </trkpt>
      <trkpt lat="42.4683410" lon="-8.6483420">
        <ele>18.5</ele>
        <time>2021-05-22T07:26:25Z</time>
      </trkpt>
      <trkpt lat="42.4683470" lon="-8.6483390">
        <ele>18.5</ele>
        <time>2021-05-22T07:26:26Z</time>
      </trkpt>
      <trkpt lat="42.4683550" lon="-8.6483430">
        <ele>18.5</ele>
        <time>2021-05-22T07:26:27Z</time>
      </trkpt>
      <trkpt lat="42.4683730" lon="-8.6483510">
        <ele>18.5</ele>
        <time>2021-05-22T07:26:28Z</time>
      </trkpt>
      <trkpt lat="42.4683870" lon="-8.6483500">
        <ele>18.5</ele>
        <time>2021-05-22T07:26:29Z</time>
      </trkpt>
      <trkpt lat="42.4684030" lon="-8.6483480">
        <ele>18.5</ele>
        <time>2021-05-22T07:26:30Z</time>
      </trkpt>
      <trkpt lat="42.4684140" lon="-8.6483460">
        <ele>18.5</ele>
        <time>2021-05-22T07:26:31Z</time>
      </trkpt>
      <trkpt lat="42.4684320" lon="-8.6483510">
        <ele>18.5</ele>
        <time>2021-05-22T07:26:32Z</time>
      </trkpt>
      <trkpt lat="42.4684430" lon="-8.6483540">
        <ele>18.5</ele>
        <time>2021-05-22T07:26:33Z</time>
      </trkpt>
      <trkpt lat="42.4684560" lon="-8.6483500">
        <ele>18.5</ele>
        <time>2021-05-22T07:26:34Z</time>
      </trkpt>
      <trkpt lat="42.4684700" lon="-8.6483450">
        <ele>18.5</ele>
        <time>2021-05-22T07:26:35Z</time>
      </trkpt>
      <trkpt lat="42.4684730" lon="-8.6483390">
        <ele>18.5</ele>
        <time>2021-05-22T07:26:36Z</time>
      </trkpt>
      <trkpt lat="42.4684900" lon="-8.6483370">
        <ele>18.5</ele>
        <time>2021-05-22T07:26:37Z</time>
      </trkpt>
      <trkpt lat="42.4685010" lon="-8.6483320">
        <ele>18.5</ele>
        <time>2021-05-22T07:26:38Z</time>
      </trkpt>
      <trkpt lat="42.4685100" lon="-8.6483310">
        <ele>18.5</ele>
        <time>2021-05-22T07:26:39Z</time>
      </trkpt>
      <trkpt lat="42.4685180" lon="-8.6483310">
        <ele>18.5</ele>
        <time>2021-05-22T07:26:40Z</time>
      </trkpt>
      <trkpt lat="42.4685280" lon="-8.6483320">
        <ele>18.5</ele>
        <time>2021-05-22T07:26:41Z</time>
      </trkpt>
      <trkpt lat="42.4685340" lon="-8.6483300">
        <ele>18.5</ele>
        <time>2021-05-22T07:26:42Z</time>
      </trkpt>
      <trkpt lat="42.4685500" lon="-8.6483300">
        <ele>18.5</ele>
        <time>2021-05-22T07:26:43Z</time>
      </trkpt>
      <trkpt lat="42.4685610" lon="-8.6483300">
        <ele>18.5</ele>
        <time>2021-05-22T07:26:44Z</time>
      </trkpt>
      <trkpt lat="42.4685780" lon="-8.6483300">
        <ele>18.5</ele>
        <time>2021-05-22T07:26:45Z</time>
      </trkpt>
      <trkpt lat="42.4685880" lon="-8.6483300">
        <ele>18.5</ele>
        <time>2021-05-22T07:26:46Z</time>
      </trkpt>
      <trkpt lat="42.4685990" lon="-8.6483300">
        <ele>18.5</ele>
        <time>2021-05-22T07:26:47Z</time>
      </trkpt>
      <trkpt lat="42.4686150" lon="-8.6483310">
        <ele>18.5</ele>
        <time>2021-05-22T07:26:48Z</time>
      </trkpt>
      <trkpt lat="42.4686220" lon="-8.6483260">
        <ele>18.5</ele>
        <time>2021-05-22T07:26:49Z</time>
      </trkpt>
      <trkpt lat="42.4686290" lon="-8.6483300">
        <ele>18.5</ele>
        <time>2021-05-22T07:26:50Z</time>
      </trkpt>
      <trkpt lat="42.4686490" lon="-8.6483200">
        <ele>18.5</ele>
        <time>2021-05-22T07:26:51Z</time>
      </trkpt>
      <trkpt lat="42.4686550" lon="-8.6483100">
        <ele>18.5</ele>
        <time>2021-05-22T07:26:52Z</time>
      </trkpt>
      <trkpt lat="42.4686620" lon="-8.6483010">
        <ele>18.5</ele>
        <time>2021-05-22T07:26:53Z</time>
      </trkpt>
      <trkpt lat="42.4686680" lon="-8.6482790">
        <ele>18.5</ele>
        <time>2021-05-22T07:26:54Z</time>
      </trkpt>
      <trkpt lat="42.4686740" lon="-8.6482670">
        <ele>18.5</ele>
        <time>2021-05-22T07:26:55Z</time>
      </trkpt>
      <trkpt lat="42.4686820" lon="-8.6482540">
        <ele>18.5</ele>
        <time>2021-05-22T07:26:56Z</time>
      </trkpt>
      <trkpt lat="42.4686920" lon="-8.6482380">
        <ele>18.5</ele>
        <time>2021-05-22T07:26:57Z</time>
      </trkpt>
      <trkpt lat="42.4687010" lon="-8.6482280">
        <ele>18.5</ele>
        <time>2021-05-22T07:26:58Z</time>
      </trkpt>
      <trkpt lat="42.4687130" lon="-8.6482290">
        <ele>18.5</ele>
        <time>2021-05-22T07:26:59Z</time>
      </trkpt>
      <trkpt lat="42.4687180" lon="-8.6482260">
        <ele>18.5</ele>
        <time>2021-05-22T07:27:00Z</time>
      </trkpt>
      <trkpt lat="42.4687260" lon="-8.6482240">
        <ele>18.5</ele>
        <time>2021-05-22T07:27:01Z</time>
      </trkpt>
      <trkpt lat="42.4687380" lon="-8.6482240">
        <ele>18.5</ele>
        <time>2021-05-22T07:27:02Z</time>
      </trkpt>
      <trkpt lat="42.4687460" lon="-8.6482250">
        <ele>18.5</ele>
        <time>2021-05-22T07:27:03Z</time>
      </trkpt>
      <trkpt lat="42.4687540" lon="-8.6482250">
        <ele>18.5</ele>
        <time>2021-05-22T07:27:04Z</time>
      </trkpt>
      <trkpt lat="42.4687650" lon="-8.6482280">
        <ele>18.5</ele>
        <time>2021-05-22T07:27:05Z</time>
      </trkpt>
      <trkpt lat="42.4687740" lon="-8.6482340">
        <ele>18.5</ele>
        <time>2021-05-22T07:27:06Z</time>
      </trkpt>
      <trkpt lat="42.4687870" lon="-8.6482340">
        <ele>18.6</ele>
        <time>2021-05-22T07:27:07Z</time>
      </trkpt>
      <trkpt lat="42.4687970" lon="-8.6482380">
        <ele>18.6</ele>
        <time>2021-05-22T07:27:08Z</time>
      </trkpt>
      <trkpt lat="42.4688110" lon="-8.6482430">
        <ele>18.6</ele>
        <time>2021-05-22T07:27:09Z</time>
      </trkpt>
      <trkpt lat="42.4688190" lon="-8.6482440">
        <ele>18.6</ele>
        <time>2021-05-22T07:27:10Z</time>
      </trkpt>
      <trkpt lat="42.4688330" lon="-8.6482480">
        <ele>18.6</ele>
        <time>2021-05-22T07:27:11Z</time>
      </trkpt>
      <trkpt lat="42.4688460" lon="-8.6482500">
        <ele>18.6</ele>
        <time>2021-05-22T07:27:12Z</time>
      </trkpt>
      <trkpt lat="42.4688600" lon="-8.6482540">
        <ele>18.6</ele>
        <time>2021-05-22T07:27:13Z</time>
      </trkpt>
      <trkpt lat="42.4688730" lon="-8.6482590">
        <ele>18.6</ele>
        <time>2021-05-22T07:27:14Z</time>
      </trkpt>
      <trkpt lat="42.4688940" lon="-8.6482600">
        <ele>18.6</ele>
        <time>2021-05-22T07:27:15Z</time>
      </trkpt>
      <trkpt lat="42.4689020" lon="-8.6482590">
        <ele>18.6</ele>
        <time>2021-05-22T07:27:16Z</time>
      </trkpt>
      <trkpt lat="42.4689110" lon="-8.6482570">
        <ele>18.6</ele>
        <time>2021-05-22T07:27:17Z</time>
      </trkpt>
      <trkpt lat="42.4689240" lon="-8.6482590">
        <ele>18.6</ele>
        <time>2021-05-22T07:27:18Z</time>
      </trkpt>
      <trkpt lat="42.4689300" lon="-8.6482600">
        <ele>18.6</ele>
        <time>2021-05-22T07:27:19Z</time>
      </trkpt>
      <trkpt lat="42.4689420" lon="-8.6482650">
        <ele>18.6</ele>
        <time>2021-05-22T07:27:20Z</time>
      </trkpt>
      <trkpt lat="42.4689570" lon="-8.6482660">
        <ele>18.6</ele>
        <time>2021-05-22T07:27:21Z</time>
      </trkpt>
      <trkpt lat="42.4689690" lon="-8.6482620">
        <ele>18.7</ele>
        <time>2021-05-22T07:27:22Z</time>
      </trkpt>
      <trkpt lat="42.4689830" lon="-8.6482650">
        <ele>18.7</ele>
        <time>2021-05-22T07:27:23Z</time>
      </trkpt>
      <trkpt lat="42.4689990" lon="-8.6482590">
        <ele>18.7</ele>
        <time>2021-05-22T07:27:24Z</time>
      </trkpt>
      <trkpt lat="42.4690170" lon="-8.6482580">
        <ele>18.7</ele>
        <time>2021-05-22T07:27:25Z</time>
      </trkpt>
      <trkpt lat="42.4690310" lon="-8.6482510">
        <ele>18.7</ele>
        <time>2021-05-22T07:27:26Z</time>
      </trkpt>
      <trkpt lat="42.4690370" lon="-8.6482520">
        <ele>18.7</ele>
        <time>2021-05-22T07:27:27Z</time>
      </trkpt>
      <trkpt lat="42.4690510" lon="-8.6482560">
        <ele>18.7</ele>
        <time>2021-05-22T07:27:28Z</time>
      </trkpt>
      <trkpt lat="42.4690640" lon="-8.6482500">
        <ele>18.7</ele>
        <time>2021-05-22T07:27:29Z</time>
      </trkpt>
      <trkpt lat="42.4690780" lon="-8.6482530">
        <ele>18.7</ele>
        <time>2021-05-22T07:27:30Z</time>
      </trkpt>
      <trkpt lat="42.4690960" lon="-8.6482570">
        <ele>18.7</ele>
        <time>2021-05-22T07:27:31Z</time>
      </trkpt>
      <trkpt lat="42.4691110" lon="-8.6482740">
        <ele>18.8</ele>
        <time>2021-05-22T07:27:32Z</time>
      </trkpt>
      <trkpt lat="42.4691190" lon="-8.6482800">
        <ele>18.8</ele>
        <time>2021-05-22T07:27:33Z</time>
      </trkpt>
      <trkpt lat="42.4691260" lon="-8.6482850">
        <ele>18.8</ele>
        <time>2021-05-22T07:27:34Z</time>
      </trkpt>
      <trkpt lat="42.4691370" lon="-8.6482940">
        <ele>18.9</ele>
        <time>2021-05-22T07:27:35Z</time>
      </trkpt>
      <trkpt lat="42.4691500" lon="-8.6483110">
        <ele>18.9</ele>
        <time>2021-05-22T07:27:36Z</time>
      </trkpt>
      <trkpt lat="42.4691600" lon="-8.6483190">
        <ele>18.9</ele>
        <time>2021-05-22T07:27:37Z</time>
      </trkpt>
      <trkpt lat="42.4691670" lon="-8.6483270">
        <ele>18.9</ele>
        <time>2021-05-22T07:27:38Z</time>
      </trkpt>
      <trkpt lat="42.4691760" lon="-8.6483300">
        <ele>19.0</ele>
        <time>2021-05-22T07:27:39Z</time>
      </trkpt>
      <trkpt lat="42.4691850" lon="-8.6483360">
        <ele>19.0</ele>
        <time>2021-05-22T07:27:40Z</time>
      </trkpt>
      <trkpt lat="42.4691940" lon="-8.6483400">
        <ele>19.0</ele>
        <time>2021-05-22T07:27:41Z</time>
      </trkpt>
      <trkpt lat="42.4692110" lon="-8.6483400">
        <ele>19.0</ele>
        <time>2021-05-22T07:27:42Z</time>
      </trkpt>
      <trkpt lat="42.4692230" lon="-8.6483420">
        <ele>19.1</ele>
        <time>2021-05-22T07:27:43Z</time>
      </trkpt>
      <trkpt lat="42.4692380" lon="-8.6483450">
        <ele>19.1</ele>
        <time>2021-05-22T07:27:44Z</time>
      </trkpt>
      <trkpt lat="42.4692470" lon="-8.6483440">
        <ele>19.1</ele>
        <time>2021-05-22T07:27:45Z</time>
      </trkpt>
      <trkpt lat="42.4692580" lon="-8.6483400">
        <ele>19.1</ele>
        <time>2021-05-22T07:27:46Z</time>
      </trkpt>
      <trkpt lat="42.4692730" lon="-8.6483370">
        <ele>19.2</ele>
        <time>2021-05-22T07:27:47Z</time>
      </trkpt>
      <trkpt lat="42.4693000" lon="-8.6483440">
        <ele>19.2</ele>
        <time>2021-05-22T07:27:48Z</time>
      </trkpt>
      <trkpt lat="42.4693110" lon="-8.6483450">
        <ele>19.3</ele>
        <time>2021-05-22T07:27:49Z</time>
      </trkpt>
      <trkpt lat="42.4693250" lon="-8.6483510">
        <ele>19.3</ele>
        <time>2021-05-22T07:27:50Z</time>
      </trkpt>
      <trkpt lat="42.4693320" lon="-8.6483550">
        <ele>19.3</ele>
        <time>2021-05-22T07:27:51Z</time>
      </trkpt>
      <trkpt lat="42.4693440" lon="-8.6483570">
        <ele>19.4</ele>
        <time>2021-05-22T07:27:52Z</time>
      </trkpt>
      <trkpt lat="42.4693650" lon="-8.6483640">
        <ele>19.4</ele>
        <time>2021-05-22T07:27:53Z</time>
      </trkpt>
      <trkpt lat="42.4693750" lon="-8.6483720">
        <ele>19.4</ele>
        <time>2021-05-22T07:27:54Z</time>
      </trkpt>
      <trkpt lat="42.4693940" lon="-8.6483720">
        <ele>19.5</ele>
        <time>2021-05-22T07:27:55Z</time>
      </trkpt>
      <trkpt lat="42.4694110" lon="-8.6483780">
        <ele>19.5</ele>
        <time>2021-05-22T07:27:56Z</time>
      </trkpt>
      <trkpt lat="42.4694280" lon="-8.6483770">
        <ele>19.6</ele>
        <time>2021-05-22T07:27:57Z</time>
      </trkpt>
      <trkpt lat="42.4694380" lon="-8.6483760">
        <ele>19.6</ele>
        <time>2021-05-22T07:27:58Z</time>
      </trkpt>
      <trkpt lat="42.4694390" lon="-8.6483770">
        <ele>19.6</ele>
        <time>2021-05-22T07:27:59Z</time>
      </trkpt>
      <trkpt lat="42.4694460" lon="-8.6483790">
        <ele>19.6</ele>
        <time>2021-05-22T07:28:00Z</time>
      </trkpt>
      <trkpt lat="42.4694580" lon="-8.6483770">
        <ele>19.7</ele>
        <time>2021-05-22T07:28:01Z</time>
      </trkpt>
      <trkpt lat="42.4694670" lon="-8.6483750">
        <ele>19.7</ele>
        <time>2021-05-22T07:28:02Z</time>
      </trkpt>
      <trkpt lat="42.4694870" lon="-8.6483700">
        <ele>19.8</ele>
        <time>2021-05-22T07:28:03Z</time>
      </trkpt>
      <trkpt lat="42.4694970" lon="-8.6483720">
        <ele>19.8</ele>
        <time>2021-05-22T07:28:04Z</time>
      </trkpt>
      <trkpt lat="42.4695080" lon="-8.6483740">
        <ele>19.8</ele>
        <time>2021-05-22T07:28:05Z</time>
      </trkpt>
      <trkpt lat="42.4695140" lon="-8.6483760">
        <ele>19.9</ele>
        <time>2021-05-22T07:28:06Z</time>
      </trkpt>
      <trkpt lat="42.4695250" lon="-8.6483810">
        <ele>19.9</ele>
        <time>2021-05-22T07:28:07Z</time>
      </trkpt>
      <trkpt lat="42.4695420" lon="-8.6483840">
        <ele>20.0</ele>
        <time>2021-05-22T07:28:08Z</time>
      </trkpt>
      <trkpt lat="42.4695510" lon="-8.6483860">
        <ele>20.0</ele>
        <time>2021-05-22T07:28:09Z</time>
      </trkpt>
      <trkpt lat="42.4695630" lon="-8.6483860">
        <ele>20.0</ele>
        <time>2021-05-22T07:28:10Z</time>
      </trkpt>
      <trkpt lat="42.4695770" lon="-8.6483870">
        <ele>20.1</ele>
        <time>2021-05-22T07:28:11Z</time>
      </trkpt>
      <trkpt lat="42.4695820" lon="-8.6483930">
        <ele>20.1</ele>
        <time>2021-05-22T07:28:12Z</time>
      </trkpt>
      <trkpt lat="42.4695900" lon="-8.6483930">
        <ele>20.1</ele>
        <time>2021-05-22T07:28:13Z</time>
      </trkpt>
      <trkpt lat="42.4696080" lon="-8.6483960">
        <ele>20.2</ele>
        <time>2021-05-22T07:28:14Z</time>
      </trkpt>
      <trkpt lat="42.4696200" lon="-8.6484030">
        <ele>20.2</ele>
        <time>2021-05-22T07:28:15Z</time>
      </trkpt>
      <trkpt lat="42.4696340" lon="-8.6484120">
        <ele>20.3</ele>
        <time>2021-05-22T07:28:16Z</time>
      </trkpt>
      <trkpt lat="42.4696460" lon="-8.6484130">
        <ele>20.3</ele>
        <time>2021-05-22T07:28:17Z</time>
      </trkpt>
      <trkpt lat="42.4696550" lon="-8.6484170">
        <ele>20.3</ele>
        <time>2021-05-22T07:28:18Z</time>
      </trkpt>
      <trkpt lat="42.4696670" lon="-8.6484240">
        <ele>20.4</ele>
        <time>2021-05-22T07:28:19Z</time>
      </trkpt>
      <trkpt lat="42.4696790" lon="-8.6484260">
        <ele>20.4</ele>
        <time>2021-05-22T07:28:20Z</time>
      </trkpt>
      <trkpt lat="42.4696890" lon="-8.6484310">
        <ele>20.5</ele>
        <time>2021-05-22T07:28:21Z</time>
      </trkpt>
      <trkpt lat="42.4696950" lon="-8.6484360">
        <ele>20.5</ele>
        <time>2021-05-22T07:28:22Z</time>
      </trkpt>
      <trkpt lat="42.4696990" lon="-8.6484330">
        <ele>20.5</ele>
        <time>2021-05-22T07:28:23Z</time>
      </trkpt>
      <trkpt lat="42.4697060" lon="-8.6484350">
        <ele>20.5</ele>
        <time>2021-05-22T07:28:24Z</time>
      </trkpt>
      <trkpt lat="42.4697220" lon="-8.6484390">
        <ele>20.6</ele>
        <time>2021-05-22T07:28:25Z</time>
      </trkpt>
      <trkpt lat="42.4697380" lon="-8.6484430">
        <ele>20.6</ele>
        <time>2021-05-22T07:28:26Z</time>
      </trkpt>
      <trkpt lat="42.4697520" lon="-8.6484470">
        <ele>20.7</ele>
        <time>2021-05-22T07:28:27Z</time>
      </trkpt>
      <trkpt lat="42.4697630" lon="-8.6484490">
        <ele>20.7</ele>
        <time>2021-05-22T07:28:28Z</time>
      </trkpt>
      <trkpt lat="42.4697790" lon="-8.6484520">
        <ele>20.8</ele>
        <time>2021-05-22T07:28:29Z</time>
      </trkpt>
      <trkpt lat="42.4697930" lon="-8.6484520">
        <ele>20.8</ele>
        <time>2021-05-22T07:28:30Z</time>
      </trkpt>
      <trkpt lat="42.4698070" lon="-8.6484560">
        <ele>20.9</ele>
        <time>2021-05-22T07:28:31Z</time>
      </trkpt>
      <trkpt lat="42.4698240" lon="-8.6484570">
        <ele>20.9</ele>
        <time>2021-05-22T07:28:32Z</time>
      </trkpt>
      <trkpt lat="42.4698430" lon="-8.6484550">
        <ele>21.0</ele>
        <time>2021-05-22T07:28:33Z</time>
      </trkpt>
      <trkpt lat="42.4698610" lon="-8.6484590">
        <ele>21.1</ele>
        <time>2021-05-22T07:28:34Z</time>
      </trkpt>
      <trkpt lat="42.4698660" lon="-8.6484620">
        <ele>21.1</ele>
        <time>2021-05-22T07:28:35Z</time>
      </trkpt>
      <trkpt lat="42.4698720" lon="-8.6484600">
        <ele>21.1</ele>
        <time>2021-05-22T07:28:36Z</time>
      </trkpt>
      <trkpt lat="42.4698940" lon="-8.6484670">
        <ele>21.2</ele>
        <time>2021-05-22T07:28:37Z</time>
      </trkpt>
      <trkpt lat="42.4699020" lon="-8.6484680">
        <ele>21.2</ele>
        <time>2021-05-22T07:28:38Z</time>
      </trkpt>
      <trkpt lat="42.4699100" lon="-8.6484700">
        <ele>21.3</ele>
        <time>2021-05-22T07:28:39Z</time>
      </trkpt>
      <trkpt lat="42.4699230" lon="-8.6484730">
        <ele>21.3</ele>
        <time>2021-05-22T07:28:40Z</time>
      </trkpt>
      <trkpt lat="42.4699330" lon="-8.6484750">
        <ele>21.4</ele>
        <time>2021-05-22T07:28:41Z</time>
      </trkpt>
      <trkpt lat="42.4699440" lon="-8.6484780">
        <ele>21.4</ele>
        <time>2021-05-22T07:28:42Z</time>
      </trkpt>
      <trkpt lat="42.4699560" lon="-8.6484780">
        <ele>21.5</ele>
        <time>2021-05-22T07:28:43Z</time>
      </trkpt>
      <trkpt lat="42.4699630" lon="-8.6484810">
        <ele>21.5</ele>
        <time>2021-05-22T07:28:44Z</time>
      </trkpt>
      <trkpt lat="42.4699730" lon="-8.6484740">
        <ele>21.6</ele>
        <time>2021-05-22T07:28:45Z</time>
      </trkpt>
      <trkpt lat="42.4699840" lon="-8.6484760">
        <ele>21.6</ele>
        <time>2021-05-22T07:28:46Z</time>
      </trkpt>
      <trkpt lat="42.4699930" lon="-8.6484750">
        <ele>21.6</ele>
        <time>2021-05-22T07:28:47Z</time>
      </trkpt>
      <trkpt lat="42.4700070" lon="-8.6484690">
        <ele>21.7</ele>
        <time>2021-05-22T07:28:48Z</time>
      </trkpt>
      <trkpt lat="42.4700290" lon="-8.6484720">
        <ele>21.8</ele>
        <time>2021-05-22T07:28:49Z</time>
      </trkpt>
      <trkpt lat="42.4700380" lon="-8.6484710">
        <ele>21.9</ele>
        <time>2021-05-22T07:28:50Z</time>
      </trkpt>
      <trkpt lat="42.4700470" lon="-8.6484700">
        <ele>21.9</ele>
        <time>2021-05-22T07:28:51Z</time>
      </trkpt>
      <trkpt lat="42.4700590" lon="-8.6484730">
        <ele>22.0</ele>
        <time>2021-05-22T07:28:52Z</time>
      </trkpt>
      <trkpt lat="42.4700670" lon="-8.6484740">
        <ele>22.0</ele>
        <time>2021-05-22T07:28:53Z</time>
      </trkpt>
      <trkpt lat="42.4700760" lon="-8.6484730">
        <ele>22.1</ele>
        <time>2021-05-22T07:28:54Z</time>
      </trkpt>
      <trkpt lat="42.4700870" lon="-8.6484700">
        <ele>22.1</ele>
        <time>2021-05-22T07:28:55Z</time>
      </trkpt>
      <trkpt lat="42.4701010" lon="-8.6484710">
        <ele>22.2</ele>
        <time>2021-05-22T07:28:56Z</time>
      </trkpt>
      <trkpt lat="42.4701120" lon="-8.6484720">
        <ele>22.2</ele>
        <time>2021-05-22T07:28:57Z</time>
      </trkpt>
      <trkpt lat="42.4701240" lon="-8.6484700">
        <ele>22.3</ele>
        <time>2021-05-22T07:28:58Z</time>
      </trkpt>
      <trkpt lat="42.4701400" lon="-8.6484700">
        <ele>22.4</ele>
        <time>2021-05-22T07:28:59Z</time>
      </trkpt>
      <trkpt lat="42.4701610" lon="-8.6484660">
        <ele>22.5</ele>
        <time>2021-05-22T07:29:00Z</time>
      </trkpt>
      <trkpt lat="42.4701700" lon="-8.6484640">
        <ele>22.5</ele>
        <time>2021-05-22T07:29:01Z</time>
      </trkpt>
      <trkpt lat="42.4701790" lon="-8.6484630">
        <ele>22.6</ele>
        <time>2021-05-22T07:29:02Z</time>
      </trkpt>
      <trkpt lat="42.4701890" lon="-8.6484660">
        <ele>22.6</ele>
        <time>2021-05-22T07:29:03Z</time>
      </trkpt>
      <trkpt lat="42.4702010" lon="-8.6484650">
        <ele>22.7</ele>
        <time>2021-05-22T07:29:04Z</time>
      </trkpt>
      <trkpt lat="42.4702110" lon="-8.6484670">
        <ele>22.8</ele>
        <time>2021-05-22T07:29:05Z</time>
      </trkpt>
      <trkpt lat="42.4702210" lon="-8.6484680">
        <ele>22.8</ele>
        <time>2021-05-22T07:29:06Z</time>
      </trkpt>
      <trkpt lat="42.4702230" lon="-8.6484640">
        <ele>22.8</ele>
        <time>2021-05-22T07:29:07Z</time>
      </trkpt>
      <trkpt lat="42.4702400" lon="-8.6484620">
        <ele>22.9</ele>
        <time>2021-05-22T07:29:08Z</time>
      </trkpt>
      <trkpt lat="42.4702530" lon="-8.6484600">
        <ele>23.0</ele>
        <time>2021-05-22T07:29:09Z</time>
      </trkpt>
      <trkpt lat="42.4702680" lon="-8.6484540">
        <ele>23.1</ele>
        <time>2021-05-22T07:29:10Z</time>
      </trkpt>
      <trkpt lat="42.4702830" lon="-8.6484510">
        <ele>23.1</ele>
        <time>2021-05-22T07:29:11Z</time>
      </trkpt>
      <trkpt lat="42.4702950" lon="-8.6484490">
        <ele>23.2</ele>
        <time>2021-05-22T07:29:12Z</time>
      </trkpt>
      <trkpt lat="42.4703190" lon="-8.6484440">
        <ele>23.3</ele>
        <time>2021-05-22T07:29:13Z</time>
      </trkpt>
      <trkpt lat="42.4703300" lon="-8.6484420">
        <ele>23.4</ele>
        <time>2021-05-22T07:29:14Z</time>
      </trkpt>
      <trkpt lat="42.4703410" lon="-8.6484410">
        <ele>23.4</ele>
        <time>2021-05-22T07:29:15Z</time>
      </trkpt>
      <trkpt lat="42.4703510" lon="-8.6484440">
        <ele>23.5</ele>
        <time>2021-05-22T07:29:16Z</time>
      </trkpt>
      <trkpt lat="42.4703750" lon="-8.6484400">
        <ele>23.6</ele>
        <time>2021-05-22T07:29:17Z</time>
      </trkpt>
      <trkpt lat="42.4703910" lon="-8.6484330">
        <ele>23.7</ele>
        <time>2021-05-22T07:29:18Z</time>
      </trkpt>
      <trkpt lat="42.4704040" lon="-8.6484340">
        <ele>23.8</ele>
        <time>2021-05-22T07:29:19Z</time>
      </trkpt>
      <trkpt lat="42.4704200" lon="-8.6484360">
        <ele>23.9</ele>
        <time>2021-05-22T07:29:20Z</time>
      </trkpt>
      <trkpt lat="42.4704280" lon="-8.6484360">
        <ele>23.9</ele>
        <time>2021-05-22T07:29:21Z</time>
      </trkpt>
      <trkpt lat="42.4704340" lon="-8.6484360">
        <ele>23.9</ele>
        <time>2021-05-22T07:29:22Z</time>
      </trkpt>
      <trkpt lat="42.4704500" lon="-8.6484340">
        <ele>24.0</ele>
        <time>2021-05-22T07:29:23Z</time>
      </trkpt>
      <trkpt lat="42.4704650" lon="-8.6484260">
        <ele>24.1</ele>
        <time>2021-05-22T07:29:24Z</time>
      </trkpt>
      <trkpt lat="42.4704810" lon="-8.6484260">
        <ele>24.2</ele>
        <time>2021-05-22T07:29:25Z</time>
      </trkpt>
      <trkpt lat="42.4704920" lon="-8.6484280">
        <ele>24.2</ele>
        <time>2021-05-22T07:29:26Z</time>
      </trkpt>
      <trkpt lat="42.4705090" lon="-8.6484290">
        <ele>24.3</ele>
        <time>2021-05-22T07:29:27Z</time>
      </trkpt>
      <trkpt lat="42.4705190" lon="-8.6484290">
        <ele>24.4</ele>
        <time>2021-05-22T07:29:28Z</time>
      </trkpt>
      <trkpt lat="42.4705280" lon="-8.6484300">
        <ele>24.4</ele>
        <time>2021-05-22T07:29:29Z</time>
      </trkpt>
      <trkpt lat="42.4705370" lon="-8.6484300">
        <ele>24.5</ele>
        <time>2021-05-22T07:29:30Z</time>
      </trkpt>
      <trkpt lat="42.4705440" lon="-8.6484290">
        <ele>24.5</ele>
        <time>2021-05-22T07:29:31Z</time>
      </trkpt>
      <trkpt lat="42.4705630" lon="-8.6484260">
        <ele>24.6</ele>
        <time>2021-05-22T07:29:32Z</time>
      </trkpt>
      <trkpt lat="42.4705650" lon="-8.6484250">
        <ele>24.6</ele>
        <time>2021-05-22T07:29:33Z</time>
      </trkpt>
      <trkpt lat="42.4705740" lon="-8.6484250">
        <ele>24.7</ele>
        <time>2021-05-22T07:29:34Z</time>
      </trkpt>
      <trkpt lat="42.4705860" lon="-8.6484320">
        <ele>24.7</ele>
        <time>2021-05-22T07:29:35Z</time>
      </trkpt>
      <trkpt lat="42.4705920" lon="-8.6484300">
        <ele>24.8</ele>
        <time>2021-05-22T07:29:36Z</time>
      </trkpt>
      <trkpt lat="42.4706010" lon="-8.6484290">
        <ele>24.8</ele>
        <time>2021-05-22T07:29:37Z</time>
      </trkpt>
      <trkpt lat="42.4706090" lon="-8.6484220">
        <ele>24.9</ele>
        <time>2021-05-22T07:29:38Z</time>
      </trkpt>
      <trkpt lat="42.4706170" lon="-8.6484250">
        <ele>24.9</ele>
        <time>2021-05-22T07:29:39Z</time>
      </trkpt>
      <trkpt lat="42.4706310" lon="-8.6484260">
        <ele>25.0</ele>
        <time>2021-05-22T07:29:40Z</time>
      </trkpt>
      <trkpt lat="42.4706410" lon="-8.6484300">
        <ele>25.0</ele>
        <time>2021-05-22T07:29:41Z</time>
      </trkpt>
      <trkpt lat="42.4706420" lon="-8.6484320">
        <ele>25.1</ele>
        <time>2021-05-22T07:29:42Z</time>
      </trkpt>
      <trkpt lat="42.4706490" lon="-8.6484270">
        <ele>25.1</ele>
        <time>2021-05-22T07:29:43Z</time>
      </trkpt>
      <trkpt lat="42.4706630" lon="-8.6484250">
        <ele>25.2</ele>
        <time>2021-05-22T07:29:44Z</time>
      </trkpt>
      <trkpt lat="42.4706760" lon="-8.6484350">
        <ele>25.2</ele>
        <time>2021-05-22T07:29:45Z</time>
      </trkpt>
      <trkpt lat="42.4706940" lon="-8.6484450">
        <ele>25.3</ele>
        <time>2021-05-22T07:29:46Z</time>
      </trkpt>
      <trkpt lat="42.4707120" lon="-8.6484650">
        <ele>25.5</ele>
        <time>2021-05-22T07:29:47Z</time>
      </trkpt>
      <trkpt lat="42.4707240" lon="-8.6484710">
        <ele>25.5</ele>
        <time>2021-05-22T07:29:48Z</time>
      </trkpt>
      <trkpt lat="42.4707400" lon="-8.6484740">
        <ele>25.6</ele>
        <time>2021-05-22T07:29:49Z</time>
      </trkpt>
      <trkpt lat="42.4707510" lon="-8.6484740">
        <ele>25.7</ele>
        <time>2021-05-22T07:29:50Z</time>
      </trkpt>
      <trkpt lat="42.4707690" lon="-8.6484740">
        <ele>25.7</ele>
        <time>2021-05-22T07:29:51Z</time>
      </trkpt>
      <trkpt lat="42.4707700" lon="-8.6484750">
        <ele>25.8</ele>
        <time>2021-05-22T07:29:52Z</time>
      </trkpt>
      <trkpt lat="42.4707860" lon="-8.6484710">
        <ele>25.8</ele>
        <time>2021-05-22T07:29:53Z</time>
      </trkpt>
      <trkpt lat="42.4707990" lon="-8.6484670">
        <ele>25.9</ele>
        <time>2021-05-22T07:29:54Z</time>
      </trkpt>
      <trkpt lat="42.4708140" lon="-8.6484560">
        <ele>26.0</ele>
        <time>2021-05-22T07:29:55Z</time>
      </trkpt>
      <trkpt lat="42.4708220" lon="-8.6484620">
        <ele>26.0</ele>
        <time>2021-05-22T07:29:56Z</time>
      </trkpt>
      <trkpt lat="42.4708320" lon="-8.6484550">
        <ele>26.1</ele>
        <time>2021-05-22T07:29:57Z</time>
      </trkpt>
      <trkpt lat="42.4708430" lon="-8.6484490">
        <ele>26.1</ele>
        <time>2021-05-22T07:29:58Z</time>
      </trkpt>
      <trkpt lat="42.4708560" lon="-8.6484450">
        <ele>26.2</ele>
        <time>2021-05-22T07:29:59Z</time>
      </trkpt>
      <trkpt lat="42.4708700" lon="-8.6484370">
        <ele>26.3</ele>
        <time>2021-05-22T07:30:00Z</time>
      </trkpt>
      <trkpt lat="42.4708830" lon="-8.6484310">
        <ele>26.4</ele>
        <time>2021-05-22T07:30:01Z</time>
      </trkpt>
      <trkpt lat="42.4708910" lon="-8.6484300">
        <ele>26.4</ele>
        <time>2021-05-22T07:30:02Z</time>
      </trkpt>
      <trkpt lat="42.4709040" lon="-8.6484190">
        <ele>26.5</ele>
        <time>2021-05-22T07:30:03Z</time>
      </trkpt>
      <trkpt lat="42.4709060" lon="-8.6484220">
        <ele>26.5</ele>
        <time>2021-05-22T07:30:04Z</time>
      </trkpt>
      <trkpt lat="42.4709140" lon="-8.6484160">
        <ele>26.6</ele>
        <time>2021-05-22T07:30:05Z</time>
      </trkpt>
      <trkpt lat="42.4709250" lon="-8.6484080">
        <ele>26.6</ele>
        <time>2021-05-22T07:30:06Z</time>
      </trkpt>
      <trkpt lat="42.4709320" lon="-8.6484040">
        <ele>26.7</ele>
        <time>2021-05-22T07:30:07Z</time>
      </trkpt>
      <trkpt lat="42.4709410" lon="-8.6484000">
        <ele>26.7</ele>
        <time>2021-05-22T07:30:08Z</time>
      </trkpt>
      <trkpt lat="42.4709510" lon="-8.6483980">
        <ele>26.8</ele>
        <time>2021-05-22T07:30:09Z</time>
      </trkpt>
      <trkpt lat="42.4709650" lon="-8.6483940">
        <ele>26.9</ele>
        <time>2021-05-22T07:30:10Z</time>
      </trkpt>
      <trkpt lat="42.4709720" lon="-8.6483940">
        <ele>26.9</ele>
        <time>2021-05-22T07:30:11Z</time>
      </trkpt>
      <trkpt lat="42.4709870" lon="-8.6483950">
        <ele>27.0</ele>
        <time>2021-05-22T07:30:12Z</time>
      </trkpt>
      <trkpt lat="42.4709990" lon="-8.6483880">
        <ele>27.1</ele>
        <time>2021-05-22T07:30:13Z</time>
      </trkpt>
      <trkpt lat="42.4710130" lon="-8.6483890">
        <ele>27.1</ele>
        <time>2021-05-22T07:30:14Z</time>
      </trkpt>
      <trkpt lat="42.4710210" lon="-8.6483880">
        <ele>27.2</ele>
        <time>2021-05-22T07:30:15Z</time>
      </trkpt>
      <trkpt lat="42.4710320" lon="-8.6483870">
        <ele>27.3</ele>
        <time>2021-05-22T07:30:16Z</time>
      </trkpt>
      <trkpt lat="42.4710510" lon="-8.6483840">
        <ele>27.4</ele>
        <time>2021-05-22T07:30:17Z</time>
      </trkpt>
      <trkpt lat="42.4710610" lon="-8.6483810">
        <ele>27.5</ele>
        <time>2021-05-22T07:30:18Z</time>
      </trkpt>
      <trkpt lat="42.4710710" lon="-8.6483790">
        <ele>27.5</ele>
        <time>2021-05-22T07:30:19Z</time>
      </trkpt>
      <trkpt lat="42.4710920" lon="-8.6483770">
        <ele>27.7</ele>
        <time>2021-05-22T07:30:20Z</time>
      </trkpt>
      <trkpt lat="42.4711000" lon="-8.6483770">
        <ele>27.8</ele>
        <time>2021-05-22T07:30:21Z</time>
      </trkpt>
      <trkpt lat="42.4711090" lon="-8.6483780">
        <ele>27.8</ele>
        <time>2021-05-22T07:30:22Z</time>
      </trkpt>
      <trkpt lat="42.4711160" lon="-8.6483880">
        <ele>27.9</ele>
        <time>2021-05-22T07:30:23Z</time>
      </trkpt>
      <trkpt lat="42.4711290" lon="-8.6483940">
        <ele>28.0</ele>
        <time>2021-05-22T07:30:24Z</time>
      </trkpt>
      <trkpt lat="42.4711340" lon="-8.6483940">
        <ele>28.1</ele>
        <time>2021-05-22T07:30:25Z</time>
      </trkpt>
      <trkpt lat="42.4711360" lon="-8.6483940">
        <ele>28.1</ele>
        <time>2021-05-22T07:30:26Z</time>
      </trkpt>
      <trkpt lat="42.4711460" lon="-8.6483920">
        <ele>28.2</ele>
        <time>2021-05-22T07:30:27Z</time>
      </trkpt>
      <trkpt lat="42.4711560" lon="-8.6483900">
        <ele>28.2</ele>
        <time>2021-05-22T07:30:28Z</time>
      </trkpt>
      <trkpt lat="42.4711650" lon="-8.6483880">
        <ele>28.3</ele>
        <time>2021-05-22T07:30:29Z</time>
      </trkpt>
      <trkpt lat="42.4711750" lon="-8.6483860">
        <ele>28.4</ele>
        <time>2021-05-22T07:30:30Z</time>
      </trkpt>
      <trkpt lat="42.4711850" lon="-8.6483840">
        <ele>28.5</ele>
        <time>2021-05-22T07:30:31Z</time>
      </trkpt>
      <trkpt lat="42.4711710" lon="-8.6483770">
        <ele>28.6</ele>
        <time>2021-05-22T07:30:32Z</time>
      </trkpt>
      <trkpt lat="42.4711840" lon="-8.6483720">
        <ele>28.7</ele>
        <time>2021-05-22T07:30:33Z</time>
      </trkpt>
      <trkpt lat="42.4711950" lon="-8.6483670">
        <ele>28.8</ele>
        <time>2021-05-22T07:30:34Z</time>
      </trkpt>
      <trkpt lat="42.4712010" lon="-8.6483690">
        <ele>28.9</ele>
        <time>2021-05-22T07:30:35Z</time>
      </trkpt>
      <trkpt lat="42.4712170" lon="-8.6483630">
        <ele>29.0</ele>
        <time>2021-05-22T07:30:36Z</time>
      </trkpt>
      <trkpt lat="42.4712360" lon="-8.6483560">
        <ele>29.2</ele>
        <time>2021-05-22T07:30:37Z</time>
      </trkpt>
      <trkpt lat="42.4712440" lon="-8.6483510">
        <ele>29.3</ele>
        <time>2021-05-22T07:30:38Z</time>
      </trkpt>
      <trkpt lat="42.4712520" lon="-8.6483470">
        <ele>29.3</ele>
        <time>2021-05-22T07:30:39Z</time>
      </trkpt>
      <trkpt lat="42.4712650" lon="-8.6483400">
        <ele>29.5</ele>
        <time>2021-05-22T07:30:40Z</time>
      </trkpt>
      <trkpt lat="42.4712720" lon="-8.6483350">
        <ele>29.5</ele>
        <time>2021-05-22T07:30:41Z</time>
      </trkpt>
      <trkpt lat="42.4712830" lon="-8.6483280">
        <ele>29.6</ele>
        <time>2021-05-22T07:30:42Z</time>
      </trkpt>
      <trkpt lat="42.4712950" lon="-8.6483250">
        <ele>29.7</ele>
        <time>2021-05-22T07:30:43Z</time>
      </trkpt>
      <trkpt lat="42.4713010" lon="-8.6483270">
        <ele>29.8</ele>
        <time>2021-05-22T07:30:44Z</time>
      </trkpt>
      <trkpt lat="42.4713120" lon="-8.6483240">
        <ele>30.0</ele>
        <time>2021-05-22T07:30:45Z</time>
      </trkpt>
      <trkpt lat="42.4713340" lon="-8.6483280">
        <ele>30.2</ele>
        <time>2021-05-22T07:30:46Z</time>
      </trkpt>
      <trkpt lat="42.4713460" lon="-8.6483320">
        <ele>30.4</ele>
        <time>2021-05-22T07:30:47Z</time>
      </trkpt>
      <trkpt lat="42.4713570" lon="-8.6483370">
        <ele>30.5</ele>
        <time>2021-05-22T07:30:48Z</time>
      </trkpt>
      <trkpt lat="42.4713680" lon="-8.6483400">
        <ele>30.6</ele>
        <time>2021-05-22T07:30:49Z</time>
      </trkpt>
      <trkpt lat="42.4713770" lon="-8.6483480">
        <ele>30.7</ele>
        <time>2021-05-22T07:30:50Z</time>
      </trkpt>
      <trkpt lat="42.4713900" lon="-8.6483510">
        <ele>30.8</ele>
        <time>2021-05-22T07:30:51Z</time>
      </trkpt>
      <trkpt lat="42.4714020" lon="-8.6483640">
        <ele>30.9</ele>
        <time>2021-05-22T07:30:52Z</time>
      </trkpt>
      <trkpt lat="42.4714130" lon="-8.6483730">
        <ele>31.0</ele>
        <time>2021-05-22T07:30:53Z</time>
      </trkpt>
      <trkpt lat="42.4714150" lon="-8.6483860">
        <ele>31.1</ele>
        <time>2021-05-22T07:30:54Z</time>
      </trkpt>
      <trkpt lat="42.4714260" lon="-8.6483980">
        <ele>31.2</ele>
        <time>2021-05-22T07:30:55Z</time>
      </trkpt>
      <trkpt lat="42.4714300" lon="-8.6484110">
        <ele>31.3</ele>
        <time>2021-05-22T07:30:56Z</time>
      </trkpt>
      <trkpt lat="42.4714330" lon="-8.6484160">
        <ele>31.3</ele>
        <time>2021-05-22T07:30:57Z</time>
      </trkpt>
      <trkpt lat="42.4714430" lon="-8.6484240">
        <ele>31.3</ele>
        <time>2021-05-22T07:30:58Z</time>
      </trkpt>
      <trkpt lat="42.4714530" lon="-8.6484390">
        <ele>31.4</ele>
        <time>2021-05-22T07:30:59Z</time>
      </trkpt>
      <trkpt lat="42.4714660" lon="-8.6484530">
        <ele>31.5</ele>
        <time>2021-05-22T07:31:00Z</time>
      </trkpt>
      <trkpt lat="42.4714730" lon="-8.6484660">
        <ele>31.5</ele>
        <time>2021-05-22T07:31:01Z</time>
      </trkpt>
      <trkpt lat="42.4714770" lon="-8.6484790">
        <ele>31.6</ele>
        <time>2021-05-22T07:31:02Z</time>
      </trkpt>
      <trkpt lat="42.4714790" lon="-8.6484900">
        <ele>31.6</ele>
        <time>2021-05-22T07:31:03Z</time>
      </trkpt>
      <trkpt lat="42.4714900" lon="-8.6485030">
        <ele>31.6</ele>
        <time>2021-05-22T07:31:04Z</time>
      </trkpt>
      <trkpt lat="42.4715000" lon="-8.6485170">
        <ele>31.7</ele>
        <time>2021-05-22T07:31:05Z</time>
      </trkpt>
      <trkpt lat="42.4715080" lon="-8.6485350">
        <ele>31.7</ele>
        <time>2021-05-22T07:31:06Z</time>
      </trkpt>
      <trkpt lat="42.4715150" lon="-8.6485480">
        <ele>31.7</ele>
        <time>2021-05-22T07:31:07Z</time>
      </trkpt>
      <trkpt lat="42.4715240" lon="-8.6485600">
        <ele>31.7</ele>
        <time>2021-05-22T07:31:08Z</time>
      </trkpt>
      <trkpt lat="42.4715310" lon="-8.6485630">
        <ele>31.8</ele>
        <time>2021-05-22T07:31:09Z</time>
      </trkpt>
      <trkpt lat="42.4715390" lon="-8.6485770">
        <ele>31.8</ele>
        <time>2021-05-22T07:31:10Z</time>
      </trkpt>
      <trkpt lat="42.4715470" lon="-8.6485930">
        <ele>31.8</ele>
        <time>2021-05-22T07:31:11Z</time>
      </trkpt>
      <trkpt lat="42.4715600" lon="-8.6486130">
        <ele>31.8</ele>
        <time>2021-05-22T07:31:12Z</time>
      </trkpt>
      <trkpt lat="42.4715650" lon="-8.6486220">
        <ele>31.8</ele>
        <time>2021-05-22T07:31:13Z</time>
      </trkpt>
      <trkpt lat="42.4715710" lon="-8.6486310">
        <ele>31.8</ele>
        <time>2021-05-22T07:31:14Z</time>
      </trkpt>
      <trkpt lat="42.4715900" lon="-8.6486480">
        <ele>31.9</ele>
        <time>2021-05-22T07:31:15Z</time>
      </trkpt>
      <trkpt lat="42.4715980" lon="-8.6486530">
        <ele>31.9</ele>
        <time>2021-05-22T07:31:16Z</time>
      </trkpt>
      <trkpt lat="42.4716060" lon="-8.6486570">
        <ele>31.9</ele>
        <time>2021-05-22T07:31:17Z</time>
      </trkpt>
      <trkpt lat="42.4716130" lon="-8.6486660">
        <ele>31.9</ele>
        <time>2021-05-22T07:31:18Z</time>
      </trkpt>
      <trkpt lat="42.4716140" lon="-8.6486770">
        <ele>31.9</ele>
        <time>2021-05-22T07:31:19Z</time>
      </trkpt>
      <trkpt lat="42.4716190" lon="-8.6486860">
        <ele>31.9</ele>
        <time>2021-05-22T07:31:20Z</time>
      </trkpt>
      <trkpt lat="42.4716290" lon="-8.6486930">
        <ele>31.9</ele>
        <time>2021-05-22T07:31:21Z</time>
      </trkpt>
      <trkpt lat="42.4716350" lon="-8.6487010">
        <ele>31.9</ele>
        <time>2021-05-22T07:31:22Z</time>
      </trkpt>
      <trkpt lat="42.4716420" lon="-8.6487090">
        <ele>31.9</ele>
        <time>2021-05-22T07:31:23Z</time>
      </trkpt>
      <trkpt lat="42.4716500" lon="-8.6487180">
        <ele>31.9</ele>
        <time>2021-05-22T07:31:24Z</time>
      </trkpt>
      <trkpt lat="42.4716560" lon="-8.6487280">
        <ele>31.9</ele>
        <time>2021-05-22T07:31:25Z</time>
      </trkpt>
      <trkpt lat="42.4716650" lon="-8.6487400">
        <ele>31.9</ele>
        <time>2021-05-22T07:31:26Z</time>
      </trkpt>
      <trkpt lat="42.4716780" lon="-8.6487500">
        <ele>31.9</ele>
        <time>2021-05-22T07:31:27Z</time>
      </trkpt>
      <trkpt lat="42.4717040" lon="-8.6487690">
        <ele>31.8</ele>
        <time>2021-05-22T07:31:28Z</time>
      </trkpt>
      <trkpt lat="42.4717130" lon="-8.6487760">
        <ele>31.8</ele>
        <time>2021-05-22T07:31:29Z</time>
      </trkpt>
      <trkpt lat="42.4717260" lon="-8.6487820">
        <ele>31.8</ele>
        <time>2021-05-22T07:31:30Z</time>
      </trkpt>
      <trkpt lat="42.4717400" lon="-8.6487940">
        <ele>31.8</ele>
        <time>2021-05-22T07:31:31Z</time>
      </trkpt>
      <trkpt lat="42.4717510" lon="-8.6487960">
        <ele>31.8</ele>
        <time>2021-05-22T07:31:32Z</time>
      </trkpt>
      <trkpt lat="42.4717670" lon="-8.6488050">
        <ele>31.7</ele>
        <time>2021-05-22T07:31:33Z</time>
      </trkpt>
      <trkpt lat="42.4717880" lon="-8.6488060">
        <ele>31.7</ele>
        <time>2021-05-22T07:31:34Z</time>
      </trkpt>
      <trkpt lat="42.4717990" lon="-8.6488140">
        <ele>31.7</ele>
        <time>2021-05-22T07:31:35Z</time>
      </trkpt>
      <trkpt lat="42.4718210" lon="-8.6488200">
        <ele>31.6</ele>
        <time>2021-05-22T07:31:36Z</time>
      </trkpt>
      <trkpt lat="42.4718270" lon="-8.6488250">
        <ele>31.6</ele>
        <time>2021-05-22T07:31:37Z</time>
      </trkpt>
      <trkpt lat="42.4718340" lon="-8.6488300">
        <ele>31.6</ele>
        <time>2021-05-22T07:31:38Z</time>
      </trkpt>
      <trkpt lat="42.4718620" lon="-8.6488410">
        <ele>31.5</ele>
        <time>2021-05-22T07:31:39Z</time>
      </trkpt>
      <trkpt lat="42.4718730" lon="-8.6488440">
        <ele>31.5</ele>
        <time>2021-05-22T07:31:40Z</time>
      </trkpt>
      <trkpt lat="42.4718870" lon="-8.6488500">
        <ele>31.5</ele>
        <time>2021-05-22T07:31:41Z</time>
      </trkpt>
      <trkpt lat="42.4718970" lon="-8.6488490">
        <ele>31.4</ele>
        <time>2021-05-22T07:31:42Z</time>
      </trkpt>
      <trkpt lat="42.4718920" lon="-8.6488490">
        <ele>31.4</ele>
        <time>2021-05-22T07:31:43Z</time>
      </trkpt>
      <trkpt lat="42.4718980" lon="-8.6488550">
        <ele>31.4</ele>
        <time>2021-05-22T07:31:44Z</time>
      </trkpt>
      <trkpt lat="42.4719010" lon="-8.6488610">
        <ele>31.4</ele>
        <time>2021-05-22T07:31:45Z</time>
      </trkpt>
      <trkpt lat="42.4719100" lon="-8.6488600">
        <ele>31.4</ele>
        <time>2021-05-22T07:31:46Z</time>
      </trkpt>
      <trkpt lat="42.4719340" lon="-8.6488670">
        <ele>31.3</ele>
        <time>2021-05-22T07:31:47Z</time>
      </trkpt>
      <trkpt lat="42.4719460" lon="-8.6488740">
        <ele>31.3</ele>
        <time>2021-05-22T07:31:48Z</time>
      </trkpt>
      <trkpt lat="42.4719550" lon="-8.6488750">
        <ele>31.3</ele>
        <time>2021-05-22T07:31:49Z</time>
      </trkpt>
      <trkpt lat="42.4719660" lon="-8.6488790">
        <ele>31.3</ele>
        <time>2021-05-22T07:31:50Z</time>
      </trkpt>
      <trkpt lat="42.4719900" lon="-8.6488860">
        <ele>31.3</ele>
        <time>2021-05-22T07:31:51Z</time>
      </trkpt>
      <trkpt lat="42.4719960" lon="-8.6488890">
        <ele>31.3</ele>
        <time>2021-05-22T07:31:52Z</time>
      </trkpt>
      <trkpt lat="42.4720020" lon="-8.6488930">
        <ele>31.3</ele>
        <time>2021-05-22T07:31:53Z</time>
      </trkpt>
      <trkpt lat="42.4720100" lon="-8.6488950">
        <ele>31.3</ele>
        <time>2021-05-22T07:31:54Z</time>
      </trkpt>
      <trkpt lat="42.4720290" lon="-8.6489040">
        <ele>31.2</ele>
        <time>2021-05-22T07:31:55Z</time>
      </trkpt>
      <trkpt lat="42.4720370" lon="-8.6489120">
        <ele>31.2</ele>
        <time>2021-05-22T07:31:56Z</time>
      </trkpt>
      <trkpt lat="42.4720480" lon="-8.6489140">
        <ele>31.2</ele>
        <time>2021-05-22T07:31:57Z</time>
      </trkpt>
      <trkpt lat="42.4720510" lon="-8.6489270">
        <ele>31.2</ele>
        <time>2021-05-22T07:31:58Z</time>
      </trkpt>
      <trkpt lat="42.4720630" lon="-8.6489320">
        <ele>31.2</ele>
        <time>2021-05-22T07:31:59Z</time>
      </trkpt>
      <trkpt lat="42.4720790" lon="-8.6489420">
        <ele>31.2</ele>
        <time>2021-05-22T07:32:00Z</time>
      </trkpt>
      <trkpt lat="42.4720940" lon="-8.6489470">
        <ele>31.2</ele>
        <time>2021-05-22T07:32:01Z</time>
      </trkpt>
      <trkpt lat="42.4721120" lon="-8.6489570">
        <ele>31.2</ele>
        <time>2021-05-22T07:32:02Z</time>
      </trkpt>
      <trkpt lat="42.4721300" lon="-8.6489690">
        <ele>31.2</ele>
        <time>2021-05-22T07:32:03Z</time>
      </trkpt>
      <trkpt lat="42.4721390" lon="-8.6489720">
        <ele>31.2</ele>
        <time>2021-05-22T07:32:04Z</time>
      </trkpt>
      <trkpt lat="42.4721490" lon="-8.6489750">
        <ele>31.2</ele>
        <time>2021-05-22T07:32:05Z</time>
      </trkpt>
      <trkpt lat="42.4721620" lon="-8.6489750">
        <ele>31.2</ele>
        <time>2021-05-22T07:32:06Z</time>
      </trkpt>
      <trkpt lat="42.4721780" lon="-8.6489870">
        <ele>31.2</ele>
        <time>2021-05-22T07:32:07Z</time>
      </trkpt>
      <trkpt lat="42.4721970" lon="-8.6489870">
        <ele>31.2</ele>
        <time>2021-05-22T07:32:08Z</time>
      </trkpt>
      <trkpt lat="42.4722090" lon="-8.6489900">
        <ele>31.2</ele>
        <time>2021-05-22T07:32:09Z</time>
      </trkpt>
      <trkpt lat="42.4722210" lon="-8.6489940">
        <ele>31.2</ele>
        <time>2021-05-22T07:32:10Z</time>
      </trkpt>
      <trkpt lat="42.4722420" lon="-8.6490130">
        <ele>31.2</ele>
        <time>2021-05-22T07:32:11Z</time>
      </trkpt>
      <trkpt lat="42.4722470" lon="-8.6490170">
        <ele>31.2</ele>
        <time>2021-05-22T07:32:12Z</time>
      </trkpt>
      <trkpt lat="42.4722530" lon="-8.6490210">
        <ele>31.2</ele>
        <time>2021-05-22T07:32:13Z</time>
      </trkpt>
      <trkpt lat="42.4722720" lon="-8.6490270">
        <ele>31.2</ele>
        <time>2021-05-22T07:32:14Z</time>
      </trkpt>
      <trkpt lat="42.4722790" lon="-8.6490340">
        <ele>31.2</ele>
        <time>2021-05-22T07:32:15Z</time>
      </trkpt>
      <trkpt lat="42.4722860" lon="-8.6490410">
        <ele>31.2</ele>
        <time>2021-05-22T07:32:16Z</time>
      </trkpt>
      <trkpt lat="42.4722880" lon="-8.6490430">
        <ele>31.2</ele>
        <time>2021-05-22T07:32:17Z</time>
      </trkpt>
      <trkpt lat="42.4722940" lon="-8.6490530">
        <ele>31.2</ele>
        <time>2021-05-22T07:32:18Z</time>
      </trkpt>
      <trkpt lat="42.4723100" lon="-8.6490550">
        <ele>31.3</ele>
        <time>2021-05-22T07:32:19Z</time>
      </trkpt>
      <trkpt lat="42.4723250" lon="-8.6490650">
        <ele>31.3</ele>
        <time>2021-05-22T07:32:20Z</time>
      </trkpt>
      <trkpt lat="42.4723350" lon="-8.6490760">
        <ele>31.3</ele>
        <time>2021-05-22T07:32:21Z</time>
      </trkpt>
      <trkpt lat="42.4723530" lon="-8.6490830">
        <ele>31.3</ele>
        <time>2021-05-22T07:32:22Z</time>
      </trkpt>
      <trkpt lat="42.4723620" lon="-8.6490860">
        <ele>31.3</ele>
        <time>2021-05-22T07:32:23Z</time>
      </trkpt>
      <trkpt lat="42.4723710" lon="-8.6490890">
        <ele>31.3</ele>
        <time>2021-05-22T07:32:24Z</time>
      </trkpt>
      <trkpt lat="42.4723810" lon="-8.6490970">
        <ele>31.3</ele>
        <time>2021-05-22T07:32:25Z</time>
      </trkpt>
      <trkpt lat="42.4723980" lon="-8.6491010">
        <ele>31.4</ele>
        <time>2021-05-22T07:32:26Z</time>
      </trkpt>
      <trkpt lat="42.4724030" lon="-8.6491040">
        <ele>31.4</ele>
        <time>2021-05-22T07:32:27Z</time>
      </trkpt>
      <trkpt lat="42.4724130" lon="-8.6491150">
        <ele>31.4</ele>
        <time>2021-05-22T07:32:28Z</time>
      </trkpt>
      <trkpt lat="42.4724290" lon="-8.6491180">
        <ele>31.4</ele>
        <time>2021-05-22T07:32:29Z</time>
      </trkpt>
      <trkpt lat="42.4724310" lon="-8.6491260">
        <ele>31.4</ele>
        <time>2021-05-22T07:32:30Z</time>
      </trkpt>
      <trkpt lat="42.4724410" lon="-8.6491250">
        <ele>31.4</ele>
        <time>2021-05-22T07:32:31Z</time>
      </trkpt>
      <trkpt lat="42.4724550" lon="-8.6491290">
        <ele>31.5</ele>
        <time>2021-05-22T07:32:32Z</time>
      </trkpt>
      <trkpt lat="42.4724650" lon="-8.6491350">
        <ele>31.5</ele>
        <time>2021-05-22T07:32:33Z</time>
      </trkpt>
      <trkpt lat="42.4724720" lon="-8.6491330">
        <ele>31.5</ele>
        <time>2021-05-22T07:32:34Z</time>
      </trkpt>
      <trkpt lat="42.4724850" lon="-8.6491360">
        <ele>31.5</ele>
        <time>2021-05-22T07:32:35Z</time>
      </trkpt>
      <trkpt lat="42.4725060" lon="-8.6491410">
        <ele>31.5</ele>
        <time>2021-05-22T07:32:36Z</time>
      </trkpt>
      <trkpt lat="42.4725200" lon="-8.6491420">
        <ele>31.6</ele>
        <time>2021-05-22T07:32:37Z</time>
      </trkpt>
      <trkpt lat="42.4725280" lon="-8.6491470">
        <ele>31.6</ele>
        <time>2021-05-22T07:32:38Z</time>
      </trkpt>
      <trkpt lat="42.4725400" lon="-8.6491570">
        <ele>31.6</ele>
        <time>2021-05-22T07:32:39Z</time>
      </trkpt>
      <trkpt lat="42.4725460" lon="-8.6491600">
        <ele>31.6</ele>
        <time>2021-05-22T07:32:40Z</time>
      </trkpt>
      <trkpt lat="42.4725610" lon="-8.6491660">
        <ele>31.6</ele>
        <time>2021-05-22T07:32:41Z</time>
      </trkpt>
      <trkpt lat="42.4725720" lon="-8.6491670">
        <ele>31.7</ele>
        <time>2021-05-22T07:32:42Z</time>
      </trkpt>
      <trkpt lat="42.4725810" lon="-8.6491680">
        <ele>31.7</ele>
        <time>2021-05-22T07:32:43Z</time>
      </trkpt>
      <trkpt lat="42.4725940" lon="-8.6491690">
        <ele>31.7</ele>
        <time>2021-05-22T07:32:44Z</time>
      </trkpt>
      <trkpt lat="42.4726060" lon="-8.6491750">
        <ele>31.7</ele>
        <time>2021-05-22T07:32:45Z</time>
      </trkpt>
      <trkpt lat="42.4726160" lon="-8.6491760">
        <ele>31.7</ele>
        <time>2021-05-22T07:32:46Z</time>
      </trkpt>
      <trkpt lat="42.4726350" lon="-8.6491900">
        <ele>31.8</ele>
        <time>2021-05-22T07:32:47Z</time>
      </trkpt>
      <trkpt lat="42.4726450" lon="-8.6491950">
        <ele>31.8</ele>
        <time>2021-05-22T07:32:48Z</time>
      </trkpt>
      <trkpt lat="42.4726540" lon="-8.6491990">
        <ele>31.8</ele>
        <time>2021-05-22T07:32:49Z</time>
      </trkpt>
      <trkpt lat="42.4726610" lon="-8.6492060">
        <ele>31.8</ele>
        <time>2021-05-22T07:32:50Z</time>
      </trkpt>
      <trkpt lat="42.4726720" lon="-8.6492150">
        <ele>31.8</ele>
        <time>2021-05-22T07:32:51Z</time>
      </trkpt>
      <trkpt lat="42.4726810" lon="-8.6492230">
        <ele>31.8</ele>
        <time>2021-05-22T07:32:52Z</time>
      </trkpt>
      <trkpt lat="42.4726890" lon="-8.6492300">
        <ele>31.8</ele>
        <time>2021-05-22T07:32:53Z</time>
      </trkpt>
      <trkpt lat="42.4726970" lon="-8.6492350">
        <ele>31.9</ele>
        <time>2021-05-22T07:32:54Z</time>
      </trkpt>
      <trkpt lat="42.4727080" lon="-8.6492350">
        <ele>31.9</ele>
        <time>2021-05-22T07:32:55Z</time>
      </trkpt>
      <trkpt lat="42.4727240" lon="-8.6492470">
        <ele>31.9</ele>
        <time>2021-05-22T07:32:56Z</time>
      </trkpt>
      <trkpt lat="42.4727360" lon="-8.6492570">
        <ele>31.9</ele>
        <time>2021-05-22T07:32:57Z</time>
      </trkpt>
      <trkpt lat="42.4727550" lon="-8.6492640">
        <ele>31.9</ele>
        <time>2021-05-22T07:32:58Z</time>
      </trkpt>
      <trkpt lat="42.4727610" lon="-8.6492650">
        <ele>31.9</ele>
        <time>2021-05-22T07:32:59Z</time>
      </trkpt>
      <trkpt lat="42.4727660" lon="-8.6492650">
        <ele>31.9</ele>
        <time>2021-05-22T07:33:00Z</time>
      </trkpt>
      <trkpt lat="42.4727720" lon="-8.6492660">
        <ele>31.9</ele>
        <time>2021-05-22T07:33:01Z</time>
      </trkpt>
      <trkpt lat="42.4727850" lon="-8.6492680">
        <ele>31.9</ele>
        <time>2021-05-22T07:33:02Z</time>
      </trkpt>
      <trkpt lat="42.4727920" lon="-8.6492710">
        <ele>31.9</ele>
        <time>2021-05-22T07:33:03Z</time>
      </trkpt>
      <trkpt lat="42.4728070" lon="-8.6492780">
        <ele>31.9</ele>
        <time>2021-05-22T07:33:04Z</time>
      </trkpt>
      <trkpt lat="42.4728250" lon="-8.6492820">
        <ele>31.9</ele>
        <time>2021-05-22T07:33:05Z</time>
      </trkpt>
      <trkpt lat="42.4728400" lon="-8.6492830">
        <ele>31.9</ele>
        <time>2021-05-22T07:33:06Z</time>
      </trkpt>
      <trkpt lat="42.4728550" lon="-8.6492900">
        <ele>31.9</ele>
        <time>2021-05-22T07:33:07Z</time>
      </trkpt>
      <trkpt lat="42.4728620" lon="-8.6492940">
        <ele>31.9</ele>
        <time>2021-05-22T07:33:08Z</time>
      </trkpt>
      <trkpt lat="42.4728690" lon="-8.6492990">
        <ele>31.9</ele>
        <time>2021-05-22T07:33:09Z</time>
      </trkpt>
      <trkpt lat="42.4728760" lon="-8.6493030">
        <ele>31.9</ele>
        <time>2021-05-22T07:33:10Z</time>
      </trkpt>
      <trkpt lat="42.4728840" lon="-8.6493140">
        <ele>31.9</ele>
        <time>2021-05-22T07:33:11Z</time>
      </trkpt>
      <trkpt lat="42.4728900" lon="-8.6493150">
        <ele>31.9</ele>
        <time>2021-05-22T07:33:12Z</time>
      </trkpt>
      <trkpt lat="42.4729020" lon="-8.6493150">
        <ele>31.9</ele>
        <time>2021-05-22T07:33:13Z</time>
      </trkpt>
      <trkpt lat="42.4729100" lon="-8.6493120">
        <ele>31.9</ele>
        <time>2021-05-22T07:33:14Z</time>
      </trkpt>
      <trkpt lat="42.4729190" lon="-8.6493140">
        <ele>31.8</ele>
        <time>2021-05-22T07:33:15Z</time>
      </trkpt>
      <trkpt lat="42.4729300" lon="-8.6493200">
        <ele>31.8</ele>
        <time>2021-05-22T07:33:16Z</time>
      </trkpt>
      <trkpt lat="42.4729500" lon="-8.6493270">
        <ele>31.8</ele>
        <time>2021-05-22T07:33:17Z</time>
      </trkpt>
      <trkpt lat="42.4729590" lon="-8.6493300">
        <ele>31.8</ele>
        <time>2021-05-22T07:33:18Z</time>
      </trkpt>
      <trkpt lat="42.4729680" lon="-8.6493320">
        <ele>31.8</ele>
        <time>2021-05-22T07:33:19Z</time>
      </trkpt>
      <trkpt lat="42.4729800" lon="-8.6493360">
        <ele>31.8</ele>
        <time>2021-05-22T07:33:20Z</time>
      </trkpt>
      <trkpt lat="42.4729960" lon="-8.6493500">
        <ele>31.8</ele>
        <time>2021-05-22T07:33:21Z</time>
      </trkpt>
      <trkpt lat="42.4730050" lon="-8.6493570">
        <ele>31.8</ele>
        <time>2021-05-22T07:33:22Z</time>
      </trkpt>
      <trkpt lat="42.4730180" lon="-8.6493600">
        <ele>31.8</ele>
        <time>2021-05-22T07:33:23Z</time>
      </trkpt>
      <trkpt lat="42.4730250" lon="-8.6493620">
        <ele>31.8</ele>
        <time>2021-05-22T07:33:24Z</time>
      </trkpt>
      <trkpt lat="42.4730450" lon="-8.6493640">
        <ele>31.8</ele>
        <time>2021-05-22T07:33:25Z</time>
      </trkpt>
      <trkpt lat="42.4730540" lon="-8.6493650">
        <ele>31.8</ele>
        <time>2021-05-22T07:33:26Z</time>
      </trkpt>
      <trkpt lat="42.4730630" lon="-8.6493660">
        <ele>31.8</ele>
        <time>2021-05-22T07:33:27Z</time>
      </trkpt>
      <trkpt lat="42.4730710" lon="-8.6493680">
        <ele>31.8</ele>
        <time>2021-05-22T07:33:28Z</time>
      </trkpt>
      <trkpt lat="42.4730950" lon="-8.6493730">
        <ele>31.8</ele>
        <time>2021-05-22T07:33:29Z</time>
      </trkpt>
      <trkpt lat="42.4731080" lon="-8.6493770">
        <ele>31.8</ele>
        <time>2021-05-22T07:33:30Z</time>
      </trkpt>
      <trkpt lat="42.4731210" lon="-8.6493820">
        <ele>31.8</ele>
        <time>2021-05-22T07:33:31Z</time>
      </trkpt>
      <trkpt lat="42.4731290" lon="-8.6493870">
        <ele>31.8</ele>
        <time>2021-05-22T07:33:32Z</time>
      </trkpt>
      <trkpt lat="42.4731540" lon="-8.6494050">
        <ele>31.8</ele>
        <time>2021-05-22T07:33:33Z</time>
      </trkpt>
      <trkpt lat="42.4731630" lon="-8.6494100">
        <ele>31.8</ele>
        <time>2021-05-22T07:33:34Z</time>
      </trkpt>
      <trkpt lat="42.4731720" lon="-8.6494110">
        <ele>31.9</ele>
        <time>2021-05-22T07:33:35Z</time>
      </trkpt>
      <trkpt lat="42.4731860" lon="-8.6494110">
        <ele>31.9</ele>
        <time>2021-05-22T07:33:36Z</time>
      </trkpt>
      <trkpt lat="42.4731970" lon="-8.6494180">
        <ele>31.9</ele>
        <time>2021-05-22T07:33:37Z</time>
      </trkpt>
      <trkpt lat="42.4732110" lon="-8.6494220">
        <ele>31.9</ele>
        <time>2021-05-22T07:33:38Z</time>
      </trkpt>
      <trkpt lat="42.4732300" lon="-8.6494270">
        <ele>31.9</ele>
        <time>2021-05-22T07:33:39Z</time>
      </trkpt>
      <trkpt lat="42.4732410" lon="-8.6494290">
        <ele>32.0</ele>
        <time>2021-05-22T07:33:40Z</time>
      </trkpt>
      <trkpt lat="42.4732600" lon="-8.6494370">
        <ele>32.0</ele>
        <time>2021-05-22T07:33:41Z</time>
      </trkpt>
      <trkpt lat="42.4732720" lon="-8.6494410">
        <ele>32.0</ele>
        <time>2021-05-22T07:33:42Z</time>
      </trkpt>
      <trkpt lat="42.4732810" lon="-8.6494520">
        <ele>32.0</ele>
        <time>2021-05-22T07:33:43Z</time>
      </trkpt>
      <trkpt lat="42.4732890" lon="-8.6494560">
        <ele>32.1</ele>
        <time>2021-05-22T07:33:44Z</time>
      </trkpt>
      <trkpt lat="42.4733000" lon="-8.6494690">
        <ele>32.1</ele>
        <time>2021-05-22T07:33:45Z</time>
      </trkpt>
      <trkpt lat="42.4733120" lon="-8.6494770">
        <ele>32.1</ele>
        <time>2021-05-22T07:33:46Z</time>
      </trkpt>
      <trkpt lat="42.4733250" lon="-8.6494750">
        <ele>32.2</ele>
        <time>2021-05-22T07:33:47Z</time>
      </trkpt>
      <trkpt lat="42.4733390" lon="-8.6494750">
        <ele>32.2</ele>
        <time>2021-05-22T07:33:48Z</time>
      </trkpt>
      <trkpt lat="42.4733480" lon="-8.6494820">
        <ele>32.2</ele>
        <time>2021-05-22T07:33:49Z</time>
      </trkpt>
      <trkpt lat="42.4733580" lon="-8.6494890">
        <ele>32.3</ele>
        <time>2021-05-22T07:33:50Z</time>
      </trkpt>
      <trkpt lat="42.4733740" lon="-8.6494910">
        <ele>32.3</ele>
        <time>2021-05-22T07:33:51Z</time>
      </trkpt>
      <trkpt lat="42.4733850" lon="-8.6495040">
        <ele>32.4</ele>
        <time>2021-05-22T07:33:52Z</time>
      </trkpt>
      <trkpt lat="42.4733950" lon="-8.6495100">
        <ele>32.4</ele>
        <time>2021-05-22T07:33:53Z</time>
      </trkpt>
      <trkpt lat="42.4734040" lon="-8.6495190">
        <ele>32.4</ele>
        <time>2021-05-22T07:33:54Z</time>
      </trkpt>
      <trkpt lat="42.4734140" lon="-8.6495290">
        <ele>32.5</ele>
        <time>2021-05-22T07:33:55Z</time>
      </trkpt>
      <trkpt lat="42.4734250" lon="-8.6495410">
        <ele>32.5</ele>
        <time>2021-05-22T07:33:56Z</time>
      </trkpt>
      <trkpt lat="42.4734380" lon="-8.6495450">
        <ele>32.6</ele>
        <time>2021-05-22T07:33:57Z</time>
      </trkpt>
      <trkpt lat="42.4734470" lon="-8.6495500">
        <ele>32.6</ele>
        <time>2021-05-22T07:33:58Z</time>
      </trkpt>
      <trkpt lat="42.4734550" lon="-8.6495560">
        <ele>32.6</ele>
        <time>2021-05-22T07:33:59Z</time>
      </trkpt>
      <trkpt lat="42.4734650" lon="-8.6495640">
        <ele>32.7</ele>
        <time>2021-05-22T07:34:00Z</time>
      </trkpt>
      <trkpt lat="42.4734760" lon="-8.6495690">
        <ele>32.7</ele>
        <time>2021-05-22T07:34:01Z</time>
      </trkpt>
      <trkpt lat="42.4734880" lon="-8.6495780">
        <ele>32.7</ele>
        <time>2021-05-22T07:34:02Z</time>
      </trkpt>
      <trkpt lat="42.4735080" lon="-8.6495880">
        <ele>32.8</ele>
        <time>2021-05-22T07:34:03Z</time>
      </trkpt>
      <trkpt lat="42.4735150" lon="-8.6495910">
        <ele>32.8</ele>
        <time>2021-05-22T07:34:04Z</time>
      </trkpt>
      <trkpt lat="42.4735220" lon="-8.6495950">
        <ele>32.9</ele>
        <time>2021-05-22T07:34:05Z</time>
      </trkpt>
      <trkpt lat="42.4735350" lon="-8.6496030">
        <ele>32.9</ele>
        <time>2021-05-22T07:34:06Z</time>
      </trkpt>
      <trkpt lat="42.4735410" lon="-8.6496030">
        <ele>32.9</ele>
        <time>2021-05-22T07:34:07Z</time>
      </trkpt>
      <trkpt lat="42.4735530" lon="-8.6496040">
        <ele>33.0</ele>
        <time>2021-05-22T07:34:08Z</time>
      </trkpt>
      <trkpt lat="42.4735670" lon="-8.6496120">
        <ele>33.0</ele>
        <time>2021-05-22T07:34:09Z</time>
      </trkpt>
      <trkpt lat="42.4735750" lon="-8.6496180">
        <ele>33.0</ele>
        <time>2021-05-22T07:34:10Z</time>
      </trkpt>
      <trkpt lat="42.4735840" lon="-8.6496200">
        <ele>33.1</ele>
        <time>2021-05-22T07:34:11Z</time>
      </trkpt>
      <trkpt lat="42.4736050" lon="-8.6496280">
        <ele>33.1</ele>
        <time>2021-05-22T07:34:12Z</time>
      </trkpt>
      <trkpt lat="42.4736120" lon="-8.6496320">
        <ele>33.2</ele>
        <time>2021-05-22T07:34:13Z</time>
      </trkpt>
      <trkpt lat="42.4736200" lon="-8.6496360">
        <ele>33.2</ele>
        <time>2021-05-22T07:34:14Z</time>
      </trkpt>
      <trkpt lat="42.4736260" lon="-8.6496280">
        <ele>33.2</ele>
        <time>2021-05-22T07:34:15Z</time>
      </trkpt>
      <trkpt lat="42.4736240" lon="-8.6496210">
        <ele>33.2</ele>
        <time>2021-05-22T07:34:16Z</time>
      </trkpt>
      <trkpt lat="42.4736210" lon="-8.6496170">
        <ele>33.3</ele>
        <time>2021-05-22T07:34:17Z</time>
      </trkpt>
      <trkpt lat="42.4736290" lon="-8.6496130">
        <ele>33.3</ele>
        <time>2021-05-22T07:34:18Z</time>
      </trkpt>
      <trkpt lat="42.4736450" lon="-8.6496080">
        <ele>33.3</ele>
        <time>2021-05-22T07:34:19Z</time>
      </trkpt>
      <trkpt lat="42.4736490" lon="-8.6495990">
        <ele>33.4</ele>
        <time>2021-05-22T07:34:20Z</time>
      </trkpt>
      <trkpt lat="42.4736580" lon="-8.6495980">
        <ele>33.4</ele>
        <time>2021-05-22T07:34:21Z</time>
      </trkpt>
      <trkpt lat="42.4736670" lon="-8.6495960">
        <ele>33.4</ele>
        <time>2021-05-22T07:34:22Z</time>
      </trkpt>
      <trkpt lat="42.4736760" lon="-8.6495950">
        <ele>33.5</ele>
        <time>2021-05-22T07:34:23Z</time>
      </trkpt>
      <trkpt lat="42.4736850" lon="-8.6495930">
        <ele>33.5</ele>
        <time>2021-05-22T07:34:24Z</time>
      </trkpt>
      <trkpt lat="42.4737050" lon="-8.6495790">
        <ele>33.5</ele>
        <time>2021-05-22T07:34:25Z</time>
      </trkpt>
      <trkpt lat="42.4737100" lon="-8.6495720">
        <ele>33.6</ele>
        <time>2021-05-22T07:34:26Z</time>
      </trkpt>
      <trkpt lat="42.4737150" lon="-8.6495640">
        <ele>33.6</ele>
        <time>2021-05-22T07:34:27Z</time>
      </trkpt>
      <trkpt lat="42.4737320" lon="-8.6495590">
        <ele>33.6</ele>
        <time>2021-05-22T07:34:28Z</time>
      </trkpt>
      <trkpt lat="42.4737480" lon="-8.6495520">
        <ele>33.7</ele>
        <time>2021-05-22T07:34:29Z</time>
      </trkpt>
      <trkpt lat="42.4737640" lon="-8.6495440">
        <ele>33.7</ele>
        <time>2021-05-22T07:34:30Z</time>
      </trkpt>
      <trkpt lat="42.4737910" lon="-8.6495610">
        <ele>33.8</ele>
        <time>2021-05-22T07:34:31Z</time>
      </trkpt>
      <trkpt lat="42.4738060" lon="-8.6495610">
        <ele>33.8</ele>
        <time>2021-05-22T07:34:32Z</time>
      </trkpt>
      <trkpt lat="42.4738050" lon="-8.6495570">
        <ele>33.9</ele>
        <time>2021-05-22T07:34:33Z</time>
      </trkpt>
      <trkpt lat="42.4738190" lon="-8.6495520">
        <ele>33.9</ele>
        <time>2021-05-22T07:34:34Z</time>
      </trkpt>
      <trkpt lat="42.4738320" lon="-8.6495560">
        <ele>33.9</ele>
        <time>2021-05-22T07:34:35Z</time>
      </trkpt>
      <trkpt lat="42.4738550" lon="-8.6495540">
        <ele>34.0</ele>
        <time>2021-05-22T07:34:36Z</time>
      </trkpt>
      <trkpt lat="42.4738840" lon="-8.6495570">
        <ele>34.1</ele>
        <time>2021-05-22T07:34:37Z</time>
      </trkpt>
      <trkpt lat="42.4738940" lon="-8.6495580">
        <ele>34.1</ele>
        <time>2021-05-22T07:34:38Z</time>
      </trkpt>
      <trkpt lat="42.4739050" lon="-8.6495530">
        <ele>34.1</ele>
        <time>2021-05-22T07:34:39Z</time>
      </trkpt>
      <trkpt lat="42.4739150" lon="-8.6495520">
        <ele>34.2</ele>
        <time>2021-05-22T07:34:40Z</time>
      </trkpt>
      <trkpt lat="42.4739240" lon="-8.6495510">
        <ele>34.2</ele>
        <time>2021-05-22T07:34:41Z</time>
      </trkpt>
      <trkpt lat="42.4739340" lon="-8.6495500">
        <ele>34.2</ele>
        <time>2021-05-22T07:34:42Z</time>
      </trkpt>
      <trkpt lat="42.4739520" lon="-8.6495460">
        <ele>34.3</ele>
        <time>2021-05-22T07:34:43Z</time>
      </trkpt>
      <trkpt lat="42.4739690" lon="-8.6495470">
        <ele>34.3</ele>
        <time>2021-05-22T07:34:44Z</time>
      </trkpt>
      <trkpt lat="42.4739860" lon="-8.6495430">
        <ele>34.4</ele>
        <time>2021-05-22T07:34:45Z</time>
      </trkpt>
      <trkpt lat="42.4739970" lon="-8.6495400">
        <ele>34.4</ele>
        <time>2021-05-22T07:34:46Z</time>
      </trkpt>
      <trkpt lat="42.4740060" lon="-8.6495380">
        <ele>34.4</ele>
        <time>2021-05-22T07:34:47Z</time>
      </trkpt>
      <trkpt lat="42.4740080" lon="-8.6495320">
        <ele>34.5</ele>
        <time>2021-05-22T07:34:48Z</time>
      </trkpt>
      <trkpt lat="42.4740130" lon="-8.6495280">
        <ele>34.5</ele>
        <time>2021-05-22T07:34:49Z</time>
      </trkpt>
      <trkpt lat="42.4740230" lon="-8.6495230">
        <ele>34.5</ele>
        <time>2021-05-22T07:34:50Z</time>
      </trkpt>
      <trkpt lat="42.4740320" lon="-8.6495190">
        <ele>34.5</ele>
        <time>2021-05-22T07:34:51Z</time>
      </trkpt>
      <trkpt lat="42.4740410" lon="-8.6495180">
        <ele>34.5</ele>
        <time>2021-05-22T07:34:52Z</time>
      </trkpt>
      <trkpt lat="42.4740530" lon="-8.6495120">
        <ele>34.6</ele>
        <time>2021-05-22T07:34:53Z</time>
      </trkpt>
      <trkpt lat="42.4740630" lon="-8.6495100">
        <ele>34.6</ele>
        <time>2021-05-22T07:34:54Z</time>
      </trkpt>
      <trkpt lat="42.4740740" lon="-8.6495080">
        <ele>34.6</ele>
        <time>2021-05-22T07:34:55Z</time>
      </trkpt>
      <trkpt lat="42.4740800" lon="-8.6495070">
        <ele>34.6</ele>
        <time>2021-05-22T07:34:56Z</time>
      </trkpt>
      <trkpt lat="42.4740900" lon="-8.6495090">
        <ele>34.6</ele>
        <time>2021-05-22T07:34:57Z</time>
      </trkpt>
      <trkpt lat="42.4740990" lon="-8.6495080">
        <ele>34.7</ele>
        <time>2021-05-22T07:34:58Z</time>
      </trkpt>
      <trkpt lat="42.4741050" lon="-8.6495140">
        <ele>34.7</ele>
        <time>2021-05-22T07:34:59Z</time>
      </trkpt>
      <trkpt lat="42.4741120" lon="-8.6495240">
        <ele>34.7</ele>
        <time>2021-05-22T07:35:00Z</time>
      </trkpt>
      <trkpt lat="42.4741140" lon="-8.6495230">
        <ele>34.7</ele>
        <time>2021-05-22T07:35:01Z</time>
      </trkpt>
      <trkpt lat="42.4741160" lon="-8.6495220">
        <ele>34.7</ele>
        <time>2021-05-22T07:35:02Z</time>
      </trkpt>
      <trkpt lat="42.4741200" lon="-8.6495280">
        <ele>34.7</ele>
        <time>2021-05-22T07:35:03Z</time>
      </trkpt>
      <trkpt lat="42.4741310" lon="-8.6495370">
        <ele>34.7</ele>
        <time>2021-05-22T07:35:04Z</time>
      </trkpt>
      <trkpt lat="42.4741570" lon="-8.6495580">
        <ele>34.7</ele>
        <time>2021-05-22T07:35:05Z</time>
      </trkpt>
      <trkpt lat="42.4741630" lon="-8.6495650">
        <ele>34.7</ele>
        <time>2021-05-22T07:35:06Z</time>
      </trkpt>
      <trkpt lat="42.4741760" lon="-8.6495810">
        <ele>34.8</ele>
        <time>2021-05-22T07:35:07Z</time>
      </trkpt>
      <trkpt lat="42.4741950" lon="-8.6495850">
        <ele>34.8</ele>
        <time>2021-05-22T07:35:08Z</time>
      </trkpt>
      <trkpt lat="42.4742050" lon="-8.6495880">
        <ele>34.8</ele>
        <time>2021-05-22T07:35:09Z</time>
      </trkpt>
      <trkpt lat="42.4742150" lon="-8.6495830">
        <ele>34.8</ele>
        <time>2021-05-22T07:35:10Z</time>
      </trkpt>
      <trkpt lat="42.4742300" lon="-8.6495890">
        <ele>34.8</ele>
        <time>2021-05-22T07:35:11Z</time>
      </trkpt>
      <trkpt lat="42.4742590" lon="-8.6496000">
        <ele>34.7</ele>
        <time>2021-05-22T07:35:12Z</time>
      </trkpt>
      <trkpt lat="42.4742680" lon="-8.6496050">
        <ele>34.7</ele>
        <time>2021-05-22T07:35:13Z</time>
      </trkpt>
      <trkpt lat="42.4742900" lon="-8.6496080">
        <ele>34.7</ele>
        <time>2021-05-22T07:35:14Z</time>
      </trkpt>
      <trkpt lat="42.4743020" lon="-8.6496090">
        <ele>34.7</ele>
        <time>2021-05-22T07:35:15Z</time>
      </trkpt>
      <trkpt lat="42.4743150" lon="-8.6496110">
        <ele>34.7</ele>
        <time>2021-05-22T07:35:16Z</time>
      </trkpt>
      <trkpt lat="42.4743270" lon="-8.6496140">
        <ele>34.7</ele>
        <time>2021-05-22T07:35:17Z</time>
      </trkpt>
      <trkpt lat="42.4743380" lon="-8.6496240">
        <ele>34.7</ele>
        <time>2021-05-22T07:35:18Z</time>
      </trkpt>
      <trkpt lat="42.4743490" lon="-8.6496270">
        <ele>34.7</ele>
        <time>2021-05-22T07:35:19Z</time>
      </trkpt>
      <trkpt lat="42.4743580" lon="-8.6496320">
        <ele>34.7</ele>
        <time>2021-05-22T07:35:20Z</time>
      </trkpt>
      <trkpt lat="42.4743760" lon="-8.6496420">
        <ele>34.6</ele>
        <time>2021-05-22T07:35:21Z</time>
      </trkpt>
      <trkpt lat="42.4743950" lon="-8.6496530">
        <ele>34.6</ele>
        <time>2021-05-22T07:35:22Z</time>
      </trkpt>
      <trkpt lat="42.4744040" lon="-8.6496600">
        <ele>34.6</ele>
        <time>2021-05-22T07:35:23Z</time>
      </trkpt>
      <trkpt lat="42.4744120" lon="-8.6496680">
        <ele>34.6</ele>
        <time>2021-05-22T07:35:24Z</time>
      </trkpt>
      <trkpt lat="42.4744300" lon="-8.6496750">
        <ele>34.5</ele>
        <time>2021-05-22T07:35:25Z</time>
      </trkpt>
      <trkpt lat="42.4744380" lon="-8.6496850">
        <ele>34.5</ele>
        <time>2021-05-22T07:35:26Z</time>
      </trkpt>
      <trkpt lat="42.4744590" lon="-8.6496930">
        <ele>34.5</ele>
        <time>2021-05-22T07:35:27Z</time>
      </trkpt>
      <trkpt lat="42.4744670" lon="-8.6496980">
        <ele>34.5</ele>
        <time>2021-05-22T07:35:28Z</time>
      </trkpt>
      <trkpt lat="42.4744740" lon="-8.6497040">
        <ele>34.5</ele>
        <time>2021-05-22T07:35:29Z</time>
      </trkpt>
      <trkpt lat="42.4744790" lon="-8.6497170">
        <ele>34.4</ele>
        <time>2021-05-22T07:35:30Z</time>
      </trkpt>
      <trkpt lat="42.4744910" lon="-8.6497190">
        <ele>34.4</ele>
        <time>2021-05-22T07:35:31Z</time>
      </trkpt>
      <trkpt lat="42.4745030" lon="-8.6497260">
        <ele>34.4</ele>
        <time>2021-05-22T07:35:32Z</time>
      </trkpt>
      <trkpt lat="42.4745140" lon="-8.6497370">
        <ele>34.4</ele>
        <time>2021-05-22T07:35:33Z</time>
      </trkpt>
      <trkpt lat="42.4745280" lon="-8.6497450">
        <ele>34.3</ele>
        <time>2021-05-22T07:35:34Z</time>
      </trkpt>
      <trkpt lat="42.4745430" lon="-8.6497490">
        <ele>34.3</ele>
        <time>2021-05-22T07:35:35Z</time>
      </trkpt>
      <trkpt lat="42.4745570" lon="-8.6497530">
        <ele>34.3</ele>
        <time>2021-05-22T07:35:36Z</time>
      </trkpt>
      <trkpt lat="42.4745740" lon="-8.6497560">
        <ele>34.2</ele>
        <time>2021-05-22T07:35:37Z</time>
      </trkpt>
      <trkpt lat="42.4745930" lon="-8.6497610">
        <ele>34.2</ele>
        <time>2021-05-22T07:35:38Z</time>
      </trkpt>
      <trkpt lat="42.4746020" lon="-8.6497560">
        <ele>34.1</ele>
        <time>2021-05-22T07:35:39Z</time>
      </trkpt>
      <trkpt lat="42.4746050" lon="-8.6497570">
        <ele>34.1</ele>
        <time>2021-05-22T07:35:40Z</time>
      </trkpt>
      <trkpt lat="42.4746110" lon="-8.6497580">
        <ele>34.1</ele>
        <time>2021-05-22T07:35:41Z</time>
      </trkpt>
      <trkpt lat="42.4746200" lon="-8.6497610">
        <ele>34.1</ele>
        <time>2021-05-22T07:35:42Z</time>
      </trkpt>
      <trkpt lat="42.4746380" lon="-8.6497700">
        <ele>34.0</ele>
        <time>2021-05-22T07:35:43Z</time>
      </trkpt>
      <trkpt lat="42.4746470" lon="-8.6497730">
        <ele>34.0</ele>
        <time>2021-05-22T07:35:44Z</time>
      </trkpt>
      <trkpt lat="42.4746570" lon="-8.6497770">
        <ele>34.0</ele>
        <time>2021-05-22T07:35:45Z</time>
      </trkpt>
      <trkpt lat="42.4746610" lon="-8.6497960">
        <ele>33.9</ele>
        <time>2021-05-22T07:35:46Z</time>
      </trkpt>
      <trkpt lat="42.4746750" lon="-8.6498050">
        <ele>33.8</ele>
        <time>2021-05-22T07:35:47Z</time>
      </trkpt>
      <trkpt lat="42.4746860" lon="-8.6498040">
        <ele>33.8</ele>
        <time>2021-05-22T07:35:48Z</time>
      </trkpt>
      <trkpt lat="42.4747030" lon="-8.6498090">
        <ele>33.7</ele>
        <time>2021-05-22T07:35:49Z</time>
      </trkpt>
      <trkpt lat="42.4747150" lon="-8.6498160">
        <ele>33.7</ele>
        <time>2021-05-22T07:35:50Z</time>
      </trkpt>
      <trkpt lat="42.4747330" lon="-8.6498200">
        <ele>33.6</ele>
        <time>2021-05-22T07:35:51Z</time>
      </trkpt>
      <trkpt lat="42.4747460" lon="-8.6498210">
        <ele>33.6</ele>
        <time>2021-05-22T07:35:52Z</time>
      </trkpt>
      <trkpt lat="42.4747630" lon="-8.6498330">
        <ele>33.6</ele>
        <time>2021-05-22T07:35:53Z</time>
      </trkpt>
      <trkpt lat="42.4747940" lon="-8.6498430">
        <ele>33.6</ele>
        <time>2021-05-22T07:35:54Z</time>
      </trkpt>
      <trkpt lat="42.4748010" lon="-8.6498430">
        <ele>33.6</ele>
        <time>2021-05-22T07:35:55Z</time>
      </trkpt>
      <trkpt lat="42.4748340" lon="-8.6498450">
        <ele>33.6</ele>
        <time>2021-05-22T07:35:56Z</time>
      </trkpt>
      <trkpt lat="42.4748420" lon="-8.6498450">
        <ele>33.6</ele>
        <time>2021-05-22T07:35:57Z</time>
      </trkpt>
      <trkpt lat="42.4748580" lon="-8.6498560">
        <ele>33.7</ele>
        <time>2021-05-22T07:35:58Z</time>
      </trkpt>
      <trkpt lat="42.4748750" lon="-8.6498680">
        <ele>33.7</ele>
        <time>2021-05-22T07:35:59Z</time>
      </trkpt>
      <trkpt lat="42.4748890" lon="-8.6498770">
        <ele>33.7</ele>
        <time>2021-05-22T07:36:00Z</time>
      </trkpt>
      <trkpt lat="42.4749050" lon="-8.6498850">
        <ele>33.7</ele>
        <time>2021-05-22T07:36:01Z</time>
      </trkpt>
      <trkpt lat="42.4749210" lon="-8.6498880">
        <ele>33.7</ele>
        <time>2021-05-22T07:36:02Z</time>
      </trkpt>
      <trkpt lat="42.4749360" lon="-8.6498900">
        <ele>33.7</ele>
        <time>2021-05-22T07:36:03Z</time>
      </trkpt>
      <trkpt lat="42.4749510" lon="-8.6499020">
        <ele>33.8</ele>
        <time>2021-05-22T07:36:04Z</time>
      </trkpt>
      <trkpt lat="42.4749580" lon="-8.6499020">
        <ele>33.8</ele>
        <time>2021-05-22T07:36:05Z</time>
      </trkpt>
      <trkpt lat="42.4749660" lon="-8.6499030">
        <ele>33.8</ele>
        <time>2021-05-22T07:36:06Z</time>
      </trkpt>
      <trkpt lat="42.4749730" lon="-8.6499040">
        <ele>33.8</ele>
        <time>2021-05-22T07:36:07Z</time>
      </trkpt>
      <trkpt lat="42.4749830" lon="-8.6499120">
        <ele>33.8</ele>
        <time>2021-05-22T07:36:08Z</time>
      </trkpt>
      <trkpt lat="42.4749810" lon="-8.6499190">
        <ele>33.8</ele>
        <time>2021-05-22T07:36:09Z</time>
      </trkpt>
      <trkpt lat="42.4749850" lon="-8.6499210">
        <ele>33.8</ele>
        <time>2021-05-22T07:36:10Z</time>
      </trkpt>
      <trkpt lat="42.4749910" lon="-8.6499220">
        <ele>33.8</ele>
        <time>2021-05-22T07:36:11Z</time>
      </trkpt>
      <trkpt lat="42.4749950" lon="-8.6499230">
        <ele>33.8</ele>
        <time>2021-05-22T07:36:12Z</time>
      </trkpt>
      <trkpt lat="42.4750050" lon="-8.6499220">
        <ele>33.8</ele>
        <time>2021-05-22T07:36:13Z</time>
      </trkpt>
      <trkpt lat="42.4750160" lon="-8.6499190">
        <ele>33.9</ele>
        <time>2021-05-22T07:36:14Z</time>
      </trkpt>
      <trkpt lat="42.4750280" lon="-8.6499160">
        <ele>33.9</ele>
        <time>2021-05-22T07:36:15Z</time>
      </trkpt>
      <trkpt lat="42.4750370" lon="-8.6499200">
        <ele>33.9</ele>
        <time>2021-05-22T07:36:16Z</time>
      </trkpt>
      <trkpt lat="42.4750510" lon="-8.6499220">
        <ele>33.9</ele>
        <time>2021-05-22T07:36:17Z</time>
      </trkpt>
      <trkpt lat="42.4750560" lon="-8.6499250">
        <ele>33.9</ele>
        <time>2021-05-22T07:36:18Z</time>
      </trkpt>
      <trkpt lat="42.4750670" lon="-8.6499270">
        <ele>34.0</ele>
        <time>2021-05-22T07:36:19Z</time>
      </trkpt>
      <trkpt lat="42.4750720" lon="-8.6499270">
        <ele>34.0</ele>
        <time>2021-05-22T07:36:20Z</time>
      </trkpt>
      <trkpt lat="42.4750810" lon="-8.6499280">
        <ele>34.0</ele>
        <time>2021-05-22T07:36:21Z</time>
      </trkpt>
      <trkpt lat="42.4750850" lon="-8.6499300">
        <ele>34.0</ele>
        <time>2021-05-22T07:36:22Z</time>
      </trkpt>
      <trkpt lat="42.4750920" lon="-8.6499330">
        <ele>34.0</ele>
        <time>2021-05-22T07:36:23Z</time>
      </trkpt>
      <trkpt lat="42.4750990" lon="-8.6499340">
        <ele>34.0</ele>
        <time>2021-05-22T07:36:24Z</time>
      </trkpt>
      <trkpt lat="42.4751140" lon="-8.6499340">
        <ele>34.0</ele>
        <time>2021-05-22T07:36:25Z</time>
      </trkpt>
      <trkpt lat="42.4751270" lon="-8.6499380">
        <ele>34.1</ele>
        <time>2021-05-22T07:36:26Z</time>
      </trkpt>
      <trkpt lat="42.4751330" lon="-8.6499310">
        <ele>34.1</ele>
        <time>2021-05-22T07:36:27Z</time>
      </trkpt>
      <trkpt lat="42.4751390" lon="-8.6499300">
        <ele>34.1</ele>
        <time>2021-05-22T07:36:28Z</time>
      </trkpt>
      <trkpt lat="42.4751440" lon="-8.6499300">
        <ele>34.1</ele>
        <time>2021-05-22T07:36:29Z</time>
      </trkpt>
      <trkpt lat="42.4751450" lon="-8.6499290">
        <ele>34.1</ele>
        <time>2021-05-22T07:36:30Z</time>
      </trkpt>
      <trkpt lat="42.4751560" lon="-8.6499290">
        <ele>34.1</ele>
        <time>2021-05-22T07:36:31Z</time>
      </trkpt>
      <trkpt lat="42.4751780" lon="-8.6499450">
        <ele>34.2</ele>
        <time>2021-05-22T07:36:32Z</time>
      </trkpt>
      <trkpt lat="42.4751860" lon="-8.6499510">
        <ele>34.2</ele>
        <time>2021-05-22T07:36:33Z</time>
      </trkpt>
      <trkpt lat="42.4752040" lon="-8.6499490">
        <ele>34.2</ele>
        <time>2021-05-22T07:36:34Z</time>
      </trkpt>
      <trkpt lat="42.4752130" lon="-8.6499480">
        <ele>34.2</ele>
        <time>2021-05-22T07:36:35Z</time>
      </trkpt>
      <trkpt lat="42.4752230" lon="-8.6499460">
        <ele>34.2</ele>
        <time>2021-05-22T07:36:36Z</time>
      </trkpt>
      <trkpt lat="42.4752350" lon="-8.6499450">
        <ele>34.2</ele>
        <time>2021-05-22T07:36:37Z</time>
      </trkpt>
      <trkpt lat="42.4752420" lon="-8.6499480">
        <ele>34.2</ele>
        <time>2021-05-22T07:36:38Z</time>
      </trkpt>
      <trkpt lat="42.4752510" lon="-8.6499540">
        <ele>34.2</ele>
        <time>2021-05-22T07:36:39Z</time>
      </trkpt>
      <trkpt lat="42.4752750" lon="-8.6499500">
        <ele>34.3</ele>
        <time>2021-05-22T07:36:40Z</time>
      </trkpt>
      <trkpt lat="42.4752870" lon="-8.6499450">
        <ele>34.3</ele>
        <time>2021-05-22T07:36:41Z</time>
      </trkpt>
      <trkpt lat="42.4753000" lon="-8.6499410">
        <ele>34.3</ele>
        <time>2021-05-22T07:36:42Z</time>
      </trkpt>
      <trkpt lat="42.4753220" lon="-8.6499430">
        <ele>34.3</ele>
        <time>2021-05-22T07:36:43Z</time>
      </trkpt>
      <trkpt lat="42.4753300" lon="-8.6499460">
        <ele>34.3</ele>
        <time>2021-05-22T07:36:44Z</time>
      </trkpt>
      <trkpt lat="42.4753380" lon="-8.6499490">
        <ele>34.3</ele>
        <time>2021-05-22T07:36:45Z</time>
      </trkpt>
      <trkpt lat="42.4753510" lon="-8.6499550">
        <ele>34.3</ele>
        <time>2021-05-22T07:36:46Z</time>
      </trkpt>
      <trkpt lat="42.4753710" lon="-8.6499570">
        <ele>34.3</ele>
        <time>2021-05-22T07:36:47Z</time>
      </trkpt>
      <trkpt lat="42.4753890" lon="-8.6499730">
        <ele>34.3</ele>
        <time>2021-05-22T07:36:48Z</time>
      </trkpt>
      <trkpt lat="42.4754010" lon="-8.6499780">
        <ele>34.3</ele>
        <time>2021-05-22T07:36:49Z</time>
      </trkpt>
      <trkpt lat="42.4754120" lon="-8.6499820">
        <ele>34.3</ele>
        <time>2021-05-22T07:36:50Z</time>
      </trkpt>
      <trkpt lat="42.4754210" lon="-8.6499870">
        <ele>34.3</ele>
        <time>2021-05-22T07:36:51Z</time>
      </trkpt>
      <trkpt lat="42.4754370" lon="-8.6499970">
        <ele>34.3</ele>
        <time>2021-05-22T07:36:52Z</time>
      </trkpt>
      <trkpt lat="42.4754550" lon="-8.6499920">
        <ele>34.3</ele>
        <time>2021-05-22T07:36:53Z</time>
      </trkpt>
      <trkpt lat="42.4754670" lon="-8.6499950">
        <ele>34.3</ele>
        <time>2021-05-22T07:36:54Z</time>
      </trkpt>
      <trkpt lat="42.4754800" lon="-8.6499990">
        <ele>34.3</ele>
        <time>2021-05-22T07:36:55Z</time>
      </trkpt>
      <trkpt lat="42.4754980" lon="-8.6500060">
        <ele>34.3</ele>
        <time>2021-05-22T07:36:56Z</time>
      </trkpt>
      <trkpt lat="42.4755070" lon="-8.6500100">
        <ele>34.3</ele>
        <time>2021-05-22T07:36:57Z</time>
      </trkpt>
      <trkpt lat="42.4755150" lon="-8.6500130">
        <ele>34.3</ele>
        <time>2021-05-22T07:36:58Z</time>
      </trkpt>
      <trkpt lat="42.4755280" lon="-8.6500210">
        <ele>34.3</ele>
        <time>2021-05-22T07:36:59Z</time>
      </trkpt>
      <trkpt lat="42.4755460" lon="-8.6500250">
        <ele>34.3</ele>
        <time>2021-05-22T07:37:00Z</time>
      </trkpt>
      <trkpt lat="42.4755780" lon="-8.6500250">
        <ele>34.3</ele>
        <time>2021-05-22T07:37:01Z</time>
      </trkpt>
      <trkpt lat="42.4755980" lon="-8.6500250">
        <ele>34.3</ele>
        <time>2021-05-22T07:37:02Z</time>
      </trkpt>
      <trkpt lat="42.4756070" lon="-8.6500290">
        <ele>34.3</ele>
        <time>2021-05-22T07:37:03Z</time>
      </trkpt>
      <trkpt lat="42.4756170" lon="-8.6500320">
        <ele>34.3</ele>
        <time>2021-05-22T07:37:04Z</time>
      </trkpt>
      <trkpt lat="42.4756270" lon="-8.6500350">
        <ele>34.3</ele>
        <time>2021-05-22T07:37:05Z</time>
      </trkpt>
      <trkpt lat="42.4756390" lon="-8.6500380">
        <ele>34.3</ele>
        <time>2021-05-22T07:37:06Z</time>
      </trkpt>
      <trkpt lat="42.4756780" lon="-8.6500480">
        <ele>34.3</ele>
        <time>2021-05-22T07:37:08Z</time>
      </trkpt>
      <trkpt lat="42.4756880" lon="-8.6500500">
        <ele>34.3</ele>
        <time>2021-05-22T07:37:10Z</time>
      </trkpt>
      <trkpt lat="42.4756930" lon="-8.6500500">
        <ele>34.3</ele>
        <time>2021-05-22T07:37:11Z</time>
      </trkpt>
      <trkpt lat="42.4757110" lon="-8.6500480">
        <ele>34.3</ele>
        <time>2021-05-22T07:37:12Z</time>
      </trkpt>
      <trkpt lat="42.4757220" lon="-8.6500470">
        <ele>34.2</ele>
        <time>2021-05-22T07:37:13Z</time>
      </trkpt>
      <trkpt lat="42.4757480" lon="-8.6500460">
        <ele>34.2</ele>
        <time>2021-05-22T07:37:14Z</time>
      </trkpt>
      <trkpt lat="42.4757680" lon="-8.6500440">
        <ele>34.2</ele>
        <time>2021-05-22T07:37:16Z</time>
      </trkpt>
      <trkpt lat="42.4757870" lon="-8.6500420">
        <ele>34.2</ele>
        <time>2021-05-22T07:37:17Z</time>
      </trkpt>
      <trkpt lat="42.4758020" lon="-8.6500440">
        <ele>34.2</ele>
        <time>2021-05-22T07:37:18Z</time>
      </trkpt>
      <trkpt lat="42.4758210" lon="-8.6500380">
        <ele>34.2</ele>
        <time>2021-05-22T07:37:19Z</time>
      </trkpt>
      <trkpt lat="42.4758330" lon="-8.6500350">
        <ele>34.2</ele>
        <time>2021-05-22T07:37:20Z</time>
      </trkpt>
      <trkpt lat="42.4758440" lon="-8.6500320">
        <ele>34.2</ele>
        <time>2021-05-22T07:37:21Z</time>
      </trkpt>
      <trkpt lat="42.4758600" lon="-8.6500290">
        <ele>34.2</ele>
        <time>2021-05-22T07:37:22Z</time>
      </trkpt>
      <trkpt lat="42.4758740" lon="-8.6500260">
        <ele>34.2</ele>
        <time>2021-05-22T07:37:23Z</time>
      </trkpt>
      <trkpt lat="42.4758980" lon="-8.6500260">
        <ele>34.2</ele>
        <time>2021-05-22T07:37:24Z</time>
      </trkpt>
      <trkpt lat="42.4759070" lon="-8.6500260">
        <ele>34.2</ele>
        <time>2021-05-22T07:37:25Z</time>
      </trkpt>
      <trkpt lat="42.4759150" lon="-8.6500250">
        <ele>34.2</ele>
        <time>2021-05-22T07:37:26Z</time>
      </trkpt>
      <trkpt lat="42.4759240" lon="-8.6500270">
        <ele>34.2</ele>
        <time>2021-05-22T07:37:27Z</time>
      </trkpt>
      <trkpt lat="42.4759180" lon="-8.6500260">
        <ele>34.2</ele>
        <time>2021-05-22T07:37:28Z</time>
      </trkpt>
      <trkpt lat="42.4759220" lon="-8.6500290">
        <ele>34.2</ele>
        <time>2021-05-22T07:37:29Z</time>
      </trkpt>
      <trkpt lat="42.4759280" lon="-8.6500260">
        <ele>34.2</ele>
        <time>2021-05-22T07:37:30Z</time>
      </trkpt>
      <trkpt lat="42.4759350" lon="-8.6500310">
        <ele>34.2</ele>
        <time>2021-05-22T07:37:31Z</time>
      </trkpt>
      <trkpt lat="42.4759500" lon="-8.6500320">
        <ele>34.2</ele>
        <time>2021-05-22T07:37:32Z</time>
      </trkpt>
      <trkpt lat="42.4759660" lon="-8.6500360">
        <ele>34.2</ele>
        <time>2021-05-22T07:37:33Z</time>
      </trkpt>
      <trkpt lat="42.4759700" lon="-8.6500380">
        <ele>34.2</ele>
        <time>2021-05-22T07:37:34Z</time>
      </trkpt>
      <trkpt lat="42.4759830" lon="-8.6500450">
        <ele>34.1</ele>
        <time>2021-05-22T07:37:35Z</time>
      </trkpt>
      <trkpt lat="42.4759900" lon="-8.6500360">
        <ele>34.1</ele>
        <time>2021-05-22T07:37:36Z</time>
      </trkpt>
      <trkpt lat="42.4760170" lon="-8.6500480">
        <ele>34.1</ele>
        <time>2021-05-22T07:37:37Z</time>
      </trkpt>
      <trkpt lat="42.4760160" lon="-8.6500410">
        <ele>34.1</ele>
        <time>2021-05-22T07:37:38Z</time>
      </trkpt>
      <trkpt lat="42.4760350" lon="-8.6500620">
        <ele>34.1</ele>
        <time>2021-05-22T07:37:39Z</time>
      </trkpt>
      <trkpt lat="42.4760500" lon="-8.6500570">
        <ele>34.1</ele>
        <time>2021-05-22T07:37:40Z</time>
      </trkpt>
      <trkpt lat="42.4760720" lon="-8.6500730">
        <ele>34.1</ele>
        <time>2021-05-22T07:37:41Z</time>
      </trkpt>
      <trkpt lat="42.4760860" lon="-8.6500620">
        <ele>34.1</ele>
        <time>2021-05-22T07:37:42Z</time>
      </trkpt>
      <trkpt lat="42.4761110" lon="-8.6500710">
        <ele>34.1</ele>
        <time>2021-05-22T07:37:43Z</time>
      </trkpt>
      <trkpt lat="42.4761190" lon="-8.6500720">
        <ele>34.1</ele>
        <time>2021-05-22T07:37:44Z</time>
      </trkpt>
      <trkpt lat="42.4761260" lon="-8.6500740">
        <ele>34.1</ele>
        <time>2021-05-22T07:37:45Z</time>
      </trkpt>
      <trkpt lat="42.4761400" lon="-8.6500760">
        <ele>34.1</ele>
        <time>2021-05-22T07:37:46Z</time>
      </trkpt>
      <trkpt lat="42.4761570" lon="-8.6500770">
        <ele>34.1</ele>
        <time>2021-05-22T07:37:47Z</time>
      </trkpt>
      <trkpt lat="42.4761880" lon="-8.6500790">
        <ele>34.0</ele>
        <time>2021-05-22T07:37:48Z</time>
      </trkpt>
      <trkpt lat="42.4761960" lon="-8.6500770">
        <ele>34.0</ele>
        <time>2021-05-22T07:37:49Z</time>
      </trkpt>
      <trkpt lat="42.4762090" lon="-8.6500720">
        <ele>34.0</ele>
        <time>2021-05-22T07:37:50Z</time>
      </trkpt>
      <trkpt lat="42.4762250" lon="-8.6500750">
        <ele>34.0</ele>
        <time>2021-05-22T07:37:51Z</time>
      </trkpt>
      <trkpt lat="42.4762480" lon="-8.6500810">
        <ele>34.0</ele>
        <time>2021-05-22T07:37:52Z</time>
      </trkpt>
      <trkpt lat="42.4762580" lon="-8.6500810">
        <ele>34.0</ele>
        <time>2021-05-22T07:37:53Z</time>
      </trkpt>
      <trkpt lat="42.4762670" lon="-8.6500800">
        <ele>34.0</ele>
        <time>2021-05-22T07:37:54Z</time>
      </trkpt>
      <trkpt lat="42.4762720" lon="-8.6500830">
        <ele>34.0</ele>
        <time>2021-05-22T07:37:55Z</time>
      </trkpt>
      <trkpt lat="42.4762730" lon="-8.6500870">
        <ele>34.0</ele>
        <time>2021-05-22T07:37:56Z</time>
      </trkpt>
      <trkpt lat="42.4762770" lon="-8.6500920">
        <ele>34.0</ele>
        <time>2021-05-22T07:37:57Z</time>
      </trkpt>
      <trkpt lat="42.4762900" lon="-8.6501000">
        <ele>34.0</ele>
        <time>2021-05-22T07:37:58Z</time>
      </trkpt>
      <trkpt lat="42.4763060" lon="-8.6501100">
        <ele>34.0</ele>
        <time>2021-05-22T07:37:59Z</time>
      </trkpt>
      <trkpt lat="42.4763130" lon="-8.6501100">
        <ele>34.0</ele>
        <time>2021-05-22T07:38:00Z</time>
      </trkpt>
      <trkpt lat="42.4763230" lon="-8.6501030">
        <ele>34.0</ele>
        <time>2021-05-22T07:38:01Z</time>
      </trkpt>
      <trkpt lat="42.4763300" lon="-8.6501040">
        <ele>34.0</ele>
        <time>2021-05-22T07:38:02Z</time>
      </trkpt>
      <trkpt lat="42.4763320" lon="-8.6501060">
        <ele>34.0</ele>
        <time>2021-05-22T07:38:03Z</time>
      </trkpt>
      <trkpt lat="42.4763510" lon="-8.6501020">
        <ele>34.1</ele>
        <time>2021-05-22T07:38:04Z</time>
      </trkpt>
      <trkpt lat="42.4763660" lon="-8.6501000">
        <ele>34.1</ele>
        <time>2021-05-22T07:38:05Z</time>
      </trkpt>
      <trkpt lat="42.4763730" lon="-8.6500940">
        <ele>34.1</ele>
        <time>2021-05-22T07:38:06Z</time>
      </trkpt>
      <trkpt lat="42.4763760" lon="-8.6500900">
        <ele>34.1</ele>
        <time>2021-05-22T07:38:07Z</time>
      </trkpt>
      <trkpt lat="42.4763870" lon="-8.6500900">
        <ele>34.1</ele>
        <time>2021-05-22T07:38:08Z</time>
      </trkpt>
      <trkpt lat="42.4763970" lon="-8.6500990">
        <ele>34.1</ele>
        <time>2021-05-22T07:38:09Z</time>
      </trkpt>
      <trkpt lat="42.4764090" lon="-8.6501050">
        <ele>34.1</ele>
        <time>2021-05-22T07:38:10Z</time>
      </trkpt>
      <trkpt lat="42.4764200" lon="-8.6501120">
        <ele>34.1</ele>
        <time>2021-05-22T07:38:11Z</time>
      </trkpt>
      <trkpt lat="42.4764470" lon="-8.6501250">
        <ele>34.1</ele>
        <time>2021-05-22T07:38:12Z</time>
      </trkpt>
      <trkpt lat="42.4764780" lon="-8.6501380">
        <ele>34.1</ele>
        <time>2021-05-22T07:38:13Z</time>
      </trkpt>
      <trkpt lat="42.4764890" lon="-8.6501440">
        <ele>34.1</ele>
        <time>2021-05-22T07:38:14Z</time>
      </trkpt>
      <trkpt lat="42.4765010" lon="-8.6501500">
        <ele>34.1</ele>
        <time>2021-05-22T07:38:15Z</time>
      </trkpt>
      <trkpt lat="42.4765090" lon="-8.6501540">
        <ele>34.1</ele>
        <time>2021-05-22T07:38:16Z</time>
      </trkpt>
      <trkpt lat="42.4765190" lon="-8.6501560">
        <ele>34.1</ele>
        <time>2021-05-22T07:38:17Z</time>
      </trkpt>
      <trkpt lat="42.4765410" lon="-8.6501670">
        <ele>34.1</ele>
        <time>2021-05-22T07:38:18Z</time>
      </trkpt>
      <trkpt lat="42.4765500" lon="-8.6501710">
        <ele>34.1</ele>
        <time>2021-05-22T07:38:19Z</time>
      </trkpt>
      <trkpt lat="42.4765580" lon="-8.6501760">
        <ele>34.1</ele>
        <time>2021-05-22T07:38:20Z</time>
      </trkpt>
      <trkpt lat="42.4765930" lon="-8.6501850">
        <ele>34.1</ele>
        <time>2021-05-22T07:38:21Z</time>
      </trkpt>
      <trkpt lat="42.4766020" lon="-8.6501920">
        <ele>34.1</ele>
        <time>2021-05-22T07:38:22Z</time>
      </trkpt>
      <trkpt lat="42.4766200" lon="-8.6501940">
        <ele>34.1</ele>
        <time>2021-05-22T07:38:23Z</time>
      </trkpt>
      <trkpt lat="42.4766370" lon="-8.6502030">
        <ele>34.1</ele>
        <time>2021-05-22T07:38:24Z</time>
      </trkpt>
      <trkpt lat="42.4766470" lon="-8.6502030">
        <ele>34.1</ele>
        <time>2021-05-22T07:38:25Z</time>
      </trkpt>
      <trkpt lat="42.4766570" lon="-8.6502160">
        <ele>34.1</ele>
        <time>2021-05-22T07:38:26Z</time>
      </trkpt>
      <trkpt lat="42.4766700" lon="-8.6502230">
        <ele>34.1</ele>
        <time>2021-05-22T07:38:27Z</time>
      </trkpt>
      <trkpt lat="42.4766830" lon="-8.6502300">
        <ele>34.1</ele>
        <time>2021-05-22T07:38:28Z</time>
      </trkpt>
      <trkpt lat="42.4767000" lon="-8.6502400">
        <ele>34.1</ele>
        <time>2021-05-22T07:38:29Z</time>
      </trkpt>
      <trkpt lat="42.4767300" lon="-8.6502580">
        <ele>34.1</ele>
        <time>2021-05-22T07:38:30Z</time>
      </trkpt>
      <trkpt lat="42.4767370" lon="-8.6502620">
        <ele>34.1</ele>
        <time>2021-05-22T07:38:31Z</time>
      </trkpt>
      <trkpt lat="42.4767410" lon="-8.6502720">
        <ele>34.1</ele>
        <time>2021-05-22T07:38:32Z</time>
      </trkpt>
      <trkpt lat="42.4767530" lon="-8.6502750">
        <ele>34.1</ele>
        <time>2021-05-22T07:38:33Z</time>
      </trkpt>
      <trkpt lat="42.4767690" lon="-8.6502830">
        <ele>34.1</ele>
        <time>2021-05-22T07:38:34Z</time>
      </trkpt>
      <trkpt lat="42.4767780" lon="-8.6502980">
        <ele>34.1</ele>
        <time>2021-05-22T07:38:35Z</time>
      </trkpt>
      <trkpt lat="42.4767900" lon="-8.6503100">
        <ele>34.2</ele>
        <time>2021-05-22T07:38:36Z</time>
      </trkpt>
      <trkpt lat="42.4768010" lon="-8.6503200">
        <ele>34.2</ele>
        <time>2021-05-22T07:38:37Z</time>
      </trkpt>
      <trkpt lat="42.4768210" lon="-8.6503340">
        <ele>34.2</ele>
        <time>2021-05-22T07:38:38Z</time>
      </trkpt>
      <trkpt lat="42.4768310" lon="-8.6503390">
        <ele>34.2</ele>
        <time>2021-05-22T07:38:39Z</time>
      </trkpt>
      <trkpt lat="42.4768430" lon="-8.6503430">
        <ele>34.2</ele>
        <time>2021-05-22T07:38:40Z</time>
      </trkpt>
      <trkpt lat="42.4768540" lon="-8.6503480">
        <ele>34.3</ele>
        <time>2021-05-22T07:38:41Z</time>
      </trkpt>
      <trkpt lat="42.4768650" lon="-8.6503520">
        <ele>34.3</ele>
        <time>2021-05-22T07:38:42Z</time>
      </trkpt>
      <trkpt lat="42.4768730" lon="-8.6503600">
        <ele>34.3</ele>
        <time>2021-05-22T07:38:43Z</time>
      </trkpt>
      <trkpt lat="42.4768790" lon="-8.6503620">
        <ele>34.3</ele>
        <time>2021-05-22T07:38:44Z</time>
      </trkpt>
      <trkpt lat="42.4768910" lon="-8.6503660">
        <ele>34.3</ele>
        <time>2021-05-22T07:38:45Z</time>
      </trkpt>
      <trkpt lat="42.4769120" lon="-8.6503700">
        <ele>34.3</ele>
        <time>2021-05-22T07:38:46Z</time>
      </trkpt>
      <trkpt lat="42.4769230" lon="-8.6503760">
        <ele>34.4</ele>
        <time>2021-05-22T07:38:47Z</time>
      </trkpt>
      <trkpt lat="42.4769430" lon="-8.6503910">
        <ele>34.4</ele>
        <time>2021-05-22T07:38:48Z</time>
      </trkpt>
      <trkpt lat="42.4769550" lon="-8.6503950">
        <ele>34.4</ele>
        <time>2021-05-22T07:38:49Z</time>
      </trkpt>
      <trkpt lat="42.4769660" lon="-8.6504040">
        <ele>34.4</ele>
        <time>2021-05-22T07:38:50Z</time>
      </trkpt>
      <trkpt lat="42.4769740" lon="-8.6504240">
        <ele>34.5</ele>
        <time>2021-05-22T07:38:51Z</time>
      </trkpt>
      <trkpt lat="42.4769760" lon="-8.6504300">
        <ele>34.5</ele>
        <time>2021-05-22T07:38:52Z</time>
      </trkpt>
      <trkpt lat="42.4769800" lon="-8.6504380">
        <ele>34.5</ele>
        <time>2021-05-22T07:38:53Z</time>
      </trkpt>
      <trkpt lat="42.4769990" lon="-8.6504410">
        <ele>34.5</ele>
        <time>2021-05-22T07:38:54Z</time>
      </trkpt>
      <trkpt lat="42.4770200" lon="-8.6504460">
        <ele>34.5</ele>
        <time>2021-05-22T07:38:55Z</time>
      </trkpt>
      <trkpt lat="42.4770260" lon="-8.6504530">
        <ele>34.5</ele>
        <time>2021-05-22T07:38:56Z</time>
      </trkpt>
      <trkpt lat="42.4770330" lon="-8.6504590">
        <ele>34.5</ele>
        <time>2021-05-22T07:38:57Z</time>
      </trkpt>
      <trkpt lat="42.4770560" lon="-8.6504800">
        <ele>34.6</ele>
        <time>2021-05-22T07:38:58Z</time>
      </trkpt>
      <trkpt lat="42.4770660" lon="-8.6504860">
        <ele>34.6</ele>
        <time>2021-05-22T07:38:59Z</time>
      </trkpt>
      <trkpt lat="42.4770850" lon="-8.6504980">
        <ele>34.6</ele>
        <time>2021-05-22T07:39:00Z</time>
      </trkpt>
      <trkpt lat="42.4770930" lon="-8.6505030">
        <ele>34.6</ele>
        <time>2021-05-22T07:39:01Z</time>
      </trkpt>
      <trkpt lat="42.4771020" lon="-8.6505080">
        <ele>34.6</ele>
        <time>2021-05-22T07:39:02Z</time>
      </trkpt>
      <trkpt lat="42.4771080" lon="-8.6505110">
        <ele>34.6</ele>
        <time>2021-05-22T07:39:03Z</time>
      </trkpt>
      <trkpt lat="42.4771150" lon="-8.6505170">
        <ele>34.6</ele>
        <time>2021-05-22T07:39:04Z</time>
      </trkpt>
      <trkpt lat="42.4771290" lon="-8.6505260">
        <ele>34.7</ele>
        <time>2021-05-22T07:39:05Z</time>
      </trkpt>
      <trkpt lat="42.4771320" lon="-8.6505310">
        <ele>34.7</ele>
        <time>2021-05-22T07:39:06Z</time>
      </trkpt>
      <trkpt lat="42.4771400" lon="-8.6505440">
        <ele>34.7</ele>
        <time>2021-05-22T07:39:07Z</time>
      </trkpt>
      <trkpt lat="42.4771510" lon="-8.6505430">
        <ele>34.7</ele>
        <time>2021-05-22T07:39:08Z</time>
      </trkpt>
      <trkpt lat="42.4771530" lon="-8.6505420">
        <ele>34.7</ele>
        <time>2021-05-22T07:39:09Z</time>
      </trkpt>
      <trkpt lat="42.4771600" lon="-8.6505400">
        <ele>34.7</ele>
        <time>2021-05-22T07:39:10Z</time>
      </trkpt>
      <trkpt lat="42.4771640" lon="-8.6505450">
        <ele>34.7</ele>
        <time>2021-05-22T07:39:11Z</time>
      </trkpt>
      <trkpt lat="42.4771740" lon="-8.6505420">
        <ele>34.7</ele>
        <time>2021-05-22T07:39:12Z</time>
      </trkpt>
      <trkpt lat="42.4771890" lon="-8.6505440">
        <ele>34.8</ele>
        <time>2021-05-22T07:39:13Z</time>
      </trkpt>
      <trkpt lat="42.4772040" lon="-8.6505420">
        <ele>34.8</ele>
        <time>2021-05-22T07:39:14Z</time>
      </trkpt>
      <trkpt lat="42.4772170" lon="-8.6505360">
        <ele>34.8</ele>
        <time>2021-05-22T07:39:15Z</time>
      </trkpt>
      <trkpt lat="42.4772420" lon="-8.6505440">
        <ele>34.8</ele>
        <time>2021-05-22T07:39:16Z</time>
      </trkpt>
      <trkpt lat="42.4772460" lon="-8.6505340">
        <ele>34.9</ele>
        <time>2021-05-22T07:39:17Z</time>
      </trkpt>
      <trkpt lat="42.4772620" lon="-8.6505370">
        <ele>34.9</ele>
        <time>2021-05-22T07:39:18Z</time>
      </trkpt>
      <trkpt lat="42.4772740" lon="-8.6505380">
        <ele>34.9</ele>
        <time>2021-05-22T07:39:19Z</time>
      </trkpt>
      <trkpt lat="42.4772860" lon="-8.6505380">
        <ele>34.9</ele>
        <time>2021-05-22T07:39:20Z</time>
      </trkpt>
      <trkpt lat="42.4772900" lon="-8.6505350">
        <ele>34.9</ele>
        <time>2021-05-22T07:39:21Z</time>
      </trkpt>
      <trkpt lat="42.4772990" lon="-8.6505350">
        <ele>35.0</ele>
        <time>2021-05-22T07:39:22Z</time>
      </trkpt>
      <trkpt lat="42.4773190" lon="-8.6505430">
        <ele>35.0</ele>
        <time>2021-05-22T07:39:23Z</time>
      </trkpt>
      <trkpt lat="42.4773340" lon="-8.6505450">
        <ele>35.0</ele>
        <time>2021-05-22T07:39:24Z</time>
      </trkpt>
      <trkpt lat="42.4773360" lon="-8.6505350">
        <ele>35.0</ele>
        <time>2021-05-22T07:39:25Z</time>
      </trkpt>
      <trkpt lat="42.4773470" lon="-8.6505240">
        <ele>35.1</ele>
        <time>2021-05-22T07:39:26Z</time>
      </trkpt>
      <trkpt lat="42.4773750" lon="-8.6505160">
        <ele>35.1</ele>
        <time>2021-05-22T07:39:27Z</time>
      </trkpt>
      <trkpt lat="42.4773840" lon="-8.6505140">
        <ele>35.1</ele>
        <time>2021-05-22T07:39:28Z</time>
      </trkpt>
      <trkpt lat="42.4774000" lon="-8.6505190">
        <ele>35.2</ele>
        <time>2021-05-22T07:39:29Z</time>
      </trkpt>
      <trkpt lat="42.4774050" lon="-8.6505230">
        <ele>35.2</ele>
        <time>2021-05-22T07:39:30Z</time>
      </trkpt>
      <trkpt lat="42.4774170" lon="-8.6505300">
        <ele>35.2</ele>
        <time>2021-05-22T07:39:31Z</time>
      </trkpt>
      <trkpt lat="42.4774340" lon="-8.6505370">
        <ele>35.2</ele>
        <time>2021-05-22T07:39:32Z</time>
      </trkpt>
      <trkpt lat="42.4774440" lon="-8.6505410">
        <ele>35.3</ele>
        <time>2021-05-22T07:39:33Z</time>
      </trkpt>
      <trkpt lat="42.4774500" lon="-8.6505440">
        <ele>35.3</ele>
        <time>2021-05-22T07:39:34Z</time>
      </trkpt>
      <trkpt lat="42.4774540" lon="-8.6505270">
        <ele>35.3</ele>
        <time>2021-05-22T07:39:35Z</time>
      </trkpt>
      <trkpt lat="42.4774600" lon="-8.6505280">
        <ele>35.3</ele>
        <time>2021-05-22T07:39:36Z</time>
      </trkpt>
      <trkpt lat="42.4774690" lon="-8.6505290">
        <ele>35.3</ele>
        <time>2021-05-22T07:39:37Z</time>
      </trkpt>
      <trkpt lat="42.4774790" lon="-8.6505300">
        <ele>35.3</ele>
        <time>2021-05-22T07:39:38Z</time>
      </trkpt>
      <trkpt lat="42.4775060" lon="-8.6505390">
        <ele>35.4</ele>
        <time>2021-05-22T07:39:39Z</time>
      </trkpt>
      <trkpt lat="42.4775180" lon="-8.6505470">
        <ele>35.4</ele>
        <time>2021-05-22T07:39:40Z</time>
      </trkpt>
      <trkpt lat="42.4775360" lon="-8.6505540">
        <ele>35.4</ele>
        <time>2021-05-22T07:39:41Z</time>
      </trkpt>
      <trkpt lat="42.4775510" lon="-8.6505510">
        <ele>35.4</ele>
        <time>2021-05-22T07:39:42Z</time>
      </trkpt>
      <trkpt lat="42.4775660" lon="-8.6505510">
        <ele>35.4</ele>
        <time>2021-05-22T07:39:43Z</time>
      </trkpt>
      <trkpt lat="42.4775820" lon="-8.6505620">
        <ele>35.4</ele>
        <time>2021-05-22T07:39:44Z</time>
      </trkpt>
      <trkpt lat="42.4775960" lon="-8.6505640">
        <ele>35.4</ele>
        <time>2021-05-22T07:39:45Z</time>
      </trkpt>
      <trkpt lat="42.4776090" lon="-8.6505760">
        <ele>35.4</ele>
        <time>2021-05-22T07:39:46Z</time>
      </trkpt>
      <trkpt lat="42.4776180" lon="-8.6505810">
        <ele>35.5</ele>
        <time>2021-05-22T07:39:47Z</time>
      </trkpt>
      <trkpt lat="42.4776280" lon="-8.6505880">
        <ele>35.5</ele>
        <time>2021-05-22T07:39:48Z</time>
      </trkpt>
      <trkpt lat="42.4776390" lon="-8.6505920">
        <ele>35.5</ele>
        <time>2021-05-22T07:39:49Z</time>
      </trkpt>
      <trkpt lat="42.4776490" lon="-8.6505890">
        <ele>35.5</ele>
        <time>2021-05-22T07:39:50Z</time>
      </trkpt>
      <trkpt lat="42.4776590" lon="-8.6505900">
        <ele>35.5</ele>
        <time>2021-05-22T07:39:51Z</time>
      </trkpt>
      <trkpt lat="42.4776800" lon="-8.6505970">
        <ele>35.5</ele>
        <time>2021-05-22T07:39:52Z</time>
      </trkpt>
      <trkpt lat="42.4776870" lon="-8.6506030">
        <ele>35.5</ele>
        <time>2021-05-22T07:39:53Z</time>
      </trkpt>
      <trkpt lat="42.4776950" lon="-8.6506100">
        <ele>35.5</ele>
        <time>2021-05-22T07:39:54Z</time>
      </trkpt>
      <trkpt lat="42.4777020" lon="-8.6506220">
        <ele>35.5</ele>
        <time>2021-05-22T07:39:55Z</time>
      </trkpt>
      <trkpt lat="42.4777200" lon="-8.6506330">
        <ele>35.6</ele>
        <time>2021-05-22T07:39:56Z</time>
      </trkpt>
      <trkpt lat="42.4777330" lon="-8.6506350">
        <ele>35.6</ele>
        <time>2021-05-22T07:39:57Z</time>
      </trkpt>
      <trkpt lat="42.4777520" lon="-8.6506360">
        <ele>35.6</ele>
        <time>2021-05-22T07:39:58Z</time>
      </trkpt>
      <trkpt lat="42.4777680" lon="-8.6506400">
        <ele>35.6</ele>
        <time>2021-05-22T07:39:59Z</time>
      </trkpt>
      <trkpt lat="42.4777840" lon="-8.6506490">
        <ele>35.6</ele>
        <time>2021-05-22T07:40:00Z</time>
      </trkpt>
      <trkpt lat="42.4778110" lon="-8.6506560">
        <ele>35.7</ele>
        <time>2021-05-22T07:40:01Z</time>
      </trkpt>
      <trkpt lat="42.4778210" lon="-8.6506590">
        <ele>35.7</ele>
        <time>2021-05-22T07:40:02Z</time>
      </trkpt>
      <trkpt lat="42.4778560" lon="-8.6506570">
        <ele>35.8</ele>
        <time>2021-05-22T07:40:03Z</time>
      </trkpt>
      <trkpt lat="42.4778640" lon="-8.6506540">
        <ele>35.8</ele>
        <time>2021-05-22T07:40:04Z</time>
      </trkpt>
      <trkpt lat="42.4778760" lon="-8.6506610">
        <ele>35.8</ele>
        <time>2021-05-22T07:40:05Z</time>
      </trkpt>
      <trkpt lat="42.4778890" lon="-8.6506590">
        <ele>35.8</ele>
        <time>2021-05-22T07:40:06Z</time>
      </trkpt>
      <trkpt lat="42.4778980" lon="-8.6506600">
        <ele>35.8</ele>
        <time>2021-05-22T07:40:07Z</time>
      </trkpt>
      <trkpt lat="42.4779180" lon="-8.6506620">
        <ele>35.9</ele>
        <time>2021-05-22T07:40:08Z</time>
      </trkpt>
      <trkpt lat="42.4779300" lon="-8.6506660">
        <ele>35.9</ele>
        <time>2021-05-22T07:40:09Z</time>
      </trkpt>
      <trkpt lat="42.4779420" lon="-8.6506710">
        <ele>35.9</ele>
        <time>2021-05-22T07:40:10Z</time>
      </trkpt>
      <trkpt lat="42.4779510" lon="-8.6506760">
        <ele>35.9</ele>
        <time>2021-05-22T07:40:11Z</time>
      </trkpt>
      <trkpt lat="42.4779620" lon="-8.6506820">
        <ele>36.0</ele>
        <time>2021-05-22T07:40:12Z</time>
      </trkpt>
      <trkpt lat="42.4779690" lon="-8.6506860">
        <ele>36.0</ele>
        <time>2021-05-22T07:40:13Z</time>
      </trkpt>
      <trkpt lat="42.4779770" lon="-8.6506880">
        <ele>36.0</ele>
        <time>2021-05-22T07:40:14Z</time>
      </trkpt>
      <trkpt lat="42.4779830" lon="-8.6506920">
        <ele>36.0</ele>
        <time>2021-05-22T07:40:15Z</time>
      </trkpt>
      <trkpt lat="42.4780010" lon="-8.6506980">
        <ele>36.0</ele>
        <time>2021-05-22T07:40:16Z</time>
      </trkpt>
      <trkpt lat="42.4780210" lon="-8.6507100">
        <ele>36.1</ele>
        <time>2021-05-22T07:40:17Z</time>
      </trkpt>
      <trkpt lat="42.4780300" lon="-8.6507110">
        <ele>36.1</ele>
        <time>2021-05-22T07:40:18Z</time>
      </trkpt>
      <trkpt lat="42.4780400" lon="-8.6507130">
        <ele>36.1</ele>
        <time>2021-05-22T07:40:19Z</time>
      </trkpt>
      <trkpt lat="42.4780610" lon="-8.6507090">
        <ele>36.1</ele>
        <time>2021-05-22T07:40:20Z</time>
      </trkpt>
      <trkpt lat="42.4780740" lon="-8.6507180">
        <ele>36.1</ele>
        <time>2021-05-22T07:40:21Z</time>
      </trkpt>
      <trkpt lat="42.4780880" lon="-8.6507180">
        <ele>36.1</ele>
        <time>2021-05-22T07:40:22Z</time>
      </trkpt>
      <trkpt lat="42.4780970" lon="-8.6507230">
        <ele>36.2</ele>
        <time>2021-05-22T07:40:23Z</time>
      </trkpt>
      <trkpt lat="42.4781090" lon="-8.6507270">
        <ele>36.2</ele>
        <time>2021-05-22T07:40:24Z</time>
      </trkpt>
      <trkpt lat="42.4781310" lon="-8.6507350">
        <ele>36.2</ele>
        <time>2021-05-22T07:40:25Z</time>
      </trkpt>
      <trkpt lat="42.4781390" lon="-8.6507390">
        <ele>36.2</ele>
        <time>2021-05-22T07:40:26Z</time>
      </trkpt>
      <trkpt lat="42.4781480" lon="-8.6507440">
        <ele>36.2</ele>
        <time>2021-05-22T07:40:27Z</time>
      </trkpt>
      <trkpt lat="42.4781650" lon="-8.6507430">
        <ele>36.2</ele>
        <time>2021-05-22T07:40:28Z</time>
      </trkpt>
      <trkpt lat="42.4781750" lon="-8.6507370">
        <ele>36.3</ele>
        <time>2021-05-22T07:40:29Z</time>
      </trkpt>
      <trkpt lat="42.4781890" lon="-8.6507480">
        <ele>36.3</ele>
        <time>2021-05-22T07:40:30Z</time>
      </trkpt>
      <trkpt lat="42.4782010" lon="-8.6507510">
        <ele>36.3</ele>
        <time>2021-05-22T07:40:31Z</time>
      </trkpt>
      <trkpt lat="42.4782080" lon="-8.6507570">
        <ele>36.3</ele>
        <time>2021-05-22T07:40:32Z</time>
      </trkpt>
      <trkpt lat="42.4782130" lon="-8.6507580">
        <ele>36.3</ele>
        <time>2021-05-22T07:40:33Z</time>
      </trkpt>
      <trkpt lat="42.4782300" lon="-8.6507560">
        <ele>36.3</ele>
        <time>2021-05-22T07:40:34Z</time>
      </trkpt>
      <trkpt lat="42.4782490" lon="-8.6507610">
        <ele>36.3</ele>
        <time>2021-05-22T07:40:35Z</time>
      </trkpt>
      <trkpt lat="42.4782560" lon="-8.6507670">
        <ele>36.4</ele>
        <time>2021-05-22T07:40:36Z</time>
      </trkpt>
      <trkpt lat="42.4782740" lon="-8.6507720">
        <ele>36.4</ele>
        <time>2021-05-22T07:40:37Z</time>
      </trkpt>
      <trkpt lat="42.4782900" lon="-8.6507770">
        <ele>36.4</ele>
        <time>2021-05-22T07:40:38Z</time>
      </trkpt>
      <trkpt lat="42.4783100" lon="-8.6507850">
        <ele>36.4</ele>
        <time>2021-05-22T07:40:39Z</time>
      </trkpt>
      <trkpt lat="42.4783210" lon="-8.6507860">
        <ele>36.4</ele>
        <time>2021-05-22T07:40:40Z</time>
      </trkpt>
      <trkpt lat="42.4783330" lon="-8.6507860">
        <ele>36.5</ele>
        <time>2021-05-22T07:40:41Z</time>
      </trkpt>
      <trkpt lat="42.4783360" lon="-8.6507940">
        <ele>36.5</ele>
        <time>2021-05-22T07:40:42Z</time>
      </trkpt>
      <trkpt lat="42.4783520" lon="-8.6508000">
        <ele>36.5</ele>
        <time>2021-05-22T07:40:43Z</time>
      </trkpt>
      <trkpt lat="42.4783630" lon="-8.6507990">
        <ele>36.5</ele>
        <time>2021-05-22T07:40:44Z</time>
      </trkpt>
      <trkpt lat="42.4783760" lon="-8.6508070">
        <ele>36.5</ele>
        <time>2021-05-22T07:40:45Z</time>
      </trkpt>
      <trkpt lat="42.4783840" lon="-8.6508050">
        <ele>36.5</ele>
        <time>2021-05-22T07:40:46Z</time>
      </trkpt>
      <trkpt lat="42.4783980" lon="-8.6508080">
        <ele>36.6</ele>
        <time>2021-05-22T07:40:47Z</time>
      </trkpt>
      <trkpt lat="42.4784110" lon="-8.6508120">
        <ele>36.6</ele>
        <time>2021-05-22T07:40:48Z</time>
      </trkpt>
      <trkpt lat="42.4784270" lon="-8.6508170">
        <ele>36.6</ele>
        <time>2021-05-22T07:40:49Z</time>
      </trkpt>
      <trkpt lat="42.4784380" lon="-8.6508140">
        <ele>36.6</ele>
        <time>2021-05-22T07:40:50Z</time>
      </trkpt>
      <trkpt lat="42.4784540" lon="-8.6508220">
        <ele>36.6</ele>
        <time>2021-05-22T07:40:51Z</time>
      </trkpt>
      <trkpt lat="42.4784580" lon="-8.6508250">
        <ele>36.6</ele>
        <time>2021-05-22T07:40:52Z</time>
      </trkpt>
      <trkpt lat="42.4784680" lon="-8.6508230">
        <ele>36.7</ele>
        <time>2021-05-22T07:40:53Z</time>
      </trkpt>
      <trkpt lat="42.4784870" lon="-8.6508270">
        <ele>36.7</ele>
        <time>2021-05-22T07:40:54Z</time>
      </trkpt>
      <trkpt lat="42.4784950" lon="-8.6508300">
        <ele>36.7</ele>
        <time>2021-05-22T07:40:55Z</time>
      </trkpt>
      <trkpt lat="42.4785080" lon="-8.6508360">
        <ele>36.7</ele>
        <time>2021-05-22T07:40:56Z</time>
      </trkpt>
      <trkpt lat="42.4785210" lon="-8.6508340">
        <ele>36.7</ele>
        <time>2021-05-22T07:40:57Z</time>
      </trkpt>
      <trkpt lat="42.4785240" lon="-8.6508340">
        <ele>36.7</ele>
        <time>2021-05-22T07:40:58Z</time>
      </trkpt>
      <trkpt lat="42.4785370" lon="-8.6508380">
        <ele>36.8</ele>
        <time>2021-05-22T07:40:59Z</time>
      </trkpt>
      <trkpt lat="42.4785530" lon="-8.6508350">
        <ele>36.8</ele>
        <time>2021-05-22T07:41:00Z</time>
      </trkpt>
      <trkpt lat="42.4785720" lon="-8.6508400">
        <ele>36.8</ele>
        <time>2021-05-22T07:41:01Z</time>
      </trkpt>
      <trkpt lat="42.4785800" lon="-8.6508400">
        <ele>36.8</ele>
        <time>2021-05-22T07:41:02Z</time>
      </trkpt>
      <trkpt lat="42.4785870" lon="-8.6508390">
        <ele>36.8</ele>
        <time>2021-05-22T07:41:03Z</time>
      </trkpt>
      <trkpt lat="42.4785940" lon="-8.6508390">
        <ele>36.8</ele>
        <time>2021-05-22T07:41:04Z</time>
      </trkpt>
      <trkpt lat="42.4786160" lon="-8.6508360">
        <ele>36.9</ele>
        <time>2021-05-22T07:41:05Z</time>
      </trkpt>
      <trkpt lat="42.4786230" lon="-8.6508350">
        <ele>36.9</ele>
        <time>2021-05-22T07:41:06Z</time>
      </trkpt>
      <trkpt lat="42.4786310" lon="-8.6508350">
        <ele>36.9</ele>
        <time>2021-05-22T07:41:07Z</time>
      </trkpt>
      <trkpt lat="42.4786430" lon="-8.6508380">
        <ele>36.9</ele>
        <time>2021-05-22T07:41:08Z</time>
      </trkpt>
      <trkpt lat="42.4786620" lon="-8.6508400">
        <ele>36.9</ele>
        <time>2021-05-22T07:41:09Z</time>
      </trkpt>
      <trkpt lat="42.4786870" lon="-8.6508380">
        <ele>37.0</ele>
        <time>2021-05-22T07:41:10Z</time>
      </trkpt>
      <trkpt lat="42.4786970" lon="-8.6508400">
        <ele>37.0</ele>
        <time>2021-05-22T07:41:11Z</time>
      </trkpt>
      <trkpt lat="42.4787070" lon="-8.6508420">
        <ele>37.0</ele>
        <time>2021-05-22T07:41:12Z</time>
      </trkpt>
      <trkpt lat="42.4787170" lon="-8.6508430">
        <ele>37.0</ele>
        <time>2021-05-22T07:41:13Z</time>
      </trkpt>
      <trkpt lat="42.4787410" lon="-8.6508440">
        <ele>37.0</ele>
        <time>2021-05-22T07:41:14Z</time>
      </trkpt>
      <trkpt lat="42.4787610" lon="-8.6508490">
        <ele>37.0</ele>
        <time>2021-05-22T07:41:15Z</time>
      </trkpt>
      <trkpt lat="42.4787750" lon="-8.6508470">
        <ele>37.0</ele>
        <time>2021-05-22T07:41:16Z</time>
      </trkpt>
      <trkpt lat="42.4787830" lon="-8.6508500">
        <ele>37.1</ele>
        <time>2021-05-22T07:41:17Z</time>
      </trkpt>
      <trkpt lat="42.4788020" lon="-8.6508390">
        <ele>37.1</ele>
        <time>2021-05-22T07:41:18Z</time>
      </trkpt>
      <trkpt lat="42.4788190" lon="-8.6508380">
        <ele>37.1</ele>
        <time>2021-05-22T07:41:19Z</time>
      </trkpt>
      <trkpt lat="42.4788320" lon="-8.6508390">
        <ele>37.1</ele>
        <time>2021-05-22T07:41:20Z</time>
      </trkpt>
      <trkpt lat="42.4788470" lon="-8.6508470">
        <ele>37.1</ele>
        <time>2021-05-22T07:41:21Z</time>
      </trkpt>
      <trkpt lat="42.4788600" lon="-8.6508490">
        <ele>37.1</ele>
        <time>2021-05-22T07:41:22Z</time>
      </trkpt>
      <trkpt lat="42.4788740" lon="-8.6508510">
        <ele>37.1</ele>
        <time>2021-05-22T07:41:23Z</time>
      </trkpt>
      <trkpt lat="42.4788850" lon="-8.6508540">
        <ele>37.1</ele>
        <time>2021-05-22T07:41:24Z</time>
      </trkpt>
      <trkpt lat="42.4788910" lon="-8.6508600">
        <ele>37.1</ele>
        <time>2021-05-22T07:41:25Z</time>
      </trkpt>
      <trkpt lat="42.4789110" lon="-8.6508660">
        <ele>37.1</ele>
        <time>2021-05-22T07:41:26Z</time>
      </trkpt>
      <trkpt lat="42.4789190" lon="-8.6508700">
        <ele>37.1</ele>
        <time>2021-05-22T07:41:27Z</time>
      </trkpt>
      <trkpt lat="42.4789260" lon="-8.6508730">
        <ele>37.1</ele>
        <time>2021-05-22T07:41:28Z</time>
      </trkpt>
      <trkpt lat="42.4789370" lon="-8.6508760">
        <ele>37.2</ele>
        <time>2021-05-22T07:41:29Z</time>
      </trkpt>
      <trkpt lat="42.4789470" lon="-8.6508800">
        <ele>37.2</ele>
        <time>2021-05-22T07:41:30Z</time>
      </trkpt>
      <trkpt lat="42.4789540" lon="-8.6508800">
        <ele>37.2</ele>
        <time>2021-05-22T07:41:31Z</time>
      </trkpt>
      <trkpt lat="42.4789690" lon="-8.6508900">
        <ele>37.2</ele>
        <time>2021-05-22T07:41:32Z</time>
      </trkpt>
      <trkpt lat="42.4789850" lon="-8.6509000">
        <ele>37.2</ele>
        <time>2021-05-22T07:41:33Z</time>
      </trkpt>
      <trkpt lat="42.4789950" lon="-8.6509020">
        <ele>37.2</ele>
        <time>2021-05-22T07:41:34Z</time>
      </trkpt>
      <trkpt lat="42.4790040" lon="-8.6509000">
        <ele>37.2</ele>
        <time>2021-05-22T07:41:35Z</time>
      </trkpt>
      <trkpt lat="42.4790190" lon="-8.6509030">
        <ele>37.2</ele>
        <time>2021-05-22T07:41:36Z</time>
      </trkpt>
      <trkpt lat="42.4790310" lon="-8.6509050">
        <ele>37.2</ele>
        <time>2021-05-22T07:41:37Z</time>
      </trkpt>
      <trkpt lat="42.4790500" lon="-8.6509050">
        <ele>37.2</ele>
        <time>2021-05-22T07:41:38Z</time>
      </trkpt>
      <trkpt lat="42.4790720" lon="-8.6509110">
        <ele>37.1</ele>
        <time>2021-05-22T07:41:39Z</time>
      </trkpt>
      <trkpt lat="42.4790820" lon="-8.6509120">
        <ele>37.1</ele>
        <time>2021-05-22T07:41:40Z</time>
      </trkpt>
      <trkpt lat="42.4790910" lon="-8.6509120">
        <ele>37.1</ele>
        <time>2021-05-22T07:41:41Z</time>
      </trkpt>
      <trkpt lat="42.4791040" lon="-8.6509190">
        <ele>37.1</ele>
        <time>2021-05-22T07:41:42Z</time>
      </trkpt>
      <trkpt lat="42.4791160" lon="-8.6509240">
        <ele>37.1</ele>
        <time>2021-05-22T07:41:43Z</time>
      </trkpt>
      <trkpt lat="42.4791260" lon="-8.6509310">
        <ele>37.1</ele>
        <time>2021-05-22T07:41:44Z</time>
      </trkpt>
      <trkpt lat="42.4791350" lon="-8.6509310">
        <ele>37.1</ele>
        <time>2021-05-22T07:41:45Z</time>
      </trkpt>
      <trkpt lat="42.4791430" lon="-8.6509340">
        <ele>37.1</ele>
        <time>2021-05-22T07:41:46Z</time>
      </trkpt>
      <trkpt lat="42.4791490" lon="-8.6509400">
        <ele>37.1</ele>
        <time>2021-05-22T07:41:47Z</time>
      </trkpt>
      <trkpt lat="42.4791600" lon="-8.6509450">
        <ele>37.0</ele>
        <time>2021-05-22T07:41:48Z</time>
      </trkpt>
      <trkpt lat="42.4791740" lon="-8.6509500">
        <ele>37.0</ele>
        <time>2021-05-22T07:41:49Z</time>
      </trkpt>
      <trkpt lat="42.4791930" lon="-8.6509620">
        <ele>37.0</ele>
        <time>2021-05-22T07:41:50Z</time>
      </trkpt>
      <trkpt lat="42.4792000" lon="-8.6509650">
        <ele>37.0</ele>
        <time>2021-05-22T07:41:51Z</time>
      </trkpt>
      <trkpt lat="42.4792080" lon="-8.6509690">
        <ele>37.0</ele>
        <time>2021-05-22T07:41:52Z</time>
      </trkpt>
      <trkpt lat="42.4792180" lon="-8.6509760">
        <ele>37.0</ele>
        <time>2021-05-22T07:41:53Z</time>
      </trkpt>
      <trkpt lat="42.4792350" lon="-8.6509810">
        <ele>37.0</ele>
        <time>2021-05-22T07:41:54Z</time>
      </trkpt>
      <trkpt lat="42.4792570" lon="-8.6509830">
        <ele>36.9</ele>
        <time>2021-05-22T07:41:55Z</time>
      </trkpt>
      <trkpt lat="42.4792640" lon="-8.6509860">
        <ele>36.9</ele>
        <time>2021-05-22T07:41:56Z</time>
      </trkpt>
      <trkpt lat="42.4792710" lon="-8.6509880">
        <ele>36.9</ele>
        <time>2021-05-22T07:41:57Z</time>
      </trkpt>
      <trkpt lat="42.4792780" lon="-8.6509910">
        <ele>36.9</ele>
        <time>2021-05-22T07:41:58Z</time>
      </trkpt>
      <trkpt lat="42.4792840" lon="-8.6509940">
        <ele>36.9</ele>
        <time>2021-05-22T07:41:59Z</time>
      </trkpt>
      <trkpt lat="42.4792940" lon="-8.6509920">
        <ele>36.9</ele>
        <time>2021-05-22T07:42:00Z</time>
      </trkpt>
      <trkpt lat="42.4793140" lon="-8.6509990">
        <ele>36.9</ele>
        <time>2021-05-22T07:42:01Z</time>
      </trkpt>
      <trkpt lat="42.4793290" lon="-8.6510040">
        <ele>36.8</ele>
        <time>2021-05-22T07:42:02Z</time>
      </trkpt>
      <trkpt lat="42.4793310" lon="-8.6510070">
        <ele>36.8</ele>
        <time>2021-05-22T07:42:03Z</time>
      </trkpt>
      <trkpt lat="42.4793400" lon="-8.6510110">
        <ele>36.8</ele>
        <time>2021-05-22T07:42:04Z</time>
      </trkpt>
      <trkpt lat="42.4793610" lon="-8.6510150">
        <ele>36.8</ele>
        <time>2021-05-22T07:42:05Z</time>
      </trkpt>
      <trkpt lat="42.4793720" lon="-8.6510200">
        <ele>36.8</ele>
        <time>2021-05-22T07:42:06Z</time>
      </trkpt>
      <trkpt lat="42.4793830" lon="-8.6510240">
        <ele>36.8</ele>
        <time>2021-05-22T07:42:07Z</time>
      </trkpt>
      <trkpt lat="42.4794020" lon="-8.6510330">
        <ele>36.8</ele>
        <time>2021-05-22T07:42:08Z</time>
      </trkpt>
      <trkpt lat="42.4794160" lon="-8.6510400">
        <ele>36.7</ele>
        <time>2021-05-22T07:42:09Z</time>
      </trkpt>
      <trkpt lat="42.4794320" lon="-8.6510460">
        <ele>36.7</ele>
        <time>2021-05-22T07:42:10Z</time>
      </trkpt>
      <trkpt lat="42.4794460" lon="-8.6510570">
        <ele>36.7</ele>
        <time>2021-05-22T07:42:11Z</time>
      </trkpt>
      <trkpt lat="42.4794590" lon="-8.6510650">
        <ele>36.7</ele>
        <time>2021-05-22T07:42:12Z</time>
      </trkpt>
      <trkpt lat="42.4794730" lon="-8.6510670">
        <ele>36.7</ele>
        <time>2021-05-22T07:42:13Z</time>
      </trkpt>
      <trkpt lat="42.4794850" lon="-8.6510660">
        <ele>36.7</ele>
        <time>2021-05-22T07:42:14Z</time>
      </trkpt>
      <trkpt lat="42.4795010" lon="-8.6510660">
        <ele>36.7</ele>
        <time>2021-05-22T07:42:15Z</time>
      </trkpt>
      <trkpt lat="42.4795180" lon="-8.6510700">
        <ele>36.7</ele>
        <time>2021-05-22T07:42:16Z</time>
      </trkpt>
      <trkpt lat="42.4795340" lon="-8.6510770">
        <ele>36.7</ele>
        <time>2021-05-22T07:42:17Z</time>
      </trkpt>
      <trkpt lat="42.4795440" lon="-8.6510900">
        <ele>36.7</ele>
        <time>2021-05-22T07:42:18Z</time>
      </trkpt>
      <trkpt lat="42.4795480" lon="-8.6511000">
        <ele>36.7</ele>
        <time>2021-05-22T07:42:19Z</time>
      </trkpt>
      <trkpt lat="42.4795650" lon="-8.6510960">
        <ele>36.7</ele>
        <time>2021-05-22T07:42:20Z</time>
      </trkpt>
      <trkpt lat="42.4795980" lon="-8.6511070">
        <ele>36.7</ele>
        <time>2021-05-22T07:42:21Z</time>
      </trkpt>
      <trkpt lat="42.4796070" lon="-8.6511110">
        <ele>36.7</ele>
        <time>2021-05-22T07:42:22Z</time>
      </trkpt>
      <trkpt lat="42.4796220" lon="-8.6511150">
        <ele>36.7</ele>
        <time>2021-05-22T07:42:23Z</time>
      </trkpt>
      <trkpt lat="42.4796320" lon="-8.6511210">
        <ele>36.7</ele>
        <time>2021-05-22T07:42:24Z</time>
      </trkpt>
      <trkpt lat="42.4796390" lon="-8.6511170">
        <ele>36.7</ele>
        <time>2021-05-22T07:42:25Z</time>
      </trkpt>
      <trkpt lat="42.4796600" lon="-8.6511240">
        <ele>36.7</ele>
        <time>2021-05-22T07:42:26Z</time>
      </trkpt>
      <trkpt lat="42.4796680" lon="-8.6511280">
        <ele>36.7</ele>
        <time>2021-05-22T07:42:27Z</time>
      </trkpt>
      <trkpt lat="42.4796750" lon="-8.6511320">
        <ele>36.7</ele>
        <time>2021-05-22T07:42:28Z</time>
      </trkpt>
      <trkpt lat="42.4796920" lon="-8.6511410">
        <ele>36.7</ele>
        <time>2021-05-22T07:42:29Z</time>
      </trkpt>
      <trkpt lat="42.4797010" lon="-8.6511440">
        <ele>36.7</ele>
        <time>2021-05-22T07:42:30Z</time>
      </trkpt>
      <trkpt lat="42.4797100" lon="-8.6511480">
        <ele>36.7</ele>
        <time>2021-05-22T07:42:31Z</time>
      </trkpt>
      <trkpt lat="42.4797190" lon="-8.6511440">
        <ele>36.7</ele>
        <time>2021-05-22T07:42:32Z</time>
      </trkpt>
      <trkpt lat="42.4797220" lon="-8.6511370">
        <ele>36.8</ele>
        <time>2021-05-22T07:42:33Z</time>
      </trkpt>
      <trkpt lat="42.4797390" lon="-8.6511420">
        <ele>36.8</ele>
        <time>2021-05-22T07:42:34Z</time>
      </trkpt>
      <trkpt lat="42.4797570" lon="-8.6511450">
        <ele>36.8</ele>
        <time>2021-05-22T07:42:35Z</time>
      </trkpt>
      <trkpt lat="42.4797700" lon="-8.6511520">
        <ele>36.8</ele>
        <time>2021-05-22T07:42:36Z</time>
      </trkpt>
      <trkpt lat="42.4797830" lon="-8.6511590">
        <ele>36.8</ele>
        <time>2021-05-22T07:42:37Z</time>
      </trkpt>
      <trkpt lat="42.4797930" lon="-8.6511560">
        <ele>36.8</ele>
        <time>2021-05-22T07:42:38Z</time>
      </trkpt>
      <trkpt lat="42.4798050" lon="-8.6511590">
        <ele>36.9</ele>
        <time>2021-05-22T07:42:39Z</time>
      </trkpt>
      <trkpt lat="42.4798140" lon="-8.6511620">
        <ele>36.9</ele>
        <time>2021-05-22T07:42:40Z</time>
      </trkpt>
      <trkpt lat="42.4798220" lon="-8.6511700">
        <ele>36.9</ele>
        <time>2021-05-22T07:42:41Z</time>
      </trkpt>
      <trkpt lat="42.4798360" lon="-8.6511710">
        <ele>36.9</ele>
        <time>2021-05-22T07:42:42Z</time>
      </trkpt>
      <trkpt lat="42.4798540" lon="-8.6511750">
        <ele>36.9</ele>
        <time>2021-05-22T07:42:43Z</time>
      </trkpt>
      <trkpt lat="42.4798610" lon="-8.6511730">
        <ele>37.0</ele>
        <time>2021-05-22T07:42:44Z</time>
      </trkpt>
      <trkpt lat="42.4798670" lon="-8.6511700">
        <ele>37.0</ele>
        <time>2021-05-22T07:42:45Z</time>
      </trkpt>
      <trkpt lat="42.4798730" lon="-8.6511680">
        <ele>37.0</ele>
        <time>2021-05-22T07:42:46Z</time>
      </trkpt>
      <trkpt lat="42.4798770" lon="-8.6511630">
        <ele>37.0</ele>
        <time>2021-05-22T07:42:47Z</time>
      </trkpt>
      <trkpt lat="42.4798900" lon="-8.6511580">
        <ele>37.0</ele>
        <time>2021-05-22T07:42:48Z</time>
      </trkpt>
      <trkpt lat="42.4799000" lon="-8.6511550">
        <ele>37.0</ele>
        <time>2021-05-22T07:42:49Z</time>
      </trkpt>
      <trkpt lat="42.4799130" lon="-8.6511520">
        <ele>37.1</ele>
        <time>2021-05-22T07:42:50Z</time>
      </trkpt>
      <trkpt lat="42.4799300" lon="-8.6511520">
        <ele>37.1</ele>
        <time>2021-05-22T07:42:51Z</time>
      </trkpt>
      <trkpt lat="42.4799540" lon="-8.6511430">
        <ele>37.2</ele>
        <time>2021-05-22T07:42:52Z</time>
      </trkpt>
      <trkpt lat="42.4799630" lon="-8.6511400">
        <ele>37.2</ele>
        <time>2021-05-22T07:42:53Z</time>
      </trkpt>
      <trkpt lat="42.4799730" lon="-8.6511360">
        <ele>37.2</ele>
        <time>2021-05-22T07:42:54Z</time>
      </trkpt>
      <trkpt lat="42.4799820" lon="-8.6511290">
        <ele>37.2</ele>
        <time>2021-05-22T07:42:55Z</time>
      </trkpt>
      <trkpt lat="42.4799920" lon="-8.6511250">
        <ele>37.3</ele>
        <time>2021-05-22T07:42:56Z</time>
      </trkpt>
      <trkpt lat="42.4799970" lon="-8.6511230">
        <ele>37.3</ele>
        <time>2021-05-22T07:42:57Z</time>
      </trkpt>
      <trkpt lat="42.4800080" lon="-8.6511170">
        <ele>37.3</ele>
        <time>2021-05-22T07:42:58Z</time>
      </trkpt>
      <trkpt lat="42.4800140" lon="-8.6511180">
        <ele>37.3</ele>
        <time>2021-05-22T07:42:59Z</time>
      </trkpt>
      <trkpt lat="42.4800260" lon="-8.6511210">
        <ele>37.4</ele>
        <time>2021-05-22T07:43:00Z</time>
      </trkpt>
      <trkpt lat="42.4800410" lon="-8.6511170">
        <ele>37.4</ele>
        <time>2021-05-22T07:43:01Z</time>
      </trkpt>
      <trkpt lat="42.4800520" lon="-8.6511150">
        <ele>37.5</ele>
        <time>2021-05-22T07:43:02Z</time>
      </trkpt>
      <trkpt lat="42.4800620" lon="-8.6511120">
        <ele>37.5</ele>
        <time>2021-05-22T07:43:03Z</time>
      </trkpt>
      <trkpt lat="42.4800790" lon="-8.6511110">
        <ele>37.5</ele>
        <time>2021-05-22T07:43:04Z</time>
      </trkpt>
      <trkpt lat="42.4800930" lon="-8.6511120">
        <ele>37.6</ele>
        <time>2021-05-22T07:43:05Z</time>
      </trkpt>
      <trkpt lat="42.4801010" lon="-8.6511230">
        <ele>37.6</ele>
        <time>2021-05-22T07:43:06Z</time>
      </trkpt>
      <trkpt lat="42.4801160" lon="-8.6511200">
        <ele>37.6</ele>
        <time>2021-05-22T07:43:07Z</time>
      </trkpt>
      <trkpt lat="42.4801270" lon="-8.6511180">
        <ele>37.6</ele>
        <time>2021-05-22T07:43:08Z</time>
      </trkpt>
      <trkpt lat="42.4801390" lon="-8.6511120">
        <ele>37.6</ele>
        <time>2021-05-22T07:43:09Z</time>
      </trkpt>
      <trkpt lat="42.4801580" lon="-8.6510980">
        <ele>37.7</ele>
        <time>2021-05-22T07:43:10Z</time>
      </trkpt>
      <trkpt lat="42.4801570" lon="-8.6510970">
        <ele>37.7</ele>
        <time>2021-05-22T07:43:11Z</time>
      </trkpt>
      <trkpt lat="42.4801770" lon="-8.6511010">
        <ele>37.7</ele>
        <time>2021-05-22T07:43:12Z</time>
      </trkpt>
      <trkpt lat="42.4801920" lon="-8.6510930">
        <ele>37.6</ele>
        <time>2021-05-22T07:43:13Z</time>
      </trkpt>
      <trkpt lat="42.4802050" lon="-8.6510950">
        <ele>37.6</ele>
        <time>2021-05-22T07:43:14Z</time>
      </trkpt>
      <trkpt lat="42.4802210" lon="-8.6510790">
        <ele>37.6</ele>
        <time>2021-05-22T07:43:15Z</time>
      </trkpt>
      <trkpt lat="42.4802310" lon="-8.6510750">
        <ele>37.6</ele>
        <time>2021-05-22T07:43:16Z</time>
      </trkpt>
      <trkpt lat="42.4802410" lon="-8.6510700">
        <ele>37.6</ele>
        <time>2021-05-22T07:43:17Z</time>
      </trkpt>
      <trkpt lat="42.4802530" lon="-8.6510710">
        <ele>37.6</ele>
        <time>2021-05-22T07:43:18Z</time>
      </trkpt>
      <trkpt lat="42.4802610" lon="-8.6510590">
        <ele>37.5</ele>
        <time>2021-05-22T07:43:19Z</time>
      </trkpt>
      <trkpt lat="42.4802690" lon="-8.6510550">
        <ele>37.5</ele>
        <time>2021-05-22T07:43:20Z</time>
      </trkpt>
      <trkpt lat="42.4802730" lon="-8.6510340">
        <ele>37.5</ele>
        <time>2021-05-22T07:43:21Z</time>
      </trkpt>
      <trkpt lat="42.4802880" lon="-8.6510360">
        <ele>37.4</ele>
        <time>2021-05-22T07:43:22Z</time>
      </trkpt>
      <trkpt lat="42.4802920" lon="-8.6510080">
        <ele>37.4</ele>
        <time>2021-05-22T07:43:23Z</time>
      </trkpt>
      <trkpt lat="42.4802900" lon="-8.6510140">
        <ele>37.3</ele>
        <time>2021-05-22T07:43:24Z</time>
      </trkpt>
      <trkpt lat="42.4802820" lon="-8.6510060">
        <ele>37.3</ele>
        <time>2021-05-22T07:43:25Z</time>
      </trkpt>
      <trkpt lat="42.4802990" lon="-8.6510010">
        <ele>37.3</ele>
        <time>2021-05-22T07:43:26Z</time>
      </trkpt>
      <trkpt lat="42.4803120" lon="-8.6509830">
        <ele>37.2</ele>
        <time>2021-05-22T07:43:27Z</time>
      </trkpt>
      <trkpt lat="42.4803270" lon="-8.6509830">
        <ele>37.2</ele>
        <time>2021-05-22T07:43:28Z</time>
      </trkpt>
      <trkpt lat="42.4803300" lon="-8.6509630">
        <ele>37.1</ele>
        <time>2021-05-22T07:43:29Z</time>
      </trkpt>
      <trkpt lat="42.4803410" lon="-8.6509630">
        <ele>37.1</ele>
        <time>2021-05-22T07:43:30Z</time>
      </trkpt>
      <trkpt lat="42.4803550" lon="-8.6509540">
        <ele>37.0</ele>
        <time>2021-05-22T07:43:31Z</time>
      </trkpt>
      <trkpt lat="42.4803650" lon="-8.6509500">
        <ele>37.0</ele>
        <time>2021-05-22T07:43:32Z</time>
      </trkpt>
      <trkpt lat="42.4803810" lon="-8.6509410">
        <ele>36.9</ele>
        <time>2021-05-22T07:43:33Z</time>
      </trkpt>
      <trkpt lat="42.4803920" lon="-8.6509420">
        <ele>36.9</ele>
        <time>2021-05-22T07:43:34Z</time>
      </trkpt>
      <trkpt lat="42.4804130" lon="-8.6509410">
        <ele>36.8</ele>
        <time>2021-05-22T07:43:35Z</time>
      </trkpt>
      <trkpt lat="42.4804420" lon="-8.6509380">
        <ele>36.8</ele>
        <time>2021-05-22T07:43:36Z</time>
      </trkpt>
      <trkpt lat="42.4804510" lon="-8.6509290">
        <ele>36.8</ele>
        <time>2021-05-22T07:43:37Z</time>
      </trkpt>
      <trkpt lat="42.4804630" lon="-8.6509200">
        <ele>36.7</ele>
        <time>2021-05-22T07:43:38Z</time>
      </trkpt>
      <trkpt lat="42.4804820" lon="-8.6509120">
        <ele>36.7</ele>
        <time>2021-05-22T07:43:39Z</time>
      </trkpt>
      <trkpt lat="42.4804930" lon="-8.6508830">
        <ele>36.7</ele>
        <time>2021-05-22T07:43:40Z</time>
      </trkpt>
      <trkpt lat="42.4804950" lon="-8.6508720">
        <ele>36.7</ele>
        <time>2021-05-22T07:43:41Z</time>
      </trkpt>
      <trkpt lat="42.4804980" lon="-8.6508620">
        <ele>36.6</ele>
        <time>2021-05-22T07:43:42Z</time>
      </trkpt>
      <trkpt lat="42.4805110" lon="-8.6508550">
        <ele>36.6</ele>
        <time>2021-05-22T07:43:43Z</time>
      </trkpt>
      <trkpt lat="42.4805220" lon="-8.6508380">
        <ele>36.6</ele>
        <time>2021-05-22T07:43:44Z</time>
      </trkpt>
      <trkpt lat="42.4805240" lon="-8.6508340">
        <ele>36.6</ele>
        <time>2021-05-22T07:43:45Z</time>
      </trkpt>
      <trkpt lat="42.4805380" lon="-8.6508300">
        <ele>36.6</ele>
        <time>2021-05-22T07:43:46Z</time>
      </trkpt>
      <trkpt lat="42.4805550" lon="-8.6508240">
        <ele>36.6</ele>
        <time>2021-05-22T07:43:47Z</time>
      </trkpt>
      <trkpt lat="42.4805790" lon="-8.6508260">
        <ele>36.6</ele>
        <time>2021-05-22T07:43:48Z</time>
      </trkpt>
      <trkpt lat="42.4805860" lon="-8.6508190">
        <ele>36.6</ele>
        <time>2021-05-22T07:43:49Z</time>
      </trkpt>
      <trkpt lat="42.4805920" lon="-8.6508120">
        <ele>36.6</ele>
        <time>2021-05-22T07:43:50Z</time>
      </trkpt>
      <trkpt lat="42.4806010" lon="-8.6508030">
        <ele>36.6</ele>
        <time>2021-05-22T07:43:51Z</time>
      </trkpt>
      <trkpt lat="42.4806080" lon="-8.6507950">
        <ele>36.6</ele>
        <time>2021-05-22T07:43:52Z</time>
      </trkpt>
      <trkpt lat="42.4806150" lon="-8.6507860">
        <ele>36.6</ele>
        <time>2021-05-22T07:43:53Z</time>
      </trkpt>
      <trkpt lat="42.4806220" lon="-8.6507770">
        <ele>36.6</ele>
        <time>2021-05-22T07:43:54Z</time>
      </trkpt>
      <trkpt lat="42.4806380" lon="-8.6507640">
        <ele>36.6</ele>
        <time>2021-05-22T07:43:55Z</time>
      </trkpt>
      <trkpt lat="42.4806500" lon="-8.6507530">
        <ele>36.6</ele>
        <time>2021-05-22T07:43:56Z</time>
      </trkpt>
      <trkpt lat="42.4806520" lon="-8.6507580">
        <ele>36.6</ele>
        <time>2021-05-22T07:43:57Z</time>
      </trkpt>
      <trkpt lat="42.4806620" lon="-8.6507420">
        <ele>36.6</ele>
        <time>2021-05-22T07:43:58Z</time>
      </trkpt>
      <trkpt lat="42.4806760" lon="-8.6507210">
        <ele>36.6</ele>
        <time>2021-05-22T07:43:59Z</time>
      </trkpt>
      <trkpt lat="42.4806850" lon="-8.6506950">
        <ele>36.6</ele>
        <time>2021-05-22T07:44:00Z</time>
      </trkpt>
      <trkpt lat="42.4806910" lon="-8.6506800">
        <ele>36.6</ele>
        <time>2021-05-22T07:44:01Z</time>
      </trkpt>
      <trkpt lat="42.4806990" lon="-8.6506740">
        <ele>36.6</ele>
        <time>2021-05-22T07:44:02Z</time>
      </trkpt>
      <trkpt lat="42.4807080" lon="-8.6506670">
        <ele>36.6</ele>
        <time>2021-05-22T07:44:03Z</time>
      </trkpt>
      <trkpt lat="42.4807220" lon="-8.6506720">
        <ele>36.6</ele>
        <time>2021-05-22T07:44:04Z</time>
      </trkpt>
      <trkpt lat="42.4807540" lon="-8.6506850">
        <ele>36.6</ele>
        <time>2021-05-22T07:44:05Z</time>
      </trkpt>
      <trkpt lat="42.4807660" lon="-8.6506890">
        <ele>36.6</ele>
        <time>2021-05-22T07:44:06Z</time>
      </trkpt>
      <trkpt lat="42.4807910" lon="-8.6507100">
        <ele>36.6</ele>
        <time>2021-05-22T07:44:07Z</time>
      </trkpt>
      <trkpt lat="42.4807960" lon="-8.6507120">
        <ele>36.6</ele>
        <time>2021-05-22T07:44:08Z</time>
      </trkpt>
      <trkpt lat="42.4808140" lon="-8.6507110">
        <ele>36.6</ele>
        <time>2021-05-22T07:44:09Z</time>
      </trkpt>
      <trkpt lat="42.4808270" lon="-8.6507150">
        <ele>36.6</ele>
        <time>2021-05-22T07:44:10Z</time>
      </trkpt>
      <trkpt lat="42.4808370" lon="-8.6507240">
        <ele>36.6</ele>
        <time>2021-05-22T07:44:11Z</time>
      </trkpt>
      <trkpt lat="42.4808580" lon="-8.6507220">
        <ele>36.6</ele>
        <time>2021-05-22T07:44:12Z</time>
      </trkpt>
      <trkpt lat="42.4808700" lon="-8.6507180">
        <ele>36.6</ele>
        <time>2021-05-22T07:44:13Z</time>
      </trkpt>
      <trkpt lat="42.4808850" lon="-8.6507190">
        <ele>36.6</ele>
        <time>2021-05-22T07:44:14Z</time>
      </trkpt>
      <trkpt lat="42.4809030" lon="-8.6507220">
        <ele>36.6</ele>
        <time>2021-05-22T07:44:15Z</time>
      </trkpt>
      <trkpt lat="42.4809210" lon="-8.6507230">
        <ele>36.6</ele>
        <time>2021-05-22T07:44:16Z</time>
      </trkpt>
      <trkpt lat="42.4809400" lon="-8.6507220">
        <ele>36.6</ele>
        <time>2021-05-22T07:44:17Z</time>
      </trkpt>
      <trkpt lat="42.4809470" lon="-8.6507190">
        <ele>36.6</ele>
        <time>2021-05-22T07:44:18Z</time>
      </trkpt>
      <trkpt lat="42.4809530" lon="-8.6507170">
        <ele>36.6</ele>
        <time>2021-05-22T07:44:19Z</time>
      </trkpt>
      <trkpt lat="42.4809590" lon="-8.6507140">
        <ele>36.6</ele>
        <time>2021-05-22T07:44:20Z</time>
      </trkpt>
      <trkpt lat="42.4809790" lon="-8.6507120">
        <ele>36.6</ele>
        <time>2021-05-22T07:44:21Z</time>
      </trkpt>
      <trkpt lat="42.4809860" lon="-8.6507120">
        <ele>36.6</ele>
        <time>2021-05-22T07:44:22Z</time>
      </trkpt>
      <trkpt lat="42.4809930" lon="-8.6507110">
        <ele>36.6</ele>
        <time>2021-05-22T07:44:23Z</time>
      </trkpt>
      <trkpt lat="42.4810000" lon="-8.6507110">
        <ele>36.6</ele>
        <time>2021-05-22T07:44:24Z</time>
      </trkpt>
      <trkpt lat="42.4810310" lon="-8.6507110">
        <ele>36.6</ele>
        <time>2021-05-22T07:44:25Z</time>
      </trkpt>
      <trkpt lat="42.4810420" lon="-8.6507140">
        <ele>36.6</ele>
        <time>2021-05-22T07:44:26Z</time>
      </trkpt>
      <trkpt lat="42.4810600" lon="-8.6507200">
        <ele>36.6</ele>
        <time>2021-05-22T07:44:27Z</time>
      </trkpt>
      <trkpt lat="42.4810580" lon="-8.6507230">
        <ele>36.6</ele>
        <time>2021-05-22T07:44:28Z</time>
      </trkpt>
      <trkpt lat="42.4810750" lon="-8.6507260">
        <ele>36.6</ele>
        <time>2021-05-22T07:44:29Z</time>
      </trkpt>
      <trkpt lat="42.4810850" lon="-8.6507290">
        <ele>36.6</ele>
        <time>2021-05-22T07:44:30Z</time>
      </trkpt>
      <trkpt lat="42.4810910" lon="-8.6507450">
        <ele>36.7</ele>
        <time>2021-05-22T07:44:31Z</time>
      </trkpt>
      <trkpt lat="42.4810980" lon="-8.6507560">
        <ele>36.7</ele>
        <time>2021-05-22T07:44:32Z</time>
      </trkpt>
      <trkpt lat="42.4811220" lon="-8.6507680">
        <ele>36.7</ele>
        <time>2021-05-22T07:44:33Z</time>
      </trkpt>
      <trkpt lat="42.4811330" lon="-8.6507740">
        <ele>36.7</ele>
        <time>2021-05-22T07:44:34Z</time>
      </trkpt>
      <trkpt lat="42.4811490" lon="-8.6507720">
        <ele>36.7</ele>
        <time>2021-05-22T07:44:35Z</time>
      </trkpt>
      <trkpt lat="42.4811600" lon="-8.6507770">
        <ele>36.7</ele>
        <time>2021-05-22T07:44:36Z</time>
      </trkpt>
      <trkpt lat="42.4811660" lon="-8.6507770">
        <ele>36.7</ele>
        <time>2021-05-22T07:44:37Z</time>
      </trkpt>
      <trkpt lat="42.4811850" lon="-8.6507780">
        <ele>36.7</ele>
        <time>2021-05-22T07:44:38Z</time>
      </trkpt>
      <trkpt lat="42.4811940" lon="-8.6507820">
        <ele>36.7</ele>
        <time>2021-05-22T07:44:39Z</time>
      </trkpt>
      <trkpt lat="42.4812130" lon="-8.6507890">
        <ele>36.7</ele>
        <time>2021-05-22T07:44:40Z</time>
      </trkpt>
      <trkpt lat="42.4812300" lon="-8.6507870">
        <ele>36.7</ele>
        <time>2021-05-22T07:44:41Z</time>
      </trkpt>
      <trkpt lat="42.4812580" lon="-8.6507880">
        <ele>36.7</ele>
        <time>2021-05-22T07:44:42Z</time>
      </trkpt>
      <trkpt lat="42.4812650" lon="-8.6508020">
        <ele>36.7</ele>
        <time>2021-05-22T07:44:43Z</time>
      </trkpt>
      <trkpt lat="42.4812730" lon="-8.6508050">
        <ele>36.7</ele>
        <time>2021-05-22T07:44:44Z</time>
      </trkpt>
      <trkpt lat="42.4812860" lon="-8.6508130">
        <ele>36.8</ele>
        <time>2021-05-22T07:44:45Z</time>
      </trkpt>
      <trkpt lat="42.4812930" lon="-8.6508220">
        <ele>36.8</ele>
        <time>2021-05-22T07:44:46Z</time>
      </trkpt>
      <trkpt lat="42.4813040" lon="-8.6508230">
        <ele>36.8</ele>
        <time>2021-05-22T07:44:47Z</time>
      </trkpt>
      <trkpt lat="42.4813190" lon="-8.6508280">
        <ele>36.8</ele>
        <time>2021-05-22T07:44:48Z</time>
      </trkpt>
      <trkpt lat="42.4813430" lon="-8.6508320">
        <ele>36.8</ele>
        <time>2021-05-22T07:44:49Z</time>
      </trkpt>
      <trkpt lat="42.4813550" lon="-8.6508340">
        <ele>36.8</ele>
        <time>2021-05-22T07:44:50Z</time>
      </trkpt>
      <trkpt lat="42.4813660" lon="-8.6508370">
        <ele>36.9</ele>
        <time>2021-05-22T07:44:51Z</time>
      </trkpt>
      <trkpt lat="42.4813860" lon="-8.6508390">
        <ele>36.9</ele>
        <time>2021-05-22T07:44:52Z</time>
      </trkpt>
      <trkpt lat="42.4813950" lon="-8.6508380">
        <ele>36.9</ele>
        <time>2021-05-22T07:44:53Z</time>
      </trkpt>
      <trkpt lat="42.4814040" lon="-8.6508380">
        <ele>36.9</ele>
        <time>2021-05-22T07:44:54Z</time>
      </trkpt>
      <trkpt lat="42.4814110" lon="-8.6508410">
        <ele>36.9</ele>
        <time>2021-05-22T07:44:55Z</time>
      </trkpt>
      <trkpt lat="42.4814080" lon="-8.6508410">
        <ele>36.9</ele>
        <time>2021-05-22T07:44:56Z</time>
      </trkpt>
      <trkpt lat="42.4814090" lon="-8.6508380">
        <ele>36.9</ele>
        <time>2021-05-22T07:44:57Z</time>
      </trkpt>
      <trkpt lat="42.4814120" lon="-8.6508340">
        <ele>36.9</ele>
        <time>2021-05-22T07:44:58Z</time>
      </trkpt>
      <trkpt lat="42.4814220" lon="-8.6508380">
        <ele>37.0</ele>
        <time>2021-05-22T07:44:59Z</time>
      </trkpt>
      <trkpt lat="42.4814380" lon="-8.6508460">
        <ele>37.0</ele>
        <time>2021-05-22T07:45:00Z</time>
      </trkpt>
      <trkpt lat="42.4814470" lon="-8.6508520">
        <ele>37.0</ele>
        <time>2021-05-22T07:45:01Z</time>
      </trkpt>
      <trkpt lat="42.4814650" lon="-8.6508430">
        <ele>37.0</ele>
        <time>2021-05-22T07:45:02Z</time>
      </trkpt>
      <trkpt lat="42.4814750" lon="-8.6508500">
        <ele>37.0</ele>
        <time>2021-05-22T07:45:03Z</time>
      </trkpt>
      <trkpt lat="42.4814950" lon="-8.6508590">
        <ele>37.1</ele>
        <time>2021-05-22T07:45:04Z</time>
      </trkpt>
      <trkpt lat="42.4815180" lon="-8.6508610">
        <ele>37.1</ele>
        <time>2021-05-22T07:45:05Z</time>
      </trkpt>
      <trkpt lat="42.4815270" lon="-8.6508600">
        <ele>37.1</ele>
        <time>2021-05-22T07:45:06Z</time>
      </trkpt>
      <trkpt lat="42.4815440" lon="-8.6508700">
        <ele>37.2</ele>
        <time>2021-05-22T07:45:07Z</time>
      </trkpt>
      <trkpt lat="42.4815600" lon="-8.6508720">
        <ele>37.2</ele>
        <time>2021-05-22T07:45:08Z</time>
      </trkpt>
      <trkpt lat="42.4815650" lon="-8.6508720">
        <ele>37.2</ele>
        <time>2021-05-22T07:45:09Z</time>
      </trkpt>
      <trkpt lat="42.4815690" lon="-8.6508720">
        <ele>37.2</ele>
        <time>2021-05-22T07:45:10Z</time>
      </trkpt>
      <trkpt lat="42.4815930" lon="-8.6508750">
        <ele>37.2</ele>
        <time>2021-05-22T07:45:11Z</time>
      </trkpt>
      <trkpt lat="42.4816070" lon="-8.6508750">
        <ele>37.3</ele>
        <time>2021-05-22T07:45:12Z</time>
      </trkpt>
      <trkpt lat="42.4816090" lon="-8.6508740">
        <ele>37.3</ele>
        <time>2021-05-22T07:45:13Z</time>
      </trkpt>
      <trkpt lat="42.4816120" lon="-8.6508760">
        <ele>37.3</ele>
        <time>2021-05-22T07:45:14Z</time>
      </trkpt>
      <trkpt lat="42.4816230" lon="-8.6508850">
        <ele>37.3</ele>
        <time>2021-05-22T07:45:15Z</time>
      </trkpt>
      <trkpt lat="42.4816350" lon="-8.6508920">
        <ele>37.3</ele>
        <time>2021-05-22T07:45:16Z</time>
      </trkpt>
      <trkpt lat="42.4816460" lon="-8.6508990">
        <ele>37.3</ele>
        <time>2021-05-22T07:45:17Z</time>
      </trkpt>
      <trkpt lat="42.4816570" lon="-8.6509070">
        <ele>37.4</ele>
        <time>2021-05-22T07:45:18Z</time>
      </trkpt>
      <trkpt lat="42.4816680" lon="-8.6509140">
        <ele>37.4</ele>
        <time>2021-05-22T07:45:19Z</time>
      </trkpt>
      <trkpt lat="42.4816770" lon="-8.6509080">
        <ele>37.4</ele>
        <time>2021-05-22T07:45:20Z</time>
      </trkpt>
      <trkpt lat="42.4816870" lon="-8.6509010">
        <ele>37.4</ele>
        <time>2021-05-22T07:45:21Z</time>
      </trkpt>
      <trkpt lat="42.4817020" lon="-8.6509010">
        <ele>37.5</ele>
        <time>2021-05-22T07:45:22Z</time>
      </trkpt>
      <trkpt lat="42.4817090" lon="-8.6508960">
        <ele>37.5</ele>
        <time>2021-05-22T07:45:23Z</time>
      </trkpt>
      <trkpt lat="42.4817110" lon="-8.6508850">
        <ele>37.5</ele>
        <time>2021-05-22T07:45:24Z</time>
      </trkpt>
      <trkpt lat="42.4817150" lon="-8.6508830">
        <ele>37.5</ele>
        <time>2021-05-22T07:45:25Z</time>
      </trkpt>
      <trkpt lat="42.4817270" lon="-8.6508760">
        <ele>37.6</ele>
        <time>2021-05-22T07:45:26Z</time>
      </trkpt>
      <trkpt lat="42.4817550" lon="-8.6508840">
        <ele>37.6</ele>
        <time>2021-05-22T07:45:27Z</time>
      </trkpt>
      <trkpt lat="42.4817650" lon="-8.6508860">
        <ele>37.7</ele>
        <time>2021-05-22T07:45:28Z</time>
      </trkpt>
      <trkpt lat="42.4817690" lon="-8.6508890">
        <ele>37.7</ele>
        <time>2021-05-22T07:45:29Z</time>
      </trkpt>
      <trkpt lat="42.4817730" lon="-8.6508950">
        <ele>37.7</ele>
        <time>2021-05-22T07:45:30Z</time>
      </trkpt>
      <trkpt lat="42.4817960" lon="-8.6508910">
        <ele>37.8</ele>
        <time>2021-05-22T07:45:31Z</time>
      </trkpt>
      <trkpt lat="42.4818200" lon="-8.6508910">
        <ele>37.8</ele>
        <time>2021-05-22T07:45:32Z</time>
      </trkpt>
      <trkpt lat="42.4818310" lon="-8.6508930">
        <ele>37.9</ele>
        <time>2021-05-22T07:45:33Z</time>
      </trkpt>
      <trkpt lat="42.4818540" lon="-8.6508900">
        <ele>38.0</ele>
        <time>2021-05-22T07:45:34Z</time>
      </trkpt>
      <trkpt lat="42.4818580" lon="-8.6508900">
        <ele>38.0</ele>
        <time>2021-05-22T07:45:35Z</time>
      </trkpt>
      <trkpt lat="42.4818580" lon="-8.6508880">
        <ele>38.0</ele>
        <time>2021-05-22T07:45:36Z</time>
      </trkpt>
      <trkpt lat="42.4818750" lon="-8.6508940">
        <ele>38.0</ele>
        <time>2021-05-22T07:45:37Z</time>
      </trkpt>
      <trkpt lat="42.4818870" lon="-8.6508930">
        <ele>38.1</ele>
        <time>2021-05-22T07:45:38Z</time>
      </trkpt>
      <trkpt lat="42.4819000" lon="-8.6508960">
        <ele>38.1</ele>
        <time>2021-05-22T07:45:39Z</time>
      </trkpt>
      <trkpt lat="42.4819050" lon="-8.6508970">
        <ele>38.1</ele>
        <time>2021-05-22T07:45:40Z</time>
      </trkpt>
      <trkpt lat="42.4819200" lon="-8.6508940">
        <ele>38.2</ele>
        <time>2021-05-22T07:45:41Z</time>
      </trkpt>
      <trkpt lat="42.4819350" lon="-8.6508970">
        <ele>38.2</ele>
        <time>2021-05-22T07:45:42Z</time>
      </trkpt>
      <trkpt lat="42.4819450" lon="-8.6509000">
        <ele>38.2</ele>
        <time>2021-05-22T07:45:43Z</time>
      </trkpt>
      <trkpt lat="42.4819530" lon="-8.6509100">
        <ele>38.3</ele>
        <time>2021-05-22T07:45:44Z</time>
      </trkpt>
      <trkpt lat="42.4819740" lon="-8.6509150">
        <ele>38.3</ele>
        <time>2021-05-22T07:45:45Z</time>
      </trkpt>
      <trkpt lat="42.4819800" lon="-8.6509200">
        <ele>38.4</ele>
        <time>2021-05-22T07:45:46Z</time>
      </trkpt>
      <trkpt lat="42.4819960" lon="-8.6509280">
        <ele>38.4</ele>
        <time>2021-05-22T07:45:47Z</time>
      </trkpt>
      <trkpt lat="42.4820070" lon="-8.6509310">
        <ele>38.5</ele>
        <time>2021-05-22T07:45:48Z</time>
      </trkpt>
      <trkpt lat="42.4820170" lon="-8.6509350">
        <ele>38.5</ele>
        <time>2021-05-22T07:45:49Z</time>
      </trkpt>
      <trkpt lat="42.4820430" lon="-8.6509400">
        <ele>38.6</ele>
        <time>2021-05-22T07:45:50Z</time>
      </trkpt>
      <trkpt lat="42.4820520" lon="-8.6509440">
        <ele>38.6</ele>
        <time>2021-05-22T07:45:51Z</time>
      </trkpt>
      <trkpt lat="42.4820610" lon="-8.6509480">
        <ele>38.6</ele>
        <time>2021-05-22T07:45:52Z</time>
      </trkpt>
      <trkpt lat="42.4820800" lon="-8.6509490">
        <ele>38.7</ele>
        <time>2021-05-22T07:45:53Z</time>
      </trkpt>
      <trkpt lat="42.4820860" lon="-8.6509490">
        <ele>38.7</ele>
        <time>2021-05-22T07:45:54Z</time>
      </trkpt>
      <trkpt lat="42.4820930" lon="-8.6509500">
        <ele>38.7</ele>
        <time>2021-05-22T07:45:55Z</time>
      </trkpt>
      <trkpt lat="42.4820990" lon="-8.6509510">
        <ele>38.8</ele>
        <time>2021-05-22T07:45:56Z</time>
      </trkpt>
      <trkpt lat="42.4821150" lon="-8.6509560">
        <ele>38.8</ele>
        <time>2021-05-22T07:45:57Z</time>
      </trkpt>
      <trkpt lat="42.4821260" lon="-8.6509590">
        <ele>38.9</ele>
        <time>2021-05-22T07:45:58Z</time>
      </trkpt>
      <trkpt lat="42.4821360" lon="-8.6509590">
        <ele>38.9</ele>
        <time>2021-05-22T07:45:59Z</time>
      </trkpt>
      <trkpt lat="42.4821370" lon="-8.6509550">
        <ele>38.9</ele>
        <time>2021-05-22T07:46:00Z</time>
      </trkpt>
      <trkpt lat="42.4821450" lon="-8.6509540">
        <ele>38.9</ele>
        <time>2021-05-22T07:46:01Z</time>
      </trkpt>
      <trkpt lat="42.4821580" lon="-8.6509530">
        <ele>39.0</ele>
        <time>2021-05-22T07:46:02Z</time>
      </trkpt>
      <trkpt lat="42.4821680" lon="-8.6509520">
        <ele>39.0</ele>
        <time>2021-05-22T07:46:03Z</time>
      </trkpt>
      <trkpt lat="42.4821860" lon="-8.6509570">
        <ele>39.1</ele>
        <time>2021-05-22T07:46:04Z</time>
      </trkpt>
      <trkpt lat="42.4822160" lon="-8.6509620">
        <ele>39.2</ele>
        <time>2021-05-22T07:46:05Z</time>
      </trkpt>
      <trkpt lat="42.4822220" lon="-8.6509650">
        <ele>39.2</ele>
        <time>2021-05-22T07:46:06Z</time>
      </trkpt>
      <trkpt lat="42.4822250" lon="-8.6509590">
        <ele>39.2</ele>
        <time>2021-05-22T07:46:07Z</time>
      </trkpt>
      <trkpt lat="42.4822300" lon="-8.6509570">
        <ele>39.2</ele>
        <time>2021-05-22T07:46:08Z</time>
      </trkpt>
      <trkpt lat="42.4822340" lon="-8.6509460">
        <ele>39.3</ele>
        <time>2021-05-22T07:46:09Z</time>
      </trkpt>
      <trkpt lat="42.4822430" lon="-8.6509390">
        <ele>39.3</ele>
        <time>2021-05-22T07:46:10Z</time>
      </trkpt>
      <trkpt lat="42.4822590" lon="-8.6509360">
        <ele>39.4</ele>
        <time>2021-05-22T07:46:11Z</time>
      </trkpt>
      <trkpt lat="42.4822680" lon="-8.6509350">
        <ele>39.4</ele>
        <time>2021-05-22T07:46:12Z</time>
      </trkpt>
      <trkpt lat="42.4822760" lon="-8.6509350">
        <ele>39.4</ele>
        <time>2021-05-22T07:46:13Z</time>
      </trkpt>
      <trkpt lat="42.4822850" lon="-8.6509340">
        <ele>39.5</ele>
        <time>2021-05-22T07:46:14Z</time>
      </trkpt>
      <trkpt lat="42.4822880" lon="-8.6509350">
        <ele>39.5</ele>
        <time>2021-05-22T07:46:15Z</time>
      </trkpt>
      <trkpt lat="42.4823000" lon="-8.6509310">
        <ele>39.5</ele>
        <time>2021-05-22T07:46:16Z</time>
      </trkpt>
      <trkpt lat="42.4823090" lon="-8.6509280">
        <ele>39.6</ele>
        <time>2021-05-22T07:46:17Z</time>
      </trkpt>
      <trkpt lat="42.4823200" lon="-8.6509270">
        <ele>39.6</ele>
        <time>2021-05-22T07:46:18Z</time>
      </trkpt>
      <trkpt lat="42.4823390" lon="-8.6509250">
        <ele>39.7</ele>
        <time>2021-05-22T07:46:19Z</time>
      </trkpt>
      <trkpt lat="42.4823480" lon="-8.6509280">
        <ele>39.7</ele>
        <time>2021-05-22T07:46:20Z</time>
      </trkpt>
      <trkpt lat="42.4823560" lon="-8.6509300">
        <ele>39.7</ele>
        <time>2021-05-22T07:46:21Z</time>
      </trkpt>
      <trkpt lat="42.4823660" lon="-8.6509350">
        <ele>39.8</ele>
        <time>2021-05-22T07:46:22Z</time>
      </trkpt>
      <trkpt lat="42.4823780" lon="-8.6509370">
        <ele>39.8</ele>
        <time>2021-05-22T07:46:23Z</time>
      </trkpt>
      <trkpt lat="42.4823920" lon="-8.6509310">
        <ele>39.9</ele>
        <time>2021-05-22T07:46:24Z</time>
      </trkpt>
      <trkpt lat="42.4824020" lon="-8.6509340">
        <ele>39.9</ele>
        <time>2021-05-22T07:46:25Z</time>
      </trkpt>
      <trkpt lat="42.4824140" lon="-8.6509280">
        <ele>39.9</ele>
        <time>2021-05-22T07:46:26Z</time>
      </trkpt>
      <trkpt lat="42.4824260" lon="-8.6509230">
        <ele>40.0</ele>
        <time>2021-05-22T07:46:27Z</time>
      </trkpt>
      <trkpt lat="42.4824440" lon="-8.6509170">
        <ele>40.1</ele>
        <time>2021-05-22T07:46:28Z</time>
      </trkpt>
      <trkpt lat="42.4824510" lon="-8.6509140">
        <ele>40.1</ele>
        <time>2021-05-22T07:46:29Z</time>
      </trkpt>
      <trkpt lat="42.4824590" lon="-8.6509120">
        <ele>40.1</ele>
        <time>2021-05-22T07:46:30Z</time>
      </trkpt>
      <trkpt lat="42.4824660" lon="-8.6509090">
        <ele>40.1</ele>
        <time>2021-05-22T07:46:31Z</time>
      </trkpt>
      <trkpt lat="42.4824700" lon="-8.6509080">
        <ele>40.2</ele>
        <time>2021-05-22T07:46:32Z</time>
      </trkpt>
      <trkpt lat="42.4824780" lon="-8.6509030">
        <ele>40.2</ele>
        <time>2021-05-22T07:46:33Z</time>
      </trkpt>
      <trkpt lat="42.4824930" lon="-8.6509000">
        <ele>40.2</ele>
        <time>2021-05-22T07:46:34Z</time>
      </trkpt>
      <trkpt lat="42.4824980" lon="-8.6509060">
        <ele>40.3</ele>
        <time>2021-05-22T07:46:35Z</time>
      </trkpt>
      <trkpt lat="42.4825260" lon="-8.6509010">
        <ele>40.4</ele>
        <time>2021-05-22T07:46:36Z</time>
      </trkpt>
      <trkpt lat="42.4825360" lon="-8.6509020">
        <ele>40.4</ele>
        <time>2021-05-22T07:46:37Z</time>
      </trkpt>
      <trkpt lat="42.4825430" lon="-8.6508890">
        <ele>40.4</ele>
        <time>2021-05-22T07:46:38Z</time>
      </trkpt>
      <trkpt lat="42.4825510" lon="-8.6508850">
        <ele>40.5</ele>
        <time>2021-05-22T07:46:39Z</time>
      </trkpt>
      <trkpt lat="42.4825590" lon="-8.6508850">
        <ele>40.5</ele>
        <time>2021-05-22T07:46:40Z</time>
      </trkpt>
      <trkpt lat="42.4825840" lon="-8.6508840">
        <ele>40.6</ele>
        <time>2021-05-22T07:46:41Z</time>
      </trkpt>
      <trkpt lat="42.4826010" lon="-8.6508810">
        <ele>40.7</ele>
        <time>2021-05-22T07:46:42Z</time>
      </trkpt>
      <trkpt lat="42.4826180" lon="-8.6508760">
        <ele>40.7</ele>
        <time>2021-05-22T07:46:43Z</time>
      </trkpt>
      <trkpt lat="42.4826340" lon="-8.6508770">
        <ele>40.8</ele>
        <time>2021-05-22T07:46:44Z</time>
      </trkpt>
      <trkpt lat="42.4826480" lon="-8.6508790">
        <ele>40.8</ele>
        <time>2021-05-22T07:46:45Z</time>
      </trkpt>
      <trkpt lat="42.4826560" lon="-8.6508780">
        <ele>40.9</ele>
        <time>2021-05-22T07:46:46Z</time>
      </trkpt>
      <trkpt lat="42.4826630" lon="-8.6508680">
        <ele>40.9</ele>
        <time>2021-05-22T07:46:47Z</time>
      </trkpt>
      <trkpt lat="42.4826830" lon="-8.6508690">
        <ele>41.0</ele>
        <time>2021-05-22T07:46:48Z</time>
      </trkpt>
      <trkpt lat="42.4826880" lon="-8.6508660">
        <ele>41.0</ele>
        <time>2021-05-22T07:46:49Z</time>
      </trkpt>
      <trkpt lat="42.4826970" lon="-8.6508710">
        <ele>41.0</ele>
        <time>2021-05-22T07:46:50Z</time>
      </trkpt>
      <trkpt lat="42.4827050" lon="-8.6508700">
        <ele>41.1</ele>
        <time>2021-05-22T07:46:51Z</time>
      </trkpt>
      <trkpt lat="42.4827140" lon="-8.6508670">
        <ele>41.1</ele>
        <time>2021-05-22T07:46:52Z</time>
      </trkpt>
      <trkpt lat="42.4827200" lon="-8.6508560">
        <ele>41.1</ele>
        <time>2021-05-22T07:46:53Z</time>
      </trkpt>
      <trkpt lat="42.4827350" lon="-8.6508580">
        <ele>41.2</ele>
        <time>2021-05-22T07:46:54Z</time>
      </trkpt>
      <trkpt lat="42.4827450" lon="-8.6508520">
        <ele>41.2</ele>
        <time>2021-05-22T07:46:55Z</time>
      </trkpt>
      <trkpt lat="42.4827540" lon="-8.6508500">
        <ele>41.2</ele>
        <time>2021-05-22T07:46:56Z</time>
      </trkpt>
      <trkpt lat="42.4827630" lon="-8.6508480">
        <ele>41.3</ele>
        <time>2021-05-22T07:46:57Z</time>
      </trkpt>
      <trkpt lat="42.4827780" lon="-8.6508380">
        <ele>41.3</ele>
        <time>2021-05-22T07:46:58Z</time>
      </trkpt>
      <trkpt lat="42.4827870" lon="-8.6508380">
        <ele>41.3</ele>
        <time>2021-05-22T07:46:59Z</time>
      </trkpt>
      <trkpt lat="42.4827980" lon="-8.6508350">
        <ele>41.4</ele>
        <time>2021-05-22T07:47:00Z</time>
      </trkpt>
      <trkpt lat="42.4828130" lon="-8.6508530">
        <ele>41.4</ele>
        <time>2021-05-22T07:47:01Z</time>
      </trkpt>
      <trkpt lat="42.4828300" lon="-8.6508550">
        <ele>41.5</ele>
        <time>2021-05-22T07:47:02Z</time>
      </trkpt>
      <trkpt lat="42.4828420" lon="-8.6508500">
        <ele>41.5</ele>
        <time>2021-05-22T07:47:03Z</time>
      </trkpt>
      <trkpt lat="42.4828570" lon="-8.6508530">
        <ele>41.6</ele>
        <time>2021-05-22T07:47:04Z</time>
      </trkpt>
      <trkpt lat="42.4828650" lon="-8.6508550">
        <ele>41.6</ele>
        <time>2021-05-22T07:47:05Z</time>
      </trkpt>
      <trkpt lat="42.4828770" lon="-8.6508510">
        <ele>41.6</ele>
        <time>2021-05-22T07:47:06Z</time>
      </trkpt>
      <trkpt lat="42.4829070" lon="-8.6508460">
        <ele>41.8</ele>
        <time>2021-05-22T07:47:07Z</time>
      </trkpt>
      <trkpt lat="42.4829130" lon="-8.6508440">
        <ele>41.8</ele>
        <time>2021-05-22T07:47:08Z</time>
      </trkpt>
      <trkpt lat="42.4829220" lon="-8.6508450">
        <ele>41.8</ele>
        <time>2021-05-22T07:47:09Z</time>
      </trkpt>
      <trkpt lat="42.4829340" lon="-8.6508400">
        <ele>41.9</ele>
        <time>2021-05-22T07:47:10Z</time>
      </trkpt>
      <trkpt lat="42.4829420" lon="-8.6508350">
        <ele>41.9</ele>
        <time>2021-05-22T07:47:11Z</time>
      </trkpt>
      <trkpt lat="42.4829550" lon="-8.6508350">
        <ele>42.0</ele>
        <time>2021-05-22T07:47:12Z</time>
      </trkpt>
      <trkpt lat="42.4829720" lon="-8.6508320">
        <ele>42.0</ele>
        <time>2021-05-22T07:47:13Z</time>
      </trkpt>
      <trkpt lat="42.4829910" lon="-8.6508310">
        <ele>42.1</ele>
        <time>2021-05-22T07:47:14Z</time>
      </trkpt>
      <trkpt lat="42.4829980" lon="-8.6508290">
        <ele>42.2</ele>
        <time>2021-05-22T07:47:15Z</time>
      </trkpt>
      <trkpt lat="42.4830050" lon="-8.6508260">
        <ele>42.2</ele>
        <time>2021-05-22T07:47:16Z</time>
      </trkpt>
      <trkpt lat="42.4830120" lon="-8.6508240">
        <ele>42.2</ele>
        <time>2021-05-22T07:47:17Z</time>
      </trkpt>
      <trkpt lat="42.4830300" lon="-8.6508300">
        <ele>42.3</ele>
        <time>2021-05-22T07:47:18Z</time>
      </trkpt>
      <trkpt lat="42.4830450" lon="-8.6508280">
        <ele>42.4</ele>
        <time>2021-05-22T07:47:19Z</time>
      </trkpt>
      <trkpt lat="42.4830450" lon="-8.6508260">
        <ele>42.4</ele>
        <time>2021-05-22T07:47:20Z</time>
      </trkpt>
      <trkpt lat="42.4830500" lon="-8.6508220">
        <ele>42.4</ele>
        <time>2021-05-22T07:47:21Z</time>
      </trkpt>
      <trkpt lat="42.4830620" lon="-8.6508220">
        <ele>42.5</ele>
        <time>2021-05-22T07:47:22Z</time>
      </trkpt>
      <trkpt lat="42.4830690" lon="-8.6508260">
        <ele>42.5</ele>
        <time>2021-05-22T07:47:23Z</time>
      </trkpt>
      <trkpt lat="42.4830810" lon="-8.6508280">
        <ele>42.6</ele>
        <time>2021-05-22T07:47:24Z</time>
      </trkpt>
      <trkpt lat="42.4830980" lon="-8.6508220">
        <ele>42.6</ele>
        <time>2021-05-22T07:47:25Z</time>
      </trkpt>
      <trkpt lat="42.4831110" lon="-8.6508220">
        <ele>42.7</ele>
        <time>2021-05-22T07:47:26Z</time>
      </trkpt>
      <trkpt lat="42.4831190" lon="-8.6508170">
        <ele>42.7</ele>
        <time>2021-05-22T07:47:27Z</time>
      </trkpt>
      <trkpt lat="42.4831320" lon="-8.6508160">
        <ele>42.8</ele>
        <time>2021-05-22T07:47:28Z</time>
      </trkpt>
      <trkpt lat="42.4831430" lon="-8.6508260">
        <ele>42.9</ele>
        <time>2021-05-22T07:47:29Z</time>
      </trkpt>
      <trkpt lat="42.4831530" lon="-8.6508300">
        <ele>42.9</ele>
        <time>2021-05-22T07:47:30Z</time>
      </trkpt>
      <trkpt lat="42.4831620" lon="-8.6508340">
        <ele>42.9</ele>
        <time>2021-05-22T07:47:31Z</time>
      </trkpt>
      <trkpt lat="42.4831690" lon="-8.6508390">
        <ele>43.0</ele>
        <time>2021-05-22T07:47:32Z</time>
      </trkpt>
      <trkpt lat="42.4831830" lon="-8.6508370">
        <ele>43.0</ele>
        <time>2021-05-22T07:47:33Z</time>
      </trkpt>
      <trkpt lat="42.4831970" lon="-8.6508340">
        <ele>43.1</ele>
        <time>2021-05-22T07:47:34Z</time>
      </trkpt>
      <trkpt lat="42.4832120" lon="-8.6508400">
        <ele>43.1</ele>
        <time>2021-05-22T07:47:35Z</time>
      </trkpt>
      <trkpt lat="42.4832200" lon="-8.6508420">
        <ele>43.2</ele>
        <time>2021-05-22T07:47:36Z</time>
      </trkpt>
      <trkpt lat="42.4832300" lon="-8.6508440">
        <ele>43.2</ele>
        <time>2021-05-22T07:47:37Z</time>
      </trkpt>
      <trkpt lat="42.4832420" lon="-8.6508470">
        <ele>43.3</ele>
        <time>2021-05-22T07:47:38Z</time>
      </trkpt>
      <trkpt lat="42.4832520" lon="-8.6508460">
        <ele>43.3</ele>
        <time>2021-05-22T07:47:39Z</time>
      </trkpt>
      <trkpt lat="42.4832610" lon="-8.6508450">
        <ele>43.3</ele>
        <time>2021-05-22T07:47:40Z</time>
      </trkpt>
      <trkpt lat="42.4832700" lon="-8.6508440">
        <ele>43.4</ele>
        <time>2021-05-22T07:47:41Z</time>
      </trkpt>
      <trkpt lat="42.4832890" lon="-8.6508460">
        <ele>43.4</ele>
        <time>2021-05-22T07:47:42Z</time>
      </trkpt>
      <trkpt lat="42.4833010" lon="-8.6508460">
        <ele>43.5</ele>
        <time>2021-05-22T07:47:43Z</time>
      </trkpt>
      <trkpt lat="42.4833120" lon="-8.6508470">
        <ele>43.5</ele>
        <time>2021-05-22T07:47:44Z</time>
      </trkpt>
      <trkpt lat="42.4833300" lon="-8.6508430">
        <ele>43.6</ele>
        <time>2021-05-22T07:47:45Z</time>
      </trkpt>
      <trkpt lat="42.4833410" lon="-8.6508390">
        <ele>43.7</ele>
        <time>2021-05-22T07:47:46Z</time>
      </trkpt>
      <trkpt lat="42.4833510" lon="-8.6508360">
        <ele>43.7</ele>
        <time>2021-05-22T07:47:47Z</time>
      </trkpt>
      <trkpt lat="42.4833660" lon="-8.6508330">
        <ele>43.8</ele>
        <time>2021-05-22T07:47:48Z</time>
      </trkpt>
      <trkpt lat="42.4833780" lon="-8.6508300">
        <ele>43.8</ele>
        <time>2021-05-22T07:47:49Z</time>
      </trkpt>
      <trkpt lat="42.4833930" lon="-8.6508250">
        <ele>43.9</ele>
        <time>2021-05-22T07:47:50Z</time>
      </trkpt>
      <trkpt lat="42.4834010" lon="-8.6508260">
        <ele>43.9</ele>
        <time>2021-05-22T07:47:51Z</time>
      </trkpt>
      <trkpt lat="42.4834070" lon="-8.6508240">
        <ele>43.9</ele>
        <time>2021-05-22T07:47:52Z</time>
      </trkpt>
      <trkpt lat="42.4834110" lon="-8.6508200">
        <ele>43.9</ele>
        <time>2021-05-22T07:47:53Z</time>
      </trkpt>
      <trkpt lat="42.4834200" lon="-8.6508190">
        <ele>44.0</ele>
        <time>2021-05-22T07:47:54Z</time>
      </trkpt>
      <trkpt lat="42.4834380" lon="-8.6508110">
        <ele>44.1</ele>
        <time>2021-05-22T07:47:55Z</time>
      </trkpt>
      <trkpt lat="42.4834490" lon="-8.6508110">
        <ele>44.1</ele>
        <time>2021-05-22T07:47:56Z</time>
      </trkpt>
      <trkpt lat="42.4834690" lon="-8.6508120">
        <ele>44.2</ele>
        <time>2021-05-22T07:47:57Z</time>
      </trkpt>
      <trkpt lat="42.4834680" lon="-8.6508170">
        <ele>44.2</ele>
        <time>2021-05-22T07:47:58Z</time>
      </trkpt>
      <trkpt lat="42.4834660" lon="-8.6508160">
        <ele>44.2</ele>
        <time>2021-05-22T07:47:59Z</time>
      </trkpt>
      <trkpt lat="42.4834760" lon="-8.6508230">
        <ele>44.2</ele>
        <time>2021-05-22T07:48:00Z</time>
      </trkpt>
      <trkpt lat="42.4834970" lon="-8.6508250">
        <ele>44.3</ele>
        <time>2021-05-22T07:48:01Z</time>
      </trkpt>
      <trkpt lat="42.4835020" lon="-8.6508240">
        <ele>44.3</ele>
        <time>2021-05-22T07:48:02Z</time>
      </trkpt>
      <trkpt lat="42.4835130" lon="-8.6508190">
        <ele>44.3</ele>
        <time>2021-05-22T07:48:03Z</time>
      </trkpt>
      <trkpt lat="42.4835250" lon="-8.6508180">
        <ele>44.4</ele>
        <time>2021-05-22T07:48:04Z</time>
      </trkpt>
      <trkpt lat="42.4835350" lon="-8.6508160">
        <ele>44.4</ele>
        <time>2021-05-22T07:48:05Z</time>
      </trkpt>
      <trkpt lat="42.4835510" lon="-8.6508120">
        <ele>44.4</ele>
        <time>2021-05-22T07:48:06Z</time>
      </trkpt>
      <trkpt lat="42.4835600" lon="-8.6508130">
        <ele>44.5</ele>
        <time>2021-05-22T07:48:07Z</time>
      </trkpt>
      <trkpt lat="42.4835810" lon="-8.6508080">
        <ele>44.5</ele>
        <time>2021-05-22T07:48:08Z</time>
      </trkpt>
      <trkpt lat="42.4835890" lon="-8.6508080">
        <ele>44.6</ele>
        <time>2021-05-22T07:48:09Z</time>
      </trkpt>
      <trkpt lat="42.4835970" lon="-8.6508090">
        <ele>44.6</ele>
        <time>2021-05-22T07:48:10Z</time>
      </trkpt>
      <trkpt lat="42.4836130" lon="-8.6508030">
        <ele>44.6</ele>
        <time>2021-05-22T07:48:11Z</time>
      </trkpt>
      <trkpt lat="42.4836280" lon="-8.6508010">
        <ele>44.7</ele>
        <time>2021-05-22T07:48:12Z</time>
      </trkpt>
      <trkpt lat="42.4836450" lon="-8.6507970">
        <ele>44.7</ele>
        <time>2021-05-22T07:48:13Z</time>
      </trkpt>
      <trkpt lat="42.4836550" lon="-8.6507900">
        <ele>44.7</ele>
        <time>2021-05-22T07:48:14Z</time>
      </trkpt>
      <trkpt lat="42.4836790" lon="-8.6507880">
        <ele>44.8</ele>
        <time>2021-05-22T07:48:15Z</time>
      </trkpt>
      <trkpt lat="42.4836880" lon="-8.6507890">
        <ele>44.8</ele>
        <time>2021-05-22T07:48:16Z</time>
      </trkpt>
      <trkpt lat="42.4836970" lon="-8.6507890">
        <ele>44.9</ele>
        <time>2021-05-22T07:48:17Z</time>
      </trkpt>
      <trkpt lat="42.4837200" lon="-8.6507860">
        <ele>44.9</ele>
        <time>2021-05-22T07:48:18Z</time>
      </trkpt>
      <trkpt lat="42.4837260" lon="-8.6507850">
        <ele>45.0</ele>
        <time>2021-05-22T07:48:19Z</time>
      </trkpt>
      <trkpt lat="42.4837330" lon="-8.6507850">
        <ele>45.0</ele>
        <time>2021-05-22T07:48:20Z</time>
      </trkpt>
      <trkpt lat="42.4837440" lon="-8.6507760">
        <ele>45.0</ele>
        <time>2021-05-22T07:48:21Z</time>
      </trkpt>
      <trkpt lat="42.4837590" lon="-8.6507670">
        <ele>45.1</ele>
        <time>2021-05-22T07:48:22Z</time>
      </trkpt>
      <trkpt lat="42.4837750" lon="-8.6507590">
        <ele>45.2</ele>
        <time>2021-05-22T07:48:23Z</time>
      </trkpt>
      <trkpt lat="42.4837820" lon="-8.6507480">
        <ele>45.2</ele>
        <time>2021-05-22T07:48:24Z</time>
      </trkpt>
      <trkpt lat="42.4837920" lon="-8.6507440">
        <ele>45.2</ele>
        <time>2021-05-22T07:48:25Z</time>
      </trkpt>
      <trkpt lat="42.4838090" lon="-8.6507340">
        <ele>45.3</ele>
        <time>2021-05-22T07:48:26Z</time>
      </trkpt>
      <trkpt lat="42.4838170" lon="-8.6507310">
        <ele>45.3</ele>
        <time>2021-05-22T07:48:27Z</time>
      </trkpt>
      <trkpt lat="42.4838220" lon="-8.6507360">
        <ele>45.4</ele>
        <time>2021-05-22T07:48:28Z</time>
      </trkpt>
      <trkpt lat="42.4838270" lon="-8.6507410">
        <ele>45.4</ele>
        <time>2021-05-22T07:48:29Z</time>
      </trkpt>
      <trkpt lat="42.4838440" lon="-8.6507520">
        <ele>45.5</ele>
        <time>2021-05-22T07:48:30Z</time>
      </trkpt>
      <trkpt lat="42.4838550" lon="-8.6507500">
        <ele>45.5</ele>
        <time>2021-05-22T07:48:31Z</time>
      </trkpt>
      <trkpt lat="42.4838750" lon="-8.6507510">
        <ele>45.6</ele>
        <time>2021-05-22T07:48:32Z</time>
      </trkpt>
      <trkpt lat="42.4838970" lon="-8.6507510">
        <ele>45.6</ele>
        <time>2021-05-22T07:48:33Z</time>
      </trkpt>
      <trkpt lat="42.4839050" lon="-8.6507520">
        <ele>45.7</ele>
        <time>2021-05-22T07:48:34Z</time>
      </trkpt>
      <trkpt lat="42.4839140" lon="-8.6507520">
        <ele>45.7</ele>
        <time>2021-05-22T07:48:35Z</time>
      </trkpt>
      <trkpt lat="42.4839200" lon="-8.6507580">
        <ele>45.7</ele>
        <time>2021-05-22T07:48:36Z</time>
      </trkpt>
      <trkpt lat="42.4839310" lon="-8.6507590">
        <ele>45.8</ele>
        <time>2021-05-22T07:48:37Z</time>
      </trkpt>
      <trkpt lat="42.4839430" lon="-8.6507600">
        <ele>45.8</ele>
        <time>2021-05-22T07:48:38Z</time>
      </trkpt>
      <trkpt lat="42.4839580" lon="-8.6507600">
        <ele>45.8</ele>
        <time>2021-05-22T07:48:39Z</time>
      </trkpt>
      <trkpt lat="42.4839620" lon="-8.6507580">
        <ele>45.8</ele>
        <time>2021-05-22T07:48:40Z</time>
      </trkpt>
      <trkpt lat="42.4839620" lon="-8.6507610">
        <ele>45.8</ele>
        <time>2021-05-22T07:48:41Z</time>
      </trkpt>
      <trkpt lat="42.4839630" lon="-8.6507530">
        <ele>45.8</ele>
        <time>2021-05-22T07:48:42Z</time>
      </trkpt>
      <trkpt lat="42.4839640" lon="-8.6507550">
        <ele>45.8</ele>
        <time>2021-05-22T07:48:43Z</time>
      </trkpt>
      <trkpt lat="42.4839590" lon="-8.6507590">
        <ele>45.8</ele>
        <time>2021-05-22T07:48:44Z</time>
      </trkpt>
      <trkpt lat="42.4839530" lon="-8.6507590">
        <ele>45.9</ele>
        <time>2021-05-22T07:48:45Z</time>
      </trkpt>
      <trkpt lat="42.4839500" lon="-8.6507580">
        <ele>45.9</ele>
        <time>2021-05-22T07:48:46Z</time>
      </trkpt>
      <trkpt lat="42.4839500" lon="-8.6507550">
        <ele>45.9</ele>
        <time>2021-05-22T07:48:47Z</time>
      </trkpt>
      <trkpt lat="42.4839510" lon="-8.6507530">
        <ele>45.9</ele>
        <time>2021-05-22T07:48:48Z</time>
      </trkpt>
      <trkpt lat="42.4839520" lon="-8.6507520">
        <ele>45.9</ele>
        <time>2021-05-22T07:48:49Z</time>
      </trkpt>
      <trkpt lat="42.4839530" lon="-8.6507560">
        <ele>45.9</ele>
        <time>2021-05-22T07:48:50Z</time>
      </trkpt>
      <trkpt lat="42.4839520" lon="-8.6507560">
        <ele>45.9</ele>
        <time>2021-05-22T07:48:51Z</time>
      </trkpt>
      <trkpt lat="42.4839520" lon="-8.6507540">
        <ele>45.9</ele>
        <time>2021-05-22T07:48:52Z</time>
      </trkpt>
      <trkpt lat="42.4839550" lon="-8.6507560">
        <ele>45.9</ele>
        <time>2021-05-22T07:48:53Z</time>
      </trkpt>
      <trkpt lat="42.4839580" lon="-8.6507550">
        <ele>45.9</ele>
        <time>2021-05-22T07:48:54Z</time>
      </trkpt>
      <trkpt lat="42.4839620" lon="-8.6507520">
        <ele>45.9</ele>
        <time>2021-05-22T07:48:55Z</time>
      </trkpt>
      <trkpt lat="42.4839680" lon="-8.6507370">
        <ele>45.9</ele>
        <time>2021-05-22T07:48:56Z</time>
      </trkpt>
      <trkpt lat="42.4839720" lon="-8.6507390">
        <ele>45.9</ele>
        <time>2021-05-22T07:48:57Z</time>
      </trkpt>
      <trkpt lat="42.4839750" lon="-8.6507420">
        <ele>45.9</ele>
        <time>2021-05-22T07:48:58Z</time>
      </trkpt>
      <trkpt lat="42.4839770" lon="-8.6507460">
        <ele>45.9</ele>
        <time>2021-05-22T07:48:59Z</time>
      </trkpt>
      <trkpt lat="42.4839790" lon="-8.6507500">
        <ele>45.9</ele>
        <time>2021-05-22T07:49:00Z</time>
      </trkpt>
      <trkpt lat="42.4839810" lon="-8.6507530">
        <ele>45.9</ele>
        <time>2021-05-22T07:49:01Z</time>
      </trkpt>
      <trkpt lat="42.4839840" lon="-8.6507570">
        <ele>46.0</ele>
        <time>2021-05-22T07:49:02Z</time>
      </trkpt>
      <trkpt lat="42.4839860" lon="-8.6507600">
        <ele>46.0</ele>
        <time>2021-05-22T07:49:03Z</time>
      </trkpt>
      <trkpt lat="42.4839880" lon="-8.6507640">
        <ele>46.0</ele>
        <time>2021-05-22T07:49:04Z</time>
      </trkpt>
      <trkpt lat="42.4839900" lon="-8.6507680">
        <ele>46.0</ele>
        <time>2021-05-22T07:49:05Z</time>
      </trkpt>
      <trkpt lat="42.4839930" lon="-8.6507710">
        <ele>46.0</ele>
        <time>2021-05-22T07:49:06Z</time>
      </trkpt>
      <trkpt lat="42.4839950" lon="-8.6507750">
        <ele>46.0</ele>
        <time>2021-05-22T07:49:07Z</time>
      </trkpt>
      <trkpt lat="42.4840010" lon="-8.6507730">
        <ele>46.0</ele>
        <time>2021-05-22T07:49:08Z</time>
      </trkpt>
      <trkpt lat="42.4840130" lon="-8.6507760">
        <ele>46.0</ele>
        <time>2021-05-22T07:49:09Z</time>
      </trkpt>
      <trkpt lat="42.4840230" lon="-8.6507820">
        <ele>46.0</ele>
        <time>2021-05-22T07:49:10Z</time>
      </trkpt>
      <trkpt lat="42.4840340" lon="-8.6507870">
        <ele>46.0</ele>
        <time>2021-05-22T07:49:11Z</time>
      </trkpt>
      <trkpt lat="42.4840440" lon="-8.6507900">
        <ele>46.0</ele>
        <time>2021-05-22T07:49:12Z</time>
      </trkpt>
      <trkpt lat="42.4840460" lon="-8.6507900">
        <ele>46.0</ele>
        <time>2021-05-22T07:49:13Z</time>
      </trkpt>
      <trkpt lat="42.4840440" lon="-8.6507840">
        <ele>46.0</ele>
        <time>2021-05-22T07:49:14Z</time>
      </trkpt>
      <trkpt lat="42.4840430" lon="-8.6507890">
        <ele>46.1</ele>
        <time>2021-05-22T07:49:15Z</time>
      </trkpt>
      <trkpt lat="42.4840460" lon="-8.6507870">
        <ele>46.1</ele>
        <time>2021-05-22T07:49:16Z</time>
      </trkpt>
      <trkpt lat="42.4840490" lon="-8.6507860">
        <ele>46.1</ele>
        <time>2021-05-22T07:49:17Z</time>
      </trkpt>
      <trkpt lat="42.4840550" lon="-8.6507840">
        <ele>46.1</ele>
        <time>2021-05-22T07:49:18Z</time>
      </trkpt>
      <trkpt lat="42.4840570" lon="-8.6507840">
        <ele>46.1</ele>
        <time>2021-05-22T07:49:19Z</time>
      </trkpt>
      <trkpt lat="42.4840700" lon="-8.6507800">
        <ele>46.1</ele>
        <time>2021-05-22T07:49:20Z</time>
      </trkpt>
      <trkpt lat="42.4840770" lon="-8.6507770">
        <ele>46.1</ele>
        <time>2021-05-22T07:49:21Z</time>
      </trkpt>
      <trkpt lat="42.4840850" lon="-8.6507820">
        <ele>46.1</ele>
        <time>2021-05-22T07:49:22Z</time>
      </trkpt>
      <trkpt lat="42.4841010" lon="-8.6507780">
        <ele>46.1</ele>
        <time>2021-05-22T07:49:23Z</time>
      </trkpt>
      <trkpt lat="42.4841160" lon="-8.6507770">
        <ele>46.1</ele>
        <time>2021-05-22T07:49:24Z</time>
      </trkpt>
      <trkpt lat="42.4841320" lon="-8.6507790">
        <ele>46.1</ele>
        <time>2021-05-22T07:49:25Z</time>
      </trkpt>
      <trkpt lat="42.4841480" lon="-8.6507800">
        <ele>46.1</ele>
        <time>2021-05-22T07:49:26Z</time>
      </trkpt>
      <trkpt lat="42.4841700" lon="-8.6507880">
        <ele>46.2</ele>
        <time>2021-05-22T07:49:27Z</time>
      </trkpt>
      <trkpt lat="42.4841800" lon="-8.6507920">
        <ele>46.2</ele>
        <time>2021-05-22T07:49:28Z</time>
      </trkpt>
      <trkpt lat="42.4841910" lon="-8.6507950">
        <ele>46.2</ele>
        <time>2021-05-22T07:49:29Z</time>
      </trkpt>
      <trkpt lat="42.4841960" lon="-8.6507920">
        <ele>46.2</ele>
        <time>2021-05-22T07:49:30Z</time>
      </trkpt>
      <trkpt lat="42.4842040" lon="-8.6507890">
        <ele>46.2</ele>
        <time>2021-05-22T07:49:31Z</time>
      </trkpt>
      <trkpt lat="42.4842190" lon="-8.6507890">
        <ele>46.2</ele>
        <time>2021-05-22T07:49:32Z</time>
      </trkpt>
      <trkpt lat="42.4842330" lon="-8.6507930">
        <ele>46.2</ele>
        <time>2021-05-22T07:49:33Z</time>
      </trkpt>
      <trkpt lat="42.4842500" lon="-8.6507980">
        <ele>46.2</ele>
        <time>2021-05-22T07:49:34Z</time>
      </trkpt>
      <trkpt lat="42.4842620" lon="-8.6508030">
        <ele>46.2</ele>
        <time>2021-05-22T07:49:35Z</time>
      </trkpt>
      <trkpt lat="42.4842710" lon="-8.6507940">
        <ele>46.2</ele>
        <time>2021-05-22T07:49:36Z</time>
      </trkpt>
      <trkpt lat="42.4842850" lon="-8.6507910">
        <ele>46.2</ele>
        <time>2021-05-22T07:49:37Z</time>
      </trkpt>
      <trkpt lat="42.4842900" lon="-8.6507970">
        <ele>46.2</ele>
        <time>2021-05-22T07:49:38Z</time>
      </trkpt>
      <trkpt lat="42.4842990" lon="-8.6507930">
        <ele>46.2</ele>
        <time>2021-05-22T07:49:39Z</time>
      </trkpt>
      <trkpt lat="42.4843120" lon="-8.6507910">
        <ele>46.2</ele>
        <time>2021-05-22T07:49:40Z</time>
      </trkpt>
      <trkpt lat="42.4843230" lon="-8.6507910">
        <ele>46.2</ele>
        <time>2021-05-22T07:49:41Z</time>
      </trkpt>
      <trkpt lat="42.4843310" lon="-8.6507940">
        <ele>46.3</ele>
        <time>2021-05-22T07:49:42Z</time>
      </trkpt>
      <trkpt lat="42.4843420" lon="-8.6507920">
        <ele>46.3</ele>
        <time>2021-05-22T07:49:43Z</time>
      </trkpt>
      <trkpt lat="42.4843550" lon="-8.6507920">
        <ele>46.3</ele>
        <time>2021-05-22T07:49:44Z</time>
      </trkpt>
      <trkpt lat="42.4843710" lon="-8.6507860">
        <ele>46.3</ele>
        <time>2021-05-22T07:49:45Z</time>
      </trkpt>
      <trkpt lat="42.4843770" lon="-8.6507830">
        <ele>46.3</ele>
        <time>2021-05-22T07:49:46Z</time>
      </trkpt>
      <trkpt lat="42.4843920" lon="-8.6507860">
        <ele>46.3</ele>
        <time>2021-05-22T07:49:47Z</time>
      </trkpt>
      <trkpt lat="42.4844020" lon="-8.6507950">
        <ele>46.3</ele>
        <time>2021-05-22T07:49:48Z</time>
      </trkpt>
      <trkpt lat="42.4844320" lon="-8.6507890">
        <ele>46.3</ele>
        <time>2021-05-22T07:49:49Z</time>
      </trkpt>
      <trkpt lat="42.4844410" lon="-8.6507870">
        <ele>46.3</ele>
        <time>2021-05-22T07:49:50Z</time>
      </trkpt>
      <trkpt lat="42.4844570" lon="-8.6507820">
        <ele>46.3</ele>
        <time>2021-05-22T07:49:51Z</time>
      </trkpt>
      <trkpt lat="42.4844700" lon="-8.6507840">
        <ele>46.3</ele>
        <time>2021-05-22T07:49:52Z</time>
      </trkpt>
      <trkpt lat="42.4844810" lon="-8.6507830">
        <ele>46.3</ele>
        <time>2021-05-22T07:49:53Z</time>
      </trkpt>
      <trkpt lat="42.4844980" lon="-8.6507780">
        <ele>46.3</ele>
        <time>2021-05-22T07:49:54Z</time>
      </trkpt>
      <trkpt lat="42.4845260" lon="-8.6507840">
        <ele>46.3</ele>
        <time>2021-05-22T07:49:55Z</time>
      </trkpt>
      <trkpt lat="42.4845380" lon="-8.6507830">
        <ele>46.3</ele>
        <time>2021-05-22T07:49:56Z</time>
      </trkpt>
      <trkpt lat="42.4845450" lon="-8.6507830">
        <ele>46.3</ele>
        <time>2021-05-22T07:49:57Z</time>
      </trkpt>
      <trkpt lat="42.4845560" lon="-8.6507820">
        <ele>46.3</ele>
        <time>2021-05-22T07:49:58Z</time>
      </trkpt>
      <trkpt lat="42.4845700" lon="-8.6507850">
        <ele>46.3</ele>
        <time>2021-05-22T07:49:59Z</time>
      </trkpt>
      <trkpt lat="42.4845970" lon="-8.6507860">
        <ele>46.3</ele>
        <time>2021-05-22T07:50:00Z</time>
      </trkpt>
      <trkpt lat="42.4846060" lon="-8.6507860">
        <ele>46.3</ele>
        <time>2021-05-22T07:50:01Z</time>
      </trkpt>
      <trkpt lat="42.4846240" lon="-8.6507960">
        <ele>46.3</ele>
        <time>2021-05-22T07:50:02Z</time>
      </trkpt>
      <trkpt lat="42.4846340" lon="-8.6507870">
        <ele>46.3</ele>
        <time>2021-05-22T07:50:03Z</time>
      </trkpt>
      <trkpt lat="42.4846470" lon="-8.6507880">
        <ele>46.3</ele>
        <time>2021-05-22T07:50:04Z</time>
      </trkpt>
      <trkpt lat="42.4846480" lon="-8.6507880">
        <ele>46.3</ele>
        <time>2021-05-22T07:50:05Z</time>
      </trkpt>
      <trkpt lat="42.4846640" lon="-8.6507880">
        <ele>46.3</ele>
        <time>2021-05-22T07:50:06Z</time>
      </trkpt>
      <trkpt lat="42.4846790" lon="-8.6507840">
        <ele>46.3</ele>
        <time>2021-05-22T07:50:07Z</time>
      </trkpt>
      <trkpt lat="42.4846900" lon="-8.6507840">
        <ele>46.3</ele>
        <time>2021-05-22T07:50:08Z</time>
      </trkpt>
      <trkpt lat="42.4846960" lon="-8.6507870">
        <ele>46.3</ele>
        <time>2021-05-22T07:50:09Z</time>
      </trkpt>
      <trkpt lat="42.4847060" lon="-8.6507940">
        <ele>46.3</ele>
        <time>2021-05-22T07:50:10Z</time>
      </trkpt>
      <trkpt lat="42.4847090" lon="-8.6507930">
        <ele>46.3</ele>
        <time>2021-05-22T07:50:11Z</time>
      </trkpt>
      <trkpt lat="42.4847170" lon="-8.6507930">
        <ele>46.3</ele>
        <time>2021-05-22T07:50:12Z</time>
      </trkpt>
      <trkpt lat="42.4847270" lon="-8.6507930">
        <ele>46.3</ele>
        <time>2021-05-22T07:50:13Z</time>
      </trkpt>
      <trkpt lat="42.4847450" lon="-8.6507890">
        <ele>46.3</ele>
        <time>2021-05-22T07:50:14Z</time>
      </trkpt>
      <trkpt lat="42.4847530" lon="-8.6507890">
        <ele>46.3</ele>
        <time>2021-05-22T07:50:15Z</time>
      </trkpt>
      <trkpt lat="42.4847620" lon="-8.6507880">
        <ele>46.3</ele>
        <time>2021-05-22T07:50:16Z</time>
      </trkpt>
      <trkpt lat="42.4847700" lon="-8.6507870">
        <ele>46.3</ele>
        <time>2021-05-22T07:50:17Z</time>
      </trkpt>
      <trkpt lat="42.4847820" lon="-8.6507890">
        <ele>46.3</ele>
        <time>2021-05-22T07:50:18Z</time>
      </trkpt>
      <trkpt lat="42.4848000" lon="-8.6507870">
        <ele>46.3</ele>
        <time>2021-05-22T07:50:19Z</time>
      </trkpt>
      <trkpt lat="42.4848100" lon="-8.6507840">
        <ele>46.4</ele>
        <time>2021-05-22T07:50:20Z</time>
      </trkpt>
      <trkpt lat="42.4848160" lon="-8.6507810">
        <ele>46.4</ele>
        <time>2021-05-22T07:50:21Z</time>
      </trkpt>
      <trkpt lat="42.4848290" lon="-8.6507810">
        <ele>46.4</ele>
        <time>2021-05-22T07:50:22Z</time>
      </trkpt>
      <trkpt lat="42.4848420" lon="-8.6507830">
        <ele>46.4</ele>
        <time>2021-05-22T07:50:23Z</time>
      </trkpt>
      <trkpt lat="42.4848580" lon="-8.6507790">
        <ele>46.4</ele>
        <time>2021-05-22T07:50:24Z</time>
      </trkpt>
      <trkpt lat="42.4848790" lon="-8.6507700">
        <ele>46.4</ele>
        <time>2021-05-22T07:50:25Z</time>
      </trkpt>
      <trkpt lat="42.4848860" lon="-8.6507670">
        <ele>46.4</ele>
        <time>2021-05-22T07:50:26Z</time>
      </trkpt>
      <trkpt lat="42.4848940" lon="-8.6507630">
        <ele>46.4</ele>
        <time>2021-05-22T07:50:27Z</time>
      </trkpt>
      <trkpt lat="42.4849010" lon="-8.6507630">
        <ele>46.4</ele>
        <time>2021-05-22T07:50:28Z</time>
      </trkpt>
      <trkpt lat="42.4849130" lon="-8.6507570">
        <ele>46.4</ele>
        <time>2021-05-22T07:50:29Z</time>
      </trkpt>
      <trkpt lat="42.4849280" lon="-8.6507510">
        <ele>46.4</ele>
        <time>2021-05-22T07:50:30Z</time>
      </trkpt>
      <trkpt lat="42.4849450" lon="-8.6507440">
        <ele>46.4</ele>
        <time>2021-05-22T07:50:31Z</time>
      </trkpt>
      <trkpt lat="42.4849510" lon="-8.6507430">
        <ele>46.4</ele>
        <time>2021-05-22T07:50:32Z</time>
      </trkpt>
      <trkpt lat="42.4849610" lon="-8.6507400">
        <ele>46.4</ele>
        <time>2021-05-22T07:50:33Z</time>
      </trkpt>
      <trkpt lat="42.4849870" lon="-8.6507320">
        <ele>46.4</ele>
        <time>2021-05-22T07:50:34Z</time>
      </trkpt>
      <trkpt lat="42.4849960" lon="-8.6507310">
        <ele>46.4</ele>
        <time>2021-05-22T07:50:35Z</time>
      </trkpt>
      <trkpt lat="42.4850050" lon="-8.6507300">
        <ele>46.4</ele>
        <time>2021-05-22T07:50:36Z</time>
      </trkpt>
      <trkpt lat="42.4850240" lon="-8.6507220">
        <ele>46.4</ele>
        <time>2021-05-22T07:50:37Z</time>
      </trkpt>
      <trkpt lat="42.4850340" lon="-8.6507200">
        <ele>46.4</ele>
        <time>2021-05-22T07:50:38Z</time>
      </trkpt>
      <trkpt lat="42.4850430" lon="-8.6507170">
        <ele>46.4</ele>
        <time>2021-05-22T07:50:39Z</time>
      </trkpt>
      <trkpt lat="42.4850650" lon="-8.6507110">
        <ele>46.4</ele>
        <time>2021-05-22T07:50:40Z</time>
      </trkpt>
      <trkpt lat="42.4850710" lon="-8.6507070">
        <ele>46.5</ele>
        <time>2021-05-22T07:50:41Z</time>
      </trkpt>
      <trkpt lat="42.4850780" lon="-8.6507040">
        <ele>46.5</ele>
        <time>2021-05-22T07:50:42Z</time>
      </trkpt>
      <trkpt lat="42.4850930" lon="-8.6507000">
        <ele>46.5</ele>
        <time>2021-05-22T07:50:43Z</time>
      </trkpt>
      <trkpt lat="42.4851060" lon="-8.6506930">
        <ele>46.5</ele>
        <time>2021-05-22T07:50:44Z</time>
      </trkpt>
      <trkpt lat="42.4851130" lon="-8.6506970">
        <ele>46.5</ele>
        <time>2021-05-22T07:50:45Z</time>
      </trkpt>
      <trkpt lat="42.4851210" lon="-8.6506960">
        <ele>46.5</ele>
        <time>2021-05-22T07:50:46Z</time>
      </trkpt>
      <trkpt lat="42.4851390" lon="-8.6506840">
        <ele>46.5</ele>
        <time>2021-05-22T07:50:47Z</time>
      </trkpt>
      <trkpt lat="42.4851510" lon="-8.6506810">
        <ele>46.5</ele>
        <time>2021-05-22T07:50:48Z</time>
      </trkpt>
      <trkpt lat="42.4851550" lon="-8.6506830">
        <ele>46.5</ele>
        <time>2021-05-22T07:50:49Z</time>
      </trkpt>
      <trkpt lat="42.4851680" lon="-8.6506790">
        <ele>46.6</ele>
        <time>2021-05-22T07:50:50Z</time>
      </trkpt>
      <trkpt lat="42.4851780" lon="-8.6506690">
        <ele>46.6</ele>
        <time>2021-05-22T07:50:51Z</time>
      </trkpt>
      <trkpt lat="42.4851820" lon="-8.6506620">
        <ele>46.6</ele>
        <time>2021-05-22T07:50:52Z</time>
      </trkpt>
      <trkpt lat="42.4851960" lon="-8.6506600">
        <ele>46.6</ele>
        <time>2021-05-22T07:50:53Z</time>
      </trkpt>
      <trkpt lat="42.4852150" lon="-8.6506480">
        <ele>46.6</ele>
        <time>2021-05-22T07:50:54Z</time>
      </trkpt>
      <trkpt lat="42.4852230" lon="-8.6506450">
        <ele>46.6</ele>
        <time>2021-05-22T07:50:55Z</time>
      </trkpt>
      <trkpt lat="42.4852320" lon="-8.6506420">
        <ele>46.6</ele>
        <time>2021-05-22T07:50:56Z</time>
      </trkpt>
      <trkpt lat="42.4852370" lon="-8.6506390">
        <ele>46.7</ele>
        <time>2021-05-22T07:50:57Z</time>
      </trkpt>
      <trkpt lat="42.4852500" lon="-8.6506430">
        <ele>46.7</ele>
        <time>2021-05-22T07:50:58Z</time>
      </trkpt>
      <trkpt lat="42.4852610" lon="-8.6506450">
        <ele>46.7</ele>
        <time>2021-05-22T07:50:59Z</time>
      </trkpt>
      <trkpt lat="42.4852710" lon="-8.6506430">
        <ele>46.7</ele>
        <time>2021-05-22T07:51:00Z</time>
      </trkpt>
      <trkpt lat="42.4852810" lon="-8.6506410">
        <ele>46.7</ele>
        <time>2021-05-22T07:51:01Z</time>
      </trkpt>
      <trkpt lat="42.4852870" lon="-8.6506430">
        <ele>46.7</ele>
        <time>2021-05-22T07:51:02Z</time>
      </trkpt>
      <trkpt lat="42.4852960" lon="-8.6506390">
        <ele>46.7</ele>
        <time>2021-05-22T07:51:03Z</time>
      </trkpt>
      <trkpt lat="42.4853030" lon="-8.6506390">
        <ele>46.7</ele>
        <time>2021-05-22T07:51:04Z</time>
      </trkpt>
      <trkpt lat="42.4853190" lon="-8.6506320">
        <ele>46.8</ele>
        <time>2021-05-22T07:51:05Z</time>
      </trkpt>
      <trkpt lat="42.4853300" lon="-8.6506320">
        <ele>46.8</ele>
        <time>2021-05-22T07:51:06Z</time>
      </trkpt>
      <trkpt lat="42.4853400" lon="-8.6506320">
        <ele>46.8</ele>
        <time>2021-05-22T07:51:07Z</time>
      </trkpt>
      <trkpt lat="42.4853470" lon="-8.6506390">
        <ele>46.8</ele>
        <time>2021-05-22T07:51:08Z</time>
      </trkpt>
      <trkpt lat="42.4853420" lon="-8.6506380">
        <ele>46.8</ele>
        <time>2021-05-22T07:51:09Z</time>
      </trkpt>
      <trkpt lat="42.4853440" lon="-8.6506320">
        <ele>46.8</ele>
        <time>2021-05-22T07:51:10Z</time>
      </trkpt>
      <trkpt lat="42.4853580" lon="-8.6506220">
        <ele>46.9</ele>
        <time>2021-05-22T07:51:11Z</time>
      </trkpt>
      <trkpt lat="42.4853600" lon="-8.6506040">
        <ele>46.9</ele>
        <time>2021-05-22T07:51:12Z</time>
      </trkpt>
      <trkpt lat="42.4853630" lon="-8.6506090">
        <ele>46.9</ele>
        <time>2021-05-22T07:51:13Z</time>
      </trkpt>
      <trkpt lat="42.4853710" lon="-8.6506040">
        <ele>46.9</ele>
        <time>2021-05-22T07:51:14Z</time>
      </trkpt>
      <trkpt lat="42.4853830" lon="-8.6506040">
        <ele>46.9</ele>
        <time>2021-05-22T07:51:15Z</time>
      </trkpt>
      <trkpt lat="42.4854020" lon="-8.6505970">
        <ele>46.9</ele>
        <time>2021-05-22T07:51:16Z</time>
      </trkpt>
      <trkpt lat="42.4854130" lon="-8.6505890">
        <ele>46.9</ele>
        <time>2021-05-22T07:51:17Z</time>
      </trkpt>
      <trkpt lat="42.4854240" lon="-8.6505810">
        <ele>47.0</ele>
        <time>2021-05-22T07:51:18Z</time>
      </trkpt>
      <trkpt lat="42.4854430" lon="-8.6505870">
        <ele>47.0</ele>
        <time>2021-05-22T07:51:19Z</time>
      </trkpt>
      <trkpt lat="42.4854510" lon="-8.6505930">
        <ele>47.0</ele>
        <time>2021-05-22T07:51:20Z</time>
      </trkpt>
      <trkpt lat="42.4854580" lon="-8.6505980">
        <ele>47.0</ele>
        <time>2021-05-22T07:51:21Z</time>
      </trkpt>
      <trkpt lat="42.4854690" lon="-8.6505970">
        <ele>47.0</ele>
        <time>2021-05-22T07:51:22Z</time>
      </trkpt>
      <trkpt lat="42.4854830" lon="-8.6505970">
        <ele>47.0</ele>
        <time>2021-05-22T07:51:23Z</time>
      </trkpt>
      <trkpt lat="42.4854880" lon="-8.6505970">
        <ele>47.0</ele>
        <time>2021-05-22T07:51:24Z</time>
      </trkpt>
      <trkpt lat="42.4854970" lon="-8.6505970">
        <ele>47.0</ele>
        <time>2021-05-22T07:51:25Z</time>
      </trkpt>
      <trkpt lat="42.4855100" lon="-8.6505950">
        <ele>47.0</ele>
        <time>2021-05-22T07:51:26Z</time>
      </trkpt>
      <trkpt lat="42.4855170" lon="-8.6505930">
        <ele>47.0</ele>
        <time>2021-05-22T07:51:27Z</time>
      </trkpt>
      <trkpt lat="42.4855280" lon="-8.6505960">
        <ele>47.0</ele>
        <time>2021-05-22T07:51:28Z</time>
      </trkpt>
      <trkpt lat="42.4855380" lon="-8.6505980">
        <ele>47.1</ele>
        <time>2021-05-22T07:51:29Z</time>
      </trkpt>
      <trkpt lat="42.4855450" lon="-8.6505900">
        <ele>47.1</ele>
        <time>2021-05-22T07:51:30Z</time>
      </trkpt>
      <trkpt lat="42.4855570" lon="-8.6505810">
        <ele>47.1</ele>
        <time>2021-05-22T07:51:31Z</time>
      </trkpt>
      <trkpt lat="42.4855750" lon="-8.6505790">
        <ele>47.1</ele>
        <time>2021-05-22T07:51:32Z</time>
      </trkpt>
      <trkpt lat="42.4856020" lon="-8.6505750">
        <ele>47.1</ele>
        <time>2021-05-22T07:51:33Z</time>
      </trkpt>
      <trkpt lat="42.4856270" lon="-8.6505800">
        <ele>47.1</ele>
        <time>2021-05-22T07:51:34Z</time>
      </trkpt>
      <trkpt lat="42.4856360" lon="-8.6505790">
        <ele>47.1</ele>
        <time>2021-05-22T07:51:35Z</time>
      </trkpt>
      <trkpt lat="42.4856550" lon="-8.6505830">
        <ele>47.1</ele>
        <time>2021-05-22T07:51:36Z</time>
      </trkpt>
      <trkpt lat="42.4856610" lon="-8.6505860">
        <ele>47.1</ele>
        <time>2021-05-22T07:51:37Z</time>
      </trkpt>
      <trkpt lat="42.4856690" lon="-8.6505870">
        <ele>47.1</ele>
        <time>2021-05-22T07:51:38Z</time>
      </trkpt>
      <trkpt lat="42.4857020" lon="-8.6505850">
        <ele>47.1</ele>
        <time>2021-05-22T07:51:39Z</time>
      </trkpt>
      <trkpt lat="42.4857160" lon="-8.6505820">
        <ele>47.1</ele>
        <time>2021-05-22T07:51:40Z</time>
      </trkpt>
      <trkpt lat="42.4857340" lon="-8.6505690">
        <ele>47.2</ele>
        <time>2021-05-22T07:51:41Z</time>
      </trkpt>
      <trkpt lat="42.4857390" lon="-8.6505670">
        <ele>47.2</ele>
        <time>2021-05-22T07:51:42Z</time>
      </trkpt>
      <trkpt lat="42.4857450" lon="-8.6505640">
        <ele>47.2</ele>
        <time>2021-05-22T07:51:43Z</time>
      </trkpt>
      <trkpt lat="42.4857500" lon="-8.6505610">
        <ele>47.2</ele>
        <time>2021-05-22T07:51:44Z</time>
      </trkpt>
      <trkpt lat="42.4857850" lon="-8.6505620">
        <ele>47.2</ele>
        <time>2021-05-22T07:51:45Z</time>
      </trkpt>
      <trkpt lat="42.4857950" lon="-8.6505660">
        <ele>47.2</ele>
        <time>2021-05-22T07:51:46Z</time>
      </trkpt>
      <trkpt lat="42.4858120" lon="-8.6505740">
        <ele>47.2</ele>
        <time>2021-05-22T07:51:47Z</time>
      </trkpt>
      <trkpt lat="42.4858230" lon="-8.6505720">
        <ele>47.2</ele>
        <time>2021-05-22T07:51:48Z</time>
      </trkpt>
      <trkpt lat="42.4858310" lon="-8.6505750">
        <ele>47.2</ele>
        <time>2021-05-22T07:51:49Z</time>
      </trkpt>
      <trkpt lat="42.4858410" lon="-8.6505750">
        <ele>47.2</ele>
        <time>2021-05-22T07:51:50Z</time>
      </trkpt>
      <trkpt lat="42.4858440" lon="-8.6505660">
        <ele>47.2</ele>
        <time>2021-05-22T07:51:51Z</time>
      </trkpt>
      <trkpt lat="42.4858510" lon="-8.6505570">
        <ele>47.2</ele>
        <time>2021-05-22T07:51:52Z</time>
      </trkpt>
      <trkpt lat="42.4858820" lon="-8.6505620">
        <ele>47.2</ele>
        <time>2021-05-22T07:51:53Z</time>
      </trkpt>
      <trkpt lat="42.4859040" lon="-8.6505670">
        <ele>47.3</ele>
        <time>2021-05-22T07:51:54Z</time>
      </trkpt>
      <trkpt lat="42.4859120" lon="-8.6505660">
        <ele>47.3</ele>
        <time>2021-05-22T07:51:55Z</time>
      </trkpt>
      <trkpt lat="42.4859210" lon="-8.6505650">
        <ele>47.3</ele>
        <time>2021-05-22T07:51:56Z</time>
      </trkpt>
      <trkpt lat="42.4859380" lon="-8.6505600">
        <ele>47.3</ele>
        <time>2021-05-22T07:51:57Z</time>
      </trkpt>
      <trkpt lat="42.4859480" lon="-8.6505590">
        <ele>47.3</ele>
        <time>2021-05-22T07:51:58Z</time>
      </trkpt>
      <trkpt lat="42.4859600" lon="-8.6505490">
        <ele>47.3</ele>
        <time>2021-05-22T07:51:59Z</time>
      </trkpt>
      <trkpt lat="42.4859810" lon="-8.6505530">
        <ele>47.3</ele>
        <time>2021-05-22T07:52:00Z</time>
      </trkpt>
      <trkpt lat="42.4859950" lon="-8.6505590">
        <ele>47.4</ele>
        <time>2021-05-22T07:52:01Z</time>
      </trkpt>
      <trkpt lat="42.4860060" lon="-8.6505420">
        <ele>47.4</ele>
        <time>2021-05-22T07:52:02Z</time>
      </trkpt>
      <trkpt lat="42.4860120" lon="-8.6505400">
        <ele>47.4</ele>
        <time>2021-05-22T07:52:03Z</time>
      </trkpt>
      <trkpt lat="42.4860150" lon="-8.6505390">
        <ele>47.4</ele>
        <time>2021-05-22T07:52:04Z</time>
      </trkpt>
      <trkpt lat="42.4860300" lon="-8.6505340">
        <ele>47.4</ele>
        <time>2021-05-22T07:52:05Z</time>
      </trkpt>
      <trkpt lat="42.4860400" lon="-8.6505300">
        <ele>47.4</ele>
        <time>2021-05-22T07:52:06Z</time>
      </trkpt>
      <trkpt lat="42.4860520" lon="-8.6505270">
        <ele>47.4</ele>
        <time>2021-05-22T07:52:07Z</time>
      </trkpt>
      <trkpt lat="42.4860640" lon="-8.6505230">
        <ele>47.4</ele>
        <time>2021-05-22T07:52:08Z</time>
      </trkpt>
      <trkpt lat="42.4860670" lon="-8.6505160">
        <ele>47.4</ele>
        <time>2021-05-22T07:52:09Z</time>
      </trkpt>
      <trkpt lat="42.4860730" lon="-8.6505120">
        <ele>47.5</ele>
        <time>2021-05-22T07:52:10Z</time>
      </trkpt>
      <trkpt lat="42.4860750" lon="-8.6505090">
        <ele>47.5</ele>
        <time>2021-05-22T07:52:11Z</time>
      </trkpt>
      <trkpt lat="42.4860910" lon="-8.6505120">
        <ele>47.5</ele>
        <time>2021-05-22T07:52:12Z</time>
      </trkpt>
      <trkpt lat="42.4860950" lon="-8.6505050">
        <ele>47.5</ele>
        <time>2021-05-22T07:52:13Z</time>
      </trkpt>
      <trkpt lat="42.4861080" lon="-8.6504970">
        <ele>47.5</ele>
        <time>2021-05-22T07:52:14Z</time>
      </trkpt>
      <trkpt lat="42.4861290" lon="-8.6504960">
        <ele>47.5</ele>
        <time>2021-05-22T07:52:15Z</time>
      </trkpt>
      <trkpt lat="42.4861590" lon="-8.6504900">
        <ele>47.6</ele>
        <time>2021-05-22T07:52:16Z</time>
      </trkpt>
      <trkpt lat="42.4861700" lon="-8.6504870">
        <ele>47.6</ele>
        <time>2021-05-22T07:52:17Z</time>
      </trkpt>
      <trkpt lat="42.4861860" lon="-8.6504830">
        <ele>47.6</ele>
        <time>2021-05-22T07:52:18Z</time>
      </trkpt>
      <trkpt lat="42.4861980" lon="-8.6504720">
        <ele>47.6</ele>
        <time>2021-05-22T07:52:19Z</time>
      </trkpt>
      <trkpt lat="42.4862130" lon="-8.6504650">
        <ele>47.7</ele>
        <time>2021-05-22T07:52:20Z</time>
      </trkpt>
      <trkpt lat="42.4862250" lon="-8.6504630">
        <ele>47.7</ele>
        <time>2021-05-22T07:52:21Z</time>
      </trkpt>
      <trkpt lat="42.4862430" lon="-8.6504630">
        <ele>47.8</ele>
        <time>2021-05-22T07:52:22Z</time>
      </trkpt>
      <trkpt lat="42.4862530" lon="-8.6504630">
        <ele>47.8</ele>
        <time>2021-05-22T07:52:23Z</time>
      </trkpt>
      <trkpt lat="42.4862620" lon="-8.6504620">
        <ele>47.8</ele>
        <time>2021-05-22T07:52:24Z</time>
      </trkpt>
      <trkpt lat="42.4862720" lon="-8.6504610">
        <ele>47.8</ele>
        <time>2021-05-22T07:52:25Z</time>
      </trkpt>
      <trkpt lat="42.4862770" lon="-8.6504570">
        <ele>47.8</ele>
        <time>2021-05-22T07:52:26Z</time>
      </trkpt>
      <trkpt lat="42.4862840" lon="-8.6504530">
        <ele>47.8</ele>
        <time>2021-05-22T07:52:27Z</time>
      </trkpt>
      <trkpt lat="42.4862870" lon="-8.6504440">
        <ele>47.9</ele>
        <time>2021-05-22T07:52:28Z</time>
      </trkpt>
      <trkpt lat="42.4863010" lon="-8.6504380">
        <ele>47.9</ele>
        <time>2021-05-22T07:52:29Z</time>
      </trkpt>
      <trkpt lat="42.4863280" lon="-8.6504240">
        <ele>48.0</ele>
        <time>2021-05-22T07:52:30Z</time>
      </trkpt>
      <trkpt lat="42.4863370" lon="-8.6504190">
        <ele>48.0</ele>
        <time>2021-05-22T07:52:31Z</time>
      </trkpt>
      <trkpt lat="42.4863540" lon="-8.6504130">
        <ele>48.1</ele>
        <time>2021-05-22T07:52:32Z</time>
      </trkpt>
      <trkpt lat="42.4863690" lon="-8.6504050">
        <ele>48.2</ele>
        <time>2021-05-22T07:52:33Z</time>
      </trkpt>
      <trkpt lat="42.4863830" lon="-8.6503920">
        <ele>48.3</ele>
        <time>2021-05-22T07:52:34Z</time>
      </trkpt>
      <trkpt lat="42.4863940" lon="-8.6503890">
        <ele>48.4</ele>
        <time>2021-05-22T07:52:35Z</time>
      </trkpt>
      <trkpt lat="42.4864070" lon="-8.6503680">
        <ele>48.6</ele>
        <time>2021-05-22T07:52:36Z</time>
      </trkpt>
      <trkpt lat="42.4864120" lon="-8.6503590">
        <ele>48.6</ele>
        <time>2021-05-22T07:52:37Z</time>
      </trkpt>
      <trkpt lat="42.4864170" lon="-8.6503510">
        <ele>48.7</ele>
        <time>2021-05-22T07:52:38Z</time>
      </trkpt>
      <trkpt lat="42.4864230" lon="-8.6503420">
        <ele>48.7</ele>
        <time>2021-05-22T07:52:39Z</time>
      </trkpt>
      <trkpt lat="42.4864360" lon="-8.6503410">
        <ele>48.8</ele>
        <time>2021-05-22T07:52:40Z</time>
      </trkpt>
      <trkpt lat="42.4864380" lon="-8.6503400">
        <ele>48.8</ele>
        <time>2021-05-22T07:52:41Z</time>
      </trkpt>
      <trkpt lat="42.4864340" lon="-8.6503340">
        <ele>48.9</ele>
        <time>2021-05-22T07:52:42Z</time>
      </trkpt>
      <trkpt lat="42.4864290" lon="-8.6503250">
        <ele>48.9</ele>
        <time>2021-05-22T07:52:43Z</time>
      </trkpt>
      <trkpt lat="42.4864200" lon="-8.6503120">
        <ele>49.0</ele>
        <time>2021-05-22T07:52:44Z</time>
      </trkpt>
      <trkpt lat="42.4864160" lon="-8.6503000">
        <ele>49.1</ele>
        <time>2021-05-22T07:52:45Z</time>
      </trkpt>
      <trkpt lat="42.4864180" lon="-8.6502970">
        <ele>49.1</ele>
        <time>2021-05-22T07:52:46Z</time>
      </trkpt>
      <trkpt lat="42.4864200" lon="-8.6502950">
        <ele>49.2</ele>
        <time>2021-05-22T07:52:47Z</time>
      </trkpt>
      <trkpt lat="42.4864220" lon="-8.6502930">
        <ele>49.2</ele>
        <time>2021-05-22T07:52:48Z</time>
      </trkpt>
      <trkpt lat="42.4864240" lon="-8.6502900">
        <ele>49.2</ele>
        <time>2021-05-22T07:52:49Z</time>
      </trkpt>
      <trkpt lat="42.4864250" lon="-8.6502880">
        <ele>49.2</ele>
        <time>2021-05-22T07:52:50Z</time>
      </trkpt>
      <trkpt lat="42.4864270" lon="-8.6502850">
        <ele>49.2</ele>
        <time>2021-05-22T07:52:51Z</time>
      </trkpt>
      <trkpt lat="42.4864290" lon="-8.6502830">
        <ele>49.3</ele>
        <time>2021-05-22T07:52:52Z</time>
      </trkpt>
      <trkpt lat="42.4864310" lon="-8.6502810">
        <ele>49.3</ele>
        <time>2021-05-22T07:52:53Z</time>
      </trkpt>
      <trkpt lat="42.4864330" lon="-8.6502780">
        <ele>49.3</ele>
        <time>2021-05-22T07:52:54Z</time>
      </trkpt>
      <trkpt lat="42.4864350" lon="-8.6502760">
        <ele>49.3</ele>
        <time>2021-05-22T07:52:55Z</time>
      </trkpt>
      <trkpt lat="42.4864370" lon="-8.6502740">
        <ele>49.3</ele>
        <time>2021-05-22T07:52:56Z</time>
      </trkpt>
      <trkpt lat="42.4864390" lon="-8.6502710">
        <ele>49.4</ele>
        <time>2021-05-22T07:52:57Z</time>
      </trkpt>
      <trkpt lat="42.4864410" lon="-8.6502690">
        <ele>49.4</ele>
        <time>2021-05-22T07:52:58Z</time>
      </trkpt>
      <trkpt lat="42.4864430" lon="-8.6502670">
        <ele>49.4</ele>
        <time>2021-05-22T07:52:59Z</time>
      </trkpt>
      <trkpt lat="42.4864450" lon="-8.6502640">
        <ele>49.4</ele>
        <time>2021-05-22T07:53:00Z</time>
      </trkpt>
      <trkpt lat="42.4864460" lon="-8.6502620">
        <ele>49.5</ele>
        <time>2021-05-22T07:53:01Z</time>
      </trkpt>
      <trkpt lat="42.4864480" lon="-8.6502590">
        <ele>49.5</ele>
        <time>2021-05-22T07:53:02Z</time>
      </trkpt>
      <trkpt lat="42.4864500" lon="-8.6502570">
        <ele>49.5</ele>
        <time>2021-05-22T07:53:03Z</time>
      </trkpt>
      <trkpt lat="42.4864520" lon="-8.6502550">
        <ele>49.5</ele>
        <time>2021-05-22T07:53:04Z</time>
      </trkpt>
      <trkpt lat="42.4864540" lon="-8.6502520">
        <ele>49.5</ele>
        <time>2021-05-22T07:53:05Z</time>
      </trkpt>
      <trkpt lat="42.4864560" lon="-8.6502500">
        <ele>49.6</ele>
        <time>2021-05-22T07:53:06Z</time>
      </trkpt>
      <trkpt lat="42.4864870" lon="-8.6502450">
        <ele>49.8</ele>
        <time>2021-05-22T07:53:07Z</time>
      </trkpt>
      <trkpt lat="42.4864960" lon="-8.6502440">
        <ele>49.9</ele>
        <time>2021-05-22T07:53:08Z</time>
      </trkpt>
      <trkpt lat="42.4865120" lon="-8.6502330">
        <ele>50.0</ele>
        <time>2021-05-22T07:53:09Z</time>
      </trkpt>
      <trkpt lat="42.4865220" lon="-8.6502310">
        <ele>50.1</ele>
        <time>2021-05-22T07:53:10Z</time>
      </trkpt>
      <trkpt lat="42.4865400" lon="-8.6502350">
        <ele>50.2</ele>
        <time>2021-05-22T07:53:11Z</time>
      </trkpt>
      <trkpt lat="42.4865490" lon="-8.6502330">
        <ele>50.3</ele>
        <time>2021-05-22T07:53:12Z</time>
      </trkpt>
      <trkpt lat="42.4865580" lon="-8.6502260">
        <ele>50.4</ele>
        <time>2021-05-22T07:53:13Z</time>
      </trkpt>
      <trkpt lat="42.4865650" lon="-8.6502310">
        <ele>50.5</ele>
        <time>2021-05-22T07:53:14Z</time>
      </trkpt>
      <trkpt lat="42.4865690" lon="-8.6502290">
        <ele>50.5</ele>
        <time>2021-05-22T07:53:15Z</time>
      </trkpt>
      <trkpt lat="42.4865710" lon="-8.6502350">
        <ele>50.5</ele>
        <time>2021-05-22T07:53:16Z</time>
      </trkpt>
      <trkpt lat="42.4865600" lon="-8.6502570">
        <ele>50.7</ele>
        <time>2021-05-22T07:53:17Z</time>
      </trkpt>
      <trkpt lat="42.4865650" lon="-8.6502750">
        <ele>50.8</ele>
        <time>2021-05-22T07:53:18Z</time>
      </trkpt>
      <trkpt lat="42.4865720" lon="-8.6502710">
        <ele>50.8</ele>
        <time>2021-05-22T07:53:19Z</time>
      </trkpt>
      <trkpt lat="42.4865840" lon="-8.6502670">
        <ele>50.9</ele>
        <time>2021-05-22T07:53:20Z</time>
      </trkpt>
      <trkpt lat="42.4865930" lon="-8.6502680">
        <ele>51.0</ele>
        <time>2021-05-22T07:53:21Z</time>
      </trkpt>
      <trkpt lat="42.4866040" lon="-8.6502640">
        <ele>51.1</ele>
        <time>2021-05-22T07:53:22Z</time>
      </trkpt>
      <trkpt lat="42.4866180" lon="-8.6502570">
        <ele>51.2</ele>
        <time>2021-05-22T07:53:23Z</time>
      </trkpt>
      <trkpt lat="42.4866240" lon="-8.6502460">
        <ele>51.2</ele>
        <time>2021-05-22T07:53:24Z</time>
      </trkpt>
      <trkpt lat="42.4866430" lon="-8.6502290">
        <ele>51.3</ele>
        <time>2021-05-22T07:53:25Z</time>
      </trkpt>
      <trkpt lat="42.4866500" lon="-8.6502250">
        <ele>51.4</ele>
        <time>2021-05-22T07:53:26Z</time>
      </trkpt>
      <trkpt lat="42.4866560" lon="-8.6502200">
        <ele>51.4</ele>
        <time>2021-05-22T07:53:27Z</time>
      </trkpt>
      <trkpt lat="42.4866730" lon="-8.6502160">
        <ele>51.5</ele>
        <time>2021-05-22T07:53:28Z</time>
      </trkpt>
      <trkpt lat="42.4866860" lon="-8.6502090">
        <ele>51.5</ele>
        <time>2021-05-22T07:53:29Z</time>
      </trkpt>
      <trkpt lat="42.4866940" lon="-8.6502030">
        <ele>51.6</ele>
        <time>2021-05-22T07:53:30Z</time>
      </trkpt>
      <trkpt lat="42.4866990" lon="-8.6501860">
        <ele>51.6</ele>
        <time>2021-05-22T07:53:31Z</time>
      </trkpt>
      <trkpt lat="42.4867090" lon="-8.6501790">
        <ele>51.7</ele>
        <time>2021-05-22T07:53:32Z</time>
      </trkpt>
      <trkpt lat="42.4867230" lon="-8.6501870">
        <ele>51.7</ele>
        <time>2021-05-22T07:53:33Z</time>
      </trkpt>
      <trkpt lat="42.4867260" lon="-8.6501970">
        <ele>51.7</ele>
        <time>2021-05-22T07:53:34Z</time>
      </trkpt>
      <trkpt lat="42.4867300" lon="-8.6502080">
        <ele>51.7</ele>
        <time>2021-05-22T07:53:35Z</time>
      </trkpt>
      <trkpt lat="42.4867330" lon="-8.6502180">
        <ele>51.8</ele>
        <time>2021-05-22T07:53:36Z</time>
      </trkpt>
      <trkpt lat="42.4867370" lon="-8.6502290">
        <ele>51.8</ele>
        <time>2021-05-22T07:53:37Z</time>
      </trkpt>
      <trkpt lat="42.4867620" lon="-8.6502210">
        <ele>51.8</ele>
        <time>2021-05-22T07:53:38Z</time>
      </trkpt>
      <trkpt lat="42.4867680" lon="-8.6502190">
        <ele>51.8</ele>
        <time>2021-05-22T07:53:39Z</time>
      </trkpt>
      <trkpt lat="42.4867750" lon="-8.6502160">
        <ele>51.8</ele>
        <time>2021-05-22T07:53:40Z</time>
      </trkpt>
      <trkpt lat="42.4867700" lon="-8.6501940">
        <ele>51.8</ele>
        <time>2021-05-22T07:53:41Z</time>
      </trkpt>
      <trkpt lat="42.4867720" lon="-8.6501920">
        <ele>51.8</ele>
        <time>2021-05-22T07:53:42Z</time>
      </trkpt>
      <trkpt lat="42.4867750" lon="-8.6502070">
        <ele>51.8</ele>
        <time>2021-05-22T07:53:43Z</time>
      </trkpt>
      <trkpt lat="42.4867850" lon="-8.6502040">
        <ele>51.8</ele>
        <time>2021-05-22T07:53:44Z</time>
      </trkpt>
      <trkpt lat="42.4867910" lon="-8.6502200">
        <ele>51.8</ele>
        <time>2021-05-22T07:53:45Z</time>
      </trkpt>
      <trkpt lat="42.4868020" lon="-8.6502300">
        <ele>51.8</ele>
        <time>2021-05-22T07:53:46Z</time>
      </trkpt>
      <trkpt lat="42.4868120" lon="-8.6502340">
        <ele>51.8</ele>
        <time>2021-05-22T07:53:47Z</time>
      </trkpt>
      <trkpt lat="42.4868240" lon="-8.6502440">
        <ele>51.8</ele>
        <time>2021-05-22T07:53:48Z</time>
      </trkpt>
      <trkpt lat="42.4868310" lon="-8.6502530">
        <ele>51.8</ele>
        <time>2021-05-22T07:53:49Z</time>
      </trkpt>
      <trkpt lat="42.4868390" lon="-8.6502590">
        <ele>51.8</ele>
        <time>2021-05-22T07:53:50Z</time>
      </trkpt>
      <trkpt lat="42.4868510" lon="-8.6502640">
        <ele>51.8</ele>
        <time>2021-05-22T07:53:51Z</time>
      </trkpt>
      <trkpt lat="42.4868580" lon="-8.6502630">
        <ele>51.8</ele>
        <time>2021-05-22T07:53:52Z</time>
      </trkpt>
      <trkpt lat="42.4868680" lon="-8.6502570">
        <ele>51.8</ele>
        <time>2021-05-22T07:53:53Z</time>
      </trkpt>
      <trkpt lat="42.4868730" lon="-8.6502490">
        <ele>51.7</ele>
        <time>2021-05-22T07:53:54Z</time>
      </trkpt>
      <trkpt lat="42.4868790" lon="-8.6502460">
        <ele>51.7</ele>
        <time>2021-05-22T07:53:55Z</time>
      </trkpt>
      <trkpt lat="42.4868830" lon="-8.6502600">
        <ele>51.7</ele>
        <time>2021-05-22T07:53:56Z</time>
      </trkpt>
      <trkpt lat="42.4868870" lon="-8.6502560">
        <ele>51.7</ele>
        <time>2021-05-22T07:53:57Z</time>
      </trkpt>
      <trkpt lat="42.4868970" lon="-8.6502480">
        <ele>51.7</ele>
        <time>2021-05-22T07:53:58Z</time>
      </trkpt>
      <trkpt lat="42.4869110" lon="-8.6502480">
        <ele>51.7</ele>
        <time>2021-05-22T07:53:59Z</time>
      </trkpt>
      <trkpt lat="42.4869220" lon="-8.6502480">
        <ele>51.7</ele>
        <time>2021-05-22T07:54:00Z</time>
      </trkpt>
      <trkpt lat="42.4869380" lon="-8.6502450">
        <ele>51.6</ele>
        <time>2021-05-22T07:54:01Z</time>
      </trkpt>
      <trkpt lat="42.4869500" lon="-8.6502630">
        <ele>51.6</ele>
        <time>2021-05-22T07:54:02Z</time>
      </trkpt>
      <trkpt lat="42.4869550" lon="-8.6502570">
        <ele>51.6</ele>
        <time>2021-05-22T07:54:03Z</time>
      </trkpt>
      <trkpt lat="42.4869630" lon="-8.6502490">
        <ele>51.6</ele>
        <time>2021-05-22T07:54:04Z</time>
      </trkpt>
      <trkpt lat="42.4869760" lon="-8.6502510">
        <ele>51.6</ele>
        <time>2021-05-22T07:54:05Z</time>
      </trkpt>
      <trkpt lat="42.4870120" lon="-8.6502620">
        <ele>51.5</ele>
        <time>2021-05-22T07:54:06Z</time>
      </trkpt>
      <trkpt lat="42.4870280" lon="-8.6502290">
        <ele>51.5</ele>
        <time>2021-05-22T07:54:07Z</time>
      </trkpt>
      <trkpt lat="42.4870410" lon="-8.6502030">
        <ele>51.5</ele>
        <time>2021-05-22T07:54:08Z</time>
      </trkpt>
      <trkpt lat="42.4870460" lon="-8.6501940">
        <ele>51.5</ele>
        <time>2021-05-22T07:54:09Z</time>
      </trkpt>
      <trkpt lat="42.4870510" lon="-8.6501860">
        <ele>51.5</ele>
        <time>2021-05-22T07:54:10Z</time>
      </trkpt>
      <trkpt lat="42.4870680" lon="-8.6501720">
        <ele>51.5</ele>
        <time>2021-05-22T07:54:11Z</time>
      </trkpt>
      <trkpt lat="42.4870790" lon="-8.6501610">
        <ele>51.5</ele>
        <time>2021-05-22T07:54:12Z</time>
      </trkpt>
      <trkpt lat="42.4870900" lon="-8.6501380">
        <ele>51.5</ele>
        <time>2021-05-22T07:54:13Z</time>
      </trkpt>
      <trkpt lat="42.4870950" lon="-8.6501250">
        <ele>51.5</ele>
        <time>2021-05-22T07:54:14Z</time>
      </trkpt>
      <trkpt lat="42.4871000" lon="-8.6501120">
        <ele>51.5</ele>
        <time>2021-05-22T07:54:15Z</time>
      </trkpt>
      <trkpt lat="42.4871090" lon="-8.6501120">
        <ele>51.5</ele>
        <time>2021-05-22T07:54:16Z</time>
      </trkpt>
      <trkpt lat="42.4871050" lon="-8.6500950">
        <ele>51.5</ele>
        <time>2021-05-22T07:54:17Z</time>
      </trkpt>
      <trkpt lat="42.4871230" lon="-8.6500880">
        <ele>51.5</ele>
        <time>2021-05-22T07:54:18Z</time>
      </trkpt>
      <trkpt lat="42.4871380" lon="-8.6500850">
        <ele>51.5</ele>
        <time>2021-05-22T07:54:19Z</time>
      </trkpt>
      <trkpt lat="42.4871500" lon="-8.6500800">
        <ele>51.5</ele>
        <time>2021-05-22T07:54:20Z</time>
      </trkpt>
      <trkpt lat="42.4871610" lon="-8.6500740">
        <ele>51.5</ele>
        <time>2021-05-22T07:54:21Z</time>
      </trkpt>
      <trkpt lat="42.4871780" lon="-8.6500720">
        <ele>51.5</ele>
        <time>2021-05-22T07:54:22Z</time>
      </trkpt>
      <trkpt lat="42.4871930" lon="-8.6500710">
        <ele>51.5</ele>
        <time>2021-05-22T07:54:23Z</time>
      </trkpt>
      <trkpt lat="42.4872200" lon="-8.6500640">
        <ele>51.5</ele>
        <time>2021-05-22T07:54:24Z</time>
      </trkpt>
      <trkpt lat="42.4872300" lon="-8.6500590">
        <ele>51.5</ele>
        <time>2021-05-22T07:54:25Z</time>
      </trkpt>
      <trkpt lat="42.4872500" lon="-8.6500620">
        <ele>51.5</ele>
        <time>2021-05-22T07:54:26Z</time>
      </trkpt>
      <trkpt lat="42.4872610" lon="-8.6500660">
        <ele>51.5</ele>
        <time>2021-05-22T07:54:27Z</time>
      </trkpt>
      <trkpt lat="42.4872860" lon="-8.6500500">
        <ele>51.5</ele>
        <time>2021-05-22T07:54:28Z</time>
      </trkpt>
      <trkpt lat="42.4872900" lon="-8.6500360">
        <ele>51.5</ele>
        <time>2021-05-22T07:54:29Z</time>
      </trkpt>
      <trkpt lat="42.4873070" lon="-8.6500260">
        <ele>51.5</ele>
        <time>2021-05-22T07:54:30Z</time>
      </trkpt>
      <trkpt lat="42.4873200" lon="-8.6500130">
        <ele>51.5</ele>
        <time>2021-05-22T07:54:31Z</time>
      </trkpt>
      <trkpt lat="42.4873360" lon="-8.6499970">
        <ele>51.5</ele>
        <time>2021-05-22T07:54:32Z</time>
      </trkpt>
      <trkpt lat="42.4873440" lon="-8.6499900">
        <ele>51.5</ele>
        <time>2021-05-22T07:54:33Z</time>
      </trkpt>
      <trkpt lat="42.4873530" lon="-8.6499830">
        <ele>51.5</ele>
        <time>2021-05-22T07:54:34Z</time>
      </trkpt>
      <trkpt lat="42.4873560" lon="-8.6499800">
        <ele>51.5</ele>
        <time>2021-05-22T07:54:35Z</time>
      </trkpt>
      <trkpt lat="42.4873590" lon="-8.6499720">
        <ele>51.5</ele>
        <time>2021-05-22T07:54:36Z</time>
      </trkpt>
      <trkpt lat="42.4873580" lon="-8.6499700">
        <ele>51.5</ele>
        <time>2021-05-22T07:54:37Z</time>
      </trkpt>
      <trkpt lat="42.4873760" lon="-8.6499600">
        <ele>51.6</ele>
        <time>2021-05-22T07:54:38Z</time>
      </trkpt>
      <trkpt lat="42.4873900" lon="-8.6499710">
        <ele>51.6</ele>
        <time>2021-05-22T07:54:39Z</time>
      </trkpt>
      <trkpt lat="42.4874010" lon="-8.6499750">
        <ele>51.6</ele>
        <time>2021-05-22T07:54:40Z</time>
      </trkpt>
      <trkpt lat="42.4874130" lon="-8.6499800">
        <ele>51.6</ele>
        <time>2021-05-22T07:54:41Z</time>
      </trkpt>
      <trkpt lat="42.4874300" lon="-8.6499830">
        <ele>51.6</ele>
        <time>2021-05-22T07:54:42Z</time>
      </trkpt>
      <trkpt lat="42.4874380" lon="-8.6499820">
        <ele>51.7</ele>
        <time>2021-05-22T07:54:43Z</time>
      </trkpt>
      <trkpt lat="42.4874450" lon="-8.6499820">
        <ele>51.7</ele>
        <time>2021-05-22T07:54:44Z</time>
      </trkpt>
      <trkpt lat="42.4874530" lon="-8.6499810">
        <ele>51.7</ele>
        <time>2021-05-22T07:54:45Z</time>
      </trkpt>
      <trkpt lat="42.4874610" lon="-8.6499780">
        <ele>51.7</ele>
        <time>2021-05-22T07:54:46Z</time>
      </trkpt>
      <trkpt lat="42.4874660" lon="-8.6499750">
        <ele>51.7</ele>
        <time>2021-05-22T07:54:47Z</time>
      </trkpt>
      <trkpt lat="42.4874810" lon="-8.6499900">
        <ele>51.7</ele>
        <time>2021-05-22T07:54:48Z</time>
      </trkpt>
      <trkpt lat="42.4874980" lon="-8.6500010">
        <ele>51.7</ele>
        <time>2021-05-22T07:54:49Z</time>
      </trkpt>
      <trkpt lat="42.4875070" lon="-8.6499960">
        <ele>51.8</ele>
        <time>2021-05-22T07:54:50Z</time>
      </trkpt>
      <trkpt lat="42.4875130" lon="-8.6499930">
        <ele>51.8</ele>
        <time>2021-05-22T07:54:51Z</time>
      </trkpt>
      <trkpt lat="42.4875220" lon="-8.6499920">
        <ele>51.8</ele>
        <time>2021-05-22T07:54:52Z</time>
      </trkpt>
      <trkpt lat="42.4875400" lon="-8.6499880">
        <ele>51.8</ele>
        <time>2021-05-22T07:54:53Z</time>
      </trkpt>
      <trkpt lat="42.4875480" lon="-8.6499850">
        <ele>51.8</ele>
        <time>2021-05-22T07:54:54Z</time>
      </trkpt>
      <trkpt lat="42.4875620" lon="-8.6499730">
        <ele>51.8</ele>
        <time>2021-05-22T07:54:55Z</time>
      </trkpt>
      <trkpt lat="42.4875690" lon="-8.6499640">
        <ele>51.9</ele>
        <time>2021-05-22T07:54:56Z</time>
      </trkpt>
      <trkpt lat="42.4875740" lon="-8.6499550">
        <ele>51.9</ele>
        <time>2021-05-22T07:54:57Z</time>
      </trkpt>
      <trkpt lat="42.4875860" lon="-8.6499510">
        <ele>51.9</ele>
        <time>2021-05-22T07:54:58Z</time>
      </trkpt>
      <trkpt lat="42.4875900" lon="-8.6499400">
        <ele>51.9</ele>
        <time>2021-05-22T07:54:59Z</time>
      </trkpt>
      <trkpt lat="42.4876060" lon="-8.6499250">
        <ele>51.9</ele>
        <time>2021-05-22T07:55:00Z</time>
      </trkpt>
      <trkpt lat="42.4876160" lon="-8.6499200">
        <ele>52.0</ele>
        <time>2021-05-22T07:55:01Z</time>
      </trkpt>
      <trkpt lat="42.4876390" lon="-8.6499120">
        <ele>52.0</ele>
        <time>2021-05-22T07:55:02Z</time>
      </trkpt>
      <trkpt lat="42.4876490" lon="-8.6499110">
        <ele>52.0</ele>
        <time>2021-05-22T07:55:03Z</time>
      </trkpt>
      <trkpt lat="42.4876590" lon="-8.6499090">
        <ele>52.0</ele>
        <time>2021-05-22T07:55:04Z</time>
      </trkpt>
      <trkpt lat="42.4876700" lon="-8.6499040">
        <ele>52.0</ele>
        <time>2021-05-22T07:55:05Z</time>
      </trkpt>
      <trkpt lat="42.4876800" lon="-8.6499050">
        <ele>52.1</ele>
        <time>2021-05-22T07:55:06Z</time>
      </trkpt>
      <trkpt lat="42.4876930" lon="-8.6499030">
        <ele>52.1</ele>
        <time>2021-05-22T07:55:07Z</time>
      </trkpt>
      <trkpt lat="42.4876980" lon="-8.6499150">
        <ele>52.1</ele>
        <time>2021-05-22T07:55:08Z</time>
      </trkpt>
      <trkpt lat="42.4877040" lon="-8.6499090">
        <ele>52.1</ele>
        <time>2021-05-22T07:55:09Z</time>
      </trkpt>
      <trkpt lat="42.4877160" lon="-8.6499030">
        <ele>52.1</ele>
        <time>2021-05-22T07:55:10Z</time>
      </trkpt>
      <trkpt lat="42.4877270" lon="-8.6499090">
        <ele>52.1</ele>
        <time>2021-05-22T07:55:11Z</time>
      </trkpt>
      <trkpt lat="42.4877400" lon="-8.6499140">
        <ele>52.2</ele>
        <time>2021-05-22T07:55:12Z</time>
      </trkpt>
      <trkpt lat="42.4877570" lon="-8.6499120">
        <ele>52.2</ele>
        <time>2021-05-22T07:55:13Z</time>
      </trkpt>
      <trkpt lat="42.4877770" lon="-8.6499190">
        <ele>52.2</ele>
        <time>2021-05-22T07:55:14Z</time>
      </trkpt>
      <trkpt lat="42.4877900" lon="-8.6499170">
        <ele>52.2</ele>
        <time>2021-05-22T07:55:15Z</time>
      </trkpt>
      <trkpt lat="42.4878190" lon="-8.6499110">
        <ele>52.3</ele>
        <time>2021-05-22T07:55:16Z</time>
      </trkpt>
      <trkpt lat="42.4878270" lon="-8.6499090">
        <ele>52.3</ele>
        <time>2021-05-22T07:55:17Z</time>
      </trkpt>
      <trkpt lat="42.4878270" lon="-8.6499120">
        <ele>52.3</ele>
        <time>2021-05-22T07:55:18Z</time>
      </trkpt>
      <trkpt lat="42.4878270" lon="-8.6499100">
        <ele>52.3</ele>
        <time>2021-05-22T07:55:19Z</time>
      </trkpt>
      <trkpt lat="42.4878430" lon="-8.6499110">
        <ele>52.3</ele>
        <time>2021-05-22T07:55:20Z</time>
      </trkpt>
      <trkpt lat="42.4878510" lon="-8.6499150">
        <ele>52.3</ele>
        <time>2021-05-22T07:55:21Z</time>
      </trkpt>
      <trkpt lat="42.4878500" lon="-8.6499150">
        <ele>52.3</ele>
        <time>2021-05-22T07:55:22Z</time>
      </trkpt>
      <trkpt lat="42.4878570" lon="-8.6499190">
        <ele>52.3</ele>
        <time>2021-05-22T07:55:23Z</time>
      </trkpt>
      <trkpt lat="42.4878700" lon="-8.6499200">
        <ele>52.3</ele>
        <time>2021-05-22T07:55:24Z</time>
      </trkpt>
      <trkpt lat="42.4878790" lon="-8.6499210">
        <ele>52.4</ele>
        <time>2021-05-22T07:55:25Z</time>
      </trkpt>
      <trkpt lat="42.4878870" lon="-8.6499210">
        <ele>52.4</ele>
        <time>2021-05-22T07:55:26Z</time>
      </trkpt>
      <trkpt lat="42.4878960" lon="-8.6499220">
        <ele>52.4</ele>
        <time>2021-05-22T07:55:27Z</time>
      </trkpt>
      <trkpt lat="42.4879050" lon="-8.6499230">
        <ele>52.4</ele>
        <time>2021-05-22T07:55:28Z</time>
      </trkpt>
      <trkpt lat="42.4879340" lon="-8.6499260">
        <ele>52.4</ele>
        <time>2021-05-22T07:55:29Z</time>
      </trkpt>
      <trkpt lat="42.4879570" lon="-8.6499210">
        <ele>52.5</ele>
        <time>2021-05-22T07:55:30Z</time>
      </trkpt>
      <trkpt lat="42.4879670" lon="-8.6499260">
        <ele>52.5</ele>
        <time>2021-05-22T07:55:31Z</time>
      </trkpt>
      <trkpt lat="42.4879770" lon="-8.6499310">
        <ele>52.5</ele>
        <time>2021-05-22T07:55:32Z</time>
      </trkpt>
      <trkpt lat="42.4879870" lon="-8.6499360">
        <ele>52.5</ele>
        <time>2021-05-22T07:55:33Z</time>
      </trkpt>
      <trkpt lat="42.4880230" lon="-8.6499420">
        <ele>52.5</ele>
        <time>2021-05-22T07:55:34Z</time>
      </trkpt>
      <trkpt lat="42.4880440" lon="-8.6499600">
        <ele>52.6</ele>
        <time>2021-05-22T07:55:35Z</time>
      </trkpt>
      <trkpt lat="42.4880500" lon="-8.6499650">
        <ele>52.6</ele>
        <time>2021-05-22T07:55:36Z</time>
      </trkpt>
      <trkpt lat="42.4880570" lon="-8.6499700">
        <ele>52.6</ele>
        <time>2021-05-22T07:55:37Z</time>
      </trkpt>
      <trkpt lat="42.4880760" lon="-8.6499690">
        <ele>52.6</ele>
        <time>2021-05-22T07:55:38Z</time>
      </trkpt>
      <trkpt lat="42.4880850" lon="-8.6499710">
        <ele>52.6</ele>
        <time>2021-05-22T07:55:39Z</time>
      </trkpt>
      <trkpt lat="42.4880990" lon="-8.6499780">
        <ele>52.7</ele>
        <time>2021-05-22T07:55:40Z</time>
      </trkpt>
      <trkpt lat="42.4881050" lon="-8.6499780">
        <ele>52.7</ele>
        <time>2021-05-22T07:55:41Z</time>
      </trkpt>
      <trkpt lat="42.4881110" lon="-8.6499780">
        <ele>52.7</ele>
        <time>2021-05-22T07:55:42Z</time>
      </trkpt>
      <trkpt lat="42.4881180" lon="-8.6499770">
        <ele>52.7</ele>
        <time>2021-05-22T07:55:43Z</time>
      </trkpt>
      <trkpt lat="42.4881240" lon="-8.6499770">
        <ele>52.7</ele>
        <time>2021-05-22T07:55:44Z</time>
      </trkpt>
      <trkpt lat="42.4881300" lon="-8.6499770">
        <ele>52.7</ele>
        <time>2021-05-22T07:55:45Z</time>
      </trkpt>
      <trkpt lat="42.4881310" lon="-8.6499750">
        <ele>52.7</ele>
        <time>2021-05-22T07:55:46Z</time>
      </trkpt>
      <trkpt lat="42.4881360" lon="-8.6499850">
        <ele>52.7</ele>
        <time>2021-05-22T07:55:47Z</time>
      </trkpt>
      <trkpt lat="42.4881450" lon="-8.6499810">
        <ele>52.7</ele>
        <time>2021-05-22T07:55:48Z</time>
      </trkpt>
      <trkpt lat="42.4881630" lon="-8.6499800">
        <ele>52.7</ele>
        <time>2021-05-22T07:55:49Z</time>
      </trkpt>
      <trkpt lat="42.4881790" lon="-8.6499830">
        <ele>52.8</ele>
        <time>2021-05-22T07:55:50Z</time>
      </trkpt>
      <trkpt lat="42.4881930" lon="-8.6499830">
        <ele>52.8</ele>
        <time>2021-05-22T07:55:51Z</time>
      </trkpt>
      <trkpt lat="42.4882080" lon="-8.6499800">
        <ele>52.8</ele>
        <time>2021-05-22T07:55:52Z</time>
      </trkpt>
      <trkpt lat="42.4882280" lon="-8.6499820">
        <ele>52.8</ele>
        <time>2021-05-22T07:55:53Z</time>
      </trkpt>
      <trkpt lat="42.4882250" lon="-8.6499840">
        <ele>52.8</ele>
        <time>2021-05-22T07:55:54Z</time>
      </trkpt>
      <trkpt lat="42.4882200" lon="-8.6499760">
        <ele>52.9</ele>
        <time>2021-05-22T07:55:55Z</time>
      </trkpt>
      <trkpt lat="42.4882280" lon="-8.6499790">
        <ele>52.9</ele>
        <time>2021-05-22T07:55:56Z</time>
      </trkpt>
      <trkpt lat="42.4882440" lon="-8.6499930">
        <ele>52.9</ele>
        <time>2021-05-22T07:55:57Z</time>
      </trkpt>
      <trkpt lat="42.4882610" lon="-8.6499900">
        <ele>52.9</ele>
        <time>2021-05-22T07:55:58Z</time>
      </trkpt>
      <trkpt lat="42.4882810" lon="-8.6499920">
        <ele>53.0</ele>
        <time>2021-05-22T07:55:59Z</time>
      </trkpt>
      <trkpt lat="42.4882920" lon="-8.6499960">
        <ele>53.0</ele>
        <time>2021-05-22T07:56:00Z</time>
      </trkpt>
      <trkpt lat="42.4883040" lon="-8.6500000">
        <ele>53.0</ele>
        <time>2021-05-22T07:56:01Z</time>
      </trkpt>
      <trkpt lat="42.4883340" lon="-8.6499950">
        <ele>53.0</ele>
        <time>2021-05-22T07:56:02Z</time>
      </trkpt>
      <trkpt lat="42.4883430" lon="-8.6499950">
        <ele>53.1</ele>
        <time>2021-05-22T07:56:03Z</time>
      </trkpt>
      <trkpt lat="42.4883710" lon="-8.6499860">
        <ele>53.1</ele>
        <time>2021-05-22T07:56:04Z</time>
      </trkpt>
      <trkpt lat="42.4883780" lon="-8.6499800">
        <ele>53.1</ele>
        <time>2021-05-22T07:56:05Z</time>
      </trkpt>
      <trkpt lat="42.4883920" lon="-8.6499640">
        <ele>53.1</ele>
        <time>2021-05-22T07:56:06Z</time>
      </trkpt>
      <trkpt lat="42.4883910" lon="-8.6499640">
        <ele>53.2</ele>
        <time>2021-05-22T07:56:07Z</time>
      </trkpt>
      <trkpt lat="42.4884040" lon="-8.6499620">
        <ele>53.2</ele>
        <time>2021-05-22T07:56:08Z</time>
      </trkpt>
      <trkpt lat="42.4884380" lon="-8.6499580">
        <ele>53.2</ele>
        <time>2021-05-22T07:56:09Z</time>
      </trkpt>
      <trkpt lat="42.4884470" lon="-8.6499590">
        <ele>53.3</ele>
        <time>2021-05-22T07:56:10Z</time>
      </trkpt>
      <trkpt lat="42.4884680" lon="-8.6499570">
        <ele>53.3</ele>
        <time>2021-05-22T07:56:11Z</time>
      </trkpt>
      <trkpt lat="42.4884780" lon="-8.6499550">
        <ele>53.3</ele>
        <time>2021-05-22T07:56:12Z</time>
      </trkpt>
      <trkpt lat="42.4884890" lon="-8.6499530">
        <ele>53.3</ele>
        <time>2021-05-22T07:56:13Z</time>
      </trkpt>
      <trkpt lat="42.4885020" lon="-8.6499550">
        <ele>53.4</ele>
        <time>2021-05-22T07:56:14Z</time>
      </trkpt>
      <trkpt lat="42.4885100" lon="-8.6499610">
        <ele>53.4</ele>
        <time>2021-05-22T07:56:15Z</time>
      </trkpt>
      <trkpt lat="42.4885170" lon="-8.6499680">
        <ele>53.4</ele>
        <time>2021-05-22T07:56:16Z</time>
      </trkpt>
      <trkpt lat="42.4885250" lon="-8.6499740">
        <ele>53.4</ele>
        <time>2021-05-22T07:56:17Z</time>
      </trkpt>
      <trkpt lat="42.4885280" lon="-8.6499630">
        <ele>53.4</ele>
        <time>2021-05-22T07:56:18Z</time>
      </trkpt>
      <trkpt lat="42.4885490" lon="-8.6499580">
        <ele>53.5</ele>
        <time>2021-05-22T07:56:19Z</time>
      </trkpt>
      <trkpt lat="42.4885610" lon="-8.6499440">
        <ele>53.5</ele>
        <time>2021-05-22T07:56:20Z</time>
      </trkpt>
      <trkpt lat="42.4885700" lon="-8.6499340">
        <ele>53.5</ele>
        <time>2021-05-22T07:56:21Z</time>
      </trkpt>
      <trkpt lat="42.4885790" lon="-8.6499250">
        <ele>53.5</ele>
        <time>2021-05-22T07:56:22Z</time>
      </trkpt>
      <trkpt lat="42.4885800" lon="-8.6499270">
        <ele>53.5</ele>
        <time>2021-05-22T07:56:23Z</time>
      </trkpt>
      <trkpt lat="42.4885980" lon="-8.6499270">
        <ele>53.6</ele>
        <time>2021-05-22T07:56:24Z</time>
      </trkpt>
      <trkpt lat="42.4885990" lon="-8.6499210">
        <ele>53.6</ele>
        <time>2021-05-22T07:56:25Z</time>
      </trkpt>
      <trkpt lat="42.4886100" lon="-8.6499170">
        <ele>53.6</ele>
        <time>2021-05-22T07:56:26Z</time>
      </trkpt>
      <trkpt lat="42.4886200" lon="-8.6499190">
        <ele>53.6</ele>
        <time>2021-05-22T07:56:27Z</time>
      </trkpt>
      <trkpt lat="42.4886260" lon="-8.6499230">
        <ele>53.6</ele>
        <time>2021-05-22T07:56:28Z</time>
      </trkpt>
      <trkpt lat="42.4886320" lon="-8.6499120">
        <ele>53.6</ele>
        <time>2021-05-22T07:56:29Z</time>
      </trkpt>
      <trkpt lat="42.4886380" lon="-8.6499090">
        <ele>53.7</ele>
        <time>2021-05-22T07:56:30Z</time>
      </trkpt>
      <trkpt lat="42.4886630" lon="-8.6499010">
        <ele>53.7</ele>
        <time>2021-05-22T07:56:31Z</time>
      </trkpt>
      <trkpt lat="42.4886760" lon="-8.6499030">
        <ele>53.7</ele>
        <time>2021-05-22T07:56:32Z</time>
      </trkpt>
      <trkpt lat="42.4886900" lon="-8.6498960">
        <ele>53.8</ele>
        <time>2021-05-22T07:56:33Z</time>
      </trkpt>
      <trkpt lat="42.4886890" lon="-8.6498870">
        <ele>53.8</ele>
        <time>2021-05-22T07:56:34Z</time>
      </trkpt>
      <trkpt lat="42.4886930" lon="-8.6498910">
        <ele>53.8</ele>
        <time>2021-05-22T07:56:35Z</time>
      </trkpt>
      <trkpt lat="42.4887070" lon="-8.6498890">
        <ele>53.8</ele>
        <time>2021-05-22T07:56:36Z</time>
      </trkpt>
      <trkpt lat="42.4887350" lon="-8.6498980">
        <ele>53.9</ele>
        <time>2021-05-22T07:56:37Z</time>
      </trkpt>
      <trkpt lat="42.4887490" lon="-8.6498920">
        <ele>53.9</ele>
        <time>2021-05-22T07:56:38Z</time>
      </trkpt>
      <trkpt lat="42.4887650" lon="-8.6499000">
        <ele>53.9</ele>
        <time>2021-05-22T07:56:39Z</time>
      </trkpt>
      <trkpt lat="42.4887750" lon="-8.6498920">
        <ele>53.9</ele>
        <time>2021-05-22T07:56:40Z</time>
      </trkpt>
      <trkpt lat="42.4887930" lon="-8.6498890">
        <ele>54.0</ele>
        <time>2021-05-22T07:56:41Z</time>
      </trkpt>
      <trkpt lat="42.4888150" lon="-8.6498510">
        <ele>54.1</ele>
        <time>2021-05-22T07:56:42Z</time>
      </trkpt>
      <trkpt lat="42.4888200" lon="-8.6498370">
        <ele>54.1</ele>
        <time>2021-05-22T07:56:43Z</time>
      </trkpt>
      <trkpt lat="42.4888400" lon="-8.6498210">
        <ele>54.1</ele>
        <time>2021-05-22T07:56:44Z</time>
      </trkpt>
      <trkpt lat="42.4888560" lon="-8.6498240">
        <ele>54.2</ele>
        <time>2021-05-22T07:56:45Z</time>
      </trkpt>
      <trkpt lat="42.4888700" lon="-8.6498290">
        <ele>54.2</ele>
        <time>2021-05-22T07:56:46Z</time>
      </trkpt>
      <trkpt lat="42.4888870" lon="-8.6498270">
        <ele>54.3</ele>
        <time>2021-05-22T07:56:47Z</time>
      </trkpt>
      <trkpt lat="42.4888940" lon="-8.6498220">
        <ele>54.3</ele>
        <time>2021-05-22T07:56:48Z</time>
      </trkpt>
      <trkpt lat="42.4889000" lon="-8.6498170">
        <ele>54.3</ele>
        <time>2021-05-22T07:56:49Z</time>
      </trkpt>
      <trkpt lat="42.4889060" lon="-8.6498120">
        <ele>54.3</ele>
        <time>2021-05-22T07:56:50Z</time>
      </trkpt>
      <trkpt lat="42.4889200" lon="-8.6498010">
        <ele>54.4</ele>
        <time>2021-05-22T07:56:51Z</time>
      </trkpt>
      <trkpt lat="42.4889250" lon="-8.6498020">
        <ele>54.4</ele>
        <time>2021-05-22T07:56:52Z</time>
      </trkpt>
      <trkpt lat="42.4889270" lon="-8.6497930">
        <ele>54.4</ele>
        <time>2021-05-22T07:56:53Z</time>
      </trkpt>
      <trkpt lat="42.4889310" lon="-8.6497860">
        <ele>54.5</ele>
        <time>2021-05-22T07:56:54Z</time>
      </trkpt>
      <trkpt lat="42.4889490" lon="-8.6497760">
        <ele>54.5</ele>
        <time>2021-05-22T07:56:55Z</time>
      </trkpt>
      <trkpt lat="42.4889570" lon="-8.6497740">
        <ele>54.5</ele>
        <time>2021-05-22T07:56:56Z</time>
      </trkpt>
      <trkpt lat="42.4889640" lon="-8.6497730">
        <ele>54.6</ele>
        <time>2021-05-22T07:56:57Z</time>
      </trkpt>
      <trkpt lat="42.4889720" lon="-8.6497710">
        <ele>54.6</ele>
        <time>2021-05-22T07:56:58Z</time>
      </trkpt>
      <trkpt lat="42.4889910" lon="-8.6497640">
        <ele>54.7</ele>
        <time>2021-05-22T07:56:59Z</time>
      </trkpt>
      <trkpt lat="42.4890080" lon="-8.6497660">
        <ele>54.8</ele>
        <time>2021-05-22T07:57:00Z</time>
      </trkpt>
      <trkpt lat="42.4890210" lon="-8.6497710">
        <ele>54.8</ele>
        <time>2021-05-22T07:57:01Z</time>
      </trkpt>
      <trkpt lat="42.4890350" lon="-8.6497670">
        <ele>54.9</ele>
        <time>2021-05-22T07:57:02Z</time>
      </trkpt>
      <trkpt lat="42.4890430" lon="-8.6497690">
        <ele>54.9</ele>
        <time>2021-05-22T07:57:03Z</time>
      </trkpt>
      <trkpt lat="42.4890650" lon="-8.6497730">
        <ele>55.0</ele>
        <time>2021-05-22T07:57:04Z</time>
      </trkpt>
      <trkpt lat="42.4890740" lon="-8.6497740">
        <ele>55.0</ele>
        <time>2021-05-22T07:57:05Z</time>
      </trkpt>
      <trkpt lat="42.4890840" lon="-8.6497760">
        <ele>55.1</ele>
        <time>2021-05-22T07:57:06Z</time>
      </trkpt>
      <trkpt lat="42.4890880" lon="-8.6497650">
        <ele>55.1</ele>
        <time>2021-05-22T07:57:07Z</time>
      </trkpt>
      <trkpt lat="42.4890950" lon="-8.6497600">
        <ele>55.2</ele>
        <time>2021-05-22T07:57:08Z</time>
      </trkpt>
      <trkpt lat="42.4890950" lon="-8.6497500">
        <ele>55.2</ele>
        <time>2021-05-22T07:57:09Z</time>
      </trkpt>
      <trkpt lat="42.4891130" lon="-8.6497540">
        <ele>55.3</ele>
        <time>2021-05-22T07:57:10Z</time>
      </trkpt>
      <trkpt lat="42.4891160" lon="-8.6497450">
        <ele>55.3</ele>
        <time>2021-05-22T07:57:11Z</time>
      </trkpt>
      <trkpt lat="42.4891180" lon="-8.6497260">
        <ele>55.3</ele>
        <time>2021-05-22T07:57:12Z</time>
      </trkpt>
      <trkpt lat="42.4891320" lon="-8.6497120">
        <ele>55.4</ele>
        <time>2021-05-22T07:57:13Z</time>
      </trkpt>
      <trkpt lat="42.4891400" lon="-8.6496830">
        <ele>55.5</ele>
        <time>2021-05-22T07:57:14Z</time>
      </trkpt>
      <trkpt lat="42.4891390" lon="-8.6496760">
        <ele>55.5</ele>
        <time>2021-05-22T07:57:15Z</time>
      </trkpt>
      <trkpt lat="42.4891710" lon="-8.6496620">
        <ele>55.7</ele>
        <time>2021-05-22T07:57:16Z</time>
      </trkpt>
      <trkpt lat="42.4891780" lon="-8.6496590">
        <ele>55.7</ele>
        <time>2021-05-22T07:57:17Z</time>
      </trkpt>
      <trkpt lat="42.4891900" lon="-8.6496590">
        <ele>55.7</ele>
        <time>2021-05-22T07:57:18Z</time>
      </trkpt>
      <trkpt lat="42.4892120" lon="-8.6496650">
        <ele>55.8</ele>
        <time>2021-05-22T07:57:19Z</time>
      </trkpt>
      <trkpt lat="42.4892200" lon="-8.6496660">
        <ele>55.9</ele>
        <time>2021-05-22T07:57:20Z</time>
      </trkpt>
      <trkpt lat="42.4892210" lon="-8.6496690">
        <ele>55.9</ele>
        <time>2021-05-22T07:57:21Z</time>
      </trkpt>
      <trkpt lat="42.4892320" lon="-8.6496680">
        <ele>55.9</ele>
        <time>2021-05-22T07:57:22Z</time>
      </trkpt>
      <trkpt lat="42.4892460" lon="-8.6496590">
        <ele>56.0</ele>
        <time>2021-05-22T07:57:23Z</time>
      </trkpt>
      <trkpt lat="42.4892780" lon="-8.6496620">
        <ele>56.1</ele>
        <time>2021-05-22T07:57:24Z</time>
      </trkpt>
      <trkpt lat="42.4892860" lon="-8.6496650">
        <ele>56.1</ele>
        <time>2021-05-22T07:57:25Z</time>
      </trkpt>
      <trkpt lat="42.4893010" lon="-8.6496480">
        <ele>56.2</ele>
        <time>2021-05-22T07:57:26Z</time>
      </trkpt>
      <trkpt lat="42.4893060" lon="-8.6496400">
        <ele>56.2</ele>
        <time>2021-05-22T07:57:27Z</time>
      </trkpt>
      <trkpt lat="42.4893120" lon="-8.6496330">
        <ele>56.2</ele>
        <time>2021-05-22T07:57:28Z</time>
      </trkpt>
      <trkpt lat="42.4893170" lon="-8.6496250">
        <ele>56.3</ele>
        <time>2021-05-22T07:57:29Z</time>
      </trkpt>
      <trkpt lat="42.4893290" lon="-8.6496050">
        <ele>56.3</ele>
        <time>2021-05-22T07:57:30Z</time>
      </trkpt>
      <trkpt lat="42.4893370" lon="-8.6496020">
        <ele>56.4</ele>
        <time>2021-05-22T07:57:31Z</time>
      </trkpt>
      <trkpt lat="42.4893440" lon="-8.6496000">
        <ele>56.4</ele>
        <time>2021-05-22T07:57:32Z</time>
      </trkpt>
      <trkpt lat="42.4893520" lon="-8.6495970">
        <ele>56.4</ele>
        <time>2021-05-22T07:57:33Z</time>
      </trkpt>
      <trkpt lat="42.4893600" lon="-8.6495950">
        <ele>56.4</ele>
        <time>2021-05-22T07:57:34Z</time>
      </trkpt>
      <trkpt lat="42.4893790" lon="-8.6495970">
        <ele>56.5</ele>
        <time>2021-05-22T07:57:35Z</time>
      </trkpt>
      <trkpt lat="42.4893950" lon="-8.6495820">
        <ele>56.6</ele>
        <time>2021-05-22T07:57:36Z</time>
      </trkpt>
      <trkpt lat="42.4894250" lon="-8.6495860">
        <ele>56.7</ele>
        <time>2021-05-22T07:57:37Z</time>
      </trkpt>
      <trkpt lat="42.4894460" lon="-8.6495650">
        <ele>56.8</ele>
        <time>2021-05-22T07:57:38Z</time>
      </trkpt>
      <trkpt lat="42.4894520" lon="-8.6495510">
        <ele>56.8</ele>
        <time>2021-05-22T07:57:39Z</time>
      </trkpt>
      <trkpt lat="42.4894710" lon="-8.6495320">
        <ele>56.9</ele>
        <time>2021-05-22T07:57:40Z</time>
      </trkpt>
      <trkpt lat="42.4894810" lon="-8.6495250">
        <ele>57.0</ele>
        <time>2021-05-22T07:57:41Z</time>
      </trkpt>
      <trkpt lat="42.4894890" lon="-8.6495120">
        <ele>57.0</ele>
        <time>2021-05-22T07:57:42Z</time>
      </trkpt>
      <trkpt lat="42.4894860" lon="-8.6494960">
        <ele>57.1</ele>
        <time>2021-05-22T07:57:43Z</time>
      </trkpt>
      <trkpt lat="42.4894910" lon="-8.6494870">
        <ele>57.1</ele>
        <time>2021-05-22T07:57:44Z</time>
      </trkpt>
      <trkpt lat="42.4895020" lon="-8.6494710">
        <ele>57.2</ele>
        <time>2021-05-22T07:57:45Z</time>
      </trkpt>
      <trkpt lat="42.4895190" lon="-8.6494580">
        <ele>57.3</ele>
        <time>2021-05-22T07:57:46Z</time>
      </trkpt>
      <trkpt lat="42.4895160" lon="-8.6494460">
        <ele>57.3</ele>
        <time>2021-05-22T07:57:47Z</time>
      </trkpt>
      <trkpt lat="42.4895220" lon="-8.6494350">
        <ele>57.4</ele>
        <time>2021-05-22T07:57:48Z</time>
      </trkpt>
      <trkpt lat="42.4895290" lon="-8.6494210">
        <ele>57.4</ele>
        <time>2021-05-22T07:57:49Z</time>
      </trkpt>
      <trkpt lat="42.4895460" lon="-8.6494200">
        <ele>57.5</ele>
        <time>2021-05-22T07:57:50Z</time>
      </trkpt>
      <trkpt lat="42.4895540" lon="-8.6494140">
        <ele>57.5</ele>
        <time>2021-05-22T07:57:51Z</time>
      </trkpt>
      <trkpt lat="42.4895620" lon="-8.6494070">
        <ele>57.6</ele>
        <time>2021-05-22T07:57:52Z</time>
      </trkpt>
      <trkpt lat="42.4895710" lon="-8.6494010">
        <ele>57.6</ele>
        <time>2021-05-22T07:57:53Z</time>
      </trkpt>
      <trkpt lat="42.4895790" lon="-8.6493950">
        <ele>57.6</ele>
        <time>2021-05-22T07:57:54Z</time>
      </trkpt>
      <trkpt lat="42.4895870" lon="-8.6493890">
        <ele>57.7</ele>
        <time>2021-05-22T07:57:55Z</time>
      </trkpt>
      <trkpt lat="42.4895950" lon="-8.6493820">
        <ele>57.7</ele>
        <time>2021-05-22T07:57:56Z</time>
      </trkpt>
      <trkpt lat="42.4896030" lon="-8.6493760">
        <ele>57.8</ele>
        <time>2021-05-22T07:57:57Z</time>
      </trkpt>
      <trkpt lat="42.4896030" lon="-8.6493690">
        <ele>57.8</ele>
        <time>2021-05-22T07:57:58Z</time>
      </trkpt>
      <trkpt lat="42.4896380" lon="-8.6493830">
        <ele>57.9</ele>
        <time>2021-05-22T07:57:59Z</time>
      </trkpt>
      <trkpt lat="42.4896710" lon="-8.6493830">
        <ele>58.1</ele>
        <time>2021-05-22T07:58:00Z</time>
      </trkpt>
      <trkpt lat="42.4896860" lon="-8.6493810">
        <ele>58.2</ele>
        <time>2021-05-22T07:58:01Z</time>
      </trkpt>
      <trkpt lat="42.4897130" lon="-8.6493840">
        <ele>58.3</ele>
        <time>2021-05-22T07:58:02Z</time>
      </trkpt>
      <trkpt lat="42.4897190" lon="-8.6493830">
        <ele>58.3</ele>
        <time>2021-05-22T07:58:03Z</time>
      </trkpt>
      <trkpt lat="42.4897240" lon="-8.6493810">
        <ele>58.3</ele>
        <time>2021-05-22T07:58:04Z</time>
      </trkpt>
      <trkpt lat="42.4897300" lon="-8.6493800">
        <ele>58.3</ele>
        <time>2021-05-22T07:58:05Z</time>
      </trkpt>
      <trkpt lat="42.4897430" lon="-8.6493650">
        <ele>58.4</ele>
        <time>2021-05-22T07:58:06Z</time>
      </trkpt>
      <trkpt lat="42.4897490" lon="-8.6493580">
        <ele>58.4</ele>
        <time>2021-05-22T07:58:07Z</time>
      </trkpt>
      <trkpt lat="42.4897490" lon="-8.6493430">
        <ele>58.5</ele>
        <time>2021-05-22T07:58:08Z</time>
      </trkpt>
      <trkpt lat="42.4897570" lon="-8.6493370">
        <ele>58.5</ele>
        <time>2021-05-22T07:58:09Z</time>
      </trkpt>
      <trkpt lat="42.4897740" lon="-8.6493320">
        <ele>58.6</ele>
        <time>2021-05-22T07:58:10Z</time>
      </trkpt>
      <trkpt lat="42.4897710" lon="-8.6493230">
        <ele>58.6</ele>
        <time>2021-05-22T07:58:11Z</time>
      </trkpt>
      <trkpt lat="42.4897790" lon="-8.6493180">
        <ele>58.6</ele>
        <time>2021-05-22T07:58:12Z</time>
      </trkpt>
      <trkpt lat="42.4897940" lon="-8.6493230">
        <ele>58.7</ele>
        <time>2021-05-22T07:58:13Z</time>
      </trkpt>
      <trkpt lat="42.4898090" lon="-8.6493200">
        <ele>58.7</ele>
        <time>2021-05-22T07:58:14Z</time>
      </trkpt>
      <trkpt lat="42.4898230" lon="-8.6493040">
        <ele>58.8</ele>
        <time>2021-05-22T07:58:15Z</time>
      </trkpt>
      <trkpt lat="42.4898290" lon="-8.6493090">
        <ele>58.8</ele>
        <time>2021-05-22T07:58:16Z</time>
      </trkpt>
      <trkpt lat="42.4898370" lon="-8.6493090">
        <ele>58.8</ele>
        <time>2021-05-22T07:58:17Z</time>
      </trkpt>
      <trkpt lat="42.4898490" lon="-8.6493130">
        <ele>58.8</ele>
        <time>2021-05-22T07:58:18Z</time>
      </trkpt>
      <trkpt lat="42.4898600" lon="-8.6493120">
        <ele>58.9</ele>
        <time>2021-05-22T07:58:19Z</time>
      </trkpt>
      <trkpt lat="42.4898720" lon="-8.6493100">
        <ele>58.9</ele>
        <time>2021-05-22T07:58:20Z</time>
      </trkpt>
      <trkpt lat="42.4898750" lon="-8.6493030">
        <ele>58.9</ele>
        <time>2021-05-22T07:58:21Z</time>
      </trkpt>
      <trkpt lat="42.4898830" lon="-8.6493060">
        <ele>58.9</ele>
        <time>2021-05-22T07:58:22Z</time>
      </trkpt>
      <trkpt lat="42.4898900" lon="-8.6493070">
        <ele>59.0</ele>
        <time>2021-05-22T07:58:23Z</time>
      </trkpt>
      <trkpt lat="42.4898900" lon="-8.6493030">
        <ele>59.0</ele>
        <time>2021-05-22T07:58:24Z</time>
      </trkpt>
      <trkpt lat="42.4899010" lon="-8.6493090">
        <ele>59.0</ele>
        <time>2021-05-22T07:58:25Z</time>
      </trkpt>
      <trkpt lat="42.4899140" lon="-8.6493160">
        <ele>59.0</ele>
        <time>2021-05-22T07:58:26Z</time>
      </trkpt>
      <trkpt lat="42.4899240" lon="-8.6493170">
        <ele>59.1</ele>
        <time>2021-05-22T07:58:27Z</time>
      </trkpt>
      <trkpt lat="42.4899310" lon="-8.6493210">
        <ele>59.1</ele>
        <time>2021-05-22T07:58:28Z</time>
      </trkpt>
      <trkpt lat="42.4899470" lon="-8.6493280">
        <ele>59.1</ele>
        <time>2021-05-22T07:58:29Z</time>
      </trkpt>
      <trkpt lat="42.4899570" lon="-8.6493390">
        <ele>59.2</ele>
        <time>2021-05-22T07:58:30Z</time>
      </trkpt>
      <trkpt lat="42.4899830" lon="-8.6493560">
        <ele>59.2</ele>
        <time>2021-05-22T07:58:31Z</time>
      </trkpt>
      <trkpt lat="42.4900020" lon="-8.6493490">
        <ele>59.3</ele>
        <time>2021-05-22T07:58:32Z</time>
      </trkpt>
      <trkpt lat="42.4900110" lon="-8.6493470">
        <ele>59.3</ele>
        <time>2021-05-22T07:58:33Z</time>
      </trkpt>
      <trkpt lat="42.4900210" lon="-8.6493460">
        <ele>59.3</ele>
        <time>2021-05-22T07:58:34Z</time>
      </trkpt>
      <trkpt lat="42.4900410" lon="-8.6493470">
        <ele>59.4</ele>
        <time>2021-05-22T07:58:35Z</time>
      </trkpt>
      <trkpt lat="42.4900500" lon="-8.6493420">
        <ele>59.4</ele>
        <time>2021-05-22T07:58:36Z</time>
      </trkpt>
      <trkpt lat="42.4900600" lon="-8.6493380">
        <ele>59.5</ele>
        <time>2021-05-22T07:58:37Z</time>
      </trkpt>
      <trkpt lat="42.4900730" lon="-8.6493350">
        <ele>59.5</ele>
        <time>2021-05-22T07:58:38Z</time>
      </trkpt>
      <trkpt lat="42.4900930" lon="-8.6493340">
        <ele>59.5</ele>
        <time>2021-05-22T07:58:39Z</time>
      </trkpt>
      <trkpt lat="42.4901020" lon="-8.6493230">
        <ele>59.6</ele>
        <time>2021-05-22T07:58:40Z</time>
      </trkpt>
      <trkpt lat="42.4901140" lon="-8.6493090">
        <ele>59.6</ele>
        <time>2021-05-22T07:58:41Z</time>
      </trkpt>
      <trkpt lat="42.4901270" lon="-8.6493090">
        <ele>59.7</ele>
        <time>2021-05-22T07:58:42Z</time>
      </trkpt>
      <trkpt lat="42.4901440" lon="-8.6492970">
        <ele>59.7</ele>
        <time>2021-05-22T07:58:43Z</time>
      </trkpt>
      <trkpt lat="42.4901490" lon="-8.6492870">
        <ele>59.7</ele>
        <time>2021-05-22T07:58:44Z</time>
      </trkpt>
      <trkpt lat="42.4901530" lon="-8.6492880">
        <ele>59.8</ele>
        <time>2021-05-22T07:58:45Z</time>
      </trkpt>
      <trkpt lat="42.4901700" lon="-8.6492900">
        <ele>59.8</ele>
        <time>2021-05-22T07:58:46Z</time>
      </trkpt>
      <trkpt lat="42.4901670" lon="-8.6492850">
        <ele>59.8</ele>
        <time>2021-05-22T07:58:47Z</time>
      </trkpt>
      <trkpt lat="42.4901780" lon="-8.6492890">
        <ele>59.9</ele>
        <time>2021-05-22T07:58:48Z</time>
      </trkpt>
      <trkpt lat="42.4902040" lon="-8.6492950">
        <ele>59.9</ele>
        <time>2021-05-22T07:58:49Z</time>
      </trkpt>
      <trkpt lat="42.4902170" lon="-8.6493000">
        <ele>60.0</ele>
        <time>2021-05-22T07:58:50Z</time>
      </trkpt>
      <trkpt lat="42.4902300" lon="-8.6492930">
        <ele>60.0</ele>
        <time>2021-05-22T07:58:51Z</time>
      </trkpt>
      <trkpt lat="42.4902440" lon="-8.6492850">
        <ele>60.1</ele>
        <time>2021-05-22T07:58:52Z</time>
      </trkpt>
      <trkpt lat="42.4902650" lon="-8.6492840">
        <ele>60.1</ele>
        <time>2021-05-22T07:58:53Z</time>
      </trkpt>
      <trkpt lat="42.4902750" lon="-8.6492830">
        <ele>60.1</ele>
        <time>2021-05-22T07:58:54Z</time>
      </trkpt>
      <trkpt lat="42.4902850" lon="-8.6492820">
        <ele>60.2</ele>
        <time>2021-05-22T07:58:55Z</time>
      </trkpt>
      <trkpt lat="42.4902960" lon="-8.6492790">
        <ele>60.2</ele>
        <time>2021-05-22T07:58:56Z</time>
      </trkpt>
      <trkpt lat="42.4903160" lon="-8.6492760">
        <ele>60.3</ele>
        <time>2021-05-22T07:58:57Z</time>
      </trkpt>
      <trkpt lat="42.4903320" lon="-8.6492710">
        <ele>60.3</ele>
        <time>2021-05-22T07:58:58Z</time>
      </trkpt>
      <trkpt lat="42.4903460" lon="-8.6492520">
        <ele>60.4</ele>
        <time>2021-05-22T07:58:59Z</time>
      </trkpt>
      <trkpt lat="42.4903670" lon="-8.6492440">
        <ele>60.4</ele>
        <time>2021-05-22T07:59:00Z</time>
      </trkpt>
      <trkpt lat="42.4903740" lon="-8.6492390">
        <ele>60.5</ele>
        <time>2021-05-22T07:59:01Z</time>
      </trkpt>
      <trkpt lat="42.4903820" lon="-8.6492350">
        <ele>60.5</ele>
        <time>2021-05-22T07:59:02Z</time>
      </trkpt>
      <trkpt lat="42.4904040" lon="-8.6492210">
        <ele>60.5</ele>
        <time>2021-05-22T07:59:03Z</time>
      </trkpt>
      <trkpt lat="42.4904110" lon="-8.6492140">
        <ele>60.6</ele>
        <time>2021-05-22T07:59:04Z</time>
      </trkpt>
      <trkpt lat="42.4904190" lon="-8.6492060">
        <ele>60.6</ele>
        <time>2021-05-22T07:59:05Z</time>
      </trkpt>
      <trkpt lat="42.4904330" lon="-8.6491960">
        <ele>60.6</ele>
        <time>2021-05-22T07:59:06Z</time>
      </trkpt>
      <trkpt lat="42.4904400" lon="-8.6491970">
        <ele>60.7</ele>
        <time>2021-05-22T07:59:07Z</time>
      </trkpt>
      <trkpt lat="42.4904460" lon="-8.6491980">
        <ele>60.7</ele>
        <time>2021-05-22T07:59:08Z</time>
      </trkpt>
      <trkpt lat="42.4904530" lon="-8.6491990">
        <ele>60.7</ele>
        <time>2021-05-22T07:59:09Z</time>
      </trkpt>
      <trkpt lat="42.4904590" lon="-8.6492000">
        <ele>60.7</ele>
        <time>2021-05-22T07:59:10Z</time>
      </trkpt>
      <trkpt lat="42.4904780" lon="-8.6491910">
        <ele>60.8</ele>
        <time>2021-05-22T07:59:11Z</time>
      </trkpt>
      <trkpt lat="42.4904870" lon="-8.6491870">
        <ele>60.8</ele>
        <time>2021-05-22T07:59:12Z</time>
      </trkpt>
      <trkpt lat="42.4904950" lon="-8.6491830">
        <ele>60.8</ele>
        <time>2021-05-22T07:59:13Z</time>
      </trkpt>
      <trkpt lat="42.4905090" lon="-8.6491890">
        <ele>60.9</ele>
        <time>2021-05-22T07:59:14Z</time>
      </trkpt>
      <trkpt lat="42.4905240" lon="-8.6491890">
        <ele>60.9</ele>
        <time>2021-05-22T07:59:15Z</time>
      </trkpt>
      <trkpt lat="42.4905390" lon="-8.6491900">
        <ele>60.9</ele>
        <time>2021-05-22T07:59:16Z</time>
      </trkpt>
      <trkpt lat="42.4905470" lon="-8.6491920">
        <ele>61.0</ele>
        <time>2021-05-22T07:59:17Z</time>
      </trkpt>
      <trkpt lat="42.4905540" lon="-8.6491950">
        <ele>61.0</ele>
        <time>2021-05-22T07:59:18Z</time>
      </trkpt>
      <trkpt lat="42.4905610" lon="-8.6491970">
        <ele>61.0</ele>
        <time>2021-05-22T07:59:19Z</time>
      </trkpt>
      <trkpt lat="42.4905800" lon="-8.6491910">
        <ele>61.1</ele>
        <time>2021-05-22T07:59:20Z</time>
      </trkpt>
      <trkpt lat="42.4905910" lon="-8.6491920">
        <ele>61.1</ele>
        <time>2021-05-22T07:59:21Z</time>
      </trkpt>
      <trkpt lat="42.4906010" lon="-8.6491920">
        <ele>61.1</ele>
        <time>2021-05-22T07:59:22Z</time>
      </trkpt>
      <trkpt lat="42.4906220" lon="-8.6491950">
        <ele>61.2</ele>
        <time>2021-05-22T07:59:23Z</time>
      </trkpt>
      <trkpt lat="42.4906310" lon="-8.6491930">
        <ele>61.2</ele>
        <time>2021-05-22T07:59:24Z</time>
      </trkpt>
      <trkpt lat="42.4906540" lon="-8.6491910">
        <ele>61.3</ele>
        <time>2021-05-22T07:59:25Z</time>
      </trkpt>
      <trkpt lat="42.4906600" lon="-8.6491890">
        <ele>61.3</ele>
        <time>2021-05-22T07:59:26Z</time>
      </trkpt>
      <trkpt lat="42.4906660" lon="-8.6491860">
        <ele>61.3</ele>
        <time>2021-05-22T07:59:27Z</time>
      </trkpt>
      <trkpt lat="42.4906720" lon="-8.6491840">
        <ele>61.3</ele>
        <time>2021-05-22T07:59:28Z</time>
      </trkpt>
      <trkpt lat="42.4907000" lon="-8.6491840">
        <ele>61.4</ele>
        <time>2021-05-22T07:59:29Z</time>
      </trkpt>
      <trkpt lat="42.4907140" lon="-8.6491840">
        <ele>61.4</ele>
        <time>2021-05-22T07:59:30Z</time>
      </trkpt>
      <trkpt lat="42.4907280" lon="-8.6491830">
        <ele>61.4</ele>
        <time>2021-05-22T07:59:31Z</time>
      </trkpt>
      <trkpt lat="42.4907290" lon="-8.6491710">
        <ele>61.5</ele>
        <time>2021-05-22T07:59:32Z</time>
      </trkpt>
      <trkpt lat="42.4907400" lon="-8.6491740">
        <ele>61.5</ele>
        <time>2021-05-22T07:59:33Z</time>
      </trkpt>
      <trkpt lat="42.4907490" lon="-8.6491820">
        <ele>61.5</ele>
        <time>2021-05-22T07:59:34Z</time>
      </trkpt>
      <trkpt lat="42.4907580" lon="-8.6491820">
        <ele>61.5</ele>
        <time>2021-05-22T07:59:35Z</time>
      </trkpt>
      <trkpt lat="42.4907700" lon="-8.6491750">
        <ele>61.6</ele>
        <time>2021-05-22T07:59:36Z</time>
      </trkpt>
      <trkpt lat="42.4907880" lon="-8.6491750">
        <ele>61.6</ele>
        <time>2021-05-22T07:59:37Z</time>
      </trkpt>
      <trkpt lat="42.4908050" lon="-8.6491700">
        <ele>61.7</ele>
        <time>2021-05-22T07:59:38Z</time>
      </trkpt>
      <trkpt lat="42.4908160" lon="-8.6491640">
        <ele>61.7</ele>
        <time>2021-05-22T07:59:39Z</time>
      </trkpt>
      <trkpt lat="42.4908350" lon="-8.6491500">
        <ele>61.7</ele>
        <time>2021-05-22T07:59:40Z</time>
      </trkpt>
      <trkpt lat="42.4908440" lon="-8.6491430">
        <ele>61.8</ele>
        <time>2021-05-22T07:59:41Z</time>
      </trkpt>
      <trkpt lat="42.4908520" lon="-8.6491350">
        <ele>61.8</ele>
        <time>2021-05-22T07:59:42Z</time>
      </trkpt>
      <trkpt lat="42.4908710" lon="-8.6491230">
        <ele>61.8</ele>
        <time>2021-05-22T07:59:43Z</time>
      </trkpt>
      <trkpt lat="42.4908770" lon="-8.6491150">
        <ele>61.9</ele>
        <time>2021-05-22T07:59:44Z</time>
      </trkpt>
      <trkpt lat="42.4908820" lon="-8.6491060">
        <ele>61.9</ele>
        <time>2021-05-22T07:59:45Z</time>
      </trkpt>
      <trkpt lat="42.4909060" lon="-8.6491050">
        <ele>61.9</ele>
        <time>2021-05-22T07:59:46Z</time>
      </trkpt>
      <trkpt lat="42.4909120" lon="-8.6491030">
        <ele>62.0</ele>
        <time>2021-05-22T07:59:47Z</time>
      </trkpt>
      <trkpt lat="42.4909190" lon="-8.6491020">
        <ele>62.0</ele>
        <time>2021-05-22T07:59:48Z</time>
      </trkpt>
      <trkpt lat="42.4909250" lon="-8.6490960">
        <ele>62.0</ele>
        <time>2021-05-22T07:59:49Z</time>
      </trkpt>
      <trkpt lat="42.4909390" lon="-8.6490850">
        <ele>62.1</ele>
        <time>2021-05-22T07:59:50Z</time>
      </trkpt>
      <trkpt lat="42.4909500" lon="-8.6490840">
        <ele>62.1</ele>
        <time>2021-05-22T07:59:51Z</time>
      </trkpt>
      <trkpt lat="42.4909550" lon="-8.6490810">
        <ele>62.2</ele>
        <time>2021-05-22T07:59:52Z</time>
      </trkpt>
      <trkpt lat="42.4909650" lon="-8.6490830">
        <ele>62.2</ele>
        <time>2021-05-22T07:59:53Z</time>
      </trkpt>
      <trkpt lat="42.4909740" lon="-8.6490630">
        <ele>62.3</ele>
        <time>2021-05-22T07:59:54Z</time>
      </trkpt>
      <trkpt lat="42.4909830" lon="-8.6490500">
        <ele>62.4</ele>
        <time>2021-05-22T07:59:55Z</time>
      </trkpt>
      <trkpt lat="42.4910000" lon="-8.6490430">
        <ele>62.4</ele>
        <time>2021-05-22T07:59:56Z</time>
      </trkpt>
      <trkpt lat="42.4910100" lon="-8.6490450">
        <ele>62.5</ele>
        <time>2021-05-22T07:59:57Z</time>
      </trkpt>
      <trkpt lat="42.4910200" lon="-8.6490380">
        <ele>62.6</ele>
        <time>2021-05-22T07:59:58Z</time>
      </trkpt>
      <trkpt lat="42.4910280" lon="-8.6490240">
        <ele>62.6</ele>
        <time>2021-05-22T07:59:59Z</time>
      </trkpt>
      <trkpt lat="42.4910480" lon="-8.6490100">
        <ele>62.8</ele>
        <time>2021-05-22T08:00:00Z</time>
      </trkpt>
      <trkpt lat="42.4910600" lon="-8.6490050">
        <ele>62.9</ele>
        <time>2021-05-22T08:00:01Z</time>
      </trkpt>
      <trkpt lat="42.4910710" lon="-8.6489990">
        <ele>62.9</ele>
        <time>2021-05-22T08:00:02Z</time>
      </trkpt>
      <trkpt lat="42.4910830" lon="-8.6489980">
        <ele>63.0</ele>
        <time>2021-05-22T08:00:03Z</time>
      </trkpt>
      <trkpt lat="42.4910900" lon="-8.6489990">
        <ele>63.1</ele>
        <time>2021-05-22T08:00:04Z</time>
      </trkpt>
      <trkpt lat="42.4910980" lon="-8.6490030">
        <ele>63.1</ele>
        <time>2021-05-22T08:00:05Z</time>
      </trkpt>
      <trkpt lat="42.4911120" lon="-8.6490070">
        <ele>63.2</ele>
        <time>2021-05-22T08:00:06Z</time>
      </trkpt>
      <trkpt lat="42.4911210" lon="-8.6490050">
        <ele>63.3</ele>
        <time>2021-05-22T08:00:07Z</time>
      </trkpt>
      <trkpt lat="42.4911290" lon="-8.6489970">
        <ele>63.4</ele>
        <time>2021-05-22T08:00:08Z</time>
      </trkpt>
      <trkpt lat="42.4911440" lon="-8.6489960">
        <ele>63.5</ele>
        <time>2021-05-22T08:00:09Z</time>
      </trkpt>
      <trkpt lat="42.4911560" lon="-8.6489970">
        <ele>63.5</ele>
        <time>2021-05-22T08:00:10Z</time>
      </trkpt>
      <trkpt lat="42.4911670" lon="-8.6489990">
        <ele>63.6</ele>
        <time>2021-05-22T08:00:11Z</time>
      </trkpt>
      <trkpt lat="42.4911790" lon="-8.6490030">
        <ele>63.7</ele>
        <time>2021-05-22T08:00:12Z</time>
      </trkpt>
      <trkpt lat="42.4911850" lon="-8.6490050">
        <ele>63.8</ele>
        <time>2021-05-22T08:00:13Z</time>
      </trkpt>
      <trkpt lat="42.4911960" lon="-8.6490090">
        <ele>63.8</ele>
        <time>2021-05-22T08:00:14Z</time>
      </trkpt>
      <trkpt lat="42.4912130" lon="-8.6490040">
        <ele>64.0</ele>
        <time>2021-05-22T08:00:15Z</time>
      </trkpt>
      <trkpt lat="42.4912150" lon="-8.6489970">
        <ele>64.0</ele>
        <time>2021-05-22T08:00:16Z</time>
      </trkpt>
      <trkpt lat="42.4912160" lon="-8.6489850">
        <ele>64.1</ele>
        <time>2021-05-22T08:00:17Z</time>
      </trkpt>
      <trkpt lat="42.4912220" lon="-8.6489850">
        <ele>64.1</ele>
        <time>2021-05-22T08:00:18Z</time>
      </trkpt>
      <trkpt lat="42.4912280" lon="-8.6489710">
        <ele>64.2</ele>
        <time>2021-05-22T08:00:19Z</time>
      </trkpt>
      <trkpt lat="42.4912380" lon="-8.6489510">
        <ele>64.3</ele>
        <time>2021-05-22T08:00:20Z</time>
      </trkpt>
      <trkpt lat="42.4912610" lon="-8.6489270">
        <ele>64.5</ele>
        <time>2021-05-22T08:00:21Z</time>
      </trkpt>
      <trkpt lat="42.4912690" lon="-8.6489230">
        <ele>64.6</ele>
        <time>2021-05-22T08:00:22Z</time>
      </trkpt>
      <trkpt lat="42.4912820" lon="-8.6489160">
        <ele>64.7</ele>
        <time>2021-05-22T08:00:23Z</time>
      </trkpt>
      <trkpt lat="42.4912940" lon="-8.6489060">
        <ele>64.8</ele>
        <time>2021-05-22T08:00:24Z</time>
      </trkpt>
      <trkpt lat="42.4912950" lon="-8.6489050">
        <ele>64.8</ele>
        <time>2021-05-22T08:00:25Z</time>
      </trkpt>
      <trkpt lat="42.4912990" lon="-8.6488970">
        <ele>64.9</ele>
        <time>2021-05-22T08:00:26Z</time>
      </trkpt>
      <trkpt lat="42.4913150" lon="-8.6488970">
        <ele>65.0</ele>
        <time>2021-05-22T08:00:27Z</time>
      </trkpt>
      <trkpt lat="42.4913270" lon="-8.6488930">
        <ele>65.1</ele>
        <time>2021-05-22T08:00:28Z</time>
      </trkpt>
      <trkpt lat="42.4913380" lon="-8.6488860">
        <ele>65.1</ele>
        <time>2021-05-22T08:00:29Z</time>
      </trkpt>
      <trkpt lat="42.4913440" lon="-8.6488800">
        <ele>65.2</ele>
        <time>2021-05-22T08:00:30Z</time>
      </trkpt>
      <trkpt lat="42.4913560" lon="-8.6488740">
        <ele>65.3</ele>
        <time>2021-05-22T08:00:31Z</time>
      </trkpt>
      <trkpt lat="42.4913730" lon="-8.6488760">
        <ele>65.4</ele>
        <time>2021-05-22T08:00:32Z</time>
      </trkpt>
      <trkpt lat="42.4913830" lon="-8.6488750">
        <ele>65.5</ele>
        <time>2021-05-22T08:00:33Z</time>
      </trkpt>
      <trkpt lat="42.4914080" lon="-8.6488620">
        <ele>65.7</ele>
        <time>2021-05-22T08:00:34Z</time>
      </trkpt>
      <trkpt lat="42.4914180" lon="-8.6488530">
        <ele>65.8</ele>
        <time>2021-05-22T08:00:35Z</time>
      </trkpt>
      <trkpt lat="42.4914270" lon="-8.6488430">
        <ele>65.8</ele>
        <time>2021-05-22T08:00:36Z</time>
      </trkpt>
      <trkpt lat="42.4914430" lon="-8.6488360">
        <ele>66.0</ele>
        <time>2021-05-22T08:00:37Z</time>
      </trkpt>
      <trkpt lat="42.4914620" lon="-8.6488270">
        <ele>66.1</ele>
        <time>2021-05-22T08:00:38Z</time>
      </trkpt>
      <trkpt lat="42.4914710" lon="-8.6488230">
        <ele>66.2</ele>
        <time>2021-05-22T08:00:39Z</time>
      </trkpt>
      <trkpt lat="42.4914860" lon="-8.6488240">
        <ele>66.3</ele>
        <time>2021-05-22T08:00:40Z</time>
      </trkpt>
      <trkpt lat="42.4914990" lon="-8.6488200">
        <ele>66.4</ele>
        <time>2021-05-22T08:00:41Z</time>
      </trkpt>
      <trkpt lat="42.4915120" lon="-8.6488160">
        <ele>66.5</ele>
        <time>2021-05-22T08:00:42Z</time>
      </trkpt>
      <trkpt lat="42.4915260" lon="-8.6488090">
        <ele>66.6</ele>
        <time>2021-05-22T08:00:43Z</time>
      </trkpt>
      <trkpt lat="42.4915420" lon="-8.6488110">
        <ele>66.7</ele>
        <time>2021-05-22T08:00:44Z</time>
      </trkpt>
      <trkpt lat="42.4915580" lon="-8.6488030">
        <ele>66.8</ele>
        <time>2021-05-22T08:00:45Z</time>
      </trkpt>
      <trkpt lat="42.4915670" lon="-8.6487920">
        <ele>66.9</ele>
        <time>2021-05-22T08:00:46Z</time>
      </trkpt>
      <trkpt lat="42.4915700" lon="-8.6487910">
        <ele>66.9</ele>
        <time>2021-05-22T08:00:47Z</time>
      </trkpt>
      <trkpt lat="42.4915750" lon="-8.6487760">
        <ele>67.0</ele>
        <time>2021-05-22T08:00:48Z</time>
      </trkpt>
      <trkpt lat="42.4915750" lon="-8.6487740">
        <ele>67.0</ele>
        <time>2021-05-22T08:00:49Z</time>
      </trkpt>
      <trkpt lat="42.4915880" lon="-8.6487670">
        <ele>67.1</ele>
        <time>2021-05-22T08:00:50Z</time>
      </trkpt>
      <trkpt lat="42.4916010" lon="-8.6487680">
        <ele>67.2</ele>
        <time>2021-05-22T08:00:51Z</time>
      </trkpt>
      <trkpt lat="42.4916100" lon="-8.6487710">
        <ele>67.2</ele>
        <time>2021-05-22T08:00:52Z</time>
      </trkpt>
      <trkpt lat="42.4916210" lon="-8.6487700">
        <ele>67.3</ele>
        <time>2021-05-22T08:00:53Z</time>
      </trkpt>
      <trkpt lat="42.4916340" lon="-8.6487730">
        <ele>67.4</ele>
        <time>2021-05-22T08:00:54Z</time>
      </trkpt>
      <trkpt lat="42.4916560" lon="-8.6487780">
        <ele>67.6</ele>
        <time>2021-05-22T08:00:55Z</time>
      </trkpt>
      <trkpt lat="42.4916750" lon="-8.6487700">
        <ele>67.8</ele>
        <time>2021-05-22T08:00:56Z</time>
      </trkpt>
      <trkpt lat="42.4916820" lon="-8.6487580">
        <ele>67.8</ele>
        <time>2021-05-22T08:00:57Z</time>
      </trkpt>
      <trkpt lat="42.4916820" lon="-8.6487530">
        <ele>67.9</ele>
        <time>2021-05-22T08:00:58Z</time>
      </trkpt>
      <trkpt lat="42.4916780" lon="-8.6487420">
        <ele>67.9</ele>
        <time>2021-05-22T08:00:59Z</time>
      </trkpt>
      <trkpt lat="42.4916840" lon="-8.6487410">
        <ele>68.0</ele>
        <time>2021-05-22T08:01:00Z</time>
      </trkpt>
      <trkpt lat="42.4917000" lon="-8.6487420">
        <ele>68.1</ele>
        <time>2021-05-22T08:01:01Z</time>
      </trkpt>
      <trkpt lat="42.4917090" lon="-8.6487380">
        <ele>68.2</ele>
        <time>2021-05-22T08:01:02Z</time>
      </trkpt>
      <trkpt lat="42.4917310" lon="-8.6487150">
        <ele>68.5</ele>
        <time>2021-05-22T08:01:03Z</time>
      </trkpt>
      <trkpt lat="42.4917390" lon="-8.6487030">
        <ele>68.6</ele>
        <time>2021-05-22T08:01:04Z</time>
      </trkpt>
      <trkpt lat="42.4917590" lon="-8.6486880">
        <ele>68.8</ele>
        <time>2021-05-22T08:01:05Z</time>
      </trkpt>
      <trkpt lat="42.4917650" lon="-8.6486790">
        <ele>68.9</ele>
        <time>2021-05-22T08:01:06Z</time>
      </trkpt>
      <trkpt lat="42.4917700" lon="-8.6486700">
        <ele>68.9</ele>
        <time>2021-05-22T08:01:07Z</time>
      </trkpt>
      <trkpt lat="42.4917760" lon="-8.6486610">
        <ele>69.0</ele>
        <time>2021-05-22T08:01:08Z</time>
      </trkpt>
      <trkpt lat="42.4918040" lon="-8.6486580">
        <ele>69.3</ele>
        <time>2021-05-22T08:01:09Z</time>
      </trkpt>
      <trkpt lat="42.4918210" lon="-8.6486580">
        <ele>69.5</ele>
        <time>2021-05-22T08:01:10Z</time>
      </trkpt>
      <trkpt lat="42.4918300" lon="-8.6486460">
        <ele>69.6</ele>
        <time>2021-05-22T08:01:11Z</time>
      </trkpt>
      <trkpt lat="42.4918440" lon="-8.6486320">
        <ele>69.8</ele>
        <time>2021-05-22T08:01:12Z</time>
      </trkpt>
      <trkpt lat="42.4918520" lon="-8.6486300">
        <ele>69.9</ele>
        <time>2021-05-22T08:01:13Z</time>
      </trkpt>
      <trkpt lat="42.4918590" lon="-8.6486280">
        <ele>69.9</ele>
        <time>2021-05-22T08:01:14Z</time>
      </trkpt>
      <trkpt lat="42.4918670" lon="-8.6486260">
        <ele>70.0</ele>
        <time>2021-05-22T08:01:15Z</time>
      </trkpt>
      <trkpt lat="42.4918780" lon="-8.6486200">
        <ele>70.1</ele>
        <time>2021-05-22T08:01:16Z</time>
      </trkpt>
      <trkpt lat="42.4918810" lon="-8.6486140">
        <ele>70.2</ele>
        <time>2021-05-22T08:01:17Z</time>
      </trkpt>
      <trkpt lat="42.4918880" lon="-8.6486060">
        <ele>70.3</ele>
        <time>2021-05-22T08:01:18Z</time>
      </trkpt>
      <trkpt lat="42.4918980" lon="-8.6486040">
        <ele>70.4</ele>
        <time>2021-05-22T08:01:19Z</time>
      </trkpt>
      <trkpt lat="42.4918980" lon="-8.6485940">
        <ele>70.4</ele>
        <time>2021-05-22T08:01:20Z</time>
      </trkpt>
      <trkpt lat="42.4919090" lon="-8.6485900">
        <ele>70.6</ele>
        <time>2021-05-22T08:01:21Z</time>
      </trkpt>
      <trkpt lat="42.4919240" lon="-8.6485850">
        <ele>70.7</ele>
        <time>2021-05-22T08:01:22Z</time>
      </trkpt>
      <trkpt lat="42.4919310" lon="-8.6485780">
        <ele>70.8</ele>
        <time>2021-05-22T08:01:23Z</time>
      </trkpt>
      <trkpt lat="42.4919380" lon="-8.6485740">
        <ele>70.9</ele>
        <time>2021-05-22T08:01:24Z</time>
      </trkpt>
      <trkpt lat="42.4919440" lon="-8.6485710">
        <ele>70.9</ele>
        <time>2021-05-22T08:01:25Z</time>
      </trkpt>
      <trkpt lat="42.4919550" lon="-8.6485750">
        <ele>71.0</ele>
        <time>2021-05-22T08:01:26Z</time>
      </trkpt>
      <trkpt lat="42.4919620" lon="-8.6485760">
        <ele>71.1</ele>
        <time>2021-05-22T08:01:27Z</time>
      </trkpt>
      <trkpt lat="42.4919650" lon="-8.6485790">
        <ele>71.1</ele>
        <time>2021-05-22T08:01:28Z</time>
      </trkpt>
      <trkpt lat="42.4919830" lon="-8.6485760">
        <ele>71.3</ele>
        <time>2021-05-22T08:01:29Z</time>
      </trkpt>
      <trkpt lat="42.4919880" lon="-8.6485710">
        <ele>71.4</ele>
        <time>2021-05-22T08:01:30Z</time>
      </trkpt>
      <trkpt lat="42.4920050" lon="-8.6485650">
        <ele>71.5</ele>
        <time>2021-05-22T08:01:31Z</time>
      </trkpt>
      <trkpt lat="42.4920140" lon="-8.6485620">
        <ele>71.6</ele>
        <time>2021-05-22T08:01:32Z</time>
      </trkpt>
      <trkpt lat="42.4920320" lon="-8.6485690">
        <ele>71.7</ele>
        <time>2021-05-22T08:01:33Z</time>
      </trkpt>
      <trkpt lat="42.4920420" lon="-8.6485640">
        <ele>71.8</ele>
        <time>2021-05-22T08:01:34Z</time>
      </trkpt>
      <trkpt lat="42.4920460" lon="-8.6485580">
        <ele>71.9</ele>
        <time>2021-05-22T08:01:35Z</time>
      </trkpt>
      <trkpt lat="42.4920550" lon="-8.6485480">
        <ele>72.0</ele>
        <time>2021-05-22T08:01:36Z</time>
      </trkpt>
      <trkpt lat="42.4920640" lon="-8.6485390">
        <ele>72.1</ele>
        <time>2021-05-22T08:01:37Z</time>
      </trkpt>
      <trkpt lat="42.4920720" lon="-8.6485370">
        <ele>72.1</ele>
        <time>2021-05-22T08:01:38Z</time>
      </trkpt>
      <trkpt lat="42.4920870" lon="-8.6485280">
        <ele>72.2</ele>
        <time>2021-05-22T08:01:39Z</time>
      </trkpt>
      <trkpt lat="42.4920980" lon="-8.6485330">
        <ele>72.3</ele>
        <time>2021-05-22T08:01:40Z</time>
      </trkpt>
      <trkpt lat="42.4921100" lon="-8.6485310">
        <ele>72.4</ele>
        <time>2021-05-22T08:01:41Z</time>
      </trkpt>
      <trkpt lat="42.4921230" lon="-8.6485390">
        <ele>72.5</ele>
        <time>2021-05-22T08:01:42Z</time>
      </trkpt>
      <trkpt lat="42.4921300" lon="-8.6485410">
        <ele>72.5</ele>
        <time>2021-05-22T08:01:43Z</time>
      </trkpt>
      <trkpt lat="42.4921390" lon="-8.6485380">
        <ele>72.6</ele>
        <time>2021-05-22T08:01:44Z</time>
      </trkpt>
      <trkpt lat="42.4921560" lon="-8.6485420">
        <ele>72.7</ele>
        <time>2021-05-22T08:01:45Z</time>
      </trkpt>
      <trkpt lat="42.4921600" lon="-8.6485440">
        <ele>72.7</ele>
        <time>2021-05-22T08:01:46Z</time>
      </trkpt>
      <trkpt lat="42.4921810" lon="-8.6485380">
        <ele>72.9</ele>
        <time>2021-05-22T08:01:47Z</time>
      </trkpt>
      <trkpt lat="42.4921890" lon="-8.6485350">
        <ele>72.9</ele>
        <time>2021-05-22T08:01:48Z</time>
      </trkpt>
      <trkpt lat="42.4921980" lon="-8.6485310">
        <ele>73.0</ele>
        <time>2021-05-22T08:01:49Z</time>
      </trkpt>
      <trkpt lat="42.4922130" lon="-8.6485160">
        <ele>73.1</ele>
        <time>2021-05-22T08:01:50Z</time>
      </trkpt>
      <trkpt lat="42.4922210" lon="-8.6485150">
        <ele>73.1</ele>
        <time>2021-05-22T08:01:51Z</time>
      </trkpt>
      <trkpt lat="42.4922280" lon="-8.6485150">
        <ele>73.1</ele>
        <time>2021-05-22T08:01:52Z</time>
      </trkpt>
      <trkpt lat="42.4922350" lon="-8.6485140">
        <ele>73.2</ele>
        <time>2021-05-22T08:01:53Z</time>
      </trkpt>
      <trkpt lat="42.4922520" lon="-8.6485020">
        <ele>73.2</ele>
        <time>2021-05-22T08:01:54Z</time>
      </trkpt>
      <trkpt lat="42.4922660" lon="-8.6484970">
        <ele>73.3</ele>
        <time>2021-05-22T08:01:55Z</time>
      </trkpt>
      <trkpt lat="42.4922800" lon="-8.6484910">
        <ele>73.4</ele>
        <time>2021-05-22T08:01:56Z</time>
      </trkpt>
      <trkpt lat="42.4922730" lon="-8.6484880">
        <ele>73.4</ele>
        <time>2021-05-22T08:01:57Z</time>
      </trkpt>
      <trkpt lat="42.4922710" lon="-8.6484870">
        <ele>73.4</ele>
        <time>2021-05-22T08:01:58Z</time>
      </trkpt>
      <trkpt lat="42.4922640" lon="-8.6484780">
        <ele>73.5</ele>
        <time>2021-05-22T08:01:59Z</time>
      </trkpt>
      <trkpt lat="42.4922700" lon="-8.6484630">
        <ele>73.5</ele>
        <time>2021-05-22T08:02:00Z</time>
      </trkpt>
      <trkpt lat="42.4922890" lon="-8.6484660">
        <ele>73.6</ele>
        <time>2021-05-22T08:02:01Z</time>
      </trkpt>
      <trkpt lat="42.4923000" lon="-8.6484700">
        <ele>73.6</ele>
        <time>2021-05-22T08:02:02Z</time>
      </trkpt>
      <trkpt lat="42.4923060" lon="-8.6484670">
        <ele>73.6</ele>
        <time>2021-05-22T08:02:03Z</time>
      </trkpt>
      <trkpt lat="42.4923210" lon="-8.6484660">
        <ele>73.7</ele>
        <time>2021-05-22T08:02:04Z</time>
      </trkpt>
      <trkpt lat="42.4923300" lon="-8.6484640">
        <ele>73.7</ele>
        <time>2021-05-22T08:02:05Z</time>
      </trkpt>
      <trkpt lat="42.4923350" lon="-8.6484690">
        <ele>73.7</ele>
        <time>2021-05-22T08:02:06Z</time>
      </trkpt>
      <trkpt lat="42.4923440" lon="-8.6484730">
        <ele>73.8</ele>
        <time>2021-05-22T08:02:07Z</time>
      </trkpt>
      <trkpt lat="42.4923500" lon="-8.6484720">
        <ele>73.8</ele>
        <time>2021-05-22T08:02:08Z</time>
      </trkpt>
      <trkpt lat="42.4923610" lon="-8.6484750">
        <ele>73.8</ele>
        <time>2021-05-22T08:02:09Z</time>
      </trkpt>
      <trkpt lat="42.4923640" lon="-8.6484770">
        <ele>73.8</ele>
        <time>2021-05-22T08:02:10Z</time>
      </trkpt>
      <trkpt lat="42.4923720" lon="-8.6484760">
        <ele>73.8</ele>
        <time>2021-05-22T08:02:11Z</time>
      </trkpt>
      <trkpt lat="42.4923920" lon="-8.6484700">
        <ele>73.9</ele>
        <time>2021-05-22T08:02:12Z</time>
      </trkpt>
      <trkpt lat="42.4924200" lon="-8.6484620">
        <ele>74.0</ele>
        <time>2021-05-22T08:02:13Z</time>
      </trkpt>
      <trkpt lat="42.4924290" lon="-8.6484610">
        <ele>74.0</ele>
        <time>2021-05-22T08:02:14Z</time>
      </trkpt>
      <trkpt lat="42.4924440" lon="-8.6484650">
        <ele>74.0</ele>
        <time>2021-05-22T08:02:15Z</time>
      </trkpt>
      <trkpt lat="42.4924600" lon="-8.6484690">
        <ele>74.1</ele>
        <time>2021-05-22T08:02:16Z</time>
      </trkpt>
      <trkpt lat="42.4924770" lon="-8.6484640">
        <ele>74.1</ele>
        <time>2021-05-22T08:02:17Z</time>
      </trkpt>
      <trkpt lat="42.4924870" lon="-8.6484630">
        <ele>74.1</ele>
        <time>2021-05-22T08:02:18Z</time>
      </trkpt>
      <trkpt lat="42.4924980" lon="-8.6484610">
        <ele>74.2</ele>
        <time>2021-05-22T08:02:19Z</time>
      </trkpt>
      <trkpt lat="42.4925170" lon="-8.6484610">
        <ele>74.2</ele>
        <time>2021-05-22T08:02:20Z</time>
      </trkpt>
      <trkpt lat="42.4925220" lon="-8.6484560">
        <ele>74.2</ele>
        <time>2021-05-22T08:02:21Z</time>
      </trkpt>
      <trkpt lat="42.4925330" lon="-8.6484540">
        <ele>74.3</ele>
        <time>2021-05-22T08:02:22Z</time>
      </trkpt>
      <trkpt lat="42.4925460" lon="-8.6484520">
        <ele>74.3</ele>
        <time>2021-05-22T08:02:23Z</time>
      </trkpt>
      <trkpt lat="42.4925610" lon="-8.6484500">
        <ele>74.3</ele>
        <time>2021-05-22T08:02:24Z</time>
      </trkpt>
      <trkpt lat="42.4925790" lon="-8.6484550">
        <ele>74.3</ele>
        <time>2021-05-22T08:02:25Z</time>
      </trkpt>
      <trkpt lat="42.4925910" lon="-8.6484650">
        <ele>74.4</ele>
        <time>2021-05-22T08:02:26Z</time>
      </trkpt>
      <trkpt lat="42.4926010" lon="-8.6484630">
        <ele>74.4</ele>
        <time>2021-05-22T08:02:27Z</time>
      </trkpt>
      <trkpt lat="42.4925980" lon="-8.6484660">
        <ele>74.4</ele>
        <time>2021-05-22T08:02:28Z</time>
      </trkpt>
      <trkpt lat="42.4926060" lon="-8.6484640">
        <ele>74.4</ele>
        <time>2021-05-22T08:02:29Z</time>
      </trkpt>
      <trkpt lat="42.4926200" lon="-8.6484610">
        <ele>74.5</ele>
        <time>2021-05-22T08:02:30Z</time>
      </trkpt>
      <trkpt lat="42.4926400" lon="-8.6484620">
        <ele>74.5</ele>
        <time>2021-05-22T08:02:31Z</time>
      </trkpt>
      <trkpt lat="42.4926580" lon="-8.6484580">
        <ele>74.5</ele>
        <time>2021-05-22T08:02:32Z</time>
      </trkpt>
      <trkpt lat="42.4926660" lon="-8.6484590">
        <ele>74.6</ele>
        <time>2021-05-22T08:02:33Z</time>
      </trkpt>
      <trkpt lat="42.4926750" lon="-8.6484610">
        <ele>74.6</ele>
        <time>2021-05-22T08:02:34Z</time>
      </trkpt>
      <trkpt lat="42.4926830" lon="-8.6484630">
        <ele>74.6</ele>
        <time>2021-05-22T08:02:35Z</time>
      </trkpt>
      <trkpt lat="42.4927120" lon="-8.6484600">
        <ele>74.6</ele>
        <time>2021-05-22T08:02:36Z</time>
      </trkpt>
      <trkpt lat="42.4927210" lon="-8.6484560">
        <ele>74.7</ele>
        <time>2021-05-22T08:02:37Z</time>
      </trkpt>
      <trkpt lat="42.4927480" lon="-8.6484610">
        <ele>74.7</ele>
        <time>2021-05-22T08:02:38Z</time>
      </trkpt>
      <trkpt lat="42.4927590" lon="-8.6484650">
        <ele>74.7</ele>
        <time>2021-05-22T08:02:39Z</time>
      </trkpt>
      <trkpt lat="42.4927710" lon="-8.6484680">
        <ele>74.8</ele>
        <time>2021-05-22T08:02:40Z</time>
      </trkpt>
      <trkpt lat="42.4927790" lon="-8.6484760">
        <ele>74.8</ele>
        <time>2021-05-22T08:02:41Z</time>
      </trkpt>
      <trkpt lat="42.4927930" lon="-8.6484770">
        <ele>74.8</ele>
        <time>2021-05-22T08:02:42Z</time>
      </trkpt>
      <trkpt lat="42.4928020" lon="-8.6484790">
        <ele>74.8</ele>
        <time>2021-05-22T08:02:43Z</time>
      </trkpt>
      <trkpt lat="42.4928160" lon="-8.6484730">
        <ele>74.9</ele>
        <time>2021-05-22T08:02:44Z</time>
      </trkpt>
      <trkpt lat="42.4928290" lon="-8.6484750">
        <ele>74.9</ele>
        <time>2021-05-22T08:02:45Z</time>
      </trkpt>
      <trkpt lat="42.4928420" lon="-8.6484700">
        <ele>74.9</ele>
        <time>2021-05-22T08:02:46Z</time>
      </trkpt>
      <trkpt lat="42.4928520" lon="-8.6484680">
        <ele>75.0</ele>
        <time>2021-05-22T08:02:47Z</time>
      </trkpt>
      <trkpt lat="42.4928610" lon="-8.6484660">
        <ele>75.0</ele>
        <time>2021-05-22T08:02:48Z</time>
      </trkpt>
      <trkpt lat="42.4928700" lon="-8.6484640">
        <ele>75.0</ele>
        <time>2021-05-22T08:02:49Z</time>
      </trkpt>
      <trkpt lat="42.4928910" lon="-8.6484730">
        <ele>75.0</ele>
        <time>2021-05-22T08:02:50Z</time>
      </trkpt>
      <trkpt lat="42.4929050" lon="-8.6484750">
        <ele>75.1</ele>
        <time>2021-05-22T08:02:51Z</time>
      </trkpt>
      <trkpt lat="42.4929230" lon="-8.6484800">
        <ele>75.1</ele>
        <time>2021-05-22T08:02:52Z</time>
      </trkpt>
      <trkpt lat="42.4929360" lon="-8.6484810">
        <ele>75.2</ele>
        <time>2021-05-22T08:02:53Z</time>
      </trkpt>
      <trkpt lat="42.4929490" lon="-8.6484890">
        <ele>75.2</ele>
        <time>2021-05-22T08:02:54Z</time>
      </trkpt>
      <trkpt lat="42.4929580" lon="-8.6484830">
        <ele>75.2</ele>
        <time>2021-05-22T08:02:55Z</time>
      </trkpt>
      <trkpt lat="42.4929700" lon="-8.6484810">
        <ele>75.2</ele>
        <time>2021-05-22T08:02:56Z</time>
      </trkpt>
      <trkpt lat="42.4929850" lon="-8.6484750">
        <ele>75.3</ele>
        <time>2021-05-22T08:02:57Z</time>
      </trkpt>
      <trkpt lat="42.4930000" lon="-8.6484720">
        <ele>75.3</ele>
        <time>2021-05-22T08:02:58Z</time>
      </trkpt>
      <trkpt lat="42.4930200" lon="-8.6484660">
        <ele>75.4</ele>
        <time>2021-05-22T08:02:59Z</time>
      </trkpt>
      <trkpt lat="42.4930290" lon="-8.6484630">
        <ele>75.4</ele>
        <time>2021-05-22T08:03:00Z</time>
      </trkpt>
      <trkpt lat="42.4930380" lon="-8.6484590">
        <ele>75.4</ele>
        <time>2021-05-22T08:03:01Z</time>
      </trkpt>
      <trkpt lat="42.4930400" lon="-8.6484570">
        <ele>75.4</ele>
        <time>2021-05-22T08:03:02Z</time>
      </trkpt>
      <trkpt lat="42.4930510" lon="-8.6484620">
        <ele>75.5</ele>
        <time>2021-05-22T08:03:03Z</time>
      </trkpt>
      <trkpt lat="42.4930680" lon="-8.6484590">
        <ele>75.5</ele>
        <time>2021-05-22T08:03:04Z</time>
      </trkpt>
      <trkpt lat="42.4930850" lon="-8.6484620">
        <ele>75.5</ele>
        <time>2021-05-22T08:03:05Z</time>
      </trkpt>
      <trkpt lat="42.4930920" lon="-8.6484630">
        <ele>75.6</ele>
        <time>2021-05-22T08:03:06Z</time>
      </trkpt>
      <trkpt lat="42.4930980" lon="-8.6484640">
        <ele>75.6</ele>
        <time>2021-05-22T08:03:07Z</time>
      </trkpt>
      <trkpt lat="42.4931050" lon="-8.6484650">
        <ele>75.6</ele>
        <time>2021-05-22T08:03:08Z</time>
      </trkpt>
      <trkpt lat="42.4931140" lon="-8.6484680">
        <ele>75.6</ele>
        <time>2021-05-22T08:03:09Z</time>
      </trkpt>
      <trkpt lat="42.4931280" lon="-8.6484650">
        <ele>75.6</ele>
        <time>2021-05-22T08:03:10Z</time>
      </trkpt>
      <trkpt lat="42.4931310" lon="-8.6484680">
        <ele>75.7</ele>
        <time>2021-05-22T08:03:11Z</time>
      </trkpt>
      <trkpt lat="42.4931400" lon="-8.6484670">
        <ele>75.7</ele>
        <time>2021-05-22T08:03:12Z</time>
      </trkpt>
      <trkpt lat="42.4931520" lon="-8.6484640">
        <ele>75.7</ele>
        <time>2021-05-22T08:03:13Z</time>
      </trkpt>
      <trkpt lat="42.4931610" lon="-8.6484590">
        <ele>75.7</ele>
        <time>2021-05-22T08:03:14Z</time>
      </trkpt>
      <trkpt lat="42.4931760" lon="-8.6484650">
        <ele>75.8</ele>
        <time>2021-05-22T08:03:15Z</time>
      </trkpt>
      <trkpt lat="42.4931850" lon="-8.6484650">
        <ele>75.8</ele>
        <time>2021-05-22T08:03:16Z</time>
      </trkpt>
      <trkpt lat="42.4931950" lon="-8.6484600">
        <ele>75.8</ele>
        <time>2021-05-22T08:03:17Z</time>
      </trkpt>
      <trkpt lat="42.4932090" lon="-8.6484640">
        <ele>75.8</ele>
        <time>2021-05-22T08:03:18Z</time>
      </trkpt>
      <trkpt lat="42.4932280" lon="-8.6484600">
        <ele>75.9</ele>
        <time>2021-05-22T08:03:19Z</time>
      </trkpt>
      <trkpt lat="42.4932430" lon="-8.6484650">
        <ele>75.9</ele>
        <time>2021-05-22T08:03:20Z</time>
      </trkpt>
      <trkpt lat="42.4932600" lon="-8.6484640">
        <ele>76.0</ele>
        <time>2021-05-22T08:03:21Z</time>
      </trkpt>
      <trkpt lat="42.4932710" lon="-8.6484580">
        <ele>76.0</ele>
        <time>2021-05-22T08:03:22Z</time>
      </trkpt>
      <trkpt lat="42.4932730" lon="-8.6484570">
        <ele>76.0</ele>
        <time>2021-05-22T08:03:23Z</time>
      </trkpt>
      <trkpt lat="42.4932810" lon="-8.6484540">
        <ele>76.0</ele>
        <time>2021-05-22T08:03:24Z</time>
      </trkpt>
      <trkpt lat="42.4933010" lon="-8.6484480">
        <ele>76.0</ele>
        <time>2021-05-22T08:03:25Z</time>
      </trkpt>
      <trkpt lat="42.4933190" lon="-8.6484520">
        <ele>76.1</ele>
        <time>2021-05-22T08:03:26Z</time>
      </trkpt>
      <trkpt lat="42.4933280" lon="-8.6484570">
        <ele>76.1</ele>
        <time>2021-05-22T08:03:27Z</time>
      </trkpt>
      <trkpt lat="42.4933420" lon="-8.6484560">
        <ele>76.1</ele>
        <time>2021-05-22T08:03:28Z</time>
      </trkpt>
      <trkpt lat="42.4933480" lon="-8.6484600">
        <ele>76.1</ele>
        <time>2021-05-22T08:03:29Z</time>
      </trkpt>
      <trkpt lat="42.4933530" lon="-8.6484550">
        <ele>76.1</ele>
        <time>2021-05-22T08:03:30Z</time>
      </trkpt>
      <trkpt lat="42.4933560" lon="-8.6484490">
        <ele>76.1</ele>
        <time>2021-05-22T08:03:31Z</time>
      </trkpt>
      <trkpt lat="42.4933670" lon="-8.6484420">
        <ele>76.1</ele>
        <time>2021-05-22T08:03:32Z</time>
      </trkpt>
      <trkpt lat="42.4933800" lon="-8.6484380">
        <ele>76.1</ele>
        <time>2021-05-22T08:03:33Z</time>
      </trkpt>
      <trkpt lat="42.4933890" lon="-8.6484370">
        <ele>76.1</ele>
        <time>2021-05-22T08:03:34Z</time>
      </trkpt>
      <trkpt lat="42.4934020" lon="-8.6484360">
        <ele>76.1</ele>
        <time>2021-05-22T08:03:35Z</time>
      </trkpt>
      <trkpt lat="42.4934220" lon="-8.6484340">
        <ele>76.2</ele>
        <time>2021-05-22T08:03:36Z</time>
      </trkpt>
      <trkpt lat="42.4934420" lon="-8.6484250">
        <ele>76.2</ele>
        <time>2021-05-22T08:03:37Z</time>
      </trkpt>
      <trkpt lat="42.4934500" lon="-8.6484210">
        <ele>76.2</ele>
        <time>2021-05-22T08:03:38Z</time>
      </trkpt>
      <trkpt lat="42.4934580" lon="-8.6484160">
        <ele>76.2</ele>
        <time>2021-05-22T08:03:39Z</time>
      </trkpt>
      <trkpt lat="42.4934760" lon="-8.6484060">
        <ele>76.1</ele>
        <time>2021-05-22T08:03:40Z</time>
      </trkpt>
      <trkpt lat="42.4934840" lon="-8.6484030">
        <ele>76.1</ele>
        <time>2021-05-22T08:03:41Z</time>
      </trkpt>
      <trkpt lat="42.4934920" lon="-8.6483990">
        <ele>76.1</ele>
        <time>2021-05-22T08:03:42Z</time>
      </trkpt>
      <trkpt lat="42.4935000" lon="-8.6483950">
        <ele>76.1</ele>
        <time>2021-05-22T08:03:43Z</time>
      </trkpt>
      <trkpt lat="42.4935140" lon="-8.6483930">
        <ele>76.1</ele>
        <time>2021-05-22T08:03:44Z</time>
      </trkpt>
      <trkpt lat="42.4935310" lon="-8.6483930">
        <ele>76.1</ele>
        <time>2021-05-22T08:03:45Z</time>
      </trkpt>
      <trkpt lat="42.4935490" lon="-8.6483880">
        <ele>76.1</ele>
        <time>2021-05-22T08:03:46Z</time>
      </trkpt>
      <trkpt lat="42.4935560" lon="-8.6483860">
        <ele>76.1</ele>
        <time>2021-05-22T08:03:47Z</time>
      </trkpt>
      <trkpt lat="42.4935670" lon="-8.6483870">
        <ele>76.0</ele>
        <time>2021-05-22T08:03:48Z</time>
      </trkpt>
      <trkpt lat="42.4935840" lon="-8.6483890">
        <ele>76.0</ele>
        <time>2021-05-22T08:03:49Z</time>
      </trkpt>
      <trkpt lat="42.4935980" lon="-8.6483910">
        <ele>76.0</ele>
        <time>2021-05-22T08:03:50Z</time>
      </trkpt>
      <trkpt lat="42.4936000" lon="-8.6483850">
        <ele>76.0</ele>
        <time>2021-05-22T08:03:51Z</time>
      </trkpt>
      <trkpt lat="42.4936080" lon="-8.6483820">
        <ele>76.0</ele>
        <time>2021-05-22T08:03:52Z</time>
      </trkpt>
      <trkpt lat="42.4936230" lon="-8.6483750">
        <ele>75.9</ele>
        <time>2021-05-22T08:03:53Z</time>
      </trkpt>
      <trkpt lat="42.4936340" lon="-8.6483700">
        <ele>75.9</ele>
        <time>2021-05-22T08:03:54Z</time>
      </trkpt>
      <trkpt lat="42.4936430" lon="-8.6483630">
        <ele>75.9</ele>
        <time>2021-05-22T08:03:55Z</time>
      </trkpt>
      <trkpt lat="42.4936480" lon="-8.6483620">
        <ele>75.9</ele>
        <time>2021-05-22T08:03:56Z</time>
      </trkpt>
      <trkpt lat="42.4936580" lon="-8.6483590">
        <ele>75.9</ele>
        <time>2021-05-22T08:03:57Z</time>
      </trkpt>
      <trkpt lat="42.4936760" lon="-8.6483640">
        <ele>75.8</ele>
        <time>2021-05-22T08:03:58Z</time>
      </trkpt>
      <trkpt lat="42.4936870" lon="-8.6483630">
        <ele>75.8</ele>
        <time>2021-05-22T08:03:59Z</time>
      </trkpt>
      <trkpt lat="42.4936990" lon="-8.6483620">
        <ele>75.8</ele>
        <time>2021-05-22T08:04:00Z</time>
      </trkpt>
      <trkpt lat="42.4937120" lon="-8.6483500">
        <ele>75.7</ele>
        <time>2021-05-22T08:04:01Z</time>
      </trkpt>
      <trkpt lat="42.4937180" lon="-8.6483460">
        <ele>75.7</ele>
        <time>2021-05-22T08:04:02Z</time>
      </trkpt>
      <trkpt lat="42.4937310" lon="-8.6483420">
        <ele>75.7</ele>
        <time>2021-05-22T08:04:03Z</time>
      </trkpt>
      <trkpt lat="42.4937410" lon="-8.6483410">
        <ele>75.6</ele>
        <time>2021-05-22T08:04:04Z</time>
      </trkpt>
      <trkpt lat="42.4937510" lon="-8.6483390">
        <ele>75.6</ele>
        <time>2021-05-22T08:04:05Z</time>
      </trkpt>
      <trkpt lat="42.4937560" lon="-8.6483440">
        <ele>75.6</ele>
        <time>2021-05-22T08:04:06Z</time>
      </trkpt>
      <trkpt lat="42.4937620" lon="-8.6483560">
        <ele>75.5</ele>
        <time>2021-05-22T08:04:07Z</time>
      </trkpt>
      <trkpt lat="42.4937930" lon="-8.6483580">
        <ele>75.5</ele>
        <time>2021-05-22T08:04:08Z</time>
      </trkpt>
      <trkpt lat="42.4938080" lon="-8.6483570">
        <ele>75.4</ele>
        <time>2021-05-22T08:04:09Z</time>
      </trkpt>
      <trkpt lat="42.4938250" lon="-8.6483580">
        <ele>75.3</ele>
        <time>2021-05-22T08:04:10Z</time>
      </trkpt>
      <trkpt lat="42.4938330" lon="-8.6483520">
        <ele>75.3</ele>
        <time>2021-05-22T08:04:11Z</time>
      </trkpt>
      <trkpt lat="42.4938390" lon="-8.6483480">
        <ele>75.3</ele>
        <time>2021-05-22T08:04:12Z</time>
      </trkpt>
      <trkpt lat="42.4938520" lon="-8.6483540">
        <ele>75.3</ele>
        <time>2021-05-22T08:04:13Z</time>
      </trkpt>
      <trkpt lat="42.4938620" lon="-8.6483480">
        <ele>75.2</ele>
        <time>2021-05-22T08:04:14Z</time>
      </trkpt>
      <trkpt lat="42.4938820" lon="-8.6483410">
        <ele>75.2</ele>
        <time>2021-05-22T08:04:15Z</time>
      </trkpt>
      <trkpt lat="42.4939000" lon="-8.6483420">
        <ele>75.1</ele>
        <time>2021-05-22T08:04:16Z</time>
      </trkpt>
      <trkpt lat="42.4939100" lon="-8.6483340">
        <ele>75.1</ele>
        <time>2021-05-22T08:04:17Z</time>
      </trkpt>
      <trkpt lat="42.4939220" lon="-8.6483270">
        <ele>75.0</ele>
        <time>2021-05-22T08:04:18Z</time>
      </trkpt>
      <trkpt lat="42.4939280" lon="-8.6483190">
        <ele>75.0</ele>
        <time>2021-05-22T08:04:19Z</time>
      </trkpt>
      <trkpt lat="42.4939410" lon="-8.6483100">
        <ele>74.9</ele>
        <time>2021-05-22T08:04:20Z</time>
      </trkpt>
      <trkpt lat="42.4939510" lon="-8.6483040">
        <ele>74.9</ele>
        <time>2021-05-22T08:04:21Z</time>
      </trkpt>
      <trkpt lat="42.4939590" lon="-8.6482980">
        <ele>74.9</ele>
        <time>2021-05-22T08:04:22Z</time>
      </trkpt>
      <trkpt lat="42.4939700" lon="-8.6482910">
        <ele>74.8</ele>
        <time>2021-05-22T08:04:23Z</time>
      </trkpt>
      <trkpt lat="42.4939820" lon="-8.6482940">
        <ele>74.8</ele>
        <time>2021-05-22T08:04:24Z</time>
      </trkpt>
      <trkpt lat="42.4940040" lon="-8.6482950">
        <ele>74.7</ele>
        <time>2021-05-22T08:04:25Z</time>
      </trkpt>
      <trkpt lat="42.4940190" lon="-8.6482940">
        <ele>74.7</ele>
        <time>2021-05-22T08:04:26Z</time>
      </trkpt>
      <trkpt lat="42.4940390" lon="-8.6482850">
        <ele>74.6</ele>
        <time>2021-05-22T08:04:27Z</time>
      </trkpt>
      <trkpt lat="42.4940660" lon="-8.6482850">
        <ele>74.5</ele>
        <time>2021-05-22T08:04:28Z</time>
      </trkpt>
      <trkpt lat="42.4940770" lon="-8.6482890">
        <ele>74.5</ele>
        <time>2021-05-22T08:04:29Z</time>
      </trkpt>
      <trkpt lat="42.4941100" lon="-8.6482830">
        <ele>74.4</ele>
        <time>2021-05-22T08:04:30Z</time>
      </trkpt>
      <trkpt lat="42.4941170" lon="-8.6482800">
        <ele>74.3</ele>
        <time>2021-05-22T08:04:31Z</time>
      </trkpt>
      <trkpt lat="42.4941280" lon="-8.6482740">
        <ele>74.3</ele>
        <time>2021-05-22T08:04:32Z</time>
      </trkpt>
      <trkpt lat="42.4941470" lon="-8.6482870">
        <ele>74.2</ele>
        <time>2021-05-22T08:04:33Z</time>
      </trkpt>
      <trkpt lat="42.4941790" lon="-8.6482930">
        <ele>74.1</ele>
        <time>2021-05-22T08:04:34Z</time>
      </trkpt>
      <trkpt lat="42.4941890" lon="-8.6482950">
        <ele>74.1</ele>
        <time>2021-05-22T08:04:35Z</time>
      </trkpt>
      <trkpt lat="42.4942090" lon="-8.6483050">
        <ele>74.0</ele>
        <time>2021-05-22T08:04:36Z</time>
      </trkpt>
      <trkpt lat="42.4942190" lon="-8.6483110">
        <ele>73.9</ele>
        <time>2021-05-22T08:04:37Z</time>
      </trkpt>
      <trkpt lat="42.4942280" lon="-8.6483170">
        <ele>73.9</ele>
        <time>2021-05-22T08:04:38Z</time>
      </trkpt>
      <trkpt lat="42.4942430" lon="-8.6483330">
        <ele>73.8</ele>
        <time>2021-05-22T08:04:39Z</time>
      </trkpt>
      <trkpt lat="42.4942600" lon="-8.6483310">
        <ele>73.8</ele>
        <time>2021-05-22T08:04:40Z</time>
      </trkpt>
      <trkpt lat="42.4942840" lon="-8.6483330">
        <ele>73.7</ele>
        <time>2021-05-22T08:04:41Z</time>
      </trkpt>
      <trkpt lat="42.4942940" lon="-8.6483350">
        <ele>73.6</ele>
        <time>2021-05-22T08:04:42Z</time>
      </trkpt>
      <trkpt lat="42.4943050" lon="-8.6483360">
        <ele>73.6</ele>
        <time>2021-05-22T08:04:43Z</time>
      </trkpt>
      <trkpt lat="42.4943320" lon="-8.6483400">
        <ele>73.5</ele>
        <time>2021-05-22T08:04:44Z</time>
      </trkpt>
      <trkpt lat="42.4943420" lon="-8.6483390">
        <ele>73.4</ele>
        <time>2021-05-22T08:04:45Z</time>
      </trkpt>
      <trkpt lat="42.4943670" lon="-8.6483380">
        <ele>73.3</ele>
        <time>2021-05-22T08:04:46Z</time>
      </trkpt>
      <trkpt lat="42.4943770" lon="-8.6483380">
        <ele>73.3</ele>
        <time>2021-05-22T08:04:47Z</time>
      </trkpt>
      <trkpt lat="42.4943790" lon="-8.6483440">
        <ele>73.3</ele>
        <time>2021-05-22T08:04:48Z</time>
      </trkpt>
      <trkpt lat="42.4943850" lon="-8.6483490">
        <ele>73.2</ele>
        <time>2021-05-22T08:04:49Z</time>
      </trkpt>
      <trkpt lat="42.4943930" lon="-8.6483530">
        <ele>73.2</ele>
        <time>2021-05-22T08:04:50Z</time>
      </trkpt>
      <trkpt lat="42.4943930" lon="-8.6483600">
        <ele>73.2</ele>
        <time>2021-05-22T08:04:51Z</time>
      </trkpt>
      <trkpt lat="42.4944030" lon="-8.6483620">
        <ele>73.1</ele>
        <time>2021-05-22T08:04:52Z</time>
      </trkpt>
      <trkpt lat="42.4944230" lon="-8.6483600">
        <ele>73.1</ele>
        <time>2021-05-22T08:04:53Z</time>
      </trkpt>
      <trkpt lat="42.4944330" lon="-8.6483610">
        <ele>73.0</ele>
        <time>2021-05-22T08:04:54Z</time>
      </trkpt>
      <trkpt lat="42.4944440" lon="-8.6483630">
        <ele>73.0</ele>
        <time>2021-05-22T08:04:55Z</time>
      </trkpt>
      <trkpt lat="42.4944590" lon="-8.6483640">
        <ele>72.9</ele>
        <time>2021-05-22T08:04:56Z</time>
      </trkpt>
      <trkpt lat="42.4944640" lon="-8.6483690">
        <ele>72.9</ele>
        <time>2021-05-22T08:04:57Z</time>
      </trkpt>
      <trkpt lat="42.4944700" lon="-8.6483750">
        <ele>72.8</ele>
        <time>2021-05-22T08:04:58Z</time>
      </trkpt>
      <trkpt lat="42.4944750" lon="-8.6483800">
        <ele>72.8</ele>
        <time>2021-05-22T08:04:59Z</time>
      </trkpt>
      <trkpt lat="42.4944800" lon="-8.6483860">
        <ele>72.8</ele>
        <time>2021-05-22T08:05:00Z</time>
      </trkpt>
      <trkpt lat="42.4945050" lon="-8.6484010">
        <ele>72.7</ele>
        <time>2021-05-22T08:05:01Z</time>
      </trkpt>
      <trkpt lat="42.4945150" lon="-8.6484080">
        <ele>72.6</ele>
        <time>2021-05-22T08:05:02Z</time>
      </trkpt>
      <trkpt lat="42.4945240" lon="-8.6484140">
        <ele>72.6</ele>
        <time>2021-05-22T08:05:03Z</time>
      </trkpt>
      <trkpt lat="42.4945310" lon="-8.6484130">
        <ele>72.6</ele>
        <time>2021-05-22T08:05:04Z</time>
      </trkpt>
      <trkpt lat="42.4945420" lon="-8.6484110">
        <ele>72.5</ele>
        <time>2021-05-22T08:05:05Z</time>
      </trkpt>
      <trkpt lat="42.4945560" lon="-8.6484160">
        <ele>72.5</ele>
        <time>2021-05-22T08:05:06Z</time>
      </trkpt>
      <trkpt lat="42.4945560" lon="-8.6484100">
        <ele>72.4</ele>
        <time>2021-05-22T08:05:07Z</time>
      </trkpt>
      <trkpt lat="42.4945690" lon="-8.6484110">
        <ele>72.4</ele>
        <time>2021-05-22T08:05:08Z</time>
      </trkpt>
      <trkpt lat="42.4945740" lon="-8.6484170">
        <ele>72.3</ele>
        <time>2021-05-22T08:05:09Z</time>
      </trkpt>
      <trkpt lat="42.4945860" lon="-8.6484280">
        <ele>72.3</ele>
        <time>2021-05-22T08:05:10Z</time>
      </trkpt>
      <trkpt lat="42.4946150" lon="-8.6484380">
        <ele>72.2</ele>
        <time>2021-05-22T08:05:11Z</time>
      </trkpt>
      <trkpt lat="42.4946240" lon="-8.6484400">
        <ele>72.1</ele>
        <time>2021-05-22T08:05:12Z</time>
      </trkpt>
      <trkpt lat="42.4946320" lon="-8.6484450">
        <ele>72.1</ele>
        <time>2021-05-22T08:05:13Z</time>
      </trkpt>
      <trkpt lat="42.4946380" lon="-8.6484490">
        <ele>72.1</ele>
        <time>2021-05-22T08:05:14Z</time>
      </trkpt>
      <trkpt lat="42.4946540" lon="-8.6484570">
        <ele>72.0</ele>
        <time>2021-05-22T08:05:15Z</time>
      </trkpt>
      <trkpt lat="42.4946720" lon="-8.6484670">
        <ele>71.9</ele>
        <time>2021-05-22T08:05:16Z</time>
      </trkpt>
      <trkpt lat="42.4946800" lon="-8.6484610">
        <ele>71.9</ele>
        <time>2021-05-22T08:05:17Z</time>
      </trkpt>
      <trkpt lat="42.4946850" lon="-8.6484480">
        <ele>71.8</ele>
        <time>2021-05-22T08:05:18Z</time>
      </trkpt>
      <trkpt lat="42.4946920" lon="-8.6484540">
        <ele>71.8</ele>
        <time>2021-05-22T08:05:19Z</time>
      </trkpt>
      <trkpt lat="42.4947160" lon="-8.6484600">
        <ele>71.7</ele>
        <time>2021-05-22T08:05:20Z</time>
      </trkpt>
      <trkpt lat="42.4947320" lon="-8.6484700">
        <ele>71.7</ele>
        <time>2021-05-22T08:05:21Z</time>
      </trkpt>
      <trkpt lat="42.4947410" lon="-8.6484760">
        <ele>71.6</ele>
        <time>2021-05-22T08:05:22Z</time>
      </trkpt>
      <trkpt lat="42.4947490" lon="-8.6484820">
        <ele>71.6</ele>
        <time>2021-05-22T08:05:23Z</time>
      </trkpt>
      <trkpt lat="42.4947680" lon="-8.6484940">
        <ele>71.5</ele>
        <time>2021-05-22T08:05:24Z</time>
      </trkpt>
      <trkpt lat="42.4947750" lon="-8.6485000">
        <ele>71.5</ele>
        <time>2021-05-22T08:05:25Z</time>
      </trkpt>
      <trkpt lat="42.4947830" lon="-8.6485070">
        <ele>71.4</ele>
        <time>2021-05-22T08:05:26Z</time>
      </trkpt>
      <trkpt lat="42.4947920" lon="-8.6485060">
        <ele>71.4</ele>
        <time>2021-05-22T08:05:27Z</time>
      </trkpt>
      <trkpt lat="42.4948060" lon="-8.6485090">
        <ele>71.4</ele>
        <time>2021-05-22T08:05:28Z</time>
      </trkpt>
      <trkpt lat="42.4948110" lon="-8.6485180">
        <ele>71.3</ele>
        <time>2021-05-22T08:05:29Z</time>
      </trkpt>
      <trkpt lat="42.4948280" lon="-8.6485240">
        <ele>71.3</ele>
        <time>2021-05-22T08:05:30Z</time>
      </trkpt>
      <trkpt lat="42.4948420" lon="-8.6485190">
        <ele>71.3</ele>
        <time>2021-05-22T08:05:31Z</time>
      </trkpt>
      <trkpt lat="42.4948460" lon="-8.6485200">
        <ele>71.2</ele>
        <time>2021-05-22T08:05:32Z</time>
      </trkpt>
      <trkpt lat="42.4948570" lon="-8.6485230">
        <ele>71.2</ele>
        <time>2021-05-22T08:05:33Z</time>
      </trkpt>
      <trkpt lat="42.4948680" lon="-8.6485270">
        <ele>71.2</ele>
        <time>2021-05-22T08:05:34Z</time>
      </trkpt>
      <trkpt lat="42.4948740" lon="-8.6485330">
        <ele>71.2</ele>
        <time>2021-05-22T08:05:35Z</time>
      </trkpt>
      <trkpt lat="42.4948880" lon="-8.6485390">
        <ele>71.1</ele>
        <time>2021-05-22T08:05:36Z</time>
      </trkpt>
      <trkpt lat="42.4949020" lon="-8.6485410">
        <ele>71.1</ele>
        <time>2021-05-22T08:05:37Z</time>
      </trkpt>
      <trkpt lat="42.4949160" lon="-8.6485480">
        <ele>71.0</ele>
        <time>2021-05-22T08:05:38Z</time>
      </trkpt>
      <trkpt lat="42.4949310" lon="-8.6485560">
        <ele>71.0</ele>
        <time>2021-05-22T08:05:39Z</time>
      </trkpt>
      <trkpt lat="42.4949350" lon="-8.6485820">
        <ele>70.9</ele>
        <time>2021-05-22T08:05:40Z</time>
      </trkpt>
      <trkpt lat="42.4949470" lon="-8.6485890">
        <ele>70.9</ele>
        <time>2021-05-22T08:05:41Z</time>
      </trkpt>
      <trkpt lat="42.4949690" lon="-8.6485900">
        <ele>70.9</ele>
        <time>2021-05-22T08:05:42Z</time>
      </trkpt>
      <trkpt lat="42.4949790" lon="-8.6485910">
        <ele>70.8</ele>
        <time>2021-05-22T08:05:43Z</time>
      </trkpt>
      <trkpt lat="42.4949900" lon="-8.6485930">
        <ele>70.8</ele>
        <time>2021-05-22T08:05:44Z</time>
      </trkpt>
      <trkpt lat="42.4950010" lon="-8.6486000">
        <ele>70.8</ele>
        <time>2021-05-22T08:05:45Z</time>
      </trkpt>
      <trkpt lat="42.4950190" lon="-8.6486120">
        <ele>70.8</ele>
        <time>2021-05-22T08:05:46Z</time>
      </trkpt>
      <trkpt lat="42.4950270" lon="-8.6486190">
        <ele>70.8</ele>
        <time>2021-05-22T08:05:47Z</time>
      </trkpt>
      <trkpt lat="42.4950370" lon="-8.6486240">
        <ele>70.8</ele>
        <time>2021-05-22T08:05:48Z</time>
      </trkpt>
      <trkpt lat="42.4950460" lon="-8.6486260">
        <ele>70.8</ele>
        <time>2021-05-22T08:05:49Z</time>
      </trkpt>
      <trkpt lat="42.4950600" lon="-8.6486250">
        <ele>70.7</ele>
        <time>2021-05-22T08:05:50Z</time>
      </trkpt>
      <trkpt lat="42.4950660" lon="-8.6486260">
        <ele>70.7</ele>
        <time>2021-05-22T08:05:51Z</time>
      </trkpt>
      <trkpt lat="42.4950710" lon="-8.6486280">
        <ele>70.7</ele>
        <time>2021-05-22T08:05:52Z</time>
      </trkpt>
      <trkpt lat="42.4950770" lon="-8.6486290">
        <ele>70.7</ele>
        <time>2021-05-22T08:05:53Z</time>
      </trkpt>
      <trkpt lat="42.4950830" lon="-8.6486300">
        <ele>70.7</ele>
        <time>2021-05-22T08:05:54Z</time>
      </trkpt>
      <trkpt lat="42.4950890" lon="-8.6486280">
        <ele>70.7</ele>
        <time>2021-05-22T08:05:55Z</time>
      </trkpt>
      <trkpt lat="42.4950990" lon="-8.6486350">
        <ele>70.7</ele>
        <time>2021-05-22T08:05:56Z</time>
      </trkpt>
      <trkpt lat="42.4951090" lon="-8.6486330">
        <ele>70.7</ele>
        <time>2021-05-22T08:05:57Z</time>
      </trkpt>
      <trkpt lat="42.4951160" lon="-8.6486260">
        <ele>70.7</ele>
        <time>2021-05-22T08:05:58Z</time>
      </trkpt>
      <trkpt lat="42.4951250" lon="-8.6486250">
        <ele>70.7</ele>
        <time>2021-05-22T08:05:59Z</time>
      </trkpt>
      <trkpt lat="42.4951380" lon="-8.6486220">
        <ele>70.6</ele>
        <time>2021-05-22T08:06:00Z</time>
      </trkpt>
      <trkpt lat="42.4951510" lon="-8.6486180">
        <ele>70.6</ele>
        <time>2021-05-22T08:06:01Z</time>
      </trkpt>
      <trkpt lat="42.4951550" lon="-8.6486240">
        <ele>70.6</ele>
        <time>2021-05-22T08:06:02Z</time>
      </trkpt>
      <trkpt lat="42.4951810" lon="-8.6486290">
        <ele>70.6</ele>
        <time>2021-05-22T08:06:03Z</time>
      </trkpt>
      <trkpt lat="42.4951840" lon="-8.6486290">
        <ele>70.6</ele>
        <time>2021-05-22T08:06:04Z</time>
      </trkpt>
      <trkpt lat="42.4951910" lon="-8.6486270">
        <ele>70.6</ele>
        <time>2021-05-22T08:06:05Z</time>
      </trkpt>
      <trkpt lat="42.4952040" lon="-8.6486190">
        <ele>70.6</ele>
        <time>2021-05-22T08:06:06Z</time>
      </trkpt>
      <trkpt lat="42.4952040" lon="-8.6486210">
        <ele>70.6</ele>
        <time>2021-05-22T08:06:07Z</time>
      </trkpt>
      <trkpt lat="42.4952090" lon="-8.6486190">
        <ele>70.6</ele>
        <time>2021-05-22T08:06:08Z</time>
      </trkpt>
      <trkpt lat="42.4952340" lon="-8.6486220">
        <ele>70.5</ele>
        <time>2021-05-22T08:06:09Z</time>
      </trkpt>
      <trkpt lat="42.4952410" lon="-8.6486280">
        <ele>70.5</ele>
        <time>2021-05-22T08:06:10Z</time>
      </trkpt>
      <trkpt lat="42.4952650" lon="-8.6486220">
        <ele>70.5</ele>
        <time>2021-05-22T08:06:11Z</time>
      </trkpt>
      <trkpt lat="42.4952780" lon="-8.6486210">
        <ele>70.5</ele>
        <time>2021-05-22T08:06:12Z</time>
      </trkpt>
      <trkpt lat="42.4952900" lon="-8.6486190">
        <ele>70.5</ele>
        <time>2021-05-22T08:06:13Z</time>
      </trkpt>
      <trkpt lat="42.4953070" lon="-8.6486280">
        <ele>70.5</ele>
        <time>2021-05-22T08:06:14Z</time>
      </trkpt>
      <trkpt lat="42.4953230" lon="-8.6486360">
        <ele>70.4</ele>
        <time>2021-05-22T08:06:15Z</time>
      </trkpt>
      <trkpt lat="42.4953390" lon="-8.6486410">
        <ele>70.4</ele>
        <time>2021-05-22T08:06:16Z</time>
      </trkpt>
      <trkpt lat="42.4953480" lon="-8.6486440">
        <ele>70.4</ele>
        <time>2021-05-22T08:06:17Z</time>
      </trkpt>
      <trkpt lat="42.4953560" lon="-8.6486480">
        <ele>70.4</ele>
        <time>2021-05-22T08:06:18Z</time>
      </trkpt>
      <trkpt lat="42.4953640" lon="-8.6486510">
        <ele>70.4</ele>
        <time>2021-05-22T08:06:19Z</time>
      </trkpt>
      <trkpt lat="42.4953770" lon="-8.6486560">
        <ele>70.4</ele>
        <time>2021-05-22T08:06:20Z</time>
      </trkpt>
      <trkpt lat="42.4953920" lon="-8.6486610">
        <ele>70.4</ele>
        <time>2021-05-22T08:06:21Z</time>
      </trkpt>
      <trkpt lat="42.4954130" lon="-8.6486740">
        <ele>70.4</ele>
        <time>2021-05-22T08:06:22Z</time>
      </trkpt>
      <trkpt lat="42.4954260" lon="-8.6486770">
        <ele>70.3</ele>
        <time>2021-05-22T08:06:23Z</time>
      </trkpt>
      <trkpt lat="42.4954390" lon="-8.6486790">
        <ele>70.3</ele>
        <time>2021-05-22T08:06:24Z</time>
      </trkpt>
      <trkpt lat="42.4954540" lon="-8.6486810">
        <ele>70.3</ele>
        <time>2021-05-22T08:06:25Z</time>
      </trkpt>
      <trkpt lat="42.4954610" lon="-8.6486820">
        <ele>70.3</ele>
        <time>2021-05-22T08:06:26Z</time>
      </trkpt>
      <trkpt lat="42.4954730" lon="-8.6486890">
        <ele>70.3</ele>
        <time>2021-05-22T08:06:27Z</time>
      </trkpt>
      <trkpt lat="42.4954780" lon="-8.6486900">
        <ele>70.3</ele>
        <time>2021-05-22T08:06:28Z</time>
      </trkpt>
      <trkpt lat="42.4954830" lon="-8.6486880">
        <ele>70.3</ele>
        <time>2021-05-22T08:06:29Z</time>
      </trkpt>
      <trkpt lat="42.4954950" lon="-8.6486900">
        <ele>70.3</ele>
        <time>2021-05-22T08:06:30Z</time>
      </trkpt>
      <trkpt lat="42.4955070" lon="-8.6487010">
        <ele>70.3</ele>
        <time>2021-05-22T08:06:31Z</time>
      </trkpt>
      <trkpt lat="42.4955160" lon="-8.6487020">
        <ele>70.3</ele>
        <time>2021-05-22T08:06:32Z</time>
      </trkpt>
      <trkpt lat="42.4955260" lon="-8.6487000">
        <ele>70.3</ele>
        <time>2021-05-22T08:06:33Z</time>
      </trkpt>
      <trkpt lat="42.4955400" lon="-8.6486980">
        <ele>70.2</ele>
        <time>2021-05-22T08:06:34Z</time>
      </trkpt>
      <trkpt lat="42.4955510" lon="-8.6487050">
        <ele>70.2</ele>
        <time>2021-05-22T08:06:35Z</time>
      </trkpt>
      <trkpt lat="42.4955590" lon="-8.6487020">
        <ele>70.2</ele>
        <time>2021-05-22T08:06:36Z</time>
      </trkpt>
      <trkpt lat="42.4955680" lon="-8.6487000">
        <ele>70.2</ele>
        <time>2021-05-22T08:06:37Z</time>
      </trkpt>
      <trkpt lat="42.4955750" lon="-8.6487020">
        <ele>70.2</ele>
        <time>2021-05-22T08:06:38Z</time>
      </trkpt>
      <trkpt lat="42.4955830" lon="-8.6487000">
        <ele>70.2</ele>
        <time>2021-05-22T08:06:39Z</time>
      </trkpt>
      <trkpt lat="42.4955890" lon="-8.6486970">
        <ele>70.2</ele>
        <time>2021-05-22T08:06:40Z</time>
      </trkpt>
      <trkpt lat="42.4956010" lon="-8.6487060">
        <ele>70.2</ele>
        <time>2021-05-22T08:06:41Z</time>
      </trkpt>
      <trkpt lat="42.4956120" lon="-8.6487240">
        <ele>70.2</ele>
        <time>2021-05-22T08:06:42Z</time>
      </trkpt>
      <trkpt lat="42.4956220" lon="-8.6487240">
        <ele>70.2</ele>
        <time>2021-05-22T08:06:43Z</time>
      </trkpt>
      <trkpt lat="42.4956320" lon="-8.6487270">
        <ele>70.2</ele>
        <time>2021-05-22T08:06:44Z</time>
      </trkpt>
      <trkpt lat="42.4956550" lon="-8.6487370">
        <ele>70.2</ele>
        <time>2021-05-22T08:06:45Z</time>
      </trkpt>
      <trkpt lat="42.4956660" lon="-8.6487410">
        <ele>70.2</ele>
        <time>2021-05-22T08:06:46Z</time>
      </trkpt>
      <trkpt lat="42.4956780" lon="-8.6487450">
        <ele>70.1</ele>
        <time>2021-05-22T08:06:47Z</time>
      </trkpt>
      <trkpt lat="42.4956880" lon="-8.6487550">
        <ele>70.1</ele>
        <time>2021-05-22T08:06:48Z</time>
      </trkpt>
      <trkpt lat="42.4957010" lon="-8.6487660">
        <ele>70.1</ele>
        <time>2021-05-22T08:06:49Z</time>
      </trkpt>
      <trkpt lat="42.4957200" lon="-8.6487820">
        <ele>70.1</ele>
        <time>2021-05-22T08:06:50Z</time>
      </trkpt>
      <trkpt lat="42.4957270" lon="-8.6487940">
        <ele>70.1</ele>
        <time>2021-05-22T08:06:51Z</time>
      </trkpt>
      <trkpt lat="42.4957510" lon="-8.6488040">
        <ele>70.1</ele>
        <time>2021-05-22T08:06:52Z</time>
      </trkpt>
      <trkpt lat="42.4957600" lon="-8.6488060">
        <ele>70.1</ele>
        <time>2021-05-22T08:06:53Z</time>
      </trkpt>
      <trkpt lat="42.4957690" lon="-8.6488080">
        <ele>70.1</ele>
        <time>2021-05-22T08:06:54Z</time>
      </trkpt>
      <trkpt lat="42.4957780" lon="-8.6488100">
        <ele>70.1</ele>
        <time>2021-05-22T08:06:55Z</time>
      </trkpt>
      <trkpt lat="42.4957970" lon="-8.6488310">
        <ele>70.1</ele>
        <time>2021-05-22T08:06:56Z</time>
      </trkpt>
      <trkpt lat="42.4958070" lon="-8.6488340">
        <ele>70.1</ele>
        <time>2021-05-22T08:06:57Z</time>
      </trkpt>
      <trkpt lat="42.4958140" lon="-8.6488340">
        <ele>70.1</ele>
        <time>2021-05-22T08:06:58Z</time>
      </trkpt>
      <trkpt lat="42.4958200" lon="-8.6488360">
        <ele>70.1</ele>
        <time>2021-05-22T08:06:59Z</time>
      </trkpt>
      <trkpt lat="42.4958260" lon="-8.6488390">
        <ele>70.1</ele>
        <time>2021-05-22T08:07:00Z</time>
      </trkpt>
      <trkpt lat="42.4958300" lon="-8.6488420">
        <ele>70.1</ele>
        <time>2021-05-22T08:07:01Z</time>
      </trkpt>
      <trkpt lat="42.4958340" lon="-8.6488410">
        <ele>70.1</ele>
        <time>2021-05-22T08:07:02Z</time>
      </trkpt>
      <trkpt lat="42.4958360" lon="-8.6488500">
        <ele>70.1</ele>
        <time>2021-05-22T08:07:03Z</time>
      </trkpt>
      <trkpt lat="42.4958430" lon="-8.6488580">
        <ele>70.1</ele>
        <time>2021-05-22T08:07:04Z</time>
      </trkpt>
      <trkpt lat="42.4958460" lon="-8.6488590">
        <ele>70.1</ele>
        <time>2021-05-22T08:07:05Z</time>
      </trkpt>
      <trkpt lat="42.4958470" lon="-8.6488570">
        <ele>70.1</ele>
        <time>2021-05-22T08:07:06Z</time>
      </trkpt>
      <trkpt lat="42.4958560" lon="-8.6488640">
        <ele>70.1</ele>
        <time>2021-05-22T08:07:07Z</time>
      </trkpt>
      <trkpt lat="42.4958620" lon="-8.6488660">
        <ele>70.1</ele>
        <time>2021-05-22T08:07:08Z</time>
      </trkpt>
      <trkpt lat="42.4958680" lon="-8.6488730">
        <ele>70.1</ele>
        <time>2021-05-22T08:07:09Z</time>
      </trkpt>
      <trkpt lat="42.4958870" lon="-8.6488630">
        <ele>70.1</ele>
        <time>2021-05-22T08:07:10Z</time>
      </trkpt>
      <trkpt lat="42.4958880" lon="-8.6488610">
        <ele>70.1</ele>
        <time>2021-05-22T08:07:11Z</time>
      </trkpt>
      <trkpt lat="42.4958920" lon="-8.6488630">
        <ele>70.1</ele>
        <time>2021-05-22T08:07:12Z</time>
      </trkpt>
      <trkpt lat="42.4958980" lon="-8.6488710">
        <ele>70.1</ele>
        <time>2021-05-22T08:07:13Z</time>
      </trkpt>
      <trkpt lat="42.4958990" lon="-8.6488800">
        <ele>70.1</ele>
        <time>2021-05-22T08:07:14Z</time>
      </trkpt>
      <trkpt lat="42.4958830" lon="-8.6488890">
        <ele>70.1</ele>
        <time>2021-05-22T08:07:15Z</time>
      </trkpt>
      <trkpt lat="42.4958770" lon="-8.6488840">
        <ele>70.1</ele>
        <time>2021-05-22T08:07:16Z</time>
      </trkpt>
      <trkpt lat="42.4958740" lon="-8.6488800">
        <ele>70.1</ele>
        <time>2021-05-22T08:07:17Z</time>
      </trkpt>
      <trkpt lat="42.4958790" lon="-8.6488780">
        <ele>70.1</ele>
        <time>2021-05-22T08:07:18Z</time>
      </trkpt>
      <trkpt lat="42.4958730" lon="-8.6488770">
        <ele>70.1</ele>
        <time>2021-05-22T08:07:19Z</time>
      </trkpt>
      <trkpt lat="42.4958720" lon="-8.6488800">
        <ele>70.1</ele>
        <time>2021-05-22T08:07:20Z</time>
      </trkpt>
      <trkpt lat="42.4958680" lon="-8.6488830">
        <ele>70.1</ele>
        <time>2021-05-22T08:07:21Z</time>
      </trkpt>
      <trkpt lat="42.4958710" lon="-8.6488930">
        <ele>70.1</ele>
        <time>2021-05-22T08:07:22Z</time>
      </trkpt>
      <trkpt lat="42.4958810" lon="-8.6488960">
        <ele>70.1</ele>
        <time>2021-05-22T08:07:23Z</time>
      </trkpt>
      <trkpt lat="42.4958850" lon="-8.6488980">
        <ele>70.1</ele>
        <time>2021-05-22T08:07:24Z</time>
      </trkpt>
      <trkpt lat="42.4958840" lon="-8.6489160">
        <ele>70.1</ele>
        <time>2021-05-22T08:07:26Z</time>
      </trkpt>
      <trkpt lat="42.4958840" lon="-8.6489320">
        <ele>70.1</ele>
        <time>2021-05-22T08:07:27Z</time>
      </trkpt>
      <trkpt lat="42.4958880" lon="-8.6489340">
        <ele>70.1</ele>
        <time>2021-05-22T08:07:28Z</time>
      </trkpt>
      <trkpt lat="42.4958900" lon="-8.6489300">
        <ele>70.1</ele>
        <time>2021-05-22T08:07:29Z</time>
      </trkpt>
      <trkpt lat="42.4958900" lon="-8.6489290">
        <ele>70.1</ele>
        <time>2021-05-22T08:07:30Z</time>
      </trkpt>
      <trkpt lat="42.4958900" lon="-8.6489290">
        <ele>70.1</ele>
        <time>2021-05-22T08:07:31Z</time>
      </trkpt>
      <trkpt lat="42.4958830" lon="-8.6489540">
        <ele>70.1</ele>
        <time>2021-05-22T08:07:32Z</time>
      </trkpt>
      <trkpt lat="42.4958840" lon="-8.6489570">
        <ele>70.1</ele>
        <time>2021-05-22T08:07:33Z</time>
      </trkpt>
      <trkpt lat="42.4958830" lon="-8.6489540">
        <ele>70.1</ele>
        <time>2021-05-22T08:07:34Z</time>
      </trkpt>
      <trkpt lat="42.4958830" lon="-8.6489470">
        <ele>70.1</ele>
        <time>2021-05-22T08:07:35Z</time>
      </trkpt>
      <trkpt lat="42.4958810" lon="-8.6489410">
        <ele>70.1</ele>
        <time>2021-05-22T08:07:36Z</time>
      </trkpt>
      <trkpt lat="42.4958770" lon="-8.6489380">
        <ele>70.1</ele>
        <time>2021-05-22T08:07:37Z</time>
      </trkpt>
      <trkpt lat="42.4958720" lon="-8.6489360">
        <ele>70.1</ele>
        <time>2021-05-22T08:07:39Z</time>
      </trkpt>
      <trkpt lat="42.4958710" lon="-8.6489320">
        <ele>70.1</ele>
        <time>2021-05-22T08:07:40Z</time>
      </trkpt>
      <trkpt lat="42.4958700" lon="-8.6489260">
        <ele>70.1</ele>
        <time>2021-05-22T08:07:41Z</time>
      </trkpt>
      <trkpt lat="42.4958710" lon="-8.6489240">
        <ele>70.1</ele>
        <time>2021-05-22T08:07:42Z</time>
      </trkpt>
      <trkpt lat="42.4958670" lon="-8.6489170">
        <ele>70.1</ele>
        <time>2021-05-22T08:07:43Z</time>
      </trkpt>
      <trkpt lat="42.4958660" lon="-8.6489050">
        <ele>70.1</ele>
        <time>2021-05-22T08:07:44Z</time>
      </trkpt>
      <trkpt lat="42.4958680" lon="-8.6488930">
        <ele>70.1</ele>
        <time>2021-05-22T08:07:45Z</time>
      </trkpt>
      <trkpt lat="42.4958570" lon="-8.6488930">
        <ele>70.1</ele>
        <time>2021-05-22T08:07:46Z</time>
      </trkpt>
      <trkpt lat="42.4958560" lon="-8.6488940">
        <ele>70.1</ele>
        <time>2021-05-22T08:07:47Z</time>
      </trkpt>
      <trkpt lat="42.4958610" lon="-8.6488940">
        <ele>70.1</ele>
        <time>2021-05-22T08:07:48Z</time>
      </trkpt>
      <trkpt lat="42.4958620" lon="-8.6489030">
        <ele>70.1</ele>
        <time>2021-05-22T08:07:49Z</time>
      </trkpt>
      <trkpt lat="42.4958600" lon="-8.6488960">
        <ele>70.1</ele>
        <time>2021-05-22T08:07:50Z</time>
      </trkpt>
      <trkpt lat="42.4958560" lon="-8.6488880">
        <ele>70.1</ele>
        <time>2021-05-22T08:07:51Z</time>
      </trkpt>
      <trkpt lat="42.4958540" lon="-8.6488780">
        <ele>70.1</ele>
        <time>2021-05-22T08:07:52Z</time>
      </trkpt>
      <trkpt lat="42.4958490" lon="-8.6488790">
        <ele>70.1</ele>
        <time>2021-05-22T08:07:53Z</time>
      </trkpt>
      <trkpt lat="42.4958470" lon="-8.6488730">
        <ele>70.1</ele>
        <time>2021-05-22T08:07:54Z</time>
      </trkpt>
      <trkpt lat="42.4958480" lon="-8.6488850">
        <ele>70.1</ele>
        <time>2021-05-22T08:07:55Z</time>
      </trkpt>
      <trkpt lat="42.4958470" lon="-8.6488870">
        <ele>70.1</ele>
        <time>2021-05-22T08:07:56Z</time>
      </trkpt>
      <trkpt lat="42.4958450" lon="-8.6488840">
        <ele>70.1</ele>
        <time>2021-05-22T08:07:57Z</time>
      </trkpt>
      <trkpt lat="42.4958440" lon="-8.6488880">
        <ele>70.1</ele>
        <time>2021-05-22T08:07:58Z</time>
      </trkpt>
      <trkpt lat="42.4958440" lon="-8.6489000">
        <ele>70.1</ele>
        <time>2021-05-22T08:07:59Z</time>
      </trkpt>
      <trkpt lat="42.4958460" lon="-8.6488990">
        <ele>70.1</ele>
        <time>2021-05-22T08:08:00Z</time>
      </trkpt>
      <trkpt lat="42.4958490" lon="-8.6489040">
        <ele>70.2</ele>
        <time>2021-05-22T08:08:01Z</time>
      </trkpt>
      <trkpt lat="42.4958450" lon="-8.6489010">
        <ele>70.2</ele>
        <time>2021-05-22T08:08:02Z</time>
      </trkpt>
      <trkpt lat="42.4958510" lon="-8.6489060">
        <ele>70.2</ele>
        <time>2021-05-22T08:08:03Z</time>
      </trkpt>
      <trkpt lat="42.4958490" lon="-8.6489090">
        <ele>70.2</ele>
        <time>2021-05-22T08:08:04Z</time>
      </trkpt>
      <trkpt lat="42.4958490" lon="-8.6489180">
        <ele>70.2</ele>
        <time>2021-05-22T08:08:05Z</time>
      </trkpt>
      <trkpt lat="42.4958410" lon="-8.6489230">
        <ele>70.2</ele>
        <time>2021-05-22T08:08:06Z</time>
      </trkpt>
      <trkpt lat="42.4958390" lon="-8.6489390">
        <ele>70.2</ele>
        <time>2021-05-22T08:08:07Z</time>
      </trkpt>
      <trkpt lat="42.4958490" lon="-8.6489490">
        <ele>70.3</ele>
        <time>2021-05-22T08:08:08Z</time>
      </trkpt>
      <trkpt lat="42.4958520" lon="-8.6489520">
        <ele>70.3</ele>
        <time>2021-05-22T08:08:09Z</time>
      </trkpt>
      <trkpt lat="42.4958590" lon="-8.6489550">
        <ele>70.3</ele>
        <time>2021-05-22T08:08:10Z</time>
      </trkpt>
      <trkpt lat="42.4958650" lon="-8.6489670">
        <ele>70.3</ele>
        <time>2021-05-22T08:08:11Z</time>
      </trkpt>
      <trkpt lat="42.4958660" lon="-8.6489750">
        <ele>70.3</ele>
        <time>2021-05-22T08:08:12Z</time>
      </trkpt>
      <trkpt lat="42.4958750" lon="-8.6489810">
        <ele>70.3</ele>
        <time>2021-05-22T08:08:13Z</time>
      </trkpt>
      <trkpt lat="42.4958870" lon="-8.6489890">
        <ele>70.3</ele>
        <time>2021-05-22T08:08:14Z</time>
      </trkpt>
      <trkpt lat="42.4958890" lon="-8.6489980">
        <ele>70.4</ele>
        <time>2021-05-22T08:08:15Z</time>
      </trkpt>
      <trkpt lat="42.4959040" lon="-8.6490070">
        <ele>70.4</ele>
        <time>2021-05-22T08:08:16Z</time>
      </trkpt>
      <trkpt lat="42.4959180" lon="-8.6490100">
        <ele>70.4</ele>
        <time>2021-05-22T08:08:17Z</time>
      </trkpt>
      <trkpt lat="42.4959310" lon="-8.6490110">
        <ele>70.4</ele>
        <time>2021-05-22T08:08:18Z</time>
      </trkpt>
      <trkpt lat="42.4959440" lon="-8.6490130">
        <ele>70.4</ele>
        <time>2021-05-22T08:08:19Z</time>
      </trkpt>
      <trkpt lat="42.4959490" lon="-8.6490090">
        <ele>70.4</ele>
        <time>2021-05-22T08:08:20Z</time>
      </trkpt>
      <trkpt lat="42.4959580" lon="-8.6490070">
        <ele>70.5</ele>
        <time>2021-05-22T08:08:21Z</time>
      </trkpt>
      <trkpt lat="42.4959680" lon="-8.6490050">
        <ele>70.5</ele>
        <time>2021-05-22T08:08:22Z</time>
      </trkpt>
      <trkpt lat="42.4959770" lon="-8.6490030">
        <ele>70.5</ele>
        <time>2021-05-22T08:08:23Z</time>
      </trkpt>
      <trkpt lat="42.4959870" lon="-8.6490010">
        <ele>70.5</ele>
        <time>2021-05-22T08:08:24Z</time>
      </trkpt>
      <trkpt lat="42.4959960" lon="-8.6489990">
        <ele>70.6</ele>
        <time>2021-05-22T08:08:25Z</time>
      </trkpt>
      <trkpt lat="42.4960190" lon="-8.6489750">
        <ele>70.7</ele>
        <time>2021-05-22T08:08:26Z</time>
      </trkpt>
      <trkpt lat="42.4960240" lon="-8.6489650">
        <ele>70.7</ele>
        <time>2021-05-22T08:08:27Z</time>
      </trkpt>
      <trkpt lat="42.4960140" lon="-8.6489560">
        <ele>70.8</ele>
        <time>2021-05-22T08:08:28Z</time>
      </trkpt>
      <trkpt lat="42.4960150" lon="-8.6489470">
        <ele>70.8</ele>
        <time>2021-05-22T08:08:29Z</time>
      </trkpt>
      <trkpt lat="42.4960080" lon="-8.6489440">
        <ele>70.8</ele>
        <time>2021-05-22T08:08:30Z</time>
      </trkpt>
      <trkpt lat="42.4960110" lon="-8.6489440">
        <ele>70.8</ele>
        <time>2021-05-22T08:08:31Z</time>
      </trkpt>
      <trkpt lat="42.4960150" lon="-8.6489460">
        <ele>70.9</ele>
        <time>2021-05-22T08:08:32Z</time>
      </trkpt>
      <trkpt lat="42.4960210" lon="-8.6489440">
        <ele>70.9</ele>
        <time>2021-05-22T08:08:33Z</time>
      </trkpt>
      <trkpt lat="42.4960160" lon="-8.6489390">
        <ele>70.9</ele>
        <time>2021-05-22T08:08:34Z</time>
      </trkpt>
      <trkpt lat="42.4960200" lon="-8.6489420">
        <ele>70.9</ele>
        <time>2021-05-22T08:08:35Z</time>
      </trkpt>
      <trkpt lat="42.4960280" lon="-8.6489420">
        <ele>71.0</ele>
        <time>2021-05-22T08:08:36Z</time>
      </trkpt>
      <trkpt lat="42.4960180" lon="-8.6489360">
        <ele>71.0</ele>
        <time>2021-05-22T08:08:37Z</time>
      </trkpt>
      <trkpt lat="42.4960320" lon="-8.6489380">
        <ele>71.1</ele>
        <time>2021-05-22T08:08:38Z</time>
      </trkpt>
      <trkpt lat="42.4960350" lon="-8.6489410">
        <ele>71.1</ele>
        <time>2021-05-22T08:08:39Z</time>
      </trkpt>
      <trkpt lat="42.4960310" lon="-8.6489440">
        <ele>71.1</ele>
        <time>2021-05-22T08:08:40Z</time>
      </trkpt>
      <trkpt lat="42.4960370" lon="-8.6489420">
        <ele>71.2</ele>
        <time>2021-05-22T08:08:41Z</time>
      </trkpt>
      <trkpt lat="42.4960340" lon="-8.6489450">
        <ele>71.2</ele>
        <time>2021-05-22T08:08:42Z</time>
      </trkpt>
      <trkpt lat="42.4960350" lon="-8.6489480">
        <ele>71.2</ele>
        <time>2021-05-22T08:08:43Z</time>
      </trkpt>
      <trkpt lat="42.4960340" lon="-8.6489540">
        <ele>71.2</ele>
        <time>2021-05-22T08:08:44Z</time>
      </trkpt>
      <trkpt lat="42.4960310" lon="-8.6489490">
        <ele>71.3</ele>
        <time>2021-05-22T08:08:45Z</time>
      </trkpt>
      <trkpt lat="42.4960190" lon="-8.6489510">
        <ele>71.4</ele>
        <time>2021-05-22T08:08:46Z</time>
      </trkpt>
      <trkpt lat="42.4960250" lon="-8.6489430">
        <ele>71.4</ele>
        <time>2021-05-22T08:08:47Z</time>
      </trkpt>
      <trkpt lat="42.4960210" lon="-8.6489470">
        <ele>71.5</ele>
        <time>2021-05-22T08:08:48Z</time>
      </trkpt>
      <trkpt lat="42.4960280" lon="-8.6489420">
        <ele>71.5</ele>
        <time>2021-05-22T08:08:49Z</time>
      </trkpt>
      <trkpt lat="42.4960320" lon="-8.6489390">
        <ele>71.5</ele>
        <time>2021-05-22T08:08:50Z</time>
      </trkpt>
      <trkpt lat="42.4960120" lon="-8.6489370">
        <ele>71.6</ele>
        <time>2021-05-22T08:08:51Z</time>
      </trkpt>
      <trkpt lat="42.4960210" lon="-8.6489310">
        <ele>71.7</ele>
        <time>2021-05-22T08:08:52Z</time>
      </trkpt>
      <trkpt lat="42.4960280" lon="-8.6489340">
        <ele>71.7</ele>
        <time>2021-05-22T08:08:53Z</time>
      </trkpt>
      <trkpt lat="42.4960370" lon="-8.6489360">
        <ele>71.8</ele>
        <time>2021-05-22T08:08:54Z</time>
      </trkpt>
      <trkpt lat="42.4960400" lon="-8.6489400">
        <ele>71.9</ele>
        <time>2021-05-22T08:08:55Z</time>
      </trkpt>
      <trkpt lat="42.4960470" lon="-8.6489410">
        <ele>71.9</ele>
        <time>2021-05-22T08:08:56Z</time>
      </trkpt>
      <trkpt lat="42.4960470" lon="-8.6489440">
        <ele>71.9</ele>
        <time>2021-05-22T08:08:57Z</time>
      </trkpt>
      <trkpt lat="42.4960460" lon="-8.6489480">
        <ele>72.0</ele>
        <time>2021-05-22T08:08:58Z</time>
      </trkpt>
      <trkpt lat="42.4960490" lon="-8.6489390">
        <ele>72.0</ele>
        <time>2021-05-22T08:08:59Z</time>
      </trkpt>
      <trkpt lat="42.4960520" lon="-8.6489330">
        <ele>72.0</ele>
        <time>2021-05-22T08:09:00Z</time>
      </trkpt>
      <trkpt lat="42.4960540" lon="-8.6489340">
        <ele>72.1</ele>
        <time>2021-05-22T08:09:01Z</time>
      </trkpt>
      <trkpt lat="42.4960530" lon="-8.6489350">
        <ele>72.1</ele>
        <time>2021-05-22T08:09:02Z</time>
      </trkpt>
      <trkpt lat="42.4960450" lon="-8.6489330">
        <ele>72.1</ele>
        <time>2021-05-22T08:09:03Z</time>
      </trkpt>
      <trkpt lat="42.4960450" lon="-8.6489330">
        <ele>72.1</ele>
        <time>2021-05-22T08:09:04Z</time>
      </trkpt>
      <trkpt lat="42.4960310" lon="-8.6489380">
        <ele>72.2</ele>
        <time>2021-05-22T08:09:05Z</time>
      </trkpt>
      <trkpt lat="42.4960270" lon="-8.6489350">
        <ele>72.2</ele>
        <time>2021-05-22T08:09:06Z</time>
      </trkpt>
      <trkpt lat="42.4960210" lon="-8.6489310">
        <ele>72.3</ele>
        <time>2021-05-22T08:09:07Z</time>
      </trkpt>
      <trkpt lat="42.4960110" lon="-8.6489340">
        <ele>72.3</ele>
        <time>2021-05-22T08:09:08Z</time>
      </trkpt>
      <trkpt lat="42.4960030" lon="-8.6489310">
        <ele>72.4</ele>
        <time>2021-05-22T08:09:09Z</time>
      </trkpt>
      <trkpt lat="42.4960010" lon="-8.6489390">
        <ele>72.4</ele>
        <time>2021-05-22T08:09:10Z</time>
      </trkpt>
      <trkpt lat="42.4960100" lon="-8.6489380">
        <ele>72.5</ele>
        <time>2021-05-22T08:09:11Z</time>
      </trkpt>
      <trkpt lat="42.4960120" lon="-8.6489360">
        <ele>72.5</ele>
        <time>2021-05-22T08:09:12Z</time>
      </trkpt>
      <trkpt lat="42.4960130" lon="-8.6489390">
        <ele>72.5</ele>
        <time>2021-05-22T08:09:13Z</time>
      </trkpt>
      <trkpt lat="42.4960150" lon="-8.6489450">
        <ele>72.6</ele>
        <time>2021-05-22T08:09:14Z</time>
      </trkpt>
      <trkpt lat="42.4960260" lon="-8.6489460">
        <ele>72.6</ele>
        <time>2021-05-22T08:09:15Z</time>
      </trkpt>
      <trkpt lat="42.4960330" lon="-8.6489490">
        <ele>72.7</ele>
        <time>2021-05-22T08:09:16Z</time>
      </trkpt>
      <trkpt lat="42.4960390" lon="-8.6489500">
        <ele>72.7</ele>
        <time>2021-05-22T08:09:17Z</time>
      </trkpt>
      <trkpt lat="42.4960390" lon="-8.6489550">
        <ele>72.7</ele>
        <time>2021-05-22T08:09:18Z</time>
      </trkpt>
      <trkpt lat="42.4960450" lon="-8.6489520">
        <ele>72.8</ele>
        <time>2021-05-22T08:09:19Z</time>
      </trkpt>
      <trkpt lat="42.4960470" lon="-8.6489530">
        <ele>72.8</ele>
        <time>2021-05-22T08:09:20Z</time>
      </trkpt>
      <trkpt lat="42.4960400" lon="-8.6489550">
        <ele>72.9</ele>
        <time>2021-05-22T08:09:21Z</time>
      </trkpt>
      <trkpt lat="42.4960450" lon="-8.6489500">
        <ele>72.9</ele>
        <time>2021-05-22T08:09:22Z</time>
      </trkpt>
      <trkpt lat="42.4960500" lon="-8.6489470">
        <ele>73.0</ele>
        <time>2021-05-22T08:09:23Z</time>
      </trkpt>
      <trkpt lat="42.4960460" lon="-8.6489470">
        <ele>73.0</ele>
        <time>2021-05-22T08:09:24Z</time>
      </trkpt>
      <trkpt lat="42.4960470" lon="-8.6489470">
        <ele>73.0</ele>
        <time>2021-05-22T08:09:25Z</time>
      </trkpt>
      <trkpt lat="42.4960580" lon="-8.6489390">
        <ele>73.1</ele>
        <time>2021-05-22T08:09:26Z</time>
      </trkpt>
      <trkpt lat="42.4960650" lon="-8.6489440">
        <ele>73.2</ele>
        <time>2021-05-22T08:09:27Z</time>
      </trkpt>
      <trkpt lat="42.4960630" lon="-8.6489420">
        <ele>73.2</ele>
        <time>2021-05-22T08:09:28Z</time>
      </trkpt>
      <trkpt lat="42.4960700" lon="-8.6489450">
        <ele>73.2</ele>
        <time>2021-05-22T08:09:29Z</time>
      </trkpt>
      <trkpt lat="42.4960800" lon="-8.6489410">
        <ele>73.3</ele>
        <time>2021-05-22T08:09:30Z</time>
      </trkpt>
      <trkpt lat="42.4960810" lon="-8.6489430">
        <ele>73.3</ele>
        <time>2021-05-22T08:09:31Z</time>
      </trkpt>
      <trkpt lat="42.4960790" lon="-8.6489440">
        <ele>73.4</ele>
        <time>2021-05-22T08:09:32Z</time>
      </trkpt>
      <trkpt lat="42.4960750" lon="-8.6489420">
        <ele>73.4</ele>
        <time>2021-05-22T08:09:33Z</time>
      </trkpt>
      <trkpt lat="42.4960790" lon="-8.6489340">
        <ele>73.4</ele>
        <time>2021-05-22T08:09:34Z</time>
      </trkpt>
      <trkpt lat="42.4960850" lon="-8.6489320">
        <ele>73.5</ele>
        <time>2021-05-22T08:09:35Z</time>
      </trkpt>
      <trkpt lat="42.4960940" lon="-8.6489290">
        <ele>73.6</ele>
        <time>2021-05-22T08:09:36Z</time>
      </trkpt>
      <trkpt lat="42.4961080" lon="-8.6489290">
        <ele>73.7</ele>
        <time>2021-05-22T08:09:37Z</time>
      </trkpt>
      <trkpt lat="42.4961170" lon="-8.6489280">
        <ele>73.8</ele>
        <time>2021-05-22T08:09:38Z</time>
      </trkpt>
      <trkpt lat="42.4961260" lon="-8.6489280">
        <ele>73.9</ele>
        <time>2021-05-22T08:09:39Z</time>
      </trkpt>
      <trkpt lat="42.4961440" lon="-8.6489210">
        <ele>74.0</ele>
        <time>2021-05-22T08:09:40Z</time>
      </trkpt>
      <trkpt lat="42.4961570" lon="-8.6489150">
        <ele>74.2</ele>
        <time>2021-05-22T08:09:41Z</time>
      </trkpt>
      <trkpt lat="42.4961660" lon="-8.6489150">
        <ele>74.3</ele>
        <time>2021-05-22T08:09:42Z</time>
      </trkpt>
      <trkpt lat="42.4961790" lon="-8.6489180">
        <ele>74.4</ele>
        <time>2021-05-22T08:09:43Z</time>
      </trkpt>
      <trkpt lat="42.4961920" lon="-8.6489140">
        <ele>74.5</ele>
        <time>2021-05-22T08:09:44Z</time>
      </trkpt>
      <trkpt lat="42.4961950" lon="-8.6489070">
        <ele>74.6</ele>
        <time>2021-05-22T08:09:45Z</time>
      </trkpt>
      <trkpt lat="42.4962000" lon="-8.6489050">
        <ele>74.6</ele>
        <time>2021-05-22T08:09:46Z</time>
      </trkpt>
      <trkpt lat="42.4962160" lon="-8.6489200">
        <ele>74.8</ele>
        <time>2021-05-22T08:09:47Z</time>
      </trkpt>
      <trkpt lat="42.4962210" lon="-8.6489320">
        <ele>74.9</ele>
        <time>2021-05-22T08:09:48Z</time>
      </trkpt>
      <trkpt lat="42.4962190" lon="-8.6489420">
        <ele>75.0</ele>
        <time>2021-05-22T08:09:49Z</time>
      </trkpt>
      <trkpt lat="42.4962190" lon="-8.6489410">
        <ele>75.0</ele>
        <time>2021-05-22T08:09:50Z</time>
      </trkpt>
      <trkpt lat="42.4962250" lon="-8.6489390">
        <ele>75.1</ele>
        <time>2021-05-22T08:09:51Z</time>
      </trkpt>
      <trkpt lat="42.4962300" lon="-8.6489390">
        <ele>75.1</ele>
        <time>2021-05-22T08:09:52Z</time>
      </trkpt>
      <trkpt lat="42.4962330" lon="-8.6489400">
        <ele>75.2</ele>
        <time>2021-05-22T08:09:53Z</time>
      </trkpt>
      <trkpt lat="42.4962480" lon="-8.6489400">
        <ele>75.3</ele>
        <time>2021-05-22T08:09:54Z</time>
      </trkpt>
      <trkpt lat="42.4962610" lon="-8.6489390">
        <ele>75.5</ele>
        <time>2021-05-22T08:09:55Z</time>
      </trkpt>
      <trkpt lat="42.4962760" lon="-8.6489320">
        <ele>75.6</ele>
        <time>2021-05-22T08:09:56Z</time>
      </trkpt>
      <trkpt lat="42.4962900" lon="-8.6489380">
        <ele>75.8</ele>
        <time>2021-05-22T08:09:57Z</time>
      </trkpt>
      <trkpt lat="42.4963000" lon="-8.6489340">
        <ele>75.9</ele>
        <time>2021-05-22T08:09:58Z</time>
      </trkpt>
      <trkpt lat="42.4963060" lon="-8.6489380">
        <ele>76.0</ele>
        <time>2021-05-22T08:09:59Z</time>
      </trkpt>
      <trkpt lat="42.4963240" lon="-8.6489400">
        <ele>76.2</ele>
        <time>2021-05-22T08:10:00Z</time>
      </trkpt>
      <trkpt lat="42.4963330" lon="-8.6489400">
        <ele>76.3</ele>
        <time>2021-05-22T08:10:01Z</time>
      </trkpt>
      <trkpt lat="42.4963410" lon="-8.6489390">
        <ele>76.4</ele>
        <time>2021-05-22T08:10:02Z</time>
      </trkpt>
      <trkpt lat="42.4963500" lon="-8.6489380">
        <ele>76.4</ele>
        <time>2021-05-22T08:10:03Z</time>
      </trkpt>
      <trkpt lat="42.4963570" lon="-8.6489420">
        <ele>76.5</ele>
        <time>2021-05-22T08:10:04Z</time>
      </trkpt>
      <trkpt lat="42.4963610" lon="-8.6489410">
        <ele>76.6</ele>
        <time>2021-05-22T08:10:05Z</time>
      </trkpt>
      <trkpt lat="42.4963750" lon="-8.6489400">
        <ele>76.7</ele>
        <time>2021-05-22T08:10:06Z</time>
      </trkpt>
      <trkpt lat="42.4963810" lon="-8.6489360">
        <ele>76.8</ele>
        <time>2021-05-22T08:10:07Z</time>
      </trkpt>
      <trkpt lat="42.4963980" lon="-8.6489450">
        <ele>77.0</ele>
        <time>2021-05-22T08:10:08Z</time>
      </trkpt>
      <trkpt lat="42.4964060" lon="-8.6489480">
        <ele>77.1</ele>
        <time>2021-05-22T08:10:09Z</time>
      </trkpt>
      <trkpt lat="42.4964140" lon="-8.6489520">
        <ele>77.2</ele>
        <time>2021-05-22T08:10:10Z</time>
      </trkpt>
      <trkpt lat="42.4964220" lon="-8.6489560">
        <ele>77.2</ele>
        <time>2021-05-22T08:10:11Z</time>
      </trkpt>
      <trkpt lat="42.4964290" lon="-8.6489590">
        <ele>77.3</ele>
        <time>2021-05-22T08:10:12Z</time>
      </trkpt>
      <trkpt lat="42.4964370" lon="-8.6489630">
        <ele>77.4</ele>
        <time>2021-05-22T08:10:13Z</time>
      </trkpt>
      <trkpt lat="42.4964450" lon="-8.6489670">
        <ele>77.5</ele>
        <time>2021-05-22T08:10:14Z</time>
      </trkpt>
      <trkpt lat="42.4964530" lon="-8.6489700">
        <ele>77.6</ele>
        <time>2021-05-22T08:10:15Z</time>
      </trkpt>
      <trkpt lat="42.4964610" lon="-8.6489740">
        <ele>77.7</ele>
        <time>2021-05-22T08:10:16Z</time>
      </trkpt>
      <trkpt lat="42.4964750" lon="-8.6489840">
        <ele>77.8</ele>
        <time>2021-05-22T08:10:17Z</time>
      </trkpt>
      <trkpt lat="42.4964860" lon="-8.6490010">
        <ele>78.0</ele>
        <time>2021-05-22T08:10:18Z</time>
      </trkpt>
      <trkpt lat="42.4964990" lon="-8.6490150">
        <ele>78.1</ele>
        <time>2021-05-22T08:10:19Z</time>
      </trkpt>
      <trkpt lat="42.4965060" lon="-8.6490210">
        <ele>78.2</ele>
        <time>2021-05-22T08:10:20Z</time>
      </trkpt>
      <trkpt lat="42.4965120" lon="-8.6490280">
        <ele>78.3</ele>
        <time>2021-05-22T08:10:21Z</time>
      </trkpt>
      <trkpt lat="42.4965180" lon="-8.6490340">
        <ele>78.4</ele>
        <time>2021-05-22T08:10:22Z</time>
      </trkpt>
      <trkpt lat="42.4965280" lon="-8.6490390">
        <ele>78.5</ele>
        <time>2021-05-22T08:10:23Z</time>
      </trkpt>
      <trkpt lat="42.4965360" lon="-8.6490450">
        <ele>78.5</ele>
        <time>2021-05-22T08:10:24Z</time>
      </trkpt>
      <trkpt lat="42.4965430" lon="-8.6490480">
        <ele>78.6</ele>
        <time>2021-05-22T08:10:25Z</time>
      </trkpt>
      <trkpt lat="42.4965560" lon="-8.6490580">
        <ele>78.7</ele>
        <time>2021-05-22T08:10:26Z</time>
      </trkpt>
      <trkpt lat="42.4965620" lon="-8.6490560">
        <ele>78.8</ele>
        <time>2021-05-22T08:10:27Z</time>
      </trkpt>
      <trkpt lat="42.4965640" lon="-8.6490580">
        <ele>78.8</ele>
        <time>2021-05-22T08:10:28Z</time>
      </trkpt>
      <trkpt lat="42.4965650" lon="-8.6490540">
        <ele>78.8</ele>
        <time>2021-05-22T08:10:29Z</time>
      </trkpt>
      <trkpt lat="42.4965730" lon="-8.6490510">
        <ele>78.9</ele>
        <time>2021-05-22T08:10:30Z</time>
      </trkpt>
      <trkpt lat="42.4965820" lon="-8.6490520">
        <ele>79.0</ele>
        <time>2021-05-22T08:10:31Z</time>
      </trkpt>
      <trkpt lat="42.4966010" lon="-8.6490550">
        <ele>79.1</ele>
        <time>2021-05-22T08:10:32Z</time>
      </trkpt>
      <trkpt lat="42.4966120" lon="-8.6490760">
        <ele>79.3</ele>
        <time>2021-05-22T08:10:33Z</time>
      </trkpt>
      <trkpt lat="42.4966220" lon="-8.6490700">
        <ele>79.4</ele>
        <time>2021-05-22T08:10:34Z</time>
      </trkpt>
      <trkpt lat="42.4966360" lon="-8.6490660">
        <ele>79.5</ele>
        <time>2021-05-22T08:10:35Z</time>
      </trkpt>
      <trkpt lat="42.4966440" lon="-8.6490630">
        <ele>79.5</ele>
        <time>2021-05-22T08:10:36Z</time>
      </trkpt>
      <trkpt lat="42.4966560" lon="-8.6490470">
        <ele>79.7</ele>
        <time>2021-05-22T08:10:37Z</time>
      </trkpt>
      <trkpt lat="42.4966610" lon="-8.6490460">
        <ele>79.7</ele>
        <time>2021-05-22T08:10:38Z</time>
      </trkpt>
      <trkpt lat="42.4966830" lon="-8.6490470">
        <ele>79.8</ele>
        <time>2021-05-22T08:10:39Z</time>
      </trkpt>
      <trkpt lat="42.4966920" lon="-8.6490470">
        <ele>79.9</ele>
        <time>2021-05-22T08:10:40Z</time>
      </trkpt>
      <trkpt lat="42.4967020" lon="-8.6490460">
        <ele>80.0</ele>
        <time>2021-05-22T08:10:41Z</time>
      </trkpt>
      <trkpt lat="42.4967170" lon="-8.6490400">
        <ele>80.1</ele>
        <time>2021-05-22T08:10:42Z</time>
      </trkpt>
      <trkpt lat="42.4967300" lon="-8.6490340">
        <ele>80.1</ele>
        <time>2021-05-22T08:10:43Z</time>
      </trkpt>
      <trkpt lat="42.4967330" lon="-8.6490350">
        <ele>80.2</ele>
        <time>2021-05-22T08:10:44Z</time>
      </trkpt>
      <trkpt lat="42.4967400" lon="-8.6490380">
        <ele>80.2</ele>
        <time>2021-05-22T08:10:45Z</time>
      </trkpt>
      <trkpt lat="42.4967470" lon="-8.6490390">
        <ele>80.2</ele>
        <time>2021-05-22T08:10:46Z</time>
      </trkpt>
      <trkpt lat="42.4967500" lon="-8.6490450">
        <ele>80.3</ele>
        <time>2021-05-22T08:10:47Z</time>
      </trkpt>
      <trkpt lat="42.4967570" lon="-8.6490480">
        <ele>80.3</ele>
        <time>2021-05-22T08:10:48Z</time>
      </trkpt>
      <trkpt lat="42.4967680" lon="-8.6490430">
        <ele>80.4</ele>
        <time>2021-05-22T08:10:49Z</time>
      </trkpt>
      <trkpt lat="42.4967830" lon="-8.6490350">
        <ele>80.5</ele>
        <time>2021-05-22T08:10:50Z</time>
      </trkpt>
      <trkpt lat="42.4967910" lon="-8.6490330">
        <ele>80.5</ele>
        <time>2021-05-22T08:10:51Z</time>
      </trkpt>
      <trkpt lat="42.4968040" lon="-8.6490410">
        <ele>80.6</ele>
        <time>2021-05-22T08:10:52Z</time>
      </trkpt>
      <trkpt lat="42.4968150" lon="-8.6490410">
        <ele>80.6</ele>
        <time>2021-05-22T08:10:53Z</time>
      </trkpt>
      <trkpt lat="42.4968130" lon="-8.6490440">
        <ele>80.7</ele>
        <time>2021-05-22T08:10:54Z</time>
      </trkpt>
      <trkpt lat="42.4968220" lon="-8.6490440">
        <ele>80.7</ele>
        <time>2021-05-22T08:10:55Z</time>
      </trkpt>
      <trkpt lat="42.4968330" lon="-8.6490440">
        <ele>80.8</ele>
        <time>2021-05-22T08:10:56Z</time>
      </trkpt>
      <trkpt lat="42.4968420" lon="-8.6490400">
        <ele>80.8</ele>
        <time>2021-05-22T08:10:57Z</time>
      </trkpt>
      <trkpt lat="42.4968470" lon="-8.6490370">
        <ele>80.8</ele>
        <time>2021-05-22T08:10:58Z</time>
      </trkpt>
      <trkpt lat="42.4968530" lon="-8.6490300">
        <ele>80.9</ele>
        <time>2021-05-22T08:10:59Z</time>
      </trkpt>
      <trkpt lat="42.4968670" lon="-8.6490250">
        <ele>81.0</ele>
        <time>2021-05-22T08:11:00Z</time>
      </trkpt>
      <trkpt lat="42.4968750" lon="-8.6490230">
        <ele>81.0</ele>
        <time>2021-05-22T08:11:01Z</time>
      </trkpt>
      <trkpt lat="42.4968880" lon="-8.6490190">
        <ele>81.1</ele>
        <time>2021-05-22T08:11:02Z</time>
      </trkpt>
      <trkpt lat="42.4969000" lon="-8.6490150">
        <ele>81.1</ele>
        <time>2021-05-22T08:11:03Z</time>
      </trkpt>
      <trkpt lat="42.4969060" lon="-8.6490020">
        <ele>81.2</ele>
        <time>2021-05-22T08:11:04Z</time>
      </trkpt>
      <trkpt lat="42.4969120" lon="-8.6489960">
        <ele>81.2</ele>
        <time>2021-05-22T08:11:05Z</time>
      </trkpt>
      <trkpt lat="42.4969190" lon="-8.6489970">
        <ele>81.2</ele>
        <time>2021-05-22T08:11:06Z</time>
      </trkpt>
      <trkpt lat="42.4969260" lon="-8.6489910">
        <ele>81.3</ele>
        <time>2021-05-22T08:11:07Z</time>
      </trkpt>
      <trkpt lat="42.4969320" lon="-8.6489930">
        <ele>81.3</ele>
        <time>2021-05-22T08:11:08Z</time>
      </trkpt>
      <trkpt lat="42.4969460" lon="-8.6489890">
        <ele>81.4</ele>
        <time>2021-05-22T08:11:09Z</time>
      </trkpt>
      <trkpt lat="42.4969550" lon="-8.6489830">
        <ele>81.4</ele>
        <time>2021-05-22T08:11:10Z</time>
      </trkpt>
      <trkpt lat="42.4969630" lon="-8.6489780">
        <ele>81.5</ele>
        <time>2021-05-22T08:11:11Z</time>
      </trkpt>
      <trkpt lat="42.4969720" lon="-8.6489750">
        <ele>81.5</ele>
        <time>2021-05-22T08:11:12Z</time>
      </trkpt>
      <trkpt lat="42.4969800" lon="-8.6489770">
        <ele>81.6</ele>
        <time>2021-05-22T08:11:13Z</time>
      </trkpt>
      <trkpt lat="42.4969870" lon="-8.6489690">
        <ele>81.6</ele>
        <time>2021-05-22T08:11:14Z</time>
      </trkpt>
      <trkpt lat="42.4969940" lon="-8.6489690">
        <ele>81.7</ele>
        <time>2021-05-22T08:11:15Z</time>
      </trkpt>
      <trkpt lat="42.4970000" lon="-8.6489680">
        <ele>81.7</ele>
        <time>2021-05-22T08:11:16Z</time>
      </trkpt>
      <trkpt lat="42.4970130" lon="-8.6489650">
        <ele>81.8</ele>
        <time>2021-05-22T08:11:17Z</time>
      </trkpt>
      <trkpt lat="42.4970180" lon="-8.6489710">
        <ele>81.8</ele>
        <time>2021-05-22T08:11:18Z</time>
      </trkpt>
      <trkpt lat="42.4970230" lon="-8.6489630">
        <ele>81.8</ele>
        <time>2021-05-22T08:11:19Z</time>
      </trkpt>
      <trkpt lat="42.4970460" lon="-8.6489460">
        <ele>82.0</ele>
        <time>2021-05-22T08:11:20Z</time>
      </trkpt>
      <trkpt lat="42.4970510" lon="-8.6489450">
        <ele>82.0</ele>
        <time>2021-05-22T08:11:21Z</time>
      </trkpt>
      <trkpt lat="42.4970550" lon="-8.6489430">
        <ele>82.0</ele>
        <time>2021-05-22T08:11:22Z</time>
      </trkpt>
      <trkpt lat="42.4970590" lon="-8.6489410">
        <ele>82.1</ele>
        <time>2021-05-22T08:11:23Z</time>
      </trkpt>
      <trkpt lat="42.4970750" lon="-8.6489320">
        <ele>82.2</ele>
        <time>2021-05-22T08:11:24Z</time>
      </trkpt>
      <trkpt lat="42.4970860" lon="-8.6489320">
        <ele>82.2</ele>
        <time>2021-05-22T08:11:25Z</time>
      </trkpt>
      <trkpt lat="42.4971030" lon="-8.6489360">
        <ele>82.3</ele>
        <time>2021-05-22T08:11:26Z</time>
      </trkpt>
      <trkpt lat="42.4971100" lon="-8.6489400">
        <ele>82.4</ele>
        <time>2021-05-22T08:11:27Z</time>
      </trkpt>
      <trkpt lat="42.4971210" lon="-8.6489410">
        <ele>82.5</ele>
        <time>2021-05-22T08:11:28Z</time>
      </trkpt>
      <trkpt lat="42.4971420" lon="-8.6489320">
        <ele>82.6</ele>
        <time>2021-05-22T08:11:29Z</time>
      </trkpt>
      <trkpt lat="42.4971490" lon="-8.6489290">
        <ele>82.7</ele>
        <time>2021-05-22T08:11:30Z</time>
      </trkpt>
      <trkpt lat="42.4971570" lon="-8.6489270">
        <ele>82.7</ele>
        <time>2021-05-22T08:11:31Z</time>
      </trkpt>
      <trkpt lat="42.4971690" lon="-8.6489180">
        <ele>82.9</ele>
        <time>2021-05-22T08:11:32Z</time>
      </trkpt>
      <trkpt lat="42.4971780" lon="-8.6489110">
        <ele>82.9</ele>
        <time>2021-05-22T08:11:33Z</time>
      </trkpt>
      <trkpt lat="42.4971850" lon="-8.6489050">
        <ele>83.0</ele>
        <time>2021-05-22T08:11:34Z</time>
      </trkpt>
      <trkpt lat="42.4971940" lon="-8.6489060">
        <ele>83.1</ele>
        <time>2021-05-22T08:11:35Z</time>
      </trkpt>
      <trkpt lat="42.4972130" lon="-8.6488970">
        <ele>83.3</ele>
        <time>2021-05-22T08:11:36Z</time>
      </trkpt>
      <trkpt lat="42.4972210" lon="-8.6488960">
        <ele>83.3</ele>
        <time>2021-05-22T08:11:37Z</time>
      </trkpt>
      <trkpt lat="42.4972280" lon="-8.6488940">
        <ele>83.4</ele>
        <time>2021-05-22T08:11:38Z</time>
      </trkpt>
      <trkpt lat="42.4972360" lon="-8.6488840">
        <ele>83.5</ele>
        <time>2021-05-22T08:11:39Z</time>
      </trkpt>
      <trkpt lat="42.4972430" lon="-8.6488820">
        <ele>83.6</ele>
        <time>2021-05-22T08:11:40Z</time>
      </trkpt>
      <trkpt lat="42.4972480" lon="-8.6488760">
        <ele>83.6</ele>
        <time>2021-05-22T08:11:41Z</time>
      </trkpt>
      <trkpt lat="42.4972590" lon="-8.6488760">
        <ele>83.7</ele>
        <time>2021-05-22T08:11:42Z</time>
      </trkpt>
      <trkpt lat="42.4972710" lon="-8.6488710">
        <ele>83.8</ele>
        <time>2021-05-22T08:11:43Z</time>
      </trkpt>
      <trkpt lat="42.4972940" lon="-8.6488600">
        <ele>84.1</ele>
        <time>2021-05-22T08:11:44Z</time>
      </trkpt>
      <trkpt lat="42.4973010" lon="-8.6488580">
        <ele>84.2</ele>
        <time>2021-05-22T08:11:45Z</time>
      </trkpt>
      <trkpt lat="42.4973080" lon="-8.6488550">
        <ele>84.2</ele>
        <time>2021-05-22T08:11:46Z</time>
      </trkpt>
      <trkpt lat="42.4973220" lon="-8.6488540">
        <ele>84.4</ele>
        <time>2021-05-22T08:11:47Z</time>
      </trkpt>
      <trkpt lat="42.4973370" lon="-8.6488450">
        <ele>84.6</ele>
        <time>2021-05-22T08:11:48Z</time>
      </trkpt>
      <trkpt lat="42.4973570" lon="-8.6488430">
        <ele>84.8</ele>
        <time>2021-05-22T08:11:49Z</time>
      </trkpt>
      <trkpt lat="42.4973670" lon="-8.6488410">
        <ele>84.9</ele>
        <time>2021-05-22T08:11:50Z</time>
      </trkpt>
      <trkpt lat="42.4973760" lon="-8.6488400">
        <ele>85.0</ele>
        <time>2021-05-22T08:11:51Z</time>
      </trkpt>
      <trkpt lat="42.4973850" lon="-8.6488370">
        <ele>85.1</ele>
        <time>2021-05-22T08:11:52Z</time>
      </trkpt>
      <trkpt lat="42.4974050" lon="-8.6488330">
        <ele>85.4</ele>
        <time>2021-05-22T08:11:53Z</time>
      </trkpt>
      <trkpt lat="42.4974140" lon="-8.6488330">
        <ele>85.5</ele>
        <time>2021-05-22T08:11:54Z</time>
      </trkpt>
      <trkpt lat="42.4974260" lon="-8.6488290">
        <ele>85.6</ele>
        <time>2021-05-22T08:11:55Z</time>
      </trkpt>
      <trkpt lat="42.4974380" lon="-8.6488280">
        <ele>85.8</ele>
        <time>2021-05-22T08:11:56Z</time>
      </trkpt>
      <trkpt lat="42.4974520" lon="-8.6488290">
        <ele>86.0</ele>
        <time>2021-05-22T08:11:57Z</time>
      </trkpt>
      <trkpt lat="42.4974630" lon="-8.6488340">
        <ele>86.1</ele>
        <time>2021-05-22T08:11:58Z</time>
      </trkpt>
      <trkpt lat="42.4974730" lon="-8.6488330">
        <ele>86.2</ele>
        <time>2021-05-22T08:11:59Z</time>
      </trkpt>
      <trkpt lat="42.4974930" lon="-8.6488370">
        <ele>86.5</ele>
        <time>2021-05-22T08:12:00Z</time>
      </trkpt>
      <trkpt lat="42.4975020" lon="-8.6488390">
        <ele>86.6</ele>
        <time>2021-05-22T08:12:01Z</time>
      </trkpt>
      <trkpt lat="42.4975110" lon="-8.6488420">
        <ele>86.7</ele>
        <time>2021-05-22T08:12:02Z</time>
      </trkpt>
      <trkpt lat="42.4975310" lon="-8.6488500">
        <ele>86.9</ele>
        <time>2021-05-22T08:12:03Z</time>
      </trkpt>
      <trkpt lat="42.4975390" lon="-8.6488520">
        <ele>87.0</ele>
        <time>2021-05-22T08:12:04Z</time>
      </trkpt>
      <trkpt lat="42.4975460" lon="-8.6488540">
        <ele>87.1</ele>
        <time>2021-05-22T08:12:05Z</time>
      </trkpt>
      <trkpt lat="42.4975540" lon="-8.6488640">
        <ele>87.2</ele>
        <time>2021-05-22T08:12:06Z</time>
      </trkpt>
      <trkpt lat="42.4975610" lon="-8.6488700">
        <ele>87.3</ele>
        <time>2021-05-22T08:12:07Z</time>
      </trkpt>
      <trkpt lat="42.4975670" lon="-8.6488750">
        <ele>87.4</ele>
        <time>2021-05-22T08:12:08Z</time>
      </trkpt>
      <trkpt lat="42.4975720" lon="-8.6488810">
        <ele>87.5</ele>
        <time>2021-05-22T08:12:09Z</time>
      </trkpt>
      <trkpt lat="42.4975940" lon="-8.6488760">
        <ele>87.7</ele>
        <time>2021-05-22T08:12:10Z</time>
      </trkpt>
      <trkpt lat="42.4976030" lon="-8.6488750">
        <ele>87.8</ele>
        <time>2021-05-22T08:12:11Z</time>
      </trkpt>
      <trkpt lat="42.4976120" lon="-8.6488730">
        <ele>87.9</ele>
        <time>2021-05-22T08:12:12Z</time>
      </trkpt>
      <trkpt lat="42.4976290" lon="-8.6488800">
        <ele>88.1</ele>
        <time>2021-05-22T08:12:13Z</time>
      </trkpt>
      <trkpt lat="42.4976360" lon="-8.6488840">
        <ele>88.2</ele>
        <time>2021-05-22T08:12:14Z</time>
      </trkpt>
      <trkpt lat="42.4976430" lon="-8.6488890">
        <ele>88.3</ele>
        <time>2021-05-22T08:12:15Z</time>
      </trkpt>
      <trkpt lat="42.4976500" lon="-8.6488930">
        <ele>88.4</ele>
        <time>2021-05-22T08:12:16Z</time>
      </trkpt>
      <trkpt lat="42.4976630" lon="-8.6489030">
        <ele>88.6</ele>
        <time>2021-05-22T08:12:17Z</time>
      </trkpt>
      <trkpt lat="42.4976670" lon="-8.6489080">
        <ele>88.6</ele>
        <time>2021-05-22T08:12:18Z</time>
      </trkpt>
      <trkpt lat="42.4976690" lon="-8.6489150">
        <ele>88.7</ele>
        <time>2021-05-22T08:12:19Z</time>
      </trkpt>
      <trkpt lat="42.4976800" lon="-8.6489160">
        <ele>88.8</ele>
        <time>2021-05-22T08:12:20Z</time>
      </trkpt>
      <trkpt lat="42.4976910" lon="-8.6489220">
        <ele>89.0</ele>
        <time>2021-05-22T08:12:21Z</time>
      </trkpt>
      <trkpt lat="42.4977080" lon="-8.6489260">
        <ele>89.1</ele>
        <time>2021-05-22T08:12:22Z</time>
      </trkpt>
      <trkpt lat="42.4977160" lon="-8.6489310">
        <ele>89.2</ele>
        <time>2021-05-22T08:12:23Z</time>
      </trkpt>
      <trkpt lat="42.4977290" lon="-8.6489390">
        <ele>89.4</ele>
        <time>2021-05-22T08:12:24Z</time>
      </trkpt>
      <trkpt lat="42.4977380" lon="-8.6489370">
        <ele>89.5</ele>
        <time>2021-05-22T08:12:25Z</time>
      </trkpt>
      <trkpt lat="42.4977460" lon="-8.6489330">
        <ele>89.6</ele>
        <time>2021-05-22T08:12:26Z</time>
      </trkpt>
      <trkpt lat="42.4977500" lon="-8.6489350">
        <ele>89.7</ele>
        <time>2021-05-22T08:12:27Z</time>
      </trkpt>
      <trkpt lat="42.4977610" lon="-8.6489430">
        <ele>89.8</ele>
        <time>2021-05-22T08:12:28Z</time>
      </trkpt>
      <trkpt lat="42.4977730" lon="-8.6489480">
        <ele>89.9</ele>
        <time>2021-05-22T08:12:29Z</time>
      </trkpt>
      <trkpt lat="42.4977870" lon="-8.6489590">
        <ele>90.1</ele>
        <time>2021-05-22T08:12:30Z</time>
      </trkpt>
      <trkpt lat="42.4977970" lon="-8.6489630">
        <ele>90.2</ele>
        <time>2021-05-22T08:12:31Z</time>
      </trkpt>
      <trkpt lat="42.4978080" lon="-8.6489680">
        <ele>90.4</ele>
        <time>2021-05-22T08:12:32Z</time>
      </trkpt>
      <trkpt lat="42.4978200" lon="-8.6489770">
        <ele>90.5</ele>
        <time>2021-05-22T08:12:33Z</time>
      </trkpt>
      <trkpt lat="42.4978280" lon="-8.6489930">
        <ele>90.7</ele>
        <time>2021-05-22T08:12:34Z</time>
      </trkpt>
      <trkpt lat="42.4978270" lon="-8.6490040">
        <ele>90.7</ele>
        <time>2021-05-22T08:12:35Z</time>
      </trkpt>
      <trkpt lat="42.4978380" lon="-8.6490130">
        <ele>90.9</ele>
        <time>2021-05-22T08:12:36Z</time>
      </trkpt>
      <trkpt lat="42.4978460" lon="-8.6490180">
        <ele>91.0</ele>
        <time>2021-05-22T08:12:37Z</time>
      </trkpt>
      <trkpt lat="42.4978550" lon="-8.6490250">
        <ele>91.1</ele>
        <time>2021-05-22T08:12:38Z</time>
      </trkpt>
      <trkpt lat="42.4978700" lon="-8.6490280">
        <ele>91.3</ele>
        <time>2021-05-22T08:12:39Z</time>
      </trkpt>
      <trkpt lat="42.4978810" lon="-8.6490300">
        <ele>91.4</ele>
        <time>2021-05-22T08:12:40Z</time>
      </trkpt>
      <trkpt lat="42.4978930" lon="-8.6490310">
        <ele>91.5</ele>
        <time>2021-05-22T08:12:41Z</time>
      </trkpt>
      <trkpt lat="42.4979000" lon="-8.6490350">
        <ele>91.6</ele>
        <time>2021-05-22T08:12:42Z</time>
      </trkpt>
      <trkpt lat="42.4978970" lon="-8.6490300">
        <ele>91.6</ele>
        <time>2021-05-22T08:12:43Z</time>
      </trkpt>
      <trkpt lat="42.4979070" lon="-8.6490380">
        <ele>91.8</ele>
        <time>2021-05-22T08:12:44Z</time>
      </trkpt>
      <trkpt lat="42.4979160" lon="-8.6490430">
        <ele>91.9</ele>
        <time>2021-05-22T08:12:45Z</time>
      </trkpt>
      <trkpt lat="42.4979240" lon="-8.6490420">
        <ele>92.0</ele>
        <time>2021-05-22T08:12:46Z</time>
      </trkpt>
      <trkpt lat="42.4979310" lon="-8.6490470">
        <ele>92.0</ele>
        <time>2021-05-22T08:12:47Z</time>
      </trkpt>
      <trkpt lat="42.4979460" lon="-8.6490590">
        <ele>92.2</ele>
        <time>2021-05-22T08:12:48Z</time>
      </trkpt>
      <trkpt lat="42.4979540" lon="-8.6490600">
        <ele>92.3</ele>
        <time>2021-05-22T08:12:49Z</time>
      </trkpt>
      <trkpt lat="42.4979640" lon="-8.6490680">
        <ele>92.4</ele>
        <time>2021-05-22T08:12:50Z</time>
      </trkpt>
      <trkpt lat="42.4979750" lon="-8.6490690">
        <ele>92.6</ele>
        <time>2021-05-22T08:12:51Z</time>
      </trkpt>
      <trkpt lat="42.4979840" lon="-8.6490730">
        <ele>92.7</ele>
        <time>2021-05-22T08:12:52Z</time>
      </trkpt>
      <trkpt lat="42.4979880" lon="-8.6490770">
        <ele>92.7</ele>
        <time>2021-05-22T08:12:53Z</time>
      </trkpt>
      <trkpt lat="42.4979900" lon="-8.6490820">
        <ele>92.7</ele>
        <time>2021-05-22T08:12:54Z</time>
      </trkpt>
      <trkpt lat="42.4979950" lon="-8.6490860">
        <ele>92.8</ele>
        <time>2021-05-22T08:12:55Z</time>
      </trkpt>
      <trkpt lat="42.4980010" lon="-8.6490870">
        <ele>92.9</ele>
        <time>2021-05-22T08:12:56Z</time>
      </trkpt>
      <trkpt lat="42.4980030" lon="-8.6490860">
        <ele>92.9</ele>
        <time>2021-05-22T08:12:57Z</time>
      </trkpt>
      <trkpt lat="42.4980150" lon="-8.6490760">
        <ele>93.0</ele>
        <time>2021-05-22T08:12:58Z</time>
      </trkpt>
      <trkpt lat="42.4980260" lon="-8.6490720">
        <ele>93.1</ele>
        <time>2021-05-22T08:12:59Z</time>
      </trkpt>
      <trkpt lat="42.4980370" lon="-8.6490680">
        <ele>93.3</ele>
        <time>2021-05-22T08:13:00Z</time>
      </trkpt>
      <trkpt lat="42.4980460" lon="-8.6490630">
        <ele>93.4</ele>
        <time>2021-05-22T08:13:01Z</time>
      </trkpt>
      <trkpt lat="42.4980550" lon="-8.6490580">
        <ele>93.4</ele>
        <time>2021-05-22T08:13:02Z</time>
      </trkpt>
      <trkpt lat="42.4980730" lon="-8.6490650">
        <ele>93.6</ele>
        <time>2021-05-22T08:13:03Z</time>
      </trkpt>
      <trkpt lat="42.4980800" lon="-8.6490670">
        <ele>93.7</ele>
        <time>2021-05-22T08:13:04Z</time>
      </trkpt>
      <trkpt lat="42.4980870" lon="-8.6490650">
        <ele>93.7</ele>
        <time>2021-05-22T08:13:05Z</time>
      </trkpt>
      <trkpt lat="42.4980970" lon="-8.6490630">
        <ele>93.8</ele>
        <time>2021-05-22T08:13:06Z</time>
      </trkpt>
      <trkpt lat="42.4981100" lon="-8.6490640">
        <ele>93.9</ele>
        <time>2021-05-22T08:13:07Z</time>
      </trkpt>
      <trkpt lat="42.4981180" lon="-8.6490700">
        <ele>94.0</ele>
        <time>2021-05-22T08:13:08Z</time>
      </trkpt>
      <trkpt lat="42.4981260" lon="-8.6490750">
        <ele>94.1</ele>
        <time>2021-05-22T08:13:09Z</time>
      </trkpt>
      <trkpt lat="42.4981310" lon="-8.6490740">
        <ele>94.1</ele>
        <time>2021-05-22T08:13:10Z</time>
      </trkpt>
      <trkpt lat="42.4981370" lon="-8.6490740">
        <ele>94.2</ele>
        <time>2021-05-22T08:13:11Z</time>
      </trkpt>
      <trkpt lat="42.4981480" lon="-8.6490760">
        <ele>94.2</ele>
        <time>2021-05-22T08:13:12Z</time>
      </trkpt>
      <trkpt lat="42.4981580" lon="-8.6490720">
        <ele>94.3</ele>
        <time>2021-05-22T08:13:13Z</time>
      </trkpt>
      <trkpt lat="42.4981710" lon="-8.6490780">
        <ele>94.4</ele>
        <time>2021-05-22T08:13:14Z</time>
      </trkpt>
      <trkpt lat="42.4981730" lon="-8.6490820">
        <ele>94.4</ele>
        <time>2021-05-22T08:13:15Z</time>
      </trkpt>
      <trkpt lat="42.4981770" lon="-8.6490830">
        <ele>94.5</ele>
        <time>2021-05-22T08:13:16Z</time>
      </trkpt>
      <trkpt lat="42.4981860" lon="-8.6490890">
        <ele>94.5</ele>
        <time>2021-05-22T08:13:17Z</time>
      </trkpt>
      <trkpt lat="42.4982000" lon="-8.6490850">
        <ele>94.6</ele>
        <time>2021-05-22T08:13:18Z</time>
      </trkpt>
      <trkpt lat="42.4982080" lon="-8.6490860">
        <ele>94.7</ele>
        <time>2021-05-22T08:13:19Z</time>
      </trkpt>
      <trkpt lat="42.4982150" lon="-8.6490930">
        <ele>94.7</ele>
        <time>2021-05-22T08:13:20Z</time>
      </trkpt>
      <trkpt lat="42.4982170" lon="-8.6490910">
        <ele>94.7</ele>
        <time>2021-05-22T08:13:22Z</time>
      </trkpt>
      <trkpt lat="42.4982350" lon="-8.6490940">
        <ele>94.8</ele>
        <time>2021-05-22T08:13:23Z</time>
      </trkpt>
      <trkpt lat="42.4982520" lon="-8.6491010">
        <ele>94.9</ele>
        <time>2021-05-22T08:13:24Z</time>
      </trkpt>
      <trkpt lat="42.4982640" lon="-8.6491030">
        <ele>94.9</ele>
        <time>2021-05-22T08:13:25Z</time>
      </trkpt>
      <trkpt lat="42.4982760" lon="-8.6491040">
        <ele>95.0</ele>
        <time>2021-05-22T08:13:26Z</time>
      </trkpt>
      <trkpt lat="42.4982930" lon="-8.6491120">
        <ele>95.0</ele>
        <time>2021-05-22T08:13:27Z</time>
      </trkpt>
      <trkpt lat="42.4982990" lon="-8.6491130">
        <ele>95.0</ele>
        <time>2021-05-22T08:13:28Z</time>
      </trkpt>
      <trkpt lat="42.4983060" lon="-8.6491140">
        <ele>95.0</ele>
        <time>2021-05-22T08:13:29Z</time>
      </trkpt>
      <trkpt lat="42.4983120" lon="-8.6491150">
        <ele>95.1</ele>
        <time>2021-05-22T08:13:30Z</time>
      </trkpt>
      <trkpt lat="42.4983280" lon="-8.6491220">
        <ele>95.1</ele>
        <time>2021-05-22T08:13:31Z</time>
      </trkpt>
      <trkpt lat="42.4983430" lon="-8.6491230">
        <ele>95.1</ele>
        <time>2021-05-22T08:13:32Z</time>
      </trkpt>
      <trkpt lat="42.4983460" lon="-8.6491210">
        <ele>95.1</ele>
        <time>2021-05-22T08:13:33Z</time>
      </trkpt>
      <trkpt lat="42.4983570" lon="-8.6491200">
        <ele>95.1</ele>
        <time>2021-05-22T08:13:34Z</time>
      </trkpt>
      <trkpt lat="42.4983770" lon="-8.6491170">
        <ele>95.2</ele>
        <time>2021-05-22T08:13:35Z</time>
      </trkpt>
      <trkpt lat="42.4983900" lon="-8.6491150">
        <ele>95.2</ele>
        <time>2021-05-22T08:13:36Z</time>
      </trkpt>
      <trkpt lat="42.4983990" lon="-8.6491220">
        <ele>95.2</ele>
        <time>2021-05-22T08:13:37Z</time>
      </trkpt>
      <trkpt lat="42.4984090" lon="-8.6491210">
        <ele>95.2</ele>
        <time>2021-05-22T08:13:38Z</time>
      </trkpt>
      <trkpt lat="42.4984240" lon="-8.6491190">
        <ele>95.2</ele>
        <time>2021-05-22T08:13:39Z</time>
      </trkpt>
      <trkpt lat="42.4984380" lon="-8.6491150">
        <ele>95.2</ele>
        <time>2021-05-22T08:13:40Z</time>
      </trkpt>
      <trkpt lat="42.4984570" lon="-8.6491170">
        <ele>95.2</ele>
        <time>2021-05-22T08:13:41Z</time>
      </trkpt>
      <trkpt lat="42.4984630" lon="-8.6491160">
        <ele>95.2</ele>
        <time>2021-05-22T08:13:42Z</time>
      </trkpt>
      <trkpt lat="42.4984730" lon="-8.6491190">
        <ele>95.2</ele>
        <time>2021-05-22T08:13:43Z</time>
      </trkpt>
      <trkpt lat="42.4984890" lon="-8.6491120">
        <ele>95.2</ele>
        <time>2021-05-22T08:13:44Z</time>
      </trkpt>
      <trkpt lat="42.4984990" lon="-8.6491110">
        <ele>95.2</ele>
        <time>2021-05-22T08:13:45Z</time>
      </trkpt>
      <trkpt lat="42.4985080" lon="-8.6491040">
        <ele>95.2</ele>
        <time>2021-05-22T08:13:46Z</time>
      </trkpt>
      <trkpt lat="42.4985190" lon="-8.6491040">
        <ele>95.2</ele>
        <time>2021-05-22T08:13:47Z</time>
      </trkpt>
      <trkpt lat="42.4985280" lon="-8.6491040">
        <ele>95.2</ele>
        <time>2021-05-22T08:13:48Z</time>
      </trkpt>
      <trkpt lat="42.4985500" lon="-8.6490970">
        <ele>95.2</ele>
        <time>2021-05-22T08:13:49Z</time>
      </trkpt>
      <trkpt lat="42.4985570" lon="-8.6490900">
        <ele>95.2</ele>
        <time>2021-05-22T08:13:50Z</time>
      </trkpt>
      <trkpt lat="42.4985640" lon="-8.6490830">
        <ele>95.2</ele>
        <time>2021-05-22T08:13:51Z</time>
      </trkpt>
      <trkpt lat="42.4985820" lon="-8.6490690">
        <ele>95.2</ele>
        <time>2021-05-22T08:13:52Z</time>
      </trkpt>
      <trkpt lat="42.4985910" lon="-8.6490670">
        <ele>95.2</ele>
        <time>2021-05-22T08:13:53Z</time>
      </trkpt>
      <trkpt lat="42.4986010" lon="-8.6490640">
        <ele>95.2</ele>
        <time>2021-05-22T08:13:54Z</time>
      </trkpt>
      <trkpt lat="42.4986070" lon="-8.6490620">
        <ele>95.2</ele>
        <time>2021-05-22T08:13:55Z</time>
      </trkpt>
      <trkpt lat="42.4986170" lon="-8.6490650">
        <ele>95.2</ele>
        <time>2021-05-22T08:13:56Z</time>
      </trkpt>
      <trkpt lat="42.4986350" lon="-8.6490720">
        <ele>95.2</ele>
        <time>2021-05-22T08:13:57Z</time>
      </trkpt>
      <trkpt lat="42.4986490" lon="-8.6490760">
        <ele>95.2</ele>
        <time>2021-05-22T08:13:58Z</time>
      </trkpt>
      <trkpt lat="42.4986640" lon="-8.6490790">
        <ele>95.2</ele>
        <time>2021-05-22T08:13:59Z</time>
      </trkpt>
      <trkpt lat="42.4986810" lon="-8.6490820">
        <ele>95.3</ele>
        <time>2021-05-22T08:14:00Z</time>
      </trkpt>
      <trkpt lat="42.4986860" lon="-8.6490860">
        <ele>95.3</ele>
        <time>2021-05-22T08:14:01Z</time>
      </trkpt>
      <trkpt lat="42.4986920" lon="-8.6490890">
        <ele>95.3</ele>
        <time>2021-05-22T08:14:02Z</time>
      </trkpt>
      <trkpt lat="42.4986970" lon="-8.6490930">
        <ele>95.3</ele>
        <time>2021-05-22T08:14:03Z</time>
      </trkpt>
      <trkpt lat="42.4987030" lon="-8.6490960">
        <ele>95.3</ele>
        <time>2021-05-22T08:14:04Z</time>
      </trkpt>
      <trkpt lat="42.4987240" lon="-8.6491060">
        <ele>95.3</ele>
        <time>2021-05-22T08:14:05Z</time>
      </trkpt>
      <trkpt lat="42.4987310" lon="-8.6491130">
        <ele>95.3</ele>
        <time>2021-05-22T08:14:06Z</time>
      </trkpt>
      <trkpt lat="42.4987380" lon="-8.6491190">
        <ele>95.3</ele>
        <time>2021-05-22T08:14:07Z</time>
      </trkpt>
      <trkpt lat="42.4987580" lon="-8.6491290">
        <ele>95.3</ele>
        <time>2021-05-22T08:14:08Z</time>
      </trkpt>
      <trkpt lat="42.4987630" lon="-8.6491380">
        <ele>95.3</ele>
        <time>2021-05-22T08:14:09Z</time>
      </trkpt>
      <trkpt lat="42.4987800" lon="-8.6491490">
        <ele>95.3</ele>
        <time>2021-05-22T08:14:10Z</time>
      </trkpt>
      <trkpt lat="42.4987880" lon="-8.6491510">
        <ele>95.4</ele>
        <time>2021-05-22T08:14:11Z</time>
      </trkpt>
      <trkpt lat="42.4987950" lon="-8.6491540">
        <ele>95.4</ele>
        <time>2021-05-22T08:14:12Z</time>
      </trkpt>
      <trkpt lat="42.4988030" lon="-8.6491560">
        <ele>95.4</ele>
        <time>2021-05-22T08:14:13Z</time>
      </trkpt>
      <trkpt lat="42.4988170" lon="-8.6491650">
        <ele>95.4</ele>
        <time>2021-05-22T08:14:14Z</time>
      </trkpt>
      <trkpt lat="42.4988290" lon="-8.6491720">
        <ele>95.4</ele>
        <time>2021-05-22T08:14:15Z</time>
      </trkpt>
      <trkpt lat="42.4988410" lon="-8.6491790">
        <ele>95.4</ele>
        <time>2021-05-22T08:14:16Z</time>
      </trkpt>
      <trkpt lat="42.4988540" lon="-8.6491890">
        <ele>95.4</ele>
        <time>2021-05-22T08:14:17Z</time>
      </trkpt>
      <trkpt lat="42.4988800" lon="-8.6492050">
        <ele>95.4</ele>
        <time>2021-05-22T08:14:18Z</time>
      </trkpt>
      <trkpt lat="42.4988870" lon="-8.6492120">
        <ele>95.5</ele>
        <time>2021-05-22T08:14:19Z</time>
      </trkpt>
      <trkpt lat="42.4988900" lon="-8.6492140">
        <ele>95.5</ele>
        <time>2021-05-22T08:14:20Z</time>
      </trkpt>
      <trkpt lat="42.4989000" lon="-8.6492250">
        <ele>95.5</ele>
        <time>2021-05-22T08:14:21Z</time>
      </trkpt>
      <trkpt lat="42.4989110" lon="-8.6492350">
        <ele>95.5</ele>
        <time>2021-05-22T08:14:22Z</time>
      </trkpt>
      <trkpt lat="42.4989220" lon="-8.6492390">
        <ele>95.5</ele>
        <time>2021-05-22T08:14:23Z</time>
      </trkpt>
      <trkpt lat="42.4989340" lon="-8.6492410">
        <ele>95.5</ele>
        <time>2021-05-22T08:14:24Z</time>
      </trkpt>
      <trkpt lat="42.4989400" lon="-8.6492420">
        <ele>95.5</ele>
        <time>2021-05-22T08:14:25Z</time>
      </trkpt>
      <trkpt lat="42.4989490" lon="-8.6492480">
        <ele>95.5</ele>
        <time>2021-05-22T08:14:26Z</time>
      </trkpt>
      <trkpt lat="42.4989570" lon="-8.6492560">
        <ele>95.5</ele>
        <time>2021-05-22T08:14:27Z</time>
      </trkpt>
      <trkpt lat="42.4989680" lon="-8.6492620">
        <ele>95.5</ele>
        <time>2021-05-22T08:14:28Z</time>
      </trkpt>
      <trkpt lat="42.4989740" lon="-8.6492720">
        <ele>95.6</ele>
        <time>2021-05-22T08:14:29Z</time>
      </trkpt>
      <trkpt lat="42.4989840" lon="-8.6492760">
        <ele>95.6</ele>
        <time>2021-05-22T08:14:30Z</time>
      </trkpt>
      <trkpt lat="42.4989910" lon="-8.6492850">
        <ele>95.6</ele>
        <time>2021-05-22T08:14:31Z</time>
      </trkpt>
      <trkpt lat="42.4989970" lon="-8.6492960">
        <ele>95.6</ele>
        <time>2021-05-22T08:14:32Z</time>
      </trkpt>
      <trkpt lat="42.4990100" lon="-8.6493010">
        <ele>95.6</ele>
        <time>2021-05-22T08:14:33Z</time>
      </trkpt>
      <trkpt lat="42.4990240" lon="-8.6493020">
        <ele>95.6</ele>
        <time>2021-05-22T08:14:34Z</time>
      </trkpt>
      <trkpt lat="42.4990350" lon="-8.6493040">
        <ele>95.6</ele>
        <time>2021-05-22T08:14:35Z</time>
      </trkpt>
      <trkpt lat="42.4990400" lon="-8.6493070">
        <ele>95.6</ele>
        <time>2021-05-22T08:14:36Z</time>
      </trkpt>
      <trkpt lat="42.4990450" lon="-8.6493090">
        <ele>95.7</ele>
        <time>2021-05-22T08:14:37Z</time>
      </trkpt>
      <trkpt lat="42.4990500" lon="-8.6493110">
        <ele>95.7</ele>
        <time>2021-05-22T08:14:38Z</time>
      </trkpt>
      <trkpt lat="42.4990550" lon="-8.6493140">
        <ele>95.7</ele>
        <time>2021-05-22T08:14:39Z</time>
      </trkpt>
      <trkpt lat="42.4990600" lon="-8.6493160">
        <ele>95.7</ele>
        <time>2021-05-22T08:14:40Z</time>
      </trkpt>
      <trkpt lat="42.4990720" lon="-8.6493100">
        <ele>95.7</ele>
        <time>2021-05-22T08:14:41Z</time>
      </trkpt>
      <trkpt lat="42.4990790" lon="-8.6493120">
        <ele>95.7</ele>
        <time>2021-05-22T08:14:42Z</time>
      </trkpt>
      <trkpt lat="42.4990910" lon="-8.6493160">
        <ele>95.7</ele>
        <time>2021-05-22T08:14:43Z</time>
      </trkpt>
      <trkpt lat="42.4991050" lon="-8.6493150">
        <ele>95.7</ele>
        <time>2021-05-22T08:14:44Z</time>
      </trkpt>
      <trkpt lat="42.4991210" lon="-8.6493280">
        <ele>95.8</ele>
        <time>2021-05-22T08:14:45Z</time>
      </trkpt>
      <trkpt lat="42.4991260" lon="-8.6493350">
        <ele>95.8</ele>
        <time>2021-05-22T08:14:46Z</time>
      </trkpt>
      <trkpt lat="42.4991380" lon="-8.6493390">
        <ele>95.8</ele>
        <time>2021-05-22T08:14:47Z</time>
      </trkpt>
      <trkpt lat="42.4991530" lon="-8.6493410">
        <ele>95.9</ele>
        <time>2021-05-22T08:14:48Z</time>
      </trkpt>
      <trkpt lat="42.4991560" lon="-8.6493540">
        <ele>95.9</ele>
        <time>2021-05-22T08:14:49Z</time>
      </trkpt>
      <trkpt lat="42.4991540" lon="-8.6493690">
        <ele>95.9</ele>
        <time>2021-05-22T08:14:50Z</time>
      </trkpt>
      <trkpt lat="42.4991580" lon="-8.6493790">
        <ele>95.9</ele>
        <time>2021-05-22T08:14:51Z</time>
      </trkpt>
      <trkpt lat="42.4991710" lon="-8.6493840">
        <ele>96.0</ele>
        <time>2021-05-22T08:14:52Z</time>
      </trkpt>
      <trkpt lat="42.4991850" lon="-8.6493890">
        <ele>96.0</ele>
        <time>2021-05-22T08:14:53Z</time>
      </trkpt>
      <trkpt lat="42.4991960" lon="-8.6493900">
        <ele>96.0</ele>
        <time>2021-05-22T08:14:54Z</time>
      </trkpt>
      <trkpt lat="42.4992040" lon="-8.6493960">
        <ele>96.0</ele>
        <time>2021-05-22T08:14:55Z</time>
      </trkpt>
      <trkpt lat="42.4992100" lon="-8.6494040">
        <ele>96.1</ele>
        <time>2021-05-22T08:14:56Z</time>
      </trkpt>
      <trkpt lat="42.4992230" lon="-8.6494080">
        <ele>96.1</ele>
        <time>2021-05-22T08:14:57Z</time>
      </trkpt>
      <trkpt lat="42.4992390" lon="-8.6494130">
        <ele>96.1</ele>
        <time>2021-05-22T08:14:58Z</time>
      </trkpt>
      <trkpt lat="42.4992390" lon="-8.6494240">
        <ele>96.2</ele>
        <time>2021-05-22T08:14:59Z</time>
      </trkpt>
      <trkpt lat="42.4992460" lon="-8.6494270">
        <ele>96.2</ele>
        <time>2021-05-22T08:15:00Z</time>
      </trkpt>
      <trkpt lat="42.4992600" lon="-8.6494340">
        <ele>96.2</ele>
        <time>2021-05-22T08:15:01Z</time>
      </trkpt>
      <trkpt lat="42.4992710" lon="-8.6494380">
        <ele>96.3</ele>
        <time>2021-05-22T08:15:02Z</time>
      </trkpt>
      <trkpt lat="42.4992830" lon="-8.6494390">
        <ele>96.3</ele>
        <time>2021-05-22T08:15:03Z</time>
      </trkpt>
      <trkpt lat="42.4992900" lon="-8.6494400">
        <ele>96.3</ele>
        <time>2021-05-22T08:15:04Z</time>
      </trkpt>
      <trkpt lat="42.4992950" lon="-8.6494420">
        <ele>96.3</ele>
        <time>2021-05-22T08:15:05Z</time>
      </trkpt>
      <trkpt lat="42.4993030" lon="-8.6494440">
        <ele>96.4</ele>
        <time>2021-05-22T08:15:06Z</time>
      </trkpt>
      <trkpt lat="42.4993100" lon="-8.6494400">
        <ele>96.4</ele>
        <time>2021-05-22T08:15:07Z</time>
      </trkpt>
      <trkpt lat="42.4993230" lon="-8.6494360">
        <ele>96.4</ele>
        <time>2021-05-22T08:15:08Z</time>
      </trkpt>
      <trkpt lat="42.4993310" lon="-8.6494370">
        <ele>96.4</ele>
        <time>2021-05-22T08:15:09Z</time>
      </trkpt>
      <trkpt lat="42.4993390" lon="-8.6494400">
        <ele>96.5</ele>
        <time>2021-05-22T08:15:10Z</time>
      </trkpt>
      <trkpt lat="42.4993480" lon="-8.6494460">
        <ele>96.5</ele>
        <time>2021-05-22T08:15:11Z</time>
      </trkpt>
      <trkpt lat="42.4993600" lon="-8.6494450">
        <ele>96.5</ele>
        <time>2021-05-22T08:15:12Z</time>
      </trkpt>
      <trkpt lat="42.4993730" lon="-8.6494520">
        <ele>96.6</ele>
        <time>2021-05-22T08:15:13Z</time>
      </trkpt>
      <trkpt lat="42.4993780" lon="-8.6494530">
        <ele>96.6</ele>
        <time>2021-05-22T08:15:14Z</time>
      </trkpt>
      <trkpt lat="42.4993830" lon="-8.6494580">
        <ele>96.6</ele>
        <time>2021-05-22T08:15:15Z</time>
      </trkpt>
      <trkpt lat="42.4993950" lon="-8.6494580">
        <ele>96.6</ele>
        <time>2021-05-22T08:15:16Z</time>
      </trkpt>
      <trkpt lat="42.4994060" lon="-8.6494620">
        <ele>96.7</ele>
        <time>2021-05-22T08:15:17Z</time>
      </trkpt>
      <trkpt lat="42.4994210" lon="-8.6494720">
        <ele>96.7</ele>
        <time>2021-05-22T08:15:18Z</time>
      </trkpt>
      <trkpt lat="42.4994230" lon="-8.6494790">
        <ele>96.7</ele>
        <time>2021-05-22T08:15:19Z</time>
      </trkpt>
      <trkpt lat="42.4994260" lon="-8.6494880">
        <ele>96.8</ele>
        <time>2021-05-22T08:15:20Z</time>
      </trkpt>
      <trkpt lat="42.4994400" lon="-8.6494980">
        <ele>96.8</ele>
        <time>2021-05-22T08:15:21Z</time>
      </trkpt>
      <trkpt lat="42.4994460" lon="-8.6495000">
        <ele>96.8</ele>
        <time>2021-05-22T08:15:22Z</time>
      </trkpt>
      <trkpt lat="42.4994540" lon="-8.6495100">
        <ele>96.9</ele>
        <time>2021-05-22T08:15:23Z</time>
      </trkpt>
      <trkpt lat="42.4994690" lon="-8.6495100">
        <ele>96.9</ele>
        <time>2021-05-22T08:15:24Z</time>
      </trkpt>
      <trkpt lat="42.4994800" lon="-8.6495060">
        <ele>96.9</ele>
        <time>2021-05-22T08:15:25Z</time>
      </trkpt>
      <trkpt lat="42.4994840" lon="-8.6494930">
        <ele>97.0</ele>
        <time>2021-05-22T08:15:26Z</time>
      </trkpt>
      <trkpt lat="42.4994930" lon="-8.6494880">
        <ele>97.0</ele>
        <time>2021-05-22T08:15:27Z</time>
      </trkpt>
      <trkpt lat="42.4994930" lon="-8.6494740">
        <ele>97.0</ele>
        <time>2021-05-22T08:15:28Z</time>
      </trkpt>
      <trkpt lat="42.4994990" lon="-8.6494630">
        <ele>97.1</ele>
        <time>2021-05-22T08:15:29Z</time>
      </trkpt>
      <trkpt lat="42.4994980" lon="-8.6494590">
        <ele>97.1</ele>
        <time>2021-05-22T08:15:30Z</time>
      </trkpt>
      <trkpt lat="42.4995030" lon="-8.6494510">
        <ele>97.1</ele>
        <time>2021-05-22T08:15:31Z</time>
      </trkpt>
      <trkpt lat="42.4995000" lon="-8.6494460">
        <ele>97.1</ele>
        <time>2021-05-22T08:15:32Z</time>
      </trkpt>
      <trkpt lat="42.4995020" lon="-8.6494390">
        <ele>97.1</ele>
        <time>2021-05-22T08:15:33Z</time>
      </trkpt>
      <trkpt lat="42.4995100" lon="-8.6494250">
        <ele>97.2</ele>
        <time>2021-05-22T08:15:34Z</time>
      </trkpt>
      <trkpt lat="42.4995130" lon="-8.6494240">
        <ele>97.2</ele>
        <time>2021-05-22T08:15:35Z</time>
      </trkpt>
      <trkpt lat="42.4995160" lon="-8.6494220">
        <ele>97.2</ele>
        <time>2021-05-22T08:15:36Z</time>
      </trkpt>
      <trkpt lat="42.4995190" lon="-8.6494210">
        <ele>97.2</ele>
        <time>2021-05-22T08:15:37Z</time>
      </trkpt>
      <trkpt lat="42.4995230" lon="-8.6494200">
        <ele>97.2</ele>
        <time>2021-05-22T08:15:38Z</time>
      </trkpt>
      <trkpt lat="42.4995260" lon="-8.6494190">
        <ele>97.2</ele>
        <time>2021-05-22T08:15:39Z</time>
      </trkpt>
      <trkpt lat="42.4995290" lon="-8.6494180">
        <ele>97.2</ele>
        <time>2021-05-22T08:15:40Z</time>
      </trkpt>
      <trkpt lat="42.4995320" lon="-8.6494160">
        <ele>97.2</ele>
        <time>2021-05-22T08:15:41Z</time>
      </trkpt>
      <trkpt lat="42.4995350" lon="-8.6494150">
        <ele>97.2</ele>
        <time>2021-05-22T08:15:42Z</time>
      </trkpt>
      <trkpt lat="42.4995380" lon="-8.6494140">
        <ele>97.3</ele>
        <time>2021-05-22T08:15:43Z</time>
      </trkpt>
      <trkpt lat="42.4995480" lon="-8.6494190">
        <ele>97.3</ele>
        <time>2021-05-22T08:15:44Z</time>
      </trkpt>
      <trkpt lat="42.4995580" lon="-8.6494260">
        <ele>97.3</ele>
        <time>2021-05-22T08:15:45Z</time>
      </trkpt>
      <trkpt lat="42.4995710" lon="-8.6494240">
        <ele>97.4</ele>
        <time>2021-05-22T08:15:46Z</time>
      </trkpt>
      <trkpt lat="42.4995800" lon="-8.6494280">
        <ele>97.4</ele>
        <time>2021-05-22T08:15:47Z</time>
      </trkpt>
      <trkpt lat="42.4995980" lon="-8.6494280">
        <ele>97.5</ele>
        <time>2021-05-22T08:15:48Z</time>
      </trkpt>
      <trkpt lat="42.4996150" lon="-8.6494170">
        <ele>97.5</ele>
        <time>2021-05-22T08:15:49Z</time>
      </trkpt>
      <trkpt lat="42.4996230" lon="-8.6494090">
        <ele>97.6</ele>
        <time>2021-05-22T08:15:50Z</time>
      </trkpt>
      <trkpt lat="42.4996300" lon="-8.6494000">
        <ele>97.6</ele>
        <time>2021-05-22T08:15:51Z</time>
      </trkpt>
      <trkpt lat="42.4996320" lon="-8.6494030">
        <ele>97.6</ele>
        <time>2021-05-22T08:15:52Z</time>
      </trkpt>
      <trkpt lat="42.4996370" lon="-8.6494090">
        <ele>97.6</ele>
        <time>2021-05-22T08:15:53Z</time>
      </trkpt>
      <trkpt lat="42.4996400" lon="-8.6494170">
        <ele>97.7</ele>
        <time>2021-05-22T08:15:54Z</time>
      </trkpt>
      <trkpt lat="42.4996610" lon="-8.6494230">
        <ele>97.8</ele>
        <time>2021-05-22T08:15:55Z</time>
      </trkpt>
      <trkpt lat="42.4996670" lon="-8.6494260">
        <ele>97.8</ele>
        <time>2021-05-22T08:15:56Z</time>
      </trkpt>
      <trkpt lat="42.4996730" lon="-8.6494360">
        <ele>97.8</ele>
        <time>2021-05-22T08:15:57Z</time>
      </trkpt>
      <trkpt lat="42.4996810" lon="-8.6494420">
        <ele>97.9</ele>
        <time>2021-05-22T08:15:58Z</time>
      </trkpt>
      <trkpt lat="42.4996830" lon="-8.6494410">
        <ele>97.9</ele>
        <time>2021-05-22T08:15:59Z</time>
      </trkpt>
      <trkpt lat="42.4996880" lon="-8.6494400">
        <ele>97.9</ele>
        <time>2021-05-22T08:16:00Z</time>
      </trkpt>
      <trkpt lat="42.4996940" lon="-8.6494280">
        <ele>98.0</ele>
        <time>2021-05-22T08:16:01Z</time>
      </trkpt>
      <trkpt lat="42.4997000" lon="-8.6494230">
        <ele>98.0</ele>
        <time>2021-05-22T08:16:02Z</time>
      </trkpt>
      <trkpt lat="42.4997050" lon="-8.6494190">
        <ele>98.0</ele>
        <time>2021-05-22T08:16:03Z</time>
      </trkpt>
      <trkpt lat="42.4997110" lon="-8.6494140">
        <ele>98.1</ele>
        <time>2021-05-22T08:16:04Z</time>
      </trkpt>
      <trkpt lat="42.4997160" lon="-8.6494090">
        <ele>98.1</ele>
        <time>2021-05-22T08:16:05Z</time>
      </trkpt>
      <trkpt lat="42.4997370" lon="-8.6493960">
        <ele>98.2</ele>
        <time>2021-05-22T08:16:06Z</time>
      </trkpt>
      <trkpt lat="42.4997430" lon="-8.6493860">
        <ele>98.3</ele>
        <time>2021-05-22T08:16:07Z</time>
      </trkpt>
      <trkpt lat="42.4997500" lon="-8.6493870">
        <ele>98.3</ele>
        <time>2021-05-22T08:16:08Z</time>
      </trkpt>
      <trkpt lat="42.4997580" lon="-8.6493810">
        <ele>98.4</ele>
        <time>2021-05-22T08:16:09Z</time>
      </trkpt>
      <trkpt lat="42.4997600" lon="-8.6493750">
        <ele>98.4</ele>
        <time>2021-05-22T08:16:10Z</time>
      </trkpt>
      <trkpt lat="42.4997680" lon="-8.6493710">
        <ele>98.5</ele>
        <time>2021-05-22T08:16:11Z</time>
      </trkpt>
      <trkpt lat="42.4997890" lon="-8.6493780">
        <ele>98.6</ele>
        <time>2021-05-22T08:16:12Z</time>
      </trkpt>
      <trkpt lat="42.4998000" lon="-8.6493850">
        <ele>98.7</ele>
        <time>2021-05-22T08:16:13Z</time>
      </trkpt>
      <trkpt lat="42.4998080" lon="-8.6493870">
        <ele>98.8</ele>
        <time>2021-05-22T08:16:14Z</time>
      </trkpt>
      <trkpt lat="42.4998160" lon="-8.6493940">
        <ele>98.9</ele>
        <time>2021-05-22T08:16:15Z</time>
      </trkpt>
      <trkpt lat="42.4998170" lon="-8.6493960">
        <ele>98.9</ele>
        <time>2021-05-22T08:16:16Z</time>
      </trkpt>
      <trkpt lat="42.4998330" lon="-8.6493870">
        <ele>99.0</ele>
        <time>2021-05-22T08:16:17Z</time>
      </trkpt>
      <trkpt lat="42.4998640" lon="-8.6493790">
        <ele>99.3</ele>
        <time>2021-05-22T08:16:18Z</time>
      </trkpt>
      <trkpt lat="42.4998740" lon="-8.6493770">
        <ele>99.4</ele>
        <time>2021-05-22T08:16:19Z</time>
      </trkpt>
      <trkpt lat="42.4998910" lon="-8.6493780">
        <ele>99.6</ele>
        <time>2021-05-22T08:16:20Z</time>
      </trkpt>
      <trkpt lat="42.4999030" lon="-8.6493760">
        <ele>99.7</ele>
        <time>2021-05-22T08:16:21Z</time>
      </trkpt>
      <trkpt lat="42.4999100" lon="-8.6493710">
        <ele>99.8</ele>
        <time>2021-05-22T08:16:22Z</time>
      </trkpt>
      <trkpt lat="42.4999190" lon="-8.6493680">
        <ele>99.9</ele>
        <time>2021-05-22T08:16:23Z</time>
      </trkpt>
      <trkpt lat="42.4999290" lon="-8.6493610">
        <ele>100.0</ele>
        <time>2021-05-22T08:16:24Z</time>
      </trkpt>
      <trkpt lat="42.4999520" lon="-8.6493490">
        <ele>100.3</ele>
        <time>2021-05-22T08:16:25Z</time>
      </trkpt>
      <trkpt lat="42.4999620" lon="-8.6493470">
        <ele>100.4</ele>
        <time>2021-05-22T08:16:26Z</time>
      </trkpt>
      <trkpt lat="42.4999730" lon="-8.6493460">
        <ele>100.6</ele>
        <time>2021-05-22T08:16:27Z</time>
      </trkpt>
      <trkpt lat="42.4999900" lon="-8.6493380">
        <ele>100.8</ele>
        <time>2021-05-22T08:16:28Z</time>
      </trkpt>
      <trkpt lat="42.5000000" lon="-8.6493360">
        <ele>100.9</ele>
        <time>2021-05-22T08:16:29Z</time>
      </trkpt>
      <trkpt lat="42.5000090" lon="-8.6493350">
        <ele>101.0</ele>
        <time>2021-05-22T08:16:30Z</time>
      </trkpt>
      <trkpt lat="42.5000180" lon="-8.6493330">
        <ele>101.1</ele>
        <time>2021-05-22T08:16:31Z</time>
      </trkpt>
      <trkpt lat="42.5000510" lon="-8.6493570">
        <ele>101.6</ele>
        <time>2021-05-22T08:16:32Z</time>
      </trkpt>
      <trkpt lat="42.5000660" lon="-8.6493660">
        <ele>101.8</ele>
        <time>2021-05-22T08:16:33Z</time>
      </trkpt>
      <trkpt lat="42.5000970" lon="-8.6493700">
        <ele>102.2</ele>
        <time>2021-05-22T08:16:34Z</time>
      </trkpt>
      <trkpt lat="42.5001070" lon="-8.6493700">
        <ele>102.3</ele>
        <time>2021-05-22T08:16:35Z</time>
      </trkpt>
      <trkpt lat="42.5001080" lon="-8.6493710">
        <ele>102.3</ele>
        <time>2021-05-22T08:16:36Z</time>
      </trkpt>
      <trkpt lat="42.5001060" lon="-8.6493710">
        <ele>102.3</ele>
        <time>2021-05-22T08:16:37Z</time>
      </trkpt>
      <trkpt lat="42.5001200" lon="-8.6493830">
        <ele>102.5</ele>
        <time>2021-05-22T08:16:38Z</time>
      </trkpt>
      <trkpt lat="42.5001280" lon="-8.6493920">
        <ele>102.7</ele>
        <time>2021-05-22T08:16:39Z</time>
      </trkpt>
      <trkpt lat="42.5001270" lon="-8.6493920">
        <ele>102.7</ele>
        <time>2021-05-22T08:16:40Z</time>
      </trkpt>
      <trkpt lat="42.5001370" lon="-8.6493950">
        <ele>102.8</ele>
        <time>2021-05-22T08:16:41Z</time>
      </trkpt>
      <trkpt lat="42.5001510" lon="-8.6494070">
        <ele>103.0</ele>
        <time>2021-05-22T08:16:42Z</time>
      </trkpt>
      <trkpt lat="42.5001690" lon="-8.6494110">
        <ele>103.2</ele>
        <time>2021-05-22T08:16:43Z</time>
      </trkpt>
      <trkpt lat="42.5001780" lon="-8.6494180">
        <ele>103.3</ele>
        <time>2021-05-22T08:16:44Z</time>
      </trkpt>
      <trkpt lat="42.5001720" lon="-8.6494140">
        <ele>103.3</ele>
        <time>2021-05-22T08:16:45Z</time>
      </trkpt>
      <trkpt lat="42.5001780" lon="-8.6494240">
        <ele>103.4</ele>
        <time>2021-05-22T08:16:46Z</time>
      </trkpt>
      <trkpt lat="42.5001840" lon="-8.6494330">
        <ele>103.5</ele>
        <time>2021-05-22T08:16:47Z</time>
      </trkpt>
      <trkpt lat="42.5001870" lon="-8.6494420">
        <ele>103.6</ele>
        <time>2021-05-22T08:16:48Z</time>
      </trkpt>
      <trkpt lat="42.5001770" lon="-8.6494590">
        <ele>103.7</ele>
        <time>2021-05-22T08:16:49Z</time>
      </trkpt>
      <trkpt lat="42.5001780" lon="-8.6494650">
        <ele>103.8</ele>
        <time>2021-05-22T08:16:50Z</time>
      </trkpt>
      <trkpt lat="42.5001780" lon="-8.6494790">
        <ele>103.9</ele>
        <time>2021-05-22T08:16:51Z</time>
      </trkpt>
      <trkpt lat="42.5001780" lon="-8.6494940">
        <ele>104.0</ele>
        <time>2021-05-22T08:16:52Z</time>
      </trkpt>
      <trkpt lat="42.5001740" lon="-8.6495040">
        <ele>104.0</ele>
        <time>2021-05-22T08:16:53Z</time>
      </trkpt>
      <trkpt lat="42.5001720" lon="-8.6495120">
        <ele>104.1</ele>
        <time>2021-05-22T08:16:54Z</time>
      </trkpt>
      <trkpt lat="42.5001780" lon="-8.6495140">
        <ele>104.1</ele>
        <time>2021-05-22T08:16:55Z</time>
      </trkpt>
      <trkpt lat="42.5001790" lon="-8.6495150">
        <ele>104.2</ele>
        <time>2021-05-22T08:16:56Z</time>
      </trkpt>
      <trkpt lat="42.5001940" lon="-8.6495030">
        <ele>104.3</ele>
        <time>2021-05-22T08:16:57Z</time>
      </trkpt>
      <trkpt lat="42.5002090" lon="-8.6494940">
        <ele>104.4</ele>
        <time>2021-05-22T08:16:58Z</time>
      </trkpt>
      <trkpt lat="42.5002300" lon="-8.6494970">
        <ele>104.6</ele>
        <time>2021-05-22T08:16:59Z</time>
      </trkpt>
      <trkpt lat="42.5002450" lon="-8.6494970">
        <ele>104.7</ele>
        <time>2021-05-22T08:17:00Z</time>
      </trkpt>
      <trkpt lat="42.5002560" lon="-8.6494960">
        <ele>104.8</ele>
        <time>2021-05-22T08:17:01Z</time>
      </trkpt>
      <trkpt lat="42.5002650" lon="-8.6494990">
        <ele>104.8</ele>
        <time>2021-05-22T08:17:02Z</time>
      </trkpt>
      <trkpt lat="42.5002730" lon="-8.6495010">
        <ele>104.9</ele>
        <time>2021-05-22T08:17:03Z</time>
      </trkpt>
      <trkpt lat="42.5002820" lon="-8.6495040">
        <ele>105.0</ele>
        <time>2021-05-22T08:17:04Z</time>
      </trkpt>
      <trkpt lat="42.5002880" lon="-8.6495060">
        <ele>105.0</ele>
        <time>2021-05-22T08:17:05Z</time>
      </trkpt>
      <trkpt lat="42.5002960" lon="-8.6495050">
        <ele>105.1</ele>
        <time>2021-05-22T08:17:06Z</time>
      </trkpt>
      <trkpt lat="42.5002940" lon="-8.6495060">
        <ele>105.1</ele>
        <time>2021-05-22T08:17:07Z</time>
      </trkpt>
      <trkpt lat="42.5002990" lon="-8.6495090">
        <ele>105.1</ele>
        <time>2021-05-22T08:17:08Z</time>
      </trkpt>
      <trkpt lat="42.5003000" lon="-8.6495170">
        <ele>105.2</ele>
        <time>2021-05-22T08:17:09Z</time>
      </trkpt>
      <trkpt lat="42.5002950" lon="-8.6495230">
        <ele>105.2</ele>
        <time>2021-05-22T08:17:10Z</time>
      </trkpt>
      <trkpt lat="42.5002910" lon="-8.6495200">
        <ele>105.2</ele>
        <time>2021-05-22T08:17:11Z</time>
      </trkpt>
      <trkpt lat="42.5002900" lon="-8.6495200">
        <ele>105.2</ele>
        <time>2021-05-22T08:17:12Z</time>
      </trkpt>
      <trkpt lat="42.5003100" lon="-8.6495250">
        <ele>105.4</ele>
        <time>2021-05-22T08:17:13Z</time>
      </trkpt>
      <trkpt lat="42.5003260" lon="-8.6495330">
        <ele>105.5</ele>
        <time>2021-05-22T08:17:14Z</time>
      </trkpt>
      <trkpt lat="42.5003390" lon="-8.6495420">
        <ele>105.6</ele>
        <time>2021-05-22T08:17:15Z</time>
      </trkpt>
      <trkpt lat="42.5003520" lon="-8.6495460">
        <ele>105.7</ele>
        <time>2021-05-22T08:17:16Z</time>
      </trkpt>
      <trkpt lat="42.5003600" lon="-8.6495500">
        <ele>105.8</ele>
        <time>2021-05-22T08:17:17Z</time>
      </trkpt>
      <trkpt lat="42.5003650" lon="-8.6495530">
        <ele>105.8</ele>
        <time>2021-05-22T08:17:18Z</time>
      </trkpt>
      <trkpt lat="42.5003720" lon="-8.6495540">
        <ele>105.9</ele>
        <time>2021-05-22T08:17:19Z</time>
      </trkpt>
      <trkpt lat="42.5003790" lon="-8.6495530">
        <ele>105.9</ele>
        <time>2021-05-22T08:17:20Z</time>
      </trkpt>
      <trkpt lat="42.5003870" lon="-8.6495540">
        <ele>106.0</ele>
        <time>2021-05-22T08:17:21Z</time>
      </trkpt>
      <trkpt lat="42.5003960" lon="-8.6495580">
        <ele>106.0</ele>
        <time>2021-05-22T08:17:22Z</time>
      </trkpt>
      <trkpt lat="42.5004070" lon="-8.6495660">
        <ele>106.1</ele>
        <time>2021-05-22T08:17:23Z</time>
      </trkpt>
      <trkpt lat="42.5004230" lon="-8.6495780">
        <ele>106.3</ele>
        <time>2021-05-22T08:17:24Z</time>
      </trkpt>
      <trkpt lat="42.5004490" lon="-8.6496010">
        <ele>106.5</ele>
        <time>2021-05-22T08:17:25Z</time>
      </trkpt>
      <trkpt lat="42.5004570" lon="-8.6496070">
        <ele>106.6</ele>
        <time>2021-05-22T08:17:26Z</time>
      </trkpt>
      <trkpt lat="42.5004720" lon="-8.6496130">
        <ele>106.7</ele>
        <time>2021-05-22T08:17:27Z</time>
      </trkpt>
      <trkpt lat="42.5004780" lon="-8.6496200">
        <ele>106.7</ele>
        <time>2021-05-22T08:17:28Z</time>
      </trkpt>
      <trkpt lat="42.5004860" lon="-8.6496240">
        <ele>106.8</ele>
        <time>2021-05-22T08:17:29Z</time>
      </trkpt>
      <trkpt lat="42.5004900" lon="-8.6496250">
        <ele>106.8</ele>
        <time>2021-05-22T08:17:30Z</time>
      </trkpt>
      <trkpt lat="42.5004970" lon="-8.6496290">
        <ele>106.9</ele>
        <time>2021-05-22T08:17:31Z</time>
      </trkpt>
      <trkpt lat="42.5005080" lon="-8.6496320">
        <ele>107.0</ele>
        <time>2021-05-22T08:17:32Z</time>
      </trkpt>
      <trkpt lat="42.5005180" lon="-8.6496420">
        <ele>107.1</ele>
        <time>2021-05-22T08:17:33Z</time>
      </trkpt>
      <trkpt lat="42.5005270" lon="-8.6496380">
        <ele>107.1</ele>
        <time>2021-05-22T08:17:34Z</time>
      </trkpt>
      <trkpt lat="42.5005340" lon="-8.6496420">
        <ele>107.2</ele>
        <time>2021-05-22T08:17:35Z</time>
      </trkpt>
      <trkpt lat="42.5005420" lon="-8.6496450">
        <ele>107.3</ele>
        <time>2021-05-22T08:17:36Z</time>
      </trkpt>
      <trkpt lat="42.5005490" lon="-8.6496490">
        <ele>107.3</ele>
        <time>2021-05-22T08:17:37Z</time>
      </trkpt>
      <trkpt lat="42.5005570" lon="-8.6496520">
        <ele>107.4</ele>
        <time>2021-05-22T08:17:38Z</time>
      </trkpt>
      <trkpt lat="42.5005840" lon="-8.6496610">
        <ele>107.6</ele>
        <time>2021-05-22T08:17:39Z</time>
      </trkpt>
      <trkpt lat="42.5005930" lon="-8.6496690">
        <ele>107.7</ele>
        <time>2021-05-22T08:17:40Z</time>
      </trkpt>
      <trkpt lat="42.5006020" lon="-8.6496830">
        <ele>107.8</ele>
        <time>2021-05-22T08:17:41Z</time>
      </trkpt>
      <trkpt lat="42.5006170" lon="-8.6496870">
        <ele>107.9</ele>
        <time>2021-05-22T08:17:42Z</time>
      </trkpt>
      <trkpt lat="42.5006340" lon="-8.6496980">
        <ele>108.1</ele>
        <time>2021-05-22T08:17:43Z</time>
      </trkpt>
      <trkpt lat="42.5006420" lon="-8.6497040">
        <ele>108.1</ele>
        <time>2021-05-22T08:17:44Z</time>
      </trkpt>
      <trkpt lat="42.5006490" lon="-8.6497110">
        <ele>108.2</ele>
        <time>2021-05-22T08:17:45Z</time>
      </trkpt>
      <trkpt lat="42.5006560" lon="-8.6497170">
        <ele>108.3</ele>
        <time>2021-05-22T08:17:46Z</time>
      </trkpt>
      <trkpt lat="42.5006640" lon="-8.6497240">
        <ele>108.3</ele>
        <time>2021-05-22T08:17:47Z</time>
      </trkpt>
      <trkpt lat="42.5006710" lon="-8.6497300">
        <ele>108.4</ele>
        <time>2021-05-22T08:17:48Z</time>
      </trkpt>
      <trkpt lat="42.5006790" lon="-8.6497370">
        <ele>108.5</ele>
        <time>2021-05-22T08:17:49Z</time>
      </trkpt>
      <trkpt lat="42.5006860" lon="-8.6497430">
        <ele>108.5</ele>
        <time>2021-05-22T08:17:50Z</time>
      </trkpt>
      <trkpt lat="42.5006930" lon="-8.6497500">
        <ele>108.6</ele>
        <time>2021-05-22T08:17:51Z</time>
      </trkpt>
      <trkpt lat="42.5007010" lon="-8.6497560">
        <ele>108.7</ele>
        <time>2021-05-22T08:17:52Z</time>
      </trkpt>
      <trkpt lat="42.5007080" lon="-8.6497630">
        <ele>108.8</ele>
        <time>2021-05-22T08:17:53Z</time>
      </trkpt>
      <trkpt lat="42.5007280" lon="-8.6497800">
        <ele>108.9</ele>
        <time>2021-05-22T08:17:54Z</time>
      </trkpt>
      <trkpt lat="42.5007430" lon="-8.6497740">
        <ele>109.0</ele>
        <time>2021-05-22T08:17:55Z</time>
      </trkpt>
      <trkpt lat="42.5007450" lon="-8.6497720">
        <ele>109.1</ele>
        <time>2021-05-22T08:17:56Z</time>
      </trkpt>
      <trkpt lat="42.5007450" lon="-8.6497690">
        <ele>109.1</ele>
        <time>2021-05-22T08:17:57Z</time>
      </trkpt>
      <trkpt lat="42.5007530" lon="-8.6497640">
        <ele>109.1</ele>
        <time>2021-05-22T08:17:58Z</time>
      </trkpt>
      <trkpt lat="42.5007630" lon="-8.6497620">
        <ele>109.2</ele>
        <time>2021-05-22T08:17:59Z</time>
      </trkpt>
      <trkpt lat="42.5007770" lon="-8.6497650">
        <ele>109.3</ele>
        <time>2021-05-22T08:18:00Z</time>
      </trkpt>
      <trkpt lat="42.5007900" lon="-8.6497670">
        <ele>109.4</ele>
        <time>2021-05-22T08:18:01Z</time>
      </trkpt>
      <trkpt lat="42.5007900" lon="-8.6497600">
        <ele>109.4</ele>
        <time>2021-05-22T08:18:02Z</time>
      </trkpt>
      <trkpt lat="42.5008020" lon="-8.6497620">
        <ele>109.5</ele>
        <time>2021-05-22T08:18:03Z</time>
      </trkpt>
      <trkpt lat="42.5008060" lon="-8.6497590">
        <ele>109.5</ele>
        <time>2021-05-22T08:18:04Z</time>
      </trkpt>
      <trkpt lat="42.5008160" lon="-8.6497610">
        <ele>109.6</ele>
        <time>2021-05-22T08:18:05Z</time>
      </trkpt>
      <trkpt lat="42.5008320" lon="-8.6497610">
        <ele>109.7</ele>
        <time>2021-05-22T08:18:06Z</time>
      </trkpt>
      <trkpt lat="42.5008380" lon="-8.6497600">
        <ele>109.7</ele>
        <time>2021-05-22T08:18:07Z</time>
      </trkpt>
      <trkpt lat="42.5008420" lon="-8.6497530">
        <ele>109.8</ele>
        <time>2021-05-22T08:18:08Z</time>
      </trkpt>
      <trkpt lat="42.5008480" lon="-8.6497550">
        <ele>109.8</ele>
        <time>2021-05-22T08:18:09Z</time>
      </trkpt>
      <trkpt lat="42.5008480" lon="-8.6497510">
        <ele>109.8</ele>
        <time>2021-05-22T08:18:10Z</time>
      </trkpt>
      <trkpt lat="42.5008570" lon="-8.6497480">
        <ele>109.9</ele>
        <time>2021-05-22T08:18:11Z</time>
      </trkpt>
      <trkpt lat="42.5008610" lon="-8.6497410">
        <ele>109.9</ele>
        <time>2021-05-22T08:18:12Z</time>
      </trkpt>
      <trkpt lat="42.5008700" lon="-8.6497370">
        <ele>109.9</ele>
        <time>2021-05-22T08:18:13Z</time>
      </trkpt>
      <trkpt lat="42.5008780" lon="-8.6497400">
        <ele>110.0</ele>
        <time>2021-05-22T08:18:14Z</time>
      </trkpt>
      <trkpt lat="42.5008900" lon="-8.6497340">
        <ele>110.0</ele>
        <time>2021-05-22T08:18:15Z</time>
      </trkpt>
      <trkpt lat="42.5008940" lon="-8.6497300">
        <ele>110.1</ele>
        <time>2021-05-22T08:18:16Z</time>
      </trkpt>
      <trkpt lat="42.5009070" lon="-8.6497340">
        <ele>110.1</ele>
        <time>2021-05-22T08:18:17Z</time>
      </trkpt>
      <trkpt lat="42.5009210" lon="-8.6497340">
        <ele>110.2</ele>
        <time>2021-05-22T08:18:18Z</time>
      </trkpt>
      <trkpt lat="42.5009400" lon="-8.6497280">
        <ele>110.3</ele>
        <time>2021-05-22T08:18:19Z</time>
      </trkpt>
      <trkpt lat="42.5009490" lon="-8.6497220">
        <ele>110.3</ele>
        <time>2021-05-22T08:18:20Z</time>
      </trkpt>
      <trkpt lat="42.5009570" lon="-8.6497170">
        <ele>110.3</ele>
        <time>2021-05-22T08:18:21Z</time>
      </trkpt>
      <trkpt lat="42.5009670" lon="-8.6497150">
        <ele>110.4</ele>
        <time>2021-05-22T08:18:22Z</time>
      </trkpt>
      <trkpt lat="42.5009780" lon="-8.6497160">
        <ele>110.4</ele>
        <time>2021-05-22T08:18:23Z</time>
      </trkpt>
      <trkpt lat="42.5009850" lon="-8.6497150">
        <ele>110.4</ele>
        <time>2021-05-22T08:18:24Z</time>
      </trkpt>
      <trkpt lat="42.5010150" lon="-8.6497100">
        <ele>110.5</ele>
        <time>2021-05-22T08:18:25Z</time>
      </trkpt>
      <trkpt lat="42.5010290" lon="-8.6497050">
        <ele>110.6</ele>
        <time>2021-05-22T08:18:26Z</time>
      </trkpt>
      <trkpt lat="42.5010470" lon="-8.6497040">
        <ele>110.6</ele>
        <time>2021-05-22T08:18:27Z</time>
      </trkpt>
      <trkpt lat="42.5010550" lon="-8.6496950">
        <ele>110.6</ele>
        <time>2021-05-22T08:18:28Z</time>
      </trkpt>
      <trkpt lat="42.5010700" lon="-8.6497030">
        <ele>110.7</ele>
        <time>2021-05-22T08:18:29Z</time>
      </trkpt>
      <trkpt lat="42.5010800" lon="-8.6497010">
        <ele>110.7</ele>
        <time>2021-05-22T08:18:30Z</time>
      </trkpt>
      <trkpt lat="42.5010850" lon="-8.6496960">
        <ele>110.7</ele>
        <time>2021-05-22T08:18:31Z</time>
      </trkpt>
      <trkpt lat="42.5010990" lon="-8.6496920">
        <ele>110.7</ele>
        <time>2021-05-22T08:18:32Z</time>
      </trkpt>
      <trkpt lat="42.5011130" lon="-8.6496890">
        <ele>110.8</ele>
        <time>2021-05-22T08:18:33Z</time>
      </trkpt>
      <trkpt lat="42.5011220" lon="-8.6496780">
        <ele>110.8</ele>
        <time>2021-05-22T08:18:34Z</time>
      </trkpt>
      <trkpt lat="42.5011300" lon="-8.6496730">
        <ele>110.8</ele>
        <time>2021-05-22T08:18:35Z</time>
      </trkpt>
      <trkpt lat="42.5011430" lon="-8.6496630">
        <ele>110.9</ele>
        <time>2021-05-22T08:18:36Z</time>
      </trkpt>
      <trkpt lat="42.5011610" lon="-8.6496520">
        <ele>110.9</ele>
        <time>2021-05-22T08:18:37Z</time>
      </trkpt>
      <trkpt lat="42.5011680" lon="-8.6496500">
        <ele>110.9</ele>
        <time>2021-05-22T08:18:38Z</time>
      </trkpt>
      <trkpt lat="42.5011720" lon="-8.6496440">
        <ele>110.9</ele>
        <time>2021-05-22T08:18:39Z</time>
      </trkpt>
      <trkpt lat="42.5011850" lon="-8.6496380">
        <ele>111.0</ele>
        <time>2021-05-22T08:18:40Z</time>
      </trkpt>
      <trkpt lat="42.5011930" lon="-8.6496330">
        <ele>111.0</ele>
        <time>2021-05-22T08:18:41Z</time>
      </trkpt>
      <trkpt lat="42.5012000" lon="-8.6496280">
        <ele>111.0</ele>
        <time>2021-05-22T08:18:42Z</time>
      </trkpt>
      <trkpt lat="42.5012070" lon="-8.6496230">
        <ele>111.0</ele>
        <time>2021-05-22T08:18:43Z</time>
      </trkpt>
      <trkpt lat="42.5012300" lon="-8.6496260">
        <ele>111.1</ele>
        <time>2021-05-22T08:18:44Z</time>
      </trkpt>
      <trkpt lat="42.5012400" lon="-8.6496280">
        <ele>111.2</ele>
        <time>2021-05-22T08:18:45Z</time>
      </trkpt>
      <trkpt lat="42.5012490" lon="-8.6496290">
        <ele>111.2</ele>
        <time>2021-05-22T08:18:46Z</time>
      </trkpt>
      <trkpt lat="42.5012620" lon="-8.6496300">
        <ele>111.2</ele>
        <time>2021-05-22T08:18:47Z</time>
      </trkpt>
      <trkpt lat="42.5012680" lon="-8.6496330">
        <ele>111.2</ele>
        <time>2021-05-22T08:18:48Z</time>
      </trkpt>
      <trkpt lat="42.5012830" lon="-8.6496410">
        <ele>111.3</ele>
        <time>2021-05-22T08:18:49Z</time>
      </trkpt>
      <trkpt lat="42.5013030" lon="-8.6496480">
        <ele>111.4</ele>
        <time>2021-05-22T08:18:50Z</time>
      </trkpt>
      <trkpt lat="42.5013160" lon="-8.6496620">
        <ele>111.4</ele>
        <time>2021-05-22T08:18:51Z</time>
      </trkpt>
      <trkpt lat="42.5013320" lon="-8.6496720">
        <ele>111.5</ele>
        <time>2021-05-22T08:18:52Z</time>
      </trkpt>
      <trkpt lat="42.5013430" lon="-8.6496800">
        <ele>111.6</ele>
        <time>2021-05-22T08:18:53Z</time>
      </trkpt>
      <trkpt lat="42.5013640" lon="-8.6496940">
        <ele>111.7</ele>
        <time>2021-05-22T08:18:54Z</time>
      </trkpt>
      <trkpt lat="42.5013730" lon="-8.6497000">
        <ele>111.7</ele>
        <time>2021-05-22T08:18:55Z</time>
      </trkpt>
      <trkpt lat="42.5013820" lon="-8.6497060">
        <ele>111.7</ele>
        <time>2021-05-22T08:18:56Z</time>
      </trkpt>
      <trkpt lat="42.5014010" lon="-8.6497150">
        <ele>111.8</ele>
        <time>2021-05-22T08:18:57Z</time>
      </trkpt>
      <trkpt lat="42.5014110" lon="-8.6497200">
        <ele>111.9</ele>
        <time>2021-05-22T08:18:58Z</time>
      </trkpt>
      <trkpt lat="42.5014200" lon="-8.6497260">
        <ele>111.9</ele>
        <time>2021-05-22T08:18:59Z</time>
      </trkpt>
      <trkpt lat="42.5014470" lon="-8.6497530">
        <ele>112.2</ele>
        <time>2021-05-22T08:19:00Z</time>
      </trkpt>
      <trkpt lat="42.5014620" lon="-8.6497600">
        <ele>112.2</ele>
        <time>2021-05-22T08:19:01Z</time>
      </trkpt>
      <trkpt lat="42.5014720" lon="-8.6497690">
        <ele>112.3</ele>
        <time>2021-05-22T08:19:02Z</time>
      </trkpt>
      <trkpt lat="42.5014830" lon="-8.6497750">
        <ele>112.4</ele>
        <time>2021-05-22T08:19:03Z</time>
      </trkpt>
      <trkpt lat="42.5015010" lon="-8.6497770">
        <ele>112.6</ele>
        <time>2021-05-22T08:19:04Z</time>
      </trkpt>
      <trkpt lat="42.5015070" lon="-8.6497800">
        <ele>112.6</ele>
        <time>2021-05-22T08:19:05Z</time>
      </trkpt>
      <trkpt lat="42.5015120" lon="-8.6497860">
        <ele>112.7</ele>
        <time>2021-05-22T08:19:06Z</time>
      </trkpt>
      <trkpt lat="42.5015150" lon="-8.6497880">
        <ele>112.7</ele>
        <time>2021-05-22T08:19:07Z</time>
      </trkpt>
      <trkpt lat="42.5015180" lon="-8.6497990">
        <ele>112.8</ele>
        <time>2021-05-22T08:19:08Z</time>
      </trkpt>
      <trkpt lat="42.5015290" lon="-8.6498070">
        <ele>112.9</ele>
        <time>2021-05-22T08:19:09Z</time>
      </trkpt>
      <trkpt lat="42.5015320" lon="-8.6498130">
        <ele>112.9</ele>
        <time>2021-05-22T08:19:10Z</time>
      </trkpt>
      <trkpt lat="42.5015350" lon="-8.6498200">
        <ele>113.0</ele>
        <time>2021-05-22T08:19:11Z</time>
      </trkpt>
      <trkpt lat="42.5015450" lon="-8.6498440">
        <ele>113.1</ele>
        <time>2021-05-22T08:19:12Z</time>
      </trkpt>
      <trkpt lat="42.5015530" lon="-8.6498410">
        <ele>113.2</ele>
        <time>2021-05-22T08:19:13Z</time>
      </trkpt>
      <trkpt lat="42.5015560" lon="-8.6498410">
        <ele>113.2</ele>
        <time>2021-05-22T08:19:14Z</time>
      </trkpt>
      <trkpt lat="42.5015600" lon="-8.6498510">
        <ele>113.3</ele>
        <time>2021-05-22T08:19:15Z</time>
      </trkpt>
      <trkpt lat="42.5015670" lon="-8.6498610">
        <ele>113.4</ele>
        <time>2021-05-22T08:19:16Z</time>
      </trkpt>
      <trkpt lat="42.5015740" lon="-8.6498700">
        <ele>113.5</ele>
        <time>2021-05-22T08:19:17Z</time>
      </trkpt>
      <trkpt lat="42.5015890" lon="-8.6498810">
        <ele>113.7</ele>
        <time>2021-05-22T08:19:18Z</time>
      </trkpt>
      <trkpt lat="42.5015940" lon="-8.6498900">
        <ele>113.8</ele>
        <time>2021-05-22T08:19:19Z</time>
      </trkpt>
      <trkpt lat="42.5015990" lon="-8.6499010">
        <ele>113.9</ele>
        <time>2021-05-22T08:19:20Z</time>
      </trkpt>
      <trkpt lat="42.5016020" lon="-8.6499110">
        <ele>113.9</ele>
        <time>2021-05-22T08:19:21Z</time>
      </trkpt>
      <trkpt lat="42.5016070" lon="-8.6499180">
        <ele>114.0</ele>
        <time>2021-05-22T08:19:22Z</time>
      </trkpt>
      <trkpt lat="42.5016120" lon="-8.6499320">
        <ele>114.1</ele>
        <time>2021-05-22T08:19:23Z</time>
      </trkpt>
      <trkpt lat="42.5016150" lon="-8.6499450">
        <ele>114.3</ele>
        <time>2021-05-22T08:19:24Z</time>
      </trkpt>
      <trkpt lat="42.5016220" lon="-8.6499560">
        <ele>114.4</ele>
        <time>2021-05-22T08:19:25Z</time>
      </trkpt>
      <trkpt lat="42.5016290" lon="-8.6499580">
        <ele>114.5</ele>
        <time>2021-05-22T08:19:26Z</time>
      </trkpt>
      <trkpt lat="42.5016340" lon="-8.6499660">
        <ele>114.5</ele>
        <time>2021-05-22T08:19:27Z</time>
      </trkpt>
      <trkpt lat="42.5016360" lon="-8.6499720">
        <ele>114.6</ele>
        <time>2021-05-22T08:19:28Z</time>
      </trkpt>
      <trkpt lat="42.5016350" lon="-8.6499810">
        <ele>114.7</ele>
        <time>2021-05-22T08:19:29Z</time>
      </trkpt>
      <trkpt lat="42.5016490" lon="-8.6499890">
        <ele>114.8</ele>
        <time>2021-05-22T08:19:30Z</time>
      </trkpt>
      <trkpt lat="42.5016620" lon="-8.6499880">
        <ele>115.0</ele>
        <time>2021-05-22T08:19:31Z</time>
      </trkpt>
      <trkpt lat="42.5016830" lon="-8.6499970">
        <ele>115.2</ele>
        <time>2021-05-22T08:19:32Z</time>
      </trkpt>
      <trkpt lat="42.5016950" lon="-8.6500080">
        <ele>115.4</ele>
        <time>2021-05-22T08:19:33Z</time>
      </trkpt>
      <trkpt lat="42.5017050" lon="-8.6500120">
        <ele>115.5</ele>
        <time>2021-05-22T08:19:34Z</time>
      </trkpt>
      <trkpt lat="42.5017120" lon="-8.6500180">
        <ele>115.6</ele>
        <time>2021-05-22T08:19:35Z</time>
      </trkpt>
      <trkpt lat="42.5017220" lon="-8.6500290">
        <ele>115.7</ele>
        <time>2021-05-22T08:19:36Z</time>
      </trkpt>
      <trkpt lat="42.5017290" lon="-8.6500460">
        <ele>115.9</ele>
        <time>2021-05-22T08:19:37Z</time>
      </trkpt>
      <trkpt lat="42.5017340" lon="-8.6500540">
        <ele>116.0</ele>
        <time>2021-05-22T08:19:38Z</time>
      </trkpt>
      <trkpt lat="42.5017390" lon="-8.6500630">
        <ele>116.1</ele>
        <time>2021-05-22T08:19:39Z</time>
      </trkpt>
      <trkpt lat="42.5017440" lon="-8.6500720">
        <ele>116.1</ele>
        <time>2021-05-22T08:19:40Z</time>
      </trkpt>
      <trkpt lat="42.5017520" lon="-8.6500710">
        <ele>116.2</ele>
        <time>2021-05-22T08:19:41Z</time>
      </trkpt>
      <trkpt lat="42.5017610" lon="-8.6500790">
        <ele>116.3</ele>
        <time>2021-05-22T08:19:42Z</time>
      </trkpt>
      <trkpt lat="42.5017680" lon="-8.6500840">
        <ele>116.4</ele>
        <time>2021-05-22T08:19:43Z</time>
      </trkpt>
      <trkpt lat="42.5017800" lon="-8.6500890">
        <ele>116.5</ele>
        <time>2021-05-22T08:19:45Z</time>
      </trkpt>
      <trkpt lat="42.5017880" lon="-8.6500950">
        <ele>116.6</ele>
        <time>2021-05-22T08:19:46Z</time>
      </trkpt>
      <trkpt lat="42.5017910" lon="-8.6500990">
        <ele>116.7</ele>
        <time>2021-05-22T08:19:47Z</time>
      </trkpt>
      <trkpt lat="42.5018020" lon="-8.6501120">
        <ele>116.8</ele>
        <time>2021-05-22T08:19:48Z</time>
      </trkpt>
      <trkpt lat="42.5018120" lon="-8.6501160">
        <ele>116.9</ele>
        <time>2021-05-22T08:19:49Z</time>
      </trkpt>
      <trkpt lat="42.5018140" lon="-8.6501140">
        <ele>116.9</ele>
        <time>2021-05-22T08:19:50Z</time>
      </trkpt>
      <trkpt lat="42.5018150" lon="-8.6501260">
        <ele>117.0</ele>
        <time>2021-05-22T08:19:51Z</time>
      </trkpt>
      <trkpt lat="42.5018270" lon="-8.6501360">
        <ele>117.1</ele>
        <time>2021-05-22T08:19:52Z</time>
      </trkpt>
      <trkpt lat="42.5018390" lon="-8.6501460">
        <ele>117.2</ele>
        <time>2021-05-22T08:19:53Z</time>
      </trkpt>
      <trkpt lat="42.5018460" lon="-8.6501460">
        <ele>117.3</ele>
        <time>2021-05-22T08:19:54Z</time>
      </trkpt>
      <trkpt lat="42.5018530" lon="-8.6501540">
        <ele>117.4</ele>
        <time>2021-05-22T08:19:55Z</time>
      </trkpt>
      <trkpt lat="42.5018550" lon="-8.6501560">
        <ele>117.4</ele>
        <time>2021-05-22T08:19:56Z</time>
      </trkpt>
      <trkpt lat="42.5018620" lon="-8.6501610">
        <ele>117.4</ele>
        <time>2021-05-22T08:19:57Z</time>
      </trkpt>
      <trkpt lat="42.5018710" lon="-8.6501680">
        <ele>117.5</ele>
        <time>2021-05-22T08:19:58Z</time>
      </trkpt>
      <trkpt lat="42.5018780" lon="-8.6501740">
        <ele>117.6</ele>
        <time>2021-05-22T08:19:59Z</time>
      </trkpt>
      <trkpt lat="42.5018900" lon="-8.6501860">
        <ele>117.7</ele>
        <time>2021-05-22T08:20:00Z</time>
      </trkpt>
      <trkpt lat="42.5019010" lon="-8.6501990">
        <ele>117.8</ele>
        <time>2021-05-22T08:20:01Z</time>
      </trkpt>
      <trkpt lat="42.5019110" lon="-8.6502200">
        <ele>117.9</ele>
        <time>2021-05-22T08:20:02Z</time>
      </trkpt>
      <trkpt lat="42.5019150" lon="-8.6502270">
        <ele>117.9</ele>
        <time>2021-05-22T08:20:03Z</time>
      </trkpt>
      <trkpt lat="42.5019180" lon="-8.6502340">
        <ele>117.9</ele>
        <time>2021-05-22T08:20:04Z</time>
      </trkpt>
      <trkpt lat="42.5019220" lon="-8.6502410">
        <ele>118.0</ele>
        <time>2021-05-22T08:20:05Z</time>
      </trkpt>
      <trkpt lat="42.5019280" lon="-8.6502440">
        <ele>118.0</ele>
        <time>2021-05-22T08:20:06Z</time>
      </trkpt>
      <trkpt lat="42.5019400" lon="-8.6502450">
        <ele>118.0</ele>
        <time>2021-05-22T08:20:07Z</time>
      </trkpt>
      <trkpt lat="42.5019480" lon="-8.6502560">
        <ele>118.1</ele>
        <time>2021-05-22T08:20:08Z</time>
      </trkpt>
      <trkpt lat="42.5019520" lon="-8.6502680">
        <ele>118.1</ele>
        <time>2021-05-22T08:20:09Z</time>
      </trkpt>
      <trkpt lat="42.5019540" lon="-8.6502770">
        <ele>118.1</ele>
        <time>2021-05-22T08:20:10Z</time>
      </trkpt>
      <trkpt lat="42.5019600" lon="-8.6502770">
        <ele>118.2</ele>
        <time>2021-05-22T08:20:11Z</time>
      </trkpt>
      <trkpt lat="42.5019650" lon="-8.6502940">
        <ele>118.2</ele>
        <time>2021-05-22T08:20:12Z</time>
      </trkpt>
      <trkpt lat="42.5019700" lon="-8.6503060">
        <ele>118.2</ele>
        <time>2021-05-22T08:20:13Z</time>
      </trkpt>
      <trkpt lat="42.5019780" lon="-8.6503110">
        <ele>118.3</ele>
        <time>2021-05-22T08:20:14Z</time>
      </trkpt>
      <trkpt lat="42.5019840" lon="-8.6503150">
        <ele>118.3</ele>
        <time>2021-05-22T08:20:15Z</time>
      </trkpt>
      <trkpt lat="42.5019900" lon="-8.6503150">
        <ele>118.3</ele>
        <time>2021-05-22T08:20:16Z</time>
      </trkpt>
      <trkpt lat="42.5020030" lon="-8.6503080">
        <ele>118.3</ele>
        <time>2021-05-22T08:20:17Z</time>
      </trkpt>
      <trkpt lat="42.5020180" lon="-8.6503100">
        <ele>118.3</ele>
        <time>2021-05-22T08:20:18Z</time>
      </trkpt>
      <trkpt lat="42.5020360" lon="-8.6503150">
        <ele>118.3</ele>
        <time>2021-05-22T08:20:19Z</time>
      </trkpt>
      <trkpt lat="42.5020470" lon="-8.6503280">
        <ele>118.4</ele>
        <time>2021-05-22T08:20:20Z</time>
      </trkpt>
      <trkpt lat="42.5020660" lon="-8.6503320">
        <ele>118.4</ele>
        <time>2021-05-22T08:20:21Z</time>
      </trkpt>
      <trkpt lat="42.5020750" lon="-8.6503330">
        <ele>118.4</ele>
        <time>2021-05-22T08:20:22Z</time>
      </trkpt>
      <trkpt lat="42.5020850" lon="-8.6503350">
        <ele>118.4</ele>
        <time>2021-05-22T08:20:23Z</time>
      </trkpt>
      <trkpt lat="42.5021020" lon="-8.6503460">
        <ele>118.4</ele>
        <time>2021-05-22T08:20:24Z</time>
      </trkpt>
      <trkpt lat="42.5021100" lon="-8.6503480">
        <ele>118.3</ele>
        <time>2021-05-22T08:20:25Z</time>
      </trkpt>
      <trkpt lat="42.5021170" lon="-8.6503510">
        <ele>118.3</ele>
        <time>2021-05-22T08:20:26Z</time>
      </trkpt>
      <trkpt lat="42.5021240" lon="-8.6503540">
        <ele>118.3</ele>
        <time>2021-05-22T08:20:27Z</time>
      </trkpt>
      <trkpt lat="42.5021290" lon="-8.6503630">
        <ele>118.3</ele>
        <time>2021-05-22T08:20:29Z</time>
      </trkpt>
      <trkpt lat="42.5021400" lon="-8.6503710">
        <ele>118.3</ele>
        <time>2021-05-22T08:20:30Z</time>
      </trkpt>
      <trkpt lat="42.5021520" lon="-8.6503860">
        <ele>118.3</ele>
        <time>2021-05-22T08:20:31Z</time>
      </trkpt>
      <trkpt lat="42.5021620" lon="-8.6503870">
        <ele>118.3</ele>
        <time>2021-05-22T08:20:32Z</time>
      </trkpt>
      <trkpt lat="42.5021650" lon="-8.6503910">
        <ele>118.3</ele>
        <time>2021-05-22T08:20:33Z</time>
      </trkpt>
      <trkpt lat="42.5021700" lon="-8.6503980">
        <ele>118.3</ele>
        <time>2021-05-22T08:20:34Z</time>
      </trkpt>
      <trkpt lat="42.5021800" lon="-8.6504100">
        <ele>118.3</ele>
        <time>2021-05-22T08:20:35Z</time>
      </trkpt>
      <trkpt lat="42.5021860" lon="-8.6504170">
        <ele>118.3</ele>
        <time>2021-05-22T08:20:36Z</time>
      </trkpt>
      <trkpt lat="42.5021930" lon="-8.6504210">
        <ele>118.2</ele>
        <time>2021-05-22T08:20:37Z</time>
      </trkpt>
      <trkpt lat="42.5022000" lon="-8.6504260">
        <ele>118.2</ele>
        <time>2021-05-22T08:20:38Z</time>
      </trkpt>
      <trkpt lat="42.5022070" lon="-8.6504300">
        <ele>118.2</ele>
        <time>2021-05-22T08:20:39Z</time>
      </trkpt>
      <trkpt lat="42.5022140" lon="-8.6504340">
        <ele>118.2</ele>
        <time>2021-05-22T08:20:40Z</time>
      </trkpt>
      <trkpt lat="42.5022250" lon="-8.6504430">
        <ele>118.2</ele>
        <time>2021-05-22T08:20:41Z</time>
      </trkpt>
      <trkpt lat="42.5022300" lon="-8.6504420">
        <ele>118.2</ele>
        <time>2021-05-22T08:20:42Z</time>
      </trkpt>
      <trkpt lat="42.5022430" lon="-8.6504540">
        <ele>118.2</ele>
        <time>2021-05-22T08:20:43Z</time>
      </trkpt>
      <trkpt lat="42.5022490" lon="-8.6504500">
        <ele>118.2</ele>
        <time>2021-05-22T08:20:44Z</time>
      </trkpt>
      <trkpt lat="42.5022640" lon="-8.6504550">
        <ele>118.1</ele>
        <time>2021-05-22T08:20:45Z</time>
      </trkpt>
      <trkpt lat="42.5022760" lon="-8.6504600">
        <ele>118.1</ele>
        <time>2021-05-22T08:20:46Z</time>
      </trkpt>
      <trkpt lat="42.5022960" lon="-8.6504610">
        <ele>118.1</ele>
        <time>2021-05-22T08:20:47Z</time>
      </trkpt>
      <trkpt lat="42.5023050" lon="-8.6504680">
        <ele>118.1</ele>
        <time>2021-05-22T08:20:48Z</time>
      </trkpt>
      <trkpt lat="42.5023140" lon="-8.6504720">
        <ele>118.1</ele>
        <time>2021-05-22T08:20:49Z</time>
      </trkpt>
      <trkpt lat="42.5023170" lon="-8.6504780">
        <ele>118.1</ele>
        <time>2021-05-22T08:20:50Z</time>
      </trkpt>
      <trkpt lat="42.5023240" lon="-8.6504800">
        <ele>118.0</ele>
        <time>2021-05-22T08:20:51Z</time>
      </trkpt>
      <trkpt lat="42.5023360" lon="-8.6504890">
        <ele>118.0</ele>
        <time>2021-05-22T08:20:52Z</time>
      </trkpt>
      <trkpt lat="42.5023480" lon="-8.6504890">
        <ele>118.0</ele>
        <time>2021-05-22T08:20:53Z</time>
      </trkpt>
      <trkpt lat="42.5023670" lon="-8.6504970">
        <ele>118.0</ele>
        <time>2021-05-22T08:20:54Z</time>
      </trkpt>
      <trkpt lat="42.5023740" lon="-8.6504980">
        <ele>118.0</ele>
        <time>2021-05-22T08:20:55Z</time>
      </trkpt>
      <trkpt lat="42.5023880" lon="-8.6505040">
        <ele>118.0</ele>
        <time>2021-05-22T08:20:56Z</time>
      </trkpt>
      <trkpt lat="42.5023980" lon="-8.6505080">
        <ele>118.0</ele>
        <time>2021-05-22T08:20:57Z</time>
      </trkpt>
      <trkpt lat="42.5023990" lon="-8.6505070">
        <ele>118.0</ele>
        <time>2021-05-22T08:20:58Z</time>
      </trkpt>
      <trkpt lat="42.5024090" lon="-8.6505090">
        <ele>117.9</ele>
        <time>2021-05-22T08:20:59Z</time>
      </trkpt>
      <trkpt lat="42.5024170" lon="-8.6505100">
        <ele>117.9</ele>
        <time>2021-05-22T08:21:00Z</time>
      </trkpt>
      <trkpt lat="42.5024320" lon="-8.6505150">
        <ele>117.9</ele>
        <time>2021-05-22T08:21:01Z</time>
      </trkpt>
      <trkpt lat="42.5024400" lon="-8.6505130">
        <ele>117.9</ele>
        <time>2021-05-22T08:21:02Z</time>
      </trkpt>
      <trkpt lat="42.5024490" lon="-8.6505180">
        <ele>117.9</ele>
        <time>2021-05-22T08:21:03Z</time>
      </trkpt>
      <trkpt lat="42.5024580" lon="-8.6505270">
        <ele>117.9</ele>
        <time>2021-05-22T08:21:04Z</time>
      </trkpt>
      <trkpt lat="42.5024690" lon="-8.6505300">
        <ele>117.9</ele>
        <time>2021-05-22T08:21:05Z</time>
      </trkpt>
      <trkpt lat="42.5024770" lon="-8.6505260">
        <ele>117.9</ele>
        <time>2021-05-22T08:21:06Z</time>
      </trkpt>
      <trkpt lat="42.5024940" lon="-8.6505300">
        <ele>117.9</ele>
        <time>2021-05-22T08:21:07Z</time>
      </trkpt>
      <trkpt lat="42.5025010" lon="-8.6505330">
        <ele>117.9</ele>
        <time>2021-05-22T08:21:08Z</time>
      </trkpt>
      <trkpt lat="42.5025140" lon="-8.6505380">
        <ele>117.9</ele>
        <time>2021-05-22T08:21:09Z</time>
      </trkpt>
      <trkpt lat="42.5025210" lon="-8.6505410">
        <ele>117.9</ele>
        <time>2021-05-22T08:21:10Z</time>
      </trkpt>
      <trkpt lat="42.5025340" lon="-8.6505530">
        <ele>117.9</ele>
        <time>2021-05-22T08:21:11Z</time>
      </trkpt>
      <trkpt lat="42.5025420" lon="-8.6505540">
        <ele>117.9</ele>
        <time>2021-05-22T08:21:12Z</time>
      </trkpt>
      <trkpt lat="42.5025490" lon="-8.6505560">
        <ele>117.9</ele>
        <time>2021-05-22T08:21:13Z</time>
      </trkpt>
      <trkpt lat="42.5025570" lon="-8.6505580">
        <ele>117.9</ele>
        <time>2021-05-22T08:21:14Z</time>
      </trkpt>
      <trkpt lat="42.5025610" lon="-8.6505640">
        <ele>117.9</ele>
        <time>2021-05-22T08:21:15Z</time>
      </trkpt>
      <trkpt lat="42.5025750" lon="-8.6505770">
        <ele>117.8</ele>
        <time>2021-05-22T08:21:16Z</time>
      </trkpt>
      <trkpt lat="42.5025850" lon="-8.6505750">
        <ele>117.8</ele>
        <time>2021-05-22T08:21:17Z</time>
      </trkpt>
      <trkpt lat="42.5025960" lon="-8.6505770">
        <ele>117.8</ele>
        <time>2021-05-22T08:21:18Z</time>
      </trkpt>
      <trkpt lat="42.5026030" lon="-8.6505870">
        <ele>117.8</ele>
        <time>2021-05-22T08:21:19Z</time>
      </trkpt>
      <trkpt lat="42.5026080" lon="-8.6505920">
        <ele>117.8</ele>
        <time>2021-05-22T08:21:20Z</time>
      </trkpt>
      <trkpt lat="42.5026170" lon="-8.6505950">
        <ele>117.8</ele>
        <time>2021-05-22T08:21:21Z</time>
      </trkpt>
      <trkpt lat="42.5026270" lon="-8.6505950">
        <ele>117.8</ele>
        <time>2021-05-22T08:21:22Z</time>
      </trkpt>
      <trkpt lat="42.5026380" lon="-8.6506020">
        <ele>117.8</ele>
        <time>2021-05-22T08:21:23Z</time>
      </trkpt>
      <trkpt lat="42.5026410" lon="-8.6506030">
        <ele>117.8</ele>
        <time>2021-05-22T08:21:24Z</time>
      </trkpt>
      <trkpt lat="42.5026490" lon="-8.6506120">
        <ele>117.8</ele>
        <time>2021-05-22T08:21:25Z</time>
      </trkpt>
      <trkpt lat="42.5026690" lon="-8.6506270">
        <ele>117.8</ele>
        <time>2021-05-22T08:21:26Z</time>
      </trkpt>
      <trkpt lat="42.5026780" lon="-8.6506330">
        <ele>117.8</ele>
        <time>2021-05-22T08:21:27Z</time>
      </trkpt>
      <trkpt lat="42.5026870" lon="-8.6506400">
        <ele>117.8</ele>
        <time>2021-05-22T08:21:28Z</time>
      </trkpt>
      <trkpt lat="42.5027010" lon="-8.6506440">
        <ele>117.8</ele>
        <time>2021-05-22T08:21:29Z</time>
      </trkpt>
      <trkpt lat="42.5027100" lon="-8.6506510">
        <ele>117.8</ele>
        <time>2021-05-22T08:21:30Z</time>
      </trkpt>
      <trkpt lat="42.5027220" lon="-8.6506560">
        <ele>117.8</ele>
        <time>2021-05-22T08:21:31Z</time>
      </trkpt>
      <trkpt lat="42.5027290" lon="-8.6506590">
        <ele>117.8</ele>
        <time>2021-05-22T08:21:32Z</time>
      </trkpt>
      <trkpt lat="42.5027350" lon="-8.6506610">
        <ele>117.8</ele>
        <time>2021-05-22T08:21:33Z</time>
      </trkpt>
      <trkpt lat="42.5027410" lon="-8.6506630">
        <ele>117.8</ele>
        <time>2021-05-22T08:21:34Z</time>
      </trkpt>
      <trkpt lat="42.5027470" lon="-8.6506660">
        <ele>117.8</ele>
        <time>2021-05-22T08:21:35Z</time>
      </trkpt>
      <trkpt lat="42.5027530" lon="-8.6506680">
        <ele>117.8</ele>
        <time>2021-05-22T08:21:36Z</time>
      </trkpt>
      <trkpt lat="42.5027590" lon="-8.6506700">
        <ele>117.8</ele>
        <time>2021-05-22T08:21:37Z</time>
      </trkpt>
      <trkpt lat="42.5027620" lon="-8.6506740">
        <ele>117.8</ele>
        <time>2021-05-22T08:21:38Z</time>
      </trkpt>
      <trkpt lat="42.5027750" lon="-8.6506800">
        <ele>117.8</ele>
        <time>2021-05-22T08:21:39Z</time>
      </trkpt>
      <trkpt lat="42.5027800" lon="-8.6506840">
        <ele>117.8</ele>
        <time>2021-05-22T08:21:40Z</time>
      </trkpt>
      <trkpt lat="42.5027870" lon="-8.6506900">
        <ele>117.8</ele>
        <time>2021-05-22T08:21:41Z</time>
      </trkpt>
      <trkpt lat="42.5028040" lon="-8.6506980">
        <ele>117.8</ele>
        <time>2021-05-22T08:21:42Z</time>
      </trkpt>
      <trkpt lat="42.5028150" lon="-8.6506900">
        <ele>117.8</ele>
        <time>2021-05-22T08:21:43Z</time>
      </trkpt>
      <trkpt lat="42.5028180" lon="-8.6507070">
        <ele>117.8</ele>
        <time>2021-05-22T08:21:44Z</time>
      </trkpt>
      <trkpt lat="42.5028240" lon="-8.6507150">
        <ele>117.8</ele>
        <time>2021-05-22T08:21:45Z</time>
      </trkpt>
      <trkpt lat="42.5028290" lon="-8.6507220">
        <ele>117.8</ele>
        <time>2021-05-22T08:21:46Z</time>
      </trkpt>
      <trkpt lat="42.5028520" lon="-8.6507320">
        <ele>117.8</ele>
        <time>2021-05-22T08:21:47Z</time>
      </trkpt>
      <trkpt lat="42.5028600" lon="-8.6507350">
        <ele>117.8</ele>
        <time>2021-05-22T08:21:48Z</time>
      </trkpt>
      <trkpt lat="42.5028680" lon="-8.6507370">
        <ele>117.8</ele>
        <time>2021-05-22T08:21:49Z</time>
      </trkpt>
      <trkpt lat="42.5028730" lon="-8.6507450">
        <ele>117.8</ele>
        <time>2021-05-22T08:21:50Z</time>
      </trkpt>
      <trkpt lat="42.5028830" lon="-8.6507490">
        <ele>117.8</ele>
        <time>2021-05-22T08:21:51Z</time>
      </trkpt>
      <trkpt lat="42.5028940" lon="-8.6507450">
        <ele>117.8</ele>
        <time>2021-05-22T08:21:52Z</time>
      </trkpt>
      <trkpt lat="42.5029030" lon="-8.6507450">
        <ele>117.8</ele>
        <time>2021-05-22T08:21:53Z</time>
      </trkpt>
      <trkpt lat="42.5029110" lon="-8.6507550">
        <ele>117.8</ele>
        <time>2021-05-22T08:21:54Z</time>
      </trkpt>
      <trkpt lat="42.5029250" lon="-8.6507560">
        <ele>117.8</ele>
        <time>2021-05-22T08:21:55Z</time>
      </trkpt>
      <trkpt lat="42.5029400" lon="-8.6507560">
        <ele>117.8</ele>
        <time>2021-05-22T08:21:56Z</time>
      </trkpt>
      <trkpt lat="42.5029490" lon="-8.6507590">
        <ele>117.9</ele>
        <time>2021-05-22T08:21:57Z</time>
      </trkpt>
      <trkpt lat="42.5029570" lon="-8.6507620">
        <ele>117.9</ele>
        <time>2021-05-22T08:21:58Z</time>
      </trkpt>
      <trkpt lat="42.5029650" lon="-8.6507650">
        <ele>117.9</ele>
        <time>2021-05-22T08:21:59Z</time>
      </trkpt>
      <trkpt lat="42.5029790" lon="-8.6507750">
        <ele>117.9</ele>
        <time>2021-05-22T08:22:00Z</time>
      </trkpt>
      <trkpt lat="42.5029870" lon="-8.6507790">
        <ele>117.9</ele>
        <time>2021-05-22T08:22:01Z</time>
      </trkpt>
      <trkpt lat="42.5029950" lon="-8.6507830">
        <ele>117.9</ele>
        <time>2021-05-22T08:22:02Z</time>
      </trkpt>
      <trkpt lat="42.5030030" lon="-8.6507870">
        <ele>117.9</ele>
        <time>2021-05-22T08:22:03Z</time>
      </trkpt>
      <trkpt lat="42.5030040" lon="-8.6507860">
        <ele>117.9</ele>
        <time>2021-05-22T08:22:04Z</time>
      </trkpt>
      <trkpt lat="42.5030110" lon="-8.6507780">
        <ele>117.9</ele>
        <time>2021-05-22T08:22:05Z</time>
      </trkpt>
      <trkpt lat="42.5030170" lon="-8.6507780">
        <ele>117.9</ele>
        <time>2021-05-22T08:22:06Z</time>
      </trkpt>
      <trkpt lat="42.5030270" lon="-8.6507870">
        <ele>117.9</ele>
        <time>2021-05-22T08:22:07Z</time>
      </trkpt>
      <trkpt lat="42.5030360" lon="-8.6508010">
        <ele>117.9</ele>
        <time>2021-05-22T08:22:08Z</time>
      </trkpt>
      <trkpt lat="42.5030570" lon="-8.6508150">
        <ele>117.9</ele>
        <time>2021-05-22T08:22:09Z</time>
      </trkpt>
      <trkpt lat="42.5030680" lon="-8.6508200">
        <ele>117.9</ele>
        <time>2021-05-22T08:22:10Z</time>
      </trkpt>
      <trkpt lat="42.5030750" lon="-8.6508320">
        <ele>117.9</ele>
        <time>2021-05-22T08:22:11Z</time>
      </trkpt>
      <trkpt lat="42.5030930" lon="-8.6508400">
        <ele>118.0</ele>
        <time>2021-05-22T08:22:12Z</time>
      </trkpt>
      <trkpt lat="42.5031040" lon="-8.6508390">
        <ele>118.0</ele>
        <time>2021-05-22T08:22:13Z</time>
      </trkpt>
      <trkpt lat="42.5031210" lon="-8.6508290">
        <ele>118.0</ele>
        <time>2021-05-22T08:22:14Z</time>
      </trkpt>
      <trkpt lat="42.5031320" lon="-8.6508340">
        <ele>118.0</ele>
        <time>2021-05-22T08:22:15Z</time>
      </trkpt>
      <trkpt lat="42.5031440" lon="-8.6508440">
        <ele>118.0</ele>
        <time>2021-05-22T08:22:16Z</time>
      </trkpt>
      <trkpt lat="42.5031470" lon="-8.6508450">
        <ele>118.0</ele>
        <time>2021-05-22T08:22:17Z</time>
      </trkpt>
      <trkpt lat="42.5031610" lon="-8.6508520">
        <ele>118.0</ele>
        <time>2021-05-22T08:22:18Z</time>
      </trkpt>
      <trkpt lat="42.5031720" lon="-8.6508610">
        <ele>118.1</ele>
        <time>2021-05-22T08:22:19Z</time>
      </trkpt>
      <trkpt lat="42.5031830" lon="-8.6508670">
        <ele>118.1</ele>
        <time>2021-05-22T08:22:20Z</time>
      </trkpt>
      <trkpt lat="42.5031930" lon="-8.6508750">
        <ele>118.1</ele>
        <time>2021-05-22T08:22:21Z</time>
      </trkpt>
      <trkpt lat="42.5031940" lon="-8.6508790">
        <ele>118.1</ele>
        <time>2021-05-22T08:22:22Z</time>
      </trkpt>
      <trkpt lat="42.5032040" lon="-8.6508770">
        <ele>118.1</ele>
        <time>2021-05-22T08:22:23Z</time>
      </trkpt>
      <trkpt lat="42.5032170" lon="-8.6508830">
        <ele>118.1</ele>
        <time>2021-05-22T08:22:24Z</time>
      </trkpt>
      <trkpt lat="42.5032350" lon="-8.6508880">
        <ele>118.2</ele>
        <time>2021-05-22T08:22:25Z</time>
      </trkpt>
      <trkpt lat="42.5032140" lon="-8.6508850">
        <ele>118.2</ele>
        <time>2021-05-22T08:22:26Z</time>
      </trkpt>
      <trkpt lat="42.5032060" lon="-8.6508900">
        <ele>118.3</ele>
        <time>2021-05-22T08:22:27Z</time>
      </trkpt>
      <trkpt lat="42.5031970" lon="-8.6508950">
        <ele>118.3</ele>
        <time>2021-05-22T08:22:28Z</time>
      </trkpt>
      <trkpt lat="42.5031980" lon="-8.6508990">
        <ele>118.3</ele>
        <time>2021-05-22T08:22:29Z</time>
      </trkpt>
      <trkpt lat="42.5032010" lon="-8.6508990">
        <ele>118.3</ele>
        <time>2021-05-22T08:22:30Z</time>
      </trkpt>
      <trkpt lat="42.5032030" lon="-8.6508990">
        <ele>118.3</ele>
        <time>2021-05-22T08:22:31Z</time>
      </trkpt>
      <trkpt lat="42.5032050" lon="-8.6508990">
        <ele>118.3</ele>
        <time>2021-05-22T08:22:32Z</time>
      </trkpt>
      <trkpt lat="42.5032070" lon="-8.6508990">
        <ele>118.3</ele>
        <time>2021-05-22T08:22:33Z</time>
      </trkpt>
      <trkpt lat="42.5032100" lon="-8.6508990">
        <ele>118.3</ele>
        <time>2021-05-22T08:22:34Z</time>
      </trkpt>
      <trkpt lat="42.5032120" lon="-8.6508990">
        <ele>118.3</ele>
        <time>2021-05-22T08:22:35Z</time>
      </trkpt>
      <trkpt lat="42.5032140" lon="-8.6508990">
        <ele>118.3</ele>
        <time>2021-05-22T08:22:36Z</time>
      </trkpt>
      <trkpt lat="42.5032170" lon="-8.6508980">
        <ele>118.4</ele>
        <time>2021-05-22T08:22:37Z</time>
      </trkpt>
      <trkpt lat="42.5032190" lon="-8.6508980">
        <ele>118.4</ele>
        <time>2021-05-22T08:22:38Z</time>
      </trkpt>
      <trkpt lat="42.5032210" lon="-8.6508980">
        <ele>118.4</ele>
        <time>2021-05-22T08:22:39Z</time>
      </trkpt>
      <trkpt lat="42.5032240" lon="-8.6508980">
        <ele>118.4</ele>
        <time>2021-05-22T08:22:40Z</time>
      </trkpt>
      <trkpt lat="42.5032260" lon="-8.6508980">
        <ele>118.4</ele>
        <time>2021-05-22T08:22:41Z</time>
      </trkpt>
      <trkpt lat="42.5032280" lon="-8.6508980">
        <ele>118.4</ele>
        <time>2021-05-22T08:22:42Z</time>
      </trkpt>
      <trkpt lat="42.5032300" lon="-8.6508980">
        <ele>118.4</ele>
        <time>2021-05-22T08:22:43Z</time>
      </trkpt>
      <trkpt lat="42.5032330" lon="-8.6508980">
        <ele>118.4</ele>
        <time>2021-05-22T08:22:44Z</time>
      </trkpt>
      <trkpt lat="42.5032350" lon="-8.6508980">
        <ele>118.4</ele>
        <time>2021-05-22T08:22:45Z</time>
      </trkpt>
      <trkpt lat="42.5032450" lon="-8.6508840">
        <ele>118.4</ele>
        <time>2021-05-22T08:22:46Z</time>
      </trkpt>
      <trkpt lat="42.5032570" lon="-8.6508790">
        <ele>118.5</ele>
        <time>2021-05-22T08:22:47Z</time>
      </trkpt>
      <trkpt lat="42.5032660" lon="-8.6508770">
        <ele>118.5</ele>
        <time>2021-05-22T08:22:48Z</time>
      </trkpt>
      <trkpt lat="42.5032760" lon="-8.6508780">
        <ele>118.5</ele>
        <time>2021-05-22T08:22:49Z</time>
      </trkpt>
      <trkpt lat="42.5032960" lon="-8.6508850">
        <ele>118.6</ele>
        <time>2021-05-22T08:22:50Z</time>
      </trkpt>
      <trkpt lat="42.5033220" lon="-8.6508910">
        <ele>118.7</ele>
        <time>2021-05-22T08:22:51Z</time>
      </trkpt>
      <trkpt lat="42.5033280" lon="-8.6508940">
        <ele>118.7</ele>
        <time>2021-05-22T08:22:52Z</time>
      </trkpt>
      <trkpt lat="42.5033350" lon="-8.6508970">
        <ele>118.7</ele>
        <time>2021-05-22T08:22:53Z</time>
      </trkpt>
      <trkpt lat="42.5033470" lon="-8.6508920">
        <ele>118.8</ele>
        <time>2021-05-22T08:22:54Z</time>
      </trkpt>
      <trkpt lat="42.5033540" lon="-8.6508920">
        <ele>118.8</ele>
        <time>2021-05-22T08:22:55Z</time>
      </trkpt>
      <trkpt lat="42.5033630" lon="-8.6508850">
        <ele>118.9</ele>
        <time>2021-05-22T08:22:56Z</time>
      </trkpt>
      <trkpt lat="42.5033770" lon="-8.6508850">
        <ele>118.9</ele>
        <time>2021-05-22T08:22:57Z</time>
      </trkpt>
      <trkpt lat="42.5033910" lon="-8.6508720">
        <ele>119.0</ele>
        <time>2021-05-22T08:22:58Z</time>
      </trkpt>
      <trkpt lat="42.5034260" lon="-8.6508740">
        <ele>119.1</ele>
        <time>2021-05-22T08:22:59Z</time>
      </trkpt>
      <trkpt lat="42.5034370" lon="-8.6508760">
        <ele>119.2</ele>
        <time>2021-05-22T08:23:00Z</time>
      </trkpt>
      <trkpt lat="42.5034580" lon="-8.6508730">
        <ele>119.3</ele>
        <time>2021-05-22T08:23:01Z</time>
      </trkpt>
      <trkpt lat="42.5034590" lon="-8.6508830">
        <ele>119.3</ele>
        <time>2021-05-22T08:23:02Z</time>
      </trkpt>
      <trkpt lat="42.5034680" lon="-8.6508930">
        <ele>119.4</ele>
        <time>2021-05-22T08:23:03Z</time>
      </trkpt>
      <trkpt lat="42.5034750" lon="-8.6509070">
        <ele>119.4</ele>
        <time>2021-05-22T08:23:04Z</time>
      </trkpt>
      <trkpt lat="42.5034890" lon="-8.6509030">
        <ele>119.5</ele>
        <time>2021-05-22T08:23:05Z</time>
      </trkpt>
      <trkpt lat="42.5034940" lon="-8.6509030">
        <ele>119.6</ele>
        <time>2021-05-22T08:23:06Z</time>
      </trkpt>
      <trkpt lat="42.5035120" lon="-8.6509070">
        <ele>119.7</ele>
        <time>2021-05-22T08:23:07Z</time>
      </trkpt>
      <trkpt lat="42.5035140" lon="-8.6509040">
        <ele>119.7</ele>
        <time>2021-05-22T08:23:08Z</time>
      </trkpt>
      <trkpt lat="42.5035250" lon="-8.6508880">
        <ele>119.8</ele>
        <time>2021-05-22T08:23:09Z</time>
      </trkpt>
      <trkpt lat="42.5035400" lon="-8.6508900">
        <ele>119.8</ele>
        <time>2021-05-22T08:23:10Z</time>
      </trkpt>
      <trkpt lat="42.5035540" lon="-8.6508830">
        <ele>119.9</ele>
        <time>2021-05-22T08:23:11Z</time>
      </trkpt>
      <trkpt lat="42.5035680" lon="-8.6508820">
        <ele>120.0</ele>
        <time>2021-05-22T08:23:12Z</time>
      </trkpt>
      <trkpt lat="42.5035860" lon="-8.6508840">
        <ele>120.1</ele>
        <time>2021-05-22T08:23:13Z</time>
      </trkpt>
      <trkpt lat="42.5035990" lon="-8.6508900">
        <ele>120.2</ele>
        <time>2021-05-22T08:23:14Z</time>
      </trkpt>
      <trkpt lat="42.5036060" lon="-8.6508860">
        <ele>120.2</ele>
        <time>2021-05-22T08:23:15Z</time>
      </trkpt>
      <trkpt lat="42.5036110" lon="-8.6508840">
        <ele>120.2</ele>
        <time>2021-05-22T08:23:16Z</time>
      </trkpt>
      <trkpt lat="42.5036140" lon="-8.6508680">
        <ele>120.3</ele>
        <time>2021-05-22T08:23:17Z</time>
      </trkpt>
      <trkpt lat="42.5036130" lon="-8.6508700">
        <ele>120.3</ele>
        <time>2021-05-22T08:23:18Z</time>
      </trkpt>
      <trkpt lat="42.5036220" lon="-8.6508700">
        <ele>120.4</ele>
        <time>2021-05-22T08:23:19Z</time>
      </trkpt>
      <trkpt lat="42.5036300" lon="-8.6508710">
        <ele>120.4</ele>
        <time>2021-05-22T08:23:20Z</time>
      </trkpt>
      <trkpt lat="42.5036390" lon="-8.6508720">
        <ele>120.5</ele>
        <time>2021-05-22T08:23:21Z</time>
      </trkpt>
      <trkpt lat="42.5036470" lon="-8.6508720">
        <ele>120.5</ele>
        <time>2021-05-22T08:23:22Z</time>
      </trkpt>
      <trkpt lat="42.5036550" lon="-8.6508730">
        <ele>120.6</ele>
        <time>2021-05-22T08:23:23Z</time>
      </trkpt>
      <trkpt lat="42.5036640" lon="-8.6508740">
        <ele>120.6</ele>
        <time>2021-05-22T08:23:24Z</time>
      </trkpt>
      <trkpt lat="42.5036720" lon="-8.6508740">
        <ele>120.7</ele>
        <time>2021-05-22T08:23:25Z</time>
      </trkpt>
      <trkpt lat="42.5036810" lon="-8.6508750">
        <ele>120.7</ele>
        <time>2021-05-22T08:23:26Z</time>
      </trkpt>
      <trkpt lat="42.5036890" lon="-8.6508760">
        <ele>120.8</ele>
        <time>2021-05-22T08:23:27Z</time>
      </trkpt>
      <trkpt lat="42.5036970" lon="-8.6508760">
        <ele>120.8</ele>
        <time>2021-05-22T08:23:28Z</time>
      </trkpt>
      <trkpt lat="42.5037060" lon="-8.6508770">
        <ele>120.9</ele>
        <time>2021-05-22T08:23:29Z</time>
      </trkpt>
      <trkpt lat="42.5037140" lon="-8.6508780">
        <ele>120.9</ele>
        <time>2021-05-22T08:23:30Z</time>
      </trkpt>
      <trkpt lat="42.5037230" lon="-8.6508780">
        <ele>120.9</ele>
        <time>2021-05-22T08:23:31Z</time>
      </trkpt>
      <trkpt lat="42.5037310" lon="-8.6508790">
        <ele>121.0</ele>
        <time>2021-05-22T08:23:32Z</time>
      </trkpt>
      <trkpt lat="42.5037480" lon="-8.6508720">
        <ele>121.1</ele>
        <time>2021-05-22T08:23:33Z</time>
      </trkpt>
      <trkpt lat="42.5037590" lon="-8.6508700">
        <ele>121.2</ele>
        <time>2021-05-22T08:23:34Z</time>
      </trkpt>
      <trkpt lat="42.5037700" lon="-8.6508840">
        <ele>121.2</ele>
        <time>2021-05-22T08:23:35Z</time>
      </trkpt>
      <trkpt lat="42.5037840" lon="-8.6508880">
        <ele>121.3</ele>
        <time>2021-05-22T08:23:36Z</time>
      </trkpt>
      <trkpt lat="42.5038000" lon="-8.6508870">
        <ele>121.4</ele>
        <time>2021-05-22T08:23:37Z</time>
      </trkpt>
      <trkpt lat="42.5038190" lon="-8.6508810">
        <ele>121.5</ele>
        <time>2021-05-22T08:23:38Z</time>
      </trkpt>
      <trkpt lat="42.5038270" lon="-8.6508800">
        <ele>121.6</ele>
        <time>2021-05-22T08:23:39Z</time>
      </trkpt>
      <trkpt lat="42.5038360" lon="-8.6508790">
        <ele>121.6</ele>
        <time>2021-05-22T08:23:40Z</time>
      </trkpt>
      <trkpt lat="42.5038490" lon="-8.6508740">
        <ele>121.7</ele>
        <time>2021-05-22T08:23:41Z</time>
      </trkpt>
      <trkpt lat="42.5038660" lon="-8.6508720">
        <ele>121.8</ele>
        <time>2021-05-22T08:23:42Z</time>
      </trkpt>
      <trkpt lat="42.5038730" lon="-8.6508720">
        <ele>121.8</ele>
        <time>2021-05-22T08:23:43Z</time>
      </trkpt>
      <trkpt lat="42.5038800" lon="-8.6508710">
        <ele>121.9</ele>
        <time>2021-05-22T08:23:44Z</time>
      </trkpt>
      <trkpt lat="42.5038870" lon="-8.6508710">
        <ele>121.9</ele>
        <time>2021-05-22T08:23:45Z</time>
      </trkpt>
      <trkpt lat="42.5038990" lon="-8.6508730">
        <ele>122.0</ele>
        <time>2021-05-22T08:23:46Z</time>
      </trkpt>
      <trkpt lat="42.5039140" lon="-8.6508750">
        <ele>122.1</ele>
        <time>2021-05-22T08:23:47Z</time>
      </trkpt>
      <trkpt lat="42.5039320" lon="-8.6508690">
        <ele>122.2</ele>
        <time>2021-05-22T08:23:48Z</time>
      </trkpt>
      <trkpt lat="42.5039460" lon="-8.6508590">
        <ele>122.3</ele>
        <time>2021-05-22T08:23:49Z</time>
      </trkpt>
      <trkpt lat="42.5039600" lon="-8.6508520">
        <ele>122.4</ele>
        <time>2021-05-22T08:23:50Z</time>
      </trkpt>
      <trkpt lat="42.5039680" lon="-8.6508500">
        <ele>122.4</ele>
        <time>2021-05-22T08:23:51Z</time>
      </trkpt>
      <trkpt lat="42.5039770" lon="-8.6508470">
        <ele>122.4</ele>
        <time>2021-05-22T08:23:52Z</time>
      </trkpt>
      <trkpt lat="42.5039850" lon="-8.6508450">
        <ele>122.5</ele>
        <time>2021-05-22T08:23:53Z</time>
      </trkpt>
      <trkpt lat="42.5040150" lon="-8.6508360">
        <ele>122.6</ele>
        <time>2021-05-22T08:23:54Z</time>
      </trkpt>
      <trkpt lat="42.5040220" lon="-8.6508320">
        <ele>122.7</ele>
        <time>2021-05-22T08:23:55Z</time>
      </trkpt>
      <trkpt lat="42.5040390" lon="-8.6508170">
        <ele>122.8</ele>
        <time>2021-05-22T08:23:56Z</time>
      </trkpt>
      <trkpt lat="42.5040490" lon="-8.6508130">
        <ele>122.8</ele>
        <time>2021-05-22T08:23:57Z</time>
      </trkpt>
      <trkpt lat="42.5040600" lon="-8.6508080">
        <ele>122.9</ele>
        <time>2021-05-22T08:23:58Z</time>
      </trkpt>
      <trkpt lat="42.5040720" lon="-8.6508020">
        <ele>122.9</ele>
        <time>2021-05-22T08:23:59Z</time>
      </trkpt>
      <trkpt lat="42.5040830" lon="-8.6507970">
        <ele>123.0</ele>
        <time>2021-05-22T08:24:00Z</time>
      </trkpt>
      <trkpt lat="42.5040890" lon="-8.6507900">
        <ele>123.0</ele>
        <time>2021-05-22T08:24:01Z</time>
      </trkpt>
      <trkpt lat="42.5040940" lon="-8.6507840">
        <ele>123.1</ele>
        <time>2021-05-22T08:24:02Z</time>
      </trkpt>
      <trkpt lat="42.5041040" lon="-8.6507780">
        <ele>123.1</ele>
        <time>2021-05-22T08:24:03Z</time>
      </trkpt>
      <trkpt lat="42.5041160" lon="-8.6507710">
        <ele>123.2</ele>
        <time>2021-05-22T08:24:04Z</time>
      </trkpt>
      <trkpt lat="42.5041270" lon="-8.6507570">
        <ele>123.2</ele>
        <time>2021-05-22T08:24:05Z</time>
      </trkpt>
      <trkpt lat="42.5041320" lon="-8.6507480">
        <ele>123.2</ele>
        <time>2021-05-22T08:24:06Z</time>
      </trkpt>
      <trkpt lat="42.5041380" lon="-8.6507340">
        <ele>123.3</ele>
        <time>2021-05-22T08:24:07Z</time>
      </trkpt>
      <trkpt lat="42.5041490" lon="-8.6507300">
        <ele>123.3</ele>
        <time>2021-05-22T08:24:08Z</time>
      </trkpt>
      <trkpt lat="42.5041520" lon="-8.6507210">
        <ele>123.4</ele>
        <time>2021-05-22T08:24:09Z</time>
      </trkpt>
      <trkpt lat="42.5041600" lon="-8.6507100">
        <ele>123.4</ele>
        <time>2021-05-22T08:24:10Z</time>
      </trkpt>
      <trkpt lat="42.5041710" lon="-8.6506940">
        <ele>123.5</ele>
        <time>2021-05-22T08:24:11Z</time>
      </trkpt>
      <trkpt lat="42.5041780" lon="-8.6506870">
        <ele>123.5</ele>
        <time>2021-05-22T08:24:12Z</time>
      </trkpt>
      <trkpt lat="42.5041840" lon="-8.6506810">
        <ele>123.5</ele>
        <time>2021-05-22T08:24:13Z</time>
      </trkpt>
      <trkpt lat="42.5041910" lon="-8.6506740">
        <ele>123.6</ele>
        <time>2021-05-22T08:24:14Z</time>
      </trkpt>
      <trkpt lat="42.5042010" lon="-8.6506650">
        <ele>123.6</ele>
        <time>2021-05-22T08:24:15Z</time>
      </trkpt>
      <trkpt lat="42.5042070" lon="-8.6506560">
        <ele>123.7</ele>
        <time>2021-05-22T08:24:16Z</time>
      </trkpt>
      <trkpt lat="42.5042170" lon="-8.6506530">
        <ele>123.7</ele>
        <time>2021-05-22T08:24:17Z</time>
      </trkpt>
      <trkpt lat="42.5042240" lon="-8.6506420">
        <ele>123.7</ele>
        <time>2021-05-22T08:24:18Z</time>
      </trkpt>
      <trkpt lat="42.5042270" lon="-8.6506340">
        <ele>123.8</ele>
        <time>2021-05-22T08:24:19Z</time>
      </trkpt>
      <trkpt lat="42.5042380" lon="-8.6506280">
        <ele>123.8</ele>
        <time>2021-05-22T08:24:20Z</time>
      </trkpt>
      <trkpt lat="42.5042480" lon="-8.6506170">
        <ele>123.9</ele>
        <time>2021-05-22T08:24:21Z</time>
      </trkpt>
      <trkpt lat="42.5042500" lon="-8.6506070">
        <ele>123.9</ele>
        <time>2021-05-22T08:24:22Z</time>
      </trkpt>
      <trkpt lat="42.5042590" lon="-8.6506000">
        <ele>124.0</ele>
        <time>2021-05-22T08:24:23Z</time>
      </trkpt>
      <trkpt lat="42.5042610" lon="-8.6505920">
        <ele>124.0</ele>
        <time>2021-05-22T08:24:24Z</time>
      </trkpt>
      <trkpt lat="42.5042660" lon="-8.6505810">
        <ele>124.0</ele>
        <time>2021-05-22T08:24:25Z</time>
      </trkpt>
      <trkpt lat="42.5042760" lon="-8.6505700">
        <ele>124.1</ele>
        <time>2021-05-22T08:24:26Z</time>
      </trkpt>
      <trkpt lat="42.5042850" lon="-8.6505590">
        <ele>124.1</ele>
        <time>2021-05-22T08:24:27Z</time>
      </trkpt>
      <trkpt lat="42.5042930" lon="-8.6505530">
        <ele>124.2</ele>
        <time>2021-05-22T08:24:28Z</time>
      </trkpt>
      <trkpt lat="42.5043000" lon="-8.6505380">
        <ele>124.2</ele>
        <time>2021-05-22T08:24:29Z</time>
      </trkpt>
      <trkpt lat="42.5043080" lon="-8.6505240">
        <ele>124.3</ele>
        <time>2021-05-22T08:24:30Z</time>
      </trkpt>
      <trkpt lat="42.5043150" lon="-8.6505190">
        <ele>124.3</ele>
        <time>2021-05-22T08:24:31Z</time>
      </trkpt>
      <trkpt lat="42.5043210" lon="-8.6505130">
        <ele>124.4</ele>
        <time>2021-05-22T08:24:32Z</time>
      </trkpt>
      <trkpt lat="42.5043280" lon="-8.6504930">
        <ele>124.5</ele>
        <time>2021-05-22T08:24:33Z</time>
      </trkpt>
      <trkpt lat="42.5043330" lon="-8.6504860">
        <ele>124.5</ele>
        <time>2021-05-22T08:24:34Z</time>
      </trkpt>
      <trkpt lat="42.5043390" lon="-8.6504780">
        <ele>124.5</ele>
        <time>2021-05-22T08:24:35Z</time>
      </trkpt>
      <trkpt lat="42.5043440" lon="-8.6504700">
        <ele>124.6</ele>
        <time>2021-05-22T08:24:36Z</time>
      </trkpt>
      <trkpt lat="42.5043530" lon="-8.6504590">
        <ele>124.6</ele>
        <time>2021-05-22T08:24:37Z</time>
      </trkpt>
      <trkpt lat="42.5043600" lon="-8.6504490">
        <ele>124.7</ele>
        <time>2021-05-22T08:24:38Z</time>
      </trkpt>
      <trkpt lat="42.5043580" lon="-8.6504430">
        <ele>124.7</ele>
        <time>2021-05-22T08:24:39Z</time>
      </trkpt>
      <trkpt lat="42.5043630" lon="-8.6504320">
        <ele>124.8</ele>
        <time>2021-05-22T08:24:40Z</time>
      </trkpt>
      <trkpt lat="42.5043720" lon="-8.6504200">
        <ele>124.8</ele>
        <time>2021-05-22T08:24:41Z</time>
      </trkpt>
      <trkpt lat="42.5043810" lon="-8.6504160">
        <ele>124.8</ele>
        <time>2021-05-22T08:24:42Z</time>
      </trkpt>
      <trkpt lat="42.5043930" lon="-8.6504070">
        <ele>124.8</ele>
        <time>2021-05-22T08:24:43Z</time>
      </trkpt>
      <trkpt lat="42.5044100" lon="-8.6503950">
        <ele>124.8</ele>
        <time>2021-05-22T08:24:44Z</time>
      </trkpt>
      <trkpt lat="42.5044140" lon="-8.6503910">
        <ele>124.8</ele>
        <time>2021-05-22T08:24:45Z</time>
      </trkpt>
      <trkpt lat="42.5044180" lon="-8.6503870">
        <ele>124.8</ele>
        <time>2021-05-22T08:24:46Z</time>
      </trkpt>
      <trkpt lat="42.5044220" lon="-8.6503830">
        <ele>124.8</ele>
        <time>2021-05-22T08:24:47Z</time>
      </trkpt>
      <trkpt lat="42.5044260" lon="-8.6503790">
        <ele>124.8</ele>
        <time>2021-05-22T08:24:48Z</time>
      </trkpt>
      <trkpt lat="42.5044370" lon="-8.6503730">
        <ele>124.8</ele>
        <time>2021-05-22T08:24:49Z</time>
      </trkpt>
      <trkpt lat="42.5044410" lon="-8.6503710">
        <ele>124.8</ele>
        <time>2021-05-22T08:24:50Z</time>
      </trkpt>
      <trkpt lat="42.5044440" lon="-8.6503610">
        <ele>124.8</ele>
        <time>2021-05-22T08:24:51Z</time>
      </trkpt>
      <trkpt lat="42.5044520" lon="-8.6503510">
        <ele>124.8</ele>
        <time>2021-05-22T08:24:52Z</time>
      </trkpt>
      <trkpt lat="42.5044540" lon="-8.6503520">
        <ele>124.8</ele>
        <time>2021-05-22T08:24:53Z</time>
      </trkpt>
      <trkpt lat="42.5044590" lon="-8.6503520">
        <ele>124.8</ele>
        <time>2021-05-22T08:24:54Z</time>
      </trkpt>
      <trkpt lat="42.5044690" lon="-8.6503450">
        <ele>124.8</ele>
        <time>2021-05-22T08:24:55Z</time>
      </trkpt>
      <trkpt lat="42.5044770" lon="-8.6503350">
        <ele>124.8</ele>
        <time>2021-05-22T08:24:56Z</time>
      </trkpt>
      <trkpt lat="42.5044790" lon="-8.6503150">
        <ele>124.8</ele>
        <time>2021-05-22T08:24:57Z</time>
      </trkpt>
      <trkpt lat="42.5044870" lon="-8.6502980">
        <ele>124.8</ele>
        <time>2021-05-22T08:24:58Z</time>
      </trkpt>
      <trkpt lat="42.5044970" lon="-8.6502810">
        <ele>124.8</ele>
        <time>2021-05-22T08:24:59Z</time>
      </trkpt>
      <trkpt lat="42.5045060" lon="-8.6502740">
        <ele>124.8</ele>
        <time>2021-05-22T08:25:00Z</time>
      </trkpt>
      <trkpt lat="42.5045140" lon="-8.6502660">
        <ele>124.8</ele>
        <time>2021-05-22T08:25:01Z</time>
      </trkpt>
      <trkpt lat="42.5045220" lon="-8.6502490">
        <ele>124.7</ele>
        <time>2021-05-22T08:25:02Z</time>
      </trkpt>
      <trkpt lat="42.5045280" lon="-8.6502390">
        <ele>124.7</ele>
        <time>2021-05-22T08:25:03Z</time>
      </trkpt>
      <trkpt lat="42.5045350" lon="-8.6502340">
        <ele>124.7</ele>
        <time>2021-05-22T08:25:04Z</time>
      </trkpt>
      <trkpt lat="42.5045430" lon="-8.6502190">
        <ele>124.7</ele>
        <time>2021-05-22T08:25:05Z</time>
      </trkpt>
      <trkpt lat="42.5045520" lon="-8.6502070">
        <ele>124.7</ele>
        <time>2021-05-22T08:25:06Z</time>
      </trkpt>
      <trkpt lat="42.5045480" lon="-8.6501980">
        <ele>124.6</ele>
        <time>2021-05-22T08:25:07Z</time>
      </trkpt>
      <trkpt lat="42.5045460" lon="-8.6501930">
        <ele>124.6</ele>
        <time>2021-05-22T08:25:08Z</time>
      </trkpt>
      <trkpt lat="42.5045490" lon="-8.6501780">
        <ele>124.6</ele>
        <time>2021-05-22T08:25:09Z</time>
      </trkpt>
      <trkpt lat="42.5045600" lon="-8.6501620">
        <ele>124.6</ele>
        <time>2021-05-22T08:25:10Z</time>
      </trkpt>
      <trkpt lat="42.5045630" lon="-8.6501550">
        <ele>124.6</ele>
        <time>2021-05-22T08:25:11Z</time>
      </trkpt>
      <trkpt lat="42.5045750" lon="-8.6501380">
        <ele>124.5</ele>
        <time>2021-05-22T08:25:12Z</time>
      </trkpt>
      <trkpt lat="42.5045790" lon="-8.6501290">
        <ele>124.5</ele>
        <time>2021-05-22T08:25:13Z</time>
      </trkpt>
      <trkpt lat="42.5045840" lon="-8.6501150">
        <ele>124.4</ele>
        <time>2021-05-22T08:25:14Z</time>
      </trkpt>
      <trkpt lat="42.5045910" lon="-8.6501060">
        <ele>124.4</ele>
        <time>2021-05-22T08:25:15Z</time>
      </trkpt>
      <trkpt lat="42.5046010" lon="-8.6501020">
        <ele>124.4</ele>
        <time>2021-05-22T08:25:16Z</time>
      </trkpt>
      <trkpt lat="42.5046140" lon="-8.6500900">
        <ele>124.3</ele>
        <time>2021-05-22T08:25:17Z</time>
      </trkpt>
      <trkpt lat="42.5046180" lon="-8.6500860">
        <ele>124.3</ele>
        <time>2021-05-22T08:25:18Z</time>
      </trkpt>
      <trkpt lat="42.5046220" lon="-8.6500820">
        <ele>124.3</ele>
        <time>2021-05-22T08:25:19Z</time>
      </trkpt>
      <trkpt lat="42.5046260" lon="-8.6500770">
        <ele>124.3</ele>
        <time>2021-05-22T08:25:20Z</time>
      </trkpt>
      <trkpt lat="42.5046300" lon="-8.6500730">
        <ele>124.3</ele>
        <time>2021-05-22T08:25:21Z</time>
      </trkpt>
      <trkpt lat="42.5046340" lon="-8.6500690">
        <ele>124.2</ele>
        <time>2021-05-22T08:25:22Z</time>
      </trkpt>
      <trkpt lat="42.5046380" lon="-8.6500650">
        <ele>124.2</ele>
        <time>2021-05-22T08:25:23Z</time>
      </trkpt>
      <trkpt lat="42.5046420" lon="-8.6500410">
        <ele>124.1</ele>
        <time>2021-05-22T08:25:24Z</time>
      </trkpt>
      <trkpt lat="42.5046450" lon="-8.6500290">
        <ele>124.1</ele>
        <time>2021-05-22T08:25:25Z</time>
      </trkpt>
      <trkpt lat="42.5046470" lon="-8.6500170">
        <ele>124.1</ele>
        <time>2021-05-22T08:25:26Z</time>
      </trkpt>
      <trkpt lat="42.5046440" lon="-8.6500040">
        <ele>124.0</ele>
        <time>2021-05-22T08:25:27Z</time>
      </trkpt>
      <trkpt lat="42.5046400" lon="-8.6499940">
        <ele>124.0</ele>
        <time>2021-05-22T08:25:28Z</time>
      </trkpt>
      <trkpt lat="42.5046440" lon="-8.6499770">
        <ele>123.9</ele>
        <time>2021-05-22T08:25:29Z</time>
      </trkpt>
      <trkpt lat="42.5046450" lon="-8.6499610">
        <ele>123.9</ele>
        <time>2021-05-22T08:25:30Z</time>
      </trkpt>
      <trkpt lat="42.5046460" lon="-8.6499500">
        <ele>123.8</ele>
        <time>2021-05-22T08:25:31Z</time>
      </trkpt>
      <trkpt lat="42.5046470" lon="-8.6499390">
        <ele>123.8</ele>
        <time>2021-05-22T08:25:32Z</time>
      </trkpt>
      <trkpt lat="42.5046400" lon="-8.6499180">
        <ele>123.7</ele>
        <time>2021-05-22T08:25:33Z</time>
      </trkpt>
      <trkpt lat="42.5046360" lon="-8.6499010">
        <ele>123.7</ele>
        <time>2021-05-22T08:25:34Z</time>
      </trkpt>
      <trkpt lat="42.5046430" lon="-8.6498750">
        <ele>123.6</ele>
        <time>2021-05-22T08:25:35Z</time>
      </trkpt>
      <trkpt lat="42.5046490" lon="-8.6498590">
        <ele>123.5</ele>
        <time>2021-05-22T08:25:36Z</time>
      </trkpt>
      <trkpt lat="42.5046550" lon="-8.6498440">
        <ele>123.5</ele>
        <time>2021-05-22T08:25:37Z</time>
      </trkpt>
      <trkpt lat="42.5046610" lon="-8.6498280">
        <ele>123.4</ele>
        <time>2021-05-22T08:25:38Z</time>
      </trkpt>
      <trkpt lat="42.5046860" lon="-8.6497860">
        <ele>123.3</ele>
        <time>2021-05-22T08:25:40Z</time>
      </trkpt>
      <trkpt lat="42.5046940" lon="-8.6497830">
        <ele>123.3</ele>
        <time>2021-05-22T08:25:41Z</time>
      </trkpt>
      <trkpt lat="42.5047030" lon="-8.6497800">
        <ele>123.3</ele>
        <time>2021-05-22T08:25:42Z</time>
      </trkpt>
      <trkpt lat="42.5047150" lon="-8.6497750">
        <ele>123.3</ele>
        <time>2021-05-22T08:25:43Z</time>
      </trkpt>
      <trkpt lat="42.5047190" lon="-8.6497660">
        <ele>123.3</ele>
        <time>2021-05-22T08:25:44Z</time>
      </trkpt>
      <trkpt lat="42.5047300" lon="-8.6497500">
        <ele>123.3</ele>
        <time>2021-05-22T08:25:45Z</time>
      </trkpt>
      <trkpt lat="42.5047350" lon="-8.6497430">
        <ele>123.3</ele>
        <time>2021-05-22T08:25:46Z</time>
      </trkpt>
      <trkpt lat="42.5047390" lon="-8.6497330">
        <ele>123.3</ele>
        <time>2021-05-22T08:25:47Z</time>
      </trkpt>
      <trkpt lat="42.5047480" lon="-8.6497210">
        <ele>123.2</ele>
        <time>2021-05-22T08:25:48Z</time>
      </trkpt>
      <trkpt lat="42.5047540" lon="-8.6497070">
        <ele>123.2</ele>
        <time>2021-05-22T08:25:49Z</time>
      </trkpt>
      <trkpt lat="42.5047620" lon="-8.6496950">
        <ele>123.2</ele>
        <time>2021-05-22T08:25:50Z</time>
      </trkpt>
      <trkpt lat="42.5047590" lon="-8.6496870">
        <ele>123.2</ele>
        <time>2021-05-22T08:25:51Z</time>
      </trkpt>
      <trkpt lat="42.5047710" lon="-8.6496660">
        <ele>123.2</ele>
        <time>2021-05-22T08:25:52Z</time>
      </trkpt>
      <trkpt lat="42.5047820" lon="-8.6496550">
        <ele>123.2</ele>
        <time>2021-05-22T08:25:53Z</time>
      </trkpt>
      <trkpt lat="42.5047950" lon="-8.6496450">
        <ele>123.2</ele>
        <time>2021-05-22T08:25:54Z</time>
      </trkpt>
      <trkpt lat="42.5048040" lon="-8.6496290">
        <ele>123.2</ele>
        <time>2021-05-22T08:25:55Z</time>
      </trkpt>
      <trkpt lat="42.5048090" lon="-8.6496190">
        <ele>123.2</ele>
        <time>2021-05-22T08:25:56Z</time>
      </trkpt>
      <trkpt lat="42.5048080" lon="-8.6496050">
        <ele>123.2</ele>
        <time>2021-05-22T08:25:57Z</time>
      </trkpt>
      <trkpt lat="42.5048210" lon="-8.6495890">
        <ele>123.2</ele>
        <time>2021-05-22T08:25:58Z</time>
      </trkpt>
      <trkpt lat="42.5048350" lon="-8.6495740">
        <ele>123.2</ele>
        <time>2021-05-22T08:25:59Z</time>
      </trkpt>
      <trkpt lat="42.5048480" lon="-8.6495900">
        <ele>123.2</ele>
        <time>2021-05-22T08:26:00Z</time>
      </trkpt>
      <trkpt lat="42.5048490" lon="-8.6496120">
        <ele>123.2</ele>
        <time>2021-05-22T08:26:01Z</time>
      </trkpt>
      <trkpt lat="42.5048500" lon="-8.6496190">
        <ele>123.2</ele>
        <time>2021-05-22T08:26:02Z</time>
      </trkpt>
      <trkpt lat="42.5048520" lon="-8.6496260">
        <ele>123.2</ele>
        <time>2021-05-22T08:26:03Z</time>
      </trkpt>
      <trkpt lat="42.5048540" lon="-8.6496350">
        <ele>123.2</ele>
        <time>2021-05-22T08:26:04Z</time>
      </trkpt>
      <trkpt lat="42.5048480" lon="-8.6496230">
        <ele>123.2</ele>
        <time>2021-05-22T08:26:05Z</time>
      </trkpt>
      <trkpt lat="42.5048580" lon="-8.6496190">
        <ele>123.2</ele>
        <time>2021-05-22T08:26:06Z</time>
      </trkpt>
      <trkpt lat="42.5048630" lon="-8.6496070">
        <ele>123.2</ele>
        <time>2021-05-22T08:26:07Z</time>
      </trkpt>
      <trkpt lat="42.5048700" lon="-8.6495940">
        <ele>123.2</ele>
        <time>2021-05-22T08:26:08Z</time>
      </trkpt>
      <trkpt lat="42.5048800" lon="-8.6495770">
        <ele>123.2</ele>
        <time>2021-05-22T08:26:09Z</time>
      </trkpt>
      <trkpt lat="42.5048790" lon="-8.6495700">
        <ele>123.2</ele>
        <time>2021-05-22T08:26:10Z</time>
      </trkpt>
      <trkpt lat="42.5048830" lon="-8.6495530">
        <ele>123.2</ele>
        <time>2021-05-22T08:26:11Z</time>
      </trkpt>
      <trkpt lat="42.5048830" lon="-8.6495460">
        <ele>123.2</ele>
        <time>2021-05-22T08:26:12Z</time>
      </trkpt>
      <trkpt lat="42.5048810" lon="-8.6495510">
        <ele>123.2</ele>
        <time>2021-05-22T08:26:13Z</time>
      </trkpt>
      <trkpt lat="42.5048780" lon="-8.6495570">
        <ele>123.2</ele>
        <time>2021-05-22T08:26:14Z</time>
      </trkpt>
      <trkpt lat="42.5048750" lon="-8.6495630">
        <ele>123.2</ele>
        <time>2021-05-22T08:26:15Z</time>
      </trkpt>
      <trkpt lat="42.5048730" lon="-8.6495680">
        <ele>123.2</ele>
        <time>2021-05-22T08:26:16Z</time>
      </trkpt>
      <trkpt lat="42.5048700" lon="-8.6495740">
        <ele>123.2</ele>
        <time>2021-05-22T08:26:17Z</time>
      </trkpt>
      <trkpt lat="42.5048670" lon="-8.6495790">
        <ele>123.2</ele>
        <time>2021-05-22T08:26:18Z</time>
      </trkpt>
      <trkpt lat="42.5048650" lon="-8.6495850">
        <ele>123.2</ele>
        <time>2021-05-22T08:26:19Z</time>
      </trkpt>
      <trkpt lat="42.5048620" lon="-8.6495910">
        <ele>123.2</ele>
        <time>2021-05-22T08:26:20Z</time>
      </trkpt>
      <trkpt lat="42.5048590" lon="-8.6495960">
        <ele>123.2</ele>
        <time>2021-05-22T08:26:21Z</time>
      </trkpt>
      <trkpt lat="42.5048570" lon="-8.6496020">
        <ele>123.2</ele>
        <time>2021-05-22T08:26:22Z</time>
      </trkpt>
      <trkpt lat="42.5048540" lon="-8.6496080">
        <ele>123.2</ele>
        <time>2021-05-22T08:26:23Z</time>
      </trkpt>
      <trkpt lat="42.5048510" lon="-8.6496130">
        <ele>123.2</ele>
        <time>2021-05-22T08:26:24Z</time>
      </trkpt>
      <trkpt lat="42.5048490" lon="-8.6496190">
        <ele>123.2</ele>
        <time>2021-05-22T08:26:25Z</time>
      </trkpt>
      <trkpt lat="42.5048460" lon="-8.6496240">
        <ele>123.2</ele>
        <time>2021-05-22T08:26:26Z</time>
      </trkpt>
      <trkpt lat="42.5048430" lon="-8.6496300">
        <ele>123.2</ele>
        <time>2021-05-22T08:26:27Z</time>
      </trkpt>
      <trkpt lat="42.5048410" lon="-8.6496360">
        <ele>123.2</ele>
        <time>2021-05-22T08:26:28Z</time>
      </trkpt>
      <trkpt lat="42.5048380" lon="-8.6496410">
        <ele>123.2</ele>
        <time>2021-05-22T08:26:29Z</time>
      </trkpt>
      <trkpt lat="42.5048360" lon="-8.6496470">
        <ele>123.2</ele>
        <time>2021-05-22T08:26:30Z</time>
      </trkpt>
      <trkpt lat="42.5048330" lon="-8.6496530">
        <ele>123.2</ele>
        <time>2021-05-22T08:26:31Z</time>
      </trkpt>
      <trkpt lat="42.5048300" lon="-8.6496580">
        <ele>123.2</ele>
        <time>2021-05-22T08:26:32Z</time>
      </trkpt>
      <trkpt lat="42.5048280" lon="-8.6496640">
        <ele>123.2</ele>
        <time>2021-05-22T08:26:33Z</time>
      </trkpt>
      <trkpt lat="42.5048250" lon="-8.6496690">
        <ele>123.2</ele>
        <time>2021-05-22T08:26:34Z</time>
      </trkpt>
      <trkpt lat="42.5048220" lon="-8.6496750">
        <ele>123.2</ele>
        <time>2021-05-22T08:26:35Z</time>
      </trkpt>
      <trkpt lat="42.5048200" lon="-8.6496810">
        <ele>123.2</ele>
        <time>2021-05-22T08:26:36Z</time>
      </trkpt>
      <trkpt lat="42.5048170" lon="-8.6496860">
        <ele>123.2</ele>
        <time>2021-05-22T08:26:37Z</time>
      </trkpt>
      <trkpt lat="42.5048140" lon="-8.6496920">
        <ele>123.2</ele>
        <time>2021-05-22T08:26:38Z</time>
      </trkpt>
      <trkpt lat="42.5048120" lon="-8.6496980">
        <ele>123.2</ele>
        <time>2021-05-22T08:26:39Z</time>
      </trkpt>
      <trkpt lat="42.5048090" lon="-8.6497030">
        <ele>123.2</ele>
        <time>2021-05-22T08:26:40Z</time>
      </trkpt>
      <trkpt lat="42.5048060" lon="-8.6497090">
        <ele>123.2</ele>
        <time>2021-05-22T08:26:41Z</time>
      </trkpt>
      <trkpt lat="42.5048040" lon="-8.6497140">
        <ele>123.2</ele>
        <time>2021-05-22T08:26:42Z</time>
      </trkpt>
      <trkpt lat="42.5048010" lon="-8.6497200">
        <ele>123.2</ele>
        <time>2021-05-22T08:26:43Z</time>
      </trkpt>
      <trkpt lat="42.5047980" lon="-8.6497260">
        <ele>123.2</ele>
        <time>2021-05-22T08:26:44Z</time>
      </trkpt>
      <trkpt lat="42.5047960" lon="-8.6497310">
        <ele>123.2</ele>
        <time>2021-05-22T08:26:45Z</time>
      </trkpt>
      <trkpt lat="42.5047930" lon="-8.6497370">
        <ele>123.2</ele>
        <time>2021-05-22T08:26:46Z</time>
      </trkpt>
      <trkpt lat="42.5047800" lon="-8.6497110">
        <ele>123.2</ele>
        <time>2021-05-22T08:26:47Z</time>
      </trkpt>
      <trkpt lat="42.5047780" lon="-8.6497010">
        <ele>123.2</ele>
        <time>2021-05-22T08:26:48Z</time>
      </trkpt>
      <trkpt lat="42.5047770" lon="-8.6496900">
        <ele>123.2</ele>
        <time>2021-05-22T08:26:49Z</time>
      </trkpt>
      <trkpt lat="42.5047650" lon="-8.6496790">
        <ele>123.2</ele>
        <time>2021-05-22T08:26:50Z</time>
      </trkpt>
      <trkpt lat="42.5047520" lon="-8.6496720">
        <ele>123.2</ele>
        <time>2021-05-22T08:26:51Z</time>
      </trkpt>
      <trkpt lat="42.5047510" lon="-8.6496550">
        <ele>123.2</ele>
        <time>2021-05-22T08:26:52Z</time>
      </trkpt>
      <trkpt lat="42.5047340" lon="-8.6496520">
        <ele>123.2</ele>
        <time>2021-05-22T08:26:53Z</time>
      </trkpt>
      <trkpt lat="42.5047220" lon="-8.6496440">
        <ele>123.2</ele>
        <time>2021-05-22T08:26:54Z</time>
      </trkpt>
      <trkpt lat="42.5047100" lon="-8.6496470">
        <ele>123.2</ele>
        <time>2021-05-22T08:26:55Z</time>
      </trkpt>
      <trkpt lat="42.5046980" lon="-8.6496620">
        <ele>123.2</ele>
        <time>2021-05-22T08:26:56Z</time>
      </trkpt>
      <trkpt lat="42.5046880" lon="-8.6496620">
        <ele>123.2</ele>
        <time>2021-05-22T08:26:57Z</time>
      </trkpt>
      <trkpt lat="42.5046780" lon="-8.6496660">
        <ele>123.2</ele>
        <time>2021-05-22T08:26:58Z</time>
      </trkpt>
      <trkpt lat="42.5046670" lon="-8.6496700">
        <ele>123.2</ele>
        <time>2021-05-22T08:26:59Z</time>
      </trkpt>
      <trkpt lat="42.5046570" lon="-8.6496740">
        <ele>123.2</ele>
        <time>2021-05-22T08:27:00Z</time>
      </trkpt>
      <trkpt lat="42.5046490" lon="-8.6496670">
        <ele>123.2</ele>
        <time>2021-05-22T08:27:01Z</time>
      </trkpt>
      <trkpt lat="42.5046460" lon="-8.6496580">
        <ele>123.2</ele>
        <time>2021-05-22T08:27:02Z</time>
      </trkpt>
      <trkpt lat="42.5046440" lon="-8.6496490">
        <ele>123.2</ele>
        <time>2021-05-22T08:27:03Z</time>
      </trkpt>
      <trkpt lat="42.5046410" lon="-8.6496400">
        <ele>123.2</ele>
        <time>2021-05-22T08:27:04Z</time>
      </trkpt>
      <trkpt lat="42.5046380" lon="-8.6496310">
        <ele>123.2</ele>
        <time>2021-05-22T08:27:05Z</time>
      </trkpt>
      <trkpt lat="42.5046350" lon="-8.6496220">
        <ele>123.2</ele>
        <time>2021-05-22T08:27:06Z</time>
      </trkpt>
      <trkpt lat="42.5046340" lon="-8.6496130">
        <ele>123.2</ele>
        <time>2021-05-22T08:27:07Z</time>
      </trkpt>
      <trkpt lat="42.5046330" lon="-8.6496070">
        <ele>123.2</ele>
        <time>2021-05-22T08:27:08Z</time>
      </trkpt>
      <trkpt lat="42.5046230" lon="-8.6496110">
        <ele>123.2</ele>
        <time>2021-05-22T08:27:09Z</time>
      </trkpt>
      <trkpt lat="42.5046220" lon="-8.6496100">
        <ele>123.2</ele>
        <time>2021-05-22T08:27:10Z</time>
      </trkpt>
      <trkpt lat="42.5046190" lon="-8.6495950">
        <ele>123.2</ele>
        <time>2021-05-22T08:27:11Z</time>
      </trkpt>
      <trkpt lat="42.5046110" lon="-8.6495880">
        <ele>123.2</ele>
        <time>2021-05-22T08:27:12Z</time>
      </trkpt>
      <trkpt lat="42.5045950" lon="-8.6495770">
        <ele>123.2</ele>
        <time>2021-05-22T08:27:13Z</time>
      </trkpt>
      <trkpt lat="42.5045860" lon="-8.6495670">
        <ele>123.2</ele>
        <time>2021-05-22T08:27:14Z</time>
      </trkpt>
      <trkpt lat="42.5045770" lon="-8.6495560">
        <ele>123.2</ele>
        <time>2021-05-22T08:27:15Z</time>
      </trkpt>
      <trkpt lat="42.5045720" lon="-8.6495560">
        <ele>123.2</ele>
        <time>2021-05-22T08:27:16Z</time>
      </trkpt>
      <trkpt lat="42.5045770" lon="-8.6495610">
        <ele>123.1</ele>
        <time>2021-05-22T08:27:17Z</time>
      </trkpt>
      <trkpt lat="42.5045830" lon="-8.6495670">
        <ele>123.1</ele>
        <time>2021-05-22T08:27:18Z</time>
      </trkpt>
      <trkpt lat="42.5045880" lon="-8.6495720">
        <ele>123.1</ele>
        <time>2021-05-22T08:27:19Z</time>
      </trkpt>
      <trkpt lat="42.5045940" lon="-8.6495770">
        <ele>123.1</ele>
        <time>2021-05-22T08:27:20Z</time>
      </trkpt>
      <trkpt lat="42.5045990" lon="-8.6495820">
        <ele>123.1</ele>
        <time>2021-05-22T08:27:21Z</time>
      </trkpt>
      <trkpt lat="42.5046050" lon="-8.6495880">
        <ele>123.1</ele>
        <time>2021-05-22T08:27:22Z</time>
      </trkpt>
      <trkpt lat="42.5046100" lon="-8.6495930">
        <ele>123.1</ele>
        <time>2021-05-22T08:27:23Z</time>
      </trkpt>
      <trkpt lat="42.5046160" lon="-8.6495980">
        <ele>123.1</ele>
        <time>2021-05-22T08:27:24Z</time>
      </trkpt>
      <trkpt lat="42.5046210" lon="-8.6496030">
        <ele>123.1</ele>
        <time>2021-05-22T08:27:25Z</time>
      </trkpt>
      <trkpt lat="42.5046270" lon="-8.6496090">
        <ele>123.1</ele>
        <time>2021-05-22T08:27:26Z</time>
      </trkpt>
      <trkpt lat="42.5046320" lon="-8.6496140">
        <ele>123.1</ele>
        <time>2021-05-22T08:27:27Z</time>
      </trkpt>
      <trkpt lat="42.5046380" lon="-8.6496190">
        <ele>123.1</ele>
        <time>2021-05-22T08:27:28Z</time>
      </trkpt>
      <trkpt lat="42.5046430" lon="-8.6496240">
        <ele>123.1</ele>
        <time>2021-05-22T08:27:29Z</time>
      </trkpt>
      <trkpt lat="42.5046490" lon="-8.6496300">
        <ele>123.1</ele>
        <time>2021-05-22T08:27:30Z</time>
      </trkpt>
      <trkpt lat="42.5046540" lon="-8.6496350">
        <ele>123.1</ele>
        <time>2021-05-22T08:27:31Z</time>
      </trkpt>
      <trkpt lat="42.5046600" lon="-8.6496400">
        <ele>123.1</ele>
        <time>2021-05-22T08:27:32Z</time>
      </trkpt>
      <trkpt lat="42.5046780" lon="-8.6496310">
        <ele>123.1</ele>
        <time>2021-05-22T08:27:33Z</time>
      </trkpt>
      <trkpt lat="42.5046870" lon="-8.6496330">
        <ele>123.1</ele>
        <time>2021-05-22T08:27:34Z</time>
      </trkpt>
      <trkpt lat="42.5047200" lon="-8.6496370">
        <ele>123.1</ele>
        <time>2021-05-22T08:27:35Z</time>
      </trkpt>
      <trkpt lat="42.5047310" lon="-8.6496370">
        <ele>123.1</ele>
        <time>2021-05-22T08:27:36Z</time>
      </trkpt>
      <trkpt lat="42.5047690" lon="-8.6496550">
        <ele>123.1</ele>
        <time>2021-05-22T08:27:37Z</time>
      </trkpt>
      <trkpt lat="42.5047870" lon="-8.6496560">
        <ele>123.1</ele>
        <time>2021-05-22T08:27:38Z</time>
      </trkpt>
      <trkpt lat="42.5047810" lon="-8.6496820">
        <ele>123.1</ele>
        <time>2021-05-22T08:27:39Z</time>
      </trkpt>
      <trkpt lat="42.5047750" lon="-8.6496850">
        <ele>123.1</ele>
        <time>2021-05-22T08:27:40Z</time>
      </trkpt>
      <trkpt lat="42.5047730" lon="-8.6496890">
        <ele>123.1</ele>
        <time>2021-05-22T08:27:41Z</time>
      </trkpt>
      <trkpt lat="42.5047600" lon="-8.6496860">
        <ele>123.1</ele>
        <time>2021-05-22T08:27:42Z</time>
      </trkpt>
      <trkpt lat="42.5047550" lon="-8.6496810">
        <ele>123.1</ele>
        <time>2021-05-22T08:27:43Z</time>
      </trkpt>
      <trkpt lat="42.5047510" lon="-8.6496730">
        <ele>123.0</ele>
        <time>2021-05-22T08:27:44Z</time>
      </trkpt>
      <trkpt lat="42.5047490" lon="-8.6496690">
        <ele>123.0</ele>
        <time>2021-05-22T08:27:45Z</time>
      </trkpt>
      <trkpt lat="42.5047490" lon="-8.6496630">
        <ele>123.0</ele>
        <time>2021-05-22T08:27:46Z</time>
      </trkpt>
      <trkpt lat="42.5047490" lon="-8.6496650">
        <ele>123.0</ele>
        <time>2021-05-22T08:27:47Z</time>
      </trkpt>
      <trkpt lat="42.5047540" lon="-8.6496690">
        <ele>123.0</ele>
        <time>2021-05-22T08:27:48Z</time>
      </trkpt>
      <trkpt lat="42.5047470" lon="-8.6496650">
        <ele>123.0</ele>
        <time>2021-05-22T08:27:49Z</time>
      </trkpt>
      <trkpt lat="42.5047330" lon="-8.6496630">
        <ele>123.0</ele>
        <time>2021-05-22T08:27:50Z</time>
      </trkpt>
      <trkpt lat="42.5047200" lon="-8.6496600">
        <ele>123.0</ele>
        <time>2021-05-22T08:27:51Z</time>
      </trkpt>
      <trkpt lat="42.5047180" lon="-8.6496680">
        <ele>123.0</ele>
        <time>2021-05-22T08:27:52Z</time>
      </trkpt>
      <trkpt lat="42.5047280" lon="-8.6496540">
        <ele>123.0</ele>
        <time>2021-05-22T08:27:53Z</time>
      </trkpt>
      <trkpt lat="42.5047280" lon="-8.6496480">
        <ele>123.0</ele>
        <time>2021-05-22T08:27:54Z</time>
      </trkpt>
      <trkpt lat="42.5047250" lon="-8.6496420">
        <ele>123.0</ele>
        <time>2021-05-22T08:27:55Z</time>
      </trkpt>
      <trkpt lat="42.5047170" lon="-8.6496470">
        <ele>123.0</ele>
        <time>2021-05-22T08:27:56Z</time>
      </trkpt>
      <trkpt lat="42.5047280" lon="-8.6496560">
        <ele>123.0</ele>
        <time>2021-05-22T08:27:57Z</time>
      </trkpt>
      <trkpt lat="42.5047310" lon="-8.6496580">
        <ele>123.0</ele>
        <time>2021-05-22T08:27:58Z</time>
      </trkpt>
      <trkpt lat="42.5047350" lon="-8.6496600">
        <ele>123.0</ele>
        <time>2021-05-22T08:27:59Z</time>
      </trkpt>
      <trkpt lat="42.5047380" lon="-8.6496630">
        <ele>123.0</ele>
        <time>2021-05-22T08:28:00Z</time>
      </trkpt>
      <trkpt lat="42.5047420" lon="-8.6496650">
        <ele>123.0</ele>
        <time>2021-05-22T08:28:01Z</time>
      </trkpt>
      <trkpt lat="42.5047450" lon="-8.6496670">
        <ele>123.0</ele>
        <time>2021-05-22T08:28:02Z</time>
      </trkpt>
      <trkpt lat="42.5047490" lon="-8.6496690">
        <ele>123.0</ele>
        <time>2021-05-22T08:28:03Z</time>
      </trkpt>
      <trkpt lat="42.5047530" lon="-8.6496710">
        <ele>122.9</ele>
        <time>2021-05-22T08:28:04Z</time>
      </trkpt>
      <trkpt lat="42.5047560" lon="-8.6496730">
        <ele>122.9</ele>
        <time>2021-05-22T08:28:05Z</time>
      </trkpt>
      <trkpt lat="42.5047600" lon="-8.6496750">
        <ele>122.9</ele>
        <time>2021-05-22T08:28:06Z</time>
      </trkpt>
      <trkpt lat="42.5047630" lon="-8.6496780">
        <ele>122.9</ele>
        <time>2021-05-22T08:28:07Z</time>
      </trkpt>
      <trkpt lat="42.5047670" lon="-8.6496800">
        <ele>122.9</ele>
        <time>2021-05-22T08:28:08Z</time>
      </trkpt>
      <trkpt lat="42.5047700" lon="-8.6496820">
        <ele>122.9</ele>
        <time>2021-05-22T08:28:09Z</time>
      </trkpt>
      <trkpt lat="42.5047740" lon="-8.6496840">
        <ele>122.9</ele>
        <time>2021-05-22T08:28:10Z</time>
      </trkpt>
      <trkpt lat="42.5047750" lon="-8.6496900">
        <ele>122.9</ele>
        <time>2021-05-22T08:28:11Z</time>
      </trkpt>
      <trkpt lat="42.5047770" lon="-8.6496910">
        <ele>122.9</ele>
        <time>2021-05-22T08:28:12Z</time>
      </trkpt>
      <trkpt lat="42.5047830" lon="-8.6496850">
        <ele>122.9</ele>
        <time>2021-05-22T08:28:13Z</time>
      </trkpt>
      <trkpt lat="42.5047820" lon="-8.6496830">
        <ele>122.9</ele>
        <time>2021-05-22T08:28:14Z</time>
      </trkpt>
      <trkpt lat="42.5047860" lon="-8.6496830">
        <ele>122.8</ele>
        <time>2021-05-22T08:28:15Z</time>
      </trkpt>
      <trkpt lat="42.5047870" lon="-8.6496930">
        <ele>122.8</ele>
        <time>2021-05-22T08:28:16Z</time>
      </trkpt>
      <trkpt lat="42.5047860" lon="-8.6496950">
        <ele>122.8</ele>
        <time>2021-05-22T08:28:17Z</time>
      </trkpt>
      <trkpt lat="42.5047870" lon="-8.6497000">
        <ele>122.8</ele>
        <time>2021-05-22T08:28:18Z</time>
      </trkpt>
      <trkpt lat="42.5047970" lon="-8.6497030">
        <ele>122.8</ele>
        <time>2021-05-22T08:28:19Z</time>
      </trkpt>
      <trkpt lat="42.5048040" lon="-8.6496980">
        <ele>122.8</ele>
        <time>2021-05-22T08:28:20Z</time>
      </trkpt>
      <trkpt lat="42.5048060" lon="-8.6496990">
        <ele>122.8</ele>
        <time>2021-05-22T08:28:21Z</time>
      </trkpt>
      <trkpt lat="42.5048040" lon="-8.6497060">
        <ele>122.8</ele>
        <time>2021-05-22T08:28:22Z</time>
      </trkpt>
      <trkpt lat="42.5048110" lon="-8.6497120">
        <ele>122.8</ele>
        <time>2021-05-22T08:28:23Z</time>
      </trkpt>
      <trkpt lat="42.5048110" lon="-8.6497120">
        <ele>122.8</ele>
        <time>2021-05-22T08:28:24Z</time>
      </trkpt>
      <trkpt lat="42.5048110" lon="-8.6497120">
        <ele>122.8</ele>
        <time>2021-05-22T08:28:25Z</time>
      </trkpt>
      <trkpt lat="42.5048140" lon="-8.6497230">
        <ele>122.8</ele>
        <time>2021-05-22T08:28:26Z</time>
      </trkpt>
      <trkpt lat="42.5048100" lon="-8.6497280">
        <ele>122.8</ele>
        <time>2021-05-22T08:28:27Z</time>
      </trkpt>
      <trkpt lat="42.5048090" lon="-8.6497330">
        <ele>122.8</ele>
        <time>2021-05-22T08:28:28Z</time>
      </trkpt>
      <trkpt lat="42.5048150" lon="-8.6497340">
        <ele>122.8</ele>
        <time>2021-05-22T08:28:29Z</time>
      </trkpt>
      <trkpt lat="42.5048180" lon="-8.6497250">
        <ele>122.8</ele>
        <time>2021-05-22T08:28:30Z</time>
      </trkpt>
      <trkpt lat="42.5048240" lon="-8.6497130">
        <ele>122.8</ele>
        <time>2021-05-22T08:28:31Z</time>
      </trkpt>
      <trkpt lat="42.5048170" lon="-8.6497090">
        <ele>122.7</ele>
        <time>2021-05-22T08:28:32Z</time>
      </trkpt>
      <trkpt lat="42.5048220" lon="-8.6497000">
        <ele>122.7</ele>
        <time>2021-05-22T08:28:33Z</time>
      </trkpt>
      <trkpt lat="42.5048290" lon="-8.6496930">
        <ele>122.7</ele>
        <time>2021-05-22T08:28:34Z</time>
      </trkpt>
      <trkpt lat="42.5048270" lon="-8.6496920">
        <ele>122.7</ele>
        <time>2021-05-22T08:28:35Z</time>
      </trkpt>
      <trkpt lat="42.5048230" lon="-8.6496880">
        <ele>122.7</ele>
        <time>2021-05-22T08:28:36Z</time>
      </trkpt>
      <trkpt lat="42.5048190" lon="-8.6496830">
        <ele>122.7</ele>
        <time>2021-05-22T08:28:37Z</time>
      </trkpt>
      <trkpt lat="42.5048150" lon="-8.6496730">
        <ele>122.7</ele>
        <time>2021-05-22T08:28:38Z</time>
      </trkpt>
      <trkpt lat="42.5048070" lon="-8.6496600">
        <ele>122.6</ele>
        <time>2021-05-22T08:28:39Z</time>
      </trkpt>
      <trkpt lat="42.5048030" lon="-8.6496550">
        <ele>122.6</ele>
        <time>2021-05-22T08:28:40Z</time>
      </trkpt>
      <trkpt lat="42.5047960" lon="-8.6496560">
        <ele>122.6</ele>
        <time>2021-05-22T08:28:41Z</time>
      </trkpt>
      <trkpt lat="42.5047810" lon="-8.6496630">
        <ele>122.6</ele>
        <time>2021-05-22T08:28:42Z</time>
      </trkpt>
      <trkpt lat="42.5047810" lon="-8.6496600">
        <ele>122.6</ele>
        <time>2021-05-22T08:28:43Z</time>
      </trkpt>
      <trkpt lat="42.5047710" lon="-8.6496610">
        <ele>122.6</ele>
        <time>2021-05-22T08:28:44Z</time>
      </trkpt>
      <trkpt lat="42.5047810" lon="-8.6496610">
        <ele>122.6</ele>
        <time>2021-05-22T08:28:45Z</time>
      </trkpt>
      <trkpt lat="42.5047770" lon="-8.6496580">
        <ele>122.6</ele>
        <time>2021-05-22T08:28:46Z</time>
      </trkpt>
      <trkpt lat="42.5047680" lon="-8.6496530">
        <ele>122.6</ele>
        <time>2021-05-22T08:28:47Z</time>
      </trkpt>
      <trkpt lat="42.5047770" lon="-8.6496570">
        <ele>122.6</ele>
        <time>2021-05-22T08:28:48Z</time>
      </trkpt>
      <trkpt lat="42.5047770" lon="-8.6496440">
        <ele>122.6</ele>
        <time>2021-05-22T08:28:49Z</time>
      </trkpt>
      <trkpt lat="42.5047800" lon="-8.6496510">
        <ele>122.6</ele>
        <time>2021-05-22T08:28:50Z</time>
      </trkpt>
      <trkpt lat="42.5047770" lon="-8.6496520">
        <ele>122.6</ele>
        <time>2021-05-22T08:28:51Z</time>
      </trkpt>
      <trkpt lat="42.5047840" lon="-8.6496610">
        <ele>122.5</ele>
        <time>2021-05-22T08:28:52Z</time>
      </trkpt>
      <trkpt lat="42.5047860" lon="-8.6496630">
        <ele>122.5</ele>
        <time>2021-05-22T08:28:53Z</time>
      </trkpt>
      <trkpt lat="42.5047990" lon="-8.6496970">
        <ele>122.5</ele>
        <time>2021-05-22T08:28:54Z</time>
      </trkpt>
      <trkpt lat="42.5047970" lon="-8.6497200">
        <ele>122.5</ele>
        <time>2021-05-22T08:28:55Z</time>
      </trkpt>
      <trkpt lat="42.5048100" lon="-8.6497330">
        <ele>122.4</ele>
        <time>2021-05-22T08:28:56Z</time>
      </trkpt>
      <trkpt lat="42.5047990" lon="-8.6496740">
        <ele>122.4</ele>
        <time>2021-05-22T08:28:57Z</time>
      </trkpt>
      <trkpt lat="42.5048000" lon="-8.6496440">
        <ele>122.4</ele>
        <time>2021-05-22T08:28:58Z</time>
      </trkpt>
      <trkpt lat="42.5048120" lon="-8.6496510">
        <ele>122.4</ele>
        <time>2021-05-22T08:28:59Z</time>
      </trkpt>
      <trkpt lat="42.5048250" lon="-8.6496570">
        <ele>122.4</ele>
        <time>2021-05-22T08:29:00Z</time>
      </trkpt>
      <trkpt lat="42.5048370" lon="-8.6496640">
        <ele>122.4</ele>
        <time>2021-05-22T08:29:01Z</time>
      </trkpt>
      <trkpt lat="42.5048460" lon="-8.6496790">
        <ele>122.4</ele>
        <time>2021-05-22T08:29:02Z</time>
      </trkpt>
      <trkpt lat="42.5048650" lon="-8.6496760">
        <ele>122.4</ele>
        <time>2021-05-22T08:29:03Z</time>
      </trkpt>
      <trkpt lat="42.5048730" lon="-8.6496770">
        <ele>122.4</ele>
        <time>2021-05-22T08:29:04Z</time>
      </trkpt>
      <trkpt lat="42.5048720" lon="-8.6496770">
        <ele>122.4</ele>
        <time>2021-05-22T08:29:05Z</time>
      </trkpt>
      <trkpt lat="42.5048700" lon="-8.6496780">
        <ele>122.3</ele>
        <time>2021-05-22T08:29:06Z</time>
      </trkpt>
      <trkpt lat="42.5048690" lon="-8.6496780">
        <ele>122.3</ele>
        <time>2021-05-22T08:29:07Z</time>
      </trkpt>
      <trkpt lat="42.5048670" lon="-8.6496780">
        <ele>122.3</ele>
        <time>2021-05-22T08:29:08Z</time>
      </trkpt>
      <trkpt lat="42.5048650" lon="-8.6496780">
        <ele>122.3</ele>
        <time>2021-05-22T08:29:09Z</time>
      </trkpt>
      <trkpt lat="42.5048640" lon="-8.6496780">
        <ele>122.3</ele>
        <time>2021-05-22T08:29:10Z</time>
      </trkpt>
      <trkpt lat="42.5048620" lon="-8.6496790">
        <ele>122.3</ele>
        <time>2021-05-22T08:29:11Z</time>
      </trkpt>
      <trkpt lat="42.5048600" lon="-8.6496790">
        <ele>122.3</ele>
        <time>2021-05-22T08:29:12Z</time>
      </trkpt>
      <trkpt lat="42.5048590" lon="-8.6496790">
        <ele>122.3</ele>
        <time>2021-05-22T08:29:13Z</time>
      </trkpt>
      <trkpt lat="42.5048570" lon="-8.6496790">
        <ele>122.3</ele>
        <time>2021-05-22T08:29:14Z</time>
      </trkpt>
      <trkpt lat="42.5048560" lon="-8.6496790">
        <ele>122.2</ele>
        <time>2021-05-22T08:29:15Z</time>
      </trkpt>
      <trkpt lat="42.5048540" lon="-8.6496790">
        <ele>122.2</ele>
        <time>2021-05-22T08:29:16Z</time>
      </trkpt>
      <trkpt lat="42.5048520" lon="-8.6496800">
        <ele>122.2</ele>
        <time>2021-05-22T08:29:17Z</time>
      </trkpt>
      <trkpt lat="42.5048510" lon="-8.6496800">
        <ele>122.2</ele>
        <time>2021-05-22T08:29:18Z</time>
      </trkpt>
      <trkpt lat="42.5048490" lon="-8.6496800">
        <ele>122.2</ele>
        <time>2021-05-22T08:29:19Z</time>
      </trkpt>
      <trkpt lat="42.5048470" lon="-8.6496800">
        <ele>122.2</ele>
        <time>2021-05-22T08:29:20Z</time>
      </trkpt>
      <trkpt lat="42.5048460" lon="-8.6496800">
        <ele>122.2</ele>
        <time>2021-05-22T08:29:21Z</time>
      </trkpt>
      <trkpt lat="42.5048440" lon="-8.6496810">
        <ele>122.2</ele>
        <time>2021-05-22T08:29:22Z</time>
      </trkpt>
      <trkpt lat="42.5048430" lon="-8.6496810">
        <ele>122.2</ele>
        <time>2021-05-22T08:29:23Z</time>
      </trkpt>
      <trkpt lat="42.5048410" lon="-8.6496810">
        <ele>122.2</ele>
        <time>2021-05-22T08:29:24Z</time>
      </trkpt>
      <trkpt lat="42.5048390" lon="-8.6496810">
        <ele>122.2</ele>
        <time>2021-05-22T08:29:25Z</time>
      </trkpt>
      <trkpt lat="42.5048380" lon="-8.6496810">
        <ele>122.2</ele>
        <time>2021-05-22T08:29:26Z</time>
      </trkpt>
      <trkpt lat="42.5048360" lon="-8.6496820">
        <ele>122.2</ele>
        <time>2021-05-22T08:29:27Z</time>
      </trkpt>
      <trkpt lat="42.5048350" lon="-8.6496820">
        <ele>122.2</ele>
        <time>2021-05-22T08:29:28Z</time>
      </trkpt>
      <trkpt lat="42.5048330" lon="-8.6496820">
        <ele>122.2</ele>
        <time>2021-05-22T08:29:29Z</time>
      </trkpt>
      <trkpt lat="42.5048310" lon="-8.6496820">
        <ele>122.2</ele>
        <time>2021-05-22T08:29:30Z</time>
      </trkpt>
      <trkpt lat="42.5048300" lon="-8.6496820">
        <ele>122.2</ele>
        <time>2021-05-22T08:29:31Z</time>
      </trkpt>
      <trkpt lat="42.5048280" lon="-8.6496830">
        <ele>122.2</ele>
        <time>2021-05-22T08:29:32Z</time>
      </trkpt>
      <trkpt lat="42.5048260" lon="-8.6496830">
        <ele>122.2</ele>
        <time>2021-05-22T08:29:33Z</time>
      </trkpt>
      <trkpt lat="42.5048250" lon="-8.6496830">
        <ele>122.2</ele>
        <time>2021-05-22T08:29:34Z</time>
      </trkpt>
      <trkpt lat="42.5048230" lon="-8.6496830">
        <ele>122.2</ele>
        <time>2021-05-22T08:29:35Z</time>
      </trkpt>
      <trkpt lat="42.5048220" lon="-8.6496830">
        <ele>122.2</ele>
        <time>2021-05-22T08:29:36Z</time>
      </trkpt>
      <trkpt lat="42.5048200" lon="-8.6496830">
        <ele>122.2</ele>
        <time>2021-05-22T08:29:37Z</time>
      </trkpt>
      <trkpt lat="42.5048180" lon="-8.6496840">
        <ele>122.2</ele>
        <time>2021-05-22T08:29:38Z</time>
      </trkpt>
      <trkpt lat="42.5048170" lon="-8.6496840">
        <ele>122.2</ele>
        <time>2021-05-22T08:29:39Z</time>
      </trkpt>
      <trkpt lat="42.5048150" lon="-8.6496840">
        <ele>122.2</ele>
        <time>2021-05-22T08:29:40Z</time>
      </trkpt>
      <trkpt lat="42.5048130" lon="-8.6496840">
        <ele>122.2</ele>
        <time>2021-05-22T08:29:41Z</time>
      </trkpt>
      <trkpt lat="42.5048120" lon="-8.6496840">
        <ele>122.2</ele>
        <time>2021-05-22T08:29:42Z</time>
      </trkpt>
      <trkpt lat="42.5048100" lon="-8.6496850">
        <ele>122.2</ele>
        <time>2021-05-22T08:29:43Z</time>
      </trkpt>
      <trkpt lat="42.5048090" lon="-8.6496850">
        <ele>122.2</ele>
        <time>2021-05-22T08:29:44Z</time>
      </trkpt>
      <trkpt lat="42.5048070" lon="-8.6496850">
        <ele>122.2</ele>
        <time>2021-05-22T08:29:45Z</time>
      </trkpt>
      <trkpt lat="42.5048010" lon="-8.6496880">
        <ele>122.2</ele>
        <time>2021-05-22T08:29:46Z</time>
      </trkpt>
      <trkpt lat="42.5047990" lon="-8.6496890">
        <ele>122.2</ele>
        <time>2021-05-22T08:29:47Z</time>
      </trkpt>
      <trkpt lat="42.5047980" lon="-8.6496900">
        <ele>122.2</ele>
        <time>2021-05-22T08:29:48Z</time>
      </trkpt>
      <trkpt lat="42.5047960" lon="-8.6496910">
        <ele>122.2</ele>
        <time>2021-05-22T08:29:49Z</time>
      </trkpt>
      <trkpt lat="42.5047950" lon="-8.6496920">
        <ele>122.2</ele>
        <time>2021-05-22T08:29:50Z</time>
      </trkpt>
      <trkpt lat="42.5047940" lon="-8.6496930">
        <ele>122.2</ele>
        <time>2021-05-22T08:29:51Z</time>
      </trkpt>
      <trkpt lat="42.5047920" lon="-8.6496950">
        <ele>122.2</ele>
        <time>2021-05-22T08:29:52Z</time>
      </trkpt>
      <trkpt lat="42.5047910" lon="-8.6496960">
        <ele>122.2</ele>
        <time>2021-05-22T08:29:53Z</time>
      </trkpt>
      <trkpt lat="42.5047890" lon="-8.6496970">
        <ele>122.2</ele>
        <time>2021-05-22T08:29:54Z</time>
      </trkpt>
      <trkpt lat="42.5047880" lon="-8.6496980">
        <ele>122.2</ele>
        <time>2021-05-22T08:29:55Z</time>
      </trkpt>
      <trkpt lat="42.5047870" lon="-8.6496990">
        <ele>122.2</ele>
        <time>2021-05-22T08:29:56Z</time>
      </trkpt>
      <trkpt lat="42.5047850" lon="-8.6497000">
        <ele>122.2</ele>
        <time>2021-05-22T08:29:57Z</time>
      </trkpt>
      <trkpt lat="42.5047840" lon="-8.6497010">
        <ele>122.2</ele>
        <time>2021-05-22T08:29:58Z</time>
      </trkpt>
      <trkpt lat="42.5047820" lon="-8.6497020">
        <ele>122.2</ele>
        <time>2021-05-22T08:29:59Z</time>
      </trkpt>
      <trkpt lat="42.5047810" lon="-8.6497030">
        <ele>122.2</ele>
        <time>2021-05-22T08:30:00Z</time>
      </trkpt>
      <trkpt lat="42.5047800" lon="-8.6497040">
        <ele>122.2</ele>
        <time>2021-05-22T08:30:01Z</time>
      </trkpt>
      <trkpt lat="42.5047780" lon="-8.6497050">
        <ele>122.2</ele>
        <time>2021-05-22T08:30:02Z</time>
      </trkpt>
      <trkpt lat="42.5047770" lon="-8.6497060">
        <ele>122.2</ele>
        <time>2021-05-22T08:30:03Z</time>
      </trkpt>
      <trkpt lat="42.5047750" lon="-8.6497080">
        <ele>122.2</ele>
        <time>2021-05-22T08:30:04Z</time>
      </trkpt>
      <trkpt lat="42.5047740" lon="-8.6497090">
        <ele>122.2</ele>
        <time>2021-05-22T08:30:05Z</time>
      </trkpt>
      <trkpt lat="42.5047730" lon="-8.6497100">
        <ele>122.2</ele>
        <time>2021-05-22T08:30:06Z</time>
      </trkpt>
      <trkpt lat="42.5047710" lon="-8.6497110">
        <ele>122.2</ele>
        <time>2021-05-22T08:30:07Z</time>
      </trkpt>
      <trkpt lat="42.5047700" lon="-8.6497120">
        <ele>122.2</ele>
        <time>2021-05-22T08:30:08Z</time>
      </trkpt>
      <trkpt lat="42.5047680" lon="-8.6497130">
        <ele>122.2</ele>
        <time>2021-05-22T08:30:09Z</time>
      </trkpt>
      <trkpt lat="42.5047670" lon="-8.6497140">
        <ele>122.2</ele>
        <time>2021-05-22T08:30:10Z</time>
      </trkpt>
      <trkpt lat="42.5047660" lon="-8.6497150">
        <ele>122.2</ele>
        <time>2021-05-22T08:30:11Z</time>
      </trkpt>
      <trkpt lat="42.5047640" lon="-8.6497160">
        <ele>122.2</ele>
        <time>2021-05-22T08:30:12Z</time>
      </trkpt>
      <trkpt lat="42.5047630" lon="-8.6497170">
        <ele>122.2</ele>
        <time>2021-05-22T08:30:13Z</time>
      </trkpt>
      <trkpt lat="42.5047610" lon="-8.6497180">
        <ele>122.2</ele>
        <time>2021-05-22T08:30:14Z</time>
      </trkpt>
      <trkpt lat="42.5047600" lon="-8.6497190">
        <ele>122.2</ele>
        <time>2021-05-22T08:30:15Z</time>
      </trkpt>
      <trkpt lat="42.5047590" lon="-8.6497200">
        <ele>122.2</ele>
        <time>2021-05-22T08:30:16Z</time>
      </trkpt>
      <trkpt lat="42.5047570" lon="-8.6497220">
        <ele>122.2</ele>
        <time>2021-05-22T08:30:17Z</time>
      </trkpt>
      <trkpt lat="42.5047560" lon="-8.6497230">
        <ele>122.2</ele>
        <time>2021-05-22T08:30:18Z</time>
      </trkpt>
      <trkpt lat="42.5047550" lon="-8.6497240">
        <ele>122.2</ele>
        <time>2021-05-22T08:30:19Z</time>
      </trkpt>
      <trkpt lat="42.5047530" lon="-8.6497250">
        <ele>122.2</ele>
        <time>2021-05-22T08:30:20Z</time>
      </trkpt>
      <trkpt lat="42.5047520" lon="-8.6497260">
        <ele>122.2</ele>
        <time>2021-05-22T08:30:21Z</time>
      </trkpt>
      <trkpt lat="42.5047500" lon="-8.6497270">
        <ele>122.2</ele>
        <time>2021-05-22T08:30:22Z</time>
      </trkpt>
      <trkpt lat="42.5047490" lon="-8.6497280">
        <ele>122.2</ele>
        <time>2021-05-22T08:30:23Z</time>
      </trkpt>
      <trkpt lat="42.5047480" lon="-8.6497290">
        <ele>122.2</ele>
        <time>2021-05-22T08:30:24Z</time>
      </trkpt>
      <trkpt lat="42.5047460" lon="-8.6497300">
        <ele>122.2</ele>
        <time>2021-05-22T08:30:25Z</time>
      </trkpt>
      <trkpt lat="42.5047450" lon="-8.6497310">
        <ele>122.2</ele>
        <time>2021-05-22T08:30:26Z</time>
      </trkpt>
      <trkpt lat="42.5047430" lon="-8.6497320">
        <ele>122.2</ele>
        <time>2021-05-22T08:30:27Z</time>
      </trkpt>
      <trkpt lat="42.5047420" lon="-8.6497330">
        <ele>122.2</ele>
        <time>2021-05-22T08:30:28Z</time>
      </trkpt>
      <trkpt lat="42.5047410" lon="-8.6497340">
        <ele>122.2</ele>
        <time>2021-05-22T08:30:29Z</time>
      </trkpt>
      <trkpt lat="42.5047390" lon="-8.6497360">
        <ele>122.2</ele>
        <time>2021-05-22T08:30:30Z</time>
      </trkpt>
      <trkpt lat="42.5047380" lon="-8.6497370">
        <ele>122.2</ele>
        <time>2021-05-22T08:30:31Z</time>
      </trkpt>
      <trkpt lat="42.5047360" lon="-8.6497380">
        <ele>122.2</ele>
        <time>2021-05-22T08:30:32Z</time>
      </trkpt>
      <trkpt lat="42.5047350" lon="-8.6497390">
        <ele>122.2</ele>
        <time>2021-05-22T08:30:33Z</time>
      </trkpt>
      <trkpt lat="42.5047340" lon="-8.6497400">
        <ele>122.2</ele>
        <time>2021-05-22T08:30:34Z</time>
      </trkpt>
      <trkpt lat="42.5047320" lon="-8.6497410">
        <ele>122.2</ele>
        <time>2021-05-22T08:30:35Z</time>
      </trkpt>
      <trkpt lat="42.5047310" lon="-8.6497420">
        <ele>122.2</ele>
        <time>2021-05-22T08:30:36Z</time>
      </trkpt>
      <trkpt lat="42.5047290" lon="-8.6497430">
        <ele>122.2</ele>
        <time>2021-05-22T08:30:37Z</time>
      </trkpt>
      <trkpt lat="42.5047280" lon="-8.6497440">
        <ele>122.2</ele>
        <time>2021-05-22T08:30:38Z</time>
      </trkpt>
      <trkpt lat="42.5047270" lon="-8.6497450">
        <ele>122.2</ele>
        <time>2021-05-22T08:30:39Z</time>
      </trkpt>
      <trkpt lat="42.5047250" lon="-8.6497460">
        <ele>122.2</ele>
        <time>2021-05-22T08:30:40Z</time>
      </trkpt>
      <trkpt lat="42.5047240" lon="-8.6497470">
        <ele>122.2</ele>
        <time>2021-05-22T08:30:41Z</time>
      </trkpt>
      <trkpt lat="42.5047220" lon="-8.6497490">
        <ele>122.2</ele>
        <time>2021-05-22T08:30:42Z</time>
      </trkpt>
      <trkpt lat="42.5047210" lon="-8.6497500">
        <ele>122.2</ele>
        <time>2021-05-22T08:30:43Z</time>
      </trkpt>
      <trkpt lat="42.5047200" lon="-8.6497510">
        <ele>122.2</ele>
        <time>2021-05-22T08:30:44Z</time>
      </trkpt>
      <trkpt lat="42.5047180" lon="-8.6497520">
        <ele>122.2</ele>
        <time>2021-05-22T08:30:45Z</time>
      </trkpt>
      <trkpt lat="42.5047170" lon="-8.6497530">
        <ele>122.2</ele>
        <time>2021-05-22T08:30:46Z</time>
      </trkpt>
      <trkpt lat="42.5047150" lon="-8.6497540">
        <ele>122.2</ele>
        <time>2021-05-22T08:30:47Z</time>
      </trkpt>
      <trkpt lat="42.5047140" lon="-8.6497550">
        <ele>122.2</ele>
        <time>2021-05-22T08:30:48Z</time>
      </trkpt>
      <trkpt lat="42.5047250" lon="-8.6497510">
        <ele>122.2</ele>
        <time>2021-05-22T08:30:49Z</time>
      </trkpt>
      <trkpt lat="42.5047280" lon="-8.6497490">
        <ele>122.1</ele>
        <time>2021-05-22T08:30:50Z</time>
      </trkpt>
      <trkpt lat="42.5047300" lon="-8.6497480">
        <ele>122.1</ele>
        <time>2021-05-22T08:30:51Z</time>
      </trkpt>
      <trkpt lat="42.5047320" lon="-8.6497460">
        <ele>122.1</ele>
        <time>2021-05-22T08:30:52Z</time>
      </trkpt>
      <trkpt lat="42.5047340" lon="-8.6497450">
        <ele>122.1</ele>
        <time>2021-05-22T08:30:53Z</time>
      </trkpt>
      <trkpt lat="42.5047370" lon="-8.6497440">
        <ele>122.1</ele>
        <time>2021-05-22T08:30:54Z</time>
      </trkpt>
      <trkpt lat="42.5047390" lon="-8.6497420">
        <ele>122.1</ele>
        <time>2021-05-22T08:30:55Z</time>
      </trkpt>
      <trkpt lat="42.5047410" lon="-8.6497410">
        <ele>122.1</ele>
        <time>2021-05-22T08:30:56Z</time>
      </trkpt>
      <trkpt lat="42.5047440" lon="-8.6497390">
        <ele>122.1</ele>
        <time>2021-05-22T08:30:57Z</time>
      </trkpt>
      <trkpt lat="42.5047460" lon="-8.6497380">
        <ele>122.1</ele>
        <time>2021-05-22T08:30:58Z</time>
      </trkpt>
      <trkpt lat="42.5047480" lon="-8.6497370">
        <ele>122.1</ele>
        <time>2021-05-22T08:30:59Z</time>
      </trkpt>
      <trkpt lat="42.5047500" lon="-8.6497350">
        <ele>122.1</ele>
        <time>2021-05-22T08:31:00Z</time>
      </trkpt>
      <trkpt lat="42.5047530" lon="-8.6497340">
        <ele>122.1</ele>
        <time>2021-05-22T08:31:01Z</time>
      </trkpt>
      <trkpt lat="42.5047550" lon="-8.6497320">
        <ele>122.1</ele>
        <time>2021-05-22T08:31:02Z</time>
      </trkpt>
      <trkpt lat="42.5047570" lon="-8.6497310">
        <ele>122.1</ele>
        <time>2021-05-22T08:31:03Z</time>
      </trkpt>
      <trkpt lat="42.5047600" lon="-8.6497300">
        <ele>122.1</ele>
        <time>2021-05-22T08:31:04Z</time>
      </trkpt>
      <trkpt lat="42.5047620" lon="-8.6497280">
        <ele>122.1</ele>
        <time>2021-05-22T08:31:05Z</time>
      </trkpt>
      <trkpt lat="42.5047640" lon="-8.6497270">
        <ele>122.1</ele>
        <time>2021-05-22T08:31:06Z</time>
      </trkpt>
      <trkpt lat="42.5047660" lon="-8.6497250">
        <ele>122.1</ele>
        <time>2021-05-22T08:31:07Z</time>
      </trkpt>
      <trkpt lat="42.5047690" lon="-8.6497240">
        <ele>122.1</ele>
        <time>2021-05-22T08:31:08Z</time>
      </trkpt>
      <trkpt lat="42.5047710" lon="-8.6497220">
        <ele>122.1</ele>
        <time>2021-05-22T08:31:09Z</time>
      </trkpt>
      <trkpt lat="42.5047730" lon="-8.6497210">
        <ele>122.1</ele>
        <time>2021-05-22T08:31:10Z</time>
      </trkpt>
      <trkpt lat="42.5047750" lon="-8.6497200">
        <ele>122.1</ele>
        <time>2021-05-22T08:31:11Z</time>
      </trkpt>
      <trkpt lat="42.5047780" lon="-8.6497180">
        <ele>122.1</ele>
        <time>2021-05-22T08:31:12Z</time>
      </trkpt>
      <trkpt lat="42.5047800" lon="-8.6497170">
        <ele>122.1</ele>
        <time>2021-05-22T08:31:13Z</time>
      </trkpt>
      <trkpt lat="42.5047820" lon="-8.6497150">
        <ele>122.1</ele>
        <time>2021-05-22T08:31:14Z</time>
      </trkpt>
      <trkpt lat="42.5047850" lon="-8.6497140">
        <ele>122.1</ele>
        <time>2021-05-22T08:31:15Z</time>
      </trkpt>
      <trkpt lat="42.5047870" lon="-8.6497130">
        <ele>122.1</ele>
        <time>2021-05-22T08:31:16Z</time>
      </trkpt>
      <trkpt lat="42.5047890" lon="-8.6497110">
        <ele>122.1</ele>
        <time>2021-05-22T08:31:17Z</time>
      </trkpt>
      <trkpt lat="42.5047910" lon="-8.6497100">
        <ele>122.1</ele>
        <time>2021-05-22T08:31:18Z</time>
      </trkpt>
      <trkpt lat="42.5047940" lon="-8.6497080">
        <ele>122.1</ele>
        <time>2021-05-22T08:31:19Z</time>
      </trkpt>
      <trkpt lat="42.5047960" lon="-8.6497070">
        <ele>122.1</ele>
        <time>2021-05-22T08:31:20Z</time>
      </trkpt>
      <trkpt lat="42.5047950" lon="-8.6497070">
        <ele>122.1</ele>
        <time>2021-05-22T08:31:21Z</time>
      </trkpt>
      <trkpt lat="42.5047950" lon="-8.6497070">
        <ele>122.1</ele>
        <time>2021-05-22T08:31:22Z</time>
      </trkpt>
      <trkpt lat="42.5048000" lon="-8.6497100">
        <ele>122.1</ele>
        <time>2021-05-22T08:31:23Z</time>
      </trkpt>
      <trkpt lat="42.5048000" lon="-8.6497110">
        <ele>122.1</ele>
        <time>2021-05-22T08:31:24Z</time>
      </trkpt>
      <trkpt lat="42.5048060" lon="-8.6497110">
        <ele>122.1</ele>
        <time>2021-05-22T08:31:25Z</time>
      </trkpt>
      <trkpt lat="42.5048130" lon="-8.6497080">
        <ele>122.1</ele>
        <time>2021-05-22T08:31:26Z</time>
      </trkpt>
      <trkpt lat="42.5048100" lon="-8.6497150">
        <ele>122.1</ele>
        <time>2021-05-22T08:31:27Z</time>
      </trkpt>
      <trkpt lat="42.5048060" lon="-8.6497170">
        <ele>122.1</ele>
        <time>2021-05-22T08:31:28Z</time>
      </trkpt>
      <trkpt lat="42.5048140" lon="-8.6497170">
        <ele>122.1</ele>
        <time>2021-05-22T08:31:29Z</time>
      </trkpt>
      <trkpt lat="42.5048140" lon="-8.6497170">
        <ele>122.1</ele>
        <time>2021-05-22T08:31:30Z</time>
      </trkpt>
      <trkpt lat="42.5048140" lon="-8.6497170">
        <ele>122.1</ele>
        <time>2021-05-22T08:31:31Z</time>
      </trkpt>
      <trkpt lat="42.5048140" lon="-8.6497170">
        <ele>122.1</ele>
        <time>2021-05-22T08:31:32Z</time>
      </trkpt>
      <trkpt lat="42.5048140" lon="-8.6497170">
        <ele>122.1</ele>
        <time>2021-05-22T08:31:33Z</time>
      </trkpt>
      <trkpt lat="42.5048140" lon="-8.6497170">
        <ele>122.1</ele>
        <time>2021-05-22T08:31:34Z</time>
      </trkpt>
      <trkpt lat="42.5048240" lon="-8.6497020">
        <ele>122.1</ele>
        <time>2021-05-22T08:31:35Z</time>
      </trkpt>
      <trkpt lat="42.5048240" lon="-8.6497040">
        <ele>122.1</ele>
        <time>2021-05-22T08:31:36Z</time>
      </trkpt>
      <trkpt lat="42.5048260" lon="-8.6496990">
        <ele>122.1</ele>
        <time>2021-05-22T08:31:37Z</time>
      </trkpt>
      <trkpt lat="42.5048290" lon="-8.6497000">
        <ele>122.1</ele>
        <time>2021-05-22T08:31:38Z</time>
      </trkpt>
      <trkpt lat="42.5048310" lon="-8.6496980">
        <ele>122.1</ele>
        <time>2021-05-22T08:31:39Z</time>
      </trkpt>
      <trkpt lat="42.5048260" lon="-8.6497010">
        <ele>122.1</ele>
        <time>2021-05-22T08:31:40Z</time>
      </trkpt>
      <trkpt lat="42.5048170" lon="-8.6497020">
        <ele>122.1</ele>
        <time>2021-05-22T08:31:41Z</time>
      </trkpt>
      <trkpt lat="42.5048180" lon="-8.6497030">
        <ele>122.1</ele>
        <time>2021-05-22T08:31:42Z</time>
      </trkpt>
      <trkpt lat="42.5048140" lon="-8.6497040">
        <ele>122.1</ele>
        <time>2021-05-22T08:31:43Z</time>
      </trkpt>
      <trkpt lat="42.5048070" lon="-8.6497090">
        <ele>122.0</ele>
        <time>2021-05-22T08:31:44Z</time>
      </trkpt>
      <trkpt lat="42.5047940" lon="-8.6497160">
        <ele>122.0</ele>
        <time>2021-05-22T08:31:45Z</time>
      </trkpt>
      <trkpt lat="42.5048020" lon="-8.6497140">
        <ele>122.0</ele>
        <time>2021-05-22T08:31:46Z</time>
      </trkpt>
      <trkpt lat="42.5048070" lon="-8.6497110">
        <ele>122.0</ele>
        <time>2021-05-22T08:31:47Z</time>
      </trkpt>
      <trkpt lat="42.5048130" lon="-8.6497090">
        <ele>122.0</ele>
        <time>2021-05-22T08:31:48Z</time>
      </trkpt>
      <trkpt lat="42.5048190" lon="-8.6497060">
        <ele>122.0</ele>
        <time>2021-05-22T08:31:49Z</time>
      </trkpt>
      <trkpt lat="42.5048240" lon="-8.6497040">
        <ele>122.0</ele>
        <time>2021-05-22T08:31:50Z</time>
      </trkpt>
      <trkpt lat="42.5048300" lon="-8.6497010">
        <ele>122.0</ele>
        <time>2021-05-22T08:31:51Z</time>
      </trkpt>
      <trkpt lat="42.5048230" lon="-8.6497040">
        <ele>122.0</ele>
        <time>2021-05-22T08:31:52Z</time>
      </trkpt>
      <trkpt lat="42.5048250" lon="-8.6497060">
        <ele>122.0</ele>
        <time>2021-05-22T08:31:53Z</time>
      </trkpt>
      <trkpt lat="42.5048270" lon="-8.6497070">
        <ele>122.0</ele>
        <time>2021-05-22T08:31:54Z</time>
      </trkpt>
      <trkpt lat="42.5048190" lon="-8.6497110">
        <ele>122.0</ele>
        <time>2021-05-22T08:31:55Z</time>
      </trkpt>
      <trkpt lat="42.5048200" lon="-8.6497090">
        <ele>122.0</ele>
        <time>2021-05-22T08:31:56Z</time>
      </trkpt>
      <trkpt lat="42.5048270" lon="-8.6497090">
        <ele>122.0</ele>
        <time>2021-05-22T08:31:57Z</time>
      </trkpt>
      <trkpt lat="42.5048300" lon="-8.6497070">
        <ele>122.0</ele>
        <time>2021-05-22T08:31:58Z</time>
      </trkpt>
      <trkpt lat="42.5048250" lon="-8.6497140">
        <ele>122.0</ele>
        <time>2021-05-22T08:31:59Z</time>
      </trkpt>
      <trkpt lat="42.5048260" lon="-8.6497210">
        <ele>122.0</ele>
        <time>2021-05-22T08:32:00Z</time>
      </trkpt>
      <trkpt lat="42.5048280" lon="-8.6497220">
        <ele>122.0</ele>
        <time>2021-05-22T08:32:01Z</time>
      </trkpt>
      <trkpt lat="42.5048240" lon="-8.6497340">
        <ele>122.0</ele>
        <time>2021-05-22T08:32:02Z</time>
      </trkpt>
      <trkpt lat="42.5048220" lon="-8.6497260">
        <ele>122.0</ele>
        <time>2021-05-22T08:32:03Z</time>
      </trkpt>
      <trkpt lat="42.5048130" lon="-8.6497200">
        <ele>122.0</ele>
        <time>2021-05-22T08:32:04Z</time>
      </trkpt>
      <trkpt lat="42.5048090" lon="-8.6497180">
        <ele>122.0</ele>
        <time>2021-05-22T08:32:05Z</time>
      </trkpt>
      <trkpt lat="42.5048110" lon="-8.6497100">
        <ele>122.0</ele>
        <time>2021-05-22T08:32:06Z</time>
      </trkpt>
      <trkpt lat="42.5048120" lon="-8.6497060">
        <ele>122.0</ele>
        <time>2021-05-22T08:32:07Z</time>
      </trkpt>
      <trkpt lat="42.5048130" lon="-8.6497020">
        <ele>122.0</ele>
        <time>2021-05-22T08:32:08Z</time>
      </trkpt>
      <trkpt lat="42.5048180" lon="-8.6496920">
        <ele>122.0</ele>
        <time>2021-05-22T08:32:09Z</time>
      </trkpt>
      <trkpt lat="42.5048180" lon="-8.6496960">
        <ele>122.0</ele>
        <time>2021-05-22T08:32:10Z</time>
      </trkpt>
      <trkpt lat="42.5048060" lon="-8.6496940">
        <ele>122.0</ele>
        <time>2021-05-22T08:32:11Z</time>
      </trkpt>
      <trkpt lat="42.5048070" lon="-8.6496840">
        <ele>121.9</ele>
        <time>2021-05-22T08:32:12Z</time>
      </trkpt>
      <trkpt lat="42.5048040" lon="-8.6496770">
        <ele>121.9</ele>
        <time>2021-05-22T08:32:13Z</time>
      </trkpt>
      <trkpt lat="42.5048040" lon="-8.6496770">
        <ele>121.9</ele>
        <time>2021-05-22T08:32:14Z</time>
      </trkpt>
      <trkpt lat="42.5048040" lon="-8.6496770">
        <ele>121.9</ele>
        <time>2021-05-22T08:32:15Z</time>
      </trkpt>
      <trkpt lat="42.5048040" lon="-8.6496770">
        <ele>121.9</ele>
        <time>2021-05-22T08:32:16Z</time>
      </trkpt>
      <trkpt lat="42.5047980" lon="-8.6496590">
        <ele>121.9</ele>
        <time>2021-05-22T08:32:17Z</time>
      </trkpt>
      <trkpt lat="42.5047900" lon="-8.6496560">
        <ele>121.9</ele>
        <time>2021-05-22T08:32:18Z</time>
      </trkpt>
      <trkpt lat="42.5047870" lon="-8.6496530">
        <ele>121.9</ele>
        <time>2021-05-22T08:32:19Z</time>
      </trkpt>
      <trkpt lat="42.5047830" lon="-8.6496540">
        <ele>121.9</ele>
        <time>2021-05-22T08:32:20Z</time>
      </trkpt>
      <trkpt lat="42.5047820" lon="-8.6496530">
        <ele>121.9</ele>
        <time>2021-05-22T08:32:21Z</time>
      </trkpt>
      <trkpt lat="42.5047830" lon="-8.6496540">
        <ele>121.9</ele>
        <time>2021-05-22T08:32:22Z</time>
      </trkpt>
      <trkpt lat="42.5047830" lon="-8.6496550">
        <ele>121.9</ele>
        <time>2021-05-22T08:32:23Z</time>
      </trkpt>
      <trkpt lat="42.5047840" lon="-8.6496550">
        <ele>121.9</ele>
        <time>2021-05-22T08:32:24Z</time>
      </trkpt>
      <trkpt lat="42.5047850" lon="-8.6496550">
        <ele>121.9</ele>
        <time>2021-05-22T08:32:25Z</time>
      </trkpt>
      <trkpt lat="42.5047850" lon="-8.6496560">
        <ele>121.9</ele>
        <time>2021-05-22T08:32:26Z</time>
      </trkpt>
      <trkpt lat="42.5047860" lon="-8.6496560">
        <ele>121.9</ele>
        <time>2021-05-22T08:32:27Z</time>
      </trkpt>
      <trkpt lat="42.5047870" lon="-8.6496560">
        <ele>121.9</ele>
        <time>2021-05-22T08:32:28Z</time>
      </trkpt>
      <trkpt lat="42.5047880" lon="-8.6496570">
        <ele>121.9</ele>
        <time>2021-05-22T08:32:29Z</time>
      </trkpt>
      <trkpt lat="42.5047880" lon="-8.6496570">
        <ele>121.9</ele>
        <time>2021-05-22T08:32:30Z</time>
      </trkpt>
      <trkpt lat="42.5047890" lon="-8.6496570">
        <ele>121.9</ele>
        <time>2021-05-22T08:32:31Z</time>
      </trkpt>
      <trkpt lat="42.5047900" lon="-8.6496580">
        <ele>121.9</ele>
        <time>2021-05-22T08:32:32Z</time>
      </trkpt>
      <trkpt lat="42.5047900" lon="-8.6496580">
        <ele>121.9</ele>
        <time>2021-05-22T08:32:33Z</time>
      </trkpt>
      <trkpt lat="42.5047910" lon="-8.6496580">
        <ele>121.9</ele>
        <time>2021-05-22T08:32:34Z</time>
      </trkpt>
      <trkpt lat="42.5047920" lon="-8.6496590">
        <ele>121.9</ele>
        <time>2021-05-22T08:32:35Z</time>
      </trkpt>
      <trkpt lat="42.5047920" lon="-8.6496590">
        <ele>121.9</ele>
        <time>2021-05-22T08:32:36Z</time>
      </trkpt>
      <trkpt lat="42.5047930" lon="-8.6496590">
        <ele>121.9</ele>
        <time>2021-05-22T08:32:37Z</time>
      </trkpt>
      <trkpt lat="42.5047940" lon="-8.6496600">
        <ele>121.9</ele>
        <time>2021-05-22T08:32:38Z</time>
      </trkpt>
      <trkpt lat="42.5047940" lon="-8.6496600">
        <ele>121.9</ele>
        <time>2021-05-22T08:32:39Z</time>
      </trkpt>
      <trkpt lat="42.5047950" lon="-8.6496600">
        <ele>121.9</ele>
        <time>2021-05-22T08:32:40Z</time>
      </trkpt>
      <trkpt lat="42.5047960" lon="-8.6496610">
        <ele>121.9</ele>
        <time>2021-05-22T08:32:41Z</time>
      </trkpt>
      <trkpt lat="42.5047960" lon="-8.6496610">
        <ele>121.9</ele>
        <time>2021-05-22T08:32:42Z</time>
      </trkpt>
      <trkpt lat="42.5047970" lon="-8.6496610">
        <ele>121.9</ele>
        <time>2021-05-22T08:32:43Z</time>
      </trkpt>
      <trkpt lat="42.5047980" lon="-8.6496620">
        <ele>121.9</ele>
        <time>2021-05-22T08:32:44Z</time>
      </trkpt>
      <trkpt lat="42.5047990" lon="-8.6496620">
        <ele>121.9</ele>
        <time>2021-05-22T08:32:45Z</time>
      </trkpt>
      <trkpt lat="42.5047990" lon="-8.6496620">
        <ele>121.9</ele>
        <time>2021-05-22T08:32:46Z</time>
      </trkpt>
      <trkpt lat="42.5048000" lon="-8.6496630">
        <ele>121.9</ele>
        <time>2021-05-22T08:32:47Z</time>
      </trkpt>
      <trkpt lat="42.5048010" lon="-8.6496630">
        <ele>121.9</ele>
        <time>2021-05-22T08:32:48Z</time>
      </trkpt>
      <trkpt lat="42.5048010" lon="-8.6496640">
        <ele>121.9</ele>
        <time>2021-05-22T08:32:49Z</time>
      </trkpt>
      <trkpt lat="42.5048020" lon="-8.6496640">
        <ele>121.9</ele>
        <time>2021-05-22T08:32:50Z</time>
      </trkpt>
      <trkpt lat="42.5048030" lon="-8.6496640">
        <ele>121.9</ele>
        <time>2021-05-22T08:32:51Z</time>
      </trkpt>
      <trkpt lat="42.5048030" lon="-8.6496650">
        <ele>121.9</ele>
        <time>2021-05-22T08:32:52Z</time>
      </trkpt>
      <trkpt lat="42.5048040" lon="-8.6496650">
        <ele>121.9</ele>
        <time>2021-05-22T08:32:53Z</time>
      </trkpt>
      <trkpt lat="42.5048050" lon="-8.6496650">
        <ele>121.9</ele>
        <time>2021-05-22T08:32:54Z</time>
      </trkpt>
      <trkpt lat="42.5048050" lon="-8.6496660">
        <ele>121.9</ele>
        <time>2021-05-22T08:32:55Z</time>
      </trkpt>
      <trkpt lat="42.5048060" lon="-8.6496660">
        <ele>121.9</ele>
        <time>2021-05-22T08:32:56Z</time>
      </trkpt>
      <trkpt lat="42.5048070" lon="-8.6496660">
        <ele>121.9</ele>
        <time>2021-05-22T08:32:57Z</time>
      </trkpt>
      <trkpt lat="42.5048070" lon="-8.6496670">
        <ele>121.9</ele>
        <time>2021-05-22T08:32:58Z</time>
      </trkpt>
      <trkpt lat="42.5048080" lon="-8.6496670">
        <ele>121.9</ele>
        <time>2021-05-22T08:32:59Z</time>
      </trkpt>
      <trkpt lat="42.5048090" lon="-8.6496670">
        <ele>121.9</ele>
        <time>2021-05-22T08:33:00Z</time>
      </trkpt>
      <trkpt lat="42.5048100" lon="-8.6496680">
        <ele>121.9</ele>
        <time>2021-05-22T08:33:01Z</time>
      </trkpt>
      <trkpt lat="42.5048100" lon="-8.6496680">
        <ele>121.9</ele>
        <time>2021-05-22T08:33:02Z</time>
      </trkpt>
      <trkpt lat="42.5048110" lon="-8.6496680">
        <ele>121.9</ele>
        <time>2021-05-22T08:33:03Z</time>
      </trkpt>
      <trkpt lat="42.5048120" lon="-8.6496690">
        <ele>121.9</ele>
        <time>2021-05-22T08:33:04Z</time>
      </trkpt>
      <trkpt lat="42.5048120" lon="-8.6496690">
        <ele>121.9</ele>
        <time>2021-05-22T08:33:05Z</time>
      </trkpt>
      <trkpt lat="42.5048130" lon="-8.6496690">
        <ele>121.9</ele>
        <time>2021-05-22T08:33:06Z</time>
      </trkpt>
      <trkpt lat="42.5048140" lon="-8.6496700">
        <ele>121.9</ele>
        <time>2021-05-22T08:33:07Z</time>
      </trkpt>
      <trkpt lat="42.5048140" lon="-8.6496700">
        <ele>121.9</ele>
        <time>2021-05-22T08:33:08Z</time>
      </trkpt>
      <trkpt lat="42.5048150" lon="-8.6496700">
        <ele>121.9</ele>
        <time>2021-05-22T08:33:09Z</time>
      </trkpt>
      <trkpt lat="42.5048160" lon="-8.6496710">
        <ele>121.9</ele>
        <time>2021-05-22T08:33:10Z</time>
      </trkpt>
      <trkpt lat="42.5048160" lon="-8.6496710">
        <ele>121.9</ele>
        <time>2021-05-22T08:33:11Z</time>
      </trkpt>
      <trkpt lat="42.5048170" lon="-8.6496710">
        <ele>121.9</ele>
        <time>2021-05-22T08:33:12Z</time>
      </trkpt>
      <trkpt lat="42.5048180" lon="-8.6496720">
        <ele>121.9</ele>
        <time>2021-05-22T08:33:13Z</time>
      </trkpt>
      <trkpt lat="42.5048190" lon="-8.6496720">
        <ele>121.9</ele>
        <time>2021-05-22T08:33:14Z</time>
      </trkpt>
      <trkpt lat="42.5048190" lon="-8.6496720">
        <ele>121.9</ele>
        <time>2021-05-22T08:33:15Z</time>
      </trkpt>
      <trkpt lat="42.5048200" lon="-8.6496730">
        <ele>121.9</ele>
        <time>2021-05-22T08:33:16Z</time>
      </trkpt>
      <trkpt lat="42.5048210" lon="-8.6496730">
        <ele>121.9</ele>
        <time>2021-05-22T08:33:17Z</time>
      </trkpt>
      <trkpt lat="42.5048210" lon="-8.6496730">
        <ele>121.9</ele>
        <time>2021-05-22T08:33:18Z</time>
      </trkpt>
      <trkpt lat="42.5048220" lon="-8.6496740">
        <ele>121.9</ele>
        <time>2021-05-22T08:33:19Z</time>
      </trkpt>
      <trkpt lat="42.5048230" lon="-8.6496740">
        <ele>121.9</ele>
        <time>2021-05-22T08:33:20Z</time>
      </trkpt>
      <trkpt lat="42.5048230" lon="-8.6496740">
        <ele>121.9</ele>
        <time>2021-05-22T08:33:21Z</time>
      </trkpt>
      <trkpt lat="42.5048240" lon="-8.6496750">
        <ele>121.9</ele>
        <time>2021-05-22T08:33:22Z</time>
      </trkpt>
      <trkpt lat="42.5048250" lon="-8.6496750">
        <ele>121.9</ele>
        <time>2021-05-22T08:33:23Z</time>
      </trkpt>
      <trkpt lat="42.5048250" lon="-8.6496750">
        <ele>121.9</ele>
        <time>2021-05-22T08:33:24Z</time>
      </trkpt>
      <trkpt lat="42.5048260" lon="-8.6496760">
        <ele>121.9</ele>
        <time>2021-05-22T08:33:25Z</time>
      </trkpt>
      <trkpt lat="42.5048270" lon="-8.6496760">
        <ele>121.9</ele>
        <time>2021-05-22T08:33:26Z</time>
      </trkpt>
      <trkpt lat="42.5048270" lon="-8.6496760">
        <ele>121.9</ele>
        <time>2021-05-22T08:33:27Z</time>
      </trkpt>
      <trkpt lat="42.5048280" lon="-8.6496770">
        <ele>121.9</ele>
        <time>2021-05-22T08:33:28Z</time>
      </trkpt>
      <trkpt lat="42.5048290" lon="-8.6496770">
        <ele>121.9</ele>
        <time>2021-05-22T08:33:29Z</time>
      </trkpt>
      <trkpt lat="42.5048300" lon="-8.6496770">
        <ele>121.9</ele>
        <time>2021-05-22T08:33:30Z</time>
      </trkpt>
      <trkpt lat="42.5048300" lon="-8.6496780">
        <ele>121.9</ele>
        <time>2021-05-22T08:33:31Z</time>
      </trkpt>
      <trkpt lat="42.5048310" lon="-8.6496780">
        <ele>121.9</ele>
        <time>2021-05-22T08:33:32Z</time>
      </trkpt>
      <trkpt lat="42.5048320" lon="-8.6496780">
        <ele>121.9</ele>
        <time>2021-05-22T08:33:33Z</time>
      </trkpt>
      <trkpt lat="42.5048320" lon="-8.6496790">
        <ele>121.9</ele>
        <time>2021-05-22T08:33:34Z</time>
      </trkpt>
      <trkpt lat="42.5048330" lon="-8.6496790">
        <ele>121.9</ele>
        <time>2021-05-22T08:33:35Z</time>
      </trkpt>
      <trkpt lat="42.5048340" lon="-8.6496790">
        <ele>121.9</ele>
        <time>2021-05-22T08:33:36Z</time>
      </trkpt>
      <trkpt lat="42.5048340" lon="-8.6496800">
        <ele>121.9</ele>
        <time>2021-05-22T08:33:37Z</time>
      </trkpt>
      <trkpt lat="42.5048350" lon="-8.6496800">
        <ele>121.9</ele>
        <time>2021-05-22T08:33:38Z</time>
      </trkpt>
      <trkpt lat="42.5048360" lon="-8.6496800">
        <ele>121.9</ele>
        <time>2021-05-22T08:33:39Z</time>
      </trkpt>
      <trkpt lat="42.5048360" lon="-8.6496810">
        <ele>121.9</ele>
        <time>2021-05-22T08:33:40Z</time>
      </trkpt>
      <trkpt lat="42.5048370" lon="-8.6496810">
        <ele>121.9</ele>
        <time>2021-05-22T08:33:41Z</time>
      </trkpt>
      <trkpt lat="42.5048380" lon="-8.6496820">
        <ele>121.9</ele>
        <time>2021-05-22T08:33:42Z</time>
      </trkpt>
      <trkpt lat="42.5048380" lon="-8.6496820">
        <ele>121.9</ele>
        <time>2021-05-22T08:33:43Z</time>
      </trkpt>
      <trkpt lat="42.5048390" lon="-8.6496820">
        <ele>121.9</ele>
        <time>2021-05-22T08:33:44Z</time>
      </trkpt>
      <trkpt lat="42.5048400" lon="-8.6496830">
        <ele>121.9</ele>
        <time>2021-05-22T08:33:45Z</time>
      </trkpt>
      <trkpt lat="42.5048410" lon="-8.6496830">
        <ele>121.9</ele>
        <time>2021-05-22T08:33:46Z</time>
      </trkpt>
      <trkpt lat="42.5048410" lon="-8.6496830">
        <ele>121.9</ele>
        <time>2021-05-22T08:33:47Z</time>
      </trkpt>
      <trkpt lat="42.5048420" lon="-8.6496840">
        <ele>121.9</ele>
        <time>2021-05-22T08:33:48Z</time>
      </trkpt>
      <trkpt lat="42.5048430" lon="-8.6496840">
        <ele>121.9</ele>
        <time>2021-05-22T08:33:49Z</time>
      </trkpt>
      <trkpt lat="42.5048430" lon="-8.6496840">
        <ele>121.9</ele>
        <time>2021-05-22T08:33:50Z</time>
      </trkpt>
      <trkpt lat="42.5048440" lon="-8.6496850">
        <ele>121.9</ele>
        <time>2021-05-22T08:33:51Z</time>
      </trkpt>
      <trkpt lat="42.5048450" lon="-8.6496850">
        <ele>121.9</ele>
        <time>2021-05-22T08:33:52Z</time>
      </trkpt>
      <trkpt lat="42.5048450" lon="-8.6496850">
        <ele>121.9</ele>
        <time>2021-05-22T08:33:53Z</time>
      </trkpt>
      <trkpt lat="42.5048460" lon="-8.6496860">
        <ele>121.9</ele>
        <time>2021-05-22T08:33:54Z</time>
      </trkpt>
      <trkpt lat="42.5048470" lon="-8.6496860">
        <ele>121.9</ele>
        <time>2021-05-22T08:33:55Z</time>
      </trkpt>
      <trkpt lat="42.5048470" lon="-8.6496860">
        <ele>121.9</ele>
        <time>2021-05-22T08:33:56Z</time>
      </trkpt>
      <trkpt lat="42.5048480" lon="-8.6496870">
        <ele>121.9</ele>
        <time>2021-05-22T08:33:57Z</time>
      </trkpt>
      <trkpt lat="42.5048490" lon="-8.6496870">
        <ele>121.9</ele>
        <time>2021-05-22T08:33:58Z</time>
      </trkpt>
      <trkpt lat="42.5048490" lon="-8.6496870">
        <ele>121.9</ele>
        <time>2021-05-22T08:33:59Z</time>
      </trkpt>
      <trkpt lat="42.5048500" lon="-8.6496880">
        <ele>121.9</ele>
        <time>2021-05-22T08:34:00Z</time>
      </trkpt>
      <trkpt lat="42.5048510" lon="-8.6496880">
        <ele>121.9</ele>
        <time>2021-05-22T08:34:01Z</time>
      </trkpt>
      <trkpt lat="42.5048520" lon="-8.6496880">
        <ele>121.9</ele>
        <time>2021-05-22T08:34:02Z</time>
      </trkpt>
      <trkpt lat="42.5048520" lon="-8.6496890">
        <ele>121.9</ele>
        <time>2021-05-22T08:34:03Z</time>
      </trkpt>
      <trkpt lat="42.5048530" lon="-8.6496890">
        <ele>121.9</ele>
        <time>2021-05-22T08:34:04Z</time>
      </trkpt>
      <trkpt lat="42.5048540" lon="-8.6496890">
        <ele>121.9</ele>
        <time>2021-05-22T08:34:05Z</time>
      </trkpt>
      <trkpt lat="42.5048540" lon="-8.6496900">
        <ele>121.9</ele>
        <time>2021-05-22T08:34:06Z</time>
      </trkpt>
      <trkpt lat="42.5048550" lon="-8.6496900">
        <ele>121.9</ele>
        <time>2021-05-22T08:34:07Z</time>
      </trkpt>
      <trkpt lat="42.5048500" lon="-8.6497030">
        <ele>121.9</ele>
        <time>2021-05-22T08:34:08Z</time>
      </trkpt>
      <trkpt lat="42.5048500" lon="-8.6497030">
        <ele>121.9</ele>
        <time>2021-05-22T08:34:09Z</time>
      </trkpt>
      <trkpt lat="42.5048500" lon="-8.6497030">
        <ele>121.9</ele>
        <time>2021-05-22T08:34:10Z</time>
      </trkpt>
      <trkpt lat="42.5048500" lon="-8.6497030">
        <ele>121.9</ele>
        <time>2021-05-22T08:34:11Z</time>
      </trkpt>
      <trkpt lat="42.5048500" lon="-8.6497030">
        <ele>121.9</ele>
        <time>2021-05-22T08:34:12Z</time>
      </trkpt>
      <trkpt lat="42.5048500" lon="-8.6497030">
        <ele>121.9</ele>
        <time>2021-05-22T08:34:13Z</time>
      </trkpt>
      <trkpt lat="42.5048500" lon="-8.6497030">
        <ele>121.9</ele>
        <time>2021-05-22T08:34:14Z</time>
      </trkpt>
      <trkpt lat="42.5048500" lon="-8.6497030">
        <ele>121.9</ele>
        <time>2021-05-22T08:34:15Z</time>
      </trkpt>
      <trkpt lat="42.5048500" lon="-8.6497030">
        <ele>121.9</ele>
        <time>2021-05-22T08:34:16Z</time>
      </trkpt>
      <trkpt lat="42.5048500" lon="-8.6497030">
        <ele>121.9</ele>
        <time>2021-05-22T08:34:17Z</time>
      </trkpt>
      <trkpt lat="42.5048500" lon="-8.6497030">
        <ele>121.9</ele>
        <time>2021-05-22T08:34:18Z</time>
      </trkpt>
      <trkpt lat="42.5048500" lon="-8.6497030">
        <ele>121.9</ele>
        <time>2021-05-22T08:34:19Z</time>
      </trkpt>
      <trkpt lat="42.5048500" lon="-8.6497030">
        <ele>121.9</ele>
        <time>2021-05-22T08:34:20Z</time>
      </trkpt>
      <trkpt lat="42.5048500" lon="-8.6497030">
        <ele>121.9</ele>
        <time>2021-05-22T08:34:21Z</time>
      </trkpt>
      <trkpt lat="42.5048500" lon="-8.6497030">
        <ele>121.9</ele>
        <time>2021-05-22T08:34:22Z</time>
      </trkpt>
      <trkpt lat="42.5048500" lon="-8.6497030">
        <ele>121.9</ele>
        <time>2021-05-22T08:34:23Z</time>
      </trkpt>
      <trkpt lat="42.5048500" lon="-8.6497030">
        <ele>121.9</ele>
        <time>2021-05-22T08:34:24Z</time>
      </trkpt>
      <trkpt lat="42.5048500" lon="-8.6497030">
        <ele>121.9</ele>
        <time>2021-05-22T08:34:25Z</time>
      </trkpt>
      <trkpt lat="42.5048500" lon="-8.6497030">
        <ele>121.9</ele>
        <time>2021-05-22T08:34:26Z</time>
      </trkpt>
      <trkpt lat="42.5048500" lon="-8.6497040">
        <ele>121.9</ele>
        <time>2021-05-22T08:34:27Z</time>
      </trkpt>
      <trkpt lat="42.5048500" lon="-8.6497040">
        <ele>121.9</ele>
        <time>2021-05-22T08:34:28Z</time>
      </trkpt>
      <trkpt lat="42.5048500" lon="-8.6497040">
        <ele>121.9</ele>
        <time>2021-05-22T08:34:29Z</time>
      </trkpt>
      <trkpt lat="42.5048500" lon="-8.6497040">
        <ele>121.9</ele>
        <time>2021-05-22T08:34:30Z</time>
      </trkpt>
      <trkpt lat="42.5048500" lon="-8.6497040">
        <ele>121.9</ele>
        <time>2021-05-22T08:34:31Z</time>
      </trkpt>
      <trkpt lat="42.5048500" lon="-8.6497040">
        <ele>121.9</ele>
        <time>2021-05-22T08:34:32Z</time>
      </trkpt>
      <trkpt lat="42.5048500" lon="-8.6497040">
        <ele>121.9</ele>
        <time>2021-05-22T08:34:33Z</time>
      </trkpt>
      <trkpt lat="42.5048500" lon="-8.6497040">
        <ele>121.9</ele>
        <time>2021-05-22T08:34:34Z</time>
      </trkpt>
      <trkpt lat="42.5048500" lon="-8.6497040">
        <ele>121.9</ele>
        <time>2021-05-22T08:34:35Z</time>
      </trkpt>
      <trkpt lat="42.5048500" lon="-8.6497040">
        <ele>121.9</ele>
        <time>2021-05-22T08:34:36Z</time>
      </trkpt>
      <trkpt lat="42.5048500" lon="-8.6497040">
        <ele>121.9</ele>
        <time>2021-05-22T08:34:37Z</time>
      </trkpt>
      <trkpt lat="42.5048500" lon="-8.6497040">
        <ele>121.9</ele>
        <time>2021-05-22T08:34:38Z</time>
      </trkpt>
      <trkpt lat="42.5048500" lon="-8.6497040">
        <ele>121.9</ele>
        <time>2021-05-22T08:34:39Z</time>
      </trkpt>
      <trkpt lat="42.5048500" lon="-8.6497040">
        <ele>121.9</ele>
        <time>2021-05-22T08:34:40Z</time>
      </trkpt>
      <trkpt lat="42.5048500" lon="-8.6497040">
        <ele>121.9</ele>
        <time>2021-05-22T08:34:41Z</time>
      </trkpt>
      <trkpt lat="42.5048500" lon="-8.6497040">
        <ele>121.9</ele>
        <time>2021-05-22T08:34:42Z</time>
      </trkpt>
      <trkpt lat="42.5048500" lon="-8.6497040">
        <ele>121.9</ele>
        <time>2021-05-22T08:34:43Z</time>
      </trkpt>
      <trkpt lat="42.5048500" lon="-8.6497040">
        <ele>121.9</ele>
        <time>2021-05-22T08:34:44Z</time>
      </trkpt>
      <trkpt lat="42.5048500" lon="-8.6497040">
        <ele>121.9</ele>
        <time>2021-05-22T08:34:45Z</time>
      </trkpt>
      <trkpt lat="42.5048500" lon="-8.6497040">
        <ele>121.9</ele>
        <time>2021-05-22T08:34:46Z</time>
      </trkpt>
      <trkpt lat="42.5048500" lon="-8.6497040">
        <ele>121.9</ele>
        <time>2021-05-22T08:34:47Z</time>
      </trkpt>
      <trkpt lat="42.5048500" lon="-8.6497040">
        <ele>121.9</ele>
        <time>2021-05-22T08:34:48Z</time>
      </trkpt>
      <trkpt lat="42.5048500" lon="-8.6497040">
        <ele>121.9</ele>
        <time>2021-05-22T08:34:49Z</time>
      </trkpt>
      <trkpt lat="42.5048500" lon="-8.6497040">
        <ele>121.9</ele>
        <time>2021-05-22T08:34:50Z</time>
      </trkpt>
      <trkpt lat="42.5048500" lon="-8.6497040">
        <ele>121.9</ele>
        <time>2021-05-22T08:34:51Z</time>
      </trkpt>
      <trkpt lat="42.5048500" lon="-8.6497040">
        <ele>121.9</ele>
        <time>2021-05-22T08:34:52Z</time>
      </trkpt>
      <trkpt lat="42.5048500" lon="-8.6497040">
        <ele>121.9</ele>
        <time>2021-05-22T08:34:53Z</time>
      </trkpt>
      <trkpt lat="42.5048500" lon="-8.6497040">
        <ele>121.9</ele>
        <time>2021-05-22T08:34:54Z</time>
      </trkpt>
      <trkpt lat="42.5048500" lon="-8.6497040">
        <ele>121.9</ele>
        <time>2021-05-22T08:34:55Z</time>
      </trkpt>
      <trkpt lat="42.5048500" lon="-8.6497040">
        <ele>121.9</ele>
        <time>2021-05-22T08:34:56Z</time>
      </trkpt>
      <trkpt lat="42.5048500" lon="-8.6497040">
        <ele>121.9</ele>
        <time>2021-05-22T08:34:57Z</time>
      </trkpt>
      <trkpt lat="42.5048500" lon="-8.6497040">
        <ele>121.9</ele>
        <time>2021-05-22T08:34:58Z</time>
      </trkpt>
      <trkpt lat="42.5048500" lon="-8.6497040">
        <ele>121.9</ele>
        <time>2021-05-22T08:34:59Z</time>
      </trkpt>
      <trkpt lat="42.5048500" lon="-8.6497040">
        <ele>121.9</ele>
        <time>2021-05-22T08:35:00Z</time>
      </trkpt>
      <trkpt lat="42.5048500" lon="-8.6497040">
        <ele>121.9</ele>
        <time>2021-05-22T08:35:01Z</time>
      </trkpt>
      <trkpt lat="42.5048500" lon="-8.6497040">
        <ele>121.9</ele>
        <time>2021-05-22T08:35:02Z</time>
      </trkpt>
      <trkpt lat="42.5048500" lon="-8.6497040">
        <ele>121.9</ele>
        <time>2021-05-22T08:35:03Z</time>
      </trkpt>
      <trkpt lat="42.5048500" lon="-8.6497040">
        <ele>121.9</ele>
        <time>2021-05-22T08:35:04Z</time>
      </trkpt>
      <trkpt lat="42.5048500" lon="-8.6497040">
        <ele>121.9</ele>
        <time>2021-05-22T08:35:05Z</time>
      </trkpt>
      <trkpt lat="42.5048500" lon="-8.6497050">
        <ele>121.9</ele>
        <time>2021-05-22T08:35:06Z</time>
      </trkpt>
      <trkpt lat="42.5048500" lon="-8.6497050">
        <ele>121.9</ele>
        <time>2021-05-22T08:35:07Z</time>
      </trkpt>
      <trkpt lat="42.5048500" lon="-8.6497050">
        <ele>121.9</ele>
        <time>2021-05-22T08:35:08Z</time>
      </trkpt>
      <trkpt lat="42.5048500" lon="-8.6497050">
        <ele>121.9</ele>
        <time>2021-05-22T08:35:09Z</time>
      </trkpt>
      <trkpt lat="42.5048500" lon="-8.6497050">
        <ele>121.9</ele>
        <time>2021-05-22T08:35:10Z</time>
      </trkpt>
      <trkpt lat="42.5048500" lon="-8.6497050">
        <ele>121.9</ele>
        <time>2021-05-22T08:35:11Z</time>
      </trkpt>
      <trkpt lat="42.5048500" lon="-8.6497050">
        <ele>121.9</ele>
        <time>2021-05-22T08:35:12Z</time>
      </trkpt>
      <trkpt lat="42.5048500" lon="-8.6497050">
        <ele>121.9</ele>
        <time>2021-05-22T08:35:13Z</time>
      </trkpt>
      <trkpt lat="42.5048500" lon="-8.6497050">
        <ele>121.9</ele>
        <time>2021-05-22T08:35:14Z</time>
      </trkpt>
      <trkpt lat="42.5048500" lon="-8.6497050">
        <ele>121.9</ele>
        <time>2021-05-22T08:35:15Z</time>
      </trkpt>
      <trkpt lat="42.5048500" lon="-8.6497050">
        <ele>121.9</ele>
        <time>2021-05-22T08:35:16Z</time>
      </trkpt>
      <trkpt lat="42.5048500" lon="-8.6497050">
        <ele>121.9</ele>
        <time>2021-05-22T08:35:17Z</time>
      </trkpt>
      <trkpt lat="42.5048500" lon="-8.6497050">
        <ele>121.9</ele>
        <time>2021-05-22T08:35:18Z</time>
      </trkpt>
      <trkpt lat="42.5048500" lon="-8.6497050">
        <ele>121.9</ele>
        <time>2021-05-22T08:35:19Z</time>
      </trkpt>
      <trkpt lat="42.5048500" lon="-8.6497050">
        <ele>121.9</ele>
        <time>2021-05-22T08:35:20Z</time>
      </trkpt>
      <trkpt lat="42.5048500" lon="-8.6497050">
        <ele>121.9</ele>
        <time>2021-05-22T08:35:21Z</time>
      </trkpt>
      <trkpt lat="42.5048500" lon="-8.6497050">
        <ele>121.9</ele>
        <time>2021-05-22T08:35:22Z</time>
      </trkpt>
      <trkpt lat="42.5048500" lon="-8.6497050">
        <ele>121.9</ele>
        <time>2021-05-22T08:35:23Z</time>
      </trkpt>
      <trkpt lat="42.5048500" lon="-8.6497050">
        <ele>121.9</ele>
        <time>2021-05-22T08:35:24Z</time>
      </trkpt>
      <trkpt lat="42.5048500" lon="-8.6497050">
        <ele>121.9</ele>
        <time>2021-05-22T08:35:25Z</time>
      </trkpt>
      <trkpt lat="42.5048500" lon="-8.6497050">
        <ele>121.9</ele>
        <time>2021-05-22T08:35:26Z</time>
      </trkpt>
      <trkpt lat="42.5048500" lon="-8.6497050">
        <ele>121.9</ele>
        <time>2021-05-22T08:35:27Z</time>
      </trkpt>
      <trkpt lat="42.5048500" lon="-8.6497050">
        <ele>121.9</ele>
        <time>2021-05-22T08:35:28Z</time>
      </trkpt>
      <trkpt lat="42.5048500" lon="-8.6497050">
        <ele>121.9</ele>
        <time>2021-05-22T08:35:29Z</time>
      </trkpt>
      <trkpt lat="42.5048500" lon="-8.6497050">
        <ele>121.9</ele>
        <time>2021-05-22T08:35:30Z</time>
      </trkpt>
      <trkpt lat="42.5048500" lon="-8.6497050">
        <ele>121.9</ele>
        <time>2021-05-22T08:35:31Z</time>
      </trkpt>
      <trkpt lat="42.5048500" lon="-8.6497050">
        <ele>121.9</ele>
        <time>2021-05-22T08:35:32Z</time>
      </trkpt>
      <trkpt lat="42.5048500" lon="-8.6497050">
        <ele>121.9</ele>
        <time>2021-05-22T08:35:33Z</time>
      </trkpt>
      <trkpt lat="42.5048500" lon="-8.6497050">
        <ele>121.9</ele>
        <time>2021-05-22T08:35:34Z</time>
      </trkpt>
      <trkpt lat="42.5048500" lon="-8.6497050">
        <ele>121.9</ele>
        <time>2021-05-22T08:35:35Z</time>
      </trkpt>
      <trkpt lat="42.5048500" lon="-8.6497050">
        <ele>121.9</ele>
        <time>2021-05-22T08:35:36Z</time>
      </trkpt>
      <trkpt lat="42.5048500" lon="-8.6497050">
        <ele>121.9</ele>
        <time>2021-05-22T08:35:37Z</time>
      </trkpt>
      <trkpt lat="42.5048500" lon="-8.6497050">
        <ele>121.9</ele>
        <time>2021-05-22T08:35:38Z</time>
      </trkpt>
      <trkpt lat="42.5048500" lon="-8.6497050">
        <ele>121.9</ele>
        <time>2021-05-22T08:35:39Z</time>
      </trkpt>
      <trkpt lat="42.5048500" lon="-8.6497050">
        <ele>121.9</ele>
        <time>2021-05-22T08:35:40Z</time>
      </trkpt>
      <trkpt lat="42.5048500" lon="-8.6497050">
        <ele>121.9</ele>
        <time>2021-05-22T08:35:41Z</time>
      </trkpt>
      <trkpt lat="42.5048500" lon="-8.6497050">
        <ele>121.9</ele>
        <time>2021-05-22T08:35:42Z</time>
      </trkpt>
      <trkpt lat="42.5048500" lon="-8.6497050">
        <ele>121.9</ele>
        <time>2021-05-22T08:35:43Z</time>
      </trkpt>
      <trkpt lat="42.5048500" lon="-8.6497060">
        <ele>121.9</ele>
        <time>2021-05-22T08:35:44Z</time>
      </trkpt>
      <trkpt lat="42.5048500" lon="-8.6497060">
        <ele>121.9</ele>
        <time>2021-05-22T08:35:45Z</time>
      </trkpt>
      <trkpt lat="42.5048500" lon="-8.6497060">
        <ele>121.9</ele>
        <time>2021-05-22T08:35:46Z</time>
      </trkpt>
      <trkpt lat="42.5048500" lon="-8.6497060">
        <ele>121.9</ele>
        <time>2021-05-22T08:35:47Z</time>
      </trkpt>
      <trkpt lat="42.5048500" lon="-8.6497060">
        <ele>121.9</ele>
        <time>2021-05-22T08:35:48Z</time>
      </trkpt>
      <trkpt lat="42.5048500" lon="-8.6497060">
        <ele>121.9</ele>
        <time>2021-05-22T08:35:49Z</time>
      </trkpt>
      <trkpt lat="42.5048500" lon="-8.6497060">
        <ele>121.9</ele>
        <time>2021-05-22T08:35:50Z</time>
      </trkpt>
      <trkpt lat="42.5048500" lon="-8.6497060">
        <ele>121.9</ele>
        <time>2021-05-22T08:35:51Z</time>
      </trkpt>
      <trkpt lat="42.5048500" lon="-8.6497060">
        <ele>121.9</ele>
        <time>2021-05-22T08:35:52Z</time>
      </trkpt>
      <trkpt lat="42.5048500" lon="-8.6497060">
        <ele>121.9</ele>
        <time>2021-05-22T08:35:53Z</time>
      </trkpt>
      <trkpt lat="42.5048500" lon="-8.6497060">
        <ele>121.9</ele>
        <time>2021-05-22T08:35:54Z</time>
      </trkpt>
      <trkpt lat="42.5048500" lon="-8.6497060">
        <ele>121.9</ele>
        <time>2021-05-22T08:35:55Z</time>
      </trkpt>
      <trkpt lat="42.5048500" lon="-8.6497060">
        <ele>121.9</ele>
        <time>2021-05-22T08:35:56Z</time>
      </trkpt>
      <trkpt lat="42.5048500" lon="-8.6497060">
        <ele>121.9</ele>
        <time>2021-05-22T08:35:57Z</time>
      </trkpt>
      <trkpt lat="42.5048500" lon="-8.6497060">
        <ele>121.9</ele>
        <time>2021-05-22T08:35:58Z</time>
      </trkpt>
      <trkpt lat="42.5048500" lon="-8.6497060">
        <ele>121.9</ele>
        <time>2021-05-22T08:35:59Z</time>
      </trkpt>
      <trkpt lat="42.5048500" lon="-8.6497060">
        <ele>121.9</ele>
        <time>2021-05-22T08:36:00Z</time>
      </trkpt>
      <trkpt lat="42.5048500" lon="-8.6497060">
        <ele>121.9</ele>
        <time>2021-05-22T08:36:01Z</time>
      </trkpt>
      <trkpt lat="42.5048500" lon="-8.6497060">
        <ele>121.9</ele>
        <time>2021-05-22T08:36:02Z</time>
      </trkpt>
      <trkpt lat="42.5048500" lon="-8.6497060">
        <ele>121.9</ele>
        <time>2021-05-22T08:36:03Z</time>
      </trkpt>
      <trkpt lat="42.5048500" lon="-8.6497060">
        <ele>121.9</ele>
        <time>2021-05-22T08:36:04Z</time>
      </trkpt>
      <trkpt lat="42.5048500" lon="-8.6497060">
        <ele>121.9</ele>
        <time>2021-05-22T08:36:05Z</time>
      </trkpt>
      <trkpt lat="42.5048500" lon="-8.6497060">
        <ele>121.9</ele>
        <time>2021-05-22T08:36:06Z</time>
      </trkpt>
      <trkpt lat="42.5048500" lon="-8.6497060">
        <ele>121.9</ele>
        <time>2021-05-22T08:36:07Z</time>
      </trkpt>
      <trkpt lat="42.5048500" lon="-8.6497060">
        <ele>121.9</ele>
        <time>2021-05-22T08:36:08Z</time>
      </trkpt>
      <trkpt lat="42.5048500" lon="-8.6497060">
        <ele>121.9</ele>
        <time>2021-05-22T08:36:09Z</time>
      </trkpt>
      <trkpt lat="42.5048500" lon="-8.6497060">
        <ele>121.9</ele>
        <time>2021-05-22T08:36:10Z</time>
      </trkpt>
      <trkpt lat="42.5048500" lon="-8.6497060">
        <ele>121.9</ele>
        <time>2021-05-22T08:36:11Z</time>
      </trkpt>
      <trkpt lat="42.5048500" lon="-8.6497060">
        <ele>121.9</ele>
        <time>2021-05-22T08:36:12Z</time>
      </trkpt>
      <trkpt lat="42.5048500" lon="-8.6497060">
        <ele>121.9</ele>
        <time>2021-05-22T08:36:13Z</time>
      </trkpt>
      <trkpt lat="42.5048500" lon="-8.6497060">
        <ele>121.9</ele>
        <time>2021-05-22T08:36:14Z</time>
      </trkpt>
      <trkpt lat="42.5048500" lon="-8.6497060">
        <ele>121.9</ele>
        <time>2021-05-22T08:36:15Z</time>
      </trkpt>
      <trkpt lat="42.5048500" lon="-8.6497060">
        <ele>121.9</ele>
        <time>2021-05-22T08:36:16Z</time>
      </trkpt>
      <trkpt lat="42.5048500" lon="-8.6497060">
        <ele>121.9</ele>
        <time>2021-05-22T08:36:17Z</time>
      </trkpt>
      <trkpt lat="42.5048500" lon="-8.6497060">
        <ele>121.9</ele>
        <time>2021-05-22T08:36:18Z</time>
      </trkpt>
      <trkpt lat="42.5048500" lon="-8.6497060">
        <ele>121.9</ele>
        <time>2021-05-22T08:36:19Z</time>
      </trkpt>
      <trkpt lat="42.5048500" lon="-8.6497060">
        <ele>121.9</ele>
        <time>2021-05-22T08:36:20Z</time>
      </trkpt>
      <trkpt lat="42.5048500" lon="-8.6497060">
        <ele>121.9</ele>
        <time>2021-05-22T08:36:21Z</time>
      </trkpt>
      <trkpt lat="42.5048500" lon="-8.6497060">
        <ele>121.9</ele>
        <time>2021-05-22T08:36:22Z</time>
      </trkpt>
      <trkpt lat="42.5048500" lon="-8.6497070">
        <ele>121.9</ele>
        <time>2021-05-22T08:36:23Z</time>
      </trkpt>
      <trkpt lat="42.5048500" lon="-8.6497070">
        <ele>121.9</ele>
        <time>2021-05-22T08:36:24Z</time>
      </trkpt>
      <trkpt lat="42.5048500" lon="-8.6497070">
        <ele>121.9</ele>
        <time>2021-05-22T08:36:25Z</time>
      </trkpt>
      <trkpt lat="42.5048500" lon="-8.6497070">
        <ele>121.9</ele>
        <time>2021-05-22T08:36:26Z</time>
      </trkpt>
      <trkpt lat="42.5048500" lon="-8.6497070">
        <ele>121.9</ele>
        <time>2021-05-22T08:36:27Z</time>
      </trkpt>
      <trkpt lat="42.5048500" lon="-8.6497070">
        <ele>121.9</ele>
        <time>2021-05-22T08:36:28Z</time>
      </trkpt>
      <trkpt lat="42.5048500" lon="-8.6497070">
        <ele>121.9</ele>
        <time>2021-05-22T08:36:29Z</time>
      </trkpt>
      <trkpt lat="42.5048500" lon="-8.6497070">
        <ele>121.9</ele>
        <time>2021-05-22T08:36:30Z</time>
      </trkpt>
      <trkpt lat="42.5048500" lon="-8.6497070">
        <ele>121.9</ele>
        <time>2021-05-22T08:36:31Z</time>
      </trkpt>
      <trkpt lat="42.5048500" lon="-8.6497070">
        <ele>121.9</ele>
        <time>2021-05-22T08:36:32Z</time>
      </trkpt>
      <trkpt lat="42.5048500" lon="-8.6497070">
        <ele>121.9</ele>
        <time>2021-05-22T08:36:33Z</time>
      </trkpt>
      <trkpt lat="42.5048500" lon="-8.6497070">
        <ele>121.9</ele>
        <time>2021-05-22T08:36:34Z</time>
      </trkpt>
      <trkpt lat="42.5048500" lon="-8.6497070">
        <ele>121.9</ele>
        <time>2021-05-22T08:36:35Z</time>
      </trkpt>
      <trkpt lat="42.5048500" lon="-8.6497070">
        <ele>121.9</ele>
        <time>2021-05-22T08:36:36Z</time>
      </trkpt>
      <trkpt lat="42.5048500" lon="-8.6497070">
        <ele>121.9</ele>
        <time>2021-05-22T08:36:37Z</time>
      </trkpt>
      <trkpt lat="42.5048500" lon="-8.6497070">
        <ele>121.9</ele>
        <time>2021-05-22T08:36:38Z</time>
      </trkpt>
      <trkpt lat="42.5048500" lon="-8.6497070">
        <ele>121.9</ele>
        <time>2021-05-22T08:36:39Z</time>
      </trkpt>
      <trkpt lat="42.5048500" lon="-8.6497070">
        <ele>121.9</ele>
        <time>2021-05-22T08:36:40Z</time>
      </trkpt>
      <trkpt lat="42.5048500" lon="-8.6497070">
        <ele>121.9</ele>
        <time>2021-05-22T08:36:41Z</time>
      </trkpt>
      <trkpt lat="42.5048500" lon="-8.6497070">
        <ele>121.9</ele>
        <time>2021-05-22T08:36:42Z</time>
      </trkpt>
      <trkpt lat="42.5048500" lon="-8.6497070">
        <ele>121.9</ele>
        <time>2021-05-22T08:36:43Z</time>
      </trkpt>
      <trkpt lat="42.5048500" lon="-8.6497070">
        <ele>121.9</ele>
        <time>2021-05-22T08:36:44Z</time>
      </trkpt>
      <trkpt lat="42.5048500" lon="-8.6497070">
        <ele>121.9</ele>
        <time>2021-05-22T08:36:45Z</time>
      </trkpt>
      <trkpt lat="42.5048500" lon="-8.6497070">
        <ele>121.9</ele>
        <time>2021-05-22T08:36:46Z</time>
      </trkpt>
      <trkpt lat="42.5048500" lon="-8.6497070">
        <ele>121.9</ele>
        <time>2021-05-22T08:36:47Z</time>
      </trkpt>
      <trkpt lat="42.5048500" lon="-8.6497070">
        <ele>121.9</ele>
        <time>2021-05-22T08:36:48Z</time>
      </trkpt>
      <trkpt lat="42.5048500" lon="-8.6497070">
        <ele>121.9</ele>
        <time>2021-05-22T08:36:49Z</time>
      </trkpt>
      <trkpt lat="42.5048500" lon="-8.6497070">
        <ele>121.9</ele>
        <time>2021-05-22T08:36:50Z</time>
      </trkpt>
      <trkpt lat="42.5048500" lon="-8.6497070">
        <ele>121.9</ele>
        <time>2021-05-22T08:36:51Z</time>
      </trkpt>
      <trkpt lat="42.5048500" lon="-8.6497070">
        <ele>121.9</ele>
        <time>2021-05-22T08:36:52Z</time>
      </trkpt>
      <trkpt lat="42.5048500" lon="-8.6497070">
        <ele>121.9</ele>
        <time>2021-05-22T08:36:53Z</time>
      </trkpt>
      <trkpt lat="42.5048500" lon="-8.6497070">
        <ele>121.9</ele>
        <time>2021-05-22T08:36:54Z</time>
      </trkpt>
      <trkpt lat="42.5048500" lon="-8.6497070">
        <ele>121.9</ele>
        <time>2021-05-22T08:36:55Z</time>
      </trkpt>
      <trkpt lat="42.5048500" lon="-8.6497070">
        <ele>121.9</ele>
        <time>2021-05-22T08:36:56Z</time>
      </trkpt>
      <trkpt lat="42.5048500" lon="-8.6497070">
        <ele>121.9</ele>
        <time>2021-05-22T08:36:57Z</time>
      </trkpt>
      <trkpt lat="42.5048500" lon="-8.6497070">
        <ele>121.9</ele>
        <time>2021-05-22T08:36:58Z</time>
      </trkpt>
      <trkpt lat="42.5048500" lon="-8.6497070">
        <ele>121.9</ele>
        <time>2021-05-22T08:36:59Z</time>
      </trkpt>
      <trkpt lat="42.5048500" lon="-8.6497070">
        <ele>121.9</ele>
        <time>2021-05-22T08:37:00Z</time>
      </trkpt>
      <trkpt lat="42.5048500" lon="-8.6497070">
        <ele>121.9</ele>
        <time>2021-05-22T08:37:01Z</time>
      </trkpt>
      <trkpt lat="42.5048500" lon="-8.6497080">
        <ele>121.9</ele>
        <time>2021-05-22T08:37:02Z</time>
      </trkpt>
      <trkpt lat="42.5048500" lon="-8.6497080">
        <ele>121.9</ele>
        <time>2021-05-22T08:37:03Z</time>
      </trkpt>
      <trkpt lat="42.5048500" lon="-8.6497080">
        <ele>121.9</ele>
        <time>2021-05-22T08:37:04Z</time>
      </trkpt>
      <trkpt lat="42.5048500" lon="-8.6497080">
        <ele>121.9</ele>
        <time>2021-05-22T08:37:05Z</time>
      </trkpt>
      <trkpt lat="42.5048500" lon="-8.6497080">
        <ele>121.9</ele>
        <time>2021-05-22T08:37:06Z</time>
      </trkpt>
      <trkpt lat="42.5048500" lon="-8.6497080">
        <ele>121.9</ele>
        <time>2021-05-22T08:37:07Z</time>
      </trkpt>
      <trkpt lat="42.5048500" lon="-8.6497080">
        <ele>121.9</ele>
        <time>2021-05-22T08:37:08Z</time>
      </trkpt>
      <trkpt lat="42.5048500" lon="-8.6497080">
        <ele>121.9</ele>
        <time>2021-05-22T08:37:09Z</time>
      </trkpt>
      <trkpt lat="42.5048500" lon="-8.6497080">
        <ele>121.9</ele>
        <time>2021-05-22T08:37:10Z</time>
      </trkpt>
      <trkpt lat="42.5048500" lon="-8.6497080">
        <ele>121.9</ele>
        <time>2021-05-22T08:37:11Z</time>
      </trkpt>
      <trkpt lat="42.5048500" lon="-8.6497080">
        <ele>121.9</ele>
        <time>2021-05-22T08:37:12Z</time>
      </trkpt>
      <trkpt lat="42.5048500" lon="-8.6497080">
        <ele>121.9</ele>
        <time>2021-05-22T08:37:13Z</time>
      </trkpt>
      <trkpt lat="42.5048500" lon="-8.6497080">
        <ele>121.9</ele>
        <time>2021-05-22T08:37:14Z</time>
      </trkpt>
      <trkpt lat="42.5048500" lon="-8.6497080">
        <ele>121.9</ele>
        <time>2021-05-22T08:37:15Z</time>
      </trkpt>
      <trkpt lat="42.5048500" lon="-8.6497080">
        <ele>121.9</ele>
        <time>2021-05-22T08:37:16Z</time>
      </trkpt>
      <trkpt lat="42.5048500" lon="-8.6497080">
        <ele>121.9</ele>
        <time>2021-05-22T08:37:17Z</time>
      </trkpt>
      <trkpt lat="42.5048500" lon="-8.6497080">
        <ele>121.9</ele>
        <time>2021-05-22T08:37:18Z</time>
      </trkpt>
      <trkpt lat="42.5048500" lon="-8.6497080">
        <ele>121.9</ele>
        <time>2021-05-22T08:37:19Z</time>
      </trkpt>
      <trkpt lat="42.5048500" lon="-8.6497080">
        <ele>121.9</ele>
        <time>2021-05-22T08:37:20Z</time>
      </trkpt>
      <trkpt lat="42.5048500" lon="-8.6497080">
        <ele>121.9</ele>
        <time>2021-05-22T08:37:21Z</time>
      </trkpt>
      <trkpt lat="42.5048500" lon="-8.6497080">
        <ele>121.9</ele>
        <time>2021-05-22T08:37:22Z</time>
      </trkpt>
      <trkpt lat="42.5048500" lon="-8.6497080">
        <ele>121.9</ele>
        <time>2021-05-22T08:37:23Z</time>
      </trkpt>
      <trkpt lat="42.5048500" lon="-8.6497080">
        <ele>121.9</ele>
        <time>2021-05-22T08:37:24Z</time>
      </trkpt>
      <trkpt lat="42.5048500" lon="-8.6497080">
        <ele>121.9</ele>
        <time>2021-05-22T08:37:25Z</time>
      </trkpt>
      <trkpt lat="42.5048500" lon="-8.6497080">
        <ele>121.9</ele>
        <time>2021-05-22T08:37:26Z</time>
      </trkpt>
      <trkpt lat="42.5048500" lon="-8.6497080">
        <ele>121.9</ele>
        <time>2021-05-22T08:37:27Z</time>
      </trkpt>
      <trkpt lat="42.5048500" lon="-8.6497080">
        <ele>121.9</ele>
        <time>2021-05-22T08:37:28Z</time>
      </trkpt>
      <trkpt lat="42.5048500" lon="-8.6497080">
        <ele>121.9</ele>
        <time>2021-05-22T08:37:29Z</time>
      </trkpt>
      <trkpt lat="42.5048500" lon="-8.6497080">
        <ele>121.9</ele>
        <time>2021-05-22T08:37:30Z</time>
      </trkpt>
      <trkpt lat="42.5048500" lon="-8.6497080">
        <ele>121.9</ele>
        <time>2021-05-22T08:37:31Z</time>
      </trkpt>
      <trkpt lat="42.5048500" lon="-8.6497080">
        <ele>121.9</ele>
        <time>2021-05-22T08:37:32Z</time>
      </trkpt>
      <trkpt lat="42.5048500" lon="-8.6497080">
        <ele>121.9</ele>
        <time>2021-05-22T08:37:33Z</time>
      </trkpt>
      <trkpt lat="42.5048500" lon="-8.6497080">
        <ele>121.9</ele>
        <time>2021-05-22T08:37:34Z</time>
      </trkpt>
      <trkpt lat="42.5048500" lon="-8.6497080">
        <ele>121.9</ele>
        <time>2021-05-22T08:37:35Z</time>
      </trkpt>
      <trkpt lat="42.5048500" lon="-8.6497080">
        <ele>121.9</ele>
        <time>2021-05-22T08:37:36Z</time>
      </trkpt>
      <trkpt lat="42.5048500" lon="-8.6497080">
        <ele>121.9</ele>
        <time>2021-05-22T08:37:37Z</time>
      </trkpt>
      <trkpt lat="42.5048500" lon="-8.6497080">
        <ele>121.9</ele>
        <time>2021-05-22T08:37:38Z</time>
      </trkpt>
      <trkpt lat="42.5048500" lon="-8.6497080">
        <ele>121.9</ele>
        <time>2021-05-22T08:37:39Z</time>
      </trkpt>
      <trkpt lat="42.5048500" lon="-8.6497090">
        <ele>121.9</ele>
        <time>2021-05-22T08:37:40Z</time>
      </trkpt>
      <trkpt lat="42.5048500" lon="-8.6497090">
        <ele>121.9</ele>
        <time>2021-05-22T08:37:41Z</time>
      </trkpt>
      <trkpt lat="42.5048500" lon="-8.6497090">
        <ele>121.9</ele>
        <time>2021-05-22T08:37:42Z</time>
      </trkpt>
      <trkpt lat="42.5048500" lon="-8.6497090">
        <ele>121.9</ele>
        <time>2021-05-22T08:37:43Z</time>
      </trkpt>
      <trkpt lat="42.5048500" lon="-8.6497090">
        <ele>121.9</ele>
        <time>2021-05-22T08:37:44Z</time>
      </trkpt>
      <trkpt lat="42.5048500" lon="-8.6497090">
        <ele>121.9</ele>
        <time>2021-05-22T08:37:45Z</time>
      </trkpt>
      <trkpt lat="42.5048500" lon="-8.6497090">
        <ele>121.9</ele>
        <time>2021-05-22T08:37:46Z</time>
      </trkpt>
      <trkpt lat="42.5048500" lon="-8.6497090">
        <ele>121.9</ele>
        <time>2021-05-22T08:37:47Z</time>
      </trkpt>
      <trkpt lat="42.5048500" lon="-8.6497090">
        <ele>121.9</ele>
        <time>2021-05-22T08:37:48Z</time>
      </trkpt>
      <trkpt lat="42.5048500" lon="-8.6497090">
        <ele>121.9</ele>
        <time>2021-05-22T08:37:49Z</time>
      </trkpt>
      <trkpt lat="42.5048500" lon="-8.6497090">
        <ele>121.9</ele>
        <time>2021-05-22T08:37:50Z</time>
      </trkpt>
      <trkpt lat="42.5048500" lon="-8.6497090">
        <ele>121.9</ele>
        <time>2021-05-22T08:37:51Z</time>
      </trkpt>
      <trkpt lat="42.5048500" lon="-8.6497090">
        <ele>121.9</ele>
        <time>2021-05-22T08:37:52Z</time>
      </trkpt>
      <trkpt lat="42.5048500" lon="-8.6497090">
        <ele>121.9</ele>
        <time>2021-05-22T08:37:53Z</time>
      </trkpt>
      <trkpt lat="42.5048500" lon="-8.6497090">
        <ele>121.9</ele>
        <time>2021-05-22T08:37:54Z</time>
      </trkpt>
      <trkpt lat="42.5048500" lon="-8.6497090">
        <ele>121.9</ele>
        <time>2021-05-22T08:37:55Z</time>
      </trkpt>
      <trkpt lat="42.5048500" lon="-8.6497090">
        <ele>121.9</ele>
        <time>2021-05-22T08:37:56Z</time>
      </trkpt>
      <trkpt lat="42.5048500" lon="-8.6497090">
        <ele>121.9</ele>
        <time>2021-05-22T08:37:57Z</time>
      </trkpt>
      <trkpt lat="42.5048500" lon="-8.6497090">
        <ele>121.9</ele>
        <time>2021-05-22T08:37:58Z</time>
      </trkpt>
      <trkpt lat="42.5048500" lon="-8.6497090">
        <ele>121.9</ele>
        <time>2021-05-22T08:37:59Z</time>
      </trkpt>
      <trkpt lat="42.5048500" lon="-8.6497090">
        <ele>121.9</ele>
        <time>2021-05-22T08:38:00Z</time>
      </trkpt>
      <trkpt lat="42.5048500" lon="-8.6497090">
        <ele>121.9</ele>
        <time>2021-05-22T08:38:01Z</time>
      </trkpt>
      <trkpt lat="42.5048500" lon="-8.6497090">
        <ele>121.9</ele>
        <time>2021-05-22T08:38:02Z</time>
      </trkpt>
      <trkpt lat="42.5048500" lon="-8.6497090">
        <ele>121.9</ele>
        <time>2021-05-22T08:38:03Z</time>
      </trkpt>
      <trkpt lat="42.5048500" lon="-8.6497090">
        <ele>121.9</ele>
        <time>2021-05-22T08:38:04Z</time>
      </trkpt>
      <trkpt lat="42.5048500" lon="-8.6497090">
        <ele>121.9</ele>
        <time>2021-05-22T08:38:05Z</time>
      </trkpt>
      <trkpt lat="42.5048500" lon="-8.6497090">
        <ele>121.9</ele>
        <time>2021-05-22T08:38:06Z</time>
      </trkpt>
      <trkpt lat="42.5048500" lon="-8.6497090">
        <ele>121.9</ele>
        <time>2021-05-22T08:38:07Z</time>
      </trkpt>
      <trkpt lat="42.5048500" lon="-8.6497090">
        <ele>121.9</ele>
        <time>2021-05-22T08:38:08Z</time>
      </trkpt>
      <trkpt lat="42.5048500" lon="-8.6497090">
        <ele>121.9</ele>
        <time>2021-05-22T08:38:09Z</time>
      </trkpt>
      <trkpt lat="42.5048500" lon="-8.6497090">
        <ele>121.9</ele>
        <time>2021-05-22T08:38:10Z</time>
      </trkpt>
      <trkpt lat="42.5048500" lon="-8.6497090">
        <ele>121.9</ele>
        <time>2021-05-22T08:38:11Z</time>
      </trkpt>
      <trkpt lat="42.5048500" lon="-8.6497090">
        <ele>121.9</ele>
        <time>2021-05-22T08:38:12Z</time>
      </trkpt>
      <trkpt lat="42.5048500" lon="-8.6497090">
        <ele>121.9</ele>
        <time>2021-05-22T08:38:13Z</time>
      </trkpt>
      <trkpt lat="42.5048500" lon="-8.6497090">
        <ele>121.9</ele>
        <time>2021-05-22T08:38:14Z</time>
      </trkpt>
      <trkpt lat="42.5048500" lon="-8.6497090">
        <ele>121.9</ele>
        <time>2021-05-22T08:38:15Z</time>
      </trkpt>
      <trkpt lat="42.5048500" lon="-8.6497090">
        <ele>121.9</ele>
        <time>2021-05-22T08:38:16Z</time>
      </trkpt>
      <trkpt lat="42.5048500" lon="-8.6497090">
        <ele>121.9</ele>
        <time>2021-05-22T08:38:17Z</time>
      </trkpt>
      <trkpt lat="42.5048500" lon="-8.6497090">
        <ele>121.9</ele>
        <time>2021-05-22T08:38:18Z</time>
      </trkpt>
      <trkpt lat="42.5048500" lon="-8.6497100">
        <ele>121.9</ele>
        <time>2021-05-22T08:38:19Z</time>
      </trkpt>
      <trkpt lat="42.5048500" lon="-8.6497100">
        <ele>121.9</ele>
        <time>2021-05-22T08:38:20Z</time>
      </trkpt>
      <trkpt lat="42.5048500" lon="-8.6497100">
        <ele>121.9</ele>
        <time>2021-05-22T08:38:21Z</time>
      </trkpt>
      <trkpt lat="42.5048500" lon="-8.6497100">
        <ele>121.9</ele>
        <time>2021-05-22T08:38:22Z</time>
      </trkpt>
      <trkpt lat="42.5048500" lon="-8.6497100">
        <ele>121.9</ele>
        <time>2021-05-22T08:38:23Z</time>
      </trkpt>
      <trkpt lat="42.5048500" lon="-8.6497100">
        <ele>121.9</ele>
        <time>2021-05-22T08:38:24Z</time>
      </trkpt>
      <trkpt lat="42.5048500" lon="-8.6497100">
        <ele>121.9</ele>
        <time>2021-05-22T08:38:25Z</time>
      </trkpt>
      <trkpt lat="42.5048500" lon="-8.6497100">
        <ele>121.9</ele>
        <time>2021-05-22T08:38:26Z</time>
      </trkpt>
      <trkpt lat="42.5048500" lon="-8.6497100">
        <ele>121.9</ele>
        <time>2021-05-22T08:38:27Z</time>
      </trkpt>
      <trkpt lat="42.5048500" lon="-8.6497100">
        <ele>121.9</ele>
        <time>2021-05-22T08:38:28Z</time>
      </trkpt>
      <trkpt lat="42.5048500" lon="-8.6497100">
        <ele>121.9</ele>
        <time>2021-05-22T08:38:29Z</time>
      </trkpt>
      <trkpt lat="42.5048500" lon="-8.6497100">
        <ele>121.9</ele>
        <time>2021-05-22T08:38:30Z</time>
      </trkpt>
      <trkpt lat="42.5048500" lon="-8.6497100">
        <ele>121.9</ele>
        <time>2021-05-22T08:38:31Z</time>
      </trkpt>
      <trkpt lat="42.5048500" lon="-8.6497100">
        <ele>121.9</ele>
        <time>2021-05-22T08:38:32Z</time>
      </trkpt>
      <trkpt lat="42.5048500" lon="-8.6497100">
        <ele>121.9</ele>
        <time>2021-05-22T08:38:33Z</time>
      </trkpt>
      <trkpt lat="42.5048500" lon="-8.6497100">
        <ele>121.9</ele>
        <time>2021-05-22T08:38:34Z</time>
      </trkpt>
      <trkpt lat="42.5048500" lon="-8.6497100">
        <ele>121.9</ele>
        <time>2021-05-22T08:38:35Z</time>
      </trkpt>
      <trkpt lat="42.5048500" lon="-8.6497100">
        <ele>121.9</ele>
        <time>2021-05-22T08:38:36Z</time>
      </trkpt>
      <trkpt lat="42.5048500" lon="-8.6497100">
        <ele>121.9</ele>
        <time>2021-05-22T08:38:37Z</time>
      </trkpt>
      <trkpt lat="42.5048510" lon="-8.6497100">
        <ele>121.9</ele>
        <time>2021-05-22T08:38:38Z</time>
      </trkpt>
      <trkpt lat="42.5048510" lon="-8.6497100">
        <ele>121.9</ele>
        <time>2021-05-22T08:38:39Z</time>
      </trkpt>
      <trkpt lat="42.5048510" lon="-8.6497100">
        <ele>121.9</ele>
        <time>2021-05-22T08:38:40Z</time>
      </trkpt>
      <trkpt lat="42.5048510" lon="-8.6497100">
        <ele>121.9</ele>
        <time>2021-05-22T08:38:41Z</time>
      </trkpt>
      <trkpt lat="42.5048510" lon="-8.6497100">
        <ele>121.9</ele>
        <time>2021-05-22T08:38:42Z</time>
      </trkpt>
      <trkpt lat="42.5048510" lon="-8.6497100">
        <ele>121.9</ele>
        <time>2021-05-22T08:38:43Z</time>
      </trkpt>
      <trkpt lat="42.5048510" lon="-8.6497100">
        <ele>121.9</ele>
        <time>2021-05-22T08:38:44Z</time>
      </trkpt>
      <trkpt lat="42.5048510" lon="-8.6497100">
        <ele>121.9</ele>
        <time>2021-05-22T08:38:45Z</time>
      </trkpt>
      <trkpt lat="42.5048510" lon="-8.6497100">
        <ele>121.9</ele>
        <time>2021-05-22T08:38:46Z</time>
      </trkpt>
      <trkpt lat="42.5048510" lon="-8.6497100">
        <ele>121.9</ele>
        <time>2021-05-22T08:38:47Z</time>
      </trkpt>
      <trkpt lat="42.5048510" lon="-8.6497100">
        <ele>121.9</ele>
        <time>2021-05-22T08:38:48Z</time>
      </trkpt>
      <trkpt lat="42.5048510" lon="-8.6497100">
        <ele>121.9</ele>
        <time>2021-05-22T08:38:49Z</time>
      </trkpt>
      <trkpt lat="42.5048510" lon="-8.6497100">
        <ele>121.9</ele>
        <time>2021-05-22T08:38:50Z</time>
      </trkpt>
      <trkpt lat="42.5048510" lon="-8.6497100">
        <ele>121.9</ele>
        <time>2021-05-22T08:38:51Z</time>
      </trkpt>
      <trkpt lat="42.5048510" lon="-8.6497100">
        <ele>121.9</ele>
        <time>2021-05-22T08:38:52Z</time>
      </trkpt>
      <trkpt lat="42.5048510" lon="-8.6497100">
        <ele>121.9</ele>
        <time>2021-05-22T08:38:53Z</time>
      </trkpt>
      <trkpt lat="42.5048510" lon="-8.6497100">
        <ele>121.9</ele>
        <time>2021-05-22T08:38:54Z</time>
      </trkpt>
      <trkpt lat="42.5048510" lon="-8.6497100">
        <ele>121.9</ele>
        <time>2021-05-22T08:38:55Z</time>
      </trkpt>
      <trkpt lat="42.5048510" lon="-8.6497100">
        <ele>121.9</ele>
        <time>2021-05-22T08:38:56Z</time>
      </trkpt>
      <trkpt lat="42.5048510" lon="-8.6497100">
        <ele>121.9</ele>
        <time>2021-05-22T08:38:57Z</time>
      </trkpt>
      <trkpt lat="42.5048510" lon="-8.6497110">
        <ele>121.9</ele>
        <time>2021-05-22T08:38:58Z</time>
      </trkpt>
      <trkpt lat="42.5048510" lon="-8.6497110">
        <ele>121.9</ele>
        <time>2021-05-22T08:38:59Z</time>
      </trkpt>
      <trkpt lat="42.5048510" lon="-8.6497110">
        <ele>121.9</ele>
        <time>2021-05-22T08:39:00Z</time>
      </trkpt>
      <trkpt lat="42.5048510" lon="-8.6497110">
        <ele>121.9</ele>
        <time>2021-05-22T08:39:01Z</time>
      </trkpt>
      <trkpt lat="42.5048510" lon="-8.6497110">
        <ele>121.9</ele>
        <time>2021-05-22T08:39:02Z</time>
      </trkpt>
      <trkpt lat="42.5048510" lon="-8.6497110">
        <ele>121.9</ele>
        <time>2021-05-22T08:39:03Z</time>
      </trkpt>
      <trkpt lat="42.5048510" lon="-8.6497110">
        <ele>121.9</ele>
        <time>2021-05-22T08:39:04Z</time>
      </trkpt>
      <trkpt lat="42.5048510" lon="-8.6497110">
        <ele>121.9</ele>
        <time>2021-05-22T08:39:05Z</time>
      </trkpt>
      <trkpt lat="42.5048510" lon="-8.6497110">
        <ele>121.9</ele>
        <time>2021-05-22T08:39:06Z</time>
      </trkpt>
      <trkpt lat="42.5048510" lon="-8.6497110">
        <ele>121.9</ele>
        <time>2021-05-22T08:39:07Z</time>
      </trkpt>
      <trkpt lat="42.5048510" lon="-8.6497110">
        <ele>121.9</ele>
        <time>2021-05-22T08:39:08Z</time>
      </trkpt>
      <trkpt lat="42.5048510" lon="-8.6497110">
        <ele>121.9</ele>
        <time>2021-05-22T08:39:09Z</time>
      </trkpt>
      <trkpt lat="42.5048510" lon="-8.6497110">
        <ele>121.9</ele>
        <time>2021-05-22T08:39:10Z</time>
      </trkpt>
      <trkpt lat="42.5048510" lon="-8.6497110">
        <ele>121.9</ele>
        <time>2021-05-22T08:39:11Z</time>
      </trkpt>
      <trkpt lat="42.5048510" lon="-8.6497110">
        <ele>121.9</ele>
        <time>2021-05-22T08:39:12Z</time>
      </trkpt>
      <trkpt lat="42.5048510" lon="-8.6497110">
        <ele>121.9</ele>
        <time>2021-05-22T08:39:13Z</time>
      </trkpt>
      <trkpt lat="42.5048510" lon="-8.6497110">
        <ele>121.9</ele>
        <time>2021-05-22T08:39:14Z</time>
      </trkpt>
      <trkpt lat="42.5048510" lon="-8.6497110">
        <ele>121.9</ele>
        <time>2021-05-22T08:39:15Z</time>
      </trkpt>
      <trkpt lat="42.5048510" lon="-8.6497110">
        <ele>121.9</ele>
        <time>2021-05-22T08:39:16Z</time>
      </trkpt>
      <trkpt lat="42.5048510" lon="-8.6497110">
        <ele>121.9</ele>
        <time>2021-05-22T08:39:17Z</time>
      </trkpt>
      <trkpt lat="42.5048510" lon="-8.6497110">
        <ele>121.9</ele>
        <time>2021-05-22T08:39:18Z</time>
      </trkpt>
      <trkpt lat="42.5048510" lon="-8.6497110">
        <ele>121.9</ele>
        <time>2021-05-22T08:39:19Z</time>
      </trkpt>
      <trkpt lat="42.5048510" lon="-8.6497110">
        <ele>121.9</ele>
        <time>2021-05-22T08:39:20Z</time>
      </trkpt>
      <trkpt lat="42.5048510" lon="-8.6497110">
        <ele>121.9</ele>
        <time>2021-05-22T08:39:21Z</time>
      </trkpt>
      <trkpt lat="42.5048510" lon="-8.6497110">
        <ele>121.9</ele>
        <time>2021-05-22T08:39:22Z</time>
      </trkpt>
      <trkpt lat="42.5048510" lon="-8.6497110">
        <ele>121.9</ele>
        <time>2021-05-22T08:39:23Z</time>
      </trkpt>
      <trkpt lat="42.5048510" lon="-8.6497110">
        <ele>121.9</ele>
        <time>2021-05-22T08:39:24Z</time>
      </trkpt>
      <trkpt lat="42.5048510" lon="-8.6497110">
        <ele>121.9</ele>
        <time>2021-05-22T08:39:25Z</time>
      </trkpt>
      <trkpt lat="42.5048510" lon="-8.6497110">
        <ele>121.9</ele>
        <time>2021-05-22T08:39:26Z</time>
      </trkpt>
      <trkpt lat="42.5048510" lon="-8.6497110">
        <ele>121.9</ele>
        <time>2021-05-22T08:39:27Z</time>
      </trkpt>
      <trkpt lat="42.5048510" lon="-8.6497110">
        <ele>121.9</ele>
        <time>2021-05-22T08:39:28Z</time>
      </trkpt>
      <trkpt lat="42.5048510" lon="-8.6497110">
        <ele>121.9</ele>
        <time>2021-05-22T08:39:29Z</time>
      </trkpt>
      <trkpt lat="42.5048510" lon="-8.6497110">
        <ele>121.9</ele>
        <time>2021-05-22T08:39:30Z</time>
      </trkpt>
      <trkpt lat="42.5048510" lon="-8.6497110">
        <ele>121.9</ele>
        <time>2021-05-22T08:39:31Z</time>
      </trkpt>
      <trkpt lat="42.5048510" lon="-8.6497110">
        <ele>121.9</ele>
        <time>2021-05-22T08:39:32Z</time>
      </trkpt>
      <trkpt lat="42.5048510" lon="-8.6497110">
        <ele>121.9</ele>
        <time>2021-05-22T08:39:33Z</time>
      </trkpt>
      <trkpt lat="42.5048510" lon="-8.6497110">
        <ele>121.9</ele>
        <time>2021-05-22T08:39:34Z</time>
      </trkpt>
      <trkpt lat="42.5048510" lon="-8.6497110">
        <ele>121.9</ele>
        <time>2021-05-22T08:39:35Z</time>
      </trkpt>
      <trkpt lat="42.5048510" lon="-8.6497110">
        <ele>121.9</ele>
        <time>2021-05-22T08:39:36Z</time>
      </trkpt>
      <trkpt lat="42.5048510" lon="-8.6497120">
        <ele>121.9</ele>
        <time>2021-05-22T08:39:37Z</time>
      </trkpt>
      <trkpt lat="42.5048510" lon="-8.6497120">
        <ele>121.9</ele>
        <time>2021-05-22T08:39:38Z</time>
      </trkpt>
      <trkpt lat="42.5048510" lon="-8.6497120">
        <ele>121.9</ele>
        <time>2021-05-22T08:39:39Z</time>
      </trkpt>
      <trkpt lat="42.5048510" lon="-8.6497120">
        <ele>121.9</ele>
        <time>2021-05-22T08:39:40Z</time>
      </trkpt>
      <trkpt lat="42.5048510" lon="-8.6497120">
        <ele>121.9</ele>
        <time>2021-05-22T08:39:41Z</time>
      </trkpt>
      <trkpt lat="42.5048510" lon="-8.6497120">
        <ele>121.9</ele>
        <time>2021-05-22T08:39:42Z</time>
      </trkpt>
      <trkpt lat="42.5048510" lon="-8.6497120">
        <ele>121.9</ele>
        <time>2021-05-22T08:39:43Z</time>
      </trkpt>
      <trkpt lat="42.5048510" lon="-8.6497120">
        <ele>121.9</ele>
        <time>2021-05-22T08:39:44Z</time>
      </trkpt>
      <trkpt lat="42.5048510" lon="-8.6497120">
        <ele>121.9</ele>
        <time>2021-05-22T08:39:45Z</time>
      </trkpt>
      <trkpt lat="42.5048510" lon="-8.6497120">
        <ele>121.9</ele>
        <time>2021-05-22T08:39:46Z</time>
      </trkpt>
      <trkpt lat="42.5048510" lon="-8.6497120">
        <ele>121.9</ele>
        <time>2021-05-22T08:39:47Z</time>
      </trkpt>
      <trkpt lat="42.5048510" lon="-8.6497120">
        <ele>121.9</ele>
        <time>2021-05-22T08:39:48Z</time>
      </trkpt>
      <trkpt lat="42.5048510" lon="-8.6497120">
        <ele>121.9</ele>
        <time>2021-05-22T08:39:49Z</time>
      </trkpt>
      <trkpt lat="42.5048510" lon="-8.6497120">
        <ele>121.9</ele>
        <time>2021-05-22T08:39:50Z</time>
      </trkpt>
      <trkpt lat="42.5048510" lon="-8.6497120">
        <ele>121.9</ele>
        <time>2021-05-22T08:39:51Z</time>
      </trkpt>
      <trkpt lat="42.5048510" lon="-8.6497120">
        <ele>121.9</ele>
        <time>2021-05-22T08:39:52Z</time>
      </trkpt>
      <trkpt lat="42.5048510" lon="-8.6497120">
        <ele>121.9</ele>
        <time>2021-05-22T08:39:53Z</time>
      </trkpt>
      <trkpt lat="42.5048510" lon="-8.6497120">
        <ele>121.9</ele>
        <time>2021-05-22T08:39:54Z</time>
      </trkpt>
      <trkpt lat="42.5048510" lon="-8.6497120">
        <ele>121.9</ele>
        <time>2021-05-22T08:39:55Z</time>
      </trkpt>
      <trkpt lat="42.5048510" lon="-8.6497120">
        <ele>121.9</ele>
        <time>2021-05-22T08:39:56Z</time>
      </trkpt>
      <trkpt lat="42.5048510" lon="-8.6497120">
        <ele>121.9</ele>
        <time>2021-05-22T08:39:57Z</time>
      </trkpt>
      <trkpt lat="42.5048510" lon="-8.6497120">
        <ele>121.9</ele>
        <time>2021-05-22T08:39:58Z</time>
      </trkpt>
      <trkpt lat="42.5048510" lon="-8.6497120">
        <ele>121.9</ele>
        <time>2021-05-22T08:39:59Z</time>
      </trkpt>
      <trkpt lat="42.5048510" lon="-8.6497120">
        <ele>121.9</ele>
        <time>2021-05-22T08:40:00Z</time>
      </trkpt>
      <trkpt lat="42.5048510" lon="-8.6497120">
        <ele>121.9</ele>
        <time>2021-05-22T08:40:01Z</time>
      </trkpt>
      <trkpt lat="42.5048510" lon="-8.6497120">
        <ele>121.9</ele>
        <time>2021-05-22T08:40:02Z</time>
      </trkpt>
      <trkpt lat="42.5048510" lon="-8.6497120">
        <ele>121.9</ele>
        <time>2021-05-22T08:40:03Z</time>
      </trkpt>
      <trkpt lat="42.5048510" lon="-8.6497120">
        <ele>121.9</ele>
        <time>2021-05-22T08:40:04Z</time>
      </trkpt>
      <trkpt lat="42.5048510" lon="-8.6497120">
        <ele>121.9</ele>
        <time>2021-05-22T08:40:05Z</time>
      </trkpt>
      <trkpt lat="42.5048510" lon="-8.6497120">
        <ele>121.9</ele>
        <time>2021-05-22T08:40:06Z</time>
      </trkpt>
      <trkpt lat="42.5048510" lon="-8.6497120">
        <ele>121.9</ele>
        <time>2021-05-22T08:40:07Z</time>
      </trkpt>
      <trkpt lat="42.5048510" lon="-8.6497120">
        <ele>121.9</ele>
        <time>2021-05-22T08:40:08Z</time>
      </trkpt>
      <trkpt lat="42.5048510" lon="-8.6497120">
        <ele>121.9</ele>
        <time>2021-05-22T08:40:09Z</time>
      </trkpt>
      <trkpt lat="42.5048510" lon="-8.6497120">
        <ele>121.9</ele>
        <time>2021-05-22T08:40:10Z</time>
      </trkpt>
      <trkpt lat="42.5048510" lon="-8.6497120">
        <ele>121.9</ele>
        <time>2021-05-22T08:40:11Z</time>
      </trkpt>
      <trkpt lat="42.5048510" lon="-8.6497120">
        <ele>121.9</ele>
        <time>2021-05-22T08:40:12Z</time>
      </trkpt>
      <trkpt lat="42.5048510" lon="-8.6497120">
        <ele>121.9</ele>
        <time>2021-05-22T08:40:13Z</time>
      </trkpt>
      <trkpt lat="42.5048510" lon="-8.6497120">
        <ele>121.9</ele>
        <time>2021-05-22T08:40:14Z</time>
      </trkpt>
      <trkpt lat="42.5048510" lon="-8.6497130">
        <ele>121.9</ele>
        <time>2021-05-22T08:40:15Z</time>
      </trkpt>
      <trkpt lat="42.5048510" lon="-8.6497130">
        <ele>121.9</ele>
        <time>2021-05-22T08:40:16Z</time>
      </trkpt>
      <trkpt lat="42.5048510" lon="-8.6497130">
        <ele>121.9</ele>
        <time>2021-05-22T08:40:17Z</time>
      </trkpt>
      <trkpt lat="42.5048510" lon="-8.6497130">
        <ele>121.9</ele>
        <time>2021-05-22T08:40:18Z</time>
      </trkpt>
      <trkpt lat="42.5048510" lon="-8.6497130">
        <ele>121.9</ele>
        <time>2021-05-22T08:40:19Z</time>
      </trkpt>
      <trkpt lat="42.5048510" lon="-8.6497130">
        <ele>121.9</ele>
        <time>2021-05-22T08:40:20Z</time>
      </trkpt>
      <trkpt lat="42.5048510" lon="-8.6497130">
        <ele>121.9</ele>
        <time>2021-05-22T08:40:21Z</time>
      </trkpt>
      <trkpt lat="42.5048510" lon="-8.6497130">
        <ele>121.9</ele>
        <time>2021-05-22T08:40:22Z</time>
      </trkpt>
      <trkpt lat="42.5048510" lon="-8.6497130">
        <ele>121.9</ele>
        <time>2021-05-22T08:40:23Z</time>
      </trkpt>
      <trkpt lat="42.5048510" lon="-8.6497130">
        <ele>121.9</ele>
        <time>2021-05-22T08:40:24Z</time>
      </trkpt>
      <trkpt lat="42.5048510" lon="-8.6497130">
        <ele>121.9</ele>
        <time>2021-05-22T08:40:25Z</time>
      </trkpt>
      <trkpt lat="42.5048510" lon="-8.6497130">
        <ele>121.9</ele>
        <time>2021-05-22T08:40:26Z</time>
      </trkpt>
      <trkpt lat="42.5048510" lon="-8.6497130">
        <ele>121.9</ele>
        <time>2021-05-22T08:40:27Z</time>
      </trkpt>
      <trkpt lat="42.5048510" lon="-8.6497130">
        <ele>121.9</ele>
        <time>2021-05-22T08:40:28Z</time>
      </trkpt>
      <trkpt lat="42.5048510" lon="-8.6497130">
        <ele>121.9</ele>
        <time>2021-05-22T08:40:29Z</time>
      </trkpt>
      <trkpt lat="42.5048510" lon="-8.6497130">
        <ele>121.9</ele>
        <time>2021-05-22T08:40:30Z</time>
      </trkpt>
      <trkpt lat="42.5048510" lon="-8.6497130">
        <ele>121.9</ele>
        <time>2021-05-22T08:40:31Z</time>
      </trkpt>
      <trkpt lat="42.5048510" lon="-8.6497130">
        <ele>121.9</ele>
        <time>2021-05-22T08:40:32Z</time>
      </trkpt>
      <trkpt lat="42.5048510" lon="-8.6497130">
        <ele>121.9</ele>
        <time>2021-05-22T08:40:33Z</time>
      </trkpt>
      <trkpt lat="42.5048510" lon="-8.6497130">
        <ele>121.9</ele>
        <time>2021-05-22T08:40:34Z</time>
      </trkpt>
      <trkpt lat="42.5048510" lon="-8.6497130">
        <ele>121.9</ele>
        <time>2021-05-22T08:40:35Z</time>
      </trkpt>
      <trkpt lat="42.5048510" lon="-8.6497130">
        <ele>121.9</ele>
        <time>2021-05-22T08:40:36Z</time>
      </trkpt>
      <trkpt lat="42.5048510" lon="-8.6497130">
        <ele>121.9</ele>
        <time>2021-05-22T08:40:37Z</time>
      </trkpt>
      <trkpt lat="42.5048510" lon="-8.6497130">
        <ele>121.9</ele>
        <time>2021-05-22T08:40:38Z</time>
      </trkpt>
      <trkpt lat="42.5048510" lon="-8.6497130">
        <ele>121.9</ele>
        <time>2021-05-22T08:40:39Z</time>
      </trkpt>
      <trkpt lat="42.5048510" lon="-8.6497130">
        <ele>121.9</ele>
        <time>2021-05-22T08:40:40Z</time>
      </trkpt>
      <trkpt lat="42.5048510" lon="-8.6497130">
        <ele>121.9</ele>
        <time>2021-05-22T08:40:41Z</time>
      </trkpt>
      <trkpt lat="42.5048510" lon="-8.6497130">
        <ele>121.9</ele>
        <time>2021-05-22T08:40:42Z</time>
      </trkpt>
      <trkpt lat="42.5048510" lon="-8.6497130">
        <ele>121.9</ele>
        <time>2021-05-22T08:40:43Z</time>
      </trkpt>
      <trkpt lat="42.5048510" lon="-8.6497130">
        <ele>121.9</ele>
        <time>2021-05-22T08:40:44Z</time>
      </trkpt>
      <trkpt lat="42.5048510" lon="-8.6497130">
        <ele>121.9</ele>
        <time>2021-05-22T08:40:45Z</time>
      </trkpt>
      <trkpt lat="42.5048510" lon="-8.6497130">
        <ele>121.9</ele>
        <time>2021-05-22T08:40:46Z</time>
      </trkpt>
      <trkpt lat="42.5048510" lon="-8.6497130">
        <ele>121.9</ele>
        <time>2021-05-22T08:40:47Z</time>
      </trkpt>
      <trkpt lat="42.5048510" lon="-8.6497130">
        <ele>121.9</ele>
        <time>2021-05-22T08:40:48Z</time>
      </trkpt>
      <trkpt lat="42.5048510" lon="-8.6497130">
        <ele>121.9</ele>
        <time>2021-05-22T08:40:49Z</time>
      </trkpt>
      <trkpt lat="42.5048510" lon="-8.6497130">
        <ele>121.9</ele>
        <time>2021-05-22T08:40:50Z</time>
      </trkpt>
      <trkpt lat="42.5048510" lon="-8.6497130">
        <ele>121.9</ele>
        <time>2021-05-22T08:40:51Z</time>
      </trkpt>
      <trkpt lat="42.5048510" lon="-8.6497130">
        <ele>121.9</ele>
        <time>2021-05-22T08:40:52Z</time>
      </trkpt>
      <trkpt lat="42.5048510" lon="-8.6497130">
        <ele>121.9</ele>
        <time>2021-05-22T08:40:53Z</time>
      </trkpt>
      <trkpt lat="42.5048510" lon="-8.6497140">
        <ele>121.9</ele>
        <time>2021-05-22T08:40:54Z</time>
      </trkpt>
      <trkpt lat="42.5048510" lon="-8.6497140">
        <ele>121.9</ele>
        <time>2021-05-22T08:40:55Z</time>
      </trkpt>
      <trkpt lat="42.5048510" lon="-8.6497140">
        <ele>121.9</ele>
        <time>2021-05-22T08:40:56Z</time>
      </trkpt>
      <trkpt lat="42.5048510" lon="-8.6497140">
        <ele>121.9</ele>
        <time>2021-05-22T08:40:57Z</time>
      </trkpt>
      <trkpt lat="42.5048510" lon="-8.6497140">
        <ele>121.9</ele>
        <time>2021-05-22T08:40:58Z</time>
      </trkpt>
      <trkpt lat="42.5048510" lon="-8.6497140">
        <ele>121.9</ele>
        <time>2021-05-22T08:40:59Z</time>
      </trkpt>
      <trkpt lat="42.5048510" lon="-8.6497140">
        <ele>121.9</ele>
        <time>2021-05-22T08:41:00Z</time>
      </trkpt>
      <trkpt lat="42.5048510" lon="-8.6497140">
        <ele>121.9</ele>
        <time>2021-05-22T08:41:01Z</time>
      </trkpt>
      <trkpt lat="42.5048510" lon="-8.6497140">
        <ele>121.9</ele>
        <time>2021-05-22T08:41:02Z</time>
      </trkpt>
      <trkpt lat="42.5048510" lon="-8.6497140">
        <ele>121.9</ele>
        <time>2021-05-22T08:41:03Z</time>
      </trkpt>
      <trkpt lat="42.5048510" lon="-8.6497140">
        <ele>121.9</ele>
        <time>2021-05-22T08:41:04Z</time>
      </trkpt>
      <trkpt lat="42.5048510" lon="-8.6497140">
        <ele>121.9</ele>
        <time>2021-05-22T08:41:05Z</time>
      </trkpt>
      <trkpt lat="42.5048510" lon="-8.6497140">
        <ele>121.9</ele>
        <time>2021-05-22T08:41:06Z</time>
      </trkpt>
      <trkpt lat="42.5048510" lon="-8.6497140">
        <ele>121.9</ele>
        <time>2021-05-22T08:41:07Z</time>
      </trkpt>
      <trkpt lat="42.5048510" lon="-8.6497140">
        <ele>121.9</ele>
        <time>2021-05-22T08:41:08Z</time>
      </trkpt>
      <trkpt lat="42.5048510" lon="-8.6497140">
        <ele>121.9</ele>
        <time>2021-05-22T08:41:09Z</time>
      </trkpt>
      <trkpt lat="42.5048510" lon="-8.6497140">
        <ele>121.9</ele>
        <time>2021-05-22T08:41:10Z</time>
      </trkpt>
      <trkpt lat="42.5048510" lon="-8.6497140">
        <ele>121.9</ele>
        <time>2021-05-22T08:41:11Z</time>
      </trkpt>
      <trkpt lat="42.5048510" lon="-8.6497140">
        <ele>121.9</ele>
        <time>2021-05-22T08:41:12Z</time>
      </trkpt>
      <trkpt lat="42.5048510" lon="-8.6497140">
        <ele>121.9</ele>
        <time>2021-05-22T08:41:13Z</time>
      </trkpt>
      <trkpt lat="42.5048510" lon="-8.6497140">
        <ele>121.9</ele>
        <time>2021-05-22T08:41:14Z</time>
      </trkpt>
      <trkpt lat="42.5048510" lon="-8.6497140">
        <ele>121.9</ele>
        <time>2021-05-22T08:41:15Z</time>
      </trkpt>
      <trkpt lat="42.5048510" lon="-8.6497140">
        <ele>121.9</ele>
        <time>2021-05-22T08:41:16Z</time>
      </trkpt>
      <trkpt lat="42.5048510" lon="-8.6497140">
        <ele>121.9</ele>
        <time>2021-05-22T08:41:17Z</time>
      </trkpt>
      <trkpt lat="42.5048510" lon="-8.6497140">
        <ele>121.9</ele>
        <time>2021-05-22T08:41:18Z</time>
      </trkpt>
      <trkpt lat="42.5048510" lon="-8.6497140">
        <ele>121.9</ele>
        <time>2021-05-22T08:41:19Z</time>
      </trkpt>
      <trkpt lat="42.5048510" lon="-8.6497140">
        <ele>121.9</ele>
        <time>2021-05-22T08:41:20Z</time>
      </trkpt>
      <trkpt lat="42.5048510" lon="-8.6497140">
        <ele>121.9</ele>
        <time>2021-05-22T08:41:21Z</time>
      </trkpt>
      <trkpt lat="42.5048510" lon="-8.6497140">
        <ele>121.9</ele>
        <time>2021-05-22T08:41:22Z</time>
      </trkpt>
      <trkpt lat="42.5048510" lon="-8.6497140">
        <ele>121.9</ele>
        <time>2021-05-22T08:41:23Z</time>
      </trkpt>
      <trkpt lat="42.5048510" lon="-8.6497140">
        <ele>121.9</ele>
        <time>2021-05-22T08:41:24Z</time>
      </trkpt>
      <trkpt lat="42.5048510" lon="-8.6497140">
        <ele>121.9</ele>
        <time>2021-05-22T08:41:25Z</time>
      </trkpt>
      <trkpt lat="42.5048510" lon="-8.6497140">
        <ele>121.9</ele>
        <time>2021-05-22T08:41:26Z</time>
      </trkpt>
      <trkpt lat="42.5048510" lon="-8.6497140">
        <ele>121.9</ele>
        <time>2021-05-22T08:41:27Z</time>
      </trkpt>
      <trkpt lat="42.5048510" lon="-8.6497140">
        <ele>121.9</ele>
        <time>2021-05-22T08:41:28Z</time>
      </trkpt>
      <trkpt lat="42.5048510" lon="-8.6497140">
        <ele>121.9</ele>
        <time>2021-05-22T08:41:29Z</time>
      </trkpt>
      <trkpt lat="42.5048510" lon="-8.6497140">
        <ele>121.9</ele>
        <time>2021-05-22T08:41:30Z</time>
      </trkpt>
      <trkpt lat="42.5048510" lon="-8.6497140">
        <ele>121.9</ele>
        <time>2021-05-22T08:41:31Z</time>
      </trkpt>
      <trkpt lat="42.5048510" lon="-8.6497140">
        <ele>121.9</ele>
        <time>2021-05-22T08:41:32Z</time>
      </trkpt>
      <trkpt lat="42.5048510" lon="-8.6497150">
        <ele>121.9</ele>
        <time>2021-05-22T08:41:33Z</time>
      </trkpt>
      <trkpt lat="42.5048510" lon="-8.6497150">
        <ele>121.9</ele>
        <time>2021-05-22T08:41:34Z</time>
      </trkpt>
      <trkpt lat="42.5048510" lon="-8.6497150">
        <ele>121.9</ele>
        <time>2021-05-22T08:41:35Z</time>
      </trkpt>
      <trkpt lat="42.5048510" lon="-8.6497150">
        <ele>121.9</ele>
        <time>2021-05-22T08:41:36Z</time>
      </trkpt>
      <trkpt lat="42.5048510" lon="-8.6497150">
        <ele>121.9</ele>
        <time>2021-05-22T08:41:37Z</time>
      </trkpt>
      <trkpt lat="42.5048510" lon="-8.6497150">
        <ele>121.9</ele>
        <time>2021-05-22T08:41:38Z</time>
      </trkpt>
      <trkpt lat="42.5048510" lon="-8.6497150">
        <ele>121.9</ele>
        <time>2021-05-22T08:41:39Z</time>
      </trkpt>
      <trkpt lat="42.5048510" lon="-8.6497150">
        <ele>121.9</ele>
        <time>2021-05-22T08:41:40Z</time>
      </trkpt>
      <trkpt lat="42.5048510" lon="-8.6497150">
        <ele>121.9</ele>
        <time>2021-05-22T08:41:41Z</time>
      </trkpt>
      <trkpt lat="42.5048510" lon="-8.6497150">
        <ele>121.9</ele>
        <time>2021-05-22T08:41:42Z</time>
      </trkpt>
      <trkpt lat="42.5048510" lon="-8.6497150">
        <ele>121.9</ele>
        <time>2021-05-22T08:41:43Z</time>
      </trkpt>
      <trkpt lat="42.5048510" lon="-8.6497150">
        <ele>121.9</ele>
        <time>2021-05-22T08:41:44Z</time>
      </trkpt>
      <trkpt lat="42.5048510" lon="-8.6497150">
        <ele>121.9</ele>
        <time>2021-05-22T08:41:45Z</time>
      </trkpt>
      <trkpt lat="42.5048510" lon="-8.6497150">
        <ele>121.9</ele>
        <time>2021-05-22T08:41:46Z</time>
      </trkpt>
      <trkpt lat="42.5048510" lon="-8.6497150">
        <ele>121.9</ele>
        <time>2021-05-22T08:41:47Z</time>
      </trkpt>
      <trkpt lat="42.5048510" lon="-8.6497150">
        <ele>121.9</ele>
        <time>2021-05-22T08:41:48Z</time>
      </trkpt>
      <trkpt lat="42.5048510" lon="-8.6497150">
        <ele>121.9</ele>
        <time>2021-05-22T08:41:49Z</time>
      </trkpt>
      <trkpt lat="42.5048510" lon="-8.6497150">
        <ele>121.9</ele>
        <time>2021-05-22T08:41:50Z</time>
      </trkpt>
      <trkpt lat="42.5048510" lon="-8.6497150">
        <ele>121.9</ele>
        <time>2021-05-22T08:41:51Z</time>
      </trkpt>
      <trkpt lat="42.5048510" lon="-8.6497150">
        <ele>121.9</ele>
        <time>2021-05-22T08:41:52Z</time>
      </trkpt>
      <trkpt lat="42.5048510" lon="-8.6497150">
        <ele>121.9</ele>
        <time>2021-05-22T08:41:53Z</time>
      </trkpt>
      <trkpt lat="42.5048510" lon="-8.6497150">
        <ele>121.9</ele>
        <time>2021-05-22T08:41:54Z</time>
      </trkpt>
      <trkpt lat="42.5048510" lon="-8.6497150">
        <ele>121.9</ele>
        <time>2021-05-22T08:41:55Z</time>
      </trkpt>
      <trkpt lat="42.5048510" lon="-8.6497150">
        <ele>121.9</ele>
        <time>2021-05-22T08:41:56Z</time>
      </trkpt>
      <trkpt lat="42.5048510" lon="-8.6497150">
        <ele>121.9</ele>
        <time>2021-05-22T08:41:57Z</time>
      </trkpt>
      <trkpt lat="42.5048510" lon="-8.6497150">
        <ele>121.9</ele>
        <time>2021-05-22T08:41:58Z</time>
      </trkpt>
      <trkpt lat="42.5048510" lon="-8.6497150">
        <ele>121.9</ele>
        <time>2021-05-22T08:41:59Z</time>
      </trkpt>
      <trkpt lat="42.5048510" lon="-8.6497150">
        <ele>121.9</ele>
        <time>2021-05-22T08:42:00Z</time>
      </trkpt>
      <trkpt lat="42.5048510" lon="-8.6497150">
        <ele>121.9</ele>
        <time>2021-05-22T08:42:01Z</time>
      </trkpt>
      <trkpt lat="42.5048510" lon="-8.6497150">
        <ele>121.9</ele>
        <time>2021-05-22T08:42:02Z</time>
      </trkpt>
      <trkpt lat="42.5048510" lon="-8.6497150">
        <ele>121.9</ele>
        <time>2021-05-22T08:42:03Z</time>
      </trkpt>
      <trkpt lat="42.5048510" lon="-8.6497150">
        <ele>121.9</ele>
        <time>2021-05-22T08:42:04Z</time>
      </trkpt>
      <trkpt lat="42.5048510" lon="-8.6497150">
        <ele>121.9</ele>
        <time>2021-05-22T08:42:05Z</time>
      </trkpt>
      <trkpt lat="42.5048510" lon="-8.6497150">
        <ele>121.9</ele>
        <time>2021-05-22T08:42:06Z</time>
      </trkpt>
      <trkpt lat="42.5048510" lon="-8.6497150">
        <ele>121.9</ele>
        <time>2021-05-22T08:42:07Z</time>
      </trkpt>
      <trkpt lat="42.5048510" lon="-8.6497150">
        <ele>121.9</ele>
        <time>2021-05-22T08:42:08Z</time>
      </trkpt>
      <trkpt lat="42.5048510" lon="-8.6497150">
        <ele>121.9</ele>
        <time>2021-05-22T08:42:09Z</time>
      </trkpt>
      <trkpt lat="42.5048510" lon="-8.6497150">
        <ele>121.9</ele>
        <time>2021-05-22T08:42:10Z</time>
      </trkpt>
      <trkpt lat="42.5048510" lon="-8.6497160">
        <ele>121.9</ele>
        <time>2021-05-22T08:42:11Z</time>
      </trkpt>
      <trkpt lat="42.5048510" lon="-8.6497160">
        <ele>121.9</ele>
        <time>2021-05-22T08:42:12Z</time>
      </trkpt>
      <trkpt lat="42.5048510" lon="-8.6497160">
        <ele>121.9</ele>
        <time>2021-05-22T08:42:13Z</time>
      </trkpt>
      <trkpt lat="42.5048510" lon="-8.6497160">
        <ele>121.9</ele>
        <time>2021-05-22T08:42:14Z</time>
      </trkpt>
      <trkpt lat="42.5048510" lon="-8.6497160">
        <ele>121.9</ele>
        <time>2021-05-22T08:42:15Z</time>
      </trkpt>
      <trkpt lat="42.5048510" lon="-8.6497160">
        <ele>121.9</ele>
        <time>2021-05-22T08:42:16Z</time>
      </trkpt>
      <trkpt lat="42.5048510" lon="-8.6497160">
        <ele>121.9</ele>
        <time>2021-05-22T08:42:17Z</time>
      </trkpt>
      <trkpt lat="42.5048510" lon="-8.6497160">
        <ele>121.9</ele>
        <time>2021-05-22T08:42:18Z</time>
      </trkpt>
      <trkpt lat="42.5048510" lon="-8.6497160">
        <ele>121.9</ele>
        <time>2021-05-22T08:42:19Z</time>
      </trkpt>
      <trkpt lat="42.5048510" lon="-8.6497160">
        <ele>121.9</ele>
        <time>2021-05-22T08:42:20Z</time>
      </trkpt>
      <trkpt lat="42.5048510" lon="-8.6497160">
        <ele>121.9</ele>
        <time>2021-05-22T08:42:21Z</time>
      </trkpt>
      <trkpt lat="42.5048510" lon="-8.6497160">
        <ele>121.9</ele>
        <time>2021-05-22T08:42:22Z</time>
      </trkpt>
      <trkpt lat="42.5048510" lon="-8.6497160">
        <ele>121.9</ele>
        <time>2021-05-22T08:42:23Z</time>
      </trkpt>
      <trkpt lat="42.5048510" lon="-8.6497160">
        <ele>121.9</ele>
        <time>2021-05-22T08:42:24Z</time>
      </trkpt>
      <trkpt lat="42.5048510" lon="-8.6497160">
        <ele>121.9</ele>
        <time>2021-05-22T08:42:25Z</time>
      </trkpt>
      <trkpt lat="42.5048510" lon="-8.6497160">
        <ele>121.9</ele>
        <time>2021-05-22T08:42:26Z</time>
      </trkpt>
      <trkpt lat="42.5048510" lon="-8.6497160">
        <ele>121.9</ele>
        <time>2021-05-22T08:42:27Z</time>
      </trkpt>
      <trkpt lat="42.5048510" lon="-8.6497160">
        <ele>121.9</ele>
        <time>2021-05-22T08:42:28Z</time>
      </trkpt>
      <trkpt lat="42.5048510" lon="-8.6497160">
        <ele>121.9</ele>
        <time>2021-05-22T08:42:29Z</time>
      </trkpt>
      <trkpt lat="42.5048510" lon="-8.6497160">
        <ele>121.9</ele>
        <time>2021-05-22T08:42:30Z</time>
      </trkpt>
      <trkpt lat="42.5048510" lon="-8.6497160">
        <ele>121.9</ele>
        <time>2021-05-22T08:42:31Z</time>
      </trkpt>
      <trkpt lat="42.5048510" lon="-8.6497160">
        <ele>121.9</ele>
        <time>2021-05-22T08:42:32Z</time>
      </trkpt>
      <trkpt lat="42.5048510" lon="-8.6497160">
        <ele>121.9</ele>
        <time>2021-05-22T08:42:33Z</time>
      </trkpt>
      <trkpt lat="42.5048510" lon="-8.6497160">
        <ele>121.9</ele>
        <time>2021-05-22T08:42:34Z</time>
      </trkpt>
      <trkpt lat="42.5048510" lon="-8.6497160">
        <ele>121.9</ele>
        <time>2021-05-22T08:42:35Z</time>
      </trkpt>
      <trkpt lat="42.5048510" lon="-8.6497160">
        <ele>121.9</ele>
        <time>2021-05-22T08:42:36Z</time>
      </trkpt>
      <trkpt lat="42.5048510" lon="-8.6497160">
        <ele>121.9</ele>
        <time>2021-05-22T08:42:37Z</time>
      </trkpt>
      <trkpt lat="42.5048510" lon="-8.6497160">
        <ele>121.9</ele>
        <time>2021-05-22T08:42:38Z</time>
      </trkpt>
      <trkpt lat="42.5048510" lon="-8.6497160">
        <ele>121.9</ele>
        <time>2021-05-22T08:42:39Z</time>
      </trkpt>
      <trkpt lat="42.5048510" lon="-8.6497160">
        <ele>121.9</ele>
        <time>2021-05-22T08:42:40Z</time>
      </trkpt>
      <trkpt lat="42.5048510" lon="-8.6497160">
        <ele>121.9</ele>
        <time>2021-05-22T08:42:41Z</time>
      </trkpt>
      <trkpt lat="42.5048510" lon="-8.6497160">
        <ele>121.9</ele>
        <time>2021-05-22T08:42:42Z</time>
      </trkpt>
      <trkpt lat="42.5048510" lon="-8.6497160">
        <ele>121.9</ele>
        <time>2021-05-22T08:42:43Z</time>
      </trkpt>
      <trkpt lat="42.5048510" lon="-8.6497160">
        <ele>121.9</ele>
        <time>2021-05-22T08:42:44Z</time>
      </trkpt>
      <trkpt lat="42.5048510" lon="-8.6497160">
        <ele>121.9</ele>
        <time>2021-05-22T08:42:45Z</time>
      </trkpt>
      <trkpt lat="42.5048510" lon="-8.6497160">
        <ele>121.9</ele>
        <time>2021-05-22T08:42:46Z</time>
      </trkpt>
      <trkpt lat="42.5048510" lon="-8.6497160">
        <ele>121.9</ele>
        <time>2021-05-22T08:42:47Z</time>
      </trkpt>
      <trkpt lat="42.5048510" lon="-8.6497160">
        <ele>121.9</ele>
        <time>2021-05-22T08:42:48Z</time>
      </trkpt>
      <trkpt lat="42.5048510" lon="-8.6497160">
        <ele>121.9</ele>
        <time>2021-05-22T08:42:49Z</time>
      </trkpt>
      <trkpt lat="42.5048510" lon="-8.6497170">
        <ele>121.9</ele>
        <time>2021-05-22T08:42:50Z</time>
      </trkpt>
      <trkpt lat="42.5048510" lon="-8.6497170">
        <ele>121.9</ele>
        <time>2021-05-22T08:42:51Z</time>
      </trkpt>
      <trkpt lat="42.5048510" lon="-8.6497170">
        <ele>121.9</ele>
        <time>2021-05-22T08:42:52Z</time>
      </trkpt>
      <trkpt lat="42.5048510" lon="-8.6497170">
        <ele>121.9</ele>
        <time>2021-05-22T08:42:53Z</time>
      </trkpt>
      <trkpt lat="42.5048510" lon="-8.6497170">
        <ele>121.9</ele>
        <time>2021-05-22T08:42:54Z</time>
      </trkpt>
      <trkpt lat="42.5048510" lon="-8.6497170">
        <ele>121.9</ele>
        <time>2021-05-22T08:42:55Z</time>
      </trkpt>
      <trkpt lat="42.5048510" lon="-8.6497170">
        <ele>121.9</ele>
        <time>2021-05-22T08:42:56Z</time>
      </trkpt>
      <trkpt lat="42.5048510" lon="-8.6497170">
        <ele>121.9</ele>
        <time>2021-05-22T08:42:57Z</time>
      </trkpt>
      <trkpt lat="42.5048510" lon="-8.6497170">
        <ele>121.9</ele>
        <time>2021-05-22T08:42:58Z</time>
      </trkpt>
      <trkpt lat="42.5048510" lon="-8.6497170">
        <ele>121.9</ele>
        <time>2021-05-22T08:42:59Z</time>
      </trkpt>
      <trkpt lat="42.5048510" lon="-8.6497170">
        <ele>121.9</ele>
        <time>2021-05-22T08:43:00Z</time>
      </trkpt>
      <trkpt lat="42.5048510" lon="-8.6497170">
        <ele>121.9</ele>
        <time>2021-05-22T08:43:01Z</time>
      </trkpt>
      <trkpt lat="42.5048510" lon="-8.6497170">
        <ele>121.9</ele>
        <time>2021-05-22T08:43:02Z</time>
      </trkpt>
      <trkpt lat="42.5048510" lon="-8.6497170">
        <ele>121.9</ele>
        <time>2021-05-22T08:43:03Z</time>
      </trkpt>
      <trkpt lat="42.5048510" lon="-8.6497170">
        <ele>121.9</ele>
        <time>2021-05-22T08:43:04Z</time>
      </trkpt>
      <trkpt lat="42.5048510" lon="-8.6497170">
        <ele>121.9</ele>
        <time>2021-05-22T08:43:05Z</time>
      </trkpt>
      <trkpt lat="42.5048510" lon="-8.6497170">
        <ele>121.9</ele>
        <time>2021-05-22T08:43:06Z</time>
      </trkpt>
      <trkpt lat="42.5048510" lon="-8.6497170">
        <ele>121.9</ele>
        <time>2021-05-22T08:43:07Z</time>
      </trkpt>
      <trkpt lat="42.5048510" lon="-8.6497170">
        <ele>121.9</ele>
        <time>2021-05-22T08:43:08Z</time>
      </trkpt>
      <trkpt lat="42.5048510" lon="-8.6497170">
        <ele>121.9</ele>
        <time>2021-05-22T08:43:09Z</time>
      </trkpt>
      <trkpt lat="42.5048510" lon="-8.6497170">
        <ele>121.9</ele>
        <time>2021-05-22T08:43:10Z</time>
      </trkpt>
      <trkpt lat="42.5048510" lon="-8.6497170">
        <ele>121.9</ele>
        <time>2021-05-22T08:43:11Z</time>
      </trkpt>
      <trkpt lat="42.5048510" lon="-8.6497170">
        <ele>121.9</ele>
        <time>2021-05-22T08:43:12Z</time>
      </trkpt>
      <trkpt lat="42.5048510" lon="-8.6497170">
        <ele>121.9</ele>
        <time>2021-05-22T08:43:13Z</time>
      </trkpt>
      <trkpt lat="42.5048510" lon="-8.6497170">
        <ele>121.9</ele>
        <time>2021-05-22T08:43:14Z</time>
      </trkpt>
      <trkpt lat="42.5048510" lon="-8.6497170">
        <ele>121.9</ele>
        <time>2021-05-22T08:43:15Z</time>
      </trkpt>
      <trkpt lat="42.5048510" lon="-8.6497170">
        <ele>121.9</ele>
        <time>2021-05-22T08:43:16Z</time>
      </trkpt>
      <trkpt lat="42.5048510" lon="-8.6497170">
        <ele>121.9</ele>
        <time>2021-05-22T08:43:17Z</time>
      </trkpt>
      <trkpt lat="42.5048510" lon="-8.6497170">
        <ele>121.9</ele>
        <time>2021-05-22T08:43:18Z</time>
      </trkpt>
      <trkpt lat="42.5048510" lon="-8.6497170">
        <ele>121.9</ele>
        <time>2021-05-22T08:43:19Z</time>
      </trkpt>
      <trkpt lat="42.5048510" lon="-8.6497170">
        <ele>121.9</ele>
        <time>2021-05-22T08:43:20Z</time>
      </trkpt>
      <trkpt lat="42.5048510" lon="-8.6497170">
        <ele>121.9</ele>
        <time>2021-05-22T08:43:21Z</time>
      </trkpt>
      <trkpt lat="42.5048510" lon="-8.6497170">
        <ele>121.9</ele>
        <time>2021-05-22T08:43:22Z</time>
      </trkpt>
      <trkpt lat="42.5048510" lon="-8.6497170">
        <ele>121.9</ele>
        <time>2021-05-22T08:43:23Z</time>
      </trkpt>
      <trkpt lat="42.5048510" lon="-8.6497170">
        <ele>121.9</ele>
        <time>2021-05-22T08:43:24Z</time>
      </trkpt>
      <trkpt lat="42.5048510" lon="-8.6497170">
        <ele>121.9</ele>
        <time>2021-05-22T08:43:25Z</time>
      </trkpt>
      <trkpt lat="42.5048510" lon="-8.6497170">
        <ele>121.9</ele>
        <time>2021-05-22T08:43:26Z</time>
      </trkpt>
      <trkpt lat="42.5048510" lon="-8.6497170">
        <ele>121.9</ele>
        <time>2021-05-22T08:43:27Z</time>
      </trkpt>
      <trkpt lat="42.5048510" lon="-8.6497170">
        <ele>121.9</ele>
        <time>2021-05-22T08:43:28Z</time>
      </trkpt>
      <trkpt lat="42.5048510" lon="-8.6497180">
        <ele>121.9</ele>
        <time>2021-05-22T08:43:29Z</time>
      </trkpt>
      <trkpt lat="42.5048510" lon="-8.6497180">
        <ele>121.9</ele>
        <time>2021-05-22T08:43:30Z</time>
      </trkpt>
      <trkpt lat="42.5048510" lon="-8.6497180">
        <ele>121.9</ele>
        <time>2021-05-22T08:43:31Z</time>
      </trkpt>
      <trkpt lat="42.5048510" lon="-8.6497180">
        <ele>121.9</ele>
        <time>2021-05-22T08:43:32Z</time>
      </trkpt>
      <trkpt lat="42.5048510" lon="-8.6497180">
        <ele>121.9</ele>
        <time>2021-05-22T08:43:33Z</time>
      </trkpt>
      <trkpt lat="42.5048510" lon="-8.6497180">
        <ele>121.9</ele>
        <time>2021-05-22T08:43:34Z</time>
      </trkpt>
      <trkpt lat="42.5048510" lon="-8.6497180">
        <ele>121.9</ele>
        <time>2021-05-22T08:43:35Z</time>
      </trkpt>
      <trkpt lat="42.5048510" lon="-8.6497180">
        <ele>121.9</ele>
        <time>2021-05-22T08:43:36Z</time>
      </trkpt>
      <trkpt lat="42.5048510" lon="-8.6497180">
        <ele>121.9</ele>
        <time>2021-05-22T08:43:37Z</time>
      </trkpt>
      <trkpt lat="42.5048510" lon="-8.6497180">
        <ele>121.9</ele>
        <time>2021-05-22T08:43:38Z</time>
      </trkpt>
      <trkpt lat="42.5048510" lon="-8.6497180">
        <ele>121.9</ele>
        <time>2021-05-22T08:43:39Z</time>
      </trkpt>
      <trkpt lat="42.5048510" lon="-8.6497180">
        <ele>121.9</ele>
        <time>2021-05-22T08:43:40Z</time>
      </trkpt>
      <trkpt lat="42.5048510" lon="-8.6497180">
        <ele>121.9</ele>
        <time>2021-05-22T08:43:41Z</time>
      </trkpt>
      <trkpt lat="42.5048510" lon="-8.6497180">
        <ele>121.9</ele>
        <time>2021-05-22T08:43:42Z</time>
      </trkpt>
      <trkpt lat="42.5048510" lon="-8.6497180">
        <ele>121.9</ele>
        <time>2021-05-22T08:43:43Z</time>
      </trkpt>
      <trkpt lat="42.5048510" lon="-8.6497180">
        <ele>121.9</ele>
        <time>2021-05-22T08:43:44Z</time>
      </trkpt>
      <trkpt lat="42.5048510" lon="-8.6497180">
        <ele>121.9</ele>
        <time>2021-05-22T08:43:45Z</time>
      </trkpt>
      <trkpt lat="42.5048510" lon="-8.6497180">
        <ele>121.9</ele>
        <time>2021-05-22T08:43:46Z</time>
      </trkpt>
      <trkpt lat="42.5048510" lon="-8.6497180">
        <ele>121.9</ele>
        <time>2021-05-22T08:43:47Z</time>
      </trkpt>
      <trkpt lat="42.5048510" lon="-8.6497180">
        <ele>121.9</ele>
        <time>2021-05-22T08:43:48Z</time>
      </trkpt>
      <trkpt lat="42.5048510" lon="-8.6497180">
        <ele>121.9</ele>
        <time>2021-05-22T08:43:49Z</time>
      </trkpt>
      <trkpt lat="42.5048510" lon="-8.6497180">
        <ele>121.9</ele>
        <time>2021-05-22T08:43:50Z</time>
      </trkpt>
      <trkpt lat="42.5048510" lon="-8.6497180">
        <ele>121.9</ele>
        <time>2021-05-22T08:43:51Z</time>
      </trkpt>
      <trkpt lat="42.5048510" lon="-8.6497180">
        <ele>121.9</ele>
        <time>2021-05-22T08:43:52Z</time>
      </trkpt>
      <trkpt lat="42.5048510" lon="-8.6497180">
        <ele>121.9</ele>
        <time>2021-05-22T08:43:53Z</time>
      </trkpt>
      <trkpt lat="42.5048510" lon="-8.6497180">
        <ele>121.9</ele>
        <time>2021-05-22T08:43:54Z</time>
      </trkpt>
      <trkpt lat="42.5048510" lon="-8.6497180">
        <ele>121.9</ele>
        <time>2021-05-22T08:43:55Z</time>
      </trkpt>
      <trkpt lat="42.5048510" lon="-8.6497180">
        <ele>121.9</ele>
        <time>2021-05-22T08:43:56Z</time>
      </trkpt>
      <trkpt lat="42.5048510" lon="-8.6497180">
        <ele>121.9</ele>
        <time>2021-05-22T08:43:57Z</time>
      </trkpt>
      <trkpt lat="42.5048510" lon="-8.6497180">
        <ele>121.9</ele>
        <time>2021-05-22T08:43:58Z</time>
      </trkpt>
      <trkpt lat="42.5048510" lon="-8.6497180">
        <ele>121.9</ele>
        <time>2021-05-22T08:43:59Z</time>
      </trkpt>
      <trkpt lat="42.5048510" lon="-8.6497180">
        <ele>121.9</ele>
        <time>2021-05-22T08:44:00Z</time>
      </trkpt>
      <trkpt lat="42.5048510" lon="-8.6497180">
        <ele>121.9</ele>
        <time>2021-05-22T08:44:01Z</time>
      </trkpt>
      <trkpt lat="42.5048510" lon="-8.6497180">
        <ele>121.9</ele>
        <time>2021-05-22T08:44:02Z</time>
      </trkpt>
      <trkpt lat="42.5048510" lon="-8.6497180">
        <ele>121.9</ele>
        <time>2021-05-22T08:44:03Z</time>
      </trkpt>
      <trkpt lat="42.5048510" lon="-8.6497180">
        <ele>121.9</ele>
        <time>2021-05-22T08:44:04Z</time>
      </trkpt>
      <trkpt lat="42.5048510" lon="-8.6497180">
        <ele>121.9</ele>
        <time>2021-05-22T08:44:05Z</time>
      </trkpt>
      <trkpt lat="42.5048510" lon="-8.6497180">
        <ele>121.9</ele>
        <time>2021-05-22T08:44:06Z</time>
      </trkpt>
      <trkpt lat="42.5048510" lon="-8.6497180">
        <ele>121.9</ele>
        <time>2021-05-22T08:44:07Z</time>
      </trkpt>
      <trkpt lat="42.5048510" lon="-8.6497190">
        <ele>121.9</ele>
        <time>2021-05-22T08:44:08Z</time>
      </trkpt>
      <trkpt lat="42.5048510" lon="-8.6497190">
        <ele>121.9</ele>
        <time>2021-05-22T08:44:09Z</time>
      </trkpt>
      <trkpt lat="42.5048510" lon="-8.6497190">
        <ele>121.9</ele>
        <time>2021-05-22T08:44:10Z</time>
      </trkpt>
      <trkpt lat="42.5048510" lon="-8.6497190">
        <ele>121.9</ele>
        <time>2021-05-22T08:44:11Z</time>
      </trkpt>
      <trkpt lat="42.5048510" lon="-8.6497190">
        <ele>121.9</ele>
        <time>2021-05-22T08:44:12Z</time>
      </trkpt>
      <trkpt lat="42.5048510" lon="-8.6497190">
        <ele>121.9</ele>
        <time>2021-05-22T08:44:13Z</time>
      </trkpt>
      <trkpt lat="42.5048510" lon="-8.6497190">
        <ele>121.9</ele>
        <time>2021-05-22T08:44:14Z</time>
      </trkpt>
      <trkpt lat="42.5048510" lon="-8.6497190">
        <ele>121.9</ele>
        <time>2021-05-22T08:44:15Z</time>
      </trkpt>
      <trkpt lat="42.5048510" lon="-8.6497190">
        <ele>121.9</ele>
        <time>2021-05-22T08:44:16Z</time>
      </trkpt>
      <trkpt lat="42.5048510" lon="-8.6497190">
        <ele>121.9</ele>
        <time>2021-05-22T08:44:17Z</time>
      </trkpt>
      <trkpt lat="42.5048510" lon="-8.6497190">
        <ele>121.9</ele>
        <time>2021-05-22T08:44:18Z</time>
      </trkpt>
      <trkpt lat="42.5048510" lon="-8.6497190">
        <ele>121.9</ele>
        <time>2021-05-22T08:44:19Z</time>
      </trkpt>
      <trkpt lat="42.5048510" lon="-8.6497190">
        <ele>121.9</ele>
        <time>2021-05-22T08:44:20Z</time>
      </trkpt>
      <trkpt lat="42.5048510" lon="-8.6497190">
        <ele>121.9</ele>
        <time>2021-05-22T08:44:21Z</time>
      </trkpt>
      <trkpt lat="42.5048510" lon="-8.6497190">
        <ele>121.9</ele>
        <time>2021-05-22T08:44:22Z</time>
      </trkpt>
      <trkpt lat="42.5048510" lon="-8.6497190">
        <ele>121.9</ele>
        <time>2021-05-22T08:44:23Z</time>
      </trkpt>
      <trkpt lat="42.5048510" lon="-8.6497190">
        <ele>121.9</ele>
        <time>2021-05-22T08:44:24Z</time>
      </trkpt>
      <trkpt lat="42.5048510" lon="-8.6497190">
        <ele>121.9</ele>
        <time>2021-05-22T08:44:25Z</time>
      </trkpt>
      <trkpt lat="42.5048510" lon="-8.6497190">
        <ele>121.9</ele>
        <time>2021-05-22T08:44:26Z</time>
      </trkpt>
      <trkpt lat="42.5048510" lon="-8.6497190">
        <ele>121.9</ele>
        <time>2021-05-22T08:44:27Z</time>
      </trkpt>
      <trkpt lat="42.5048510" lon="-8.6497190">
        <ele>121.9</ele>
        <time>2021-05-22T08:44:28Z</time>
      </trkpt>
      <trkpt lat="42.5048510" lon="-8.6497190">
        <ele>121.9</ele>
        <time>2021-05-22T08:44:29Z</time>
      </trkpt>
      <trkpt lat="42.5048510" lon="-8.6497190">
        <ele>121.9</ele>
        <time>2021-05-22T08:44:30Z</time>
      </trkpt>
      <trkpt lat="42.5048510" lon="-8.6497190">
        <ele>121.9</ele>
        <time>2021-05-22T08:44:31Z</time>
      </trkpt>
      <trkpt lat="42.5048510" lon="-8.6497190">
        <ele>121.9</ele>
        <time>2021-05-22T08:44:32Z</time>
      </trkpt>
      <trkpt lat="42.5048510" lon="-8.6497190">
        <ele>121.9</ele>
        <time>2021-05-22T08:44:33Z</time>
      </trkpt>
      <trkpt lat="42.5048510" lon="-8.6497190">
        <ele>121.9</ele>
        <time>2021-05-22T08:44:34Z</time>
      </trkpt>
      <trkpt lat="42.5048510" lon="-8.6497190">
        <ele>121.9</ele>
        <time>2021-05-22T08:44:35Z</time>
      </trkpt>
      <trkpt lat="42.5048510" lon="-8.6497190">
        <ele>121.9</ele>
        <time>2021-05-22T08:44:36Z</time>
      </trkpt>
      <trkpt lat="42.5048510" lon="-8.6497190">
        <ele>121.9</ele>
        <time>2021-05-22T08:44:37Z</time>
      </trkpt>
      <trkpt lat="42.5048510" lon="-8.6497190">
        <ele>121.9</ele>
        <time>2021-05-22T08:44:38Z</time>
      </trkpt>
      <trkpt lat="42.5048510" lon="-8.6497190">
        <ele>121.9</ele>
        <time>2021-05-22T08:44:39Z</time>
      </trkpt>
      <trkpt lat="42.5048510" lon="-8.6497190">
        <ele>121.9</ele>
        <time>2021-05-22T08:44:40Z</time>
      </trkpt>
      <trkpt lat="42.5048510" lon="-8.6497190">
        <ele>121.9</ele>
        <time>2021-05-22T08:44:41Z</time>
      </trkpt>
      <trkpt lat="42.5048510" lon="-8.6497190">
        <ele>121.9</ele>
        <time>2021-05-22T08:44:42Z</time>
      </trkpt>
      <trkpt lat="42.5048510" lon="-8.6497190">
        <ele>121.9</ele>
        <time>2021-05-22T08:44:43Z</time>
      </trkpt>
      <trkpt lat="42.5048510" lon="-8.6497190">
        <ele>121.9</ele>
        <time>2021-05-22T08:44:44Z</time>
      </trkpt>
      <trkpt lat="42.5048510" lon="-8.6497190">
        <ele>121.9</ele>
        <time>2021-05-22T08:44:45Z</time>
      </trkpt>
      <trkpt lat="42.5048510" lon="-8.6497200">
        <ele>121.9</ele>
        <time>2021-05-22T08:44:46Z</time>
      </trkpt>
      <trkpt lat="42.5048510" lon="-8.6497200">
        <ele>121.9</ele>
        <time>2021-05-22T08:44:47Z</time>
      </trkpt>
      <trkpt lat="42.5048510" lon="-8.6497200">
        <ele>121.9</ele>
        <time>2021-05-22T08:44:48Z</time>
      </trkpt>
      <trkpt lat="42.5048510" lon="-8.6497200">
        <ele>121.9</ele>
        <time>2021-05-22T08:44:49Z</time>
      </trkpt>
      <trkpt lat="42.5048510" lon="-8.6497200">
        <ele>121.9</ele>
        <time>2021-05-22T08:44:50Z</time>
      </trkpt>
      <trkpt lat="42.5048510" lon="-8.6497200">
        <ele>121.9</ele>
        <time>2021-05-22T08:44:51Z</time>
      </trkpt>
      <trkpt lat="42.5048510" lon="-8.6497200">
        <ele>121.9</ele>
        <time>2021-05-22T08:44:52Z</time>
      </trkpt>
      <trkpt lat="42.5048510" lon="-8.6497200">
        <ele>121.9</ele>
        <time>2021-05-22T08:44:53Z</time>
      </trkpt>
      <trkpt lat="42.5048510" lon="-8.6497200">
        <ele>121.9</ele>
        <time>2021-05-22T08:44:54Z</time>
      </trkpt>
      <trkpt lat="42.5048510" lon="-8.6497200">
        <ele>121.9</ele>
        <time>2021-05-22T08:44:55Z</time>
      </trkpt>
      <trkpt lat="42.5048510" lon="-8.6497200">
        <ele>121.9</ele>
        <time>2021-05-22T08:44:56Z</time>
      </trkpt>
      <trkpt lat="42.5048510" lon="-8.6497200">
        <ele>121.9</ele>
        <time>2021-05-22T08:44:57Z</time>
      </trkpt>
      <trkpt lat="42.5048510" lon="-8.6497200">
        <ele>121.9</ele>
        <time>2021-05-22T08:44:58Z</time>
      </trkpt>
      <trkpt lat="42.5048510" lon="-8.6497200">
        <ele>121.9</ele>
        <time>2021-05-22T08:44:59Z</time>
      </trkpt>
      <trkpt lat="42.5048510" lon="-8.6497200">
        <ele>121.9</ele>
        <time>2021-05-22T08:45:00Z</time>
      </trkpt>
      <trkpt lat="42.5048510" lon="-8.6497200">
        <ele>121.9</ele>
        <time>2021-05-22T08:45:01Z</time>
      </trkpt>
      <trkpt lat="42.5048510" lon="-8.6497200">
        <ele>121.9</ele>
        <time>2021-05-22T08:45:02Z</time>
      </trkpt>
      <trkpt lat="42.5048510" lon="-8.6497200">
        <ele>121.9</ele>
        <time>2021-05-22T08:45:03Z</time>
      </trkpt>
      <trkpt lat="42.5048510" lon="-8.6497200">
        <ele>121.9</ele>
        <time>2021-05-22T08:45:04Z</time>
      </trkpt>
      <trkpt lat="42.5048510" lon="-8.6497200">
        <ele>121.9</ele>
        <time>2021-05-22T08:45:05Z</time>
      </trkpt>
      <trkpt lat="42.5048510" lon="-8.6497200">
        <ele>121.9</ele>
        <time>2021-05-22T08:45:06Z</time>
      </trkpt>
      <trkpt lat="42.5048510" lon="-8.6497200">
        <ele>121.9</ele>
        <time>2021-05-22T08:45:07Z</time>
      </trkpt>
      <trkpt lat="42.5048510" lon="-8.6497200">
        <ele>121.9</ele>
        <time>2021-05-22T08:45:08Z</time>
      </trkpt>
      <trkpt lat="42.5048510" lon="-8.6497200">
        <ele>121.9</ele>
        <time>2021-05-22T08:45:09Z</time>
      </trkpt>
      <trkpt lat="42.5048510" lon="-8.6497200">
        <ele>121.9</ele>
        <time>2021-05-22T08:45:10Z</time>
      </trkpt>
      <trkpt lat="42.5048510" lon="-8.6497200">
        <ele>121.9</ele>
        <time>2021-05-22T08:45:11Z</time>
      </trkpt>
      <trkpt lat="42.5048510" lon="-8.6497200">
        <ele>121.9</ele>
        <time>2021-05-22T08:45:12Z</time>
      </trkpt>
      <trkpt lat="42.5048510" lon="-8.6497200">
        <ele>121.9</ele>
        <time>2021-05-22T08:45:13Z</time>
      </trkpt>
      <trkpt lat="42.5048510" lon="-8.6497200">
        <ele>121.9</ele>
        <time>2021-05-22T08:45:14Z</time>
      </trkpt>
      <trkpt lat="42.5048510" lon="-8.6497200">
        <ele>121.9</ele>
        <time>2021-05-22T08:45:15Z</time>
      </trkpt>
      <trkpt lat="42.5048510" lon="-8.6497200">
        <ele>121.9</ele>
        <time>2021-05-22T08:45:16Z</time>
      </trkpt>
      <trkpt lat="42.5048510" lon="-8.6497200">
        <ele>121.9</ele>
        <time>2021-05-22T08:45:17Z</time>
      </trkpt>
      <trkpt lat="42.5048510" lon="-8.6497200">
        <ele>121.9</ele>
        <time>2021-05-22T08:45:18Z</time>
      </trkpt>
      <trkpt lat="42.5048510" lon="-8.6497200">
        <ele>121.9</ele>
        <time>2021-05-22T08:45:19Z</time>
      </trkpt>
      <trkpt lat="42.5048510" lon="-8.6497200">
        <ele>121.9</ele>
        <time>2021-05-22T08:45:20Z</time>
      </trkpt>
      <trkpt lat="42.5048510" lon="-8.6497200">
        <ele>121.9</ele>
        <time>2021-05-22T08:45:21Z</time>
      </trkpt>
      <trkpt lat="42.5048510" lon="-8.6497200">
        <ele>121.9</ele>
        <time>2021-05-22T08:45:22Z</time>
      </trkpt>
      <trkpt lat="42.5048510" lon="-8.6497200">
        <ele>121.9</ele>
        <time>2021-05-22T08:45:23Z</time>
      </trkpt>
      <trkpt lat="42.5048510" lon="-8.6497200">
        <ele>121.9</ele>
        <time>2021-05-22T08:45:24Z</time>
      </trkpt>
      <trkpt lat="42.5048510" lon="-8.6497210">
        <ele>121.9</ele>
        <time>2021-05-22T08:45:25Z</time>
      </trkpt>
      <trkpt lat="42.5048510" lon="-8.6497210">
        <ele>121.9</ele>
        <time>2021-05-22T08:45:26Z</time>
      </trkpt>
      <trkpt lat="42.5048510" lon="-8.6497210">
        <ele>121.9</ele>
        <time>2021-05-22T08:45:27Z</time>
      </trkpt>
      <trkpt lat="42.5048510" lon="-8.6497210">
        <ele>121.9</ele>
        <time>2021-05-22T08:45:28Z</time>
      </trkpt>
      <trkpt lat="42.5048510" lon="-8.6497210">
        <ele>121.9</ele>
        <time>2021-05-22T08:45:29Z</time>
      </trkpt>
      <trkpt lat="42.5048510" lon="-8.6497210">
        <ele>121.9</ele>
        <time>2021-05-22T08:45:30Z</time>
      </trkpt>
      <trkpt lat="42.5048510" lon="-8.6497210">
        <ele>121.9</ele>
        <time>2021-05-22T08:45:31Z</time>
      </trkpt>
      <trkpt lat="42.5048510" lon="-8.6497210">
        <ele>121.9</ele>
        <time>2021-05-22T08:45:32Z</time>
      </trkpt>
      <trkpt lat="42.5048510" lon="-8.6497210">
        <ele>121.9</ele>
        <time>2021-05-22T08:45:33Z</time>
      </trkpt>
      <trkpt lat="42.5048510" lon="-8.6497210">
        <ele>121.9</ele>
        <time>2021-05-22T08:45:34Z</time>
      </trkpt>
      <trkpt lat="42.5048510" lon="-8.6497210">
        <ele>121.9</ele>
        <time>2021-05-22T08:45:35Z</time>
      </trkpt>
      <trkpt lat="42.5048510" lon="-8.6497210">
        <ele>121.9</ele>
        <time>2021-05-22T08:45:36Z</time>
      </trkpt>
      <trkpt lat="42.5048510" lon="-8.6497210">
        <ele>121.9</ele>
        <time>2021-05-22T08:45:37Z</time>
      </trkpt>
      <trkpt lat="42.5048510" lon="-8.6497210">
        <ele>121.9</ele>
        <time>2021-05-22T08:45:38Z</time>
      </trkpt>
      <trkpt lat="42.5048510" lon="-8.6497210">
        <ele>121.9</ele>
        <time>2021-05-22T08:45:39Z</time>
      </trkpt>
      <trkpt lat="42.5048510" lon="-8.6497210">
        <ele>121.9</ele>
        <time>2021-05-22T08:45:40Z</time>
      </trkpt>
      <trkpt lat="42.5048510" lon="-8.6497210">
        <ele>121.9</ele>
        <time>2021-05-22T08:45:41Z</time>
      </trkpt>
      <trkpt lat="42.5048510" lon="-8.6497210">
        <ele>121.9</ele>
        <time>2021-05-22T08:45:42Z</time>
      </trkpt>
      <trkpt lat="42.5048510" lon="-8.6497210">
        <ele>121.9</ele>
        <time>2021-05-22T08:45:43Z</time>
      </trkpt>
      <trkpt lat="42.5048510" lon="-8.6497210">
        <ele>121.9</ele>
        <time>2021-05-22T08:45:44Z</time>
      </trkpt>
      <trkpt lat="42.5048510" lon="-8.6497210">
        <ele>121.9</ele>
        <time>2021-05-22T08:45:45Z</time>
      </trkpt>
      <trkpt lat="42.5048510" lon="-8.6497210">
        <ele>121.9</ele>
        <time>2021-05-22T08:45:46Z</time>
      </trkpt>
      <trkpt lat="42.5048510" lon="-8.6497210">
        <ele>121.9</ele>
        <time>2021-05-22T08:45:47Z</time>
      </trkpt>
      <trkpt lat="42.5048510" lon="-8.6497210">
        <ele>121.9</ele>
        <time>2021-05-22T08:45:48Z</time>
      </trkpt>
      <trkpt lat="42.5048510" lon="-8.6497210">
        <ele>121.9</ele>
        <time>2021-05-22T08:45:49Z</time>
      </trkpt>
      <trkpt lat="42.5048510" lon="-8.6497210">
        <ele>121.9</ele>
        <time>2021-05-22T08:45:50Z</time>
      </trkpt>
      <trkpt lat="42.5048510" lon="-8.6497210">
        <ele>121.9</ele>
        <time>2021-05-22T08:45:51Z</time>
      </trkpt>
      <trkpt lat="42.5048510" lon="-8.6497210">
        <ele>121.9</ele>
        <time>2021-05-22T08:45:52Z</time>
      </trkpt>
      <trkpt lat="42.5048510" lon="-8.6497210">
        <ele>121.9</ele>
        <time>2021-05-22T08:45:53Z</time>
      </trkpt>
      <trkpt lat="42.5048510" lon="-8.6497210">
        <ele>121.9</ele>
        <time>2021-05-22T08:45:54Z</time>
      </trkpt>
      <trkpt lat="42.5048510" lon="-8.6497210">
        <ele>121.9</ele>
        <time>2021-05-22T08:45:55Z</time>
      </trkpt>
      <trkpt lat="42.5048510" lon="-8.6497210">
        <ele>121.9</ele>
        <time>2021-05-22T08:45:56Z</time>
      </trkpt>
      <trkpt lat="42.5048510" lon="-8.6497210">
        <ele>121.9</ele>
        <time>2021-05-22T08:45:57Z</time>
      </trkpt>
      <trkpt lat="42.5048510" lon="-8.6497210">
        <ele>121.9</ele>
        <time>2021-05-22T08:45:58Z</time>
      </trkpt>
      <trkpt lat="42.5048510" lon="-8.6497210">
        <ele>121.9</ele>
        <time>2021-05-22T08:45:59Z</time>
      </trkpt>
      <trkpt lat="42.5048510" lon="-8.6497210">
        <ele>121.9</ele>
        <time>2021-05-22T08:46:00Z</time>
      </trkpt>
      <trkpt lat="42.5048510" lon="-8.6497210">
        <ele>121.9</ele>
        <time>2021-05-22T08:46:01Z</time>
      </trkpt>
      <trkpt lat="42.5048510" lon="-8.6497210">
        <ele>121.9</ele>
        <time>2021-05-22T08:46:02Z</time>
      </trkpt>
      <trkpt lat="42.5048510" lon="-8.6497210">
        <ele>121.9</ele>
        <time>2021-05-22T08:46:03Z</time>
      </trkpt>
      <trkpt lat="42.5048510" lon="-8.6497220">
        <ele>121.9</ele>
        <time>2021-05-22T08:46:04Z</time>
      </trkpt>
      <trkpt lat="42.5048510" lon="-8.6497220">
        <ele>121.9</ele>
        <time>2021-05-22T08:46:05Z</time>
      </trkpt>
      <trkpt lat="42.5048510" lon="-8.6497220">
        <ele>121.9</ele>
        <time>2021-05-22T08:46:06Z</time>
      </trkpt>
      <trkpt lat="42.5048510" lon="-8.6497220">
        <ele>121.9</ele>
        <time>2021-05-22T08:46:07Z</time>
      </trkpt>
      <trkpt lat="42.5048510" lon="-8.6497220">
        <ele>121.9</ele>
        <time>2021-05-22T08:46:08Z</time>
      </trkpt>
      <trkpt lat="42.5048510" lon="-8.6497220">
        <ele>121.9</ele>
        <time>2021-05-22T08:46:09Z</time>
      </trkpt>
      <trkpt lat="42.5048510" lon="-8.6497220">
        <ele>121.9</ele>
        <time>2021-05-22T08:46:10Z</time>
      </trkpt>
      <trkpt lat="42.5048510" lon="-8.6497220">
        <ele>121.9</ele>
        <time>2021-05-22T08:46:11Z</time>
      </trkpt>
      <trkpt lat="42.5048510" lon="-8.6497220">
        <ele>121.9</ele>
        <time>2021-05-22T08:46:12Z</time>
      </trkpt>
      <trkpt lat="42.5048510" lon="-8.6497220">
        <ele>121.9</ele>
        <time>2021-05-22T08:46:13Z</time>
      </trkpt>
      <trkpt lat="42.5048510" lon="-8.6497220">
        <ele>121.9</ele>
        <time>2021-05-22T08:46:14Z</time>
      </trkpt>
      <trkpt lat="42.5048510" lon="-8.6497220">
        <ele>121.9</ele>
        <time>2021-05-22T08:46:15Z</time>
      </trkpt>
      <trkpt lat="42.5048510" lon="-8.6497220">
        <ele>121.9</ele>
        <time>2021-05-22T08:46:16Z</time>
      </trkpt>
      <trkpt lat="42.5048510" lon="-8.6497220">
        <ele>121.9</ele>
        <time>2021-05-22T08:46:17Z</time>
      </trkpt>
      <trkpt lat="42.5048510" lon="-8.6497220">
        <ele>121.9</ele>
        <time>2021-05-22T08:46:18Z</time>
      </trkpt>
      <trkpt lat="42.5048510" lon="-8.6497220">
        <ele>121.9</ele>
        <time>2021-05-22T08:46:19Z</time>
      </trkpt>
      <trkpt lat="42.5048510" lon="-8.6497220">
        <ele>121.9</ele>
        <time>2021-05-22T08:46:20Z</time>
      </trkpt>
      <trkpt lat="42.5048510" lon="-8.6497220">
        <ele>121.9</ele>
        <time>2021-05-22T08:46:21Z</time>
      </trkpt>
      <trkpt lat="42.5048510" lon="-8.6497220">
        <ele>121.9</ele>
        <time>2021-05-22T08:46:22Z</time>
      </trkpt>
      <trkpt lat="42.5048510" lon="-8.6497220">
        <ele>121.9</ele>
        <time>2021-05-22T08:46:23Z</time>
      </trkpt>
      <trkpt lat="42.5048510" lon="-8.6497220">
        <ele>121.9</ele>
        <time>2021-05-22T08:46:24Z</time>
      </trkpt>
      <trkpt lat="42.5048510" lon="-8.6497220">
        <ele>121.9</ele>
        <time>2021-05-22T08:46:25Z</time>
      </trkpt>
      <trkpt lat="42.5048510" lon="-8.6497220">
        <ele>121.9</ele>
        <time>2021-05-22T08:46:26Z</time>
      </trkpt>
      <trkpt lat="42.5048510" lon="-8.6497220">
        <ele>121.9</ele>
        <time>2021-05-22T08:46:27Z</time>
      </trkpt>
      <trkpt lat="42.5048510" lon="-8.6497220">
        <ele>121.9</ele>
        <time>2021-05-22T08:46:28Z</time>
      </trkpt>
      <trkpt lat="42.5048510" lon="-8.6497220">
        <ele>121.9</ele>
        <time>2021-05-22T08:46:29Z</time>
      </trkpt>
      <trkpt lat="42.5048510" lon="-8.6497220">
        <ele>121.9</ele>
        <time>2021-05-22T08:46:30Z</time>
      </trkpt>
      <trkpt lat="42.5048510" lon="-8.6497220">
        <ele>121.9</ele>
        <time>2021-05-22T08:46:31Z</time>
      </trkpt>
      <trkpt lat="42.5048510" lon="-8.6497220">
        <ele>121.9</ele>
        <time>2021-05-22T08:46:32Z</time>
      </trkpt>
      <trkpt lat="42.5048510" lon="-8.6497220">
        <ele>121.9</ele>
        <time>2021-05-22T08:46:33Z</time>
      </trkpt>
      <trkpt lat="42.5048510" lon="-8.6497220">
        <ele>121.9</ele>
        <time>2021-05-22T08:46:34Z</time>
      </trkpt>
      <trkpt lat="42.5048510" lon="-8.6497220">
        <ele>121.9</ele>
        <time>2021-05-22T08:46:35Z</time>
      </trkpt>
      <trkpt lat="42.5048510" lon="-8.6497220">
        <ele>121.9</ele>
        <time>2021-05-22T08:46:36Z</time>
      </trkpt>
      <trkpt lat="42.5048510" lon="-8.6497220">
        <ele>121.9</ele>
        <time>2021-05-22T08:46:37Z</time>
      </trkpt>
      <trkpt lat="42.5048510" lon="-8.6497220">
        <ele>121.9</ele>
        <time>2021-05-22T08:46:38Z</time>
      </trkpt>
      <trkpt lat="42.5048510" lon="-8.6497220">
        <ele>121.9</ele>
        <time>2021-05-22T08:46:39Z</time>
      </trkpt>
      <trkpt lat="42.5048510" lon="-8.6497220">
        <ele>121.9</ele>
        <time>2021-05-22T08:46:40Z</time>
      </trkpt>
      <trkpt lat="42.5048510" lon="-8.6497220">
        <ele>121.9</ele>
        <time>2021-05-22T08:46:41Z</time>
      </trkpt>
      <trkpt lat="42.5048510" lon="-8.6497230">
        <ele>121.9</ele>
        <time>2021-05-22T08:46:42Z</time>
      </trkpt>
      <trkpt lat="42.5048510" lon="-8.6497230">
        <ele>121.9</ele>
        <time>2021-05-22T08:46:43Z</time>
      </trkpt>
      <trkpt lat="42.5048510" lon="-8.6497230">
        <ele>121.9</ele>
        <time>2021-05-22T08:46:44Z</time>
      </trkpt>
      <trkpt lat="42.5048510" lon="-8.6497230">
        <ele>121.9</ele>
        <time>2021-05-22T08:46:45Z</time>
      </trkpt>
      <trkpt lat="42.5048510" lon="-8.6497230">
        <ele>121.9</ele>
        <time>2021-05-22T08:46:46Z</time>
      </trkpt>
      <trkpt lat="42.5048510" lon="-8.6497230">
        <ele>121.9</ele>
        <time>2021-05-22T08:46:47Z</time>
      </trkpt>
      <trkpt lat="42.5048510" lon="-8.6497230">
        <ele>121.9</ele>
        <time>2021-05-22T08:46:48Z</time>
      </trkpt>
      <trkpt lat="42.5048510" lon="-8.6497230">
        <ele>121.9</ele>
        <time>2021-05-22T08:46:49Z</time>
      </trkpt>
      <trkpt lat="42.5048510" lon="-8.6497230">
        <ele>121.9</ele>
        <time>2021-05-22T08:46:50Z</time>
      </trkpt>
      <trkpt lat="42.5048510" lon="-8.6497230">
        <ele>121.9</ele>
        <time>2021-05-22T08:46:51Z</time>
      </trkpt>
      <trkpt lat="42.5048510" lon="-8.6497230">
        <ele>121.9</ele>
        <time>2021-05-22T08:46:52Z</time>
      </trkpt>
      <trkpt lat="42.5048510" lon="-8.6497230">
        <ele>121.9</ele>
        <time>2021-05-22T08:46:53Z</time>
      </trkpt>
      <trkpt lat="42.5048510" lon="-8.6497230">
        <ele>121.9</ele>
        <time>2021-05-22T08:46:54Z</time>
      </trkpt>
      <trkpt lat="42.5048510" lon="-8.6497230">
        <ele>121.9</ele>
        <time>2021-05-22T08:46:55Z</time>
      </trkpt>
      <trkpt lat="42.5048510" lon="-8.6497230">
        <ele>121.9</ele>
        <time>2021-05-22T08:46:56Z</time>
      </trkpt>
      <trkpt lat="42.5048510" lon="-8.6497230">
        <ele>121.9</ele>
        <time>2021-05-22T08:46:57Z</time>
      </trkpt>
      <trkpt lat="42.5048510" lon="-8.6497230">
        <ele>121.9</ele>
        <time>2021-05-22T08:46:58Z</time>
      </trkpt>
      <trkpt lat="42.5048510" lon="-8.6497230">
        <ele>121.9</ele>
        <time>2021-05-22T08:46:59Z</time>
      </trkpt>
      <trkpt lat="42.5048510" lon="-8.6497230">
        <ele>121.9</ele>
        <time>2021-05-22T08:47:00Z</time>
      </trkpt>
      <trkpt lat="42.5048510" lon="-8.6497230">
        <ele>121.9</ele>
        <time>2021-05-22T08:47:01Z</time>
      </trkpt>
      <trkpt lat="42.5048510" lon="-8.6497230">
        <ele>121.9</ele>
        <time>2021-05-22T08:47:02Z</time>
      </trkpt>
      <trkpt lat="42.5048510" lon="-8.6497230">
        <ele>121.9</ele>
        <time>2021-05-22T08:47:03Z</time>
      </trkpt>
      <trkpt lat="42.5048510" lon="-8.6497230">
        <ele>121.9</ele>
        <time>2021-05-22T08:47:04Z</time>
      </trkpt>
      <trkpt lat="42.5048510" lon="-8.6497230">
        <ele>121.9</ele>
        <time>2021-05-22T08:47:05Z</time>
      </trkpt>
      <trkpt lat="42.5048510" lon="-8.6497230">
        <ele>121.9</ele>
        <time>2021-05-22T08:47:06Z</time>
      </trkpt>
      <trkpt lat="42.5048510" lon="-8.6497230">
        <ele>121.9</ele>
        <time>2021-05-22T08:47:07Z</time>
      </trkpt>
      <trkpt lat="42.5048510" lon="-8.6497230">
        <ele>121.9</ele>
        <time>2021-05-22T08:47:08Z</time>
      </trkpt>
      <trkpt lat="42.5048510" lon="-8.6497230">
        <ele>121.9</ele>
        <time>2021-05-22T08:47:09Z</time>
      </trkpt>
      <trkpt lat="42.5048510" lon="-8.6497230">
        <ele>121.9</ele>
        <time>2021-05-22T08:47:10Z</time>
      </trkpt>
      <trkpt lat="42.5048510" lon="-8.6497230">
        <ele>121.9</ele>
        <time>2021-05-22T08:47:11Z</time>
      </trkpt>
      <trkpt lat="42.5048510" lon="-8.6497230">
        <ele>121.9</ele>
        <time>2021-05-22T08:47:12Z</time>
      </trkpt>
      <trkpt lat="42.5048510" lon="-8.6497230">
        <ele>121.9</ele>
        <time>2021-05-22T08:47:13Z</time>
      </trkpt>
      <trkpt lat="42.5048510" lon="-8.6497230">
        <ele>121.9</ele>
        <time>2021-05-22T08:47:14Z</time>
      </trkpt>
      <trkpt lat="42.5048510" lon="-8.6497230">
        <ele>121.9</ele>
        <time>2021-05-22T08:47:15Z</time>
      </trkpt>
      <trkpt lat="42.5048510" lon="-8.6497230">
        <ele>121.9</ele>
        <time>2021-05-22T08:47:16Z</time>
      </trkpt>
      <trkpt lat="42.5048510" lon="-8.6497230">
        <ele>121.9</ele>
        <time>2021-05-22T08:47:17Z</time>
      </trkpt>
      <trkpt lat="42.5048510" lon="-8.6497230">
        <ele>121.9</ele>
        <time>2021-05-22T08:47:18Z</time>
      </trkpt>
      <trkpt lat="42.5048510" lon="-8.6497230">
        <ele>121.9</ele>
        <time>2021-05-22T08:47:19Z</time>
      </trkpt>
      <trkpt lat="42.5048510" lon="-8.6497230">
        <ele>121.9</ele>
        <time>2021-05-22T08:47:20Z</time>
      </trkpt>
      <trkpt lat="42.5048510" lon="-8.6497240">
        <ele>121.9</ele>
        <time>2021-05-22T08:47:21Z</time>
      </trkpt>
      <trkpt lat="42.5048510" lon="-8.6497240">
        <ele>121.9</ele>
        <time>2021-05-22T08:47:22Z</time>
      </trkpt>
      <trkpt lat="42.5048510" lon="-8.6497240">
        <ele>121.9</ele>
        <time>2021-05-22T08:47:23Z</time>
      </trkpt>
      <trkpt lat="42.5048510" lon="-8.6497240">
        <ele>121.9</ele>
        <time>2021-05-22T08:47:24Z</time>
      </trkpt>
      <trkpt lat="42.5048510" lon="-8.6497240">
        <ele>121.9</ele>
        <time>2021-05-22T08:47:25Z</time>
      </trkpt>
      <trkpt lat="42.5048510" lon="-8.6497240">
        <ele>121.9</ele>
        <time>2021-05-22T08:47:26Z</time>
      </trkpt>
      <trkpt lat="42.5048510" lon="-8.6497240">
        <ele>121.9</ele>
        <time>2021-05-22T08:47:27Z</time>
      </trkpt>
      <trkpt lat="42.5048510" lon="-8.6497240">
        <ele>121.9</ele>
        <time>2021-05-22T08:47:28Z</time>
      </trkpt>
      <trkpt lat="42.5048510" lon="-8.6497240">
        <ele>121.9</ele>
        <time>2021-05-22T08:47:29Z</time>
      </trkpt>
      <trkpt lat="42.5048510" lon="-8.6497240">
        <ele>121.9</ele>
        <time>2021-05-22T08:47:30Z</time>
      </trkpt>
      <trkpt lat="42.5048510" lon="-8.6497240">
        <ele>121.9</ele>
        <time>2021-05-22T08:47:31Z</time>
      </trkpt>
      <trkpt lat="42.5048510" lon="-8.6497240">
        <ele>121.9</ele>
        <time>2021-05-22T08:47:32Z</time>
      </trkpt>
      <trkpt lat="42.5048510" lon="-8.6497240">
        <ele>121.9</ele>
        <time>2021-05-22T08:47:33Z</time>
      </trkpt>
      <trkpt lat="42.5048510" lon="-8.6497240">
        <ele>121.9</ele>
        <time>2021-05-22T08:47:34Z</time>
      </trkpt>
      <trkpt lat="42.5048510" lon="-8.6497240">
        <ele>121.9</ele>
        <time>2021-05-22T08:47:35Z</time>
      </trkpt>
      <trkpt lat="42.5048510" lon="-8.6497240">
        <ele>121.9</ele>
        <time>2021-05-22T08:47:36Z</time>
      </trkpt>
      <trkpt lat="42.5048510" lon="-8.6497240">
        <ele>121.9</ele>
        <time>2021-05-22T08:47:37Z</time>
      </trkpt>
      <trkpt lat="42.5048510" lon="-8.6497240">
        <ele>121.9</ele>
        <time>2021-05-22T08:47:38Z</time>
      </trkpt>
      <trkpt lat="42.5048510" lon="-8.6497240">
        <ele>121.9</ele>
        <time>2021-05-22T08:47:39Z</time>
      </trkpt>
      <trkpt lat="42.5048520" lon="-8.6497240">
        <ele>121.9</ele>
        <time>2021-05-22T08:47:40Z</time>
      </trkpt>
      <trkpt lat="42.5048520" lon="-8.6497240">
        <ele>121.9</ele>
        <time>2021-05-22T08:47:41Z</time>
      </trkpt>
      <trkpt lat="42.5048520" lon="-8.6497240">
        <ele>121.9</ele>
        <time>2021-05-22T08:47:42Z</time>
      </trkpt>
      <trkpt lat="42.5048520" lon="-8.6497240">
        <ele>121.9</ele>
        <time>2021-05-22T08:47:43Z</time>
      </trkpt>
      <trkpt lat="42.5048520" lon="-8.6497240">
        <ele>121.9</ele>
        <time>2021-05-22T08:47:44Z</time>
      </trkpt>
      <trkpt lat="42.5048520" lon="-8.6497240">
        <ele>121.9</ele>
        <time>2021-05-22T08:47:45Z</time>
      </trkpt>
      <trkpt lat="42.5048520" lon="-8.6497240">
        <ele>121.9</ele>
        <time>2021-05-22T08:47:46Z</time>
      </trkpt>
      <trkpt lat="42.5048520" lon="-8.6497240">
        <ele>121.9</ele>
        <time>2021-05-22T08:47:47Z</time>
      </trkpt>
      <trkpt lat="42.5048520" lon="-8.6497240">
        <ele>121.9</ele>
        <time>2021-05-22T08:47:48Z</time>
      </trkpt>
      <trkpt lat="42.5048520" lon="-8.6497240">
        <ele>121.9</ele>
        <time>2021-05-22T08:47:49Z</time>
      </trkpt>
      <trkpt lat="42.5048520" lon="-8.6497240">
        <ele>121.9</ele>
        <time>2021-05-22T08:47:50Z</time>
      </trkpt>
      <trkpt lat="42.5048520" lon="-8.6497240">
        <ele>121.9</ele>
        <time>2021-05-22T08:47:51Z</time>
      </trkpt>
      <trkpt lat="42.5048520" lon="-8.6497240">
        <ele>121.9</ele>
        <time>2021-05-22T08:47:52Z</time>
      </trkpt>
      <trkpt lat="42.5048520" lon="-8.6497240">
        <ele>121.9</ele>
        <time>2021-05-22T08:47:53Z</time>
      </trkpt>
      <trkpt lat="42.5048520" lon="-8.6497240">
        <ele>121.9</ele>
        <time>2021-05-22T08:47:54Z</time>
      </trkpt>
      <trkpt lat="42.5048520" lon="-8.6497240">
        <ele>121.9</ele>
        <time>2021-05-22T08:47:55Z</time>
      </trkpt>
      <trkpt lat="42.5048520" lon="-8.6497240">
        <ele>121.9</ele>
        <time>2021-05-22T08:47:56Z</time>
      </trkpt>
      <trkpt lat="42.5048520" lon="-8.6497240">
        <ele>121.9</ele>
        <time>2021-05-22T08:47:57Z</time>
      </trkpt>
      <trkpt lat="42.5048520" lon="-8.6497240">
        <ele>121.9</ele>
        <time>2021-05-22T08:47:58Z</time>
      </trkpt>
      <trkpt lat="42.5048520" lon="-8.6497240">
        <ele>121.9</ele>
        <time>2021-05-22T08:47:59Z</time>
      </trkpt>
      <trkpt lat="42.5048520" lon="-8.6497250">
        <ele>121.9</ele>
        <time>2021-05-22T08:48:00Z</time>
      </trkpt>
      <trkpt lat="42.5048520" lon="-8.6497250">
        <ele>121.9</ele>
        <time>2021-05-22T08:48:01Z</time>
      </trkpt>
      <trkpt lat="42.5048520" lon="-8.6497250">
        <ele>121.9</ele>
        <time>2021-05-22T08:48:02Z</time>
      </trkpt>
      <trkpt lat="42.5048520" lon="-8.6497250">
        <ele>121.9</ele>
        <time>2021-05-22T08:48:03Z</time>
      </trkpt>
      <trkpt lat="42.5048520" lon="-8.6497250">
        <ele>121.9</ele>
        <time>2021-05-22T08:48:04Z</time>
      </trkpt>
      <trkpt lat="42.5048520" lon="-8.6497250">
        <ele>121.9</ele>
        <time>2021-05-22T08:48:05Z</time>
      </trkpt>
      <trkpt lat="42.5048520" lon="-8.6497250">
        <ele>121.9</ele>
        <time>2021-05-22T08:48:06Z</time>
      </trkpt>
      <trkpt lat="42.5048520" lon="-8.6497250">
        <ele>121.9</ele>
        <time>2021-05-22T08:48:07Z</time>
      </trkpt>
      <trkpt lat="42.5048520" lon="-8.6497250">
        <ele>121.9</ele>
        <time>2021-05-22T08:48:08Z</time>
      </trkpt>
      <trkpt lat="42.5048520" lon="-8.6497250">
        <ele>121.9</ele>
        <time>2021-05-22T08:48:09Z</time>
      </trkpt>
      <trkpt lat="42.5048520" lon="-8.6497250">
        <ele>121.9</ele>
        <time>2021-05-22T08:48:10Z</time>
      </trkpt>
      <trkpt lat="42.5048520" lon="-8.6497250">
        <ele>121.9</ele>
        <time>2021-05-22T08:48:11Z</time>
      </trkpt>
      <trkpt lat="42.5048520" lon="-8.6497250">
        <ele>121.9</ele>
        <time>2021-05-22T08:48:12Z</time>
      </trkpt>
      <trkpt lat="42.5048520" lon="-8.6497250">
        <ele>121.9</ele>
        <time>2021-05-22T08:48:13Z</time>
      </trkpt>
      <trkpt lat="42.5048520" lon="-8.6497250">
        <ele>121.9</ele>
        <time>2021-05-22T08:48:14Z</time>
      </trkpt>
      <trkpt lat="42.5048520" lon="-8.6497250">
        <ele>121.9</ele>
        <time>2021-05-22T08:48:15Z</time>
      </trkpt>
      <trkpt lat="42.5048520" lon="-8.6497250">
        <ele>121.9</ele>
        <time>2021-05-22T08:48:16Z</time>
      </trkpt>
      <trkpt lat="42.5048520" lon="-8.6497250">
        <ele>121.9</ele>
        <time>2021-05-22T08:48:17Z</time>
      </trkpt>
      <trkpt lat="42.5048520" lon="-8.6497250">
        <ele>121.9</ele>
        <time>2021-05-22T08:48:18Z</time>
      </trkpt>
      <trkpt lat="42.5048520" lon="-8.6497250">
        <ele>121.9</ele>
        <time>2021-05-22T08:48:19Z</time>
      </trkpt>
      <trkpt lat="42.5048520" lon="-8.6497250">
        <ele>121.9</ele>
        <time>2021-05-22T08:48:20Z</time>
      </trkpt>
      <trkpt lat="42.5048520" lon="-8.6497250">
        <ele>121.9</ele>
        <time>2021-05-22T08:48:21Z</time>
      </trkpt>
      <trkpt lat="42.5048520" lon="-8.6497250">
        <ele>121.9</ele>
        <time>2021-05-22T08:48:22Z</time>
      </trkpt>
      <trkpt lat="42.5048520" lon="-8.6497250">
        <ele>121.9</ele>
        <time>2021-05-22T08:48:23Z</time>
      </trkpt>
      <trkpt lat="42.5048520" lon="-8.6497250">
        <ele>121.9</ele>
        <time>2021-05-22T08:48:24Z</time>
      </trkpt>
      <trkpt lat="42.5048520" lon="-8.6497250">
        <ele>121.9</ele>
        <time>2021-05-22T08:48:25Z</time>
      </trkpt>
      <trkpt lat="42.5048520" lon="-8.6497250">
        <ele>121.9</ele>
        <time>2021-05-22T08:48:26Z</time>
      </trkpt>
      <trkpt lat="42.5048520" lon="-8.6497250">
        <ele>121.9</ele>
        <time>2021-05-22T08:48:27Z</time>
      </trkpt>
      <trkpt lat="42.5048520" lon="-8.6497250">
        <ele>121.9</ele>
        <time>2021-05-22T08:48:28Z</time>
      </trkpt>
      <trkpt lat="42.5048520" lon="-8.6497250">
        <ele>121.9</ele>
        <time>2021-05-22T08:48:29Z</time>
      </trkpt>
      <trkpt lat="42.5048520" lon="-8.6497250">
        <ele>121.9</ele>
        <time>2021-05-22T08:48:30Z</time>
      </trkpt>
      <trkpt lat="42.5048520" lon="-8.6497250">
        <ele>121.9</ele>
        <time>2021-05-22T08:48:31Z</time>
      </trkpt>
      <trkpt lat="42.5048520" lon="-8.6497250">
        <ele>121.9</ele>
        <time>2021-05-22T08:48:32Z</time>
      </trkpt>
      <trkpt lat="42.5048520" lon="-8.6497250">
        <ele>121.9</ele>
        <time>2021-05-22T08:48:33Z</time>
      </trkpt>
      <trkpt lat="42.5048520" lon="-8.6497250">
        <ele>121.9</ele>
        <time>2021-05-22T08:48:34Z</time>
      </trkpt>
      <trkpt lat="42.5048520" lon="-8.6497250">
        <ele>121.8</ele>
        <time>2021-05-22T08:48:35Z</time>
      </trkpt>
      <trkpt lat="42.5048520" lon="-8.6497250">
        <ele>121.8</ele>
        <time>2021-05-22T08:48:36Z</time>
      </trkpt>
      <trkpt lat="42.5048520" lon="-8.6497250">
        <ele>121.8</ele>
        <time>2021-05-22T08:48:37Z</time>
      </trkpt>
      <trkpt lat="42.5048520" lon="-8.6497250">
        <ele>121.8</ele>
        <time>2021-05-22T08:48:38Z</time>
      </trkpt>
      <trkpt lat="42.5048520" lon="-8.6497260">
        <ele>121.8</ele>
        <time>2021-05-22T08:48:39Z</time>
      </trkpt>
      <trkpt lat="42.5048520" lon="-8.6497260">
        <ele>121.8</ele>
        <time>2021-05-22T08:48:40Z</time>
      </trkpt>
      <trkpt lat="42.5048520" lon="-8.6497260">
        <ele>121.8</ele>
        <time>2021-05-22T08:48:41Z</time>
      </trkpt>
      <trkpt lat="42.5048520" lon="-8.6497260">
        <ele>121.8</ele>
        <time>2021-05-22T08:48:42Z</time>
      </trkpt>
      <trkpt lat="42.5048520" lon="-8.6497260">
        <ele>121.8</ele>
        <time>2021-05-22T08:48:43Z</time>
      </trkpt>
      <trkpt lat="42.5048520" lon="-8.6497260">
        <ele>121.8</ele>
        <time>2021-05-22T08:48:44Z</time>
      </trkpt>
      <trkpt lat="42.5048520" lon="-8.6497260">
        <ele>121.8</ele>
        <time>2021-05-22T08:48:45Z</time>
      </trkpt>
      <trkpt lat="42.5048520" lon="-8.6497260">
        <ele>121.8</ele>
        <time>2021-05-22T08:48:46Z</time>
      </trkpt>
      <trkpt lat="42.5048520" lon="-8.6497260">
        <ele>121.8</ele>
        <time>2021-05-22T08:48:47Z</time>
      </trkpt>
      <trkpt lat="42.5048520" lon="-8.6497260">
        <ele>121.8</ele>
        <time>2021-05-22T08:48:48Z</time>
      </trkpt>
      <trkpt lat="42.5048520" lon="-8.6497260">
        <ele>121.8</ele>
        <time>2021-05-22T08:48:49Z</time>
      </trkpt>
      <trkpt lat="42.5048520" lon="-8.6497260">
        <ele>121.8</ele>
        <time>2021-05-22T08:48:50Z</time>
      </trkpt>
      <trkpt lat="42.5048520" lon="-8.6497260">
        <ele>121.8</ele>
        <time>2021-05-22T08:48:51Z</time>
      </trkpt>
      <trkpt lat="42.5048520" lon="-8.6497260">
        <ele>121.8</ele>
        <time>2021-05-22T08:48:52Z</time>
      </trkpt>
      <trkpt lat="42.5048520" lon="-8.6497260">
        <ele>121.8</ele>
        <time>2021-05-22T08:48:53Z</time>
      </trkpt>
      <trkpt lat="42.5048520" lon="-8.6497260">
        <ele>121.8</ele>
        <time>2021-05-22T08:48:54Z</time>
      </trkpt>
      <trkpt lat="42.5048520" lon="-8.6497260">
        <ele>121.8</ele>
        <time>2021-05-22T08:48:55Z</time>
      </trkpt>
      <trkpt lat="42.5048520" lon="-8.6497260">
        <ele>121.8</ele>
        <time>2021-05-22T08:48:56Z</time>
      </trkpt>
      <trkpt lat="42.5048520" lon="-8.6497260">
        <ele>121.8</ele>
        <time>2021-05-22T08:48:57Z</time>
      </trkpt>
      <trkpt lat="42.5048520" lon="-8.6497260">
        <ele>121.8</ele>
        <time>2021-05-22T08:48:58Z</time>
      </trkpt>
      <trkpt lat="42.5048520" lon="-8.6497260">
        <ele>121.8</ele>
        <time>2021-05-22T08:48:59Z</time>
      </trkpt>
      <trkpt lat="42.5048520" lon="-8.6497260">
        <ele>121.8</ele>
        <time>2021-05-22T08:49:00Z</time>
      </trkpt>
      <trkpt lat="42.5048520" lon="-8.6497260">
        <ele>121.8</ele>
        <time>2021-05-22T08:49:01Z</time>
      </trkpt>
      <trkpt lat="42.5048520" lon="-8.6497260">
        <ele>121.8</ele>
        <time>2021-05-22T08:49:02Z</time>
      </trkpt>
      <trkpt lat="42.5048520" lon="-8.6497260">
        <ele>121.8</ele>
        <time>2021-05-22T08:49:03Z</time>
      </trkpt>
      <trkpt lat="42.5048520" lon="-8.6497260">
        <ele>121.8</ele>
        <time>2021-05-22T08:49:04Z</time>
      </trkpt>
      <trkpt lat="42.5048520" lon="-8.6497260">
        <ele>121.8</ele>
        <time>2021-05-22T08:49:05Z</time>
      </trkpt>
      <trkpt lat="42.5048520" lon="-8.6497260">
        <ele>121.8</ele>
        <time>2021-05-22T08:49:06Z</time>
      </trkpt>
      <trkpt lat="42.5048520" lon="-8.6497260">
        <ele>121.8</ele>
        <time>2021-05-22T08:49:07Z</time>
      </trkpt>
      <trkpt lat="42.5048520" lon="-8.6497260">
        <ele>121.8</ele>
        <time>2021-05-22T08:49:08Z</time>
      </trkpt>
      <trkpt lat="42.5048520" lon="-8.6497260">
        <ele>121.8</ele>
        <time>2021-05-22T08:49:09Z</time>
      </trkpt>
      <trkpt lat="42.5048520" lon="-8.6497260">
        <ele>121.8</ele>
        <time>2021-05-22T08:49:10Z</time>
      </trkpt>
      <trkpt lat="42.5048520" lon="-8.6497260">
        <ele>121.8</ele>
        <time>2021-05-22T08:49:11Z</time>
      </trkpt>
      <trkpt lat="42.5048520" lon="-8.6497260">
        <ele>121.8</ele>
        <time>2021-05-22T08:49:12Z</time>
      </trkpt>
      <trkpt lat="42.5048520" lon="-8.6497260">
        <ele>121.8</ele>
        <time>2021-05-22T08:49:13Z</time>
      </trkpt>
      <trkpt lat="42.5048520" lon="-8.6497260">
        <ele>121.8</ele>
        <time>2021-05-22T08:49:14Z</time>
      </trkpt>
      <trkpt lat="42.5048520" lon="-8.6497260">
        <ele>121.8</ele>
        <time>2021-05-22T08:49:15Z</time>
      </trkpt>
      <trkpt lat="42.5048520" lon="-8.6497260">
        <ele>121.8</ele>
        <time>2021-05-22T08:49:16Z</time>
      </trkpt>
      <trkpt lat="42.5048520" lon="-8.6497270">
        <ele>121.8</ele>
        <time>2021-05-22T08:49:17Z</time>
      </trkpt>
      <trkpt lat="42.5048520" lon="-8.6497270">
        <ele>121.8</ele>
        <time>2021-05-22T08:49:18Z</time>
      </trkpt>
      <trkpt lat="42.5048520" lon="-8.6497270">
        <ele>121.8</ele>
        <time>2021-05-22T08:49:19Z</time>
      </trkpt>
      <trkpt lat="42.5048520" lon="-8.6497270">
        <ele>121.8</ele>
        <time>2021-05-22T08:49:20Z</time>
      </trkpt>
      <trkpt lat="42.5048520" lon="-8.6497270">
        <ele>121.8</ele>
        <time>2021-05-22T08:49:21Z</time>
      </trkpt>
      <trkpt lat="42.5048520" lon="-8.6497270">
        <ele>121.8</ele>
        <time>2021-05-22T08:49:22Z</time>
      </trkpt>
      <trkpt lat="42.5048520" lon="-8.6497270">
        <ele>121.8</ele>
        <time>2021-05-22T08:49:23Z</time>
      </trkpt>
      <trkpt lat="42.5048520" lon="-8.6497270">
        <ele>121.8</ele>
        <time>2021-05-22T08:49:24Z</time>
      </trkpt>
      <trkpt lat="42.5048520" lon="-8.6497270">
        <ele>121.8</ele>
        <time>2021-05-22T08:49:25Z</time>
      </trkpt>
      <trkpt lat="42.5048520" lon="-8.6497270">
        <ele>121.8</ele>
        <time>2021-05-22T08:49:26Z</time>
      </trkpt>
      <trkpt lat="42.5048520" lon="-8.6497270">
        <ele>121.8</ele>
        <time>2021-05-22T08:49:27Z</time>
      </trkpt>
      <trkpt lat="42.5048520" lon="-8.6497270">
        <ele>121.8</ele>
        <time>2021-05-22T08:49:28Z</time>
      </trkpt>
      <trkpt lat="42.5048520" lon="-8.6497270">
        <ele>121.8</ele>
        <time>2021-05-22T08:49:29Z</time>
      </trkpt>
      <trkpt lat="42.5048520" lon="-8.6497270">
        <ele>121.8</ele>
        <time>2021-05-22T08:49:30Z</time>
      </trkpt>
      <trkpt lat="42.5048520" lon="-8.6497270">
        <ele>121.8</ele>
        <time>2021-05-22T08:49:31Z</time>
      </trkpt>
      <trkpt lat="42.5048520" lon="-8.6497270">
        <ele>121.8</ele>
        <time>2021-05-22T08:49:32Z</time>
      </trkpt>
      <trkpt lat="42.5048520" lon="-8.6497270">
        <ele>121.8</ele>
        <time>2021-05-22T08:49:33Z</time>
      </trkpt>
      <trkpt lat="42.5048520" lon="-8.6497270">
        <ele>121.8</ele>
        <time>2021-05-22T08:49:34Z</time>
      </trkpt>
      <trkpt lat="42.5048520" lon="-8.6497270">
        <ele>121.8</ele>
        <time>2021-05-22T08:49:35Z</time>
      </trkpt>
      <trkpt lat="42.5048520" lon="-8.6497270">
        <ele>121.8</ele>
        <time>2021-05-22T08:49:36Z</time>
      </trkpt>
      <trkpt lat="42.5048520" lon="-8.6497270">
        <ele>121.8</ele>
        <time>2021-05-22T08:49:37Z</time>
      </trkpt>
      <trkpt lat="42.5048520" lon="-8.6497270">
        <ele>121.8</ele>
        <time>2021-05-22T08:49:38Z</time>
      </trkpt>
      <trkpt lat="42.5048520" lon="-8.6497270">
        <ele>121.8</ele>
        <time>2021-05-22T08:49:39Z</time>
      </trkpt>
      <trkpt lat="42.5048520" lon="-8.6497270">
        <ele>121.8</ele>
        <time>2021-05-22T08:49:40Z</time>
      </trkpt>
      <trkpt lat="42.5048520" lon="-8.6497270">
        <ele>121.8</ele>
        <time>2021-05-22T08:49:41Z</time>
      </trkpt>
      <trkpt lat="42.5048520" lon="-8.6497270">
        <ele>121.8</ele>
        <time>2021-05-22T08:49:42Z</time>
      </trkpt>
      <trkpt lat="42.5048520" lon="-8.6497270">
        <ele>121.8</ele>
        <time>2021-05-22T08:49:43Z</time>
      </trkpt>
      <trkpt lat="42.5048520" lon="-8.6497270">
        <ele>121.8</ele>
        <time>2021-05-22T08:49:44Z</time>
      </trkpt>
      <trkpt lat="42.5048520" lon="-8.6497270">
        <ele>121.8</ele>
        <time>2021-05-22T08:49:45Z</time>
      </trkpt>
      <trkpt lat="42.5048520" lon="-8.6497270">
        <ele>121.8</ele>
        <time>2021-05-22T08:49:46Z</time>
      </trkpt>
      <trkpt lat="42.5048520" lon="-8.6497270">
        <ele>121.8</ele>
        <time>2021-05-22T08:49:47Z</time>
      </trkpt>
      <trkpt lat="42.5048520" lon="-8.6497270">
        <ele>121.8</ele>
        <time>2021-05-22T08:49:48Z</time>
      </trkpt>
      <trkpt lat="42.5048520" lon="-8.6497270">
        <ele>121.8</ele>
        <time>2021-05-22T08:49:49Z</time>
      </trkpt>
      <trkpt lat="42.5048520" lon="-8.6497270">
        <ele>121.8</ele>
        <time>2021-05-22T08:49:50Z</time>
      </trkpt>
      <trkpt lat="42.5048520" lon="-8.6497270">
        <ele>121.8</ele>
        <time>2021-05-22T08:49:51Z</time>
      </trkpt>
      <trkpt lat="42.5048520" lon="-8.6497270">
        <ele>121.8</ele>
        <time>2021-05-22T08:49:52Z</time>
      </trkpt>
      <trkpt lat="42.5048520" lon="-8.6497270">
        <ele>121.8</ele>
        <time>2021-05-22T08:49:53Z</time>
      </trkpt>
      <trkpt lat="42.5048520" lon="-8.6497270">
        <ele>121.8</ele>
        <time>2021-05-22T08:49:54Z</time>
      </trkpt>
      <trkpt lat="42.5048520" lon="-8.6497270">
        <ele>121.8</ele>
        <time>2021-05-22T08:49:55Z</time>
      </trkpt>
      <trkpt lat="42.5048520" lon="-8.6497280">
        <ele>121.8</ele>
        <time>2021-05-22T08:49:56Z</time>
      </trkpt>
      <trkpt lat="42.5048520" lon="-8.6497280">
        <ele>121.8</ele>
        <time>2021-05-22T08:49:57Z</time>
      </trkpt>
      <trkpt lat="42.5048520" lon="-8.6497280">
        <ele>121.8</ele>
        <time>2021-05-22T08:49:58Z</time>
      </trkpt>
      <trkpt lat="42.5048520" lon="-8.6497280">
        <ele>121.8</ele>
        <time>2021-05-22T08:49:59Z</time>
      </trkpt>
      <trkpt lat="42.5048520" lon="-8.6497280">
        <ele>121.8</ele>
        <time>2021-05-22T08:50:00Z</time>
      </trkpt>
      <trkpt lat="42.5048520" lon="-8.6497280">
        <ele>121.8</ele>
        <time>2021-05-22T08:50:01Z</time>
      </trkpt>
      <trkpt lat="42.5048520" lon="-8.6497280">
        <ele>121.8</ele>
        <time>2021-05-22T08:50:02Z</time>
      </trkpt>
      <trkpt lat="42.5048520" lon="-8.6497280">
        <ele>121.8</ele>
        <time>2021-05-22T08:50:03Z</time>
      </trkpt>
      <trkpt lat="42.5048520" lon="-8.6497280">
        <ele>121.8</ele>
        <time>2021-05-22T08:50:04Z</time>
      </trkpt>
      <trkpt lat="42.5048520" lon="-8.6497280">
        <ele>121.8</ele>
        <time>2021-05-22T08:50:05Z</time>
      </trkpt>
      <trkpt lat="42.5048520" lon="-8.6497280">
        <ele>121.8</ele>
        <time>2021-05-22T08:50:06Z</time>
      </trkpt>
      <trkpt lat="42.5048520" lon="-8.6497280">
        <ele>121.8</ele>
        <time>2021-05-22T08:50:07Z</time>
      </trkpt>
      <trkpt lat="42.5048520" lon="-8.6497280">
        <ele>121.8</ele>
        <time>2021-05-22T08:50:08Z</time>
      </trkpt>
      <trkpt lat="42.5048520" lon="-8.6497280">
        <ele>121.8</ele>
        <time>2021-05-22T08:50:09Z</time>
      </trkpt>
      <trkpt lat="42.5048520" lon="-8.6497280">
        <ele>121.8</ele>
        <time>2021-05-22T08:50:10Z</time>
      </trkpt>
      <trkpt lat="42.5048520" lon="-8.6497280">
        <ele>121.8</ele>
        <time>2021-05-22T08:50:11Z</time>
      </trkpt>
      <trkpt lat="42.5048520" lon="-8.6497280">
        <ele>121.8</ele>
        <time>2021-05-22T08:50:12Z</time>
      </trkpt>
      <trkpt lat="42.5048520" lon="-8.6497280">
        <ele>121.8</ele>
        <time>2021-05-22T08:50:13Z</time>
      </trkpt>
      <trkpt lat="42.5048520" lon="-8.6497280">
        <ele>121.8</ele>
        <time>2021-05-22T08:50:14Z</time>
      </trkpt>
      <trkpt lat="42.5048520" lon="-8.6497280">
        <ele>121.8</ele>
        <time>2021-05-22T08:50:15Z</time>
      </trkpt>
      <trkpt lat="42.5048520" lon="-8.6497280">
        <ele>121.8</ele>
        <time>2021-05-22T08:50:16Z</time>
      </trkpt>
      <trkpt lat="42.5048520" lon="-8.6497280">
        <ele>121.8</ele>
        <time>2021-05-22T08:50:17Z</time>
      </trkpt>
      <trkpt lat="42.5048520" lon="-8.6497280">
        <ele>121.8</ele>
        <time>2021-05-22T08:50:18Z</time>
      </trkpt>
      <trkpt lat="42.5048520" lon="-8.6497280">
        <ele>121.8</ele>
        <time>2021-05-22T08:50:19Z</time>
      </trkpt>
      <trkpt lat="42.5048520" lon="-8.6497280">
        <ele>121.8</ele>
        <time>2021-05-22T08:50:20Z</time>
      </trkpt>
      <trkpt lat="42.5048520" lon="-8.6497280">
        <ele>121.8</ele>
        <time>2021-05-22T08:50:21Z</time>
      </trkpt>
      <trkpt lat="42.5048520" lon="-8.6497280">
        <ele>121.8</ele>
        <time>2021-05-22T08:50:22Z</time>
      </trkpt>
      <trkpt lat="42.5048520" lon="-8.6497280">
        <ele>121.8</ele>
        <time>2021-05-22T08:50:23Z</time>
      </trkpt>
      <trkpt lat="42.5048520" lon="-8.6497280">
        <ele>121.8</ele>
        <time>2021-05-22T08:50:24Z</time>
      </trkpt>
      <trkpt lat="42.5048520" lon="-8.6497280">
        <ele>121.8</ele>
        <time>2021-05-22T08:50:25Z</time>
      </trkpt>
      <trkpt lat="42.5048520" lon="-8.6497280">
        <ele>121.8</ele>
        <time>2021-05-22T08:50:26Z</time>
      </trkpt>
      <trkpt lat="42.5048520" lon="-8.6497280">
        <ele>121.8</ele>
        <time>2021-05-22T08:50:27Z</time>
      </trkpt>
      <trkpt lat="42.5048520" lon="-8.6497280">
        <ele>121.8</ele>
        <time>2021-05-22T08:50:28Z</time>
      </trkpt>
      <trkpt lat="42.5048520" lon="-8.6497280">
        <ele>121.8</ele>
        <time>2021-05-22T08:50:29Z</time>
      </trkpt>
      <trkpt lat="42.5048520" lon="-8.6497280">
        <ele>121.8</ele>
        <time>2021-05-22T08:50:30Z</time>
      </trkpt>
      <trkpt lat="42.5048520" lon="-8.6497280">
        <ele>121.8</ele>
        <time>2021-05-22T08:50:31Z</time>
      </trkpt>
      <trkpt lat="42.5048520" lon="-8.6497280">
        <ele>121.8</ele>
        <time>2021-05-22T08:50:32Z</time>
      </trkpt>
      <trkpt lat="42.5048520" lon="-8.6497280">
        <ele>121.8</ele>
        <time>2021-05-22T08:50:33Z</time>
      </trkpt>
      <trkpt lat="42.5048520" lon="-8.6497280">
        <ele>121.8</ele>
        <time>2021-05-22T08:50:34Z</time>
      </trkpt>
      <trkpt lat="42.5048520" lon="-8.6497290">
        <ele>121.8</ele>
        <time>2021-05-22T08:50:35Z</time>
      </trkpt>
      <trkpt lat="42.5048520" lon="-8.6497290">
        <ele>121.8</ele>
        <time>2021-05-22T08:50:36Z</time>
      </trkpt>
      <trkpt lat="42.5048520" lon="-8.6497290">
        <ele>121.8</ele>
        <time>2021-05-22T08:50:37Z</time>
      </trkpt>
      <trkpt lat="42.5048520" lon="-8.6497290">
        <ele>121.8</ele>
        <time>2021-05-22T08:50:38Z</time>
      </trkpt>
      <trkpt lat="42.5048520" lon="-8.6497290">
        <ele>121.8</ele>
        <time>2021-05-22T08:50:39Z</time>
      </trkpt>
      <trkpt lat="42.5048520" lon="-8.6497290">
        <ele>121.8</ele>
        <time>2021-05-22T08:50:40Z</time>
      </trkpt>
      <trkpt lat="42.5048520" lon="-8.6497290">
        <ele>121.8</ele>
        <time>2021-05-22T08:50:41Z</time>
      </trkpt>
      <trkpt lat="42.5048520" lon="-8.6497290">
        <ele>121.8</ele>
        <time>2021-05-22T08:50:42Z</time>
      </trkpt>
      <trkpt lat="42.5048520" lon="-8.6497290">
        <ele>121.8</ele>
        <time>2021-05-22T08:50:43Z</time>
      </trkpt>
      <trkpt lat="42.5048520" lon="-8.6497290">
        <ele>121.8</ele>
        <time>2021-05-22T08:50:44Z</time>
      </trkpt>
      <trkpt lat="42.5048520" lon="-8.6497290">
        <ele>121.8</ele>
        <time>2021-05-22T08:50:45Z</time>
      </trkpt>
      <trkpt lat="42.5048520" lon="-8.6497290">
        <ele>121.8</ele>
        <time>2021-05-22T08:50:46Z</time>
      </trkpt>
      <trkpt lat="42.5048520" lon="-8.6497290">
        <ele>121.8</ele>
        <time>2021-05-22T08:50:47Z</time>
      </trkpt>
      <trkpt lat="42.5048520" lon="-8.6497290">
        <ele>121.8</ele>
        <time>2021-05-22T08:50:48Z</time>
      </trkpt>
      <trkpt lat="42.5048520" lon="-8.6497290">
        <ele>121.8</ele>
        <time>2021-05-22T08:50:49Z</time>
      </trkpt>
      <trkpt lat="42.5048520" lon="-8.6497290">
        <ele>121.8</ele>
        <time>2021-05-22T08:50:50Z</time>
      </trkpt>
      <trkpt lat="42.5048520" lon="-8.6497290">
        <ele>121.8</ele>
        <time>2021-05-22T08:50:51Z</time>
      </trkpt>
      <trkpt lat="42.5048520" lon="-8.6497290">
        <ele>121.8</ele>
        <time>2021-05-22T08:50:52Z</time>
      </trkpt>
      <trkpt lat="42.5048520" lon="-8.6497290">
        <ele>121.8</ele>
        <time>2021-05-22T08:50:53Z</time>
      </trkpt>
      <trkpt lat="42.5048520" lon="-8.6497290">
        <ele>121.8</ele>
        <time>2021-05-22T08:50:54Z</time>
      </trkpt>
      <trkpt lat="42.5048520" lon="-8.6497290">
        <ele>121.8</ele>
        <time>2021-05-22T08:50:55Z</time>
      </trkpt>
      <trkpt lat="42.5048520" lon="-8.6497290">
        <ele>121.8</ele>
        <time>2021-05-22T08:50:56Z</time>
      </trkpt>
      <trkpt lat="42.5048520" lon="-8.6497290">
        <ele>121.8</ele>
        <time>2021-05-22T08:50:57Z</time>
      </trkpt>
      <trkpt lat="42.5048520" lon="-8.6497290">
        <ele>121.8</ele>
        <time>2021-05-22T08:50:58Z</time>
      </trkpt>
      <trkpt lat="42.5048520" lon="-8.6497290">
        <ele>121.8</ele>
        <time>2021-05-22T08:50:59Z</time>
      </trkpt>
      <trkpt lat="42.5048520" lon="-8.6497290">
        <ele>121.8</ele>
        <time>2021-05-22T08:51:00Z</time>
      </trkpt>
      <trkpt lat="42.5048520" lon="-8.6497290">
        <ele>121.8</ele>
        <time>2021-05-22T08:51:01Z</time>
      </trkpt>
      <trkpt lat="42.5048520" lon="-8.6497290">
        <ele>121.8</ele>
        <time>2021-05-22T08:51:02Z</time>
      </trkpt>
      <trkpt lat="42.5048520" lon="-8.6497290">
        <ele>121.8</ele>
        <time>2021-05-22T08:51:03Z</time>
      </trkpt>
      <trkpt lat="42.5048520" lon="-8.6497290">
        <ele>121.8</ele>
        <time>2021-05-22T08:51:04Z</time>
      </trkpt>
      <trkpt lat="42.5048520" lon="-8.6497290">
        <ele>121.8</ele>
        <time>2021-05-22T08:51:05Z</time>
      </trkpt>
      <trkpt lat="42.5048520" lon="-8.6497290">
        <ele>121.8</ele>
        <time>2021-05-22T08:51:06Z</time>
      </trkpt>
      <trkpt lat="42.5048520" lon="-8.6497290">
        <ele>121.8</ele>
        <time>2021-05-22T08:51:07Z</time>
      </trkpt>
      <trkpt lat="42.5048520" lon="-8.6497290">
        <ele>121.8</ele>
        <time>2021-05-22T08:51:08Z</time>
      </trkpt>
      <trkpt lat="42.5048520" lon="-8.6497290">
        <ele>121.8</ele>
        <time>2021-05-22T08:51:09Z</time>
      </trkpt>
      <trkpt lat="42.5048520" lon="-8.6497290">
        <ele>121.8</ele>
        <time>2021-05-22T08:51:10Z</time>
      </trkpt>
      <trkpt lat="42.5048520" lon="-8.6497290">
        <ele>121.8</ele>
        <time>2021-05-22T08:51:11Z</time>
      </trkpt>
      <trkpt lat="42.5048520" lon="-8.6497290">
        <ele>121.8</ele>
        <time>2021-05-22T08:51:12Z</time>
      </trkpt>
      <trkpt lat="42.5048520" lon="-8.6497300">
        <ele>121.8</ele>
        <time>2021-05-22T08:51:13Z</time>
      </trkpt>
      <trkpt lat="42.5048520" lon="-8.6497300">
        <ele>121.8</ele>
        <time>2021-05-22T08:51:14Z</time>
      </trkpt>
      <trkpt lat="42.5048520" lon="-8.6497300">
        <ele>121.8</ele>
        <time>2021-05-22T08:51:15Z</time>
      </trkpt>
      <trkpt lat="42.5048520" lon="-8.6497300">
        <ele>121.8</ele>
        <time>2021-05-22T08:51:16Z</time>
      </trkpt>
      <trkpt lat="42.5048520" lon="-8.6497300">
        <ele>121.8</ele>
        <time>2021-05-22T08:51:17Z</time>
      </trkpt>
      <trkpt lat="42.5048520" lon="-8.6497300">
        <ele>121.8</ele>
        <time>2021-05-22T08:51:18Z</time>
      </trkpt>
      <trkpt lat="42.5048520" lon="-8.6497300">
        <ele>121.8</ele>
        <time>2021-05-22T08:51:19Z</time>
      </trkpt>
      <trkpt lat="42.5048520" lon="-8.6497300">
        <ele>121.8</ele>
        <time>2021-05-22T08:51:20Z</time>
      </trkpt>
      <trkpt lat="42.5048520" lon="-8.6497300">
        <ele>121.8</ele>
        <time>2021-05-22T08:51:21Z</time>
      </trkpt>
      <trkpt lat="42.5048520" lon="-8.6497300">
        <ele>121.8</ele>
        <time>2021-05-22T08:51:22Z</time>
      </trkpt>
      <trkpt lat="42.5048520" lon="-8.6497300">
        <ele>121.8</ele>
        <time>2021-05-22T08:51:23Z</time>
      </trkpt>
      <trkpt lat="42.5048520" lon="-8.6497300">
        <ele>121.8</ele>
        <time>2021-05-22T08:51:24Z</time>
      </trkpt>
      <trkpt lat="42.5048520" lon="-8.6497300">
        <ele>121.8</ele>
        <time>2021-05-22T08:51:25Z</time>
      </trkpt>
      <trkpt lat="42.5048520" lon="-8.6497300">
        <ele>121.8</ele>
        <time>2021-05-22T08:51:26Z</time>
      </trkpt>
      <trkpt lat="42.5048520" lon="-8.6497300">
        <ele>121.8</ele>
        <time>2021-05-22T08:51:27Z</time>
      </trkpt>
      <trkpt lat="42.5048520" lon="-8.6497300">
        <ele>121.8</ele>
        <time>2021-05-22T08:51:28Z</time>
      </trkpt>
      <trkpt lat="42.5048520" lon="-8.6497300">
        <ele>121.8</ele>
        <time>2021-05-22T08:51:29Z</time>
      </trkpt>
      <trkpt lat="42.5048520" lon="-8.6497300">
        <ele>121.8</ele>
        <time>2021-05-22T08:51:30Z</time>
      </trkpt>
      <trkpt lat="42.5048520" lon="-8.6497300">
        <ele>121.8</ele>
        <time>2021-05-22T08:51:31Z</time>
      </trkpt>
      <trkpt lat="42.5048520" lon="-8.6497300">
        <ele>121.8</ele>
        <time>2021-05-22T08:51:32Z</time>
      </trkpt>
      <trkpt lat="42.5048520" lon="-8.6497300">
        <ele>121.8</ele>
        <time>2021-05-22T08:51:33Z</time>
      </trkpt>
      <trkpt lat="42.5048520" lon="-8.6497300">
        <ele>121.8</ele>
        <time>2021-05-22T08:51:34Z</time>
      </trkpt>
      <trkpt lat="42.5048520" lon="-8.6497300">
        <ele>121.8</ele>
        <time>2021-05-22T08:51:35Z</time>
      </trkpt>
      <trkpt lat="42.5048520" lon="-8.6497300">
        <ele>121.8</ele>
        <time>2021-05-22T08:51:36Z</time>
      </trkpt>
      <trkpt lat="42.5048520" lon="-8.6497300">
        <ele>121.8</ele>
        <time>2021-05-22T08:51:37Z</time>
      </trkpt>
      <trkpt lat="42.5048520" lon="-8.6497300">
        <ele>121.8</ele>
        <time>2021-05-22T08:51:38Z</time>
      </trkpt>
      <trkpt lat="42.5048520" lon="-8.6497300">
        <ele>121.8</ele>
        <time>2021-05-22T08:51:39Z</time>
      </trkpt>
      <trkpt lat="42.5048520" lon="-8.6497300">
        <ele>121.8</ele>
        <time>2021-05-22T08:51:40Z</time>
      </trkpt>
      <trkpt lat="42.5048520" lon="-8.6497300">
        <ele>121.8</ele>
        <time>2021-05-22T08:51:41Z</time>
      </trkpt>
      <trkpt lat="42.5048520" lon="-8.6497300">
        <ele>121.8</ele>
        <time>2021-05-22T08:51:42Z</time>
      </trkpt>
      <trkpt lat="42.5048520" lon="-8.6497300">
        <ele>121.8</ele>
        <time>2021-05-22T08:51:43Z</time>
      </trkpt>
      <trkpt lat="42.5048520" lon="-8.6497300">
        <ele>121.8</ele>
        <time>2021-05-22T08:51:44Z</time>
      </trkpt>
      <trkpt lat="42.5048520" lon="-8.6497300">
        <ele>121.8</ele>
        <time>2021-05-22T08:51:45Z</time>
      </trkpt>
      <trkpt lat="42.5048520" lon="-8.6497300">
        <ele>121.8</ele>
        <time>2021-05-22T08:51:46Z</time>
      </trkpt>
      <trkpt lat="42.5048520" lon="-8.6497300">
        <ele>121.8</ele>
        <time>2021-05-22T08:51:47Z</time>
      </trkpt>
      <trkpt lat="42.5048520" lon="-8.6497300">
        <ele>121.8</ele>
        <time>2021-05-22T08:51:48Z</time>
      </trkpt>
      <trkpt lat="42.5048520" lon="-8.6497300">
        <ele>121.8</ele>
        <time>2021-05-22T08:51:49Z</time>
      </trkpt>
      <trkpt lat="42.5048520" lon="-8.6497300">
        <ele>121.8</ele>
        <time>2021-05-22T08:51:50Z</time>
      </trkpt>
      <trkpt lat="42.5048520" lon="-8.6497300">
        <ele>121.8</ele>
        <time>2021-05-22T08:51:51Z</time>
      </trkpt>
      <trkpt lat="42.5048520" lon="-8.6497310">
        <ele>121.8</ele>
        <time>2021-05-22T08:51:52Z</time>
      </trkpt>
      <trkpt lat="42.5048520" lon="-8.6497310">
        <ele>121.8</ele>
        <time>2021-05-22T08:52:00Z</time>
      </trkpt>
      <trkpt lat="42.5048520" lon="-8.6497310">
        <ele>121.8</ele>
        <time>2021-05-22T08:52:03Z</time>
      </trkpt>
      <trkpt lat="42.5048520" lon="-8.6497310">
        <ele>121.8</ele>
        <time>2021-05-22T08:52:04Z</time>
      </trkpt>
      <trkpt lat="42.5048520" lon="-8.6497310">
        <ele>121.8</ele>
        <time>2021-05-22T08:52:05Z</time>
      </trkpt>
      <trkpt lat="42.5048520" lon="-8.6497310">
        <ele>121.8</ele>
        <time>2021-05-22T08:52:06Z</time>
      </trkpt>
      <trkpt lat="42.5048520" lon="-8.6497310">
        <ele>121.8</ele>
        <time>2021-05-22T08:52:07Z</time>
      </trkpt>
      <trkpt lat="42.5048520" lon="-8.6497310">
        <ele>121.8</ele>
        <time>2021-05-22T08:52:08Z</time>
      </trkpt>
      <trkpt lat="42.5048520" lon="-8.6497310">
        <ele>121.8</ele>
        <time>2021-05-22T08:52:09Z</time>
      </trkpt>
      <trkpt lat="42.5048520" lon="-8.6497310">
        <ele>121.8</ele>
        <time>2021-05-22T08:52:10Z</time>
      </trkpt>
      <trkpt lat="42.5048520" lon="-8.6497310">
        <ele>121.8</ele>
        <time>2021-05-22T08:52:11Z</time>
      </trkpt>
      <trkpt lat="42.5048520" lon="-8.6497310">
        <ele>121.8</ele>
        <time>2021-05-22T08:52:12Z</time>
      </trkpt>
      <trkpt lat="42.5048520" lon="-8.6497310">
        <ele>121.8</ele>
        <time>2021-05-22T08:52:13Z</time>
      </trkpt>
      <trkpt lat="42.5048520" lon="-8.6497310">
        <ele>121.8</ele>
        <time>2021-05-22T08:52:14Z</time>
      </trkpt>
      <trkpt lat="42.5048520" lon="-8.6497310">
        <ele>121.8</ele>
        <time>2021-05-22T08:52:15Z</time>
      </trkpt>
      <trkpt lat="42.5048520" lon="-8.6497310">
        <ele>121.8</ele>
        <time>2021-05-22T08:52:16Z</time>
      </trkpt>
      <trkpt lat="42.5048520" lon="-8.6497310">
        <ele>121.8</ele>
        <time>2021-05-22T08:52:17Z</time>
      </trkpt>
      <trkpt lat="42.5048520" lon="-8.6497310">
        <ele>121.8</ele>
        <time>2021-05-22T08:52:18Z</time>
      </trkpt>
      <trkpt lat="42.5048520" lon="-8.6497310">
        <ele>121.8</ele>
        <time>2021-05-22T08:52:20Z</time>
      </trkpt>
      <trkpt lat="42.5048520" lon="-8.6497310">
        <ele>121.8</ele>
        <time>2021-05-22T08:52:20Z</time>
      </trkpt>
      <trkpt lat="42.5048520" lon="-8.6497310">
        <ele>121.8</ele>
        <time>2021-05-22T08:52:21Z</time>
      </trkpt>
      <trkpt lat="42.5048520" lon="-8.6497310">
        <ele>121.8</ele>
        <time>2021-05-22T08:52:22Z</time>
      </trkpt>
      <trkpt lat="42.5048520" lon="-8.6497310">
        <ele>121.8</ele>
        <time>2021-05-22T08:52:23Z</time>
      </trkpt>
      <trkpt lat="42.5048530" lon="-8.6497310">
        <ele>121.8</ele>
        <time>2021-05-22T08:52:24Z</time>
      </trkpt>
      <trkpt lat="42.5048530" lon="-8.6497310">
        <ele>121.8</ele>
        <time>2021-05-22T08:52:25Z</time>
      </trkpt>
      <trkpt lat="42.5048530" lon="-8.6497310">
        <ele>121.8</ele>
        <time>2021-05-22T08:52:26Z</time>
      </trkpt>
      <trkpt lat="42.5048530" lon="-8.6497310">
        <ele>121.8</ele>
        <time>2021-05-22T08:52:27Z</time>
      </trkpt>
      <trkpt lat="42.5048530" lon="-8.6497310">
        <ele>121.8</ele>
        <time>2021-05-22T08:52:28Z</time>
      </trkpt>
      <trkpt lat="42.5048530" lon="-8.6497310">
        <ele>121.8</ele>
        <time>2021-05-22T08:52:29Z</time>
      </trkpt>
      <trkpt lat="42.5048540" lon="-8.6497300">
        <ele>121.8</ele>
        <time>2021-05-22T08:52:30Z</time>
      </trkpt>
      <trkpt lat="42.5048540" lon="-8.6497300">
        <ele>121.8</ele>
        <time>2021-05-22T08:52:31Z</time>
      </trkpt>
      <trkpt lat="42.5048540" lon="-8.6497300">
        <ele>121.8</ele>
        <time>2021-05-22T08:52:32Z</time>
      </trkpt>
      <trkpt lat="42.5048540" lon="-8.6497300">
        <ele>121.8</ele>
        <time>2021-05-22T08:52:33Z</time>
      </trkpt>
      <trkpt lat="42.5048540" lon="-8.6497300">
        <ele>121.8</ele>
        <time>2021-05-22T08:52:34Z</time>
      </trkpt>
      <trkpt lat="42.5048540" lon="-8.6497300">
        <ele>121.8</ele>
        <time>2021-05-22T08:52:35Z</time>
      </trkpt>
      <trkpt lat="42.5048540" lon="-8.6497300">
        <ele>121.8</ele>
        <time>2021-05-22T08:52:36Z</time>
      </trkpt>
      <trkpt lat="42.5048550" lon="-8.6497300">
        <ele>121.8</ele>
        <time>2021-05-22T08:52:37Z</time>
      </trkpt>
      <trkpt lat="42.5048550" lon="-8.6497300">
        <ele>121.8</ele>
        <time>2021-05-22T08:52:38Z</time>
      </trkpt>
      <trkpt lat="42.5048550" lon="-8.6497300">
        <ele>121.8</ele>
        <time>2021-05-22T08:52:39Z</time>
      </trkpt>
      <trkpt lat="42.5048550" lon="-8.6497300">
        <ele>121.8</ele>
        <time>2021-05-22T08:52:40Z</time>
      </trkpt>
      <trkpt lat="42.5048550" lon="-8.6497300">
        <ele>121.8</ele>
        <time>2021-05-22T08:52:41Z</time>
      </trkpt>
      <trkpt lat="42.5048550" lon="-8.6497300">
        <ele>121.8</ele>
        <time>2021-05-22T08:52:42Z</time>
      </trkpt>
      <trkpt lat="42.5048560" lon="-8.6497300">
        <ele>121.8</ele>
        <time>2021-05-22T08:52:43Z</time>
      </trkpt>
      <trkpt lat="42.5048560" lon="-8.6497300">
        <ele>121.8</ele>
        <time>2021-05-22T08:52:44Z</time>
      </trkpt>
      <trkpt lat="42.5048560" lon="-8.6497300">
        <ele>121.8</ele>
        <time>2021-05-22T08:52:45Z</time>
      </trkpt>
      <trkpt lat="42.5048560" lon="-8.6497300">
        <ele>121.8</ele>
        <time>2021-05-22T08:52:46Z</time>
      </trkpt>
      <trkpt lat="42.5048560" lon="-8.6497300">
        <ele>121.8</ele>
        <time>2021-05-22T08:52:47Z</time>
      </trkpt>
      <trkpt lat="42.5048560" lon="-8.6497300">
        <ele>121.8</ele>
        <time>2021-05-22T08:52:48Z</time>
      </trkpt>
      <trkpt lat="42.5048560" lon="-8.6497290">
        <ele>121.8</ele>
        <time>2021-05-22T08:52:49Z</time>
      </trkpt>
      <trkpt lat="42.5048570" lon="-8.6497290">
        <ele>121.8</ele>
        <time>2021-05-22T08:52:50Z</time>
      </trkpt>
      <trkpt lat="42.5048570" lon="-8.6497290">
        <ele>121.8</ele>
        <time>2021-05-22T08:52:51Z</time>
      </trkpt>
      <trkpt lat="42.5048570" lon="-8.6497290">
        <ele>121.8</ele>
        <time>2021-05-22T08:52:52Z</time>
      </trkpt>
      <trkpt lat="42.5048570" lon="-8.6497290">
        <ele>121.8</ele>
        <time>2021-05-22T08:52:53Z</time>
      </trkpt>
      <trkpt lat="42.5048570" lon="-8.6497290">
        <ele>121.8</ele>
        <time>2021-05-22T08:52:54Z</time>
      </trkpt>
      <trkpt lat="42.5048570" lon="-8.6497290">
        <ele>121.8</ele>
        <time>2021-05-22T08:52:55Z</time>
      </trkpt>
      <trkpt lat="42.5048580" lon="-8.6497290">
        <ele>121.7</ele>
        <time>2021-05-22T08:52:56Z</time>
      </trkpt>
      <trkpt lat="42.5048580" lon="-8.6497290">
        <ele>121.7</ele>
        <time>2021-05-22T08:52:57Z</time>
      </trkpt>
      <trkpt lat="42.5048580" lon="-8.6497290">
        <ele>121.7</ele>
        <time>2021-05-22T08:52:58Z</time>
      </trkpt>
      <trkpt lat="42.5048580" lon="-8.6497290">
        <ele>121.7</ele>
        <time>2021-05-22T08:52:59Z</time>
      </trkpt>
      <trkpt lat="42.5048580" lon="-8.6497290">
        <ele>121.7</ele>
        <time>2021-05-22T08:53:00Z</time>
      </trkpt>
      <trkpt lat="42.5048580" lon="-8.6497290">
        <ele>121.7</ele>
        <time>2021-05-22T08:53:01Z</time>
      </trkpt>
      <trkpt lat="42.5048590" lon="-8.6497290">
        <ele>121.7</ele>
        <time>2021-05-22T08:53:02Z</time>
      </trkpt>
      <trkpt lat="42.5048590" lon="-8.6497290">
        <ele>121.7</ele>
        <time>2021-05-22T08:53:03Z</time>
      </trkpt>
      <trkpt lat="42.5048590" lon="-8.6497290">
        <ele>121.7</ele>
        <time>2021-05-22T08:53:04Z</time>
      </trkpt>
      <trkpt lat="42.5048590" lon="-8.6497290">
        <ele>121.7</ele>
        <time>2021-05-22T08:53:05Z</time>
      </trkpt>
      <trkpt lat="42.5048590" lon="-8.6497290">
        <ele>121.7</ele>
        <time>2021-05-22T08:53:06Z</time>
      </trkpt>
      <trkpt lat="42.5048590" lon="-8.6497280">
        <ele>121.7</ele>
        <time>2021-05-22T08:53:07Z</time>
      </trkpt>
      <trkpt lat="42.5048590" lon="-8.6497280">
        <ele>121.7</ele>
        <time>2021-05-22T08:53:08Z</time>
      </trkpt>
      <trkpt lat="42.5048600" lon="-8.6497280">
        <ele>121.7</ele>
        <time>2021-05-22T08:53:09Z</time>
      </trkpt>
      <trkpt lat="42.5048600" lon="-8.6497280">
        <ele>121.7</ele>
        <time>2021-05-22T08:53:10Z</time>
      </trkpt>
      <trkpt lat="42.5048600" lon="-8.6497280">
        <ele>121.7</ele>
        <time>2021-05-22T08:53:11Z</time>
      </trkpt>
      <trkpt lat="42.5048600" lon="-8.6497280">
        <ele>121.7</ele>
        <time>2021-05-22T08:53:12Z</time>
      </trkpt>
      <trkpt lat="42.5048600" lon="-8.6497280">
        <ele>121.7</ele>
        <time>2021-05-22T08:53:13Z</time>
      </trkpt>
      <trkpt lat="42.5048600" lon="-8.6497280">
        <ele>121.7</ele>
        <time>2021-05-22T08:53:14Z</time>
      </trkpt>
      <trkpt lat="42.5048610" lon="-8.6497280">
        <ele>121.7</ele>
        <time>2021-05-22T08:53:15Z</time>
      </trkpt>
      <trkpt lat="42.5048610" lon="-8.6497280">
        <ele>121.7</ele>
        <time>2021-05-22T08:53:16Z</time>
      </trkpt>
      <trkpt lat="42.5048610" lon="-8.6497280">
        <ele>121.7</ele>
        <time>2021-05-22T08:53:17Z</time>
      </trkpt>
      <trkpt lat="42.5048610" lon="-8.6497280">
        <ele>121.7</ele>
        <time>2021-05-22T08:53:18Z</time>
      </trkpt>
      <trkpt lat="42.5048610" lon="-8.6497280">
        <ele>121.7</ele>
        <time>2021-05-22T08:53:19Z</time>
      </trkpt>
      <trkpt lat="42.5048610" lon="-8.6497280">
        <ele>121.7</ele>
        <time>2021-05-22T08:53:20Z</time>
      </trkpt>
      <trkpt lat="42.5048610" lon="-8.6497280">
        <ele>121.7</ele>
        <time>2021-05-22T08:53:21Z</time>
      </trkpt>
      <trkpt lat="42.5048620" lon="-8.6497280">
        <ele>121.7</ele>
        <time>2021-05-22T08:53:22Z</time>
      </trkpt>
      <trkpt lat="42.5048620" lon="-8.6497280">
        <ele>121.7</ele>
        <time>2021-05-22T08:53:23Z</time>
      </trkpt>
      <trkpt lat="42.5048620" lon="-8.6497280">
        <ele>121.7</ele>
        <time>2021-05-22T08:53:24Z</time>
      </trkpt>
      <trkpt lat="42.5048620" lon="-8.6497280">
        <ele>121.7</ele>
        <time>2021-05-22T08:53:25Z</time>
      </trkpt>
      <trkpt lat="42.5048620" lon="-8.6497270">
        <ele>121.7</ele>
        <time>2021-05-22T08:53:26Z</time>
      </trkpt>
      <trkpt lat="42.5048620" lon="-8.6497270">
        <ele>121.7</ele>
        <time>2021-05-22T08:53:27Z</time>
      </trkpt>
      <trkpt lat="42.5048630" lon="-8.6497270">
        <ele>121.7</ele>
        <time>2021-05-22T08:53:28Z</time>
      </trkpt>
      <trkpt lat="42.5048630" lon="-8.6497270">
        <ele>121.7</ele>
        <time>2021-05-22T08:53:29Z</time>
      </trkpt>
      <trkpt lat="42.5048630" lon="-8.6497270">
        <ele>121.7</ele>
        <time>2021-05-22T08:53:30Z</time>
      </trkpt>
      <trkpt lat="42.5048630" lon="-8.6497270">
        <ele>121.7</ele>
        <time>2021-05-22T08:53:31Z</time>
      </trkpt>
      <trkpt lat="42.5048630" lon="-8.6497270">
        <ele>121.7</ele>
        <time>2021-05-22T08:53:32Z</time>
      </trkpt>
      <trkpt lat="42.5048630" lon="-8.6497270">
        <ele>121.7</ele>
        <time>2021-05-22T08:53:33Z</time>
      </trkpt>
      <trkpt lat="42.5048630" lon="-8.6497270">
        <ele>121.7</ele>
        <time>2021-05-22T08:53:34Z</time>
      </trkpt>
      <trkpt lat="42.5048640" lon="-8.6497270">
        <ele>121.7</ele>
        <time>2021-05-22T08:53:35Z</time>
      </trkpt>
      <trkpt lat="42.5048640" lon="-8.6497270">
        <ele>121.7</ele>
        <time>2021-05-22T08:53:36Z</time>
      </trkpt>
      <trkpt lat="42.5048640" lon="-8.6497270">
        <ele>121.7</ele>
        <time>2021-05-22T08:53:37Z</time>
      </trkpt>
      <trkpt lat="42.5048640" lon="-8.6497270">
        <ele>121.7</ele>
        <time>2021-05-22T08:53:38Z</time>
      </trkpt>
      <trkpt lat="42.5048640" lon="-8.6497270">
        <ele>121.7</ele>
        <time>2021-05-22T08:53:39Z</time>
      </trkpt>
      <trkpt lat="42.5048640" lon="-8.6497270">
        <ele>121.7</ele>
        <time>2021-05-22T08:53:40Z</time>
      </trkpt>
      <trkpt lat="42.5048650" lon="-8.6497270">
        <ele>121.7</ele>
        <time>2021-05-22T08:53:41Z</time>
      </trkpt>
      <trkpt lat="42.5048650" lon="-8.6497270">
        <ele>121.7</ele>
        <time>2021-05-22T08:53:42Z</time>
      </trkpt>
      <trkpt lat="42.5048650" lon="-8.6497270">
        <ele>121.7</ele>
        <time>2021-05-22T08:53:43Z</time>
      </trkpt>
      <trkpt lat="42.5048650" lon="-8.6497270">
        <ele>121.7</ele>
        <time>2021-05-22T08:53:44Z</time>
      </trkpt>
      <trkpt lat="42.5048650" lon="-8.6497260">
        <ele>121.7</ele>
        <time>2021-05-22T08:53:45Z</time>
      </trkpt>
      <trkpt lat="42.5048650" lon="-8.6497260">
        <ele>121.7</ele>
        <time>2021-05-22T08:53:46Z</time>
      </trkpt>
      <trkpt lat="42.5048650" lon="-8.6497260">
        <ele>121.7</ele>
        <time>2021-05-22T08:53:47Z</time>
      </trkpt>
      <trkpt lat="42.5048660" lon="-8.6497260">
        <ele>121.7</ele>
        <time>2021-05-22T08:53:48Z</time>
      </trkpt>
      <trkpt lat="42.5048660" lon="-8.6497260">
        <ele>121.7</ele>
        <time>2021-05-22T08:53:49Z</time>
      </trkpt>
      <trkpt lat="42.5048660" lon="-8.6497260">
        <ele>121.7</ele>
        <time>2021-05-22T08:53:50Z</time>
      </trkpt>
      <trkpt lat="42.5048660" lon="-8.6497260">
        <ele>121.7</ele>
        <time>2021-05-22T08:53:51Z</time>
      </trkpt>
      <trkpt lat="42.5048660" lon="-8.6497260">
        <ele>121.7</ele>
        <time>2021-05-22T08:53:52Z</time>
      </trkpt>
      <trkpt lat="42.5048660" lon="-8.6497260">
        <ele>121.7</ele>
        <time>2021-05-22T08:53:53Z</time>
      </trkpt>
      <trkpt lat="42.5048670" lon="-8.6497260">
        <ele>121.7</ele>
        <time>2021-05-22T08:53:54Z</time>
      </trkpt>
      <trkpt lat="42.5048670" lon="-8.6497260">
        <ele>121.7</ele>
        <time>2021-05-22T08:53:55Z</time>
      </trkpt>
      <trkpt lat="42.5048670" lon="-8.6497260">
        <ele>121.7</ele>
        <time>2021-05-22T08:53:56Z</time>
      </trkpt>
      <trkpt lat="42.5048670" lon="-8.6497260">
        <ele>121.7</ele>
        <time>2021-05-22T08:53:57Z</time>
      </trkpt>
      <trkpt lat="42.5048670" lon="-8.6497260">
        <ele>121.7</ele>
        <time>2021-05-22T08:53:58Z</time>
      </trkpt>
      <trkpt lat="42.5048670" lon="-8.6497260">
        <ele>121.7</ele>
        <time>2021-05-22T08:53:59Z</time>
      </trkpt>
      <trkpt lat="42.5048680" lon="-8.6497260">
        <ele>121.7</ele>
        <time>2021-05-22T08:54:00Z</time>
      </trkpt>
      <trkpt lat="42.5048680" lon="-8.6497260">
        <ele>121.7</ele>
        <time>2021-05-22T08:54:01Z</time>
      </trkpt>
      <trkpt lat="42.5048680" lon="-8.6497260">
        <ele>121.7</ele>
        <time>2021-05-22T08:54:02Z</time>
      </trkpt>
      <trkpt lat="42.5048680" lon="-8.6497250">
        <ele>121.7</ele>
        <time>2021-05-22T08:54:03Z</time>
      </trkpt>
      <trkpt lat="42.5048680" lon="-8.6497250">
        <ele>121.7</ele>
        <time>2021-05-22T08:54:04Z</time>
      </trkpt>
      <trkpt lat="42.5048680" lon="-8.6497250">
        <ele>121.7</ele>
        <time>2021-05-22T08:54:05Z</time>
      </trkpt>
      <trkpt lat="42.5048680" lon="-8.6497250">
        <ele>121.7</ele>
        <time>2021-05-22T08:54:06Z</time>
      </trkpt>
      <trkpt lat="42.5048690" lon="-8.6497250">
        <ele>121.7</ele>
        <time>2021-05-22T08:54:07Z</time>
      </trkpt>
      <trkpt lat="42.5048690" lon="-8.6497250">
        <ele>121.7</ele>
        <time>2021-05-22T08:54:08Z</time>
      </trkpt>
      <trkpt lat="42.5048690" lon="-8.6497250">
        <ele>121.7</ele>
        <time>2021-05-22T08:54:09Z</time>
      </trkpt>
      <trkpt lat="42.5048690" lon="-8.6497250">
        <ele>121.7</ele>
        <time>2021-05-22T08:54:10Z</time>
      </trkpt>
      <trkpt lat="42.5048690" lon="-8.6497250">
        <ele>121.7</ele>
        <time>2021-05-22T08:54:11Z</time>
      </trkpt>
      <trkpt lat="42.5048690" lon="-8.6497250">
        <ele>121.7</ele>
        <time>2021-05-22T08:54:12Z</time>
      </trkpt>
      <trkpt lat="42.5048700" lon="-8.6497250">
        <ele>121.7</ele>
        <time>2021-05-22T08:54:13Z</time>
      </trkpt>
      <trkpt lat="42.5048700" lon="-8.6497250">
        <ele>121.7</ele>
        <time>2021-05-22T08:54:14Z</time>
      </trkpt>
      <trkpt lat="42.5048700" lon="-8.6497250">
        <ele>121.7</ele>
        <time>2021-05-22T08:54:15Z</time>
      </trkpt>
      <trkpt lat="42.5048700" lon="-8.6497250">
        <ele>121.7</ele>
        <time>2021-05-22T08:54:16Z</time>
      </trkpt>
      <trkpt lat="42.5048700" lon="-8.6497250">
        <ele>121.7</ele>
        <time>2021-05-22T08:54:17Z</time>
      </trkpt>
      <trkpt lat="42.5048700" lon="-8.6497250">
        <ele>121.7</ele>
        <time>2021-05-22T08:54:18Z</time>
      </trkpt>
      <trkpt lat="42.5048700" lon="-8.6497250">
        <ele>121.7</ele>
        <time>2021-05-22T08:54:19Z</time>
      </trkpt>
      <trkpt lat="42.5048710" lon="-8.6497250">
        <ele>121.7</ele>
        <time>2021-05-22T08:54:20Z</time>
      </trkpt>
      <trkpt lat="42.5048710" lon="-8.6497250">
        <ele>121.7</ele>
        <time>2021-05-22T08:54:21Z</time>
      </trkpt>
      <trkpt lat="42.5048710" lon="-8.6497240">
        <ele>121.7</ele>
        <time>2021-05-22T08:54:22Z</time>
      </trkpt>
      <trkpt lat="42.5048710" lon="-8.6497240">
        <ele>121.7</ele>
        <time>2021-05-22T08:54:23Z</time>
      </trkpt>
      <trkpt lat="42.5048710" lon="-8.6497240">
        <ele>121.7</ele>
        <time>2021-05-22T08:54:24Z</time>
      </trkpt>
      <trkpt lat="42.5048710" lon="-8.6497240">
        <ele>121.7</ele>
        <time>2021-05-22T08:54:25Z</time>
      </trkpt>
      <trkpt lat="42.5048720" lon="-8.6497240">
        <ele>121.6</ele>
        <time>2021-05-22T08:54:26Z</time>
      </trkpt>
      <trkpt lat="42.5048720" lon="-8.6497240">
        <ele>121.6</ele>
        <time>2021-05-22T08:54:27Z</time>
      </trkpt>
      <trkpt lat="42.5048720" lon="-8.6497240">
        <ele>121.6</ele>
        <time>2021-05-22T08:54:28Z</time>
      </trkpt>
      <trkpt lat="42.5048720" lon="-8.6497240">
        <ele>121.6</ele>
        <time>2021-05-22T08:54:29Z</time>
      </trkpt>
      <trkpt lat="42.5048720" lon="-8.6497240">
        <ele>121.6</ele>
        <time>2021-05-22T08:54:30Z</time>
      </trkpt>
      <trkpt lat="42.5048720" lon="-8.6497240">
        <ele>121.6</ele>
        <time>2021-05-22T08:54:31Z</time>
      </trkpt>
      <trkpt lat="42.5048720" lon="-8.6497240">
        <ele>121.6</ele>
        <time>2021-05-22T08:54:32Z</time>
      </trkpt>
      <trkpt lat="42.5048730" lon="-8.6497240">
        <ele>121.6</ele>
        <time>2021-05-22T08:54:33Z</time>
      </trkpt>
      <trkpt lat="42.5048730" lon="-8.6497240">
        <ele>121.6</ele>
        <time>2021-05-22T08:54:34Z</time>
      </trkpt>
      <trkpt lat="42.5048730" lon="-8.6497240">
        <ele>121.6</ele>
        <time>2021-05-22T08:54:35Z</time>
      </trkpt>
      <trkpt lat="42.5048730" lon="-8.6497240">
        <ele>121.6</ele>
        <time>2021-05-22T08:54:36Z</time>
      </trkpt>
      <trkpt lat="42.5048730" lon="-8.6497240">
        <ele>121.6</ele>
        <time>2021-05-22T08:54:37Z</time>
      </trkpt>
      <trkpt lat="42.5048730" lon="-8.6497240">
        <ele>121.6</ele>
        <time>2021-05-22T08:54:38Z</time>
      </trkpt>
      <trkpt lat="42.5048740" lon="-8.6497240">
        <ele>121.6</ele>
        <time>2021-05-22T08:54:39Z</time>
      </trkpt>
      <trkpt lat="42.5048740" lon="-8.6497240">
        <ele>121.6</ele>
        <time>2021-05-22T08:54:40Z</time>
      </trkpt>
      <trkpt lat="42.5048740" lon="-8.6497230">
        <ele>121.6</ele>
        <time>2021-05-22T08:54:41Z</time>
      </trkpt>
      <trkpt lat="42.5048740" lon="-8.6497230">
        <ele>121.6</ele>
        <time>2021-05-22T08:54:42Z</time>
      </trkpt>
      <trkpt lat="42.5048740" lon="-8.6497230">
        <ele>121.6</ele>
        <time>2021-05-22T08:54:43Z</time>
      </trkpt>
      <trkpt lat="42.5048740" lon="-8.6497230">
        <ele>121.6</ele>
        <time>2021-05-22T08:54:44Z</time>
      </trkpt>
      <trkpt lat="42.5048740" lon="-8.6497230">
        <ele>121.6</ele>
        <time>2021-05-22T08:54:45Z</time>
      </trkpt>
      <trkpt lat="42.5048750" lon="-8.6497230">
        <ele>121.6</ele>
        <time>2021-05-22T08:54:46Z</time>
      </trkpt>
      <trkpt lat="42.5048750" lon="-8.6497230">
        <ele>121.6</ele>
        <time>2021-05-22T08:54:47Z</time>
      </trkpt>
      <trkpt lat="42.5048750" lon="-8.6497230">
        <ele>121.6</ele>
        <time>2021-05-22T08:54:48Z</time>
      </trkpt>
      <trkpt lat="42.5048750" lon="-8.6497230">
        <ele>121.6</ele>
        <time>2021-05-22T08:54:49Z</time>
      </trkpt>
      <trkpt lat="42.5048750" lon="-8.6497230">
        <ele>121.6</ele>
        <time>2021-05-22T08:54:50Z</time>
      </trkpt>
      <trkpt lat="42.5048750" lon="-8.6497230">
        <ele>121.6</ele>
        <time>2021-05-22T08:54:51Z</time>
      </trkpt>
      <trkpt lat="42.5048760" lon="-8.6497230">
        <ele>121.6</ele>
        <time>2021-05-22T08:54:52Z</time>
      </trkpt>
      <trkpt lat="42.5048760" lon="-8.6497230">
        <ele>121.6</ele>
        <time>2021-05-22T08:54:53Z</time>
      </trkpt>
      <trkpt lat="42.5048760" lon="-8.6497230">
        <ele>121.6</ele>
        <time>2021-05-22T08:54:54Z</time>
      </trkpt>
      <trkpt lat="42.5048760" lon="-8.6497230">
        <ele>121.6</ele>
        <time>2021-05-22T08:54:55Z</time>
      </trkpt>
      <trkpt lat="42.5048760" lon="-8.6497230">
        <ele>121.6</ele>
        <time>2021-05-22T08:54:56Z</time>
      </trkpt>
      <trkpt lat="42.5048760" lon="-8.6497230">
        <ele>121.6</ele>
        <time>2021-05-22T08:54:57Z</time>
      </trkpt>
      <trkpt lat="42.5048770" lon="-8.6497230">
        <ele>121.6</ele>
        <time>2021-05-22T08:54:58Z</time>
      </trkpt>
      <trkpt lat="42.5048770" lon="-8.6497220">
        <ele>121.6</ele>
        <time>2021-05-22T08:54:59Z</time>
      </trkpt>
      <trkpt lat="42.5048770" lon="-8.6497220">
        <ele>121.6</ele>
        <time>2021-05-22T08:55:00Z</time>
      </trkpt>
      <trkpt lat="42.5048770" lon="-8.6497220">
        <ele>121.6</ele>
        <time>2021-05-22T08:55:01Z</time>
      </trkpt>
      <trkpt lat="42.5048770" lon="-8.6497220">
        <ele>121.6</ele>
        <time>2021-05-22T08:55:02Z</time>
      </trkpt>
      <trkpt lat="42.5048770" lon="-8.6497220">
        <ele>121.6</ele>
        <time>2021-05-22T08:55:03Z</time>
      </trkpt>
      <trkpt lat="42.5048770" lon="-8.6497220">
        <ele>121.6</ele>
        <time>2021-05-22T08:55:04Z</time>
      </trkpt>
      <trkpt lat="42.5048780" lon="-8.6497220">
        <ele>121.6</ele>
        <time>2021-05-22T08:55:05Z</time>
      </trkpt>
      <trkpt lat="42.5048780" lon="-8.6497220">
        <ele>121.6</ele>
        <time>2021-05-22T08:55:06Z</time>
      </trkpt>
      <trkpt lat="42.5048780" lon="-8.6497220">
        <ele>121.6</ele>
        <time>2021-05-22T08:55:07Z</time>
      </trkpt>
      <trkpt lat="42.5048780" lon="-8.6497220">
        <ele>121.6</ele>
        <time>2021-05-22T08:55:08Z</time>
      </trkpt>
      <trkpt lat="42.5048780" lon="-8.6497220">
        <ele>121.6</ele>
        <time>2021-05-22T08:55:09Z</time>
      </trkpt>
      <trkpt lat="42.5048780" lon="-8.6497220">
        <ele>121.6</ele>
        <time>2021-05-22T08:55:10Z</time>
      </trkpt>
      <trkpt lat="42.5048790" lon="-8.6497220">
        <ele>121.6</ele>
        <time>2021-05-22T08:55:11Z</time>
      </trkpt>
      <trkpt lat="42.5048790" lon="-8.6497220">
        <ele>121.6</ele>
        <time>2021-05-22T08:55:12Z</time>
      </trkpt>
      <trkpt lat="42.5048790" lon="-8.6497220">
        <ele>121.6</ele>
        <time>2021-05-22T08:55:13Z</time>
      </trkpt>
      <trkpt lat="42.5048790" lon="-8.6497220">
        <ele>121.6</ele>
        <time>2021-05-22T08:55:14Z</time>
      </trkpt>
      <trkpt lat="42.5048790" lon="-8.6497220">
        <ele>121.6</ele>
        <time>2021-05-22T08:55:15Z</time>
      </trkpt>
      <trkpt lat="42.5048790" lon="-8.6497220">
        <ele>121.6</ele>
        <time>2021-05-22T08:55:16Z</time>
      </trkpt>
      <trkpt lat="42.5048790" lon="-8.6497220">
        <ele>121.6</ele>
        <time>2021-05-22T08:55:17Z</time>
      </trkpt>
      <trkpt lat="42.5048800" lon="-8.6497210">
        <ele>121.6</ele>
        <time>2021-05-22T08:55:18Z</time>
      </trkpt>
      <trkpt lat="42.5048800" lon="-8.6497210">
        <ele>121.6</ele>
        <time>2021-05-22T08:55:19Z</time>
      </trkpt>
      <trkpt lat="42.5048800" lon="-8.6497210">
        <ele>121.6</ele>
        <time>2021-05-22T08:55:20Z</time>
      </trkpt>
      <trkpt lat="42.5048800" lon="-8.6497210">
        <ele>121.6</ele>
        <time>2021-05-22T08:55:21Z</time>
      </trkpt>
      <trkpt lat="42.5048800" lon="-8.6497210">
        <ele>121.6</ele>
        <time>2021-05-22T08:55:22Z</time>
      </trkpt>
      <trkpt lat="42.5048800" lon="-8.6497210">
        <ele>121.6</ele>
        <time>2021-05-22T08:55:23Z</time>
      </trkpt>
      <trkpt lat="42.5048810" lon="-8.6497210">
        <ele>121.6</ele>
        <time>2021-05-22T08:55:24Z</time>
      </trkpt>
      <trkpt lat="42.5048810" lon="-8.6497210">
        <ele>121.6</ele>
        <time>2021-05-22T08:55:25Z</time>
      </trkpt>
      <trkpt lat="42.5048810" lon="-8.6497210">
        <ele>121.6</ele>
        <time>2021-05-22T08:55:26Z</time>
      </trkpt>
      <trkpt lat="42.5048810" lon="-8.6497210">
        <ele>121.6</ele>
        <time>2021-05-22T08:55:27Z</time>
      </trkpt>
      <trkpt lat="42.5049020" lon="-8.6497150">
        <ele>121.5</ele>
        <time>2021-05-22T08:55:28Z</time>
      </trkpt>
      <trkpt lat="42.5049140" lon="-8.6497070">
        <ele>121.4</ele>
        <time>2021-05-22T08:55:29Z</time>
      </trkpt>
      <trkpt lat="42.5049250" lon="-8.6497000">
        <ele>121.3</ele>
        <time>2021-05-22T08:55:30Z</time>
      </trkpt>
      <trkpt lat="42.5049360" lon="-8.6496920">
        <ele>121.2</ele>
        <time>2021-05-22T08:55:31Z</time>
      </trkpt>
      <trkpt lat="42.5049480" lon="-8.6496840">
        <ele>121.2</ele>
        <time>2021-05-22T08:55:32Z</time>
      </trkpt>
      <trkpt lat="42.5049590" lon="-8.6496760">
        <ele>121.1</ele>
        <time>2021-05-22T08:55:33Z</time>
      </trkpt>
      <trkpt lat="42.5049700" lon="-8.6496680">
        <ele>121.0</ele>
        <time>2021-05-22T08:55:34Z</time>
      </trkpt>
      <trkpt lat="42.5049820" lon="-8.6496600">
        <ele>120.9</ele>
        <time>2021-05-22T08:55:35Z</time>
      </trkpt>
      <trkpt lat="42.5049930" lon="-8.6496530">
        <ele>120.9</ele>
        <time>2021-05-22T08:55:36Z</time>
      </trkpt>
      <trkpt lat="42.5050040" lon="-8.6496450">
        <ele>120.8</ele>
        <time>2021-05-22T08:55:37Z</time>
      </trkpt>
      <trkpt lat="42.5050160" lon="-8.6496370">
        <ele>120.7</ele>
        <time>2021-05-22T08:55:38Z</time>
      </trkpt>
      <trkpt lat="42.5050270" lon="-8.6496290">
        <ele>120.6</ele>
        <time>2021-05-22T08:55:39Z</time>
      </trkpt>
      <trkpt lat="42.5050460" lon="-8.6496130">
        <ele>120.5</ele>
        <time>2021-05-22T08:55:40Z</time>
      </trkpt>
      <trkpt lat="42.5050520" lon="-8.6496060">
        <ele>120.4</ele>
        <time>2021-05-22T08:55:41Z</time>
      </trkpt>
      <trkpt lat="42.5050590" lon="-8.6496000">
        <ele>120.4</ele>
        <time>2021-05-22T08:55:42Z</time>
      </trkpt>
      <trkpt lat="42.5050660" lon="-8.6495930">
        <ele>120.3</ele>
        <time>2021-05-22T08:55:43Z</time>
      </trkpt>
      <trkpt lat="42.5050720" lon="-8.6495870">
        <ele>120.3</ele>
        <time>2021-05-22T08:55:44Z</time>
      </trkpt>
      <trkpt lat="42.5050790" lon="-8.6495800">
        <ele>120.2</ele>
        <time>2021-05-22T08:55:45Z</time>
      </trkpt>
      <trkpt lat="42.5050860" lon="-8.6495740">
        <ele>120.2</ele>
        <time>2021-05-22T08:55:46Z</time>
      </trkpt>
      <trkpt lat="42.5050920" lon="-8.6495670">
        <ele>120.1</ele>
        <time>2021-05-22T08:55:47Z</time>
      </trkpt>
      <trkpt lat="42.5050990" lon="-8.6495610">
        <ele>120.1</ele>
        <time>2021-05-22T08:55:48Z</time>
      </trkpt>
      <trkpt lat="42.5050950" lon="-8.6495640">
        <ele>120.1</ele>
        <time>2021-05-22T08:55:49Z</time>
      </trkpt>
      <trkpt lat="42.5050910" lon="-8.6495680">
        <ele>120.0</ele>
        <time>2021-05-22T08:55:50Z</time>
      </trkpt>
      <trkpt lat="42.5050830" lon="-8.6495710">
        <ele>120.0</ele>
        <time>2021-05-22T08:55:51Z</time>
      </trkpt>
      <trkpt lat="42.5050770" lon="-8.6495680">
        <ele>120.0</ele>
        <time>2021-05-22T08:55:52Z</time>
      </trkpt>
      <trkpt lat="42.5050760" lon="-8.6495710">
        <ele>119.9</ele>
        <time>2021-05-22T08:55:53Z</time>
      </trkpt>
      <trkpt lat="42.5050740" lon="-8.6495720">
        <ele>119.9</ele>
        <time>2021-05-22T08:55:54Z</time>
      </trkpt>
      <trkpt lat="42.5050690" lon="-8.6495670">
        <ele>119.9</ele>
        <time>2021-05-22T08:55:55Z</time>
      </trkpt>
      <trkpt lat="42.5050570" lon="-8.6495640">
        <ele>119.8</ele>
        <time>2021-05-22T08:55:56Z</time>
      </trkpt>
      <trkpt lat="42.5050500" lon="-8.6495610">
        <ele>119.8</ele>
        <time>2021-05-22T08:55:57Z</time>
      </trkpt>
      <trkpt lat="42.5050430" lon="-8.6495590">
        <ele>119.7</ele>
        <time>2021-05-22T08:55:58Z</time>
      </trkpt>
      <trkpt lat="42.5050360" lon="-8.6495560">
        <ele>119.7</ele>
        <time>2021-05-22T08:55:59Z</time>
      </trkpt>
      <trkpt lat="42.5050290" lon="-8.6495530">
        <ele>119.6</ele>
        <time>2021-05-22T08:56:00Z</time>
      </trkpt>
      <trkpt lat="42.5050370" lon="-8.6495520">
        <ele>119.6</ele>
        <time>2021-05-22T08:56:01Z</time>
      </trkpt>
      <trkpt lat="42.5050410" lon="-8.6495490">
        <ele>119.6</ele>
        <time>2021-05-22T08:56:02Z</time>
      </trkpt>
      <trkpt lat="42.5050460" lon="-8.6495460">
        <ele>119.5</ele>
        <time>2021-05-22T08:56:03Z</time>
      </trkpt>
      <trkpt lat="42.5050500" lon="-8.6495430">
        <ele>119.5</ele>
        <time>2021-05-22T08:56:04Z</time>
      </trkpt>
      <trkpt lat="42.5050550" lon="-8.6495400">
        <ele>119.5</ele>
        <time>2021-05-22T08:56:05Z</time>
      </trkpt>
      <trkpt lat="42.5050600" lon="-8.6495380">
        <ele>119.4</ele>
        <time>2021-05-22T08:56:06Z</time>
      </trkpt>
      <trkpt lat="42.5050640" lon="-8.6495350">
        <ele>119.4</ele>
        <time>2021-05-22T08:56:07Z</time>
      </trkpt>
      <trkpt lat="42.5050690" lon="-8.6495320">
        <ele>119.4</ele>
        <time>2021-05-22T08:56:08Z</time>
      </trkpt>
      <trkpt lat="42.5050730" lon="-8.6495290">
        <ele>119.3</ele>
        <time>2021-05-22T08:56:09Z</time>
      </trkpt>
      <trkpt lat="42.5050780" lon="-8.6495260">
        <ele>119.3</ele>
        <time>2021-05-22T08:56:10Z</time>
      </trkpt>
      <trkpt lat="42.5050820" lon="-8.6495230">
        <ele>119.3</ele>
        <time>2021-05-22T08:56:11Z</time>
      </trkpt>
      <trkpt lat="42.5050870" lon="-8.6495200">
        <ele>119.3</ele>
        <time>2021-05-22T08:56:12Z</time>
      </trkpt>
      <trkpt lat="42.5051040" lon="-8.6495230">
        <ele>119.2</ele>
        <time>2021-05-22T08:56:13Z</time>
      </trkpt>
      <trkpt lat="42.5051140" lon="-8.6495240">
        <ele>119.1</ele>
        <time>2021-05-22T08:56:14Z</time>
      </trkpt>
      <trkpt lat="42.5051250" lon="-8.6495250">
        <ele>119.0</ele>
        <time>2021-05-22T08:56:15Z</time>
      </trkpt>
      <trkpt lat="42.5051350" lon="-8.6495260">
        <ele>119.0</ele>
        <time>2021-05-22T08:56:16Z</time>
      </trkpt>
      <trkpt lat="42.5051430" lon="-8.6495270">
        <ele>118.9</ele>
        <time>2021-05-22T08:56:17Z</time>
      </trkpt>
      <trkpt lat="42.5051470" lon="-8.6495190">
        <ele>118.9</ele>
        <time>2021-05-22T08:56:18Z</time>
      </trkpt>
      <trkpt lat="42.5051540" lon="-8.6495130">
        <ele>118.8</ele>
        <time>2021-05-22T08:56:19Z</time>
      </trkpt>
      <trkpt lat="42.5051460" lon="-8.6495130">
        <ele>118.8</ele>
        <time>2021-05-22T08:56:20Z</time>
      </trkpt>
      <trkpt lat="42.5051160" lon="-8.6495160">
        <ele>118.6</ele>
        <time>2021-05-22T08:56:21Z</time>
      </trkpt>
      <trkpt lat="42.5051280" lon="-8.6495240">
        <ele>118.5</ele>
        <time>2021-05-22T08:56:22Z</time>
      </trkpt>
      <trkpt lat="42.5051290" lon="-8.6495330">
        <ele>118.5</ele>
        <time>2021-05-22T08:56:23Z</time>
      </trkpt>
      <trkpt lat="42.5051260" lon="-8.6495310">
        <ele>118.5</ele>
        <time>2021-05-22T08:56:24Z</time>
      </trkpt>
      <trkpt lat="42.5051320" lon="-8.6495280">
        <ele>118.4</ele>
        <time>2021-05-22T08:56:25Z</time>
      </trkpt>
      <trkpt lat="42.5051230" lon="-8.6495060">
        <ele>118.3</ele>
        <time>2021-05-22T08:56:26Z</time>
      </trkpt>
      <trkpt lat="42.5051050" lon="-8.6495370">
        <ele>118.2</ele>
        <time>2021-05-22T08:56:27Z</time>
      </trkpt>
      <trkpt lat="42.5050880" lon="-8.6495480">
        <ele>118.1</ele>
        <time>2021-05-22T08:56:28Z</time>
      </trkpt>
      <trkpt lat="42.5050800" lon="-8.6495500">
        <ele>118.0</ele>
        <time>2021-05-22T08:56:29Z</time>
      </trkpt>
      <trkpt lat="42.5050710" lon="-8.6495530">
        <ele>118.0</ele>
        <time>2021-05-22T08:56:30Z</time>
      </trkpt>
      <trkpt lat="42.5050640" lon="-8.6495540">
        <ele>117.9</ele>
        <time>2021-05-22T08:56:31Z</time>
      </trkpt>
      <trkpt lat="42.5050640" lon="-8.6495540">
        <ele>117.9</ele>
        <time>2021-05-22T08:56:32Z</time>
      </trkpt>
      <trkpt lat="42.5050640" lon="-8.6495540">
        <ele>117.9</ele>
        <time>2021-05-22T08:56:33Z</time>
      </trkpt>
      <trkpt lat="42.5050640" lon="-8.6495540">
        <ele>117.9</ele>
        <time>2021-05-22T08:56:34Z</time>
      </trkpt>
      <trkpt lat="42.5050420" lon="-8.6495590">
        <ele>117.8</ele>
        <time>2021-05-22T08:56:35Z</time>
      </trkpt>
      <trkpt lat="42.5050420" lon="-8.6495590">
        <ele>117.8</ele>
        <time>2021-05-22T08:56:36Z</time>
      </trkpt>
      <trkpt lat="42.5050420" lon="-8.6495590">
        <ele>117.8</ele>
        <time>2021-05-22T08:56:37Z</time>
      </trkpt>
      <trkpt lat="42.5050420" lon="-8.6495590">
        <ele>117.8</ele>
        <time>2021-05-22T08:56:38Z</time>
      </trkpt>
      <trkpt lat="42.5050420" lon="-8.6495590">
        <ele>117.8</ele>
        <time>2021-05-22T08:56:39Z</time>
      </trkpt>
      <trkpt lat="42.5050420" lon="-8.6495590">
        <ele>117.8</ele>
        <time>2021-05-22T08:56:40Z</time>
      </trkpt>
      <trkpt lat="42.5050420" lon="-8.6495590">
        <ele>117.8</ele>
        <time>2021-05-22T08:56:41Z</time>
      </trkpt>
      <trkpt lat="42.5050420" lon="-8.6495590">
        <ele>117.8</ele>
        <time>2021-05-22T08:56:42Z</time>
      </trkpt>
      <trkpt lat="42.5050420" lon="-8.6495590">
        <ele>117.8</ele>
        <time>2021-05-22T08:56:43Z</time>
      </trkpt>
      <trkpt lat="42.5050420" lon="-8.6495590">
        <ele>117.8</ele>
        <time>2021-05-22T08:56:44Z</time>
      </trkpt>
      <trkpt lat="42.5050740" lon="-8.6495350">
        <ele>117.6</ele>
        <time>2021-05-22T08:56:45Z</time>
      </trkpt>
      <trkpt lat="42.5050660" lon="-8.6495360">
        <ele>117.6</ele>
        <time>2021-05-22T08:56:46Z</time>
      </trkpt>
      <trkpt lat="42.5050570" lon="-8.6495380">
        <ele>117.5</ele>
        <time>2021-05-22T08:56:47Z</time>
      </trkpt>
      <trkpt lat="42.5050480" lon="-8.6495390">
        <ele>117.5</ele>
        <time>2021-05-22T08:56:48Z</time>
      </trkpt>
      <trkpt lat="42.5050390" lon="-8.6495410">
        <ele>117.5</ele>
        <time>2021-05-22T08:56:49Z</time>
      </trkpt>
      <trkpt lat="42.5050300" lon="-8.6495420">
        <ele>117.4</ele>
        <time>2021-05-22T08:56:50Z</time>
      </trkpt>
      <trkpt lat="42.5050210" lon="-8.6495430">
        <ele>117.4</ele>
        <time>2021-05-22T08:56:51Z</time>
      </trkpt>
      <trkpt lat="42.5050110" lon="-8.6495450">
        <ele>117.3</ele>
        <time>2021-05-22T08:56:52Z</time>
      </trkpt>
      <trkpt lat="42.5050020" lon="-8.6495460">
        <ele>117.3</ele>
        <time>2021-05-22T08:56:53Z</time>
      </trkpt>
      <trkpt lat="42.5049930" lon="-8.6495470">
        <ele>117.2</ele>
        <time>2021-05-22T08:56:54Z</time>
      </trkpt>
      <trkpt lat="42.5049840" lon="-8.6495490">
        <ele>117.2</ele>
        <time>2021-05-22T08:56:56Z</time>
      </trkpt>
      <trkpt lat="42.5049750" lon="-8.6495500">
        <ele>117.2</ele>
        <time>2021-05-22T08:56:57Z</time>
      </trkpt>
      <trkpt lat="42.5049660" lon="-8.6495520">
        <ele>117.1</ele>
        <time>2021-05-22T08:56:58Z</time>
      </trkpt>
      <trkpt lat="42.5049570" lon="-8.6495530">
        <ele>117.1</ele>
        <time>2021-05-22T08:56:59Z</time>
      </trkpt>
      <trkpt lat="42.5049590" lon="-8.6495430">
        <ele>117.0</ele>
        <time>2021-05-22T08:57:00Z</time>
      </trkpt>
      <trkpt lat="42.5049620" lon="-8.6495470">
        <ele>117.0</ele>
        <time>2021-05-22T08:57:01Z</time>
      </trkpt>
      <trkpt lat="42.5049660" lon="-8.6495500">
        <ele>117.0</ele>
        <time>2021-05-22T08:57:02Z</time>
      </trkpt>
      <trkpt lat="42.5049700" lon="-8.6495530">
        <ele>117.0</ele>
        <time>2021-05-22T08:57:03Z</time>
      </trkpt>
      <trkpt lat="42.5049730" lon="-8.6495560">
        <ele>117.0</ele>
        <time>2021-05-22T08:57:04Z</time>
      </trkpt>
      <trkpt lat="42.5049770" lon="-8.6495600">
        <ele>116.9</ele>
        <time>2021-05-22T08:57:05Z</time>
      </trkpt>
      <trkpt lat="42.5049800" lon="-8.6495630">
        <ele>116.9</ele>
        <time>2021-05-22T08:57:06Z</time>
      </trkpt>
      <trkpt lat="42.5049840" lon="-8.6495660">
        <ele>116.9</ele>
        <time>2021-05-22T08:57:07Z</time>
      </trkpt>
      <trkpt lat="42.5049880" lon="-8.6495690">
        <ele>116.9</ele>
        <time>2021-05-22T08:57:08Z</time>
      </trkpt>
      <trkpt lat="42.5049910" lon="-8.6495730">
        <ele>116.9</ele>
        <time>2021-05-22T08:57:09Z</time>
      </trkpt>
      <trkpt lat="42.5049950" lon="-8.6495760">
        <ele>116.9</ele>
        <time>2021-05-22T08:57:10Z</time>
      </trkpt>
      <trkpt lat="42.5049840" lon="-8.6495880">
        <ele>116.8</ele>
        <time>2021-05-22T08:57:11Z</time>
      </trkpt>
      <trkpt lat="42.5049710" lon="-8.6496060">
        <ele>116.7</ele>
        <time>2021-05-22T08:57:12Z</time>
      </trkpt>
      <trkpt lat="42.5049760" lon="-8.6496090">
        <ele>116.7</ele>
        <time>2021-05-22T08:57:13Z</time>
      </trkpt>
      <trkpt lat="42.5049930" lon="-8.6496150">
        <ele>116.6</ele>
        <time>2021-05-22T08:57:14Z</time>
      </trkpt>
      <trkpt lat="42.5049820" lon="-8.6496220">
        <ele>116.6</ele>
        <time>2021-05-22T08:57:15Z</time>
      </trkpt>
      <trkpt lat="42.5049860" lon="-8.6496300">
        <ele>116.6</ele>
        <time>2021-05-22T08:57:16Z</time>
      </trkpt>
      <trkpt lat="42.5049780" lon="-8.6496360">
        <ele>116.5</ele>
        <time>2021-05-22T08:57:17Z</time>
      </trkpt>
      <trkpt lat="42.5049710" lon="-8.6496460">
        <ele>116.5</ele>
        <time>2021-05-22T08:57:18Z</time>
      </trkpt>
      <trkpt lat="42.5049660" lon="-8.6496310">
        <ele>116.4</ele>
        <time>2021-05-22T08:57:19Z</time>
      </trkpt>
      <trkpt lat="42.5049670" lon="-8.6496270">
        <ele>116.4</ele>
        <time>2021-05-22T08:57:20Z</time>
      </trkpt>
      <trkpt lat="42.5049690" lon="-8.6496390">
        <ele>116.4</ele>
        <time>2021-05-22T08:57:21Z</time>
      </trkpt>
      <trkpt lat="42.5049640" lon="-8.6496690">
        <ele>116.3</ele>
        <time>2021-05-22T08:57:22Z</time>
      </trkpt>
      <trkpt lat="42.5049720" lon="-8.6496910">
        <ele>116.2</ele>
        <time>2021-05-22T08:57:23Z</time>
      </trkpt>
      <trkpt lat="42.5049520" lon="-8.6497000">
        <ele>116.1</ele>
        <time>2021-05-22T08:57:24Z</time>
      </trkpt>
      <trkpt lat="42.5049430" lon="-8.6497060">
        <ele>116.1</ele>
        <time>2021-05-22T08:57:25Z</time>
      </trkpt>
      <trkpt lat="42.5049510" lon="-8.6497030">
        <ele>116.1</ele>
        <time>2021-05-22T08:57:26Z</time>
      </trkpt>
      <trkpt lat="42.5049620" lon="-8.6496890">
        <ele>116.0</ele>
        <time>2021-05-22T08:57:27Z</time>
      </trkpt>
      <trkpt lat="42.5049720" lon="-8.6496750">
        <ele>116.0</ele>
        <time>2021-05-22T08:57:28Z</time>
      </trkpt>
      <trkpt lat="42.5049830" lon="-8.6496610">
        <ele>115.9</ele>
        <time>2021-05-22T08:57:29Z</time>
      </trkpt>
      <trkpt lat="42.5050080" lon="-8.6496340">
        <ele>115.8</ele>
        <time>2021-05-22T08:57:30Z</time>
      </trkpt>
      <trkpt lat="42.5050240" lon="-8.6496250">
        <ele>115.7</ele>
        <time>2021-05-22T08:57:31Z</time>
      </trkpt>
      <trkpt lat="42.5049870" lon="-8.6496420">
        <ele>115.6</ele>
        <time>2021-05-22T08:57:32Z</time>
      </trkpt>
      <trkpt lat="42.5049550" lon="-8.6496510">
        <ele>115.5</ele>
        <time>2021-05-22T08:57:33Z</time>
      </trkpt>
      <trkpt lat="42.5049240" lon="-8.6496590">
        <ele>115.4</ele>
        <time>2021-05-22T08:57:34Z</time>
      </trkpt>
      <trkpt lat="42.5048920" lon="-8.6496670">
        <ele>115.3</ele>
        <time>2021-05-22T08:57:35Z</time>
      </trkpt>
      <trkpt lat="42.5048610" lon="-8.6496750">
        <ele>115.1</ele>
        <time>2021-05-22T08:57:36Z</time>
      </trkpt>
      <trkpt lat="42.5048290" lon="-8.6496840">
        <ele>115.0</ele>
        <time>2021-05-22T08:57:37Z</time>
      </trkpt>
      <trkpt lat="42.5047980" lon="-8.6496920">
        <ele>114.9</ele>
        <time>2021-05-22T08:57:38Z</time>
      </trkpt>
      <trkpt lat="42.5048030" lon="-8.6497270">
        <ele>114.8</ele>
        <time>2021-05-22T08:57:39Z</time>
      </trkpt>
      <trkpt lat="42.5048030" lon="-8.6497350">
        <ele>114.8</ele>
        <time>2021-05-22T08:57:40Z</time>
      </trkpt>
      <trkpt lat="42.5048210" lon="-8.6497450">
        <ele>114.8</ele>
        <time>2021-05-22T08:57:41Z</time>
      </trkpt>
      <trkpt lat="42.5048300" lon="-8.6497480">
        <ele>114.7</ele>
        <time>2021-05-22T08:57:42Z</time>
      </trkpt>
      <trkpt lat="42.5048380" lon="-8.6497510">
        <ele>114.7</ele>
        <time>2021-05-22T08:57:43Z</time>
      </trkpt>
      <trkpt lat="42.5048390" lon="-8.6497560">
        <ele>114.7</ele>
        <time>2021-05-22T08:57:44Z</time>
      </trkpt>
      <trkpt lat="42.5048430" lon="-8.6497610">
        <ele>114.7</ele>
        <time>2021-05-22T08:57:45Z</time>
      </trkpt>
      <trkpt lat="42.5048470" lon="-8.6497630">
        <ele>114.7</ele>
        <time>2021-05-22T08:57:46Z</time>
      </trkpt>
      <trkpt lat="42.5048510" lon="-8.6497620">
        <ele>114.6</ele>
        <time>2021-05-22T08:57:47Z</time>
      </trkpt>
      <trkpt lat="42.5048540" lon="-8.6497640">
        <ele>114.6</ele>
        <time>2021-05-22T08:57:48Z</time>
      </trkpt>
      <trkpt lat="42.5048560" lon="-8.6497650">
        <ele>114.6</ele>
        <time>2021-05-22T08:57:49Z</time>
      </trkpt>
      <trkpt lat="42.5048550" lon="-8.6497660">
        <ele>114.6</ele>
        <time>2021-05-22T08:57:50Z</time>
      </trkpt>
      <trkpt lat="42.5048540" lon="-8.6497690">
        <ele>114.6</ele>
        <time>2021-05-22T08:57:51Z</time>
      </trkpt>
      <trkpt lat="42.5048560" lon="-8.6497740">
        <ele>114.6</ele>
        <time>2021-05-22T08:57:52Z</time>
      </trkpt>
      <trkpt lat="42.5048590" lon="-8.6497720">
        <ele>114.6</ele>
        <time>2021-05-22T08:57:53Z</time>
      </trkpt>
      <trkpt lat="42.5048610" lon="-8.6497710">
        <ele>114.6</ele>
        <time>2021-05-22T08:57:54Z</time>
      </trkpt>
      <trkpt lat="42.5048650" lon="-8.6497710">
        <ele>114.6</ele>
        <time>2021-05-22T08:57:55Z</time>
      </trkpt>
      <trkpt lat="42.5048730" lon="-8.6497690">
        <ele>114.5</ele>
        <time>2021-05-22T08:57:56Z</time>
      </trkpt>
      <trkpt lat="42.5048810" lon="-8.6497690">
        <ele>114.5</ele>
        <time>2021-05-22T08:57:57Z</time>
      </trkpt>
      <trkpt lat="42.5048860" lon="-8.6497690">
        <ele>114.5</ele>
        <time>2021-05-22T08:57:58Z</time>
      </trkpt>
      <trkpt lat="42.5048910" lon="-8.6497680">
        <ele>114.5</ele>
        <time>2021-05-22T08:57:59Z</time>
      </trkpt>
      <trkpt lat="42.5048930" lon="-8.6497680">
        <ele>114.5</ele>
        <time>2021-05-22T08:58:00Z</time>
      </trkpt>
      <trkpt lat="42.5048930" lon="-8.6497700">
        <ele>114.5</ele>
        <time>2021-05-22T08:58:01Z</time>
      </trkpt>
      <trkpt lat="42.5048930" lon="-8.6497710">
        <ele>114.5</ele>
        <time>2021-05-22T08:58:02Z</time>
      </trkpt>
      <trkpt lat="42.5048910" lon="-8.6497710">
        <ele>114.5</ele>
        <time>2021-05-22T08:58:03Z</time>
      </trkpt>
      <trkpt lat="42.5048880" lon="-8.6497720">
        <ele>114.5</ele>
        <time>2021-05-22T08:58:04Z</time>
      </trkpt>
      <trkpt lat="42.5048890" lon="-8.6497640">
        <ele>114.4</ele>
        <time>2021-05-22T08:58:05Z</time>
      </trkpt>
      <trkpt lat="42.5048920" lon="-8.6497540">
        <ele>114.4</ele>
        <time>2021-05-22T08:58:06Z</time>
      </trkpt>
      <trkpt lat="42.5048940" lon="-8.6497490">
        <ele>114.4</ele>
        <time>2021-05-22T08:58:07Z</time>
      </trkpt>
      <trkpt lat="42.5048950" lon="-8.6497460">
        <ele>114.4</ele>
        <time>2021-05-22T08:58:08Z</time>
      </trkpt>
      <trkpt lat="42.5048960" lon="-8.6497400">
        <ele>114.4</ele>
        <time>2021-05-22T08:58:09Z</time>
      </trkpt>
      <trkpt lat="42.5048920" lon="-8.6497360">
        <ele>114.4</ele>
        <time>2021-05-22T08:58:10Z</time>
      </trkpt>
      <trkpt lat="42.5048930" lon="-8.6497330">
        <ele>114.3</ele>
        <time>2021-05-22T08:58:11Z</time>
      </trkpt>
      <trkpt lat="42.5048990" lon="-8.6497300">
        <ele>114.3</ele>
        <time>2021-05-22T08:58:12Z</time>
      </trkpt>
      <trkpt lat="42.5048970" lon="-8.6497230">
        <ele>114.3</ele>
        <time>2021-05-22T08:58:13Z</time>
      </trkpt>
      <trkpt lat="42.5048910" lon="-8.6497220">
        <ele>114.3</ele>
        <time>2021-05-22T08:58:14Z</time>
      </trkpt>
      <trkpt lat="42.5048870" lon="-8.6497180">
        <ele>114.3</ele>
        <time>2021-05-22T08:58:15Z</time>
      </trkpt>
      <trkpt lat="42.5048750" lon="-8.6497040">
        <ele>114.2</ele>
        <time>2021-05-22T08:58:16Z</time>
      </trkpt>
      <trkpt lat="42.5048890" lon="-8.6496680">
        <ele>114.1</ele>
        <time>2021-05-22T08:58:17Z</time>
      </trkpt>
      <trkpt lat="42.5048980" lon="-8.6496530">
        <ele>114.1</ele>
        <time>2021-05-22T08:58:18Z</time>
      </trkpt>
      <trkpt lat="42.5048990" lon="-8.6496300">
        <ele>114.0</ele>
        <time>2021-05-22T08:58:19Z</time>
      </trkpt>
      <trkpt lat="42.5048920" lon="-8.6496090">
        <ele>114.0</ele>
        <time>2021-05-22T08:58:20Z</time>
      </trkpt>
      <trkpt lat="42.5048860" lon="-8.6495710">
        <ele>113.9</ele>
        <time>2021-05-22T08:58:21Z</time>
      </trkpt>
      <trkpt lat="42.5048860" lon="-8.6495590">
        <ele>113.8</ele>
        <time>2021-05-22T08:58:22Z</time>
      </trkpt>
      <trkpt lat="42.5048790" lon="-8.6495420">
        <ele>113.8</ele>
        <time>2021-05-22T08:58:23Z</time>
      </trkpt>
      <trkpt lat="42.5048740" lon="-8.6495350">
        <ele>113.8</ele>
        <time>2021-05-22T08:58:24Z</time>
      </trkpt>
      <trkpt lat="42.5048580" lon="-8.6495490">
        <ele>113.7</ele>
        <time>2021-05-22T08:58:25Z</time>
      </trkpt>
      <trkpt lat="42.5048530" lon="-8.6495610">
        <ele>113.7</ele>
        <time>2021-05-22T08:58:26Z</time>
      </trkpt>
      <trkpt lat="42.5048500" lon="-8.6495710">
        <ele>113.7</ele>
        <time>2021-05-22T08:58:27Z</time>
      </trkpt>
      <trkpt lat="42.5048430" lon="-8.6495840">
        <ele>113.6</ele>
        <time>2021-05-22T08:58:28Z</time>
      </trkpt>
      <trkpt lat="42.5048420" lon="-8.6495920">
        <ele>113.6</ele>
        <time>2021-05-22T08:58:29Z</time>
      </trkpt>
      <trkpt lat="42.5048380" lon="-8.6496030">
        <ele>113.6</ele>
        <time>2021-05-22T08:58:30Z</time>
      </trkpt>
      <trkpt lat="42.5048380" lon="-8.6496080">
        <ele>113.6</ele>
        <time>2021-05-22T08:58:31Z</time>
      </trkpt>
      <trkpt lat="42.5048430" lon="-8.6496090">
        <ele>113.5</ele>
        <time>2021-05-22T08:58:32Z</time>
      </trkpt>
      <trkpt lat="42.5048430" lon="-8.6496140">
        <ele>113.5</ele>
        <time>2021-05-22T08:58:33Z</time>
      </trkpt>
      <trkpt lat="42.5048450" lon="-8.6496160">
        <ele>113.5</ele>
        <time>2021-05-22T08:58:34Z</time>
      </trkpt>
      <trkpt lat="42.5048450" lon="-8.6496230">
        <ele>113.5</ele>
        <time>2021-05-22T08:58:35Z</time>
      </trkpt>
      <trkpt lat="42.5048360" lon="-8.6496350">
        <ele>113.5</ele>
        <time>2021-05-22T08:58:36Z</time>
      </trkpt>
      <trkpt lat="42.5048300" lon="-8.6496380">
        <ele>113.4</ele>
        <time>2021-05-22T08:58:37Z</time>
      </trkpt>
      <trkpt lat="42.5048240" lon="-8.6496460">
        <ele>113.4</ele>
        <time>2021-05-22T08:58:38Z</time>
      </trkpt>
      <trkpt lat="42.5048250" lon="-8.6496550">
        <ele>113.4</ele>
        <time>2021-05-22T08:58:39Z</time>
      </trkpt>
      <trkpt lat="42.5048240" lon="-8.6496710">
        <ele>113.4</ele>
        <time>2021-05-22T08:58:40Z</time>
      </trkpt>
      <trkpt lat="42.5048250" lon="-8.6496810">
        <ele>113.3</ele>
        <time>2021-05-22T08:58:41Z</time>
      </trkpt>
      <trkpt lat="42.5048210" lon="-8.6496980">
        <ele>113.3</ele>
        <time>2021-05-22T08:58:42Z</time>
      </trkpt>
      <trkpt lat="42.5048200" lon="-8.6497080">
        <ele>113.3</ele>
        <time>2021-05-22T08:58:43Z</time>
      </trkpt>
      <trkpt lat="42.5048180" lon="-8.6497190">
        <ele>113.2</ele>
        <time>2021-05-22T08:58:44Z</time>
      </trkpt>
      <trkpt lat="42.5048180" lon="-8.6497200">
        <ele>113.2</ele>
        <time>2021-05-22T08:58:45Z</time>
      </trkpt>
      <trkpt lat="42.5048240" lon="-8.6497290">
        <ele>113.2</ele>
        <time>2021-05-22T08:58:46Z</time>
      </trkpt>
      <trkpt lat="42.5048300" lon="-8.6497330">
        <ele>113.2</ele>
        <time>2021-05-22T08:58:47Z</time>
      </trkpt>
      <trkpt lat="42.5048330" lon="-8.6497370">
        <ele>113.2</ele>
        <time>2021-05-22T08:58:48Z</time>
      </trkpt>
      <trkpt lat="42.5048370" lon="-8.6497420">
        <ele>113.1</ele>
        <time>2021-05-22T08:58:49Z</time>
      </trkpt>
      <trkpt lat="42.5048410" lon="-8.6497450">
        <ele>113.1</ele>
        <time>2021-05-22T08:58:50Z</time>
      </trkpt>
      <trkpt lat="42.5048420" lon="-8.6497480">
        <ele>113.1</ele>
        <time>2021-05-22T08:58:51Z</time>
      </trkpt>
      <trkpt lat="42.5048470" lon="-8.6497490">
        <ele>113.1</ele>
        <time>2021-05-22T08:58:52Z</time>
      </trkpt>
      <trkpt lat="42.5048500" lon="-8.6497500">
        <ele>113.1</ele>
        <time>2021-05-22T08:58:53Z</time>
      </trkpt>
      <trkpt lat="42.5048550" lon="-8.6497520">
        <ele>113.1</ele>
        <time>2021-05-22T08:58:54Z</time>
      </trkpt>
      <trkpt lat="42.5048610" lon="-8.6497510">
        <ele>113.1</ele>
        <time>2021-05-22T08:58:55Z</time>
      </trkpt>
      <trkpt lat="42.5048730" lon="-8.6497600">
        <ele>113.0</ele>
        <time>2021-05-22T08:58:56Z</time>
      </trkpt>
      <trkpt lat="42.5048770" lon="-8.6497620">
        <ele>113.0</ele>
        <time>2021-05-22T08:58:57Z</time>
      </trkpt>
      <trkpt lat="42.5048860" lon="-8.6497720">
        <ele>113.0</ele>
        <time>2021-05-22T08:58:58Z</time>
      </trkpt>
      <trkpt lat="42.5048980" lon="-8.6497800">
        <ele>112.9</ele>
        <time>2021-05-22T08:58:59Z</time>
      </trkpt>
      <trkpt lat="42.5049040" lon="-8.6497850">
        <ele>112.9</ele>
        <time>2021-05-22T08:59:00Z</time>
      </trkpt>
      <trkpt lat="42.5049110" lon="-8.6497910">
        <ele>112.9</ele>
        <time>2021-05-22T08:59:01Z</time>
      </trkpt>
      <trkpt lat="42.5049170" lon="-8.6497970">
        <ele>112.8</ele>
        <time>2021-05-22T08:59:02Z</time>
      </trkpt>
      <trkpt lat="42.5049270" lon="-8.6498000">
        <ele>112.8</ele>
        <time>2021-05-22T08:59:03Z</time>
      </trkpt>
      <trkpt lat="42.5049340" lon="-8.6498040">
        <ele>112.8</ele>
        <time>2021-05-22T08:59:04Z</time>
      </trkpt>
      <trkpt lat="42.5049470" lon="-8.6498000">
        <ele>112.7</ele>
        <time>2021-05-22T08:59:05Z</time>
      </trkpt>
      <trkpt lat="42.5049540" lon="-8.6498000">
        <ele>112.7</ele>
        <time>2021-05-22T08:59:06Z</time>
      </trkpt>
      <trkpt lat="42.5049610" lon="-8.6498070">
        <ele>112.7</ele>
        <time>2021-05-22T08:59:07Z</time>
      </trkpt>
      <trkpt lat="42.5049640" lon="-8.6498070">
        <ele>112.7</ele>
        <time>2021-05-22T08:59:08Z</time>
      </trkpt>
      <trkpt lat="42.5049640" lon="-8.6498030">
        <ele>112.7</ele>
        <time>2021-05-22T08:59:09Z</time>
      </trkpt>
      <trkpt lat="42.5049670" lon="-8.6497990">
        <ele>112.7</ele>
        <time>2021-05-22T08:59:10Z</time>
      </trkpt>
      <trkpt lat="42.5049670" lon="-8.6497940">
        <ele>112.6</ele>
        <time>2021-05-22T08:59:11Z</time>
      </trkpt>
      <trkpt lat="42.5049680" lon="-8.6497920">
        <ele>112.6</ele>
        <time>2021-05-22T08:59:12Z</time>
      </trkpt>
      <trkpt lat="42.5049700" lon="-8.6497870">
        <ele>112.6</ele>
        <time>2021-05-22T08:59:13Z</time>
      </trkpt>
      <trkpt lat="42.5049730" lon="-8.6497870">
        <ele>112.6</ele>
        <time>2021-05-22T08:59:14Z</time>
      </trkpt>
      <trkpt lat="42.5049850" lon="-8.6497830">
        <ele>112.6</ele>
        <time>2021-05-22T08:59:15Z</time>
      </trkpt>
      <trkpt lat="42.5049940" lon="-8.6497830">
        <ele>112.5</ele>
        <time>2021-05-22T08:59:16Z</time>
      </trkpt>
      <trkpt lat="42.5050020" lon="-8.6497840">
        <ele>112.5</ele>
        <time>2021-05-22T08:59:17Z</time>
      </trkpt>
      <trkpt lat="42.5050110" lon="-8.6497840">
        <ele>112.5</ele>
        <time>2021-05-22T08:59:18Z</time>
      </trkpt>
      <trkpt lat="42.5050090" lon="-8.6497850">
        <ele>112.5</ele>
        <time>2021-05-22T08:59:19Z</time>
      </trkpt>
      <trkpt lat="42.5050150" lon="-8.6497830">
        <ele>112.5</ele>
        <time>2021-05-22T08:59:20Z</time>
      </trkpt>
      <trkpt lat="42.5050260" lon="-8.6497880">
        <ele>112.4</ele>
        <time>2021-05-22T08:59:21Z</time>
      </trkpt>
      <trkpt lat="42.5050410" lon="-8.6497740">
        <ele>112.4</ele>
        <time>2021-05-22T08:59:22Z</time>
      </trkpt>
      <trkpt lat="42.5050520" lon="-8.6497660">
        <ele>112.3</ele>
        <time>2021-05-22T08:59:23Z</time>
      </trkpt>
      <trkpt lat="42.5050550" lon="-8.6497610">
        <ele>112.3</ele>
        <time>2021-05-22T08:59:24Z</time>
      </trkpt>
      <trkpt lat="42.5050590" lon="-8.6497550">
        <ele>112.3</ele>
        <time>2021-05-22T08:59:25Z</time>
      </trkpt>
      <trkpt lat="42.5050620" lon="-8.6497490">
        <ele>112.3</ele>
        <time>2021-05-22T08:59:26Z</time>
      </trkpt>
      <trkpt lat="42.5050650" lon="-8.6497440">
        <ele>112.2</ele>
        <time>2021-05-22T08:59:27Z</time>
      </trkpt>
      <trkpt lat="42.5050680" lon="-8.6497380">
        <ele>112.2</ele>
        <time>2021-05-22T08:59:28Z</time>
      </trkpt>
      <trkpt lat="42.5050780" lon="-8.6497270">
        <ele>112.2</ele>
        <time>2021-05-22T08:59:29Z</time>
      </trkpt>
      <trkpt lat="42.5050870" lon="-8.6497140">
        <ele>112.1</ele>
        <time>2021-05-22T08:59:30Z</time>
      </trkpt>
      <trkpt lat="42.5050940" lon="-8.6497050">
        <ele>112.1</ele>
        <time>2021-05-22T08:59:31Z</time>
      </trkpt>
      <trkpt lat="42.5051050" lon="-8.6496880">
        <ele>112.0</ele>
        <time>2021-05-22T08:59:32Z</time>
      </trkpt>
      <trkpt lat="42.5051100" lon="-8.6496810">
        <ele>112.0</ele>
        <time>2021-05-22T08:59:33Z</time>
      </trkpt>
      <trkpt lat="42.5051160" lon="-8.6496740">
        <ele>112.0</ele>
        <time>2021-05-22T08:59:34Z</time>
      </trkpt>
      <trkpt lat="42.5051210" lon="-8.6496670">
        <ele>112.0</ele>
        <time>2021-05-22T08:59:35Z</time>
      </trkpt>
      <trkpt lat="42.5051260" lon="-8.6496630">
        <ele>111.9</ele>
        <time>2021-05-22T08:59:36Z</time>
      </trkpt>
      <trkpt lat="42.5051350" lon="-8.6496530">
        <ele>111.9</ele>
        <time>2021-05-22T08:59:37Z</time>
      </trkpt>
      <trkpt lat="42.5051430" lon="-8.6496510">
        <ele>111.9</ele>
        <time>2021-05-22T08:59:38Z</time>
      </trkpt>
      <trkpt lat="42.5051530" lon="-8.6496470">
        <ele>111.8</ele>
        <time>2021-05-22T08:59:39Z</time>
      </trkpt>
      <trkpt lat="42.5051610" lon="-8.6496410">
        <ele>111.8</ele>
        <time>2021-05-22T08:59:40Z</time>
      </trkpt>
      <trkpt lat="42.5051700" lon="-8.6496340">
        <ele>111.8</ele>
        <time>2021-05-22T08:59:41Z</time>
      </trkpt>
      <trkpt lat="42.5051800" lon="-8.6496260">
        <ele>111.7</ele>
        <time>2021-05-22T08:59:42Z</time>
      </trkpt>
      <trkpt lat="42.5051910" lon="-8.6496230">
        <ele>111.7</ele>
        <time>2021-05-22T08:59:43Z</time>
      </trkpt>
      <trkpt lat="42.5052130" lon="-8.6496210">
        <ele>111.6</ele>
        <time>2021-05-22T08:59:44Z</time>
      </trkpt>
      <trkpt lat="42.5052160" lon="-8.6496140">
        <ele>111.6</ele>
        <time>2021-05-22T08:59:45Z</time>
      </trkpt>
      <trkpt lat="42.5051950" lon="-8.6496100">
        <ele>111.5</ele>
        <time>2021-05-22T08:59:46Z</time>
      </trkpt>
      <trkpt lat="42.5052120" lon="-8.6495910">
        <ele>111.4</ele>
        <time>2021-05-22T08:59:47Z</time>
      </trkpt>
      <trkpt lat="42.5052190" lon="-8.6495770">
        <ele>111.4</ele>
        <time>2021-05-22T08:59:48Z</time>
      </trkpt>
      <trkpt lat="42.5052290" lon="-8.6495780">
        <ele>111.3</ele>
        <time>2021-05-22T08:59:49Z</time>
      </trkpt>
      <trkpt lat="42.5052410" lon="-8.6495840">
        <ele>111.3</ele>
        <time>2021-05-22T08:59:50Z</time>
      </trkpt>
      <trkpt lat="42.5052520" lon="-8.6495890">
        <ele>111.3</ele>
        <time>2021-05-22T08:59:51Z</time>
      </trkpt>
      <trkpt lat="42.5052630" lon="-8.6495950">
        <ele>111.2</ele>
        <time>2021-05-22T08:59:52Z</time>
      </trkpt>
      <trkpt lat="42.5052790" lon="-8.6496040">
        <ele>111.2</ele>
        <time>2021-05-22T08:59:53Z</time>
      </trkpt>
      <trkpt lat="42.5052850" lon="-8.6496050">
        <ele>111.1</ele>
        <time>2021-05-22T08:59:54Z</time>
      </trkpt>
      <trkpt lat="42.5052960" lon="-8.6496010">
        <ele>111.1</ele>
        <time>2021-05-22T08:59:55Z</time>
      </trkpt>
      <trkpt lat="42.5053040" lon="-8.6495940">
        <ele>111.1</ele>
        <time>2021-05-22T08:59:56Z</time>
      </trkpt>
      <trkpt lat="42.5053100" lon="-8.6495920">
        <ele>111.0</ele>
        <time>2021-05-22T08:59:57Z</time>
      </trkpt>
      <trkpt lat="42.5053250" lon="-8.6495880">
        <ele>111.0</ele>
        <time>2021-05-22T08:59:58Z</time>
      </trkpt>
      <trkpt lat="42.5053360" lon="-8.6495840">
        <ele>110.9</ele>
        <time>2021-05-22T08:59:59Z</time>
      </trkpt>
      <trkpt lat="42.5053410" lon="-8.6495800">
        <ele>110.9</ele>
        <time>2021-05-22T09:00:00Z</time>
      </trkpt>
      <trkpt lat="42.5053520" lon="-8.6495710">
        <ele>110.9</ele>
        <time>2021-05-22T09:00:01Z</time>
      </trkpt>
      <trkpt lat="42.5053610" lon="-8.6495660">
        <ele>110.8</ele>
        <time>2021-05-22T09:00:02Z</time>
      </trkpt>
      <trkpt lat="42.5053770" lon="-8.6495570">
        <ele>110.8</ele>
        <time>2021-05-22T09:00:03Z</time>
      </trkpt>
      <trkpt lat="42.5053850" lon="-8.6495520">
        <ele>110.7</ele>
        <time>2021-05-22T09:00:04Z</time>
      </trkpt>
      <trkpt lat="42.5053940" lon="-8.6495450">
        <ele>110.7</ele>
        <time>2021-05-22T09:00:05Z</time>
      </trkpt>
      <trkpt lat="42.5054030" lon="-8.6495390">
        <ele>110.7</ele>
        <time>2021-05-22T09:00:06Z</time>
      </trkpt>
      <trkpt lat="42.5054100" lon="-8.6495460">
        <ele>110.6</ele>
        <time>2021-05-22T09:00:07Z</time>
      </trkpt>
      <trkpt lat="42.5054160" lon="-8.6495430">
        <ele>110.6</ele>
        <time>2021-05-22T09:00:08Z</time>
      </trkpt>
      <trkpt lat="42.5054220" lon="-8.6495290">
        <ele>110.6</ele>
        <time>2021-05-22T09:00:09Z</time>
      </trkpt>
      <trkpt lat="42.5054240" lon="-8.6495260">
        <ele>110.6</ele>
        <time>2021-05-22T09:00:10Z</time>
      </trkpt>
      <trkpt lat="42.5054250" lon="-8.6495270">
        <ele>110.6</ele>
        <time>2021-05-22T09:00:11Z</time>
      </trkpt>
      <trkpt lat="42.5054420" lon="-8.6495170">
        <ele>110.5</ele>
        <time>2021-05-22T09:00:12Z</time>
      </trkpt>
      <trkpt lat="42.5054490" lon="-8.6495160">
        <ele>110.5</ele>
        <time>2021-05-22T09:00:13Z</time>
      </trkpt>
      <trkpt lat="42.5054580" lon="-8.6495090">
        <ele>110.5</ele>
        <time>2021-05-22T09:00:14Z</time>
      </trkpt>
      <trkpt lat="42.5054660" lon="-8.6495050">
        <ele>110.4</ele>
        <time>2021-05-22T09:00:15Z</time>
      </trkpt>
      <trkpt lat="42.5054760" lon="-8.6494970">
        <ele>110.4</ele>
        <time>2021-05-22T09:00:16Z</time>
      </trkpt>
      <trkpt lat="42.5054850" lon="-8.6494900">
        <ele>110.4</ele>
        <time>2021-05-22T09:00:17Z</time>
      </trkpt>
      <trkpt lat="42.5054950" lon="-8.6494880">
        <ele>110.3</ele>
        <time>2021-05-22T09:00:18Z</time>
      </trkpt>
      <trkpt lat="42.5055060" lon="-8.6494860">
        <ele>110.3</ele>
        <time>2021-05-22T09:00:19Z</time>
      </trkpt>
      <trkpt lat="42.5055180" lon="-8.6494790">
        <ele>110.2</ele>
        <time>2021-05-22T09:00:20Z</time>
      </trkpt>
      <trkpt lat="42.5055340" lon="-8.6494740">
        <ele>110.2</ele>
        <time>2021-05-22T09:00:21Z</time>
      </trkpt>
      <trkpt lat="42.5055400" lon="-8.6494700">
        <ele>110.2</ele>
        <time>2021-05-22T09:00:22Z</time>
      </trkpt>
      <trkpt lat="42.5055450" lon="-8.6494630">
        <ele>110.2</ele>
        <time>2021-05-22T09:00:23Z</time>
      </trkpt>
      <trkpt lat="42.5055530" lon="-8.6494560">
        <ele>110.1</ele>
        <time>2021-05-22T09:00:24Z</time>
      </trkpt>
      <trkpt lat="42.5055640" lon="-8.6494470">
        <ele>110.1</ele>
        <time>2021-05-22T09:00:25Z</time>
      </trkpt>
      <trkpt lat="42.5055880" lon="-8.6494250">
        <ele>110.0</ele>
        <time>2021-05-22T09:00:26Z</time>
      </trkpt>
      <trkpt lat="42.5055940" lon="-8.6494180">
        <ele>110.0</ele>
        <time>2021-05-22T09:00:27Z</time>
      </trkpt>
      <trkpt lat="42.5056090" lon="-8.6494170">
        <ele>109.9</ele>
        <time>2021-05-22T09:00:28Z</time>
      </trkpt>
      <trkpt lat="42.5056220" lon="-8.6494090">
        <ele>109.9</ele>
        <time>2021-05-22T09:00:29Z</time>
      </trkpt>
      <trkpt lat="42.5056400" lon="-8.6493970">
        <ele>109.8</ele>
        <time>2021-05-22T09:00:30Z</time>
      </trkpt>
      <trkpt lat="42.5056490" lon="-8.6493920">
        <ele>109.8</ele>
        <time>2021-05-22T09:00:31Z</time>
      </trkpt>
      <trkpt lat="42.5056570" lon="-8.6493880">
        <ele>109.8</ele>
        <time>2021-05-22T09:00:32Z</time>
      </trkpt>
      <trkpt lat="42.5056680" lon="-8.6493750">
        <ele>109.7</ele>
        <time>2021-05-22T09:00:33Z</time>
      </trkpt>
      <trkpt lat="42.5056780" lon="-8.6493610">
        <ele>109.7</ele>
        <time>2021-05-22T09:00:34Z</time>
      </trkpt>
      <trkpt lat="42.5056870" lon="-8.6493530">
        <ele>109.6</ele>
        <time>2021-05-22T09:00:35Z</time>
      </trkpt>
      <trkpt lat="42.5056870" lon="-8.6493410">
        <ele>109.6</ele>
        <time>2021-05-22T09:00:36Z</time>
      </trkpt>
      <trkpt lat="42.5056970" lon="-8.6493330">
        <ele>109.6</ele>
        <time>2021-05-22T09:00:37Z</time>
      </trkpt>
      <trkpt lat="42.5057120" lon="-8.6493250">
        <ele>109.5</ele>
        <time>2021-05-22T09:00:38Z</time>
      </trkpt>
      <trkpt lat="42.5057250" lon="-8.6493140">
        <ele>109.5</ele>
        <time>2021-05-22T09:00:39Z</time>
      </trkpt>
      <trkpt lat="42.5057460" lon="-8.6492990">
        <ele>109.4</ele>
        <time>2021-05-22T09:00:40Z</time>
      </trkpt>
      <trkpt lat="42.5057540" lon="-8.6492960">
        <ele>109.4</ele>
        <time>2021-05-22T09:00:41Z</time>
      </trkpt>
      <trkpt lat="42.5057610" lon="-8.6492940">
        <ele>109.3</ele>
        <time>2021-05-22T09:00:42Z</time>
      </trkpt>
      <trkpt lat="42.5057770" lon="-8.6492900">
        <ele>109.3</ele>
        <time>2021-05-22T09:00:43Z</time>
      </trkpt>
      <trkpt lat="42.5057850" lon="-8.6492880">
        <ele>109.3</ele>
        <time>2021-05-22T09:00:44Z</time>
      </trkpt>
      <trkpt lat="42.5057920" lon="-8.6492850">
        <ele>109.2</ele>
        <time>2021-05-22T09:00:45Z</time>
      </trkpt>
      <trkpt lat="42.5057990" lon="-8.6492820">
        <ele>109.2</ele>
        <time>2021-05-22T09:00:46Z</time>
      </trkpt>
      <trkpt lat="42.5058210" lon="-8.6492740">
        <ele>109.1</ele>
        <time>2021-05-22T09:00:47Z</time>
      </trkpt>
      <trkpt lat="42.5058310" lon="-8.6492720">
        <ele>109.1</ele>
        <time>2021-05-22T09:00:48Z</time>
      </trkpt>
      <trkpt lat="42.5058400" lon="-8.6492690">
        <ele>109.1</ele>
        <time>2021-05-22T09:00:49Z</time>
      </trkpt>
      <trkpt lat="42.5058630" lon="-8.6492670">
        <ele>109.0</ele>
        <time>2021-05-22T09:00:50Z</time>
      </trkpt>
      <trkpt lat="42.5058720" lon="-8.6492650">
        <ele>109.0</ele>
        <time>2021-05-22T09:00:51Z</time>
      </trkpt>
      <trkpt lat="42.5058800" lon="-8.6492640">
        <ele>109.0</ele>
        <time>2021-05-22T09:00:52Z</time>
      </trkpt>
      <trkpt lat="42.5058900" lon="-8.6492570">
        <ele>108.9</ele>
        <time>2021-05-22T09:00:53Z</time>
      </trkpt>
      <trkpt lat="42.5059040" lon="-8.6492550">
        <ele>108.9</ele>
        <time>2021-05-22T09:00:54Z</time>
      </trkpt>
      <trkpt lat="42.5059110" lon="-8.6492510">
        <ele>108.9</ele>
        <time>2021-05-22T09:00:55Z</time>
      </trkpt>
      <trkpt lat="42.5059200" lon="-8.6492450">
        <ele>108.8</ele>
        <time>2021-05-22T09:00:56Z</time>
      </trkpt>
      <trkpt lat="42.5059300" lon="-8.6492450">
        <ele>108.8</ele>
        <time>2021-05-22T09:00:57Z</time>
      </trkpt>
      <trkpt lat="42.5059390" lon="-8.6492380">
        <ele>108.8</ele>
        <time>2021-05-22T09:00:58Z</time>
      </trkpt>
      <trkpt lat="42.5059480" lon="-8.6492330">
        <ele>108.7</ele>
        <time>2021-05-22T09:00:59Z</time>
      </trkpt>
      <trkpt lat="42.5059590" lon="-8.6492280">
        <ele>108.7</ele>
        <time>2021-05-22T09:01:00Z</time>
      </trkpt>
      <trkpt lat="42.5059730" lon="-8.6492240">
        <ele>108.7</ele>
        <time>2021-05-22T09:01:01Z</time>
      </trkpt>
      <trkpt lat="42.5059790" lon="-8.6492250">
        <ele>108.6</ele>
        <time>2021-05-22T09:01:02Z</time>
      </trkpt>
      <trkpt lat="42.5059910" lon="-8.6492240">
        <ele>108.6</ele>
        <time>2021-05-22T09:01:03Z</time>
      </trkpt>
      <trkpt lat="42.5060010" lon="-8.6492230">
        <ele>108.6</ele>
        <time>2021-05-22T09:01:04Z</time>
      </trkpt>
      <trkpt lat="42.5060160" lon="-8.6492270">
        <ele>108.5</ele>
        <time>2021-05-22T09:01:05Z</time>
      </trkpt>
      <trkpt lat="42.5060220" lon="-8.6492250">
        <ele>108.5</ele>
        <time>2021-05-22T09:01:06Z</time>
      </trkpt>
      <trkpt lat="42.5060360" lon="-8.6492220">
        <ele>108.4</ele>
        <time>2021-05-22T09:01:07Z</time>
      </trkpt>
      <trkpt lat="42.5060530" lon="-8.6492200">
        <ele>108.4</ele>
        <time>2021-05-22T09:01:08Z</time>
      </trkpt>
      <trkpt lat="42.5060680" lon="-8.6492190">
        <ele>108.3</ele>
        <time>2021-05-22T09:01:09Z</time>
      </trkpt>
      <trkpt lat="42.5060770" lon="-8.6492140">
        <ele>108.3</ele>
        <time>2021-05-22T09:01:10Z</time>
      </trkpt>
      <trkpt lat="42.5060870" lon="-8.6492100">
        <ele>108.3</ele>
        <time>2021-05-22T09:01:11Z</time>
      </trkpt>
      <trkpt lat="42.5060990" lon="-8.6492080">
        <ele>108.2</ele>
        <time>2021-05-22T09:01:12Z</time>
      </trkpt>
      <trkpt lat="42.5061090" lon="-8.6492050">
        <ele>108.2</ele>
        <time>2021-05-22T09:01:13Z</time>
      </trkpt>
      <trkpt lat="42.5061210" lon="-8.6491970">
        <ele>108.2</ele>
        <time>2021-05-22T09:01:14Z</time>
      </trkpt>
      <trkpt lat="42.5061320" lon="-8.6491930">
        <ele>108.1</ele>
        <time>2021-05-22T09:01:15Z</time>
      </trkpt>
      <trkpt lat="42.5061410" lon="-8.6491800">
        <ele>108.1</ele>
        <time>2021-05-22T09:01:16Z</time>
      </trkpt>
      <trkpt lat="42.5061550" lon="-8.6491730">
        <ele>108.0</ele>
        <time>2021-05-22T09:01:17Z</time>
      </trkpt>
      <trkpt lat="42.5061670" lon="-8.6491580">
        <ele>108.0</ele>
        <time>2021-05-22T09:01:18Z</time>
      </trkpt>
      <trkpt lat="42.5061730" lon="-8.6491450">
        <ele>108.0</ele>
        <time>2021-05-22T09:01:19Z</time>
      </trkpt>
      <trkpt lat="42.5061790" lon="-8.6491330">
        <ele>107.9</ele>
        <time>2021-05-22T09:01:20Z</time>
      </trkpt>
      <trkpt lat="42.5061740" lon="-8.6491100">
        <ele>107.9</ele>
        <time>2021-05-22T09:01:21Z</time>
      </trkpt>
      <trkpt lat="42.5061740" lon="-8.6490960">
        <ele>107.8</ele>
        <time>2021-05-22T09:01:22Z</time>
      </trkpt>
      <trkpt lat="42.5061740" lon="-8.6490830">
        <ele>107.8</ele>
        <time>2021-05-22T09:01:23Z</time>
      </trkpt>
      <trkpt lat="42.5061740" lon="-8.6490740">
        <ele>107.8</ele>
        <time>2021-05-22T09:01:24Z</time>
      </trkpt>
      <trkpt lat="42.5061740" lon="-8.6490710">
        <ele>107.8</ele>
        <time>2021-05-22T09:01:25Z</time>
      </trkpt>
      <trkpt lat="42.5061800" lon="-8.6490620">
        <ele>107.8</ele>
        <time>2021-05-22T09:01:26Z</time>
      </trkpt>
      <trkpt lat="42.5061840" lon="-8.6490560">
        <ele>107.7</ele>
        <time>2021-05-22T09:01:27Z</time>
      </trkpt>
      <trkpt lat="42.5061890" lon="-8.6490450">
        <ele>107.7</ele>
        <time>2021-05-22T09:01:28Z</time>
      </trkpt>
      <trkpt lat="42.5061940" lon="-8.6490370">
        <ele>107.7</ele>
        <time>2021-05-22T09:01:29Z</time>
      </trkpt>
      <trkpt lat="42.5062000" lon="-8.6490190">
        <ele>107.6</ele>
        <time>2021-05-22T09:01:30Z</time>
      </trkpt>
      <trkpt lat="42.5062030" lon="-8.6490130">
        <ele>107.6</ele>
        <time>2021-05-22T09:01:31Z</time>
      </trkpt>
      <trkpt lat="42.5062140" lon="-8.6490040">
        <ele>107.6</ele>
        <time>2021-05-22T09:01:32Z</time>
      </trkpt>
      <trkpt lat="42.5062220" lon="-8.6489940">
        <ele>107.5</ele>
        <time>2021-05-22T09:01:33Z</time>
      </trkpt>
      <trkpt lat="42.5062250" lon="-8.6489940">
        <ele>107.5</ele>
        <time>2021-05-22T09:01:34Z</time>
      </trkpt>
      <trkpt lat="42.5062320" lon="-8.6489920">
        <ele>107.5</ele>
        <time>2021-05-22T09:01:35Z</time>
      </trkpt>
      <trkpt lat="42.5062360" lon="-8.6489810">
        <ele>107.5</ele>
        <time>2021-05-22T09:01:36Z</time>
      </trkpt>
      <trkpt lat="42.5062370" lon="-8.6489750">
        <ele>107.5</ele>
        <time>2021-05-22T09:01:37Z</time>
      </trkpt>
      <trkpt lat="42.5062470" lon="-8.6489610">
        <ele>107.4</ele>
        <time>2021-05-22T09:01:38Z</time>
      </trkpt>
      <trkpt lat="42.5062550" lon="-8.6489540">
        <ele>107.4</ele>
        <time>2021-05-22T09:01:39Z</time>
      </trkpt>
      <trkpt lat="42.5062530" lon="-8.6489480">
        <ele>107.4</ele>
        <time>2021-05-22T09:01:40Z</time>
      </trkpt>
      <trkpt lat="42.5062580" lon="-8.6489360">
        <ele>107.3</ele>
        <time>2021-05-22T09:01:41Z</time>
      </trkpt>
      <trkpt lat="42.5062670" lon="-8.6489240">
        <ele>107.3</ele>
        <time>2021-05-22T09:01:42Z</time>
      </trkpt>
      <trkpt lat="42.5062920" lon="-8.6488990">
        <ele>107.2</ele>
        <time>2021-05-22T09:01:43Z</time>
      </trkpt>
      <trkpt lat="42.5063000" lon="-8.6488910">
        <ele>107.2</ele>
        <time>2021-05-22T09:01:44Z</time>
      </trkpt>
      <trkpt lat="42.5063140" lon="-8.6488800">
        <ele>107.1</ele>
        <time>2021-05-22T09:01:45Z</time>
      </trkpt>
      <trkpt lat="42.5063240" lon="-8.6488720">
        <ele>107.1</ele>
        <time>2021-05-22T09:01:46Z</time>
      </trkpt>
      <trkpt lat="42.5063310" lon="-8.6488680">
        <ele>107.1</ele>
        <time>2021-05-22T09:01:47Z</time>
      </trkpt>
      <trkpt lat="42.5063390" lon="-8.6488530">
        <ele>107.0</ele>
        <time>2021-05-22T09:01:48Z</time>
      </trkpt>
      <trkpt lat="42.5063520" lon="-8.6488480">
        <ele>107.0</ele>
        <time>2021-05-22T09:01:49Z</time>
      </trkpt>
      <trkpt lat="42.5063730" lon="-8.6488340">
        <ele>106.9</ele>
        <time>2021-05-22T09:01:50Z</time>
      </trkpt>
      <trkpt lat="42.5063800" lon="-8.6488300">
        <ele>106.9</ele>
        <time>2021-05-22T09:01:51Z</time>
      </trkpt>
      <trkpt lat="42.5063870" lon="-8.6488250">
        <ele>106.8</ele>
        <time>2021-05-22T09:01:52Z</time>
      </trkpt>
      <trkpt lat="42.5063990" lon="-8.6488150">
        <ele>106.8</ele>
        <time>2021-05-22T09:01:53Z</time>
      </trkpt>
      <trkpt lat="42.5064120" lon="-8.6488100">
        <ele>106.7</ele>
        <time>2021-05-22T09:01:54Z</time>
      </trkpt>
      <trkpt lat="42.5064340" lon="-8.6488020">
        <ele>106.7</ele>
        <time>2021-05-22T09:01:55Z</time>
      </trkpt>
      <trkpt lat="42.5064440" lon="-8.6487970">
        <ele>106.6</ele>
        <time>2021-05-22T09:01:56Z</time>
      </trkpt>
      <trkpt lat="42.5064540" lon="-8.6487930">
        <ele>106.6</ele>
        <time>2021-05-22T09:01:57Z</time>
      </trkpt>
      <trkpt lat="42.5064670" lon="-8.6487810">
        <ele>106.6</ele>
        <time>2021-05-22T09:01:58Z</time>
      </trkpt>
      <trkpt lat="42.5064770" lon="-8.6487760">
        <ele>106.5</ele>
        <time>2021-05-22T09:01:59Z</time>
      </trkpt>
      <trkpt lat="42.5064860" lon="-8.6487700">
        <ele>106.5</ele>
        <time>2021-05-22T09:02:00Z</time>
      </trkpt>
      <trkpt lat="42.5064970" lon="-8.6487750">
        <ele>106.4</ele>
        <time>2021-05-22T09:02:01Z</time>
      </trkpt>
      <trkpt lat="42.5065080" lon="-8.6487740">
        <ele>106.4</ele>
        <time>2021-05-22T09:02:02Z</time>
      </trkpt>
      <trkpt lat="42.5065170" lon="-8.6487680">
        <ele>106.4</ele>
        <time>2021-05-22T09:02:03Z</time>
      </trkpt>
      <trkpt lat="42.5065310" lon="-8.6487700">
        <ele>106.3</ele>
        <time>2021-05-22T09:02:04Z</time>
      </trkpt>
      <trkpt lat="42.5065440" lon="-8.6487680">
        <ele>106.3</ele>
        <time>2021-05-22T09:02:05Z</time>
      </trkpt>
      <trkpt lat="42.5065600" lon="-8.6487670">
        <ele>106.2</ele>
        <time>2021-05-22T09:02:06Z</time>
      </trkpt>
      <trkpt lat="42.5065680" lon="-8.6487670">
        <ele>106.2</ele>
        <time>2021-05-22T09:02:07Z</time>
      </trkpt>
      <trkpt lat="42.5065760" lon="-8.6487680">
        <ele>106.2</ele>
        <time>2021-05-22T09:02:08Z</time>
      </trkpt>
      <trkpt lat="42.5065840" lon="-8.6487680">
        <ele>106.2</ele>
        <time>2021-05-22T09:02:09Z</time>
      </trkpt>
      <trkpt lat="42.5065970" lon="-8.6487690">
        <ele>106.1</ele>
        <time>2021-05-22T09:02:10Z</time>
      </trkpt>
      <trkpt lat="42.5066120" lon="-8.6487700">
        <ele>106.1</ele>
        <time>2021-05-22T09:02:11Z</time>
      </trkpt>
      <trkpt lat="42.5066230" lon="-8.6487790">
        <ele>106.0</ele>
        <time>2021-05-22T09:02:12Z</time>
      </trkpt>
      <trkpt lat="42.5066320" lon="-8.6487790">
        <ele>106.0</ele>
        <time>2021-05-22T09:02:13Z</time>
      </trkpt>
      <trkpt lat="42.5066440" lon="-8.6487710">
        <ele>106.0</ele>
        <time>2021-05-22T09:02:14Z</time>
      </trkpt>
      <trkpt lat="42.5066610" lon="-8.6487900">
        <ele>105.9</ele>
        <time>2021-05-22T09:02:15Z</time>
      </trkpt>
      <trkpt lat="42.5066710" lon="-8.6487930">
        <ele>105.9</ele>
        <time>2021-05-22T09:02:16Z</time>
      </trkpt>
      <trkpt lat="42.5066800" lon="-8.6487960">
        <ele>105.8</ele>
        <time>2021-05-22T09:02:17Z</time>
      </trkpt>
      <trkpt lat="42.5066850" lon="-8.6488110">
        <ele>105.8</ele>
        <time>2021-05-22T09:02:18Z</time>
      </trkpt>
      <trkpt lat="42.5067140" lon="-8.6488090">
        <ele>105.7</ele>
        <time>2021-05-22T09:02:19Z</time>
      </trkpt>
      <trkpt lat="42.5067210" lon="-8.6488150">
        <ele>105.7</ele>
        <time>2021-05-22T09:02:20Z</time>
      </trkpt>
      <trkpt lat="42.5067280" lon="-8.6488180">
        <ele>105.6</ele>
        <time>2021-05-22T09:02:21Z</time>
      </trkpt>
      <trkpt lat="42.5067440" lon="-8.6488220">
        <ele>105.6</ele>
        <time>2021-05-22T09:02:22Z</time>
      </trkpt>
      <trkpt lat="42.5067550" lon="-8.6488230">
        <ele>105.6</ele>
        <time>2021-05-22T09:02:23Z</time>
      </trkpt>
      <trkpt lat="42.5067660" lon="-8.6488230">
        <ele>105.5</ele>
        <time>2021-05-22T09:02:24Z</time>
      </trkpt>
      <trkpt lat="42.5067730" lon="-8.6488220">
        <ele>105.5</ele>
        <time>2021-05-22T09:02:25Z</time>
      </trkpt>
      <trkpt lat="42.5067830" lon="-8.6488280">
        <ele>105.5</ele>
        <time>2021-05-22T09:02:26Z</time>
      </trkpt>
      <trkpt lat="42.5067880" lon="-8.6488300">
        <ele>105.5</ele>
        <time>2021-05-22T09:02:27Z</time>
      </trkpt>
      <trkpt lat="42.5068000" lon="-8.6488190">
        <ele>105.4</ele>
        <time>2021-05-22T09:02:28Z</time>
      </trkpt>
      <trkpt lat="42.5068210" lon="-8.6488080">
        <ele>105.3</ele>
        <time>2021-05-22T09:02:29Z</time>
      </trkpt>
      <trkpt lat="42.5068290" lon="-8.6488060">
        <ele>105.3</ele>
        <time>2021-05-22T09:02:30Z</time>
      </trkpt>
      <trkpt lat="42.5068380" lon="-8.6488050">
        <ele>105.3</ele>
        <time>2021-05-22T09:02:31Z</time>
      </trkpt>
      <trkpt lat="42.5068460" lon="-8.6488090">
        <ele>105.3</ele>
        <time>2021-05-22T09:02:32Z</time>
      </trkpt>
      <trkpt lat="42.5068610" lon="-8.6488220">
        <ele>105.2</ele>
        <time>2021-05-22T09:02:33Z</time>
      </trkpt>
      <trkpt lat="42.5068670" lon="-8.6488290">
        <ele>105.2</ele>
        <time>2021-05-22T09:02:34Z</time>
      </trkpt>
      <trkpt lat="42.5068880" lon="-8.6488370">
        <ele>105.1</ele>
        <time>2021-05-22T09:02:35Z</time>
      </trkpt>
      <trkpt lat="42.5068970" lon="-8.6488440">
        <ele>105.1</ele>
        <time>2021-05-22T09:02:36Z</time>
      </trkpt>
      <trkpt lat="42.5069050" lon="-8.6488490">
        <ele>105.1</ele>
        <time>2021-05-22T09:02:37Z</time>
      </trkpt>
      <trkpt lat="42.5069140" lon="-8.6488490">
        <ele>105.0</ele>
        <time>2021-05-22T09:02:38Z</time>
      </trkpt>
      <trkpt lat="42.5069210" lon="-8.6488640">
        <ele>105.0</ele>
        <time>2021-05-22T09:02:39Z</time>
      </trkpt>
      <trkpt lat="42.5069300" lon="-8.6488690">
        <ele>105.0</ele>
        <time>2021-05-22T09:02:40Z</time>
      </trkpt>
      <trkpt lat="42.5069360" lon="-8.6488730">
        <ele>104.9</ele>
        <time>2021-05-22T09:02:41Z</time>
      </trkpt>
      <trkpt lat="42.5069480" lon="-8.6488840">
        <ele>104.9</ele>
        <time>2021-05-22T09:02:42Z</time>
      </trkpt>
      <trkpt lat="42.5069570" lon="-8.6488880">
        <ele>104.9</ele>
        <time>2021-05-22T09:02:43Z</time>
      </trkpt>
      <trkpt lat="42.5069680" lon="-8.6488860">
        <ele>104.8</ele>
        <time>2021-05-22T09:02:44Z</time>
      </trkpt>
      <trkpt lat="42.5069830" lon="-8.6488850">
        <ele>104.8</ele>
        <time>2021-05-22T09:02:45Z</time>
      </trkpt>
      <trkpt lat="42.5070050" lon="-8.6489000">
        <ele>104.7</ele>
        <time>2021-05-22T09:02:46Z</time>
      </trkpt>
      <trkpt lat="42.5070130" lon="-8.6489100">
        <ele>104.7</ele>
        <time>2021-05-22T09:02:47Z</time>
      </trkpt>
      <trkpt lat="42.5070210" lon="-8.6489190">
        <ele>104.7</ele>
        <time>2021-05-22T09:02:48Z</time>
      </trkpt>
      <trkpt lat="42.5070470" lon="-8.6489490">
        <ele>104.6</ele>
        <time>2021-05-22T09:02:49Z</time>
      </trkpt>
      <trkpt lat="42.5070550" lon="-8.6489560">
        <ele>104.5</ele>
        <time>2021-05-22T09:02:50Z</time>
      </trkpt>
      <trkpt lat="42.5070660" lon="-8.6489720">
        <ele>104.5</ele>
        <time>2021-05-22T09:02:51Z</time>
      </trkpt>
      <trkpt lat="42.5070830" lon="-8.6489760">
        <ele>104.4</ele>
        <time>2021-05-22T09:02:52Z</time>
      </trkpt>
      <trkpt lat="42.5070920" lon="-8.6489770">
        <ele>104.4</ele>
        <time>2021-05-22T09:02:53Z</time>
      </trkpt>
      <trkpt lat="42.5071030" lon="-8.6489700">
        <ele>104.4</ele>
        <time>2021-05-22T09:02:54Z</time>
      </trkpt>
      <trkpt lat="42.5071120" lon="-8.6489670">
        <ele>104.4</ele>
        <time>2021-05-22T09:02:55Z</time>
      </trkpt>
      <trkpt lat="42.5071230" lon="-8.6489620">
        <ele>104.3</ele>
        <time>2021-05-22T09:02:56Z</time>
      </trkpt>
      <trkpt lat="42.5071330" lon="-8.6489630">
        <ele>104.3</ele>
        <time>2021-05-22T09:02:57Z</time>
      </trkpt>
      <trkpt lat="42.5071420" lon="-8.6489640">
        <ele>104.3</ele>
        <time>2021-05-22T09:02:58Z</time>
      </trkpt>
      <trkpt lat="42.5071530" lon="-8.6489710">
        <ele>104.2</ele>
        <time>2021-05-22T09:02:59Z</time>
      </trkpt>
      <trkpt lat="42.5071600" lon="-8.6489680">
        <ele>104.2</ele>
        <time>2021-05-22T09:03:00Z</time>
      </trkpt>
      <trkpt lat="42.5071710" lon="-8.6489690">
        <ele>104.2</ele>
        <time>2021-05-22T09:03:01Z</time>
      </trkpt>
      <trkpt lat="42.5071870" lon="-8.6489670">
        <ele>104.1</ele>
        <time>2021-05-22T09:03:02Z</time>
      </trkpt>
      <trkpt lat="42.5072050" lon="-8.6489660">
        <ele>104.1</ele>
        <time>2021-05-22T09:03:03Z</time>
      </trkpt>
      <trkpt lat="42.5072170" lon="-8.6489660">
        <ele>104.1</ele>
        <time>2021-05-22T09:03:04Z</time>
      </trkpt>
      <trkpt lat="42.5072260" lon="-8.6489630">
        <ele>104.0</ele>
        <time>2021-05-22T09:03:05Z</time>
      </trkpt>
      <trkpt lat="42.5072370" lon="-8.6489500">
        <ele>104.0</ele>
        <time>2021-05-22T09:03:06Z</time>
      </trkpt>
      <trkpt lat="42.5072460" lon="-8.6489570">
        <ele>104.0</ele>
        <time>2021-05-22T09:03:07Z</time>
      </trkpt>
      <trkpt lat="42.5072570" lon="-8.6489550">
        <ele>103.9</ele>
        <time>2021-05-22T09:03:08Z</time>
      </trkpt>
      <trkpt lat="42.5072690" lon="-8.6489530">
        <ele>103.9</ele>
        <time>2021-05-22T09:03:09Z</time>
      </trkpt>
      <trkpt lat="42.5072830" lon="-8.6489440">
        <ele>103.8</ele>
        <time>2021-05-22T09:03:10Z</time>
      </trkpt>
      <trkpt lat="42.5072880" lon="-8.6489420">
        <ele>103.8</ele>
        <time>2021-05-22T09:03:11Z</time>
      </trkpt>
      <trkpt lat="42.5072930" lon="-8.6489420">
        <ele>103.8</ele>
        <time>2021-05-22T09:03:12Z</time>
      </trkpt>
      <trkpt lat="42.5073040" lon="-8.6489440">
        <ele>103.8</ele>
        <time>2021-05-22T09:03:13Z</time>
      </trkpt>
      <trkpt lat="42.5073100" lon="-8.6489440">
        <ele>103.8</ele>
        <time>2021-05-22T09:03:14Z</time>
      </trkpt>
      <trkpt lat="42.5073190" lon="-8.6489400">
        <ele>103.8</ele>
        <time>2021-05-22T09:03:15Z</time>
      </trkpt>
      <trkpt lat="42.5073290" lon="-8.6489320">
        <ele>103.7</ele>
        <time>2021-05-22T09:03:16Z</time>
      </trkpt>
      <trkpt lat="42.5073330" lon="-8.6489260">
        <ele>103.7</ele>
        <time>2021-05-22T09:03:17Z</time>
      </trkpt>
      <trkpt lat="42.5073600" lon="-8.6489190">
        <ele>103.6</ele>
        <time>2021-05-22T09:03:18Z</time>
      </trkpt>
      <trkpt lat="42.5073700" lon="-8.6489170">
        <ele>103.6</ele>
        <time>2021-05-22T09:03:19Z</time>
      </trkpt>
      <trkpt lat="42.5073800" lon="-8.6489160">
        <ele>103.6</ele>
        <time>2021-05-22T09:03:20Z</time>
      </trkpt>
      <trkpt lat="42.5073890" lon="-8.6489150">
        <ele>103.6</ele>
        <time>2021-05-22T09:03:21Z</time>
      </trkpt>
      <trkpt lat="42.5073930" lon="-8.6489060">
        <ele>103.5</ele>
        <time>2021-05-22T09:03:22Z</time>
      </trkpt>
      <trkpt lat="42.5074020" lon="-8.6489030">
        <ele>103.5</ele>
        <time>2021-05-22T09:03:23Z</time>
      </trkpt>
      <trkpt lat="42.5074140" lon="-8.6489050">
        <ele>103.5</ele>
        <time>2021-05-22T09:03:24Z</time>
      </trkpt>
      <trkpt lat="42.5074230" lon="-8.6489000">
        <ele>103.5</ele>
        <time>2021-05-22T09:03:25Z</time>
      </trkpt>
      <trkpt lat="42.5074350" lon="-8.6488900">
        <ele>103.4</ele>
        <time>2021-05-22T09:03:26Z</time>
      </trkpt>
      <trkpt lat="42.5074490" lon="-8.6488870">
        <ele>103.4</ele>
        <time>2021-05-22T09:03:27Z</time>
      </trkpt>
      <trkpt lat="42.5074640" lon="-8.6488770">
        <ele>103.4</ele>
        <time>2021-05-22T09:03:28Z</time>
      </trkpt>
      <trkpt lat="42.5074830" lon="-8.6488670">
        <ele>103.3</ele>
        <time>2021-05-22T09:03:29Z</time>
      </trkpt>
      <trkpt lat="42.5074920" lon="-8.6488630">
        <ele>103.3</ele>
        <time>2021-05-22T09:03:30Z</time>
      </trkpt>
      <trkpt lat="42.5075010" lon="-8.6488590">
        <ele>103.3</ele>
        <time>2021-05-22T09:03:31Z</time>
      </trkpt>
      <trkpt lat="42.5075070" lon="-8.6488510">
        <ele>103.2</ele>
        <time>2021-05-22T09:03:32Z</time>
      </trkpt>
      <trkpt lat="42.5075220" lon="-8.6488540">
        <ele>103.2</ele>
        <time>2021-05-22T09:03:33Z</time>
      </trkpt>
      <trkpt lat="42.5075310" lon="-8.6488490">
        <ele>103.2</ele>
        <time>2021-05-22T09:03:34Z</time>
      </trkpt>
      <trkpt lat="42.5075440" lon="-8.6488450">
        <ele>103.1</ele>
        <time>2021-05-22T09:03:35Z</time>
      </trkpt>
      <trkpt lat="42.5075520" lon="-8.6488340">
        <ele>103.1</ele>
        <time>2021-05-22T09:03:36Z</time>
      </trkpt>
      <trkpt lat="42.5075630" lon="-8.6488280">
        <ele>103.1</ele>
        <time>2021-05-22T09:03:37Z</time>
      </trkpt>
      <trkpt lat="42.5075800" lon="-8.6488280">
        <ele>103.1</ele>
        <time>2021-05-22T09:03:38Z</time>
      </trkpt>
      <trkpt lat="42.5075900" lon="-8.6488270">
        <ele>103.0</ele>
        <time>2021-05-22T09:03:39Z</time>
      </trkpt>
      <trkpt lat="42.5076070" lon="-8.6488390">
        <ele>103.0</ele>
        <time>2021-05-22T09:03:40Z</time>
      </trkpt>
      <trkpt lat="42.5076140" lon="-8.6488460">
        <ele>103.0</ele>
        <time>2021-05-22T09:03:41Z</time>
      </trkpt>
      <trkpt lat="42.5076220" lon="-8.6488520">
        <ele>102.9</ele>
        <time>2021-05-22T09:03:42Z</time>
      </trkpt>
      <trkpt lat="42.5076290" lon="-8.6488490">
        <ele>102.9</ele>
        <time>2021-05-22T09:03:43Z</time>
      </trkpt>
      <trkpt lat="42.5076380" lon="-8.6488520">
        <ele>102.9</ele>
        <time>2021-05-22T09:03:44Z</time>
      </trkpt>
      <trkpt lat="42.5076450" lon="-8.6488530">
        <ele>102.9</ele>
        <time>2021-05-22T09:03:45Z</time>
      </trkpt>
      <trkpt lat="42.5076500" lon="-8.6488530">
        <ele>102.9</ele>
        <time>2021-05-22T09:03:46Z</time>
      </trkpt>
      <trkpt lat="42.5076630" lon="-8.6488480">
        <ele>102.8</ele>
        <time>2021-05-22T09:03:47Z</time>
      </trkpt>
      <trkpt lat="42.5076730" lon="-8.6488500">
        <ele>102.8</ele>
        <time>2021-05-22T09:03:48Z</time>
      </trkpt>
      <trkpt lat="42.5076820" lon="-8.6488500">
        <ele>102.8</ele>
        <time>2021-05-22T09:03:49Z</time>
      </trkpt>
      <trkpt lat="42.5076910" lon="-8.6488520">
        <ele>102.8</ele>
        <time>2021-05-22T09:03:50Z</time>
      </trkpt>
      <trkpt lat="42.5076980" lon="-8.6488590">
        <ele>102.8</ele>
        <time>2021-05-22T09:03:51Z</time>
      </trkpt>
      <trkpt lat="42.5077170" lon="-8.6488630">
        <ele>102.7</ele>
        <time>2021-05-22T09:03:52Z</time>
      </trkpt>
      <trkpt lat="42.5077290" lon="-8.6488710">
        <ele>102.7</ele>
        <time>2021-05-22T09:03:53Z</time>
      </trkpt>
      <trkpt lat="42.5077350" lon="-8.6488790">
        <ele>102.7</ele>
        <time>2021-05-22T09:03:54Z</time>
      </trkpt>
      <trkpt lat="42.5077400" lon="-8.6488860">
        <ele>102.6</ele>
        <time>2021-05-22T09:03:55Z</time>
      </trkpt>
      <trkpt lat="42.5077450" lon="-8.6488940">
        <ele>102.6</ele>
        <time>2021-05-22T09:03:56Z</time>
      </trkpt>
      <trkpt lat="42.5077520" lon="-8.6489020">
        <ele>102.6</ele>
        <time>2021-05-22T09:03:57Z</time>
      </trkpt>
      <trkpt lat="42.5077620" lon="-8.6489100">
        <ele>102.6</ele>
        <time>2021-05-22T09:03:58Z</time>
      </trkpt>
      <trkpt lat="42.5077690" lon="-8.6489190">
        <ele>102.6</ele>
        <time>2021-05-22T09:03:59Z</time>
      </trkpt>
      <trkpt lat="42.5077760" lon="-8.6489210">
        <ele>102.5</ele>
        <time>2021-05-22T09:04:00Z</time>
      </trkpt>
      <trkpt lat="42.5077830" lon="-8.6489290">
        <ele>102.5</ele>
        <time>2021-05-22T09:04:01Z</time>
      </trkpt>
      <trkpt lat="42.5077830" lon="-8.6489350">
        <ele>102.5</ele>
        <time>2021-05-22T09:04:02Z</time>
      </trkpt>
      <trkpt lat="42.5077880" lon="-8.6489430">
        <ele>102.5</ele>
        <time>2021-05-22T09:04:03Z</time>
      </trkpt>
      <trkpt lat="42.5077920" lon="-8.6489530">
        <ele>102.5</ele>
        <time>2021-05-22T09:04:04Z</time>
      </trkpt>
      <trkpt lat="42.5078000" lon="-8.6489650">
        <ele>102.5</ele>
        <time>2021-05-22T09:04:05Z</time>
      </trkpt>
      <trkpt lat="42.5078100" lon="-8.6489770">
        <ele>102.5</ele>
        <time>2021-05-22T09:04:06Z</time>
      </trkpt>
      <trkpt lat="42.5078210" lon="-8.6489830">
        <ele>102.5</ele>
        <time>2021-05-22T09:04:07Z</time>
      </trkpt>
      <trkpt lat="42.5078290" lon="-8.6489910">
        <ele>102.5</ele>
        <time>2021-05-22T09:04:08Z</time>
      </trkpt>
      <trkpt lat="42.5078390" lon="-8.6489960">
        <ele>102.5</ele>
        <time>2021-05-22T09:04:09Z</time>
      </trkpt>
      <trkpt lat="42.5078480" lon="-8.6490120">
        <ele>102.5</ele>
        <time>2021-05-22T09:04:10Z</time>
      </trkpt>
      <trkpt lat="42.5078530" lon="-8.6490160">
        <ele>102.5</ele>
        <time>2021-05-22T09:04:11Z</time>
      </trkpt>
      <trkpt lat="42.5078610" lon="-8.6490150">
        <ele>102.5</ele>
        <time>2021-05-22T09:04:12Z</time>
      </trkpt>
      <trkpt lat="42.5078710" lon="-8.6490180">
        <ele>102.5</ele>
        <time>2021-05-22T09:04:13Z</time>
      </trkpt>
      <trkpt lat="42.5078810" lon="-8.6490200">
        <ele>102.6</ele>
        <time>2021-05-22T09:04:14Z</time>
      </trkpt>
      <trkpt lat="42.5078900" lon="-8.6490140">
        <ele>102.6</ele>
        <time>2021-05-22T09:04:15Z</time>
      </trkpt>
      <trkpt lat="42.5079020" lon="-8.6490030">
        <ele>102.6</ele>
        <time>2021-05-22T09:04:16Z</time>
      </trkpt>
      <trkpt lat="42.5079120" lon="-8.6489960">
        <ele>102.6</ele>
        <time>2021-05-22T09:04:17Z</time>
      </trkpt>
      <trkpt lat="42.5079240" lon="-8.6490040">
        <ele>102.7</ele>
        <time>2021-05-22T09:04:18Z</time>
      </trkpt>
      <trkpt lat="42.5079330" lon="-8.6490080">
        <ele>102.7</ele>
        <time>2021-05-22T09:04:19Z</time>
      </trkpt>
      <trkpt lat="42.5079430" lon="-8.6490110">
        <ele>102.8</ele>
        <time>2021-05-22T09:04:20Z</time>
      </trkpt>
      <trkpt lat="42.5079630" lon="-8.6490060">
        <ele>102.9</ele>
        <time>2021-05-22T09:04:21Z</time>
      </trkpt>
      <trkpt lat="42.5079720" lon="-8.6490090">
        <ele>102.9</ele>
        <time>2021-05-22T09:04:22Z</time>
      </trkpt>
      <trkpt lat="42.5079810" lon="-8.6490110">
        <ele>103.0</ele>
        <time>2021-05-22T09:04:23Z</time>
      </trkpt>
      <trkpt lat="42.5079910" lon="-8.6490060">
        <ele>103.0</ele>
        <time>2021-05-22T09:04:24Z</time>
      </trkpt>
      <trkpt lat="42.5079990" lon="-8.6490260">
        <ele>103.1</ele>
        <time>2021-05-22T09:04:25Z</time>
      </trkpt>
      <trkpt lat="42.5080070" lon="-8.6490270">
        <ele>103.2</ele>
        <time>2021-05-22T09:04:26Z</time>
      </trkpt>
      <trkpt lat="42.5080150" lon="-8.6490210">
        <ele>103.2</ele>
        <time>2021-05-22T09:04:27Z</time>
      </trkpt>
      <trkpt lat="42.5080280" lon="-8.6490300">
        <ele>103.3</ele>
        <time>2021-05-22T09:04:28Z</time>
      </trkpt>
      <trkpt lat="42.5080310" lon="-8.6490380">
        <ele>103.4</ele>
        <time>2021-05-22T09:04:29Z</time>
      </trkpt>
      <trkpt lat="42.5080340" lon="-8.6490380">
        <ele>103.4</ele>
        <time>2021-05-22T09:04:30Z</time>
      </trkpt>
      <trkpt lat="42.5080630" lon="-8.6490300">
        <ele>103.7</ele>
        <time>2021-05-22T09:04:31Z</time>
      </trkpt>
      <trkpt lat="42.5080740" lon="-8.6490300">
        <ele>103.8</ele>
        <time>2021-05-22T09:04:32Z</time>
      </trkpt>
      <trkpt lat="42.5080850" lon="-8.6490340">
        <ele>103.9</ele>
        <time>2021-05-22T09:04:33Z</time>
      </trkpt>
      <trkpt lat="42.5080890" lon="-8.6490450">
        <ele>104.0</ele>
        <time>2021-05-22T09:04:34Z</time>
      </trkpt>
      <trkpt lat="42.5080890" lon="-8.6490470">
        <ele>104.0</ele>
        <time>2021-05-22T09:04:35Z</time>
      </trkpt>
      <trkpt lat="42.5081070" lon="-8.6490500">
        <ele>104.1</ele>
        <time>2021-05-22T09:04:36Z</time>
      </trkpt>
      <trkpt lat="42.5081200" lon="-8.6490490">
        <ele>104.3</ele>
        <time>2021-05-22T09:04:37Z</time>
      </trkpt>
      <trkpt lat="42.5081370" lon="-8.6490410">
        <ele>104.5</ele>
        <time>2021-05-22T09:04:38Z</time>
      </trkpt>
      <trkpt lat="42.5081470" lon="-8.6490390">
        <ele>104.6</ele>
        <time>2021-05-22T09:04:39Z</time>
      </trkpt>
      <trkpt lat="42.5081580" lon="-8.6490360">
        <ele>104.7</ele>
        <time>2021-05-22T09:04:40Z</time>
      </trkpt>
      <trkpt lat="42.5081620" lon="-8.6490330">
        <ele>104.7</ele>
        <time>2021-05-22T09:04:41Z</time>
      </trkpt>
      <trkpt lat="42.5081780" lon="-8.6490280">
        <ele>104.9</ele>
        <time>2021-05-22T09:04:42Z</time>
      </trkpt>
      <trkpt lat="42.5081860" lon="-8.6490500">
        <ele>105.1</ele>
        <time>2021-05-22T09:04:43Z</time>
      </trkpt>
      <trkpt lat="42.5082040" lon="-8.6490380">
        <ele>105.3</ele>
        <time>2021-05-22T09:04:44Z</time>
      </trkpt>
      <trkpt lat="42.5082140" lon="-8.6490410">
        <ele>105.4</ele>
        <time>2021-05-22T09:04:45Z</time>
      </trkpt>
      <trkpt lat="42.5082280" lon="-8.6490510">
        <ele>105.6</ele>
        <time>2021-05-22T09:04:46Z</time>
      </trkpt>
      <trkpt lat="42.5082350" lon="-8.6490540">
        <ele>105.6</ele>
        <time>2021-05-22T09:04:47Z</time>
      </trkpt>
      <trkpt lat="42.5082430" lon="-8.6490580">
        <ele>105.7</ele>
        <time>2021-05-22T09:04:48Z</time>
      </trkpt>
      <trkpt lat="42.5082500" lon="-8.6490610">
        <ele>105.8</ele>
        <time>2021-05-22T09:04:49Z</time>
      </trkpt>
      <trkpt lat="42.5082600" lon="-8.6490670">
        <ele>105.9</ele>
        <time>2021-05-22T09:04:50Z</time>
      </trkpt>
      <trkpt lat="42.5082680" lon="-8.6490760">
        <ele>106.0</ele>
        <time>2021-05-22T09:04:51Z</time>
      </trkpt>
      <trkpt lat="42.5082770" lon="-8.6490870">
        <ele>106.1</ele>
        <time>2021-05-22T09:04:52Z</time>
      </trkpt>
      <trkpt lat="42.5082830" lon="-8.6491020">
        <ele>106.2</ele>
        <time>2021-05-22T09:04:53Z</time>
      </trkpt>
      <trkpt lat="42.5082880" lon="-8.6491080">
        <ele>106.3</ele>
        <time>2021-05-22T09:04:54Z</time>
      </trkpt>
      <trkpt lat="42.5083030" lon="-8.6491080">
        <ele>106.4</ele>
        <time>2021-05-22T09:04:55Z</time>
      </trkpt>
      <trkpt lat="42.5083130" lon="-8.6491120">
        <ele>106.5</ele>
        <time>2021-05-22T09:04:56Z</time>
      </trkpt>
      <trkpt lat="42.5083140" lon="-8.6491230">
        <ele>106.6</ele>
        <time>2021-05-22T09:04:57Z</time>
      </trkpt>
      <trkpt lat="42.5083280" lon="-8.6491320">
        <ele>106.7</ele>
        <time>2021-05-22T09:04:58Z</time>
      </trkpt>
      <trkpt lat="42.5083340" lon="-8.6491320">
        <ele>106.8</ele>
        <time>2021-05-22T09:04:59Z</time>
      </trkpt>
      <trkpt lat="42.5083400" lon="-8.6491360">
        <ele>106.9</ele>
        <time>2021-05-22T09:05:00Z</time>
      </trkpt>
      <trkpt lat="42.5083510" lon="-8.6491430">
        <ele>107.0</ele>
        <time>2021-05-22T09:05:01Z</time>
      </trkpt>
      <trkpt lat="42.5083530" lon="-8.6491520">
        <ele>107.0</ele>
        <time>2021-05-22T09:05:02Z</time>
      </trkpt>
      <trkpt lat="42.5083630" lon="-8.6491610">
        <ele>107.1</ele>
        <time>2021-05-22T09:05:03Z</time>
      </trkpt>
      <trkpt lat="42.5083760" lon="-8.6491600">
        <ele>107.2</ele>
        <time>2021-05-22T09:05:04Z</time>
      </trkpt>
      <trkpt lat="42.5083840" lon="-8.6491690">
        <ele>107.3</ele>
        <time>2021-05-22T09:05:05Z</time>
      </trkpt>
      <trkpt lat="42.5083960" lon="-8.6491720">
        <ele>107.4</ele>
        <time>2021-05-22T09:05:06Z</time>
      </trkpt>
      <trkpt lat="42.5084020" lon="-8.6491740">
        <ele>107.4</ele>
        <time>2021-05-22T09:05:07Z</time>
      </trkpt>
      <trkpt lat="42.5084130" lon="-8.6491780">
        <ele>107.5</ele>
        <time>2021-05-22T09:05:08Z</time>
      </trkpt>
      <trkpt lat="42.5084230" lon="-8.6491880">
        <ele>107.6</ele>
        <time>2021-05-22T09:05:09Z</time>
      </trkpt>
      <trkpt lat="42.5084260" lon="-8.6491890">
        <ele>107.6</ele>
        <time>2021-05-22T09:05:10Z</time>
      </trkpt>
      <trkpt lat="42.5084360" lon="-8.6491910">
        <ele>107.7</ele>
        <time>2021-05-22T09:05:11Z</time>
      </trkpt>
      <trkpt lat="42.5084440" lon="-8.6491910">
        <ele>107.8</ele>
        <time>2021-05-22T09:05:12Z</time>
      </trkpt>
      <trkpt lat="42.5084610" lon="-8.6491890">
        <ele>107.9</ele>
        <time>2021-05-22T09:05:13Z</time>
      </trkpt>
      <trkpt lat="42.5084720" lon="-8.6491840">
        <ele>108.0</ele>
        <time>2021-05-22T09:05:14Z</time>
      </trkpt>
      <trkpt lat="42.5084980" lon="-8.6491720">
        <ele>108.1</ele>
        <time>2021-05-22T09:05:15Z</time>
      </trkpt>
      <trkpt lat="42.5085110" lon="-8.6491770">
        <ele>108.2</ele>
        <time>2021-05-22T09:05:16Z</time>
      </trkpt>
      <trkpt lat="42.5085220" lon="-8.6491820">
        <ele>108.2</ele>
        <time>2021-05-22T09:05:17Z</time>
      </trkpt>
      <trkpt lat="42.5085310" lon="-8.6491890">
        <ele>108.3</ele>
        <time>2021-05-22T09:05:18Z</time>
      </trkpt>
      <trkpt lat="42.5085500" lon="-8.6492040">
        <ele>108.4</ele>
        <time>2021-05-22T09:05:19Z</time>
      </trkpt>
      <trkpt lat="42.5085580" lon="-8.6492040">
        <ele>108.4</ele>
        <time>2021-05-22T09:05:20Z</time>
      </trkpt>
      <trkpt lat="42.5085650" lon="-8.6492050">
        <ele>108.4</ele>
        <time>2021-05-22T09:05:21Z</time>
      </trkpt>
      <trkpt lat="42.5085720" lon="-8.6492060">
        <ele>108.5</ele>
        <time>2021-05-22T09:05:22Z</time>
      </trkpt>
      <trkpt lat="42.5085870" lon="-8.6492040">
        <ele>108.5</ele>
        <time>2021-05-22T09:05:23Z</time>
      </trkpt>
      <trkpt lat="42.5085950" lon="-8.6492070">
        <ele>108.5</ele>
        <time>2021-05-22T09:05:24Z</time>
      </trkpt>
      <trkpt lat="42.5086020" lon="-8.6492100">
        <ele>108.5</ele>
        <time>2021-05-22T09:05:25Z</time>
      </trkpt>
      <trkpt lat="42.5086090" lon="-8.6492130">
        <ele>108.6</ele>
        <time>2021-05-22T09:05:26Z</time>
      </trkpt>
      <trkpt lat="42.5086220" lon="-8.6492100">
        <ele>108.6</ele>
        <time>2021-05-22T09:05:27Z</time>
      </trkpt>
      <trkpt lat="42.5086360" lon="-8.6492120">
        <ele>108.6</ele>
        <time>2021-05-22T09:05:28Z</time>
      </trkpt>
      <trkpt lat="42.5086470" lon="-8.6492100">
        <ele>108.6</ele>
        <time>2021-05-22T09:05:29Z</time>
      </trkpt>
      <trkpt lat="42.5086560" lon="-8.6492100">
        <ele>108.6</ele>
        <time>2021-05-22T09:05:30Z</time>
      </trkpt>
      <trkpt lat="42.5086710" lon="-8.6492090">
        <ele>108.7</ele>
        <time>2021-05-22T09:05:31Z</time>
      </trkpt>
      <trkpt lat="42.5086910" lon="-8.6492130">
        <ele>108.7</ele>
        <time>2021-05-22T09:05:32Z</time>
      </trkpt>
      <trkpt lat="42.5087040" lon="-8.6492130">
        <ele>108.7</ele>
        <time>2021-05-22T09:05:33Z</time>
      </trkpt>
      <trkpt lat="42.5087160" lon="-8.6492140">
        <ele>108.7</ele>
        <time>2021-05-22T09:05:34Z</time>
      </trkpt>
      <trkpt lat="42.5087240" lon="-8.6492170">
        <ele>108.7</ele>
        <time>2021-05-22T09:05:35Z</time>
      </trkpt>
      <trkpt lat="42.5087370" lon="-8.6492160">
        <ele>108.7</ele>
        <time>2021-05-22T09:05:36Z</time>
      </trkpt>
      <trkpt lat="42.5087460" lon="-8.6492160">
        <ele>108.7</ele>
        <time>2021-05-22T09:05:37Z</time>
      </trkpt>
      <trkpt lat="42.5087530" lon="-8.6492190">
        <ele>108.7</ele>
        <time>2021-05-22T09:05:38Z</time>
      </trkpt>
      <trkpt lat="42.5087630" lon="-8.6492240">
        <ele>108.6</ele>
        <time>2021-05-22T09:05:39Z</time>
      </trkpt>
      <trkpt lat="42.5087730" lon="-8.6492240">
        <ele>108.6</ele>
        <time>2021-05-22T09:05:40Z</time>
      </trkpt>
      <trkpt lat="42.5087920" lon="-8.6492250">
        <ele>108.6</ele>
        <time>2021-05-22T09:05:41Z</time>
      </trkpt>
      <trkpt lat="42.5088050" lon="-8.6492280">
        <ele>108.6</ele>
        <time>2021-05-22T09:05:42Z</time>
      </trkpt>
      <trkpt lat="42.5088080" lon="-8.6492350">
        <ele>108.6</ele>
        <time>2021-05-22T09:05:43Z</time>
      </trkpt>
      <trkpt lat="42.5088160" lon="-8.6492410">
        <ele>108.6</ele>
        <time>2021-05-22T09:05:44Z</time>
      </trkpt>
      <trkpt lat="42.5088250" lon="-8.6492390">
        <ele>108.6</ele>
        <time>2021-05-22T09:05:45Z</time>
      </trkpt>
      <trkpt lat="42.5088380" lon="-8.6492340">
        <ele>108.5</ele>
        <time>2021-05-22T09:05:46Z</time>
      </trkpt>
      <trkpt lat="42.5088510" lon="-8.6492360">
        <ele>108.5</ele>
        <time>2021-05-22T09:05:47Z</time>
      </trkpt>
      <trkpt lat="42.5088660" lon="-8.6492410">
        <ele>108.5</ele>
        <time>2021-05-22T09:05:48Z</time>
      </trkpt>
      <trkpt lat="42.5088930" lon="-8.6492510">
        <ele>108.4</ele>
        <time>2021-05-22T09:05:49Z</time>
      </trkpt>
      <trkpt lat="42.5089020" lon="-8.6492540">
        <ele>108.4</ele>
        <time>2021-05-22T09:05:50Z</time>
      </trkpt>
      <trkpt lat="42.5089150" lon="-8.6492550">
        <ele>108.4</ele>
        <time>2021-05-22T09:05:51Z</time>
      </trkpt>
      <trkpt lat="42.5089330" lon="-8.6492580">
        <ele>108.3</ele>
        <time>2021-05-22T09:05:52Z</time>
      </trkpt>
      <trkpt lat="42.5089390" lon="-8.6492600">
        <ele>108.3</ele>
        <time>2021-05-22T09:05:53Z</time>
      </trkpt>
      <trkpt lat="42.5089530" lon="-8.6492580">
        <ele>108.3</ele>
        <time>2021-05-22T09:05:54Z</time>
      </trkpt>
      <trkpt lat="42.5089690" lon="-8.6492580">
        <ele>108.2</ele>
        <time>2021-05-22T09:05:55Z</time>
      </trkpt>
      <trkpt lat="42.5089900" lon="-8.6492550">
        <ele>108.1</ele>
        <time>2021-05-22T09:05:56Z</time>
      </trkpt>
      <trkpt lat="42.5089980" lon="-8.6492510">
        <ele>108.1</ele>
        <time>2021-05-22T09:05:57Z</time>
      </trkpt>
      <trkpt lat="42.5090050" lon="-8.6492470">
        <ele>108.0</ele>
        <time>2021-05-22T09:05:58Z</time>
      </trkpt>
      <trkpt lat="42.5090280" lon="-8.6492530">
        <ele>107.9</ele>
        <time>2021-05-22T09:05:59Z</time>
      </trkpt>
      <trkpt lat="42.5090360" lon="-8.6492540">
        <ele>107.9</ele>
        <time>2021-05-22T09:06:00Z</time>
      </trkpt>
      <trkpt lat="42.5090450" lon="-8.6492560">
        <ele>107.8</ele>
        <time>2021-05-22T09:06:01Z</time>
      </trkpt>
      <trkpt lat="42.5090560" lon="-8.6492520">
        <ele>107.8</ele>
        <time>2021-05-22T09:06:02Z</time>
      </trkpt>
      <trkpt lat="42.5090750" lon="-8.6492530">
        <ele>107.6</ele>
        <time>2021-05-22T09:06:03Z</time>
      </trkpt>
      <trkpt lat="42.5090910" lon="-8.6492560">
        <ele>107.5</ele>
        <time>2021-05-22T09:06:04Z</time>
      </trkpt>
      <trkpt lat="42.5091070" lon="-8.6492540">
        <ele>107.4</ele>
        <time>2021-05-22T09:06:05Z</time>
      </trkpt>
      <trkpt lat="42.5091130" lon="-8.6492540">
        <ele>107.3</ele>
        <time>2021-05-22T09:06:06Z</time>
      </trkpt>
      <trkpt lat="42.5091220" lon="-8.6492550">
        <ele>107.3</ele>
        <time>2021-05-22T09:06:07Z</time>
      </trkpt>
      <trkpt lat="42.5091340" lon="-8.6492550">
        <ele>107.2</ele>
        <time>2021-05-22T09:06:08Z</time>
      </trkpt>
      <trkpt lat="42.5091530" lon="-8.6492540">
        <ele>107.0</ele>
        <time>2021-05-22T09:06:09Z</time>
      </trkpt>
      <trkpt lat="42.5091630" lon="-8.6492560">
        <ele>106.9</ele>
        <time>2021-05-22T09:06:10Z</time>
      </trkpt>
      <trkpt lat="42.5091730" lon="-8.6492570">
        <ele>106.8</ele>
        <time>2021-05-22T09:06:11Z</time>
      </trkpt>
      <trkpt lat="42.5092040" lon="-8.6492510">
        <ele>106.5</ele>
        <time>2021-05-22T09:06:12Z</time>
      </trkpt>
      <trkpt lat="42.5092100" lon="-8.6492480">
        <ele>106.5</ele>
        <time>2021-05-22T09:06:13Z</time>
      </trkpt>
      <trkpt lat="42.5092180" lon="-8.6492470">
        <ele>106.4</ele>
        <time>2021-05-22T09:06:14Z</time>
      </trkpt>
      <trkpt lat="42.5092280" lon="-8.6492490">
        <ele>106.3</ele>
        <time>2021-05-22T09:06:15Z</time>
      </trkpt>
      <trkpt lat="42.5092390" lon="-8.6492440">
        <ele>106.1</ele>
        <time>2021-05-22T09:06:16Z</time>
      </trkpt>
      <trkpt lat="42.5092540" lon="-8.6492420">
        <ele>106.0</ele>
        <time>2021-05-22T09:06:17Z</time>
      </trkpt>
      <trkpt lat="42.5092670" lon="-8.6492410">
        <ele>105.8</ele>
        <time>2021-05-22T09:06:18Z</time>
      </trkpt>
      <trkpt lat="42.5092810" lon="-8.6492380">
        <ele>105.6</ele>
        <time>2021-05-22T09:06:19Z</time>
      </trkpt>
      <trkpt lat="42.5092970" lon="-8.6492360">
        <ele>105.4</ele>
        <time>2021-05-22T09:06:20Z</time>
      </trkpt>
      <trkpt lat="42.5093160" lon="-8.6492310">
        <ele>105.2</ele>
        <time>2021-05-22T09:06:21Z</time>
      </trkpt>
      <trkpt lat="42.5093250" lon="-8.6492310">
        <ele>105.1</ele>
        <time>2021-05-22T09:06:22Z</time>
      </trkpt>
      <trkpt lat="42.5093340" lon="-8.6492310">
        <ele>105.0</ele>
        <time>2021-05-22T09:06:23Z</time>
      </trkpt>
      <trkpt lat="42.5093530" lon="-8.6492330">
        <ele>104.7</ele>
        <time>2021-05-22T09:06:24Z</time>
      </trkpt>
      <trkpt lat="42.5093640" lon="-8.6492380">
        <ele>104.6</ele>
        <time>2021-05-22T09:06:25Z</time>
      </trkpt>
      <trkpt lat="42.5093800" lon="-8.6492370">
        <ele>104.4</ele>
        <time>2021-05-22T09:06:26Z</time>
      </trkpt>
      <trkpt lat="42.5093940" lon="-8.6492360">
        <ele>104.2</ele>
        <time>2021-05-22T09:06:27Z</time>
      </trkpt>
      <trkpt lat="42.5094050" lon="-8.6492340">
        <ele>104.0</ele>
        <time>2021-05-22T09:06:28Z</time>
      </trkpt>
      <trkpt lat="42.5094130" lon="-8.6492310">
        <ele>103.9</ele>
        <time>2021-05-22T09:06:29Z</time>
      </trkpt>
      <trkpt lat="42.5094270" lon="-8.6492300">
        <ele>103.8</ele>
        <time>2021-05-22T09:06:30Z</time>
      </trkpt>
      <trkpt lat="42.5094310" lon="-8.6492190">
        <ele>103.6</ele>
        <time>2021-05-22T09:06:31Z</time>
      </trkpt>
      <trkpt lat="42.5094400" lon="-8.6492160">
        <ele>103.5</ele>
        <time>2021-05-22T09:06:32Z</time>
      </trkpt>
      <trkpt lat="42.5094590" lon="-8.6492150">
        <ele>103.3</ele>
        <time>2021-05-22T09:06:33Z</time>
      </trkpt>
      <trkpt lat="42.5094810" lon="-8.6492090">
        <ele>103.0</ele>
        <time>2021-05-22T09:06:34Z</time>
      </trkpt>
      <trkpt lat="42.5094880" lon="-8.6492070">
        <ele>102.9</ele>
        <time>2021-05-22T09:06:35Z</time>
      </trkpt>
      <trkpt lat="42.5094960" lon="-8.6492050">
        <ele>102.7</ele>
        <time>2021-05-22T09:06:36Z</time>
      </trkpt>
      <trkpt lat="42.5095110" lon="-8.6492070">
        <ele>102.5</ele>
        <time>2021-05-22T09:06:37Z</time>
      </trkpt>
      <trkpt lat="42.5095190" lon="-8.6492090">
        <ele>102.4</ele>
        <time>2021-05-22T09:06:38Z</time>
      </trkpt>
      <trkpt lat="42.5095280" lon="-8.6492120">
        <ele>102.3</ele>
        <time>2021-05-22T09:06:39Z</time>
      </trkpt>
      <trkpt lat="42.5095360" lon="-8.6492140">
        <ele>102.2</ele>
        <time>2021-05-22T09:06:40Z</time>
      </trkpt>
      <trkpt lat="42.5095490" lon="-8.6492130">
        <ele>102.0</ele>
        <time>2021-05-22T09:06:41Z</time>
      </trkpt>
      <trkpt lat="42.5095610" lon="-8.6492170">
        <ele>101.9</ele>
        <time>2021-05-22T09:06:42Z</time>
      </trkpt>
      <trkpt lat="42.5095660" lon="-8.6492180">
        <ele>101.8</ele>
        <time>2021-05-22T09:06:43Z</time>
      </trkpt>
      <trkpt lat="42.5095900" lon="-8.6492260">
        <ele>101.5</ele>
        <time>2021-05-22T09:06:44Z</time>
      </trkpt>
      <trkpt lat="42.5095970" lon="-8.6492280">
        <ele>101.4</ele>
        <time>2021-05-22T09:06:45Z</time>
      </trkpt>
      <trkpt lat="42.5096050" lon="-8.6492300">
        <ele>101.2</ele>
        <time>2021-05-22T09:06:46Z</time>
      </trkpt>
      <trkpt lat="42.5096230" lon="-8.6492310">
        <ele>101.0</ele>
        <time>2021-05-22T09:06:47Z</time>
      </trkpt>
      <trkpt lat="42.5096340" lon="-8.6492290">
        <ele>100.9</ele>
        <time>2021-05-22T09:06:48Z</time>
      </trkpt>
      <trkpt lat="42.5096440" lon="-8.6492270">
        <ele>100.7</ele>
        <time>2021-05-22T09:06:49Z</time>
      </trkpt>
      <trkpt lat="42.5096630" lon="-8.6492260">
        <ele>100.5</ele>
        <time>2021-05-22T09:06:50Z</time>
      </trkpt>
      <trkpt lat="42.5096780" lon="-8.6492220">
        <ele>100.3</ele>
        <time>2021-05-22T09:06:51Z</time>
      </trkpt>
      <trkpt lat="42.5096940" lon="-8.6492230">
        <ele>100.1</ele>
        <time>2021-05-22T09:06:52Z</time>
      </trkpt>
      <trkpt lat="42.5097080" lon="-8.6492160">
        <ele>100.0</ele>
        <time>2021-05-22T09:06:53Z</time>
      </trkpt>
      <trkpt lat="42.5097200" lon="-8.6492160">
        <ele>99.8</ele>
        <time>2021-05-22T09:06:54Z</time>
      </trkpt>
      <trkpt lat="42.5097370" lon="-8.6492170">
        <ele>99.6</ele>
        <time>2021-05-22T09:06:55Z</time>
      </trkpt>
      <trkpt lat="42.5097570" lon="-8.6492180">
        <ele>99.4</ele>
        <time>2021-05-22T09:06:56Z</time>
      </trkpt>
      <trkpt lat="42.5097690" lon="-8.6492170">
        <ele>99.3</ele>
        <time>2021-05-22T09:06:57Z</time>
      </trkpt>
      <trkpt lat="42.5097800" lon="-8.6492170">
        <ele>99.2</ele>
        <time>2021-05-22T09:06:58Z</time>
      </trkpt>
      <trkpt lat="42.5097990" lon="-8.6492140">
        <ele>99.0</ele>
        <time>2021-05-22T09:06:59Z</time>
      </trkpt>
      <trkpt lat="42.5098130" lon="-8.6492090">
        <ele>98.8</ele>
        <time>2021-05-22T09:07:00Z</time>
      </trkpt>
      <trkpt lat="42.5098290" lon="-8.6492120">
        <ele>98.7</ele>
        <time>2021-05-22T09:07:01Z</time>
      </trkpt>
      <trkpt lat="42.5098360" lon="-8.6492080">
        <ele>98.6</ele>
        <time>2021-05-22T09:07:02Z</time>
      </trkpt>
      <trkpt lat="42.5098420" lon="-8.6492090">
        <ele>98.6</ele>
        <time>2021-05-22T09:07:03Z</time>
      </trkpt>
      <trkpt lat="42.5098540" lon="-8.6492080">
        <ele>98.5</ele>
        <time>2021-05-22T09:07:04Z</time>
      </trkpt>
      <trkpt lat="42.5098700" lon="-8.6492050">
        <ele>98.3</ele>
        <time>2021-05-22T09:07:05Z</time>
      </trkpt>
      <trkpt lat="42.5098820" lon="-8.6492080">
        <ele>98.2</ele>
        <time>2021-05-22T09:07:06Z</time>
      </trkpt>
      <trkpt lat="42.5098880" lon="-8.6492030">
        <ele>98.2</ele>
        <time>2021-05-22T09:07:07Z</time>
      </trkpt>
      <trkpt lat="42.5098980" lon="-8.6491970">
        <ele>98.1</ele>
        <time>2021-05-22T09:07:08Z</time>
      </trkpt>
      <trkpt lat="42.5099090" lon="-8.6491920">
        <ele>98.0</ele>
        <time>2021-05-22T09:07:09Z</time>
      </trkpt>
      <trkpt lat="42.5099250" lon="-8.6491900">
        <ele>97.9</ele>
        <time>2021-05-22T09:07:10Z</time>
      </trkpt>
      <trkpt lat="42.5099390" lon="-8.6491850">
        <ele>97.8</ele>
        <time>2021-05-22T09:07:11Z</time>
      </trkpt>
      <trkpt lat="42.5099460" lon="-8.6491840">
        <ele>97.7</ele>
        <time>2021-05-22T09:07:12Z</time>
      </trkpt>
      <trkpt lat="42.5099560" lon="-8.6491800">
        <ele>97.7</ele>
        <time>2021-05-22T09:07:13Z</time>
      </trkpt>
      <trkpt lat="42.5099760" lon="-8.6491770">
        <ele>97.5</ele>
        <time>2021-05-22T09:07:14Z</time>
      </trkpt>
      <trkpt lat="42.5099900" lon="-8.6491740">
        <ele>97.4</ele>
        <time>2021-05-22T09:07:15Z</time>
      </trkpt>
      <trkpt lat="42.5100040" lon="-8.6491690">
        <ele>97.4</ele>
        <time>2021-05-22T09:07:16Z</time>
      </trkpt>
      <trkpt lat="42.5100180" lon="-8.6491660">
        <ele>97.3</ele>
        <time>2021-05-22T09:07:17Z</time>
      </trkpt>
      <trkpt lat="42.5100400" lon="-8.6491580">
        <ele>97.2</ele>
        <time>2021-05-22T09:07:18Z</time>
      </trkpt>
      <trkpt lat="42.5100530" lon="-8.6491540">
        <ele>97.1</ele>
        <time>2021-05-22T09:07:19Z</time>
      </trkpt>
      <trkpt lat="42.5100650" lon="-8.6491510">
        <ele>97.0</ele>
        <time>2021-05-22T09:07:20Z</time>
      </trkpt>
      <trkpt lat="42.5100820" lon="-8.6491380">
        <ele>97.0</ele>
        <time>2021-05-22T09:07:21Z</time>
      </trkpt>
      <trkpt lat="42.5100900" lon="-8.6491300">
        <ele>96.9</ele>
        <time>2021-05-22T09:07:22Z</time>
      </trkpt>
      <trkpt lat="42.5101050" lon="-8.6491270">
        <ele>96.9</ele>
        <time>2021-05-22T09:07:23Z</time>
      </trkpt>
      <trkpt lat="42.5101190" lon="-8.6491180">
        <ele>96.8</ele>
        <time>2021-05-22T09:07:24Z</time>
      </trkpt>
      <trkpt lat="42.5101300" lon="-8.6491130">
        <ele>96.8</ele>
        <time>2021-05-22T09:07:25Z</time>
      </trkpt>
      <trkpt lat="42.5101490" lon="-8.6491080">
        <ele>96.7</ele>
        <time>2021-05-22T09:07:26Z</time>
      </trkpt>
      <trkpt lat="42.5101650" lon="-8.6491010">
        <ele>96.7</ele>
        <time>2021-05-22T09:07:27Z</time>
      </trkpt>
      <trkpt lat="42.5101790" lon="-8.6490940">
        <ele>96.7</ele>
        <time>2021-05-22T09:07:28Z</time>
      </trkpt>
      <trkpt lat="42.5101960" lon="-8.6490870">
        <ele>96.6</ele>
        <time>2021-05-22T09:07:29Z</time>
      </trkpt>
      <trkpt lat="42.5102070" lon="-8.6490740">
        <ele>96.6</ele>
        <time>2021-05-22T09:07:30Z</time>
      </trkpt>
      <trkpt lat="42.5102200" lon="-8.6490690">
        <ele>96.6</ele>
        <time>2021-05-22T09:07:31Z</time>
      </trkpt>
      <trkpt lat="42.5102260" lon="-8.6490590">
        <ele>96.6</ele>
        <time>2021-05-22T09:07:32Z</time>
      </trkpt>
      <trkpt lat="42.5102350" lon="-8.6490500">
        <ele>96.6</ele>
        <time>2021-05-22T09:07:33Z</time>
      </trkpt>
      <trkpt lat="42.5102480" lon="-8.6490520">
        <ele>96.6</ele>
        <time>2021-05-22T09:07:34Z</time>
      </trkpt>
      <trkpt lat="42.5102550" lon="-8.6490460">
        <ele>96.6</ele>
        <time>2021-05-22T09:07:35Z</time>
      </trkpt>
      <trkpt lat="42.5102620" lon="-8.6490340">
        <ele>96.6</ele>
        <time>2021-05-22T09:07:36Z</time>
      </trkpt>
      <trkpt lat="42.5102760" lon="-8.6490230">
        <ele>96.6</ele>
        <time>2021-05-22T09:07:37Z</time>
      </trkpt>
      <trkpt lat="42.5102870" lon="-8.6490140">
        <ele>96.6</ele>
        <time>2021-05-22T09:07:38Z</time>
      </trkpt>
      <trkpt lat="42.5102980" lon="-8.6490060">
        <ele>96.6</ele>
        <time>2021-05-22T09:07:39Z</time>
      </trkpt>
      <trkpt lat="42.5103120" lon="-8.6489980">
        <ele>96.6</ele>
        <time>2021-05-22T09:07:40Z</time>
      </trkpt>
      <trkpt lat="42.5103340" lon="-8.6489780">
        <ele>96.6</ele>
        <time>2021-05-22T09:07:41Z</time>
      </trkpt>
      <trkpt lat="42.5103420" lon="-8.6489690">
        <ele>96.7</ele>
        <time>2021-05-22T09:07:42Z</time>
      </trkpt>
      <trkpt lat="42.5103500" lon="-8.6489610">
        <ele>96.7</ele>
        <time>2021-05-22T09:07:43Z</time>
      </trkpt>
      <trkpt lat="42.5103610" lon="-8.6489540">
        <ele>96.7</ele>
        <time>2021-05-22T09:07:44Z</time>
      </trkpt>
      <trkpt lat="42.5103750" lon="-8.6489450">
        <ele>96.7</ele>
        <time>2021-05-22T09:07:45Z</time>
      </trkpt>
      <trkpt lat="42.5103890" lon="-8.6489410">
        <ele>96.8</ele>
        <time>2021-05-22T09:07:46Z</time>
      </trkpt>
      <trkpt lat="42.5104060" lon="-8.6489290">
        <ele>96.8</ele>
        <time>2021-05-22T09:07:47Z</time>
      </trkpt>
      <trkpt lat="42.5104170" lon="-8.6489160">
        <ele>96.9</ele>
        <time>2021-05-22T09:07:48Z</time>
      </trkpt>
      <trkpt lat="42.5104330" lon="-8.6489090">
        <ele>97.0</ele>
        <time>2021-05-22T09:07:49Z</time>
      </trkpt>
      <trkpt lat="42.5104420" lon="-8.6488990">
        <ele>97.0</ele>
        <time>2021-05-22T09:07:50Z</time>
      </trkpt>
      <trkpt lat="42.5104440" lon="-8.6488880">
        <ele>97.1</ele>
        <time>2021-05-22T09:07:51Z</time>
      </trkpt>
      <trkpt lat="42.5104570" lon="-8.6488790">
        <ele>97.1</ele>
        <time>2021-05-22T09:07:52Z</time>
      </trkpt>
      <trkpt lat="42.5104670" lon="-8.6488680">
        <ele>97.2</ele>
        <time>2021-05-22T09:07:53Z</time>
      </trkpt>
      <trkpt lat="42.5104730" lon="-8.6488590">
        <ele>97.3</ele>
        <time>2021-05-22T09:07:54Z</time>
      </trkpt>
      <trkpt lat="42.5104800" lon="-8.6488490">
        <ele>97.3</ele>
        <time>2021-05-22T09:07:55Z</time>
      </trkpt>
      <trkpt lat="42.5104880" lon="-8.6488380">
        <ele>97.4</ele>
        <time>2021-05-22T09:07:56Z</time>
      </trkpt>
      <trkpt lat="42.5104930" lon="-8.6488290">
        <ele>97.4</ele>
        <time>2021-05-22T09:07:57Z</time>
      </trkpt>
      <trkpt lat="42.5105060" lon="-8.6488160">
        <ele>97.5</ele>
        <time>2021-05-22T09:07:58Z</time>
      </trkpt>
      <trkpt lat="42.5105200" lon="-8.6488060">
        <ele>97.6</ele>
        <time>2021-05-22T09:07:59Z</time>
      </trkpt>
      <trkpt lat="42.5105300" lon="-8.6487940">
        <ele>97.7</ele>
        <time>2021-05-22T09:08:00Z</time>
      </trkpt>
      <trkpt lat="42.5105360" lon="-8.6487860">
        <ele>97.8</ele>
        <time>2021-05-22T09:08:01Z</time>
      </trkpt>
      <trkpt lat="42.5105420" lon="-8.6487810">
        <ele>97.8</ele>
        <time>2021-05-22T09:08:02Z</time>
      </trkpt>
      <trkpt lat="42.5105530" lon="-8.6487740">
        <ele>97.9</ele>
        <time>2021-05-22T09:08:03Z</time>
      </trkpt>
      <trkpt lat="42.5105650" lon="-8.6487630">
        <ele>98.0</ele>
        <time>2021-05-22T09:08:04Z</time>
      </trkpt>
      <trkpt lat="42.5105800" lon="-8.6487540">
        <ele>98.2</ele>
        <time>2021-05-22T09:08:05Z</time>
      </trkpt>
      <trkpt lat="42.5105860" lon="-8.6487460">
        <ele>98.2</ele>
        <time>2021-05-22T09:08:06Z</time>
      </trkpt>
      <trkpt lat="42.5105980" lon="-8.6487460">
        <ele>98.4</ele>
        <time>2021-05-22T09:08:07Z</time>
      </trkpt>
      <trkpt lat="42.5106130" lon="-8.6487460">
        <ele>98.3</ele>
        <time>2021-05-22T09:08:08Z</time>
      </trkpt>
      <trkpt lat="42.5106190" lon="-8.6487440">
        <ele>98.3</ele>
        <time>2021-05-22T09:08:09Z</time>
      </trkpt>
      <trkpt lat="42.5106350" lon="-8.6487430">
        <ele>98.1</ele>
        <time>2021-05-22T09:08:10Z</time>
      </trkpt>
      <trkpt lat="42.5106380" lon="-8.6487520">
        <ele>98.1</ele>
        <time>2021-05-22T09:08:11Z</time>
      </trkpt>
      <trkpt lat="42.5106490" lon="-8.6487590">
        <ele>97.9</ele>
        <time>2021-05-22T09:08:12Z</time>
      </trkpt>
      <trkpt lat="42.5106580" lon="-8.6487610">
        <ele>97.9</ele>
        <time>2021-05-22T09:08:13Z</time>
      </trkpt>
      <trkpt lat="42.5106620" lon="-8.6487750">
        <ele>97.7</ele>
        <time>2021-05-22T09:08:14Z</time>
      </trkpt>
      <trkpt lat="42.5106670" lon="-8.6487860">
        <ele>97.6</ele>
        <time>2021-05-22T09:08:15Z</time>
      </trkpt>
      <trkpt lat="42.5106710" lon="-8.6487930">
        <ele>97.6</ele>
        <time>2021-05-22T09:08:16Z</time>
      </trkpt>
      <trkpt lat="42.5106660" lon="-8.6487970">
        <ele>97.5</ele>
        <time>2021-05-22T09:08:17Z</time>
      </trkpt>
      <trkpt lat="42.5106640" lon="-8.6488050">
        <ele>97.4</ele>
        <time>2021-05-22T09:08:18Z</time>
      </trkpt>
      <trkpt lat="42.5106650" lon="-8.6488170">
        <ele>97.3</ele>
        <time>2021-05-22T09:08:19Z</time>
      </trkpt>
      <trkpt lat="42.5106670" lon="-8.6488330">
        <ele>97.2</ele>
        <time>2021-05-22T09:08:20Z</time>
      </trkpt>
      <trkpt lat="42.5106680" lon="-8.6488460">
        <ele>97.1</ele>
        <time>2021-05-22T09:08:21Z</time>
      </trkpt>
      <trkpt lat="42.5106720" lon="-8.6488570">
        <ele>97.0</ele>
        <time>2021-05-22T09:08:22Z</time>
      </trkpt>
      <trkpt lat="42.5106760" lon="-8.6488660">
        <ele>96.9</ele>
        <time>2021-05-22T09:08:23Z</time>
      </trkpt>
      <trkpt lat="42.5106800" lon="-8.6488730">
        <ele>96.8</ele>
        <time>2021-05-22T09:08:24Z</time>
      </trkpt>
      <trkpt lat="42.5106880" lon="-8.6488920">
        <ele>96.6</ele>
        <time>2021-05-22T09:08:25Z</time>
      </trkpt>
      <trkpt lat="42.5106930" lon="-8.6488990">
        <ele>96.5</ele>
        <time>2021-05-22T09:08:26Z</time>
      </trkpt>
      <trkpt lat="42.5106970" lon="-8.6489020">
        <ele>96.4</ele>
        <time>2021-05-22T09:08:27Z</time>
      </trkpt>
      <trkpt lat="42.5107010" lon="-8.6489240">
        <ele>96.2</ele>
        <time>2021-05-22T09:08:28Z</time>
      </trkpt>
      <trkpt lat="42.5107010" lon="-8.6489320">
        <ele>96.1</ele>
        <time>2021-05-22T09:08:29Z</time>
      </trkpt>
      <trkpt lat="42.5107070" lon="-8.6489460">
        <ele>96.0</ele>
        <time>2021-05-22T09:08:30Z</time>
      </trkpt>
      <trkpt lat="42.5107210" lon="-8.6489700">
        <ele>95.7</ele>
        <time>2021-05-22T09:08:31Z</time>
      </trkpt>
      <trkpt lat="42.5107250" lon="-8.6489800">
        <ele>95.5</ele>
        <time>2021-05-22T09:08:32Z</time>
      </trkpt>
      <trkpt lat="42.5107280" lon="-8.6489890">
        <ele>95.4</ele>
        <time>2021-05-22T09:08:33Z</time>
      </trkpt>
      <trkpt lat="42.5107370" lon="-8.6490050">
        <ele>95.2</ele>
        <time>2021-05-22T09:08:34Z</time>
      </trkpt>
      <trkpt lat="42.5107420" lon="-8.6490160">
        <ele>95.1</ele>
        <time>2021-05-22T09:08:35Z</time>
      </trkpt>
      <trkpt lat="42.5107430" lon="-8.6490240">
        <ele>95.0</ele>
        <time>2021-05-22T09:08:36Z</time>
      </trkpt>
      <trkpt lat="42.5107500" lon="-8.6490360">
        <ele>94.9</ele>
        <time>2021-05-22T09:08:37Z</time>
      </trkpt>
      <trkpt lat="42.5107550" lon="-8.6490450">
        <ele>94.7</ele>
        <time>2021-05-22T09:08:38Z</time>
      </trkpt>
      <trkpt lat="42.5107580" lon="-8.6490550">
        <ele>94.6</ele>
        <time>2021-05-22T09:08:39Z</time>
      </trkpt>
      <trkpt lat="42.5107730" lon="-8.6490710">
        <ele>94.4</ele>
        <time>2021-05-22T09:08:40Z</time>
      </trkpt>
      <trkpt lat="42.5107770" lon="-8.6490770">
        <ele>94.3</ele>
        <time>2021-05-22T09:08:41Z</time>
      </trkpt>
      <trkpt lat="42.5107820" lon="-8.6490840">
        <ele>94.2</ele>
        <time>2021-05-22T09:08:42Z</time>
      </trkpt>
      <trkpt lat="42.5107860" lon="-8.6490910">
        <ele>94.1</ele>
        <time>2021-05-22T09:08:43Z</time>
      </trkpt>
      <trkpt lat="42.5107920" lon="-8.6491040">
        <ele>93.9</ele>
        <time>2021-05-22T09:08:44Z</time>
      </trkpt>
      <trkpt lat="42.5107980" lon="-8.6491130">
        <ele>93.8</ele>
        <time>2021-05-22T09:08:45Z</time>
      </trkpt>
      <trkpt lat="42.5107980" lon="-8.6491300">
        <ele>93.6</ele>
        <time>2021-05-22T09:08:46Z</time>
      </trkpt>
      <trkpt lat="42.5108060" lon="-8.6491540">
        <ele>93.3</ele>
        <time>2021-05-22T09:08:47Z</time>
      </trkpt>
      <trkpt lat="42.5108080" lon="-8.6491660">
        <ele>93.2</ele>
        <time>2021-05-22T09:08:48Z</time>
      </trkpt>
      <trkpt lat="42.5108110" lon="-8.6491770">
        <ele>93.1</ele>
        <time>2021-05-22T09:08:49Z</time>
      </trkpt>
      <trkpt lat="42.5108180" lon="-8.6491960">
        <ele>92.8</ele>
        <time>2021-05-22T09:08:50Z</time>
      </trkpt>
      <trkpt lat="42.5108240" lon="-8.6492100">
        <ele>92.6</ele>
        <time>2021-05-22T09:08:51Z</time>
      </trkpt>
      <trkpt lat="42.5108320" lon="-8.6492280">
        <ele>92.4</ele>
        <time>2021-05-22T09:08:52Z</time>
      </trkpt>
      <trkpt lat="42.5108350" lon="-8.6492410">
        <ele>92.3</ele>
        <time>2021-05-22T09:08:53Z</time>
      </trkpt>
      <trkpt lat="42.5108370" lon="-8.6492560">
        <ele>92.1</ele>
        <time>2021-05-22T09:08:54Z</time>
      </trkpt>
      <trkpt lat="42.5108390" lon="-8.6492650">
        <ele>92.0</ele>
        <time>2021-05-22T09:08:55Z</time>
      </trkpt>
      <trkpt lat="42.5108380" lon="-8.6492700">
        <ele>91.9</ele>
        <time>2021-05-22T09:08:56Z</time>
      </trkpt>
      <trkpt lat="42.5108470" lon="-8.6492850">
        <ele>91.7</ele>
        <time>2021-05-22T09:08:57Z</time>
      </trkpt>
      <trkpt lat="42.5108490" lon="-8.6492960">
        <ele>91.6</ele>
        <time>2021-05-22T09:08:58Z</time>
      </trkpt>
      <trkpt lat="42.5108570" lon="-8.6493130">
        <ele>91.4</ele>
        <time>2021-05-22T09:08:59Z</time>
      </trkpt>
      <trkpt lat="42.5108620" lon="-8.6493300">
        <ele>91.1</ele>
        <time>2021-05-22T09:09:00Z</time>
      </trkpt>
      <trkpt lat="42.5108670" lon="-8.6493500">
        <ele>90.9</ele>
        <time>2021-05-22T09:09:01Z</time>
      </trkpt>
      <trkpt lat="42.5108770" lon="-8.6493670">
        <ele>90.7</ele>
        <time>2021-05-22T09:09:02Z</time>
      </trkpt>
      <trkpt lat="42.5108830" lon="-8.6493780">
        <ele>90.5</ele>
        <time>2021-05-22T09:09:03Z</time>
      </trkpt>
      <trkpt lat="42.5108910" lon="-8.6493890">
        <ele>90.3</ele>
        <time>2021-05-22T09:09:04Z</time>
      </trkpt>
      <trkpt lat="42.5108980" lon="-8.6494020">
        <ele>90.2</ele>
        <time>2021-05-22T09:09:05Z</time>
      </trkpt>
      <trkpt lat="42.5108990" lon="-8.6494100">
        <ele>90.1</ele>
        <time>2021-05-22T09:09:06Z</time>
      </trkpt>
      <trkpt lat="42.5109060" lon="-8.6494260">
        <ele>89.9</ele>
        <time>2021-05-22T09:09:07Z</time>
      </trkpt>
      <trkpt lat="42.5109120" lon="-8.6494410">
        <ele>89.7</ele>
        <time>2021-05-22T09:09:08Z</time>
      </trkpt>
      <trkpt lat="42.5109120" lon="-8.6494520">
        <ele>89.6</ele>
        <time>2021-05-22T09:09:09Z</time>
      </trkpt>
      <trkpt lat="42.5109140" lon="-8.6494580">
        <ele>89.5</ele>
        <time>2021-05-22T09:09:10Z</time>
      </trkpt>
      <trkpt lat="42.5109220" lon="-8.6494760">
        <ele>89.3</ele>
        <time>2021-05-22T09:09:11Z</time>
      </trkpt>
      <trkpt lat="42.5109300" lon="-8.6495020">
        <ele>89.0</ele>
        <time>2021-05-22T09:09:12Z</time>
      </trkpt>
      <trkpt lat="42.5109340" lon="-8.6495110">
        <ele>88.8</ele>
        <time>2021-05-22T09:09:13Z</time>
      </trkpt>
      <trkpt lat="42.5109370" lon="-8.6495200">
        <ele>88.7</ele>
        <time>2021-05-22T09:09:14Z</time>
      </trkpt>
      <trkpt lat="42.5109410" lon="-8.6495290">
        <ele>88.6</ele>
        <time>2021-05-22T09:09:15Z</time>
      </trkpt>
      <trkpt lat="42.5109550" lon="-8.6495540">
        <ele>88.3</ele>
        <time>2021-05-22T09:09:16Z</time>
      </trkpt>
      <trkpt lat="42.5109610" lon="-8.6495650">
        <ele>88.2</ele>
        <time>2021-05-22T09:09:17Z</time>
      </trkpt>
      <trkpt lat="42.5109660" lon="-8.6495770">
        <ele>88.0</ele>
        <time>2021-05-22T09:09:18Z</time>
      </trkpt>
      <trkpt lat="42.5109710" lon="-8.6495920">
        <ele>87.9</ele>
        <time>2021-05-22T09:09:19Z</time>
      </trkpt>
      <trkpt lat="42.5109710" lon="-8.6496050">
        <ele>87.8</ele>
        <time>2021-05-22T09:09:20Z</time>
      </trkpt>
      <trkpt lat="42.5109790" lon="-8.6496200">
        <ele>87.6</ele>
        <time>2021-05-22T09:09:21Z</time>
      </trkpt>
      <trkpt lat="42.5109870" lon="-8.6496280">
        <ele>87.4</ele>
        <time>2021-05-22T09:09:22Z</time>
      </trkpt>
      <trkpt lat="42.5109900" lon="-8.6496400">
        <ele>87.3</ele>
        <time>2021-05-22T09:09:23Z</time>
      </trkpt>
      <trkpt lat="42.5109960" lon="-8.6496480">
        <ele>87.2</ele>
        <time>2021-05-22T09:09:24Z</time>
      </trkpt>
      <trkpt lat="42.5109910" lon="-8.6496630">
        <ele>87.0</ele>
        <time>2021-05-22T09:09:25Z</time>
      </trkpt>
      <trkpt lat="42.5109980" lon="-8.6496700">
        <ele>86.9</ele>
        <time>2021-05-22T09:09:26Z</time>
      </trkpt>
      <trkpt lat="42.5110010" lon="-8.6496890">
        <ele>86.7</ele>
        <time>2021-05-22T09:09:27Z</time>
      </trkpt>
      <trkpt lat="42.5110060" lon="-8.6497000">
        <ele>86.6</ele>
        <time>2021-05-22T09:09:28Z</time>
      </trkpt>
      <trkpt lat="42.5110150" lon="-8.6497090">
        <ele>86.4</ele>
        <time>2021-05-22T09:09:29Z</time>
      </trkpt>
      <trkpt lat="42.5110240" lon="-8.6497200">
        <ele>86.3</ele>
        <time>2021-05-22T09:09:30Z</time>
      </trkpt>
      <trkpt lat="42.5110320" lon="-8.6497320">
        <ele>86.1</ele>
        <time>2021-05-22T09:09:31Z</time>
      </trkpt>
      <trkpt lat="42.5110490" lon="-8.6497540">
        <ele>85.8</ele>
        <time>2021-05-22T09:09:32Z</time>
      </trkpt>
      <trkpt lat="42.5110550" lon="-8.6497610">
        <ele>85.7</ele>
        <time>2021-05-22T09:09:33Z</time>
      </trkpt>
      <trkpt lat="42.5110620" lon="-8.6497680">
        <ele>85.6</ele>
        <time>2021-05-22T09:09:34Z</time>
      </trkpt>
      <trkpt lat="42.5110710" lon="-8.6497780">
        <ele>85.4</ele>
        <time>2021-05-22T09:09:35Z</time>
      </trkpt>
      <trkpt lat="42.5110850" lon="-8.6497910">
        <ele>85.2</ele>
        <time>2021-05-22T09:09:36Z</time>
      </trkpt>
      <trkpt lat="42.5110980" lon="-8.6498120">
        <ele>84.9</ele>
        <time>2021-05-22T09:09:37Z</time>
      </trkpt>
      <trkpt lat="42.5111070" lon="-8.6498190">
        <ele>84.7</ele>
        <time>2021-05-22T09:09:38Z</time>
      </trkpt>
      <trkpt lat="42.5111150" lon="-8.6498270">
        <ele>84.6</ele>
        <time>2021-05-22T09:09:39Z</time>
      </trkpt>
      <trkpt lat="42.5111260" lon="-8.6498370">
        <ele>84.4</ele>
        <time>2021-05-22T09:09:40Z</time>
      </trkpt>
      <trkpt lat="42.5111300" lon="-8.6498440">
        <ele>84.3</ele>
        <time>2021-05-22T09:09:41Z</time>
      </trkpt>
      <trkpt lat="42.5111390" lon="-8.6498500">
        <ele>84.2</ele>
        <time>2021-05-22T09:09:42Z</time>
      </trkpt>
      <trkpt lat="42.5111480" lon="-8.6498680">
        <ele>83.9</ele>
        <time>2021-05-22T09:09:43Z</time>
      </trkpt>
      <trkpt lat="42.5111550" lon="-8.6498730">
        <ele>83.8</ele>
        <time>2021-05-22T09:09:44Z</time>
      </trkpt>
      <trkpt lat="42.5111610" lon="-8.6498790">
        <ele>83.7</ele>
        <time>2021-05-22T09:09:45Z</time>
      </trkpt>
      <trkpt lat="42.5111670" lon="-8.6498850">
        <ele>83.5</ele>
        <time>2021-05-22T09:09:46Z</time>
      </trkpt>
      <trkpt lat="42.5111730" lon="-8.6498890">
        <ele>83.4</ele>
        <time>2021-05-22T09:09:47Z</time>
      </trkpt>
      <trkpt lat="42.5111780" lon="-8.6498960">
        <ele>83.3</ele>
        <time>2021-05-22T09:09:48Z</time>
      </trkpt>
      <trkpt lat="42.5111850" lon="-8.6499030">
        <ele>83.2</ele>
        <time>2021-05-22T09:09:49Z</time>
      </trkpt>
      <trkpt lat="42.5111860" lon="-8.6499120">
        <ele>83.1</ele>
        <time>2021-05-22T09:09:50Z</time>
      </trkpt>
      <trkpt lat="42.5111940" lon="-8.6499250">
        <ele>82.9</ele>
        <time>2021-05-22T09:09:51Z</time>
      </trkpt>
      <trkpt lat="42.5112070" lon="-8.6499440">
        <ele>82.5</ele>
        <time>2021-05-22T09:09:52Z</time>
      </trkpt>
      <trkpt lat="42.5112120" lon="-8.6499560">
        <ele>82.3</ele>
        <time>2021-05-22T09:09:53Z</time>
      </trkpt>
      <trkpt lat="42.5112200" lon="-8.6499720">
        <ele>82.1</ele>
        <time>2021-05-22T09:09:54Z</time>
      </trkpt>
      <trkpt lat="42.5112290" lon="-8.6499810">
        <ele>81.9</ele>
        <time>2021-05-22T09:09:55Z</time>
      </trkpt>
      <trkpt lat="42.5112300" lon="-8.6499840">
        <ele>81.9</ele>
        <time>2021-05-22T09:09:56Z</time>
      </trkpt>
      <trkpt lat="42.5112330" lon="-8.6499900">
        <ele>81.8</ele>
        <time>2021-05-22T09:09:57Z</time>
      </trkpt>
      <trkpt lat="42.5112420" lon="-8.6499930">
        <ele>81.6</ele>
        <time>2021-05-22T09:09:58Z</time>
      </trkpt>
      <trkpt lat="42.5112490" lon="-8.6499970">
        <ele>81.5</ele>
        <time>2021-05-22T09:09:59Z</time>
      </trkpt>
      <trkpt lat="42.5112560" lon="-8.6500100">
        <ele>81.3</ele>
        <time>2021-05-22T09:10:00Z</time>
      </trkpt>
      <trkpt lat="42.5112660" lon="-8.6500230">
        <ele>81.0</ele>
        <time>2021-05-22T09:10:01Z</time>
      </trkpt>
      <trkpt lat="42.5112710" lon="-8.6500280">
        <ele>80.9</ele>
        <time>2021-05-22T09:10:02Z</time>
      </trkpt>
      <trkpt lat="42.5112770" lon="-8.6500340">
        <ele>80.8</ele>
        <time>2021-05-22T09:10:03Z</time>
      </trkpt>
      <trkpt lat="42.5112820" lon="-8.6500390">
        <ele>80.7</ele>
        <time>2021-05-22T09:10:04Z</time>
      </trkpt>
      <trkpt lat="42.5112870" lon="-8.6500440">
        <ele>80.6</ele>
        <time>2021-05-22T09:10:05Z</time>
      </trkpt>
      <trkpt lat="42.5112970" lon="-8.6500580">
        <ele>80.3</ele>
        <time>2021-05-22T09:10:06Z</time>
      </trkpt>
      <trkpt lat="42.5113030" lon="-8.6500680">
        <ele>80.2</ele>
        <time>2021-05-22T09:10:07Z</time>
      </trkpt>
      <trkpt lat="42.5113090" lon="-8.6500750">
        <ele>80.0</ele>
        <time>2021-05-22T09:10:08Z</time>
      </trkpt>
      <trkpt lat="42.5113140" lon="-8.6500920">
        <ele>79.8</ele>
        <time>2021-05-22T09:10:09Z</time>
      </trkpt>
      <trkpt lat="42.5113200" lon="-8.6500950">
        <ele>79.7</ele>
        <time>2021-05-22T09:10:10Z</time>
      </trkpt>
      <trkpt lat="42.5113270" lon="-8.6501090">
        <ele>79.5</ele>
        <time>2021-05-22T09:10:11Z</time>
      </trkpt>
      <trkpt lat="42.5113390" lon="-8.6501210">
        <ele>79.3</ele>
        <time>2021-05-22T09:10:12Z</time>
      </trkpt>
      <trkpt lat="42.5113460" lon="-8.6501270">
        <ele>79.1</ele>
        <time>2021-05-22T09:10:13Z</time>
      </trkpt>
      <trkpt lat="42.5113560" lon="-8.6501340">
        <ele>79.0</ele>
        <time>2021-05-22T09:10:14Z</time>
      </trkpt>
      <trkpt lat="42.5113670" lon="-8.6501420">
        <ele>78.8</ele>
        <time>2021-05-22T09:10:15Z</time>
      </trkpt>
      <trkpt lat="42.5113820" lon="-8.6501480">
        <ele>78.7</ele>
        <time>2021-05-22T09:10:16Z</time>
      </trkpt>
      <trkpt lat="42.5113930" lon="-8.6501510">
        <ele>78.6</ele>
        <time>2021-05-22T09:10:17Z</time>
      </trkpt>
      <trkpt lat="42.5114040" lon="-8.6501520">
        <ele>78.5</ele>
        <time>2021-05-22T09:10:18Z</time>
      </trkpt>
      <trkpt lat="42.5114130" lon="-8.6501550">
        <ele>78.4</ele>
        <time>2021-05-22T09:10:19Z</time>
      </trkpt>
      <trkpt lat="42.5114260" lon="-8.6501620">
        <ele>78.3</ele>
        <time>2021-05-22T09:10:20Z</time>
      </trkpt>
      <trkpt lat="42.5114410" lon="-8.6501590">
        <ele>78.1</ele>
        <time>2021-05-22T09:10:21Z</time>
      </trkpt>
      <trkpt lat="42.5114490" lon="-8.6501610">
        <ele>78.1</ele>
        <time>2021-05-22T09:10:22Z</time>
      </trkpt>
      <trkpt lat="42.5114630" lon="-8.6501580">
        <ele>77.9</ele>
        <time>2021-05-22T09:10:23Z</time>
      </trkpt>
      <trkpt lat="42.5114740" lon="-8.6501540">
        <ele>77.8</ele>
        <time>2021-05-22T09:10:24Z</time>
      </trkpt>
      <trkpt lat="42.5114830" lon="-8.6501550">
        <ele>77.8</ele>
        <time>2021-05-22T09:10:25Z</time>
      </trkpt>
      <trkpt lat="42.5114970" lon="-8.6501560">
        <ele>77.6</ele>
        <time>2021-05-22T09:10:26Z</time>
      </trkpt>
      <trkpt lat="42.5115090" lon="-8.6501600">
        <ele>77.5</ele>
        <time>2021-05-22T09:10:27Z</time>
      </trkpt>
      <trkpt lat="42.5115220" lon="-8.6501630">
        <ele>77.4</ele>
        <time>2021-05-22T09:10:28Z</time>
      </trkpt>
      <trkpt lat="42.5115360" lon="-8.6501700">
        <ele>77.3</ele>
        <time>2021-05-22T09:10:29Z</time>
      </trkpt>
      <trkpt lat="42.5115410" lon="-8.6501830">
        <ele>77.2</ele>
        <time>2021-05-22T09:10:30Z</time>
      </trkpt>
      <trkpt lat="42.5115450" lon="-8.6502010">
        <ele>77.0</ele>
        <time>2021-05-22T09:10:31Z</time>
      </trkpt>
      <trkpt lat="42.5115560" lon="-8.6502110">
        <ele>76.9</ele>
        <time>2021-05-22T09:10:32Z</time>
      </trkpt>
      <trkpt lat="42.5115630" lon="-8.6502230">
        <ele>76.8</ele>
        <time>2021-05-22T09:10:33Z</time>
      </trkpt>
      <trkpt lat="42.5115720" lon="-8.6502190">
        <ele>76.7</ele>
        <time>2021-05-22T09:10:34Z</time>
      </trkpt>
      <trkpt lat="42.5115820" lon="-8.6502210">
        <ele>76.6</ele>
        <time>2021-05-22T09:10:35Z</time>
      </trkpt>
      <trkpt lat="42.5116100" lon="-8.6502320">
        <ele>76.3</ele>
        <time>2021-05-22T09:10:36Z</time>
      </trkpt>
      <trkpt lat="42.5116190" lon="-8.6502340">
        <ele>76.2</ele>
        <time>2021-05-22T09:10:37Z</time>
      </trkpt>
      <trkpt lat="42.5116410" lon="-8.6502310">
        <ele>76.0</ele>
        <time>2021-05-22T09:10:38Z</time>
      </trkpt>
      <trkpt lat="42.5116480" lon="-8.6502260">
        <ele>75.9</ele>
        <time>2021-05-22T09:10:39Z</time>
      </trkpt>
      <trkpt lat="42.5116560" lon="-8.6502220">
        <ele>75.9</ele>
        <time>2021-05-22T09:10:40Z</time>
      </trkpt>
      <trkpt lat="42.5116650" lon="-8.6502140">
        <ele>75.8</ele>
        <time>2021-05-22T09:10:41Z</time>
      </trkpt>
      <trkpt lat="42.5116730" lon="-8.6502100">
        <ele>75.7</ele>
        <time>2021-05-22T09:10:42Z</time>
      </trkpt>
      <trkpt lat="42.5116710" lon="-8.6502090">
        <ele>75.7</ele>
        <time>2021-05-22T09:10:43Z</time>
      </trkpt>
      <trkpt lat="42.5116700" lon="-8.6502060">
        <ele>75.6</ele>
        <time>2021-05-22T09:10:44Z</time>
      </trkpt>
      <trkpt lat="42.5116700" lon="-8.6502000">
        <ele>75.6</ele>
        <time>2021-05-22T09:10:45Z</time>
      </trkpt>
      <trkpt lat="42.5116710" lon="-8.6501990">
        <ele>75.6</ele>
        <time>2021-05-22T09:10:46Z</time>
      </trkpt>
      <trkpt lat="42.5116710" lon="-8.6501950">
        <ele>75.5</ele>
        <time>2021-05-22T09:10:47Z</time>
      </trkpt>
      <trkpt lat="42.5116750" lon="-8.6501930">
        <ele>75.5</ele>
        <time>2021-05-22T09:10:48Z</time>
      </trkpt>
      <trkpt lat="42.5117080" lon="-8.6501960">
        <ele>75.2</ele>
        <time>2021-05-22T09:10:49Z</time>
      </trkpt>
      <trkpt lat="42.5117160" lon="-8.6501930">
        <ele>75.1</ele>
        <time>2021-05-22T09:10:50Z</time>
      </trkpt>
      <trkpt lat="42.5117230" lon="-8.6501880">
        <ele>75.0</ele>
        <time>2021-05-22T09:10:51Z</time>
      </trkpt>
      <trkpt lat="42.5117330" lon="-8.6501770">
        <ele>74.9</ele>
        <time>2021-05-22T09:10:52Z</time>
      </trkpt>
      <trkpt lat="42.5117410" lon="-8.6501690">
        <ele>74.8</ele>
        <time>2021-05-22T09:10:53Z</time>
      </trkpt>
      <trkpt lat="42.5117590" lon="-8.6501600">
        <ele>74.6</ele>
        <time>2021-05-22T09:10:54Z</time>
      </trkpt>
      <trkpt lat="42.5117700" lon="-8.6501550">
        <ele>74.5</ele>
        <time>2021-05-22T09:10:55Z</time>
      </trkpt>
      <trkpt lat="42.5117810" lon="-8.6501490">
        <ele>74.4</ele>
        <time>2021-05-22T09:10:56Z</time>
      </trkpt>
      <trkpt lat="42.5117940" lon="-8.6501390">
        <ele>74.3</ele>
        <time>2021-05-22T09:10:57Z</time>
      </trkpt>
      <trkpt lat="42.5118080" lon="-8.6501370">
        <ele>74.2</ele>
        <time>2021-05-22T09:10:58Z</time>
      </trkpt>
      <trkpt lat="42.5118210" lon="-8.6501330">
        <ele>74.0</ele>
        <time>2021-05-22T09:10:59Z</time>
      </trkpt>
      <trkpt lat="42.5118400" lon="-8.6501280">
        <ele>73.9</ele>
        <time>2021-05-22T09:11:00Z</time>
      </trkpt>
      <trkpt lat="42.5118580" lon="-8.6501260">
        <ele>73.7</ele>
        <time>2021-05-22T09:11:01Z</time>
      </trkpt>
      <trkpt lat="42.5118700" lon="-8.6501190">
        <ele>73.6</ele>
        <time>2021-05-22T09:11:02Z</time>
      </trkpt>
      <trkpt lat="42.5118790" lon="-8.6501180">
        <ele>73.6</ele>
        <time>2021-05-22T09:11:03Z</time>
      </trkpt>
      <trkpt lat="42.5118990" lon="-8.6501120">
        <ele>73.4</ele>
        <time>2021-05-22T09:11:04Z</time>
      </trkpt>
      <trkpt lat="42.5119210" lon="-8.6501110">
        <ele>73.3</ele>
        <time>2021-05-22T09:11:05Z</time>
      </trkpt>
      <trkpt lat="42.5119290" lon="-8.6501100">
        <ele>73.2</ele>
        <time>2021-05-22T09:11:06Z</time>
      </trkpt>
      <trkpt lat="42.5119370" lon="-8.6501080">
        <ele>73.2</ele>
        <time>2021-05-22T09:11:07Z</time>
      </trkpt>
      <trkpt lat="42.5119460" lon="-8.6501080">
        <ele>73.1</ele>
        <time>2021-05-22T09:11:08Z</time>
      </trkpt>
      <trkpt lat="42.5119650" lon="-8.6501060">
        <ele>73.0</ele>
        <time>2021-05-22T09:11:09Z</time>
      </trkpt>
      <trkpt lat="42.5119810" lon="-8.6501050">
        <ele>72.9</ele>
        <time>2021-05-22T09:11:10Z</time>
      </trkpt>
      <trkpt lat="42.5119920" lon="-8.6500990">
        <ele>72.8</ele>
        <time>2021-05-22T09:11:11Z</time>
      </trkpt>
      <trkpt lat="42.5120000" lon="-8.6501030">
        <ele>72.7</ele>
        <time>2021-05-22T09:11:12Z</time>
      </trkpt>
      <trkpt lat="42.5120150" lon="-8.6500920">
        <ele>72.6</ele>
        <time>2021-05-22T09:11:13Z</time>
      </trkpt>
      <trkpt lat="42.5120320" lon="-8.6500880">
        <ele>72.5</ele>
        <time>2021-05-22T09:11:14Z</time>
      </trkpt>
      <trkpt lat="42.5120490" lon="-8.6500860">
        <ele>72.4</ele>
        <time>2021-05-22T09:11:15Z</time>
      </trkpt>
      <trkpt lat="42.5120580" lon="-8.6500800">
        <ele>72.4</ele>
        <time>2021-05-22T09:11:16Z</time>
      </trkpt>
      <trkpt lat="42.5120800" lon="-8.6500780">
        <ele>72.3</ele>
        <time>2021-05-22T09:11:17Z</time>
      </trkpt>
      <trkpt lat="42.5120910" lon="-8.6500750">
        <ele>72.2</ele>
        <time>2021-05-22T09:11:18Z</time>
      </trkpt>
      <trkpt lat="42.5121010" lon="-8.6500720">
        <ele>72.2</ele>
        <time>2021-05-22T09:11:19Z</time>
      </trkpt>
      <trkpt lat="42.5121130" lon="-8.6500720">
        <ele>72.1</ele>
        <time>2021-05-22T09:11:20Z</time>
      </trkpt>
      <trkpt lat="42.5121310" lon="-8.6500700">
        <ele>72.1</ele>
        <time>2021-05-22T09:11:21Z</time>
      </trkpt>
      <trkpt lat="42.5121390" lon="-8.6500570">
        <ele>72.0</ele>
        <time>2021-05-22T09:11:22Z</time>
      </trkpt>
      <trkpt lat="42.5121510" lon="-8.6500530">
        <ele>72.0</ele>
        <time>2021-05-22T09:11:23Z</time>
      </trkpt>
      <trkpt lat="42.5121640" lon="-8.6500520">
        <ele>71.9</ele>
        <time>2021-05-22T09:11:24Z</time>
      </trkpt>
      <trkpt lat="42.5121750" lon="-8.6500530">
        <ele>71.9</ele>
        <time>2021-05-22T09:11:25Z</time>
      </trkpt>
      <trkpt lat="42.5121970" lon="-8.6500560">
        <ele>71.8</ele>
        <time>2021-05-22T09:11:26Z</time>
      </trkpt>
      <trkpt lat="42.5122190" lon="-8.6500530">
        <ele>71.8</ele>
        <time>2021-05-22T09:11:27Z</time>
      </trkpt>
      <trkpt lat="42.5122260" lon="-8.6500490">
        <ele>71.7</ele>
        <time>2021-05-22T09:11:28Z</time>
      </trkpt>
      <trkpt lat="42.5122330" lon="-8.6500450">
        <ele>71.7</ele>
        <time>2021-05-22T09:11:29Z</time>
      </trkpt>
      <trkpt lat="42.5122520" lon="-8.6500410">
        <ele>71.7</ele>
        <time>2021-05-22T09:11:30Z</time>
      </trkpt>
      <trkpt lat="42.5122620" lon="-8.6500420">
        <ele>71.6</ele>
        <time>2021-05-22T09:11:31Z</time>
      </trkpt>
      <trkpt lat="42.5122710" lon="-8.6500420">
        <ele>71.6</ele>
        <time>2021-05-22T09:11:32Z</time>
      </trkpt>
      <trkpt lat="42.5122880" lon="-8.6500420">
        <ele>71.6</ele>
        <time>2021-05-22T09:11:33Z</time>
      </trkpt>
      <trkpt lat="42.5122980" lon="-8.6500470">
        <ele>71.6</ele>
        <time>2021-05-22T09:11:34Z</time>
      </trkpt>
      <trkpt lat="42.5123180" lon="-8.6500470">
        <ele>71.5</ele>
        <time>2021-05-22T09:11:35Z</time>
      </trkpt>
      <trkpt lat="42.5123270" lon="-8.6500440">
        <ele>71.5</ele>
        <time>2021-05-22T09:11:36Z</time>
      </trkpt>
      <trkpt lat="42.5123370" lon="-8.6500400">
        <ele>71.5</ele>
        <time>2021-05-22T09:11:37Z</time>
      </trkpt>
      <trkpt lat="42.5123600" lon="-8.6500390">
        <ele>71.4</ele>
        <time>2021-05-22T09:11:38Z</time>
      </trkpt>
      <trkpt lat="42.5123690" lon="-8.6500340">
        <ele>71.4</ele>
        <time>2021-05-22T09:11:39Z</time>
      </trkpt>
      <trkpt lat="42.5123770" lon="-8.6500300">
        <ele>71.4</ele>
        <time>2021-05-22T09:11:40Z</time>
      </trkpt>
      <trkpt lat="42.5124040" lon="-8.6500260">
        <ele>71.3</ele>
        <time>2021-05-22T09:11:41Z</time>
      </trkpt>
      <trkpt lat="42.5124130" lon="-8.6500260">
        <ele>71.3</ele>
        <time>2021-05-22T09:11:42Z</time>
      </trkpt>
      <trkpt lat="42.5124230" lon="-8.6500260">
        <ele>71.3</ele>
        <time>2021-05-22T09:11:43Z</time>
      </trkpt>
      <trkpt lat="42.5124350" lon="-8.6500290">
        <ele>71.2</ele>
        <time>2021-05-22T09:11:44Z</time>
      </trkpt>
      <trkpt lat="42.5124460" lon="-8.6500330">
        <ele>71.2</ele>
        <time>2021-05-22T09:11:45Z</time>
      </trkpt>
      <trkpt lat="42.5124500" lon="-8.6500340">
        <ele>71.2</ele>
        <time>2021-05-22T09:11:46Z</time>
      </trkpt>
      <trkpt lat="42.5124600" lon="-8.6500340">
        <ele>71.2</ele>
        <time>2021-05-22T09:11:47Z</time>
      </trkpt>
      <trkpt lat="42.5124650" lon="-8.6500400">
        <ele>71.1</ele>
        <time>2021-05-22T09:11:48Z</time>
      </trkpt>
      <trkpt lat="42.5124810" lon="-8.6500370">
        <ele>71.1</ele>
        <time>2021-05-22T09:11:49Z</time>
      </trkpt>
      <trkpt lat="42.5125020" lon="-8.6500400">
        <ele>71.0</ele>
        <time>2021-05-22T09:11:50Z</time>
      </trkpt>
      <trkpt lat="42.5125120" lon="-8.6500400">
        <ele>71.0</ele>
        <time>2021-05-22T09:11:51Z</time>
      </trkpt>
      <trkpt lat="42.5125220" lon="-8.6500410">
        <ele>71.0</ele>
        <time>2021-05-22T09:11:52Z</time>
      </trkpt>
      <trkpt lat="42.5125350" lon="-8.6500460">
        <ele>70.9</ele>
        <time>2021-05-22T09:11:53Z</time>
      </trkpt>
      <trkpt lat="42.5125560" lon="-8.6500470">
        <ele>70.9</ele>
        <time>2021-05-22T09:11:54Z</time>
      </trkpt>
      <trkpt lat="42.5125680" lon="-8.6500500">
        <ele>70.8</ele>
        <time>2021-05-22T09:11:55Z</time>
      </trkpt>
      <trkpt lat="42.5125840" lon="-8.6500500">
        <ele>70.8</ele>
        <time>2021-05-22T09:11:56Z</time>
      </trkpt>
      <trkpt lat="42.5126020" lon="-8.6500460">
        <ele>70.7</ele>
        <time>2021-05-22T09:11:57Z</time>
      </trkpt>
      <trkpt lat="42.5126150" lon="-8.6500420">
        <ele>70.7</ele>
        <time>2021-05-22T09:11:58Z</time>
      </trkpt>
      <trkpt lat="42.5126300" lon="-8.6500420">
        <ele>70.6</ele>
        <time>2021-05-22T09:11:59Z</time>
      </trkpt>
      <trkpt lat="42.5126450" lon="-8.6500400">
        <ele>70.6</ele>
        <time>2021-05-22T09:12:00Z</time>
      </trkpt>
      <trkpt lat="42.5126600" lon="-8.6500360">
        <ele>70.6</ele>
        <time>2021-05-22T09:12:01Z</time>
      </trkpt>
      <trkpt lat="42.5126730" lon="-8.6500330">
        <ele>70.5</ele>
        <time>2021-05-22T09:12:02Z</time>
      </trkpt>
      <trkpt lat="42.5126870" lon="-8.6500330">
        <ele>70.5</ele>
        <time>2021-05-22T09:12:03Z</time>
      </trkpt>
      <trkpt lat="42.5127000" lon="-8.6500360">
        <ele>70.4</ele>
        <time>2021-05-22T09:12:04Z</time>
      </trkpt>
      <trkpt lat="42.5127150" lon="-8.6500360">
        <ele>70.4</ele>
        <time>2021-05-22T09:12:05Z</time>
      </trkpt>
      <trkpt lat="42.5127300" lon="-8.6500320">
        <ele>70.4</ele>
        <time>2021-05-22T09:12:06Z</time>
      </trkpt>
      <trkpt lat="42.5127440" lon="-8.6500300">
        <ele>70.3</ele>
        <time>2021-05-22T09:12:07Z</time>
      </trkpt>
      <trkpt lat="42.5127580" lon="-8.6500270">
        <ele>70.3</ele>
        <time>2021-05-22T09:12:08Z</time>
      </trkpt>
      <trkpt lat="42.5127720" lon="-8.6500220">
        <ele>70.3</ele>
        <time>2021-05-22T09:12:09Z</time>
      </trkpt>
      <trkpt lat="42.5127860" lon="-8.6500200">
        <ele>70.3</ele>
        <time>2021-05-22T09:12:10Z</time>
      </trkpt>
      <trkpt lat="42.5127990" lon="-8.6500150">
        <ele>70.2</ele>
        <time>2021-05-22T09:12:11Z</time>
      </trkpt>
      <trkpt lat="42.5128130" lon="-8.6500110">
        <ele>70.2</ele>
        <time>2021-05-22T09:12:12Z</time>
      </trkpt>
      <trkpt lat="42.5128260" lon="-8.6500110">
        <ele>70.2</ele>
        <time>2021-05-22T09:12:13Z</time>
      </trkpt>
      <trkpt lat="42.5128420" lon="-8.6500070">
        <ele>70.2</ele>
        <time>2021-05-22T09:12:14Z</time>
      </trkpt>
      <trkpt lat="42.5128550" lon="-8.6500040">
        <ele>70.2</ele>
        <time>2021-05-22T09:12:15Z</time>
      </trkpt>
      <trkpt lat="42.5128660" lon="-8.6499970">
        <ele>70.1</ele>
        <time>2021-05-22T09:12:16Z</time>
      </trkpt>
      <trkpt lat="42.5128760" lon="-8.6499910">
        <ele>70.1</ele>
        <time>2021-05-22T09:12:17Z</time>
      </trkpt>
      <trkpt lat="42.5128900" lon="-8.6499870">
        <ele>70.1</ele>
        <time>2021-05-22T09:12:18Z</time>
      </trkpt>
      <trkpt lat="42.5128980" lon="-8.6499840">
        <ele>70.1</ele>
        <time>2021-05-22T09:12:19Z</time>
      </trkpt>
      <trkpt lat="42.5129050" lon="-8.6499800">
        <ele>70.1</ele>
        <time>2021-05-22T09:12:20Z</time>
      </trkpt>
      <trkpt lat="42.5129120" lon="-8.6499770">
        <ele>70.1</ele>
        <time>2021-05-22T09:12:21Z</time>
      </trkpt>
      <trkpt lat="42.5129200" lon="-8.6499710">
        <ele>70.1</ele>
        <time>2021-05-22T09:12:22Z</time>
      </trkpt>
      <trkpt lat="42.5129340" lon="-8.6499650">
        <ele>70.1</ele>
        <time>2021-05-22T09:12:23Z</time>
      </trkpt>
      <trkpt lat="42.5129460" lon="-8.6499640">
        <ele>70.1</ele>
        <time>2021-05-22T09:12:24Z</time>
      </trkpt>
      <trkpt lat="42.5129510" lon="-8.6499570">
        <ele>70.1</ele>
        <time>2021-05-22T09:12:25Z</time>
      </trkpt>
      <trkpt lat="42.5129620" lon="-8.6499530">
        <ele>70.1</ele>
        <time>2021-05-22T09:12:26Z</time>
      </trkpt>
      <trkpt lat="42.5129730" lon="-8.6499520">
        <ele>70.1</ele>
        <time>2021-05-22T09:12:27Z</time>
      </trkpt>
      <trkpt lat="42.5129880" lon="-8.6499450">
        <ele>70.1</ele>
        <time>2021-05-22T09:12:28Z</time>
      </trkpt>
      <trkpt lat="42.5129950" lon="-8.6499430">
        <ele>70.1</ele>
        <time>2021-05-22T09:12:29Z</time>
      </trkpt>
      <trkpt lat="42.5130000" lon="-8.6499380">
        <ele>70.1</ele>
        <time>2021-05-22T09:12:30Z</time>
      </trkpt>
      <trkpt lat="42.5130090" lon="-8.6499330">
        <ele>70.1</ele>
        <time>2021-05-22T09:12:31Z</time>
      </trkpt>
      <trkpt lat="42.5130220" lon="-8.6499280">
        <ele>70.1</ele>
        <time>2021-05-22T09:12:32Z</time>
      </trkpt>
      <trkpt lat="42.5130330" lon="-8.6499200">
        <ele>70.1</ele>
        <time>2021-05-22T09:12:33Z</time>
      </trkpt>
      <trkpt lat="42.5130500" lon="-8.6499100">
        <ele>70.2</ele>
        <time>2021-05-22T09:12:34Z</time>
      </trkpt>
      <trkpt lat="42.5130590" lon="-8.6499060">
        <ele>70.2</ele>
        <time>2021-05-22T09:12:35Z</time>
      </trkpt>
      <trkpt lat="42.5130690" lon="-8.6499010">
        <ele>70.2</ele>
        <time>2021-05-22T09:12:36Z</time>
      </trkpt>
      <trkpt lat="42.5130760" lon="-8.6498950">
        <ele>70.2</ele>
        <time>2021-05-22T09:12:37Z</time>
      </trkpt>
      <trkpt lat="42.5130800" lon="-8.6498790">
        <ele>70.2</ele>
        <time>2021-05-22T09:12:38Z</time>
      </trkpt>
      <trkpt lat="42.5130890" lon="-8.6498720">
        <ele>70.3</ele>
        <time>2021-05-22T09:12:39Z</time>
      </trkpt>
      <trkpt lat="42.5130980" lon="-8.6498680">
        <ele>70.3</ele>
        <time>2021-05-22T09:12:40Z</time>
      </trkpt>
      <trkpt lat="42.5131090" lon="-8.6498660">
        <ele>70.3</ele>
        <time>2021-05-22T09:12:41Z</time>
      </trkpt>
      <trkpt lat="42.5131170" lon="-8.6498570">
        <ele>70.3</ele>
        <time>2021-05-22T09:12:42Z</time>
      </trkpt>
      <trkpt lat="42.5131190" lon="-8.6498500">
        <ele>70.4</ele>
        <time>2021-05-22T09:12:43Z</time>
      </trkpt>
      <trkpt lat="42.5131240" lon="-8.6498420">
        <ele>70.4</ele>
        <time>2021-05-22T09:12:44Z</time>
      </trkpt>
      <trkpt lat="42.5131340" lon="-8.6498390">
        <ele>70.4</ele>
        <time>2021-05-22T09:12:45Z</time>
      </trkpt>
      <trkpt lat="42.5131440" lon="-8.6498340">
        <ele>70.5</ele>
        <time>2021-05-22T09:12:46Z</time>
      </trkpt>
      <trkpt lat="42.5131490" lon="-8.6498250">
        <ele>70.5</ele>
        <time>2021-05-22T09:12:47Z</time>
      </trkpt>
      <trkpt lat="42.5131500" lon="-8.6498170">
        <ele>70.5</ele>
        <time>2021-05-22T09:12:48Z</time>
      </trkpt>
      <trkpt lat="42.5131540" lon="-8.6498090">
        <ele>70.5</ele>
        <time>2021-05-22T09:12:49Z</time>
      </trkpt>
      <trkpt lat="42.5131640" lon="-8.6498050">
        <ele>70.6</ele>
        <time>2021-05-22T09:12:50Z</time>
      </trkpt>
      <trkpt lat="42.5131700" lon="-8.6498010">
        <ele>70.6</ele>
        <time>2021-05-22T09:12:51Z</time>
      </trkpt>
      <trkpt lat="42.5131850" lon="-8.6497900">
        <ele>70.7</ele>
        <time>2021-05-22T09:12:52Z</time>
      </trkpt>
      <trkpt lat="42.5131910" lon="-8.6497850">
        <ele>70.7</ele>
        <time>2021-05-22T09:12:53Z</time>
      </trkpt>
      <trkpt lat="42.5131920" lon="-8.6497800">
        <ele>70.7</ele>
        <time>2021-05-22T09:12:54Z</time>
      </trkpt>
      <trkpt lat="42.5132020" lon="-8.6497720">
        <ele>70.8</ele>
        <time>2021-05-22T09:12:55Z</time>
      </trkpt>
      <trkpt lat="42.5132080" lon="-8.6497650">
        <ele>70.8</ele>
        <time>2021-05-22T09:12:56Z</time>
      </trkpt>
      <trkpt lat="42.5132120" lon="-8.6497590">
        <ele>70.8</ele>
        <time>2021-05-22T09:12:57Z</time>
      </trkpt>
      <trkpt lat="42.5132140" lon="-8.6497500">
        <ele>70.9</ele>
        <time>2021-05-22T09:12:58Z</time>
      </trkpt>
      <trkpt lat="42.5132210" lon="-8.6497400">
        <ele>70.9</ele>
        <time>2021-05-22T09:12:59Z</time>
      </trkpt>
      <trkpt lat="42.5132290" lon="-8.6497260">
        <ele>71.0</ele>
        <time>2021-05-22T09:13:00Z</time>
      </trkpt>
      <trkpt lat="42.5132300" lon="-8.6497230">
        <ele>71.0</ele>
        <time>2021-05-22T09:13:01Z</time>
      </trkpt>
      <trkpt lat="42.5132370" lon="-8.6497140">
        <ele>71.0</ele>
        <time>2021-05-22T09:13:02Z</time>
      </trkpt>
      <trkpt lat="42.5132450" lon="-8.6497010">
        <ele>71.1</ele>
        <time>2021-05-22T09:13:03Z</time>
      </trkpt>
      <trkpt lat="42.5132510" lon="-8.6496930">
        <ele>71.1</ele>
        <time>2021-05-22T09:13:04Z</time>
      </trkpt>
      <trkpt lat="42.5132610" lon="-8.6496820">
        <ele>71.2</ele>
        <time>2021-05-22T09:13:05Z</time>
      </trkpt>
      <trkpt lat="42.5132690" lon="-8.6496690">
        <ele>71.2</ele>
        <time>2021-05-22T09:13:06Z</time>
      </trkpt>
      <trkpt lat="42.5132760" lon="-8.6496610">
        <ele>71.3</ele>
        <time>2021-05-22T09:13:07Z</time>
      </trkpt>
      <trkpt lat="42.5132830" lon="-8.6496480">
        <ele>71.3</ele>
        <time>2021-05-22T09:13:08Z</time>
      </trkpt>
      <trkpt lat="42.5132920" lon="-8.6496330">
        <ele>71.4</ele>
        <time>2021-05-22T09:13:09Z</time>
      </trkpt>
      <trkpt lat="42.5132970" lon="-8.6496230">
        <ele>71.4</ele>
        <time>2021-05-22T09:13:10Z</time>
      </trkpt>
      <trkpt lat="42.5133060" lon="-8.6496140">
        <ele>71.4</ele>
        <time>2021-05-22T09:13:11Z</time>
      </trkpt>
      <trkpt lat="42.5133160" lon="-8.6496070">
        <ele>71.5</ele>
        <time>2021-05-22T09:13:12Z</time>
      </trkpt>
      <trkpt lat="42.5133250" lon="-8.6496000">
        <ele>71.5</ele>
        <time>2021-05-22T09:13:13Z</time>
      </trkpt>
      <trkpt lat="42.5133370" lon="-8.6495850">
        <ele>71.6</ele>
        <time>2021-05-22T09:13:14Z</time>
      </trkpt>
      <trkpt lat="42.5133510" lon="-8.6495830">
        <ele>71.6</ele>
        <time>2021-05-22T09:13:15Z</time>
      </trkpt>
      <trkpt lat="42.5133570" lon="-8.6495780">
        <ele>71.6</ele>
        <time>2021-05-22T09:13:16Z</time>
      </trkpt>
      <trkpt lat="42.5133680" lon="-8.6495690">
        <ele>71.6</ele>
        <time>2021-05-22T09:13:17Z</time>
      </trkpt>
      <trkpt lat="42.5133760" lon="-8.6495610">
        <ele>71.7</ele>
        <time>2021-05-22T09:13:18Z</time>
      </trkpt>
      <trkpt lat="42.5133840" lon="-8.6495550">
        <ele>71.7</ele>
        <time>2021-05-22T09:13:19Z</time>
      </trkpt>
      <trkpt lat="42.5133930" lon="-8.6495450">
        <ele>71.7</ele>
        <time>2021-05-22T09:13:20Z</time>
      </trkpt>
      <trkpt lat="42.5134030" lon="-8.6495370">
        <ele>71.7</ele>
        <time>2021-05-22T09:13:21Z</time>
      </trkpt>
      <trkpt lat="42.5134180" lon="-8.6495230">
        <ele>71.8</ele>
        <time>2021-05-22T09:13:22Z</time>
      </trkpt>
      <trkpt lat="42.5134260" lon="-8.6495170">
        <ele>71.8</ele>
        <time>2021-05-22T09:13:23Z</time>
      </trkpt>
      <trkpt lat="42.5134270" lon="-8.6495080">
        <ele>71.8</ele>
        <time>2021-05-22T09:13:24Z</time>
      </trkpt>
      <trkpt lat="42.5134380" lon="-8.6494950">
        <ele>71.9</ele>
        <time>2021-05-22T09:13:25Z</time>
      </trkpt>
      <trkpt lat="42.5134440" lon="-8.6494830">
        <ele>71.9</ele>
        <time>2021-05-22T09:13:26Z</time>
      </trkpt>
      <trkpt lat="42.5134540" lon="-8.6494800">
        <ele>71.9</ele>
        <time>2021-05-22T09:13:27Z</time>
      </trkpt>
      <trkpt lat="42.5134660" lon="-8.6494690">
        <ele>71.9</ele>
        <time>2021-05-22T09:13:28Z</time>
      </trkpt>
      <trkpt lat="42.5134700" lon="-8.6494640">
        <ele>72.0</ele>
        <time>2021-05-22T09:13:29Z</time>
      </trkpt>
      <trkpt lat="42.5134770" lon="-8.6494560">
        <ele>72.0</ele>
        <time>2021-05-22T09:13:30Z</time>
      </trkpt>
      <trkpt lat="42.5134830" lon="-8.6494490">
        <ele>72.0</ele>
        <time>2021-05-22T09:13:31Z</time>
      </trkpt>
      <trkpt lat="42.5134970" lon="-8.6494390">
        <ele>72.0</ele>
        <time>2021-05-22T09:13:32Z</time>
      </trkpt>
      <trkpt lat="42.5135070" lon="-8.6494260">
        <ele>72.1</ele>
        <time>2021-05-22T09:13:33Z</time>
      </trkpt>
      <trkpt lat="42.5135210" lon="-8.6494160">
        <ele>72.1</ele>
        <time>2021-05-22T09:13:34Z</time>
      </trkpt>
      <trkpt lat="42.5135330" lon="-8.6494090">
        <ele>72.1</ele>
        <time>2021-05-22T09:13:35Z</time>
      </trkpt>
      <trkpt lat="42.5135480" lon="-8.6493940">
        <ele>72.2</ele>
        <time>2021-05-22T09:13:36Z</time>
      </trkpt>
      <trkpt lat="42.5135540" lon="-8.6493810">
        <ele>72.2</ele>
        <time>2021-05-22T09:13:37Z</time>
      </trkpt>
      <trkpt lat="42.5135670" lon="-8.6493780">
        <ele>72.2</ele>
        <time>2021-05-22T09:13:38Z</time>
      </trkpt>
      <trkpt lat="42.5135760" lon="-8.6493660">
        <ele>72.2</ele>
        <time>2021-05-22T09:13:39Z</time>
      </trkpt>
      <trkpt lat="42.5135930" lon="-8.6493510">
        <ele>72.3</ele>
        <time>2021-05-22T09:13:40Z</time>
      </trkpt>
      <trkpt lat="42.5136000" lon="-8.6493460">
        <ele>72.3</ele>
        <time>2021-05-22T09:13:41Z</time>
      </trkpt>
      <trkpt lat="42.5136080" lon="-8.6493400">
        <ele>72.3</ele>
        <time>2021-05-22T09:13:42Z</time>
      </trkpt>
      <trkpt lat="42.5136190" lon="-8.6493290">
        <ele>72.4</ele>
        <time>2021-05-22T09:13:43Z</time>
      </trkpt>
      <trkpt lat="42.5136300" lon="-8.6493240">
        <ele>72.4</ele>
        <time>2021-05-22T09:13:44Z</time>
      </trkpt>
      <trkpt lat="42.5136380" lon="-8.6493200">
        <ele>72.4</ele>
        <time>2021-05-22T09:13:45Z</time>
      </trkpt>
      <trkpt lat="42.5136520" lon="-8.6493060">
        <ele>72.4</ele>
        <time>2021-05-22T09:13:46Z</time>
      </trkpt>
      <trkpt lat="42.5136600" lon="-8.6492960">
        <ele>72.5</ele>
        <time>2021-05-22T09:13:47Z</time>
      </trkpt>
      <trkpt lat="42.5136750" lon="-8.6492840">
        <ele>72.5</ele>
        <time>2021-05-22T09:13:48Z</time>
      </trkpt>
      <trkpt lat="42.5136810" lon="-8.6492790">
        <ele>72.5</ele>
        <time>2021-05-22T09:13:49Z</time>
      </trkpt>
      <trkpt lat="42.5136870" lon="-8.6492730">
        <ele>72.5</ele>
        <time>2021-05-22T09:13:50Z</time>
      </trkpt>
      <trkpt lat="42.5136930" lon="-8.6492670">
        <ele>72.5</ele>
        <time>2021-05-22T09:13:51Z</time>
      </trkpt>
      <trkpt lat="42.5137050" lon="-8.6492540">
        <ele>72.6</ele>
        <time>2021-05-22T09:13:52Z</time>
      </trkpt>
      <trkpt lat="42.5137140" lon="-8.6492450">
        <ele>72.6</ele>
        <time>2021-05-22T09:13:53Z</time>
      </trkpt>
      <trkpt lat="42.5137220" lon="-8.6492400">
        <ele>72.6</ele>
        <time>2021-05-22T09:13:54Z</time>
      </trkpt>
      <trkpt lat="42.5137370" lon="-8.6492350">
        <ele>72.6</ele>
        <time>2021-05-22T09:13:55Z</time>
      </trkpt>
      <trkpt lat="42.5137510" lon="-8.6492310">
        <ele>72.6</ele>
        <time>2021-05-22T09:13:56Z</time>
      </trkpt>
      <trkpt lat="42.5137690" lon="-8.6492170">
        <ele>72.7</ele>
        <time>2021-05-22T09:13:57Z</time>
      </trkpt>
      <trkpt lat="42.5137770" lon="-8.6492120">
        <ele>72.7</ele>
        <time>2021-05-22T09:13:58Z</time>
      </trkpt>
      <trkpt lat="42.5137840" lon="-8.6492060">
        <ele>72.7</ele>
        <time>2021-05-22T09:13:59Z</time>
      </trkpt>
      <trkpt lat="42.5138010" lon="-8.6491920">
        <ele>72.7</ele>
        <time>2021-05-22T09:14:00Z</time>
      </trkpt>
      <trkpt lat="42.5138110" lon="-8.6491790">
        <ele>72.7</ele>
        <time>2021-05-22T09:14:01Z</time>
      </trkpt>
      <trkpt lat="42.5138130" lon="-8.6491730">
        <ele>72.7</ele>
        <time>2021-05-22T09:14:02Z</time>
      </trkpt>
      <trkpt lat="42.5138220" lon="-8.6491620">
        <ele>72.8</ele>
        <time>2021-05-22T09:14:03Z</time>
      </trkpt>
      <trkpt lat="42.5138370" lon="-8.6491570">
        <ele>72.8</ele>
        <time>2021-05-22T09:14:04Z</time>
      </trkpt>
      <trkpt lat="42.5138480" lon="-8.6491500">
        <ele>72.8</ele>
        <time>2021-05-22T09:14:05Z</time>
      </trkpt>
      <trkpt lat="42.5138560" lon="-8.6491460">
        <ele>72.8</ele>
        <time>2021-05-22T09:14:06Z</time>
      </trkpt>
      <trkpt lat="42.5138650" lon="-8.6491410">
        <ele>72.8</ele>
        <time>2021-05-22T09:14:07Z</time>
      </trkpt>
      <trkpt lat="42.5138730" lon="-8.6491360">
        <ele>72.8</ele>
        <time>2021-05-22T09:14:08Z</time>
      </trkpt>
      <trkpt lat="42.5138910" lon="-8.6491210">
        <ele>72.8</ele>
        <time>2021-05-22T09:14:09Z</time>
      </trkpt>
      <trkpt lat="42.5138970" lon="-8.6491140">
        <ele>72.8</ele>
        <time>2021-05-22T09:14:10Z</time>
      </trkpt>
      <trkpt lat="42.5139030" lon="-8.6491080">
        <ele>72.8</ele>
        <time>2021-05-22T09:14:11Z</time>
      </trkpt>
      <trkpt lat="42.5139120" lon="-8.6491030">
        <ele>72.9</ele>
        <time>2021-05-22T09:14:12Z</time>
      </trkpt>
      <trkpt lat="42.5139230" lon="-8.6491000">
        <ele>72.9</ele>
        <time>2021-05-22T09:14:13Z</time>
      </trkpt>
      <trkpt lat="42.5139300" lon="-8.6490960">
        <ele>72.9</ele>
        <time>2021-05-22T09:14:14Z</time>
      </trkpt>
      <trkpt lat="42.5139440" lon="-8.6490930">
        <ele>72.9</ele>
        <time>2021-05-22T09:14:15Z</time>
      </trkpt>
      <trkpt lat="42.5139570" lon="-8.6490880">
        <ele>72.9</ele>
        <time>2021-05-22T09:14:16Z</time>
      </trkpt>
      <trkpt lat="42.5139680" lon="-8.6490850">
        <ele>72.9</ele>
        <time>2021-05-22T09:14:17Z</time>
      </trkpt>
      <trkpt lat="42.5139820" lon="-8.6490770">
        <ele>72.9</ele>
        <time>2021-05-22T09:14:18Z</time>
      </trkpt>
      <trkpt lat="42.5139870" lon="-8.6490760">
        <ele>72.9</ele>
        <time>2021-05-22T09:14:19Z</time>
      </trkpt>
      <trkpt lat="42.5140010" lon="-8.6490740">
        <ele>73.0</ele>
        <time>2021-05-22T09:14:20Z</time>
      </trkpt>
      <trkpt lat="42.5140090" lon="-8.6490670">
        <ele>73.0</ele>
        <time>2021-05-22T09:14:21Z</time>
      </trkpt>
      <trkpt lat="42.5140190" lon="-8.6490610">
        <ele>73.0</ele>
        <time>2021-05-22T09:14:22Z</time>
      </trkpt>
      <trkpt lat="42.5140310" lon="-8.6490490">
        <ele>73.0</ele>
        <time>2021-05-22T09:14:23Z</time>
      </trkpt>
      <trkpt lat="42.5140480" lon="-8.6490380">
        <ele>73.0</ele>
        <time>2021-05-22T09:14:24Z</time>
      </trkpt>
      <trkpt lat="42.5140640" lon="-8.6490330">
        <ele>73.0</ele>
        <time>2021-05-22T09:14:25Z</time>
      </trkpt>
      <trkpt lat="42.5140770" lon="-8.6490240">
        <ele>73.0</ele>
        <time>2021-05-22T09:14:26Z</time>
      </trkpt>
      <trkpt lat="42.5140950" lon="-8.6490150">
        <ele>73.1</ele>
        <time>2021-05-22T09:14:27Z</time>
      </trkpt>
      <trkpt lat="42.5141030" lon="-8.6490190">
        <ele>73.1</ele>
        <time>2021-05-22T09:14:28Z</time>
      </trkpt>
      <trkpt lat="42.5141060" lon="-8.6490200">
        <ele>73.1</ele>
        <time>2021-05-22T09:14:29Z</time>
      </trkpt>
      <trkpt lat="42.5141270" lon="-8.6490070">
        <ele>73.1</ele>
        <time>2021-05-22T09:14:30Z</time>
      </trkpt>
      <trkpt lat="42.5141360" lon="-8.6490000">
        <ele>73.1</ele>
        <time>2021-05-22T09:14:31Z</time>
      </trkpt>
      <trkpt lat="42.5141450" lon="-8.6489940">
        <ele>73.1</ele>
        <time>2021-05-22T09:14:32Z</time>
      </trkpt>
      <trkpt lat="42.5141570" lon="-8.6489870">
        <ele>73.1</ele>
        <time>2021-05-22T09:14:33Z</time>
      </trkpt>
      <trkpt lat="42.5141680" lon="-8.6489880">
        <ele>73.1</ele>
        <time>2021-05-22T09:14:34Z</time>
      </trkpt>
      <trkpt lat="42.5141780" lon="-8.6489820">
        <ele>73.2</ele>
        <time>2021-05-22T09:14:35Z</time>
      </trkpt>
      <trkpt lat="42.5141980" lon="-8.6489690">
        <ele>73.2</ele>
        <time>2021-05-22T09:14:36Z</time>
      </trkpt>
      <trkpt lat="42.5142060" lon="-8.6489620">
        <ele>73.2</ele>
        <time>2021-05-22T09:14:37Z</time>
      </trkpt>
      <trkpt lat="42.5142140" lon="-8.6489560">
        <ele>73.2</ele>
        <time>2021-05-22T09:14:38Z</time>
      </trkpt>
      <trkpt lat="42.5142290" lon="-8.6489450">
        <ele>73.2</ele>
        <time>2021-05-22T09:14:39Z</time>
      </trkpt>
      <trkpt lat="42.5142430" lon="-8.6489350">
        <ele>73.2</ele>
        <time>2021-05-22T09:14:40Z</time>
      </trkpt>
      <trkpt lat="42.5142520" lon="-8.6489300">
        <ele>73.2</ele>
        <time>2021-05-22T09:14:41Z</time>
      </trkpt>
      <trkpt lat="42.5142630" lon="-8.6489300">
        <ele>73.3</ele>
        <time>2021-05-22T09:14:42Z</time>
      </trkpt>
      <trkpt lat="42.5142760" lon="-8.6489160">
        <ele>73.3</ele>
        <time>2021-05-22T09:14:43Z</time>
      </trkpt>
      <trkpt lat="42.5142820" lon="-8.6489070">
        <ele>73.3</ele>
        <time>2021-05-22T09:14:44Z</time>
      </trkpt>
      <trkpt lat="42.5142870" lon="-8.6489010">
        <ele>73.3</ele>
        <time>2021-05-22T09:14:45Z</time>
      </trkpt>
      <trkpt lat="42.5142920" lon="-8.6488970">
        <ele>73.3</ele>
        <time>2021-05-22T09:14:46Z</time>
      </trkpt>
      <trkpt lat="42.5142990" lon="-8.6488920">
        <ele>73.3</ele>
        <time>2021-05-22T09:14:47Z</time>
      </trkpt>
      <trkpt lat="42.5143190" lon="-8.6488800">
        <ele>73.3</ele>
        <time>2021-05-22T09:14:48Z</time>
      </trkpt>
      <trkpt lat="42.5143290" lon="-8.6488730">
        <ele>73.4</ele>
        <time>2021-05-22T09:14:49Z</time>
      </trkpt>
      <trkpt lat="42.5143380" lon="-8.6488670">
        <ele>73.4</ele>
        <time>2021-05-22T09:14:50Z</time>
      </trkpt>
      <trkpt lat="42.5143530" lon="-8.6488540">
        <ele>73.4</ele>
        <time>2021-05-22T09:14:51Z</time>
      </trkpt>
      <trkpt lat="42.5143640" lon="-8.6488510">
        <ele>73.4</ele>
        <time>2021-05-22T09:14:52Z</time>
      </trkpt>
      <trkpt lat="42.5143740" lon="-8.6488470">
        <ele>73.4</ele>
        <time>2021-05-22T09:14:53Z</time>
      </trkpt>
      <trkpt lat="42.5143840" lon="-8.6488460">
        <ele>73.5</ele>
        <time>2021-05-22T09:14:54Z</time>
      </trkpt>
      <trkpt lat="42.5144000" lon="-8.6488350">
        <ele>73.5</ele>
        <time>2021-05-22T09:14:55Z</time>
      </trkpt>
      <trkpt lat="42.5144210" lon="-8.6488280">
        <ele>73.5</ele>
        <time>2021-05-22T09:14:56Z</time>
      </trkpt>
      <trkpt lat="42.5144280" lon="-8.6488240">
        <ele>73.5</ele>
        <time>2021-05-22T09:14:57Z</time>
      </trkpt>
      <trkpt lat="42.5144360" lon="-8.6488210">
        <ele>73.6</ele>
        <time>2021-05-22T09:14:58Z</time>
      </trkpt>
      <trkpt lat="42.5144560" lon="-8.6488150">
        <ele>73.6</ele>
        <time>2021-05-22T09:14:59Z</time>
      </trkpt>
      <trkpt lat="42.5144650" lon="-8.6488110">
        <ele>73.6</ele>
        <time>2021-05-22T09:15:00Z</time>
      </trkpt>
      <trkpt lat="42.5144730" lon="-8.6488080">
        <ele>73.7</ele>
        <time>2021-05-22T09:15:01Z</time>
      </trkpt>
      <trkpt lat="42.5144830" lon="-8.6488030">
        <ele>73.7</ele>
        <time>2021-05-22T09:15:02Z</time>
      </trkpt>
      <trkpt lat="42.5144940" lon="-8.6488010">
        <ele>73.7</ele>
        <time>2021-05-22T09:15:03Z</time>
      </trkpt>
      <trkpt lat="42.5145070" lon="-8.6487950">
        <ele>73.7</ele>
        <time>2021-05-22T09:15:04Z</time>
      </trkpt>
      <trkpt lat="42.5145250" lon="-8.6487900">
        <ele>73.8</ele>
        <time>2021-05-22T09:15:05Z</time>
      </trkpt>
      <trkpt lat="42.5145410" lon="-8.6487810">
        <ele>73.8</ele>
        <time>2021-05-22T09:15:06Z</time>
      </trkpt>
      <trkpt lat="42.5145560" lon="-8.6487720">
        <ele>73.9</ele>
        <time>2021-05-22T09:15:07Z</time>
      </trkpt>
      <trkpt lat="42.5145680" lon="-8.6487630">
        <ele>73.9</ele>
        <time>2021-05-22T09:15:08Z</time>
      </trkpt>
      <trkpt lat="42.5145830" lon="-8.6487550">
        <ele>74.0</ele>
        <time>2021-05-22T09:15:09Z</time>
      </trkpt>
      <trkpt lat="42.5145970" lon="-8.6487500">
        <ele>74.0</ele>
        <time>2021-05-22T09:15:10Z</time>
      </trkpt>
      <trkpt lat="42.5146090" lon="-8.6487470">
        <ele>74.1</ele>
        <time>2021-05-22T09:15:11Z</time>
      </trkpt>
      <trkpt lat="42.5146210" lon="-8.6487450">
        <ele>74.1</ele>
        <time>2021-05-22T09:15:12Z</time>
      </trkpt>
      <trkpt lat="42.5146310" lon="-8.6487360">
        <ele>74.1</ele>
        <time>2021-05-22T09:15:13Z</time>
      </trkpt>
      <trkpt lat="42.5146440" lon="-8.6487270">
        <ele>74.2</ele>
        <time>2021-05-22T09:15:14Z</time>
      </trkpt>
      <trkpt lat="42.5146520" lon="-8.6487220">
        <ele>74.2</ele>
        <time>2021-05-22T09:15:15Z</time>
      </trkpt>
      <trkpt lat="42.5146620" lon="-8.6487180">
        <ele>74.2</ele>
        <time>2021-05-22T09:15:16Z</time>
      </trkpt>
      <trkpt lat="42.5146720" lon="-8.6487130">
        <ele>74.3</ele>
        <time>2021-05-22T09:15:17Z</time>
      </trkpt>
      <trkpt lat="42.5146820" lon="-8.6487100">
        <ele>74.3</ele>
        <time>2021-05-22T09:15:18Z</time>
      </trkpt>
      <trkpt lat="42.5146910" lon="-8.6487080">
        <ele>74.3</ele>
        <time>2021-05-22T09:15:19Z</time>
      </trkpt>
      <trkpt lat="42.5147090" lon="-8.6486990">
        <ele>74.4</ele>
        <time>2021-05-22T09:15:20Z</time>
      </trkpt>
      <trkpt lat="42.5147180" lon="-8.6486950">
        <ele>74.4</ele>
        <time>2021-05-22T09:15:21Z</time>
      </trkpt>
      <trkpt lat="42.5147260" lon="-8.6486920">
        <ele>74.5</ele>
        <time>2021-05-22T09:15:22Z</time>
      </trkpt>
      <trkpt lat="42.5147360" lon="-8.6486860">
        <ele>74.5</ele>
        <time>2021-05-22T09:15:23Z</time>
      </trkpt>
      <trkpt lat="42.5147400" lon="-8.6486900">
        <ele>74.5</ele>
        <time>2021-05-22T09:15:24Z</time>
      </trkpt>
      <trkpt lat="42.5147540" lon="-8.6486810">
        <ele>74.5</ele>
        <time>2021-05-22T09:15:25Z</time>
      </trkpt>
      <trkpt lat="42.5147660" lon="-8.6486750">
        <ele>74.6</ele>
        <time>2021-05-22T09:15:26Z</time>
      </trkpt>
      <trkpt lat="42.5147790" lon="-8.6486680">
        <ele>74.6</ele>
        <time>2021-05-22T09:15:27Z</time>
      </trkpt>
      <trkpt lat="42.5147840" lon="-8.6486620">
        <ele>74.6</ele>
        <time>2021-05-22T09:15:28Z</time>
      </trkpt>
      <trkpt lat="42.5148000" lon="-8.6486570">
        <ele>74.7</ele>
        <time>2021-05-22T09:15:29Z</time>
      </trkpt>
      <trkpt lat="42.5148120" lon="-8.6486520">
        <ele>74.7</ele>
        <time>2021-05-22T09:15:30Z</time>
      </trkpt>
      <trkpt lat="42.5148260" lon="-8.6486420">
        <ele>74.7</ele>
        <time>2021-05-22T09:15:31Z</time>
      </trkpt>
      <trkpt lat="42.5148440" lon="-8.6486340">
        <ele>74.8</ele>
        <time>2021-05-22T09:15:32Z</time>
      </trkpt>
      <trkpt lat="42.5148520" lon="-8.6486340">
        <ele>74.8</ele>
        <time>2021-05-22T09:15:33Z</time>
      </trkpt>
      <trkpt lat="42.5148640" lon="-8.6486310">
        <ele>74.8</ele>
        <time>2021-05-22T09:15:34Z</time>
      </trkpt>
      <trkpt lat="42.5148750" lon="-8.6486250">
        <ele>74.8</ele>
        <time>2021-05-22T09:15:35Z</time>
      </trkpt>
      <trkpt lat="42.5148810" lon="-8.6486240">
        <ele>74.8</ele>
        <time>2021-05-22T09:15:36Z</time>
      </trkpt>
      <trkpt lat="42.5148910" lon="-8.6486190">
        <ele>74.9</ele>
        <time>2021-05-22T09:15:37Z</time>
      </trkpt>
      <trkpt lat="42.5149020" lon="-8.6486130">
        <ele>74.9</ele>
        <time>2021-05-22T09:15:38Z</time>
      </trkpt>
      <trkpt lat="42.5149120" lon="-8.6486060">
        <ele>74.9</ele>
        <time>2021-05-22T09:15:39Z</time>
      </trkpt>
      <trkpt lat="42.5149290" lon="-8.6486000">
        <ele>74.9</ele>
        <time>2021-05-22T09:15:40Z</time>
      </trkpt>
      <trkpt lat="42.5149460" lon="-8.6485960">
        <ele>74.9</ele>
        <time>2021-05-22T09:15:41Z</time>
      </trkpt>
      <trkpt lat="42.5149570" lon="-8.6485900">
        <ele>74.9</ele>
        <time>2021-05-22T09:15:42Z</time>
      </trkpt>
      <trkpt lat="42.5149620" lon="-8.6485830">
        <ele>74.9</ele>
        <time>2021-05-22T09:15:43Z</time>
      </trkpt>
      <trkpt lat="42.5149680" lon="-8.6485820">
        <ele>74.9</ele>
        <time>2021-05-22T09:15:44Z</time>
      </trkpt>
      <trkpt lat="42.5149830" lon="-8.6485740">
        <ele>74.9</ele>
        <time>2021-05-22T09:15:45Z</time>
      </trkpt>
      <trkpt lat="42.5149930" lon="-8.6485640">
        <ele>74.9</ele>
        <time>2021-05-22T09:15:46Z</time>
      </trkpt>
      <trkpt lat="42.5150100" lon="-8.6485590">
        <ele>74.9</ele>
        <time>2021-05-22T09:15:47Z</time>
      </trkpt>
      <trkpt lat="42.5150210" lon="-8.6485520">
        <ele>74.9</ele>
        <time>2021-05-22T09:15:48Z</time>
      </trkpt>
      <trkpt lat="42.5150320" lon="-8.6485430">
        <ele>74.9</ele>
        <time>2021-05-22T09:15:49Z</time>
      </trkpt>
      <trkpt lat="42.5150410" lon="-8.6485380">
        <ele>74.9</ele>
        <time>2021-05-22T09:15:50Z</time>
      </trkpt>
      <trkpt lat="42.5150520" lon="-8.6485350">
        <ele>74.9</ele>
        <time>2021-05-22T09:15:51Z</time>
      </trkpt>
      <trkpt lat="42.5150710" lon="-8.6485250">
        <ele>74.8</ele>
        <time>2021-05-22T09:15:52Z</time>
      </trkpt>
      <trkpt lat="42.5150780" lon="-8.6485170">
        <ele>74.8</ele>
        <time>2021-05-22T09:15:53Z</time>
      </trkpt>
      <trkpt lat="42.5150850" lon="-8.6485070">
        <ele>74.8</ele>
        <time>2021-05-22T09:15:54Z</time>
      </trkpt>
      <trkpt lat="42.5151010" lon="-8.6485020">
        <ele>74.8</ele>
        <time>2021-05-22T09:15:55Z</time>
      </trkpt>
      <trkpt lat="42.5151150" lon="-8.6484970">
        <ele>74.8</ele>
        <time>2021-05-22T09:15:56Z</time>
      </trkpt>
      <trkpt lat="42.5151220" lon="-8.6484920">
        <ele>74.8</ele>
        <time>2021-05-22T09:15:57Z</time>
      </trkpt>
      <trkpt lat="42.5151360" lon="-8.6484890">
        <ele>74.8</ele>
        <time>2021-05-22T09:15:58Z</time>
      </trkpt>
      <trkpt lat="42.5151500" lon="-8.6484840">
        <ele>74.8</ele>
        <time>2021-05-22T09:15:59Z</time>
      </trkpt>
      <trkpt lat="42.5151580" lon="-8.6484800">
        <ele>74.7</ele>
        <time>2021-05-22T09:16:00Z</time>
      </trkpt>
      <trkpt lat="42.5151650" lon="-8.6484770">
        <ele>74.7</ele>
        <time>2021-05-22T09:16:01Z</time>
      </trkpt>
      <trkpt lat="42.5151720" lon="-8.6484730">
        <ele>74.7</ele>
        <time>2021-05-22T09:16:02Z</time>
      </trkpt>
      <trkpt lat="42.5151820" lon="-8.6484690">
        <ele>74.7</ele>
        <time>2021-05-22T09:16:03Z</time>
      </trkpt>
      <trkpt lat="42.5152010" lon="-8.6484580">
        <ele>74.7</ele>
        <time>2021-05-22T09:16:04Z</time>
      </trkpt>
      <trkpt lat="42.5152170" lon="-8.6484570">
        <ele>74.7</ele>
        <time>2021-05-22T09:16:05Z</time>
      </trkpt>
      <trkpt lat="42.5152280" lon="-8.6484530">
        <ele>74.7</ele>
        <time>2021-05-22T09:16:06Z</time>
      </trkpt>
      <trkpt lat="42.5152400" lon="-8.6484500">
        <ele>74.6</ele>
        <time>2021-05-22T09:16:07Z</time>
      </trkpt>
      <trkpt lat="42.5152600" lon="-8.6484400">
        <ele>74.6</ele>
        <time>2021-05-22T09:16:08Z</time>
      </trkpt>
      <trkpt lat="42.5152690" lon="-8.6484340">
        <ele>74.6</ele>
        <time>2021-05-22T09:16:09Z</time>
      </trkpt>
      <trkpt lat="42.5152770" lon="-8.6484280">
        <ele>74.6</ele>
        <time>2021-05-22T09:16:10Z</time>
      </trkpt>
      <trkpt lat="42.5152870" lon="-8.6484230">
        <ele>74.5</ele>
        <time>2021-05-22T09:16:11Z</time>
      </trkpt>
      <trkpt lat="42.5153070" lon="-8.6484130">
        <ele>74.5</ele>
        <time>2021-05-22T09:16:12Z</time>
      </trkpt>
      <trkpt lat="42.5153170" lon="-8.6484020">
        <ele>74.5</ele>
        <time>2021-05-22T09:16:13Z</time>
      </trkpt>
      <trkpt lat="42.5153320" lon="-8.6483880">
        <ele>74.4</ele>
        <time>2021-05-22T09:16:14Z</time>
      </trkpt>
      <trkpt lat="42.5153420" lon="-8.6483780">
        <ele>74.4</ele>
        <time>2021-05-22T09:16:15Z</time>
      </trkpt>
      <trkpt lat="42.5153470" lon="-8.6483750">
        <ele>74.4</ele>
        <time>2021-05-22T09:16:16Z</time>
      </trkpt>
      <trkpt lat="42.5153640" lon="-8.6483680">
        <ele>74.4</ele>
        <time>2021-05-22T09:16:17Z</time>
      </trkpt>
      <trkpt lat="42.5153800" lon="-8.6483500">
        <ele>74.3</ele>
        <time>2021-05-22T09:16:18Z</time>
      </trkpt>
      <trkpt lat="42.5153920" lon="-8.6483460">
        <ele>74.3</ele>
        <time>2021-05-22T09:16:19Z</time>
      </trkpt>
      <trkpt lat="42.5154030" lon="-8.6483410">
        <ele>74.3</ele>
        <time>2021-05-22T09:16:20Z</time>
      </trkpt>
      <trkpt lat="42.5154200" lon="-8.6483240">
        <ele>74.2</ele>
        <time>2021-05-22T09:16:21Z</time>
      </trkpt>
      <trkpt lat="42.5154290" lon="-8.6483160">
        <ele>74.2</ele>
        <time>2021-05-22T09:16:22Z</time>
      </trkpt>
      <trkpt lat="42.5154370" lon="-8.6483090">
        <ele>74.2</ele>
        <time>2021-05-22T09:16:23Z</time>
      </trkpt>
      <trkpt lat="42.5154450" lon="-8.6483030">
        <ele>74.2</ele>
        <time>2021-05-22T09:16:24Z</time>
      </trkpt>
      <trkpt lat="42.5154550" lon="-8.6483010">
        <ele>74.2</ele>
        <time>2021-05-22T09:16:25Z</time>
      </trkpt>
      <trkpt lat="42.5154670" lon="-8.6482940">
        <ele>74.1</ele>
        <time>2021-05-22T09:16:26Z</time>
      </trkpt>
      <trkpt lat="42.5154810" lon="-8.6482790">
        <ele>74.1</ele>
        <time>2021-05-22T09:16:27Z</time>
      </trkpt>
      <trkpt lat="42.5154940" lon="-8.6482730">
        <ele>74.1</ele>
        <time>2021-05-22T09:16:28Z</time>
      </trkpt>
      <trkpt lat="42.5155050" lon="-8.6482670">
        <ele>74.1</ele>
        <time>2021-05-22T09:16:29Z</time>
      </trkpt>
      <trkpt lat="42.5155210" lon="-8.6482600">
        <ele>74.0</ele>
        <time>2021-05-22T09:16:30Z</time>
      </trkpt>
      <trkpt lat="42.5155300" lon="-8.6482550">
        <ele>74.0</ele>
        <time>2021-05-22T09:16:31Z</time>
      </trkpt>
      <trkpt lat="42.5155420" lon="-8.6482450">
        <ele>74.0</ele>
        <time>2021-05-22T09:16:32Z</time>
      </trkpt>
      <trkpt lat="42.5155520" lon="-8.6482400">
        <ele>73.9</ele>
        <time>2021-05-22T09:16:33Z</time>
      </trkpt>
      <trkpt lat="42.5155650" lon="-8.6482280">
        <ele>73.9</ele>
        <time>2021-05-22T09:16:34Z</time>
      </trkpt>
      <trkpt lat="42.5155730" lon="-8.6482230">
        <ele>73.9</ele>
        <time>2021-05-22T09:16:35Z</time>
      </trkpt>
      <trkpt lat="42.5155800" lon="-8.6482170">
        <ele>73.8</ele>
        <time>2021-05-22T09:16:36Z</time>
      </trkpt>
      <trkpt lat="42.5155880" lon="-8.6482110">
        <ele>73.8</ele>
        <time>2021-05-22T09:16:37Z</time>
      </trkpt>
      <trkpt lat="42.5156010" lon="-8.6482010">
        <ele>73.8</ele>
        <time>2021-05-22T09:16:38Z</time>
      </trkpt>
      <trkpt lat="42.5156190" lon="-8.6481870">
        <ele>73.7</ele>
        <time>2021-05-22T09:16:39Z</time>
      </trkpt>
      <trkpt lat="42.5156340" lon="-8.6481730">
        <ele>73.7</ele>
        <time>2021-05-22T09:16:40Z</time>
      </trkpt>
      <trkpt lat="42.5156420" lon="-8.6481670">
        <ele>73.6</ele>
        <time>2021-05-22T09:16:41Z</time>
      </trkpt>
      <trkpt lat="42.5156500" lon="-8.6481600">
        <ele>73.6</ele>
        <time>2021-05-22T09:16:42Z</time>
      </trkpt>
      <trkpt lat="42.5156610" lon="-8.6481550">
        <ele>73.6</ele>
        <time>2021-05-22T09:16:43Z</time>
      </trkpt>
      <trkpt lat="42.5156720" lon="-8.6481480">
        <ele>73.5</ele>
        <time>2021-05-22T09:16:44Z</time>
      </trkpt>
      <trkpt lat="42.5156790" lon="-8.6481430">
        <ele>73.5</ele>
        <time>2021-05-22T09:16:45Z</time>
      </trkpt>
      <trkpt lat="42.5156870" lon="-8.6481280">
        <ele>73.5</ele>
        <time>2021-05-22T09:16:46Z</time>
      </trkpt>
      <trkpt lat="42.5157000" lon="-8.6481180">
        <ele>73.4</ele>
        <time>2021-05-22T09:16:47Z</time>
      </trkpt>
      <trkpt lat="42.5157070" lon="-8.6481070">
        <ele>73.4</ele>
        <time>2021-05-22T09:16:48Z</time>
      </trkpt>
      <trkpt lat="42.5157140" lon="-8.6481000">
        <ele>73.4</ele>
        <time>2021-05-22T09:16:49Z</time>
      </trkpt>
      <trkpt lat="42.5157230" lon="-8.6480930">
        <ele>73.4</ele>
        <time>2021-05-22T09:16:50Z</time>
      </trkpt>
      <trkpt lat="42.5157420" lon="-8.6480790">
        <ele>73.3</ele>
        <time>2021-05-22T09:16:51Z</time>
      </trkpt>
      <trkpt lat="42.5157500" lon="-8.6480750">
        <ele>73.3</ele>
        <time>2021-05-22T09:16:52Z</time>
      </trkpt>
      <trkpt lat="42.5157580" lon="-8.6480720">
        <ele>73.3</ele>
        <time>2021-05-22T09:16:53Z</time>
      </trkpt>
      <trkpt lat="42.5157650" lon="-8.6480650">
        <ele>73.3</ele>
        <time>2021-05-22T09:16:54Z</time>
      </trkpt>
      <trkpt lat="42.5157800" lon="-8.6480500">
        <ele>73.2</ele>
        <time>2021-05-22T09:16:55Z</time>
      </trkpt>
      <trkpt lat="42.5157850" lon="-8.6480470">
        <ele>73.2</ele>
        <time>2021-05-22T09:16:56Z</time>
      </trkpt>
      <trkpt lat="42.5158000" lon="-8.6480370">
        <ele>73.2</ele>
        <time>2021-05-22T09:16:57Z</time>
      </trkpt>
      <trkpt lat="42.5158100" lon="-8.6480360">
        <ele>73.2</ele>
        <time>2021-05-22T09:16:58Z</time>
      </trkpt>
      <trkpt lat="42.5158270" lon="-8.6480200">
        <ele>73.1</ele>
        <time>2021-05-22T09:16:59Z</time>
      </trkpt>
      <trkpt lat="42.5158400" lon="-8.6480100">
        <ele>73.1</ele>
        <time>2021-05-22T09:17:00Z</time>
      </trkpt>
      <trkpt lat="42.5158590" lon="-8.6479970">
        <ele>73.1</ele>
        <time>2021-05-22T09:17:01Z</time>
      </trkpt>
      <trkpt lat="42.5158690" lon="-8.6479900">
        <ele>73.1</ele>
        <time>2021-05-22T09:17:02Z</time>
      </trkpt>
      <trkpt lat="42.5158780" lon="-8.6479840">
        <ele>73.0</ele>
        <time>2021-05-22T09:17:03Z</time>
      </trkpt>
      <trkpt lat="42.5158930" lon="-8.6479770">
        <ele>73.0</ele>
        <time>2021-05-22T09:17:04Z</time>
      </trkpt>
      <trkpt lat="42.5159090" lon="-8.6479760">
        <ele>73.0</ele>
        <time>2021-05-22T09:17:05Z</time>
      </trkpt>
      <trkpt lat="42.5159220" lon="-8.6479700">
        <ele>73.0</ele>
        <time>2021-05-22T09:17:06Z</time>
      </trkpt>
      <trkpt lat="42.5159380" lon="-8.6479640">
        <ele>72.9</ele>
        <time>2021-05-22T09:17:07Z</time>
      </trkpt>
      <trkpt lat="42.5159520" lon="-8.6479520">
        <ele>72.9</ele>
        <time>2021-05-22T09:17:08Z</time>
      </trkpt>
      <trkpt lat="42.5159640" lon="-8.6479410">
        <ele>72.9</ele>
        <time>2021-05-22T09:17:09Z</time>
      </trkpt>
      <trkpt lat="42.5159760" lon="-8.6479300">
        <ele>72.9</ele>
        <time>2021-05-22T09:17:10Z</time>
      </trkpt>
      <trkpt lat="42.5159870" lon="-8.6479190">
        <ele>72.8</ele>
        <time>2021-05-22T09:17:11Z</time>
      </trkpt>
      <trkpt lat="42.5160070" lon="-8.6479060">
        <ele>72.8</ele>
        <time>2021-05-22T09:17:12Z</time>
      </trkpt>
      <trkpt lat="42.5160160" lon="-8.6479030">
        <ele>72.8</ele>
        <time>2021-05-22T09:17:13Z</time>
      </trkpt>
      <trkpt lat="42.5160250" lon="-8.6479010">
        <ele>72.8</ele>
        <time>2021-05-22T09:17:14Z</time>
      </trkpt>
      <trkpt lat="42.5160350" lon="-8.6478890">
        <ele>72.7</ele>
        <time>2021-05-22T09:17:15Z</time>
      </trkpt>
      <trkpt lat="42.5160510" lon="-8.6478850">
        <ele>72.7</ele>
        <time>2021-05-22T09:17:16Z</time>
      </trkpt>
      <trkpt lat="42.5160650" lon="-8.6478790">
        <ele>72.7</ele>
        <time>2021-05-22T09:17:17Z</time>
      </trkpt>
      <trkpt lat="42.5160790" lon="-8.6478750">
        <ele>72.7</ele>
        <time>2021-05-22T09:17:18Z</time>
      </trkpt>
      <trkpt lat="42.5160990" lon="-8.6478610">
        <ele>72.6</ele>
        <time>2021-05-22T09:17:19Z</time>
      </trkpt>
      <trkpt lat="42.5161080" lon="-8.6478590">
        <ele>72.6</ele>
        <time>2021-05-22T09:17:20Z</time>
      </trkpt>
      <trkpt lat="42.5161160" lon="-8.6478570">
        <ele>72.6</ele>
        <time>2021-05-22T09:17:21Z</time>
      </trkpt>
      <trkpt lat="42.5161300" lon="-8.6478500">
        <ele>72.6</ele>
        <time>2021-05-22T09:17:22Z</time>
      </trkpt>
      <trkpt lat="42.5161440" lon="-8.6478440">
        <ele>72.6</ele>
        <time>2021-05-22T09:17:23Z</time>
      </trkpt>
      <trkpt lat="42.5161570" lon="-8.6478400">
        <ele>72.6</ele>
        <time>2021-05-22T09:17:24Z</time>
      </trkpt>
      <trkpt lat="42.5161710" lon="-8.6478380">
        <ele>72.5</ele>
        <time>2021-05-22T09:17:25Z</time>
      </trkpt>
      <trkpt lat="42.5161830" lon="-8.6478300">
        <ele>72.5</ele>
        <time>2021-05-22T09:17:26Z</time>
      </trkpt>
      <trkpt lat="42.5161960" lon="-8.6478200">
        <ele>72.5</ele>
        <time>2021-05-22T09:17:27Z</time>
      </trkpt>
      <trkpt lat="42.5162080" lon="-8.6478180">
        <ele>72.5</ele>
        <time>2021-05-22T09:17:28Z</time>
      </trkpt>
      <trkpt lat="42.5162150" lon="-8.6478090">
        <ele>72.5</ele>
        <time>2021-05-22T09:17:29Z</time>
      </trkpt>
      <trkpt lat="42.5162260" lon="-8.6478000">
        <ele>72.5</ele>
        <time>2021-05-22T09:17:30Z</time>
      </trkpt>
      <trkpt lat="42.5162340" lon="-8.6477930">
        <ele>72.4</ele>
        <time>2021-05-22T09:17:31Z</time>
      </trkpt>
      <trkpt lat="42.5162460" lon="-8.6477810">
        <ele>72.4</ele>
        <time>2021-05-22T09:17:32Z</time>
      </trkpt>
      <trkpt lat="42.5162550" lon="-8.6477740">
        <ele>72.4</ele>
        <time>2021-05-22T09:17:33Z</time>
      </trkpt>
      <trkpt lat="42.5162630" lon="-8.6477640">
        <ele>72.4</ele>
        <time>2021-05-22T09:17:34Z</time>
      </trkpt>
      <trkpt lat="42.5162690" lon="-8.6477520">
        <ele>72.4</ele>
        <time>2021-05-22T09:17:35Z</time>
      </trkpt>
      <trkpt lat="42.5162820" lon="-8.6477460">
        <ele>72.4</ele>
        <time>2021-05-22T09:17:36Z</time>
      </trkpt>
      <trkpt lat="42.5162930" lon="-8.6477410">
        <ele>72.4</ele>
        <time>2021-05-22T09:17:37Z</time>
      </trkpt>
      <trkpt lat="42.5163000" lon="-8.6477330">
        <ele>72.4</ele>
        <time>2021-05-22T09:17:38Z</time>
      </trkpt>
      <trkpt lat="42.5163090" lon="-8.6477220">
        <ele>72.3</ele>
        <time>2021-05-22T09:17:39Z</time>
      </trkpt>
      <trkpt lat="42.5163110" lon="-8.6477170">
        <ele>72.3</ele>
        <time>2021-05-22T09:17:40Z</time>
      </trkpt>
      <trkpt lat="42.5163270" lon="-8.6477090">
        <ele>72.3</ele>
        <time>2021-05-22T09:17:41Z</time>
      </trkpt>
      <trkpt lat="42.5163390" lon="-8.6477010">
        <ele>72.3</ele>
        <time>2021-05-22T09:17:42Z</time>
      </trkpt>
      <trkpt lat="42.5163480" lon="-8.6476910">
        <ele>72.3</ele>
        <time>2021-05-22T09:17:43Z</time>
      </trkpt>
      <trkpt lat="42.5163550" lon="-8.6476850">
        <ele>72.3</ele>
        <time>2021-05-22T09:17:44Z</time>
      </trkpt>
      <trkpt lat="42.5163630" lon="-8.6476800">
        <ele>72.3</ele>
        <time>2021-05-22T09:17:45Z</time>
      </trkpt>
      <trkpt lat="42.5163700" lon="-8.6476740">
        <ele>72.3</ele>
        <time>2021-05-22T09:17:46Z</time>
      </trkpt>
      <trkpt lat="42.5163850" lon="-8.6476670">
        <ele>72.3</ele>
        <time>2021-05-22T09:17:47Z</time>
      </trkpt>
      <trkpt lat="42.5163970" lon="-8.6476610">
        <ele>72.3</ele>
        <time>2021-05-22T09:17:48Z</time>
      </trkpt>
      <trkpt lat="42.5164120" lon="-8.6476530">
        <ele>72.3</ele>
        <time>2021-05-22T09:17:49Z</time>
      </trkpt>
      <trkpt lat="42.5164220" lon="-8.6476450">
        <ele>72.3</ele>
        <time>2021-05-22T09:17:50Z</time>
      </trkpt>
      <trkpt lat="42.5164380" lon="-8.6476370">
        <ele>72.3</ele>
        <time>2021-05-22T09:17:51Z</time>
      </trkpt>
      <trkpt lat="42.5164480" lon="-8.6476330">
        <ele>72.3</ele>
        <time>2021-05-22T09:17:52Z</time>
      </trkpt>
      <trkpt lat="42.5164570" lon="-8.6476280">
        <ele>72.3</ele>
        <time>2021-05-22T09:17:53Z</time>
      </trkpt>
      <trkpt lat="42.5164700" lon="-8.6476210">
        <ele>72.3</ele>
        <time>2021-05-22T09:17:54Z</time>
      </trkpt>
      <trkpt lat="42.5164740" lon="-8.6476200">
        <ele>72.3</ele>
        <time>2021-05-22T09:17:55Z</time>
      </trkpt>
      <trkpt lat="42.5164890" lon="-8.6476200">
        <ele>72.3</ele>
        <time>2021-05-22T09:17:56Z</time>
      </trkpt>
      <trkpt lat="42.5164970" lon="-8.6476160">
        <ele>72.3</ele>
        <time>2021-05-22T09:17:57Z</time>
      </trkpt>
      <trkpt lat="42.5165160" lon="-8.6476120">
        <ele>72.3</ele>
        <time>2021-05-22T09:17:58Z</time>
      </trkpt>
      <trkpt lat="42.5165310" lon="-8.6476070">
        <ele>72.3</ele>
        <time>2021-05-22T09:17:59Z</time>
      </trkpt>
      <trkpt lat="42.5165390" lon="-8.6476020">
        <ele>72.3</ele>
        <time>2021-05-22T09:18:00Z</time>
      </trkpt>
      <trkpt lat="42.5165400" lon="-8.6475960">
        <ele>72.3</ele>
        <time>2021-05-22T09:18:01Z</time>
      </trkpt>
      <trkpt lat="42.5165550" lon="-8.6475880">
        <ele>72.4</ele>
        <time>2021-05-22T09:18:02Z</time>
      </trkpt>
      <trkpt lat="42.5165620" lon="-8.6475850">
        <ele>72.4</ele>
        <time>2021-05-22T09:18:03Z</time>
      </trkpt>
      <trkpt lat="42.5165690" lon="-8.6475810">
        <ele>72.4</ele>
        <time>2021-05-22T09:18:04Z</time>
      </trkpt>
      <trkpt lat="42.5165760" lon="-8.6475770">
        <ele>72.4</ele>
        <time>2021-05-22T09:18:05Z</time>
      </trkpt>
      <trkpt lat="42.5165790" lon="-8.6475720">
        <ele>72.4</ele>
        <time>2021-05-22T09:18:06Z</time>
      </trkpt>
      <trkpt lat="42.5165850" lon="-8.6475690">
        <ele>72.4</ele>
        <time>2021-05-22T09:18:07Z</time>
      </trkpt>
      <trkpt lat="42.5165940" lon="-8.6475630">
        <ele>72.4</ele>
        <time>2021-05-22T09:18:08Z</time>
      </trkpt>
      <trkpt lat="42.5166020" lon="-8.6475580">
        <ele>72.4</ele>
        <time>2021-05-22T09:18:09Z</time>
      </trkpt>
      <trkpt lat="42.5166100" lon="-8.6475540">
        <ele>72.4</ele>
        <time>2021-05-22T09:18:10Z</time>
      </trkpt>
      <trkpt lat="42.5166220" lon="-8.6475450">
        <ele>72.4</ele>
        <time>2021-05-22T09:18:11Z</time>
      </trkpt>
      <trkpt lat="42.5166310" lon="-8.6475410">
        <ele>72.4</ele>
        <time>2021-05-22T09:18:12Z</time>
      </trkpt>
      <trkpt lat="42.5166400" lon="-8.6475400">
        <ele>72.4</ele>
        <time>2021-05-22T09:18:13Z</time>
      </trkpt>
      <trkpt lat="42.5166430" lon="-8.6475350">
        <ele>72.4</ele>
        <time>2021-05-22T09:18:14Z</time>
      </trkpt>
      <trkpt lat="42.5166520" lon="-8.6475330">
        <ele>72.4</ele>
        <time>2021-05-22T09:18:15Z</time>
      </trkpt>
      <trkpt lat="42.5166640" lon="-8.6475320">
        <ele>72.4</ele>
        <time>2021-05-22T09:18:16Z</time>
      </trkpt>
      <trkpt lat="42.5166800" lon="-8.6475290">
        <ele>72.4</ele>
        <time>2021-05-22T09:18:17Z</time>
      </trkpt>
      <trkpt lat="42.5166870" lon="-8.6475270">
        <ele>72.4</ele>
        <time>2021-05-22T09:18:18Z</time>
      </trkpt>
      <trkpt lat="42.5166930" lon="-8.6475240">
        <ele>72.4</ele>
        <time>2021-05-22T09:18:19Z</time>
      </trkpt>
      <trkpt lat="42.5167000" lon="-8.6475220">
        <ele>72.4</ele>
        <time>2021-05-22T09:18:20Z</time>
      </trkpt>
      <trkpt lat="42.5167160" lon="-8.6475200">
        <ele>72.4</ele>
        <time>2021-05-22T09:18:21Z</time>
      </trkpt>
      <trkpt lat="42.5167290" lon="-8.6475170">
        <ele>72.4</ele>
        <time>2021-05-22T09:18:22Z</time>
      </trkpt>
      <trkpt lat="42.5167400" lon="-8.6475120">
        <ele>72.4</ele>
        <time>2021-05-22T09:18:23Z</time>
      </trkpt>
      <trkpt lat="42.5167490" lon="-8.6475080">
        <ele>72.4</ele>
        <time>2021-05-22T09:18:24Z</time>
      </trkpt>
      <trkpt lat="42.5167550" lon="-8.6475040">
        <ele>72.4</ele>
        <time>2021-05-22T09:18:25Z</time>
      </trkpt>
      <trkpt lat="42.5167520" lon="-8.6475020">
        <ele>72.4</ele>
        <time>2021-05-22T09:18:26Z</time>
      </trkpt>
      <trkpt lat="42.5167530" lon="-8.6475040">
        <ele>72.4</ele>
        <time>2021-05-22T09:18:27Z</time>
      </trkpt>
      <trkpt lat="42.5167540" lon="-8.6475070">
        <ele>72.4</ele>
        <time>2021-05-22T09:18:28Z</time>
      </trkpt>
      <trkpt lat="42.5167560" lon="-8.6475030">
        <ele>72.4</ele>
        <time>2021-05-22T09:18:29Z</time>
      </trkpt>
      <trkpt lat="42.5167640" lon="-8.6474900">
        <ele>72.4</ele>
        <time>2021-05-22T09:18:30Z</time>
      </trkpt>
      <trkpt lat="42.5167720" lon="-8.6474870">
        <ele>72.4</ele>
        <time>2021-05-22T09:18:31Z</time>
      </trkpt>
      <trkpt lat="42.5167850" lon="-8.6474840">
        <ele>72.4</ele>
        <time>2021-05-22T09:18:32Z</time>
      </trkpt>
      <trkpt lat="42.5168030" lon="-8.6474780">
        <ele>72.4</ele>
        <time>2021-05-22T09:18:33Z</time>
      </trkpt>
      <trkpt lat="42.5168140" lon="-8.6474750">
        <ele>72.4</ele>
        <time>2021-05-22T09:18:34Z</time>
      </trkpt>
      <trkpt lat="42.5168250" lon="-8.6474720">
        <ele>72.4</ele>
        <time>2021-05-22T09:18:35Z</time>
      </trkpt>
      <trkpt lat="42.5168380" lon="-8.6474630">
        <ele>72.4</ele>
        <time>2021-05-22T09:18:36Z</time>
      </trkpt>
      <trkpt lat="42.5168560" lon="-8.6474540">
        <ele>72.4</ele>
        <time>2021-05-22T09:18:37Z</time>
      </trkpt>
      <trkpt lat="42.5168560" lon="-8.6474460">
        <ele>72.4</ele>
        <time>2021-05-22T09:18:38Z</time>
      </trkpt>
      <trkpt lat="42.5168760" lon="-8.6474410">
        <ele>72.4</ele>
        <time>2021-05-22T09:18:39Z</time>
      </trkpt>
      <trkpt lat="42.5168900" lon="-8.6474360">
        <ele>72.4</ele>
        <time>2021-05-22T09:18:40Z</time>
      </trkpt>
      <trkpt lat="42.5169020" lon="-8.6474230">
        <ele>72.4</ele>
        <time>2021-05-22T09:18:41Z</time>
      </trkpt>
      <trkpt lat="42.5169150" lon="-8.6474130">
        <ele>72.4</ele>
        <time>2021-05-22T09:18:42Z</time>
      </trkpt>
      <trkpt lat="42.5169300" lon="-8.6474060">
        <ele>72.3</ele>
        <time>2021-05-22T09:18:43Z</time>
      </trkpt>
      <trkpt lat="42.5169420" lon="-8.6474040">
        <ele>72.3</ele>
        <time>2021-05-22T09:18:44Z</time>
      </trkpt>
      <trkpt lat="42.5169500" lon="-8.6473920">
        <ele>72.3</ele>
        <time>2021-05-22T09:18:45Z</time>
      </trkpt>
      <trkpt lat="42.5169670" lon="-8.6473860">
        <ele>72.3</ele>
        <time>2021-05-22T09:18:46Z</time>
      </trkpt>
      <trkpt lat="42.5169900" lon="-8.6473800">
        <ele>72.3</ele>
        <time>2021-05-22T09:18:47Z</time>
      </trkpt>
      <trkpt lat="42.5170000" lon="-8.6473740">
        <ele>72.3</ele>
        <time>2021-05-22T09:18:48Z</time>
      </trkpt>
      <trkpt lat="42.5170290" lon="-8.6473570">
        <ele>72.2</ele>
        <time>2021-05-22T09:18:49Z</time>
      </trkpt>
      <trkpt lat="42.5170370" lon="-8.6473510">
        <ele>72.2</ele>
        <time>2021-05-22T09:18:50Z</time>
      </trkpt>
      <trkpt lat="42.5170430" lon="-8.6473410">
        <ele>72.2</ele>
        <time>2021-05-22T09:18:51Z</time>
      </trkpt>
      <trkpt lat="42.5170530" lon="-8.6473280">
        <ele>72.2</ele>
        <time>2021-05-22T09:18:52Z</time>
      </trkpt>
      <trkpt lat="42.5170620" lon="-8.6473210">
        <ele>72.2</ele>
        <time>2021-05-22T09:18:53Z</time>
      </trkpt>
      <trkpt lat="42.5170790" lon="-8.6473090">
        <ele>72.1</ele>
        <time>2021-05-22T09:18:54Z</time>
      </trkpt>
      <trkpt lat="42.5170900" lon="-8.6473030">
        <ele>72.1</ele>
        <time>2021-05-22T09:18:55Z</time>
      </trkpt>
      <trkpt lat="42.5171020" lon="-8.6472970">
        <ele>72.1</ele>
        <time>2021-05-22T09:18:56Z</time>
      </trkpt>
      <trkpt lat="42.5171190" lon="-8.6472870">
        <ele>72.1</ele>
        <time>2021-05-22T09:18:57Z</time>
      </trkpt>
      <trkpt lat="42.5171280" lon="-8.6472810">
        <ele>72.1</ele>
        <time>2021-05-22T09:18:58Z</time>
      </trkpt>
      <trkpt lat="42.5171360" lon="-8.6472760">
        <ele>72.1</ele>
        <time>2021-05-22T09:18:59Z</time>
      </trkpt>
      <trkpt lat="42.5171500" lon="-8.6472710">
        <ele>72.0</ele>
        <time>2021-05-22T09:19:00Z</time>
      </trkpt>
      <trkpt lat="42.5171700" lon="-8.6472610">
        <ele>72.0</ele>
        <time>2021-05-22T09:19:01Z</time>
      </trkpt>
      <trkpt lat="42.5171780" lon="-8.6472550">
        <ele>72.0</ele>
        <time>2021-05-22T09:19:02Z</time>
      </trkpt>
      <trkpt lat="42.5171890" lon="-8.6472480">
        <ele>72.0</ele>
        <time>2021-05-22T09:19:03Z</time>
      </trkpt>
      <trkpt lat="42.5172020" lon="-8.6472440">
        <ele>72.0</ele>
        <time>2021-05-22T09:19:04Z</time>
      </trkpt>
      <trkpt lat="42.5172120" lon="-8.6472400">
        <ele>72.0</ele>
        <time>2021-05-22T09:19:05Z</time>
      </trkpt>
      <trkpt lat="42.5172210" lon="-8.6472360">
        <ele>72.0</ele>
        <time>2021-05-22T09:19:06Z</time>
      </trkpt>
      <trkpt lat="42.5172310" lon="-8.6472240">
        <ele>71.9</ele>
        <time>2021-05-22T09:19:07Z</time>
      </trkpt>
      <trkpt lat="42.5172500" lon="-8.6472120">
        <ele>71.9</ele>
        <time>2021-05-22T09:19:08Z</time>
      </trkpt>
      <trkpt lat="42.5172600" lon="-8.6472070">
        <ele>71.9</ele>
        <time>2021-05-22T09:19:09Z</time>
      </trkpt>
      <trkpt lat="42.5172680" lon="-8.6471980">
        <ele>71.9</ele>
        <time>2021-05-22T09:19:10Z</time>
      </trkpt>
      <trkpt lat="42.5172840" lon="-8.6471950">
        <ele>71.9</ele>
        <time>2021-05-22T09:19:11Z</time>
      </trkpt>
      <trkpt lat="42.5172920" lon="-8.6471890">
        <ele>71.9</ele>
        <time>2021-05-22T09:19:12Z</time>
      </trkpt>
      <trkpt lat="42.5172980" lon="-8.6471830">
        <ele>71.9</ele>
        <time>2021-05-22T09:19:13Z</time>
      </trkpt>
      <trkpt lat="42.5173080" lon="-8.6471770">
        <ele>71.9</ele>
        <time>2021-05-22T09:19:14Z</time>
      </trkpt>
      <trkpt lat="42.5173180" lon="-8.6471680">
        <ele>71.8</ele>
        <time>2021-05-22T09:19:15Z</time>
      </trkpt>
      <trkpt lat="42.5173270" lon="-8.6471650">
        <ele>71.8</ele>
        <time>2021-05-22T09:19:16Z</time>
      </trkpt>
      <trkpt lat="42.5173410" lon="-8.6471580">
        <ele>71.8</ele>
        <time>2021-05-22T09:19:17Z</time>
      </trkpt>
      <trkpt lat="42.5173520" lon="-8.6471530">
        <ele>71.8</ele>
        <time>2021-05-22T09:19:18Z</time>
      </trkpt>
      <trkpt lat="42.5173640" lon="-8.6471430">
        <ele>71.8</ele>
        <time>2021-05-22T09:19:19Z</time>
      </trkpt>
      <trkpt lat="42.5173760" lon="-8.6471340">
        <ele>71.7</ele>
        <time>2021-05-22T09:19:20Z</time>
      </trkpt>
      <trkpt lat="42.5173850" lon="-8.6471220">
        <ele>71.7</ele>
        <time>2021-05-22T09:19:21Z</time>
      </trkpt>
      <trkpt lat="42.5173910" lon="-8.6471130">
        <ele>71.7</ele>
        <time>2021-05-22T09:19:22Z</time>
      </trkpt>
      <trkpt lat="42.5173990" lon="-8.6471000">
        <ele>71.7</ele>
        <time>2021-05-22T09:19:23Z</time>
      </trkpt>
      <trkpt lat="42.5174120" lon="-8.6470910">
        <ele>71.7</ele>
        <time>2021-05-22T09:19:24Z</time>
      </trkpt>
      <trkpt lat="42.5174300" lon="-8.6470800">
        <ele>71.6</ele>
        <time>2021-05-22T09:19:25Z</time>
      </trkpt>
      <trkpt lat="42.5174400" lon="-8.6470740">
        <ele>71.6</ele>
        <time>2021-05-22T09:19:26Z</time>
      </trkpt>
      <trkpt lat="42.5174450" lon="-8.6470630">
        <ele>71.6</ele>
        <time>2021-05-22T09:19:27Z</time>
      </trkpt>
      <trkpt lat="42.5174490" lon="-8.6470530">
        <ele>71.6</ele>
        <time>2021-05-22T09:19:28Z</time>
      </trkpt>
      <trkpt lat="42.5174590" lon="-8.6470400">
        <ele>71.6</ele>
        <time>2021-05-22T09:19:29Z</time>
      </trkpt>
      <trkpt lat="42.5174700" lon="-8.6470350">
        <ele>71.6</ele>
        <time>2021-05-22T09:19:30Z</time>
      </trkpt>
      <trkpt lat="42.5174790" lon="-8.6470320">
        <ele>71.6</ele>
        <time>2021-05-22T09:19:31Z</time>
      </trkpt>
      <trkpt lat="42.5174880" lon="-8.6470280">
        <ele>71.5</ele>
        <time>2021-05-22T09:19:32Z</time>
      </trkpt>
      <trkpt lat="42.5175090" lon="-8.6470140">
        <ele>71.5</ele>
        <time>2021-05-22T09:19:33Z</time>
      </trkpt>
      <trkpt lat="42.5175210" lon="-8.6470090">
        <ele>71.5</ele>
        <time>2021-05-22T09:19:34Z</time>
      </trkpt>
      <trkpt lat="42.5175300" lon="-8.6470030">
        <ele>71.5</ele>
        <time>2021-05-22T09:19:35Z</time>
      </trkpt>
      <trkpt lat="42.5175370" lon="-8.6469910">
        <ele>71.5</ele>
        <time>2021-05-22T09:19:36Z</time>
      </trkpt>
      <trkpt lat="42.5175400" lon="-8.6469870">
        <ele>71.4</ele>
        <time>2021-05-22T09:19:37Z</time>
      </trkpt>
      <trkpt lat="42.5175560" lon="-8.6469690">
        <ele>71.4</ele>
        <time>2021-05-22T09:19:38Z</time>
      </trkpt>
      <trkpt lat="42.5175650" lon="-8.6469590">
        <ele>71.4</ele>
        <time>2021-05-22T09:19:39Z</time>
      </trkpt>
      <trkpt lat="42.5175820" lon="-8.6469450">
        <ele>71.3</ele>
        <time>2021-05-22T09:19:40Z</time>
      </trkpt>
      <trkpt lat="42.5175900" lon="-8.6469400">
        <ele>71.3</ele>
        <time>2021-05-22T09:19:41Z</time>
      </trkpt>
      <trkpt lat="42.5175970" lon="-8.6469350">
        <ele>71.3</ele>
        <time>2021-05-22T09:19:42Z</time>
      </trkpt>
      <trkpt lat="42.5176080" lon="-8.6469280">
        <ele>71.3</ele>
        <time>2021-05-22T09:19:43Z</time>
      </trkpt>
      <trkpt lat="42.5176210" lon="-8.6469150">
        <ele>71.3</ele>
        <time>2021-05-22T09:19:44Z</time>
      </trkpt>
      <trkpt lat="42.5176270" lon="-8.6469090">
        <ele>71.2</ele>
        <time>2021-05-22T09:19:45Z</time>
      </trkpt>
      <trkpt lat="42.5176370" lon="-8.6468960">
        <ele>71.2</ele>
        <time>2021-05-22T09:19:46Z</time>
      </trkpt>
      <trkpt lat="42.5176470" lon="-8.6468810">
        <ele>71.2</ele>
        <time>2021-05-22T09:19:47Z</time>
      </trkpt>
      <trkpt lat="42.5176620" lon="-8.6468590">
        <ele>71.1</ele>
        <time>2021-05-22T09:19:48Z</time>
      </trkpt>
      <trkpt lat="42.5176680" lon="-8.6468530">
        <ele>71.1</ele>
        <time>2021-05-22T09:19:49Z</time>
      </trkpt>
      <trkpt lat="42.5176740" lon="-8.6468460">
        <ele>71.1</ele>
        <time>2021-05-22T09:19:50Z</time>
      </trkpt>
      <trkpt lat="42.5176810" lon="-8.6468350">
        <ele>71.1</ele>
        <time>2021-05-22T09:19:51Z</time>
      </trkpt>
      <trkpt lat="42.5176900" lon="-8.6468290">
        <ele>71.0</ele>
        <time>2021-05-22T09:19:52Z</time>
      </trkpt>
      <trkpt lat="42.5177010" lon="-8.6468220">
        <ele>71.0</ele>
        <time>2021-05-22T09:19:53Z</time>
      </trkpt>
      <trkpt lat="42.5177080" lon="-8.6468090">
        <ele>71.0</ele>
        <time>2021-05-22T09:19:54Z</time>
      </trkpt>
      <trkpt lat="42.5177180" lon="-8.6468030">
        <ele>71.0</ele>
        <time>2021-05-22T09:19:55Z</time>
      </trkpt>
      <trkpt lat="42.5177210" lon="-8.6467910">
        <ele>70.9</ele>
        <time>2021-05-22T09:19:56Z</time>
      </trkpt>
      <trkpt lat="42.5177360" lon="-8.6467660">
        <ele>70.9</ele>
        <time>2021-05-22T09:19:57Z</time>
      </trkpt>
      <trkpt lat="42.5177390" lon="-8.6467570">
        <ele>70.8</ele>
        <time>2021-05-22T09:19:58Z</time>
      </trkpt>
      <trkpt lat="42.5177430" lon="-8.6467480">
        <ele>70.8</ele>
        <time>2021-05-22T09:19:59Z</time>
      </trkpt>
      <trkpt lat="42.5177510" lon="-8.6467220">
        <ele>70.8</ele>
        <time>2021-05-22T09:20:00Z</time>
      </trkpt>
      <trkpt lat="42.5177540" lon="-8.6467110">
        <ele>70.7</ele>
        <time>2021-05-22T09:20:01Z</time>
      </trkpt>
      <trkpt lat="42.5177580" lon="-8.6467010">
        <ele>70.7</ele>
        <time>2021-05-22T09:20:02Z</time>
      </trkpt>
      <trkpt lat="42.5177630" lon="-8.6466940">
        <ele>70.7</ele>
        <time>2021-05-22T09:20:03Z</time>
      </trkpt>
      <trkpt lat="42.5177730" lon="-8.6466860">
        <ele>70.7</ele>
        <time>2021-05-22T09:20:04Z</time>
      </trkpt>
      <trkpt lat="42.5177860" lon="-8.6466700">
        <ele>70.6</ele>
        <time>2021-05-22T09:20:05Z</time>
      </trkpt>
      <trkpt lat="42.5178000" lon="-8.6466410">
        <ele>70.5</ele>
        <time>2021-05-22T09:20:06Z</time>
      </trkpt>
      <trkpt lat="42.5178050" lon="-8.6466360">
        <ele>70.5</ele>
        <time>2021-05-22T09:20:07Z</time>
      </trkpt>
      <trkpt lat="42.5178110" lon="-8.6466310">
        <ele>70.5</ele>
        <time>2021-05-22T09:20:08Z</time>
      </trkpt>
      <trkpt lat="42.5178250" lon="-8.6466120">
        <ele>70.4</ele>
        <time>2021-05-22T09:20:09Z</time>
      </trkpt>
      <trkpt lat="42.5178310" lon="-8.6466040">
        <ele>70.4</ele>
        <time>2021-05-22T09:20:10Z</time>
      </trkpt>
      <trkpt lat="42.5178380" lon="-8.6465960">
        <ele>70.4</ele>
        <time>2021-05-22T09:20:11Z</time>
      </trkpt>
      <trkpt lat="42.5178450" lon="-8.6465860">
        <ele>70.4</ele>
        <time>2021-05-22T09:20:12Z</time>
      </trkpt>
      <trkpt lat="42.5178530" lon="-8.6465720">
        <ele>70.3</ele>
        <time>2021-05-22T09:20:13Z</time>
      </trkpt>
      <trkpt lat="42.5178610" lon="-8.6465690">
        <ele>70.3</ele>
        <time>2021-05-22T09:20:14Z</time>
      </trkpt>
      <trkpt lat="42.5178720" lon="-8.6465560">
        <ele>70.3</ele>
        <time>2021-05-22T09:20:15Z</time>
      </trkpt>
      <trkpt lat="42.5178750" lon="-8.6465440">
        <ele>70.2</ele>
        <time>2021-05-22T09:20:16Z</time>
      </trkpt>
      <trkpt lat="42.5178860" lon="-8.6465360">
        <ele>70.2</ele>
        <time>2021-05-22T09:20:17Z</time>
      </trkpt>
      <trkpt lat="42.5178990" lon="-8.6465220">
        <ele>70.2</ele>
        <time>2021-05-22T09:20:18Z</time>
      </trkpt>
      <trkpt lat="42.5179060" lon="-8.6465180">
        <ele>70.2</ele>
        <time>2021-05-22T09:20:19Z</time>
      </trkpt>
      <trkpt lat="42.5179140" lon="-8.6465130">
        <ele>70.1</ele>
        <time>2021-05-22T09:20:20Z</time>
      </trkpt>
      <trkpt lat="42.5179210" lon="-8.6465080">
        <ele>70.1</ele>
        <time>2021-05-22T09:20:21Z</time>
      </trkpt>
      <trkpt lat="42.5179310" lon="-8.6465010">
        <ele>70.1</ele>
        <time>2021-05-22T09:20:22Z</time>
      </trkpt>
      <trkpt lat="42.5179390" lon="-8.6464970">
        <ele>70.1</ele>
        <time>2021-05-22T09:20:23Z</time>
      </trkpt>
      <trkpt lat="42.5179490" lon="-8.6464820">
        <ele>70.0</ele>
        <time>2021-05-22T09:20:24Z</time>
      </trkpt>
      <trkpt lat="42.5179550" lon="-8.6464750">
        <ele>70.0</ele>
        <time>2021-05-22T09:20:25Z</time>
      </trkpt>
      <trkpt lat="42.5179710" lon="-8.6464590">
        <ele>69.9</ele>
        <time>2021-05-22T09:20:26Z</time>
      </trkpt>
      <trkpt lat="42.5179730" lon="-8.6464460">
        <ele>69.9</ele>
        <time>2021-05-22T09:20:27Z</time>
      </trkpt>
      <trkpt lat="42.5179830" lon="-8.6464370">
        <ele>69.9</ele>
        <time>2021-05-22T09:20:28Z</time>
      </trkpt>
      <trkpt lat="42.5179870" lon="-8.6464160">
        <ele>69.8</ele>
        <time>2021-05-22T09:20:29Z</time>
      </trkpt>
      <trkpt lat="42.5179910" lon="-8.6464090">
        <ele>69.8</ele>
        <time>2021-05-22T09:20:30Z</time>
      </trkpt>
      <trkpt lat="42.5179990" lon="-8.6464000">
        <ele>69.8</ele>
        <time>2021-05-22T09:20:31Z</time>
      </trkpt>
      <trkpt lat="42.5180130" lon="-8.6463900">
        <ele>69.8</ele>
        <time>2021-05-22T09:20:32Z</time>
      </trkpt>
      <trkpt lat="42.5180190" lon="-8.6463770">
        <ele>69.7</ele>
        <time>2021-05-22T09:20:33Z</time>
      </trkpt>
      <trkpt lat="42.5180230" lon="-8.6463660">
        <ele>69.7</ele>
        <time>2021-05-22T09:20:34Z</time>
      </trkpt>
      <trkpt lat="42.5180370" lon="-8.6463540">
        <ele>69.6</ele>
        <time>2021-05-22T09:20:35Z</time>
      </trkpt>
      <trkpt lat="42.5180450" lon="-8.6463430">
        <ele>69.6</ele>
        <time>2021-05-22T09:20:36Z</time>
      </trkpt>
      <trkpt lat="42.5180510" lon="-8.6463450">
        <ele>69.6</ele>
        <time>2021-05-22T09:20:37Z</time>
      </trkpt>
      <trkpt lat="42.5180650" lon="-8.6463310">
        <ele>69.6</ele>
        <time>2021-05-22T09:20:38Z</time>
      </trkpt>
      <trkpt lat="42.5180760" lon="-8.6463070">
        <ele>69.5</ele>
        <time>2021-05-22T09:20:39Z</time>
      </trkpt>
      <trkpt lat="42.5180820" lon="-8.6462990">
        <ele>69.5</ele>
        <time>2021-05-22T09:20:40Z</time>
      </trkpt>
      <trkpt lat="42.5180880" lon="-8.6462900">
        <ele>69.4</ele>
        <time>2021-05-22T09:20:41Z</time>
      </trkpt>
      <trkpt lat="42.5180960" lon="-8.6462850">
        <ele>69.4</ele>
        <time>2021-05-22T09:20:42Z</time>
      </trkpt>
      <trkpt lat="42.5181080" lon="-8.6462760">
        <ele>69.4</ele>
        <time>2021-05-22T09:20:43Z</time>
      </trkpt>
      <trkpt lat="42.5181090" lon="-8.6462570">
        <ele>69.3</ele>
        <time>2021-05-22T09:20:44Z</time>
      </trkpt>
      <trkpt lat="42.5181230" lon="-8.6462410">
        <ele>69.3</ele>
        <time>2021-05-22T09:20:45Z</time>
      </trkpt>
      <trkpt lat="42.5181280" lon="-8.6462260">
        <ele>69.3</ele>
        <time>2021-05-22T09:20:46Z</time>
      </trkpt>
      <trkpt lat="42.5181310" lon="-8.6462150">
        <ele>69.2</ele>
        <time>2021-05-22T09:20:47Z</time>
      </trkpt>
      <trkpt lat="42.5181460" lon="-8.6461980">
        <ele>69.2</ele>
        <time>2021-05-22T09:20:48Z</time>
      </trkpt>
      <trkpt lat="42.5181500" lon="-8.6461750">
        <ele>69.1</ele>
        <time>2021-05-22T09:20:49Z</time>
      </trkpt>
      <trkpt lat="42.5181560" lon="-8.6461620">
        <ele>69.1</ele>
        <time>2021-05-22T09:20:50Z</time>
      </trkpt>
      <trkpt lat="42.5181620" lon="-8.6461500">
        <ele>69.1</ele>
        <time>2021-05-22T09:20:51Z</time>
      </trkpt>
      <trkpt lat="42.5181710" lon="-8.6461320">
        <ele>69.0</ele>
        <time>2021-05-22T09:20:52Z</time>
      </trkpt>
      <trkpt lat="42.5181770" lon="-8.6461170">
        <ele>69.0</ele>
        <time>2021-05-22T09:20:53Z</time>
      </trkpt>
      <trkpt lat="42.5181870" lon="-8.6460950">
        <ele>69.0</ele>
        <time>2021-05-22T09:20:54Z</time>
      </trkpt>
      <trkpt lat="42.5181930" lon="-8.6460860">
        <ele>68.9</ele>
        <time>2021-05-22T09:20:55Z</time>
      </trkpt>
      <trkpt lat="42.5182010" lon="-8.6460680">
        <ele>68.9</ele>
        <time>2021-05-22T09:20:56Z</time>
      </trkpt>
      <trkpt lat="42.5182040" lon="-8.6460500">
        <ele>68.9</ele>
        <time>2021-05-22T09:20:57Z</time>
      </trkpt>
      <trkpt lat="42.5182070" lon="-8.6460360">
        <ele>68.9</ele>
        <time>2021-05-22T09:20:58Z</time>
      </trkpt>
      <trkpt lat="42.5182140" lon="-8.6460140">
        <ele>68.8</ele>
        <time>2021-05-22T09:20:59Z</time>
      </trkpt>
      <trkpt lat="42.5182220" lon="-8.6459980">
        <ele>68.8</ele>
        <time>2021-05-22T09:21:00Z</time>
      </trkpt>
      <trkpt lat="42.5182250" lon="-8.6459900">
        <ele>68.8</ele>
        <time>2021-05-22T09:21:01Z</time>
      </trkpt>
      <trkpt lat="42.5182290" lon="-8.6459750">
        <ele>68.7</ele>
        <time>2021-05-22T09:21:02Z</time>
      </trkpt>
      <trkpt lat="42.5182420" lon="-8.6459490">
        <ele>68.7</ele>
        <time>2021-05-22T09:21:03Z</time>
      </trkpt>
      <trkpt lat="42.5182440" lon="-8.6459380">
        <ele>68.7</ele>
        <time>2021-05-22T09:21:04Z</time>
      </trkpt>
      <trkpt lat="42.5182460" lon="-8.6459270">
        <ele>68.6</ele>
        <time>2021-05-22T09:21:05Z</time>
      </trkpt>
      <trkpt lat="42.5182500" lon="-8.6459180">
        <ele>68.6</ele>
        <time>2021-05-22T09:21:06Z</time>
      </trkpt>
      <trkpt lat="42.5182620" lon="-8.6458950">
        <ele>68.6</ele>
        <time>2021-05-22T09:21:07Z</time>
      </trkpt>
      <trkpt lat="42.5182630" lon="-8.6458880">
        <ele>68.5</ele>
        <time>2021-05-22T09:21:08Z</time>
      </trkpt>
      <trkpt lat="42.5182710" lon="-8.6458690">
        <ele>68.5</ele>
        <time>2021-05-22T09:21:09Z</time>
      </trkpt>
      <trkpt lat="42.5182830" lon="-8.6458570">
        <ele>68.5</ele>
        <time>2021-05-22T09:21:10Z</time>
      </trkpt>
      <trkpt lat="42.5182830" lon="-8.6458380">
        <ele>68.5</ele>
        <time>2021-05-22T09:21:11Z</time>
      </trkpt>
      <trkpt lat="42.5182930" lon="-8.6458230">
        <ele>68.4</ele>
        <time>2021-05-22T09:21:12Z</time>
      </trkpt>
      <trkpt lat="42.5182990" lon="-8.6458130">
        <ele>68.4</ele>
        <time>2021-05-22T09:21:13Z</time>
      </trkpt>
      <trkpt lat="42.5183090" lon="-8.6457990">
        <ele>68.4</ele>
        <time>2021-05-22T09:21:14Z</time>
      </trkpt>
      <trkpt lat="42.5183140" lon="-8.6457840">
        <ele>68.4</ele>
        <time>2021-05-22T09:21:15Z</time>
      </trkpt>
      <trkpt lat="42.5183170" lon="-8.6457670">
        <ele>68.4</ele>
        <time>2021-05-22T09:21:16Z</time>
      </trkpt>
      <trkpt lat="42.5183230" lon="-8.6457540">
        <ele>68.3</ele>
        <time>2021-05-22T09:21:17Z</time>
      </trkpt>
      <trkpt lat="42.5183260" lon="-8.6457460">
        <ele>68.3</ele>
        <time>2021-05-22T09:21:18Z</time>
      </trkpt>
      <trkpt lat="42.5183350" lon="-8.6457210">
        <ele>68.3</ele>
        <time>2021-05-22T09:21:19Z</time>
      </trkpt>
      <trkpt lat="42.5183400" lon="-8.6457100">
        <ele>68.3</ele>
        <time>2021-05-22T09:21:20Z</time>
      </trkpt>
      <trkpt lat="42.5183440" lon="-8.6457000">
        <ele>68.2</ele>
        <time>2021-05-22T09:21:21Z</time>
      </trkpt>
      <trkpt lat="42.5183510" lon="-8.6456900">
        <ele>68.2</ele>
        <time>2021-05-22T09:21:22Z</time>
      </trkpt>
      <trkpt lat="42.5183560" lon="-8.6456780">
        <ele>68.2</ele>
        <time>2021-05-22T09:21:23Z</time>
      </trkpt>
      <trkpt lat="42.5183620" lon="-8.6456650">
        <ele>68.2</ele>
        <time>2021-05-22T09:21:24Z</time>
      </trkpt>
      <trkpt lat="42.5183640" lon="-8.6456500">
        <ele>68.2</ele>
        <time>2021-05-22T09:21:25Z</time>
      </trkpt>
      <trkpt lat="42.5183770" lon="-8.6456310">
        <ele>68.1</ele>
        <time>2021-05-22T09:21:26Z</time>
      </trkpt>
      <trkpt lat="42.5183820" lon="-8.6456190">
        <ele>68.1</ele>
        <time>2021-05-22T09:21:27Z</time>
      </trkpt>
      <trkpt lat="42.5183820" lon="-8.6456090">
        <ele>68.1</ele>
        <time>2021-05-22T09:21:28Z</time>
      </trkpt>
      <trkpt lat="42.5183880" lon="-8.6455900">
        <ele>68.1</ele>
        <time>2021-05-22T09:21:29Z</time>
      </trkpt>
      <trkpt lat="42.5183920" lon="-8.6455700">
        <ele>68.0</ele>
        <time>2021-05-22T09:21:30Z</time>
      </trkpt>
      <trkpt lat="42.5184000" lon="-8.6455490">
        <ele>68.0</ele>
        <time>2021-05-22T09:21:31Z</time>
      </trkpt>
      <trkpt lat="42.5184010" lon="-8.6455420">
        <ele>68.0</ele>
        <time>2021-05-22T09:21:32Z</time>
      </trkpt>
      <trkpt lat="42.5184090" lon="-8.6455260">
        <ele>68.0</ele>
        <time>2021-05-22T09:21:33Z</time>
      </trkpt>
      <trkpt lat="42.5184110" lon="-8.6455110">
        <ele>67.9</ele>
        <time>2021-05-22T09:21:34Z</time>
      </trkpt>
      <trkpt lat="42.5184200" lon="-8.6454860">
        <ele>67.9</ele>
        <time>2021-05-22T09:21:35Z</time>
      </trkpt>
      <trkpt lat="42.5184260" lon="-8.6454770">
        <ele>67.9</ele>
        <time>2021-05-22T09:21:36Z</time>
      </trkpt>
      <trkpt lat="42.5184310" lon="-8.6454670">
        <ele>67.9</ele>
        <time>2021-05-22T09:21:37Z</time>
      </trkpt>
      <trkpt lat="42.5184370" lon="-8.6454660">
        <ele>67.9</ele>
        <time>2021-05-22T09:21:38Z</time>
      </trkpt>
      <trkpt lat="42.5184570" lon="-8.6454580">
        <ele>67.8</ele>
        <time>2021-05-22T09:21:39Z</time>
      </trkpt>
      <trkpt lat="42.5184610" lon="-8.6454550">
        <ele>67.8</ele>
        <time>2021-05-22T09:21:40Z</time>
      </trkpt>
      <trkpt lat="42.5184720" lon="-8.6454460">
        <ele>67.8</ele>
        <time>2021-05-22T09:21:41Z</time>
      </trkpt>
      <trkpt lat="42.5184790" lon="-8.6454430">
        <ele>67.8</ele>
        <time>2021-05-22T09:21:42Z</time>
      </trkpt>
      <trkpt lat="42.5184860" lon="-8.6454390">
        <ele>67.8</ele>
        <time>2021-05-22T09:21:43Z</time>
      </trkpt>
      <trkpt lat="42.5184950" lon="-8.6454370">
        <ele>67.8</ele>
        <time>2021-05-22T09:21:44Z</time>
      </trkpt>
      <trkpt lat="42.5184950" lon="-8.6454370">
        <ele>67.8</ele>
        <time>2021-05-22T09:21:45Z</time>
      </trkpt>
      <trkpt lat="42.5185160" lon="-8.6454280">
        <ele>67.7</ele>
        <time>2021-05-22T09:21:46Z</time>
      </trkpt>
      <trkpt lat="42.5185280" lon="-8.6454260">
        <ele>67.5</ele>
        <time>2021-05-22T09:21:47Z</time>
      </trkpt>
      <trkpt lat="42.5185350" lon="-8.6454210">
        <ele>67.4</ele>
        <time>2021-05-22T09:21:48Z</time>
      </trkpt>
      <trkpt lat="42.5185490" lon="-8.6454110">
        <ele>67.2</ele>
        <time>2021-05-22T09:21:49Z</time>
      </trkpt>
      <trkpt lat="42.5185610" lon="-8.6454050">
        <ele>67.1</ele>
        <time>2021-05-22T09:21:50Z</time>
      </trkpt>
      <trkpt lat="42.5185640" lon="-8.6454030">
        <ele>67.0</ele>
        <time>2021-05-22T09:21:51Z</time>
      </trkpt>
      <trkpt lat="42.5185770" lon="-8.6453980">
        <ele>67.0</ele>
        <time>2021-05-22T09:21:52Z</time>
      </trkpt>
      <trkpt lat="42.5185820" lon="-8.6453960">
        <ele>66.7</ele>
        <time>2021-05-22T09:21:53Z</time>
      </trkpt>
      <trkpt lat="42.5185950" lon="-8.6453950">
        <ele>66.6</ele>
        <time>2021-05-22T09:21:54Z</time>
      </trkpt>
      <trkpt lat="42.5186050" lon="-8.6453930">
        <ele>66.6</ele>
        <time>2021-05-22T09:21:55Z</time>
      </trkpt>
      <trkpt lat="42.5186180" lon="-8.6453900">
        <ele>66.3</ele>
        <time>2021-05-22T09:21:56Z</time>
      </trkpt>
      <trkpt lat="42.5186390" lon="-8.6453880">
        <ele>66.3</ele>
        <time>2021-05-22T09:21:57Z</time>
      </trkpt>
      <trkpt lat="42.5186520" lon="-8.6453830">
        <ele>66.0</ele>
        <time>2021-05-22T09:21:58Z</time>
      </trkpt>
      <trkpt lat="42.5186590" lon="-8.6453850">
        <ele>65.9</ele>
        <time>2021-05-22T09:21:59Z</time>
      </trkpt>
      <trkpt lat="42.5186720" lon="-8.6453850">
        <ele>65.8</ele>
        <time>2021-05-22T09:22:00Z</time>
      </trkpt>
      <trkpt lat="42.5186790" lon="-8.6453860">
        <ele>65.6</ele>
        <time>2021-05-22T09:22:01Z</time>
      </trkpt>
      <trkpt lat="42.5186870" lon="-8.6453870">
        <ele>65.5</ele>
        <time>2021-05-22T09:22:02Z</time>
      </trkpt>
      <trkpt lat="42.5186910" lon="-8.6453860">
        <ele>65.5</ele>
        <time>2021-05-22T09:22:03Z</time>
      </trkpt>
      <trkpt lat="42.5187020" lon="-8.6453860">
        <ele>65.4</ele>
        <time>2021-05-22T09:22:04Z</time>
      </trkpt>
      <trkpt lat="42.5187010" lon="-8.6453860">
        <ele>65.4</ele>
        <time>2021-05-22T09:22:05Z</time>
      </trkpt>
      <trkpt lat="42.5187100" lon="-8.6453910">
        <ele>65.3</ele>
        <time>2021-05-22T09:22:06Z</time>
      </trkpt>
      <trkpt lat="42.5187210" lon="-8.6453820">
        <ele>65.3</ele>
        <time>2021-05-22T09:22:07Z</time>
      </trkpt>
      <trkpt lat="42.5187270" lon="-8.6453830">
        <ele>65.2</ele>
        <time>2021-05-22T09:22:08Z</time>
      </trkpt>
      <trkpt lat="42.5187330" lon="-8.6453870">
        <ele>65.2</ele>
        <time>2021-05-22T09:22:09Z</time>
      </trkpt>
      <trkpt lat="42.5187530" lon="-8.6453810">
        <ele>65.1</ele>
        <time>2021-05-22T09:22:10Z</time>
      </trkpt>
      <trkpt lat="42.5187560" lon="-8.6453850">
        <ele>65.1</ele>
        <time>2021-05-22T09:22:11Z</time>
      </trkpt>
      <trkpt lat="42.5187620" lon="-8.6453790">
        <ele>65.1</ele>
        <time>2021-05-22T09:22:12Z</time>
      </trkpt>
      <trkpt lat="42.5187750" lon="-8.6453780">
        <ele>65.0</ele>
        <time>2021-05-22T09:22:13Z</time>
      </trkpt>
      <trkpt lat="42.5187790" lon="-8.6453800">
        <ele>65.0</ele>
        <time>2021-05-22T09:22:14Z</time>
      </trkpt>
      <trkpt lat="42.5187900" lon="-8.6453770">
        <ele>65.0</ele>
        <time>2021-05-22T09:22:15Z</time>
      </trkpt>
      <trkpt lat="42.5187980" lon="-8.6453820">
        <ele>64.9</ele>
        <time>2021-05-22T09:22:16Z</time>
      </trkpt>
      <trkpt lat="42.5188190" lon="-8.6453820">
        <ele>64.8</ele>
        <time>2021-05-22T09:22:17Z</time>
      </trkpt>
      <trkpt lat="42.5188420" lon="-8.6453820">
        <ele>64.7</ele>
        <time>2021-05-22T09:22:18Z</time>
      </trkpt>
      <trkpt lat="42.5188520" lon="-8.6453830">
        <ele>64.7</ele>
        <time>2021-05-22T09:22:19Z</time>
      </trkpt>
      <trkpt lat="42.5188620" lon="-8.6453830">
        <ele>64.7</ele>
        <time>2021-05-22T09:22:20Z</time>
      </trkpt>
      <trkpt lat="42.5188660" lon="-8.6453850">
        <ele>64.6</ele>
        <time>2021-05-22T09:22:21Z</time>
      </trkpt>
      <trkpt lat="42.5188760" lon="-8.6453830">
        <ele>64.6</ele>
        <time>2021-05-22T09:22:22Z</time>
      </trkpt>
      <trkpt lat="42.5188820" lon="-8.6453840">
        <ele>64.6</ele>
        <time>2021-05-22T09:22:23Z</time>
      </trkpt>
      <trkpt lat="42.5188890" lon="-8.6453880">
        <ele>64.5</ele>
        <time>2021-05-22T09:22:24Z</time>
      </trkpt>
      <trkpt lat="42.5189020" lon="-8.6453870">
        <ele>64.5</ele>
        <time>2021-05-22T09:22:25Z</time>
      </trkpt>
      <trkpt lat="42.5189170" lon="-8.6453860">
        <ele>64.4</ele>
        <time>2021-05-22T09:22:26Z</time>
      </trkpt>
      <trkpt lat="42.5189370" lon="-8.6453880">
        <ele>64.4</ele>
        <time>2021-05-22T09:22:27Z</time>
      </trkpt>
      <trkpt lat="42.5189460" lon="-8.6453870">
        <ele>64.3</ele>
        <time>2021-05-22T09:22:28Z</time>
      </trkpt>
      <trkpt lat="42.5189540" lon="-8.6453860">
        <ele>64.3</ele>
        <time>2021-05-22T09:22:29Z</time>
      </trkpt>
      <trkpt lat="42.5189640" lon="-8.6453890">
        <ele>64.3</ele>
        <time>2021-05-22T09:22:30Z</time>
      </trkpt>
      <trkpt lat="42.5189820" lon="-8.6453900">
        <ele>64.2</ele>
        <time>2021-05-22T09:22:31Z</time>
      </trkpt>
      <trkpt lat="42.5189880" lon="-8.6453920">
        <ele>64.2</ele>
        <time>2021-05-22T09:22:32Z</time>
      </trkpt>
      <trkpt lat="42.5189990" lon="-8.6453890">
        <ele>64.1</ele>
        <time>2021-05-22T09:22:33Z</time>
      </trkpt>
      <trkpt lat="42.5190090" lon="-8.6453940">
        <ele>64.1</ele>
        <time>2021-05-22T09:22:34Z</time>
      </trkpt>
      <trkpt lat="42.5190290" lon="-8.6453960">
        <ele>64.0</ele>
        <time>2021-05-22T09:22:35Z</time>
      </trkpt>
      <trkpt lat="42.5190400" lon="-8.6453980">
        <ele>64.0</ele>
        <time>2021-05-22T09:22:36Z</time>
      </trkpt>
      <trkpt lat="42.5190500" lon="-8.6453990">
        <ele>64.0</ele>
        <time>2021-05-22T09:22:37Z</time>
      </trkpt>
      <trkpt lat="42.5190730" lon="-8.6453990">
        <ele>63.9</ele>
        <time>2021-05-22T09:22:38Z</time>
      </trkpt>
      <trkpt lat="42.5190850" lon="-8.6454010">
        <ele>63.8</ele>
        <time>2021-05-22T09:22:39Z</time>
      </trkpt>
      <trkpt lat="42.5190970" lon="-8.6454030">
        <ele>63.8</ele>
        <time>2021-05-22T09:22:40Z</time>
      </trkpt>
      <trkpt lat="42.5190940" lon="-8.6454040">
        <ele>63.8</ele>
        <time>2021-05-22T09:22:41Z</time>
      </trkpt>
      <trkpt lat="42.5191050" lon="-8.6454040">
        <ele>63.7</ele>
        <time>2021-05-22T09:22:42Z</time>
      </trkpt>
      <trkpt lat="42.5191160" lon="-8.6454060">
        <ele>63.7</ele>
        <time>2021-05-22T09:22:43Z</time>
      </trkpt>
      <trkpt lat="42.5191310" lon="-8.6454050">
        <ele>63.6</ele>
        <time>2021-05-22T09:22:44Z</time>
      </trkpt>
      <trkpt lat="42.5191360" lon="-8.6453980">
        <ele>63.6</ele>
        <time>2021-05-22T09:22:45Z</time>
      </trkpt>
      <trkpt lat="42.5191480" lon="-8.6453960">
        <ele>63.6</ele>
        <time>2021-05-22T09:22:46Z</time>
      </trkpt>
      <trkpt lat="42.5191630" lon="-8.6453970">
        <ele>63.5</ele>
        <time>2021-05-22T09:22:47Z</time>
      </trkpt>
      <trkpt lat="42.5191750" lon="-8.6454000">
        <ele>63.5</ele>
        <time>2021-05-22T09:22:48Z</time>
      </trkpt>
      <trkpt lat="42.5191930" lon="-8.6454000">
        <ele>63.4</ele>
        <time>2021-05-22T09:22:49Z</time>
      </trkpt>
      <trkpt lat="42.5191990" lon="-8.6454030">
        <ele>63.4</ele>
        <time>2021-05-22T09:22:50Z</time>
      </trkpt>
      <trkpt lat="42.5192170" lon="-8.6454010">
        <ele>63.3</ele>
        <time>2021-05-22T09:22:51Z</time>
      </trkpt>
      <trkpt lat="42.5192270" lon="-8.6454010">
        <ele>63.3</ele>
        <time>2021-05-22T09:22:52Z</time>
      </trkpt>
      <trkpt lat="42.5192430" lon="-8.6454050">
        <ele>63.2</ele>
        <time>2021-05-22T09:22:53Z</time>
      </trkpt>
      <trkpt lat="42.5192550" lon="-8.6454040">
        <ele>63.2</ele>
        <time>2021-05-22T09:22:54Z</time>
      </trkpt>
      <trkpt lat="42.5192740" lon="-8.6454040">
        <ele>63.1</ele>
        <time>2021-05-22T09:22:55Z</time>
      </trkpt>
      <trkpt lat="42.5192840" lon="-8.6454040">
        <ele>63.1</ele>
        <time>2021-05-22T09:22:56Z</time>
      </trkpt>
      <trkpt lat="42.5192930" lon="-8.6454030">
        <ele>63.1</ele>
        <time>2021-05-22T09:22:57Z</time>
      </trkpt>
      <trkpt lat="42.5193040" lon="-8.6454040">
        <ele>63.0</ele>
        <time>2021-05-22T09:22:58Z</time>
      </trkpt>
      <trkpt lat="42.5193120" lon="-8.6454030">
        <ele>63.0</ele>
        <time>2021-05-22T09:22:59Z</time>
      </trkpt>
      <trkpt lat="42.5193280" lon="-8.6454000">
        <ele>63.0</ele>
        <time>2021-05-22T09:23:00Z</time>
      </trkpt>
      <trkpt lat="42.5193500" lon="-8.6453910">
        <ele>62.9</ele>
        <time>2021-05-22T09:23:01Z</time>
      </trkpt>
      <trkpt lat="42.5193590" lon="-8.6453910">
        <ele>62.9</ele>
        <time>2021-05-22T09:23:02Z</time>
      </trkpt>
      <trkpt lat="42.5193690" lon="-8.6453900">
        <ele>62.8</ele>
        <time>2021-05-22T09:23:03Z</time>
      </trkpt>
      <trkpt lat="42.5193870" lon="-8.6453890">
        <ele>62.8</ele>
        <time>2021-05-22T09:23:04Z</time>
      </trkpt>
      <trkpt lat="42.5193980" lon="-8.6453870">
        <ele>62.7</ele>
        <time>2021-05-22T09:23:05Z</time>
      </trkpt>
      <trkpt lat="42.5194170" lon="-8.6453880">
        <ele>62.7</ele>
        <time>2021-05-22T09:23:06Z</time>
      </trkpt>
      <trkpt lat="42.5194280" lon="-8.6453870">
        <ele>62.6</ele>
        <time>2021-05-22T09:23:07Z</time>
      </trkpt>
      <trkpt lat="42.5194380" lon="-8.6453860">
        <ele>62.6</ele>
        <time>2021-05-22T09:23:08Z</time>
      </trkpt>
      <trkpt lat="42.5194560" lon="-8.6453930">
        <ele>62.5</ele>
        <time>2021-05-22T09:23:09Z</time>
      </trkpt>
      <trkpt lat="42.5194660" lon="-8.6453940">
        <ele>62.5</ele>
        <time>2021-05-22T09:23:10Z</time>
      </trkpt>
      <trkpt lat="42.5194760" lon="-8.6453960">
        <ele>62.5</ele>
        <time>2021-05-22T09:23:11Z</time>
      </trkpt>
      <trkpt lat="42.5194900" lon="-8.6453980">
        <ele>62.4</ele>
        <time>2021-05-22T09:23:12Z</time>
      </trkpt>
      <trkpt lat="42.5195040" lon="-8.6453960">
        <ele>62.4</ele>
        <time>2021-05-22T09:23:13Z</time>
      </trkpt>
      <trkpt lat="42.5195190" lon="-8.6453980">
        <ele>62.3</ele>
        <time>2021-05-22T09:23:14Z</time>
      </trkpt>
      <trkpt lat="42.5195240" lon="-8.6453990">
        <ele>62.3</ele>
        <time>2021-05-22T09:23:15Z</time>
      </trkpt>
      <trkpt lat="42.5195330" lon="-8.6454040">
        <ele>62.2</ele>
        <time>2021-05-22T09:23:16Z</time>
      </trkpt>
      <trkpt lat="42.5195440" lon="-8.6454010">
        <ele>62.2</ele>
        <time>2021-05-22T09:23:17Z</time>
      </trkpt>
      <trkpt lat="42.5195550" lon="-8.6454070">
        <ele>62.2</ele>
        <time>2021-05-22T09:23:18Z</time>
      </trkpt>
      <trkpt lat="42.5195680" lon="-8.6454100">
        <ele>62.1</ele>
        <time>2021-05-22T09:23:19Z</time>
      </trkpt>
      <trkpt lat="42.5195840" lon="-8.6454120">
        <ele>62.1</ele>
        <time>2021-05-22T09:23:20Z</time>
      </trkpt>
      <trkpt lat="42.5195900" lon="-8.6454140">
        <ele>62.0</ele>
        <time>2021-05-22T09:23:21Z</time>
      </trkpt>
      <trkpt lat="42.5196000" lon="-8.6454100">
        <ele>62.0</ele>
        <time>2021-05-22T09:23:22Z</time>
      </trkpt>
      <trkpt lat="42.5196220" lon="-8.6454080">
        <ele>61.9</ele>
        <time>2021-05-22T09:23:23Z</time>
      </trkpt>
      <trkpt lat="42.5196300" lon="-8.6454050">
        <ele>61.9</ele>
        <time>2021-05-22T09:23:24Z</time>
      </trkpt>
      <trkpt lat="42.5196390" lon="-8.6454030">
        <ele>61.8</ele>
        <time>2021-05-22T09:23:25Z</time>
      </trkpt>
      <trkpt lat="42.5196670" lon="-8.6453960">
        <ele>61.8</ele>
        <time>2021-05-22T09:23:26Z</time>
      </trkpt>
      <trkpt lat="42.5196760" lon="-8.6453920">
        <ele>61.7</ele>
        <time>2021-05-22T09:23:27Z</time>
      </trkpt>
      <trkpt lat="42.5196880" lon="-8.6453950">
        <ele>61.7</ele>
        <time>2021-05-22T09:23:28Z</time>
      </trkpt>
      <trkpt lat="42.5196940" lon="-8.6453920">
        <ele>61.7</ele>
        <time>2021-05-22T09:23:29Z</time>
      </trkpt>
      <trkpt lat="42.5197050" lon="-8.6453890">
        <ele>61.7</ele>
        <time>2021-05-22T09:23:30Z</time>
      </trkpt>
      <trkpt lat="42.5197270" lon="-8.6453820">
        <ele>61.6</ele>
        <time>2021-05-22T09:23:31Z</time>
      </trkpt>
      <trkpt lat="42.5197340" lon="-8.6453750">
        <ele>61.6</ele>
        <time>2021-05-22T09:23:32Z</time>
      </trkpt>
      <trkpt lat="42.5197440" lon="-8.6453760">
        <ele>61.5</ele>
        <time>2021-05-22T09:23:33Z</time>
      </trkpt>
      <trkpt lat="42.5197550" lon="-8.6453780">
        <ele>61.5</ele>
        <time>2021-05-22T09:23:34Z</time>
      </trkpt>
      <trkpt lat="42.5197680" lon="-8.6453730">
        <ele>61.5</ele>
        <time>2021-05-22T09:23:35Z</time>
      </trkpt>
      <trkpt lat="42.5197810" lon="-8.6453580">
        <ele>61.4</ele>
        <time>2021-05-22T09:23:36Z</time>
      </trkpt>
      <trkpt lat="42.5197900" lon="-8.6453510">
        <ele>61.4</ele>
        <time>2021-05-22T09:23:37Z</time>
      </trkpt>
      <trkpt lat="42.5197980" lon="-8.6453430">
        <ele>61.4</ele>
        <time>2021-05-22T09:23:38Z</time>
      </trkpt>
      <trkpt lat="42.5198210" lon="-8.6453310">
        <ele>61.4</ele>
        <time>2021-05-22T09:23:39Z</time>
      </trkpt>
      <trkpt lat="42.5198300" lon="-8.6453290">
        <ele>61.3</ele>
        <time>2021-05-22T09:23:40Z</time>
      </trkpt>
      <trkpt lat="42.5198390" lon="-8.6453260">
        <ele>61.3</ele>
        <time>2021-05-22T09:23:41Z</time>
      </trkpt>
      <trkpt lat="42.5198580" lon="-8.6453170">
        <ele>61.3</ele>
        <time>2021-05-22T09:23:42Z</time>
      </trkpt>
      <trkpt lat="42.5198710" lon="-8.6453090">
        <ele>61.2</ele>
        <time>2021-05-22T09:23:43Z</time>
      </trkpt>
      <trkpt lat="42.5198840" lon="-8.6452960">
        <ele>61.2</ele>
        <time>2021-05-22T09:23:44Z</time>
      </trkpt>
      <trkpt lat="42.5198930" lon="-8.6452890">
        <ele>61.2</ele>
        <time>2021-05-22T09:23:45Z</time>
      </trkpt>
      <trkpt lat="42.5199010" lon="-8.6452810">
        <ele>61.2</ele>
        <time>2021-05-22T09:23:46Z</time>
      </trkpt>
      <trkpt lat="42.5199180" lon="-8.6452690">
        <ele>61.1</ele>
        <time>2021-05-22T09:23:47Z</time>
      </trkpt>
      <trkpt lat="42.5199280" lon="-8.6452630">
        <ele>61.1</ele>
        <time>2021-05-22T09:23:48Z</time>
      </trkpt>
      <trkpt lat="42.5199390" lon="-8.6452490">
        <ele>61.1</ele>
        <time>2021-05-22T09:23:49Z</time>
      </trkpt>
      <trkpt lat="42.5199510" lon="-8.6452390">
        <ele>61.1</ele>
        <time>2021-05-22T09:23:50Z</time>
      </trkpt>
      <trkpt lat="42.5199620" lon="-8.6452280">
        <ele>61.0</ele>
        <time>2021-05-22T09:23:51Z</time>
      </trkpt>
      <trkpt lat="42.5199720" lon="-8.6452280">
        <ele>61.0</ele>
        <time>2021-05-22T09:23:52Z</time>
      </trkpt>
      <trkpt lat="42.5199790" lon="-8.6452150">
        <ele>61.0</ele>
        <time>2021-05-22T09:23:53Z</time>
      </trkpt>
      <trkpt lat="42.5199860" lon="-8.6452060">
        <ele>61.0</ele>
        <time>2021-05-22T09:23:54Z</time>
      </trkpt>
      <trkpt lat="42.5200020" lon="-8.6451930">
        <ele>60.9</ele>
        <time>2021-05-22T09:23:55Z</time>
      </trkpt>
      <trkpt lat="42.5200210" lon="-8.6451810">
        <ele>60.9</ele>
        <time>2021-05-22T09:23:56Z</time>
      </trkpt>
      <trkpt lat="42.5200290" lon="-8.6451750">
        <ele>60.9</ele>
        <time>2021-05-22T09:23:57Z</time>
      </trkpt>
      <trkpt lat="42.5200360" lon="-8.6451700">
        <ele>60.8</ele>
        <time>2021-05-22T09:23:58Z</time>
      </trkpt>
      <trkpt lat="42.5200510" lon="-8.6451580">
        <ele>60.8</ele>
        <time>2021-05-22T09:23:59Z</time>
      </trkpt>
      <trkpt lat="42.5200580" lon="-8.6451480">
        <ele>60.8</ele>
        <time>2021-05-22T09:24:00Z</time>
      </trkpt>
      <trkpt lat="42.5200740" lon="-8.6451350">
        <ele>60.8</ele>
        <time>2021-05-22T09:24:01Z</time>
      </trkpt>
      <trkpt lat="42.5200800" lon="-8.6451270">
        <ele>60.7</ele>
        <time>2021-05-22T09:24:02Z</time>
      </trkpt>
      <trkpt lat="42.5200860" lon="-8.6451180">
        <ele>60.7</ele>
        <time>2021-05-22T09:24:03Z</time>
      </trkpt>
      <trkpt lat="42.5200970" lon="-8.6451050">
        <ele>60.7</ele>
        <time>2021-05-22T09:24:04Z</time>
      </trkpt>
      <trkpt lat="42.5201140" lon="-8.6450920">
        <ele>60.7</ele>
        <time>2021-05-22T09:24:05Z</time>
      </trkpt>
      <trkpt lat="42.5201230" lon="-8.6450800">
        <ele>60.6</ele>
        <time>2021-05-22T09:24:06Z</time>
      </trkpt>
      <trkpt lat="42.5201300" lon="-8.6450690">
        <ele>60.6</ele>
        <time>2021-05-22T09:24:07Z</time>
      </trkpt>
      <trkpt lat="42.5201380" lon="-8.6450580">
        <ele>60.6</ele>
        <time>2021-05-22T09:24:08Z</time>
      </trkpt>
      <trkpt lat="42.5201540" lon="-8.6450340">
        <ele>60.5</ele>
        <time>2021-05-22T09:24:09Z</time>
      </trkpt>
      <trkpt lat="42.5201600" lon="-8.6450250">
        <ele>60.5</ele>
        <time>2021-05-22T09:24:10Z</time>
      </trkpt>
      <trkpt lat="42.5201670" lon="-8.6450160">
        <ele>60.5</ele>
        <time>2021-05-22T09:24:11Z</time>
      </trkpt>
      <trkpt lat="42.5201810" lon="-8.6450010">
        <ele>60.4</ele>
        <time>2021-05-22T09:24:12Z</time>
      </trkpt>
      <trkpt lat="42.5201930" lon="-8.6449870">
        <ele>60.4</ele>
        <time>2021-05-22T09:24:13Z</time>
      </trkpt>
      <trkpt lat="42.5201980" lon="-8.6449730">
        <ele>60.4</ele>
        <time>2021-05-22T09:24:14Z</time>
      </trkpt>
      <trkpt lat="42.5202070" lon="-8.6449630">
        <ele>60.3</ele>
        <time>2021-05-22T09:24:15Z</time>
      </trkpt>
      <trkpt lat="42.5202120" lon="-8.6449530">
        <ele>60.3</ele>
        <time>2021-05-22T09:24:16Z</time>
      </trkpt>
      <trkpt lat="42.5202270" lon="-8.6449350">
        <ele>60.3</ele>
        <time>2021-05-22T09:24:17Z</time>
      </trkpt>
      <trkpt lat="42.5202360" lon="-8.6449240">
        <ele>60.2</ele>
        <time>2021-05-22T09:24:18Z</time>
      </trkpt>
      <trkpt lat="42.5202410" lon="-8.6449140">
        <ele>60.2</ele>
        <time>2021-05-22T09:24:19Z</time>
      </trkpt>
      <trkpt lat="42.5202410" lon="-8.6449120">
        <ele>60.2</ele>
        <time>2021-05-22T09:24:20Z</time>
      </trkpt>
      <trkpt lat="42.5202420" lon="-8.6449110">
        <ele>60.2</ele>
        <time>2021-05-22T09:24:21Z</time>
      </trkpt>
      <trkpt lat="42.5202420" lon="-8.6449090">
        <ele>60.2</ele>
        <time>2021-05-22T09:24:22Z</time>
      </trkpt>
      <trkpt lat="42.5202430" lon="-8.6449080">
        <ele>60.2</ele>
        <time>2021-05-22T09:24:23Z</time>
      </trkpt>
      <trkpt lat="42.5202440" lon="-8.6449060">
        <ele>60.2</ele>
        <time>2021-05-22T09:24:24Z</time>
      </trkpt>
      <trkpt lat="42.5202440" lon="-8.6449050">
        <ele>60.2</ele>
        <time>2021-05-22T09:24:25Z</time>
      </trkpt>
      <trkpt lat="42.5202450" lon="-8.6449030">
        <ele>60.2</ele>
        <time>2021-05-22T09:24:26Z</time>
      </trkpt>
      <trkpt lat="42.5202450" lon="-8.6449020">
        <ele>60.2</ele>
        <time>2021-05-22T09:24:27Z</time>
      </trkpt>
      <trkpt lat="42.5202460" lon="-8.6449000">
        <ele>60.2</ele>
        <time>2021-05-22T09:24:28Z</time>
      </trkpt>
      <trkpt lat="42.5202460" lon="-8.6448990">
        <ele>60.2</ele>
        <time>2021-05-22T09:24:29Z</time>
      </trkpt>
      <trkpt lat="42.5202470" lon="-8.6448970">
        <ele>60.2</ele>
        <time>2021-05-22T09:24:30Z</time>
      </trkpt>
      <trkpt lat="42.5202480" lon="-8.6448960">
        <ele>60.2</ele>
        <time>2021-05-22T09:24:31Z</time>
      </trkpt>
      <trkpt lat="42.5202480" lon="-8.6448940">
        <ele>60.2</ele>
        <time>2021-05-22T09:24:32Z</time>
      </trkpt>
      <trkpt lat="42.5202490" lon="-8.6448930">
        <ele>60.2</ele>
        <time>2021-05-22T09:24:33Z</time>
      </trkpt>
      <trkpt lat="42.5202490" lon="-8.6448910">
        <ele>60.2</ele>
        <time>2021-05-22T09:24:34Z</time>
      </trkpt>
      <trkpt lat="42.5202500" lon="-8.6448900">
        <ele>60.2</ele>
        <time>2021-05-22T09:24:35Z</time>
      </trkpt>
      <trkpt lat="42.5202510" lon="-8.6448890">
        <ele>60.2</ele>
        <time>2021-05-22T09:24:36Z</time>
      </trkpt>
      <trkpt lat="42.5202510" lon="-8.6448870">
        <ele>60.2</ele>
        <time>2021-05-22T09:24:37Z</time>
      </trkpt>
      <trkpt lat="42.5202520" lon="-8.6448860">
        <ele>60.2</ele>
        <time>2021-05-22T09:24:38Z</time>
      </trkpt>
      <trkpt lat="42.5202520" lon="-8.6448840">
        <ele>60.2</ele>
        <time>2021-05-22T09:24:39Z</time>
      </trkpt>
      <trkpt lat="42.5202530" lon="-8.6448830">
        <ele>60.2</ele>
        <time>2021-05-22T09:24:40Z</time>
      </trkpt>
      <trkpt lat="42.5202540" lon="-8.6448810">
        <ele>60.1</ele>
        <time>2021-05-22T09:24:41Z</time>
      </trkpt>
      <trkpt lat="42.5202540" lon="-8.6448800">
        <ele>60.1</ele>
        <time>2021-05-22T09:24:42Z</time>
      </trkpt>
      <trkpt lat="42.5202550" lon="-8.6448780">
        <ele>60.1</ele>
        <time>2021-05-22T09:24:43Z</time>
      </trkpt>
      <trkpt lat="42.5202550" lon="-8.6448770">
        <ele>60.1</ele>
        <time>2021-05-22T09:24:44Z</time>
      </trkpt>
      <trkpt lat="42.5202560" lon="-8.6448750">
        <ele>60.1</ele>
        <time>2021-05-22T09:24:45Z</time>
      </trkpt>
      <trkpt lat="42.5202560" lon="-8.6448740">
        <ele>60.1</ele>
        <time>2021-05-22T09:24:46Z</time>
      </trkpt>
      <trkpt lat="42.5202570" lon="-8.6448720">
        <ele>60.1</ele>
        <time>2021-05-22T09:24:47Z</time>
      </trkpt>
      <trkpt lat="42.5202580" lon="-8.6448710">
        <ele>60.1</ele>
        <time>2021-05-22T09:24:48Z</time>
      </trkpt>
      <trkpt lat="42.5202580" lon="-8.6448690">
        <ele>60.1</ele>
        <time>2021-05-22T09:24:49Z</time>
      </trkpt>
      <trkpt lat="42.5202590" lon="-8.6448680">
        <ele>60.1</ele>
        <time>2021-05-22T09:24:50Z</time>
      </trkpt>
      <trkpt lat="42.5202590" lon="-8.6448660">
        <ele>60.1</ele>
        <time>2021-05-22T09:24:51Z</time>
      </trkpt>
      <trkpt lat="42.5202600" lon="-8.6448650">
        <ele>60.1</ele>
        <time>2021-05-22T09:24:52Z</time>
      </trkpt>
      <trkpt lat="42.5202690" lon="-8.6448500">
        <ele>60.1</ele>
        <time>2021-05-22T09:24:53Z</time>
      </trkpt>
      <trkpt lat="42.5202850" lon="-8.6448350">
        <ele>60.0</ele>
        <time>2021-05-22T09:24:54Z</time>
      </trkpt>
      <trkpt lat="42.5202980" lon="-8.6448290">
        <ele>60.0</ele>
        <time>2021-05-22T09:24:55Z</time>
      </trkpt>
      <trkpt lat="42.5203150" lon="-8.6448190">
        <ele>59.9</ele>
        <time>2021-05-22T09:24:56Z</time>
      </trkpt>
      <trkpt lat="42.5203270" lon="-8.6448110">
        <ele>59.9</ele>
        <time>2021-05-22T09:24:57Z</time>
      </trkpt>
      <trkpt lat="42.5203400" lon="-8.6447920">
        <ele>59.8</ele>
        <time>2021-05-22T09:24:58Z</time>
      </trkpt>
      <trkpt lat="42.5203460" lon="-8.6447830">
        <ele>59.8</ele>
        <time>2021-05-22T09:24:59Z</time>
      </trkpt>
      <trkpt lat="42.5203650" lon="-8.6447710">
        <ele>59.8</ele>
        <time>2021-05-22T09:25:00Z</time>
      </trkpt>
      <trkpt lat="42.5203870" lon="-8.6447590">
        <ele>59.7</ele>
        <time>2021-05-22T09:25:01Z</time>
      </trkpt>
      <trkpt lat="42.5203960" lon="-8.6447540">
        <ele>59.7</ele>
        <time>2021-05-22T09:25:02Z</time>
      </trkpt>
      <trkpt lat="42.5204040" lon="-8.6447500">
        <ele>59.6</ele>
        <time>2021-05-22T09:25:03Z</time>
      </trkpt>
      <trkpt lat="42.5204210" lon="-8.6447370">
        <ele>59.6</ele>
        <time>2021-05-22T09:25:04Z</time>
      </trkpt>
      <trkpt lat="42.5204290" lon="-8.6447290">
        <ele>59.6</ele>
        <time>2021-05-22T09:25:05Z</time>
      </trkpt>
      <trkpt lat="42.5204360" lon="-8.6447220">
        <ele>59.5</ele>
        <time>2021-05-22T09:25:06Z</time>
      </trkpt>
      <trkpt lat="42.5204480" lon="-8.6447150">
        <ele>59.5</ele>
        <time>2021-05-22T09:25:07Z</time>
      </trkpt>
      <trkpt lat="42.5204680" lon="-8.6447030">
        <ele>59.5</ele>
        <time>2021-05-22T09:25:08Z</time>
      </trkpt>
      <trkpt lat="42.5204880" lon="-8.6446920">
        <ele>59.4</ele>
        <time>2021-05-22T09:25:09Z</time>
      </trkpt>
      <trkpt lat="42.5204990" lon="-8.6446890">
        <ele>59.4</ele>
        <time>2021-05-22T09:25:10Z</time>
      </trkpt>
      <trkpt lat="42.5205090" lon="-8.6446860">
        <ele>59.4</ele>
        <time>2021-05-22T09:25:11Z</time>
      </trkpt>
      <trkpt lat="42.5205210" lon="-8.6446750">
        <ele>59.3</ele>
        <time>2021-05-22T09:25:12Z</time>
      </trkpt>
      <trkpt lat="42.5205360" lon="-8.6446750">
        <ele>59.3</ele>
        <time>2021-05-22T09:25:13Z</time>
      </trkpt>
      <trkpt lat="42.5205490" lon="-8.6446730">
        <ele>59.3</ele>
        <time>2021-05-22T09:25:14Z</time>
      </trkpt>
      <trkpt lat="42.5205620" lon="-8.6446710">
        <ele>59.3</ele>
        <time>2021-05-22T09:25:15Z</time>
      </trkpt>
      <trkpt lat="42.5205770" lon="-8.6446760">
        <ele>59.3</ele>
        <time>2021-05-22T09:25:16Z</time>
      </trkpt>
      <trkpt lat="42.5205930" lon="-8.6446640">
        <ele>59.2</ele>
        <time>2021-05-22T09:25:17Z</time>
      </trkpt>
      <trkpt lat="42.5206060" lon="-8.6446600">
        <ele>59.2</ele>
        <time>2021-05-22T09:25:18Z</time>
      </trkpt>
      <trkpt lat="42.5206210" lon="-8.6446600">
        <ele>59.2</ele>
        <time>2021-05-22T09:25:19Z</time>
      </trkpt>
      <trkpt lat="42.5206350" lon="-8.6446530">
        <ele>59.2</ele>
        <time>2021-05-22T09:25:20Z</time>
      </trkpt>
      <trkpt lat="42.5206500" lon="-8.6446540">
        <ele>59.2</ele>
        <time>2021-05-22T09:25:21Z</time>
      </trkpt>
      <trkpt lat="42.5206650" lon="-8.6446500">
        <ele>59.2</ele>
        <time>2021-05-22T09:25:22Z</time>
      </trkpt>
      <trkpt lat="42.5206800" lon="-8.6446470">
        <ele>59.2</ele>
        <time>2021-05-22T09:25:23Z</time>
      </trkpt>
      <trkpt lat="42.5206930" lon="-8.6446470">
        <ele>59.2</ele>
        <time>2021-05-22T09:25:24Z</time>
      </trkpt>
      <trkpt lat="42.5207070" lon="-8.6446410">
        <ele>59.2</ele>
        <time>2021-05-22T09:25:25Z</time>
      </trkpt>
      <trkpt lat="42.5207210" lon="-8.6446360">
        <ele>59.2</ele>
        <time>2021-05-22T09:25:26Z</time>
      </trkpt>
      <trkpt lat="42.5207350" lon="-8.6446370">
        <ele>59.1</ele>
        <time>2021-05-22T09:25:27Z</time>
      </trkpt>
      <trkpt lat="42.5207570" lon="-8.6446320">
        <ele>59.1</ele>
        <time>2021-05-22T09:25:28Z</time>
      </trkpt>
      <trkpt lat="42.5207660" lon="-8.6446310">
        <ele>59.1</ele>
        <time>2021-05-22T09:25:29Z</time>
      </trkpt>
      <trkpt lat="42.5207750" lon="-8.6446290">
        <ele>59.1</ele>
        <time>2021-05-22T09:25:30Z</time>
      </trkpt>
      <trkpt lat="42.5207900" lon="-8.6446340">
        <ele>59.1</ele>
        <time>2021-05-22T09:25:31Z</time>
      </trkpt>
      <trkpt lat="42.5208040" lon="-8.6446280">
        <ele>59.1</ele>
        <time>2021-05-22T09:25:32Z</time>
      </trkpt>
      <trkpt lat="42.5208240" lon="-8.6446210">
        <ele>59.0</ele>
        <time>2021-05-22T09:25:33Z</time>
      </trkpt>
      <trkpt lat="42.5208320" lon="-8.6446170">
        <ele>59.0</ele>
        <time>2021-05-22T09:25:34Z</time>
      </trkpt>
      <trkpt lat="42.5208400" lon="-8.6446140">
        <ele>59.0</ele>
        <time>2021-05-22T09:25:35Z</time>
      </trkpt>
      <trkpt lat="42.5208530" lon="-8.6446100">
        <ele>59.0</ele>
        <time>2021-05-22T09:25:36Z</time>
      </trkpt>
      <trkpt lat="42.5208670" lon="-8.6446130">
        <ele>59.0</ele>
        <time>2021-05-22T09:25:37Z</time>
      </trkpt>
      <trkpt lat="42.5208810" lon="-8.6446110">
        <ele>58.9</ele>
        <time>2021-05-22T09:25:38Z</time>
      </trkpt>
      <trkpt lat="42.5208940" lon="-8.6446070">
        <ele>58.9</ele>
        <time>2021-05-22T09:25:39Z</time>
      </trkpt>
      <trkpt lat="42.5209080" lon="-8.6446080">
        <ele>58.9</ele>
        <time>2021-05-22T09:25:40Z</time>
      </trkpt>
      <trkpt lat="42.5209220" lon="-8.6446100">
        <ele>58.9</ele>
        <time>2021-05-22T09:25:41Z</time>
      </trkpt>
      <trkpt lat="42.5209360" lon="-8.6446150">
        <ele>58.8</ele>
        <time>2021-05-22T09:25:42Z</time>
      </trkpt>
      <trkpt lat="42.5209500" lon="-8.6446230">
        <ele>58.8</ele>
        <time>2021-05-22T09:25:43Z</time>
      </trkpt>
      <trkpt lat="42.5209660" lon="-8.6446220">
        <ele>58.8</ele>
        <time>2021-05-22T09:25:44Z</time>
      </trkpt>
      <trkpt lat="42.5209790" lon="-8.6446310">
        <ele>58.7</ele>
        <time>2021-05-22T09:25:45Z</time>
      </trkpt>
      <trkpt lat="42.5209930" lon="-8.6446380">
        <ele>58.7</ele>
        <time>2021-05-22T09:25:46Z</time>
      </trkpt>
      <trkpt lat="42.5210060" lon="-8.6446460">
        <ele>58.7</ele>
        <time>2021-05-22T09:25:47Z</time>
      </trkpt>
      <trkpt lat="42.5210190" lon="-8.6446560">
        <ele>58.6</ele>
        <time>2021-05-22T09:25:48Z</time>
      </trkpt>
      <trkpt lat="42.5210310" lon="-8.6446660">
        <ele>58.6</ele>
        <time>2021-05-22T09:25:49Z</time>
      </trkpt>
      <trkpt lat="42.5210400" lon="-8.6446850">
        <ele>58.6</ele>
        <time>2021-05-22T09:25:50Z</time>
      </trkpt>
      <trkpt lat="42.5210520" lon="-8.6446940">
        <ele>58.5</ele>
        <time>2021-05-22T09:25:51Z</time>
      </trkpt>
      <trkpt lat="42.5210650" lon="-8.6447000">
        <ele>58.5</ele>
        <time>2021-05-22T09:25:52Z</time>
      </trkpt>
      <trkpt lat="42.5210750" lon="-8.6447130">
        <ele>58.5</ele>
        <time>2021-05-22T09:25:53Z</time>
      </trkpt>
      <trkpt lat="42.5210820" lon="-8.6447290">
        <ele>58.4</ele>
        <time>2021-05-22T09:25:54Z</time>
      </trkpt>
      <trkpt lat="42.5210880" lon="-8.6447370">
        <ele>58.4</ele>
        <time>2021-05-22T09:25:55Z</time>
      </trkpt>
      <trkpt lat="42.5210880" lon="-8.6447510">
        <ele>58.4</ele>
        <time>2021-05-22T09:25:56Z</time>
      </trkpt>
      <trkpt lat="42.5210880" lon="-8.6447610">
        <ele>58.4</ele>
        <time>2021-05-22T09:25:57Z</time>
      </trkpt>
      <trkpt lat="42.5210890" lon="-8.6447690">
        <ele>58.4</ele>
        <time>2021-05-22T09:25:58Z</time>
      </trkpt>
      <trkpt lat="42.5210960" lon="-8.6447840">
        <ele>58.3</ele>
        <time>2021-05-22T09:25:59Z</time>
      </trkpt>
      <trkpt lat="42.5210960" lon="-8.6447930">
        <ele>58.3</ele>
        <time>2021-05-22T09:26:00Z</time>
      </trkpt>
      <trkpt lat="42.5211010" lon="-8.6447960">
        <ele>58.3</ele>
        <time>2021-05-22T09:26:01Z</time>
      </trkpt>
      <trkpt lat="42.5211030" lon="-8.6448110">
        <ele>58.3</ele>
        <time>2021-05-22T09:26:02Z</time>
      </trkpt>
      <trkpt lat="42.5211110" lon="-8.6448220">
        <ele>58.3</ele>
        <time>2021-05-22T09:26:03Z</time>
      </trkpt>
      <trkpt lat="42.5211090" lon="-8.6448280">
        <ele>58.3</ele>
        <time>2021-05-22T09:26:04Z</time>
      </trkpt>
      <trkpt lat="42.5211190" lon="-8.6448450">
        <ele>58.2</ele>
        <time>2021-05-22T09:26:05Z</time>
      </trkpt>
      <trkpt lat="42.5211280" lon="-8.6448570">
        <ele>58.2</ele>
        <time>2021-05-22T09:26:06Z</time>
      </trkpt>
      <trkpt lat="42.5211390" lon="-8.6448630">
        <ele>58.2</ele>
        <time>2021-05-22T09:26:07Z</time>
      </trkpt>
      <trkpt lat="42.5211460" lon="-8.6448770">
        <ele>58.2</ele>
        <time>2021-05-22T09:26:08Z</time>
      </trkpt>
      <trkpt lat="42.5211500" lon="-8.6448850">
        <ele>58.2</ele>
        <time>2021-05-22T09:26:09Z</time>
      </trkpt>
      <trkpt lat="42.5211620" lon="-8.6448970">
        <ele>58.2</ele>
        <time>2021-05-22T09:26:10Z</time>
      </trkpt>
      <trkpt lat="42.5211690" lon="-8.6448970">
        <ele>58.1</ele>
        <time>2021-05-22T09:26:11Z</time>
      </trkpt>
      <trkpt lat="42.5211820" lon="-8.6449070">
        <ele>58.1</ele>
        <time>2021-05-22T09:26:12Z</time>
      </trkpt>
      <trkpt lat="42.5211900" lon="-8.6449130">
        <ele>58.1</ele>
        <time>2021-05-22T09:26:13Z</time>
      </trkpt>
      <trkpt lat="42.5211950" lon="-8.6449220">
        <ele>58.1</ele>
        <time>2021-05-22T09:26:14Z</time>
      </trkpt>
      <trkpt lat="42.5212110" lon="-8.6449360">
        <ele>58.1</ele>
        <time>2021-05-22T09:26:15Z</time>
      </trkpt>
      <trkpt lat="42.5212230" lon="-8.6449440">
        <ele>58.1</ele>
        <time>2021-05-22T09:26:16Z</time>
      </trkpt>
      <trkpt lat="42.5212290" lon="-8.6449610">
        <ele>58.1</ele>
        <time>2021-05-22T09:26:17Z</time>
      </trkpt>
      <trkpt lat="42.5212380" lon="-8.6449680">
        <ele>58.1</ele>
        <time>2021-05-22T09:26:18Z</time>
      </trkpt>
      <trkpt lat="42.5212480" lon="-8.6449710">
        <ele>58.2</ele>
        <time>2021-05-22T09:26:19Z</time>
      </trkpt>
      <trkpt lat="42.5212620" lon="-8.6449720">
        <ele>58.2</ele>
        <time>2021-05-22T09:26:20Z</time>
      </trkpt>
      <trkpt lat="42.5212730" lon="-8.6449800">
        <ele>58.2</ele>
        <time>2021-05-22T09:26:21Z</time>
      </trkpt>
      <trkpt lat="42.5212880" lon="-8.6449920">
        <ele>58.2</ele>
        <time>2021-05-22T09:26:22Z</time>
      </trkpt>
      <trkpt lat="42.5212940" lon="-8.6449950">
        <ele>58.2</ele>
        <time>2021-05-22T09:26:23Z</time>
      </trkpt>
      <trkpt lat="42.5213010" lon="-8.6449990">
        <ele>58.2</ele>
        <time>2021-05-22T09:26:24Z</time>
      </trkpt>
      <trkpt lat="42.5213070" lon="-8.6450030">
        <ele>58.2</ele>
        <time>2021-05-22T09:26:25Z</time>
      </trkpt>
      <trkpt lat="42.5213260" lon="-8.6450150">
        <ele>58.3</ele>
        <time>2021-05-22T09:26:26Z</time>
      </trkpt>
      <trkpt lat="42.5213350" lon="-8.6450200">
        <ele>58.3</ele>
        <time>2021-05-22T09:26:27Z</time>
      </trkpt>
      <trkpt lat="42.5213430" lon="-8.6450250">
        <ele>58.3</ele>
        <time>2021-05-22T09:26:28Z</time>
      </trkpt>
      <trkpt lat="42.5213630" lon="-8.6450290">
        <ele>58.3</ele>
        <time>2021-05-22T09:26:29Z</time>
      </trkpt>
      <trkpt lat="42.5213710" lon="-8.6450370">
        <ele>58.3</ele>
        <time>2021-05-22T09:26:30Z</time>
      </trkpt>
      <trkpt lat="42.5213780" lon="-8.6450370">
        <ele>58.3</ele>
        <time>2021-05-22T09:26:31Z</time>
      </trkpt>
      <trkpt lat="42.5213930" lon="-8.6450530">
        <ele>58.4</ele>
        <time>2021-05-22T09:26:32Z</time>
      </trkpt>
      <trkpt lat="42.5214040" lon="-8.6450520">
        <ele>58.4</ele>
        <time>2021-05-22T09:26:33Z</time>
      </trkpt>
      <trkpt lat="42.5214210" lon="-8.6450620">
        <ele>58.4</ele>
        <time>2021-05-22T09:26:34Z</time>
      </trkpt>
      <trkpt lat="42.5214320" lon="-8.6450620">
        <ele>58.4</ele>
        <time>2021-05-22T09:26:35Z</time>
      </trkpt>
      <trkpt lat="42.5214470" lon="-8.6450760">
        <ele>58.4</ele>
        <time>2021-05-22T09:26:36Z</time>
      </trkpt>
      <trkpt lat="42.5214570" lon="-8.6450830">
        <ele>58.4</ele>
        <time>2021-05-22T09:26:37Z</time>
      </trkpt>
      <trkpt lat="42.5214740" lon="-8.6450970">
        <ele>58.4</ele>
        <time>2021-05-22T09:26:38Z</time>
      </trkpt>
      <trkpt lat="42.5214810" lon="-8.6451010">
        <ele>58.5</ele>
        <time>2021-05-22T09:26:39Z</time>
      </trkpt>
      <trkpt lat="42.5214870" lon="-8.6451060">
        <ele>58.5</ele>
        <time>2021-05-22T09:26:40Z</time>
      </trkpt>
      <trkpt lat="42.5214930" lon="-8.6451100">
        <ele>58.5</ele>
        <time>2021-05-22T09:26:41Z</time>
      </trkpt>
      <trkpt lat="42.5215050" lon="-8.6451120">
        <ele>58.5</ele>
        <time>2021-05-22T09:26:42Z</time>
      </trkpt>
      <trkpt lat="42.5215260" lon="-8.6451150">
        <ele>58.5</ele>
        <time>2021-05-22T09:26:43Z</time>
      </trkpt>
      <trkpt lat="42.5215450" lon="-8.6451100">
        <ele>58.5</ele>
        <time>2021-05-22T09:26:44Z</time>
      </trkpt>
      <trkpt lat="42.5215550" lon="-8.6451100">
        <ele>58.5</ele>
        <time>2021-05-22T09:26:45Z</time>
      </trkpt>
      <trkpt lat="42.5215660" lon="-8.6451100">
        <ele>58.6</ele>
        <time>2021-05-22T09:26:46Z</time>
      </trkpt>
      <trkpt lat="42.5215910" lon="-8.6451070">
        <ele>58.6</ele>
        <time>2021-05-22T09:26:47Z</time>
      </trkpt>
      <trkpt lat="42.5216000" lon="-8.6451040">
        <ele>58.6</ele>
        <time>2021-05-22T09:26:48Z</time>
      </trkpt>
      <trkpt lat="42.5216100" lon="-8.6451010">
        <ele>58.6</ele>
        <time>2021-05-22T09:26:49Z</time>
      </trkpt>
      <trkpt lat="42.5216120" lon="-8.6450990">
        <ele>58.6</ele>
        <time>2021-05-22T09:26:50Z</time>
      </trkpt>
      <trkpt lat="42.5216250" lon="-8.6451020">
        <ele>58.7</ele>
        <time>2021-05-22T09:26:51Z</time>
      </trkpt>
      <trkpt lat="42.5216390" lon="-8.6451010">
        <ele>58.7</ele>
        <time>2021-05-22T09:26:52Z</time>
      </trkpt>
      <trkpt lat="42.5216540" lon="-8.6451040">
        <ele>58.7</ele>
        <time>2021-05-22T09:26:53Z</time>
      </trkpt>
      <trkpt lat="42.5216690" lon="-8.6451080">
        <ele>58.8</ele>
        <time>2021-05-22T09:26:54Z</time>
      </trkpt>
      <trkpt lat="42.5216840" lon="-8.6451050">
        <ele>58.8</ele>
        <time>2021-05-22T09:26:55Z</time>
      </trkpt>
      <trkpt lat="42.5216970" lon="-8.6451060">
        <ele>58.8</ele>
        <time>2021-05-22T09:26:56Z</time>
      </trkpt>
      <trkpt lat="42.5217170" lon="-8.6451050">
        <ele>58.9</ele>
        <time>2021-05-22T09:26:57Z</time>
      </trkpt>
      <trkpt lat="42.5217300" lon="-8.6451030">
        <ele>58.9</ele>
        <time>2021-05-22T09:26:58Z</time>
      </trkpt>
      <trkpt lat="42.5217420" lon="-8.6451020">
        <ele>58.9</ele>
        <time>2021-05-22T09:26:59Z</time>
      </trkpt>
      <trkpt lat="42.5217590" lon="-8.6451020">
        <ele>59.0</ele>
        <time>2021-05-22T09:27:00Z</time>
      </trkpt>
      <trkpt lat="42.5217750" lon="-8.6451020">
        <ele>59.0</ele>
        <time>2021-05-22T09:27:01Z</time>
      </trkpt>
      <trkpt lat="42.5217870" lon="-8.6451050">
        <ele>59.0</ele>
        <time>2021-05-22T09:27:02Z</time>
      </trkpt>
      <trkpt lat="42.5218050" lon="-8.6451100">
        <ele>59.1</ele>
        <time>2021-05-22T09:27:03Z</time>
      </trkpt>
      <trkpt lat="42.5218150" lon="-8.6451070">
        <ele>59.2</ele>
        <time>2021-05-22T09:27:04Z</time>
      </trkpt>
      <trkpt lat="42.5218260" lon="-8.6451110">
        <ele>59.2</ele>
        <time>2021-05-22T09:27:05Z</time>
      </trkpt>
      <trkpt lat="42.5218390" lon="-8.6451130">
        <ele>59.3</ele>
        <time>2021-05-22T09:27:06Z</time>
      </trkpt>
      <trkpt lat="42.5218510" lon="-8.6451120">
        <ele>59.3</ele>
        <time>2021-05-22T09:27:07Z</time>
      </trkpt>
      <trkpt lat="42.5218680" lon="-8.6451120">
        <ele>59.4</ele>
        <time>2021-05-22T09:27:08Z</time>
      </trkpt>
      <trkpt lat="42.5218850" lon="-8.6451110">
        <ele>59.5</ele>
        <time>2021-05-22T09:27:09Z</time>
      </trkpt>
      <trkpt lat="42.5218990" lon="-8.6451160">
        <ele>59.5</ele>
        <time>2021-05-22T09:27:10Z</time>
      </trkpt>
      <trkpt lat="42.5219180" lon="-8.6451180">
        <ele>59.6</ele>
        <time>2021-05-22T09:27:11Z</time>
      </trkpt>
      <trkpt lat="42.5219290" lon="-8.6451210">
        <ele>59.6</ele>
        <time>2021-05-22T09:27:12Z</time>
      </trkpt>
      <trkpt lat="42.5219510" lon="-8.6451300">
        <ele>59.7</ele>
        <time>2021-05-22T09:27:13Z</time>
      </trkpt>
      <trkpt lat="42.5219580" lon="-8.6451340">
        <ele>59.8</ele>
        <time>2021-05-22T09:27:14Z</time>
      </trkpt>
      <trkpt lat="42.5219650" lon="-8.6451380">
        <ele>59.8</ele>
        <time>2021-05-22T09:27:15Z</time>
      </trkpt>
      <trkpt lat="42.5219860" lon="-8.6451430">
        <ele>59.9</ele>
        <time>2021-05-22T09:27:16Z</time>
      </trkpt>
      <trkpt lat="42.5219950" lon="-8.6451460">
        <ele>60.0</ele>
        <time>2021-05-22T09:27:17Z</time>
      </trkpt>
      <trkpt lat="42.5220050" lon="-8.6451480">
        <ele>60.0</ele>
        <time>2021-05-22T09:27:18Z</time>
      </trkpt>
      <trkpt lat="42.5220160" lon="-8.6451430">
        <ele>60.1</ele>
        <time>2021-05-22T09:27:19Z</time>
      </trkpt>
      <trkpt lat="42.5220250" lon="-8.6451440">
        <ele>60.1</ele>
        <time>2021-05-22T09:27:20Z</time>
      </trkpt>
      <trkpt lat="42.5220380" lon="-8.6451430">
        <ele>60.2</ele>
        <time>2021-05-22T09:27:21Z</time>
      </trkpt>
      <trkpt lat="42.5220570" lon="-8.6451460">
        <ele>60.3</ele>
        <time>2021-05-22T09:27:22Z</time>
      </trkpt>
      <trkpt lat="42.5220650" lon="-8.6451490">
        <ele>60.4</ele>
        <time>2021-05-22T09:27:23Z</time>
      </trkpt>
      <trkpt lat="42.5220730" lon="-8.6451510">
        <ele>60.4</ele>
        <time>2021-05-22T09:27:24Z</time>
      </trkpt>
      <trkpt lat="42.5220840" lon="-8.6451560">
        <ele>60.5</ele>
        <time>2021-05-22T09:27:25Z</time>
      </trkpt>
      <trkpt lat="42.5221020" lon="-8.6451610">
        <ele>60.6</ele>
        <time>2021-05-22T09:27:26Z</time>
      </trkpt>
      <trkpt lat="42.5221240" lon="-8.6451600">
        <ele>60.8</ele>
        <time>2021-05-22T09:27:27Z</time>
      </trkpt>
      <trkpt lat="42.5221320" lon="-8.6451610">
        <ele>60.8</ele>
        <time>2021-05-22T09:27:28Z</time>
      </trkpt>
      <trkpt lat="42.5221410" lon="-8.6451610">
        <ele>60.9</ele>
        <time>2021-05-22T09:27:29Z</time>
      </trkpt>
      <trkpt lat="42.5221480" lon="-8.6451630">
        <ele>60.9</ele>
        <time>2021-05-22T09:27:30Z</time>
      </trkpt>
      <trkpt lat="42.5221620" lon="-8.6451600">
        <ele>61.0</ele>
        <time>2021-05-22T09:27:31Z</time>
      </trkpt>
      <trkpt lat="42.5221690" lon="-8.6451580">
        <ele>61.1</ele>
        <time>2021-05-22T09:27:32Z</time>
      </trkpt>
      <trkpt lat="42.5221810" lon="-8.6451610">
        <ele>61.2</ele>
        <time>2021-05-22T09:27:33Z</time>
      </trkpt>
      <trkpt lat="42.5221930" lon="-8.6451600">
        <ele>61.3</ele>
        <time>2021-05-22T09:27:34Z</time>
      </trkpt>
      <trkpt lat="42.5222050" lon="-8.6451640">
        <ele>61.4</ele>
        <time>2021-05-22T09:27:35Z</time>
      </trkpt>
      <trkpt lat="42.5222190" lon="-8.6451690">
        <ele>61.5</ele>
        <time>2021-05-22T09:27:36Z</time>
      </trkpt>
      <trkpt lat="42.5222270" lon="-8.6451720">
        <ele>61.5</ele>
        <time>2021-05-22T09:27:37Z</time>
      </trkpt>
      <trkpt lat="42.5222340" lon="-8.6451760">
        <ele>61.6</ele>
        <time>2021-05-22T09:27:38Z</time>
      </trkpt>
      <trkpt lat="42.5222420" lon="-8.6451790">
        <ele>61.6</ele>
        <time>2021-05-22T09:27:39Z</time>
      </trkpt>
      <trkpt lat="42.5222600" lon="-8.6451760">
        <ele>61.8</ele>
        <time>2021-05-22T09:27:40Z</time>
      </trkpt>
      <trkpt lat="42.5222680" lon="-8.6451770">
        <ele>61.8</ele>
        <time>2021-05-22T09:27:41Z</time>
      </trkpt>
      <trkpt lat="42.5222760" lon="-8.6451770">
        <ele>61.9</ele>
        <time>2021-05-22T09:27:42Z</time>
      </trkpt>
      <trkpt lat="42.5222830" lon="-8.6451780">
        <ele>62.0</ele>
        <time>2021-05-22T09:27:43Z</time>
      </trkpt>
      <trkpt lat="42.5222900" lon="-8.6451890">
        <ele>62.0</ele>
        <time>2021-05-22T09:27:44Z</time>
      </trkpt>
      <trkpt lat="42.5222990" lon="-8.6451970">
        <ele>62.1</ele>
        <time>2021-05-22T09:27:45Z</time>
      </trkpt>
      <trkpt lat="42.5223100" lon="-8.6451990">
        <ele>62.2</ele>
        <time>2021-05-22T09:27:46Z</time>
      </trkpt>
      <trkpt lat="42.5223220" lon="-8.6452030">
        <ele>62.3</ele>
        <time>2021-05-22T09:27:47Z</time>
      </trkpt>
      <trkpt lat="42.5223270" lon="-8.6452080">
        <ele>62.4</ele>
        <time>2021-05-22T09:27:48Z</time>
      </trkpt>
      <trkpt lat="42.5223380" lon="-8.6452110">
        <ele>62.4</ele>
        <time>2021-05-22T09:27:49Z</time>
      </trkpt>
      <trkpt lat="42.5223560" lon="-8.6452220">
        <ele>62.6</ele>
        <time>2021-05-22T09:27:50Z</time>
      </trkpt>
      <trkpt lat="42.5223620" lon="-8.6452240">
        <ele>62.7</ele>
        <time>2021-05-22T09:27:51Z</time>
      </trkpt>
      <trkpt lat="42.5223680" lon="-8.6452270">
        <ele>62.7</ele>
        <time>2021-05-22T09:27:52Z</time>
      </trkpt>
      <trkpt lat="42.5223740" lon="-8.6452290">
        <ele>62.8</ele>
        <time>2021-05-22T09:27:53Z</time>
      </trkpt>
      <trkpt lat="42.5223810" lon="-8.6452360">
        <ele>62.8</ele>
        <time>2021-05-22T09:27:54Z</time>
      </trkpt>
      <trkpt lat="42.5223910" lon="-8.6452390">
        <ele>62.9</ele>
        <time>2021-05-22T09:27:55Z</time>
      </trkpt>
      <trkpt lat="42.5224020" lon="-8.6452500">
        <ele>63.0</ele>
        <time>2021-05-22T09:27:56Z</time>
      </trkpt>
      <trkpt lat="42.5224070" lon="-8.6452540">
        <ele>63.1</ele>
        <time>2021-05-22T09:27:57Z</time>
      </trkpt>
      <trkpt lat="42.5224150" lon="-8.6452560">
        <ele>63.1</ele>
        <time>2021-05-22T09:27:58Z</time>
      </trkpt>
      <trkpt lat="42.5224310" lon="-8.6452670">
        <ele>63.3</ele>
        <time>2021-05-22T09:27:59Z</time>
      </trkpt>
      <trkpt lat="42.5224380" lon="-8.6452730">
        <ele>63.4</ele>
        <time>2021-05-22T09:28:00Z</time>
      </trkpt>
      <trkpt lat="42.5224510" lon="-8.6452780">
        <ele>63.5</ele>
        <time>2021-05-22T09:28:01Z</time>
      </trkpt>
      <trkpt lat="42.5224610" lon="-8.6452800">
        <ele>63.6</ele>
        <time>2021-05-22T09:28:02Z</time>
      </trkpt>
      <trkpt lat="42.5224760" lon="-8.6452790">
        <ele>63.7</ele>
        <time>2021-05-22T09:28:03Z</time>
      </trkpt>
      <trkpt lat="42.5224900" lon="-8.6452790">
        <ele>63.8</ele>
        <time>2021-05-22T09:28:04Z</time>
      </trkpt>
      <trkpt lat="42.5225010" lon="-8.6452850">
        <ele>63.9</ele>
        <time>2021-05-22T09:28:05Z</time>
      </trkpt>
      <trkpt lat="42.5225130" lon="-8.6452910">
        <ele>64.0</ele>
        <time>2021-05-22T09:28:06Z</time>
      </trkpt>
      <trkpt lat="42.5225210" lon="-8.6452970">
        <ele>64.1</ele>
        <time>2021-05-22T09:28:07Z</time>
      </trkpt>
      <trkpt lat="42.5225320" lon="-8.6453070">
        <ele>64.2</ele>
        <time>2021-05-22T09:28:08Z</time>
      </trkpt>
      <trkpt lat="42.5225410" lon="-8.6453190">
        <ele>64.3</ele>
        <time>2021-05-22T09:28:09Z</time>
      </trkpt>
      <trkpt lat="42.5225490" lon="-8.6453260">
        <ele>64.4</ele>
        <time>2021-05-22T09:28:10Z</time>
      </trkpt>
      <trkpt lat="42.5225580" lon="-8.6453320">
        <ele>64.5</ele>
        <time>2021-05-22T09:28:11Z</time>
      </trkpt>
      <trkpt lat="42.5225670" lon="-8.6453490">
        <ele>64.6</ele>
        <time>2021-05-22T09:28:12Z</time>
      </trkpt>
      <trkpt lat="42.5225750" lon="-8.6453520">
        <ele>64.7</ele>
        <time>2021-05-22T09:28:13Z</time>
      </trkpt>
      <trkpt lat="42.5225910" lon="-8.6453660">
        <ele>64.8</ele>
        <time>2021-05-22T09:28:14Z</time>
      </trkpt>
      <trkpt lat="42.5225960" lon="-8.6453740">
        <ele>64.8</ele>
        <time>2021-05-22T09:28:15Z</time>
      </trkpt>
      <trkpt lat="42.5226020" lon="-8.6453810">
        <ele>64.9</ele>
        <time>2021-05-22T09:28:16Z</time>
      </trkpt>
      <trkpt lat="42.5226070" lon="-8.6453890">
        <ele>65.0</ele>
        <time>2021-05-22T09:28:17Z</time>
      </trkpt>
      <trkpt lat="42.5226190" lon="-8.6454040">
        <ele>65.1</ele>
        <time>2021-05-22T09:28:18Z</time>
      </trkpt>
      <trkpt lat="42.5226270" lon="-8.6454080">
        <ele>65.1</ele>
        <time>2021-05-22T09:28:19Z</time>
      </trkpt>
      <trkpt lat="42.5226340" lon="-8.6454130">
        <ele>65.2</ele>
        <time>2021-05-22T09:28:20Z</time>
      </trkpt>
      <trkpt lat="42.5226410" lon="-8.6454180">
        <ele>65.2</ele>
        <time>2021-05-22T09:28:21Z</time>
      </trkpt>
      <trkpt lat="42.5226510" lon="-8.6454250">
        <ele>65.3</ele>
        <time>2021-05-22T09:28:22Z</time>
      </trkpt>
      <trkpt lat="42.5226550" lon="-8.6454270">
        <ele>65.3</ele>
        <time>2021-05-22T09:28:23Z</time>
      </trkpt>
      <trkpt lat="42.5226600" lon="-8.6454340">
        <ele>65.4</ele>
        <time>2021-05-22T09:28:24Z</time>
      </trkpt>
      <trkpt lat="42.5226660" lon="-8.6454440">
        <ele>65.4</ele>
        <time>2021-05-22T09:28:25Z</time>
      </trkpt>
      <trkpt lat="42.5226790" lon="-8.6454560">
        <ele>65.5</ele>
        <time>2021-05-22T09:28:26Z</time>
      </trkpt>
      <trkpt lat="42.5226830" lon="-8.6454580">
        <ele>65.6</ele>
        <time>2021-05-22T09:28:27Z</time>
      </trkpt>
      <trkpt lat="42.5226950" lon="-8.6454640">
        <ele>65.6</ele>
        <time>2021-05-22T09:28:28Z</time>
      </trkpt>
      <trkpt lat="42.5227120" lon="-8.6454730">
        <ele>65.7</ele>
        <time>2021-05-22T09:28:29Z</time>
      </trkpt>
      <trkpt lat="42.5227240" lon="-8.6454820">
        <ele>65.8</ele>
        <time>2021-05-22T09:28:30Z</time>
      </trkpt>
      <trkpt lat="42.5227320" lon="-8.6454920">
        <ele>65.9</ele>
        <time>2021-05-22T09:28:31Z</time>
      </trkpt>
      <trkpt lat="42.5227420" lon="-8.6454970">
        <ele>65.9</ele>
        <time>2021-05-22T09:28:32Z</time>
      </trkpt>
      <trkpt lat="42.5227480" lon="-8.6455020">
        <ele>66.0</ele>
        <time>2021-05-22T09:28:33Z</time>
      </trkpt>
      <trkpt lat="42.5227680" lon="-8.6455130">
        <ele>66.1</ele>
        <time>2021-05-22T09:28:34Z</time>
      </trkpt>
      <trkpt lat="42.5227750" lon="-8.6455210">
        <ele>66.2</ele>
        <time>2021-05-22T09:28:35Z</time>
      </trkpt>
      <trkpt lat="42.5227820" lon="-8.6455280">
        <ele>66.2</ele>
        <time>2021-05-22T09:28:36Z</time>
      </trkpt>
      <trkpt lat="42.5227850" lon="-8.6455310">
        <ele>66.2</ele>
        <time>2021-05-22T09:28:37Z</time>
      </trkpt>
      <trkpt lat="42.5228030" lon="-8.6455420">
        <ele>66.3</ele>
        <time>2021-05-22T09:28:38Z</time>
      </trkpt>
      <trkpt lat="42.5228110" lon="-8.6455510">
        <ele>66.4</ele>
        <time>2021-05-22T09:28:39Z</time>
      </trkpt>
      <trkpt lat="42.5228210" lon="-8.6455610">
        <ele>66.5</ele>
        <time>2021-05-22T09:28:40Z</time>
      </trkpt>
      <trkpt lat="42.5228240" lon="-8.6455680">
        <ele>66.5</ele>
        <time>2021-05-22T09:28:41Z</time>
      </trkpt>
      <trkpt lat="42.5228360" lon="-8.6455710">
        <ele>66.6</ele>
        <time>2021-05-22T09:28:42Z</time>
      </trkpt>
      <trkpt lat="42.5228480" lon="-8.6455820">
        <ele>66.7</ele>
        <time>2021-05-22T09:28:43Z</time>
      </trkpt>
      <trkpt lat="42.5228610" lon="-8.6455900">
        <ele>66.7</ele>
        <time>2021-05-22T09:28:44Z</time>
      </trkpt>
      <trkpt lat="42.5228690" lon="-8.6455890">
        <ele>66.8</ele>
        <time>2021-05-22T09:28:45Z</time>
      </trkpt>
      <trkpt lat="42.5228770" lon="-8.6455950">
        <ele>66.8</ele>
        <time>2021-05-22T09:28:46Z</time>
      </trkpt>
      <trkpt lat="42.5228900" lon="-8.6456010">
        <ele>66.9</ele>
        <time>2021-05-22T09:28:47Z</time>
      </trkpt>
      <trkpt lat="42.5228950" lon="-8.6456050">
        <ele>67.0</ele>
        <time>2021-05-22T09:28:48Z</time>
      </trkpt>
      <trkpt lat="42.5229060" lon="-8.6456160">
        <ele>67.0</ele>
        <time>2021-05-22T09:28:49Z</time>
      </trkpt>
      <trkpt lat="42.5229210" lon="-8.6456250">
        <ele>67.1</ele>
        <time>2021-05-22T09:28:50Z</time>
      </trkpt>
      <trkpt lat="42.5229300" lon="-8.6456300">
        <ele>67.2</ele>
        <time>2021-05-22T09:28:51Z</time>
      </trkpt>
      <trkpt lat="42.5229410" lon="-8.6456390">
        <ele>67.3</ele>
        <time>2021-05-22T09:28:52Z</time>
      </trkpt>
      <trkpt lat="42.5229470" lon="-8.6456370">
        <ele>67.3</ele>
        <time>2021-05-22T09:28:53Z</time>
      </trkpt>
      <trkpt lat="42.5229680" lon="-8.6456480">
        <ele>67.4</ele>
        <time>2021-05-22T09:28:54Z</time>
      </trkpt>
      <trkpt lat="42.5229770" lon="-8.6456470">
        <ele>67.5</ele>
        <time>2021-05-22T09:28:55Z</time>
      </trkpt>
      <trkpt lat="42.5229950" lon="-8.6456490">
        <ele>67.6</ele>
        <time>2021-05-22T09:28:56Z</time>
      </trkpt>
      <trkpt lat="42.5230080" lon="-8.6456550">
        <ele>67.7</ele>
        <time>2021-05-22T09:28:57Z</time>
      </trkpt>
      <trkpt lat="42.5230280" lon="-8.6456660">
        <ele>67.8</ele>
        <time>2021-05-22T09:28:58Z</time>
      </trkpt>
      <trkpt lat="42.5230380" lon="-8.6456680">
        <ele>67.9</ele>
        <time>2021-05-22T09:28:59Z</time>
      </trkpt>
      <trkpt lat="42.5230470" lon="-8.6456710">
        <ele>68.0</ele>
        <time>2021-05-22T09:29:00Z</time>
      </trkpt>
      <trkpt lat="42.5230630" lon="-8.6456710">
        <ele>68.1</ele>
        <time>2021-05-22T09:29:01Z</time>
      </trkpt>
      <trkpt lat="42.5230740" lon="-8.6456700">
        <ele>68.1</ele>
        <time>2021-05-22T09:29:02Z</time>
      </trkpt>
      <trkpt lat="42.5230800" lon="-8.6456730">
        <ele>68.2</ele>
        <time>2021-05-22T09:29:03Z</time>
      </trkpt>
      <trkpt lat="42.5230960" lon="-8.6456750">
        <ele>68.3</ele>
        <time>2021-05-22T09:29:04Z</time>
      </trkpt>
      <trkpt lat="42.5231110" lon="-8.6456780">
        <ele>68.4</ele>
        <time>2021-05-22T09:29:05Z</time>
      </trkpt>
      <trkpt lat="42.5231240" lon="-8.6456850">
        <ele>68.5</ele>
        <time>2021-05-22T09:29:06Z</time>
      </trkpt>
      <trkpt lat="42.5231280" lon="-8.6456920">
        <ele>68.5</ele>
        <time>2021-05-22T09:29:07Z</time>
      </trkpt>
      <trkpt lat="42.5231430" lon="-8.6456920">
        <ele>68.7</ele>
        <time>2021-05-22T09:29:08Z</time>
      </trkpt>
      <trkpt lat="42.5231540" lon="-8.6456910">
        <ele>68.7</ele>
        <time>2021-05-22T09:29:09Z</time>
      </trkpt>
      <trkpt lat="42.5231640" lon="-8.6456940">
        <ele>68.8</ele>
        <time>2021-05-22T09:29:10Z</time>
      </trkpt>
      <trkpt lat="42.5231770" lon="-8.6456960">
        <ele>68.9</ele>
        <time>2021-05-22T09:29:11Z</time>
      </trkpt>
      <trkpt lat="42.5231880" lon="-8.6457010">
        <ele>69.0</ele>
        <time>2021-05-22T09:29:12Z</time>
      </trkpt>
      <trkpt lat="42.5231970" lon="-8.6457020">
        <ele>69.1</ele>
        <time>2021-05-22T09:29:13Z</time>
      </trkpt>
      <trkpt lat="42.5232050" lon="-8.6457040">
        <ele>69.1</ele>
        <time>2021-05-22T09:29:14Z</time>
      </trkpt>
      <trkpt lat="42.5232110" lon="-8.6457100">
        <ele>69.2</ele>
        <time>2021-05-22T09:29:15Z</time>
      </trkpt>
      <trkpt lat="42.5232220" lon="-8.6457110">
        <ele>69.3</ele>
        <time>2021-05-22T09:29:16Z</time>
      </trkpt>
      <trkpt lat="42.5232300" lon="-8.6457170">
        <ele>69.4</ele>
        <time>2021-05-22T09:29:17Z</time>
      </trkpt>
      <trkpt lat="42.5232460" lon="-8.6457230">
        <ele>69.5</ele>
        <time>2021-05-22T09:29:18Z</time>
      </trkpt>
      <trkpt lat="42.5232540" lon="-8.6457250">
        <ele>69.6</ele>
        <time>2021-05-22T09:29:19Z</time>
      </trkpt>
      <trkpt lat="42.5232600" lon="-8.6457200">
        <ele>69.6</ele>
        <time>2021-05-22T09:29:20Z</time>
      </trkpt>
      <trkpt lat="42.5232680" lon="-8.6457250">
        <ele>69.7</ele>
        <time>2021-05-22T09:29:21Z</time>
      </trkpt>
      <trkpt lat="42.5232740" lon="-8.6457340">
        <ele>69.8</ele>
        <time>2021-05-22T09:29:22Z</time>
      </trkpt>
      <trkpt lat="42.5232810" lon="-8.6457470">
        <ele>69.9</ele>
        <time>2021-05-22T09:29:23Z</time>
      </trkpt>
      <trkpt lat="42.5232890" lon="-8.6457500">
        <ele>69.9</ele>
        <time>2021-05-22T09:29:24Z</time>
      </trkpt>
      <trkpt lat="42.5232940" lon="-8.6457530">
        <ele>70.0</ele>
        <time>2021-05-22T09:29:25Z</time>
      </trkpt>
      <trkpt lat="42.5233120" lon="-8.6457620">
        <ele>70.2</ele>
        <time>2021-05-22T09:29:26Z</time>
      </trkpt>
      <trkpt lat="42.5233250" lon="-8.6457690">
        <ele>70.3</ele>
        <time>2021-05-22T09:29:27Z</time>
      </trkpt>
      <trkpt lat="42.5233370" lon="-8.6457810">
        <ele>70.4</ele>
        <time>2021-05-22T09:29:28Z</time>
      </trkpt>
      <trkpt lat="42.5233470" lon="-8.6457850">
        <ele>70.5</ele>
        <time>2021-05-22T09:29:29Z</time>
      </trkpt>
      <trkpt lat="42.5233600" lon="-8.6458010">
        <ele>70.6</ele>
        <time>2021-05-22T09:29:30Z</time>
      </trkpt>
      <trkpt lat="42.5233600" lon="-8.6458020">
        <ele>70.7</ele>
        <time>2021-05-22T09:29:31Z</time>
      </trkpt>
      <trkpt lat="42.5233660" lon="-8.6458180">
        <ele>70.8</ele>
        <time>2021-05-22T09:29:32Z</time>
      </trkpt>
      <trkpt lat="42.5233680" lon="-8.6458260">
        <ele>70.8</ele>
        <time>2021-05-22T09:29:33Z</time>
      </trkpt>
      <trkpt lat="42.5233730" lon="-8.6458420">
        <ele>70.9</ele>
        <time>2021-05-22T09:29:34Z</time>
      </trkpt>
      <trkpt lat="42.5233780" lon="-8.6458550">
        <ele>71.0</ele>
        <time>2021-05-22T09:29:35Z</time>
      </trkpt>
      <trkpt lat="42.5233820" lon="-8.6458690">
        <ele>71.1</ele>
        <time>2021-05-22T09:29:36Z</time>
      </trkpt>
      <trkpt lat="42.5233860" lon="-8.6458780">
        <ele>71.2</ele>
        <time>2021-05-22T09:29:37Z</time>
      </trkpt>
      <trkpt lat="42.5233920" lon="-8.6459000">
        <ele>71.3</ele>
        <time>2021-05-22T09:29:38Z</time>
      </trkpt>
      <trkpt lat="42.5233960" lon="-8.6459080">
        <ele>71.4</ele>
        <time>2021-05-22T09:29:39Z</time>
      </trkpt>
      <trkpt lat="42.5233990" lon="-8.6459150">
        <ele>71.5</ele>
        <time>2021-05-22T09:29:40Z</time>
      </trkpt>
      <trkpt lat="42.5234020" lon="-8.6459230">
        <ele>71.5</ele>
        <time>2021-05-22T09:29:41Z</time>
      </trkpt>
      <trkpt lat="42.5234060" lon="-8.6459330">
        <ele>71.6</ele>
        <time>2021-05-22T09:29:42Z</time>
      </trkpt>
      <trkpt lat="42.5234110" lon="-8.6459480">
        <ele>71.7</ele>
        <time>2021-05-22T09:29:43Z</time>
      </trkpt>
      <trkpt lat="42.5234200" lon="-8.6459590">
        <ele>71.8</ele>
        <time>2021-05-22T09:29:44Z</time>
      </trkpt>
      <trkpt lat="42.5234210" lon="-8.6459660">
        <ele>71.9</ele>
        <time>2021-05-22T09:29:45Z</time>
      </trkpt>
      <trkpt lat="42.5234280" lon="-8.6459770">
        <ele>72.0</ele>
        <time>2021-05-22T09:29:46Z</time>
      </trkpt>
      <trkpt lat="42.5234330" lon="-8.6459940">
        <ele>72.1</ele>
        <time>2021-05-22T09:29:47Z</time>
      </trkpt>
      <trkpt lat="42.5234360" lon="-8.6460010">
        <ele>72.1</ele>
        <time>2021-05-22T09:29:48Z</time>
      </trkpt>
      <trkpt lat="42.5234410" lon="-8.6460190">
        <ele>72.3</ele>
        <time>2021-05-22T09:29:49Z</time>
      </trkpt>
      <trkpt lat="42.5234440" lon="-8.6460330">
        <ele>72.4</ele>
        <time>2021-05-22T09:29:50Z</time>
      </trkpt>
      <trkpt lat="42.5234540" lon="-8.6460510">
        <ele>72.5</ele>
        <time>2021-05-22T09:29:51Z</time>
      </trkpt>
      <trkpt lat="42.5234580" lon="-8.6460590">
        <ele>72.6</ele>
        <time>2021-05-22T09:29:52Z</time>
      </trkpt>
      <trkpt lat="42.5234610" lon="-8.6460680">
        <ele>72.7</ele>
        <time>2021-05-22T09:29:53Z</time>
      </trkpt>
      <trkpt lat="42.5234650" lon="-8.6460760">
        <ele>72.8</ele>
        <time>2021-05-22T09:29:54Z</time>
      </trkpt>
      <trkpt lat="42.5234720" lon="-8.6460920">
        <ele>72.9</ele>
        <time>2021-05-22T09:29:55Z</time>
      </trkpt>
      <trkpt lat="42.5234840" lon="-8.6461020">
        <ele>73.0</ele>
        <time>2021-05-22T09:29:56Z</time>
      </trkpt>
      <trkpt lat="42.5234810" lon="-8.6461140">
        <ele>73.1</ele>
        <time>2021-05-22T09:29:57Z</time>
      </trkpt>
      <trkpt lat="42.5234830" lon="-8.6461280">
        <ele>73.2</ele>
        <time>2021-05-22T09:29:58Z</time>
      </trkpt>
      <trkpt lat="42.5234860" lon="-8.6461510">
        <ele>73.4</ele>
        <time>2021-05-22T09:29:59Z</time>
      </trkpt>
      <trkpt lat="42.5234840" lon="-8.6461650">
        <ele>73.5</ele>
        <time>2021-05-22T09:30:00Z</time>
      </trkpt>
      <trkpt lat="42.5234850" lon="-8.6461730">
        <ele>73.6</ele>
        <time>2021-05-22T09:30:01Z</time>
      </trkpt>
      <trkpt lat="42.5234840" lon="-8.6461810">
        <ele>73.6</ele>
        <time>2021-05-22T09:30:02Z</time>
      </trkpt>
      <trkpt lat="42.5234820" lon="-8.6461970">
        <ele>73.8</ele>
        <time>2021-05-22T09:30:03Z</time>
      </trkpt>
      <trkpt lat="42.5234830" lon="-8.6462080">
        <ele>73.8</ele>
        <time>2021-05-22T09:30:04Z</time>
      </trkpt>
      <trkpt lat="42.5234830" lon="-8.6462150">
        <ele>73.9</ele>
        <time>2021-05-22T09:30:05Z</time>
      </trkpt>
      <trkpt lat="42.5234790" lon="-8.6462260">
        <ele>74.0</ele>
        <time>2021-05-22T09:30:06Z</time>
      </trkpt>
      <trkpt lat="42.5234780" lon="-8.6462400">
        <ele>74.1</ele>
        <time>2021-05-22T09:30:07Z</time>
      </trkpt>
      <trkpt lat="42.5234750" lon="-8.6462600">
        <ele>74.3</ele>
        <time>2021-05-22T09:30:08Z</time>
      </trkpt>
      <trkpt lat="42.5234730" lon="-8.6462720">
        <ele>74.3</ele>
        <time>2021-05-22T09:30:09Z</time>
      </trkpt>
      <trkpt lat="42.5234670" lon="-8.6462840">
        <ele>74.4</ele>
        <time>2021-05-22T09:30:10Z</time>
      </trkpt>
      <trkpt lat="42.5234650" lon="-8.6463040">
        <ele>74.6</ele>
        <time>2021-05-22T09:30:11Z</time>
      </trkpt>
      <trkpt lat="42.5234560" lon="-8.6463250">
        <ele>74.7</ele>
        <time>2021-05-22T09:30:12Z</time>
      </trkpt>
      <trkpt lat="42.5234520" lon="-8.6463320">
        <ele>74.8</ele>
        <time>2021-05-22T09:30:13Z</time>
      </trkpt>
      <trkpt lat="42.5234430" lon="-8.6463450">
        <ele>74.9</ele>
        <time>2021-05-22T09:30:14Z</time>
      </trkpt>
      <trkpt lat="42.5234360" lon="-8.6463520">
        <ele>75.0</ele>
        <time>2021-05-22T09:30:15Z</time>
      </trkpt>
      <trkpt lat="42.5234360" lon="-8.6463690">
        <ele>75.1</ele>
        <time>2021-05-22T09:30:16Z</time>
      </trkpt>
      <trkpt lat="42.5234350" lon="-8.6463890">
        <ele>75.2</ele>
        <time>2021-05-22T09:30:17Z</time>
      </trkpt>
      <trkpt lat="42.5234320" lon="-8.6463940">
        <ele>75.3</ele>
        <time>2021-05-22T09:30:18Z</time>
      </trkpt>
      <trkpt lat="42.5234290" lon="-8.6464080">
        <ele>75.4</ele>
        <time>2021-05-22T09:30:19Z</time>
      </trkpt>
      <trkpt lat="42.5234260" lon="-8.6464240">
        <ele>75.5</ele>
        <time>2021-05-22T09:30:20Z</time>
      </trkpt>
      <trkpt lat="42.5234150" lon="-8.6464500">
        <ele>75.6</ele>
        <time>2021-05-22T09:30:21Z</time>
      </trkpt>
      <trkpt lat="42.5234130" lon="-8.6464600">
        <ele>75.7</ele>
        <time>2021-05-22T09:30:22Z</time>
      </trkpt>
      <trkpt lat="42.5234110" lon="-8.6464700">
        <ele>75.7</ele>
        <time>2021-05-22T09:30:23Z</time>
      </trkpt>
      <trkpt lat="42.5234030" lon="-8.6464970">
        <ele>75.9</ele>
        <time>2021-05-22T09:30:24Z</time>
      </trkpt>
      <trkpt lat="42.5234010" lon="-8.6465090">
        <ele>75.9</ele>
        <time>2021-05-22T09:30:25Z</time>
      </trkpt>
      <trkpt lat="42.5233980" lon="-8.6465210">
        <ele>76.0</ele>
        <time>2021-05-22T09:30:26Z</time>
      </trkpt>
      <trkpt lat="42.5234030" lon="-8.6465360">
        <ele>76.0</ele>
        <time>2021-05-22T09:30:27Z</time>
      </trkpt>
      <trkpt lat="42.5233990" lon="-8.6465510">
        <ele>76.1</ele>
        <time>2021-05-22T09:30:28Z</time>
      </trkpt>
      <trkpt lat="42.5233980" lon="-8.6465630">
        <ele>76.1</ele>
        <time>2021-05-22T09:30:29Z</time>
      </trkpt>
      <trkpt lat="42.5233990" lon="-8.6465820">
        <ele>76.2</ele>
        <time>2021-05-22T09:30:30Z</time>
      </trkpt>
      <trkpt lat="42.5234010" lon="-8.6465990">
        <ele>76.3</ele>
        <time>2021-05-22T09:30:31Z</time>
      </trkpt>
      <trkpt lat="42.5234040" lon="-8.6466110">
        <ele>76.3</ele>
        <time>2021-05-22T09:30:32Z</time>
      </trkpt>
      <trkpt lat="42.5234050" lon="-8.6466280">
        <ele>76.3</ele>
        <time>2021-05-22T09:30:33Z</time>
      </trkpt>
      <trkpt lat="42.5234030" lon="-8.6466370">
        <ele>76.4</ele>
        <time>2021-05-22T09:30:34Z</time>
      </trkpt>
      <trkpt lat="42.5234040" lon="-8.6466490">
        <ele>76.4</ele>
        <time>2021-05-22T09:30:35Z</time>
      </trkpt>
      <trkpt lat="42.5234080" lon="-8.6466750">
        <ele>76.4</ele>
        <time>2021-05-22T09:30:36Z</time>
      </trkpt>
      <trkpt lat="42.5234080" lon="-8.6466860">
        <ele>76.5</ele>
        <time>2021-05-22T09:30:37Z</time>
      </trkpt>
      <trkpt lat="42.5234090" lon="-8.6466980">
        <ele>76.5</ele>
        <time>2021-05-22T09:30:38Z</time>
      </trkpt>
      <trkpt lat="42.5234130" lon="-8.6467090">
        <ele>76.5</ele>
        <time>2021-05-22T09:30:39Z</time>
      </trkpt>
      <trkpt lat="42.5234170" lon="-8.6467280">
        <ele>76.5</ele>
        <time>2021-05-22T09:30:40Z</time>
      </trkpt>
      <trkpt lat="42.5234160" lon="-8.6467380">
        <ele>76.5</ele>
        <time>2021-05-22T09:30:41Z</time>
      </trkpt>
      <trkpt lat="42.5234050" lon="-8.6467640">
        <ele>76.5</ele>
        <time>2021-05-22T09:30:42Z</time>
      </trkpt>
      <trkpt lat="42.5234010" lon="-8.6467760">
        <ele>76.6</ele>
        <time>2021-05-22T09:30:43Z</time>
      </trkpt>
      <trkpt lat="42.5233960" lon="-8.6467870">
        <ele>76.5</ele>
        <time>2021-05-22T09:30:44Z</time>
      </trkpt>
      <trkpt lat="42.5233860" lon="-8.6468030">
        <ele>76.5</ele>
        <time>2021-05-22T09:30:45Z</time>
      </trkpt>
      <trkpt lat="42.5233830" lon="-8.6468160">
        <ele>76.5</ele>
        <time>2021-05-22T09:30:46Z</time>
      </trkpt>
      <trkpt lat="42.5233820" lon="-8.6468190">
        <ele>76.5</ele>
        <time>2021-05-22T09:30:47Z</time>
      </trkpt>
      <trkpt lat="42.5233780" lon="-8.6468160">
        <ele>76.5</ele>
        <time>2021-05-22T09:30:48Z</time>
      </trkpt>
      <trkpt lat="42.5233760" lon="-8.6468140">
        <ele>76.5</ele>
        <time>2021-05-22T09:30:49Z</time>
      </trkpt>
      <trkpt lat="42.5233770" lon="-8.6468180">
        <ele>76.5</ele>
        <time>2021-05-22T09:30:50Z</time>
      </trkpt>
      <trkpt lat="42.5233790" lon="-8.6468140">
        <ele>76.5</ele>
        <time>2021-05-22T09:30:51Z</time>
      </trkpt>
      <trkpt lat="42.5233760" lon="-8.6468180">
        <ele>76.5</ele>
        <time>2021-05-22T09:30:52Z</time>
      </trkpt>
      <trkpt lat="42.5233780" lon="-8.6468110">
        <ele>76.4</ele>
        <time>2021-05-22T09:30:53Z</time>
      </trkpt>
      <trkpt lat="42.5233800" lon="-8.6468030">
        <ele>76.4</ele>
        <time>2021-05-22T09:30:54Z</time>
      </trkpt>
      <trkpt lat="42.5233800" lon="-8.6467940">
        <ele>76.4</ele>
        <time>2021-05-22T09:30:55Z</time>
      </trkpt>
      <trkpt lat="42.5233810" lon="-8.6467890">
        <ele>76.4</ele>
        <time>2021-05-22T09:30:56Z</time>
      </trkpt>
      <trkpt lat="42.5233850" lon="-8.6467870">
        <ele>76.4</ele>
        <time>2021-05-22T09:30:57Z</time>
      </trkpt>
      <trkpt lat="42.5233820" lon="-8.6467970">
        <ele>76.4</ele>
        <time>2021-05-22T09:30:58Z</time>
      </trkpt>
      <trkpt lat="42.5233770" lon="-8.6468060">
        <ele>76.4</ele>
        <time>2021-05-22T09:30:59Z</time>
      </trkpt>
      <trkpt lat="42.5233740" lon="-8.6468050">
        <ele>76.4</ele>
        <time>2021-05-22T09:31:00Z</time>
      </trkpt>
      <trkpt lat="42.5233710" lon="-8.6468060">
        <ele>76.4</ele>
        <time>2021-05-22T09:31:01Z</time>
      </trkpt>
      <trkpt lat="42.5233680" lon="-8.6468020">
        <ele>76.4</ele>
        <time>2021-05-22T09:31:02Z</time>
      </trkpt>
      <trkpt lat="42.5233720" lon="-8.6467980">
        <ele>76.3</ele>
        <time>2021-05-22T09:31:03Z</time>
      </trkpt>
      <trkpt lat="42.5233750" lon="-8.6468060">
        <ele>76.3</ele>
        <time>2021-05-22T09:31:04Z</time>
      </trkpt>
      <trkpt lat="42.5233730" lon="-8.6468070">
        <ele>76.3</ele>
        <time>2021-05-22T09:31:05Z</time>
      </trkpt>
      <trkpt lat="42.5233730" lon="-8.6468070">
        <ele>76.3</ele>
        <time>2021-05-22T09:31:06Z</time>
      </trkpt>
      <trkpt lat="42.5233750" lon="-8.6468020">
        <ele>76.3</ele>
        <time>2021-05-22T09:31:07Z</time>
      </trkpt>
      <trkpt lat="42.5233790" lon="-8.6468000">
        <ele>76.3</ele>
        <time>2021-05-22T09:31:08Z</time>
      </trkpt>
      <trkpt lat="42.5233830" lon="-8.6467970">
        <ele>76.3</ele>
        <time>2021-05-22T09:31:09Z</time>
      </trkpt>
      <trkpt lat="42.5233830" lon="-8.6467970">
        <ele>76.3</ele>
        <time>2021-05-22T09:31:10Z</time>
      </trkpt>
      <trkpt lat="42.5233860" lon="-8.6467920">
        <ele>76.3</ele>
        <time>2021-05-22T09:31:11Z</time>
      </trkpt>
      <trkpt lat="42.5233870" lon="-8.6467930">
        <ele>76.3</ele>
        <time>2021-05-22T09:31:12Z</time>
      </trkpt>
      <trkpt lat="42.5233910" lon="-8.6467930">
        <ele>76.3</ele>
        <time>2021-05-22T09:31:13Z</time>
      </trkpt>
      <trkpt lat="42.5233930" lon="-8.6467910">
        <ele>76.3</ele>
        <time>2021-05-22T09:31:14Z</time>
      </trkpt>
      <trkpt lat="42.5233950" lon="-8.6467890">
        <ele>76.3</ele>
        <time>2021-05-22T09:31:15Z</time>
      </trkpt>
      <trkpt lat="42.5233980" lon="-8.6467880">
        <ele>76.2</ele>
        <time>2021-05-22T09:31:16Z</time>
      </trkpt>
      <trkpt lat="42.5234010" lon="-8.6467860">
        <ele>76.2</ele>
        <time>2021-05-22T09:31:17Z</time>
      </trkpt>
      <trkpt lat="42.5234040" lon="-8.6467800">
        <ele>76.2</ele>
        <time>2021-05-22T09:31:18Z</time>
      </trkpt>
      <trkpt lat="42.5234000" lon="-8.6467780">
        <ele>76.2</ele>
        <time>2021-05-22T09:31:19Z</time>
      </trkpt>
      <trkpt lat="42.5234000" lon="-8.6467750">
        <ele>76.2</ele>
        <time>2021-05-22T09:31:20Z</time>
      </trkpt>
      <trkpt lat="42.5234020" lon="-8.6467700">
        <ele>76.2</ele>
        <time>2021-05-22T09:31:21Z</time>
      </trkpt>
      <trkpt lat="42.5234120" lon="-8.6467560">
        <ele>76.2</ele>
        <time>2021-05-22T09:31:22Z</time>
      </trkpt>
      <trkpt lat="42.5234290" lon="-8.6467350">
        <ele>76.1</ele>
        <time>2021-05-22T09:31:23Z</time>
      </trkpt>
      <trkpt lat="42.5234390" lon="-8.6467280">
        <ele>76.1</ele>
        <time>2021-05-22T09:31:24Z</time>
      </trkpt>
      <trkpt lat="42.5234480" lon="-8.6467200">
        <ele>76.0</ele>
        <time>2021-05-22T09:31:25Z</time>
      </trkpt>
      <trkpt lat="42.5234680" lon="-8.6467030">
        <ele>76.0</ele>
        <time>2021-05-22T09:31:26Z</time>
      </trkpt>
      <trkpt lat="42.5234750" lon="-8.6466980">
        <ele>76.0</ele>
        <time>2021-05-22T09:31:27Z</time>
      </trkpt>
      <trkpt lat="42.5234830" lon="-8.6466940">
        <ele>75.9</ele>
        <time>2021-05-22T09:31:28Z</time>
      </trkpt>
      <trkpt lat="42.5234950" lon="-8.6466900">
        <ele>75.9</ele>
        <time>2021-05-22T09:31:29Z</time>
      </trkpt>
      <trkpt lat="42.5235030" lon="-8.6466870">
        <ele>75.9</ele>
        <time>2021-05-22T09:31:30Z</time>
      </trkpt>
      <trkpt lat="42.5235100" lon="-8.6466770">
        <ele>75.8</ele>
        <time>2021-05-22T09:31:31Z</time>
      </trkpt>
      <trkpt lat="42.5235140" lon="-8.6466620">
        <ele>75.8</ele>
        <time>2021-05-22T09:31:32Z</time>
      </trkpt>
      <trkpt lat="42.5235250" lon="-8.6466540">
        <ele>75.8</ele>
        <time>2021-05-22T09:31:33Z</time>
      </trkpt>
      <trkpt lat="42.5235360" lon="-8.6466450">
        <ele>75.7</ele>
        <time>2021-05-22T09:31:34Z</time>
      </trkpt>
      <trkpt lat="42.5235460" lon="-8.6466400">
        <ele>75.7</ele>
        <time>2021-05-22T09:31:35Z</time>
      </trkpt>
      <trkpt lat="42.5235610" lon="-8.6466310">
        <ele>75.7</ele>
        <time>2021-05-22T09:31:36Z</time>
      </trkpt>
      <trkpt lat="42.5235690" lon="-8.6466280">
        <ele>75.6</ele>
        <time>2021-05-22T09:31:37Z</time>
      </trkpt>
      <trkpt lat="42.5235800" lon="-8.6466200">
        <ele>75.6</ele>
        <time>2021-05-22T09:31:38Z</time>
      </trkpt>
      <trkpt lat="42.5235910" lon="-8.6466120">
        <ele>75.6</ele>
        <time>2021-05-22T09:31:39Z</time>
      </trkpt>
      <trkpt lat="42.5236020" lon="-8.6466020">
        <ele>75.5</ele>
        <time>2021-05-22T09:31:40Z</time>
      </trkpt>
      <trkpt lat="42.5236150" lon="-8.6465930">
        <ele>75.5</ele>
        <time>2021-05-22T09:31:41Z</time>
      </trkpt>
      <trkpt lat="42.5236220" lon="-8.6465820">
        <ele>75.5</ele>
        <time>2021-05-22T09:31:42Z</time>
      </trkpt>
      <trkpt lat="42.5236290" lon="-8.6465740">
        <ele>75.4</ele>
        <time>2021-05-22T09:31:43Z</time>
      </trkpt>
      <trkpt lat="42.5236410" lon="-8.6465640">
        <ele>75.4</ele>
        <time>2021-05-22T09:31:44Z</time>
      </trkpt>
      <trkpt lat="42.5236510" lon="-8.6465590">
        <ele>75.3</ele>
        <time>2021-05-22T09:31:45Z</time>
      </trkpt>
      <trkpt lat="42.5236570" lon="-8.6465530">
        <ele>75.3</ele>
        <time>2021-05-22T09:31:46Z</time>
      </trkpt>
      <trkpt lat="42.5236690" lon="-8.6465490">
        <ele>75.3</ele>
        <time>2021-05-22T09:31:47Z</time>
      </trkpt>
      <trkpt lat="42.5236800" lon="-8.6465430">
        <ele>75.2</ele>
        <time>2021-05-22T09:31:48Z</time>
      </trkpt>
      <trkpt lat="42.5236920" lon="-8.6465310">
        <ele>75.2</ele>
        <time>2021-05-22T09:31:49Z</time>
      </trkpt>
      <trkpt lat="42.5236980" lon="-8.6465250">
        <ele>75.2</ele>
        <time>2021-05-22T09:31:50Z</time>
      </trkpt>
      <trkpt lat="42.5237090" lon="-8.6465160">
        <ele>75.1</ele>
        <time>2021-05-22T09:31:51Z</time>
      </trkpt>
      <trkpt lat="42.5237220" lon="-8.6465080">
        <ele>75.1</ele>
        <time>2021-05-22T09:31:52Z</time>
      </trkpt>
      <trkpt lat="42.5237400" lon="-8.6465010">
        <ele>75.0</ele>
        <time>2021-05-22T09:31:53Z</time>
      </trkpt>
      <trkpt lat="42.5237500" lon="-8.6464920">
        <ele>74.9</ele>
        <time>2021-05-22T09:31:54Z</time>
      </trkpt>
      <trkpt lat="42.5237620" lon="-8.6464840">
        <ele>74.9</ele>
        <time>2021-05-22T09:31:55Z</time>
      </trkpt>
      <trkpt lat="42.5237740" lon="-8.6464700">
        <ele>74.8</ele>
        <time>2021-05-22T09:31:56Z</time>
      </trkpt>
      <trkpt lat="42.5237830" lon="-8.6464660">
        <ele>74.8</ele>
        <time>2021-05-22T09:31:57Z</time>
      </trkpt>
      <trkpt lat="42.5237860" lon="-8.6464620">
        <ele>74.8</ele>
        <time>2021-05-22T09:31:58Z</time>
      </trkpt>
      <trkpt lat="42.5238020" lon="-8.6464550">
        <ele>74.7</ele>
        <time>2021-05-22T09:31:59Z</time>
      </trkpt>
      <trkpt lat="42.5238150" lon="-8.6464490">
        <ele>74.6</ele>
        <time>2021-05-22T09:32:00Z</time>
      </trkpt>
      <trkpt lat="42.5238230" lon="-8.6464430">
        <ele>74.6</ele>
        <time>2021-05-22T09:32:01Z</time>
      </trkpt>
      <trkpt lat="42.5238300" lon="-8.6464360">
        <ele>74.6</ele>
        <time>2021-05-22T09:32:02Z</time>
      </trkpt>
      <trkpt lat="42.5238390" lon="-8.6464290">
        <ele>74.5</ele>
        <time>2021-05-22T09:32:03Z</time>
      </trkpt>
      <trkpt lat="42.5238520" lon="-8.6464230">
        <ele>74.4</ele>
        <time>2021-05-22T09:32:04Z</time>
      </trkpt>
      <trkpt lat="42.5238630" lon="-8.6464230">
        <ele>74.4</ele>
        <time>2021-05-22T09:32:05Z</time>
      </trkpt>
      <trkpt lat="42.5238710" lon="-8.6464220">
        <ele>74.4</ele>
        <time>2021-05-22T09:32:06Z</time>
      </trkpt>
      <trkpt lat="42.5238840" lon="-8.6464200">
        <ele>74.3</ele>
        <time>2021-05-22T09:32:07Z</time>
      </trkpt>
      <trkpt lat="42.5238970" lon="-8.6464200">
        <ele>74.3</ele>
        <time>2021-05-22T09:32:08Z</time>
      </trkpt>
      <trkpt lat="42.5239110" lon="-8.6464170">
        <ele>74.2</ele>
        <time>2021-05-22T09:32:09Z</time>
      </trkpt>
      <trkpt lat="42.5239140" lon="-8.6464170">
        <ele>74.2</ele>
        <time>2021-05-22T09:32:10Z</time>
      </trkpt>
      <trkpt lat="42.5239290" lon="-8.6464170">
        <ele>74.1</ele>
        <time>2021-05-22T09:32:11Z</time>
      </trkpt>
      <trkpt lat="42.5239390" lon="-8.6464150">
        <ele>74.1</ele>
        <time>2021-05-22T09:32:12Z</time>
      </trkpt>
      <trkpt lat="42.5239590" lon="-8.6464130">
        <ele>74.0</ele>
        <time>2021-05-22T09:32:13Z</time>
      </trkpt>
      <trkpt lat="42.5239790" lon="-8.6464100">
        <ele>73.9</ele>
        <time>2021-05-22T09:32:14Z</time>
      </trkpt>
      <trkpt lat="42.5239890" lon="-8.6464090">
        <ele>73.8</ele>
        <time>2021-05-22T09:32:15Z</time>
      </trkpt>
      <trkpt lat="42.5239980" lon="-8.6464070">
        <ele>73.8</ele>
        <time>2021-05-22T09:32:16Z</time>
      </trkpt>
      <trkpt lat="42.5240120" lon="-8.6464090">
        <ele>73.7</ele>
        <time>2021-05-22T09:32:17Z</time>
      </trkpt>
      <trkpt lat="42.5240200" lon="-8.6464110">
        <ele>73.7</ele>
        <time>2021-05-22T09:32:18Z</time>
      </trkpt>
      <trkpt lat="42.5240270" lon="-8.6464130">
        <ele>73.7</ele>
        <time>2021-05-22T09:32:19Z</time>
      </trkpt>
      <trkpt lat="42.5240350" lon="-8.6464150">
        <ele>73.6</ele>
        <time>2021-05-22T09:32:20Z</time>
      </trkpt>
      <trkpt lat="42.5240390" lon="-8.6464200">
        <ele>73.6</ele>
        <time>2021-05-22T09:32:21Z</time>
      </trkpt>
      <trkpt lat="42.5240530" lon="-8.6464290">
        <ele>73.6</ele>
        <time>2021-05-22T09:32:22Z</time>
      </trkpt>
      <trkpt lat="42.5240700" lon="-8.6464250">
        <ele>73.5</ele>
        <time>2021-05-22T09:32:23Z</time>
      </trkpt>
      <trkpt lat="42.5240790" lon="-8.6464270">
        <ele>73.4</ele>
        <time>2021-05-22T09:32:24Z</time>
      </trkpt>
      <trkpt lat="42.5240930" lon="-8.6464260">
        <ele>73.4</ele>
        <time>2021-05-22T09:32:25Z</time>
      </trkpt>
      <trkpt lat="42.5240980" lon="-8.6464290">
        <ele>73.4</ele>
        <time>2021-05-22T09:32:26Z</time>
      </trkpt>
      <trkpt lat="42.5241270" lon="-8.6464360">
        <ele>73.2</ele>
        <time>2021-05-22T09:32:27Z</time>
      </trkpt>
      <trkpt lat="42.5241370" lon="-8.6464410">
        <ele>73.2</ele>
        <time>2021-05-22T09:32:28Z</time>
      </trkpt>
      <trkpt lat="42.5241480" lon="-8.6464450">
        <ele>73.1</ele>
        <time>2021-05-22T09:32:29Z</time>
      </trkpt>
      <trkpt lat="42.5241690" lon="-8.6464560">
        <ele>73.0</ele>
        <time>2021-05-22T09:32:30Z</time>
      </trkpt>
      <trkpt lat="42.5241790" lon="-8.6464590">
        <ele>73.0</ele>
        <time>2021-05-22T09:32:31Z</time>
      </trkpt>
      <trkpt lat="42.5241880" lon="-8.6464630">
        <ele>73.0</ele>
        <time>2021-05-22T09:32:32Z</time>
      </trkpt>
      <trkpt lat="42.5242010" lon="-8.6464650">
        <ele>72.9</ele>
        <time>2021-05-22T09:32:33Z</time>
      </trkpt>
      <trkpt lat="42.5242160" lon="-8.6464750">
        <ele>72.8</ele>
        <time>2021-05-22T09:32:34Z</time>
      </trkpt>
      <trkpt lat="42.5242310" lon="-8.6464790">
        <ele>72.8</ele>
        <time>2021-05-22T09:32:35Z</time>
      </trkpt>
      <trkpt lat="42.5242440" lon="-8.6464780">
        <ele>72.7</ele>
        <time>2021-05-22T09:32:36Z</time>
      </trkpt>
      <trkpt lat="42.5242650" lon="-8.6464860">
        <ele>72.6</ele>
        <time>2021-05-22T09:32:37Z</time>
      </trkpt>
      <trkpt lat="42.5242730" lon="-8.6464890">
        <ele>72.6</ele>
        <time>2021-05-22T09:32:38Z</time>
      </trkpt>
      <trkpt lat="42.5242810" lon="-8.6464930">
        <ele>72.6</ele>
        <time>2021-05-22T09:32:39Z</time>
      </trkpt>
      <trkpt lat="42.5242900" lon="-8.6464980">
        <ele>72.5</ele>
        <time>2021-05-22T09:32:40Z</time>
      </trkpt>
      <trkpt lat="42.5242970" lon="-8.6464990">
        <ele>72.5</ele>
        <time>2021-05-22T09:32:41Z</time>
      </trkpt>
      <trkpt lat="42.5243020" lon="-8.6464950">
        <ele>72.5</ele>
        <time>2021-05-22T09:32:42Z</time>
      </trkpt>
      <trkpt lat="42.5243100" lon="-8.6464930">
        <ele>72.4</ele>
        <time>2021-05-22T09:32:43Z</time>
      </trkpt>
      <trkpt lat="42.5243170" lon="-8.6464940">
        <ele>72.4</ele>
        <time>2021-05-22T09:32:44Z</time>
      </trkpt>
      <trkpt lat="42.5243240" lon="-8.6464970">
        <ele>72.4</ele>
        <time>2021-05-22T09:32:45Z</time>
      </trkpt>
      <trkpt lat="42.5243320" lon="-8.6464990">
        <ele>72.4</ele>
        <time>2021-05-22T09:32:46Z</time>
      </trkpt>
      <trkpt lat="42.5243430" lon="-8.6465000">
        <ele>72.3</ele>
        <time>2021-05-22T09:32:47Z</time>
      </trkpt>
      <trkpt lat="42.5243560" lon="-8.6465080">
        <ele>72.3</ele>
        <time>2021-05-22T09:32:48Z</time>
      </trkpt>
      <trkpt lat="42.5243700" lon="-8.6465170">
        <ele>72.2</ele>
        <time>2021-05-22T09:32:49Z</time>
      </trkpt>
      <trkpt lat="42.5243860" lon="-8.6465270">
        <ele>72.1</ele>
        <time>2021-05-22T09:32:50Z</time>
      </trkpt>
      <trkpt lat="42.5244010" lon="-8.6465360">
        <ele>72.1</ele>
        <time>2021-05-22T09:32:51Z</time>
      </trkpt>
      <trkpt lat="42.5244170" lon="-8.6465390">
        <ele>72.0</ele>
        <time>2021-05-22T09:32:52Z</time>
      </trkpt>
      <trkpt lat="42.5244330" lon="-8.6465360">
        <ele>72.0</ele>
        <time>2021-05-22T09:32:53Z</time>
      </trkpt>
      <trkpt lat="42.5244490" lon="-8.6465380">
        <ele>71.9</ele>
        <time>2021-05-22T09:32:54Z</time>
      </trkpt>
      <trkpt lat="42.5244660" lon="-8.6465390">
        <ele>71.9</ele>
        <time>2021-05-22T09:32:55Z</time>
      </trkpt>
      <trkpt lat="42.5244810" lon="-8.6465360">
        <ele>71.8</ele>
        <time>2021-05-22T09:32:56Z</time>
      </trkpt>
      <trkpt lat="42.5244950" lon="-8.6465320">
        <ele>71.7</ele>
        <time>2021-05-22T09:32:57Z</time>
      </trkpt>
      <trkpt lat="42.5245050" lon="-8.6465230">
        <ele>71.6</ele>
        <time>2021-05-22T09:32:58Z</time>
      </trkpt>
      <trkpt lat="42.5245160" lon="-8.6465140">
        <ele>71.5</ele>
        <time>2021-05-22T09:32:59Z</time>
      </trkpt>
      <trkpt lat="42.5245250" lon="-8.6465060">
        <ele>71.4</ele>
        <time>2021-05-22T09:33:00Z</time>
      </trkpt>
      <trkpt lat="42.5245310" lon="-8.6464850">
        <ele>71.3</ele>
        <time>2021-05-22T09:33:01Z</time>
      </trkpt>
      <trkpt lat="42.5245380" lon="-8.6464650">
        <ele>71.2</ele>
        <time>2021-05-22T09:33:02Z</time>
      </trkpt>
      <trkpt lat="42.5245440" lon="-8.6464420">
        <ele>71.1</ele>
        <time>2021-05-22T09:33:03Z</time>
      </trkpt>
      <trkpt lat="42.5245420" lon="-8.6464180">
        <ele>71.0</ele>
        <time>2021-05-22T09:33:04Z</time>
      </trkpt>
      <trkpt lat="42.5245490" lon="-8.6463970">
        <ele>70.9</ele>
        <time>2021-05-22T09:33:05Z</time>
      </trkpt>
      <trkpt lat="42.5245500" lon="-8.6463770">
        <ele>70.8</ele>
        <time>2021-05-22T09:33:06Z</time>
      </trkpt>
      <trkpt lat="42.5245500" lon="-8.6463580">
        <ele>70.7</ele>
        <time>2021-05-22T09:33:07Z</time>
      </trkpt>
      <trkpt lat="42.5245540" lon="-8.6463360">
        <ele>70.6</ele>
        <time>2021-05-22T09:33:08Z</time>
      </trkpt>
      <trkpt lat="42.5245530" lon="-8.6463150">
        <ele>70.5</ele>
        <time>2021-05-22T09:33:09Z</time>
      </trkpt>
      <trkpt lat="42.5245540" lon="-8.6462950">
        <ele>70.4</ele>
        <time>2021-05-22T09:33:10Z</time>
      </trkpt>
      <trkpt lat="42.5245600" lon="-8.6462750">
        <ele>70.3</ele>
        <time>2021-05-22T09:33:11Z</time>
      </trkpt>
      <trkpt lat="42.5245650" lon="-8.6462560">
        <ele>70.2</ele>
        <time>2021-05-22T09:33:12Z</time>
      </trkpt>
      <trkpt lat="42.5245640" lon="-8.6462350">
        <ele>70.2</ele>
        <time>2021-05-22T09:33:13Z</time>
      </trkpt>
      <trkpt lat="42.5245680" lon="-8.6462180">
        <ele>70.1</ele>
        <time>2021-05-22T09:33:14Z</time>
      </trkpt>
      <trkpt lat="42.5245680" lon="-8.6461960">
        <ele>70.0</ele>
        <time>2021-05-22T09:33:15Z</time>
      </trkpt>
      <trkpt lat="42.5245730" lon="-8.6461790">
        <ele>69.9</ele>
        <time>2021-05-22T09:33:16Z</time>
      </trkpt>
      <trkpt lat="42.5245740" lon="-8.6461630">
        <ele>69.9</ele>
        <time>2021-05-22T09:33:17Z</time>
      </trkpt>
      <trkpt lat="42.5245830" lon="-8.6461530">
        <ele>69.8</ele>
        <time>2021-05-22T09:33:18Z</time>
      </trkpt>
      <trkpt lat="42.5245850" lon="-8.6461460">
        <ele>69.8</ele>
        <time>2021-05-22T09:33:19Z</time>
      </trkpt>
      <trkpt lat="42.5245930" lon="-8.6461180">
        <ele>69.7</ele>
        <time>2021-05-22T09:33:20Z</time>
      </trkpt>
      <trkpt lat="42.5245980" lon="-8.6461090">
        <ele>69.6</ele>
        <time>2021-05-22T09:33:21Z</time>
      </trkpt>
      <trkpt lat="42.5246020" lon="-8.6460990">
        <ele>69.6</ele>
        <time>2021-05-22T09:33:22Z</time>
      </trkpt>
      <trkpt lat="42.5246050" lon="-8.6460840">
        <ele>69.5</ele>
        <time>2021-05-22T09:33:23Z</time>
      </trkpt>
      <trkpt lat="42.5246150" lon="-8.6460670">
        <ele>69.5</ele>
        <time>2021-05-22T09:33:24Z</time>
      </trkpt>
      <trkpt lat="42.5246190" lon="-8.6460570">
        <ele>69.4</ele>
        <time>2021-05-22T09:33:25Z</time>
      </trkpt>
      <trkpt lat="42.5246210" lon="-8.6460510">
        <ele>69.4</ele>
        <time>2021-05-22T09:33:26Z</time>
      </trkpt>
      <trkpt lat="42.5246330" lon="-8.6460330">
        <ele>69.3</ele>
        <time>2021-05-22T09:33:27Z</time>
      </trkpt>
      <trkpt lat="42.5246360" lon="-8.6460290">
        <ele>69.3</ele>
        <time>2021-05-22T09:33:28Z</time>
      </trkpt>
      <trkpt lat="42.5246450" lon="-8.6460130">
        <ele>69.2</ele>
        <time>2021-05-22T09:33:29Z</time>
      </trkpt>
      <trkpt lat="42.5246540" lon="-8.6460020">
        <ele>69.2</ele>
        <time>2021-05-22T09:33:30Z</time>
      </trkpt>
      <trkpt lat="42.5246590" lon="-8.6459930">
        <ele>69.1</ele>
        <time>2021-05-22T09:33:31Z</time>
      </trkpt>
      <trkpt lat="42.5246700" lon="-8.6459880">
        <ele>69.1</ele>
        <time>2021-05-22T09:33:32Z</time>
      </trkpt>
      <trkpt lat="42.5246780" lon="-8.6459820">
        <ele>69.0</ele>
        <time>2021-05-22T09:33:33Z</time>
      </trkpt>
      <trkpt lat="42.5246980" lon="-8.6459720">
        <ele>69.0</ele>
        <time>2021-05-22T09:33:34Z</time>
      </trkpt>
      <trkpt lat="42.5247050" lon="-8.6459670">
        <ele>68.9</ele>
        <time>2021-05-22T09:33:35Z</time>
      </trkpt>
      <trkpt lat="42.5247130" lon="-8.6459620">
        <ele>68.9</ele>
        <time>2021-05-22T09:33:36Z</time>
      </trkpt>
      <trkpt lat="42.5247340" lon="-8.6459560">
        <ele>68.8</ele>
        <time>2021-05-22T09:33:37Z</time>
      </trkpt>
      <trkpt lat="42.5247420" lon="-8.6459530">
        <ele>68.8</ele>
        <time>2021-05-22T09:33:38Z</time>
      </trkpt>
      <trkpt lat="42.5247500" lon="-8.6459490">
        <ele>68.8</ele>
        <time>2021-05-22T09:33:39Z</time>
      </trkpt>
      <trkpt lat="42.5247600" lon="-8.6459430">
        <ele>68.7</ele>
        <time>2021-05-22T09:33:40Z</time>
      </trkpt>
      <trkpt lat="42.5247720" lon="-8.6459400">
        <ele>68.7</ele>
        <time>2021-05-22T09:33:41Z</time>
      </trkpt>
      <trkpt lat="42.5247830" lon="-8.6459300">
        <ele>68.6</ele>
        <time>2021-05-22T09:33:42Z</time>
      </trkpt>
      <trkpt lat="42.5247960" lon="-8.6459220">
        <ele>68.6</ele>
        <time>2021-05-22T09:33:43Z</time>
      </trkpt>
      <trkpt lat="42.5248120" lon="-8.6459110">
        <ele>68.5</ele>
        <time>2021-05-22T09:33:44Z</time>
      </trkpt>
      <trkpt lat="42.5248250" lon="-8.6459020">
        <ele>68.5</ele>
        <time>2021-05-22T09:33:45Z</time>
      </trkpt>
      <trkpt lat="42.5248380" lon="-8.6458960">
        <ele>68.4</ele>
        <time>2021-05-22T09:33:46Z</time>
      </trkpt>
      <trkpt lat="42.5248530" lon="-8.6458910">
        <ele>68.4</ele>
        <time>2021-05-22T09:33:47Z</time>
      </trkpt>
      <trkpt lat="42.5248700" lon="-8.6458880">
        <ele>68.3</ele>
        <time>2021-05-22T09:33:48Z</time>
      </trkpt>
      <trkpt lat="42.5248850" lon="-8.6458780">
        <ele>68.3</ele>
        <time>2021-05-22T09:33:49Z</time>
      </trkpt>
      <trkpt lat="42.5248940" lon="-8.6458580">
        <ele>68.3</ele>
        <time>2021-05-22T09:33:50Z</time>
      </trkpt>
      <trkpt lat="42.5249090" lon="-8.6458580">
        <ele>68.2</ele>
        <time>2021-05-22T09:33:51Z</time>
      </trkpt>
      <trkpt lat="42.5249230" lon="-8.6458580">
        <ele>68.2</ele>
        <time>2021-05-22T09:33:52Z</time>
      </trkpt>
      <trkpt lat="42.5249350" lon="-8.6458510">
        <ele>68.2</ele>
        <time>2021-05-22T09:33:53Z</time>
      </trkpt>
      <trkpt lat="42.5249490" lon="-8.6458420">
        <ele>68.1</ele>
        <time>2021-05-22T09:33:54Z</time>
      </trkpt>
      <trkpt lat="42.5249620" lon="-8.6458350">
        <ele>68.1</ele>
        <time>2021-05-22T09:33:55Z</time>
      </trkpt>
      <trkpt lat="42.5249740" lon="-8.6458270">
        <ele>68.1</ele>
        <time>2021-05-22T09:33:56Z</time>
      </trkpt>
      <trkpt lat="42.5249870" lon="-8.6458220">
        <ele>68.0</ele>
        <time>2021-05-22T09:33:57Z</time>
      </trkpt>
      <trkpt lat="42.5250020" lon="-8.6458170">
        <ele>68.0</ele>
        <time>2021-05-22T09:33:58Z</time>
      </trkpt>
      <trkpt lat="42.5250150" lon="-8.6458070">
        <ele>68.0</ele>
        <time>2021-05-22T09:33:59Z</time>
      </trkpt>
      <trkpt lat="42.5250270" lon="-8.6457950">
        <ele>68.0</ele>
        <time>2021-05-22T09:34:00Z</time>
      </trkpt>
      <trkpt lat="42.5250430" lon="-8.6457900">
        <ele>68.0</ele>
        <time>2021-05-22T09:34:01Z</time>
      </trkpt>
      <trkpt lat="42.5250550" lon="-8.6457780">
        <ele>67.9</ele>
        <time>2021-05-22T09:34:02Z</time>
      </trkpt>
      <trkpt lat="42.5250690" lon="-8.6457710">
        <ele>67.9</ele>
        <time>2021-05-22T09:34:03Z</time>
      </trkpt>
      <trkpt lat="42.5250830" lon="-8.6457640">
        <ele>67.9</ele>
        <time>2021-05-22T09:34:04Z</time>
      </trkpt>
      <trkpt lat="42.5250960" lon="-8.6457610">
        <ele>67.9</ele>
        <time>2021-05-22T09:34:05Z</time>
      </trkpt>
      <trkpt lat="42.5251090" lon="-8.6457510">
        <ele>67.9</ele>
        <time>2021-05-22T09:34:06Z</time>
      </trkpt>
      <trkpt lat="42.5251210" lon="-8.6457390">
        <ele>67.9</ele>
        <time>2021-05-22T09:34:07Z</time>
      </trkpt>
      <trkpt lat="42.5251350" lon="-8.6457320">
        <ele>67.9</ele>
        <time>2021-05-22T09:34:08Z</time>
      </trkpt>
      <trkpt lat="42.5251460" lon="-8.6457220">
        <ele>67.9</ele>
        <time>2021-05-22T09:34:09Z</time>
      </trkpt>
      <trkpt lat="42.5251590" lon="-8.6457150">
        <ele>67.8</ele>
        <time>2021-05-22T09:34:10Z</time>
      </trkpt>
      <trkpt lat="42.5251730" lon="-8.6457110">
        <ele>67.8</ele>
        <time>2021-05-22T09:34:11Z</time>
      </trkpt>
      <trkpt lat="42.5251840" lon="-8.6456980">
        <ele>67.8</ele>
        <time>2021-05-22T09:34:12Z</time>
      </trkpt>
      <trkpt lat="42.5251960" lon="-8.6456880">
        <ele>67.8</ele>
        <time>2021-05-22T09:34:13Z</time>
      </trkpt>
      <trkpt lat="42.5252080" lon="-8.6456760">
        <ele>67.8</ele>
        <time>2021-05-22T09:34:14Z</time>
      </trkpt>
      <trkpt lat="42.5252200" lon="-8.6456660">
        <ele>67.8</ele>
        <time>2021-05-22T09:34:15Z</time>
      </trkpt>
      <trkpt lat="42.5252320" lon="-8.6456560">
        <ele>67.8</ele>
        <time>2021-05-22T09:34:16Z</time>
      </trkpt>
      <trkpt lat="42.5252460" lon="-8.6456510">
        <ele>67.8</ele>
        <time>2021-05-22T09:34:17Z</time>
      </trkpt>
      <trkpt lat="42.5252570" lon="-8.6456400">
        <ele>67.8</ele>
        <time>2021-05-22T09:34:18Z</time>
      </trkpt>
      <trkpt lat="42.5252770" lon="-8.6456280">
        <ele>67.8</ele>
        <time>2021-05-22T09:34:19Z</time>
      </trkpt>
      <trkpt lat="42.5252840" lon="-8.6456210">
        <ele>67.8</ele>
        <time>2021-05-22T09:34:20Z</time>
      </trkpt>
      <trkpt lat="42.5252920" lon="-8.6456140">
        <ele>67.7</ele>
        <time>2021-05-22T09:34:21Z</time>
      </trkpt>
      <trkpt lat="42.5253050" lon="-8.6456080">
        <ele>67.7</ele>
        <time>2021-05-22T09:34:22Z</time>
      </trkpt>
      <trkpt lat="42.5253180" lon="-8.6455980">
        <ele>67.7</ele>
        <time>2021-05-22T09:34:23Z</time>
      </trkpt>
      <trkpt lat="42.5253310" lon="-8.6455950">
        <ele>67.7</ele>
        <time>2021-05-22T09:34:24Z</time>
      </trkpt>
      <trkpt lat="42.5253430" lon="-8.6455800">
        <ele>67.7</ele>
        <time>2021-05-22T09:34:25Z</time>
      </trkpt>
      <trkpt lat="42.5253600" lon="-8.6455610">
        <ele>67.7</ele>
        <time>2021-05-22T09:34:26Z</time>
      </trkpt>
      <trkpt lat="42.5253670" lon="-8.6455530">
        <ele>67.7</ele>
        <time>2021-05-22T09:34:27Z</time>
      </trkpt>
      <trkpt lat="42.5253740" lon="-8.6455450">
        <ele>67.7</ele>
        <time>2021-05-22T09:34:28Z</time>
      </trkpt>
      <trkpt lat="42.5253930" lon="-8.6455320">
        <ele>67.7</ele>
        <time>2021-05-22T09:34:29Z</time>
      </trkpt>
      <trkpt lat="42.5254010" lon="-8.6455270">
        <ele>67.7</ele>
        <time>2021-05-22T09:34:30Z</time>
      </trkpt>
      <trkpt lat="42.5254090" lon="-8.6455220">
        <ele>67.7</ele>
        <time>2021-05-22T09:34:31Z</time>
      </trkpt>
      <trkpt lat="42.5254290" lon="-8.6455070">
        <ele>67.7</ele>
        <time>2021-05-22T09:34:32Z</time>
      </trkpt>
      <trkpt lat="42.5254360" lon="-8.6455000">
        <ele>67.7</ele>
        <time>2021-05-22T09:34:33Z</time>
      </trkpt>
      <trkpt lat="42.5254430" lon="-8.6454920">
        <ele>67.7</ele>
        <time>2021-05-22T09:34:34Z</time>
      </trkpt>
      <trkpt lat="42.5254610" lon="-8.6454750">
        <ele>67.7</ele>
        <time>2021-05-22T09:34:35Z</time>
      </trkpt>
      <trkpt lat="42.5254690" lon="-8.6454700">
        <ele>67.7</ele>
        <time>2021-05-22T09:34:36Z</time>
      </trkpt>
      <trkpt lat="42.5254770" lon="-8.6454650">
        <ele>67.7</ele>
        <time>2021-05-22T09:34:37Z</time>
      </trkpt>
      <trkpt lat="42.5254970" lon="-8.6454570">
        <ele>67.7</ele>
        <time>2021-05-22T09:34:38Z</time>
      </trkpt>
      <trkpt lat="42.5255050" lon="-8.6454520">
        <ele>67.7</ele>
        <time>2021-05-22T09:34:39Z</time>
      </trkpt>
      <trkpt lat="42.5255120" lon="-8.6454480">
        <ele>67.7</ele>
        <time>2021-05-22T09:34:40Z</time>
      </trkpt>
      <trkpt lat="42.5255220" lon="-8.6454490">
        <ele>67.7</ele>
        <time>2021-05-22T09:34:41Z</time>
      </trkpt>
      <trkpt lat="42.5255270" lon="-8.6454510">
        <ele>67.7</ele>
        <time>2021-05-22T09:34:42Z</time>
      </trkpt>
      <trkpt lat="42.5255230" lon="-8.6454500">
        <ele>67.7</ele>
        <time>2021-05-22T09:34:43Z</time>
      </trkpt>
      <trkpt lat="42.5255310" lon="-8.6454460">
        <ele>67.7</ele>
        <time>2021-05-22T09:34:44Z</time>
      </trkpt>
      <trkpt lat="42.5255370" lon="-8.6454410">
        <ele>67.7</ele>
        <time>2021-05-22T09:34:45Z</time>
      </trkpt>
      <trkpt lat="42.5255430" lon="-8.6454360">
        <ele>67.7</ele>
        <time>2021-05-22T09:34:46Z</time>
      </trkpt>
      <trkpt lat="42.5255550" lon="-8.6454280">
        <ele>67.7</ele>
        <time>2021-05-22T09:34:47Z</time>
      </trkpt>
      <trkpt lat="42.5255630" lon="-8.6454120">
        <ele>67.7</ele>
        <time>2021-05-22T09:34:48Z</time>
      </trkpt>
      <trkpt lat="42.5255640" lon="-8.6454010">
        <ele>67.7</ele>
        <time>2021-05-22T09:34:49Z</time>
      </trkpt>
      <trkpt lat="42.5255800" lon="-8.6453910">
        <ele>67.7</ele>
        <time>2021-05-22T09:34:50Z</time>
      </trkpt>
      <trkpt lat="42.5255850" lon="-8.6453820">
        <ele>67.7</ele>
        <time>2021-05-22T09:34:51Z</time>
      </trkpt>
      <trkpt lat="42.5255900" lon="-8.6453710">
        <ele>67.7</ele>
        <time>2021-05-22T09:34:52Z</time>
      </trkpt>
      <trkpt lat="42.5255990" lon="-8.6453600">
        <ele>67.7</ele>
        <time>2021-05-22T09:34:53Z</time>
      </trkpt>
      <trkpt lat="42.5256120" lon="-8.6453490">
        <ele>67.7</ele>
        <time>2021-05-22T09:34:54Z</time>
      </trkpt>
      <trkpt lat="42.5256240" lon="-8.6453420">
        <ele>67.8</ele>
        <time>2021-05-22T09:34:55Z</time>
      </trkpt>
      <trkpt lat="42.5256310" lon="-8.6453350">
        <ele>67.8</ele>
        <time>2021-05-22T09:34:56Z</time>
      </trkpt>
      <trkpt lat="42.5256370" lon="-8.6453270">
        <ele>67.8</ele>
        <time>2021-05-22T09:34:57Z</time>
      </trkpt>
      <trkpt lat="42.5256430" lon="-8.6453200">
        <ele>67.8</ele>
        <time>2021-05-22T09:34:58Z</time>
      </trkpt>
      <trkpt lat="42.5256520" lon="-8.6453100">
        <ele>67.8</ele>
        <time>2021-05-22T09:34:59Z</time>
      </trkpt>
      <trkpt lat="42.5256590" lon="-8.6452990">
        <ele>67.8</ele>
        <time>2021-05-22T09:35:00Z</time>
      </trkpt>
      <trkpt lat="42.5256680" lon="-8.6452890">
        <ele>67.8</ele>
        <time>2021-05-22T09:35:01Z</time>
      </trkpt>
      <trkpt lat="42.5256820" lon="-8.6452810">
        <ele>67.8</ele>
        <time>2021-05-22T09:35:02Z</time>
      </trkpt>
      <trkpt lat="42.5256860" lon="-8.6452770">
        <ele>67.8</ele>
        <time>2021-05-22T09:35:03Z</time>
      </trkpt>
      <trkpt lat="42.5256950" lon="-8.6452680">
        <ele>67.8</ele>
        <time>2021-05-22T09:35:04Z</time>
      </trkpt>
      <trkpt lat="42.5257030" lon="-8.6452540">
        <ele>67.8</ele>
        <time>2021-05-22T09:35:05Z</time>
      </trkpt>
      <trkpt lat="42.5257140" lon="-8.6452420">
        <ele>67.9</ele>
        <time>2021-05-22T09:35:06Z</time>
      </trkpt>
      <trkpt lat="42.5257210" lon="-8.6452300">
        <ele>67.9</ele>
        <time>2021-05-22T09:35:07Z</time>
      </trkpt>
      <trkpt lat="42.5257390" lon="-8.6452230">
        <ele>67.9</ele>
        <time>2021-05-22T09:35:08Z</time>
      </trkpt>
      <trkpt lat="42.5257400" lon="-8.6452180">
        <ele>67.9</ele>
        <time>2021-05-22T09:35:09Z</time>
      </trkpt>
      <trkpt lat="42.5257510" lon="-8.6452030">
        <ele>67.9</ele>
        <time>2021-05-22T09:35:10Z</time>
      </trkpt>
      <trkpt lat="42.5257550" lon="-8.6451900">
        <ele>67.9</ele>
        <time>2021-05-22T09:35:11Z</time>
      </trkpt>
      <trkpt lat="42.5257570" lon="-8.6451780">
        <ele>67.9</ele>
        <time>2021-05-22T09:35:12Z</time>
      </trkpt>
      <trkpt lat="42.5257640" lon="-8.6451680">
        <ele>67.9</ele>
        <time>2021-05-22T09:35:13Z</time>
      </trkpt>
      <trkpt lat="42.5257710" lon="-8.6451620">
        <ele>67.9</ele>
        <time>2021-05-22T09:35:14Z</time>
      </trkpt>
      <trkpt lat="42.5257770" lon="-8.6451530">
        <ele>67.9</ele>
        <time>2021-05-22T09:35:15Z</time>
      </trkpt>
      <trkpt lat="42.5257860" lon="-8.6451380">
        <ele>67.9</ele>
        <time>2021-05-22T09:35:16Z</time>
      </trkpt>
      <trkpt lat="42.5257900" lon="-8.6451260">
        <ele>68.0</ele>
        <time>2021-05-22T09:35:17Z</time>
      </trkpt>
      <trkpt lat="42.5257960" lon="-8.6451130">
        <ele>68.0</ele>
        <time>2021-05-22T09:35:18Z</time>
      </trkpt>
      <trkpt lat="42.5258100" lon="-8.6450860">
        <ele>68.0</ele>
        <time>2021-05-22T09:35:19Z</time>
      </trkpt>
      <trkpt lat="42.5258130" lon="-8.6450800">
        <ele>68.0</ele>
        <time>2021-05-22T09:35:20Z</time>
      </trkpt>
      <trkpt lat="42.5258170" lon="-8.6450730">
        <ele>68.1</ele>
        <time>2021-05-22T09:35:21Z</time>
      </trkpt>
      <trkpt lat="42.5258260" lon="-8.6450650">
        <ele>68.1</ele>
        <time>2021-05-22T09:35:22Z</time>
      </trkpt>
      <trkpt lat="42.5258360" lon="-8.6450500">
        <ele>68.1</ele>
        <time>2021-05-22T09:35:23Z</time>
      </trkpt>
      <trkpt lat="42.5258450" lon="-8.6450410">
        <ele>68.2</ele>
        <time>2021-05-22T09:35:24Z</time>
      </trkpt>
      <trkpt lat="42.5258630" lon="-8.6450240">
        <ele>68.2</ele>
        <time>2021-05-22T09:35:25Z</time>
      </trkpt>
      <trkpt lat="42.5258690" lon="-8.6450140">
        <ele>68.3</ele>
        <time>2021-05-22T09:35:26Z</time>
      </trkpt>
      <trkpt lat="42.5258750" lon="-8.6450050">
        <ele>68.3</ele>
        <time>2021-05-22T09:35:27Z</time>
      </trkpt>
      <trkpt lat="42.5258830" lon="-8.6450040">
        <ele>68.3</ele>
        <time>2021-05-22T09:35:28Z</time>
      </trkpt>
      <trkpt lat="42.5258960" lon="-8.6450000">
        <ele>68.4</ele>
        <time>2021-05-22T09:35:29Z</time>
      </trkpt>
      <trkpt lat="42.5259030" lon="-8.6449910">
        <ele>68.4</ele>
        <time>2021-05-22T09:35:30Z</time>
      </trkpt>
      <trkpt lat="42.5259260" lon="-8.6449840">
        <ele>68.5</ele>
        <time>2021-05-22T09:35:31Z</time>
      </trkpt>
      <trkpt lat="42.5259340" lon="-8.6449730">
        <ele>68.5</ele>
        <time>2021-05-22T09:35:32Z</time>
      </trkpt>
      <trkpt lat="42.5259500" lon="-8.6449570">
        <ele>68.6</ele>
        <time>2021-05-22T09:35:33Z</time>
      </trkpt>
      <trkpt lat="42.5259590" lon="-8.6449520">
        <ele>68.6</ele>
        <time>2021-05-22T09:35:34Z</time>
      </trkpt>
      <trkpt lat="42.5259680" lon="-8.6449460">
        <ele>68.7</ele>
        <time>2021-05-22T09:35:35Z</time>
      </trkpt>
      <trkpt lat="42.5259800" lon="-8.6449370">
        <ele>68.7</ele>
        <time>2021-05-22T09:35:36Z</time>
      </trkpt>
      <trkpt lat="42.5259890" lon="-8.6449290">
        <ele>68.8</ele>
        <time>2021-05-22T09:35:37Z</time>
      </trkpt>
      <trkpt lat="42.5260000" lon="-8.6449220">
        <ele>68.8</ele>
        <time>2021-05-22T09:35:38Z</time>
      </trkpt>
      <trkpt lat="42.5260160" lon="-8.6449070">
        <ele>68.9</ele>
        <time>2021-05-22T09:35:39Z</time>
      </trkpt>
      <trkpt lat="42.5260200" lon="-8.6449000">
        <ele>68.9</ele>
        <time>2021-05-22T09:35:40Z</time>
      </trkpt>
      <trkpt lat="42.5260240" lon="-8.6448940">
        <ele>69.0</ele>
        <time>2021-05-22T09:35:41Z</time>
      </trkpt>
      <trkpt lat="42.5260280" lon="-8.6448870">
        <ele>69.0</ele>
        <time>2021-05-22T09:35:42Z</time>
      </trkpt>
      <trkpt lat="42.5260290" lon="-8.6448760">
        <ele>69.0</ele>
        <time>2021-05-22T09:35:43Z</time>
      </trkpt>
      <trkpt lat="42.5260300" lon="-8.6448570">
        <ele>69.1</ele>
        <time>2021-05-22T09:35:44Z</time>
      </trkpt>
      <trkpt lat="42.5260400" lon="-8.6448520">
        <ele>69.1</ele>
        <time>2021-05-22T09:35:45Z</time>
      </trkpt>
      <trkpt lat="42.5260500" lon="-8.6448460">
        <ele>69.2</ele>
        <time>2021-05-22T09:35:46Z</time>
      </trkpt>
      <trkpt lat="42.5260570" lon="-8.6448410">
        <ele>69.2</ele>
        <time>2021-05-22T09:35:47Z</time>
      </trkpt>
      <trkpt lat="42.5260670" lon="-8.6448350">
        <ele>69.3</ele>
        <time>2021-05-22T09:35:48Z</time>
      </trkpt>
      <trkpt lat="42.5260740" lon="-8.6448320">
        <ele>69.3</ele>
        <time>2021-05-22T09:35:49Z</time>
      </trkpt>
      <trkpt lat="42.5260820" lon="-8.6448250">
        <ele>69.4</ele>
        <time>2021-05-22T09:35:50Z</time>
      </trkpt>
      <trkpt lat="42.5260910" lon="-8.6448270">
        <ele>69.4</ele>
        <time>2021-05-22T09:35:51Z</time>
      </trkpt>
      <trkpt lat="42.5261010" lon="-8.6448280">
        <ele>69.4</ele>
        <time>2021-05-22T09:35:52Z</time>
      </trkpt>
      <trkpt lat="42.5261180" lon="-8.6448190">
        <ele>69.5</ele>
        <time>2021-05-22T09:35:53Z</time>
      </trkpt>
      <trkpt lat="42.5261270" lon="-8.6448150">
        <ele>69.5</ele>
        <time>2021-05-22T09:35:54Z</time>
      </trkpt>
      <trkpt lat="42.5261360" lon="-8.6448100">
        <ele>69.6</ele>
        <time>2021-05-22T09:35:55Z</time>
      </trkpt>
      <trkpt lat="42.5261430" lon="-8.6448020">
        <ele>69.6</ele>
        <time>2021-05-22T09:35:56Z</time>
      </trkpt>
      <trkpt lat="42.5261620" lon="-8.6447960">
        <ele>69.7</ele>
        <time>2021-05-22T09:35:57Z</time>
      </trkpt>
      <trkpt lat="42.5261740" lon="-8.6447900">
        <ele>69.7</ele>
        <time>2021-05-22T09:35:58Z</time>
      </trkpt>
      <trkpt lat="42.5261820" lon="-8.6447920">
        <ele>69.8</ele>
        <time>2021-05-22T09:35:59Z</time>
      </trkpt>
      <trkpt lat="42.5261920" lon="-8.6447910">
        <ele>69.8</ele>
        <time>2021-05-22T09:36:00Z</time>
      </trkpt>
      <trkpt lat="42.5262030" lon="-8.6447890">
        <ele>69.8</ele>
        <time>2021-05-22T09:36:01Z</time>
      </trkpt>
      <trkpt lat="42.5262210" lon="-8.6447880">
        <ele>69.9</ele>
        <time>2021-05-22T09:36:02Z</time>
      </trkpt>
      <trkpt lat="42.5262320" lon="-8.6447810">
        <ele>69.9</ele>
        <time>2021-05-22T09:36:03Z</time>
      </trkpt>
      <trkpt lat="42.5262460" lon="-8.6447740">
        <ele>69.9</ele>
        <time>2021-05-22T09:36:04Z</time>
      </trkpt>
      <trkpt lat="42.5262560" lon="-8.6447680">
        <ele>69.9</ele>
        <time>2021-05-22T09:36:05Z</time>
      </trkpt>
      <trkpt lat="42.5262660" lon="-8.6447690">
        <ele>70.0</ele>
        <time>2021-05-22T09:36:06Z</time>
      </trkpt>
      <trkpt lat="42.5262800" lon="-8.6447630">
        <ele>70.0</ele>
        <time>2021-05-22T09:36:07Z</time>
      </trkpt>
      <trkpt lat="42.5263020" lon="-8.6447570">
        <ele>70.0</ele>
        <time>2021-05-22T09:36:08Z</time>
      </trkpt>
      <trkpt lat="42.5263100" lon="-8.6447550">
        <ele>70.0</ele>
        <time>2021-05-22T09:36:09Z</time>
      </trkpt>
      <trkpt lat="42.5263190" lon="-8.6447520">
        <ele>70.0</ele>
        <time>2021-05-22T09:36:10Z</time>
      </trkpt>
      <trkpt lat="42.5263340" lon="-8.6447540">
        <ele>70.0</ele>
        <time>2021-05-22T09:36:11Z</time>
      </trkpt>
      <trkpt lat="42.5263390" lon="-8.6447520">
        <ele>70.0</ele>
        <time>2021-05-22T09:36:12Z</time>
      </trkpt>
      <trkpt lat="42.5263510" lon="-8.6447430">
        <ele>70.0</ele>
        <time>2021-05-22T09:36:13Z</time>
      </trkpt>
      <trkpt lat="42.5263620" lon="-8.6447380">
        <ele>70.0</ele>
        <time>2021-05-22T09:36:14Z</time>
      </trkpt>
      <trkpt lat="42.5263830" lon="-8.6447340">
        <ele>70.0</ele>
        <time>2021-05-22T09:36:15Z</time>
      </trkpt>
      <trkpt lat="42.5264010" lon="-8.6447270">
        <ele>70.0</ele>
        <time>2021-05-22T09:36:16Z</time>
      </trkpt>
      <trkpt lat="42.5264110" lon="-8.6447270">
        <ele>70.0</ele>
        <time>2021-05-22T09:36:17Z</time>
      </trkpt>
      <trkpt lat="42.5264200" lon="-8.6447260">
        <ele>69.9</ele>
        <time>2021-05-22T09:36:18Z</time>
      </trkpt>
      <trkpt lat="42.5264280" lon="-8.6447230">
        <ele>69.9</ele>
        <time>2021-05-22T09:36:19Z</time>
      </trkpt>
      <trkpt lat="42.5264390" lon="-8.6447230">
        <ele>69.9</ele>
        <time>2021-05-22T09:36:20Z</time>
      </trkpt>
      <trkpt lat="42.5264510" lon="-8.6447240">
        <ele>69.9</ele>
        <time>2021-05-22T09:36:21Z</time>
      </trkpt>
      <trkpt lat="42.5264630" lon="-8.6447250">
        <ele>69.8</ele>
        <time>2021-05-22T09:36:22Z</time>
      </trkpt>
      <trkpt lat="42.5264690" lon="-8.6447280">
        <ele>69.8</ele>
        <time>2021-05-22T09:36:23Z</time>
      </trkpt>
      <trkpt lat="42.5264750" lon="-8.6447300">
        <ele>69.8</ele>
        <time>2021-05-22T09:36:24Z</time>
      </trkpt>
      <trkpt lat="42.5264810" lon="-8.6447330">
        <ele>69.7</ele>
        <time>2021-05-22T09:36:25Z</time>
      </trkpt>
      <trkpt lat="42.5264870" lon="-8.6447350">
        <ele>69.7</ele>
        <time>2021-05-22T09:36:26Z</time>
      </trkpt>
      <trkpt lat="42.5264940" lon="-8.6447400">
        <ele>69.7</ele>
        <time>2021-05-22T09:36:27Z</time>
      </trkpt>
      <trkpt lat="42.5265000" lon="-8.6447470">
        <ele>69.6</ele>
        <time>2021-05-22T09:36:28Z</time>
      </trkpt>
      <trkpt lat="42.5265090" lon="-8.6447590">
        <ele>69.6</ele>
        <time>2021-05-22T09:36:29Z</time>
      </trkpt>
      <trkpt lat="42.5265080" lon="-8.6447660">
        <ele>69.5</ele>
        <time>2021-05-22T09:36:30Z</time>
      </trkpt>
      <trkpt lat="42.5265190" lon="-8.6447840">
        <ele>69.4</ele>
        <time>2021-05-22T09:36:31Z</time>
      </trkpt>
      <trkpt lat="42.5265260" lon="-8.6448000">
        <ele>69.4</ele>
        <time>2021-05-22T09:36:32Z</time>
      </trkpt>
      <trkpt lat="42.5265370" lon="-8.6448050">
        <ele>69.3</ele>
        <time>2021-05-22T09:36:33Z</time>
      </trkpt>
      <trkpt lat="42.5265400" lon="-8.6448160">
        <ele>69.2</ele>
        <time>2021-05-22T09:36:34Z</time>
      </trkpt>
      <trkpt lat="42.5265470" lon="-8.6448370">
        <ele>69.1</ele>
        <time>2021-05-22T09:36:35Z</time>
      </trkpt>
      <trkpt lat="42.5265490" lon="-8.6448480">
        <ele>69.0</ele>
        <time>2021-05-22T09:36:36Z</time>
      </trkpt>
      <trkpt lat="42.5265530" lon="-8.6448610">
        <ele>68.9</ele>
        <time>2021-05-22T09:36:37Z</time>
      </trkpt>
      <trkpt lat="42.5265590" lon="-8.6448800">
        <ele>68.8</ele>
        <time>2021-05-22T09:36:38Z</time>
      </trkpt>
      <trkpt lat="42.5265650" lon="-8.6449020">
        <ele>68.7</ele>
        <time>2021-05-22T09:36:39Z</time>
      </trkpt>
      <trkpt lat="42.5265700" lon="-8.6449160">
        <ele>68.6</ele>
        <time>2021-05-22T09:36:40Z</time>
      </trkpt>
      <trkpt lat="42.5265760" lon="-8.6449210">
        <ele>68.5</ele>
        <time>2021-05-22T09:36:41Z</time>
      </trkpt>
      <trkpt lat="42.5265800" lon="-8.6449330">
        <ele>68.4</ele>
        <time>2021-05-22T09:36:42Z</time>
      </trkpt>
      <trkpt lat="42.5265860" lon="-8.6449480">
        <ele>68.3</ele>
        <time>2021-05-22T09:36:43Z</time>
      </trkpt>
      <trkpt lat="42.5266000" lon="-8.6449640">
        <ele>68.1</ele>
        <time>2021-05-22T09:36:44Z</time>
      </trkpt>
      <trkpt lat="42.5266070" lon="-8.6449720">
        <ele>68.1</ele>
        <time>2021-05-22T09:36:45Z</time>
      </trkpt>
      <trkpt lat="42.5266150" lon="-8.6449790">
        <ele>68.0</ele>
        <time>2021-05-22T09:36:46Z</time>
      </trkpt>
      <trkpt lat="42.5266230" lon="-8.6449890">
        <ele>67.9</ele>
        <time>2021-05-22T09:36:47Z</time>
      </trkpt>
      <trkpt lat="42.5266350" lon="-8.6449930">
        <ele>67.8</ele>
        <time>2021-05-22T09:36:48Z</time>
      </trkpt>
      <trkpt lat="42.5266420" lon="-8.6449960">
        <ele>67.7</ele>
        <time>2021-05-22T09:36:49Z</time>
      </trkpt>
      <trkpt lat="42.5266550" lon="-8.6450030">
        <ele>67.6</ele>
        <time>2021-05-22T09:36:50Z</time>
      </trkpt>
      <trkpt lat="42.5266700" lon="-8.6450080">
        <ele>67.4</ele>
        <time>2021-05-22T09:36:51Z</time>
      </trkpt>
      <trkpt lat="42.5266820" lon="-8.6450100">
        <ele>67.3</ele>
        <time>2021-05-22T09:36:52Z</time>
      </trkpt>
      <trkpt lat="42.5266870" lon="-8.6450060">
        <ele>67.3</ele>
        <time>2021-05-22T09:36:53Z</time>
      </trkpt>
      <trkpt lat="42.5267020" lon="-8.6450040">
        <ele>67.2</ele>
        <time>2021-05-22T09:36:54Z</time>
      </trkpt>
      <trkpt lat="42.5267080" lon="-8.6450020">
        <ele>67.1</ele>
        <time>2021-05-22T09:36:55Z</time>
      </trkpt>
      <trkpt lat="42.5267170" lon="-8.6449980">
        <ele>67.0</ele>
        <time>2021-05-22T09:36:56Z</time>
      </trkpt>
      <trkpt lat="42.5267330" lon="-8.6450020">
        <ele>66.9</ele>
        <time>2021-05-22T09:36:57Z</time>
      </trkpt>
      <trkpt lat="42.5267460" lon="-8.6450020">
        <ele>66.8</ele>
        <time>2021-05-22T09:36:58Z</time>
      </trkpt>
      <trkpt lat="42.5267680" lon="-8.6450000">
        <ele>66.6</ele>
        <time>2021-05-22T09:36:59Z</time>
      </trkpt>
      <trkpt lat="42.5267820" lon="-8.6449970">
        <ele>66.5</ele>
        <time>2021-05-22T09:37:00Z</time>
      </trkpt>
      <trkpt lat="42.5267970" lon="-8.6449960">
        <ele>66.3</ele>
        <time>2021-05-22T09:37:01Z</time>
      </trkpt>
      <trkpt lat="42.5268150" lon="-8.6449860">
        <ele>66.2</ele>
        <time>2021-05-22T09:37:02Z</time>
      </trkpt>
      <trkpt lat="42.5268320" lon="-8.6449830">
        <ele>66.0</ele>
        <time>2021-05-22T09:37:03Z</time>
      </trkpt>
      <trkpt lat="42.5268490" lon="-8.6449850">
        <ele>65.9</ele>
        <time>2021-05-22T09:37:04Z</time>
      </trkpt>
      <trkpt lat="42.5268640" lon="-8.6449820">
        <ele>65.8</ele>
        <time>2021-05-22T09:37:05Z</time>
      </trkpt>
      <trkpt lat="42.5268790" lon="-8.6449750">
        <ele>65.6</ele>
        <time>2021-05-22T09:37:06Z</time>
      </trkpt>
      <trkpt lat="42.5268920" lon="-8.6449670">
        <ele>65.5</ele>
        <time>2021-05-22T09:37:07Z</time>
      </trkpt>
      <trkpt lat="42.5269060" lon="-8.6449670">
        <ele>65.4</ele>
        <time>2021-05-22T09:37:08Z</time>
      </trkpt>
      <trkpt lat="42.5269130" lon="-8.6449710">
        <ele>65.3</ele>
        <time>2021-05-22T09:37:09Z</time>
      </trkpt>
      <trkpt lat="42.5269210" lon="-8.6449660">
        <ele>65.2</ele>
        <time>2021-05-22T09:37:10Z</time>
      </trkpt>
      <trkpt lat="42.5269370" lon="-8.6449630">
        <ele>65.1</ele>
        <time>2021-05-22T09:37:11Z</time>
      </trkpt>
      <trkpt lat="42.5269480" lon="-8.6449670">
        <ele>65.0</ele>
        <time>2021-05-22T09:37:12Z</time>
      </trkpt>
      <trkpt lat="42.5269680" lon="-8.6449660">
        <ele>64.9</ele>
        <time>2021-05-22T09:37:13Z</time>
      </trkpt>
      <trkpt lat="42.5269740" lon="-8.6449660">
        <ele>64.8</ele>
        <time>2021-05-22T09:37:14Z</time>
      </trkpt>
      <trkpt lat="42.5269790" lon="-8.6449670">
        <ele>64.8</ele>
        <time>2021-05-22T09:37:15Z</time>
      </trkpt>
      <trkpt lat="42.5269850" lon="-8.6449680">
        <ele>64.7</ele>
        <time>2021-05-22T09:37:16Z</time>
      </trkpt>
      <trkpt lat="42.5269970" lon="-8.6449620">
        <ele>64.6</ele>
        <time>2021-05-22T09:37:17Z</time>
      </trkpt>
      <trkpt lat="42.5270130" lon="-8.6449490">
        <ele>64.5</ele>
        <time>2021-05-22T09:37:18Z</time>
      </trkpt>
      <trkpt lat="42.5270360" lon="-8.6449560">
        <ele>64.3</ele>
        <time>2021-05-22T09:37:19Z</time>
      </trkpt>
      <trkpt lat="42.5270450" lon="-8.6449580">
        <ele>64.2</ele>
        <time>2021-05-22T09:37:20Z</time>
      </trkpt>
      <trkpt lat="42.5270540" lon="-8.6449610">
        <ele>64.1</ele>
        <time>2021-05-22T09:37:21Z</time>
      </trkpt>
      <trkpt lat="42.5270620" lon="-8.6449640">
        <ele>64.0</ele>
        <time>2021-05-22T09:37:22Z</time>
      </trkpt>
      <trkpt lat="42.5270780" lon="-8.6449660">
        <ele>63.9</ele>
        <time>2021-05-22T09:37:23Z</time>
      </trkpt>
      <trkpt lat="42.5270830" lon="-8.6449660">
        <ele>63.8</ele>
        <time>2021-05-22T09:37:24Z</time>
      </trkpt>
      <trkpt lat="42.5270990" lon="-8.6449720">
        <ele>63.7</ele>
        <time>2021-05-22T09:37:25Z</time>
      </trkpt>
      <trkpt lat="42.5271100" lon="-8.6449730">
        <ele>63.6</ele>
        <time>2021-05-22T09:37:26Z</time>
      </trkpt>
      <trkpt lat="42.5271300" lon="-8.6449750">
        <ele>63.4</ele>
        <time>2021-05-22T09:37:27Z</time>
      </trkpt>
      <trkpt lat="42.5271410" lon="-8.6449750">
        <ele>63.3</ele>
        <time>2021-05-22T09:37:28Z</time>
      </trkpt>
      <trkpt lat="42.5271510" lon="-8.6449760">
        <ele>63.2</ele>
        <time>2021-05-22T09:37:29Z</time>
      </trkpt>
      <trkpt lat="42.5271660" lon="-8.6449810">
        <ele>63.1</ele>
        <time>2021-05-22T09:37:30Z</time>
      </trkpt>
      <trkpt lat="42.5271820" lon="-8.6449840">
        <ele>63.0</ele>
        <time>2021-05-22T09:37:31Z</time>
      </trkpt>
      <trkpt lat="42.5271970" lon="-8.6449870">
        <ele>62.8</ele>
        <time>2021-05-22T09:37:32Z</time>
      </trkpt>
      <trkpt lat="42.5272040" lon="-8.6449880">
        <ele>62.8</ele>
        <time>2021-05-22T09:37:33Z</time>
      </trkpt>
      <trkpt lat="42.5272150" lon="-8.6449860">
        <ele>62.7</ele>
        <time>2021-05-22T09:37:34Z</time>
      </trkpt>
      <trkpt lat="42.5272280" lon="-8.6449820">
        <ele>62.6</ele>
        <time>2021-05-22T09:37:35Z</time>
      </trkpt>
      <trkpt lat="42.5272360" lon="-8.6449850">
        <ele>62.5</ele>
        <time>2021-05-22T09:37:36Z</time>
      </trkpt>
      <trkpt lat="42.5272470" lon="-8.6449870">
        <ele>62.4</ele>
        <time>2021-05-22T09:37:37Z</time>
      </trkpt>
      <trkpt lat="42.5272650" lon="-8.6449870">
        <ele>62.2</ele>
        <time>2021-05-22T09:37:38Z</time>
      </trkpt>
      <trkpt lat="42.5272820" lon="-8.6449840">
        <ele>62.1</ele>
        <time>2021-05-22T09:37:39Z</time>
      </trkpt>
      <trkpt lat="42.5272950" lon="-8.6449860">
        <ele>62.0</ele>
        <time>2021-05-22T09:37:40Z</time>
      </trkpt>
      <trkpt lat="42.5273080" lon="-8.6449930">
        <ele>61.9</ele>
        <time>2021-05-22T09:37:41Z</time>
      </trkpt>
      <trkpt lat="42.5273180" lon="-8.6449940">
        <ele>61.8</ele>
        <time>2021-05-22T09:37:42Z</time>
      </trkpt>
      <trkpt lat="42.5273420" lon="-8.6449980">
        <ele>61.6</ele>
        <time>2021-05-22T09:37:43Z</time>
      </trkpt>
      <trkpt lat="42.5273510" lon="-8.6450020">
        <ele>61.5</ele>
        <time>2021-05-22T09:37:44Z</time>
      </trkpt>
      <trkpt lat="42.5273610" lon="-8.6450050">
        <ele>61.4</ele>
        <time>2021-05-22T09:37:45Z</time>
      </trkpt>
      <trkpt lat="42.5273760" lon="-8.6450060">
        <ele>61.3</ele>
        <time>2021-05-22T09:37:46Z</time>
      </trkpt>
      <trkpt lat="42.5273870" lon="-8.6450100">
        <ele>61.2</ele>
        <time>2021-05-22T09:37:47Z</time>
      </trkpt>
      <trkpt lat="42.5273910" lon="-8.6450180">
        <ele>61.2</ele>
        <time>2021-05-22T09:37:48Z</time>
      </trkpt>
      <trkpt lat="42.5274060" lon="-8.6450210">
        <ele>61.1</ele>
        <time>2021-05-22T09:37:49Z</time>
      </trkpt>
      <trkpt lat="42.5274190" lon="-8.6450210">
        <ele>61.0</ele>
        <time>2021-05-22T09:37:50Z</time>
      </trkpt>
      <trkpt lat="42.5274410" lon="-8.6450230">
        <ele>60.8</ele>
        <time>2021-05-22T09:37:51Z</time>
      </trkpt>
      <trkpt lat="42.5274500" lon="-8.6450220">
        <ele>60.7</ele>
        <time>2021-05-22T09:37:52Z</time>
      </trkpt>
      <trkpt lat="42.5274600" lon="-8.6450210">
        <ele>60.7</ele>
        <time>2021-05-22T09:37:53Z</time>
      </trkpt>
      <trkpt lat="42.5274700" lon="-8.6450280">
        <ele>60.6</ele>
        <time>2021-05-22T09:37:54Z</time>
      </trkpt>
      <trkpt lat="42.5274810" lon="-8.6450290">
        <ele>60.5</ele>
        <time>2021-05-22T09:37:55Z</time>
      </trkpt>
      <trkpt lat="42.5274920" lon="-8.6450340">
        <ele>60.4</ele>
        <time>2021-05-22T09:37:56Z</time>
      </trkpt>
      <trkpt lat="42.5275150" lon="-8.6450390">
        <ele>60.3</ele>
        <time>2021-05-22T09:37:57Z</time>
      </trkpt>
      <trkpt lat="42.5275250" lon="-8.6450420">
        <ele>60.2</ele>
        <time>2021-05-22T09:37:58Z</time>
      </trkpt>
      <trkpt lat="42.5275400" lon="-8.6450460">
        <ele>60.1</ele>
        <time>2021-05-22T09:37:59Z</time>
      </trkpt>
      <trkpt lat="42.5275570" lon="-8.6450510">
        <ele>60.0</ele>
        <time>2021-05-22T09:38:00Z</time>
      </trkpt>
      <trkpt lat="42.5275690" lon="-8.6450520">
        <ele>59.9</ele>
        <time>2021-05-22T09:38:01Z</time>
      </trkpt>
      <trkpt lat="42.5275830" lon="-8.6450600">
        <ele>59.8</ele>
        <time>2021-05-22T09:38:02Z</time>
      </trkpt>
      <trkpt lat="42.5275960" lon="-8.6450690">
        <ele>59.7</ele>
        <time>2021-05-22T09:38:03Z</time>
      </trkpt>
      <trkpt lat="42.5276060" lon="-8.6450730">
        <ele>59.7</ele>
        <time>2021-05-22T09:38:04Z</time>
      </trkpt>
      <trkpt lat="42.5276160" lon="-8.6450770">
        <ele>59.6</ele>
        <time>2021-05-22T09:38:05Z</time>
      </trkpt>
      <trkpt lat="42.5276260" lon="-8.6450810">
        <ele>59.5</ele>
        <time>2021-05-22T09:38:06Z</time>
      </trkpt>
      <trkpt lat="42.5276410" lon="-8.6450880">
        <ele>59.4</ele>
        <time>2021-05-22T09:38:07Z</time>
      </trkpt>
      <trkpt lat="42.5276500" lon="-8.6450930">
        <ele>59.4</ele>
        <time>2021-05-22T09:38:08Z</time>
      </trkpt>
      <trkpt lat="42.5276600" lon="-8.6450990">
        <ele>59.3</ele>
        <time>2021-05-22T09:38:09Z</time>
      </trkpt>
      <trkpt lat="42.5276710" lon="-8.6451010">
        <ele>59.3</ele>
        <time>2021-05-22T09:38:10Z</time>
      </trkpt>
      <trkpt lat="42.5276830" lon="-8.6451050">
        <ele>59.2</ele>
        <time>2021-05-22T09:38:11Z</time>
      </trkpt>
      <trkpt lat="42.5276920" lon="-8.6451080">
        <ele>59.1</ele>
        <time>2021-05-22T09:38:12Z</time>
      </trkpt>
      <trkpt lat="42.5277220" lon="-8.6451160">
        <ele>58.9</ele>
        <time>2021-05-22T09:38:13Z</time>
      </trkpt>
      <trkpt lat="42.5277320" lon="-8.6451170">
        <ele>58.9</ele>
        <time>2021-05-22T09:38:14Z</time>
      </trkpt>
      <trkpt lat="42.5277420" lon="-8.6451270">
        <ele>58.8</ele>
        <time>2021-05-22T09:38:15Z</time>
      </trkpt>
      <trkpt lat="42.5277550" lon="-8.6451240">
        <ele>58.7</ele>
        <time>2021-05-22T09:38:16Z</time>
      </trkpt>
      <trkpt lat="42.5277760" lon="-8.6451330">
        <ele>58.6</ele>
        <time>2021-05-22T09:38:18Z</time>
      </trkpt>
      <trkpt lat="42.5277830" lon="-8.6451400">
        <ele>58.6</ele>
        <time>2021-05-22T09:38:19Z</time>
      </trkpt>
      <trkpt lat="42.5277980" lon="-8.6451430">
        <ele>58.5</ele>
        <time>2021-05-22T09:38:20Z</time>
      </trkpt>
      <trkpt lat="42.5278070" lon="-8.6451510">
        <ele>58.4</ele>
        <time>2021-05-22T09:38:21Z</time>
      </trkpt>
      <trkpt lat="42.5278270" lon="-8.6451620">
        <ele>58.3</ele>
        <time>2021-05-22T09:38:22Z</time>
      </trkpt>
      <trkpt lat="42.5278420" lon="-8.6451620">
        <ele>58.3</ele>
        <time>2021-05-22T09:38:23Z</time>
      </trkpt>
      <trkpt lat="42.5278480" lon="-8.6451620">
        <ele>58.2</ele>
        <time>2021-05-22T09:38:24Z</time>
      </trkpt>
      <trkpt lat="42.5278610" lon="-8.6451640">
        <ele>58.2</ele>
        <time>2021-05-22T09:38:25Z</time>
      </trkpt>
      <trkpt lat="42.5278770" lon="-8.6451680">
        <ele>58.1</ele>
        <time>2021-05-22T09:38:26Z</time>
      </trkpt>
      <trkpt lat="42.5278890" lon="-8.6451710">
        <ele>58.0</ele>
        <time>2021-05-22T09:38:27Z</time>
      </trkpt>
      <trkpt lat="42.5279060" lon="-8.6451740">
        <ele>57.9</ele>
        <time>2021-05-22T09:38:28Z</time>
      </trkpt>
      <trkpt lat="42.5279240" lon="-8.6451770">
        <ele>57.9</ele>
        <time>2021-05-22T09:38:29Z</time>
      </trkpt>
      <trkpt lat="42.5279430" lon="-8.6451810">
        <ele>57.8</ele>
        <time>2021-05-22T09:38:30Z</time>
      </trkpt>
      <trkpt lat="42.5279460" lon="-8.6451830">
        <ele>57.8</ele>
        <time>2021-05-22T09:38:31Z</time>
      </trkpt>
      <trkpt lat="42.5279520" lon="-8.6451840">
        <ele>57.7</ele>
        <time>2021-05-22T09:38:32Z</time>
      </trkpt>
      <trkpt lat="42.5279660" lon="-8.6451820">
        <ele>57.7</ele>
        <time>2021-05-22T09:38:33Z</time>
      </trkpt>
      <trkpt lat="42.5279830" lon="-8.6451840">
        <ele>57.6</ele>
        <time>2021-05-22T09:38:34Z</time>
      </trkpt>
      <trkpt lat="42.5280040" lon="-8.6451830">
        <ele>57.5</ele>
        <time>2021-05-22T09:38:35Z</time>
      </trkpt>
      <trkpt lat="42.5280130" lon="-8.6451860">
        <ele>57.5</ele>
        <time>2021-05-22T09:38:36Z</time>
      </trkpt>
      <trkpt lat="42.5280250" lon="-8.6451900">
        <ele>57.5</ele>
        <time>2021-05-22T09:38:37Z</time>
      </trkpt>
      <trkpt lat="42.5280400" lon="-8.6451870">
        <ele>57.4</ele>
        <time>2021-05-22T09:38:38Z</time>
      </trkpt>
      <trkpt lat="42.5280480" lon="-8.6451910">
        <ele>57.4</ele>
        <time>2021-05-22T09:38:39Z</time>
      </trkpt>
      <trkpt lat="42.5280610" lon="-8.6451910">
        <ele>57.3</ele>
        <time>2021-05-22T09:38:40Z</time>
      </trkpt>
      <trkpt lat="42.5280680" lon="-8.6451990">
        <ele>57.3</ele>
        <time>2021-05-22T09:38:41Z</time>
      </trkpt>
      <trkpt lat="42.5280820" lon="-8.6451980">
        <ele>57.2</ele>
        <time>2021-05-22T09:38:42Z</time>
      </trkpt>
      <trkpt lat="42.5281010" lon="-8.6451990">
        <ele>57.1</ele>
        <time>2021-05-22T09:38:43Z</time>
      </trkpt>
      <trkpt lat="42.5281120" lon="-8.6451940">
        <ele>57.1</ele>
        <time>2021-05-22T09:38:44Z</time>
      </trkpt>
      <trkpt lat="42.5281330" lon="-8.6452040">
        <ele>57.0</ele>
        <time>2021-05-22T09:38:45Z</time>
      </trkpt>
      <trkpt lat="42.5281410" lon="-8.6452060">
        <ele>57.0</ele>
        <time>2021-05-22T09:38:46Z</time>
      </trkpt>
      <trkpt lat="42.5281480" lon="-8.6452090">
        <ele>57.0</ele>
        <time>2021-05-22T09:38:47Z</time>
      </trkpt>
      <trkpt lat="42.5281610" lon="-8.6452130">
        <ele>56.9</ele>
        <time>2021-05-22T09:38:48Z</time>
      </trkpt>
      <trkpt lat="42.5281830" lon="-8.6452090">
        <ele>56.8</ele>
        <time>2021-05-22T09:38:49Z</time>
      </trkpt>
      <trkpt lat="42.5281960" lon="-8.6452150">
        <ele>56.8</ele>
        <time>2021-05-22T09:38:50Z</time>
      </trkpt>
      <trkpt lat="42.5282120" lon="-8.6452130">
        <ele>56.7</ele>
        <time>2021-05-22T09:38:51Z</time>
      </trkpt>
      <trkpt lat="42.5282390" lon="-8.6452150">
        <ele>56.6</ele>
        <time>2021-05-22T09:38:52Z</time>
      </trkpt>
      <trkpt lat="42.5282490" lon="-8.6452140">
        <ele>56.6</ele>
        <time>2021-05-22T09:38:53Z</time>
      </trkpt>
      <trkpt lat="42.5282590" lon="-8.6452140">
        <ele>56.5</ele>
        <time>2021-05-22T09:38:54Z</time>
      </trkpt>
      <trkpt lat="42.5282700" lon="-8.6452290">
        <ele>56.5</ele>
        <time>2021-05-22T09:38:55Z</time>
      </trkpt>
      <trkpt lat="42.5282820" lon="-8.6452350">
        <ele>56.5</ele>
        <time>2021-05-22T09:38:56Z</time>
      </trkpt>
      <trkpt lat="42.5282930" lon="-8.6452400">
        <ele>56.4</ele>
        <time>2021-05-22T09:38:57Z</time>
      </trkpt>
      <trkpt lat="42.5283230" lon="-8.6452540">
        <ele>56.3</ele>
        <time>2021-05-22T09:38:58Z</time>
      </trkpt>
      <trkpt lat="42.5283300" lon="-8.6452630">
        <ele>56.3</ele>
        <time>2021-05-22T09:38:59Z</time>
      </trkpt>
      <trkpt lat="42.5283450" lon="-8.6452720">
        <ele>56.2</ele>
        <time>2021-05-22T09:39:00Z</time>
      </trkpt>
      <trkpt lat="42.5283600" lon="-8.6452850">
        <ele>56.2</ele>
        <time>2021-05-22T09:39:01Z</time>
      </trkpt>
      <trkpt lat="42.5283730" lon="-8.6453080">
        <ele>56.1</ele>
        <time>2021-05-22T09:39:02Z</time>
      </trkpt>
      <trkpt lat="42.5283800" lon="-8.6453120">
        <ele>56.1</ele>
        <time>2021-05-22T09:39:03Z</time>
      </trkpt>
      <trkpt lat="42.5283880" lon="-8.6453150">
        <ele>56.1</ele>
        <time>2021-05-22T09:39:04Z</time>
      </trkpt>
      <trkpt lat="42.5283970" lon="-8.6453280">
        <ele>56.0</ele>
        <time>2021-05-22T09:39:05Z</time>
      </trkpt>
      <trkpt lat="42.5283990" lon="-8.6453470">
        <ele>56.0</ele>
        <time>2021-05-22T09:39:06Z</time>
      </trkpt>
      <trkpt lat="42.5284070" lon="-8.6453560">
        <ele>55.9</ele>
        <time>2021-05-22T09:39:07Z</time>
      </trkpt>
      <trkpt lat="42.5284130" lon="-8.6453640">
        <ele>55.9</ele>
        <time>2021-05-22T09:39:08Z</time>
      </trkpt>
      <trkpt lat="42.5284180" lon="-8.6453790">
        <ele>55.9</ele>
        <time>2021-05-22T09:39:09Z</time>
      </trkpt>
      <trkpt lat="42.5284270" lon="-8.6453830">
        <ele>55.8</ele>
        <time>2021-05-22T09:39:10Z</time>
      </trkpt>
      <trkpt lat="42.5284400" lon="-8.6454130">
        <ele>55.8</ele>
        <time>2021-05-22T09:39:11Z</time>
      </trkpt>
      <trkpt lat="42.5284460" lon="-8.6454210">
        <ele>55.8</ele>
        <time>2021-05-22T09:39:12Z</time>
      </trkpt>
      <trkpt lat="42.5284510" lon="-8.6454300">
        <ele>55.7</ele>
        <time>2021-05-22T09:39:13Z</time>
      </trkpt>
      <trkpt lat="42.5284540" lon="-8.6454550">
        <ele>55.7</ele>
        <time>2021-05-22T09:39:14Z</time>
      </trkpt>
      <trkpt lat="42.5284540" lon="-8.6454740">
        <ele>55.6</ele>
        <time>2021-05-22T09:39:15Z</time>
      </trkpt>
      <trkpt lat="42.5284560" lon="-8.6455020">
        <ele>55.6</ele>
        <time>2021-05-22T09:39:16Z</time>
      </trkpt>
      <trkpt lat="42.5284580" lon="-8.6455160">
        <ele>55.5</ele>
        <time>2021-05-22T09:39:17Z</time>
      </trkpt>
      <trkpt lat="42.5284610" lon="-8.6455290">
        <ele>55.5</ele>
        <time>2021-05-22T09:39:18Z</time>
      </trkpt>
      <trkpt lat="42.5284680" lon="-8.6455580">
        <ele>55.4</ele>
        <time>2021-05-22T09:39:19Z</time>
      </trkpt>
      <trkpt lat="42.5284690" lon="-8.6455680">
        <ele>55.4</ele>
        <time>2021-05-22T09:39:20Z</time>
      </trkpt>
      <trkpt lat="42.5284700" lon="-8.6455790">
        <ele>55.4</ele>
        <time>2021-05-22T09:39:21Z</time>
      </trkpt>
      <trkpt lat="42.5284710" lon="-8.6455930">
        <ele>55.4</ele>
        <time>2021-05-22T09:39:22Z</time>
      </trkpt>
      <trkpt lat="42.5284680" lon="-8.6456100">
        <ele>55.4</ele>
        <time>2021-05-22T09:39:23Z</time>
      </trkpt>
      <trkpt lat="42.5284710" lon="-8.6456260">
        <ele>55.3</ele>
        <time>2021-05-22T09:39:24Z</time>
      </trkpt>
      <trkpt lat="42.5284750" lon="-8.6456440">
        <ele>55.3</ele>
        <time>2021-05-22T09:39:25Z</time>
      </trkpt>
      <trkpt lat="42.5284770" lon="-8.6456620">
        <ele>55.3</ele>
        <time>2021-05-22T09:39:26Z</time>
      </trkpt>
      <trkpt lat="42.5284780" lon="-8.6456820">
        <ele>55.2</ele>
        <time>2021-05-22T09:39:27Z</time>
      </trkpt>
      <trkpt lat="42.5284780" lon="-8.6457010">
        <ele>55.2</ele>
        <time>2021-05-22T09:39:28Z</time>
      </trkpt>
      <trkpt lat="42.5284860" lon="-8.6457170">
        <ele>55.2</ele>
        <time>2021-05-22T09:39:29Z</time>
      </trkpt>
      <trkpt lat="42.5284860" lon="-8.6457290">
        <ele>55.1</ele>
        <time>2021-05-22T09:39:30Z</time>
      </trkpt>
      <trkpt lat="42.5284860" lon="-8.6457440">
        <ele>55.1</ele>
        <time>2021-05-22T09:39:31Z</time>
      </trkpt>
      <trkpt lat="42.5284880" lon="-8.6457570">
        <ele>55.1</ele>
        <time>2021-05-22T09:39:32Z</time>
      </trkpt>
      <trkpt lat="42.5284920" lon="-8.6457760">
        <ele>55.1</ele>
        <time>2021-05-22T09:39:33Z</time>
      </trkpt>
      <trkpt lat="42.5284950" lon="-8.6457840">
        <ele>55.1</ele>
        <time>2021-05-22T09:39:34Z</time>
      </trkpt>
      <trkpt lat="42.5284980" lon="-8.6458080">
        <ele>55.0</ele>
        <time>2021-05-22T09:39:35Z</time>
      </trkpt>
      <trkpt lat="42.5284970" lon="-8.6458250">
        <ele>55.0</ele>
        <time>2021-05-22T09:39:36Z</time>
      </trkpt>
      <trkpt lat="42.5284970" lon="-8.6458480">
        <ele>55.0</ele>
        <time>2021-05-22T09:39:37Z</time>
      </trkpt>
      <trkpt lat="42.5284960" lon="-8.6458700">
        <ele>54.9</ele>
        <time>2021-05-22T09:39:38Z</time>
      </trkpt>
      <trkpt lat="42.5284920" lon="-8.6458810">
        <ele>54.9</ele>
        <time>2021-05-22T09:39:39Z</time>
      </trkpt>
      <trkpt lat="42.5284950" lon="-8.6458950">
        <ele>54.9</ele>
        <time>2021-05-22T09:39:40Z</time>
      </trkpt>
      <trkpt lat="42.5284990" lon="-8.6459190">
        <ele>54.9</ele>
        <time>2021-05-22T09:39:41Z</time>
      </trkpt>
      <trkpt lat="42.5285030" lon="-8.6459460">
        <ele>54.8</ele>
        <time>2021-05-22T09:39:42Z</time>
      </trkpt>
      <trkpt lat="42.5285030" lon="-8.6459590">
        <ele>54.8</ele>
        <time>2021-05-22T09:39:43Z</time>
      </trkpt>
      <trkpt lat="42.5285040" lon="-8.6459730">
        <ele>54.8</ele>
        <time>2021-05-22T09:39:44Z</time>
      </trkpt>
      <trkpt lat="42.5285010" lon="-8.6459940">
        <ele>54.7</ele>
        <time>2021-05-22T09:39:45Z</time>
      </trkpt>
      <trkpt lat="42.5285010" lon="-8.6460050">
        <ele>54.7</ele>
        <time>2021-05-22T09:39:46Z</time>
      </trkpt>
      <trkpt lat="42.5285020" lon="-8.6460200">
        <ele>54.7</ele>
        <time>2021-05-22T09:39:47Z</time>
      </trkpt>
      <trkpt lat="42.5285040" lon="-8.6460460">
        <ele>54.7</ele>
        <time>2021-05-22T09:39:48Z</time>
      </trkpt>
      <trkpt lat="42.5285130" lon="-8.6460560">
        <ele>54.7</ele>
        <time>2021-05-22T09:39:49Z</time>
      </trkpt>
      <trkpt lat="42.5285170" lon="-8.6460790">
        <ele>54.6</ele>
        <time>2021-05-22T09:39:50Z</time>
      </trkpt>
      <trkpt lat="42.5285210" lon="-8.6460960">
        <ele>54.6</ele>
        <time>2021-05-22T09:39:51Z</time>
      </trkpt>
      <trkpt lat="42.5285220" lon="-8.6461090">
        <ele>54.6</ele>
        <time>2021-05-22T09:39:52Z</time>
      </trkpt>
      <trkpt lat="42.5285250" lon="-8.6461240">
        <ele>54.6</ele>
        <time>2021-05-22T09:39:53Z</time>
      </trkpt>
      <trkpt lat="42.5285300" lon="-8.6461350">
        <ele>54.5</ele>
        <time>2021-05-22T09:39:54Z</time>
      </trkpt>
      <trkpt lat="42.5285310" lon="-8.6461520">
        <ele>54.5</ele>
        <time>2021-05-22T09:39:55Z</time>
      </trkpt>
      <trkpt lat="42.5285340" lon="-8.6461630">
        <ele>54.5</ele>
        <time>2021-05-22T09:39:56Z</time>
      </trkpt>
      <trkpt lat="42.5285400" lon="-8.6461780">
        <ele>54.5</ele>
        <time>2021-05-22T09:39:57Z</time>
      </trkpt>
      <trkpt lat="42.5285550" lon="-8.6462050">
        <ele>54.4</ele>
        <time>2021-05-22T09:39:59Z</time>
      </trkpt>
      <trkpt lat="42.5285580" lon="-8.6462140">
        <ele>54.4</ele>
        <time>2021-05-22T09:40:00Z</time>
      </trkpt>
      <trkpt lat="42.5285620" lon="-8.6462230">
        <ele>54.4</ele>
        <time>2021-05-22T09:40:01Z</time>
      </trkpt>
      <trkpt lat="42.5285760" lon="-8.6462430">
        <ele>54.4</ele>
        <time>2021-05-22T09:40:02Z</time>
      </trkpt>
      <trkpt lat="42.5285870" lon="-8.6462520">
        <ele>54.4</ele>
        <time>2021-05-22T09:40:03Z</time>
      </trkpt>
      <trkpt lat="42.5286060" lon="-8.6462650">
        <ele>54.3</ele>
        <time>2021-05-22T09:40:04Z</time>
      </trkpt>
      <trkpt lat="42.5286130" lon="-8.6462710">
        <ele>54.3</ele>
        <time>2021-05-22T09:40:05Z</time>
      </trkpt>
      <trkpt lat="42.5286200" lon="-8.6462770">
        <ele>54.3</ele>
        <time>2021-05-22T09:40:06Z</time>
      </trkpt>
      <trkpt lat="42.5286400" lon="-8.6462840">
        <ele>54.3</ele>
        <time>2021-05-22T09:40:07Z</time>
      </trkpt>
      <trkpt lat="42.5286490" lon="-8.6462860">
        <ele>54.2</ele>
        <time>2021-05-22T09:40:08Z</time>
      </trkpt>
      <trkpt lat="42.5286570" lon="-8.6462880">
        <ele>54.2</ele>
        <time>2021-05-22T09:40:09Z</time>
      </trkpt>
      <trkpt lat="42.5286790" lon="-8.6462970">
        <ele>54.2</ele>
        <time>2021-05-22T09:40:10Z</time>
      </trkpt>
      <trkpt lat="42.5286870" lon="-8.6463000">
        <ele>54.2</ele>
        <time>2021-05-22T09:40:11Z</time>
      </trkpt>
      <trkpt lat="42.5286960" lon="-8.6463030">
        <ele>54.2</ele>
        <time>2021-05-22T09:40:12Z</time>
      </trkpt>
      <trkpt lat="42.5287020" lon="-8.6463100">
        <ele>54.1</ele>
        <time>2021-05-22T09:40:13Z</time>
      </trkpt>
      <trkpt lat="42.5287130" lon="-8.6463170">
        <ele>54.1</ele>
        <time>2021-05-22T09:40:14Z</time>
      </trkpt>
      <trkpt lat="42.5287230" lon="-8.6463270">
        <ele>54.1</ele>
        <time>2021-05-22T09:40:15Z</time>
      </trkpt>
      <trkpt lat="42.5287430" lon="-8.6463350">
        <ele>54.1</ele>
        <time>2021-05-22T09:40:16Z</time>
      </trkpt>
      <trkpt lat="42.5287510" lon="-8.6463400">
        <ele>54.1</ele>
        <time>2021-05-22T09:40:17Z</time>
      </trkpt>
      <trkpt lat="42.5287580" lon="-8.6463440">
        <ele>54.0</ele>
        <time>2021-05-22T09:40:18Z</time>
      </trkpt>
      <trkpt lat="42.5287810" lon="-8.6463590">
        <ele>54.0</ele>
        <time>2021-05-22T09:40:19Z</time>
      </trkpt>
      <trkpt lat="42.5287900" lon="-8.6463660">
        <ele>54.0</ele>
        <time>2021-05-22T09:40:20Z</time>
      </trkpt>
      <trkpt lat="42.5287990" lon="-8.6463730">
        <ele>54.0</ele>
        <time>2021-05-22T09:40:21Z</time>
      </trkpt>
      <trkpt lat="42.5288040" lon="-8.6463800">
        <ele>54.0</ele>
        <time>2021-05-22T09:40:22Z</time>
      </trkpt>
      <trkpt lat="42.5288140" lon="-8.6463820">
        <ele>53.9</ele>
        <time>2021-05-22T09:40:23Z</time>
      </trkpt>
      <trkpt lat="42.5288230" lon="-8.6463930">
        <ele>53.9</ele>
        <time>2021-05-22T09:40:24Z</time>
      </trkpt>
      <trkpt lat="42.5288370" lon="-8.6463980">
        <ele>53.9</ele>
        <time>2021-05-22T09:40:25Z</time>
      </trkpt>
      <trkpt lat="42.5288570" lon="-8.6464050">
        <ele>53.9</ele>
        <time>2021-05-22T09:40:26Z</time>
      </trkpt>
      <trkpt lat="42.5288760" lon="-8.6464220">
        <ele>53.8</ele>
        <time>2021-05-22T09:40:27Z</time>
      </trkpt>
      <trkpt lat="42.5288840" lon="-8.6464230">
        <ele>53.8</ele>
        <time>2021-05-22T09:40:28Z</time>
      </trkpt>
      <trkpt lat="42.5288920" lon="-8.6464240">
        <ele>53.8</ele>
        <time>2021-05-22T09:40:29Z</time>
      </trkpt>
      <trkpt lat="42.5289140" lon="-8.6464270">
        <ele>53.8</ele>
        <time>2021-05-22T09:40:30Z</time>
      </trkpt>
      <trkpt lat="42.5289280" lon="-8.6464250">
        <ele>53.7</ele>
        <time>2021-05-22T09:40:31Z</time>
      </trkpt>
      <trkpt lat="42.5289340" lon="-8.6464350">
        <ele>53.7</ele>
        <time>2021-05-22T09:40:32Z</time>
      </trkpt>
      <trkpt lat="42.5289530" lon="-8.6464400">
        <ele>53.7</ele>
        <time>2021-05-22T09:40:33Z</time>
      </trkpt>
      <trkpt lat="42.5289600" lon="-8.6464380">
        <ele>53.7</ele>
        <time>2021-05-22T09:40:34Z</time>
      </trkpt>
      <trkpt lat="42.5289760" lon="-8.6464400">
        <ele>53.6</ele>
        <time>2021-05-22T09:40:35Z</time>
      </trkpt>
      <trkpt lat="42.5289910" lon="-8.6464470">
        <ele>53.6</ele>
        <time>2021-05-22T09:40:36Z</time>
      </trkpt>
      <trkpt lat="42.5290080" lon="-8.6464510">
        <ele>53.6</ele>
        <time>2021-05-22T09:40:37Z</time>
      </trkpt>
      <trkpt lat="42.5290200" lon="-8.6464480">
        <ele>53.6</ele>
        <time>2021-05-22T09:40:38Z</time>
      </trkpt>
      <trkpt lat="42.5290370" lon="-8.6464550">
        <ele>53.5</ele>
        <time>2021-05-22T09:40:39Z</time>
      </trkpt>
      <trkpt lat="42.5290480" lon="-8.6464600">
        <ele>53.5</ele>
        <time>2021-05-22T09:40:40Z</time>
      </trkpt>
      <trkpt lat="42.5290580" lon="-8.6464650">
        <ele>53.5</ele>
        <time>2021-05-22T09:40:41Z</time>
      </trkpt>
      <trkpt lat="42.5290710" lon="-8.6464670">
        <ele>53.5</ele>
        <time>2021-05-22T09:40:42Z</time>
      </trkpt>
      <trkpt lat="42.5290810" lon="-8.6464760">
        <ele>53.5</ele>
        <time>2021-05-22T09:40:43Z</time>
      </trkpt>
      <trkpt lat="42.5290910" lon="-8.6464720">
        <ele>53.4</ele>
        <time>2021-05-22T09:40:44Z</time>
      </trkpt>
      <trkpt lat="42.5291090" lon="-8.6464740">
        <ele>53.4</ele>
        <time>2021-05-22T09:40:45Z</time>
      </trkpt>
      <trkpt lat="42.5291240" lon="-8.6464750">
        <ele>53.4</ele>
        <time>2021-05-22T09:40:46Z</time>
      </trkpt>
      <trkpt lat="42.5291290" lon="-8.6464800">
        <ele>53.4</ele>
        <time>2021-05-22T09:40:47Z</time>
      </trkpt>
      <trkpt lat="42.5291390" lon="-8.6464900">
        <ele>53.4</ele>
        <time>2021-05-22T09:40:48Z</time>
      </trkpt>
      <trkpt lat="42.5291470" lon="-8.6464940">
        <ele>53.3</ele>
        <time>2021-05-22T09:40:49Z</time>
      </trkpt>
      <trkpt lat="42.5291550" lon="-8.6464970">
        <ele>53.3</ele>
        <time>2021-05-22T09:40:50Z</time>
      </trkpt>
      <trkpt lat="42.5291660" lon="-8.6465030">
        <ele>53.3</ele>
        <time>2021-05-22T09:40:51Z</time>
      </trkpt>
      <trkpt lat="42.5291770" lon="-8.6465150">
        <ele>53.3</ele>
        <time>2021-05-22T09:40:52Z</time>
      </trkpt>
      <trkpt lat="42.5292070" lon="-8.6465240">
        <ele>53.2</ele>
        <time>2021-05-22T09:40:53Z</time>
      </trkpt>
      <trkpt lat="42.5292150" lon="-8.6465280">
        <ele>53.2</ele>
        <time>2021-05-22T09:40:54Z</time>
      </trkpt>
      <trkpt lat="42.5292280" lon="-8.6465310">
        <ele>53.2</ele>
        <time>2021-05-22T09:40:55Z</time>
      </trkpt>
      <trkpt lat="42.5292440" lon="-8.6465340">
        <ele>53.2</ele>
        <time>2021-05-22T09:40:56Z</time>
      </trkpt>
      <trkpt lat="42.5292710" lon="-8.6465460">
        <ele>53.1</ele>
        <time>2021-05-22T09:40:57Z</time>
      </trkpt>
      <trkpt lat="42.5292790" lon="-8.6465510">
        <ele>53.1</ele>
        <time>2021-05-22T09:40:58Z</time>
      </trkpt>
      <trkpt lat="42.5293010" lon="-8.6465580">
        <ele>53.1</ele>
        <time>2021-05-22T09:40:59Z</time>
      </trkpt>
      <trkpt lat="42.5293120" lon="-8.6465620">
        <ele>53.1</ele>
        <time>2021-05-22T09:41:00Z</time>
      </trkpt>
      <trkpt lat="42.5293220" lon="-8.6465670">
        <ele>53.0</ele>
        <time>2021-05-22T09:41:01Z</time>
      </trkpt>
      <trkpt lat="42.5293280" lon="-8.6465600">
        <ele>53.0</ele>
        <time>2021-05-22T09:41:02Z</time>
      </trkpt>
      <trkpt lat="42.5293460" lon="-8.6465570">
        <ele>53.0</ele>
        <time>2021-05-22T09:41:03Z</time>
      </trkpt>
      <trkpt lat="42.5293540" lon="-8.6465600">
        <ele>53.0</ele>
        <time>2021-05-22T09:41:04Z</time>
      </trkpt>
      <trkpt lat="42.5293750" lon="-8.6465650">
        <ele>53.0</ele>
        <time>2021-05-22T09:41:05Z</time>
      </trkpt>
      <trkpt lat="42.5293840" lon="-8.6465660">
        <ele>52.9</ele>
        <time>2021-05-22T09:41:06Z</time>
      </trkpt>
      <trkpt lat="42.5293920" lon="-8.6465680">
        <ele>52.9</ele>
        <time>2021-05-22T09:41:07Z</time>
      </trkpt>
      <trkpt lat="42.5294130" lon="-8.6465790">
        <ele>52.9</ele>
        <time>2021-05-22T09:41:08Z</time>
      </trkpt>
      <trkpt lat="42.5294220" lon="-8.6465830">
        <ele>52.9</ele>
        <time>2021-05-22T09:41:09Z</time>
      </trkpt>
      <trkpt lat="42.5294320" lon="-8.6465870">
        <ele>52.9</ele>
        <time>2021-05-22T09:41:10Z</time>
      </trkpt>
      <trkpt lat="42.5294440" lon="-8.6465920">
        <ele>52.8</ele>
        <time>2021-05-22T09:41:11Z</time>
      </trkpt>
      <trkpt lat="42.5294580" lon="-8.6465950">
        <ele>52.8</ele>
        <time>2021-05-22T09:41:12Z</time>
      </trkpt>
      <trkpt lat="42.5294650" lon="-8.6465960">
        <ele>52.8</ele>
        <time>2021-05-22T09:41:13Z</time>
      </trkpt>
      <trkpt lat="42.5294790" lon="-8.6465950">
        <ele>52.8</ele>
        <time>2021-05-22T09:41:14Z</time>
      </trkpt>
      <trkpt lat="42.5294980" lon="-8.6465930">
        <ele>52.7</ele>
        <time>2021-05-22T09:41:15Z</time>
      </trkpt>
      <trkpt lat="42.5295140" lon="-8.6465940">
        <ele>52.7</ele>
        <time>2021-05-22T09:41:16Z</time>
      </trkpt>
      <trkpt lat="42.5295290" lon="-8.6465990">
        <ele>52.7</ele>
        <time>2021-05-22T09:41:17Z</time>
      </trkpt>
      <trkpt lat="42.5295500" lon="-8.6466060">
        <ele>52.6</ele>
        <time>2021-05-22T09:41:18Z</time>
      </trkpt>
      <trkpt lat="42.5295590" lon="-8.6466080">
        <ele>52.6</ele>
        <time>2021-05-22T09:41:19Z</time>
      </trkpt>
      <trkpt lat="42.5295690" lon="-8.6466100">
        <ele>52.6</ele>
        <time>2021-05-22T09:41:20Z</time>
      </trkpt>
      <trkpt lat="42.5295840" lon="-8.6466130">
        <ele>52.6</ele>
        <time>2021-05-22T09:41:21Z</time>
      </trkpt>
      <trkpt lat="42.5296000" lon="-8.6466160">
        <ele>52.6</ele>
        <time>2021-05-22T09:41:22Z</time>
      </trkpt>
      <trkpt lat="42.5296140" lon="-8.6466110">
        <ele>52.5</ele>
        <time>2021-05-22T09:41:23Z</time>
      </trkpt>
      <trkpt lat="42.5296280" lon="-8.6466090">
        <ele>52.5</ele>
        <time>2021-05-22T09:41:24Z</time>
      </trkpt>
      <trkpt lat="42.5296390" lon="-8.6466040">
        <ele>52.5</ele>
        <time>2021-05-22T09:41:25Z</time>
      </trkpt>
      <trkpt lat="42.5296640" lon="-8.6466090">
        <ele>52.4</ele>
        <time>2021-05-22T09:41:26Z</time>
      </trkpt>
      <trkpt lat="42.5296770" lon="-8.6466090">
        <ele>52.4</ele>
        <time>2021-05-22T09:41:27Z</time>
      </trkpt>
      <trkpt lat="42.5296910" lon="-8.6466080">
        <ele>52.4</ele>
        <time>2021-05-22T09:41:28Z</time>
      </trkpt>
      <trkpt lat="42.5296960" lon="-8.6466100">
        <ele>52.4</ele>
        <time>2021-05-22T09:41:29Z</time>
      </trkpt>
      <trkpt lat="42.5297130" lon="-8.6466110">
        <ele>52.4</ele>
        <time>2021-05-22T09:41:30Z</time>
      </trkpt>
      <trkpt lat="42.5297290" lon="-8.6466110">
        <ele>52.3</ele>
        <time>2021-05-22T09:41:31Z</time>
      </trkpt>
      <trkpt lat="42.5297550" lon="-8.6466110">
        <ele>52.3</ele>
        <time>2021-05-22T09:41:32Z</time>
      </trkpt>
      <trkpt lat="42.5297620" lon="-8.6466100">
        <ele>52.3</ele>
        <time>2021-05-22T09:41:33Z</time>
      </trkpt>
      <trkpt lat="42.5297680" lon="-8.6466100">
        <ele>52.3</ele>
        <time>2021-05-22T09:41:34Z</time>
      </trkpt>
      <trkpt lat="42.5297880" lon="-8.6466110">
        <ele>52.3</ele>
        <time>2021-05-22T09:41:35Z</time>
      </trkpt>
      <trkpt lat="42.5297980" lon="-8.6466110">
        <ele>52.2</ele>
        <time>2021-05-22T09:41:36Z</time>
      </trkpt>
      <trkpt lat="42.5298070" lon="-8.6466120">
        <ele>52.2</ele>
        <time>2021-05-22T09:41:37Z</time>
      </trkpt>
      <trkpt lat="42.5298270" lon="-8.6466070">
        <ele>52.2</ele>
        <time>2021-05-22T09:41:38Z</time>
      </trkpt>
      <trkpt lat="42.5298350" lon="-8.6466060">
        <ele>52.2</ele>
        <time>2021-05-22T09:41:39Z</time>
      </trkpt>
      <trkpt lat="42.5298440" lon="-8.6466040">
        <ele>52.2</ele>
        <time>2021-05-22T09:41:40Z</time>
      </trkpt>
      <trkpt lat="42.5298520" lon="-8.6465990">
        <ele>52.2</ele>
        <time>2021-05-22T09:41:41Z</time>
      </trkpt>
      <trkpt lat="42.5298620" lon="-8.6465970">
        <ele>52.1</ele>
        <time>2021-05-22T09:41:42Z</time>
      </trkpt>
      <trkpt lat="42.5298760" lon="-8.6465980">
        <ele>52.1</ele>
        <time>2021-05-22T09:41:43Z</time>
      </trkpt>
      <trkpt lat="42.5298930" lon="-8.6465950">
        <ele>52.1</ele>
        <time>2021-05-22T09:41:44Z</time>
      </trkpt>
      <trkpt lat="42.5299060" lon="-8.6466000">
        <ele>52.1</ele>
        <time>2021-05-22T09:41:45Z</time>
      </trkpt>
      <trkpt lat="42.5299230" lon="-8.6465990">
        <ele>52.0</ele>
        <time>2021-05-22T09:41:47Z</time>
      </trkpt>
      <trkpt lat="42.5299380" lon="-8.6465990">
        <ele>52.0</ele>
        <time>2021-05-22T09:41:48Z</time>
      </trkpt>
      <trkpt lat="42.5299530" lon="-8.6466050">
        <ele>52.0</ele>
        <time>2021-05-22T09:41:49Z</time>
      </trkpt>
      <trkpt lat="42.5299670" lon="-8.6466050">
        <ele>52.0</ele>
        <time>2021-05-22T09:41:50Z</time>
      </trkpt>
      <trkpt lat="42.5299730" lon="-8.6466030">
        <ele>51.9</ele>
        <time>2021-05-22T09:41:51Z</time>
      </trkpt>
      <trkpt lat="42.5299950" lon="-8.6466040">
        <ele>51.9</ele>
        <time>2021-05-22T09:41:52Z</time>
      </trkpt>
      <trkpt lat="42.5300110" lon="-8.6466090">
        <ele>51.9</ele>
        <time>2021-05-22T09:41:53Z</time>
      </trkpt>
      <trkpt lat="42.5300260" lon="-8.6466130">
        <ele>51.9</ele>
        <time>2021-05-22T09:41:54Z</time>
      </trkpt>
      <trkpt lat="42.5300340" lon="-8.6466180">
        <ele>51.8</ele>
        <time>2021-05-22T09:41:55Z</time>
      </trkpt>
      <trkpt lat="42.5300400" lon="-8.6466200">
        <ele>51.8</ele>
        <time>2021-05-22T09:41:56Z</time>
      </trkpt>
      <trkpt lat="42.5300550" lon="-8.6466200">
        <ele>51.8</ele>
        <time>2021-05-22T09:41:57Z</time>
      </trkpt>
      <trkpt lat="42.5300770" lon="-8.6466250">
        <ele>51.8</ele>
        <time>2021-05-22T09:41:58Z</time>
      </trkpt>
      <trkpt lat="42.5300850" lon="-8.6466280">
        <ele>51.7</ele>
        <time>2021-05-22T09:41:59Z</time>
      </trkpt>
      <trkpt lat="42.5300930" lon="-8.6466310">
        <ele>51.7</ele>
        <time>2021-05-22T09:42:00Z</time>
      </trkpt>
      <trkpt lat="42.5301110" lon="-8.6466350">
        <ele>51.7</ele>
        <time>2021-05-22T09:42:01Z</time>
      </trkpt>
      <trkpt lat="42.5301220" lon="-8.6466390">
        <ele>51.7</ele>
        <time>2021-05-22T09:42:02Z</time>
      </trkpt>
      <trkpt lat="42.5301330" lon="-8.6466430">
        <ele>51.7</ele>
        <time>2021-05-22T09:42:03Z</time>
      </trkpt>
      <trkpt lat="42.5301410" lon="-8.6466450">
        <ele>51.7</ele>
        <time>2021-05-22T09:42:04Z</time>
      </trkpt>
      <trkpt lat="42.5301550" lon="-8.6466510">
        <ele>51.7</ele>
        <time>2021-05-22T09:42:05Z</time>
      </trkpt>
      <trkpt lat="42.5301650" lon="-8.6466520">
        <ele>51.7</ele>
        <time>2021-05-22T09:42:06Z</time>
      </trkpt>
      <trkpt lat="42.5301750" lon="-8.6466580">
        <ele>51.7</ele>
        <time>2021-05-22T09:42:07Z</time>
      </trkpt>
      <trkpt lat="42.5301880" lon="-8.6466630">
        <ele>51.7</ele>
        <time>2021-05-22T09:42:08Z</time>
      </trkpt>
      <trkpt lat="42.5301940" lon="-8.6466640">
        <ele>51.7</ele>
        <time>2021-05-22T09:42:09Z</time>
      </trkpt>
      <trkpt lat="42.5302080" lon="-8.6466710">
        <ele>51.6</ele>
        <time>2021-05-22T09:42:10Z</time>
      </trkpt>
      <trkpt lat="42.5302280" lon="-8.6466770">
        <ele>51.6</ele>
        <time>2021-05-22T09:42:11Z</time>
      </trkpt>
      <trkpt lat="42.5302390" lon="-8.6466820">
        <ele>51.6</ele>
        <time>2021-05-22T09:42:12Z</time>
      </trkpt>
      <trkpt lat="42.5302580" lon="-8.6466860">
        <ele>51.6</ele>
        <time>2021-05-22T09:42:13Z</time>
      </trkpt>
      <trkpt lat="42.5302770" lon="-8.6466750">
        <ele>51.6</ele>
        <time>2021-05-22T09:42:14Z</time>
      </trkpt>
      <trkpt lat="42.5302840" lon="-8.6466730">
        <ele>51.6</ele>
        <time>2021-05-22T09:42:15Z</time>
      </trkpt>
      <trkpt lat="42.5302920" lon="-8.6466710">
        <ele>51.6</ele>
        <time>2021-05-22T09:42:16Z</time>
      </trkpt>
      <trkpt lat="42.5303020" lon="-8.6466740">
        <ele>51.6</ele>
        <time>2021-05-22T09:42:17Z</time>
      </trkpt>
      <trkpt lat="42.5303140" lon="-8.6466740">
        <ele>51.5</ele>
        <time>2021-05-22T09:42:18Z</time>
      </trkpt>
      <trkpt lat="42.5303240" lon="-8.6466880">
        <ele>51.5</ele>
        <time>2021-05-22T09:42:19Z</time>
      </trkpt>
      <trkpt lat="42.5303320" lon="-8.6466800">
        <ele>51.5</ele>
        <time>2021-05-22T09:42:20Z</time>
      </trkpt>
      <trkpt lat="42.5303440" lon="-8.6466790">
        <ele>51.5</ele>
        <time>2021-05-22T09:42:21Z</time>
      </trkpt>
      <trkpt lat="42.5303550" lon="-8.6466790">
        <ele>51.5</ele>
        <time>2021-05-22T09:42:22Z</time>
      </trkpt>
      <trkpt lat="42.5303670" lon="-8.6466780">
        <ele>51.4</ele>
        <time>2021-05-22T09:42:23Z</time>
      </trkpt>
      <trkpt lat="42.5303850" lon="-8.6466800">
        <ele>51.4</ele>
        <time>2021-05-22T09:42:24Z</time>
      </trkpt>
      <trkpt lat="42.5303990" lon="-8.6466840">
        <ele>51.4</ele>
        <time>2021-05-22T09:42:25Z</time>
      </trkpt>
      <trkpt lat="42.5304140" lon="-8.6466840">
        <ele>51.3</ele>
        <time>2021-05-22T09:42:26Z</time>
      </trkpt>
      <trkpt lat="42.5304290" lon="-8.6466880">
        <ele>51.3</ele>
        <time>2021-05-22T09:42:27Z</time>
      </trkpt>
      <trkpt lat="42.5304450" lon="-8.6466930">
        <ele>51.3</ele>
        <time>2021-05-22T09:42:28Z</time>
      </trkpt>
      <trkpt lat="42.5304600" lon="-8.6466910">
        <ele>51.3</ele>
        <time>2021-05-22T09:42:29Z</time>
      </trkpt>
      <trkpt lat="42.5304760" lon="-8.6466890">
        <ele>51.2</ele>
        <time>2021-05-22T09:42:30Z</time>
      </trkpt>
      <trkpt lat="42.5304900" lon="-8.6466860">
        <ele>51.2</ele>
        <time>2021-05-22T09:42:31Z</time>
      </trkpt>
      <trkpt lat="42.5305060" lon="-8.6466790">
        <ele>51.2</ele>
        <time>2021-05-22T09:42:32Z</time>
      </trkpt>
      <trkpt lat="42.5305190" lon="-8.6466840">
        <ele>51.1</ele>
        <time>2021-05-22T09:42:33Z</time>
      </trkpt>
      <trkpt lat="42.5305240" lon="-8.6466840">
        <ele>51.1</ele>
        <time>2021-05-22T09:42:34Z</time>
      </trkpt>
      <trkpt lat="42.5305280" lon="-8.6466820">
        <ele>51.1</ele>
        <time>2021-05-22T09:42:35Z</time>
      </trkpt>
      <trkpt lat="42.5305320" lon="-8.6466790">
        <ele>51.1</ele>
        <time>2021-05-22T09:42:36Z</time>
      </trkpt>
      <trkpt lat="42.5305470" lon="-8.6466770">
        <ele>51.1</ele>
        <time>2021-05-22T09:42:37Z</time>
      </trkpt>
      <trkpt lat="42.5305600" lon="-8.6466750">
        <ele>51.0</ele>
        <time>2021-05-22T09:42:38Z</time>
      </trkpt>
      <trkpt lat="42.5305700" lon="-8.6466750">
        <ele>51.0</ele>
        <time>2021-05-22T09:42:39Z</time>
      </trkpt>
      <trkpt lat="42.5305750" lon="-8.6466750">
        <ele>51.0</ele>
        <time>2021-05-22T09:42:40Z</time>
      </trkpt>
      <trkpt lat="42.5305850" lon="-8.6466740">
        <ele>51.0</ele>
        <time>2021-05-22T09:42:41Z</time>
      </trkpt>
      <trkpt lat="42.5305930" lon="-8.6466710">
        <ele>51.0</ele>
        <time>2021-05-22T09:42:42Z</time>
      </trkpt>
      <trkpt lat="42.5306040" lon="-8.6466700">
        <ele>50.9</ele>
        <time>2021-05-22T09:42:43Z</time>
      </trkpt>
      <trkpt lat="42.5306170" lon="-8.6466630">
        <ele>50.9</ele>
        <time>2021-05-22T09:42:44Z</time>
      </trkpt>
      <trkpt lat="42.5306240" lon="-8.6466620">
        <ele>50.9</ele>
        <time>2021-05-22T09:42:45Z</time>
      </trkpt>
      <trkpt lat="42.5306370" lon="-8.6466620">
        <ele>50.9</ele>
        <time>2021-05-22T09:42:46Z</time>
      </trkpt>
      <trkpt lat="42.5306450" lon="-8.6466550">
        <ele>50.8</ele>
        <time>2021-05-22T09:42:47Z</time>
      </trkpt>
      <trkpt lat="42.5306540" lon="-8.6466460">
        <ele>50.8</ele>
        <time>2021-05-22T09:42:48Z</time>
      </trkpt>
      <trkpt lat="42.5306670" lon="-8.6466410">
        <ele>50.8</ele>
        <time>2021-05-22T09:42:49Z</time>
      </trkpt>
      <trkpt lat="42.5306780" lon="-8.6466380">
        <ele>50.8</ele>
        <time>2021-05-22T09:42:50Z</time>
      </trkpt>
      <trkpt lat="42.5306870" lon="-8.6466340">
        <ele>50.7</ele>
        <time>2021-05-22T09:42:51Z</time>
      </trkpt>
      <trkpt lat="42.5306970" lon="-8.6466270">
        <ele>50.7</ele>
        <time>2021-05-22T09:42:52Z</time>
      </trkpt>
      <trkpt lat="42.5307170" lon="-8.6466190">
        <ele>50.7</ele>
        <time>2021-05-22T09:42:53Z</time>
      </trkpt>
      <trkpt lat="42.5307260" lon="-8.6466140">
        <ele>50.6</ele>
        <time>2021-05-22T09:42:54Z</time>
      </trkpt>
      <trkpt lat="42.5307340" lon="-8.6466100">
        <ele>50.6</ele>
        <time>2021-05-22T09:42:55Z</time>
      </trkpt>
      <trkpt lat="42.5307420" lon="-8.6466050">
        <ele>50.6</ele>
        <time>2021-05-22T09:42:56Z</time>
      </trkpt>
      <trkpt lat="42.5307530" lon="-8.6466050">
        <ele>50.6</ele>
        <time>2021-05-22T09:42:57Z</time>
      </trkpt>
      <trkpt lat="42.5307670" lon="-8.6465990">
        <ele>50.5</ele>
        <time>2021-05-22T09:42:58Z</time>
      </trkpt>
      <trkpt lat="42.5307800" lon="-8.6465960">
        <ele>50.5</ele>
        <time>2021-05-22T09:42:59Z</time>
      </trkpt>
      <trkpt lat="42.5307910" lon="-8.6465900">
        <ele>50.5</ele>
        <time>2021-05-22T09:43:00Z</time>
      </trkpt>
      <trkpt lat="42.5308020" lon="-8.6465870">
        <ele>50.4</ele>
        <time>2021-05-22T09:43:01Z</time>
      </trkpt>
      <trkpt lat="42.5308210" lon="-8.6465780">
        <ele>50.4</ele>
        <time>2021-05-22T09:43:02Z</time>
      </trkpt>
      <trkpt lat="42.5308300" lon="-8.6465740">
        <ele>50.4</ele>
        <time>2021-05-22T09:43:03Z</time>
      </trkpt>
      <trkpt lat="42.5308380" lon="-8.6465710">
        <ele>50.3</ele>
        <time>2021-05-22T09:43:04Z</time>
      </trkpt>
      <trkpt lat="42.5308580" lon="-8.6465630">
        <ele>50.3</ele>
        <time>2021-05-22T09:43:05Z</time>
      </trkpt>
      <trkpt lat="42.5308670" lon="-8.6465590">
        <ele>50.2</ele>
        <time>2021-05-22T09:43:06Z</time>
      </trkpt>
      <trkpt lat="42.5308760" lon="-8.6465560">
        <ele>50.2</ele>
        <time>2021-05-22T09:43:07Z</time>
      </trkpt>
      <trkpt lat="42.5308860" lon="-8.6465520">
        <ele>50.2</ele>
        <time>2021-05-22T09:43:08Z</time>
      </trkpt>
      <trkpt lat="42.5308950" lon="-8.6465470">
        <ele>50.2</ele>
        <time>2021-05-22T09:43:09Z</time>
      </trkpt>
      <trkpt lat="42.5309030" lon="-8.6465430">
        <ele>50.1</ele>
        <time>2021-05-22T09:43:10Z</time>
      </trkpt>
      <trkpt lat="42.5309140" lon="-8.6465360">
        <ele>50.1</ele>
        <time>2021-05-22T09:43:11Z</time>
      </trkpt>
      <trkpt lat="42.5309200" lon="-8.6465280">
        <ele>50.1</ele>
        <time>2021-05-22T09:43:12Z</time>
      </trkpt>
      <trkpt lat="42.5309300" lon="-8.6465270">
        <ele>50.0</ele>
        <time>2021-05-22T09:43:13Z</time>
      </trkpt>
      <trkpt lat="42.5309350" lon="-8.6465250">
        <ele>50.0</ele>
        <time>2021-05-22T09:43:14Z</time>
      </trkpt>
      <trkpt lat="42.5309520" lon="-8.6465170">
        <ele>50.0</ele>
        <time>2021-05-22T09:43:15Z</time>
      </trkpt>
      <trkpt lat="42.5309600" lon="-8.6465130">
        <ele>49.9</ele>
        <time>2021-05-22T09:43:16Z</time>
      </trkpt>
      <trkpt lat="42.5309750" lon="-8.6465090">
        <ele>49.9</ele>
        <time>2021-05-22T09:43:17Z</time>
      </trkpt>
      <trkpt lat="42.5309800" lon="-8.6465080">
        <ele>49.9</ele>
        <time>2021-05-22T09:43:18Z</time>
      </trkpt>
      <trkpt lat="42.5309890" lon="-8.6465000">
        <ele>49.8</ele>
        <time>2021-05-22T09:43:19Z</time>
      </trkpt>
      <trkpt lat="42.5309950" lon="-8.6464970">
        <ele>49.8</ele>
        <time>2021-05-22T09:43:20Z</time>
      </trkpt>
      <trkpt lat="42.5310100" lon="-8.6464930">
        <ele>49.7</ele>
        <time>2021-05-22T09:43:21Z</time>
      </trkpt>
      <trkpt lat="42.5310210" lon="-8.6464940">
        <ele>49.7</ele>
        <time>2021-05-22T09:43:22Z</time>
      </trkpt>
      <trkpt lat="42.5310310" lon="-8.6464880">
        <ele>49.7</ele>
        <time>2021-05-22T09:43:23Z</time>
      </trkpt>
      <trkpt lat="42.5310410" lon="-8.6464850">
        <ele>49.6</ele>
        <time>2021-05-22T09:43:24Z</time>
      </trkpt>
      <trkpt lat="42.5310480" lon="-8.6464830">
        <ele>49.6</ele>
        <time>2021-05-22T09:43:25Z</time>
      </trkpt>
      <trkpt lat="42.5310580" lon="-8.6464800">
        <ele>49.6</ele>
        <time>2021-05-22T09:43:26Z</time>
      </trkpt>
      <trkpt lat="42.5310640" lon="-8.6464750">
        <ele>49.5</ele>
        <time>2021-05-22T09:43:27Z</time>
      </trkpt>
      <trkpt lat="42.5310780" lon="-8.6464730">
        <ele>49.5</ele>
        <time>2021-05-22T09:43:28Z</time>
      </trkpt>
      <trkpt lat="42.5310930" lon="-8.6464670">
        <ele>49.4</ele>
        <time>2021-05-22T09:43:29Z</time>
      </trkpt>
      <trkpt lat="42.5311060" lon="-8.6464630">
        <ele>49.4</ele>
        <time>2021-05-22T09:43:30Z</time>
      </trkpt>
      <trkpt lat="42.5311160" lon="-8.6464550">
        <ele>49.3</ele>
        <time>2021-05-22T09:43:31Z</time>
      </trkpt>
      <trkpt lat="42.5311280" lon="-8.6464510">
        <ele>49.3</ele>
        <time>2021-05-22T09:43:32Z</time>
      </trkpt>
      <trkpt lat="42.5311400" lon="-8.6464470">
        <ele>49.3</ele>
        <time>2021-05-22T09:43:33Z</time>
      </trkpt>
      <trkpt lat="42.5311510" lon="-8.6464380">
        <ele>49.2</ele>
        <time>2021-05-22T09:43:34Z</time>
      </trkpt>
      <trkpt lat="42.5311630" lon="-8.6464350">
        <ele>49.2</ele>
        <time>2021-05-22T09:43:35Z</time>
      </trkpt>
      <trkpt lat="42.5311740" lon="-8.6464340">
        <ele>49.1</ele>
        <time>2021-05-22T09:43:36Z</time>
      </trkpt>
      <trkpt lat="42.5311850" lon="-8.6464320">
        <ele>49.1</ele>
        <time>2021-05-22T09:43:37Z</time>
      </trkpt>
      <trkpt lat="42.5311940" lon="-8.6464270">
        <ele>49.0</ele>
        <time>2021-05-22T09:43:39Z</time>
      </trkpt>
      <trkpt lat="42.5312050" lon="-8.6464220">
        <ele>49.0</ele>
        <time>2021-05-22T09:43:40Z</time>
      </trkpt>
      <trkpt lat="42.5312140" lon="-8.6464180">
        <ele>49.0</ele>
        <time>2021-05-22T09:43:41Z</time>
      </trkpt>
      <trkpt lat="42.5312220" lon="-8.6464170">
        <ele>48.9</ele>
        <time>2021-05-22T09:43:42Z</time>
      </trkpt>
      <trkpt lat="42.5312400" lon="-8.6464160">
        <ele>48.9</ele>
        <time>2021-05-22T09:43:43Z</time>
      </trkpt>
      <trkpt lat="42.5312470" lon="-8.6464130">
        <ele>48.8</ele>
        <time>2021-05-22T09:43:44Z</time>
      </trkpt>
      <trkpt lat="42.5312570" lon="-8.6464080">
        <ele>48.8</ele>
        <time>2021-05-22T09:43:45Z</time>
      </trkpt>
      <trkpt lat="42.5312670" lon="-8.6464030">
        <ele>48.8</ele>
        <time>2021-05-22T09:43:46Z</time>
      </trkpt>
      <trkpt lat="42.5312810" lon="-8.6464030">
        <ele>48.7</ele>
        <time>2021-05-22T09:43:47Z</time>
      </trkpt>
      <trkpt lat="42.5312890" lon="-8.6464010">
        <ele>48.7</ele>
        <time>2021-05-22T09:43:48Z</time>
      </trkpt>
      <trkpt lat="42.5312970" lon="-8.6463980">
        <ele>48.7</ele>
        <time>2021-05-22T09:43:49Z</time>
      </trkpt>
      <trkpt lat="42.5313050" lon="-8.6463960">
        <ele>48.6</ele>
        <time>2021-05-22T09:43:50Z</time>
      </trkpt>
      <trkpt lat="42.5313110" lon="-8.6463880">
        <ele>48.6</ele>
        <time>2021-05-22T09:43:51Z</time>
      </trkpt>
      <trkpt lat="42.5313160" lon="-8.6463840">
        <ele>48.6</ele>
        <time>2021-05-22T09:43:52Z</time>
      </trkpt>
      <trkpt lat="42.5313190" lon="-8.6463810">
        <ele>48.6</ele>
        <time>2021-05-22T09:43:53Z</time>
      </trkpt>
      <trkpt lat="42.5313240" lon="-8.6463790">
        <ele>48.5</ele>
        <time>2021-05-22T09:43:54Z</time>
      </trkpt>
      <trkpt lat="42.5313300" lon="-8.6463810">
        <ele>48.5</ele>
        <time>2021-05-22T09:43:55Z</time>
      </trkpt>
      <trkpt lat="42.5313380" lon="-8.6463780">
        <ele>48.5</ele>
        <time>2021-05-22T09:43:56Z</time>
      </trkpt>
      <trkpt lat="42.5313500" lon="-8.6463730">
        <ele>48.5</ele>
        <time>2021-05-22T09:43:57Z</time>
      </trkpt>
      <trkpt lat="42.5313560" lon="-8.6463710">
        <ele>48.4</ele>
        <time>2021-05-22T09:43:58Z</time>
      </trkpt>
      <trkpt lat="42.5313680" lon="-8.6463660">
        <ele>48.4</ele>
        <time>2021-05-22T09:43:59Z</time>
      </trkpt>
      <trkpt lat="42.5313770" lon="-8.6463570">
        <ele>48.4</ele>
        <time>2021-05-22T09:44:00Z</time>
      </trkpt>
      <trkpt lat="42.5313880" lon="-8.6463520">
        <ele>48.3</ele>
        <time>2021-05-22T09:44:01Z</time>
      </trkpt>
      <trkpt lat="42.5314000" lon="-8.6463500">
        <ele>48.3</ele>
        <time>2021-05-22T09:44:02Z</time>
      </trkpt>
      <trkpt lat="42.5314120" lon="-8.6463490">
        <ele>48.3</ele>
        <time>2021-05-22T09:44:03Z</time>
      </trkpt>
      <trkpt lat="42.5314210" lon="-8.6463380">
        <ele>48.2</ele>
        <time>2021-05-22T09:44:04Z</time>
      </trkpt>
      <trkpt lat="42.5314330" lon="-8.6463320">
        <ele>48.2</ele>
        <time>2021-05-22T09:44:05Z</time>
      </trkpt>
      <trkpt lat="42.5314460" lon="-8.6463260">
        <ele>48.2</ele>
        <time>2021-05-22T09:44:06Z</time>
      </trkpt>
      <trkpt lat="42.5314550" lon="-8.6463260">
        <ele>48.1</ele>
        <time>2021-05-22T09:44:07Z</time>
      </trkpt>
      <trkpt lat="42.5314620" lon="-8.6463210">
        <ele>48.1</ele>
        <time>2021-05-22T09:44:08Z</time>
      </trkpt>
      <trkpt lat="42.5314740" lon="-8.6463200">
        <ele>48.1</ele>
        <time>2021-05-22T09:44:09Z</time>
      </trkpt>
      <trkpt lat="42.5314850" lon="-8.6463110">
        <ele>48.1</ele>
        <time>2021-05-22T09:44:10Z</time>
      </trkpt>
      <trkpt lat="42.5315030" lon="-8.6463090">
        <ele>48.0</ele>
        <time>2021-05-22T09:44:11Z</time>
      </trkpt>
      <trkpt lat="42.5315130" lon="-8.6463090">
        <ele>48.0</ele>
        <time>2021-05-22T09:44:12Z</time>
      </trkpt>
      <trkpt lat="42.5315220" lon="-8.6463080">
        <ele>48.0</ele>
        <time>2021-05-22T09:44:13Z</time>
      </trkpt>
      <trkpt lat="42.5315370" lon="-8.6463000">
        <ele>47.9</ele>
        <time>2021-05-22T09:44:14Z</time>
      </trkpt>
      <trkpt lat="42.5315450" lon="-8.6462990">
        <ele>47.9</ele>
        <time>2021-05-22T09:44:15Z</time>
      </trkpt>
      <trkpt lat="42.5315520" lon="-8.6462970">
        <ele>47.9</ele>
        <time>2021-05-22T09:44:16Z</time>
      </trkpt>
      <trkpt lat="42.5315590" lon="-8.6462950">
        <ele>47.9</ele>
        <time>2021-05-22T09:44:17Z</time>
      </trkpt>
      <trkpt lat="42.5315820" lon="-8.6462910">
        <ele>47.8</ele>
        <time>2021-05-22T09:44:18Z</time>
      </trkpt>
      <trkpt lat="42.5315910" lon="-8.6462900">
        <ele>47.8</ele>
        <time>2021-05-22T09:44:19Z</time>
      </trkpt>
      <trkpt lat="42.5315990" lon="-8.6462890">
        <ele>47.8</ele>
        <time>2021-05-22T09:44:20Z</time>
      </trkpt>
      <trkpt lat="42.5316090" lon="-8.6462890">
        <ele>47.8</ele>
        <time>2021-05-22T09:44:21Z</time>
      </trkpt>
      <trkpt lat="42.5316200" lon="-8.6462850">
        <ele>47.8</ele>
        <time>2021-05-22T09:44:22Z</time>
      </trkpt>
      <trkpt lat="42.5316340" lon="-8.6462810">
        <ele>47.8</ele>
        <time>2021-05-22T09:44:23Z</time>
      </trkpt>
      <trkpt lat="42.5316410" lon="-8.6462820">
        <ele>47.7</ele>
        <time>2021-05-22T09:44:24Z</time>
      </trkpt>
      <trkpt lat="42.5316490" lon="-8.6462820">
        <ele>47.7</ele>
        <time>2021-05-22T09:44:25Z</time>
      </trkpt>
      <trkpt lat="42.5316560" lon="-8.6462780">
        <ele>47.7</ele>
        <time>2021-05-22T09:44:26Z</time>
      </trkpt>
      <trkpt lat="42.5316660" lon="-8.6462720">
        <ele>47.7</ele>
        <time>2021-05-22T09:44:27Z</time>
      </trkpt>
      <trkpt lat="42.5316790" lon="-8.6462680">
        <ele>47.7</ele>
        <time>2021-05-22T09:44:28Z</time>
      </trkpt>
      <trkpt lat="42.5316870" lon="-8.6462670">
        <ele>47.7</ele>
        <time>2021-05-22T09:44:29Z</time>
      </trkpt>
      <trkpt lat="42.5316960" lon="-8.6462660">
        <ele>47.7</ele>
        <time>2021-05-22T09:44:30Z</time>
      </trkpt>
      <trkpt lat="42.5317060" lon="-8.6462670">
        <ele>47.6</ele>
        <time>2021-05-22T09:44:31Z</time>
      </trkpt>
      <trkpt lat="42.5317170" lon="-8.6462670">
        <ele>47.6</ele>
        <time>2021-05-22T09:44:32Z</time>
      </trkpt>
      <trkpt lat="42.5317300" lon="-8.6462680">
        <ele>47.6</ele>
        <time>2021-05-22T09:44:33Z</time>
      </trkpt>
      <trkpt lat="42.5317420" lon="-8.6462680">
        <ele>47.6</ele>
        <time>2021-05-22T09:44:34Z</time>
      </trkpt>
      <trkpt lat="42.5317530" lon="-8.6462670">
        <ele>47.6</ele>
        <time>2021-05-22T09:44:35Z</time>
      </trkpt>
      <trkpt lat="42.5317600" lon="-8.6462650">
        <ele>47.6</ele>
        <time>2021-05-22T09:44:36Z</time>
      </trkpt>
      <trkpt lat="42.5317720" lon="-8.6462650">
        <ele>47.6</ele>
        <time>2021-05-22T09:44:37Z</time>
      </trkpt>
      <trkpt lat="42.5317820" lon="-8.6462630">
        <ele>47.5</ele>
        <time>2021-05-22T09:44:38Z</time>
      </trkpt>
      <trkpt lat="42.5317980" lon="-8.6462510">
        <ele>47.5</ele>
        <time>2021-05-22T09:44:39Z</time>
      </trkpt>
      <trkpt lat="42.5318070" lon="-8.6462440">
        <ele>47.5</ele>
        <time>2021-05-22T09:44:40Z</time>
      </trkpt>
      <trkpt lat="42.5318110" lon="-8.6462490">
        <ele>47.5</ele>
        <time>2021-05-22T09:44:41Z</time>
      </trkpt>
      <trkpt lat="42.5318230" lon="-8.6462510">
        <ele>47.5</ele>
        <time>2021-05-22T09:44:42Z</time>
      </trkpt>
      <trkpt lat="42.5318380" lon="-8.6462570">
        <ele>47.5</ele>
        <time>2021-05-22T09:44:43Z</time>
      </trkpt>
      <trkpt lat="42.5318520" lon="-8.6462600">
        <ele>47.5</ele>
        <time>2021-05-22T09:44:44Z</time>
      </trkpt>
      <trkpt lat="42.5318730" lon="-8.6462570">
        <ele>47.4</ele>
        <time>2021-05-22T09:44:45Z</time>
      </trkpt>
      <trkpt lat="42.5318830" lon="-8.6462560">
        <ele>47.4</ele>
        <time>2021-05-22T09:44:46Z</time>
      </trkpt>
      <trkpt lat="42.5318930" lon="-8.6462550">
        <ele>47.4</ele>
        <time>2021-05-22T09:44:47Z</time>
      </trkpt>
      <trkpt lat="42.5319020" lon="-8.6462500">
        <ele>47.4</ele>
        <time>2021-05-22T09:44:48Z</time>
      </trkpt>
      <trkpt lat="42.5319140" lon="-8.6462480">
        <ele>47.4</ele>
        <time>2021-05-22T09:44:49Z</time>
      </trkpt>
      <trkpt lat="42.5319260" lon="-8.6462500">
        <ele>47.3</ele>
        <time>2021-05-22T09:44:50Z</time>
      </trkpt>
      <trkpt lat="42.5319400" lon="-8.6462500">
        <ele>47.3</ele>
        <time>2021-05-22T09:44:51Z</time>
      </trkpt>
      <trkpt lat="42.5319530" lon="-8.6462520">
        <ele>47.3</ele>
        <time>2021-05-22T09:44:52Z</time>
      </trkpt>
      <trkpt lat="42.5319650" lon="-8.6462510">
        <ele>47.3</ele>
        <time>2021-05-22T09:44:53Z</time>
      </trkpt>
      <trkpt lat="42.5319760" lon="-8.6462470">
        <ele>47.3</ele>
        <time>2021-05-22T09:44:54Z</time>
      </trkpt>
      <trkpt lat="42.5319880" lon="-8.6462460">
        <ele>47.2</ele>
        <time>2021-05-22T09:44:55Z</time>
      </trkpt>
      <trkpt lat="42.5319990" lon="-8.6462490">
        <ele>47.2</ele>
        <time>2021-05-22T09:44:56Z</time>
      </trkpt>
      <trkpt lat="42.5320070" lon="-8.6462460">
        <ele>47.2</ele>
        <time>2021-05-22T09:44:57Z</time>
      </trkpt>
      <trkpt lat="42.5320220" lon="-8.6462480">
        <ele>47.2</ele>
        <time>2021-05-22T09:44:58Z</time>
      </trkpt>
      <trkpt lat="42.5320290" lon="-8.6462490">
        <ele>47.2</ele>
        <time>2021-05-22T09:44:59Z</time>
      </trkpt>
      <trkpt lat="42.5320390" lon="-8.6462490">
        <ele>47.1</ele>
        <time>2021-05-22T09:45:00Z</time>
      </trkpt>
      <trkpt lat="42.5320510" lon="-8.6462450">
        <ele>47.1</ele>
        <time>2021-05-22T09:45:01Z</time>
      </trkpt>
      <trkpt lat="42.5320630" lon="-8.6462410">
        <ele>47.1</ele>
        <time>2021-05-22T09:45:02Z</time>
      </trkpt>
      <trkpt lat="42.5320740" lon="-8.6462370">
        <ele>47.1</ele>
        <time>2021-05-22T09:45:03Z</time>
      </trkpt>
      <trkpt lat="42.5320850" lon="-8.6462330">
        <ele>47.0</ele>
        <time>2021-05-22T09:45:04Z</time>
      </trkpt>
      <trkpt lat="42.5321020" lon="-8.6462330">
        <ele>47.0</ele>
        <time>2021-05-22T09:45:05Z</time>
      </trkpt>
      <trkpt lat="42.5321090" lon="-8.6462320">
        <ele>47.0</ele>
        <time>2021-05-22T09:45:06Z</time>
      </trkpt>
      <trkpt lat="42.5321170" lon="-8.6462320">
        <ele>47.0</ele>
        <time>2021-05-22T09:45:07Z</time>
      </trkpt>
      <trkpt lat="42.5321240" lon="-8.6462310">
        <ele>47.0</ele>
        <time>2021-05-22T09:45:08Z</time>
      </trkpt>
      <trkpt lat="42.5321360" lon="-8.6462330">
        <ele>46.9</ele>
        <time>2021-05-22T09:45:09Z</time>
      </trkpt>
      <trkpt lat="42.5321460" lon="-8.6462360">
        <ele>46.9</ele>
        <time>2021-05-22T09:45:10Z</time>
      </trkpt>
      <trkpt lat="42.5321550" lon="-8.6462370">
        <ele>46.9</ele>
        <time>2021-05-22T09:45:11Z</time>
      </trkpt>
      <trkpt lat="42.5321790" lon="-8.6462400">
        <ele>46.8</ele>
        <time>2021-05-22T09:45:12Z</time>
      </trkpt>
      <trkpt lat="42.5321870" lon="-8.6462410">
        <ele>46.8</ele>
        <time>2021-05-22T09:45:13Z</time>
      </trkpt>
      <trkpt lat="42.5321960" lon="-8.6462410">
        <ele>46.8</ele>
        <time>2021-05-22T09:45:14Z</time>
      </trkpt>
      <trkpt lat="42.5322070" lon="-8.6462390">
        <ele>46.8</ele>
        <time>2021-05-22T09:45:15Z</time>
      </trkpt>
      <trkpt lat="42.5322200" lon="-8.6462390">
        <ele>46.8</ele>
        <time>2021-05-22T09:45:16Z</time>
      </trkpt>
      <trkpt lat="42.5322310" lon="-8.6462370">
        <ele>46.8</ele>
        <time>2021-05-22T09:45:17Z</time>
      </trkpt>
      <trkpt lat="42.5322380" lon="-8.6462350">
        <ele>46.7</ele>
        <time>2021-05-22T09:45:18Z</time>
      </trkpt>
      <trkpt lat="42.5322500" lon="-8.6462310">
        <ele>46.7</ele>
        <time>2021-05-22T09:45:19Z</time>
      </trkpt>
      <trkpt lat="42.5322620" lon="-8.6462230">
        <ele>46.7</ele>
        <time>2021-05-22T09:45:20Z</time>
      </trkpt>
      <trkpt lat="42.5322790" lon="-8.6462180">
        <ele>46.7</ele>
        <time>2021-05-22T09:45:21Z</time>
      </trkpt>
      <trkpt lat="42.5322860" lon="-8.6462160">
        <ele>46.7</ele>
        <time>2021-05-22T09:45:22Z</time>
      </trkpt>
      <trkpt lat="42.5322920" lon="-8.6462130">
        <ele>46.7</ele>
        <time>2021-05-22T09:45:23Z</time>
      </trkpt>
      <trkpt lat="42.5322990" lon="-8.6462100">
        <ele>46.6</ele>
        <time>2021-05-22T09:45:24Z</time>
      </trkpt>
      <trkpt lat="42.5323120" lon="-8.6462050">
        <ele>46.6</ele>
        <time>2021-05-22T09:45:25Z</time>
      </trkpt>
      <trkpt lat="42.5323220" lon="-8.6462010">
        <ele>46.6</ele>
        <time>2021-05-22T09:45:26Z</time>
      </trkpt>
      <trkpt lat="42.5323340" lon="-8.6462000">
        <ele>46.6</ele>
        <time>2021-05-22T09:45:27Z</time>
      </trkpt>
      <trkpt lat="42.5323470" lon="-8.6461970">
        <ele>46.6</ele>
        <time>2021-05-22T09:45:28Z</time>
      </trkpt>
      <trkpt lat="42.5323610" lon="-8.6461970">
        <ele>46.6</ele>
        <time>2021-05-22T09:45:29Z</time>
      </trkpt>
      <trkpt lat="42.5323720" lon="-8.6461950">
        <ele>46.5</ele>
        <time>2021-05-22T09:45:31Z</time>
      </trkpt>
      <trkpt lat="42.5323830" lon="-8.6461980">
        <ele>46.5</ele>
        <time>2021-05-22T09:45:32Z</time>
      </trkpt>
      <trkpt lat="42.5323950" lon="-8.6461980">
        <ele>46.5</ele>
        <time>2021-05-22T09:45:33Z</time>
      </trkpt>
      <trkpt lat="42.5324080" lon="-8.6461990">
        <ele>46.5</ele>
        <time>2021-05-22T09:45:34Z</time>
      </trkpt>
      <trkpt lat="42.5324170" lon="-8.6462000">
        <ele>46.5</ele>
        <time>2021-05-22T09:45:35Z</time>
      </trkpt>
      <trkpt lat="42.5324310" lon="-8.6462040">
        <ele>46.5</ele>
        <time>2021-05-22T09:45:36Z</time>
      </trkpt>
      <trkpt lat="42.5324470" lon="-8.6462080">
        <ele>46.4</ele>
        <time>2021-05-22T09:45:37Z</time>
      </trkpt>
      <trkpt lat="42.5324590" lon="-8.6462110">
        <ele>46.4</ele>
        <time>2021-05-22T09:45:38Z</time>
      </trkpt>
      <trkpt lat="42.5324680" lon="-8.6462100">
        <ele>46.4</ele>
        <time>2021-05-22T09:45:39Z</time>
      </trkpt>
      <trkpt lat="42.5324820" lon="-8.6462100">
        <ele>46.4</ele>
        <time>2021-05-22T09:45:40Z</time>
      </trkpt>
      <trkpt lat="42.5324930" lon="-8.6462100">
        <ele>46.4</ele>
        <time>2021-05-22T09:45:41Z</time>
      </trkpt>
      <trkpt lat="42.5325060" lon="-8.6462090">
        <ele>46.4</ele>
        <time>2021-05-22T09:45:42Z</time>
      </trkpt>
      <trkpt lat="42.5325110" lon="-8.6462090">
        <ele>46.4</ele>
        <time>2021-05-22T09:45:43Z</time>
      </trkpt>
      <trkpt lat="42.5325270" lon="-8.6462080">
        <ele>46.4</ele>
        <time>2021-05-22T09:45:44Z</time>
      </trkpt>
      <trkpt lat="42.5325380" lon="-8.6462070">
        <ele>46.3</ele>
        <time>2021-05-22T09:45:45Z</time>
      </trkpt>
      <trkpt lat="42.5325510" lon="-8.6462040">
        <ele>46.3</ele>
        <time>2021-05-22T09:45:46Z</time>
      </trkpt>
      <trkpt lat="42.5325600" lon="-8.6461980">
        <ele>46.3</ele>
        <time>2021-05-22T09:45:47Z</time>
      </trkpt>
      <trkpt lat="42.5325730" lon="-8.6461960">
        <ele>46.3</ele>
        <time>2021-05-22T09:45:48Z</time>
      </trkpt>
      <trkpt lat="42.5325830" lon="-8.6461940">
        <ele>46.3</ele>
        <time>2021-05-22T09:45:49Z</time>
      </trkpt>
      <trkpt lat="42.5325930" lon="-8.6461930">
        <ele>46.3</ele>
        <time>2021-05-22T09:45:50Z</time>
      </trkpt>
      <trkpt lat="42.5326040" lon="-8.6461940">
        <ele>46.2</ele>
        <time>2021-05-22T09:45:51Z</time>
      </trkpt>
      <trkpt lat="42.5326160" lon="-8.6461940">
        <ele>46.2</ele>
        <time>2021-05-22T09:45:52Z</time>
      </trkpt>
      <trkpt lat="42.5326240" lon="-8.6461870">
        <ele>46.2</ele>
        <time>2021-05-22T09:45:53Z</time>
      </trkpt>
      <trkpt lat="42.5326350" lon="-8.6461860">
        <ele>46.2</ele>
        <time>2021-05-22T09:45:54Z</time>
      </trkpt>
      <trkpt lat="42.5326500" lon="-8.6461790">
        <ele>46.2</ele>
        <time>2021-05-22T09:45:55Z</time>
      </trkpt>
      <trkpt lat="42.5326570" lon="-8.6461730">
        <ele>46.2</ele>
        <time>2021-05-22T09:45:56Z</time>
      </trkpt>
      <trkpt lat="42.5326670" lon="-8.6461710">
        <ele>46.1</ele>
        <time>2021-05-22T09:45:57Z</time>
      </trkpt>
      <trkpt lat="42.5326780" lon="-8.6461710">
        <ele>46.1</ele>
        <time>2021-05-22T09:45:58Z</time>
      </trkpt>
      <trkpt lat="42.5326840" lon="-8.6461680">
        <ele>46.1</ele>
        <time>2021-05-22T09:45:59Z</time>
      </trkpt>
      <trkpt lat="42.5326930" lon="-8.6461630">
        <ele>46.1</ele>
        <time>2021-05-22T09:46:00Z</time>
      </trkpt>
      <trkpt lat="42.5327060" lon="-8.6461560">
        <ele>46.1</ele>
        <time>2021-05-22T09:46:01Z</time>
      </trkpt>
      <trkpt lat="42.5327150" lon="-8.6461520">
        <ele>46.1</ele>
        <time>2021-05-22T09:46:02Z</time>
      </trkpt>
      <trkpt lat="42.5327200" lon="-8.6461520">
        <ele>46.1</ele>
        <time>2021-05-22T09:46:03Z</time>
      </trkpt>
      <trkpt lat="42.5327240" lon="-8.6461480">
        <ele>46.1</ele>
        <time>2021-05-22T09:46:04Z</time>
      </trkpt>
      <trkpt lat="42.5327330" lon="-8.6461470">
        <ele>46.1</ele>
        <time>2021-05-22T09:46:05Z</time>
      </trkpt>
      <trkpt lat="42.5327410" lon="-8.6461420">
        <ele>46.1</ele>
        <time>2021-05-22T09:46:06Z</time>
      </trkpt>
      <trkpt lat="42.5327390" lon="-8.6461410">
        <ele>46.1</ele>
        <time>2021-05-22T09:46:07Z</time>
      </trkpt>
      <trkpt lat="42.5327420" lon="-8.6461380">
        <ele>46.1</ele>
        <time>2021-05-22T09:46:08Z</time>
      </trkpt>
      <trkpt lat="42.5327460" lon="-8.6461330">
        <ele>46.1</ele>
        <time>2021-05-22T09:46:09Z</time>
      </trkpt>
      <trkpt lat="42.5327520" lon="-8.6461240">
        <ele>46.1</ele>
        <time>2021-05-22T09:46:10Z</time>
      </trkpt>
      <trkpt lat="42.5327580" lon="-8.6461190">
        <ele>46.1</ele>
        <time>2021-05-22T09:46:11Z</time>
      </trkpt>
      <trkpt lat="42.5327620" lon="-8.6461120">
        <ele>46.0</ele>
        <time>2021-05-22T09:46:12Z</time>
      </trkpt>
      <trkpt lat="42.5327650" lon="-8.6461090">
        <ele>46.0</ele>
        <time>2021-05-22T09:46:13Z</time>
      </trkpt>
      <trkpt lat="42.5327640" lon="-8.6461110">
        <ele>46.0</ele>
        <time>2021-05-22T09:46:14Z</time>
      </trkpt>
      <trkpt lat="42.5327700" lon="-8.6461060">
        <ele>46.0</ele>
        <time>2021-05-22T09:46:15Z</time>
      </trkpt>
      <trkpt lat="42.5327790" lon="-8.6460980">
        <ele>46.0</ele>
        <time>2021-05-22T09:46:16Z</time>
      </trkpt>
      <trkpt lat="42.5327850" lon="-8.6460910">
        <ele>46.0</ele>
        <time>2021-05-22T09:46:17Z</time>
      </trkpt>
      <trkpt lat="42.5327900" lon="-8.6460850">
        <ele>46.0</ele>
        <time>2021-05-22T09:46:18Z</time>
      </trkpt>
      <trkpt lat="42.5327970" lon="-8.6460780">
        <ele>46.0</ele>
        <time>2021-05-22T09:46:19Z</time>
      </trkpt>
      <trkpt lat="42.5328050" lon="-8.6460720">
        <ele>46.0</ele>
        <time>2021-05-22T09:46:20Z</time>
      </trkpt>
      <trkpt lat="42.5328160" lon="-8.6460640">
        <ele>46.0</ele>
        <time>2021-05-22T09:46:21Z</time>
      </trkpt>
      <trkpt lat="42.5328210" lon="-8.6460600">
        <ele>45.9</ele>
        <time>2021-05-22T09:46:22Z</time>
      </trkpt>
      <trkpt lat="42.5328310" lon="-8.6460520">
        <ele>45.9</ele>
        <time>2021-05-22T09:46:23Z</time>
      </trkpt>
      <trkpt lat="42.5328370" lon="-8.6460490">
        <ele>45.9</ele>
        <time>2021-05-22T09:46:24Z</time>
      </trkpt>
      <trkpt lat="42.5328430" lon="-8.6460450">
        <ele>45.9</ele>
        <time>2021-05-22T09:46:25Z</time>
      </trkpt>
      <trkpt lat="42.5328520" lon="-8.6460420">
        <ele>45.9</ele>
        <time>2021-05-22T09:46:26Z</time>
      </trkpt>
      <trkpt lat="42.5328590" lon="-8.6460340">
        <ele>45.9</ele>
        <time>2021-05-22T09:46:27Z</time>
      </trkpt>
      <trkpt lat="42.5328590" lon="-8.6460320">
        <ele>45.9</ele>
        <time>2021-05-22T09:46:28Z</time>
      </trkpt>
      <trkpt lat="42.5328600" lon="-8.6460310">
        <ele>45.9</ele>
        <time>2021-05-22T09:46:29Z</time>
      </trkpt>
      <trkpt lat="42.5328620" lon="-8.6460290">
        <ele>45.9</ele>
        <time>2021-05-22T09:46:30Z</time>
      </trkpt>
      <trkpt lat="42.5328650" lon="-8.6460260">
        <ele>45.9</ele>
        <time>2021-05-22T09:46:31Z</time>
      </trkpt>
      <trkpt lat="42.5328620" lon="-8.6460200">
        <ele>45.9</ele>
        <time>2021-05-22T09:46:32Z</time>
      </trkpt>
      <trkpt lat="42.5328600" lon="-8.6460190">
        <ele>45.9</ele>
        <time>2021-05-22T09:46:33Z</time>
      </trkpt>
      <trkpt lat="42.5328590" lon="-8.6460230">
        <ele>45.9</ele>
        <time>2021-05-22T09:46:34Z</time>
      </trkpt>
      <trkpt lat="42.5328590" lon="-8.6460230">
        <ele>45.9</ele>
        <time>2021-05-22T09:46:35Z</time>
      </trkpt>
      <trkpt lat="42.5328560" lon="-8.6460220">
        <ele>45.9</ele>
        <time>2021-05-22T09:46:36Z</time>
      </trkpt>
      <trkpt lat="42.5328550" lon="-8.6460180">
        <ele>45.8</ele>
        <time>2021-05-22T09:46:37Z</time>
      </trkpt>
      <trkpt lat="42.5328550" lon="-8.6460190">
        <ele>45.8</ele>
        <time>2021-05-22T09:46:38Z</time>
      </trkpt>
      <trkpt lat="42.5328540" lon="-8.6460180">
        <ele>45.8</ele>
        <time>2021-05-22T09:46:39Z</time>
      </trkpt>
      <trkpt lat="42.5328530" lon="-8.6460200">
        <ele>45.8</ele>
        <time>2021-05-22T09:46:40Z</time>
      </trkpt>
      <trkpt lat="42.5328610" lon="-8.6460150">
        <ele>45.8</ele>
        <time>2021-05-22T09:46:41Z</time>
      </trkpt>
      <trkpt lat="42.5328650" lon="-8.6460130">
        <ele>45.8</ele>
        <time>2021-05-22T09:46:42Z</time>
      </trkpt>
      <trkpt lat="42.5328730" lon="-8.6460170">
        <ele>45.8</ele>
        <time>2021-05-22T09:46:43Z</time>
      </trkpt>
      <trkpt lat="42.5328850" lon="-8.6460120">
        <ele>45.8</ele>
        <time>2021-05-22T09:46:44Z</time>
      </trkpt>
      <trkpt lat="42.5328990" lon="-8.6460010">
        <ele>45.8</ele>
        <time>2021-05-22T09:46:45Z</time>
      </trkpt>
      <trkpt lat="42.5329040" lon="-8.6459920">
        <ele>45.8</ele>
        <time>2021-05-22T09:46:46Z</time>
      </trkpt>
      <trkpt lat="42.5329110" lon="-8.6459850">
        <ele>45.8</ele>
        <time>2021-05-22T09:46:47Z</time>
      </trkpt>
      <trkpt lat="42.5329240" lon="-8.6459820">
        <ele>45.7</ele>
        <time>2021-05-22T09:46:48Z</time>
      </trkpt>
      <trkpt lat="42.5329380" lon="-8.6459800">
        <ele>45.7</ele>
        <time>2021-05-22T09:46:49Z</time>
      </trkpt>
      <trkpt lat="42.5329460" lon="-8.6459750">
        <ele>45.7</ele>
        <time>2021-05-22T09:46:50Z</time>
      </trkpt>
      <trkpt lat="42.5329570" lon="-8.6459690">
        <ele>45.7</ele>
        <time>2021-05-22T09:46:51Z</time>
      </trkpt>
      <trkpt lat="42.5329660" lon="-8.6459640">
        <ele>45.7</ele>
        <time>2021-05-22T09:46:52Z</time>
      </trkpt>
      <trkpt lat="42.5329740" lon="-8.6459580">
        <ele>45.7</ele>
        <time>2021-05-22T09:46:53Z</time>
      </trkpt>
      <trkpt lat="42.5329830" lon="-8.6459470">
        <ele>45.7</ele>
        <time>2021-05-22T09:46:54Z</time>
      </trkpt>
      <trkpt lat="42.5329910" lon="-8.6459380">
        <ele>45.6</ele>
        <time>2021-05-22T09:46:55Z</time>
      </trkpt>
      <trkpt lat="42.5330020" lon="-8.6459310">
        <ele>45.6</ele>
        <time>2021-05-22T09:46:56Z</time>
      </trkpt>
      <trkpt lat="42.5330110" lon="-8.6459240">
        <ele>45.6</ele>
        <time>2021-05-22T09:46:57Z</time>
      </trkpt>
      <trkpt lat="42.5330180" lon="-8.6459120">
        <ele>45.6</ele>
        <time>2021-05-22T09:46:58Z</time>
      </trkpt>
      <trkpt lat="42.5330240" lon="-8.6459040">
        <ele>45.6</ele>
        <time>2021-05-22T09:46:59Z</time>
      </trkpt>
      <trkpt lat="42.5330340" lon="-8.6459000">
        <ele>45.6</ele>
        <time>2021-05-22T09:47:00Z</time>
      </trkpt>
      <trkpt lat="42.5330410" lon="-8.6458940">
        <ele>45.6</ele>
        <time>2021-05-22T09:47:01Z</time>
      </trkpt>
      <trkpt lat="42.5330490" lon="-8.6458870">
        <ele>45.6</ele>
        <time>2021-05-22T09:47:02Z</time>
      </trkpt>
      <trkpt lat="42.5330580" lon="-8.6458820">
        <ele>45.6</ele>
        <time>2021-05-22T09:47:03Z</time>
      </trkpt>
      <trkpt lat="42.5330630" lon="-8.6458770">
        <ele>45.5</ele>
        <time>2021-05-22T09:47:04Z</time>
      </trkpt>
      <trkpt lat="42.5330730" lon="-8.6458650">
        <ele>45.5</ele>
        <time>2021-05-22T09:47:05Z</time>
      </trkpt>
      <trkpt lat="42.5330830" lon="-8.6458610">
        <ele>45.5</ele>
        <time>2021-05-22T09:47:06Z</time>
      </trkpt>
      <trkpt lat="42.5330920" lon="-8.6458580">
        <ele>45.5</ele>
        <time>2021-05-22T09:47:07Z</time>
      </trkpt>
      <trkpt lat="42.5331040" lon="-8.6458520">
        <ele>45.5</ele>
        <time>2021-05-22T09:47:08Z</time>
      </trkpt>
      <trkpt lat="42.5331140" lon="-8.6458430">
        <ele>45.5</ele>
        <time>2021-05-22T09:47:09Z</time>
      </trkpt>
      <trkpt lat="42.5331190" lon="-8.6458320">
        <ele>45.5</ele>
        <time>2021-05-22T09:47:10Z</time>
      </trkpt>
      <trkpt lat="42.5331280" lon="-8.6458210">
        <ele>45.5</ele>
        <time>2021-05-22T09:47:11Z</time>
      </trkpt>
      <trkpt lat="42.5331360" lon="-8.6458100">
        <ele>45.5</ele>
        <time>2021-05-22T09:47:12Z</time>
      </trkpt>
      <trkpt lat="42.5331550" lon="-8.6458000">
        <ele>45.4</ele>
        <time>2021-05-22T09:47:13Z</time>
      </trkpt>
      <trkpt lat="42.5331630" lon="-8.6457970">
        <ele>45.4</ele>
        <time>2021-05-22T09:47:14Z</time>
      </trkpt>
      <trkpt lat="42.5331710" lon="-8.6457930">
        <ele>45.4</ele>
        <time>2021-05-22T09:47:15Z</time>
      </trkpt>
      <trkpt lat="42.5331840" lon="-8.6457880">
        <ele>45.4</ele>
        <time>2021-05-22T09:47:16Z</time>
      </trkpt>
      <trkpt lat="42.5331950" lon="-8.6457820">
        <ele>45.4</ele>
        <time>2021-05-22T09:47:17Z</time>
      </trkpt>
      <trkpt lat="42.5332010" lon="-8.6457720">
        <ele>45.4</ele>
        <time>2021-05-22T09:47:18Z</time>
      </trkpt>
      <trkpt lat="42.5332110" lon="-8.6457690">
        <ele>45.4</ele>
        <time>2021-05-22T09:47:19Z</time>
      </trkpt>
      <trkpt lat="42.5332150" lon="-8.6457620">
        <ele>45.4</ele>
        <time>2021-05-22T09:47:20Z</time>
      </trkpt>
      <trkpt lat="42.5332250" lon="-8.6457550">
        <ele>45.4</ele>
        <time>2021-05-22T09:47:21Z</time>
      </trkpt>
      <trkpt lat="42.5332330" lon="-8.6457490">
        <ele>45.4</ele>
        <time>2021-05-22T09:47:22Z</time>
      </trkpt>
      <trkpt lat="42.5332420" lon="-8.6457430">
        <ele>45.4</ele>
        <time>2021-05-22T09:47:23Z</time>
      </trkpt>
      <trkpt lat="42.5332520" lon="-8.6457410">
        <ele>45.4</ele>
        <time>2021-05-22T09:47:24Z</time>
      </trkpt>
      <trkpt lat="42.5332650" lon="-8.6457310">
        <ele>45.3</ele>
        <time>2021-05-22T09:47:25Z</time>
      </trkpt>
      <trkpt lat="42.5332750" lon="-8.6457230">
        <ele>45.3</ele>
        <time>2021-05-22T09:47:27Z</time>
      </trkpt>
      <trkpt lat="42.5332840" lon="-8.6457160">
        <ele>45.3</ele>
        <time>2021-05-22T09:47:28Z</time>
      </trkpt>
      <trkpt lat="42.5332980" lon="-8.6457090">
        <ele>45.3</ele>
        <time>2021-05-22T09:47:29Z</time>
      </trkpt>
      <trkpt lat="42.5333070" lon="-8.6457000">
        <ele>45.3</ele>
        <time>2021-05-22T09:47:30Z</time>
      </trkpt>
      <trkpt lat="42.5333190" lon="-8.6456930">
        <ele>45.3</ele>
        <time>2021-05-22T09:47:31Z</time>
      </trkpt>
      <trkpt lat="42.5333250" lon="-8.6456880">
        <ele>45.3</ele>
        <time>2021-05-22T09:47:32Z</time>
      </trkpt>
      <trkpt lat="42.5333330" lon="-8.6456810">
        <ele>45.3</ele>
        <time>2021-05-22T09:47:33Z</time>
      </trkpt>
      <trkpt lat="42.5333440" lon="-8.6456770">
        <ele>45.3</ele>
        <time>2021-05-22T09:47:34Z</time>
      </trkpt>
      <trkpt lat="42.5333550" lon="-8.6456730">
        <ele>45.3</ele>
        <time>2021-05-22T09:47:35Z</time>
      </trkpt>
      <trkpt lat="42.5333690" lon="-8.6456680">
        <ele>45.2</ele>
        <time>2021-05-22T09:47:36Z</time>
      </trkpt>
      <trkpt lat="42.5333830" lon="-8.6456600">
        <ele>45.2</ele>
        <time>2021-05-22T09:47:37Z</time>
      </trkpt>
      <trkpt lat="42.5333910" lon="-8.6456590">
        <ele>45.2</ele>
        <time>2021-05-22T09:47:38Z</time>
      </trkpt>
      <trkpt lat="42.5334020" lon="-8.6456520">
        <ele>45.2</ele>
        <time>2021-05-22T09:47:39Z</time>
      </trkpt>
      <trkpt lat="42.5334150" lon="-8.6456440">
        <ele>45.2</ele>
        <time>2021-05-22T09:47:40Z</time>
      </trkpt>
      <trkpt lat="42.5334350" lon="-8.6456410">
        <ele>45.2</ele>
        <time>2021-05-22T09:47:41Z</time>
      </trkpt>
      <trkpt lat="42.5334450" lon="-8.6456390">
        <ele>45.2</ele>
        <time>2021-05-22T09:47:42Z</time>
      </trkpt>
      <trkpt lat="42.5334550" lon="-8.6456380">
        <ele>45.2</ele>
        <time>2021-05-22T09:47:43Z</time>
      </trkpt>
      <trkpt lat="42.5334650" lon="-8.6456380">
        <ele>45.1</ele>
        <time>2021-05-22T09:47:44Z</time>
      </trkpt>
      <trkpt lat="42.5334750" lon="-8.6456360">
        <ele>45.1</ele>
        <time>2021-05-22T09:47:45Z</time>
      </trkpt>
      <trkpt lat="42.5334810" lon="-8.6456280">
        <ele>45.1</ele>
        <time>2021-05-22T09:47:46Z</time>
      </trkpt>
      <trkpt lat="42.5334960" lon="-8.6456280">
        <ele>45.1</ele>
        <time>2021-05-22T09:47:47Z</time>
      </trkpt>
      <trkpt lat="42.5335080" lon="-8.6456220">
        <ele>45.1</ele>
        <time>2021-05-22T09:47:48Z</time>
      </trkpt>
      <trkpt lat="42.5335250" lon="-8.6456150">
        <ele>45.1</ele>
        <time>2021-05-22T09:47:49Z</time>
      </trkpt>
      <trkpt lat="42.5335350" lon="-8.6456150">
        <ele>45.0</ele>
        <time>2021-05-22T09:47:50Z</time>
      </trkpt>
      <trkpt lat="42.5335480" lon="-8.6456070">
        <ele>45.0</ele>
        <time>2021-05-22T09:47:51Z</time>
      </trkpt>
      <trkpt lat="42.5335620" lon="-8.6456070">
        <ele>45.0</ele>
        <time>2021-05-22T09:47:52Z</time>
      </trkpt>
      <trkpt lat="42.5335760" lon="-8.6456060">
        <ele>45.0</ele>
        <time>2021-05-22T09:47:53Z</time>
      </trkpt>
      <trkpt lat="42.5335930" lon="-8.6456050">
        <ele>45.0</ele>
        <time>2021-05-22T09:47:54Z</time>
      </trkpt>
      <trkpt lat="42.5336120" lon="-8.6455940">
        <ele>44.9</ele>
        <time>2021-05-22T09:47:55Z</time>
      </trkpt>
      <trkpt lat="42.5336210" lon="-8.6455920">
        <ele>44.9</ele>
        <time>2021-05-22T09:47:56Z</time>
      </trkpt>
      <trkpt lat="42.5336290" lon="-8.6455900">
        <ele>44.9</ele>
        <time>2021-05-22T09:47:57Z</time>
      </trkpt>
      <trkpt lat="42.5336390" lon="-8.6455890">
        <ele>44.9</ele>
        <time>2021-05-22T09:47:58Z</time>
      </trkpt>
      <trkpt lat="42.5336480" lon="-8.6455890">
        <ele>44.9</ele>
        <time>2021-05-22T09:47:59Z</time>
      </trkpt>
      <trkpt lat="42.5336540" lon="-8.6455840">
        <ele>44.9</ele>
        <time>2021-05-22T09:48:00Z</time>
      </trkpt>
      <trkpt lat="42.5336490" lon="-8.6455800">
        <ele>44.9</ele>
        <time>2021-05-22T09:48:01Z</time>
      </trkpt>
      <trkpt lat="42.5336600" lon="-8.6455840">
        <ele>44.8</ele>
        <time>2021-05-22T09:48:02Z</time>
      </trkpt>
      <trkpt lat="42.5336830" lon="-8.6455800">
        <ele>44.8</ele>
        <time>2021-05-22T09:48:03Z</time>
      </trkpt>
      <trkpt lat="42.5336910" lon="-8.6455770">
        <ele>44.8</ele>
        <time>2021-05-22T09:48:04Z</time>
      </trkpt>
      <trkpt lat="42.5337000" lon="-8.6455730">
        <ele>44.8</ele>
        <time>2021-05-22T09:48:05Z</time>
      </trkpt>
      <trkpt lat="42.5337090" lon="-8.6455700">
        <ele>44.8</ele>
        <time>2021-05-22T09:48:06Z</time>
      </trkpt>
      <trkpt lat="42.5337280" lon="-8.6455650">
        <ele>44.7</ele>
        <time>2021-05-22T09:48:07Z</time>
      </trkpt>
      <trkpt lat="42.5337490" lon="-8.6455550">
        <ele>44.7</ele>
        <time>2021-05-22T09:48:08Z</time>
      </trkpt>
      <trkpt lat="42.5337580" lon="-8.6455500">
        <ele>44.7</ele>
        <time>2021-05-22T09:48:09Z</time>
      </trkpt>
      <trkpt lat="42.5337680" lon="-8.6455460">
        <ele>44.7</ele>
        <time>2021-05-22T09:48:10Z</time>
      </trkpt>
      <trkpt lat="42.5337770" lon="-8.6455410">
        <ele>44.7</ele>
        <time>2021-05-22T09:48:11Z</time>
      </trkpt>
      <trkpt lat="42.5337940" lon="-8.6455410">
        <ele>44.7</ele>
        <time>2021-05-22T09:48:12Z</time>
      </trkpt>
      <trkpt lat="42.5338040" lon="-8.6455380">
        <ele>44.6</ele>
        <time>2021-05-22T09:48:13Z</time>
      </trkpt>
      <trkpt lat="42.5338260" lon="-8.6455320">
        <ele>44.6</ele>
        <time>2021-05-22T09:48:14Z</time>
      </trkpt>
      <trkpt lat="42.5338330" lon="-8.6455300">
        <ele>44.6</ele>
        <time>2021-05-22T09:48:15Z</time>
      </trkpt>
      <trkpt lat="42.5338400" lon="-8.6455290">
        <ele>44.6</ele>
        <time>2021-05-22T09:48:16Z</time>
      </trkpt>
      <trkpt lat="42.5338520" lon="-8.6455290">
        <ele>44.6</ele>
        <time>2021-05-22T09:48:17Z</time>
      </trkpt>
      <trkpt lat="42.5338690" lon="-8.6455250">
        <ele>44.6</ele>
        <time>2021-05-22T09:48:18Z</time>
      </trkpt>
      <trkpt lat="42.5338800" lon="-8.6455210">
        <ele>44.6</ele>
        <time>2021-05-22T09:48:19Z</time>
      </trkpt>
      <trkpt lat="42.5338970" lon="-8.6455130">
        <ele>44.5</ele>
        <time>2021-05-22T09:48:20Z</time>
      </trkpt>
      <trkpt lat="42.5339170" lon="-8.6455120">
        <ele>44.5</ele>
        <time>2021-05-22T09:48:21Z</time>
      </trkpt>
      <trkpt lat="42.5339250" lon="-8.6455100">
        <ele>44.5</ele>
        <time>2021-05-22T09:48:22Z</time>
      </trkpt>
      <trkpt lat="42.5339340" lon="-8.6455090">
        <ele>44.5</ele>
        <time>2021-05-22T09:48:23Z</time>
      </trkpt>
      <trkpt lat="42.5339540" lon="-8.6455010">
        <ele>44.5</ele>
        <time>2021-05-22T09:48:24Z</time>
      </trkpt>
      <trkpt lat="42.5339620" lon="-8.6454990">
        <ele>44.4</ele>
        <time>2021-05-22T09:48:25Z</time>
      </trkpt>
      <trkpt lat="42.5339700" lon="-8.6454970">
        <ele>44.4</ele>
        <time>2021-05-22T09:48:26Z</time>
      </trkpt>
      <trkpt lat="42.5339890" lon="-8.6454890">
        <ele>44.4</ele>
        <time>2021-05-22T09:48:27Z</time>
      </trkpt>
      <trkpt lat="42.5339980" lon="-8.6454870">
        <ele>44.4</ele>
        <time>2021-05-22T09:48:28Z</time>
      </trkpt>
      <trkpt lat="42.5340060" lon="-8.6454850">
        <ele>44.4</ele>
        <time>2021-05-22T09:48:29Z</time>
      </trkpt>
      <trkpt lat="42.5340170" lon="-8.6454860">
        <ele>44.4</ele>
        <time>2021-05-22T09:48:30Z</time>
      </trkpt>
      <trkpt lat="42.5340280" lon="-8.6454860">
        <ele>44.4</ele>
        <time>2021-05-22T09:48:31Z</time>
      </trkpt>
      <trkpt lat="42.5340400" lon="-8.6454800">
        <ele>44.4</ele>
        <time>2021-05-22T09:48:32Z</time>
      </trkpt>
      <trkpt lat="42.5340520" lon="-8.6454810">
        <ele>44.4</ele>
        <time>2021-05-22T09:48:33Z</time>
      </trkpt>
      <trkpt lat="42.5340600" lon="-8.6454780">
        <ele>44.4</ele>
        <time>2021-05-22T09:48:34Z</time>
      </trkpt>
      <trkpt lat="42.5340730" lon="-8.6454750">
        <ele>44.3</ele>
        <time>2021-05-22T09:48:35Z</time>
      </trkpt>
      <trkpt lat="42.5340830" lon="-8.6454770">
        <ele>44.3</ele>
        <time>2021-05-22T09:48:36Z</time>
      </trkpt>
      <trkpt lat="42.5340950" lon="-8.6454810">
        <ele>44.3</ele>
        <time>2021-05-22T09:48:37Z</time>
      </trkpt>
      <trkpt lat="42.5341020" lon="-8.6454780">
        <ele>44.3</ele>
        <time>2021-05-22T09:48:38Z</time>
      </trkpt>
      <trkpt lat="42.5341050" lon="-8.6454710">
        <ele>44.3</ele>
        <time>2021-05-22T09:48:39Z</time>
      </trkpt>
      <trkpt lat="42.5341130" lon="-8.6454690">
        <ele>44.3</ele>
        <time>2021-05-22T09:48:40Z</time>
      </trkpt>
      <trkpt lat="42.5341250" lon="-8.6454690">
        <ele>44.3</ele>
        <time>2021-05-22T09:48:41Z</time>
      </trkpt>
      <trkpt lat="42.5341350" lon="-8.6454700">
        <ele>44.3</ele>
        <time>2021-05-22T09:48:42Z</time>
      </trkpt>
      <trkpt lat="42.5341560" lon="-8.6454680">
        <ele>44.3</ele>
        <time>2021-05-22T09:48:43Z</time>
      </trkpt>
      <trkpt lat="42.5341640" lon="-8.6454660">
        <ele>44.3</ele>
        <time>2021-05-22T09:48:44Z</time>
      </trkpt>
      <trkpt lat="42.5341730" lon="-8.6454640">
        <ele>44.3</ele>
        <time>2021-05-22T09:48:45Z</time>
      </trkpt>
      <trkpt lat="42.5341820" lon="-8.6454630">
        <ele>44.3</ele>
        <time>2021-05-22T09:48:46Z</time>
      </trkpt>
      <trkpt lat="42.5341920" lon="-8.6454620">
        <ele>44.3</ele>
        <time>2021-05-22T09:48:47Z</time>
      </trkpt>
      <trkpt lat="42.5342030" lon="-8.6454580">
        <ele>44.2</ele>
        <time>2021-05-22T09:48:48Z</time>
      </trkpt>
      <trkpt lat="42.5342140" lon="-8.6454530">
        <ele>44.2</ele>
        <time>2021-05-22T09:48:49Z</time>
      </trkpt>
      <trkpt lat="42.5342240" lon="-8.6454510">
        <ele>44.2</ele>
        <time>2021-05-22T09:48:50Z</time>
      </trkpt>
      <trkpt lat="42.5342370" lon="-8.6454500">
        <ele>44.2</ele>
        <time>2021-05-22T09:48:51Z</time>
      </trkpt>
      <trkpt lat="42.5342520" lon="-8.6454490">
        <ele>44.2</ele>
        <time>2021-05-22T09:48:52Z</time>
      </trkpt>
      <trkpt lat="42.5342670" lon="-8.6454520">
        <ele>44.2</ele>
        <time>2021-05-22T09:48:53Z</time>
      </trkpt>
      <trkpt lat="42.5342880" lon="-8.6454540">
        <ele>44.2</ele>
        <time>2021-05-22T09:48:54Z</time>
      </trkpt>
      <trkpt lat="42.5342970" lon="-8.6454550">
        <ele>44.1</ele>
        <time>2021-05-22T09:48:55Z</time>
      </trkpt>
      <trkpt lat="42.5343070" lon="-8.6454570">
        <ele>44.1</ele>
        <time>2021-05-22T09:48:56Z</time>
      </trkpt>
      <trkpt lat="42.5343180" lon="-8.6454570">
        <ele>44.1</ele>
        <time>2021-05-22T09:48:57Z</time>
      </trkpt>
      <trkpt lat="42.5343260" lon="-8.6454620">
        <ele>44.1</ele>
        <time>2021-05-22T09:48:58Z</time>
      </trkpt>
      <trkpt lat="42.5343380" lon="-8.6454570">
        <ele>44.1</ele>
        <time>2021-05-22T09:48:59Z</time>
      </trkpt>
      <trkpt lat="42.5343490" lon="-8.6454490">
        <ele>44.1</ele>
        <time>2021-05-22T09:49:00Z</time>
      </trkpt>
      <trkpt lat="42.5343670" lon="-8.6454470">
        <ele>44.1</ele>
        <time>2021-05-22T09:49:01Z</time>
      </trkpt>
      <trkpt lat="42.5343780" lon="-8.6454490">
        <ele>44.0</ele>
        <time>2021-05-22T09:49:02Z</time>
      </trkpt>
      <trkpt lat="42.5343880" lon="-8.6454500">
        <ele>44.0</ele>
        <time>2021-05-22T09:49:03Z</time>
      </trkpt>
      <trkpt lat="42.5344000" lon="-8.6454510">
        <ele>44.0</ele>
        <time>2021-05-22T09:49:04Z</time>
      </trkpt>
      <trkpt lat="42.5344100" lon="-8.6454500">
        <ele>44.0</ele>
        <time>2021-05-22T09:49:05Z</time>
      </trkpt>
      <trkpt lat="42.5344170" lon="-8.6454530">
        <ele>44.0</ele>
        <time>2021-05-22T09:49:06Z</time>
      </trkpt>
      <trkpt lat="42.5344280" lon="-8.6454460">
        <ele>44.0</ele>
        <time>2021-05-22T09:49:07Z</time>
      </trkpt>
      <trkpt lat="42.5344430" lon="-8.6454460">
        <ele>44.0</ele>
        <time>2021-05-22T09:49:08Z</time>
      </trkpt>
      <trkpt lat="42.5344520" lon="-8.6454460">
        <ele>44.0</ele>
        <time>2021-05-22T09:49:09Z</time>
      </trkpt>
      <trkpt lat="42.5344610" lon="-8.6454480">
        <ele>44.0</ele>
        <time>2021-05-22T09:49:10Z</time>
      </trkpt>
      <trkpt lat="42.5344730" lon="-8.6454510">
        <ele>43.9</ele>
        <time>2021-05-22T09:49:11Z</time>
      </trkpt>
      <trkpt lat="42.5344860" lon="-8.6454530">
        <ele>43.9</ele>
        <time>2021-05-22T09:49:12Z</time>
      </trkpt>
      <trkpt lat="42.5344970" lon="-8.6454510">
        <ele>43.9</ele>
        <time>2021-05-22T09:49:13Z</time>
      </trkpt>
      <trkpt lat="42.5345100" lon="-8.6454500">
        <ele>43.9</ele>
        <time>2021-05-22T09:49:14Z</time>
      </trkpt>
      <trkpt lat="42.5345270" lon="-8.6454470">
        <ele>43.9</ele>
        <time>2021-05-22T09:49:15Z</time>
      </trkpt>
      <trkpt lat="42.5345360" lon="-8.6454470">
        <ele>43.9</ele>
        <time>2021-05-22T09:49:16Z</time>
      </trkpt>
      <trkpt lat="42.5345410" lon="-8.6454490">
        <ele>43.9</ele>
        <time>2021-05-22T09:49:17Z</time>
      </trkpt>
      <trkpt lat="42.5345540" lon="-8.6454440">
        <ele>43.9</ele>
        <time>2021-05-22T09:49:18Z</time>
      </trkpt>
      <trkpt lat="42.5345660" lon="-8.6454420">
        <ele>43.8</ele>
        <time>2021-05-22T09:49:19Z</time>
      </trkpt>
      <trkpt lat="42.5345830" lon="-8.6454400">
        <ele>43.8</ele>
        <time>2021-05-22T09:49:20Z</time>
      </trkpt>
      <trkpt lat="42.5345970" lon="-8.6454430">
        <ele>43.8</ele>
        <time>2021-05-22T09:49:21Z</time>
      </trkpt>
      <trkpt lat="42.5346140" lon="-8.6454400">
        <ele>43.8</ele>
        <time>2021-05-22T09:49:22Z</time>
      </trkpt>
      <trkpt lat="42.5346380" lon="-8.6454500">
        <ele>43.8</ele>
        <time>2021-05-22T09:49:23Z</time>
      </trkpt>
      <trkpt lat="42.5346460" lon="-8.6454510">
        <ele>43.8</ele>
        <time>2021-05-22T09:49:24Z</time>
      </trkpt>
      <trkpt lat="42.5346540" lon="-8.6454530">
        <ele>43.8</ele>
        <time>2021-05-22T09:49:25Z</time>
      </trkpt>
      <trkpt lat="42.5346640" lon="-8.6454530">
        <ele>43.7</ele>
        <time>2021-05-22T09:49:26Z</time>
      </trkpt>
      <trkpt lat="42.5346770" lon="-8.6454480">
        <ele>43.7</ele>
        <time>2021-05-22T09:49:27Z</time>
      </trkpt>
      <trkpt lat="42.5346890" lon="-8.6454560">
        <ele>43.7</ele>
        <time>2021-05-22T09:49:28Z</time>
      </trkpt>
      <trkpt lat="42.5346950" lon="-8.6454570">
        <ele>43.7</ele>
        <time>2021-05-22T09:49:29Z</time>
      </trkpt>
      <trkpt lat="42.5347100" lon="-8.6454610">
        <ele>43.7</ele>
        <time>2021-05-22T09:49:30Z</time>
      </trkpt>
      <trkpt lat="42.5347170" lon="-8.6454660">
        <ele>43.7</ele>
        <time>2021-05-22T09:49:31Z</time>
      </trkpt>
      <trkpt lat="42.5347270" lon="-8.6454690">
        <ele>43.7</ele>
        <time>2021-05-22T09:49:32Z</time>
      </trkpt>
      <trkpt lat="42.5347310" lon="-8.6454740">
        <ele>43.7</ele>
        <time>2021-05-22T09:49:33Z</time>
      </trkpt>
      <trkpt lat="42.5347450" lon="-8.6454770">
        <ele>43.7</ele>
        <time>2021-05-22T09:49:34Z</time>
      </trkpt>
      <trkpt lat="42.5347610" lon="-8.6454790">
        <ele>43.7</ele>
        <time>2021-05-22T09:49:35Z</time>
      </trkpt>
      <trkpt lat="42.5347640" lon="-8.6454720">
        <ele>43.7</ele>
        <time>2021-05-22T09:49:36Z</time>
      </trkpt>
      <trkpt lat="42.5347650" lon="-8.6454590">
        <ele>43.7</ele>
        <time>2021-05-22T09:49:37Z</time>
      </trkpt>
      <trkpt lat="42.5347640" lon="-8.6454580">
        <ele>43.7</ele>
        <time>2021-05-22T09:49:38Z</time>
      </trkpt>
      <trkpt lat="42.5347720" lon="-8.6454570">
        <ele>43.7</ele>
        <time>2021-05-22T09:49:39Z</time>
      </trkpt>
      <trkpt lat="42.5347850" lon="-8.6454620">
        <ele>43.7</ele>
        <time>2021-05-22T09:49:40Z</time>
      </trkpt>
      <trkpt lat="42.5347890" lon="-8.6454600">
        <ele>43.7</ele>
        <time>2021-05-22T09:49:41Z</time>
      </trkpt>
      <trkpt lat="42.5347930" lon="-8.6454590">
        <ele>43.7</ele>
        <time>2021-05-22T09:49:42Z</time>
      </trkpt>
      <trkpt lat="42.5347970" lon="-8.6454580">
        <ele>43.7</ele>
        <time>2021-05-22T09:49:43Z</time>
      </trkpt>
      <trkpt lat="42.5348010" lon="-8.6454570">
        <ele>43.7</ele>
        <time>2021-05-22T09:49:44Z</time>
      </trkpt>
      <trkpt lat="42.5348050" lon="-8.6454550">
        <ele>43.7</ele>
        <time>2021-05-22T09:49:45Z</time>
      </trkpt>
      <trkpt lat="42.5348090" lon="-8.6454540">
        <ele>43.7</ele>
        <time>2021-05-22T09:49:46Z</time>
      </trkpt>
      <trkpt lat="42.5348190" lon="-8.6454560">
        <ele>43.7</ele>
        <time>2021-05-22T09:49:47Z</time>
      </trkpt>
      <trkpt lat="42.5348200" lon="-8.6454590">
        <ele>43.7</ele>
        <time>2021-05-22T09:49:48Z</time>
      </trkpt>
      <trkpt lat="42.5348360" lon="-8.6454620">
        <ele>43.6</ele>
        <time>2021-05-22T09:49:49Z</time>
      </trkpt>
      <trkpt lat="42.5348430" lon="-8.6454620">
        <ele>43.6</ele>
        <time>2021-05-22T09:49:50Z</time>
      </trkpt>
      <trkpt lat="42.5348560" lon="-8.6454670">
        <ele>43.6</ele>
        <time>2021-05-22T09:49:51Z</time>
      </trkpt>
      <trkpt lat="42.5348700" lon="-8.6454790">
        <ele>43.6</ele>
        <time>2021-05-22T09:49:52Z</time>
      </trkpt>
      <trkpt lat="42.5348850" lon="-8.6454800">
        <ele>43.6</ele>
        <time>2021-05-22T09:49:53Z</time>
      </trkpt>
      <trkpt lat="42.5348980" lon="-8.6454730">
        <ele>43.6</ele>
        <time>2021-05-22T09:49:54Z</time>
      </trkpt>
      <trkpt lat="42.5349180" lon="-8.6454740">
        <ele>43.6</ele>
        <time>2021-05-22T09:49:55Z</time>
      </trkpt>
      <trkpt lat="42.5349280" lon="-8.6454710">
        <ele>43.6</ele>
        <time>2021-05-22T09:49:56Z</time>
      </trkpt>
      <trkpt lat="42.5349370" lon="-8.6454690">
        <ele>43.6</ele>
        <time>2021-05-22T09:49:57Z</time>
      </trkpt>
      <trkpt lat="42.5349450" lon="-8.6454650">
        <ele>43.6</ele>
        <time>2021-05-22T09:49:58Z</time>
      </trkpt>
      <trkpt lat="42.5349580" lon="-8.6454630">
        <ele>43.6</ele>
        <time>2021-05-22T09:49:59Z</time>
      </trkpt>
      <trkpt lat="42.5349690" lon="-8.6454620">
        <ele>43.6</ele>
        <time>2021-05-22T09:50:00Z</time>
      </trkpt>
      <trkpt lat="42.5349920" lon="-8.6454610">
        <ele>43.6</ele>
        <time>2021-05-22T09:50:01Z</time>
      </trkpt>
      <trkpt lat="42.5349990" lon="-8.6454620">
        <ele>43.6</ele>
        <time>2021-05-22T09:50:02Z</time>
      </trkpt>
      <trkpt lat="42.5350070" lon="-8.6454640">
        <ele>43.6</ele>
        <time>2021-05-22T09:50:03Z</time>
      </trkpt>
      <trkpt lat="42.5350210" lon="-8.6454650">
        <ele>43.6</ele>
        <time>2021-05-22T09:50:04Z</time>
      </trkpt>
      <trkpt lat="42.5350330" lon="-8.6454680">
        <ele>43.6</ele>
        <time>2021-05-22T09:50:05Z</time>
      </trkpt>
      <trkpt lat="42.5350380" lon="-8.6454720">
        <ele>43.6</ele>
        <time>2021-05-22T09:50:06Z</time>
      </trkpt>
      <trkpt lat="42.5350520" lon="-8.6454770">
        <ele>43.6</ele>
        <time>2021-05-22T09:50:07Z</time>
      </trkpt>
      <trkpt lat="42.5350670" lon="-8.6454820">
        <ele>43.6</ele>
        <time>2021-05-22T09:50:08Z</time>
      </trkpt>
      <trkpt lat="42.5350830" lon="-8.6454920">
        <ele>43.6</ele>
        <time>2021-05-22T09:50:09Z</time>
      </trkpt>
      <trkpt lat="42.5350850" lon="-8.6454990">
        <ele>43.6</ele>
        <time>2021-05-22T09:50:10Z</time>
      </trkpt>
      <trkpt lat="42.5350880" lon="-8.6455050">
        <ele>43.6</ele>
        <time>2021-05-22T09:50:11Z</time>
      </trkpt>
      <trkpt lat="42.5350900" lon="-8.6455120">
        <ele>43.6</ele>
        <time>2021-05-22T09:50:12Z</time>
      </trkpt>
      <trkpt lat="42.5350930" lon="-8.6455180">
        <ele>43.6</ele>
        <time>2021-05-22T09:50:13Z</time>
      </trkpt>
      <trkpt lat="42.5351050" lon="-8.6455190">
        <ele>43.6</ele>
        <time>2021-05-22T09:50:14Z</time>
      </trkpt>
      <trkpt lat="42.5351130" lon="-8.6455250">
        <ele>43.5</ele>
        <time>2021-05-22T09:50:15Z</time>
      </trkpt>
      <trkpt lat="42.5351220" lon="-8.6455300">
        <ele>43.5</ele>
        <time>2021-05-22T09:50:16Z</time>
      </trkpt>
      <trkpt lat="42.5351360" lon="-8.6455420">
        <ele>43.5</ele>
        <time>2021-05-22T09:50:17Z</time>
      </trkpt>
      <trkpt lat="42.5351440" lon="-8.6455560">
        <ele>43.5</ele>
        <time>2021-05-22T09:50:18Z</time>
      </trkpt>
      <trkpt lat="42.5351520" lon="-8.6455640">
        <ele>43.5</ele>
        <time>2021-05-22T09:50:19Z</time>
      </trkpt>
      <trkpt lat="42.5351610" lon="-8.6455730">
        <ele>43.5</ele>
        <time>2021-05-22T09:50:20Z</time>
      </trkpt>
      <trkpt lat="42.5351720" lon="-8.6455810">
        <ele>43.5</ele>
        <time>2021-05-22T09:50:21Z</time>
      </trkpt>
      <trkpt lat="42.5351920" lon="-8.6455920">
        <ele>43.5</ele>
        <time>2021-05-22T09:50:22Z</time>
      </trkpt>
      <trkpt lat="42.5352000" lon="-8.6455980">
        <ele>43.5</ele>
        <time>2021-05-22T09:50:23Z</time>
      </trkpt>
      <trkpt lat="42.5352080" lon="-8.6456030">
        <ele>43.5</ele>
        <time>2021-05-22T09:50:24Z</time>
      </trkpt>
      <trkpt lat="42.5352200" lon="-8.6456050">
        <ele>43.5</ele>
        <time>2021-05-22T09:50:25Z</time>
      </trkpt>
      <trkpt lat="42.5352310" lon="-8.6456080">
        <ele>43.5</ele>
        <time>2021-05-22T09:50:26Z</time>
      </trkpt>
      <trkpt lat="42.5352430" lon="-8.6456100">
        <ele>43.5</ele>
        <time>2021-05-22T09:50:27Z</time>
      </trkpt>
      <trkpt lat="42.5352530" lon="-8.6456140">
        <ele>43.5</ele>
        <time>2021-05-22T09:50:28Z</time>
      </trkpt>
      <trkpt lat="42.5352660" lon="-8.6456110">
        <ele>43.4</ele>
        <time>2021-05-22T09:50:29Z</time>
      </trkpt>
      <trkpt lat="42.5352760" lon="-8.6456080">
        <ele>43.4</ele>
        <time>2021-05-22T09:50:30Z</time>
      </trkpt>
      <trkpt lat="42.5352870" lon="-8.6456040">
        <ele>43.4</ele>
        <time>2021-05-22T09:50:31Z</time>
      </trkpt>
      <trkpt lat="42.5352980" lon="-8.6456010">
        <ele>43.4</ele>
        <time>2021-05-22T09:50:32Z</time>
      </trkpt>
      <trkpt lat="42.5353100" lon="-8.6455970">
        <ele>43.4</ele>
        <time>2021-05-22T09:50:33Z</time>
      </trkpt>
      <trkpt lat="42.5353210" lon="-8.6455880">
        <ele>43.4</ele>
        <time>2021-05-22T09:50:34Z</time>
      </trkpt>
      <trkpt lat="42.5353370" lon="-8.6455860">
        <ele>43.4</ele>
        <time>2021-05-22T09:50:35Z</time>
      </trkpt>
      <trkpt lat="42.5353480" lon="-8.6455860">
        <ele>43.4</ele>
        <time>2021-05-22T09:50:36Z</time>
      </trkpt>
      <trkpt lat="42.5353620" lon="-8.6455830">
        <ele>43.3</ele>
        <time>2021-05-22T09:50:37Z</time>
      </trkpt>
      <trkpt lat="42.5353730" lon="-8.6455850">
        <ele>43.3</ele>
        <time>2021-05-22T09:50:38Z</time>
      </trkpt>
      <trkpt lat="42.5353830" lon="-8.6455830">
        <ele>43.3</ele>
        <time>2021-05-22T09:50:39Z</time>
      </trkpt>
      <trkpt lat="42.5353940" lon="-8.6455800">
        <ele>43.3</ele>
        <time>2021-05-22T09:50:40Z</time>
      </trkpt>
      <trkpt lat="42.5354040" lon="-8.6455800">
        <ele>43.3</ele>
        <time>2021-05-22T09:50:41Z</time>
      </trkpt>
      <trkpt lat="42.5354150" lon="-8.6455800">
        <ele>43.3</ele>
        <time>2021-05-22T09:50:42Z</time>
      </trkpt>
      <trkpt lat="42.5354280" lon="-8.6455810">
        <ele>43.3</ele>
        <time>2021-05-22T09:50:43Z</time>
      </trkpt>
      <trkpt lat="42.5354400" lon="-8.6455760">
        <ele>43.3</ele>
        <time>2021-05-22T09:50:44Z</time>
      </trkpt>
      <trkpt lat="42.5354530" lon="-8.6455720">
        <ele>43.2</ele>
        <time>2021-05-22T09:50:45Z</time>
      </trkpt>
      <trkpt lat="42.5354610" lon="-8.6455670">
        <ele>43.2</ele>
        <time>2021-05-22T09:50:46Z</time>
      </trkpt>
      <trkpt lat="42.5354720" lon="-8.6455670">
        <ele>43.2</ele>
        <time>2021-05-22T09:50:47Z</time>
      </trkpt>
      <trkpt lat="42.5354830" lon="-8.6455700">
        <ele>43.2</ele>
        <time>2021-05-22T09:50:48Z</time>
      </trkpt>
      <trkpt lat="42.5354960" lon="-8.6455680">
        <ele>43.2</ele>
        <time>2021-05-22T09:50:49Z</time>
      </trkpt>
      <trkpt lat="42.5355080" lon="-8.6455690">
        <ele>43.2</ele>
        <time>2021-05-22T09:50:50Z</time>
      </trkpt>
      <trkpt lat="42.5355180" lon="-8.6455690">
        <ele>43.2</ele>
        <time>2021-05-22T09:50:51Z</time>
      </trkpt>
      <trkpt lat="42.5355280" lon="-8.6455630">
        <ele>43.2</ele>
        <time>2021-05-22T09:50:52Z</time>
      </trkpt>
      <trkpt lat="42.5355400" lon="-8.6455580">
        <ele>43.2</ele>
        <time>2021-05-22T09:50:53Z</time>
      </trkpt>
      <trkpt lat="42.5355480" lon="-8.6455540">
        <ele>43.2</ele>
        <time>2021-05-22T09:50:54Z</time>
      </trkpt>
      <trkpt lat="42.5355620" lon="-8.6455510">
        <ele>43.1</ele>
        <time>2021-05-22T09:50:55Z</time>
      </trkpt>
      <trkpt lat="42.5355720" lon="-8.6455510">
        <ele>43.1</ele>
        <time>2021-05-22T09:50:56Z</time>
      </trkpt>
      <trkpt lat="42.5355830" lon="-8.6455440">
        <ele>43.1</ele>
        <time>2021-05-22T09:50:57Z</time>
      </trkpt>
      <trkpt lat="42.5355910" lon="-8.6455380">
        <ele>43.1</ele>
        <time>2021-05-22T09:50:58Z</time>
      </trkpt>
      <trkpt lat="42.5356030" lon="-8.6455340">
        <ele>43.1</ele>
        <time>2021-05-22T09:50:59Z</time>
      </trkpt>
      <trkpt lat="42.5356230" lon="-8.6455300">
        <ele>43.1</ele>
        <time>2021-05-22T09:51:00Z</time>
      </trkpt>
      <trkpt lat="42.5356330" lon="-8.6455270">
        <ele>43.1</ele>
        <time>2021-05-22T09:51:01Z</time>
      </trkpt>
      <trkpt lat="42.5356490" lon="-8.6455240">
        <ele>43.0</ele>
        <time>2021-05-22T09:51:02Z</time>
      </trkpt>
      <trkpt lat="42.5356600" lon="-8.6455240">
        <ele>43.0</ele>
        <time>2021-05-22T09:51:03Z</time>
      </trkpt>
      <trkpt lat="42.5356710" lon="-8.6455230">
        <ele>43.0</ele>
        <time>2021-05-22T09:51:04Z</time>
      </trkpt>
      <trkpt lat="42.5356930" lon="-8.6455200">
        <ele>43.0</ele>
        <time>2021-05-22T09:51:05Z</time>
      </trkpt>
      <trkpt lat="42.5357010" lon="-8.6455200">
        <ele>43.0</ele>
        <time>2021-05-22T09:51:06Z</time>
      </trkpt>
      <trkpt lat="42.5357080" lon="-8.6455200">
        <ele>43.0</ele>
        <time>2021-05-22T09:51:07Z</time>
      </trkpt>
      <trkpt lat="42.5357220" lon="-8.6455240">
        <ele>43.0</ele>
        <time>2021-05-22T09:51:08Z</time>
      </trkpt>
      <trkpt lat="42.5357340" lon="-8.6455170">
        <ele>42.9</ele>
        <time>2021-05-22T09:51:09Z</time>
      </trkpt>
      <trkpt lat="42.5357390" lon="-8.6455180">
        <ele>42.9</ele>
        <time>2021-05-22T09:51:10Z</time>
      </trkpt>
      <trkpt lat="42.5357570" lon="-8.6455220">
        <ele>42.9</ele>
        <time>2021-05-22T09:51:11Z</time>
      </trkpt>
      <trkpt lat="42.5357670" lon="-8.6455160">
        <ele>42.9</ele>
        <time>2021-05-22T09:51:12Z</time>
      </trkpt>
      <trkpt lat="42.5357800" lon="-8.6455130">
        <ele>42.9</ele>
        <time>2021-05-22T09:51:13Z</time>
      </trkpt>
      <trkpt lat="42.5357920" lon="-8.6455100">
        <ele>42.9</ele>
        <time>2021-05-22T09:51:14Z</time>
      </trkpt>
      <trkpt lat="42.5358020" lon="-8.6455050">
        <ele>42.9</ele>
        <time>2021-05-22T09:51:15Z</time>
      </trkpt>
      <trkpt lat="42.5358160" lon="-8.6455030">
        <ele>42.9</ele>
        <time>2021-05-22T09:51:16Z</time>
      </trkpt>
      <trkpt lat="42.5358300" lon="-8.6455010">
        <ele>42.8</ele>
        <time>2021-05-22T09:51:17Z</time>
      </trkpt>
      <trkpt lat="42.5358380" lon="-8.6455030">
        <ele>42.8</ele>
        <time>2021-05-22T09:51:18Z</time>
      </trkpt>
      <trkpt lat="42.5358490" lon="-8.6455040">
        <ele>42.8</ele>
        <time>2021-05-22T09:51:19Z</time>
      </trkpt>
      <trkpt lat="42.5358600" lon="-8.6455050">
        <ele>42.8</ele>
        <time>2021-05-22T09:51:20Z</time>
      </trkpt>
      <trkpt lat="42.5358800" lon="-8.6455050">
        <ele>42.8</ele>
        <time>2021-05-22T09:51:21Z</time>
      </trkpt>
      <trkpt lat="42.5358890" lon="-8.6455050">
        <ele>42.8</ele>
        <time>2021-05-22T09:51:22Z</time>
      </trkpt>
      <trkpt lat="42.5358970" lon="-8.6455040">
        <ele>42.8</ele>
        <time>2021-05-22T09:51:23Z</time>
      </trkpt>
      <trkpt lat="42.5359090" lon="-8.6455030">
        <ele>42.8</ele>
        <time>2021-05-22T09:51:24Z</time>
      </trkpt>
      <trkpt lat="42.5359200" lon="-8.6455040">
        <ele>42.8</ele>
        <time>2021-05-22T09:51:25Z</time>
      </trkpt>
      <trkpt lat="42.5359310" lon="-8.6455040">
        <ele>42.8</ele>
        <time>2021-05-22T09:51:26Z</time>
      </trkpt>
      <trkpt lat="42.5359530" lon="-8.6455010">
        <ele>42.8</ele>
        <time>2021-05-22T09:51:27Z</time>
      </trkpt>
      <trkpt lat="42.5359620" lon="-8.6455000">
        <ele>42.8</ele>
        <time>2021-05-22T09:51:28Z</time>
      </trkpt>
      <trkpt lat="42.5359700" lon="-8.6454980">
        <ele>42.8</ele>
        <time>2021-05-22T09:51:29Z</time>
      </trkpt>
      <trkpt lat="42.5359810" lon="-8.6454950">
        <ele>42.8</ele>
        <time>2021-05-22T09:51:30Z</time>
      </trkpt>
      <trkpt lat="42.5359930" lon="-8.6454920">
        <ele>42.7</ele>
        <time>2021-05-22T09:51:31Z</time>
      </trkpt>
      <trkpt lat="42.5360030" lon="-8.6454900">
        <ele>42.7</ele>
        <time>2021-05-22T09:51:32Z</time>
      </trkpt>
      <trkpt lat="42.5360120" lon="-8.6454900">
        <ele>42.7</ele>
        <time>2021-05-22T09:51:33Z</time>
      </trkpt>
      <trkpt lat="42.5360220" lon="-8.6454870">
        <ele>42.7</ele>
        <time>2021-05-22T09:51:34Z</time>
      </trkpt>
      <trkpt lat="42.5360340" lon="-8.6454820">
        <ele>42.7</ele>
        <time>2021-05-22T09:51:35Z</time>
      </trkpt>
      <trkpt lat="42.5360450" lon="-8.6454800">
        <ele>42.7</ele>
        <time>2021-05-22T09:51:36Z</time>
      </trkpt>
      <trkpt lat="42.5360580" lon="-8.6454790">
        <ele>42.7</ele>
        <time>2021-05-22T09:51:37Z</time>
      </trkpt>
      <trkpt lat="42.5360690" lon="-8.6454780">
        <ele>42.7</ele>
        <time>2021-05-22T09:51:38Z</time>
      </trkpt>
      <trkpt lat="42.5360770" lon="-8.6454730">
        <ele>42.7</ele>
        <time>2021-05-22T09:51:39Z</time>
      </trkpt>
      <trkpt lat="42.5360860" lon="-8.6454730">
        <ele>42.7</ele>
        <time>2021-05-22T09:51:40Z</time>
      </trkpt>
      <trkpt lat="42.5360970" lon="-8.6454710">
        <ele>42.7</ele>
        <time>2021-05-22T09:51:41Z</time>
      </trkpt>
      <trkpt lat="42.5361160" lon="-8.6454600">
        <ele>42.7</ele>
        <time>2021-05-22T09:51:42Z</time>
      </trkpt>
      <trkpt lat="42.5361250" lon="-8.6454560">
        <ele>42.7</ele>
        <time>2021-05-22T09:51:43Z</time>
      </trkpt>
      <trkpt lat="42.5361330" lon="-8.6454510">
        <ele>42.7</ele>
        <time>2021-05-22T09:51:44Z</time>
      </trkpt>
      <trkpt lat="42.5361510" lon="-8.6454380">
        <ele>42.7</ele>
        <time>2021-05-22T09:51:45Z</time>
      </trkpt>
      <trkpt lat="42.5361600" lon="-8.6454340">
        <ele>42.7</ele>
        <time>2021-05-22T09:51:46Z</time>
      </trkpt>
      <trkpt lat="42.5361680" lon="-8.6454300">
        <ele>42.7</ele>
        <time>2021-05-22T09:51:47Z</time>
      </trkpt>
      <trkpt lat="42.5361830" lon="-8.6454200">
        <ele>42.7</ele>
        <time>2021-05-22T09:51:48Z</time>
      </trkpt>
      <trkpt lat="42.5361900" lon="-8.6454160">
        <ele>42.7</ele>
        <time>2021-05-22T09:51:49Z</time>
      </trkpt>
      <trkpt lat="42.5361960" lon="-8.6454120">
        <ele>42.7</ele>
        <time>2021-05-22T09:51:50Z</time>
      </trkpt>
      <trkpt lat="42.5362020" lon="-8.6454080">
        <ele>42.7</ele>
        <time>2021-05-22T09:51:51Z</time>
      </trkpt>
      <trkpt lat="42.5362130" lon="-8.6454050">
        <ele>42.7</ele>
        <time>2021-05-22T09:51:52Z</time>
      </trkpt>
      <trkpt lat="42.5362290" lon="-8.6453970">
        <ele>42.7</ele>
        <time>2021-05-22T09:51:53Z</time>
      </trkpt>
      <trkpt lat="42.5362420" lon="-8.6453880">
        <ele>42.7</ele>
        <time>2021-05-22T09:51:54Z</time>
      </trkpt>
      <trkpt lat="42.5362560" lon="-8.6453830">
        <ele>42.7</ele>
        <time>2021-05-22T09:51:55Z</time>
      </trkpt>
      <trkpt lat="42.5362770" lon="-8.6453750">
        <ele>42.7</ele>
        <time>2021-05-22T09:51:56Z</time>
      </trkpt>
      <trkpt lat="42.5362840" lon="-8.6453720">
        <ele>42.7</ele>
        <time>2021-05-22T09:51:57Z</time>
      </trkpt>
      <trkpt lat="42.5362920" lon="-8.6453680">
        <ele>42.7</ele>
        <time>2021-05-22T09:51:58Z</time>
      </trkpt>
      <trkpt lat="42.5363030" lon="-8.6453640">
        <ele>42.7</ele>
        <time>2021-05-22T09:51:59Z</time>
      </trkpt>
      <trkpt lat="42.5363120" lon="-8.6453560">
        <ele>42.7</ele>
        <time>2021-05-22T09:52:00Z</time>
      </trkpt>
      <trkpt lat="42.5363230" lon="-8.6453530">
        <ele>42.6</ele>
        <time>2021-05-22T09:52:01Z</time>
      </trkpt>
      <trkpt lat="42.5363330" lon="-8.6453450">
        <ele>42.6</ele>
        <time>2021-05-22T09:52:02Z</time>
      </trkpt>
      <trkpt lat="42.5363430" lon="-8.6453390">
        <ele>42.6</ele>
        <time>2021-05-22T09:52:03Z</time>
      </trkpt>
      <trkpt lat="42.5363550" lon="-8.6453310">
        <ele>42.6</ele>
        <time>2021-05-22T09:52:04Z</time>
      </trkpt>
      <trkpt lat="42.5363690" lon="-8.6453230">
        <ele>42.6</ele>
        <time>2021-05-22T09:52:05Z</time>
      </trkpt>
      <trkpt lat="42.5363800" lon="-8.6453160">
        <ele>42.6</ele>
        <time>2021-05-22T09:52:06Z</time>
      </trkpt>
      <trkpt lat="42.5363870" lon="-8.6453060">
        <ele>42.6</ele>
        <time>2021-05-22T09:52:07Z</time>
      </trkpt>
      <trkpt lat="42.5363990" lon="-8.6453030">
        <ele>42.6</ele>
        <time>2021-05-22T09:52:08Z</time>
      </trkpt>
      <trkpt lat="42.5364120" lon="-8.6452970">
        <ele>42.6</ele>
        <time>2021-05-22T09:52:09Z</time>
      </trkpt>
      <trkpt lat="42.5364270" lon="-8.6452920">
        <ele>42.6</ele>
        <time>2021-05-22T09:52:10Z</time>
      </trkpt>
      <trkpt lat="42.5364410" lon="-8.6452890">
        <ele>42.6</ele>
        <time>2021-05-22T09:52:11Z</time>
      </trkpt>
      <trkpt lat="42.5364590" lon="-8.6452800">
        <ele>42.5</ele>
        <time>2021-05-22T09:52:12Z</time>
      </trkpt>
      <trkpt lat="42.5364680" lon="-8.6452770">
        <ele>42.5</ele>
        <time>2021-05-22T09:52:13Z</time>
      </trkpt>
      <trkpt lat="42.5364770" lon="-8.6452740">
        <ele>42.5</ele>
        <time>2021-05-22T09:52:14Z</time>
      </trkpt>
      <trkpt lat="42.5364860" lon="-8.6452670">
        <ele>42.5</ele>
        <time>2021-05-22T09:52:15Z</time>
      </trkpt>
      <trkpt lat="42.5364960" lon="-8.6452590">
        <ele>42.5</ele>
        <time>2021-05-22T09:52:16Z</time>
      </trkpt>
      <trkpt lat="42.5365090" lon="-8.6452590">
        <ele>42.5</ele>
        <time>2021-05-22T09:52:17Z</time>
      </trkpt>
      <trkpt lat="42.5365200" lon="-8.6452510">
        <ele>42.5</ele>
        <time>2021-05-22T09:52:18Z</time>
      </trkpt>
      <trkpt lat="42.5365290" lon="-8.6452480">
        <ele>42.5</ele>
        <time>2021-05-22T09:52:19Z</time>
      </trkpt>
      <trkpt lat="42.5365390" lon="-8.6452470">
        <ele>42.5</ele>
        <time>2021-05-22T09:52:20Z</time>
      </trkpt>
      <trkpt lat="42.5365490" lon="-8.6452470">
        <ele>42.4</ele>
        <time>2021-05-22T09:52:21Z</time>
      </trkpt>
      <trkpt lat="42.5365550" lon="-8.6452490">
        <ele>42.4</ele>
        <time>2021-05-22T09:52:22Z</time>
      </trkpt>
      <trkpt lat="42.5365720" lon="-8.6452480">
        <ele>42.4</ele>
        <time>2021-05-22T09:52:23Z</time>
      </trkpt>
      <trkpt lat="42.5365810" lon="-8.6452540">
        <ele>42.4</ele>
        <time>2021-05-22T09:52:24Z</time>
      </trkpt>
      <trkpt lat="42.5365900" lon="-8.6452510">
        <ele>42.4</ele>
        <time>2021-05-22T09:52:25Z</time>
      </trkpt>
      <trkpt lat="42.5366030" lon="-8.6452460">
        <ele>42.4</ele>
        <time>2021-05-22T09:52:26Z</time>
      </trkpt>
      <trkpt lat="42.5366130" lon="-8.6452400">
        <ele>42.4</ele>
        <time>2021-05-22T09:52:27Z</time>
      </trkpt>
      <trkpt lat="42.5366230" lon="-8.6452340">
        <ele>42.4</ele>
        <time>2021-05-22T09:52:28Z</time>
      </trkpt>
      <trkpt lat="42.5366290" lon="-8.6452360">
        <ele>42.3</ele>
        <time>2021-05-22T09:52:29Z</time>
      </trkpt>
      <trkpt lat="42.5366420" lon="-8.6452390">
        <ele>42.3</ele>
        <time>2021-05-22T09:52:30Z</time>
      </trkpt>
      <trkpt lat="42.5366560" lon="-8.6452350">
        <ele>42.3</ele>
        <time>2021-05-22T09:52:31Z</time>
      </trkpt>
      <trkpt lat="42.5366650" lon="-8.6452390">
        <ele>42.3</ele>
        <time>2021-05-22T09:52:32Z</time>
      </trkpt>
      <trkpt lat="42.5366740" lon="-8.6452390">
        <ele>42.3</ele>
        <time>2021-05-22T09:52:33Z</time>
      </trkpt>
      <trkpt lat="42.5366890" lon="-8.6452370">
        <ele>42.2</ele>
        <time>2021-05-22T09:52:34Z</time>
      </trkpt>
      <trkpt lat="42.5366990" lon="-8.6452370">
        <ele>42.2</ele>
        <time>2021-05-22T09:52:35Z</time>
      </trkpt>
      <trkpt lat="42.5367100" lon="-8.6452320">
        <ele>42.2</ele>
        <time>2021-05-22T09:52:36Z</time>
      </trkpt>
      <trkpt lat="42.5367240" lon="-8.6452340">
        <ele>42.2</ele>
        <time>2021-05-22T09:52:37Z</time>
      </trkpt>
      <trkpt lat="42.5367520" lon="-8.6452330">
        <ele>42.1</ele>
        <time>2021-05-22T09:52:38Z</time>
      </trkpt>
      <trkpt lat="42.5367610" lon="-8.6452340">
        <ele>42.1</ele>
        <time>2021-05-22T09:52:39Z</time>
      </trkpt>
      <trkpt lat="42.5367790" lon="-8.6452290">
        <ele>42.0</ele>
        <time>2021-05-22T09:52:40Z</time>
      </trkpt>
      <trkpt lat="42.5367900" lon="-8.6452330">
        <ele>42.0</ele>
        <time>2021-05-22T09:52:41Z</time>
      </trkpt>
      <trkpt lat="42.5368040" lon="-8.6452310">
        <ele>42.0</ele>
        <time>2021-05-22T09:52:42Z</time>
      </trkpt>
      <trkpt lat="42.5368160" lon="-8.6452340">
        <ele>41.9</ele>
        <time>2021-05-22T09:52:43Z</time>
      </trkpt>
      <trkpt lat="42.5368260" lon="-8.6452330">
        <ele>41.9</ele>
        <time>2021-05-22T09:52:44Z</time>
      </trkpt>
      <trkpt lat="42.5368420" lon="-8.6452330">
        <ele>41.8</ele>
        <time>2021-05-22T09:52:45Z</time>
      </trkpt>
      <trkpt lat="42.5368500" lon="-8.6452360">
        <ele>41.8</ele>
        <time>2021-05-22T09:52:46Z</time>
      </trkpt>
      <trkpt lat="42.5368570" lon="-8.6452390">
        <ele>41.8</ele>
        <time>2021-05-22T09:52:47Z</time>
      </trkpt>
      <trkpt lat="42.5368640" lon="-8.6452420">
        <ele>41.8</ele>
        <time>2021-05-22T09:52:48Z</time>
      </trkpt>
      <trkpt lat="42.5368700" lon="-8.6452460">
        <ele>41.8</ele>
        <time>2021-05-22T09:52:49Z</time>
      </trkpt>
      <trkpt lat="42.5368820" lon="-8.6452520">
        <ele>41.7</ele>
        <time>2021-05-22T09:52:50Z</time>
      </trkpt>
      <trkpt lat="42.5368890" lon="-8.6452620">
        <ele>41.7</ele>
        <time>2021-05-22T09:52:51Z</time>
      </trkpt>
      <trkpt lat="42.5369040" lon="-8.6452660">
        <ele>41.6</ele>
        <time>2021-05-22T09:52:52Z</time>
      </trkpt>
      <trkpt lat="42.5369170" lon="-8.6452710">
        <ele>41.6</ele>
        <time>2021-05-22T09:52:53Z</time>
      </trkpt>
      <trkpt lat="42.5369340" lon="-8.6452880">
        <ele>41.5</ele>
        <time>2021-05-22T09:52:54Z</time>
      </trkpt>
      <trkpt lat="42.5369420" lon="-8.6452940">
        <ele>41.5</ele>
        <time>2021-05-22T09:52:55Z</time>
      </trkpt>
      <trkpt lat="42.5369490" lon="-8.6453010">
        <ele>41.5</ele>
        <time>2021-05-22T09:52:56Z</time>
      </trkpt>
      <trkpt lat="42.5369620" lon="-8.6453050">
        <ele>41.4</ele>
        <time>2021-05-22T09:52:57Z</time>
      </trkpt>
      <trkpt lat="42.5369700" lon="-8.6453050">
        <ele>41.4</ele>
        <time>2021-05-22T09:52:58Z</time>
      </trkpt>
      <trkpt lat="42.5369800" lon="-8.6453150">
        <ele>41.4</ele>
        <time>2021-05-22T09:52:59Z</time>
      </trkpt>
      <trkpt lat="42.5369920" lon="-8.6453240">
        <ele>41.3</ele>
        <time>2021-05-22T09:53:00Z</time>
      </trkpt>
      <trkpt lat="42.5370040" lon="-8.6453310">
        <ele>41.3</ele>
        <time>2021-05-22T09:53:01Z</time>
      </trkpt>
      <trkpt lat="42.5370190" lon="-8.6453370">
        <ele>41.2</ele>
        <time>2021-05-22T09:53:02Z</time>
      </trkpt>
      <trkpt lat="42.5370270" lon="-8.6453430">
        <ele>41.2</ele>
        <time>2021-05-22T09:53:03Z</time>
      </trkpt>
      <trkpt lat="42.5370390" lon="-8.6453470">
        <ele>41.2</ele>
        <time>2021-05-22T09:53:04Z</time>
      </trkpt>
      <trkpt lat="42.5370490" lon="-8.6453540">
        <ele>41.1</ele>
        <time>2021-05-22T09:53:05Z</time>
      </trkpt>
      <trkpt lat="42.5370630" lon="-8.6453630">
        <ele>41.1</ele>
        <time>2021-05-22T09:53:06Z</time>
      </trkpt>
      <trkpt lat="42.5370720" lon="-8.6453790">
        <ele>41.1</ele>
        <time>2021-05-22T09:53:07Z</time>
      </trkpt>
      <trkpt lat="42.5370840" lon="-8.6453920">
        <ele>41.0</ele>
        <time>2021-05-22T09:53:08Z</time>
      </trkpt>
      <trkpt lat="42.5370890" lon="-8.6453960">
        <ele>41.0</ele>
        <time>2021-05-22T09:53:09Z</time>
      </trkpt>
      <trkpt lat="42.5371010" lon="-8.6454050">
        <ele>41.0</ele>
        <time>2021-05-22T09:53:10Z</time>
      </trkpt>
      <trkpt lat="42.5371070" lon="-8.6454190">
        <ele>40.9</ele>
        <time>2021-05-22T09:53:11Z</time>
      </trkpt>
      <trkpt lat="42.5371260" lon="-8.6454280">
        <ele>40.9</ele>
        <time>2021-05-22T09:53:12Z</time>
      </trkpt>
      <trkpt lat="42.5371400" lon="-8.6454380">
        <ele>40.8</ele>
        <time>2021-05-22T09:53:13Z</time>
      </trkpt>
      <trkpt lat="42.5371510" lon="-8.6454620">
        <ele>40.8</ele>
        <time>2021-05-22T09:53:14Z</time>
      </trkpt>
      <trkpt lat="42.5371580" lon="-8.6454690">
        <ele>40.8</ele>
        <time>2021-05-22T09:53:15Z</time>
      </trkpt>
      <trkpt lat="42.5371650" lon="-8.6454760">
        <ele>40.7</ele>
        <time>2021-05-22T09:53:16Z</time>
      </trkpt>
      <trkpt lat="42.5371790" lon="-8.6454780">
        <ele>40.7</ele>
        <time>2021-05-22T09:53:17Z</time>
      </trkpt>
      <trkpt lat="42.5371990" lon="-8.6454860">
        <ele>40.7</ele>
        <time>2021-05-22T09:53:18Z</time>
      </trkpt>
      <trkpt lat="42.5372140" lon="-8.6454900">
        <ele>40.6</ele>
        <time>2021-05-22T09:53:19Z</time>
      </trkpt>
      <trkpt lat="42.5372270" lon="-8.6454900">
        <ele>40.6</ele>
        <time>2021-05-22T09:53:20Z</time>
      </trkpt>
      <trkpt lat="42.5372480" lon="-8.6454890">
        <ele>40.6</ele>
        <time>2021-05-22T09:53:21Z</time>
      </trkpt>
      <trkpt lat="42.5372550" lon="-8.6454930">
        <ele>40.5</ele>
        <time>2021-05-22T09:53:22Z</time>
      </trkpt>
      <trkpt lat="42.5372750" lon="-8.6454890">
        <ele>40.5</ele>
        <time>2021-05-22T09:53:23Z</time>
      </trkpt>
      <trkpt lat="42.5372850" lon="-8.6454870">
        <ele>40.5</ele>
        <time>2021-05-22T09:53:24Z</time>
      </trkpt>
      <trkpt lat="42.5372960" lon="-8.6454840">
        <ele>40.4</ele>
        <time>2021-05-22T09:53:25Z</time>
      </trkpt>
      <trkpt lat="42.5373030" lon="-8.6454780">
        <ele>40.4</ele>
        <time>2021-05-22T09:53:26Z</time>
      </trkpt>
      <trkpt lat="42.5373160" lon="-8.6454780">
        <ele>40.4</ele>
        <time>2021-05-22T09:53:27Z</time>
      </trkpt>
      <trkpt lat="42.5373300" lon="-8.6454810">
        <ele>40.3</ele>
        <time>2021-05-22T09:53:28Z</time>
      </trkpt>
      <trkpt lat="42.5373350" lon="-8.6454840">
        <ele>40.3</ele>
        <time>2021-05-22T09:53:29Z</time>
      </trkpt>
      <trkpt lat="42.5373450" lon="-8.6454860">
        <ele>40.3</ele>
        <time>2021-05-22T09:53:30Z</time>
      </trkpt>
      <trkpt lat="42.5373530" lon="-8.6454840">
        <ele>40.3</ele>
        <time>2021-05-22T09:53:31Z</time>
      </trkpt>
      <trkpt lat="42.5373660" lon="-8.6454840">
        <ele>40.2</ele>
        <time>2021-05-22T09:53:32Z</time>
      </trkpt>
      <trkpt lat="42.5373840" lon="-8.6454830">
        <ele>40.2</ele>
        <time>2021-05-22T09:53:33Z</time>
      </trkpt>
      <trkpt lat="42.5373940" lon="-8.6454800">
        <ele>40.1</ele>
        <time>2021-05-22T09:53:34Z</time>
      </trkpt>
      <trkpt lat="42.5374070" lon="-8.6454710">
        <ele>40.1</ele>
        <time>2021-05-22T09:53:35Z</time>
      </trkpt>
      <trkpt lat="42.5374200" lon="-8.6454620">
        <ele>40.1</ele>
        <time>2021-05-22T09:53:36Z</time>
      </trkpt>
      <trkpt lat="42.5374340" lon="-8.6454600">
        <ele>40.0</ele>
        <time>2021-05-22T09:53:37Z</time>
      </trkpt>
      <trkpt lat="42.5374480" lon="-8.6454570">
        <ele>40.0</ele>
        <time>2021-05-22T09:53:38Z</time>
      </trkpt>
      <trkpt lat="42.5374700" lon="-8.6454540">
        <ele>39.9</ele>
        <time>2021-05-22T09:53:39Z</time>
      </trkpt>
      <trkpt lat="42.5374780" lon="-8.6454530">
        <ele>39.9</ele>
        <time>2021-05-22T09:53:40Z</time>
      </trkpt>
      <trkpt lat="42.5374860" lon="-8.6454510">
        <ele>39.9</ele>
        <time>2021-05-22T09:53:41Z</time>
      </trkpt>
      <trkpt lat="42.5374970" lon="-8.6454530">
        <ele>39.8</ele>
        <time>2021-05-22T09:53:42Z</time>
      </trkpt>
      <trkpt lat="42.5375070" lon="-8.6454510">
        <ele>39.8</ele>
        <time>2021-05-22T09:53:43Z</time>
      </trkpt>
      <trkpt lat="42.5375150" lon="-8.6454530">
        <ele>39.8</ele>
        <time>2021-05-22T09:53:44Z</time>
      </trkpt>
      <trkpt lat="42.5375270" lon="-8.6454510">
        <ele>39.8</ele>
        <time>2021-05-22T09:53:45Z</time>
      </trkpt>
      <trkpt lat="42.5375370" lon="-8.6454520">
        <ele>39.7</ele>
        <time>2021-05-22T09:53:46Z</time>
      </trkpt>
      <trkpt lat="42.5375490" lon="-8.6454480">
        <ele>39.7</ele>
        <time>2021-05-22T09:53:47Z</time>
      </trkpt>
      <trkpt lat="42.5375590" lon="-8.6454450">
        <ele>39.7</ele>
        <time>2021-05-22T09:53:48Z</time>
      </trkpt>
      <trkpt lat="42.5375680" lon="-8.6454450">
        <ele>39.7</ele>
        <time>2021-05-22T09:53:49Z</time>
      </trkpt>
      <trkpt lat="42.5375790" lon="-8.6454360">
        <ele>39.6</ele>
        <time>2021-05-22T09:53:50Z</time>
      </trkpt>
      <trkpt lat="42.5375900" lon="-8.6454360">
        <ele>39.6</ele>
        <time>2021-05-22T09:53:51Z</time>
      </trkpt>
      <trkpt lat="42.5376000" lon="-8.6454360">
        <ele>39.6</ele>
        <time>2021-05-22T09:53:52Z</time>
      </trkpt>
      <trkpt lat="42.5376110" lon="-8.6454340">
        <ele>39.5</ele>
        <time>2021-05-22T09:53:53Z</time>
      </trkpt>
      <trkpt lat="42.5376180" lon="-8.6454320">
        <ele>39.5</ele>
        <time>2021-05-22T09:53:54Z</time>
      </trkpt>
      <trkpt lat="42.5376330" lon="-8.6454260">
        <ele>39.4</ele>
        <time>2021-05-22T09:53:55Z</time>
      </trkpt>
      <trkpt lat="42.5376450" lon="-8.6454210">
        <ele>39.4</ele>
        <time>2021-05-22T09:53:56Z</time>
      </trkpt>
      <trkpt lat="42.5376690" lon="-8.6454140">
        <ele>39.3</ele>
        <time>2021-05-22T09:53:57Z</time>
      </trkpt>
      <trkpt lat="42.5376810" lon="-8.6454080">
        <ele>39.3</ele>
        <time>2021-05-22T09:53:58Z</time>
      </trkpt>
      <trkpt lat="42.5376930" lon="-8.6454030">
        <ele>39.3</ele>
        <time>2021-05-22T09:53:59Z</time>
      </trkpt>
      <trkpt lat="42.5377050" lon="-8.6453970">
        <ele>39.2</ele>
        <time>2021-05-22T09:54:00Z</time>
      </trkpt>
      <trkpt lat="42.5377200" lon="-8.6453880">
        <ele>39.2</ele>
        <time>2021-05-22T09:54:01Z</time>
      </trkpt>
      <trkpt lat="42.5377320" lon="-8.6453860">
        <ele>39.1</ele>
        <time>2021-05-22T09:54:02Z</time>
      </trkpt>
      <trkpt lat="42.5377430" lon="-8.6453820">
        <ele>39.1</ele>
        <time>2021-05-22T09:54:03Z</time>
      </trkpt>
      <trkpt lat="42.5377530" lon="-8.6453770">
        <ele>39.1</ele>
        <time>2021-05-22T09:54:04Z</time>
      </trkpt>
      <trkpt lat="42.5377750" lon="-8.6453690">
        <ele>39.0</ele>
        <time>2021-05-22T09:54:05Z</time>
      </trkpt>
      <trkpt lat="42.5377840" lon="-8.6453650">
        <ele>39.0</ele>
        <time>2021-05-22T09:54:06Z</time>
      </trkpt>
      <trkpt lat="42.5377940" lon="-8.6453620">
        <ele>39.0</ele>
        <time>2021-05-22T09:54:07Z</time>
      </trkpt>
      <trkpt lat="42.5378060" lon="-8.6453570">
        <ele>38.9</ele>
        <time>2021-05-22T09:54:08Z</time>
      </trkpt>
      <trkpt lat="42.5378170" lon="-8.6453530">
        <ele>38.9</ele>
        <time>2021-05-22T09:54:09Z</time>
      </trkpt>
      <trkpt lat="42.5378280" lon="-8.6453520">
        <ele>38.9</ele>
        <time>2021-05-22T09:54:10Z</time>
      </trkpt>
      <trkpt lat="42.5378410" lon="-8.6453420">
        <ele>38.8</ele>
        <time>2021-05-22T09:54:11Z</time>
      </trkpt>
      <trkpt lat="42.5378550" lon="-8.6453320">
        <ele>38.8</ele>
        <time>2021-05-22T09:54:12Z</time>
      </trkpt>
      <trkpt lat="42.5378690" lon="-8.6453250">
        <ele>38.8</ele>
        <time>2021-05-22T09:54:13Z</time>
      </trkpt>
      <trkpt lat="42.5378820" lon="-8.6453200">
        <ele>38.7</ele>
        <time>2021-05-22T09:54:14Z</time>
      </trkpt>
      <trkpt lat="42.5378970" lon="-8.6453070">
        <ele>38.7</ele>
        <time>2021-05-22T09:54:15Z</time>
      </trkpt>
      <trkpt lat="42.5379080" lon="-8.6452980">
        <ele>38.7</ele>
        <time>2021-05-22T09:54:16Z</time>
      </trkpt>
      <trkpt lat="42.5379220" lon="-8.6452870">
        <ele>38.6</ele>
        <time>2021-05-22T09:54:17Z</time>
      </trkpt>
      <trkpt lat="42.5379370" lon="-8.6452780">
        <ele>38.6</ele>
        <time>2021-05-22T09:54:18Z</time>
      </trkpt>
      <trkpt lat="42.5379420" lon="-8.6452690">
        <ele>38.6</ele>
        <time>2021-05-22T09:54:19Z</time>
      </trkpt>
      <trkpt lat="42.5379570" lon="-8.6452600">
        <ele>38.6</ele>
        <time>2021-05-22T09:54:20Z</time>
      </trkpt>
      <trkpt lat="42.5379660" lon="-8.6452540">
        <ele>38.6</ele>
        <time>2021-05-22T09:54:21Z</time>
      </trkpt>
      <trkpt lat="42.5379780" lon="-8.6452450">
        <ele>38.5</ele>
        <time>2021-05-22T09:54:22Z</time>
      </trkpt>
      <trkpt lat="42.5379910" lon="-8.6452350">
        <ele>38.5</ele>
        <time>2021-05-22T09:54:23Z</time>
      </trkpt>
      <trkpt lat="42.5380100" lon="-8.6452220">
        <ele>38.5</ele>
        <time>2021-05-22T09:54:24Z</time>
      </trkpt>
      <trkpt lat="42.5380190" lon="-8.6452150">
        <ele>38.5</ele>
        <time>2021-05-22T09:54:25Z</time>
      </trkpt>
      <trkpt lat="42.5380270" lon="-8.6452090">
        <ele>38.4</ele>
        <time>2021-05-22T09:54:26Z</time>
      </trkpt>
      <trkpt lat="42.5380370" lon="-8.6452030">
        <ele>38.4</ele>
        <time>2021-05-22T09:54:27Z</time>
      </trkpt>
      <trkpt lat="42.5380460" lon="-8.6452030">
        <ele>38.4</ele>
        <time>2021-05-22T09:54:28Z</time>
      </trkpt>
      <trkpt lat="42.5380550" lon="-8.6452010">
        <ele>38.4</ele>
        <time>2021-05-22T09:54:29Z</time>
      </trkpt>
      <trkpt lat="42.5380630" lon="-8.6451950">
        <ele>38.4</ele>
        <time>2021-05-22T09:54:30Z</time>
      </trkpt>
      <trkpt lat="42.5380740" lon="-8.6451890">
        <ele>38.4</ele>
        <time>2021-05-22T09:54:31Z</time>
      </trkpt>
      <trkpt lat="42.5380840" lon="-8.6451840">
        <ele>38.4</ele>
        <time>2021-05-22T09:54:32Z</time>
      </trkpt>
      <trkpt lat="42.5380950" lon="-8.6451780">
        <ele>38.3</ele>
        <time>2021-05-22T09:54:33Z</time>
      </trkpt>
      <trkpt lat="42.5381090" lon="-8.6451640">
        <ele>38.3</ele>
        <time>2021-05-22T09:54:34Z</time>
      </trkpt>
      <trkpt lat="42.5381220" lon="-8.6451500">
        <ele>38.3</ele>
        <time>2021-05-22T09:54:35Z</time>
      </trkpt>
      <trkpt lat="42.5381320" lon="-8.6451470">
        <ele>38.3</ele>
        <time>2021-05-22T09:54:36Z</time>
      </trkpt>
      <trkpt lat="42.5381410" lon="-8.6451450">
        <ele>38.3</ele>
        <time>2021-05-22T09:54:37Z</time>
      </trkpt>
      <trkpt lat="42.5381490" lon="-8.6451320">
        <ele>38.3</ele>
        <time>2021-05-22T09:54:38Z</time>
      </trkpt>
      <trkpt lat="42.5381560" lon="-8.6451280">
        <ele>38.2</ele>
        <time>2021-05-22T09:54:39Z</time>
      </trkpt>
      <trkpt lat="42.5381480" lon="-8.6451270">
        <ele>38.2</ele>
        <time>2021-05-22T09:54:40Z</time>
      </trkpt>
      <trkpt lat="42.5381470" lon="-8.6451300">
        <ele>38.2</ele>
        <time>2021-05-22T09:54:41Z</time>
      </trkpt>
      <trkpt lat="42.5381470" lon="-8.6451310">
        <ele>38.2</ele>
        <time>2021-05-22T09:54:42Z</time>
      </trkpt>
      <trkpt lat="42.5381490" lon="-8.6451290">
        <ele>38.2</ele>
        <time>2021-05-22T09:54:43Z</time>
      </trkpt>
      <trkpt lat="42.5381470" lon="-8.6451300">
        <ele>38.2</ele>
        <time>2021-05-22T09:54:44Z</time>
      </trkpt>
      <trkpt lat="42.5381480" lon="-8.6451300">
        <ele>38.2</ele>
        <time>2021-05-22T09:54:45Z</time>
      </trkpt>
      <trkpt lat="42.5381460" lon="-8.6451290">
        <ele>38.2</ele>
        <time>2021-05-22T09:54:46Z</time>
      </trkpt>
      <trkpt lat="42.5381430" lon="-8.6451270">
        <ele>38.2</ele>
        <time>2021-05-22T09:54:47Z</time>
      </trkpt>
      <trkpt lat="42.5381320" lon="-8.6451210">
        <ele>38.2</ele>
        <time>2021-05-22T09:54:48Z</time>
      </trkpt>
      <trkpt lat="42.5381310" lon="-8.6451200">
        <ele>38.2</ele>
        <time>2021-05-22T09:54:49Z</time>
      </trkpt>
      <trkpt lat="42.5381290" lon="-8.6451190">
        <ele>38.2</ele>
        <time>2021-05-22T09:54:50Z</time>
      </trkpt>
      <trkpt lat="42.5381270" lon="-8.6451220">
        <ele>38.2</ele>
        <time>2021-05-22T09:54:51Z</time>
      </trkpt>
      <trkpt lat="42.5381270" lon="-8.6451220">
        <ele>38.2</ele>
        <time>2021-05-22T09:54:52Z</time>
      </trkpt>
      <trkpt lat="42.5381220" lon="-8.6451210">
        <ele>38.2</ele>
        <time>2021-05-22T09:54:53Z</time>
      </trkpt>
      <trkpt lat="42.5381240" lon="-8.6451190">
        <ele>38.2</ele>
        <time>2021-05-22T09:54:54Z</time>
      </trkpt>
      <trkpt lat="42.5381270" lon="-8.6451150">
        <ele>38.2</ele>
        <time>2021-05-22T09:54:55Z</time>
      </trkpt>
      <trkpt lat="42.5381270" lon="-8.6451180">
        <ele>38.2</ele>
        <time>2021-05-22T09:54:56Z</time>
      </trkpt>
      <trkpt lat="42.5381260" lon="-8.6451050">
        <ele>38.2</ele>
        <time>2021-05-22T09:54:57Z</time>
      </trkpt>
      <trkpt lat="42.5381380" lon="-8.6450990">
        <ele>38.2</ele>
        <time>2021-05-22T09:54:58Z</time>
      </trkpt>
      <trkpt lat="42.5381480" lon="-8.6450980">
        <ele>38.2</ele>
        <time>2021-05-22T09:54:59Z</time>
      </trkpt>
      <trkpt lat="42.5381570" lon="-8.6450960">
        <ele>38.1</ele>
        <time>2021-05-22T09:55:00Z</time>
      </trkpt>
      <trkpt lat="42.5381660" lon="-8.6450940">
        <ele>38.1</ele>
        <time>2021-05-22T09:55:01Z</time>
      </trkpt>
      <trkpt lat="42.5381850" lon="-8.6450800">
        <ele>38.1</ele>
        <time>2021-05-22T09:55:02Z</time>
      </trkpt>
      <trkpt lat="42.5381930" lon="-8.6450740">
        <ele>38.1</ele>
        <time>2021-05-22T09:55:03Z</time>
      </trkpt>
      <trkpt lat="42.5382010" lon="-8.6450670">
        <ele>38.1</ele>
        <time>2021-05-22T09:55:04Z</time>
      </trkpt>
      <trkpt lat="42.5382260" lon="-8.6450450">
        <ele>38.1</ele>
        <time>2021-05-22T09:55:05Z</time>
      </trkpt>
      <trkpt lat="42.5382330" lon="-8.6450380">
        <ele>38.1</ele>
        <time>2021-05-22T09:55:06Z</time>
      </trkpt>
      <trkpt lat="42.5382610" lon="-8.6450370">
        <ele>38.0</ele>
        <time>2021-05-22T09:55:07Z</time>
      </trkpt>
      <trkpt lat="42.5382730" lon="-8.6450300">
        <ele>38.0</ele>
        <time>2021-05-22T09:55:08Z</time>
      </trkpt>
      <trkpt lat="42.5382780" lon="-8.6450220">
        <ele>38.0</ele>
        <time>2021-05-22T09:55:09Z</time>
      </trkpt>
      <trkpt lat="42.5382900" lon="-8.6450190">
        <ele>38.0</ele>
        <time>2021-05-22T09:55:10Z</time>
      </trkpt>
      <trkpt lat="42.5383040" lon="-8.6450070">
        <ele>38.0</ele>
        <time>2021-05-22T09:55:11Z</time>
      </trkpt>
      <trkpt lat="42.5383160" lon="-8.6450070">
        <ele>38.0</ele>
        <time>2021-05-22T09:55:12Z</time>
      </trkpt>
      <trkpt lat="42.5383320" lon="-8.6449980">
        <ele>38.0</ele>
        <time>2021-05-22T09:55:13Z</time>
      </trkpt>
      <trkpt lat="42.5383530" lon="-8.6449910">
        <ele>38.0</ele>
        <time>2021-05-22T09:55:14Z</time>
      </trkpt>
      <trkpt lat="42.5383610" lon="-8.6449870">
        <ele>38.0</ele>
        <time>2021-05-22T09:55:15Z</time>
      </trkpt>
      <trkpt lat="42.5383700" lon="-8.6449830">
        <ele>38.0</ele>
        <time>2021-05-22T09:55:16Z</time>
      </trkpt>
      <trkpt lat="42.5383870" lon="-8.6449690">
        <ele>38.0</ele>
        <time>2021-05-22T09:55:17Z</time>
      </trkpt>
      <trkpt lat="42.5383970" lon="-8.6449670">
        <ele>38.0</ele>
        <time>2021-05-22T09:55:18Z</time>
      </trkpt>
      <trkpt lat="42.5384060" lon="-8.6449640">
        <ele>38.0</ele>
        <time>2021-05-22T09:55:19Z</time>
      </trkpt>
      <trkpt lat="42.5384260" lon="-8.6449570">
        <ele>38.0</ele>
        <time>2021-05-22T09:55:20Z</time>
      </trkpt>
      <trkpt lat="42.5384340" lon="-8.6449500">
        <ele>38.0</ele>
        <time>2021-05-22T09:55:21Z</time>
      </trkpt>
      <trkpt lat="42.5384560" lon="-8.6449400">
        <ele>38.0</ele>
        <time>2021-05-22T09:55:22Z</time>
      </trkpt>
      <trkpt lat="42.5384630" lon="-8.6449370">
        <ele>38.0</ele>
        <time>2021-05-22T09:55:23Z</time>
      </trkpt>
      <trkpt lat="42.5384690" lon="-8.6449340">
        <ele>38.0</ele>
        <time>2021-05-22T09:55:24Z</time>
      </trkpt>
      <trkpt lat="42.5384840" lon="-8.6449300">
        <ele>38.0</ele>
        <time>2021-05-22T09:55:25Z</time>
      </trkpt>
      <trkpt lat="42.5384980" lon="-8.6449170">
        <ele>38.0</ele>
        <time>2021-05-22T09:55:26Z</time>
      </trkpt>
      <trkpt lat="42.5385090" lon="-8.6449140">
        <ele>38.0</ele>
        <time>2021-05-22T09:55:27Z</time>
      </trkpt>
      <trkpt lat="42.5385240" lon="-8.6449130">
        <ele>38.0</ele>
        <time>2021-05-22T09:55:28Z</time>
      </trkpt>
      <trkpt lat="42.5385320" lon="-8.6449080">
        <ele>38.0</ele>
        <time>2021-05-22T09:55:29Z</time>
      </trkpt>
      <trkpt lat="42.5385480" lon="-8.6448940">
        <ele>38.0</ele>
        <time>2021-05-22T09:55:30Z</time>
      </trkpt>
      <trkpt lat="42.5385550" lon="-8.6448860">
        <ele>38.0</ele>
        <time>2021-05-22T09:55:31Z</time>
      </trkpt>
      <trkpt lat="42.5385670" lon="-8.6448730">
        <ele>38.0</ele>
        <time>2021-05-22T09:55:32Z</time>
      </trkpt>
      <trkpt lat="42.5385800" lon="-8.6448670">
        <ele>38.0</ele>
        <time>2021-05-22T09:55:33Z</time>
      </trkpt>
      <trkpt lat="42.5385960" lon="-8.6448610">
        <ele>38.0</ele>
        <time>2021-05-22T09:55:34Z</time>
      </trkpt>
      <trkpt lat="42.5386040" lon="-8.6448540">
        <ele>38.0</ele>
        <time>2021-05-22T09:55:35Z</time>
      </trkpt>
      <trkpt lat="42.5386100" lon="-8.6448460">
        <ele>38.0</ele>
        <time>2021-05-22T09:55:36Z</time>
      </trkpt>
      <trkpt lat="42.5386190" lon="-8.6448420">
        <ele>38.0</ele>
        <time>2021-05-22T09:55:37Z</time>
      </trkpt>
      <trkpt lat="42.5386230" lon="-8.6448430">
        <ele>38.0</ele>
        <time>2021-05-22T09:55:38Z</time>
      </trkpt>
      <trkpt lat="42.5386280" lon="-8.6448360">
        <ele>38.0</ele>
        <time>2021-05-22T09:55:39Z</time>
      </trkpt>
      <trkpt lat="42.5386410" lon="-8.6448380">
        <ele>38.0</ele>
        <time>2021-05-22T09:55:40Z</time>
      </trkpt>
      <trkpt lat="42.5386530" lon="-8.6448380">
        <ele>38.0</ele>
        <time>2021-05-22T09:55:41Z</time>
      </trkpt>
      <trkpt lat="42.5386670" lon="-8.6448370">
        <ele>38.0</ele>
        <time>2021-05-22T09:55:42Z</time>
      </trkpt>
      <trkpt lat="42.5386770" lon="-8.6448380">
        <ele>38.0</ele>
        <time>2021-05-22T09:55:43Z</time>
      </trkpt>
      <trkpt lat="42.5386850" lon="-8.6448340">
        <ele>38.0</ele>
        <time>2021-05-22T09:55:44Z</time>
      </trkpt>
      <trkpt lat="42.5386950" lon="-8.6448220">
        <ele>38.0</ele>
        <time>2021-05-22T09:55:45Z</time>
      </trkpt>
      <trkpt lat="42.5387040" lon="-8.6448060">
        <ele>38.0</ele>
        <time>2021-05-22T09:55:46Z</time>
      </trkpt>
      <trkpt lat="42.5387150" lon="-8.6447860">
        <ele>38.0</ele>
        <time>2021-05-22T09:55:47Z</time>
      </trkpt>
      <trkpt lat="42.5387250" lon="-8.6447760">
        <ele>38.0</ele>
        <time>2021-05-22T09:55:48Z</time>
      </trkpt>
      <trkpt lat="42.5387320" lon="-8.6447650">
        <ele>38.0</ele>
        <time>2021-05-22T09:55:49Z</time>
      </trkpt>
      <trkpt lat="42.5387400" lon="-8.6447580">
        <ele>38.0</ele>
        <time>2021-05-22T09:55:50Z</time>
      </trkpt>
      <trkpt lat="42.5387520" lon="-8.6447460">
        <ele>38.0</ele>
        <time>2021-05-22T09:55:52Z</time>
      </trkpt>
      <trkpt lat="42.5387640" lon="-8.6447350">
        <ele>38.1</ele>
        <time>2021-05-22T09:55:53Z</time>
      </trkpt>
      <trkpt lat="42.5387740" lon="-8.6447190">
        <ele>38.1</ele>
        <time>2021-05-22T09:55:54Z</time>
      </trkpt>
      <trkpt lat="42.5387830" lon="-8.6447100">
        <ele>38.1</ele>
        <time>2021-05-22T09:55:55Z</time>
      </trkpt>
      <trkpt lat="42.5387870" lon="-8.6447030">
        <ele>38.1</ele>
        <time>2021-05-22T09:55:56Z</time>
      </trkpt>
      <trkpt lat="42.5387980" lon="-8.6446880">
        <ele>38.1</ele>
        <time>2021-05-22T09:55:57Z</time>
      </trkpt>
      <trkpt lat="42.5388060" lon="-8.6446790">
        <ele>38.1</ele>
        <time>2021-05-22T09:55:58Z</time>
      </trkpt>
      <trkpt lat="42.5388140" lon="-8.6446700">
        <ele>38.1</ele>
        <time>2021-05-22T09:55:59Z</time>
      </trkpt>
      <trkpt lat="42.5388210" lon="-8.6446590">
        <ele>38.1</ele>
        <time>2021-05-22T09:56:00Z</time>
      </trkpt>
      <trkpt lat="42.5388290" lon="-8.6446480">
        <ele>38.1</ele>
        <time>2021-05-22T09:56:01Z</time>
      </trkpt>
      <trkpt lat="42.5388390" lon="-8.6446410">
        <ele>38.1</ele>
        <time>2021-05-22T09:56:02Z</time>
      </trkpt>
      <trkpt lat="42.5388470" lon="-8.6446320">
        <ele>38.1</ele>
        <time>2021-05-22T09:56:03Z</time>
      </trkpt>
      <trkpt lat="42.5388560" lon="-8.6446130">
        <ele>38.1</ele>
        <time>2021-05-22T09:56:04Z</time>
      </trkpt>
      <trkpt lat="42.5388620" lon="-8.6445970">
        <ele>38.1</ele>
        <time>2021-05-22T09:56:05Z</time>
      </trkpt>
      <trkpt lat="42.5388680" lon="-8.6445830">
        <ele>38.1</ele>
        <time>2021-05-22T09:56:06Z</time>
      </trkpt>
      <trkpt lat="42.5388760" lon="-8.6445710">
        <ele>38.1</ele>
        <time>2021-05-22T09:56:07Z</time>
      </trkpt>
      <trkpt lat="42.5388820" lon="-8.6445560">
        <ele>38.1</ele>
        <time>2021-05-22T09:56:08Z</time>
      </trkpt>
      <trkpt lat="42.5388860" lon="-8.6445400">
        <ele>38.1</ele>
        <time>2021-05-22T09:56:09Z</time>
      </trkpt>
      <trkpt lat="42.5388910" lon="-8.6445200">
        <ele>38.0</ele>
        <time>2021-05-22T09:56:10Z</time>
      </trkpt>
      <trkpt lat="42.5388990" lon="-8.6445020">
        <ele>38.0</ele>
        <time>2021-05-22T09:56:11Z</time>
      </trkpt>
      <trkpt lat="42.5389000" lon="-8.6444910">
        <ele>38.0</ele>
        <time>2021-05-22T09:56:12Z</time>
      </trkpt>
      <trkpt lat="42.5389040" lon="-8.6444750">
        <ele>38.0</ele>
        <time>2021-05-22T09:56:13Z</time>
      </trkpt>
      <trkpt lat="42.5389110" lon="-8.6444560">
        <ele>38.0</ele>
        <time>2021-05-22T09:56:14Z</time>
      </trkpt>
      <trkpt lat="42.5389180" lon="-8.6444480">
        <ele>38.0</ele>
        <time>2021-05-22T09:56:15Z</time>
      </trkpt>
      <trkpt lat="42.5389220" lon="-8.6444370">
        <ele>38.0</ele>
        <time>2021-05-22T09:56:16Z</time>
      </trkpt>
      <trkpt lat="42.5389240" lon="-8.6444290">
        <ele>38.0</ele>
        <time>2021-05-22T09:56:17Z</time>
      </trkpt>
      <trkpt lat="42.5389250" lon="-8.6444240">
        <ele>38.0</ele>
        <time>2021-05-22T09:56:18Z</time>
      </trkpt>
      <trkpt lat="42.5389250" lon="-8.6444220">
        <ele>38.0</ele>
        <time>2021-05-22T09:56:19Z</time>
      </trkpt>
      <trkpt lat="42.5389290" lon="-8.6444220">
        <ele>38.0</ele>
        <time>2021-05-22T09:56:20Z</time>
      </trkpt>
      <trkpt lat="42.5389380" lon="-8.6444230">
        <ele>38.0</ele>
        <time>2021-05-22T09:56:21Z</time>
      </trkpt>
      <trkpt lat="42.5389430" lon="-8.6444250">
        <ele>38.0</ele>
        <time>2021-05-22T09:56:22Z</time>
      </trkpt>
      <trkpt lat="42.5389490" lon="-8.6444260">
        <ele>38.0</ele>
        <time>2021-05-22T09:56:23Z</time>
      </trkpt>
      <trkpt lat="42.5389510" lon="-8.6444250">
        <ele>38.0</ele>
        <time>2021-05-22T09:56:24Z</time>
      </trkpt>
      <trkpt lat="42.5389530" lon="-8.6444270">
        <ele>37.9</ele>
        <time>2021-05-22T09:56:25Z</time>
      </trkpt>
      <trkpt lat="42.5389550" lon="-8.6444260">
        <ele>37.9</ele>
        <time>2021-05-22T09:56:26Z</time>
      </trkpt>
      <trkpt lat="42.5389610" lon="-8.6444160">
        <ele>37.9</ele>
        <time>2021-05-22T09:56:27Z</time>
      </trkpt>
      <trkpt lat="42.5389670" lon="-8.6444120">
        <ele>37.9</ele>
        <time>2021-05-22T09:56:28Z</time>
      </trkpt>
      <trkpt lat="42.5389690" lon="-8.6444150">
        <ele>37.9</ele>
        <time>2021-05-22T09:56:29Z</time>
      </trkpt>
      <trkpt lat="42.5389670" lon="-8.6444120">
        <ele>37.9</ele>
        <time>2021-05-22T09:56:30Z</time>
      </trkpt>
      <trkpt lat="42.5389700" lon="-8.6444090">
        <ele>37.9</ele>
        <time>2021-05-22T09:56:31Z</time>
      </trkpt>
      <trkpt lat="42.5389710" lon="-8.6444070">
        <ele>37.9</ele>
        <time>2021-05-22T09:56:32Z</time>
      </trkpt>
      <trkpt lat="42.5389700" lon="-8.6443990">
        <ele>37.9</ele>
        <time>2021-05-22T09:56:33Z</time>
      </trkpt>
      <trkpt lat="42.5389820" lon="-8.6443730">
        <ele>37.9</ele>
        <time>2021-05-22T09:56:34Z</time>
      </trkpt>
      <trkpt lat="42.5389880" lon="-8.6443650">
        <ele>37.9</ele>
        <time>2021-05-22T09:56:35Z</time>
      </trkpt>
      <trkpt lat="42.5389930" lon="-8.6443580">
        <ele>37.9</ele>
        <time>2021-05-22T09:56:36Z</time>
      </trkpt>
      <trkpt lat="42.5390120" lon="-8.6443430">
        <ele>37.9</ele>
        <time>2021-05-22T09:56:37Z</time>
      </trkpt>
      <trkpt lat="42.5390200" lon="-8.6443360">
        <ele>37.8</ele>
        <time>2021-05-22T09:56:38Z</time>
      </trkpt>
      <trkpt lat="42.5390280" lon="-8.6443300">
        <ele>37.8</ele>
        <time>2021-05-22T09:56:39Z</time>
      </trkpt>
      <trkpt lat="42.5390380" lon="-8.6443170">
        <ele>37.8</ele>
        <time>2021-05-22T09:56:40Z</time>
      </trkpt>
      <trkpt lat="42.5390490" lon="-8.6443020">
        <ele>37.8</ele>
        <time>2021-05-22T09:56:41Z</time>
      </trkpt>
      <trkpt lat="42.5390570" lon="-8.6442840">
        <ele>37.8</ele>
        <time>2021-05-22T09:56:42Z</time>
      </trkpt>
      <trkpt lat="42.5390730" lon="-8.6442670">
        <ele>37.8</ele>
        <time>2021-05-22T09:56:43Z</time>
      </trkpt>
      <trkpt lat="42.5390850" lon="-8.6442540">
        <ele>37.8</ele>
        <time>2021-05-22T09:56:44Z</time>
      </trkpt>
      <trkpt lat="42.5391000" lon="-8.6442360">
        <ele>37.7</ele>
        <time>2021-05-22T09:56:45Z</time>
      </trkpt>
      <trkpt lat="42.5391090" lon="-8.6442210">
        <ele>37.7</ele>
        <time>2021-05-22T09:56:46Z</time>
      </trkpt>
      <trkpt lat="42.5391210" lon="-8.6442120">
        <ele>37.7</ele>
        <time>2021-05-22T09:56:47Z</time>
      </trkpt>
      <trkpt lat="42.5391250" lon="-8.6442020">
        <ele>37.7</ele>
        <time>2021-05-22T09:56:48Z</time>
      </trkpt>
      <trkpt lat="42.5391380" lon="-8.6441830">
        <ele>37.7</ele>
        <time>2021-05-22T09:56:49Z</time>
      </trkpt>
      <trkpt lat="42.5391490" lon="-8.6441720">
        <ele>37.7</ele>
        <time>2021-05-22T09:56:50Z</time>
      </trkpt>
      <trkpt lat="42.5391660" lon="-8.6441550">
        <ele>37.7</ele>
        <time>2021-05-22T09:56:51Z</time>
      </trkpt>
      <trkpt lat="42.5391820" lon="-8.6441490">
        <ele>37.7</ele>
        <time>2021-05-22T09:56:52Z</time>
      </trkpt>
      <trkpt lat="42.5391980" lon="-8.6441430">
        <ele>37.7</ele>
        <time>2021-05-22T09:56:53Z</time>
      </trkpt>
      <trkpt lat="42.5392170" lon="-8.6441250">
        <ele>37.7</ele>
        <time>2021-05-22T09:56:54Z</time>
      </trkpt>
      <trkpt lat="42.5392260" lon="-8.6441180">
        <ele>37.7</ele>
        <time>2021-05-22T09:56:55Z</time>
      </trkpt>
      <trkpt lat="42.5392340" lon="-8.6441110">
        <ele>37.6</ele>
        <time>2021-05-22T09:56:56Z</time>
      </trkpt>
      <trkpt lat="42.5392460" lon="-8.6440980">
        <ele>37.6</ele>
        <time>2021-05-22T09:56:57Z</time>
      </trkpt>
      <trkpt lat="42.5392560" lon="-8.6440860">
        <ele>37.6</ele>
        <time>2021-05-22T09:56:58Z</time>
      </trkpt>
      <trkpt lat="42.5392750" lon="-8.6440740">
        <ele>37.6</ele>
        <time>2021-05-22T09:56:59Z</time>
      </trkpt>
      <trkpt lat="42.5392830" lon="-8.6440690">
        <ele>37.6</ele>
        <time>2021-05-22T09:57:00Z</time>
      </trkpt>
      <trkpt lat="42.5392910" lon="-8.6440630">
        <ele>37.6</ele>
        <time>2021-05-22T09:57:01Z</time>
      </trkpt>
      <trkpt lat="42.5393120" lon="-8.6440500">
        <ele>37.6</ele>
        <time>2021-05-22T09:57:02Z</time>
      </trkpt>
      <trkpt lat="42.5393190" lon="-8.6440470">
        <ele>37.6</ele>
        <time>2021-05-22T09:57:03Z</time>
      </trkpt>
      <trkpt lat="42.5393270" lon="-8.6440430">
        <ele>37.6</ele>
        <time>2021-05-22T09:57:04Z</time>
      </trkpt>
      <trkpt lat="42.5393390" lon="-8.6440380">
        <ele>37.6</ele>
        <time>2021-05-22T09:57:05Z</time>
      </trkpt>
      <trkpt lat="42.5393520" lon="-8.6440300">
        <ele>37.6</ele>
        <time>2021-05-22T09:57:06Z</time>
      </trkpt>
      <trkpt lat="42.5393640" lon="-8.6440190">
        <ele>37.6</ele>
        <time>2021-05-22T09:57:07Z</time>
      </trkpt>
      <trkpt lat="42.5393760" lon="-8.6440120">
        <ele>37.6</ele>
        <time>2021-05-22T09:57:08Z</time>
      </trkpt>
      <trkpt lat="42.5393960" lon="-8.6439990">
        <ele>37.6</ele>
        <time>2021-05-22T09:57:09Z</time>
      </trkpt>
      <trkpt lat="42.5394050" lon="-8.6439950">
        <ele>37.6</ele>
        <time>2021-05-22T09:57:10Z</time>
      </trkpt>
      <trkpt lat="42.5394130" lon="-8.6439920">
        <ele>37.6</ele>
        <time>2021-05-22T09:57:11Z</time>
      </trkpt>
      <trkpt lat="42.5394270" lon="-8.6439910">
        <ele>37.6</ele>
        <time>2021-05-22T09:57:12Z</time>
      </trkpt>
      <trkpt lat="42.5394410" lon="-8.6439890">
        <ele>37.6</ele>
        <time>2021-05-22T09:57:13Z</time>
      </trkpt>
      <trkpt lat="42.5394680" lon="-8.6439810">
        <ele>37.6</ele>
        <time>2021-05-22T09:57:14Z</time>
      </trkpt>
      <trkpt lat="42.5394820" lon="-8.6439770">
        <ele>37.7</ele>
        <time>2021-05-22T09:57:15Z</time>
      </trkpt>
      <trkpt lat="42.5394940" lon="-8.6439700">
        <ele>37.7</ele>
        <time>2021-05-22T09:57:16Z</time>
      </trkpt>
      <trkpt lat="42.5395090" lon="-8.6439680">
        <ele>37.7</ele>
        <time>2021-05-22T09:57:17Z</time>
      </trkpt>
      <trkpt lat="42.5395300" lon="-8.6439590">
        <ele>37.7</ele>
        <time>2021-05-22T09:57:18Z</time>
      </trkpt>
      <trkpt lat="42.5395390" lon="-8.6439570">
        <ele>37.7</ele>
        <time>2021-05-22T09:57:19Z</time>
      </trkpt>
      <trkpt lat="42.5395480" lon="-8.6439540">
        <ele>37.7</ele>
        <time>2021-05-22T09:57:20Z</time>
      </trkpt>
      <trkpt lat="42.5395680" lon="-8.6439440">
        <ele>37.7</ele>
        <time>2021-05-22T09:57:21Z</time>
      </trkpt>
      <trkpt lat="42.5395770" lon="-8.6439410">
        <ele>37.7</ele>
        <time>2021-05-22T09:57:22Z</time>
      </trkpt>
      <trkpt lat="42.5395850" lon="-8.6439390">
        <ele>37.7</ele>
        <time>2021-05-22T09:57:23Z</time>
      </trkpt>
      <trkpt lat="42.5395990" lon="-8.6439360">
        <ele>37.7</ele>
        <time>2021-05-22T09:57:24Z</time>
      </trkpt>
      <trkpt lat="42.5396140" lon="-8.6439300">
        <ele>37.7</ele>
        <time>2021-05-22T09:57:25Z</time>
      </trkpt>
      <trkpt lat="42.5396340" lon="-8.6439220">
        <ele>37.7</ele>
        <time>2021-05-22T09:57:26Z</time>
      </trkpt>
      <trkpt lat="42.5396430" lon="-8.6439190">
        <ele>37.7</ele>
        <time>2021-05-22T09:57:27Z</time>
      </trkpt>
      <trkpt lat="42.5396510" lon="-8.6439170">
        <ele>37.7</ele>
        <time>2021-05-22T09:57:28Z</time>
      </trkpt>
      <trkpt lat="42.5396710" lon="-8.6439070">
        <ele>37.7</ele>
        <time>2021-05-22T09:57:29Z</time>
      </trkpt>
      <trkpt lat="42.5396790" lon="-8.6439030">
        <ele>37.8</ele>
        <time>2021-05-22T09:57:30Z</time>
      </trkpt>
      <trkpt lat="42.5396880" lon="-8.6438990">
        <ele>37.8</ele>
        <time>2021-05-22T09:57:31Z</time>
      </trkpt>
      <trkpt lat="42.5397020" lon="-8.6438890">
        <ele>37.8</ele>
        <time>2021-05-22T09:57:32Z</time>
      </trkpt>
      <trkpt lat="42.5397150" lon="-8.6438850">
        <ele>37.8</ele>
        <time>2021-05-22T09:57:33Z</time>
      </trkpt>
      <trkpt lat="42.5397370" lon="-8.6438820">
        <ele>37.8</ele>
        <time>2021-05-22T09:57:34Z</time>
      </trkpt>
      <trkpt lat="42.5397450" lon="-8.6438790">
        <ele>37.8</ele>
        <time>2021-05-22T09:57:35Z</time>
      </trkpt>
      <trkpt lat="42.5397540" lon="-8.6438760">
        <ele>37.8</ele>
        <time>2021-05-22T09:57:36Z</time>
      </trkpt>
      <trkpt lat="42.5397680" lon="-8.6438670">
        <ele>37.8</ele>
        <time>2021-05-22T09:57:37Z</time>
      </trkpt>
      <trkpt lat="42.5397820" lon="-8.6438670">
        <ele>37.8</ele>
        <time>2021-05-22T09:57:38Z</time>
      </trkpt>
      <trkpt lat="42.5397960" lon="-8.6438630">
        <ele>37.8</ele>
        <time>2021-05-22T09:57:39Z</time>
      </trkpt>
      <trkpt lat="42.5398080" lon="-8.6438590">
        <ele>37.8</ele>
        <time>2021-05-22T09:57:40Z</time>
      </trkpt>
      <trkpt lat="42.5398300" lon="-8.6438540">
        <ele>37.8</ele>
        <time>2021-05-22T09:57:41Z</time>
      </trkpt>
      <trkpt lat="42.5398380" lon="-8.6438500">
        <ele>37.8</ele>
        <time>2021-05-22T09:57:42Z</time>
      </trkpt>
      <trkpt lat="42.5398470" lon="-8.6438460">
        <ele>37.9</ele>
        <time>2021-05-22T09:57:43Z</time>
      </trkpt>
      <trkpt lat="42.5398590" lon="-8.6438360">
        <ele>37.9</ele>
        <time>2021-05-22T09:57:44Z</time>
      </trkpt>
      <trkpt lat="42.5398700" lon="-8.6438280">
        <ele>37.9</ele>
        <time>2021-05-22T09:57:45Z</time>
      </trkpt>
      <trkpt lat="42.5398910" lon="-8.6438200">
        <ele>37.9</ele>
        <time>2021-05-22T09:57:46Z</time>
      </trkpt>
      <trkpt lat="42.5399000" lon="-8.6438180">
        <ele>37.9</ele>
        <time>2021-05-22T09:57:47Z</time>
      </trkpt>
      <trkpt lat="42.5399080" lon="-8.6438150">
        <ele>37.9</ele>
        <time>2021-05-22T09:57:48Z</time>
      </trkpt>
      <trkpt lat="42.5399290" lon="-8.6438060">
        <ele>37.9</ele>
        <time>2021-05-22T09:57:49Z</time>
      </trkpt>
      <trkpt lat="42.5399380" lon="-8.6438010">
        <ele>37.9</ele>
        <time>2021-05-22T09:57:50Z</time>
      </trkpt>
      <trkpt lat="42.5399460" lon="-8.6437960">
        <ele>37.9</ele>
        <time>2021-05-22T09:57:51Z</time>
      </trkpt>
      <trkpt lat="42.5399590" lon="-8.6437870">
        <ele>37.9</ele>
        <time>2021-05-22T09:57:52Z</time>
      </trkpt>
      <trkpt lat="42.5399720" lon="-8.6437830">
        <ele>37.9</ele>
        <time>2021-05-22T09:57:53Z</time>
      </trkpt>
      <trkpt lat="42.5399940" lon="-8.6437760">
        <ele>38.0</ele>
        <time>2021-05-22T09:57:54Z</time>
      </trkpt>
      <trkpt lat="42.5400020" lon="-8.6437730">
        <ele>38.0</ele>
        <time>2021-05-22T09:57:55Z</time>
      </trkpt>
      <trkpt lat="42.5400110" lon="-8.6437700">
        <ele>38.0</ele>
        <time>2021-05-22T09:57:56Z</time>
      </trkpt>
      <trkpt lat="42.5400250" lon="-8.6437650">
        <ele>38.0</ele>
        <time>2021-05-22T09:57:57Z</time>
      </trkpt>
      <trkpt lat="42.5400370" lon="-8.6437600">
        <ele>38.0</ele>
        <time>2021-05-22T09:57:58Z</time>
      </trkpt>
      <trkpt lat="42.5400510" lon="-8.6437570">
        <ele>38.0</ele>
        <time>2021-05-22T09:57:59Z</time>
      </trkpt>
      <trkpt lat="42.5400640" lon="-8.6437520">
        <ele>38.0</ele>
        <time>2021-05-22T09:58:00Z</time>
      </trkpt>
      <trkpt lat="42.5400850" lon="-8.6437460">
        <ele>38.0</ele>
        <time>2021-05-22T09:58:01Z</time>
      </trkpt>
      <trkpt lat="42.5400950" lon="-8.6437440">
        <ele>38.0</ele>
        <time>2021-05-22T09:58:02Z</time>
      </trkpt>
      <trkpt lat="42.5401040" lon="-8.6437430">
        <ele>38.0</ele>
        <time>2021-05-22T09:58:03Z</time>
      </trkpt>
      <trkpt lat="42.5401240" lon="-8.6437320">
        <ele>38.1</ele>
        <time>2021-05-22T09:58:04Z</time>
      </trkpt>
      <trkpt lat="42.5401300" lon="-8.6437270">
        <ele>38.1</ele>
        <time>2021-05-22T09:58:05Z</time>
      </trkpt>
      <trkpt lat="42.5401370" lon="-8.6437230">
        <ele>38.1</ele>
        <time>2021-05-22T09:58:06Z</time>
      </trkpt>
      <trkpt lat="42.5401440" lon="-8.6437220">
        <ele>38.1</ele>
        <time>2021-05-22T09:58:07Z</time>
      </trkpt>
      <trkpt lat="42.5401560" lon="-8.6437180">
        <ele>38.1</ele>
        <time>2021-05-22T09:58:08Z</time>
      </trkpt>
      <trkpt lat="42.5401670" lon="-8.6437160">
        <ele>38.1</ele>
        <time>2021-05-22T09:58:09Z</time>
      </trkpt>
      <trkpt lat="42.5401780" lon="-8.6437160">
        <ele>38.1</ele>
        <time>2021-05-22T09:58:10Z</time>
      </trkpt>
      <trkpt lat="42.5401880" lon="-8.6437130">
        <ele>38.1</ele>
        <time>2021-05-22T09:58:11Z</time>
      </trkpt>
      <trkpt lat="42.5401960" lon="-8.6437050">
        <ele>38.1</ele>
        <time>2021-05-22T09:58:12Z</time>
      </trkpt>
      <trkpt lat="42.5402060" lon="-8.6436990">
        <ele>38.1</ele>
        <time>2021-05-22T09:58:13Z</time>
      </trkpt>
      <trkpt lat="42.5402150" lon="-8.6436940">
        <ele>38.2</ele>
        <time>2021-05-22T09:58:14Z</time>
      </trkpt>
      <trkpt lat="42.5402260" lon="-8.6436950">
        <ele>38.2</ele>
        <time>2021-05-22T09:58:15Z</time>
      </trkpt>
      <trkpt lat="42.5402390" lon="-8.6436900">
        <ele>38.2</ele>
        <time>2021-05-22T09:58:16Z</time>
      </trkpt>
      <trkpt lat="42.5402530" lon="-8.6436800">
        <ele>38.2</ele>
        <time>2021-05-22T09:58:17Z</time>
      </trkpt>
      <trkpt lat="42.5402730" lon="-8.6436700">
        <ele>38.2</ele>
        <time>2021-05-22T09:58:18Z</time>
      </trkpt>
      <trkpt lat="42.5402800" lon="-8.6436640">
        <ele>38.2</ele>
        <time>2021-05-22T09:58:19Z</time>
      </trkpt>
      <trkpt lat="42.5402880" lon="-8.6436590">
        <ele>38.3</ele>
        <time>2021-05-22T09:58:20Z</time>
      </trkpt>
      <trkpt lat="42.5403020" lon="-8.6436560">
        <ele>38.3</ele>
        <time>2021-05-22T09:58:21Z</time>
      </trkpt>
      <trkpt lat="42.5403120" lon="-8.6436510">
        <ele>38.3</ele>
        <time>2021-05-22T09:58:22Z</time>
      </trkpt>
      <trkpt lat="42.5403240" lon="-8.6436510">
        <ele>38.3</ele>
        <time>2021-05-22T09:58:23Z</time>
      </trkpt>
      <trkpt lat="42.5403340" lon="-8.6436460">
        <ele>38.3</ele>
        <time>2021-05-22T09:58:24Z</time>
      </trkpt>
      <trkpt lat="42.5403520" lon="-8.6436510">
        <ele>38.4</ele>
        <time>2021-05-22T09:58:25Z</time>
      </trkpt>
      <trkpt lat="42.5403710" lon="-8.6436430">
        <ele>38.4</ele>
        <time>2021-05-22T09:58:26Z</time>
      </trkpt>
      <trkpt lat="42.5403790" lon="-8.6436390">
        <ele>38.4</ele>
        <time>2021-05-22T09:58:27Z</time>
      </trkpt>
      <trkpt lat="42.5403880" lon="-8.6436350">
        <ele>38.4</ele>
        <time>2021-05-22T09:58:28Z</time>
      </trkpt>
      <trkpt lat="42.5403980" lon="-8.6436310">
        <ele>38.5</ele>
        <time>2021-05-22T09:58:29Z</time>
      </trkpt>
      <trkpt lat="42.5404080" lon="-8.6436260">
        <ele>38.5</ele>
        <time>2021-05-22T09:58:30Z</time>
      </trkpt>
      <trkpt lat="42.5404170" lon="-8.6436210">
        <ele>38.5</ele>
        <time>2021-05-22T09:58:31Z</time>
      </trkpt>
      <trkpt lat="42.5404370" lon="-8.6436110">
        <ele>38.6</ele>
        <time>2021-05-22T09:58:32Z</time>
      </trkpt>
      <trkpt lat="42.5404450" lon="-8.6436070">
        <ele>38.6</ele>
        <time>2021-05-22T09:58:33Z</time>
      </trkpt>
      <trkpt lat="42.5404530" lon="-8.6436020">
        <ele>38.7</ele>
        <time>2021-05-22T09:58:34Z</time>
      </trkpt>
      <trkpt lat="42.5404630" lon="-8.6436010">
        <ele>38.7</ele>
        <time>2021-05-22T09:58:35Z</time>
      </trkpt>
      <trkpt lat="42.5404730" lon="-8.6435980">
        <ele>38.7</ele>
        <time>2021-05-22T09:58:36Z</time>
      </trkpt>
      <trkpt lat="42.5404870" lon="-8.6435990">
        <ele>38.8</ele>
        <time>2021-05-22T09:58:37Z</time>
      </trkpt>
      <trkpt lat="42.5405020" lon="-8.6435880">
        <ele>38.9</ele>
        <time>2021-05-22T09:58:38Z</time>
      </trkpt>
      <trkpt lat="42.5405140" lon="-8.6435850">
        <ele>38.9</ele>
        <time>2021-05-22T09:58:39Z</time>
      </trkpt>
      <trkpt lat="42.5405230" lon="-8.6435840">
        <ele>39.0</ele>
        <time>2021-05-22T09:58:40Z</time>
      </trkpt>
      <trkpt lat="42.5405350" lon="-8.6435790">
        <ele>39.1</ele>
        <time>2021-05-22T09:58:41Z</time>
      </trkpt>
      <trkpt lat="42.5405420" lon="-8.6435740">
        <ele>39.1</ele>
        <time>2021-05-22T09:58:42Z</time>
      </trkpt>
      <trkpt lat="42.5405500" lon="-8.6435700">
        <ele>39.1</ele>
        <time>2021-05-22T09:58:43Z</time>
      </trkpt>
      <trkpt lat="42.5405610" lon="-8.6435680">
        <ele>39.2</ele>
        <time>2021-05-22T09:58:44Z</time>
      </trkpt>
      <trkpt lat="42.5405710" lon="-8.6435610">
        <ele>39.3</ele>
        <time>2021-05-22T09:58:45Z</time>
      </trkpt>
      <trkpt lat="42.5405930" lon="-8.6435520">
        <ele>39.4</ele>
        <time>2021-05-22T09:58:46Z</time>
      </trkpt>
      <trkpt lat="42.5406010" lon="-8.6435490">
        <ele>39.4</ele>
        <time>2021-05-22T09:58:47Z</time>
      </trkpt>
      <trkpt lat="42.5406090" lon="-8.6435450">
        <ele>39.5</ele>
        <time>2021-05-22T09:58:48Z</time>
      </trkpt>
      <trkpt lat="42.5406300" lon="-8.6435370">
        <ele>39.6</ele>
        <time>2021-05-22T09:58:49Z</time>
      </trkpt>
      <trkpt lat="42.5406380" lon="-8.6435340">
        <ele>39.6</ele>
        <time>2021-05-22T09:58:50Z</time>
      </trkpt>
      <trkpt lat="42.5406460" lon="-8.6435310">
        <ele>39.6</ele>
        <time>2021-05-22T09:58:51Z</time>
      </trkpt>
      <trkpt lat="42.5406570" lon="-8.6435260">
        <ele>39.6</ele>
        <time>2021-05-22T09:58:52Z</time>
      </trkpt>
      <trkpt lat="42.5406670" lon="-8.6435270">
        <ele>39.6</ele>
        <time>2021-05-22T09:58:53Z</time>
      </trkpt>
      <trkpt lat="42.5406810" lon="-8.6435200">
        <ele>39.6</ele>
        <time>2021-05-22T09:58:54Z</time>
      </trkpt>
      <trkpt lat="42.5406920" lon="-8.6435120">
        <ele>39.6</ele>
        <time>2021-05-22T09:58:55Z</time>
      </trkpt>
      <trkpt lat="42.5407010" lon="-8.6435080">
        <ele>39.6</ele>
        <time>2021-05-22T09:58:56Z</time>
      </trkpt>
      <trkpt lat="42.5407140" lon="-8.6435020">
        <ele>39.6</ele>
        <time>2021-05-22T09:58:57Z</time>
      </trkpt>
      <trkpt lat="42.5407230" lon="-8.6434960">
        <ele>39.6</ele>
        <time>2021-05-22T09:58:58Z</time>
      </trkpt>
      <trkpt lat="42.5407420" lon="-8.6434900">
        <ele>39.6</ele>
        <time>2021-05-22T09:58:59Z</time>
      </trkpt>
      <trkpt lat="42.5407520" lon="-8.6434730">
        <ele>39.6</ele>
        <time>2021-05-22T09:59:00Z</time>
      </trkpt>
      <trkpt lat="42.5407650" lon="-8.6434640">
        <ele>39.6</ele>
        <time>2021-05-22T09:59:01Z</time>
      </trkpt>
      <trkpt lat="42.5407730" lon="-8.6434610">
        <ele>39.6</ele>
        <time>2021-05-22T09:59:02Z</time>
      </trkpt>
      <trkpt lat="42.5407820" lon="-8.6434590">
        <ele>39.6</ele>
        <time>2021-05-22T09:59:03Z</time>
      </trkpt>
      <trkpt lat="42.5407860" lon="-8.6434530">
        <ele>39.6</ele>
        <time>2021-05-22T09:59:04Z</time>
      </trkpt>
      <trkpt lat="42.5407910" lon="-8.6434480">
        <ele>39.6</ele>
        <time>2021-05-22T09:59:05Z</time>
      </trkpt>
      <trkpt lat="42.5408010" lon="-8.6434490">
        <ele>39.6</ele>
        <time>2021-05-22T09:59:06Z</time>
      </trkpt>
      <trkpt lat="42.5408060" lon="-8.6434510">
        <ele>39.6</ele>
        <time>2021-05-22T09:59:07Z</time>
      </trkpt>
      <trkpt lat="42.5408150" lon="-8.6434490">
        <ele>39.5</ele>
        <time>2021-05-22T09:59:08Z</time>
      </trkpt>
      <trkpt lat="42.5408200" lon="-8.6434450">
        <ele>39.5</ele>
        <time>2021-05-22T09:59:09Z</time>
      </trkpt>
      <trkpt lat="42.5408390" lon="-8.6434280">
        <ele>39.5</ele>
        <time>2021-05-22T09:59:10Z</time>
      </trkpt>
      <trkpt lat="42.5408480" lon="-8.6434200">
        <ele>39.5</ele>
        <time>2021-05-22T09:59:11Z</time>
      </trkpt>
      <trkpt lat="42.5408580" lon="-8.6434110">
        <ele>39.5</ele>
        <time>2021-05-22T09:59:12Z</time>
      </trkpt>
      <trkpt lat="42.5408680" lon="-8.6434050">
        <ele>39.5</ele>
        <time>2021-05-22T09:59:13Z</time>
      </trkpt>
      <trkpt lat="42.5408800" lon="-8.6434040">
        <ele>39.5</ele>
        <time>2021-05-22T09:59:14Z</time>
      </trkpt>
      <trkpt lat="42.5408930" lon="-8.6434030">
        <ele>39.5</ele>
        <time>2021-05-22T09:59:15Z</time>
      </trkpt>
      <trkpt lat="42.5409170" lon="-8.6434040">
        <ele>39.5</ele>
        <time>2021-05-22T09:59:16Z</time>
      </trkpt>
      <trkpt lat="42.5409270" lon="-8.6434040">
        <ele>39.5</ele>
        <time>2021-05-22T09:59:17Z</time>
      </trkpt>
      <trkpt lat="42.5409360" lon="-8.6434030">
        <ele>39.5</ele>
        <time>2021-05-22T09:59:18Z</time>
      </trkpt>
      <trkpt lat="42.5409510" lon="-8.6434040">
        <ele>39.4</ele>
        <time>2021-05-22T09:59:19Z</time>
      </trkpt>
      <trkpt lat="42.5409640" lon="-8.6434010">
        <ele>39.4</ele>
        <time>2021-05-22T09:59:20Z</time>
      </trkpt>
      <trkpt lat="42.5409820" lon="-8.6433920">
        <ele>39.4</ele>
        <time>2021-05-22T09:59:21Z</time>
      </trkpt>
      <trkpt lat="42.5409910" lon="-8.6433870">
        <ele>39.4</ele>
        <time>2021-05-22T09:59:22Z</time>
      </trkpt>
      <trkpt lat="42.5410010" lon="-8.6433820">
        <ele>39.4</ele>
        <time>2021-05-22T09:59:23Z</time>
      </trkpt>
      <trkpt lat="42.5410130" lon="-8.6433800">
        <ele>39.4</ele>
        <time>2021-05-22T09:59:24Z</time>
      </trkpt>
      <trkpt lat="42.5410330" lon="-8.6433730">
        <ele>39.5</ele>
        <time>2021-05-22T09:59:25Z</time>
      </trkpt>
      <trkpt lat="42.5410520" lon="-8.6433620">
        <ele>39.5</ele>
        <time>2021-05-22T09:59:26Z</time>
      </trkpt>
      <trkpt lat="42.5410600" lon="-8.6433610">
        <ele>39.5</ele>
        <time>2021-05-22T09:59:27Z</time>
      </trkpt>
      <trkpt lat="42.5410690" lon="-8.6433600">
        <ele>39.5</ele>
        <time>2021-05-22T09:59:28Z</time>
      </trkpt>
      <trkpt lat="42.5410810" lon="-8.6433600">
        <ele>39.5</ele>
        <time>2021-05-22T09:59:29Z</time>
      </trkpt>
      <trkpt lat="42.5410930" lon="-8.6433580">
        <ele>39.5</ele>
        <time>2021-05-22T09:59:30Z</time>
      </trkpt>
      <trkpt lat="42.5411020" lon="-8.6433540">
        <ele>39.5</ele>
        <time>2021-05-22T09:59:31Z</time>
      </trkpt>
      <trkpt lat="42.5411190" lon="-8.6433480">
        <ele>39.5</ele>
        <time>2021-05-22T09:59:32Z</time>
      </trkpt>
      <trkpt lat="42.5411280" lon="-8.6433430">
        <ele>39.5</ele>
        <time>2021-05-22T09:59:33Z</time>
      </trkpt>
      <trkpt lat="42.5411430" lon="-8.6433370">
        <ele>39.5</ele>
        <time>2021-05-22T09:59:34Z</time>
      </trkpt>
      <trkpt lat="42.5411540" lon="-8.6433320">
        <ele>39.5</ele>
        <time>2021-05-22T09:59:35Z</time>
      </trkpt>
      <trkpt lat="42.5411740" lon="-8.6433220">
        <ele>39.6</ele>
        <time>2021-05-22T09:59:36Z</time>
      </trkpt>
      <trkpt lat="42.5411830" lon="-8.6433170">
        <ele>39.6</ele>
        <time>2021-05-22T09:59:37Z</time>
      </trkpt>
      <trkpt lat="42.5411910" lon="-8.6433110">
        <ele>39.6</ele>
        <time>2021-05-22T09:59:38Z</time>
      </trkpt>
      <trkpt lat="42.5412130" lon="-8.6433050">
        <ele>39.6</ele>
        <time>2021-05-22T09:59:39Z</time>
      </trkpt>
      <trkpt lat="42.5412230" lon="-8.6433010">
        <ele>39.6</ele>
        <time>2021-05-22T09:59:40Z</time>
      </trkpt>
      <trkpt lat="42.5412330" lon="-8.6432970">
        <ele>39.7</ele>
        <time>2021-05-22T09:59:41Z</time>
      </trkpt>
      <trkpt lat="42.5412510" lon="-8.6432910">
        <ele>39.7</ele>
        <time>2021-05-22T09:59:42Z</time>
      </trkpt>
      <trkpt lat="42.5412600" lon="-8.6432870">
        <ele>39.7</ele>
        <time>2021-05-22T09:59:43Z</time>
      </trkpt>
      <trkpt lat="42.5412690" lon="-8.6432840">
        <ele>39.7</ele>
        <time>2021-05-22T09:59:44Z</time>
      </trkpt>
      <trkpt lat="42.5412770" lon="-8.6432740">
        <ele>39.7</ele>
        <time>2021-05-22T09:59:45Z</time>
      </trkpt>
      <trkpt lat="42.5412900" lon="-8.6432690">
        <ele>39.8</ele>
        <time>2021-05-22T09:59:46Z</time>
      </trkpt>
      <trkpt lat="42.5413000" lon="-8.6432650">
        <ele>39.8</ele>
        <time>2021-05-22T09:59:47Z</time>
      </trkpt>
      <trkpt lat="42.5413150" lon="-8.6432560">
        <ele>39.8</ele>
        <time>2021-05-22T09:59:48Z</time>
      </trkpt>
      <trkpt lat="42.5413270" lon="-8.6432520">
        <ele>39.8</ele>
        <time>2021-05-22T09:59:49Z</time>
      </trkpt>
      <trkpt lat="42.5413420" lon="-8.6432480">
        <ele>39.9</ele>
        <time>2021-05-22T09:59:50Z</time>
      </trkpt>
      <trkpt lat="42.5413510" lon="-8.6432420">
        <ele>39.9</ele>
        <time>2021-05-22T09:59:51Z</time>
      </trkpt>
      <trkpt lat="42.5413610" lon="-8.6432360">
        <ele>39.9</ele>
        <time>2021-05-22T09:59:52Z</time>
      </trkpt>
      <trkpt lat="42.5413730" lon="-8.6432250">
        <ele>39.9</ele>
        <time>2021-05-22T09:59:53Z</time>
      </trkpt>
      <trkpt lat="42.5413860" lon="-8.6432140">
        <ele>40.0</ele>
        <time>2021-05-22T09:59:54Z</time>
      </trkpt>
      <trkpt lat="42.5414050" lon="-8.6432000">
        <ele>40.0</ele>
        <time>2021-05-22T09:59:55Z</time>
      </trkpt>
      <trkpt lat="42.5414130" lon="-8.6431950">
        <ele>40.1</ele>
        <time>2021-05-22T09:59:56Z</time>
      </trkpt>
      <trkpt lat="42.5414200" lon="-8.6431900">
        <ele>40.1</ele>
        <time>2021-05-22T09:59:57Z</time>
      </trkpt>
      <trkpt lat="42.5414320" lon="-8.6431850">
        <ele>40.1</ele>
        <time>2021-05-22T09:59:58Z</time>
      </trkpt>
      <trkpt lat="42.5414440" lon="-8.6431780">
        <ele>40.2</ele>
        <time>2021-05-22T09:59:59Z</time>
      </trkpt>
      <trkpt lat="42.5414520" lon="-8.6431700">
        <ele>40.2</ele>
        <time>2021-05-22T10:00:00Z</time>
      </trkpt>
      <trkpt lat="42.5414620" lon="-8.6431600">
        <ele>40.2</ele>
        <time>2021-05-22T10:00:01Z</time>
      </trkpt>
      <trkpt lat="42.5414760" lon="-8.6431470">
        <ele>40.3</ele>
        <time>2021-05-22T10:00:02Z</time>
      </trkpt>
      <trkpt lat="42.5414910" lon="-8.6431280">
        <ele>40.3</ele>
        <time>2021-05-22T10:00:03Z</time>
      </trkpt>
      <trkpt lat="42.5414980" lon="-8.6431210">
        <ele>40.4</ele>
        <time>2021-05-22T10:00:04Z</time>
      </trkpt>
      <trkpt lat="42.5415040" lon="-8.6431140">
        <ele>40.4</ele>
        <time>2021-05-22T10:00:05Z</time>
      </trkpt>
      <trkpt lat="42.5415200" lon="-8.6431010">
        <ele>40.5</ele>
        <time>2021-05-22T10:00:06Z</time>
      </trkpt>
      <trkpt lat="42.5415290" lon="-8.6430960">
        <ele>40.5</ele>
        <time>2021-05-22T10:00:07Z</time>
      </trkpt>
      <trkpt lat="42.5415370" lon="-8.6430910">
        <ele>40.5</ele>
        <time>2021-05-22T10:00:08Z</time>
      </trkpt>
      <trkpt lat="42.5415490" lon="-8.6430770">
        <ele>40.6</ele>
        <time>2021-05-22T10:00:09Z</time>
      </trkpt>
      <trkpt lat="42.5415610" lon="-8.6430650">
        <ele>40.6</ele>
        <time>2021-05-22T10:00:10Z</time>
      </trkpt>
      <trkpt lat="42.5415700" lon="-8.6430560">
        <ele>40.6</ele>
        <time>2021-05-22T10:00:11Z</time>
      </trkpt>
      <trkpt lat="42.5415770" lon="-8.6430450">
        <ele>40.7</ele>
        <time>2021-05-22T10:00:12Z</time>
      </trkpt>
      <trkpt lat="42.5415820" lon="-8.6430350">
        <ele>40.7</ele>
        <time>2021-05-22T10:00:13Z</time>
      </trkpt>
      <trkpt lat="42.5415890" lon="-8.6430280">
        <ele>40.7</ele>
        <time>2021-05-22T10:00:14Z</time>
      </trkpt>
      <trkpt lat="42.5415950" lon="-8.6430180">
        <ele>40.8</ele>
        <time>2021-05-22T10:00:15Z</time>
      </trkpt>
      <trkpt lat="42.5416020" lon="-8.6430080">
        <ele>40.8</ele>
        <time>2021-05-22T10:00:16Z</time>
      </trkpt>
      <trkpt lat="42.5416220" lon="-8.6429970">
        <ele>40.9</ele>
        <time>2021-05-22T10:00:17Z</time>
      </trkpt>
      <trkpt lat="42.5416330" lon="-8.6429910">
        <ele>40.9</ele>
        <time>2021-05-22T10:00:18Z</time>
      </trkpt>
      <trkpt lat="42.5416450" lon="-8.6429840">
        <ele>41.0</ele>
        <time>2021-05-22T10:00:19Z</time>
      </trkpt>
      <trkpt lat="42.5416500" lon="-8.6429810">
        <ele>41.0</ele>
        <time>2021-05-22T10:00:20Z</time>
      </trkpt>
      <trkpt lat="42.5416580" lon="-8.6429750">
        <ele>41.1</ele>
        <time>2021-05-22T10:00:21Z</time>
      </trkpt>
      <trkpt lat="42.5416790" lon="-8.6429690">
        <ele>41.1</ele>
        <time>2021-05-22T10:00:22Z</time>
      </trkpt>
      <trkpt lat="42.5416870" lon="-8.6429650">
        <ele>41.1</ele>
        <time>2021-05-22T10:00:23Z</time>
      </trkpt>
      <trkpt lat="42.5416980" lon="-8.6429650">
        <ele>41.1</ele>
        <time>2021-05-22T10:00:24Z</time>
      </trkpt>
      <trkpt lat="42.5417090" lon="-8.6429590">
        <ele>41.1</ele>
        <time>2021-05-22T10:00:25Z</time>
      </trkpt>
      <trkpt lat="42.5417240" lon="-8.6429580">
        <ele>41.2</ele>
        <time>2021-05-22T10:00:26Z</time>
      </trkpt>
      <trkpt lat="42.5417320" lon="-8.6429570">
        <ele>41.2</ele>
        <time>2021-05-22T10:00:27Z</time>
      </trkpt>
      <trkpt lat="42.5417400" lon="-8.6429570">
        <ele>41.2</ele>
        <time>2021-05-22T10:00:28Z</time>
      </trkpt>
      <trkpt lat="42.5417480" lon="-8.6429560">
        <ele>41.2</ele>
        <time>2021-05-22T10:00:29Z</time>
      </trkpt>
      <trkpt lat="42.5417550" lon="-8.6429510">
        <ele>41.2</ele>
        <time>2021-05-22T10:00:30Z</time>
      </trkpt>
      <trkpt lat="42.5417640" lon="-8.6429480">
        <ele>41.2</ele>
        <time>2021-05-22T10:00:31Z</time>
      </trkpt>
      <trkpt lat="42.5417760" lon="-8.6429440">
        <ele>41.2</ele>
        <time>2021-05-22T10:00:32Z</time>
      </trkpt>
      <trkpt lat="42.5417860" lon="-8.6429410">
        <ele>41.2</ele>
        <time>2021-05-22T10:00:33Z</time>
      </trkpt>
      <trkpt lat="42.5418020" lon="-8.6429350">
        <ele>41.3</ele>
        <time>2021-05-22T10:00:34Z</time>
      </trkpt>
      <trkpt lat="42.5418110" lon="-8.6429360">
        <ele>41.3</ele>
        <time>2021-05-22T10:00:35Z</time>
      </trkpt>
      <trkpt lat="42.5418250" lon="-8.6429300">
        <ele>41.3</ele>
        <time>2021-05-22T10:00:36Z</time>
      </trkpt>
      <trkpt lat="42.5418330" lon="-8.6429270">
        <ele>41.3</ele>
        <time>2021-05-22T10:00:37Z</time>
      </trkpt>
      <trkpt lat="42.5418400" lon="-8.6429240">
        <ele>41.3</ele>
        <time>2021-05-22T10:00:38Z</time>
      </trkpt>
      <trkpt lat="42.5418470" lon="-8.6429210">
        <ele>41.3</ele>
        <time>2021-05-22T10:00:39Z</time>
      </trkpt>
      <trkpt lat="42.5418670" lon="-8.6429130">
        <ele>41.3</ele>
        <time>2021-05-22T10:00:40Z</time>
      </trkpt>
      <trkpt lat="42.5418760" lon="-8.6429100">
        <ele>41.3</ele>
        <time>2021-05-22T10:00:41Z</time>
      </trkpt>
      <trkpt lat="42.5418860" lon="-8.6429070">
        <ele>41.3</ele>
        <time>2021-05-22T10:00:42Z</time>
      </trkpt>
      <trkpt lat="42.5419050" lon="-8.6429040">
        <ele>41.3</ele>
        <time>2021-05-22T10:00:43Z</time>
      </trkpt>
      <trkpt lat="42.5419150" lon="-8.6429000">
        <ele>41.3</ele>
        <time>2021-05-22T10:00:44Z</time>
      </trkpt>
      <trkpt lat="42.5419240" lon="-8.6428950">
        <ele>41.3</ele>
        <time>2021-05-22T10:00:45Z</time>
      </trkpt>
      <trkpt lat="42.5419360" lon="-8.6428860">
        <ele>41.2</ele>
        <time>2021-05-22T10:00:46Z</time>
      </trkpt>
      <trkpt lat="42.5419480" lon="-8.6428800">
        <ele>41.2</ele>
        <time>2021-05-22T10:00:47Z</time>
      </trkpt>
      <trkpt lat="42.5419530" lon="-8.6428770">
        <ele>41.2</ele>
        <time>2021-05-22T10:00:48Z</time>
      </trkpt>
      <trkpt lat="42.5419600" lon="-8.6428760">
        <ele>41.2</ele>
        <time>2021-05-22T10:00:49Z</time>
      </trkpt>
      <trkpt lat="42.5419720" lon="-8.6428700">
        <ele>41.2</ele>
        <time>2021-05-22T10:00:50Z</time>
      </trkpt>
      <trkpt lat="42.5419860" lon="-8.6428660">
        <ele>41.2</ele>
        <time>2021-05-22T10:00:51Z</time>
      </trkpt>
      <trkpt lat="42.5419970" lon="-8.6428570">
        <ele>41.2</ele>
        <time>2021-05-22T10:00:52Z</time>
      </trkpt>
      <trkpt lat="42.5420100" lon="-8.6428500">
        <ele>41.2</ele>
        <time>2021-05-22T10:00:53Z</time>
      </trkpt>
      <trkpt lat="42.5420180" lon="-8.6428470">
        <ele>41.2</ele>
        <time>2021-05-22T10:00:54Z</time>
      </trkpt>
      <trkpt lat="42.5420290" lon="-8.6428390">
        <ele>41.1</ele>
        <time>2021-05-22T10:00:55Z</time>
      </trkpt>
      <trkpt lat="42.5420410" lon="-8.6428390">
        <ele>41.1</ele>
        <time>2021-05-22T10:00:56Z</time>
      </trkpt>
      <trkpt lat="42.5420610" lon="-8.6428280">
        <ele>41.1</ele>
        <time>2021-05-22T10:00:57Z</time>
      </trkpt>
      <trkpt lat="42.5420710" lon="-8.6428250">
        <ele>41.1</ele>
        <time>2021-05-22T10:00:58Z</time>
      </trkpt>
      <trkpt lat="42.5420800" lon="-8.6428220">
        <ele>41.1</ele>
        <time>2021-05-22T10:00:59Z</time>
      </trkpt>
      <trkpt lat="42.5420950" lon="-8.6428160">
        <ele>41.0</ele>
        <time>2021-05-22T10:01:00Z</time>
      </trkpt>
      <trkpt lat="42.5421030" lon="-8.6428110">
        <ele>41.0</ele>
        <time>2021-05-22T10:01:01Z</time>
      </trkpt>
      <trkpt lat="42.5421120" lon="-8.6428070">
        <ele>41.0</ele>
        <time>2021-05-22T10:01:02Z</time>
      </trkpt>
      <trkpt lat="42.5421200" lon="-8.6428020">
        <ele>41.0</ele>
        <time>2021-05-22T10:01:03Z</time>
      </trkpt>
      <trkpt lat="42.5421370" lon="-8.6427930">
        <ele>40.9</ele>
        <time>2021-05-22T10:01:04Z</time>
      </trkpt>
      <trkpt lat="42.5421510" lon="-8.6427860">
        <ele>40.9</ele>
        <time>2021-05-22T10:01:05Z</time>
      </trkpt>
      <trkpt lat="42.5421690" lon="-8.6427770">
        <ele>40.8</ele>
        <time>2021-05-22T10:01:06Z</time>
      </trkpt>
      <trkpt lat="42.5421790" lon="-8.6427730">
        <ele>40.8</ele>
        <time>2021-05-22T10:01:07Z</time>
      </trkpt>
      <trkpt lat="42.5421880" lon="-8.6427700">
        <ele>40.7</ele>
        <time>2021-05-22T10:01:08Z</time>
      </trkpt>
      <trkpt lat="42.5422050" lon="-8.6427660">
        <ele>40.7</ele>
        <time>2021-05-22T10:01:09Z</time>
      </trkpt>
      <trkpt lat="42.5422190" lon="-8.6427580">
        <ele>40.6</ele>
        <time>2021-05-22T10:01:10Z</time>
      </trkpt>
      <trkpt lat="42.5422270" lon="-8.6427530">
        <ele>40.6</ele>
        <time>2021-05-22T10:01:11Z</time>
      </trkpt>
      <trkpt lat="42.5422450" lon="-8.6427430">
        <ele>40.5</ele>
        <time>2021-05-22T10:01:12Z</time>
      </trkpt>
      <trkpt lat="42.5422650" lon="-8.6427390">
        <ele>40.5</ele>
        <time>2021-05-22T10:01:13Z</time>
      </trkpt>
      <trkpt lat="42.5422740" lon="-8.6427350">
        <ele>40.4</ele>
        <time>2021-05-22T10:01:14Z</time>
      </trkpt>
      <trkpt lat="42.5422820" lon="-8.6427320">
        <ele>40.4</ele>
        <time>2021-05-22T10:01:15Z</time>
      </trkpt>
      <trkpt lat="42.5422900" lon="-8.6427270">
        <ele>40.4</ele>
        <time>2021-05-22T10:01:16Z</time>
      </trkpt>
      <trkpt lat="42.5422990" lon="-8.6427250">
        <ele>40.4</ele>
        <time>2021-05-22T10:01:17Z</time>
      </trkpt>
      <trkpt lat="42.5423060" lon="-8.6427230">
        <ele>40.3</ele>
        <time>2021-05-22T10:01:18Z</time>
      </trkpt>
      <trkpt lat="42.5423120" lon="-8.6427210">
        <ele>40.3</ele>
        <time>2021-05-22T10:01:19Z</time>
      </trkpt>
      <trkpt lat="42.5423300" lon="-8.6427130">
        <ele>40.3</ele>
        <time>2021-05-22T10:01:20Z</time>
      </trkpt>
      <trkpt lat="42.5423420" lon="-8.6427070">
        <ele>40.2</ele>
        <time>2021-05-22T10:01:21Z</time>
      </trkpt>
      <trkpt lat="42.5423550" lon="-8.6427010">
        <ele>40.2</ele>
        <time>2021-05-22T10:01:22Z</time>
      </trkpt>
      <trkpt lat="42.5423600" lon="-8.6426970">
        <ele>40.2</ele>
        <time>2021-05-22T10:01:23Z</time>
      </trkpt>
      <trkpt lat="42.5423620" lon="-8.6426960">
        <ele>40.1</ele>
        <time>2021-05-22T10:01:24Z</time>
      </trkpt>
      <trkpt lat="42.5423700" lon="-8.6426900">
        <ele>40.1</ele>
        <time>2021-05-22T10:01:25Z</time>
      </trkpt>
      <trkpt lat="42.5423900" lon="-8.6426840">
        <ele>40.1</ele>
        <time>2021-05-22T10:01:26Z</time>
      </trkpt>
      <trkpt lat="42.5423980" lon="-8.6426820">
        <ele>40.0</ele>
        <time>2021-05-22T10:01:27Z</time>
      </trkpt>
      <trkpt lat="42.5424070" lon="-8.6426810">
        <ele>40.0</ele>
        <time>2021-05-22T10:01:28Z</time>
      </trkpt>
      <trkpt lat="42.5424250" lon="-8.6426710">
        <ele>40.0</ele>
        <time>2021-05-22T10:01:29Z</time>
      </trkpt>
      <trkpt lat="42.5424350" lon="-8.6426670">
        <ele>39.9</ele>
        <time>2021-05-22T10:01:30Z</time>
      </trkpt>
      <trkpt lat="42.5424420" lon="-8.6426650">
        <ele>39.9</ele>
        <time>2021-05-22T10:01:31Z</time>
      </trkpt>
      <trkpt lat="42.5424500" lon="-8.6426580">
        <ele>39.9</ele>
        <time>2021-05-22T10:01:32Z</time>
      </trkpt>
      <trkpt lat="42.5424550" lon="-8.6426580">
        <ele>39.9</ele>
        <time>2021-05-22T10:01:33Z</time>
      </trkpt>
      <trkpt lat="42.5424620" lon="-8.6426580">
        <ele>39.9</ele>
        <time>2021-05-22T10:01:34Z</time>
      </trkpt>
      <trkpt lat="42.5424730" lon="-8.6426520">
        <ele>39.8</ele>
        <time>2021-05-22T10:01:35Z</time>
      </trkpt>
      <trkpt lat="42.5424900" lon="-8.6426430">
        <ele>39.8</ele>
        <time>2021-05-22T10:01:36Z</time>
      </trkpt>
      <trkpt lat="42.5425110" lon="-8.6426400">
        <ele>39.7</ele>
        <time>2021-05-22T10:01:37Z</time>
      </trkpt>
      <trkpt lat="42.5425170" lon="-8.6426370">
        <ele>39.7</ele>
        <time>2021-05-22T10:01:38Z</time>
      </trkpt>
      <trkpt lat="42.5425330" lon="-8.6426310">
        <ele>39.7</ele>
        <time>2021-05-22T10:01:39Z</time>
      </trkpt>
      <trkpt lat="42.5425450" lon="-8.6426280">
        <ele>39.7</ele>
        <time>2021-05-22T10:01:40Z</time>
      </trkpt>
      <trkpt lat="42.5425580" lon="-8.6426240">
        <ele>39.7</ele>
        <time>2021-05-22T10:01:41Z</time>
      </trkpt>
      <trkpt lat="42.5425690" lon="-8.6426180">
        <ele>39.6</ele>
        <time>2021-05-22T10:01:42Z</time>
      </trkpt>
      <trkpt lat="42.5425780" lon="-8.6426120">
        <ele>39.6</ele>
        <time>2021-05-22T10:01:43Z</time>
      </trkpt>
      <trkpt lat="42.5425880" lon="-8.6426130">
        <ele>39.6</ele>
        <time>2021-05-22T10:01:44Z</time>
      </trkpt>
      <trkpt lat="42.5426080" lon="-8.6426100">
        <ele>39.6</ele>
        <time>2021-05-22T10:01:45Z</time>
      </trkpt>
      <trkpt lat="42.5426160" lon="-8.6426080">
        <ele>39.6</ele>
        <time>2021-05-22T10:01:46Z</time>
      </trkpt>
      <trkpt lat="42.5426250" lon="-8.6426050">
        <ele>39.6</ele>
        <time>2021-05-22T10:01:47Z</time>
      </trkpt>
      <trkpt lat="42.5426350" lon="-8.6425900">
        <ele>39.6</ele>
        <time>2021-05-22T10:01:48Z</time>
      </trkpt>
      <trkpt lat="42.5426360" lon="-8.6425840">
        <ele>39.6</ele>
        <time>2021-05-22T10:01:49Z</time>
      </trkpt>
      <trkpt lat="42.5426390" lon="-8.6425800">
        <ele>39.6</ele>
        <time>2021-05-22T10:01:50Z</time>
      </trkpt>
      <trkpt lat="42.5426480" lon="-8.6425760">
        <ele>39.6</ele>
        <time>2021-05-22T10:01:51Z</time>
      </trkpt>
      <trkpt lat="42.5426750" lon="-8.6425610">
        <ele>39.6</ele>
        <time>2021-05-22T10:01:52Z</time>
      </trkpt>
      <trkpt lat="42.5426820" lon="-8.6425600">
        <ele>39.6</ele>
        <time>2021-05-22T10:01:53Z</time>
      </trkpt>
      <trkpt lat="42.5426880" lon="-8.6425580">
        <ele>39.6</ele>
        <time>2021-05-22T10:01:54Z</time>
      </trkpt>
      <trkpt lat="42.5427030" lon="-8.6425660">
        <ele>39.6</ele>
        <time>2021-05-22T10:01:55Z</time>
      </trkpt>
      <trkpt lat="42.5427130" lon="-8.6425700">
        <ele>39.6</ele>
        <time>2021-05-22T10:01:56Z</time>
      </trkpt>
      <trkpt lat="42.5427240" lon="-8.6425730">
        <ele>39.6</ele>
        <time>2021-05-22T10:01:57Z</time>
      </trkpt>
      <trkpt lat="42.5427400" lon="-8.6425710">
        <ele>39.6</ele>
        <time>2021-05-22T10:01:58Z</time>
      </trkpt>
      <trkpt lat="42.5427510" lon="-8.6425730">
        <ele>39.6</ele>
        <time>2021-05-22T10:01:59Z</time>
      </trkpt>
      <trkpt lat="42.5427620" lon="-8.6425760">
        <ele>39.6</ele>
        <time>2021-05-22T10:02:00Z</time>
      </trkpt>
      <trkpt lat="42.5427740" lon="-8.6425750">
        <ele>39.6</ele>
        <time>2021-05-22T10:02:01Z</time>
      </trkpt>
      <trkpt lat="42.5427900" lon="-8.6425800">
        <ele>39.6</ele>
        <time>2021-05-22T10:02:02Z</time>
      </trkpt>
      <trkpt lat="42.5427990" lon="-8.6425770">
        <ele>39.7</ele>
        <time>2021-05-22T10:02:03Z</time>
      </trkpt>
      <trkpt lat="42.5428010" lon="-8.6425820">
        <ele>39.7</ele>
        <time>2021-05-22T10:02:04Z</time>
      </trkpt>
      <trkpt lat="42.5428160" lon="-8.6425890">
        <ele>39.7</ele>
        <time>2021-05-22T10:02:05Z</time>
      </trkpt>
      <trkpt lat="42.5428100" lon="-8.6425910">
        <ele>39.7</ele>
        <time>2021-05-22T10:02:06Z</time>
      </trkpt>
      <trkpt lat="42.5428310" lon="-8.6426030">
        <ele>39.8</ele>
        <time>2021-05-22T10:02:07Z</time>
      </trkpt>
      <trkpt lat="42.5428440" lon="-8.6426170">
        <ele>39.8</ele>
        <time>2021-05-22T10:02:08Z</time>
      </trkpt>
      <trkpt lat="42.5428560" lon="-8.6426220">
        <ele>39.8</ele>
        <time>2021-05-22T10:02:09Z</time>
      </trkpt>
      <trkpt lat="42.5428740" lon="-8.6426270">
        <ele>39.9</ele>
        <time>2021-05-22T10:02:10Z</time>
      </trkpt>
      <trkpt lat="42.5428840" lon="-8.6426280">
        <ele>39.9</ele>
        <time>2021-05-22T10:02:11Z</time>
      </trkpt>
      <trkpt lat="42.5428940" lon="-8.6426310">
        <ele>39.9</ele>
        <time>2021-05-22T10:02:12Z</time>
      </trkpt>
      <trkpt lat="42.5429030" lon="-8.6426380">
        <ele>40.0</ele>
        <time>2021-05-22T10:02:13Z</time>
      </trkpt>
      <trkpt lat="42.5429140" lon="-8.6426470">
        <ele>40.0</ele>
        <time>2021-05-22T10:02:14Z</time>
      </trkpt>
      <trkpt lat="42.5429190" lon="-8.6426540">
        <ele>40.0</ele>
        <time>2021-05-22T10:02:15Z</time>
      </trkpt>
      <trkpt lat="42.5429300" lon="-8.6426630">
        <ele>40.1</ele>
        <time>2021-05-22T10:02:16Z</time>
      </trkpt>
      <trkpt lat="42.5429400" lon="-8.6426640">
        <ele>40.1</ele>
        <time>2021-05-22T10:02:17Z</time>
      </trkpt>
      <trkpt lat="42.5429530" lon="-8.6426740">
        <ele>40.2</ele>
        <time>2021-05-22T10:02:18Z</time>
      </trkpt>
      <trkpt lat="42.5429630" lon="-8.6426730">
        <ele>40.2</ele>
        <time>2021-05-22T10:02:19Z</time>
      </trkpt>
      <trkpt lat="42.5429710" lon="-8.6426830">
        <ele>40.3</ele>
        <time>2021-05-22T10:02:20Z</time>
      </trkpt>
      <trkpt lat="42.5429820" lon="-8.6426900">
        <ele>40.3</ele>
        <time>2021-05-22T10:02:21Z</time>
      </trkpt>
      <trkpt lat="42.5429880" lon="-8.6426950">
        <ele>40.4</ele>
        <time>2021-05-22T10:02:22Z</time>
      </trkpt>
      <trkpt lat="42.5430010" lon="-8.6427040">
        <ele>40.4</ele>
        <time>2021-05-22T10:02:23Z</time>
      </trkpt>
      <trkpt lat="42.5430150" lon="-8.6427090">
        <ele>40.5</ele>
        <time>2021-05-22T10:02:24Z</time>
      </trkpt>
      <trkpt lat="42.5430300" lon="-8.6427200">
        <ele>40.6</ele>
        <time>2021-05-22T10:02:25Z</time>
      </trkpt>
      <trkpt lat="42.5430450" lon="-8.6427230">
        <ele>40.7</ele>
        <time>2021-05-22T10:02:26Z</time>
      </trkpt>
      <trkpt lat="42.5430540" lon="-8.6427290">
        <ele>40.7</ele>
        <time>2021-05-22T10:02:27Z</time>
      </trkpt>
      <trkpt lat="42.5430640" lon="-8.6427360">
        <ele>40.8</ele>
        <time>2021-05-22T10:02:28Z</time>
      </trkpt>
      <trkpt lat="42.5430710" lon="-8.6427480">
        <ele>40.9</ele>
        <time>2021-05-22T10:02:29Z</time>
      </trkpt>
      <trkpt lat="42.5430870" lon="-8.6427540">
        <ele>41.0</ele>
        <time>2021-05-22T10:02:30Z</time>
      </trkpt>
      <trkpt lat="42.5430940" lon="-8.6427530">
        <ele>41.0</ele>
        <time>2021-05-22T10:02:31Z</time>
      </trkpt>
      <trkpt lat="42.5431030" lon="-8.6427640">
        <ele>41.1</ele>
        <time>2021-05-22T10:02:32Z</time>
      </trkpt>
      <trkpt lat="42.5431200" lon="-8.6427670">
        <ele>41.2</ele>
        <time>2021-05-22T10:02:33Z</time>
      </trkpt>
      <trkpt lat="42.5431300" lon="-8.6427720">
        <ele>41.3</ele>
        <time>2021-05-22T10:02:34Z</time>
      </trkpt>
      <trkpt lat="42.5431400" lon="-8.6427760">
        <ele>41.3</ele>
        <time>2021-05-22T10:02:36Z</time>
      </trkpt>
      <trkpt lat="42.5431490" lon="-8.6427810">
        <ele>41.4</ele>
        <time>2021-05-22T10:02:37Z</time>
      </trkpt>
      <trkpt lat="42.5431590" lon="-8.6427860">
        <ele>41.4</ele>
        <time>2021-05-22T10:02:38Z</time>
      </trkpt>
      <trkpt lat="42.5431690" lon="-8.6427910">
        <ele>41.5</ele>
        <time>2021-05-22T10:02:39Z</time>
      </trkpt>
      <trkpt lat="42.5431780" lon="-8.6427960">
        <ele>41.6</ele>
        <time>2021-05-22T10:02:40Z</time>
      </trkpt>
      <trkpt lat="42.5431910" lon="-8.6428050">
        <ele>41.7</ele>
        <time>2021-05-22T10:02:41Z</time>
      </trkpt>
      <trkpt lat="42.5431990" lon="-8.6428110">
        <ele>41.7</ele>
        <time>2021-05-22T10:02:42Z</time>
      </trkpt>
      <trkpt lat="42.5432030" lon="-8.6428160">
        <ele>41.8</ele>
        <time>2021-05-22T10:02:43Z</time>
      </trkpt>
      <trkpt lat="42.5432150" lon="-8.6428180">
        <ele>41.9</ele>
        <time>2021-05-22T10:02:44Z</time>
      </trkpt>
      <trkpt lat="42.5432250" lon="-8.6428230">
        <ele>41.9</ele>
        <time>2021-05-22T10:02:45Z</time>
      </trkpt>
      <trkpt lat="42.5432390" lon="-8.6428350">
        <ele>42.0</ele>
        <time>2021-05-22T10:02:46Z</time>
      </trkpt>
      <trkpt lat="42.5432510" lon="-8.6428400">
        <ele>42.1</ele>
        <time>2021-05-22T10:02:47Z</time>
      </trkpt>
      <trkpt lat="42.5432570" lon="-8.6428440">
        <ele>42.2</ele>
        <time>2021-05-22T10:02:48Z</time>
      </trkpt>
      <trkpt lat="42.5432670" lon="-8.6428510">
        <ele>42.3</ele>
        <time>2021-05-22T10:02:49Z</time>
      </trkpt>
      <trkpt lat="42.5432780" lon="-8.6428570">
        <ele>42.3</ele>
        <time>2021-05-22T10:02:50Z</time>
      </trkpt>
      <trkpt lat="42.5432970" lon="-8.6428640">
        <ele>42.5</ele>
        <time>2021-05-22T10:02:51Z</time>
      </trkpt>
      <trkpt lat="42.5433050" lon="-8.6428690">
        <ele>42.5</ele>
        <time>2021-05-22T10:02:52Z</time>
      </trkpt>
      <trkpt lat="42.5433140" lon="-8.6428730">
        <ele>42.6</ele>
        <time>2021-05-22T10:02:53Z</time>
      </trkpt>
      <trkpt lat="42.5433240" lon="-8.6428740">
        <ele>42.7</ele>
        <time>2021-05-22T10:02:54Z</time>
      </trkpt>
      <trkpt lat="42.5433320" lon="-8.6428700">
        <ele>42.7</ele>
        <time>2021-05-22T10:02:55Z</time>
      </trkpt>
      <trkpt lat="42.5433390" lon="-8.6428710">
        <ele>42.8</ele>
        <time>2021-05-22T10:02:56Z</time>
      </trkpt>
      <trkpt lat="42.5433460" lon="-8.6428720">
        <ele>42.8</ele>
        <time>2021-05-22T10:02:57Z</time>
      </trkpt>
      <trkpt lat="42.5433510" lon="-8.6428750">
        <ele>42.9</ele>
        <time>2021-05-22T10:02:58Z</time>
      </trkpt>
      <trkpt lat="42.5433590" lon="-8.6428800">
        <ele>42.9</ele>
        <time>2021-05-22T10:02:59Z</time>
      </trkpt>
      <trkpt lat="42.5433700" lon="-8.6428820">
        <ele>43.0</ele>
        <time>2021-05-22T10:03:00Z</time>
      </trkpt>
      <trkpt lat="42.5433770" lon="-8.6428850">
        <ele>43.1</ele>
        <time>2021-05-22T10:03:01Z</time>
      </trkpt>
      <trkpt lat="42.5433920" lon="-8.6428860">
        <ele>43.2</ele>
        <time>2021-05-22T10:03:02Z</time>
      </trkpt>
      <trkpt lat="42.5434000" lon="-8.6428880">
        <ele>43.2</ele>
        <time>2021-05-22T10:03:03Z</time>
      </trkpt>
      <trkpt lat="42.5434080" lon="-8.6428910">
        <ele>43.3</ele>
        <time>2021-05-22T10:03:04Z</time>
      </trkpt>
      <trkpt lat="42.5434160" lon="-8.6428940">
        <ele>43.3</ele>
        <time>2021-05-22T10:03:05Z</time>
      </trkpt>
      <trkpt lat="42.5434300" lon="-8.6428930">
        <ele>43.4</ele>
        <time>2021-05-22T10:03:06Z</time>
      </trkpt>
      <trkpt lat="42.5434380" lon="-8.6428920">
        <ele>43.4</ele>
        <time>2021-05-22T10:03:07Z</time>
      </trkpt>
      <trkpt lat="42.5434470" lon="-8.6428980">
        <ele>43.5</ele>
        <time>2021-05-22T10:03:08Z</time>
      </trkpt>
      <trkpt lat="42.5434560" lon="-8.6429010">
        <ele>43.5</ele>
        <time>2021-05-22T10:03:09Z</time>
      </trkpt>
      <trkpt lat="42.5434670" lon="-8.6429010">
        <ele>43.6</ele>
        <time>2021-05-22T10:03:10Z</time>
      </trkpt>
      <trkpt lat="42.5434720" lon="-8.6429150">
        <ele>43.6</ele>
        <time>2021-05-22T10:03:11Z</time>
      </trkpt>
      <trkpt lat="42.5434860" lon="-8.6429280">
        <ele>43.7</ele>
        <time>2021-05-22T10:03:12Z</time>
      </trkpt>
      <trkpt lat="42.5434940" lon="-8.6429350">
        <ele>43.7</ele>
        <time>2021-05-22T10:03:13Z</time>
      </trkpt>
      <trkpt lat="42.5435030" lon="-8.6429410">
        <ele>43.8</ele>
        <time>2021-05-22T10:03:14Z</time>
      </trkpt>
      <trkpt lat="42.5435070" lon="-8.6429480">
        <ele>43.8</ele>
        <time>2021-05-22T10:03:15Z</time>
      </trkpt>
      <trkpt lat="42.5435170" lon="-8.6429580">
        <ele>43.8</ele>
        <time>2021-05-22T10:03:16Z</time>
      </trkpt>
      <trkpt lat="42.5435310" lon="-8.6429680">
        <ele>43.9</ele>
        <time>2021-05-22T10:03:17Z</time>
      </trkpt>
      <trkpt lat="42.5435500" lon="-8.6429780">
        <ele>43.9</ele>
        <time>2021-05-22T10:03:18Z</time>
      </trkpt>
      <trkpt lat="42.5435590" lon="-8.6429820">
        <ele>43.9</ele>
        <time>2021-05-22T10:03:19Z</time>
      </trkpt>
      <trkpt lat="42.5435670" lon="-8.6429850">
        <ele>43.9</ele>
        <time>2021-05-22T10:03:20Z</time>
      </trkpt>
      <trkpt lat="42.5435730" lon="-8.6429850">
        <ele>43.9</ele>
        <time>2021-05-22T10:03:21Z</time>
      </trkpt>
      <trkpt lat="42.5435820" lon="-8.6429930">
        <ele>43.9</ele>
        <time>2021-05-22T10:03:22Z</time>
      </trkpt>
      <trkpt lat="42.5435960" lon="-8.6429920">
        <ele>43.9</ele>
        <time>2021-05-22T10:03:23Z</time>
      </trkpt>
      <trkpt lat="42.5436050" lon="-8.6429980">
        <ele>43.9</ele>
        <time>2021-05-22T10:03:24Z</time>
      </trkpt>
      <trkpt lat="42.5436200" lon="-8.6430080">
        <ele>43.9</ele>
        <time>2021-05-22T10:03:25Z</time>
      </trkpt>
      <trkpt lat="42.5436260" lon="-8.6430090">
        <ele>43.9</ele>
        <time>2021-05-22T10:03:26Z</time>
      </trkpt>
      <trkpt lat="42.5436230" lon="-8.6430090">
        <ele>43.9</ele>
        <time>2021-05-22T10:03:27Z</time>
      </trkpt>
      <trkpt lat="42.5436290" lon="-8.6430040">
        <ele>43.8</ele>
        <time>2021-05-22T10:03:28Z</time>
      </trkpt>
      <trkpt lat="42.5436460" lon="-8.6430230">
        <ele>43.8</ele>
        <time>2021-05-22T10:03:29Z</time>
      </trkpt>
      <trkpt lat="42.5436520" lon="-8.6430190">
        <ele>43.8</ele>
        <time>2021-05-22T10:03:30Z</time>
      </trkpt>
      <trkpt lat="42.5436600" lon="-8.6430240">
        <ele>43.7</ele>
        <time>2021-05-22T10:03:31Z</time>
      </trkpt>
      <trkpt lat="42.5436660" lon="-8.6430350">
        <ele>43.7</ele>
        <time>2021-05-22T10:03:32Z</time>
      </trkpt>
      <trkpt lat="42.5436790" lon="-8.6430400">
        <ele>43.6</ele>
        <time>2021-05-22T10:03:33Z</time>
      </trkpt>
      <trkpt lat="42.5436990" lon="-8.6430440">
        <ele>43.5</ele>
        <time>2021-05-22T10:03:34Z</time>
      </trkpt>
      <trkpt lat="42.5437080" lon="-8.6430420">
        <ele>43.4</ele>
        <time>2021-05-22T10:03:35Z</time>
      </trkpt>
      <trkpt lat="42.5437180" lon="-8.6430390">
        <ele>43.3</ele>
        <time>2021-05-22T10:03:36Z</time>
      </trkpt>
      <trkpt lat="42.5437240" lon="-8.6430400">
        <ele>43.3</ele>
        <time>2021-05-22T10:03:37Z</time>
      </trkpt>
      <trkpt lat="42.5437280" lon="-8.6430420">
        <ele>43.3</ele>
        <time>2021-05-22T10:03:38Z</time>
      </trkpt>
      <trkpt lat="42.5437320" lon="-8.6430410">
        <ele>43.2</ele>
        <time>2021-05-22T10:03:39Z</time>
      </trkpt>
      <trkpt lat="42.5437440" lon="-8.6430430">
        <ele>43.2</ele>
        <time>2021-05-22T10:03:40Z</time>
      </trkpt>
      <trkpt lat="42.5437540" lon="-8.6430400">
        <ele>43.1</ele>
        <time>2021-05-22T10:03:41Z</time>
      </trkpt>
      <trkpt lat="42.5437710" lon="-8.6430370">
        <ele>42.9</ele>
        <time>2021-05-22T10:03:42Z</time>
      </trkpt>
      <trkpt lat="42.5437800" lon="-8.6430350">
        <ele>42.8</ele>
        <time>2021-05-22T10:03:43Z</time>
      </trkpt>
      <trkpt lat="42.5437880" lon="-8.6430340">
        <ele>42.8</ele>
        <time>2021-05-22T10:03:44Z</time>
      </trkpt>
      <trkpt lat="42.5437960" lon="-8.6430320">
        <ele>42.7</ele>
        <time>2021-05-22T10:03:45Z</time>
      </trkpt>
      <trkpt lat="42.5438140" lon="-8.6430230">
        <ele>42.5</ele>
        <time>2021-05-22T10:03:46Z</time>
      </trkpt>
      <trkpt lat="42.5438270" lon="-8.6430170">
        <ele>42.4</ele>
        <time>2021-05-22T10:03:47Z</time>
      </trkpt>
      <trkpt lat="42.5438340" lon="-8.6430210">
        <ele>42.3</ele>
        <time>2021-05-22T10:03:48Z</time>
      </trkpt>
      <trkpt lat="42.5438530" lon="-8.6430110">
        <ele>42.2</ele>
        <time>2021-05-22T10:03:49Z</time>
      </trkpt>
      <trkpt lat="42.5438570" lon="-8.6430090">
        <ele>42.1</ele>
        <time>2021-05-22T10:03:50Z</time>
      </trkpt>
      <trkpt lat="42.5438620" lon="-8.6430160">
        <ele>42.1</ele>
        <time>2021-05-22T10:03:51Z</time>
      </trkpt>
      <trkpt lat="42.5438750" lon="-8.6430120">
        <ele>42.0</ele>
        <time>2021-05-22T10:03:52Z</time>
      </trkpt>
      <trkpt lat="42.5438900" lon="-8.6430040">
        <ele>41.8</ele>
        <time>2021-05-22T10:03:53Z</time>
      </trkpt>
      <trkpt lat="42.5439130" lon="-8.6429900">
        <ele>41.6</ele>
        <time>2021-05-22T10:03:54Z</time>
      </trkpt>
      <trkpt lat="42.5439240" lon="-8.6429870">
        <ele>41.5</ele>
        <time>2021-05-22T10:03:55Z</time>
      </trkpt>
      <trkpt lat="42.5439510" lon="-8.6429790">
        <ele>41.4</ele>
        <time>2021-05-22T10:03:56Z</time>
      </trkpt>
      <trkpt lat="42.5439820" lon="-8.6429740">
        <ele>41.2</ele>
        <time>2021-05-22T10:03:57Z</time>
      </trkpt>
      <trkpt lat="42.5440120" lon="-8.6429590">
        <ele>41.0</ele>
        <time>2021-05-22T10:03:58Z</time>
      </trkpt>
      <trkpt lat="42.5440200" lon="-8.6429520">
        <ele>41.0</ele>
        <time>2021-05-22T10:03:59Z</time>
      </trkpt>
      <trkpt lat="42.5440460" lon="-8.6429370">
        <ele>40.8</ele>
        <time>2021-05-22T10:04:00Z</time>
      </trkpt>
      <trkpt lat="42.5440540" lon="-8.6429310">
        <ele>40.8</ele>
        <time>2021-05-22T10:04:01Z</time>
      </trkpt>
      <trkpt lat="42.5440730" lon="-8.6428990">
        <ele>40.7</ele>
        <time>2021-05-22T10:04:02Z</time>
      </trkpt>
      <trkpt lat="42.5440800" lon="-8.6428900">
        <ele>40.7</ele>
        <time>2021-05-22T10:04:03Z</time>
      </trkpt>
      <trkpt lat="42.5440940" lon="-8.6428730">
        <ele>40.6</ele>
        <time>2021-05-22T10:04:04Z</time>
      </trkpt>
      <trkpt lat="42.5441090" lon="-8.6428620">
        <ele>40.6</ele>
        <time>2021-05-22T10:04:05Z</time>
      </trkpt>
      <trkpt lat="42.5441200" lon="-8.6428430">
        <ele>40.5</ele>
        <time>2021-05-22T10:04:06Z</time>
      </trkpt>
      <trkpt lat="42.5441270" lon="-8.6428250">
        <ele>40.5</ele>
        <time>2021-05-22T10:04:07Z</time>
      </trkpt>
      <trkpt lat="42.5441330" lon="-8.6428100">
        <ele>40.5</ele>
        <time>2021-05-22T10:04:08Z</time>
      </trkpt>
      <trkpt lat="42.5441400" lon="-8.6427900">
        <ele>40.5</ele>
        <time>2021-05-22T10:04:09Z</time>
      </trkpt>
      <trkpt lat="42.5441440" lon="-8.6427710">
        <ele>40.4</ele>
        <time>2021-05-22T10:04:10Z</time>
      </trkpt>
      <trkpt lat="42.5441520" lon="-8.6427520">
        <ele>40.4</ele>
        <time>2021-05-22T10:04:11Z</time>
      </trkpt>
      <trkpt lat="42.5441630" lon="-8.6427400">
        <ele>40.4</ele>
        <time>2021-05-22T10:04:12Z</time>
      </trkpt>
      <trkpt lat="42.5441720" lon="-8.6427270">
        <ele>40.4</ele>
        <time>2021-05-22T10:04:13Z</time>
      </trkpt>
      <trkpt lat="42.5441860" lon="-8.6427040">
        <ele>40.4</ele>
        <time>2021-05-22T10:04:14Z</time>
      </trkpt>
      <trkpt lat="42.5441910" lon="-8.6426970">
        <ele>40.4</ele>
        <time>2021-05-22T10:04:15Z</time>
      </trkpt>
      <trkpt lat="42.5441950" lon="-8.6426890">
        <ele>40.4</ele>
        <time>2021-05-22T10:04:16Z</time>
      </trkpt>
      <trkpt lat="42.5442040" lon="-8.6426800">
        <ele>40.4</ele>
        <time>2021-05-22T10:04:17Z</time>
      </trkpt>
      <trkpt lat="42.5442100" lon="-8.6426700">
        <ele>40.4</ele>
        <time>2021-05-22T10:04:18Z</time>
      </trkpt>
      <trkpt lat="42.5442160" lon="-8.6426580">
        <ele>40.4</ele>
        <time>2021-05-22T10:04:19Z</time>
      </trkpt>
      <trkpt lat="42.5442340" lon="-8.6426440">
        <ele>40.4</ele>
        <time>2021-05-22T10:04:20Z</time>
      </trkpt>
      <trkpt lat="42.5442420" lon="-8.6426390">
        <ele>40.4</ele>
        <time>2021-05-22T10:04:21Z</time>
      </trkpt>
      <trkpt lat="42.5442490" lon="-8.6426340">
        <ele>40.4</ele>
        <time>2021-05-22T10:04:22Z</time>
      </trkpt>
      <trkpt lat="42.5442560" lon="-8.6426120">
        <ele>40.4</ele>
        <time>2021-05-22T10:04:23Z</time>
      </trkpt>
      <trkpt lat="42.5442690" lon="-8.6425950">
        <ele>40.4</ele>
        <time>2021-05-22T10:04:24Z</time>
      </trkpt>
      <trkpt lat="42.5442820" lon="-8.6425890">
        <ele>40.5</ele>
        <time>2021-05-22T10:04:25Z</time>
      </trkpt>
      <trkpt lat="42.5442900" lon="-8.6425780">
        <ele>40.5</ele>
        <time>2021-05-22T10:04:26Z</time>
      </trkpt>
      <trkpt lat="42.5443000" lon="-8.6425750">
        <ele>40.5</ele>
        <time>2021-05-22T10:04:27Z</time>
      </trkpt>
      <trkpt lat="42.5443130" lon="-8.6425680">
        <ele>40.5</ele>
        <time>2021-05-22T10:04:28Z</time>
      </trkpt>
      <trkpt lat="42.5443230" lon="-8.6425590">
        <ele>40.5</ele>
        <time>2021-05-22T10:04:29Z</time>
      </trkpt>
      <trkpt lat="42.5443240" lon="-8.6425400">
        <ele>40.5</ele>
        <time>2021-05-22T10:04:30Z</time>
      </trkpt>
      <trkpt lat="42.5443420" lon="-8.6425240">
        <ele>40.5</ele>
        <time>2021-05-22T10:04:31Z</time>
      </trkpt>
      <trkpt lat="42.5443490" lon="-8.6425170">
        <ele>40.6</ele>
        <time>2021-05-22T10:04:32Z</time>
      </trkpt>
      <trkpt lat="42.5443570" lon="-8.6425110">
        <ele>40.6</ele>
        <time>2021-05-22T10:04:33Z</time>
      </trkpt>
      <trkpt lat="42.5443620" lon="-8.6424980">
        <ele>40.6</ele>
        <time>2021-05-22T10:04:34Z</time>
      </trkpt>
      <trkpt lat="42.5443710" lon="-8.6424910">
        <ele>40.6</ele>
        <time>2021-05-22T10:04:35Z</time>
      </trkpt>
      <trkpt lat="42.5443860" lon="-8.6424890">
        <ele>40.6</ele>
        <time>2021-05-22T10:04:36Z</time>
      </trkpt>
      <trkpt lat="42.5444020" lon="-8.6424740">
        <ele>40.6</ele>
        <time>2021-05-22T10:04:37Z</time>
      </trkpt>
      <trkpt lat="42.5444110" lon="-8.6424690">
        <ele>40.6</ele>
        <time>2021-05-22T10:04:38Z</time>
      </trkpt>
      <trkpt lat="42.5444190" lon="-8.6424630">
        <ele>40.6</ele>
        <time>2021-05-22T10:04:39Z</time>
      </trkpt>
      <trkpt lat="42.5444370" lon="-8.6424510">
        <ele>40.7</ele>
        <time>2021-05-22T10:04:40Z</time>
      </trkpt>
      <trkpt lat="42.5444460" lon="-8.6424460">
        <ele>40.7</ele>
        <time>2021-05-22T10:04:41Z</time>
      </trkpt>
      <trkpt lat="42.5444540" lon="-8.6424410">
        <ele>40.7</ele>
        <time>2021-05-22T10:04:42Z</time>
      </trkpt>
      <trkpt lat="42.5444600" lon="-8.6424370">
        <ele>40.7</ele>
        <time>2021-05-22T10:04:43Z</time>
      </trkpt>
      <trkpt lat="42.5444740" lon="-8.6424330">
        <ele>40.7</ele>
        <time>2021-05-22T10:04:44Z</time>
      </trkpt>
      <trkpt lat="42.5444820" lon="-8.6424280">
        <ele>40.7</ele>
        <time>2021-05-22T10:04:45Z</time>
      </trkpt>
      <trkpt lat="42.5444930" lon="-8.6424240">
        <ele>40.7</ele>
        <time>2021-05-22T10:04:46Z</time>
      </trkpt>
      <trkpt lat="42.5445010" lon="-8.6424170">
        <ele>40.8</ele>
        <time>2021-05-22T10:04:47Z</time>
      </trkpt>
      <trkpt lat="42.5444990" lon="-8.6424150">
        <ele>40.8</ele>
        <time>2021-05-22T10:04:48Z</time>
      </trkpt>
      <trkpt lat="42.5445110" lon="-8.6424090">
        <ele>40.8</ele>
        <time>2021-05-22T10:04:49Z</time>
      </trkpt>
      <trkpt lat="42.5445210" lon="-8.6423990">
        <ele>40.8</ele>
        <time>2021-05-22T10:04:50Z</time>
      </trkpt>
      <trkpt lat="42.5445350" lon="-8.6423940">
        <ele>40.8</ele>
        <time>2021-05-22T10:04:51Z</time>
      </trkpt>
      <trkpt lat="42.5445470" lon="-8.6423880">
        <ele>40.8</ele>
        <time>2021-05-22T10:04:52Z</time>
      </trkpt>
      <trkpt lat="42.5445620" lon="-8.6423850">
        <ele>40.9</ele>
        <time>2021-05-22T10:04:53Z</time>
      </trkpt>
      <trkpt lat="42.5445690" lon="-8.6423810">
        <ele>40.9</ele>
        <time>2021-05-22T10:04:54Z</time>
      </trkpt>
      <trkpt lat="42.5445830" lon="-8.6423760">
        <ele>40.9</ele>
        <time>2021-05-22T10:04:55Z</time>
      </trkpt>
      <trkpt lat="42.5445950" lon="-8.6423680">
        <ele>40.9</ele>
        <time>2021-05-22T10:04:56Z</time>
      </trkpt>
      <trkpt lat="42.5446090" lon="-8.6423610">
        <ele>41.0</ele>
        <time>2021-05-22T10:04:57Z</time>
      </trkpt>
      <trkpt lat="42.5446200" lon="-8.6423520">
        <ele>41.0</ele>
        <time>2021-05-22T10:04:58Z</time>
      </trkpt>
      <trkpt lat="42.5446340" lon="-8.6423440">
        <ele>41.0</ele>
        <time>2021-05-22T10:04:59Z</time>
      </trkpt>
      <trkpt lat="42.5446450" lon="-8.6423370">
        <ele>41.0</ele>
        <time>2021-05-22T10:05:00Z</time>
      </trkpt>
      <trkpt lat="42.5446630" lon="-8.6423320">
        <ele>41.1</ele>
        <time>2021-05-22T10:05:01Z</time>
      </trkpt>
      <trkpt lat="42.5446710" lon="-8.6423320">
        <ele>41.1</ele>
        <time>2021-05-22T10:05:02Z</time>
      </trkpt>
      <trkpt lat="42.5446720" lon="-8.6423270">
        <ele>41.1</ele>
        <time>2021-05-22T10:05:03Z</time>
      </trkpt>
      <trkpt lat="42.5446780" lon="-8.6423250">
        <ele>41.1</ele>
        <time>2021-05-22T10:05:04Z</time>
      </trkpt>
      <trkpt lat="42.5446890" lon="-8.6423080">
        <ele>41.1</ele>
        <time>2021-05-22T10:05:05Z</time>
      </trkpt>
      <trkpt lat="42.5447040" lon="-8.6423080">
        <ele>41.2</ele>
        <time>2021-05-22T10:05:06Z</time>
      </trkpt>
      <trkpt lat="42.5447200" lon="-8.6423010">
        <ele>41.2</ele>
        <time>2021-05-22T10:05:07Z</time>
      </trkpt>
      <trkpt lat="42.5447340" lon="-8.6423030">
        <ele>41.2</ele>
        <time>2021-05-22T10:05:08Z</time>
      </trkpt>
      <trkpt lat="42.5447550" lon="-8.6423020">
        <ele>41.3</ele>
        <time>2021-05-22T10:05:09Z</time>
      </trkpt>
      <trkpt lat="42.5447630" lon="-8.6423030">
        <ele>41.3</ele>
        <time>2021-05-22T10:05:10Z</time>
      </trkpt>
      <trkpt lat="42.5447720" lon="-8.6423040">
        <ele>41.3</ele>
        <time>2021-05-22T10:05:11Z</time>
      </trkpt>
      <trkpt lat="42.5447930" lon="-8.6423000">
        <ele>41.3</ele>
        <time>2021-05-22T10:05:12Z</time>
      </trkpt>
      <trkpt lat="42.5448020" lon="-8.6423000">
        <ele>41.3</ele>
        <time>2021-05-22T10:05:13Z</time>
      </trkpt>
      <trkpt lat="42.5448100" lon="-8.6423000">
        <ele>41.4</ele>
        <time>2021-05-22T10:05:14Z</time>
      </trkpt>
      <trkpt lat="42.5448220" lon="-8.6422980">
        <ele>41.4</ele>
        <time>2021-05-22T10:05:15Z</time>
      </trkpt>
      <trkpt lat="42.5448350" lon="-8.6422920">
        <ele>41.4</ele>
        <time>2021-05-22T10:05:16Z</time>
      </trkpt>
      <trkpt lat="42.5448440" lon="-8.6422950">
        <ele>41.4</ele>
        <time>2021-05-22T10:05:17Z</time>
      </trkpt>
      <trkpt lat="42.5448560" lon="-8.6422970">
        <ele>41.4</ele>
        <time>2021-05-22T10:05:18Z</time>
      </trkpt>
      <trkpt lat="42.5448730" lon="-8.6422910">
        <ele>41.4</ele>
        <time>2021-05-22T10:05:19Z</time>
      </trkpt>
      <trkpt lat="42.5448840" lon="-8.6422910">
        <ele>41.4</ele>
        <time>2021-05-22T10:05:20Z</time>
      </trkpt>
      <trkpt lat="42.5448900" lon="-8.6422850">
        <ele>41.4</ele>
        <time>2021-05-22T10:05:21Z</time>
      </trkpt>
      <trkpt lat="42.5449070" lon="-8.6422870">
        <ele>41.3</ele>
        <time>2021-05-22T10:05:22Z</time>
      </trkpt>
      <trkpt lat="42.5449190" lon="-8.6422850">
        <ele>41.3</ele>
        <time>2021-05-22T10:05:23Z</time>
      </trkpt>
      <trkpt lat="42.5449290" lon="-8.6422820">
        <ele>41.3</ele>
        <time>2021-05-22T10:05:24Z</time>
      </trkpt>
      <trkpt lat="42.5449420" lon="-8.6422760">
        <ele>41.3</ele>
        <time>2021-05-22T10:05:25Z</time>
      </trkpt>
      <trkpt lat="42.5449490" lon="-8.6422840">
        <ele>41.3</ele>
        <time>2021-05-22T10:05:26Z</time>
      </trkpt>
      <trkpt lat="42.5449590" lon="-8.6422770">
        <ele>41.3</ele>
        <time>2021-05-22T10:05:27Z</time>
      </trkpt>
      <trkpt lat="42.5449720" lon="-8.6422740">
        <ele>41.3</ele>
        <time>2021-05-22T10:05:28Z</time>
      </trkpt>
      <trkpt lat="42.5449940" lon="-8.6422730">
        <ele>41.2</ele>
        <time>2021-05-22T10:05:29Z</time>
      </trkpt>
      <trkpt lat="42.5450040" lon="-8.6422710">
        <ele>41.2</ele>
        <time>2021-05-22T10:05:30Z</time>
      </trkpt>
      <trkpt lat="42.5450130" lon="-8.6422690">
        <ele>41.2</ele>
        <time>2021-05-22T10:05:31Z</time>
      </trkpt>
      <trkpt lat="42.5450280" lon="-8.6422730">
        <ele>41.1</ele>
        <time>2021-05-22T10:05:32Z</time>
      </trkpt>
      <trkpt lat="42.5450390" lon="-8.6422730">
        <ele>41.1</ele>
        <time>2021-05-22T10:05:33Z</time>
      </trkpt>
      <trkpt lat="42.5450480" lon="-8.6422770">
        <ele>41.1</ele>
        <time>2021-05-22T10:05:34Z</time>
      </trkpt>
      <trkpt lat="42.5450550" lon="-8.6422710">
        <ele>41.0</ele>
        <time>2021-05-22T10:05:35Z</time>
      </trkpt>
      <trkpt lat="42.5450630" lon="-8.6422730">
        <ele>41.0</ele>
        <time>2021-05-22T10:05:36Z</time>
      </trkpt>
      <trkpt lat="42.5450720" lon="-8.6422750">
        <ele>41.0</ele>
        <time>2021-05-22T10:05:37Z</time>
      </trkpt>
      <trkpt lat="42.5450830" lon="-8.6422730">
        <ele>40.9</ele>
        <time>2021-05-22T10:05:38Z</time>
      </trkpt>
      <trkpt lat="42.5450960" lon="-8.6422770">
        <ele>40.9</ele>
        <time>2021-05-22T10:05:39Z</time>
      </trkpt>
      <trkpt lat="42.5451020" lon="-8.6422790">
        <ele>40.9</ele>
        <time>2021-05-22T10:05:40Z</time>
      </trkpt>
      <trkpt lat="42.5451080" lon="-8.6422800">
        <ele>40.8</ele>
        <time>2021-05-22T10:05:41Z</time>
      </trkpt>
      <trkpt lat="42.5451160" lon="-8.6422830">
        <ele>40.8</ele>
        <time>2021-05-22T10:05:42Z</time>
      </trkpt>
      <trkpt lat="42.5451370" lon="-8.6422810">
        <ele>40.7</ele>
        <time>2021-05-22T10:05:43Z</time>
      </trkpt>
      <trkpt lat="42.5451460" lon="-8.6422790">
        <ele>40.6</ele>
        <time>2021-05-22T10:05:44Z</time>
      </trkpt>
      <trkpt lat="42.5451550" lon="-8.6422760">
        <ele>40.6</ele>
        <time>2021-05-22T10:05:45Z</time>
      </trkpt>
      <trkpt lat="42.5451710" lon="-8.6422770">
        <ele>40.5</ele>
        <time>2021-05-22T10:05:46Z</time>
      </trkpt>
      <trkpt lat="42.5451780" lon="-8.6422780">
        <ele>40.5</ele>
        <time>2021-05-22T10:05:47Z</time>
      </trkpt>
      <trkpt lat="42.5451850" lon="-8.6422800">
        <ele>40.4</ele>
        <time>2021-05-22T10:05:48Z</time>
      </trkpt>
      <trkpt lat="42.5451920" lon="-8.6422810">
        <ele>40.4</ele>
        <time>2021-05-22T10:05:49Z</time>
      </trkpt>
      <trkpt lat="42.5452220" lon="-8.6422890">
        <ele>40.2</ele>
        <time>2021-05-22T10:05:50Z</time>
      </trkpt>
      <trkpt lat="42.5452320" lon="-8.6422920">
        <ele>40.2</ele>
        <time>2021-05-22T10:05:51Z</time>
      </trkpt>
      <trkpt lat="42.5452410" lon="-8.6422820">
        <ele>40.1</ele>
        <time>2021-05-22T10:05:52Z</time>
      </trkpt>
      <trkpt lat="42.5452410" lon="-8.6422870">
        <ele>40.1</ele>
        <time>2021-05-22T10:05:53Z</time>
      </trkpt>
      <trkpt lat="42.5452630" lon="-8.6422810">
        <ele>40.0</ele>
        <time>2021-05-22T10:05:54Z</time>
      </trkpt>
      <trkpt lat="42.5452800" lon="-8.6422780">
        <ele>39.9</ele>
        <time>2021-05-22T10:05:55Z</time>
      </trkpt>
      <trkpt lat="42.5452990" lon="-8.6422800">
        <ele>39.8</ele>
        <time>2021-05-22T10:05:56Z</time>
      </trkpt>
      <trkpt lat="42.5453200" lon="-8.6422860">
        <ele>39.7</ele>
        <time>2021-05-22T10:05:57Z</time>
      </trkpt>
      <trkpt lat="42.5453310" lon="-8.6422910">
        <ele>39.7</ele>
        <time>2021-05-22T10:05:58Z</time>
      </trkpt>
      <trkpt lat="42.5453430" lon="-8.6422960">
        <ele>39.6</ele>
        <time>2021-05-22T10:05:59Z</time>
      </trkpt>
      <trkpt lat="42.5453650" lon="-8.6423110">
        <ele>39.5</ele>
        <time>2021-05-22T10:06:00Z</time>
      </trkpt>
      <trkpt lat="42.5453720" lon="-8.6423180">
        <ele>39.4</ele>
        <time>2021-05-22T10:06:01Z</time>
      </trkpt>
      <trkpt lat="42.5453780" lon="-8.6423260">
        <ele>39.4</ele>
        <time>2021-05-22T10:06:02Z</time>
      </trkpt>
      <trkpt lat="42.5453840" lon="-8.6423420">
        <ele>39.3</ele>
        <time>2021-05-22T10:06:03Z</time>
      </trkpt>
      <trkpt lat="42.5454010" lon="-8.6423560">
        <ele>39.3</ele>
        <time>2021-05-22T10:06:04Z</time>
      </trkpt>
      <trkpt lat="42.5454050" lon="-8.6423710">
        <ele>39.2</ele>
        <time>2021-05-22T10:06:05Z</time>
      </trkpt>
      <trkpt lat="42.5454220" lon="-8.6423830">
        <ele>39.1</ele>
        <time>2021-05-22T10:06:06Z</time>
      </trkpt>
      <trkpt lat="42.5454350" lon="-8.6423910">
        <ele>39.1</ele>
        <time>2021-05-22T10:06:07Z</time>
      </trkpt>
      <trkpt lat="42.5454460" lon="-8.6424020">
        <ele>39.0</ele>
        <time>2021-05-22T10:06:08Z</time>
      </trkpt>
      <trkpt lat="42.5454670" lon="-8.6424090">
        <ele>38.9</ele>
        <time>2021-05-22T10:06:09Z</time>
      </trkpt>
      <trkpt lat="42.5454760" lon="-8.6424100">
        <ele>38.9</ele>
        <time>2021-05-22T10:06:10Z</time>
      </trkpt>
      <trkpt lat="42.5454850" lon="-8.6424120">
        <ele>38.9</ele>
        <time>2021-05-22T10:06:11Z</time>
      </trkpt>
      <trkpt lat="42.5454930" lon="-8.6424210">
        <ele>38.8</ele>
        <time>2021-05-22T10:06:12Z</time>
      </trkpt>
      <trkpt lat="42.5454980" lon="-8.6424290">
        <ele>38.8</ele>
        <time>2021-05-22T10:06:13Z</time>
      </trkpt>
      <trkpt lat="42.5455090" lon="-8.6424350">
        <ele>38.7</ele>
        <time>2021-05-22T10:06:14Z</time>
      </trkpt>
      <trkpt lat="42.5455200" lon="-8.6424470">
        <ele>38.7</ele>
        <time>2021-05-22T10:06:15Z</time>
      </trkpt>
      <trkpt lat="42.5455340" lon="-8.6424520">
        <ele>38.6</ele>
        <time>2021-05-22T10:06:16Z</time>
      </trkpt>
      <trkpt lat="42.5455460" lon="-8.6424600">
        <ele>38.6</ele>
        <time>2021-05-22T10:06:17Z</time>
      </trkpt>
      <trkpt lat="42.5455620" lon="-8.6424690">
        <ele>38.5</ele>
        <time>2021-05-22T10:06:18Z</time>
      </trkpt>
      <trkpt lat="42.5455740" lon="-8.6424790">
        <ele>38.5</ele>
        <time>2021-05-22T10:06:19Z</time>
      </trkpt>
      <trkpt lat="42.5455790" lon="-8.6424790">
        <ele>38.5</ele>
        <time>2021-05-22T10:06:20Z</time>
      </trkpt>
      <trkpt lat="42.5455830" lon="-8.6424800">
        <ele>38.5</ele>
        <time>2021-05-22T10:06:21Z</time>
      </trkpt>
      <trkpt lat="42.5455880" lon="-8.6424800">
        <ele>38.4</ele>
        <time>2021-05-22T10:06:22Z</time>
      </trkpt>
      <trkpt lat="42.5455920" lon="-8.6424810">
        <ele>38.4</ele>
        <time>2021-05-22T10:06:23Z</time>
      </trkpt>
      <trkpt lat="42.5455970" lon="-8.6424810">
        <ele>38.4</ele>
        <time>2021-05-22T10:06:24Z</time>
      </trkpt>
      <trkpt lat="42.5456010" lon="-8.6424820">
        <ele>38.4</ele>
        <time>2021-05-22T10:06:25Z</time>
      </trkpt>
      <trkpt lat="42.5456220" lon="-8.6424850">
        <ele>38.3</ele>
        <time>2021-05-22T10:06:26Z</time>
      </trkpt>
      <trkpt lat="42.5456280" lon="-8.6424940">
        <ele>38.3</ele>
        <time>2021-05-22T10:06:27Z</time>
      </trkpt>
      <trkpt lat="42.5456350" lon="-8.6425140">
        <ele>38.3</ele>
        <time>2021-05-22T10:06:28Z</time>
      </trkpt>
      <trkpt lat="42.5456550" lon="-8.6425190">
        <ele>38.2</ele>
        <time>2021-05-22T10:06:29Z</time>
      </trkpt>
      <trkpt lat="42.5456630" lon="-8.6425220">
        <ele>38.2</ele>
        <time>2021-05-22T10:06:30Z</time>
      </trkpt>
      <trkpt lat="42.5456710" lon="-8.6425290">
        <ele>38.2</ele>
        <time>2021-05-22T10:06:31Z</time>
      </trkpt>
      <trkpt lat="42.5456840" lon="-8.6425350">
        <ele>38.1</ele>
        <time>2021-05-22T10:06:32Z</time>
      </trkpt>
      <trkpt lat="42.5456960" lon="-8.6425440">
        <ele>38.1</ele>
        <time>2021-05-22T10:06:33Z</time>
      </trkpt>
      <trkpt lat="42.5457030" lon="-8.6425430">
        <ele>38.1</ele>
        <time>2021-05-22T10:06:34Z</time>
      </trkpt>
      <trkpt lat="42.5457160" lon="-8.6425510">
        <ele>38.0</ele>
        <time>2021-05-22T10:06:35Z</time>
      </trkpt>
      <trkpt lat="42.5457270" lon="-8.6425560">
        <ele>38.0</ele>
        <time>2021-05-22T10:06:36Z</time>
      </trkpt>
      <trkpt lat="42.5457330" lon="-8.6425600">
        <ele>38.0</ele>
        <time>2021-05-22T10:06:37Z</time>
      </trkpt>
      <trkpt lat="42.5457480" lon="-8.6425720">
        <ele>37.9</ele>
        <time>2021-05-22T10:06:38Z</time>
      </trkpt>
      <trkpt lat="42.5457580" lon="-8.6425690">
        <ele>37.9</ele>
        <time>2021-05-22T10:06:39Z</time>
      </trkpt>
      <trkpt lat="42.5457690" lon="-8.6425770">
        <ele>37.9</ele>
        <time>2021-05-22T10:06:40Z</time>
      </trkpt>
      <trkpt lat="42.5457840" lon="-8.6425800">
        <ele>37.8</ele>
        <time>2021-05-22T10:06:41Z</time>
      </trkpt>
      <trkpt lat="42.5458050" lon="-8.6425940">
        <ele>37.7</ele>
        <time>2021-05-22T10:06:42Z</time>
      </trkpt>
      <trkpt lat="42.5458120" lon="-8.6426000">
        <ele>37.7</ele>
        <time>2021-05-22T10:06:43Z</time>
      </trkpt>
      <trkpt lat="42.5458190" lon="-8.6426050">
        <ele>37.7</ele>
        <time>2021-05-22T10:06:44Z</time>
      </trkpt>
      <trkpt lat="42.5458330" lon="-8.6426040">
        <ele>37.7</ele>
        <time>2021-05-22T10:06:45Z</time>
      </trkpt>
      <trkpt lat="42.5458390" lon="-8.6426080">
        <ele>37.6</ele>
        <time>2021-05-22T10:06:46Z</time>
      </trkpt>
      <trkpt lat="42.5458540" lon="-8.6426180">
        <ele>37.6</ele>
        <time>2021-05-22T10:06:47Z</time>
      </trkpt>
      <trkpt lat="42.5458620" lon="-8.6426300">
        <ele>37.6</ele>
        <time>2021-05-22T10:06:48Z</time>
      </trkpt>
      <trkpt lat="42.5458810" lon="-8.6426400">
        <ele>37.5</ele>
        <time>2021-05-22T10:06:49Z</time>
      </trkpt>
      <trkpt lat="42.5458950" lon="-8.6426550">
        <ele>37.5</ele>
        <time>2021-05-22T10:06:50Z</time>
      </trkpt>
      <trkpt lat="42.5459060" lon="-8.6426540">
        <ele>37.4</ele>
        <time>2021-05-22T10:06:51Z</time>
      </trkpt>
      <trkpt lat="42.5459130" lon="-8.6426610">
        <ele>37.4</ele>
        <time>2021-05-22T10:06:52Z</time>
      </trkpt>
      <trkpt lat="42.5459410" lon="-8.6426670">
        <ele>37.4</ele>
        <time>2021-05-22T10:06:53Z</time>
      </trkpt>
      <trkpt lat="42.5459510" lon="-8.6426680">
        <ele>37.3</ele>
        <time>2021-05-22T10:06:54Z</time>
      </trkpt>
      <trkpt lat="42.5459650" lon="-8.6426730">
        <ele>37.3</ele>
        <time>2021-05-22T10:06:55Z</time>
      </trkpt>
      <trkpt lat="42.5459790" lon="-8.6426770">
        <ele>37.3</ele>
        <time>2021-05-22T10:06:56Z</time>
      </trkpt>
      <trkpt lat="42.5459950" lon="-8.6426750">
        <ele>37.2</ele>
        <time>2021-05-22T10:06:57Z</time>
      </trkpt>
      <trkpt lat="42.5460090" lon="-8.6426780">
        <ele>37.2</ele>
        <time>2021-05-22T10:06:58Z</time>
      </trkpt>
      <trkpt lat="42.5460220" lon="-8.6426850">
        <ele>37.1</ele>
        <time>2021-05-22T10:06:59Z</time>
      </trkpt>
      <trkpt lat="42.5460350" lon="-8.6426880">
        <ele>37.1</ele>
        <time>2021-05-22T10:07:00Z</time>
      </trkpt>
      <trkpt lat="42.5460400" lon="-8.6426830">
        <ele>37.1</ele>
        <time>2021-05-22T10:07:01Z</time>
      </trkpt>
      <trkpt lat="42.5460510" lon="-8.6426850">
        <ele>37.1</ele>
        <time>2021-05-22T10:07:02Z</time>
      </trkpt>
      <trkpt lat="42.5460540" lon="-8.6426810">
        <ele>37.1</ele>
        <time>2021-05-22T10:07:03Z</time>
      </trkpt>
      <trkpt lat="42.5460580" lon="-8.6426720">
        <ele>37.0</ele>
        <time>2021-05-22T10:07:04Z</time>
      </trkpt>
      <trkpt lat="42.5460560" lon="-8.6426740">
        <ele>37.0</ele>
        <time>2021-05-22T10:07:05Z</time>
      </trkpt>
      <trkpt lat="42.5460550" lon="-8.6426730">
        <ele>37.0</ele>
        <time>2021-05-22T10:07:06Z</time>
      </trkpt>
      <trkpt lat="42.5460530" lon="-8.6426750">
        <ele>37.0</ele>
        <time>2021-05-22T10:07:07Z</time>
      </trkpt>
      <trkpt lat="42.5460540" lon="-8.6426770">
        <ele>37.0</ele>
        <time>2021-05-22T10:07:08Z</time>
      </trkpt>
      <trkpt lat="42.5460550" lon="-8.6426780">
        <ele>37.0</ele>
        <time>2021-05-22T10:07:09Z</time>
      </trkpt>
      <trkpt lat="42.5460550" lon="-8.6426780">
        <ele>37.0</ele>
        <time>2021-05-22T10:07:10Z</time>
      </trkpt>
      <trkpt lat="42.5460570" lon="-8.6426840">
        <ele>37.0</ele>
        <time>2021-05-22T10:07:11Z</time>
      </trkpt>
      <trkpt lat="42.5460600" lon="-8.6426840">
        <ele>37.0</ele>
        <time>2021-05-22T10:07:12Z</time>
      </trkpt>
      <trkpt lat="42.5460610" lon="-8.6426820">
        <ele>37.0</ele>
        <time>2021-05-22T10:07:13Z</time>
      </trkpt>
      <trkpt lat="42.5460620" lon="-8.6426830">
        <ele>37.0</ele>
        <time>2021-05-22T10:07:14Z</time>
      </trkpt>
      <trkpt lat="42.5460630" lon="-8.6426820">
        <ele>37.0</ele>
        <time>2021-05-22T10:07:15Z</time>
      </trkpt>
      <trkpt lat="42.5460630" lon="-8.6426830">
        <ele>37.0</ele>
        <time>2021-05-22T10:07:16Z</time>
      </trkpt>
      <trkpt lat="42.5460630" lon="-8.6426840">
        <ele>37.0</ele>
        <time>2021-05-22T10:07:17Z</time>
      </trkpt>
      <trkpt lat="42.5460680" lon="-8.6426860">
        <ele>37.0</ele>
        <time>2021-05-22T10:07:18Z</time>
      </trkpt>
      <trkpt lat="42.5460720" lon="-8.6426870">
        <ele>37.0</ele>
        <time>2021-05-22T10:07:19Z</time>
      </trkpt>
      <trkpt lat="42.5460720" lon="-8.6426850">
        <ele>37.0</ele>
        <time>2021-05-22T10:07:20Z</time>
      </trkpt>
      <trkpt lat="42.5460700" lon="-8.6426840">
        <ele>37.0</ele>
        <time>2021-05-22T10:07:21Z</time>
      </trkpt>
      <trkpt lat="42.5460670" lon="-8.6426830">
        <ele>37.0</ele>
        <time>2021-05-22T10:07:22Z</time>
      </trkpt>
      <trkpt lat="42.5460690" lon="-8.6426790">
        <ele>37.0</ele>
        <time>2021-05-22T10:07:23Z</time>
      </trkpt>
      <trkpt lat="42.5460770" lon="-8.6426810">
        <ele>36.9</ele>
        <time>2021-05-22T10:07:24Z</time>
      </trkpt>
      <trkpt lat="42.5460730" lon="-8.6426800">
        <ele>36.9</ele>
        <time>2021-05-22T10:07:25Z</time>
      </trkpt>
      <trkpt lat="42.5460720" lon="-8.6426800">
        <ele>36.9</ele>
        <time>2021-05-22T10:07:26Z</time>
      </trkpt>
      <trkpt lat="42.5460700" lon="-8.6426810">
        <ele>36.9</ele>
        <time>2021-05-22T10:07:27Z</time>
      </trkpt>
      <trkpt lat="42.5460700" lon="-8.6426800">
        <ele>36.9</ele>
        <time>2021-05-22T10:07:28Z</time>
      </trkpt>
      <trkpt lat="42.5460710" lon="-8.6426810">
        <ele>36.9</ele>
        <time>2021-05-22T10:07:29Z</time>
      </trkpt>
      <trkpt lat="42.5460700" lon="-8.6426800">
        <ele>36.9</ele>
        <time>2021-05-22T10:07:30Z</time>
      </trkpt>
      <trkpt lat="42.5460690" lon="-8.6426790">
        <ele>36.9</ele>
        <time>2021-05-22T10:07:31Z</time>
      </trkpt>
      <trkpt lat="42.5460700" lon="-8.6426780">
        <ele>36.9</ele>
        <time>2021-05-22T10:07:32Z</time>
      </trkpt>
      <trkpt lat="42.5460680" lon="-8.6426780">
        <ele>36.9</ele>
        <time>2021-05-22T10:07:33Z</time>
      </trkpt>
      <trkpt lat="42.5460720" lon="-8.6426780">
        <ele>36.9</ele>
        <time>2021-05-22T10:07:34Z</time>
      </trkpt>
      <trkpt lat="42.5460770" lon="-8.6426690">
        <ele>36.9</ele>
        <time>2021-05-22T10:07:35Z</time>
      </trkpt>
      <trkpt lat="42.5460830" lon="-8.6426680">
        <ele>36.9</ele>
        <time>2021-05-22T10:07:36Z</time>
      </trkpt>
      <trkpt lat="42.5460850" lon="-8.6426670">
        <ele>36.9</ele>
        <time>2021-05-22T10:07:37Z</time>
      </trkpt>
      <trkpt lat="42.5460850" lon="-8.6426660">
        <ele>36.9</ele>
        <time>2021-05-22T10:07:38Z</time>
      </trkpt>
      <trkpt lat="42.5460900" lon="-8.6426690">
        <ele>36.9</ele>
        <time>2021-05-22T10:07:39Z</time>
      </trkpt>
      <trkpt lat="42.5460970" lon="-8.6426680">
        <ele>36.8</ele>
        <time>2021-05-22T10:07:40Z</time>
      </trkpt>
      <trkpt lat="42.5461010" lon="-8.6426690">
        <ele>36.8</ele>
        <time>2021-05-22T10:07:41Z</time>
      </trkpt>
      <trkpt lat="42.5461130" lon="-8.6426580">
        <ele>36.8</ele>
        <time>2021-05-22T10:07:42Z</time>
      </trkpt>
      <trkpt lat="42.5461150" lon="-8.6426570">
        <ele>36.8</ele>
        <time>2021-05-22T10:07:43Z</time>
      </trkpt>
      <trkpt lat="42.5461240" lon="-8.6426510">
        <ele>36.8</ele>
        <time>2021-05-22T10:07:44Z</time>
      </trkpt>
      <trkpt lat="42.5461410" lon="-8.6426440">
        <ele>36.7</ele>
        <time>2021-05-22T10:07:45Z</time>
      </trkpt>
      <trkpt lat="42.5461470" lon="-8.6426410">
        <ele>36.7</ele>
        <time>2021-05-22T10:07:46Z</time>
      </trkpt>
      <trkpt lat="42.5461540" lon="-8.6426380">
        <ele>36.7</ele>
        <time>2021-05-22T10:07:47Z</time>
      </trkpt>
      <trkpt lat="42.5461600" lon="-8.6426350">
        <ele>36.7</ele>
        <time>2021-05-22T10:07:48Z</time>
      </trkpt>
      <trkpt lat="42.5461710" lon="-8.6426300">
        <ele>36.7</ele>
        <time>2021-05-22T10:07:49Z</time>
      </trkpt>
      <trkpt lat="42.5461800" lon="-8.6426280">
        <ele>36.7</ele>
        <time>2021-05-22T10:07:50Z</time>
      </trkpt>
      <trkpt lat="42.5461930" lon="-8.6426300">
        <ele>36.6</ele>
        <time>2021-05-22T10:07:51Z</time>
      </trkpt>
      <trkpt lat="42.5461990" lon="-8.6426330">
        <ele>36.6</ele>
        <time>2021-05-22T10:07:52Z</time>
      </trkpt>
      <trkpt lat="42.5462070" lon="-8.6426330">
        <ele>36.6</ele>
        <time>2021-05-22T10:07:53Z</time>
      </trkpt>
      <trkpt lat="42.5462140" lon="-8.6426250">
        <ele>36.6</ele>
        <time>2021-05-22T10:07:54Z</time>
      </trkpt>
      <trkpt lat="42.5462270" lon="-8.6426240">
        <ele>36.6</ele>
        <time>2021-05-22T10:07:55Z</time>
      </trkpt>
      <trkpt lat="42.5462390" lon="-8.6426260">
        <ele>36.6</ele>
        <time>2021-05-22T10:07:56Z</time>
      </trkpt>
      <trkpt lat="42.5462470" lon="-8.6426200">
        <ele>36.6</ele>
        <time>2021-05-22T10:07:57Z</time>
      </trkpt>
      <trkpt lat="42.5462570" lon="-8.6426190">
        <ele>36.6</ele>
        <time>2021-05-22T10:07:58Z</time>
      </trkpt>
      <trkpt lat="42.5462660" lon="-8.6426240">
        <ele>36.5</ele>
        <time>2021-05-22T10:07:59Z</time>
      </trkpt>
      <trkpt lat="42.5462750" lon="-8.6426220">
        <ele>36.5</ele>
        <time>2021-05-22T10:08:00Z</time>
      </trkpt>
      <trkpt lat="42.5462850" lon="-8.6426200">
        <ele>36.5</ele>
        <time>2021-05-22T10:08:01Z</time>
      </trkpt>
      <trkpt lat="42.5463000" lon="-8.6426150">
        <ele>36.5</ele>
        <time>2021-05-22T10:08:02Z</time>
      </trkpt>
      <trkpt lat="42.5463070" lon="-8.6426130">
        <ele>36.5</ele>
        <time>2021-05-22T10:08:03Z</time>
      </trkpt>
      <trkpt lat="42.5463130" lon="-8.6426100">
        <ele>36.5</ele>
        <time>2021-05-22T10:08:04Z</time>
      </trkpt>
      <trkpt lat="42.5463200" lon="-8.6426070">
        <ele>36.5</ele>
        <time>2021-05-22T10:08:05Z</time>
      </trkpt>
      <trkpt lat="42.5463270" lon="-8.6426030">
        <ele>36.5</ele>
        <time>2021-05-22T10:08:06Z</time>
      </trkpt>
      <trkpt lat="42.5463330" lon="-8.6425970">
        <ele>36.5</ele>
        <time>2021-05-22T10:08:07Z</time>
      </trkpt>
      <trkpt lat="42.5463440" lon="-8.6425930">
        <ele>36.5</ele>
        <time>2021-05-22T10:08:08Z</time>
      </trkpt>
      <trkpt lat="42.5463540" lon="-8.6425910">
        <ele>36.5</ele>
        <time>2021-05-22T10:08:09Z</time>
      </trkpt>
      <trkpt lat="42.5463640" lon="-8.6425870">
        <ele>36.5</ele>
        <time>2021-05-22T10:08:10Z</time>
      </trkpt>
      <trkpt lat="42.5463730" lon="-8.6425830">
        <ele>36.5</ele>
        <time>2021-05-22T10:08:11Z</time>
      </trkpt>
      <trkpt lat="42.5463830" lon="-8.6425810">
        <ele>36.5</ele>
        <time>2021-05-22T10:08:12Z</time>
      </trkpt>
      <trkpt lat="42.5463990" lon="-8.6425730">
        <ele>36.5</ele>
        <time>2021-05-22T10:08:13Z</time>
      </trkpt>
      <trkpt lat="42.5464090" lon="-8.6425710">
        <ele>36.5</ele>
        <time>2021-05-22T10:08:14Z</time>
      </trkpt>
      <trkpt lat="42.5464190" lon="-8.6425690">
        <ele>36.5</ele>
        <time>2021-05-22T10:08:15Z</time>
      </trkpt>
      <trkpt lat="42.5464330" lon="-8.6425680">
        <ele>36.5</ele>
        <time>2021-05-22T10:08:16Z</time>
      </trkpt>
      <trkpt lat="42.5464450" lon="-8.6425640">
        <ele>36.5</ele>
        <time>2021-05-22T10:08:17Z</time>
      </trkpt>
      <trkpt lat="42.5464510" lon="-8.6425590">
        <ele>36.5</ele>
        <time>2021-05-22T10:08:18Z</time>
      </trkpt>
      <trkpt lat="42.5464630" lon="-8.6425570">
        <ele>36.5</ele>
        <time>2021-05-22T10:08:19Z</time>
      </trkpt>
      <trkpt lat="42.5464750" lon="-8.6425550">
        <ele>36.5</ele>
        <time>2021-05-22T10:08:20Z</time>
      </trkpt>
      <trkpt lat="42.5464850" lon="-8.6425520">
        <ele>36.5</ele>
        <time>2021-05-22T10:08:21Z</time>
      </trkpt>
      <trkpt lat="42.5464960" lon="-8.6425500">
        <ele>36.5</ele>
        <time>2021-05-22T10:08:22Z</time>
      </trkpt>
      <trkpt lat="42.5465090" lon="-8.6425470">
        <ele>36.5</ele>
        <time>2021-05-22T10:08:23Z</time>
      </trkpt>
      <trkpt lat="42.5465200" lon="-8.6425500">
        <ele>36.5</ele>
        <time>2021-05-22T10:08:24Z</time>
      </trkpt>
      <trkpt lat="42.5465290" lon="-8.6425490">
        <ele>36.5</ele>
        <time>2021-05-22T10:08:25Z</time>
      </trkpt>
      <trkpt lat="42.5465400" lon="-8.6425470">
        <ele>36.5</ele>
        <time>2021-05-22T10:08:26Z</time>
      </trkpt>
      <trkpt lat="42.5465540" lon="-8.6425440">
        <ele>36.5</ele>
        <time>2021-05-22T10:08:27Z</time>
      </trkpt>
      <trkpt lat="42.5465700" lon="-8.6425400">
        <ele>36.6</ele>
        <time>2021-05-22T10:08:28Z</time>
      </trkpt>
      <trkpt lat="42.5465770" lon="-8.6425420">
        <ele>36.6</ele>
        <time>2021-05-22T10:08:29Z</time>
      </trkpt>
      <trkpt lat="42.5465820" lon="-8.6425380">
        <ele>36.6</ele>
        <time>2021-05-22T10:08:30Z</time>
      </trkpt>
      <trkpt lat="42.5465930" lon="-8.6425390">
        <ele>36.6</ele>
        <time>2021-05-22T10:08:31Z</time>
      </trkpt>
      <trkpt lat="42.5466120" lon="-8.6425360">
        <ele>36.6</ele>
        <time>2021-05-22T10:08:32Z</time>
      </trkpt>
      <trkpt lat="42.5466330" lon="-8.6425360">
        <ele>36.6</ele>
        <time>2021-05-22T10:08:33Z</time>
      </trkpt>
      <trkpt lat="42.5466410" lon="-8.6425360">
        <ele>36.6</ele>
        <time>2021-05-22T10:08:34Z</time>
      </trkpt>
      <trkpt lat="42.5466500" lon="-8.6425360">
        <ele>36.6</ele>
        <time>2021-05-22T10:08:35Z</time>
      </trkpt>
      <trkpt lat="42.5466580" lon="-8.6425350">
        <ele>36.7</ele>
        <time>2021-05-22T10:08:36Z</time>
      </trkpt>
      <trkpt lat="42.5466670" lon="-8.6425330">
        <ele>36.7</ele>
        <time>2021-05-22T10:08:37Z</time>
      </trkpt>
      <trkpt lat="42.5466790" lon="-8.6425320">
        <ele>36.7</ele>
        <time>2021-05-22T10:08:38Z</time>
      </trkpt>
      <trkpt lat="42.5466920" lon="-8.6425270">
        <ele>36.7</ele>
        <time>2021-05-22T10:08:39Z</time>
      </trkpt>
      <trkpt lat="42.5467050" lon="-8.6425210">
        <ele>36.7</ele>
        <time>2021-05-22T10:08:40Z</time>
      </trkpt>
      <trkpt lat="42.5467120" lon="-8.6425220">
        <ele>36.7</ele>
        <time>2021-05-22T10:08:41Z</time>
      </trkpt>
      <trkpt lat="42.5467330" lon="-8.6425270">
        <ele>36.7</ele>
        <time>2021-05-22T10:08:42Z</time>
      </trkpt>
      <trkpt lat="42.5467520" lon="-8.6425260">
        <ele>36.8</ele>
        <time>2021-05-22T10:08:43Z</time>
      </trkpt>
      <trkpt lat="42.5467580" lon="-8.6425260">
        <ele>36.8</ele>
        <time>2021-05-22T10:08:44Z</time>
      </trkpt>
      <trkpt lat="42.5467640" lon="-8.6425270">
        <ele>36.8</ele>
        <time>2021-05-22T10:08:45Z</time>
      </trkpt>
      <trkpt lat="42.5467700" lon="-8.6425270">
        <ele>36.8</ele>
        <time>2021-05-22T10:08:46Z</time>
      </trkpt>
      <trkpt lat="42.5467850" lon="-8.6425230">
        <ele>36.8</ele>
        <time>2021-05-22T10:08:47Z</time>
      </trkpt>
      <trkpt lat="42.5467900" lon="-8.6425180">
        <ele>36.8</ele>
        <time>2021-05-22T10:08:48Z</time>
      </trkpt>
      <trkpt lat="42.5468020" lon="-8.6425130">
        <ele>36.9</ele>
        <time>2021-05-22T10:08:49Z</time>
      </trkpt>
      <trkpt lat="42.5468120" lon="-8.6425050">
        <ele>36.9</ele>
        <time>2021-05-22T10:08:50Z</time>
      </trkpt>
      <trkpt lat="42.5468230" lon="-8.6425070">
        <ele>36.9</ele>
        <time>2021-05-22T10:08:51Z</time>
      </trkpt>
      <trkpt lat="42.5468350" lon="-8.6425060">
        <ele>36.9</ele>
        <time>2021-05-22T10:08:52Z</time>
      </trkpt>
      <trkpt lat="42.5468450" lon="-8.6425070">
        <ele>36.9</ele>
        <time>2021-05-22T10:08:53Z</time>
      </trkpt>
      <trkpt lat="42.5468560" lon="-8.6425070">
        <ele>37.0</ele>
        <time>2021-05-22T10:08:54Z</time>
      </trkpt>
      <trkpt lat="42.5468680" lon="-8.6425060">
        <ele>37.0</ele>
        <time>2021-05-22T10:08:55Z</time>
      </trkpt>
      <trkpt lat="42.5468770" lon="-8.6425060">
        <ele>37.0</ele>
        <time>2021-05-22T10:08:56Z</time>
      </trkpt>
      <trkpt lat="42.5468830" lon="-8.6425090">
        <ele>37.0</ele>
        <time>2021-05-22T10:08:57Z</time>
      </trkpt>
      <trkpt lat="42.5468920" lon="-8.6425060">
        <ele>37.0</ele>
        <time>2021-05-22T10:08:58Z</time>
      </trkpt>
      <trkpt lat="42.5468980" lon="-8.6425080">
        <ele>37.0</ele>
        <time>2021-05-22T10:08:59Z</time>
      </trkpt>
      <trkpt lat="42.5469050" lon="-8.6425100">
        <ele>37.0</ele>
        <time>2021-05-22T10:09:00Z</time>
      </trkpt>
      <trkpt lat="42.5469200" lon="-8.6425090">
        <ele>37.1</ele>
        <time>2021-05-22T10:09:01Z</time>
      </trkpt>
      <trkpt lat="42.5469320" lon="-8.6425040">
        <ele>37.1</ele>
        <time>2021-05-22T10:09:02Z</time>
      </trkpt>
      <trkpt lat="42.5469450" lon="-8.6425010">
        <ele>37.1</ele>
        <time>2021-05-22T10:09:03Z</time>
      </trkpt>
      <trkpt lat="42.5469630" lon="-8.6424960">
        <ele>37.1</ele>
        <time>2021-05-22T10:09:04Z</time>
      </trkpt>
      <trkpt lat="42.5469740" lon="-8.6424940">
        <ele>37.2</ele>
        <time>2021-05-22T10:09:05Z</time>
      </trkpt>
      <trkpt lat="42.5469880" lon="-8.6424940">
        <ele>37.2</ele>
        <time>2021-05-22T10:09:06Z</time>
      </trkpt>
      <trkpt lat="42.5469990" lon="-8.6424920">
        <ele>37.2</ele>
        <time>2021-05-22T10:09:07Z</time>
      </trkpt>
      <trkpt lat="42.5470130" lon="-8.6424880">
        <ele>37.2</ele>
        <time>2021-05-22T10:09:08Z</time>
      </trkpt>
      <trkpt lat="42.5470260" lon="-8.6424900">
        <ele>37.2</ele>
        <time>2021-05-22T10:09:09Z</time>
      </trkpt>
      <trkpt lat="42.5470350" lon="-8.6424860">
        <ele>37.3</ele>
        <time>2021-05-22T10:09:10Z</time>
      </trkpt>
      <trkpt lat="42.5470480" lon="-8.6424890">
        <ele>37.3</ele>
        <time>2021-05-22T10:09:11Z</time>
      </trkpt>
      <trkpt lat="42.5470560" lon="-8.6424880">
        <ele>37.3</ele>
        <time>2021-05-22T10:09:12Z</time>
      </trkpt>
      <trkpt lat="42.5470670" lon="-8.6424850">
        <ele>37.3</ele>
        <time>2021-05-22T10:09:13Z</time>
      </trkpt>
      <trkpt lat="42.5470830" lon="-8.6424840">
        <ele>37.3</ele>
        <time>2021-05-22T10:09:14Z</time>
      </trkpt>
      <trkpt lat="42.5471070" lon="-8.6424810">
        <ele>37.4</ele>
        <time>2021-05-22T10:09:15Z</time>
      </trkpt>
      <trkpt lat="42.5471200" lon="-8.6424790">
        <ele>37.4</ele>
        <time>2021-05-22T10:09:16Z</time>
      </trkpt>
      <trkpt lat="42.5471320" lon="-8.6424780">
        <ele>37.4</ele>
        <time>2021-05-22T10:09:17Z</time>
      </trkpt>
      <trkpt lat="42.5471370" lon="-8.6424720">
        <ele>37.4</ele>
        <time>2021-05-22T10:09:18Z</time>
      </trkpt>
      <trkpt lat="42.5471420" lon="-8.6424700">
        <ele>37.4</ele>
        <time>2021-05-22T10:09:19Z</time>
      </trkpt>
      <trkpt lat="42.5471530" lon="-8.6424690">
        <ele>37.4</ele>
        <time>2021-05-22T10:09:20Z</time>
      </trkpt>
      <trkpt lat="42.5471650" lon="-8.6424730">
        <ele>37.4</ele>
        <time>2021-05-22T10:09:21Z</time>
      </trkpt>
      <trkpt lat="42.5471740" lon="-8.6424680">
        <ele>37.4</ele>
        <time>2021-05-22T10:09:22Z</time>
      </trkpt>
      <trkpt lat="42.5471830" lon="-8.6424730">
        <ele>37.4</ele>
        <time>2021-05-22T10:09:23Z</time>
      </trkpt>
      <trkpt lat="42.5471910" lon="-8.6424690">
        <ele>37.4</ele>
        <time>2021-05-22T10:09:24Z</time>
      </trkpt>
      <trkpt lat="42.5471960" lon="-8.6424650">
        <ele>37.4</ele>
        <time>2021-05-22T10:09:25Z</time>
      </trkpt>
      <trkpt lat="42.5472060" lon="-8.6424640">
        <ele>37.4</ele>
        <time>2021-05-22T10:09:26Z</time>
      </trkpt>
      <trkpt lat="42.5472170" lon="-8.6424650">
        <ele>37.4</ele>
        <time>2021-05-22T10:09:27Z</time>
      </trkpt>
      <trkpt lat="42.5472260" lon="-8.6424660">
        <ele>37.4</ele>
        <time>2021-05-22T10:09:28Z</time>
      </trkpt>
      <trkpt lat="42.5472300" lon="-8.6424600">
        <ele>37.4</ele>
        <time>2021-05-22T10:09:29Z</time>
      </trkpt>
      <trkpt lat="42.5472440" lon="-8.6424600">
        <ele>37.4</ele>
        <time>2021-05-22T10:09:30Z</time>
      </trkpt>
      <trkpt lat="42.5472510" lon="-8.6424640">
        <ele>37.4</ele>
        <time>2021-05-22T10:09:31Z</time>
      </trkpt>
      <trkpt lat="42.5472620" lon="-8.6424630">
        <ele>37.3</ele>
        <time>2021-05-22T10:09:32Z</time>
      </trkpt>
      <trkpt lat="42.5472760" lon="-8.6424620">
        <ele>37.3</ele>
        <time>2021-05-22T10:09:33Z</time>
      </trkpt>
      <trkpt lat="42.5472860" lon="-8.6424640">
        <ele>37.3</ele>
        <time>2021-05-22T10:09:34Z</time>
      </trkpt>
      <trkpt lat="42.5472960" lon="-8.6424610">
        <ele>37.3</ele>
        <time>2021-05-22T10:09:35Z</time>
      </trkpt>
      <trkpt lat="42.5473030" lon="-8.6424560">
        <ele>37.3</ele>
        <time>2021-05-22T10:09:36Z</time>
      </trkpt>
      <trkpt lat="42.5473080" lon="-8.6424580">
        <ele>37.2</ele>
        <time>2021-05-22T10:09:37Z</time>
      </trkpt>
      <trkpt lat="42.5473170" lon="-8.6424520">
        <ele>37.2</ele>
        <time>2021-05-22T10:09:38Z</time>
      </trkpt>
      <trkpt lat="42.5473290" lon="-8.6424540">
        <ele>37.2</ele>
        <time>2021-05-22T10:09:39Z</time>
      </trkpt>
      <trkpt lat="42.5473390" lon="-8.6424540">
        <ele>37.1</ele>
        <time>2021-05-22T10:09:40Z</time>
      </trkpt>
      <trkpt lat="42.5473460" lon="-8.6424530">
        <ele>37.1</ele>
        <time>2021-05-22T10:09:41Z</time>
      </trkpt>
      <trkpt lat="42.5473580" lon="-8.6424420">
        <ele>37.1</ele>
        <time>2021-05-22T10:09:42Z</time>
      </trkpt>
      <trkpt lat="42.5473790" lon="-8.6424370">
        <ele>37.0</ele>
        <time>2021-05-22T10:09:43Z</time>
      </trkpt>
      <trkpt lat="42.5473870" lon="-8.6424330">
        <ele>37.0</ele>
        <time>2021-05-22T10:09:44Z</time>
      </trkpt>
      <trkpt lat="42.5473980" lon="-8.6424260">
        <ele>36.9</ele>
        <time>2021-05-22T10:09:45Z</time>
      </trkpt>
      <trkpt lat="42.5474010" lon="-8.6424260">
        <ele>36.9</ele>
        <time>2021-05-22T10:09:46Z</time>
      </trkpt>
      <trkpt lat="42.5474170" lon="-8.6424140">
        <ele>36.8</ele>
        <time>2021-05-22T10:09:47Z</time>
      </trkpt>
      <trkpt lat="42.5474330" lon="-8.6424070">
        <ele>36.8</ele>
        <time>2021-05-22T10:09:48Z</time>
      </trkpt>
      <trkpt lat="42.5474440" lon="-8.6424070">
        <ele>36.7</ele>
        <time>2021-05-22T10:09:49Z</time>
      </trkpt>
      <trkpt lat="42.5474560" lon="-8.6424010">
        <ele>36.7</ele>
        <time>2021-05-22T10:09:50Z</time>
      </trkpt>
      <trkpt lat="42.5474730" lon="-8.6424020">
        <ele>36.6</ele>
        <time>2021-05-22T10:09:51Z</time>
      </trkpt>
      <trkpt lat="42.5474760" lon="-8.6424110">
        <ele>36.6</ele>
        <time>2021-05-22T10:09:52Z</time>
      </trkpt>
      <trkpt lat="42.5474820" lon="-8.6424160">
        <ele>36.6</ele>
        <time>2021-05-22T10:09:53Z</time>
      </trkpt>
      <trkpt lat="42.5474940" lon="-8.6424150">
        <ele>36.5</ele>
        <time>2021-05-22T10:09:54Z</time>
      </trkpt>
      <trkpt lat="42.5475030" lon="-8.6424170">
        <ele>36.5</ele>
        <time>2021-05-22T10:09:55Z</time>
      </trkpt>
      <trkpt lat="42.5475180" lon="-8.6424190">
        <ele>36.4</ele>
        <time>2021-05-22T10:09:56Z</time>
      </trkpt>
      <trkpt lat="42.5475280" lon="-8.6424180">
        <ele>36.4</ele>
        <time>2021-05-22T10:09:57Z</time>
      </trkpt>
      <trkpt lat="42.5475240" lon="-8.6424140">
        <ele>36.4</ele>
        <time>2021-05-22T10:09:58Z</time>
      </trkpt>
      <trkpt lat="42.5475390" lon="-8.6424170">
        <ele>36.3</ele>
        <time>2021-05-22T10:09:59Z</time>
      </trkpt>
      <trkpt lat="42.5475570" lon="-8.6424190">
        <ele>36.2</ele>
        <time>2021-05-22T10:10:00Z</time>
      </trkpt>
      <trkpt lat="42.5475670" lon="-8.6424260">
        <ele>36.2</ele>
        <time>2021-05-22T10:10:01Z</time>
      </trkpt>
      <trkpt lat="42.5475750" lon="-8.6424220">
        <ele>36.2</ele>
        <time>2021-05-22T10:10:02Z</time>
      </trkpt>
      <trkpt lat="42.5475880" lon="-8.6424250">
        <ele>36.1</ele>
        <time>2021-05-22T10:10:03Z</time>
      </trkpt>
      <trkpt lat="42.5476020" lon="-8.6424260">
        <ele>36.1</ele>
        <time>2021-05-22T10:10:04Z</time>
      </trkpt>
      <trkpt lat="42.5476110" lon="-8.6424290">
        <ele>36.1</ele>
        <time>2021-05-22T10:10:05Z</time>
      </trkpt>
      <trkpt lat="42.5476350" lon="-8.6424360">
        <ele>36.0</ele>
        <time>2021-05-22T10:10:06Z</time>
      </trkpt>
      <trkpt lat="42.5476490" lon="-8.6424510">
        <ele>35.9</ele>
        <time>2021-05-22T10:10:07Z</time>
      </trkpt>
      <trkpt lat="42.5476590" lon="-8.6424490">
        <ele>35.9</ele>
        <time>2021-05-22T10:10:08Z</time>
      </trkpt>
      <trkpt lat="42.5476700" lon="-8.6424480">
        <ele>35.9</ele>
        <time>2021-05-22T10:10:09Z</time>
      </trkpt>
      <trkpt lat="42.5476830" lon="-8.6424530">
        <ele>35.8</ele>
        <time>2021-05-22T10:10:10Z</time>
      </trkpt>
      <trkpt lat="42.5476970" lon="-8.6424670">
        <ele>35.8</ele>
        <time>2021-05-22T10:10:11Z</time>
      </trkpt>
      <trkpt lat="42.5477050" lon="-8.6424810">
        <ele>35.8</ele>
        <time>2021-05-22T10:10:12Z</time>
      </trkpt>
      <trkpt lat="42.5477190" lon="-8.6424910">
        <ele>35.7</ele>
        <time>2021-05-22T10:10:13Z</time>
      </trkpt>
      <trkpt lat="42.5477240" lon="-8.6424910">
        <ele>35.7</ele>
        <time>2021-05-22T10:10:14Z</time>
      </trkpt>
      <trkpt lat="42.5477330" lon="-8.6425010">
        <ele>35.7</ele>
        <time>2021-05-22T10:10:15Z</time>
      </trkpt>
      <trkpt lat="42.5477410" lon="-8.6425060">
        <ele>35.7</ele>
        <time>2021-05-22T10:10:16Z</time>
      </trkpt>
      <trkpt lat="42.5477500" lon="-8.6425130">
        <ele>35.6</ele>
        <time>2021-05-22T10:10:17Z</time>
      </trkpt>
      <trkpt lat="42.5477570" lon="-8.6425260">
        <ele>35.6</ele>
        <time>2021-05-22T10:10:18Z</time>
      </trkpt>
      <trkpt lat="42.5477670" lon="-8.6425320">
        <ele>35.6</ele>
        <time>2021-05-22T10:10:19Z</time>
      </trkpt>
      <trkpt lat="42.5477740" lon="-8.6425300">
        <ele>35.6</ele>
        <time>2021-05-22T10:10:20Z</time>
      </trkpt>
      <trkpt lat="42.5477890" lon="-8.6425340">
        <ele>35.5</ele>
        <time>2021-05-22T10:10:21Z</time>
      </trkpt>
      <trkpt lat="42.5477970" lon="-8.6425310">
        <ele>35.5</ele>
        <time>2021-05-22T10:10:22Z</time>
      </trkpt>
      <trkpt lat="42.5478070" lon="-8.6425250">
        <ele>35.5</ele>
        <time>2021-05-22T10:10:23Z</time>
      </trkpt>
      <trkpt lat="42.5478190" lon="-8.6425200">
        <ele>35.5</ele>
        <time>2021-05-22T10:10:24Z</time>
      </trkpt>
      <trkpt lat="42.5478240" lon="-8.6425120">
        <ele>35.5</ele>
        <time>2021-05-22T10:10:25Z</time>
      </trkpt>
      <trkpt lat="42.5478330" lon="-8.6425000">
        <ele>35.5</ele>
        <time>2021-05-22T10:10:26Z</time>
      </trkpt>
      <trkpt lat="42.5478450" lon="-8.6424790">
        <ele>35.5</ele>
        <time>2021-05-22T10:10:27Z</time>
      </trkpt>
      <trkpt lat="42.5478510" lon="-8.6424700">
        <ele>35.5</ele>
        <time>2021-05-22T10:10:28Z</time>
      </trkpt>
      <trkpt lat="42.5478570" lon="-8.6424610">
        <ele>35.5</ele>
        <time>2021-05-22T10:10:29Z</time>
      </trkpt>
      <trkpt lat="42.5478630" lon="-8.6424510">
        <ele>35.6</ele>
        <time>2021-05-22T10:10:30Z</time>
      </trkpt>
      <trkpt lat="42.5478660" lon="-8.6424410">
        <ele>35.6</ele>
        <time>2021-05-22T10:10:31Z</time>
      </trkpt>
      <trkpt lat="42.5478780" lon="-8.6424250">
        <ele>35.6</ele>
        <time>2021-05-22T10:10:32Z</time>
      </trkpt>
      <trkpt lat="42.5478850" lon="-8.6424170">
        <ele>35.6</ele>
        <time>2021-05-22T10:10:33Z</time>
      </trkpt>
      <trkpt lat="42.5478870" lon="-8.6424080">
        <ele>35.6</ele>
        <time>2021-05-22T10:10:34Z</time>
      </trkpt>
      <trkpt lat="42.5478940" lon="-8.6423960">
        <ele>35.6</ele>
        <time>2021-05-22T10:10:35Z</time>
      </trkpt>
      <trkpt lat="42.5479050" lon="-8.6423750">
        <ele>35.6</ele>
        <time>2021-05-22T10:10:36Z</time>
      </trkpt>
      <trkpt lat="42.5479110" lon="-8.6423650">
        <ele>35.6</ele>
        <time>2021-05-22T10:10:37Z</time>
      </trkpt>
      <trkpt lat="42.5479160" lon="-8.6423560">
        <ele>35.6</ele>
        <time>2021-05-22T10:10:38Z</time>
      </trkpt>
      <trkpt lat="42.5479240" lon="-8.6423420">
        <ele>35.6</ele>
        <time>2021-05-22T10:10:39Z</time>
      </trkpt>
      <trkpt lat="42.5479270" lon="-8.6423350">
        <ele>35.6</ele>
        <time>2021-05-22T10:10:40Z</time>
      </trkpt>
      <trkpt lat="42.5479370" lon="-8.6423160">
        <ele>35.6</ele>
        <time>2021-05-22T10:10:41Z</time>
      </trkpt>
      <trkpt lat="42.5479420" lon="-8.6422910">
        <ele>35.7</ele>
        <time>2021-05-22T10:10:42Z</time>
      </trkpt>
      <trkpt lat="42.5479490" lon="-8.6422810">
        <ele>35.7</ele>
        <time>2021-05-22T10:10:43Z</time>
      </trkpt>
      <trkpt lat="42.5479550" lon="-8.6422720">
        <ele>35.7</ele>
        <time>2021-05-22T10:10:44Z</time>
      </trkpt>
      <trkpt lat="42.5479610" lon="-8.6422650">
        <ele>35.7</ele>
        <time>2021-05-22T10:10:45Z</time>
      </trkpt>
      <trkpt lat="42.5479720" lon="-8.6422570">
        <ele>35.7</ele>
        <time>2021-05-22T10:10:46Z</time>
      </trkpt>
      <trkpt lat="42.5479800" lon="-8.6422450">
        <ele>35.7</ele>
        <time>2021-05-22T10:10:47Z</time>
      </trkpt>
      <trkpt lat="42.5479810" lon="-8.6422350">
        <ele>35.7</ele>
        <time>2021-05-22T10:10:48Z</time>
      </trkpt>
      <trkpt lat="42.5479860" lon="-8.6422190">
        <ele>35.8</ele>
        <time>2021-05-22T10:10:49Z</time>
      </trkpt>
      <trkpt lat="42.5479930" lon="-8.6422090">
        <ele>35.8</ele>
        <time>2021-05-22T10:10:50Z</time>
      </trkpt>
      <trkpt lat="42.5479980" lon="-8.6421940">
        <ele>35.8</ele>
        <time>2021-05-22T10:10:51Z</time>
      </trkpt>
      <trkpt lat="42.5480020" lon="-8.6421870">
        <ele>35.8</ele>
        <time>2021-05-22T10:10:52Z</time>
      </trkpt>
      <trkpt lat="42.5480110" lon="-8.6421780">
        <ele>35.8</ele>
        <time>2021-05-22T10:10:53Z</time>
      </trkpt>
      <trkpt lat="42.5480220" lon="-8.6421640">
        <ele>35.9</ele>
        <time>2021-05-22T10:10:54Z</time>
      </trkpt>
      <trkpt lat="42.5480270" lon="-8.6421570">
        <ele>35.9</ele>
        <time>2021-05-22T10:10:55Z</time>
      </trkpt>
      <trkpt lat="42.5480320" lon="-8.6421490">
        <ele>35.9</ele>
        <time>2021-05-22T10:10:56Z</time>
      </trkpt>
      <trkpt lat="42.5480370" lon="-8.6421420">
        <ele>35.9</ele>
        <time>2021-05-22T10:10:57Z</time>
      </trkpt>
      <trkpt lat="42.5480520" lon="-8.6421270">
        <ele>36.0</ele>
        <time>2021-05-22T10:10:58Z</time>
      </trkpt>
      <trkpt lat="42.5480580" lon="-8.6421180">
        <ele>36.0</ele>
        <time>2021-05-22T10:10:59Z</time>
      </trkpt>
      <trkpt lat="42.5480640" lon="-8.6421090">
        <ele>36.0</ele>
        <time>2021-05-22T10:11:00Z</time>
      </trkpt>
      <trkpt lat="42.5480700" lon="-8.6421000">
        <ele>36.0</ele>
        <time>2021-05-22T10:11:01Z</time>
      </trkpt>
      <trkpt lat="42.5480800" lon="-8.6420810">
        <ele>36.0</ele>
        <time>2021-05-22T10:11:02Z</time>
      </trkpt>
      <trkpt lat="42.5480850" lon="-8.6420780">
        <ele>36.1</ele>
        <time>2021-05-22T10:11:03Z</time>
      </trkpt>
      <trkpt lat="42.5480960" lon="-8.6420660">
        <ele>36.1</ele>
        <time>2021-05-22T10:11:04Z</time>
      </trkpt>
      <trkpt lat="42.5481050" lon="-8.6420500">
        <ele>36.1</ele>
        <time>2021-05-22T10:11:05Z</time>
      </trkpt>
      <trkpt lat="42.5481100" lon="-8.6420490">
        <ele>36.1</ele>
        <time>2021-05-22T10:11:06Z</time>
      </trkpt>
      <trkpt lat="42.5481180" lon="-8.6420350">
        <ele>36.1</ele>
        <time>2021-05-22T10:11:07Z</time>
      </trkpt>
      <trkpt lat="42.5481310" lon="-8.6420230">
        <ele>36.2</ele>
        <time>2021-05-22T10:11:08Z</time>
      </trkpt>
      <trkpt lat="42.5481360" lon="-8.6420160">
        <ele>36.2</ele>
        <time>2021-05-22T10:11:09Z</time>
      </trkpt>
      <trkpt lat="42.5481410" lon="-8.6420080">
        <ele>36.2</ele>
        <time>2021-05-22T10:11:10Z</time>
      </trkpt>
      <trkpt lat="42.5481460" lon="-8.6420000">
        <ele>36.2</ele>
        <time>2021-05-22T10:11:11Z</time>
      </trkpt>
      <trkpt lat="42.5481490" lon="-8.6419960">
        <ele>36.2</ele>
        <time>2021-05-22T10:11:12Z</time>
      </trkpt>
      <trkpt lat="42.5481460" lon="-8.6419960">
        <ele>36.2</ele>
        <time>2021-05-22T10:11:13Z</time>
      </trkpt>
      <trkpt lat="42.5481450" lon="-8.6419890">
        <ele>36.2</ele>
        <time>2021-05-22T10:11:14Z</time>
      </trkpt>
      <trkpt lat="42.5481450" lon="-8.6419900">
        <ele>36.2</ele>
        <time>2021-05-22T10:11:15Z</time>
      </trkpt>
      <trkpt lat="42.5481500" lon="-8.6419880">
        <ele>36.2</ele>
        <time>2021-05-22T10:11:16Z</time>
      </trkpt>
      <trkpt lat="42.5481580" lon="-8.6419760">
        <ele>36.2</ele>
        <time>2021-05-22T10:11:17Z</time>
      </trkpt>
      <trkpt lat="42.5481700" lon="-8.6419730">
        <ele>36.3</ele>
        <time>2021-05-22T10:11:18Z</time>
      </trkpt>
      <trkpt lat="42.5481730" lon="-8.6419600">
        <ele>36.3</ele>
        <time>2021-05-22T10:11:19Z</time>
      </trkpt>
      <trkpt lat="42.5481840" lon="-8.6419570">
        <ele>36.3</ele>
        <time>2021-05-22T10:11:20Z</time>
      </trkpt>
      <trkpt lat="42.5481870" lon="-8.6419500">
        <ele>36.3</ele>
        <time>2021-05-22T10:11:21Z</time>
      </trkpt>
      <trkpt lat="42.5481940" lon="-8.6419430">
        <ele>36.3</ele>
        <time>2021-05-22T10:11:22Z</time>
      </trkpt>
      <trkpt lat="42.5482030" lon="-8.6419370">
        <ele>36.3</ele>
        <time>2021-05-22T10:11:23Z</time>
      </trkpt>
      <trkpt lat="42.5482100" lon="-8.6419300">
        <ele>36.3</ele>
        <time>2021-05-22T10:11:24Z</time>
      </trkpt>
      <trkpt lat="42.5482170" lon="-8.6419210">
        <ele>36.3</ele>
        <time>2021-05-22T10:11:25Z</time>
      </trkpt>
      <trkpt lat="42.5482200" lon="-8.6419140">
        <ele>36.3</ele>
        <time>2021-05-22T10:11:26Z</time>
      </trkpt>
      <trkpt lat="42.5482250" lon="-8.6419020">
        <ele>36.3</ele>
        <time>2021-05-22T10:11:27Z</time>
      </trkpt>
      <trkpt lat="42.5482310" lon="-8.6418870">
        <ele>36.3</ele>
        <time>2021-05-22T10:11:28Z</time>
      </trkpt>
      <trkpt lat="42.5482350" lon="-8.6418770">
        <ele>36.3</ele>
        <time>2021-05-22T10:11:29Z</time>
      </trkpt>
      <trkpt lat="42.5482500" lon="-8.6418720">
        <ele>36.3</ele>
        <time>2021-05-22T10:11:30Z</time>
      </trkpt>
      <trkpt lat="42.5482560" lon="-8.6418570">
        <ele>36.3</ele>
        <time>2021-05-22T10:11:31Z</time>
      </trkpt>
      <trkpt lat="42.5482670" lon="-8.6418430">
        <ele>36.3</ele>
        <time>2021-05-22T10:11:32Z</time>
      </trkpt>
      <trkpt lat="42.5482720" lon="-8.6418380">
        <ele>36.3</ele>
        <time>2021-05-22T10:11:33Z</time>
      </trkpt>
      <trkpt lat="42.5482770" lon="-8.6418220">
        <ele>36.3</ele>
        <time>2021-05-22T10:11:34Z</time>
      </trkpt>
      <trkpt lat="42.5482860" lon="-8.6418150">
        <ele>36.3</ele>
        <time>2021-05-22T10:11:35Z</time>
      </trkpt>
      <trkpt lat="42.5482950" lon="-8.6418020">
        <ele>36.3</ele>
        <time>2021-05-22T10:11:36Z</time>
      </trkpt>
      <trkpt lat="42.5483020" lon="-8.6418000">
        <ele>36.3</ele>
        <time>2021-05-22T10:11:37Z</time>
      </trkpt>
      <trkpt lat="42.5483140" lon="-8.6417850">
        <ele>36.4</ele>
        <time>2021-05-22T10:11:38Z</time>
      </trkpt>
      <trkpt lat="42.5483180" lon="-8.6417760">
        <ele>36.4</ele>
        <time>2021-05-22T10:11:39Z</time>
      </trkpt>
      <trkpt lat="42.5483270" lon="-8.6417680">
        <ele>36.4</ele>
        <time>2021-05-22T10:11:40Z</time>
      </trkpt>
      <trkpt lat="42.5483420" lon="-8.6417480">
        <ele>36.4</ele>
        <time>2021-05-22T10:11:41Z</time>
      </trkpt>
      <trkpt lat="42.5483490" lon="-8.6417370">
        <ele>36.4</ele>
        <time>2021-05-22T10:11:42Z</time>
      </trkpt>
      <trkpt lat="42.5483550" lon="-8.6417270">
        <ele>36.4</ele>
        <time>2021-05-22T10:11:43Z</time>
      </trkpt>
      <trkpt lat="42.5483630" lon="-8.6417110">
        <ele>36.4</ele>
        <time>2021-05-22T10:11:44Z</time>
      </trkpt>
      <trkpt lat="42.5483680" lon="-8.6416990">
        <ele>36.4</ele>
        <time>2021-05-22T10:11:45Z</time>
      </trkpt>
      <trkpt lat="42.5483740" lon="-8.6416910">
        <ele>36.4</ele>
        <time>2021-05-22T10:11:46Z</time>
      </trkpt>
      <trkpt lat="42.5483870" lon="-8.6416860">
        <ele>36.4</ele>
        <time>2021-05-22T10:11:47Z</time>
      </trkpt>
      <trkpt lat="42.5484030" lon="-8.6416800">
        <ele>36.4</ele>
        <time>2021-05-22T10:11:48Z</time>
      </trkpt>
      <trkpt lat="42.5484100" lon="-8.6416620">
        <ele>36.4</ele>
        <time>2021-05-22T10:11:49Z</time>
      </trkpt>
      <trkpt lat="42.5484060" lon="-8.6416460">
        <ele>36.4</ele>
        <time>2021-05-22T10:11:50Z</time>
      </trkpt>
      <trkpt lat="42.5484130" lon="-8.6416350">
        <ele>36.4</ele>
        <time>2021-05-22T10:11:51Z</time>
      </trkpt>
      <trkpt lat="42.5484240" lon="-8.6416250">
        <ele>36.4</ele>
        <time>2021-05-22T10:11:52Z</time>
      </trkpt>
      <trkpt lat="42.5484320" lon="-8.6416060">
        <ele>36.4</ele>
        <time>2021-05-22T10:11:53Z</time>
      </trkpt>
      <trkpt lat="42.5484420" lon="-8.6415930">
        <ele>36.4</ele>
        <time>2021-05-22T10:11:54Z</time>
      </trkpt>
      <trkpt lat="42.5484500" lon="-8.6415750">
        <ele>36.4</ele>
        <time>2021-05-22T10:11:55Z</time>
      </trkpt>
      <trkpt lat="42.5484640" lon="-8.6415510">
        <ele>36.3</ele>
        <time>2021-05-22T10:11:56Z</time>
      </trkpt>
      <trkpt lat="42.5484690" lon="-8.6415430">
        <ele>36.3</ele>
        <time>2021-05-22T10:11:57Z</time>
      </trkpt>
      <trkpt lat="42.5484730" lon="-8.6415350">
        <ele>36.3</ele>
        <time>2021-05-22T10:11:58Z</time>
      </trkpt>
      <trkpt lat="42.5484900" lon="-8.6415170">
        <ele>36.3</ele>
        <time>2021-05-22T10:11:59Z</time>
      </trkpt>
      <trkpt lat="42.5484960" lon="-8.6415090">
        <ele>36.3</ele>
        <time>2021-05-22T10:12:00Z</time>
      </trkpt>
      <trkpt lat="42.5485010" lon="-8.6415000">
        <ele>36.3</ele>
        <time>2021-05-22T10:12:01Z</time>
      </trkpt>
      <trkpt lat="42.5485070" lon="-8.6414880">
        <ele>36.3</ele>
        <time>2021-05-22T10:12:02Z</time>
      </trkpt>
      <trkpt lat="42.5485160" lon="-8.6414740">
        <ele>36.3</ele>
        <time>2021-05-22T10:12:03Z</time>
      </trkpt>
      <trkpt lat="42.5485220" lon="-8.6414650">
        <ele>36.3</ele>
        <time>2021-05-22T10:12:04Z</time>
      </trkpt>
      <trkpt lat="42.5485330" lon="-8.6414560">
        <ele>36.3</ele>
        <time>2021-05-22T10:12:05Z</time>
      </trkpt>
      <trkpt lat="42.5485450" lon="-8.6414450">
        <ele>36.3</ele>
        <time>2021-05-22T10:12:06Z</time>
      </trkpt>
      <trkpt lat="42.5485640" lon="-8.6414230">
        <ele>36.3</ele>
        <time>2021-05-22T10:12:07Z</time>
      </trkpt>
      <trkpt lat="42.5485690" lon="-8.6414160">
        <ele>36.2</ele>
        <time>2021-05-22T10:12:08Z</time>
      </trkpt>
      <trkpt lat="42.5485750" lon="-8.6414080">
        <ele>36.2</ele>
        <time>2021-05-22T10:12:09Z</time>
      </trkpt>
      <trkpt lat="42.5485950" lon="-8.6413920">
        <ele>36.2</ele>
        <time>2021-05-22T10:12:10Z</time>
      </trkpt>
      <trkpt lat="42.5486010" lon="-8.6413860">
        <ele>36.2</ele>
        <time>2021-05-22T10:12:11Z</time>
      </trkpt>
      <trkpt lat="42.5486070" lon="-8.6413800">
        <ele>36.2</ele>
        <time>2021-05-22T10:12:12Z</time>
      </trkpt>
      <trkpt lat="42.5486100" lon="-8.6413790">
        <ele>36.2</ele>
        <time>2021-05-22T10:12:13Z</time>
      </trkpt>
      <trkpt lat="42.5486140" lon="-8.6413670">
        <ele>36.2</ele>
        <time>2021-05-22T10:12:14Z</time>
      </trkpt>
      <trkpt lat="42.5486140" lon="-8.6413620">
        <ele>36.2</ele>
        <time>2021-05-22T10:12:15Z</time>
      </trkpt>
      <trkpt lat="42.5486120" lon="-8.6413610">
        <ele>36.2</ele>
        <time>2021-05-22T10:12:16Z</time>
      </trkpt>
      <trkpt lat="42.5486070" lon="-8.6413610">
        <ele>36.2</ele>
        <time>2021-05-22T10:12:17Z</time>
      </trkpt>
      <trkpt lat="42.5486070" lon="-8.6413620">
        <ele>36.2</ele>
        <time>2021-05-22T10:12:18Z</time>
      </trkpt>
      <trkpt lat="42.5486130" lon="-8.6413520">
        <ele>36.2</ele>
        <time>2021-05-22T10:12:19Z</time>
      </trkpt>
      <trkpt lat="42.5486250" lon="-8.6413460">
        <ele>36.2</ele>
        <time>2021-05-22T10:12:20Z</time>
      </trkpt>
      <trkpt lat="42.5486280" lon="-8.6413370">
        <ele>36.2</ele>
        <time>2021-05-22T10:12:21Z</time>
      </trkpt>
      <trkpt lat="42.5486240" lon="-8.6413380">
        <ele>36.2</ele>
        <time>2021-05-22T10:12:22Z</time>
      </trkpt>
      <trkpt lat="42.5486310" lon="-8.6413350">
        <ele>36.2</ele>
        <time>2021-05-22T10:12:23Z</time>
      </trkpt>
      <trkpt lat="42.5486370" lon="-8.6413260">
        <ele>36.2</ele>
        <time>2021-05-22T10:12:24Z</time>
      </trkpt>
      <trkpt lat="42.5486450" lon="-8.6413140">
        <ele>36.2</ele>
        <time>2021-05-22T10:12:25Z</time>
      </trkpt>
      <trkpt lat="42.5486610" lon="-8.6412960">
        <ele>36.2</ele>
        <time>2021-05-22T10:12:26Z</time>
      </trkpt>
      <trkpt lat="42.5486690" lon="-8.6412890">
        <ele>36.2</ele>
        <time>2021-05-22T10:12:27Z</time>
      </trkpt>
      <trkpt lat="42.5486760" lon="-8.6412830">
        <ele>36.2</ele>
        <time>2021-05-22T10:12:28Z</time>
      </trkpt>
      <trkpt lat="42.5486830" lon="-8.6412740">
        <ele>36.2</ele>
        <time>2021-05-22T10:12:29Z</time>
      </trkpt>
      <trkpt lat="42.5486900" lon="-8.6412640">
        <ele>36.2</ele>
        <time>2021-05-22T10:12:30Z</time>
      </trkpt>
      <trkpt lat="42.5486990" lon="-8.6412530">
        <ele>36.2</ele>
        <time>2021-05-22T10:12:31Z</time>
      </trkpt>
      <trkpt lat="42.5487150" lon="-8.6412350">
        <ele>36.2</ele>
        <time>2021-05-22T10:12:32Z</time>
      </trkpt>
      <trkpt lat="42.5487210" lon="-8.6412280">
        <ele>36.2</ele>
        <time>2021-05-22T10:12:33Z</time>
      </trkpt>
      <trkpt lat="42.5487270" lon="-8.6412210">
        <ele>36.2</ele>
        <time>2021-05-22T10:12:34Z</time>
      </trkpt>
      <trkpt lat="42.5487350" lon="-8.6412020">
        <ele>36.2</ele>
        <time>2021-05-22T10:12:35Z</time>
      </trkpt>
      <trkpt lat="42.5487400" lon="-8.6411940">
        <ele>36.2</ele>
        <time>2021-05-22T10:12:36Z</time>
      </trkpt>
      <trkpt lat="42.5487500" lon="-8.6411840">
        <ele>36.2</ele>
        <time>2021-05-22T10:12:37Z</time>
      </trkpt>
      <trkpt lat="42.5487620" lon="-8.6411640">
        <ele>36.2</ele>
        <time>2021-05-22T10:12:38Z</time>
      </trkpt>
      <trkpt lat="42.5487700" lon="-8.6411540">
        <ele>36.2</ele>
        <time>2021-05-22T10:12:39Z</time>
      </trkpt>
      <trkpt lat="42.5487770" lon="-8.6411440">
        <ele>36.2</ele>
        <time>2021-05-22T10:12:40Z</time>
      </trkpt>
      <trkpt lat="42.5487910" lon="-8.6411240">
        <ele>36.2</ele>
        <time>2021-05-22T10:12:41Z</time>
      </trkpt>
      <trkpt lat="42.5487960" lon="-8.6411140">
        <ele>36.2</ele>
        <time>2021-05-22T10:12:42Z</time>
      </trkpt>
      <trkpt lat="42.5488010" lon="-8.6411040">
        <ele>36.2</ele>
        <time>2021-05-22T10:12:43Z</time>
      </trkpt>
      <trkpt lat="42.5488150" lon="-8.6410800">
        <ele>36.2</ele>
        <time>2021-05-22T10:12:44Z</time>
      </trkpt>
      <trkpt lat="42.5488200" lon="-8.6410710">
        <ele>36.2</ele>
        <time>2021-05-22T10:12:45Z</time>
      </trkpt>
      <trkpt lat="42.5488250" lon="-8.6410620">
        <ele>36.2</ele>
        <time>2021-05-22T10:12:46Z</time>
      </trkpt>
      <trkpt lat="42.5488340" lon="-8.6410480">
        <ele>36.2</ele>
        <time>2021-05-22T10:12:47Z</time>
      </trkpt>
      <trkpt lat="42.5488410" lon="-8.6410440">
        <ele>36.2</ele>
        <time>2021-05-22T10:12:48Z</time>
      </trkpt>
      <trkpt lat="42.5488520" lon="-8.6410280">
        <ele>36.2</ele>
        <time>2021-05-22T10:12:49Z</time>
      </trkpt>
      <trkpt lat="42.5488600" lon="-8.6410170">
        <ele>36.2</ele>
        <time>2021-05-22T10:12:50Z</time>
      </trkpt>
      <trkpt lat="42.5488660" lon="-8.6410080">
        <ele>36.2</ele>
        <time>2021-05-22T10:12:51Z</time>
      </trkpt>
      <trkpt lat="42.5488730" lon="-8.6409990">
        <ele>36.2</ele>
        <time>2021-05-22T10:12:52Z</time>
      </trkpt>
      <trkpt lat="42.5488820" lon="-8.6409850">
        <ele>36.2</ele>
        <time>2021-05-22T10:12:53Z</time>
      </trkpt>
      <trkpt lat="42.5488900" lon="-8.6409790">
        <ele>36.2</ele>
        <time>2021-05-22T10:12:54Z</time>
      </trkpt>
      <trkpt lat="42.5489000" lon="-8.6409760">
        <ele>36.2</ele>
        <time>2021-05-22T10:12:55Z</time>
      </trkpt>
      <trkpt lat="42.5489110" lon="-8.6409680">
        <ele>36.2</ele>
        <time>2021-05-22T10:12:56Z</time>
      </trkpt>
      <trkpt lat="42.5489220" lon="-8.6409560">
        <ele>36.2</ele>
        <time>2021-05-22T10:12:57Z</time>
      </trkpt>
      <trkpt lat="42.5489310" lon="-8.6409520">
        <ele>36.2</ele>
        <time>2021-05-22T10:12:58Z</time>
      </trkpt>
      <trkpt lat="42.5489380" lon="-8.6409400">
        <ele>36.2</ele>
        <time>2021-05-22T10:12:59Z</time>
      </trkpt>
      <trkpt lat="42.5489460" lon="-8.6409350">
        <ele>36.2</ele>
        <time>2021-05-22T10:13:00Z</time>
      </trkpt>
      <trkpt lat="42.5489520" lon="-8.6409250">
        <ele>36.2</ele>
        <time>2021-05-22T10:13:01Z</time>
      </trkpt>
      <trkpt lat="42.5489570" lon="-8.6409260">
        <ele>36.2</ele>
        <time>2021-05-22T10:13:02Z</time>
      </trkpt>
      <trkpt lat="42.5489660" lon="-8.6409190">
        <ele>36.2</ele>
        <time>2021-05-22T10:13:03Z</time>
      </trkpt>
      <trkpt lat="42.5489800" lon="-8.6408990">
        <ele>36.2</ele>
        <time>2021-05-22T10:13:04Z</time>
      </trkpt>
      <trkpt lat="42.5489980" lon="-8.6408850">
        <ele>36.2</ele>
        <time>2021-05-22T10:13:05Z</time>
      </trkpt>
      <trkpt lat="42.5490050" lon="-8.6408770">
        <ele>36.2</ele>
        <time>2021-05-22T10:13:06Z</time>
      </trkpt>
      <trkpt lat="42.5490120" lon="-8.6408700">
        <ele>36.2</ele>
        <time>2021-05-22T10:13:07Z</time>
      </trkpt>
      <trkpt lat="42.5490210" lon="-8.6408600">
        <ele>36.2</ele>
        <time>2021-05-22T10:13:08Z</time>
      </trkpt>
      <trkpt lat="42.5490330" lon="-8.6408540">
        <ele>36.2</ele>
        <time>2021-05-22T10:13:09Z</time>
      </trkpt>
      <trkpt lat="42.5490420" lon="-8.6408480">
        <ele>36.2</ele>
        <time>2021-05-22T10:13:10Z</time>
      </trkpt>
      <trkpt lat="42.5490530" lon="-8.6408390">
        <ele>36.3</ele>
        <time>2021-05-22T10:13:11Z</time>
      </trkpt>
      <trkpt lat="42.5490590" lon="-8.6408310">
        <ele>36.3</ele>
        <time>2021-05-22T10:13:12Z</time>
      </trkpt>
      <trkpt lat="42.5490670" lon="-8.6408230">
        <ele>36.3</ele>
        <time>2021-05-22T10:13:13Z</time>
      </trkpt>
      <trkpt lat="42.5490760" lon="-8.6408060">
        <ele>36.3</ele>
        <time>2021-05-22T10:13:14Z</time>
      </trkpt>
      <trkpt lat="42.5490840" lon="-8.6408020">
        <ele>36.3</ele>
        <time>2021-05-22T10:13:15Z</time>
      </trkpt>
      <trkpt lat="42.5490920" lon="-8.6407940">
        <ele>36.3</ele>
        <time>2021-05-22T10:13:16Z</time>
      </trkpt>
      <trkpt lat="42.5491010" lon="-8.6407820">
        <ele>36.3</ele>
        <time>2021-05-22T10:13:17Z</time>
      </trkpt>
      <trkpt lat="42.5491120" lon="-8.6407660">
        <ele>36.3</ele>
        <time>2021-05-22T10:13:18Z</time>
      </trkpt>
      <trkpt lat="42.5491160" lon="-8.6407590">
        <ele>36.3</ele>
        <time>2021-05-22T10:13:19Z</time>
      </trkpt>
      <trkpt lat="42.5491250" lon="-8.6407540">
        <ele>36.4</ele>
        <time>2021-05-22T10:13:20Z</time>
      </trkpt>
      <trkpt lat="42.5491360" lon="-8.6407470">
        <ele>36.4</ele>
        <time>2021-05-22T10:13:21Z</time>
      </trkpt>
      <trkpt lat="42.5491460" lon="-8.6407390">
        <ele>36.4</ele>
        <time>2021-05-22T10:13:22Z</time>
      </trkpt>
      <trkpt lat="42.5491540" lon="-8.6407320">
        <ele>36.4</ele>
        <time>2021-05-22T10:13:23Z</time>
      </trkpt>
      <trkpt lat="42.5491660" lon="-8.6407220">
        <ele>36.4</ele>
        <time>2021-05-22T10:13:24Z</time>
      </trkpt>
      <trkpt lat="42.5491760" lon="-8.6407170">
        <ele>36.4</ele>
        <time>2021-05-22T10:13:25Z</time>
      </trkpt>
      <trkpt lat="42.5491840" lon="-8.6407100">
        <ele>36.4</ele>
        <time>2021-05-22T10:13:26Z</time>
      </trkpt>
      <trkpt lat="42.5491880" lon="-8.6407060">
        <ele>36.4</ele>
        <time>2021-05-22T10:13:27Z</time>
      </trkpt>
      <trkpt lat="42.5491930" lon="-8.6406950">
        <ele>36.5</ele>
        <time>2021-05-22T10:13:28Z</time>
      </trkpt>
      <trkpt lat="42.5491960" lon="-8.6406860">
        <ele>36.5</ele>
        <time>2021-05-22T10:13:29Z</time>
      </trkpt>
      <trkpt lat="42.5492010" lon="-8.6406740">
        <ele>36.5</ele>
        <time>2021-05-22T10:13:30Z</time>
      </trkpt>
      <trkpt lat="42.5492120" lon="-8.6406660">
        <ele>36.5</ele>
        <time>2021-05-22T10:13:31Z</time>
      </trkpt>
      <trkpt lat="42.5492210" lon="-8.6406640">
        <ele>36.5</ele>
        <time>2021-05-22T10:13:32Z</time>
      </trkpt>
      <trkpt lat="42.5492290" lon="-8.6406570">
        <ele>36.5</ele>
        <time>2021-05-22T10:13:33Z</time>
      </trkpt>
      <trkpt lat="42.5492320" lon="-8.6406500">
        <ele>36.5</ele>
        <time>2021-05-22T10:13:34Z</time>
      </trkpt>
      <trkpt lat="42.5492410" lon="-8.6406430">
        <ele>36.5</ele>
        <time>2021-05-22T10:13:35Z</time>
      </trkpt>
      <trkpt lat="42.5492520" lon="-8.6406320">
        <ele>36.6</ele>
        <time>2021-05-22T10:13:36Z</time>
      </trkpt>
      <trkpt lat="42.5492620" lon="-8.6406250">
        <ele>36.6</ele>
        <time>2021-05-22T10:13:37Z</time>
      </trkpt>
      <trkpt lat="42.5492690" lon="-8.6406170">
        <ele>36.6</ele>
        <time>2021-05-22T10:13:38Z</time>
      </trkpt>
      <trkpt lat="42.5492810" lon="-8.6406020">
        <ele>36.6</ele>
        <time>2021-05-22T10:13:39Z</time>
      </trkpt>
      <trkpt lat="42.5492900" lon="-8.6405820">
        <ele>36.6</ele>
        <time>2021-05-22T10:13:40Z</time>
      </trkpt>
      <trkpt lat="42.5493110" lon="-8.6405630">
        <ele>36.7</ele>
        <time>2021-05-22T10:13:41Z</time>
      </trkpt>
      <trkpt lat="42.5493180" lon="-8.6405560">
        <ele>36.7</ele>
        <time>2021-05-22T10:13:42Z</time>
      </trkpt>
      <trkpt lat="42.5493250" lon="-8.6405500">
        <ele>36.7</ele>
        <time>2021-05-22T10:13:43Z</time>
      </trkpt>
      <trkpt lat="42.5493350" lon="-8.6405280">
        <ele>36.7</ele>
        <time>2021-05-22T10:13:44Z</time>
      </trkpt>
      <trkpt lat="42.5493400" lon="-8.6405180">
        <ele>36.7</ele>
        <time>2021-05-22T10:13:45Z</time>
      </trkpt>
      <trkpt lat="42.5493460" lon="-8.6405090">
        <ele>36.8</ele>
        <time>2021-05-22T10:13:46Z</time>
      </trkpt>
      <trkpt lat="42.5493560" lon="-8.6405040">
        <ele>36.8</ele>
        <time>2021-05-22T10:13:47Z</time>
      </trkpt>
      <trkpt lat="42.5493600" lon="-8.6404890">
        <ele>36.8</ele>
        <time>2021-05-22T10:13:48Z</time>
      </trkpt>
      <trkpt lat="42.5493690" lon="-8.6404750">
        <ele>36.8</ele>
        <time>2021-05-22T10:13:49Z</time>
      </trkpt>
      <trkpt lat="42.5493820" lon="-8.6404620">
        <ele>36.8</ele>
        <time>2021-05-22T10:13:50Z</time>
      </trkpt>
      <trkpt lat="42.5493890" lon="-8.6404450">
        <ele>36.9</ele>
        <time>2021-05-22T10:13:51Z</time>
      </trkpt>
      <trkpt lat="42.5494030" lon="-8.6404250">
        <ele>36.9</ele>
        <time>2021-05-22T10:13:52Z</time>
      </trkpt>
      <trkpt lat="42.5494090" lon="-8.6404150">
        <ele>36.9</ele>
        <time>2021-05-22T10:13:53Z</time>
      </trkpt>
      <trkpt lat="42.5494150" lon="-8.6404060">
        <ele>36.9</ele>
        <time>2021-05-22T10:13:54Z</time>
      </trkpt>
      <trkpt lat="42.5494300" lon="-8.6403870">
        <ele>37.0</ele>
        <time>2021-05-22T10:13:55Z</time>
      </trkpt>
      <trkpt lat="42.5494370" lon="-8.6403760">
        <ele>37.0</ele>
        <time>2021-05-22T10:13:56Z</time>
      </trkpt>
      <trkpt lat="42.5494430" lon="-8.6403660">
        <ele>37.0</ele>
        <time>2021-05-22T10:13:57Z</time>
      </trkpt>
      <trkpt lat="42.5494510" lon="-8.6403540">
        <ele>37.0</ele>
        <time>2021-05-22T10:13:58Z</time>
      </trkpt>
      <trkpt lat="42.5494570" lon="-8.6403340">
        <ele>37.1</ele>
        <time>2021-05-22T10:13:59Z</time>
      </trkpt>
      <trkpt lat="42.5494640" lon="-8.6403180">
        <ele>37.1</ele>
        <time>2021-05-22T10:14:00Z</time>
      </trkpt>
      <trkpt lat="42.5494660" lon="-8.6403090">
        <ele>37.1</ele>
        <time>2021-05-22T10:14:01Z</time>
      </trkpt>
      <trkpt lat="42.5494700" lon="-8.6402940">
        <ele>37.1</ele>
        <time>2021-05-22T10:14:02Z</time>
      </trkpt>
      <trkpt lat="42.5494830" lon="-8.6402570">
        <ele>37.1</ele>
        <time>2021-05-22T10:14:03Z</time>
      </trkpt>
      <trkpt lat="42.5494860" lon="-8.6402400">
        <ele>37.1</ele>
        <time>2021-05-22T10:14:04Z</time>
      </trkpt>
      <trkpt lat="42.5494890" lon="-8.6402290">
        <ele>37.1</ele>
        <time>2021-05-22T10:14:05Z</time>
      </trkpt>
      <trkpt lat="42.5494920" lon="-8.6402100">
        <ele>37.1</ele>
        <time>2021-05-22T10:14:06Z</time>
      </trkpt>
      <trkpt lat="42.5494920" lon="-8.6401970">
        <ele>37.1</ele>
        <time>2021-05-22T10:14:07Z</time>
      </trkpt>
      <trkpt lat="42.5494940" lon="-8.6401790">
        <ele>37.1</ele>
        <time>2021-05-22T10:14:08Z</time>
      </trkpt>
      <trkpt lat="42.5494940" lon="-8.6401680">
        <ele>37.1</ele>
        <time>2021-05-22T10:14:09Z</time>
      </trkpt>
      <trkpt lat="42.5494910" lon="-8.6401380">
        <ele>37.2</ele>
        <time>2021-05-22T10:14:10Z</time>
      </trkpt>
      <trkpt lat="42.5494870" lon="-8.6401250">
        <ele>37.2</ele>
        <time>2021-05-22T10:14:11Z</time>
      </trkpt>
      <trkpt lat="42.5494830" lon="-8.6401110">
        <ele>37.2</ele>
        <time>2021-05-22T10:14:12Z</time>
      </trkpt>
      <trkpt lat="42.5494800" lon="-8.6400840">
        <ele>37.2</ele>
        <time>2021-05-22T10:14:13Z</time>
      </trkpt>
      <trkpt lat="42.5494790" lon="-8.6400720">
        <ele>37.2</ele>
        <time>2021-05-22T10:14:14Z</time>
      </trkpt>
      <trkpt lat="42.5494790" lon="-8.6400610">
        <ele>37.2</ele>
        <time>2021-05-22T10:14:15Z</time>
      </trkpt>
      <trkpt lat="42.5494760" lon="-8.6400330">
        <ele>37.2</ele>
        <time>2021-05-22T10:14:16Z</time>
      </trkpt>
      <trkpt lat="42.5494750" lon="-8.6400210">
        <ele>37.2</ele>
        <time>2021-05-22T10:14:17Z</time>
      </trkpt>
      <trkpt lat="42.5494730" lon="-8.6400100">
        <ele>37.2</ele>
        <time>2021-05-22T10:14:18Z</time>
      </trkpt>
      <trkpt lat="42.5494700" lon="-8.6399810">
        <ele>37.2</ele>
        <time>2021-05-22T10:14:19Z</time>
      </trkpt>
      <trkpt lat="42.5494700" lon="-8.6399680">
        <ele>37.2</ele>
        <time>2021-05-22T10:14:20Z</time>
      </trkpt>
      <trkpt lat="42.5494690" lon="-8.6399560">
        <ele>37.2</ele>
        <time>2021-05-22T10:14:21Z</time>
      </trkpt>
      <trkpt lat="42.5494620" lon="-8.6399280">
        <ele>37.2</ele>
        <time>2021-05-22T10:14:22Z</time>
      </trkpt>
      <trkpt lat="42.5494600" lon="-8.6399160">
        <ele>37.2</ele>
        <time>2021-05-22T10:14:23Z</time>
      </trkpt>
      <trkpt lat="42.5494590" lon="-8.6399030">
        <ele>37.2</ele>
        <time>2021-05-22T10:14:24Z</time>
      </trkpt>
      <trkpt lat="42.5494570" lon="-8.6398740">
        <ele>37.2</ele>
        <time>2021-05-22T10:14:25Z</time>
      </trkpt>
      <trkpt lat="42.5494550" lon="-8.6398620">
        <ele>37.2</ele>
        <time>2021-05-22T10:14:26Z</time>
      </trkpt>
      <trkpt lat="42.5494520" lon="-8.6398510">
        <ele>37.2</ele>
        <time>2021-05-22T10:14:27Z</time>
      </trkpt>
      <trkpt lat="42.5494530" lon="-8.6398330">
        <ele>37.2</ele>
        <time>2021-05-22T10:14:28Z</time>
      </trkpt>
      <trkpt lat="42.5494510" lon="-8.6398290">
        <ele>37.2</ele>
        <time>2021-05-22T10:14:29Z</time>
      </trkpt>
      <trkpt lat="42.5494480" lon="-8.6398130">
        <ele>37.2</ele>
        <time>2021-05-22T10:14:30Z</time>
      </trkpt>
      <trkpt lat="42.5494470" lon="-8.6397960">
        <ele>37.2</ele>
        <time>2021-05-22T10:14:31Z</time>
      </trkpt>
      <trkpt lat="42.5494470" lon="-8.6397720">
        <ele>37.2</ele>
        <time>2021-05-22T10:14:32Z</time>
      </trkpt>
      <trkpt lat="42.5494460" lon="-8.6397570">
        <ele>37.2</ele>
        <time>2021-05-22T10:14:33Z</time>
      </trkpt>
      <trkpt lat="42.5494410" lon="-8.6397450">
        <ele>37.3</ele>
        <time>2021-05-22T10:14:34Z</time>
      </trkpt>
      <trkpt lat="42.5494400" lon="-8.6397250">
        <ele>37.3</ele>
        <time>2021-05-22T10:14:35Z</time>
      </trkpt>
      <trkpt lat="42.5494330" lon="-8.6396980">
        <ele>37.3</ele>
        <time>2021-05-22T10:14:36Z</time>
      </trkpt>
      <trkpt lat="42.5494310" lon="-8.6396880">
        <ele>37.3</ele>
        <time>2021-05-22T10:14:37Z</time>
      </trkpt>
      <trkpt lat="42.5494290" lon="-8.6396770">
        <ele>37.3</ele>
        <time>2021-05-22T10:14:38Z</time>
      </trkpt>
      <trkpt lat="42.5494270" lon="-8.6396660">
        <ele>37.3</ele>
        <time>2021-05-22T10:14:39Z</time>
      </trkpt>
      <trkpt lat="42.5494240" lon="-8.6396530">
        <ele>37.3</ele>
        <time>2021-05-22T10:14:40Z</time>
      </trkpt>
      <trkpt lat="42.5494230" lon="-8.6396370">
        <ele>37.3</ele>
        <time>2021-05-22T10:14:41Z</time>
      </trkpt>
      <trkpt lat="42.5494200" lon="-8.6396080">
        <ele>37.3</ele>
        <time>2021-05-22T10:14:42Z</time>
      </trkpt>
      <trkpt lat="42.5494190" lon="-8.6395980">
        <ele>37.3</ele>
        <time>2021-05-22T10:14:43Z</time>
      </trkpt>
      <trkpt lat="42.5494190" lon="-8.6395870">
        <ele>37.3</ele>
        <time>2021-05-22T10:14:44Z</time>
      </trkpt>
      <trkpt lat="42.5494230" lon="-8.6395730">
        <ele>37.3</ele>
        <time>2021-05-22T10:14:45Z</time>
      </trkpt>
      <trkpt lat="42.5494360" lon="-8.6395650">
        <ele>37.3</ele>
        <time>2021-05-22T10:14:46Z</time>
      </trkpt>
      <trkpt lat="42.5494400" lon="-8.6395630">
        <ele>37.3</ele>
        <time>2021-05-22T10:14:47Z</time>
      </trkpt>
      <trkpt lat="42.5494380" lon="-8.6395630">
        <ele>37.3</ele>
        <time>2021-05-22T10:14:48Z</time>
      </trkpt>
      <trkpt lat="42.5494350" lon="-8.6395610">
        <ele>37.3</ele>
        <time>2021-05-22T10:14:49Z</time>
      </trkpt>
      <trkpt lat="42.5494360" lon="-8.6395610">
        <ele>37.3</ele>
        <time>2021-05-22T10:14:50Z</time>
      </trkpt>
      <trkpt lat="42.5494410" lon="-8.6395550">
        <ele>37.2</ele>
        <time>2021-05-22T10:14:51Z</time>
      </trkpt>
      <trkpt lat="42.5494490" lon="-8.6395490">
        <ele>37.2</ele>
        <time>2021-05-22T10:14:52Z</time>
      </trkpt>
      <trkpt lat="42.5494640" lon="-8.6395370">
        <ele>37.2</ele>
        <time>2021-05-22T10:14:53Z</time>
      </trkpt>
      <trkpt lat="42.5494770" lon="-8.6395330">
        <ele>37.2</ele>
        <time>2021-05-22T10:14:54Z</time>
      </trkpt>
      <trkpt lat="42.5494840" lon="-8.6395280">
        <ele>37.2</ele>
        <time>2021-05-22T10:14:55Z</time>
      </trkpt>
      <trkpt lat="42.5494940" lon="-8.6395220">
        <ele>37.2</ele>
        <time>2021-05-22T10:14:56Z</time>
      </trkpt>
      <trkpt lat="42.5495140" lon="-8.6395140">
        <ele>37.1</ele>
        <time>2021-05-22T10:14:57Z</time>
      </trkpt>
      <trkpt lat="42.5495220" lon="-8.6395110">
        <ele>37.1</ele>
        <time>2021-05-22T10:14:58Z</time>
      </trkpt>
      <trkpt lat="42.5495300" lon="-8.6395080">
        <ele>37.1</ele>
        <time>2021-05-22T10:14:59Z</time>
      </trkpt>
      <trkpt lat="42.5495400" lon="-8.6395040">
        <ele>37.1</ele>
        <time>2021-05-22T10:15:00Z</time>
      </trkpt>
      <trkpt lat="42.5495500" lon="-8.6394990">
        <ele>37.1</ele>
        <time>2021-05-22T10:15:01Z</time>
      </trkpt>
      <trkpt lat="42.5495610" lon="-8.6394880">
        <ele>37.1</ele>
        <time>2021-05-22T10:15:02Z</time>
      </trkpt>
      <trkpt lat="42.5495820" lon="-8.6394790">
        <ele>37.1</ele>
        <time>2021-05-22T10:15:03Z</time>
      </trkpt>
      <trkpt lat="42.5495900" lon="-8.6394780">
        <ele>37.0</ele>
        <time>2021-05-22T10:15:04Z</time>
      </trkpt>
      <trkpt lat="42.5495990" lon="-8.6394760">
        <ele>37.0</ele>
        <time>2021-05-22T10:15:05Z</time>
      </trkpt>
      <trkpt lat="42.5496080" lon="-8.6394680">
        <ele>37.0</ele>
        <time>2021-05-22T10:15:06Z</time>
      </trkpt>
      <trkpt lat="42.5496200" lon="-8.6394630">
        <ele>37.0</ele>
        <time>2021-05-22T10:15:07Z</time>
      </trkpt>
      <trkpt lat="42.5496300" lon="-8.6394580">
        <ele>37.0</ele>
        <time>2021-05-22T10:15:08Z</time>
      </trkpt>
      <trkpt lat="42.5496430" lon="-8.6394480">
        <ele>37.0</ele>
        <time>2021-05-22T10:15:09Z</time>
      </trkpt>
      <trkpt lat="42.5496560" lon="-8.6394420">
        <ele>37.0</ele>
        <time>2021-05-22T10:15:10Z</time>
      </trkpt>
      <trkpt lat="42.5496690" lon="-8.6394350">
        <ele>36.9</ele>
        <time>2021-05-22T10:15:11Z</time>
      </trkpt>
      <trkpt lat="42.5496810" lon="-8.6394270">
        <ele>36.9</ele>
        <time>2021-05-22T10:15:12Z</time>
      </trkpt>
      <trkpt lat="42.5496880" lon="-8.6394230">
        <ele>36.9</ele>
        <time>2021-05-22T10:15:13Z</time>
      </trkpt>
      <trkpt lat="42.5497030" lon="-8.6394170">
        <ele>36.9</ele>
        <time>2021-05-22T10:15:14Z</time>
      </trkpt>
      <trkpt lat="42.5497160" lon="-8.6394190">
        <ele>36.9</ele>
        <time>2021-05-22T10:15:15Z</time>
      </trkpt>
      <trkpt lat="42.5497290" lon="-8.6394110">
        <ele>36.9</ele>
        <time>2021-05-22T10:15:16Z</time>
      </trkpt>
      <trkpt lat="42.5497420" lon="-8.6394050">
        <ele>36.9</ele>
        <time>2021-05-22T10:15:17Z</time>
      </trkpt>
      <trkpt lat="42.5497480" lon="-8.6393970">
        <ele>36.8</ele>
        <time>2021-05-22T10:15:18Z</time>
      </trkpt>
      <trkpt lat="42.5497590" lon="-8.6393900">
        <ele>36.8</ele>
        <time>2021-05-22T10:15:19Z</time>
      </trkpt>
      <trkpt lat="42.5497650" lon="-8.6393850">
        <ele>36.8</ele>
        <time>2021-05-22T10:15:20Z</time>
      </trkpt>
      <trkpt lat="42.5497770" lon="-8.6393830">
        <ele>36.8</ele>
        <time>2021-05-22T10:15:21Z</time>
      </trkpt>
      <trkpt lat="42.5497890" lon="-8.6393810">
        <ele>36.8</ele>
        <time>2021-05-22T10:15:22Z</time>
      </trkpt>
      <trkpt lat="42.5497950" lon="-8.6393750">
        <ele>36.8</ele>
        <time>2021-05-22T10:15:23Z</time>
      </trkpt>
      <trkpt lat="42.5498180" lon="-8.6393670">
        <ele>36.8</ele>
        <time>2021-05-22T10:15:24Z</time>
      </trkpt>
      <trkpt lat="42.5498260" lon="-8.6393660">
        <ele>36.8</ele>
        <time>2021-05-22T10:15:25Z</time>
      </trkpt>
      <trkpt lat="42.5498340" lon="-8.6393640">
        <ele>36.8</ele>
        <time>2021-05-22T10:15:26Z</time>
      </trkpt>
      <trkpt lat="42.5498460" lon="-8.6393640">
        <ele>36.7</ele>
        <time>2021-05-22T10:15:27Z</time>
      </trkpt>
      <trkpt lat="42.5498550" lon="-8.6393570">
        <ele>36.7</ele>
        <time>2021-05-22T10:15:28Z</time>
      </trkpt>
      <trkpt lat="42.5498670" lon="-8.6393590">
        <ele>36.7</ele>
        <time>2021-05-22T10:15:29Z</time>
      </trkpt>
      <trkpt lat="42.5498860" lon="-8.6393510">
        <ele>36.7</ele>
        <time>2021-05-22T10:15:30Z</time>
      </trkpt>
      <trkpt lat="42.5498940" lon="-8.6393460">
        <ele>36.7</ele>
        <time>2021-05-22T10:15:31Z</time>
      </trkpt>
      <trkpt lat="42.5499030" lon="-8.6393420">
        <ele>36.7</ele>
        <time>2021-05-22T10:15:32Z</time>
      </trkpt>
      <trkpt lat="42.5499100" lon="-8.6393370">
        <ele>36.7</ele>
        <time>2021-05-22T10:15:33Z</time>
      </trkpt>
      <trkpt lat="42.5499230" lon="-8.6393290">
        <ele>36.7</ele>
        <time>2021-05-22T10:15:34Z</time>
      </trkpt>
      <trkpt lat="42.5499350" lon="-8.6393180">
        <ele>36.7</ele>
        <time>2021-05-22T10:15:35Z</time>
      </trkpt>
      <trkpt lat="42.5499510" lon="-8.6393060">
        <ele>36.6</ele>
        <time>2021-05-22T10:15:36Z</time>
      </trkpt>
      <trkpt lat="42.5499600" lon="-8.6392930">
        <ele>36.6</ele>
        <time>2021-05-22T10:15:37Z</time>
      </trkpt>
      <trkpt lat="42.5499820" lon="-8.6392840">
        <ele>36.6</ele>
        <time>2021-05-22T10:15:38Z</time>
      </trkpt>
      <trkpt lat="42.5499890" lon="-8.6392830">
        <ele>36.6</ele>
        <time>2021-05-22T10:15:39Z</time>
      </trkpt>
      <trkpt lat="42.5499970" lon="-8.6392810">
        <ele>36.6</ele>
        <time>2021-05-22T10:15:40Z</time>
      </trkpt>
      <trkpt lat="42.5500180" lon="-8.6392830">
        <ele>36.6</ele>
        <time>2021-05-22T10:15:41Z</time>
      </trkpt>
      <trkpt lat="42.5500280" lon="-8.6392830">
        <ele>36.5</ele>
        <time>2021-05-22T10:15:42Z</time>
      </trkpt>
      <trkpt lat="42.5500370" lon="-8.6392820">
        <ele>36.5</ele>
        <time>2021-05-22T10:15:43Z</time>
      </trkpt>
      <trkpt lat="42.5500440" lon="-8.6392840">
        <ele>36.5</ele>
        <time>2021-05-22T10:15:44Z</time>
      </trkpt>
      <trkpt lat="42.5500520" lon="-8.6392810">
        <ele>36.5</ele>
        <time>2021-05-22T10:15:45Z</time>
      </trkpt>
      <trkpt lat="42.5500640" lon="-8.6392790">
        <ele>36.5</ele>
        <time>2021-05-22T10:15:46Z</time>
      </trkpt>
      <trkpt lat="42.5500760" lon="-8.6392760">
        <ele>36.5</ele>
        <time>2021-05-22T10:15:47Z</time>
      </trkpt>
      <trkpt lat="42.5500880" lon="-8.6392780">
        <ele>36.5</ele>
        <time>2021-05-22T10:15:48Z</time>
      </trkpt>
      <trkpt lat="42.5500980" lon="-8.6392850">
        <ele>36.5</ele>
        <time>2021-05-22T10:15:49Z</time>
      </trkpt>
      <trkpt lat="42.5501200" lon="-8.6392770">
        <ele>36.4</ele>
        <time>2021-05-22T10:15:50Z</time>
      </trkpt>
      <trkpt lat="42.5501280" lon="-8.6392730">
        <ele>36.4</ele>
        <time>2021-05-22T10:15:51Z</time>
      </trkpt>
      <trkpt lat="42.5501360" lon="-8.6392690">
        <ele>36.4</ele>
        <time>2021-05-22T10:15:52Z</time>
      </trkpt>
      <trkpt lat="42.5501430" lon="-8.6392670">
        <ele>36.4</ele>
        <time>2021-05-22T10:15:53Z</time>
      </trkpt>
      <trkpt lat="42.5501550" lon="-8.6392650">
        <ele>36.4</ele>
        <time>2021-05-22T10:15:54Z</time>
      </trkpt>
      <trkpt lat="42.5501660" lon="-8.6392640">
        <ele>36.4</ele>
        <time>2021-05-22T10:15:55Z</time>
      </trkpt>
      <trkpt lat="42.5501670" lon="-8.6392610">
        <ele>36.4</ele>
        <time>2021-05-22T10:15:56Z</time>
      </trkpt>
      <trkpt lat="42.5501690" lon="-8.6392640">
        <ele>36.4</ele>
        <time>2021-05-22T10:15:57Z</time>
      </trkpt>
      <trkpt lat="42.5501780" lon="-8.6392620">
        <ele>36.4</ele>
        <time>2021-05-22T10:15:58Z</time>
      </trkpt>
      <trkpt lat="42.5501930" lon="-8.6392470">
        <ele>36.4</ele>
        <time>2021-05-22T10:15:59Z</time>
      </trkpt>
      <trkpt lat="42.5502060" lon="-8.6392370">
        <ele>36.4</ele>
        <time>2021-05-22T10:16:00Z</time>
      </trkpt>
      <trkpt lat="42.5502220" lon="-8.6392300">
        <ele>36.4</ele>
        <time>2021-05-22T10:16:01Z</time>
      </trkpt>
      <trkpt lat="42.5502390" lon="-8.6392320">
        <ele>36.3</ele>
        <time>2021-05-22T10:16:02Z</time>
      </trkpt>
      <trkpt lat="42.5502530" lon="-8.6392200">
        <ele>36.3</ele>
        <time>2021-05-22T10:16:03Z</time>
      </trkpt>
      <trkpt lat="42.5502650" lon="-8.6392160">
        <ele>36.3</ele>
        <time>2021-05-22T10:16:04Z</time>
      </trkpt>
      <trkpt lat="42.5502800" lon="-8.6392130">
        <ele>36.3</ele>
        <time>2021-05-22T10:16:05Z</time>
      </trkpt>
      <trkpt lat="42.5502950" lon="-8.6392070">
        <ele>36.3</ele>
        <time>2021-05-22T10:16:06Z</time>
      </trkpt>
      <trkpt lat="42.5503020" lon="-8.6392090">
        <ele>36.3</ele>
        <time>2021-05-22T10:16:07Z</time>
      </trkpt>
      <trkpt lat="42.5503020" lon="-8.6392110">
        <ele>36.3</ele>
        <time>2021-05-22T10:16:08Z</time>
      </trkpt>
      <trkpt lat="42.5503120" lon="-8.6392090">
        <ele>36.3</ele>
        <time>2021-05-22T10:16:09Z</time>
      </trkpt>
      <trkpt lat="42.5503230" lon="-8.6392130">
        <ele>36.3</ele>
        <time>2021-05-22T10:16:10Z</time>
      </trkpt>
      <trkpt lat="42.5503340" lon="-8.6392080">
        <ele>36.3</ele>
        <time>2021-05-22T10:16:11Z</time>
      </trkpt>
      <trkpt lat="42.5503450" lon="-8.6391990">
        <ele>36.3</ele>
        <time>2021-05-22T10:16:12Z</time>
      </trkpt>
      <trkpt lat="42.5503680" lon="-8.6391900">
        <ele>36.3</ele>
        <time>2021-05-22T10:16:13Z</time>
      </trkpt>
      <trkpt lat="42.5503750" lon="-8.6391860">
        <ele>36.3</ele>
        <time>2021-05-22T10:16:14Z</time>
      </trkpt>
      <trkpt lat="42.5503830" lon="-8.6391830">
        <ele>36.3</ele>
        <time>2021-05-22T10:16:15Z</time>
      </trkpt>
      <trkpt lat="42.5504020" lon="-8.6391740">
        <ele>36.2</ele>
        <time>2021-05-22T10:16:16Z</time>
      </trkpt>
      <trkpt lat="42.5504100" lon="-8.6391710">
        <ele>36.2</ele>
        <time>2021-05-22T10:16:17Z</time>
      </trkpt>
      <trkpt lat="42.5504190" lon="-8.6391670">
        <ele>36.2</ele>
        <time>2021-05-22T10:16:18Z</time>
      </trkpt>
      <trkpt lat="42.5504260" lon="-8.6391670">
        <ele>36.2</ele>
        <time>2021-05-22T10:16:19Z</time>
      </trkpt>
      <trkpt lat="42.5504310" lon="-8.6391640">
        <ele>36.2</ele>
        <time>2021-05-22T10:16:20Z</time>
      </trkpt>
      <trkpt lat="42.5504460" lon="-8.6391590">
        <ele>36.2</ele>
        <time>2021-05-22T10:16:21Z</time>
      </trkpt>
      <trkpt lat="42.5504700" lon="-8.6391510">
        <ele>36.2</ele>
        <time>2021-05-22T10:16:22Z</time>
      </trkpt>
      <trkpt lat="42.5504800" lon="-8.6391470">
        <ele>36.2</ele>
        <time>2021-05-22T10:16:23Z</time>
      </trkpt>
      <trkpt lat="42.5504890" lon="-8.6391440">
        <ele>36.2</ele>
        <time>2021-05-22T10:16:24Z</time>
      </trkpt>
      <trkpt lat="42.5504970" lon="-8.6391400">
        <ele>36.2</ele>
        <time>2021-05-22T10:16:25Z</time>
      </trkpt>
      <trkpt lat="42.5505080" lon="-8.6391370">
        <ele>36.2</ele>
        <time>2021-05-22T10:16:26Z</time>
      </trkpt>
      <trkpt lat="42.5505160" lon="-8.6391360">
        <ele>36.2</ele>
        <time>2021-05-22T10:16:27Z</time>
      </trkpt>
      <trkpt lat="42.5505380" lon="-8.6391320">
        <ele>36.2</ele>
        <time>2021-05-22T10:16:28Z</time>
      </trkpt>
      <trkpt lat="42.5505450" lon="-8.6391280">
        <ele>36.2</ele>
        <time>2021-05-22T10:16:29Z</time>
      </trkpt>
      <trkpt lat="42.5505520" lon="-8.6391250">
        <ele>36.2</ele>
        <time>2021-05-22T10:16:30Z</time>
      </trkpt>
      <trkpt lat="42.5505740" lon="-8.6391170">
        <ele>36.2</ele>
        <time>2021-05-22T10:16:31Z</time>
      </trkpt>
      <trkpt lat="42.5505820" lon="-8.6391160">
        <ele>36.2</ele>
        <time>2021-05-22T10:16:32Z</time>
      </trkpt>
      <trkpt lat="42.5505950" lon="-8.6391210">
        <ele>36.2</ele>
        <time>2021-05-22T10:16:33Z</time>
      </trkpt>
      <trkpt lat="42.5506030" lon="-8.6391230">
        <ele>36.1</ele>
        <time>2021-05-22T10:16:34Z</time>
      </trkpt>
      <trkpt lat="42.5506100" lon="-8.6391250">
        <ele>36.1</ele>
        <time>2021-05-22T10:16:35Z</time>
      </trkpt>
      <trkpt lat="42.5506180" lon="-8.6391270">
        <ele>36.1</ele>
        <time>2021-05-22T10:16:36Z</time>
      </trkpt>
      <trkpt lat="42.5506270" lon="-8.6391240">
        <ele>36.1</ele>
        <time>2021-05-22T10:16:37Z</time>
      </trkpt>
      <trkpt lat="42.5506320" lon="-8.6391230">
        <ele>36.1</ele>
        <time>2021-05-22T10:16:38Z</time>
      </trkpt>
      <trkpt lat="42.5506460" lon="-8.6391200">
        <ele>36.1</ele>
        <time>2021-05-22T10:16:39Z</time>
      </trkpt>
      <trkpt lat="42.5506600" lon="-8.6391170">
        <ele>36.1</ele>
        <time>2021-05-22T10:16:40Z</time>
      </trkpt>
      <trkpt lat="42.5506710" lon="-8.6391190">
        <ele>36.1</ele>
        <time>2021-05-22T10:16:41Z</time>
      </trkpt>
      <trkpt lat="42.5506790" lon="-8.6391210">
        <ele>36.1</ele>
        <time>2021-05-22T10:16:42Z</time>
      </trkpt>
      <trkpt lat="42.5507070" lon="-8.6391100">
        <ele>36.1</ele>
        <time>2021-05-22T10:16:43Z</time>
      </trkpt>
      <trkpt lat="42.5507180" lon="-8.6391060">
        <ele>36.1</ele>
        <time>2021-05-22T10:16:44Z</time>
      </trkpt>
      <trkpt lat="42.5507270" lon="-8.6391100">
        <ele>36.0</ele>
        <time>2021-05-22T10:16:45Z</time>
      </trkpt>
      <trkpt lat="42.5507130" lon="-8.6391090">
        <ele>36.0</ele>
        <time>2021-05-22T10:16:46Z</time>
      </trkpt>
      <trkpt lat="42.5507110" lon="-8.6391150">
        <ele>36.0</ele>
        <time>2021-05-22T10:16:47Z</time>
      </trkpt>
      <trkpt lat="42.5507090" lon="-8.6391280">
        <ele>36.0</ele>
        <time>2021-05-22T10:16:48Z</time>
      </trkpt>
      <trkpt lat="42.5507110" lon="-8.6391360">
        <ele>36.0</ele>
        <time>2021-05-22T10:16:49Z</time>
      </trkpt>
      <trkpt lat="42.5507100" lon="-8.6391320">
        <ele>36.0</ele>
        <time>2021-05-22T10:16:50Z</time>
      </trkpt>
      <trkpt lat="42.5507090" lon="-8.6391350">
        <ele>36.0</ele>
        <time>2021-05-22T10:16:51Z</time>
      </trkpt>
      <trkpt lat="42.5507100" lon="-8.6391280">
        <ele>36.0</ele>
        <time>2021-05-22T10:16:52Z</time>
      </trkpt>
      <trkpt lat="42.5507090" lon="-8.6391250">
        <ele>36.0</ele>
        <time>2021-05-22T10:16:53Z</time>
      </trkpt>
      <trkpt lat="42.5507130" lon="-8.6391310">
        <ele>36.0</ele>
        <time>2021-05-22T10:16:54Z</time>
      </trkpt>
      <trkpt lat="42.5507170" lon="-8.6391250">
        <ele>36.0</ele>
        <time>2021-05-22T10:16:55Z</time>
      </trkpt>
      <trkpt lat="42.5507160" lon="-8.6391230">
        <ele>36.0</ele>
        <time>2021-05-22T10:16:56Z</time>
      </trkpt>
      <trkpt lat="42.5507160" lon="-8.6391240">
        <ele>36.0</ele>
        <time>2021-05-22T10:16:57Z</time>
      </trkpt>
      <trkpt lat="42.5507260" lon="-8.6391100">
        <ele>36.0</ele>
        <time>2021-05-22T10:16:58Z</time>
      </trkpt>
      <trkpt lat="42.5507320" lon="-8.6390940">
        <ele>36.0</ele>
        <time>2021-05-22T10:16:59Z</time>
      </trkpt>
      <trkpt lat="42.5507450" lon="-8.6390970">
        <ele>36.0</ele>
        <time>2021-05-22T10:17:00Z</time>
      </trkpt>
      <trkpt lat="42.5507610" lon="-8.6390980">
        <ele>35.9</ele>
        <time>2021-05-22T10:17:01Z</time>
      </trkpt>
      <trkpt lat="42.5507680" lon="-8.6390990">
        <ele>35.9</ele>
        <time>2021-05-22T10:17:02Z</time>
      </trkpt>
      <trkpt lat="42.5507780" lon="-8.6390920">
        <ele>35.9</ele>
        <time>2021-05-22T10:17:03Z</time>
      </trkpt>
      <trkpt lat="42.5508010" lon="-8.6390820">
        <ele>35.9</ele>
        <time>2021-05-22T10:17:04Z</time>
      </trkpt>
      <trkpt lat="42.5508070" lon="-8.6390770">
        <ele>35.9</ele>
        <time>2021-05-22T10:17:05Z</time>
      </trkpt>
      <trkpt lat="42.5508130" lon="-8.6390730">
        <ele>35.9</ele>
        <time>2021-05-22T10:17:06Z</time>
      </trkpt>
      <trkpt lat="42.5508370" lon="-8.6390550">
        <ele>35.9</ele>
        <time>2021-05-22T10:17:07Z</time>
      </trkpt>
      <trkpt lat="42.5508460" lon="-8.6390470">
        <ele>35.9</ele>
        <time>2021-05-22T10:17:08Z</time>
      </trkpt>
      <trkpt lat="42.5508620" lon="-8.6390470">
        <ele>35.9</ele>
        <time>2021-05-22T10:17:09Z</time>
      </trkpt>
      <trkpt lat="42.5508760" lon="-8.6390410">
        <ele>35.8</ele>
        <time>2021-05-22T10:17:10Z</time>
      </trkpt>
      <trkpt lat="42.5508960" lon="-8.6390410">
        <ele>35.8</ele>
        <time>2021-05-22T10:17:11Z</time>
      </trkpt>
      <trkpt lat="42.5509050" lon="-8.6390390">
        <ele>35.8</ele>
        <time>2021-05-22T10:17:12Z</time>
      </trkpt>
      <trkpt lat="42.5509140" lon="-8.6390380">
        <ele>35.8</ele>
        <time>2021-05-22T10:17:13Z</time>
      </trkpt>
      <trkpt lat="42.5509250" lon="-8.6390280">
        <ele>35.8</ele>
        <time>2021-05-22T10:17:14Z</time>
      </trkpt>
      <trkpt lat="42.5509360" lon="-8.6390280">
        <ele>35.8</ele>
        <time>2021-05-22T10:17:15Z</time>
      </trkpt>
      <trkpt lat="42.5509490" lon="-8.6390240">
        <ele>35.8</ele>
        <time>2021-05-22T10:17:16Z</time>
      </trkpt>
      <trkpt lat="42.5509800" lon="-8.6390110">
        <ele>35.8</ele>
        <time>2021-05-22T10:17:17Z</time>
      </trkpt>
      <trkpt lat="42.5509870" lon="-8.6390070">
        <ele>35.8</ele>
        <time>2021-05-22T10:17:18Z</time>
      </trkpt>
      <trkpt lat="42.5509940" lon="-8.6390030">
        <ele>35.7</ele>
        <time>2021-05-22T10:17:19Z</time>
      </trkpt>
      <trkpt lat="42.5510070" lon="-8.6390010">
        <ele>35.7</ele>
        <time>2021-05-22T10:17:20Z</time>
      </trkpt>
      <trkpt lat="42.5510150" lon="-8.6389990">
        <ele>35.7</ele>
        <time>2021-05-22T10:17:21Z</time>
      </trkpt>
      <trkpt lat="42.5510220" lon="-8.6389980">
        <ele>35.7</ele>
        <time>2021-05-22T10:17:22Z</time>
      </trkpt>
      <trkpt lat="42.5510300" lon="-8.6389900">
        <ele>35.7</ele>
        <time>2021-05-22T10:17:23Z</time>
      </trkpt>
      <trkpt lat="42.5510400" lon="-8.6389890">
        <ele>35.7</ele>
        <time>2021-05-22T10:17:24Z</time>
      </trkpt>
      <trkpt lat="42.5510520" lon="-8.6389840">
        <ele>35.7</ele>
        <time>2021-05-22T10:17:25Z</time>
      </trkpt>
      <trkpt lat="42.5510650" lon="-8.6389770">
        <ele>35.7</ele>
        <time>2021-05-22T10:17:26Z</time>
      </trkpt>
      <trkpt lat="42.5510740" lon="-8.6389740">
        <ele>35.7</ele>
        <time>2021-05-22T10:17:27Z</time>
      </trkpt>
      <trkpt lat="42.5510820" lon="-8.6389650">
        <ele>35.7</ele>
        <time>2021-05-22T10:17:28Z</time>
      </trkpt>
      <trkpt lat="42.5510970" lon="-8.6389630">
        <ele>35.6</ele>
        <time>2021-05-22T10:17:29Z</time>
      </trkpt>
      <trkpt lat="42.5511080" lon="-8.6389600">
        <ele>35.6</ele>
        <time>2021-05-22T10:17:30Z</time>
      </trkpt>
      <trkpt lat="42.5511210" lon="-8.6389590">
        <ele>35.6</ele>
        <time>2021-05-22T10:17:31Z</time>
      </trkpt>
      <trkpt lat="42.5511350" lon="-8.6389500">
        <ele>35.6</ele>
        <time>2021-05-22T10:17:32Z</time>
      </trkpt>
      <trkpt lat="42.5511390" lon="-8.6389460">
        <ele>35.6</ele>
        <time>2021-05-22T10:17:33Z</time>
      </trkpt>
      <trkpt lat="42.5511540" lon="-8.6389470">
        <ele>35.6</ele>
        <time>2021-05-22T10:17:34Z</time>
      </trkpt>
      <trkpt lat="42.5511640" lon="-8.6389480">
        <ele>35.6</ele>
        <time>2021-05-22T10:17:35Z</time>
      </trkpt>
      <trkpt lat="42.5511710" lon="-8.6389460">
        <ele>35.6</ele>
        <time>2021-05-22T10:17:36Z</time>
      </trkpt>
      <trkpt lat="42.5511800" lon="-8.6389400">
        <ele>35.6</ele>
        <time>2021-05-22T10:17:37Z</time>
      </trkpt>
      <trkpt lat="42.5511920" lon="-8.6389390">
        <ele>35.5</ele>
        <time>2021-05-22T10:17:38Z</time>
      </trkpt>
      <trkpt lat="42.5512100" lon="-8.6389340">
        <ele>35.5</ele>
        <time>2021-05-22T10:17:39Z</time>
      </trkpt>
      <trkpt lat="42.5512170" lon="-8.6389340">
        <ele>35.5</ele>
        <time>2021-05-22T10:17:40Z</time>
      </trkpt>
      <trkpt lat="42.5512230" lon="-8.6389340">
        <ele>35.5</ele>
        <time>2021-05-22T10:17:41Z</time>
      </trkpt>
      <trkpt lat="42.5512300" lon="-8.6389340">
        <ele>35.5</ele>
        <time>2021-05-22T10:17:42Z</time>
      </trkpt>
      <trkpt lat="42.5512410" lon="-8.6389290">
        <ele>35.5</ele>
        <time>2021-05-22T10:17:43Z</time>
      </trkpt>
      <trkpt lat="42.5512510" lon="-8.6389250">
        <ele>35.5</ele>
        <time>2021-05-22T10:17:44Z</time>
      </trkpt>
      <trkpt lat="42.5512610" lon="-8.6389230">
        <ele>35.5</ele>
        <time>2021-05-22T10:17:45Z</time>
      </trkpt>
      <trkpt lat="42.5512770" lon="-8.6389230">
        <ele>35.4</ele>
        <time>2021-05-22T10:17:46Z</time>
      </trkpt>
      <trkpt lat="42.5512890" lon="-8.6389160">
        <ele>35.4</ele>
        <time>2021-05-22T10:17:47Z</time>
      </trkpt>
      <trkpt lat="42.5513060" lon="-8.6389070">
        <ele>35.4</ele>
        <time>2021-05-22T10:17:48Z</time>
      </trkpt>
      <trkpt lat="42.5513160" lon="-8.6389100">
        <ele>35.4</ele>
        <time>2021-05-22T10:17:49Z</time>
      </trkpt>
      <trkpt lat="42.5513240" lon="-8.6389050">
        <ele>35.4</ele>
        <time>2021-05-22T10:17:50Z</time>
      </trkpt>
      <trkpt lat="42.5513330" lon="-8.6389100">
        <ele>35.4</ele>
        <time>2021-05-22T10:17:51Z</time>
      </trkpt>
      <trkpt lat="42.5513430" lon="-8.6389060">
        <ele>35.4</ele>
        <time>2021-05-22T10:17:52Z</time>
      </trkpt>
      <trkpt lat="42.5513560" lon="-8.6389110">
        <ele>35.4</ele>
        <time>2021-05-22T10:17:53Z</time>
      </trkpt>
      <trkpt lat="42.5513640" lon="-8.6389120">
        <ele>35.3</ele>
        <time>2021-05-22T10:17:54Z</time>
      </trkpt>
      <trkpt lat="42.5513790" lon="-8.6389060">
        <ele>35.3</ele>
        <time>2021-05-22T10:17:55Z</time>
      </trkpt>
      <trkpt lat="42.5514020" lon="-8.6388950">
        <ele>35.3</ele>
        <time>2021-05-22T10:17:56Z</time>
      </trkpt>
      <trkpt lat="42.5514120" lon="-8.6388950">
        <ele>35.3</ele>
        <time>2021-05-22T10:17:57Z</time>
      </trkpt>
      <trkpt lat="42.5514280" lon="-8.6388910">
        <ele>35.3</ele>
        <time>2021-05-22T10:17:58Z</time>
      </trkpt>
      <trkpt lat="42.5514400" lon="-8.6388850">
        <ele>35.3</ele>
        <time>2021-05-22T10:17:59Z</time>
      </trkpt>
      <trkpt lat="42.5514500" lon="-8.6388830">
        <ele>35.3</ele>
        <time>2021-05-22T10:18:00Z</time>
      </trkpt>
      <trkpt lat="42.5514570" lon="-8.6388820">
        <ele>35.3</ele>
        <time>2021-05-22T10:18:01Z</time>
      </trkpt>
      <trkpt lat="42.5514680" lon="-8.6388840">
        <ele>35.2</ele>
        <time>2021-05-22T10:18:02Z</time>
      </trkpt>
      <trkpt lat="42.5514790" lon="-8.6388820">
        <ele>35.2</ele>
        <time>2021-05-22T10:18:03Z</time>
      </trkpt>
      <trkpt lat="42.5514950" lon="-8.6388730">
        <ele>35.2</ele>
        <time>2021-05-22T10:18:04Z</time>
      </trkpt>
      <trkpt lat="42.5515100" lon="-8.6388710">
        <ele>35.2</ele>
        <time>2021-05-22T10:18:05Z</time>
      </trkpt>
      <trkpt lat="42.5515220" lon="-8.6388680">
        <ele>35.2</ele>
        <time>2021-05-22T10:18:06Z</time>
      </trkpt>
      <trkpt lat="42.5515420" lon="-8.6388680">
        <ele>35.2</ele>
        <time>2021-05-22T10:18:07Z</time>
      </trkpt>
      <trkpt lat="42.5515510" lon="-8.6388670">
        <ele>35.2</ele>
        <time>2021-05-22T10:18:08Z</time>
      </trkpt>
      <trkpt lat="42.5515600" lon="-8.6388650">
        <ele>35.2</ele>
        <time>2021-05-22T10:18:09Z</time>
      </trkpt>
      <trkpt lat="42.5515710" lon="-8.6388660">
        <ele>35.2</ele>
        <time>2021-05-22T10:18:10Z</time>
      </trkpt>
      <trkpt lat="42.5515820" lon="-8.6388650">
        <ele>35.2</ele>
        <time>2021-05-22T10:18:11Z</time>
      </trkpt>
      <trkpt lat="42.5515900" lon="-8.6388640">
        <ele>35.2</ele>
        <time>2021-05-22T10:18:12Z</time>
      </trkpt>
      <trkpt lat="42.5516030" lon="-8.6388620">
        <ele>35.1</ele>
        <time>2021-05-22T10:18:13Z</time>
      </trkpt>
      <trkpt lat="42.5516170" lon="-8.6388550">
        <ele>35.1</ele>
        <time>2021-05-22T10:18:14Z</time>
      </trkpt>
      <trkpt lat="42.5516280" lon="-8.6388540">
        <ele>35.1</ele>
        <time>2021-05-22T10:18:15Z</time>
      </trkpt>
      <trkpt lat="42.5516390" lon="-8.6388510">
        <ele>35.1</ele>
        <time>2021-05-22T10:18:16Z</time>
      </trkpt>
      <trkpt lat="42.5516520" lon="-8.6388510">
        <ele>35.1</ele>
        <time>2021-05-22T10:18:17Z</time>
      </trkpt>
      <trkpt lat="42.5516720" lon="-8.6388490">
        <ele>35.1</ele>
        <time>2021-05-22T10:18:18Z</time>
      </trkpt>
      <trkpt lat="42.5516800" lon="-8.6388470">
        <ele>35.1</ele>
        <time>2021-05-22T10:18:19Z</time>
      </trkpt>
      <trkpt lat="42.5516890" lon="-8.6388450">
        <ele>35.1</ele>
        <time>2021-05-22T10:18:20Z</time>
      </trkpt>
      <trkpt lat="42.5516960" lon="-8.6388400">
        <ele>35.1</ele>
        <time>2021-05-22T10:18:21Z</time>
      </trkpt>
      <trkpt lat="42.5517040" lon="-8.6388390">
        <ele>35.1</ele>
        <time>2021-05-22T10:18:22Z</time>
      </trkpt>
      <trkpt lat="42.5517190" lon="-8.6388360">
        <ele>35.1</ele>
        <time>2021-05-22T10:18:23Z</time>
      </trkpt>
      <trkpt lat="42.5517330" lon="-8.6388310">
        <ele>35.1</ele>
        <time>2021-05-22T10:18:24Z</time>
      </trkpt>
      <trkpt lat="42.5517450" lon="-8.6388360">
        <ele>35.1</ele>
        <time>2021-05-22T10:18:25Z</time>
      </trkpt>
      <trkpt lat="42.5517530" lon="-8.6388330">
        <ele>35.1</ele>
        <time>2021-05-22T10:18:26Z</time>
      </trkpt>
      <trkpt lat="42.5517620" lon="-8.6388320">
        <ele>35.1</ele>
        <time>2021-05-22T10:18:27Z</time>
      </trkpt>
      <trkpt lat="42.5517760" lon="-8.6388300">
        <ele>35.1</ele>
        <time>2021-05-22T10:18:28Z</time>
      </trkpt>
      <trkpt lat="42.5517880" lon="-8.6388280">
        <ele>35.1</ele>
        <time>2021-05-22T10:18:29Z</time>
      </trkpt>
      <trkpt lat="42.5517980" lon="-8.6388280">
        <ele>35.1</ele>
        <time>2021-05-22T10:18:30Z</time>
      </trkpt>
      <trkpt lat="42.5518100" lon="-8.6388290">
        <ele>35.1</ele>
        <time>2021-05-22T10:18:31Z</time>
      </trkpt>
      <trkpt lat="42.5518310" lon="-8.6388220">
        <ele>35.1</ele>
        <time>2021-05-22T10:18:32Z</time>
      </trkpt>
      <trkpt lat="42.5518400" lon="-8.6388210">
        <ele>35.1</ele>
        <time>2021-05-22T10:18:33Z</time>
      </trkpt>
      <trkpt lat="42.5518480" lon="-8.6388200">
        <ele>35.1</ele>
        <time>2021-05-22T10:18:34Z</time>
      </trkpt>
      <trkpt lat="42.5518620" lon="-8.6388230">
        <ele>35.1</ele>
        <time>2021-05-22T10:18:35Z</time>
      </trkpt>
      <trkpt lat="42.5518750" lon="-8.6388160">
        <ele>35.1</ele>
        <time>2021-05-22T10:18:36Z</time>
      </trkpt>
      <trkpt lat="42.5518930" lon="-8.6388120">
        <ele>35.1</ele>
        <time>2021-05-22T10:18:37Z</time>
      </trkpt>
      <trkpt lat="42.5519000" lon="-8.6388100">
        <ele>35.1</ele>
        <time>2021-05-22T10:18:38Z</time>
      </trkpt>
      <trkpt lat="42.5519070" lon="-8.6388070">
        <ele>35.1</ele>
        <time>2021-05-22T10:18:39Z</time>
      </trkpt>
      <trkpt lat="42.5519140" lon="-8.6388050">
        <ele>35.0</ele>
        <time>2021-05-22T10:18:40Z</time>
      </trkpt>
      <trkpt lat="42.5519240" lon="-8.6388010">
        <ele>35.0</ele>
        <time>2021-05-22T10:18:41Z</time>
      </trkpt>
      <trkpt lat="42.5519380" lon="-8.6387890">
        <ele>35.0</ele>
        <time>2021-05-22T10:18:42Z</time>
      </trkpt>
      <trkpt lat="42.5519600" lon="-8.6387870">
        <ele>35.0</ele>
        <time>2021-05-22T10:18:43Z</time>
      </trkpt>
      <trkpt lat="42.5519690" lon="-8.6387860">
        <ele>35.0</ele>
        <time>2021-05-22T10:18:44Z</time>
      </trkpt>
      <trkpt lat="42.5519770" lon="-8.6387840">
        <ele>35.0</ele>
        <time>2021-05-22T10:18:45Z</time>
      </trkpt>
      <trkpt lat="42.5519940" lon="-8.6387750">
        <ele>35.0</ele>
        <time>2021-05-22T10:18:46Z</time>
      </trkpt>
      <trkpt lat="42.5520060" lon="-8.6387740">
        <ele>35.0</ele>
        <time>2021-05-22T10:18:47Z</time>
      </trkpt>
      <trkpt lat="42.5520150" lon="-8.6387730">
        <ele>35.0</ele>
        <time>2021-05-22T10:18:48Z</time>
      </trkpt>
      <trkpt lat="42.5520230" lon="-8.6387720">
        <ele>35.0</ele>
        <time>2021-05-22T10:18:49Z</time>
      </trkpt>
      <trkpt lat="42.5520270" lon="-8.6387680">
        <ele>35.0</ele>
        <time>2021-05-22T10:18:50Z</time>
      </trkpt>
      <trkpt lat="42.5520380" lon="-8.6387720">
        <ele>35.0</ele>
        <time>2021-05-22T10:18:51Z</time>
      </trkpt>
      <trkpt lat="42.5520480" lon="-8.6387650">
        <ele>35.0</ele>
        <time>2021-05-22T10:18:52Z</time>
      </trkpt>
      <trkpt lat="42.5520580" lon="-8.6387680">
        <ele>35.0</ele>
        <time>2021-05-22T10:18:53Z</time>
      </trkpt>
      <trkpt lat="42.5520690" lon="-8.6387660">
        <ele>35.0</ele>
        <time>2021-05-22T10:18:54Z</time>
      </trkpt>
      <trkpt lat="42.5520810" lon="-8.6387680">
        <ele>35.0</ele>
        <time>2021-05-22T10:18:55Z</time>
      </trkpt>
      <trkpt lat="42.5520920" lon="-8.6387660">
        <ele>35.0</ele>
        <time>2021-05-22T10:18:56Z</time>
      </trkpt>
      <trkpt lat="42.5521020" lon="-8.6387630">
        <ele>35.0</ele>
        <time>2021-05-22T10:18:57Z</time>
      </trkpt>
      <trkpt lat="42.5521140" lon="-8.6387610">
        <ele>35.0</ele>
        <time>2021-05-22T10:18:58Z</time>
      </trkpt>
      <trkpt lat="42.5521230" lon="-8.6387630">
        <ele>35.0</ele>
        <time>2021-05-22T10:18:59Z</time>
      </trkpt>
      <trkpt lat="42.5521350" lon="-8.6387620">
        <ele>35.0</ele>
        <time>2021-05-22T10:19:00Z</time>
      </trkpt>
      <trkpt lat="42.5521470" lon="-8.6387560">
        <ele>35.0</ele>
        <time>2021-05-22T10:19:01Z</time>
      </trkpt>
      <trkpt lat="42.5521600" lon="-8.6387540">
        <ele>35.0</ele>
        <time>2021-05-22T10:19:02Z</time>
      </trkpt>
      <trkpt lat="42.5521700" lon="-8.6387540">
        <ele>35.0</ele>
        <time>2021-05-22T10:19:03Z</time>
      </trkpt>
      <trkpt lat="42.5521770" lon="-8.6387500">
        <ele>35.0</ele>
        <time>2021-05-22T10:19:04Z</time>
      </trkpt>
      <trkpt lat="42.5521860" lon="-8.6387520">
        <ele>35.0</ele>
        <time>2021-05-22T10:19:05Z</time>
      </trkpt>
      <trkpt lat="42.5521990" lon="-8.6387490">
        <ele>35.0</ele>
        <time>2021-05-22T10:19:06Z</time>
      </trkpt>
      <trkpt lat="42.5522060" lon="-8.6387480">
        <ele>35.0</ele>
        <time>2021-05-22T10:19:07Z</time>
      </trkpt>
      <trkpt lat="42.5522190" lon="-8.6387470">
        <ele>35.1</ele>
        <time>2021-05-22T10:19:08Z</time>
      </trkpt>
      <trkpt lat="42.5522270" lon="-8.6387480">
        <ele>35.1</ele>
        <time>2021-05-22T10:19:09Z</time>
      </trkpt>
      <trkpt lat="42.5522410" lon="-8.6387490">
        <ele>35.1</ele>
        <time>2021-05-22T10:19:10Z</time>
      </trkpt>
      <trkpt lat="42.5522550" lon="-8.6387420">
        <ele>35.1</ele>
        <time>2021-05-22T10:19:11Z</time>
      </trkpt>
      <trkpt lat="42.5522580" lon="-8.6387390">
        <ele>35.1</ele>
        <time>2021-05-22T10:19:12Z</time>
      </trkpt>
      <trkpt lat="42.5522680" lon="-8.6387400">
        <ele>35.1</ele>
        <time>2021-05-22T10:19:13Z</time>
      </trkpt>
      <trkpt lat="42.5522740" lon="-8.6387390">
        <ele>35.1</ele>
        <time>2021-05-22T10:19:14Z</time>
      </trkpt>
      <trkpt lat="42.5522850" lon="-8.6387390">
        <ele>35.1</ele>
        <time>2021-05-22T10:19:15Z</time>
      </trkpt>
      <trkpt lat="42.5523030" lon="-8.6387370">
        <ele>35.1</ele>
        <time>2021-05-22T10:19:16Z</time>
      </trkpt>
      <trkpt lat="42.5523150" lon="-8.6387410">
        <ele>35.1</ele>
        <time>2021-05-22T10:19:17Z</time>
      </trkpt>
      <trkpt lat="42.5523250" lon="-8.6387440">
        <ele>35.1</ele>
        <time>2021-05-22T10:19:18Z</time>
      </trkpt>
      <trkpt lat="42.5523390" lon="-8.6387400">
        <ele>35.1</ele>
        <time>2021-05-22T10:19:19Z</time>
      </trkpt>
      <trkpt lat="42.5523500" lon="-8.6387340">
        <ele>35.1</ele>
        <time>2021-05-22T10:19:20Z</time>
      </trkpt>
      <trkpt lat="42.5523610" lon="-8.6387360">
        <ele>35.1</ele>
        <time>2021-05-22T10:19:21Z</time>
      </trkpt>
      <trkpt lat="42.5523730" lon="-8.6387330">
        <ele>35.1</ele>
        <time>2021-05-22T10:19:22Z</time>
      </trkpt>
      <trkpt lat="42.5523840" lon="-8.6387340">
        <ele>35.1</ele>
        <time>2021-05-22T10:19:23Z</time>
      </trkpt>
      <trkpt lat="42.5523980" lon="-8.6387340">
        <ele>35.1</ele>
        <time>2021-05-22T10:19:24Z</time>
      </trkpt>
      <trkpt lat="42.5524090" lon="-8.6387320">
        <ele>35.1</ele>
        <time>2021-05-22T10:19:25Z</time>
      </trkpt>
      <trkpt lat="42.5524190" lon="-8.6387280">
        <ele>35.1</ele>
        <time>2021-05-22T10:19:26Z</time>
      </trkpt>
      <trkpt lat="42.5524320" lon="-8.6387240">
        <ele>35.1</ele>
        <time>2021-05-22T10:19:27Z</time>
      </trkpt>
      <trkpt lat="42.5524420" lon="-8.6387200">
        <ele>35.1</ele>
        <time>2021-05-22T10:19:28Z</time>
      </trkpt>
      <trkpt lat="42.5524530" lon="-8.6387180">
        <ele>35.1</ele>
        <time>2021-05-22T10:19:29Z</time>
      </trkpt>
      <trkpt lat="42.5524680" lon="-8.6387140">
        <ele>35.1</ele>
        <time>2021-05-22T10:19:30Z</time>
      </trkpt>
      <trkpt lat="42.5524830" lon="-8.6387130">
        <ele>35.1</ele>
        <time>2021-05-22T10:19:31Z</time>
      </trkpt>
      <trkpt lat="42.5524990" lon="-8.6387110">
        <ele>35.1</ele>
        <time>2021-05-22T10:19:32Z</time>
      </trkpt>
      <trkpt lat="42.5525150" lon="-8.6387080">
        <ele>35.1</ele>
        <time>2021-05-22T10:19:33Z</time>
      </trkpt>
      <trkpt lat="42.5525210" lon="-8.6387160">
        <ele>35.1</ele>
        <time>2021-05-22T10:19:34Z</time>
      </trkpt>
      <trkpt lat="42.5525330" lon="-8.6387140">
        <ele>35.1</ele>
        <time>2021-05-22T10:19:35Z</time>
      </trkpt>
      <trkpt lat="42.5525490" lon="-8.6387130">
        <ele>35.2</ele>
        <time>2021-05-22T10:19:36Z</time>
      </trkpt>
      <trkpt lat="42.5525670" lon="-8.6387120">
        <ele>35.2</ele>
        <time>2021-05-22T10:19:37Z</time>
      </trkpt>
      <trkpt lat="42.5525830" lon="-8.6387110">
        <ele>35.2</ele>
        <time>2021-05-22T10:19:38Z</time>
      </trkpt>
      <trkpt lat="42.5525920" lon="-8.6387050">
        <ele>35.2</ele>
        <time>2021-05-22T10:19:39Z</time>
      </trkpt>
      <trkpt lat="42.5526040" lon="-8.6387070">
        <ele>35.2</ele>
        <time>2021-05-22T10:19:40Z</time>
      </trkpt>
      <trkpt lat="42.5526130" lon="-8.6387040">
        <ele>35.2</ele>
        <time>2021-05-22T10:19:41Z</time>
      </trkpt>
      <trkpt lat="42.5526300" lon="-8.6387010">
        <ele>35.2</ele>
        <time>2021-05-22T10:19:42Z</time>
      </trkpt>
      <trkpt lat="42.5526430" lon="-8.6386990">
        <ele>35.2</ele>
        <time>2021-05-22T10:19:43Z</time>
      </trkpt>
      <trkpt lat="42.5526650" lon="-8.6386960">
        <ele>35.2</ele>
        <time>2021-05-22T10:19:44Z</time>
      </trkpt>
      <trkpt lat="42.5526750" lon="-8.6386950">
        <ele>35.2</ele>
        <time>2021-05-22T10:19:45Z</time>
      </trkpt>
      <trkpt lat="42.5526840" lon="-8.6386930">
        <ele>35.2</ele>
        <time>2021-05-22T10:19:46Z</time>
      </trkpt>
      <trkpt lat="42.5527060" lon="-8.6386930">
        <ele>35.2</ele>
        <time>2021-05-22T10:19:47Z</time>
      </trkpt>
      <trkpt lat="42.5527140" lon="-8.6386910">
        <ele>35.2</ele>
        <time>2021-05-22T10:19:48Z</time>
      </trkpt>
      <trkpt lat="42.5527230" lon="-8.6386900">
        <ele>35.2</ele>
        <time>2021-05-22T10:19:49Z</time>
      </trkpt>
      <trkpt lat="42.5527460" lon="-8.6386850">
        <ele>35.2</ele>
        <time>2021-05-22T10:19:50Z</time>
      </trkpt>
      <trkpt lat="42.5527540" lon="-8.6386850">
        <ele>35.2</ele>
        <time>2021-05-22T10:19:51Z</time>
      </trkpt>
      <trkpt lat="42.5527620" lon="-8.6386840">
        <ele>35.2</ele>
        <time>2021-05-22T10:19:52Z</time>
      </trkpt>
      <trkpt lat="42.5527750" lon="-8.6386790">
        <ele>35.2</ele>
        <time>2021-05-22T10:19:53Z</time>
      </trkpt>
      <trkpt lat="42.5527900" lon="-8.6386790">
        <ele>35.2</ele>
        <time>2021-05-22T10:19:54Z</time>
      </trkpt>
      <trkpt lat="42.5527960" lon="-8.6386760">
        <ele>35.2</ele>
        <time>2021-05-22T10:19:55Z</time>
      </trkpt>
      <trkpt lat="42.5528100" lon="-8.6386680">
        <ele>35.2</ele>
        <time>2021-05-22T10:19:56Z</time>
      </trkpt>
      <trkpt lat="42.5528240" lon="-8.6386650">
        <ele>35.2</ele>
        <time>2021-05-22T10:19:57Z</time>
      </trkpt>
      <trkpt lat="42.5528440" lon="-8.6386580">
        <ele>35.2</ele>
        <time>2021-05-22T10:19:58Z</time>
      </trkpt>
      <trkpt lat="42.5528520" lon="-8.6386550">
        <ele>35.2</ele>
        <time>2021-05-22T10:19:59Z</time>
      </trkpt>
      <trkpt lat="42.5528600" lon="-8.6386510">
        <ele>35.2</ele>
        <time>2021-05-22T10:20:00Z</time>
      </trkpt>
      <trkpt lat="42.5528720" lon="-8.6386450">
        <ele>35.2</ele>
        <time>2021-05-22T10:20:01Z</time>
      </trkpt>
      <trkpt lat="42.5528890" lon="-8.6386360">
        <ele>35.2</ele>
        <time>2021-05-22T10:20:02Z</time>
      </trkpt>
      <trkpt lat="42.5529020" lon="-8.6386310">
        <ele>35.2</ele>
        <time>2021-05-22T10:20:03Z</time>
      </trkpt>
      <trkpt lat="42.5529110" lon="-8.6386380">
        <ele>35.2</ele>
        <time>2021-05-22T10:20:04Z</time>
      </trkpt>
      <trkpt lat="42.5529230" lon="-8.6386390">
        <ele>35.1</ele>
        <time>2021-05-22T10:20:05Z</time>
      </trkpt>
      <trkpt lat="42.5529370" lon="-8.6386370">
        <ele>35.1</ele>
        <time>2021-05-22T10:20:06Z</time>
      </trkpt>
      <trkpt lat="42.5529510" lon="-8.6386350">
        <ele>35.1</ele>
        <time>2021-05-22T10:20:07Z</time>
      </trkpt>
      <trkpt lat="42.5529720" lon="-8.6386300">
        <ele>35.1</ele>
        <time>2021-05-22T10:20:08Z</time>
      </trkpt>
      <trkpt lat="42.5529790" lon="-8.6386270">
        <ele>35.0</ele>
        <time>2021-05-22T10:20:09Z</time>
      </trkpt>
      <trkpt lat="42.5529870" lon="-8.6386240">
        <ele>35.0</ele>
        <time>2021-05-22T10:20:10Z</time>
      </trkpt>
      <trkpt lat="42.5530040" lon="-8.6386220">
        <ele>35.0</ele>
        <time>2021-05-22T10:20:11Z</time>
      </trkpt>
      <trkpt lat="42.5530170" lon="-8.6386180">
        <ele>35.0</ele>
        <time>2021-05-22T10:20:12Z</time>
      </trkpt>
      <trkpt lat="42.5530270" lon="-8.6386160">
        <ele>34.9</ele>
        <time>2021-05-22T10:20:13Z</time>
      </trkpt>
      <trkpt lat="42.5530370" lon="-8.6386170">
        <ele>34.9</ele>
        <time>2021-05-22T10:20:14Z</time>
      </trkpt>
      <trkpt lat="42.5530470" lon="-8.6386180">
        <ele>34.9</ele>
        <time>2021-05-22T10:20:15Z</time>
      </trkpt>
      <trkpt lat="42.5530530" lon="-8.6386150">
        <ele>34.8</ele>
        <time>2021-05-22T10:20:16Z</time>
      </trkpt>
      <trkpt lat="42.5530630" lon="-8.6386140">
        <ele>34.8</ele>
        <time>2021-05-22T10:20:17Z</time>
      </trkpt>
      <trkpt lat="42.5530790" lon="-8.6386120">
        <ele>34.7</ele>
        <time>2021-05-22T10:20:18Z</time>
      </trkpt>
      <trkpt lat="42.5530880" lon="-8.6386120">
        <ele>34.7</ele>
        <time>2021-05-22T10:20:19Z</time>
      </trkpt>
      <trkpt lat="42.5530980" lon="-8.6386080">
        <ele>34.7</ele>
        <time>2021-05-22T10:20:20Z</time>
      </trkpt>
      <trkpt lat="42.5531090" lon="-8.6386080">
        <ele>34.6</ele>
        <time>2021-05-22T10:20:21Z</time>
      </trkpt>
      <trkpt lat="42.5531310" lon="-8.6386060">
        <ele>34.5</ele>
        <time>2021-05-22T10:20:22Z</time>
      </trkpt>
      <trkpt lat="42.5531380" lon="-8.6386050">
        <ele>34.5</ele>
        <time>2021-05-22T10:20:23Z</time>
      </trkpt>
      <trkpt lat="42.5531460" lon="-8.6386050">
        <ele>34.5</ele>
        <time>2021-05-22T10:20:24Z</time>
      </trkpt>
      <trkpt lat="42.5531680" lon="-8.6386000">
        <ele>34.4</ele>
        <time>2021-05-22T10:20:25Z</time>
      </trkpt>
      <trkpt lat="42.5531780" lon="-8.6385990">
        <ele>34.4</ele>
        <time>2021-05-22T10:20:26Z</time>
      </trkpt>
      <trkpt lat="42.5531870" lon="-8.6385980">
        <ele>34.3</ele>
        <time>2021-05-22T10:20:27Z</time>
      </trkpt>
      <trkpt lat="42.5531960" lon="-8.6385990">
        <ele>34.3</ele>
        <time>2021-05-22T10:20:28Z</time>
      </trkpt>
      <trkpt lat="42.5532050" lon="-8.6385990">
        <ele>34.3</ele>
        <time>2021-05-22T10:20:29Z</time>
      </trkpt>
      <trkpt lat="42.5532160" lon="-8.6385970">
        <ele>34.2</ele>
        <time>2021-05-22T10:20:30Z</time>
      </trkpt>
      <trkpt lat="42.5532280" lon="-8.6385950">
        <ele>34.2</ele>
        <time>2021-05-22T10:20:31Z</time>
      </trkpt>
      <trkpt lat="42.5532340" lon="-8.6385970">
        <ele>34.2</ele>
        <time>2021-05-22T10:20:32Z</time>
      </trkpt>
      <trkpt lat="42.5532440" lon="-8.6385820">
        <ele>34.1</ele>
        <time>2021-05-22T10:20:33Z</time>
      </trkpt>
      <trkpt lat="42.5532550" lon="-8.6385810">
        <ele>34.1</ele>
        <time>2021-05-22T10:20:34Z</time>
      </trkpt>
      <trkpt lat="42.5532630" lon="-8.6385840">
        <ele>34.0</ele>
        <time>2021-05-22T10:20:35Z</time>
      </trkpt>
      <trkpt lat="42.5532790" lon="-8.6385780">
        <ele>34.0</ele>
        <time>2021-05-22T10:20:36Z</time>
      </trkpt>
      <trkpt lat="42.5532940" lon="-8.6385680">
        <ele>33.9</ele>
        <time>2021-05-22T10:20:37Z</time>
      </trkpt>
      <trkpt lat="42.5533100" lon="-8.6385720">
        <ele>33.8</ele>
        <time>2021-05-22T10:20:38Z</time>
      </trkpt>
      <trkpt lat="42.5533320" lon="-8.6385660">
        <ele>33.7</ele>
        <time>2021-05-22T10:20:39Z</time>
      </trkpt>
      <trkpt lat="42.5533310" lon="-8.6385630">
        <ele>33.7</ele>
        <time>2021-05-22T10:20:40Z</time>
      </trkpt>
      <trkpt lat="42.5533400" lon="-8.6385600">
        <ele>33.7</ele>
        <time>2021-05-22T10:20:41Z</time>
      </trkpt>
      <trkpt lat="42.5533570" lon="-8.6385590">
        <ele>33.6</ele>
        <time>2021-05-22T10:20:42Z</time>
      </trkpt>
      <trkpt lat="42.5533680" lon="-8.6385570">
        <ele>33.6</ele>
        <time>2021-05-22T10:20:43Z</time>
      </trkpt>
      <trkpt lat="42.5533780" lon="-8.6385550">
        <ele>33.5</ele>
        <time>2021-05-22T10:20:44Z</time>
      </trkpt>
      <trkpt lat="42.5534110" lon="-8.6385430">
        <ele>33.4</ele>
        <time>2021-05-22T10:20:45Z</time>
      </trkpt>
      <trkpt lat="42.5534200" lon="-8.6385390">
        <ele>33.4</ele>
        <time>2021-05-22T10:20:46Z</time>
      </trkpt>
      <trkpt lat="42.5534250" lon="-8.6385320">
        <ele>33.3</ele>
        <time>2021-05-22T10:20:47Z</time>
      </trkpt>
      <trkpt lat="42.5534460" lon="-8.6385270">
        <ele>33.2</ele>
        <time>2021-05-22T10:20:48Z</time>
      </trkpt>
      <trkpt lat="42.5534600" lon="-8.6385250">
        <ele>33.2</ele>
        <time>2021-05-22T10:20:49Z</time>
      </trkpt>
      <trkpt lat="42.5534810" lon="-8.6385190">
        <ele>33.1</ele>
        <time>2021-05-22T10:20:50Z</time>
      </trkpt>
      <trkpt lat="42.5535070" lon="-8.6385120">
        <ele>33.0</ele>
        <time>2021-05-22T10:20:51Z</time>
      </trkpt>
      <trkpt lat="42.5535120" lon="-8.6385110">
        <ele>33.0</ele>
        <time>2021-05-22T10:20:52Z</time>
      </trkpt>
      <trkpt lat="42.5535160" lon="-8.6385110">
        <ele>33.0</ele>
        <time>2021-05-22T10:20:53Z</time>
      </trkpt>
      <trkpt lat="42.5535210" lon="-8.6385100">
        <ele>33.0</ele>
        <time>2021-05-22T10:20:54Z</time>
      </trkpt>
      <trkpt lat="42.5535250" lon="-8.6385090">
        <ele>33.0</ele>
        <time>2021-05-22T10:20:55Z</time>
      </trkpt>
      <trkpt lat="42.5535560" lon="-8.6385050">
        <ele>32.9</ele>
        <time>2021-05-22T10:20:56Z</time>
      </trkpt>
      <trkpt lat="42.5535670" lon="-8.6385020">
        <ele>32.8</ele>
        <time>2021-05-22T10:20:57Z</time>
      </trkpt>
      <trkpt lat="42.5535850" lon="-8.6384980">
        <ele>32.8</ele>
        <time>2021-05-22T10:20:58Z</time>
      </trkpt>
      <trkpt lat="42.5535960" lon="-8.6384940">
        <ele>32.8</ele>
        <time>2021-05-22T10:20:59Z</time>
      </trkpt>
      <trkpt lat="42.5536060" lon="-8.6384910">
        <ele>32.7</ele>
        <time>2021-05-22T10:21:00Z</time>
      </trkpt>
      <trkpt lat="42.5536270" lon="-8.6384870">
        <ele>32.7</ele>
        <time>2021-05-22T10:21:01Z</time>
      </trkpt>
      <trkpt lat="42.5536360" lon="-8.6384850">
        <ele>32.7</ele>
        <time>2021-05-22T10:21:02Z</time>
      </trkpt>
      <trkpt lat="42.5536450" lon="-8.6384840">
        <ele>32.7</ele>
        <time>2021-05-22T10:21:03Z</time>
      </trkpt>
      <trkpt lat="42.5536510" lon="-8.6384780">
        <ele>32.6</ele>
        <time>2021-05-22T10:21:04Z</time>
      </trkpt>
      <trkpt lat="42.5536730" lon="-8.6384730">
        <ele>32.6</ele>
        <time>2021-05-22T10:21:05Z</time>
      </trkpt>
      <trkpt lat="42.5536770" lon="-8.6384700">
        <ele>32.6</ele>
        <time>2021-05-22T10:21:06Z</time>
      </trkpt>
      <trkpt lat="42.5536820" lon="-8.6384750">
        <ele>32.6</ele>
        <time>2021-05-22T10:21:07Z</time>
      </trkpt>
      <trkpt lat="42.5536950" lon="-8.6384760">
        <ele>32.5</ele>
        <time>2021-05-22T10:21:08Z</time>
      </trkpt>
      <trkpt lat="42.5537050" lon="-8.6384810">
        <ele>32.5</ele>
        <time>2021-05-22T10:21:09Z</time>
      </trkpt>
      <trkpt lat="42.5537180" lon="-8.6384790">
        <ele>32.5</ele>
        <time>2021-05-22T10:21:10Z</time>
      </trkpt>
      <trkpt lat="42.5537230" lon="-8.6384780">
        <ele>32.5</ele>
        <time>2021-05-22T10:21:11Z</time>
      </trkpt>
      <trkpt lat="42.5537290" lon="-8.6384790">
        <ele>32.5</ele>
        <time>2021-05-22T10:21:12Z</time>
      </trkpt>
      <trkpt lat="42.5537390" lon="-8.6384790">
        <ele>32.4</ele>
        <time>2021-05-22T10:21:13Z</time>
      </trkpt>
      <trkpt lat="42.5537500" lon="-8.6384800">
        <ele>32.4</ele>
        <time>2021-05-22T10:21:14Z</time>
      </trkpt>
      <trkpt lat="42.5537620" lon="-8.6384820">
        <ele>32.4</ele>
        <time>2021-05-22T10:21:15Z</time>
      </trkpt>
      <trkpt lat="42.5537680" lon="-8.6384800">
        <ele>32.4</ele>
        <time>2021-05-22T10:21:16Z</time>
      </trkpt>
      <trkpt lat="42.5537780" lon="-8.6384740">
        <ele>32.4</ele>
        <time>2021-05-22T10:21:17Z</time>
      </trkpt>
      <trkpt lat="42.5537960" lon="-8.6384730">
        <ele>32.3</ele>
        <time>2021-05-22T10:21:18Z</time>
      </trkpt>
      <trkpt lat="42.5538140" lon="-8.6384680">
        <ele>32.3</ele>
        <time>2021-05-22T10:21:19Z</time>
      </trkpt>
      <trkpt lat="42.5538290" lon="-8.6384660">
        <ele>32.3</ele>
        <time>2021-05-22T10:21:20Z</time>
      </trkpt>
      <trkpt lat="42.5538400" lon="-8.6384540">
        <ele>32.3</ele>
        <time>2021-05-22T10:21:21Z</time>
      </trkpt>
      <trkpt lat="42.5538480" lon="-8.6384490">
        <ele>32.2</ele>
        <time>2021-05-22T10:21:22Z</time>
      </trkpt>
      <trkpt lat="42.5538580" lon="-8.6384430">
        <ele>32.2</ele>
        <time>2021-05-22T10:21:23Z</time>
      </trkpt>
      <trkpt lat="42.5538690" lon="-8.6384440">
        <ele>32.2</ele>
        <time>2021-05-22T10:21:24Z</time>
      </trkpt>
      <trkpt lat="42.5538770" lon="-8.6384400">
        <ele>32.2</ele>
        <time>2021-05-22T10:21:25Z</time>
      </trkpt>
      <trkpt lat="42.5538880" lon="-8.6384220">
        <ele>32.2</ele>
        <time>2021-05-22T10:21:26Z</time>
      </trkpt>
      <trkpt lat="42.5539010" lon="-8.6384160">
        <ele>32.1</ele>
        <time>2021-05-22T10:21:27Z</time>
      </trkpt>
      <trkpt lat="42.5539150" lon="-8.6384160">
        <ele>32.1</ele>
        <time>2021-05-22T10:21:28Z</time>
      </trkpt>
      <trkpt lat="42.5539250" lon="-8.6384130">
        <ele>32.1</ele>
        <time>2021-05-22T10:21:29Z</time>
      </trkpt>
      <trkpt lat="42.5539380" lon="-8.6384110">
        <ele>32.0</ele>
        <time>2021-05-22T10:21:30Z</time>
      </trkpt>
      <trkpt lat="42.5539450" lon="-8.6384060">
        <ele>32.0</ele>
        <time>2021-05-22T10:21:31Z</time>
      </trkpt>
      <trkpt lat="42.5539520" lon="-8.6384040">
        <ele>32.0</ele>
        <time>2021-05-22T10:21:32Z</time>
      </trkpt>
      <trkpt lat="42.5539690" lon="-8.6383990">
        <ele>32.0</ele>
        <time>2021-05-22T10:21:33Z</time>
      </trkpt>
      <trkpt lat="42.5539790" lon="-8.6383990">
        <ele>32.0</ele>
        <time>2021-05-22T10:21:34Z</time>
      </trkpt>
      <trkpt lat="42.5539880" lon="-8.6383990">
        <ele>31.9</ele>
        <time>2021-05-22T10:21:35Z</time>
      </trkpt>
      <trkpt lat="42.5539960" lon="-8.6384000">
        <ele>31.9</ele>
        <time>2021-05-22T10:21:36Z</time>
      </trkpt>
      <trkpt lat="42.5540110" lon="-8.6383900">
        <ele>31.9</ele>
        <time>2021-05-22T10:21:37Z</time>
      </trkpt>
      <trkpt lat="42.5540160" lon="-8.6383910">
        <ele>31.9</ele>
        <time>2021-05-22T10:21:38Z</time>
      </trkpt>
      <trkpt lat="42.5540290" lon="-8.6383890">
        <ele>31.9</ele>
        <time>2021-05-22T10:21:39Z</time>
      </trkpt>
      <trkpt lat="42.5540430" lon="-8.6383880">
        <ele>31.8</ele>
        <time>2021-05-22T10:21:40Z</time>
      </trkpt>
      <trkpt lat="42.5540600" lon="-8.6383790">
        <ele>31.8</ele>
        <time>2021-05-22T10:21:41Z</time>
      </trkpt>
      <trkpt lat="42.5540690" lon="-8.6383770">
        <ele>31.8</ele>
        <time>2021-05-22T10:21:42Z</time>
      </trkpt>
      <trkpt lat="42.5540790" lon="-8.6383750">
        <ele>31.8</ele>
        <time>2021-05-22T10:21:43Z</time>
      </trkpt>
      <trkpt lat="42.5540910" lon="-8.6383680">
        <ele>31.7</ele>
        <time>2021-05-22T10:21:44Z</time>
      </trkpt>
      <trkpt lat="42.5540980" lon="-8.6383660">
        <ele>31.7</ele>
        <time>2021-05-22T10:21:45Z</time>
      </trkpt>
      <trkpt lat="42.5541080" lon="-8.6383670">
        <ele>31.7</ele>
        <time>2021-05-22T10:21:46Z</time>
      </trkpt>
      <trkpt lat="42.5541200" lon="-8.6383640">
        <ele>31.7</ele>
        <time>2021-05-22T10:21:47Z</time>
      </trkpt>
      <trkpt lat="42.5541260" lon="-8.6383530">
        <ele>31.7</ele>
        <time>2021-05-22T10:21:48Z</time>
      </trkpt>
      <trkpt lat="42.5541390" lon="-8.6383510">
        <ele>31.7</ele>
        <time>2021-05-22T10:21:49Z</time>
      </trkpt>
      <trkpt lat="42.5541620" lon="-8.6383420">
        <ele>31.6</ele>
        <time>2021-05-22T10:21:50Z</time>
      </trkpt>
      <trkpt lat="42.5541690" lon="-8.6383380">
        <ele>31.6</ele>
        <time>2021-05-22T10:21:51Z</time>
      </trkpt>
      <trkpt lat="42.5541770" lon="-8.6383340">
        <ele>31.6</ele>
        <time>2021-05-22T10:21:52Z</time>
      </trkpt>
      <trkpt lat="42.5541960" lon="-8.6383240">
        <ele>31.6</ele>
        <time>2021-05-22T10:21:53Z</time>
      </trkpt>
      <trkpt lat="42.5542050" lon="-8.6383210">
        <ele>31.6</ele>
        <time>2021-05-22T10:21:54Z</time>
      </trkpt>
      <trkpt lat="42.5542130" lon="-8.6383180">
        <ele>31.6</ele>
        <time>2021-05-22T10:21:55Z</time>
      </trkpt>
      <trkpt lat="42.5542210" lon="-8.6383110">
        <ele>31.6</ele>
        <time>2021-05-22T10:21:56Z</time>
      </trkpt>
      <trkpt lat="42.5542310" lon="-8.6383070">
        <ele>31.6</ele>
        <time>2021-05-22T10:21:57Z</time>
      </trkpt>
      <trkpt lat="42.5542440" lon="-8.6382970">
        <ele>31.6</ele>
        <time>2021-05-22T10:21:58Z</time>
      </trkpt>
      <trkpt lat="42.5542550" lon="-8.6382840">
        <ele>31.5</ele>
        <time>2021-05-22T10:21:59Z</time>
      </trkpt>
      <trkpt lat="42.5542680" lon="-8.6382790">
        <ele>31.5</ele>
        <time>2021-05-22T10:22:00Z</time>
      </trkpt>
      <trkpt lat="42.5542790" lon="-8.6382750">
        <ele>31.5</ele>
        <time>2021-05-22T10:22:01Z</time>
      </trkpt>
      <trkpt lat="42.5542900" lon="-8.6382700">
        <ele>31.5</ele>
        <time>2021-05-22T10:22:02Z</time>
      </trkpt>
      <trkpt lat="42.5543020" lon="-8.6382660">
        <ele>31.5</ele>
        <time>2021-05-22T10:22:03Z</time>
      </trkpt>
      <trkpt lat="42.5543100" lon="-8.6382640">
        <ele>31.5</ele>
        <time>2021-05-22T10:22:04Z</time>
      </trkpt>
      <trkpt lat="42.5543190" lon="-8.6382580">
        <ele>31.5</ele>
        <time>2021-05-22T10:22:05Z</time>
      </trkpt>
      <trkpt lat="42.5543330" lon="-8.6382520">
        <ele>31.5</ele>
        <time>2021-05-22T10:22:06Z</time>
      </trkpt>
      <trkpt lat="42.5543400" lon="-8.6382490">
        <ele>31.4</ele>
        <time>2021-05-22T10:22:07Z</time>
      </trkpt>
      <trkpt lat="42.5543500" lon="-8.6382470">
        <ele>31.4</ele>
        <time>2021-05-22T10:22:08Z</time>
      </trkpt>
      <trkpt lat="42.5543660" lon="-8.6382400">
        <ele>31.4</ele>
        <time>2021-05-22T10:22:09Z</time>
      </trkpt>
      <trkpt lat="42.5543790" lon="-8.6382280">
        <ele>31.4</ele>
        <time>2021-05-22T10:22:10Z</time>
      </trkpt>
      <trkpt lat="42.5543910" lon="-8.6382250">
        <ele>31.4</ele>
        <time>2021-05-22T10:22:11Z</time>
      </trkpt>
      <trkpt lat="42.5544060" lon="-8.6382200">
        <ele>31.4</ele>
        <time>2021-05-22T10:22:12Z</time>
      </trkpt>
      <trkpt lat="42.5544130" lon="-8.6382130">
        <ele>31.4</ele>
        <time>2021-05-22T10:22:13Z</time>
      </trkpt>
      <trkpt lat="42.5544220" lon="-8.6382070">
        <ele>31.4</ele>
        <time>2021-05-22T10:22:14Z</time>
      </trkpt>
      <trkpt lat="42.5544340" lon="-8.6382040">
        <ele>31.4</ele>
        <time>2021-05-22T10:22:15Z</time>
      </trkpt>
      <trkpt lat="42.5544430" lon="-8.6382010">
        <ele>31.4</ele>
        <time>2021-05-22T10:22:16Z</time>
      </trkpt>
      <trkpt lat="42.5544510" lon="-8.6381990">
        <ele>31.4</ele>
        <time>2021-05-22T10:22:17Z</time>
      </trkpt>
      <trkpt lat="42.5544590" lon="-8.6381960">
        <ele>31.4</ele>
        <time>2021-05-22T10:22:18Z</time>
      </trkpt>
      <trkpt lat="42.5544710" lon="-8.6381900">
        <ele>31.3</ele>
        <time>2021-05-22T10:22:19Z</time>
      </trkpt>
      <trkpt lat="42.5544780" lon="-8.6381880">
        <ele>31.3</ele>
        <time>2021-05-22T10:22:20Z</time>
      </trkpt>
      <trkpt lat="42.5544890" lon="-8.6381790">
        <ele>31.3</ele>
        <time>2021-05-22T10:22:21Z</time>
      </trkpt>
      <trkpt lat="42.5545010" lon="-8.6381730">
        <ele>31.3</ele>
        <time>2021-05-22T10:22:22Z</time>
      </trkpt>
      <trkpt lat="42.5545110" lon="-8.6381730">
        <ele>31.3</ele>
        <time>2021-05-22T10:22:23Z</time>
      </trkpt>
      <trkpt lat="42.5545240" lon="-8.6381650">
        <ele>31.3</ele>
        <time>2021-05-22T10:22:24Z</time>
      </trkpt>
      <trkpt lat="42.5545410" lon="-8.6381570">
        <ele>31.3</ele>
        <time>2021-05-22T10:22:25Z</time>
      </trkpt>
      <trkpt lat="42.5545500" lon="-8.6381510">
        <ele>31.3</ele>
        <time>2021-05-22T10:22:26Z</time>
      </trkpt>
      <trkpt lat="42.5545580" lon="-8.6381440">
        <ele>31.3</ele>
        <time>2021-05-22T10:22:27Z</time>
      </trkpt>
      <trkpt lat="42.5545780" lon="-8.6381310">
        <ele>31.3</ele>
        <time>2021-05-22T10:22:28Z</time>
      </trkpt>
      <trkpt lat="42.5545880" lon="-8.6381270">
        <ele>31.3</ele>
        <time>2021-05-22T10:22:29Z</time>
      </trkpt>
      <trkpt lat="42.5545970" lon="-8.6381240">
        <ele>31.3</ele>
        <time>2021-05-22T10:22:30Z</time>
      </trkpt>
      <trkpt lat="42.5546130" lon="-8.6381140">
        <ele>31.3</ele>
        <time>2021-05-22T10:22:31Z</time>
      </trkpt>
      <trkpt lat="42.5546260" lon="-8.6381010">
        <ele>31.3</ele>
        <time>2021-05-22T10:22:32Z</time>
      </trkpt>
      <trkpt lat="42.5546460" lon="-8.6380910">
        <ele>31.3</ele>
        <time>2021-05-22T10:22:33Z</time>
      </trkpt>
      <trkpt lat="42.5546540" lon="-8.6380860">
        <ele>31.3</ele>
        <time>2021-05-22T10:22:34Z</time>
      </trkpt>
      <trkpt lat="42.5546610" lon="-8.6380800">
        <ele>31.3</ele>
        <time>2021-05-22T10:22:35Z</time>
      </trkpt>
      <trkpt lat="42.5546790" lon="-8.6380710">
        <ele>31.3</ele>
        <time>2021-05-22T10:22:36Z</time>
      </trkpt>
      <trkpt lat="42.5546880" lon="-8.6380570">
        <ele>31.2</ele>
        <time>2021-05-22T10:22:37Z</time>
      </trkpt>
      <trkpt lat="42.5547000" lon="-8.6380460">
        <ele>31.2</ele>
        <time>2021-05-22T10:22:38Z</time>
      </trkpt>
      <trkpt lat="42.5547080" lon="-8.6380420">
        <ele>31.2</ele>
        <time>2021-05-22T10:22:39Z</time>
      </trkpt>
      <trkpt lat="42.5547150" lon="-8.6380370">
        <ele>31.2</ele>
        <time>2021-05-22T10:22:40Z</time>
      </trkpt>
      <trkpt lat="42.5547220" lon="-8.6380320">
        <ele>31.2</ele>
        <time>2021-05-22T10:22:41Z</time>
      </trkpt>
      <trkpt lat="42.5547350" lon="-8.6380210">
        <ele>31.2</ele>
        <time>2021-05-22T10:22:42Z</time>
      </trkpt>
      <trkpt lat="42.5547430" lon="-8.6380150">
        <ele>31.2</ele>
        <time>2021-05-22T10:22:43Z</time>
      </trkpt>
      <trkpt lat="42.5547510" lon="-8.6380100">
        <ele>31.2</ele>
        <time>2021-05-22T10:22:44Z</time>
      </trkpt>
      <trkpt lat="42.5547590" lon="-8.6380040">
        <ele>31.2</ele>
        <time>2021-05-22T10:22:45Z</time>
      </trkpt>
      <trkpt lat="42.5547720" lon="-8.6380020">
        <ele>31.2</ele>
        <time>2021-05-22T10:22:46Z</time>
      </trkpt>
      <trkpt lat="42.5547860" lon="-8.6380060">
        <ele>31.2</ele>
        <time>2021-05-22T10:22:47Z</time>
      </trkpt>
      <trkpt lat="42.5548000" lon="-8.6379990">
        <ele>31.2</ele>
        <time>2021-05-22T10:22:48Z</time>
      </trkpt>
      <trkpt lat="42.5548060" lon="-8.6379930">
        <ele>31.2</ele>
        <time>2021-05-22T10:22:49Z</time>
      </trkpt>
      <trkpt lat="42.5548190" lon="-8.6379870">
        <ele>31.2</ele>
        <time>2021-05-22T10:22:50Z</time>
      </trkpt>
      <trkpt lat="42.5548280" lon="-8.6379800">
        <ele>31.2</ele>
        <time>2021-05-22T10:22:51Z</time>
      </trkpt>
      <trkpt lat="42.5548370" lon="-8.6379750">
        <ele>31.2</ele>
        <time>2021-05-22T10:22:52Z</time>
      </trkpt>
      <trkpt lat="42.5548480" lon="-8.6379680">
        <ele>31.2</ele>
        <time>2021-05-22T10:22:53Z</time>
      </trkpt>
      <trkpt lat="42.5548610" lon="-8.6379610">
        <ele>31.2</ele>
        <time>2021-05-22T10:22:54Z</time>
      </trkpt>
      <trkpt lat="42.5548760" lon="-8.6379590">
        <ele>31.2</ele>
        <time>2021-05-22T10:22:55Z</time>
      </trkpt>
      <trkpt lat="42.5548960" lon="-8.6379470">
        <ele>31.2</ele>
        <time>2021-05-22T10:22:56Z</time>
      </trkpt>
      <trkpt lat="42.5549020" lon="-8.6379410">
        <ele>31.2</ele>
        <time>2021-05-22T10:22:57Z</time>
      </trkpt>
      <trkpt lat="42.5549090" lon="-8.6379350">
        <ele>31.2</ele>
        <time>2021-05-22T10:22:58Z</time>
      </trkpt>
      <trkpt lat="42.5549180" lon="-8.6379230">
        <ele>31.2</ele>
        <time>2021-05-22T10:22:59Z</time>
      </trkpt>
      <trkpt lat="42.5549320" lon="-8.6379140">
        <ele>31.2</ele>
        <time>2021-05-22T10:23:00Z</time>
      </trkpt>
      <trkpt lat="42.5549510" lon="-8.6378980">
        <ele>31.2</ele>
        <time>2021-05-22T10:23:01Z</time>
      </trkpt>
      <trkpt lat="42.5549570" lon="-8.6378940">
        <ele>31.1</ele>
        <time>2021-05-22T10:23:02Z</time>
      </trkpt>
      <trkpt lat="42.5549640" lon="-8.6378900">
        <ele>31.1</ele>
        <time>2021-05-22T10:23:03Z</time>
      </trkpt>
      <trkpt lat="42.5549790" lon="-8.6378890">
        <ele>31.1</ele>
        <time>2021-05-22T10:23:04Z</time>
      </trkpt>
      <trkpt lat="42.5549870" lon="-8.6378780">
        <ele>31.1</ele>
        <time>2021-05-22T10:23:05Z</time>
      </trkpt>
      <trkpt lat="42.5549920" lon="-8.6378760">
        <ele>31.1</ele>
        <time>2021-05-22T10:23:06Z</time>
      </trkpt>
      <trkpt lat="42.5549990" lon="-8.6378670">
        <ele>31.1</ele>
        <time>2021-05-22T10:23:07Z</time>
      </trkpt>
      <trkpt lat="42.5550030" lon="-8.6378510">
        <ele>31.1</ele>
        <time>2021-05-22T10:23:08Z</time>
      </trkpt>
      <trkpt lat="42.5550050" lon="-8.6378400">
        <ele>31.1</ele>
        <time>2021-05-22T10:23:09Z</time>
      </trkpt>
      <trkpt lat="42.5550100" lon="-8.6378300">
        <ele>31.1</ele>
        <time>2021-05-22T10:23:10Z</time>
      </trkpt>
      <trkpt lat="42.5550090" lon="-8.6378280">
        <ele>31.1</ele>
        <time>2021-05-22T10:23:11Z</time>
      </trkpt>
      <trkpt lat="42.5550090" lon="-8.6378250">
        <ele>31.1</ele>
        <time>2021-05-22T10:23:12Z</time>
      </trkpt>
      <trkpt lat="42.5550080" lon="-8.6378230">
        <ele>31.1</ele>
        <time>2021-05-22T10:23:13Z</time>
      </trkpt>
      <trkpt lat="42.5550080" lon="-8.6378200">
        <ele>31.1</ele>
        <time>2021-05-22T10:23:14Z</time>
      </trkpt>
      <trkpt lat="42.5550070" lon="-8.6378170">
        <ele>31.1</ele>
        <time>2021-05-22T10:23:15Z</time>
      </trkpt>
      <trkpt lat="42.5550070" lon="-8.6378150">
        <ele>31.1</ele>
        <time>2021-05-22T10:23:16Z</time>
      </trkpt>
      <trkpt lat="42.5550060" lon="-8.6378120">
        <ele>31.1</ele>
        <time>2021-05-22T10:23:17Z</time>
      </trkpt>
      <trkpt lat="42.5550060" lon="-8.6378100">
        <ele>31.1</ele>
        <time>2021-05-22T10:23:18Z</time>
      </trkpt>
      <trkpt lat="42.5550050" lon="-8.6378070">
        <ele>31.1</ele>
        <time>2021-05-22T10:23:19Z</time>
      </trkpt>
      <trkpt lat="42.5550050" lon="-8.6378050">
        <ele>31.1</ele>
        <time>2021-05-22T10:23:20Z</time>
      </trkpt>
      <trkpt lat="42.5550040" lon="-8.6378020">
        <ele>31.1</ele>
        <time>2021-05-22T10:23:21Z</time>
      </trkpt>
      <trkpt lat="42.5550040" lon="-8.6377990">
        <ele>31.1</ele>
        <time>2021-05-22T10:23:22Z</time>
      </trkpt>
      <trkpt lat="42.5550030" lon="-8.6377970">
        <ele>31.1</ele>
        <time>2021-05-22T10:23:23Z</time>
      </trkpt>
      <trkpt lat="42.5550030" lon="-8.6377940">
        <ele>31.1</ele>
        <time>2021-05-22T10:23:24Z</time>
      </trkpt>
      <trkpt lat="42.5550020" lon="-8.6377920">
        <ele>31.1</ele>
        <time>2021-05-22T10:23:25Z</time>
      </trkpt>
      <trkpt lat="42.5550020" lon="-8.6377890">
        <ele>31.1</ele>
        <time>2021-05-22T10:23:26Z</time>
      </trkpt>
      <trkpt lat="42.5549990" lon="-8.6377820">
        <ele>31.1</ele>
        <time>2021-05-22T10:23:27Z</time>
      </trkpt>
      <trkpt lat="42.5550010" lon="-8.6377710">
        <ele>31.1</ele>
        <time>2021-05-22T10:23:28Z</time>
      </trkpt>
      <trkpt lat="42.5550030" lon="-8.6377630">
        <ele>31.1</ele>
        <time>2021-05-22T10:23:29Z</time>
      </trkpt>
      <trkpt lat="42.5549980" lon="-8.6377580">
        <ele>31.1</ele>
        <time>2021-05-22T10:23:30Z</time>
      </trkpt>
      <trkpt lat="42.5549940" lon="-8.6377560">
        <ele>31.1</ele>
        <time>2021-05-22T10:23:31Z</time>
      </trkpt>
      <trkpt lat="42.5549990" lon="-8.6377440">
        <ele>31.1</ele>
        <time>2021-05-22T10:23:32Z</time>
      </trkpt>
      <trkpt lat="42.5549890" lon="-8.6377190">
        <ele>31.1</ele>
        <time>2021-05-22T10:23:33Z</time>
      </trkpt>
      <trkpt lat="42.5549840" lon="-8.6377080">
        <ele>31.1</ele>
        <time>2021-05-22T10:23:34Z</time>
      </trkpt>
      <trkpt lat="42.5549790" lon="-8.6376980">
        <ele>31.1</ele>
        <time>2021-05-22T10:23:35Z</time>
      </trkpt>
      <trkpt lat="42.5549710" lon="-8.6376870">
        <ele>31.1</ele>
        <time>2021-05-22T10:23:36Z</time>
      </trkpt>
      <trkpt lat="42.5549620" lon="-8.6376700">
        <ele>31.1</ele>
        <time>2021-05-22T10:23:37Z</time>
      </trkpt>
      <trkpt lat="42.5549580" lon="-8.6376640">
        <ele>31.1</ele>
        <time>2021-05-22T10:23:38Z</time>
      </trkpt>
      <trkpt lat="42.5549470" lon="-8.6376530">
        <ele>31.0</ele>
        <time>2021-05-22T10:23:39Z</time>
      </trkpt>
      <trkpt lat="42.5549430" lon="-8.6376370">
        <ele>31.0</ele>
        <time>2021-05-22T10:23:40Z</time>
      </trkpt>
      <trkpt lat="42.5549340" lon="-8.6376280">
        <ele>31.0</ele>
        <time>2021-05-22T10:23:41Z</time>
      </trkpt>
      <trkpt lat="42.5549350" lon="-8.6376140">
        <ele>31.0</ele>
        <time>2021-05-22T10:23:42Z</time>
      </trkpt>
      <trkpt lat="42.5549310" lon="-8.6376050">
        <ele>31.0</ele>
        <time>2021-05-22T10:23:43Z</time>
      </trkpt>
      <trkpt lat="42.5549270" lon="-8.6375980">
        <ele>31.0</ele>
        <time>2021-05-22T10:23:44Z</time>
      </trkpt>
      <trkpt lat="42.5549220" lon="-8.6375820">
        <ele>31.0</ele>
        <time>2021-05-22T10:23:45Z</time>
      </trkpt>
      <trkpt lat="42.5549180" lon="-8.6375640">
        <ele>31.0</ele>
        <time>2021-05-22T10:23:46Z</time>
      </trkpt>
      <trkpt lat="42.5549160" lon="-8.6375460">
        <ele>31.0</ele>
        <time>2021-05-22T10:23:47Z</time>
      </trkpt>
      <trkpt lat="42.5549140" lon="-8.6375340">
        <ele>31.0</ele>
        <time>2021-05-22T10:23:48Z</time>
      </trkpt>
      <trkpt lat="42.5549070" lon="-8.6375150">
        <ele>31.0</ele>
        <time>2021-05-22T10:23:49Z</time>
      </trkpt>
      <trkpt lat="42.5549070" lon="-8.6375000">
        <ele>31.0</ele>
        <time>2021-05-22T10:23:50Z</time>
      </trkpt>
      <trkpt lat="42.5549060" lon="-8.6374860">
        <ele>31.0</ele>
        <time>2021-05-22T10:23:51Z</time>
      </trkpt>
      <trkpt lat="42.5549030" lon="-8.6374680">
        <ele>31.0</ele>
        <time>2021-05-22T10:23:52Z</time>
      </trkpt>
      <trkpt lat="42.5549050" lon="-8.6374530">
        <ele>31.0</ele>
        <time>2021-05-22T10:23:53Z</time>
      </trkpt>
      <trkpt lat="42.5548990" lon="-8.6374430">
        <ele>31.0</ele>
        <time>2021-05-22T10:23:54Z</time>
      </trkpt>
      <trkpt lat="42.5549040" lon="-8.6374280">
        <ele>31.0</ele>
        <time>2021-05-22T10:23:55Z</time>
      </trkpt>
      <trkpt lat="42.5548950" lon="-8.6374120">
        <ele>31.0</ele>
        <time>2021-05-22T10:23:56Z</time>
      </trkpt>
      <trkpt lat="42.5548990" lon="-8.6373830">
        <ele>31.0</ele>
        <time>2021-05-22T10:23:57Z</time>
      </trkpt>
      <trkpt lat="42.5549000" lon="-8.6373730">
        <ele>31.0</ele>
        <time>2021-05-22T10:23:58Z</time>
      </trkpt>
      <trkpt lat="42.5549000" lon="-8.6373620">
        <ele>31.0</ele>
        <time>2021-05-22T10:23:59Z</time>
      </trkpt>
      <trkpt lat="42.5549010" lon="-8.6373490">
        <ele>31.0</ele>
        <time>2021-05-22T10:24:00Z</time>
      </trkpt>
      <trkpt lat="42.5549060" lon="-8.6373280">
        <ele>31.0</ele>
        <time>2021-05-22T10:24:01Z</time>
      </trkpt>
      <trkpt lat="42.5549050" lon="-8.6373180">
        <ele>31.0</ele>
        <time>2021-05-22T10:24:02Z</time>
      </trkpt>
      <trkpt lat="42.5549010" lon="-8.6372890">
        <ele>31.0</ele>
        <time>2021-05-22T10:24:03Z</time>
      </trkpt>
      <trkpt lat="42.5549010" lon="-8.6372790">
        <ele>31.0</ele>
        <time>2021-05-22T10:24:04Z</time>
      </trkpt>
      <trkpt lat="42.5549000" lon="-8.6372680">
        <ele>31.0</ele>
        <time>2021-05-22T10:24:05Z</time>
      </trkpt>
      <trkpt lat="42.5548980" lon="-8.6372480">
        <ele>31.0</ele>
        <time>2021-05-22T10:24:06Z</time>
      </trkpt>
      <trkpt lat="42.5548990" lon="-8.6372360">
        <ele>31.0</ele>
        <time>2021-05-22T10:24:07Z</time>
      </trkpt>
      <trkpt lat="42.5549010" lon="-8.6372200">
        <ele>31.0</ele>
        <time>2021-05-22T10:24:08Z</time>
      </trkpt>
      <trkpt lat="42.5549010" lon="-8.6371920">
        <ele>31.0</ele>
        <time>2021-05-22T10:24:09Z</time>
      </trkpt>
      <trkpt lat="42.5549010" lon="-8.6371790">
        <ele>31.0</ele>
        <time>2021-05-22T10:24:10Z</time>
      </trkpt>
      <trkpt lat="42.5549000" lon="-8.6371660">
        <ele>31.0</ele>
        <time>2021-05-22T10:24:11Z</time>
      </trkpt>
      <trkpt lat="42.5549000" lon="-8.6371540">
        <ele>31.0</ele>
        <time>2021-05-22T10:24:12Z</time>
      </trkpt>
      <trkpt lat="42.5548970" lon="-8.6371360">
        <ele>31.0</ele>
        <time>2021-05-22T10:24:13Z</time>
      </trkpt>
      <trkpt lat="42.5549030" lon="-8.6371260">
        <ele>31.0</ele>
        <time>2021-05-22T10:24:14Z</time>
      </trkpt>
      <trkpt lat="42.5549010" lon="-8.6370950">
        <ele>31.1</ele>
        <time>2021-05-22T10:24:15Z</time>
      </trkpt>
      <trkpt lat="42.5549020" lon="-8.6370830">
        <ele>31.1</ele>
        <time>2021-05-22T10:24:16Z</time>
      </trkpt>
      <trkpt lat="42.5549020" lon="-8.6370700">
        <ele>31.1</ele>
        <time>2021-05-22T10:24:17Z</time>
      </trkpt>
      <trkpt lat="42.5548970" lon="-8.6370550">
        <ele>31.1</ele>
        <time>2021-05-22T10:24:18Z</time>
      </trkpt>
      <trkpt lat="42.5548950" lon="-8.6370410">
        <ele>31.1</ele>
        <time>2021-05-22T10:24:19Z</time>
      </trkpt>
      <trkpt lat="42.5548890" lon="-8.6370230">
        <ele>31.1</ele>
        <time>2021-05-22T10:24:20Z</time>
      </trkpt>
      <trkpt lat="42.5548860" lon="-8.6370050">
        <ele>31.2</ele>
        <time>2021-05-22T10:24:21Z</time>
      </trkpt>
      <trkpt lat="42.5548840" lon="-8.6369890">
        <ele>31.2</ele>
        <time>2021-05-22T10:24:22Z</time>
      </trkpt>
      <trkpt lat="42.5548800" lon="-8.6369830">
        <ele>31.2</ele>
        <time>2021-05-22T10:24:23Z</time>
      </trkpt>
      <trkpt lat="42.5548820" lon="-8.6369520">
        <ele>31.2</ele>
        <time>2021-05-22T10:24:24Z</time>
      </trkpt>
      <trkpt lat="42.5548810" lon="-8.6369400">
        <ele>31.2</ele>
        <time>2021-05-22T10:24:25Z</time>
      </trkpt>
      <trkpt lat="42.5548810" lon="-8.6369270">
        <ele>31.2</ele>
        <time>2021-05-22T10:24:26Z</time>
      </trkpt>
      <trkpt lat="42.5548810" lon="-8.6369160">
        <ele>31.2</ele>
        <time>2021-05-22T10:24:27Z</time>
      </trkpt>
      <trkpt lat="42.5548760" lon="-8.6369020">
        <ele>31.2</ele>
        <time>2021-05-22T10:24:28Z</time>
      </trkpt>
      <trkpt lat="42.5548750" lon="-8.6368870">
        <ele>31.2</ele>
        <time>2021-05-22T10:24:29Z</time>
      </trkpt>
      <trkpt lat="42.5548720" lon="-8.6368650">
        <ele>31.2</ele>
        <time>2021-05-22T10:24:30Z</time>
      </trkpt>
      <trkpt lat="42.5548720" lon="-8.6368470">
        <ele>31.2</ele>
        <time>2021-05-22T10:24:31Z</time>
      </trkpt>
      <trkpt lat="42.5548690" lon="-8.6368360">
        <ele>31.2</ele>
        <time>2021-05-22T10:24:32Z</time>
      </trkpt>
      <trkpt lat="42.5548650" lon="-8.6368170">
        <ele>31.2</ele>
        <time>2021-05-22T10:24:33Z</time>
      </trkpt>
      <trkpt lat="42.5548630" lon="-8.6368060">
        <ele>31.2</ele>
        <time>2021-05-22T10:24:34Z</time>
      </trkpt>
      <trkpt lat="42.5548620" lon="-8.6367850">
        <ele>31.2</ele>
        <time>2021-05-22T10:24:35Z</time>
      </trkpt>
      <trkpt lat="42.5548630" lon="-8.6367680">
        <ele>31.3</ele>
        <time>2021-05-22T10:24:36Z</time>
      </trkpt>
      <trkpt lat="42.5548590" lon="-8.6367380">
        <ele>31.3</ele>
        <time>2021-05-22T10:24:37Z</time>
      </trkpt>
      <trkpt lat="42.5548560" lon="-8.6367290">
        <ele>31.3</ele>
        <time>2021-05-22T10:24:38Z</time>
      </trkpt>
      <trkpt lat="42.5548530" lon="-8.6367190">
        <ele>31.3</ele>
        <time>2021-05-22T10:24:39Z</time>
      </trkpt>
      <trkpt lat="42.5548510" lon="-8.6366930">
        <ele>31.3</ele>
        <time>2021-05-22T10:24:40Z</time>
      </trkpt>
      <trkpt lat="42.5548510" lon="-8.6366810">
        <ele>31.3</ele>
        <time>2021-05-22T10:24:41Z</time>
      </trkpt>
      <trkpt lat="42.5548510" lon="-8.6366700">
        <ele>31.3</ele>
        <time>2021-05-22T10:24:42Z</time>
      </trkpt>
      <trkpt lat="42.5548440" lon="-8.6366580">
        <ele>31.3</ele>
        <time>2021-05-22T10:24:43Z</time>
      </trkpt>
      <trkpt lat="42.5548480" lon="-8.6366330">
        <ele>31.3</ele>
        <time>2021-05-22T10:24:44Z</time>
      </trkpt>
      <trkpt lat="42.5548460" lon="-8.6366200">
        <ele>31.3</ele>
        <time>2021-05-22T10:24:45Z</time>
      </trkpt>
      <trkpt lat="42.5548410" lon="-8.6366060">
        <ele>31.3</ele>
        <time>2021-05-22T10:24:46Z</time>
      </trkpt>
      <trkpt lat="42.5548410" lon="-8.6365920">
        <ele>31.3</ele>
        <time>2021-05-22T10:24:47Z</time>
      </trkpt>
      <trkpt lat="42.5548330" lon="-8.6365820">
        <ele>31.4</ele>
        <time>2021-05-22T10:24:48Z</time>
      </trkpt>
      <trkpt lat="42.5548340" lon="-8.6365630">
        <ele>31.4</ele>
        <time>2021-05-22T10:24:49Z</time>
      </trkpt>
      <trkpt lat="42.5548320" lon="-8.6365490">
        <ele>31.4</ele>
        <time>2021-05-22T10:24:50Z</time>
      </trkpt>
      <trkpt lat="42.5548290" lon="-8.6365360">
        <ele>31.4</ele>
        <time>2021-05-22T10:24:51Z</time>
      </trkpt>
      <trkpt lat="42.5548290" lon="-8.6365230">
        <ele>31.4</ele>
        <time>2021-05-22T10:24:52Z</time>
      </trkpt>
      <trkpt lat="42.5548280" lon="-8.6365100">
        <ele>31.4</ele>
        <time>2021-05-22T10:24:53Z</time>
      </trkpt>
      <trkpt lat="42.5548200" lon="-8.6364850">
        <ele>31.4</ele>
        <time>2021-05-22T10:24:54Z</time>
      </trkpt>
      <trkpt lat="42.5548190" lon="-8.6364740">
        <ele>31.4</ele>
        <time>2021-05-22T10:24:55Z</time>
      </trkpt>
      <trkpt lat="42.5548180" lon="-8.6364620">
        <ele>31.5</ele>
        <time>2021-05-22T10:24:56Z</time>
      </trkpt>
      <trkpt lat="42.5548140" lon="-8.6364370">
        <ele>31.5</ele>
        <time>2021-05-22T10:24:57Z</time>
      </trkpt>
      <trkpt lat="42.5548120" lon="-8.6364270">
        <ele>31.5</ele>
        <time>2021-05-22T10:24:58Z</time>
      </trkpt>
      <trkpt lat="42.5548090" lon="-8.6364170">
        <ele>31.5</ele>
        <time>2021-05-22T10:24:59Z</time>
      </trkpt>
      <trkpt lat="42.5548060" lon="-8.6363790">
        <ele>31.6</ele>
        <time>2021-05-22T10:25:00Z</time>
      </trkpt>
      <trkpt lat="42.5548050" lon="-8.6363660">
        <ele>31.6</ele>
        <time>2021-05-22T10:25:01Z</time>
      </trkpt>
      <trkpt lat="42.5548040" lon="-8.6363530">
        <ele>31.6</ele>
        <time>2021-05-22T10:25:02Z</time>
      </trkpt>
      <trkpt lat="42.5547960" lon="-8.6363440">
        <ele>31.6</ele>
        <time>2021-05-22T10:25:03Z</time>
      </trkpt>
      <trkpt lat="42.5547970" lon="-8.6363290">
        <ele>31.6</ele>
        <time>2021-05-22T10:25:04Z</time>
      </trkpt>
      <trkpt lat="42.5547940" lon="-8.6363150">
        <ele>31.7</ele>
        <time>2021-05-22T10:25:05Z</time>
      </trkpt>
      <trkpt lat="42.5547950" lon="-8.6362980">
        <ele>31.7</ele>
        <time>2021-05-22T10:25:06Z</time>
      </trkpt>
      <trkpt lat="42.5547890" lon="-8.6362840">
        <ele>31.7</ele>
        <time>2021-05-22T10:25:07Z</time>
      </trkpt>
      <trkpt lat="42.5547950" lon="-8.6362640">
        <ele>31.7</ele>
        <time>2021-05-22T10:25:08Z</time>
      </trkpt>
      <trkpt lat="42.5547950" lon="-8.6362410">
        <ele>31.8</ele>
        <time>2021-05-22T10:25:09Z</time>
      </trkpt>
      <trkpt lat="42.5547960" lon="-8.6362280">
        <ele>31.8</ele>
        <time>2021-05-22T10:25:10Z</time>
      </trkpt>
      <trkpt lat="42.5547900" lon="-8.6362190">
        <ele>31.8</ele>
        <time>2021-05-22T10:25:11Z</time>
      </trkpt>
      <trkpt lat="42.5547860" lon="-8.6362010">
        <ele>31.9</ele>
        <time>2021-05-22T10:25:12Z</time>
      </trkpt>
      <trkpt lat="42.5547830" lon="-8.6361850">
        <ele>31.9</ele>
        <time>2021-05-22T10:25:13Z</time>
      </trkpt>
      <trkpt lat="42.5547790" lon="-8.6361600">
        <ele>31.9</ele>
        <time>2021-05-22T10:25:14Z</time>
      </trkpt>
      <trkpt lat="42.5547810" lon="-8.6361410">
        <ele>32.0</ele>
        <time>2021-05-22T10:25:15Z</time>
      </trkpt>
      <trkpt lat="42.5547810" lon="-8.6361180">
        <ele>32.0</ele>
        <time>2021-05-22T10:25:16Z</time>
      </trkpt>
      <trkpt lat="42.5547750" lon="-8.6361000">
        <ele>32.1</ele>
        <time>2021-05-22T10:25:17Z</time>
      </trkpt>
      <trkpt lat="42.5547740" lon="-8.6360850">
        <ele>32.1</ele>
        <time>2021-05-22T10:25:18Z</time>
      </trkpt>
      <trkpt lat="42.5547740" lon="-8.6360720">
        <ele>32.1</ele>
        <time>2021-05-22T10:25:19Z</time>
      </trkpt>
      <trkpt lat="42.5547700" lon="-8.6360450">
        <ele>32.2</ele>
        <time>2021-05-22T10:25:20Z</time>
      </trkpt>
      <trkpt lat="42.5547670" lon="-8.6360450">
        <ele>32.2</ele>
        <time>2021-05-22T10:25:21Z</time>
      </trkpt>
      <trkpt lat="42.5547680" lon="-8.6360330">
        <ele>32.2</ele>
        <time>2021-05-22T10:25:22Z</time>
      </trkpt>
      <trkpt lat="42.5547650" lon="-8.6360160">
        <ele>32.3</ele>
        <time>2021-05-22T10:25:23Z</time>
      </trkpt>
      <trkpt lat="42.5547680" lon="-8.6360050">
        <ele>32.3</ele>
        <time>2021-05-22T10:25:24Z</time>
      </trkpt>
      <trkpt lat="42.5547610" lon="-8.6359940">
        <ele>32.3</ele>
        <time>2021-05-22T10:25:25Z</time>
      </trkpt>
      <trkpt lat="42.5547600" lon="-8.6359730">
        <ele>32.4</ele>
        <time>2021-05-22T10:25:26Z</time>
      </trkpt>
      <trkpt lat="42.5547570" lon="-8.6359620">
        <ele>32.4</ele>
        <time>2021-05-22T10:25:27Z</time>
      </trkpt>
      <trkpt lat="42.5547530" lon="-8.6359490">
        <ele>32.5</ele>
        <time>2021-05-22T10:25:28Z</time>
      </trkpt>
      <trkpt lat="42.5547490" lon="-8.6359310">
        <ele>32.5</ele>
        <time>2021-05-22T10:25:29Z</time>
      </trkpt>
      <trkpt lat="42.5547520" lon="-8.6359230">
        <ele>32.5</ele>
        <time>2021-05-22T10:25:30Z</time>
      </trkpt>
      <trkpt lat="42.5547530" lon="-8.6359070">
        <ele>32.6</ele>
        <time>2021-05-22T10:25:31Z</time>
      </trkpt>
      <trkpt lat="42.5547490" lon="-8.6358900">
        <ele>32.6</ele>
        <time>2021-05-22T10:25:32Z</time>
      </trkpt>
      <trkpt lat="42.5547460" lon="-8.6358710">
        <ele>32.7</ele>
        <time>2021-05-22T10:25:33Z</time>
      </trkpt>
      <trkpt lat="42.5547400" lon="-8.6358460">
        <ele>32.8</ele>
        <time>2021-05-22T10:25:34Z</time>
      </trkpt>
      <trkpt lat="42.5547380" lon="-8.6358350">
        <ele>32.8</ele>
        <time>2021-05-22T10:25:35Z</time>
      </trkpt>
      <trkpt lat="42.5547350" lon="-8.6358240">
        <ele>32.8</ele>
        <time>2021-05-22T10:25:36Z</time>
      </trkpt>
      <trkpt lat="42.5547310" lon="-8.6358120">
        <ele>32.9</ele>
        <time>2021-05-22T10:25:37Z</time>
      </trkpt>
      <trkpt lat="42.5547300" lon="-8.6357990">
        <ele>32.9</ele>
        <time>2021-05-22T10:25:38Z</time>
      </trkpt>
      <trkpt lat="42.5547290" lon="-8.6357760">
        <ele>33.0</ele>
        <time>2021-05-22T10:25:39Z</time>
      </trkpt>
      <trkpt lat="42.5547400" lon="-8.6357490">
        <ele>33.1</ele>
        <time>2021-05-22T10:25:40Z</time>
      </trkpt>
      <trkpt lat="42.5547440" lon="-8.6357380">
        <ele>33.0</ele>
        <time>2021-05-22T10:25:41Z</time>
      </trkpt>
      <trkpt lat="42.5547480" lon="-8.6357280">
        <ele>33.0</ele>
        <time>2021-05-22T10:25:42Z</time>
      </trkpt>
      <trkpt lat="42.5547550" lon="-8.6357160">
        <ele>33.1</ele>
        <time>2021-05-22T10:25:43Z</time>
      </trkpt>
      <trkpt lat="42.5547630" lon="-8.6357070">
        <ele>32.5</ele>
        <time>2021-05-22T10:25:44Z</time>
      </trkpt>
      <trkpt lat="42.5547720" lon="-8.6356960">
        <ele>32.4</ele>
        <time>2021-05-22T10:25:45Z</time>
      </trkpt>
      <trkpt lat="42.5547910" lon="-8.6356750">
        <ele>32.1</ele>
        <time>2021-05-22T10:25:46Z</time>
      </trkpt>
      <trkpt lat="42.5548000" lon="-8.6356650">
        <ele>32.1</ele>
        <time>2021-05-22T10:25:47Z</time>
      </trkpt>
      <trkpt lat="42.5548100" lon="-8.6356540">
        <ele>32.0</ele>
        <time>2021-05-22T10:25:48Z</time>
      </trkpt>
      <trkpt lat="42.5548180" lon="-8.6356450">
        <ele>32.0</ele>
        <time>2021-05-22T10:25:49Z</time>
      </trkpt>
      <trkpt lat="42.5548270" lon="-8.6356450">
        <ele>31.5</ele>
        <time>2021-05-22T10:25:50Z</time>
      </trkpt>
      <trkpt lat="42.5548370" lon="-8.6356450">
        <ele>31.5</ele>
        <time>2021-05-22T10:25:51Z</time>
      </trkpt>
      <trkpt lat="42.5548460" lon="-8.6356450">
        <ele>31.4</ele>
        <time>2021-05-22T10:25:52Z</time>
      </trkpt>
      <trkpt lat="42.5548460" lon="-8.6356550">
        <ele>31.4</ele>
        <time>2021-05-22T10:25:53Z</time>
      </trkpt>
      <trkpt lat="42.5548570" lon="-8.6356630">
        <ele>31.1</ele>
        <time>2021-05-22T10:25:54Z</time>
      </trkpt>
      <trkpt lat="42.5548690" lon="-8.6356700">
        <ele>31.0</ele>
        <time>2021-05-22T10:25:55Z</time>
      </trkpt>
      <trkpt lat="42.5548760" lon="-8.6356780">
        <ele>31.0</ele>
        <time>2021-05-22T10:25:56Z</time>
      </trkpt>
      <trkpt lat="42.5548910" lon="-8.6356850">
        <ele>30.6</ele>
        <time>2021-05-22T10:25:57Z</time>
      </trkpt>
      <trkpt lat="42.5548990" lon="-8.6356930">
        <ele>30.6</ele>
        <time>2021-05-22T10:25:58Z</time>
      </trkpt>
      <trkpt lat="42.5549050" lon="-8.6357040">
        <ele>30.5</ele>
        <time>2021-05-22T10:25:59Z</time>
      </trkpt>
      <trkpt lat="42.5549090" lon="-8.6357100">
        <ele>30.5</ele>
        <time>2021-05-22T10:26:00Z</time>
      </trkpt>
      <trkpt lat="42.5549240" lon="-8.6357220">
        <ele>30.3</ele>
        <time>2021-05-22T10:26:01Z</time>
      </trkpt>
      <trkpt lat="42.5549380" lon="-8.6357320">
        <ele>30.2</ele>
        <time>2021-05-22T10:26:02Z</time>
      </trkpt>
      <trkpt lat="42.5549480" lon="-8.6357380">
        <ele>30.1</ele>
        <time>2021-05-22T10:26:03Z</time>
      </trkpt>
      <trkpt lat="42.5549490" lon="-8.6357470">
        <ele>30.0</ele>
        <time>2021-05-22T10:26:04Z</time>
      </trkpt>
      <trkpt lat="42.5549570" lon="-8.6357610">
        <ele>30.0</ele>
        <time>2021-05-22T10:26:05Z</time>
      </trkpt>
      <trkpt lat="42.5549650" lon="-8.6357670">
        <ele>29.9</ele>
        <time>2021-05-22T10:26:06Z</time>
      </trkpt>
      <trkpt lat="42.5549720" lon="-8.6357740">
        <ele>29.8</ele>
        <time>2021-05-22T10:26:07Z</time>
      </trkpt>
      <trkpt lat="42.5549800" lon="-8.6357800">
        <ele>29.8</ele>
        <time>2021-05-22T10:26:08Z</time>
      </trkpt>
      <trkpt lat="42.5549870" lon="-8.6357900">
        <ele>29.7</ele>
        <time>2021-05-22T10:26:09Z</time>
      </trkpt>
      <trkpt lat="42.5550020" lon="-8.6357980">
        <ele>29.7</ele>
        <time>2021-05-22T10:26:10Z</time>
      </trkpt>
      <trkpt lat="42.5550060" lon="-8.6358020">
        <ele>29.6</ele>
        <time>2021-05-22T10:26:11Z</time>
      </trkpt>
      <trkpt lat="42.5550200" lon="-8.6358090">
        <ele>29.6</ele>
        <time>2021-05-22T10:26:12Z</time>
      </trkpt>
      <trkpt lat="42.5550230" lon="-8.6358130">
        <ele>29.5</ele>
        <time>2021-05-22T10:26:13Z</time>
      </trkpt>
      <trkpt lat="42.5550280" lon="-8.6358080">
        <ele>29.5</ele>
        <time>2021-05-22T10:26:14Z</time>
      </trkpt>
      <trkpt lat="42.5550390" lon="-8.6357990">
        <ele>29.5</ele>
        <time>2021-05-22T10:26:15Z</time>
      </trkpt>
      <trkpt lat="42.5550360" lon="-8.6357940">
        <ele>29.4</ele>
        <time>2021-05-22T10:26:16Z</time>
      </trkpt>
      <trkpt lat="42.5550500" lon="-8.6357820">
        <ele>29.4</ele>
        <time>2021-05-22T10:26:17Z</time>
      </trkpt>
      <trkpt lat="42.5550540" lon="-8.6357610">
        <ele>29.4</ele>
        <time>2021-05-22T10:26:18Z</time>
      </trkpt>
      <trkpt lat="42.5550610" lon="-8.6357290">
        <ele>29.4</ele>
        <time>2021-05-22T10:26:19Z</time>
      </trkpt>
      <trkpt lat="42.5550620" lon="-8.6357150">
        <ele>29.4</ele>
        <time>2021-05-22T10:26:21Z</time>
      </trkpt>
      <trkpt lat="42.5550640" lon="-8.6357000">
        <ele>29.4</ele>
        <time>2021-05-22T10:26:22Z</time>
      </trkpt>
      <trkpt lat="42.5550650" lon="-8.6356860">
        <ele>29.4</ele>
        <time>2021-05-22T10:26:23Z</time>
      </trkpt>
      <trkpt lat="42.5550660" lon="-8.6356710">
        <ele>29.4</ele>
        <time>2021-05-22T10:26:24Z</time>
      </trkpt>
      <trkpt lat="42.5550760" lon="-8.6356590">
        <ele>29.4</ele>
        <time>2021-05-22T10:26:25Z</time>
      </trkpt>
      <trkpt lat="42.5550780" lon="-8.6356410">
        <ele>29.4</ele>
        <time>2021-05-22T10:26:26Z</time>
      </trkpt>
      <trkpt lat="42.5550840" lon="-8.6356280">
        <ele>29.4</ele>
        <time>2021-05-22T10:26:27Z</time>
      </trkpt>
      <trkpt lat="42.5550850" lon="-8.6356030">
        <ele>29.4</ele>
        <time>2021-05-22T10:26:28Z</time>
      </trkpt>
      <trkpt lat="42.5550890" lon="-8.6355880">
        <ele>29.4</ele>
        <time>2021-05-22T10:26:29Z</time>
      </trkpt>
      <trkpt lat="42.5550920" lon="-8.6355580">
        <ele>29.4</ele>
        <time>2021-05-22T10:26:30Z</time>
      </trkpt>
      <trkpt lat="42.5550940" lon="-8.6355460">
        <ele>29.4</ele>
        <time>2021-05-22T10:26:31Z</time>
      </trkpt>
      <trkpt lat="42.5550950" lon="-8.6355350">
        <ele>29.4</ele>
        <time>2021-05-22T10:26:32Z</time>
      </trkpt>
      <trkpt lat="42.5550940" lon="-8.6355240">
        <ele>29.4</ele>
        <time>2021-05-22T10:26:33Z</time>
      </trkpt>
      <trkpt lat="42.5550950" lon="-8.6355050">
        <ele>29.4</ele>
        <time>2021-05-22T10:26:34Z</time>
      </trkpt>
      <trkpt lat="42.5550910" lon="-8.6354890">
        <ele>29.4</ele>
        <time>2021-05-22T10:26:35Z</time>
      </trkpt>
      <trkpt lat="42.5550790" lon="-8.6354620">
        <ele>29.4</ele>
        <time>2021-05-22T10:26:36Z</time>
      </trkpt>
      <trkpt lat="42.5550750" lon="-8.6354490">
        <ele>29.4</ele>
        <time>2021-05-22T10:26:37Z</time>
      </trkpt>
      <trkpt lat="42.5550700" lon="-8.6354360">
        <ele>29.4</ele>
        <time>2021-05-22T10:26:38Z</time>
      </trkpt>
      <trkpt lat="42.5550650" lon="-8.6354230">
        <ele>29.4</ele>
        <time>2021-05-22T10:26:39Z</time>
      </trkpt>
      <trkpt lat="42.5550590" lon="-8.6353950">
        <ele>29.4</ele>
        <time>2021-05-22T10:26:40Z</time>
      </trkpt>
      <trkpt lat="42.5550540" lon="-8.6353850">
        <ele>29.4</ele>
        <time>2021-05-22T10:26:41Z</time>
      </trkpt>
      <trkpt lat="42.5550480" lon="-8.6353730">
        <ele>29.4</ele>
        <time>2021-05-22T10:26:42Z</time>
      </trkpt>
      <trkpt lat="42.5550390" lon="-8.6353670">
        <ele>29.4</ele>
        <time>2021-05-22T10:26:43Z</time>
      </trkpt>
      <trkpt lat="42.5550340" lon="-8.6353580">
        <ele>29.4</ele>
        <time>2021-05-22T10:26:44Z</time>
      </trkpt>
      <trkpt lat="42.5550290" lon="-8.6353490">
        <ele>29.4</ele>
        <time>2021-05-22T10:26:45Z</time>
      </trkpt>
      <trkpt lat="42.5550250" lon="-8.6353410">
        <ele>29.4</ele>
        <time>2021-05-22T10:26:46Z</time>
      </trkpt>
      <trkpt lat="42.5550190" lon="-8.6353240">
        <ele>29.4</ele>
        <time>2021-05-22T10:26:47Z</time>
      </trkpt>
      <trkpt lat="42.5550210" lon="-8.6353170">
        <ele>29.4</ele>
        <time>2021-05-22T10:26:48Z</time>
      </trkpt>
      <trkpt lat="42.5550160" lon="-8.6353030">
        <ele>29.4</ele>
        <time>2021-05-22T10:26:49Z</time>
      </trkpt>
      <trkpt lat="42.5550140" lon="-8.6352900">
        <ele>29.4</ele>
        <time>2021-05-22T10:26:50Z</time>
      </trkpt>
      <trkpt lat="42.5550040" lon="-8.6352810">
        <ele>29.4</ele>
        <time>2021-05-22T10:26:51Z</time>
      </trkpt>
      <trkpt lat="42.5550020" lon="-8.6352700">
        <ele>29.4</ele>
        <time>2021-05-22T10:26:52Z</time>
      </trkpt>
      <trkpt lat="42.5549980" lon="-8.6352640">
        <ele>29.4</ele>
        <time>2021-05-22T10:26:53Z</time>
      </trkpt>
      <trkpt lat="42.5549890" lon="-8.6352500">
        <ele>29.4</ele>
        <time>2021-05-22T10:26:54Z</time>
      </trkpt>
      <trkpt lat="42.5549820" lon="-8.6352370">
        <ele>29.4</ele>
        <time>2021-05-22T10:26:55Z</time>
      </trkpt>
      <trkpt lat="42.5549800" lon="-8.6352270">
        <ele>29.4</ele>
        <time>2021-05-22T10:26:56Z</time>
      </trkpt>
      <trkpt lat="42.5549760" lon="-8.6352160">
        <ele>29.4</ele>
        <time>2021-05-22T10:26:57Z</time>
      </trkpt>
      <trkpt lat="42.5549580" lon="-8.6351970">
        <ele>29.4</ele>
        <time>2021-05-22T10:26:58Z</time>
      </trkpt>
      <trkpt lat="42.5549530" lon="-8.6351850">
        <ele>29.4</ele>
        <time>2021-05-22T10:26:59Z</time>
      </trkpt>
      <trkpt lat="42.5549490" lon="-8.6351720">
        <ele>29.4</ele>
        <time>2021-05-22T10:27:00Z</time>
      </trkpt>
      <trkpt lat="42.5549360" lon="-8.6351590">
        <ele>29.4</ele>
        <time>2021-05-22T10:27:01Z</time>
      </trkpt>
      <trkpt lat="42.5549300" lon="-8.6351560">
        <ele>29.4</ele>
        <time>2021-05-22T10:27:02Z</time>
      </trkpt>
      <trkpt lat="42.5549330" lon="-8.6351380">
        <ele>29.4</ele>
        <time>2021-05-22T10:27:03Z</time>
      </trkpt>
      <trkpt lat="42.5549160" lon="-8.6351150">
        <ele>29.4</ele>
        <time>2021-05-22T10:27:04Z</time>
      </trkpt>
      <trkpt lat="42.5549130" lon="-8.6351060">
        <ele>29.4</ele>
        <time>2021-05-22T10:27:05Z</time>
      </trkpt>
      <trkpt lat="42.5549090" lon="-8.6350960">
        <ele>29.4</ele>
        <time>2021-05-22T10:27:06Z</time>
      </trkpt>
      <trkpt lat="42.5549050" lon="-8.6350870">
        <ele>29.4</ele>
        <time>2021-05-22T10:27:07Z</time>
      </trkpt>
      <trkpt lat="42.5548970" lon="-8.6350700">
        <ele>29.4</ele>
        <time>2021-05-22T10:27:08Z</time>
      </trkpt>
      <trkpt lat="42.5548880" lon="-8.6350580">
        <ele>29.4</ele>
        <time>2021-05-22T10:27:09Z</time>
      </trkpt>
      <trkpt lat="42.5548760" lon="-8.6350390">
        <ele>29.4</ele>
        <time>2021-05-22T10:27:10Z</time>
      </trkpt>
      <trkpt lat="42.5548700" lon="-8.6350300">
        <ele>29.4</ele>
        <time>2021-05-22T10:27:11Z</time>
      </trkpt>
      <trkpt lat="42.5548630" lon="-8.6350210">
        <ele>29.4</ele>
        <time>2021-05-22T10:27:12Z</time>
      </trkpt>
      <trkpt lat="42.5548580" lon="-8.6350120">
        <ele>29.4</ele>
        <time>2021-05-22T10:27:13Z</time>
      </trkpt>
      <trkpt lat="42.5548550" lon="-8.6350010">
        <ele>29.5</ele>
        <time>2021-05-22T10:27:14Z</time>
      </trkpt>
      <trkpt lat="42.5548520" lon="-8.6349850">
        <ele>29.5</ele>
        <time>2021-05-22T10:27:15Z</time>
      </trkpt>
      <trkpt lat="42.5548460" lon="-8.6349680">
        <ele>29.5</ele>
        <time>2021-05-22T10:27:16Z</time>
      </trkpt>
      <trkpt lat="42.5548440" lon="-8.6349540">
        <ele>29.5</ele>
        <time>2021-05-22T10:27:17Z</time>
      </trkpt>
      <trkpt lat="42.5548450" lon="-8.6349380">
        <ele>29.5</ele>
        <time>2021-05-22T10:27:18Z</time>
      </trkpt>
      <trkpt lat="42.5548340" lon="-8.6349150">
        <ele>29.5</ele>
        <time>2021-05-22T10:27:19Z</time>
      </trkpt>
      <trkpt lat="42.5548330" lon="-8.6349020">
        <ele>29.5</ele>
        <time>2021-05-22T10:27:20Z</time>
      </trkpt>
      <trkpt lat="42.5548320" lon="-8.6348900">
        <ele>29.5</ele>
        <time>2021-05-22T10:27:21Z</time>
      </trkpt>
      <trkpt lat="42.5548280" lon="-8.6348650">
        <ele>29.5</ele>
        <time>2021-05-22T10:27:22Z</time>
      </trkpt>
      <trkpt lat="42.5548260" lon="-8.6348540">
        <ele>29.5</ele>
        <time>2021-05-22T10:27:23Z</time>
      </trkpt>
      <trkpt lat="42.5548240" lon="-8.6348420">
        <ele>29.5</ele>
        <time>2021-05-22T10:27:24Z</time>
      </trkpt>
      <trkpt lat="42.5548180" lon="-8.6348140">
        <ele>29.5</ele>
        <time>2021-05-22T10:27:25Z</time>
      </trkpt>
      <trkpt lat="42.5548160" lon="-8.6348030">
        <ele>29.5</ele>
        <time>2021-05-22T10:27:26Z</time>
      </trkpt>
      <trkpt lat="42.5548140" lon="-8.6347920">
        <ele>29.5</ele>
        <time>2021-05-22T10:27:27Z</time>
      </trkpt>
      <trkpt lat="42.5548130" lon="-8.6347740">
        <ele>29.6</ele>
        <time>2021-05-22T10:27:28Z</time>
      </trkpt>
      <trkpt lat="42.5548190" lon="-8.6347490">
        <ele>29.6</ele>
        <time>2021-05-22T10:27:29Z</time>
      </trkpt>
      <trkpt lat="42.5548220" lon="-8.6347220">
        <ele>29.6</ele>
        <time>2021-05-22T10:27:30Z</time>
      </trkpt>
      <trkpt lat="42.5548210" lon="-8.6347090">
        <ele>29.6</ele>
        <time>2021-05-22T10:27:31Z</time>
      </trkpt>
      <trkpt lat="42.5548220" lon="-8.6346800">
        <ele>29.6</ele>
        <time>2021-05-22T10:27:32Z</time>
      </trkpt>
      <trkpt lat="42.5548190" lon="-8.6346650">
        <ele>29.6</ele>
        <time>2021-05-22T10:27:33Z</time>
      </trkpt>
      <trkpt lat="42.5548250" lon="-8.6346460">
        <ele>29.6</ele>
        <time>2021-05-22T10:27:34Z</time>
      </trkpt>
      <trkpt lat="42.5548240" lon="-8.6346370">
        <ele>29.6</ele>
        <time>2021-05-22T10:27:35Z</time>
      </trkpt>
      <trkpt lat="42.5548250" lon="-8.6346210">
        <ele>29.7</ele>
        <time>2021-05-22T10:27:36Z</time>
      </trkpt>
      <trkpt lat="42.5548310" lon="-8.6346000">
        <ele>29.7</ele>
        <time>2021-05-22T10:27:37Z</time>
      </trkpt>
      <trkpt lat="42.5548360" lon="-8.6345840">
        <ele>29.7</ele>
        <time>2021-05-22T10:27:38Z</time>
      </trkpt>
      <trkpt lat="42.5548410" lon="-8.6345680">
        <ele>29.7</ele>
        <time>2021-05-22T10:27:39Z</time>
      </trkpt>
      <trkpt lat="42.5548330" lon="-8.6345510">
        <ele>29.7</ele>
        <time>2021-05-22T10:27:40Z</time>
      </trkpt>
      <trkpt lat="42.5548370" lon="-8.6345380">
        <ele>29.7</ele>
        <time>2021-05-22T10:27:41Z</time>
      </trkpt>
      <trkpt lat="42.5548380" lon="-8.6345240">
        <ele>29.7</ele>
        <time>2021-05-22T10:27:42Z</time>
      </trkpt>
      <trkpt lat="42.5548350" lon="-8.6344940">
        <ele>29.8</ele>
        <time>2021-05-22T10:27:43Z</time>
      </trkpt>
      <trkpt lat="42.5548350" lon="-8.6344840">
        <ele>29.8</ele>
        <time>2021-05-22T10:27:44Z</time>
      </trkpt>
      <trkpt lat="42.5548340" lon="-8.6344730">
        <ele>29.8</ele>
        <time>2021-05-22T10:27:45Z</time>
      </trkpt>
      <trkpt lat="42.5548370" lon="-8.6344600">
        <ele>29.8</ele>
        <time>2021-05-22T10:27:46Z</time>
      </trkpt>
      <trkpt lat="42.5548400" lon="-8.6344390">
        <ele>29.8</ele>
        <time>2021-05-22T10:27:47Z</time>
      </trkpt>
      <trkpt lat="42.5548410" lon="-8.6344330">
        <ele>29.8</ele>
        <time>2021-05-22T10:27:48Z</time>
      </trkpt>
      <trkpt lat="42.5548510" lon="-8.6344130">
        <ele>29.8</ele>
        <time>2021-05-22T10:27:49Z</time>
      </trkpt>
      <trkpt lat="42.5548560" lon="-8.6344030">
        <ele>29.9</ele>
        <time>2021-05-22T10:27:50Z</time>
      </trkpt>
      <trkpt lat="42.5548580" lon="-8.6343950">
        <ele>29.9</ele>
        <time>2021-05-22T10:27:51Z</time>
      </trkpt>
      <trkpt lat="42.5548640" lon="-8.6343650">
        <ele>29.9</ele>
        <time>2021-05-22T10:27:52Z</time>
      </trkpt>
      <trkpt lat="42.5548690" lon="-8.6343540">
        <ele>29.9</ele>
        <time>2021-05-22T10:27:53Z</time>
      </trkpt>
      <trkpt lat="42.5548740" lon="-8.6343440">
        <ele>29.9</ele>
        <time>2021-05-22T10:27:54Z</time>
      </trkpt>
      <trkpt lat="42.5548760" lon="-8.6343250">
        <ele>30.0</ele>
        <time>2021-05-22T10:27:55Z</time>
      </trkpt>
      <trkpt lat="42.5548900" lon="-8.6343050">
        <ele>30.0</ele>
        <time>2021-05-22T10:27:56Z</time>
      </trkpt>
      <trkpt lat="42.5548900" lon="-8.6342770">
        <ele>30.0</ele>
        <time>2021-05-22T10:27:57Z</time>
      </trkpt>
      <trkpt lat="42.5548920" lon="-8.6342640">
        <ele>30.0</ele>
        <time>2021-05-22T10:27:58Z</time>
      </trkpt>
      <trkpt lat="42.5548950" lon="-8.6342510">
        <ele>30.1</ele>
        <time>2021-05-22T10:27:59Z</time>
      </trkpt>
      <trkpt lat="42.5549030" lon="-8.6342370">
        <ele>30.1</ele>
        <time>2021-05-22T10:28:00Z</time>
      </trkpt>
      <trkpt lat="42.5549080" lon="-8.6342140">
        <ele>30.1</ele>
        <time>2021-05-22T10:28:01Z</time>
      </trkpt>
      <trkpt lat="42.5549100" lon="-8.6342060">
        <ele>30.1</ele>
        <time>2021-05-22T10:28:02Z</time>
      </trkpt>
      <trkpt lat="42.5549200" lon="-8.6341900">
        <ele>30.2</ele>
        <time>2021-05-22T10:28:03Z</time>
      </trkpt>
      <trkpt lat="42.5549220" lon="-8.6341760">
        <ele>30.2</ele>
        <time>2021-05-22T10:28:04Z</time>
      </trkpt>
      <trkpt lat="42.5549270" lon="-8.6341560">
        <ele>30.2</ele>
        <time>2021-05-22T10:28:05Z</time>
      </trkpt>
      <trkpt lat="42.5549330" lon="-8.6341370">
        <ele>30.2</ele>
        <time>2021-05-22T10:28:06Z</time>
      </trkpt>
      <trkpt lat="42.5549340" lon="-8.6341140">
        <ele>30.3</ele>
        <time>2021-05-22T10:28:07Z</time>
      </trkpt>
      <trkpt lat="42.5549320" lon="-8.6341050">
        <ele>30.3</ele>
        <time>2021-05-22T10:28:08Z</time>
      </trkpt>
      <trkpt lat="42.5549300" lon="-8.6340960">
        <ele>30.3</ele>
        <time>2021-05-22T10:28:09Z</time>
      </trkpt>
      <trkpt lat="42.5549280" lon="-8.6340870">
        <ele>30.3</ele>
        <time>2021-05-22T10:28:10Z</time>
      </trkpt>
      <trkpt lat="42.5549320" lon="-8.6340600">
        <ele>30.3</ele>
        <time>2021-05-22T10:28:11Z</time>
      </trkpt>
      <trkpt lat="42.5549300" lon="-8.6340450">
        <ele>30.4</ele>
        <time>2021-05-22T10:28:12Z</time>
      </trkpt>
      <trkpt lat="42.5549300" lon="-8.6340280">
        <ele>30.4</ele>
        <time>2021-05-22T10:28:13Z</time>
      </trkpt>
      <trkpt lat="42.5549270" lon="-8.6340140">
        <ele>30.4</ele>
        <time>2021-05-22T10:28:14Z</time>
      </trkpt>
      <trkpt lat="42.5549220" lon="-8.6340000">
        <ele>30.5</ele>
        <time>2021-05-22T10:28:15Z</time>
      </trkpt>
      <trkpt lat="42.5549290" lon="-8.6339880">
        <ele>30.5</ele>
        <time>2021-05-22T10:28:16Z</time>
      </trkpt>
      <trkpt lat="42.5549270" lon="-8.6339720">
        <ele>30.5</ele>
        <time>2021-05-22T10:28:17Z</time>
      </trkpt>
      <trkpt lat="42.5549270" lon="-8.6339600">
        <ele>30.6</ele>
        <time>2021-05-22T10:28:18Z</time>
      </trkpt>
      <trkpt lat="42.5549240" lon="-8.6339390">
        <ele>30.6</ele>
        <time>2021-05-22T10:28:19Z</time>
      </trkpt>
      <trkpt lat="42.5549270" lon="-8.6339320">
        <ele>30.6</ele>
        <time>2021-05-22T10:28:20Z</time>
      </trkpt>
      <trkpt lat="42.5549180" lon="-8.6339150">
        <ele>30.7</ele>
        <time>2021-05-22T10:28:21Z</time>
      </trkpt>
      <trkpt lat="42.5549220" lon="-8.6339070">
        <ele>30.7</ele>
        <time>2021-05-22T10:28:22Z</time>
      </trkpt>
      <trkpt lat="42.5549190" lon="-8.6338850">
        <ele>30.8</ele>
        <time>2021-05-22T10:28:23Z</time>
      </trkpt>
      <trkpt lat="42.5549160" lon="-8.6338750">
        <ele>30.8</ele>
        <time>2021-05-22T10:28:24Z</time>
      </trkpt>
      <trkpt lat="42.5549200" lon="-8.6338540">
        <ele>30.9</ele>
        <time>2021-05-22T10:28:26Z</time>
      </trkpt>
      <trkpt lat="42.5549210" lon="-8.6338340">
        <ele>30.9</ele>
        <time>2021-05-22T10:28:27Z</time>
      </trkpt>
      <trkpt lat="42.5549240" lon="-8.6338120">
        <ele>31.0</ele>
        <time>2021-05-22T10:28:28Z</time>
      </trkpt>
      <trkpt lat="42.5549210" lon="-8.6337920">
        <ele>31.0</ele>
        <time>2021-05-22T10:28:29Z</time>
      </trkpt>
      <trkpt lat="42.5549070" lon="-8.6337680">
        <ele>31.1</ele>
        <time>2021-05-22T10:28:30Z</time>
      </trkpt>
      <trkpt lat="42.5549020" lon="-8.6337600">
        <ele>31.2</ele>
        <time>2021-05-22T10:28:31Z</time>
      </trkpt>
      <trkpt lat="42.5548970" lon="-8.6337510">
        <ele>31.2</ele>
        <time>2021-05-22T10:28:32Z</time>
      </trkpt>
      <trkpt lat="42.5548940" lon="-8.6337370">
        <ele>31.2</ele>
        <time>2021-05-22T10:28:33Z</time>
      </trkpt>
      <trkpt lat="42.5548880" lon="-8.6337160">
        <ele>31.3</ele>
        <time>2021-05-22T10:28:34Z</time>
      </trkpt>
      <trkpt lat="42.5548820" lon="-8.6336870">
        <ele>31.4</ele>
        <time>2021-05-22T10:28:35Z</time>
      </trkpt>
      <trkpt lat="42.5548800" lon="-8.6336750">
        <ele>31.5</ele>
        <time>2021-05-22T10:28:36Z</time>
      </trkpt>
      <trkpt lat="42.5548780" lon="-8.6336620">
        <ele>31.5</ele>
        <time>2021-05-22T10:28:37Z</time>
      </trkpt>
      <trkpt lat="42.5548730" lon="-8.6336520">
        <ele>31.5</ele>
        <time>2021-05-22T10:28:38Z</time>
      </trkpt>
      <trkpt lat="42.5548680" lon="-8.6336390">
        <ele>31.6</ele>
        <time>2021-05-22T10:28:39Z</time>
      </trkpt>
      <trkpt lat="42.5548610" lon="-8.6336330">
        <ele>31.6</ele>
        <time>2021-05-22T10:28:40Z</time>
      </trkpt>
      <trkpt lat="42.5548510" lon="-8.6336170">
        <ele>31.7</ele>
        <time>2021-05-22T10:28:41Z</time>
      </trkpt>
      <trkpt lat="42.5548540" lon="-8.6336030">
        <ele>31.8</ele>
        <time>2021-05-22T10:28:42Z</time>
      </trkpt>
      <trkpt lat="42.5548480" lon="-8.6335880">
        <ele>31.8</ele>
        <time>2021-05-22T10:28:43Z</time>
      </trkpt>
      <trkpt lat="42.5548450" lon="-8.6335800">
        <ele>31.9</ele>
        <time>2021-05-22T10:28:44Z</time>
      </trkpt>
      <trkpt lat="42.5548350" lon="-8.6335520">
        <ele>32.0</ele>
        <time>2021-05-22T10:28:45Z</time>
      </trkpt>
      <trkpt lat="42.5548350" lon="-8.6335370">
        <ele>32.0</ele>
        <time>2021-05-22T10:28:46Z</time>
      </trkpt>
      <trkpt lat="42.5548330" lon="-8.6335240">
        <ele>32.1</ele>
        <time>2021-05-22T10:28:47Z</time>
      </trkpt>
      <trkpt lat="42.5548330" lon="-8.6335080">
        <ele>32.1</ele>
        <time>2021-05-22T10:28:48Z</time>
      </trkpt>
      <trkpt lat="42.5548270" lon="-8.6334830">
        <ele>32.2</ele>
        <time>2021-05-22T10:28:49Z</time>
      </trkpt>
      <trkpt lat="42.5548240" lon="-8.6334700">
        <ele>32.3</ele>
        <time>2021-05-22T10:28:50Z</time>
      </trkpt>
      <trkpt lat="42.5548200" lon="-8.6334580">
        <ele>32.4</ele>
        <time>2021-05-22T10:28:51Z</time>
      </trkpt>
      <trkpt lat="42.5548160" lon="-8.6334430">
        <ele>32.4</ele>
        <time>2021-05-22T10:28:52Z</time>
      </trkpt>
      <trkpt lat="42.5548130" lon="-8.6334290">
        <ele>32.5</ele>
        <time>2021-05-22T10:28:53Z</time>
      </trkpt>
      <trkpt lat="42.5548100" lon="-8.6334130">
        <ele>32.5</ele>
        <time>2021-05-22T10:28:54Z</time>
      </trkpt>
      <trkpt lat="42.5548120" lon="-8.6333930">
        <ele>32.6</ele>
        <time>2021-05-22T10:28:55Z</time>
      </trkpt>
      <trkpt lat="42.5548170" lon="-8.6333820">
        <ele>32.7</ele>
        <time>2021-05-22T10:28:56Z</time>
      </trkpt>
      <trkpt lat="42.5548210" lon="-8.6333710">
        <ele>32.7</ele>
        <time>2021-05-22T10:28:57Z</time>
      </trkpt>
      <trkpt lat="42.5548260" lon="-8.6333600">
        <ele>32.7</ele>
        <time>2021-05-22T10:28:58Z</time>
      </trkpt>
      <trkpt lat="42.5548320" lon="-8.6333440">
        <ele>32.8</ele>
        <time>2021-05-22T10:28:59Z</time>
      </trkpt>
      <trkpt lat="42.5548370" lon="-8.6333260">
        <ele>32.9</ele>
        <time>2021-05-22T10:29:00Z</time>
      </trkpt>
      <trkpt lat="42.5548410" lon="-8.6333120">
        <ele>32.9</ele>
        <time>2021-05-22T10:29:01Z</time>
      </trkpt>
      <trkpt lat="42.5548490" lon="-8.6333050">
        <ele>33.0</ele>
        <time>2021-05-22T10:29:02Z</time>
      </trkpt>
      <trkpt lat="42.5548550" lon="-8.6332910">
        <ele>33.0</ele>
        <time>2021-05-22T10:29:03Z</time>
      </trkpt>
      <trkpt lat="42.5548660" lon="-8.6332840">
        <ele>33.1</ele>
        <time>2021-05-22T10:29:04Z</time>
      </trkpt>
      <trkpt lat="42.5548720" lon="-8.6332750">
        <ele>33.1</ele>
        <time>2021-05-22T10:29:05Z</time>
      </trkpt>
      <trkpt lat="42.5548830" lon="-8.6332640">
        <ele>33.2</ele>
        <time>2021-05-22T10:29:06Z</time>
      </trkpt>
      <trkpt lat="42.5549000" lon="-8.6332530">
        <ele>33.2</ele>
        <time>2021-05-22T10:29:07Z</time>
      </trkpt>
      <trkpt lat="42.5549100" lon="-8.6332480">
        <ele>33.3</ele>
        <time>2021-05-22T10:29:08Z</time>
      </trkpt>
      <trkpt lat="42.5549190" lon="-8.6332440">
        <ele>33.3</ele>
        <time>2021-05-22T10:29:09Z</time>
      </trkpt>
      <trkpt lat="42.5549260" lon="-8.6332420">
        <ele>33.3</ele>
        <time>2021-05-22T10:29:10Z</time>
      </trkpt>
      <trkpt lat="42.5549420" lon="-8.6332320">
        <ele>33.4</ele>
        <time>2021-05-22T10:29:11Z</time>
      </trkpt>
      <trkpt lat="42.5549510" lon="-8.6332350">
        <ele>33.4</ele>
        <time>2021-05-22T10:29:12Z</time>
      </trkpt>
      <trkpt lat="42.5549620" lon="-8.6332290">
        <ele>33.5</ele>
        <time>2021-05-22T10:29:13Z</time>
      </trkpt>
      <trkpt lat="42.5549780" lon="-8.6332170">
        <ele>33.5</ele>
        <time>2021-05-22T10:29:14Z</time>
      </trkpt>
      <trkpt lat="42.5549850" lon="-8.6332150">
        <ele>33.5</ele>
        <time>2021-05-22T10:29:15Z</time>
      </trkpt>
      <trkpt lat="42.5549910" lon="-8.6332030">
        <ele>33.9</ele>
        <time>2021-05-22T10:29:16Z</time>
      </trkpt>
      <trkpt lat="42.5549980" lon="-8.6331970">
        <ele>33.9</ele>
        <time>2021-05-22T10:29:17Z</time>
      </trkpt>
      <trkpt lat="42.5550010" lon="-8.6331910">
        <ele>33.9</ele>
        <time>2021-05-22T10:29:18Z</time>
      </trkpt>
      <trkpt lat="42.5550020" lon="-8.6331740">
        <ele>33.9</ele>
        <time>2021-05-22T10:29:19Z</time>
      </trkpt>
      <trkpt lat="42.5549990" lon="-8.6331560">
        <ele>33.9</ele>
        <time>2021-05-22T10:29:20Z</time>
      </trkpt>
      <trkpt lat="42.5549850" lon="-8.6331610">
        <ele>34.0</ele>
        <time>2021-05-22T10:29:21Z</time>
      </trkpt>
      <trkpt lat="42.5549770" lon="-8.6331280">
        <ele>34.0</ele>
        <time>2021-05-22T10:29:22Z</time>
      </trkpt>
      <trkpt lat="42.5549730" lon="-8.6331180">
        <ele>34.0</ele>
        <time>2021-05-22T10:29:23Z</time>
      </trkpt>
      <trkpt lat="42.5549680" lon="-8.6331080">
        <ele>34.1</ele>
        <time>2021-05-22T10:29:24Z</time>
      </trkpt>
      <trkpt lat="42.5549550" lon="-8.6330880">
        <ele>34.8</ele>
        <time>2021-05-22T10:29:25Z</time>
      </trkpt>
      <trkpt lat="42.5549490" lon="-8.6330800">
        <ele>34.8</ele>
        <time>2021-05-22T10:29:26Z</time>
      </trkpt>
      <trkpt lat="42.5549440" lon="-8.6330710">
        <ele>34.8</ele>
        <time>2021-05-22T10:29:27Z</time>
      </trkpt>
      <trkpt lat="42.5549350" lon="-8.6330560">
        <ele>34.9</ele>
        <time>2021-05-22T10:29:28Z</time>
      </trkpt>
      <trkpt lat="42.5549320" lon="-8.6330450">
        <ele>34.9</ele>
        <time>2021-05-22T10:29:29Z</time>
      </trkpt>
      <trkpt lat="42.5549240" lon="-8.6330310">
        <ele>34.9</ele>
        <time>2021-05-22T10:29:30Z</time>
      </trkpt>
      <trkpt lat="42.5549210" lon="-8.6330120">
        <ele>35.0</ele>
        <time>2021-05-22T10:29:31Z</time>
      </trkpt>
      <trkpt lat="42.5549200" lon="-8.6329990">
        <ele>35.0</ele>
        <time>2021-05-22T10:29:32Z</time>
      </trkpt>
      <trkpt lat="42.5549190" lon="-8.6329860">
        <ele>35.0</ele>
        <time>2021-05-22T10:29:33Z</time>
      </trkpt>
      <trkpt lat="42.5549180" lon="-8.6329730">
        <ele>35.1</ele>
        <time>2021-05-22T10:29:34Z</time>
      </trkpt>
      <trkpt lat="42.5549140" lon="-8.6329670">
        <ele>35.1</ele>
        <time>2021-05-22T10:29:35Z</time>
      </trkpt>
      <trkpt lat="42.5549110" lon="-8.6329420">
        <ele>35.1</ele>
        <time>2021-05-22T10:29:36Z</time>
      </trkpt>
      <trkpt lat="42.5549100" lon="-8.6329270">
        <ele>35.2</ele>
        <time>2021-05-22T10:29:37Z</time>
      </trkpt>
      <trkpt lat="42.5549060" lon="-8.6329060">
        <ele>35.2</ele>
        <time>2021-05-22T10:29:38Z</time>
      </trkpt>
      <trkpt lat="42.5549070" lon="-8.6328830">
        <ele>35.3</ele>
        <time>2021-05-22T10:29:39Z</time>
      </trkpt>
      <trkpt lat="42.5548960" lon="-8.6328610">
        <ele>35.3</ele>
        <time>2021-05-22T10:29:40Z</time>
      </trkpt>
      <trkpt lat="42.5548950" lon="-8.6328490">
        <ele>35.4</ele>
        <time>2021-05-22T10:29:41Z</time>
      </trkpt>
      <trkpt lat="42.5548930" lon="-8.6328370">
        <ele>35.4</ele>
        <time>2021-05-22T10:29:42Z</time>
      </trkpt>
      <trkpt lat="42.5548910" lon="-8.6328160">
        <ele>35.4</ele>
        <time>2021-05-22T10:29:43Z</time>
      </trkpt>
      <trkpt lat="42.5548880" lon="-8.6328060">
        <ele>35.5</ele>
        <time>2021-05-22T10:29:44Z</time>
      </trkpt>
      <trkpt lat="42.5548860" lon="-8.6327970">
        <ele>35.5</ele>
        <time>2021-05-22T10:29:45Z</time>
      </trkpt>
      <trkpt lat="42.5548830" lon="-8.6327880">
        <ele>35.5</ele>
        <time>2021-05-22T10:29:46Z</time>
      </trkpt>
      <trkpt lat="42.5548770" lon="-8.6327650">
        <ele>35.6</ele>
        <time>2021-05-22T10:29:47Z</time>
      </trkpt>
      <trkpt lat="42.5548770" lon="-8.6327590">
        <ele>35.6</ele>
        <time>2021-05-22T10:29:48Z</time>
      </trkpt>
      <trkpt lat="42.5548790" lon="-8.6327440">
        <ele>35.6</ele>
        <time>2021-05-22T10:29:49Z</time>
      </trkpt>
      <trkpt lat="42.5548770" lon="-8.6327320">
        <ele>35.6</ele>
        <time>2021-05-22T10:29:50Z</time>
      </trkpt>
      <trkpt lat="42.5548740" lon="-8.6327190">
        <ele>35.7</ele>
        <time>2021-05-22T10:29:51Z</time>
      </trkpt>
      <trkpt lat="42.5548700" lon="-8.6327060">
        <ele>36.2</ele>
        <time>2021-05-22T10:29:52Z</time>
      </trkpt>
      <trkpt lat="42.5548690" lon="-8.6326970">
        <ele>36.2</ele>
        <time>2021-05-22T10:29:53Z</time>
      </trkpt>
      <trkpt lat="42.5548590" lon="-8.6326870">
        <ele>36.3</ele>
        <time>2021-05-22T10:29:54Z</time>
      </trkpt>
      <trkpt lat="42.5548500" lon="-8.6326720">
        <ele>36.4</ele>
        <time>2021-05-22T10:29:55Z</time>
      </trkpt>
      <trkpt lat="42.5548360" lon="-8.6326500">
        <ele>36.5</ele>
        <time>2021-05-22T10:29:56Z</time>
      </trkpt>
      <trkpt lat="42.5548290" lon="-8.6326440">
        <ele>36.5</ele>
        <time>2021-05-22T10:29:57Z</time>
      </trkpt>
      <trkpt lat="42.5548230" lon="-8.6326380">
        <ele>36.6</ele>
        <time>2021-05-22T10:29:58Z</time>
      </trkpt>
      <trkpt lat="42.5548230" lon="-8.6326220">
        <ele>36.6</ele>
        <time>2021-05-22T10:29:59Z</time>
      </trkpt>
      <trkpt lat="42.5548180" lon="-8.6326090">
        <ele>36.7</ele>
        <time>2021-05-22T10:30:00Z</time>
      </trkpt>
      <trkpt lat="42.5548120" lon="-8.6325940">
        <ele>36.7</ele>
        <time>2021-05-22T10:30:01Z</time>
      </trkpt>
      <trkpt lat="42.5548110" lon="-8.6325750">
        <ele>36.8</ele>
        <time>2021-05-22T10:30:02Z</time>
      </trkpt>
      <trkpt lat="42.5548100" lon="-8.6325500">
        <ele>37.2</ele>
        <time>2021-05-22T10:30:03Z</time>
      </trkpt>
      <trkpt lat="42.5548090" lon="-8.6325390">
        <ele>37.1</ele>
        <time>2021-05-22T10:30:04Z</time>
      </trkpt>
      <trkpt lat="42.5548080" lon="-8.6325250">
        <ele>37.1</ele>
        <time>2021-05-22T10:30:05Z</time>
      </trkpt>
      <trkpt lat="42.5548080" lon="-8.6325100">
        <ele>37.1</ele>
        <time>2021-05-22T10:30:06Z</time>
      </trkpt>
      <trkpt lat="42.5548060" lon="-8.6324960">
        <ele>37.1</ele>
        <time>2021-05-22T10:30:07Z</time>
      </trkpt>
      <trkpt lat="42.5548150" lon="-8.6324870">
        <ele>37.1</ele>
        <time>2021-05-22T10:30:08Z</time>
      </trkpt>
      <trkpt lat="42.5548170" lon="-8.6324680">
        <ele>37.1</ele>
        <time>2021-05-22T10:30:09Z</time>
      </trkpt>
      <trkpt lat="42.5548260" lon="-8.6324540">
        <ele>37.0</ele>
        <time>2021-05-22T10:30:10Z</time>
      </trkpt>
      <trkpt lat="42.5548350" lon="-8.6324380">
        <ele>37.0</ele>
        <time>2021-05-22T10:30:11Z</time>
      </trkpt>
      <trkpt lat="42.5548480" lon="-8.6324190">
        <ele>37.0</ele>
        <time>2021-05-22T10:30:12Z</time>
      </trkpt>
      <trkpt lat="42.5548520" lon="-8.6324060">
        <ele>36.9</ele>
        <time>2021-05-22T10:30:13Z</time>
      </trkpt>
      <trkpt lat="42.5548610" lon="-8.6323810">
        <ele>36.9</ele>
        <time>2021-05-22T10:30:14Z</time>
      </trkpt>
      <trkpt lat="42.5548680" lon="-8.6323670">
        <ele>36.9</ele>
        <time>2021-05-22T10:30:15Z</time>
      </trkpt>
      <trkpt lat="42.5548750" lon="-8.6323520">
        <ele>36.8</ele>
        <time>2021-05-22T10:30:16Z</time>
      </trkpt>
      <trkpt lat="42.5548860" lon="-8.6323350">
        <ele>36.8</ele>
        <time>2021-05-22T10:30:17Z</time>
      </trkpt>
      <trkpt lat="42.5548820" lon="-8.6323190">
        <ele>36.8</ele>
        <time>2021-05-22T10:30:18Z</time>
      </trkpt>
      <trkpt lat="42.5548840" lon="-8.6323070">
        <ele>36.8</ele>
        <time>2021-05-22T10:30:19Z</time>
      </trkpt>
      <trkpt lat="42.5548950" lon="-8.6322790">
        <ele>36.7</ele>
        <time>2021-05-22T10:30:20Z</time>
      </trkpt>
      <trkpt lat="42.5548990" lon="-8.6322690">
        <ele>36.7</ele>
        <time>2021-05-22T10:30:21Z</time>
      </trkpt>
      <trkpt lat="42.5549040" lon="-8.6322590">
        <ele>36.6</ele>
        <time>2021-05-22T10:30:22Z</time>
      </trkpt>
      <trkpt lat="42.5549170" lon="-8.6322400">
        <ele>36.6</ele>
        <time>2021-05-22T10:30:23Z</time>
      </trkpt>
      <trkpt lat="42.5549240" lon="-8.6322300">
        <ele>36.5</ele>
        <time>2021-05-22T10:30:24Z</time>
      </trkpt>
      <trkpt lat="42.5549310" lon="-8.6322210">
        <ele>36.3</ele>
        <time>2021-05-22T10:30:25Z</time>
      </trkpt>
      <trkpt lat="42.5549440" lon="-8.6322090">
        <ele>36.3</ele>
        <time>2021-05-22T10:30:26Z</time>
      </trkpt>
      <trkpt lat="42.5549490" lon="-8.6322000">
        <ele>36.2</ele>
        <time>2021-05-22T10:30:27Z</time>
      </trkpt>
      <trkpt lat="42.5549550" lon="-8.6321940">
        <ele>36.2</ele>
        <time>2021-05-22T10:30:28Z</time>
      </trkpt>
      <trkpt lat="42.5549590" lon="-8.6321900">
        <ele>36.2</ele>
        <time>2021-05-22T10:30:29Z</time>
      </trkpt>
      <trkpt lat="42.5549720" lon="-8.6321600">
        <ele>36.2</ele>
        <time>2021-05-22T10:30:30Z</time>
      </trkpt>
      <trkpt lat="42.5549820" lon="-8.6321410">
        <ele>36.1</ele>
        <time>2021-05-22T10:30:31Z</time>
      </trkpt>
      <trkpt lat="42.5549950" lon="-8.6321320">
        <ele>35.9</ele>
        <time>2021-05-22T10:30:32Z</time>
      </trkpt>
      <trkpt lat="42.5550050" lon="-8.6321320">
        <ele>35.9</ele>
        <time>2021-05-22T10:30:33Z</time>
      </trkpt>
      <trkpt lat="42.5550130" lon="-8.6321170">
        <ele>35.7</ele>
        <time>2021-05-22T10:30:34Z</time>
      </trkpt>
      <trkpt lat="42.5550130" lon="-8.6321100">
        <ele>35.7</ele>
        <time>2021-05-22T10:30:35Z</time>
      </trkpt>
      <trkpt lat="42.5550160" lon="-8.6320970">
        <ele>35.6</ele>
        <time>2021-05-22T10:30:36Z</time>
      </trkpt>
      <trkpt lat="42.5550190" lon="-8.6320850">
        <ele>35.5</ele>
        <time>2021-05-22T10:30:37Z</time>
      </trkpt>
      <trkpt lat="42.5550210" lon="-8.6320820">
        <ele>35.5</ele>
        <time>2021-05-22T10:30:38Z</time>
      </trkpt>
      <trkpt lat="42.5550270" lon="-8.6320700">
        <ele>35.4</ele>
        <time>2021-05-22T10:30:39Z</time>
      </trkpt>
      <trkpt lat="42.5550310" lon="-8.6320600">
        <ele>35.3</ele>
        <time>2021-05-22T10:30:40Z</time>
      </trkpt>
      <trkpt lat="42.5550370" lon="-8.6320440">
        <ele>35.2</ele>
        <time>2021-05-22T10:30:41Z</time>
      </trkpt>
      <trkpt lat="42.5550420" lon="-8.6320350">
        <ele>35.1</ele>
        <time>2021-05-22T10:30:42Z</time>
      </trkpt>
      <trkpt lat="42.5550460" lon="-8.6320260">
        <ele>35.0</ele>
        <time>2021-05-22T10:30:43Z</time>
      </trkpt>
      <trkpt lat="42.5550500" lon="-8.6320170">
        <ele>35.0</ele>
        <time>2021-05-22T10:30:44Z</time>
      </trkpt>
      <trkpt lat="42.5550580" lon="-8.6320070">
        <ele>34.9</ele>
        <time>2021-05-22T10:30:45Z</time>
      </trkpt>
      <trkpt lat="42.5550670" lon="-8.6319920">
        <ele>34.7</ele>
        <time>2021-05-22T10:30:46Z</time>
      </trkpt>
      <trkpt lat="42.5550720" lon="-8.6319820">
        <ele>34.7</ele>
        <time>2021-05-22T10:30:47Z</time>
      </trkpt>
      <trkpt lat="42.5550830" lon="-8.6319710">
        <ele>34.5</ele>
        <time>2021-05-22T10:30:48Z</time>
      </trkpt>
      <trkpt lat="42.5550880" lon="-8.6319660">
        <ele>34.5</ele>
        <time>2021-05-22T10:30:49Z</time>
      </trkpt>
      <trkpt lat="42.5550900" lon="-8.6319660">
        <ele>34.5</ele>
        <time>2021-05-22T10:30:50Z</time>
      </trkpt>
      <trkpt lat="42.5550960" lon="-8.6319550">
        <ele>34.4</ele>
        <time>2021-05-22T10:30:51Z</time>
      </trkpt>
      <trkpt lat="42.5551090" lon="-8.6319390">
        <ele>34.3</ele>
        <time>2021-05-22T10:30:52Z</time>
      </trkpt>
      <trkpt lat="42.5551120" lon="-8.6319350">
        <ele>34.2</ele>
        <time>2021-05-22T10:30:53Z</time>
      </trkpt>
      <trkpt lat="42.5551220" lon="-8.6319230">
        <ele>34.2</ele>
        <time>2021-05-22T10:30:54Z</time>
      </trkpt>
      <trkpt lat="42.5551310" lon="-8.6318980">
        <ele>34.0</ele>
        <time>2021-05-22T10:30:55Z</time>
      </trkpt>
      <trkpt lat="42.5551320" lon="-8.6318860">
        <ele>34.0</ele>
        <time>2021-05-22T10:30:56Z</time>
      </trkpt>
      <trkpt lat="42.5551340" lon="-8.6318750">
        <ele>33.9</ele>
        <time>2021-05-22T10:30:57Z</time>
      </trkpt>
      <trkpt lat="42.5551400" lon="-8.6318590">
        <ele>33.8</ele>
        <time>2021-05-22T10:30:58Z</time>
      </trkpt>
      <trkpt lat="42.5551480" lon="-8.6318500">
        <ele>33.8</ele>
        <time>2021-05-22T10:30:59Z</time>
      </trkpt>
      <trkpt lat="42.5551560" lon="-8.6318440">
        <ele>33.7</ele>
        <time>2021-05-22T10:31:00Z</time>
      </trkpt>
      <trkpt lat="42.5551650" lon="-8.6318340">
        <ele>33.6</ele>
        <time>2021-05-22T10:31:01Z</time>
      </trkpt>
      <trkpt lat="42.5551730" lon="-8.6318220">
        <ele>33.6</ele>
        <time>2021-05-22T10:31:02Z</time>
      </trkpt>
      <trkpt lat="42.5551710" lon="-8.6318090">
        <ele>33.5</ele>
        <time>2021-05-22T10:31:03Z</time>
      </trkpt>
      <trkpt lat="42.5551870" lon="-8.6317940">
        <ele>33.4</ele>
        <time>2021-05-22T10:31:04Z</time>
      </trkpt>
      <trkpt lat="42.5551940" lon="-8.6317880">
        <ele>33.3</ele>
        <time>2021-05-22T10:31:05Z</time>
      </trkpt>
      <trkpt lat="42.5552010" lon="-8.6317810">
        <ele>33.3</ele>
        <time>2021-05-22T10:31:06Z</time>
      </trkpt>
      <trkpt lat="42.5552150" lon="-8.6317500">
        <ele>33.2</ele>
        <time>2021-05-22T10:31:07Z</time>
      </trkpt>
      <trkpt lat="42.5552250" lon="-8.6317370">
        <ele>33.1</ele>
        <time>2021-05-22T10:31:08Z</time>
      </trkpt>
      <trkpt lat="42.5552500" lon="-8.6317070">
        <ele>33.0</ele>
        <time>2021-05-22T10:31:09Z</time>
      </trkpt>
      <trkpt lat="42.5552580" lon="-8.6317050">
        <ele>33.0</ele>
        <time>2021-05-22T10:31:10Z</time>
      </trkpt>
      <trkpt lat="42.5552680" lon="-8.6316820">
        <ele>32.9</ele>
        <time>2021-05-22T10:31:11Z</time>
      </trkpt>
      <trkpt lat="42.5552740" lon="-8.6316720">
        <ele>32.9</ele>
        <time>2021-05-22T10:31:12Z</time>
      </trkpt>
      <trkpt lat="42.5552790" lon="-8.6316630">
        <ele>32.8</ele>
        <time>2021-05-22T10:31:13Z</time>
      </trkpt>
      <trkpt lat="42.5552890" lon="-8.6316430">
        <ele>32.8</ele>
        <time>2021-05-22T10:31:14Z</time>
      </trkpt>
      <trkpt lat="42.5553010" lon="-8.6316360">
        <ele>32.7</ele>
        <time>2021-05-22T10:31:15Z</time>
      </trkpt>
      <trkpt lat="42.5553100" lon="-8.6316140">
        <ele>32.7</ele>
        <time>2021-05-22T10:31:16Z</time>
      </trkpt>
      <trkpt lat="42.5553160" lon="-8.6316060">
        <ele>32.7</ele>
        <time>2021-05-22T10:31:17Z</time>
      </trkpt>
      <trkpt lat="42.5553230" lon="-8.6315970">
        <ele>32.6</ele>
        <time>2021-05-22T10:31:18Z</time>
      </trkpt>
      <trkpt lat="42.5553270" lon="-8.6315870">
        <ele>32.6</ele>
        <time>2021-05-22T10:31:19Z</time>
      </trkpt>
      <trkpt lat="42.5553360" lon="-8.6315760">
        <ele>32.6</ele>
        <time>2021-05-22T10:31:20Z</time>
      </trkpt>
      <trkpt lat="42.5553390" lon="-8.6315630">
        <ele>32.6</ele>
        <time>2021-05-22T10:31:21Z</time>
      </trkpt>
      <trkpt lat="42.5553420" lon="-8.6315420">
        <ele>32.6</ele>
        <time>2021-05-22T10:31:22Z</time>
      </trkpt>
      <trkpt lat="42.5553370" lon="-8.6315470">
        <ele>32.6</ele>
        <time>2021-05-22T10:31:23Z</time>
      </trkpt>
      <trkpt lat="42.5553460" lon="-8.6315300">
        <ele>32.5</ele>
        <time>2021-05-22T10:31:24Z</time>
      </trkpt>
      <trkpt lat="42.5553500" lon="-8.6315250">
        <ele>32.5</ele>
        <time>2021-05-22T10:31:25Z</time>
      </trkpt>
      <trkpt lat="42.5553600" lon="-8.6315080">
        <ele>32.5</ele>
        <time>2021-05-22T10:31:26Z</time>
      </trkpt>
      <trkpt lat="42.5553620" lon="-8.6314970">
        <ele>32.5</ele>
        <time>2021-05-22T10:31:27Z</time>
      </trkpt>
      <trkpt lat="42.5553630" lon="-8.6314850">
        <ele>32.5</ele>
        <time>2021-05-22T10:31:28Z</time>
      </trkpt>
      <trkpt lat="42.5553650" lon="-8.6314740">
        <ele>32.5</ele>
        <time>2021-05-22T10:31:29Z</time>
      </trkpt>
      <trkpt lat="42.5553640" lon="-8.6314670">
        <ele>32.5</ele>
        <time>2021-05-22T10:31:30Z</time>
      </trkpt>
      <trkpt lat="42.5553640" lon="-8.6314530">
        <ele>32.5</ele>
        <time>2021-05-22T10:31:31Z</time>
      </trkpt>
      <trkpt lat="42.5553720" lon="-8.6314330">
        <ele>32.5</ele>
        <time>2021-05-22T10:31:32Z</time>
      </trkpt>
      <trkpt lat="42.5553860" lon="-8.6314130">
        <ele>32.4</ele>
        <time>2021-05-22T10:31:33Z</time>
      </trkpt>
      <trkpt lat="42.5553890" lon="-8.6314000">
        <ele>32.4</ele>
        <time>2021-05-22T10:31:34Z</time>
      </trkpt>
      <trkpt lat="42.5553900" lon="-8.6313770">
        <ele>32.4</ele>
        <time>2021-05-22T10:31:35Z</time>
      </trkpt>
      <trkpt lat="42.5554070" lon="-8.6313580">
        <ele>32.4</ele>
        <time>2021-05-22T10:31:36Z</time>
      </trkpt>
      <trkpt lat="42.5554110" lon="-8.6313450">
        <ele>32.4</ele>
        <time>2021-05-22T10:31:37Z</time>
      </trkpt>
      <trkpt lat="42.5554070" lon="-8.6313350">
        <ele>32.4</ele>
        <time>2021-05-22T10:31:38Z</time>
      </trkpt>
      <trkpt lat="42.5553920" lon="-8.6313220">
        <ele>32.4</ele>
        <time>2021-05-22T10:31:39Z</time>
      </trkpt>
      <trkpt lat="42.5553820" lon="-8.6313080">
        <ele>32.4</ele>
        <time>2021-05-22T10:31:40Z</time>
      </trkpt>
      <trkpt lat="42.5553810" lon="-8.6312850">
        <ele>32.4</ele>
        <time>2021-05-22T10:31:41Z</time>
      </trkpt>
      <trkpt lat="42.5553790" lon="-8.6312660">
        <ele>32.4</ele>
        <time>2021-05-22T10:31:42Z</time>
      </trkpt>
      <trkpt lat="42.5553780" lon="-8.6312460">
        <ele>32.4</ele>
        <time>2021-05-22T10:31:43Z</time>
      </trkpt>
      <trkpt lat="42.5553910" lon="-8.6312090">
        <ele>32.4</ele>
        <time>2021-05-22T10:31:44Z</time>
      </trkpt>
      <trkpt lat="42.5553920" lon="-8.6311980">
        <ele>32.4</ele>
        <time>2021-05-22T10:31:45Z</time>
      </trkpt>
      <trkpt lat="42.5554000" lon="-8.6311770">
        <ele>32.4</ele>
        <time>2021-05-22T10:31:46Z</time>
      </trkpt>
      <trkpt lat="42.5554040" lon="-8.6311710">
        <ele>32.4</ele>
        <time>2021-05-22T10:31:47Z</time>
      </trkpt>
      <trkpt lat="42.5554080" lon="-8.6311640">
        <ele>32.4</ele>
        <time>2021-05-22T10:31:48Z</time>
      </trkpt>
      <trkpt lat="42.5554120" lon="-8.6311570">
        <ele>32.3</ele>
        <time>2021-05-22T10:31:49Z</time>
      </trkpt>
      <trkpt lat="42.5554230" lon="-8.6311360">
        <ele>32.3</ele>
        <time>2021-05-22T10:31:50Z</time>
      </trkpt>
      <trkpt lat="42.5554300" lon="-8.6311250">
        <ele>32.3</ele>
        <time>2021-05-22T10:31:51Z</time>
      </trkpt>
      <trkpt lat="42.5554380" lon="-8.6311130">
        <ele>32.2</ele>
        <time>2021-05-22T10:31:52Z</time>
      </trkpt>
      <trkpt lat="42.5554410" lon="-8.6311090">
        <ele>32.2</ele>
        <time>2021-05-22T10:31:53Z</time>
      </trkpt>
      <trkpt lat="42.5554480" lon="-8.6311170">
        <ele>32.2</ele>
        <time>2021-05-22T10:31:54Z</time>
      </trkpt>
      <trkpt lat="42.5554580" lon="-8.6311230">
        <ele>32.2</ele>
        <time>2021-05-22T10:31:55Z</time>
      </trkpt>
      <trkpt lat="42.5554640" lon="-8.6311260">
        <ele>32.2</ele>
        <time>2021-05-22T10:31:56Z</time>
      </trkpt>
      <trkpt lat="42.5554610" lon="-8.6311360">
        <ele>32.2</ele>
        <time>2021-05-22T10:31:57Z</time>
      </trkpt>
      <trkpt lat="42.5554670" lon="-8.6311470">
        <ele>32.2</ele>
        <time>2021-05-22T10:31:58Z</time>
      </trkpt>
      <trkpt lat="42.5554820" lon="-8.6311550">
        <ele>32.2</ele>
        <time>2021-05-22T10:31:59Z</time>
      </trkpt>
      <trkpt lat="42.5554840" lon="-8.6311610">
        <ele>32.2</ele>
        <time>2021-05-22T10:32:00Z</time>
      </trkpt>
      <trkpt lat="42.5554920" lon="-8.6311720">
        <ele>32.2</ele>
        <time>2021-05-22T10:32:01Z</time>
      </trkpt>
      <trkpt lat="42.5554910" lon="-8.6311790">
        <ele>32.2</ele>
        <time>2021-05-22T10:32:02Z</time>
      </trkpt>
      <trkpt lat="42.5554940" lon="-8.6311810">
        <ele>32.2</ele>
        <time>2021-05-22T10:32:03Z</time>
      </trkpt>
      <trkpt lat="42.5554980" lon="-8.6311770">
        <ele>32.2</ele>
        <time>2021-05-22T10:32:04Z</time>
      </trkpt>
      <trkpt lat="42.5555040" lon="-8.6311810">
        <ele>32.1</ele>
        <time>2021-05-22T10:32:05Z</time>
      </trkpt>
      <trkpt lat="42.5555070" lon="-8.6311860">
        <ele>32.1</ele>
        <time>2021-05-22T10:32:06Z</time>
      </trkpt>
      <trkpt lat="42.5555190" lon="-8.6311900">
        <ele>32.1</ele>
        <time>2021-05-22T10:32:07Z</time>
      </trkpt>
      <trkpt lat="42.5555000" lon="-8.6312040">
        <ele>32.1</ele>
        <time>2021-05-22T10:32:08Z</time>
      </trkpt>
      <trkpt lat="42.5555180" lon="-8.6312030">
        <ele>32.1</ele>
        <time>2021-05-22T10:32:09Z</time>
      </trkpt>
      <trkpt lat="42.5555240" lon="-8.6312010">
        <ele>32.1</ele>
        <time>2021-05-22T10:32:10Z</time>
      </trkpt>
      <trkpt lat="42.5555290" lon="-8.6311990">
        <ele>32.1</ele>
        <time>2021-05-22T10:32:11Z</time>
      </trkpt>
      <trkpt lat="42.5555470" lon="-8.6311950">
        <ele>32.1</ele>
        <time>2021-05-22T10:32:12Z</time>
      </trkpt>
      <trkpt lat="42.5555570" lon="-8.6311850">
        <ele>32.1</ele>
        <time>2021-05-22T10:32:13Z</time>
      </trkpt>
      <trkpt lat="42.5555680" lon="-8.6311760">
        <ele>32.1</ele>
        <time>2021-05-22T10:32:14Z</time>
      </trkpt>
      <trkpt lat="42.5555840" lon="-8.6311610">
        <ele>32.1</ele>
        <time>2021-05-22T10:32:15Z</time>
      </trkpt>
      <trkpt lat="42.5555940" lon="-8.6311490">
        <ele>32.1</ele>
        <time>2021-05-22T10:32:16Z</time>
      </trkpt>
      <trkpt lat="42.5556070" lon="-8.6311340">
        <ele>32.1</ele>
        <time>2021-05-22T10:32:17Z</time>
      </trkpt>
      <trkpt lat="42.5556220" lon="-8.6311260">
        <ele>32.1</ele>
        <time>2021-05-22T10:32:18Z</time>
      </trkpt>
      <trkpt lat="42.5556330" lon="-8.6311230">
        <ele>32.1</ele>
        <time>2021-05-22T10:32:19Z</time>
      </trkpt>
      <trkpt lat="42.5556370" lon="-8.6311190">
        <ele>32.1</ele>
        <time>2021-05-22T10:32:20Z</time>
      </trkpt>
      <trkpt lat="42.5556450" lon="-8.6311110">
        <ele>32.1</ele>
        <time>2021-05-22T10:32:21Z</time>
      </trkpt>
      <trkpt lat="42.5556340" lon="-8.6311130">
        <ele>32.1</ele>
        <time>2021-05-22T10:32:22Z</time>
      </trkpt>
      <trkpt lat="42.5556210" lon="-8.6311080">
        <ele>32.1</ele>
        <time>2021-05-22T10:32:23Z</time>
      </trkpt>
      <trkpt lat="42.5556150" lon="-8.6311070">
        <ele>32.1</ele>
        <time>2021-05-22T10:32:24Z</time>
      </trkpt>
      <trkpt lat="42.5556040" lon="-8.6311100">
        <ele>32.1</ele>
        <time>2021-05-22T10:32:25Z</time>
      </trkpt>
      <trkpt lat="42.5555970" lon="-8.6311080">
        <ele>32.1</ele>
        <time>2021-05-22T10:32:26Z</time>
      </trkpt>
      <trkpt lat="42.5555900" lon="-8.6311070">
        <ele>32.1</ele>
        <time>2021-05-22T10:32:27Z</time>
      </trkpt>
      <trkpt lat="42.5555930" lon="-8.6311050">
        <ele>32.1</ele>
        <time>2021-05-22T10:32:28Z</time>
      </trkpt>
      <trkpt lat="42.5555920" lon="-8.6311000">
        <ele>32.1</ele>
        <time>2021-05-22T10:32:29Z</time>
      </trkpt>
      <trkpt lat="42.5555890" lon="-8.6310940">
        <ele>32.1</ele>
        <time>2021-05-22T10:32:30Z</time>
      </trkpt>
      <trkpt lat="42.5555850" lon="-8.6310950">
        <ele>32.1</ele>
        <time>2021-05-22T10:32:31Z</time>
      </trkpt>
      <trkpt lat="42.5555930" lon="-8.6310820">
        <ele>32.1</ele>
        <time>2021-05-22T10:32:32Z</time>
      </trkpt>
      <trkpt lat="42.5555940" lon="-8.6310720">
        <ele>32.1</ele>
        <time>2021-05-22T10:32:33Z</time>
      </trkpt>
      <trkpt lat="42.5555950" lon="-8.6310680">
        <ele>32.1</ele>
        <time>2021-05-22T10:32:34Z</time>
      </trkpt>
      <trkpt lat="42.5556020" lon="-8.6310590">
        <ele>32.1</ele>
        <time>2021-05-22T10:32:35Z</time>
      </trkpt>
      <trkpt lat="42.5556040" lon="-8.6310550">
        <ele>32.1</ele>
        <time>2021-05-22T10:32:36Z</time>
      </trkpt>
      <trkpt lat="42.5555970" lon="-8.6310610">
        <ele>32.1</ele>
        <time>2021-05-22T10:32:37Z</time>
      </trkpt>
      <trkpt lat="42.5555960" lon="-8.6310630">
        <ele>32.1</ele>
        <time>2021-05-22T10:32:38Z</time>
      </trkpt>
      <trkpt lat="42.5555960" lon="-8.6310530">
        <ele>32.1</ele>
        <time>2021-05-22T10:32:39Z</time>
      </trkpt>
      <trkpt lat="42.5555910" lon="-8.6310530">
        <ele>32.1</ele>
        <time>2021-05-22T10:32:40Z</time>
      </trkpt>
      <trkpt lat="42.5555930" lon="-8.6310580">
        <ele>32.1</ele>
        <time>2021-05-22T10:32:41Z</time>
      </trkpt>
      <trkpt lat="42.5555970" lon="-8.6310570">
        <ele>32.1</ele>
        <time>2021-05-22T10:32:42Z</time>
      </trkpt>
      <trkpt lat="42.5555990" lon="-8.6310570">
        <ele>32.1</ele>
        <time>2021-05-22T10:32:43Z</time>
      </trkpt>
      <trkpt lat="42.5556070" lon="-8.6310540">
        <ele>32.1</ele>
        <time>2021-05-22T10:32:44Z</time>
      </trkpt>
      <trkpt lat="42.5556110" lon="-8.6310440">
        <ele>32.1</ele>
        <time>2021-05-22T10:32:45Z</time>
      </trkpt>
      <trkpt lat="42.5556160" lon="-8.6310410">
        <ele>32.1</ele>
        <time>2021-05-22T10:32:46Z</time>
      </trkpt>
      <trkpt lat="42.5556190" lon="-8.6310370">
        <ele>32.1</ele>
        <time>2021-05-22T10:32:47Z</time>
      </trkpt>
      <trkpt lat="42.5556200" lon="-8.6310340">
        <ele>32.1</ele>
        <time>2021-05-22T10:32:48Z</time>
      </trkpt>
      <trkpt lat="42.5556170" lon="-8.6310340">
        <ele>32.1</ele>
        <time>2021-05-22T10:32:49Z</time>
      </trkpt>
      <trkpt lat="42.5556210" lon="-8.6310320">
        <ele>32.1</ele>
        <time>2021-05-22T10:32:50Z</time>
      </trkpt>
      <trkpt lat="42.5556230" lon="-8.6310330">
        <ele>32.1</ele>
        <time>2021-05-22T10:32:51Z</time>
      </trkpt>
      <trkpt lat="42.5556310" lon="-8.6310350">
        <ele>32.1</ele>
        <time>2021-05-22T10:32:53Z</time>
      </trkpt>
      <trkpt lat="42.5556460" lon="-8.6310380">
        <ele>32.1</ele>
        <time>2021-05-22T10:32:54Z</time>
      </trkpt>
      <trkpt lat="42.5556460" lon="-8.6310420">
        <ele>32.1</ele>
        <time>2021-05-22T10:32:55Z</time>
      </trkpt>
      <trkpt lat="42.5556450" lon="-8.6310440">
        <ele>32.1</ele>
        <time>2021-05-22T10:32:56Z</time>
      </trkpt>
      <trkpt lat="42.5556400" lon="-8.6310430">
        <ele>32.1</ele>
        <time>2021-05-22T10:32:57Z</time>
      </trkpt>
      <trkpt lat="42.5556390" lon="-8.6310570">
        <ele>32.1</ele>
        <time>2021-05-22T10:32:58Z</time>
      </trkpt>
      <trkpt lat="42.5556340" lon="-8.6310690">
        <ele>32.1</ele>
        <time>2021-05-22T10:32:59Z</time>
      </trkpt>
      <trkpt lat="42.5556300" lon="-8.6310740">
        <ele>32.1</ele>
        <time>2021-05-22T10:33:00Z</time>
      </trkpt>
      <trkpt lat="42.5556320" lon="-8.6310750">
        <ele>32.1</ele>
        <time>2021-05-22T10:33:01Z</time>
      </trkpt>
      <trkpt lat="42.5556320" lon="-8.6310660">
        <ele>32.1</ele>
        <time>2021-05-22T10:33:02Z</time>
      </trkpt>
      <trkpt lat="42.5556270" lon="-8.6310620">
        <ele>32.1</ele>
        <time>2021-05-22T10:33:03Z</time>
      </trkpt>
      <trkpt lat="42.5556270" lon="-8.6310620">
        <ele>32.1</ele>
        <time>2021-05-22T10:33:04Z</time>
      </trkpt>
      <trkpt lat="42.5556050" lon="-8.6310560">
        <ele>32.1</ele>
        <time>2021-05-22T10:33:05Z</time>
      </trkpt>
      <trkpt lat="42.5556130" lon="-8.6310510">
        <ele>32.1</ele>
        <time>2021-05-22T10:33:06Z</time>
      </trkpt>
      <trkpt lat="42.5556150" lon="-8.6310450">
        <ele>32.1</ele>
        <time>2021-05-22T10:33:07Z</time>
      </trkpt>
      <trkpt lat="42.5556080" lon="-8.6310790">
        <ele>32.1</ele>
        <time>2021-05-22T10:33:08Z</time>
      </trkpt>
      <trkpt lat="42.5556080" lon="-8.6310930">
        <ele>32.1</ele>
        <time>2021-05-22T10:33:09Z</time>
      </trkpt>
      <trkpt lat="42.5556080" lon="-8.6311050">
        <ele>32.1</ele>
        <time>2021-05-22T10:33:10Z</time>
      </trkpt>
      <trkpt lat="42.5556090" lon="-8.6311100">
        <ele>32.1</ele>
        <time>2021-05-22T10:33:11Z</time>
      </trkpt>
      <trkpt lat="42.5556060" lon="-8.6311110">
        <ele>32.1</ele>
        <time>2021-05-22T10:33:12Z</time>
      </trkpt>
      <trkpt lat="42.5556090" lon="-8.6311150">
        <ele>32.1</ele>
        <time>2021-05-22T10:33:13Z</time>
      </trkpt>
      <trkpt lat="42.5556090" lon="-8.6311250">
        <ele>32.1</ele>
        <time>2021-05-22T10:33:14Z</time>
      </trkpt>
      <trkpt lat="42.5556070" lon="-8.6311300">
        <ele>32.1</ele>
        <time>2021-05-22T10:33:15Z</time>
      </trkpt>
      <trkpt lat="42.5556030" lon="-8.6311370">
        <ele>32.1</ele>
        <time>2021-05-22T10:33:16Z</time>
      </trkpt>
      <trkpt lat="42.5556050" lon="-8.6311380">
        <ele>32.1</ele>
        <time>2021-05-22T10:33:17Z</time>
      </trkpt>
      <trkpt lat="42.5556030" lon="-8.6311500">
        <ele>32.1</ele>
        <time>2021-05-22T10:33:18Z</time>
      </trkpt>
      <trkpt lat="42.5555980" lon="-8.6311620">
        <ele>32.1</ele>
        <time>2021-05-22T10:33:19Z</time>
      </trkpt>
      <trkpt lat="42.5556010" lon="-8.6311610">
        <ele>32.1</ele>
        <time>2021-05-22T10:33:20Z</time>
      </trkpt>
      <trkpt lat="42.5556020" lon="-8.6311630">
        <ele>32.1</ele>
        <time>2021-05-22T10:33:21Z</time>
      </trkpt>
      <trkpt lat="42.5556020" lon="-8.6311600">
        <ele>32.1</ele>
        <time>2021-05-22T10:33:22Z</time>
      </trkpt>
      <trkpt lat="42.5556000" lon="-8.6311600">
        <ele>32.1</ele>
        <time>2021-05-22T10:33:23Z</time>
      </trkpt>
      <trkpt lat="42.5556010" lon="-8.6311570">
        <ele>32.1</ele>
        <time>2021-05-22T10:33:24Z</time>
      </trkpt>
      <trkpt lat="42.5556030" lon="-8.6311610">
        <ele>32.1</ele>
        <time>2021-05-22T10:33:25Z</time>
      </trkpt>
      <trkpt lat="42.5556020" lon="-8.6311630">
        <ele>32.1</ele>
        <time>2021-05-22T10:33:26Z</time>
      </trkpt>
      <trkpt lat="42.5556010" lon="-8.6311660">
        <ele>32.1</ele>
        <time>2021-05-22T10:33:27Z</time>
      </trkpt>
      <trkpt lat="42.5555970" lon="-8.6311570">
        <ele>32.1</ele>
        <time>2021-05-22T10:33:28Z</time>
      </trkpt>
      <trkpt lat="42.5555860" lon="-8.6311490">
        <ele>32.1</ele>
        <time>2021-05-22T10:33:29Z</time>
      </trkpt>
      <trkpt lat="42.5555850" lon="-8.6311430">
        <ele>32.1</ele>
        <time>2021-05-22T10:33:30Z</time>
      </trkpt>
      <trkpt lat="42.5555870" lon="-8.6311320">
        <ele>32.1</ele>
        <time>2021-05-22T10:33:31Z</time>
      </trkpt>
      <trkpt lat="42.5555890" lon="-8.6311190">
        <ele>32.1</ele>
        <time>2021-05-22T10:33:32Z</time>
      </trkpt>
      <trkpt lat="42.5555890" lon="-8.6311180">
        <ele>32.1</ele>
        <time>2021-05-22T10:33:33Z</time>
      </trkpt>
      <trkpt lat="42.5555890" lon="-8.6311180">
        <ele>32.1</ele>
        <time>2021-05-22T10:33:34Z</time>
      </trkpt>
      <trkpt lat="42.5555890" lon="-8.6311170">
        <ele>32.1</ele>
        <time>2021-05-22T10:33:35Z</time>
      </trkpt>
      <trkpt lat="42.5555890" lon="-8.6311170">
        <ele>32.1</ele>
        <time>2021-05-22T10:33:36Z</time>
      </trkpt>
      <trkpt lat="42.5555890" lon="-8.6311160">
        <ele>32.1</ele>
        <time>2021-05-22T10:33:37Z</time>
      </trkpt>
      <trkpt lat="42.5555890" lon="-8.6311160">
        <ele>32.1</ele>
        <time>2021-05-22T10:33:38Z</time>
      </trkpt>
      <trkpt lat="42.5555890" lon="-8.6311150">
        <ele>32.1</ele>
        <time>2021-05-22T10:33:39Z</time>
      </trkpt>
      <trkpt lat="42.5555890" lon="-8.6311150">
        <ele>32.1</ele>
        <time>2021-05-22T10:33:40Z</time>
      </trkpt>
      <trkpt lat="42.5555890" lon="-8.6311140">
        <ele>32.1</ele>
        <time>2021-05-22T10:33:41Z</time>
      </trkpt>
      <trkpt lat="42.5555890" lon="-8.6311140">
        <ele>32.1</ele>
        <time>2021-05-22T10:33:42Z</time>
      </trkpt>
      <trkpt lat="42.5555890" lon="-8.6311130">
        <ele>32.1</ele>
        <time>2021-05-22T10:33:43Z</time>
      </trkpt>
      <trkpt lat="42.5555890" lon="-8.6311130">
        <ele>32.1</ele>
        <time>2021-05-22T10:33:44Z</time>
      </trkpt>
      <trkpt lat="42.5555890" lon="-8.6311120">
        <ele>32.1</ele>
        <time>2021-05-22T10:33:45Z</time>
      </trkpt>
      <trkpt lat="42.5555890" lon="-8.6311120">
        <ele>32.1</ele>
        <time>2021-05-22T10:33:46Z</time>
      </trkpt>
      <trkpt lat="42.5555890" lon="-8.6311110">
        <ele>32.1</ele>
        <time>2021-05-22T10:33:47Z</time>
      </trkpt>
      <trkpt lat="42.5555890" lon="-8.6311110">
        <ele>32.1</ele>
        <time>2021-05-22T10:33:48Z</time>
      </trkpt>
      <trkpt lat="42.5555890" lon="-8.6311100">
        <ele>32.1</ele>
        <time>2021-05-22T10:33:49Z</time>
      </trkpt>
      <trkpt lat="42.5555890" lon="-8.6311100">
        <ele>32.1</ele>
        <time>2021-05-22T10:33:50Z</time>
      </trkpt>
      <trkpt lat="42.5555890" lon="-8.6311100">
        <ele>32.1</ele>
        <time>2021-05-22T10:33:51Z</time>
      </trkpt>
      <trkpt lat="42.5555890" lon="-8.6311090">
        <ele>32.1</ele>
        <time>2021-05-22T10:33:52Z</time>
      </trkpt>
      <trkpt lat="42.5555890" lon="-8.6311090">
        <ele>32.1</ele>
        <time>2021-05-22T10:33:53Z</time>
      </trkpt>
      <trkpt lat="42.5555890" lon="-8.6311080">
        <ele>32.1</ele>
        <time>2021-05-22T10:33:54Z</time>
      </trkpt>
      <trkpt lat="42.5555890" lon="-8.6311080">
        <ele>32.1</ele>
        <time>2021-05-22T10:33:55Z</time>
      </trkpt>
      <trkpt lat="42.5555890" lon="-8.6311070">
        <ele>32.1</ele>
        <time>2021-05-22T10:33:56Z</time>
      </trkpt>
      <trkpt lat="42.5555890" lon="-8.6311070">
        <ele>32.1</ele>
        <time>2021-05-22T10:33:57Z</time>
      </trkpt>
      <trkpt lat="42.5555890" lon="-8.6311060">
        <ele>32.1</ele>
        <time>2021-05-22T10:33:58Z</time>
      </trkpt>
      <trkpt lat="42.5555890" lon="-8.6311060">
        <ele>32.1</ele>
        <time>2021-05-22T10:33:59Z</time>
      </trkpt>
      <trkpt lat="42.5555890" lon="-8.6311050">
        <ele>32.1</ele>
        <time>2021-05-22T10:34:00Z</time>
      </trkpt>
      <trkpt lat="42.5555890" lon="-8.6311050">
        <ele>32.1</ele>
        <time>2021-05-22T10:34:01Z</time>
      </trkpt>
      <trkpt lat="42.5555890" lon="-8.6311040">
        <ele>32.1</ele>
        <time>2021-05-22T10:34:02Z</time>
      </trkpt>
      <trkpt lat="42.5555890" lon="-8.6311040">
        <ele>32.1</ele>
        <time>2021-05-22T10:34:03Z</time>
      </trkpt>
      <trkpt lat="42.5555890" lon="-8.6311030">
        <ele>32.1</ele>
        <time>2021-05-22T10:34:04Z</time>
      </trkpt>
      <trkpt lat="42.5555890" lon="-8.6311030">
        <ele>32.1</ele>
        <time>2021-05-22T10:34:05Z</time>
      </trkpt>
      <trkpt lat="42.5555890" lon="-8.6311020">
        <ele>32.1</ele>
        <time>2021-05-22T10:34:06Z</time>
      </trkpt>
      <trkpt lat="42.5555890" lon="-8.6311020">
        <ele>32.1</ele>
        <time>2021-05-22T10:34:07Z</time>
      </trkpt>
      <trkpt lat="42.5555890" lon="-8.6311010">
        <ele>32.1</ele>
        <time>2021-05-22T10:34:08Z</time>
      </trkpt>
      <trkpt lat="42.5555890" lon="-8.6311010">
        <ele>32.1</ele>
        <time>2021-05-22T10:34:09Z</time>
      </trkpt>
      <trkpt lat="42.5555890" lon="-8.6311000">
        <ele>32.1</ele>
        <time>2021-05-22T10:34:10Z</time>
      </trkpt>
      <trkpt lat="42.5555890" lon="-8.6311000">
        <ele>32.1</ele>
        <time>2021-05-22T10:34:11Z</time>
      </trkpt>
      <trkpt lat="42.5555890" lon="-8.6311000">
        <ele>32.1</ele>
        <time>2021-05-22T10:34:12Z</time>
      </trkpt>
      <trkpt lat="42.5555890" lon="-8.6310990">
        <ele>32.1</ele>
        <time>2021-05-22T10:34:13Z</time>
      </trkpt>
      <trkpt lat="42.5555890" lon="-8.6310990">
        <ele>32.1</ele>
        <time>2021-05-22T10:34:14Z</time>
      </trkpt>
      <trkpt lat="42.5555890" lon="-8.6310980">
        <ele>32.1</ele>
        <time>2021-05-22T10:34:15Z</time>
      </trkpt>
      <trkpt lat="42.5555890" lon="-8.6310980">
        <ele>32.1</ele>
        <time>2021-05-22T10:34:16Z</time>
      </trkpt>
      <trkpt lat="42.5555890" lon="-8.6310970">
        <ele>32.1</ele>
        <time>2021-05-22T10:34:17Z</time>
      </trkpt>
      <trkpt lat="42.5555890" lon="-8.6310970">
        <ele>32.1</ele>
        <time>2021-05-22T10:34:18Z</time>
      </trkpt>
      <trkpt lat="42.5555890" lon="-8.6310960">
        <ele>32.1</ele>
        <time>2021-05-22T10:34:19Z</time>
      </trkpt>
      <trkpt lat="42.5555890" lon="-8.6310960">
        <ele>32.1</ele>
        <time>2021-05-22T10:34:20Z</time>
      </trkpt>
      <trkpt lat="42.5555890" lon="-8.6310950">
        <ele>32.1</ele>
        <time>2021-05-22T10:34:21Z</time>
      </trkpt>
      <trkpt lat="42.5555890" lon="-8.6310950">
        <ele>32.1</ele>
        <time>2021-05-22T10:34:22Z</time>
      </trkpt>
      <trkpt lat="42.5555890" lon="-8.6310940">
        <ele>32.1</ele>
        <time>2021-05-22T10:34:23Z</time>
      </trkpt>
      <trkpt lat="42.5555890" lon="-8.6310940">
        <ele>32.1</ele>
        <time>2021-05-22T10:34:24Z</time>
      </trkpt>
      <trkpt lat="42.5555890" lon="-8.6310930">
        <ele>32.1</ele>
        <time>2021-05-22T10:34:25Z</time>
      </trkpt>
      <trkpt lat="42.5555890" lon="-8.6310930">
        <ele>32.1</ele>
        <time>2021-05-22T10:34:26Z</time>
      </trkpt>
      <trkpt lat="42.5555890" lon="-8.6310920">
        <ele>32.1</ele>
        <time>2021-05-22T10:34:27Z</time>
      </trkpt>
      <trkpt lat="42.5555890" lon="-8.6310920">
        <ele>32.1</ele>
        <time>2021-05-22T10:34:28Z</time>
      </trkpt>
      <trkpt lat="42.5555890" lon="-8.6310910">
        <ele>32.1</ele>
        <time>2021-05-22T10:34:29Z</time>
      </trkpt>
      <trkpt lat="42.5555890" lon="-8.6310910">
        <ele>32.1</ele>
        <time>2021-05-22T10:34:30Z</time>
      </trkpt>
      <trkpt lat="42.5555890" lon="-8.6310910">
        <ele>32.1</ele>
        <time>2021-05-22T10:34:31Z</time>
      </trkpt>
      <trkpt lat="42.5555890" lon="-8.6310900">
        <ele>32.1</ele>
        <time>2021-05-22T10:34:32Z</time>
      </trkpt>
      <trkpt lat="42.5555890" lon="-8.6310900">
        <ele>32.1</ele>
        <time>2021-05-22T10:34:33Z</time>
      </trkpt>
      <trkpt lat="42.5555890" lon="-8.6310890">
        <ele>32.1</ele>
        <time>2021-05-22T10:34:34Z</time>
      </trkpt>
      <trkpt lat="42.5555890" lon="-8.6310890">
        <ele>32.1</ele>
        <time>2021-05-22T10:34:35Z</time>
      </trkpt>
      <trkpt lat="42.5555890" lon="-8.6310880">
        <ele>32.1</ele>
        <time>2021-05-22T10:34:36Z</time>
      </trkpt>
      <trkpt lat="42.5555890" lon="-8.6310880">
        <ele>32.1</ele>
        <time>2021-05-22T10:34:37Z</time>
      </trkpt>
      <trkpt lat="42.5555890" lon="-8.6310870">
        <ele>32.1</ele>
        <time>2021-05-22T10:34:38Z</time>
      </trkpt>
      <trkpt lat="42.5555890" lon="-8.6310870">
        <ele>32.1</ele>
        <time>2021-05-22T10:34:39Z</time>
      </trkpt>
      <trkpt lat="42.5555890" lon="-8.6310860">
        <ele>32.1</ele>
        <time>2021-05-22T10:34:40Z</time>
      </trkpt>
      <trkpt lat="42.5555880" lon="-8.6310860">
        <ele>32.1</ele>
        <time>2021-05-22T10:34:41Z</time>
      </trkpt>
      <trkpt lat="42.5555880" lon="-8.6310850">
        <ele>32.1</ele>
        <time>2021-05-22T10:34:42Z</time>
      </trkpt>
      <trkpt lat="42.5555880" lon="-8.6310850">
        <ele>32.1</ele>
        <time>2021-05-22T10:34:43Z</time>
      </trkpt>
      <trkpt lat="42.5555880" lon="-8.6310840">
        <ele>32.1</ele>
        <time>2021-05-22T10:34:44Z</time>
      </trkpt>
      <trkpt lat="42.5555880" lon="-8.6310840">
        <ele>32.1</ele>
        <time>2021-05-22T10:34:45Z</time>
      </trkpt>
      <trkpt lat="42.5555880" lon="-8.6310830">
        <ele>32.1</ele>
        <time>2021-05-22T10:34:46Z</time>
      </trkpt>
      <trkpt lat="42.5555880" lon="-8.6310830">
        <ele>32.1</ele>
        <time>2021-05-22T10:34:47Z</time>
      </trkpt>
      <trkpt lat="42.5555880" lon="-8.6310820">
        <ele>32.1</ele>
        <time>2021-05-22T10:34:48Z</time>
      </trkpt>
      <trkpt lat="42.5555880" lon="-8.6310820">
        <ele>32.1</ele>
        <time>2021-05-22T10:34:49Z</time>
      </trkpt>
      <trkpt lat="42.5555880" lon="-8.6310810">
        <ele>32.1</ele>
        <time>2021-05-22T10:34:50Z</time>
      </trkpt>
      <trkpt lat="42.5555880" lon="-8.6310810">
        <ele>32.1</ele>
        <time>2021-05-22T10:34:51Z</time>
      </trkpt>
      <trkpt lat="42.5555880" lon="-8.6310810">
        <ele>32.1</ele>
        <time>2021-05-22T10:34:52Z</time>
      </trkpt>
      <trkpt lat="42.5555880" lon="-8.6310800">
        <ele>32.1</ele>
        <time>2021-05-22T10:34:53Z</time>
      </trkpt>
      <trkpt lat="42.5555880" lon="-8.6310800">
        <ele>32.1</ele>
        <time>2021-05-22T10:34:54Z</time>
      </trkpt>
      <trkpt lat="42.5555880" lon="-8.6310790">
        <ele>32.1</ele>
        <time>2021-05-22T10:34:55Z</time>
      </trkpt>
      <trkpt lat="42.5555880" lon="-8.6310790">
        <ele>32.1</ele>
        <time>2021-05-22T10:34:56Z</time>
      </trkpt>
      <trkpt lat="42.5555880" lon="-8.6310780">
        <ele>32.1</ele>
        <time>2021-05-22T10:34:57Z</time>
      </trkpt>
      <trkpt lat="42.5555880" lon="-8.6310780">
        <ele>32.1</ele>
        <time>2021-05-22T10:34:58Z</time>
      </trkpt>
      <trkpt lat="42.5555880" lon="-8.6310770">
        <ele>32.1</ele>
        <time>2021-05-22T10:34:59Z</time>
      </trkpt>
      <trkpt lat="42.5555880" lon="-8.6310770">
        <ele>32.1</ele>
        <time>2021-05-22T10:35:00Z</time>
      </trkpt>
      <trkpt lat="42.5555880" lon="-8.6310760">
        <ele>32.1</ele>
        <time>2021-05-22T10:35:01Z</time>
      </trkpt>
      <trkpt lat="42.5555880" lon="-8.6310760">
        <ele>32.1</ele>
        <time>2021-05-22T10:35:02Z</time>
      </trkpt>
      <trkpt lat="42.5555880" lon="-8.6310750">
        <ele>32.1</ele>
        <time>2021-05-22T10:35:03Z</time>
      </trkpt>
      <trkpt lat="42.5555880" lon="-8.6310750">
        <ele>32.1</ele>
        <time>2021-05-22T10:35:04Z</time>
      </trkpt>
      <trkpt lat="42.5555880" lon="-8.6310740">
        <ele>32.1</ele>
        <time>2021-05-22T10:35:05Z</time>
      </trkpt>
      <trkpt lat="42.5555880" lon="-8.6310740">
        <ele>32.1</ele>
        <time>2021-05-22T10:35:06Z</time>
      </trkpt>
      <trkpt lat="42.5555880" lon="-8.6310730">
        <ele>32.1</ele>
        <time>2021-05-22T10:35:07Z</time>
      </trkpt>
      <trkpt lat="42.5555880" lon="-8.6310730">
        <ele>32.1</ele>
        <time>2021-05-22T10:35:08Z</time>
      </trkpt>
      <trkpt lat="42.5555880" lon="-8.6310720">
        <ele>32.1</ele>
        <time>2021-05-22T10:35:09Z</time>
      </trkpt>
      <trkpt lat="42.5555880" lon="-8.6310720">
        <ele>32.1</ele>
        <time>2021-05-22T10:35:10Z</time>
      </trkpt>
      <trkpt lat="42.5555880" lon="-8.6310720">
        <ele>32.1</ele>
        <time>2021-05-22T10:35:11Z</time>
      </trkpt>
      <trkpt lat="42.5555880" lon="-8.6310710">
        <ele>32.1</ele>
        <time>2021-05-22T10:35:12Z</time>
      </trkpt>
      <trkpt lat="42.5555880" lon="-8.6310710">
        <ele>32.1</ele>
        <time>2021-05-22T10:35:13Z</time>
      </trkpt>
      <trkpt lat="42.5555880" lon="-8.6310700">
        <ele>32.1</ele>
        <time>2021-05-22T10:35:14Z</time>
      </trkpt>
      <trkpt lat="42.5555880" lon="-8.6310700">
        <ele>32.1</ele>
        <time>2021-05-22T10:35:15Z</time>
      </trkpt>
      <trkpt lat="42.5555880" lon="-8.6310690">
        <ele>32.1</ele>
        <time>2021-05-22T10:35:16Z</time>
      </trkpt>
      <trkpt lat="42.5555880" lon="-8.6310690">
        <ele>32.1</ele>
        <time>2021-05-22T10:35:17Z</time>
      </trkpt>
      <trkpt lat="42.5555880" lon="-8.6310680">
        <ele>32.1</ele>
        <time>2021-05-22T10:35:18Z</time>
      </trkpt>
      <trkpt lat="42.5555880" lon="-8.6310680">
        <ele>32.1</ele>
        <time>2021-05-22T10:35:19Z</time>
      </trkpt>
      <trkpt lat="42.5555880" lon="-8.6310670">
        <ele>32.1</ele>
        <time>2021-05-22T10:35:20Z</time>
      </trkpt>
      <trkpt lat="42.5555880" lon="-8.6310670">
        <ele>32.1</ele>
        <time>2021-05-22T10:35:21Z</time>
      </trkpt>
      <trkpt lat="42.5555880" lon="-8.6310660">
        <ele>32.1</ele>
        <time>2021-05-22T10:35:22Z</time>
      </trkpt>
      <trkpt lat="42.5555880" lon="-8.6310660">
        <ele>32.1</ele>
        <time>2021-05-22T10:35:23Z</time>
      </trkpt>
      <trkpt lat="42.5555880" lon="-8.6310650">
        <ele>32.1</ele>
        <time>2021-05-22T10:35:24Z</time>
      </trkpt>
      <trkpt lat="42.5555880" lon="-8.6310650">
        <ele>32.1</ele>
        <time>2021-05-22T10:35:25Z</time>
      </trkpt>
      <trkpt lat="42.5555880" lon="-8.6310640">
        <ele>32.1</ele>
        <time>2021-05-22T10:35:26Z</time>
      </trkpt>
      <trkpt lat="42.5555880" lon="-8.6310640">
        <ele>32.1</ele>
        <time>2021-05-22T10:35:27Z</time>
      </trkpt>
      <trkpt lat="42.5555880" lon="-8.6310630">
        <ele>32.1</ele>
        <time>2021-05-22T10:35:28Z</time>
      </trkpt>
      <trkpt lat="42.5555880" lon="-8.6310630">
        <ele>32.1</ele>
        <time>2021-05-22T10:35:29Z</time>
      </trkpt>
      <trkpt lat="42.5555880" lon="-8.6310620">
        <ele>32.1</ele>
        <time>2021-05-22T10:35:30Z</time>
      </trkpt>
      <trkpt lat="42.5555880" lon="-8.6310620">
        <ele>32.1</ele>
        <time>2021-05-22T10:35:31Z</time>
      </trkpt>
      <trkpt lat="42.5555880" lon="-8.6310620">
        <ele>32.1</ele>
        <time>2021-05-22T10:35:32Z</time>
      </trkpt>
      <trkpt lat="42.5555880" lon="-8.6310610">
        <ele>32.1</ele>
        <time>2021-05-22T10:35:33Z</time>
      </trkpt>
      <trkpt lat="42.5555880" lon="-8.6310610">
        <ele>32.1</ele>
        <time>2021-05-22T10:35:34Z</time>
      </trkpt>
      <trkpt lat="42.5555880" lon="-8.6310600">
        <ele>32.1</ele>
        <time>2021-05-22T10:35:35Z</time>
      </trkpt>
      <trkpt lat="42.5555880" lon="-8.6310600">
        <ele>32.1</ele>
        <time>2021-05-22T10:35:36Z</time>
      </trkpt>
      <trkpt lat="42.5555880" lon="-8.6310590">
        <ele>32.1</ele>
        <time>2021-05-22T10:35:37Z</time>
      </trkpt>
      <trkpt lat="42.5555880" lon="-8.6310590">
        <ele>32.1</ele>
        <time>2021-05-22T10:35:38Z</time>
      </trkpt>
      <trkpt lat="42.5555880" lon="-8.6310580">
        <ele>32.1</ele>
        <time>2021-05-22T10:35:39Z</time>
      </trkpt>
      <trkpt lat="42.5555880" lon="-8.6310580">
        <ele>32.1</ele>
        <time>2021-05-22T10:35:40Z</time>
      </trkpt>
      <trkpt lat="42.5555880" lon="-8.6310570">
        <ele>32.1</ele>
        <time>2021-05-22T10:35:41Z</time>
      </trkpt>
      <trkpt lat="42.5555880" lon="-8.6310570">
        <ele>32.1</ele>
        <time>2021-05-22T10:35:42Z</time>
      </trkpt>
      <trkpt lat="42.5555880" lon="-8.6310560">
        <ele>32.1</ele>
        <time>2021-05-22T10:35:43Z</time>
      </trkpt>
      <trkpt lat="42.5555880" lon="-8.6310560">
        <ele>32.1</ele>
        <time>2021-05-22T10:35:44Z</time>
      </trkpt>
      <trkpt lat="42.5555880" lon="-8.6310550">
        <ele>32.1</ele>
        <time>2021-05-22T10:35:45Z</time>
      </trkpt>
      <trkpt lat="42.5555880" lon="-8.6310550">
        <ele>32.1</ele>
        <time>2021-05-22T10:35:46Z</time>
      </trkpt>
      <trkpt lat="42.5555880" lon="-8.6310540">
        <ele>32.1</ele>
        <time>2021-05-22T10:35:47Z</time>
      </trkpt>
      <trkpt lat="42.5555880" lon="-8.6310540">
        <ele>32.1</ele>
        <time>2021-05-22T10:35:48Z</time>
      </trkpt>
      <trkpt lat="42.5555880" lon="-8.6310530">
        <ele>32.1</ele>
        <time>2021-05-22T10:35:49Z</time>
      </trkpt>
      <trkpt lat="42.5555880" lon="-8.6310530">
        <ele>32.1</ele>
        <time>2021-05-22T10:35:50Z</time>
      </trkpt>
      <trkpt lat="42.5555920" lon="-8.6310470">
        <ele>32.1</ele>
        <time>2021-05-22T10:35:51Z</time>
      </trkpt>
      <trkpt lat="42.5555900" lon="-8.6310460">
        <ele>32.1</ele>
        <time>2021-05-22T10:35:52Z</time>
      </trkpt>
      <trkpt lat="42.5555880" lon="-8.6310490">
        <ele>32.1</ele>
        <time>2021-05-22T10:35:53Z</time>
      </trkpt>
      <trkpt lat="42.5555910" lon="-8.6310540">
        <ele>32.1</ele>
        <time>2021-05-22T10:35:54Z</time>
      </trkpt>
      <trkpt lat="42.5555930" lon="-8.6310670">
        <ele>32.1</ele>
        <time>2021-05-22T10:35:55Z</time>
      </trkpt>
      <trkpt lat="42.5555950" lon="-8.6310740">
        <ele>32.1</ele>
        <time>2021-05-22T10:35:56Z</time>
      </trkpt>
      <trkpt lat="42.5555980" lon="-8.6310830">
        <ele>32.1</ele>
        <time>2021-05-22T10:35:57Z</time>
      </trkpt>
      <trkpt lat="42.5555970" lon="-8.6310920">
        <ele>32.1</ele>
        <time>2021-05-22T10:35:58Z</time>
      </trkpt>
      <trkpt lat="42.5556000" lon="-8.6310940">
        <ele>32.1</ele>
        <time>2021-05-22T10:35:59Z</time>
      </trkpt>
      <trkpt lat="42.5556000" lon="-8.6311010">
        <ele>32.1</ele>
        <time>2021-05-22T10:36:00Z</time>
      </trkpt>
      <trkpt lat="42.5555940" lon="-8.6311070">
        <ele>32.1</ele>
        <time>2021-05-22T10:36:01Z</time>
      </trkpt>
      <trkpt lat="42.5555920" lon="-8.6311060">
        <ele>32.1</ele>
        <time>2021-05-22T10:36:02Z</time>
      </trkpt>
      <trkpt lat="42.5555900" lon="-8.6311090">
        <ele>32.1</ele>
        <time>2021-05-22T10:36:03Z</time>
      </trkpt>
      <trkpt lat="42.5555930" lon="-8.6311090">
        <ele>32.1</ele>
        <time>2021-05-22T10:36:04Z</time>
      </trkpt>
      <trkpt lat="42.5555920" lon="-8.6311060">
        <ele>32.1</ele>
        <time>2021-05-22T10:36:05Z</time>
      </trkpt>
      <trkpt lat="42.5555920" lon="-8.6311050">
        <ele>32.1</ele>
        <time>2021-05-22T10:36:06Z</time>
      </trkpt>
      <trkpt lat="42.5555810" lon="-8.6311030">
        <ele>32.1</ele>
        <time>2021-05-22T10:36:07Z</time>
      </trkpt>
      <trkpt lat="42.5555780" lon="-8.6311050">
        <ele>32.1</ele>
        <time>2021-05-22T10:36:08Z</time>
      </trkpt>
      <trkpt lat="42.5555820" lon="-8.6311050">
        <ele>32.1</ele>
        <time>2021-05-22T10:36:09Z</time>
      </trkpt>
      <trkpt lat="42.5555840" lon="-8.6310950">
        <ele>32.1</ele>
        <time>2021-05-22T10:36:10Z</time>
      </trkpt>
      <trkpt lat="42.5555830" lon="-8.6311000">
        <ele>32.1</ele>
        <time>2021-05-22T10:36:11Z</time>
      </trkpt>
      <trkpt lat="42.5555800" lon="-8.6311040">
        <ele>32.1</ele>
        <time>2021-05-22T10:36:12Z</time>
      </trkpt>
      <trkpt lat="42.5555780" lon="-8.6310970">
        <ele>32.1</ele>
        <time>2021-05-22T10:36:13Z</time>
      </trkpt>
      <trkpt lat="42.5555890" lon="-8.6310840">
        <ele>32.1</ele>
        <time>2021-05-22T10:36:14Z</time>
      </trkpt>
      <trkpt lat="42.5555900" lon="-8.6310810">
        <ele>32.1</ele>
        <time>2021-05-22T10:36:15Z</time>
      </trkpt>
      <trkpt lat="42.5555890" lon="-8.6310580">
        <ele>32.1</ele>
        <time>2021-05-22T10:36:16Z</time>
      </trkpt>
      <trkpt lat="42.5555860" lon="-8.6310470">
        <ele>32.1</ele>
        <time>2021-05-22T10:36:17Z</time>
      </trkpt>
      <trkpt lat="42.5555670" lon="-8.6310500">
        <ele>32.1</ele>
        <time>2021-05-22T10:36:18Z</time>
      </trkpt>
      <trkpt lat="42.5555650" lon="-8.6310560">
        <ele>32.1</ele>
        <time>2021-05-22T10:36:19Z</time>
      </trkpt>
      <trkpt lat="42.5555680" lon="-8.6310520">
        <ele>32.1</ele>
        <time>2021-05-22T10:36:20Z</time>
      </trkpt>
      <trkpt lat="42.5555540" lon="-8.6310520">
        <ele>32.1</ele>
        <time>2021-05-22T10:36:21Z</time>
      </trkpt>
      <trkpt lat="42.5555470" lon="-8.6310550">
        <ele>32.1</ele>
        <time>2021-05-22T10:36:22Z</time>
      </trkpt>
      <trkpt lat="42.5555430" lon="-8.6310630">
        <ele>32.1</ele>
        <time>2021-05-22T10:36:23Z</time>
      </trkpt>
      <trkpt lat="42.5555430" lon="-8.6310630">
        <ele>32.1</ele>
        <time>2021-05-22T10:36:24Z</time>
      </trkpt>
      <trkpt lat="42.5555570" lon="-8.6310680">
        <ele>32.1</ele>
        <time>2021-05-22T10:36:25Z</time>
      </trkpt>
      <trkpt lat="42.5555590" lon="-8.6310770">
        <ele>32.1</ele>
        <time>2021-05-22T10:36:26Z</time>
      </trkpt>
      <trkpt lat="42.5555620" lon="-8.6310710">
        <ele>32.1</ele>
        <time>2021-05-22T10:36:27Z</time>
      </trkpt>
      <trkpt lat="42.5555630" lon="-8.6310650">
        <ele>32.1</ele>
        <time>2021-05-22T10:36:28Z</time>
      </trkpt>
      <trkpt lat="42.5555620" lon="-8.6310640">
        <ele>32.1</ele>
        <time>2021-05-22T10:36:29Z</time>
      </trkpt>
      <trkpt lat="42.5555620" lon="-8.6310670">
        <ele>32.1</ele>
        <time>2021-05-22T10:36:30Z</time>
      </trkpt>
      <trkpt lat="42.5555620" lon="-8.6310710">
        <ele>32.1</ele>
        <time>2021-05-22T10:36:31Z</time>
      </trkpt>
      <trkpt lat="42.5555620" lon="-8.6310770">
        <ele>32.1</ele>
        <time>2021-05-22T10:36:32Z</time>
      </trkpt>
      <trkpt lat="42.5555620" lon="-8.6310820">
        <ele>32.1</ele>
        <time>2021-05-22T10:36:33Z</time>
      </trkpt>
      <trkpt lat="42.5555640" lon="-8.6310860">
        <ele>32.1</ele>
        <time>2021-05-22T10:36:34Z</time>
      </trkpt>
      <trkpt lat="42.5555670" lon="-8.6311040">
        <ele>32.1</ele>
        <time>2021-05-22T10:36:35Z</time>
      </trkpt>
      <trkpt lat="42.5555680" lon="-8.6311160">
        <ele>32.1</ele>
        <time>2021-05-22T10:36:36Z</time>
      </trkpt>
      <trkpt lat="42.5555790" lon="-8.6311270">
        <ele>32.1</ele>
        <time>2021-05-22T10:36:37Z</time>
      </trkpt>
      <trkpt lat="42.5555860" lon="-8.6311420">
        <ele>32.1</ele>
        <time>2021-05-22T10:36:38Z</time>
      </trkpt>
      <trkpt lat="42.5555890" lon="-8.6311530">
        <ele>32.1</ele>
        <time>2021-05-22T10:36:39Z</time>
      </trkpt>
      <trkpt lat="42.5555950" lon="-8.6311570">
        <ele>32.1</ele>
        <time>2021-05-22T10:36:40Z</time>
      </trkpt>
      <trkpt lat="42.5555950" lon="-8.6311620">
        <ele>32.1</ele>
        <time>2021-05-22T10:36:41Z</time>
      </trkpt>
      <trkpt lat="42.5555900" lon="-8.6311660">
        <ele>32.1</ele>
        <time>2021-05-22T10:36:42Z</time>
      </trkpt>
      <trkpt lat="42.5555990" lon="-8.6311630">
        <ele>32.1</ele>
        <time>2021-05-22T10:36:43Z</time>
      </trkpt>
      <trkpt lat="42.5556020" lon="-8.6311660">
        <ele>32.1</ele>
        <time>2021-05-22T10:36:44Z</time>
      </trkpt>
      <trkpt lat="42.5556020" lon="-8.6311670">
        <ele>32.1</ele>
        <time>2021-05-22T10:36:45Z</time>
      </trkpt>
      <trkpt lat="42.5556110" lon="-8.6311630">
        <ele>32.1</ele>
        <time>2021-05-22T10:36:46Z</time>
      </trkpt>
      <trkpt lat="42.5556290" lon="-8.6311520">
        <ele>32.1</ele>
        <time>2021-05-22T10:36:47Z</time>
      </trkpt>
      <trkpt lat="42.5556290" lon="-8.6311550">
        <ele>32.1</ele>
        <time>2021-05-22T10:36:48Z</time>
      </trkpt>
      <trkpt lat="42.5556310" lon="-8.6311610">
        <ele>32.1</ele>
        <time>2021-05-22T10:36:49Z</time>
      </trkpt>
      <trkpt lat="42.5556280" lon="-8.6311650">
        <ele>32.1</ele>
        <time>2021-05-22T10:36:50Z</time>
      </trkpt>
      <trkpt lat="42.5556290" lon="-8.6311630">
        <ele>32.1</ele>
        <time>2021-05-22T10:36:51Z</time>
      </trkpt>
      <trkpt lat="42.5556290" lon="-8.6311610">
        <ele>32.1</ele>
        <time>2021-05-22T10:36:52Z</time>
      </trkpt>
      <trkpt lat="42.5556240" lon="-8.6311650">
        <ele>32.1</ele>
        <time>2021-05-22T10:36:53Z</time>
      </trkpt>
      <trkpt lat="42.5556270" lon="-8.6311690">
        <ele>32.1</ele>
        <time>2021-05-22T10:36:54Z</time>
      </trkpt>
      <trkpt lat="42.5556250" lon="-8.6311630">
        <ele>32.1</ele>
        <time>2021-05-22T10:36:55Z</time>
      </trkpt>
      <trkpt lat="42.5556270" lon="-8.6311670">
        <ele>32.1</ele>
        <time>2021-05-22T10:36:56Z</time>
      </trkpt>
      <trkpt lat="42.5556200" lon="-8.6311750">
        <ele>32.1</ele>
        <time>2021-05-22T10:36:57Z</time>
      </trkpt>
      <trkpt lat="42.5556030" lon="-8.6311560">
        <ele>32.1</ele>
        <time>2021-05-22T10:36:58Z</time>
      </trkpt>
      <trkpt lat="42.5556090" lon="-8.6311450">
        <ele>32.1</ele>
        <time>2021-05-22T10:36:59Z</time>
      </trkpt>
      <trkpt lat="42.5556060" lon="-8.6311410">
        <ele>32.1</ele>
        <time>2021-05-22T10:37:00Z</time>
      </trkpt>
      <trkpt lat="42.5556100" lon="-8.6311340">
        <ele>32.1</ele>
        <time>2021-05-22T10:37:01Z</time>
      </trkpt>
      <trkpt lat="42.5556200" lon="-8.6311160">
        <ele>32.1</ele>
        <time>2021-05-22T10:37:02Z</time>
      </trkpt>
      <trkpt lat="42.5556170" lon="-8.6311130">
        <ele>32.1</ele>
        <time>2021-05-22T10:37:03Z</time>
      </trkpt>
      <trkpt lat="42.5556190" lon="-8.6310970">
        <ele>32.1</ele>
        <time>2021-05-22T10:37:04Z</time>
      </trkpt>
      <trkpt lat="42.5556260" lon="-8.6310760">
        <ele>32.1</ele>
        <time>2021-05-22T10:37:05Z</time>
      </trkpt>
      <trkpt lat="42.5556280" lon="-8.6310800">
        <ele>32.1</ele>
        <time>2021-05-22T10:37:06Z</time>
      </trkpt>
      <trkpt lat="42.5556190" lon="-8.6310860">
        <ele>32.1</ele>
        <time>2021-05-22T10:37:07Z</time>
      </trkpt>
      <trkpt lat="42.5556120" lon="-8.6310900">
        <ele>32.1</ele>
        <time>2021-05-22T10:37:08Z</time>
      </trkpt>
      <trkpt lat="42.5556110" lon="-8.6310920">
        <ele>32.1</ele>
        <time>2021-05-22T10:37:09Z</time>
      </trkpt>
      <trkpt lat="42.5556000" lon="-8.6311010">
        <ele>32.1</ele>
        <time>2021-05-22T10:37:10Z</time>
      </trkpt>
      <trkpt lat="42.5555850" lon="-8.6311010">
        <ele>32.1</ele>
        <time>2021-05-22T10:37:11Z</time>
      </trkpt>
      <trkpt lat="42.5555770" lon="-8.6311040">
        <ele>32.1</ele>
        <time>2021-05-22T10:37:12Z</time>
      </trkpt>
      <trkpt lat="42.5555670" lon="-8.6311220">
        <ele>32.1</ele>
        <time>2021-05-22T10:37:13Z</time>
      </trkpt>
      <trkpt lat="42.5555690" lon="-8.6311260">
        <ele>32.1</ele>
        <time>2021-05-22T10:37:14Z</time>
      </trkpt>
      <trkpt lat="42.5555780" lon="-8.6311070">
        <ele>32.1</ele>
        <time>2021-05-22T10:37:15Z</time>
      </trkpt>
      <trkpt lat="42.5555900" lon="-8.6310990">
        <ele>32.1</ele>
        <time>2021-05-22T10:37:16Z</time>
      </trkpt>
      <trkpt lat="42.5555770" lon="-8.6311070">
        <ele>32.1</ele>
        <time>2021-05-22T10:37:17Z</time>
      </trkpt>
      <trkpt lat="42.5555770" lon="-8.6311190">
        <ele>32.1</ele>
        <time>2021-05-22T10:37:18Z</time>
      </trkpt>
      <trkpt lat="42.5555830" lon="-8.6311320">
        <ele>32.1</ele>
        <time>2021-05-22T10:37:19Z</time>
      </trkpt>
      <trkpt lat="42.5555810" lon="-8.6311360">
        <ele>32.1</ele>
        <time>2021-05-22T10:37:20Z</time>
      </trkpt>
      <trkpt lat="42.5555860" lon="-8.6311380">
        <ele>32.1</ele>
        <time>2021-05-22T10:37:21Z</time>
      </trkpt>
      <trkpt lat="42.5555780" lon="-8.6311380">
        <ele>32.1</ele>
        <time>2021-05-22T10:37:22Z</time>
      </trkpt>
      <trkpt lat="42.5555760" lon="-8.6311430">
        <ele>32.1</ele>
        <time>2021-05-22T10:37:23Z</time>
      </trkpt>
      <trkpt lat="42.5555770" lon="-8.6311450">
        <ele>32.1</ele>
        <time>2021-05-22T10:37:24Z</time>
      </trkpt>
      <trkpt lat="42.5555760" lon="-8.6311490">
        <ele>32.1</ele>
        <time>2021-05-22T10:37:25Z</time>
      </trkpt>
      <trkpt lat="42.5555760" lon="-8.6311450">
        <ele>32.1</ele>
        <time>2021-05-22T10:37:26Z</time>
      </trkpt>
      <trkpt lat="42.5555760" lon="-8.6311380">
        <ele>32.1</ele>
        <time>2021-05-22T10:37:27Z</time>
      </trkpt>
      <trkpt lat="42.5555760" lon="-8.6311350">
        <ele>32.1</ele>
        <time>2021-05-22T10:37:28Z</time>
      </trkpt>
      <trkpt lat="42.5555750" lon="-8.6311320">
        <ele>32.1</ele>
        <time>2021-05-22T10:37:29Z</time>
      </trkpt>
      <trkpt lat="42.5555760" lon="-8.6311210">
        <ele>32.1</ele>
        <time>2021-05-22T10:37:30Z</time>
      </trkpt>
      <trkpt lat="42.5555800" lon="-8.6311190">
        <ele>32.1</ele>
        <time>2021-05-22T10:37:31Z</time>
      </trkpt>
      <trkpt lat="42.5556020" lon="-8.6311080">
        <ele>32.1</ele>
        <time>2021-05-22T10:37:32Z</time>
      </trkpt>
      <trkpt lat="42.5556070" lon="-8.6311240">
        <ele>32.1</ele>
        <time>2021-05-22T10:37:33Z</time>
      </trkpt>
      <trkpt lat="42.5556050" lon="-8.6311490">
        <ele>32.1</ele>
        <time>2021-05-22T10:37:34Z</time>
      </trkpt>
      <trkpt lat="42.5556010" lon="-8.6311560">
        <ele>32.1</ele>
        <time>2021-05-22T10:37:35Z</time>
      </trkpt>
      <trkpt lat="42.5555970" lon="-8.6311600">
        <ele>32.1</ele>
        <time>2021-05-22T10:37:36Z</time>
      </trkpt>
      <trkpt lat="42.5555910" lon="-8.6311630">
        <ele>32.1</ele>
        <time>2021-05-22T10:37:37Z</time>
      </trkpt>
      <trkpt lat="42.5555890" lon="-8.6311670">
        <ele>32.1</ele>
        <time>2021-05-22T10:37:38Z</time>
      </trkpt>
      <trkpt lat="42.5555890" lon="-8.6311760">
        <ele>32.1</ele>
        <time>2021-05-22T10:37:39Z</time>
      </trkpt>
      <trkpt lat="42.5555910" lon="-8.6311770">
        <ele>32.1</ele>
        <time>2021-05-22T10:37:40Z</time>
      </trkpt>
      <trkpt lat="42.5555890" lon="-8.6311750">
        <ele>32.1</ele>
        <time>2021-05-22T10:37:41Z</time>
      </trkpt>
      <trkpt lat="42.5555840" lon="-8.6311770">
        <ele>32.1</ele>
        <time>2021-05-22T10:37:42Z</time>
      </trkpt>
      <trkpt lat="42.5555800" lon="-8.6311770">
        <ele>32.1</ele>
        <time>2021-05-22T10:37:43Z</time>
      </trkpt>
      <trkpt lat="42.5555790" lon="-8.6311590">
        <ele>32.1</ele>
        <time>2021-05-22T10:37:44Z</time>
      </trkpt>
      <trkpt lat="42.5555850" lon="-8.6311600">
        <ele>32.1</ele>
        <time>2021-05-22T10:37:45Z</time>
      </trkpt>
      <trkpt lat="42.5555860" lon="-8.6311580">
        <ele>32.1</ele>
        <time>2021-05-22T10:37:46Z</time>
      </trkpt>
      <trkpt lat="42.5555920" lon="-8.6311560">
        <ele>32.1</ele>
        <time>2021-05-22T10:37:47Z</time>
      </trkpt>
      <trkpt lat="42.5555910" lon="-8.6311590">
        <ele>32.1</ele>
        <time>2021-05-22T10:37:48Z</time>
      </trkpt>
      <trkpt lat="42.5555960" lon="-8.6311640">
        <ele>32.1</ele>
        <time>2021-05-22T10:37:49Z</time>
      </trkpt>
      <trkpt lat="42.5556010" lon="-8.6311590">
        <ele>32.1</ele>
        <time>2021-05-22T10:37:50Z</time>
      </trkpt>
      <trkpt lat="42.5556080" lon="-8.6311570">
        <ele>32.1</ele>
        <time>2021-05-22T10:37:51Z</time>
      </trkpt>
      <trkpt lat="42.5556160" lon="-8.6311560">
        <ele>32.1</ele>
        <time>2021-05-22T10:37:52Z</time>
      </trkpt>
      <trkpt lat="42.5556140" lon="-8.6311620">
        <ele>32.1</ele>
        <time>2021-05-22T10:37:53Z</time>
      </trkpt>
      <trkpt lat="42.5556140" lon="-8.6311510">
        <ele>32.1</ele>
        <time>2021-05-22T10:37:54Z</time>
      </trkpt>
      <trkpt lat="42.5556150" lon="-8.6311570">
        <ele>32.1</ele>
        <time>2021-05-22T10:37:55Z</time>
      </trkpt>
      <trkpt lat="42.5556130" lon="-8.6311530">
        <ele>32.1</ele>
        <time>2021-05-22T10:37:56Z</time>
      </trkpt>
      <trkpt lat="42.5556150" lon="-8.6311500">
        <ele>32.1</ele>
        <time>2021-05-22T10:37:57Z</time>
      </trkpt>
      <trkpt lat="42.5556130" lon="-8.6311500">
        <ele>32.1</ele>
        <time>2021-05-22T10:37:58Z</time>
      </trkpt>
      <trkpt lat="42.5556130" lon="-8.6311470">
        <ele>32.1</ele>
        <time>2021-05-22T10:37:59Z</time>
      </trkpt>
      <trkpt lat="42.5556140" lon="-8.6311470">
        <ele>32.1</ele>
        <time>2021-05-22T10:38:00Z</time>
      </trkpt>
      <trkpt lat="42.5556110" lon="-8.6311440">
        <ele>32.1</ele>
        <time>2021-05-22T10:38:01Z</time>
      </trkpt>
      <trkpt lat="42.5556130" lon="-8.6311430">
        <ele>32.1</ele>
        <time>2021-05-22T10:38:02Z</time>
      </trkpt>
      <trkpt lat="42.5556130" lon="-8.6311490">
        <ele>32.1</ele>
        <time>2021-05-22T10:38:03Z</time>
      </trkpt>
      <trkpt lat="42.5556120" lon="-8.6311470">
        <ele>32.1</ele>
        <time>2021-05-22T10:38:04Z</time>
      </trkpt>
      <trkpt lat="42.5556140" lon="-8.6311450">
        <ele>32.1</ele>
        <time>2021-05-22T10:38:05Z</time>
      </trkpt>
      <trkpt lat="42.5556150" lon="-8.6311490">
        <ele>32.1</ele>
        <time>2021-05-22T10:38:06Z</time>
      </trkpt>
      <trkpt lat="42.5556150" lon="-8.6311510">
        <ele>32.1</ele>
        <time>2021-05-22T10:38:07Z</time>
      </trkpt>
      <trkpt lat="42.5556180" lon="-8.6311480">
        <ele>32.1</ele>
        <time>2021-05-22T10:38:08Z</time>
      </trkpt>
      <trkpt lat="42.5556210" lon="-8.6311440">
        <ele>32.1</ele>
        <time>2021-05-22T10:38:09Z</time>
      </trkpt>
      <trkpt lat="42.5556230" lon="-8.6311470">
        <ele>32.1</ele>
        <time>2021-05-22T10:38:10Z</time>
      </trkpt>
      <trkpt lat="42.5556230" lon="-8.6311470">
        <ele>32.1</ele>
        <time>2021-05-22T10:38:11Z</time>
      </trkpt>
      <trkpt lat="42.5556250" lon="-8.6311490">
        <ele>32.1</ele>
        <time>2021-05-22T10:38:12Z</time>
      </trkpt>
      <trkpt lat="42.5556280" lon="-8.6311510">
        <ele>32.1</ele>
        <time>2021-05-22T10:38:13Z</time>
      </trkpt>
      <trkpt lat="42.5556330" lon="-8.6311520">
        <ele>32.1</ele>
        <time>2021-05-22T10:38:14Z</time>
      </trkpt>
      <trkpt lat="42.5556340" lon="-8.6311520">
        <ele>32.1</ele>
        <time>2021-05-22T10:38:15Z</time>
      </trkpt>
      <trkpt lat="42.5556340" lon="-8.6311520">
        <ele>32.1</ele>
        <time>2021-05-22T10:38:16Z</time>
      </trkpt>
      <trkpt lat="42.5556340" lon="-8.6311520">
        <ele>32.1</ele>
        <time>2021-05-22T10:38:17Z</time>
      </trkpt>
      <trkpt lat="42.5556440" lon="-8.6311560">
        <ele>32.1</ele>
        <time>2021-05-22T10:38:18Z</time>
      </trkpt>
      <trkpt lat="42.5556480" lon="-8.6311570">
        <ele>32.1</ele>
        <time>2021-05-22T10:38:19Z</time>
      </trkpt>
      <trkpt lat="42.5556500" lon="-8.6311580">
        <ele>32.1</ele>
        <time>2021-05-22T10:38:20Z</time>
      </trkpt>
      <trkpt lat="42.5556540" lon="-8.6311570">
        <ele>32.1</ele>
        <time>2021-05-22T10:38:21Z</time>
      </trkpt>
      <trkpt lat="42.5556500" lon="-8.6311580">
        <ele>32.1</ele>
        <time>2021-05-22T10:38:22Z</time>
      </trkpt>
      <trkpt lat="42.5556510" lon="-8.6311580">
        <ele>32.1</ele>
        <time>2021-05-22T10:38:23Z</time>
      </trkpt>
      <trkpt lat="42.5556540" lon="-8.6311630">
        <ele>32.1</ele>
        <time>2021-05-22T10:38:24Z</time>
      </trkpt>
      <trkpt lat="42.5556500" lon="-8.6311740">
        <ele>32.1</ele>
        <time>2021-05-22T10:38:25Z</time>
      </trkpt>
      <trkpt lat="42.5556350" lon="-8.6311810">
        <ele>32.1</ele>
        <time>2021-05-22T10:38:26Z</time>
      </trkpt>
      <trkpt lat="42.5556310" lon="-8.6311890">
        <ele>32.1</ele>
        <time>2021-05-22T10:38:27Z</time>
      </trkpt>
      <trkpt lat="42.5556180" lon="-8.6311980">
        <ele>32.1</ele>
        <time>2021-05-22T10:38:28Z</time>
      </trkpt>
      <trkpt lat="42.5556140" lon="-8.6311980">
        <ele>32.1</ele>
        <time>2021-05-22T10:38:29Z</time>
      </trkpt>
      <trkpt lat="42.5556180" lon="-8.6311960">
        <ele>32.1</ele>
        <time>2021-05-22T10:38:30Z</time>
      </trkpt>
      <trkpt lat="42.5556220" lon="-8.6311980">
        <ele>32.1</ele>
        <time>2021-05-22T10:38:31Z</time>
      </trkpt>
      <trkpt lat="42.5556230" lon="-8.6311980">
        <ele>32.1</ele>
        <time>2021-05-22T10:38:32Z</time>
      </trkpt>
      <trkpt lat="42.5556250" lon="-8.6311950">
        <ele>32.1</ele>
        <time>2021-05-22T10:38:33Z</time>
      </trkpt>
      <trkpt lat="42.5556250" lon="-8.6311950">
        <ele>32.1</ele>
        <time>2021-05-22T10:38:34Z</time>
      </trkpt>
      <trkpt lat="42.5556250" lon="-8.6311950">
        <ele>32.1</ele>
        <time>2021-05-22T10:38:35Z</time>
      </trkpt>
      <trkpt lat="42.5556300" lon="-8.6311870">
        <ele>32.1</ele>
        <time>2021-05-22T10:38:36Z</time>
      </trkpt>
      <trkpt lat="42.5556320" lon="-8.6311780">
        <ele>32.1</ele>
        <time>2021-05-22T10:38:37Z</time>
      </trkpt>
      <trkpt lat="42.5556280" lon="-8.6311580">
        <ele>32.1</ele>
        <time>2021-05-22T10:38:38Z</time>
      </trkpt>
      <trkpt lat="42.5556270" lon="-8.6311640">
        <ele>32.1</ele>
        <time>2021-05-22T10:38:39Z</time>
      </trkpt>
      <trkpt lat="42.5556290" lon="-8.6311680">
        <ele>32.1</ele>
        <time>2021-05-22T10:38:40Z</time>
      </trkpt>
      <trkpt lat="42.5556270" lon="-8.6311720">
        <ele>32.1</ele>
        <time>2021-05-22T10:38:41Z</time>
      </trkpt>
      <trkpt lat="42.5556280" lon="-8.6311750">
        <ele>32.1</ele>
        <time>2021-05-22T10:38:42Z</time>
      </trkpt>
      <trkpt lat="42.5556230" lon="-8.6311770">
        <ele>32.1</ele>
        <time>2021-05-22T10:38:43Z</time>
      </trkpt>
      <trkpt lat="42.5556230" lon="-8.6311730">
        <ele>32.1</ele>
        <time>2021-05-22T10:38:44Z</time>
      </trkpt>
      <trkpt lat="42.5556250" lon="-8.6311770">
        <ele>32.1</ele>
        <time>2021-05-22T10:38:45Z</time>
      </trkpt>
      <trkpt lat="42.5556210" lon="-8.6311810">
        <ele>32.1</ele>
        <time>2021-05-22T10:38:46Z</time>
      </trkpt>
      <trkpt lat="42.5556170" lon="-8.6311830">
        <ele>32.1</ele>
        <time>2021-05-22T10:38:47Z</time>
      </trkpt>
      <trkpt lat="42.5556170" lon="-8.6311870">
        <ele>32.1</ele>
        <time>2021-05-22T10:38:48Z</time>
      </trkpt>
      <trkpt lat="42.5556160" lon="-8.6311860">
        <ele>32.1</ele>
        <time>2021-05-22T10:38:49Z</time>
      </trkpt>
      <trkpt lat="42.5556190" lon="-8.6311850">
        <ele>32.1</ele>
        <time>2021-05-22T10:38:50Z</time>
      </trkpt>
      <trkpt lat="42.5556250" lon="-8.6311800">
        <ele>32.1</ele>
        <time>2021-05-22T10:38:51Z</time>
      </trkpt>
      <trkpt lat="42.5556280" lon="-8.6311820">
        <ele>32.1</ele>
        <time>2021-05-22T10:38:52Z</time>
      </trkpt>
      <trkpt lat="42.5556290" lon="-8.6311800">
        <ele>32.1</ele>
        <time>2021-05-22T10:38:53Z</time>
      </trkpt>
      <trkpt lat="42.5556260" lon="-8.6311750">
        <ele>32.1</ele>
        <time>2021-05-22T10:38:54Z</time>
      </trkpt>
      <trkpt lat="42.5556290" lon="-8.6311670">
        <ele>32.1</ele>
        <time>2021-05-22T10:38:55Z</time>
      </trkpt>
      <trkpt lat="42.5556260" lon="-8.6311660">
        <ele>32.1</ele>
        <time>2021-05-22T10:38:56Z</time>
      </trkpt>
      <trkpt lat="42.5556270" lon="-8.6311630">
        <ele>32.1</ele>
        <time>2021-05-22T10:38:57Z</time>
      </trkpt>
      <trkpt lat="42.5556270" lon="-8.6311570">
        <ele>32.1</ele>
        <time>2021-05-22T10:38:58Z</time>
      </trkpt>
      <trkpt lat="42.5556290" lon="-8.6311520">
        <ele>32.1</ele>
        <time>2021-05-22T10:38:59Z</time>
      </trkpt>
      <trkpt lat="42.5556310" lon="-8.6311550">
        <ele>32.1</ele>
        <time>2021-05-22T10:39:00Z</time>
      </trkpt>
      <trkpt lat="42.5556340" lon="-8.6311550">
        <ele>32.1</ele>
        <time>2021-05-22T10:39:01Z</time>
      </trkpt>
      <trkpt lat="42.5556360" lon="-8.6311560">
        <ele>32.1</ele>
        <time>2021-05-22T10:39:02Z</time>
      </trkpt>
      <trkpt lat="42.5556380" lon="-8.6311570">
        <ele>32.1</ele>
        <time>2021-05-22T10:39:03Z</time>
      </trkpt>
      <trkpt lat="42.5556410" lon="-8.6311580">
        <ele>32.1</ele>
        <time>2021-05-22T10:39:04Z</time>
      </trkpt>
      <trkpt lat="42.5556430" lon="-8.6311580">
        <ele>32.1</ele>
        <time>2021-05-22T10:39:05Z</time>
      </trkpt>
      <trkpt lat="42.5556450" lon="-8.6311590">
        <ele>32.1</ele>
        <time>2021-05-22T10:39:06Z</time>
      </trkpt>
      <trkpt lat="42.5556480" lon="-8.6311600">
        <ele>32.1</ele>
        <time>2021-05-22T10:39:07Z</time>
      </trkpt>
      <trkpt lat="42.5556500" lon="-8.6311610">
        <ele>32.1</ele>
        <time>2021-05-22T10:39:08Z</time>
      </trkpt>
      <trkpt lat="42.5556520" lon="-8.6311610">
        <ele>32.1</ele>
        <time>2021-05-22T10:39:09Z</time>
      </trkpt>
      <trkpt lat="42.5556540" lon="-8.6311620">
        <ele>32.1</ele>
        <time>2021-05-22T10:39:10Z</time>
      </trkpt>
      <trkpt lat="42.5556570" lon="-8.6311630">
        <ele>32.1</ele>
        <time>2021-05-22T10:39:11Z</time>
      </trkpt>
      <trkpt lat="42.5556590" lon="-8.6311640">
        <ele>32.1</ele>
        <time>2021-05-22T10:39:12Z</time>
      </trkpt>
      <trkpt lat="42.5556610" lon="-8.6311640">
        <ele>32.1</ele>
        <time>2021-05-22T10:39:13Z</time>
      </trkpt>
      <trkpt lat="42.5556640" lon="-8.6311650">
        <ele>32.1</ele>
        <time>2021-05-22T10:39:14Z</time>
      </trkpt>
      <trkpt lat="42.5556660" lon="-8.6311660">
        <ele>32.1</ele>
        <time>2021-05-22T10:39:15Z</time>
      </trkpt>
      <trkpt lat="42.5556780" lon="-8.6311820">
        <ele>32.1</ele>
        <time>2021-05-22T10:39:16Z</time>
      </trkpt>
      <trkpt lat="42.5556860" lon="-8.6311830">
        <ele>32.1</ele>
        <time>2021-05-22T10:39:17Z</time>
      </trkpt>
      <trkpt lat="42.5556940" lon="-8.6311830">
        <ele>32.1</ele>
        <time>2021-05-22T10:39:18Z</time>
      </trkpt>
      <trkpt lat="42.5557020" lon="-8.6311840">
        <ele>32.1</ele>
        <time>2021-05-22T10:39:19Z</time>
      </trkpt>
      <trkpt lat="42.5557020" lon="-8.6311840">
        <ele>32.1</ele>
        <time>2021-05-22T10:39:20Z</time>
      </trkpt>
      <trkpt lat="42.5557230" lon="-8.6311950">
        <ele>32.1</ele>
        <time>2021-05-22T10:39:21Z</time>
      </trkpt>
      <trkpt lat="42.5557340" lon="-8.6311990">
        <ele>32.1</ele>
        <time>2021-05-22T10:39:22Z</time>
      </trkpt>
      <trkpt lat="42.5557430" lon="-8.6312060">
        <ele>32.1</ele>
        <time>2021-05-22T10:39:23Z</time>
      </trkpt>
      <trkpt lat="42.5557390" lon="-8.6312040">
        <ele>32.1</ele>
        <time>2021-05-22T10:39:24Z</time>
      </trkpt>
      <trkpt lat="42.5557350" lon="-8.6312020">
        <ele>32.1</ele>
        <time>2021-05-22T10:39:25Z</time>
      </trkpt>
      <trkpt lat="42.5557300" lon="-8.6312000">
        <ele>32.1</ele>
        <time>2021-05-22T10:39:26Z</time>
      </trkpt>
      <trkpt lat="42.5557260" lon="-8.6311980">
        <ele>32.1</ele>
        <time>2021-05-22T10:39:27Z</time>
      </trkpt>
      <trkpt lat="42.5557220" lon="-8.6311960">
        <ele>32.1</ele>
        <time>2021-05-22T10:39:28Z</time>
      </trkpt>
      <trkpt lat="42.5557180" lon="-8.6311940">
        <ele>32.1</ele>
        <time>2021-05-22T10:39:29Z</time>
      </trkpt>
      <trkpt lat="42.5557140" lon="-8.6311920">
        <ele>32.1</ele>
        <time>2021-05-22T10:39:30Z</time>
      </trkpt>
      <trkpt lat="42.5557100" lon="-8.6311900">
        <ele>32.1</ele>
        <time>2021-05-22T10:39:31Z</time>
      </trkpt>
      <trkpt lat="42.5557060" lon="-8.6311880">
        <ele>32.1</ele>
        <time>2021-05-22T10:39:32Z</time>
      </trkpt>
      <trkpt lat="42.5557010" lon="-8.6311860">
        <ele>32.1</ele>
        <time>2021-05-22T10:39:33Z</time>
      </trkpt>
      <trkpt lat="42.5556970" lon="-8.6311840">
        <ele>32.1</ele>
        <time>2021-05-22T10:39:34Z</time>
      </trkpt>
      <trkpt lat="42.5556930" lon="-8.6311820">
        <ele>32.1</ele>
        <time>2021-05-22T10:39:35Z</time>
      </trkpt>
      <trkpt lat="42.5556890" lon="-8.6311800">
        <ele>32.1</ele>
        <time>2021-05-22T10:39:36Z</time>
      </trkpt>
      <trkpt lat="42.5556730" lon="-8.6311900">
        <ele>32.1</ele>
        <time>2021-05-22T10:39:37Z</time>
      </trkpt>
      <trkpt lat="42.5556710" lon="-8.6311850">
        <ele>32.1</ele>
        <time>2021-05-22T10:39:38Z</time>
      </trkpt>
      <trkpt lat="42.5556700" lon="-8.6311790">
        <ele>32.1</ele>
        <time>2021-05-22T10:39:39Z</time>
      </trkpt>
      <trkpt lat="42.5556680" lon="-8.6311740">
        <ele>32.1</ele>
        <time>2021-05-22T10:39:40Z</time>
      </trkpt>
      <trkpt lat="42.5556670" lon="-8.6311690">
        <ele>32.1</ele>
        <time>2021-05-22T10:39:41Z</time>
      </trkpt>
      <trkpt lat="42.5556650" lon="-8.6311640">
        <ele>32.1</ele>
        <time>2021-05-22T10:39:42Z</time>
      </trkpt>
      <trkpt lat="42.5556640" lon="-8.6311580">
        <ele>32.1</ele>
        <time>2021-05-22T10:39:43Z</time>
      </trkpt>
      <trkpt lat="42.5556620" lon="-8.6311530">
        <ele>32.1</ele>
        <time>2021-05-22T10:39:44Z</time>
      </trkpt>
      <trkpt lat="42.5556610" lon="-8.6311480">
        <ele>32.1</ele>
        <time>2021-05-22T10:39:45Z</time>
      </trkpt>
      <trkpt lat="42.5556590" lon="-8.6311570">
        <ele>32.1</ele>
        <time>2021-05-22T10:39:46Z</time>
      </trkpt>
      <trkpt lat="42.5556580" lon="-8.6311610">
        <ele>32.1</ele>
        <time>2021-05-22T10:39:47Z</time>
      </trkpt>
      <trkpt lat="42.5556340" lon="-8.6311590">
        <ele>32.1</ele>
        <time>2021-05-22T10:39:48Z</time>
      </trkpt>
      <trkpt lat="42.5556360" lon="-8.6311640">
        <ele>32.1</ele>
        <time>2021-05-22T10:39:49Z</time>
      </trkpt>
      <trkpt lat="42.5556430" lon="-8.6311650">
        <ele>32.1</ele>
        <time>2021-05-22T10:39:50Z</time>
      </trkpt>
      <trkpt lat="42.5556450" lon="-8.6311870">
        <ele>32.1</ele>
        <time>2021-05-22T10:39:51Z</time>
      </trkpt>
      <trkpt lat="42.5556480" lon="-8.6311870">
        <ele>32.1</ele>
        <time>2021-05-22T10:39:52Z</time>
      </trkpt>
      <trkpt lat="42.5556490" lon="-8.6311900">
        <ele>32.1</ele>
        <time>2021-05-22T10:39:53Z</time>
      </trkpt>
      <trkpt lat="42.5556480" lon="-8.6311940">
        <ele>32.1</ele>
        <time>2021-05-22T10:39:54Z</time>
      </trkpt>
      <trkpt lat="42.5556370" lon="-8.6311900">
        <ele>32.1</ele>
        <time>2021-05-22T10:39:55Z</time>
      </trkpt>
      <trkpt lat="42.5556300" lon="-8.6311780">
        <ele>32.1</ele>
        <time>2021-05-22T10:39:56Z</time>
      </trkpt>
      <trkpt lat="42.5556260" lon="-8.6311610">
        <ele>32.1</ele>
        <time>2021-05-22T10:39:57Z</time>
      </trkpt>
      <trkpt lat="42.5556210" lon="-8.6311460">
        <ele>32.1</ele>
        <time>2021-05-22T10:39:58Z</time>
      </trkpt>
      <trkpt lat="42.5556210" lon="-8.6311450">
        <ele>32.1</ele>
        <time>2021-05-22T10:39:59Z</time>
      </trkpt>
      <trkpt lat="42.5556220" lon="-8.6311640">
        <ele>32.1</ele>
        <time>2021-05-22T10:40:00Z</time>
      </trkpt>
      <trkpt lat="42.5556190" lon="-8.6311670">
        <ele>32.1</ele>
        <time>2021-05-22T10:40:01Z</time>
      </trkpt>
      <trkpt lat="42.5556170" lon="-8.6311720">
        <ele>32.1</ele>
        <time>2021-05-22T10:40:02Z</time>
      </trkpt>
      <trkpt lat="42.5556160" lon="-8.6311760">
        <ele>32.1</ele>
        <time>2021-05-22T10:40:03Z</time>
      </trkpt>
      <trkpt lat="42.5556170" lon="-8.6311800">
        <ele>32.1</ele>
        <time>2021-05-22T10:40:04Z</time>
      </trkpt>
      <trkpt lat="42.5556220" lon="-8.6311770">
        <ele>32.1</ele>
        <time>2021-05-22T10:40:05Z</time>
      </trkpt>
      <trkpt lat="42.5556240" lon="-8.6311820">
        <ele>32.1</ele>
        <time>2021-05-22T10:40:06Z</time>
      </trkpt>
      <trkpt lat="42.5556220" lon="-8.6311900">
        <ele>32.1</ele>
        <time>2021-05-22T10:40:07Z</time>
      </trkpt>
      <trkpt lat="42.5556190" lon="-8.6311900">
        <ele>32.1</ele>
        <time>2021-05-22T10:40:08Z</time>
      </trkpt>
      <trkpt lat="42.5556100" lon="-8.6311830">
        <ele>32.1</ele>
        <time>2021-05-22T10:40:09Z</time>
      </trkpt>
      <trkpt lat="42.5556060" lon="-8.6311800">
        <ele>32.1</ele>
        <time>2021-05-22T10:40:10Z</time>
      </trkpt>
      <trkpt lat="42.5556100" lon="-8.6311920">
        <ele>32.1</ele>
        <time>2021-05-22T10:40:11Z</time>
      </trkpt>
      <trkpt lat="42.5556090" lon="-8.6311930">
        <ele>32.1</ele>
        <time>2021-05-22T10:40:12Z</time>
      </trkpt>
      <trkpt lat="42.5556250" lon="-8.6311610">
        <ele>32.1</ele>
        <time>2021-05-22T10:40:13Z</time>
      </trkpt>
      <trkpt lat="42.5556230" lon="-8.6311600">
        <ele>32.1</ele>
        <time>2021-05-22T10:40:14Z</time>
      </trkpt>
      <trkpt lat="42.5556190" lon="-8.6311530">
        <ele>32.1</ele>
        <time>2021-05-22T10:40:15Z</time>
      </trkpt>
      <trkpt lat="42.5556140" lon="-8.6311560">
        <ele>32.1</ele>
        <time>2021-05-22T10:40:16Z</time>
      </trkpt>
      <trkpt lat="42.5556110" lon="-8.6311580">
        <ele>32.1</ele>
        <time>2021-05-22T10:40:17Z</time>
      </trkpt>
      <trkpt lat="42.5556060" lon="-8.6311610">
        <ele>32.1</ele>
        <time>2021-05-22T10:40:18Z</time>
      </trkpt>
      <trkpt lat="42.5555970" lon="-8.6311560">
        <ele>32.1</ele>
        <time>2021-05-22T10:40:19Z</time>
      </trkpt>
      <trkpt lat="42.5555960" lon="-8.6311570">
        <ele>32.1</ele>
        <time>2021-05-22T10:40:20Z</time>
      </trkpt>
      <trkpt lat="42.5556030" lon="-8.6311500">
        <ele>32.1</ele>
        <time>2021-05-22T10:40:21Z</time>
      </trkpt>
      <trkpt lat="42.5556060" lon="-8.6311640">
        <ele>32.1</ele>
        <time>2021-05-22T10:40:22Z</time>
      </trkpt>
      <trkpt lat="42.5556100" lon="-8.6311660">
        <ele>32.1</ele>
        <time>2021-05-22T10:40:23Z</time>
      </trkpt>
      <trkpt lat="42.5556120" lon="-8.6311640">
        <ele>32.1</ele>
        <time>2021-05-22T10:40:24Z</time>
      </trkpt>
      <trkpt lat="42.5556150" lon="-8.6311570">
        <ele>32.1</ele>
        <time>2021-05-22T10:40:25Z</time>
      </trkpt>
      <trkpt lat="42.5556180" lon="-8.6311560">
        <ele>32.1</ele>
        <time>2021-05-22T10:40:26Z</time>
      </trkpt>
      <trkpt lat="42.5556120" lon="-8.6311510">
        <ele>32.1</ele>
        <time>2021-05-22T10:40:27Z</time>
      </trkpt>
      <trkpt lat="42.5556120" lon="-8.6311390">
        <ele>32.1</ele>
        <time>2021-05-22T10:40:28Z</time>
      </trkpt>
      <trkpt lat="42.5556000" lon="-8.6311240">
        <ele>32.1</ele>
        <time>2021-05-22T10:40:29Z</time>
      </trkpt>
      <trkpt lat="42.5556010" lon="-8.6311390">
        <ele>32.1</ele>
        <time>2021-05-22T10:40:30Z</time>
      </trkpt>
      <trkpt lat="42.5555900" lon="-8.6311310">
        <ele>32.1</ele>
        <time>2021-05-22T10:40:31Z</time>
      </trkpt>
      <trkpt lat="42.5555860" lon="-8.6311220">
        <ele>32.1</ele>
        <time>2021-05-22T10:40:32Z</time>
      </trkpt>
      <trkpt lat="42.5555830" lon="-8.6311200">
        <ele>32.1</ele>
        <time>2021-05-22T10:40:33Z</time>
      </trkpt>
      <trkpt lat="42.5555790" lon="-8.6311200">
        <ele>32.1</ele>
        <time>2021-05-22T10:40:34Z</time>
      </trkpt>
      <trkpt lat="42.5555760" lon="-8.6311220">
        <ele>32.1</ele>
        <time>2021-05-22T10:40:35Z</time>
      </trkpt>
      <trkpt lat="42.5555720" lon="-8.6311300">
        <ele>32.1</ele>
        <time>2021-05-22T10:40:36Z</time>
      </trkpt>
      <trkpt lat="42.5555750" lon="-8.6311350">
        <ele>32.1</ele>
        <time>2021-05-22T10:40:37Z</time>
      </trkpt>
      <trkpt lat="42.5555770" lon="-8.6311350">
        <ele>32.1</ele>
        <time>2021-05-22T10:40:38Z</time>
      </trkpt>
      <trkpt lat="42.5555780" lon="-8.6311380">
        <ele>32.1</ele>
        <time>2021-05-22T10:40:39Z</time>
      </trkpt>
      <trkpt lat="42.5555810" lon="-8.6311400">
        <ele>32.1</ele>
        <time>2021-05-22T10:40:40Z</time>
      </trkpt>
      <trkpt lat="42.5555770" lon="-8.6311480">
        <ele>32.1</ele>
        <time>2021-05-22T10:40:41Z</time>
      </trkpt>
      <trkpt lat="42.5555780" lon="-8.6311500">
        <ele>32.1</ele>
        <time>2021-05-22T10:40:42Z</time>
      </trkpt>
      <trkpt lat="42.5555790" lon="-8.6311490">
        <ele>32.1</ele>
        <time>2021-05-22T10:40:43Z</time>
      </trkpt>
      <trkpt lat="42.5555780" lon="-8.6311490">
        <ele>32.1</ele>
        <time>2021-05-22T10:40:44Z</time>
      </trkpt>
      <trkpt lat="42.5555800" lon="-8.6311530">
        <ele>32.1</ele>
        <time>2021-05-22T10:40:45Z</time>
      </trkpt>
      <trkpt lat="42.5555770" lon="-8.6311550">
        <ele>32.1</ele>
        <time>2021-05-22T10:40:46Z</time>
      </trkpt>
      <trkpt lat="42.5555910" lon="-8.6311630">
        <ele>32.1</ele>
        <time>2021-05-22T10:40:47Z</time>
      </trkpt>
      <trkpt lat="42.5555920" lon="-8.6311530">
        <ele>32.1</ele>
        <time>2021-05-22T10:40:48Z</time>
      </trkpt>
      <trkpt lat="42.5555900" lon="-8.6311460">
        <ele>32.1</ele>
        <time>2021-05-22T10:40:49Z</time>
      </trkpt>
      <trkpt lat="42.5555880" lon="-8.6311400">
        <ele>32.1</ele>
        <time>2021-05-22T10:40:50Z</time>
      </trkpt>
      <trkpt lat="42.5555860" lon="-8.6311340">
        <ele>32.1</ele>
        <time>2021-05-22T10:40:51Z</time>
      </trkpt>
      <trkpt lat="42.5555840" lon="-8.6311280">
        <ele>32.1</ele>
        <time>2021-05-22T10:40:52Z</time>
      </trkpt>
      <trkpt lat="42.5555820" lon="-8.6311210">
        <ele>32.1</ele>
        <time>2021-05-22T10:40:53Z</time>
      </trkpt>
      <trkpt lat="42.5555800" lon="-8.6311150">
        <ele>32.1</ele>
        <time>2021-05-22T10:40:54Z</time>
      </trkpt>
      <trkpt lat="42.5555750" lon="-8.6310990">
        <ele>32.1</ele>
        <time>2021-05-22T10:40:55Z</time>
      </trkpt>
      <trkpt lat="42.5555680" lon="-8.6310900">
        <ele>32.1</ele>
        <time>2021-05-22T10:40:56Z</time>
      </trkpt>
      <trkpt lat="42.5555650" lon="-8.6310850">
        <ele>32.1</ele>
        <time>2021-05-22T10:40:57Z</time>
      </trkpt>
      <trkpt lat="42.5555610" lon="-8.6310850">
        <ele>32.1</ele>
        <time>2021-05-22T10:40:58Z</time>
      </trkpt>
      <trkpt lat="42.5555700" lon="-8.6311020">
        <ele>32.1</ele>
        <time>2021-05-22T10:40:59Z</time>
      </trkpt>
      <trkpt lat="42.5555780" lon="-8.6311090">
        <ele>32.1</ele>
        <time>2021-05-22T10:41:00Z</time>
      </trkpt>
      <trkpt lat="42.5555810" lon="-8.6311150">
        <ele>32.1</ele>
        <time>2021-05-22T10:41:01Z</time>
      </trkpt>
      <trkpt lat="42.5555840" lon="-8.6311150">
        <ele>32.1</ele>
        <time>2021-05-22T10:41:02Z</time>
      </trkpt>
      <trkpt lat="42.5555830" lon="-8.6311130">
        <ele>32.1</ele>
        <time>2021-05-22T10:41:03Z</time>
      </trkpt>
      <trkpt lat="42.5555840" lon="-8.6311160">
        <ele>32.1</ele>
        <time>2021-05-22T10:41:04Z</time>
      </trkpt>
      <trkpt lat="42.5555800" lon="-8.6311150">
        <ele>32.1</ele>
        <time>2021-05-22T10:41:05Z</time>
      </trkpt>
      <trkpt lat="42.5555770" lon="-8.6311110">
        <ele>32.1</ele>
        <time>2021-05-22T10:41:06Z</time>
      </trkpt>
      <trkpt lat="42.5555730" lon="-8.6310930">
        <ele>32.1</ele>
        <time>2021-05-22T10:41:08Z</time>
      </trkpt>
      <trkpt lat="42.5555770" lon="-8.6310830">
        <ele>32.1</ele>
        <time>2021-05-22T10:41:09Z</time>
      </trkpt>
      <trkpt lat="42.5555790" lon="-8.6310740">
        <ele>32.1</ele>
        <time>2021-05-22T10:41:11Z</time>
      </trkpt>
      <trkpt lat="42.5555780" lon="-8.6310650">
        <ele>32.1</ele>
        <time>2021-05-22T10:41:12Z</time>
      </trkpt>
      <trkpt lat="42.5555750" lon="-8.6310700">
        <ele>32.1</ele>
        <time>2021-05-22T10:41:13Z</time>
      </trkpt>
      <trkpt lat="42.5555760" lon="-8.6310600">
        <ele>32.1</ele>
        <time>2021-05-22T10:41:14Z</time>
      </trkpt>
      <trkpt lat="42.5555830" lon="-8.6310740">
        <ele>32.1</ele>
        <time>2021-05-22T10:41:15Z</time>
      </trkpt>
      <trkpt lat="42.5555830" lon="-8.6310770">
        <ele>32.1</ele>
        <time>2021-05-22T10:41:16Z</time>
      </trkpt>
      <trkpt lat="42.5555910" lon="-8.6310670">
        <ele>32.1</ele>
        <time>2021-05-22T10:41:17Z</time>
      </trkpt>
      <trkpt lat="42.5555930" lon="-8.6310590">
        <ele>32.1</ele>
        <time>2021-05-22T10:41:18Z</time>
      </trkpt>
      <trkpt lat="42.5555920" lon="-8.6310690">
        <ele>32.1</ele>
        <time>2021-05-22T10:41:19Z</time>
      </trkpt>
      <trkpt lat="42.5555900" lon="-8.6310900">
        <ele>32.1</ele>
        <time>2021-05-22T10:41:20Z</time>
      </trkpt>
      <trkpt lat="42.5555900" lon="-8.6310810">
        <ele>32.1</ele>
        <time>2021-05-22T10:41:21Z</time>
      </trkpt>
      <trkpt lat="42.5555890" lon="-8.6310750">
        <ele>32.1</ele>
        <time>2021-05-22T10:41:22Z</time>
      </trkpt>
      <trkpt lat="42.5555890" lon="-8.6310700">
        <ele>32.1</ele>
        <time>2021-05-22T10:41:23Z</time>
      </trkpt>
      <trkpt lat="42.5555920" lon="-8.6310660">
        <ele>32.1</ele>
        <time>2021-05-22T10:41:24Z</time>
      </trkpt>
      <trkpt lat="42.5555920" lon="-8.6310640">
        <ele>32.1</ele>
        <time>2021-05-22T10:41:25Z</time>
      </trkpt>
      <trkpt lat="42.5555940" lon="-8.6310540">
        <ele>32.1</ele>
        <time>2021-05-22T10:41:26Z</time>
      </trkpt>
      <trkpt lat="42.5555870" lon="-8.6310550">
        <ele>32.1</ele>
        <time>2021-05-22T10:41:27Z</time>
      </trkpt>
      <trkpt lat="42.5555810" lon="-8.6310620">
        <ele>32.1</ele>
        <time>2021-05-22T10:41:28Z</time>
      </trkpt>
      <trkpt lat="42.5555830" lon="-8.6310620">
        <ele>32.1</ele>
        <time>2021-05-22T10:41:29Z</time>
      </trkpt>
      <trkpt lat="42.5555850" lon="-8.6310560">
        <ele>32.1</ele>
        <time>2021-05-22T10:41:30Z</time>
      </trkpt>
      <trkpt lat="42.5555890" lon="-8.6310540">
        <ele>32.1</ele>
        <time>2021-05-22T10:41:31Z</time>
      </trkpt>
      <trkpt lat="42.5555890" lon="-8.6310590">
        <ele>32.1</ele>
        <time>2021-05-22T10:41:32Z</time>
      </trkpt>
      <trkpt lat="42.5555920" lon="-8.6310640">
        <ele>32.1</ele>
        <time>2021-05-22T10:41:33Z</time>
      </trkpt>
      <trkpt lat="42.5555920" lon="-8.6310720">
        <ele>32.1</ele>
        <time>2021-05-22T10:41:34Z</time>
      </trkpt>
      <trkpt lat="42.5555900" lon="-8.6310760">
        <ele>32.1</ele>
        <time>2021-05-22T10:41:35Z</time>
      </trkpt>
      <trkpt lat="42.5555900" lon="-8.6311090">
        <ele>32.1</ele>
        <time>2021-05-22T10:41:36Z</time>
      </trkpt>
      <trkpt lat="42.5555860" lon="-8.6311100">
        <ele>32.1</ele>
        <time>2021-05-22T10:41:37Z</time>
      </trkpt>
      <trkpt lat="42.5555800" lon="-8.6311010">
        <ele>32.1</ele>
        <time>2021-05-22T10:41:38Z</time>
      </trkpt>
      <trkpt lat="42.5555730" lon="-8.6310950">
        <ele>32.1</ele>
        <time>2021-05-22T10:41:39Z</time>
      </trkpt>
      <trkpt lat="42.5555640" lon="-8.6310880">
        <ele>32.1</ele>
        <time>2021-05-22T10:41:40Z</time>
      </trkpt>
      <trkpt lat="42.5555550" lon="-8.6310820">
        <ele>32.1</ele>
        <time>2021-05-22T10:41:41Z</time>
      </trkpt>
      <trkpt lat="42.5555410" lon="-8.6310740">
        <ele>32.1</ele>
        <time>2021-05-22T10:41:42Z</time>
      </trkpt>
      <trkpt lat="42.5555380" lon="-8.6310730">
        <ele>32.1</ele>
        <time>2021-05-22T10:41:43Z</time>
      </trkpt>
      <trkpt lat="42.5555330" lon="-8.6310740">
        <ele>32.1</ele>
        <time>2021-05-22T10:41:44Z</time>
      </trkpt>
      <trkpt lat="42.5555260" lon="-8.6310790">
        <ele>32.1</ele>
        <time>2021-05-22T10:41:45Z</time>
      </trkpt>
      <trkpt lat="42.5555260" lon="-8.6310790">
        <ele>32.1</ele>
        <time>2021-05-22T10:41:46Z</time>
      </trkpt>
      <trkpt lat="42.5555360" lon="-8.6311090">
        <ele>32.1</ele>
        <time>2021-05-22T10:41:47Z</time>
      </trkpt>
      <trkpt lat="42.5555510" lon="-8.6311190">
        <ele>32.1</ele>
        <time>2021-05-22T10:41:48Z</time>
      </trkpt>
      <trkpt lat="42.5555580" lon="-8.6311300">
        <ele>32.1</ele>
        <time>2021-05-22T10:41:49Z</time>
      </trkpt>
      <trkpt lat="42.5555580" lon="-8.6311340">
        <ele>32.1</ele>
        <time>2021-05-22T10:41:50Z</time>
      </trkpt>
      <trkpt lat="42.5555670" lon="-8.6311390">
        <ele>32.1</ele>
        <time>2021-05-22T10:41:51Z</time>
      </trkpt>
      <trkpt lat="42.5555670" lon="-8.6311350">
        <ele>32.1</ele>
        <time>2021-05-22T10:41:52Z</time>
      </trkpt>
      <trkpt lat="42.5555670" lon="-8.6311330">
        <ele>32.1</ele>
        <time>2021-05-22T10:41:53Z</time>
      </trkpt>
      <trkpt lat="42.5555700" lon="-8.6311260">
        <ele>32.1</ele>
        <time>2021-05-22T10:41:54Z</time>
      </trkpt>
      <trkpt lat="42.5555710" lon="-8.6311220">
        <ele>32.1</ele>
        <time>2021-05-22T10:41:55Z</time>
      </trkpt>
      <trkpt lat="42.5555700" lon="-8.6311180">
        <ele>32.1</ele>
        <time>2021-05-22T10:41:56Z</time>
      </trkpt>
      <trkpt lat="42.5555650" lon="-8.6311210">
        <ele>32.1</ele>
        <time>2021-05-22T10:41:57Z</time>
      </trkpt>
      <trkpt lat="42.5555710" lon="-8.6311150">
        <ele>32.1</ele>
        <time>2021-05-22T10:41:58Z</time>
      </trkpt>
      <trkpt lat="42.5555720" lon="-8.6311220">
        <ele>32.1</ele>
        <time>2021-05-22T10:41:59Z</time>
      </trkpt>
      <trkpt lat="42.5555680" lon="-8.6311320">
        <ele>32.1</ele>
        <time>2021-05-22T10:42:00Z</time>
      </trkpt>
      <trkpt lat="42.5555660" lon="-8.6311520">
        <ele>32.1</ele>
        <time>2021-05-22T10:42:01Z</time>
      </trkpt>
      <trkpt lat="42.5555690" lon="-8.6311610">
        <ele>32.1</ele>
        <time>2021-05-22T10:42:02Z</time>
      </trkpt>
      <trkpt lat="42.5555740" lon="-8.6311740">
        <ele>32.1</ele>
        <time>2021-05-22T10:42:03Z</time>
      </trkpt>
      <trkpt lat="42.5555700" lon="-8.6311630">
        <ele>32.1</ele>
        <time>2021-05-22T10:42:04Z</time>
      </trkpt>
      <trkpt lat="42.5555970" lon="-8.6311370">
        <ele>32.1</ele>
        <time>2021-05-22T10:42:05Z</time>
      </trkpt>
      <trkpt lat="42.5555890" lon="-8.6311260">
        <ele>32.1</ele>
        <time>2021-05-22T10:42:06Z</time>
      </trkpt>
      <trkpt lat="42.5555970" lon="-8.6311290">
        <ele>32.1</ele>
        <time>2021-05-22T10:42:07Z</time>
      </trkpt>
      <trkpt lat="42.5555990" lon="-8.6311240">
        <ele>32.1</ele>
        <time>2021-05-22T10:42:08Z</time>
      </trkpt>
      <trkpt lat="42.5556000" lon="-8.6311210">
        <ele>32.1</ele>
        <time>2021-05-22T10:42:09Z</time>
      </trkpt>
      <trkpt lat="42.5556040" lon="-8.6311240">
        <ele>32.1</ele>
        <time>2021-05-22T10:42:10Z</time>
      </trkpt>
      <trkpt lat="42.5556080" lon="-8.6311210">
        <ele>32.1</ele>
        <time>2021-05-22T10:42:11Z</time>
      </trkpt>
      <trkpt lat="42.5556090" lon="-8.6311250">
        <ele>32.1</ele>
        <time>2021-05-22T10:42:12Z</time>
      </trkpt>
      <trkpt lat="42.5556090" lon="-8.6311290">
        <ele>32.1</ele>
        <time>2021-05-22T10:42:13Z</time>
      </trkpt>
      <trkpt lat="42.5556040" lon="-8.6311310">
        <ele>32.1</ele>
        <time>2021-05-22T10:42:14Z</time>
      </trkpt>
      <trkpt lat="42.5556040" lon="-8.6311280">
        <ele>32.1</ele>
        <time>2021-05-22T10:42:15Z</time>
      </trkpt>
      <trkpt lat="42.5555990" lon="-8.6311430">
        <ele>32.1</ele>
        <time>2021-05-22T10:42:16Z</time>
      </trkpt>
      <trkpt lat="42.5555930" lon="-8.6311390">
        <ele>32.1</ele>
        <time>2021-05-22T10:42:17Z</time>
      </trkpt>
      <trkpt lat="42.5555970" lon="-8.6311330">
        <ele>32.1</ele>
        <time>2021-05-22T10:42:18Z</time>
      </trkpt>
      <trkpt lat="42.5556030" lon="-8.6311320">
        <ele>32.1</ele>
        <time>2021-05-22T10:42:19Z</time>
      </trkpt>
      <trkpt lat="42.5556030" lon="-8.6311270">
        <ele>32.1</ele>
        <time>2021-05-22T10:42:20Z</time>
      </trkpt>
      <trkpt lat="42.5556040" lon="-8.6311250">
        <ele>32.1</ele>
        <time>2021-05-22T10:42:21Z</time>
      </trkpt>
      <trkpt lat="42.5556020" lon="-8.6311250">
        <ele>32.1</ele>
        <time>2021-05-22T10:42:22Z</time>
      </trkpt>
      <trkpt lat="42.5556050" lon="-8.6311270">
        <ele>32.1</ele>
        <time>2021-05-22T10:42:23Z</time>
      </trkpt>
      <trkpt lat="42.5556050" lon="-8.6311190">
        <ele>32.1</ele>
        <time>2021-05-22T10:42:24Z</time>
      </trkpt>
      <trkpt lat="42.5556040" lon="-8.6311120">
        <ele>32.1</ele>
        <time>2021-05-22T10:42:26Z</time>
      </trkpt>
      <trkpt lat="42.5555910" lon="-8.6311170">
        <ele>32.1</ele>
        <time>2021-05-22T10:42:27Z</time>
      </trkpt>
      <trkpt lat="42.5555850" lon="-8.6311280">
        <ele>32.1</ele>
        <time>2021-05-22T10:42:28Z</time>
      </trkpt>
      <trkpt lat="42.5555810" lon="-8.6311310">
        <ele>32.1</ele>
        <time>2021-05-22T10:42:29Z</time>
      </trkpt>
      <trkpt lat="42.5555800" lon="-8.6311320">
        <ele>32.1</ele>
        <time>2021-05-22T10:42:30Z</time>
      </trkpt>
      <trkpt lat="42.5555950" lon="-8.6311170">
        <ele>32.1</ele>
        <time>2021-05-22T10:42:31Z</time>
      </trkpt>
      <trkpt lat="42.5556070" lon="-8.6311190">
        <ele>32.1</ele>
        <time>2021-05-22T10:42:32Z</time>
      </trkpt>
      <trkpt lat="42.5556080" lon="-8.6311320">
        <ele>32.1</ele>
        <time>2021-05-22T10:42:33Z</time>
      </trkpt>
      <trkpt lat="42.5556060" lon="-8.6311320">
        <ele>32.1</ele>
        <time>2021-05-22T10:42:34Z</time>
      </trkpt>
      <trkpt lat="42.5556000" lon="-8.6311260">
        <ele>32.1</ele>
        <time>2021-05-22T10:42:35Z</time>
      </trkpt>
      <trkpt lat="42.5555960" lon="-8.6311180">
        <ele>32.1</ele>
        <time>2021-05-22T10:42:36Z</time>
      </trkpt>
      <trkpt lat="42.5555970" lon="-8.6311120">
        <ele>32.1</ele>
        <time>2021-05-22T10:42:37Z</time>
      </trkpt>
      <trkpt lat="42.5555980" lon="-8.6311090">
        <ele>32.1</ele>
        <time>2021-05-22T10:42:38Z</time>
      </trkpt>
      <trkpt lat="42.5556030" lon="-8.6311090">
        <ele>32.1</ele>
        <time>2021-05-22T10:42:39Z</time>
      </trkpt>
      <trkpt lat="42.5556020" lon="-8.6311120">
        <ele>32.1</ele>
        <time>2021-05-22T10:42:40Z</time>
      </trkpt>
      <trkpt lat="42.5556030" lon="-8.6311030">
        <ele>32.1</ele>
        <time>2021-05-22T10:42:41Z</time>
      </trkpt>
      <trkpt lat="42.5556030" lon="-8.6311030">
        <ele>32.1</ele>
        <time>2021-05-22T10:42:42Z</time>
      </trkpt>
      <trkpt lat="42.5556040" lon="-8.6310980">
        <ele>32.1</ele>
        <time>2021-05-22T10:42:43Z</time>
      </trkpt>
      <trkpt lat="42.5556040" lon="-8.6311010">
        <ele>32.1</ele>
        <time>2021-05-22T10:42:44Z</time>
      </trkpt>
      <trkpt lat="42.5556010" lon="-8.6310990">
        <ele>32.1</ele>
        <time>2021-05-22T10:42:45Z</time>
      </trkpt>
      <trkpt lat="42.5555990" lon="-8.6311040">
        <ele>32.1</ele>
        <time>2021-05-22T10:42:46Z</time>
      </trkpt>
      <trkpt lat="42.5555910" lon="-8.6311150">
        <ele>32.1</ele>
        <time>2021-05-22T10:42:47Z</time>
      </trkpt>
      <trkpt lat="42.5555930" lon="-8.6311090">
        <ele>32.1</ele>
        <time>2021-05-22T10:42:48Z</time>
      </trkpt>
      <trkpt lat="42.5555890" lon="-8.6311040">
        <ele>32.1</ele>
        <time>2021-05-22T10:42:49Z</time>
      </trkpt>
      <trkpt lat="42.5555750" lon="-8.6311000">
        <ele>32.1</ele>
        <time>2021-05-22T10:42:50Z</time>
      </trkpt>
      <trkpt lat="42.5555710" lon="-8.6310970">
        <ele>32.1</ele>
        <time>2021-05-22T10:42:51Z</time>
      </trkpt>
      <trkpt lat="42.5555680" lon="-8.6310930">
        <ele>32.1</ele>
        <time>2021-05-22T10:42:52Z</time>
      </trkpt>
      <trkpt lat="42.5555790" lon="-8.6311000">
        <ele>32.1</ele>
        <time>2021-05-22T10:42:53Z</time>
      </trkpt>
      <trkpt lat="42.5555790" lon="-8.6311100">
        <ele>32.1</ele>
        <time>2021-05-22T10:42:54Z</time>
      </trkpt>
      <trkpt lat="42.5555730" lon="-8.6311220">
        <ele>32.1</ele>
        <time>2021-05-22T10:42:55Z</time>
      </trkpt>
      <trkpt lat="42.5555680" lon="-8.6311300">
        <ele>32.1</ele>
        <time>2021-05-22T10:42:56Z</time>
      </trkpt>
      <trkpt lat="42.5555730" lon="-8.6311340">
        <ele>32.1</ele>
        <time>2021-05-22T10:42:57Z</time>
      </trkpt>
      <trkpt lat="42.5555790" lon="-8.6311310">
        <ele>32.1</ele>
        <time>2021-05-22T10:42:58Z</time>
      </trkpt>
      <trkpt lat="42.5555950" lon="-8.6311220">
        <ele>32.1</ele>
        <time>2021-05-22T10:42:59Z</time>
      </trkpt>
      <trkpt lat="42.5555910" lon="-8.6311170">
        <ele>32.1</ele>
        <time>2021-05-22T10:43:00Z</time>
      </trkpt>
      <trkpt lat="42.5555850" lon="-8.6311210">
        <ele>32.1</ele>
        <time>2021-05-22T10:43:01Z</time>
      </trkpt>
      <trkpt lat="42.5555830" lon="-8.6311260">
        <ele>32.1</ele>
        <time>2021-05-22T10:43:02Z</time>
      </trkpt>
      <trkpt lat="42.5555750" lon="-8.6311440">
        <ele>32.1</ele>
        <time>2021-05-22T10:43:03Z</time>
      </trkpt>
      <trkpt lat="42.5555720" lon="-8.6311580">
        <ele>32.1</ele>
        <time>2021-05-22T10:43:04Z</time>
      </trkpt>
      <trkpt lat="42.5555750" lon="-8.6311640">
        <ele>32.1</ele>
        <time>2021-05-22T10:43:05Z</time>
      </trkpt>
      <trkpt lat="42.5555640" lon="-8.6311700">
        <ele>32.1</ele>
        <time>2021-05-22T10:43:06Z</time>
      </trkpt>
      <trkpt lat="42.5555550" lon="-8.6311700">
        <ele>32.1</ele>
        <time>2021-05-22T10:43:07Z</time>
      </trkpt>
      <trkpt lat="42.5555540" lon="-8.6311690">
        <ele>32.1</ele>
        <time>2021-05-22T10:43:08Z</time>
      </trkpt>
      <trkpt lat="42.5555470" lon="-8.6311900">
        <ele>32.1</ele>
        <time>2021-05-22T10:43:09Z</time>
      </trkpt>
      <trkpt lat="42.5555340" lon="-8.6311970">
        <ele>32.1</ele>
        <time>2021-05-22T10:43:10Z</time>
      </trkpt>
      <trkpt lat="42.5555310" lon="-8.6311940">
        <ele>32.1</ele>
        <time>2021-05-22T10:43:11Z</time>
      </trkpt>
      <trkpt lat="42.5555310" lon="-8.6311910">
        <ele>32.1</ele>
        <time>2021-05-22T10:43:12Z</time>
      </trkpt>
      <trkpt lat="42.5555440" lon="-8.6312090">
        <ele>32.1</ele>
        <time>2021-05-22T10:43:13Z</time>
      </trkpt>
      <trkpt lat="42.5555570" lon="-8.6312170">
        <ele>32.1</ele>
        <time>2021-05-22T10:43:14Z</time>
      </trkpt>
      <trkpt lat="42.5555540" lon="-8.6312100">
        <ele>32.1</ele>
        <time>2021-05-22T10:43:15Z</time>
      </trkpt>
      <trkpt lat="42.5555540" lon="-8.6312110">
        <ele>32.1</ele>
        <time>2021-05-22T10:43:16Z</time>
      </trkpt>
      <trkpt lat="42.5555530" lon="-8.6312100">
        <ele>32.1</ele>
        <time>2021-05-22T10:43:17Z</time>
      </trkpt>
      <trkpt lat="42.5555520" lon="-8.6312200">
        <ele>32.1</ele>
        <time>2021-05-22T10:43:18Z</time>
      </trkpt>
      <trkpt lat="42.5555510" lon="-8.6312160">
        <ele>32.1</ele>
        <time>2021-05-22T10:43:19Z</time>
      </trkpt>
      <trkpt lat="42.5555550" lon="-8.6312110">
        <ele>32.1</ele>
        <time>2021-05-22T10:43:20Z</time>
      </trkpt>
      <trkpt lat="42.5555550" lon="-8.6312020">
        <ele>32.1</ele>
        <time>2021-05-22T10:43:21Z</time>
      </trkpt>
      <trkpt lat="42.5555520" lon="-8.6311970">
        <ele>32.1</ele>
        <time>2021-05-22T10:43:22Z</time>
      </trkpt>
      <trkpt lat="42.5555450" lon="-8.6312120">
        <ele>32.1</ele>
        <time>2021-05-22T10:43:23Z</time>
      </trkpt>
      <trkpt lat="42.5555390" lon="-8.6312140">
        <ele>32.1</ele>
        <time>2021-05-22T10:43:24Z</time>
      </trkpt>
      <trkpt lat="42.5555290" lon="-8.6312130">
        <ele>32.1</ele>
        <time>2021-05-22T10:43:25Z</time>
      </trkpt>
      <trkpt lat="42.5555390" lon="-8.6312110">
        <ele>32.1</ele>
        <time>2021-05-22T10:43:26Z</time>
      </trkpt>
      <trkpt lat="42.5555370" lon="-8.6312090">
        <ele>32.1</ele>
        <time>2021-05-22T10:43:27Z</time>
      </trkpt>
      <trkpt lat="42.5555440" lon="-8.6312100">
        <ele>32.1</ele>
        <time>2021-05-22T10:43:28Z</time>
      </trkpt>
      <trkpt lat="42.5555440" lon="-8.6312110">
        <ele>32.1</ele>
        <time>2021-05-22T10:43:29Z</time>
      </trkpt>
      <trkpt lat="42.5555440" lon="-8.6312110">
        <ele>32.1</ele>
        <time>2021-05-22T10:43:30Z</time>
      </trkpt>
      <trkpt lat="42.5555440" lon="-8.6311770">
        <ele>32.1</ele>
        <time>2021-05-22T10:43:31Z</time>
      </trkpt>
      <trkpt lat="42.5555370" lon="-8.6311670">
        <ele>32.1</ele>
        <time>2021-05-22T10:43:32Z</time>
      </trkpt>
      <trkpt lat="42.5555350" lon="-8.6311550">
        <ele>32.1</ele>
        <time>2021-05-22T10:43:33Z</time>
      </trkpt>
      <trkpt lat="42.5555430" lon="-8.6311500">
        <ele>32.1</ele>
        <time>2021-05-22T10:43:34Z</time>
      </trkpt>
      <trkpt lat="42.5555580" lon="-8.6311620">
        <ele>32.1</ele>
        <time>2021-05-22T10:43:35Z</time>
      </trkpt>
      <trkpt lat="42.5555640" lon="-8.6311670">
        <ele>32.1</ele>
        <time>2021-05-22T10:43:36Z</time>
      </trkpt>
      <trkpt lat="42.5555680" lon="-8.6311740">
        <ele>32.1</ele>
        <time>2021-05-22T10:43:37Z</time>
      </trkpt>
      <trkpt lat="42.5555690" lon="-8.6311660">
        <ele>32.1</ele>
        <time>2021-05-22T10:43:38Z</time>
      </trkpt>
      <trkpt lat="42.5555670" lon="-8.6311540">
        <ele>32.1</ele>
        <time>2021-05-22T10:43:39Z</time>
      </trkpt>
      <trkpt lat="42.5555590" lon="-8.6311490">
        <ele>32.1</ele>
        <time>2021-05-22T10:43:40Z</time>
      </trkpt>
      <trkpt lat="42.5555560" lon="-8.6311550">
        <ele>32.1</ele>
        <time>2021-05-22T10:43:41Z</time>
      </trkpt>
      <trkpt lat="42.5555540" lon="-8.6311650">
        <ele>32.1</ele>
        <time>2021-05-22T10:43:42Z</time>
      </trkpt>
      <trkpt lat="42.5555540" lon="-8.6311650">
        <ele>32.1</ele>
        <time>2021-05-22T10:43:43Z</time>
      </trkpt>
      <trkpt lat="42.5555610" lon="-8.6311970">
        <ele>32.1</ele>
        <time>2021-05-22T10:43:44Z</time>
      </trkpt>
      <trkpt lat="42.5555640" lon="-8.6312030">
        <ele>32.1</ele>
        <time>2021-05-22T10:43:45Z</time>
      </trkpt>
      <trkpt lat="42.5555650" lon="-8.6311940">
        <ele>32.1</ele>
        <time>2021-05-22T10:43:46Z</time>
      </trkpt>
      <trkpt lat="42.5555650" lon="-8.6311940">
        <ele>32.1</ele>
        <time>2021-05-22T10:43:47Z</time>
      </trkpt>
      <trkpt lat="42.5555670" lon="-8.6311970">
        <ele>32.1</ele>
        <time>2021-05-22T10:43:48Z</time>
      </trkpt>
      <trkpt lat="42.5555650" lon="-8.6311910">
        <ele>32.1</ele>
        <time>2021-05-22T10:43:49Z</time>
      </trkpt>
      <trkpt lat="42.5555660" lon="-8.6311850">
        <ele>32.1</ele>
        <time>2021-05-22T10:43:50Z</time>
      </trkpt>
      <trkpt lat="42.5555570" lon="-8.6311950">
        <ele>32.1</ele>
        <time>2021-05-22T10:43:51Z</time>
      </trkpt>
      <trkpt lat="42.5555480" lon="-8.6311800">
        <ele>32.1</ele>
        <time>2021-05-22T10:43:52Z</time>
      </trkpt>
      <trkpt lat="42.5555480" lon="-8.6311610">
        <ele>32.1</ele>
        <time>2021-05-22T10:43:53Z</time>
      </trkpt>
      <trkpt lat="42.5555500" lon="-8.6311520">
        <ele>32.1</ele>
        <time>2021-05-22T10:43:54Z</time>
      </trkpt>
      <trkpt lat="42.5555630" lon="-8.6311610">
        <ele>32.1</ele>
        <time>2021-05-22T10:43:55Z</time>
      </trkpt>
      <trkpt lat="42.5555760" lon="-8.6311610">
        <ele>32.1</ele>
        <time>2021-05-22T10:43:56Z</time>
      </trkpt>
      <trkpt lat="42.5555740" lon="-8.6311650">
        <ele>32.1</ele>
        <time>2021-05-22T10:43:57Z</time>
      </trkpt>
      <trkpt lat="42.5555710" lon="-8.6311630">
        <ele>32.1</ele>
        <time>2021-05-22T10:43:58Z</time>
      </trkpt>
      <trkpt lat="42.5555700" lon="-8.6311630">
        <ele>32.1</ele>
        <time>2021-05-22T10:43:59Z</time>
      </trkpt>
      <trkpt lat="42.5555650" lon="-8.6311710">
        <ele>32.1</ele>
        <time>2021-05-22T10:44:00Z</time>
      </trkpt>
      <trkpt lat="42.5555550" lon="-8.6311800">
        <ele>32.1</ele>
        <time>2021-05-22T10:44:01Z</time>
      </trkpt>
      <trkpt lat="42.5555550" lon="-8.6311800">
        <ele>32.1</ele>
        <time>2021-05-22T10:44:02Z</time>
      </trkpt>
      <trkpt lat="42.5555480" lon="-8.6311770">
        <ele>32.1</ele>
        <time>2021-05-22T10:44:03Z</time>
      </trkpt>
      <trkpt lat="42.5555410" lon="-8.6311650">
        <ele>32.1</ele>
        <time>2021-05-22T10:44:04Z</time>
      </trkpt>
      <trkpt lat="42.5555410" lon="-8.6311660">
        <ele>32.1</ele>
        <time>2021-05-22T10:44:05Z</time>
      </trkpt>
      <trkpt lat="42.5555410" lon="-8.6311770">
        <ele>32.1</ele>
        <time>2021-05-22T10:44:06Z</time>
      </trkpt>
      <trkpt lat="42.5555430" lon="-8.6311730">
        <ele>32.1</ele>
        <time>2021-05-22T10:44:07Z</time>
      </trkpt>
      <trkpt lat="42.5555430" lon="-8.6311730">
        <ele>32.1</ele>
        <time>2021-05-22T10:44:08Z</time>
      </trkpt>
      <trkpt lat="42.5555390" lon="-8.6311790">
        <ele>32.1</ele>
        <time>2021-05-22T10:44:09Z</time>
      </trkpt>
      <trkpt lat="42.5555380" lon="-8.6311700">
        <ele>32.1</ele>
        <time>2021-05-22T10:44:10Z</time>
      </trkpt>
      <trkpt lat="42.5555460" lon="-8.6311580">
        <ele>32.1</ele>
        <time>2021-05-22T10:44:11Z</time>
      </trkpt>
      <trkpt lat="42.5555580" lon="-8.6311580">
        <ele>32.1</ele>
        <time>2021-05-22T10:44:12Z</time>
      </trkpt>
      <trkpt lat="42.5555580" lon="-8.6311530">
        <ele>32.1</ele>
        <time>2021-05-22T10:44:13Z</time>
      </trkpt>
      <trkpt lat="42.5555580" lon="-8.6311460">
        <ele>32.1</ele>
        <time>2021-05-22T10:44:14Z</time>
      </trkpt>
      <trkpt lat="42.5555570" lon="-8.6311400">
        <ele>32.1</ele>
        <time>2021-05-22T10:44:15Z</time>
      </trkpt>
      <trkpt lat="42.5555540" lon="-8.6311320">
        <ele>32.1</ele>
        <time>2021-05-22T10:44:16Z</time>
      </trkpt>
      <trkpt lat="42.5555540" lon="-8.6311250">
        <ele>32.1</ele>
        <time>2021-05-22T10:44:17Z</time>
      </trkpt>
      <trkpt lat="42.5555370" lon="-8.6311370">
        <ele>32.1</ele>
        <time>2021-05-22T10:44:18Z</time>
      </trkpt>
      <trkpt lat="42.5555380" lon="-8.6311670">
        <ele>32.1</ele>
        <time>2021-05-22T10:44:19Z</time>
      </trkpt>
      <trkpt lat="42.5555400" lon="-8.6311650">
        <ele>32.1</ele>
        <time>2021-05-22T10:44:20Z</time>
      </trkpt>
      <trkpt lat="42.5555270" lon="-8.6311570">
        <ele>32.1</ele>
        <time>2021-05-22T10:44:21Z</time>
      </trkpt>
      <trkpt lat="42.5555180" lon="-8.6311630">
        <ele>32.1</ele>
        <time>2021-05-22T10:44:22Z</time>
      </trkpt>
      <trkpt lat="42.5555150" lon="-8.6311560">
        <ele>32.1</ele>
        <time>2021-05-22T10:44:23Z</time>
      </trkpt>
      <trkpt lat="42.5555150" lon="-8.6311630">
        <ele>32.1</ele>
        <time>2021-05-22T10:44:24Z</time>
      </trkpt>
      <trkpt lat="42.5555060" lon="-8.6311740">
        <ele>32.1</ele>
        <time>2021-05-22T10:44:25Z</time>
      </trkpt>
      <trkpt lat="42.5555020" lon="-8.6311720">
        <ele>32.1</ele>
        <time>2021-05-22T10:44:26Z</time>
      </trkpt>
      <trkpt lat="42.5555020" lon="-8.6311680">
        <ele>32.1</ele>
        <time>2021-05-22T10:44:27Z</time>
      </trkpt>
      <trkpt lat="42.5555020" lon="-8.6311700">
        <ele>32.1</ele>
        <time>2021-05-22T10:44:28Z</time>
      </trkpt>
      <trkpt lat="42.5555040" lon="-8.6311650">
        <ele>32.1</ele>
        <time>2021-05-22T10:44:29Z</time>
      </trkpt>
      <trkpt lat="42.5555120" lon="-8.6311510">
        <ele>32.1</ele>
        <time>2021-05-22T10:44:30Z</time>
      </trkpt>
      <trkpt lat="42.5555110" lon="-8.6311370">
        <ele>32.1</ele>
        <time>2021-05-22T10:44:31Z</time>
      </trkpt>
      <trkpt lat="42.5555130" lon="-8.6311400">
        <ele>32.1</ele>
        <time>2021-05-22T10:44:32Z</time>
      </trkpt>
      <trkpt lat="42.5555150" lon="-8.6311400">
        <ele>32.1</ele>
        <time>2021-05-22T10:44:33Z</time>
      </trkpt>
      <trkpt lat="42.5555170" lon="-8.6311360">
        <ele>32.1</ele>
        <time>2021-05-22T10:44:34Z</time>
      </trkpt>
      <trkpt lat="42.5555220" lon="-8.6311220">
        <ele>32.1</ele>
        <time>2021-05-22T10:44:35Z</time>
      </trkpt>
      <trkpt lat="42.5555220" lon="-8.6311270">
        <ele>32.1</ele>
        <time>2021-05-22T10:44:37Z</time>
      </trkpt>
      <trkpt lat="42.5555140" lon="-8.6311360">
        <ele>32.1</ele>
        <time>2021-05-22T10:44:38Z</time>
      </trkpt>
      <trkpt lat="42.5555190" lon="-8.6311440">
        <ele>32.1</ele>
        <time>2021-05-22T10:44:39Z</time>
      </trkpt>
      <trkpt lat="42.5555310" lon="-8.6311480">
        <ele>32.1</ele>
        <time>2021-05-22T10:44:40Z</time>
      </trkpt>
      <trkpt lat="42.5555380" lon="-8.6311540">
        <ele>32.1</ele>
        <time>2021-05-22T10:44:41Z</time>
      </trkpt>
      <trkpt lat="42.5555470" lon="-8.6311530">
        <ele>32.1</ele>
        <time>2021-05-22T10:44:42Z</time>
      </trkpt>
      <trkpt lat="42.5555490" lon="-8.6311460">
        <ele>32.1</ele>
        <time>2021-05-22T10:44:43Z</time>
      </trkpt>
      <trkpt lat="42.5555480" lon="-8.6311420">
        <ele>32.1</ele>
        <time>2021-05-22T10:44:44Z</time>
      </trkpt>
      <trkpt lat="42.5555470" lon="-8.6311410">
        <ele>32.1</ele>
        <time>2021-05-22T10:44:45Z</time>
      </trkpt>
      <trkpt lat="42.5555410" lon="-8.6311520">
        <ele>32.1</ele>
        <time>2021-05-22T10:44:46Z</time>
      </trkpt>
      <trkpt lat="42.5555370" lon="-8.6311710">
        <ele>32.1</ele>
        <time>2021-05-22T10:44:47Z</time>
      </trkpt>
      <trkpt lat="42.5555290" lon="-8.6311840">
        <ele>32.1</ele>
        <time>2021-05-22T10:44:48Z</time>
      </trkpt>
      <trkpt lat="42.5555290" lon="-8.6311940">
        <ele>32.1</ele>
        <time>2021-05-22T10:44:49Z</time>
      </trkpt>
      <trkpt lat="42.5555460" lon="-8.6311910">
        <ele>32.1</ele>
        <time>2021-05-22T10:44:50Z</time>
      </trkpt>
      <trkpt lat="42.5555560" lon="-8.6311930">
        <ele>32.1</ele>
        <time>2021-05-22T10:44:51Z</time>
      </trkpt>
      <trkpt lat="42.5555660" lon="-8.6311960">
        <ele>32.1</ele>
        <time>2021-05-22T10:44:52Z</time>
      </trkpt>
      <trkpt lat="42.5555760" lon="-8.6311990">
        <ele>32.1</ele>
        <time>2021-05-22T10:44:53Z</time>
      </trkpt>
      <trkpt lat="42.5555780" lon="-8.6311980">
        <ele>32.1</ele>
        <time>2021-05-22T10:44:54Z</time>
      </trkpt>
      <trkpt lat="42.5555740" lon="-8.6311950">
        <ele>32.1</ele>
        <time>2021-05-22T10:44:55Z</time>
      </trkpt>
      <trkpt lat="42.5555690" lon="-8.6311910">
        <ele>32.1</ele>
        <time>2021-05-22T10:44:56Z</time>
      </trkpt>
      <trkpt lat="42.5555650" lon="-8.6311880">
        <ele>32.1</ele>
        <time>2021-05-22T10:44:57Z</time>
      </trkpt>
      <trkpt lat="42.5555610" lon="-8.6311850">
        <ele>32.1</ele>
        <time>2021-05-22T10:44:58Z</time>
      </trkpt>
      <trkpt lat="42.5555570" lon="-8.6311820">
        <ele>32.1</ele>
        <time>2021-05-22T10:44:59Z</time>
      </trkpt>
      <trkpt lat="42.5555520" lon="-8.6311780">
        <ele>32.1</ele>
        <time>2021-05-22T10:45:00Z</time>
      </trkpt>
      <trkpt lat="42.5555480" lon="-8.6311750">
        <ele>32.1</ele>
        <time>2021-05-22T10:45:01Z</time>
      </trkpt>
      <trkpt lat="42.5555440" lon="-8.6311720">
        <ele>32.1</ele>
        <time>2021-05-22T10:45:02Z</time>
      </trkpt>
      <trkpt lat="42.5555340" lon="-8.6311690">
        <ele>32.1</ele>
        <time>2021-05-22T10:45:03Z</time>
      </trkpt>
      <trkpt lat="42.5555280" lon="-8.6311650">
        <ele>32.1</ele>
        <time>2021-05-22T10:45:04Z</time>
      </trkpt>
      <trkpt lat="42.5555200" lon="-8.6311630">
        <ele>32.1</ele>
        <time>2021-05-22T10:45:05Z</time>
      </trkpt>
      <trkpt lat="42.5555160" lon="-8.6311580">
        <ele>32.1</ele>
        <time>2021-05-22T10:45:06Z</time>
      </trkpt>
      <trkpt lat="42.5555140" lon="-8.6311530">
        <ele>32.1</ele>
        <time>2021-05-22T10:45:07Z</time>
      </trkpt>
      <trkpt lat="42.5555160" lon="-8.6311340">
        <ele>32.1</ele>
        <time>2021-05-22T10:45:08Z</time>
      </trkpt>
      <trkpt lat="42.5555160" lon="-8.6311220">
        <ele>32.1</ele>
        <time>2021-05-22T10:45:09Z</time>
      </trkpt>
      <trkpt lat="42.5555220" lon="-8.6311140">
        <ele>32.1</ele>
        <time>2021-05-22T10:45:10Z</time>
      </trkpt>
      <trkpt lat="42.5555420" lon="-8.6311110">
        <ele>32.1</ele>
        <time>2021-05-22T10:45:11Z</time>
      </trkpt>
      <trkpt lat="42.5555470" lon="-8.6311190">
        <ele>32.1</ele>
        <time>2021-05-22T10:45:12Z</time>
      </trkpt>
      <trkpt lat="42.5555520" lon="-8.6311260">
        <ele>32.1</ele>
        <time>2021-05-22T10:45:13Z</time>
      </trkpt>
      <trkpt lat="42.5555570" lon="-8.6311340">
        <ele>32.1</ele>
        <time>2021-05-22T10:45:14Z</time>
      </trkpt>
      <trkpt lat="42.5555620" lon="-8.6311410">
        <ele>32.1</ele>
        <time>2021-05-22T10:45:15Z</time>
      </trkpt>
      <trkpt lat="42.5555630" lon="-8.6311380">
        <ele>32.1</ele>
        <time>2021-05-22T10:45:16Z</time>
      </trkpt>
      <trkpt lat="42.5555670" lon="-8.6311480">
        <ele>32.1</ele>
        <time>2021-05-22T10:45:17Z</time>
      </trkpt>
      <trkpt lat="42.5555710" lon="-8.6311550">
        <ele>32.1</ele>
        <time>2021-05-22T10:45:18Z</time>
      </trkpt>
      <trkpt lat="42.5555770" lon="-8.6311600">
        <ele>32.1</ele>
        <time>2021-05-22T10:45:19Z</time>
      </trkpt>
      <trkpt lat="42.5555870" lon="-8.6311620">
        <ele>32.1</ele>
        <time>2021-05-22T10:45:20Z</time>
      </trkpt>
      <trkpt lat="42.5555910" lon="-8.6311640">
        <ele>32.1</ele>
        <time>2021-05-22T10:45:21Z</time>
      </trkpt>
      <trkpt lat="42.5556000" lon="-8.6311640">
        <ele>32.1</ele>
        <time>2021-05-22T10:45:22Z</time>
      </trkpt>
      <trkpt lat="42.5556100" lon="-8.6311540">
        <ele>32.1</ele>
        <time>2021-05-22T10:45:23Z</time>
      </trkpt>
      <trkpt lat="42.5556100" lon="-8.6311440">
        <ele>32.1</ele>
        <time>2021-05-22T10:45:24Z</time>
      </trkpt>
      <trkpt lat="42.5556080" lon="-8.6311370">
        <ele>32.1</ele>
        <time>2021-05-22T10:45:25Z</time>
      </trkpt>
      <trkpt lat="42.5556080" lon="-8.6311340">
        <ele>32.1</ele>
        <time>2021-05-22T10:45:26Z</time>
      </trkpt>
      <trkpt lat="42.5556150" lon="-8.6311330">
        <ele>32.1</ele>
        <time>2021-05-22T10:45:27Z</time>
      </trkpt>
      <trkpt lat="42.5556180" lon="-8.6311340">
        <ele>32.1</ele>
        <time>2021-05-22T10:45:28Z</time>
      </trkpt>
      <trkpt lat="42.5556220" lon="-8.6311270">
        <ele>32.1</ele>
        <time>2021-05-22T10:45:29Z</time>
      </trkpt>
      <trkpt lat="42.5556210" lon="-8.6311230">
        <ele>32.1</ele>
        <time>2021-05-22T10:45:30Z</time>
      </trkpt>
      <trkpt lat="42.5556120" lon="-8.6311310">
        <ele>32.1</ele>
        <time>2021-05-22T10:45:31Z</time>
      </trkpt>
      <trkpt lat="42.5556120" lon="-8.6311340">
        <ele>32.1</ele>
        <time>2021-05-22T10:45:32Z</time>
      </trkpt>
      <trkpt lat="42.5556120" lon="-8.6311340">
        <ele>32.1</ele>
        <time>2021-05-22T10:45:33Z</time>
      </trkpt>
      <trkpt lat="42.5556080" lon="-8.6311330">
        <ele>32.1</ele>
        <time>2021-05-22T10:45:34Z</time>
      </trkpt>
      <trkpt lat="42.5556110" lon="-8.6311290">
        <ele>32.1</ele>
        <time>2021-05-22T10:45:35Z</time>
      </trkpt>
      <trkpt lat="42.5556070" lon="-8.6311240">
        <ele>32.1</ele>
        <time>2021-05-22T10:45:36Z</time>
      </trkpt>
      <trkpt lat="42.5556070" lon="-8.6311210">
        <ele>32.1</ele>
        <time>2021-05-22T10:45:37Z</time>
      </trkpt>
      <trkpt lat="42.5556050" lon="-8.6311200">
        <ele>32.1</ele>
        <time>2021-05-22T10:45:38Z</time>
      </trkpt>
      <trkpt lat="42.5556020" lon="-8.6311190">
        <ele>32.1</ele>
        <time>2021-05-22T10:45:39Z</time>
      </trkpt>
      <trkpt lat="42.5556030" lon="-8.6311170">
        <ele>32.1</ele>
        <time>2021-05-22T10:45:40Z</time>
      </trkpt>
      <trkpt lat="42.5556060" lon="-8.6311160">
        <ele>32.1</ele>
        <time>2021-05-22T10:45:41Z</time>
      </trkpt>
      <trkpt lat="42.5556060" lon="-8.6311090">
        <ele>32.1</ele>
        <time>2021-05-22T10:45:42Z</time>
      </trkpt>
      <trkpt lat="42.5556060" lon="-8.6311040">
        <ele>32.1</ele>
        <time>2021-05-22T10:45:43Z</time>
      </trkpt>
      <trkpt lat="42.5556070" lon="-8.6311020">
        <ele>32.1</ele>
        <time>2021-05-22T10:45:44Z</time>
      </trkpt>
      <trkpt lat="42.5556120" lon="-8.6311020">
        <ele>32.1</ele>
        <time>2021-05-22T10:45:45Z</time>
      </trkpt>
      <trkpt lat="42.5556100" lon="-8.6311000">
        <ele>32.1</ele>
        <time>2021-05-22T10:45:46Z</time>
      </trkpt>
      <trkpt lat="42.5555910" lon="-8.6310690">
        <ele>32.1</ele>
        <time>2021-05-22T10:45:47Z</time>
      </trkpt>
      <trkpt lat="42.5555740" lon="-8.6310460">
        <ele>32.1</ele>
        <time>2021-05-22T10:45:48Z</time>
      </trkpt>
      <trkpt lat="42.5555560" lon="-8.6310240">
        <ele>32.1</ele>
        <time>2021-05-22T10:45:49Z</time>
      </trkpt>
      <trkpt lat="42.5555390" lon="-8.6310010">
        <ele>32.1</ele>
        <time>2021-05-22T10:45:50Z</time>
      </trkpt>
      <trkpt lat="42.5555360" lon="-8.6309960">
        <ele>32.1</ele>
        <time>2021-05-22T10:45:51Z</time>
      </trkpt>
      <trkpt lat="42.5555320" lon="-8.6309900">
        <ele>32.1</ele>
        <time>2021-05-22T10:45:52Z</time>
      </trkpt>
      <trkpt lat="42.5555320" lon="-8.6309900">
        <ele>32.1</ele>
        <time>2021-05-22T10:45:53Z</time>
      </trkpt>
      <trkpt lat="42.5555370" lon="-8.6309910">
        <ele>32.1</ele>
        <time>2021-05-22T10:45:54Z</time>
      </trkpt>
      <trkpt lat="42.5555440" lon="-8.6310030">
        <ele>32.1</ele>
        <time>2021-05-22T10:45:55Z</time>
      </trkpt>
      <trkpt lat="42.5555460" lon="-8.6310200">
        <ele>32.1</ele>
        <time>2021-05-22T10:45:56Z</time>
      </trkpt>
      <trkpt lat="42.5555550" lon="-8.6310310">
        <ele>32.1</ele>
        <time>2021-05-22T10:45:57Z</time>
      </trkpt>
      <trkpt lat="42.5555620" lon="-8.6310500">
        <ele>32.1</ele>
        <time>2021-05-22T10:45:58Z</time>
      </trkpt>
      <trkpt lat="42.5555660" lon="-8.6310620">
        <ele>32.1</ele>
        <time>2021-05-22T10:45:59Z</time>
      </trkpt>
      <trkpt lat="42.5555680" lon="-8.6310710">
        <ele>32.1</ele>
        <time>2021-05-22T10:46:00Z</time>
      </trkpt>
      <trkpt lat="42.5555820" lon="-8.6310850">
        <ele>32.1</ele>
        <time>2021-05-22T10:46:01Z</time>
      </trkpt>
      <trkpt lat="42.5555890" lon="-8.6310900">
        <ele>32.1</ele>
        <time>2021-05-22T10:46:02Z</time>
      </trkpt>
      <trkpt lat="42.5555950" lon="-8.6310950">
        <ele>32.1</ele>
        <time>2021-05-22T10:46:03Z</time>
      </trkpt>
      <trkpt lat="42.5556020" lon="-8.6311000">
        <ele>32.1</ele>
        <time>2021-05-22T10:46:04Z</time>
      </trkpt>
      <trkpt lat="42.5556080" lon="-8.6311120">
        <ele>32.1</ele>
        <time>2021-05-22T10:46:05Z</time>
      </trkpt>
      <trkpt lat="42.5556070" lon="-8.6311200">
        <ele>32.1</ele>
        <time>2021-05-22T10:46:06Z</time>
      </trkpt>
      <trkpt lat="42.5556080" lon="-8.6311290">
        <ele>32.1</ele>
        <time>2021-05-22T10:46:07Z</time>
      </trkpt>
      <trkpt lat="42.5556020" lon="-8.6311340">
        <ele>32.1</ele>
        <time>2021-05-22T10:46:08Z</time>
      </trkpt>
      <trkpt lat="42.5555990" lon="-8.6311410">
        <ele>32.1</ele>
        <time>2021-05-22T10:46:09Z</time>
      </trkpt>
      <trkpt lat="42.5555990" lon="-8.6311540">
        <ele>32.1</ele>
        <time>2021-05-22T10:46:10Z</time>
      </trkpt>
      <trkpt lat="42.5555980" lon="-8.6311650">
        <ele>32.1</ele>
        <time>2021-05-22T10:46:11Z</time>
      </trkpt>
      <trkpt lat="42.5555980" lon="-8.6311750">
        <ele>32.1</ele>
        <time>2021-05-22T10:46:12Z</time>
      </trkpt>
      <trkpt lat="42.5555970" lon="-8.6311860">
        <ele>32.1</ele>
        <time>2021-05-22T10:46:13Z</time>
      </trkpt>
      <trkpt lat="42.5555960" lon="-8.6311970">
        <ele>32.1</ele>
        <time>2021-05-22T10:46:14Z</time>
      </trkpt>
      <trkpt lat="42.5555940" lon="-8.6312210">
        <ele>32.1</ele>
        <time>2021-05-22T10:46:15Z</time>
      </trkpt>
      <trkpt lat="42.5555930" lon="-8.6312370">
        <ele>32.1</ele>
        <time>2021-05-22T10:46:16Z</time>
      </trkpt>
      <trkpt lat="42.5555880" lon="-8.6312440">
        <ele>32.1</ele>
        <time>2021-05-22T10:46:17Z</time>
      </trkpt>
      <trkpt lat="42.5555870" lon="-8.6312390">
        <ele>32.1</ele>
        <time>2021-05-22T10:46:18Z</time>
      </trkpt>
      <trkpt lat="42.5555870" lon="-8.6312330">
        <ele>32.1</ele>
        <time>2021-05-22T10:46:19Z</time>
      </trkpt>
      <trkpt lat="42.5555860" lon="-8.6312280">
        <ele>32.1</ele>
        <time>2021-05-22T10:46:20Z</time>
      </trkpt>
      <trkpt lat="42.5555850" lon="-8.6312220">
        <ele>32.1</ele>
        <time>2021-05-22T10:46:21Z</time>
      </trkpt>
      <trkpt lat="42.5555840" lon="-8.6312170">
        <ele>32.1</ele>
        <time>2021-05-22T10:46:22Z</time>
      </trkpt>
      <trkpt lat="42.5555840" lon="-8.6312110">
        <ele>32.1</ele>
        <time>2021-05-22T10:46:23Z</time>
      </trkpt>
      <trkpt lat="42.5555830" lon="-8.6312060">
        <ele>32.1</ele>
        <time>2021-05-22T10:46:24Z</time>
      </trkpt>
      <trkpt lat="42.5555820" lon="-8.6312000">
        <ele>32.1</ele>
        <time>2021-05-22T10:46:25Z</time>
      </trkpt>
      <trkpt lat="42.5555810" lon="-8.6311950">
        <ele>32.1</ele>
        <time>2021-05-22T10:46:26Z</time>
      </trkpt>
      <trkpt lat="42.5555800" lon="-8.6311890">
        <ele>32.1</ele>
        <time>2021-05-22T10:46:27Z</time>
      </trkpt>
      <trkpt lat="42.5555800" lon="-8.6311840">
        <ele>32.1</ele>
        <time>2021-05-22T10:46:28Z</time>
      </trkpt>
      <trkpt lat="42.5555790" lon="-8.6311780">
        <ele>32.1</ele>
        <time>2021-05-22T10:46:29Z</time>
      </trkpt>
      <trkpt lat="42.5555780" lon="-8.6311730">
        <ele>32.1</ele>
        <time>2021-05-22T10:46:30Z</time>
      </trkpt>
      <trkpt lat="42.5555690" lon="-8.6311730">
        <ele>32.1</ele>
        <time>2021-05-22T10:46:31Z</time>
      </trkpt>
      <trkpt lat="42.5555610" lon="-8.6311740">
        <ele>32.1</ele>
        <time>2021-05-22T10:46:32Z</time>
      </trkpt>
      <trkpt lat="42.5555490" lon="-8.6311660">
        <ele>32.1</ele>
        <time>2021-05-22T10:46:33Z</time>
      </trkpt>
      <trkpt lat="42.5555380" lon="-8.6311460">
        <ele>32.1</ele>
        <time>2021-05-22T10:46:34Z</time>
      </trkpt>
      <trkpt lat="42.5555330" lon="-8.6311440">
        <ele>32.1</ele>
        <time>2021-05-22T10:46:35Z</time>
      </trkpt>
      <trkpt lat="42.5555360" lon="-8.6311470">
        <ele>32.1</ele>
        <time>2021-05-22T10:46:36Z</time>
      </trkpt>
      <trkpt lat="42.5555380" lon="-8.6311580">
        <ele>32.1</ele>
        <time>2021-05-22T10:46:37Z</time>
      </trkpt>
      <trkpt lat="42.5555480" lon="-8.6311650">
        <ele>32.1</ele>
        <time>2021-05-22T10:46:38Z</time>
      </trkpt>
      <trkpt lat="42.5555550" lon="-8.6311660">
        <ele>32.1</ele>
        <time>2021-05-22T10:46:39Z</time>
      </trkpt>
      <trkpt lat="42.5555820" lon="-8.6311530">
        <ele>32.1</ele>
        <time>2021-05-22T10:46:40Z</time>
      </trkpt>
      <trkpt lat="42.5555840" lon="-8.6311710">
        <ele>32.1</ele>
        <time>2021-05-22T10:46:42Z</time>
      </trkpt>
      <trkpt lat="42.5555800" lon="-8.6311780">
        <ele>32.1</ele>
        <time>2021-05-22T10:46:43Z</time>
      </trkpt>
      <trkpt lat="42.5555770" lon="-8.6311780">
        <ele>32.1</ele>
        <time>2021-05-22T10:46:44Z</time>
      </trkpt>
      <trkpt lat="42.5555760" lon="-8.6311860">
        <ele>32.1</ele>
        <time>2021-05-22T10:46:45Z</time>
      </trkpt>
      <trkpt lat="42.5555750" lon="-8.6311950">
        <ele>32.1</ele>
        <time>2021-05-22T10:46:46Z</time>
      </trkpt>
      <trkpt lat="42.5555730" lon="-8.6311960">
        <ele>32.1</ele>
        <time>2021-05-22T10:46:47Z</time>
      </trkpt>
      <trkpt lat="42.5555740" lon="-8.6312010">
        <ele>32.1</ele>
        <time>2021-05-22T10:46:48Z</time>
      </trkpt>
      <trkpt lat="42.5555710" lon="-8.6311990">
        <ele>32.1</ele>
        <time>2021-05-22T10:46:49Z</time>
      </trkpt>
      <trkpt lat="42.5555660" lon="-8.6311950">
        <ele>32.1</ele>
        <time>2021-05-22T10:46:50Z</time>
      </trkpt>
      <trkpt lat="42.5555650" lon="-8.6311880">
        <ele>32.1</ele>
        <time>2021-05-22T10:46:51Z</time>
      </trkpt>
      <trkpt lat="42.5555640" lon="-8.6311850">
        <ele>32.1</ele>
        <time>2021-05-22T10:46:52Z</time>
      </trkpt>
      <trkpt lat="42.5555580" lon="-8.6311830">
        <ele>32.1</ele>
        <time>2021-05-22T10:46:53Z</time>
      </trkpt>
      <trkpt lat="42.5555570" lon="-8.6311730">
        <ele>32.1</ele>
        <time>2021-05-22T10:46:54Z</time>
      </trkpt>
      <trkpt lat="42.5555570" lon="-8.6311640">
        <ele>32.1</ele>
        <time>2021-05-22T10:46:55Z</time>
      </trkpt>
      <trkpt lat="42.5555580" lon="-8.6311520">
        <ele>32.1</ele>
        <time>2021-05-22T10:46:56Z</time>
      </trkpt>
      <trkpt lat="42.5555580" lon="-8.6311420">
        <ele>32.1</ele>
        <time>2021-05-22T10:46:57Z</time>
      </trkpt>
      <trkpt lat="42.5555600" lon="-8.6311320">
        <ele>32.1</ele>
        <time>2021-05-22T10:46:58Z</time>
      </trkpt>
      <trkpt lat="42.5555580" lon="-8.6311220">
        <ele>32.1</ele>
        <time>2021-05-22T10:46:59Z</time>
      </trkpt>
      <trkpt lat="42.5555610" lon="-8.6311260">
        <ele>32.1</ele>
        <time>2021-05-22T10:47:00Z</time>
      </trkpt>
      <trkpt lat="42.5555590" lon="-8.6311140">
        <ele>32.1</ele>
        <time>2021-05-22T10:47:01Z</time>
      </trkpt>
      <trkpt lat="42.5555680" lon="-8.6311010">
        <ele>32.1</ele>
        <time>2021-05-22T10:47:02Z</time>
      </trkpt>
      <trkpt lat="42.5555730" lon="-8.6310720">
        <ele>32.1</ele>
        <time>2021-05-22T10:47:03Z</time>
      </trkpt>
      <trkpt lat="42.5555660" lon="-8.6310750">
        <ele>32.1</ele>
        <time>2021-05-22T10:47:04Z</time>
      </trkpt>
      <trkpt lat="42.5555650" lon="-8.6310840">
        <ele>32.1</ele>
        <time>2021-05-22T10:47:05Z</time>
      </trkpt>
      <trkpt lat="42.5555630" lon="-8.6311040">
        <ele>32.1</ele>
        <time>2021-05-22T10:47:06Z</time>
      </trkpt>
      <trkpt lat="42.5555650" lon="-8.6311190">
        <ele>32.1</ele>
        <time>2021-05-22T10:47:07Z</time>
      </trkpt>
      <trkpt lat="42.5555590" lon="-8.6311340">
        <ele>32.1</ele>
        <time>2021-05-22T10:47:08Z</time>
      </trkpt>
      <trkpt lat="42.5555570" lon="-8.6311300">
        <ele>32.1</ele>
        <time>2021-05-22T10:47:09Z</time>
      </trkpt>
      <trkpt lat="42.5555690" lon="-8.6311080">
        <ele>32.1</ele>
        <time>2021-05-22T10:47:10Z</time>
      </trkpt>
      <trkpt lat="42.5555670" lon="-8.6311020">
        <ele>32.1</ele>
        <time>2021-05-22T10:47:11Z</time>
      </trkpt>
      <trkpt lat="42.5555680" lon="-8.6310950">
        <ele>32.1</ele>
        <time>2021-05-22T10:47:12Z</time>
      </trkpt>
      <trkpt lat="42.5555730" lon="-8.6310910">
        <ele>32.1</ele>
        <time>2021-05-22T10:47:13Z</time>
      </trkpt>
      <trkpt lat="42.5555750" lon="-8.6310860">
        <ele>32.1</ele>
        <time>2021-05-22T10:47:14Z</time>
      </trkpt>
      <trkpt lat="42.5555760" lon="-8.6310780">
        <ele>32.1</ele>
        <time>2021-05-22T10:47:15Z</time>
      </trkpt>
      <trkpt lat="42.5555770" lon="-8.6310780">
        <ele>32.1</ele>
        <time>2021-05-22T10:47:16Z</time>
      </trkpt>
      <trkpt lat="42.5555740" lon="-8.6310540">
        <ele>32.1</ele>
        <time>2021-05-22T10:47:17Z</time>
      </trkpt>
      <trkpt lat="42.5555730" lon="-8.6310470">
        <ele>32.1</ele>
        <time>2021-05-22T10:47:18Z</time>
      </trkpt>
      <trkpt lat="42.5555690" lon="-8.6310370">
        <ele>32.1</ele>
        <time>2021-05-22T10:47:19Z</time>
      </trkpt>
      <trkpt lat="42.5555700" lon="-8.6310310">
        <ele>32.1</ele>
        <time>2021-05-22T10:47:20Z</time>
      </trkpt>
      <trkpt lat="42.5555730" lon="-8.6310340">
        <ele>32.1</ele>
        <time>2021-05-22T10:47:21Z</time>
      </trkpt>
      <trkpt lat="42.5555800" lon="-8.6310480">
        <ele>32.1</ele>
        <time>2021-05-22T10:47:22Z</time>
      </trkpt>
      <trkpt lat="42.5555830" lon="-8.6310480">
        <ele>32.1</ele>
        <time>2021-05-22T10:47:23Z</time>
      </trkpt>
      <trkpt lat="42.5555860" lon="-8.6310410">
        <ele>32.1</ele>
        <time>2021-05-22T10:47:24Z</time>
      </trkpt>
      <trkpt lat="42.5556000" lon="-8.6310300">
        <ele>32.1</ele>
        <time>2021-05-22T10:47:25Z</time>
      </trkpt>
      <trkpt lat="42.5556190" lon="-8.6310020">
        <ele>32.1</ele>
        <time>2021-05-22T10:47:26Z</time>
      </trkpt>
      <trkpt lat="42.5556250" lon="-8.6309940">
        <ele>32.1</ele>
        <time>2021-05-22T10:47:27Z</time>
      </trkpt>
      <trkpt lat="42.5556310" lon="-8.6309800">
        <ele>32.1</ele>
        <time>2021-05-22T10:47:28Z</time>
      </trkpt>
      <trkpt lat="42.5556270" lon="-8.6309730">
        <ele>32.1</ele>
        <time>2021-05-22T10:47:29Z</time>
      </trkpt>
      <trkpt lat="42.5556240" lon="-8.6309660">
        <ele>32.1</ele>
        <time>2021-05-22T10:47:30Z</time>
      </trkpt>
      <trkpt lat="42.5556210" lon="-8.6309590">
        <ele>32.1</ele>
        <time>2021-05-22T10:47:31Z</time>
      </trkpt>
      <trkpt lat="42.5556180" lon="-8.6309520">
        <ele>32.1</ele>
        <time>2021-05-22T10:47:32Z</time>
      </trkpt>
      <trkpt lat="42.5556140" lon="-8.6309460">
        <ele>32.1</ele>
        <time>2021-05-22T10:47:33Z</time>
      </trkpt>
      <trkpt lat="42.5556110" lon="-8.6309390">
        <ele>32.1</ele>
        <time>2021-05-22T10:47:34Z</time>
      </trkpt>
      <trkpt lat="42.5556080" lon="-8.6309320">
        <ele>32.1</ele>
        <time>2021-05-22T10:47:35Z</time>
      </trkpt>
      <trkpt lat="42.5556040" lon="-8.6309250">
        <ele>32.1</ele>
        <time>2021-05-22T10:47:36Z</time>
      </trkpt>
      <trkpt lat="42.5556010" lon="-8.6309180">
        <ele>32.1</ele>
        <time>2021-05-22T10:47:37Z</time>
      </trkpt>
      <trkpt lat="42.5555930" lon="-8.6309020">
        <ele>32.1</ele>
        <time>2021-05-22T10:47:38Z</time>
      </trkpt>
      <trkpt lat="42.5555860" lon="-8.6308860">
        <ele>32.1</ele>
        <time>2021-05-22T10:47:39Z</time>
      </trkpt>
      <trkpt lat="42.5555790" lon="-8.6308710">
        <ele>32.1</ele>
        <time>2021-05-22T10:47:40Z</time>
      </trkpt>
      <trkpt lat="42.5555730" lon="-8.6308560">
        <ele>32.1</ele>
        <time>2021-05-22T10:47:41Z</time>
      </trkpt>
      <trkpt lat="42.5555660" lon="-8.6308410">
        <ele>32.1</ele>
        <time>2021-05-22T10:47:42Z</time>
      </trkpt>
      <trkpt lat="42.5555590" lon="-8.6308250">
        <ele>32.1</ele>
        <time>2021-05-22T10:47:43Z</time>
      </trkpt>
      <trkpt lat="42.5555520" lon="-8.6308100">
        <ele>32.1</ele>
        <time>2021-05-22T10:47:44Z</time>
      </trkpt>
      <trkpt lat="42.5555540" lon="-8.6308190">
        <ele>32.1</ele>
        <time>2021-05-22T10:47:45Z</time>
      </trkpt>
      <trkpt lat="42.5555620" lon="-8.6308380">
        <ele>32.1</ele>
        <time>2021-05-22T10:47:46Z</time>
      </trkpt>
      <trkpt lat="42.5555700" lon="-8.6308570">
        <ele>32.1</ele>
        <time>2021-05-22T10:47:47Z</time>
      </trkpt>
      <trkpt lat="42.5555780" lon="-8.6308760">
        <ele>32.1</ele>
        <time>2021-05-22T10:47:48Z</time>
      </trkpt>
      <trkpt lat="42.5555860" lon="-8.6308950">
        <ele>32.1</ele>
        <time>2021-05-22T10:47:49Z</time>
      </trkpt>
      <trkpt lat="42.5556060" lon="-8.6309210">
        <ele>32.1</ele>
        <time>2021-05-22T10:47:50Z</time>
      </trkpt>
      <trkpt lat="42.5556330" lon="-8.6309870">
        <ele>32.1</ele>
        <time>2021-05-22T10:47:51Z</time>
      </trkpt>
      <trkpt lat="42.5556450" lon="-8.6310090">
        <ele>32.1</ele>
        <time>2021-05-22T10:47:52Z</time>
      </trkpt>
      <trkpt lat="42.5556470" lon="-8.6310240">
        <ele>32.1</ele>
        <time>2021-05-22T10:47:53Z</time>
      </trkpt>
      <trkpt lat="42.5556400" lon="-8.6310400">
        <ele>32.1</ele>
        <time>2021-05-22T10:47:54Z</time>
      </trkpt>
      <trkpt lat="42.5556360" lon="-8.6310500">
        <ele>32.1</ele>
        <time>2021-05-22T10:47:55Z</time>
      </trkpt>
      <trkpt lat="42.5556310" lon="-8.6310590">
        <ele>32.1</ele>
        <time>2021-05-22T10:47:56Z</time>
      </trkpt>
      <trkpt lat="42.5556260" lon="-8.6310690">
        <ele>32.1</ele>
        <time>2021-05-22T10:47:57Z</time>
      </trkpt>
      <trkpt lat="42.5556190" lon="-8.6310830">
        <ele>32.1</ele>
        <time>2021-05-22T10:47:58Z</time>
      </trkpt>
      <trkpt lat="42.5556190" lon="-8.6310830">
        <ele>32.1</ele>
        <time>2021-05-22T10:47:59Z</time>
      </trkpt>
      <trkpt lat="42.5556120" lon="-8.6310940">
        <ele>32.1</ele>
        <time>2021-05-22T10:48:00Z</time>
      </trkpt>
      <trkpt lat="42.5556130" lon="-8.6310900">
        <ele>32.1</ele>
        <time>2021-05-22T10:48:01Z</time>
      </trkpt>
      <trkpt lat="42.5556150" lon="-8.6310970">
        <ele>32.1</ele>
        <time>2021-05-22T10:48:02Z</time>
      </trkpt>
      <trkpt lat="42.5556160" lon="-8.6311020">
        <ele>32.1</ele>
        <time>2021-05-22T10:48:03Z</time>
      </trkpt>
      <trkpt lat="42.5556170" lon="-8.6311080">
        <ele>32.1</ele>
        <time>2021-05-22T10:48:04Z</time>
      </trkpt>
      <trkpt lat="42.5556180" lon="-8.6311210">
        <ele>32.1</ele>
        <time>2021-05-22T10:48:05Z</time>
      </trkpt>
      <trkpt lat="42.5556160" lon="-8.6311280">
        <ele>32.1</ele>
        <time>2021-05-22T10:48:06Z</time>
      </trkpt>
      <trkpt lat="42.5556170" lon="-8.6311370">
        <ele>32.1</ele>
        <time>2021-05-22T10:48:07Z</time>
      </trkpt>
      <trkpt lat="42.5556080" lon="-8.6311420">
        <ele>32.1</ele>
        <time>2021-05-22T10:48:08Z</time>
      </trkpt>
      <trkpt lat="42.5556080" lon="-8.6311550">
        <ele>32.1</ele>
        <time>2021-05-22T10:48:09Z</time>
      </trkpt>
      <trkpt lat="42.5555900" lon="-8.6311620">
        <ele>32.1</ele>
        <time>2021-05-22T10:48:10Z</time>
      </trkpt>
      <trkpt lat="42.5555850" lon="-8.6311670">
        <ele>32.1</ele>
        <time>2021-05-22T10:48:11Z</time>
      </trkpt>
      <trkpt lat="42.5555890" lon="-8.6311650">
        <ele>32.1</ele>
        <time>2021-05-22T10:48:12Z</time>
      </trkpt>
      <trkpt lat="42.5555870" lon="-8.6311730">
        <ele>32.1</ele>
        <time>2021-05-22T10:48:13Z</time>
      </trkpt>
      <trkpt lat="42.5555840" lon="-8.6311740">
        <ele>32.1</ele>
        <time>2021-05-22T10:48:14Z</time>
      </trkpt>
      <trkpt lat="42.5555810" lon="-8.6311720">
        <ele>32.1</ele>
        <time>2021-05-22T10:48:15Z</time>
      </trkpt>
      <trkpt lat="42.5555780" lon="-8.6311710">
        <ele>32.1</ele>
        <time>2021-05-22T10:48:16Z</time>
      </trkpt>
      <trkpt lat="42.5555740" lon="-8.6311700">
        <ele>32.1</ele>
        <time>2021-05-22T10:48:18Z</time>
      </trkpt>
      <trkpt lat="42.5555720" lon="-8.6311680">
        <ele>32.1</ele>
        <time>2021-05-22T10:48:19Z</time>
      </trkpt>
      <trkpt lat="42.5555700" lon="-8.6311660">
        <ele>32.1</ele>
        <time>2021-05-22T10:48:20Z</time>
      </trkpt>
      <trkpt lat="42.5555690" lon="-8.6311650">
        <ele>32.1</ele>
        <time>2021-05-22T10:48:21Z</time>
      </trkpt>
      <trkpt lat="42.5555700" lon="-8.6311630">
        <ele>32.1</ele>
        <time>2021-05-22T10:48:22Z</time>
      </trkpt>
      <trkpt lat="42.5555700" lon="-8.6311630">
        <ele>32.1</ele>
        <time>2021-05-22T10:48:23Z</time>
      </trkpt>
      <trkpt lat="42.5555670" lon="-8.6311450">
        <ele>32.1</ele>
        <time>2021-05-22T10:48:24Z</time>
      </trkpt>
      <trkpt lat="42.5555670" lon="-8.6311450">
        <ele>32.1</ele>
        <time>2021-05-22T10:48:25Z</time>
      </trkpt>
      <trkpt lat="42.5555670" lon="-8.6311450">
        <ele>32.1</ele>
        <time>2021-05-22T10:48:26Z</time>
      </trkpt>
      <trkpt lat="42.5555620" lon="-8.6311280">
        <ele>32.1</ele>
        <time>2021-05-22T10:48:27Z</time>
      </trkpt>
      <trkpt lat="42.5555610" lon="-8.6311270">
        <ele>32.1</ele>
        <time>2021-05-22T10:48:28Z</time>
      </trkpt>
      <trkpt lat="42.5555610" lon="-8.6311280">
        <ele>32.1</ele>
        <time>2021-05-22T10:48:29Z</time>
      </trkpt>
      <trkpt lat="42.5555600" lon="-8.6311280">
        <ele>32.1</ele>
        <time>2021-05-22T10:48:30Z</time>
      </trkpt>
      <trkpt lat="42.5555610" lon="-8.6311280">
        <ele>32.1</ele>
        <time>2021-05-22T10:48:31Z</time>
      </trkpt>
      <trkpt lat="42.5555580" lon="-8.6311250">
        <ele>32.1</ele>
        <time>2021-05-22T10:48:32Z</time>
      </trkpt>
      <trkpt lat="42.5555560" lon="-8.6311180">
        <ele>32.1</ele>
        <time>2021-05-22T10:48:33Z</time>
      </trkpt>
      <trkpt lat="42.5555530" lon="-8.6311070">
        <ele>32.1</ele>
        <time>2021-05-22T10:48:34Z</time>
      </trkpt>
      <trkpt lat="42.5555510" lon="-8.6310980">
        <ele>32.1</ele>
        <time>2021-05-22T10:48:35Z</time>
      </trkpt>
      <trkpt lat="42.5555470" lon="-8.6310860">
        <ele>32.1</ele>
        <time>2021-05-22T10:48:36Z</time>
      </trkpt>
      <trkpt lat="42.5555440" lon="-8.6310710">
        <ele>32.1</ele>
        <time>2021-05-22T10:48:37Z</time>
      </trkpt>
      <trkpt lat="42.5555510" lon="-8.6310740">
        <ele>32.1</ele>
        <time>2021-05-22T10:48:38Z</time>
      </trkpt>
      <trkpt lat="42.5555560" lon="-8.6310820">
        <ele>32.1</ele>
        <time>2021-05-22T10:48:39Z</time>
      </trkpt>
      <trkpt lat="42.5555600" lon="-8.6310910">
        <ele>32.1</ele>
        <time>2021-05-22T10:48:40Z</time>
      </trkpt>
      <trkpt lat="42.5555650" lon="-8.6310990">
        <ele>32.1</ele>
        <time>2021-05-22T10:48:41Z</time>
      </trkpt>
      <trkpt lat="42.5555690" lon="-8.6311080">
        <ele>32.1</ele>
        <time>2021-05-22T10:48:42Z</time>
      </trkpt>
      <trkpt lat="42.5555730" lon="-8.6311070">
        <ele>32.1</ele>
        <time>2021-05-22T10:48:43Z</time>
      </trkpt>
      <trkpt lat="42.5555760" lon="-8.6311080">
        <ele>32.1</ele>
        <time>2021-05-22T10:48:44Z</time>
      </trkpt>
      <trkpt lat="42.5555790" lon="-8.6311090">
        <ele>32.1</ele>
        <time>2021-05-22T10:48:45Z</time>
      </trkpt>
      <trkpt lat="42.5555820" lon="-8.6311100">
        <ele>32.1</ele>
        <time>2021-05-22T10:48:46Z</time>
      </trkpt>
      <trkpt lat="42.5555850" lon="-8.6311110">
        <ele>32.1</ele>
        <time>2021-05-22T10:48:47Z</time>
      </trkpt>
      <trkpt lat="42.5555880" lon="-8.6311130">
        <ele>32.1</ele>
        <time>2021-05-22T10:48:48Z</time>
      </trkpt>
      <trkpt lat="42.5555910" lon="-8.6311140">
        <ele>32.1</ele>
        <time>2021-05-22T10:48:49Z</time>
      </trkpt>
      <trkpt lat="42.5555940" lon="-8.6311150">
        <ele>32.1</ele>
        <time>2021-05-22T10:48:50Z</time>
      </trkpt>
      <trkpt lat="42.5555970" lon="-8.6311160">
        <ele>32.1</ele>
        <time>2021-05-22T10:48:51Z</time>
      </trkpt>
      <trkpt lat="42.5556000" lon="-8.6311170">
        <ele>32.1</ele>
        <time>2021-05-22T10:48:52Z</time>
      </trkpt>
      <trkpt lat="42.5556030" lon="-8.6311180">
        <ele>32.1</ele>
        <time>2021-05-22T10:48:53Z</time>
      </trkpt>
      <trkpt lat="42.5556060" lon="-8.6311190">
        <ele>32.1</ele>
        <time>2021-05-22T10:48:54Z</time>
      </trkpt>
      <trkpt lat="42.5556090" lon="-8.6311200">
        <ele>32.1</ele>
        <time>2021-05-22T10:48:55Z</time>
      </trkpt>
      <trkpt lat="42.5556120" lon="-8.6311210">
        <ele>32.1</ele>
        <time>2021-05-22T10:48:56Z</time>
      </trkpt>
      <trkpt lat="42.5556150" lon="-8.6311220">
        <ele>32.1</ele>
        <time>2021-05-22T10:48:57Z</time>
      </trkpt>
      <trkpt lat="42.5556180" lon="-8.6311230">
        <ele>32.1</ele>
        <time>2021-05-22T10:48:58Z</time>
      </trkpt>
      <trkpt lat="42.5556210" lon="-8.6311250">
        <ele>32.1</ele>
        <time>2021-05-22T10:48:59Z</time>
      </trkpt>
      <trkpt lat="42.5556240" lon="-8.6311260">
        <ele>32.1</ele>
        <time>2021-05-22T10:49:00Z</time>
      </trkpt>
      <trkpt lat="42.5556270" lon="-8.6311270">
        <ele>32.1</ele>
        <time>2021-05-22T10:49:01Z</time>
      </trkpt>
      <trkpt lat="42.5556300" lon="-8.6311280">
        <ele>32.1</ele>
        <time>2021-05-22T10:49:02Z</time>
      </trkpt>
      <trkpt lat="42.5556330" lon="-8.6311290">
        <ele>32.1</ele>
        <time>2021-05-22T10:49:03Z</time>
      </trkpt>
      <trkpt lat="42.5556360" lon="-8.6311300">
        <ele>32.1</ele>
        <time>2021-05-22T10:49:04Z</time>
      </trkpt>
      <trkpt lat="42.5556240" lon="-8.6311230">
        <ele>32.1</ele>
        <time>2021-05-22T10:49:05Z</time>
      </trkpt>
      <trkpt lat="42.5556130" lon="-8.6311180">
        <ele>32.1</ele>
        <time>2021-05-22T10:49:06Z</time>
      </trkpt>
      <trkpt lat="42.5556010" lon="-8.6311130">
        <ele>32.1</ele>
        <time>2021-05-22T10:49:07Z</time>
      </trkpt>
      <trkpt lat="42.5555890" lon="-8.6311080">
        <ele>32.1</ele>
        <time>2021-05-22T10:49:08Z</time>
      </trkpt>
      <trkpt lat="42.5555780" lon="-8.6311020">
        <ele>32.1</ele>
        <time>2021-05-22T10:49:09Z</time>
      </trkpt>
      <trkpt lat="42.5555750" lon="-8.6311030">
        <ele>32.1</ele>
        <time>2021-05-22T10:49:10Z</time>
      </trkpt>
      <trkpt lat="42.5555720" lon="-8.6311010">
        <ele>32.1</ele>
        <time>2021-05-22T10:49:11Z</time>
      </trkpt>
      <trkpt lat="42.5555720" lon="-8.6311060">
        <ele>32.1</ele>
        <time>2021-05-22T10:49:12Z</time>
      </trkpt>
      <trkpt lat="42.5555740" lon="-8.6311130">
        <ele>32.1</ele>
        <time>2021-05-22T10:49:13Z</time>
      </trkpt>
      <trkpt lat="42.5555790" lon="-8.6311090">
        <ele>32.1</ele>
        <time>2021-05-22T10:49:14Z</time>
      </trkpt>
      <trkpt lat="42.5555740" lon="-8.6311110">
        <ele>32.1</ele>
        <time>2021-05-22T10:49:15Z</time>
      </trkpt>
      <trkpt lat="42.5555730" lon="-8.6311090">
        <ele>32.1</ele>
        <time>2021-05-22T10:49:16Z</time>
      </trkpt>
      <trkpt lat="42.5555750" lon="-8.6311160">
        <ele>32.1</ele>
        <time>2021-05-22T10:49:17Z</time>
      </trkpt>
      <trkpt lat="42.5555680" lon="-8.6311420">
        <ele>32.1</ele>
        <time>2021-05-22T10:49:18Z</time>
      </trkpt>
      <trkpt lat="42.5555650" lon="-8.6311570">
        <ele>32.1</ele>
        <time>2021-05-22T10:49:19Z</time>
      </trkpt>
      <trkpt lat="42.5555590" lon="-8.6311620">
        <ele>32.1</ele>
        <time>2021-05-22T10:49:20Z</time>
      </trkpt>
      <trkpt lat="42.5555590" lon="-8.6311630">
        <ele>32.1</ele>
        <time>2021-05-22T10:49:21Z</time>
      </trkpt>
      <trkpt lat="42.5555620" lon="-8.6311670">
        <ele>32.1</ele>
        <time>2021-05-22T10:49:22Z</time>
      </trkpt>
      <trkpt lat="42.5555660" lon="-8.6311620">
        <ele>32.1</ele>
        <time>2021-05-22T10:49:23Z</time>
      </trkpt>
      <trkpt lat="42.5555770" lon="-8.6311630">
        <ele>32.1</ele>
        <time>2021-05-22T10:49:24Z</time>
      </trkpt>
      <trkpt lat="42.5555830" lon="-8.6311670">
        <ele>32.1</ele>
        <time>2021-05-22T10:49:25Z</time>
      </trkpt>
      <trkpt lat="42.5555850" lon="-8.6311740">
        <ele>32.1</ele>
        <time>2021-05-22T10:49:26Z</time>
      </trkpt>
      <trkpt lat="42.5555820" lon="-8.6311790">
        <ele>32.1</ele>
        <time>2021-05-22T10:49:27Z</time>
      </trkpt>
      <trkpt lat="42.5555820" lon="-8.6311790">
        <ele>32.1</ele>
        <time>2021-05-22T10:49:28Z</time>
      </trkpt>
      <trkpt lat="42.5555830" lon="-8.6311780">
        <ele>32.1</ele>
        <time>2021-05-22T10:49:29Z</time>
      </trkpt>
      <trkpt lat="42.5555830" lon="-8.6311780">
        <ele>32.1</ele>
        <time>2021-05-22T10:49:30Z</time>
      </trkpt>
      <trkpt lat="42.5555830" lon="-8.6311770">
        <ele>32.1</ele>
        <time>2021-05-22T10:49:31Z</time>
      </trkpt>
      <trkpt lat="42.5555830" lon="-8.6311770">
        <ele>32.1</ele>
        <time>2021-05-22T10:49:32Z</time>
      </trkpt>
      <trkpt lat="42.5555840" lon="-8.6311760">
        <ele>32.1</ele>
        <time>2021-05-22T10:49:33Z</time>
      </trkpt>
      <trkpt lat="42.5555840" lon="-8.6311760">
        <ele>32.1</ele>
        <time>2021-05-22T10:49:34Z</time>
      </trkpt>
      <trkpt lat="42.5555840" lon="-8.6311750">
        <ele>32.1</ele>
        <time>2021-05-22T10:49:35Z</time>
      </trkpt>
      <trkpt lat="42.5555840" lon="-8.6311750">
        <ele>32.1</ele>
        <time>2021-05-22T10:49:36Z</time>
      </trkpt>
      <trkpt lat="42.5555850" lon="-8.6311740">
        <ele>32.1</ele>
        <time>2021-05-22T10:49:37Z</time>
      </trkpt>
      <trkpt lat="42.5555850" lon="-8.6311740">
        <ele>32.1</ele>
        <time>2021-05-22T10:49:38Z</time>
      </trkpt>
      <trkpt lat="42.5555850" lon="-8.6311730">
        <ele>32.1</ele>
        <time>2021-05-22T10:49:39Z</time>
      </trkpt>
      <trkpt lat="42.5555850" lon="-8.6311730">
        <ele>32.1</ele>
        <time>2021-05-22T10:49:40Z</time>
      </trkpt>
      <trkpt lat="42.5555860" lon="-8.6311720">
        <ele>32.1</ele>
        <time>2021-05-22T10:49:41Z</time>
      </trkpt>
      <trkpt lat="42.5555860" lon="-8.6311720">
        <ele>32.1</ele>
        <time>2021-05-22T10:49:42Z</time>
      </trkpt>
      <trkpt lat="42.5555860" lon="-8.6311710">
        <ele>32.1</ele>
        <time>2021-05-22T10:49:43Z</time>
      </trkpt>
      <trkpt lat="42.5555860" lon="-8.6311710">
        <ele>32.1</ele>
        <time>2021-05-22T10:49:44Z</time>
      </trkpt>
      <trkpt lat="42.5555870" lon="-8.6311700">
        <ele>32.1</ele>
        <time>2021-05-22T10:49:45Z</time>
      </trkpt>
      <trkpt lat="42.5555870" lon="-8.6311690">
        <ele>32.1</ele>
        <time>2021-05-22T10:49:46Z</time>
      </trkpt>
      <trkpt lat="42.5555870" lon="-8.6311690">
        <ele>32.1</ele>
        <time>2021-05-22T10:49:47Z</time>
      </trkpt>
      <trkpt lat="42.5555870" lon="-8.6311680">
        <ele>32.1</ele>
        <time>2021-05-22T10:49:48Z</time>
      </trkpt>
      <trkpt lat="42.5555870" lon="-8.6311680">
        <ele>32.1</ele>
        <time>2021-05-22T10:49:49Z</time>
      </trkpt>
      <trkpt lat="42.5555880" lon="-8.6311670">
        <ele>32.1</ele>
        <time>2021-05-22T10:49:50Z</time>
      </trkpt>
      <trkpt lat="42.5555880" lon="-8.6311670">
        <ele>32.1</ele>
        <time>2021-05-22T10:49:51Z</time>
      </trkpt>
      <trkpt lat="42.5555880" lon="-8.6311660">
        <ele>32.1</ele>
        <time>2021-05-22T10:49:52Z</time>
      </trkpt>
      <trkpt lat="42.5555880" lon="-8.6311660">
        <ele>32.1</ele>
        <time>2021-05-22T10:49:53Z</time>
      </trkpt>
      <trkpt lat="42.5555890" lon="-8.6311650">
        <ele>32.1</ele>
        <time>2021-05-22T10:49:54Z</time>
      </trkpt>
      <trkpt lat="42.5555890" lon="-8.6311650">
        <ele>32.1</ele>
        <time>2021-05-22T10:49:55Z</time>
      </trkpt>
      <trkpt lat="42.5555890" lon="-8.6311640">
        <ele>32.1</ele>
        <time>2021-05-22T10:49:56Z</time>
      </trkpt>
      <trkpt lat="42.5555890" lon="-8.6311640">
        <ele>32.1</ele>
        <time>2021-05-22T10:49:57Z</time>
      </trkpt>
      <trkpt lat="42.5555900" lon="-8.6311630">
        <ele>32.1</ele>
        <time>2021-05-22T10:49:58Z</time>
      </trkpt>
      <trkpt lat="42.5555900" lon="-8.6311630">
        <ele>32.1</ele>
        <time>2021-05-22T10:49:59Z</time>
      </trkpt>
      <trkpt lat="42.5555900" lon="-8.6311620">
        <ele>32.1</ele>
        <time>2021-05-22T10:50:00Z</time>
      </trkpt>
      <trkpt lat="42.5555900" lon="-8.6311620">
        <ele>32.1</ele>
        <time>2021-05-22T10:50:01Z</time>
      </trkpt>
      <trkpt lat="42.5555910" lon="-8.6311610">
        <ele>32.1</ele>
        <time>2021-05-22T10:50:02Z</time>
      </trkpt>
      <trkpt lat="42.5555910" lon="-8.6311610">
        <ele>32.1</ele>
        <time>2021-05-22T10:50:03Z</time>
      </trkpt>
      <trkpt lat="42.5555910" lon="-8.6311600">
        <ele>32.1</ele>
        <time>2021-05-22T10:50:04Z</time>
      </trkpt>
      <trkpt lat="42.5555910" lon="-8.6311590">
        <ele>32.1</ele>
        <time>2021-05-22T10:50:05Z</time>
      </trkpt>
      <trkpt lat="42.5555910" lon="-8.6311590">
        <ele>32.1</ele>
        <time>2021-05-22T10:50:06Z</time>
      </trkpt>
      <trkpt lat="42.5555920" lon="-8.6311580">
        <ele>32.1</ele>
        <time>2021-05-22T10:50:07Z</time>
      </trkpt>
      <trkpt lat="42.5555920" lon="-8.6311580">
        <ele>32.1</ele>
        <time>2021-05-22T10:50:08Z</time>
      </trkpt>
      <trkpt lat="42.5555920" lon="-8.6311570">
        <ele>32.1</ele>
        <time>2021-05-22T10:50:09Z</time>
      </trkpt>
      <trkpt lat="42.5555920" lon="-8.6311570">
        <ele>32.1</ele>
        <time>2021-05-22T10:50:10Z</time>
      </trkpt>
      <trkpt lat="42.5555930" lon="-8.6311560">
        <ele>32.1</ele>
        <time>2021-05-22T10:50:11Z</time>
      </trkpt>
      <trkpt lat="42.5555930" lon="-8.6311560">
        <ele>32.1</ele>
        <time>2021-05-22T10:50:12Z</time>
      </trkpt>
      <trkpt lat="42.5555930" lon="-8.6311550">
        <ele>32.1</ele>
        <time>2021-05-22T10:50:13Z</time>
      </trkpt>
      <trkpt lat="42.5555930" lon="-8.6311550">
        <ele>32.1</ele>
        <time>2021-05-22T10:50:14Z</time>
      </trkpt>
      <trkpt lat="42.5555940" lon="-8.6311540">
        <ele>32.1</ele>
        <time>2021-05-22T10:50:15Z</time>
      </trkpt>
      <trkpt lat="42.5555940" lon="-8.6311540">
        <ele>32.1</ele>
        <time>2021-05-22T10:50:16Z</time>
      </trkpt>
      <trkpt lat="42.5555940" lon="-8.6311530">
        <ele>32.1</ele>
        <time>2021-05-22T10:50:17Z</time>
      </trkpt>
      <trkpt lat="42.5555940" lon="-8.6311530">
        <ele>32.1</ele>
        <time>2021-05-22T10:50:18Z</time>
      </trkpt>
      <trkpt lat="42.5555950" lon="-8.6311520">
        <ele>32.1</ele>
        <time>2021-05-22T10:50:19Z</time>
      </trkpt>
      <trkpt lat="42.5555950" lon="-8.6311520">
        <ele>32.1</ele>
        <time>2021-05-22T10:50:20Z</time>
      </trkpt>
      <trkpt lat="42.5555950" lon="-8.6311510">
        <ele>32.1</ele>
        <time>2021-05-22T10:50:21Z</time>
      </trkpt>
      <trkpt lat="42.5555950" lon="-8.6311510">
        <ele>32.1</ele>
        <time>2021-05-22T10:50:22Z</time>
      </trkpt>
      <trkpt lat="42.5555960" lon="-8.6311500">
        <ele>32.1</ele>
        <time>2021-05-22T10:50:23Z</time>
      </trkpt>
      <trkpt lat="42.5555960" lon="-8.6311490">
        <ele>32.1</ele>
        <time>2021-05-22T10:50:24Z</time>
      </trkpt>
      <trkpt lat="42.5555960" lon="-8.6311490">
        <ele>32.1</ele>
        <time>2021-05-22T10:50:25Z</time>
      </trkpt>
      <trkpt lat="42.5555960" lon="-8.6311480">
        <ele>32.1</ele>
        <time>2021-05-22T10:50:26Z</time>
      </trkpt>
      <trkpt lat="42.5555960" lon="-8.6311480">
        <ele>32.1</ele>
        <time>2021-05-22T10:50:27Z</time>
      </trkpt>
      <trkpt lat="42.5555970" lon="-8.6311470">
        <ele>32.1</ele>
        <time>2021-05-22T10:50:28Z</time>
      </trkpt>
      <trkpt lat="42.5555970" lon="-8.6311470">
        <ele>32.1</ele>
        <time>2021-05-22T10:50:29Z</time>
      </trkpt>
      <trkpt lat="42.5555970" lon="-8.6311460">
        <ele>32.1</ele>
        <time>2021-05-22T10:50:30Z</time>
      </trkpt>
      <trkpt lat="42.5555970" lon="-8.6311460">
        <ele>32.1</ele>
        <time>2021-05-22T10:50:31Z</time>
      </trkpt>
      <trkpt lat="42.5555980" lon="-8.6311450">
        <ele>32.1</ele>
        <time>2021-05-22T10:50:32Z</time>
      </trkpt>
      <trkpt lat="42.5555980" lon="-8.6311450">
        <ele>32.1</ele>
        <time>2021-05-22T10:50:33Z</time>
      </trkpt>
      <trkpt lat="42.5555980" lon="-8.6311440">
        <ele>32.1</ele>
        <time>2021-05-22T10:50:34Z</time>
      </trkpt>
      <trkpt lat="42.5555980" lon="-8.6311440">
        <ele>32.1</ele>
        <time>2021-05-22T10:50:35Z</time>
      </trkpt>
      <trkpt lat="42.5555990" lon="-8.6311430">
        <ele>32.1</ele>
        <time>2021-05-22T10:50:36Z</time>
      </trkpt>
      <trkpt lat="42.5555990" lon="-8.6311430">
        <ele>32.1</ele>
        <time>2021-05-22T10:50:37Z</time>
      </trkpt>
      <trkpt lat="42.5555990" lon="-8.6311420">
        <ele>32.1</ele>
        <time>2021-05-22T10:50:38Z</time>
      </trkpt>
      <trkpt lat="42.5555990" lon="-8.6311420">
        <ele>32.1</ele>
        <time>2021-05-22T10:50:39Z</time>
      </trkpt>
      <trkpt lat="42.5556000" lon="-8.6311410">
        <ele>32.1</ele>
        <time>2021-05-22T10:50:40Z</time>
      </trkpt>
      <trkpt lat="42.5556000" lon="-8.6311410">
        <ele>32.1</ele>
        <time>2021-05-22T10:50:41Z</time>
      </trkpt>
      <trkpt lat="42.5556000" lon="-8.6311400">
        <ele>32.1</ele>
        <time>2021-05-22T10:50:42Z</time>
      </trkpt>
      <trkpt lat="42.5556000" lon="-8.6311400">
        <ele>32.1</ele>
        <time>2021-05-22T10:50:43Z</time>
      </trkpt>
      <trkpt lat="42.5556000" lon="-8.6311390">
        <ele>32.1</ele>
        <time>2021-05-22T10:50:44Z</time>
      </trkpt>
      <trkpt lat="42.5556010" lon="-8.6311380">
        <ele>32.1</ele>
        <time>2021-05-22T10:50:45Z</time>
      </trkpt>
      <trkpt lat="42.5556010" lon="-8.6311380">
        <ele>32.1</ele>
        <time>2021-05-22T10:50:46Z</time>
      </trkpt>
      <trkpt lat="42.5556010" lon="-8.6311370">
        <ele>32.1</ele>
        <time>2021-05-22T10:50:47Z</time>
      </trkpt>
      <trkpt lat="42.5556010" lon="-8.6311370">
        <ele>32.1</ele>
        <time>2021-05-22T10:50:48Z</time>
      </trkpt>
      <trkpt lat="42.5556020" lon="-8.6311360">
        <ele>32.1</ele>
        <time>2021-05-22T10:50:49Z</time>
      </trkpt>
      <trkpt lat="42.5556020" lon="-8.6311360">
        <ele>32.1</ele>
        <time>2021-05-22T10:50:50Z</time>
      </trkpt>
      <trkpt lat="42.5556020" lon="-8.6311350">
        <ele>32.1</ele>
        <time>2021-05-22T10:50:51Z</time>
      </trkpt>
      <trkpt lat="42.5556020" lon="-8.6311350">
        <ele>32.1</ele>
        <time>2021-05-22T10:50:52Z</time>
      </trkpt>
      <trkpt lat="42.5556030" lon="-8.6311340">
        <ele>32.1</ele>
        <time>2021-05-22T10:50:53Z</time>
      </trkpt>
      <trkpt lat="42.5556030" lon="-8.6311340">
        <ele>32.1</ele>
        <time>2021-05-22T10:50:54Z</time>
      </trkpt>
      <trkpt lat="42.5556030" lon="-8.6311330">
        <ele>32.1</ele>
        <time>2021-05-22T10:50:55Z</time>
      </trkpt>
      <trkpt lat="42.5556030" lon="-8.6311330">
        <ele>32.1</ele>
        <time>2021-05-22T10:50:56Z</time>
      </trkpt>
      <trkpt lat="42.5556040" lon="-8.6311320">
        <ele>32.1</ele>
        <time>2021-05-22T10:50:57Z</time>
      </trkpt>
      <trkpt lat="42.5556040" lon="-8.6311320">
        <ele>32.1</ele>
        <time>2021-05-22T10:50:58Z</time>
      </trkpt>
      <trkpt lat="42.5556040" lon="-8.6311310">
        <ele>32.1</ele>
        <time>2021-05-22T10:50:59Z</time>
      </trkpt>
      <trkpt lat="42.5556040" lon="-8.6311310">
        <ele>32.1</ele>
        <time>2021-05-22T10:51:00Z</time>
      </trkpt>
      <trkpt lat="42.5556050" lon="-8.6311300">
        <ele>32.1</ele>
        <time>2021-05-22T10:51:01Z</time>
      </trkpt>
      <trkpt lat="42.5556050" lon="-8.6311300">
        <ele>32.1</ele>
        <time>2021-05-22T10:51:02Z</time>
      </trkpt>
      <trkpt lat="42.5556050" lon="-8.6311290">
        <ele>32.1</ele>
        <time>2021-05-22T10:51:03Z</time>
      </trkpt>
      <trkpt lat="42.5556050" lon="-8.6311280">
        <ele>32.1</ele>
        <time>2021-05-22T10:51:04Z</time>
      </trkpt>
      <trkpt lat="42.5556050" lon="-8.6311280">
        <ele>32.1</ele>
        <time>2021-05-22T10:51:05Z</time>
      </trkpt>
      <trkpt lat="42.5556060" lon="-8.6311270">
        <ele>32.1</ele>
        <time>2021-05-22T10:51:06Z</time>
      </trkpt>
      <trkpt lat="42.5556060" lon="-8.6311270">
        <ele>32.1</ele>
        <time>2021-05-22T10:51:07Z</time>
      </trkpt>
      <trkpt lat="42.5556060" lon="-8.6311260">
        <ele>32.1</ele>
        <time>2021-05-22T10:51:08Z</time>
      </trkpt>
      <trkpt lat="42.5556060" lon="-8.6311260">
        <ele>32.1</ele>
        <time>2021-05-22T10:51:09Z</time>
      </trkpt>
      <trkpt lat="42.5556070" lon="-8.6311250">
        <ele>32.1</ele>
        <time>2021-05-22T10:51:10Z</time>
      </trkpt>
      <trkpt lat="42.5556070" lon="-8.6311250">
        <ele>32.1</ele>
        <time>2021-05-22T10:51:11Z</time>
      </trkpt>
      <trkpt lat="42.5556070" lon="-8.6311240">
        <ele>32.1</ele>
        <time>2021-05-22T10:51:12Z</time>
      </trkpt>
      <trkpt lat="42.5556070" lon="-8.6311240">
        <ele>32.1</ele>
        <time>2021-05-22T10:51:13Z</time>
      </trkpt>
      <trkpt lat="42.5556080" lon="-8.6311230">
        <ele>32.1</ele>
        <time>2021-05-22T10:51:14Z</time>
      </trkpt>
      <trkpt lat="42.5556080" lon="-8.6311230">
        <ele>32.1</ele>
        <time>2021-05-22T10:51:15Z</time>
      </trkpt>
      <trkpt lat="42.5556080" lon="-8.6311220">
        <ele>32.1</ele>
        <time>2021-05-22T10:51:16Z</time>
      </trkpt>
      <trkpt lat="42.5556080" lon="-8.6311220">
        <ele>32.1</ele>
        <time>2021-05-22T10:51:17Z</time>
      </trkpt>
      <trkpt lat="42.5556090" lon="-8.6311210">
        <ele>32.1</ele>
        <time>2021-05-22T10:51:18Z</time>
      </trkpt>
      <trkpt lat="42.5556090" lon="-8.6311210">
        <ele>32.1</ele>
        <time>2021-05-22T10:51:19Z</time>
      </trkpt>
      <trkpt lat="42.5556090" lon="-8.6311200">
        <ele>32.1</ele>
        <time>2021-05-22T10:51:20Z</time>
      </trkpt>
      <trkpt lat="42.5556090" lon="-8.6311200">
        <ele>32.1</ele>
        <time>2021-05-22T10:51:21Z</time>
      </trkpt>
      <trkpt lat="42.5556090" lon="-8.6311190">
        <ele>32.1</ele>
        <time>2021-05-22T10:51:22Z</time>
      </trkpt>
      <trkpt lat="42.5556100" lon="-8.6311180">
        <ele>32.1</ele>
        <time>2021-05-22T10:51:23Z</time>
      </trkpt>
      <trkpt lat="42.5556100" lon="-8.6311180">
        <ele>32.1</ele>
        <time>2021-05-22T10:51:24Z</time>
      </trkpt>
      <trkpt lat="42.5556100" lon="-8.6311170">
        <ele>32.1</ele>
        <time>2021-05-22T10:51:25Z</time>
      </trkpt>
      <trkpt lat="42.5556100" lon="-8.6311170">
        <ele>32.1</ele>
        <time>2021-05-22T10:51:26Z</time>
      </trkpt>
      <trkpt lat="42.5556110" lon="-8.6311160">
        <ele>32.1</ele>
        <time>2021-05-22T10:51:27Z</time>
      </trkpt>
      <trkpt lat="42.5556110" lon="-8.6311160">
        <ele>32.1</ele>
        <time>2021-05-22T10:51:28Z</time>
      </trkpt>
      <trkpt lat="42.5556110" lon="-8.6311150">
        <ele>32.1</ele>
        <time>2021-05-22T10:51:29Z</time>
      </trkpt>
      <trkpt lat="42.5556110" lon="-8.6311150">
        <ele>32.1</ele>
        <time>2021-05-22T10:51:30Z</time>
      </trkpt>
      <trkpt lat="42.5556120" lon="-8.6311140">
        <ele>32.1</ele>
        <time>2021-05-22T10:51:31Z</time>
      </trkpt>
      <trkpt lat="42.5556120" lon="-8.6311140">
        <ele>32.1</ele>
        <time>2021-05-22T10:51:32Z</time>
      </trkpt>
      <trkpt lat="42.5556120" lon="-8.6311130">
        <ele>32.1</ele>
        <time>2021-05-22T10:51:33Z</time>
      </trkpt>
      <trkpt lat="42.5556120" lon="-8.6311130">
        <ele>32.1</ele>
        <time>2021-05-22T10:51:34Z</time>
      </trkpt>
      <trkpt lat="42.5556130" lon="-8.6311120">
        <ele>32.1</ele>
        <time>2021-05-22T10:51:35Z</time>
      </trkpt>
      <trkpt lat="42.5556130" lon="-8.6311120">
        <ele>32.1</ele>
        <time>2021-05-22T10:51:36Z</time>
      </trkpt>
      <trkpt lat="42.5556130" lon="-8.6311110">
        <ele>32.1</ele>
        <time>2021-05-22T10:51:37Z</time>
      </trkpt>
      <trkpt lat="42.5556130" lon="-8.6311110">
        <ele>32.1</ele>
        <time>2021-05-22T10:51:38Z</time>
      </trkpt>
      <trkpt lat="42.5556140" lon="-8.6311100">
        <ele>32.1</ele>
        <time>2021-05-22T10:51:39Z</time>
      </trkpt>
      <trkpt lat="42.5556140" lon="-8.6311100">
        <ele>32.1</ele>
        <time>2021-05-22T10:51:40Z</time>
      </trkpt>
      <trkpt lat="42.5556140" lon="-8.6311090">
        <ele>32.1</ele>
        <time>2021-05-22T10:51:41Z</time>
      </trkpt>
      <trkpt lat="42.5556050" lon="-8.6311200">
        <ele>32.1</ele>
        <time>2021-05-22T10:51:42Z</time>
      </trkpt>
      <trkpt lat="42.5555980" lon="-8.6311290">
        <ele>32.1</ele>
        <time>2021-05-22T10:51:43Z</time>
      </trkpt>
      <trkpt lat="42.5555900" lon="-8.6311390">
        <ele>32.1</ele>
        <time>2021-05-22T10:51:44Z</time>
      </trkpt>
      <trkpt lat="42.5555820" lon="-8.6311480">
        <ele>32.1</ele>
        <time>2021-05-22T10:51:45Z</time>
      </trkpt>
      <trkpt lat="42.5555810" lon="-8.6311550">
        <ele>32.1</ele>
        <time>2021-05-22T10:51:46Z</time>
      </trkpt>
      <trkpt lat="42.5555780" lon="-8.6311660">
        <ele>32.1</ele>
        <time>2021-05-22T10:51:47Z</time>
      </trkpt>
      <trkpt lat="42.5555750" lon="-8.6311830">
        <ele>32.1</ele>
        <time>2021-05-22T10:51:48Z</time>
      </trkpt>
      <trkpt lat="42.5555710" lon="-8.6311930">
        <ele>32.1</ele>
        <time>2021-05-22T10:51:49Z</time>
      </trkpt>
      <trkpt lat="42.5555660" lon="-8.6312090">
        <ele>32.1</ele>
        <time>2021-05-22T10:51:50Z</time>
      </trkpt>
      <trkpt lat="42.5555650" lon="-8.6312180">
        <ele>32.1</ele>
        <time>2021-05-22T10:51:51Z</time>
      </trkpt>
      <trkpt lat="42.5555640" lon="-8.6312280">
        <ele>32.1</ele>
        <time>2021-05-22T10:51:52Z</time>
      </trkpt>
      <trkpt lat="42.5555630" lon="-8.6312370">
        <ele>32.1</ele>
        <time>2021-05-22T10:51:53Z</time>
      </trkpt>
      <trkpt lat="42.5555620" lon="-8.6312470">
        <ele>32.1</ele>
        <time>2021-05-22T10:51:54Z</time>
      </trkpt>
      <trkpt lat="42.5555640" lon="-8.6312620">
        <ele>32.1</ele>
        <time>2021-05-22T10:51:55Z</time>
      </trkpt>
      <trkpt lat="42.5555670" lon="-8.6312610">
        <ele>32.1</ele>
        <time>2021-05-22T10:51:56Z</time>
      </trkpt>
      <trkpt lat="42.5555690" lon="-8.6312560">
        <ele>32.1</ele>
        <time>2021-05-22T10:51:57Z</time>
      </trkpt>
      <trkpt lat="42.5555680" lon="-8.6312580">
        <ele>32.1</ele>
        <time>2021-05-22T10:51:58Z</time>
      </trkpt>
      <trkpt lat="42.5555690" lon="-8.6312570">
        <ele>32.1</ele>
        <time>2021-05-22T10:51:59Z</time>
      </trkpt>
      <trkpt lat="42.5555710" lon="-8.6312750">
        <ele>32.1</ele>
        <time>2021-05-22T10:52:00Z</time>
      </trkpt>
      <trkpt lat="42.5555700" lon="-8.6312750">
        <ele>32.1</ele>
        <time>2021-05-22T10:52:01Z</time>
      </trkpt>
      <trkpt lat="42.5555690" lon="-8.6312760">
        <ele>32.1</ele>
        <time>2021-05-22T10:52:02Z</time>
      </trkpt>
      <trkpt lat="42.5555750" lon="-8.6312800">
        <ele>32.1</ele>
        <time>2021-05-22T10:52:03Z</time>
      </trkpt>
      <trkpt lat="42.5555820" lon="-8.6312850">
        <ele>32.1</ele>
        <time>2021-05-22T10:52:04Z</time>
      </trkpt>
      <trkpt lat="42.5555860" lon="-8.6312870">
        <ele>32.1</ele>
        <time>2021-05-22T10:52:05Z</time>
      </trkpt>
      <trkpt lat="42.5555910" lon="-8.6312890">
        <ele>32.1</ele>
        <time>2021-05-22T10:52:06Z</time>
      </trkpt>
      <trkpt lat="42.5555950" lon="-8.6312920">
        <ele>32.1</ele>
        <time>2021-05-22T10:52:07Z</time>
      </trkpt>
      <trkpt lat="42.5556000" lon="-8.6312940">
        <ele>32.1</ele>
        <time>2021-05-22T10:52:08Z</time>
      </trkpt>
      <trkpt lat="42.5556040" lon="-8.6312960">
        <ele>32.1</ele>
        <time>2021-05-22T10:52:09Z</time>
      </trkpt>
      <trkpt lat="42.5556090" lon="-8.6312980">
        <ele>32.1</ele>
        <time>2021-05-22T10:52:10Z</time>
      </trkpt>
      <trkpt lat="42.5556100" lon="-8.6312970">
        <ele>32.1</ele>
        <time>2021-05-22T10:52:11Z</time>
      </trkpt>
      <trkpt lat="42.5556120" lon="-8.6312970">
        <ele>32.1</ele>
        <time>2021-05-22T10:52:12Z</time>
      </trkpt>
      <trkpt lat="42.5556150" lon="-8.6312980">
        <ele>32.1</ele>
        <time>2021-05-22T10:52:13Z</time>
      </trkpt>
      <trkpt lat="42.5556150" lon="-8.6312980">
        <ele>32.1</ele>
        <time>2021-05-22T10:52:14Z</time>
      </trkpt>
      <trkpt lat="42.5556150" lon="-8.6312980">
        <ele>32.1</ele>
        <time>2021-05-22T10:52:15Z</time>
      </trkpt>
      <trkpt lat="42.5556390" lon="-8.6313070">
        <ele>32.1</ele>
        <time>2021-05-22T10:52:16Z</time>
      </trkpt>
      <trkpt lat="42.5556400" lon="-8.6313070">
        <ele>32.1</ele>
        <time>2021-05-22T10:52:17Z</time>
      </trkpt>
      <trkpt lat="42.5556410" lon="-8.6313060">
        <ele>32.1</ele>
        <time>2021-05-22T10:52:18Z</time>
      </trkpt>
      <trkpt lat="42.5556410" lon="-8.6313040">
        <ele>32.1</ele>
        <time>2021-05-22T10:52:19Z</time>
      </trkpt>
      <trkpt lat="42.5556390" lon="-8.6313010">
        <ele>32.1</ele>
        <time>2021-05-22T10:52:20Z</time>
      </trkpt>
      <trkpt lat="42.5556400" lon="-8.6312970">
        <ele>32.1</ele>
        <time>2021-05-22T10:52:21Z</time>
      </trkpt>
      <trkpt lat="42.5556330" lon="-8.6312890">
        <ele>32.1</ele>
        <time>2021-05-22T10:52:22Z</time>
      </trkpt>
      <trkpt lat="42.5556370" lon="-8.6312880">
        <ele>32.1</ele>
        <time>2021-05-22T10:52:23Z</time>
      </trkpt>
      <trkpt lat="42.5556220" lon="-8.6312670">
        <ele>32.1</ele>
        <time>2021-05-22T10:52:24Z</time>
      </trkpt>
      <trkpt lat="42.5556010" lon="-8.6312510">
        <ele>32.1</ele>
        <time>2021-05-22T10:52:25Z</time>
      </trkpt>
      <trkpt lat="42.5555930" lon="-8.6312460">
        <ele>32.1</ele>
        <time>2021-05-22T10:52:26Z</time>
      </trkpt>
      <trkpt lat="42.5555860" lon="-8.6312260">
        <ele>32.1</ele>
        <time>2021-05-22T10:52:27Z</time>
      </trkpt>
      <trkpt lat="42.5555870" lon="-8.6312140">
        <ele>32.1</ele>
        <time>2021-05-22T10:52:28Z</time>
      </trkpt>
      <trkpt lat="42.5555870" lon="-8.6312030">
        <ele>32.1</ele>
        <time>2021-05-22T10:52:29Z</time>
      </trkpt>
      <trkpt lat="42.5555870" lon="-8.6311910">
        <ele>32.1</ele>
        <time>2021-05-22T10:52:30Z</time>
      </trkpt>
      <trkpt lat="42.5555880" lon="-8.6311800">
        <ele>32.1</ele>
        <time>2021-05-22T10:52:31Z</time>
      </trkpt>
      <trkpt lat="42.5555880" lon="-8.6311680">
        <ele>32.1</ele>
        <time>2021-05-22T10:52:32Z</time>
      </trkpt>
      <trkpt lat="42.5555870" lon="-8.6311690">
        <ele>32.1</ele>
        <time>2021-05-22T10:52:33Z</time>
      </trkpt>
      <trkpt lat="42.5555860" lon="-8.6311690">
        <ele>32.1</ele>
        <time>2021-05-22T10:52:34Z</time>
      </trkpt>
      <trkpt lat="42.5555850" lon="-8.6311700">
        <ele>32.1</ele>
        <time>2021-05-22T10:52:35Z</time>
      </trkpt>
      <trkpt lat="42.5555840" lon="-8.6311700">
        <ele>32.1</ele>
        <time>2021-05-22T10:52:36Z</time>
      </trkpt>
      <trkpt lat="42.5555830" lon="-8.6311710">
        <ele>32.1</ele>
        <time>2021-05-22T10:52:37Z</time>
      </trkpt>
      <trkpt lat="42.5555820" lon="-8.6311720">
        <ele>32.1</ele>
        <time>2021-05-22T10:52:38Z</time>
      </trkpt>
      <trkpt lat="42.5555810" lon="-8.6311720">
        <ele>32.1</ele>
        <time>2021-05-22T10:52:39Z</time>
      </trkpt>
      <trkpt lat="42.5555800" lon="-8.6311730">
        <ele>32.1</ele>
        <time>2021-05-22T10:52:40Z</time>
      </trkpt>
      <trkpt lat="42.5555790" lon="-8.6311730">
        <ele>32.1</ele>
        <time>2021-05-22T10:52:41Z</time>
      </trkpt>
      <trkpt lat="42.5555780" lon="-8.6311740">
        <ele>32.1</ele>
        <time>2021-05-22T10:52:42Z</time>
      </trkpt>
      <trkpt lat="42.5555770" lon="-8.6311740">
        <ele>32.1</ele>
        <time>2021-05-22T10:52:43Z</time>
      </trkpt>
      <trkpt lat="42.5555760" lon="-8.6311750">
        <ele>32.1</ele>
        <time>2021-05-22T10:52:44Z</time>
      </trkpt>
      <trkpt lat="42.5555750" lon="-8.6311760">
        <ele>32.1</ele>
        <time>2021-05-22T10:52:45Z</time>
      </trkpt>
      <trkpt lat="42.5555740" lon="-8.6311760">
        <ele>32.1</ele>
        <time>2021-05-22T10:52:46Z</time>
      </trkpt>
      <trkpt lat="42.5555730" lon="-8.6311770">
        <ele>32.1</ele>
        <time>2021-05-22T10:52:47Z</time>
      </trkpt>
      <trkpt lat="42.5555720" lon="-8.6311770">
        <ele>32.1</ele>
        <time>2021-05-22T10:52:48Z</time>
      </trkpt>
      <trkpt lat="42.5555710" lon="-8.6311780">
        <ele>32.1</ele>
        <time>2021-05-22T10:52:49Z</time>
      </trkpt>
      <trkpt lat="42.5555700" lon="-8.6311790">
        <ele>32.1</ele>
        <time>2021-05-22T10:52:50Z</time>
      </trkpt>
      <trkpt lat="42.5555690" lon="-8.6311790">
        <ele>32.1</ele>
        <time>2021-05-22T10:52:51Z</time>
      </trkpt>
      <trkpt lat="42.5555680" lon="-8.6311800">
        <ele>32.1</ele>
        <time>2021-05-22T10:52:52Z</time>
      </trkpt>
      <trkpt lat="42.5555670" lon="-8.6311800">
        <ele>32.1</ele>
        <time>2021-05-22T10:52:53Z</time>
      </trkpt>
      <trkpt lat="42.5555660" lon="-8.6311810">
        <ele>32.1</ele>
        <time>2021-05-22T10:52:54Z</time>
      </trkpt>
      <trkpt lat="42.5555650" lon="-8.6311810">
        <ele>32.1</ele>
        <time>2021-05-22T10:52:55Z</time>
      </trkpt>
      <trkpt lat="42.5555640" lon="-8.6311820">
        <ele>32.1</ele>
        <time>2021-05-22T10:52:56Z</time>
      </trkpt>
      <trkpt lat="42.5555630" lon="-8.6311830">
        <ele>32.1</ele>
        <time>2021-05-22T10:52:57Z</time>
      </trkpt>
      <trkpt lat="42.5555620" lon="-8.6311830">
        <ele>32.1</ele>
        <time>2021-05-22T10:52:58Z</time>
      </trkpt>
      <trkpt lat="42.5555600" lon="-8.6311840">
        <ele>32.1</ele>
        <time>2021-05-22T10:52:59Z</time>
      </trkpt>
      <trkpt lat="42.5555590" lon="-8.6311840">
        <ele>32.1</ele>
        <time>2021-05-22T10:53:00Z</time>
      </trkpt>
      <trkpt lat="42.5555580" lon="-8.6311850">
        <ele>32.1</ele>
        <time>2021-05-22T10:53:01Z</time>
      </trkpt>
      <trkpt lat="42.5555570" lon="-8.6311860">
        <ele>32.1</ele>
        <time>2021-05-22T10:53:02Z</time>
      </trkpt>
      <trkpt lat="42.5555560" lon="-8.6311860">
        <ele>32.1</ele>
        <time>2021-05-22T10:53:03Z</time>
      </trkpt>
      <trkpt lat="42.5555550" lon="-8.6311870">
        <ele>32.1</ele>
        <time>2021-05-22T10:53:04Z</time>
      </trkpt>
      <trkpt lat="42.5555540" lon="-8.6311870">
        <ele>32.1</ele>
        <time>2021-05-22T10:53:05Z</time>
      </trkpt>
      <trkpt lat="42.5555530" lon="-8.6311880">
        <ele>32.1</ele>
        <time>2021-05-22T10:53:06Z</time>
      </trkpt>
      <trkpt lat="42.5555520" lon="-8.6311880">
        <ele>32.1</ele>
        <time>2021-05-22T10:53:07Z</time>
      </trkpt>
      <trkpt lat="42.5555510" lon="-8.6311890">
        <ele>32.1</ele>
        <time>2021-05-22T10:53:08Z</time>
      </trkpt>
      <trkpt lat="42.5555500" lon="-8.6311900">
        <ele>32.1</ele>
        <time>2021-05-22T10:53:09Z</time>
      </trkpt>
      <trkpt lat="42.5555490" lon="-8.6311900">
        <ele>32.1</ele>
        <time>2021-05-22T10:53:10Z</time>
      </trkpt>
      <trkpt lat="42.5555480" lon="-8.6311910">
        <ele>32.1</ele>
        <time>2021-05-22T10:53:11Z</time>
      </trkpt>
      <trkpt lat="42.5555470" lon="-8.6311910">
        <ele>32.1</ele>
        <time>2021-05-22T10:53:12Z</time>
      </trkpt>
      <trkpt lat="42.5555460" lon="-8.6311920">
        <ele>32.1</ele>
        <time>2021-05-22T10:53:13Z</time>
      </trkpt>
      <trkpt lat="42.5555450" lon="-8.6311930">
        <ele>32.1</ele>
        <time>2021-05-22T10:53:14Z</time>
      </trkpt>
      <trkpt lat="42.5555440" lon="-8.6311930">
        <ele>32.1</ele>
        <time>2021-05-22T10:53:15Z</time>
      </trkpt>
      <trkpt lat="42.5555430" lon="-8.6311940">
        <ele>32.1</ele>
        <time>2021-05-22T10:53:16Z</time>
      </trkpt>
      <trkpt lat="42.5555420" lon="-8.6311940">
        <ele>32.1</ele>
        <time>2021-05-22T10:53:17Z</time>
      </trkpt>
      <trkpt lat="42.5555410" lon="-8.6311950">
        <ele>32.1</ele>
        <time>2021-05-22T10:53:18Z</time>
      </trkpt>
      <trkpt lat="42.5555400" lon="-8.6311950">
        <ele>32.1</ele>
        <time>2021-05-22T10:53:19Z</time>
      </trkpt>
      <trkpt lat="42.5555390" lon="-8.6311960">
        <ele>32.1</ele>
        <time>2021-05-22T10:53:20Z</time>
      </trkpt>
      <trkpt lat="42.5555380" lon="-8.6311970">
        <ele>32.1</ele>
        <time>2021-05-22T10:53:21Z</time>
      </trkpt>
      <trkpt lat="42.5555370" lon="-8.6311970">
        <ele>32.1</ele>
        <time>2021-05-22T10:53:22Z</time>
      </trkpt>
      <trkpt lat="42.5555360" lon="-8.6311980">
        <ele>32.1</ele>
        <time>2021-05-22T10:53:23Z</time>
      </trkpt>
      <trkpt lat="42.5555350" lon="-8.6311980">
        <ele>32.1</ele>
        <time>2021-05-22T10:53:24Z</time>
      </trkpt>
      <trkpt lat="42.5555340" lon="-8.6311990">
        <ele>32.1</ele>
        <time>2021-05-22T10:53:25Z</time>
      </trkpt>
      <trkpt lat="42.5555420" lon="-8.6312000">
        <ele>32.1</ele>
        <time>2021-05-22T10:53:26Z</time>
      </trkpt>
      <trkpt lat="42.5555460" lon="-8.6312050">
        <ele>32.1</ele>
        <time>2021-05-22T10:53:27Z</time>
      </trkpt>
      <trkpt lat="42.5555470" lon="-8.6312020">
        <ele>32.1</ele>
        <time>2021-05-22T10:53:28Z</time>
      </trkpt>
      <trkpt lat="42.5555410" lon="-8.6311950">
        <ele>32.1</ele>
        <time>2021-05-22T10:53:29Z</time>
      </trkpt>
      <trkpt lat="42.5555390" lon="-8.6311840">
        <ele>32.1</ele>
        <time>2021-05-22T10:53:30Z</time>
      </trkpt>
      <trkpt lat="42.5555420" lon="-8.6311640">
        <ele>32.1</ele>
        <time>2021-05-22T10:53:31Z</time>
      </trkpt>
      <trkpt lat="42.5555420" lon="-8.6311640">
        <ele>32.1</ele>
        <time>2021-05-22T10:53:32Z</time>
      </trkpt>
      <trkpt lat="42.5555420" lon="-8.6311640">
        <ele>32.1</ele>
        <time>2021-05-22T10:53:33Z</time>
      </trkpt>
      <trkpt lat="42.5555420" lon="-8.6311640">
        <ele>32.1</ele>
        <time>2021-05-22T10:53:34Z</time>
      </trkpt>
      <trkpt lat="42.5555420" lon="-8.6311640">
        <ele>32.1</ele>
        <time>2021-05-22T10:53:35Z</time>
      </trkpt>
      <trkpt lat="42.5555420" lon="-8.6311640">
        <ele>32.1</ele>
        <time>2021-05-22T10:53:36Z</time>
      </trkpt>
      <trkpt lat="42.5555400" lon="-8.6311600">
        <ele>32.1</ele>
        <time>2021-05-22T10:53:37Z</time>
      </trkpt>
      <trkpt lat="42.5555410" lon="-8.6311600">
        <ele>32.1</ele>
        <time>2021-05-22T10:53:38Z</time>
      </trkpt>
      <trkpt lat="42.5555410" lon="-8.6311600">
        <ele>32.1</ele>
        <time>2021-05-22T10:53:39Z</time>
      </trkpt>
      <trkpt lat="42.5555410" lon="-8.6311600">
        <ele>32.1</ele>
        <time>2021-05-22T10:53:40Z</time>
      </trkpt>
      <trkpt lat="42.5555410" lon="-8.6311600">
        <ele>32.1</ele>
        <time>2021-05-22T10:53:41Z</time>
      </trkpt>
      <trkpt lat="42.5555410" lon="-8.6311600">
        <ele>32.1</ele>
        <time>2021-05-22T10:53:42Z</time>
      </trkpt>
      <trkpt lat="42.5555410" lon="-8.6311600">
        <ele>32.1</ele>
        <time>2021-05-22T10:53:43Z</time>
      </trkpt>
      <trkpt lat="42.5555410" lon="-8.6311600">
        <ele>32.1</ele>
        <time>2021-05-22T10:53:44Z</time>
      </trkpt>
      <trkpt lat="42.5555410" lon="-8.6311600">
        <ele>32.1</ele>
        <time>2021-05-22T10:53:45Z</time>
      </trkpt>
      <trkpt lat="42.5555410" lon="-8.6311600">
        <ele>32.1</ele>
        <time>2021-05-22T10:53:46Z</time>
      </trkpt>
      <trkpt lat="42.5555410" lon="-8.6311600">
        <ele>32.1</ele>
        <time>2021-05-22T10:53:47Z</time>
      </trkpt>
      <trkpt lat="42.5555410" lon="-8.6311600">
        <ele>32.1</ele>
        <time>2021-05-22T10:53:48Z</time>
      </trkpt>
      <trkpt lat="42.5555410" lon="-8.6311600">
        <ele>32.1</ele>
        <time>2021-05-22T10:53:49Z</time>
      </trkpt>
      <trkpt lat="42.5555530" lon="-8.6311330">
        <ele>32.1</ele>
        <time>2021-05-22T10:53:50Z</time>
      </trkpt>
      <trkpt lat="42.5555560" lon="-8.6311400">
        <ele>32.1</ele>
        <time>2021-05-22T10:53:51Z</time>
      </trkpt>
      <trkpt lat="42.5555590" lon="-8.6311460">
        <ele>32.1</ele>
        <time>2021-05-22T10:53:52Z</time>
      </trkpt>
      <trkpt lat="42.5555640" lon="-8.6311480">
        <ele>32.1</ele>
        <time>2021-05-22T10:53:53Z</time>
      </trkpt>
      <trkpt lat="42.5555660" lon="-8.6311580">
        <ele>32.1</ele>
        <time>2021-05-22T10:53:54Z</time>
      </trkpt>
      <trkpt lat="42.5555680" lon="-8.6311680">
        <ele>32.1</ele>
        <time>2021-05-22T10:53:55Z</time>
      </trkpt>
      <trkpt lat="42.5555710" lon="-8.6311800">
        <ele>32.1</ele>
        <time>2021-05-22T10:53:56Z</time>
      </trkpt>
      <trkpt lat="42.5555660" lon="-8.6311870">
        <ele>32.1</ele>
        <time>2021-05-22T10:53:57Z</time>
      </trkpt>
      <trkpt lat="42.5555560" lon="-8.6311970">
        <ele>32.1</ele>
        <time>2021-05-22T10:53:58Z</time>
      </trkpt>
      <trkpt lat="42.5555560" lon="-8.6312080">
        <ele>32.1</ele>
        <time>2021-05-22T10:53:59Z</time>
      </trkpt>
      <trkpt lat="42.5555560" lon="-8.6312120">
        <ele>32.1</ele>
        <time>2021-05-22T10:54:00Z</time>
      </trkpt>
      <trkpt lat="42.5555560" lon="-8.6312150">
        <ele>32.1</ele>
        <time>2021-05-22T10:54:01Z</time>
      </trkpt>
      <trkpt lat="42.5555560" lon="-8.6312190">
        <ele>32.1</ele>
        <time>2021-05-22T10:54:02Z</time>
      </trkpt>
      <trkpt lat="42.5555580" lon="-8.6312210">
        <ele>32.1</ele>
        <time>2021-05-22T10:54:03Z</time>
      </trkpt>
      <trkpt lat="42.5555520" lon="-8.6312300">
        <ele>32.1</ele>
        <time>2021-05-22T10:54:04Z</time>
      </trkpt>
      <trkpt lat="42.5555410" lon="-8.6312350">
        <ele>32.1</ele>
        <time>2021-05-22T10:54:05Z</time>
      </trkpt>
      <trkpt lat="42.5555190" lon="-8.6312460">
        <ele>32.1</ele>
        <time>2021-05-22T10:54:06Z</time>
      </trkpt>
      <trkpt lat="42.5555060" lon="-8.6312530">
        <ele>32.1</ele>
        <time>2021-05-22T10:54:07Z</time>
      </trkpt>
      <trkpt lat="42.5554920" lon="-8.6312610">
        <ele>32.2</ele>
        <time>2021-05-22T10:54:08Z</time>
      </trkpt>
      <trkpt lat="42.5554930" lon="-8.6312620">
        <ele>32.2</ele>
        <time>2021-05-22T10:54:09Z</time>
      </trkpt>
      <trkpt lat="42.5554970" lon="-8.6312570">
        <ele>32.2</ele>
        <time>2021-05-22T10:54:10Z</time>
      </trkpt>
      <trkpt lat="42.5555000" lon="-8.6312520">
        <ele>32.2</ele>
        <time>2021-05-22T10:54:11Z</time>
      </trkpt>
      <trkpt lat="42.5555040" lon="-8.6312470">
        <ele>32.2</ele>
        <time>2021-05-22T10:54:12Z</time>
      </trkpt>
      <trkpt lat="42.5555070" lon="-8.6312420">
        <ele>32.2</ele>
        <time>2021-05-22T10:54:13Z</time>
      </trkpt>
      <trkpt lat="42.5555110" lon="-8.6312370">
        <ele>32.2</ele>
        <time>2021-05-22T10:54:14Z</time>
      </trkpt>
      <trkpt lat="42.5555140" lon="-8.6312320">
        <ele>32.2</ele>
        <time>2021-05-22T10:54:15Z</time>
      </trkpt>
      <trkpt lat="42.5555180" lon="-8.6312270">
        <ele>32.2</ele>
        <time>2021-05-22T10:54:16Z</time>
      </trkpt>
      <trkpt lat="42.5555210" lon="-8.6312220">
        <ele>32.2</ele>
        <time>2021-05-22T10:54:17Z</time>
      </trkpt>
      <trkpt lat="42.5555250" lon="-8.6312170">
        <ele>32.2</ele>
        <time>2021-05-22T10:54:18Z</time>
      </trkpt>
      <trkpt lat="42.5555280" lon="-8.6312120">
        <ele>32.2</ele>
        <time>2021-05-22T10:54:19Z</time>
      </trkpt>
      <trkpt lat="42.5555310" lon="-8.6312070">
        <ele>32.2</ele>
        <time>2021-05-22T10:54:20Z</time>
      </trkpt>
      <trkpt lat="42.5555350" lon="-8.6312020">
        <ele>32.1</ele>
        <time>2021-05-22T10:54:21Z</time>
      </trkpt>
      <trkpt lat="42.5555380" lon="-8.6311970">
        <ele>32.1</ele>
        <time>2021-05-22T10:54:22Z</time>
      </trkpt>
      <trkpt lat="42.5555420" lon="-8.6311920">
        <ele>32.1</ele>
        <time>2021-05-22T10:54:23Z</time>
      </trkpt>
      <trkpt lat="42.5555450" lon="-8.6311870">
        <ele>32.1</ele>
        <time>2021-05-22T10:54:24Z</time>
      </trkpt>
      <trkpt lat="42.5555490" lon="-8.6311820">
        <ele>32.1</ele>
        <time>2021-05-22T10:54:25Z</time>
      </trkpt>
      <trkpt lat="42.5555520" lon="-8.6311770">
        <ele>32.1</ele>
        <time>2021-05-22T10:54:26Z</time>
      </trkpt>
      <trkpt lat="42.5555560" lon="-8.6311720">
        <ele>32.1</ele>
        <time>2021-05-22T10:54:27Z</time>
      </trkpt>
      <trkpt lat="42.5555590" lon="-8.6311670">
        <ele>32.1</ele>
        <time>2021-05-22T10:54:28Z</time>
      </trkpt>
      <trkpt lat="42.5555630" lon="-8.6311620">
        <ele>32.1</ele>
        <time>2021-05-22T10:54:29Z</time>
      </trkpt>
      <trkpt lat="42.5555660" lon="-8.6311570">
        <ele>32.1</ele>
        <time>2021-05-22T10:54:30Z</time>
      </trkpt>
      <trkpt lat="42.5555750" lon="-8.6311310">
        <ele>32.1</ele>
        <time>2021-05-22T10:54:31Z</time>
      </trkpt>
      <trkpt lat="42.5555790" lon="-8.6311130">
        <ele>32.1</ele>
        <time>2021-05-22T10:54:32Z</time>
      </trkpt>
      <trkpt lat="42.5555800" lon="-8.6311110">
        <ele>32.1</ele>
        <time>2021-05-22T10:54:33Z</time>
      </trkpt>
      <trkpt lat="42.5555820" lon="-8.6310710">
        <ele>32.1</ele>
        <time>2021-05-22T10:54:34Z</time>
      </trkpt>
      <trkpt lat="42.5555820" lon="-8.6310650">
        <ele>32.1</ele>
        <time>2021-05-22T10:54:35Z</time>
      </trkpt>
      <trkpt lat="42.5555840" lon="-8.6310720">
        <ele>32.1</ele>
        <time>2021-05-22T10:54:36Z</time>
      </trkpt>
      <trkpt lat="42.5555850" lon="-8.6310800">
        <ele>32.1</ele>
        <time>2021-05-22T10:54:37Z</time>
      </trkpt>
      <trkpt lat="42.5555870" lon="-8.6310870">
        <ele>32.1</ele>
        <time>2021-05-22T10:54:38Z</time>
      </trkpt>
      <trkpt lat="42.5555880" lon="-8.6310940">
        <ele>32.1</ele>
        <time>2021-05-22T10:54:39Z</time>
      </trkpt>
      <trkpt lat="42.5555890" lon="-8.6311010">
        <ele>32.1</ele>
        <time>2021-05-22T10:54:40Z</time>
      </trkpt>
      <trkpt lat="42.5555910" lon="-8.6311080">
        <ele>32.1</ele>
        <time>2021-05-22T10:54:41Z</time>
      </trkpt>
      <trkpt lat="42.5555920" lon="-8.6311160">
        <ele>32.1</ele>
        <time>2021-05-22T10:54:42Z</time>
      </trkpt>
      <trkpt lat="42.5555940" lon="-8.6311230">
        <ele>32.1</ele>
        <time>2021-05-22T10:54:43Z</time>
      </trkpt>
      <trkpt lat="42.5555950" lon="-8.6311300">
        <ele>32.1</ele>
        <time>2021-05-22T10:54:44Z</time>
      </trkpt>
      <trkpt lat="42.5555940" lon="-8.6311320">
        <ele>32.1</ele>
        <time>2021-05-22T10:54:45Z</time>
      </trkpt>
      <trkpt lat="42.5555930" lon="-8.6311340">
        <ele>32.1</ele>
        <time>2021-05-22T10:54:46Z</time>
      </trkpt>
      <trkpt lat="42.5555930" lon="-8.6311360">
        <ele>32.1</ele>
        <time>2021-05-22T10:54:47Z</time>
      </trkpt>
      <trkpt lat="42.5555920" lon="-8.6311390">
        <ele>32.1</ele>
        <time>2021-05-22T10:54:48Z</time>
      </trkpt>
      <trkpt lat="42.5555910" lon="-8.6311410">
        <ele>32.1</ele>
        <time>2021-05-22T10:54:49Z</time>
      </trkpt>
      <trkpt lat="42.5555900" lon="-8.6311430">
        <ele>32.1</ele>
        <time>2021-05-22T10:54:50Z</time>
      </trkpt>
      <trkpt lat="42.5555890" lon="-8.6311450">
        <ele>32.1</ele>
        <time>2021-05-22T10:54:51Z</time>
      </trkpt>
      <trkpt lat="42.5555880" lon="-8.6311470">
        <ele>32.1</ele>
        <time>2021-05-22T10:54:52Z</time>
      </trkpt>
      <trkpt lat="42.5555880" lon="-8.6311490">
        <ele>32.1</ele>
        <time>2021-05-22T10:54:53Z</time>
      </trkpt>
      <trkpt lat="42.5555870" lon="-8.6311510">
        <ele>32.1</ele>
        <time>2021-05-22T10:54:54Z</time>
      </trkpt>
      <trkpt lat="42.5555860" lon="-8.6311530">
        <ele>32.1</ele>
        <time>2021-05-22T10:54:55Z</time>
      </trkpt>
      <trkpt lat="42.5555850" lon="-8.6311560">
        <ele>32.1</ele>
        <time>2021-05-22T10:54:56Z</time>
      </trkpt>
      <trkpt lat="42.5555840" lon="-8.6311580">
        <ele>32.1</ele>
        <time>2021-05-22T10:54:57Z</time>
      </trkpt>
      <trkpt lat="42.5555830" lon="-8.6311600">
        <ele>32.1</ele>
        <time>2021-05-22T10:54:58Z</time>
      </trkpt>
      <trkpt lat="42.5555830" lon="-8.6311620">
        <ele>32.1</ele>
        <time>2021-05-22T10:54:59Z</time>
      </trkpt>
      <trkpt lat="42.5555820" lon="-8.6311640">
        <ele>32.1</ele>
        <time>2021-05-22T10:55:00Z</time>
      </trkpt>
      <trkpt lat="42.5555810" lon="-8.6311660">
        <ele>32.1</ele>
        <time>2021-05-22T10:55:01Z</time>
      </trkpt>
      <trkpt lat="42.5555800" lon="-8.6311680">
        <ele>32.1</ele>
        <time>2021-05-22T10:55:02Z</time>
      </trkpt>
      <trkpt lat="42.5555790" lon="-8.6311700">
        <ele>32.1</ele>
        <time>2021-05-22T10:55:03Z</time>
      </trkpt>
      <trkpt lat="42.5555780" lon="-8.6311730">
        <ele>32.1</ele>
        <time>2021-05-22T10:55:04Z</time>
      </trkpt>
      <trkpt lat="42.5555780" lon="-8.6311750">
        <ele>32.1</ele>
        <time>2021-05-22T10:55:05Z</time>
      </trkpt>
      <trkpt lat="42.5555770" lon="-8.6311770">
        <ele>32.1</ele>
        <time>2021-05-22T10:55:06Z</time>
      </trkpt>
      <trkpt lat="42.5555760" lon="-8.6311790">
        <ele>32.1</ele>
        <time>2021-05-22T10:55:07Z</time>
      </trkpt>
      <trkpt lat="42.5555750" lon="-8.6311810">
        <ele>32.1</ele>
        <time>2021-05-22T10:55:08Z</time>
      </trkpt>
      <trkpt lat="42.5555740" lon="-8.6311830">
        <ele>32.1</ele>
        <time>2021-05-22T10:55:09Z</time>
      </trkpt>
      <trkpt lat="42.5555730" lon="-8.6311850">
        <ele>32.1</ele>
        <time>2021-05-22T10:55:10Z</time>
      </trkpt>
      <trkpt lat="42.5555730" lon="-8.6311870">
        <ele>32.1</ele>
        <time>2021-05-22T10:55:11Z</time>
      </trkpt>
      <trkpt lat="42.5555720" lon="-8.6311900">
        <ele>32.1</ele>
        <time>2021-05-22T10:55:12Z</time>
      </trkpt>
      <trkpt lat="42.5555710" lon="-8.6311920">
        <ele>32.1</ele>
        <time>2021-05-22T10:55:13Z</time>
      </trkpt>
      <trkpt lat="42.5555700" lon="-8.6311940">
        <ele>32.1</ele>
        <time>2021-05-22T10:55:14Z</time>
      </trkpt>
      <trkpt lat="42.5555690" lon="-8.6311960">
        <ele>32.1</ele>
        <time>2021-05-22T10:55:15Z</time>
      </trkpt>
      <trkpt lat="42.5555680" lon="-8.6311980">
        <ele>32.1</ele>
        <time>2021-05-22T10:55:16Z</time>
      </trkpt>
      <trkpt lat="42.5555680" lon="-8.6312000">
        <ele>32.1</ele>
        <time>2021-05-22T10:55:17Z</time>
      </trkpt>
      <trkpt lat="42.5555670" lon="-8.6312020">
        <ele>32.1</ele>
        <time>2021-05-22T10:55:18Z</time>
      </trkpt>
      <trkpt lat="42.5555660" lon="-8.6312040">
        <ele>32.1</ele>
        <time>2021-05-22T10:55:19Z</time>
      </trkpt>
      <trkpt lat="42.5555650" lon="-8.6312070">
        <ele>32.1</ele>
        <time>2021-05-22T10:55:20Z</time>
      </trkpt>
      <trkpt lat="42.5555640" lon="-8.6312090">
        <ele>32.1</ele>
        <time>2021-05-22T10:55:21Z</time>
      </trkpt>
      <trkpt lat="42.5555630" lon="-8.6312110">
        <ele>32.1</ele>
        <time>2021-05-22T10:55:22Z</time>
      </trkpt>
      <trkpt lat="42.5555630" lon="-8.6312130">
        <ele>32.1</ele>
        <time>2021-05-22T10:55:23Z</time>
      </trkpt>
      <trkpt lat="42.5555620" lon="-8.6312150">
        <ele>32.1</ele>
        <time>2021-05-22T10:55:24Z</time>
      </trkpt>
      <trkpt lat="42.5555610" lon="-8.6312170">
        <ele>32.1</ele>
        <time>2021-05-22T10:55:25Z</time>
      </trkpt>
      <trkpt lat="42.5555600" lon="-8.6312190">
        <ele>32.1</ele>
        <time>2021-05-22T10:55:26Z</time>
      </trkpt>
      <trkpt lat="42.5555590" lon="-8.6312210">
        <ele>32.1</ele>
        <time>2021-05-22T10:55:27Z</time>
      </trkpt>
      <trkpt lat="42.5555580" lon="-8.6312240">
        <ele>32.1</ele>
        <time>2021-05-22T10:55:28Z</time>
      </trkpt>
      <trkpt lat="42.5555580" lon="-8.6312260">
        <ele>32.1</ele>
        <time>2021-05-22T10:55:29Z</time>
      </trkpt>
      <trkpt lat="42.5555570" lon="-8.6312280">
        <ele>32.1</ele>
        <time>2021-05-22T10:55:30Z</time>
      </trkpt>
      <trkpt lat="42.5555560" lon="-8.6312300">
        <ele>32.1</ele>
        <time>2021-05-22T10:55:31Z</time>
      </trkpt>
      <trkpt lat="42.5555550" lon="-8.6312320">
        <ele>32.1</ele>
        <time>2021-05-22T10:55:32Z</time>
      </trkpt>
      <trkpt lat="42.5555540" lon="-8.6312340">
        <ele>32.1</ele>
        <time>2021-05-22T10:55:33Z</time>
      </trkpt>
      <trkpt lat="42.5555530" lon="-8.6312360">
        <ele>32.1</ele>
        <time>2021-05-22T10:55:34Z</time>
      </trkpt>
      <trkpt lat="42.5555530" lon="-8.6312380">
        <ele>32.1</ele>
        <time>2021-05-22T10:55:35Z</time>
      </trkpt>
      <trkpt lat="42.5555520" lon="-8.6312410">
        <ele>32.1</ele>
        <time>2021-05-22T10:55:36Z</time>
      </trkpt>
      <trkpt lat="42.5555510" lon="-8.6312430">
        <ele>32.1</ele>
        <time>2021-05-22T10:55:37Z</time>
      </trkpt>
      <trkpt lat="42.5555500" lon="-8.6312450">
        <ele>32.1</ele>
        <time>2021-05-22T10:55:38Z</time>
      </trkpt>
      <trkpt lat="42.5555490" lon="-8.6312470">
        <ele>32.1</ele>
        <time>2021-05-22T10:55:39Z</time>
      </trkpt>
      <trkpt lat="42.5555480" lon="-8.6312490">
        <ele>32.1</ele>
        <time>2021-05-22T10:55:40Z</time>
      </trkpt>
      <trkpt lat="42.5555480" lon="-8.6312510">
        <ele>32.1</ele>
        <time>2021-05-22T10:55:41Z</time>
      </trkpt>
      <trkpt lat="42.5555470" lon="-8.6312530">
        <ele>32.1</ele>
        <time>2021-05-22T10:55:42Z</time>
      </trkpt>
      <trkpt lat="42.5555460" lon="-8.6312550">
        <ele>32.1</ele>
        <time>2021-05-22T10:55:43Z</time>
      </trkpt>
      <trkpt lat="42.5555450" lon="-8.6312580">
        <ele>32.1</ele>
        <time>2021-05-22T10:55:44Z</time>
      </trkpt>
      <trkpt lat="42.5555440" lon="-8.6312600">
        <ele>32.1</ele>
        <time>2021-05-22T10:55:45Z</time>
      </trkpt>
      <trkpt lat="42.5555430" lon="-8.6312620">
        <ele>32.1</ele>
        <time>2021-05-22T10:55:46Z</time>
      </trkpt>
      <trkpt lat="42.5555430" lon="-8.6312640">
        <ele>32.1</ele>
        <time>2021-05-22T10:55:47Z</time>
      </trkpt>
      <trkpt lat="42.5555420" lon="-8.6312660">
        <ele>32.1</ele>
        <time>2021-05-22T10:55:48Z</time>
      </trkpt>
      <trkpt lat="42.5555410" lon="-8.6312680">
        <ele>32.1</ele>
        <time>2021-05-22T10:55:49Z</time>
      </trkpt>
      <trkpt lat="42.5555400" lon="-8.6312700">
        <ele>32.1</ele>
        <time>2021-05-22T10:55:50Z</time>
      </trkpt>
      <trkpt lat="42.5555390" lon="-8.6312720">
        <ele>32.1</ele>
        <time>2021-05-22T10:55:51Z</time>
      </trkpt>
      <trkpt lat="42.5555380" lon="-8.6312750">
        <ele>32.1</ele>
        <time>2021-05-22T10:55:52Z</time>
      </trkpt>
      <trkpt lat="42.5555380" lon="-8.6312770">
        <ele>32.2</ele>
        <time>2021-05-22T10:55:53Z</time>
      </trkpt>
      <trkpt lat="42.5555370" lon="-8.6312790">
        <ele>32.2</ele>
        <time>2021-05-22T10:55:54Z</time>
      </trkpt>
      <trkpt lat="42.5555360" lon="-8.6312810">
        <ele>32.2</ele>
        <time>2021-05-22T10:55:55Z</time>
      </trkpt>
      <trkpt lat="42.5555350" lon="-8.6312830">
        <ele>32.2</ele>
        <time>2021-05-22T10:55:56Z</time>
      </trkpt>
      <trkpt lat="42.5555340" lon="-8.6312850">
        <ele>32.2</ele>
        <time>2021-05-22T10:55:57Z</time>
      </trkpt>
      <trkpt lat="42.5555330" lon="-8.6312870">
        <ele>32.2</ele>
        <time>2021-05-22T10:55:58Z</time>
      </trkpt>
      <trkpt lat="42.5555330" lon="-8.6312890">
        <ele>32.2</ele>
        <time>2021-05-22T10:55:59Z</time>
      </trkpt>
      <trkpt lat="42.5555320" lon="-8.6312920">
        <ele>32.2</ele>
        <time>2021-05-22T10:56:00Z</time>
      </trkpt>
      <trkpt lat="42.5555310" lon="-8.6312940">
        <ele>32.2</ele>
        <time>2021-05-22T10:56:01Z</time>
      </trkpt>
      <trkpt lat="42.5555300" lon="-8.6312960">
        <ele>32.2</ele>
        <time>2021-05-22T10:56:02Z</time>
      </trkpt>
      <trkpt lat="42.5555290" lon="-8.6312980">
        <ele>32.2</ele>
        <time>2021-05-22T10:56:03Z</time>
      </trkpt>
      <trkpt lat="42.5555280" lon="-8.6313000">
        <ele>32.2</ele>
        <time>2021-05-22T10:56:04Z</time>
      </trkpt>
      <trkpt lat="42.5555280" lon="-8.6313020">
        <ele>32.2</ele>
        <time>2021-05-22T10:56:05Z</time>
      </trkpt>
      <trkpt lat="42.5555270" lon="-8.6313040">
        <ele>32.2</ele>
        <time>2021-05-22T10:56:06Z</time>
      </trkpt>
      <trkpt lat="42.5555260" lon="-8.6313060">
        <ele>32.2</ele>
        <time>2021-05-22T10:56:07Z</time>
      </trkpt>
      <trkpt lat="42.5555250" lon="-8.6313090">
        <ele>32.2</ele>
        <time>2021-05-22T10:56:08Z</time>
      </trkpt>
      <trkpt lat="42.5555240" lon="-8.6313110">
        <ele>32.2</ele>
        <time>2021-05-22T10:56:09Z</time>
      </trkpt>
      <trkpt lat="42.5555230" lon="-8.6313130">
        <ele>32.2</ele>
        <time>2021-05-22T10:56:10Z</time>
      </trkpt>
      <trkpt lat="42.5555230" lon="-8.6313150">
        <ele>32.2</ele>
        <time>2021-05-22T10:56:11Z</time>
      </trkpt>
      <trkpt lat="42.5555220" lon="-8.6313170">
        <ele>32.2</ele>
        <time>2021-05-22T10:56:12Z</time>
      </trkpt>
      <trkpt lat="42.5555210" lon="-8.6313190">
        <ele>32.2</ele>
        <time>2021-05-22T10:56:13Z</time>
      </trkpt>
      <trkpt lat="42.5555200" lon="-8.6313210">
        <ele>32.2</ele>
        <time>2021-05-22T10:56:14Z</time>
      </trkpt>
      <trkpt lat="42.5555190" lon="-8.6313230">
        <ele>32.2</ele>
        <time>2021-05-22T10:56:15Z</time>
      </trkpt>
      <trkpt lat="42.5555180" lon="-8.6313260">
        <ele>32.2</ele>
        <time>2021-05-22T10:56:16Z</time>
      </trkpt>
      <trkpt lat="42.5555180" lon="-8.6313280">
        <ele>32.2</ele>
        <time>2021-05-22T10:56:17Z</time>
      </trkpt>
      <trkpt lat="42.5555170" lon="-8.6313300">
        <ele>32.2</ele>
        <time>2021-05-22T10:56:18Z</time>
      </trkpt>
      <trkpt lat="42.5555160" lon="-8.6313320">
        <ele>32.2</ele>
        <time>2021-05-22T10:56:19Z</time>
      </trkpt>
      <trkpt lat="42.5555170" lon="-8.6313430">
        <ele>32.2</ele>
        <time>2021-05-22T10:56:20Z</time>
      </trkpt>
      <trkpt lat="42.5555140" lon="-8.6313460">
        <ele>32.2</ele>
        <time>2021-05-22T10:56:21Z</time>
      </trkpt>
      <trkpt lat="42.5555120" lon="-8.6313490">
        <ele>32.2</ele>
        <time>2021-05-22T10:56:22Z</time>
      </trkpt>
      <trkpt lat="42.5555090" lon="-8.6313520">
        <ele>32.2</ele>
        <time>2021-05-22T10:56:23Z</time>
      </trkpt>
      <trkpt lat="42.5555060" lon="-8.6313560">
        <ele>32.2</ele>
        <time>2021-05-22T10:56:24Z</time>
      </trkpt>
      <trkpt lat="42.5555030" lon="-8.6313590">
        <ele>32.2</ele>
        <time>2021-05-22T10:56:25Z</time>
      </trkpt>
      <trkpt lat="42.5555000" lon="-8.6313620">
        <ele>32.2</ele>
        <time>2021-05-22T10:56:26Z</time>
      </trkpt>
      <trkpt lat="42.5554980" lon="-8.6313650">
        <ele>32.2</ele>
        <time>2021-05-22T10:56:27Z</time>
      </trkpt>
      <trkpt lat="42.5554950" lon="-8.6313680">
        <ele>32.2</ele>
        <time>2021-05-22T10:56:28Z</time>
      </trkpt>
      <trkpt lat="42.5554920" lon="-8.6313710">
        <ele>32.2</ele>
        <time>2021-05-22T10:56:29Z</time>
      </trkpt>
      <trkpt lat="42.5554870" lon="-8.6313870">
        <ele>32.2</ele>
        <time>2021-05-22T10:56:30Z</time>
      </trkpt>
      <trkpt lat="42.5554880" lon="-8.6313980">
        <ele>32.2</ele>
        <time>2021-05-22T10:56:31Z</time>
      </trkpt>
      <trkpt lat="42.5554890" lon="-8.6314160">
        <ele>32.2</ele>
        <time>2021-05-22T10:56:32Z</time>
      </trkpt>
      <trkpt lat="42.5554920" lon="-8.6314320">
        <ele>32.2</ele>
        <time>2021-05-22T10:56:33Z</time>
      </trkpt>
      <trkpt lat="42.5554930" lon="-8.6314340">
        <ele>32.2</ele>
        <time>2021-05-22T10:56:34Z</time>
      </trkpt>
      <trkpt lat="42.5554900" lon="-8.6314450">
        <ele>32.2</ele>
        <time>2021-05-22T10:56:35Z</time>
      </trkpt>
      <trkpt lat="42.5554930" lon="-8.6314460">
        <ele>32.2</ele>
        <time>2021-05-22T10:56:36Z</time>
      </trkpt>
      <trkpt lat="42.5555020" lon="-8.6314440">
        <ele>32.2</ele>
        <time>2021-05-22T10:56:37Z</time>
      </trkpt>
      <trkpt lat="42.5555030" lon="-8.6314360">
        <ele>32.2</ele>
        <time>2021-05-22T10:56:38Z</time>
      </trkpt>
      <trkpt lat="42.5555070" lon="-8.6314370">
        <ele>32.2</ele>
        <time>2021-05-22T10:56:39Z</time>
      </trkpt>
      <trkpt lat="42.5555100" lon="-8.6314320">
        <ele>32.2</ele>
        <time>2021-05-22T10:56:40Z</time>
      </trkpt>
      <trkpt lat="42.5555110" lon="-8.6314300">
        <ele>32.2</ele>
        <time>2021-05-22T10:56:41Z</time>
      </trkpt>
      <trkpt lat="42.5555040" lon="-8.6314290">
        <ele>32.2</ele>
        <time>2021-05-22T10:56:42Z</time>
      </trkpt>
      <trkpt lat="42.5555030" lon="-8.6314310">
        <ele>32.2</ele>
        <time>2021-05-22T10:56:43Z</time>
      </trkpt>
      <trkpt lat="42.5555070" lon="-8.6314340">
        <ele>32.2</ele>
        <time>2021-05-22T10:56:44Z</time>
      </trkpt>
      <trkpt lat="42.5555110" lon="-8.6314370">
        <ele>32.2</ele>
        <time>2021-05-22T10:56:45Z</time>
      </trkpt>
      <trkpt lat="42.5555100" lon="-8.6314360">
        <ele>32.2</ele>
        <time>2021-05-22T10:56:46Z</time>
      </trkpt>
      <trkpt lat="42.5555060" lon="-8.6314390">
        <ele>32.2</ele>
        <time>2021-05-22T10:56:47Z</time>
      </trkpt>
      <trkpt lat="42.5555050" lon="-8.6314450">
        <ele>32.2</ele>
        <time>2021-05-22T10:56:48Z</time>
      </trkpt>
      <trkpt lat="42.5554960" lon="-8.6314590">
        <ele>32.2</ele>
        <time>2021-05-22T10:56:49Z</time>
      </trkpt>
      <trkpt lat="42.5555010" lon="-8.6314480">
        <ele>32.2</ele>
        <time>2021-05-22T10:56:50Z</time>
      </trkpt>
      <trkpt lat="42.5554960" lon="-8.6314480">
        <ele>32.2</ele>
        <time>2021-05-22T10:56:51Z</time>
      </trkpt>
      <trkpt lat="42.5555010" lon="-8.6314450">
        <ele>32.2</ele>
        <time>2021-05-22T10:56:52Z</time>
      </trkpt>
      <trkpt lat="42.5555000" lon="-8.6314470">
        <ele>32.2</ele>
        <time>2021-05-22T10:56:53Z</time>
      </trkpt>
      <trkpt lat="42.5554970" lon="-8.6314550">
        <ele>32.2</ele>
        <time>2021-05-22T10:56:54Z</time>
      </trkpt>
      <trkpt lat="42.5554940" lon="-8.6314570">
        <ele>32.2</ele>
        <time>2021-05-22T10:56:55Z</time>
      </trkpt>
      <trkpt lat="42.5554940" lon="-8.6314590">
        <ele>32.2</ele>
        <time>2021-05-22T10:56:56Z</time>
      </trkpt>
      <trkpt lat="42.5554930" lon="-8.6314580">
        <ele>32.2</ele>
        <time>2021-05-22T10:56:57Z</time>
      </trkpt>
      <trkpt lat="42.5554930" lon="-8.6314630">
        <ele>32.2</ele>
        <time>2021-05-22T10:56:58Z</time>
      </trkpt>
      <trkpt lat="42.5554970" lon="-8.6314680">
        <ele>32.2</ele>
        <time>2021-05-22T10:56:59Z</time>
      </trkpt>
      <trkpt lat="42.5555020" lon="-8.6314690">
        <ele>32.2</ele>
        <time>2021-05-22T10:57:00Z</time>
      </trkpt>
      <trkpt lat="42.5555020" lon="-8.6314700">
        <ele>32.2</ele>
        <time>2021-05-22T10:57:01Z</time>
      </trkpt>
      <trkpt lat="42.5555020" lon="-8.6314700">
        <ele>32.2</ele>
        <time>2021-05-22T10:57:02Z</time>
      </trkpt>
      <trkpt lat="42.5555010" lon="-8.6314720">
        <ele>32.2</ele>
        <time>2021-05-22T10:57:03Z</time>
      </trkpt>
      <trkpt lat="42.5555010" lon="-8.6314700">
        <ele>32.2</ele>
        <time>2021-05-22T10:57:04Z</time>
      </trkpt>
      <trkpt lat="42.5554990" lon="-8.6314700">
        <ele>32.3</ele>
        <time>2021-05-22T10:57:05Z</time>
      </trkpt>
      <trkpt lat="42.5554990" lon="-8.6314680">
        <ele>32.3</ele>
        <time>2021-05-22T10:57:06Z</time>
      </trkpt>
      <trkpt lat="42.5555120" lon="-8.6314680">
        <ele>32.3</ele>
        <time>2021-05-22T10:57:07Z</time>
      </trkpt>
      <trkpt lat="42.5555110" lon="-8.6314700">
        <ele>32.3</ele>
        <time>2021-05-22T10:57:08Z</time>
      </trkpt>
      <trkpt lat="42.5555130" lon="-8.6314700">
        <ele>32.3</ele>
        <time>2021-05-22T10:57:09Z</time>
      </trkpt>
      <trkpt lat="42.5555140" lon="-8.6314720">
        <ele>32.3</ele>
        <time>2021-05-22T10:57:10Z</time>
      </trkpt>
      <trkpt lat="42.5555160" lon="-8.6314730">
        <ele>32.3</ele>
        <time>2021-05-22T10:57:11Z</time>
      </trkpt>
      <trkpt lat="42.5555240" lon="-8.6314740">
        <ele>32.3</ele>
        <time>2021-05-22T10:57:12Z</time>
      </trkpt>
      <trkpt lat="42.5555250" lon="-8.6314780">
        <ele>32.3</ele>
        <time>2021-05-22T10:57:13Z</time>
      </trkpt>
      <trkpt lat="42.5555220" lon="-8.6314830">
        <ele>32.3</ele>
        <time>2021-05-22T10:57:14Z</time>
      </trkpt>
      <trkpt lat="42.5555210" lon="-8.6314870">
        <ele>32.3</ele>
        <time>2021-05-22T10:57:15Z</time>
      </trkpt>
      <trkpt lat="42.5555230" lon="-8.6314890">
        <ele>32.3</ele>
        <time>2021-05-22T10:57:16Z</time>
      </trkpt>
      <trkpt lat="42.5555180" lon="-8.6314920">
        <ele>32.3</ele>
        <time>2021-05-22T10:57:17Z</time>
      </trkpt>
      <trkpt lat="42.5555120" lon="-8.6314950">
        <ele>32.3</ele>
        <time>2021-05-22T10:57:18Z</time>
      </trkpt>
      <trkpt lat="42.5555090" lon="-8.6314950">
        <ele>32.3</ele>
        <time>2021-05-22T10:57:19Z</time>
      </trkpt>
      <trkpt lat="42.5555030" lon="-8.6315040">
        <ele>32.3</ele>
        <time>2021-05-22T10:57:20Z</time>
      </trkpt>
      <trkpt lat="42.5555020" lon="-8.6315030">
        <ele>32.3</ele>
        <time>2021-05-22T10:57:21Z</time>
      </trkpt>
      <trkpt lat="42.5554960" lon="-8.6315130">
        <ele>32.3</ele>
        <time>2021-05-22T10:57:22Z</time>
      </trkpt>
      <trkpt lat="42.5554980" lon="-8.6315160">
        <ele>32.3</ele>
        <time>2021-05-22T10:57:23Z</time>
      </trkpt>
      <trkpt lat="42.5554940" lon="-8.6315310">
        <ele>32.3</ele>
        <time>2021-05-22T10:57:24Z</time>
      </trkpt>
      <trkpt lat="42.5554870" lon="-8.6315480">
        <ele>32.3</ele>
        <time>2021-05-22T10:57:25Z</time>
      </trkpt>
      <trkpt lat="42.5554830" lon="-8.6315500">
        <ele>32.3</ele>
        <time>2021-05-22T10:57:26Z</time>
      </trkpt>
      <trkpt lat="42.5554790" lon="-8.6315470">
        <ele>32.3</ele>
        <time>2021-05-22T10:57:27Z</time>
      </trkpt>
      <trkpt lat="42.5554710" lon="-8.6315450">
        <ele>32.3</ele>
        <time>2021-05-22T10:57:28Z</time>
      </trkpt>
      <trkpt lat="42.5554600" lon="-8.6315450">
        <ele>32.3</ele>
        <time>2021-05-22T10:57:29Z</time>
      </trkpt>
      <trkpt lat="42.5554450" lon="-8.6315470">
        <ele>32.3</ele>
        <time>2021-05-22T10:57:30Z</time>
      </trkpt>
      <trkpt lat="42.5554330" lon="-8.6315460">
        <ele>32.3</ele>
        <time>2021-05-22T10:57:31Z</time>
      </trkpt>
      <trkpt lat="42.5554080" lon="-8.6315490">
        <ele>32.3</ele>
        <time>2021-05-22T10:57:32Z</time>
      </trkpt>
      <trkpt lat="42.5553930" lon="-8.6315580">
        <ele>32.5</ele>
        <time>2021-05-22T10:57:33Z</time>
      </trkpt>
      <trkpt lat="42.5553850" lon="-8.6315690">
        <ele>32.5</ele>
        <time>2021-05-22T10:57:34Z</time>
      </trkpt>
      <trkpt lat="42.5553900" lon="-8.6315570">
        <ele>32.6</ele>
        <time>2021-05-22T10:57:35Z</time>
      </trkpt>
      <trkpt lat="42.5553820" lon="-8.6315480">
        <ele>32.6</ele>
        <time>2021-05-22T10:57:36Z</time>
      </trkpt>
      <trkpt lat="42.5553790" lon="-8.6315440">
        <ele>32.6</ele>
        <time>2021-05-22T10:57:37Z</time>
      </trkpt>
      <trkpt lat="42.5553790" lon="-8.6315390">
        <ele>32.6</ele>
        <time>2021-05-22T10:57:38Z</time>
      </trkpt>
      <trkpt lat="42.5553730" lon="-8.6315330">
        <ele>32.6</ele>
        <time>2021-05-22T10:57:39Z</time>
      </trkpt>
      <trkpt lat="42.5553680" lon="-8.6315420">
        <ele>32.6</ele>
        <time>2021-05-22T10:57:40Z</time>
      </trkpt>
      <trkpt lat="42.5553620" lon="-8.6315460">
        <ele>32.6</ele>
        <time>2021-05-22T10:57:41Z</time>
      </trkpt>
      <trkpt lat="42.5553550" lon="-8.6315510">
        <ele>32.6</ele>
        <time>2021-05-22T10:57:42Z</time>
      </trkpt>
      <trkpt lat="42.5553490" lon="-8.6315550">
        <ele>32.6</ele>
        <time>2021-05-22T10:57:43Z</time>
      </trkpt>
      <trkpt lat="42.5553420" lon="-8.6315590">
        <ele>32.6</ele>
        <time>2021-05-22T10:57:44Z</time>
      </trkpt>
      <trkpt lat="42.5553330" lon="-8.6315670">
        <ele>32.6</ele>
        <time>2021-05-22T10:57:45Z</time>
      </trkpt>
      <trkpt lat="42.5553300" lon="-8.6315620">
        <ele>32.6</ele>
        <time>2021-05-22T10:57:46Z</time>
      </trkpt>
      <trkpt lat="42.5553270" lon="-8.6315580">
        <ele>32.6</ele>
        <time>2021-05-22T10:57:47Z</time>
      </trkpt>
      <trkpt lat="42.5553230" lon="-8.6315530">
        <ele>32.6</ele>
        <time>2021-05-22T10:57:48Z</time>
      </trkpt>
      <trkpt lat="42.5553200" lon="-8.6315490">
        <ele>32.6</ele>
        <time>2021-05-22T10:57:49Z</time>
      </trkpt>
      <trkpt lat="42.5553170" lon="-8.6315440">
        <ele>32.6</ele>
        <time>2021-05-22T10:57:50Z</time>
      </trkpt>
      <trkpt lat="42.5553140" lon="-8.6315400">
        <ele>32.6</ele>
        <time>2021-05-22T10:57:51Z</time>
      </trkpt>
      <trkpt lat="42.5553110" lon="-8.6315360">
        <ele>32.6</ele>
        <time>2021-05-22T10:57:52Z</time>
      </trkpt>
      <trkpt lat="42.5553080" lon="-8.6315310">
        <ele>32.6</ele>
        <time>2021-05-22T10:57:53Z</time>
      </trkpt>
      <trkpt lat="42.5553050" lon="-8.6315270">
        <ele>32.6</ele>
        <time>2021-05-22T10:57:54Z</time>
      </trkpt>
      <trkpt lat="42.5553010" lon="-8.6315220">
        <ele>32.6</ele>
        <time>2021-05-22T10:57:55Z</time>
      </trkpt>
      <trkpt lat="42.5552980" lon="-8.6315180">
        <ele>32.6</ele>
        <time>2021-05-22T10:57:56Z</time>
      </trkpt>
      <trkpt lat="42.5552950" lon="-8.6315130">
        <ele>32.6</ele>
        <time>2021-05-22T10:57:57Z</time>
      </trkpt>
      <trkpt lat="42.5552920" lon="-8.6315090">
        <ele>32.6</ele>
        <time>2021-05-22T10:57:58Z</time>
      </trkpt>
      <trkpt lat="42.5552890" lon="-8.6315050">
        <ele>32.7</ele>
        <time>2021-05-22T10:57:59Z</time>
      </trkpt>
      <trkpt lat="42.5552860" lon="-8.6315000">
        <ele>32.7</ele>
        <time>2021-05-22T10:58:00Z</time>
      </trkpt>
      <trkpt lat="42.5552830" lon="-8.6314960">
        <ele>32.7</ele>
        <time>2021-05-22T10:58:01Z</time>
      </trkpt>
      <trkpt lat="42.5552790" lon="-8.6314910">
        <ele>32.7</ele>
        <time>2021-05-22T10:58:02Z</time>
      </trkpt>
      <trkpt lat="42.5552760" lon="-8.6314870">
        <ele>32.7</ele>
        <time>2021-05-22T10:58:03Z</time>
      </trkpt>
      <trkpt lat="42.5552730" lon="-8.6314820">
        <ele>32.7</ele>
        <time>2021-05-22T10:58:04Z</time>
      </trkpt>
      <trkpt lat="42.5552700" lon="-8.6314780">
        <ele>32.7</ele>
        <time>2021-05-22T10:58:05Z</time>
      </trkpt>
      <trkpt lat="42.5552630" lon="-8.6314750">
        <ele>32.7</ele>
        <time>2021-05-22T10:58:06Z</time>
      </trkpt>
      <trkpt lat="42.5552540" lon="-8.6314780">
        <ele>32.7</ele>
        <time>2021-05-22T10:58:07Z</time>
      </trkpt>
      <trkpt lat="42.5552530" lon="-8.6314770">
        <ele>32.7</ele>
        <time>2021-05-22T10:58:08Z</time>
      </trkpt>
      <trkpt lat="42.5552520" lon="-8.6314860">
        <ele>32.7</ele>
        <time>2021-05-22T10:58:09Z</time>
      </trkpt>
      <trkpt lat="42.5552610" lon="-8.6314820">
        <ele>32.7</ele>
        <time>2021-05-22T10:58:10Z</time>
      </trkpt>
      <trkpt lat="42.5552690" lon="-8.6314900">
        <ele>32.7</ele>
        <time>2021-05-22T10:58:11Z</time>
      </trkpt>
      <trkpt lat="42.5552730" lon="-8.6314990">
        <ele>32.7</ele>
        <time>2021-05-22T10:58:12Z</time>
      </trkpt>
      <trkpt lat="42.5552600" lon="-8.6314920">
        <ele>32.8</ele>
        <time>2021-05-22T10:58:13Z</time>
      </trkpt>
      <trkpt lat="42.5552720" lon="-8.6314950">
        <ele>32.8</ele>
        <time>2021-05-22T10:58:14Z</time>
      </trkpt>
      <trkpt lat="42.5552680" lon="-8.6315000">
        <ele>32.8</ele>
        <time>2021-05-22T10:58:15Z</time>
      </trkpt>
      <trkpt lat="42.5552680" lon="-8.6314960">
        <ele>32.8</ele>
        <time>2021-05-22T10:58:16Z</time>
      </trkpt>
      <trkpt lat="42.5552710" lon="-8.6314950">
        <ele>32.8</ele>
        <time>2021-05-22T10:58:17Z</time>
      </trkpt>
      <trkpt lat="42.5552740" lon="-8.6314850">
        <ele>32.8</ele>
        <time>2021-05-22T10:58:18Z</time>
      </trkpt>
      <trkpt lat="42.5552620" lon="-8.6314780">
        <ele>32.8</ele>
        <time>2021-05-22T10:58:19Z</time>
      </trkpt>
      <trkpt lat="42.5552520" lon="-8.6314780">
        <ele>32.8</ele>
        <time>2021-05-22T10:58:20Z</time>
      </trkpt>
      <trkpt lat="42.5552480" lon="-8.6314790">
        <ele>32.8</ele>
        <time>2021-05-22T10:58:21Z</time>
      </trkpt>
      <trkpt lat="42.5552490" lon="-8.6314840">
        <ele>32.8</ele>
        <time>2021-05-22T10:58:22Z</time>
      </trkpt>
      <trkpt lat="42.5552460" lon="-8.6315030">
        <ele>32.9</ele>
        <time>2021-05-22T10:58:23Z</time>
      </trkpt>
      <trkpt lat="42.5552450" lon="-8.6315310">
        <ele>32.9</ele>
        <time>2021-05-22T10:58:24Z</time>
      </trkpt>
      <trkpt lat="42.5552450" lon="-8.6315400">
        <ele>32.9</ele>
        <time>2021-05-22T10:58:25Z</time>
      </trkpt>
      <trkpt lat="42.5552440" lon="-8.6315480">
        <ele>32.9</ele>
        <time>2021-05-22T10:58:26Z</time>
      </trkpt>
      <trkpt lat="42.5552430" lon="-8.6315570">
        <ele>32.9</ele>
        <time>2021-05-22T10:58:27Z</time>
      </trkpt>
      <trkpt lat="42.5552460" lon="-8.6315720">
        <ele>32.9</ele>
        <time>2021-05-22T10:58:28Z</time>
      </trkpt>
      <trkpt lat="42.5552490" lon="-8.6315740">
        <ele>32.9</ele>
        <time>2021-05-22T10:58:29Z</time>
      </trkpt>
      <trkpt lat="42.5552560" lon="-8.6315790">
        <ele>33.0</ele>
        <time>2021-05-22T10:58:30Z</time>
      </trkpt>
      <trkpt lat="42.5552570" lon="-8.6315860">
        <ele>33.0</ele>
        <time>2021-05-22T10:58:31Z</time>
      </trkpt>
      <trkpt lat="42.5552540" lon="-8.6315920">
        <ele>33.0</ele>
        <time>2021-05-22T10:58:32Z</time>
      </trkpt>
      <trkpt lat="42.5552580" lon="-8.6316110">
        <ele>33.0</ele>
        <time>2021-05-22T10:58:33Z</time>
      </trkpt>
      <trkpt lat="42.5552600" lon="-8.6316260">
        <ele>33.0</ele>
        <time>2021-05-22T10:58:34Z</time>
      </trkpt>
      <trkpt lat="42.5552640" lon="-8.6316350">
        <ele>33.0</ele>
        <time>2021-05-22T10:58:35Z</time>
      </trkpt>
      <trkpt lat="42.5552600" lon="-8.6316470">
        <ele>33.0</ele>
        <time>2021-05-22T10:58:36Z</time>
      </trkpt>
      <trkpt lat="42.5552570" lon="-8.6316540">
        <ele>33.0</ele>
        <time>2021-05-22T10:58:37Z</time>
      </trkpt>
      <trkpt lat="42.5552610" lon="-8.6316720">
        <ele>33.1</ele>
        <time>2021-05-22T10:58:38Z</time>
      </trkpt>
      <trkpt lat="42.5552650" lon="-8.6316840">
        <ele>33.1</ele>
        <time>2021-05-22T10:58:39Z</time>
      </trkpt>
      <trkpt lat="42.5552700" lon="-8.6316900">
        <ele>33.1</ele>
        <time>2021-05-22T10:58:40Z</time>
      </trkpt>
      <trkpt lat="42.5552720" lon="-8.6317060">
        <ele>33.1</ele>
        <time>2021-05-22T10:58:41Z</time>
      </trkpt>
      <trkpt lat="42.5552590" lon="-8.6317130">
        <ele>33.2</ele>
        <time>2021-05-22T10:58:42Z</time>
      </trkpt>
      <trkpt lat="42.5552490" lon="-8.6317200">
        <ele>33.2</ele>
        <time>2021-05-22T10:58:43Z</time>
      </trkpt>
      <trkpt lat="42.5552420" lon="-8.6317280">
        <ele>33.2</ele>
        <time>2021-05-22T10:58:44Z</time>
      </trkpt>
      <trkpt lat="42.5552370" lon="-8.6317430">
        <ele>33.2</ele>
        <time>2021-05-22T10:58:45Z</time>
      </trkpt>
      <trkpt lat="42.5552240" lon="-8.6317500">
        <ele>33.2</ele>
        <time>2021-05-22T10:58:46Z</time>
      </trkpt>
      <trkpt lat="42.5552250" lon="-8.6317690">
        <ele>33.3</ele>
        <time>2021-05-22T10:58:47Z</time>
      </trkpt>
      <trkpt lat="42.5552180" lon="-8.6317830">
        <ele>33.3</ele>
        <time>2021-05-22T10:58:48Z</time>
      </trkpt>
      <trkpt lat="42.5552100" lon="-8.6317990">
        <ele>33.3</ele>
        <time>2021-05-22T10:58:49Z</time>
      </trkpt>
      <trkpt lat="42.5552010" lon="-8.6318220">
        <ele>33.4</ele>
        <time>2021-05-22T10:58:50Z</time>
      </trkpt>
      <trkpt lat="42.5551950" lon="-8.6318350">
        <ele>33.4</ele>
        <time>2021-05-22T10:58:51Z</time>
      </trkpt>
      <trkpt lat="42.5551930" lon="-8.6318460">
        <ele>33.4</ele>
        <time>2021-05-22T10:58:52Z</time>
      </trkpt>
      <trkpt lat="42.5551920" lon="-8.6318570">
        <ele>33.4</ele>
        <time>2021-05-22T10:58:53Z</time>
      </trkpt>
      <trkpt lat="42.5551920" lon="-8.6318590">
        <ele>33.4</ele>
        <time>2021-05-22T10:58:54Z</time>
      </trkpt>
      <trkpt lat="42.5551920" lon="-8.6318590">
        <ele>33.4</ele>
        <time>2021-05-22T10:58:55Z</time>
      </trkpt>
      <trkpt lat="42.5551970" lon="-8.6318600">
        <ele>33.5</ele>
        <time>2021-05-22T10:58:56Z</time>
      </trkpt>
      <trkpt lat="42.5552100" lon="-8.6318620">
        <ele>33.5</ele>
        <time>2021-05-22T10:58:57Z</time>
      </trkpt>
      <trkpt lat="42.5552150" lon="-8.6318280">
        <ele>33.5</ele>
        <time>2021-05-22T10:58:58Z</time>
      </trkpt>
      <trkpt lat="42.5552170" lon="-8.6318160">
        <ele>33.6</ele>
        <time>2021-05-22T10:58:59Z</time>
      </trkpt>
      <trkpt lat="42.5552060" lon="-8.6317990">
        <ele>33.6</ele>
        <time>2021-05-22T10:59:00Z</time>
      </trkpt>
      <trkpt lat="42.5552060" lon="-8.6317910">
        <ele>33.6</ele>
        <time>2021-05-22T10:59:01Z</time>
      </trkpt>
      <trkpt lat="42.5551960" lon="-8.6317920">
        <ele>33.7</ele>
        <time>2021-05-22T10:59:02Z</time>
      </trkpt>
      <trkpt lat="42.5551830" lon="-8.6317970">
        <ele>33.7</ele>
        <time>2021-05-22T10:59:03Z</time>
      </trkpt>
      <trkpt lat="42.5551780" lon="-8.6317980">
        <ele>33.7</ele>
        <time>2021-05-22T10:59:04Z</time>
      </trkpt>
      <trkpt lat="42.5551750" lon="-8.6318230">
        <ele>33.8</ele>
        <time>2021-05-22T10:59:05Z</time>
      </trkpt>
      <trkpt lat="42.5551800" lon="-8.6318350">
        <ele>33.8</ele>
        <time>2021-05-22T10:59:07Z</time>
      </trkpt>
      <trkpt lat="42.5551790" lon="-8.6318390">
        <ele>33.8</ele>
        <time>2021-05-22T10:59:08Z</time>
      </trkpt>
      <trkpt lat="42.5551810" lon="-8.6318400">
        <ele>33.8</ele>
        <time>2021-05-22T10:59:09Z</time>
      </trkpt>
      <trkpt lat="42.5551810" lon="-8.6318460">
        <ele>33.8</ele>
        <time>2021-05-22T10:59:10Z</time>
      </trkpt>
      <trkpt lat="42.5551810" lon="-8.6318470">
        <ele>33.8</ele>
        <time>2021-05-22T10:59:11Z</time>
      </trkpt>
      <trkpt lat="42.5551810" lon="-8.6318470">
        <ele>33.8</ele>
        <time>2021-05-22T10:59:12Z</time>
      </trkpt>
      <trkpt lat="42.5551800" lon="-8.6318480">
        <ele>33.8</ele>
        <time>2021-05-22T10:59:13Z</time>
      </trkpt>
      <trkpt lat="42.5551810" lon="-8.6318490">
        <ele>33.8</ele>
        <time>2021-05-22T10:59:14Z</time>
      </trkpt>
      <trkpt lat="42.5551780" lon="-8.6318540">
        <ele>33.8</ele>
        <time>2021-05-22T10:59:15Z</time>
      </trkpt>
      <trkpt lat="42.5551870" lon="-8.6318560">
        <ele>33.9</ele>
        <time>2021-05-22T10:59:16Z</time>
      </trkpt>
      <trkpt lat="42.5551960" lon="-8.6318610">
        <ele>33.9</ele>
        <time>2021-05-22T10:59:17Z</time>
      </trkpt>
      <trkpt lat="42.5551960" lon="-8.6318680">
        <ele>33.9</ele>
        <time>2021-05-22T10:59:18Z</time>
      </trkpt>
      <trkpt lat="42.5551970" lon="-8.6318670">
        <ele>33.9</ele>
        <time>2021-05-22T10:59:19Z</time>
      </trkpt>
      <trkpt lat="42.5551990" lon="-8.6318710">
        <ele>33.9</ele>
        <time>2021-05-22T10:59:20Z</time>
      </trkpt>
      <trkpt lat="42.5552060" lon="-8.6318730">
        <ele>33.9</ele>
        <time>2021-05-22T10:59:21Z</time>
      </trkpt>
      <trkpt lat="42.5552080" lon="-8.6318690">
        <ele>33.9</ele>
        <time>2021-05-22T10:59:22Z</time>
      </trkpt>
      <trkpt lat="42.5552100" lon="-8.6318690">
        <ele>34.0</ele>
        <time>2021-05-22T10:59:23Z</time>
      </trkpt>
      <trkpt lat="42.5552140" lon="-8.6318690">
        <ele>34.0</ele>
        <time>2021-05-22T10:59:24Z</time>
      </trkpt>
      <trkpt lat="42.5552210" lon="-8.6318700">
        <ele>34.0</ele>
        <time>2021-05-22T10:59:25Z</time>
      </trkpt>
      <trkpt lat="42.5552270" lon="-8.6318750">
        <ele>34.0</ele>
        <time>2021-05-22T10:59:26Z</time>
      </trkpt>
      <trkpt lat="42.5552190" lon="-8.6318800">
        <ele>34.0</ele>
        <time>2021-05-22T10:59:27Z</time>
      </trkpt>
      <trkpt lat="42.5552030" lon="-8.6318910">
        <ele>34.1</ele>
        <time>2021-05-22T10:59:28Z</time>
      </trkpt>
      <trkpt lat="42.5551990" lon="-8.6319060">
        <ele>34.1</ele>
        <time>2021-05-22T10:59:29Z</time>
      </trkpt>
      <trkpt lat="42.5551980" lon="-8.6319050">
        <ele>34.1</ele>
        <time>2021-05-22T10:59:30Z</time>
      </trkpt>
      <trkpt lat="42.5551970" lon="-8.6319120">
        <ele>34.1</ele>
        <time>2021-05-22T10:59:31Z</time>
      </trkpt>
      <trkpt lat="42.5551870" lon="-8.6319320">
        <ele>34.2</ele>
        <time>2021-05-22T10:59:32Z</time>
      </trkpt>
      <trkpt lat="42.5551920" lon="-8.6319330">
        <ele>34.2</ele>
        <time>2021-05-22T10:59:33Z</time>
      </trkpt>
      <trkpt lat="42.5551810" lon="-8.6319350">
        <ele>34.2</ele>
        <time>2021-05-22T10:59:34Z</time>
      </trkpt>
      <trkpt lat="42.5551740" lon="-8.6319460">
        <ele>34.3</ele>
        <time>2021-05-22T10:59:35Z</time>
      </trkpt>
      <trkpt lat="42.5551660" lon="-8.6319600">
        <ele>34.3</ele>
        <time>2021-05-22T10:59:36Z</time>
      </trkpt>
      <trkpt lat="42.5551520" lon="-8.6319770">
        <ele>34.4</ele>
        <time>2021-05-22T10:59:37Z</time>
      </trkpt>
      <trkpt lat="42.5551440" lon="-8.6319860">
        <ele>34.4</ele>
        <time>2021-05-22T10:59:38Z</time>
      </trkpt>
      <trkpt lat="42.5551360" lon="-8.6319960">
        <ele>34.4</ele>
        <time>2021-05-22T10:59:39Z</time>
      </trkpt>
      <trkpt lat="42.5551230" lon="-8.6320120">
        <ele>34.5</ele>
        <time>2021-05-22T10:59:40Z</time>
      </trkpt>
      <trkpt lat="42.5551130" lon="-8.6320160">
        <ele>34.6</ele>
        <time>2021-05-22T10:59:41Z</time>
      </trkpt>
      <trkpt lat="42.5551020" lon="-8.6320320">
        <ele>34.8</ele>
        <time>2021-05-22T10:59:42Z</time>
      </trkpt>
      <trkpt lat="42.5550960" lon="-8.6320400">
        <ele>34.8</ele>
        <time>2021-05-22T10:59:43Z</time>
      </trkpt>
      <trkpt lat="42.5550900" lon="-8.6320490">
        <ele>34.9</ele>
        <time>2021-05-22T10:59:44Z</time>
      </trkpt>
      <trkpt lat="42.5550840" lon="-8.6320570">
        <ele>35.0</ele>
        <time>2021-05-22T10:59:45Z</time>
      </trkpt>
      <trkpt lat="42.5550720" lon="-8.6320780">
        <ele>35.1</ele>
        <time>2021-05-22T10:59:46Z</time>
      </trkpt>
      <trkpt lat="42.5550650" lon="-8.6320900">
        <ele>35.2</ele>
        <time>2021-05-22T10:59:47Z</time>
      </trkpt>
      <trkpt lat="42.5550580" lon="-8.6321010">
        <ele>35.3</ele>
        <time>2021-05-22T10:59:48Z</time>
      </trkpt>
      <trkpt lat="42.5550500" lon="-8.6321190">
        <ele>35.4</ele>
        <time>2021-05-22T10:59:49Z</time>
      </trkpt>
      <trkpt lat="42.5550500" lon="-8.6321280">
        <ele>35.5</ele>
        <time>2021-05-22T10:59:50Z</time>
      </trkpt>
      <trkpt lat="42.5550410" lon="-8.6321420">
        <ele>35.6</ele>
        <time>2021-05-22T10:59:51Z</time>
      </trkpt>
      <trkpt lat="42.5550310" lon="-8.6321500">
        <ele>35.7</ele>
        <time>2021-05-22T10:59:52Z</time>
      </trkpt>
      <trkpt lat="42.5550280" lon="-8.6321560">
        <ele>35.8</ele>
        <time>2021-05-22T10:59:53Z</time>
      </trkpt>
      <trkpt lat="42.5550190" lon="-8.6321660">
        <ele>35.8</ele>
        <time>2021-05-22T10:59:54Z</time>
      </trkpt>
      <trkpt lat="42.5550050" lon="-8.6321880">
        <ele>36.0</ele>
        <time>2021-05-22T10:59:55Z</time>
      </trkpt>
      <trkpt lat="42.5549980" lon="-8.6321960">
        <ele>36.1</ele>
        <time>2021-05-22T10:59:56Z</time>
      </trkpt>
      <trkpt lat="42.5549910" lon="-8.6322040">
        <ele>36.2</ele>
        <time>2021-05-22T10:59:57Z</time>
      </trkpt>
      <trkpt lat="42.5549850" lon="-8.6322260">
        <ele>36.2</ele>
        <time>2021-05-22T10:59:58Z</time>
      </trkpt>
      <trkpt lat="42.5549780" lon="-8.6322380">
        <ele>36.2</ele>
        <time>2021-05-22T10:59:59Z</time>
      </trkpt>
      <trkpt lat="42.5549720" lon="-8.6322500">
        <ele>36.2</ele>
        <time>2021-05-22T11:00:00Z</time>
      </trkpt>
      <trkpt lat="42.5549710" lon="-8.6322620">
        <ele>36.3</ele>
        <time>2021-05-22T11:00:01Z</time>
      </trkpt>
      <trkpt lat="42.5549600" lon="-8.6322770">
        <ele>36.3</ele>
        <time>2021-05-22T11:00:02Z</time>
      </trkpt>
      <trkpt lat="42.5549550" lon="-8.6322850">
        <ele>36.3</ele>
        <time>2021-05-22T11:00:03Z</time>
      </trkpt>
      <trkpt lat="42.5549460" lon="-8.6322970">
        <ele>36.6</ele>
        <time>2021-05-22T11:00:04Z</time>
      </trkpt>
      <trkpt lat="42.5549360" lon="-8.6323190">
        <ele>36.7</ele>
        <time>2021-05-22T11:00:05Z</time>
      </trkpt>
      <trkpt lat="42.5549330" lon="-8.6323340">
        <ele>36.7</ele>
        <time>2021-05-22T11:00:06Z</time>
      </trkpt>
      <trkpt lat="42.5549230" lon="-8.6323540">
        <ele>36.8</ele>
        <time>2021-05-22T11:00:07Z</time>
      </trkpt>
      <trkpt lat="42.5549030" lon="-8.6323880">
        <ele>36.9</ele>
        <time>2021-05-22T11:00:08Z</time>
      </trkpt>
      <trkpt lat="42.5548910" lon="-8.6324250">
        <ele>36.9</ele>
        <time>2021-05-22T11:00:09Z</time>
      </trkpt>
      <trkpt lat="42.5548810" lon="-8.6324450">
        <ele>37.0</ele>
        <time>2021-05-22T11:00:10Z</time>
      </trkpt>
      <trkpt lat="42.5548760" lon="-8.6324630">
        <ele>37.0</ele>
        <time>2021-05-22T11:00:11Z</time>
      </trkpt>
      <trkpt lat="42.5548720" lon="-8.6324790">
        <ele>37.0</ele>
        <time>2021-05-22T11:00:12Z</time>
      </trkpt>
      <trkpt lat="42.5548590" lon="-8.6324980">
        <ele>37.0</ele>
        <time>2021-05-22T11:00:13Z</time>
      </trkpt>
      <trkpt lat="42.5548400" lon="-8.6325220">
        <ele>37.1</ele>
        <time>2021-05-22T11:00:14Z</time>
      </trkpt>
      <trkpt lat="42.5548310" lon="-8.6325350">
        <ele>37.1</ele>
        <time>2021-05-22T11:00:15Z</time>
      </trkpt>
      <trkpt lat="42.5548280" lon="-8.6325800">
        <ele>37.2</ele>
        <time>2021-05-22T11:00:16Z</time>
      </trkpt>
      <trkpt lat="42.5548220" lon="-8.6325940">
        <ele>37.2</ele>
        <time>2021-05-22T11:00:17Z</time>
      </trkpt>
      <trkpt lat="42.5548250" lon="-8.6326210">
        <ele>37.2</ele>
        <time>2021-05-22T11:00:18Z</time>
      </trkpt>
      <trkpt lat="42.5548270" lon="-8.6326340">
        <ele>37.2</ele>
        <time>2021-05-22T11:00:19Z</time>
      </trkpt>
      <trkpt lat="42.5548290" lon="-8.6326460">
        <ele>37.2</ele>
        <time>2021-05-22T11:00:20Z</time>
      </trkpt>
      <trkpt lat="42.5548330" lon="-8.6326710">
        <ele>37.3</ele>
        <time>2021-05-22T11:00:21Z</time>
      </trkpt>
      <trkpt lat="42.5548420" lon="-8.6326800">
        <ele>36.4</ele>
        <time>2021-05-22T11:00:22Z</time>
      </trkpt>
      <trkpt lat="42.5548500" lon="-8.6326880">
        <ele>36.4</ele>
        <time>2021-05-22T11:00:23Z</time>
      </trkpt>
      <trkpt lat="42.5548570" lon="-8.6326970">
        <ele>36.3</ele>
        <time>2021-05-22T11:00:24Z</time>
      </trkpt>
      <trkpt lat="42.5548670" lon="-8.6327060">
        <ele>36.2</ele>
        <time>2021-05-22T11:00:25Z</time>
      </trkpt>
      <trkpt lat="42.5548740" lon="-8.6327250">
        <ele>36.2</ele>
        <time>2021-05-22T11:00:26Z</time>
      </trkpt>
      <trkpt lat="42.5548880" lon="-8.6327460">
        <ele>36.1</ele>
        <time>2021-05-22T11:00:27Z</time>
      </trkpt>
      <trkpt lat="42.5548870" lon="-8.6327620">
        <ele>36.0</ele>
        <time>2021-05-22T11:00:28Z</time>
      </trkpt>
      <trkpt lat="42.5549010" lon="-8.6327660">
        <ele>35.9</ele>
        <time>2021-05-22T11:00:29Z</time>
      </trkpt>
      <trkpt lat="42.5549190" lon="-8.6327780">
        <ele>35.6</ele>
        <time>2021-05-22T11:00:30Z</time>
      </trkpt>
      <trkpt lat="42.5549330" lon="-8.6327940">
        <ele>35.5</ele>
        <time>2021-05-22T11:00:31Z</time>
      </trkpt>
      <trkpt lat="42.5549450" lon="-8.6328040">
        <ele>35.5</ele>
        <time>2021-05-22T11:00:32Z</time>
      </trkpt>
      <trkpt lat="42.5549440" lon="-8.6328200">
        <ele>35.4</ele>
        <time>2021-05-22T11:00:33Z</time>
      </trkpt>
      <trkpt lat="42.5549490" lon="-8.6328320">
        <ele>35.4</ele>
        <time>2021-05-22T11:00:34Z</time>
      </trkpt>
      <trkpt lat="42.5549510" lon="-8.6328460">
        <ele>35.4</ele>
        <time>2021-05-22T11:00:35Z</time>
      </trkpt>
      <trkpt lat="42.5549560" lon="-8.6328540">
        <ele>35.4</ele>
        <time>2021-05-22T11:00:36Z</time>
      </trkpt>
      <trkpt lat="42.5549540" lon="-8.6328730">
        <ele>35.3</ele>
        <time>2021-05-22T11:00:37Z</time>
      </trkpt>
      <trkpt lat="42.5549560" lon="-8.6328860">
        <ele>35.3</ele>
        <time>2021-05-22T11:00:38Z</time>
      </trkpt>
      <trkpt lat="42.5549530" lon="-8.6329160">
        <ele>35.2</ele>
        <time>2021-05-22T11:00:39Z</time>
      </trkpt>
      <trkpt lat="42.5549520" lon="-8.6329280">
        <ele>35.2</ele>
        <time>2021-05-22T11:00:40Z</time>
      </trkpt>
      <trkpt lat="42.5549510" lon="-8.6329390">
        <ele>35.2</ele>
        <time>2021-05-22T11:00:41Z</time>
      </trkpt>
      <trkpt lat="42.5549480" lon="-8.6329550">
        <ele>35.1</ele>
        <time>2021-05-22T11:00:42Z</time>
      </trkpt>
      <trkpt lat="42.5549450" lon="-8.6329640">
        <ele>35.1</ele>
        <time>2021-05-22T11:00:43Z</time>
      </trkpt>
      <trkpt lat="42.5549400" lon="-8.6329770">
        <ele>35.1</ele>
        <time>2021-05-22T11:00:44Z</time>
      </trkpt>
      <trkpt lat="42.5549310" lon="-8.6329920">
        <ele>35.0</ele>
        <time>2021-05-22T11:00:45Z</time>
      </trkpt>
      <trkpt lat="42.5549240" lon="-8.6330060">
        <ele>35.0</ele>
        <time>2021-05-22T11:00:46Z</time>
      </trkpt>
      <trkpt lat="42.5549260" lon="-8.6330200">
        <ele>35.0</ele>
        <time>2021-05-22T11:00:47Z</time>
      </trkpt>
      <trkpt lat="42.5549340" lon="-8.6330360">
        <ele>34.9</ele>
        <time>2021-05-22T11:00:48Z</time>
      </trkpt>
      <trkpt lat="42.5549390" lon="-8.6330570">
        <ele>34.9</ele>
        <time>2021-05-22T11:00:49Z</time>
      </trkpt>
      <trkpt lat="42.5549470" lon="-8.6330870">
        <ele>34.8</ele>
        <time>2021-05-22T11:00:50Z</time>
      </trkpt>
      <trkpt lat="42.5549530" lon="-8.6330960">
        <ele>34.8</ele>
        <time>2021-05-22T11:00:51Z</time>
      </trkpt>
      <trkpt lat="42.5549590" lon="-8.6331050">
        <ele>34.7</ele>
        <time>2021-05-22T11:00:52Z</time>
      </trkpt>
      <trkpt lat="42.5549690" lon="-8.6331090">
        <ele>34.7</ele>
        <time>2021-05-22T11:00:53Z</time>
      </trkpt>
      <trkpt lat="42.5549760" lon="-8.6331140">
        <ele>34.0</ele>
        <time>2021-05-22T11:00:54Z</time>
      </trkpt>
      <trkpt lat="42.5549820" lon="-8.6331260">
        <ele>34.0</ele>
        <time>2021-05-22T11:00:55Z</time>
      </trkpt>
      <trkpt lat="42.5549920" lon="-8.6331400">
        <ele>33.9</ele>
        <time>2021-05-22T11:00:56Z</time>
      </trkpt>
      <trkpt lat="42.5549980" lon="-8.6331550">
        <ele>33.9</ele>
        <time>2021-05-22T11:00:57Z</time>
      </trkpt>
      <trkpt lat="42.5550060" lon="-8.6331690">
        <ele>33.8</ele>
        <time>2021-05-22T11:00:58Z</time>
      </trkpt>
      <trkpt lat="42.5550150" lon="-8.6331780">
        <ele>33.8</ele>
        <time>2021-05-22T11:00:59Z</time>
      </trkpt>
      <trkpt lat="42.5550260" lon="-8.6331800">
        <ele>33.8</ele>
        <time>2021-05-22T11:01:00Z</time>
      </trkpt>
      <trkpt lat="42.5550330" lon="-8.6331920">
        <ele>33.7</ele>
        <time>2021-05-22T11:01:01Z</time>
      </trkpt>
      <trkpt lat="42.5550410" lon="-8.6332110">
        <ele>33.7</ele>
        <time>2021-05-22T11:01:03Z</time>
      </trkpt>
      <trkpt lat="42.5550350" lon="-8.6332160">
        <ele>33.6</ele>
        <time>2021-05-22T11:01:04Z</time>
      </trkpt>
      <trkpt lat="42.5550240" lon="-8.6332100">
        <ele>33.6</ele>
        <time>2021-05-22T11:01:05Z</time>
      </trkpt>
      <trkpt lat="42.5550210" lon="-8.6332130">
        <ele>33.6</ele>
        <time>2021-05-22T11:01:06Z</time>
      </trkpt>
      <trkpt lat="42.5550100" lon="-8.6332230">
        <ele>33.5</ele>
        <time>2021-05-22T11:01:07Z</time>
      </trkpt>
      <trkpt lat="42.5549950" lon="-8.6332390">
        <ele>33.5</ele>
        <time>2021-05-22T11:01:08Z</time>
      </trkpt>
      <trkpt lat="42.5549840" lon="-8.6332440">
        <ele>33.4</ele>
        <time>2021-05-22T11:01:09Z</time>
      </trkpt>
      <trkpt lat="42.5549730" lon="-8.6332480">
        <ele>33.4</ele>
        <time>2021-05-22T11:01:10Z</time>
      </trkpt>
      <trkpt lat="42.5549590" lon="-8.6332600">
        <ele>33.3</ele>
        <time>2021-05-22T11:01:11Z</time>
      </trkpt>
      <trkpt lat="42.5549460" lon="-8.6332660">
        <ele>33.3</ele>
        <time>2021-05-22T11:01:12Z</time>
      </trkpt>
      <trkpt lat="42.5549330" lon="-8.6332740">
        <ele>33.2</ele>
        <time>2021-05-22T11:01:13Z</time>
      </trkpt>
      <trkpt lat="42.5549110" lon="-8.6332880">
        <ele>33.1</ele>
        <time>2021-05-22T11:01:14Z</time>
      </trkpt>
      <trkpt lat="42.5549020" lon="-8.6332900">
        <ele>33.1</ele>
        <time>2021-05-22T11:01:15Z</time>
      </trkpt>
      <trkpt lat="42.5548940" lon="-8.6332930">
        <ele>33.1</ele>
        <time>2021-05-22T11:01:16Z</time>
      </trkpt>
      <trkpt lat="42.5548850" lon="-8.6333180">
        <ele>33.0</ele>
        <time>2021-05-22T11:01:17Z</time>
      </trkpt>
      <trkpt lat="42.5548780" lon="-8.6333280">
        <ele>32.9</ele>
        <time>2021-05-22T11:01:18Z</time>
      </trkpt>
      <trkpt lat="42.5548720" lon="-8.6333380">
        <ele>32.9</ele>
        <time>2021-05-22T11:01:19Z</time>
      </trkpt>
      <trkpt lat="42.5548540" lon="-8.6333560">
        <ele>32.8</ele>
        <time>2021-05-22T11:01:20Z</time>
      </trkpt>
      <trkpt lat="42.5548500" lon="-8.6333690">
        <ele>32.7</ele>
        <time>2021-05-22T11:01:21Z</time>
      </trkpt>
      <trkpt lat="42.5548450" lon="-8.6333810">
        <ele>32.7</ele>
        <time>2021-05-22T11:01:22Z</time>
      </trkpt>
      <trkpt lat="42.5548360" lon="-8.6333980">
        <ele>32.6</ele>
        <time>2021-05-22T11:01:23Z</time>
      </trkpt>
      <trkpt lat="42.5548380" lon="-8.6334190">
        <ele>32.5</ele>
        <time>2021-05-22T11:01:24Z</time>
      </trkpt>
      <trkpt lat="42.5548330" lon="-8.6334370">
        <ele>32.5</ele>
        <time>2021-05-22T11:01:25Z</time>
      </trkpt>
      <trkpt lat="42.5548270" lon="-8.6334530">
        <ele>32.4</ele>
        <time>2021-05-22T11:01:26Z</time>
      </trkpt>
      <trkpt lat="42.5548250" lon="-8.6334550">
        <ele>32.4</ele>
        <time>2021-05-22T11:01:27Z</time>
      </trkpt>
      <trkpt lat="42.5548290" lon="-8.6334630">
        <ele>32.3</ele>
        <time>2021-05-22T11:01:28Z</time>
      </trkpt>
      <trkpt lat="42.5548240" lon="-8.6334820">
        <ele>32.3</ele>
        <time>2021-05-22T11:01:29Z</time>
      </trkpt>
      <trkpt lat="42.5548200" lon="-8.6334960">
        <ele>32.2</ele>
        <time>2021-05-22T11:01:30Z</time>
      </trkpt>
      <trkpt lat="42.5548260" lon="-8.6335040">
        <ele>32.2</ele>
        <time>2021-05-22T11:01:31Z</time>
      </trkpt>
      <trkpt lat="42.5548280" lon="-8.6335160">
        <ele>32.1</ele>
        <time>2021-05-22T11:01:32Z</time>
      </trkpt>
      <trkpt lat="42.5548310" lon="-8.6335320">
        <ele>32.0</ele>
        <time>2021-05-22T11:01:33Z</time>
      </trkpt>
      <trkpt lat="42.5548290" lon="-8.6335440">
        <ele>32.0</ele>
        <time>2021-05-22T11:01:34Z</time>
      </trkpt>
      <trkpt lat="42.5548370" lon="-8.6335510">
        <ele>31.9</ele>
        <time>2021-05-22T11:01:35Z</time>
      </trkpt>
      <trkpt lat="42.5548420" lon="-8.6335560">
        <ele>31.9</ele>
        <time>2021-05-22T11:01:36Z</time>
      </trkpt>
      <trkpt lat="42.5548410" lon="-8.6335620">
        <ele>31.9</ele>
        <time>2021-05-22T11:01:37Z</time>
      </trkpt>
      <trkpt lat="42.5548410" lon="-8.6335770">
        <ele>31.8</ele>
        <time>2021-05-22T11:01:38Z</time>
      </trkpt>
      <trkpt lat="42.5548490" lon="-8.6335900">
        <ele>31.8</ele>
        <time>2021-05-22T11:01:39Z</time>
      </trkpt>
      <trkpt lat="42.5548580" lon="-8.6336060">
        <ele>31.7</ele>
        <time>2021-05-22T11:01:40Z</time>
      </trkpt>
      <trkpt lat="42.5548650" lon="-8.6336250">
        <ele>31.6</ele>
        <time>2021-05-22T11:01:41Z</time>
      </trkpt>
      <trkpt lat="42.5548720" lon="-8.6336440">
        <ele>31.6</ele>
        <time>2021-05-22T11:01:42Z</time>
      </trkpt>
      <trkpt lat="42.5548790" lon="-8.6336550">
        <ele>31.5</ele>
        <time>2021-05-22T11:01:43Z</time>
      </trkpt>
      <trkpt lat="42.5548850" lon="-8.6336660">
        <ele>31.5</ele>
        <time>2021-05-22T11:01:44Z</time>
      </trkpt>
      <trkpt lat="42.5548900" lon="-8.6336830">
        <ele>31.4</ele>
        <time>2021-05-22T11:01:45Z</time>
      </trkpt>
      <trkpt lat="42.5548970" lon="-8.6336960">
        <ele>31.3</ele>
        <time>2021-05-22T11:01:46Z</time>
      </trkpt>
      <trkpt lat="42.5549000" lon="-8.6337080">
        <ele>31.3</ele>
        <time>2021-05-22T11:01:47Z</time>
      </trkpt>
      <trkpt lat="42.5549020" lon="-8.6337200">
        <ele>31.3</ele>
        <time>2021-05-22T11:01:48Z</time>
      </trkpt>
      <trkpt lat="42.5549050" lon="-8.6337320">
        <ele>31.2</ele>
        <time>2021-05-22T11:01:49Z</time>
      </trkpt>
      <trkpt lat="42.5549170" lon="-8.6337550">
        <ele>31.1</ele>
        <time>2021-05-22T11:01:50Z</time>
      </trkpt>
      <trkpt lat="42.5549170" lon="-8.6337620">
        <ele>31.1</ele>
        <time>2021-05-22T11:01:51Z</time>
      </trkpt>
      <trkpt lat="42.5549180" lon="-8.6337700">
        <ele>31.1</ele>
        <time>2021-05-22T11:01:52Z</time>
      </trkpt>
      <trkpt lat="42.5549180" lon="-8.6337780">
        <ele>31.1</ele>
        <time>2021-05-22T11:01:53Z</time>
      </trkpt>
      <trkpt lat="42.5549110" lon="-8.6337830">
        <ele>31.0</ele>
        <time>2021-05-22T11:01:54Z</time>
      </trkpt>
      <trkpt lat="42.5549160" lon="-8.6337970">
        <ele>31.0</ele>
        <time>2021-05-22T11:01:55Z</time>
      </trkpt>
      <trkpt lat="42.5549110" lon="-8.6338150">
        <ele>30.9</ele>
        <time>2021-05-22T11:01:56Z</time>
      </trkpt>
      <trkpt lat="42.5549100" lon="-8.6338360">
        <ele>30.9</ele>
        <time>2021-05-22T11:01:57Z</time>
      </trkpt>
      <trkpt lat="42.5549140" lon="-8.6338520">
        <ele>30.8</ele>
        <time>2021-05-22T11:01:58Z</time>
      </trkpt>
      <trkpt lat="42.5549200" lon="-8.6338550">
        <ele>30.8</ele>
        <time>2021-05-22T11:01:59Z</time>
      </trkpt>
      <trkpt lat="42.5549220" lon="-8.6338680">
        <ele>30.8</ele>
        <time>2021-05-22T11:02:00Z</time>
      </trkpt>
      <trkpt lat="42.5549230" lon="-8.6338860">
        <ele>30.7</ele>
        <time>2021-05-22T11:02:01Z</time>
      </trkpt>
      <trkpt lat="42.5549220" lon="-8.6338970">
        <ele>30.7</ele>
        <time>2021-05-22T11:02:02Z</time>
      </trkpt>
      <trkpt lat="42.5549150" lon="-8.6339070">
        <ele>30.7</ele>
        <time>2021-05-22T11:02:03Z</time>
      </trkpt>
      <trkpt lat="42.5549120" lon="-8.6339240">
        <ele>30.6</ele>
        <time>2021-05-22T11:02:04Z</time>
      </trkpt>
      <trkpt lat="42.5549130" lon="-8.6339400">
        <ele>30.6</ele>
        <time>2021-05-22T11:02:05Z</time>
      </trkpt>
      <trkpt lat="42.5549130" lon="-8.6339480">
        <ele>30.6</ele>
        <time>2021-05-22T11:02:06Z</time>
      </trkpt>
      <trkpt lat="42.5549160" lon="-8.6339630">
        <ele>30.5</ele>
        <time>2021-05-22T11:02:07Z</time>
      </trkpt>
      <trkpt lat="42.5549230" lon="-8.6339800">
        <ele>30.5</ele>
        <time>2021-05-22T11:02:08Z</time>
      </trkpt>
      <trkpt lat="42.5549230" lon="-8.6339940">
        <ele>30.5</ele>
        <time>2021-05-22T11:02:09Z</time>
      </trkpt>
      <trkpt lat="42.5549230" lon="-8.6340100">
        <ele>30.4</ele>
        <time>2021-05-22T11:02:10Z</time>
      </trkpt>
      <trkpt lat="42.5549320" lon="-8.6340260">
        <ele>30.4</ele>
        <time>2021-05-22T11:02:11Z</time>
      </trkpt>
      <trkpt lat="42.5549370" lon="-8.6340440">
        <ele>30.3</ele>
        <time>2021-05-22T11:02:12Z</time>
      </trkpt>
      <trkpt lat="42.5549390" lon="-8.6340680">
        <ele>30.3</ele>
        <time>2021-05-22T11:02:13Z</time>
      </trkpt>
      <trkpt lat="42.5549410" lon="-8.6340900">
        <ele>30.3</ele>
        <time>2021-05-22T11:02:14Z</time>
      </trkpt>
      <trkpt lat="42.5549400" lon="-8.6341010">
        <ele>30.3</ele>
        <time>2021-05-22T11:02:15Z</time>
      </trkpt>
      <trkpt lat="42.5549430" lon="-8.6341130">
        <ele>30.2</ele>
        <time>2021-05-22T11:02:16Z</time>
      </trkpt>
      <trkpt lat="42.5549440" lon="-8.6341280">
        <ele>30.2</ele>
        <time>2021-05-22T11:02:17Z</time>
      </trkpt>
      <trkpt lat="42.5549440" lon="-8.6341550">
        <ele>30.2</ele>
        <time>2021-05-22T11:02:18Z</time>
      </trkpt>
      <trkpt lat="42.5549440" lon="-8.6341670">
        <ele>30.2</ele>
        <time>2021-05-22T11:02:19Z</time>
      </trkpt>
      <trkpt lat="42.5549390" lon="-8.6341780">
        <ele>30.2</ele>
        <time>2021-05-22T11:02:20Z</time>
      </trkpt>
      <trkpt lat="42.5549440" lon="-8.6341830">
        <ele>30.1</ele>
        <time>2021-05-22T11:02:21Z</time>
      </trkpt>
      <trkpt lat="42.5549470" lon="-8.6342000">
        <ele>30.1</ele>
        <time>2021-05-22T11:02:22Z</time>
      </trkpt>
      <trkpt lat="42.5549410" lon="-8.6342130">
        <ele>30.1</ele>
        <time>2021-05-22T11:02:23Z</time>
      </trkpt>
      <trkpt lat="42.5549370" lon="-8.6342190">
        <ele>30.1</ele>
        <time>2021-05-22T11:02:24Z</time>
      </trkpt>
      <trkpt lat="42.5549350" lon="-8.6342280">
        <ele>30.1</ele>
        <time>2021-05-22T11:02:25Z</time>
      </trkpt>
      <trkpt lat="42.5549310" lon="-8.6342300">
        <ele>30.1</ele>
        <time>2021-05-22T11:02:26Z</time>
      </trkpt>
      <trkpt lat="42.5549290" lon="-8.6342390">
        <ele>30.1</ele>
        <time>2021-05-22T11:02:27Z</time>
      </trkpt>
      <trkpt lat="42.5549290" lon="-8.6342520">
        <ele>30.0</ele>
        <time>2021-05-22T11:02:28Z</time>
      </trkpt>
      <trkpt lat="42.5549330" lon="-8.6342570">
        <ele>30.0</ele>
        <time>2021-05-22T11:02:29Z</time>
      </trkpt>
      <trkpt lat="42.5549380" lon="-8.6342680">
        <ele>30.0</ele>
        <time>2021-05-22T11:02:30Z</time>
      </trkpt>
      <trkpt lat="42.5549380" lon="-8.6342810">
        <ele>30.0</ele>
        <time>2021-05-22T11:02:31Z</time>
      </trkpt>
      <trkpt lat="42.5549320" lon="-8.6342920">
        <ele>30.0</ele>
        <time>2021-05-22T11:02:32Z</time>
      </trkpt>
      <trkpt lat="42.5549260" lon="-8.6343070">
        <ele>29.9</ele>
        <time>2021-05-22T11:02:33Z</time>
      </trkpt>
      <trkpt lat="42.5549180" lon="-8.6343370">
        <ele>29.9</ele>
        <time>2021-05-22T11:02:34Z</time>
      </trkpt>
      <trkpt lat="42.5549150" lon="-8.6343470">
        <ele>29.9</ele>
        <time>2021-05-22T11:02:35Z</time>
      </trkpt>
      <trkpt lat="42.5549110" lon="-8.6343580">
        <ele>29.9</ele>
        <time>2021-05-22T11:02:36Z</time>
      </trkpt>
      <trkpt lat="42.5549020" lon="-8.6343820">
        <ele>29.9</ele>
        <time>2021-05-22T11:02:37Z</time>
      </trkpt>
      <trkpt lat="42.5548960" lon="-8.6343940">
        <ele>29.8</ele>
        <time>2021-05-22T11:02:38Z</time>
      </trkpt>
      <trkpt lat="42.5548890" lon="-8.6344050">
        <ele>29.8</ele>
        <time>2021-05-22T11:02:39Z</time>
      </trkpt>
      <trkpt lat="42.5548870" lon="-8.6344170">
        <ele>29.8</ele>
        <time>2021-05-22T11:02:40Z</time>
      </trkpt>
      <trkpt lat="42.5548840" lon="-8.6344380">
        <ele>29.8</ele>
        <time>2021-05-22T11:02:41Z</time>
      </trkpt>
      <trkpt lat="42.5548830" lon="-8.6344500">
        <ele>29.8</ele>
        <time>2021-05-22T11:02:42Z</time>
      </trkpt>
      <trkpt lat="42.5548850" lon="-8.6344560">
        <ele>29.8</ele>
        <time>2021-05-22T11:02:43Z</time>
      </trkpt>
      <trkpt lat="42.5548850" lon="-8.6344710">
        <ele>29.8</ele>
        <time>2021-05-22T11:02:44Z</time>
      </trkpt>
      <trkpt lat="42.5548800" lon="-8.6344860">
        <ele>29.8</ele>
        <time>2021-05-22T11:02:45Z</time>
      </trkpt>
      <trkpt lat="42.5548750" lon="-8.6344970">
        <ele>29.7</ele>
        <time>2021-05-22T11:02:46Z</time>
      </trkpt>
      <trkpt lat="42.5548700" lon="-8.6345170">
        <ele>29.7</ele>
        <time>2021-05-22T11:02:47Z</time>
      </trkpt>
      <trkpt lat="42.5548670" lon="-8.6345450">
        <ele>29.7</ele>
        <time>2021-05-22T11:02:48Z</time>
      </trkpt>
      <trkpt lat="42.5548620" lon="-8.6345830">
        <ele>29.7</ele>
        <time>2021-05-22T11:02:49Z</time>
      </trkpt>
      <trkpt lat="42.5548600" lon="-8.6345960">
        <ele>29.7</ele>
        <time>2021-05-22T11:02:50Z</time>
      </trkpt>
      <trkpt lat="42.5548550" lon="-8.6346350">
        <ele>29.6</ele>
        <time>2021-05-22T11:02:51Z</time>
      </trkpt>
      <trkpt lat="42.5548540" lon="-8.6346490">
        <ele>29.6</ele>
        <time>2021-05-22T11:02:52Z</time>
      </trkpt>
      <trkpt lat="42.5548550" lon="-8.6346740">
        <ele>29.6</ele>
        <time>2021-05-22T11:02:53Z</time>
      </trkpt>
      <trkpt lat="42.5548580" lon="-8.6346940">
        <ele>29.6</ele>
        <time>2021-05-22T11:02:54Z</time>
      </trkpt>
      <trkpt lat="42.5548590" lon="-8.6347110">
        <ele>29.6</ele>
        <time>2021-05-22T11:02:55Z</time>
      </trkpt>
      <trkpt lat="42.5548570" lon="-8.6347270">
        <ele>29.6</ele>
        <time>2021-05-22T11:02:56Z</time>
      </trkpt>
      <trkpt lat="42.5548600" lon="-8.6347360">
        <ele>29.6</ele>
        <time>2021-05-22T11:02:57Z</time>
      </trkpt>
      <trkpt lat="42.5548640" lon="-8.6347680">
        <ele>29.6</ele>
        <time>2021-05-22T11:02:58Z</time>
      </trkpt>
      <trkpt lat="42.5548660" lon="-8.6347770">
        <ele>29.5</ele>
        <time>2021-05-22T11:02:59Z</time>
      </trkpt>
      <trkpt lat="42.5548670" lon="-8.6347860">
        <ele>29.5</ele>
        <time>2021-05-22T11:03:00Z</time>
      </trkpt>
      <trkpt lat="42.5548600" lon="-8.6348050">
        <ele>29.5</ele>
        <time>2021-05-22T11:03:01Z</time>
      </trkpt>
      <trkpt lat="42.5548570" lon="-8.6348270">
        <ele>29.5</ele>
        <time>2021-05-22T11:03:02Z</time>
      </trkpt>
      <trkpt lat="42.5548610" lon="-8.6348580">
        <ele>29.5</ele>
        <time>2021-05-22T11:03:03Z</time>
      </trkpt>
      <trkpt lat="42.5548610" lon="-8.6348690">
        <ele>29.5</ele>
        <time>2021-05-22T11:03:04Z</time>
      </trkpt>
      <trkpt lat="42.5548610" lon="-8.6348800">
        <ele>29.5</ele>
        <time>2021-05-22T11:03:05Z</time>
      </trkpt>
      <trkpt lat="42.5548680" lon="-8.6348960">
        <ele>29.5</ele>
        <time>2021-05-22T11:03:06Z</time>
      </trkpt>
      <trkpt lat="42.5548740" lon="-8.6349100">
        <ele>29.5</ele>
        <time>2021-05-22T11:03:07Z</time>
      </trkpt>
      <trkpt lat="42.5548730" lon="-8.6349210">
        <ele>29.5</ele>
        <time>2021-05-22T11:03:08Z</time>
      </trkpt>
      <trkpt lat="42.5548760" lon="-8.6349490">
        <ele>29.5</ele>
        <time>2021-05-22T11:03:09Z</time>
      </trkpt>
      <trkpt lat="42.5548810" lon="-8.6349590">
        <ele>29.5</ele>
        <time>2021-05-22T11:03:10Z</time>
      </trkpt>
      <trkpt lat="42.5548890" lon="-8.6349650">
        <ele>29.5</ele>
        <time>2021-05-22T11:03:11Z</time>
      </trkpt>
      <trkpt lat="42.5548940" lon="-8.6349850">
        <ele>29.4</ele>
        <time>2021-05-22T11:03:12Z</time>
      </trkpt>
      <trkpt lat="42.5549010" lon="-8.6349980">
        <ele>29.4</ele>
        <time>2021-05-22T11:03:13Z</time>
      </trkpt>
      <trkpt lat="42.5549070" lon="-8.6350010">
        <ele>29.4</ele>
        <time>2021-05-22T11:03:14Z</time>
      </trkpt>
      <trkpt lat="42.5549080" lon="-8.6350210">
        <ele>29.4</ele>
        <time>2021-05-22T11:03:15Z</time>
      </trkpt>
      <trkpt lat="42.5549110" lon="-8.6350320">
        <ele>29.4</ele>
        <time>2021-05-22T11:03:16Z</time>
      </trkpt>
      <trkpt lat="42.5549110" lon="-8.6350450">
        <ele>29.4</ele>
        <time>2021-05-22T11:03:17Z</time>
      </trkpt>
      <trkpt lat="42.5549160" lon="-8.6350610">
        <ele>29.4</ele>
        <time>2021-05-22T11:03:18Z</time>
      </trkpt>
      <trkpt lat="42.5549200" lon="-8.6350730">
        <ele>29.4</ele>
        <time>2021-05-22T11:03:19Z</time>
      </trkpt>
      <trkpt lat="42.5549270" lon="-8.6350870">
        <ele>29.4</ele>
        <time>2021-05-22T11:03:20Z</time>
      </trkpt>
      <trkpt lat="42.5549360" lon="-8.6351010">
        <ele>29.4</ele>
        <time>2021-05-22T11:03:21Z</time>
      </trkpt>
      <trkpt lat="42.5549410" lon="-8.6351150">
        <ele>29.4</ele>
        <time>2021-05-22T11:03:22Z</time>
      </trkpt>
      <trkpt lat="42.5549490" lon="-8.6351250">
        <ele>29.4</ele>
        <time>2021-05-22T11:03:23Z</time>
      </trkpt>
      <trkpt lat="42.5549560" lon="-8.6351450">
        <ele>29.4</ele>
        <time>2021-05-22T11:03:24Z</time>
      </trkpt>
      <trkpt lat="42.5549570" lon="-8.6351530">
        <ele>29.4</ele>
        <time>2021-05-22T11:03:25Z</time>
      </trkpt>
      <trkpt lat="42.5549580" lon="-8.6351660">
        <ele>29.4</ele>
        <time>2021-05-22T11:03:26Z</time>
      </trkpt>
      <trkpt lat="42.5549670" lon="-8.6351880">
        <ele>29.4</ele>
        <time>2021-05-22T11:03:27Z</time>
      </trkpt>
      <trkpt lat="42.5549720" lon="-8.6351980">
        <ele>29.4</ele>
        <time>2021-05-22T11:03:28Z</time>
      </trkpt>
      <trkpt lat="42.5549770" lon="-8.6352080">
        <ele>29.4</ele>
        <time>2021-05-22T11:03:29Z</time>
      </trkpt>
      <trkpt lat="42.5549810" lon="-8.6352230">
        <ele>29.4</ele>
        <time>2021-05-22T11:03:30Z</time>
      </trkpt>
      <trkpt lat="42.5549920" lon="-8.6352370">
        <ele>29.4</ele>
        <time>2021-05-22T11:03:31Z</time>
      </trkpt>
      <trkpt lat="42.5549980" lon="-8.6352460">
        <ele>29.4</ele>
        <time>2021-05-22T11:03:32Z</time>
      </trkpt>
      <trkpt lat="42.5550030" lon="-8.6352610">
        <ele>29.4</ele>
        <time>2021-05-22T11:03:33Z</time>
      </trkpt>
      <trkpt lat="42.5550100" lon="-8.6352710">
        <ele>29.4</ele>
        <time>2021-05-22T11:03:34Z</time>
      </trkpt>
      <trkpt lat="42.5550190" lon="-8.6352830">
        <ele>29.4</ele>
        <time>2021-05-22T11:03:35Z</time>
      </trkpt>
      <trkpt lat="42.5550200" lon="-8.6352980">
        <ele>29.4</ele>
        <time>2021-05-22T11:03:36Z</time>
      </trkpt>
      <trkpt lat="42.5550310" lon="-8.6353140">
        <ele>29.4</ele>
        <time>2021-05-22T11:03:37Z</time>
      </trkpt>
      <trkpt lat="42.5550330" lon="-8.6353250">
        <ele>29.4</ele>
        <time>2021-05-22T11:03:38Z</time>
      </trkpt>
      <trkpt lat="42.5550450" lon="-8.6353470">
        <ele>29.4</ele>
        <time>2021-05-22T11:03:39Z</time>
      </trkpt>
      <trkpt lat="42.5550520" lon="-8.6353580">
        <ele>29.4</ele>
        <time>2021-05-22T11:03:40Z</time>
      </trkpt>
      <trkpt lat="42.5550580" lon="-8.6353680">
        <ele>29.4</ele>
        <time>2021-05-22T11:03:41Z</time>
      </trkpt>
      <trkpt lat="42.5550680" lon="-8.6353780">
        <ele>29.4</ele>
        <time>2021-05-22T11:03:42Z</time>
      </trkpt>
      <trkpt lat="42.5550840" lon="-8.6353900">
        <ele>29.4</ele>
        <time>2021-05-22T11:03:43Z</time>
      </trkpt>
      <trkpt lat="42.5550840" lon="-8.6354040">
        <ele>29.4</ele>
        <time>2021-05-22T11:03:44Z</time>
      </trkpt>
      <trkpt lat="42.5550840" lon="-8.6354150">
        <ele>29.4</ele>
        <time>2021-05-22T11:03:45Z</time>
      </trkpt>
      <trkpt lat="42.5550920" lon="-8.6354320">
        <ele>29.4</ele>
        <time>2021-05-22T11:03:46Z</time>
      </trkpt>
      <trkpt lat="42.5551000" lon="-8.6354600">
        <ele>29.4</ele>
        <time>2021-05-22T11:03:47Z</time>
      </trkpt>
      <trkpt lat="42.5551030" lon="-8.6354720">
        <ele>29.4</ele>
        <time>2021-05-22T11:03:48Z</time>
      </trkpt>
      <trkpt lat="42.5551060" lon="-8.6354830">
        <ele>29.4</ele>
        <time>2021-05-22T11:03:49Z</time>
      </trkpt>
      <trkpt lat="42.5551080" lon="-8.6355020">
        <ele>29.4</ele>
        <time>2021-05-22T11:03:50Z</time>
      </trkpt>
      <trkpt lat="42.5551080" lon="-8.6355210">
        <ele>29.4</ele>
        <time>2021-05-22T11:03:51Z</time>
      </trkpt>
      <trkpt lat="42.5551110" lon="-8.6355450">
        <ele>29.4</ele>
        <time>2021-05-22T11:03:52Z</time>
      </trkpt>
      <trkpt lat="42.5551090" lon="-8.6355510">
        <ele>29.4</ele>
        <time>2021-05-22T11:03:53Z</time>
      </trkpt>
      <trkpt lat="42.5551060" lon="-8.6355650">
        <ele>29.4</ele>
        <time>2021-05-22T11:03:54Z</time>
      </trkpt>
      <trkpt lat="42.5551090" lon="-8.6355960">
        <ele>29.4</ele>
        <time>2021-05-22T11:03:55Z</time>
      </trkpt>
      <trkpt lat="42.5551110" lon="-8.6356060">
        <ele>29.4</ele>
        <time>2021-05-22T11:03:56Z</time>
      </trkpt>
      <trkpt lat="42.5551120" lon="-8.6356170">
        <ele>29.4</ele>
        <time>2021-05-22T11:03:57Z</time>
      </trkpt>
      <trkpt lat="42.5551040" lon="-8.6356280">
        <ele>29.4</ele>
        <time>2021-05-22T11:03:58Z</time>
      </trkpt>
      <trkpt lat="42.5551060" lon="-8.6356520">
        <ele>29.4</ele>
        <time>2021-05-22T11:03:59Z</time>
      </trkpt>
      <trkpt lat="42.5551010" lon="-8.6356640">
        <ele>29.4</ele>
        <time>2021-05-22T11:04:00Z</time>
      </trkpt>
      <trkpt lat="42.5550990" lon="-8.6356780">
        <ele>29.4</ele>
        <time>2021-05-22T11:04:01Z</time>
      </trkpt>
      <trkpt lat="42.5551020" lon="-8.6356820">
        <ele>29.4</ele>
        <time>2021-05-22T11:04:02Z</time>
      </trkpt>
      <trkpt lat="42.5551000" lon="-8.6356960">
        <ele>29.4</ele>
        <time>2021-05-22T11:04:03Z</time>
      </trkpt>
      <trkpt lat="42.5551010" lon="-8.6357120">
        <ele>29.4</ele>
        <time>2021-05-22T11:04:04Z</time>
      </trkpt>
      <trkpt lat="42.5551030" lon="-8.6357340">
        <ele>29.4</ele>
        <time>2021-05-22T11:04:05Z</time>
      </trkpt>
      <trkpt lat="42.5551010" lon="-8.6357550">
        <ele>29.4</ele>
        <time>2021-05-22T11:04:06Z</time>
      </trkpt>
      <trkpt lat="42.5550960" lon="-8.6357690">
        <ele>29.4</ele>
        <time>2021-05-22T11:04:07Z</time>
      </trkpt>
      <trkpt lat="42.5550960" lon="-8.6357770">
        <ele>29.4</ele>
        <time>2021-05-22T11:04:08Z</time>
      </trkpt>
      <trkpt lat="42.5550920" lon="-8.6357880">
        <ele>29.4</ele>
        <time>2021-05-22T11:04:09Z</time>
      </trkpt>
      <trkpt lat="42.5550930" lon="-8.6358030">
        <ele>29.4</ele>
        <time>2021-05-22T11:04:10Z</time>
      </trkpt>
      <trkpt lat="42.5550880" lon="-8.6358140">
        <ele>29.4</ele>
        <time>2021-05-22T11:04:11Z</time>
      </trkpt>
      <trkpt lat="42.5550880" lon="-8.6358330">
        <ele>29.4</ele>
        <time>2021-05-22T11:04:12Z</time>
      </trkpt>
      <trkpt lat="42.5550870" lon="-8.6358470">
        <ele>29.4</ele>
        <time>2021-05-22T11:04:13Z</time>
      </trkpt>
      <trkpt lat="42.5550830" lon="-8.6358590">
        <ele>29.4</ele>
        <time>2021-05-22T11:04:14Z</time>
      </trkpt>
      <trkpt lat="42.5550810" lon="-8.6358740">
        <ele>29.4</ele>
        <time>2021-05-22T11:04:15Z</time>
      </trkpt>
      <trkpt lat="42.5550760" lon="-8.6358860">
        <ele>29.4</ele>
        <time>2021-05-22T11:04:16Z</time>
      </trkpt>
      <trkpt lat="42.5550800" lon="-8.6359050">
        <ele>29.4</ele>
        <time>2021-05-22T11:04:17Z</time>
      </trkpt>
      <trkpt lat="42.5550810" lon="-8.6359260">
        <ele>29.4</ele>
        <time>2021-05-22T11:04:18Z</time>
      </trkpt>
      <trkpt lat="42.5550850" lon="-8.6359470">
        <ele>29.4</ele>
        <time>2021-05-22T11:04:19Z</time>
      </trkpt>
      <trkpt lat="42.5550870" lon="-8.6359660">
        <ele>29.4</ele>
        <time>2021-05-22T11:04:20Z</time>
      </trkpt>
      <trkpt lat="42.5550890" lon="-8.6359810">
        <ele>29.4</ele>
        <time>2021-05-22T11:04:21Z</time>
      </trkpt>
      <trkpt lat="42.5550880" lon="-8.6359980">
        <ele>29.4</ele>
        <time>2021-05-22T11:04:22Z</time>
      </trkpt>
      <trkpt lat="42.5550880" lon="-8.6360150">
        <ele>29.4</ele>
        <time>2021-05-22T11:04:23Z</time>
      </trkpt>
      <trkpt lat="42.5550980" lon="-8.6360340">
        <ele>29.4</ele>
        <time>2021-05-22T11:04:24Z</time>
      </trkpt>
      <trkpt lat="42.5551010" lon="-8.6360510">
        <ele>29.4</ele>
        <time>2021-05-22T11:04:25Z</time>
      </trkpt>
      <trkpt lat="42.5550970" lon="-8.6360640">
        <ele>29.4</ele>
        <time>2021-05-22T11:04:26Z</time>
      </trkpt>
      <trkpt lat="42.5551000" lon="-8.6360810">
        <ele>29.4</ele>
        <time>2021-05-22T11:04:27Z</time>
      </trkpt>
      <trkpt lat="42.5551040" lon="-8.6360940">
        <ele>29.4</ele>
        <time>2021-05-22T11:04:28Z</time>
      </trkpt>
      <trkpt lat="42.5551080" lon="-8.6361220">
        <ele>29.4</ele>
        <time>2021-05-22T11:04:29Z</time>
      </trkpt>
      <trkpt lat="42.5551090" lon="-8.6361330">
        <ele>29.4</ele>
        <time>2021-05-22T11:04:30Z</time>
      </trkpt>
      <trkpt lat="42.5551110" lon="-8.6361430">
        <ele>29.4</ele>
        <time>2021-05-22T11:04:31Z</time>
      </trkpt>
      <trkpt lat="42.5551130" lon="-8.6361600">
        <ele>29.4</ele>
        <time>2021-05-22T11:04:32Z</time>
      </trkpt>
      <trkpt lat="42.5551090" lon="-8.6361800">
        <ele>29.4</ele>
        <time>2021-05-22T11:04:33Z</time>
      </trkpt>
      <trkpt lat="42.5551130" lon="-8.6362080">
        <ele>29.4</ele>
        <time>2021-05-22T11:04:34Z</time>
      </trkpt>
      <trkpt lat="42.5551150" lon="-8.6362200">
        <ele>29.4</ele>
        <time>2021-05-22T11:04:35Z</time>
      </trkpt>
      <trkpt lat="42.5551160" lon="-8.6362330">
        <ele>29.4</ele>
        <time>2021-05-22T11:04:36Z</time>
      </trkpt>
      <trkpt lat="42.5551190" lon="-8.6362600">
        <ele>29.4</ele>
        <time>2021-05-22T11:04:37Z</time>
      </trkpt>
      <trkpt lat="42.5551190" lon="-8.6362720">
        <ele>29.4</ele>
        <time>2021-05-22T11:04:38Z</time>
      </trkpt>
      <trkpt lat="42.5551190" lon="-8.6362830">
        <ele>29.4</ele>
        <time>2021-05-22T11:04:39Z</time>
      </trkpt>
      <trkpt lat="42.5551190" lon="-8.6362990">
        <ele>29.4</ele>
        <time>2021-05-22T11:04:40Z</time>
      </trkpt>
      <trkpt lat="42.5551240" lon="-8.6363260">
        <ele>29.4</ele>
        <time>2021-05-22T11:04:41Z</time>
      </trkpt>
      <trkpt lat="42.5551220" lon="-8.6363470">
        <ele>29.4</ele>
        <time>2021-05-22T11:04:42Z</time>
      </trkpt>
      <trkpt lat="42.5551210" lon="-8.6363580">
        <ele>29.4</ele>
        <time>2021-05-22T11:04:43Z</time>
      </trkpt>
      <trkpt lat="42.5551210" lon="-8.6363680">
        <ele>29.4</ele>
        <time>2021-05-22T11:04:44Z</time>
      </trkpt>
      <trkpt lat="42.5551200" lon="-8.6363780">
        <ele>29.4</ele>
        <time>2021-05-22T11:04:45Z</time>
      </trkpt>
      <trkpt lat="42.5551200" lon="-8.6363950">
        <ele>29.4</ele>
        <time>2021-05-22T11:04:46Z</time>
      </trkpt>
      <trkpt lat="42.5551160" lon="-8.6364010">
        <ele>29.4</ele>
        <time>2021-05-22T11:04:47Z</time>
      </trkpt>
      <trkpt lat="42.5551170" lon="-8.6364150">
        <ele>29.4</ele>
        <time>2021-05-22T11:04:48Z</time>
      </trkpt>
      <trkpt lat="42.5551170" lon="-8.6364350">
        <ele>29.4</ele>
        <time>2021-05-22T11:04:49Z</time>
      </trkpt>
      <trkpt lat="42.5551120" lon="-8.6364460">
        <ele>29.4</ele>
        <time>2021-05-22T11:04:50Z</time>
      </trkpt>
      <trkpt lat="42.5551130" lon="-8.6364520">
        <ele>29.4</ele>
        <time>2021-05-22T11:04:51Z</time>
      </trkpt>
      <trkpt lat="42.5551110" lon="-8.6364650">
        <ele>29.4</ele>
        <time>2021-05-22T11:04:52Z</time>
      </trkpt>
      <trkpt lat="42.5551120" lon="-8.6364810">
        <ele>29.4</ele>
        <time>2021-05-22T11:04:53Z</time>
      </trkpt>
      <trkpt lat="42.5551120" lon="-8.6364960">
        <ele>29.4</ele>
        <time>2021-05-22T11:04:54Z</time>
      </trkpt>
      <trkpt lat="42.5551150" lon="-8.6365090">
        <ele>29.4</ele>
        <time>2021-05-22T11:04:55Z</time>
      </trkpt>
      <trkpt lat="42.5551200" lon="-8.6365250">
        <ele>29.4</ele>
        <time>2021-05-22T11:04:56Z</time>
      </trkpt>
      <trkpt lat="42.5551230" lon="-8.6365420">
        <ele>29.4</ele>
        <time>2021-05-22T11:04:57Z</time>
      </trkpt>
      <trkpt lat="42.5551270" lon="-8.6365550">
        <ele>29.4</ele>
        <time>2021-05-22T11:04:58Z</time>
      </trkpt>
      <trkpt lat="42.5551300" lon="-8.6365670">
        <ele>29.4</ele>
        <time>2021-05-22T11:04:59Z</time>
      </trkpt>
      <trkpt lat="42.5551340" lon="-8.6365830">
        <ele>29.4</ele>
        <time>2021-05-22T11:05:00Z</time>
      </trkpt>
      <trkpt lat="42.5551430" lon="-8.6366150">
        <ele>29.4</ele>
        <time>2021-05-22T11:05:01Z</time>
      </trkpt>
      <trkpt lat="42.5551450" lon="-8.6366240">
        <ele>29.4</ele>
        <time>2021-05-22T11:05:02Z</time>
      </trkpt>
      <trkpt lat="42.5551480" lon="-8.6366340">
        <ele>29.4</ele>
        <time>2021-05-22T11:05:03Z</time>
      </trkpt>
      <trkpt lat="42.5551470" lon="-8.6366440">
        <ele>29.4</ele>
        <time>2021-05-22T11:05:04Z</time>
      </trkpt>
      <trkpt lat="42.5551520" lon="-8.6366590">
        <ele>29.4</ele>
        <time>2021-05-22T11:05:05Z</time>
      </trkpt>
      <trkpt lat="42.5551560" lon="-8.6366770">
        <ele>29.4</ele>
        <time>2021-05-22T11:05:06Z</time>
      </trkpt>
      <trkpt lat="42.5551630" lon="-8.6367040">
        <ele>29.4</ele>
        <time>2021-05-22T11:05:07Z</time>
      </trkpt>
      <trkpt lat="42.5551680" lon="-8.6367150">
        <ele>29.4</ele>
        <time>2021-05-22T11:05:08Z</time>
      </trkpt>
      <trkpt lat="42.5551720" lon="-8.6367260">
        <ele>29.4</ele>
        <time>2021-05-22T11:05:09Z</time>
      </trkpt>
      <trkpt lat="42.5551770" lon="-8.6367430">
        <ele>29.5</ele>
        <time>2021-05-22T11:05:10Z</time>
      </trkpt>
      <trkpt lat="42.5551790" lon="-8.6367530">
        <ele>29.5</ele>
        <time>2021-05-22T11:05:11Z</time>
      </trkpt>
      <trkpt lat="42.5551820" lon="-8.6367640">
        <ele>29.5</ele>
        <time>2021-05-22T11:05:12Z</time>
      </trkpt>
      <trkpt lat="42.5551840" lon="-8.6367740">
        <ele>29.5</ele>
        <time>2021-05-22T11:05:13Z</time>
      </trkpt>
      <trkpt lat="42.5551860" lon="-8.6367880">
        <ele>29.5</ele>
        <time>2021-05-22T11:05:14Z</time>
      </trkpt>
      <trkpt lat="42.5551850" lon="-8.6367990">
        <ele>29.5</ele>
        <time>2021-05-22T11:05:15Z</time>
      </trkpt>
      <trkpt lat="42.5551870" lon="-8.6368120">
        <ele>29.5</ele>
        <time>2021-05-22T11:05:16Z</time>
      </trkpt>
      <trkpt lat="42.5551910" lon="-8.6368290">
        <ele>29.5</ele>
        <time>2021-05-22T11:05:17Z</time>
      </trkpt>
      <trkpt lat="42.5551920" lon="-8.6368510">
        <ele>29.5</ele>
        <time>2021-05-22T11:05:18Z</time>
      </trkpt>
      <trkpt lat="42.5551870" lon="-8.6368730">
        <ele>29.5</ele>
        <time>2021-05-22T11:05:19Z</time>
      </trkpt>
      <trkpt lat="42.5551790" lon="-8.6368830">
        <ele>29.5</ele>
        <time>2021-05-22T11:05:20Z</time>
      </trkpt>
      <trkpt lat="42.5551730" lon="-8.6369100">
        <ele>29.5</ele>
        <time>2021-05-22T11:05:21Z</time>
      </trkpt>
      <trkpt lat="42.5551690" lon="-8.6369260">
        <ele>29.5</ele>
        <time>2021-05-22T11:05:22Z</time>
      </trkpt>
      <trkpt lat="42.5551660" lon="-8.6369410">
        <ele>29.5</ele>
        <time>2021-05-22T11:05:23Z</time>
      </trkpt>
      <trkpt lat="42.5551610" lon="-8.6369610">
        <ele>29.5</ele>
        <time>2021-05-22T11:05:24Z</time>
      </trkpt>
      <trkpt lat="42.5551560" lon="-8.6369760">
        <ele>29.6</ele>
        <time>2021-05-22T11:05:25Z</time>
      </trkpt>
      <trkpt lat="42.5551510" lon="-8.6369950">
        <ele>29.6</ele>
        <time>2021-05-22T11:05:26Z</time>
      </trkpt>
      <trkpt lat="42.5551380" lon="-8.6370140">
        <ele>29.7</ele>
        <time>2021-05-22T11:05:27Z</time>
      </trkpt>
      <trkpt lat="42.5551320" lon="-8.6370270">
        <ele>29.7</ele>
        <time>2021-05-22T11:05:28Z</time>
      </trkpt>
      <trkpt lat="42.5551160" lon="-8.6370490">
        <ele>29.8</ele>
        <time>2021-05-22T11:05:29Z</time>
      </trkpt>
      <trkpt lat="42.5550970" lon="-8.6370750">
        <ele>29.9</ele>
        <time>2021-05-22T11:05:30Z</time>
      </trkpt>
      <trkpt lat="42.5550900" lon="-8.6370760">
        <ele>29.9</ele>
        <time>2021-05-22T11:05:31Z</time>
      </trkpt>
      <trkpt lat="42.5550840" lon="-8.6370780">
        <ele>30.0</ele>
        <time>2021-05-22T11:05:32Z</time>
      </trkpt>
      <trkpt lat="42.5550700" lon="-8.6370820">
        <ele>30.0</ele>
        <time>2021-05-22T11:05:33Z</time>
      </trkpt>
      <trkpt lat="42.5550510" lon="-8.6370860">
        <ele>30.1</ele>
        <time>2021-05-22T11:05:34Z</time>
      </trkpt>
      <trkpt lat="42.5550250" lon="-8.6370850">
        <ele>30.2</ele>
        <time>2021-05-22T11:05:35Z</time>
      </trkpt>
      <trkpt lat="42.5550160" lon="-8.6370880">
        <ele>30.3</ele>
        <time>2021-05-22T11:05:36Z</time>
      </trkpt>
      <trkpt lat="42.5550080" lon="-8.6370910">
        <ele>30.3</ele>
        <time>2021-05-22T11:05:37Z</time>
      </trkpt>
      <trkpt lat="42.5549930" lon="-8.6370920">
        <ele>30.4</ele>
        <time>2021-05-22T11:05:38Z</time>
      </trkpt>
      <trkpt lat="42.5549780" lon="-8.6370970">
        <ele>30.4</ele>
        <time>2021-05-22T11:05:39Z</time>
      </trkpt>
      <trkpt lat="42.5549600" lon="-8.6371030">
        <ele>30.5</ele>
        <time>2021-05-22T11:05:40Z</time>
      </trkpt>
      <trkpt lat="42.5549510" lon="-8.6371040">
        <ele>30.6</ele>
        <time>2021-05-22T11:05:41Z</time>
      </trkpt>
      <trkpt lat="42.5549420" lon="-8.6371060">
        <ele>30.6</ele>
        <time>2021-05-22T11:05:42Z</time>
      </trkpt>
      <trkpt lat="42.5549340" lon="-8.6371100">
        <ele>30.6</ele>
        <time>2021-05-22T11:05:43Z</time>
      </trkpt>
      <trkpt lat="42.5549220" lon="-8.6371160">
        <ele>30.7</ele>
        <time>2021-05-22T11:05:44Z</time>
      </trkpt>
      <trkpt lat="42.5549120" lon="-8.6371180">
        <ele>30.7</ele>
        <time>2021-05-22T11:05:45Z</time>
      </trkpt>
      <trkpt lat="42.5549050" lon="-8.6371250">
        <ele>30.8</ele>
        <time>2021-05-22T11:05:46Z</time>
      </trkpt>
      <trkpt lat="42.5548920" lon="-8.6371320">
        <ele>30.8</ele>
        <time>2021-05-22T11:05:47Z</time>
      </trkpt>
      <trkpt lat="42.5548860" lon="-8.6371360">
        <ele>30.9</ele>
        <time>2021-05-22T11:05:48Z</time>
      </trkpt>
      <trkpt lat="42.5548790" lon="-8.6371480">
        <ele>30.9</ele>
        <time>2021-05-22T11:05:49Z</time>
      </trkpt>
      <trkpt lat="42.5548640" lon="-8.6371720">
        <ele>31.0</ele>
        <time>2021-05-22T11:05:50Z</time>
      </trkpt>
      <trkpt lat="42.5548610" lon="-8.6371750">
        <ele>31.0</ele>
        <time>2021-05-22T11:05:51Z</time>
      </trkpt>
      <trkpt lat="42.5548600" lon="-8.6371890">
        <ele>31.0</ele>
        <time>2021-05-22T11:05:52Z</time>
      </trkpt>
      <trkpt lat="42.5548620" lon="-8.6372090">
        <ele>31.0</ele>
        <time>2021-05-22T11:05:53Z</time>
      </trkpt>
      <trkpt lat="42.5548640" lon="-8.6372230">
        <ele>31.0</ele>
        <time>2021-05-22T11:05:54Z</time>
      </trkpt>
      <trkpt lat="42.5548670" lon="-8.6372380">
        <ele>31.0</ele>
        <time>2021-05-22T11:05:55Z</time>
      </trkpt>
      <trkpt lat="42.5548700" lon="-8.6372570">
        <ele>31.0</ele>
        <time>2021-05-22T11:05:56Z</time>
      </trkpt>
      <trkpt lat="42.5548710" lon="-8.6372750">
        <ele>31.0</ele>
        <time>2021-05-22T11:05:57Z</time>
      </trkpt>
      <trkpt lat="42.5548720" lon="-8.6372870">
        <ele>31.0</ele>
        <time>2021-05-22T11:05:58Z</time>
      </trkpt>
      <trkpt lat="42.5548710" lon="-8.6373010">
        <ele>31.0</ele>
        <time>2021-05-22T11:05:59Z</time>
      </trkpt>
      <trkpt lat="42.5548760" lon="-8.6373140">
        <ele>31.0</ele>
        <time>2021-05-22T11:06:00Z</time>
      </trkpt>
      <trkpt lat="42.5548780" lon="-8.6373290">
        <ele>31.0</ele>
        <time>2021-05-22T11:06:01Z</time>
      </trkpt>
      <trkpt lat="42.5548780" lon="-8.6373460">
        <ele>31.0</ele>
        <time>2021-05-22T11:06:02Z</time>
      </trkpt>
      <trkpt lat="42.5548780" lon="-8.6373560">
        <ele>31.0</ele>
        <time>2021-05-22T11:06:03Z</time>
      </trkpt>
      <trkpt lat="42.5548800" lon="-8.6373720">
        <ele>31.0</ele>
        <time>2021-05-22T11:06:04Z</time>
      </trkpt>
      <trkpt lat="42.5548800" lon="-8.6373910">
        <ele>31.0</ele>
        <time>2021-05-22T11:06:05Z</time>
      </trkpt>
      <trkpt lat="42.5548780" lon="-8.6374050">
        <ele>31.0</ele>
        <time>2021-05-22T11:06:06Z</time>
      </trkpt>
      <trkpt lat="42.5548790" lon="-8.6374180">
        <ele>31.0</ele>
        <time>2021-05-22T11:06:07Z</time>
      </trkpt>
      <trkpt lat="42.5548790" lon="-8.6374310">
        <ele>31.0</ele>
        <time>2021-05-22T11:06:08Z</time>
      </trkpt>
      <trkpt lat="42.5548810" lon="-8.6374510">
        <ele>31.0</ele>
        <time>2021-05-22T11:06:09Z</time>
      </trkpt>
      <trkpt lat="42.5548840" lon="-8.6374620">
        <ele>31.0</ele>
        <time>2021-05-22T11:06:10Z</time>
      </trkpt>
      <trkpt lat="42.5548870" lon="-8.6374730">
        <ele>31.0</ele>
        <time>2021-05-22T11:06:11Z</time>
      </trkpt>
      <trkpt lat="42.5548900" lon="-8.6374840">
        <ele>31.0</ele>
        <time>2021-05-22T11:06:12Z</time>
      </trkpt>
      <trkpt lat="42.5548950" lon="-8.6375130">
        <ele>31.0</ele>
        <time>2021-05-22T11:06:13Z</time>
      </trkpt>
      <trkpt lat="42.5548980" lon="-8.6375230">
        <ele>31.0</ele>
        <time>2021-05-22T11:06:14Z</time>
      </trkpt>
      <trkpt lat="42.5549010" lon="-8.6375320">
        <ele>31.0</ele>
        <time>2021-05-22T11:06:15Z</time>
      </trkpt>
      <trkpt lat="42.5549000" lon="-8.6375400">
        <ele>31.0</ele>
        <time>2021-05-22T11:06:16Z</time>
      </trkpt>
      <trkpt lat="42.5548990" lon="-8.6375560">
        <ele>31.0</ele>
        <time>2021-05-22T11:06:17Z</time>
      </trkpt>
      <trkpt lat="42.5549020" lon="-8.6375730">
        <ele>31.0</ele>
        <time>2021-05-22T11:06:18Z</time>
      </trkpt>
      <trkpt lat="42.5549030" lon="-8.6375920">
        <ele>31.0</ele>
        <time>2021-05-22T11:06:19Z</time>
      </trkpt>
      <trkpt lat="42.5549080" lon="-8.6375950">
        <ele>31.0</ele>
        <time>2021-05-22T11:06:20Z</time>
      </trkpt>
      <trkpt lat="42.5549150" lon="-8.6375990">
        <ele>31.0</ele>
        <time>2021-05-22T11:06:21Z</time>
      </trkpt>
      <trkpt lat="42.5549180" lon="-8.6376120">
        <ele>31.0</ele>
        <time>2021-05-22T11:06:22Z</time>
      </trkpt>
      <trkpt lat="42.5549250" lon="-8.6376240">
        <ele>31.0</ele>
        <time>2021-05-22T11:06:23Z</time>
      </trkpt>
      <trkpt lat="42.5549250" lon="-8.6376330">
        <ele>31.0</ele>
        <time>2021-05-22T11:06:24Z</time>
      </trkpt>
      <trkpt lat="42.5549320" lon="-8.6376430">
        <ele>31.1</ele>
        <time>2021-05-22T11:06:25Z</time>
      </trkpt>
      <trkpt lat="42.5549380" lon="-8.6376490">
        <ele>31.1</ele>
        <time>2021-05-22T11:06:26Z</time>
      </trkpt>
      <trkpt lat="42.5549450" lon="-8.6376610">
        <ele>31.1</ele>
        <time>2021-05-22T11:06:27Z</time>
      </trkpt>
      <trkpt lat="42.5549480" lon="-8.6376690">
        <ele>31.1</ele>
        <time>2021-05-22T11:06:28Z</time>
      </trkpt>
      <trkpt lat="42.5549560" lon="-8.6376820">
        <ele>31.1</ele>
        <time>2021-05-22T11:06:29Z</time>
      </trkpt>
      <trkpt lat="42.5549630" lon="-8.6376930">
        <ele>31.1</ele>
        <time>2021-05-22T11:06:30Z</time>
      </trkpt>
      <trkpt lat="42.5549730" lon="-8.6376990">
        <ele>31.1</ele>
        <time>2021-05-22T11:06:31Z</time>
      </trkpt>
      <trkpt lat="42.5549770" lon="-8.6377110">
        <ele>31.1</ele>
        <time>2021-05-22T11:06:32Z</time>
      </trkpt>
      <trkpt lat="42.5549820" lon="-8.6377080">
        <ele>31.1</ele>
        <time>2021-05-22T11:06:33Z</time>
      </trkpt>
      <trkpt lat="42.5549920" lon="-8.6377210">
        <ele>31.1</ele>
        <time>2021-05-22T11:06:34Z</time>
      </trkpt>
      <trkpt lat="42.5550040" lon="-8.6377350">
        <ele>31.1</ele>
        <time>2021-05-22T11:06:35Z</time>
      </trkpt>
      <trkpt lat="42.5550180" lon="-8.6377370">
        <ele>31.1</ele>
        <time>2021-05-22T11:06:36Z</time>
      </trkpt>
      <trkpt lat="42.5550300" lon="-8.6377480">
        <ele>31.1</ele>
        <time>2021-05-22T11:06:37Z</time>
      </trkpt>
      <trkpt lat="42.5550510" lon="-8.6377600">
        <ele>31.1</ele>
        <time>2021-05-22T11:06:38Z</time>
      </trkpt>
      <trkpt lat="42.5550590" lon="-8.6377630">
        <ele>31.1</ele>
        <time>2021-05-22T11:06:39Z</time>
      </trkpt>
      <trkpt lat="42.5550660" lon="-8.6377670">
        <ele>31.1</ele>
        <time>2021-05-22T11:06:40Z</time>
      </trkpt>
      <trkpt lat="42.5550790" lon="-8.6377740">
        <ele>31.1</ele>
        <time>2021-05-22T11:06:41Z</time>
      </trkpt>
      <trkpt lat="42.5550940" lon="-8.6377790">
        <ele>31.1</ele>
        <time>2021-05-22T11:06:42Z</time>
      </trkpt>
      <trkpt lat="42.5551060" lon="-8.6377790">
        <ele>31.0</ele>
        <time>2021-05-22T11:06:43Z</time>
      </trkpt>
      <trkpt lat="42.5551150" lon="-8.6377830">
        <ele>31.0</ele>
        <time>2021-05-22T11:06:44Z</time>
      </trkpt>
      <trkpt lat="42.5551260" lon="-8.6377920">
        <ele>31.0</ele>
        <time>2021-05-22T11:06:45Z</time>
      </trkpt>
      <trkpt lat="42.5551340" lon="-8.6377950">
        <ele>31.0</ele>
        <time>2021-05-22T11:06:46Z</time>
      </trkpt>
      <trkpt lat="42.5551400" lon="-8.6377990">
        <ele>31.0</ele>
        <time>2021-05-22T11:06:47Z</time>
      </trkpt>
      <trkpt lat="42.5551560" lon="-8.6378070">
        <ele>30.9</ele>
        <time>2021-05-22T11:06:48Z</time>
      </trkpt>
      <trkpt lat="42.5551630" lon="-8.6378060">
        <ele>30.9</ele>
        <time>2021-05-22T11:06:49Z</time>
      </trkpt>
      <trkpt lat="42.5551740" lon="-8.6377970">
        <ele>30.9</ele>
        <time>2021-05-22T11:06:50Z</time>
      </trkpt>
      <trkpt lat="42.5551880" lon="-8.6377970">
        <ele>30.9</ele>
        <time>2021-05-22T11:06:51Z</time>
      </trkpt>
      <trkpt lat="42.5552030" lon="-8.6377950">
        <ele>30.9</ele>
        <time>2021-05-22T11:06:52Z</time>
      </trkpt>
      <trkpt lat="42.5552190" lon="-8.6377880">
        <ele>30.9</ele>
        <time>2021-05-22T11:06:53Z</time>
      </trkpt>
      <trkpt lat="42.5552330" lon="-8.6377850">
        <ele>30.8</ele>
        <time>2021-05-22T11:06:54Z</time>
      </trkpt>
      <trkpt lat="42.5552370" lon="-8.6377810">
        <ele>30.8</ele>
        <time>2021-05-22T11:06:55Z</time>
      </trkpt>
      <trkpt lat="42.5552500" lon="-8.6377790">
        <ele>30.8</ele>
        <time>2021-05-22T11:06:56Z</time>
      </trkpt>
      <trkpt lat="42.5552630" lon="-8.6377790">
        <ele>30.8</ele>
        <time>2021-05-22T11:06:57Z</time>
      </trkpt>
      <trkpt lat="42.5552750" lon="-8.6377770">
        <ele>30.8</ele>
        <time>2021-05-22T11:06:58Z</time>
      </trkpt>
      <trkpt lat="42.5552830" lon="-8.6377810">
        <ele>30.8</ele>
        <time>2021-05-22T11:06:59Z</time>
      </trkpt>
      <trkpt lat="42.5552940" lon="-8.6377790">
        <ele>30.7</ele>
        <time>2021-05-22T11:07:00Z</time>
      </trkpt>
      <trkpt lat="42.5553050" lon="-8.6377730">
        <ele>30.7</ele>
        <time>2021-05-22T11:07:01Z</time>
      </trkpt>
      <trkpt lat="42.5553150" lon="-8.6377760">
        <ele>30.7</ele>
        <time>2021-05-22T11:07:02Z</time>
      </trkpt>
      <trkpt lat="42.5553250" lon="-8.6377740">
        <ele>30.7</ele>
        <time>2021-05-22T11:07:03Z</time>
      </trkpt>
      <trkpt lat="42.5553380" lon="-8.6377750">
        <ele>30.7</ele>
        <time>2021-05-22T11:07:04Z</time>
      </trkpt>
      <trkpt lat="42.5553450" lon="-8.6377750">
        <ele>30.7</ele>
        <time>2021-05-22T11:07:05Z</time>
      </trkpt>
      <trkpt lat="42.5553550" lon="-8.6377720">
        <ele>30.7</ele>
        <time>2021-05-22T11:07:06Z</time>
      </trkpt>
      <trkpt lat="42.5553650" lon="-8.6377780">
        <ele>30.7</ele>
        <time>2021-05-22T11:07:07Z</time>
      </trkpt>
      <trkpt lat="42.5553730" lon="-8.6377790">
        <ele>30.7</ele>
        <time>2021-05-22T11:07:08Z</time>
      </trkpt>
      <trkpt lat="42.5553930" lon="-8.6377770">
        <ele>30.7</ele>
        <time>2021-05-22T11:07:09Z</time>
      </trkpt>
      <trkpt lat="42.5554040" lon="-8.6377750">
        <ele>30.7</ele>
        <time>2021-05-22T11:07:10Z</time>
      </trkpt>
      <trkpt lat="42.5554230" lon="-8.6377740">
        <ele>30.6</ele>
        <time>2021-05-22T11:07:11Z</time>
      </trkpt>
      <trkpt lat="42.5554320" lon="-8.6377730">
        <ele>30.6</ele>
        <time>2021-05-22T11:07:12Z</time>
      </trkpt>
      <trkpt lat="42.5554400" lon="-8.6377720">
        <ele>30.6</ele>
        <time>2021-05-22T11:07:13Z</time>
      </trkpt>
      <trkpt lat="42.5554580" lon="-8.6377690">
        <ele>30.6</ele>
        <time>2021-05-22T11:07:14Z</time>
      </trkpt>
      <trkpt lat="42.5554670" lon="-8.6377710">
        <ele>30.6</ele>
        <time>2021-05-22T11:07:15Z</time>
      </trkpt>
      <trkpt lat="42.5554750" lon="-8.6377720">
        <ele>30.6</ele>
        <time>2021-05-22T11:07:16Z</time>
      </trkpt>
      <trkpt lat="42.5554830" lon="-8.6377740">
        <ele>30.6</ele>
        <time>2021-05-22T11:07:17Z</time>
      </trkpt>
      <trkpt lat="42.5554950" lon="-8.6377700">
        <ele>30.6</ele>
        <time>2021-05-22T11:07:18Z</time>
      </trkpt>
      <trkpt lat="42.5555040" lon="-8.6377680">
        <ele>30.6</ele>
        <time>2021-05-22T11:07:19Z</time>
      </trkpt>
      <trkpt lat="42.5555150" lon="-8.6377670">
        <ele>30.6</ele>
        <time>2021-05-22T11:07:20Z</time>
      </trkpt>
      <trkpt lat="42.5555290" lon="-8.6377610">
        <ele>30.6</ele>
        <time>2021-05-22T11:07:21Z</time>
      </trkpt>
      <trkpt lat="42.5555370" lon="-8.6377620">
        <ele>30.6</ele>
        <time>2021-05-22T11:07:22Z</time>
      </trkpt>
      <trkpt lat="42.5555510" lon="-8.6377640">
        <ele>30.5</ele>
        <time>2021-05-22T11:07:23Z</time>
      </trkpt>
      <trkpt lat="42.5555690" lon="-8.6377620">
        <ele>30.5</ele>
        <time>2021-05-22T11:07:24Z</time>
      </trkpt>
      <trkpt lat="42.5555830" lon="-8.6377600">
        <ele>30.5</ele>
        <time>2021-05-22T11:07:25Z</time>
      </trkpt>
      <trkpt lat="42.5555950" lon="-8.6377610">
        <ele>30.5</ele>
        <time>2021-05-22T11:07:26Z</time>
      </trkpt>
      <trkpt lat="42.5556130" lon="-8.6377570">
        <ele>30.5</ele>
        <time>2021-05-22T11:07:27Z</time>
      </trkpt>
      <trkpt lat="42.5556200" lon="-8.6377590">
        <ele>30.5</ele>
        <time>2021-05-22T11:07:28Z</time>
      </trkpt>
      <trkpt lat="42.5556350" lon="-8.6377540">
        <ele>30.5</ele>
        <time>2021-05-22T11:07:29Z</time>
      </trkpt>
      <trkpt lat="42.5556480" lon="-8.6377590">
        <ele>30.5</ele>
        <time>2021-05-22T11:07:30Z</time>
      </trkpt>
      <trkpt lat="42.5556570" lon="-8.6377570">
        <ele>30.5</ele>
        <time>2021-05-22T11:07:31Z</time>
      </trkpt>
      <trkpt lat="42.5556660" lon="-8.6377610">
        <ele>30.5</ele>
        <time>2021-05-22T11:07:32Z</time>
      </trkpt>
      <trkpt lat="42.5556760" lon="-8.6377610">
        <ele>30.5</ele>
        <time>2021-05-22T11:07:33Z</time>
      </trkpt>
      <trkpt lat="42.5556980" lon="-8.6377550">
        <ele>30.5</ele>
        <time>2021-05-22T11:07:34Z</time>
      </trkpt>
      <trkpt lat="42.5557090" lon="-8.6377520">
        <ele>30.5</ele>
        <time>2021-05-22T11:07:35Z</time>
      </trkpt>
      <trkpt lat="42.5557190" lon="-8.6377500">
        <ele>30.5</ele>
        <time>2021-05-22T11:07:36Z</time>
      </trkpt>
      <trkpt lat="42.5557330" lon="-8.6377510">
        <ele>30.5</ele>
        <time>2021-05-22T11:07:37Z</time>
      </trkpt>
      <trkpt lat="42.5557400" lon="-8.6377520">
        <ele>30.5</ele>
        <time>2021-05-22T11:07:38Z</time>
      </trkpt>
      <trkpt lat="42.5557480" lon="-8.6377510">
        <ele>30.5</ele>
        <time>2021-05-22T11:07:39Z</time>
      </trkpt>
      <trkpt lat="42.5557680" lon="-8.6377490">
        <ele>30.4</ele>
        <time>2021-05-22T11:07:40Z</time>
      </trkpt>
      <trkpt lat="42.5557820" lon="-8.6377480">
        <ele>30.4</ele>
        <time>2021-05-22T11:07:41Z</time>
      </trkpt>
      <trkpt lat="42.5557910" lon="-8.6377510">
        <ele>30.4</ele>
        <time>2021-05-22T11:07:42Z</time>
      </trkpt>
      <trkpt lat="42.5558020" lon="-8.6377550">
        <ele>30.4</ele>
        <time>2021-05-22T11:07:43Z</time>
      </trkpt>
      <trkpt lat="42.5558160" lon="-8.6377540">
        <ele>30.4</ele>
        <time>2021-05-22T11:07:44Z</time>
      </trkpt>
      <trkpt lat="42.5558360" lon="-8.6377450">
        <ele>30.4</ele>
        <time>2021-05-22T11:07:45Z</time>
      </trkpt>
      <trkpt lat="42.5558460" lon="-8.6377460">
        <ele>30.4</ele>
        <time>2021-05-22T11:07:46Z</time>
      </trkpt>
      <trkpt lat="42.5558550" lon="-8.6377460">
        <ele>30.4</ele>
        <time>2021-05-22T11:07:47Z</time>
      </trkpt>
      <trkpt lat="42.5558720" lon="-8.6377410">
        <ele>30.4</ele>
        <time>2021-05-22T11:07:48Z</time>
      </trkpt>
      <trkpt lat="42.5558810" lon="-8.6377390">
        <ele>30.4</ele>
        <time>2021-05-22T11:07:49Z</time>
      </trkpt>
      <trkpt lat="42.5558900" lon="-8.6377390">
        <ele>30.4</ele>
        <time>2021-05-22T11:07:50Z</time>
      </trkpt>
      <trkpt lat="42.5559010" lon="-8.6377350">
        <ele>30.4</ele>
        <time>2021-05-22T11:07:51Z</time>
      </trkpt>
      <trkpt lat="42.5559130" lon="-8.6377300">
        <ele>30.4</ele>
        <time>2021-05-22T11:07:52Z</time>
      </trkpt>
      <trkpt lat="42.5559200" lon="-8.6377290">
        <ele>30.4</ele>
        <time>2021-05-22T11:07:53Z</time>
      </trkpt>
      <trkpt lat="42.5559320" lon="-8.6377310">
        <ele>30.4</ele>
        <time>2021-05-22T11:07:54Z</time>
      </trkpt>
      <trkpt lat="42.5559460" lon="-8.6377270">
        <ele>30.4</ele>
        <time>2021-05-22T11:07:55Z</time>
      </trkpt>
      <trkpt lat="42.5559530" lon="-8.6377260">
        <ele>30.4</ele>
        <time>2021-05-22T11:07:56Z</time>
      </trkpt>
      <trkpt lat="42.5559630" lon="-8.6377290">
        <ele>30.4</ele>
        <time>2021-05-22T11:07:57Z</time>
      </trkpt>
      <trkpt lat="42.5559800" lon="-8.6377360">
        <ele>30.4</ele>
        <time>2021-05-22T11:07:58Z</time>
      </trkpt>
      <trkpt lat="42.5559890" lon="-8.6377330">
        <ele>30.4</ele>
        <time>2021-05-22T11:07:59Z</time>
      </trkpt>
      <trkpt lat="42.5560050" lon="-8.6377350">
        <ele>30.4</ele>
        <time>2021-05-22T11:08:00Z</time>
      </trkpt>
      <trkpt lat="42.5560140" lon="-8.6377360">
        <ele>30.4</ele>
        <time>2021-05-22T11:08:01Z</time>
      </trkpt>
      <trkpt lat="42.5560220" lon="-8.6377390">
        <ele>30.4</ele>
        <time>2021-05-22T11:08:02Z</time>
      </trkpt>
      <trkpt lat="42.5560300" lon="-8.6377390">
        <ele>30.4</ele>
        <time>2021-05-22T11:08:03Z</time>
      </trkpt>
      <trkpt lat="42.5560400" lon="-8.6377410">
        <ele>30.4</ele>
        <time>2021-05-22T11:08:04Z</time>
      </trkpt>
      <trkpt lat="42.5560510" lon="-8.6377420">
        <ele>30.4</ele>
        <time>2021-05-22T11:08:05Z</time>
      </trkpt>
      <trkpt lat="42.5560740" lon="-8.6377460">
        <ele>30.5</ele>
        <time>2021-05-22T11:08:06Z</time>
      </trkpt>
      <trkpt lat="42.5560800" lon="-8.6377470">
        <ele>30.5</ele>
        <time>2021-05-22T11:08:07Z</time>
      </trkpt>
      <trkpt lat="42.5560870" lon="-8.6377480">
        <ele>30.5</ele>
        <time>2021-05-22T11:08:08Z</time>
      </trkpt>
      <trkpt lat="42.5561070" lon="-8.6377430">
        <ele>30.5</ele>
        <time>2021-05-22T11:08:09Z</time>
      </trkpt>
      <trkpt lat="42.5561180" lon="-8.6377440">
        <ele>30.5</ele>
        <time>2021-05-22T11:08:10Z</time>
      </trkpt>
      <trkpt lat="42.5561280" lon="-8.6377440">
        <ele>30.5</ele>
        <time>2021-05-22T11:08:11Z</time>
      </trkpt>
      <trkpt lat="42.5561410" lon="-8.6377440">
        <ele>30.5</ele>
        <time>2021-05-22T11:08:12Z</time>
      </trkpt>
      <trkpt lat="42.5561570" lon="-8.6377420">
        <ele>30.5</ele>
        <time>2021-05-22T11:08:13Z</time>
      </trkpt>
      <trkpt lat="42.5561650" lon="-8.6377420">
        <ele>30.5</ele>
        <time>2021-05-22T11:08:14Z</time>
      </trkpt>
      <trkpt lat="42.5561810" lon="-8.6377410">
        <ele>30.6</ele>
        <time>2021-05-22T11:08:15Z</time>
      </trkpt>
      <trkpt lat="42.5561900" lon="-8.6377440">
        <ele>30.6</ele>
        <time>2021-05-22T11:08:16Z</time>
      </trkpt>
      <trkpt lat="42.5562000" lon="-8.6377450">
        <ele>30.6</ele>
        <time>2021-05-22T11:08:17Z</time>
      </trkpt>
      <trkpt lat="42.5562120" lon="-8.6377420">
        <ele>30.6</ele>
        <time>2021-05-22T11:08:18Z</time>
      </trkpt>
      <trkpt lat="42.5562250" lon="-8.6377460">
        <ele>30.6</ele>
        <time>2021-05-22T11:08:19Z</time>
      </trkpt>
      <trkpt lat="42.5562410" lon="-8.6377480">
        <ele>30.6</ele>
        <time>2021-05-22T11:08:20Z</time>
      </trkpt>
      <trkpt lat="42.5562500" lon="-8.6377460">
        <ele>30.6</ele>
        <time>2021-05-22T11:08:21Z</time>
      </trkpt>
      <trkpt lat="42.5562580" lon="-8.6377430">
        <ele>30.6</ele>
        <time>2021-05-22T11:08:22Z</time>
      </trkpt>
      <trkpt lat="42.5562730" lon="-8.6377400">
        <ele>30.6</ele>
        <time>2021-05-22T11:08:23Z</time>
      </trkpt>
      <trkpt lat="42.5562860" lon="-8.6377430">
        <ele>30.6</ele>
        <time>2021-05-22T11:08:24Z</time>
      </trkpt>
      <trkpt lat="42.5563000" lon="-8.6377430">
        <ele>30.7</ele>
        <time>2021-05-22T11:08:25Z</time>
      </trkpt>
      <trkpt lat="42.5563140" lon="-8.6377390">
        <ele>30.7</ele>
        <time>2021-05-22T11:08:26Z</time>
      </trkpt>
      <trkpt lat="42.5563240" lon="-8.6377380">
        <ele>30.7</ele>
        <time>2021-05-22T11:08:27Z</time>
      </trkpt>
      <trkpt lat="42.5563380" lon="-8.6377380">
        <ele>30.7</ele>
        <time>2021-05-22T11:08:28Z</time>
      </trkpt>
      <trkpt lat="42.5563500" lon="-8.6377450">
        <ele>30.7</ele>
        <time>2021-05-22T11:08:29Z</time>
      </trkpt>
      <trkpt lat="42.5563600" lon="-8.6377430">
        <ele>30.7</ele>
        <time>2021-05-22T11:08:30Z</time>
      </trkpt>
      <trkpt lat="42.5563680" lon="-8.6377410">
        <ele>30.7</ele>
        <time>2021-05-22T11:08:31Z</time>
      </trkpt>
      <trkpt lat="42.5563780" lon="-8.6377460">
        <ele>30.7</ele>
        <time>2021-05-22T11:08:32Z</time>
      </trkpt>
      <trkpt lat="42.5563940" lon="-8.6377410">
        <ele>30.8</ele>
        <time>2021-05-22T11:08:33Z</time>
      </trkpt>
      <trkpt lat="42.5564040" lon="-8.6377420">
        <ele>30.8</ele>
        <time>2021-05-22T11:08:34Z</time>
      </trkpt>
      <trkpt lat="42.5564100" lon="-8.6377460">
        <ele>30.8</ele>
        <time>2021-05-22T11:08:35Z</time>
      </trkpt>
      <trkpt lat="42.5564280" lon="-8.6377410">
        <ele>30.8</ele>
        <time>2021-05-22T11:08:36Z</time>
      </trkpt>
      <trkpt lat="42.5564380" lon="-8.6377380">
        <ele>30.8</ele>
        <time>2021-05-22T11:08:37Z</time>
      </trkpt>
      <trkpt lat="42.5564440" lon="-8.6377390">
        <ele>30.8</ele>
        <time>2021-05-22T11:08:38Z</time>
      </trkpt>
      <trkpt lat="42.5564560" lon="-8.6377380">
        <ele>30.8</ele>
        <time>2021-05-22T11:08:39Z</time>
      </trkpt>
      <trkpt lat="42.5564710" lon="-8.6377390">
        <ele>30.9</ele>
        <time>2021-05-22T11:08:40Z</time>
      </trkpt>
      <trkpt lat="42.5564980" lon="-8.6377330">
        <ele>30.9</ele>
        <time>2021-05-22T11:08:41Z</time>
      </trkpt>
      <trkpt lat="42.5565070" lon="-8.6377320">
        <ele>30.9</ele>
        <time>2021-05-22T11:08:42Z</time>
      </trkpt>
      <trkpt lat="42.5565170" lon="-8.6377300">
        <ele>30.9</ele>
        <time>2021-05-22T11:08:43Z</time>
      </trkpt>
      <trkpt lat="42.5565390" lon="-8.6377290">
        <ele>30.9</ele>
        <time>2021-05-22T11:08:44Z</time>
      </trkpt>
      <trkpt lat="42.5565490" lon="-8.6377300">
        <ele>30.9</ele>
        <time>2021-05-22T11:08:45Z</time>
      </trkpt>
      <trkpt lat="42.5565580" lon="-8.6377300">
        <ele>31.0</ele>
        <time>2021-05-22T11:08:46Z</time>
      </trkpt>
      <trkpt lat="42.5565750" lon="-8.6377250">
        <ele>31.0</ele>
        <time>2021-05-22T11:08:47Z</time>
      </trkpt>
      <trkpt lat="42.5565850" lon="-8.6377220">
        <ele>31.0</ele>
        <time>2021-05-22T11:08:48Z</time>
      </trkpt>
      <trkpt lat="42.5565970" lon="-8.6377270">
        <ele>31.0</ele>
        <time>2021-05-22T11:08:49Z</time>
      </trkpt>
      <trkpt lat="42.5566090" lon="-8.6377270">
        <ele>31.1</ele>
        <time>2021-05-22T11:08:50Z</time>
      </trkpt>
      <trkpt lat="42.5566170" lon="-8.6377280">
        <ele>31.1</ele>
        <time>2021-05-22T11:08:51Z</time>
      </trkpt>
      <trkpt lat="42.5566360" lon="-8.6377250">
        <ele>31.1</ele>
        <time>2021-05-22T11:08:52Z</time>
      </trkpt>
      <trkpt lat="42.5566460" lon="-8.6377250">
        <ele>31.1</ele>
        <time>2021-05-22T11:08:53Z</time>
      </trkpt>
      <trkpt lat="42.5566550" lon="-8.6377240">
        <ele>31.1</ele>
        <time>2021-05-22T11:08:54Z</time>
      </trkpt>
      <trkpt lat="42.5566670" lon="-8.6377190">
        <ele>31.2</ele>
        <time>2021-05-22T11:08:55Z</time>
      </trkpt>
      <trkpt lat="42.5566800" lon="-8.6377180">
        <ele>31.2</ele>
        <time>2021-05-22T11:08:56Z</time>
      </trkpt>
      <trkpt lat="42.5566860" lon="-8.6377200">
        <ele>31.2</ele>
        <time>2021-05-22T11:08:57Z</time>
      </trkpt>
      <trkpt lat="42.5567060" lon="-8.6377160">
        <ele>31.2</ele>
        <time>2021-05-22T11:08:58Z</time>
      </trkpt>
      <trkpt lat="42.5567140" lon="-8.6377170">
        <ele>31.3</ele>
        <time>2021-05-22T11:08:59Z</time>
      </trkpt>
      <trkpt lat="42.5567220" lon="-8.6377170">
        <ele>31.3</ele>
        <time>2021-05-22T11:09:00Z</time>
      </trkpt>
      <trkpt lat="42.5567320" lon="-8.6377130">
        <ele>31.3</ele>
        <time>2021-05-22T11:09:01Z</time>
      </trkpt>
      <trkpt lat="42.5567410" lon="-8.6377120">
        <ele>31.3</ele>
        <time>2021-05-22T11:09:02Z</time>
      </trkpt>
      <trkpt lat="42.5567530" lon="-8.6377010">
        <ele>31.3</ele>
        <time>2021-05-22T11:09:03Z</time>
      </trkpt>
      <trkpt lat="42.5567640" lon="-8.6376820">
        <ele>31.4</ele>
        <time>2021-05-22T11:09:04Z</time>
      </trkpt>
      <trkpt lat="42.5567710" lon="-8.6376690">
        <ele>31.4</ele>
        <time>2021-05-22T11:09:05Z</time>
      </trkpt>
      <trkpt lat="42.5567740" lon="-8.6376600">
        <ele>31.4</ele>
        <time>2021-05-22T11:09:06Z</time>
      </trkpt>
      <trkpt lat="42.5567910" lon="-8.6376500">
        <ele>31.5</ele>
        <time>2021-05-22T11:09:07Z</time>
      </trkpt>
      <trkpt lat="42.5568010" lon="-8.6376510">
        <ele>31.5</ele>
        <time>2021-05-22T11:09:08Z</time>
      </trkpt>
      <trkpt lat="42.5568170" lon="-8.6376520">
        <ele>31.5</ele>
        <time>2021-05-22T11:09:09Z</time>
      </trkpt>
      <trkpt lat="42.5568250" lon="-8.6376530">
        <ele>31.5</ele>
        <time>2021-05-22T11:09:10Z</time>
      </trkpt>
      <trkpt lat="42.5568320" lon="-8.6376530">
        <ele>31.6</ele>
        <time>2021-05-22T11:09:11Z</time>
      </trkpt>
      <trkpt lat="42.5568400" lon="-8.6376540">
        <ele>31.6</ele>
        <time>2021-05-22T11:09:12Z</time>
      </trkpt>
      <trkpt lat="42.5568630" lon="-8.6376490">
        <ele>31.6</ele>
        <time>2021-05-22T11:09:13Z</time>
      </trkpt>
      <trkpt lat="42.5568720" lon="-8.6376470">
        <ele>31.6</ele>
        <time>2021-05-22T11:09:14Z</time>
      </trkpt>
      <trkpt lat="42.5568800" lon="-8.6376450">
        <ele>31.7</ele>
        <time>2021-05-22T11:09:15Z</time>
      </trkpt>
      <trkpt lat="42.5568920" lon="-8.6376430">
        <ele>31.7</ele>
        <time>2021-05-22T11:09:16Z</time>
      </trkpt>
      <trkpt lat="42.5568930" lon="-8.6376380">
        <ele>31.7</ele>
        <time>2021-05-22T11:09:17Z</time>
      </trkpt>
      <trkpt lat="42.5569090" lon="-8.6376350">
        <ele>31.7</ele>
        <time>2021-05-22T11:09:18Z</time>
      </trkpt>
      <trkpt lat="42.5569250" lon="-8.6376340">
        <ele>31.8</ele>
        <time>2021-05-22T11:09:19Z</time>
      </trkpt>
      <trkpt lat="42.5569350" lon="-8.6376330">
        <ele>31.8</ele>
        <time>2021-05-22T11:09:20Z</time>
      </trkpt>
      <trkpt lat="42.5569390" lon="-8.6376300">
        <ele>31.8</ele>
        <time>2021-05-22T11:09:21Z</time>
      </trkpt>
      <trkpt lat="42.5569640" lon="-8.6376300">
        <ele>31.8</ele>
        <time>2021-05-22T11:09:22Z</time>
      </trkpt>
      <trkpt lat="42.5569720" lon="-8.6376290">
        <ele>31.9</ele>
        <time>2021-05-22T11:09:23Z</time>
      </trkpt>
      <trkpt lat="42.5569810" lon="-8.6376290">
        <ele>31.9</ele>
        <time>2021-05-22T11:09:24Z</time>
      </trkpt>
      <trkpt lat="42.5569950" lon="-8.6376280">
        <ele>31.9</ele>
        <time>2021-05-22T11:09:25Z</time>
      </trkpt>
      <trkpt lat="42.5570000" lon="-8.6376280">
        <ele>31.9</ele>
        <time>2021-05-22T11:09:26Z</time>
      </trkpt>
      <trkpt lat="42.5570120" lon="-8.6376230">
        <ele>31.9</ele>
        <time>2021-05-22T11:09:27Z</time>
      </trkpt>
      <trkpt lat="42.5570250" lon="-8.6376230">
        <ele>32.0</ele>
        <time>2021-05-22T11:09:28Z</time>
      </trkpt>
      <trkpt lat="42.5570260" lon="-8.6376250">
        <ele>32.0</ele>
        <time>2021-05-22T11:09:29Z</time>
      </trkpt>
      <trkpt lat="42.5570300" lon="-8.6376210">
        <ele>32.0</ele>
        <time>2021-05-22T11:09:30Z</time>
      </trkpt>
      <trkpt lat="42.5570430" lon="-8.6376150">
        <ele>32.0</ele>
        <time>2021-05-22T11:09:31Z</time>
      </trkpt>
      <trkpt lat="42.5570440" lon="-8.6376150">
        <ele>32.0</ele>
        <time>2021-05-22T11:09:32Z</time>
      </trkpt>
      <trkpt lat="42.5570530" lon="-8.6376160">
        <ele>32.0</ele>
        <time>2021-05-22T11:09:33Z</time>
      </trkpt>
      <trkpt lat="42.5570660" lon="-8.6376140">
        <ele>32.0</ele>
        <time>2021-05-22T11:09:34Z</time>
      </trkpt>
      <trkpt lat="42.5570740" lon="-8.6376140">
        <ele>32.1</ele>
        <time>2021-05-22T11:09:35Z</time>
      </trkpt>
      <trkpt lat="42.5570860" lon="-8.6376150">
        <ele>32.1</ele>
        <time>2021-05-22T11:09:36Z</time>
      </trkpt>
      <trkpt lat="42.5570990" lon="-8.6376100">
        <ele>32.1</ele>
        <time>2021-05-22T11:09:37Z</time>
      </trkpt>
      <trkpt lat="42.5571100" lon="-8.6376150">
        <ele>32.1</ele>
        <time>2021-05-22T11:09:38Z</time>
      </trkpt>
      <trkpt lat="42.5571290" lon="-8.6376060">
        <ele>32.2</ele>
        <time>2021-05-22T11:09:39Z</time>
      </trkpt>
      <trkpt lat="42.5571370" lon="-8.6375990">
        <ele>32.2</ele>
        <time>2021-05-22T11:09:40Z</time>
      </trkpt>
      <trkpt lat="42.5571450" lon="-8.6375920">
        <ele>32.2</ele>
        <time>2021-05-22T11:09:41Z</time>
      </trkpt>
      <trkpt lat="42.5571620" lon="-8.6375850">
        <ele>32.2</ele>
        <time>2021-05-22T11:09:42Z</time>
      </trkpt>
      <trkpt lat="42.5571720" lon="-8.6375840">
        <ele>32.2</ele>
        <time>2021-05-22T11:09:43Z</time>
      </trkpt>
      <trkpt lat="42.5571810" lon="-8.6375820">
        <ele>32.2</ele>
        <time>2021-05-22T11:09:44Z</time>
      </trkpt>
      <trkpt lat="42.5571960" lon="-8.6375770">
        <ele>32.2</ele>
        <time>2021-05-22T11:09:45Z</time>
      </trkpt>
      <trkpt lat="42.5572100" lon="-8.6375750">
        <ele>32.3</ele>
        <time>2021-05-22T11:09:46Z</time>
      </trkpt>
      <trkpt lat="42.5572180" lon="-8.6375730">
        <ele>32.3</ele>
        <time>2021-05-22T11:09:47Z</time>
      </trkpt>
      <trkpt lat="42.5572280" lon="-8.6375710">
        <ele>32.3</ele>
        <time>2021-05-22T11:09:48Z</time>
      </trkpt>
      <trkpt lat="42.5572420" lon="-8.6375730">
        <ele>32.3</ele>
        <time>2021-05-22T11:09:49Z</time>
      </trkpt>
      <trkpt lat="42.5572490" lon="-8.6375750">
        <ele>32.3</ele>
        <time>2021-05-22T11:09:50Z</time>
      </trkpt>
      <trkpt lat="42.5572490" lon="-8.6375780">
        <ele>32.3</ele>
        <time>2021-05-22T11:09:51Z</time>
      </trkpt>
      <trkpt lat="42.5572550" lon="-8.6375840">
        <ele>32.3</ele>
        <time>2021-05-22T11:09:52Z</time>
      </trkpt>
      <trkpt lat="42.5572620" lon="-8.6375880">
        <ele>32.4</ele>
        <time>2021-05-22T11:09:53Z</time>
      </trkpt>
      <trkpt lat="42.5572660" lon="-8.6375930">
        <ele>32.4</ele>
        <time>2021-05-22T11:09:54Z</time>
      </trkpt>
      <trkpt lat="42.5572710" lon="-8.6375990">
        <ele>32.4</ele>
        <time>2021-05-22T11:09:55Z</time>
      </trkpt>
      <trkpt lat="42.5572720" lon="-8.6375990">
        <ele>32.4</ele>
        <time>2021-05-22T11:09:56Z</time>
      </trkpt>
      <trkpt lat="42.5572720" lon="-8.6375990">
        <ele>32.4</ele>
        <time>2021-05-22T11:09:57Z</time>
      </trkpt>
      <trkpt lat="42.5572830" lon="-8.6376120">
        <ele>32.4</ele>
        <time>2021-05-22T11:09:58Z</time>
      </trkpt>
      <trkpt lat="42.5572830" lon="-8.6376120">
        <ele>32.4</ele>
        <time>2021-05-22T11:09:59Z</time>
      </trkpt>
      <trkpt lat="42.5572870" lon="-8.6376170">
        <ele>32.4</ele>
        <time>2021-05-22T11:10:00Z</time>
      </trkpt>
      <trkpt lat="42.5572960" lon="-8.6376160">
        <ele>32.4</ele>
        <time>2021-05-22T11:10:01Z</time>
      </trkpt>
      <trkpt lat="42.5573070" lon="-8.6376080">
        <ele>32.4</ele>
        <time>2021-05-22T11:10:02Z</time>
      </trkpt>
      <trkpt lat="42.5573110" lon="-8.6376050">
        <ele>32.5</ele>
        <time>2021-05-22T11:10:03Z</time>
      </trkpt>
      <trkpt lat="42.5573210" lon="-8.6375990">
        <ele>32.5</ele>
        <time>2021-05-22T11:10:04Z</time>
      </trkpt>
      <trkpt lat="42.5573390" lon="-8.6375950">
        <ele>32.5</ele>
        <time>2021-05-22T11:10:05Z</time>
      </trkpt>
      <trkpt lat="42.5573470" lon="-8.6375930">
        <ele>32.5</ele>
        <time>2021-05-22T11:10:06Z</time>
      </trkpt>
      <trkpt lat="42.5573540" lon="-8.6375920">
        <ele>32.5</ele>
        <time>2021-05-22T11:10:07Z</time>
      </trkpt>
      <trkpt lat="42.5573610" lon="-8.6375900">
        <ele>32.6</ele>
        <time>2021-05-22T11:10:08Z</time>
      </trkpt>
      <trkpt lat="42.5573660" lon="-8.6375900">
        <ele>32.6</ele>
        <time>2021-05-22T11:10:09Z</time>
      </trkpt>
      <trkpt lat="42.5573760" lon="-8.6375880">
        <ele>32.6</ele>
        <time>2021-05-22T11:10:10Z</time>
      </trkpt>
      <trkpt lat="42.5573900" lon="-8.6375830">
        <ele>32.6</ele>
        <time>2021-05-22T11:10:11Z</time>
      </trkpt>
      <trkpt lat="42.5573930" lon="-8.6375770">
        <ele>32.6</ele>
        <time>2021-05-22T11:10:12Z</time>
      </trkpt>
      <trkpt lat="42.5573990" lon="-8.6375650">
        <ele>32.7</ele>
        <time>2021-05-22T11:10:13Z</time>
      </trkpt>
      <trkpt lat="42.5573990" lon="-8.6375590">
        <ele>32.7</ele>
        <time>2021-05-22T11:10:14Z</time>
      </trkpt>
      <trkpt lat="42.5574050" lon="-8.6375560">
        <ele>32.7</ele>
        <time>2021-05-22T11:10:15Z</time>
      </trkpt>
      <trkpt lat="42.5574140" lon="-8.6375540">
        <ele>32.7</ele>
        <time>2021-05-22T11:10:16Z</time>
      </trkpt>
      <trkpt lat="42.5574230" lon="-8.6375590">
        <ele>32.7</ele>
        <time>2021-05-22T11:10:17Z</time>
      </trkpt>
      <trkpt lat="42.5574370" lon="-8.6375560">
        <ele>32.8</ele>
        <time>2021-05-22T11:10:18Z</time>
      </trkpt>
      <trkpt lat="42.5574500" lon="-8.6375530">
        <ele>32.8</ele>
        <time>2021-05-22T11:10:19Z</time>
      </trkpt>
      <trkpt lat="42.5574610" lon="-8.6375480">
        <ele>32.8</ele>
        <time>2021-05-22T11:10:20Z</time>
      </trkpt>
      <trkpt lat="42.5574610" lon="-8.6375420">
        <ele>32.9</ele>
        <time>2021-05-22T11:10:21Z</time>
      </trkpt>
      <trkpt lat="42.5574690" lon="-8.6375350">
        <ele>32.9</ele>
        <time>2021-05-22T11:10:22Z</time>
      </trkpt>
      <trkpt lat="42.5574710" lon="-8.6375290">
        <ele>32.9</ele>
        <time>2021-05-22T11:10:23Z</time>
      </trkpt>
      <trkpt lat="42.5574920" lon="-8.6375250">
        <ele>33.0</ele>
        <time>2021-05-22T11:10:24Z</time>
      </trkpt>
      <trkpt lat="42.5574980" lon="-8.6375190">
        <ele>33.0</ele>
        <time>2021-05-22T11:10:25Z</time>
      </trkpt>
      <trkpt lat="42.5575030" lon="-8.6375140">
        <ele>33.0</ele>
        <time>2021-05-22T11:10:26Z</time>
      </trkpt>
      <trkpt lat="42.5575080" lon="-8.6375080">
        <ele>33.0</ele>
        <time>2021-05-22T11:10:27Z</time>
      </trkpt>
      <trkpt lat="42.5575330" lon="-8.6375100">
        <ele>33.1</ele>
        <time>2021-05-22T11:10:28Z</time>
      </trkpt>
      <trkpt lat="42.5575460" lon="-8.6375140">
        <ele>33.1</ele>
        <time>2021-05-22T11:10:29Z</time>
      </trkpt>
      <trkpt lat="42.5575640" lon="-8.6375130">
        <ele>33.2</ele>
        <time>2021-05-22T11:10:30Z</time>
      </trkpt>
      <trkpt lat="42.5575740" lon="-8.6375110">
        <ele>33.2</ele>
        <time>2021-05-22T11:10:31Z</time>
      </trkpt>
      <trkpt lat="42.5575970" lon="-8.6375060">
        <ele>33.3</ele>
        <time>2021-05-22T11:10:32Z</time>
      </trkpt>
      <trkpt lat="42.5576060" lon="-8.6375080">
        <ele>33.3</ele>
        <time>2021-05-22T11:10:33Z</time>
      </trkpt>
      <trkpt lat="42.5576160" lon="-8.6375090">
        <ele>33.3</ele>
        <time>2021-05-22T11:10:34Z</time>
      </trkpt>
      <trkpt lat="42.5576330" lon="-8.6375160">
        <ele>33.4</ele>
        <time>2021-05-22T11:10:35Z</time>
      </trkpt>
      <trkpt lat="42.5576470" lon="-8.6375130">
        <ele>33.4</ele>
        <time>2021-05-22T11:10:36Z</time>
      </trkpt>
      <trkpt lat="42.5576700" lon="-8.6375210">
        <ele>33.5</ele>
        <time>2021-05-22T11:10:37Z</time>
      </trkpt>
      <trkpt lat="42.5576820" lon="-8.6375240">
        <ele>33.6</ele>
        <time>2021-05-22T11:10:38Z</time>
      </trkpt>
      <trkpt lat="42.5576940" lon="-8.6375280">
        <ele>33.6</ele>
        <time>2021-05-22T11:10:39Z</time>
      </trkpt>
      <trkpt lat="42.5577190" lon="-8.6375360">
        <ele>33.7</ele>
        <time>2021-05-22T11:10:40Z</time>
      </trkpt>
      <trkpt lat="42.5577310" lon="-8.6375390">
        <ele>33.7</ele>
        <time>2021-05-22T11:10:41Z</time>
      </trkpt>
      <trkpt lat="42.5577680" lon="-8.6375430">
        <ele>33.9</ele>
        <time>2021-05-22T11:10:42Z</time>
      </trkpt>
      <trkpt lat="42.5577800" lon="-8.6375430">
        <ele>33.9</ele>
        <time>2021-05-22T11:10:43Z</time>
      </trkpt>
      <trkpt lat="42.5577940" lon="-8.6375430">
        <ele>34.0</ele>
        <time>2021-05-22T11:10:44Z</time>
      </trkpt>
      <trkpt lat="42.5578110" lon="-8.6375470">
        <ele>34.0</ele>
        <time>2021-05-22T11:10:45Z</time>
      </trkpt>
      <trkpt lat="42.5578220" lon="-8.6375510">
        <ele>34.1</ele>
        <time>2021-05-22T11:10:46Z</time>
      </trkpt>
      <trkpt lat="42.5578390" lon="-8.6375440">
        <ele>34.1</ele>
        <time>2021-05-22T11:10:47Z</time>
      </trkpt>
      <trkpt lat="42.5578530" lon="-8.6375490">
        <ele>34.2</ele>
        <time>2021-05-22T11:10:48Z</time>
      </trkpt>
      <trkpt lat="42.5578600" lon="-8.6375490">
        <ele>34.2</ele>
        <time>2021-05-22T11:10:49Z</time>
      </trkpt>
      <trkpt lat="42.5578680" lon="-8.6375480">
        <ele>34.2</ele>
        <time>2021-05-22T11:10:50Z</time>
      </trkpt>
      <trkpt lat="42.5578750" lon="-8.6375480">
        <ele>34.3</ele>
        <time>2021-05-22T11:10:51Z</time>
      </trkpt>
      <trkpt lat="42.5578830" lon="-8.6375470">
        <ele>34.3</ele>
        <time>2021-05-22T11:10:52Z</time>
      </trkpt>
      <trkpt lat="42.5578990" lon="-8.6375350">
        <ele>34.4</ele>
        <time>2021-05-22T11:10:53Z</time>
      </trkpt>
      <trkpt lat="42.5579010" lon="-8.6375350">
        <ele>34.4</ele>
        <time>2021-05-22T11:10:54Z</time>
      </trkpt>
      <trkpt lat="42.5579110" lon="-8.6375300">
        <ele>34.4</ele>
        <time>2021-05-22T11:10:55Z</time>
      </trkpt>
      <trkpt lat="42.5579210" lon="-8.6375270">
        <ele>34.5</ele>
        <time>2021-05-22T11:10:56Z</time>
      </trkpt>
      <trkpt lat="42.5579320" lon="-8.6375240">
        <ele>34.5</ele>
        <time>2021-05-22T11:10:57Z</time>
      </trkpt>
      <trkpt lat="42.5579430" lon="-8.6375270">
        <ele>34.5</ele>
        <time>2021-05-22T11:10:58Z</time>
      </trkpt>
      <trkpt lat="42.5579510" lon="-8.6375270">
        <ele>34.6</ele>
        <time>2021-05-22T11:10:59Z</time>
      </trkpt>
      <trkpt lat="42.5579560" lon="-8.6375280">
        <ele>34.6</ele>
        <time>2021-05-22T11:11:00Z</time>
      </trkpt>
      <trkpt lat="42.5579620" lon="-8.6375270">
        <ele>34.6</ele>
        <time>2021-05-22T11:11:01Z</time>
      </trkpt>
      <trkpt lat="42.5579750" lon="-8.6375290">
        <ele>34.7</ele>
        <time>2021-05-22T11:11:02Z</time>
      </trkpt>
      <trkpt lat="42.5579830" lon="-8.6375240">
        <ele>34.7</ele>
        <time>2021-05-22T11:11:03Z</time>
      </trkpt>
      <trkpt lat="42.5579930" lon="-8.6375240">
        <ele>34.7</ele>
        <time>2021-05-22T11:11:04Z</time>
      </trkpt>
      <trkpt lat="42.5580030" lon="-8.6375190">
        <ele>34.8</ele>
        <time>2021-05-22T11:11:05Z</time>
      </trkpt>
      <trkpt lat="42.5580080" lon="-8.6375100">
        <ele>34.8</ele>
        <time>2021-05-22T11:11:06Z</time>
      </trkpt>
      <trkpt lat="42.5580190" lon="-8.6375100">
        <ele>34.9</ele>
        <time>2021-05-22T11:11:07Z</time>
      </trkpt>
      <trkpt lat="42.5580350" lon="-8.6375060">
        <ele>34.9</ele>
        <time>2021-05-22T11:11:08Z</time>
      </trkpt>
      <trkpt lat="42.5580450" lon="-8.6375100">
        <ele>35.0</ele>
        <time>2021-05-22T11:11:09Z</time>
      </trkpt>
      <trkpt lat="42.5580570" lon="-8.6375100">
        <ele>35.0</ele>
        <time>2021-05-22T11:11:10Z</time>
      </trkpt>
      <trkpt lat="42.5580690" lon="-8.6375140">
        <ele>35.1</ele>
        <time>2021-05-22T11:11:11Z</time>
      </trkpt>
      <trkpt lat="42.5580830" lon="-8.6375100">
        <ele>35.1</ele>
        <time>2021-05-22T11:11:12Z</time>
      </trkpt>
      <trkpt lat="42.5581010" lon="-8.6375070">
        <ele>35.2</ele>
        <time>2021-05-22T11:11:13Z</time>
      </trkpt>
      <trkpt lat="42.5581080" lon="-8.6375060">
        <ele>35.2</ele>
        <time>2021-05-22T11:11:14Z</time>
      </trkpt>
      <trkpt lat="42.5581200" lon="-8.6375070">
        <ele>35.2</ele>
        <time>2021-05-22T11:11:15Z</time>
      </trkpt>
      <trkpt lat="42.5581220" lon="-8.6375010">
        <ele>35.2</ele>
        <time>2021-05-22T11:11:16Z</time>
      </trkpt>
      <trkpt lat="42.5581230" lon="-8.6374950">
        <ele>35.3</ele>
        <time>2021-05-22T11:11:17Z</time>
      </trkpt>
      <trkpt lat="42.5581310" lon="-8.6374840">
        <ele>35.3</ele>
        <time>2021-05-22T11:11:18Z</time>
      </trkpt>
      <trkpt lat="42.5581420" lon="-8.6374860">
        <ele>35.3</ele>
        <time>2021-05-22T11:11:19Z</time>
      </trkpt>
      <trkpt lat="42.5581630" lon="-8.6374830">
        <ele>35.4</ele>
        <time>2021-05-22T11:11:20Z</time>
      </trkpt>
      <trkpt lat="42.5581910" lon="-8.6374890">
        <ele>35.5</ele>
        <time>2021-05-22T11:11:21Z</time>
      </trkpt>
      <trkpt lat="42.5582000" lon="-8.6374940">
        <ele>35.5</ele>
        <time>2021-05-22T11:11:22Z</time>
      </trkpt>
      <trkpt lat="42.5582080" lon="-8.6375050">
        <ele>35.4</ele>
        <time>2021-05-22T11:11:23Z</time>
      </trkpt>
      <trkpt lat="42.5582170" lon="-8.6375160">
        <ele>35.3</ele>
        <time>2021-05-22T11:11:24Z</time>
      </trkpt>
      <trkpt lat="42.5582220" lon="-8.6375300">
        <ele>35.2</ele>
        <time>2021-05-22T11:11:25Z</time>
      </trkpt>
      <trkpt lat="42.5582290" lon="-8.6375460">
        <ele>35.1</ele>
        <time>2021-05-22T11:11:26Z</time>
      </trkpt>
      <trkpt lat="42.5582430" lon="-8.6375560">
        <ele>35.0</ele>
        <time>2021-05-22T11:11:27Z</time>
      </trkpt>
      <trkpt lat="42.5582510" lon="-8.6375640">
        <ele>34.9</ele>
        <time>2021-05-22T11:11:28Z</time>
      </trkpt>
      <trkpt lat="42.5582600" lon="-8.6375740">
        <ele>34.9</ele>
        <time>2021-05-22T11:11:29Z</time>
      </trkpt>
      <trkpt lat="42.5582670" lon="-8.6375820">
        <ele>34.8</ele>
        <time>2021-05-22T11:11:30Z</time>
      </trkpt>
      <trkpt lat="42.5582730" lon="-8.6375920">
        <ele>34.7</ele>
        <time>2021-05-22T11:11:31Z</time>
      </trkpt>
      <trkpt lat="42.5582930" lon="-8.6376040">
        <ele>34.6</ele>
        <time>2021-05-22T11:11:32Z</time>
      </trkpt>
      <trkpt lat="42.5583040" lon="-8.6376080">
        <ele>34.5</ele>
        <time>2021-05-22T11:11:33Z</time>
      </trkpt>
      <trkpt lat="42.5583100" lon="-8.6376190">
        <ele>34.4</ele>
        <time>2021-05-22T11:11:34Z</time>
      </trkpt>
      <trkpt lat="42.5583150" lon="-8.6376420">
        <ele>34.3</ele>
        <time>2021-05-22T11:11:35Z</time>
      </trkpt>
      <trkpt lat="42.5583240" lon="-8.6376620">
        <ele>34.1</ele>
        <time>2021-05-22T11:11:36Z</time>
      </trkpt>
      <trkpt lat="42.5583320" lon="-8.6376780">
        <ele>34.0</ele>
        <time>2021-05-22T11:11:37Z</time>
      </trkpt>
      <trkpt lat="42.5583370" lon="-8.6376930">
        <ele>33.9</ele>
        <time>2021-05-22T11:11:38Z</time>
      </trkpt>
      <trkpt lat="42.5583450" lon="-8.6377090">
        <ele>33.8</ele>
        <time>2021-05-22T11:11:39Z</time>
      </trkpt>
      <trkpt lat="42.5583550" lon="-8.6377140">
        <ele>33.8</ele>
        <time>2021-05-22T11:11:40Z</time>
      </trkpt>
      <trkpt lat="42.5583600" lon="-8.6377250">
        <ele>33.7</ele>
        <time>2021-05-22T11:11:41Z</time>
      </trkpt>
      <trkpt lat="42.5583690" lon="-8.6377350">
        <ele>33.6</ele>
        <time>2021-05-22T11:11:42Z</time>
      </trkpt>
      <trkpt lat="42.5583730" lon="-8.6377430">
        <ele>33.6</ele>
        <time>2021-05-22T11:11:43Z</time>
      </trkpt>
      <trkpt lat="42.5583820" lon="-8.6377430">
        <ele>33.5</ele>
        <time>2021-05-22T11:11:44Z</time>
      </trkpt>
      <trkpt lat="42.5583910" lon="-8.6377480">
        <ele>33.5</ele>
        <time>2021-05-22T11:11:45Z</time>
      </trkpt>
      <trkpt lat="42.5583980" lon="-8.6377570">
        <ele>33.4</ele>
        <time>2021-05-22T11:11:46Z</time>
      </trkpt>
      <trkpt lat="42.5584060" lon="-8.6377600">
        <ele>33.4</ele>
        <time>2021-05-22T11:11:47Z</time>
      </trkpt>
      <trkpt lat="42.5584140" lon="-8.6377640">
        <ele>33.3</ele>
        <time>2021-05-22T11:11:48Z</time>
      </trkpt>
      <trkpt lat="42.5584350" lon="-8.6377670">
        <ele>33.2</ele>
        <time>2021-05-22T11:11:49Z</time>
      </trkpt>
      <trkpt lat="42.5584430" lon="-8.6377730">
        <ele>33.1</ele>
        <time>2021-05-22T11:11:50Z</time>
      </trkpt>
      <trkpt lat="42.5584510" lon="-8.6377750">
        <ele>33.1</ele>
        <time>2021-05-22T11:11:51Z</time>
      </trkpt>
      <trkpt lat="42.5584570" lon="-8.6377790">
        <ele>33.1</ele>
        <time>2021-05-22T11:11:52Z</time>
      </trkpt>
      <trkpt lat="42.5584650" lon="-8.6377780">
        <ele>33.0</ele>
        <time>2021-05-22T11:11:53Z</time>
      </trkpt>
      <trkpt lat="42.5584790" lon="-8.6377820">
        <ele>33.0</ele>
        <time>2021-05-22T11:11:54Z</time>
      </trkpt>
      <trkpt lat="42.5584800" lon="-8.6377870">
        <ele>33.0</ele>
        <time>2021-05-22T11:11:55Z</time>
      </trkpt>
      <trkpt lat="42.5584840" lon="-8.6377870">
        <ele>32.9</ele>
        <time>2021-05-22T11:11:56Z</time>
      </trkpt>
      <trkpt lat="42.5584910" lon="-8.6377890">
        <ele>32.9</ele>
        <time>2021-05-22T11:11:57Z</time>
      </trkpt>
      <trkpt lat="42.5585090" lon="-8.6377950">
        <ele>32.8</ele>
        <time>2021-05-22T11:11:58Z</time>
      </trkpt>
      <trkpt lat="42.5585170" lon="-8.6378000">
        <ele>32.8</ele>
        <time>2021-05-22T11:11:59Z</time>
      </trkpt>
      <trkpt lat="42.5585260" lon="-8.6377970">
        <ele>32.8</ele>
        <time>2021-05-22T11:12:00Z</time>
      </trkpt>
      <trkpt lat="42.5585390" lon="-8.6378050">
        <ele>32.7</ele>
        <time>2021-05-22T11:12:01Z</time>
      </trkpt>
      <trkpt lat="42.5585510" lon="-8.6378030">
        <ele>32.7</ele>
        <time>2021-05-22T11:12:02Z</time>
      </trkpt>
      <trkpt lat="42.5585550" lon="-8.6378050">
        <ele>32.7</ele>
        <time>2021-05-22T11:12:03Z</time>
      </trkpt>
      <trkpt lat="42.5585590" lon="-8.6378110">
        <ele>32.6</ele>
        <time>2021-05-22T11:12:04Z</time>
      </trkpt>
      <trkpt lat="42.5585610" lon="-8.6378120">
        <ele>32.6</ele>
        <time>2021-05-22T11:12:05Z</time>
      </trkpt>
      <trkpt lat="42.5585790" lon="-8.6378110">
        <ele>32.6</ele>
        <time>2021-05-22T11:12:06Z</time>
      </trkpt>
      <trkpt lat="42.5585800" lon="-8.6378120">
        <ele>32.6</ele>
        <time>2021-05-22T11:12:07Z</time>
      </trkpt>
      <trkpt lat="42.5585870" lon="-8.6378190">
        <ele>32.6</ele>
        <time>2021-05-22T11:12:08Z</time>
      </trkpt>
      <trkpt lat="42.5586050" lon="-8.6378260">
        <ele>32.5</ele>
        <time>2021-05-22T11:12:09Z</time>
      </trkpt>
      <trkpt lat="42.5586160" lon="-8.6378350">
        <ele>32.5</ele>
        <time>2021-05-22T11:12:10Z</time>
      </trkpt>
      <trkpt lat="42.5586280" lon="-8.6378390">
        <ele>32.5</ele>
        <time>2021-05-22T11:12:11Z</time>
      </trkpt>
      <trkpt lat="42.5586350" lon="-8.6378440">
        <ele>32.4</ele>
        <time>2021-05-22T11:12:12Z</time>
      </trkpt>
      <trkpt lat="42.5586460" lon="-8.6378500">
        <ele>32.4</ele>
        <time>2021-05-22T11:12:13Z</time>
      </trkpt>
      <trkpt lat="42.5586500" lon="-8.6378560">
        <ele>32.4</ele>
        <time>2021-05-22T11:12:14Z</time>
      </trkpt>
      <trkpt lat="42.5586510" lon="-8.6378530">
        <ele>32.4</ele>
        <time>2021-05-22T11:12:15Z</time>
      </trkpt>
      <trkpt lat="42.5586650" lon="-8.6378580">
        <ele>32.4</ele>
        <time>2021-05-22T11:12:16Z</time>
      </trkpt>
      <trkpt lat="42.5586720" lon="-8.6378610">
        <ele>32.4</ele>
        <time>2021-05-22T11:12:17Z</time>
      </trkpt>
      <trkpt lat="42.5586910" lon="-8.6378690">
        <ele>32.3</ele>
        <time>2021-05-22T11:12:18Z</time>
      </trkpt>
      <trkpt lat="42.5587010" lon="-8.6378770">
        <ele>32.3</ele>
        <time>2021-05-22T11:12:19Z</time>
      </trkpt>
      <trkpt lat="42.5587160" lon="-8.6378840">
        <ele>32.3</ele>
        <time>2021-05-22T11:12:20Z</time>
      </trkpt>
      <trkpt lat="42.5587390" lon="-8.6378920">
        <ele>32.3</ele>
        <time>2021-05-22T11:12:21Z</time>
      </trkpt>
      <trkpt lat="42.5587510" lon="-8.6378950">
        <ele>32.3</ele>
        <time>2021-05-22T11:12:22Z</time>
      </trkpt>
      <trkpt lat="42.5587690" lon="-8.6379080">
        <ele>32.3</ele>
        <time>2021-05-22T11:12:23Z</time>
      </trkpt>
      <trkpt lat="42.5587810" lon="-8.6379140">
        <ele>32.3</ele>
        <time>2021-05-22T11:12:24Z</time>
      </trkpt>
      <trkpt lat="42.5587920" lon="-8.6379210">
        <ele>32.3</ele>
        <time>2021-05-22T11:12:25Z</time>
      </trkpt>
      <trkpt lat="42.5588100" lon="-8.6379320">
        <ele>32.3</ele>
        <time>2021-05-22T11:12:26Z</time>
      </trkpt>
      <trkpt lat="42.5588160" lon="-8.6379370">
        <ele>32.3</ele>
        <time>2021-05-22T11:12:27Z</time>
      </trkpt>
      <trkpt lat="42.5588210" lon="-8.6379440">
        <ele>32.3</ele>
        <time>2021-05-22T11:12:28Z</time>
      </trkpt>
      <trkpt lat="42.5588350" lon="-8.6379570">
        <ele>32.3</ele>
        <time>2021-05-22T11:12:29Z</time>
      </trkpt>
      <trkpt lat="42.5588440" lon="-8.6379670">
        <ele>32.3</ele>
        <time>2021-05-22T11:12:30Z</time>
      </trkpt>
      <trkpt lat="42.5588560" lon="-8.6379780">
        <ele>32.3</ele>
        <time>2021-05-22T11:12:31Z</time>
      </trkpt>
      <trkpt lat="42.5588650" lon="-8.6379950">
        <ele>32.3</ele>
        <time>2021-05-22T11:12:32Z</time>
      </trkpt>
      <trkpt lat="42.5588780" lon="-8.6380110">
        <ele>32.3</ele>
        <time>2021-05-22T11:12:33Z</time>
      </trkpt>
      <trkpt lat="42.5588880" lon="-8.6380170">
        <ele>32.3</ele>
        <time>2021-05-22T11:12:34Z</time>
      </trkpt>
      <trkpt lat="42.5588970" lon="-8.6380220">
        <ele>32.4</ele>
        <time>2021-05-22T11:12:35Z</time>
      </trkpt>
      <trkpt lat="42.5589110" lon="-8.6380260">
        <ele>32.4</ele>
        <time>2021-05-22T11:12:36Z</time>
      </trkpt>
      <trkpt lat="42.5589250" lon="-8.6380350">
        <ele>32.4</ele>
        <time>2021-05-22T11:12:37Z</time>
      </trkpt>
      <trkpt lat="42.5589370" lon="-8.6380500">
        <ele>32.4</ele>
        <time>2021-05-22T11:12:38Z</time>
      </trkpt>
      <trkpt lat="42.5589460" lon="-8.6380570">
        <ele>32.4</ele>
        <time>2021-05-22T11:12:39Z</time>
      </trkpt>
      <trkpt lat="42.5589540" lon="-8.6380650">
        <ele>32.4</ele>
        <time>2021-05-22T11:12:40Z</time>
      </trkpt>
      <trkpt lat="42.5589650" lon="-8.6380760">
        <ele>32.4</ele>
        <time>2021-05-22T11:12:41Z</time>
      </trkpt>
      <trkpt lat="42.5589830" lon="-8.6380910">
        <ele>32.5</ele>
        <time>2021-05-22T11:12:42Z</time>
      </trkpt>
      <trkpt lat="42.5589860" lon="-8.6381020">
        <ele>32.5</ele>
        <time>2021-05-22T11:12:43Z</time>
      </trkpt>
      <trkpt lat="42.5589970" lon="-8.6381060">
        <ele>32.5</ele>
        <time>2021-05-22T11:12:44Z</time>
      </trkpt>
      <trkpt lat="42.5590080" lon="-8.6381180">
        <ele>32.5</ele>
        <time>2021-05-22T11:12:45Z</time>
      </trkpt>
      <trkpt lat="42.5590180" lon="-8.6381330">
        <ele>32.5</ele>
        <time>2021-05-22T11:12:46Z</time>
      </trkpt>
      <trkpt lat="42.5590240" lon="-8.6381390">
        <ele>32.5</ele>
        <time>2021-05-22T11:12:47Z</time>
      </trkpt>
      <trkpt lat="42.5590350" lon="-8.6381470">
        <ele>32.6</ele>
        <time>2021-05-22T11:12:48Z</time>
      </trkpt>
      <trkpt lat="42.5590400" lon="-8.6381540">
        <ele>32.6</ele>
        <time>2021-05-22T11:12:49Z</time>
      </trkpt>
      <trkpt lat="42.5590470" lon="-8.6381630">
        <ele>32.6</ele>
        <time>2021-05-22T11:12:50Z</time>
      </trkpt>
      <trkpt lat="42.5590640" lon="-8.6381780">
        <ele>32.6</ele>
        <time>2021-05-22T11:12:51Z</time>
      </trkpt>
      <trkpt lat="42.5590870" lon="-8.6381970">
        <ele>32.7</ele>
        <time>2021-05-22T11:12:53Z</time>
      </trkpt>
      <trkpt lat="42.5591000" lon="-8.6382020">
        <ele>32.7</ele>
        <time>2021-05-22T11:12:54Z</time>
      </trkpt>
      <trkpt lat="42.5591130" lon="-8.6382130">
        <ele>32.7</ele>
        <time>2021-05-22T11:12:55Z</time>
      </trkpt>
      <trkpt lat="42.5591180" lon="-8.6382110">
        <ele>32.7</ele>
        <time>2021-05-22T11:12:56Z</time>
      </trkpt>
      <trkpt lat="42.5591260" lon="-8.6382230">
        <ele>32.8</ele>
        <time>2021-05-22T11:12:57Z</time>
      </trkpt>
      <trkpt lat="42.5591410" lon="-8.6382330">
        <ele>32.8</ele>
        <time>2021-05-22T11:12:58Z</time>
      </trkpt>
      <trkpt lat="42.5591570" lon="-8.6382480">
        <ele>32.8</ele>
        <time>2021-05-22T11:12:59Z</time>
      </trkpt>
      <trkpt lat="42.5591580" lon="-8.6382490">
        <ele>32.8</ele>
        <time>2021-05-22T11:13:00Z</time>
      </trkpt>
      <trkpt lat="42.5591690" lon="-8.6382590">
        <ele>32.9</ele>
        <time>2021-05-22T11:13:01Z</time>
      </trkpt>
      <trkpt lat="42.5591740" lon="-8.6382710">
        <ele>32.9</ele>
        <time>2021-05-22T11:13:02Z</time>
      </trkpt>
      <trkpt lat="42.5591850" lon="-8.6382810">
        <ele>32.9</ele>
        <time>2021-05-22T11:13:03Z</time>
      </trkpt>
      <trkpt lat="42.5591970" lon="-8.6382890">
        <ele>32.9</ele>
        <time>2021-05-22T11:13:04Z</time>
      </trkpt>
      <trkpt lat="42.5592050" lon="-8.6383010">
        <ele>32.9</ele>
        <time>2021-05-22T11:13:05Z</time>
      </trkpt>
      <trkpt lat="42.5592160" lon="-8.6383090">
        <ele>33.0</ele>
        <time>2021-05-22T11:13:06Z</time>
      </trkpt>
      <trkpt lat="42.5592260" lon="-8.6383140">
        <ele>33.0</ele>
        <time>2021-05-22T11:13:07Z</time>
      </trkpt>
      <trkpt lat="42.5592300" lon="-8.6383260">
        <ele>33.0</ele>
        <time>2021-05-22T11:13:08Z</time>
      </trkpt>
      <trkpt lat="42.5592350" lon="-8.6383350">
        <ele>33.0</ele>
        <time>2021-05-22T11:13:09Z</time>
      </trkpt>
      <trkpt lat="42.5592450" lon="-8.6383430">
        <ele>33.0</ele>
        <time>2021-05-22T11:13:10Z</time>
      </trkpt>
      <trkpt lat="42.5592680" lon="-8.6383550">
        <ele>33.1</ele>
        <time>2021-05-22T11:13:11Z</time>
      </trkpt>
      <trkpt lat="42.5592750" lon="-8.6383600">
        <ele>33.1</ele>
        <time>2021-05-22T11:13:12Z</time>
      </trkpt>
      <trkpt lat="42.5592830" lon="-8.6383660">
        <ele>33.1</ele>
        <time>2021-05-22T11:13:13Z</time>
      </trkpt>
      <trkpt lat="42.5592970" lon="-8.6383740">
        <ele>33.2</ele>
        <time>2021-05-22T11:13:14Z</time>
      </trkpt>
      <trkpt lat="42.5593140" lon="-8.6383860">
        <ele>33.2</ele>
        <time>2021-05-22T11:13:15Z</time>
      </trkpt>
      <trkpt lat="42.5593300" lon="-8.6383970">
        <ele>33.2</ele>
        <time>2021-05-22T11:13:16Z</time>
      </trkpt>
      <trkpt lat="42.5593380" lon="-8.6384040">
        <ele>33.2</ele>
        <time>2021-05-22T11:13:17Z</time>
      </trkpt>
      <trkpt lat="42.5593450" lon="-8.6384110">
        <ele>33.3</ele>
        <time>2021-05-22T11:13:18Z</time>
      </trkpt>
      <trkpt lat="42.5593550" lon="-8.6384270">
        <ele>33.3</ele>
        <time>2021-05-22T11:13:19Z</time>
      </trkpt>
      <trkpt lat="42.5593700" lon="-8.6384360">
        <ele>33.3</ele>
        <time>2021-05-22T11:13:20Z</time>
      </trkpt>
      <trkpt lat="42.5593770" lon="-8.6384470">
        <ele>33.4</ele>
        <time>2021-05-22T11:13:21Z</time>
      </trkpt>
      <trkpt lat="42.5593820" lon="-8.6384540">
        <ele>33.4</ele>
        <time>2021-05-22T11:13:22Z</time>
      </trkpt>
      <trkpt lat="42.5593860" lon="-8.6384580">
        <ele>33.4</ele>
        <time>2021-05-22T11:13:23Z</time>
      </trkpt>
      <trkpt lat="42.5593800" lon="-8.6384570">
        <ele>33.4</ele>
        <time>2021-05-22T11:13:24Z</time>
      </trkpt>
      <trkpt lat="42.5593840" lon="-8.6384580">
        <ele>33.4</ele>
        <time>2021-05-22T11:13:25Z</time>
      </trkpt>
      <trkpt lat="42.5593880" lon="-8.6384610">
        <ele>33.4</ele>
        <time>2021-05-22T11:13:26Z</time>
      </trkpt>
      <trkpt lat="42.5593840" lon="-8.6384630">
        <ele>33.4</ele>
        <time>2021-05-22T11:13:27Z</time>
      </trkpt>
      <trkpt lat="42.5593800" lon="-8.6384610">
        <ele>33.4</ele>
        <time>2021-05-22T11:13:28Z</time>
      </trkpt>
      <trkpt lat="42.5593790" lon="-8.6384650">
        <ele>33.4</ele>
        <time>2021-05-22T11:13:29Z</time>
      </trkpt>
      <trkpt lat="42.5593800" lon="-8.6384630">
        <ele>33.4</ele>
        <time>2021-05-22T11:13:30Z</time>
      </trkpt>
      <trkpt lat="42.5593830" lon="-8.6384630">
        <ele>33.4</ele>
        <time>2021-05-22T11:13:31Z</time>
      </trkpt>
      <trkpt lat="42.5593810" lon="-8.6384680">
        <ele>33.4</ele>
        <time>2021-05-22T11:13:32Z</time>
      </trkpt>
      <trkpt lat="42.5593740" lon="-8.6384670">
        <ele>33.5</ele>
        <time>2021-05-22T11:13:33Z</time>
      </trkpt>
      <trkpt lat="42.5593730" lon="-8.6384670">
        <ele>33.5</ele>
        <time>2021-05-22T11:13:34Z</time>
      </trkpt>
      <trkpt lat="42.5593720" lon="-8.6384700">
        <ele>33.5</ele>
        <time>2021-05-22T11:13:35Z</time>
      </trkpt>
      <trkpt lat="42.5593680" lon="-8.6384680">
        <ele>33.5</ele>
        <time>2021-05-22T11:13:36Z</time>
      </trkpt>
      <trkpt lat="42.5593610" lon="-8.6384720">
        <ele>33.5</ele>
        <time>2021-05-22T11:13:37Z</time>
      </trkpt>
      <trkpt lat="42.5593570" lon="-8.6384690">
        <ele>33.5</ele>
        <time>2021-05-22T11:13:38Z</time>
      </trkpt>
      <trkpt lat="42.5593550" lon="-8.6384690">
        <ele>33.5</ele>
        <time>2021-05-22T11:13:39Z</time>
      </trkpt>
      <trkpt lat="42.5593620" lon="-8.6384730">
        <ele>33.5</ele>
        <time>2021-05-22T11:13:40Z</time>
      </trkpt>
      <trkpt lat="42.5593620" lon="-8.6384770">
        <ele>33.5</ele>
        <time>2021-05-22T11:13:41Z</time>
      </trkpt>
      <trkpt lat="42.5593620" lon="-8.6384790">
        <ele>33.5</ele>
        <time>2021-05-22T11:13:42Z</time>
      </trkpt>
      <trkpt lat="42.5593680" lon="-8.6384870">
        <ele>33.6</ele>
        <time>2021-05-22T11:13:43Z</time>
      </trkpt>
      <trkpt lat="42.5593650" lon="-8.6384790">
        <ele>33.6</ele>
        <time>2021-05-22T11:13:44Z</time>
      </trkpt>
      <trkpt lat="42.5593660" lon="-8.6384790">
        <ele>33.6</ele>
        <time>2021-05-22T11:13:45Z</time>
      </trkpt>
      <trkpt lat="42.5593640" lon="-8.6384850">
        <ele>33.6</ele>
        <time>2021-05-22T11:13:46Z</time>
      </trkpt>
      <trkpt lat="42.5593600" lon="-8.6384850">
        <ele>33.6</ele>
        <time>2021-05-22T11:13:47Z</time>
      </trkpt>
      <trkpt lat="42.5593630" lon="-8.6384810">
        <ele>33.6</ele>
        <time>2021-05-22T11:13:48Z</time>
      </trkpt>
      <trkpt lat="42.5593730" lon="-8.6384840">
        <ele>33.6</ele>
        <time>2021-05-22T11:13:49Z</time>
      </trkpt>
      <trkpt lat="42.5593730" lon="-8.6384800">
        <ele>33.7</ele>
        <time>2021-05-22T11:13:50Z</time>
      </trkpt>
      <trkpt lat="42.5593730" lon="-8.6384780">
        <ele>33.7</ele>
        <time>2021-05-22T11:13:51Z</time>
      </trkpt>
      <trkpt lat="42.5593740" lon="-8.6384760">
        <ele>33.7</ele>
        <time>2021-05-22T11:13:52Z</time>
      </trkpt>
      <trkpt lat="42.5593750" lon="-8.6384740">
        <ele>33.7</ele>
        <time>2021-05-22T11:13:53Z</time>
      </trkpt>
      <trkpt lat="42.5593770" lon="-8.6384760">
        <ele>33.7</ele>
        <time>2021-05-22T11:13:54Z</time>
      </trkpt>
      <trkpt lat="42.5593860" lon="-8.6384770">
        <ele>33.7</ele>
        <time>2021-05-22T11:13:55Z</time>
      </trkpt>
      <trkpt lat="42.5593930" lon="-8.6384790">
        <ele>33.7</ele>
        <time>2021-05-22T11:13:56Z</time>
      </trkpt>
      <trkpt lat="42.5593900" lon="-8.6384730">
        <ele>33.7</ele>
        <time>2021-05-22T11:13:57Z</time>
      </trkpt>
      <trkpt lat="42.5593890" lon="-8.6384650">
        <ele>33.7</ele>
        <time>2021-05-22T11:13:59Z</time>
      </trkpt>
      <trkpt lat="42.5593930" lon="-8.6384670">
        <ele>33.8</ele>
        <time>2021-05-22T11:14:00Z</time>
      </trkpt>
      <trkpt lat="42.5594020" lon="-8.6384760">
        <ele>33.8</ele>
        <time>2021-05-22T11:14:01Z</time>
      </trkpt>
      <trkpt lat="42.5594120" lon="-8.6384930">
        <ele>33.8</ele>
        <time>2021-05-22T11:14:02Z</time>
      </trkpt>
      <trkpt lat="42.5594160" lon="-8.6384960">
        <ele>33.8</ele>
        <time>2021-05-22T11:14:03Z</time>
      </trkpt>
      <trkpt lat="42.5594240" lon="-8.6385000">
        <ele>33.9</ele>
        <time>2021-05-22T11:14:04Z</time>
      </trkpt>
      <trkpt lat="42.5594300" lon="-8.6385040">
        <ele>33.9</ele>
        <time>2021-05-22T11:14:05Z</time>
      </trkpt>
      <trkpt lat="42.5594360" lon="-8.6385090">
        <ele>33.9</ele>
        <time>2021-05-22T11:14:06Z</time>
      </trkpt>
      <trkpt lat="42.5594430" lon="-8.6385150">
        <ele>33.9</ele>
        <time>2021-05-22T11:14:07Z</time>
      </trkpt>
      <trkpt lat="42.5594490" lon="-8.6385200">
        <ele>33.9</ele>
        <time>2021-05-22T11:14:08Z</time>
      </trkpt>
      <trkpt lat="42.5594560" lon="-8.6385250">
        <ele>34.0</ele>
        <time>2021-05-22T11:14:09Z</time>
      </trkpt>
      <trkpt lat="42.5594650" lon="-8.6385350">
        <ele>34.0</ele>
        <time>2021-05-22T11:14:10Z</time>
      </trkpt>
      <trkpt lat="42.5594730" lon="-8.6385410">
        <ele>34.0</ele>
        <time>2021-05-22T11:14:11Z</time>
      </trkpt>
      <trkpt lat="42.5594810" lon="-8.6385450">
        <ele>34.1</ele>
        <time>2021-05-22T11:14:12Z</time>
      </trkpt>
      <trkpt lat="42.5594950" lon="-8.6385600">
        <ele>34.1</ele>
        <time>2021-05-22T11:14:13Z</time>
      </trkpt>
      <trkpt lat="42.5595010" lon="-8.6385680">
        <ele>34.2</ele>
        <time>2021-05-22T11:14:14Z</time>
      </trkpt>
      <trkpt lat="42.5595060" lon="-8.6385770">
        <ele>34.2</ele>
        <time>2021-05-22T11:14:15Z</time>
      </trkpt>
      <trkpt lat="42.5595110" lon="-8.6385860">
        <ele>34.2</ele>
        <time>2021-05-22T11:14:16Z</time>
      </trkpt>
      <trkpt lat="42.5595180" lon="-8.6385960">
        <ele>34.3</ele>
        <time>2021-05-22T11:14:17Z</time>
      </trkpt>
      <trkpt lat="42.5595250" lon="-8.6386100">
        <ele>34.3</ele>
        <time>2021-05-22T11:14:18Z</time>
      </trkpt>
      <trkpt lat="42.5595310" lon="-8.6386140">
        <ele>34.3</ele>
        <time>2021-05-22T11:14:19Z</time>
      </trkpt>
      <trkpt lat="42.5595430" lon="-8.6386240">
        <ele>34.4</ele>
        <time>2021-05-22T11:14:20Z</time>
      </trkpt>
      <trkpt lat="42.5595570" lon="-8.6386320">
        <ele>34.5</ele>
        <time>2021-05-22T11:14:21Z</time>
      </trkpt>
      <trkpt lat="42.5595660" lon="-8.6386410">
        <ele>34.5</ele>
        <time>2021-05-22T11:14:22Z</time>
      </trkpt>
      <trkpt lat="42.5595750" lon="-8.6386440">
        <ele>34.6</ele>
        <time>2021-05-22T11:14:23Z</time>
      </trkpt>
      <trkpt lat="42.5595860" lon="-8.6386520">
        <ele>34.6</ele>
        <time>2021-05-22T11:14:24Z</time>
      </trkpt>
      <trkpt lat="42.5595850" lon="-8.6386640">
        <ele>34.7</ele>
        <time>2021-05-22T11:14:25Z</time>
      </trkpt>
      <trkpt lat="42.5595950" lon="-8.6386720">
        <ele>34.7</ele>
        <time>2021-05-22T11:14:26Z</time>
      </trkpt>
      <trkpt lat="42.5595980" lon="-8.6386830">
        <ele>34.8</ele>
        <time>2021-05-22T11:14:27Z</time>
      </trkpt>
      <trkpt lat="42.5595990" lon="-8.6386890">
        <ele>34.8</ele>
        <time>2021-05-22T11:14:28Z</time>
      </trkpt>
      <trkpt lat="42.5596150" lon="-8.6386960">
        <ele>34.9</ele>
        <time>2021-05-22T11:14:29Z</time>
      </trkpt>
      <trkpt lat="42.5596210" lon="-8.6386990">
        <ele>34.9</ele>
        <time>2021-05-22T11:14:30Z</time>
      </trkpt>
      <trkpt lat="42.5596280" lon="-8.6387010">
        <ele>35.0</ele>
        <time>2021-05-22T11:14:31Z</time>
      </trkpt>
      <trkpt lat="42.5596340" lon="-8.6387040">
        <ele>35.0</ele>
        <time>2021-05-22T11:14:32Z</time>
      </trkpt>
      <trkpt lat="42.5596400" lon="-8.6387110">
        <ele>35.1</ele>
        <time>2021-05-22T11:14:33Z</time>
      </trkpt>
      <trkpt lat="42.5596550" lon="-8.6387150">
        <ele>35.2</ele>
        <time>2021-05-22T11:14:34Z</time>
      </trkpt>
      <trkpt lat="42.5596640" lon="-8.6387230">
        <ele>35.2</ele>
        <time>2021-05-22T11:14:35Z</time>
      </trkpt>
      <trkpt lat="42.5596830" lon="-8.6387290">
        <ele>35.4</ele>
        <time>2021-05-22T11:14:36Z</time>
      </trkpt>
      <trkpt lat="42.5596930" lon="-8.6387310">
        <ele>35.4</ele>
        <time>2021-05-22T11:14:37Z</time>
      </trkpt>
      <trkpt lat="42.5597040" lon="-8.6387320">
        <ele>35.5</ele>
        <time>2021-05-22T11:14:38Z</time>
      </trkpt>
      <trkpt lat="42.5597220" lon="-8.6387390">
        <ele>35.6</ele>
        <time>2021-05-22T11:14:39Z</time>
      </trkpt>
      <trkpt lat="42.5597310" lon="-8.6387430">
        <ele>35.7</ele>
        <time>2021-05-22T11:14:40Z</time>
      </trkpt>
      <trkpt lat="42.5597470" lon="-8.6387600">
        <ele>35.8</ele>
        <time>2021-05-22T11:14:41Z</time>
      </trkpt>
      <trkpt lat="42.5597570" lon="-8.6387640">
        <ele>35.9</ele>
        <time>2021-05-22T11:14:42Z</time>
      </trkpt>
      <trkpt lat="42.5597660" lon="-8.6387690">
        <ele>35.9</ele>
        <time>2021-05-22T11:14:43Z</time>
      </trkpt>
      <trkpt lat="42.5597870" lon="-8.6387820">
        <ele>36.1</ele>
        <time>2021-05-22T11:14:44Z</time>
      </trkpt>
      <trkpt lat="42.5597930" lon="-8.6387880">
        <ele>36.1</ele>
        <time>2021-05-22T11:14:45Z</time>
      </trkpt>
      <trkpt lat="42.5598000" lon="-8.6387930">
        <ele>36.2</ele>
        <time>2021-05-22T11:14:46Z</time>
      </trkpt>
      <trkpt lat="42.5598170" lon="-8.6388050">
        <ele>36.3</ele>
        <time>2021-05-22T11:14:47Z</time>
      </trkpt>
      <trkpt lat="42.5598290" lon="-8.6388080">
        <ele>36.4</ele>
        <time>2021-05-22T11:14:48Z</time>
      </trkpt>
      <trkpt lat="42.5598380" lon="-8.6388220">
        <ele>36.5</ele>
        <time>2021-05-22T11:14:49Z</time>
      </trkpt>
      <trkpt lat="42.5598480" lon="-8.6388380">
        <ele>36.6</ele>
        <time>2021-05-22T11:14:50Z</time>
      </trkpt>
      <trkpt lat="42.5598570" lon="-8.6388450">
        <ele>36.6</ele>
        <time>2021-05-22T11:14:51Z</time>
      </trkpt>
      <trkpt lat="42.5598680" lon="-8.6388540">
        <ele>36.7</ele>
        <time>2021-05-22T11:14:52Z</time>
      </trkpt>
      <trkpt lat="42.5598760" lon="-8.6388570">
        <ele>36.7</ele>
        <time>2021-05-22T11:14:53Z</time>
      </trkpt>
      <trkpt lat="42.5598950" lon="-8.6388740">
        <ele>36.9</ele>
        <time>2021-05-22T11:14:54Z</time>
      </trkpt>
      <trkpt lat="42.5599010" lon="-8.6388800">
        <ele>36.9</ele>
        <time>2021-05-22T11:14:55Z</time>
      </trkpt>
      <trkpt lat="42.5599080" lon="-8.6388870">
        <ele>36.9</ele>
        <time>2021-05-22T11:14:56Z</time>
      </trkpt>
      <trkpt lat="42.5599350" lon="-8.6389100">
        <ele>37.1</ele>
        <time>2021-05-22T11:14:57Z</time>
      </trkpt>
      <trkpt lat="42.5599420" lon="-8.6389160">
        <ele>37.1</ele>
        <time>2021-05-22T11:14:58Z</time>
      </trkpt>
      <trkpt lat="42.5599530" lon="-8.6389230">
        <ele>37.2</ele>
        <time>2021-05-22T11:14:59Z</time>
      </trkpt>
      <trkpt lat="42.5599640" lon="-8.6389290">
        <ele>37.2</ele>
        <time>2021-05-22T11:15:00Z</time>
      </trkpt>
      <trkpt lat="42.5599750" lon="-8.6389340">
        <ele>37.3</ele>
        <time>2021-05-22T11:15:01Z</time>
      </trkpt>
      <trkpt lat="42.5599890" lon="-8.6389340">
        <ele>37.3</ele>
        <time>2021-05-22T11:15:02Z</time>
      </trkpt>
      <trkpt lat="42.5600030" lon="-8.6389430">
        <ele>37.4</ele>
        <time>2021-05-22T11:15:03Z</time>
      </trkpt>
      <trkpt lat="42.5600130" lon="-8.6389430">
        <ele>37.5</ele>
        <time>2021-05-22T11:15:04Z</time>
      </trkpt>
      <trkpt lat="42.5600260" lon="-8.6389430">
        <ele>37.5</ele>
        <time>2021-05-22T11:15:05Z</time>
      </trkpt>
      <trkpt lat="42.5600380" lon="-8.6389460">
        <ele>37.6</ele>
        <time>2021-05-22T11:15:06Z</time>
      </trkpt>
      <trkpt lat="42.5600460" lon="-8.6389490">
        <ele>37.6</ele>
        <time>2021-05-22T11:15:07Z</time>
      </trkpt>
      <trkpt lat="42.5600560" lon="-8.6389390">
        <ele>37.6</ele>
        <time>2021-05-22T11:15:08Z</time>
      </trkpt>
      <trkpt lat="42.5600740" lon="-8.6389450">
        <ele>37.7</ele>
        <time>2021-05-22T11:15:09Z</time>
      </trkpt>
      <trkpt lat="42.5600890" lon="-8.6389470">
        <ele>37.7</ele>
        <time>2021-05-22T11:15:10Z</time>
      </trkpt>
      <trkpt lat="42.5600980" lon="-8.6389430">
        <ele>37.7</ele>
        <time>2021-05-22T11:15:11Z</time>
      </trkpt>
      <trkpt lat="42.5601070" lon="-8.6389540">
        <ele>37.8</ele>
        <time>2021-05-22T11:15:12Z</time>
      </trkpt>
      <trkpt lat="42.5601300" lon="-8.6389610">
        <ele>37.8</ele>
        <time>2021-05-22T11:15:13Z</time>
      </trkpt>
      <trkpt lat="42.5601370" lon="-8.6389660">
        <ele>37.8</ele>
        <time>2021-05-22T11:15:14Z</time>
      </trkpt>
      <trkpt lat="42.5601440" lon="-8.6389710">
        <ele>37.9</ele>
        <time>2021-05-22T11:15:15Z</time>
      </trkpt>
      <trkpt lat="42.5601510" lon="-8.6389840">
        <ele>37.9</ele>
        <time>2021-05-22T11:15:16Z</time>
      </trkpt>
      <trkpt lat="42.5601570" lon="-8.6389890">
        <ele>37.9</ele>
        <time>2021-05-22T11:15:17Z</time>
      </trkpt>
      <trkpt lat="42.5601640" lon="-8.6389980">
        <ele>37.9</ele>
        <time>2021-05-22T11:15:18Z</time>
      </trkpt>
      <trkpt lat="42.5601660" lon="-8.6390130">
        <ele>37.9</ele>
        <time>2021-05-22T11:15:19Z</time>
      </trkpt>
      <trkpt lat="42.5601700" lon="-8.6390370">
        <ele>38.0</ele>
        <time>2021-05-22T11:15:20Z</time>
      </trkpt>
      <trkpt lat="42.5601700" lon="-8.6390540">
        <ele>38.0</ele>
        <time>2021-05-22T11:15:21Z</time>
      </trkpt>
      <trkpt lat="42.5601740" lon="-8.6390760">
        <ele>38.0</ele>
        <time>2021-05-22T11:15:22Z</time>
      </trkpt>
      <trkpt lat="42.5601710" lon="-8.6390870">
        <ele>38.1</ele>
        <time>2021-05-22T11:15:23Z</time>
      </trkpt>
      <trkpt lat="42.5601700" lon="-8.6391050">
        <ele>38.1</ele>
        <time>2021-05-22T11:15:24Z</time>
      </trkpt>
      <trkpt lat="42.5601720" lon="-8.6391200">
        <ele>38.1</ele>
        <time>2021-05-22T11:15:25Z</time>
      </trkpt>
      <trkpt lat="42.5601690" lon="-8.6391450">
        <ele>38.1</ele>
        <time>2021-05-22T11:15:26Z</time>
      </trkpt>
      <trkpt lat="42.5601680" lon="-8.6391530">
        <ele>38.1</ele>
        <time>2021-05-22T11:15:27Z</time>
      </trkpt>
      <trkpt lat="42.5601670" lon="-8.6391620">
        <ele>38.1</ele>
        <time>2021-05-22T11:15:28Z</time>
      </trkpt>
      <trkpt lat="42.5601660" lon="-8.6391700">
        <ele>38.2</ele>
        <time>2021-05-22T11:15:29Z</time>
      </trkpt>
      <trkpt lat="42.5601700" lon="-8.6392090">
        <ele>38.2</ele>
        <time>2021-05-22T11:15:30Z</time>
      </trkpt>
      <trkpt lat="42.5601710" lon="-8.6392200">
        <ele>38.2</ele>
        <time>2021-05-22T11:15:31Z</time>
      </trkpt>
      <trkpt lat="42.5601720" lon="-8.6392530">
        <ele>38.2</ele>
        <time>2021-05-22T11:15:32Z</time>
      </trkpt>
      <trkpt lat="42.5601720" lon="-8.6392650">
        <ele>38.2</ele>
        <time>2021-05-22T11:15:33Z</time>
      </trkpt>
      <trkpt lat="42.5601710" lon="-8.6392770">
        <ele>38.2</ele>
        <time>2021-05-22T11:15:34Z</time>
      </trkpt>
      <trkpt lat="42.5601720" lon="-8.6392910">
        <ele>38.2</ele>
        <time>2021-05-22T11:15:35Z</time>
      </trkpt>
      <trkpt lat="42.5601700" lon="-8.6393000">
        <ele>38.2</ele>
        <time>2021-05-22T11:15:36Z</time>
      </trkpt>
      <trkpt lat="42.5601670" lon="-8.6393060">
        <ele>38.2</ele>
        <time>2021-05-22T11:15:37Z</time>
      </trkpt>
      <trkpt lat="42.5601680" lon="-8.6393140">
        <ele>38.2</ele>
        <time>2021-05-22T11:15:38Z</time>
      </trkpt>
      <trkpt lat="42.5601690" lon="-8.6393320">
        <ele>38.2</ele>
        <time>2021-05-22T11:15:39Z</time>
      </trkpt>
      <trkpt lat="42.5601690" lon="-8.6393510">
        <ele>38.2</ele>
        <time>2021-05-22T11:15:40Z</time>
      </trkpt>
      <trkpt lat="42.5601740" lon="-8.6393720">
        <ele>38.2</ele>
        <time>2021-05-22T11:15:41Z</time>
      </trkpt>
      <trkpt lat="42.5601770" lon="-8.6393850">
        <ele>38.2</ele>
        <time>2021-05-22T11:15:42Z</time>
      </trkpt>
      <trkpt lat="42.5601800" lon="-8.6393970">
        <ele>38.2</ele>
        <time>2021-05-22T11:15:43Z</time>
      </trkpt>
      <trkpt lat="42.5601830" lon="-8.6394100">
        <ele>38.2</ele>
        <time>2021-05-22T11:15:44Z</time>
      </trkpt>
      <trkpt lat="42.5601870" lon="-8.6394390">
        <ele>38.1</ele>
        <time>2021-05-22T11:15:45Z</time>
      </trkpt>
      <trkpt lat="42.5601920" lon="-8.6394550">
        <ele>38.1</ele>
        <time>2021-05-22T11:15:46Z</time>
      </trkpt>
      <trkpt lat="42.5602010" lon="-8.6394900">
        <ele>38.0</ele>
        <time>2021-05-22T11:15:47Z</time>
      </trkpt>
      <trkpt lat="42.5602070" lon="-8.6395040">
        <ele>38.0</ele>
        <time>2021-05-22T11:15:48Z</time>
      </trkpt>
      <trkpt lat="42.5602130" lon="-8.6395280">
        <ele>37.9</ele>
        <time>2021-05-22T11:15:49Z</time>
      </trkpt>
      <trkpt lat="42.5602170" lon="-8.6395350">
        <ele>37.9</ele>
        <time>2021-05-22T11:15:50Z</time>
      </trkpt>
      <trkpt lat="42.5602240" lon="-8.6395450">
        <ele>37.8</ele>
        <time>2021-05-22T11:15:51Z</time>
      </trkpt>
      <trkpt lat="42.5602280" lon="-8.6395540">
        <ele>37.8</ele>
        <time>2021-05-22T11:15:52Z</time>
      </trkpt>
      <trkpt lat="42.5602340" lon="-8.6395690">
        <ele>37.7</ele>
        <time>2021-05-22T11:15:53Z</time>
      </trkpt>
      <trkpt lat="42.5602360" lon="-8.6395800">
        <ele>37.6</ele>
        <time>2021-05-22T11:15:54Z</time>
      </trkpt>
      <trkpt lat="42.5602450" lon="-8.6395720">
        <ele>37.6</ele>
        <time>2021-05-22T11:15:55Z</time>
      </trkpt>
      <trkpt lat="42.5602580" lon="-8.6395780">
        <ele>37.5</ele>
        <time>2021-05-22T11:15:56Z</time>
      </trkpt>
      <trkpt lat="42.5602680" lon="-8.6395830">
        <ele>37.4</ele>
        <time>2021-05-22T11:15:57Z</time>
      </trkpt>
      <trkpt lat="42.5602780" lon="-8.6395870">
        <ele>37.3</ele>
        <time>2021-05-22T11:15:58Z</time>
      </trkpt>
      <trkpt lat="42.5602880" lon="-8.6395850">
        <ele>37.3</ele>
        <time>2021-05-22T11:15:59Z</time>
      </trkpt>
      <trkpt lat="42.5602950" lon="-8.6395820">
        <ele>37.2</ele>
        <time>2021-05-22T11:16:00Z</time>
      </trkpt>
      <trkpt lat="42.5603000" lon="-8.6395860">
        <ele>37.1</ele>
        <time>2021-05-22T11:16:01Z</time>
      </trkpt>
      <trkpt lat="42.5603090" lon="-8.6395880">
        <ele>37.1</ele>
        <time>2021-05-22T11:16:02Z</time>
      </trkpt>
      <trkpt lat="42.5603200" lon="-8.6395900">
        <ele>37.0</ele>
        <time>2021-05-22T11:16:03Z</time>
      </trkpt>
      <trkpt lat="42.5603350" lon="-8.6395870">
        <ele>36.9</ele>
        <time>2021-05-22T11:16:04Z</time>
      </trkpt>
      <trkpt lat="42.5603420" lon="-8.6395880">
        <ele>36.8</ele>
        <time>2021-05-22T11:16:05Z</time>
      </trkpt>
      <trkpt lat="42.5603510" lon="-8.6395950">
        <ele>36.7</ele>
        <time>2021-05-22T11:16:06Z</time>
      </trkpt>
      <trkpt lat="42.5603510" lon="-8.6396040">
        <ele>36.7</ele>
        <time>2021-05-22T11:16:07Z</time>
      </trkpt>
      <trkpt lat="42.5603630" lon="-8.6396090">
        <ele>36.6</ele>
        <time>2021-05-22T11:16:08Z</time>
      </trkpt>
      <trkpt lat="42.5603700" lon="-8.6396100">
        <ele>36.5</ele>
        <time>2021-05-22T11:16:09Z</time>
      </trkpt>
      <trkpt lat="42.5603760" lon="-8.6396070">
        <ele>36.5</ele>
        <time>2021-05-22T11:16:10Z</time>
      </trkpt>
      <trkpt lat="42.5603830" lon="-8.6396050">
        <ele>36.4</ele>
        <time>2021-05-22T11:16:11Z</time>
      </trkpt>
      <trkpt lat="42.5603890" lon="-8.6396020">
        <ele>36.3</ele>
        <time>2021-05-22T11:16:12Z</time>
      </trkpt>
      <trkpt lat="42.5603960" lon="-8.6395990">
        <ele>36.3</ele>
        <time>2021-05-22T11:16:13Z</time>
      </trkpt>
      <trkpt lat="42.5604020" lon="-8.6395960">
        <ele>36.2</ele>
        <time>2021-05-22T11:16:14Z</time>
      </trkpt>
      <trkpt lat="42.5604120" lon="-8.6396000">
        <ele>36.2</ele>
        <time>2021-05-22T11:16:15Z</time>
      </trkpt>
      <trkpt lat="42.5604250" lon="-8.6395980">
        <ele>36.1</ele>
        <time>2021-05-22T11:16:16Z</time>
      </trkpt>
      <trkpt lat="42.5604350" lon="-8.6395980">
        <ele>36.0</ele>
        <time>2021-05-22T11:16:17Z</time>
      </trkpt>
      <trkpt lat="42.5604410" lon="-8.6395970">
        <ele>36.0</ele>
        <time>2021-05-22T11:16:18Z</time>
      </trkpt>
      <trkpt lat="42.5604450" lon="-8.6395960">
        <ele>35.9</ele>
        <time>2021-05-22T11:16:19Z</time>
      </trkpt>
      <trkpt lat="42.5604490" lon="-8.6395960">
        <ele>35.9</ele>
        <time>2021-05-22T11:16:20Z</time>
      </trkpt>
      <trkpt lat="42.5604530" lon="-8.6395950">
        <ele>35.9</ele>
        <time>2021-05-22T11:16:21Z</time>
      </trkpt>
      <trkpt lat="42.5604570" lon="-8.6395940">
        <ele>35.8</ele>
        <time>2021-05-22T11:16:22Z</time>
      </trkpt>
      <trkpt lat="42.5604610" lon="-8.6395930">
        <ele>35.8</ele>
        <time>2021-05-22T11:16:23Z</time>
      </trkpt>
      <trkpt lat="42.5604650" lon="-8.6395930">
        <ele>35.8</ele>
        <time>2021-05-22T11:16:24Z</time>
      </trkpt>
      <trkpt lat="42.5604690" lon="-8.6395920">
        <ele>35.8</ele>
        <time>2021-05-22T11:16:25Z</time>
      </trkpt>
      <trkpt lat="42.5604730" lon="-8.6395910">
        <ele>35.7</ele>
        <time>2021-05-22T11:16:26Z</time>
      </trkpt>
      <trkpt lat="42.5604830" lon="-8.6395960">
        <ele>35.7</ele>
        <time>2021-05-22T11:16:27Z</time>
      </trkpt>
      <trkpt lat="42.5604970" lon="-8.6395970">
        <ele>35.6</ele>
        <time>2021-05-22T11:16:28Z</time>
      </trkpt>
      <trkpt lat="42.5605050" lon="-8.6395950">
        <ele>35.5</ele>
        <time>2021-05-22T11:16:29Z</time>
      </trkpt>
      <trkpt lat="42.5605160" lon="-8.6395940">
        <ele>35.5</ele>
        <time>2021-05-22T11:16:30Z</time>
      </trkpt>
      <trkpt lat="42.5605230" lon="-8.6395890">
        <ele>35.4</ele>
        <time>2021-05-22T11:16:31Z</time>
      </trkpt>
      <trkpt lat="42.5605340" lon="-8.6395890">
        <ele>35.4</ele>
        <time>2021-05-22T11:16:32Z</time>
      </trkpt>
      <trkpt lat="42.5605520" lon="-8.6395880">
        <ele>35.3</ele>
        <time>2021-05-22T11:16:33Z</time>
      </trkpt>
      <trkpt lat="42.5605630" lon="-8.6395870">
        <ele>35.2</ele>
        <time>2021-05-22T11:16:34Z</time>
      </trkpt>
      <trkpt lat="42.5605800" lon="-8.6395960">
        <ele>35.2</ele>
        <time>2021-05-22T11:16:35Z</time>
      </trkpt>
      <trkpt lat="42.5605950" lon="-8.6395960">
        <ele>35.1</ele>
        <time>2021-05-22T11:16:36Z</time>
      </trkpt>
      <trkpt lat="42.5606190" lon="-8.6395950">
        <ele>35.0</ele>
        <time>2021-05-22T11:16:37Z</time>
      </trkpt>
      <trkpt lat="42.5606280" lon="-8.6395920">
        <ele>35.0</ele>
        <time>2021-05-22T11:16:38Z</time>
      </trkpt>
      <trkpt lat="42.5606380" lon="-8.6395890">
        <ele>34.9</ele>
        <time>2021-05-22T11:16:39Z</time>
      </trkpt>
      <trkpt lat="42.5606550" lon="-8.6395930">
        <ele>34.9</ele>
        <time>2021-05-22T11:16:40Z</time>
      </trkpt>
      <trkpt lat="42.5606650" lon="-8.6395920">
        <ele>34.8</ele>
        <time>2021-05-22T11:16:41Z</time>
      </trkpt>
      <trkpt lat="42.5606760" lon="-8.6395920">
        <ele>34.8</ele>
        <time>2021-05-22T11:16:42Z</time>
      </trkpt>
      <trkpt lat="42.5606910" lon="-8.6395910">
        <ele>34.8</ele>
        <time>2021-05-22T11:16:43Z</time>
      </trkpt>
      <trkpt lat="42.5607010" lon="-8.6395950">
        <ele>34.8</ele>
        <time>2021-05-22T11:16:44Z</time>
      </trkpt>
      <trkpt lat="42.5607150" lon="-8.6395930">
        <ele>34.7</ele>
        <time>2021-05-22T11:16:46Z</time>
      </trkpt>
      <trkpt lat="42.5607360" lon="-8.6395980">
        <ele>34.7</ele>
        <time>2021-05-22T11:16:47Z</time>
      </trkpt>
      <trkpt lat="42.5607460" lon="-8.6395980">
        <ele>34.7</ele>
        <time>2021-05-22T11:16:48Z</time>
      </trkpt>
      <trkpt lat="42.5607550" lon="-8.6395970">
        <ele>34.7</ele>
        <time>2021-05-22T11:16:49Z</time>
      </trkpt>
      <trkpt lat="42.5607760" lon="-8.6395960">
        <ele>34.6</ele>
        <time>2021-05-22T11:16:50Z</time>
      </trkpt>
      <trkpt lat="42.5607850" lon="-8.6395920">
        <ele>34.6</ele>
        <time>2021-05-22T11:16:51Z</time>
      </trkpt>
      <trkpt lat="42.5607940" lon="-8.6395890">
        <ele>34.6</ele>
        <time>2021-05-22T11:16:52Z</time>
      </trkpt>
      <trkpt lat="42.5608090" lon="-8.6395860">
        <ele>34.6</ele>
        <time>2021-05-22T11:16:53Z</time>
      </trkpt>
      <trkpt lat="42.5608210" lon="-8.6395800">
        <ele>34.6</ele>
        <time>2021-05-22T11:16:54Z</time>
      </trkpt>
      <trkpt lat="42.5608270" lon="-8.6395800">
        <ele>34.6</ele>
        <time>2021-05-22T11:16:55Z</time>
      </trkpt>
      <trkpt lat="42.5608440" lon="-8.6395790">
        <ele>34.6</ele>
        <time>2021-05-22T11:16:56Z</time>
      </trkpt>
      <trkpt lat="42.5608570" lon="-8.6395830">
        <ele>34.5</ele>
        <time>2021-05-22T11:16:57Z</time>
      </trkpt>
      <trkpt lat="42.5608680" lon="-8.6395840">
        <ele>34.5</ele>
        <time>2021-05-22T11:16:58Z</time>
      </trkpt>
      <trkpt lat="42.5608860" lon="-8.6395800">
        <ele>34.5</ele>
        <time>2021-05-22T11:16:59Z</time>
      </trkpt>
      <trkpt lat="42.5609110" lon="-8.6395740">
        <ele>34.5</ele>
        <time>2021-05-22T11:17:00Z</time>
      </trkpt>
      <trkpt lat="42.5609190" lon="-8.6395760">
        <ele>34.5</ele>
        <time>2021-05-22T11:17:01Z</time>
      </trkpt>
      <trkpt lat="42.5609260" lon="-8.6395780">
        <ele>34.5</ele>
        <time>2021-05-22T11:17:02Z</time>
      </trkpt>
      <trkpt lat="42.5609590" lon="-8.6395850">
        <ele>34.6</ele>
        <time>2021-05-22T11:17:03Z</time>
      </trkpt>
      <trkpt lat="42.5609660" lon="-8.6395890">
        <ele>34.6</ele>
        <time>2021-05-22T11:17:04Z</time>
      </trkpt>
      <trkpt lat="42.5609870" lon="-8.6395950">
        <ele>34.6</ele>
        <time>2021-05-22T11:17:05Z</time>
      </trkpt>
      <trkpt lat="42.5609970" lon="-8.6395980">
        <ele>34.6</ele>
        <time>2021-05-22T11:17:06Z</time>
      </trkpt>
      <trkpt lat="42.5610070" lon="-8.6396000">
        <ele>34.6</ele>
        <time>2021-05-22T11:17:07Z</time>
      </trkpt>
      <trkpt lat="42.5610210" lon="-8.6396000">
        <ele>34.6</ele>
        <time>2021-05-22T11:17:08Z</time>
      </trkpt>
      <trkpt lat="42.5610390" lon="-8.6396020">
        <ele>34.6</ele>
        <time>2021-05-22T11:17:09Z</time>
      </trkpt>
      <trkpt lat="42.5610620" lon="-8.6396090">
        <ele>34.6</ele>
        <time>2021-05-22T11:17:10Z</time>
      </trkpt>
      <trkpt lat="42.5610690" lon="-8.6396110">
        <ele>34.6</ele>
        <time>2021-05-22T11:17:11Z</time>
      </trkpt>
      <trkpt lat="42.5610770" lon="-8.6396120">
        <ele>34.6</ele>
        <time>2021-05-22T11:17:12Z</time>
      </trkpt>
      <trkpt lat="42.5610850" lon="-8.6396120">
        <ele>34.6</ele>
        <time>2021-05-22T11:17:13Z</time>
      </trkpt>
      <trkpt lat="42.5611050" lon="-8.6396020">
        <ele>34.6</ele>
        <time>2021-05-22T11:17:14Z</time>
      </trkpt>
      <trkpt lat="42.5611110" lon="-8.6395950">
        <ele>34.6</ele>
        <time>2021-05-22T11:17:15Z</time>
      </trkpt>
      <trkpt lat="42.5611320" lon="-8.6395850">
        <ele>34.7</ele>
        <time>2021-05-22T11:17:16Z</time>
      </trkpt>
      <trkpt lat="42.5611460" lon="-8.6395770">
        <ele>34.7</ele>
        <time>2021-05-22T11:17:17Z</time>
      </trkpt>
      <trkpt lat="42.5611580" lon="-8.6395680">
        <ele>34.7</ele>
        <time>2021-05-22T11:17:18Z</time>
      </trkpt>
      <trkpt lat="42.5611690" lon="-8.6395610">
        <ele>34.7</ele>
        <time>2021-05-22T11:17:19Z</time>
      </trkpt>
      <trkpt lat="42.5611740" lon="-8.6395520">
        <ele>34.7</ele>
        <time>2021-05-22T11:17:20Z</time>
      </trkpt>
      <trkpt lat="42.5611850" lon="-8.6395390">
        <ele>34.7</ele>
        <time>2021-05-22T11:17:21Z</time>
      </trkpt>
      <trkpt lat="42.5611930" lon="-8.6395270">
        <ele>34.7</ele>
        <time>2021-05-22T11:17:22Z</time>
      </trkpt>
      <trkpt lat="42.5612020" lon="-8.6395190">
        <ele>34.7</ele>
        <time>2021-05-22T11:17:23Z</time>
      </trkpt>
      <trkpt lat="42.5612060" lon="-8.6395090">
        <ele>34.7</ele>
        <time>2021-05-22T11:17:24Z</time>
      </trkpt>
      <trkpt lat="42.5612200" lon="-8.6394950">
        <ele>34.7</ele>
        <time>2021-05-22T11:17:25Z</time>
      </trkpt>
      <trkpt lat="42.5612260" lon="-8.6394820">
        <ele>34.7</ele>
        <time>2021-05-22T11:17:26Z</time>
      </trkpt>
      <trkpt lat="42.5612450" lon="-8.6394570">
        <ele>34.8</ele>
        <time>2021-05-22T11:17:27Z</time>
      </trkpt>
      <trkpt lat="42.5612500" lon="-8.6394530">
        <ele>34.8</ele>
        <time>2021-05-22T11:17:28Z</time>
      </trkpt>
      <trkpt lat="42.5612550" lon="-8.6394500">
        <ele>34.8</ele>
        <time>2021-05-22T11:17:29Z</time>
      </trkpt>
      <trkpt lat="42.5612640" lon="-8.6394350">
        <ele>34.8</ele>
        <time>2021-05-22T11:17:30Z</time>
      </trkpt>
      <trkpt lat="42.5612730" lon="-8.6394170">
        <ele>34.8</ele>
        <time>2021-05-22T11:17:31Z</time>
      </trkpt>
      <trkpt lat="42.5612740" lon="-8.6394120">
        <ele>34.8</ele>
        <time>2021-05-22T11:17:32Z</time>
      </trkpt>
      <trkpt lat="42.5612820" lon="-8.6394010">
        <ele>34.8</ele>
        <time>2021-05-22T11:17:33Z</time>
      </trkpt>
      <trkpt lat="42.5612890" lon="-8.6393850">
        <ele>34.9</ele>
        <time>2021-05-22T11:17:34Z</time>
      </trkpt>
      <trkpt lat="42.5612950" lon="-8.6393680">
        <ele>34.9</ele>
        <time>2021-05-22T11:17:35Z</time>
      </trkpt>
      <trkpt lat="42.5613010" lon="-8.6393610">
        <ele>34.9</ele>
        <time>2021-05-22T11:17:36Z</time>
      </trkpt>
      <trkpt lat="42.5613030" lon="-8.6393490">
        <ele>34.9</ele>
        <time>2021-05-22T11:17:37Z</time>
      </trkpt>
      <trkpt lat="42.5613130" lon="-8.6393340">
        <ele>35.0</ele>
        <time>2021-05-22T11:17:38Z</time>
      </trkpt>
      <trkpt lat="42.5613230" lon="-8.6393200">
        <ele>35.0</ele>
        <time>2021-05-22T11:17:39Z</time>
      </trkpt>
      <trkpt lat="42.5613370" lon="-8.6393020">
        <ele>35.0</ele>
        <time>2021-05-22T11:17:40Z</time>
      </trkpt>
      <trkpt lat="42.5613480" lon="-8.6392880">
        <ele>35.1</ele>
        <time>2021-05-22T11:17:41Z</time>
      </trkpt>
      <trkpt lat="42.5613610" lon="-8.6392720">
        <ele>35.1</ele>
        <time>2021-05-22T11:17:42Z</time>
      </trkpt>
      <trkpt lat="42.5613690" lon="-8.6392640">
        <ele>35.2</ele>
        <time>2021-05-22T11:17:43Z</time>
      </trkpt>
      <trkpt lat="42.5613760" lon="-8.6392570">
        <ele>35.2</ele>
        <time>2021-05-22T11:17:44Z</time>
      </trkpt>
      <trkpt lat="42.5613970" lon="-8.6392370">
        <ele>35.3</ele>
        <time>2021-05-22T11:17:45Z</time>
      </trkpt>
      <trkpt lat="42.5614040" lon="-8.6392320">
        <ele>35.3</ele>
        <time>2021-05-22T11:17:46Z</time>
      </trkpt>
      <trkpt lat="42.5614100" lon="-8.6392260">
        <ele>35.3</ele>
        <time>2021-05-22T11:17:47Z</time>
      </trkpt>
      <trkpt lat="42.5614200" lon="-8.6392150">
        <ele>35.4</ele>
        <time>2021-05-22T11:17:48Z</time>
      </trkpt>
      <trkpt lat="42.5614280" lon="-8.6392180">
        <ele>35.9</ele>
        <time>2021-05-22T11:17:49Z</time>
      </trkpt>
      <trkpt lat="42.5614360" lon="-8.6392090">
        <ele>35.9</ele>
        <time>2021-05-22T11:17:50Z</time>
      </trkpt>
      <trkpt lat="42.5614460" lon="-8.6392160">
        <ele>35.9</ele>
        <time>2021-05-22T11:17:51Z</time>
      </trkpt>
      <trkpt lat="42.5614520" lon="-8.6392250">
        <ele>35.9</ele>
        <time>2021-05-22T11:17:52Z</time>
      </trkpt>
      <trkpt lat="42.5614560" lon="-8.6392280">
        <ele>35.9</ele>
        <time>2021-05-22T11:17:53Z</time>
      </trkpt>
      <trkpt lat="42.5614610" lon="-8.6392270">
        <ele>35.9</ele>
        <time>2021-05-22T11:17:54Z</time>
      </trkpt>
      <trkpt lat="42.5614720" lon="-8.6392270">
        <ele>35.8</ele>
        <time>2021-05-22T11:17:55Z</time>
      </trkpt>
      <trkpt lat="42.5614770" lon="-8.6392230">
        <ele>35.8</ele>
        <time>2021-05-22T11:17:56Z</time>
      </trkpt>
      <trkpt lat="42.5614910" lon="-8.6392290">
        <ele>35.8</ele>
        <time>2021-05-22T11:17:57Z</time>
      </trkpt>
      <trkpt lat="42.5615020" lon="-8.6392370">
        <ele>35.8</ele>
        <time>2021-05-22T11:17:58Z</time>
      </trkpt>
      <trkpt lat="42.5615130" lon="-8.6392430">
        <ele>35.8</ele>
        <time>2021-05-22T11:17:59Z</time>
      </trkpt>
      <trkpt lat="42.5615230" lon="-8.6392480">
        <ele>35.8</ele>
        <time>2021-05-22T11:18:00Z</time>
      </trkpt>
      <trkpt lat="42.5615340" lon="-8.6392540">
        <ele>35.7</ele>
        <time>2021-05-22T11:18:01Z</time>
      </trkpt>
      <trkpt lat="42.5615470" lon="-8.6392570">
        <ele>35.7</ele>
        <time>2021-05-22T11:18:02Z</time>
      </trkpt>
      <trkpt lat="42.5615610" lon="-8.6392640">
        <ele>35.7</ele>
        <time>2021-05-22T11:18:03Z</time>
      </trkpt>
      <trkpt lat="42.5615760" lon="-8.6392670">
        <ele>35.7</ele>
        <time>2021-05-22T11:18:04Z</time>
      </trkpt>
      <trkpt lat="42.5615900" lon="-8.6392810">
        <ele>35.7</ele>
        <time>2021-05-22T11:18:05Z</time>
      </trkpt>
      <trkpt lat="42.5616040" lon="-8.6392940">
        <ele>35.6</ele>
        <time>2021-05-22T11:18:06Z</time>
      </trkpt>
      <trkpt lat="42.5616140" lon="-8.6393000">
        <ele>35.6</ele>
        <time>2021-05-22T11:18:07Z</time>
      </trkpt>
      <trkpt lat="42.5616280" lon="-8.6393080">
        <ele>35.6</ele>
        <time>2021-05-22T11:18:08Z</time>
      </trkpt>
      <trkpt lat="42.5616420" lon="-8.6393210">
        <ele>35.6</ele>
        <time>2021-05-22T11:18:09Z</time>
      </trkpt>
      <trkpt lat="42.5616640" lon="-8.6393290">
        <ele>35.6</ele>
        <time>2021-05-22T11:18:10Z</time>
      </trkpt>
      <trkpt lat="42.5616720" lon="-8.6393350">
        <ele>35.6</ele>
        <time>2021-05-22T11:18:11Z</time>
      </trkpt>
      <trkpt lat="42.5616810" lon="-8.6393400">
        <ele>35.6</ele>
        <time>2021-05-22T11:18:12Z</time>
      </trkpt>
      <trkpt lat="42.5616910" lon="-8.6393430">
        <ele>35.6</ele>
        <time>2021-05-22T11:18:13Z</time>
      </trkpt>
      <trkpt lat="42.5616930" lon="-8.6393530">
        <ele>35.6</ele>
        <time>2021-05-22T11:18:14Z</time>
      </trkpt>
      <trkpt lat="42.5617090" lon="-8.6393560">
        <ele>35.6</ele>
        <time>2021-05-22T11:18:15Z</time>
      </trkpt>
      <trkpt lat="42.5617220" lon="-8.6393650">
        <ele>35.6</ele>
        <time>2021-05-22T11:18:16Z</time>
      </trkpt>
      <trkpt lat="42.5617380" lon="-8.6393750">
        <ele>35.6</ele>
        <time>2021-05-22T11:18:17Z</time>
      </trkpt>
      <trkpt lat="42.5617480" lon="-8.6393800">
        <ele>35.6</ele>
        <time>2021-05-22T11:18:18Z</time>
      </trkpt>
      <trkpt lat="42.5617630" lon="-8.6393910">
        <ele>35.6</ele>
        <time>2021-05-22T11:18:19Z</time>
      </trkpt>
      <trkpt lat="42.5617770" lon="-8.6394010">
        <ele>35.6</ele>
        <time>2021-05-22T11:18:20Z</time>
      </trkpt>
      <trkpt lat="42.5617860" lon="-8.6394060">
        <ele>35.6</ele>
        <time>2021-05-22T11:18:21Z</time>
      </trkpt>
      <trkpt lat="42.5617970" lon="-8.6394050">
        <ele>35.6</ele>
        <time>2021-05-22T11:18:22Z</time>
      </trkpt>
      <trkpt lat="42.5618160" lon="-8.6394130">
        <ele>35.6</ele>
        <time>2021-05-22T11:18:23Z</time>
      </trkpt>
      <trkpt lat="42.5618270" lon="-8.6394250">
        <ele>35.6</ele>
        <time>2021-05-22T11:18:24Z</time>
      </trkpt>
      <trkpt lat="42.5618340" lon="-8.6394360">
        <ele>35.6</ele>
        <time>2021-05-22T11:18:25Z</time>
      </trkpt>
      <trkpt lat="42.5618420" lon="-8.6394450">
        <ele>35.6</ele>
        <time>2021-05-22T11:18:26Z</time>
      </trkpt>
      <trkpt lat="42.5618570" lon="-8.6394450">
        <ele>35.6</ele>
        <time>2021-05-22T11:18:27Z</time>
      </trkpt>
      <trkpt lat="42.5618730" lon="-8.6394600">
        <ele>35.6</ele>
        <time>2021-05-22T11:18:28Z</time>
      </trkpt>
      <trkpt lat="42.5618840" lon="-8.6394600">
        <ele>35.6</ele>
        <time>2021-05-22T11:18:29Z</time>
      </trkpt>
      <trkpt lat="42.5619030" lon="-8.6394770">
        <ele>35.6</ele>
        <time>2021-05-22T11:18:30Z</time>
      </trkpt>
      <trkpt lat="42.5619100" lon="-8.6394810">
        <ele>35.6</ele>
        <time>2021-05-22T11:18:31Z</time>
      </trkpt>
      <trkpt lat="42.5619180" lon="-8.6394850">
        <ele>35.6</ele>
        <time>2021-05-22T11:18:32Z</time>
      </trkpt>
      <trkpt lat="42.5619360" lon="-8.6394930">
        <ele>35.6</ele>
        <time>2021-05-22T11:18:33Z</time>
      </trkpt>
      <trkpt lat="42.5619470" lon="-8.6394990">
        <ele>35.6</ele>
        <time>2021-05-22T11:18:34Z</time>
      </trkpt>
      <trkpt lat="42.5619620" lon="-8.6395150">
        <ele>35.6</ele>
        <time>2021-05-22T11:18:35Z</time>
      </trkpt>
      <trkpt lat="42.5619670" lon="-8.6395270">
        <ele>35.6</ele>
        <time>2021-05-22T11:18:36Z</time>
      </trkpt>
      <trkpt lat="42.5619820" lon="-8.6395290">
        <ele>35.6</ele>
        <time>2021-05-22T11:18:37Z</time>
      </trkpt>
      <trkpt lat="42.5619950" lon="-8.6395360">
        <ele>35.6</ele>
        <time>2021-05-22T11:18:38Z</time>
      </trkpt>
      <trkpt lat="42.5620070" lon="-8.6395430">
        <ele>35.6</ele>
        <time>2021-05-22T11:18:39Z</time>
      </trkpt>
      <trkpt lat="42.5620210" lon="-8.6395490">
        <ele>35.6</ele>
        <time>2021-05-22T11:18:40Z</time>
      </trkpt>
      <trkpt lat="42.5620320" lon="-8.6395650">
        <ele>35.6</ele>
        <time>2021-05-22T11:18:41Z</time>
      </trkpt>
      <trkpt lat="42.5620460" lon="-8.6395710">
        <ele>35.6</ele>
        <time>2021-05-22T11:18:42Z</time>
      </trkpt>
      <trkpt lat="42.5620610" lon="-8.6395950">
        <ele>35.6</ele>
        <time>2021-05-22T11:18:43Z</time>
      </trkpt>
      <trkpt lat="42.5620680" lon="-8.6396010">
        <ele>35.6</ele>
        <time>2021-05-22T11:18:44Z</time>
      </trkpt>
      <trkpt lat="42.5620740" lon="-8.6396080">
        <ele>35.6</ele>
        <time>2021-05-22T11:18:45Z</time>
      </trkpt>
      <trkpt lat="42.5620860" lon="-8.6396160">
        <ele>35.6</ele>
        <time>2021-05-22T11:18:46Z</time>
      </trkpt>
      <trkpt lat="42.5620870" lon="-8.6396250">
        <ele>35.7</ele>
        <time>2021-05-22T11:18:47Z</time>
      </trkpt>
      <trkpt lat="42.5621020" lon="-8.6396290">
        <ele>35.7</ele>
        <time>2021-05-22T11:18:48Z</time>
      </trkpt>
      <trkpt lat="42.5621140" lon="-8.6396380">
        <ele>35.7</ele>
        <time>2021-05-22T11:18:50Z</time>
      </trkpt>
      <trkpt lat="42.5621260" lon="-8.6396430">
        <ele>35.7</ele>
        <time>2021-05-22T11:18:51Z</time>
      </trkpt>
      <trkpt lat="42.5621340" lon="-8.6396510">
        <ele>35.7</ele>
        <time>2021-05-22T11:18:52Z</time>
      </trkpt>
      <trkpt lat="42.5621440" lon="-8.6396620">
        <ele>35.7</ele>
        <time>2021-05-22T11:18:53Z</time>
      </trkpt>
      <trkpt lat="42.5621550" lon="-8.6396670">
        <ele>35.7</ele>
        <time>2021-05-22T11:18:54Z</time>
      </trkpt>
      <trkpt lat="42.5621640" lon="-8.6396720">
        <ele>35.7</ele>
        <time>2021-05-22T11:18:55Z</time>
      </trkpt>
      <trkpt lat="42.5621790" lon="-8.6396680">
        <ele>35.8</ele>
        <time>2021-05-22T11:18:56Z</time>
      </trkpt>
      <trkpt lat="42.5621930" lon="-8.6396680">
        <ele>35.8</ele>
        <time>2021-05-22T11:18:57Z</time>
      </trkpt>
      <trkpt lat="42.5622050" lon="-8.6396690">
        <ele>35.8</ele>
        <time>2021-05-22T11:18:58Z</time>
      </trkpt>
      <trkpt lat="42.5622110" lon="-8.6396730">
        <ele>35.8</ele>
        <time>2021-05-22T11:18:59Z</time>
      </trkpt>
      <trkpt lat="42.5622210" lon="-8.6396760">
        <ele>35.8</ele>
        <time>2021-05-22T11:19:00Z</time>
      </trkpt>
      <trkpt lat="42.5622440" lon="-8.6396830">
        <ele>35.8</ele>
        <time>2021-05-22T11:19:01Z</time>
      </trkpt>
      <trkpt lat="42.5622500" lon="-8.6396870">
        <ele>35.8</ele>
        <time>2021-05-22T11:19:02Z</time>
      </trkpt>
      <trkpt lat="42.5622570" lon="-8.6396920">
        <ele>35.8</ele>
        <time>2021-05-22T11:19:03Z</time>
      </trkpt>
      <trkpt lat="42.5622700" lon="-8.6396990">
        <ele>35.8</ele>
        <time>2021-05-22T11:19:04Z</time>
      </trkpt>
      <trkpt lat="42.5622840" lon="-8.6397100">
        <ele>35.8</ele>
        <time>2021-05-22T11:19:05Z</time>
      </trkpt>
      <trkpt lat="42.5622870" lon="-8.6397190">
        <ele>35.9</ele>
        <time>2021-05-22T11:19:06Z</time>
      </trkpt>
      <trkpt lat="42.5622990" lon="-8.6397290">
        <ele>35.9</ele>
        <time>2021-05-22T11:19:07Z</time>
      </trkpt>
      <trkpt lat="42.5623070" lon="-8.6397340">
        <ele>35.9</ele>
        <time>2021-05-22T11:19:08Z</time>
      </trkpt>
      <trkpt lat="42.5623270" lon="-8.6397530">
        <ele>35.9</ele>
        <time>2021-05-22T11:19:09Z</time>
      </trkpt>
      <trkpt lat="42.5623330" lon="-8.6397660">
        <ele>35.6</ele>
        <time>2021-05-22T11:19:10Z</time>
      </trkpt>
      <trkpt lat="42.5623380" lon="-8.6397860">
        <ele>35.6</ele>
        <time>2021-05-22T11:19:11Z</time>
      </trkpt>
      <trkpt lat="42.5623320" lon="-8.6398100">
        <ele>35.5</ele>
        <time>2021-05-22T11:19:12Z</time>
      </trkpt>
      <trkpt lat="42.5623280" lon="-8.6398320">
        <ele>35.4</ele>
        <time>2021-05-22T11:19:13Z</time>
      </trkpt>
      <trkpt lat="42.5623200" lon="-8.6398480">
        <ele>35.4</ele>
        <time>2021-05-22T11:19:14Z</time>
      </trkpt>
      <trkpt lat="42.5623080" lon="-8.6398730">
        <ele>35.3</ele>
        <time>2021-05-22T11:19:15Z</time>
      </trkpt>
      <trkpt lat="42.5623000" lon="-8.6398780">
        <ele>35.2</ele>
        <time>2021-05-22T11:19:16Z</time>
      </trkpt>
      <trkpt lat="42.5622930" lon="-8.6398830">
        <ele>35.2</ele>
        <time>2021-05-22T11:19:17Z</time>
      </trkpt>
      <trkpt lat="42.5622880" lon="-8.6399020">
        <ele>35.1</ele>
        <time>2021-05-22T11:19:18Z</time>
      </trkpt>
      <trkpt lat="42.5622870" lon="-8.6399170">
        <ele>35.1</ele>
        <time>2021-05-22T11:19:19Z</time>
      </trkpt>
      <trkpt lat="42.5622860" lon="-8.6399300">
        <ele>35.0</ele>
        <time>2021-05-22T11:19:20Z</time>
      </trkpt>
      <trkpt lat="42.5622850" lon="-8.6399480">
        <ele>34.9</ele>
        <time>2021-05-22T11:19:21Z</time>
      </trkpt>
      <trkpt lat="42.5622790" lon="-8.6399630">
        <ele>34.9</ele>
        <time>2021-05-22T11:19:22Z</time>
      </trkpt>
      <trkpt lat="42.5622750" lon="-8.6399750">
        <ele>34.8</ele>
        <time>2021-05-22T11:19:23Z</time>
      </trkpt>
      <trkpt lat="42.5622820" lon="-8.6399960">
        <ele>34.7</ele>
        <time>2021-05-22T11:19:24Z</time>
      </trkpt>
      <trkpt lat="42.5622890" lon="-8.6400160">
        <ele>34.6</ele>
        <time>2021-05-22T11:19:25Z</time>
      </trkpt>
      <trkpt lat="42.5622960" lon="-8.6400230">
        <ele>34.6</ele>
        <time>2021-05-22T11:19:26Z</time>
      </trkpt>
      <trkpt lat="42.5623000" lon="-8.6400300">
        <ele>34.5</ele>
        <time>2021-05-22T11:19:27Z</time>
      </trkpt>
      <trkpt lat="42.5623030" lon="-8.6400480">
        <ele>34.5</ele>
        <time>2021-05-22T11:19:28Z</time>
      </trkpt>
      <trkpt lat="42.5623060" lon="-8.6400630">
        <ele>34.4</ele>
        <time>2021-05-22T11:19:29Z</time>
      </trkpt>
      <trkpt lat="42.5623070" lon="-8.6400720">
        <ele>34.4</ele>
        <time>2021-05-22T11:19:30Z</time>
      </trkpt>
      <trkpt lat="42.5623170" lon="-8.6400910">
        <ele>34.2</ele>
        <time>2021-05-22T11:19:31Z</time>
      </trkpt>
      <trkpt lat="42.5623240" lon="-8.6401110">
        <ele>34.1</ele>
        <time>2021-05-22T11:19:32Z</time>
      </trkpt>
      <trkpt lat="42.5623320" lon="-8.6401300">
        <ele>34.0</ele>
        <time>2021-05-22T11:19:33Z</time>
      </trkpt>
      <trkpt lat="42.5623370" lon="-8.6401420">
        <ele>34.0</ele>
        <time>2021-05-22T11:19:34Z</time>
      </trkpt>
      <trkpt lat="42.5623370" lon="-8.6401540">
        <ele>33.9</ele>
        <time>2021-05-22T11:19:35Z</time>
      </trkpt>
      <trkpt lat="42.5623340" lon="-8.6401710">
        <ele>33.8</ele>
        <time>2021-05-22T11:19:36Z</time>
      </trkpt>
      <trkpt lat="42.5623300" lon="-8.6401810">
        <ele>33.8</ele>
        <time>2021-05-22T11:19:37Z</time>
      </trkpt>
      <trkpt lat="42.5623290" lon="-8.6402120">
        <ele>33.6</ele>
        <time>2021-05-22T11:19:38Z</time>
      </trkpt>
      <trkpt lat="42.5623190" lon="-8.6402180">
        <ele>33.5</ele>
        <time>2021-05-22T11:19:39Z</time>
      </trkpt>
      <trkpt lat="42.5623190" lon="-8.6402240">
        <ele>33.5</ele>
        <time>2021-05-22T11:19:40Z</time>
      </trkpt>
      <trkpt lat="42.5623180" lon="-8.6402400">
        <ele>33.4</ele>
        <time>2021-05-22T11:19:41Z</time>
      </trkpt>
      <trkpt lat="42.5623140" lon="-8.6402490">
        <ele>33.3</ele>
        <time>2021-05-22T11:19:42Z</time>
      </trkpt>
      <trkpt lat="42.5623140" lon="-8.6402720">
        <ele>33.2</ele>
        <time>2021-05-22T11:19:43Z</time>
      </trkpt>
      <trkpt lat="42.5623130" lon="-8.6402910">
        <ele>33.1</ele>
        <time>2021-05-22T11:19:44Z</time>
      </trkpt>
      <trkpt lat="42.5623100" lon="-8.6403040">
        <ele>33.1</ele>
        <time>2021-05-22T11:19:45Z</time>
      </trkpt>
      <trkpt lat="42.5623040" lon="-8.6403170">
        <ele>33.0</ele>
        <time>2021-05-22T11:19:46Z</time>
      </trkpt>
      <trkpt lat="42.5623040" lon="-8.6403280">
        <ele>32.9</ele>
        <time>2021-05-22T11:19:47Z</time>
      </trkpt>
      <trkpt lat="42.5622990" lon="-8.6403500">
        <ele>32.8</ele>
        <time>2021-05-22T11:19:48Z</time>
      </trkpt>
      <trkpt lat="42.5623040" lon="-8.6403520">
        <ele>32.8</ele>
        <time>2021-05-22T11:19:49Z</time>
      </trkpt>
      <trkpt lat="42.5623030" lon="-8.6403680">
        <ele>32.7</ele>
        <time>2021-05-22T11:19:50Z</time>
      </trkpt>
      <trkpt lat="42.5623060" lon="-8.6403890">
        <ele>32.6</ele>
        <time>2021-05-22T11:19:51Z</time>
      </trkpt>
      <trkpt lat="42.5623080" lon="-8.6404070">
        <ele>32.5</ele>
        <time>2021-05-22T11:19:52Z</time>
      </trkpt>
      <trkpt lat="42.5623100" lon="-8.6404280">
        <ele>32.4</ele>
        <time>2021-05-22T11:19:53Z</time>
      </trkpt>
      <trkpt lat="42.5623160" lon="-8.6404450">
        <ele>32.3</ele>
        <time>2021-05-22T11:19:54Z</time>
      </trkpt>
      <trkpt lat="42.5623300" lon="-8.6404560">
        <ele>32.2</ele>
        <time>2021-05-22T11:19:55Z</time>
      </trkpt>
      <trkpt lat="42.5623380" lon="-8.6404600">
        <ele>32.1</ele>
        <time>2021-05-22T11:19:56Z</time>
      </trkpt>
      <trkpt lat="42.5623460" lon="-8.6404650">
        <ele>32.1</ele>
        <time>2021-05-22T11:19:57Z</time>
      </trkpt>
      <trkpt lat="42.5623540" lon="-8.6404700">
        <ele>32.0</ele>
        <time>2021-05-22T11:19:58Z</time>
      </trkpt>
      <trkpt lat="42.5623750" lon="-8.6404810">
        <ele>31.9</ele>
        <time>2021-05-22T11:19:59Z</time>
      </trkpt>
      <trkpt lat="42.5623840" lon="-8.6404850">
        <ele>31.9</ele>
        <time>2021-05-22T11:20:00Z</time>
      </trkpt>
      <trkpt lat="42.5623930" lon="-8.6404890">
        <ele>31.8</ele>
        <time>2021-05-22T11:20:01Z</time>
      </trkpt>
      <trkpt lat="42.5624140" lon="-8.6404950">
        <ele>31.7</ele>
        <time>2021-05-22T11:20:02Z</time>
      </trkpt>
      <trkpt lat="42.5624210" lon="-8.6404990">
        <ele>31.7</ele>
        <time>2021-05-22T11:20:03Z</time>
      </trkpt>
      <trkpt lat="42.5624290" lon="-8.6405020">
        <ele>31.7</ele>
        <time>2021-05-22T11:20:04Z</time>
      </trkpt>
      <trkpt lat="42.5624410" lon="-8.6405060">
        <ele>31.6</ele>
        <time>2021-05-22T11:20:05Z</time>
      </trkpt>
      <trkpt lat="42.5624560" lon="-8.6405150">
        <ele>31.6</ele>
        <time>2021-05-22T11:20:06Z</time>
      </trkpt>
      <trkpt lat="42.5624660" lon="-8.6405230">
        <ele>31.5</ele>
        <time>2021-05-22T11:20:07Z</time>
      </trkpt>
      <trkpt lat="42.5624740" lon="-8.6405300">
        <ele>31.5</ele>
        <time>2021-05-22T11:20:08Z</time>
      </trkpt>
      <trkpt lat="42.5624800" lon="-8.6405390">
        <ele>31.5</ele>
        <time>2021-05-22T11:20:09Z</time>
      </trkpt>
      <trkpt lat="42.5624980" lon="-8.6405560">
        <ele>31.4</ele>
        <time>2021-05-22T11:20:10Z</time>
      </trkpt>
      <trkpt lat="42.5625050" lon="-8.6405630">
        <ele>31.4</ele>
        <time>2021-05-22T11:20:11Z</time>
      </trkpt>
      <trkpt lat="42.5625130" lon="-8.6405710">
        <ele>31.4</ele>
        <time>2021-05-22T11:20:12Z</time>
      </trkpt>
      <trkpt lat="42.5625300" lon="-8.6405900">
        <ele>31.3</ele>
        <time>2021-05-22T11:20:13Z</time>
      </trkpt>
      <trkpt lat="42.5625370" lon="-8.6405960">
        <ele>31.3</ele>
        <time>2021-05-22T11:20:14Z</time>
      </trkpt>
      <trkpt lat="42.5625440" lon="-8.6406030">
        <ele>31.3</ele>
        <time>2021-05-22T11:20:15Z</time>
      </trkpt>
      <trkpt lat="42.5625550" lon="-8.6406200">
        <ele>31.3</ele>
        <time>2021-05-22T11:20:16Z</time>
      </trkpt>
      <trkpt lat="42.5625630" lon="-8.6406280">
        <ele>31.2</ele>
        <time>2021-05-22T11:20:17Z</time>
      </trkpt>
      <trkpt lat="42.5625700" lon="-8.6406370">
        <ele>31.2</ele>
        <time>2021-05-22T11:20:18Z</time>
      </trkpt>
      <trkpt lat="42.5625850" lon="-8.6406540">
        <ele>31.2</ele>
        <time>2021-05-22T11:20:19Z</time>
      </trkpt>
      <trkpt lat="42.5625920" lon="-8.6406620">
        <ele>31.2</ele>
        <time>2021-05-22T11:20:20Z</time>
      </trkpt>
      <trkpt lat="42.5626000" lon="-8.6406700">
        <ele>31.2</ele>
        <time>2021-05-22T11:20:21Z</time>
      </trkpt>
      <trkpt lat="42.5626160" lon="-8.6406850">
        <ele>31.2</ele>
        <time>2021-05-22T11:20:22Z</time>
      </trkpt>
      <trkpt lat="42.5626240" lon="-8.6406910">
        <ele>31.2</ele>
        <time>2021-05-22T11:20:23Z</time>
      </trkpt>
      <trkpt lat="42.5626330" lon="-8.6406980">
        <ele>31.2</ele>
        <time>2021-05-22T11:20:24Z</time>
      </trkpt>
      <trkpt lat="42.5626430" lon="-8.6407070">
        <ele>31.2</ele>
        <time>2021-05-22T11:20:25Z</time>
      </trkpt>
      <trkpt lat="42.5626570" lon="-8.6407170">
        <ele>31.2</ele>
        <time>2021-05-22T11:20:26Z</time>
      </trkpt>
      <trkpt lat="42.5626650" lon="-8.6407230">
        <ele>31.2</ele>
        <time>2021-05-22T11:20:27Z</time>
      </trkpt>
      <trkpt lat="42.5626770" lon="-8.6407300">
        <ele>31.2</ele>
        <time>2021-05-22T11:20:28Z</time>
      </trkpt>
      <trkpt lat="42.5626840" lon="-8.6407340">
        <ele>31.2</ele>
        <time>2021-05-22T11:20:29Z</time>
      </trkpt>
      <trkpt lat="42.5626950" lon="-8.6407460">
        <ele>31.2</ele>
        <time>2021-05-22T11:20:30Z</time>
      </trkpt>
      <trkpt lat="42.5627070" lon="-8.6407580">
        <ele>31.3</ele>
        <time>2021-05-22T11:20:31Z</time>
      </trkpt>
      <trkpt lat="42.5627200" lon="-8.6407750">
        <ele>31.3</ele>
        <time>2021-05-22T11:20:32Z</time>
      </trkpt>
      <trkpt lat="42.5627290" lon="-8.6407810">
        <ele>31.3</ele>
        <time>2021-05-22T11:20:33Z</time>
      </trkpt>
      <trkpt lat="42.5627390" lon="-8.6407860">
        <ele>31.3</ele>
        <time>2021-05-22T11:20:34Z</time>
      </trkpt>
      <trkpt lat="42.5627510" lon="-8.6407930">
        <ele>31.3</ele>
        <time>2021-05-22T11:20:35Z</time>
      </trkpt>
      <trkpt lat="42.5627660" lon="-8.6407950">
        <ele>31.3</ele>
        <time>2021-05-22T11:20:36Z</time>
      </trkpt>
      <trkpt lat="42.5627710" lon="-8.6408000">
        <ele>31.4</ele>
        <time>2021-05-22T11:20:37Z</time>
      </trkpt>
      <trkpt lat="42.5627820" lon="-8.6408050">
        <ele>31.4</ele>
        <time>2021-05-22T11:20:38Z</time>
      </trkpt>
      <trkpt lat="42.5627930" lon="-8.6408140">
        <ele>31.4</ele>
        <time>2021-05-22T11:20:39Z</time>
      </trkpt>
      <trkpt lat="42.5628050" lon="-8.6408150">
        <ele>31.4</ele>
        <time>2021-05-22T11:20:40Z</time>
      </trkpt>
      <trkpt lat="42.5628250" lon="-8.6408240">
        <ele>31.5</ele>
        <time>2021-05-22T11:20:41Z</time>
      </trkpt>
      <trkpt lat="42.5628390" lon="-8.6408240">
        <ele>31.5</ele>
        <time>2021-05-22T11:20:42Z</time>
      </trkpt>
      <trkpt lat="42.5628550" lon="-8.6408280">
        <ele>31.6</ele>
        <time>2021-05-22T11:20:44Z</time>
      </trkpt>
      <trkpt lat="42.5628640" lon="-8.6408310">
        <ele>31.6</ele>
        <time>2021-05-22T11:20:45Z</time>
      </trkpt>
      <trkpt lat="42.5628750" lon="-8.6408390">
        <ele>31.6</ele>
        <time>2021-05-22T11:20:46Z</time>
      </trkpt>
      <trkpt lat="42.5628880" lon="-8.6408410">
        <ele>31.7</ele>
        <time>2021-05-22T11:20:47Z</time>
      </trkpt>
      <trkpt lat="42.5629040" lon="-8.6408490">
        <ele>31.7</ele>
        <time>2021-05-22T11:20:48Z</time>
      </trkpt>
      <trkpt lat="42.5629100" lon="-8.6408520">
        <ele>31.7</ele>
        <time>2021-05-22T11:20:49Z</time>
      </trkpt>
      <trkpt lat="42.5629170" lon="-8.6408560">
        <ele>31.8</ele>
        <time>2021-05-22T11:20:50Z</time>
      </trkpt>
      <trkpt lat="42.5629230" lon="-8.6408600">
        <ele>31.8</ele>
        <time>2021-05-22T11:20:51Z</time>
      </trkpt>
      <trkpt lat="42.5629360" lon="-8.6408720">
        <ele>31.8</ele>
        <time>2021-05-22T11:20:52Z</time>
      </trkpt>
      <trkpt lat="42.5629480" lon="-8.6408800">
        <ele>31.9</ele>
        <time>2021-05-22T11:20:53Z</time>
      </trkpt>
      <trkpt lat="42.5629650" lon="-8.6408950">
        <ele>31.9</ele>
        <time>2021-05-22T11:20:54Z</time>
      </trkpt>
      <trkpt lat="42.5629720" lon="-8.6409030">
        <ele>32.0</ele>
        <time>2021-05-22T11:20:55Z</time>
      </trkpt>
      <trkpt lat="42.5629780" lon="-8.6409100">
        <ele>32.0</ele>
        <time>2021-05-22T11:20:56Z</time>
      </trkpt>
      <trkpt lat="42.5629900" lon="-8.6409210">
        <ele>32.0</ele>
        <time>2021-05-22T11:20:57Z</time>
      </trkpt>
      <trkpt lat="42.5630020" lon="-8.6409300">
        <ele>32.1</ele>
        <time>2021-05-22T11:20:58Z</time>
      </trkpt>
      <trkpt lat="42.5630180" lon="-8.6409400">
        <ele>32.1</ele>
        <time>2021-05-22T11:20:59Z</time>
      </trkpt>
      <trkpt lat="42.5630320" lon="-8.6409520">
        <ele>32.2</ele>
        <time>2021-05-22T11:21:00Z</time>
      </trkpt>
      <trkpt lat="42.5630430" lon="-8.6409640">
        <ele>32.2</ele>
        <time>2021-05-22T11:21:01Z</time>
      </trkpt>
      <trkpt lat="42.5630480" lon="-8.6409770">
        <ele>32.2</ele>
        <time>2021-05-22T11:21:02Z</time>
      </trkpt>
      <trkpt lat="42.5630580" lon="-8.6409860">
        <ele>32.3</ele>
        <time>2021-05-22T11:21:03Z</time>
      </trkpt>
      <trkpt lat="42.5630670" lon="-8.6409960">
        <ele>32.3</ele>
        <time>2021-05-22T11:21:04Z</time>
      </trkpt>
      <trkpt lat="42.5630720" lon="-8.6410040">
        <ele>32.3</ele>
        <time>2021-05-22T11:21:05Z</time>
      </trkpt>
      <trkpt lat="42.5630830" lon="-8.6410150">
        <ele>32.4</ele>
        <time>2021-05-22T11:21:06Z</time>
      </trkpt>
      <trkpt lat="42.5631040" lon="-8.6410420">
        <ele>32.5</ele>
        <time>2021-05-22T11:21:07Z</time>
      </trkpt>
      <trkpt lat="42.5631100" lon="-8.6410520">
        <ele>32.5</ele>
        <time>2021-05-22T11:21:08Z</time>
      </trkpt>
      <trkpt lat="42.5631120" lon="-8.6410580">
        <ele>32.5</ele>
        <time>2021-05-22T11:21:09Z</time>
      </trkpt>
      <trkpt lat="42.5631220" lon="-8.6410690">
        <ele>32.6</ele>
        <time>2021-05-22T11:21:10Z</time>
      </trkpt>
      <trkpt lat="42.5631280" lon="-8.6410830">
        <ele>32.6</ele>
        <time>2021-05-22T11:21:11Z</time>
      </trkpt>
      <trkpt lat="42.5631330" lon="-8.6410920">
        <ele>32.6</ele>
        <time>2021-05-22T11:21:12Z</time>
      </trkpt>
      <trkpt lat="42.5631430" lon="-8.6411010">
        <ele>32.7</ele>
        <time>2021-05-22T11:21:13Z</time>
      </trkpt>
      <trkpt lat="42.5631520" lon="-8.6411090">
        <ele>32.7</ele>
        <time>2021-05-22T11:21:14Z</time>
      </trkpt>
      <trkpt lat="42.5631740" lon="-8.6411440">
        <ele>32.9</ele>
        <time>2021-05-22T11:21:15Z</time>
      </trkpt>
      <trkpt lat="42.5631800" lon="-8.6411540">
        <ele>32.9</ele>
        <time>2021-05-22T11:21:16Z</time>
      </trkpt>
      <trkpt lat="42.5631940" lon="-8.6411670">
        <ele>33.0</ele>
        <time>2021-05-22T11:21:17Z</time>
      </trkpt>
      <trkpt lat="42.5632010" lon="-8.6411790">
        <ele>33.0</ele>
        <time>2021-05-22T11:21:18Z</time>
      </trkpt>
      <trkpt lat="42.5632070" lon="-8.6411880">
        <ele>33.1</ele>
        <time>2021-05-22T11:21:19Z</time>
      </trkpt>
      <trkpt lat="42.5632190" lon="-8.6411960">
        <ele>33.1</ele>
        <time>2021-05-22T11:21:20Z</time>
      </trkpt>
      <trkpt lat="42.5632300" lon="-8.6412020">
        <ele>33.2</ele>
        <time>2021-05-22T11:21:21Z</time>
      </trkpt>
      <trkpt lat="42.5632410" lon="-8.6412200">
        <ele>33.2</ele>
        <time>2021-05-22T11:21:22Z</time>
      </trkpt>
      <trkpt lat="42.5632480" lon="-8.6412340">
        <ele>33.3</ele>
        <time>2021-05-22T11:21:23Z</time>
      </trkpt>
      <trkpt lat="42.5632580" lon="-8.6412380">
        <ele>33.3</ele>
        <time>2021-05-22T11:21:24Z</time>
      </trkpt>
      <trkpt lat="42.5632690" lon="-8.6412530">
        <ele>33.4</ele>
        <time>2021-05-22T11:21:25Z</time>
      </trkpt>
      <trkpt lat="42.5632760" lon="-8.6412570">
        <ele>33.4</ele>
        <time>2021-05-22T11:21:26Z</time>
      </trkpt>
      <trkpt lat="42.5632870" lon="-8.6412710">
        <ele>33.5</ele>
        <time>2021-05-22T11:21:27Z</time>
      </trkpt>
      <trkpt lat="42.5633000" lon="-8.6412800">
        <ele>33.5</ele>
        <time>2021-05-22T11:21:28Z</time>
      </trkpt>
      <trkpt lat="42.5633190" lon="-8.6412960">
        <ele>33.6</ele>
        <time>2021-05-22T11:21:29Z</time>
      </trkpt>
      <trkpt lat="42.5633270" lon="-8.6413030">
        <ele>33.7</ele>
        <time>2021-05-22T11:21:30Z</time>
      </trkpt>
      <trkpt lat="42.5633350" lon="-8.6413090">
        <ele>33.7</ele>
        <time>2021-05-22T11:21:31Z</time>
      </trkpt>
      <trkpt lat="42.5633490" lon="-8.6413160">
        <ele>33.8</ele>
        <time>2021-05-22T11:21:32Z</time>
      </trkpt>
      <trkpt lat="42.5633580" lon="-8.6413250">
        <ele>33.8</ele>
        <time>2021-05-22T11:21:33Z</time>
      </trkpt>
      <trkpt lat="42.5633640" lon="-8.6413330">
        <ele>33.8</ele>
        <time>2021-05-22T11:21:34Z</time>
      </trkpt>
      <trkpt lat="42.5633700" lon="-8.6413380">
        <ele>33.8</ele>
        <time>2021-05-22T11:21:35Z</time>
      </trkpt>
      <trkpt lat="42.5633810" lon="-8.6413460">
        <ele>33.9</ele>
        <time>2021-05-22T11:21:36Z</time>
      </trkpt>
      <trkpt lat="42.5633930" lon="-8.6413540">
        <ele>33.9</ele>
        <time>2021-05-22T11:21:37Z</time>
      </trkpt>
      <trkpt lat="42.5634020" lon="-8.6413640">
        <ele>33.9</ele>
        <time>2021-05-22T11:21:38Z</time>
      </trkpt>
      <trkpt lat="42.5634160" lon="-8.6413760">
        <ele>34.0</ele>
        <time>2021-05-22T11:21:39Z</time>
      </trkpt>
      <trkpt lat="42.5634370" lon="-8.6413910">
        <ele>34.0</ele>
        <time>2021-05-22T11:21:40Z</time>
      </trkpt>
      <trkpt lat="42.5634450" lon="-8.6413970">
        <ele>34.0</ele>
        <time>2021-05-22T11:21:41Z</time>
      </trkpt>
      <trkpt lat="42.5634540" lon="-8.6414030">
        <ele>34.0</ele>
        <time>2021-05-22T11:21:42Z</time>
      </trkpt>
      <trkpt lat="42.5634660" lon="-8.6414130">
        <ele>34.0</ele>
        <time>2021-05-22T11:21:43Z</time>
      </trkpt>
      <trkpt lat="42.5634820" lon="-8.6414110">
        <ele>34.0</ele>
        <time>2021-05-22T11:21:44Z</time>
      </trkpt>
      <trkpt lat="42.5634960" lon="-8.6414140">
        <ele>34.0</ele>
        <time>2021-05-22T11:21:45Z</time>
      </trkpt>
      <trkpt lat="42.5635080" lon="-8.6414260">
        <ele>34.0</ele>
        <time>2021-05-22T11:21:46Z</time>
      </trkpt>
      <trkpt lat="42.5635180" lon="-8.6414350">
        <ele>34.0</ele>
        <time>2021-05-22T11:21:47Z</time>
      </trkpt>
      <trkpt lat="42.5635290" lon="-8.6414410">
        <ele>34.0</ele>
        <time>2021-05-22T11:21:48Z</time>
      </trkpt>
      <trkpt lat="42.5635360" lon="-8.6414500">
        <ele>34.0</ele>
        <time>2021-05-22T11:21:49Z</time>
      </trkpt>
      <trkpt lat="42.5635520" lon="-8.6414640">
        <ele>34.0</ele>
        <time>2021-05-22T11:21:50Z</time>
      </trkpt>
      <trkpt lat="42.5635600" lon="-8.6414690">
        <ele>33.9</ele>
        <time>2021-05-22T11:21:51Z</time>
      </trkpt>
      <trkpt lat="42.5635690" lon="-8.6414730">
        <ele>33.9</ele>
        <time>2021-05-22T11:21:52Z</time>
      </trkpt>
      <trkpt lat="42.5635810" lon="-8.6414760">
        <ele>33.9</ele>
        <time>2021-05-22T11:21:53Z</time>
      </trkpt>
      <trkpt lat="42.5635970" lon="-8.6414860">
        <ele>33.9</ele>
        <time>2021-05-22T11:21:54Z</time>
      </trkpt>
      <trkpt lat="42.5636120" lon="-8.6414990">
        <ele>33.8</ele>
        <time>2021-05-22T11:21:55Z</time>
      </trkpt>
      <trkpt lat="42.5636200" lon="-8.6415070">
        <ele>33.8</ele>
        <time>2021-05-22T11:21:56Z</time>
      </trkpt>
      <trkpt lat="42.5636270" lon="-8.6415150">
        <ele>33.8</ele>
        <time>2021-05-22T11:21:57Z</time>
      </trkpt>
      <trkpt lat="42.5636320" lon="-8.6415120">
        <ele>33.8</ele>
        <time>2021-05-22T11:21:58Z</time>
      </trkpt>
      <trkpt lat="42.5636440" lon="-8.6415180">
        <ele>33.8</ele>
        <time>2021-05-22T11:21:59Z</time>
      </trkpt>
      <trkpt lat="42.5636600" lon="-8.6415240">
        <ele>33.8</ele>
        <time>2021-05-22T11:22:00Z</time>
      </trkpt>
      <trkpt lat="42.5636740" lon="-8.6415350">
        <ele>33.7</ele>
        <time>2021-05-22T11:22:01Z</time>
      </trkpt>
      <trkpt lat="42.5636790" lon="-8.6415410">
        <ele>33.7</ele>
        <time>2021-05-22T11:22:02Z</time>
      </trkpt>
      <trkpt lat="42.5636860" lon="-8.6415440">
        <ele>33.7</ele>
        <time>2021-05-22T11:22:03Z</time>
      </trkpt>
      <trkpt lat="42.5637040" lon="-8.6415580">
        <ele>33.7</ele>
        <time>2021-05-22T11:22:04Z</time>
      </trkpt>
      <trkpt lat="42.5637110" lon="-8.6415650">
        <ele>33.6</ele>
        <time>2021-05-22T11:22:05Z</time>
      </trkpt>
      <trkpt lat="42.5637190" lon="-8.6415710">
        <ele>33.6</ele>
        <time>2021-05-22T11:22:06Z</time>
      </trkpt>
      <trkpt lat="42.5637370" lon="-8.6415770">
        <ele>33.6</ele>
        <time>2021-05-22T11:22:07Z</time>
      </trkpt>
      <trkpt lat="42.5637470" lon="-8.6415820">
        <ele>33.6</ele>
        <time>2021-05-22T11:22:08Z</time>
      </trkpt>
      <trkpt lat="42.5637560" lon="-8.6415860">
        <ele>33.6</ele>
        <time>2021-05-22T11:22:09Z</time>
      </trkpt>
      <trkpt lat="42.5637670" lon="-8.6415960">
        <ele>33.6</ele>
        <time>2021-05-22T11:22:10Z</time>
      </trkpt>
      <trkpt lat="42.5637790" lon="-8.6416010">
        <ele>33.5</ele>
        <time>2021-05-22T11:22:11Z</time>
      </trkpt>
      <trkpt lat="42.5637880" lon="-8.6416030">
        <ele>33.5</ele>
        <time>2021-05-22T11:22:12Z</time>
      </trkpt>
      <trkpt lat="42.5637990" lon="-8.6416090">
        <ele>33.5</ele>
        <time>2021-05-22T11:22:13Z</time>
      </trkpt>
      <trkpt lat="42.5638160" lon="-8.6416210">
        <ele>33.5</ele>
        <time>2021-05-22T11:22:14Z</time>
      </trkpt>
      <trkpt lat="42.5638280" lon="-8.6416230">
        <ele>33.5</ele>
        <time>2021-05-22T11:22:15Z</time>
      </trkpt>
      <trkpt lat="42.5638360" lon="-8.6416280">
        <ele>33.5</ele>
        <time>2021-05-22T11:22:16Z</time>
      </trkpt>
      <trkpt lat="42.5638430" lon="-8.6416330">
        <ele>33.5</ele>
        <time>2021-05-22T11:22:17Z</time>
      </trkpt>
      <trkpt lat="42.5638510" lon="-8.6416380">
        <ele>33.5</ele>
        <time>2021-05-22T11:22:18Z</time>
      </trkpt>
      <trkpt lat="42.5638660" lon="-8.6416450">
        <ele>33.4</ele>
        <time>2021-05-22T11:22:19Z</time>
      </trkpt>
      <trkpt lat="42.5638780" lon="-8.6416500">
        <ele>33.4</ele>
        <time>2021-05-22T11:22:20Z</time>
      </trkpt>
      <trkpt lat="42.5638920" lon="-8.6416540">
        <ele>33.4</ele>
        <time>2021-05-22T11:22:21Z</time>
      </trkpt>
      <trkpt lat="42.5639060" lon="-8.6416600">
        <ele>33.4</ele>
        <time>2021-05-22T11:22:22Z</time>
      </trkpt>
      <trkpt lat="42.5639150" lon="-8.6416630">
        <ele>33.4</ele>
        <time>2021-05-22T11:22:23Z</time>
      </trkpt>
      <trkpt lat="42.5639230" lon="-8.6416640">
        <ele>33.4</ele>
        <time>2021-05-22T11:22:24Z</time>
      </trkpt>
      <trkpt lat="42.5639340" lon="-8.6416710">
        <ele>33.4</ele>
        <time>2021-05-22T11:22:25Z</time>
      </trkpt>
      <trkpt lat="42.5639570" lon="-8.6416790">
        <ele>33.3</ele>
        <time>2021-05-22T11:22:26Z</time>
      </trkpt>
      <trkpt lat="42.5639660" lon="-8.6416820">
        <ele>33.3</ele>
        <time>2021-05-22T11:22:27Z</time>
      </trkpt>
      <trkpt lat="42.5639740" lon="-8.6416860">
        <ele>33.3</ele>
        <time>2021-05-22T11:22:28Z</time>
      </trkpt>
      <trkpt lat="42.5639800" lon="-8.6416830">
        <ele>33.3</ele>
        <time>2021-05-22T11:22:29Z</time>
      </trkpt>
      <trkpt lat="42.5639900" lon="-8.6416870">
        <ele>33.3</ele>
        <time>2021-05-22T11:22:30Z</time>
      </trkpt>
      <trkpt lat="42.5640040" lon="-8.6416930">
        <ele>33.3</ele>
        <time>2021-05-22T11:22:31Z</time>
      </trkpt>
      <trkpt lat="42.5640170" lon="-8.6416910">
        <ele>33.3</ele>
        <time>2021-05-22T11:22:32Z</time>
      </trkpt>
      <trkpt lat="42.5640260" lon="-8.6416950">
        <ele>33.3</ele>
        <time>2021-05-22T11:22:33Z</time>
      </trkpt>
      <trkpt lat="42.5640400" lon="-8.6417000">
        <ele>33.3</ele>
        <time>2021-05-22T11:22:34Z</time>
      </trkpt>
      <trkpt lat="42.5640550" lon="-8.6417030">
        <ele>33.3</ele>
        <time>2021-05-22T11:22:35Z</time>
      </trkpt>
      <trkpt lat="42.5640700" lon="-8.6417090">
        <ele>33.3</ele>
        <time>2021-05-22T11:22:36Z</time>
      </trkpt>
      <trkpt lat="42.5640810" lon="-8.6417170">
        <ele>33.2</ele>
        <time>2021-05-22T11:22:37Z</time>
      </trkpt>
      <trkpt lat="42.5640950" lon="-8.6417160">
        <ele>33.2</ele>
        <time>2021-05-22T11:22:38Z</time>
      </trkpt>
      <trkpt lat="42.5641030" lon="-8.6417170">
        <ele>33.2</ele>
        <time>2021-05-22T11:22:39Z</time>
      </trkpt>
      <trkpt lat="42.5641170" lon="-8.6417160">
        <ele>33.2</ele>
        <time>2021-05-22T11:22:40Z</time>
      </trkpt>
      <trkpt lat="42.5641310" lon="-8.6417190">
        <ele>33.2</ele>
        <time>2021-05-22T11:22:41Z</time>
      </trkpt>
      <trkpt lat="42.5641480" lon="-8.6417310">
        <ele>33.2</ele>
        <time>2021-05-22T11:22:42Z</time>
      </trkpt>
      <trkpt lat="42.5641600" lon="-8.6417340">
        <ele>33.2</ele>
        <time>2021-05-22T11:22:43Z</time>
      </trkpt>
      <trkpt lat="42.5641770" lon="-8.6417430">
        <ele>33.2</ele>
        <time>2021-05-22T11:22:44Z</time>
      </trkpt>
      <trkpt lat="42.5641870" lon="-8.6417450">
        <ele>33.2</ele>
        <time>2021-05-22T11:22:45Z</time>
      </trkpt>
      <trkpt lat="42.5642010" lon="-8.6417520">
        <ele>33.2</ele>
        <time>2021-05-22T11:22:46Z</time>
      </trkpt>
      <trkpt lat="42.5642150" lon="-8.6417530">
        <ele>33.2</ele>
        <time>2021-05-22T11:22:47Z</time>
      </trkpt>
      <trkpt lat="42.5642310" lon="-8.6417540">
        <ele>33.2</ele>
        <time>2021-05-22T11:22:48Z</time>
      </trkpt>
      <trkpt lat="42.5642460" lon="-8.6417590">
        <ele>33.2</ele>
        <time>2021-05-22T11:22:49Z</time>
      </trkpt>
      <trkpt lat="42.5642650" lon="-8.6417570">
        <ele>33.2</ele>
        <time>2021-05-22T11:22:50Z</time>
      </trkpt>
      <trkpt lat="42.5642740" lon="-8.6417570">
        <ele>33.2</ele>
        <time>2021-05-22T11:22:51Z</time>
      </trkpt>
      <trkpt lat="42.5642820" lon="-8.6417560">
        <ele>33.2</ele>
        <time>2021-05-22T11:22:52Z</time>
      </trkpt>
      <trkpt lat="42.5643010" lon="-8.6417560">
        <ele>33.2</ele>
        <time>2021-05-22T11:22:53Z</time>
      </trkpt>
      <trkpt lat="42.5643120" lon="-8.6417620">
        <ele>33.2</ele>
        <time>2021-05-22T11:22:54Z</time>
      </trkpt>
      <trkpt lat="42.5643310" lon="-8.6417680">
        <ele>33.2</ele>
        <time>2021-05-22T11:22:55Z</time>
      </trkpt>
      <trkpt lat="42.5643400" lon="-8.6417680">
        <ele>33.2</ele>
        <time>2021-05-22T11:22:56Z</time>
      </trkpt>
      <trkpt lat="42.5643500" lon="-8.6417690">
        <ele>33.2</ele>
        <time>2021-05-22T11:22:57Z</time>
      </trkpt>
      <trkpt lat="42.5643640" lon="-8.6417670">
        <ele>33.2</ele>
        <time>2021-05-22T11:22:58Z</time>
      </trkpt>
      <trkpt lat="42.5643770" lon="-8.6417670">
        <ele>33.3</ele>
        <time>2021-05-22T11:22:59Z</time>
      </trkpt>
      <trkpt lat="42.5643900" lon="-8.6417660">
        <ele>33.3</ele>
        <time>2021-05-22T11:23:00Z</time>
      </trkpt>
      <trkpt lat="42.5644030" lon="-8.6417690">
        <ele>33.3</ele>
        <time>2021-05-22T11:23:01Z</time>
      </trkpt>
      <trkpt lat="42.5644130" lon="-8.6417710">
        <ele>33.3</ele>
        <time>2021-05-22T11:23:02Z</time>
      </trkpt>
      <trkpt lat="42.5644240" lon="-8.6417700">
        <ele>33.3</ele>
        <time>2021-05-22T11:23:03Z</time>
      </trkpt>
      <trkpt lat="42.5644340" lon="-8.6417710">
        <ele>33.3</ele>
        <time>2021-05-22T11:23:05Z</time>
      </trkpt>
      <trkpt lat="42.5644430" lon="-8.6417720">
        <ele>33.3</ele>
        <time>2021-05-22T11:23:06Z</time>
      </trkpt>
      <trkpt lat="42.5644510" lon="-8.6417720">
        <ele>33.3</ele>
        <time>2021-05-22T11:23:07Z</time>
      </trkpt>
      <trkpt lat="42.5644670" lon="-8.6417770">
        <ele>33.3</ele>
        <time>2021-05-22T11:23:08Z</time>
      </trkpt>
      <trkpt lat="42.5644790" lon="-8.6417750">
        <ele>33.3</ele>
        <time>2021-05-22T11:23:09Z</time>
      </trkpt>
      <trkpt lat="42.5644890" lon="-8.6417790">
        <ele>33.3</ele>
        <time>2021-05-22T11:23:10Z</time>
      </trkpt>
      <trkpt lat="42.5644960" lon="-8.6417810">
        <ele>33.4</ele>
        <time>2021-05-22T11:23:11Z</time>
      </trkpt>
      <trkpt lat="42.5645110" lon="-8.6417820">
        <ele>33.4</ele>
        <time>2021-05-22T11:23:12Z</time>
      </trkpt>
      <trkpt lat="42.5645300" lon="-8.6417700">
        <ele>33.4</ele>
        <time>2021-05-22T11:23:13Z</time>
      </trkpt>
      <trkpt lat="42.5645390" lon="-8.6417640">
        <ele>33.4</ele>
        <time>2021-05-22T11:23:14Z</time>
      </trkpt>
      <trkpt lat="42.5645470" lon="-8.6417590">
        <ele>33.4</ele>
        <time>2021-05-22T11:23:15Z</time>
      </trkpt>
      <trkpt lat="42.5645610" lon="-8.6417460">
        <ele>33.4</ele>
        <time>2021-05-22T11:23:16Z</time>
      </trkpt>
      <trkpt lat="42.5645760" lon="-8.6417400">
        <ele>33.3</ele>
        <time>2021-05-22T11:23:17Z</time>
      </trkpt>
      <trkpt lat="42.5645870" lon="-8.6417360">
        <ele>33.3</ele>
        <time>2021-05-22T11:23:18Z</time>
      </trkpt>
      <trkpt lat="42.5646020" lon="-8.6417330">
        <ele>33.3</ele>
        <time>2021-05-22T11:23:19Z</time>
      </trkpt>
      <trkpt lat="42.5646090" lon="-8.6417340">
        <ele>33.3</ele>
        <time>2021-05-22T11:23:20Z</time>
      </trkpt>
      <trkpt lat="42.5646380" lon="-8.6417360">
        <ele>33.3</ele>
        <time>2021-05-22T11:23:21Z</time>
      </trkpt>
      <trkpt lat="42.5646480" lon="-8.6417440">
        <ele>33.3</ele>
        <time>2021-05-22T11:23:22Z</time>
      </trkpt>
      <trkpt lat="42.5646520" lon="-8.6417580">
        <ele>33.2</ele>
        <time>2021-05-22T11:23:23Z</time>
      </trkpt>
      <trkpt lat="42.5646630" lon="-8.6417690">
        <ele>33.2</ele>
        <time>2021-05-22T11:23:24Z</time>
      </trkpt>
      <trkpt lat="42.5646760" lon="-8.6417760">
        <ele>33.2</ele>
        <time>2021-05-22T11:23:25Z</time>
      </trkpt>
      <trkpt lat="42.5646870" lon="-8.6417850">
        <ele>33.2</ele>
        <time>2021-05-22T11:23:26Z</time>
      </trkpt>
      <trkpt lat="42.5647060" lon="-8.6417940">
        <ele>33.1</ele>
        <time>2021-05-22T11:23:27Z</time>
      </trkpt>
      <trkpt lat="42.5647140" lon="-8.6418000">
        <ele>33.1</ele>
        <time>2021-05-22T11:23:28Z</time>
      </trkpt>
      <trkpt lat="42.5647240" lon="-8.6418060">
        <ele>33.1</ele>
        <time>2021-05-22T11:23:29Z</time>
      </trkpt>
      <trkpt lat="42.5647350" lon="-8.6418120">
        <ele>33.1</ele>
        <time>2021-05-22T11:23:30Z</time>
      </trkpt>
      <trkpt lat="42.5647460" lon="-8.6418130">
        <ele>33.1</ele>
        <time>2021-05-22T11:23:31Z</time>
      </trkpt>
      <trkpt lat="42.5647580" lon="-8.6418110">
        <ele>33.1</ele>
        <time>2021-05-22T11:23:32Z</time>
      </trkpt>
      <trkpt lat="42.5647740" lon="-8.6418140">
        <ele>33.0</ele>
        <time>2021-05-22T11:23:33Z</time>
      </trkpt>
      <trkpt lat="42.5647840" lon="-8.6418210">
        <ele>33.0</ele>
        <time>2021-05-22T11:23:34Z</time>
      </trkpt>
      <trkpt lat="42.5647890" lon="-8.6418320">
        <ele>33.0</ele>
        <time>2021-05-22T11:23:35Z</time>
      </trkpt>
      <trkpt lat="42.5647980" lon="-8.6418430">
        <ele>33.0</ele>
        <time>2021-05-22T11:23:36Z</time>
      </trkpt>
      <trkpt lat="42.5648060" lon="-8.6418540">
        <ele>33.0</ele>
        <time>2021-05-22T11:23:37Z</time>
      </trkpt>
      <trkpt lat="42.5648120" lon="-8.6418610">
        <ele>33.0</ele>
        <time>2021-05-22T11:23:38Z</time>
      </trkpt>
      <trkpt lat="42.5648220" lon="-8.6418640">
        <ele>33.0</ele>
        <time>2021-05-22T11:23:39Z</time>
      </trkpt>
      <trkpt lat="42.5648420" lon="-8.6418690">
        <ele>33.0</ele>
        <time>2021-05-22T11:23:40Z</time>
      </trkpt>
      <trkpt lat="42.5648500" lon="-8.6418700">
        <ele>33.0</ele>
        <time>2021-05-22T11:23:41Z</time>
      </trkpt>
      <trkpt lat="42.5648590" lon="-8.6418710">
        <ele>33.0</ele>
        <time>2021-05-22T11:23:42Z</time>
      </trkpt>
      <trkpt lat="42.5648720" lon="-8.6418680">
        <ele>33.0</ele>
        <time>2021-05-22T11:23:43Z</time>
      </trkpt>
      <trkpt lat="42.5648810" lon="-8.6418680">
        <ele>32.9</ele>
        <time>2021-05-22T11:23:44Z</time>
      </trkpt>
      <trkpt lat="42.5648900" lon="-8.6418680">
        <ele>32.9</ele>
        <time>2021-05-22T11:23:45Z</time>
      </trkpt>
      <trkpt lat="42.5648990" lon="-8.6418680">
        <ele>32.9</ele>
        <time>2021-05-22T11:23:46Z</time>
      </trkpt>
      <trkpt lat="42.5649100" lon="-8.6418650">
        <ele>32.9</ele>
        <time>2021-05-22T11:23:47Z</time>
      </trkpt>
      <trkpt lat="42.5649220" lon="-8.6418600">
        <ele>32.9</ele>
        <time>2021-05-22T11:23:48Z</time>
      </trkpt>
      <trkpt lat="42.5649300" lon="-8.6418620">
        <ele>32.9</ele>
        <time>2021-05-22T11:23:49Z</time>
      </trkpt>
      <trkpt lat="42.5649420" lon="-8.6418630">
        <ele>32.9</ele>
        <time>2021-05-22T11:23:50Z</time>
      </trkpt>
      <trkpt lat="42.5649580" lon="-8.6418600">
        <ele>32.8</ele>
        <time>2021-05-22T11:23:51Z</time>
      </trkpt>
      <trkpt lat="42.5649690" lon="-8.6418600">
        <ele>32.8</ele>
        <time>2021-05-22T11:23:52Z</time>
      </trkpt>
      <trkpt lat="42.5649820" lon="-8.6418570">
        <ele>32.8</ele>
        <time>2021-05-22T11:23:53Z</time>
      </trkpt>
      <trkpt lat="42.5649930" lon="-8.6418540">
        <ele>32.8</ele>
        <time>2021-05-22T11:23:54Z</time>
      </trkpt>
      <trkpt lat="42.5650050" lon="-8.6418580">
        <ele>32.8</ele>
        <time>2021-05-22T11:23:55Z</time>
      </trkpt>
      <trkpt lat="42.5650220" lon="-8.6418550">
        <ele>32.8</ele>
        <time>2021-05-22T11:23:56Z</time>
      </trkpt>
      <trkpt lat="42.5650290" lon="-8.6418480">
        <ele>32.7</ele>
        <time>2021-05-22T11:23:57Z</time>
      </trkpt>
      <trkpt lat="42.5650450" lon="-8.6418480">
        <ele>32.7</ele>
        <time>2021-05-22T11:23:58Z</time>
      </trkpt>
      <trkpt lat="42.5650550" lon="-8.6418450">
        <ele>32.7</ele>
        <time>2021-05-22T11:23:59Z</time>
      </trkpt>
      <trkpt lat="42.5650710" lon="-8.6418410">
        <ele>32.7</ele>
        <time>2021-05-22T11:24:00Z</time>
      </trkpt>
      <trkpt lat="42.5650810" lon="-8.6418390">
        <ele>32.7</ele>
        <time>2021-05-22T11:24:01Z</time>
      </trkpt>
      <trkpt lat="42.5650880" lon="-8.6418360">
        <ele>32.7</ele>
        <time>2021-05-22T11:24:02Z</time>
      </trkpt>
      <trkpt lat="42.5651150" lon="-8.6418350">
        <ele>32.6</ele>
        <time>2021-05-22T11:24:03Z</time>
      </trkpt>
      <trkpt lat="42.5651240" lon="-8.6418340">
        <ele>32.6</ele>
        <time>2021-05-22T11:24:04Z</time>
      </trkpt>
      <trkpt lat="42.5651330" lon="-8.6418330">
        <ele>32.6</ele>
        <time>2021-05-22T11:24:05Z</time>
      </trkpt>
      <trkpt lat="42.5651370" lon="-8.6418330">
        <ele>32.6</ele>
        <time>2021-05-22T11:24:06Z</time>
      </trkpt>
      <trkpt lat="42.5651510" lon="-8.6418350">
        <ele>32.6</ele>
        <time>2021-05-22T11:24:07Z</time>
      </trkpt>
      <trkpt lat="42.5651590" lon="-8.6418290">
        <ele>32.6</ele>
        <time>2021-05-22T11:24:08Z</time>
      </trkpt>
      <trkpt lat="42.5651810" lon="-8.6418190">
        <ele>32.6</ele>
        <time>2021-05-22T11:24:09Z</time>
      </trkpt>
      <trkpt lat="42.5651880" lon="-8.6418160">
        <ele>32.6</ele>
        <time>2021-05-22T11:24:10Z</time>
      </trkpt>
      <trkpt lat="42.5651960" lon="-8.6418140">
        <ele>32.6</ele>
        <time>2021-05-22T11:24:11Z</time>
      </trkpt>
      <trkpt lat="42.5652180" lon="-8.6418100">
        <ele>32.5</ele>
        <time>2021-05-22T11:24:12Z</time>
      </trkpt>
      <trkpt lat="42.5652270" lon="-8.6418080">
        <ele>32.5</ele>
        <time>2021-05-22T11:24:13Z</time>
      </trkpt>
      <trkpt lat="42.5652360" lon="-8.6418070">
        <ele>32.5</ele>
        <time>2021-05-22T11:24:14Z</time>
      </trkpt>
      <trkpt lat="42.5652490" lon="-8.6418010">
        <ele>32.5</ele>
        <time>2021-05-22T11:24:15Z</time>
      </trkpt>
      <trkpt lat="42.5652560" lon="-8.6418030">
        <ele>32.5</ele>
        <time>2021-05-22T11:24:16Z</time>
      </trkpt>
      <trkpt lat="42.5652670" lon="-8.6417970">
        <ele>32.5</ele>
        <time>2021-05-22T11:24:17Z</time>
      </trkpt>
      <trkpt lat="42.5652810" lon="-8.6417850">
        <ele>32.5</ele>
        <time>2021-05-22T11:24:18Z</time>
      </trkpt>
      <trkpt lat="42.5652900" lon="-8.6417780">
        <ele>32.5</ele>
        <time>2021-05-22T11:24:19Z</time>
      </trkpt>
      <trkpt lat="42.5652990" lon="-8.6417710">
        <ele>32.5</ele>
        <time>2021-05-22T11:24:20Z</time>
      </trkpt>
      <trkpt lat="42.5653220" lon="-8.6417680">
        <ele>32.5</ele>
        <time>2021-05-22T11:24:21Z</time>
      </trkpt>
      <trkpt lat="42.5653310" lon="-8.6417680">
        <ele>32.5</ele>
        <time>2021-05-22T11:24:22Z</time>
      </trkpt>
      <trkpt lat="42.5653410" lon="-8.6417680">
        <ele>32.5</ele>
        <time>2021-05-22T11:24:23Z</time>
      </trkpt>
      <trkpt lat="42.5653630" lon="-8.6417700">
        <ele>32.5</ele>
        <time>2021-05-22T11:24:24Z</time>
      </trkpt>
      <trkpt lat="42.5653730" lon="-8.6417690">
        <ele>32.4</ele>
        <time>2021-05-22T11:24:25Z</time>
      </trkpt>
      <trkpt lat="42.5653820" lon="-8.6417680">
        <ele>32.4</ele>
        <time>2021-05-22T11:24:26Z</time>
      </trkpt>
      <trkpt lat="42.5653960" lon="-8.6417640">
        <ele>32.4</ele>
        <time>2021-05-22T11:24:27Z</time>
      </trkpt>
      <trkpt lat="42.5654110" lon="-8.6417580">
        <ele>32.4</ele>
        <time>2021-05-22T11:24:28Z</time>
      </trkpt>
      <trkpt lat="42.5654220" lon="-8.6417580">
        <ele>32.4</ele>
        <time>2021-05-22T11:24:29Z</time>
      </trkpt>
      <trkpt lat="42.5654340" lon="-8.6417570">
        <ele>32.4</ele>
        <time>2021-05-22T11:24:30Z</time>
      </trkpt>
      <trkpt lat="42.5654410" lon="-8.6417580">
        <ele>32.4</ele>
        <time>2021-05-22T11:24:31Z</time>
      </trkpt>
      <trkpt lat="42.5654570" lon="-8.6417480">
        <ele>32.4</ele>
        <time>2021-05-22T11:24:32Z</time>
      </trkpt>
      <trkpt lat="42.5654700" lon="-8.6417450">
        <ele>32.4</ele>
        <time>2021-05-22T11:24:33Z</time>
      </trkpt>
      <trkpt lat="42.5654840" lon="-8.6417380">
        <ele>32.4</ele>
        <time>2021-05-22T11:24:34Z</time>
      </trkpt>
      <trkpt lat="42.5654950" lon="-8.6417310">
        <ele>32.4</ele>
        <time>2021-05-22T11:24:35Z</time>
      </trkpt>
      <trkpt lat="42.5655100" lon="-8.6417260">
        <ele>32.3</ele>
        <time>2021-05-22T11:24:36Z</time>
      </trkpt>
      <trkpt lat="42.5655220" lon="-8.6417190">
        <ele>32.3</ele>
        <time>2021-05-22T11:24:37Z</time>
      </trkpt>
      <trkpt lat="42.5655430" lon="-8.6417130">
        <ele>32.3</ele>
        <time>2021-05-22T11:24:38Z</time>
      </trkpt>
      <trkpt lat="42.5655520" lon="-8.6417090">
        <ele>32.3</ele>
        <time>2021-05-22T11:24:39Z</time>
      </trkpt>
      <trkpt lat="42.5655610" lon="-8.6417060">
        <ele>32.3</ele>
        <time>2021-05-22T11:24:40Z</time>
      </trkpt>
      <trkpt lat="42.5655730" lon="-8.6417010">
        <ele>32.3</ele>
        <time>2021-05-22T11:24:41Z</time>
      </trkpt>
      <trkpt lat="42.5655930" lon="-8.6416910">
        <ele>32.3</ele>
        <time>2021-05-22T11:24:42Z</time>
      </trkpt>
      <trkpt lat="42.5655990" lon="-8.6416950">
        <ele>32.3</ele>
        <time>2021-05-22T11:24:43Z</time>
      </trkpt>
      <trkpt lat="42.5656150" lon="-8.6416930">
        <ele>32.3</ele>
        <time>2021-05-22T11:24:44Z</time>
      </trkpt>
      <trkpt lat="42.5656240" lon="-8.6416890">
        <ele>32.3</ele>
        <time>2021-05-22T11:24:45Z</time>
      </trkpt>
      <trkpt lat="42.5656470" lon="-8.6416790">
        <ele>32.3</ele>
        <time>2021-05-22T11:24:46Z</time>
      </trkpt>
      <trkpt lat="42.5656530" lon="-8.6416750">
        <ele>32.3</ele>
        <time>2021-05-22T11:24:47Z</time>
      </trkpt>
      <trkpt lat="42.5656600" lon="-8.6416710">
        <ele>32.3</ele>
        <time>2021-05-22T11:24:48Z</time>
      </trkpt>
      <trkpt lat="42.5656750" lon="-8.6416680">
        <ele>32.3</ele>
        <time>2021-05-22T11:24:49Z</time>
      </trkpt>
      <trkpt lat="42.5656920" lon="-8.6416560">
        <ele>32.3</ele>
        <time>2021-05-22T11:24:50Z</time>
      </trkpt>
      <trkpt lat="42.5656980" lon="-8.6416550">
        <ele>32.3</ele>
        <time>2021-05-22T11:24:51Z</time>
      </trkpt>
      <trkpt lat="42.5657110" lon="-8.6416490">
        <ele>32.3</ele>
        <time>2021-05-22T11:24:52Z</time>
      </trkpt>
      <trkpt lat="42.5657230" lon="-8.6416440">
        <ele>32.3</ele>
        <time>2021-05-22T11:24:53Z</time>
      </trkpt>
      <trkpt lat="42.5657440" lon="-8.6416440">
        <ele>32.3</ele>
        <time>2021-05-22T11:24:54Z</time>
      </trkpt>
      <trkpt lat="42.5657520" lon="-8.6416420">
        <ele>32.3</ele>
        <time>2021-05-22T11:24:55Z</time>
      </trkpt>
      <trkpt lat="42.5657610" lon="-8.6416410">
        <ele>32.3</ele>
        <time>2021-05-22T11:24:56Z</time>
      </trkpt>
      <trkpt lat="42.5657820" lon="-8.6416300">
        <ele>32.3</ele>
        <time>2021-05-22T11:24:57Z</time>
      </trkpt>
      <trkpt lat="42.5657890" lon="-8.6416280">
        <ele>32.3</ele>
        <time>2021-05-22T11:24:58Z</time>
      </trkpt>
      <trkpt lat="42.5657970" lon="-8.6416250">
        <ele>32.3</ele>
        <time>2021-05-22T11:24:59Z</time>
      </trkpt>
      <trkpt lat="42.5658080" lon="-8.6416230">
        <ele>32.3</ele>
        <time>2021-05-22T11:25:00Z</time>
      </trkpt>
      <trkpt lat="42.5658120" lon="-8.6416180">
        <ele>32.3</ele>
        <time>2021-05-22T11:25:01Z</time>
      </trkpt>
      <trkpt lat="42.5658260" lon="-8.6416150">
        <ele>32.3</ele>
        <time>2021-05-22T11:25:02Z</time>
      </trkpt>
      <trkpt lat="42.5658540" lon="-8.6416040">
        <ele>32.3</ele>
        <time>2021-05-22T11:25:03Z</time>
      </trkpt>
      <trkpt lat="42.5658670" lon="-8.6416000">
        <ele>32.3</ele>
        <time>2021-05-22T11:25:04Z</time>
      </trkpt>
      <trkpt lat="42.5658780" lon="-8.6415970">
        <ele>32.3</ele>
        <time>2021-05-22T11:25:05Z</time>
      </trkpt>
      <trkpt lat="42.5658870" lon="-8.6415960">
        <ele>32.3</ele>
        <time>2021-05-22T11:25:06Z</time>
      </trkpt>
      <trkpt lat="42.5658950" lon="-8.6415950">
        <ele>32.3</ele>
        <time>2021-05-22T11:25:07Z</time>
      </trkpt>
      <trkpt lat="42.5659040" lon="-8.6415940">
        <ele>32.3</ele>
        <time>2021-05-22T11:25:08Z</time>
      </trkpt>
      <trkpt lat="42.5659210" lon="-8.6415890">
        <ele>32.3</ele>
        <time>2021-05-22T11:25:09Z</time>
      </trkpt>
      <trkpt lat="42.5659320" lon="-8.6415800">
        <ele>32.2</ele>
        <time>2021-05-22T11:25:10Z</time>
      </trkpt>
      <trkpt lat="42.5659450" lon="-8.6415790">
        <ele>32.2</ele>
        <time>2021-05-22T11:25:11Z</time>
      </trkpt>
      <trkpt lat="42.5659600" lon="-8.6415730">
        <ele>32.2</ele>
        <time>2021-05-22T11:25:12Z</time>
      </trkpt>
      <trkpt lat="42.5659620" lon="-8.6415730">
        <ele>32.2</ele>
        <time>2021-05-22T11:25:13Z</time>
      </trkpt>
      <trkpt lat="42.5659790" lon="-8.6415700">
        <ele>32.2</ele>
        <time>2021-05-22T11:25:14Z</time>
      </trkpt>
      <trkpt lat="42.5659900" lon="-8.6415680">
        <ele>32.1</ele>
        <time>2021-05-22T11:25:15Z</time>
      </trkpt>
      <trkpt lat="42.5660090" lon="-8.6415620">
        <ele>32.1</ele>
        <time>2021-05-22T11:25:17Z</time>
      </trkpt>
      <trkpt lat="42.5660110" lon="-8.6415610">
        <ele>32.1</ele>
        <time>2021-05-22T11:25:18Z</time>
      </trkpt>
      <trkpt lat="42.5660230" lon="-8.6415610">
        <ele>32.1</ele>
        <time>2021-05-22T11:25:19Z</time>
      </trkpt>
      <trkpt lat="42.5660390" lon="-8.6415680">
        <ele>32.0</ele>
        <time>2021-05-22T11:25:20Z</time>
      </trkpt>
      <trkpt lat="42.5660530" lon="-8.6415720">
        <ele>32.0</ele>
        <time>2021-05-22T11:25:21Z</time>
      </trkpt>
      <trkpt lat="42.5660670" lon="-8.6415740">
        <ele>32.0</ele>
        <time>2021-05-22T11:25:22Z</time>
      </trkpt>
      <trkpt lat="42.5660720" lon="-8.6415800">
        <ele>31.9</ele>
        <time>2021-05-22T11:25:23Z</time>
      </trkpt>
      <trkpt lat="42.5660800" lon="-8.6415810">
        <ele>31.9</ele>
        <time>2021-05-22T11:25:24Z</time>
      </trkpt>
      <trkpt lat="42.5660890" lon="-8.6415860">
        <ele>31.9</ele>
        <time>2021-05-22T11:25:25Z</time>
      </trkpt>
      <trkpt lat="42.5661070" lon="-8.6415890">
        <ele>31.8</ele>
        <time>2021-05-22T11:25:26Z</time>
      </trkpt>
      <trkpt lat="42.5661260" lon="-8.6415930">
        <ele>31.8</ele>
        <time>2021-05-22T11:25:27Z</time>
      </trkpt>
      <trkpt lat="42.5661400" lon="-8.6415950">
        <ele>31.7</ele>
        <time>2021-05-22T11:25:28Z</time>
      </trkpt>
      <trkpt lat="42.5661530" lon="-8.6415950">
        <ele>31.7</ele>
        <time>2021-05-22T11:25:29Z</time>
      </trkpt>
      <trkpt lat="42.5661690" lon="-8.6415950">
        <ele>31.6</ele>
        <time>2021-05-22T11:25:30Z</time>
      </trkpt>
      <trkpt lat="42.5661810" lon="-8.6415990">
        <ele>31.6</ele>
        <time>2021-05-22T11:25:31Z</time>
      </trkpt>
      <trkpt lat="42.5661880" lon="-8.6415970">
        <ele>31.6</ele>
        <time>2021-05-22T11:25:32Z</time>
      </trkpt>
      <trkpt lat="42.5661850" lon="-8.6415980">
        <ele>31.5</ele>
        <time>2021-05-22T11:25:33Z</time>
      </trkpt>
      <trkpt lat="42.5661740" lon="-8.6415980">
        <ele>31.5</ele>
        <time>2021-05-22T11:25:34Z</time>
      </trkpt>
      <trkpt lat="42.5661670" lon="-8.6415990">
        <ele>31.5</ele>
        <time>2021-05-22T11:25:35Z</time>
      </trkpt>
      <trkpt lat="42.5661620" lon="-8.6416030">
        <ele>31.5</ele>
        <time>2021-05-22T11:25:36Z</time>
      </trkpt>
      <trkpt lat="42.5661600" lon="-8.6416030">
        <ele>31.5</ele>
        <time>2021-05-22T11:25:37Z</time>
      </trkpt>
      <trkpt lat="42.5661600" lon="-8.6416040">
        <ele>31.5</ele>
        <time>2021-05-22T11:25:38Z</time>
      </trkpt>
      <trkpt lat="42.5661630" lon="-8.6416110">
        <ele>31.4</ele>
        <time>2021-05-22T11:25:39Z</time>
      </trkpt>
      <trkpt lat="42.5661740" lon="-8.6416180">
        <ele>31.4</ele>
        <time>2021-05-22T11:25:40Z</time>
      </trkpt>
      <trkpt lat="42.5661800" lon="-8.6416230">
        <ele>31.4</ele>
        <time>2021-05-22T11:25:41Z</time>
      </trkpt>
      <trkpt lat="42.5661840" lon="-8.6416220">
        <ele>31.4</ele>
        <time>2021-05-22T11:25:42Z</time>
      </trkpt>
      <trkpt lat="42.5661920" lon="-8.6416240">
        <ele>31.3</ele>
        <time>2021-05-22T11:25:43Z</time>
      </trkpt>
      <trkpt lat="42.5662000" lon="-8.6416250">
        <ele>31.3</ele>
        <time>2021-05-22T11:25:44Z</time>
      </trkpt>
      <trkpt lat="42.5662130" lon="-8.6416250">
        <ele>31.3</ele>
        <time>2021-05-22T11:25:45Z</time>
      </trkpt>
      <trkpt lat="42.5662210" lon="-8.6416250">
        <ele>31.2</ele>
        <time>2021-05-22T11:25:46Z</time>
      </trkpt>
      <trkpt lat="42.5662340" lon="-8.6416250">
        <ele>31.2</ele>
        <time>2021-05-22T11:25:47Z</time>
      </trkpt>
      <trkpt lat="42.5662570" lon="-8.6416220">
        <ele>31.1</ele>
        <time>2021-05-22T11:25:48Z</time>
      </trkpt>
      <trkpt lat="42.5662710" lon="-8.6416230">
        <ele>31.1</ele>
        <time>2021-05-22T11:25:49Z</time>
      </trkpt>
      <trkpt lat="42.5662830" lon="-8.6416230">
        <ele>31.1</ele>
        <time>2021-05-22T11:25:50Z</time>
      </trkpt>
      <trkpt lat="42.5662950" lon="-8.6416240">
        <ele>31.0</ele>
        <time>2021-05-22T11:25:51Z</time>
      </trkpt>
      <trkpt lat="42.5663070" lon="-8.6416310">
        <ele>31.0</ele>
        <time>2021-05-22T11:25:52Z</time>
      </trkpt>
      <trkpt lat="42.5663150" lon="-8.6416320">
        <ele>31.0</ele>
        <time>2021-05-22T11:25:53Z</time>
      </trkpt>
      <trkpt lat="42.5663230" lon="-8.6416330">
        <ele>31.0</ele>
        <time>2021-05-22T11:25:54Z</time>
      </trkpt>
      <trkpt lat="42.5663310" lon="-8.6416340">
        <ele>31.0</ele>
        <time>2021-05-22T11:25:55Z</time>
      </trkpt>
      <trkpt lat="42.5663430" lon="-8.6416390">
        <ele>30.9</ele>
        <time>2021-05-22T11:25:56Z</time>
      </trkpt>
      <trkpt lat="42.5663580" lon="-8.6416380">
        <ele>30.9</ele>
        <time>2021-05-22T11:25:57Z</time>
      </trkpt>
      <trkpt lat="42.5663710" lon="-8.6416430">
        <ele>30.9</ele>
        <time>2021-05-22T11:25:58Z</time>
      </trkpt>
      <trkpt lat="42.5663900" lon="-8.6416420">
        <ele>30.8</ele>
        <time>2021-05-22T11:25:59Z</time>
      </trkpt>
      <trkpt lat="42.5663990" lon="-8.6416430">
        <ele>30.8</ele>
        <time>2021-05-22T11:26:00Z</time>
      </trkpt>
      <trkpt lat="42.5664090" lon="-8.6416410">
        <ele>30.8</ele>
        <time>2021-05-22T11:26:01Z</time>
      </trkpt>
      <trkpt lat="42.5664220" lon="-8.6416430">
        <ele>30.8</ele>
        <time>2021-05-22T11:26:02Z</time>
      </trkpt>
      <trkpt lat="42.5664330" lon="-8.6416460">
        <ele>30.8</ele>
        <time>2021-05-22T11:26:03Z</time>
      </trkpt>
      <trkpt lat="42.5664450" lon="-8.6416530">
        <ele>30.7</ele>
        <time>2021-05-22T11:26:04Z</time>
      </trkpt>
      <trkpt lat="42.5664520" lon="-8.6416640">
        <ele>30.7</ele>
        <time>2021-05-22T11:26:05Z</time>
      </trkpt>
      <trkpt lat="42.5664570" lon="-8.6416670">
        <ele>30.7</ele>
        <time>2021-05-22T11:26:06Z</time>
      </trkpt>
      <trkpt lat="42.5664640" lon="-8.6416750">
        <ele>30.7</ele>
        <time>2021-05-22T11:26:07Z</time>
      </trkpt>
      <trkpt lat="42.5664790" lon="-8.6416870">
        <ele>30.7</ele>
        <time>2021-05-22T11:26:08Z</time>
      </trkpt>
      <trkpt lat="42.5664890" lon="-8.6416950">
        <ele>30.7</ele>
        <time>2021-05-22T11:26:09Z</time>
      </trkpt>
      <trkpt lat="42.5665050" lon="-8.6417040">
        <ele>30.7</ele>
        <time>2021-05-22T11:26:10Z</time>
      </trkpt>
      <trkpt lat="42.5665200" lon="-8.6417070">
        <ele>30.7</ele>
        <time>2021-05-22T11:26:11Z</time>
      </trkpt>
      <trkpt lat="42.5665320" lon="-8.6417080">
        <ele>30.7</ele>
        <time>2021-05-22T11:26:12Z</time>
      </trkpt>
      <trkpt lat="42.5665430" lon="-8.6417030">
        <ele>30.7</ele>
        <time>2021-05-22T11:26:13Z</time>
      </trkpt>
      <trkpt lat="42.5665490" lon="-8.6416950">
        <ele>30.7</ele>
        <time>2021-05-22T11:26:14Z</time>
      </trkpt>
      <trkpt lat="42.5665630" lon="-8.6416840">
        <ele>30.6</ele>
        <time>2021-05-22T11:26:15Z</time>
      </trkpt>
      <trkpt lat="42.5665810" lon="-8.6416690">
        <ele>30.6</ele>
        <time>2021-05-22T11:26:16Z</time>
      </trkpt>
      <trkpt lat="42.5665920" lon="-8.6416600">
        <ele>30.6</ele>
        <time>2021-05-22T11:26:17Z</time>
      </trkpt>
      <trkpt lat="42.5666060" lon="-8.6416530">
        <ele>30.6</ele>
        <time>2021-05-22T11:26:18Z</time>
      </trkpt>
      <trkpt lat="42.5666220" lon="-8.6416480">
        <ele>30.6</ele>
        <time>2021-05-22T11:26:19Z</time>
      </trkpt>
      <trkpt lat="42.5666280" lon="-8.6416410">
        <ele>30.6</ele>
        <time>2021-05-22T11:26:20Z</time>
      </trkpt>
      <trkpt lat="42.5666340" lon="-8.6416420">
        <ele>30.6</ele>
        <time>2021-05-22T11:26:21Z</time>
      </trkpt>
      <trkpt lat="42.5666550" lon="-8.6416300">
        <ele>30.6</ele>
        <time>2021-05-22T11:26:22Z</time>
      </trkpt>
      <trkpt lat="42.5666590" lon="-8.6416300">
        <ele>30.6</ele>
        <time>2021-05-22T11:26:23Z</time>
      </trkpt>
      <trkpt lat="42.5666710" lon="-8.6416260">
        <ele>30.6</ele>
        <time>2021-05-22T11:26:24Z</time>
      </trkpt>
      <trkpt lat="42.5666800" lon="-8.6416180">
        <ele>30.6</ele>
        <time>2021-05-22T11:26:25Z</time>
      </trkpt>
      <trkpt lat="42.5666860" lon="-8.6416120">
        <ele>30.6</ele>
        <time>2021-05-22T11:26:26Z</time>
      </trkpt>
      <trkpt lat="42.5666980" lon="-8.6416030">
        <ele>30.6</ele>
        <time>2021-05-22T11:26:27Z</time>
      </trkpt>
      <trkpt lat="42.5667110" lon="-8.6415940">
        <ele>30.6</ele>
        <time>2021-05-22T11:26:28Z</time>
      </trkpt>
      <trkpt lat="42.5667230" lon="-8.6415880">
        <ele>30.6</ele>
        <time>2021-05-22T11:26:29Z</time>
      </trkpt>
      <trkpt lat="42.5667260" lon="-8.6415810">
        <ele>30.6</ele>
        <time>2021-05-22T11:26:30Z</time>
      </trkpt>
      <trkpt lat="42.5667370" lon="-8.6415830">
        <ele>30.6</ele>
        <time>2021-05-22T11:26:31Z</time>
      </trkpt>
      <trkpt lat="42.5667470" lon="-8.6415840">
        <ele>30.6</ele>
        <time>2021-05-22T11:26:32Z</time>
      </trkpt>
      <trkpt lat="42.5667530" lon="-8.6415860">
        <ele>30.6</ele>
        <time>2021-05-22T11:26:33Z</time>
      </trkpt>
      <trkpt lat="42.5667600" lon="-8.6415870">
        <ele>30.6</ele>
        <time>2021-05-22T11:26:34Z</time>
      </trkpt>
      <trkpt lat="42.5667670" lon="-8.6415890">
        <ele>30.6</ele>
        <time>2021-05-22T11:26:35Z</time>
      </trkpt>
      <trkpt lat="42.5667730" lon="-8.6415910">
        <ele>30.5</ele>
        <time>2021-05-22T11:26:36Z</time>
      </trkpt>
      <trkpt lat="42.5667800" lon="-8.6415930">
        <ele>30.5</ele>
        <time>2021-05-22T11:26:37Z</time>
      </trkpt>
      <trkpt lat="42.5667970" lon="-8.6416120">
        <ele>30.5</ele>
        <time>2021-05-22T11:26:38Z</time>
      </trkpt>
      <trkpt lat="42.5668010" lon="-8.6416220">
        <ele>30.5</ele>
        <time>2021-05-22T11:26:39Z</time>
      </trkpt>
      <trkpt lat="42.5668050" lon="-8.6416310">
        <ele>30.5</ele>
        <time>2021-05-22T11:26:40Z</time>
      </trkpt>
      <trkpt lat="42.5668130" lon="-8.6416310">
        <ele>30.5</ele>
        <time>2021-05-22T11:26:41Z</time>
      </trkpt>
      <trkpt lat="42.5668310" lon="-8.6416420">
        <ele>30.5</ele>
        <time>2021-05-22T11:26:42Z</time>
      </trkpt>
      <trkpt lat="42.5668490" lon="-8.6416520">
        <ele>30.5</ele>
        <time>2021-05-22T11:26:43Z</time>
      </trkpt>
      <trkpt lat="42.5668580" lon="-8.6416580">
        <ele>30.5</ele>
        <time>2021-05-22T11:26:44Z</time>
      </trkpt>
      <trkpt lat="42.5668800" lon="-8.6416620">
        <ele>30.4</ele>
        <time>2021-05-22T11:26:45Z</time>
      </trkpt>
      <trkpt lat="42.5668880" lon="-8.6416660">
        <ele>30.4</ele>
        <time>2021-05-22T11:26:46Z</time>
      </trkpt>
      <trkpt lat="42.5668970" lon="-8.6416690">
        <ele>30.4</ele>
        <time>2021-05-22T11:26:47Z</time>
      </trkpt>
      <trkpt lat="42.5669120" lon="-8.6416750">
        <ele>30.4</ele>
        <time>2021-05-22T11:26:48Z</time>
      </trkpt>
      <trkpt lat="42.5669200" lon="-8.6416800">
        <ele>30.4</ele>
        <time>2021-05-22T11:26:49Z</time>
      </trkpt>
      <trkpt lat="42.5669270" lon="-8.6416830">
        <ele>30.4</ele>
        <time>2021-05-22T11:26:50Z</time>
      </trkpt>
      <trkpt lat="42.5669370" lon="-8.6416920">
        <ele>30.4</ele>
        <time>2021-05-22T11:26:51Z</time>
      </trkpt>
      <trkpt lat="42.5669530" lon="-8.6416950">
        <ele>30.4</ele>
        <time>2021-05-22T11:26:52Z</time>
      </trkpt>
      <trkpt lat="42.5669600" lon="-8.6417000">
        <ele>30.4</ele>
        <time>2021-05-22T11:26:53Z</time>
      </trkpt>
      <trkpt lat="42.5669720" lon="-8.6417060">
        <ele>30.4</ele>
        <time>2021-05-22T11:26:54Z</time>
      </trkpt>
      <trkpt lat="42.5669790" lon="-8.6417090">
        <ele>30.4</ele>
        <time>2021-05-22T11:26:55Z</time>
      </trkpt>
      <trkpt lat="42.5669940" lon="-8.6417170">
        <ele>30.3</ele>
        <time>2021-05-22T11:26:56Z</time>
      </trkpt>
      <trkpt lat="42.5670060" lon="-8.6417300">
        <ele>30.3</ele>
        <time>2021-05-22T11:26:57Z</time>
      </trkpt>
      <trkpt lat="42.5670170" lon="-8.6417320">
        <ele>30.3</ele>
        <time>2021-05-22T11:26:58Z</time>
      </trkpt>
      <trkpt lat="42.5670230" lon="-8.6417420">
        <ele>30.3</ele>
        <time>2021-05-22T11:26:59Z</time>
      </trkpt>
      <trkpt lat="42.5670360" lon="-8.6417480">
        <ele>30.3</ele>
        <time>2021-05-22T11:27:00Z</time>
      </trkpt>
      <trkpt lat="42.5670530" lon="-8.6417610">
        <ele>30.3</ele>
        <time>2021-05-22T11:27:01Z</time>
      </trkpt>
      <trkpt lat="42.5670630" lon="-8.6417670">
        <ele>30.3</ele>
        <time>2021-05-22T11:27:02Z</time>
      </trkpt>
      <trkpt lat="42.5670720" lon="-8.6417740">
        <ele>30.3</ele>
        <time>2021-05-22T11:27:03Z</time>
      </trkpt>
      <trkpt lat="42.5670810" lon="-8.6417810">
        <ele>30.3</ele>
        <time>2021-05-22T11:27:04Z</time>
      </trkpt>
      <trkpt lat="42.5670830" lon="-8.6417820">
        <ele>30.3</ele>
        <time>2021-05-22T11:27:05Z</time>
      </trkpt>
      <trkpt lat="42.5670940" lon="-8.6417860">
        <ele>30.3</ele>
        <time>2021-05-22T11:27:06Z</time>
      </trkpt>
      <trkpt lat="42.5671030" lon="-8.6417880">
        <ele>30.3</ele>
        <time>2021-05-22T11:27:07Z</time>
      </trkpt>
      <trkpt lat="42.5671110" lon="-8.6417980">
        <ele>30.3</ele>
        <time>2021-05-22T11:27:08Z</time>
      </trkpt>
      <trkpt lat="42.5671190" lon="-8.6418050">
        <ele>30.3</ele>
        <time>2021-05-22T11:27:09Z</time>
      </trkpt>
      <trkpt lat="42.5671260" lon="-8.6418150">
        <ele>30.3</ele>
        <time>2021-05-22T11:27:10Z</time>
      </trkpt>
      <trkpt lat="42.5671390" lon="-8.6418250">
        <ele>30.3</ele>
        <time>2021-05-22T11:27:11Z</time>
      </trkpt>
      <trkpt lat="42.5671520" lon="-8.6418370">
        <ele>30.2</ele>
        <time>2021-05-22T11:27:12Z</time>
      </trkpt>
      <trkpt lat="42.5671540" lon="-8.6418450">
        <ele>30.2</ele>
        <time>2021-05-22T11:27:13Z</time>
      </trkpt>
      <trkpt lat="42.5671620" lon="-8.6418520">
        <ele>30.2</ele>
        <time>2021-05-22T11:27:14Z</time>
      </trkpt>
      <trkpt lat="42.5671730" lon="-8.6418650">
        <ele>30.2</ele>
        <time>2021-05-22T11:27:15Z</time>
      </trkpt>
      <trkpt lat="42.5671880" lon="-8.6418820">
        <ele>30.2</ele>
        <time>2021-05-22T11:27:16Z</time>
      </trkpt>
      <trkpt lat="42.5671960" lon="-8.6418900">
        <ele>30.2</ele>
        <time>2021-05-22T11:27:18Z</time>
      </trkpt>
      <trkpt lat="42.5672050" lon="-8.6419030">
        <ele>30.2</ele>
        <time>2021-05-22T11:27:19Z</time>
      </trkpt>
      <trkpt lat="42.5672230" lon="-8.6419100">
        <ele>30.2</ele>
        <time>2021-05-22T11:27:20Z</time>
      </trkpt>
      <trkpt lat="42.5672430" lon="-8.6419240">
        <ele>30.2</ele>
        <time>2021-05-22T11:27:21Z</time>
      </trkpt>
      <trkpt lat="42.5672500" lon="-8.6419280">
        <ele>30.2</ele>
        <time>2021-05-22T11:27:22Z</time>
      </trkpt>
      <trkpt lat="42.5672580" lon="-8.6419320">
        <ele>30.2</ele>
        <time>2021-05-22T11:27:23Z</time>
      </trkpt>
      <trkpt lat="42.5672670" lon="-8.6419400">
        <ele>30.2</ele>
        <time>2021-05-22T11:27:24Z</time>
      </trkpt>
      <trkpt lat="42.5672780" lon="-8.6419470">
        <ele>30.2</ele>
        <time>2021-05-22T11:27:25Z</time>
      </trkpt>
      <trkpt lat="42.5672890" lon="-8.6419530">
        <ele>30.2</ele>
        <time>2021-05-22T11:27:26Z</time>
      </trkpt>
      <trkpt lat="42.5673020" lon="-8.6419640">
        <ele>30.2</ele>
        <time>2021-05-22T11:27:27Z</time>
      </trkpt>
      <trkpt lat="42.5673090" lon="-8.6419690">
        <ele>30.2</ele>
        <time>2021-05-22T11:27:28Z</time>
      </trkpt>
      <trkpt lat="42.5673150" lon="-8.6419730">
        <ele>30.2</ele>
        <time>2021-05-22T11:27:29Z</time>
      </trkpt>
      <trkpt lat="42.5673220" lon="-8.6419780">
        <ele>30.2</ele>
        <time>2021-05-22T11:27:30Z</time>
      </trkpt>
      <trkpt lat="42.5673350" lon="-8.6419830">
        <ele>30.2</ele>
        <time>2021-05-22T11:27:31Z</time>
      </trkpt>
      <trkpt lat="42.5673490" lon="-8.6419860">
        <ele>30.2</ele>
        <time>2021-05-22T11:27:32Z</time>
      </trkpt>
      <trkpt lat="42.5673800" lon="-8.6420000">
        <ele>30.2</ele>
        <time>2021-05-22T11:27:33Z</time>
      </trkpt>
      <trkpt lat="42.5673870" lon="-8.6420010">
        <ele>30.2</ele>
        <time>2021-05-22T11:27:34Z</time>
      </trkpt>
      <trkpt lat="42.5673940" lon="-8.6420020">
        <ele>30.2</ele>
        <time>2021-05-22T11:27:35Z</time>
      </trkpt>
      <trkpt lat="42.5674060" lon="-8.6420030">
        <ele>30.2</ele>
        <time>2021-05-22T11:27:36Z</time>
      </trkpt>
      <trkpt lat="42.5674120" lon="-8.6420090">
        <ele>30.2</ele>
        <time>2021-05-22T11:27:37Z</time>
      </trkpt>
      <trkpt lat="42.5674210" lon="-8.6420130">
        <ele>30.2</ele>
        <time>2021-05-22T11:27:38Z</time>
      </trkpt>
      <trkpt lat="42.5674340" lon="-8.6420120">
        <ele>30.2</ele>
        <time>2021-05-22T11:27:39Z</time>
      </trkpt>
      <trkpt lat="42.5674480" lon="-8.6420140">
        <ele>30.2</ele>
        <time>2021-05-22T11:27:40Z</time>
      </trkpt>
      <trkpt lat="42.5674550" lon="-8.6420190">
        <ele>30.2</ele>
        <time>2021-05-22T11:27:41Z</time>
      </trkpt>
      <trkpt lat="42.5674670" lon="-8.6420180">
        <ele>30.2</ele>
        <time>2021-05-22T11:27:42Z</time>
      </trkpt>
      <trkpt lat="42.5674730" lon="-8.6420260">
        <ele>30.2</ele>
        <time>2021-05-22T11:27:43Z</time>
      </trkpt>
      <trkpt lat="42.5674830" lon="-8.6420310">
        <ele>30.3</ele>
        <time>2021-05-22T11:27:44Z</time>
      </trkpt>
      <trkpt lat="42.5675050" lon="-8.6420340">
        <ele>30.3</ele>
        <time>2021-05-22T11:27:45Z</time>
      </trkpt>
      <trkpt lat="42.5675130" lon="-8.6420370">
        <ele>30.3</ele>
        <time>2021-05-22T11:27:46Z</time>
      </trkpt>
      <trkpt lat="42.5675210" lon="-8.6420390">
        <ele>30.3</ele>
        <time>2021-05-22T11:27:47Z</time>
      </trkpt>
      <trkpt lat="42.5675260" lon="-8.6420330">
        <ele>30.3</ele>
        <time>2021-05-22T11:27:48Z</time>
      </trkpt>
      <trkpt lat="42.5675400" lon="-8.6420340">
        <ele>30.3</ele>
        <time>2021-05-22T11:27:49Z</time>
      </trkpt>
      <trkpt lat="42.5675530" lon="-8.6420340">
        <ele>30.3</ele>
        <time>2021-05-22T11:27:50Z</time>
      </trkpt>
      <trkpt lat="42.5675580" lon="-8.6420370">
        <ele>30.4</ele>
        <time>2021-05-22T11:27:51Z</time>
      </trkpt>
      <trkpt lat="42.5675670" lon="-8.6420360">
        <ele>30.4</ele>
        <time>2021-05-22T11:27:52Z</time>
      </trkpt>
      <trkpt lat="42.5675820" lon="-8.6420420">
        <ele>30.4</ele>
        <time>2021-05-22T11:27:53Z</time>
      </trkpt>
      <trkpt lat="42.5675970" lon="-8.6420460">
        <ele>30.4</ele>
        <time>2021-05-22T11:27:54Z</time>
      </trkpt>
      <trkpt lat="42.5676110" lon="-8.6420480">
        <ele>30.4</ele>
        <time>2021-05-22T11:27:55Z</time>
      </trkpt>
      <trkpt lat="42.5676190" lon="-8.6420510">
        <ele>30.5</ele>
        <time>2021-05-22T11:27:56Z</time>
      </trkpt>
      <trkpt lat="42.5676310" lon="-8.6420550">
        <ele>30.5</ele>
        <time>2021-05-22T11:27:57Z</time>
      </trkpt>
      <trkpt lat="42.5676450" lon="-8.6420610">
        <ele>30.5</ele>
        <time>2021-05-22T11:27:58Z</time>
      </trkpt>
      <trkpt lat="42.5676620" lon="-8.6420650">
        <ele>30.5</ele>
        <time>2021-05-22T11:27:59Z</time>
      </trkpt>
      <trkpt lat="42.5676730" lon="-8.6420720">
        <ele>30.6</ele>
        <time>2021-05-22T11:28:00Z</time>
      </trkpt>
      <trkpt lat="42.5676900" lon="-8.6420730">
        <ele>30.6</ele>
        <time>2021-05-22T11:28:01Z</time>
      </trkpt>
      <trkpt lat="42.5677070" lon="-8.6420800">
        <ele>30.6</ele>
        <time>2021-05-22T11:28:02Z</time>
      </trkpt>
      <trkpt lat="42.5677300" lon="-8.6420870">
        <ele>30.7</ele>
        <time>2021-05-22T11:28:03Z</time>
      </trkpt>
      <trkpt lat="42.5677380" lon="-8.6420900">
        <ele>30.7</ele>
        <time>2021-05-22T11:28:04Z</time>
      </trkpt>
      <trkpt lat="42.5677460" lon="-8.6420920">
        <ele>30.7</ele>
        <time>2021-05-22T11:28:05Z</time>
      </trkpt>
      <trkpt lat="42.5677590" lon="-8.6420970">
        <ele>30.7</ele>
        <time>2021-05-22T11:28:06Z</time>
      </trkpt>
      <trkpt lat="42.5677740" lon="-8.6421020">
        <ele>30.7</ele>
        <time>2021-05-22T11:28:07Z</time>
      </trkpt>
      <trkpt lat="42.5677860" lon="-8.6421030">
        <ele>30.8</ele>
        <time>2021-05-22T11:28:08Z</time>
      </trkpt>
      <trkpt lat="42.5677970" lon="-8.6421060">
        <ele>30.8</ele>
        <time>2021-05-22T11:28:09Z</time>
      </trkpt>
      <trkpt lat="42.5678030" lon="-8.6421110">
        <ele>30.8</ele>
        <time>2021-05-22T11:28:10Z</time>
      </trkpt>
      <trkpt lat="42.5678240" lon="-8.6421180">
        <ele>30.8</ele>
        <time>2021-05-22T11:28:11Z</time>
      </trkpt>
      <trkpt lat="42.5678320" lon="-8.6421180">
        <ele>30.8</ele>
        <time>2021-05-22T11:28:12Z</time>
      </trkpt>
      <trkpt lat="42.5678390" lon="-8.6421190">
        <ele>30.8</ele>
        <time>2021-05-22T11:28:13Z</time>
      </trkpt>
      <trkpt lat="42.5678550" lon="-8.6421280">
        <ele>30.9</ele>
        <time>2021-05-22T11:28:14Z</time>
      </trkpt>
      <trkpt lat="42.5678620" lon="-8.6421330">
        <ele>30.9</ele>
        <time>2021-05-22T11:28:15Z</time>
      </trkpt>
      <trkpt lat="42.5678680" lon="-8.6421330">
        <ele>30.9</ele>
        <time>2021-05-22T11:28:16Z</time>
      </trkpt>
      <trkpt lat="42.5678700" lon="-8.6421320">
        <ele>30.9</ele>
        <time>2021-05-22T11:28:17Z</time>
      </trkpt>
      <trkpt lat="42.5678770" lon="-8.6421340">
        <ele>30.9</ele>
        <time>2021-05-22T11:28:18Z</time>
      </trkpt>
      <trkpt lat="42.5678920" lon="-8.6421350">
        <ele>30.9</ele>
        <time>2021-05-22T11:28:19Z</time>
      </trkpt>
      <trkpt lat="42.5678960" lon="-8.6421430">
        <ele>30.9</ele>
        <time>2021-05-22T11:28:20Z</time>
      </trkpt>
      <trkpt lat="42.5679090" lon="-8.6421480">
        <ele>30.9</ele>
        <time>2021-05-22T11:28:21Z</time>
      </trkpt>
      <trkpt lat="42.5679280" lon="-8.6421490">
        <ele>31.0</ele>
        <time>2021-05-22T11:28:22Z</time>
      </trkpt>
      <trkpt lat="42.5679440" lon="-8.6421520">
        <ele>31.0</ele>
        <time>2021-05-22T11:28:23Z</time>
      </trkpt>
      <trkpt lat="42.5679590" lon="-8.6421580">
        <ele>31.0</ele>
        <time>2021-05-22T11:28:24Z</time>
      </trkpt>
      <trkpt lat="42.5679720" lon="-8.6421610">
        <ele>31.0</ele>
        <time>2021-05-22T11:28:25Z</time>
      </trkpt>
      <trkpt lat="42.5679820" lon="-8.6421620">
        <ele>31.0</ele>
        <time>2021-05-22T11:28:26Z</time>
      </trkpt>
      <trkpt lat="42.5679920" lon="-8.6421610">
        <ele>31.0</ele>
        <time>2021-05-22T11:28:27Z</time>
      </trkpt>
      <trkpt lat="42.5679990" lon="-8.6421590">
        <ele>31.0</ele>
        <time>2021-05-22T11:28:28Z</time>
      </trkpt>
      <trkpt lat="42.5680200" lon="-8.6421550">
        <ele>31.1</ele>
        <time>2021-05-22T11:28:29Z</time>
      </trkpt>
      <trkpt lat="42.5680290" lon="-8.6421550">
        <ele>31.1</ele>
        <time>2021-05-22T11:28:30Z</time>
      </trkpt>
      <trkpt lat="42.5680360" lon="-8.6421500">
        <ele>31.1</ele>
        <time>2021-05-22T11:28:31Z</time>
      </trkpt>
      <trkpt lat="42.5680550" lon="-8.6421480">
        <ele>31.1</ele>
        <time>2021-05-22T11:28:32Z</time>
      </trkpt>
      <trkpt lat="42.5680620" lon="-8.6421550">
        <ele>31.1</ele>
        <time>2021-05-22T11:28:33Z</time>
      </trkpt>
      <trkpt lat="42.5680680" lon="-8.6421530">
        <ele>31.1</ele>
        <time>2021-05-22T11:28:34Z</time>
      </trkpt>
      <trkpt lat="42.5680730" lon="-8.6421450">
        <ele>31.2</ele>
        <time>2021-05-22T11:28:35Z</time>
      </trkpt>
      <trkpt lat="42.5680890" lon="-8.6421370">
        <ele>31.2</ele>
        <time>2021-05-22T11:28:36Z</time>
      </trkpt>
      <trkpt lat="42.5681080" lon="-8.6421270">
        <ele>31.2</ele>
        <time>2021-05-22T11:28:37Z</time>
      </trkpt>
      <trkpt lat="42.5681200" lon="-8.6421230">
        <ele>31.2</ele>
        <time>2021-05-22T11:28:38Z</time>
      </trkpt>
      <trkpt lat="42.5681310" lon="-8.6421180">
        <ele>31.3</ele>
        <time>2021-05-22T11:28:39Z</time>
      </trkpt>
      <trkpt lat="42.5681520" lon="-8.6421180">
        <ele>31.3</ele>
        <time>2021-05-22T11:28:40Z</time>
      </trkpt>
      <trkpt lat="42.5681590" lon="-8.6421220">
        <ele>31.3</ele>
        <time>2021-05-22T11:28:41Z</time>
      </trkpt>
      <trkpt lat="42.5681670" lon="-8.6421250">
        <ele>31.3</ele>
        <time>2021-05-22T11:28:42Z</time>
      </trkpt>
      <trkpt lat="42.5681750" lon="-8.6421220">
        <ele>31.3</ele>
        <time>2021-05-22T11:28:43Z</time>
      </trkpt>
      <trkpt lat="42.5681820" lon="-8.6421230">
        <ele>31.3</ele>
        <time>2021-05-22T11:28:44Z</time>
      </trkpt>
      <trkpt lat="42.5682020" lon="-8.6421210">
        <ele>31.4</ele>
        <time>2021-05-22T11:28:45Z</time>
      </trkpt>
      <trkpt lat="42.5682160" lon="-8.6421290">
        <ele>31.4</ele>
        <time>2021-05-22T11:28:46Z</time>
      </trkpt>
      <trkpt lat="42.5682320" lon="-8.6421310">
        <ele>31.4</ele>
        <time>2021-05-22T11:28:47Z</time>
      </trkpt>
      <trkpt lat="42.5682520" lon="-8.6421340">
        <ele>31.5</ele>
        <time>2021-05-22T11:28:48Z</time>
      </trkpt>
      <trkpt lat="42.5682610" lon="-8.6421360">
        <ele>31.5</ele>
        <time>2021-05-22T11:28:49Z</time>
      </trkpt>
      <trkpt lat="42.5682690" lon="-8.6421390">
        <ele>31.5</ele>
        <time>2021-05-22T11:28:50Z</time>
      </trkpt>
      <trkpt lat="42.5682880" lon="-8.6421390">
        <ele>31.6</ele>
        <time>2021-05-22T11:28:51Z</time>
      </trkpt>
      <trkpt lat="42.5682980" lon="-8.6421380">
        <ele>31.6</ele>
        <time>2021-05-22T11:28:52Z</time>
      </trkpt>
      <trkpt lat="42.5683070" lon="-8.6421380">
        <ele>31.6</ele>
        <time>2021-05-22T11:28:53Z</time>
      </trkpt>
      <trkpt lat="42.5683250" lon="-8.6421370">
        <ele>31.7</ele>
        <time>2021-05-22T11:28:54Z</time>
      </trkpt>
      <trkpt lat="42.5683360" lon="-8.6421320">
        <ele>31.7</ele>
        <time>2021-05-22T11:28:55Z</time>
      </trkpt>
      <trkpt lat="42.5683460" lon="-8.6421280">
        <ele>31.7</ele>
        <time>2021-05-22T11:28:56Z</time>
      </trkpt>
      <trkpt lat="42.5683610" lon="-8.6421260">
        <ele>31.8</ele>
        <time>2021-05-22T11:28:57Z</time>
      </trkpt>
      <trkpt lat="42.5683800" lon="-8.6421230">
        <ele>31.8</ele>
        <time>2021-05-22T11:28:58Z</time>
      </trkpt>
      <trkpt lat="42.5684050" lon="-8.6421140">
        <ele>31.9</ele>
        <time>2021-05-22T11:28:59Z</time>
      </trkpt>
      <trkpt lat="42.5684150" lon="-8.6421110">
        <ele>31.9</ele>
        <time>2021-05-22T11:29:00Z</time>
      </trkpt>
      <trkpt lat="42.5684250" lon="-8.6421080">
        <ele>32.0</ele>
        <time>2021-05-22T11:29:01Z</time>
      </trkpt>
      <trkpt lat="42.5684400" lon="-8.6420990">
        <ele>32.0</ele>
        <time>2021-05-22T11:29:02Z</time>
      </trkpt>
      <trkpt lat="42.5684410" lon="-8.6420920">
        <ele>32.1</ele>
        <time>2021-05-22T11:29:03Z</time>
      </trkpt>
      <trkpt lat="42.5684510" lon="-8.6420880">
        <ele>32.1</ele>
        <time>2021-05-22T11:29:04Z</time>
      </trkpt>
      <trkpt lat="42.5684560" lon="-8.6420780">
        <ele>32.1</ele>
        <time>2021-05-22T11:29:05Z</time>
      </trkpt>
      <trkpt lat="42.5684720" lon="-8.6420650">
        <ele>32.2</ele>
        <time>2021-05-22T11:29:06Z</time>
      </trkpt>
      <trkpt lat="42.5684890" lon="-8.6420520">
        <ele>32.3</ele>
        <time>2021-05-22T11:29:07Z</time>
      </trkpt>
      <trkpt lat="42.5684950" lon="-8.6420480">
        <ele>32.2</ele>
        <time>2021-05-22T11:29:08Z</time>
      </trkpt>
      <trkpt lat="42.5685010" lon="-8.6420430">
        <ele>32.2</ele>
        <time>2021-05-22T11:29:10Z</time>
      </trkpt>
      <trkpt lat="42.5685070" lon="-8.6420380">
        <ele>32.2</ele>
        <time>2021-05-22T11:29:11Z</time>
      </trkpt>
      <trkpt lat="42.5685150" lon="-8.6420460">
        <ele>32.2</ele>
        <time>2021-05-22T11:29:12Z</time>
      </trkpt>
      <trkpt lat="42.5685240" lon="-8.6420550">
        <ele>32.2</ele>
        <time>2021-05-22T11:29:13Z</time>
      </trkpt>
      <trkpt lat="42.5685300" lon="-8.6420720">
        <ele>32.1</ele>
        <time>2021-05-22T11:29:14Z</time>
      </trkpt>
      <trkpt lat="42.5685310" lon="-8.6420840">
        <ele>32.1</ele>
        <time>2021-05-22T11:29:15Z</time>
      </trkpt>
      <trkpt lat="42.5685300" lon="-8.6421020">
        <ele>32.1</ele>
        <time>2021-05-22T11:29:16Z</time>
      </trkpt>
      <trkpt lat="42.5685310" lon="-8.6421210">
        <ele>32.1</ele>
        <time>2021-05-22T11:29:17Z</time>
      </trkpt>
      <trkpt lat="42.5685410" lon="-8.6421430">
        <ele>32.0</ele>
        <time>2021-05-22T11:29:18Z</time>
      </trkpt>
      <trkpt lat="42.5685410" lon="-8.6421540">
        <ele>32.0</ele>
        <time>2021-05-22T11:29:19Z</time>
      </trkpt>
      <trkpt lat="42.5685410" lon="-8.6421660">
        <ele>32.0</ele>
        <time>2021-05-22T11:29:20Z</time>
      </trkpt>
      <trkpt lat="42.5685450" lon="-8.6421820">
        <ele>31.9</ele>
        <time>2021-05-22T11:29:21Z</time>
      </trkpt>
      <trkpt lat="42.5685470" lon="-8.6421920">
        <ele>31.9</ele>
        <time>2021-05-22T11:29:22Z</time>
      </trkpt>
      <trkpt lat="42.5685510" lon="-8.6422040">
        <ele>31.9</ele>
        <time>2021-05-22T11:29:23Z</time>
      </trkpt>
      <trkpt lat="42.5685550" lon="-8.6422160">
        <ele>31.8</ele>
        <time>2021-05-22T11:29:24Z</time>
      </trkpt>
      <trkpt lat="42.5685540" lon="-8.6422270">
        <ele>31.8</ele>
        <time>2021-05-22T11:29:25Z</time>
      </trkpt>
      <trkpt lat="42.5685570" lon="-8.6422460">
        <ele>31.8</ele>
        <time>2021-05-22T11:29:26Z</time>
      </trkpt>
      <trkpt lat="42.5685610" lon="-8.6422660">
        <ele>31.7</ele>
        <time>2021-05-22T11:29:27Z</time>
      </trkpt>
      <trkpt lat="42.5685670" lon="-8.6422830">
        <ele>31.7</ele>
        <time>2021-05-22T11:29:28Z</time>
      </trkpt>
      <trkpt lat="42.5685690" lon="-8.6422910">
        <ele>31.7</ele>
        <time>2021-05-22T11:29:29Z</time>
      </trkpt>
      <trkpt lat="42.5685740" lon="-8.6423060">
        <ele>31.6</ele>
        <time>2021-05-22T11:29:30Z</time>
      </trkpt>
      <trkpt lat="42.5685780" lon="-8.6423200">
        <ele>31.6</ele>
        <time>2021-05-22T11:29:31Z</time>
      </trkpt>
      <trkpt lat="42.5685820" lon="-8.6423360">
        <ele>31.6</ele>
        <time>2021-05-22T11:29:32Z</time>
      </trkpt>
      <trkpt lat="42.5685810" lon="-8.6423440">
        <ele>31.5</ele>
        <time>2021-05-22T11:29:33Z</time>
      </trkpt>
      <trkpt lat="42.5685900" lon="-8.6423610">
        <ele>31.5</ele>
        <time>2021-05-22T11:29:34Z</time>
      </trkpt>
      <trkpt lat="42.5685980" lon="-8.6423730">
        <ele>31.5</ele>
        <time>2021-05-22T11:29:35Z</time>
      </trkpt>
      <trkpt lat="42.5686030" lon="-8.6423850">
        <ele>31.4</ele>
        <time>2021-05-22T11:29:36Z</time>
      </trkpt>
      <trkpt lat="42.5686100" lon="-8.6423970">
        <ele>31.4</ele>
        <time>2021-05-22T11:29:37Z</time>
      </trkpt>
      <trkpt lat="42.5686120" lon="-8.6424110">
        <ele>31.4</ele>
        <time>2021-05-22T11:29:38Z</time>
      </trkpt>
      <trkpt lat="42.5686330" lon="-8.6424430">
        <ele>31.3</ele>
        <time>2021-05-22T11:29:39Z</time>
      </trkpt>
      <trkpt lat="42.5686400" lon="-8.6424550">
        <ele>31.2</ele>
        <time>2021-05-22T11:29:40Z</time>
      </trkpt>
      <trkpt lat="42.5686460" lon="-8.6424680">
        <ele>31.2</ele>
        <time>2021-05-22T11:29:41Z</time>
      </trkpt>
      <trkpt lat="42.5686540" lon="-8.6424790">
        <ele>31.2</ele>
        <time>2021-05-22T11:29:42Z</time>
      </trkpt>
      <trkpt lat="42.5686610" lon="-8.6424860">
        <ele>31.1</ele>
        <time>2021-05-22T11:29:43Z</time>
      </trkpt>
      <trkpt lat="42.5686690" lon="-8.6424970">
        <ele>31.1</ele>
        <time>2021-05-22T11:29:44Z</time>
      </trkpt>
      <trkpt lat="42.5686800" lon="-8.6425180">
        <ele>31.1</ele>
        <time>2021-05-22T11:29:45Z</time>
      </trkpt>
      <trkpt lat="42.5686860" lon="-8.6425270">
        <ele>31.0</ele>
        <time>2021-05-22T11:29:46Z</time>
      </trkpt>
      <trkpt lat="42.5686930" lon="-8.6425360">
        <ele>31.0</ele>
        <time>2021-05-22T11:29:47Z</time>
      </trkpt>
      <trkpt lat="42.5687080" lon="-8.6425480">
        <ele>31.0</ele>
        <time>2021-05-22T11:29:48Z</time>
      </trkpt>
      <trkpt lat="42.5687130" lon="-8.6425530">
        <ele>30.9</ele>
        <time>2021-05-22T11:29:49Z</time>
      </trkpt>
      <trkpt lat="42.5687180" lon="-8.6425590">
        <ele>30.9</ele>
        <time>2021-05-22T11:29:50Z</time>
      </trkpt>
      <trkpt lat="42.5687230" lon="-8.6425650">
        <ele>30.9</ele>
        <time>2021-05-22T11:29:51Z</time>
      </trkpt>
      <trkpt lat="42.5687350" lon="-8.6425810">
        <ele>30.8</ele>
        <time>2021-05-22T11:29:52Z</time>
      </trkpt>
      <trkpt lat="42.5687460" lon="-8.6425930">
        <ele>30.8</ele>
        <time>2021-05-22T11:29:53Z</time>
      </trkpt>
      <trkpt lat="42.5687590" lon="-8.6426100">
        <ele>30.8</ele>
        <time>2021-05-22T11:29:54Z</time>
      </trkpt>
      <trkpt lat="42.5687690" lon="-8.6426210">
        <ele>30.7</ele>
        <time>2021-05-22T11:29:55Z</time>
      </trkpt>
      <trkpt lat="42.5687830" lon="-8.6426360">
        <ele>30.7</ele>
        <time>2021-05-22T11:29:56Z</time>
      </trkpt>
      <trkpt lat="42.5687920" lon="-8.6426460">
        <ele>30.6</ele>
        <time>2021-05-22T11:29:57Z</time>
      </trkpt>
      <trkpt lat="42.5687990" lon="-8.6426600">
        <ele>30.6</ele>
        <time>2021-05-22T11:29:58Z</time>
      </trkpt>
      <trkpt lat="42.5688120" lon="-8.6426680">
        <ele>30.6</ele>
        <time>2021-05-22T11:29:59Z</time>
      </trkpt>
      <trkpt lat="42.5688190" lon="-8.6426760">
        <ele>30.5</ele>
        <time>2021-05-22T11:30:00Z</time>
      </trkpt>
      <trkpt lat="42.5688250" lon="-8.6426740">
        <ele>30.5</ele>
        <time>2021-05-22T11:30:01Z</time>
      </trkpt>
      <trkpt lat="42.5688320" lon="-8.6426820">
        <ele>30.5</ele>
        <time>2021-05-22T11:30:02Z</time>
      </trkpt>
      <trkpt lat="42.5688440" lon="-8.6426920">
        <ele>30.5</ele>
        <time>2021-05-22T11:30:03Z</time>
      </trkpt>
      <trkpt lat="42.5688650" lon="-8.6427080">
        <ele>30.4</ele>
        <time>2021-05-22T11:30:04Z</time>
      </trkpt>
      <trkpt lat="42.5688700" lon="-8.6427130">
        <ele>30.4</ele>
        <time>2021-05-22T11:30:05Z</time>
      </trkpt>
      <trkpt lat="42.5688760" lon="-8.6427180">
        <ele>30.4</ele>
        <time>2021-05-22T11:30:06Z</time>
      </trkpt>
      <trkpt lat="42.5688900" lon="-8.6427220">
        <ele>30.3</ele>
        <time>2021-05-22T11:30:07Z</time>
      </trkpt>
      <trkpt lat="42.5689040" lon="-8.6427310">
        <ele>30.3</ele>
        <time>2021-05-22T11:30:08Z</time>
      </trkpt>
      <trkpt lat="42.5689210" lon="-8.6427420">
        <ele>30.2</ele>
        <time>2021-05-22T11:30:09Z</time>
      </trkpt>
      <trkpt lat="42.5689290" lon="-8.6427470">
        <ele>30.2</ele>
        <time>2021-05-22T11:30:10Z</time>
      </trkpt>
      <trkpt lat="42.5689380" lon="-8.6427530">
        <ele>30.2</ele>
        <time>2021-05-22T11:30:11Z</time>
      </trkpt>
      <trkpt lat="42.5689560" lon="-8.6427520">
        <ele>30.2</ele>
        <time>2021-05-22T11:30:12Z</time>
      </trkpt>
      <trkpt lat="42.5689670" lon="-8.6427540">
        <ele>30.1</ele>
        <time>2021-05-22T11:30:13Z</time>
      </trkpt>
      <trkpt lat="42.5689770" lon="-8.6427570">
        <ele>30.1</ele>
        <time>2021-05-22T11:30:14Z</time>
      </trkpt>
      <trkpt lat="42.5689970" lon="-8.6427560">
        <ele>30.1</ele>
        <time>2021-05-22T11:30:15Z</time>
      </trkpt>
      <trkpt lat="42.5690060" lon="-8.6427600">
        <ele>30.0</ele>
        <time>2021-05-22T11:30:16Z</time>
      </trkpt>
      <trkpt lat="42.5690150" lon="-8.6427630">
        <ele>30.0</ele>
        <time>2021-05-22T11:30:17Z</time>
      </trkpt>
      <trkpt lat="42.5690360" lon="-8.6427690">
        <ele>30.0</ele>
        <time>2021-05-22T11:30:18Z</time>
      </trkpt>
      <trkpt lat="42.5690440" lon="-8.6427720">
        <ele>29.9</ele>
        <time>2021-05-22T11:30:19Z</time>
      </trkpt>
      <trkpt lat="42.5690520" lon="-8.6427740">
        <ele>29.9</ele>
        <time>2021-05-22T11:30:20Z</time>
      </trkpt>
      <trkpt lat="42.5690670" lon="-8.6427770">
        <ele>29.9</ele>
        <time>2021-05-22T11:30:21Z</time>
      </trkpt>
      <trkpt lat="42.5690790" lon="-8.6427770">
        <ele>29.9</ele>
        <time>2021-05-22T11:30:22Z</time>
      </trkpt>
      <trkpt lat="42.5690950" lon="-8.6427780">
        <ele>29.8</ele>
        <time>2021-05-22T11:30:23Z</time>
      </trkpt>
      <trkpt lat="42.5691080" lon="-8.6427800">
        <ele>29.8</ele>
        <time>2021-05-22T11:30:24Z</time>
      </trkpt>
      <trkpt lat="42.5691150" lon="-8.6427800">
        <ele>29.8</ele>
        <time>2021-05-22T11:30:25Z</time>
      </trkpt>
      <trkpt lat="42.5691290" lon="-8.6427840">
        <ele>29.8</ele>
        <time>2021-05-22T11:30:26Z</time>
      </trkpt>
      <trkpt lat="42.5691390" lon="-8.6427900">
        <ele>29.7</ele>
        <time>2021-05-22T11:30:27Z</time>
      </trkpt>
      <trkpt lat="42.5691590" lon="-8.6427980">
        <ele>29.7</ele>
        <time>2021-05-22T11:30:28Z</time>
      </trkpt>
      <trkpt lat="42.5691670" lon="-8.6428020">
        <ele>29.7</ele>
        <time>2021-05-22T11:30:29Z</time>
      </trkpt>
      <trkpt lat="42.5691760" lon="-8.6428060">
        <ele>29.7</ele>
        <time>2021-05-22T11:30:30Z</time>
      </trkpt>
      <trkpt lat="42.5691870" lon="-8.6428120">
        <ele>29.6</ele>
        <time>2021-05-22T11:30:31Z</time>
      </trkpt>
      <trkpt lat="42.5691950" lon="-8.6428140">
        <ele>29.6</ele>
        <time>2021-05-22T11:30:32Z</time>
      </trkpt>
      <trkpt lat="42.5692070" lon="-8.6428150">
        <ele>29.6</ele>
        <time>2021-05-22T11:30:33Z</time>
      </trkpt>
      <trkpt lat="42.5692190" lon="-8.6428220">
        <ele>29.6</ele>
        <time>2021-05-22T11:30:34Z</time>
      </trkpt>
      <trkpt lat="42.5692250" lon="-8.6428250">
        <ele>29.6</ele>
        <time>2021-05-22T11:30:35Z</time>
      </trkpt>
      <trkpt lat="42.5692380" lon="-8.6428260">
        <ele>29.5</ele>
        <time>2021-05-22T11:30:36Z</time>
      </trkpt>
      <trkpt lat="42.5692520" lon="-8.6428350">
        <ele>29.5</ele>
        <time>2021-05-22T11:30:37Z</time>
      </trkpt>
      <trkpt lat="42.5692570" lon="-8.6428420">
        <ele>29.5</ele>
        <time>2021-05-22T11:30:38Z</time>
      </trkpt>
      <trkpt lat="42.5692660" lon="-8.6428450">
        <ele>29.5</ele>
        <time>2021-05-22T11:30:39Z</time>
      </trkpt>
      <trkpt lat="42.5692800" lon="-8.6428470">
        <ele>29.4</ele>
        <time>2021-05-22T11:30:40Z</time>
      </trkpt>
      <trkpt lat="42.5692950" lon="-8.6428510">
        <ele>29.4</ele>
        <time>2021-05-22T11:30:41Z</time>
      </trkpt>
      <trkpt lat="42.5693110" lon="-8.6428570">
        <ele>29.4</ele>
        <time>2021-05-22T11:30:42Z</time>
      </trkpt>
      <trkpt lat="42.5693280" lon="-8.6428630">
        <ele>29.3</ele>
        <time>2021-05-22T11:30:43Z</time>
      </trkpt>
      <trkpt lat="42.5693410" lon="-8.6428720">
        <ele>29.3</ele>
        <time>2021-05-22T11:30:44Z</time>
      </trkpt>
      <trkpt lat="42.5693540" lon="-8.6428780">
        <ele>29.3</ele>
        <time>2021-05-22T11:30:45Z</time>
      </trkpt>
      <trkpt lat="42.5693620" lon="-8.6428800">
        <ele>29.3</ele>
        <time>2021-05-22T11:30:46Z</time>
      </trkpt>
      <trkpt lat="42.5693720" lon="-8.6428870">
        <ele>29.2</ele>
        <time>2021-05-22T11:30:47Z</time>
      </trkpt>
      <trkpt lat="42.5693880" lon="-8.6428960">
        <ele>29.2</ele>
        <time>2021-05-22T11:30:48Z</time>
      </trkpt>
      <trkpt lat="42.5693950" lon="-8.6429020">
        <ele>29.2</ele>
        <time>2021-05-22T11:30:49Z</time>
      </trkpt>
      <trkpt lat="42.5694010" lon="-8.6429120">
        <ele>29.2</ele>
        <time>2021-05-22T11:30:50Z</time>
      </trkpt>
      <trkpt lat="42.5694120" lon="-8.6429150">
        <ele>29.2</ele>
        <time>2021-05-22T11:30:51Z</time>
      </trkpt>
      <trkpt lat="42.5694300" lon="-8.6429270">
        <ele>29.1</ele>
        <time>2021-05-22T11:30:52Z</time>
      </trkpt>
      <trkpt lat="42.5694380" lon="-8.6429280">
        <ele>29.1</ele>
        <time>2021-05-22T11:30:53Z</time>
      </trkpt>
      <trkpt lat="42.5694460" lon="-8.6429300">
        <ele>29.1</ele>
        <time>2021-05-22T11:30:54Z</time>
      </trkpt>
      <trkpt lat="42.5694620" lon="-8.6429500">
        <ele>29.1</ele>
        <time>2021-05-22T11:30:55Z</time>
      </trkpt>
      <trkpt lat="42.5694670" lon="-8.6429580">
        <ele>29.0</ele>
        <time>2021-05-22T11:30:56Z</time>
      </trkpt>
      <trkpt lat="42.5694730" lon="-8.6429650">
        <ele>29.0</ele>
        <time>2021-05-22T11:30:57Z</time>
      </trkpt>
      <trkpt lat="42.5694780" lon="-8.6429750">
        <ele>29.0</ele>
        <time>2021-05-22T11:30:58Z</time>
      </trkpt>
      <trkpt lat="42.5694840" lon="-8.6429920">
        <ele>29.0</ele>
        <time>2021-05-22T11:30:59Z</time>
      </trkpt>
      <trkpt lat="42.5694930" lon="-8.6430060">
        <ele>29.0</ele>
        <time>2021-05-22T11:31:00Z</time>
      </trkpt>
      <trkpt lat="42.5695020" lon="-8.6430200">
        <ele>29.0</ele>
        <time>2021-05-22T11:31:01Z</time>
      </trkpt>
      <trkpt lat="42.5695060" lon="-8.6430310">
        <ele>28.9</ele>
        <time>2021-05-22T11:31:02Z</time>
      </trkpt>
      <trkpt lat="42.5695100" lon="-8.6430440">
        <ele>28.9</ele>
        <time>2021-05-22T11:31:03Z</time>
      </trkpt>
      <trkpt lat="42.5695210" lon="-8.6430540">
        <ele>28.9</ele>
        <time>2021-05-22T11:31:04Z</time>
      </trkpt>
      <trkpt lat="42.5695280" lon="-8.6430640">
        <ele>28.9</ele>
        <time>2021-05-22T11:31:05Z</time>
      </trkpt>
      <trkpt lat="42.5695310" lon="-8.6430720">
        <ele>28.9</ele>
        <time>2021-05-22T11:31:06Z</time>
      </trkpt>
      <trkpt lat="42.5695380" lon="-8.6430850">
        <ele>28.9</ele>
        <time>2021-05-22T11:31:07Z</time>
      </trkpt>
      <trkpt lat="42.5695430" lon="-8.6430960">
        <ele>28.8</ele>
        <time>2021-05-22T11:31:08Z</time>
      </trkpt>
      <trkpt lat="42.5695500" lon="-8.6431060">
        <ele>28.8</ele>
        <time>2021-05-22T11:31:09Z</time>
      </trkpt>
      <trkpt lat="42.5695610" lon="-8.6431220">
        <ele>28.8</ele>
        <time>2021-05-22T11:31:10Z</time>
      </trkpt>
      <trkpt lat="42.5695710" lon="-8.6431340">
        <ele>28.8</ele>
        <time>2021-05-22T11:31:11Z</time>
      </trkpt>
      <trkpt lat="42.5695780" lon="-8.6431450">
        <ele>28.8</ele>
        <time>2021-05-22T11:31:12Z</time>
      </trkpt>
      <trkpt lat="42.5695820" lon="-8.6431590">
        <ele>28.7</ele>
        <time>2021-05-22T11:31:13Z</time>
      </trkpt>
      <trkpt lat="42.5695900" lon="-8.6431740">
        <ele>28.7</ele>
        <time>2021-05-22T11:31:14Z</time>
      </trkpt>
      <trkpt lat="42.5695940" lon="-8.6431810">
        <ele>28.7</ele>
        <time>2021-05-22T11:31:15Z</time>
      </trkpt>
      <trkpt lat="42.5696020" lon="-8.6431950">
        <ele>28.7</ele>
        <time>2021-05-22T11:31:16Z</time>
      </trkpt>
      <trkpt lat="42.5696070" lon="-8.6432070">
        <ele>28.7</ele>
        <time>2021-05-22T11:31:17Z</time>
      </trkpt>
      <trkpt lat="42.5696160" lon="-8.6432230">
        <ele>28.6</ele>
        <time>2021-05-22T11:31:18Z</time>
      </trkpt>
      <trkpt lat="42.5696240" lon="-8.6432370">
        <ele>28.6</ele>
        <time>2021-05-22T11:31:19Z</time>
      </trkpt>
      <trkpt lat="42.5696340" lon="-8.6432550">
        <ele>28.6</ele>
        <time>2021-05-22T11:31:20Z</time>
      </trkpt>
      <trkpt lat="42.5696400" lon="-8.6432650">
        <ele>28.6</ele>
        <time>2021-05-22T11:31:21Z</time>
      </trkpt>
      <trkpt lat="42.5696470" lon="-8.6432760">
        <ele>28.6</ele>
        <time>2021-05-22T11:31:22Z</time>
      </trkpt>
      <trkpt lat="42.5696510" lon="-8.6432830">
        <ele>28.6</ele>
        <time>2021-05-22T11:31:23Z</time>
      </trkpt>
      <trkpt lat="42.5696600" lon="-8.6432940">
        <ele>28.5</ele>
        <time>2021-05-22T11:31:24Z</time>
      </trkpt>
      <trkpt lat="42.5696670" lon="-8.6433080">
        <ele>28.5</ele>
        <time>2021-05-22T11:31:25Z</time>
      </trkpt>
      <trkpt lat="42.5696790" lon="-8.6433230">
        <ele>28.5</ele>
        <time>2021-05-22T11:31:26Z</time>
      </trkpt>
      <trkpt lat="42.5696840" lon="-8.6433330">
        <ele>28.5</ele>
        <time>2021-05-22T11:31:27Z</time>
      </trkpt>
      <trkpt lat="42.5696920" lon="-8.6433440">
        <ele>28.5</ele>
        <time>2021-05-22T11:31:28Z</time>
      </trkpt>
      <trkpt lat="42.5697030" lon="-8.6433580">
        <ele>28.4</ele>
        <time>2021-05-22T11:31:29Z</time>
      </trkpt>
      <trkpt lat="42.5697110" lon="-8.6433700">
        <ele>28.4</ele>
        <time>2021-05-22T11:31:30Z</time>
      </trkpt>
      <trkpt lat="42.5697190" lon="-8.6433860">
        <ele>28.4</ele>
        <time>2021-05-22T11:31:32Z</time>
      </trkpt>
      <trkpt lat="42.5697310" lon="-8.6434050">
        <ele>28.4</ele>
        <time>2021-05-22T11:31:33Z</time>
      </trkpt>
      <trkpt lat="42.5697370" lon="-8.6434140">
        <ele>28.4</ele>
        <time>2021-05-22T11:31:34Z</time>
      </trkpt>
      <trkpt lat="42.5697440" lon="-8.6434240">
        <ele>28.4</ele>
        <time>2021-05-22T11:31:35Z</time>
      </trkpt>
      <trkpt lat="42.5697610" lon="-8.6434470">
        <ele>28.3</ele>
        <time>2021-05-22T11:31:36Z</time>
      </trkpt>
      <trkpt lat="42.5697670" lon="-8.6434550">
        <ele>28.3</ele>
        <time>2021-05-22T11:31:37Z</time>
      </trkpt>
      <trkpt lat="42.5697730" lon="-8.6434630">
        <ele>28.3</ele>
        <time>2021-05-22T11:31:38Z</time>
      </trkpt>
      <trkpt lat="42.5697790" lon="-8.6434730">
        <ele>28.3</ele>
        <time>2021-05-22T11:31:39Z</time>
      </trkpt>
      <trkpt lat="42.5697870" lon="-8.6434850">
        <ele>28.3</ele>
        <time>2021-05-22T11:31:40Z</time>
      </trkpt>
      <trkpt lat="42.5697970" lon="-8.6434950">
        <ele>28.3</ele>
        <time>2021-05-22T11:31:41Z</time>
      </trkpt>
      <trkpt lat="42.5698060" lon="-8.6435080">
        <ele>28.3</ele>
        <time>2021-05-22T11:31:42Z</time>
      </trkpt>
      <trkpt lat="42.5698100" lon="-8.6435250">
        <ele>28.3</ele>
        <time>2021-05-22T11:31:43Z</time>
      </trkpt>
      <trkpt lat="42.5698160" lon="-8.6435350">
        <ele>28.3</ele>
        <time>2021-05-22T11:31:44Z</time>
      </trkpt>
      <trkpt lat="42.5698320" lon="-8.6435520">
        <ele>28.3</ele>
        <time>2021-05-22T11:31:45Z</time>
      </trkpt>
      <trkpt lat="42.5698280" lon="-8.6435500">
        <ele>28.3</ele>
        <time>2021-05-22T11:31:46Z</time>
      </trkpt>
      <trkpt lat="42.5698290" lon="-8.6435510">
        <ele>28.3</ele>
        <time>2021-05-22T11:31:47Z</time>
      </trkpt>
      <trkpt lat="42.5698430" lon="-8.6435660">
        <ele>28.3</ele>
        <time>2021-05-22T11:31:48Z</time>
      </trkpt>
      <trkpt lat="42.5698550" lon="-8.6435870">
        <ele>28.2</ele>
        <time>2021-05-22T11:31:49Z</time>
      </trkpt>
      <trkpt lat="42.5698620" lon="-8.6435950">
        <ele>28.2</ele>
        <time>2021-05-22T11:31:50Z</time>
      </trkpt>
      <trkpt lat="42.5698690" lon="-8.6436030">
        <ele>28.2</ele>
        <time>2021-05-22T11:31:51Z</time>
      </trkpt>
      <trkpt lat="42.5698660" lon="-8.6436060">
        <ele>28.2</ele>
        <time>2021-05-22T11:31:52Z</time>
      </trkpt>
      <trkpt lat="42.5698650" lon="-8.6436090">
        <ele>28.2</ele>
        <time>2021-05-22T11:31:53Z</time>
      </trkpt>
      <trkpt lat="42.5698680" lon="-8.6436070">
        <ele>28.2</ele>
        <time>2021-05-22T11:31:54Z</time>
      </trkpt>
      <trkpt lat="42.5698650" lon="-8.6436100">
        <ele>28.2</ele>
        <time>2021-05-22T11:31:55Z</time>
      </trkpt>
      <trkpt lat="42.5698670" lon="-8.6436010">
        <ele>28.2</ele>
        <time>2021-05-22T11:31:56Z</time>
      </trkpt>
      <trkpt lat="42.5698660" lon="-8.6436010">
        <ele>28.2</ele>
        <time>2021-05-22T11:31:57Z</time>
      </trkpt>
      <trkpt lat="42.5698720" lon="-8.6436020">
        <ele>28.2</ele>
        <time>2021-05-22T11:31:58Z</time>
      </trkpt>
      <trkpt lat="42.5698760" lon="-8.6436040">
        <ele>28.2</ele>
        <time>2021-05-22T11:31:59Z</time>
      </trkpt>
      <trkpt lat="42.5698810" lon="-8.6436040">
        <ele>28.2</ele>
        <time>2021-05-22T11:32:00Z</time>
      </trkpt>
      <trkpt lat="42.5698970" lon="-8.6436110">
        <ele>28.2</ele>
        <time>2021-05-22T11:32:01Z</time>
      </trkpt>
      <trkpt lat="42.5699020" lon="-8.6436210">
        <ele>28.2</ele>
        <time>2021-05-22T11:32:02Z</time>
      </trkpt>
      <trkpt lat="42.5699060" lon="-8.6436320">
        <ele>28.2</ele>
        <time>2021-05-22T11:32:03Z</time>
      </trkpt>
      <trkpt lat="42.5699090" lon="-8.6436440">
        <ele>28.2</ele>
        <time>2021-05-22T11:32:04Z</time>
      </trkpt>
      <trkpt lat="42.5699150" lon="-8.6436590">
        <ele>28.2</ele>
        <time>2021-05-22T11:32:05Z</time>
      </trkpt>
      <trkpt lat="42.5699220" lon="-8.6436700">
        <ele>28.2</ele>
        <time>2021-05-22T11:32:06Z</time>
      </trkpt>
      <trkpt lat="42.5699290" lon="-8.6436840">
        <ele>28.2</ele>
        <time>2021-05-22T11:32:07Z</time>
      </trkpt>
      <trkpt lat="42.5699390" lon="-8.6437050">
        <ele>28.2</ele>
        <time>2021-05-22T11:32:08Z</time>
      </trkpt>
      <trkpt lat="42.5699460" lon="-8.6437140">
        <ele>28.2</ele>
        <time>2021-05-22T11:32:09Z</time>
      </trkpt>
      <trkpt lat="42.5699520" lon="-8.6437240">
        <ele>28.2</ele>
        <time>2021-05-22T11:32:10Z</time>
      </trkpt>
      <trkpt lat="42.5699550" lon="-8.6437440">
        <ele>28.2</ele>
        <time>2021-05-22T11:32:11Z</time>
      </trkpt>
      <trkpt lat="42.5699680" lon="-8.6437650">
        <ele>28.2</ele>
        <time>2021-05-22T11:32:12Z</time>
      </trkpt>
      <trkpt lat="42.5699670" lon="-8.6437750">
        <ele>28.2</ele>
        <time>2021-05-22T11:32:13Z</time>
      </trkpt>
      <trkpt lat="42.5699710" lon="-8.6437930">
        <ele>28.2</ele>
        <time>2021-05-22T11:32:14Z</time>
      </trkpt>
      <trkpt lat="42.5699790" lon="-8.6438120">
        <ele>28.2</ele>
        <time>2021-05-22T11:32:15Z</time>
      </trkpt>
      <trkpt lat="42.5699820" lon="-8.6438240">
        <ele>28.2</ele>
        <time>2021-05-22T11:32:16Z</time>
      </trkpt>
      <trkpt lat="42.5699830" lon="-8.6438400">
        <ele>28.2</ele>
        <time>2021-05-22T11:32:17Z</time>
      </trkpt>
      <trkpt lat="42.5699820" lon="-8.6438490">
        <ele>28.2</ele>
        <time>2021-05-22T11:32:18Z</time>
      </trkpt>
      <trkpt lat="42.5699830" lon="-8.6438660">
        <ele>28.2</ele>
        <time>2021-05-22T11:32:19Z</time>
      </trkpt>
      <trkpt lat="42.5699850" lon="-8.6438960">
        <ele>28.2</ele>
        <time>2021-05-22T11:32:20Z</time>
      </trkpt>
      <trkpt lat="42.5699880" lon="-8.6439150">
        <ele>28.1</ele>
        <time>2021-05-22T11:32:21Z</time>
      </trkpt>
      <trkpt lat="42.5699850" lon="-8.6439240">
        <ele>28.1</ele>
        <time>2021-05-22T11:32:22Z</time>
      </trkpt>
      <trkpt lat="42.5699860" lon="-8.6439340">
        <ele>28.1</ele>
        <time>2021-05-22T11:32:23Z</time>
      </trkpt>
      <trkpt lat="42.5699900" lon="-8.6439600">
        <ele>28.1</ele>
        <time>2021-05-22T11:32:24Z</time>
      </trkpt>
      <trkpt lat="42.5699950" lon="-8.6439700">
        <ele>28.1</ele>
        <time>2021-05-22T11:32:25Z</time>
      </trkpt>
      <trkpt lat="42.5699990" lon="-8.6439800">
        <ele>28.0</ele>
        <time>2021-05-22T11:32:26Z</time>
      </trkpt>
      <trkpt lat="42.5700020" lon="-8.6440110">
        <ele>28.0</ele>
        <time>2021-05-22T11:32:27Z</time>
      </trkpt>
      <trkpt lat="42.5700030" lon="-8.6440230">
        <ele>28.0</ele>
        <time>2021-05-22T11:32:28Z</time>
      </trkpt>
      <trkpt lat="42.5700030" lon="-8.6440350">
        <ele>27.9</ele>
        <time>2021-05-22T11:32:29Z</time>
      </trkpt>
      <trkpt lat="42.5700050" lon="-8.6440670">
        <ele>27.9</ele>
        <time>2021-05-22T11:32:30Z</time>
      </trkpt>
      <trkpt lat="42.5700050" lon="-8.6440790">
        <ele>27.8</ele>
        <time>2021-05-22T11:32:31Z</time>
      </trkpt>
      <trkpt lat="42.5700050" lon="-8.6440900">
        <ele>27.8</ele>
        <time>2021-05-22T11:32:32Z</time>
      </trkpt>
      <trkpt lat="42.5700150" lon="-8.6441020">
        <ele>27.8</ele>
        <time>2021-05-22T11:32:33Z</time>
      </trkpt>
      <trkpt lat="42.5700190" lon="-8.6441240">
        <ele>27.7</ele>
        <time>2021-05-22T11:32:34Z</time>
      </trkpt>
      <trkpt lat="42.5700230" lon="-8.6441450">
        <ele>27.7</ele>
        <time>2021-05-22T11:32:35Z</time>
      </trkpt>
      <trkpt lat="42.5700320" lon="-8.6441640">
        <ele>27.6</ele>
        <time>2021-05-22T11:32:36Z</time>
      </trkpt>
      <trkpt lat="42.5700450" lon="-8.6441920">
        <ele>27.6</ele>
        <time>2021-05-22T11:32:37Z</time>
      </trkpt>
      <trkpt lat="42.5700510" lon="-8.6442070">
        <ele>27.5</ele>
        <time>2021-05-22T11:32:38Z</time>
      </trkpt>
      <trkpt lat="42.5700580" lon="-8.6442230">
        <ele>27.5</ele>
        <time>2021-05-22T11:32:39Z</time>
      </trkpt>
      <trkpt lat="42.5700630" lon="-8.6442410">
        <ele>27.4</ele>
        <time>2021-05-22T11:32:40Z</time>
      </trkpt>
      <trkpt lat="42.5700660" lon="-8.6442630">
        <ele>27.4</ele>
        <time>2021-05-22T11:32:41Z</time>
      </trkpt>
      <trkpt lat="42.5700700" lon="-8.6442800">
        <ele>27.4</ele>
        <time>2021-05-22T11:32:42Z</time>
      </trkpt>
      <trkpt lat="42.5700720" lon="-8.6442910">
        <ele>27.3</ele>
        <time>2021-05-22T11:32:43Z</time>
      </trkpt>
      <trkpt lat="42.5700790" lon="-8.6443070">
        <ele>27.3</ele>
        <time>2021-05-22T11:32:44Z</time>
      </trkpt>
      <trkpt lat="42.5700860" lon="-8.6443230">
        <ele>27.2</ele>
        <time>2021-05-22T11:32:45Z</time>
      </trkpt>
      <trkpt lat="42.5700840" lon="-8.6443350">
        <ele>27.2</ele>
        <time>2021-05-22T11:32:46Z</time>
      </trkpt>
      <trkpt lat="42.5700870" lon="-8.6443480">
        <ele>27.2</ele>
        <time>2021-05-22T11:32:47Z</time>
      </trkpt>
      <trkpt lat="42.5700970" lon="-8.6443560">
        <ele>27.2</ele>
        <time>2021-05-22T11:32:48Z</time>
      </trkpt>
      <trkpt lat="42.5701130" lon="-8.6443800">
        <ele>27.1</ele>
        <time>2021-05-22T11:32:49Z</time>
      </trkpt>
      <trkpt lat="42.5701140" lon="-8.6443900">
        <ele>27.1</ele>
        <time>2021-05-22T11:32:50Z</time>
      </trkpt>
      <trkpt lat="42.5701150" lon="-8.6443990">
        <ele>27.1</ele>
        <time>2021-05-22T11:32:51Z</time>
      </trkpt>
      <trkpt lat="42.5701330" lon="-8.6444300">
        <ele>27.0</ele>
        <time>2021-05-22T11:32:52Z</time>
      </trkpt>
      <trkpt lat="42.5701390" lon="-8.6444390">
        <ele>27.0</ele>
        <time>2021-05-22T11:32:53Z</time>
      </trkpt>
      <trkpt lat="42.5701490" lon="-8.6444430">
        <ele>27.0</ele>
        <time>2021-05-22T11:32:54Z</time>
      </trkpt>
      <trkpt lat="42.5701570" lon="-8.6444530">
        <ele>26.9</ele>
        <time>2021-05-22T11:32:55Z</time>
      </trkpt>
      <trkpt lat="42.5701660" lon="-8.6444590">
        <ele>26.9</ele>
        <time>2021-05-22T11:32:56Z</time>
      </trkpt>
      <trkpt lat="42.5701750" lon="-8.6444740">
        <ele>26.9</ele>
        <time>2021-05-22T11:32:57Z</time>
      </trkpt>
      <trkpt lat="42.5701860" lon="-8.6444950">
        <ele>26.8</ele>
        <time>2021-05-22T11:32:58Z</time>
      </trkpt>
      <trkpt lat="42.5702030" lon="-8.6445110">
        <ele>26.8</ele>
        <time>2021-05-22T11:32:59Z</time>
      </trkpt>
      <trkpt lat="42.5702120" lon="-8.6445180">
        <ele>26.8</ele>
        <time>2021-05-22T11:33:00Z</time>
      </trkpt>
      <trkpt lat="42.5702200" lon="-8.6445240">
        <ele>26.7</ele>
        <time>2021-05-22T11:33:01Z</time>
      </trkpt>
      <trkpt lat="42.5702350" lon="-8.6445270">
        <ele>26.7</ele>
        <time>2021-05-22T11:33:02Z</time>
      </trkpt>
      <trkpt lat="42.5702430" lon="-8.6445330">
        <ele>26.7</ele>
        <time>2021-05-22T11:33:03Z</time>
      </trkpt>
      <trkpt lat="42.5702470" lon="-8.6445390">
        <ele>26.7</ele>
        <time>2021-05-22T11:33:04Z</time>
      </trkpt>
      <trkpt lat="42.5702500" lon="-8.6445460">
        <ele>26.7</ele>
        <time>2021-05-22T11:33:05Z</time>
      </trkpt>
      <trkpt lat="42.5702650" lon="-8.6445520">
        <ele>26.6</ele>
        <time>2021-05-22T11:33:06Z</time>
      </trkpt>
      <trkpt lat="42.5702810" lon="-8.6445540">
        <ele>26.6</ele>
        <time>2021-05-22T11:33:07Z</time>
      </trkpt>
      <trkpt lat="42.5702940" lon="-8.6445560">
        <ele>26.6</ele>
        <time>2021-05-22T11:33:08Z</time>
      </trkpt>
      <trkpt lat="42.5703020" lon="-8.6445600">
        <ele>26.6</ele>
        <time>2021-05-22T11:33:10Z</time>
      </trkpt>
      <trkpt lat="42.5703100" lon="-8.6445640">
        <ele>26.6</ele>
        <time>2021-05-22T11:33:11Z</time>
      </trkpt>
      <trkpt lat="42.5703230" lon="-8.6445720">
        <ele>26.5</ele>
        <time>2021-05-22T11:33:12Z</time>
      </trkpt>
      <trkpt lat="42.5703340" lon="-8.6445670">
        <ele>26.5</ele>
        <time>2021-05-22T11:33:13Z</time>
      </trkpt>
      <trkpt lat="42.5703440" lon="-8.6445740">
        <ele>26.5</ele>
        <time>2021-05-22T11:33:14Z</time>
      </trkpt>
      <trkpt lat="42.5703520" lon="-8.6445750">
        <ele>26.5</ele>
        <time>2021-05-22T11:33:15Z</time>
      </trkpt>
      <trkpt lat="42.5703780" lon="-8.6445830">
        <ele>26.5</ele>
        <time>2021-05-22T11:33:16Z</time>
      </trkpt>
      <trkpt lat="42.5703900" lon="-8.6445860">
        <ele>26.5</ele>
        <time>2021-05-22T11:33:17Z</time>
      </trkpt>
      <trkpt lat="42.5703980" lon="-8.6445880">
        <ele>26.4</ele>
        <time>2021-05-22T11:33:18Z</time>
      </trkpt>
      <trkpt lat="42.5704050" lon="-8.6445890">
        <ele>26.4</ele>
        <time>2021-05-22T11:33:19Z</time>
      </trkpt>
      <trkpt lat="42.5704130" lon="-8.6445950">
        <ele>26.4</ele>
        <time>2021-05-22T11:33:20Z</time>
      </trkpt>
      <trkpt lat="42.5704170" lon="-8.6446000">
        <ele>26.4</ele>
        <time>2021-05-22T11:33:21Z</time>
      </trkpt>
      <trkpt lat="42.5704240" lon="-8.6445990">
        <ele>26.4</ele>
        <time>2021-05-22T11:33:22Z</time>
      </trkpt>
      <trkpt lat="42.5704310" lon="-8.6446060">
        <ele>26.4</ele>
        <time>2021-05-22T11:33:23Z</time>
      </trkpt>
      <trkpt lat="42.5704390" lon="-8.6446080">
        <ele>26.4</ele>
        <time>2021-05-22T11:33:24Z</time>
      </trkpt>
      <trkpt lat="42.5704580" lon="-8.6446140">
        <ele>26.4</ele>
        <time>2021-05-22T11:33:25Z</time>
      </trkpt>
      <trkpt lat="42.5704680" lon="-8.6446150">
        <ele>26.4</ele>
        <time>2021-05-22T11:33:26Z</time>
      </trkpt>
      <trkpt lat="42.5704780" lon="-8.6446160">
        <ele>26.3</ele>
        <time>2021-05-22T11:33:27Z</time>
      </trkpt>
      <trkpt lat="42.5704830" lon="-8.6446260">
        <ele>26.3</ele>
        <time>2021-05-22T11:33:28Z</time>
      </trkpt>
      <trkpt lat="42.5705030" lon="-8.6446320">
        <ele>26.3</ele>
        <time>2021-05-22T11:33:29Z</time>
      </trkpt>
      <trkpt lat="42.5705180" lon="-8.6446350">
        <ele>26.3</ele>
        <time>2021-05-22T11:33:30Z</time>
      </trkpt>
      <trkpt lat="42.5705340" lon="-8.6446370">
        <ele>26.2</ele>
        <time>2021-05-22T11:33:31Z</time>
      </trkpt>
      <trkpt lat="42.5705520" lon="-8.6446330">
        <ele>26.2</ele>
        <time>2021-05-22T11:33:32Z</time>
      </trkpt>
      <trkpt lat="42.5705680" lon="-8.6446300">
        <ele>26.2</ele>
        <time>2021-05-22T11:33:33Z</time>
      </trkpt>
      <trkpt lat="42.5705910" lon="-8.6446210">
        <ele>26.2</ele>
        <time>2021-05-22T11:33:34Z</time>
      </trkpt>
      <trkpt lat="42.5706000" lon="-8.6446150">
        <ele>26.2</ele>
        <time>2021-05-22T11:33:35Z</time>
      </trkpt>
      <trkpt lat="42.5706100" lon="-8.6446090">
        <ele>26.2</ele>
        <time>2021-05-22T11:33:36Z</time>
      </trkpt>
      <trkpt lat="42.5706310" lon="-8.6445970">
        <ele>26.2</ele>
        <time>2021-05-22T11:33:37Z</time>
      </trkpt>
      <trkpt lat="42.5706390" lon="-8.6445940">
        <ele>26.2</ele>
        <time>2021-05-22T11:33:38Z</time>
      </trkpt>
      <trkpt lat="42.5706460" lon="-8.6445910">
        <ele>26.2</ele>
        <time>2021-05-22T11:33:39Z</time>
      </trkpt>
      <trkpt lat="42.5706600" lon="-8.6445730">
        <ele>26.2</ele>
        <time>2021-05-22T11:33:40Z</time>
      </trkpt>
      <trkpt lat="42.5706590" lon="-8.6445590">
        <ele>26.2</ele>
        <time>2021-05-22T11:33:41Z</time>
      </trkpt>
      <trkpt lat="42.5706630" lon="-8.6445510">
        <ele>26.2</ele>
        <time>2021-05-22T11:33:42Z</time>
      </trkpt>
      <trkpt lat="42.5706930" lon="-8.6445480">
        <ele>26.2</ele>
        <time>2021-05-22T11:33:43Z</time>
      </trkpt>
      <trkpt lat="42.5707010" lon="-8.6445500">
        <ele>26.2</ele>
        <time>2021-05-22T11:33:44Z</time>
      </trkpt>
      <trkpt lat="42.5707190" lon="-8.6445460">
        <ele>26.3</ele>
        <time>2021-05-22T11:33:45Z</time>
      </trkpt>
      <trkpt lat="42.5707360" lon="-8.6445440">
        <ele>26.3</ele>
        <time>2021-05-22T11:33:46Z</time>
      </trkpt>
      <trkpt lat="42.5707500" lon="-8.6445430">
        <ele>26.3</ele>
        <time>2021-05-22T11:33:47Z</time>
      </trkpt>
      <trkpt lat="42.5707640" lon="-8.6445420">
        <ele>26.3</ele>
        <time>2021-05-22T11:33:48Z</time>
      </trkpt>
      <trkpt lat="42.5707720" lon="-8.6445340">
        <ele>26.4</ele>
        <time>2021-05-22T11:33:49Z</time>
      </trkpt>
      <trkpt lat="42.5707880" lon="-8.6445360">
        <ele>26.4</ele>
        <time>2021-05-22T11:33:50Z</time>
      </trkpt>
      <trkpt lat="42.5708170" lon="-8.6445260">
        <ele>26.5</ele>
        <time>2021-05-22T11:33:51Z</time>
      </trkpt>
      <trkpt lat="42.5708260" lon="-8.6445170">
        <ele>26.5</ele>
        <time>2021-05-22T11:33:52Z</time>
      </trkpt>
      <trkpt lat="42.5708340" lon="-8.6445100">
        <ele>26.5</ele>
        <time>2021-05-22T11:33:53Z</time>
      </trkpt>
      <trkpt lat="42.5708430" lon="-8.6445060">
        <ele>26.6</ele>
        <time>2021-05-22T11:33:54Z</time>
      </trkpt>
      <trkpt lat="42.5708530" lon="-8.6445020">
        <ele>26.6</ele>
        <time>2021-05-22T11:33:55Z</time>
      </trkpt>
      <trkpt lat="42.5708640" lon="-8.6444980">
        <ele>26.6</ele>
        <time>2021-05-22T11:33:56Z</time>
      </trkpt>
      <trkpt lat="42.5708770" lon="-8.6444910">
        <ele>26.7</ele>
        <time>2021-05-22T11:33:57Z</time>
      </trkpt>
      <trkpt lat="42.5708880" lon="-8.6444910">
        <ele>26.7</ele>
        <time>2021-05-22T11:33:58Z</time>
      </trkpt>
      <trkpt lat="42.5709000" lon="-8.6444930">
        <ele>26.7</ele>
        <time>2021-05-22T11:33:59Z</time>
      </trkpt>
      <trkpt lat="42.5709090" lon="-8.6444960">
        <ele>26.8</ele>
        <time>2021-05-22T11:34:00Z</time>
      </trkpt>
      <trkpt lat="42.5709220" lon="-8.6444980">
        <ele>26.8</ele>
        <time>2021-05-22T11:34:01Z</time>
      </trkpt>
      <trkpt lat="42.5709360" lon="-8.6444900">
        <ele>26.9</ele>
        <time>2021-05-22T11:34:02Z</time>
      </trkpt>
      <trkpt lat="42.5709500" lon="-8.6444850">
        <ele>26.9</ele>
        <time>2021-05-22T11:34:03Z</time>
      </trkpt>
      <trkpt lat="42.5709610" lon="-8.6444750">
        <ele>27.0</ele>
        <time>2021-05-22T11:34:04Z</time>
      </trkpt>
      <trkpt lat="42.5709670" lon="-8.6444740">
        <ele>27.0</ele>
        <time>2021-05-22T11:34:05Z</time>
      </trkpt>
      <trkpt lat="42.5709820" lon="-8.6444710">
        <ele>27.1</ele>
        <time>2021-05-22T11:34:06Z</time>
      </trkpt>
      <trkpt lat="42.5709940" lon="-8.6444690">
        <ele>27.1</ele>
        <time>2021-05-22T11:34:07Z</time>
      </trkpt>
      <trkpt lat="42.5710090" lon="-8.6444580">
        <ele>27.2</ele>
        <time>2021-05-22T11:34:08Z</time>
      </trkpt>
      <trkpt lat="42.5710220" lon="-8.6444590">
        <ele>27.2</ele>
        <time>2021-05-22T11:34:09Z</time>
      </trkpt>
      <trkpt lat="42.5710390" lon="-8.6444550">
        <ele>27.3</ele>
        <time>2021-05-22T11:34:10Z</time>
      </trkpt>
      <trkpt lat="42.5710580" lon="-8.6444410">
        <ele>27.4</ele>
        <time>2021-05-22T11:34:11Z</time>
      </trkpt>
      <trkpt lat="42.5710660" lon="-8.6444360">
        <ele>27.4</ele>
        <time>2021-05-22T11:34:12Z</time>
      </trkpt>
      <trkpt lat="42.5710730" lon="-8.6444320">
        <ele>27.4</ele>
        <time>2021-05-22T11:34:13Z</time>
      </trkpt>
      <trkpt lat="42.5710830" lon="-8.6444300">
        <ele>27.5</ele>
        <time>2021-05-22T11:34:14Z</time>
      </trkpt>
      <trkpt lat="42.5710970" lon="-8.6444280">
        <ele>27.5</ele>
        <time>2021-05-22T11:34:15Z</time>
      </trkpt>
      <trkpt lat="42.5711070" lon="-8.6444190">
        <ele>27.5</ele>
        <time>2021-05-22T11:34:16Z</time>
      </trkpt>
      <trkpt lat="42.5711150" lon="-8.6444130">
        <ele>27.6</ele>
        <time>2021-05-22T11:34:17Z</time>
      </trkpt>
      <trkpt lat="42.5711210" lon="-8.6444090">
        <ele>27.6</ele>
        <time>2021-05-22T11:34:18Z</time>
      </trkpt>
      <trkpt lat="42.5711370" lon="-8.6444040">
        <ele>27.7</ele>
        <time>2021-05-22T11:34:19Z</time>
      </trkpt>
      <trkpt lat="42.5711490" lon="-8.6443980">
        <ele>27.7</ele>
        <time>2021-05-22T11:34:20Z</time>
      </trkpt>
      <trkpt lat="42.5711600" lon="-8.6443960">
        <ele>27.7</ele>
        <time>2021-05-22T11:34:21Z</time>
      </trkpt>
      <trkpt lat="42.5711670" lon="-8.6443860">
        <ele>27.8</ele>
        <time>2021-05-22T11:34:22Z</time>
      </trkpt>
      <trkpt lat="42.5711810" lon="-8.6443720">
        <ele>27.8</ele>
        <time>2021-05-22T11:34:23Z</time>
      </trkpt>
      <trkpt lat="42.5711890" lon="-8.6443670">
        <ele>27.8</ele>
        <time>2021-05-22T11:34:24Z</time>
      </trkpt>
      <trkpt lat="42.5711960" lon="-8.6443610">
        <ele>27.9</ele>
        <time>2021-05-22T11:34:25Z</time>
      </trkpt>
      <trkpt lat="42.5712030" lon="-8.6443560">
        <ele>27.9</ele>
        <time>2021-05-22T11:34:26Z</time>
      </trkpt>
      <trkpt lat="42.5712080" lon="-8.6443470">
        <ele>27.9</ele>
        <time>2021-05-22T11:34:27Z</time>
      </trkpt>
      <trkpt lat="42.5712190" lon="-8.6443370">
        <ele>27.9</ele>
        <time>2021-05-22T11:34:28Z</time>
      </trkpt>
      <trkpt lat="42.5712280" lon="-8.6443300">
        <ele>28.0</ele>
        <time>2021-05-22T11:34:29Z</time>
      </trkpt>
      <trkpt lat="42.5712390" lon="-8.6443200">
        <ele>28.0</ele>
        <time>2021-05-22T11:34:30Z</time>
      </trkpt>
      <trkpt lat="42.5712450" lon="-8.6443010">
        <ele>28.1</ele>
        <time>2021-05-22T11:34:31Z</time>
      </trkpt>
      <trkpt lat="42.5712500" lon="-8.6443000">
        <ele>28.1</ele>
        <time>2021-05-22T11:34:32Z</time>
      </trkpt>
      <trkpt lat="42.5712600" lon="-8.6442970">
        <ele>28.1</ele>
        <time>2021-05-22T11:34:33Z</time>
      </trkpt>
      <trkpt lat="42.5712740" lon="-8.6442900">
        <ele>28.1</ele>
        <time>2021-05-22T11:34:34Z</time>
      </trkpt>
      <trkpt lat="42.5712890" lon="-8.6442780">
        <ele>28.2</ele>
        <time>2021-05-22T11:34:35Z</time>
      </trkpt>
      <trkpt lat="42.5712990" lon="-8.6442650">
        <ele>28.2</ele>
        <time>2021-05-22T11:34:36Z</time>
      </trkpt>
      <trkpt lat="42.5713090" lon="-8.6442540">
        <ele>28.3</ele>
        <time>2021-05-22T11:34:37Z</time>
      </trkpt>
      <trkpt lat="42.5713150" lon="-8.6442370">
        <ele>28.3</ele>
        <time>2021-05-22T11:34:38Z</time>
      </trkpt>
      <trkpt lat="42.5713160" lon="-8.6442240">
        <ele>28.3</ele>
        <time>2021-05-22T11:34:39Z</time>
      </trkpt>
      <trkpt lat="42.5713350" lon="-8.6442020">
        <ele>28.4</ele>
        <time>2021-05-22T11:34:40Z</time>
      </trkpt>
      <trkpt lat="42.5713410" lon="-8.6441980">
        <ele>28.4</ele>
        <time>2021-05-22T11:34:41Z</time>
      </trkpt>
      <trkpt lat="42.5713470" lon="-8.6441940">
        <ele>28.4</ele>
        <time>2021-05-22T11:34:42Z</time>
      </trkpt>
      <trkpt lat="42.5713550" lon="-8.6441910">
        <ele>28.4</ele>
        <time>2021-05-22T11:34:43Z</time>
      </trkpt>
      <trkpt lat="42.5713570" lon="-8.6441740">
        <ele>28.5</ele>
        <time>2021-05-22T11:34:44Z</time>
      </trkpt>
      <trkpt lat="42.5713630" lon="-8.6441620">
        <ele>28.5</ele>
        <time>2021-05-22T11:34:45Z</time>
      </trkpt>
      <trkpt lat="42.5713730" lon="-8.6441410">
        <ele>28.6</ele>
        <time>2021-05-22T11:34:46Z</time>
      </trkpt>
      <trkpt lat="42.5713770" lon="-8.6441350">
        <ele>28.6</ele>
        <time>2021-05-22T11:34:47Z</time>
      </trkpt>
      <trkpt lat="42.5713800" lon="-8.6441280">
        <ele>28.6</ele>
        <time>2021-05-22T11:34:48Z</time>
      </trkpt>
      <trkpt lat="42.5713840" lon="-8.6441210">
        <ele>28.6</ele>
        <time>2021-05-22T11:34:49Z</time>
      </trkpt>
      <trkpt lat="42.5713900" lon="-8.6441020">
        <ele>28.7</ele>
        <time>2021-05-22T11:34:50Z</time>
      </trkpt>
      <trkpt lat="42.5713890" lon="-8.6440900">
        <ele>28.7</ele>
        <time>2021-05-22T11:34:51Z</time>
      </trkpt>
      <trkpt lat="42.5713960" lon="-8.6440810">
        <ele>28.7</ele>
        <time>2021-05-22T11:34:52Z</time>
      </trkpt>
      <trkpt lat="42.5713980" lon="-8.6440690">
        <ele>28.8</ele>
        <time>2021-05-22T11:34:53Z</time>
      </trkpt>
      <trkpt lat="42.5714030" lon="-8.6440580">
        <ele>28.8</ele>
        <time>2021-05-22T11:34:54Z</time>
      </trkpt>
      <trkpt lat="42.5714020" lon="-8.6440410">
        <ele>28.9</ele>
        <time>2021-05-22T11:34:55Z</time>
      </trkpt>
      <trkpt lat="42.5714020" lon="-8.6440200">
        <ele>28.9</ele>
        <time>2021-05-22T11:34:56Z</time>
      </trkpt>
      <trkpt lat="42.5714130" lon="-8.6439950">
        <ele>29.0</ele>
        <time>2021-05-22T11:34:57Z</time>
      </trkpt>
      <trkpt lat="42.5714130" lon="-8.6439650">
        <ele>29.1</ele>
        <time>2021-05-22T11:34:58Z</time>
      </trkpt>
      <trkpt lat="42.5714100" lon="-8.6439520">
        <ele>29.1</ele>
        <time>2021-05-22T11:34:59Z</time>
      </trkpt>
      <trkpt lat="42.5714070" lon="-8.6439380">
        <ele>29.2</ele>
        <time>2021-05-22T11:35:00Z</time>
      </trkpt>
      <trkpt lat="42.5714080" lon="-8.6439080">
        <ele>29.3</ele>
        <time>2021-05-22T11:35:01Z</time>
      </trkpt>
      <trkpt lat="42.5714090" lon="-8.6438930">
        <ele>29.3</ele>
        <time>2021-05-22T11:35:02Z</time>
      </trkpt>
      <trkpt lat="42.5714110" lon="-8.6438780">
        <ele>29.4</ele>
        <time>2021-05-22T11:35:03Z</time>
      </trkpt>
      <trkpt lat="42.5714090" lon="-8.6438500">
        <ele>29.5</ele>
        <time>2021-05-22T11:35:04Z</time>
      </trkpt>
      <trkpt lat="42.5714090" lon="-8.6438290">
        <ele>29.5</ele>
        <time>2021-05-22T11:35:05Z</time>
      </trkpt>
      <trkpt lat="42.5714170" lon="-8.6438120">
        <ele>29.6</ele>
        <time>2021-05-22T11:35:06Z</time>
      </trkpt>
      <trkpt lat="42.5714170" lon="-8.6437960">
        <ele>29.7</ele>
        <time>2021-05-22T11:35:07Z</time>
      </trkpt>
      <trkpt lat="42.5714220" lon="-8.6437910">
        <ele>29.7</ele>
        <time>2021-05-22T11:35:08Z</time>
      </trkpt>
      <trkpt lat="42.5714280" lon="-8.6437650">
        <ele>29.8</ele>
        <time>2021-05-22T11:35:09Z</time>
      </trkpt>
      <trkpt lat="42.5714260" lon="-8.6437490">
        <ele>29.8</ele>
        <time>2021-05-22T11:35:10Z</time>
      </trkpt>
      <trkpt lat="42.5714250" lon="-8.6437330">
        <ele>29.9</ele>
        <time>2021-05-22T11:35:11Z</time>
      </trkpt>
      <trkpt lat="42.5714270" lon="-8.6437170">
        <ele>29.9</ele>
        <time>2021-05-22T11:35:12Z</time>
      </trkpt>
      <trkpt lat="42.5714280" lon="-8.6436950">
        <ele>29.9</ele>
        <time>2021-05-22T11:35:13Z</time>
      </trkpt>
      <trkpt lat="42.5714310" lon="-8.6436640">
        <ele>30.0</ele>
        <time>2021-05-22T11:35:14Z</time>
      </trkpt>
      <trkpt lat="42.5714340" lon="-8.6436560">
        <ele>30.0</ele>
        <time>2021-05-22T11:35:15Z</time>
      </trkpt>
      <trkpt lat="42.5714360" lon="-8.6436470">
        <ele>30.0</ele>
        <time>2021-05-22T11:35:16Z</time>
      </trkpt>
      <trkpt lat="42.5714440" lon="-8.6436290">
        <ele>30.1</ele>
        <time>2021-05-22T11:35:17Z</time>
      </trkpt>
      <trkpt lat="42.5714480" lon="-8.6436110">
        <ele>30.1</ele>
        <time>2021-05-22T11:35:18Z</time>
      </trkpt>
      <trkpt lat="42.5714470" lon="-8.6435980">
        <ele>30.1</ele>
        <time>2021-05-22T11:35:19Z</time>
      </trkpt>
      <trkpt lat="42.5714490" lon="-8.6435890">
        <ele>30.1</ele>
        <time>2021-05-22T11:35:20Z</time>
      </trkpt>
      <trkpt lat="42.5714530" lon="-8.6435680">
        <ele>30.1</ele>
        <time>2021-05-22T11:35:21Z</time>
      </trkpt>
      <trkpt lat="42.5714550" lon="-8.6435440">
        <ele>30.2</ele>
        <time>2021-05-22T11:35:22Z</time>
      </trkpt>
      <trkpt lat="42.5714660" lon="-8.6435290">
        <ele>30.2</ele>
        <time>2021-05-22T11:35:23Z</time>
      </trkpt>
      <trkpt lat="42.5714780" lon="-8.6435060">
        <ele>30.2</ele>
        <time>2021-05-22T11:35:24Z</time>
      </trkpt>
      <trkpt lat="42.5714790" lon="-8.6434930">
        <ele>30.2</ele>
        <time>2021-05-22T11:35:25Z</time>
      </trkpt>
      <trkpt lat="42.5714810" lon="-8.6434810">
        <ele>30.2</ele>
        <time>2021-05-22T11:35:26Z</time>
      </trkpt>
      <trkpt lat="42.5714810" lon="-8.6434550">
        <ele>30.2</ele>
        <time>2021-05-22T11:35:27Z</time>
      </trkpt>
      <trkpt lat="42.5714910" lon="-8.6434400">
        <ele>30.1</ele>
        <time>2021-05-22T11:35:28Z</time>
      </trkpt>
      <trkpt lat="42.5715020" lon="-8.6434220">
        <ele>30.1</ele>
        <time>2021-05-22T11:35:29Z</time>
      </trkpt>
      <trkpt lat="42.5715070" lon="-8.6434160">
        <ele>30.1</ele>
        <time>2021-05-22T11:35:30Z</time>
      </trkpt>
      <trkpt lat="42.5715150" lon="-8.6434060">
        <ele>30.1</ele>
        <time>2021-05-22T11:35:31Z</time>
      </trkpt>
      <trkpt lat="42.5715310" lon="-8.6433930">
        <ele>30.1</ele>
        <time>2021-05-22T11:35:32Z</time>
      </trkpt>
      <trkpt lat="42.5715400" lon="-8.6433870">
        <ele>30.1</ele>
        <time>2021-05-22T11:35:33Z</time>
      </trkpt>
      <trkpt lat="42.5715490" lon="-8.6433800">
        <ele>30.0</ele>
        <time>2021-05-22T11:35:34Z</time>
      </trkpt>
      <trkpt lat="42.5715660" lon="-8.6433620">
        <ele>30.0</ele>
        <time>2021-05-22T11:35:35Z</time>
      </trkpt>
      <trkpt lat="42.5715710" lon="-8.6433540">
        <ele>30.0</ele>
        <time>2021-05-22T11:35:36Z</time>
      </trkpt>
      <trkpt lat="42.5715770" lon="-8.6433420">
        <ele>30.0</ele>
        <time>2021-05-22T11:35:37Z</time>
      </trkpt>
      <trkpt lat="42.5715820" lon="-8.6433350">
        <ele>29.9</ele>
        <time>2021-05-22T11:35:38Z</time>
      </trkpt>
      <trkpt lat="42.5715880" lon="-8.6433110">
        <ele>29.9</ele>
        <time>2021-05-22T11:35:39Z</time>
      </trkpt>
      <trkpt lat="42.5715910" lon="-8.6433060">
        <ele>29.9</ele>
        <time>2021-05-22T11:35:40Z</time>
      </trkpt>
      <trkpt lat="42.5715920" lon="-8.6432940">
        <ele>29.9</ele>
        <time>2021-05-22T11:35:41Z</time>
      </trkpt>
      <trkpt lat="42.5716040" lon="-8.6432770">
        <ele>29.8</ele>
        <time>2021-05-22T11:35:42Z</time>
      </trkpt>
      <trkpt lat="42.5716150" lon="-8.6432380">
        <ele>29.7</ele>
        <time>2021-05-22T11:35:43Z</time>
      </trkpt>
      <trkpt lat="42.5716170" lon="-8.6432280">
        <ele>29.7</ele>
        <time>2021-05-22T11:35:44Z</time>
      </trkpt>
      <trkpt lat="42.5716280" lon="-8.6432070">
        <ele>29.7</ele>
        <time>2021-05-22T11:35:45Z</time>
      </trkpt>
      <trkpt lat="42.5716320" lon="-8.6431950">
        <ele>29.7</ele>
        <time>2021-05-22T11:35:46Z</time>
      </trkpt>
      <trkpt lat="42.5716370" lon="-8.6431830">
        <ele>29.6</ele>
        <time>2021-05-22T11:35:47Z</time>
      </trkpt>
      <trkpt lat="42.5716430" lon="-8.6431640">
        <ele>29.6</ele>
        <time>2021-05-22T11:35:48Z</time>
      </trkpt>
      <trkpt lat="42.5716440" lon="-8.6431430">
        <ele>29.6</ele>
        <time>2021-05-22T11:35:49Z</time>
      </trkpt>
      <trkpt lat="42.5716540" lon="-8.6431150">
        <ele>29.5</ele>
        <time>2021-05-22T11:35:50Z</time>
      </trkpt>
      <trkpt lat="42.5716580" lon="-8.6431000">
        <ele>29.5</ele>
        <time>2021-05-22T11:35:51Z</time>
      </trkpt>
      <trkpt lat="42.5716610" lon="-8.6430850">
        <ele>29.5</ele>
        <time>2021-05-22T11:35:52Z</time>
      </trkpt>
      <trkpt lat="42.5716730" lon="-8.6430680">
        <ele>29.5</ele>
        <time>2021-05-22T11:35:53Z</time>
      </trkpt>
      <trkpt lat="42.5716780" lon="-8.6430490">
        <ele>29.5</ele>
        <time>2021-05-22T11:35:54Z</time>
      </trkpt>
      <trkpt lat="42.5716820" lon="-8.6430380">
        <ele>29.4</ele>
        <time>2021-05-22T11:35:55Z</time>
      </trkpt>
      <trkpt lat="42.5717010" lon="-8.6429980">
        <ele>29.4</ele>
        <time>2021-05-22T11:35:57Z</time>
      </trkpt>
      <trkpt lat="42.5717160" lon="-8.6429860">
        <ele>29.3</ele>
        <time>2021-05-22T11:35:58Z</time>
      </trkpt>
      <trkpt lat="42.5717300" lon="-8.6429880">
        <ele>29.3</ele>
        <time>2021-05-22T11:35:59Z</time>
      </trkpt>
      <trkpt lat="42.5717380" lon="-8.6429940">
        <ele>29.3</ele>
        <time>2021-05-22T11:36:00Z</time>
      </trkpt>
      <trkpt lat="42.5717510" lon="-8.6429940">
        <ele>29.2</ele>
        <time>2021-05-22T11:36:01Z</time>
      </trkpt>
      <trkpt lat="42.5717720" lon="-8.6429940">
        <ele>29.2</ele>
        <time>2021-05-22T11:36:02Z</time>
      </trkpt>
      <trkpt lat="42.5717810" lon="-8.6429960">
        <ele>29.2</ele>
        <time>2021-05-22T11:36:03Z</time>
      </trkpt>
      <trkpt lat="42.5717900" lon="-8.6429970">
        <ele>29.1</ele>
        <time>2021-05-22T11:36:04Z</time>
      </trkpt>
      <trkpt lat="42.5718060" lon="-8.6430040">
        <ele>29.1</ele>
        <time>2021-05-22T11:36:05Z</time>
      </trkpt>
      <trkpt lat="42.5718250" lon="-8.6430070">
        <ele>29.0</ele>
        <time>2021-05-22T11:36:06Z</time>
      </trkpt>
      <trkpt lat="42.5718380" lon="-8.6430140">
        <ele>29.0</ele>
        <time>2021-05-22T11:36:07Z</time>
      </trkpt>
      <trkpt lat="42.5718550" lon="-8.6430160">
        <ele>28.9</ele>
        <time>2021-05-22T11:36:08Z</time>
      </trkpt>
      <trkpt lat="42.5718630" lon="-8.6430170">
        <ele>28.9</ele>
        <time>2021-05-22T11:36:09Z</time>
      </trkpt>
      <trkpt lat="42.5718830" lon="-8.6430190">
        <ele>28.9</ele>
        <time>2021-05-22T11:36:10Z</time>
      </trkpt>
      <trkpt lat="42.5718910" lon="-8.6430190">
        <ele>28.8</ele>
        <time>2021-05-22T11:36:11Z</time>
      </trkpt>
      <trkpt lat="42.5719060" lon="-8.6430280">
        <ele>28.8</ele>
        <time>2021-05-22T11:36:12Z</time>
      </trkpt>
      <trkpt lat="42.5719130" lon="-8.6430320">
        <ele>28.8</ele>
        <time>2021-05-22T11:36:13Z</time>
      </trkpt>
      <trkpt lat="42.5719310" lon="-8.6430400">
        <ele>28.7</ele>
        <time>2021-05-22T11:36:14Z</time>
      </trkpt>
      <trkpt lat="42.5719460" lon="-8.6430470">
        <ele>28.7</ele>
        <time>2021-05-22T11:36:15Z</time>
      </trkpt>
      <trkpt lat="42.5719560" lon="-8.6430520">
        <ele>28.7</ele>
        <time>2021-05-22T11:36:16Z</time>
      </trkpt>
      <trkpt lat="42.5719700" lon="-8.6430540">
        <ele>28.6</ele>
        <time>2021-05-22T11:36:17Z</time>
      </trkpt>
      <trkpt lat="42.5719780" lon="-8.6430550">
        <ele>28.6</ele>
        <time>2021-05-22T11:36:18Z</time>
      </trkpt>
      <trkpt lat="42.5719880" lon="-8.6430580">
        <ele>28.6</ele>
        <time>2021-05-22T11:36:19Z</time>
      </trkpt>
      <trkpt lat="42.5720050" lon="-8.6430610">
        <ele>28.5</ele>
        <time>2021-05-22T11:36:20Z</time>
      </trkpt>
      <trkpt lat="42.5720260" lon="-8.6430670">
        <ele>28.5</ele>
        <time>2021-05-22T11:36:21Z</time>
      </trkpt>
      <trkpt lat="42.5720340" lon="-8.6430700">
        <ele>28.5</ele>
        <time>2021-05-22T11:36:22Z</time>
      </trkpt>
      <trkpt lat="42.5720410" lon="-8.6430740">
        <ele>28.5</ele>
        <time>2021-05-22T11:36:23Z</time>
      </trkpt>
      <trkpt lat="42.5720520" lon="-8.6430780">
        <ele>28.4</ele>
        <time>2021-05-22T11:36:24Z</time>
      </trkpt>
      <trkpt lat="42.5720690" lon="-8.6430830">
        <ele>28.4</ele>
        <time>2021-05-22T11:36:25Z</time>
      </trkpt>
      <trkpt lat="42.5720800" lon="-8.6430820">
        <ele>28.4</ele>
        <time>2021-05-22T11:36:26Z</time>
      </trkpt>
      <trkpt lat="42.5721020" lon="-8.6430900">
        <ele>28.3</ele>
        <time>2021-05-22T11:36:27Z</time>
      </trkpt>
      <trkpt lat="42.5721120" lon="-8.6430940">
        <ele>28.3</ele>
        <time>2021-05-22T11:36:28Z</time>
      </trkpt>
      <trkpt lat="42.5721270" lon="-8.6430980">
        <ele>28.3</ele>
        <time>2021-05-22T11:36:29Z</time>
      </trkpt>
      <trkpt lat="42.5721360" lon="-8.6431000">
        <ele>28.3</ele>
        <time>2021-05-22T11:36:30Z</time>
      </trkpt>
      <trkpt lat="42.5721540" lon="-8.6431050">
        <ele>28.2</ele>
        <time>2021-05-22T11:36:31Z</time>
      </trkpt>
      <trkpt lat="42.5721690" lon="-8.6431070">
        <ele>28.2</ele>
        <time>2021-05-22T11:36:32Z</time>
      </trkpt>
      <trkpt lat="42.5721860" lon="-8.6431040">
        <ele>28.2</ele>
        <time>2021-05-22T11:36:33Z</time>
      </trkpt>
      <trkpt lat="42.5721960" lon="-8.6430990">
        <ele>28.2</ele>
        <time>2021-05-22T11:36:34Z</time>
      </trkpt>
      <trkpt lat="42.5722250" lon="-8.6430990">
        <ele>28.1</ele>
        <time>2021-05-22T11:36:35Z</time>
      </trkpt>
      <trkpt lat="42.5722330" lon="-8.6431020">
        <ele>28.1</ele>
        <time>2021-05-22T11:36:36Z</time>
      </trkpt>
      <trkpt lat="42.5722560" lon="-8.6431020">
        <ele>28.1</ele>
        <time>2021-05-22T11:36:37Z</time>
      </trkpt>
      <trkpt lat="42.5722650" lon="-8.6431000">
        <ele>28.1</ele>
        <time>2021-05-22T11:36:38Z</time>
      </trkpt>
      <trkpt lat="42.5722730" lon="-8.6430980">
        <ele>28.0</ele>
        <time>2021-05-22T11:36:39Z</time>
      </trkpt>
      <trkpt lat="42.5722940" lon="-8.6431020">
        <ele>28.0</ele>
        <time>2021-05-22T11:36:40Z</time>
      </trkpt>
      <trkpt lat="42.5723020" lon="-8.6431030">
        <ele>28.0</ele>
        <time>2021-05-22T11:36:41Z</time>
      </trkpt>
      <trkpt lat="42.5723110" lon="-8.6431040">
        <ele>28.0</ele>
        <time>2021-05-22T11:36:42Z</time>
      </trkpt>
      <trkpt lat="42.5723260" lon="-8.6431030">
        <ele>28.0</ele>
        <time>2021-05-22T11:36:43Z</time>
      </trkpt>
      <trkpt lat="42.5723400" lon="-8.6431030">
        <ele>27.9</ele>
        <time>2021-05-22T11:36:44Z</time>
      </trkpt>
      <trkpt lat="42.5723540" lon="-8.6430990">
        <ele>27.9</ele>
        <time>2021-05-22T11:36:45Z</time>
      </trkpt>
      <trkpt lat="42.5723690" lon="-8.6431020">
        <ele>27.9</ele>
        <time>2021-05-22T11:36:46Z</time>
      </trkpt>
      <trkpt lat="42.5723910" lon="-8.6431050">
        <ele>27.9</ele>
        <time>2021-05-22T11:36:47Z</time>
      </trkpt>
      <trkpt lat="42.5724050" lon="-8.6431080">
        <ele>27.8</ele>
        <time>2021-05-22T11:36:48Z</time>
      </trkpt>
      <trkpt lat="42.5724220" lon="-8.6431010">
        <ele>27.8</ele>
        <time>2021-05-22T11:36:49Z</time>
      </trkpt>
      <trkpt lat="42.5724340" lon="-8.6431030">
        <ele>27.8</ele>
        <time>2021-05-22T11:36:50Z</time>
      </trkpt>
      <trkpt lat="42.5724480" lon="-8.6430950">
        <ele>27.8</ele>
        <time>2021-05-22T11:36:51Z</time>
      </trkpt>
      <trkpt lat="42.5724570" lon="-8.6430930">
        <ele>27.8</ele>
        <time>2021-05-22T11:36:52Z</time>
      </trkpt>
      <trkpt lat="42.5724650" lon="-8.6430920">
        <ele>27.8</ele>
        <time>2021-05-22T11:36:53Z</time>
      </trkpt>
      <trkpt lat="42.5724730" lon="-8.6430900">
        <ele>27.7</ele>
        <time>2021-05-22T11:36:54Z</time>
      </trkpt>
      <trkpt lat="42.5724830" lon="-8.6430840">
        <ele>27.7</ele>
        <time>2021-05-22T11:36:55Z</time>
      </trkpt>
      <trkpt lat="42.5724940" lon="-8.6430770">
        <ele>27.7</ele>
        <time>2021-05-22T11:36:56Z</time>
      </trkpt>
      <trkpt lat="42.5725060" lon="-8.6430740">
        <ele>27.7</ele>
        <time>2021-05-22T11:36:57Z</time>
      </trkpt>
      <trkpt lat="42.5725180" lon="-8.6430750">
        <ele>27.7</ele>
        <time>2021-05-22T11:36:58Z</time>
      </trkpt>
      <trkpt lat="42.5725340" lon="-8.6430780">
        <ele>27.6</ele>
        <time>2021-05-22T11:36:59Z</time>
      </trkpt>
      <trkpt lat="42.5725500" lon="-8.6430780">
        <ele>27.6</ele>
        <time>2021-05-22T11:37:00Z</time>
      </trkpt>
      <trkpt lat="42.5725630" lon="-8.6430770">
        <ele>27.6</ele>
        <time>2021-05-22T11:37:01Z</time>
      </trkpt>
      <trkpt lat="42.5725890" lon="-8.6430780">
        <ele>27.5</ele>
        <time>2021-05-22T11:37:02Z</time>
      </trkpt>
      <trkpt lat="42.5725940" lon="-8.6430830">
        <ele>27.5</ele>
        <time>2021-05-22T11:37:03Z</time>
      </trkpt>
      <trkpt lat="42.5726000" lon="-8.6430870">
        <ele>27.5</ele>
        <time>2021-05-22T11:37:04Z</time>
      </trkpt>
      <trkpt lat="42.5726130" lon="-8.6430890">
        <ele>27.5</ele>
        <time>2021-05-22T11:37:05Z</time>
      </trkpt>
      <trkpt lat="42.5726280" lon="-8.6430900">
        <ele>27.5</ele>
        <time>2021-05-22T11:37:06Z</time>
      </trkpt>
      <trkpt lat="42.5726420" lon="-8.6430900">
        <ele>27.4</ele>
        <time>2021-05-22T11:37:07Z</time>
      </trkpt>
      <trkpt lat="42.5726560" lon="-8.6430870">
        <ele>27.4</ele>
        <time>2021-05-22T11:37:08Z</time>
      </trkpt>
      <trkpt lat="42.5726740" lon="-8.6430890">
        <ele>27.4</ele>
        <time>2021-05-22T11:37:09Z</time>
      </trkpt>
      <trkpt lat="42.5726830" lon="-8.6430920">
        <ele>27.4</ele>
        <time>2021-05-22T11:37:10Z</time>
      </trkpt>
      <trkpt lat="42.5726980" lon="-8.6430930">
        <ele>27.3</ele>
        <time>2021-05-22T11:37:11Z</time>
      </trkpt>
      <trkpt lat="42.5727120" lon="-8.6430940">
        <ele>27.3</ele>
        <time>2021-05-22T11:37:12Z</time>
      </trkpt>
      <trkpt lat="42.5727270" lon="-8.6430930">
        <ele>27.3</ele>
        <time>2021-05-22T11:37:13Z</time>
      </trkpt>
      <trkpt lat="42.5727410" lon="-8.6431000">
        <ele>27.3</ele>
        <time>2021-05-22T11:37:14Z</time>
      </trkpt>
      <trkpt lat="42.5727630" lon="-8.6431030">
        <ele>27.2</ele>
        <time>2021-05-22T11:37:15Z</time>
      </trkpt>
      <trkpt lat="42.5727720" lon="-8.6431040">
        <ele>27.2</ele>
        <time>2021-05-22T11:37:16Z</time>
      </trkpt>
      <trkpt lat="42.5727820" lon="-8.6431060">
        <ele>27.2</ele>
        <time>2021-05-22T11:37:17Z</time>
      </trkpt>
      <trkpt lat="42.5727920" lon="-8.6431080">
        <ele>27.2</ele>
        <time>2021-05-22T11:37:18Z</time>
      </trkpt>
      <trkpt lat="42.5728040" lon="-8.6431090">
        <ele>27.2</ele>
        <time>2021-05-22T11:37:19Z</time>
      </trkpt>
      <trkpt lat="42.5728150" lon="-8.6431100">
        <ele>27.2</ele>
        <time>2021-05-22T11:37:20Z</time>
      </trkpt>
      <trkpt lat="42.5728380" lon="-8.6431150">
        <ele>27.2</ele>
        <time>2021-05-22T11:37:21Z</time>
      </trkpt>
      <trkpt lat="42.5728450" lon="-8.6431160">
        <ele>27.2</ele>
        <time>2021-05-22T11:37:22Z</time>
      </trkpt>
      <trkpt lat="42.5728530" lon="-8.6431180">
        <ele>27.1</ele>
        <time>2021-05-22T11:37:23Z</time>
      </trkpt>
      <trkpt lat="42.5728670" lon="-8.6431210">
        <ele>27.1</ele>
        <time>2021-05-22T11:37:24Z</time>
      </trkpt>
      <trkpt lat="42.5728790" lon="-8.6431250">
        <ele>27.1</ele>
        <time>2021-05-22T11:37:25Z</time>
      </trkpt>
      <trkpt lat="42.5728870" lon="-8.6431300">
        <ele>27.1</ele>
        <time>2021-05-22T11:37:26Z</time>
      </trkpt>
      <trkpt lat="42.5729070" lon="-8.6431340">
        <ele>27.1</ele>
        <time>2021-05-22T11:37:27Z</time>
      </trkpt>
      <trkpt lat="42.5729170" lon="-8.6431340">
        <ele>27.1</ele>
        <time>2021-05-22T11:37:28Z</time>
      </trkpt>
      <trkpt lat="42.5729260" lon="-8.6431350">
        <ele>27.1</ele>
        <time>2021-05-22T11:37:29Z</time>
      </trkpt>
      <trkpt lat="42.5729380" lon="-8.6431360">
        <ele>27.1</ele>
        <time>2021-05-22T11:37:30Z</time>
      </trkpt>
      <trkpt lat="42.5729550" lon="-8.6431330">
        <ele>27.1</ele>
        <time>2021-05-22T11:37:31Z</time>
      </trkpt>
      <trkpt lat="42.5729660" lon="-8.6431330">
        <ele>27.0</ele>
        <time>2021-05-22T11:37:32Z</time>
      </trkpt>
      <trkpt lat="42.5729790" lon="-8.6431370">
        <ele>27.0</ele>
        <time>2021-05-22T11:37:33Z</time>
      </trkpt>
      <trkpt lat="42.5729910" lon="-8.6431360">
        <ele>27.0</ele>
        <time>2021-05-22T11:37:34Z</time>
      </trkpt>
      <trkpt lat="42.5730110" lon="-8.6431320">
        <ele>27.0</ele>
        <time>2021-05-22T11:37:35Z</time>
      </trkpt>
      <trkpt lat="42.5730200" lon="-8.6431320">
        <ele>27.0</ele>
        <time>2021-05-22T11:37:36Z</time>
      </trkpt>
      <trkpt lat="42.5730300" lon="-8.6431330">
        <ele>27.0</ele>
        <time>2021-05-22T11:37:37Z</time>
      </trkpt>
      <trkpt lat="42.5730470" lon="-8.6431350">
        <ele>27.0</ele>
        <time>2021-05-22T11:37:38Z</time>
      </trkpt>
      <trkpt lat="42.5730620" lon="-8.6431390">
        <ele>27.0</ele>
        <time>2021-05-22T11:37:39Z</time>
      </trkpt>
      <trkpt lat="42.5730690" lon="-8.6431390">
        <ele>26.9</ele>
        <time>2021-05-22T11:37:40Z</time>
      </trkpt>
      <trkpt lat="42.5730820" lon="-8.6431440">
        <ele>26.9</ele>
        <time>2021-05-22T11:37:41Z</time>
      </trkpt>
      <trkpt lat="42.5730930" lon="-8.6431470">
        <ele>26.9</ele>
        <time>2021-05-22T11:37:42Z</time>
      </trkpt>
      <trkpt lat="42.5731010" lon="-8.6431450">
        <ele>26.9</ele>
        <time>2021-05-22T11:37:43Z</time>
      </trkpt>
      <trkpt lat="42.5731130" lon="-8.6431500">
        <ele>26.9</ele>
        <time>2021-05-22T11:37:44Z</time>
      </trkpt>
      <trkpt lat="42.5731270" lon="-8.6431520">
        <ele>26.9</ele>
        <time>2021-05-22T11:37:45Z</time>
      </trkpt>
      <trkpt lat="42.5731440" lon="-8.6431550">
        <ele>26.9</ele>
        <time>2021-05-22T11:37:46Z</time>
      </trkpt>
      <trkpt lat="42.5731630" lon="-8.6431600">
        <ele>26.9</ele>
        <time>2021-05-22T11:37:47Z</time>
      </trkpt>
      <trkpt lat="42.5731830" lon="-8.6431640">
        <ele>26.8</ele>
        <time>2021-05-22T11:37:48Z</time>
      </trkpt>
      <trkpt lat="42.5731910" lon="-8.6431660">
        <ele>26.8</ele>
        <time>2021-05-22T11:37:49Z</time>
      </trkpt>
      <trkpt lat="42.5732000" lon="-8.6431680">
        <ele>26.8</ele>
        <time>2021-05-22T11:37:50Z</time>
      </trkpt>
      <trkpt lat="42.5732070" lon="-8.6431710">
        <ele>26.8</ele>
        <time>2021-05-22T11:37:51Z</time>
      </trkpt>
      <trkpt lat="42.5732230" lon="-8.6431730">
        <ele>26.8</ele>
        <time>2021-05-22T11:37:52Z</time>
      </trkpt>
      <trkpt lat="42.5732340" lon="-8.6431760">
        <ele>26.8</ele>
        <time>2021-05-22T11:37:53Z</time>
      </trkpt>
      <trkpt lat="42.5732430" lon="-8.6431820">
        <ele>26.8</ele>
        <time>2021-05-22T11:37:54Z</time>
      </trkpt>
      <trkpt lat="42.5732550" lon="-8.6431890">
        <ele>26.8</ele>
        <time>2021-05-22T11:37:55Z</time>
      </trkpt>
      <trkpt lat="42.5732670" lon="-8.6431940">
        <ele>26.8</ele>
        <time>2021-05-22T11:37:56Z</time>
      </trkpt>
      <trkpt lat="42.5732770" lon="-8.6431960">
        <ele>26.7</ele>
        <time>2021-05-22T11:37:57Z</time>
      </trkpt>
      <trkpt lat="42.5732910" lon="-8.6431960">
        <ele>26.7</ele>
        <time>2021-05-22T11:37:58Z</time>
      </trkpt>
      <trkpt lat="42.5733040" lon="-8.6431970">
        <ele>26.7</ele>
        <time>2021-05-22T11:38:00Z</time>
      </trkpt>
      <trkpt lat="42.5733170" lon="-8.6431990">
        <ele>26.7</ele>
        <time>2021-05-22T11:38:01Z</time>
      </trkpt>
      <trkpt lat="42.5733300" lon="-8.6432020">
        <ele>26.7</ele>
        <time>2021-05-22T11:38:02Z</time>
      </trkpt>
      <trkpt lat="42.5733500" lon="-8.6432120">
        <ele>26.7</ele>
        <time>2021-05-22T11:38:03Z</time>
      </trkpt>
      <trkpt lat="42.5733600" lon="-8.6432190">
        <ele>26.7</ele>
        <time>2021-05-22T11:38:04Z</time>
      </trkpt>
      <trkpt lat="42.5733700" lon="-8.6432200">
        <ele>26.7</ele>
        <time>2021-05-22T11:38:05Z</time>
      </trkpt>
      <trkpt lat="42.5733800" lon="-8.6432240">
        <ele>26.7</ele>
        <time>2021-05-22T11:38:06Z</time>
      </trkpt>
      <trkpt lat="42.5733870" lon="-8.6432250">
        <ele>26.7</ele>
        <time>2021-05-22T11:38:07Z</time>
      </trkpt>
      <trkpt lat="42.5734050" lon="-8.6432300">
        <ele>26.7</ele>
        <time>2021-05-22T11:38:08Z</time>
      </trkpt>
      <trkpt lat="42.5734170" lon="-8.6432300">
        <ele>26.7</ele>
        <time>2021-05-22T11:38:09Z</time>
      </trkpt>
      <trkpt lat="42.5734290" lon="-8.6432340">
        <ele>26.7</ele>
        <time>2021-05-22T11:38:10Z</time>
      </trkpt>
      <trkpt lat="42.5734400" lon="-8.6432370">
        <ele>26.7</ele>
        <time>2021-05-22T11:38:11Z</time>
      </trkpt>
      <trkpt lat="42.5734520" lon="-8.6432410">
        <ele>26.7</ele>
        <time>2021-05-22T11:38:12Z</time>
      </trkpt>
      <trkpt lat="42.5734570" lon="-8.6432410">
        <ele>26.8</ele>
        <time>2021-05-22T11:38:13Z</time>
      </trkpt>
      <trkpt lat="42.5734710" lon="-8.6432410">
        <ele>26.8</ele>
        <time>2021-05-22T11:38:14Z</time>
      </trkpt>
      <trkpt lat="42.5734800" lon="-8.6432420">
        <ele>26.8</ele>
        <time>2021-05-22T11:38:15Z</time>
      </trkpt>
      <trkpt lat="42.5734870" lon="-8.6432430">
        <ele>26.8</ele>
        <time>2021-05-22T11:38:16Z</time>
      </trkpt>
      <trkpt lat="42.5734980" lon="-8.6432460">
        <ele>26.8</ele>
        <time>2021-05-22T11:38:17Z</time>
      </trkpt>
      <trkpt lat="42.5735060" lon="-8.6432470">
        <ele>26.8</ele>
        <time>2021-05-22T11:38:18Z</time>
      </trkpt>
      <trkpt lat="42.5735180" lon="-8.6432470">
        <ele>26.8</ele>
        <time>2021-05-22T11:38:19Z</time>
      </trkpt>
      <trkpt lat="42.5735250" lon="-8.6432490">
        <ele>26.8</ele>
        <time>2021-05-22T11:38:20Z</time>
      </trkpt>
      <trkpt lat="42.5735510" lon="-8.6432490">
        <ele>26.8</ele>
        <time>2021-05-22T11:38:21Z</time>
      </trkpt>
      <trkpt lat="42.5735610" lon="-8.6432490">
        <ele>26.8</ele>
        <time>2021-05-22T11:38:22Z</time>
      </trkpt>
      <trkpt lat="42.5735910" lon="-8.6432480">
        <ele>26.8</ele>
        <time>2021-05-22T11:38:23Z</time>
      </trkpt>
      <trkpt lat="42.5736030" lon="-8.6432460">
        <ele>26.8</ele>
        <time>2021-05-22T11:38:24Z</time>
      </trkpt>
      <trkpt lat="42.5736310" lon="-8.6432420">
        <ele>26.8</ele>
        <time>2021-05-22T11:38:25Z</time>
      </trkpt>
      <trkpt lat="42.5736360" lon="-8.6432390">
        <ele>26.8</ele>
        <time>2021-05-22T11:38:26Z</time>
      </trkpt>
      <trkpt lat="42.5736410" lon="-8.6432350">
        <ele>26.8</ele>
        <time>2021-05-22T11:38:27Z</time>
      </trkpt>
      <trkpt lat="42.5736620" lon="-8.6432230">
        <ele>26.8</ele>
        <time>2021-05-22T11:38:28Z</time>
      </trkpt>
      <trkpt lat="42.5736710" lon="-8.6432190">
        <ele>26.8</ele>
        <time>2021-05-22T11:38:29Z</time>
      </trkpt>
      <trkpt lat="42.5736800" lon="-8.6432160">
        <ele>26.8</ele>
        <time>2021-05-22T11:38:30Z</time>
      </trkpt>
      <trkpt lat="42.5737040" lon="-8.6432200">
        <ele>26.7</ele>
        <time>2021-05-22T11:38:31Z</time>
      </trkpt>
      <trkpt lat="42.5737150" lon="-8.6432200">
        <ele>26.7</ele>
        <time>2021-05-22T11:38:32Z</time>
      </trkpt>
      <trkpt lat="42.5737260" lon="-8.6432210">
        <ele>26.7</ele>
        <time>2021-05-22T11:38:33Z</time>
      </trkpt>
      <trkpt lat="42.5737470" lon="-8.6432240">
        <ele>26.7</ele>
        <time>2021-05-22T11:38:34Z</time>
      </trkpt>
      <trkpt lat="42.5737600" lon="-8.6432270">
        <ele>26.7</ele>
        <time>2021-05-22T11:38:35Z</time>
      </trkpt>
      <trkpt lat="42.5737740" lon="-8.6432310">
        <ele>26.7</ele>
        <time>2021-05-22T11:38:36Z</time>
      </trkpt>
      <trkpt lat="42.5738030" lon="-8.6432400">
        <ele>26.6</ele>
        <time>2021-05-22T11:38:37Z</time>
      </trkpt>
      <trkpt lat="42.5738120" lon="-8.6432430">
        <ele>26.6</ele>
        <time>2021-05-22T11:38:38Z</time>
      </trkpt>
      <trkpt lat="42.5738220" lon="-8.6432450">
        <ele>26.6</ele>
        <time>2021-05-22T11:38:39Z</time>
      </trkpt>
      <trkpt lat="42.5738530" lon="-8.6432550">
        <ele>26.6</ele>
        <time>2021-05-22T11:38:40Z</time>
      </trkpt>
      <trkpt lat="42.5738610" lon="-8.6432590">
        <ele>26.6</ele>
        <time>2021-05-22T11:38:41Z</time>
      </trkpt>
      <trkpt lat="42.5738680" lon="-8.6432640">
        <ele>26.6</ele>
        <time>2021-05-22T11:38:42Z</time>
      </trkpt>
      <trkpt lat="42.5738940" lon="-8.6432750">
        <ele>26.5</ele>
        <time>2021-05-22T11:38:43Z</time>
      </trkpt>
      <trkpt lat="42.5739210" lon="-8.6432840">
        <ele>26.5</ele>
        <time>2021-05-22T11:38:44Z</time>
      </trkpt>
      <trkpt lat="42.5739370" lon="-8.6432860">
        <ele>26.5</ele>
        <time>2021-05-22T11:38:45Z</time>
      </trkpt>
      <trkpt lat="42.5739500" lon="-8.6432920">
        <ele>26.5</ele>
        <time>2021-05-22T11:38:46Z</time>
      </trkpt>
      <trkpt lat="42.5739640" lon="-8.6432990">
        <ele>26.5</ele>
        <time>2021-05-22T11:38:47Z</time>
      </trkpt>
      <trkpt lat="42.5739790" lon="-8.6433020">
        <ele>26.5</ele>
        <time>2021-05-22T11:38:48Z</time>
      </trkpt>
      <trkpt lat="42.5740090" lon="-8.6433210">
        <ele>26.4</ele>
        <time>2021-05-22T11:38:49Z</time>
      </trkpt>
      <trkpt lat="42.5740170" lon="-8.6433250">
        <ele>26.4</ele>
        <time>2021-05-22T11:38:50Z</time>
      </trkpt>
      <trkpt lat="42.5740310" lon="-8.6433340">
        <ele>26.4</ele>
        <time>2021-05-22T11:38:51Z</time>
      </trkpt>
      <trkpt lat="42.5740400" lon="-8.6433370">
        <ele>26.4</ele>
        <time>2021-05-22T11:38:52Z</time>
      </trkpt>
      <trkpt lat="42.5740500" lon="-8.6433450">
        <ele>26.4</ele>
        <time>2021-05-22T11:38:53Z</time>
      </trkpt>
      <trkpt lat="42.5740670" lon="-8.6433570">
        <ele>26.4</ele>
        <time>2021-05-22T11:38:54Z</time>
      </trkpt>
      <trkpt lat="42.5740740" lon="-8.6433600">
        <ele>26.4</ele>
        <time>2021-05-22T11:38:55Z</time>
      </trkpt>
      <trkpt lat="42.5740800" lon="-8.6433630">
        <ele>26.4</ele>
        <time>2021-05-22T11:38:56Z</time>
      </trkpt>
      <trkpt lat="42.5740870" lon="-8.6433660">
        <ele>26.3</ele>
        <time>2021-05-22T11:38:57Z</time>
      </trkpt>
      <trkpt lat="42.5740920" lon="-8.6433700">
        <ele>26.3</ele>
        <time>2021-05-22T11:38:58Z</time>
      </trkpt>
      <trkpt lat="42.5741060" lon="-8.6433740">
        <ele>26.3</ele>
        <time>2021-05-22T11:38:59Z</time>
      </trkpt>
      <trkpt lat="42.5741120" lon="-8.6433690">
        <ele>26.3</ele>
        <time>2021-05-22T11:39:00Z</time>
      </trkpt>
      <trkpt lat="42.5741220" lon="-8.6433750">
        <ele>26.3</ele>
        <time>2021-05-22T11:39:01Z</time>
      </trkpt>
      <trkpt lat="42.5741300" lon="-8.6433810">
        <ele>26.3</ele>
        <time>2021-05-22T11:39:02Z</time>
      </trkpt>
      <trkpt lat="42.5741400" lon="-8.6433740">
        <ele>26.3</ele>
        <time>2021-05-22T11:39:03Z</time>
      </trkpt>
      <trkpt lat="42.5741550" lon="-8.6433690">
        <ele>26.3</ele>
        <time>2021-05-22T11:39:04Z</time>
      </trkpt>
      <trkpt lat="42.5741670" lon="-8.6433670">
        <ele>26.3</ele>
        <time>2021-05-22T11:39:05Z</time>
      </trkpt>
      <trkpt lat="42.5741760" lon="-8.6433700">
        <ele>26.3</ele>
        <time>2021-05-22T11:39:06Z</time>
      </trkpt>
      <trkpt lat="42.5741880" lon="-8.6433650">
        <ele>26.3</ele>
        <time>2021-05-22T11:39:07Z</time>
      </trkpt>
      <trkpt lat="42.5742040" lon="-8.6433650">
        <ele>26.3</ele>
        <time>2021-05-22T11:39:08Z</time>
      </trkpt>
      <trkpt lat="42.5742140" lon="-8.6433690">
        <ele>26.3</ele>
        <time>2021-05-22T11:39:09Z</time>
      </trkpt>
      <trkpt lat="42.5742220" lon="-8.6433760">
        <ele>26.3</ele>
        <time>2021-05-22T11:39:10Z</time>
      </trkpt>
      <trkpt lat="42.5742320" lon="-8.6433780">
        <ele>26.3</ele>
        <time>2021-05-22T11:39:11Z</time>
      </trkpt>
      <trkpt lat="42.5742450" lon="-8.6433770">
        <ele>26.3</ele>
        <time>2021-05-22T11:39:12Z</time>
      </trkpt>
      <trkpt lat="42.5742580" lon="-8.6433790">
        <ele>26.3</ele>
        <time>2021-05-22T11:39:13Z</time>
      </trkpt>
      <trkpt lat="42.5742800" lon="-8.6433890">
        <ele>26.3</ele>
        <time>2021-05-22T11:39:14Z</time>
      </trkpt>
      <trkpt lat="42.5742870" lon="-8.6433890">
        <ele>26.3</ele>
        <time>2021-05-22T11:39:15Z</time>
      </trkpt>
      <trkpt lat="42.5742950" lon="-8.6433880">
        <ele>26.3</ele>
        <time>2021-05-22T11:39:16Z</time>
      </trkpt>
      <trkpt lat="42.5743050" lon="-8.6433880">
        <ele>26.3</ele>
        <time>2021-05-22T11:39:17Z</time>
      </trkpt>
      <trkpt lat="42.5743160" lon="-8.6433870">
        <ele>26.3</ele>
        <time>2021-05-22T11:39:18Z</time>
      </trkpt>
      <trkpt lat="42.5743290" lon="-8.6433880">
        <ele>26.3</ele>
        <time>2021-05-22T11:39:19Z</time>
      </trkpt>
      <trkpt lat="42.5743420" lon="-8.6433890">
        <ele>26.4</ele>
        <time>2021-05-22T11:39:20Z</time>
      </trkpt>
      <trkpt lat="42.5743550" lon="-8.6433920">
        <ele>26.4</ele>
        <time>2021-05-22T11:39:21Z</time>
      </trkpt>
      <trkpt lat="42.5743640" lon="-8.6433900">
        <ele>26.4</ele>
        <time>2021-05-22T11:39:22Z</time>
      </trkpt>
      <trkpt lat="42.5743860" lon="-8.6433910">
        <ele>26.4</ele>
        <time>2021-05-22T11:39:23Z</time>
      </trkpt>
      <trkpt lat="42.5743960" lon="-8.6433920">
        <ele>26.4</ele>
        <time>2021-05-22T11:39:24Z</time>
      </trkpt>
      <trkpt lat="42.5744060" lon="-8.6433940">
        <ele>26.4</ele>
        <time>2021-05-22T11:39:25Z</time>
      </trkpt>
      <trkpt lat="42.5744180" lon="-8.6433920">
        <ele>26.4</ele>
        <time>2021-05-22T11:39:26Z</time>
      </trkpt>
      <trkpt lat="42.5744280" lon="-8.6433850">
        <ele>26.4</ele>
        <time>2021-05-22T11:39:27Z</time>
      </trkpt>
      <trkpt lat="42.5744380" lon="-8.6433760">
        <ele>26.4</ele>
        <time>2021-05-22T11:39:28Z</time>
      </trkpt>
      <trkpt lat="42.5744540" lon="-8.6433690">
        <ele>26.4</ele>
        <time>2021-05-22T11:39:29Z</time>
      </trkpt>
      <trkpt lat="42.5744630" lon="-8.6433510">
        <ele>26.4</ele>
        <time>2021-05-22T11:39:30Z</time>
      </trkpt>
      <trkpt lat="42.5744810" lon="-8.6433410">
        <ele>26.4</ele>
        <time>2021-05-22T11:39:31Z</time>
      </trkpt>
      <trkpt lat="42.5744940" lon="-8.6433370">
        <ele>26.4</ele>
        <time>2021-05-22T11:39:32Z</time>
      </trkpt>
      <trkpt lat="42.5745060" lon="-8.6433300">
        <ele>26.4</ele>
        <time>2021-05-22T11:39:33Z</time>
      </trkpt>
      <trkpt lat="42.5745120" lon="-8.6433230">
        <ele>26.4</ele>
        <time>2021-05-22T11:39:34Z</time>
      </trkpt>
      <trkpt lat="42.5745250" lon="-8.6433160">
        <ele>26.4</ele>
        <time>2021-05-22T11:39:35Z</time>
      </trkpt>
      <trkpt lat="42.5745410" lon="-8.6433130">
        <ele>26.4</ele>
        <time>2021-05-22T11:39:36Z</time>
      </trkpt>
      <trkpt lat="42.5745540" lon="-8.6433120">
        <ele>26.4</ele>
        <time>2021-05-22T11:39:37Z</time>
      </trkpt>
      <trkpt lat="42.5745650" lon="-8.6433100">
        <ele>26.5</ele>
        <time>2021-05-22T11:39:39Z</time>
      </trkpt>
      <trkpt lat="42.5745750" lon="-8.6433100">
        <ele>26.5</ele>
        <time>2021-05-22T11:39:40Z</time>
      </trkpt>
      <trkpt lat="42.5745860" lon="-8.6433080">
        <ele>26.5</ele>
        <time>2021-05-22T11:39:41Z</time>
      </trkpt>
      <trkpt lat="42.5745970" lon="-8.6433100">
        <ele>26.5</ele>
        <time>2021-05-22T11:39:42Z</time>
      </trkpt>
      <trkpt lat="42.5746110" lon="-8.6433090">
        <ele>26.5</ele>
        <time>2021-05-22T11:39:43Z</time>
      </trkpt>
      <trkpt lat="42.5746190" lon="-8.6433090">
        <ele>26.5</ele>
        <time>2021-05-22T11:39:44Z</time>
      </trkpt>
      <trkpt lat="42.5746290" lon="-8.6433100">
        <ele>26.5</ele>
        <time>2021-05-22T11:39:45Z</time>
      </trkpt>
      <trkpt lat="42.5746350" lon="-8.6433080">
        <ele>26.5</ele>
        <time>2021-05-22T11:39:46Z</time>
      </trkpt>
      <trkpt lat="42.5746460" lon="-8.6433050">
        <ele>26.5</ele>
        <time>2021-05-22T11:39:47Z</time>
      </trkpt>
      <trkpt lat="42.5746520" lon="-8.6433100">
        <ele>26.5</ele>
        <time>2021-05-22T11:39:48Z</time>
      </trkpt>
      <trkpt lat="42.5746670" lon="-8.6433040">
        <ele>26.5</ele>
        <time>2021-05-22T11:39:49Z</time>
      </trkpt>
      <trkpt lat="42.5746710" lon="-8.6432980">
        <ele>26.5</ele>
        <time>2021-05-22T11:39:50Z</time>
      </trkpt>
      <trkpt lat="42.5746810" lon="-8.6432970">
        <ele>26.5</ele>
        <time>2021-05-22T11:39:51Z</time>
      </trkpt>
      <trkpt lat="42.5746960" lon="-8.6432890">
        <ele>26.6</ele>
        <time>2021-05-22T11:39:52Z</time>
      </trkpt>
      <trkpt lat="42.5747090" lon="-8.6432840">
        <ele>26.6</ele>
        <time>2021-05-22T11:39:53Z</time>
      </trkpt>
      <trkpt lat="42.5747230" lon="-8.6432850">
        <ele>26.6</ele>
        <time>2021-05-22T11:39:54Z</time>
      </trkpt>
      <trkpt lat="42.5747290" lon="-8.6432770">
        <ele>26.6</ele>
        <time>2021-05-22T11:39:55Z</time>
      </trkpt>
      <trkpt lat="42.5747380" lon="-8.6432770">
        <ele>26.6</ele>
        <time>2021-05-22T11:39:56Z</time>
      </trkpt>
      <trkpt lat="42.5747550" lon="-8.6432720">
        <ele>26.6</ele>
        <time>2021-05-22T11:39:57Z</time>
      </trkpt>
      <trkpt lat="42.5747660" lon="-8.6432730">
        <ele>26.6</ele>
        <time>2021-05-22T11:39:58Z</time>
      </trkpt>
      <trkpt lat="42.5747770" lon="-8.6432750">
        <ele>26.6</ele>
        <time>2021-05-22T11:39:59Z</time>
      </trkpt>
      <trkpt lat="42.5748030" lon="-8.6432740">
        <ele>26.6</ele>
        <time>2021-05-22T11:40:00Z</time>
      </trkpt>
      <trkpt lat="42.5748110" lon="-8.6432750">
        <ele>26.6</ele>
        <time>2021-05-22T11:40:01Z</time>
      </trkpt>
      <trkpt lat="42.5748180" lon="-8.6432750">
        <ele>26.6</ele>
        <time>2021-05-22T11:40:02Z</time>
      </trkpt>
      <trkpt lat="42.5748330" lon="-8.6432700">
        <ele>26.7</ele>
        <time>2021-05-22T11:40:03Z</time>
      </trkpt>
      <trkpt lat="42.5748510" lon="-8.6432650">
        <ele>26.7</ele>
        <time>2021-05-22T11:40:04Z</time>
      </trkpt>
      <trkpt lat="42.5748650" lon="-8.6432620">
        <ele>26.7</ele>
        <time>2021-05-22T11:40:05Z</time>
      </trkpt>
      <trkpt lat="42.5748790" lon="-8.6432580">
        <ele>26.7</ele>
        <time>2021-05-22T11:40:06Z</time>
      </trkpt>
      <trkpt lat="42.5748960" lon="-8.6432580">
        <ele>26.7</ele>
        <time>2021-05-22T11:40:07Z</time>
      </trkpt>
      <trkpt lat="42.5749080" lon="-8.6432560">
        <ele>26.7</ele>
        <time>2021-05-22T11:40:08Z</time>
      </trkpt>
      <trkpt lat="42.5749380" lon="-8.6432530">
        <ele>26.7</ele>
        <time>2021-05-22T11:40:09Z</time>
      </trkpt>
      <trkpt lat="42.5749450" lon="-8.6432530">
        <ele>26.7</ele>
        <time>2021-05-22T11:40:10Z</time>
      </trkpt>
      <trkpt lat="42.5749650" lon="-8.6432520">
        <ele>26.8</ele>
        <time>2021-05-22T11:40:11Z</time>
      </trkpt>
      <trkpt lat="42.5749730" lon="-8.6432500">
        <ele>26.8</ele>
        <time>2021-05-22T11:40:12Z</time>
      </trkpt>
      <trkpt lat="42.5749810" lon="-8.6432490">
        <ele>26.8</ele>
        <time>2021-05-22T11:40:13Z</time>
      </trkpt>
      <trkpt lat="42.5749910" lon="-8.6432460">
        <ele>26.8</ele>
        <time>2021-05-22T11:40:14Z</time>
      </trkpt>
      <trkpt lat="42.5750070" lon="-8.6432390">
        <ele>26.8</ele>
        <time>2021-05-22T11:40:15Z</time>
      </trkpt>
      <trkpt lat="42.5750280" lon="-8.6432420">
        <ele>26.8</ele>
        <time>2021-05-22T11:40:16Z</time>
      </trkpt>
      <trkpt lat="42.5750360" lon="-8.6432410">
        <ele>26.8</ele>
        <time>2021-05-22T11:40:17Z</time>
      </trkpt>
      <trkpt lat="42.5750450" lon="-8.6432400">
        <ele>26.8</ele>
        <time>2021-05-22T11:40:18Z</time>
      </trkpt>
      <trkpt lat="42.5750530" lon="-8.6432330">
        <ele>26.8</ele>
        <time>2021-05-22T11:40:19Z</time>
      </trkpt>
      <trkpt lat="42.5750640" lon="-8.6432370">
        <ele>26.8</ele>
        <time>2021-05-22T11:40:20Z</time>
      </trkpt>
      <trkpt lat="42.5750800" lon="-8.6432390">
        <ele>26.8</ele>
        <time>2021-05-22T11:40:21Z</time>
      </trkpt>
      <trkpt lat="42.5751020" lon="-8.6432410">
        <ele>26.8</ele>
        <time>2021-05-22T11:40:22Z</time>
      </trkpt>
      <trkpt lat="42.5751110" lon="-8.6432410">
        <ele>26.9</ele>
        <time>2021-05-22T11:40:23Z</time>
      </trkpt>
      <trkpt lat="42.5751190" lon="-8.6432410">
        <ele>26.9</ele>
        <time>2021-05-22T11:40:24Z</time>
      </trkpt>
      <trkpt lat="42.5751270" lon="-8.6432410">
        <ele>26.9</ele>
        <time>2021-05-22T11:40:25Z</time>
      </trkpt>
      <trkpt lat="42.5751350" lon="-8.6432390">
        <ele>26.9</ele>
        <time>2021-05-22T11:40:26Z</time>
      </trkpt>
      <trkpt lat="42.5751380" lon="-8.6432530">
        <ele>26.9</ele>
        <time>2021-05-22T11:40:27Z</time>
      </trkpt>
      <trkpt lat="42.5751530" lon="-8.6432480">
        <ele>26.9</ele>
        <time>2021-05-22T11:40:28Z</time>
      </trkpt>
      <trkpt lat="42.5751810" lon="-8.6432400">
        <ele>26.9</ele>
        <time>2021-05-22T11:40:29Z</time>
      </trkpt>
      <trkpt lat="42.5751900" lon="-8.6432400">
        <ele>26.9</ele>
        <time>2021-05-22T11:40:30Z</time>
      </trkpt>
      <trkpt lat="42.5751990" lon="-8.6432400">
        <ele>26.9</ele>
        <time>2021-05-22T11:40:31Z</time>
      </trkpt>
      <trkpt lat="42.5752090" lon="-8.6432380">
        <ele>26.9</ele>
        <time>2021-05-22T11:40:32Z</time>
      </trkpt>
      <trkpt lat="42.5752270" lon="-8.6432350">
        <ele>26.9</ele>
        <time>2021-05-22T11:40:33Z</time>
      </trkpt>
      <trkpt lat="42.5752420" lon="-8.6432310">
        <ele>26.9</ele>
        <time>2021-05-22T11:40:34Z</time>
      </trkpt>
      <trkpt lat="42.5752550" lon="-8.6432220">
        <ele>26.9</ele>
        <time>2021-05-22T11:40:35Z</time>
      </trkpt>
      <trkpt lat="42.5752680" lon="-8.6432140">
        <ele>26.9</ele>
        <time>2021-05-22T11:40:36Z</time>
      </trkpt>
      <trkpt lat="42.5752800" lon="-8.6432030">
        <ele>26.9</ele>
        <time>2021-05-22T11:40:37Z</time>
      </trkpt>
      <trkpt lat="42.5752960" lon="-8.6431960">
        <ele>26.9</ele>
        <time>2021-05-22T11:40:38Z</time>
      </trkpt>
      <trkpt lat="42.5753050" lon="-8.6431840">
        <ele>26.9</ele>
        <time>2021-05-22T11:40:39Z</time>
      </trkpt>
      <trkpt lat="42.5753160" lon="-8.6431720">
        <ele>26.9</ele>
        <time>2021-05-22T11:40:40Z</time>
      </trkpt>
      <trkpt lat="42.5753310" lon="-8.6431590">
        <ele>26.9</ele>
        <time>2021-05-22T11:40:41Z</time>
      </trkpt>
      <trkpt lat="42.5753220" lon="-8.6431510">
        <ele>26.9</ele>
        <time>2021-05-22T11:40:42Z</time>
      </trkpt>
      <trkpt lat="42.5753330" lon="-8.6431420">
        <ele>26.9</ele>
        <time>2021-05-22T11:40:43Z</time>
      </trkpt>
      <trkpt lat="42.5753500" lon="-8.6431360">
        <ele>26.9</ele>
        <time>2021-05-22T11:40:44Z</time>
      </trkpt>
      <trkpt lat="42.5753590" lon="-8.6431340">
        <ele>26.9</ele>
        <time>2021-05-22T11:40:45Z</time>
      </trkpt>
      <trkpt lat="42.5753780" lon="-8.6431290">
        <ele>26.9</ele>
        <time>2021-05-22T11:40:46Z</time>
      </trkpt>
      <trkpt lat="42.5753830" lon="-8.6431300">
        <ele>26.9</ele>
        <time>2021-05-22T11:40:47Z</time>
      </trkpt>
      <trkpt lat="42.5753950" lon="-8.6431290">
        <ele>26.9</ele>
        <time>2021-05-22T11:40:48Z</time>
      </trkpt>
      <trkpt lat="42.5754070" lon="-8.6431310">
        <ele>26.9</ele>
        <time>2021-05-22T11:40:49Z</time>
      </trkpt>
      <trkpt lat="42.5754270" lon="-8.6431320">
        <ele>26.9</ele>
        <time>2021-05-22T11:40:50Z</time>
      </trkpt>
      <trkpt lat="42.5754470" lon="-8.6431300">
        <ele>26.9</ele>
        <time>2021-05-22T11:40:51Z</time>
      </trkpt>
      <trkpt lat="42.5754630" lon="-8.6431310">
        <ele>26.9</ele>
        <time>2021-05-22T11:40:52Z</time>
      </trkpt>
      <trkpt lat="42.5754790" lon="-8.6431350">
        <ele>26.9</ele>
        <time>2021-05-22T11:40:53Z</time>
      </trkpt>
      <trkpt lat="42.5754950" lon="-8.6431360">
        <ele>26.9</ele>
        <time>2021-05-22T11:40:54Z</time>
      </trkpt>
      <trkpt lat="42.5755080" lon="-8.6431410">
        <ele>26.9</ele>
        <time>2021-05-22T11:40:55Z</time>
      </trkpt>
      <trkpt lat="42.5755250" lon="-8.6431460">
        <ele>26.9</ele>
        <time>2021-05-22T11:40:56Z</time>
      </trkpt>
      <trkpt lat="42.5755450" lon="-8.6431490">
        <ele>26.9</ele>
        <time>2021-05-22T11:40:57Z</time>
      </trkpt>
      <trkpt lat="42.5755540" lon="-8.6431510">
        <ele>26.9</ele>
        <time>2021-05-22T11:40:58Z</time>
      </trkpt>
      <trkpt lat="42.5755640" lon="-8.6431520">
        <ele>26.9</ele>
        <time>2021-05-22T11:40:59Z</time>
      </trkpt>
      <trkpt lat="42.5755870" lon="-8.6431540">
        <ele>26.9</ele>
        <time>2021-05-22T11:41:00Z</time>
      </trkpt>
      <trkpt lat="42.5755960" lon="-8.6431550">
        <ele>26.9</ele>
        <time>2021-05-22T11:41:01Z</time>
      </trkpt>
      <trkpt lat="42.5756060" lon="-8.6431570">
        <ele>26.9</ele>
        <time>2021-05-22T11:41:02Z</time>
      </trkpt>
      <trkpt lat="42.5756190" lon="-8.6431590">
        <ele>26.9</ele>
        <time>2021-05-22T11:41:03Z</time>
      </trkpt>
      <trkpt lat="42.5756370" lon="-8.6431580">
        <ele>26.9</ele>
        <time>2021-05-22T11:41:04Z</time>
      </trkpt>
      <trkpt lat="42.5756480" lon="-8.6431570">
        <ele>26.9</ele>
        <time>2021-05-22T11:41:05Z</time>
      </trkpt>
      <trkpt lat="42.5756690" lon="-8.6431560">
        <ele>26.9</ele>
        <time>2021-05-22T11:41:06Z</time>
      </trkpt>
      <trkpt lat="42.5756770" lon="-8.6431590">
        <ele>26.9</ele>
        <time>2021-05-22T11:41:07Z</time>
      </trkpt>
      <trkpt lat="42.5756900" lon="-8.6431600">
        <ele>26.9</ele>
        <time>2021-05-22T11:41:08Z</time>
      </trkpt>
      <trkpt lat="42.5757050" lon="-8.6431640">
        <ele>26.9</ele>
        <time>2021-05-22T11:41:09Z</time>
      </trkpt>
      <trkpt lat="42.5757170" lon="-8.6431660">
        <ele>26.9</ele>
        <time>2021-05-22T11:41:10Z</time>
      </trkpt>
      <trkpt lat="42.5757310" lon="-8.6431670">
        <ele>26.9</ele>
        <time>2021-05-22T11:41:11Z</time>
      </trkpt>
      <trkpt lat="42.5757370" lon="-8.6431680">
        <ele>26.9</ele>
        <time>2021-05-22T11:41:12Z</time>
      </trkpt>
      <trkpt lat="42.5757570" lon="-8.6431720">
        <ele>26.9</ele>
        <time>2021-05-22T11:41:13Z</time>
      </trkpt>
      <trkpt lat="42.5757660" lon="-8.6431780">
        <ele>26.9</ele>
        <time>2021-05-22T11:41:14Z</time>
      </trkpt>
      <trkpt lat="42.5757790" lon="-8.6431810">
        <ele>26.9</ele>
        <time>2021-05-22T11:41:15Z</time>
      </trkpt>
      <trkpt lat="42.5757910" lon="-8.6431870">
        <ele>26.9</ele>
        <time>2021-05-22T11:41:16Z</time>
      </trkpt>
      <trkpt lat="42.5757970" lon="-8.6431860">
        <ele>26.9</ele>
        <time>2021-05-22T11:41:17Z</time>
      </trkpt>
      <trkpt lat="42.5758150" lon="-8.6431920">
        <ele>26.9</ele>
        <time>2021-05-22T11:41:18Z</time>
      </trkpt>
      <trkpt lat="42.5758310" lon="-8.6431940">
        <ele>26.9</ele>
        <time>2021-05-22T11:41:19Z</time>
      </trkpt>
      <trkpt lat="42.5758460" lon="-8.6431990">
        <ele>26.9</ele>
        <time>2021-05-22T11:41:20Z</time>
      </trkpt>
      <trkpt lat="42.5758620" lon="-8.6432040">
        <ele>26.9</ele>
        <time>2021-05-22T11:41:21Z</time>
      </trkpt>
      <trkpt lat="42.5758850" lon="-8.6432130">
        <ele>26.9</ele>
        <time>2021-05-22T11:41:22Z</time>
      </trkpt>
      <trkpt lat="42.5758940" lon="-8.6432170">
        <ele>26.9</ele>
        <time>2021-05-22T11:41:23Z</time>
      </trkpt>
      <trkpt lat="42.5759020" lon="-8.6432200">
        <ele>26.9</ele>
        <time>2021-05-22T11:41:24Z</time>
      </trkpt>
      <trkpt lat="42.5759160" lon="-8.6432240">
        <ele>26.9</ele>
        <time>2021-05-22T11:41:25Z</time>
      </trkpt>
      <trkpt lat="42.5759320" lon="-8.6432280">
        <ele>26.9</ele>
        <time>2021-05-22T11:41:26Z</time>
      </trkpt>
      <trkpt lat="42.5759430" lon="-8.6432300">
        <ele>26.9</ele>
        <time>2021-05-22T11:41:27Z</time>
      </trkpt>
      <trkpt lat="42.5759540" lon="-8.6432280">
        <ele>26.9</ele>
        <time>2021-05-22T11:41:28Z</time>
      </trkpt>
      <trkpt lat="42.5759600" lon="-8.6432280">
        <ele>26.9</ele>
        <time>2021-05-22T11:41:29Z</time>
      </trkpt>
      <trkpt lat="42.5759720" lon="-8.6432330">
        <ele>27.0</ele>
        <time>2021-05-22T11:41:30Z</time>
      </trkpt>
      <trkpt lat="42.5759820" lon="-8.6432380">
        <ele>27.0</ele>
        <time>2021-05-22T11:41:31Z</time>
      </trkpt>
      <trkpt lat="42.5759940" lon="-8.6432360">
        <ele>27.0</ele>
        <time>2021-05-22T11:41:32Z</time>
      </trkpt>
      <trkpt lat="42.5760150" lon="-8.6432380">
        <ele>27.0</ele>
        <time>2021-05-22T11:41:33Z</time>
      </trkpt>
      <trkpt lat="42.5760260" lon="-8.6432410">
        <ele>27.0</ele>
        <time>2021-05-22T11:41:34Z</time>
      </trkpt>
      <trkpt lat="42.5760370" lon="-8.6432430">
        <ele>27.0</ele>
        <time>2021-05-22T11:41:35Z</time>
      </trkpt>
      <trkpt lat="42.5760460" lon="-8.6432370">
        <ele>27.0</ele>
        <time>2021-05-22T11:41:36Z</time>
      </trkpt>
      <trkpt lat="42.5760550" lon="-8.6432340">
        <ele>27.0</ele>
        <time>2021-05-22T11:41:37Z</time>
      </trkpt>
      <trkpt lat="42.5760680" lon="-8.6432360">
        <ele>27.0</ele>
        <time>2021-05-22T11:41:38Z</time>
      </trkpt>
      <trkpt lat="42.5760750" lon="-8.6432320">
        <ele>27.0</ele>
        <time>2021-05-22T11:41:39Z</time>
      </trkpt>
      <trkpt lat="42.5760850" lon="-8.6432380">
        <ele>27.1</ele>
        <time>2021-05-22T11:41:40Z</time>
      </trkpt>
      <trkpt lat="42.5760970" lon="-8.6432420">
        <ele>27.1</ele>
        <time>2021-05-22T11:41:42Z</time>
      </trkpt>
      <trkpt lat="42.5761110" lon="-8.6432390">
        <ele>27.1</ele>
        <time>2021-05-22T11:41:43Z</time>
      </trkpt>
      <trkpt lat="42.5761230" lon="-8.6432420">
        <ele>27.1</ele>
        <time>2021-05-22T11:41:44Z</time>
      </trkpt>
      <trkpt lat="42.5761330" lon="-8.6432440">
        <ele>27.1</ele>
        <time>2021-05-22T11:41:45Z</time>
      </trkpt>
      <trkpt lat="42.5761540" lon="-8.6432420">
        <ele>27.1</ele>
        <time>2021-05-22T11:41:46Z</time>
      </trkpt>
      <trkpt lat="42.5761630" lon="-8.6432390">
        <ele>27.1</ele>
        <time>2021-05-22T11:41:47Z</time>
      </trkpt>
      <trkpt lat="42.5761710" lon="-8.6432370">
        <ele>27.2</ele>
        <time>2021-05-22T11:41:48Z</time>
      </trkpt>
      <trkpt lat="42.5761910" lon="-8.6432410">
        <ele>27.2</ele>
        <time>2021-05-22T11:41:49Z</time>
      </trkpt>
      <trkpt lat="42.5762020" lon="-8.6432360">
        <ele>27.2</ele>
        <time>2021-05-22T11:41:50Z</time>
      </trkpt>
      <trkpt lat="42.5762240" lon="-8.6432320">
        <ele>27.2</ele>
        <time>2021-05-22T11:41:51Z</time>
      </trkpt>
      <trkpt lat="42.5762330" lon="-8.6432320">
        <ele>27.2</ele>
        <time>2021-05-22T11:41:52Z</time>
      </trkpt>
      <trkpt lat="42.5762420" lon="-8.6432310">
        <ele>27.2</ele>
        <time>2021-05-22T11:41:53Z</time>
      </trkpt>
      <trkpt lat="42.5762640" lon="-8.6432270">
        <ele>27.3</ele>
        <time>2021-05-22T11:41:54Z</time>
      </trkpt>
      <trkpt lat="42.5762720" lon="-8.6432260">
        <ele>27.3</ele>
        <time>2021-05-22T11:41:55Z</time>
      </trkpt>
      <trkpt lat="42.5762800" lon="-8.6432250">
        <ele>27.3</ele>
        <time>2021-05-22T11:41:56Z</time>
      </trkpt>
      <trkpt lat="42.5763000" lon="-8.6432210">
        <ele>27.3</ele>
        <time>2021-05-22T11:41:57Z</time>
      </trkpt>
      <trkpt lat="42.5763090" lon="-8.6432200">
        <ele>27.3</ele>
        <time>2021-05-22T11:41:58Z</time>
      </trkpt>
      <trkpt lat="42.5763180" lon="-8.6432200">
        <ele>27.3</ele>
        <time>2021-05-22T11:41:59Z</time>
      </trkpt>
      <trkpt lat="42.5763270" lon="-8.6432210">
        <ele>27.4</ele>
        <time>2021-05-22T11:42:00Z</time>
      </trkpt>
      <trkpt lat="42.5763380" lon="-8.6432200">
        <ele>27.4</ele>
        <time>2021-05-22T11:42:01Z</time>
      </trkpt>
      <trkpt lat="42.5763460" lon="-8.6432230">
        <ele>27.4</ele>
        <time>2021-05-22T11:42:02Z</time>
      </trkpt>
      <trkpt lat="42.5763550" lon="-8.6432260">
        <ele>27.4</ele>
        <time>2021-05-22T11:42:03Z</time>
      </trkpt>
      <trkpt lat="42.5763540" lon="-8.6432250">
        <ele>27.4</ele>
        <time>2021-05-22T11:42:04Z</time>
      </trkpt>
      <trkpt lat="42.5763630" lon="-8.6432130">
        <ele>27.4</ele>
        <time>2021-05-22T11:42:05Z</time>
      </trkpt>
      <trkpt lat="42.5763790" lon="-8.6432020">
        <ele>27.5</ele>
        <time>2021-05-22T11:42:06Z</time>
      </trkpt>
      <trkpt lat="42.5763940" lon="-8.6432030">
        <ele>27.5</ele>
        <time>2021-05-22T11:42:07Z</time>
      </trkpt>
      <trkpt lat="42.5764010" lon="-8.6432010">
        <ele>27.5</ele>
        <time>2021-05-22T11:42:08Z</time>
      </trkpt>
      <trkpt lat="42.5764090" lon="-8.6431980">
        <ele>27.5</ele>
        <time>2021-05-22T11:42:09Z</time>
      </trkpt>
      <trkpt lat="42.5764160" lon="-8.6431960">
        <ele>27.5</ele>
        <time>2021-05-22T11:42:10Z</time>
      </trkpt>
      <trkpt lat="42.5764380" lon="-8.6431970">
        <ele>27.5</ele>
        <time>2021-05-22T11:42:11Z</time>
      </trkpt>
      <trkpt lat="42.5764490" lon="-8.6431900">
        <ele>27.6</ele>
        <time>2021-05-22T11:42:12Z</time>
      </trkpt>
      <trkpt lat="42.5764660" lon="-8.6431830">
        <ele>27.6</ele>
        <time>2021-05-22T11:42:13Z</time>
      </trkpt>
      <trkpt lat="42.5764810" lon="-8.6431730">
        <ele>27.6</ele>
        <time>2021-05-22T11:42:14Z</time>
      </trkpt>
      <trkpt lat="42.5765110" lon="-8.6431660">
        <ele>27.7</ele>
        <time>2021-05-22T11:42:15Z</time>
      </trkpt>
      <trkpt lat="42.5765270" lon="-8.6431610">
        <ele>27.7</ele>
        <time>2021-05-22T11:42:16Z</time>
      </trkpt>
      <trkpt lat="42.5765380" lon="-8.6431570">
        <ele>27.7</ele>
        <time>2021-05-22T11:42:17Z</time>
      </trkpt>
      <trkpt lat="42.5765510" lon="-8.6431520">
        <ele>27.7</ele>
        <time>2021-05-22T11:42:18Z</time>
      </trkpt>
      <trkpt lat="42.5765630" lon="-8.6431490">
        <ele>27.8</ele>
        <time>2021-05-22T11:42:19Z</time>
      </trkpt>
      <trkpt lat="42.5765730" lon="-8.6431510">
        <ele>27.8</ele>
        <time>2021-05-22T11:42:20Z</time>
      </trkpt>
      <trkpt lat="42.5765880" lon="-8.6431470">
        <ele>27.8</ele>
        <time>2021-05-22T11:42:21Z</time>
      </trkpt>
      <trkpt lat="42.5766030" lon="-8.6431470">
        <ele>27.8</ele>
        <time>2021-05-22T11:42:22Z</time>
      </trkpt>
      <trkpt lat="42.5766090" lon="-8.6431430">
        <ele>27.8</ele>
        <time>2021-05-22T11:42:23Z</time>
      </trkpt>
      <trkpt lat="42.5766190" lon="-8.6431420">
        <ele>27.9</ele>
        <time>2021-05-22T11:42:24Z</time>
      </trkpt>
      <trkpt lat="42.5766300" lon="-8.6431360">
        <ele>27.9</ele>
        <time>2021-05-22T11:42:25Z</time>
      </trkpt>
      <trkpt lat="42.5766540" lon="-8.6431300">
        <ele>27.9</ele>
        <time>2021-05-22T11:42:26Z</time>
      </trkpt>
      <trkpt lat="42.5766620" lon="-8.6431270">
        <ele>27.9</ele>
        <time>2021-05-22T11:42:27Z</time>
      </trkpt>
      <trkpt lat="42.5766700" lon="-8.6431240">
        <ele>28.0</ele>
        <time>2021-05-22T11:42:28Z</time>
      </trkpt>
      <trkpt lat="42.5766840" lon="-8.6431250">
        <ele>28.0</ele>
        <time>2021-05-22T11:42:29Z</time>
      </trkpt>
      <trkpt lat="42.5766990" lon="-8.6431280">
        <ele>28.0</ele>
        <time>2021-05-22T11:42:30Z</time>
      </trkpt>
      <trkpt lat="42.5767130" lon="-8.6431280">
        <ele>28.0</ele>
        <time>2021-05-22T11:42:31Z</time>
      </trkpt>
      <trkpt lat="42.5767280" lon="-8.6431280">
        <ele>28.1</ele>
        <time>2021-05-22T11:42:32Z</time>
      </trkpt>
      <trkpt lat="42.5767470" lon="-8.6431220">
        <ele>28.1</ele>
        <time>2021-05-22T11:42:33Z</time>
      </trkpt>
      <trkpt lat="42.5767550" lon="-8.6431190">
        <ele>28.1</ele>
        <time>2021-05-22T11:42:34Z</time>
      </trkpt>
      <trkpt lat="42.5767640" lon="-8.6431170">
        <ele>28.1</ele>
        <time>2021-05-22T11:42:35Z</time>
      </trkpt>
      <trkpt lat="42.5767860" lon="-8.6431190">
        <ele>28.2</ele>
        <time>2021-05-22T11:42:36Z</time>
      </trkpt>
      <trkpt lat="42.5767940" lon="-8.6431190">
        <ele>28.2</ele>
        <time>2021-05-22T11:42:37Z</time>
      </trkpt>
      <trkpt lat="42.5768020" lon="-8.6431190">
        <ele>28.2</ele>
        <time>2021-05-22T11:42:38Z</time>
      </trkpt>
      <trkpt lat="42.5768110" lon="-8.6431180">
        <ele>28.2</ele>
        <time>2021-05-22T11:42:39Z</time>
      </trkpt>
      <trkpt lat="42.5768250" lon="-8.6431150">
        <ele>28.2</ele>
        <time>2021-05-22T11:42:40Z</time>
      </trkpt>
      <trkpt lat="42.5768330" lon="-8.6431160">
        <ele>28.3</ele>
        <time>2021-05-22T11:42:41Z</time>
      </trkpt>
      <trkpt lat="42.5768470" lon="-8.6431120">
        <ele>28.3</ele>
        <time>2021-05-22T11:42:42Z</time>
      </trkpt>
      <trkpt lat="42.5768610" lon="-8.6431070">
        <ele>28.3</ele>
        <time>2021-05-22T11:42:43Z</time>
      </trkpt>
      <trkpt lat="42.5768700" lon="-8.6431050">
        <ele>28.3</ele>
        <time>2021-05-22T11:42:44Z</time>
      </trkpt>
      <trkpt lat="42.5768830" lon="-8.6431040">
        <ele>28.3</ele>
        <time>2021-05-22T11:42:45Z</time>
      </trkpt>
      <trkpt lat="42.5768960" lon="-8.6431050">
        <ele>28.3</ele>
        <time>2021-05-22T11:42:46Z</time>
      </trkpt>
      <trkpt lat="42.5769100" lon="-8.6431080">
        <ele>28.3</ele>
        <time>2021-05-22T11:42:47Z</time>
      </trkpt>
      <trkpt lat="42.5769240" lon="-8.6431130">
        <ele>28.3</ele>
        <time>2021-05-22T11:42:48Z</time>
      </trkpt>
      <trkpt lat="42.5769360" lon="-8.6431160">
        <ele>28.3</ele>
        <time>2021-05-22T11:42:49Z</time>
      </trkpt>
      <trkpt lat="42.5769530" lon="-8.6431240">
        <ele>28.3</ele>
        <time>2021-05-22T11:42:50Z</time>
      </trkpt>
      <trkpt lat="42.5769590" lon="-8.6431290">
        <ele>28.3</ele>
        <time>2021-05-22T11:42:51Z</time>
      </trkpt>
      <trkpt lat="42.5769720" lon="-8.6431450">
        <ele>28.3</ele>
        <time>2021-05-22T11:42:52Z</time>
      </trkpt>
      <trkpt lat="42.5769830" lon="-8.6431500">
        <ele>28.3</ele>
        <time>2021-05-22T11:42:53Z</time>
      </trkpt>
      <trkpt lat="42.5769950" lon="-8.6431530">
        <ele>28.3</ele>
        <time>2021-05-22T11:42:54Z</time>
      </trkpt>
      <trkpt lat="42.5770040" lon="-8.6431560">
        <ele>28.3</ele>
        <time>2021-05-22T11:42:55Z</time>
      </trkpt>
      <trkpt lat="42.5770150" lon="-8.6431550">
        <ele>28.3</ele>
        <time>2021-05-22T11:42:56Z</time>
      </trkpt>
      <trkpt lat="42.5770280" lon="-8.6431690">
        <ele>28.3</ele>
        <time>2021-05-22T11:42:57Z</time>
      </trkpt>
      <trkpt lat="42.5770360" lon="-8.6431760">
        <ele>28.3</ele>
        <time>2021-05-22T11:42:58Z</time>
      </trkpt>
      <trkpt lat="42.5770450" lon="-8.6431840">
        <ele>28.3</ele>
        <time>2021-05-22T11:42:59Z</time>
      </trkpt>
      <trkpt lat="42.5770650" lon="-8.6431930">
        <ele>28.3</ele>
        <time>2021-05-22T11:43:00Z</time>
      </trkpt>
      <trkpt lat="42.5770730" lon="-8.6431950">
        <ele>28.3</ele>
        <time>2021-05-22T11:43:01Z</time>
      </trkpt>
      <trkpt lat="42.5770810" lon="-8.6431980">
        <ele>28.2</ele>
        <time>2021-05-22T11:43:02Z</time>
      </trkpt>
      <trkpt lat="42.5770970" lon="-8.6432030">
        <ele>28.2</ele>
        <time>2021-05-22T11:43:03Z</time>
      </trkpt>
      <trkpt lat="42.5771090" lon="-8.6432080">
        <ele>28.2</ele>
        <time>2021-05-22T11:43:04Z</time>
      </trkpt>
      <trkpt lat="42.5771170" lon="-8.6432110">
        <ele>28.2</ele>
        <time>2021-05-22T11:43:05Z</time>
      </trkpt>
      <trkpt lat="42.5771280" lon="-8.6432140">
        <ele>28.2</ele>
        <time>2021-05-22T11:43:06Z</time>
      </trkpt>
      <trkpt lat="42.5771390" lon="-8.6432190">
        <ele>28.2</ele>
        <time>2021-05-22T11:43:07Z</time>
      </trkpt>
      <trkpt lat="42.5771480" lon="-8.6432210">
        <ele>28.2</ele>
        <time>2021-05-22T11:43:08Z</time>
      </trkpt>
      <trkpt lat="42.5771610" lon="-8.6432310">
        <ele>28.2</ele>
        <time>2021-05-22T11:43:09Z</time>
      </trkpt>
      <trkpt lat="42.5771710" lon="-8.6432380">
        <ele>28.2</ele>
        <time>2021-05-22T11:43:10Z</time>
      </trkpt>
      <trkpt lat="42.5771840" lon="-8.6432420">
        <ele>28.1</ele>
        <time>2021-05-22T11:43:11Z</time>
      </trkpt>
      <trkpt lat="42.5771970" lon="-8.6432460">
        <ele>28.1</ele>
        <time>2021-05-22T11:43:12Z</time>
      </trkpt>
      <trkpt lat="42.5772080" lon="-8.6432490">
        <ele>28.1</ele>
        <time>2021-05-22T11:43:13Z</time>
      </trkpt>
      <trkpt lat="42.5772190" lon="-8.6432490">
        <ele>28.1</ele>
        <time>2021-05-22T11:43:14Z</time>
      </trkpt>
      <trkpt lat="42.5772320" lon="-8.6432560">
        <ele>28.1</ele>
        <time>2021-05-22T11:43:15Z</time>
      </trkpt>
      <trkpt lat="42.5772410" lon="-8.6432620">
        <ele>28.1</ele>
        <time>2021-05-22T11:43:16Z</time>
      </trkpt>
      <trkpt lat="42.5772540" lon="-8.6432590">
        <ele>28.1</ele>
        <time>2021-05-22T11:43:17Z</time>
      </trkpt>
      <trkpt lat="42.5772640" lon="-8.6432580">
        <ele>28.1</ele>
        <time>2021-05-22T11:43:18Z</time>
      </trkpt>
      <trkpt lat="42.5772770" lon="-8.6432530">
        <ele>28.1</ele>
        <time>2021-05-22T11:43:19Z</time>
      </trkpt>
      <trkpt lat="42.5772820" lon="-8.6432540">
        <ele>28.1</ele>
        <time>2021-05-22T11:43:20Z</time>
      </trkpt>
      <trkpt lat="42.5772960" lon="-8.6432510">
        <ele>28.1</ele>
        <time>2021-05-22T11:43:21Z</time>
      </trkpt>
      <trkpt lat="42.5773060" lon="-8.6432540">
        <ele>28.1</ele>
        <time>2021-05-22T11:43:22Z</time>
      </trkpt>
      <trkpt lat="42.5773160" lon="-8.6432510">
        <ele>28.1</ele>
        <time>2021-05-22T11:43:23Z</time>
      </trkpt>
      <trkpt lat="42.5773300" lon="-8.6432530">
        <ele>28.1</ele>
        <time>2021-05-22T11:43:24Z</time>
      </trkpt>
      <trkpt lat="42.5773600" lon="-8.6432620">
        <ele>28.0</ele>
        <time>2021-05-22T11:43:25Z</time>
      </trkpt>
      <trkpt lat="42.5773690" lon="-8.6432650">
        <ele>28.0</ele>
        <time>2021-05-22T11:43:26Z</time>
      </trkpt>
      <trkpt lat="42.5773920" lon="-8.6432680">
        <ele>28.0</ele>
        <time>2021-05-22T11:43:27Z</time>
      </trkpt>
      <trkpt lat="42.5774020" lon="-8.6432700">
        <ele>28.0</ele>
        <time>2021-05-22T11:43:28Z</time>
      </trkpt>
      <trkpt lat="42.5774130" lon="-8.6432720">
        <ele>28.0</ele>
        <time>2021-05-22T11:43:29Z</time>
      </trkpt>
      <trkpt lat="42.5774300" lon="-8.6432780">
        <ele>28.0</ele>
        <time>2021-05-22T11:43:30Z</time>
      </trkpt>
      <trkpt lat="42.5774420" lon="-8.6432840">
        <ele>28.0</ele>
        <time>2021-05-22T11:43:31Z</time>
      </trkpt>
      <trkpt lat="42.5774600" lon="-8.6432860">
        <ele>28.0</ele>
        <time>2021-05-22T11:43:32Z</time>
      </trkpt>
      <trkpt lat="42.5774700" lon="-8.6432900">
        <ele>28.0</ele>
        <time>2021-05-22T11:43:33Z</time>
      </trkpt>
      <trkpt lat="42.5774770" lon="-8.6432940">
        <ele>28.0</ele>
        <time>2021-05-22T11:43:34Z</time>
      </trkpt>
      <trkpt lat="42.5774880" lon="-8.6432930">
        <ele>28.0</ele>
        <time>2021-05-22T11:43:35Z</time>
      </trkpt>
      <trkpt lat="42.5774980" lon="-8.6432970">
        <ele>28.0</ele>
        <time>2021-05-22T11:43:36Z</time>
      </trkpt>
      <trkpt lat="42.5775260" lon="-8.6433020">
        <ele>27.9</ele>
        <time>2021-05-22T11:43:37Z</time>
      </trkpt>
      <trkpt lat="42.5775350" lon="-8.6433070">
        <ele>27.9</ele>
        <time>2021-05-22T11:43:38Z</time>
      </trkpt>
      <trkpt lat="42.5775490" lon="-8.6433100">
        <ele>27.9</ele>
        <time>2021-05-22T11:43:40Z</time>
      </trkpt>
      <trkpt lat="42.5775640" lon="-8.6433060">
        <ele>27.9</ele>
        <time>2021-05-22T11:43:41Z</time>
      </trkpt>
      <trkpt lat="42.5775780" lon="-8.6433050">
        <ele>27.9</ele>
        <time>2021-05-22T11:43:42Z</time>
      </trkpt>
      <trkpt lat="42.5775920" lon="-8.6433080">
        <ele>27.9</ele>
        <time>2021-05-22T11:43:43Z</time>
      </trkpt>
      <trkpt lat="42.5776000" lon="-8.6433130">
        <ele>27.9</ele>
        <time>2021-05-22T11:43:44Z</time>
      </trkpt>
      <trkpt lat="42.5776130" lon="-8.6433250">
        <ele>27.8</ele>
        <time>2021-05-22T11:43:45Z</time>
      </trkpt>
      <trkpt lat="42.5776170" lon="-8.6433240">
        <ele>27.8</ele>
        <time>2021-05-22T11:43:46Z</time>
      </trkpt>
      <trkpt lat="42.5776260" lon="-8.6433200">
        <ele>27.8</ele>
        <time>2021-05-22T11:43:47Z</time>
      </trkpt>
      <trkpt lat="42.5776510" lon="-8.6433270">
        <ele>27.8</ele>
        <time>2021-05-22T11:43:48Z</time>
      </trkpt>
      <trkpt lat="42.5776620" lon="-8.6433280">
        <ele>27.8</ele>
        <time>2021-05-22T11:43:49Z</time>
      </trkpt>
      <trkpt lat="42.5776810" lon="-8.6433310">
        <ele>27.8</ele>
        <time>2021-05-22T11:43:50Z</time>
      </trkpt>
      <trkpt lat="42.5776920" lon="-8.6433310">
        <ele>27.8</ele>
        <time>2021-05-22T11:43:51Z</time>
      </trkpt>
      <trkpt lat="42.5777110" lon="-8.6433340">
        <ele>27.7</ele>
        <time>2021-05-22T11:43:52Z</time>
      </trkpt>
      <trkpt lat="42.5777250" lon="-8.6433330">
        <ele>27.7</ele>
        <time>2021-05-22T11:43:53Z</time>
      </trkpt>
      <trkpt lat="42.5777400" lon="-8.6433370">
        <ele>27.7</ele>
        <time>2021-05-22T11:43:54Z</time>
      </trkpt>
      <trkpt lat="42.5777640" lon="-8.6433300">
        <ele>27.7</ele>
        <time>2021-05-22T11:43:55Z</time>
      </trkpt>
      <trkpt lat="42.5777730" lon="-8.6433310">
        <ele>27.7</ele>
        <time>2021-05-22T11:43:56Z</time>
      </trkpt>
      <trkpt lat="42.5777830" lon="-8.6433320">
        <ele>27.7</ele>
        <time>2021-05-22T11:43:57Z</time>
      </trkpt>
      <trkpt lat="42.5778030" lon="-8.6433310">
        <ele>27.6</ele>
        <time>2021-05-22T11:43:58Z</time>
      </trkpt>
      <trkpt lat="42.5778120" lon="-8.6433320">
        <ele>27.6</ele>
        <time>2021-05-22T11:43:59Z</time>
      </trkpt>
      <trkpt lat="42.5778210" lon="-8.6433320">
        <ele>27.6</ele>
        <time>2021-05-22T11:44:00Z</time>
      </trkpt>
      <trkpt lat="42.5778370" lon="-8.6433310">
        <ele>27.6</ele>
        <time>2021-05-22T11:44:01Z</time>
      </trkpt>
      <trkpt lat="42.5778560" lon="-8.6433340">
        <ele>27.6</ele>
        <time>2021-05-22T11:44:02Z</time>
      </trkpt>
      <trkpt lat="42.5778620" lon="-8.6433320">
        <ele>27.6</ele>
        <time>2021-05-22T11:44:03Z</time>
      </trkpt>
      <trkpt lat="42.5778720" lon="-8.6433330">
        <ele>27.6</ele>
        <time>2021-05-22T11:44:04Z</time>
      </trkpt>
      <trkpt lat="42.5778850" lon="-8.6433320">
        <ele>27.6</ele>
        <time>2021-05-22T11:44:05Z</time>
      </trkpt>
      <trkpt lat="42.5779020" lon="-8.6433340">
        <ele>27.6</ele>
        <time>2021-05-22T11:44:06Z</time>
      </trkpt>
      <trkpt lat="42.5779120" lon="-8.6433390">
        <ele>27.6</ele>
        <time>2021-05-22T11:44:07Z</time>
      </trkpt>
      <trkpt lat="42.5779210" lon="-8.6433430">
        <ele>27.6</ele>
        <time>2021-05-22T11:44:08Z</time>
      </trkpt>
      <trkpt lat="42.5779410" lon="-8.6433440">
        <ele>27.6</ele>
        <time>2021-05-22T11:44:09Z</time>
      </trkpt>
      <trkpt lat="42.5779520" lon="-8.6433440">
        <ele>27.6</ele>
        <time>2021-05-22T11:44:10Z</time>
      </trkpt>
      <trkpt lat="42.5779630" lon="-8.6433430">
        <ele>27.6</ele>
        <time>2021-05-22T11:44:11Z</time>
      </trkpt>
      <trkpt lat="42.5779850" lon="-8.6433450">
        <ele>27.6</ele>
        <time>2021-05-22T11:44:12Z</time>
      </trkpt>
      <trkpt lat="42.5779930" lon="-8.6433480">
        <ele>27.6</ele>
        <time>2021-05-22T11:44:13Z</time>
      </trkpt>
      <trkpt lat="42.5780020" lon="-8.6433500">
        <ele>27.5</ele>
        <time>2021-05-22T11:44:14Z</time>
      </trkpt>
      <trkpt lat="42.5780260" lon="-8.6433480">
        <ele>27.5</ele>
        <time>2021-05-22T11:44:15Z</time>
      </trkpt>
      <trkpt lat="42.5780330" lon="-8.6433500">
        <ele>27.5</ele>
        <time>2021-05-22T11:44:16Z</time>
      </trkpt>
      <trkpt lat="42.5780410" lon="-8.6433520">
        <ele>27.5</ele>
        <time>2021-05-22T11:44:17Z</time>
      </trkpt>
      <trkpt lat="42.5780490" lon="-8.6433510">
        <ele>27.5</ele>
        <time>2021-05-22T11:44:18Z</time>
      </trkpt>
      <trkpt lat="42.5780600" lon="-8.6433450">
        <ele>27.5</ele>
        <time>2021-05-22T11:44:19Z</time>
      </trkpt>
      <trkpt lat="42.5780750" lon="-8.6433440">
        <ele>27.5</ele>
        <time>2021-05-22T11:44:20Z</time>
      </trkpt>
      <trkpt lat="42.5781080" lon="-8.6433380">
        <ele>27.5</ele>
        <time>2021-05-22T11:44:21Z</time>
      </trkpt>
      <trkpt lat="42.5781150" lon="-8.6433370">
        <ele>27.5</ele>
        <time>2021-05-22T11:44:22Z</time>
      </trkpt>
      <trkpt lat="42.5781350" lon="-8.6433330">
        <ele>27.5</ele>
        <time>2021-05-22T11:44:23Z</time>
      </trkpt>
      <trkpt lat="42.5781430" lon="-8.6433320">
        <ele>27.5</ele>
        <time>2021-05-22T11:44:24Z</time>
      </trkpt>
      <trkpt lat="42.5781520" lon="-8.6433320">
        <ele>27.5</ele>
        <time>2021-05-22T11:44:25Z</time>
      </trkpt>
      <trkpt lat="42.5781600" lon="-8.6433360">
        <ele>27.5</ele>
        <time>2021-05-22T11:44:26Z</time>
      </trkpt>
      <trkpt lat="42.5781710" lon="-8.6433350">
        <ele>27.4</ele>
        <time>2021-05-22T11:44:27Z</time>
      </trkpt>
      <trkpt lat="42.5781830" lon="-8.6433370">
        <ele>27.4</ele>
        <time>2021-05-22T11:44:28Z</time>
      </trkpt>
      <trkpt lat="42.5781990" lon="-8.6433430">
        <ele>27.4</ele>
        <time>2021-05-22T11:44:29Z</time>
      </trkpt>
      <trkpt lat="42.5782150" lon="-8.6433440">
        <ele>27.4</ele>
        <time>2021-05-22T11:44:30Z</time>
      </trkpt>
      <trkpt lat="42.5782280" lon="-8.6433430">
        <ele>27.4</ele>
        <time>2021-05-22T11:44:31Z</time>
      </trkpt>
      <trkpt lat="42.5782450" lon="-8.6433490">
        <ele>27.4</ele>
        <time>2021-05-22T11:44:32Z</time>
      </trkpt>
      <trkpt lat="42.5782580" lon="-8.6433490">
        <ele>27.4</ele>
        <time>2021-05-22T11:44:33Z</time>
      </trkpt>
      <trkpt lat="42.5782690" lon="-8.6433470">
        <ele>27.4</ele>
        <time>2021-05-22T11:44:34Z</time>
      </trkpt>
      <trkpt lat="42.5782810" lon="-8.6433500">
        <ele>27.4</ele>
        <time>2021-05-22T11:44:35Z</time>
      </trkpt>
      <trkpt lat="42.5782950" lon="-8.6433530">
        <ele>27.3</ele>
        <time>2021-05-22T11:44:36Z</time>
      </trkpt>
      <trkpt lat="42.5783110" lon="-8.6433520">
        <ele>27.3</ele>
        <time>2021-05-22T11:44:37Z</time>
      </trkpt>
      <trkpt lat="42.5783230" lon="-8.6433550">
        <ele>27.3</ele>
        <time>2021-05-22T11:44:38Z</time>
      </trkpt>
      <trkpt lat="42.5783330" lon="-8.6433560">
        <ele>27.3</ele>
        <time>2021-05-22T11:44:39Z</time>
      </trkpt>
      <trkpt lat="42.5783460" lon="-8.6433610">
        <ele>27.3</ele>
        <time>2021-05-22T11:44:40Z</time>
      </trkpt>
      <trkpt lat="42.5783670" lon="-8.6433570">
        <ele>27.3</ele>
        <time>2021-05-22T11:44:41Z</time>
      </trkpt>
      <trkpt lat="42.5783760" lon="-8.6433540">
        <ele>27.3</ele>
        <time>2021-05-22T11:44:42Z</time>
      </trkpt>
      <trkpt lat="42.5783850" lon="-8.6433510">
        <ele>27.3</ele>
        <time>2021-05-22T11:44:43Z</time>
      </trkpt>
      <trkpt lat="42.5783990" lon="-8.6433500">
        <ele>27.3</ele>
        <time>2021-05-22T11:44:44Z</time>
      </trkpt>
      <trkpt lat="42.5784150" lon="-8.6433560">
        <ele>27.3</ele>
        <time>2021-05-22T11:44:45Z</time>
      </trkpt>
      <trkpt lat="42.5784220" lon="-8.6433580">
        <ele>27.3</ele>
        <time>2021-05-22T11:44:46Z</time>
      </trkpt>
      <trkpt lat="42.5784440" lon="-8.6433540">
        <ele>27.3</ele>
        <time>2021-05-22T11:44:47Z</time>
      </trkpt>
      <trkpt lat="42.5784580" lon="-8.6433540">
        <ele>27.3</ele>
        <time>2021-05-22T11:44:48Z</time>
      </trkpt>
      <trkpt lat="42.5784750" lon="-8.6433550">
        <ele>27.3</ele>
        <time>2021-05-22T11:44:49Z</time>
      </trkpt>
      <trkpt lat="42.5784850" lon="-8.6433530">
        <ele>27.3</ele>
        <time>2021-05-22T11:44:50Z</time>
      </trkpt>
      <trkpt lat="42.5785010" lon="-8.6433580">
        <ele>27.3</ele>
        <time>2021-05-22T11:44:51Z</time>
      </trkpt>
      <trkpt lat="42.5785110" lon="-8.6433570">
        <ele>27.3</ele>
        <time>2021-05-22T11:44:52Z</time>
      </trkpt>
      <trkpt lat="42.5785210" lon="-8.6433600">
        <ele>27.3</ele>
        <time>2021-05-22T11:44:53Z</time>
      </trkpt>
      <trkpt lat="42.5785300" lon="-8.6433590">
        <ele>27.3</ele>
        <time>2021-05-22T11:44:54Z</time>
      </trkpt>
      <trkpt lat="42.5785420" lon="-8.6433600">
        <ele>27.3</ele>
        <time>2021-05-22T11:44:55Z</time>
      </trkpt>
      <trkpt lat="42.5785570" lon="-8.6433620">
        <ele>27.3</ele>
        <time>2021-05-22T11:44:56Z</time>
      </trkpt>
      <trkpt lat="42.5785720" lon="-8.6433590">
        <ele>27.3</ele>
        <time>2021-05-22T11:44:57Z</time>
      </trkpt>
      <trkpt lat="42.5785950" lon="-8.6433530">
        <ele>27.2</ele>
        <time>2021-05-22T11:44:58Z</time>
      </trkpt>
      <trkpt lat="42.5786020" lon="-8.6433510">
        <ele>27.2</ele>
        <time>2021-05-22T11:44:59Z</time>
      </trkpt>
      <trkpt lat="42.5786100" lon="-8.6433480">
        <ele>27.2</ele>
        <time>2021-05-22T11:45:00Z</time>
      </trkpt>
      <trkpt lat="42.5786240" lon="-8.6433480">
        <ele>27.2</ele>
        <time>2021-05-22T11:45:01Z</time>
      </trkpt>
      <trkpt lat="42.5786370" lon="-8.6433440">
        <ele>27.2</ele>
        <time>2021-05-22T11:45:02Z</time>
      </trkpt>
      <trkpt lat="42.5786500" lon="-8.6433430">
        <ele>27.2</ele>
        <time>2021-05-22T11:45:03Z</time>
      </trkpt>
      <trkpt lat="42.5786640" lon="-8.6433450">
        <ele>27.2</ele>
        <time>2021-05-22T11:45:04Z</time>
      </trkpt>
      <trkpt lat="42.5786820" lon="-8.6433430">
        <ele>27.2</ele>
        <time>2021-05-22T11:45:05Z</time>
      </trkpt>
      <trkpt lat="42.5786890" lon="-8.6433420">
        <ele>27.2</ele>
        <time>2021-05-22T11:45:06Z</time>
      </trkpt>
      <trkpt lat="42.5786950" lon="-8.6433410">
        <ele>27.2</ele>
        <time>2021-05-22T11:45:08Z</time>
      </trkpt>
      <trkpt lat="42.5787020" lon="-8.6433400">
        <ele>27.2</ele>
        <time>2021-05-22T11:45:09Z</time>
      </trkpt>
      <trkpt lat="42.5787200" lon="-8.6433320">
        <ele>27.2</ele>
        <time>2021-05-22T11:45:10Z</time>
      </trkpt>
      <trkpt lat="42.5787300" lon="-8.6433300">
        <ele>27.2</ele>
        <time>2021-05-22T11:45:11Z</time>
      </trkpt>
      <trkpt lat="42.5787450" lon="-8.6433300">
        <ele>27.2</ele>
        <time>2021-05-22T11:45:12Z</time>
      </trkpt>
      <trkpt lat="42.5787610" lon="-8.6433300">
        <ele>27.2</ele>
        <time>2021-05-22T11:45:13Z</time>
      </trkpt>
      <trkpt lat="42.5787740" lon="-8.6433300">
        <ele>27.2</ele>
        <time>2021-05-22T11:45:14Z</time>
      </trkpt>
      <trkpt lat="42.5787810" lon="-8.6433300">
        <ele>27.2</ele>
        <time>2021-05-22T11:45:15Z</time>
      </trkpt>
      <trkpt lat="42.5787890" lon="-8.6433340">
        <ele>27.2</ele>
        <time>2021-05-22T11:45:16Z</time>
      </trkpt>
      <trkpt lat="42.5788070" lon="-8.6433320">
        <ele>27.2</ele>
        <time>2021-05-22T11:45:17Z</time>
      </trkpt>
      <trkpt lat="42.5788190" lon="-8.6433370">
        <ele>27.2</ele>
        <time>2021-05-22T11:45:18Z</time>
      </trkpt>
      <trkpt lat="42.5788370" lon="-8.6433420">
        <ele>27.2</ele>
        <time>2021-05-22T11:45:19Z</time>
      </trkpt>
      <trkpt lat="42.5788500" lon="-8.6433340">
        <ele>27.2</ele>
        <time>2021-05-22T11:45:20Z</time>
      </trkpt>
      <trkpt lat="42.5788630" lon="-8.6433340">
        <ele>27.2</ele>
        <time>2021-05-22T11:45:21Z</time>
      </trkpt>
      <trkpt lat="42.5788760" lon="-8.6433400">
        <ele>27.2</ele>
        <time>2021-05-22T11:45:22Z</time>
      </trkpt>
      <trkpt lat="42.5788850" lon="-8.6433370">
        <ele>27.2</ele>
        <time>2021-05-22T11:45:23Z</time>
      </trkpt>
      <trkpt lat="42.5789090" lon="-8.6433420">
        <ele>27.3</ele>
        <time>2021-05-22T11:45:24Z</time>
      </trkpt>
      <trkpt lat="42.5789150" lon="-8.6433400">
        <ele>27.3</ele>
        <time>2021-05-22T11:45:25Z</time>
      </trkpt>
      <trkpt lat="42.5789220" lon="-8.6433390">
        <ele>27.3</ele>
        <time>2021-05-22T11:45:26Z</time>
      </trkpt>
      <trkpt lat="42.5789350" lon="-8.6433350">
        <ele>27.3</ele>
        <time>2021-05-22T11:45:27Z</time>
      </trkpt>
      <trkpt lat="42.5789510" lon="-8.6433430">
        <ele>27.3</ele>
        <time>2021-05-22T11:45:28Z</time>
      </trkpt>
      <trkpt lat="42.5789640" lon="-8.6433470">
        <ele>27.3</ele>
        <time>2021-05-22T11:45:29Z</time>
      </trkpt>
      <trkpt lat="42.5789790" lon="-8.6433460">
        <ele>27.3</ele>
        <time>2021-05-22T11:45:30Z</time>
      </trkpt>
      <trkpt lat="42.5789980" lon="-8.6433360">
        <ele>27.3</ele>
        <time>2021-05-22T11:45:31Z</time>
      </trkpt>
      <trkpt lat="42.5790070" lon="-8.6433360">
        <ele>27.3</ele>
        <time>2021-05-22T11:45:32Z</time>
      </trkpt>
      <trkpt lat="42.5790170" lon="-8.6433350">
        <ele>27.3</ele>
        <time>2021-05-22T11:45:33Z</time>
      </trkpt>
      <trkpt lat="42.5790200" lon="-8.6433330">
        <ele>27.3</ele>
        <time>2021-05-22T11:45:34Z</time>
      </trkpt>
      <trkpt lat="42.5790340" lon="-8.6433340">
        <ele>27.3</ele>
        <time>2021-05-22T11:45:35Z</time>
      </trkpt>
      <trkpt lat="42.5790470" lon="-8.6433340">
        <ele>27.3</ele>
        <time>2021-05-22T11:45:36Z</time>
      </trkpt>
      <trkpt lat="42.5790580" lon="-8.6433320">
        <ele>27.3</ele>
        <time>2021-05-22T11:45:37Z</time>
      </trkpt>
      <trkpt lat="42.5790710" lon="-8.6433340">
        <ele>27.3</ele>
        <time>2021-05-22T11:45:38Z</time>
      </trkpt>
      <trkpt lat="42.5790810" lon="-8.6433320">
        <ele>27.3</ele>
        <time>2021-05-22T11:45:39Z</time>
      </trkpt>
      <trkpt lat="42.5790980" lon="-8.6433270">
        <ele>27.3</ele>
        <time>2021-05-22T11:45:40Z</time>
      </trkpt>
      <trkpt lat="42.5791100" lon="-8.6433300">
        <ele>27.3</ele>
        <time>2021-05-22T11:45:41Z</time>
      </trkpt>
      <trkpt lat="42.5791270" lon="-8.6433260">
        <ele>27.3</ele>
        <time>2021-05-22T11:45:42Z</time>
      </trkpt>
      <trkpt lat="42.5791330" lon="-8.6433210">
        <ele>27.3</ele>
        <time>2021-05-22T11:45:43Z</time>
      </trkpt>
      <trkpt lat="42.5791450" lon="-8.6433180">
        <ele>27.3</ele>
        <time>2021-05-22T11:45:44Z</time>
      </trkpt>
      <trkpt lat="42.5791610" lon="-8.6433230">
        <ele>27.3</ele>
        <time>2021-05-22T11:45:45Z</time>
      </trkpt>
      <trkpt lat="42.5791750" lon="-8.6433260">
        <ele>27.3</ele>
        <time>2021-05-22T11:45:46Z</time>
      </trkpt>
      <trkpt lat="42.5791840" lon="-8.6433250">
        <ele>27.3</ele>
        <time>2021-05-22T11:45:47Z</time>
      </trkpt>
      <trkpt lat="42.5791940" lon="-8.6433270">
        <ele>27.2</ele>
        <time>2021-05-22T11:45:48Z</time>
      </trkpt>
      <trkpt lat="42.5792040" lon="-8.6433280">
        <ele>27.2</ele>
        <time>2021-05-22T11:45:49Z</time>
      </trkpt>
      <trkpt lat="42.5792180" lon="-8.6433330">
        <ele>27.2</ele>
        <time>2021-05-22T11:45:50Z</time>
      </trkpt>
      <trkpt lat="42.5792330" lon="-8.6433350">
        <ele>27.2</ele>
        <time>2021-05-22T11:45:51Z</time>
      </trkpt>
      <trkpt lat="42.5792420" lon="-8.6433340">
        <ele>27.2</ele>
        <time>2021-05-22T11:45:52Z</time>
      </trkpt>
      <trkpt lat="42.5792530" lon="-8.6433340">
        <ele>27.2</ele>
        <time>2021-05-22T11:45:53Z</time>
      </trkpt>
      <trkpt lat="42.5792690" lon="-8.6433360">
        <ele>27.2</ele>
        <time>2021-05-22T11:45:54Z</time>
      </trkpt>
      <trkpt lat="42.5792840" lon="-8.6433360">
        <ele>27.2</ele>
        <time>2021-05-22T11:45:55Z</time>
      </trkpt>
      <trkpt lat="42.5792960" lon="-8.6433350">
        <ele>27.2</ele>
        <time>2021-05-22T11:45:56Z</time>
      </trkpt>
      <trkpt lat="42.5793110" lon="-8.6433340">
        <ele>27.2</ele>
        <time>2021-05-22T11:45:57Z</time>
      </trkpt>
      <trkpt lat="42.5793310" lon="-8.6433440">
        <ele>27.2</ele>
        <time>2021-05-22T11:45:58Z</time>
      </trkpt>
      <trkpt lat="42.5793400" lon="-8.6433510">
        <ele>27.2</ele>
        <time>2021-05-22T11:45:59Z</time>
      </trkpt>
      <trkpt lat="42.5793550" lon="-8.6433560">
        <ele>27.2</ele>
        <time>2021-05-22T11:46:00Z</time>
      </trkpt>
      <trkpt lat="42.5793670" lon="-8.6433530">
        <ele>27.2</ele>
        <time>2021-05-22T11:46:01Z</time>
      </trkpt>
      <trkpt lat="42.5793890" lon="-8.6433540">
        <ele>27.2</ele>
        <time>2021-05-22T11:46:02Z</time>
      </trkpt>
      <trkpt lat="42.5793980" lon="-8.6433540">
        <ele>27.2</ele>
        <time>2021-05-22T11:46:03Z</time>
      </trkpt>
      <trkpt lat="42.5794060" lon="-8.6433550">
        <ele>27.2</ele>
        <time>2021-05-22T11:46:04Z</time>
      </trkpt>
      <trkpt lat="42.5794200" lon="-8.6433490">
        <ele>27.2</ele>
        <time>2021-05-22T11:46:05Z</time>
      </trkpt>
      <trkpt lat="42.5794360" lon="-8.6433460">
        <ele>27.2</ele>
        <time>2021-05-22T11:46:06Z</time>
      </trkpt>
      <trkpt lat="42.5794560" lon="-8.6433420">
        <ele>27.2</ele>
        <time>2021-05-22T11:46:07Z</time>
      </trkpt>
      <trkpt lat="42.5794640" lon="-8.6433410">
        <ele>27.2</ele>
        <time>2021-05-22T11:46:08Z</time>
      </trkpt>
      <trkpt lat="42.5794730" lon="-8.6433400">
        <ele>27.2</ele>
        <time>2021-05-22T11:46:09Z</time>
      </trkpt>
      <trkpt lat="42.5794900" lon="-8.6433490">
        <ele>27.2</ele>
        <time>2021-05-22T11:46:10Z</time>
      </trkpt>
      <trkpt lat="42.5794970" lon="-8.6433460">
        <ele>27.2</ele>
        <time>2021-05-22T11:46:11Z</time>
      </trkpt>
      <trkpt lat="42.5795090" lon="-8.6433420">
        <ele>27.2</ele>
        <time>2021-05-22T11:46:12Z</time>
      </trkpt>
      <trkpt lat="42.5795260" lon="-8.6433360">
        <ele>27.2</ele>
        <time>2021-05-22T11:46:13Z</time>
      </trkpt>
      <trkpt lat="42.5795370" lon="-8.6433320">
        <ele>27.2</ele>
        <time>2021-05-22T11:46:14Z</time>
      </trkpt>
      <trkpt lat="42.5795480" lon="-8.6433290">
        <ele>27.2</ele>
        <time>2021-05-22T11:46:15Z</time>
      </trkpt>
      <trkpt lat="42.5795610" lon="-8.6433270">
        <ele>27.2</ele>
        <time>2021-05-22T11:46:16Z</time>
      </trkpt>
      <trkpt lat="42.5795760" lon="-8.6433230">
        <ele>27.2</ele>
        <time>2021-05-22T11:46:17Z</time>
      </trkpt>
      <trkpt lat="42.5795900" lon="-8.6433250">
        <ele>27.2</ele>
        <time>2021-05-22T11:46:18Z</time>
      </trkpt>
      <trkpt lat="42.5795950" lon="-8.6433260">
        <ele>27.2</ele>
        <time>2021-05-22T11:46:19Z</time>
      </trkpt>
      <trkpt lat="42.5796070" lon="-8.6433260">
        <ele>27.2</ele>
        <time>2021-05-22T11:46:20Z</time>
      </trkpt>
      <trkpt lat="42.5796290" lon="-8.6433230">
        <ele>27.3</ele>
        <time>2021-05-22T11:46:21Z</time>
      </trkpt>
      <trkpt lat="42.5796390" lon="-8.6433210">
        <ele>27.3</ele>
        <time>2021-05-22T11:46:22Z</time>
      </trkpt>
      <trkpt lat="42.5796480" lon="-8.6433180">
        <ele>27.3</ele>
        <time>2021-05-22T11:46:23Z</time>
      </trkpt>
      <trkpt lat="42.5796700" lon="-8.6433170">
        <ele>27.3</ele>
        <time>2021-05-22T11:46:24Z</time>
      </trkpt>
      <trkpt lat="42.5796780" lon="-8.6433150">
        <ele>27.3</ele>
        <time>2021-05-22T11:46:25Z</time>
      </trkpt>
      <trkpt lat="42.5796850" lon="-8.6433120">
        <ele>27.3</ele>
        <time>2021-05-22T11:46:26Z</time>
      </trkpt>
      <trkpt lat="42.5796980" lon="-8.6433140">
        <ele>27.3</ele>
        <time>2021-05-22T11:46:27Z</time>
      </trkpt>
      <trkpt lat="42.5797130" lon="-8.6433090">
        <ele>27.3</ele>
        <time>2021-05-22T11:46:28Z</time>
      </trkpt>
      <trkpt lat="42.5797300" lon="-8.6433140">
        <ele>27.3</ele>
        <time>2021-05-22T11:46:29Z</time>
      </trkpt>
      <trkpt lat="42.5797370" lon="-8.6433140">
        <ele>27.3</ele>
        <time>2021-05-22T11:46:30Z</time>
      </trkpt>
      <trkpt lat="42.5797450" lon="-8.6433130">
        <ele>27.4</ele>
        <time>2021-05-22T11:46:31Z</time>
      </trkpt>
      <trkpt lat="42.5797530" lon="-8.6433130">
        <ele>27.4</ele>
        <time>2021-05-22T11:46:32Z</time>
      </trkpt>
      <trkpt lat="42.5797600" lon="-8.6433140">
        <ele>27.4</ele>
        <time>2021-05-22T11:46:33Z</time>
      </trkpt>
      <trkpt lat="42.5797760" lon="-8.6433140">
        <ele>27.4</ele>
        <time>2021-05-22T11:46:34Z</time>
      </trkpt>
      <trkpt lat="42.5797880" lon="-8.6433160">
        <ele>27.4</ele>
        <time>2021-05-22T11:46:35Z</time>
      </trkpt>
      <trkpt lat="42.5798050" lon="-8.6433200">
        <ele>27.4</ele>
        <time>2021-05-22T11:46:36Z</time>
      </trkpt>
      <trkpt lat="42.5798120" lon="-8.6433210">
        <ele>27.4</ele>
        <time>2021-05-22T11:46:37Z</time>
      </trkpt>
      <trkpt lat="42.5798180" lon="-8.6433220">
        <ele>27.4</ele>
        <time>2021-05-22T11:46:38Z</time>
      </trkpt>
      <trkpt lat="42.5798250" lon="-8.6433230">
        <ele>27.4</ele>
        <time>2021-05-22T11:46:39Z</time>
      </trkpt>
      <trkpt lat="42.5798390" lon="-8.6433230">
        <ele>27.5</ele>
        <time>2021-05-22T11:46:40Z</time>
      </trkpt>
      <trkpt lat="42.5798480" lon="-8.6433230">
        <ele>27.5</ele>
        <time>2021-05-22T11:46:41Z</time>
      </trkpt>
      <trkpt lat="42.5798560" lon="-8.6433230">
        <ele>27.5</ele>
        <time>2021-05-22T11:46:42Z</time>
      </trkpt>
      <trkpt lat="42.5798650" lon="-8.6433230">
        <ele>27.5</ele>
        <time>2021-05-22T11:46:43Z</time>
      </trkpt>
      <trkpt lat="42.5798740" lon="-8.6433180">
        <ele>27.5</ele>
        <time>2021-05-22T11:46:44Z</time>
      </trkpt>
      <trkpt lat="42.5798870" lon="-8.6433160">
        <ele>27.5</ele>
        <time>2021-05-22T11:46:45Z</time>
      </trkpt>
      <trkpt lat="42.5798980" lon="-8.6433170">
        <ele>27.5</ele>
        <time>2021-05-22T11:46:46Z</time>
      </trkpt>
      <trkpt lat="42.5799110" lon="-8.6433160">
        <ele>27.5</ele>
        <time>2021-05-22T11:46:47Z</time>
      </trkpt>
      <trkpt lat="42.5799200" lon="-8.6433140">
        <ele>27.5</ele>
        <time>2021-05-22T11:46:48Z</time>
      </trkpt>
      <trkpt lat="42.5799300" lon="-8.6433120">
        <ele>27.5</ele>
        <time>2021-05-22T11:46:49Z</time>
      </trkpt>
      <trkpt lat="42.5799470" lon="-8.6433110">
        <ele>27.5</ele>
        <time>2021-05-22T11:46:50Z</time>
      </trkpt>
      <trkpt lat="42.5799600" lon="-8.6433100">
        <ele>27.6</ele>
        <time>2021-05-22T11:46:51Z</time>
      </trkpt>
      <trkpt lat="42.5799750" lon="-8.6433140">
        <ele>27.6</ele>
        <time>2021-05-22T11:46:52Z</time>
      </trkpt>
      <trkpt lat="42.5799880" lon="-8.6433160">
        <ele>27.6</ele>
        <time>2021-05-22T11:46:53Z</time>
      </trkpt>
      <trkpt lat="42.5800010" lon="-8.6433240">
        <ele>27.6</ele>
        <time>2021-05-22T11:46:54Z</time>
      </trkpt>
      <trkpt lat="42.5800150" lon="-8.6433190">
        <ele>27.6</ele>
        <time>2021-05-22T11:46:55Z</time>
      </trkpt>
      <trkpt lat="42.5800230" lon="-8.6433150">
        <ele>27.6</ele>
        <time>2021-05-22T11:46:56Z</time>
      </trkpt>
      <trkpt lat="42.5800370" lon="-8.6433160">
        <ele>27.6</ele>
        <time>2021-05-22T11:46:57Z</time>
      </trkpt>
      <trkpt lat="42.5800500" lon="-8.6433190">
        <ele>27.6</ele>
        <time>2021-05-22T11:46:58Z</time>
      </trkpt>
      <trkpt lat="42.5800610" lon="-8.6433250">
        <ele>27.6</ele>
        <time>2021-05-22T11:46:59Z</time>
      </trkpt>
      <trkpt lat="42.5800780" lon="-8.6433330">
        <ele>27.6</ele>
        <time>2021-05-22T11:47:00Z</time>
      </trkpt>
      <trkpt lat="42.5800890" lon="-8.6433380">
        <ele>27.6</ele>
        <time>2021-05-22T11:47:01Z</time>
      </trkpt>
      <trkpt lat="42.5800980" lon="-8.6433380">
        <ele>27.7</ele>
        <time>2021-05-22T11:47:02Z</time>
      </trkpt>
      <trkpt lat="42.5801000" lon="-8.6433390">
        <ele>27.7</ele>
        <time>2021-05-22T11:47:03Z</time>
      </trkpt>
      <trkpt lat="42.5801080" lon="-8.6433350">
        <ele>27.7</ele>
        <time>2021-05-22T11:47:04Z</time>
      </trkpt>
      <trkpt lat="42.5801110" lon="-8.6433370">
        <ele>27.7</ele>
        <time>2021-05-22T11:47:05Z</time>
      </trkpt>
      <trkpt lat="42.5801290" lon="-8.6433410">
        <ele>27.7</ele>
        <time>2021-05-22T11:47:06Z</time>
      </trkpt>
      <trkpt lat="42.5801350" lon="-8.6433410">
        <ele>27.7</ele>
        <time>2021-05-22T11:47:07Z</time>
      </trkpt>
      <trkpt lat="42.5801460" lon="-8.6433520">
        <ele>27.7</ele>
        <time>2021-05-22T11:47:08Z</time>
      </trkpt>
      <trkpt lat="42.5801550" lon="-8.6433560">
        <ele>27.7</ele>
        <time>2021-05-22T11:47:09Z</time>
      </trkpt>
      <trkpt lat="42.5801630" lon="-8.6433550">
        <ele>27.7</ele>
        <time>2021-05-22T11:47:10Z</time>
      </trkpt>
      <trkpt lat="42.5801810" lon="-8.6433620">
        <ele>27.7</ele>
        <time>2021-05-22T11:47:11Z</time>
      </trkpt>
      <trkpt lat="42.5801970" lon="-8.6433640">
        <ele>27.7</ele>
        <time>2021-05-22T11:47:12Z</time>
      </trkpt>
      <trkpt lat="42.5802150" lon="-8.6433640">
        <ele>27.8</ele>
        <time>2021-05-22T11:47:13Z</time>
      </trkpt>
      <trkpt lat="42.5802290" lon="-8.6433690">
        <ele>27.8</ele>
        <time>2021-05-22T11:47:14Z</time>
      </trkpt>
      <trkpt lat="42.5802470" lon="-8.6433750">
        <ele>27.8</ele>
        <time>2021-05-22T11:47:15Z</time>
      </trkpt>
      <trkpt lat="42.5802560" lon="-8.6433790">
        <ele>27.8</ele>
        <time>2021-05-22T11:47:16Z</time>
      </trkpt>
      <trkpt lat="42.5802640" lon="-8.6433840">
        <ele>27.8</ele>
        <time>2021-05-22T11:47:17Z</time>
      </trkpt>
      <trkpt lat="42.5802810" lon="-8.6433830">
        <ele>27.8</ele>
        <time>2021-05-22T11:47:18Z</time>
      </trkpt>
      <trkpt lat="42.5802970" lon="-8.6433870">
        <ele>27.8</ele>
        <time>2021-05-22T11:47:19Z</time>
      </trkpt>
      <trkpt lat="42.5803180" lon="-8.6433980">
        <ele>27.8</ele>
        <time>2021-05-22T11:47:20Z</time>
      </trkpt>
      <trkpt lat="42.5803240" lon="-8.6434080">
        <ele>27.8</ele>
        <time>2021-05-22T11:47:21Z</time>
      </trkpt>
      <trkpt lat="42.5803390" lon="-8.6434200">
        <ele>27.8</ele>
        <time>2021-05-22T11:47:22Z</time>
      </trkpt>
      <trkpt lat="42.5803480" lon="-8.6434330">
        <ele>27.8</ele>
        <time>2021-05-22T11:47:23Z</time>
      </trkpt>
      <trkpt lat="42.5803600" lon="-8.6434440">
        <ele>27.7</ele>
        <time>2021-05-22T11:47:24Z</time>
      </trkpt>
      <trkpt lat="42.5803700" lon="-8.6434550">
        <ele>27.7</ele>
        <time>2021-05-22T11:47:25Z</time>
      </trkpt>
      <trkpt lat="42.5803760" lon="-8.6434710">
        <ele>27.7</ele>
        <time>2021-05-22T11:47:26Z</time>
      </trkpt>
      <trkpt lat="42.5803850" lon="-8.6434860">
        <ele>27.7</ele>
        <time>2021-05-22T11:47:27Z</time>
      </trkpt>
      <trkpt lat="42.5803960" lon="-8.6435090">
        <ele>27.6</ele>
        <time>2021-05-22T11:47:28Z</time>
      </trkpt>
      <trkpt lat="42.5804010" lon="-8.6435190">
        <ele>27.6</ele>
        <time>2021-05-22T11:47:29Z</time>
      </trkpt>
      <trkpt lat="42.5804060" lon="-8.6435280">
        <ele>27.6</ele>
        <time>2021-05-22T11:47:30Z</time>
      </trkpt>
      <trkpt lat="42.5804180" lon="-8.6435410">
        <ele>27.6</ele>
        <time>2021-05-22T11:47:31Z</time>
      </trkpt>
      <trkpt lat="42.5804300" lon="-8.6435550">
        <ele>27.5</ele>
        <time>2021-05-22T11:47:32Z</time>
      </trkpt>
      <trkpt lat="42.5804400" lon="-8.6435740">
        <ele>27.5</ele>
        <time>2021-05-22T11:47:33Z</time>
      </trkpt>
      <trkpt lat="42.5804490" lon="-8.6435840">
        <ele>27.5</ele>
        <time>2021-05-22T11:47:34Z</time>
      </trkpt>
      <trkpt lat="42.5804580" lon="-8.6435990">
        <ele>27.5</ele>
        <time>2021-05-22T11:47:35Z</time>
      </trkpt>
      <trkpt lat="42.5804680" lon="-8.6436130">
        <ele>27.5</ele>
        <time>2021-05-22T11:47:36Z</time>
      </trkpt>
      <trkpt lat="42.5804800" lon="-8.6436270">
        <ele>27.5</ele>
        <time>2021-05-22T11:47:37Z</time>
      </trkpt>
      <trkpt lat="42.5804930" lon="-8.6436460">
        <ele>27.5</ele>
        <time>2021-05-22T11:47:38Z</time>
      </trkpt>
      <trkpt lat="42.5804980" lon="-8.6436640">
        <ele>27.5</ele>
        <time>2021-05-22T11:47:39Z</time>
      </trkpt>
      <trkpt lat="42.5805050" lon="-8.6436730">
        <ele>27.5</ele>
        <time>2021-05-22T11:47:40Z</time>
      </trkpt>
      <trkpt lat="42.5805170" lon="-8.6436810">
        <ele>27.5</ele>
        <time>2021-05-22T11:47:41Z</time>
      </trkpt>
      <trkpt lat="42.5805250" lon="-8.6436940">
        <ele>27.5</ele>
        <time>2021-05-22T11:47:43Z</time>
      </trkpt>
      <trkpt lat="42.5805320" lon="-8.6437060">
        <ele>27.4</ele>
        <time>2021-05-22T11:47:44Z</time>
      </trkpt>
      <trkpt lat="42.5805420" lon="-8.6437150">
        <ele>27.4</ele>
        <time>2021-05-22T11:47:45Z</time>
      </trkpt>
      <trkpt lat="42.5805560" lon="-8.6437350">
        <ele>27.4</ele>
        <time>2021-05-22T11:47:46Z</time>
      </trkpt>
      <trkpt lat="42.5805610" lon="-8.6437460">
        <ele>27.4</ele>
        <time>2021-05-22T11:47:47Z</time>
      </trkpt>
      <trkpt lat="42.5805670" lon="-8.6437570">
        <ele>27.4</ele>
        <time>2021-05-22T11:47:48Z</time>
      </trkpt>
      <trkpt lat="42.5805720" lon="-8.6437720">
        <ele>27.4</ele>
        <time>2021-05-22T11:47:49Z</time>
      </trkpt>
      <trkpt lat="42.5805800" lon="-8.6437850">
        <ele>27.4</ele>
        <time>2021-05-22T11:47:50Z</time>
      </trkpt>
      <trkpt lat="42.5805910" lon="-8.6437910">
        <ele>27.4</ele>
        <time>2021-05-22T11:47:51Z</time>
      </trkpt>
      <trkpt lat="42.5805970" lon="-8.6438020">
        <ele>27.4</ele>
        <time>2021-05-22T11:47:52Z</time>
      </trkpt>
      <trkpt lat="42.5806070" lon="-8.6438160">
        <ele>27.4</ele>
        <time>2021-05-22T11:47:53Z</time>
      </trkpt>
      <trkpt lat="42.5806120" lon="-8.6438300">
        <ele>27.4</ele>
        <time>2021-05-22T11:47:54Z</time>
      </trkpt>
      <trkpt lat="42.5806250" lon="-8.6438560">
        <ele>27.4</ele>
        <time>2021-05-22T11:47:55Z</time>
      </trkpt>
      <trkpt lat="42.5806290" lon="-8.6438660">
        <ele>27.4</ele>
        <time>2021-05-22T11:47:56Z</time>
      </trkpt>
      <trkpt lat="42.5806340" lon="-8.6438750">
        <ele>27.4</ele>
        <time>2021-05-22T11:47:57Z</time>
      </trkpt>
      <trkpt lat="42.5806500" lon="-8.6438940">
        <ele>27.4</ele>
        <time>2021-05-22T11:47:58Z</time>
      </trkpt>
      <trkpt lat="42.5806560" lon="-8.6439020">
        <ele>27.4</ele>
        <time>2021-05-22T11:47:59Z</time>
      </trkpt>
      <trkpt lat="42.5806630" lon="-8.6439110">
        <ele>27.4</ele>
        <time>2021-05-22T11:48:00Z</time>
      </trkpt>
      <trkpt lat="42.5806750" lon="-8.6439340">
        <ele>27.4</ele>
        <time>2021-05-22T11:48:01Z</time>
      </trkpt>
      <trkpt lat="42.5806800" lon="-8.6439430">
        <ele>27.4</ele>
        <time>2021-05-22T11:48:02Z</time>
      </trkpt>
      <trkpt lat="42.5806850" lon="-8.6439520">
        <ele>27.4</ele>
        <time>2021-05-22T11:48:03Z</time>
      </trkpt>
      <trkpt lat="42.5806950" lon="-8.6439590">
        <ele>27.4</ele>
        <time>2021-05-22T11:48:04Z</time>
      </trkpt>
      <trkpt lat="42.5807090" lon="-8.6439740">
        <ele>27.4</ele>
        <time>2021-05-22T11:48:05Z</time>
      </trkpt>
      <trkpt lat="42.5807180" lon="-8.6439850">
        <ele>27.4</ele>
        <time>2021-05-22T11:48:06Z</time>
      </trkpt>
      <trkpt lat="42.5807230" lon="-8.6439930">
        <ele>27.4</ele>
        <time>2021-05-22T11:48:07Z</time>
      </trkpt>
      <trkpt lat="42.5807320" lon="-8.6440050">
        <ele>27.4</ele>
        <time>2021-05-22T11:48:08Z</time>
      </trkpt>
      <trkpt lat="42.5807470" lon="-8.6440210">
        <ele>27.4</ele>
        <time>2021-05-22T11:48:09Z</time>
      </trkpt>
      <trkpt lat="42.5807550" lon="-8.6440290">
        <ele>27.4</ele>
        <time>2021-05-22T11:48:10Z</time>
      </trkpt>
      <trkpt lat="42.5807620" lon="-8.6440360">
        <ele>27.4</ele>
        <time>2021-05-22T11:48:11Z</time>
      </trkpt>
      <trkpt lat="42.5807800" lon="-8.6440540">
        <ele>27.4</ele>
        <time>2021-05-22T11:48:12Z</time>
      </trkpt>
      <trkpt lat="42.5807860" lon="-8.6440590">
        <ele>27.4</ele>
        <time>2021-05-22T11:48:13Z</time>
      </trkpt>
      <trkpt lat="42.5807920" lon="-8.6440650">
        <ele>27.4</ele>
        <time>2021-05-22T11:48:14Z</time>
      </trkpt>
      <trkpt lat="42.5807980" lon="-8.6440750">
        <ele>27.4</ele>
        <time>2021-05-22T11:48:15Z</time>
      </trkpt>
      <trkpt lat="42.5808130" lon="-8.6440930">
        <ele>27.4</ele>
        <time>2021-05-22T11:48:16Z</time>
      </trkpt>
      <trkpt lat="42.5808260" lon="-8.6441050">
        <ele>27.4</ele>
        <time>2021-05-22T11:48:17Z</time>
      </trkpt>
      <trkpt lat="42.5808370" lon="-8.6441150">
        <ele>27.4</ele>
        <time>2021-05-22T11:48:18Z</time>
      </trkpt>
      <trkpt lat="42.5808460" lon="-8.6441250">
        <ele>27.4</ele>
        <time>2021-05-22T11:48:19Z</time>
      </trkpt>
      <trkpt lat="42.5808630" lon="-8.6441430">
        <ele>27.4</ele>
        <time>2021-05-22T11:48:20Z</time>
      </trkpt>
      <trkpt lat="42.5808720" lon="-8.6441450">
        <ele>27.4</ele>
        <time>2021-05-22T11:48:21Z</time>
      </trkpt>
      <trkpt lat="42.5808820" lon="-8.6441560">
        <ele>27.4</ele>
        <time>2021-05-22T11:48:22Z</time>
      </trkpt>
      <trkpt lat="42.5808950" lon="-8.6441680">
        <ele>27.4</ele>
        <time>2021-05-22T11:48:23Z</time>
      </trkpt>
      <trkpt lat="42.5809070" lon="-8.6441840">
        <ele>27.4</ele>
        <time>2021-05-22T11:48:24Z</time>
      </trkpt>
      <trkpt lat="42.5809180" lon="-8.6441950">
        <ele>27.4</ele>
        <time>2021-05-22T11:48:25Z</time>
      </trkpt>
      <trkpt lat="42.5809210" lon="-8.6442010">
        <ele>27.4</ele>
        <time>2021-05-22T11:48:26Z</time>
      </trkpt>
      <trkpt lat="42.5809330" lon="-8.6442080">
        <ele>27.4</ele>
        <time>2021-05-22T11:48:27Z</time>
      </trkpt>
      <trkpt lat="42.5809480" lon="-8.6442180">
        <ele>27.4</ele>
        <time>2021-05-22T11:48:28Z</time>
      </trkpt>
      <trkpt lat="42.5809570" lon="-8.6442250">
        <ele>27.4</ele>
        <time>2021-05-22T11:48:29Z</time>
      </trkpt>
      <trkpt lat="42.5809660" lon="-8.6442310">
        <ele>27.4</ele>
        <time>2021-05-22T11:48:30Z</time>
      </trkpt>
      <trkpt lat="42.5809740" lon="-8.6442390">
        <ele>27.4</ele>
        <time>2021-05-22T11:48:31Z</time>
      </trkpt>
      <trkpt lat="42.5809920" lon="-8.6442470">
        <ele>27.4</ele>
        <time>2021-05-22T11:48:32Z</time>
      </trkpt>
      <trkpt lat="42.5810180" lon="-8.6442630">
        <ele>27.4</ele>
        <time>2021-05-22T11:48:33Z</time>
      </trkpt>
      <trkpt lat="42.5810310" lon="-8.6442730">
        <ele>27.4</ele>
        <time>2021-05-22T11:48:34Z</time>
      </trkpt>
      <trkpt lat="42.5810360" lon="-8.6442800">
        <ele>27.4</ele>
        <time>2021-05-22T11:48:35Z</time>
      </trkpt>
      <trkpt lat="42.5810550" lon="-8.6442910">
        <ele>27.4</ele>
        <time>2021-05-22T11:48:36Z</time>
      </trkpt>
      <trkpt lat="42.5810630" lon="-8.6442940">
        <ele>27.4</ele>
        <time>2021-05-22T11:48:37Z</time>
      </trkpt>
      <trkpt lat="42.5810720" lon="-8.6442960">
        <ele>27.4</ele>
        <time>2021-05-22T11:48:38Z</time>
      </trkpt>
      <trkpt lat="42.5810870" lon="-8.6443120">
        <ele>27.4</ele>
        <time>2021-05-22T11:48:39Z</time>
      </trkpt>
      <trkpt lat="42.5810950" lon="-8.6443210">
        <ele>27.4</ele>
        <time>2021-05-22T11:48:40Z</time>
      </trkpt>
      <trkpt lat="42.5811020" lon="-8.6443290">
        <ele>27.4</ele>
        <time>2021-05-22T11:48:41Z</time>
      </trkpt>
      <trkpt lat="42.5811190" lon="-8.6443460">
        <ele>27.4</ele>
        <time>2021-05-22T11:48:42Z</time>
      </trkpt>
      <trkpt lat="42.5811280" lon="-8.6443510">
        <ele>27.4</ele>
        <time>2021-05-22T11:48:43Z</time>
      </trkpt>
      <trkpt lat="42.5811370" lon="-8.6443560">
        <ele>27.4</ele>
        <time>2021-05-22T11:48:44Z</time>
      </trkpt>
      <trkpt lat="42.5811540" lon="-8.6443700">
        <ele>27.4</ele>
        <time>2021-05-22T11:48:45Z</time>
      </trkpt>
      <trkpt lat="42.5811630" lon="-8.6443750">
        <ele>27.4</ele>
        <time>2021-05-22T11:48:46Z</time>
      </trkpt>
      <trkpt lat="42.5811710" lon="-8.6443800">
        <ele>27.4</ele>
        <time>2021-05-22T11:48:47Z</time>
      </trkpt>
      <trkpt lat="42.5811820" lon="-8.6443920">
        <ele>27.4</ele>
        <time>2021-05-22T11:48:48Z</time>
      </trkpt>
      <trkpt lat="42.5811930" lon="-8.6444060">
        <ele>27.4</ele>
        <time>2021-05-22T11:48:49Z</time>
      </trkpt>
      <trkpt lat="42.5812070" lon="-8.6444150">
        <ele>27.4</ele>
        <time>2021-05-22T11:48:50Z</time>
      </trkpt>
      <trkpt lat="42.5812120" lon="-8.6444180">
        <ele>27.4</ele>
        <time>2021-05-22T11:48:51Z</time>
      </trkpt>
      <trkpt lat="42.5812220" lon="-8.6444220">
        <ele>27.4</ele>
        <time>2021-05-22T11:48:52Z</time>
      </trkpt>
      <trkpt lat="42.5812440" lon="-8.6444330">
        <ele>27.4</ele>
        <time>2021-05-22T11:48:53Z</time>
      </trkpt>
      <trkpt lat="42.5812530" lon="-8.6444390">
        <ele>27.4</ele>
        <time>2021-05-22T11:48:54Z</time>
      </trkpt>
      <trkpt lat="42.5812610" lon="-8.6444460">
        <ele>27.4</ele>
        <time>2021-05-22T11:48:55Z</time>
      </trkpt>
      <trkpt lat="42.5812710" lon="-8.6444520">
        <ele>27.4</ele>
        <time>2021-05-22T11:48:56Z</time>
      </trkpt>
      <trkpt lat="42.5812780" lon="-8.6444590">
        <ele>27.3</ele>
        <time>2021-05-22T11:48:57Z</time>
      </trkpt>
      <trkpt lat="42.5812880" lon="-8.6444660">
        <ele>27.3</ele>
        <time>2021-05-22T11:48:58Z</time>
      </trkpt>
      <trkpt lat="42.5813070" lon="-8.6444750">
        <ele>27.3</ele>
        <time>2021-05-22T11:48:59Z</time>
      </trkpt>
      <trkpt lat="42.5813160" lon="-8.6444780">
        <ele>27.3</ele>
        <time>2021-05-22T11:49:00Z</time>
      </trkpt>
      <trkpt lat="42.5813250" lon="-8.6444800">
        <ele>27.3</ele>
        <time>2021-05-22T11:49:01Z</time>
      </trkpt>
      <trkpt lat="42.5813360" lon="-8.6444830">
        <ele>27.3</ele>
        <time>2021-05-22T11:49:02Z</time>
      </trkpt>
      <trkpt lat="42.5813470" lon="-8.6444910">
        <ele>27.3</ele>
        <time>2021-05-22T11:49:03Z</time>
      </trkpt>
      <trkpt lat="42.5813560" lon="-8.6444960">
        <ele>27.2</ele>
        <time>2021-05-22T11:49:04Z</time>
      </trkpt>
      <trkpt lat="42.5813630" lon="-8.6445020">
        <ele>27.2</ele>
        <time>2021-05-22T11:49:05Z</time>
      </trkpt>
      <trkpt lat="42.5813750" lon="-8.6445120">
        <ele>27.2</ele>
        <time>2021-05-22T11:49:06Z</time>
      </trkpt>
      <trkpt lat="42.5813850" lon="-8.6445180">
        <ele>27.2</ele>
        <time>2021-05-22T11:49:07Z</time>
      </trkpt>
      <trkpt lat="42.5813970" lon="-8.6445250">
        <ele>27.2</ele>
        <time>2021-05-22T11:49:08Z</time>
      </trkpt>
      <trkpt lat="42.5814120" lon="-8.6445310">
        <ele>27.1</ele>
        <time>2021-05-22T11:49:09Z</time>
      </trkpt>
      <trkpt lat="42.5814320" lon="-8.6445400">
        <ele>27.1</ele>
        <time>2021-05-22T11:49:10Z</time>
      </trkpt>
      <trkpt lat="42.5814400" lon="-8.6445450">
        <ele>27.1</ele>
        <time>2021-05-22T11:49:11Z</time>
      </trkpt>
      <trkpt lat="42.5814490" lon="-8.6445510">
        <ele>27.1</ele>
        <time>2021-05-22T11:49:12Z</time>
      </trkpt>
      <trkpt lat="42.5814690" lon="-8.6445640">
        <ele>27.0</ele>
        <time>2021-05-22T11:49:13Z</time>
      </trkpt>
      <trkpt lat="42.5814760" lon="-8.6445690">
        <ele>27.0</ele>
        <time>2021-05-22T11:49:14Z</time>
      </trkpt>
      <trkpt lat="42.5814830" lon="-8.6445730">
        <ele>27.0</ele>
        <time>2021-05-22T11:49:15Z</time>
      </trkpt>
      <trkpt lat="42.5814880" lon="-8.6445760">
        <ele>27.0</ele>
        <time>2021-05-22T11:49:16Z</time>
      </trkpt>
      <trkpt lat="42.5814980" lon="-8.6445800">
        <ele>26.9</ele>
        <time>2021-05-22T11:49:17Z</time>
      </trkpt>
      <trkpt lat="42.5815120" lon="-8.6445850">
        <ele>26.9</ele>
        <time>2021-05-22T11:49:18Z</time>
      </trkpt>
      <trkpt lat="42.5815260" lon="-8.6445920">
        <ele>26.9</ele>
        <time>2021-05-22T11:49:19Z</time>
      </trkpt>
      <trkpt lat="42.5815410" lon="-8.6446010">
        <ele>26.8</ele>
        <time>2021-05-22T11:49:20Z</time>
      </trkpt>
      <trkpt lat="42.5815630" lon="-8.6446140">
        <ele>26.8</ele>
        <time>2021-05-22T11:49:21Z</time>
      </trkpt>
      <trkpt lat="42.5815700" lon="-8.6446200">
        <ele>26.8</ele>
        <time>2021-05-22T11:49:22Z</time>
      </trkpt>
      <trkpt lat="42.5815780" lon="-8.6446250">
        <ele>26.7</ele>
        <time>2021-05-22T11:49:23Z</time>
      </trkpt>
      <trkpt lat="42.5815880" lon="-8.6446310">
        <ele>26.7</ele>
        <time>2021-05-22T11:49:24Z</time>
      </trkpt>
      <trkpt lat="42.5815980" lon="-8.6446400">
        <ele>26.7</ele>
        <time>2021-05-22T11:49:25Z</time>
      </trkpt>
      <trkpt lat="42.5816110" lon="-8.6446390">
        <ele>26.7</ele>
        <time>2021-05-22T11:49:26Z</time>
      </trkpt>
      <trkpt lat="42.5816290" lon="-8.6446430">
        <ele>26.6</ele>
        <time>2021-05-22T11:49:27Z</time>
      </trkpt>
      <trkpt lat="42.5816410" lon="-8.6446470">
        <ele>26.6</ele>
        <time>2021-05-22T11:49:28Z</time>
      </trkpt>
      <trkpt lat="42.5816580" lon="-8.6446580">
        <ele>26.5</ele>
        <time>2021-05-22T11:49:29Z</time>
      </trkpt>
      <trkpt lat="42.5816650" lon="-8.6446640">
        <ele>26.5</ele>
        <time>2021-05-22T11:49:30Z</time>
      </trkpt>
      <trkpt lat="42.5816890" lon="-8.6446680">
        <ele>26.5</ele>
        <time>2021-05-22T11:49:31Z</time>
      </trkpt>
      <trkpt lat="42.5816960" lon="-8.6446660">
        <ele>26.4</ele>
        <time>2021-05-22T11:49:32Z</time>
      </trkpt>
      <trkpt lat="42.5817040" lon="-8.6446640">
        <ele>26.4</ele>
        <time>2021-05-22T11:49:33Z</time>
      </trkpt>
      <trkpt lat="42.5817170" lon="-8.6446680">
        <ele>26.4</ele>
        <time>2021-05-22T11:49:34Z</time>
      </trkpt>
      <trkpt lat="42.5817320" lon="-8.6446720">
        <ele>26.3</ele>
        <time>2021-05-22T11:49:35Z</time>
      </trkpt>
      <trkpt lat="42.5817530" lon="-8.6446740">
        <ele>26.3</ele>
        <time>2021-05-22T11:49:36Z</time>
      </trkpt>
      <trkpt lat="42.5817610" lon="-8.6446740">
        <ele>26.3</ele>
        <time>2021-05-22T11:49:37Z</time>
      </trkpt>
      <trkpt lat="42.5817700" lon="-8.6446750">
        <ele>26.2</ele>
        <time>2021-05-22T11:49:38Z</time>
      </trkpt>
      <trkpt lat="42.5817870" lon="-8.6446850">
        <ele>26.2</ele>
        <time>2021-05-22T11:49:39Z</time>
      </trkpt>
      <trkpt lat="42.5817950" lon="-8.6446870">
        <ele>26.2</ele>
        <time>2021-05-22T11:49:40Z</time>
      </trkpt>
      <trkpt lat="42.5818020" lon="-8.6446880">
        <ele>26.2</ele>
        <time>2021-05-22T11:49:41Z</time>
      </trkpt>
      <trkpt lat="42.5818100" lon="-8.6446900">
        <ele>26.1</ele>
        <time>2021-05-22T11:49:42Z</time>
      </trkpt>
      <trkpt lat="42.5818310" lon="-8.6446950">
        <ele>26.1</ele>
        <time>2021-05-22T11:49:44Z</time>
      </trkpt>
      <trkpt lat="42.5818390" lon="-8.6446980">
        <ele>26.1</ele>
        <time>2021-05-22T11:49:45Z</time>
      </trkpt>
      <trkpt lat="42.5818480" lon="-8.6447020">
        <ele>26.0</ele>
        <time>2021-05-22T11:49:46Z</time>
      </trkpt>
      <trkpt lat="42.5818630" lon="-8.6447070">
        <ele>26.0</ele>
        <time>2021-05-22T11:49:47Z</time>
      </trkpt>
      <trkpt lat="42.5818760" lon="-8.6447170">
        <ele>26.0</ele>
        <time>2021-05-22T11:49:48Z</time>
      </trkpt>
      <trkpt lat="42.5818910" lon="-8.6447260">
        <ele>25.9</ele>
        <time>2021-05-22T11:49:49Z</time>
      </trkpt>
      <trkpt lat="42.5819050" lon="-8.6447300">
        <ele>25.9</ele>
        <time>2021-05-22T11:49:50Z</time>
      </trkpt>
      <trkpt lat="42.5819140" lon="-8.6447370">
        <ele>25.8</ele>
        <time>2021-05-22T11:49:51Z</time>
      </trkpt>
      <trkpt lat="42.5819310" lon="-8.6447410">
        <ele>25.8</ele>
        <time>2021-05-22T11:49:52Z</time>
      </trkpt>
      <trkpt lat="42.5819480" lon="-8.6447490">
        <ele>25.7</ele>
        <time>2021-05-22T11:49:53Z</time>
      </trkpt>
      <trkpt lat="42.5819610" lon="-8.6447570">
        <ele>25.7</ele>
        <time>2021-05-22T11:49:54Z</time>
      </trkpt>
      <trkpt lat="42.5819770" lon="-8.6447680">
        <ele>25.7</ele>
        <time>2021-05-22T11:49:55Z</time>
      </trkpt>
      <trkpt lat="42.5819860" lon="-8.6447740">
        <ele>25.6</ele>
        <time>2021-05-22T11:49:56Z</time>
      </trkpt>
      <trkpt lat="42.5819940" lon="-8.6447790">
        <ele>25.6</ele>
        <time>2021-05-22T11:49:57Z</time>
      </trkpt>
      <trkpt lat="42.5820020" lon="-8.6447850">
        <ele>25.6</ele>
        <time>2021-05-22T11:49:58Z</time>
      </trkpt>
      <trkpt lat="42.5820060" lon="-8.6448040">
        <ele>25.5</ele>
        <time>2021-05-22T11:49:59Z</time>
      </trkpt>
      <trkpt lat="42.5820070" lon="-8.6448270">
        <ele>25.5</ele>
        <time>2021-05-22T11:50:00Z</time>
      </trkpt>
      <trkpt lat="42.5819990" lon="-8.6448720">
        <ele>25.4</ele>
        <time>2021-05-22T11:50:01Z</time>
      </trkpt>
      <trkpt lat="42.5819980" lon="-8.6448820">
        <ele>25.4</ele>
        <time>2021-05-22T11:50:02Z</time>
      </trkpt>
      <trkpt lat="42.5819970" lon="-8.6449090">
        <ele>25.3</ele>
        <time>2021-05-22T11:50:03Z</time>
      </trkpt>
      <trkpt lat="42.5819940" lon="-8.6449270">
        <ele>25.3</ele>
        <time>2021-05-22T11:50:04Z</time>
      </trkpt>
      <trkpt lat="42.5820010" lon="-8.6449480">
        <ele>25.2</ele>
        <time>2021-05-22T11:50:05Z</time>
      </trkpt>
      <trkpt lat="42.5820070" lon="-8.6449600">
        <ele>25.2</ele>
        <time>2021-05-22T11:50:06Z</time>
      </trkpt>
      <trkpt lat="42.5820080" lon="-8.6449900">
        <ele>25.1</ele>
        <time>2021-05-22T11:50:07Z</time>
      </trkpt>
      <trkpt lat="42.5820100" lon="-8.6450040">
        <ele>25.1</ele>
        <time>2021-05-22T11:50:08Z</time>
      </trkpt>
      <trkpt lat="42.5820060" lon="-8.6450230">
        <ele>25.1</ele>
        <time>2021-05-22T11:50:09Z</time>
      </trkpt>
      <trkpt lat="42.5820070" lon="-8.6450430">
        <ele>25.0</ele>
        <time>2021-05-22T11:50:10Z</time>
      </trkpt>
      <trkpt lat="42.5820020" lon="-8.6450650">
        <ele>25.0</ele>
        <time>2021-05-22T11:50:11Z</time>
      </trkpt>
      <trkpt lat="42.5819970" lon="-8.6450740">
        <ele>25.0</ele>
        <time>2021-05-22T11:50:12Z</time>
      </trkpt>
      <trkpt lat="42.5819960" lon="-8.6450750">
        <ele>25.0</ele>
        <time>2021-05-22T11:50:13Z</time>
      </trkpt>
      <trkpt lat="42.5819960" lon="-8.6450740">
        <ele>25.0</ele>
        <time>2021-05-22T11:50:14Z</time>
      </trkpt>
      <trkpt lat="42.5819980" lon="-8.6450740">
        <ele>25.0</ele>
        <time>2021-05-22T11:50:15Z</time>
      </trkpt>
      <trkpt lat="42.5819970" lon="-8.6450810">
        <ele>25.0</ele>
        <time>2021-05-22T11:50:16Z</time>
      </trkpt>
      <trkpt lat="42.5819950" lon="-8.6450850">
        <ele>24.9</ele>
        <time>2021-05-22T11:50:17Z</time>
      </trkpt>
      <trkpt lat="42.5819950" lon="-8.6450910">
        <ele>24.9</ele>
        <time>2021-05-22T11:50:18Z</time>
      </trkpt>
      <trkpt lat="42.5820040" lon="-8.6451240">
        <ele>24.9</ele>
        <time>2021-05-22T11:50:19Z</time>
      </trkpt>
      <trkpt lat="42.5820050" lon="-8.6451290">
        <ele>24.9</ele>
        <time>2021-05-22T11:50:20Z</time>
      </trkpt>
      <trkpt lat="42.5820040" lon="-8.6451320">
        <ele>24.9</ele>
        <time>2021-05-22T11:50:21Z</time>
      </trkpt>
      <trkpt lat="42.5820020" lon="-8.6451330">
        <ele>24.9</ele>
        <time>2021-05-22T11:50:22Z</time>
      </trkpt>
      <trkpt lat="42.5820020" lon="-8.6451330">
        <ele>24.9</ele>
        <time>2021-05-22T11:50:23Z</time>
      </trkpt>
      <trkpt lat="42.5819970" lon="-8.6451480">
        <ele>24.8</ele>
        <time>2021-05-22T11:50:24Z</time>
      </trkpt>
      <trkpt lat="42.5819970" lon="-8.6451480">
        <ele>24.8</ele>
        <time>2021-05-22T11:50:25Z</time>
      </trkpt>
      <trkpt lat="42.5819970" lon="-8.6451520">
        <ele>24.8</ele>
        <time>2021-05-22T11:50:26Z</time>
      </trkpt>
      <trkpt lat="42.5820020" lon="-8.6451560">
        <ele>24.8</ele>
        <time>2021-05-22T11:50:27Z</time>
      </trkpt>
      <trkpt lat="42.5820020" lon="-8.6451560">
        <ele>24.8</ele>
        <time>2021-05-22T11:50:28Z</time>
      </trkpt>
      <trkpt lat="42.5820020" lon="-8.6451560">
        <ele>24.8</ele>
        <time>2021-05-22T11:50:29Z</time>
      </trkpt>
      <trkpt lat="42.5820020" lon="-8.6451560">
        <ele>24.8</ele>
        <time>2021-05-22T11:50:30Z</time>
      </trkpt>
      <trkpt lat="42.5820020" lon="-8.6451560">
        <ele>24.8</ele>
        <time>2021-05-22T11:50:31Z</time>
      </trkpt>
      <trkpt lat="42.5820020" lon="-8.6451560">
        <ele>24.8</ele>
        <time>2021-05-22T11:50:32Z</time>
      </trkpt>
      <trkpt lat="42.5820020" lon="-8.6451560">
        <ele>24.8</ele>
        <time>2021-05-22T11:50:33Z</time>
      </trkpt>
      <trkpt lat="42.5820020" lon="-8.6451560">
        <ele>24.8</ele>
        <time>2021-05-22T11:50:34Z</time>
      </trkpt>
      <trkpt lat="42.5820020" lon="-8.6451560">
        <ele>24.8</ele>
        <time>2021-05-22T11:50:35Z</time>
      </trkpt>
      <trkpt lat="42.5819810" lon="-8.6451570">
        <ele>24.8</ele>
        <time>2021-05-22T11:50:36Z</time>
      </trkpt>
      <trkpt lat="42.5819810" lon="-8.6451580">
        <ele>24.7</ele>
        <time>2021-05-22T11:50:37Z</time>
      </trkpt>
      <trkpt lat="42.5819810" lon="-8.6451580">
        <ele>24.7</ele>
        <time>2021-05-22T11:50:38Z</time>
      </trkpt>
      <trkpt lat="42.5819810" lon="-8.6451580">
        <ele>24.7</ele>
        <time>2021-05-22T11:50:39Z</time>
      </trkpt>
      <trkpt lat="42.5819810" lon="-8.6451580">
        <ele>24.7</ele>
        <time>2021-05-22T11:50:40Z</time>
      </trkpt>
      <trkpt lat="42.5819810" lon="-8.6451580">
        <ele>24.7</ele>
        <time>2021-05-22T11:50:41Z</time>
      </trkpt>
      <trkpt lat="42.5819810" lon="-8.6451580">
        <ele>24.7</ele>
        <time>2021-05-22T11:50:42Z</time>
      </trkpt>
      <trkpt lat="42.5819810" lon="-8.6451580">
        <ele>24.7</ele>
        <time>2021-05-22T11:50:43Z</time>
      </trkpt>
      <trkpt lat="42.5819810" lon="-8.6451580">
        <ele>24.7</ele>
        <time>2021-05-22T11:50:44Z</time>
      </trkpt>
      <trkpt lat="42.5819770" lon="-8.6451410">
        <ele>24.7</ele>
        <time>2021-05-22T11:50:45Z</time>
      </trkpt>
      <trkpt lat="42.5819780" lon="-8.6451400">
        <ele>24.7</ele>
        <time>2021-05-22T11:50:46Z</time>
      </trkpt>
      <trkpt lat="42.5819800" lon="-8.6451380">
        <ele>24.7</ele>
        <time>2021-05-22T11:50:47Z</time>
      </trkpt>
      <trkpt lat="42.5819810" lon="-8.6451370">
        <ele>24.7</ele>
        <time>2021-05-22T11:50:48Z</time>
      </trkpt>
      <trkpt lat="42.5819810" lon="-8.6451370">
        <ele>24.7</ele>
        <time>2021-05-22T11:50:49Z</time>
      </trkpt>
      <trkpt lat="42.5819780" lon="-8.6451360">
        <ele>24.7</ele>
        <time>2021-05-22T11:50:50Z</time>
      </trkpt>
      <trkpt lat="42.5819780" lon="-8.6451360">
        <ele>24.7</ele>
        <time>2021-05-22T11:50:51Z</time>
      </trkpt>
      <trkpt lat="42.5819780" lon="-8.6451360">
        <ele>24.7</ele>
        <time>2021-05-22T11:50:52Z</time>
      </trkpt>
      <trkpt lat="42.5819820" lon="-8.6451380">
        <ele>24.7</ele>
        <time>2021-05-22T11:50:53Z</time>
      </trkpt>
      <trkpt lat="42.5819820" lon="-8.6451380">
        <ele>24.7</ele>
        <time>2021-05-22T11:50:54Z</time>
      </trkpt>
      <trkpt lat="42.5819820" lon="-8.6451370">
        <ele>24.7</ele>
        <time>2021-05-22T11:50:55Z</time>
      </trkpt>
      <trkpt lat="42.5819830" lon="-8.6451370">
        <ele>24.7</ele>
        <time>2021-05-22T11:50:56Z</time>
      </trkpt>
      <trkpt lat="42.5819850" lon="-8.6451380">
        <ele>24.7</ele>
        <time>2021-05-22T11:50:57Z</time>
      </trkpt>
      <trkpt lat="42.5819880" lon="-8.6451360">
        <ele>24.7</ele>
        <time>2021-05-22T11:50:58Z</time>
      </trkpt>
      <trkpt lat="42.5820000" lon="-8.6451230">
        <ele>24.7</ele>
        <time>2021-05-22T11:50:59Z</time>
      </trkpt>
      <trkpt lat="42.5820130" lon="-8.6450740">
        <ele>24.6</ele>
        <time>2021-05-22T11:51:00Z</time>
      </trkpt>
      <trkpt lat="42.5820150" lon="-8.6450240">
        <ele>24.6</ele>
        <time>2021-05-22T11:51:01Z</time>
      </trkpt>
      <trkpt lat="42.5820110" lon="-8.6449810">
        <ele>24.5</ele>
        <time>2021-05-22T11:51:02Z</time>
      </trkpt>
      <trkpt lat="42.5820110" lon="-8.6449430">
        <ele>24.4</ele>
        <time>2021-05-22T11:51:03Z</time>
      </trkpt>
      <trkpt lat="42.5820130" lon="-8.6449040">
        <ele>24.4</ele>
        <time>2021-05-22T11:51:04Z</time>
      </trkpt>
      <trkpt lat="42.5820160" lon="-8.6448650">
        <ele>24.4</ele>
        <time>2021-05-22T11:51:05Z</time>
      </trkpt>
      <trkpt lat="42.5820390" lon="-8.6448370">
        <ele>24.4</ele>
        <time>2021-05-22T11:51:06Z</time>
      </trkpt>
      <trkpt lat="42.5820470" lon="-8.6448260">
        <ele>24.4</ele>
        <time>2021-05-22T11:51:07Z</time>
      </trkpt>
      <trkpt lat="42.5820950" lon="-8.6448180">
        <ele>24.4</ele>
        <time>2021-05-22T11:51:08Z</time>
      </trkpt>
      <trkpt lat="42.5821250" lon="-8.6448000">
        <ele>24.4</ele>
        <time>2021-05-22T11:51:09Z</time>
      </trkpt>
      <trkpt lat="42.5821560" lon="-8.6448110">
        <ele>24.4</ele>
        <time>2021-05-22T11:51:10Z</time>
      </trkpt>
      <trkpt lat="42.5821650" lon="-8.6448140">
        <ele>24.4</ele>
        <time>2021-05-22T11:51:11Z</time>
      </trkpt>
      <trkpt lat="42.5821900" lon="-8.6447900">
        <ele>24.4</ele>
        <time>2021-05-22T11:51:12Z</time>
      </trkpt>
      <trkpt lat="42.5822320" lon="-8.6447750">
        <ele>24.4</ele>
        <time>2021-05-22T11:51:13Z</time>
      </trkpt>
      <trkpt lat="42.5822490" lon="-8.6447630">
        <ele>24.4</ele>
        <time>2021-05-22T11:51:14Z</time>
      </trkpt>
      <trkpt lat="42.5822800" lon="-8.6447460">
        <ele>24.4</ele>
        <time>2021-05-22T11:51:15Z</time>
      </trkpt>
      <trkpt lat="42.5822880" lon="-8.6447420">
        <ele>24.4</ele>
        <time>2021-05-22T11:51:16Z</time>
      </trkpt>
      <trkpt lat="42.5823250" lon="-8.6447250">
        <ele>24.5</ele>
        <time>2021-05-22T11:51:17Z</time>
      </trkpt>
      <trkpt lat="42.5823360" lon="-8.6447220">
        <ele>24.5</ele>
        <time>2021-05-22T11:51:18Z</time>
      </trkpt>
      <trkpt lat="42.5823720" lon="-8.6447070">
        <ele>24.5</ele>
        <time>2021-05-22T11:51:19Z</time>
      </trkpt>
      <trkpt lat="42.5823820" lon="-8.6447030">
        <ele>24.5</ele>
        <time>2021-05-22T11:51:20Z</time>
      </trkpt>
      <trkpt lat="42.5824160" lon="-8.6446800">
        <ele>24.6</ele>
        <time>2021-05-22T11:51:21Z</time>
      </trkpt>
      <trkpt lat="42.5824270" lon="-8.6446730">
        <ele>24.6</ele>
        <time>2021-05-22T11:51:22Z</time>
      </trkpt>
      <trkpt lat="42.5824590" lon="-8.6446570">
        <ele>24.6</ele>
        <time>2021-05-22T11:51:23Z</time>
      </trkpt>
      <trkpt lat="42.5824690" lon="-8.6446490">
        <ele>24.6</ele>
        <time>2021-05-22T11:51:24Z</time>
      </trkpt>
      <trkpt lat="42.5825020" lon="-8.6446320">
        <ele>24.6</ele>
        <time>2021-05-22T11:51:25Z</time>
      </trkpt>
      <trkpt lat="42.5825110" lon="-8.6446270">
        <ele>24.7</ele>
        <time>2021-05-22T11:51:26Z</time>
      </trkpt>
      <trkpt lat="42.5825400" lon="-8.6446100">
        <ele>24.8</ele>
        <time>2021-05-22T11:51:27Z</time>
      </trkpt>
      <trkpt lat="42.5825590" lon="-8.6445820">
        <ele>24.8</ele>
        <time>2021-05-22T11:51:28Z</time>
      </trkpt>
      <trkpt lat="42.5825890" lon="-8.6445540">
        <ele>24.9</ele>
        <time>2021-05-22T11:51:29Z</time>
      </trkpt>
      <trkpt lat="42.5826260" lon="-8.6445370">
        <ele>25.0</ele>
        <time>2021-05-22T11:51:30Z</time>
      </trkpt>
      <trkpt lat="42.5826420" lon="-8.6445400">
        <ele>25.0</ele>
        <time>2021-05-22T11:51:31Z</time>
      </trkpt>
      <trkpt lat="42.5826770" lon="-8.6445410">
        <ele>25.1</ele>
        <time>2021-05-22T11:51:32Z</time>
      </trkpt>
      <trkpt lat="42.5826880" lon="-8.6445410">
        <ele>25.1</ele>
        <time>2021-05-22T11:51:33Z</time>
      </trkpt>
      <trkpt lat="42.5827190" lon="-8.6445520">
        <ele>25.2</ele>
        <time>2021-05-22T11:51:34Z</time>
      </trkpt>
      <trkpt lat="42.5827490" lon="-8.6445770">
        <ele>25.3</ele>
        <time>2021-05-22T11:51:35Z</time>
      </trkpt>
      <trkpt lat="42.5827620" lon="-8.6445850">
        <ele>25.4</ele>
        <time>2021-05-22T11:51:36Z</time>
      </trkpt>
      <trkpt lat="42.5827900" lon="-8.6446110">
        <ele>25.5</ele>
        <time>2021-05-22T11:51:37Z</time>
      </trkpt>
      <trkpt lat="42.5828020" lon="-8.6446170">
        <ele>25.5</ele>
        <time>2021-05-22T11:51:38Z</time>
      </trkpt>
      <trkpt lat="42.5828340" lon="-8.6446210">
        <ele>25.7</ele>
        <time>2021-05-22T11:51:39Z</time>
      </trkpt>
      <trkpt lat="42.5828610" lon="-8.6446320">
        <ele>25.7</ele>
        <time>2021-05-22T11:51:40Z</time>
      </trkpt>
      <trkpt lat="42.5828970" lon="-8.6446420">
        <ele>25.8</ele>
        <time>2021-05-22T11:51:41Z</time>
      </trkpt>
      <trkpt lat="42.5829080" lon="-8.6446440">
        <ele>25.8</ele>
        <time>2021-05-22T11:51:42Z</time>
      </trkpt>
      <trkpt lat="42.5829400" lon="-8.6446300">
        <ele>25.9</ele>
        <time>2021-05-22T11:51:43Z</time>
      </trkpt>
      <trkpt lat="42.5829680" lon="-8.6446510">
        <ele>25.9</ele>
        <time>2021-05-22T11:51:44Z</time>
      </trkpt>
      <trkpt lat="42.5829960" lon="-8.6446560">
        <ele>25.9</ele>
        <time>2021-05-22T11:51:45Z</time>
      </trkpt>
      <trkpt lat="42.5830300" lon="-8.6446740">
        <ele>26.0</ele>
        <time>2021-05-22T11:51:46Z</time>
      </trkpt>
      <trkpt lat="42.5830410" lon="-8.6446810">
        <ele>26.0</ele>
        <time>2021-05-22T11:51:47Z</time>
      </trkpt>
      <trkpt lat="42.5830710" lon="-8.6446820">
        <ele>26.0</ele>
        <time>2021-05-22T11:51:48Z</time>
      </trkpt>
      <trkpt lat="42.5830800" lon="-8.6446750">
        <ele>26.0</ele>
        <time>2021-05-22T11:51:49Z</time>
      </trkpt>
      <trkpt lat="42.5831060" lon="-8.6446870">
        <ele>26.0</ele>
        <time>2021-05-22T11:51:50Z</time>
      </trkpt>
      <trkpt lat="42.5831400" lon="-8.6446960">
        <ele>26.0</ele>
        <time>2021-05-22T11:51:51Z</time>
      </trkpt>
      <trkpt lat="42.5831500" lon="-8.6446970">
        <ele>26.0</ele>
        <time>2021-05-22T11:51:52Z</time>
      </trkpt>
      <trkpt lat="42.5831820" lon="-8.6447090">
        <ele>26.0</ele>
        <time>2021-05-22T11:51:53Z</time>
      </trkpt>
      <trkpt lat="42.5831910" lon="-8.6447130">
        <ele>26.0</ele>
        <time>2021-05-22T11:51:54Z</time>
      </trkpt>
      <trkpt lat="42.5832230" lon="-8.6447020">
        <ele>26.1</ele>
        <time>2021-05-22T11:51:55Z</time>
      </trkpt>
      <trkpt lat="42.5832330" lon="-8.6446980">
        <ele>26.1</ele>
        <time>2021-05-22T11:51:56Z</time>
      </trkpt>
      <trkpt lat="42.5832600" lon="-8.6446950">
        <ele>26.1</ele>
        <time>2021-05-22T11:51:57Z</time>
      </trkpt>
      <trkpt lat="42.5832700" lon="-8.6446990">
        <ele>26.1</ele>
        <time>2021-05-22T11:51:58Z</time>
      </trkpt>
      <trkpt lat="42.5833010" lon="-8.6446970">
        <ele>26.1</ele>
        <time>2021-05-22T11:51:59Z</time>
      </trkpt>
      <trkpt lat="42.5833100" lon="-8.6447010">
        <ele>26.1</ele>
        <time>2021-05-22T11:52:00Z</time>
      </trkpt>
      <trkpt lat="42.5833370" lon="-8.6446980">
        <ele>26.2</ele>
        <time>2021-05-22T11:52:01Z</time>
      </trkpt>
      <trkpt lat="42.5833470" lon="-8.6446950">
        <ele>26.2</ele>
        <time>2021-05-22T11:52:02Z</time>
      </trkpt>
      <trkpt lat="42.5833740" lon="-8.6446770">
        <ele>26.2</ele>
        <time>2021-05-22T11:52:03Z</time>
      </trkpt>
      <trkpt lat="42.5833840" lon="-8.6446730">
        <ele>26.2</ele>
        <time>2021-05-22T11:52:04Z</time>
      </trkpt>
      <trkpt lat="42.5834010" lon="-8.6446680">
        <ele>26.2</ele>
        <time>2021-05-22T11:52:05Z</time>
      </trkpt>
      <trkpt lat="42.5834200" lon="-8.6446690">
        <ele>26.3</ele>
        <time>2021-05-22T11:52:06Z</time>
      </trkpt>
      <trkpt lat="42.5834390" lon="-8.6446720">
        <ele>26.3</ele>
        <time>2021-05-22T11:52:07Z</time>
      </trkpt>
      <trkpt lat="42.5834540" lon="-8.6446720">
        <ele>26.3</ele>
        <time>2021-05-22T11:52:08Z</time>
      </trkpt>
      <trkpt lat="42.5834680" lon="-8.6446670">
        <ele>26.3</ele>
        <time>2021-05-22T11:52:09Z</time>
      </trkpt>
      <trkpt lat="42.5834830" lon="-8.6446680">
        <ele>26.3</ele>
        <time>2021-05-22T11:52:10Z</time>
      </trkpt>
      <trkpt lat="42.5835020" lon="-8.6446690">
        <ele>26.4</ele>
        <time>2021-05-22T11:52:11Z</time>
      </trkpt>
      <trkpt lat="42.5835110" lon="-8.6446720">
        <ele>26.4</ele>
        <time>2021-05-22T11:52:12Z</time>
      </trkpt>
      <trkpt lat="42.5835190" lon="-8.6446750">
        <ele>26.4</ele>
        <time>2021-05-22T11:52:13Z</time>
      </trkpt>
      <trkpt lat="42.5835330" lon="-8.6446830">
        <ele>26.4</ele>
        <time>2021-05-22T11:52:14Z</time>
      </trkpt>
      <trkpt lat="42.5835450" lon="-8.6446890">
        <ele>26.4</ele>
        <time>2021-05-22T11:52:15Z</time>
      </trkpt>
      <trkpt lat="42.5835580" lon="-8.6447020">
        <ele>26.4</ele>
        <time>2021-05-22T11:52:16Z</time>
      </trkpt>
      <trkpt lat="42.5835740" lon="-8.6447080">
        <ele>26.5</ele>
        <time>2021-05-22T11:52:17Z</time>
      </trkpt>
      <trkpt lat="42.5835940" lon="-8.6447150">
        <ele>26.5</ele>
        <time>2021-05-22T11:52:18Z</time>
      </trkpt>
      <trkpt lat="42.5836020" lon="-8.6447210">
        <ele>26.5</ele>
        <time>2021-05-22T11:52:20Z</time>
      </trkpt>
      <trkpt lat="42.5836090" lon="-8.6447260">
        <ele>26.5</ele>
        <time>2021-05-22T11:52:21Z</time>
      </trkpt>
      <trkpt lat="42.5836220" lon="-8.6447320">
        <ele>26.5</ele>
        <time>2021-05-22T11:52:22Z</time>
      </trkpt>
      <trkpt lat="42.5836350" lon="-8.6447400">
        <ele>26.5</ele>
        <time>2021-05-22T11:52:23Z</time>
      </trkpt>
      <trkpt lat="42.5836520" lon="-8.6447480">
        <ele>26.6</ele>
        <time>2021-05-22T11:52:24Z</time>
      </trkpt>
      <trkpt lat="42.5836670" lon="-8.6447570">
        <ele>26.6</ele>
        <time>2021-05-22T11:52:25Z</time>
      </trkpt>
      <trkpt lat="42.5836810" lon="-8.6447650">
        <ele>26.6</ele>
        <time>2021-05-22T11:52:26Z</time>
      </trkpt>
      <trkpt lat="42.5836940" lon="-8.6447760">
        <ele>26.6</ele>
        <time>2021-05-22T11:52:27Z</time>
      </trkpt>
      <trkpt lat="42.5837060" lon="-8.6447880">
        <ele>26.6</ele>
        <time>2021-05-22T11:52:28Z</time>
      </trkpt>
      <trkpt lat="42.5837210" lon="-8.6447970">
        <ele>26.7</ele>
        <time>2021-05-22T11:52:29Z</time>
      </trkpt>
      <trkpt lat="42.5837340" lon="-8.6448050">
        <ele>26.7</ele>
        <time>2021-05-22T11:52:30Z</time>
      </trkpt>
      <trkpt lat="42.5837470" lon="-8.6448090">
        <ele>26.7</ele>
        <time>2021-05-22T11:52:31Z</time>
      </trkpt>
      <trkpt lat="42.5837610" lon="-8.6448190">
        <ele>26.7</ele>
        <time>2021-05-22T11:52:32Z</time>
      </trkpt>
      <trkpt lat="42.5837720" lon="-8.6448350">
        <ele>26.7</ele>
        <time>2021-05-22T11:52:33Z</time>
      </trkpt>
      <trkpt lat="42.5837880" lon="-8.6448410">
        <ele>26.7</ele>
        <time>2021-05-22T11:52:34Z</time>
      </trkpt>
      <trkpt lat="42.5838030" lon="-8.6448480">
        <ele>26.7</ele>
        <time>2021-05-22T11:52:35Z</time>
      </trkpt>
      <trkpt lat="42.5838150" lon="-8.6448560">
        <ele>26.7</ele>
        <time>2021-05-22T11:52:36Z</time>
      </trkpt>
      <trkpt lat="42.5838300" lon="-8.6448640">
        <ele>26.7</ele>
        <time>2021-05-22T11:52:37Z</time>
      </trkpt>
      <trkpt lat="42.5838460" lon="-8.6448690">
        <ele>26.7</ele>
        <time>2021-05-22T11:52:38Z</time>
      </trkpt>
      <trkpt lat="42.5838600" lon="-8.6448790">
        <ele>26.7</ele>
        <time>2021-05-22T11:52:39Z</time>
      </trkpt>
      <trkpt lat="42.5838720" lon="-8.6448870">
        <ele>26.7</ele>
        <time>2021-05-22T11:52:40Z</time>
      </trkpt>
      <trkpt lat="42.5838850" lon="-8.6448930">
        <ele>26.7</ele>
        <time>2021-05-22T11:52:41Z</time>
      </trkpt>
      <trkpt lat="42.5838990" lon="-8.6448990">
        <ele>26.7</ele>
        <time>2021-05-22T11:52:42Z</time>
      </trkpt>
      <trkpt lat="42.5839110" lon="-8.6449080">
        <ele>26.7</ele>
        <time>2021-05-22T11:52:43Z</time>
      </trkpt>
      <trkpt lat="42.5839280" lon="-8.6449080">
        <ele>26.7</ele>
        <time>2021-05-22T11:52:44Z</time>
      </trkpt>
      <trkpt lat="42.5839530" lon="-8.6449310">
        <ele>26.7</ele>
        <time>2021-05-22T11:52:45Z</time>
      </trkpt>
      <trkpt lat="42.5839650" lon="-8.6449460">
        <ele>26.7</ele>
        <time>2021-05-22T11:52:46Z</time>
      </trkpt>
      <trkpt lat="42.5839770" lon="-8.6449560">
        <ele>26.7</ele>
        <time>2021-05-22T11:52:47Z</time>
      </trkpt>
      <trkpt lat="42.5839830" lon="-8.6449580">
        <ele>26.7</ele>
        <time>2021-05-22T11:52:48Z</time>
      </trkpt>
      <trkpt lat="42.5839890" lon="-8.6449650">
        <ele>26.7</ele>
        <time>2021-05-22T11:52:49Z</time>
      </trkpt>
      <trkpt lat="42.5839940" lon="-8.6449730">
        <ele>26.7</ele>
        <time>2021-05-22T11:52:50Z</time>
      </trkpt>
      <trkpt lat="42.5840050" lon="-8.6449720">
        <ele>26.6</ele>
        <time>2021-05-22T11:52:51Z</time>
      </trkpt>
      <trkpt lat="42.5840150" lon="-8.6449770">
        <ele>26.6</ele>
        <time>2021-05-22T11:52:52Z</time>
      </trkpt>
      <trkpt lat="42.5840200" lon="-8.6449810">
        <ele>26.6</ele>
        <time>2021-05-22T11:52:53Z</time>
      </trkpt>
      <trkpt lat="42.5840280" lon="-8.6449910">
        <ele>26.6</ele>
        <time>2021-05-22T11:52:54Z</time>
      </trkpt>
      <trkpt lat="42.5840400" lon="-8.6449970">
        <ele>26.6</ele>
        <time>2021-05-22T11:52:55Z</time>
      </trkpt>
      <trkpt lat="42.5840460" lon="-8.6450040">
        <ele>26.6</ele>
        <time>2021-05-22T11:52:56Z</time>
      </trkpt>
      <trkpt lat="42.5840600" lon="-8.6450140">
        <ele>26.6</ele>
        <time>2021-05-22T11:52:57Z</time>
      </trkpt>
      <trkpt lat="42.5840670" lon="-8.6450240">
        <ele>26.6</ele>
        <time>2021-05-22T11:52:58Z</time>
      </trkpt>
      <trkpt lat="42.5840760" lon="-8.6450330">
        <ele>26.6</ele>
        <time>2021-05-22T11:52:59Z</time>
      </trkpt>
      <trkpt lat="42.5840820" lon="-8.6450400">
        <ele>26.6</ele>
        <time>2021-05-22T11:53:00Z</time>
      </trkpt>
      <trkpt lat="42.5840890" lon="-8.6450510">
        <ele>26.6</ele>
        <time>2021-05-22T11:53:01Z</time>
      </trkpt>
      <trkpt lat="42.5841040" lon="-8.6450690">
        <ele>26.5</ele>
        <time>2021-05-22T11:53:02Z</time>
      </trkpt>
      <trkpt lat="42.5841100" lon="-8.6450800">
        <ele>26.5</ele>
        <time>2021-05-22T11:53:03Z</time>
      </trkpt>
      <trkpt lat="42.5841150" lon="-8.6450900">
        <ele>26.5</ele>
        <time>2021-05-22T11:53:04Z</time>
      </trkpt>
      <trkpt lat="42.5841260" lon="-8.6451170">
        <ele>26.5</ele>
        <time>2021-05-22T11:53:05Z</time>
      </trkpt>
      <trkpt lat="42.5841320" lon="-8.6451220">
        <ele>26.5</ele>
        <time>2021-05-22T11:53:06Z</time>
      </trkpt>
      <trkpt lat="42.5841380" lon="-8.6451330">
        <ele>26.5</ele>
        <time>2021-05-22T11:53:07Z</time>
      </trkpt>
      <trkpt lat="42.5841490" lon="-8.6451440">
        <ele>26.5</ele>
        <time>2021-05-22T11:53:08Z</time>
      </trkpt>
      <trkpt lat="42.5841580" lon="-8.6451560">
        <ele>26.4</ele>
        <time>2021-05-22T11:53:09Z</time>
      </trkpt>
      <trkpt lat="42.5841710" lon="-8.6451670">
        <ele>26.4</ele>
        <time>2021-05-22T11:53:10Z</time>
      </trkpt>
      <trkpt lat="42.5841810" lon="-8.6451750">
        <ele>26.4</ele>
        <time>2021-05-22T11:53:11Z</time>
      </trkpt>
      <trkpt lat="42.5841970" lon="-8.6451910">
        <ele>26.4</ele>
        <time>2021-05-22T11:53:12Z</time>
      </trkpt>
      <trkpt lat="42.5842050" lon="-8.6451990">
        <ele>26.4</ele>
        <time>2021-05-22T11:53:13Z</time>
      </trkpt>
      <trkpt lat="42.5842120" lon="-8.6452080">
        <ele>26.4</ele>
        <time>2021-05-22T11:53:14Z</time>
      </trkpt>
      <trkpt lat="42.5842190" lon="-8.6452130">
        <ele>26.4</ele>
        <time>2021-05-22T11:53:15Z</time>
      </trkpt>
      <trkpt lat="42.5842230" lon="-8.6452240">
        <ele>26.3</ele>
        <time>2021-05-22T11:53:16Z</time>
      </trkpt>
      <trkpt lat="42.5842320" lon="-8.6452290">
        <ele>26.3</ele>
        <time>2021-05-22T11:53:17Z</time>
      </trkpt>
      <trkpt lat="42.5842390" lon="-8.6452380">
        <ele>26.3</ele>
        <time>2021-05-22T11:53:18Z</time>
      </trkpt>
      <trkpt lat="42.5842490" lon="-8.6452500">
        <ele>26.3</ele>
        <time>2021-05-22T11:53:19Z</time>
      </trkpt>
      <trkpt lat="42.5842550" lon="-8.6452530">
        <ele>26.3</ele>
        <time>2021-05-22T11:53:20Z</time>
      </trkpt>
      <trkpt lat="42.5842640" lon="-8.6452620">
        <ele>26.3</ele>
        <time>2021-05-22T11:53:21Z</time>
      </trkpt>
      <trkpt lat="42.5842770" lon="-8.6452720">
        <ele>26.3</ele>
        <time>2021-05-22T11:53:22Z</time>
      </trkpt>
      <trkpt lat="42.5842900" lon="-8.6452810">
        <ele>26.2</ele>
        <time>2021-05-22T11:53:23Z</time>
      </trkpt>
      <trkpt lat="42.5843030" lon="-8.6452900">
        <ele>26.2</ele>
        <time>2021-05-22T11:53:24Z</time>
      </trkpt>
      <trkpt lat="42.5843110" lon="-8.6452940">
        <ele>26.2</ele>
        <time>2021-05-22T11:53:25Z</time>
      </trkpt>
      <trkpt lat="42.5843190" lon="-8.6452970">
        <ele>26.2</ele>
        <time>2021-05-22T11:53:26Z</time>
      </trkpt>
      <trkpt lat="42.5843270" lon="-8.6453010">
        <ele>26.2</ele>
        <time>2021-05-22T11:53:27Z</time>
      </trkpt>
      <trkpt lat="42.5843290" lon="-8.6453110">
        <ele>26.2</ele>
        <time>2021-05-22T11:53:28Z</time>
      </trkpt>
      <trkpt lat="42.5843340" lon="-8.6453180">
        <ele>26.2</ele>
        <time>2021-05-22T11:53:29Z</time>
      </trkpt>
      <trkpt lat="42.5843380" lon="-8.6453220">
        <ele>26.1</ele>
        <time>2021-05-22T11:53:30Z</time>
      </trkpt>
      <trkpt lat="42.5843470" lon="-8.6453370">
        <ele>26.1</ele>
        <time>2021-05-22T11:53:31Z</time>
      </trkpt>
      <trkpt lat="42.5843630" lon="-8.6453420">
        <ele>26.1</ele>
        <time>2021-05-22T11:53:32Z</time>
      </trkpt>
      <trkpt lat="42.5843710" lon="-8.6453460">
        <ele>26.1</ele>
        <time>2021-05-22T11:53:33Z</time>
      </trkpt>
      <trkpt lat="42.5843780" lon="-8.6453500">
        <ele>26.1</ele>
        <time>2021-05-22T11:53:34Z</time>
      </trkpt>
      <trkpt lat="42.5843860" lon="-8.6453540">
        <ele>26.1</ele>
        <time>2021-05-22T11:53:35Z</time>
      </trkpt>
      <trkpt lat="42.5843900" lon="-8.6453600">
        <ele>26.1</ele>
        <time>2021-05-22T11:53:36Z</time>
      </trkpt>
      <trkpt lat="42.5843910" lon="-8.6453600">
        <ele>26.1</ele>
        <time>2021-05-22T11:53:37Z</time>
      </trkpt>
      <trkpt lat="42.5844030" lon="-8.6453720">
        <ele>26.0</ele>
        <time>2021-05-22T11:53:38Z</time>
      </trkpt>
      <trkpt lat="42.5844090" lon="-8.6453870">
        <ele>26.0</ele>
        <time>2021-05-22T11:53:39Z</time>
      </trkpt>
      <trkpt lat="42.5844140" lon="-8.6453940">
        <ele>26.0</ele>
        <time>2021-05-22T11:53:40Z</time>
      </trkpt>
      <trkpt lat="42.5844290" lon="-8.6454040">
        <ele>26.0</ele>
        <time>2021-05-22T11:53:41Z</time>
      </trkpt>
      <trkpt lat="42.5844380" lon="-8.6454090">
        <ele>26.0</ele>
        <time>2021-05-22T11:53:42Z</time>
      </trkpt>
      <trkpt lat="42.5844390" lon="-8.6454220">
        <ele>25.9</ele>
        <time>2021-05-22T11:53:43Z</time>
      </trkpt>
      <trkpt lat="42.5844470" lon="-8.6454300">
        <ele>25.9</ele>
        <time>2021-05-22T11:53:44Z</time>
      </trkpt>
      <trkpt lat="42.5844570" lon="-8.6454380">
        <ele>25.9</ele>
        <time>2021-05-22T11:53:45Z</time>
      </trkpt>
      <trkpt lat="42.5844650" lon="-8.6454440">
        <ele>25.9</ele>
        <time>2021-05-22T11:53:46Z</time>
      </trkpt>
      <trkpt lat="42.5844710" lon="-8.6454520">
        <ele>25.9</ele>
        <time>2021-05-22T11:53:47Z</time>
      </trkpt>
      <trkpt lat="42.5844770" lon="-8.6454600">
        <ele>25.9</ele>
        <time>2021-05-22T11:53:48Z</time>
      </trkpt>
      <trkpt lat="42.5844860" lon="-8.6454660">
        <ele>25.9</ele>
        <time>2021-05-22T11:53:49Z</time>
      </trkpt>
      <trkpt lat="42.5844930" lon="-8.6454700">
        <ele>25.8</ele>
        <time>2021-05-22T11:53:50Z</time>
      </trkpt>
      <trkpt lat="42.5845010" lon="-8.6454820">
        <ele>25.8</ele>
        <time>2021-05-22T11:53:51Z</time>
      </trkpt>
      <trkpt lat="42.5844980" lon="-8.6454800">
        <ele>25.8</ele>
        <time>2021-05-22T11:53:52Z</time>
      </trkpt>
      <trkpt lat="42.5845010" lon="-8.6454890">
        <ele>25.8</ele>
        <time>2021-05-22T11:53:53Z</time>
      </trkpt>
      <trkpt lat="42.5845110" lon="-8.6454900">
        <ele>25.8</ele>
        <time>2021-05-22T11:53:54Z</time>
      </trkpt>
      <trkpt lat="42.5845240" lon="-8.6455170">
        <ele>25.8</ele>
        <time>2021-05-22T11:53:55Z</time>
      </trkpt>
      <trkpt lat="42.5845290" lon="-8.6455250">
        <ele>25.8</ele>
        <time>2021-05-22T11:53:56Z</time>
      </trkpt>
      <trkpt lat="42.5845340" lon="-8.6455320">
        <ele>25.7</ele>
        <time>2021-05-22T11:53:57Z</time>
      </trkpt>
      <trkpt lat="42.5845440" lon="-8.6455410">
        <ele>25.7</ele>
        <time>2021-05-22T11:53:58Z</time>
      </trkpt>
      <trkpt lat="42.5845530" lon="-8.6455520">
        <ele>25.7</ele>
        <time>2021-05-22T11:53:59Z</time>
      </trkpt>
      <trkpt lat="42.5845570" lon="-8.6455600">
        <ele>25.7</ele>
        <time>2021-05-22T11:54:00Z</time>
      </trkpt>
      <trkpt lat="42.5845690" lon="-8.6455770">
        <ele>25.7</ele>
        <time>2021-05-22T11:54:01Z</time>
      </trkpt>
      <trkpt lat="42.5845730" lon="-8.6455840">
        <ele>25.7</ele>
        <time>2021-05-22T11:54:02Z</time>
      </trkpt>
      <trkpt lat="42.5845780" lon="-8.6455910">
        <ele>25.7</ele>
        <time>2021-05-22T11:54:03Z</time>
      </trkpt>
      <trkpt lat="42.5845920" lon="-8.6456150">
        <ele>25.7</ele>
        <time>2021-05-22T11:54:04Z</time>
      </trkpt>
      <trkpt lat="42.5845980" lon="-8.6456240">
        <ele>25.6</ele>
        <time>2021-05-22T11:54:05Z</time>
      </trkpt>
      <trkpt lat="42.5846030" lon="-8.6456320">
        <ele>25.6</ele>
        <time>2021-05-22T11:54:06Z</time>
      </trkpt>
      <trkpt lat="42.5846240" lon="-8.6456500">
        <ele>25.6</ele>
        <time>2021-05-22T11:54:07Z</time>
      </trkpt>
      <trkpt lat="42.5846300" lon="-8.6456560">
        <ele>25.6</ele>
        <time>2021-05-22T11:54:08Z</time>
      </trkpt>
      <trkpt lat="42.5846360" lon="-8.6456630">
        <ele>25.6</ele>
        <time>2021-05-22T11:54:09Z</time>
      </trkpt>
      <trkpt lat="42.5846420" lon="-8.6456670">
        <ele>25.6</ele>
        <time>2021-05-22T11:54:10Z</time>
      </trkpt>
      <trkpt lat="42.5846540" lon="-8.6456770">
        <ele>25.6</ele>
        <time>2021-05-22T11:54:11Z</time>
      </trkpt>
      <trkpt lat="42.5846640" lon="-8.6456820">
        <ele>25.6</ele>
        <time>2021-05-22T11:54:12Z</time>
      </trkpt>
      <trkpt lat="42.5846770" lon="-8.6456920">
        <ele>25.6</ele>
        <time>2021-05-22T11:54:13Z</time>
      </trkpt>
      <trkpt lat="42.5846880" lon="-8.6457010">
        <ele>25.6</ele>
        <time>2021-05-22T11:54:14Z</time>
      </trkpt>
      <trkpt lat="42.5847010" lon="-8.6457090">
        <ele>25.6</ele>
        <time>2021-05-22T11:54:15Z</time>
      </trkpt>
      <trkpt lat="42.5847120" lon="-8.6457180">
        <ele>25.5</ele>
        <time>2021-05-22T11:54:16Z</time>
      </trkpt>
      <trkpt lat="42.5847190" lon="-8.6457170">
        <ele>25.5</ele>
        <time>2021-05-22T11:54:17Z</time>
      </trkpt>
      <trkpt lat="42.5847320" lon="-8.6457290">
        <ele>25.5</ele>
        <time>2021-05-22T11:54:18Z</time>
      </trkpt>
      <trkpt lat="42.5847420" lon="-8.6457400">
        <ele>25.5</ele>
        <time>2021-05-22T11:54:19Z</time>
      </trkpt>
      <trkpt lat="42.5847600" lon="-8.6457510">
        <ele>25.5</ele>
        <time>2021-05-22T11:54:20Z</time>
      </trkpt>
      <trkpt lat="42.5847690" lon="-8.6457600">
        <ele>25.5</ele>
        <time>2021-05-22T11:54:21Z</time>
      </trkpt>
      <trkpt lat="42.5847770" lon="-8.6457680">
        <ele>25.5</ele>
        <time>2021-05-22T11:54:22Z</time>
      </trkpt>
      <trkpt lat="42.5847890" lon="-8.6457710">
        <ele>25.5</ele>
        <time>2021-05-22T11:54:23Z</time>
      </trkpt>
      <trkpt lat="42.5848020" lon="-8.6457720">
        <ele>25.5</ele>
        <time>2021-05-22T11:54:24Z</time>
      </trkpt>
      <trkpt lat="42.5848120" lon="-8.6457770">
        <ele>25.5</ele>
        <time>2021-05-22T11:54:25Z</time>
      </trkpt>
      <trkpt lat="42.5848240" lon="-8.6457800">
        <ele>25.5</ele>
        <time>2021-05-22T11:54:26Z</time>
      </trkpt>
      <trkpt lat="42.5848310" lon="-8.6457880">
        <ele>25.5</ele>
        <time>2021-05-22T11:54:27Z</time>
      </trkpt>
      <trkpt lat="42.5848440" lon="-8.6457940">
        <ele>25.5</ele>
        <time>2021-05-22T11:54:28Z</time>
      </trkpt>
      <trkpt lat="42.5848620" lon="-8.6458060">
        <ele>25.5</ele>
        <time>2021-05-22T11:54:29Z</time>
      </trkpt>
      <trkpt lat="42.5848690" lon="-8.6458120">
        <ele>25.5</ele>
        <time>2021-05-22T11:54:30Z</time>
      </trkpt>
      <trkpt lat="42.5848770" lon="-8.6458170">
        <ele>25.4</ele>
        <time>2021-05-22T11:54:31Z</time>
      </trkpt>
      <trkpt lat="42.5848910" lon="-8.6458190">
        <ele>25.4</ele>
        <time>2021-05-22T11:54:32Z</time>
      </trkpt>
      <trkpt lat="42.5849050" lon="-8.6458260">
        <ele>25.4</ele>
        <time>2021-05-22T11:54:33Z</time>
      </trkpt>
      <trkpt lat="42.5849190" lon="-8.6458280">
        <ele>25.4</ele>
        <time>2021-05-22T11:54:34Z</time>
      </trkpt>
      <trkpt lat="42.5849340" lon="-8.6458220">
        <ele>25.4</ele>
        <time>2021-05-22T11:54:35Z</time>
      </trkpt>
      <trkpt lat="42.5849560" lon="-8.6458210">
        <ele>25.4</ele>
        <time>2021-05-22T11:54:36Z</time>
      </trkpt>
      <trkpt lat="42.5849640" lon="-8.6458230">
        <ele>25.4</ele>
        <time>2021-05-22T11:54:37Z</time>
      </trkpt>
      <trkpt lat="42.5849710" lon="-8.6458250">
        <ele>25.4</ele>
        <time>2021-05-22T11:54:38Z</time>
      </trkpt>
      <trkpt lat="42.5849820" lon="-8.6458310">
        <ele>25.4</ele>
        <time>2021-05-22T11:54:39Z</time>
      </trkpt>
      <trkpt lat="42.5849970" lon="-8.6458320">
        <ele>25.4</ele>
        <time>2021-05-22T11:54:40Z</time>
      </trkpt>
      <trkpt lat="42.5850030" lon="-8.6458400">
        <ele>25.4</ele>
        <time>2021-05-22T11:54:41Z</time>
      </trkpt>
      <trkpt lat="42.5850170" lon="-8.6458430">
        <ele>25.4</ele>
        <time>2021-05-22T11:54:42Z</time>
      </trkpt>
      <trkpt lat="42.5850270" lon="-8.6458440">
        <ele>25.4</ele>
        <time>2021-05-22T11:54:43Z</time>
      </trkpt>
      <trkpt lat="42.5850370" lon="-8.6458470">
        <ele>25.4</ele>
        <time>2021-05-22T11:54:44Z</time>
      </trkpt>
      <trkpt lat="42.5850610" lon="-8.6458460">
        <ele>25.4</ele>
        <time>2021-05-22T11:54:45Z</time>
      </trkpt>
      <trkpt lat="42.5850700" lon="-8.6458420">
        <ele>25.4</ele>
        <time>2021-05-22T11:54:46Z</time>
      </trkpt>
      <trkpt lat="42.5850790" lon="-8.6458390">
        <ele>25.4</ele>
        <time>2021-05-22T11:54:47Z</time>
      </trkpt>
      <trkpt lat="42.5851010" lon="-8.6458410">
        <ele>25.4</ele>
        <time>2021-05-22T11:54:48Z</time>
      </trkpt>
      <trkpt lat="42.5851090" lon="-8.6458380">
        <ele>25.4</ele>
        <time>2021-05-22T11:54:49Z</time>
      </trkpt>
      <trkpt lat="42.5851160" lon="-8.6458360">
        <ele>25.4</ele>
        <time>2021-05-22T11:54:50Z</time>
      </trkpt>
      <trkpt lat="42.5851340" lon="-8.6458340">
        <ele>25.4</ele>
        <time>2021-05-22T11:54:51Z</time>
      </trkpt>
      <trkpt lat="42.5851450" lon="-8.6458330">
        <ele>25.4</ele>
        <time>2021-05-22T11:54:52Z</time>
      </trkpt>
      <trkpt lat="42.5851600" lon="-8.6458320">
        <ele>25.4</ele>
        <time>2021-05-22T11:54:53Z</time>
      </trkpt>
      <trkpt lat="42.5851670" lon="-8.6458340">
        <ele>25.4</ele>
        <time>2021-05-22T11:54:54Z</time>
      </trkpt>
      <trkpt lat="42.5851760" lon="-8.6458270">
        <ele>25.4</ele>
        <time>2021-05-22T11:54:55Z</time>
      </trkpt>
      <trkpt lat="42.5851880" lon="-8.6458280">
        <ele>25.4</ele>
        <time>2021-05-22T11:54:56Z</time>
      </trkpt>
      <trkpt lat="42.5852050" lon="-8.6458250">
        <ele>25.4</ele>
        <time>2021-05-22T11:54:57Z</time>
      </trkpt>
      <trkpt lat="42.5852210" lon="-8.6458230">
        <ele>25.4</ele>
        <time>2021-05-22T11:54:58Z</time>
      </trkpt>
      <trkpt lat="42.5852340" lon="-8.6458230">
        <ele>25.4</ele>
        <time>2021-05-22T11:54:59Z</time>
      </trkpt>
      <trkpt lat="42.5852510" lon="-8.6458230">
        <ele>25.4</ele>
        <time>2021-05-22T11:55:00Z</time>
      </trkpt>
      <trkpt lat="42.5852610" lon="-8.6458200">
        <ele>25.4</ele>
        <time>2021-05-22T11:55:01Z</time>
      </trkpt>
      <trkpt lat="42.5852750" lon="-8.6458230">
        <ele>25.4</ele>
        <time>2021-05-22T11:55:02Z</time>
      </trkpt>
      <trkpt lat="42.5852930" lon="-8.6458290">
        <ele>25.4</ele>
        <time>2021-05-22T11:55:03Z</time>
      </trkpt>
      <trkpt lat="42.5853180" lon="-8.6458240">
        <ele>25.4</ele>
        <time>2021-05-22T11:55:04Z</time>
      </trkpt>
      <trkpt lat="42.5853250" lon="-8.6458260">
        <ele>25.4</ele>
        <time>2021-05-22T11:55:05Z</time>
      </trkpt>
      <trkpt lat="42.5853330" lon="-8.6458270">
        <ele>25.5</ele>
        <time>2021-05-22T11:55:06Z</time>
      </trkpt>
      <trkpt lat="42.5853530" lon="-8.6458250">
        <ele>25.5</ele>
        <time>2021-05-22T11:55:07Z</time>
      </trkpt>
      <trkpt lat="42.5853620" lon="-8.6458260">
        <ele>25.5</ele>
        <time>2021-05-22T11:55:08Z</time>
      </trkpt>
      <trkpt lat="42.5853710" lon="-8.6458260">
        <ele>25.5</ele>
        <time>2021-05-22T11:55:09Z</time>
      </trkpt>
      <trkpt lat="42.5853960" lon="-8.6458340">
        <ele>25.5</ele>
        <time>2021-05-22T11:55:10Z</time>
      </trkpt>
      <trkpt lat="42.5854020" lon="-8.6458330">
        <ele>25.5</ele>
        <time>2021-05-22T11:55:11Z</time>
      </trkpt>
      <trkpt lat="42.5854090" lon="-8.6458330">
        <ele>25.5</ele>
        <time>2021-05-22T11:55:12Z</time>
      </trkpt>
      <trkpt lat="42.5854220" lon="-8.6458230">
        <ele>25.5</ele>
        <time>2021-05-22T11:55:13Z</time>
      </trkpt>
      <trkpt lat="42.5854400" lon="-8.6458260">
        <ele>25.5</ele>
        <time>2021-05-22T11:55:14Z</time>
      </trkpt>
      <trkpt lat="42.5854450" lon="-8.6458210">
        <ele>25.5</ele>
        <time>2021-05-22T11:55:15Z</time>
      </trkpt>
      <trkpt lat="42.5854610" lon="-8.6458230">
        <ele>25.5</ele>
        <time>2021-05-22T11:55:16Z</time>
      </trkpt>
      <trkpt lat="42.5854730" lon="-8.6458250">
        <ele>25.5</ele>
        <time>2021-05-22T11:55:17Z</time>
      </trkpt>
      <trkpt lat="42.5854870" lon="-8.6458210">
        <ele>25.5</ele>
        <time>2021-05-22T11:55:18Z</time>
      </trkpt>
      <trkpt lat="42.5854900" lon="-8.6458230">
        <ele>25.5</ele>
        <time>2021-05-22T11:55:19Z</time>
      </trkpt>
      <trkpt lat="42.5854930" lon="-8.6458240">
        <ele>25.5</ele>
        <time>2021-05-22T11:55:20Z</time>
      </trkpt>
      <trkpt lat="42.5854950" lon="-8.6458260">
        <ele>25.5</ele>
        <time>2021-05-22T11:55:21Z</time>
      </trkpt>
      <trkpt lat="42.5854980" lon="-8.6458270">
        <ele>25.5</ele>
        <time>2021-05-22T11:55:22Z</time>
      </trkpt>
      <trkpt lat="42.5855010" lon="-8.6458290">
        <ele>25.5</ele>
        <time>2021-05-22T11:55:23Z</time>
      </trkpt>
      <trkpt lat="42.5855040" lon="-8.6458300">
        <ele>25.5</ele>
        <time>2021-05-22T11:55:24Z</time>
      </trkpt>
      <trkpt lat="42.5855070" lon="-8.6458320">
        <ele>25.5</ele>
        <time>2021-05-22T11:55:25Z</time>
      </trkpt>
      <trkpt lat="42.5855100" lon="-8.6458330">
        <ele>25.5</ele>
        <time>2021-05-22T11:55:26Z</time>
      </trkpt>
      <trkpt lat="42.5855120" lon="-8.6458350">
        <ele>25.5</ele>
        <time>2021-05-22T11:55:27Z</time>
      </trkpt>
      <trkpt lat="42.5855150" lon="-8.6458360">
        <ele>25.5</ele>
        <time>2021-05-22T11:55:28Z</time>
      </trkpt>
      <trkpt lat="42.5855180" lon="-8.6458380">
        <ele>25.5</ele>
        <time>2021-05-22T11:55:29Z</time>
      </trkpt>
      <trkpt lat="42.5855280" lon="-8.6458330">
        <ele>25.5</ele>
        <time>2021-05-22T11:55:30Z</time>
      </trkpt>
      <trkpt lat="42.5855370" lon="-8.6458340">
        <ele>25.5</ele>
        <time>2021-05-22T11:55:31Z</time>
      </trkpt>
      <trkpt lat="42.5855490" lon="-8.6458330">
        <ele>25.5</ele>
        <time>2021-05-22T11:55:32Z</time>
      </trkpt>
      <trkpt lat="42.5855600" lon="-8.6458300">
        <ele>25.5</ele>
        <time>2021-05-22T11:55:33Z</time>
      </trkpt>
      <trkpt lat="42.5855670" lon="-8.6458240">
        <ele>25.5</ele>
        <time>2021-05-22T11:55:34Z</time>
      </trkpt>
      <trkpt lat="42.5855740" lon="-8.6458130">
        <ele>25.5</ele>
        <time>2021-05-22T11:55:35Z</time>
      </trkpt>
      <trkpt lat="42.5855880" lon="-8.6458080">
        <ele>25.5</ele>
        <time>2021-05-22T11:55:36Z</time>
      </trkpt>
      <trkpt lat="42.5856010" lon="-8.6458110">
        <ele>25.5</ele>
        <time>2021-05-22T11:55:37Z</time>
      </trkpt>
      <trkpt lat="42.5856070" lon="-8.6458070">
        <ele>25.5</ele>
        <time>2021-05-22T11:55:38Z</time>
      </trkpt>
      <trkpt lat="42.5856210" lon="-8.6458070">
        <ele>25.5</ele>
        <time>2021-05-22T11:55:39Z</time>
      </trkpt>
      <trkpt lat="42.5856320" lon="-8.6458060">
        <ele>25.5</ele>
        <time>2021-05-22T11:55:40Z</time>
      </trkpt>
      <trkpt lat="42.5856390" lon="-8.6458030">
        <ele>25.5</ele>
        <time>2021-05-22T11:55:41Z</time>
      </trkpt>
      <trkpt lat="42.5856590" lon="-8.6457960">
        <ele>25.5</ele>
        <time>2021-05-22T11:55:42Z</time>
      </trkpt>
      <trkpt lat="42.5856670" lon="-8.6457950">
        <ele>25.5</ele>
        <time>2021-05-22T11:55:43Z</time>
      </trkpt>
      <trkpt lat="42.5856750" lon="-8.6457930">
        <ele>25.5</ele>
        <time>2021-05-22T11:55:44Z</time>
      </trkpt>
      <trkpt lat="42.5856880" lon="-8.6457850">
        <ele>25.5</ele>
        <time>2021-05-22T11:55:45Z</time>
      </trkpt>
      <trkpt lat="42.5856960" lon="-8.6457820">
        <ele>25.5</ele>
        <time>2021-05-22T11:55:46Z</time>
      </trkpt>
      <trkpt lat="42.5857080" lon="-8.6457850">
        <ele>25.5</ele>
        <time>2021-05-22T11:55:47Z</time>
      </trkpt>
      <trkpt lat="42.5857310" lon="-8.6457830">
        <ele>25.6</ele>
        <time>2021-05-22T11:55:48Z</time>
      </trkpt>
      <trkpt lat="42.5857390" lon="-8.6457830">
        <ele>25.6</ele>
        <time>2021-05-22T11:55:49Z</time>
      </trkpt>
      <trkpt lat="42.5857470" lon="-8.6457830">
        <ele>25.6</ele>
        <time>2021-05-22T11:55:50Z</time>
      </trkpt>
      <trkpt lat="42.5857590" lon="-8.6457800">
        <ele>25.6</ele>
        <time>2021-05-22T11:55:51Z</time>
      </trkpt>
      <trkpt lat="42.5857670" lon="-8.6457820">
        <ele>25.6</ele>
        <time>2021-05-22T11:55:52Z</time>
      </trkpt>
      <trkpt lat="42.5857780" lon="-8.6457830">
        <ele>25.6</ele>
        <time>2021-05-22T11:55:53Z</time>
      </trkpt>
      <trkpt lat="42.5857900" lon="-8.6457840">
        <ele>25.6</ele>
        <time>2021-05-22T11:55:54Z</time>
      </trkpt>
      <trkpt lat="42.5857980" lon="-8.6457850">
        <ele>25.6</ele>
        <time>2021-05-22T11:55:55Z</time>
      </trkpt>
      <trkpt lat="42.5858080" lon="-8.6457810">
        <ele>25.6</ele>
        <time>2021-05-22T11:55:56Z</time>
      </trkpt>
      <trkpt lat="42.5858300" lon="-8.6457870">
        <ele>25.6</ele>
        <time>2021-05-22T11:55:57Z</time>
      </trkpt>
      <trkpt lat="42.5858380" lon="-8.6457890">
        <ele>25.6</ele>
        <time>2021-05-22T11:55:58Z</time>
      </trkpt>
      <trkpt lat="42.5858470" lon="-8.6457920">
        <ele>25.6</ele>
        <time>2021-05-22T11:55:59Z</time>
      </trkpt>
      <trkpt lat="42.5858610" lon="-8.6457950">
        <ele>25.6</ele>
        <time>2021-05-22T11:56:00Z</time>
      </trkpt>
      <trkpt lat="42.5858710" lon="-8.6458010">
        <ele>25.6</ele>
        <time>2021-05-22T11:56:01Z</time>
      </trkpt>
      <trkpt lat="42.5858790" lon="-8.6457980">
        <ele>25.6</ele>
        <time>2021-05-22T11:56:02Z</time>
      </trkpt>
      <trkpt lat="42.5858910" lon="-8.6458020">
        <ele>25.6</ele>
        <time>2021-05-22T11:56:03Z</time>
      </trkpt>
      <trkpt lat="42.5859010" lon="-8.6457990">
        <ele>25.6</ele>
        <time>2021-05-22T11:56:04Z</time>
      </trkpt>
      <trkpt lat="42.5859090" lon="-8.6458010">
        <ele>25.6</ele>
        <time>2021-05-22T11:56:05Z</time>
      </trkpt>
      <trkpt lat="42.5859210" lon="-8.6458020">
        <ele>25.6</ele>
        <time>2021-05-22T11:56:06Z</time>
      </trkpt>
      <trkpt lat="42.5859300" lon="-8.6458070">
        <ele>25.6</ele>
        <time>2021-05-22T11:56:07Z</time>
      </trkpt>
      <trkpt lat="42.5859420" lon="-8.6458140">
        <ele>25.6</ele>
        <time>2021-05-22T11:56:08Z</time>
      </trkpt>
      <trkpt lat="42.5859560" lon="-8.6458180">
        <ele>25.6</ele>
        <time>2021-05-22T11:56:09Z</time>
      </trkpt>
      <trkpt lat="42.5859660" lon="-8.6458240">
        <ele>25.6</ele>
        <time>2021-05-22T11:56:10Z</time>
      </trkpt>
      <trkpt lat="42.5859760" lon="-8.6458210">
        <ele>25.7</ele>
        <time>2021-05-22T11:56:11Z</time>
      </trkpt>
      <trkpt lat="42.5859840" lon="-8.6458220">
        <ele>25.7</ele>
        <time>2021-05-22T11:56:12Z</time>
      </trkpt>
      <trkpt lat="42.5859930" lon="-8.6458270">
        <ele>25.7</ele>
        <time>2021-05-22T11:56:13Z</time>
      </trkpt>
      <trkpt lat="42.5860100" lon="-8.6458320">
        <ele>25.7</ele>
        <time>2021-05-22T11:56:14Z</time>
      </trkpt>
      <trkpt lat="42.5860170" lon="-8.6458330">
        <ele>25.7</ele>
        <time>2021-05-22T11:56:15Z</time>
      </trkpt>
      <trkpt lat="42.5860290" lon="-8.6458360">
        <ele>25.7</ele>
        <time>2021-05-22T11:56:16Z</time>
      </trkpt>
      <trkpt lat="42.5860400" lon="-8.6458360">
        <ele>25.7</ele>
        <time>2021-05-22T11:56:17Z</time>
      </trkpt>
      <trkpt lat="42.5860530" lon="-8.6458470">
        <ele>25.7</ele>
        <time>2021-05-22T11:56:18Z</time>
      </trkpt>
      <trkpt lat="42.5860590" lon="-8.6458520">
        <ele>25.7</ele>
        <time>2021-05-22T11:56:19Z</time>
      </trkpt>
      <trkpt lat="42.5860730" lon="-8.6458560">
        <ele>25.7</ele>
        <time>2021-05-22T11:56:20Z</time>
      </trkpt>
      <trkpt lat="42.5860890" lon="-8.6458620">
        <ele>25.7</ele>
        <time>2021-05-22T11:56:21Z</time>
      </trkpt>
      <trkpt lat="42.5860950" lon="-8.6458640">
        <ele>25.7</ele>
        <time>2021-05-22T11:56:22Z</time>
      </trkpt>
      <trkpt lat="42.5861020" lon="-8.6458670">
        <ele>25.7</ele>
        <time>2021-05-22T11:56:23Z</time>
      </trkpt>
      <trkpt lat="42.5861080" lon="-8.6458700">
        <ele>25.8</ele>
        <time>2021-05-22T11:56:24Z</time>
      </trkpt>
      <trkpt lat="42.5861260" lon="-8.6458760">
        <ele>25.8</ele>
        <time>2021-05-22T11:56:25Z</time>
      </trkpt>
      <trkpt lat="42.5861330" lon="-8.6458790">
        <ele>25.8</ele>
        <time>2021-05-22T11:56:26Z</time>
      </trkpt>
      <trkpt lat="42.5861390" lon="-8.6458820">
        <ele>25.8</ele>
        <time>2021-05-22T11:56:27Z</time>
      </trkpt>
      <trkpt lat="42.5861450" lon="-8.6458850">
        <ele>25.8</ele>
        <time>2021-05-22T11:56:28Z</time>
      </trkpt>
      <trkpt lat="42.5861560" lon="-8.6458820">
        <ele>25.8</ele>
        <time>2021-05-22T11:56:29Z</time>
      </trkpt>
      <trkpt lat="42.5861660" lon="-8.6458810">
        <ele>25.8</ele>
        <time>2021-05-22T11:56:30Z</time>
      </trkpt>
      <trkpt lat="42.5861800" lon="-8.6458880">
        <ele>25.8</ele>
        <time>2021-05-22T11:56:31Z</time>
      </trkpt>
      <trkpt lat="42.5861950" lon="-8.6458860">
        <ele>25.9</ele>
        <time>2021-05-22T11:56:32Z</time>
      </trkpt>
      <trkpt lat="42.5862040" lon="-8.6458860">
        <ele>25.9</ele>
        <time>2021-05-22T11:56:33Z</time>
      </trkpt>
      <trkpt lat="42.5862100" lon="-8.6458800">
        <ele>25.9</ele>
        <time>2021-05-22T11:56:34Z</time>
      </trkpt>
      <trkpt lat="42.5862290" lon="-8.6458820">
        <ele>25.9</ele>
        <time>2021-05-22T11:56:35Z</time>
      </trkpt>
      <trkpt lat="42.5862380" lon="-8.6458840">
        <ele>25.9</ele>
        <time>2021-05-22T11:56:36Z</time>
      </trkpt>
      <trkpt lat="42.5862460" lon="-8.6458870">
        <ele>25.9</ele>
        <time>2021-05-22T11:56:37Z</time>
      </trkpt>
      <trkpt lat="42.5862600" lon="-8.6458860">
        <ele>25.9</ele>
        <time>2021-05-22T11:56:38Z</time>
      </trkpt>
      <trkpt lat="42.5862750" lon="-8.6458900">
        <ele>25.9</ele>
        <time>2021-05-22T11:56:39Z</time>
      </trkpt>
      <trkpt lat="42.5862910" lon="-8.6458880">
        <ele>26.0</ele>
        <time>2021-05-22T11:56:40Z</time>
      </trkpt>
      <trkpt lat="42.5863070" lon="-8.6458900">
        <ele>26.0</ele>
        <time>2021-05-22T11:56:41Z</time>
      </trkpt>
      <trkpt lat="42.5863200" lon="-8.6458930">
        <ele>26.0</ele>
        <time>2021-05-22T11:56:42Z</time>
      </trkpt>
      <trkpt lat="42.5863390" lon="-8.6458950">
        <ele>26.0</ele>
        <time>2021-05-22T11:56:43Z</time>
      </trkpt>
      <trkpt lat="42.5863590" lon="-8.6458960">
        <ele>26.0</ele>
        <time>2021-05-22T11:56:44Z</time>
      </trkpt>
      <trkpt lat="42.5863690" lon="-8.6458970">
        <ele>26.0</ele>
        <time>2021-05-22T11:56:45Z</time>
      </trkpt>
      <trkpt lat="42.5863780" lon="-8.6458990">
        <ele>26.0</ele>
        <time>2021-05-22T11:56:46Z</time>
      </trkpt>
      <trkpt lat="42.5863910" lon="-8.6459030">
        <ele>26.0</ele>
        <time>2021-05-22T11:56:47Z</time>
      </trkpt>
      <trkpt lat="42.5864020" lon="-8.6459030">
        <ele>26.1</ele>
        <time>2021-05-22T11:56:48Z</time>
      </trkpt>
      <trkpt lat="42.5864090" lon="-8.6459040">
        <ele>26.1</ele>
        <time>2021-05-22T11:56:49Z</time>
      </trkpt>
      <trkpt lat="42.5864140" lon="-8.6458970">
        <ele>26.1</ele>
        <time>2021-05-22T11:56:50Z</time>
      </trkpt>
      <trkpt lat="42.5864280" lon="-8.6458940">
        <ele>26.1</ele>
        <time>2021-05-22T11:56:51Z</time>
      </trkpt>
      <trkpt lat="42.5864400" lon="-8.6458890">
        <ele>26.1</ele>
        <time>2021-05-22T11:56:52Z</time>
      </trkpt>
      <trkpt lat="42.5864620" lon="-8.6458830">
        <ele>26.1</ele>
        <time>2021-05-22T11:56:53Z</time>
      </trkpt>
      <trkpt lat="42.5864720" lon="-8.6458820">
        <ele>26.1</ele>
        <time>2021-05-22T11:56:54Z</time>
      </trkpt>
      <trkpt lat="42.5864820" lon="-8.6458810">
        <ele>26.1</ele>
        <time>2021-05-22T11:56:55Z</time>
      </trkpt>
      <trkpt lat="42.5865040" lon="-8.6458750">
        <ele>26.1</ele>
        <time>2021-05-22T11:56:56Z</time>
      </trkpt>
      <trkpt lat="42.5865130" lon="-8.6458720">
        <ele>26.2</ele>
        <time>2021-05-22T11:56:57Z</time>
      </trkpt>
      <trkpt lat="42.5865210" lon="-8.6458700">
        <ele>26.2</ele>
        <time>2021-05-22T11:56:58Z</time>
      </trkpt>
      <trkpt lat="42.5865350" lon="-8.6458680">
        <ele>26.2</ele>
        <time>2021-05-22T11:56:59Z</time>
      </trkpt>
      <trkpt lat="42.5865480" lon="-8.6458650">
        <ele>26.2</ele>
        <time>2021-05-22T11:57:00Z</time>
      </trkpt>
      <trkpt lat="42.5865680" lon="-8.6458610">
        <ele>26.2</ele>
        <time>2021-05-22T11:57:01Z</time>
      </trkpt>
      <trkpt lat="42.5865780" lon="-8.6458600">
        <ele>26.2</ele>
        <time>2021-05-22T11:57:02Z</time>
      </trkpt>
      <trkpt lat="42.5865870" lon="-8.6458600">
        <ele>26.2</ele>
        <time>2021-05-22T11:57:03Z</time>
      </trkpt>
      <trkpt lat="42.5865950" lon="-8.6458530">
        <ele>26.2</ele>
        <time>2021-05-22T11:57:04Z</time>
      </trkpt>
      <trkpt lat="42.5866070" lon="-8.6458480">
        <ele>26.2</ele>
        <time>2021-05-22T11:57:05Z</time>
      </trkpt>
      <trkpt lat="42.5866180" lon="-8.6458450">
        <ele>26.3</ele>
        <time>2021-05-22T11:57:06Z</time>
      </trkpt>
      <trkpt lat="42.5866330" lon="-8.6458320">
        <ele>26.3</ele>
        <time>2021-05-22T11:57:07Z</time>
      </trkpt>
      <trkpt lat="42.5866430" lon="-8.6458260">
        <ele>26.3</ele>
        <time>2021-05-22T11:57:08Z</time>
      </trkpt>
      <trkpt lat="42.5866520" lon="-8.6458200">
        <ele>26.3</ele>
        <time>2021-05-22T11:57:09Z</time>
      </trkpt>
      <trkpt lat="42.5866610" lon="-8.6458120">
        <ele>26.3</ele>
        <time>2021-05-22T11:57:10Z</time>
      </trkpt>
      <trkpt lat="42.5866780" lon="-8.6457950">
        <ele>26.3</ele>
        <time>2021-05-22T11:57:11Z</time>
      </trkpt>
      <trkpt lat="42.5866920" lon="-8.6457800">
        <ele>26.4</ele>
        <time>2021-05-22T11:57:12Z</time>
      </trkpt>
      <trkpt lat="42.5867010" lon="-8.6457710">
        <ele>26.4</ele>
        <time>2021-05-22T11:57:13Z</time>
      </trkpt>
      <trkpt lat="42.5867100" lon="-8.6457620">
        <ele>26.4</ele>
        <time>2021-05-22T11:57:14Z</time>
      </trkpt>
      <trkpt lat="42.5867270" lon="-8.6457450">
        <ele>26.4</ele>
        <time>2021-05-22T11:57:15Z</time>
      </trkpt>
      <trkpt lat="42.5867340" lon="-8.6457370">
        <ele>26.5</ele>
        <time>2021-05-22T11:57:16Z</time>
      </trkpt>
      <trkpt lat="42.5867420" lon="-8.6457290">
        <ele>26.5</ele>
        <time>2021-05-22T11:57:17Z</time>
      </trkpt>
      <trkpt lat="42.5867510" lon="-8.6457220">
        <ele>26.5</ele>
        <time>2021-05-22T11:57:18Z</time>
      </trkpt>
      <trkpt lat="42.5867630" lon="-8.6457130">
        <ele>26.5</ele>
        <time>2021-05-22T11:57:19Z</time>
      </trkpt>
      <trkpt lat="42.5867730" lon="-8.6457030">
        <ele>26.5</ele>
        <time>2021-05-22T11:57:20Z</time>
      </trkpt>
      <trkpt lat="42.5867830" lon="-8.6456920">
        <ele>26.5</ele>
        <time>2021-05-22T11:57:21Z</time>
      </trkpt>
      <trkpt lat="42.5867910" lon="-8.6456800">
        <ele>26.5</ele>
        <time>2021-05-22T11:57:22Z</time>
      </trkpt>
      <trkpt lat="42.5868010" lon="-8.6456730">
        <ele>26.6</ele>
        <time>2021-05-22T11:57:23Z</time>
      </trkpt>
      <trkpt lat="42.5868090" lon="-8.6456570">
        <ele>26.6</ele>
        <time>2021-05-22T11:57:24Z</time>
      </trkpt>
      <trkpt lat="42.5868230" lon="-8.6456490">
        <ele>26.6</ele>
        <time>2021-05-22T11:57:25Z</time>
      </trkpt>
      <trkpt lat="42.5868310" lon="-8.6456370">
        <ele>26.6</ele>
        <time>2021-05-22T11:57:26Z</time>
      </trkpt>
      <trkpt lat="42.5868410" lon="-8.6456340">
        <ele>26.6</ele>
        <time>2021-05-22T11:57:27Z</time>
      </trkpt>
      <trkpt lat="42.5868530" lon="-8.6456270">
        <ele>26.6</ele>
        <time>2021-05-22T11:57:28Z</time>
      </trkpt>
      <trkpt lat="42.5868710" lon="-8.6456170">
        <ele>26.7</ele>
        <time>2021-05-22T11:57:29Z</time>
      </trkpt>
      <trkpt lat="42.5868800" lon="-8.6456140">
        <ele>26.7</ele>
        <time>2021-05-22T11:57:30Z</time>
      </trkpt>
      <trkpt lat="42.5868880" lon="-8.6456110">
        <ele>26.7</ele>
        <time>2021-05-22T11:57:31Z</time>
      </trkpt>
      <trkpt lat="42.5868970" lon="-8.6456040">
        <ele>26.7</ele>
        <time>2021-05-22T11:57:32Z</time>
      </trkpt>
      <trkpt lat="42.5869070" lon="-8.6456040">
        <ele>26.7</ele>
        <time>2021-05-22T11:57:33Z</time>
      </trkpt>
      <trkpt lat="42.5869130" lon="-8.6456020">
        <ele>26.7</ele>
        <time>2021-05-22T11:57:34Z</time>
      </trkpt>
      <trkpt lat="42.5869220" lon="-8.6456050">
        <ele>26.7</ele>
        <time>2021-05-22T11:57:35Z</time>
      </trkpt>
      <trkpt lat="42.5869290" lon="-8.6456020">
        <ele>26.7</ele>
        <time>2021-05-22T11:57:36Z</time>
      </trkpt>
      <trkpt lat="42.5869260" lon="-8.6456060">
        <ele>26.7</ele>
        <time>2021-05-22T11:57:37Z</time>
      </trkpt>
      <trkpt lat="42.5869280" lon="-8.6456020">
        <ele>26.7</ele>
        <time>2021-05-22T11:57:38Z</time>
      </trkpt>
      <trkpt lat="42.5869320" lon="-8.6456060">
        <ele>26.8</ele>
        <time>2021-05-22T11:57:39Z</time>
      </trkpt>
      <trkpt lat="42.5869340" lon="-8.6456070">
        <ele>26.8</ele>
        <time>2021-05-22T11:57:40Z</time>
      </trkpt>
      <trkpt lat="42.5869360" lon="-8.6456060">
        <ele>26.8</ele>
        <time>2021-05-22T11:57:41Z</time>
      </trkpt>
      <trkpt lat="42.5869390" lon="-8.6456120">
        <ele>26.8</ele>
        <time>2021-05-22T11:57:42Z</time>
      </trkpt>
      <trkpt lat="42.5869440" lon="-8.6456090">
        <ele>26.8</ele>
        <time>2021-05-22T11:57:43Z</time>
      </trkpt>
      <trkpt lat="42.5869500" lon="-8.6456040">
        <ele>26.8</ele>
        <time>2021-05-22T11:57:44Z</time>
      </trkpt>
      <trkpt lat="42.5869570" lon="-8.6456000">
        <ele>26.8</ele>
        <time>2021-05-22T11:57:45Z</time>
      </trkpt>
      <trkpt lat="42.5869640" lon="-8.6456010">
        <ele>26.8</ele>
        <time>2021-05-22T11:57:46Z</time>
      </trkpt>
      <trkpt lat="42.5869760" lon="-8.6455940">
        <ele>26.8</ele>
        <time>2021-05-22T11:57:47Z</time>
      </trkpt>
      <trkpt lat="42.5869740" lon="-8.6456090">
        <ele>26.8</ele>
        <time>2021-05-22T11:57:48Z</time>
      </trkpt>
      <trkpt lat="42.5869780" lon="-8.6456160">
        <ele>26.8</ele>
        <time>2021-05-22T11:57:49Z</time>
      </trkpt>
      <trkpt lat="42.5869830" lon="-8.6456080">
        <ele>26.8</ele>
        <time>2021-05-22T11:57:50Z</time>
      </trkpt>
      <trkpt lat="42.5869940" lon="-8.6456100">
        <ele>26.8</ele>
        <time>2021-05-22T11:57:51Z</time>
      </trkpt>
      <trkpt lat="42.5870060" lon="-8.6456040">
        <ele>26.9</ele>
        <time>2021-05-22T11:57:52Z</time>
      </trkpt>
      <trkpt lat="42.5870280" lon="-8.6455970">
        <ele>26.9</ele>
        <time>2021-05-22T11:57:53Z</time>
      </trkpt>
      <trkpt lat="42.5870360" lon="-8.6455950">
        <ele>26.9</ele>
        <time>2021-05-22T11:57:54Z</time>
      </trkpt>
      <trkpt lat="42.5870440" lon="-8.6455930">
        <ele>26.9</ele>
        <time>2021-05-22T11:57:55Z</time>
      </trkpt>
      <trkpt lat="42.5870550" lon="-8.6455860">
        <ele>26.9</ele>
        <time>2021-05-22T11:57:56Z</time>
      </trkpt>
      <trkpt lat="42.5870630" lon="-8.6455780">
        <ele>26.9</ele>
        <time>2021-05-22T11:57:57Z</time>
      </trkpt>
      <trkpt lat="42.5870780" lon="-8.6455740">
        <ele>26.9</ele>
        <time>2021-05-22T11:57:58Z</time>
      </trkpt>
      <trkpt lat="42.5870900" lon="-8.6455720">
        <ele>27.0</ele>
        <time>2021-05-22T11:57:59Z</time>
      </trkpt>
      <trkpt lat="42.5871040" lon="-8.6455710">
        <ele>27.0</ele>
        <time>2021-05-22T11:58:00Z</time>
      </trkpt>
      <trkpt lat="42.5871140" lon="-8.6455700">
        <ele>27.0</ele>
        <time>2021-05-22T11:58:01Z</time>
      </trkpt>
      <trkpt lat="42.5871220" lon="-8.6455650">
        <ele>27.0</ele>
        <time>2021-05-22T11:58:02Z</time>
      </trkpt>
      <trkpt lat="42.5871300" lon="-8.6455570">
        <ele>27.0</ele>
        <time>2021-05-22T11:58:03Z</time>
      </trkpt>
      <trkpt lat="42.5871440" lon="-8.6455520">
        <ele>27.0</ele>
        <time>2021-05-22T11:58:04Z</time>
      </trkpt>
      <trkpt lat="42.5871540" lon="-8.6455460">
        <ele>27.0</ele>
        <time>2021-05-22T11:58:05Z</time>
      </trkpt>
      <trkpt lat="42.5871620" lon="-8.6455390">
        <ele>27.0</ele>
        <time>2021-05-22T11:58:06Z</time>
      </trkpt>
      <trkpt lat="42.5871720" lon="-8.6455300">
        <ele>27.1</ele>
        <time>2021-05-22T11:58:07Z</time>
      </trkpt>
      <trkpt lat="42.5871810" lon="-8.6455290">
        <ele>27.1</ele>
        <time>2021-05-22T11:58:08Z</time>
      </trkpt>
      <trkpt lat="42.5871910" lon="-8.6455260">
        <ele>27.1</ele>
        <time>2021-05-22T11:58:09Z</time>
      </trkpt>
      <trkpt lat="42.5872040" lon="-8.6455210">
        <ele>27.1</ele>
        <time>2021-05-22T11:58:10Z</time>
      </trkpt>
      <trkpt lat="42.5872230" lon="-8.6455150">
        <ele>27.1</ele>
        <time>2021-05-22T11:58:11Z</time>
      </trkpt>
      <trkpt lat="42.5872320" lon="-8.6455130">
        <ele>27.2</ele>
        <time>2021-05-22T11:58:12Z</time>
      </trkpt>
      <trkpt lat="42.5872420" lon="-8.6455100">
        <ele>27.2</ele>
        <time>2021-05-22T11:58:13Z</time>
      </trkpt>
      <trkpt lat="42.5872620" lon="-8.6455040">
        <ele>27.2</ele>
        <time>2021-05-22T11:58:14Z</time>
      </trkpt>
      <trkpt lat="42.5872700" lon="-8.6455030">
        <ele>27.2</ele>
        <time>2021-05-22T11:58:15Z</time>
      </trkpt>
      <trkpt lat="42.5872780" lon="-8.6455010">
        <ele>27.2</ele>
        <time>2021-05-22T11:58:16Z</time>
      </trkpt>
      <trkpt lat="42.5872860" lon="-8.6454940">
        <ele>27.3</ele>
        <time>2021-05-22T11:58:17Z</time>
      </trkpt>
      <trkpt lat="42.5872960" lon="-8.6454920">
        <ele>27.3</ele>
        <time>2021-05-22T11:58:18Z</time>
      </trkpt>
      <trkpt lat="42.5873040" lon="-8.6454910">
        <ele>27.3</ele>
        <time>2021-05-22T11:58:19Z</time>
      </trkpt>
      <trkpt lat="42.5873120" lon="-8.6454910">
        <ele>27.3</ele>
        <time>2021-05-22T11:58:20Z</time>
      </trkpt>
      <trkpt lat="42.5873230" lon="-8.6454860">
        <ele>27.3</ele>
        <time>2021-05-22T11:58:21Z</time>
      </trkpt>
      <trkpt lat="42.5873330" lon="-8.6454840">
        <ele>27.3</ele>
        <time>2021-05-22T11:58:22Z</time>
      </trkpt>
      <trkpt lat="42.5873410" lon="-8.6454870">
        <ele>27.4</ele>
        <time>2021-05-22T11:58:23Z</time>
      </trkpt>
      <trkpt lat="42.5873590" lon="-8.6454790">
        <ele>27.4</ele>
        <time>2021-05-22T11:58:24Z</time>
      </trkpt>
      <trkpt lat="42.5873680" lon="-8.6454770">
        <ele>27.4</ele>
        <time>2021-05-22T11:58:25Z</time>
      </trkpt>
      <trkpt lat="42.5873780" lon="-8.6454740">
        <ele>27.4</ele>
        <time>2021-05-22T11:58:26Z</time>
      </trkpt>
      <trkpt lat="42.5873890" lon="-8.6454690">
        <ele>27.4</ele>
        <time>2021-05-22T11:58:27Z</time>
      </trkpt>
      <trkpt lat="42.5873990" lon="-8.6454660">
        <ele>27.5</ele>
        <time>2021-05-22T11:58:28Z</time>
      </trkpt>
      <trkpt lat="42.5874100" lon="-8.6454620">
        <ele>27.5</ele>
        <time>2021-05-22T11:58:29Z</time>
      </trkpt>
      <trkpt lat="42.5874290" lon="-8.6454450">
        <ele>27.5</ele>
        <time>2021-05-22T11:58:30Z</time>
      </trkpt>
      <trkpt lat="42.5874380" lon="-8.6454390">
        <ele>27.5</ele>
        <time>2021-05-22T11:58:31Z</time>
      </trkpt>
      <trkpt lat="42.5874480" lon="-8.6454320">
        <ele>27.6</ele>
        <time>2021-05-22T11:58:32Z</time>
      </trkpt>
      <trkpt lat="42.5874680" lon="-8.6454210">
        <ele>27.6</ele>
        <time>2021-05-22T11:58:33Z</time>
      </trkpt>
      <trkpt lat="42.5874760" lon="-8.6454190">
        <ele>27.6</ele>
        <time>2021-05-22T11:58:34Z</time>
      </trkpt>
      <trkpt lat="42.5874830" lon="-8.6454180">
        <ele>27.6</ele>
        <time>2021-05-22T11:58:35Z</time>
      </trkpt>
      <trkpt lat="42.5874920" lon="-8.6454200">
        <ele>27.6</ele>
        <time>2021-05-22T11:58:36Z</time>
      </trkpt>
      <trkpt lat="42.5875120" lon="-8.6454120">
        <ele>27.6</ele>
        <time>2021-05-22T11:58:37Z</time>
      </trkpt>
      <trkpt lat="42.5875280" lon="-8.6454110">
        <ele>27.6</ele>
        <time>2021-05-22T11:58:38Z</time>
      </trkpt>
      <trkpt lat="42.5875390" lon="-8.6454000">
        <ele>27.7</ele>
        <time>2021-05-22T11:58:39Z</time>
      </trkpt>
      <trkpt lat="42.5875520" lon="-8.6453940">
        <ele>27.7</ele>
        <time>2021-05-22T11:58:40Z</time>
      </trkpt>
      <trkpt lat="42.5875670" lon="-8.6453910">
        <ele>27.7</ele>
        <time>2021-05-22T11:58:41Z</time>
      </trkpt>
      <trkpt lat="42.5875810" lon="-8.6453910">
        <ele>27.7</ele>
        <time>2021-05-22T11:58:42Z</time>
      </trkpt>
      <trkpt lat="42.5875940" lon="-8.6453860">
        <ele>27.7</ele>
        <time>2021-05-22T11:58:43Z</time>
      </trkpt>
      <trkpt lat="42.5876120" lon="-8.6453850">
        <ele>27.7</ele>
        <time>2021-05-22T11:58:44Z</time>
      </trkpt>
      <trkpt lat="42.5876260" lon="-8.6453930">
        <ele>27.7</ele>
        <time>2021-05-22T11:58:45Z</time>
      </trkpt>
      <trkpt lat="42.5876470" lon="-8.6453930">
        <ele>27.7</ele>
        <time>2021-05-22T11:58:46Z</time>
      </trkpt>
      <trkpt lat="42.5876570" lon="-8.6453910">
        <ele>27.8</ele>
        <time>2021-05-22T11:58:47Z</time>
      </trkpt>
      <trkpt lat="42.5876670" lon="-8.6453900">
        <ele>27.8</ele>
        <time>2021-05-22T11:58:48Z</time>
      </trkpt>
      <trkpt lat="42.5876720" lon="-8.6453890">
        <ele>27.8</ele>
        <time>2021-05-22T11:58:49Z</time>
      </trkpt>
      <trkpt lat="42.5876860" lon="-8.6453860">
        <ele>27.8</ele>
        <time>2021-05-22T11:58:50Z</time>
      </trkpt>
      <trkpt lat="42.5877010" lon="-8.6453850">
        <ele>27.8</ele>
        <time>2021-05-22T11:58:51Z</time>
      </trkpt>
      <trkpt lat="42.5877210" lon="-8.6453790">
        <ele>27.8</ele>
        <time>2021-05-22T11:58:52Z</time>
      </trkpt>
      <trkpt lat="42.5877300" lon="-8.6453770">
        <ele>27.8</ele>
        <time>2021-05-22T11:58:53Z</time>
      </trkpt>
      <trkpt lat="42.5877380" lon="-8.6453750">
        <ele>27.8</ele>
        <time>2021-05-22T11:58:54Z</time>
      </trkpt>
      <trkpt lat="42.5877580" lon="-8.6453720">
        <ele>27.8</ele>
        <time>2021-05-22T11:58:55Z</time>
      </trkpt>
      <trkpt lat="42.5877670" lon="-8.6453670">
        <ele>27.8</ele>
        <time>2021-05-22T11:58:56Z</time>
      </trkpt>
      <trkpt lat="42.5877760" lon="-8.6453630">
        <ele>27.8</ele>
        <time>2021-05-22T11:58:57Z</time>
      </trkpt>
      <trkpt lat="42.5877940" lon="-8.6453540">
        <ele>27.8</ele>
        <time>2021-05-22T11:58:58Z</time>
      </trkpt>
      <trkpt lat="42.5878030" lon="-8.6453480">
        <ele>27.8</ele>
        <time>2021-05-22T11:58:59Z</time>
      </trkpt>
      <trkpt lat="42.5878110" lon="-8.6453420">
        <ele>27.8</ele>
        <time>2021-05-22T11:59:00Z</time>
      </trkpt>
      <trkpt lat="42.5878270" lon="-8.6453370">
        <ele>27.8</ele>
        <time>2021-05-22T11:59:01Z</time>
      </trkpt>
      <trkpt lat="42.5878390" lon="-8.6453350">
        <ele>27.8</ele>
        <time>2021-05-22T11:59:02Z</time>
      </trkpt>
      <trkpt lat="42.5878470" lon="-8.6453280">
        <ele>27.8</ele>
        <time>2021-05-22T11:59:03Z</time>
      </trkpt>
      <trkpt lat="42.5878580" lon="-8.6453270">
        <ele>27.8</ele>
        <time>2021-05-22T11:59:04Z</time>
      </trkpt>
      <trkpt lat="42.5878710" lon="-8.6453150">
        <ele>27.8</ele>
        <time>2021-05-22T11:59:05Z</time>
      </trkpt>
      <trkpt lat="42.5878840" lon="-8.6453080">
        <ele>27.8</ele>
        <time>2021-05-22T11:59:06Z</time>
      </trkpt>
      <trkpt lat="42.5878990" lon="-8.6453010">
        <ele>27.8</ele>
        <time>2021-05-22T11:59:07Z</time>
      </trkpt>
      <trkpt lat="42.5879050" lon="-8.6452980">
        <ele>27.8</ele>
        <time>2021-05-22T11:59:08Z</time>
      </trkpt>
      <trkpt lat="42.5879160" lon="-8.6452930">
        <ele>27.8</ele>
        <time>2021-05-22T11:59:09Z</time>
      </trkpt>
      <trkpt lat="42.5879280" lon="-8.6452830">
        <ele>27.8</ele>
        <time>2021-05-22T11:59:10Z</time>
      </trkpt>
      <trkpt lat="42.5879380" lon="-8.6452810">
        <ele>27.8</ele>
        <time>2021-05-22T11:59:11Z</time>
      </trkpt>
      <trkpt lat="42.5879510" lon="-8.6452740">
        <ele>27.7</ele>
        <time>2021-05-22T11:59:12Z</time>
      </trkpt>
      <trkpt lat="42.5879590" lon="-8.6452690">
        <ele>27.7</ele>
        <time>2021-05-22T11:59:13Z</time>
      </trkpt>
      <trkpt lat="42.5879810" lon="-8.6452650">
        <ele>27.7</ele>
        <time>2021-05-22T11:59:14Z</time>
      </trkpt>
      <trkpt lat="42.5879880" lon="-8.6452660">
        <ele>27.7</ele>
        <time>2021-05-22T11:59:15Z</time>
      </trkpt>
      <trkpt lat="42.5879950" lon="-8.6452660">
        <ele>27.7</ele>
        <time>2021-05-22T11:59:16Z</time>
      </trkpt>
      <trkpt lat="42.5880060" lon="-8.6452660">
        <ele>27.7</ele>
        <time>2021-05-22T11:59:17Z</time>
      </trkpt>
      <trkpt lat="42.5880170" lon="-8.6452560">
        <ele>27.7</ele>
        <time>2021-05-22T11:59:18Z</time>
      </trkpt>
      <trkpt lat="42.5880270" lon="-8.6452540">
        <ele>27.7</ele>
        <time>2021-05-22T11:59:19Z</time>
      </trkpt>
      <trkpt lat="42.5880360" lon="-8.6452500">
        <ele>27.7</ele>
        <time>2021-05-22T11:59:20Z</time>
      </trkpt>
      <trkpt lat="42.5880470" lon="-8.6452460">
        <ele>27.7</ele>
        <time>2021-05-22T11:59:21Z</time>
      </trkpt>
      <trkpt lat="42.5880550" lon="-8.6452470">
        <ele>27.7</ele>
        <time>2021-05-22T11:59:22Z</time>
      </trkpt>
      <trkpt lat="42.5880670" lon="-8.6452470">
        <ele>27.7</ele>
        <time>2021-05-22T11:59:23Z</time>
      </trkpt>
      <trkpt lat="42.5880780" lon="-8.6452480">
        <ele>27.7</ele>
        <time>2021-05-22T11:59:24Z</time>
      </trkpt>
      <trkpt lat="42.5880850" lon="-8.6452510">
        <ele>27.7</ele>
        <time>2021-05-22T11:59:25Z</time>
      </trkpt>
      <trkpt lat="42.5880970" lon="-8.6452550">
        <ele>27.7</ele>
        <time>2021-05-22T11:59:26Z</time>
      </trkpt>
      <trkpt lat="42.5881070" lon="-8.6452540">
        <ele>27.7</ele>
        <time>2021-05-22T11:59:27Z</time>
      </trkpt>
      <trkpt lat="42.5881190" lon="-8.6452570">
        <ele>27.7</ele>
        <time>2021-05-22T11:59:28Z</time>
      </trkpt>
      <trkpt lat="42.5881320" lon="-8.6452630">
        <ele>27.7</ele>
        <time>2021-05-22T11:59:29Z</time>
      </trkpt>
      <trkpt lat="42.5881460" lon="-8.6452680">
        <ele>27.7</ele>
        <time>2021-05-22T11:59:30Z</time>
      </trkpt>
      <trkpt lat="42.5881540" lon="-8.6452730">
        <ele>27.7</ele>
        <time>2021-05-22T11:59:31Z</time>
      </trkpt>
      <trkpt lat="42.5881650" lon="-8.6452760">
        <ele>27.7</ele>
        <time>2021-05-22T11:59:32Z</time>
      </trkpt>
      <trkpt lat="42.5881720" lon="-8.6452620">
        <ele>27.7</ele>
        <time>2021-05-22T11:59:33Z</time>
      </trkpt>
      <trkpt lat="42.5881800" lon="-8.6452580">
        <ele>27.7</ele>
        <time>2021-05-22T11:59:34Z</time>
      </trkpt>
      <trkpt lat="42.5881990" lon="-8.6452560">
        <ele>27.7</ele>
        <time>2021-05-22T11:59:35Z</time>
      </trkpt>
      <trkpt lat="42.5882090" lon="-8.6452590">
        <ele>27.7</ele>
        <time>2021-05-22T11:59:36Z</time>
      </trkpt>
      <trkpt lat="42.5882190" lon="-8.6452630">
        <ele>27.7</ele>
        <time>2021-05-22T11:59:37Z</time>
      </trkpt>
      <trkpt lat="42.5882350" lon="-8.6452670">
        <ele>27.7</ele>
        <time>2021-05-22T11:59:38Z</time>
      </trkpt>
      <trkpt lat="42.5882430" lon="-8.6452710">
        <ele>27.7</ele>
        <time>2021-05-22T11:59:39Z</time>
      </trkpt>
      <trkpt lat="42.5882540" lon="-8.6452710">
        <ele>27.7</ele>
        <time>2021-05-22T11:59:40Z</time>
      </trkpt>
      <trkpt lat="42.5882640" lon="-8.6452800">
        <ele>27.7</ele>
        <time>2021-05-22T11:59:41Z</time>
      </trkpt>
      <trkpt lat="42.5882740" lon="-8.6452760">
        <ele>27.7</ele>
        <time>2021-05-22T11:59:42Z</time>
      </trkpt>
      <trkpt lat="42.5882840" lon="-8.6452790">
        <ele>27.7</ele>
        <time>2021-05-22T11:59:43Z</time>
      </trkpt>
      <trkpt lat="42.5883060" lon="-8.6452800">
        <ele>27.7</ele>
        <time>2021-05-22T11:59:44Z</time>
      </trkpt>
      <trkpt lat="42.5883160" lon="-8.6452800">
        <ele>27.7</ele>
        <time>2021-05-22T11:59:45Z</time>
      </trkpt>
      <trkpt lat="42.5883250" lon="-8.6452800">
        <ele>27.7</ele>
        <time>2021-05-22T11:59:46Z</time>
      </trkpt>
      <trkpt lat="42.5883330" lon="-8.6452840">
        <ele>27.7</ele>
        <time>2021-05-22T11:59:47Z</time>
      </trkpt>
      <trkpt lat="42.5883440" lon="-8.6452820">
        <ele>27.7</ele>
        <time>2021-05-22T11:59:48Z</time>
      </trkpt>
      <trkpt lat="42.5883550" lon="-8.6452760">
        <ele>27.7</ele>
        <time>2021-05-22T11:59:49Z</time>
      </trkpt>
      <trkpt lat="42.5883630" lon="-8.6452810">
        <ele>27.7</ele>
        <time>2021-05-22T11:59:50Z</time>
      </trkpt>
      <trkpt lat="42.5883740" lon="-8.6452890">
        <ele>27.7</ele>
        <time>2021-05-22T11:59:51Z</time>
      </trkpt>
      <trkpt lat="42.5883840" lon="-8.6452940">
        <ele>27.6</ele>
        <time>2021-05-22T11:59:52Z</time>
      </trkpt>
      <trkpt lat="42.5883950" lon="-8.6453000">
        <ele>27.6</ele>
        <time>2021-05-22T11:59:53Z</time>
      </trkpt>
      <trkpt lat="42.5884070" lon="-8.6453060">
        <ele>27.6</ele>
        <time>2021-05-22T11:59:54Z</time>
      </trkpt>
      <trkpt lat="42.5884130" lon="-8.6453120">
        <ele>27.6</ele>
        <time>2021-05-22T11:59:55Z</time>
      </trkpt>
      <trkpt lat="42.5884200" lon="-8.6453170">
        <ele>27.6</ele>
        <time>2021-05-22T11:59:56Z</time>
      </trkpt>
      <trkpt lat="42.5884290" lon="-8.6453220">
        <ele>27.6</ele>
        <time>2021-05-22T11:59:57Z</time>
      </trkpt>
      <trkpt lat="42.5884400" lon="-8.6453310">
        <ele>27.6</ele>
        <time>2021-05-22T11:59:58Z</time>
      </trkpt>
      <trkpt lat="42.5884510" lon="-8.6453390">
        <ele>27.6</ele>
        <time>2021-05-22T11:59:59Z</time>
      </trkpt>
      <trkpt lat="42.5884610" lon="-8.6453460">
        <ele>27.6</ele>
        <time>2021-05-22T12:00:00Z</time>
      </trkpt>
      <trkpt lat="42.5884700" lon="-8.6453560">
        <ele>27.6</ele>
        <time>2021-05-22T12:00:01Z</time>
      </trkpt>
      <trkpt lat="42.5884780" lon="-8.6453680">
        <ele>27.6</ele>
        <time>2021-05-22T12:00:02Z</time>
      </trkpt>
      <trkpt lat="42.5884870" lon="-8.6453760">
        <ele>27.6</ele>
        <time>2021-05-22T12:00:03Z</time>
      </trkpt>
      <trkpt lat="42.5884960" lon="-8.6453800">
        <ele>27.6</ele>
        <time>2021-05-22T12:00:04Z</time>
      </trkpt>
      <trkpt lat="42.5884930" lon="-8.6453980">
        <ele>27.6</ele>
        <time>2021-05-22T12:00:05Z</time>
      </trkpt>
      <trkpt lat="42.5884910" lon="-8.6454080">
        <ele>27.6</ele>
        <time>2021-05-22T12:00:06Z</time>
      </trkpt>
      <trkpt lat="42.5884900" lon="-8.6454160">
        <ele>27.6</ele>
        <time>2021-05-22T12:00:07Z</time>
      </trkpt>
      <trkpt lat="42.5884890" lon="-8.6454210">
        <ele>27.6</ele>
        <time>2021-05-22T12:00:08Z</time>
      </trkpt>
      <trkpt lat="42.5884880" lon="-8.6454250">
        <ele>27.6</ele>
        <time>2021-05-22T12:00:09Z</time>
      </trkpt>
      <trkpt lat="42.5884870" lon="-8.6454270">
        <ele>27.6</ele>
        <time>2021-05-22T12:00:10Z</time>
      </trkpt>
      <trkpt lat="42.5884850" lon="-8.6454320">
        <ele>27.6</ele>
        <time>2021-05-22T12:00:11Z</time>
      </trkpt>
      <trkpt lat="42.5884850" lon="-8.6454370">
        <ele>27.6</ele>
        <time>2021-05-22T12:00:12Z</time>
      </trkpt>
      <trkpt lat="42.5884900" lon="-8.6454320">
        <ele>27.6</ele>
        <time>2021-05-22T12:00:13Z</time>
      </trkpt>
      <trkpt lat="42.5884880" lon="-8.6454330">
        <ele>27.6</ele>
        <time>2021-05-22T12:00:14Z</time>
      </trkpt>
      <trkpt lat="42.5884880" lon="-8.6454400">
        <ele>27.6</ele>
        <time>2021-05-22T12:00:15Z</time>
      </trkpt>
      <trkpt lat="42.5884850" lon="-8.6454470">
        <ele>27.6</ele>
        <time>2021-05-22T12:00:16Z</time>
      </trkpt>
      <trkpt lat="42.5884850" lon="-8.6454480">
        <ele>27.6</ele>
        <time>2021-05-22T12:00:17Z</time>
      </trkpt>
      <trkpt lat="42.5884920" lon="-8.6454480">
        <ele>27.6</ele>
        <time>2021-05-22T12:00:18Z</time>
      </trkpt>
      <trkpt lat="42.5884940" lon="-8.6454530">
        <ele>27.5</ele>
        <time>2021-05-22T12:00:19Z</time>
      </trkpt>
      <trkpt lat="42.5885000" lon="-8.6454520">
        <ele>27.5</ele>
        <time>2021-05-22T12:00:20Z</time>
      </trkpt>
      <trkpt lat="42.5885100" lon="-8.6454540">
        <ele>27.5</ele>
        <time>2021-05-22T12:00:21Z</time>
      </trkpt>
      <trkpt lat="42.5885250" lon="-8.6454530">
        <ele>27.5</ele>
        <time>2021-05-22T12:00:22Z</time>
      </trkpt>
      <trkpt lat="42.5885330" lon="-8.6454590">
        <ele>27.5</ele>
        <time>2021-05-22T12:00:23Z</time>
      </trkpt>
      <trkpt lat="42.5885420" lon="-8.6454540">
        <ele>27.5</ele>
        <time>2021-05-22T12:00:24Z</time>
      </trkpt>
      <trkpt lat="42.5885520" lon="-8.6454480">
        <ele>27.5</ele>
        <time>2021-05-22T12:00:25Z</time>
      </trkpt>
      <trkpt lat="42.5885650" lon="-8.6454480">
        <ele>27.5</ele>
        <time>2021-05-22T12:00:26Z</time>
      </trkpt>
      <trkpt lat="42.5885770" lon="-8.6454510">
        <ele>27.5</ele>
        <time>2021-05-22T12:00:27Z</time>
      </trkpt>
      <trkpt lat="42.5885820" lon="-8.6454490">
        <ele>27.5</ele>
        <time>2021-05-22T12:00:28Z</time>
      </trkpt>
      <trkpt lat="42.5885840" lon="-8.6454460">
        <ele>27.5</ele>
        <time>2021-05-22T12:00:29Z</time>
      </trkpt>
      <trkpt lat="42.5885940" lon="-8.6454260">
        <ele>27.5</ele>
        <time>2021-05-22T12:00:30Z</time>
      </trkpt>
      <trkpt lat="42.5886020" lon="-8.6454160">
        <ele>27.5</ele>
        <time>2021-05-22T12:00:31Z</time>
      </trkpt>
      <trkpt lat="42.5886120" lon="-8.6454190">
        <ele>27.5</ele>
        <time>2021-05-22T12:00:32Z</time>
      </trkpt>
      <trkpt lat="42.5886150" lon="-8.6454140">
        <ele>27.5</ele>
        <time>2021-05-22T12:00:33Z</time>
      </trkpt>
      <trkpt lat="42.5886300" lon="-8.6454140">
        <ele>27.5</ele>
        <time>2021-05-22T12:00:34Z</time>
      </trkpt>
      <trkpt lat="42.5886420" lon="-8.6454140">
        <ele>27.5</ele>
        <time>2021-05-22T12:00:35Z</time>
      </trkpt>
      <trkpt lat="42.5886490" lon="-8.6454140">
        <ele>27.5</ele>
        <time>2021-05-22T12:00:36Z</time>
      </trkpt>
      <trkpt lat="42.5886650" lon="-8.6454140">
        <ele>27.5</ele>
        <time>2021-05-22T12:00:37Z</time>
      </trkpt>
      <trkpt lat="42.5886730" lon="-8.6454110">
        <ele>27.5</ele>
        <time>2021-05-22T12:00:38Z</time>
      </trkpt>
      <trkpt lat="42.5886820" lon="-8.6454070">
        <ele>27.5</ele>
        <time>2021-05-22T12:00:39Z</time>
      </trkpt>
      <trkpt lat="42.5886920" lon="-8.6454090">
        <ele>27.5</ele>
        <time>2021-05-22T12:00:40Z</time>
      </trkpt>
      <trkpt lat="42.5887030" lon="-8.6454070">
        <ele>27.5</ele>
        <time>2021-05-22T12:00:41Z</time>
      </trkpt>
      <trkpt lat="42.5887130" lon="-8.6454060">
        <ele>27.5</ele>
        <time>2021-05-22T12:00:42Z</time>
      </trkpt>
      <trkpt lat="42.5887230" lon="-8.6454080">
        <ele>27.5</ele>
        <time>2021-05-22T12:00:43Z</time>
      </trkpt>
      <trkpt lat="42.5887360" lon="-8.6454020">
        <ele>27.5</ele>
        <time>2021-05-22T12:00:44Z</time>
      </trkpt>
      <trkpt lat="42.5887460" lon="-8.6453930">
        <ele>27.5</ele>
        <time>2021-05-22T12:00:45Z</time>
      </trkpt>
      <trkpt lat="42.5887540" lon="-8.6453860">
        <ele>27.5</ele>
        <time>2021-05-22T12:00:46Z</time>
      </trkpt>
      <trkpt lat="42.5887680" lon="-8.6453840">
        <ele>27.5</ele>
        <time>2021-05-22T12:00:47Z</time>
      </trkpt>
      <trkpt lat="42.5887820" lon="-8.6453840">
        <ele>27.5</ele>
        <time>2021-05-22T12:00:48Z</time>
      </trkpt>
      <trkpt lat="42.5888010" lon="-8.6453810">
        <ele>27.5</ele>
        <time>2021-05-22T12:00:49Z</time>
      </trkpt>
      <trkpt lat="42.5888120" lon="-8.6453800">
        <ele>27.5</ele>
        <time>2021-05-22T12:00:50Z</time>
      </trkpt>
      <trkpt lat="42.5888240" lon="-8.6453780">
        <ele>27.5</ele>
        <time>2021-05-22T12:00:51Z</time>
      </trkpt>
      <trkpt lat="42.5888410" lon="-8.6453770">
        <ele>27.5</ele>
        <time>2021-05-22T12:00:52Z</time>
      </trkpt>
      <trkpt lat="42.5888540" lon="-8.6453790">
        <ele>27.5</ele>
        <time>2021-05-22T12:00:53Z</time>
      </trkpt>
      <trkpt lat="42.5888660" lon="-8.6453820">
        <ele>27.5</ele>
        <time>2021-05-22T12:00:54Z</time>
      </trkpt>
      <trkpt lat="42.5888750" lon="-8.6453860">
        <ele>27.5</ele>
        <time>2021-05-22T12:00:55Z</time>
      </trkpt>
      <trkpt lat="42.5888890" lon="-8.6453900">
        <ele>27.5</ele>
        <time>2021-05-22T12:00:56Z</time>
      </trkpt>
      <trkpt lat="42.5889030" lon="-8.6453890">
        <ele>27.5</ele>
        <time>2021-05-22T12:00:57Z</time>
      </trkpt>
      <trkpt lat="42.5889250" lon="-8.6453910">
        <ele>27.5</ele>
        <time>2021-05-22T12:00:58Z</time>
      </trkpt>
      <trkpt lat="42.5889340" lon="-8.6453910">
        <ele>27.5</ele>
        <time>2021-05-22T12:00:59Z</time>
      </trkpt>
      <trkpt lat="42.5889430" lon="-8.6453920">
        <ele>27.5</ele>
        <time>2021-05-22T12:01:00Z</time>
      </trkpt>
      <trkpt lat="42.5889590" lon="-8.6453930">
        <ele>27.5</ele>
        <time>2021-05-22T12:01:01Z</time>
      </trkpt>
      <trkpt lat="42.5889700" lon="-8.6453930">
        <ele>27.5</ele>
        <time>2021-05-22T12:01:02Z</time>
      </trkpt>
      <trkpt lat="42.5889800" lon="-8.6453930">
        <ele>27.5</ele>
        <time>2021-05-22T12:01:03Z</time>
      </trkpt>
      <trkpt lat="42.5889890" lon="-8.6453970">
        <ele>27.5</ele>
        <time>2021-05-22T12:01:04Z</time>
      </trkpt>
      <trkpt lat="42.5889980" lon="-8.6454000">
        <ele>27.5</ele>
        <time>2021-05-22T12:01:05Z</time>
      </trkpt>
      <trkpt lat="42.5890100" lon="-8.6454000">
        <ele>27.5</ele>
        <time>2021-05-22T12:01:06Z</time>
      </trkpt>
      <trkpt lat="42.5890270" lon="-8.6454090">
        <ele>27.5</ele>
        <time>2021-05-22T12:01:07Z</time>
      </trkpt>
      <trkpt lat="42.5890340" lon="-8.6454130">
        <ele>27.5</ele>
        <time>2021-05-22T12:01:08Z</time>
      </trkpt>
      <trkpt lat="42.5890400" lon="-8.6454170">
        <ele>27.5</ele>
        <time>2021-05-22T12:01:09Z</time>
      </trkpt>
      <trkpt lat="42.5890460" lon="-8.6454210">
        <ele>27.5</ele>
        <time>2021-05-22T12:01:10Z</time>
      </trkpt>
      <trkpt lat="42.5890560" lon="-8.6454220">
        <ele>27.5</ele>
        <time>2021-05-22T12:01:11Z</time>
      </trkpt>
      <trkpt lat="42.5890670" lon="-8.6454250">
        <ele>27.5</ele>
        <time>2021-05-22T12:01:12Z</time>
      </trkpt>
      <trkpt lat="42.5890780" lon="-8.6454280">
        <ele>27.5</ele>
        <time>2021-05-22T12:01:13Z</time>
      </trkpt>
      <trkpt lat="42.5890900" lon="-8.6454320">
        <ele>27.5</ele>
        <time>2021-05-22T12:01:14Z</time>
      </trkpt>
      <trkpt lat="42.5891000" lon="-8.6454330">
        <ele>27.5</ele>
        <time>2021-05-22T12:01:15Z</time>
      </trkpt>
      <trkpt lat="42.5891110" lon="-8.6454330">
        <ele>27.5</ele>
        <time>2021-05-22T12:01:16Z</time>
      </trkpt>
      <trkpt lat="42.5891230" lon="-8.6454420">
        <ele>27.5</ele>
        <time>2021-05-22T12:01:17Z</time>
      </trkpt>
      <trkpt lat="42.5891340" lon="-8.6454480">
        <ele>27.5</ele>
        <time>2021-05-22T12:01:18Z</time>
      </trkpt>
      <trkpt lat="42.5891450" lon="-8.6454480">
        <ele>27.5</ele>
        <time>2021-05-22T12:01:19Z</time>
      </trkpt>
      <trkpt lat="42.5891680" lon="-8.6454500">
        <ele>27.5</ele>
        <time>2021-05-22T12:01:20Z</time>
      </trkpt>
      <trkpt lat="42.5891750" lon="-8.6454530">
        <ele>27.5</ele>
        <time>2021-05-22T12:01:21Z</time>
      </trkpt>
      <trkpt lat="42.5891820" lon="-8.6454560">
        <ele>27.5</ele>
        <time>2021-05-22T12:01:22Z</time>
      </trkpt>
      <trkpt lat="42.5891910" lon="-8.6454590">
        <ele>27.5</ele>
        <time>2021-05-22T12:01:23Z</time>
      </trkpt>
      <trkpt lat="42.5892000" lon="-8.6454570">
        <ele>27.5</ele>
        <time>2021-05-22T12:01:24Z</time>
      </trkpt>
      <trkpt lat="42.5892110" lon="-8.6454560">
        <ele>27.5</ele>
        <time>2021-05-22T12:01:25Z</time>
      </trkpt>
      <trkpt lat="42.5892310" lon="-8.6454590">
        <ele>27.5</ele>
        <time>2021-05-22T12:01:26Z</time>
      </trkpt>
      <trkpt lat="42.5892400" lon="-8.6454590">
        <ele>27.5</ele>
        <time>2021-05-22T12:01:27Z</time>
      </trkpt>
      <trkpt lat="42.5892480" lon="-8.6454580">
        <ele>27.5</ele>
        <time>2021-05-22T12:01:28Z</time>
      </trkpt>
      <trkpt lat="42.5892600" lon="-8.6454570">
        <ele>27.5</ele>
        <time>2021-05-22T12:01:29Z</time>
      </trkpt>
      <trkpt lat="42.5892660" lon="-8.6454620">
        <ele>27.5</ele>
        <time>2021-05-22T12:01:30Z</time>
      </trkpt>
      <trkpt lat="42.5892760" lon="-8.6454670">
        <ele>27.5</ele>
        <time>2021-05-22T12:01:31Z</time>
      </trkpt>
      <trkpt lat="42.5892860" lon="-8.6454660">
        <ele>27.5</ele>
        <time>2021-05-22T12:01:32Z</time>
      </trkpt>
      <trkpt lat="42.5892960" lon="-8.6454760">
        <ele>27.5</ele>
        <time>2021-05-22T12:01:33Z</time>
      </trkpt>
      <trkpt lat="42.5893050" lon="-8.6454780">
        <ele>27.5</ele>
        <time>2021-05-22T12:01:34Z</time>
      </trkpt>
      <trkpt lat="42.5893160" lon="-8.6454780">
        <ele>27.5</ele>
        <time>2021-05-22T12:01:35Z</time>
      </trkpt>
      <trkpt lat="42.5893230" lon="-8.6454890">
        <ele>27.5</ele>
        <time>2021-05-22T12:01:36Z</time>
      </trkpt>
      <trkpt lat="42.5893310" lon="-8.6454900">
        <ele>27.5</ele>
        <time>2021-05-22T12:01:37Z</time>
      </trkpt>
      <trkpt lat="42.5893440" lon="-8.6454880">
        <ele>27.5</ele>
        <time>2021-05-22T12:01:38Z</time>
      </trkpt>
      <trkpt lat="42.5893550" lon="-8.6454850">
        <ele>27.5</ele>
        <time>2021-05-22T12:01:39Z</time>
      </trkpt>
      <trkpt lat="42.5893600" lon="-8.6454840">
        <ele>27.5</ele>
        <time>2021-05-22T12:01:40Z</time>
      </trkpt>
      <trkpt lat="42.5893640" lon="-8.6454860">
        <ele>27.5</ele>
        <time>2021-05-22T12:01:41Z</time>
      </trkpt>
      <trkpt lat="42.5893680" lon="-8.6454900">
        <ele>27.5</ele>
        <time>2021-05-22T12:01:42Z</time>
      </trkpt>
      <trkpt lat="42.5893820" lon="-8.6454920">
        <ele>27.5</ele>
        <time>2021-05-22T12:01:43Z</time>
      </trkpt>
      <trkpt lat="42.5893870" lon="-8.6454950">
        <ele>27.5</ele>
        <time>2021-05-22T12:01:44Z</time>
      </trkpt>
      <trkpt lat="42.5894090" lon="-8.6454880">
        <ele>27.5</ele>
        <time>2021-05-22T12:01:45Z</time>
      </trkpt>
      <trkpt lat="42.5894170" lon="-8.6454900">
        <ele>27.5</ele>
        <time>2021-05-22T12:01:46Z</time>
      </trkpt>
      <trkpt lat="42.5894250" lon="-8.6454910">
        <ele>27.5</ele>
        <time>2021-05-22T12:01:47Z</time>
      </trkpt>
      <trkpt lat="42.5894330" lon="-8.6454940">
        <ele>27.5</ele>
        <time>2021-05-22T12:01:48Z</time>
      </trkpt>
      <trkpt lat="42.5894470" lon="-8.6454950">
        <ele>27.5</ele>
        <time>2021-05-22T12:01:49Z</time>
      </trkpt>
      <trkpt lat="42.5894510" lon="-8.6454940">
        <ele>27.5</ele>
        <time>2021-05-22T12:01:50Z</time>
      </trkpt>
      <trkpt lat="42.5894580" lon="-8.6454900">
        <ele>27.5</ele>
        <time>2021-05-22T12:01:51Z</time>
      </trkpt>
      <trkpt lat="42.5894700" lon="-8.6454870">
        <ele>27.5</ele>
        <time>2021-05-22T12:01:52Z</time>
      </trkpt>
      <trkpt lat="42.5894810" lon="-8.6454810">
        <ele>27.5</ele>
        <time>2021-05-22T12:01:53Z</time>
      </trkpt>
      <trkpt lat="42.5894940" lon="-8.6454770">
        <ele>27.5</ele>
        <time>2021-05-22T12:01:54Z</time>
      </trkpt>
      <trkpt lat="42.5895060" lon="-8.6454740">
        <ele>27.6</ele>
        <time>2021-05-22T12:01:55Z</time>
      </trkpt>
      <trkpt lat="42.5895100" lon="-8.6454710">
        <ele>27.6</ele>
        <time>2021-05-22T12:01:56Z</time>
      </trkpt>
      <trkpt lat="42.5895040" lon="-8.6454750">
        <ele>27.6</ele>
        <time>2021-05-22T12:01:57Z</time>
      </trkpt>
      <trkpt lat="42.5895050" lon="-8.6454750">
        <ele>27.6</ele>
        <time>2021-05-22T12:01:58Z</time>
      </trkpt>
      <trkpt lat="42.5895080" lon="-8.6454820">
        <ele>27.6</ele>
        <time>2021-05-22T12:01:59Z</time>
      </trkpt>
      <trkpt lat="42.5895090" lon="-8.6454820">
        <ele>27.6</ele>
        <time>2021-05-22T12:02:00Z</time>
      </trkpt>
      <trkpt lat="42.5895080" lon="-8.6454810">
        <ele>27.6</ele>
        <time>2021-05-22T12:02:01Z</time>
      </trkpt>
      <trkpt lat="42.5895100" lon="-8.6454810">
        <ele>27.6</ele>
        <time>2021-05-22T12:02:02Z</time>
      </trkpt>
      <trkpt lat="42.5895130" lon="-8.6454770">
        <ele>27.6</ele>
        <time>2021-05-22T12:02:03Z</time>
      </trkpt>
      <trkpt lat="42.5895150" lon="-8.6454770">
        <ele>27.6</ele>
        <time>2021-05-22T12:02:04Z</time>
      </trkpt>
      <trkpt lat="42.5895190" lon="-8.6454840">
        <ele>27.6</ele>
        <time>2021-05-22T12:02:05Z</time>
      </trkpt>
      <trkpt lat="42.5895230" lon="-8.6454820">
        <ele>27.6</ele>
        <time>2021-05-22T12:02:06Z</time>
      </trkpt>
      <trkpt lat="42.5895370" lon="-8.6454730">
        <ele>27.6</ele>
        <time>2021-05-22T12:02:07Z</time>
      </trkpt>
      <trkpt lat="42.5895440" lon="-8.6454730">
        <ele>27.6</ele>
        <time>2021-05-22T12:02:08Z</time>
      </trkpt>
      <trkpt lat="42.5895550" lon="-8.6454750">
        <ele>27.6</ele>
        <time>2021-05-22T12:02:09Z</time>
      </trkpt>
      <trkpt lat="42.5895600" lon="-8.6454740">
        <ele>27.6</ele>
        <time>2021-05-22T12:02:10Z</time>
      </trkpt>
      <trkpt lat="42.5895680" lon="-8.6454690">
        <ele>27.6</ele>
        <time>2021-05-22T12:02:11Z</time>
      </trkpt>
      <trkpt lat="42.5895820" lon="-8.6454690">
        <ele>27.6</ele>
        <time>2021-05-22T12:02:12Z</time>
      </trkpt>
      <trkpt lat="42.5895920" lon="-8.6454700">
        <ele>27.6</ele>
        <time>2021-05-22T12:02:13Z</time>
      </trkpt>
      <trkpt lat="42.5895970" lon="-8.6454710">
        <ele>27.7</ele>
        <time>2021-05-22T12:02:14Z</time>
      </trkpt>
      <trkpt lat="42.5896030" lon="-8.6454710">
        <ele>27.7</ele>
        <time>2021-05-22T12:02:15Z</time>
      </trkpt>
      <trkpt lat="42.5896080" lon="-8.6454710">
        <ele>27.7</ele>
        <time>2021-05-22T12:02:16Z</time>
      </trkpt>
      <trkpt lat="42.5896140" lon="-8.6454720">
        <ele>27.7</ele>
        <time>2021-05-22T12:02:17Z</time>
      </trkpt>
      <trkpt lat="42.5896190" lon="-8.6454720">
        <ele>27.7</ele>
        <time>2021-05-22T12:02:18Z</time>
      </trkpt>
      <trkpt lat="42.5896260" lon="-8.6454730">
        <ele>27.7</ele>
        <time>2021-05-22T12:02:19Z</time>
      </trkpt>
      <trkpt lat="42.5896380" lon="-8.6454700">
        <ele>27.7</ele>
        <time>2021-05-22T12:02:20Z</time>
      </trkpt>
      <trkpt lat="42.5896530" lon="-8.6454680">
        <ele>27.7</ele>
        <time>2021-05-22T12:02:21Z</time>
      </trkpt>
      <trkpt lat="42.5896600" lon="-8.6454600">
        <ele>27.7</ele>
        <time>2021-05-22T12:02:22Z</time>
      </trkpt>
      <trkpt lat="42.5896710" lon="-8.6454540">
        <ele>27.7</ele>
        <time>2021-05-22T12:02:23Z</time>
      </trkpt>
      <trkpt lat="42.5896770" lon="-8.6454470">
        <ele>27.7</ele>
        <time>2021-05-22T12:02:24Z</time>
      </trkpt>
      <trkpt lat="42.5896820" lon="-8.6454340">
        <ele>27.8</ele>
        <time>2021-05-22T12:02:25Z</time>
      </trkpt>
      <trkpt lat="42.5896890" lon="-8.6454310">
        <ele>27.8</ele>
        <time>2021-05-22T12:02:26Z</time>
      </trkpt>
      <trkpt lat="42.5896870" lon="-8.6454360">
        <ele>27.8</ele>
        <time>2021-05-22T12:02:27Z</time>
      </trkpt>
      <trkpt lat="42.5896850" lon="-8.6454420">
        <ele>27.8</ele>
        <time>2021-05-22T12:02:28Z</time>
      </trkpt>
      <trkpt lat="42.5896880" lon="-8.6454400">
        <ele>27.8</ele>
        <time>2021-05-22T12:02:29Z</time>
      </trkpt>
      <trkpt lat="42.5897010" lon="-8.6454260">
        <ele>27.8</ele>
        <time>2021-05-22T12:02:30Z</time>
      </trkpt>
      <trkpt lat="42.5897160" lon="-8.6454190">
        <ele>27.8</ele>
        <time>2021-05-22T12:02:31Z</time>
      </trkpt>
      <trkpt lat="42.5897260" lon="-8.6454120">
        <ele>27.8</ele>
        <time>2021-05-22T12:02:32Z</time>
      </trkpt>
      <trkpt lat="42.5897340" lon="-8.6454070">
        <ele>27.8</ele>
        <time>2021-05-22T12:02:33Z</time>
      </trkpt>
      <trkpt lat="42.5897540" lon="-8.6453930">
        <ele>27.9</ele>
        <time>2021-05-22T12:02:34Z</time>
      </trkpt>
      <trkpt lat="42.5897600" lon="-8.6453890">
        <ele>27.9</ele>
        <time>2021-05-22T12:02:35Z</time>
      </trkpt>
      <trkpt lat="42.5897670" lon="-8.6453840">
        <ele>27.9</ele>
        <time>2021-05-22T12:02:36Z</time>
      </trkpt>
      <trkpt lat="42.5897760" lon="-8.6453770">
        <ele>27.9</ele>
        <time>2021-05-22T12:02:37Z</time>
      </trkpt>
      <trkpt lat="42.5897900" lon="-8.6453700">
        <ele>27.9</ele>
        <time>2021-05-22T12:02:38Z</time>
      </trkpt>
      <trkpt lat="42.5897950" lon="-8.6453650">
        <ele>27.9</ele>
        <time>2021-05-22T12:02:39Z</time>
      </trkpt>
      <trkpt lat="42.5898100" lon="-8.6453460">
        <ele>27.9</ele>
        <time>2021-05-22T12:02:40Z</time>
      </trkpt>
      <trkpt lat="42.5898180" lon="-8.6453400">
        <ele>27.9</ele>
        <time>2021-05-22T12:02:41Z</time>
      </trkpt>
      <trkpt lat="42.5898250" lon="-8.6453330">
        <ele>27.9</ele>
        <time>2021-05-22T12:02:42Z</time>
      </trkpt>
      <trkpt lat="42.5898380" lon="-8.6453290">
        <ele>27.9</ele>
        <time>2021-05-22T12:02:43Z</time>
      </trkpt>
      <trkpt lat="42.5898450" lon="-8.6453200">
        <ele>27.9</ele>
        <time>2021-05-22T12:02:44Z</time>
      </trkpt>
      <trkpt lat="42.5898560" lon="-8.6453090">
        <ele>28.0</ele>
        <time>2021-05-22T12:02:45Z</time>
      </trkpt>
      <trkpt lat="42.5898640" lon="-8.6453000">
        <ele>28.0</ele>
        <time>2021-05-22T12:02:46Z</time>
      </trkpt>
      <trkpt lat="42.5898740" lon="-8.6452950">
        <ele>28.0</ele>
        <time>2021-05-22T12:02:47Z</time>
      </trkpt>
      <trkpt lat="42.5898840" lon="-8.6452860">
        <ele>28.0</ele>
        <time>2021-05-22T12:02:48Z</time>
      </trkpt>
      <trkpt lat="42.5898950" lon="-8.6452740">
        <ele>28.0</ele>
        <time>2021-05-22T12:02:49Z</time>
      </trkpt>
      <trkpt lat="42.5899080" lon="-8.6452680">
        <ele>28.0</ele>
        <time>2021-05-22T12:02:50Z</time>
      </trkpt>
      <trkpt lat="42.5899270" lon="-8.6452540">
        <ele>28.0</ele>
        <time>2021-05-22T12:02:51Z</time>
      </trkpt>
      <trkpt lat="42.5899350" lon="-8.6452490">
        <ele>28.0</ele>
        <time>2021-05-22T12:02:52Z</time>
      </trkpt>
      <trkpt lat="42.5899440" lon="-8.6452450">
        <ele>28.0</ele>
        <time>2021-05-22T12:02:53Z</time>
      </trkpt>
      <trkpt lat="42.5899510" lon="-8.6452380">
        <ele>28.1</ele>
        <time>2021-05-22T12:02:54Z</time>
      </trkpt>
      <trkpt lat="42.5899590" lon="-8.6452280">
        <ele>28.1</ele>
        <time>2021-05-22T12:02:55Z</time>
      </trkpt>
      <trkpt lat="42.5899720" lon="-8.6452190">
        <ele>28.1</ele>
        <time>2021-05-22T12:02:56Z</time>
      </trkpt>
      <trkpt lat="42.5899880" lon="-8.6452120">
        <ele>28.1</ele>
        <time>2021-05-22T12:02:57Z</time>
      </trkpt>
      <trkpt lat="42.5899960" lon="-8.6452020">
        <ele>28.1</ele>
        <time>2021-05-22T12:02:58Z</time>
      </trkpt>
      <trkpt lat="42.5900050" lon="-8.6452030">
        <ele>28.1</ele>
        <time>2021-05-22T12:02:59Z</time>
      </trkpt>
      <trkpt lat="42.5900160" lon="-8.6451980">
        <ele>28.1</ele>
        <time>2021-05-22T12:03:00Z</time>
      </trkpt>
      <trkpt lat="42.5900290" lon="-8.6451890">
        <ele>28.2</ele>
        <time>2021-05-22T12:03:01Z</time>
      </trkpt>
      <trkpt lat="42.5900310" lon="-8.6451790">
        <ele>28.2</ele>
        <time>2021-05-22T12:03:02Z</time>
      </trkpt>
      <trkpt lat="42.5900390" lon="-8.6451740">
        <ele>28.2</ele>
        <time>2021-05-22T12:03:03Z</time>
      </trkpt>
      <trkpt lat="42.5900550" lon="-8.6451680">
        <ele>28.2</ele>
        <time>2021-05-22T12:03:04Z</time>
      </trkpt>
      <trkpt lat="42.5900620" lon="-8.6451600">
        <ele>28.2</ele>
        <time>2021-05-22T12:03:05Z</time>
      </trkpt>
      <trkpt lat="42.5900780" lon="-8.6451540">
        <ele>28.2</ele>
        <time>2021-05-22T12:03:06Z</time>
      </trkpt>
      <trkpt lat="42.5900850" lon="-8.6451440">
        <ele>28.2</ele>
        <time>2021-05-22T12:03:07Z</time>
      </trkpt>
      <trkpt lat="42.5900980" lon="-8.6451360">
        <ele>28.3</ele>
        <time>2021-05-22T12:03:08Z</time>
      </trkpt>
      <trkpt lat="42.5901120" lon="-8.6451270">
        <ele>28.3</ele>
        <time>2021-05-22T12:03:09Z</time>
      </trkpt>
      <trkpt lat="42.5901230" lon="-8.6451190">
        <ele>28.3</ele>
        <time>2021-05-22T12:03:10Z</time>
      </trkpt>
      <trkpt lat="42.5901410" lon="-8.6451140">
        <ele>28.3</ele>
        <time>2021-05-22T12:03:11Z</time>
      </trkpt>
      <trkpt lat="42.5901500" lon="-8.6451080">
        <ele>28.3</ele>
        <time>2021-05-22T12:03:12Z</time>
      </trkpt>
      <trkpt lat="42.5901600" lon="-8.6451020">
        <ele>28.3</ele>
        <time>2021-05-22T12:03:13Z</time>
      </trkpt>
      <trkpt lat="42.5901710" lon="-8.6450930">
        <ele>28.4</ele>
        <time>2021-05-22T12:03:14Z</time>
      </trkpt>
      <trkpt lat="42.5901870" lon="-8.6450870">
        <ele>28.4</ele>
        <time>2021-05-22T12:03:15Z</time>
      </trkpt>
      <trkpt lat="42.5901980" lon="-8.6450790">
        <ele>28.4</ele>
        <time>2021-05-22T12:03:16Z</time>
      </trkpt>
      <trkpt lat="42.5902120" lon="-8.6450710">
        <ele>28.4</ele>
        <time>2021-05-22T12:03:17Z</time>
      </trkpt>
      <trkpt lat="42.5902240" lon="-8.6450560">
        <ele>28.4</ele>
        <time>2021-05-22T12:03:18Z</time>
      </trkpt>
      <trkpt lat="42.5902420" lon="-8.6450470">
        <ele>28.4</ele>
        <time>2021-05-22T12:03:19Z</time>
      </trkpt>
      <trkpt lat="42.5902500" lon="-8.6450400">
        <ele>28.5</ele>
        <time>2021-05-22T12:03:20Z</time>
      </trkpt>
      <trkpt lat="42.5902570" lon="-8.6450330">
        <ele>28.5</ele>
        <time>2021-05-22T12:03:21Z</time>
      </trkpt>
      <trkpt lat="42.5902750" lon="-8.6450140">
        <ele>28.5</ele>
        <time>2021-05-22T12:03:22Z</time>
      </trkpt>
      <trkpt lat="42.5902820" lon="-8.6450070">
        <ele>28.5</ele>
        <time>2021-05-22T12:03:23Z</time>
      </trkpt>
      <trkpt lat="42.5902900" lon="-8.6449990">
        <ele>28.5</ele>
        <time>2021-05-22T12:03:24Z</time>
      </trkpt>
      <trkpt lat="42.5903060" lon="-8.6449850">
        <ele>28.5</ele>
        <time>2021-05-22T12:03:25Z</time>
      </trkpt>
      <trkpt lat="42.5903150" lon="-8.6449790">
        <ele>28.6</ele>
        <time>2021-05-22T12:03:26Z</time>
      </trkpt>
      <trkpt lat="42.5903240" lon="-8.6449730">
        <ele>28.6</ele>
        <time>2021-05-22T12:03:27Z</time>
      </trkpt>
      <trkpt lat="42.5903320" lon="-8.6449680">
        <ele>28.6</ele>
        <time>2021-05-22T12:03:28Z</time>
      </trkpt>
      <trkpt lat="42.5903450" lon="-8.6449590">
        <ele>28.6</ele>
        <time>2021-05-22T12:03:29Z</time>
      </trkpt>
      <trkpt lat="42.5903560" lon="-8.6449490">
        <ele>28.6</ele>
        <time>2021-05-22T12:03:30Z</time>
      </trkpt>
      <trkpt lat="42.5903650" lon="-8.6449370">
        <ele>28.6</ele>
        <time>2021-05-22T12:03:31Z</time>
      </trkpt>
      <trkpt lat="42.5903800" lon="-8.6449300">
        <ele>28.6</ele>
        <time>2021-05-22T12:03:32Z</time>
      </trkpt>
      <trkpt lat="42.5903810" lon="-8.6449220">
        <ele>28.6</ele>
        <time>2021-05-22T12:03:33Z</time>
      </trkpt>
      <trkpt lat="42.5903930" lon="-8.6449190">
        <ele>28.7</ele>
        <time>2021-05-22T12:03:34Z</time>
      </trkpt>
      <trkpt lat="42.5904060" lon="-8.6449160">
        <ele>28.7</ele>
        <time>2021-05-22T12:03:35Z</time>
      </trkpt>
      <trkpt lat="42.5904130" lon="-8.6449190">
        <ele>28.7</ele>
        <time>2021-05-22T12:03:36Z</time>
      </trkpt>
      <trkpt lat="42.5904290" lon="-8.6449060">
        <ele>28.7</ele>
        <time>2021-05-22T12:03:37Z</time>
      </trkpt>
      <trkpt lat="42.5904410" lon="-8.6448990">
        <ele>28.7</ele>
        <time>2021-05-22T12:03:38Z</time>
      </trkpt>
      <trkpt lat="42.5904580" lon="-8.6448860">
        <ele>28.7</ele>
        <time>2021-05-22T12:03:39Z</time>
      </trkpt>
      <trkpt lat="42.5904650" lon="-8.6448780">
        <ele>28.8</ele>
        <time>2021-05-22T12:03:40Z</time>
      </trkpt>
      <trkpt lat="42.5904720" lon="-8.6448700">
        <ele>28.8</ele>
        <time>2021-05-22T12:03:41Z</time>
      </trkpt>
      <trkpt lat="42.5904790" lon="-8.6448610">
        <ele>28.8</ele>
        <time>2021-05-22T12:03:42Z</time>
      </trkpt>
      <trkpt lat="42.5904890" lon="-8.6448590">
        <ele>28.8</ele>
        <time>2021-05-22T12:03:43Z</time>
      </trkpt>
      <trkpt lat="42.5904970" lon="-8.6448470">
        <ele>28.8</ele>
        <time>2021-05-22T12:03:44Z</time>
      </trkpt>
      <trkpt lat="42.5905080" lon="-8.6448330">
        <ele>28.8</ele>
        <time>2021-05-22T12:03:45Z</time>
      </trkpt>
      <trkpt lat="42.5905230" lon="-8.6448220">
        <ele>28.8</ele>
        <time>2021-05-22T12:03:46Z</time>
      </trkpt>
      <trkpt lat="42.5905430" lon="-8.6448140">
        <ele>28.8</ele>
        <time>2021-05-22T12:03:47Z</time>
      </trkpt>
      <trkpt lat="42.5905510" lon="-8.6448090">
        <ele>28.9</ele>
        <time>2021-05-22T12:03:48Z</time>
      </trkpt>
      <trkpt lat="42.5905580" lon="-8.6448040">
        <ele>28.9</ele>
        <time>2021-05-22T12:03:49Z</time>
      </trkpt>
      <trkpt lat="42.5905690" lon="-8.6447980">
        <ele>28.9</ele>
        <time>2021-05-22T12:03:50Z</time>
      </trkpt>
      <trkpt lat="42.5905740" lon="-8.6447890">
        <ele>28.9</ele>
        <time>2021-05-22T12:03:51Z</time>
      </trkpt>
      <trkpt lat="42.5905850" lon="-8.6447840">
        <ele>28.9</ele>
        <time>2021-05-22T12:03:52Z</time>
      </trkpt>
      <trkpt lat="42.5906030" lon="-8.6447700">
        <ele>28.9</ele>
        <time>2021-05-22T12:03:53Z</time>
      </trkpt>
      <trkpt lat="42.5906110" lon="-8.6447660">
        <ele>28.9</ele>
        <time>2021-05-22T12:03:54Z</time>
      </trkpt>
      <trkpt lat="42.5906180" lon="-8.6447610">
        <ele>28.9</ele>
        <time>2021-05-22T12:03:55Z</time>
      </trkpt>
      <trkpt lat="42.5906250" lon="-8.6447580">
        <ele>28.9</ele>
        <time>2021-05-22T12:03:56Z</time>
      </trkpt>
      <trkpt lat="42.5906320" lon="-8.6447550">
        <ele>29.0</ele>
        <time>2021-05-22T12:03:57Z</time>
      </trkpt>
      <trkpt lat="42.5906440" lon="-8.6447430">
        <ele>29.0</ele>
        <time>2021-05-22T12:03:58Z</time>
      </trkpt>
      <trkpt lat="42.5906520" lon="-8.6447320">
        <ele>29.0</ele>
        <time>2021-05-22T12:03:59Z</time>
      </trkpt>
      <trkpt lat="42.5906610" lon="-8.6447210">
        <ele>29.0</ele>
        <time>2021-05-22T12:04:00Z</time>
      </trkpt>
      <trkpt lat="42.5906680" lon="-8.6447070">
        <ele>29.0</ele>
        <time>2021-05-22T12:04:01Z</time>
      </trkpt>
      <trkpt lat="42.5906880" lon="-8.6446980">
        <ele>29.1</ele>
        <time>2021-05-22T12:04:02Z</time>
      </trkpt>
      <trkpt lat="42.5906960" lon="-8.6446920">
        <ele>29.1</ele>
        <time>2021-05-22T12:04:03Z</time>
      </trkpt>
      <trkpt lat="42.5907030" lon="-8.6446870">
        <ele>29.1</ele>
        <time>2021-05-22T12:04:04Z</time>
      </trkpt>
      <trkpt lat="42.5907130" lon="-8.6446770">
        <ele>29.1</ele>
        <time>2021-05-22T12:04:05Z</time>
      </trkpt>
      <trkpt lat="42.5907190" lon="-8.6446710">
        <ele>29.1</ele>
        <time>2021-05-22T12:04:06Z</time>
      </trkpt>
      <trkpt lat="42.5907300" lon="-8.6446670">
        <ele>29.1</ele>
        <time>2021-05-22T12:04:07Z</time>
      </trkpt>
      <trkpt lat="42.5907440" lon="-8.6446600">
        <ele>29.2</ele>
        <time>2021-05-22T12:04:08Z</time>
      </trkpt>
      <trkpt lat="42.5907550" lon="-8.6446520">
        <ele>29.2</ele>
        <time>2021-05-22T12:04:09Z</time>
      </trkpt>
      <trkpt lat="42.5907570" lon="-8.6446470">
        <ele>29.2</ele>
        <time>2021-05-22T12:04:10Z</time>
      </trkpt>
      <trkpt lat="42.5907540" lon="-8.6446530">
        <ele>29.2</ele>
        <time>2021-05-22T12:04:11Z</time>
      </trkpt>
      <trkpt lat="42.5907520" lon="-8.6446550">
        <ele>29.2</ele>
        <time>2021-05-22T12:04:12Z</time>
      </trkpt>
      <trkpt lat="42.5907500" lon="-8.6446590">
        <ele>29.2</ele>
        <time>2021-05-22T12:04:13Z</time>
      </trkpt>
      <trkpt lat="42.5907540" lon="-8.6446590">
        <ele>29.2</ele>
        <time>2021-05-22T12:04:14Z</time>
      </trkpt>
      <trkpt lat="42.5907550" lon="-8.6446630">
        <ele>29.2</ele>
        <time>2021-05-22T12:04:15Z</time>
      </trkpt>
      <trkpt lat="42.5907550" lon="-8.6446630">
        <ele>29.2</ele>
        <time>2021-05-22T12:04:16Z</time>
      </trkpt>
      <trkpt lat="42.5907510" lon="-8.6446580">
        <ele>29.2</ele>
        <time>2021-05-22T12:04:17Z</time>
      </trkpt>
      <trkpt lat="42.5907530" lon="-8.6446440">
        <ele>29.3</ele>
        <time>2021-05-22T12:04:18Z</time>
      </trkpt>
      <trkpt lat="42.5907660" lon="-8.6446320">
        <ele>29.3</ele>
        <time>2021-05-22T12:04:19Z</time>
      </trkpt>
      <trkpt lat="42.5907780" lon="-8.6446180">
        <ele>29.3</ele>
        <time>2021-05-22T12:04:20Z</time>
      </trkpt>
      <trkpt lat="42.5907920" lon="-8.6446120">
        <ele>29.3</ele>
        <time>2021-05-22T12:04:21Z</time>
      </trkpt>
      <trkpt lat="42.5908030" lon="-8.6446000">
        <ele>29.4</ele>
        <time>2021-05-22T12:04:22Z</time>
      </trkpt>
      <trkpt lat="42.5908140" lon="-8.6445890">
        <ele>29.4</ele>
        <time>2021-05-22T12:04:23Z</time>
      </trkpt>
      <trkpt lat="42.5908250" lon="-8.6445780">
        <ele>29.4</ele>
        <time>2021-05-22T12:04:24Z</time>
      </trkpt>
      <trkpt lat="42.5908330" lon="-8.6445660">
        <ele>29.4</ele>
        <time>2021-05-22T12:04:25Z</time>
      </trkpt>
      <trkpt lat="42.5908480" lon="-8.6445550">
        <ele>29.5</ele>
        <time>2021-05-22T12:04:26Z</time>
      </trkpt>
      <trkpt lat="42.5908590" lon="-8.6445410">
        <ele>29.5</ele>
        <time>2021-05-22T12:04:27Z</time>
      </trkpt>
      <trkpt lat="42.5908690" lon="-8.6445320">
        <ele>29.5</ele>
        <time>2021-05-22T12:04:28Z</time>
      </trkpt>
      <trkpt lat="42.5908780" lon="-8.6445310">
        <ele>29.5</ele>
        <time>2021-05-22T12:04:29Z</time>
      </trkpt>
      <trkpt lat="42.5908900" lon="-8.6445230">
        <ele>29.5</ele>
        <time>2021-05-22T12:04:30Z</time>
      </trkpt>
      <trkpt lat="42.5909020" lon="-8.6445100">
        <ele>29.6</ele>
        <time>2021-05-22T12:04:31Z</time>
      </trkpt>
      <trkpt lat="42.5909200" lon="-8.6444930">
        <ele>29.6</ele>
        <time>2021-05-22T12:04:32Z</time>
      </trkpt>
      <trkpt lat="42.5909270" lon="-8.6444860">
        <ele>29.6</ele>
        <time>2021-05-22T12:04:33Z</time>
      </trkpt>
      <trkpt lat="42.5909350" lon="-8.6444780">
        <ele>29.7</ele>
        <time>2021-05-22T12:04:34Z</time>
      </trkpt>
      <trkpt lat="42.5909430" lon="-8.6444690">
        <ele>29.7</ele>
        <time>2021-05-22T12:04:35Z</time>
      </trkpt>
      <trkpt lat="42.5909510" lon="-8.6444570">
        <ele>29.7</ele>
        <time>2021-05-22T12:04:36Z</time>
      </trkpt>
      <trkpt lat="42.5909640" lon="-8.6444540">
        <ele>29.7</ele>
        <time>2021-05-22T12:04:37Z</time>
      </trkpt>
      <trkpt lat="42.5909820" lon="-8.6444280">
        <ele>29.8</ele>
        <time>2021-05-22T12:04:38Z</time>
      </trkpt>
      <trkpt lat="42.5909880" lon="-8.6444220">
        <ele>29.8</ele>
        <time>2021-05-22T12:04:39Z</time>
      </trkpt>
      <trkpt lat="42.5909930" lon="-8.6444150">
        <ele>29.8</ele>
        <time>2021-05-22T12:04:40Z</time>
      </trkpt>
      <trkpt lat="42.5910090" lon="-8.6444020">
        <ele>29.9</ele>
        <time>2021-05-22T12:04:41Z</time>
      </trkpt>
      <trkpt lat="42.5910180" lon="-8.6443970">
        <ele>29.9</ele>
        <time>2021-05-22T12:04:42Z</time>
      </trkpt>
      <trkpt lat="42.5910260" lon="-8.6443930">
        <ele>29.9</ele>
        <time>2021-05-22T12:04:43Z</time>
      </trkpt>
      <trkpt lat="42.5910330" lon="-8.6443910">
        <ele>30.0</ele>
        <time>2021-05-22T12:04:44Z</time>
      </trkpt>
      <trkpt lat="42.5910450" lon="-8.6443800">
        <ele>30.0</ele>
        <time>2021-05-22T12:04:45Z</time>
      </trkpt>
      <trkpt lat="42.5910550" lon="-8.6443680">
        <ele>30.0</ele>
        <time>2021-05-22T12:04:46Z</time>
      </trkpt>
      <trkpt lat="42.5910560" lon="-8.6443540">
        <ele>30.0</ele>
        <time>2021-05-22T12:04:47Z</time>
      </trkpt>
      <trkpt lat="42.5910680" lon="-8.6443400">
        <ele>30.1</ele>
        <time>2021-05-22T12:04:48Z</time>
      </trkpt>
      <trkpt lat="42.5910720" lon="-8.6443340">
        <ele>30.1</ele>
        <time>2021-05-22T12:04:49Z</time>
      </trkpt>
      <trkpt lat="42.5910830" lon="-8.6443260">
        <ele>30.1</ele>
        <time>2021-05-22T12:04:50Z</time>
      </trkpt>
      <trkpt lat="42.5910980" lon="-8.6443100">
        <ele>30.2</ele>
        <time>2021-05-22T12:04:51Z</time>
      </trkpt>
      <trkpt lat="42.5911090" lon="-8.6442970">
        <ele>30.2</ele>
        <time>2021-05-22T12:04:52Z</time>
      </trkpt>
      <trkpt lat="42.5911130" lon="-8.6442900">
        <ele>30.2</ele>
        <time>2021-05-22T12:04:53Z</time>
      </trkpt>
      <trkpt lat="42.5911250" lon="-8.6442800">
        <ele>30.3</ele>
        <time>2021-05-22T12:04:54Z</time>
      </trkpt>
      <trkpt lat="42.5911410" lon="-8.6442610">
        <ele>30.3</ele>
        <time>2021-05-22T12:04:55Z</time>
      </trkpt>
      <trkpt lat="42.5911490" lon="-8.6442520">
        <ele>30.3</ele>
        <time>2021-05-22T12:04:56Z</time>
      </trkpt>
      <trkpt lat="42.5911560" lon="-8.6442440">
        <ele>30.4</ele>
        <time>2021-05-22T12:04:57Z</time>
      </trkpt>
      <trkpt lat="42.5911600" lon="-8.6442370">
        <ele>30.4</ele>
        <time>2021-05-22T12:04:58Z</time>
      </trkpt>
      <trkpt lat="42.5911740" lon="-8.6442290">
        <ele>30.4</ele>
        <time>2021-05-22T12:04:59Z</time>
      </trkpt>
      <trkpt lat="42.5911820" lon="-8.6442150">
        <ele>30.5</ele>
        <time>2021-05-22T12:05:00Z</time>
      </trkpt>
      <trkpt lat="42.5911920" lon="-8.6442080">
        <ele>30.5</ele>
        <time>2021-05-22T12:05:01Z</time>
      </trkpt>
      <trkpt lat="42.5912010" lon="-8.6441980">
        <ele>30.5</ele>
        <time>2021-05-22T12:05:02Z</time>
      </trkpt>
      <trkpt lat="42.5912060" lon="-8.6441910">
        <ele>30.5</ele>
        <time>2021-05-22T12:05:03Z</time>
      </trkpt>
      <trkpt lat="42.5912150" lon="-8.6441750">
        <ele>30.6</ele>
        <time>2021-05-22T12:05:04Z</time>
      </trkpt>
      <trkpt lat="42.5912300" lon="-8.6441660">
        <ele>30.6</ele>
        <time>2021-05-22T12:05:05Z</time>
      </trkpt>
      <trkpt lat="42.5912360" lon="-8.6441580">
        <ele>30.6</ele>
        <time>2021-05-22T12:05:06Z</time>
      </trkpt>
      <trkpt lat="42.5912460" lon="-8.6441510">
        <ele>30.7</ele>
        <time>2021-05-22T12:05:07Z</time>
      </trkpt>
      <trkpt lat="42.5912540" lon="-8.6441360">
        <ele>30.7</ele>
        <time>2021-05-22T12:05:08Z</time>
      </trkpt>
      <trkpt lat="42.5912670" lon="-8.6441170">
        <ele>30.8</ele>
        <time>2021-05-22T12:05:09Z</time>
      </trkpt>
      <trkpt lat="42.5912740" lon="-8.6441090">
        <ele>30.8</ele>
        <time>2021-05-22T12:05:10Z</time>
      </trkpt>
      <trkpt lat="42.5912800" lon="-8.6441010">
        <ele>30.8</ele>
        <time>2021-05-22T12:05:11Z</time>
      </trkpt>
      <trkpt lat="42.5912920" lon="-8.6440920">
        <ele>30.8</ele>
        <time>2021-05-22T12:05:12Z</time>
      </trkpt>
      <trkpt lat="42.5913030" lon="-8.6440870">
        <ele>30.9</ele>
        <time>2021-05-22T12:05:13Z</time>
      </trkpt>
      <trkpt lat="42.5913110" lon="-8.6440750">
        <ele>30.9</ele>
        <time>2021-05-22T12:05:14Z</time>
      </trkpt>
      <trkpt lat="42.5913160" lon="-8.6440620">
        <ele>30.9</ele>
        <time>2021-05-22T12:05:15Z</time>
      </trkpt>
      <trkpt lat="42.5913300" lon="-8.6440570">
        <ele>31.0</ele>
        <time>2021-05-22T12:05:16Z</time>
      </trkpt>
      <trkpt lat="42.5913430" lon="-8.6440550">
        <ele>31.0</ele>
        <time>2021-05-22T12:05:17Z</time>
      </trkpt>
      <trkpt lat="42.5913610" lon="-8.6440390">
        <ele>31.0</ele>
        <time>2021-05-22T12:05:18Z</time>
      </trkpt>
      <trkpt lat="42.5913690" lon="-8.6440340">
        <ele>31.1</ele>
        <time>2021-05-22T12:05:19Z</time>
      </trkpt>
      <trkpt lat="42.5913760" lon="-8.6440290">
        <ele>31.1</ele>
        <time>2021-05-22T12:05:20Z</time>
      </trkpt>
      <trkpt lat="42.5913820" lon="-8.6440200">
        <ele>31.1</ele>
        <time>2021-05-22T12:05:21Z</time>
      </trkpt>
      <trkpt lat="42.5913950" lon="-8.6440130">
        <ele>31.1</ele>
        <time>2021-05-22T12:05:22Z</time>
      </trkpt>
      <trkpt lat="42.5914100" lon="-8.6440110">
        <ele>31.2</ele>
        <time>2021-05-22T12:05:23Z</time>
      </trkpt>
      <trkpt lat="42.5914200" lon="-8.6440080">
        <ele>31.2</ele>
        <time>2021-05-22T12:05:24Z</time>
      </trkpt>
      <trkpt lat="42.5914340" lon="-8.6440040">
        <ele>31.2</ele>
        <time>2021-05-22T12:05:25Z</time>
      </trkpt>
      <trkpt lat="42.5914430" lon="-8.6440030">
        <ele>31.3</ele>
        <time>2021-05-22T12:05:26Z</time>
      </trkpt>
      <trkpt lat="42.5914570" lon="-8.6439980">
        <ele>31.3</ele>
        <time>2021-05-22T12:05:27Z</time>
      </trkpt>
      <trkpt lat="42.5914710" lon="-8.6439940">
        <ele>31.3</ele>
        <time>2021-05-22T12:05:28Z</time>
      </trkpt>
      <trkpt lat="42.5914800" lon="-8.6439950">
        <ele>31.3</ele>
        <time>2021-05-22T12:05:29Z</time>
      </trkpt>
      <trkpt lat="42.5914890" lon="-8.6439940">
        <ele>31.3</ele>
        <time>2021-05-22T12:05:30Z</time>
      </trkpt>
      <trkpt lat="42.5915040" lon="-8.6439930">
        <ele>31.4</ele>
        <time>2021-05-22T12:05:31Z</time>
      </trkpt>
      <trkpt lat="42.5915170" lon="-8.6439910">
        <ele>31.4</ele>
        <time>2021-05-22T12:05:32Z</time>
      </trkpt>
      <trkpt lat="42.5915270" lon="-8.6439830">
        <ele>31.4</ele>
        <time>2021-05-22T12:05:33Z</time>
      </trkpt>
      <trkpt lat="42.5915310" lon="-8.6439810">
        <ele>31.4</ele>
        <time>2021-05-22T12:05:34Z</time>
      </trkpt>
      <trkpt lat="42.5915410" lon="-8.6439910">
        <ele>31.5</ele>
        <time>2021-05-22T12:05:35Z</time>
      </trkpt>
      <trkpt lat="42.5915500" lon="-8.6439900">
        <ele>31.5</ele>
        <time>2021-05-22T12:05:36Z</time>
      </trkpt>
      <trkpt lat="42.5915590" lon="-8.6439890">
        <ele>31.5</ele>
        <time>2021-05-22T12:05:37Z</time>
      </trkpt>
      <trkpt lat="42.5915680" lon="-8.6439880">
        <ele>31.5</ele>
        <time>2021-05-22T12:05:38Z</time>
      </trkpt>
      <trkpt lat="42.5915800" lon="-8.6439840">
        <ele>31.5</ele>
        <time>2021-05-22T12:05:39Z</time>
      </trkpt>
      <trkpt lat="42.5915950" lon="-8.6439820">
        <ele>31.5</ele>
        <time>2021-05-22T12:05:40Z</time>
      </trkpt>
      <trkpt lat="42.5916080" lon="-8.6439800">
        <ele>31.5</ele>
        <time>2021-05-22T12:05:41Z</time>
      </trkpt>
      <trkpt lat="42.5916190" lon="-8.6439840">
        <ele>31.6</ele>
        <time>2021-05-22T12:05:42Z</time>
      </trkpt>
      <trkpt lat="42.5916300" lon="-8.6439820">
        <ele>31.6</ele>
        <time>2021-05-22T12:05:43Z</time>
      </trkpt>
      <trkpt lat="42.5916530" lon="-8.6439790">
        <ele>31.6</ele>
        <time>2021-05-22T12:05:44Z</time>
      </trkpt>
      <trkpt lat="42.5916610" lon="-8.6439810">
        <ele>31.6</ele>
        <time>2021-05-22T12:05:45Z</time>
      </trkpt>
      <trkpt lat="42.5916700" lon="-8.6439820">
        <ele>31.6</ele>
        <time>2021-05-22T12:05:46Z</time>
      </trkpt>
      <trkpt lat="42.5916880" lon="-8.6439810">
        <ele>31.6</ele>
        <time>2021-05-22T12:05:47Z</time>
      </trkpt>
      <trkpt lat="42.5916960" lon="-8.6439790">
        <ele>31.7</ele>
        <time>2021-05-22T12:05:48Z</time>
      </trkpt>
      <trkpt lat="42.5917030" lon="-8.6439760">
        <ele>31.7</ele>
        <time>2021-05-22T12:05:49Z</time>
      </trkpt>
      <trkpt lat="42.5917100" lon="-8.6439740">
        <ele>31.7</ele>
        <time>2021-05-22T12:05:50Z</time>
      </trkpt>
      <trkpt lat="42.5917260" lon="-8.6439790">
        <ele>31.7</ele>
        <time>2021-05-22T12:05:51Z</time>
      </trkpt>
      <trkpt lat="42.5917370" lon="-8.6439800">
        <ele>31.7</ele>
        <time>2021-05-22T12:05:52Z</time>
      </trkpt>
      <trkpt lat="42.5917520" lon="-8.6439810">
        <ele>31.7</ele>
        <time>2021-05-22T12:05:53Z</time>
      </trkpt>
      <trkpt lat="42.5917640" lon="-8.6439900">
        <ele>31.8</ele>
        <time>2021-05-22T12:05:54Z</time>
      </trkpt>
      <trkpt lat="42.5917820" lon="-8.6439970">
        <ele>31.8</ele>
        <time>2021-05-22T12:05:55Z</time>
      </trkpt>
      <trkpt lat="42.5917940" lon="-8.6439960">
        <ele>31.8</ele>
        <time>2021-05-22T12:05:56Z</time>
      </trkpt>
      <trkpt lat="42.5918120" lon="-8.6440000">
        <ele>31.8</ele>
        <time>2021-05-22T12:05:57Z</time>
      </trkpt>
      <trkpt lat="42.5918220" lon="-8.6440000">
        <ele>31.9</ele>
        <time>2021-05-22T12:05:58Z</time>
      </trkpt>
      <trkpt lat="42.5918330" lon="-8.6440010">
        <ele>31.9</ele>
        <time>2021-05-22T12:05:59Z</time>
      </trkpt>
      <trkpt lat="42.5918480" lon="-8.6440050">
        <ele>31.9</ele>
        <time>2021-05-22T12:06:00Z</time>
      </trkpt>
      <trkpt lat="42.5918600" lon="-8.6440060">
        <ele>31.9</ele>
        <time>2021-05-22T12:06:01Z</time>
      </trkpt>
      <trkpt lat="42.5918740" lon="-8.6440130">
        <ele>32.0</ele>
        <time>2021-05-22T12:06:02Z</time>
      </trkpt>
      <trkpt lat="42.5918820" lon="-8.6440190">
        <ele>32.0</ele>
        <time>2021-05-22T12:06:03Z</time>
      </trkpt>
      <trkpt lat="42.5918930" lon="-8.6440270">
        <ele>32.0</ele>
        <time>2021-05-22T12:06:04Z</time>
      </trkpt>
      <trkpt lat="42.5919040" lon="-8.6440330">
        <ele>32.0</ele>
        <time>2021-05-22T12:06:05Z</time>
      </trkpt>
      <trkpt lat="42.5919140" lon="-8.6440360">
        <ele>32.1</ele>
        <time>2021-05-22T12:06:06Z</time>
      </trkpt>
      <trkpt lat="42.5919270" lon="-8.6440400">
        <ele>32.1</ele>
        <time>2021-05-22T12:06:07Z</time>
      </trkpt>
      <trkpt lat="42.5919470" lon="-8.6440530">
        <ele>32.2</ele>
        <time>2021-05-22T12:06:08Z</time>
      </trkpt>
      <trkpt lat="42.5919550" lon="-8.6440540">
        <ele>32.2</ele>
        <time>2021-05-22T12:06:09Z</time>
      </trkpt>
      <trkpt lat="42.5919630" lon="-8.6440560">
        <ele>32.2</ele>
        <time>2021-05-22T12:06:10Z</time>
      </trkpt>
      <trkpt lat="42.5919720" lon="-8.6440610">
        <ele>32.2</ele>
        <time>2021-05-22T12:06:11Z</time>
      </trkpt>
      <trkpt lat="42.5919850" lon="-8.6440640">
        <ele>32.3</ele>
        <time>2021-05-22T12:06:12Z</time>
      </trkpt>
      <trkpt lat="42.5919950" lon="-8.6440670">
        <ele>32.3</ele>
        <time>2021-05-22T12:06:13Z</time>
      </trkpt>
      <trkpt lat="42.5920090" lon="-8.6440700">
        <ele>32.3</ele>
        <time>2021-05-22T12:06:14Z</time>
      </trkpt>
      <trkpt lat="42.5920170" lon="-8.6440720">
        <ele>32.4</ele>
        <time>2021-05-22T12:06:15Z</time>
      </trkpt>
      <trkpt lat="42.5920240" lon="-8.6440740">
        <ele>32.4</ele>
        <time>2021-05-22T12:06:16Z</time>
      </trkpt>
      <trkpt lat="42.5920320" lon="-8.6440760">
        <ele>32.4</ele>
        <time>2021-05-22T12:06:17Z</time>
      </trkpt>
      <trkpt lat="42.5920440" lon="-8.6440830">
        <ele>32.5</ele>
        <time>2021-05-22T12:06:18Z</time>
      </trkpt>
      <trkpt lat="42.5920560" lon="-8.6440860">
        <ele>32.5</ele>
        <time>2021-05-22T12:06:19Z</time>
      </trkpt>
      <trkpt lat="42.5920650" lon="-8.6440880">
        <ele>32.5</ele>
        <time>2021-05-22T12:06:20Z</time>
      </trkpt>
      <trkpt lat="42.5920890" lon="-8.6440990">
        <ele>32.6</ele>
        <time>2021-05-22T12:06:21Z</time>
      </trkpt>
      <trkpt lat="42.5920980" lon="-8.6441030">
        <ele>32.7</ele>
        <time>2021-05-22T12:06:22Z</time>
      </trkpt>
      <trkpt lat="42.5921080" lon="-8.6441070">
        <ele>32.7</ele>
        <time>2021-05-22T12:06:23Z</time>
      </trkpt>
      <trkpt lat="42.5921170" lon="-8.6441100">
        <ele>32.8</ele>
        <time>2021-05-22T12:06:24Z</time>
      </trkpt>
      <trkpt lat="42.5921350" lon="-8.6441210">
        <ele>32.8</ele>
        <time>2021-05-22T12:06:25Z</time>
      </trkpt>
      <trkpt lat="42.5921550" lon="-8.6441260">
        <ele>32.9</ele>
        <time>2021-05-22T12:06:26Z</time>
      </trkpt>
      <trkpt lat="42.5921630" lon="-8.6441270">
        <ele>33.0</ele>
        <time>2021-05-22T12:06:27Z</time>
      </trkpt>
      <trkpt lat="42.5921710" lon="-8.6441280">
        <ele>33.0</ele>
        <time>2021-05-22T12:06:28Z</time>
      </trkpt>
      <trkpt lat="42.5921850" lon="-8.6441330">
        <ele>33.1</ele>
        <time>2021-05-22T12:06:29Z</time>
      </trkpt>
      <trkpt lat="42.5921930" lon="-8.6441420">
        <ele>33.1</ele>
        <time>2021-05-22T12:06:30Z</time>
      </trkpt>
      <trkpt lat="42.5922010" lon="-8.6441440">
        <ele>33.2</ele>
        <time>2021-05-22T12:06:31Z</time>
      </trkpt>
      <trkpt lat="42.5922170" lon="-8.6441450">
        <ele>33.3</ele>
        <time>2021-05-22T12:06:32Z</time>
      </trkpt>
      <trkpt lat="42.5922260" lon="-8.6441440">
        <ele>33.3</ele>
        <time>2021-05-22T12:06:33Z</time>
      </trkpt>
      <trkpt lat="42.5922340" lon="-8.6441430">
        <ele>33.4</ele>
        <time>2021-05-22T12:06:34Z</time>
      </trkpt>
      <trkpt lat="42.5922410" lon="-8.6441620">
        <ele>33.4</ele>
        <time>2021-05-22T12:06:35Z</time>
      </trkpt>
      <trkpt lat="42.5922470" lon="-8.6441680">
        <ele>33.5</ele>
        <time>2021-05-22T12:06:36Z</time>
      </trkpt>
      <trkpt lat="42.5922540" lon="-8.6441750">
        <ele>33.5</ele>
        <time>2021-05-22T12:06:37Z</time>
      </trkpt>
      <trkpt lat="42.5922600" lon="-8.6441810">
        <ele>33.6</ele>
        <time>2021-05-22T12:06:38Z</time>
      </trkpt>
      <trkpt lat="42.5922710" lon="-8.6441810">
        <ele>33.6</ele>
        <time>2021-05-22T12:06:39Z</time>
      </trkpt>
      <trkpt lat="42.5922790" lon="-8.6441810">
        <ele>33.7</ele>
        <time>2021-05-22T12:06:40Z</time>
      </trkpt>
      <trkpt lat="42.5922920" lon="-8.6441870">
        <ele>33.8</ele>
        <time>2021-05-22T12:06:41Z</time>
      </trkpt>
      <trkpt lat="42.5923020" lon="-8.6441920">
        <ele>33.8</ele>
        <time>2021-05-22T12:06:42Z</time>
      </trkpt>
      <trkpt lat="42.5923140" lon="-8.6441910">
        <ele>33.9</ele>
        <time>2021-05-22T12:06:43Z</time>
      </trkpt>
      <trkpt lat="42.5923210" lon="-8.6441900">
        <ele>33.9</ele>
        <time>2021-05-22T12:06:44Z</time>
      </trkpt>
      <trkpt lat="42.5923370" lon="-8.6441940">
        <ele>34.0</ele>
        <time>2021-05-22T12:06:45Z</time>
      </trkpt>
      <trkpt lat="42.5923530" lon="-8.6442000">
        <ele>34.1</ele>
        <time>2021-05-22T12:06:46Z</time>
      </trkpt>
      <trkpt lat="42.5923650" lon="-8.6441990">
        <ele>34.2</ele>
        <time>2021-05-22T12:06:47Z</time>
      </trkpt>
      <trkpt lat="42.5923790" lon="-8.6442050">
        <ele>34.3</ele>
        <time>2021-05-22T12:06:48Z</time>
      </trkpt>
      <trkpt lat="42.5923890" lon="-8.6442030">
        <ele>34.3</ele>
        <time>2021-05-22T12:06:49Z</time>
      </trkpt>
      <trkpt lat="42.5924080" lon="-8.6442090">
        <ele>34.4</ele>
        <time>2021-05-22T12:06:50Z</time>
      </trkpt>
      <trkpt lat="42.5924170" lon="-8.6442140">
        <ele>34.5</ele>
        <time>2021-05-22T12:06:51Z</time>
      </trkpt>
      <trkpt lat="42.5924270" lon="-8.6442180">
        <ele>34.6</ele>
        <time>2021-05-22T12:06:52Z</time>
      </trkpt>
      <trkpt lat="42.5924350" lon="-8.6442160">
        <ele>34.6</ele>
        <time>2021-05-22T12:06:53Z</time>
      </trkpt>
      <trkpt lat="42.5924460" lon="-8.6442160">
        <ele>34.7</ele>
        <time>2021-05-22T12:06:54Z</time>
      </trkpt>
      <trkpt lat="42.5924580" lon="-8.6442190">
        <ele>34.7</ele>
        <time>2021-05-22T12:06:55Z</time>
      </trkpt>
      <trkpt lat="42.5924690" lon="-8.6442270">
        <ele>34.8</ele>
        <time>2021-05-22T12:06:56Z</time>
      </trkpt>
      <trkpt lat="42.5924800" lon="-8.6442270">
        <ele>34.9</ele>
        <time>2021-05-22T12:06:57Z</time>
      </trkpt>
      <trkpt lat="42.5924930" lon="-8.6442240">
        <ele>34.9</ele>
        <time>2021-05-22T12:06:58Z</time>
      </trkpt>
      <trkpt lat="42.5925060" lon="-8.6442250">
        <ele>35.0</ele>
        <time>2021-05-22T12:06:59Z</time>
      </trkpt>
      <trkpt lat="42.5925230" lon="-8.6442310">
        <ele>35.1</ele>
        <time>2021-05-22T12:07:00Z</time>
      </trkpt>
      <trkpt lat="42.5925430" lon="-8.6442320">
        <ele>35.2</ele>
        <time>2021-05-22T12:07:01Z</time>
      </trkpt>
      <trkpt lat="42.5925520" lon="-8.6442320">
        <ele>35.3</ele>
        <time>2021-05-22T12:07:02Z</time>
      </trkpt>
      <trkpt lat="42.5925600" lon="-8.6442310">
        <ele>35.3</ele>
        <time>2021-05-22T12:07:03Z</time>
      </trkpt>
      <trkpt lat="42.5925680" lon="-8.6442320">
        <ele>35.3</ele>
        <time>2021-05-22T12:07:04Z</time>
      </trkpt>
      <trkpt lat="42.5925820" lon="-8.6442330">
        <ele>35.4</ele>
        <time>2021-05-22T12:07:05Z</time>
      </trkpt>
      <trkpt lat="42.5925930" lon="-8.6442310">
        <ele>35.5</ele>
        <time>2021-05-22T12:07:06Z</time>
      </trkpt>
      <trkpt lat="42.5926060" lon="-8.6442320">
        <ele>35.5</ele>
        <time>2021-05-22T12:07:07Z</time>
      </trkpt>
      <trkpt lat="42.5926170" lon="-8.6442340">
        <ele>35.6</ele>
        <time>2021-05-22T12:07:08Z</time>
      </trkpt>
      <trkpt lat="42.5926270" lon="-8.6442340">
        <ele>35.6</ele>
        <time>2021-05-22T12:07:09Z</time>
      </trkpt>
      <trkpt lat="42.5926390" lon="-8.6442350">
        <ele>35.7</ele>
        <time>2021-05-22T12:07:10Z</time>
      </trkpt>
      <trkpt lat="42.5926480" lon="-8.6442300">
        <ele>35.8</ele>
        <time>2021-05-22T12:07:11Z</time>
      </trkpt>
      <trkpt lat="42.5926620" lon="-8.6442290">
        <ele>35.8</ele>
        <time>2021-05-22T12:07:12Z</time>
      </trkpt>
      <trkpt lat="42.5926720" lon="-8.6442260">
        <ele>35.9</ele>
        <time>2021-05-22T12:07:13Z</time>
      </trkpt>
      <trkpt lat="42.5926850" lon="-8.6442250">
        <ele>35.9</ele>
        <time>2021-05-22T12:07:14Z</time>
      </trkpt>
      <trkpt lat="42.5926900" lon="-8.6442250">
        <ele>36.0</ele>
        <time>2021-05-22T12:07:15Z</time>
      </trkpt>
      <trkpt lat="42.5926860" lon="-8.6442320">
        <ele>36.0</ele>
        <time>2021-05-22T12:07:16Z</time>
      </trkpt>
      <trkpt lat="42.5926930" lon="-8.6442330">
        <ele>36.0</ele>
        <time>2021-05-22T12:07:17Z</time>
      </trkpt>
      <trkpt lat="42.5927020" lon="-8.6442270">
        <ele>36.1</ele>
        <time>2021-05-22T12:07:18Z</time>
      </trkpt>
      <trkpt lat="42.5927170" lon="-8.6442220">
        <ele>36.1</ele>
        <time>2021-05-22T12:07:19Z</time>
      </trkpt>
      <trkpt lat="42.5927260" lon="-8.6442200">
        <ele>36.2</ele>
        <time>2021-05-22T12:07:20Z</time>
      </trkpt>
      <trkpt lat="42.5927370" lon="-8.6442220">
        <ele>36.2</ele>
        <time>2021-05-22T12:07:21Z</time>
      </trkpt>
      <trkpt lat="42.5927450" lon="-8.6442270">
        <ele>36.3</ele>
        <time>2021-05-22T12:07:22Z</time>
      </trkpt>
      <trkpt lat="42.5927590" lon="-8.6442230">
        <ele>36.3</ele>
        <time>2021-05-22T12:07:23Z</time>
      </trkpt>
      <trkpt lat="42.5927710" lon="-8.6442150">
        <ele>36.4</ele>
        <time>2021-05-22T12:07:24Z</time>
      </trkpt>
      <trkpt lat="42.5927810" lon="-8.6442110">
        <ele>36.4</ele>
        <time>2021-05-22T12:07:25Z</time>
      </trkpt>
      <trkpt lat="42.5927900" lon="-8.6442070">
        <ele>36.5</ele>
        <time>2021-05-22T12:07:26Z</time>
      </trkpt>
      <trkpt lat="42.5928040" lon="-8.6441970">
        <ele>36.5</ele>
        <time>2021-05-22T12:07:27Z</time>
      </trkpt>
      <trkpt lat="42.5928250" lon="-8.6441930">
        <ele>36.6</ele>
        <time>2021-05-22T12:07:28Z</time>
      </trkpt>
      <trkpt lat="42.5928330" lon="-8.6441910">
        <ele>36.7</ele>
        <time>2021-05-22T12:07:29Z</time>
      </trkpt>
      <trkpt lat="42.5928400" lon="-8.6441900">
        <ele>36.7</ele>
        <time>2021-05-22T12:07:30Z</time>
      </trkpt>
      <trkpt lat="42.5928560" lon="-8.6441820">
        <ele>36.8</ele>
        <time>2021-05-22T12:07:31Z</time>
      </trkpt>
      <trkpt lat="42.5928680" lon="-8.6441720">
        <ele>36.8</ele>
        <time>2021-05-22T12:07:32Z</time>
      </trkpt>
      <trkpt lat="42.5928810" lon="-8.6441600">
        <ele>36.9</ele>
        <time>2021-05-22T12:07:33Z</time>
      </trkpt>
      <trkpt lat="42.5928880" lon="-8.6441550">
        <ele>36.9</ele>
        <time>2021-05-22T12:07:34Z</time>
      </trkpt>
      <trkpt lat="42.5929000" lon="-8.6441490">
        <ele>37.0</ele>
        <time>2021-05-22T12:07:35Z</time>
      </trkpt>
      <trkpt lat="42.5929100" lon="-8.6441400">
        <ele>37.0</ele>
        <time>2021-05-22T12:07:36Z</time>
      </trkpt>
      <trkpt lat="42.5929270" lon="-8.6441330">
        <ele>37.1</ele>
        <time>2021-05-22T12:07:37Z</time>
      </trkpt>
      <trkpt lat="42.5929380" lon="-8.6441310">
        <ele>37.1</ele>
        <time>2021-05-22T12:07:38Z</time>
      </trkpt>
      <trkpt lat="42.5929470" lon="-8.6441260">
        <ele>37.2</ele>
        <time>2021-05-22T12:07:39Z</time>
      </trkpt>
      <trkpt lat="42.5929610" lon="-8.6441280">
        <ele>37.2</ele>
        <time>2021-05-22T12:07:40Z</time>
      </trkpt>
      <trkpt lat="42.5929780" lon="-8.6441250">
        <ele>37.3</ele>
        <time>2021-05-22T12:07:41Z</time>
      </trkpt>
      <trkpt lat="42.5929900" lon="-8.6441200">
        <ele>37.3</ele>
        <time>2021-05-22T12:07:42Z</time>
      </trkpt>
      <trkpt lat="42.5930030" lon="-8.6441120">
        <ele>37.4</ele>
        <time>2021-05-22T12:07:43Z</time>
      </trkpt>
      <trkpt lat="42.5930150" lon="-8.6441110">
        <ele>37.5</ele>
        <time>2021-05-22T12:07:44Z</time>
      </trkpt>
      <trkpt lat="42.5930220" lon="-8.6441030">
        <ele>37.5</ele>
        <time>2021-05-22T12:07:45Z</time>
      </trkpt>
      <trkpt lat="42.5930310" lon="-8.6440930">
        <ele>37.5</ele>
        <time>2021-05-22T12:07:46Z</time>
      </trkpt>
      <trkpt lat="42.5930420" lon="-8.6440930">
        <ele>37.6</ele>
        <time>2021-05-22T12:07:47Z</time>
      </trkpt>
      <trkpt lat="42.5930560" lon="-8.6440920">
        <ele>37.7</ele>
        <time>2021-05-22T12:07:48Z</time>
      </trkpt>
      <trkpt lat="42.5930630" lon="-8.6440850">
        <ele>37.7</ele>
        <time>2021-05-22T12:07:49Z</time>
      </trkpt>
      <trkpt lat="42.5930710" lon="-8.6440760">
        <ele>37.7</ele>
        <time>2021-05-22T12:07:50Z</time>
      </trkpt>
      <trkpt lat="42.5930830" lon="-8.6440710">
        <ele>37.8</ele>
        <time>2021-05-22T12:07:51Z</time>
      </trkpt>
      <trkpt lat="42.5931060" lon="-8.6440650">
        <ele>37.9</ele>
        <time>2021-05-22T12:07:52Z</time>
      </trkpt>
      <trkpt lat="42.5931130" lon="-8.6440630">
        <ele>37.9</ele>
        <time>2021-05-22T12:07:53Z</time>
      </trkpt>
      <trkpt lat="42.5931210" lon="-8.6440600">
        <ele>38.0</ele>
        <time>2021-05-22T12:07:54Z</time>
      </trkpt>
      <trkpt lat="42.5931250" lon="-8.6440490">
        <ele>38.0</ele>
        <time>2021-05-22T12:07:55Z</time>
      </trkpt>
      <trkpt lat="42.5931390" lon="-8.6440430">
        <ele>38.1</ele>
        <time>2021-05-22T12:07:56Z</time>
      </trkpt>
      <trkpt lat="42.5931520" lon="-8.6440390">
        <ele>38.1</ele>
        <time>2021-05-22T12:07:57Z</time>
      </trkpt>
      <trkpt lat="42.5931680" lon="-8.6440350">
        <ele>38.2</ele>
        <time>2021-05-22T12:07:58Z</time>
      </trkpt>
      <trkpt lat="42.5931780" lon="-8.6440350">
        <ele>38.2</ele>
        <time>2021-05-22T12:07:59Z</time>
      </trkpt>
      <trkpt lat="42.5931860" lon="-8.6440330">
        <ele>38.3</ele>
        <time>2021-05-22T12:08:00Z</time>
      </trkpt>
      <trkpt lat="42.5931980" lon="-8.6440270">
        <ele>38.3</ele>
        <time>2021-05-22T12:08:01Z</time>
      </trkpt>
      <trkpt lat="42.5932060" lon="-8.6440270">
        <ele>38.4</ele>
        <time>2021-05-22T12:08:02Z</time>
      </trkpt>
      <trkpt lat="42.5932140" lon="-8.6440200">
        <ele>38.4</ele>
        <time>2021-05-22T12:08:03Z</time>
      </trkpt>
      <trkpt lat="42.5932290" lon="-8.6440160">
        <ele>38.5</ele>
        <time>2021-05-22T12:08:04Z</time>
      </trkpt>
      <trkpt lat="42.5932430" lon="-8.6440110">
        <ele>38.5</ele>
        <time>2021-05-22T12:08:05Z</time>
      </trkpt>
      <trkpt lat="42.5932530" lon="-8.6440080">
        <ele>38.6</ele>
        <time>2021-05-22T12:08:06Z</time>
      </trkpt>
      <trkpt lat="42.5932660" lon="-8.6440050">
        <ele>38.6</ele>
        <time>2021-05-22T12:08:07Z</time>
      </trkpt>
      <trkpt lat="42.5932760" lon="-8.6440020">
        <ele>38.7</ele>
        <time>2021-05-22T12:08:08Z</time>
      </trkpt>
      <trkpt lat="42.5932950" lon="-8.6439930">
        <ele>38.7</ele>
        <time>2021-05-22T12:08:09Z</time>
      </trkpt>
      <trkpt lat="42.5933020" lon="-8.6439890">
        <ele>38.8</ele>
        <time>2021-05-22T12:08:10Z</time>
      </trkpt>
      <trkpt lat="42.5933100" lon="-8.6439850">
        <ele>38.8</ele>
        <time>2021-05-22T12:08:11Z</time>
      </trkpt>
      <trkpt lat="42.5933190" lon="-8.6439850">
        <ele>38.8</ele>
        <time>2021-05-22T12:08:12Z</time>
      </trkpt>
      <trkpt lat="42.5933290" lon="-8.6439780">
        <ele>38.9</ele>
        <time>2021-05-22T12:08:13Z</time>
      </trkpt>
      <trkpt lat="42.5933410" lon="-8.6439740">
        <ele>38.9</ele>
        <time>2021-05-22T12:08:14Z</time>
      </trkpt>
      <trkpt lat="42.5933510" lon="-8.6439710">
        <ele>39.0</ele>
        <time>2021-05-22T12:08:15Z</time>
      </trkpt>
      <trkpt lat="42.5933610" lon="-8.6439650">
        <ele>39.0</ele>
        <time>2021-05-22T12:08:16Z</time>
      </trkpt>
      <trkpt lat="42.5933760" lon="-8.6439630">
        <ele>39.1</ele>
        <time>2021-05-22T12:08:17Z</time>
      </trkpt>
      <trkpt lat="42.5933850" lon="-8.6439550">
        <ele>39.1</ele>
        <time>2021-05-22T12:08:18Z</time>
      </trkpt>
      <trkpt lat="42.5933970" lon="-8.6439480">
        <ele>39.2</ele>
        <time>2021-05-22T12:08:19Z</time>
      </trkpt>
      <trkpt lat="42.5934040" lon="-8.6439420">
        <ele>39.2</ele>
        <time>2021-05-22T12:08:20Z</time>
      </trkpt>
      <trkpt lat="42.5934140" lon="-8.6439350">
        <ele>39.3</ele>
        <time>2021-05-22T12:08:21Z</time>
      </trkpt>
      <trkpt lat="42.5934250" lon="-8.6439350">
        <ele>39.3</ele>
        <time>2021-05-22T12:08:22Z</time>
      </trkpt>
      <trkpt lat="42.5934330" lon="-8.6439280">
        <ele>39.3</ele>
        <time>2021-05-22T12:08:23Z</time>
      </trkpt>
      <trkpt lat="42.5934530" lon="-8.6439220">
        <ele>39.4</ele>
        <time>2021-05-22T12:08:24Z</time>
      </trkpt>
      <trkpt lat="42.5934610" lon="-8.6439180">
        <ele>39.5</ele>
        <time>2021-05-22T12:08:25Z</time>
      </trkpt>
      <trkpt lat="42.5934700" lon="-8.6439140">
        <ele>39.5</ele>
        <time>2021-05-22T12:08:26Z</time>
      </trkpt>
      <trkpt lat="42.5934820" lon="-8.6439070">
        <ele>39.6</ele>
        <time>2021-05-22T12:08:27Z</time>
      </trkpt>
      <trkpt lat="42.5934940" lon="-8.6439050">
        <ele>39.6</ele>
        <time>2021-05-22T12:08:28Z</time>
      </trkpt>
      <trkpt lat="42.5935020" lon="-8.6439000">
        <ele>39.6</ele>
        <time>2021-05-22T12:08:29Z</time>
      </trkpt>
      <trkpt lat="42.5935210" lon="-8.6438910">
        <ele>39.7</ele>
        <time>2021-05-22T12:08:30Z</time>
      </trkpt>
      <trkpt lat="42.5935300" lon="-8.6438890">
        <ele>39.8</ele>
        <time>2021-05-22T12:08:31Z</time>
      </trkpt>
      <trkpt lat="42.5935380" lon="-8.6438860">
        <ele>39.8</ele>
        <time>2021-05-22T12:08:32Z</time>
      </trkpt>
      <trkpt lat="42.5935570" lon="-8.6438780">
        <ele>39.9</ele>
        <time>2021-05-22T12:08:33Z</time>
      </trkpt>
      <trkpt lat="42.5935660" lon="-8.6438770">
        <ele>39.9</ele>
        <time>2021-05-22T12:08:34Z</time>
      </trkpt>
      <trkpt lat="42.5935740" lon="-8.6438750">
        <ele>39.9</ele>
        <time>2021-05-22T12:08:35Z</time>
      </trkpt>
      <trkpt lat="42.5935880" lon="-8.6438710">
        <ele>40.0</ele>
        <time>2021-05-22T12:08:36Z</time>
      </trkpt>
      <trkpt lat="42.5936000" lon="-8.6438640">
        <ele>40.0</ele>
        <time>2021-05-22T12:08:37Z</time>
      </trkpt>
      <trkpt lat="42.5936080" lon="-8.6438580">
        <ele>40.1</ele>
        <time>2021-05-22T12:08:38Z</time>
      </trkpt>
      <trkpt lat="42.5936160" lon="-8.6438540">
        <ele>40.1</ele>
        <time>2021-05-22T12:08:39Z</time>
      </trkpt>
      <trkpt lat="42.5936260" lon="-8.6438470">
        <ele>40.2</ele>
        <time>2021-05-22T12:08:40Z</time>
      </trkpt>
      <trkpt lat="42.5936400" lon="-8.6438460">
        <ele>40.2</ele>
        <time>2021-05-22T12:08:41Z</time>
      </trkpt>
      <trkpt lat="42.5936550" lon="-8.6438400">
        <ele>40.3</ele>
        <time>2021-05-22T12:08:42Z</time>
      </trkpt>
      <trkpt lat="42.5936690" lon="-8.6438360">
        <ele>40.4</ele>
        <time>2021-05-22T12:08:43Z</time>
      </trkpt>
      <trkpt lat="42.5936790" lon="-8.6438350">
        <ele>40.4</ele>
        <time>2021-05-22T12:08:44Z</time>
      </trkpt>
      <trkpt lat="42.5936890" lon="-8.6438300">
        <ele>40.5</ele>
        <time>2021-05-22T12:08:45Z</time>
      </trkpt>
      <trkpt lat="42.5937040" lon="-8.6438280">
        <ele>40.5</ele>
        <time>2021-05-22T12:08:46Z</time>
      </trkpt>
      <trkpt lat="42.5937160" lon="-8.6438250">
        <ele>40.6</ele>
        <time>2021-05-22T12:08:47Z</time>
      </trkpt>
      <trkpt lat="42.5937260" lon="-8.6438190">
        <ele>40.6</ele>
        <time>2021-05-22T12:08:48Z</time>
      </trkpt>
      <trkpt lat="42.5937340" lon="-8.6438060">
        <ele>40.7</ele>
        <time>2021-05-22T12:08:49Z</time>
      </trkpt>
      <trkpt lat="42.5937460" lon="-8.6438040">
        <ele>40.7</ele>
        <time>2021-05-22T12:08:50Z</time>
      </trkpt>
      <trkpt lat="42.5937580" lon="-8.6437970">
        <ele>40.8</ele>
        <time>2021-05-22T12:08:51Z</time>
      </trkpt>
      <trkpt lat="42.5937730" lon="-8.6437900">
        <ele>40.9</ele>
        <time>2021-05-22T12:08:52Z</time>
      </trkpt>
      <trkpt lat="42.5937820" lon="-8.6437740">
        <ele>40.9</ele>
        <time>2021-05-22T12:08:53Z</time>
      </trkpt>
      <trkpt lat="42.5937910" lon="-8.6437750">
        <ele>41.0</ele>
        <time>2021-05-22T12:08:54Z</time>
      </trkpt>
      <trkpt lat="42.5937990" lon="-8.6437750">
        <ele>41.0</ele>
        <time>2021-05-22T12:08:55Z</time>
      </trkpt>
      <trkpt lat="42.5938080" lon="-8.6437760">
        <ele>41.1</ele>
        <time>2021-05-22T12:08:56Z</time>
      </trkpt>
      <trkpt lat="42.5938180" lon="-8.6437710">
        <ele>41.1</ele>
        <time>2021-05-22T12:08:57Z</time>
      </trkpt>
      <trkpt lat="42.5938300" lon="-8.6437720">
        <ele>41.2</ele>
        <time>2021-05-22T12:08:58Z</time>
      </trkpt>
      <trkpt lat="42.5938400" lon="-8.6437690">
        <ele>41.2</ele>
        <time>2021-05-22T12:08:59Z</time>
      </trkpt>
      <trkpt lat="42.5938550" lon="-8.6437590">
        <ele>41.3</ele>
        <time>2021-05-22T12:09:00Z</time>
      </trkpt>
      <trkpt lat="42.5938700" lon="-8.6437570">
        <ele>41.4</ele>
        <time>2021-05-22T12:09:01Z</time>
      </trkpt>
      <trkpt lat="42.5938770" lon="-8.6437540">
        <ele>41.4</ele>
        <time>2021-05-22T12:09:02Z</time>
      </trkpt>
      <trkpt lat="42.5938890" lon="-8.6437460">
        <ele>41.5</ele>
        <time>2021-05-22T12:09:03Z</time>
      </trkpt>
      <trkpt lat="42.5939010" lon="-8.6437400">
        <ele>41.5</ele>
        <time>2021-05-22T12:09:04Z</time>
      </trkpt>
      <trkpt lat="42.5939150" lon="-8.6437250">
        <ele>41.6</ele>
        <time>2021-05-22T12:09:05Z</time>
      </trkpt>
      <trkpt lat="42.5939240" lon="-8.6437200">
        <ele>41.6</ele>
        <time>2021-05-22T12:09:06Z</time>
      </trkpt>
      <trkpt lat="42.5939330" lon="-8.6437160">
        <ele>41.7</ele>
        <time>2021-05-22T12:09:07Z</time>
      </trkpt>
      <trkpt lat="42.5939470" lon="-8.6437190">
        <ele>41.7</ele>
        <time>2021-05-22T12:09:08Z</time>
      </trkpt>
      <trkpt lat="42.5939550" lon="-8.6437160">
        <ele>41.8</ele>
        <time>2021-05-22T12:09:09Z</time>
      </trkpt>
      <trkpt lat="42.5939650" lon="-8.6437140">
        <ele>41.8</ele>
        <time>2021-05-22T12:09:10Z</time>
      </trkpt>
      <trkpt lat="42.5939780" lon="-8.6437090">
        <ele>41.9</ele>
        <time>2021-05-22T12:09:11Z</time>
      </trkpt>
      <trkpt lat="42.5939890" lon="-8.6437100">
        <ele>41.9</ele>
        <time>2021-05-22T12:09:12Z</time>
      </trkpt>
      <trkpt lat="42.5939970" lon="-8.6437140">
        <ele>42.0</ele>
        <time>2021-05-22T12:09:13Z</time>
      </trkpt>
      <trkpt lat="42.5940150" lon="-8.6437090">
        <ele>42.0</ele>
        <time>2021-05-22T12:09:14Z</time>
      </trkpt>
      <trkpt lat="42.5940280" lon="-8.6437100">
        <ele>42.1</ele>
        <time>2021-05-22T12:09:15Z</time>
      </trkpt>
      <trkpt lat="42.5940440" lon="-8.6437070">
        <ele>42.2</ele>
        <time>2021-05-22T12:09:16Z</time>
      </trkpt>
      <trkpt lat="42.5940530" lon="-8.6437080">
        <ele>42.2</ele>
        <time>2021-05-22T12:09:17Z</time>
      </trkpt>
      <trkpt lat="42.5940640" lon="-8.6437040">
        <ele>42.2</ele>
        <time>2021-05-22T12:09:18Z</time>
      </trkpt>
      <trkpt lat="42.5940850" lon="-8.6436950">
        <ele>42.3</ele>
        <time>2021-05-22T12:09:19Z</time>
      </trkpt>
      <trkpt lat="42.5940920" lon="-8.6436950">
        <ele>42.4</ele>
        <time>2021-05-22T12:09:20Z</time>
      </trkpt>
      <trkpt lat="42.5941000" lon="-8.6436950">
        <ele>42.4</ele>
        <time>2021-05-22T12:09:21Z</time>
      </trkpt>
      <trkpt lat="42.5941120" lon="-8.6436880">
        <ele>42.4</ele>
        <time>2021-05-22T12:09:22Z</time>
      </trkpt>
      <trkpt lat="42.5941250" lon="-8.6436840">
        <ele>42.5</ele>
        <time>2021-05-22T12:09:23Z</time>
      </trkpt>
      <trkpt lat="42.5941340" lon="-8.6436820">
        <ele>42.5</ele>
        <time>2021-05-22T12:09:24Z</time>
      </trkpt>
      <trkpt lat="42.5941430" lon="-8.6436810">
        <ele>42.6</ele>
        <time>2021-05-22T12:09:25Z</time>
      </trkpt>
      <trkpt lat="42.5941590" lon="-8.6436770">
        <ele>42.6</ele>
        <time>2021-05-22T12:09:26Z</time>
      </trkpt>
      <trkpt lat="42.5941670" lon="-8.6436730">
        <ele>42.7</ele>
        <time>2021-05-22T12:09:27Z</time>
      </trkpt>
      <trkpt lat="42.5941770" lon="-8.6436640">
        <ele>42.7</ele>
        <time>2021-05-22T12:09:28Z</time>
      </trkpt>
      <trkpt lat="42.5941880" lon="-8.6436640">
        <ele>42.8</ele>
        <time>2021-05-22T12:09:29Z</time>
      </trkpt>
      <trkpt lat="42.5942010" lon="-8.6436600">
        <ele>42.8</ele>
        <time>2021-05-22T12:09:30Z</time>
      </trkpt>
      <trkpt lat="42.5942110" lon="-8.6436550">
        <ele>42.8</ele>
        <time>2021-05-22T12:09:31Z</time>
      </trkpt>
      <trkpt lat="42.5942190" lon="-8.6436520">
        <ele>42.9</ele>
        <time>2021-05-22T12:09:32Z</time>
      </trkpt>
      <trkpt lat="42.5942310" lon="-8.6436400">
        <ele>42.9</ele>
        <time>2021-05-22T12:09:33Z</time>
      </trkpt>
      <trkpt lat="42.5942510" lon="-8.6436330">
        <ele>43.0</ele>
        <time>2021-05-22T12:09:34Z</time>
      </trkpt>
      <trkpt lat="42.5942610" lon="-8.6436310">
        <ele>43.1</ele>
        <time>2021-05-22T12:09:35Z</time>
      </trkpt>
      <trkpt lat="42.5942700" lon="-8.6436280">
        <ele>43.1</ele>
        <time>2021-05-22T12:09:36Z</time>
      </trkpt>
      <trkpt lat="42.5942800" lon="-8.6436280">
        <ele>43.1</ele>
        <time>2021-05-22T12:09:37Z</time>
      </trkpt>
      <trkpt lat="42.5942930" lon="-8.6436220">
        <ele>43.2</ele>
        <time>2021-05-22T12:09:38Z</time>
      </trkpt>
      <trkpt lat="42.5943000" lon="-8.6436190">
        <ele>43.2</ele>
        <time>2021-05-22T12:09:39Z</time>
      </trkpt>
      <trkpt lat="42.5943120" lon="-8.6436200">
        <ele>43.3</ele>
        <time>2021-05-22T12:09:40Z</time>
      </trkpt>
      <trkpt lat="42.5943220" lon="-8.6436170">
        <ele>43.3</ele>
        <time>2021-05-22T12:09:41Z</time>
      </trkpt>
      <trkpt lat="42.5943330" lon="-8.6436160">
        <ele>43.4</ele>
        <time>2021-05-22T12:09:42Z</time>
      </trkpt>
      <trkpt lat="42.5943480" lon="-8.6436180">
        <ele>43.4</ele>
        <time>2021-05-22T12:09:43Z</time>
      </trkpt>
      <trkpt lat="42.5943640" lon="-8.6436210">
        <ele>43.5</ele>
        <time>2021-05-22T12:09:44Z</time>
      </trkpt>
      <trkpt lat="42.5943740" lon="-8.6436270">
        <ele>43.6</ele>
        <time>2021-05-22T12:09:45Z</time>
      </trkpt>
      <trkpt lat="42.5943830" lon="-8.6436230">
        <ele>43.6</ele>
        <time>2021-05-22T12:09:46Z</time>
      </trkpt>
      <trkpt lat="42.5943970" lon="-8.6436170">
        <ele>43.7</ele>
        <time>2021-05-22T12:09:47Z</time>
      </trkpt>
      <trkpt lat="42.5944150" lon="-8.6436090">
        <ele>43.8</ele>
        <time>2021-05-22T12:09:48Z</time>
      </trkpt>
      <trkpt lat="42.5944240" lon="-8.6436070">
        <ele>43.8</ele>
        <time>2021-05-22T12:09:49Z</time>
      </trkpt>
      <trkpt lat="42.5944320" lon="-8.6436050">
        <ele>43.8</ele>
        <time>2021-05-22T12:09:50Z</time>
      </trkpt>
      <trkpt lat="42.5944410" lon="-8.6435980">
        <ele>43.9</ele>
        <time>2021-05-22T12:09:51Z</time>
      </trkpt>
      <trkpt lat="42.5944460" lon="-8.6435960">
        <ele>43.9</ele>
        <time>2021-05-22T12:09:52Z</time>
      </trkpt>
      <trkpt lat="42.5944590" lon="-8.6435920">
        <ele>44.0</ele>
        <time>2021-05-22T12:09:53Z</time>
      </trkpt>
      <trkpt lat="42.5944790" lon="-8.6435910">
        <ele>44.1</ele>
        <time>2021-05-22T12:09:54Z</time>
      </trkpt>
      <trkpt lat="42.5944890" lon="-8.6435870">
        <ele>44.1</ele>
        <time>2021-05-22T12:09:55Z</time>
      </trkpt>
      <trkpt lat="42.5944970" lon="-8.6435880">
        <ele>44.1</ele>
        <time>2021-05-22T12:09:56Z</time>
      </trkpt>
      <trkpt lat="42.5945070" lon="-8.6435890">
        <ele>44.2</ele>
        <time>2021-05-22T12:09:57Z</time>
      </trkpt>
      <trkpt lat="42.5945150" lon="-8.6435900">
        <ele>44.2</ele>
        <time>2021-05-22T12:09:58Z</time>
      </trkpt>
      <trkpt lat="42.5945250" lon="-8.6435860">
        <ele>44.3</ele>
        <time>2021-05-22T12:09:59Z</time>
      </trkpt>
      <trkpt lat="42.5945410" lon="-8.6435820">
        <ele>44.3</ele>
        <time>2021-05-22T12:10:00Z</time>
      </trkpt>
      <trkpt lat="42.5945500" lon="-8.6435830">
        <ele>44.4</ele>
        <time>2021-05-22T12:10:01Z</time>
      </trkpt>
      <trkpt lat="42.5945540" lon="-8.6435870">
        <ele>44.4</ele>
        <time>2021-05-22T12:10:02Z</time>
      </trkpt>
      <trkpt lat="42.5945750" lon="-8.6435840">
        <ele>44.5</ele>
        <time>2021-05-22T12:10:03Z</time>
      </trkpt>
      <trkpt lat="42.5945830" lon="-8.6435850">
        <ele>44.5</ele>
        <time>2021-05-22T12:10:04Z</time>
      </trkpt>
      <trkpt lat="42.5945920" lon="-8.6435860">
        <ele>44.6</ele>
        <time>2021-05-22T12:10:05Z</time>
      </trkpt>
      <trkpt lat="42.5946130" lon="-8.6435800">
        <ele>44.7</ele>
        <time>2021-05-22T12:10:06Z</time>
      </trkpt>
      <trkpt lat="42.5946210" lon="-8.6435780">
        <ele>44.7</ele>
        <time>2021-05-22T12:10:07Z</time>
      </trkpt>
      <trkpt lat="42.5946280" lon="-8.6435760">
        <ele>44.7</ele>
        <time>2021-05-22T12:10:08Z</time>
      </trkpt>
      <trkpt lat="42.5946370" lon="-8.6435750">
        <ele>44.8</ele>
        <time>2021-05-22T12:10:09Z</time>
      </trkpt>
      <trkpt lat="42.5946560" lon="-8.6435740">
        <ele>44.8</ele>
        <time>2021-05-22T12:10:10Z</time>
      </trkpt>
      <trkpt lat="42.5946700" lon="-8.6435690">
        <ele>44.9</ele>
        <time>2021-05-22T12:10:11Z</time>
      </trkpt>
      <trkpt lat="42.5946860" lon="-8.6435650">
        <ele>45.0</ele>
        <time>2021-05-22T12:10:12Z</time>
      </trkpt>
      <trkpt lat="42.5947100" lon="-8.6435640">
        <ele>45.1</ele>
        <time>2021-05-22T12:10:13Z</time>
      </trkpt>
      <trkpt lat="42.5947190" lon="-8.6435650">
        <ele>45.1</ele>
        <time>2021-05-22T12:10:14Z</time>
      </trkpt>
      <trkpt lat="42.5947280" lon="-8.6435650">
        <ele>45.1</ele>
        <time>2021-05-22T12:10:15Z</time>
      </trkpt>
      <trkpt lat="42.5947480" lon="-8.6435660">
        <ele>45.2</ele>
        <time>2021-05-22T12:10:16Z</time>
      </trkpt>
      <trkpt lat="42.5947570" lon="-8.6435670">
        <ele>45.2</ele>
        <time>2021-05-22T12:10:17Z</time>
      </trkpt>
      <trkpt lat="42.5947650" lon="-8.6435670">
        <ele>45.3</ele>
        <time>2021-05-22T12:10:18Z</time>
      </trkpt>
      <trkpt lat="42.5947760" lon="-8.6435640">
        <ele>45.3</ele>
        <time>2021-05-22T12:10:19Z</time>
      </trkpt>
      <trkpt lat="42.5947890" lon="-8.6435610">
        <ele>45.3</ele>
        <time>2021-05-22T12:10:20Z</time>
      </trkpt>
      <trkpt lat="42.5948000" lon="-8.6435620">
        <ele>45.4</ele>
        <time>2021-05-22T12:10:21Z</time>
      </trkpt>
      <trkpt lat="42.5948210" lon="-8.6435620">
        <ele>45.5</ele>
        <time>2021-05-22T12:10:22Z</time>
      </trkpt>
      <trkpt lat="42.5948290" lon="-8.6435640">
        <ele>45.5</ele>
        <time>2021-05-22T12:10:23Z</time>
      </trkpt>
      <trkpt lat="42.5948380" lon="-8.6435650">
        <ele>45.5</ele>
        <time>2021-05-22T12:10:24Z</time>
      </trkpt>
      <trkpt lat="42.5948440" lon="-8.6435720">
        <ele>45.5</ele>
        <time>2021-05-22T12:10:25Z</time>
      </trkpt>
      <trkpt lat="42.5948530" lon="-8.6435760">
        <ele>45.6</ele>
        <time>2021-05-22T12:10:26Z</time>
      </trkpt>
      <trkpt lat="42.5948530" lon="-8.6435780">
        <ele>45.6</ele>
        <time>2021-05-22T12:10:27Z</time>
      </trkpt>
      <trkpt lat="42.5948640" lon="-8.6435780">
        <ele>45.6</ele>
        <time>2021-05-22T12:10:28Z</time>
      </trkpt>
      <trkpt lat="42.5948840" lon="-8.6435820">
        <ele>45.7</ele>
        <time>2021-05-22T12:10:29Z</time>
      </trkpt>
      <trkpt lat="42.5948950" lon="-8.6435840">
        <ele>45.7</ele>
        <time>2021-05-22T12:10:30Z</time>
      </trkpt>
      <trkpt lat="42.5949050" lon="-8.6435860">
        <ele>45.7</ele>
        <time>2021-05-22T12:10:31Z</time>
      </trkpt>
      <trkpt lat="42.5949210" lon="-8.6435900">
        <ele>45.8</ele>
        <time>2021-05-22T12:10:32Z</time>
      </trkpt>
      <trkpt lat="42.5949290" lon="-8.6435930">
        <ele>45.8</ele>
        <time>2021-05-22T12:10:33Z</time>
      </trkpt>
      <trkpt lat="42.5949360" lon="-8.6435950">
        <ele>45.8</ele>
        <time>2021-05-22T12:10:34Z</time>
      </trkpt>
      <trkpt lat="42.5949430" lon="-8.6435980">
        <ele>45.8</ele>
        <time>2021-05-22T12:10:35Z</time>
      </trkpt>
      <trkpt lat="42.5949490" lon="-8.6436040">
        <ele>45.8</ele>
        <time>2021-05-22T12:10:36Z</time>
      </trkpt>
      <trkpt lat="42.5949550" lon="-8.6436110">
        <ele>45.9</ele>
        <time>2021-05-22T12:10:37Z</time>
      </trkpt>
      <trkpt lat="42.5949620" lon="-8.6436120">
        <ele>45.9</ele>
        <time>2021-05-22T12:10:38Z</time>
      </trkpt>
      <trkpt lat="42.5949740" lon="-8.6436050">
        <ele>45.9</ele>
        <time>2021-05-22T12:10:39Z</time>
      </trkpt>
      <trkpt lat="42.5949870" lon="-8.6436090">
        <ele>46.0</ele>
        <time>2021-05-22T12:10:40Z</time>
      </trkpt>
      <trkpt lat="42.5950030" lon="-8.6436190">
        <ele>46.0</ele>
        <time>2021-05-22T12:10:41Z</time>
      </trkpt>
      <trkpt lat="42.5950140" lon="-8.6436270">
        <ele>46.0</ele>
        <time>2021-05-22T12:10:42Z</time>
      </trkpt>
      <trkpt lat="42.5950250" lon="-8.6436310">
        <ele>46.1</ele>
        <time>2021-05-22T12:10:43Z</time>
      </trkpt>
      <trkpt lat="42.5950320" lon="-8.6436380">
        <ele>46.1</ele>
        <time>2021-05-22T12:10:44Z</time>
      </trkpt>
      <trkpt lat="42.5950520" lon="-8.6436450">
        <ele>46.1</ele>
        <time>2021-05-22T12:10:45Z</time>
      </trkpt>
      <trkpt lat="42.5950610" lon="-8.6436480">
        <ele>46.1</ele>
        <time>2021-05-22T12:10:46Z</time>
      </trkpt>
      <trkpt lat="42.5950690" lon="-8.6436500">
        <ele>46.1</ele>
        <time>2021-05-22T12:10:47Z</time>
      </trkpt>
      <trkpt lat="42.5950820" lon="-8.6436510">
        <ele>46.2</ele>
        <time>2021-05-22T12:10:48Z</time>
      </trkpt>
      <trkpt lat="42.5950960" lon="-8.6436550">
        <ele>46.2</ele>
        <time>2021-05-22T12:10:49Z</time>
      </trkpt>
      <trkpt lat="42.5951190" lon="-8.6436570">
        <ele>46.2</ele>
        <time>2021-05-22T12:10:50Z</time>
      </trkpt>
      <trkpt lat="42.5951280" lon="-8.6436580">
        <ele>46.2</ele>
        <time>2021-05-22T12:10:51Z</time>
      </trkpt>
      <trkpt lat="42.5951370" lon="-8.6436590">
        <ele>46.2</ele>
        <time>2021-05-22T12:10:52Z</time>
      </trkpt>
      <trkpt lat="42.5951580" lon="-8.6436620">
        <ele>46.3</ele>
        <time>2021-05-22T12:10:53Z</time>
      </trkpt>
      <trkpt lat="42.5951670" lon="-8.6436590">
        <ele>46.3</ele>
        <time>2021-05-22T12:10:54Z</time>
      </trkpt>
      <trkpt lat="42.5951770" lon="-8.6436570">
        <ele>46.3</ele>
        <time>2021-05-22T12:10:55Z</time>
      </trkpt>
      <trkpt lat="42.5951840" lon="-8.6436550">
        <ele>46.3</ele>
        <time>2021-05-22T12:10:56Z</time>
      </trkpt>
      <trkpt lat="42.5951980" lon="-8.6436540">
        <ele>46.3</ele>
        <time>2021-05-22T12:10:57Z</time>
      </trkpt>
      <trkpt lat="42.5952070" lon="-8.6436550">
        <ele>46.3</ele>
        <time>2021-05-22T12:10:58Z</time>
      </trkpt>
      <trkpt lat="42.5952230" lon="-8.6436620">
        <ele>46.3</ele>
        <time>2021-05-22T12:10:59Z</time>
      </trkpt>
      <trkpt lat="42.5952410" lon="-8.6436610">
        <ele>46.3</ele>
        <time>2021-05-22T12:11:00Z</time>
      </trkpt>
      <trkpt lat="42.5952590" lon="-8.6436620">
        <ele>46.3</ele>
        <time>2021-05-22T12:11:01Z</time>
      </trkpt>
      <trkpt lat="42.5952690" lon="-8.6436620">
        <ele>46.2</ele>
        <time>2021-05-22T12:11:02Z</time>
      </trkpt>
      <trkpt lat="42.5952790" lon="-8.6436620">
        <ele>46.2</ele>
        <time>2021-05-22T12:11:03Z</time>
      </trkpt>
      <trkpt lat="42.5952910" lon="-8.6436610">
        <ele>46.2</ele>
        <time>2021-05-22T12:11:04Z</time>
      </trkpt>
      <trkpt lat="42.5953080" lon="-8.6436600">
        <ele>46.2</ele>
        <time>2021-05-22T12:11:05Z</time>
      </trkpt>
      <trkpt lat="42.5953160" lon="-8.6436600">
        <ele>46.2</ele>
        <time>2021-05-22T12:11:06Z</time>
      </trkpt>
      <trkpt lat="42.5953310" lon="-8.6436630">
        <ele>46.2</ele>
        <time>2021-05-22T12:11:07Z</time>
      </trkpt>
      <trkpt lat="42.5953420" lon="-8.6436660">
        <ele>46.2</ele>
        <time>2021-05-22T12:11:08Z</time>
      </trkpt>
      <trkpt lat="42.5953620" lon="-8.6436640">
        <ele>46.2</ele>
        <time>2021-05-22T12:11:09Z</time>
      </trkpt>
      <trkpt lat="42.5953730" lon="-8.6436630">
        <ele>46.2</ele>
        <time>2021-05-22T12:11:10Z</time>
      </trkpt>
      <trkpt lat="42.5953830" lon="-8.6436610">
        <ele>46.2</ele>
        <time>2021-05-22T12:11:11Z</time>
      </trkpt>
      <trkpt lat="42.5953930" lon="-8.6436670">
        <ele>46.1</ele>
        <time>2021-05-22T12:11:12Z</time>
      </trkpt>
      <trkpt lat="42.5954050" lon="-8.6436690">
        <ele>46.1</ele>
        <time>2021-05-22T12:11:13Z</time>
      </trkpt>
      <trkpt lat="42.5954140" lon="-8.6436740">
        <ele>46.1</ele>
        <time>2021-05-22T12:11:14Z</time>
      </trkpt>
      <trkpt lat="42.5954320" lon="-8.6436760">
        <ele>46.1</ele>
        <time>2021-05-22T12:11:15Z</time>
      </trkpt>
      <trkpt lat="42.5954430" lon="-8.6436800">
        <ele>46.1</ele>
        <time>2021-05-22T12:11:16Z</time>
      </trkpt>
      <trkpt lat="42.5954690" lon="-8.6436830">
        <ele>46.1</ele>
        <time>2021-05-22T12:11:17Z</time>
      </trkpt>
      <trkpt lat="42.5954810" lon="-8.6436850">
        <ele>46.1</ele>
        <time>2021-05-22T12:11:18Z</time>
      </trkpt>
      <trkpt lat="42.5954820" lon="-8.6436820">
        <ele>46.1</ele>
        <time>2021-05-22T12:11:19Z</time>
      </trkpt>
      <trkpt lat="42.5954920" lon="-8.6436830">
        <ele>46.1</ele>
        <time>2021-05-22T12:11:20Z</time>
      </trkpt>
      <trkpt lat="42.5955060" lon="-8.6436850">
        <ele>46.1</ele>
        <time>2021-05-22T12:11:21Z</time>
      </trkpt>
      <trkpt lat="42.5955160" lon="-8.6436870">
        <ele>46.0</ele>
        <time>2021-05-22T12:11:22Z</time>
      </trkpt>
      <trkpt lat="42.5955280" lon="-8.6436910">
        <ele>46.0</ele>
        <time>2021-05-22T12:11:23Z</time>
      </trkpt>
      <trkpt lat="42.5955360" lon="-8.6436910">
        <ele>46.0</ele>
        <time>2021-05-22T12:11:24Z</time>
      </trkpt>
      <trkpt lat="42.5955490" lon="-8.6436940">
        <ele>46.0</ele>
        <time>2021-05-22T12:11:25Z</time>
      </trkpt>
      <trkpt lat="42.5955580" lon="-8.6436930">
        <ele>46.0</ele>
        <time>2021-05-22T12:11:26Z</time>
      </trkpt>
      <trkpt lat="42.5955680" lon="-8.6436900">
        <ele>46.0</ele>
        <time>2021-05-22T12:11:27Z</time>
      </trkpt>
      <trkpt lat="42.5955770" lon="-8.6436920">
        <ele>46.0</ele>
        <time>2021-05-22T12:11:28Z</time>
      </trkpt>
      <trkpt lat="42.5955930" lon="-8.6436970">
        <ele>45.9</ele>
        <time>2021-05-22T12:11:29Z</time>
      </trkpt>
      <trkpt lat="42.5956100" lon="-8.6436980">
        <ele>45.9</ele>
        <time>2021-05-22T12:11:30Z</time>
      </trkpt>
      <trkpt lat="42.5956250" lon="-8.6437010">
        <ele>45.9</ele>
        <time>2021-05-22T12:11:31Z</time>
      </trkpt>
      <trkpt lat="42.5956280" lon="-8.6436970">
        <ele>45.9</ele>
        <time>2021-05-22T12:11:32Z</time>
      </trkpt>
      <trkpt lat="42.5956410" lon="-8.6436980">
        <ele>45.9</ele>
        <time>2021-05-22T12:11:33Z</time>
      </trkpt>
      <trkpt lat="42.5956530" lon="-8.6436990">
        <ele>45.9</ele>
        <time>2021-05-22T12:11:34Z</time>
      </trkpt>
      <trkpt lat="42.5956630" lon="-8.6436970">
        <ele>45.9</ele>
        <time>2021-05-22T12:11:35Z</time>
      </trkpt>
      <trkpt lat="42.5956720" lon="-8.6436990">
        <ele>45.8</ele>
        <time>2021-05-22T12:11:36Z</time>
      </trkpt>
      <trkpt lat="42.5956860" lon="-8.6437020">
        <ele>45.8</ele>
        <time>2021-05-22T12:11:37Z</time>
      </trkpt>
      <trkpt lat="42.5956960" lon="-8.6437050">
        <ele>45.8</ele>
        <time>2021-05-22T12:11:38Z</time>
      </trkpt>
      <trkpt lat="42.5957060" lon="-8.6437020">
        <ele>45.8</ele>
        <time>2021-05-22T12:11:39Z</time>
      </trkpt>
      <trkpt lat="42.5957280" lon="-8.6437020">
        <ele>45.8</ele>
        <time>2021-05-22T12:11:40Z</time>
      </trkpt>
      <trkpt lat="42.5957350" lon="-8.6437030">
        <ele>45.8</ele>
        <time>2021-05-22T12:11:41Z</time>
      </trkpt>
      <trkpt lat="42.5957430" lon="-8.6437030">
        <ele>45.8</ele>
        <time>2021-05-22T12:11:42Z</time>
      </trkpt>
      <trkpt lat="42.5957530" lon="-8.6437010">
        <ele>45.7</ele>
        <time>2021-05-22T12:11:43Z</time>
      </trkpt>
      <trkpt lat="42.5957620" lon="-8.6436970">
        <ele>45.7</ele>
        <time>2021-05-22T12:11:44Z</time>
      </trkpt>
      <trkpt lat="42.5957760" lon="-8.6436930">
        <ele>45.7</ele>
        <time>2021-05-22T12:11:45Z</time>
      </trkpt>
      <trkpt lat="42.5957860" lon="-8.6436950">
        <ele>45.7</ele>
        <time>2021-05-22T12:11:46Z</time>
      </trkpt>
      <trkpt lat="42.5957910" lon="-8.6436920">
        <ele>45.7</ele>
        <time>2021-05-22T12:11:47Z</time>
      </trkpt>
      <trkpt lat="42.5958050" lon="-8.6436920">
        <ele>45.7</ele>
        <time>2021-05-22T12:11:48Z</time>
      </trkpt>
      <trkpt lat="42.5958210" lon="-8.6436970">
        <ele>45.7</ele>
        <time>2021-05-22T12:11:49Z</time>
      </trkpt>
      <trkpt lat="42.5958350" lon="-8.6436980">
        <ele>45.7</ele>
        <time>2021-05-22T12:11:50Z</time>
      </trkpt>
      <trkpt lat="42.5958490" lon="-8.6436910">
        <ele>45.6</ele>
        <time>2021-05-22T12:11:51Z</time>
      </trkpt>
      <trkpt lat="42.5958650" lon="-8.6436890">
        <ele>45.6</ele>
        <time>2021-05-22T12:11:52Z</time>
      </trkpt>
      <trkpt lat="42.5958790" lon="-8.6436890">
        <ele>45.6</ele>
        <time>2021-05-22T12:11:53Z</time>
      </trkpt>
      <trkpt lat="42.5958940" lon="-8.6436880">
        <ele>45.6</ele>
        <time>2021-05-22T12:11:54Z</time>
      </trkpt>
      <trkpt lat="42.5959050" lon="-8.6436800">
        <ele>45.6</ele>
        <time>2021-05-22T12:11:55Z</time>
      </trkpt>
      <trkpt lat="42.5959150" lon="-8.6436780">
        <ele>45.6</ele>
        <time>2021-05-22T12:11:56Z</time>
      </trkpt>
      <trkpt lat="42.5959250" lon="-8.6436750">
        <ele>45.6</ele>
        <time>2021-05-22T12:11:57Z</time>
      </trkpt>
      <trkpt lat="42.5959370" lon="-8.6436730">
        <ele>45.6</ele>
        <time>2021-05-22T12:11:58Z</time>
      </trkpt>
      <trkpt lat="42.5959500" lon="-8.6436700">
        <ele>45.6</ele>
        <time>2021-05-22T12:11:59Z</time>
      </trkpt>
      <trkpt lat="42.5959600" lon="-8.6436710">
        <ele>45.6</ele>
        <time>2021-05-22T12:12:00Z</time>
      </trkpt>
      <trkpt lat="42.5959750" lon="-8.6436640">
        <ele>45.6</ele>
        <time>2021-05-22T12:12:01Z</time>
      </trkpt>
      <trkpt lat="42.5959900" lon="-8.6436610">
        <ele>45.6</ele>
        <time>2021-05-22T12:12:02Z</time>
      </trkpt>
      <trkpt lat="42.5959990" lon="-8.6436640">
        <ele>45.5</ele>
        <time>2021-05-22T12:12:03Z</time>
      </trkpt>
      <trkpt lat="42.5960050" lon="-8.6436640">
        <ele>45.5</ele>
        <time>2021-05-22T12:12:04Z</time>
      </trkpt>
      <trkpt lat="42.5960160" lon="-8.6436560">
        <ele>45.5</ele>
        <time>2021-05-22T12:12:05Z</time>
      </trkpt>
      <trkpt lat="42.5960220" lon="-8.6436530">
        <ele>45.5</ele>
        <time>2021-05-22T12:12:06Z</time>
      </trkpt>
      <trkpt lat="42.5960310" lon="-8.6436520">
        <ele>45.5</ele>
        <time>2021-05-22T12:12:07Z</time>
      </trkpt>
      <trkpt lat="42.5960450" lon="-8.6436480">
        <ele>45.5</ele>
        <time>2021-05-22T12:12:08Z</time>
      </trkpt>
      <trkpt lat="42.5960550" lon="-8.6436470">
        <ele>45.5</ele>
        <time>2021-05-22T12:12:09Z</time>
      </trkpt>
      <trkpt lat="42.5960720" lon="-8.6436460">
        <ele>45.5</ele>
        <time>2021-05-22T12:12:10Z</time>
      </trkpt>
      <trkpt lat="42.5960880" lon="-8.6436410">
        <ele>45.5</ele>
        <time>2021-05-22T12:12:11Z</time>
      </trkpt>
      <trkpt lat="42.5960930" lon="-8.6436400">
        <ele>45.5</ele>
        <time>2021-05-22T12:12:12Z</time>
      </trkpt>
      <trkpt lat="42.5961030" lon="-8.6436360">
        <ele>45.5</ele>
        <time>2021-05-22T12:12:13Z</time>
      </trkpt>
      <trkpt lat="42.5961170" lon="-8.6436280">
        <ele>45.5</ele>
        <time>2021-05-22T12:12:14Z</time>
      </trkpt>
      <trkpt lat="42.5961320" lon="-8.6436190">
        <ele>45.5</ele>
        <time>2021-05-22T12:12:15Z</time>
      </trkpt>
      <trkpt lat="42.5961460" lon="-8.6436130">
        <ele>45.5</ele>
        <time>2021-05-22T12:12:16Z</time>
      </trkpt>
      <trkpt lat="42.5961570" lon="-8.6436030">
        <ele>45.4</ele>
        <time>2021-05-22T12:12:17Z</time>
      </trkpt>
      <trkpt lat="42.5961730" lon="-8.6435960">
        <ele>45.4</ele>
        <time>2021-05-22T12:12:18Z</time>
      </trkpt>
      <trkpt lat="42.5961820" lon="-8.6435960">
        <ele>45.4</ele>
        <time>2021-05-22T12:12:19Z</time>
      </trkpt>
      <trkpt lat="42.5961930" lon="-8.6435930">
        <ele>45.4</ele>
        <time>2021-05-22T12:12:20Z</time>
      </trkpt>
      <trkpt lat="42.5962070" lon="-8.6435920">
        <ele>45.4</ele>
        <time>2021-05-22T12:12:21Z</time>
      </trkpt>
      <trkpt lat="42.5962310" lon="-8.6435960">
        <ele>45.3</ele>
        <time>2021-05-22T12:12:22Z</time>
      </trkpt>
      <trkpt lat="42.5962400" lon="-8.6435990">
        <ele>45.3</ele>
        <time>2021-05-22T12:12:23Z</time>
      </trkpt>
      <trkpt lat="42.5962500" lon="-8.6436010">
        <ele>45.3</ele>
        <time>2021-05-22T12:12:24Z</time>
      </trkpt>
      <trkpt lat="42.5962690" lon="-8.6436090">
        <ele>45.3</ele>
        <time>2021-05-22T12:12:25Z</time>
      </trkpt>
      <trkpt lat="42.5962770" lon="-8.6436120">
        <ele>45.2</ele>
        <time>2021-05-22T12:12:26Z</time>
      </trkpt>
      <trkpt lat="42.5962860" lon="-8.6436150">
        <ele>45.2</ele>
        <time>2021-05-22T12:12:27Z</time>
      </trkpt>
      <trkpt lat="42.5963070" lon="-8.6436240">
        <ele>45.2</ele>
        <time>2021-05-22T12:12:28Z</time>
      </trkpt>
      <trkpt lat="42.5963150" lon="-8.6436270">
        <ele>45.1</ele>
        <time>2021-05-22T12:12:29Z</time>
      </trkpt>
      <trkpt lat="42.5963240" lon="-8.6436290">
        <ele>45.1</ele>
        <time>2021-05-22T12:12:30Z</time>
      </trkpt>
      <trkpt lat="42.5963350" lon="-8.6436260">
        <ele>45.1</ele>
        <time>2021-05-22T12:12:31Z</time>
      </trkpt>
      <trkpt lat="42.5963510" lon="-8.6436340">
        <ele>45.0</ele>
        <time>2021-05-22T12:12:32Z</time>
      </trkpt>
      <trkpt lat="42.5963640" lon="-8.6436350">
        <ele>44.9</ele>
        <time>2021-05-22T12:12:33Z</time>
      </trkpt>
      <trkpt lat="42.5963800" lon="-8.6436390">
        <ele>44.9</ele>
        <time>2021-05-22T12:12:34Z</time>
      </trkpt>
      <trkpt lat="42.5963880" lon="-8.6436300">
        <ele>44.8</ele>
        <time>2021-05-22T12:12:35Z</time>
      </trkpt>
      <trkpt lat="42.5963980" lon="-8.6436250">
        <ele>44.8</ele>
        <time>2021-05-22T12:12:36Z</time>
      </trkpt>
      <trkpt lat="42.5964100" lon="-8.6436270">
        <ele>44.7</ele>
        <time>2021-05-22T12:12:37Z</time>
      </trkpt>
      <trkpt lat="42.5964240" lon="-8.6436260">
        <ele>44.6</ele>
        <time>2021-05-22T12:12:38Z</time>
      </trkpt>
      <trkpt lat="42.5964360" lon="-8.6436260">
        <ele>44.6</ele>
        <time>2021-05-22T12:12:39Z</time>
      </trkpt>
      <trkpt lat="42.5964430" lon="-8.6436250">
        <ele>44.5</ele>
        <time>2021-05-22T12:12:40Z</time>
      </trkpt>
      <trkpt lat="42.5964530" lon="-8.6436280">
        <ele>44.5</ele>
        <time>2021-05-22T12:12:41Z</time>
      </trkpt>
      <trkpt lat="42.5964640" lon="-8.6436290">
        <ele>44.4</ele>
        <time>2021-05-22T12:12:42Z</time>
      </trkpt>
      <trkpt lat="42.5964750" lon="-8.6436310">
        <ele>44.3</ele>
        <time>2021-05-22T12:12:43Z</time>
      </trkpt>
      <trkpt lat="42.5964860" lon="-8.6436220">
        <ele>44.2</ele>
        <time>2021-05-22T12:12:44Z</time>
      </trkpt>
      <trkpt lat="42.5965020" lon="-8.6436130">
        <ele>44.1</ele>
        <time>2021-05-22T12:12:45Z</time>
      </trkpt>
      <trkpt lat="42.5965140" lon="-8.6436070">
        <ele>44.0</ele>
        <time>2021-05-22T12:12:46Z</time>
      </trkpt>
      <trkpt lat="42.5965310" lon="-8.6435980">
        <ele>43.9</ele>
        <time>2021-05-22T12:12:47Z</time>
      </trkpt>
      <trkpt lat="42.5965400" lon="-8.6435990">
        <ele>43.8</ele>
        <time>2021-05-22T12:12:48Z</time>
      </trkpt>
      <trkpt lat="42.5965470" lon="-8.6436030">
        <ele>43.8</ele>
        <time>2021-05-22T12:12:49Z</time>
      </trkpt>
      <trkpt lat="42.5965660" lon="-8.6436070">
        <ele>43.6</ele>
        <time>2021-05-22T12:12:50Z</time>
      </trkpt>
      <trkpt lat="42.5965730" lon="-8.6436130">
        <ele>43.6</ele>
        <time>2021-05-22T12:12:51Z</time>
      </trkpt>
      <trkpt lat="42.5965810" lon="-8.6436150">
        <ele>43.5</ele>
        <time>2021-05-22T12:12:52Z</time>
      </trkpt>
      <trkpt lat="42.5965950" lon="-8.6436120">
        <ele>43.4</ele>
        <time>2021-05-22T12:12:53Z</time>
      </trkpt>
      <trkpt lat="42.5966170" lon="-8.6436160">
        <ele>43.2</ele>
        <time>2021-05-22T12:12:54Z</time>
      </trkpt>
      <trkpt lat="42.5966260" lon="-8.6436170">
        <ele>43.2</ele>
        <time>2021-05-22T12:12:55Z</time>
      </trkpt>
      <trkpt lat="42.5966340" lon="-8.6436190">
        <ele>43.1</ele>
        <time>2021-05-22T12:12:56Z</time>
      </trkpt>
      <trkpt lat="42.5966540" lon="-8.6436210">
        <ele>42.9</ele>
        <time>2021-05-22T12:12:57Z</time>
      </trkpt>
      <trkpt lat="42.5966630" lon="-8.6436210">
        <ele>42.9</ele>
        <time>2021-05-22T12:12:58Z</time>
      </trkpt>
      <trkpt lat="42.5966720" lon="-8.6436210">
        <ele>42.8</ele>
        <time>2021-05-22T12:12:59Z</time>
      </trkpt>
      <trkpt lat="42.5966810" lon="-8.6436200">
        <ele>42.7</ele>
        <time>2021-05-22T12:13:00Z</time>
      </trkpt>
      <trkpt lat="42.5966900" lon="-8.6436110">
        <ele>42.6</ele>
        <time>2021-05-22T12:13:01Z</time>
      </trkpt>
      <trkpt lat="42.5967020" lon="-8.6436040">
        <ele>42.6</ele>
        <time>2021-05-22T12:13:02Z</time>
      </trkpt>
      <trkpt lat="42.5967140" lon="-8.6436010">
        <ele>42.5</ele>
        <time>2021-05-22T12:13:03Z</time>
      </trkpt>
      <trkpt lat="42.5967200" lon="-8.6436000">
        <ele>42.4</ele>
        <time>2021-05-22T12:13:04Z</time>
      </trkpt>
      <trkpt lat="42.5967370" lon="-8.6436020">
        <ele>42.3</ele>
        <time>2021-05-22T12:13:05Z</time>
      </trkpt>
      <trkpt lat="42.5967500" lon="-8.6436000">
        <ele>42.2</ele>
        <time>2021-05-22T12:13:06Z</time>
      </trkpt>
      <trkpt lat="42.5967660" lon="-8.6435940">
        <ele>42.1</ele>
        <time>2021-05-22T12:13:07Z</time>
      </trkpt>
      <trkpt lat="42.5967720" lon="-8.6435690">
        <ele>42.0</ele>
        <time>2021-05-22T12:13:08Z</time>
      </trkpt>
      <trkpt lat="42.5967920" lon="-8.6435680">
        <ele>41.8</ele>
        <time>2021-05-22T12:13:09Z</time>
      </trkpt>
      <trkpt lat="42.5968030" lon="-8.6435660">
        <ele>41.8</ele>
        <time>2021-05-22T12:13:10Z</time>
      </trkpt>
      <trkpt lat="42.5968130" lon="-8.6435670">
        <ele>41.7</ele>
        <time>2021-05-22T12:13:11Z</time>
      </trkpt>
      <trkpt lat="42.5968240" lon="-8.6435660">
        <ele>41.6</ele>
        <time>2021-05-22T12:13:12Z</time>
      </trkpt>
      <trkpt lat="42.5968460" lon="-8.6435660">
        <ele>41.5</ele>
        <time>2021-05-22T12:13:13Z</time>
      </trkpt>
      <trkpt lat="42.5968550" lon="-8.6435680">
        <ele>41.4</ele>
        <time>2021-05-22T12:13:14Z</time>
      </trkpt>
      <trkpt lat="42.5968640" lon="-8.6435690">
        <ele>41.4</ele>
        <time>2021-05-22T12:13:15Z</time>
      </trkpt>
      <trkpt lat="42.5968820" lon="-8.6435700">
        <ele>41.3</ele>
        <time>2021-05-22T12:13:16Z</time>
      </trkpt>
      <trkpt lat="42.5968990" lon="-8.6435690">
        <ele>41.2</ele>
        <time>2021-05-22T12:13:17Z</time>
      </trkpt>
      <trkpt lat="42.5969150" lon="-8.6435710">
        <ele>41.1</ele>
        <time>2021-05-22T12:13:18Z</time>
      </trkpt>
      <trkpt lat="42.5969280" lon="-8.6435680">
        <ele>41.0</ele>
        <time>2021-05-22T12:13:19Z</time>
      </trkpt>
      <trkpt lat="42.5969510" lon="-8.6435710">
        <ele>40.9</ele>
        <time>2021-05-22T12:13:20Z</time>
      </trkpt>
      <trkpt lat="42.5969600" lon="-8.6435740">
        <ele>40.8</ele>
        <time>2021-05-22T12:13:21Z</time>
      </trkpt>
      <trkpt lat="42.5969680" lon="-8.6435770">
        <ele>40.8</ele>
        <time>2021-05-22T12:13:22Z</time>
      </trkpt>
      <trkpt lat="42.5969880" lon="-8.6435830">
        <ele>40.7</ele>
        <time>2021-05-22T12:13:23Z</time>
      </trkpt>
      <trkpt lat="42.5969960" lon="-8.6435850">
        <ele>40.7</ele>
        <time>2021-05-22T12:13:24Z</time>
      </trkpt>
      <trkpt lat="42.5970040" lon="-8.6435870">
        <ele>40.6</ele>
        <time>2021-05-22T12:13:25Z</time>
      </trkpt>
      <trkpt lat="42.5970140" lon="-8.6435890">
        <ele>40.6</ele>
        <time>2021-05-22T12:13:26Z</time>
      </trkpt>
      <trkpt lat="42.5970320" lon="-8.6435940">
        <ele>40.5</ele>
        <time>2021-05-22T12:13:27Z</time>
      </trkpt>
      <trkpt lat="42.5970480" lon="-8.6435980">
        <ele>40.4</ele>
        <time>2021-05-22T12:13:28Z</time>
      </trkpt>
      <trkpt lat="42.5970630" lon="-8.6436020">
        <ele>40.3</ele>
        <time>2021-05-22T12:13:29Z</time>
      </trkpt>
      <trkpt lat="42.5970760" lon="-8.6436050">
        <ele>40.3</ele>
        <time>2021-05-22T12:13:30Z</time>
      </trkpt>
      <trkpt lat="42.5970920" lon="-8.6436080">
        <ele>40.2</ele>
        <time>2021-05-22T12:13:31Z</time>
      </trkpt>
      <trkpt lat="42.5971010" lon="-8.6436050">
        <ele>40.1</ele>
        <time>2021-05-22T12:13:32Z</time>
      </trkpt>
      <trkpt lat="42.5971210" lon="-8.6436090">
        <ele>40.0</ele>
        <time>2021-05-22T12:13:33Z</time>
      </trkpt>
      <trkpt lat="42.5971410" lon="-8.6436090">
        <ele>39.9</ele>
        <time>2021-05-22T12:13:34Z</time>
      </trkpt>
      <trkpt lat="42.5971520" lon="-8.6436090">
        <ele>39.9</ele>
        <time>2021-05-22T12:13:35Z</time>
      </trkpt>
      <trkpt lat="42.5971630" lon="-8.6436080">
        <ele>39.8</ele>
        <time>2021-05-22T12:13:36Z</time>
      </trkpt>
      <trkpt lat="42.5971840" lon="-8.6436020">
        <ele>39.7</ele>
        <time>2021-05-22T12:13:37Z</time>
      </trkpt>
      <trkpt lat="42.5971940" lon="-8.6436000">
        <ele>39.7</ele>
        <time>2021-05-22T12:13:38Z</time>
      </trkpt>
      <trkpt lat="42.5972050" lon="-8.6435970">
        <ele>39.6</ele>
        <time>2021-05-22T12:13:39Z</time>
      </trkpt>
      <trkpt lat="42.5972190" lon="-8.6435960">
        <ele>39.6</ele>
        <time>2021-05-22T12:13:40Z</time>
      </trkpt>
      <trkpt lat="42.5972340" lon="-8.6435910">
        <ele>39.5</ele>
        <time>2021-05-22T12:13:41Z</time>
      </trkpt>
      <trkpt lat="42.5972440" lon="-8.6435860">
        <ele>39.5</ele>
        <time>2021-05-22T12:13:42Z</time>
      </trkpt>
      <trkpt lat="42.5972550" lon="-8.6435850">
        <ele>39.4</ele>
        <time>2021-05-22T12:13:43Z</time>
      </trkpt>
      <trkpt lat="42.5972640" lon="-8.6435870">
        <ele>39.4</ele>
        <time>2021-05-22T12:13:44Z</time>
      </trkpt>
      <trkpt lat="42.5972770" lon="-8.6435890">
        <ele>39.3</ele>
        <time>2021-05-22T12:13:45Z</time>
      </trkpt>
      <trkpt lat="42.5972930" lon="-8.6435890">
        <ele>39.2</ele>
        <time>2021-05-22T12:13:46Z</time>
      </trkpt>
      <trkpt lat="42.5973110" lon="-8.6435890">
        <ele>39.1</ele>
        <time>2021-05-22T12:13:47Z</time>
      </trkpt>
      <trkpt lat="42.5973270" lon="-8.6435860">
        <ele>39.1</ele>
        <time>2021-05-22T12:13:48Z</time>
      </trkpt>
      <trkpt lat="42.5973440" lon="-8.6435870">
        <ele>39.0</ele>
        <time>2021-05-22T12:13:49Z</time>
      </trkpt>
      <trkpt lat="42.5973550" lon="-8.6435870">
        <ele>38.9</ele>
        <time>2021-05-22T12:13:50Z</time>
      </trkpt>
      <trkpt lat="42.5973570" lon="-8.6435860">
        <ele>38.9</ele>
        <time>2021-05-22T12:13:51Z</time>
      </trkpt>
      <trkpt lat="42.5973690" lon="-8.6435820">
        <ele>38.8</ele>
        <time>2021-05-22T12:13:52Z</time>
      </trkpt>
      <trkpt lat="42.5973730" lon="-8.6435760">
        <ele>38.8</ele>
        <time>2021-05-22T12:13:53Z</time>
      </trkpt>
      <trkpt lat="42.5973880" lon="-8.6435710">
        <ele>38.7</ele>
        <time>2021-05-22T12:13:54Z</time>
      </trkpt>
      <trkpt lat="42.5974080" lon="-8.6435680">
        <ele>38.6</ele>
        <time>2021-05-22T12:13:55Z</time>
      </trkpt>
      <trkpt lat="42.5974180" lon="-8.6435640">
        <ele>38.5</ele>
        <time>2021-05-22T12:13:56Z</time>
      </trkpt>
      <trkpt lat="42.5974280" lon="-8.6435590">
        <ele>38.5</ele>
        <time>2021-05-22T12:13:57Z</time>
      </trkpt>
      <trkpt lat="42.5974390" lon="-8.6435560">
        <ele>38.4</ele>
        <time>2021-05-22T12:13:58Z</time>
      </trkpt>
      <trkpt lat="42.5974540" lon="-8.6435530">
        <ele>38.3</ele>
        <time>2021-05-22T12:13:59Z</time>
      </trkpt>
      <trkpt lat="42.5974640" lon="-8.6435540">
        <ele>38.3</ele>
        <time>2021-05-22T12:14:00Z</time>
      </trkpt>
      <trkpt lat="42.5974830" lon="-8.6435500">
        <ele>38.2</ele>
        <time>2021-05-22T12:14:01Z</time>
      </trkpt>
      <trkpt lat="42.5974940" lon="-8.6435470">
        <ele>38.1</ele>
        <time>2021-05-22T12:14:02Z</time>
      </trkpt>
      <trkpt lat="42.5975040" lon="-8.6435440">
        <ele>38.1</ele>
        <time>2021-05-22T12:14:03Z</time>
      </trkpt>
      <trkpt lat="42.5975210" lon="-8.6435410">
        <ele>38.0</ele>
        <time>2021-05-22T12:14:04Z</time>
      </trkpt>
      <trkpt lat="42.5975320" lon="-8.6435380">
        <ele>37.9</ele>
        <time>2021-05-22T12:14:05Z</time>
      </trkpt>
      <trkpt lat="42.5975420" lon="-8.6435360">
        <ele>37.9</ele>
        <time>2021-05-22T12:14:06Z</time>
      </trkpt>
      <trkpt lat="42.5975590" lon="-8.6435270">
        <ele>37.8</ele>
        <time>2021-05-22T12:14:07Z</time>
      </trkpt>
      <trkpt lat="42.5975680" lon="-8.6435230">
        <ele>37.8</ele>
        <time>2021-05-22T12:14:08Z</time>
      </trkpt>
      <trkpt lat="42.5975780" lon="-8.6435200">
        <ele>37.7</ele>
        <time>2021-05-22T12:14:09Z</time>
      </trkpt>
      <trkpt lat="42.5976070" lon="-8.6435050">
        <ele>37.6</ele>
        <time>2021-05-22T12:14:10Z</time>
      </trkpt>
      <trkpt lat="42.5976140" lon="-8.6435030">
        <ele>37.6</ele>
        <time>2021-05-22T12:14:11Z</time>
      </trkpt>
      <trkpt lat="42.5976240" lon="-8.6435060">
        <ele>37.5</ele>
        <time>2021-05-22T12:14:12Z</time>
      </trkpt>
      <trkpt lat="42.5976330" lon="-8.6435090">
        <ele>37.5</ele>
        <time>2021-05-22T12:14:13Z</time>
      </trkpt>
      <trkpt lat="42.5976500" lon="-8.6435030">
        <ele>37.4</ele>
        <time>2021-05-22T12:14:14Z</time>
      </trkpt>
      <trkpt lat="42.5976630" lon="-8.6434940">
        <ele>37.4</ele>
        <time>2021-05-22T12:14:15Z</time>
      </trkpt>
      <trkpt lat="42.5976750" lon="-8.6434950">
        <ele>37.3</ele>
        <time>2021-05-22T12:14:16Z</time>
      </trkpt>
      <trkpt lat="42.5976800" lon="-8.6434990">
        <ele>37.3</ele>
        <time>2021-05-22T12:14:17Z</time>
      </trkpt>
      <trkpt lat="42.5976960" lon="-8.6434960">
        <ele>37.3</ele>
        <time>2021-05-22T12:14:18Z</time>
      </trkpt>
      <trkpt lat="42.5977060" lon="-8.6434900">
        <ele>37.2</ele>
        <time>2021-05-22T12:14:19Z</time>
      </trkpt>
      <trkpt lat="42.5977160" lon="-8.6435000">
        <ele>37.2</ele>
        <time>2021-05-22T12:14:20Z</time>
      </trkpt>
      <trkpt lat="42.5977200" lon="-8.6435090">
        <ele>37.2</ele>
        <time>2021-05-22T12:14:21Z</time>
      </trkpt>
      <trkpt lat="42.5977390" lon="-8.6435070">
        <ele>37.1</ele>
        <time>2021-05-22T12:14:22Z</time>
      </trkpt>
      <trkpt lat="42.5977490" lon="-8.6435020">
        <ele>37.1</ele>
        <time>2021-05-22T12:14:23Z</time>
      </trkpt>
      <trkpt lat="42.5977600" lon="-8.6435020">
        <ele>37.0</ele>
        <time>2021-05-22T12:14:24Z</time>
      </trkpt>
      <trkpt lat="42.5977690" lon="-8.6435010">
        <ele>37.0</ele>
        <time>2021-05-22T12:14:25Z</time>
      </trkpt>
      <trkpt lat="42.5977830" lon="-8.6435080">
        <ele>37.0</ele>
        <time>2021-05-22T12:14:26Z</time>
      </trkpt>
      <trkpt lat="42.5978040" lon="-8.6435150">
        <ele>36.9</ele>
        <time>2021-05-22T12:14:27Z</time>
      </trkpt>
      <trkpt lat="42.5978140" lon="-8.6435210">
        <ele>36.8</ele>
        <time>2021-05-22T12:14:28Z</time>
      </trkpt>
      <trkpt lat="42.5978240" lon="-8.6435270">
        <ele>36.8</ele>
        <time>2021-05-22T12:14:29Z</time>
      </trkpt>
      <trkpt lat="42.5978480" lon="-8.6435310">
        <ele>36.7</ele>
        <time>2021-05-22T12:14:30Z</time>
      </trkpt>
      <trkpt lat="42.5978540" lon="-8.6435320">
        <ele>36.7</ele>
        <time>2021-05-22T12:14:31Z</time>
      </trkpt>
      <trkpt lat="42.5978610" lon="-8.6435330">
        <ele>36.7</ele>
        <time>2021-05-22T12:14:32Z</time>
      </trkpt>
      <trkpt lat="42.5978810" lon="-8.6435400">
        <ele>36.6</ele>
        <time>2021-05-22T12:14:33Z</time>
      </trkpt>
      <trkpt lat="42.5978900" lon="-8.6435430">
        <ele>36.6</ele>
        <time>2021-05-22T12:14:34Z</time>
      </trkpt>
      <trkpt lat="42.5979000" lon="-8.6435470">
        <ele>36.6</ele>
        <time>2021-05-22T12:14:35Z</time>
      </trkpt>
      <trkpt lat="42.5979120" lon="-8.6435470">
        <ele>36.5</ele>
        <time>2021-05-22T12:14:36Z</time>
      </trkpt>
      <trkpt lat="42.5979290" lon="-8.6435450">
        <ele>36.5</ele>
        <time>2021-05-22T12:14:37Z</time>
      </trkpt>
      <trkpt lat="42.5979390" lon="-8.6435510">
        <ele>36.4</ele>
        <time>2021-05-22T12:14:38Z</time>
      </trkpt>
      <trkpt lat="42.5979440" lon="-8.6435540">
        <ele>36.4</ele>
        <time>2021-05-22T12:14:39Z</time>
      </trkpt>
      <trkpt lat="42.5979620" lon="-8.6435600">
        <ele>36.4</ele>
        <time>2021-05-22T12:14:40Z</time>
      </trkpt>
      <trkpt lat="42.5979690" lon="-8.6435570">
        <ele>36.3</ele>
        <time>2021-05-22T12:14:41Z</time>
      </trkpt>
      <trkpt lat="42.5979770" lon="-8.6435520">
        <ele>36.3</ele>
        <time>2021-05-22T12:14:42Z</time>
      </trkpt>
      <trkpt lat="42.5979890" lon="-8.6435490">
        <ele>36.3</ele>
        <time>2021-05-22T12:14:43Z</time>
      </trkpt>
      <trkpt lat="42.5979940" lon="-8.6435410">
        <ele>36.3</ele>
        <time>2021-05-22T12:14:44Z</time>
      </trkpt>
      <trkpt lat="42.5980070" lon="-8.6435370">
        <ele>36.2</ele>
        <time>2021-05-22T12:14:45Z</time>
      </trkpt>
      <trkpt lat="42.5980180" lon="-8.6435310">
        <ele>36.2</ele>
        <time>2021-05-22T12:14:46Z</time>
      </trkpt>
      <trkpt lat="42.5980350" lon="-8.6435230">
        <ele>36.1</ele>
        <time>2021-05-22T12:14:47Z</time>
      </trkpt>
      <trkpt lat="42.5980420" lon="-8.6435180">
        <ele>36.1</ele>
        <time>2021-05-22T12:14:48Z</time>
      </trkpt>
      <trkpt lat="42.5980480" lon="-8.6435130">
        <ele>36.1</ele>
        <time>2021-05-22T12:14:49Z</time>
      </trkpt>
      <trkpt lat="42.5980540" lon="-8.6435080">
        <ele>36.1</ele>
        <time>2021-05-22T12:14:50Z</time>
      </trkpt>
      <trkpt lat="42.5980690" lon="-8.6434920">
        <ele>36.0</ele>
        <time>2021-05-22T12:14:51Z</time>
      </trkpt>
      <trkpt lat="42.5980760" lon="-8.6434840">
        <ele>36.0</ele>
        <time>2021-05-22T12:14:52Z</time>
      </trkpt>
      <trkpt lat="42.5980820" lon="-8.6434750">
        <ele>36.0</ele>
        <time>2021-05-22T12:14:53Z</time>
      </trkpt>
      <trkpt lat="42.5980850" lon="-8.6434660">
        <ele>35.9</ele>
        <time>2021-05-22T12:14:54Z</time>
      </trkpt>
      <trkpt lat="42.5980950" lon="-8.6434500">
        <ele>35.9</ele>
        <time>2021-05-22T12:14:55Z</time>
      </trkpt>
      <trkpt lat="42.5981030" lon="-8.6434390">
        <ele>35.9</ele>
        <time>2021-05-22T12:14:56Z</time>
      </trkpt>
      <trkpt lat="42.5981060" lon="-8.6434240">
        <ele>35.8</ele>
        <time>2021-05-22T12:14:57Z</time>
      </trkpt>
      <trkpt lat="42.5981130" lon="-8.6434160">
        <ele>35.8</ele>
        <time>2021-05-22T12:14:58Z</time>
      </trkpt>
      <trkpt lat="42.5981160" lon="-8.6434150">
        <ele>35.8</ele>
        <time>2021-05-22T12:14:59Z</time>
      </trkpt>
      <trkpt lat="42.5981240" lon="-8.6434090">
        <ele>35.8</ele>
        <time>2021-05-22T12:15:00Z</time>
      </trkpt>
      <trkpt lat="42.5981360" lon="-8.6433990">
        <ele>35.7</ele>
        <time>2021-05-22T12:15:01Z</time>
      </trkpt>
      <trkpt lat="42.5981500" lon="-8.6433950">
        <ele>35.7</ele>
        <time>2021-05-22T12:15:02Z</time>
      </trkpt>
      <trkpt lat="42.5981630" lon="-8.6433870">
        <ele>35.7</ele>
        <time>2021-05-22T12:15:03Z</time>
      </trkpt>
      <trkpt lat="42.5981790" lon="-8.6433780">
        <ele>35.6</ele>
        <time>2021-05-22T12:15:04Z</time>
      </trkpt>
      <trkpt lat="42.5981780" lon="-8.6433700">
        <ele>35.6</ele>
        <time>2021-05-22T12:15:05Z</time>
      </trkpt>
      <trkpt lat="42.5982000" lon="-8.6433560">
        <ele>35.5</ele>
        <time>2021-05-22T12:15:06Z</time>
      </trkpt>
      <trkpt lat="42.5982110" lon="-8.6433570">
        <ele>35.5</ele>
        <time>2021-05-22T12:15:07Z</time>
      </trkpt>
      <trkpt lat="42.5982210" lon="-8.6433580">
        <ele>35.5</ele>
        <time>2021-05-22T12:15:08Z</time>
      </trkpt>
      <trkpt lat="42.5982390" lon="-8.6433480">
        <ele>35.4</ele>
        <time>2021-05-22T12:15:09Z</time>
      </trkpt>
      <trkpt lat="42.5982510" lon="-8.6433430">
        <ele>35.4</ele>
        <time>2021-05-22T12:15:10Z</time>
      </trkpt>
      <trkpt lat="42.5982570" lon="-8.6433360">
        <ele>35.3</ele>
        <time>2021-05-22T12:15:11Z</time>
      </trkpt>
      <trkpt lat="42.5982730" lon="-8.6433380">
        <ele>35.3</ele>
        <time>2021-05-22T12:15:12Z</time>
      </trkpt>
      <trkpt lat="42.5982930" lon="-8.6433340">
        <ele>35.2</ele>
        <time>2021-05-22T12:15:13Z</time>
      </trkpt>
      <trkpt lat="42.5983060" lon="-8.6433300">
        <ele>35.2</ele>
        <time>2021-05-22T12:15:14Z</time>
      </trkpt>
      <trkpt lat="42.5983220" lon="-8.6433280">
        <ele>35.2</ele>
        <time>2021-05-22T12:15:15Z</time>
      </trkpt>
      <trkpt lat="42.5983340" lon="-8.6433160">
        <ele>35.1</ele>
        <time>2021-05-22T12:15:16Z</time>
      </trkpt>
      <trkpt lat="42.5983510" lon="-8.6433110">
        <ele>35.1</ele>
        <time>2021-05-22T12:15:17Z</time>
      </trkpt>
      <trkpt lat="42.5983570" lon="-8.6433030">
        <ele>35.0</ele>
        <time>2021-05-22T12:15:18Z</time>
      </trkpt>
      <trkpt lat="42.5983670" lon="-8.6433060">
        <ele>35.0</ele>
        <time>2021-05-22T12:15:19Z</time>
      </trkpt>
      <trkpt lat="42.5983810" lon="-8.6433040">
        <ele>35.0</ele>
        <time>2021-05-22T12:15:20Z</time>
      </trkpt>
      <trkpt lat="42.5984000" lon="-8.6432970">
        <ele>34.9</ele>
        <time>2021-05-22T12:15:21Z</time>
      </trkpt>
      <trkpt lat="42.5984180" lon="-8.6432930">
        <ele>34.9</ele>
        <time>2021-05-22T12:15:22Z</time>
      </trkpt>
      <trkpt lat="42.5984290" lon="-8.6432910">
        <ele>34.8</ele>
        <time>2021-05-22T12:15:23Z</time>
      </trkpt>
      <trkpt lat="42.5984400" lon="-8.6432890">
        <ele>34.8</ele>
        <time>2021-05-22T12:15:24Z</time>
      </trkpt>
      <trkpt lat="42.5984510" lon="-8.6432940">
        <ele>34.8</ele>
        <time>2021-05-22T12:15:25Z</time>
      </trkpt>
      <trkpt lat="42.5984620" lon="-8.6432980">
        <ele>34.8</ele>
        <time>2021-05-22T12:15:26Z</time>
      </trkpt>
      <trkpt lat="42.5984740" lon="-8.6432920">
        <ele>34.7</ele>
        <time>2021-05-22T12:15:27Z</time>
      </trkpt>
      <trkpt lat="42.5984840" lon="-8.6432870">
        <ele>34.7</ele>
        <time>2021-05-22T12:15:28Z</time>
      </trkpt>
      <trkpt lat="42.5984950" lon="-8.6432880">
        <ele>34.7</ele>
        <time>2021-05-22T12:15:29Z</time>
      </trkpt>
      <trkpt lat="42.5985040" lon="-8.6432840">
        <ele>34.6</ele>
        <time>2021-05-22T12:15:30Z</time>
      </trkpt>
      <trkpt lat="42.5985220" lon="-8.6432770">
        <ele>34.6</ele>
        <time>2021-05-22T12:15:31Z</time>
      </trkpt>
      <trkpt lat="42.5985360" lon="-8.6432820">
        <ele>34.6</ele>
        <time>2021-05-22T12:15:32Z</time>
      </trkpt>
      <trkpt lat="42.5985560" lon="-8.6432740">
        <ele>34.5</ele>
        <time>2021-05-22T12:15:33Z</time>
      </trkpt>
      <trkpt lat="42.5985640" lon="-8.6432780">
        <ele>34.5</ele>
        <time>2021-05-22T12:15:34Z</time>
      </trkpt>
      <trkpt lat="42.5985830" lon="-8.6432790">
        <ele>34.4</ele>
        <time>2021-05-22T12:15:35Z</time>
      </trkpt>
      <trkpt lat="42.5985910" lon="-8.6432780">
        <ele>34.4</ele>
        <time>2021-05-22T12:15:36Z</time>
      </trkpt>
      <trkpt lat="42.5986000" lon="-8.6432780">
        <ele>34.4</ele>
        <time>2021-05-22T12:15:37Z</time>
      </trkpt>
      <trkpt lat="42.5986120" lon="-8.6432840">
        <ele>34.4</ele>
        <time>2021-05-22T12:15:38Z</time>
      </trkpt>
      <trkpt lat="42.5986270" lon="-8.6432860">
        <ele>34.3</ele>
        <time>2021-05-22T12:15:39Z</time>
      </trkpt>
      <trkpt lat="42.5986400" lon="-8.6432830">
        <ele>34.3</ele>
        <time>2021-05-22T12:15:40Z</time>
      </trkpt>
      <trkpt lat="42.5986560" lon="-8.6432810">
        <ele>34.3</ele>
        <time>2021-05-22T12:15:41Z</time>
      </trkpt>
      <trkpt lat="42.5986720" lon="-8.6432860">
        <ele>34.2</ele>
        <time>2021-05-22T12:15:42Z</time>
      </trkpt>
      <trkpt lat="42.5986910" lon="-8.6432870">
        <ele>34.2</ele>
        <time>2021-05-22T12:15:43Z</time>
      </trkpt>
      <trkpt lat="42.5987000" lon="-8.6432850">
        <ele>34.1</ele>
        <time>2021-05-22T12:15:44Z</time>
      </trkpt>
      <trkpt lat="42.5987140" lon="-8.6432860">
        <ele>34.1</ele>
        <time>2021-05-22T12:15:45Z</time>
      </trkpt>
      <trkpt lat="42.5987250" lon="-8.6432870">
        <ele>34.1</ele>
        <time>2021-05-22T12:15:46Z</time>
      </trkpt>
      <trkpt lat="42.5987340" lon="-8.6432870">
        <ele>34.0</ele>
        <time>2021-05-22T12:15:47Z</time>
      </trkpt>
      <trkpt lat="42.5987450" lon="-8.6432850">
        <ele>34.0</ele>
        <time>2021-05-22T12:15:48Z</time>
      </trkpt>
      <trkpt lat="42.5987570" lon="-8.6432860">
        <ele>34.0</ele>
        <time>2021-05-22T12:15:49Z</time>
      </trkpt>
      <trkpt lat="42.5987690" lon="-8.6432850">
        <ele>34.0</ele>
        <time>2021-05-22T12:15:50Z</time>
      </trkpt>
      <trkpt lat="42.5987820" lon="-8.6432840">
        <ele>33.9</ele>
        <time>2021-05-22T12:15:51Z</time>
      </trkpt>
      <trkpt lat="42.5987930" lon="-8.6432840">
        <ele>33.9</ele>
        <time>2021-05-22T12:15:52Z</time>
      </trkpt>
      <trkpt lat="42.5988090" lon="-8.6432880">
        <ele>33.9</ele>
        <time>2021-05-22T12:15:53Z</time>
      </trkpt>
      <trkpt lat="42.5988210" lon="-8.6432940">
        <ele>33.8</ele>
        <time>2021-05-22T12:15:54Z</time>
      </trkpt>
      <trkpt lat="42.5988360" lon="-8.6432920">
        <ele>33.8</ele>
        <time>2021-05-22T12:15:55Z</time>
      </trkpt>
      <trkpt lat="42.5988510" lon="-8.6432930">
        <ele>33.7</ele>
        <time>2021-05-22T12:15:56Z</time>
      </trkpt>
      <trkpt lat="42.5988720" lon="-8.6432990">
        <ele>33.7</ele>
        <time>2021-05-22T12:15:57Z</time>
      </trkpt>
      <trkpt lat="42.5988810" lon="-8.6433010">
        <ele>33.7</ele>
        <time>2021-05-22T12:15:58Z</time>
      </trkpt>
      <trkpt lat="42.5988890" lon="-8.6433020">
        <ele>33.6</ele>
        <time>2021-05-22T12:15:59Z</time>
      </trkpt>
      <trkpt lat="42.5989090" lon="-8.6433040">
        <ele>33.6</ele>
        <time>2021-05-22T12:16:00Z</time>
      </trkpt>
      <trkpt lat="42.5989180" lon="-8.6433030">
        <ele>33.6</ele>
        <time>2021-05-22T12:16:01Z</time>
      </trkpt>
      <trkpt lat="42.5989280" lon="-8.6433030">
        <ele>33.6</ele>
        <time>2021-05-22T12:16:02Z</time>
      </trkpt>
      <trkpt lat="42.5989500" lon="-8.6433110">
        <ele>33.5</ele>
        <time>2021-05-22T12:16:03Z</time>
      </trkpt>
      <trkpt lat="42.5989570" lon="-8.6433120">
        <ele>33.5</ele>
        <time>2021-05-22T12:16:04Z</time>
      </trkpt>
      <trkpt lat="42.5989650" lon="-8.6433130">
        <ele>33.5</ele>
        <time>2021-05-22T12:16:05Z</time>
      </trkpt>
      <trkpt lat="42.5989850" lon="-8.6433160">
        <ele>33.4</ele>
        <time>2021-05-22T12:16:06Z</time>
      </trkpt>
      <trkpt lat="42.5989940" lon="-8.6433150">
        <ele>33.4</ele>
        <time>2021-05-22T12:16:07Z</time>
      </trkpt>
      <trkpt lat="42.5990020" lon="-8.6433150">
        <ele>33.4</ele>
        <time>2021-05-22T12:16:08Z</time>
      </trkpt>
      <trkpt lat="42.5990150" lon="-8.6433150">
        <ele>33.4</ele>
        <time>2021-05-22T12:16:09Z</time>
      </trkpt>
      <trkpt lat="42.5990220" lon="-8.6433100">
        <ele>33.4</ele>
        <time>2021-05-22T12:16:10Z</time>
      </trkpt>
      <trkpt lat="42.5990370" lon="-8.6433080">
        <ele>33.3</ele>
        <time>2021-05-22T12:16:11Z</time>
      </trkpt>
      <trkpt lat="42.5990460" lon="-8.6433060">
        <ele>33.3</ele>
        <time>2021-05-22T12:16:12Z</time>
      </trkpt>
      <trkpt lat="42.5990650" lon="-8.6433030">
        <ele>33.3</ele>
        <time>2021-05-22T12:16:13Z</time>
      </trkpt>
      <trkpt lat="42.5990800" lon="-8.6433050">
        <ele>33.2</ele>
        <time>2021-05-22T12:16:14Z</time>
      </trkpt>
      <trkpt lat="42.5990880" lon="-8.6433000">
        <ele>33.2</ele>
        <time>2021-05-22T12:16:15Z</time>
      </trkpt>
      <trkpt lat="42.5990980" lon="-8.6432970">
        <ele>33.2</ele>
        <time>2021-05-22T12:16:16Z</time>
      </trkpt>
      <trkpt lat="42.5991090" lon="-8.6432950">
        <ele>33.2</ele>
        <time>2021-05-22T12:16:17Z</time>
      </trkpt>
      <trkpt lat="42.5991180" lon="-8.6432930">
        <ele>33.1</ele>
        <time>2021-05-22T12:16:18Z</time>
      </trkpt>
      <trkpt lat="42.5991320" lon="-8.6432890">
        <ele>33.1</ele>
        <time>2021-05-22T12:16:19Z</time>
      </trkpt>
      <trkpt lat="42.5991530" lon="-8.6432840">
        <ele>33.1</ele>
        <time>2021-05-22T12:16:20Z</time>
      </trkpt>
      <trkpt lat="42.5991630" lon="-8.6432800">
        <ele>33.0</ele>
        <time>2021-05-22T12:16:21Z</time>
      </trkpt>
      <trkpt lat="42.5991720" lon="-8.6432750">
        <ele>33.0</ele>
        <time>2021-05-22T12:16:22Z</time>
      </trkpt>
      <trkpt lat="42.5991820" lon="-8.6432700">
        <ele>33.0</ele>
        <time>2021-05-22T12:16:23Z</time>
      </trkpt>
      <trkpt lat="42.5991920" lon="-8.6432690">
        <ele>33.0</ele>
        <time>2021-05-22T12:16:24Z</time>
      </trkpt>
      <trkpt lat="42.5992050" lon="-8.6432540">
        <ele>32.9</ele>
        <time>2021-05-22T12:16:25Z</time>
      </trkpt>
      <trkpt lat="42.5992170" lon="-8.6432530">
        <ele>32.9</ele>
        <time>2021-05-22T12:16:26Z</time>
      </trkpt>
      <trkpt lat="42.5992240" lon="-8.6432500">
        <ele>32.9</ele>
        <time>2021-05-22T12:16:27Z</time>
      </trkpt>
      <trkpt lat="42.5992350" lon="-8.6432430">
        <ele>32.9</ele>
        <time>2021-05-22T12:16:28Z</time>
      </trkpt>
      <trkpt lat="42.5992320" lon="-8.6432460">
        <ele>32.9</ele>
        <time>2021-05-22T12:16:29Z</time>
      </trkpt>
      <trkpt lat="42.5992420" lon="-8.6432430">
        <ele>32.8</ele>
        <time>2021-05-22T12:16:30Z</time>
      </trkpt>
      <trkpt lat="42.5992520" lon="-8.6432400">
        <ele>32.8</ele>
        <time>2021-05-22T12:16:31Z</time>
      </trkpt>
      <trkpt lat="42.5992620" lon="-8.6432370">
        <ele>32.8</ele>
        <time>2021-05-22T12:16:32Z</time>
      </trkpt>
      <trkpt lat="42.5992720" lon="-8.6432340">
        <ele>32.8</ele>
        <time>2021-05-22T12:16:33Z</time>
      </trkpt>
      <trkpt lat="42.5992790" lon="-8.6432310">
        <ele>32.8</ele>
        <time>2021-05-22T12:16:34Z</time>
      </trkpt>
      <trkpt lat="42.5992910" lon="-8.6432220">
        <ele>32.7</ele>
        <time>2021-05-22T12:16:35Z</time>
      </trkpt>
      <trkpt lat="42.5992970" lon="-8.6432170">
        <ele>32.7</ele>
        <time>2021-05-22T12:16:36Z</time>
      </trkpt>
      <trkpt lat="42.5993070" lon="-8.6432090">
        <ele>32.7</ele>
        <time>2021-05-22T12:16:37Z</time>
      </trkpt>
      <trkpt lat="42.5993230" lon="-8.6432050">
        <ele>32.7</ele>
        <time>2021-05-22T12:16:38Z</time>
      </trkpt>
      <trkpt lat="42.5993320" lon="-8.6432010">
        <ele>32.7</ele>
        <time>2021-05-22T12:16:39Z</time>
      </trkpt>
      <trkpt lat="42.5993420" lon="-8.6432020">
        <ele>32.7</ele>
        <time>2021-05-22T12:16:40Z</time>
      </trkpt>
      <trkpt lat="42.5993570" lon="-8.6431900">
        <ele>32.6</ele>
        <time>2021-05-22T12:16:41Z</time>
      </trkpt>
      <trkpt lat="42.5993690" lon="-8.6431890">
        <ele>32.6</ele>
        <time>2021-05-22T12:16:42Z</time>
      </trkpt>
      <trkpt lat="42.5993800" lon="-8.6431880">
        <ele>32.6</ele>
        <time>2021-05-22T12:16:43Z</time>
      </trkpt>
      <trkpt lat="42.5993880" lon="-8.6431860">
        <ele>32.6</ele>
        <time>2021-05-22T12:16:44Z</time>
      </trkpt>
      <trkpt lat="42.5993990" lon="-8.6431880">
        <ele>32.6</ele>
        <time>2021-05-22T12:16:45Z</time>
      </trkpt>
      <trkpt lat="42.5994090" lon="-8.6431900">
        <ele>32.6</ele>
        <time>2021-05-22T12:16:46Z</time>
      </trkpt>
      <trkpt lat="42.5994180" lon="-8.6431880">
        <ele>32.5</ele>
        <time>2021-05-22T12:16:47Z</time>
      </trkpt>
      <trkpt lat="42.5994380" lon="-8.6431890">
        <ele>32.5</ele>
        <time>2021-05-22T12:16:48Z</time>
      </trkpt>
      <trkpt lat="42.5994460" lon="-8.6431870">
        <ele>32.5</ele>
        <time>2021-05-22T12:16:49Z</time>
      </trkpt>
      <trkpt lat="42.5994550" lon="-8.6431860">
        <ele>32.5</ele>
        <time>2021-05-22T12:16:50Z</time>
      </trkpt>
      <trkpt lat="42.5994650" lon="-8.6431850">
        <ele>32.5</ele>
        <time>2021-05-22T12:16:51Z</time>
      </trkpt>
      <trkpt lat="42.5994740" lon="-8.6431800">
        <ele>32.5</ele>
        <time>2021-05-22T12:16:52Z</time>
      </trkpt>
      <trkpt lat="42.5994810" lon="-8.6431760">
        <ele>32.5</ele>
        <time>2021-05-22T12:16:53Z</time>
      </trkpt>
      <trkpt lat="42.5994980" lon="-8.6431790">
        <ele>32.5</ele>
        <time>2021-05-22T12:16:54Z</time>
      </trkpt>
      <trkpt lat="42.5995000" lon="-8.6431830">
        <ele>32.5</ele>
        <time>2021-05-22T12:16:55Z</time>
      </trkpt>
      <trkpt lat="42.5995110" lon="-8.6431730">
        <ele>32.4</ele>
        <time>2021-05-22T12:16:56Z</time>
      </trkpt>
      <trkpt lat="42.5995250" lon="-8.6431690">
        <ele>32.4</ele>
        <time>2021-05-22T12:16:57Z</time>
      </trkpt>
      <trkpt lat="42.5995390" lon="-8.6431700">
        <ele>32.4</ele>
        <time>2021-05-22T12:16:58Z</time>
      </trkpt>
      <trkpt lat="42.5995600" lon="-8.6431650">
        <ele>32.4</ele>
        <time>2021-05-22T12:16:59Z</time>
      </trkpt>
      <trkpt lat="42.5995680" lon="-8.6431620">
        <ele>32.4</ele>
        <time>2021-05-22T12:17:00Z</time>
      </trkpt>
      <trkpt lat="42.5995760" lon="-8.6431600">
        <ele>32.4</ele>
        <time>2021-05-22T12:17:01Z</time>
      </trkpt>
      <trkpt lat="42.5995920" lon="-8.6431390">
        <ele>32.4</ele>
        <time>2021-05-22T12:17:02Z</time>
      </trkpt>
      <trkpt lat="42.5995960" lon="-8.6431320">
        <ele>32.3</ele>
        <time>2021-05-22T12:17:03Z</time>
      </trkpt>
      <trkpt lat="42.5996010" lon="-8.6431240">
        <ele>32.3</ele>
        <time>2021-05-22T12:17:04Z</time>
      </trkpt>
      <trkpt lat="42.5996170" lon="-8.6431150">
        <ele>32.3</ele>
        <time>2021-05-22T12:17:05Z</time>
      </trkpt>
      <trkpt lat="42.5996300" lon="-8.6431010">
        <ele>32.3</ele>
        <time>2021-05-22T12:17:06Z</time>
      </trkpt>
      <trkpt lat="42.5996440" lon="-8.6430890">
        <ele>32.3</ele>
        <time>2021-05-22T12:17:07Z</time>
      </trkpt>
      <trkpt lat="42.5996520" lon="-8.6430820">
        <ele>32.3</ele>
        <time>2021-05-22T12:17:08Z</time>
      </trkpt>
      <trkpt lat="42.5996590" lon="-8.6430740">
        <ele>32.2</ele>
        <time>2021-05-22T12:17:09Z</time>
      </trkpt>
      <trkpt lat="42.5996670" lon="-8.6430660">
        <ele>32.2</ele>
        <time>2021-05-22T12:17:10Z</time>
      </trkpt>
      <trkpt lat="42.5996800" lon="-8.6430590">
        <ele>32.2</ele>
        <time>2021-05-22T12:17:11Z</time>
      </trkpt>
      <trkpt lat="42.5996900" lon="-8.6430460">
        <ele>32.2</ele>
        <time>2021-05-22T12:17:12Z</time>
      </trkpt>
      <trkpt lat="42.5997040" lon="-8.6430350">
        <ele>32.1</ele>
        <time>2021-05-22T12:17:13Z</time>
      </trkpt>
      <trkpt lat="42.5997090" lon="-8.6430300">
        <ele>32.1</ele>
        <time>2021-05-22T12:17:14Z</time>
      </trkpt>
      <trkpt lat="42.5997130" lon="-8.6430260">
        <ele>32.1</ele>
        <time>2021-05-22T12:17:15Z</time>
      </trkpt>
      <trkpt lat="42.5997180" lon="-8.6430210">
        <ele>32.1</ele>
        <time>2021-05-22T12:17:16Z</time>
      </trkpt>
      <trkpt lat="42.5997230" lon="-8.6430170">
        <ele>32.1</ele>
        <time>2021-05-22T12:17:17Z</time>
      </trkpt>
      <trkpt lat="42.5997320" lon="-8.6430050">
        <ele>32.0</ele>
        <time>2021-05-22T12:17:18Z</time>
      </trkpt>
      <trkpt lat="42.5997330" lon="-8.6429940">
        <ele>32.0</ele>
        <time>2021-05-22T12:17:19Z</time>
      </trkpt>
      <trkpt lat="42.5997410" lon="-8.6429880">
        <ele>32.0</ele>
        <time>2021-05-22T12:17:20Z</time>
      </trkpt>
      <trkpt lat="42.5997440" lon="-8.6429760">
        <ele>32.0</ele>
        <time>2021-05-22T12:17:21Z</time>
      </trkpt>
      <trkpt lat="42.5997490" lon="-8.6429660">
        <ele>31.9</ele>
        <time>2021-05-22T12:17:22Z</time>
      </trkpt>
      <trkpt lat="42.5997590" lon="-8.6429540">
        <ele>31.9</ele>
        <time>2021-05-22T12:17:23Z</time>
      </trkpt>
      <trkpt lat="42.5997690" lon="-8.6429430">
        <ele>31.9</ele>
        <time>2021-05-22T12:17:24Z</time>
      </trkpt>
      <trkpt lat="42.5997780" lon="-8.6429370">
        <ele>31.8</ele>
        <time>2021-05-22T12:17:25Z</time>
      </trkpt>
      <trkpt lat="42.5997880" lon="-8.6429300">
        <ele>31.8</ele>
        <time>2021-05-22T12:17:26Z</time>
      </trkpt>
      <trkpt lat="42.5998070" lon="-8.6429070">
        <ele>31.7</ele>
        <time>2021-05-22T12:17:27Z</time>
      </trkpt>
      <trkpt lat="42.5998140" lon="-8.6429000">
        <ele>31.6</ele>
        <time>2021-05-22T12:17:28Z</time>
      </trkpt>
      <trkpt lat="42.5998200" lon="-8.6428940">
        <ele>31.6</ele>
        <time>2021-05-22T12:17:29Z</time>
      </trkpt>
      <trkpt lat="42.5998310" lon="-8.6429020">
        <ele>31.6</ele>
        <time>2021-05-22T12:17:30Z</time>
      </trkpt>
      <trkpt lat="42.5998450" lon="-8.6428970">
        <ele>31.5</ele>
        <time>2021-05-22T12:17:31Z</time>
      </trkpt>
      <trkpt lat="42.5998550" lon="-8.6428960">
        <ele>31.5</ele>
        <time>2021-05-22T12:17:32Z</time>
      </trkpt>
      <trkpt lat="42.5998610" lon="-8.6428890">
        <ele>31.4</ele>
        <time>2021-05-22T12:17:33Z</time>
      </trkpt>
      <trkpt lat="42.5998750" lon="-8.6428950">
        <ele>31.3</ele>
        <time>2021-05-22T12:17:34Z</time>
      </trkpt>
      <trkpt lat="42.5998900" lon="-8.6428940">
        <ele>31.3</ele>
        <time>2021-05-22T12:17:35Z</time>
      </trkpt>
      <trkpt lat="42.5998980" lon="-8.6428940">
        <ele>31.3</ele>
        <time>2021-05-22T12:17:36Z</time>
      </trkpt>
      <trkpt lat="42.5999090" lon="-8.6428870">
        <ele>31.3</ele>
        <time>2021-05-22T12:17:37Z</time>
      </trkpt>
      <trkpt lat="42.5999150" lon="-8.6428840">
        <ele>31.3</ele>
        <time>2021-05-22T12:17:38Z</time>
      </trkpt>
      <trkpt lat="42.5999230" lon="-8.6428830">
        <ele>31.3</ele>
        <time>2021-05-22T12:17:39Z</time>
      </trkpt>
      <trkpt lat="42.5999350" lon="-8.6428770">
        <ele>31.2</ele>
        <time>2021-05-22T12:17:40Z</time>
      </trkpt>
      <trkpt lat="42.5999410" lon="-8.6428760">
        <ele>31.2</ele>
        <time>2021-05-22T12:17:41Z</time>
      </trkpt>
      <trkpt lat="42.5999550" lon="-8.6428630">
        <ele>31.2</ele>
        <time>2021-05-22T12:17:42Z</time>
      </trkpt>
      <trkpt lat="42.5999620" lon="-8.6428690">
        <ele>31.2</ele>
        <time>2021-05-22T12:17:43Z</time>
      </trkpt>
      <trkpt lat="42.5999720" lon="-8.6428690">
        <ele>31.2</ele>
        <time>2021-05-22T12:17:44Z</time>
      </trkpt>
      <trkpt lat="42.5999760" lon="-8.6428710">
        <ele>31.2</ele>
        <time>2021-05-22T12:17:45Z</time>
      </trkpt>
      <trkpt lat="42.5999830" lon="-8.6428710">
        <ele>31.1</ele>
        <time>2021-05-22T12:17:46Z</time>
      </trkpt>
      <trkpt lat="42.5999920" lon="-8.6428700">
        <ele>31.1</ele>
        <time>2021-05-22T12:17:47Z</time>
      </trkpt>
      <trkpt lat="42.5999990" lon="-8.6428700">
        <ele>31.1</ele>
        <time>2021-05-22T12:17:48Z</time>
      </trkpt>
      <trkpt lat="42.6000070" lon="-8.6428700">
        <ele>31.1</ele>
        <time>2021-05-22T12:17:49Z</time>
      </trkpt>
      <trkpt lat="42.6000140" lon="-8.6428700">
        <ele>31.0</ele>
        <time>2021-05-22T12:17:50Z</time>
      </trkpt>
      <trkpt lat="42.6000210" lon="-8.6428700">
        <ele>31.0</ele>
        <time>2021-05-22T12:17:51Z</time>
      </trkpt>
      <trkpt lat="42.6000380" lon="-8.6428700">
        <ele>31.0</ele>
        <time>2021-05-22T12:17:52Z</time>
      </trkpt>
      <trkpt lat="42.6000480" lon="-8.6428670">
        <ele>30.9</ele>
        <time>2021-05-22T12:17:53Z</time>
      </trkpt>
      <trkpt lat="42.6000630" lon="-8.6428720">
        <ele>30.9</ele>
        <time>2021-05-22T12:17:54Z</time>
      </trkpt>
      <trkpt lat="42.6000720" lon="-8.6428720">
        <ele>30.9</ele>
        <time>2021-05-22T12:17:55Z</time>
      </trkpt>
      <trkpt lat="42.6000810" lon="-8.6428710">
        <ele>30.9</ele>
        <time>2021-05-22T12:17:56Z</time>
      </trkpt>
      <trkpt lat="42.6000900" lon="-8.6428700">
        <ele>30.8</ele>
        <time>2021-05-22T12:17:57Z</time>
      </trkpt>
      <trkpt lat="42.6001010" lon="-8.6428700">
        <ele>30.8</ele>
        <time>2021-05-22T12:17:58Z</time>
      </trkpt>
      <trkpt lat="42.6001100" lon="-8.6428710">
        <ele>30.8</ele>
        <time>2021-05-22T12:17:59Z</time>
      </trkpt>
      <trkpt lat="42.6001240" lon="-8.6428680">
        <ele>30.7</ele>
        <time>2021-05-22T12:18:00Z</time>
      </trkpt>
      <trkpt lat="42.6001340" lon="-8.6428680">
        <ele>30.7</ele>
        <time>2021-05-22T12:18:01Z</time>
      </trkpt>
      <trkpt lat="42.6001440" lon="-8.6428680">
        <ele>30.7</ele>
        <time>2021-05-22T12:18:02Z</time>
      </trkpt>
      <trkpt lat="42.6001510" lon="-8.6428670">
        <ele>30.6</ele>
        <time>2021-05-22T12:18:03Z</time>
      </trkpt>
      <trkpt lat="42.6001550" lon="-8.6428660">
        <ele>30.6</ele>
        <time>2021-05-22T12:18:04Z</time>
      </trkpt>
      <trkpt lat="42.6001570" lon="-8.6428610">
        <ele>30.6</ele>
        <time>2021-05-22T12:18:05Z</time>
      </trkpt>
      <trkpt lat="42.6001670" lon="-8.6428590">
        <ele>30.6</ele>
        <time>2021-05-22T12:18:06Z</time>
      </trkpt>
      <trkpt lat="42.6001750" lon="-8.6428550">
        <ele>30.6</ele>
        <time>2021-05-22T12:18:07Z</time>
      </trkpt>
      <trkpt lat="42.6001830" lon="-8.6428570">
        <ele>30.5</ele>
        <time>2021-05-22T12:18:08Z</time>
      </trkpt>
      <trkpt lat="42.6001940" lon="-8.6428580">
        <ele>30.5</ele>
        <time>2021-05-22T12:18:09Z</time>
      </trkpt>
      <trkpt lat="42.6002050" lon="-8.6428610">
        <ele>30.5</ele>
        <time>2021-05-22T12:18:10Z</time>
      </trkpt>
      <trkpt lat="42.6002150" lon="-8.6428660">
        <ele>30.4</ele>
        <time>2021-05-22T12:18:11Z</time>
      </trkpt>
      <trkpt lat="42.6002270" lon="-8.6428660">
        <ele>30.4</ele>
        <time>2021-05-22T12:18:12Z</time>
      </trkpt>
      <trkpt lat="42.6002330" lon="-8.6428650">
        <ele>30.4</ele>
        <time>2021-05-22T12:18:13Z</time>
      </trkpt>
      <trkpt lat="42.6002450" lon="-8.6428620">
        <ele>30.3</ele>
        <time>2021-05-22T12:18:14Z</time>
      </trkpt>
      <trkpt lat="42.6002560" lon="-8.6428630">
        <ele>30.3</ele>
        <time>2021-05-22T12:18:15Z</time>
      </trkpt>
      <trkpt lat="42.6002730" lon="-8.6428640">
        <ele>30.2</ele>
        <time>2021-05-22T12:18:16Z</time>
      </trkpt>
      <trkpt lat="42.6002840" lon="-8.6428650">
        <ele>30.2</ele>
        <time>2021-05-22T12:18:17Z</time>
      </trkpt>
      <trkpt lat="42.6002950" lon="-8.6428660">
        <ele>30.1</ele>
        <time>2021-05-22T12:18:18Z</time>
      </trkpt>
      <trkpt lat="42.6003010" lon="-8.6428530">
        <ele>30.1</ele>
        <time>2021-05-22T12:18:19Z</time>
      </trkpt>
      <trkpt lat="42.6003050" lon="-8.6428460">
        <ele>30.1</ele>
        <time>2021-05-22T12:18:20Z</time>
      </trkpt>
      <trkpt lat="42.6003180" lon="-8.6428390">
        <ele>30.0</ele>
        <time>2021-05-22T12:18:21Z</time>
      </trkpt>
      <trkpt lat="42.6003270" lon="-8.6428470">
        <ele>30.0</ele>
        <time>2021-05-22T12:18:22Z</time>
      </trkpt>
      <trkpt lat="42.6003330" lon="-8.6428440">
        <ele>30.0</ele>
        <time>2021-05-22T12:18:23Z</time>
      </trkpt>
      <trkpt lat="42.6003430" lon="-8.6428620">
        <ele>29.9</ele>
        <time>2021-05-22T12:18:24Z</time>
      </trkpt>
      <trkpt lat="42.6003490" lon="-8.6428790">
        <ele>29.9</ele>
        <time>2021-05-22T12:18:25Z</time>
      </trkpt>
      <trkpt lat="42.6003600" lon="-8.6428970">
        <ele>29.8</ele>
        <time>2021-05-22T12:18:26Z</time>
      </trkpt>
      <trkpt lat="42.6003680" lon="-8.6429120">
        <ele>29.8</ele>
        <time>2021-05-22T12:18:27Z</time>
      </trkpt>
      <trkpt lat="42.6003750" lon="-8.6429160">
        <ele>29.7</ele>
        <time>2021-05-22T12:18:28Z</time>
      </trkpt>
      <trkpt lat="42.6003860" lon="-8.6429260">
        <ele>29.7</ele>
        <time>2021-05-22T12:18:29Z</time>
      </trkpt>
      <trkpt lat="42.6003910" lon="-8.6429380">
        <ele>29.6</ele>
        <time>2021-05-22T12:18:30Z</time>
      </trkpt>
      <trkpt lat="42.6004050" lon="-8.6429550">
        <ele>29.6</ele>
        <time>2021-05-22T12:18:31Z</time>
      </trkpt>
      <trkpt lat="42.6004130" lon="-8.6429650">
        <ele>29.5</ele>
        <time>2021-05-22T12:18:32Z</time>
      </trkpt>
      <trkpt lat="42.6004210" lon="-8.6429750">
        <ele>29.5</ele>
        <time>2021-05-22T12:18:33Z</time>
      </trkpt>
      <trkpt lat="42.6004290" lon="-8.6429870">
        <ele>29.5</ele>
        <time>2021-05-22T12:18:34Z</time>
      </trkpt>
      <trkpt lat="42.6004350" lon="-8.6429920">
        <ele>29.4</ele>
        <time>2021-05-22T12:18:35Z</time>
      </trkpt>
      <trkpt lat="42.6004400" lon="-8.6429960">
        <ele>29.4</ele>
        <time>2021-05-22T12:18:36Z</time>
      </trkpt>
      <trkpt lat="42.6004460" lon="-8.6430010">
        <ele>29.4</ele>
        <time>2021-05-22T12:18:37Z</time>
      </trkpt>
      <trkpt lat="42.6004510" lon="-8.6430050">
        <ele>29.4</ele>
        <time>2021-05-22T12:18:38Z</time>
      </trkpt>
      <trkpt lat="42.6004610" lon="-8.6430060">
        <ele>29.3</ele>
        <time>2021-05-22T12:18:39Z</time>
      </trkpt>
      <trkpt lat="42.6004670" lon="-8.6430160">
        <ele>29.3</ele>
        <time>2021-05-22T12:18:40Z</time>
      </trkpt>
      <trkpt lat="42.6004780" lon="-8.6430130">
        <ele>29.2</ele>
        <time>2021-05-22T12:18:41Z</time>
      </trkpt>
      <trkpt lat="42.6004820" lon="-8.6430180">
        <ele>29.2</ele>
        <time>2021-05-22T12:18:42Z</time>
      </trkpt>
      <trkpt lat="42.6004950" lon="-8.6430180">
        <ele>29.2</ele>
        <time>2021-05-22T12:18:43Z</time>
      </trkpt>
      <trkpt lat="42.6004950" lon="-8.6430220">
        <ele>29.2</ele>
        <time>2021-05-22T12:18:44Z</time>
      </trkpt>
      <trkpt lat="42.6004950" lon="-8.6430260">
        <ele>29.2</ele>
        <time>2021-05-22T12:18:45Z</time>
      </trkpt>
      <trkpt lat="42.6005100" lon="-8.6430270">
        <ele>29.1</ele>
        <time>2021-05-22T12:18:46Z</time>
      </trkpt>
      <trkpt lat="42.6005290" lon="-8.6430310">
        <ele>29.0</ele>
        <time>2021-05-22T12:18:47Z</time>
      </trkpt>
      <trkpt lat="42.6005390" lon="-8.6430260">
        <ele>29.0</ele>
        <time>2021-05-22T12:18:48Z</time>
      </trkpt>
      <trkpt lat="42.6005590" lon="-8.6430250">
        <ele>28.9</ele>
        <time>2021-05-22T12:18:49Z</time>
      </trkpt>
      <trkpt lat="42.6005670" lon="-8.6430260">
        <ele>28.9</ele>
        <time>2021-05-22T12:18:50Z</time>
      </trkpt>
      <trkpt lat="42.6005740" lon="-8.6430280">
        <ele>28.9</ele>
        <time>2021-05-22T12:18:51Z</time>
      </trkpt>
      <trkpt lat="42.6005810" lon="-8.6430300">
        <ele>28.8</ele>
        <time>2021-05-22T12:18:52Z</time>
      </trkpt>
      <trkpt lat="42.6005900" lon="-8.6430310">
        <ele>28.8</ele>
        <time>2021-05-22T12:18:53Z</time>
      </trkpt>
      <trkpt lat="42.6005980" lon="-8.6430350">
        <ele>28.8</ele>
        <time>2021-05-22T12:18:54Z</time>
      </trkpt>
      <trkpt lat="42.6006090" lon="-8.6430360">
        <ele>28.7</ele>
        <time>2021-05-22T12:18:55Z</time>
      </trkpt>
      <trkpt lat="42.6006280" lon="-8.6430240">
        <ele>28.7</ele>
        <time>2021-05-22T12:18:56Z</time>
      </trkpt>
      <trkpt lat="42.6006350" lon="-8.6430100">
        <ele>28.6</ele>
        <time>2021-05-22T12:18:57Z</time>
      </trkpt>
      <trkpt lat="42.6006430" lon="-8.6430050">
        <ele>28.6</ele>
        <time>2021-05-22T12:18:58Z</time>
      </trkpt>
      <trkpt lat="42.6006510" lon="-8.6430050">
        <ele>28.6</ele>
        <time>2021-05-22T12:18:59Z</time>
      </trkpt>
      <trkpt lat="42.6006610" lon="-8.6430000">
        <ele>28.5</ele>
        <time>2021-05-22T12:19:00Z</time>
      </trkpt>
      <trkpt lat="42.6006660" lon="-8.6429970">
        <ele>28.5</ele>
        <time>2021-05-22T12:19:01Z</time>
      </trkpt>
      <trkpt lat="42.6006700" lon="-8.6429920">
        <ele>28.5</ele>
        <time>2021-05-22T12:19:02Z</time>
      </trkpt>
      <trkpt lat="42.6006800" lon="-8.6429940">
        <ele>28.5</ele>
        <time>2021-05-22T12:19:03Z</time>
      </trkpt>
      <trkpt lat="42.6006950" lon="-8.6429940">
        <ele>28.4</ele>
        <time>2021-05-22T12:19:04Z</time>
      </trkpt>
      <trkpt lat="42.6007140" lon="-8.6429870">
        <ele>28.3</ele>
        <time>2021-05-22T12:19:05Z</time>
      </trkpt>
      <trkpt lat="42.6007210" lon="-8.6429880">
        <ele>28.3</ele>
        <time>2021-05-22T12:19:06Z</time>
      </trkpt>
      <trkpt lat="42.6007360" lon="-8.6429820">
        <ele>28.3</ele>
        <time>2021-05-22T12:19:07Z</time>
      </trkpt>
      <trkpt lat="42.6007500" lon="-8.6429890">
        <ele>28.2</ele>
        <time>2021-05-22T12:19:08Z</time>
      </trkpt>
      <trkpt lat="42.6007530" lon="-8.6429940">
        <ele>28.2</ele>
        <time>2021-05-22T12:19:09Z</time>
      </trkpt>
      <trkpt lat="42.6007450" lon="-8.6429940">
        <ele>28.2</ele>
        <time>2021-05-22T12:19:10Z</time>
      </trkpt>
      <trkpt lat="42.6007470" lon="-8.6429990">
        <ele>28.2</ele>
        <time>2021-05-22T12:19:11Z</time>
      </trkpt>
      <trkpt lat="42.6007470" lon="-8.6430060">
        <ele>28.1</ele>
        <time>2021-05-22T12:19:12Z</time>
      </trkpt>
      <trkpt lat="42.6007460" lon="-8.6430050">
        <ele>28.1</ele>
        <time>2021-05-22T12:19:13Z</time>
      </trkpt>
      <trkpt lat="42.6007500" lon="-8.6430200">
        <ele>28.1</ele>
        <time>2021-05-22T12:19:14Z</time>
      </trkpt>
      <trkpt lat="42.6007520" lon="-8.6430170">
        <ele>28.1</ele>
        <time>2021-05-22T12:19:15Z</time>
      </trkpt>
      <trkpt lat="42.6007590" lon="-8.6430210">
        <ele>28.1</ele>
        <time>2021-05-22T12:19:16Z</time>
      </trkpt>
      <trkpt lat="42.6007600" lon="-8.6430160">
        <ele>28.1</ele>
        <time>2021-05-22T12:19:17Z</time>
      </trkpt>
      <trkpt lat="42.6007560" lon="-8.6430140">
        <ele>28.0</ele>
        <time>2021-05-22T12:19:18Z</time>
      </trkpt>
      <trkpt lat="42.6007560" lon="-8.6430150">
        <ele>28.0</ele>
        <time>2021-05-22T12:19:19Z</time>
      </trkpt>
      <trkpt lat="42.6007530" lon="-8.6430140">
        <ele>28.0</ele>
        <time>2021-05-22T12:19:20Z</time>
      </trkpt>
      <trkpt lat="42.6007550" lon="-8.6430140">
        <ele>28.0</ele>
        <time>2021-05-22T12:19:21Z</time>
      </trkpt>
      <trkpt lat="42.6007620" lon="-8.6430110">
        <ele>28.0</ele>
        <time>2021-05-22T12:19:22Z</time>
      </trkpt>
      <trkpt lat="42.6007680" lon="-8.6430090">
        <ele>28.0</ele>
        <time>2021-05-22T12:19:23Z</time>
      </trkpt>
      <trkpt lat="42.6007810" lon="-8.6430090">
        <ele>27.9</ele>
        <time>2021-05-22T12:19:24Z</time>
      </trkpt>
      <trkpt lat="42.6007830" lon="-8.6430090">
        <ele>27.9</ele>
        <time>2021-05-22T12:19:25Z</time>
      </trkpt>
      <trkpt lat="42.6007960" lon="-8.6430110">
        <ele>27.9</ele>
        <time>2021-05-22T12:19:26Z</time>
      </trkpt>
      <trkpt lat="42.6008140" lon="-8.6430100">
        <ele>27.8</ele>
        <time>2021-05-22T12:19:27Z</time>
      </trkpt>
      <trkpt lat="42.6008260" lon="-8.6430130">
        <ele>27.8</ele>
        <time>2021-05-22T12:19:28Z</time>
      </trkpt>
      <trkpt lat="42.6008260" lon="-8.6430110">
        <ele>27.8</ele>
        <time>2021-05-22T12:19:29Z</time>
      </trkpt>
      <trkpt lat="42.6008340" lon="-8.6430070">
        <ele>27.8</ele>
        <time>2021-05-22T12:19:30Z</time>
      </trkpt>
      <trkpt lat="42.6008380" lon="-8.6429980">
        <ele>27.7</ele>
        <time>2021-05-22T12:19:31Z</time>
      </trkpt>
      <trkpt lat="42.6008360" lon="-8.6429810">
        <ele>27.7</ele>
        <time>2021-05-22T12:19:32Z</time>
      </trkpt>
      <trkpt lat="42.6008490" lon="-8.6429700">
        <ele>27.6</ele>
        <time>2021-05-22T12:19:33Z</time>
      </trkpt>
      <trkpt lat="42.6008590" lon="-8.6429810">
        <ele>27.6</ele>
        <time>2021-05-22T12:19:34Z</time>
      </trkpt>
      <trkpt lat="42.6008690" lon="-8.6429780">
        <ele>27.6</ele>
        <time>2021-05-22T12:19:35Z</time>
      </trkpt>
      <trkpt lat="42.6008870" lon="-8.6429710">
        <ele>27.5</ele>
        <time>2021-05-22T12:19:36Z</time>
      </trkpt>
      <trkpt lat="42.6008960" lon="-8.6429670">
        <ele>27.5</ele>
        <time>2021-05-22T12:19:37Z</time>
      </trkpt>
      <trkpt lat="42.6009080" lon="-8.6429660">
        <ele>27.4</ele>
        <time>2021-05-22T12:19:38Z</time>
      </trkpt>
      <trkpt lat="42.6009170" lon="-8.6429610">
        <ele>27.4</ele>
        <time>2021-05-22T12:19:39Z</time>
      </trkpt>
      <trkpt lat="42.6009270" lon="-8.6429590">
        <ele>27.4</ele>
        <time>2021-05-22T12:19:40Z</time>
      </trkpt>
      <trkpt lat="42.6009430" lon="-8.6429580">
        <ele>27.3</ele>
        <time>2021-05-22T12:19:41Z</time>
      </trkpt>
      <trkpt lat="42.6009450" lon="-8.6429640">
        <ele>27.3</ele>
        <time>2021-05-22T12:19:42Z</time>
      </trkpt>
      <trkpt lat="42.6009560" lon="-8.6429640">
        <ele>27.3</ele>
        <time>2021-05-22T12:19:43Z</time>
      </trkpt>
      <trkpt lat="42.6009730" lon="-8.6429640">
        <ele>27.2</ele>
        <time>2021-05-22T12:19:44Z</time>
      </trkpt>
      <trkpt lat="42.6009810" lon="-8.6429620">
        <ele>27.2</ele>
        <time>2021-05-22T12:19:45Z</time>
      </trkpt>
      <trkpt lat="42.6009910" lon="-8.6429610">
        <ele>27.2</ele>
        <time>2021-05-22T12:19:46Z</time>
      </trkpt>
      <trkpt lat="42.6009940" lon="-8.6429630">
        <ele>27.2</ele>
        <time>2021-05-22T12:19:47Z</time>
      </trkpt>
      <trkpt lat="42.6010030" lon="-8.6429580">
        <ele>27.1</ele>
        <time>2021-05-22T12:19:48Z</time>
      </trkpt>
      <trkpt lat="42.6010130" lon="-8.6429650">
        <ele>27.1</ele>
        <time>2021-05-22T12:19:49Z</time>
      </trkpt>
      <trkpt lat="42.6010200" lon="-8.6429620">
        <ele>27.1</ele>
        <time>2021-05-22T12:19:50Z</time>
      </trkpt>
      <trkpt lat="42.6010310" lon="-8.6429650">
        <ele>27.0</ele>
        <time>2021-05-22T12:19:51Z</time>
      </trkpt>
      <trkpt lat="42.6010440" lon="-8.6429690">
        <ele>27.0</ele>
        <time>2021-05-22T12:19:52Z</time>
      </trkpt>
      <trkpt lat="42.6010530" lon="-8.6429590">
        <ele>27.0</ele>
        <time>2021-05-22T12:19:53Z</time>
      </trkpt>
      <trkpt lat="42.6010630" lon="-8.6429610">
        <ele>26.9</ele>
        <time>2021-05-22T12:19:54Z</time>
      </trkpt>
      <trkpt lat="42.6010750" lon="-8.6429620">
        <ele>26.9</ele>
        <time>2021-05-22T12:19:55Z</time>
      </trkpt>
      <trkpt lat="42.6010870" lon="-8.6429700">
        <ele>26.9</ele>
        <time>2021-05-22T12:19:56Z</time>
      </trkpt>
      <trkpt lat="42.6011010" lon="-8.6429670">
        <ele>26.8</ele>
        <time>2021-05-22T12:19:57Z</time>
      </trkpt>
      <trkpt lat="42.6011180" lon="-8.6429530">
        <ele>26.7</ele>
        <time>2021-05-22T12:19:58Z</time>
      </trkpt>
      <trkpt lat="42.6011330" lon="-8.6429510">
        <ele>26.7</ele>
        <time>2021-05-22T12:19:59Z</time>
      </trkpt>
      <trkpt lat="42.6011510" lon="-8.6429470">
        <ele>26.6</ele>
        <time>2021-05-22T12:20:00Z</time>
      </trkpt>
      <trkpt lat="42.6011600" lon="-8.6429420">
        <ele>26.6</ele>
        <time>2021-05-22T12:20:01Z</time>
      </trkpt>
      <trkpt lat="42.6011810" lon="-8.6429380">
        <ele>26.6</ele>
        <time>2021-05-22T12:20:02Z</time>
      </trkpt>
      <trkpt lat="42.6011890" lon="-8.6429380">
        <ele>26.5</ele>
        <time>2021-05-22T12:20:03Z</time>
      </trkpt>
      <trkpt lat="42.6011960" lon="-8.6429310">
        <ele>26.5</ele>
        <time>2021-05-22T12:20:04Z</time>
      </trkpt>
      <trkpt lat="42.6012030" lon="-8.6429260">
        <ele>26.5</ele>
        <time>2021-05-22T12:20:05Z</time>
      </trkpt>
      <trkpt lat="42.6012110" lon="-8.6429180">
        <ele>26.4</ele>
        <time>2021-05-22T12:20:06Z</time>
      </trkpt>
      <trkpt lat="42.6012200" lon="-8.6429170">
        <ele>26.4</ele>
        <time>2021-05-22T12:20:07Z</time>
      </trkpt>
      <trkpt lat="42.6012330" lon="-8.6429030">
        <ele>26.4</ele>
        <time>2021-05-22T12:20:08Z</time>
      </trkpt>
      <trkpt lat="42.6012310" lon="-8.6429040">
        <ele>26.4</ele>
        <time>2021-05-22T12:20:09Z</time>
      </trkpt>
      <trkpt lat="42.6012410" lon="-8.6429050">
        <ele>26.3</ele>
        <time>2021-05-22T12:20:10Z</time>
      </trkpt>
      <trkpt lat="42.6012450" lon="-8.6429160">
        <ele>26.3</ele>
        <time>2021-05-22T12:20:11Z</time>
      </trkpt>
      <trkpt lat="42.6012540" lon="-8.6429220">
        <ele>26.3</ele>
        <time>2021-05-22T12:20:12Z</time>
      </trkpt>
      <trkpt lat="42.6012620" lon="-8.6429290">
        <ele>26.2</ele>
        <time>2021-05-22T12:20:13Z</time>
      </trkpt>
      <trkpt lat="42.6012700" lon="-8.6429360">
        <ele>26.2</ele>
        <time>2021-05-22T12:20:14Z</time>
      </trkpt>
      <trkpt lat="42.6012720" lon="-8.6429490">
        <ele>26.2</ele>
        <time>2021-05-22T12:20:15Z</time>
      </trkpt>
      <trkpt lat="42.6012790" lon="-8.6429580">
        <ele>26.2</ele>
        <time>2021-05-22T12:20:16Z</time>
      </trkpt>
      <trkpt lat="42.6012840" lon="-8.6429600">
        <ele>26.1</ele>
        <time>2021-05-22T12:20:17Z</time>
      </trkpt>
      <trkpt lat="42.6012930" lon="-8.6429720">
        <ele>26.1</ele>
        <time>2021-05-22T12:20:18Z</time>
      </trkpt>
      <trkpt lat="42.6013000" lon="-8.6429790">
        <ele>26.1</ele>
        <time>2021-05-22T12:20:19Z</time>
      </trkpt>
      <trkpt lat="42.6013100" lon="-8.6429850">
        <ele>26.0</ele>
        <time>2021-05-22T12:20:20Z</time>
      </trkpt>
      <trkpt lat="42.6013220" lon="-8.6429830">
        <ele>26.0</ele>
        <time>2021-05-22T12:20:21Z</time>
      </trkpt>
      <trkpt lat="42.6013350" lon="-8.6429890">
        <ele>26.0</ele>
        <time>2021-05-22T12:20:22Z</time>
      </trkpt>
      <trkpt lat="42.6013400" lon="-8.6429860">
        <ele>26.0</ele>
        <time>2021-05-22T12:20:23Z</time>
      </trkpt>
      <trkpt lat="42.6013510" lon="-8.6429810">
        <ele>25.9</ele>
        <time>2021-05-22T12:20:24Z</time>
      </trkpt>
      <trkpt lat="42.6013550" lon="-8.6429770">
        <ele>25.9</ele>
        <time>2021-05-22T12:20:25Z</time>
      </trkpt>
      <trkpt lat="42.6013660" lon="-8.6429710">
        <ele>25.9</ele>
        <time>2021-05-22T12:20:26Z</time>
      </trkpt>
      <trkpt lat="42.6013790" lon="-8.6429590">
        <ele>25.8</ele>
        <time>2021-05-22T12:20:27Z</time>
      </trkpt>
      <trkpt lat="42.6013850" lon="-8.6429550">
        <ele>25.8</ele>
        <time>2021-05-22T12:20:28Z</time>
      </trkpt>
      <trkpt lat="42.6013960" lon="-8.6429450">
        <ele>25.8</ele>
        <time>2021-05-22T12:20:29Z</time>
      </trkpt>
      <trkpt lat="42.6014060" lon="-8.6429370">
        <ele>25.8</ele>
        <time>2021-05-22T12:20:30Z</time>
      </trkpt>
      <trkpt lat="42.6014150" lon="-8.6429270">
        <ele>25.7</ele>
        <time>2021-05-22T12:20:31Z</time>
      </trkpt>
      <trkpt lat="42.6014240" lon="-8.6429160">
        <ele>25.7</ele>
        <time>2021-05-22T12:20:32Z</time>
      </trkpt>
      <trkpt lat="42.6014270" lon="-8.6429080">
        <ele>25.7</ele>
        <time>2021-05-22T12:20:33Z</time>
      </trkpt>
      <trkpt lat="42.6014410" lon="-8.6428970">
        <ele>25.6</ele>
        <time>2021-05-22T12:20:34Z</time>
      </trkpt>
      <trkpt lat="42.6014490" lon="-8.6428840">
        <ele>25.6</ele>
        <time>2021-05-22T12:20:35Z</time>
      </trkpt>
      <trkpt lat="42.6014650" lon="-8.6428680">
        <ele>25.6</ele>
        <time>2021-05-22T12:20:36Z</time>
      </trkpt>
      <trkpt lat="42.6014710" lon="-8.6428620">
        <ele>25.5</ele>
        <time>2021-05-22T12:20:37Z</time>
      </trkpt>
      <trkpt lat="42.6014780" lon="-8.6428550">
        <ele>25.5</ele>
        <time>2021-05-22T12:20:38Z</time>
      </trkpt>
      <trkpt lat="42.6014840" lon="-8.6428480">
        <ele>25.5</ele>
        <time>2021-05-22T12:20:39Z</time>
      </trkpt>
      <trkpt lat="42.6014980" lon="-8.6428240">
        <ele>25.4</ele>
        <time>2021-05-22T12:20:40Z</time>
      </trkpt>
      <trkpt lat="42.6015020" lon="-8.6428160">
        <ele>25.4</ele>
        <time>2021-05-22T12:20:41Z</time>
      </trkpt>
      <trkpt lat="42.6015060" lon="-8.6428080">
        <ele>25.4</ele>
        <time>2021-05-22T12:20:42Z</time>
      </trkpt>
      <trkpt lat="42.6015150" lon="-8.6428050">
        <ele>25.4</ele>
        <time>2021-05-22T12:20:43Z</time>
      </trkpt>
      <trkpt lat="42.6015190" lon="-8.6428000">
        <ele>25.4</ele>
        <time>2021-05-22T12:20:44Z</time>
      </trkpt>
      <trkpt lat="42.6015160" lon="-8.6428010">
        <ele>25.4</ele>
        <time>2021-05-22T12:20:45Z</time>
      </trkpt>
      <trkpt lat="42.6015170" lon="-8.6428020">
        <ele>25.4</ele>
        <time>2021-05-22T12:20:46Z</time>
      </trkpt>
      <trkpt lat="42.6015220" lon="-8.6427910">
        <ele>25.4</ele>
        <time>2021-05-22T12:20:47Z</time>
      </trkpt>
      <trkpt lat="42.6015360" lon="-8.6427960">
        <ele>25.3</ele>
        <time>2021-05-22T12:20:48Z</time>
      </trkpt>
      <trkpt lat="42.6015500" lon="-8.6427780">
        <ele>25.3</ele>
        <time>2021-05-22T12:20:49Z</time>
      </trkpt>
      <trkpt lat="42.6015560" lon="-8.6427650">
        <ele>25.3</ele>
        <time>2021-05-22T12:20:50Z</time>
      </trkpt>
      <trkpt lat="42.6015620" lon="-8.6427510">
        <ele>25.2</ele>
        <time>2021-05-22T12:20:51Z</time>
      </trkpt>
      <trkpt lat="42.6015770" lon="-8.6427520">
        <ele>25.2</ele>
        <time>2021-05-22T12:20:52Z</time>
      </trkpt>
      <trkpt lat="42.6015890" lon="-8.6427500">
        <ele>25.2</ele>
        <time>2021-05-22T12:20:53Z</time>
      </trkpt>
      <trkpt lat="42.6016050" lon="-8.6427420">
        <ele>25.2</ele>
        <time>2021-05-22T12:20:54Z</time>
      </trkpt>
      <trkpt lat="42.6016120" lon="-8.6427360">
        <ele>25.1</ele>
        <time>2021-05-22T12:20:55Z</time>
      </trkpt>
      <trkpt lat="42.6016180" lon="-8.6427300">
        <ele>25.1</ele>
        <time>2021-05-22T12:20:56Z</time>
      </trkpt>
      <trkpt lat="42.6016250" lon="-8.6427240">
        <ele>25.1</ele>
        <time>2021-05-22T12:20:57Z</time>
      </trkpt>
      <trkpt lat="42.6016390" lon="-8.6427060">
        <ele>25.1</ele>
        <time>2021-05-22T12:20:58Z</time>
      </trkpt>
      <trkpt lat="42.6016420" lon="-8.6427000">
        <ele>25.1</ele>
        <time>2021-05-22T12:20:59Z</time>
      </trkpt>
      <trkpt lat="42.6016520" lon="-8.6427000">
        <ele>25.0</ele>
        <time>2021-05-22T12:21:00Z</time>
      </trkpt>
      <trkpt lat="42.6016690" lon="-8.6427000">
        <ele>25.0</ele>
        <time>2021-05-22T12:21:01Z</time>
      </trkpt>
      <trkpt lat="42.6016760" lon="-8.6426950">
        <ele>25.0</ele>
        <time>2021-05-22T12:21:02Z</time>
      </trkpt>
      <trkpt lat="42.6016870" lon="-8.6426920">
        <ele>25.0</ele>
        <time>2021-05-22T12:21:03Z</time>
      </trkpt>
      <trkpt lat="42.6017020" lon="-8.6426740">
        <ele>24.9</ele>
        <time>2021-05-22T12:21:04Z</time>
      </trkpt>
      <trkpt lat="42.6017090" lon="-8.6426660">
        <ele>24.9</ele>
        <time>2021-05-22T12:21:05Z</time>
      </trkpt>
      <trkpt lat="42.6017160" lon="-8.6426580">
        <ele>24.9</ele>
        <time>2021-05-22T12:21:06Z</time>
      </trkpt>
      <trkpt lat="42.6017380" lon="-8.6426430">
        <ele>24.8</ele>
        <time>2021-05-22T12:21:07Z</time>
      </trkpt>
      <trkpt lat="42.6017440" lon="-8.6426370">
        <ele>24.8</ele>
        <time>2021-05-22T12:21:08Z</time>
      </trkpt>
      <trkpt lat="42.6017510" lon="-8.6426300">
        <ele>24.8</ele>
        <time>2021-05-22T12:21:09Z</time>
      </trkpt>
      <trkpt lat="42.6017570" lon="-8.6426230">
        <ele>24.8</ele>
        <time>2021-05-22T12:21:10Z</time>
      </trkpt>
      <trkpt lat="42.6017630" lon="-8.6426030">
        <ele>24.8</ele>
        <time>2021-05-22T12:21:11Z</time>
      </trkpt>
      <trkpt lat="42.6017800" lon="-8.6426060">
        <ele>24.8</ele>
        <time>2021-05-22T12:21:12Z</time>
      </trkpt>
      <trkpt lat="42.6017850" lon="-8.6426110">
        <ele>24.8</ele>
        <time>2021-05-22T12:21:13Z</time>
      </trkpt>
      <trkpt lat="42.6017920" lon="-8.6426000">
        <ele>24.7</ele>
        <time>2021-05-22T12:21:14Z</time>
      </trkpt>
      <trkpt lat="42.6017950" lon="-8.6425930">
        <ele>24.7</ele>
        <time>2021-05-22T12:21:15Z</time>
      </trkpt>
      <trkpt lat="42.6018120" lon="-8.6425880">
        <ele>24.7</ele>
        <time>2021-05-22T12:21:16Z</time>
      </trkpt>
      <trkpt lat="42.6018190" lon="-8.6425770">
        <ele>24.7</ele>
        <time>2021-05-22T12:21:17Z</time>
      </trkpt>
      <trkpt lat="42.6018220" lon="-8.6425760">
        <ele>24.7</ele>
        <time>2021-05-22T12:21:18Z</time>
      </trkpt>
      <trkpt lat="42.6018390" lon="-8.6425730">
        <ele>24.7</ele>
        <time>2021-05-22T12:21:19Z</time>
      </trkpt>
      <trkpt lat="42.6018490" lon="-8.6425760">
        <ele>24.7</ele>
        <time>2021-05-22T12:21:20Z</time>
      </trkpt>
      <trkpt lat="42.6018650" lon="-8.6425730">
        <ele>24.7</ele>
        <time>2021-05-22T12:21:21Z</time>
      </trkpt>
      <trkpt lat="42.6018730" lon="-8.6425680">
        <ele>24.6</ele>
        <time>2021-05-22T12:21:22Z</time>
      </trkpt>
      <trkpt lat="42.6018930" lon="-8.6425730">
        <ele>24.6</ele>
        <time>2021-05-22T12:21:23Z</time>
      </trkpt>
      <trkpt lat="42.6018970" lon="-8.6425680">
        <ele>24.6</ele>
        <time>2021-05-22T12:21:24Z</time>
      </trkpt>
      <trkpt lat="42.6019080" lon="-8.6425570">
        <ele>24.6</ele>
        <time>2021-05-22T12:21:25Z</time>
      </trkpt>
      <trkpt lat="42.6019130" lon="-8.6425550">
        <ele>24.6</ele>
        <time>2021-05-22T12:21:26Z</time>
      </trkpt>
      <trkpt lat="42.6019230" lon="-8.6425580">
        <ele>24.6</ele>
        <time>2021-05-22T12:21:27Z</time>
      </trkpt>
      <trkpt lat="42.6019350" lon="-8.6425480">
        <ele>24.6</ele>
        <time>2021-05-22T12:21:28Z</time>
      </trkpt>
      <trkpt lat="42.6019470" lon="-8.6425410">
        <ele>24.6</ele>
        <time>2021-05-22T12:21:29Z</time>
      </trkpt>
      <trkpt lat="42.6019500" lon="-8.6425330">
        <ele>24.6</ele>
        <time>2021-05-22T12:21:30Z</time>
      </trkpt>
      <trkpt lat="42.6019640" lon="-8.6425280">
        <ele>24.6</ele>
        <time>2021-05-22T12:21:31Z</time>
      </trkpt>
      <trkpt lat="42.6019820" lon="-8.6425220">
        <ele>24.6</ele>
        <time>2021-05-22T12:21:32Z</time>
      </trkpt>
      <trkpt lat="42.6019870" lon="-8.6425270">
        <ele>24.5</ele>
        <time>2021-05-22T12:21:33Z</time>
      </trkpt>
      <trkpt lat="42.6019980" lon="-8.6425210">
        <ele>24.5</ele>
        <time>2021-05-22T12:21:34Z</time>
      </trkpt>
      <trkpt lat="42.6020040" lon="-8.6425150">
        <ele>24.5</ele>
        <time>2021-05-22T12:21:35Z</time>
      </trkpt>
      <trkpt lat="42.6020120" lon="-8.6425100">
        <ele>24.5</ele>
        <time>2021-05-22T12:21:36Z</time>
      </trkpt>
      <trkpt lat="42.6020210" lon="-8.6424950">
        <ele>24.5</ele>
        <time>2021-05-22T12:21:37Z</time>
      </trkpt>
      <trkpt lat="42.6020350" lon="-8.6424970">
        <ele>24.5</ele>
        <time>2021-05-22T12:21:38Z</time>
      </trkpt>
      <trkpt lat="42.6020540" lon="-8.6425010">
        <ele>24.5</ele>
        <time>2021-05-22T12:21:39Z</time>
      </trkpt>
      <trkpt lat="42.6020730" lon="-8.6425000">
        <ele>24.5</ele>
        <time>2021-05-22T12:21:40Z</time>
      </trkpt>
      <trkpt lat="42.6020830" lon="-8.6424960">
        <ele>24.4</ele>
        <time>2021-05-22T12:21:41Z</time>
      </trkpt>
      <trkpt lat="42.6020940" lon="-8.6424920">
        <ele>24.4</ele>
        <time>2021-05-22T12:21:42Z</time>
      </trkpt>
      <trkpt lat="42.6021090" lon="-8.6424890">
        <ele>24.4</ele>
        <time>2021-05-22T12:21:43Z</time>
      </trkpt>
      <trkpt lat="42.6021190" lon="-8.6424960">
        <ele>24.4</ele>
        <time>2021-05-22T12:21:44Z</time>
      </trkpt>
      <trkpt lat="42.6021270" lon="-8.6424850">
        <ele>24.4</ele>
        <time>2021-05-22T12:21:45Z</time>
      </trkpt>
      <trkpt lat="42.6021530" lon="-8.6424880">
        <ele>24.4</ele>
        <time>2021-05-22T12:21:46Z</time>
      </trkpt>
      <trkpt lat="42.6021640" lon="-8.6424900">
        <ele>24.4</ele>
        <time>2021-05-22T12:21:47Z</time>
      </trkpt>
      <trkpt lat="42.6021760" lon="-8.6424910">
        <ele>24.4</ele>
        <time>2021-05-22T12:21:48Z</time>
      </trkpt>
      <trkpt lat="42.6021790" lon="-8.6424830">
        <ele>24.4</ele>
        <time>2021-05-22T12:21:49Z</time>
      </trkpt>
      <trkpt lat="42.6021920" lon="-8.6424760">
        <ele>24.4</ele>
        <time>2021-05-22T12:21:50Z</time>
      </trkpt>
      <trkpt lat="42.6022050" lon="-8.6424690">
        <ele>24.4</ele>
        <time>2021-05-22T12:21:51Z</time>
      </trkpt>
      <trkpt lat="42.6022150" lon="-8.6424720">
        <ele>24.4</ele>
        <time>2021-05-22T12:21:52Z</time>
      </trkpt>
      <trkpt lat="42.6022230" lon="-8.6424660">
        <ele>24.4</ele>
        <time>2021-05-22T12:21:53Z</time>
      </trkpt>
      <trkpt lat="42.6022340" lon="-8.6424650">
        <ele>24.4</ele>
        <time>2021-05-22T12:21:54Z</time>
      </trkpt>
      <trkpt lat="42.6022570" lon="-8.6424560">
        <ele>24.4</ele>
        <time>2021-05-22T12:21:55Z</time>
      </trkpt>
      <trkpt lat="42.6022660" lon="-8.6424540">
        <ele>24.4</ele>
        <time>2021-05-22T12:21:56Z</time>
      </trkpt>
      <trkpt lat="42.6022740" lon="-8.6424530">
        <ele>24.4</ele>
        <time>2021-05-22T12:21:57Z</time>
      </trkpt>
      <trkpt lat="42.6022800" lon="-8.6424600">
        <ele>24.4</ele>
        <time>2021-05-22T12:21:58Z</time>
      </trkpt>
      <trkpt lat="42.6023020" lon="-8.6424630">
        <ele>24.4</ele>
        <time>2021-05-22T12:21:59Z</time>
      </trkpt>
      <trkpt lat="42.6023280" lon="-8.6424660">
        <ele>24.4</ele>
        <time>2021-05-22T12:22:00Z</time>
      </trkpt>
      <trkpt lat="42.6023400" lon="-8.6424680">
        <ele>24.4</ele>
        <time>2021-05-22T12:22:01Z</time>
      </trkpt>
      <trkpt lat="42.6023490" lon="-8.6424620">
        <ele>24.4</ele>
        <time>2021-05-22T12:22:02Z</time>
      </trkpt>
      <trkpt lat="42.6023570" lon="-8.6424590">
        <ele>24.4</ele>
        <time>2021-05-22T12:22:03Z</time>
      </trkpt>
      <trkpt lat="42.6023710" lon="-8.6424580">
        <ele>24.4</ele>
        <time>2021-05-22T12:22:04Z</time>
      </trkpt>
      <trkpt lat="42.6023760" lon="-8.6424490">
        <ele>24.4</ele>
        <time>2021-05-22T12:22:05Z</time>
      </trkpt>
      <trkpt lat="42.6023900" lon="-8.6424520">
        <ele>24.4</ele>
        <time>2021-05-22T12:22:06Z</time>
      </trkpt>
      <trkpt lat="42.6023990" lon="-8.6424520">
        <ele>24.4</ele>
        <time>2021-05-22T12:22:07Z</time>
      </trkpt>
      <trkpt lat="42.6024200" lon="-8.6424470">
        <ele>24.4</ele>
        <time>2021-05-22T12:22:08Z</time>
      </trkpt>
      <trkpt lat="42.6024310" lon="-8.6424430">
        <ele>24.4</ele>
        <time>2021-05-22T12:22:09Z</time>
      </trkpt>
      <trkpt lat="42.6024410" lon="-8.6424390">
        <ele>24.4</ele>
        <time>2021-05-22T12:22:10Z</time>
      </trkpt>
      <trkpt lat="42.6024510" lon="-8.6424420">
        <ele>24.4</ele>
        <time>2021-05-22T12:22:11Z</time>
      </trkpt>
      <trkpt lat="42.6024640" lon="-8.6424380">
        <ele>24.4</ele>
        <time>2021-05-22T12:22:12Z</time>
      </trkpt>
      <trkpt lat="42.6024700" lon="-8.6424390">
        <ele>24.4</ele>
        <time>2021-05-22T12:22:13Z</time>
      </trkpt>
      <trkpt lat="42.6024860" lon="-8.6424350">
        <ele>24.4</ele>
        <time>2021-05-22T12:22:14Z</time>
      </trkpt>
      <trkpt lat="42.6024950" lon="-8.6424330">
        <ele>24.4</ele>
        <time>2021-05-22T12:22:15Z</time>
      </trkpt>
      <trkpt lat="42.6025050" lon="-8.6424310">
        <ele>24.4</ele>
        <time>2021-05-22T12:22:16Z</time>
      </trkpt>
      <trkpt lat="42.6025140" lon="-8.6424290">
        <ele>24.4</ele>
        <time>2021-05-22T12:22:17Z</time>
      </trkpt>
      <trkpt lat="42.6025230" lon="-8.6424270">
        <ele>24.4</ele>
        <time>2021-05-22T12:22:18Z</time>
      </trkpt>
      <trkpt lat="42.6025310" lon="-8.6424220">
        <ele>24.4</ele>
        <time>2021-05-22T12:22:19Z</time>
      </trkpt>
      <trkpt lat="42.6025430" lon="-8.6424210">
        <ele>24.4</ele>
        <time>2021-05-22T12:22:20Z</time>
      </trkpt>
      <trkpt lat="42.6025620" lon="-8.6424170">
        <ele>24.4</ele>
        <time>2021-05-22T12:22:21Z</time>
      </trkpt>
      <trkpt lat="42.6025730" lon="-8.6424060">
        <ele>24.5</ele>
        <time>2021-05-22T12:22:22Z</time>
      </trkpt>
      <trkpt lat="42.6025930" lon="-8.6423990">
        <ele>24.5</ele>
        <time>2021-05-22T12:22:23Z</time>
      </trkpt>
      <trkpt lat="42.6026010" lon="-8.6423980">
        <ele>24.5</ele>
        <time>2021-05-22T12:22:24Z</time>
      </trkpt>
      <trkpt lat="42.6026100" lon="-8.6423970">
        <ele>24.5</ele>
        <time>2021-05-22T12:22:25Z</time>
      </trkpt>
      <trkpt lat="42.6026270" lon="-8.6423950">
        <ele>24.5</ele>
        <time>2021-05-22T12:22:26Z</time>
      </trkpt>
      <trkpt lat="42.6026370" lon="-8.6423870">
        <ele>24.5</ele>
        <time>2021-05-22T12:22:27Z</time>
      </trkpt>
      <trkpt lat="42.6026500" lon="-8.6423880">
        <ele>24.5</ele>
        <time>2021-05-22T12:22:28Z</time>
      </trkpt>
      <trkpt lat="42.6026680" lon="-8.6423820">
        <ele>24.5</ele>
        <time>2021-05-22T12:22:29Z</time>
      </trkpt>
      <trkpt lat="42.6026780" lon="-8.6423770">
        <ele>24.5</ele>
        <time>2021-05-22T12:22:30Z</time>
      </trkpt>
      <trkpt lat="42.6026980" lon="-8.6423750">
        <ele>24.5</ele>
        <time>2021-05-22T12:22:31Z</time>
      </trkpt>
      <trkpt lat="42.6027180" lon="-8.6423630">
        <ele>24.6</ele>
        <time>2021-05-22T12:22:32Z</time>
      </trkpt>
      <trkpt lat="42.6027260" lon="-8.6423620">
        <ele>24.6</ele>
        <time>2021-05-22T12:22:33Z</time>
      </trkpt>
      <trkpt lat="42.6027340" lon="-8.6423620">
        <ele>24.6</ele>
        <time>2021-05-22T12:22:34Z</time>
      </trkpt>
      <trkpt lat="42.6027440" lon="-8.6423560">
        <ele>24.6</ele>
        <time>2021-05-22T12:22:35Z</time>
      </trkpt>
      <trkpt lat="42.6027630" lon="-8.6423660">
        <ele>24.6</ele>
        <time>2021-05-22T12:22:36Z</time>
      </trkpt>
      <trkpt lat="42.6027770" lon="-8.6423900">
        <ele>24.6</ele>
        <time>2021-05-22T12:22:37Z</time>
      </trkpt>
      <trkpt lat="42.6027860" lon="-8.6424000">
        <ele>24.6</ele>
        <time>2021-05-22T12:22:38Z</time>
      </trkpt>
      <trkpt lat="42.6027940" lon="-8.6424090">
        <ele>24.6</ele>
        <time>2021-05-22T12:22:39Z</time>
      </trkpt>
      <trkpt lat="42.6028030" lon="-8.6424190">
        <ele>24.6</ele>
        <time>2021-05-22T12:22:40Z</time>
      </trkpt>
      <trkpt lat="42.6028150" lon="-8.6424270">
        <ele>24.6</ele>
        <time>2021-05-22T12:22:41Z</time>
      </trkpt>
      <trkpt lat="42.6028260" lon="-8.6424330">
        <ele>24.7</ele>
        <time>2021-05-22T12:22:42Z</time>
      </trkpt>
      <trkpt lat="42.6028340" lon="-8.6424360">
        <ele>24.7</ele>
        <time>2021-05-22T12:22:43Z</time>
      </trkpt>
      <trkpt lat="42.6028430" lon="-8.6424340">
        <ele>24.7</ele>
        <time>2021-05-22T12:22:44Z</time>
      </trkpt>
      <trkpt lat="42.6028610" lon="-8.6424400">
        <ele>24.7</ele>
        <time>2021-05-22T12:22:45Z</time>
      </trkpt>
      <trkpt lat="42.6028550" lon="-8.6424420">
        <ele>24.7</ele>
        <time>2021-05-22T12:22:46Z</time>
      </trkpt>
      <trkpt lat="42.6028680" lon="-8.6424410">
        <ele>24.7</ele>
        <time>2021-05-22T12:22:47Z</time>
      </trkpt>
      <trkpt lat="42.6028730" lon="-8.6424380">
        <ele>24.7</ele>
        <time>2021-05-22T12:22:48Z</time>
      </trkpt>
      <trkpt lat="42.6028900" lon="-8.6424400">
        <ele>24.7</ele>
        <time>2021-05-22T12:22:49Z</time>
      </trkpt>
      <trkpt lat="42.6028980" lon="-8.6424380">
        <ele>24.7</ele>
        <time>2021-05-22T12:22:50Z</time>
      </trkpt>
      <trkpt lat="42.6029030" lon="-8.6424400">
        <ele>24.7</ele>
        <time>2021-05-22T12:22:51Z</time>
      </trkpt>
      <trkpt lat="42.6029130" lon="-8.6424520">
        <ele>24.7</ele>
        <time>2021-05-22T12:22:52Z</time>
      </trkpt>
      <trkpt lat="42.6029150" lon="-8.6424530">
        <ele>24.7</ele>
        <time>2021-05-22T12:22:53Z</time>
      </trkpt>
      <trkpt lat="42.6029130" lon="-8.6424510">
        <ele>24.7</ele>
        <time>2021-05-22T12:22:54Z</time>
      </trkpt>
      <trkpt lat="42.6029230" lon="-8.6424560">
        <ele>24.7</ele>
        <time>2021-05-22T12:22:55Z</time>
      </trkpt>
      <trkpt lat="42.6029330" lon="-8.6424450">
        <ele>24.8</ele>
        <time>2021-05-22T12:22:56Z</time>
      </trkpt>
      <trkpt lat="42.6029410" lon="-8.6424390">
        <ele>24.8</ele>
        <time>2021-05-22T12:22:57Z</time>
      </trkpt>
      <trkpt lat="42.6029560" lon="-8.6424350">
        <ele>24.8</ele>
        <time>2021-05-22T12:22:58Z</time>
      </trkpt>
      <trkpt lat="42.6029760" lon="-8.6424330">
        <ele>24.8</ele>
        <time>2021-05-22T12:22:59Z</time>
      </trkpt>
      <trkpt lat="42.6030080" lon="-8.6424290">
        <ele>24.8</ele>
        <time>2021-05-22T12:23:00Z</time>
      </trkpt>
      <trkpt lat="42.6030160" lon="-8.6424270">
        <ele>24.8</ele>
        <time>2021-05-22T12:23:01Z</time>
      </trkpt>
      <trkpt lat="42.6030290" lon="-8.6424240">
        <ele>24.8</ele>
        <time>2021-05-22T12:23:02Z</time>
      </trkpt>
      <trkpt lat="42.6030430" lon="-8.6424230">
        <ele>24.8</ele>
        <time>2021-05-22T12:23:03Z</time>
      </trkpt>
      <trkpt lat="42.6030550" lon="-8.6424110">
        <ele>24.9</ele>
        <time>2021-05-22T12:23:04Z</time>
      </trkpt>
      <trkpt lat="42.6030710" lon="-8.6424140">
        <ele>24.9</ele>
        <time>2021-05-22T12:23:05Z</time>
      </trkpt>
      <trkpt lat="42.6030910" lon="-8.6424080">
        <ele>24.9</ele>
        <time>2021-05-22T12:23:06Z</time>
      </trkpt>
      <trkpt lat="42.6030990" lon="-8.6424060">
        <ele>24.9</ele>
        <time>2021-05-22T12:23:07Z</time>
      </trkpt>
      <trkpt lat="42.6031070" lon="-8.6424040">
        <ele>24.9</ele>
        <time>2021-05-22T12:23:08Z</time>
      </trkpt>
      <trkpt lat="42.6031140" lon="-8.6424010">
        <ele>24.9</ele>
        <time>2021-05-22T12:23:09Z</time>
      </trkpt>
      <trkpt lat="42.6031250" lon="-8.6424000">
        <ele>24.9</ele>
        <time>2021-05-22T12:23:10Z</time>
      </trkpt>
      <trkpt lat="42.6031360" lon="-8.6423940">
        <ele>24.9</ele>
        <time>2021-05-22T12:23:11Z</time>
      </trkpt>
      <trkpt lat="42.6031440" lon="-8.6423930">
        <ele>24.9</ele>
        <time>2021-05-22T12:23:12Z</time>
      </trkpt>
      <trkpt lat="42.6031570" lon="-8.6423940">
        <ele>24.9</ele>
        <time>2021-05-22T12:23:13Z</time>
      </trkpt>
      <trkpt lat="42.6031630" lon="-8.6423960">
        <ele>24.9</ele>
        <time>2021-05-22T12:23:14Z</time>
      </trkpt>
      <trkpt lat="42.6031850" lon="-8.6423970">
        <ele>24.9</ele>
        <time>2021-05-22T12:23:15Z</time>
      </trkpt>
      <trkpt lat="42.6031930" lon="-8.6424030">
        <ele>24.9</ele>
        <time>2021-05-22T12:23:16Z</time>
      </trkpt>
      <trkpt lat="42.6032000" lon="-8.6424090">
        <ele>24.9</ele>
        <time>2021-05-22T12:23:17Z</time>
      </trkpt>
      <trkpt lat="42.6031990" lon="-8.6424130">
        <ele>24.9</ele>
        <time>2021-05-22T12:23:18Z</time>
      </trkpt>
      <trkpt lat="42.6032040" lon="-8.6424110">
        <ele>24.9</ele>
        <time>2021-05-22T12:23:19Z</time>
      </trkpt>
      <trkpt lat="42.6032080" lon="-8.6424100">
        <ele>24.9</ele>
        <time>2021-05-22T12:23:20Z</time>
      </trkpt>
      <trkpt lat="42.6032120" lon="-8.6424090">
        <ele>24.9</ele>
        <time>2021-05-22T12:23:21Z</time>
      </trkpt>
      <trkpt lat="42.6032170" lon="-8.6424080">
        <ele>24.9</ele>
        <time>2021-05-22T12:23:22Z</time>
      </trkpt>
      <trkpt lat="42.6032210" lon="-8.6424060">
        <ele>24.9</ele>
        <time>2021-05-22T12:23:23Z</time>
      </trkpt>
      <trkpt lat="42.6032250" lon="-8.6424050">
        <ele>24.9</ele>
        <time>2021-05-22T12:23:24Z</time>
      </trkpt>
      <trkpt lat="42.6032290" lon="-8.6424040">
        <ele>24.9</ele>
        <time>2021-05-22T12:23:25Z</time>
      </trkpt>
      <trkpt lat="42.6032340" lon="-8.6424020">
        <ele>24.9</ele>
        <time>2021-05-22T12:23:26Z</time>
      </trkpt>
      <trkpt lat="42.6032380" lon="-8.6424010">
        <ele>24.9</ele>
        <time>2021-05-22T12:23:27Z</time>
      </trkpt>
      <trkpt lat="42.6032450" lon="-8.6424180">
        <ele>24.9</ele>
        <time>2021-05-22T12:23:28Z</time>
      </trkpt>
      <trkpt lat="42.6032510" lon="-8.6424270">
        <ele>24.9</ele>
        <time>2021-05-22T12:23:29Z</time>
      </trkpt>
      <trkpt lat="42.6032570" lon="-8.6424300">
        <ele>24.9</ele>
        <time>2021-05-22T12:23:30Z</time>
      </trkpt>
      <trkpt lat="42.6032720" lon="-8.6424280">
        <ele>24.9</ele>
        <time>2021-05-22T12:23:31Z</time>
      </trkpt>
      <trkpt lat="42.6032770" lon="-8.6424260">
        <ele>24.9</ele>
        <time>2021-05-22T12:23:32Z</time>
      </trkpt>
      <trkpt lat="42.6032770" lon="-8.6424270">
        <ele>24.9</ele>
        <time>2021-05-22T12:23:33Z</time>
      </trkpt>
      <trkpt lat="42.6032800" lon="-8.6424320">
        <ele>24.6</ele>
        <time>2021-05-22T12:23:34Z</time>
      </trkpt>
      <trkpt lat="42.6032850" lon="-8.6424360">
        <ele>24.6</ele>
        <time>2021-05-22T12:23:35Z</time>
      </trkpt>
      <trkpt lat="42.6033000" lon="-8.6424330">
        <ele>24.6</ele>
        <time>2021-05-22T12:23:36Z</time>
      </trkpt>
      <trkpt lat="42.6033030" lon="-8.6424250">
        <ele>24.5</ele>
        <time>2021-05-22T12:23:37Z</time>
      </trkpt>
      <trkpt lat="42.6033170" lon="-8.6424260">
        <ele>24.5</ele>
        <time>2021-05-22T12:23:38Z</time>
      </trkpt>
      <trkpt lat="42.6033170" lon="-8.6424250">
        <ele>24.5</ele>
        <time>2021-05-22T12:23:39Z</time>
      </trkpt>
      <trkpt lat="42.6033150" lon="-8.6424240">
        <ele>24.5</ele>
        <time>2021-05-22T12:23:40Z</time>
      </trkpt>
      <trkpt lat="42.6033140" lon="-8.6424280">
        <ele>24.4</ele>
        <time>2021-05-22T12:23:41Z</time>
      </trkpt>
      <trkpt lat="42.6033140" lon="-8.6424340">
        <ele>24.4</ele>
        <time>2021-05-22T12:23:42Z</time>
      </trkpt>
      <trkpt lat="42.6033130" lon="-8.6424330">
        <ele>24.4</ele>
        <time>2021-05-22T12:23:43Z</time>
      </trkpt>
      <trkpt lat="42.6033130" lon="-8.6424290">
        <ele>24.4</ele>
        <time>2021-05-22T12:23:44Z</time>
      </trkpt>
      <trkpt lat="42.6033120" lon="-8.6424260">
        <ele>24.4</ele>
        <time>2021-05-22T12:23:45Z</time>
      </trkpt>
      <trkpt lat="42.6033110" lon="-8.6424230">
        <ele>24.4</ele>
        <time>2021-05-22T12:23:46Z</time>
      </trkpt>
      <trkpt lat="42.6033140" lon="-8.6424280">
        <ele>24.4</ele>
        <time>2021-05-22T12:23:47Z</time>
      </trkpt>
      <trkpt lat="42.6033160" lon="-8.6424300">
        <ele>24.4</ele>
        <time>2021-05-22T12:23:48Z</time>
      </trkpt>
      <trkpt lat="42.6033170" lon="-8.6424280">
        <ele>24.3</ele>
        <time>2021-05-22T12:23:49Z</time>
      </trkpt>
      <trkpt lat="42.6033180" lon="-8.6424310">
        <ele>24.3</ele>
        <time>2021-05-22T12:23:50Z</time>
      </trkpt>
      <trkpt lat="42.6033150" lon="-8.6424260">
        <ele>24.3</ele>
        <time>2021-05-22T12:23:51Z</time>
      </trkpt>
      <trkpt lat="42.6033070" lon="-8.6424330">
        <ele>24.3</ele>
        <time>2021-05-22T12:23:52Z</time>
      </trkpt>
      <trkpt lat="42.6033140" lon="-8.6424320">
        <ele>24.2</ele>
        <time>2021-05-22T12:23:53Z</time>
      </trkpt>
      <trkpt lat="42.6033050" lon="-8.6424320">
        <ele>24.2</ele>
        <time>2021-05-22T12:23:54Z</time>
      </trkpt>
      <trkpt lat="42.6033060" lon="-8.6424310">
        <ele>24.2</ele>
        <time>2021-05-22T12:23:55Z</time>
      </trkpt>
      <trkpt lat="42.6033080" lon="-8.6424350">
        <ele>24.2</ele>
        <time>2021-05-22T12:23:56Z</time>
      </trkpt>
      <trkpt lat="42.6033050" lon="-8.6424350">
        <ele>24.2</ele>
        <time>2021-05-22T12:23:57Z</time>
      </trkpt>
      <trkpt lat="42.6033030" lon="-8.6424360">
        <ele>24.2</ele>
        <time>2021-05-22T12:23:58Z</time>
      </trkpt>
      <trkpt lat="42.6033020" lon="-8.6424390">
        <ele>24.2</ele>
        <time>2021-05-22T12:23:59Z</time>
      </trkpt>
      <trkpt lat="42.6033010" lon="-8.6424360">
        <ele>24.1</ele>
        <time>2021-05-22T12:24:00Z</time>
      </trkpt>
      <trkpt lat="42.6033010" lon="-8.6424350">
        <ele>24.1</ele>
        <time>2021-05-22T12:24:01Z</time>
      </trkpt>
      <trkpt lat="42.6033020" lon="-8.6424360">
        <ele>24.1</ele>
        <time>2021-05-22T12:24:02Z</time>
      </trkpt>
      <trkpt lat="42.6032980" lon="-8.6424370">
        <ele>24.1</ele>
        <time>2021-05-22T12:24:03Z</time>
      </trkpt>
      <trkpt lat="42.6033000" lon="-8.6424380">
        <ele>24.1</ele>
        <time>2021-05-22T12:24:04Z</time>
      </trkpt>
      <trkpt lat="42.6033020" lon="-8.6424380">
        <ele>24.1</ele>
        <time>2021-05-22T12:24:05Z</time>
      </trkpt>
      <trkpt lat="42.6032970" lon="-8.6424400">
        <ele>24.1</ele>
        <time>2021-05-22T12:24:06Z</time>
      </trkpt>
      <trkpt lat="42.6032910" lon="-8.6424390">
        <ele>24.0</ele>
        <time>2021-05-22T12:24:07Z</time>
      </trkpt>
      <trkpt lat="42.6032880" lon="-8.6424410">
        <ele>24.0</ele>
        <time>2021-05-22T12:24:08Z</time>
      </trkpt>
      <trkpt lat="42.6032830" lon="-8.6424450">
        <ele>24.0</ele>
        <time>2021-05-22T12:24:09Z</time>
      </trkpt>
      <trkpt lat="42.6032800" lon="-8.6424430">
        <ele>24.0</ele>
        <time>2021-05-22T12:24:10Z</time>
      </trkpt>
      <trkpt lat="42.6032780" lon="-8.6424370">
        <ele>24.0</ele>
        <time>2021-05-22T12:24:11Z</time>
      </trkpt>
      <trkpt lat="42.6032710" lon="-8.6424350">
        <ele>23.9</ele>
        <time>2021-05-22T12:24:12Z</time>
      </trkpt>
      <trkpt lat="42.6032660" lon="-8.6424310">
        <ele>23.9</ele>
        <time>2021-05-22T12:24:13Z</time>
      </trkpt>
      <trkpt lat="42.6032660" lon="-8.6424320">
        <ele>23.9</ele>
        <time>2021-05-22T12:24:14Z</time>
      </trkpt>
      <trkpt lat="42.6032660" lon="-8.6424320">
        <ele>23.9</ele>
        <time>2021-05-22T12:24:15Z</time>
      </trkpt>
      <trkpt lat="42.6032610" lon="-8.6424310">
        <ele>23.9</ele>
        <time>2021-05-22T12:24:16Z</time>
      </trkpt>
      <trkpt lat="42.6032640" lon="-8.6424320">
        <ele>23.9</ele>
        <time>2021-05-22T12:24:17Z</time>
      </trkpt>
      <trkpt lat="42.6032650" lon="-8.6424350">
        <ele>23.9</ele>
        <time>2021-05-22T12:24:18Z</time>
      </trkpt>
      <trkpt lat="42.6032650" lon="-8.6424390">
        <ele>23.9</ele>
        <time>2021-05-22T12:24:19Z</time>
      </trkpt>
      <trkpt lat="42.6032650" lon="-8.6424390">
        <ele>23.9</ele>
        <time>2021-05-22T12:24:20Z</time>
      </trkpt>
      <trkpt lat="42.6032600" lon="-8.6424330">
        <ele>23.8</ele>
        <time>2021-05-22T12:24:21Z</time>
      </trkpt>
      <trkpt lat="42.6032620" lon="-8.6424310">
        <ele>23.8</ele>
        <time>2021-05-22T12:24:22Z</time>
      </trkpt>
      <trkpt lat="42.6032660" lon="-8.6424320">
        <ele>23.8</ele>
        <time>2021-05-22T12:24:23Z</time>
      </trkpt>
      <trkpt lat="42.6032670" lon="-8.6424320">
        <ele>23.8</ele>
        <time>2021-05-22T12:24:24Z</time>
      </trkpt>
      <trkpt lat="42.6032790" lon="-8.6424300">
        <ele>23.8</ele>
        <time>2021-05-22T12:24:25Z</time>
      </trkpt>
      <trkpt lat="42.6032790" lon="-8.6424290">
        <ele>23.8</ele>
        <time>2021-05-22T12:24:26Z</time>
      </trkpt>
      <trkpt lat="42.6032790" lon="-8.6424290">
        <ele>23.8</ele>
        <time>2021-05-22T12:24:27Z</time>
      </trkpt>
      <trkpt lat="42.6032800" lon="-8.6424270">
        <ele>23.8</ele>
        <time>2021-05-22T12:24:28Z</time>
      </trkpt>
      <trkpt lat="42.6032810" lon="-8.6424300">
        <ele>23.8</ele>
        <time>2021-05-22T12:24:29Z</time>
      </trkpt>
      <trkpt lat="42.6032820" lon="-8.6424360">
        <ele>23.7</ele>
        <time>2021-05-22T12:24:30Z</time>
      </trkpt>
      <trkpt lat="42.6032840" lon="-8.6424390">
        <ele>23.7</ele>
        <time>2021-05-22T12:24:31Z</time>
      </trkpt>
      <trkpt lat="42.6032840" lon="-8.6424370">
        <ele>23.7</ele>
        <time>2021-05-22T12:24:32Z</time>
      </trkpt>
      <trkpt lat="42.6032850" lon="-8.6424390">
        <ele>23.7</ele>
        <time>2021-05-22T12:24:33Z</time>
      </trkpt>
      <trkpt lat="42.6032860" lon="-8.6424470">
        <ele>23.7</ele>
        <time>2021-05-22T12:24:34Z</time>
      </trkpt>
      <trkpt lat="42.6032870" lon="-8.6424600">
        <ele>23.7</ele>
        <time>2021-05-22T12:24:35Z</time>
      </trkpt>
      <trkpt lat="42.6032880" lon="-8.6424610">
        <ele>23.7</ele>
        <time>2021-05-22T12:24:36Z</time>
      </trkpt>
      <trkpt lat="42.6032890" lon="-8.6424620">
        <ele>23.6</ele>
        <time>2021-05-22T12:24:37Z</time>
      </trkpt>
      <trkpt lat="42.6032900" lon="-8.6424630">
        <ele>23.6</ele>
        <time>2021-05-22T12:24:38Z</time>
      </trkpt>
      <trkpt lat="42.6032910" lon="-8.6424640">
        <ele>23.6</ele>
        <time>2021-05-22T12:24:39Z</time>
      </trkpt>
      <trkpt lat="42.6032920" lon="-8.6424650">
        <ele>23.6</ele>
        <time>2021-05-22T12:24:40Z</time>
      </trkpt>
      <trkpt lat="42.6032930" lon="-8.6424670">
        <ele>23.6</ele>
        <time>2021-05-22T12:24:41Z</time>
      </trkpt>
      <trkpt lat="42.6032940" lon="-8.6424680">
        <ele>23.6</ele>
        <time>2021-05-22T12:24:42Z</time>
      </trkpt>
      <trkpt lat="42.6032950" lon="-8.6424690">
        <ele>23.6</ele>
        <time>2021-05-22T12:24:43Z</time>
      </trkpt>
      <trkpt lat="42.6051340" lon="-8.6429840">
        <ele>26.1</ele>
        <time>2021-05-23T05:33:00Z</time>
      </trkpt>
      <trkpt lat="42.6051320" lon="-8.6431420">
        <ele>26.1</ele>
        <time>2021-05-23T05:33:05Z</time>
      </trkpt>
      <trkpt lat="42.6051470" lon="-8.6430990">
        <ele>26.1</ele>
        <time>2021-05-23T05:33:06Z</time>
      </trkpt>
      <trkpt lat="42.6051610" lon="-8.6430570">
        <ele>26.1</ele>
        <time>2021-05-23T05:33:07Z</time>
      </trkpt>
      <trkpt lat="42.6051750" lon="-8.6430140">
        <ele>26.1</ele>
        <time>2021-05-23T05:33:08Z</time>
      </trkpt>
      <trkpt lat="42.6051630" lon="-8.6430220">
        <ele>26.1</ele>
        <time>2021-05-23T05:33:09Z</time>
      </trkpt>
      <trkpt lat="42.6051460" lon="-8.6430210">
        <ele>26.1</ele>
        <time>2021-05-23T05:33:10Z</time>
      </trkpt>
      <trkpt lat="42.6051190" lon="-8.6430400">
        <ele>26.1</ele>
        <time>2021-05-23T05:33:11Z</time>
      </trkpt>
      <trkpt lat="42.6051120" lon="-8.6430400">
        <ele>26.1</ele>
        <time>2021-05-23T05:33:12Z</time>
      </trkpt>
      <trkpt lat="42.6050900" lon="-8.6430370">
        <ele>26.1</ele>
        <time>2021-05-23T05:33:13Z</time>
      </trkpt>
      <trkpt lat="42.6050830" lon="-8.6430240">
        <ele>26.1</ele>
        <time>2021-05-23T05:33:14Z</time>
      </trkpt>
      <trkpt lat="42.6050830" lon="-8.6430240">
        <ele>26.1</ele>
        <time>2021-05-23T05:33:15Z</time>
      </trkpt>
      <trkpt lat="42.6050660" lon="-8.6430080">
        <ele>26.1</ele>
        <time>2021-05-23T05:33:16Z</time>
      </trkpt>
      <trkpt lat="42.6050260" lon="-8.6429880">
        <ele>26.1</ele>
        <time>2021-05-23T05:33:17Z</time>
      </trkpt>
      <trkpt lat="42.6050200" lon="-8.6429770">
        <ele>26.1</ele>
        <time>2021-05-23T05:33:18Z</time>
      </trkpt>
      <trkpt lat="42.6050120" lon="-8.6429670">
        <ele>26.1</ele>
        <time>2021-05-23T05:33:19Z</time>
      </trkpt>
      <trkpt lat="42.6050040" lon="-8.6429550">
        <ele>26.1</ele>
        <time>2021-05-23T05:33:20Z</time>
      </trkpt>
      <trkpt lat="42.6049970" lon="-8.6429390">
        <ele>26.1</ele>
        <time>2021-05-23T05:33:21Z</time>
      </trkpt>
      <trkpt lat="42.6049970" lon="-8.6429390">
        <ele>26.1</ele>
        <time>2021-05-23T05:33:22Z</time>
      </trkpt>
      <trkpt lat="42.6049830" lon="-8.6429140">
        <ele>26.1</ele>
        <time>2021-05-23T05:33:23Z</time>
      </trkpt>
      <trkpt lat="42.6053370" lon="-8.6431880">
        <ele>26.1</ele>
        <time>2021-05-23T05:33:54Z</time>
      </trkpt>
      <trkpt lat="42.6053070" lon="-8.6431300">
        <ele>26.1</ele>
        <time>2021-05-23T05:33:55Z</time>
      </trkpt>
      <trkpt lat="42.6053400" lon="-8.6431850">
        <ele>26.1</ele>
        <time>2021-05-23T05:34:01Z</time>
      </trkpt>
      <trkpt lat="42.6053080" lon="-8.6431300">
        <ele>26.1</ele>
        <time>2021-05-23T05:34:02Z</time>
      </trkpt>
      <trkpt lat="42.6052980" lon="-8.6431970">
        <ele>26.1</ele>
        <time>2021-05-23T05:34:20Z</time>
      </trkpt>
      <trkpt lat="42.6052940" lon="-8.6432060">
        <ele>26.1</ele>
        <time>2021-05-23T05:34:21Z</time>
      </trkpt>
      <trkpt lat="42.6052980" lon="-8.6431130">
        <ele>26.1</ele>
        <time>2021-05-23T05:34:28Z</time>
      </trkpt>
      <trkpt lat="42.6052780" lon="-8.6430720">
        <ele>26.1</ele>
        <time>2021-05-23T05:34:29Z</time>
      </trkpt>
      <trkpt lat="42.6053000" lon="-8.6431630">
        <ele>26.1</ele>
        <time>2021-05-23T05:34:35Z</time>
      </trkpt>
      <trkpt lat="42.6053160" lon="-8.6432070">
        <ele>26.1</ele>
        <time>2021-05-23T05:34:42Z</time>
      </trkpt>
      <trkpt lat="42.6053070" lon="-8.6431730">
        <ele>26.1</ele>
        <time>2021-05-23T05:34:43Z</time>
      </trkpt>
      <trkpt lat="42.6049860" lon="-8.6429160">
        <ele>26.1</ele>
        <time>2021-05-23T05:34:46Z</time>
      </trkpt>
      <trkpt lat="42.6050160" lon="-8.6429320">
        <ele>26.1</ele>
        <time>2021-05-23T05:34:47Z</time>
      </trkpt>
      <trkpt lat="42.6050450" lon="-8.6429480">
        <ele>26.1</ele>
        <time>2021-05-23T05:34:48Z</time>
      </trkpt>
      <trkpt lat="42.6050750" lon="-8.6429640">
        <ele>26.1</ele>
        <time>2021-05-23T05:34:49Z</time>
      </trkpt>
      <trkpt lat="42.6051040" lon="-8.6429810">
        <ele>26.1</ele>
        <time>2021-05-23T05:34:50Z</time>
      </trkpt>
      <trkpt lat="42.6051340" lon="-8.6429970">
        <ele>26.1</ele>
        <time>2021-05-23T05:34:51Z</time>
      </trkpt>
      <trkpt lat="42.6051630" lon="-8.6430130">
        <ele>26.1</ele>
        <time>2021-05-23T05:34:52Z</time>
      </trkpt>
      <trkpt lat="42.6051930" lon="-8.6430290">
        <ele>26.1</ele>
        <time>2021-05-23T05:34:53Z</time>
      </trkpt>
      <trkpt lat="42.6052310" lon="-8.6429950">
        <ele>26.3</ele>
        <time>2021-05-23T05:34:54Z</time>
      </trkpt>
      <trkpt lat="42.6052450" lon="-8.6429490">
        <ele>26.4</ele>
        <time>2021-05-23T05:34:55Z</time>
      </trkpt>
      <trkpt lat="42.6052570" lon="-8.6428500">
        <ele>26.7</ele>
        <time>2021-05-23T05:34:56Z</time>
      </trkpt>
      <trkpt lat="42.6052750" lon="-8.6428230">
        <ele>26.8</ele>
        <time>2021-05-23T05:34:57Z</time>
      </trkpt>
      <trkpt lat="42.6052920" lon="-8.6427770">
        <ele>26.9</ele>
        <time>2021-05-23T05:34:58Z</time>
      </trkpt>
      <trkpt lat="42.6052970" lon="-8.6427610">
        <ele>27.0</ele>
        <time>2021-05-23T05:34:59Z</time>
      </trkpt>
      <trkpt lat="42.6053090" lon="-8.6427290">
        <ele>27.1</ele>
        <time>2021-05-23T05:35:00Z</time>
      </trkpt>
      <trkpt lat="42.6053120" lon="-8.6427200">
        <ele>27.1</ele>
        <time>2021-05-23T05:35:01Z</time>
      </trkpt>
      <trkpt lat="42.6053290" lon="-8.6426740">
        <ele>27.3</ele>
        <time>2021-05-23T05:35:02Z</time>
      </trkpt>
      <trkpt lat="42.6053450" lon="-8.6426270">
        <ele>27.4</ele>
        <time>2021-05-23T05:35:03Z</time>
      </trkpt>
      <trkpt lat="42.6053620" lon="-8.6425790">
        <ele>27.6</ele>
        <time>2021-05-23T05:35:04Z</time>
      </trkpt>
      <trkpt lat="42.6053680" lon="-8.6425620">
        <ele>27.6</ele>
        <time>2021-05-23T05:35:05Z</time>
      </trkpt>
      <trkpt lat="42.6053850" lon="-8.6425140">
        <ele>27.8</ele>
        <time>2021-05-23T05:35:06Z</time>
      </trkpt>
      <trkpt lat="42.6053910" lon="-8.6424980">
        <ele>27.9</ele>
        <time>2021-05-23T05:35:07Z</time>
      </trkpt>
      <trkpt lat="42.6054080" lon="-8.6424490">
        <ele>28.1</ele>
        <time>2021-05-23T05:35:08Z</time>
      </trkpt>
      <trkpt lat="42.6054140" lon="-8.6424330">
        <ele>28.1</ele>
        <time>2021-05-23T05:35:09Z</time>
      </trkpt>
      <trkpt lat="42.6053670" lon="-8.6423650">
        <ele>27.8</ele>
        <time>2021-05-23T05:35:10Z</time>
      </trkpt>
      <trkpt lat="42.6054270" lon="-8.6423580">
        <ele>27.6</ele>
        <time>2021-05-23T05:35:11Z</time>
      </trkpt>
      <trkpt lat="42.6053710" lon="-8.6425040">
        <ele>27.3</ele>
        <time>2021-05-23T05:35:12Z</time>
      </trkpt>
      <trkpt lat="42.6052940" lon="-8.6426740">
        <ele>26.9</ele>
        <time>2021-05-23T05:35:13Z</time>
      </trkpt>
      <trkpt lat="42.6052160" lon="-8.6428440">
        <ele>26.5</ele>
        <time>2021-05-23T05:35:14Z</time>
      </trkpt>
      <trkpt lat="42.6051390" lon="-8.6430140">
        <ele>26.1</ele>
        <time>2021-05-23T05:35:15Z</time>
      </trkpt>
      <trkpt lat="42.6051800" lon="-8.6430580">
        <ele>26.1</ele>
        <time>2021-05-23T05:35:16Z</time>
      </trkpt>
      <trkpt lat="42.6052240" lon="-8.6430490">
        <ele>26.1</ele>
        <time>2021-05-23T05:35:17Z</time>
      </trkpt>
      <trkpt lat="42.6052590" lon="-8.6430530">
        <ele>26.1</ele>
        <time>2021-05-23T05:35:18Z</time>
      </trkpt>
      <trkpt lat="42.6052590" lon="-8.6430550">
        <ele>26.1</ele>
        <time>2021-05-23T05:35:19Z</time>
      </trkpt>
      <trkpt lat="42.6052600" lon="-8.6430370">
        <ele>26.1</ele>
        <time>2021-05-23T05:35:20Z</time>
      </trkpt>
      <trkpt lat="42.6052570" lon="-8.6430260">
        <ele>26.1</ele>
        <time>2021-05-23T05:35:21Z</time>
      </trkpt>
      <trkpt lat="42.6052550" lon="-8.6430150">
        <ele>26.1</ele>
        <time>2021-05-23T05:35:22Z</time>
      </trkpt>
      <trkpt lat="42.6052610" lon="-8.6429890">
        <ele>26.1</ele>
        <time>2021-05-23T05:35:23Z</time>
      </trkpt>
      <trkpt lat="42.6052630" lon="-8.6429770">
        <ele>26.1</ele>
        <time>2021-05-23T05:35:24Z</time>
      </trkpt>
      <trkpt lat="42.6052420" lon="-8.6429820">
        <ele>26.1</ele>
        <time>2021-05-23T05:35:25Z</time>
      </trkpt>
      <trkpt lat="42.6052340" lon="-8.6429870">
        <ele>26.1</ele>
        <time>2021-05-23T05:35:26Z</time>
      </trkpt>
      <trkpt lat="42.6052240" lon="-8.6429740">
        <ele>26.1</ele>
        <time>2021-05-23T05:35:27Z</time>
      </trkpt>
      <trkpt lat="42.6052130" lon="-8.6429740">
        <ele>26.1</ele>
        <time>2021-05-23T05:35:28Z</time>
      </trkpt>
      <trkpt lat="42.6052060" lon="-8.6429560">
        <ele>26.1</ele>
        <time>2021-05-23T05:35:29Z</time>
      </trkpt>
      <trkpt lat="42.6051700" lon="-8.6429670">
        <ele>26.1</ele>
        <time>2021-05-23T05:35:30Z</time>
      </trkpt>
      <trkpt lat="42.6051560" lon="-8.6429690">
        <ele>26.1</ele>
        <time>2021-05-23T05:35:31Z</time>
      </trkpt>
      <trkpt lat="42.6051440" lon="-8.6429660">
        <ele>26.1</ele>
        <time>2021-05-23T05:35:32Z</time>
      </trkpt>
      <trkpt lat="42.6051380" lon="-8.6429630">
        <ele>26.1</ele>
        <time>2021-05-23T05:35:33Z</time>
      </trkpt>
      <trkpt lat="42.6051350" lon="-8.6429690">
        <ele>26.1</ele>
        <time>2021-05-23T05:35:34Z</time>
      </trkpt>
      <trkpt lat="42.6051210" lon="-8.6429760">
        <ele>26.1</ele>
        <time>2021-05-23T05:35:35Z</time>
      </trkpt>
      <trkpt lat="42.6051060" lon="-8.6429810">
        <ele>26.0</ele>
        <time>2021-05-23T05:35:36Z</time>
      </trkpt>
      <trkpt lat="42.6051010" lon="-8.6429830">
        <ele>26.0</ele>
        <time>2021-05-23T05:35:37Z</time>
      </trkpt>
      <trkpt lat="42.6050880" lon="-8.6429760">
        <ele>26.0</ele>
        <time>2021-05-23T05:35:38Z</time>
      </trkpt>
      <trkpt lat="42.6050830" lon="-8.6429820">
        <ele>25.9</ele>
        <time>2021-05-23T05:35:39Z</time>
      </trkpt>
      <trkpt lat="42.6050730" lon="-8.6429930">
        <ele>25.9</ele>
        <time>2021-05-23T05:35:40Z</time>
      </trkpt>
      <trkpt lat="42.6050630" lon="-8.6429970">
        <ele>25.8</ele>
        <time>2021-05-23T05:35:41Z</time>
      </trkpt>
      <trkpt lat="42.6050560" lon="-8.6430000">
        <ele>25.8</ele>
        <time>2021-05-23T05:35:42Z</time>
      </trkpt>
      <trkpt lat="42.6050520" lon="-8.6430010">
        <ele>25.8</ele>
        <time>2021-05-23T05:35:43Z</time>
      </trkpt>
      <trkpt lat="42.6050400" lon="-8.6430030">
        <ele>25.8</ele>
        <time>2021-05-23T05:35:44Z</time>
      </trkpt>
      <trkpt lat="42.6050340" lon="-8.6430110">
        <ele>25.7</ele>
        <time>2021-05-23T05:35:45Z</time>
      </trkpt>
      <trkpt lat="42.6050160" lon="-8.6430230">
        <ele>25.6</ele>
        <time>2021-05-23T05:35:46Z</time>
      </trkpt>
      <trkpt lat="42.6050100" lon="-8.6430270">
        <ele>25.6</ele>
        <time>2021-05-23T05:35:47Z</time>
      </trkpt>
      <trkpt lat="42.6050050" lon="-8.6430320">
        <ele>25.6</ele>
        <time>2021-05-23T05:35:48Z</time>
      </trkpt>
      <trkpt lat="42.6049990" lon="-8.6430360">
        <ele>25.6</ele>
        <time>2021-05-23T05:35:49Z</time>
      </trkpt>
      <trkpt lat="42.6049910" lon="-8.6430480">
        <ele>25.5</ele>
        <time>2021-05-23T05:35:50Z</time>
      </trkpt>
      <trkpt lat="42.6049840" lon="-8.6430530">
        <ele>25.5</ele>
        <time>2021-05-23T05:35:51Z</time>
      </trkpt>
      <trkpt lat="42.6049780" lon="-8.6430580">
        <ele>25.5</ele>
        <time>2021-05-23T05:35:52Z</time>
      </trkpt>
      <trkpt lat="42.6049710" lon="-8.6430630">
        <ele>25.4</ele>
        <time>2021-05-23T05:35:53Z</time>
      </trkpt>
      <trkpt lat="42.6049650" lon="-8.6430680">
        <ele>25.4</ele>
        <time>2021-05-23T05:35:54Z</time>
      </trkpt>
      <trkpt lat="42.6049580" lon="-8.6430730">
        <ele>25.4</ele>
        <time>2021-05-23T05:35:55Z</time>
      </trkpt>
      <trkpt lat="42.6049480" lon="-8.6430820">
        <ele>25.3</ele>
        <time>2021-05-23T05:35:56Z</time>
      </trkpt>
      <trkpt lat="42.6049290" lon="-8.6431000">
        <ele>25.2</ele>
        <time>2021-05-23T05:35:57Z</time>
      </trkpt>
      <trkpt lat="42.6049200" lon="-8.6431110">
        <ele>25.2</ele>
        <time>2021-05-23T05:35:58Z</time>
      </trkpt>
      <trkpt lat="42.6049080" lon="-8.6431110">
        <ele>25.1</ele>
        <time>2021-05-23T05:35:59Z</time>
      </trkpt>
      <trkpt lat="42.6049010" lon="-8.6431190">
        <ele>25.1</ele>
        <time>2021-05-23T05:36:00Z</time>
      </trkpt>
      <trkpt lat="42.6048960" lon="-8.6431340">
        <ele>25.1</ele>
        <time>2021-05-23T05:36:01Z</time>
      </trkpt>
      <trkpt lat="42.6048890" lon="-8.6431430">
        <ele>25.0</ele>
        <time>2021-05-23T05:36:02Z</time>
      </trkpt>
      <trkpt lat="42.6048810" lon="-8.6431530">
        <ele>25.0</ele>
        <time>2021-05-23T05:36:03Z</time>
      </trkpt>
      <trkpt lat="42.6048740" lon="-8.6431620">
        <ele>25.0</ele>
        <time>2021-05-23T05:36:04Z</time>
      </trkpt>
      <trkpt lat="42.6048680" lon="-8.6431680">
        <ele>25.0</ele>
        <time>2021-05-23T05:36:05Z</time>
      </trkpt>
      <trkpt lat="42.6048550" lon="-8.6431800">
        <ele>25.0</ele>
        <time>2021-05-23T05:36:06Z</time>
      </trkpt>
      <trkpt lat="42.6048450" lon="-8.6431900">
        <ele>24.9</ele>
        <time>2021-05-23T05:36:07Z</time>
      </trkpt>
      <trkpt lat="42.6048320" lon="-8.6431980">
        <ele>24.9</ele>
        <time>2021-05-23T05:36:08Z</time>
      </trkpt>
      <trkpt lat="42.6048270" lon="-8.6431990">
        <ele>24.9</ele>
        <time>2021-05-23T05:36:09Z</time>
      </trkpt>
      <trkpt lat="42.6048190" lon="-8.6432010">
        <ele>24.9</ele>
        <time>2021-05-23T05:36:10Z</time>
      </trkpt>
      <trkpt lat="42.6048100" lon="-8.6432050">
        <ele>24.9</ele>
        <time>2021-05-23T05:36:11Z</time>
      </trkpt>
      <trkpt lat="42.6047940" lon="-8.6432070">
        <ele>24.9</ele>
        <time>2021-05-23T05:36:12Z</time>
      </trkpt>
      <trkpt lat="42.6047870" lon="-8.6432080">
        <ele>24.9</ele>
        <time>2021-05-23T05:36:13Z</time>
      </trkpt>
      <trkpt lat="42.6047670" lon="-8.6432120">
        <ele>24.9</ele>
        <time>2021-05-23T05:36:14Z</time>
      </trkpt>
      <trkpt lat="42.6047580" lon="-8.6432260">
        <ele>24.8</ele>
        <time>2021-05-23T05:36:15Z</time>
      </trkpt>
      <trkpt lat="42.6047510" lon="-8.6432560">
        <ele>24.8</ele>
        <time>2021-05-23T05:36:16Z</time>
      </trkpt>
      <trkpt lat="42.6047420" lon="-8.6432620">
        <ele>24.8</ele>
        <time>2021-05-23T05:36:17Z</time>
      </trkpt>
      <trkpt lat="42.6047340" lon="-8.6432690">
        <ele>24.8</ele>
        <time>2021-05-23T05:36:18Z</time>
      </trkpt>
      <trkpt lat="42.6047100" lon="-8.6432900">
        <ele>24.8</ele>
        <time>2021-05-23T05:36:19Z</time>
      </trkpt>
      <trkpt lat="42.6047040" lon="-8.6433010">
        <ele>24.8</ele>
        <time>2021-05-23T05:36:20Z</time>
      </trkpt>
      <trkpt lat="42.6046960" lon="-8.6433270">
        <ele>24.7</ele>
        <time>2021-05-23T05:36:21Z</time>
      </trkpt>
      <trkpt lat="42.6046930" lon="-8.6433430">
        <ele>24.7</ele>
        <time>2021-05-23T05:36:22Z</time>
      </trkpt>
      <trkpt lat="42.6046900" lon="-8.6433560">
        <ele>24.7</ele>
        <time>2021-05-23T05:36:23Z</time>
      </trkpt>
      <trkpt lat="42.6046840" lon="-8.6433660">
        <ele>24.7</ele>
        <time>2021-05-23T05:36:24Z</time>
      </trkpt>
      <trkpt lat="42.6046780" lon="-8.6433760">
        <ele>24.7</ele>
        <time>2021-05-23T05:36:25Z</time>
      </trkpt>
      <trkpt lat="42.6046720" lon="-8.6433860">
        <ele>24.7</ele>
        <time>2021-05-23T05:36:26Z</time>
      </trkpt>
      <trkpt lat="42.6046650" lon="-8.6433990">
        <ele>24.7</ele>
        <time>2021-05-23T05:36:27Z</time>
      </trkpt>
      <trkpt lat="42.6046540" lon="-8.6433940">
        <ele>24.7</ele>
        <time>2021-05-23T05:36:28Z</time>
      </trkpt>
      <trkpt lat="42.6046400" lon="-8.6434000">
        <ele>24.7</ele>
        <time>2021-05-23T05:36:29Z</time>
      </trkpt>
      <trkpt lat="42.6046360" lon="-8.6434210">
        <ele>24.6</ele>
        <time>2021-05-23T05:36:30Z</time>
      </trkpt>
      <trkpt lat="42.6046300" lon="-8.6434360">
        <ele>24.6</ele>
        <time>2021-05-23T05:36:31Z</time>
      </trkpt>
      <trkpt lat="42.6046240" lon="-8.6434510">
        <ele>24.6</ele>
        <time>2021-05-23T05:36:32Z</time>
      </trkpt>
      <trkpt lat="42.6046150" lon="-8.6434700">
        <ele>24.6</ele>
        <time>2021-05-23T05:36:33Z</time>
      </trkpt>
      <trkpt lat="42.6046130" lon="-8.6434910">
        <ele>24.6</ele>
        <time>2021-05-23T05:36:34Z</time>
      </trkpt>
      <trkpt lat="42.6046100" lon="-8.6435040">
        <ele>24.6</ele>
        <time>2021-05-23T05:36:35Z</time>
      </trkpt>
      <trkpt lat="42.6046070" lon="-8.6435250">
        <ele>24.6</ele>
        <time>2021-05-23T05:36:36Z</time>
      </trkpt>
      <trkpt lat="42.6045950" lon="-8.6435320">
        <ele>24.5</ele>
        <time>2021-05-23T05:36:37Z</time>
      </trkpt>
      <trkpt lat="42.6045850" lon="-8.6435410">
        <ele>24.5</ele>
        <time>2021-05-23T05:36:38Z</time>
      </trkpt>
      <trkpt lat="42.6045770" lon="-8.6435450">
        <ele>24.5</ele>
        <time>2021-05-23T05:36:39Z</time>
      </trkpt>
      <trkpt lat="42.6045720" lon="-8.6435570">
        <ele>24.5</ele>
        <time>2021-05-23T05:36:41Z</time>
      </trkpt>
      <trkpt lat="42.6045600" lon="-8.6435700">
        <ele>24.5</ele>
        <time>2021-05-23T05:36:42Z</time>
      </trkpt>
      <trkpt lat="42.6045600" lon="-8.6435890">
        <ele>24.5</ele>
        <time>2021-05-23T05:36:43Z</time>
      </trkpt>
      <trkpt lat="42.6045560" lon="-8.6435990">
        <ele>24.5</ele>
        <time>2021-05-23T05:36:44Z</time>
      </trkpt>
      <trkpt lat="42.6045430" lon="-8.6436220">
        <ele>24.5</ele>
        <time>2021-05-23T05:36:45Z</time>
      </trkpt>
      <trkpt lat="42.6045380" lon="-8.6436330">
        <ele>24.4</ele>
        <time>2021-05-23T05:36:46Z</time>
      </trkpt>
      <trkpt lat="42.6045320" lon="-8.6436430">
        <ele>24.4</ele>
        <time>2021-05-23T05:36:47Z</time>
      </trkpt>
      <trkpt lat="42.6045230" lon="-8.6436440">
        <ele>24.4</ele>
        <time>2021-05-23T05:36:48Z</time>
      </trkpt>
      <trkpt lat="42.6045200" lon="-8.6436610">
        <ele>24.4</ele>
        <time>2021-05-23T05:36:49Z</time>
      </trkpt>
      <trkpt lat="42.6045210" lon="-8.6436550">
        <ele>24.4</ele>
        <time>2021-05-23T05:36:50Z</time>
      </trkpt>
      <trkpt lat="42.6045200" lon="-8.6436830">
        <ele>24.4</ele>
        <time>2021-05-23T05:36:51Z</time>
      </trkpt>
      <trkpt lat="42.6045150" lon="-8.6436850">
        <ele>24.4</ele>
        <time>2021-05-23T05:36:52Z</time>
      </trkpt>
      <trkpt lat="42.6045110" lon="-8.6437280">
        <ele>24.3</ele>
        <time>2021-05-23T05:36:53Z</time>
      </trkpt>
      <trkpt lat="42.6045100" lon="-8.6437310">
        <ele>24.3</ele>
        <time>2021-05-23T05:36:54Z</time>
      </trkpt>
      <trkpt lat="42.6045090" lon="-8.6437340">
        <ele>24.3</ele>
        <time>2021-05-23T05:36:55Z</time>
      </trkpt>
      <trkpt lat="42.6045090" lon="-8.6437370">
        <ele>24.3</ele>
        <time>2021-05-23T05:36:56Z</time>
      </trkpt>
      <trkpt lat="42.6045080" lon="-8.6437400">
        <ele>24.3</ele>
        <time>2021-05-23T05:36:57Z</time>
      </trkpt>
      <trkpt lat="42.6045070" lon="-8.6437430">
        <ele>24.3</ele>
        <time>2021-05-23T05:36:58Z</time>
      </trkpt>
      <trkpt lat="42.6045060" lon="-8.6437460">
        <ele>24.3</ele>
        <time>2021-05-23T05:36:59Z</time>
      </trkpt>
      <trkpt lat="42.6045050" lon="-8.6437490">
        <ele>24.2</ele>
        <time>2021-05-23T05:37:00Z</time>
      </trkpt>
      <trkpt lat="42.6045140" lon="-8.6437650">
        <ele>24.2</ele>
        <time>2021-05-23T05:37:01Z</time>
      </trkpt>
      <trkpt lat="42.6045130" lon="-8.6437860">
        <ele>24.2</ele>
        <time>2021-05-23T05:37:02Z</time>
      </trkpt>
      <trkpt lat="42.6045220" lon="-8.6438060">
        <ele>24.2</ele>
        <time>2021-05-23T05:37:03Z</time>
      </trkpt>
      <trkpt lat="42.6045230" lon="-8.6438240">
        <ele>24.2</ele>
        <time>2021-05-23T05:37:04Z</time>
      </trkpt>
      <trkpt lat="42.6045280" lon="-8.6438350">
        <ele>24.2</ele>
        <time>2021-05-23T05:37:05Z</time>
      </trkpt>
      <trkpt lat="42.6045280" lon="-8.6438460">
        <ele>24.2</ele>
        <time>2021-05-23T05:37:06Z</time>
      </trkpt>
      <trkpt lat="42.6045370" lon="-8.6438450">
        <ele>24.2</ele>
        <time>2021-05-23T05:37:07Z</time>
      </trkpt>
      <trkpt lat="42.6045390" lon="-8.6438540">
        <ele>24.2</ele>
        <time>2021-05-23T05:37:08Z</time>
      </trkpt>
      <trkpt lat="42.6045430" lon="-8.6438600">
        <ele>24.2</ele>
        <time>2021-05-23T05:37:09Z</time>
      </trkpt>
      <trkpt lat="42.6045480" lon="-8.6438700">
        <ele>24.2</ele>
        <time>2021-05-23T05:37:10Z</time>
      </trkpt>
      <trkpt lat="42.6045560" lon="-8.6438760">
        <ele>24.2</ele>
        <time>2021-05-23T05:37:11Z</time>
      </trkpt>
      <trkpt lat="42.6045630" lon="-8.6438860">
        <ele>24.2</ele>
        <time>2021-05-23T05:37:12Z</time>
      </trkpt>
      <trkpt lat="42.6045750" lon="-8.6439000">
        <ele>24.2</ele>
        <time>2021-05-23T05:37:13Z</time>
      </trkpt>
      <trkpt lat="42.6045820" lon="-8.6439080">
        <ele>24.3</ele>
        <time>2021-05-23T05:37:14Z</time>
      </trkpt>
      <trkpt lat="42.6045880" lon="-8.6439170">
        <ele>24.3</ele>
        <time>2021-05-23T05:37:15Z</time>
      </trkpt>
      <trkpt lat="42.6045950" lon="-8.6439250">
        <ele>24.3</ele>
        <time>2021-05-23T05:37:16Z</time>
      </trkpt>
      <trkpt lat="42.6046020" lon="-8.6439340">
        <ele>24.3</ele>
        <time>2021-05-23T05:37:17Z</time>
      </trkpt>
      <trkpt lat="42.6046170" lon="-8.6439520">
        <ele>24.3</ele>
        <time>2021-05-23T05:37:18Z</time>
      </trkpt>
      <trkpt lat="42.6046260" lon="-8.6439600">
        <ele>24.3</ele>
        <time>2021-05-23T05:37:19Z</time>
      </trkpt>
      <trkpt lat="42.6046350" lon="-8.6439680">
        <ele>24.3</ele>
        <time>2021-05-23T05:37:20Z</time>
      </trkpt>
      <trkpt lat="42.6046440" lon="-8.6439760">
        <ele>24.3</ele>
        <time>2021-05-23T05:37:21Z</time>
      </trkpt>
      <trkpt lat="42.6046740" lon="-8.6440150">
        <ele>24.4</ele>
        <time>2021-05-23T05:37:22Z</time>
      </trkpt>
      <trkpt lat="42.6046870" lon="-8.6440280">
        <ele>24.4</ele>
        <time>2021-05-23T05:37:23Z</time>
      </trkpt>
      <trkpt lat="42.6047080" lon="-8.6440430">
        <ele>24.4</ele>
        <time>2021-05-23T05:37:25Z</time>
      </trkpt>
      <trkpt lat="42.6047150" lon="-8.6440560">
        <ele>24.4</ele>
        <time>2021-05-23T05:37:26Z</time>
      </trkpt>
      <trkpt lat="42.6047260" lon="-8.6440640">
        <ele>24.4</ele>
        <time>2021-05-23T05:37:28Z</time>
      </trkpt>
      <trkpt lat="42.6047410" lon="-8.6440700">
        <ele>24.5</ele>
        <time>2021-05-23T05:37:29Z</time>
      </trkpt>
      <trkpt lat="42.6047540" lon="-8.6440600">
        <ele>24.5</ele>
        <time>2021-05-23T05:37:30Z</time>
      </trkpt>
      <trkpt lat="42.6047910" lon="-8.6440700">
        <ele>24.5</ele>
        <time>2021-05-23T05:37:31Z</time>
      </trkpt>
      <trkpt lat="42.6048060" lon="-8.6440760">
        <ele>24.5</ele>
        <time>2021-05-23T05:37:32Z</time>
      </trkpt>
      <trkpt lat="42.6048130" lon="-8.6440760">
        <ele>24.5</ele>
        <time>2021-05-23T05:37:33Z</time>
      </trkpt>
      <trkpt lat="42.6048200" lon="-8.6440910">
        <ele>24.5</ele>
        <time>2021-05-23T05:37:34Z</time>
      </trkpt>
      <trkpt lat="42.6048300" lon="-8.6441010">
        <ele>24.6</ele>
        <time>2021-05-23T05:37:35Z</time>
      </trkpt>
      <trkpt lat="42.6048470" lon="-8.6441070">
        <ele>24.6</ele>
        <time>2021-05-23T05:37:36Z</time>
      </trkpt>
      <trkpt lat="42.6048570" lon="-8.6441150">
        <ele>24.6</ele>
        <time>2021-05-23T05:37:37Z</time>
      </trkpt>
      <trkpt lat="42.6048790" lon="-8.6441250">
        <ele>24.6</ele>
        <time>2021-05-23T05:37:38Z</time>
      </trkpt>
      <trkpt lat="42.6048860" lon="-8.6441310">
        <ele>24.6</ele>
        <time>2021-05-23T05:37:39Z</time>
      </trkpt>
      <trkpt lat="42.6048920" lon="-8.6441370">
        <ele>24.6</ele>
        <time>2021-05-23T05:37:40Z</time>
      </trkpt>
      <trkpt lat="42.6049080" lon="-8.6441450">
        <ele>24.6</ele>
        <time>2021-05-23T05:37:41Z</time>
      </trkpt>
      <trkpt lat="42.6049140" lon="-8.6441470">
        <ele>24.7</ele>
        <time>2021-05-23T05:37:42Z</time>
      </trkpt>
      <trkpt lat="42.6049200" lon="-8.6441500">
        <ele>24.7</ele>
        <time>2021-05-23T05:37:43Z</time>
      </trkpt>
      <trkpt lat="42.6049250" lon="-8.6441530">
        <ele>24.7</ele>
        <time>2021-05-23T05:37:44Z</time>
      </trkpt>
      <trkpt lat="42.6049310" lon="-8.6441560">
        <ele>24.7</ele>
        <time>2021-05-23T05:37:45Z</time>
      </trkpt>
      <trkpt lat="42.6049370" lon="-8.6441580">
        <ele>24.7</ele>
        <time>2021-05-23T05:37:46Z</time>
      </trkpt>
      <trkpt lat="42.6049430" lon="-8.6441610">
        <ele>24.7</ele>
        <time>2021-05-23T05:37:47Z</time>
      </trkpt>
      <trkpt lat="42.6049590" lon="-8.6441800">
        <ele>24.7</ele>
        <time>2021-05-23T05:37:48Z</time>
      </trkpt>
      <trkpt lat="42.6049660" lon="-8.6441980">
        <ele>24.7</ele>
        <time>2021-05-23T05:37:49Z</time>
      </trkpt>
      <trkpt lat="42.6049630" lon="-8.6442280">
        <ele>24.7</ele>
        <time>2021-05-23T05:37:50Z</time>
      </trkpt>
      <trkpt lat="42.6049600" lon="-8.6442400">
        <ele>24.7</ele>
        <time>2021-05-23T05:37:51Z</time>
      </trkpt>
      <trkpt lat="42.6049580" lon="-8.6442520">
        <ele>24.7</ele>
        <time>2021-05-23T05:37:52Z</time>
      </trkpt>
      <trkpt lat="42.6049590" lon="-8.6442500">
        <ele>24.7</ele>
        <time>2021-05-23T05:37:53Z</time>
      </trkpt>
      <trkpt lat="42.6049790" lon="-8.6442560">
        <ele>24.8</ele>
        <time>2021-05-23T05:37:54Z</time>
      </trkpt>
      <trkpt lat="42.6049810" lon="-8.6442630">
        <ele>24.8</ele>
        <time>2021-05-23T05:37:55Z</time>
      </trkpt>
      <trkpt lat="42.6049760" lon="-8.6442700">
        <ele>24.8</ele>
        <time>2021-05-23T05:37:56Z</time>
      </trkpt>
      <trkpt lat="42.6049890" lon="-8.6442790">
        <ele>24.8</ele>
        <time>2021-05-23T05:37:57Z</time>
      </trkpt>
      <trkpt lat="42.6050010" lon="-8.6442900">
        <ele>24.8</ele>
        <time>2021-05-23T05:37:58Z</time>
      </trkpt>
      <trkpt lat="42.6050160" lon="-8.6443090">
        <ele>24.8</ele>
        <time>2021-05-23T05:37:59Z</time>
      </trkpt>
      <trkpt lat="42.6050240" lon="-8.6443190">
        <ele>24.8</ele>
        <time>2021-05-23T05:38:00Z</time>
      </trkpt>
      <trkpt lat="42.6050300" lon="-8.6443240">
        <ele>24.8</ele>
        <time>2021-05-23T05:38:01Z</time>
      </trkpt>
      <trkpt lat="42.6050440" lon="-8.6443300">
        <ele>24.8</ele>
        <time>2021-05-23T05:38:02Z</time>
      </trkpt>
      <trkpt lat="42.6050610" lon="-8.6443450">
        <ele>24.8</ele>
        <time>2021-05-23T05:38:03Z</time>
      </trkpt>
      <trkpt lat="42.6050680" lon="-8.6443510">
        <ele>24.8</ele>
        <time>2021-05-23T05:38:04Z</time>
      </trkpt>
      <trkpt lat="42.6050750" lon="-8.6443580">
        <ele>24.7</ele>
        <time>2021-05-23T05:38:05Z</time>
      </trkpt>
      <trkpt lat="42.6051010" lon="-8.6443850">
        <ele>24.7</ele>
        <time>2021-05-23T05:38:06Z</time>
      </trkpt>
      <trkpt lat="42.6051090" lon="-8.6443910">
        <ele>24.7</ele>
        <time>2021-05-23T05:38:07Z</time>
      </trkpt>
      <trkpt lat="42.6051220" lon="-8.6444030">
        <ele>24.7</ele>
        <time>2021-05-23T05:38:08Z</time>
      </trkpt>
      <trkpt lat="42.6051360" lon="-8.6444080">
        <ele>24.7</ele>
        <time>2021-05-23T05:38:09Z</time>
      </trkpt>
      <trkpt lat="42.6051620" lon="-8.6444200">
        <ele>24.7</ele>
        <time>2021-05-23T05:38:10Z</time>
      </trkpt>
      <trkpt lat="42.6051700" lon="-8.6444270">
        <ele>24.7</ele>
        <time>2021-05-23T05:38:11Z</time>
      </trkpt>
      <trkpt lat="42.6051790" lon="-8.6444330">
        <ele>24.7</ele>
        <time>2021-05-23T05:38:12Z</time>
      </trkpt>
      <trkpt lat="42.6051870" lon="-8.6444400">
        <ele>24.7</ele>
        <time>2021-05-23T05:38:13Z</time>
      </trkpt>
      <trkpt lat="42.6051960" lon="-8.6444460">
        <ele>24.7</ele>
        <time>2021-05-23T05:38:14Z</time>
      </trkpt>
      <trkpt lat="42.6052080" lon="-8.6444580">
        <ele>24.7</ele>
        <time>2021-05-23T05:38:15Z</time>
      </trkpt>
      <trkpt lat="42.6052230" lon="-8.6444660">
        <ele>24.7</ele>
        <time>2021-05-23T05:38:16Z</time>
      </trkpt>
      <trkpt lat="42.6052340" lon="-8.6444580">
        <ele>24.7</ele>
        <time>2021-05-23T05:38:17Z</time>
      </trkpt>
      <trkpt lat="42.6052420" lon="-8.6444770">
        <ele>24.7</ele>
        <time>2021-05-23T05:38:18Z</time>
      </trkpt>
      <trkpt lat="42.6052560" lon="-8.6444870">
        <ele>24.7</ele>
        <time>2021-05-23T05:38:19Z</time>
      </trkpt>
      <trkpt lat="42.6052670" lon="-8.6445000">
        <ele>24.7</ele>
        <time>2021-05-23T05:38:20Z</time>
      </trkpt>
      <trkpt lat="42.6052770" lon="-8.6445130">
        <ele>24.7</ele>
        <time>2021-05-23T05:38:21Z</time>
      </trkpt>
      <trkpt lat="42.6052970" lon="-8.6445310">
        <ele>24.7</ele>
        <time>2021-05-23T05:38:22Z</time>
      </trkpt>
      <trkpt lat="42.6053070" lon="-8.6445380">
        <ele>24.7</ele>
        <time>2021-05-23T05:38:24Z</time>
      </trkpt>
      <trkpt lat="42.6053180" lon="-8.6445440">
        <ele>24.7</ele>
        <time>2021-05-23T05:38:25Z</time>
      </trkpt>
      <trkpt lat="42.6053280" lon="-8.6445510">
        <ele>24.7</ele>
        <time>2021-05-23T05:38:26Z</time>
      </trkpt>
      <trkpt lat="42.6053380" lon="-8.6445570">
        <ele>24.7</ele>
        <time>2021-05-23T05:38:27Z</time>
      </trkpt>
      <trkpt lat="42.6053480" lon="-8.6445640">
        <ele>24.7</ele>
        <time>2021-05-23T05:38:28Z</time>
      </trkpt>
      <trkpt lat="42.6053630" lon="-8.6445790">
        <ele>24.8</ele>
        <time>2021-05-23T05:38:29Z</time>
      </trkpt>
      <trkpt lat="42.6053650" lon="-8.6445830">
        <ele>24.8</ele>
        <time>2021-05-23T05:38:30Z</time>
      </trkpt>
      <trkpt lat="42.6053670" lon="-8.6445860">
        <ele>24.8</ele>
        <time>2021-05-23T05:38:31Z</time>
      </trkpt>
      <trkpt lat="42.6053700" lon="-8.6445890">
        <ele>24.8</ele>
        <time>2021-05-23T05:38:32Z</time>
      </trkpt>
      <trkpt lat="42.6053720" lon="-8.6445920">
        <ele>24.8</ele>
        <time>2021-05-23T05:38:33Z</time>
      </trkpt>
      <trkpt lat="42.6053740" lon="-8.6445960">
        <ele>24.8</ele>
        <time>2021-05-23T05:38:34Z</time>
      </trkpt>
      <trkpt lat="42.6053760" lon="-8.6445990">
        <ele>24.8</ele>
        <time>2021-05-23T05:38:35Z</time>
      </trkpt>
      <trkpt lat="42.6053780" lon="-8.6446020">
        <ele>24.8</ele>
        <time>2021-05-23T05:38:36Z</time>
      </trkpt>
      <trkpt lat="42.6053800" lon="-8.6446060">
        <ele>24.8</ele>
        <time>2021-05-23T05:38:37Z</time>
      </trkpt>
      <trkpt lat="42.6053820" lon="-8.6446090">
        <ele>24.8</ele>
        <time>2021-05-23T05:38:38Z</time>
      </trkpt>
      <trkpt lat="42.6053850" lon="-8.6446120">
        <ele>24.8</ele>
        <time>2021-05-23T05:38:39Z</time>
      </trkpt>
      <trkpt lat="42.6053870" lon="-8.6446150">
        <ele>24.8</ele>
        <time>2021-05-23T05:38:40Z</time>
      </trkpt>
      <trkpt lat="42.6053890" lon="-8.6446190">
        <ele>24.8</ele>
        <time>2021-05-23T05:38:41Z</time>
      </trkpt>
      <trkpt lat="42.6053910" lon="-8.6446220">
        <ele>24.8</ele>
        <time>2021-05-23T05:38:42Z</time>
      </trkpt>
      <trkpt lat="42.6054110" lon="-8.6446470">
        <ele>24.8</ele>
        <time>2021-05-23T05:38:43Z</time>
      </trkpt>
      <trkpt lat="42.6054180" lon="-8.6446550">
        <ele>24.8</ele>
        <time>2021-05-23T05:38:44Z</time>
      </trkpt>
      <trkpt lat="42.6054240" lon="-8.6446620">
        <ele>24.8</ele>
        <time>2021-05-23T05:38:45Z</time>
      </trkpt>
      <trkpt lat="42.6054380" lon="-8.6446580">
        <ele>24.8</ele>
        <time>2021-05-23T05:38:46Z</time>
      </trkpt>
      <trkpt lat="42.6054560" lon="-8.6446570">
        <ele>24.9</ele>
        <time>2021-05-23T05:38:47Z</time>
      </trkpt>
      <trkpt lat="42.6054840" lon="-8.6446720">
        <ele>24.9</ele>
        <time>2021-05-23T05:38:48Z</time>
      </trkpt>
      <trkpt lat="42.6054920" lon="-8.6446800">
        <ele>24.9</ele>
        <time>2021-05-23T05:38:49Z</time>
      </trkpt>
      <trkpt lat="42.6055070" lon="-8.6446920">
        <ele>24.9</ele>
        <time>2021-05-23T05:38:50Z</time>
      </trkpt>
      <trkpt lat="42.6055140" lon="-8.6447020">
        <ele>24.9</ele>
        <time>2021-05-23T05:38:51Z</time>
      </trkpt>
      <trkpt lat="42.6055260" lon="-8.6447080">
        <ele>25.0</ele>
        <time>2021-05-23T05:38:52Z</time>
      </trkpt>
      <trkpt lat="42.6055360" lon="-8.6447170">
        <ele>25.0</ele>
        <time>2021-05-23T05:38:53Z</time>
      </trkpt>
      <trkpt lat="42.6055470" lon="-8.6447270">
        <ele>25.0</ele>
        <time>2021-05-23T05:38:54Z</time>
      </trkpt>
      <trkpt lat="42.6055570" lon="-8.6447370">
        <ele>25.0</ele>
        <time>2021-05-23T05:38:55Z</time>
      </trkpt>
      <trkpt lat="42.6055640" lon="-8.6447470">
        <ele>25.0</ele>
        <time>2021-05-23T05:38:56Z</time>
      </trkpt>
      <trkpt lat="42.6055740" lon="-8.6447680">
        <ele>25.1</ele>
        <time>2021-05-23T05:38:57Z</time>
      </trkpt>
      <trkpt lat="42.6055900" lon="-8.6447800">
        <ele>25.1</ele>
        <time>2021-05-23T05:38:58Z</time>
      </trkpt>
      <trkpt lat="42.6055950" lon="-8.6447880">
        <ele>25.1</ele>
        <time>2021-05-23T05:38:59Z</time>
      </trkpt>
      <trkpt lat="42.6056000" lon="-8.6447950">
        <ele>25.1</ele>
        <time>2021-05-23T05:39:00Z</time>
      </trkpt>
      <trkpt lat="42.6056050" lon="-8.6448030">
        <ele>25.1</ele>
        <time>2021-05-23T05:39:01Z</time>
      </trkpt>
      <trkpt lat="42.6056100" lon="-8.6448110">
        <ele>25.1</ele>
        <time>2021-05-23T05:39:02Z</time>
      </trkpt>
      <trkpt lat="42.6056230" lon="-8.6448240">
        <ele>25.2</ele>
        <time>2021-05-23T05:39:03Z</time>
      </trkpt>
      <trkpt lat="42.6056280" lon="-8.6448420">
        <ele>25.2</ele>
        <time>2021-05-23T05:39:04Z</time>
      </trkpt>
      <trkpt lat="42.6056460" lon="-8.6448450">
        <ele>25.2</ele>
        <time>2021-05-23T05:39:05Z</time>
      </trkpt>
      <trkpt lat="42.6056550" lon="-8.6448480">
        <ele>25.2</ele>
        <time>2021-05-23T05:39:06Z</time>
      </trkpt>
      <trkpt lat="42.6056850" lon="-8.6448730">
        <ele>25.3</ele>
        <time>2021-05-23T05:39:07Z</time>
      </trkpt>
      <trkpt lat="42.6056940" lon="-8.6448880">
        <ele>25.4</ele>
        <time>2021-05-23T05:39:08Z</time>
      </trkpt>
      <trkpt lat="42.6057060" lon="-8.6449000">
        <ele>25.4</ele>
        <time>2021-05-23T05:39:09Z</time>
      </trkpt>
      <trkpt lat="42.6057180" lon="-8.6449100">
        <ele>25.4</ele>
        <time>2021-05-23T05:39:10Z</time>
      </trkpt>
      <trkpt lat="42.6057310" lon="-8.6449140">
        <ele>25.5</ele>
        <time>2021-05-23T05:39:11Z</time>
      </trkpt>
      <trkpt lat="42.6057420" lon="-8.6449190">
        <ele>25.5</ele>
        <time>2021-05-23T05:39:12Z</time>
      </trkpt>
      <trkpt lat="42.6057520" lon="-8.6449240">
        <ele>25.5</ele>
        <time>2021-05-23T05:39:13Z</time>
      </trkpt>
      <trkpt lat="42.6057780" lon="-8.6449390">
        <ele>25.6</ele>
        <time>2021-05-23T05:39:14Z</time>
      </trkpt>
      <trkpt lat="42.6057870" lon="-8.6449470">
        <ele>25.7</ele>
        <time>2021-05-23T05:39:15Z</time>
      </trkpt>
      <trkpt lat="42.6057830" lon="-8.6449540">
        <ele>25.7</ele>
        <time>2021-05-23T05:39:16Z</time>
      </trkpt>
      <trkpt lat="42.6057770" lon="-8.6449650">
        <ele>25.7</ele>
        <time>2021-05-23T05:39:17Z</time>
      </trkpt>
      <trkpt lat="42.6057860" lon="-8.6449720">
        <ele>25.8</ele>
        <time>2021-05-23T05:39:18Z</time>
      </trkpt>
      <trkpt lat="42.6057900" lon="-8.6449770">
        <ele>25.8</ele>
        <time>2021-05-23T05:39:19Z</time>
      </trkpt>
      <trkpt lat="42.6057900" lon="-8.6449780">
        <ele>25.8</ele>
        <time>2021-05-23T05:39:20Z</time>
      </trkpt>
      <trkpt lat="42.6058030" lon="-8.6449860">
        <ele>25.8</ele>
        <time>2021-05-23T05:39:21Z</time>
      </trkpt>
      <trkpt lat="42.6058140" lon="-8.6449910">
        <ele>25.8</ele>
        <time>2021-05-23T05:39:22Z</time>
      </trkpt>
      <trkpt lat="42.6058250" lon="-8.6450100">
        <ele>25.8</ele>
        <time>2021-05-23T05:39:23Z</time>
      </trkpt>
      <trkpt lat="42.6058410" lon="-8.6450490">
        <ele>25.8</ele>
        <time>2021-05-23T05:39:24Z</time>
      </trkpt>
      <trkpt lat="42.6058470" lon="-8.6450640">
        <ele>25.8</ele>
        <time>2021-05-23T05:39:25Z</time>
      </trkpt>
      <trkpt lat="42.6058660" lon="-8.6450750">
        <ele>25.8</ele>
        <time>2021-05-23T05:39:26Z</time>
      </trkpt>
      <trkpt lat="42.6058620" lon="-8.6450970">
        <ele>25.8</ele>
        <time>2021-05-23T05:39:27Z</time>
      </trkpt>
      <trkpt lat="42.6058690" lon="-8.6451200">
        <ele>25.8</ele>
        <time>2021-05-23T05:39:28Z</time>
      </trkpt>
      <trkpt lat="42.6058920" lon="-8.6451570">
        <ele>25.8</ele>
        <time>2021-05-23T05:39:29Z</time>
      </trkpt>
      <trkpt lat="42.6058990" lon="-8.6451690">
        <ele>25.8</ele>
        <time>2021-05-23T05:39:30Z</time>
      </trkpt>
      <trkpt lat="42.6059090" lon="-8.6451830">
        <ele>25.8</ele>
        <time>2021-05-23T05:39:31Z</time>
      </trkpt>
      <trkpt lat="42.6059180" lon="-8.6452020">
        <ele>25.8</ele>
        <time>2021-05-23T05:39:32Z</time>
      </trkpt>
      <trkpt lat="42.6059310" lon="-8.6452030">
        <ele>25.8</ele>
        <time>2021-05-23T05:39:33Z</time>
      </trkpt>
      <trkpt lat="42.6059320" lon="-8.6452140">
        <ele>25.8</ele>
        <time>2021-05-23T05:39:34Z</time>
      </trkpt>
      <trkpt lat="42.6059340" lon="-8.6452260">
        <ele>25.8</ele>
        <time>2021-05-23T05:39:35Z</time>
      </trkpt>
      <trkpt lat="42.6059260" lon="-8.6452310">
        <ele>25.8</ele>
        <time>2021-05-23T05:39:36Z</time>
      </trkpt>
      <trkpt lat="42.6059220" lon="-8.6452270">
        <ele>25.8</ele>
        <time>2021-05-23T05:39:37Z</time>
      </trkpt>
      <trkpt lat="42.6059250" lon="-8.6452270">
        <ele>25.8</ele>
        <time>2021-05-23T05:39:38Z</time>
      </trkpt>
      <trkpt lat="42.6059380" lon="-8.6452270">
        <ele>25.8</ele>
        <time>2021-05-23T05:39:39Z</time>
      </trkpt>
      <trkpt lat="42.6059520" lon="-8.6452180">
        <ele>25.8</ele>
        <time>2021-05-23T05:39:40Z</time>
      </trkpt>
      <trkpt lat="42.6059460" lon="-8.6452280">
        <ele>25.9</ele>
        <time>2021-05-23T05:39:41Z</time>
      </trkpt>
      <trkpt lat="42.6059390" lon="-8.6452440">
        <ele>25.9</ele>
        <time>2021-05-23T05:39:42Z</time>
      </trkpt>
      <trkpt lat="42.6059310" lon="-8.6452600">
        <ele>25.9</ele>
        <time>2021-05-23T05:39:43Z</time>
      </trkpt>
      <trkpt lat="42.6059210" lon="-8.6452760">
        <ele>25.9</ele>
        <time>2021-05-23T05:39:44Z</time>
      </trkpt>
      <trkpt lat="42.6059140" lon="-8.6452920">
        <ele>25.9</ele>
        <time>2021-05-23T05:39:45Z</time>
      </trkpt>
      <trkpt lat="42.6059010" lon="-8.6453020">
        <ele>25.9</ele>
        <time>2021-05-23T05:39:46Z</time>
      </trkpt>
      <trkpt lat="42.6058900" lon="-8.6453410">
        <ele>25.9</ele>
        <time>2021-05-23T05:39:47Z</time>
      </trkpt>
      <trkpt lat="42.6058860" lon="-8.6453640">
        <ele>25.9</ele>
        <time>2021-05-23T05:39:48Z</time>
      </trkpt>
      <trkpt lat="42.6058860" lon="-8.6453720">
        <ele>25.9</ele>
        <time>2021-05-23T05:39:49Z</time>
      </trkpt>
      <trkpt lat="42.6058890" lon="-8.6453780">
        <ele>25.9</ele>
        <time>2021-05-23T05:39:50Z</time>
      </trkpt>
      <trkpt lat="42.6058850" lon="-8.6453540">
        <ele>25.9</ele>
        <time>2021-05-23T05:39:51Z</time>
      </trkpt>
      <trkpt lat="42.6058900" lon="-8.6453250">
        <ele>25.9</ele>
        <time>2021-05-23T05:39:52Z</time>
      </trkpt>
      <trkpt lat="42.6058840" lon="-8.6452900">
        <ele>25.9</ele>
        <time>2021-05-23T05:39:53Z</time>
      </trkpt>
      <trkpt lat="42.6058790" lon="-8.6452770">
        <ele>25.9</ele>
        <time>2021-05-23T05:39:54Z</time>
      </trkpt>
      <trkpt lat="42.6058710" lon="-8.6452530">
        <ele>25.9</ele>
        <time>2021-05-23T05:39:55Z</time>
      </trkpt>
      <trkpt lat="42.6058620" lon="-8.6452340">
        <ele>25.9</ele>
        <time>2021-05-23T05:39:56Z</time>
      </trkpt>
      <trkpt lat="42.6058500" lon="-8.6452120">
        <ele>25.9</ele>
        <time>2021-05-23T05:39:57Z</time>
      </trkpt>
      <trkpt lat="42.6058470" lon="-8.6452300">
        <ele>25.9</ele>
        <time>2021-05-23T05:39:58Z</time>
      </trkpt>
      <trkpt lat="42.6058440" lon="-8.6452300">
        <ele>25.9</ele>
        <time>2021-05-23T05:39:59Z</time>
      </trkpt>
      <trkpt lat="42.6058390" lon="-8.6452210">
        <ele>25.9</ele>
        <time>2021-05-23T05:40:00Z</time>
      </trkpt>
      <trkpt lat="42.6058330" lon="-8.6452130">
        <ele>25.9</ele>
        <time>2021-05-23T05:40:01Z</time>
      </trkpt>
      <trkpt lat="42.6058290" lon="-8.6452120">
        <ele>25.9</ele>
        <time>2021-05-23T05:40:02Z</time>
      </trkpt>
      <trkpt lat="42.6058290" lon="-8.6452160">
        <ele>25.9</ele>
        <time>2021-05-23T05:40:03Z</time>
      </trkpt>
      <trkpt lat="42.6058280" lon="-8.6452200">
        <ele>25.9</ele>
        <time>2021-05-23T05:40:04Z</time>
      </trkpt>
      <trkpt lat="42.6058280" lon="-8.6452230">
        <ele>25.9</ele>
        <time>2021-05-23T05:40:05Z</time>
      </trkpt>
      <trkpt lat="42.6058270" lon="-8.6452270">
        <ele>25.9</ele>
        <time>2021-05-23T05:40:06Z</time>
      </trkpt>
      <trkpt lat="42.6058270" lon="-8.6452310">
        <ele>25.9</ele>
        <time>2021-05-23T05:40:07Z</time>
      </trkpt>
      <trkpt lat="42.6058260" lon="-8.6452350">
        <ele>25.9</ele>
        <time>2021-05-23T05:40:08Z</time>
      </trkpt>
      <trkpt lat="42.6058250" lon="-8.6452390">
        <ele>25.9</ele>
        <time>2021-05-23T05:40:09Z</time>
      </trkpt>
      <trkpt lat="42.6058250" lon="-8.6452430">
        <ele>25.9</ele>
        <time>2021-05-23T05:40:10Z</time>
      </trkpt>
      <trkpt lat="42.6058240" lon="-8.6452470">
        <ele>25.9</ele>
        <time>2021-05-23T05:40:11Z</time>
      </trkpt>
      <trkpt lat="42.6058240" lon="-8.6452500">
        <ele>25.9</ele>
        <time>2021-05-23T05:40:12Z</time>
      </trkpt>
      <trkpt lat="42.6058230" lon="-8.6452540">
        <ele>25.9</ele>
        <time>2021-05-23T05:40:13Z</time>
      </trkpt>
      <trkpt lat="42.6058230" lon="-8.6452580">
        <ele>25.9</ele>
        <time>2021-05-23T05:40:14Z</time>
      </trkpt>
      <trkpt lat="42.6058220" lon="-8.6452620">
        <ele>25.9</ele>
        <time>2021-05-23T05:40:15Z</time>
      </trkpt>
      <trkpt lat="42.6058160" lon="-8.6452770">
        <ele>25.9</ele>
        <time>2021-05-23T05:40:16Z</time>
      </trkpt>
      <trkpt lat="42.6058040" lon="-8.6452920">
        <ele>25.9</ele>
        <time>2021-05-23T05:40:17Z</time>
      </trkpt>
      <trkpt lat="42.6058010" lon="-8.6452980">
        <ele>25.9</ele>
        <time>2021-05-23T05:40:18Z</time>
      </trkpt>
      <trkpt lat="42.6058020" lon="-8.6452990">
        <ele>25.9</ele>
        <time>2021-05-23T05:40:19Z</time>
      </trkpt>
      <trkpt lat="42.6057990" lon="-8.6452990">
        <ele>25.9</ele>
        <time>2021-05-23T05:40:20Z</time>
      </trkpt>
      <trkpt lat="42.6057860" lon="-8.6453040">
        <ele>25.9</ele>
        <time>2021-05-23T05:40:22Z</time>
      </trkpt>
      <trkpt lat="42.6057930" lon="-8.6453020">
        <ele>25.9</ele>
        <time>2021-05-23T05:40:23Z</time>
      </trkpt>
      <trkpt lat="42.6058030" lon="-8.6452980">
        <ele>25.9</ele>
        <time>2021-05-23T05:40:24Z</time>
      </trkpt>
      <trkpt lat="42.6058180" lon="-8.6453040">
        <ele>25.9</ele>
        <time>2021-05-23T05:40:25Z</time>
      </trkpt>
      <trkpt lat="42.6058250" lon="-8.6453180">
        <ele>25.9</ele>
        <time>2021-05-23T05:40:26Z</time>
      </trkpt>
      <trkpt lat="42.6058440" lon="-8.6453060">
        <ele>25.9</ele>
        <time>2021-05-23T05:40:27Z</time>
      </trkpt>
      <trkpt lat="42.6058560" lon="-8.6453120">
        <ele>25.9</ele>
        <time>2021-05-23T05:40:28Z</time>
      </trkpt>
      <trkpt lat="42.6058800" lon="-8.6453170">
        <ele>25.9</ele>
        <time>2021-05-23T05:40:29Z</time>
      </trkpt>
      <trkpt lat="42.6058920" lon="-8.6453180">
        <ele>25.9</ele>
        <time>2021-05-23T05:40:30Z</time>
      </trkpt>
      <trkpt lat="42.6059020" lon="-8.6453310">
        <ele>25.9</ele>
        <time>2021-05-23T05:40:31Z</time>
      </trkpt>
      <trkpt lat="42.6059270" lon="-8.6453330">
        <ele>25.9</ele>
        <time>2021-05-23T05:40:32Z</time>
      </trkpt>
      <trkpt lat="42.6059400" lon="-8.6453270">
        <ele>25.9</ele>
        <time>2021-05-23T05:40:33Z</time>
      </trkpt>
      <trkpt lat="42.6059470" lon="-8.6453230">
        <ele>25.9</ele>
        <time>2021-05-23T05:40:34Z</time>
      </trkpt>
      <trkpt lat="42.6059550" lon="-8.6453180">
        <ele>25.9</ele>
        <time>2021-05-23T05:40:35Z</time>
      </trkpt>
      <trkpt lat="42.6059620" lon="-8.6453140">
        <ele>25.9</ele>
        <time>2021-05-23T05:40:36Z</time>
      </trkpt>
      <trkpt lat="42.6059740" lon="-8.6453010">
        <ele>25.9</ele>
        <time>2021-05-23T05:40:37Z</time>
      </trkpt>
      <trkpt lat="42.6059870" lon="-8.6452920">
        <ele>25.9</ele>
        <time>2021-05-23T05:40:38Z</time>
      </trkpt>
      <trkpt lat="42.6059840" lon="-8.6452660">
        <ele>25.9</ele>
        <time>2021-05-23T05:40:39Z</time>
      </trkpt>
      <trkpt lat="42.6059820" lon="-8.6452570">
        <ele>25.9</ele>
        <time>2021-05-23T05:40:40Z</time>
      </trkpt>
      <trkpt lat="42.6059800" lon="-8.6452480">
        <ele>25.9</ele>
        <time>2021-05-23T05:40:41Z</time>
      </trkpt>
      <trkpt lat="42.6059780" lon="-8.6452390">
        <ele>25.9</ele>
        <time>2021-05-23T05:40:42Z</time>
      </trkpt>
      <trkpt lat="42.6059640" lon="-8.6452180">
        <ele>25.9</ele>
        <time>2021-05-23T05:40:44Z</time>
      </trkpt>
      <trkpt lat="42.6059580" lon="-8.6452100">
        <ele>25.9</ele>
        <time>2021-05-23T05:40:45Z</time>
      </trkpt>
      <trkpt lat="42.6059580" lon="-8.6451900">
        <ele>25.9</ele>
        <time>2021-05-23T05:40:46Z</time>
      </trkpt>
      <trkpt lat="42.6059640" lon="-8.6451890">
        <ele>25.9</ele>
        <time>2021-05-23T05:40:47Z</time>
      </trkpt>
      <trkpt lat="42.6059660" lon="-8.6451750">
        <ele>25.9</ele>
        <time>2021-05-23T05:40:48Z</time>
      </trkpt>
      <trkpt lat="42.6059700" lon="-8.6451580">
        <ele>25.9</ele>
        <time>2021-05-23T05:40:49Z</time>
      </trkpt>
      <trkpt lat="42.6059660" lon="-8.6451290">
        <ele>25.9</ele>
        <time>2021-05-23T05:40:50Z</time>
      </trkpt>
      <trkpt lat="42.6059720" lon="-8.6451120">
        <ele>25.9</ele>
        <time>2021-05-23T05:40:51Z</time>
      </trkpt>
      <trkpt lat="42.6059740" lon="-8.6451100">
        <ele>25.9</ele>
        <time>2021-05-23T05:40:52Z</time>
      </trkpt>
      <trkpt lat="42.6059650" lon="-8.6451150">
        <ele>25.9</ele>
        <time>2021-05-23T05:40:53Z</time>
      </trkpt>
      <trkpt lat="42.6059600" lon="-8.6451270">
        <ele>25.9</ele>
        <time>2021-05-23T05:40:54Z</time>
      </trkpt>
      <trkpt lat="42.6059550" lon="-8.6451310">
        <ele>25.9</ele>
        <time>2021-05-23T05:40:55Z</time>
      </trkpt>
      <trkpt lat="42.6059540" lon="-8.6451300">
        <ele>25.9</ele>
        <time>2021-05-23T05:40:56Z</time>
      </trkpt>
      <trkpt lat="42.6059540" lon="-8.6451330">
        <ele>25.9</ele>
        <time>2021-05-23T05:40:57Z</time>
      </trkpt>
      <trkpt lat="42.6059520" lon="-8.6451370">
        <ele>25.9</ele>
        <time>2021-05-23T05:40:58Z</time>
      </trkpt>
      <trkpt lat="42.6059500" lon="-8.6451450">
        <ele>25.9</ele>
        <time>2021-05-23T05:40:59Z</time>
      </trkpt>
      <trkpt lat="42.6059460" lon="-8.6451420">
        <ele>25.9</ele>
        <time>2021-05-23T05:41:00Z</time>
      </trkpt>
      <trkpt lat="42.6059450" lon="-8.6451410">
        <ele>25.9</ele>
        <time>2021-05-23T05:41:01Z</time>
      </trkpt>
      <trkpt lat="42.6059450" lon="-8.6451360">
        <ele>25.9</ele>
        <time>2021-05-23T05:41:02Z</time>
      </trkpt>
      <trkpt lat="42.6059430" lon="-8.6451280">
        <ele>25.9</ele>
        <time>2021-05-23T05:41:03Z</time>
      </trkpt>
      <trkpt lat="42.6059470" lon="-8.6451320">
        <ele>25.9</ele>
        <time>2021-05-23T05:41:04Z</time>
      </trkpt>
      <trkpt lat="42.6059460" lon="-8.6451340">
        <ele>25.9</ele>
        <time>2021-05-23T05:41:05Z</time>
      </trkpt>
      <trkpt lat="42.6059420" lon="-8.6451430">
        <ele>25.9</ele>
        <time>2021-05-23T05:41:06Z</time>
      </trkpt>
      <trkpt lat="42.6059490" lon="-8.6451540">
        <ele>25.9</ele>
        <time>2021-05-23T05:41:07Z</time>
      </trkpt>
      <trkpt lat="42.6059520" lon="-8.6451620">
        <ele>25.9</ele>
        <time>2021-05-23T05:41:08Z</time>
      </trkpt>
      <trkpt lat="42.6059510" lon="-8.6451660">
        <ele>25.9</ele>
        <time>2021-05-23T05:41:09Z</time>
      </trkpt>
      <trkpt lat="42.6059490" lon="-8.6451720">
        <ele>25.9</ele>
        <time>2021-05-23T05:41:10Z</time>
      </trkpt>
      <trkpt lat="42.6059470" lon="-8.6451770">
        <ele>25.9</ele>
        <time>2021-05-23T05:41:11Z</time>
      </trkpt>
      <trkpt lat="42.6059450" lon="-8.6451830">
        <ele>25.9</ele>
        <time>2021-05-23T05:41:12Z</time>
      </trkpt>
      <trkpt lat="42.6059400" lon="-8.6451860">
        <ele>25.9</ele>
        <time>2021-05-23T05:41:13Z</time>
      </trkpt>
      <trkpt lat="42.6059390" lon="-8.6451880">
        <ele>25.9</ele>
        <time>2021-05-23T05:41:14Z</time>
      </trkpt>
      <trkpt lat="42.6059400" lon="-8.6451900">
        <ele>25.9</ele>
        <time>2021-05-23T05:41:15Z</time>
      </trkpt>
      <trkpt lat="42.6059390" lon="-8.6451950">
        <ele>25.9</ele>
        <time>2021-05-23T05:41:16Z</time>
      </trkpt>
      <trkpt lat="42.6059380" lon="-8.6451970">
        <ele>25.9</ele>
        <time>2021-05-23T05:41:17Z</time>
      </trkpt>
      <trkpt lat="42.6059370" lon="-8.6451980">
        <ele>25.9</ele>
        <time>2021-05-23T05:41:18Z</time>
      </trkpt>
      <trkpt lat="42.6059330" lon="-8.6451960">
        <ele>25.9</ele>
        <time>2021-05-23T05:41:19Z</time>
      </trkpt>
      <trkpt lat="42.6059360" lon="-8.6451880">
        <ele>25.9</ele>
        <time>2021-05-23T05:41:20Z</time>
      </trkpt>
      <trkpt lat="42.6059460" lon="-8.6451580">
        <ele>25.9</ele>
        <time>2021-05-23T05:41:21Z</time>
      </trkpt>
      <trkpt lat="42.6059610" lon="-8.6451340">
        <ele>25.9</ele>
        <time>2021-05-23T05:41:22Z</time>
      </trkpt>
      <trkpt lat="42.6059660" lon="-8.6451240">
        <ele>25.9</ele>
        <time>2021-05-23T05:41:23Z</time>
      </trkpt>
      <trkpt lat="42.6059710" lon="-8.6451150">
        <ele>25.9</ele>
        <time>2021-05-23T05:41:24Z</time>
      </trkpt>
      <trkpt lat="42.6059720" lon="-8.6451040">
        <ele>25.9</ele>
        <time>2021-05-23T05:41:25Z</time>
      </trkpt>
      <trkpt lat="42.6059660" lon="-8.6451110">
        <ele>25.9</ele>
        <time>2021-05-23T05:41:26Z</time>
      </trkpt>
      <trkpt lat="42.6059650" lon="-8.6451120">
        <ele>25.9</ele>
        <time>2021-05-23T05:41:27Z</time>
      </trkpt>
      <trkpt lat="42.6059640" lon="-8.6450930">
        <ele>25.9</ele>
        <time>2021-05-23T05:41:28Z</time>
      </trkpt>
      <trkpt lat="42.6059620" lon="-8.6450960">
        <ele>25.9</ele>
        <time>2021-05-23T05:41:29Z</time>
      </trkpt>
      <trkpt lat="42.6059640" lon="-8.6451010">
        <ele>25.9</ele>
        <time>2021-05-23T05:41:30Z</time>
      </trkpt>
      <trkpt lat="42.6059630" lon="-8.6450950">
        <ele>25.9</ele>
        <time>2021-05-23T05:41:31Z</time>
      </trkpt>
      <trkpt lat="42.6059640" lon="-8.6450910">
        <ele>25.9</ele>
        <time>2021-05-23T05:41:32Z</time>
      </trkpt>
      <trkpt lat="42.6059640" lon="-8.6450890">
        <ele>25.9</ele>
        <time>2021-05-23T05:41:33Z</time>
      </trkpt>
      <trkpt lat="42.6059650" lon="-8.6450870">
        <ele>25.9</ele>
        <time>2021-05-23T05:41:34Z</time>
      </trkpt>
      <trkpt lat="42.6059660" lon="-8.6450820">
        <ele>25.9</ele>
        <time>2021-05-23T05:41:35Z</time>
      </trkpt>
      <trkpt lat="42.6059660" lon="-8.6450810">
        <ele>25.9</ele>
        <time>2021-05-23T05:41:36Z</time>
      </trkpt>
      <trkpt lat="42.6059620" lon="-8.6450830">
        <ele>25.9</ele>
        <time>2021-05-23T05:41:37Z</time>
      </trkpt>
      <trkpt lat="42.6059630" lon="-8.6450840">
        <ele>25.9</ele>
        <time>2021-05-23T05:41:38Z</time>
      </trkpt>
      <trkpt lat="42.6059670" lon="-8.6450940">
        <ele>25.9</ele>
        <time>2021-05-23T05:41:39Z</time>
      </trkpt>
      <trkpt lat="42.6059780" lon="-8.6451000">
        <ele>25.9</ele>
        <time>2021-05-23T05:41:40Z</time>
      </trkpt>
      <trkpt lat="42.6059770" lon="-8.6451020">
        <ele>25.9</ele>
        <time>2021-05-23T05:41:41Z</time>
      </trkpt>
      <trkpt lat="42.6059800" lon="-8.6451080">
        <ele>25.9</ele>
        <time>2021-05-23T05:41:42Z</time>
      </trkpt>
      <trkpt lat="42.6059890" lon="-8.6451180">
        <ele>25.9</ele>
        <time>2021-05-23T05:41:43Z</time>
      </trkpt>
      <trkpt lat="42.6059890" lon="-8.6451230">
        <ele>25.9</ele>
        <time>2021-05-23T05:41:44Z</time>
      </trkpt>
      <trkpt lat="42.6059990" lon="-8.6451450">
        <ele>25.9</ele>
        <time>2021-05-23T05:41:45Z</time>
      </trkpt>
      <trkpt lat="42.6060040" lon="-8.6451490">
        <ele>25.9</ele>
        <time>2021-05-23T05:41:46Z</time>
      </trkpt>
      <trkpt lat="42.6060110" lon="-8.6451570">
        <ele>25.9</ele>
        <time>2021-05-23T05:41:47Z</time>
      </trkpt>
      <trkpt lat="42.6060150" lon="-8.6451650">
        <ele>25.9</ele>
        <time>2021-05-23T05:41:48Z</time>
      </trkpt>
      <trkpt lat="42.6060200" lon="-8.6451800">
        <ele>25.9</ele>
        <time>2021-05-23T05:41:49Z</time>
      </trkpt>
      <trkpt lat="42.6060250" lon="-8.6451990">
        <ele>25.9</ele>
        <time>2021-05-23T05:41:50Z</time>
      </trkpt>
      <trkpt lat="42.6060260" lon="-8.6452070">
        <ele>25.9</ele>
        <time>2021-05-23T05:41:51Z</time>
      </trkpt>
      <trkpt lat="42.6060240" lon="-8.6452120">
        <ele>25.9</ele>
        <time>2021-05-23T05:41:52Z</time>
      </trkpt>
      <trkpt lat="42.6060280" lon="-8.6452190">
        <ele>25.9</ele>
        <time>2021-05-23T05:41:53Z</time>
      </trkpt>
      <trkpt lat="42.6060270" lon="-8.6452150">
        <ele>25.9</ele>
        <time>2021-05-23T05:41:54Z</time>
      </trkpt>
      <trkpt lat="42.6060260" lon="-8.6452080">
        <ele>25.9</ele>
        <time>2021-05-23T05:41:55Z</time>
      </trkpt>
      <trkpt lat="42.6060290" lon="-8.6452040">
        <ele>25.9</ele>
        <time>2021-05-23T05:41:56Z</time>
      </trkpt>
      <trkpt lat="42.6060290" lon="-8.6451930">
        <ele>25.9</ele>
        <time>2021-05-23T05:41:57Z</time>
      </trkpt>
      <trkpt lat="42.6060270" lon="-8.6451840">
        <ele>25.9</ele>
        <time>2021-05-23T05:41:58Z</time>
      </trkpt>
      <trkpt lat="42.6060240" lon="-8.6451830">
        <ele>25.9</ele>
        <time>2021-05-23T05:41:59Z</time>
      </trkpt>
      <trkpt lat="42.6060240" lon="-8.6451810">
        <ele>25.9</ele>
        <time>2021-05-23T05:42:00Z</time>
      </trkpt>
      <trkpt lat="42.6060240" lon="-8.6451810">
        <ele>25.9</ele>
        <time>2021-05-23T05:42:01Z</time>
      </trkpt>
      <trkpt lat="42.6060210" lon="-8.6451820">
        <ele>25.9</ele>
        <time>2021-05-23T05:42:02Z</time>
      </trkpt>
      <trkpt lat="42.6060240" lon="-8.6451870">
        <ele>25.9</ele>
        <time>2021-05-23T05:42:03Z</time>
      </trkpt>
      <trkpt lat="42.6060290" lon="-8.6452020">
        <ele>25.9</ele>
        <time>2021-05-23T05:42:04Z</time>
      </trkpt>
      <trkpt lat="42.6060370" lon="-8.6452190">
        <ele>25.9</ele>
        <time>2021-05-23T05:42:05Z</time>
      </trkpt>
      <trkpt lat="42.6060430" lon="-8.6452240">
        <ele>25.9</ele>
        <time>2021-05-23T05:42:06Z</time>
      </trkpt>
      <trkpt lat="42.6060470" lon="-8.6452400">
        <ele>25.9</ele>
        <time>2021-05-23T05:42:07Z</time>
      </trkpt>
      <trkpt lat="42.6060510" lon="-8.6452530">
        <ele>25.9</ele>
        <time>2021-05-23T05:42:08Z</time>
      </trkpt>
      <trkpt lat="42.6060570" lon="-8.6452670">
        <ele>25.9</ele>
        <time>2021-05-23T05:42:09Z</time>
      </trkpt>
      <trkpt lat="42.6060590" lon="-8.6452740">
        <ele>25.9</ele>
        <time>2021-05-23T05:42:10Z</time>
      </trkpt>
      <trkpt lat="42.6060740" lon="-8.6452870">
        <ele>25.8</ele>
        <time>2021-05-23T05:42:11Z</time>
      </trkpt>
      <trkpt lat="42.6060860" lon="-8.6453030">
        <ele>25.8</ele>
        <time>2021-05-23T05:42:12Z</time>
      </trkpt>
      <trkpt lat="42.6060990" lon="-8.6453150">
        <ele>25.8</ele>
        <time>2021-05-23T05:42:13Z</time>
      </trkpt>
      <trkpt lat="42.6061060" lon="-8.6453130">
        <ele>25.8</ele>
        <time>2021-05-23T05:42:14Z</time>
      </trkpt>
      <trkpt lat="42.6061180" lon="-8.6453200">
        <ele>25.8</ele>
        <time>2021-05-23T05:42:15Z</time>
      </trkpt>
      <trkpt lat="42.6061310" lon="-8.6453240">
        <ele>25.8</ele>
        <time>2021-05-23T05:42:16Z</time>
      </trkpt>
      <trkpt lat="42.6061520" lon="-8.6453370">
        <ele>25.8</ele>
        <time>2021-05-23T05:42:17Z</time>
      </trkpt>
      <trkpt lat="42.6061610" lon="-8.6453450">
        <ele>25.8</ele>
        <time>2021-05-23T05:42:18Z</time>
      </trkpt>
      <trkpt lat="42.6061700" lon="-8.6453530">
        <ele>25.8</ele>
        <time>2021-05-23T05:42:19Z</time>
      </trkpt>
      <trkpt lat="42.6061800" lon="-8.6453620">
        <ele>25.8</ele>
        <time>2021-05-23T05:42:20Z</time>
      </trkpt>
      <trkpt lat="42.6061910" lon="-8.6453630">
        <ele>25.8</ele>
        <time>2021-05-23T05:42:21Z</time>
      </trkpt>
      <trkpt lat="42.6061990" lon="-8.6453700">
        <ele>25.8</ele>
        <time>2021-05-23T05:42:22Z</time>
      </trkpt>
      <trkpt lat="42.6062080" lon="-8.6453830">
        <ele>25.8</ele>
        <time>2021-05-23T05:42:23Z</time>
      </trkpt>
      <trkpt lat="42.6062210" lon="-8.6453950">
        <ele>25.8</ele>
        <time>2021-05-23T05:42:24Z</time>
      </trkpt>
      <trkpt lat="42.6062270" lon="-8.6454060">
        <ele>25.8</ele>
        <time>2021-05-23T05:42:25Z</time>
      </trkpt>
      <trkpt lat="42.6062350" lon="-8.6454070">
        <ele>25.8</ele>
        <time>2021-05-23T05:42:26Z</time>
      </trkpt>
      <trkpt lat="42.6062390" lon="-8.6454060">
        <ele>25.8</ele>
        <time>2021-05-23T05:42:27Z</time>
      </trkpt>
      <trkpt lat="42.6062500" lon="-8.6454100">
        <ele>25.8</ele>
        <time>2021-05-23T05:42:28Z</time>
      </trkpt>
      <trkpt lat="42.6062560" lon="-8.6454100">
        <ele>25.8</ele>
        <time>2021-05-23T05:42:29Z</time>
      </trkpt>
      <trkpt lat="42.6062670" lon="-8.6454090">
        <ele>25.8</ele>
        <time>2021-05-23T05:42:30Z</time>
      </trkpt>
      <trkpt lat="42.6062770" lon="-8.6454150">
        <ele>25.8</ele>
        <time>2021-05-23T05:42:31Z</time>
      </trkpt>
      <trkpt lat="42.6062870" lon="-8.6454100">
        <ele>25.8</ele>
        <time>2021-05-23T05:42:32Z</time>
      </trkpt>
      <trkpt lat="42.6062940" lon="-8.6454100">
        <ele>25.8</ele>
        <time>2021-05-23T05:42:33Z</time>
      </trkpt>
      <trkpt lat="42.6063080" lon="-8.6454200">
        <ele>25.9</ele>
        <time>2021-05-23T05:42:34Z</time>
      </trkpt>
      <trkpt lat="42.6063200" lon="-8.6454350">
        <ele>25.9</ele>
        <time>2021-05-23T05:42:35Z</time>
      </trkpt>
      <trkpt lat="42.6063240" lon="-8.6454360">
        <ele>25.9</ele>
        <time>2021-05-23T05:42:36Z</time>
      </trkpt>
      <trkpt lat="42.6063280" lon="-8.6454470">
        <ele>25.9</ele>
        <time>2021-05-23T05:42:37Z</time>
      </trkpt>
      <trkpt lat="42.6063400" lon="-8.6454450">
        <ele>25.9</ele>
        <time>2021-05-23T05:42:38Z</time>
      </trkpt>
      <trkpt lat="42.6063510" lon="-8.6454500">
        <ele>25.9</ele>
        <time>2021-05-23T05:42:39Z</time>
      </trkpt>
      <trkpt lat="42.6063600" lon="-8.6454600">
        <ele>25.9</ele>
        <time>2021-05-23T05:42:40Z</time>
      </trkpt>
      <trkpt lat="42.6063720" lon="-8.6454660">
        <ele>25.9</ele>
        <time>2021-05-23T05:42:41Z</time>
      </trkpt>
      <trkpt lat="42.6063880" lon="-8.6454580">
        <ele>25.9</ele>
        <time>2021-05-23T05:42:42Z</time>
      </trkpt>
      <trkpt lat="42.6064070" lon="-8.6454690">
        <ele>25.9</ele>
        <time>2021-05-23T05:42:43Z</time>
      </trkpt>
      <trkpt lat="42.6064170" lon="-8.6454620">
        <ele>26.0</ele>
        <time>2021-05-23T05:42:44Z</time>
      </trkpt>
      <trkpt lat="42.6064270" lon="-8.6454650">
        <ele>26.0</ele>
        <time>2021-05-23T05:42:45Z</time>
      </trkpt>
      <trkpt lat="42.6064430" lon="-8.6454670">
        <ele>26.0</ele>
        <time>2021-05-23T05:42:46Z</time>
      </trkpt>
      <trkpt lat="42.6064600" lon="-8.6454750">
        <ele>26.0</ele>
        <time>2021-05-23T05:42:47Z</time>
      </trkpt>
      <trkpt lat="42.6064720" lon="-8.6454710">
        <ele>26.0</ele>
        <time>2021-05-23T05:42:48Z</time>
      </trkpt>
      <trkpt lat="42.6064820" lon="-8.6454690">
        <ele>26.0</ele>
        <time>2021-05-23T05:42:49Z</time>
      </trkpt>
      <trkpt lat="42.6064940" lon="-8.6454660">
        <ele>26.0</ele>
        <time>2021-05-23T05:42:50Z</time>
      </trkpt>
      <trkpt lat="42.6065060" lon="-8.6454570">
        <ele>26.0</ele>
        <time>2021-05-23T05:42:51Z</time>
      </trkpt>
      <trkpt lat="42.6065270" lon="-8.6454540">
        <ele>26.1</ele>
        <time>2021-05-23T05:42:52Z</time>
      </trkpt>
      <trkpt lat="42.6065330" lon="-8.6454570">
        <ele>26.1</ele>
        <time>2021-05-23T05:42:53Z</time>
      </trkpt>
      <trkpt lat="42.6065380" lon="-8.6454590">
        <ele>26.1</ele>
        <time>2021-05-23T05:42:54Z</time>
      </trkpt>
      <trkpt lat="42.6065440" lon="-8.6454620">
        <ele>26.1</ele>
        <time>2021-05-23T05:42:55Z</time>
      </trkpt>
      <trkpt lat="42.6065500" lon="-8.6454640">
        <ele>26.1</ele>
        <time>2021-05-23T05:42:56Z</time>
      </trkpt>
      <trkpt lat="42.6065620" lon="-8.6454630">
        <ele>26.1</ele>
        <time>2021-05-23T05:42:57Z</time>
      </trkpt>
      <trkpt lat="42.6065770" lon="-8.6454750">
        <ele>26.1</ele>
        <time>2021-05-23T05:42:58Z</time>
      </trkpt>
      <trkpt lat="42.6065860" lon="-8.6454770">
        <ele>26.1</ele>
        <time>2021-05-23T05:42:59Z</time>
      </trkpt>
      <trkpt lat="42.6065930" lon="-8.6454930">
        <ele>26.1</ele>
        <time>2021-05-23T05:43:00Z</time>
      </trkpt>
      <trkpt lat="42.6066100" lon="-8.6454780">
        <ele>26.2</ele>
        <time>2021-05-23T05:43:01Z</time>
      </trkpt>
      <trkpt lat="42.6066380" lon="-8.6454760">
        <ele>26.2</ele>
        <time>2021-05-23T05:43:02Z</time>
      </trkpt>
      <trkpt lat="42.6066490" lon="-8.6454730">
        <ele>26.2</ele>
        <time>2021-05-23T05:43:03Z</time>
      </trkpt>
      <trkpt lat="42.6066690" lon="-8.6454740">
        <ele>26.2</ele>
        <time>2021-05-23T05:43:04Z</time>
      </trkpt>
      <trkpt lat="42.6066840" lon="-8.6454770">
        <ele>26.2</ele>
        <time>2021-05-23T05:43:05Z</time>
      </trkpt>
      <trkpt lat="42.6067040" lon="-8.6454820">
        <ele>26.2</ele>
        <time>2021-05-23T05:43:06Z</time>
      </trkpt>
      <trkpt lat="42.6067180" lon="-8.6454830">
        <ele>26.2</ele>
        <time>2021-05-23T05:43:07Z</time>
      </trkpt>
      <trkpt lat="42.6067310" lon="-8.6454830">
        <ele>26.3</ele>
        <time>2021-05-23T05:43:08Z</time>
      </trkpt>
      <trkpt lat="42.6067390" lon="-8.6454970">
        <ele>26.3</ele>
        <time>2021-05-23T05:43:09Z</time>
      </trkpt>
      <trkpt lat="42.6067610" lon="-8.6455020">
        <ele>26.3</ele>
        <time>2021-05-23T05:43:10Z</time>
      </trkpt>
      <trkpt lat="42.6067820" lon="-8.6455020">
        <ele>26.3</ele>
        <time>2021-05-23T05:43:11Z</time>
      </trkpt>
      <trkpt lat="42.6067920" lon="-8.6455000">
        <ele>26.3</ele>
        <time>2021-05-23T05:43:12Z</time>
      </trkpt>
      <trkpt lat="42.6068020" lon="-8.6454990">
        <ele>26.3</ele>
        <time>2021-05-23T05:43:13Z</time>
      </trkpt>
      <trkpt lat="42.6068260" lon="-8.6455000">
        <ele>26.3</ele>
        <time>2021-05-23T05:43:14Z</time>
      </trkpt>
      <trkpt lat="42.6068320" lon="-8.6454970">
        <ele>26.4</ele>
        <time>2021-05-23T05:43:15Z</time>
      </trkpt>
      <trkpt lat="42.6068390" lon="-8.6454930">
        <ele>26.4</ele>
        <time>2021-05-23T05:43:16Z</time>
      </trkpt>
      <trkpt lat="42.6068480" lon="-8.6454900">
        <ele>26.4</ele>
        <time>2021-05-23T05:43:17Z</time>
      </trkpt>
      <trkpt lat="42.6068560" lon="-8.6454920">
        <ele>26.4</ele>
        <time>2021-05-23T05:43:18Z</time>
      </trkpt>
      <trkpt lat="42.6068730" lon="-8.6454860">
        <ele>26.4</ele>
        <time>2021-05-23T05:43:19Z</time>
      </trkpt>
      <trkpt lat="42.6068840" lon="-8.6454830">
        <ele>26.4</ele>
        <time>2021-05-23T05:43:20Z</time>
      </trkpt>
      <trkpt lat="42.6069000" lon="-8.6454800">
        <ele>26.4</ele>
        <time>2021-05-23T05:43:21Z</time>
      </trkpt>
      <trkpt lat="42.6069030" lon="-8.6454810">
        <ele>26.4</ele>
        <time>2021-05-23T05:43:22Z</time>
      </trkpt>
      <trkpt lat="42.6069020" lon="-8.6454780">
        <ele>26.4</ele>
        <time>2021-05-23T05:43:23Z</time>
      </trkpt>
      <trkpt lat="42.6069170" lon="-8.6454770">
        <ele>26.5</ele>
        <time>2021-05-23T05:43:24Z</time>
      </trkpt>
      <trkpt lat="42.6069320" lon="-8.6454680">
        <ele>26.5</ele>
        <time>2021-05-23T05:43:25Z</time>
      </trkpt>
      <trkpt lat="42.6069570" lon="-8.6454660">
        <ele>26.5</ele>
        <time>2021-05-23T05:43:26Z</time>
      </trkpt>
      <trkpt lat="42.6069640" lon="-8.6454640">
        <ele>26.5</ele>
        <time>2021-05-23T05:43:27Z</time>
      </trkpt>
      <trkpt lat="42.6069720" lon="-8.6454620">
        <ele>26.5</ele>
        <time>2021-05-23T05:43:28Z</time>
      </trkpt>
      <trkpt lat="42.6069790" lon="-8.6454600">
        <ele>26.5</ele>
        <time>2021-05-23T05:43:29Z</time>
      </trkpt>
      <trkpt lat="42.6069870" lon="-8.6454580">
        <ele>26.6</ele>
        <time>2021-05-23T05:43:30Z</time>
      </trkpt>
      <trkpt lat="42.6069940" lon="-8.6454550">
        <ele>26.6</ele>
        <time>2021-05-23T05:43:31Z</time>
      </trkpt>
      <trkpt lat="42.6070020" lon="-8.6454530">
        <ele>26.6</ele>
        <time>2021-05-23T05:43:32Z</time>
      </trkpt>
      <trkpt lat="42.6070090" lon="-8.6454510">
        <ele>26.6</ele>
        <time>2021-05-23T05:43:33Z</time>
      </trkpt>
      <trkpt lat="42.6070170" lon="-8.6454490">
        <ele>26.6</ele>
        <time>2021-05-23T05:43:34Z</time>
      </trkpt>
      <trkpt lat="42.6070240" lon="-8.6454470">
        <ele>26.6</ele>
        <time>2021-05-23T05:43:35Z</time>
      </trkpt>
      <trkpt lat="42.6070320" lon="-8.6454450">
        <ele>26.6</ele>
        <time>2021-05-23T05:43:36Z</time>
      </trkpt>
      <trkpt lat="42.6070640" lon="-8.6454530">
        <ele>26.7</ele>
        <time>2021-05-23T05:43:37Z</time>
      </trkpt>
      <trkpt lat="42.6070790" lon="-8.6454540">
        <ele>26.7</ele>
        <time>2021-05-23T05:43:38Z</time>
      </trkpt>
      <trkpt lat="42.6070930" lon="-8.6454550">
        <ele>26.7</ele>
        <time>2021-05-23T05:43:39Z</time>
      </trkpt>
      <trkpt lat="42.6071070" lon="-8.6454550">
        <ele>26.7</ele>
        <time>2021-05-23T05:43:40Z</time>
      </trkpt>
      <trkpt lat="42.6071210" lon="-8.6454560">
        <ele>26.8</ele>
        <time>2021-05-23T05:43:41Z</time>
      </trkpt>
      <trkpt lat="42.6071360" lon="-8.6454570">
        <ele>26.8</ele>
        <time>2021-05-23T05:43:42Z</time>
      </trkpt>
      <trkpt lat="42.6071500" lon="-8.6454580">
        <ele>26.8</ele>
        <time>2021-05-23T05:43:43Z</time>
      </trkpt>
      <trkpt lat="42.6071640" lon="-8.6454590">
        <ele>26.8</ele>
        <time>2021-05-23T05:43:44Z</time>
      </trkpt>
      <trkpt lat="42.6071920" lon="-8.6454690">
        <ele>26.9</ele>
        <time>2021-05-23T05:43:45Z</time>
      </trkpt>
      <trkpt lat="42.6072030" lon="-8.6454770">
        <ele>26.9</ele>
        <time>2021-05-23T05:43:46Z</time>
      </trkpt>
      <trkpt lat="42.6072150" lon="-8.6454860">
        <ele>26.9</ele>
        <time>2021-05-23T05:43:47Z</time>
      </trkpt>
      <trkpt lat="42.6072310" lon="-8.6454940">
        <ele>27.0</ele>
        <time>2021-05-23T05:43:48Z</time>
      </trkpt>
      <trkpt lat="42.6072420" lon="-8.6454770">
        <ele>27.0</ele>
        <time>2021-05-23T05:43:49Z</time>
      </trkpt>
      <trkpt lat="42.6072540" lon="-8.6454530">
        <ele>27.1</ele>
        <time>2021-05-23T05:43:50Z</time>
      </trkpt>
      <trkpt lat="42.6072630" lon="-8.6454470">
        <ele>27.1</ele>
        <time>2021-05-23T05:43:51Z</time>
      </trkpt>
      <trkpt lat="42.6072730" lon="-8.6454410">
        <ele>27.1</ele>
        <time>2021-05-23T05:43:52Z</time>
      </trkpt>
      <trkpt lat="42.6072820" lon="-8.6454350">
        <ele>27.1</ele>
        <time>2021-05-23T05:43:53Z</time>
      </trkpt>
      <trkpt lat="42.6072900" lon="-8.6454390">
        <ele>27.1</ele>
        <time>2021-05-23T05:43:54Z</time>
      </trkpt>
      <trkpt lat="42.6073030" lon="-8.6454360">
        <ele>27.2</ele>
        <time>2021-05-23T05:43:55Z</time>
      </trkpt>
      <trkpt lat="42.6073140" lon="-8.6454400">
        <ele>27.2</ele>
        <time>2021-05-23T05:43:56Z</time>
      </trkpt>
      <trkpt lat="42.6073260" lon="-8.6454330">
        <ele>27.2</ele>
        <time>2021-05-23T05:43:57Z</time>
      </trkpt>
      <trkpt lat="42.6073380" lon="-8.6454280">
        <ele>27.3</ele>
        <time>2021-05-23T05:43:58Z</time>
      </trkpt>
      <trkpt lat="42.6073470" lon="-8.6454320">
        <ele>27.3</ele>
        <time>2021-05-23T05:43:59Z</time>
      </trkpt>
      <trkpt lat="42.6073680" lon="-8.6454340">
        <ele>27.3</ele>
        <time>2021-05-23T05:44:00Z</time>
      </trkpt>
      <trkpt lat="42.6073910" lon="-8.6454370">
        <ele>27.4</ele>
        <time>2021-05-23T05:44:01Z</time>
      </trkpt>
      <trkpt lat="42.6074020" lon="-8.6454340">
        <ele>27.4</ele>
        <time>2021-05-23T05:44:02Z</time>
      </trkpt>
      <trkpt lat="42.6074120" lon="-8.6454320">
        <ele>27.4</ele>
        <time>2021-05-23T05:44:03Z</time>
      </trkpt>
      <trkpt lat="42.6074230" lon="-8.6454290">
        <ele>27.5</ele>
        <time>2021-05-23T05:44:04Z</time>
      </trkpt>
      <trkpt lat="42.6074330" lon="-8.6454260">
        <ele>27.5</ele>
        <time>2021-05-23T05:44:05Z</time>
      </trkpt>
      <trkpt lat="42.6074440" lon="-8.6454230">
        <ele>27.5</ele>
        <time>2021-05-23T05:44:06Z</time>
      </trkpt>
      <trkpt lat="42.6074540" lon="-8.6454210">
        <ele>27.6</ele>
        <time>2021-05-23T05:44:07Z</time>
      </trkpt>
      <trkpt lat="42.6074650" lon="-8.6454180">
        <ele>27.6</ele>
        <time>2021-05-23T05:44:08Z</time>
      </trkpt>
      <trkpt lat="42.6074750" lon="-8.6454150">
        <ele>27.6</ele>
        <time>2021-05-23T05:44:09Z</time>
      </trkpt>
      <trkpt lat="42.6075010" lon="-8.6454180">
        <ele>27.7</ele>
        <time>2021-05-23T05:44:10Z</time>
      </trkpt>
      <trkpt lat="42.6075110" lon="-8.6454180">
        <ele>27.7</ele>
        <time>2021-05-23T05:44:11Z</time>
      </trkpt>
      <trkpt lat="42.6075200" lon="-8.6454190">
        <ele>27.7</ele>
        <time>2021-05-23T05:44:12Z</time>
      </trkpt>
      <trkpt lat="42.6075340" lon="-8.6454270">
        <ele>27.8</ele>
        <time>2021-05-23T05:44:13Z</time>
      </trkpt>
      <trkpt lat="42.6075420" lon="-8.6454320">
        <ele>27.8</ele>
        <time>2021-05-23T05:44:14Z</time>
      </trkpt>
      <trkpt lat="42.6075510" lon="-8.6454380">
        <ele>27.8</ele>
        <time>2021-05-23T05:44:15Z</time>
      </trkpt>
      <trkpt lat="42.6075590" lon="-8.6454430">
        <ele>27.9</ele>
        <time>2021-05-23T05:44:16Z</time>
      </trkpt>
      <trkpt lat="42.6075680" lon="-8.6454480">
        <ele>27.9</ele>
        <time>2021-05-23T05:44:17Z</time>
      </trkpt>
      <trkpt lat="42.6075850" lon="-8.6454670">
        <ele>27.9</ele>
        <time>2021-05-23T05:44:18Z</time>
      </trkpt>
      <trkpt lat="42.6075940" lon="-8.6454800">
        <ele>28.0</ele>
        <time>2021-05-23T05:44:19Z</time>
      </trkpt>
      <trkpt lat="42.6076150" lon="-8.6454910">
        <ele>28.0</ele>
        <time>2021-05-23T05:44:20Z</time>
      </trkpt>
      <trkpt lat="42.6076220" lon="-8.6454780">
        <ele>28.1</ele>
        <time>2021-05-23T05:44:21Z</time>
      </trkpt>
      <trkpt lat="42.6076460" lon="-8.6454780">
        <ele>28.1</ele>
        <time>2021-05-23T05:44:22Z</time>
      </trkpt>
      <trkpt lat="42.6076530" lon="-8.6454780">
        <ele>28.1</ele>
        <time>2021-05-23T05:44:23Z</time>
      </trkpt>
      <trkpt lat="42.6076610" lon="-8.6454780">
        <ele>28.1</ele>
        <time>2021-05-23T05:44:24Z</time>
      </trkpt>
      <trkpt lat="42.6076940" lon="-8.6454690">
        <ele>28.2</ele>
        <time>2021-05-23T05:44:25Z</time>
      </trkpt>
      <trkpt lat="42.6077050" lon="-8.6454720">
        <ele>28.2</ele>
        <time>2021-05-23T05:44:26Z</time>
      </trkpt>
      <trkpt lat="42.6077160" lon="-8.6454750">
        <ele>28.2</ele>
        <time>2021-05-23T05:44:27Z</time>
      </trkpt>
      <trkpt lat="42.6077270" lon="-8.6454780">
        <ele>28.2</ele>
        <time>2021-05-23T05:44:28Z</time>
      </trkpt>
      <trkpt lat="42.6077370" lon="-8.6454820">
        <ele>28.3</ele>
        <time>2021-05-23T05:44:29Z</time>
      </trkpt>
      <trkpt lat="42.6077480" lon="-8.6454850">
        <ele>28.3</ele>
        <time>2021-05-23T05:44:30Z</time>
      </trkpt>
      <trkpt lat="42.6077590" lon="-8.6454880">
        <ele>28.3</ele>
        <time>2021-05-23T05:44:31Z</time>
      </trkpt>
      <trkpt lat="42.6077700" lon="-8.6454910">
        <ele>28.3</ele>
        <time>2021-05-23T05:44:32Z</time>
      </trkpt>
      <trkpt lat="42.6077790" lon="-8.6455010">
        <ele>28.4</ele>
        <time>2021-05-23T05:44:33Z</time>
      </trkpt>
      <trkpt lat="42.6078060" lon="-8.6454960">
        <ele>28.4</ele>
        <time>2021-05-23T05:44:34Z</time>
      </trkpt>
      <trkpt lat="42.6078320" lon="-8.6455190">
        <ele>28.5</ele>
        <time>2021-05-23T05:44:35Z</time>
      </trkpt>
      <trkpt lat="42.6078620" lon="-8.6455300">
        <ele>28.6</ele>
        <time>2021-05-23T05:44:36Z</time>
      </trkpt>
      <trkpt lat="42.6078850" lon="-8.6455250">
        <ele>28.6</ele>
        <time>2021-05-23T05:44:37Z</time>
      </trkpt>
      <trkpt lat="42.6078930" lon="-8.6455240">
        <ele>28.7</ele>
        <time>2021-05-23T05:44:38Z</time>
      </trkpt>
      <trkpt lat="42.6079010" lon="-8.6455230">
        <ele>28.7</ele>
        <time>2021-05-23T05:44:39Z</time>
      </trkpt>
      <trkpt lat="42.6079300" lon="-8.6455410">
        <ele>28.8</ele>
        <time>2021-05-23T05:44:40Z</time>
      </trkpt>
      <trkpt lat="42.6079410" lon="-8.6455490">
        <ele>28.8</ele>
        <time>2021-05-23T05:44:41Z</time>
      </trkpt>
      <trkpt lat="42.6079670" lon="-8.6455780">
        <ele>28.9</ele>
        <time>2021-05-23T05:44:42Z</time>
      </trkpt>
      <trkpt lat="42.6079750" lon="-8.6455810">
        <ele>29.0</ele>
        <time>2021-05-23T05:44:43Z</time>
      </trkpt>
      <trkpt lat="42.6079810" lon="-8.6455840">
        <ele>29.0</ele>
        <time>2021-05-23T05:44:44Z</time>
      </trkpt>
      <trkpt lat="42.6079980" lon="-8.6455890">
        <ele>29.0</ele>
        <time>2021-05-23T05:44:45Z</time>
      </trkpt>
      <trkpt lat="42.6080080" lon="-8.6455750">
        <ele>29.1</ele>
        <time>2021-05-23T05:44:46Z</time>
      </trkpt>
      <trkpt lat="42.6080170" lon="-8.6455670">
        <ele>29.1</ele>
        <time>2021-05-23T05:44:47Z</time>
      </trkpt>
      <trkpt lat="42.6080310" lon="-8.6455640">
        <ele>29.1</ele>
        <time>2021-05-23T05:44:48Z</time>
      </trkpt>
      <trkpt lat="42.6080410" lon="-8.6455560">
        <ele>29.1</ele>
        <time>2021-05-23T05:44:49Z</time>
      </trkpt>
      <trkpt lat="42.6080530" lon="-8.6455450">
        <ele>29.1</ele>
        <time>2021-05-23T05:44:50Z</time>
      </trkpt>
      <trkpt lat="42.6080640" lon="-8.6455480">
        <ele>29.1</ele>
        <time>2021-05-23T05:44:51Z</time>
      </trkpt>
      <trkpt lat="42.6080750" lon="-8.6455480">
        <ele>29.1</ele>
        <time>2021-05-23T05:44:52Z</time>
      </trkpt>
      <trkpt lat="42.6080860" lon="-8.6455470">
        <ele>29.1</ele>
        <time>2021-05-23T05:44:53Z</time>
      </trkpt>
      <trkpt lat="42.6080920" lon="-8.6455390">
        <ele>29.1</ele>
        <time>2021-05-23T05:44:54Z</time>
      </trkpt>
      <trkpt lat="42.6080990" lon="-8.6455300">
        <ele>29.1</ele>
        <time>2021-05-23T05:44:55Z</time>
      </trkpt>
      <trkpt lat="42.6081130" lon="-8.6455270">
        <ele>29.1</ele>
        <time>2021-05-23T05:44:56Z</time>
      </trkpt>
      <trkpt lat="42.6081220" lon="-8.6455250">
        <ele>29.1</ele>
        <time>2021-05-23T05:44:57Z</time>
      </trkpt>
      <trkpt lat="42.6081310" lon="-8.6455230">
        <ele>29.1</ele>
        <time>2021-05-23T05:44:58Z</time>
      </trkpt>
      <trkpt lat="42.6081400" lon="-8.6455210">
        <ele>29.1</ele>
        <time>2021-05-23T05:44:59Z</time>
      </trkpt>
      <trkpt lat="42.6081490" lon="-8.6455190">
        <ele>29.1</ele>
        <time>2021-05-23T05:45:00Z</time>
      </trkpt>
      <trkpt lat="42.6081640" lon="-8.6455170">
        <ele>29.1</ele>
        <time>2021-05-23T05:45:01Z</time>
      </trkpt>
      <trkpt lat="42.6081730" lon="-8.6455040">
        <ele>29.1</ele>
        <time>2021-05-23T05:45:02Z</time>
      </trkpt>
      <trkpt lat="42.6081820" lon="-8.6454980">
        <ele>29.1</ele>
        <time>2021-05-23T05:45:03Z</time>
      </trkpt>
      <trkpt lat="42.6081880" lon="-8.6454890">
        <ele>29.1</ele>
        <time>2021-05-23T05:45:04Z</time>
      </trkpt>
      <trkpt lat="42.6082000" lon="-8.6454690">
        <ele>29.1</ele>
        <time>2021-05-23T05:45:05Z</time>
      </trkpt>
      <trkpt lat="42.6082090" lon="-8.6454550">
        <ele>29.1</ele>
        <time>2021-05-23T05:45:06Z</time>
      </trkpt>
      <trkpt lat="42.6082110" lon="-8.6454390">
        <ele>29.1</ele>
        <time>2021-05-23T05:45:07Z</time>
      </trkpt>
      <trkpt lat="42.6082070" lon="-8.6454220">
        <ele>29.1</ele>
        <time>2021-05-23T05:45:08Z</time>
      </trkpt>
      <trkpt lat="42.6082060" lon="-8.6454070">
        <ele>29.1</ele>
        <time>2021-05-23T05:45:09Z</time>
      </trkpt>
      <trkpt lat="42.6082110" lon="-8.6453790">
        <ele>29.1</ele>
        <time>2021-05-23T05:45:10Z</time>
      </trkpt>
      <trkpt lat="42.6082110" lon="-8.6453690">
        <ele>29.1</ele>
        <time>2021-05-23T05:45:11Z</time>
      </trkpt>
      <trkpt lat="42.6082260" lon="-8.6453620">
        <ele>29.0</ele>
        <time>2021-05-23T05:45:12Z</time>
      </trkpt>
      <trkpt lat="42.6082370" lon="-8.6453520">
        <ele>29.0</ele>
        <time>2021-05-23T05:45:13Z</time>
      </trkpt>
      <trkpt lat="42.6082490" lon="-8.6453330">
        <ele>29.0</ele>
        <time>2021-05-23T05:45:14Z</time>
      </trkpt>
      <trkpt lat="42.6082620" lon="-8.6453240">
        <ele>29.0</ele>
        <time>2021-05-23T05:45:15Z</time>
      </trkpt>
      <trkpt lat="42.6082750" lon="-8.6453170">
        <ele>29.0</ele>
        <time>2021-05-23T05:45:16Z</time>
      </trkpt>
      <trkpt lat="42.6082890" lon="-8.6453020">
        <ele>29.0</ele>
        <time>2021-05-23T05:45:17Z</time>
      </trkpt>
      <trkpt lat="42.6082980" lon="-8.6452830">
        <ele>29.2</ele>
        <time>2021-05-23T05:45:18Z</time>
      </trkpt>
      <trkpt lat="42.6082990" lon="-8.6452750">
        <ele>29.2</ele>
        <time>2021-05-23T05:45:19Z</time>
      </trkpt>
      <trkpt lat="42.6082990" lon="-8.6452660">
        <ele>29.2</ele>
        <time>2021-05-23T05:45:20Z</time>
      </trkpt>
      <trkpt lat="42.6083000" lon="-8.6452580">
        <ele>29.3</ele>
        <time>2021-05-23T05:45:21Z</time>
      </trkpt>
      <trkpt lat="42.6083010" lon="-8.6452490">
        <ele>29.3</ele>
        <time>2021-05-23T05:45:22Z</time>
      </trkpt>
      <trkpt lat="42.6083020" lon="-8.6452370">
        <ele>29.3</ele>
        <time>2021-05-23T05:45:23Z</time>
      </trkpt>
      <trkpt lat="42.6083050" lon="-8.6452300">
        <ele>29.3</ele>
        <time>2021-05-23T05:45:24Z</time>
      </trkpt>
      <trkpt lat="42.6083080" lon="-8.6452270">
        <ele>29.3</ele>
        <time>2021-05-23T05:45:25Z</time>
      </trkpt>
      <trkpt lat="42.6083140" lon="-8.6452280">
        <ele>29.4</ele>
        <time>2021-05-23T05:45:26Z</time>
      </trkpt>
      <trkpt lat="42.6083260" lon="-8.6452160">
        <ele>29.4</ele>
        <time>2021-05-23T05:45:27Z</time>
      </trkpt>
      <trkpt lat="42.6083330" lon="-8.6452170">
        <ele>29.4</ele>
        <time>2021-05-23T05:45:28Z</time>
      </trkpt>
      <trkpt lat="42.6083440" lon="-8.6452020">
        <ele>29.5</ele>
        <time>2021-05-23T05:45:29Z</time>
      </trkpt>
      <trkpt lat="42.6083500" lon="-8.6451970">
        <ele>29.5</ele>
        <time>2021-05-23T05:45:30Z</time>
      </trkpt>
      <trkpt lat="42.6083590" lon="-8.6451930">
        <ele>29.5</ele>
        <time>2021-05-23T05:45:31Z</time>
      </trkpt>
      <trkpt lat="42.6083710" lon="-8.6451910">
        <ele>29.6</ele>
        <time>2021-05-23T05:45:32Z</time>
      </trkpt>
      <trkpt lat="42.6083820" lon="-8.6451980">
        <ele>29.6</ele>
        <time>2021-05-23T05:45:33Z</time>
      </trkpt>
      <trkpt lat="42.6084010" lon="-8.6451970">
        <ele>29.7</ele>
        <time>2021-05-23T05:45:34Z</time>
      </trkpt>
      <trkpt lat="42.6084070" lon="-8.6451980">
        <ele>29.7</ele>
        <time>2021-05-23T05:45:35Z</time>
      </trkpt>
      <trkpt lat="42.6084140" lon="-8.6452000">
        <ele>29.8</ele>
        <time>2021-05-23T05:45:36Z</time>
      </trkpt>
      <trkpt lat="42.6084200" lon="-8.6452010">
        <ele>29.8</ele>
        <time>2021-05-23T05:45:37Z</time>
      </trkpt>
      <trkpt lat="42.6084270" lon="-8.6452030">
        <ele>29.8</ele>
        <time>2021-05-23T05:45:38Z</time>
      </trkpt>
      <trkpt lat="42.6084360" lon="-8.6451910">
        <ele>29.9</ele>
        <time>2021-05-23T05:45:40Z</time>
      </trkpt>
      <trkpt lat="42.6084570" lon="-8.6451820">
        <ele>29.9</ele>
        <time>2021-05-23T05:45:41Z</time>
      </trkpt>
      <trkpt lat="42.6084740" lon="-8.6451870">
        <ele>30.0</ele>
        <time>2021-05-23T05:45:42Z</time>
      </trkpt>
      <trkpt lat="42.6084840" lon="-8.6451850">
        <ele>30.0</ele>
        <time>2021-05-23T05:45:43Z</time>
      </trkpt>
      <trkpt lat="42.6084940" lon="-8.6451840">
        <ele>30.1</ele>
        <time>2021-05-23T05:45:44Z</time>
      </trkpt>
      <trkpt lat="42.6084970" lon="-8.6451750">
        <ele>30.1</ele>
        <time>2021-05-23T05:45:45Z</time>
      </trkpt>
      <trkpt lat="42.6085030" lon="-8.6451700">
        <ele>30.2</ele>
        <time>2021-05-23T05:45:46Z</time>
      </trkpt>
      <trkpt lat="42.6085020" lon="-8.6451640">
        <ele>30.2</ele>
        <time>2021-05-23T05:45:47Z</time>
      </trkpt>
      <trkpt lat="42.6085240" lon="-8.6451620">
        <ele>30.3</ele>
        <time>2021-05-23T05:45:48Z</time>
      </trkpt>
      <trkpt lat="42.6085430" lon="-8.6451590">
        <ele>30.4</ele>
        <time>2021-05-23T05:45:49Z</time>
      </trkpt>
      <trkpt lat="42.6085510" lon="-8.6451530">
        <ele>30.4</ele>
        <time>2021-05-23T05:45:50Z</time>
      </trkpt>
      <trkpt lat="42.6085600" lon="-8.6451470">
        <ele>30.4</ele>
        <time>2021-05-23T05:45:51Z</time>
      </trkpt>
      <trkpt lat="42.6085830" lon="-8.6451460">
        <ele>30.5</ele>
        <time>2021-05-23T05:45:52Z</time>
      </trkpt>
      <trkpt lat="42.6085920" lon="-8.6451380">
        <ele>30.6</ele>
        <time>2021-05-23T05:45:54Z</time>
      </trkpt>
      <trkpt lat="42.6086460" lon="-8.6451520">
        <ele>30.9</ele>
        <time>2021-05-23T05:45:55Z</time>
      </trkpt>
      <trkpt lat="42.6086570" lon="-8.6451470">
        <ele>30.9</ele>
        <time>2021-05-23T05:45:56Z</time>
      </trkpt>
      <trkpt lat="42.6086820" lon="-8.6451510">
        <ele>31.0</ele>
        <time>2021-05-23T05:45:58Z</time>
      </trkpt>
      <trkpt lat="42.6086930" lon="-8.6451580">
        <ele>31.1</ele>
        <time>2021-05-23T05:45:59Z</time>
      </trkpt>
      <trkpt lat="42.6087230" lon="-8.6451460">
        <ele>31.3</ele>
        <time>2021-05-23T05:46:00Z</time>
      </trkpt>
      <trkpt lat="42.6087350" lon="-8.6451370">
        <ele>31.3</ele>
        <time>2021-05-23T05:46:01Z</time>
      </trkpt>
      <trkpt lat="42.6087560" lon="-8.6451230">
        <ele>31.4</ele>
        <time>2021-05-23T05:46:02Z</time>
      </trkpt>
      <trkpt lat="42.6087630" lon="-8.6451140">
        <ele>31.5</ele>
        <time>2021-05-23T05:46:03Z</time>
      </trkpt>
      <trkpt lat="42.6087690" lon="-8.6451040">
        <ele>31.5</ele>
        <time>2021-05-23T05:46:04Z</time>
      </trkpt>
      <trkpt lat="42.6087810" lon="-8.6451000">
        <ele>31.6</ele>
        <time>2021-05-23T05:46:05Z</time>
      </trkpt>
      <trkpt lat="42.6087870" lon="-8.6450880">
        <ele>31.7</ele>
        <time>2021-05-23T05:46:06Z</time>
      </trkpt>
      <trkpt lat="42.6087960" lon="-8.6450830">
        <ele>31.7</ele>
        <time>2021-05-23T05:46:07Z</time>
      </trkpt>
      <trkpt lat="42.6088070" lon="-8.6450770">
        <ele>31.8</ele>
        <time>2021-05-23T05:46:08Z</time>
      </trkpt>
      <trkpt lat="42.6088200" lon="-8.6450790">
        <ele>31.9</ele>
        <time>2021-05-23T05:46:09Z</time>
      </trkpt>
      <trkpt lat="42.6088310" lon="-8.6450790">
        <ele>31.9</ele>
        <time>2021-05-23T05:46:10Z</time>
      </trkpt>
      <trkpt lat="42.6088470" lon="-8.6450720">
        <ele>32.0</ele>
        <time>2021-05-23T05:46:11Z</time>
      </trkpt>
      <trkpt lat="42.6088550" lon="-8.6450760">
        <ele>32.1</ele>
        <time>2021-05-23T05:46:12Z</time>
      </trkpt>
      <trkpt lat="42.6088620" lon="-8.6450810">
        <ele>32.1</ele>
        <time>2021-05-23T05:46:13Z</time>
      </trkpt>
      <trkpt lat="42.6088700" lon="-8.6450850">
        <ele>32.2</ele>
        <time>2021-05-23T05:46:14Z</time>
      </trkpt>
      <trkpt lat="42.6088860" lon="-8.6450850">
        <ele>32.3</ele>
        <time>2021-05-23T05:46:15Z</time>
      </trkpt>
      <trkpt lat="42.6088990" lon="-8.6450850">
        <ele>32.3</ele>
        <time>2021-05-23T05:46:16Z</time>
      </trkpt>
      <trkpt lat="42.6089300" lon="-8.6450760">
        <ele>32.5</ele>
        <time>2021-05-23T05:46:17Z</time>
      </trkpt>
      <trkpt lat="42.6089380" lon="-8.6450730">
        <ele>32.6</ele>
        <time>2021-05-23T05:46:18Z</time>
      </trkpt>
      <trkpt lat="42.6089510" lon="-8.6450690">
        <ele>32.7</ele>
        <time>2021-05-23T05:46:19Z</time>
      </trkpt>
      <trkpt lat="42.6089680" lon="-8.6450640">
        <ele>32.8</ele>
        <time>2021-05-23T05:46:20Z</time>
      </trkpt>
      <trkpt lat="42.6089970" lon="-8.6450700">
        <ele>32.9</ele>
        <time>2021-05-23T05:46:21Z</time>
      </trkpt>
      <trkpt lat="42.6090050" lon="-8.6450710">
        <ele>33.0</ele>
        <time>2021-05-23T05:46:22Z</time>
      </trkpt>
      <trkpt lat="42.6090200" lon="-8.6450610">
        <ele>33.1</ele>
        <time>2021-05-23T05:46:23Z</time>
      </trkpt>
      <trkpt lat="42.6090380" lon="-8.6450620">
        <ele>33.2</ele>
        <time>2021-05-23T05:46:24Z</time>
      </trkpt>
      <trkpt lat="42.6090520" lon="-8.6450610">
        <ele>33.3</ele>
        <time>2021-05-23T05:46:25Z</time>
      </trkpt>
      <trkpt lat="42.6090670" lon="-8.6450560">
        <ele>33.4</ele>
        <time>2021-05-23T05:46:26Z</time>
      </trkpt>
      <trkpt lat="42.6090810" lon="-8.6450530">
        <ele>33.4</ele>
        <time>2021-05-23T05:46:27Z</time>
      </trkpt>
      <trkpt lat="42.6090800" lon="-8.6450280">
        <ele>33.6</ele>
        <time>2021-05-23T05:46:28Z</time>
      </trkpt>
      <trkpt lat="42.6090930" lon="-8.6450340">
        <ele>33.6</ele>
        <time>2021-05-23T05:46:29Z</time>
      </trkpt>
      <trkpt lat="42.6091110" lon="-8.6450240">
        <ele>33.8</ele>
        <time>2021-05-23T05:46:30Z</time>
      </trkpt>
      <trkpt lat="42.6091240" lon="-8.6450260">
        <ele>33.8</ele>
        <time>2021-05-23T05:46:31Z</time>
      </trkpt>
      <trkpt lat="42.6091410" lon="-8.6450240">
        <ele>33.9</ele>
        <time>2021-05-23T05:46:32Z</time>
      </trkpt>
      <trkpt lat="42.6091500" lon="-8.6450280">
        <ele>34.0</ele>
        <time>2021-05-23T05:46:33Z</time>
      </trkpt>
      <trkpt lat="42.6091580" lon="-8.6450300">
        <ele>34.0</ele>
        <time>2021-05-23T05:46:34Z</time>
      </trkpt>
      <trkpt lat="42.6091710" lon="-8.6450190">
        <ele>34.1</ele>
        <time>2021-05-23T05:46:35Z</time>
      </trkpt>
      <trkpt lat="42.6091850" lon="-8.6450080">
        <ele>34.2</ele>
        <time>2021-05-23T05:46:36Z</time>
      </trkpt>
      <trkpt lat="42.6092030" lon="-8.6450080">
        <ele>34.3</ele>
        <time>2021-05-23T05:46:37Z</time>
      </trkpt>
      <trkpt lat="42.6092060" lon="-8.6450020">
        <ele>34.4</ele>
        <time>2021-05-23T05:46:38Z</time>
      </trkpt>
      <trkpt lat="42.6092190" lon="-8.6450000">
        <ele>34.4</ele>
        <time>2021-05-23T05:46:39Z</time>
      </trkpt>
      <trkpt lat="42.6092290" lon="-8.6449900">
        <ele>34.5</ele>
        <time>2021-05-23T05:46:40Z</time>
      </trkpt>
      <trkpt lat="42.6092370" lon="-8.6449810">
        <ele>34.6</ele>
        <time>2021-05-23T05:46:41Z</time>
      </trkpt>
      <trkpt lat="42.6092430" lon="-8.6449790">
        <ele>34.6</ele>
        <time>2021-05-23T05:46:42Z</time>
      </trkpt>
      <trkpt lat="42.6092610" lon="-8.6449750">
        <ele>34.7</ele>
        <time>2021-05-23T05:46:43Z</time>
      </trkpt>
      <trkpt lat="42.6092710" lon="-8.6449730">
        <ele>34.8</ele>
        <time>2021-05-23T05:46:44Z</time>
      </trkpt>
      <trkpt lat="42.6092910" lon="-8.6449650">
        <ele>34.9</ele>
        <time>2021-05-23T05:46:45Z</time>
      </trkpt>
      <trkpt lat="42.6092990" lon="-8.6449620">
        <ele>35.0</ele>
        <time>2021-05-23T05:46:46Z</time>
      </trkpt>
      <trkpt lat="42.6093060" lon="-8.6449580">
        <ele>35.0</ele>
        <time>2021-05-23T05:46:47Z</time>
      </trkpt>
      <trkpt lat="42.6093330" lon="-8.6449600">
        <ele>35.2</ele>
        <time>2021-05-23T05:46:48Z</time>
      </trkpt>
      <trkpt lat="42.6093380" lon="-8.6449530">
        <ele>35.2</ele>
        <time>2021-05-23T05:46:49Z</time>
      </trkpt>
      <trkpt lat="42.6093430" lon="-8.6449460">
        <ele>35.3</ele>
        <time>2021-05-23T05:46:50Z</time>
      </trkpt>
      <trkpt lat="42.6093590" lon="-8.6449380">
        <ele>35.4</ele>
        <time>2021-05-23T05:46:51Z</time>
      </trkpt>
      <trkpt lat="42.6093760" lon="-8.6449320">
        <ele>35.5</ele>
        <time>2021-05-23T05:46:52Z</time>
      </trkpt>
      <trkpt lat="42.6093940" lon="-8.6449200">
        <ele>35.6</ele>
        <time>2021-05-23T05:46:53Z</time>
      </trkpt>
      <trkpt lat="42.6094040" lon="-8.6449150">
        <ele>35.7</ele>
        <time>2021-05-23T05:46:54Z</time>
      </trkpt>
      <trkpt lat="42.6094140" lon="-8.6449110">
        <ele>35.7</ele>
        <time>2021-05-23T05:46:55Z</time>
      </trkpt>
      <trkpt lat="42.6094290" lon="-8.6449040">
        <ele>35.8</ele>
        <time>2021-05-23T05:46:57Z</time>
      </trkpt>
      <trkpt lat="42.6094410" lon="-8.6448970">
        <ele>35.9</ele>
        <time>2021-05-23T05:46:58Z</time>
      </trkpt>
      <trkpt lat="42.6094540" lon="-8.6448930">
        <ele>36.0</ele>
        <time>2021-05-23T05:46:59Z</time>
      </trkpt>
      <trkpt lat="42.6094670" lon="-8.6448840">
        <ele>36.0</ele>
        <time>2021-05-23T05:47:00Z</time>
      </trkpt>
      <trkpt lat="42.6094760" lon="-8.6448810">
        <ele>36.1</ele>
        <time>2021-05-23T05:47:01Z</time>
      </trkpt>
      <trkpt lat="42.6094840" lon="-8.6448750">
        <ele>36.2</ele>
        <time>2021-05-23T05:47:02Z</time>
      </trkpt>
      <trkpt lat="42.6094900" lon="-8.6448680">
        <ele>36.2</ele>
        <time>2021-05-23T05:47:03Z</time>
      </trkpt>
      <trkpt lat="42.6094950" lon="-8.6448600">
        <ele>36.2</ele>
        <time>2021-05-23T05:47:04Z</time>
      </trkpt>
      <trkpt lat="42.6095000" lon="-8.6448530">
        <ele>36.3</ele>
        <time>2021-05-23T05:47:05Z</time>
      </trkpt>
      <trkpt lat="42.6095110" lon="-8.6448460">
        <ele>36.4</ele>
        <time>2021-05-23T05:47:06Z</time>
      </trkpt>
      <trkpt lat="42.6095270" lon="-8.6448430">
        <ele>36.5</ele>
        <time>2021-05-23T05:47:07Z</time>
      </trkpt>
      <trkpt lat="42.6095460" lon="-8.6448390">
        <ele>36.6</ele>
        <time>2021-05-23T05:47:08Z</time>
      </trkpt>
      <trkpt lat="42.6095630" lon="-8.6448410">
        <ele>36.6</ele>
        <time>2021-05-23T05:47:09Z</time>
      </trkpt>
      <trkpt lat="42.6095740" lon="-8.6448370">
        <ele>36.6</ele>
        <time>2021-05-23T05:47:10Z</time>
      </trkpt>
      <trkpt lat="42.6095860" lon="-8.6448320">
        <ele>36.6</ele>
        <time>2021-05-23T05:47:11Z</time>
      </trkpt>
      <trkpt lat="42.6095940" lon="-8.6448270">
        <ele>36.6</ele>
        <time>2021-05-23T05:47:12Z</time>
      </trkpt>
      <trkpt lat="42.6096100" lon="-8.6448240">
        <ele>36.6</ele>
        <time>2021-05-23T05:47:13Z</time>
      </trkpt>
      <trkpt lat="42.6096240" lon="-8.6448170">
        <ele>36.6</ele>
        <time>2021-05-23T05:47:14Z</time>
      </trkpt>
      <trkpt lat="42.6096300" lon="-8.6448090">
        <ele>36.6</ele>
        <time>2021-05-23T05:47:15Z</time>
      </trkpt>
      <trkpt lat="42.6096400" lon="-8.6447990">
        <ele>36.6</ele>
        <time>2021-05-23T05:47:16Z</time>
      </trkpt>
      <trkpt lat="42.6096430" lon="-8.6447900">
        <ele>36.6</ele>
        <time>2021-05-23T05:47:17Z</time>
      </trkpt>
      <trkpt lat="42.6096490" lon="-8.6447880">
        <ele>36.5</ele>
        <time>2021-05-23T05:47:18Z</time>
      </trkpt>
      <trkpt lat="42.6096610" lon="-8.6447750">
        <ele>36.5</ele>
        <time>2021-05-23T05:47:19Z</time>
      </trkpt>
      <trkpt lat="42.6096670" lon="-8.6447710">
        <ele>36.5</ele>
        <time>2021-05-23T05:47:20Z</time>
      </trkpt>
      <trkpt lat="42.6096770" lon="-8.6447670">
        <ele>36.5</ele>
        <time>2021-05-23T05:47:21Z</time>
      </trkpt>
      <trkpt lat="42.6096840" lon="-8.6447480">
        <ele>36.4</ele>
        <time>2021-05-23T05:47:22Z</time>
      </trkpt>
      <trkpt lat="42.6096920" lon="-8.6447420">
        <ele>36.4</ele>
        <time>2021-05-23T05:47:23Z</time>
      </trkpt>
      <trkpt lat="42.6096910" lon="-8.6447410">
        <ele>36.4</ele>
        <time>2021-05-23T05:47:24Z</time>
      </trkpt>
      <trkpt lat="42.6097050" lon="-8.6447440">
        <ele>36.4</ele>
        <time>2021-05-23T05:47:25Z</time>
      </trkpt>
      <trkpt lat="42.6097120" lon="-8.6447400">
        <ele>36.3</ele>
        <time>2021-05-23T05:47:26Z</time>
      </trkpt>
      <trkpt lat="42.6097260" lon="-8.6447410">
        <ele>36.3</ele>
        <time>2021-05-23T05:47:27Z</time>
      </trkpt>
      <trkpt lat="42.6097360" lon="-8.6447170">
        <ele>36.3</ele>
        <time>2021-05-23T05:47:28Z</time>
      </trkpt>
      <trkpt lat="42.6097410" lon="-8.6447080">
        <ele>36.2</ele>
        <time>2021-05-23T05:47:29Z</time>
      </trkpt>
      <trkpt lat="42.6097450" lon="-8.6446990">
        <ele>36.2</ele>
        <time>2021-05-23T05:47:30Z</time>
      </trkpt>
      <trkpt lat="42.6097500" lon="-8.6446880">
        <ele>36.2</ele>
        <time>2021-05-23T05:47:31Z</time>
      </trkpt>
      <trkpt lat="42.6097550" lon="-8.6446780">
        <ele>36.2</ele>
        <time>2021-05-23T05:47:32Z</time>
      </trkpt>
      <trkpt lat="42.6097670" lon="-8.6446670">
        <ele>36.1</ele>
        <time>2021-05-23T05:47:33Z</time>
      </trkpt>
      <trkpt lat="42.6097800" lon="-8.6446610">
        <ele>36.1</ele>
        <time>2021-05-23T05:47:34Z</time>
      </trkpt>
      <trkpt lat="42.6097940" lon="-8.6446610">
        <ele>36.0</ele>
        <time>2021-05-23T05:47:35Z</time>
      </trkpt>
      <trkpt lat="42.6098120" lon="-8.6446400">
        <ele>36.0</ele>
        <time>2021-05-23T05:47:36Z</time>
      </trkpt>
      <trkpt lat="42.6098170" lon="-8.6446290">
        <ele>35.9</ele>
        <time>2021-05-23T05:47:37Z</time>
      </trkpt>
      <trkpt lat="42.6098210" lon="-8.6446190">
        <ele>35.9</ele>
        <time>2021-05-23T05:47:38Z</time>
      </trkpt>
      <trkpt lat="42.6098330" lon="-8.6446140">
        <ele>35.9</ele>
        <time>2021-05-23T05:47:39Z</time>
      </trkpt>
      <trkpt lat="42.6098410" lon="-8.6446010">
        <ele>35.8</ele>
        <time>2021-05-23T05:47:40Z</time>
      </trkpt>
      <trkpt lat="42.6098500" lon="-8.6446040">
        <ele>35.8</ele>
        <time>2021-05-23T05:47:41Z</time>
      </trkpt>
      <trkpt lat="42.6098600" lon="-8.6445900">
        <ele>35.8</ele>
        <time>2021-05-23T05:47:42Z</time>
      </trkpt>
      <trkpt lat="42.6098750" lon="-8.6445840">
        <ele>35.7</ele>
        <time>2021-05-23T05:47:43Z</time>
      </trkpt>
      <trkpt lat="42.6098840" lon="-8.6445690">
        <ele>35.7</ele>
        <time>2021-05-23T05:47:44Z</time>
      </trkpt>
      <trkpt lat="42.6098940" lon="-8.6445560">
        <ele>35.6</ele>
        <time>2021-05-23T05:47:45Z</time>
      </trkpt>
      <trkpt lat="42.6099040" lon="-8.6445400">
        <ele>35.6</ele>
        <time>2021-05-23T05:47:46Z</time>
      </trkpt>
      <trkpt lat="42.6099150" lon="-8.6445240">
        <ele>35.5</ele>
        <time>2021-05-23T05:47:47Z</time>
      </trkpt>
      <trkpt lat="42.6099210" lon="-8.6445110">
        <ele>35.5</ele>
        <time>2021-05-23T05:47:48Z</time>
      </trkpt>
      <trkpt lat="42.6099280" lon="-8.6445090">
        <ele>35.5</ele>
        <time>2021-05-23T05:47:49Z</time>
      </trkpt>
      <trkpt lat="42.6099310" lon="-8.6445030">
        <ele>35.5</ele>
        <time>2021-05-23T05:47:50Z</time>
      </trkpt>
      <trkpt lat="42.6099460" lon="-8.6444970">
        <ele>35.4</ele>
        <time>2021-05-23T05:47:51Z</time>
      </trkpt>
      <trkpt lat="42.6099600" lon="-8.6444900">
        <ele>35.4</ele>
        <time>2021-05-23T05:47:52Z</time>
      </trkpt>
      <trkpt lat="42.6099730" lon="-8.6444750">
        <ele>35.3</ele>
        <time>2021-05-23T05:47:53Z</time>
      </trkpt>
      <trkpt lat="42.6099860" lon="-8.6444610">
        <ele>35.2</ele>
        <time>2021-05-23T05:47:54Z</time>
      </trkpt>
      <trkpt lat="42.6100020" lon="-8.6444540">
        <ele>35.2</ele>
        <time>2021-05-23T05:47:55Z</time>
      </trkpt>
      <trkpt lat="42.6100110" lon="-8.6444450">
        <ele>35.1</ele>
        <time>2021-05-23T05:47:56Z</time>
      </trkpt>
      <trkpt lat="42.6100300" lon="-8.6444350">
        <ele>35.0</ele>
        <time>2021-05-23T05:47:57Z</time>
      </trkpt>
      <trkpt lat="42.6100500" lon="-8.6444290">
        <ele>35.0</ele>
        <time>2021-05-23T05:47:58Z</time>
      </trkpt>
      <trkpt lat="42.6100580" lon="-8.6444190">
        <ele>34.9</ele>
        <time>2021-05-23T05:47:59Z</time>
      </trkpt>
      <trkpt lat="42.6100620" lon="-8.6444040">
        <ele>34.9</ele>
        <time>2021-05-23T05:48:00Z</time>
      </trkpt>
      <trkpt lat="42.6100770" lon="-8.6443980">
        <ele>34.8</ele>
        <time>2021-05-23T05:48:01Z</time>
      </trkpt>
      <trkpt lat="42.6100900" lon="-8.6444020">
        <ele>34.8</ele>
        <time>2021-05-23T05:48:02Z</time>
      </trkpt>
      <trkpt lat="42.6101080" lon="-8.6444000">
        <ele>34.7</ele>
        <time>2021-05-23T05:48:03Z</time>
      </trkpt>
      <trkpt lat="42.6101180" lon="-8.6443980">
        <ele>34.7</ele>
        <time>2021-05-23T05:48:04Z</time>
      </trkpt>
      <trkpt lat="42.6101270" lon="-8.6443970">
        <ele>34.6</ele>
        <time>2021-05-23T05:48:05Z</time>
      </trkpt>
      <trkpt lat="42.6101460" lon="-8.6443870">
        <ele>34.5</ele>
        <time>2021-05-23T05:48:06Z</time>
      </trkpt>
      <trkpt lat="42.6101550" lon="-8.6443850">
        <ele>34.5</ele>
        <time>2021-05-23T05:48:07Z</time>
      </trkpt>
      <trkpt lat="42.6101630" lon="-8.6443830">
        <ele>34.5</ele>
        <time>2021-05-23T05:48:08Z</time>
      </trkpt>
      <trkpt lat="42.6101760" lon="-8.6443800">
        <ele>34.4</ele>
        <time>2021-05-23T05:48:09Z</time>
      </trkpt>
      <trkpt lat="42.6101980" lon="-8.6443840">
        <ele>34.3</ele>
        <time>2021-05-23T05:48:10Z</time>
      </trkpt>
      <trkpt lat="42.6102230" lon="-8.6443880">
        <ele>34.2</ele>
        <time>2021-05-23T05:48:11Z</time>
      </trkpt>
      <trkpt lat="42.6102280" lon="-8.6443890">
        <ele>34.2</ele>
        <time>2021-05-23T05:48:12Z</time>
      </trkpt>
      <trkpt lat="42.6102340" lon="-8.6443890">
        <ele>34.2</ele>
        <time>2021-05-23T05:48:13Z</time>
      </trkpt>
      <trkpt lat="42.6102460" lon="-8.6443950">
        <ele>34.2</ele>
        <time>2021-05-23T05:48:14Z</time>
      </trkpt>
      <trkpt lat="42.6102520" lon="-8.6443980">
        <ele>34.1</ele>
        <time>2021-05-23T05:48:15Z</time>
      </trkpt>
      <trkpt lat="42.6102650" lon="-8.6443970">
        <ele>34.1</ele>
        <time>2021-05-23T05:48:16Z</time>
      </trkpt>
      <trkpt lat="42.6102850" lon="-8.6444040">
        <ele>34.0</ele>
        <time>2021-05-23T05:48:17Z</time>
      </trkpt>
      <trkpt lat="42.6102950" lon="-8.6444100">
        <ele>34.0</ele>
        <time>2021-05-23T05:48:18Z</time>
      </trkpt>
      <trkpt lat="42.6103050" lon="-8.6444170">
        <ele>34.0</ele>
        <time>2021-05-23T05:48:19Z</time>
      </trkpt>
      <trkpt lat="42.6103150" lon="-8.6444230">
        <ele>33.9</ele>
        <time>2021-05-23T05:48:20Z</time>
      </trkpt>
      <trkpt lat="42.6103330" lon="-8.6444250">
        <ele>33.9</ele>
        <time>2021-05-23T05:48:21Z</time>
      </trkpt>
      <trkpt lat="42.6103410" lon="-8.6444300">
        <ele>33.8</ele>
        <time>2021-05-23T05:48:22Z</time>
      </trkpt>
      <trkpt lat="42.6103480" lon="-8.6444360">
        <ele>33.8</ele>
        <time>2021-05-23T05:48:23Z</time>
      </trkpt>
      <trkpt lat="42.6103550" lon="-8.6444420">
        <ele>33.8</ele>
        <time>2021-05-23T05:48:24Z</time>
      </trkpt>
      <trkpt lat="42.6103720" lon="-8.6444460">
        <ele>33.7</ele>
        <time>2021-05-23T05:48:25Z</time>
      </trkpt>
      <trkpt lat="42.6103840" lon="-8.6444500">
        <ele>33.7</ele>
        <time>2021-05-23T05:48:26Z</time>
      </trkpt>
      <trkpt lat="42.6103850" lon="-8.6444490">
        <ele>33.7</ele>
        <time>2021-05-23T05:48:27Z</time>
      </trkpt>
      <trkpt lat="42.6104010" lon="-8.6444560">
        <ele>33.7</ele>
        <time>2021-05-23T05:48:28Z</time>
      </trkpt>
      <trkpt lat="42.6104170" lon="-8.6444640">
        <ele>33.6</ele>
        <time>2021-05-23T05:48:29Z</time>
      </trkpt>
      <trkpt lat="42.6104370" lon="-8.6444710">
        <ele>33.6</ele>
        <time>2021-05-23T05:48:30Z</time>
      </trkpt>
      <trkpt lat="42.6104490" lon="-8.6444710">
        <ele>33.5</ele>
        <time>2021-05-23T05:48:31Z</time>
      </trkpt>
      <trkpt lat="42.6104690" lon="-8.6444750">
        <ele>33.5</ele>
        <time>2021-05-23T05:48:32Z</time>
      </trkpt>
      <trkpt lat="42.6104800" lon="-8.6444790">
        <ele>33.5</ele>
        <time>2021-05-23T05:48:33Z</time>
      </trkpt>
      <trkpt lat="42.6104920" lon="-8.6444820">
        <ele>33.4</ele>
        <time>2021-05-23T05:48:34Z</time>
      </trkpt>
      <trkpt lat="42.6105020" lon="-8.6444940">
        <ele>33.4</ele>
        <time>2021-05-23T05:48:35Z</time>
      </trkpt>
      <trkpt lat="42.6105190" lon="-8.6444930">
        <ele>33.4</ele>
        <time>2021-05-23T05:48:36Z</time>
      </trkpt>
      <trkpt lat="42.6105330" lon="-8.6444930">
        <ele>33.3</ele>
        <time>2021-05-23T05:48:37Z</time>
      </trkpt>
      <trkpt lat="42.6105480" lon="-8.6444900">
        <ele>33.3</ele>
        <time>2021-05-23T05:48:38Z</time>
      </trkpt>
      <trkpt lat="42.6105790" lon="-8.6444940">
        <ele>33.3</ele>
        <time>2021-05-23T05:48:39Z</time>
      </trkpt>
      <trkpt lat="42.6105870" lon="-8.6444930">
        <ele>33.3</ele>
        <time>2021-05-23T05:48:40Z</time>
      </trkpt>
      <trkpt lat="42.6106010" lon="-8.6444930">
        <ele>33.3</ele>
        <time>2021-05-23T05:48:41Z</time>
      </trkpt>
      <trkpt lat="42.6106140" lon="-8.6444990">
        <ele>33.2</ele>
        <time>2021-05-23T05:48:42Z</time>
      </trkpt>
      <trkpt lat="42.6106560" lon="-8.6445080">
        <ele>33.2</ele>
        <time>2021-05-23T05:48:44Z</time>
      </trkpt>
      <trkpt lat="42.6106680" lon="-8.6445150">
        <ele>33.2</ele>
        <time>2021-05-23T05:48:45Z</time>
      </trkpt>
      <trkpt lat="42.6106800" lon="-8.6445210">
        <ele>33.1</ele>
        <time>2021-05-23T05:48:46Z</time>
      </trkpt>
      <trkpt lat="42.6106990" lon="-8.6445240">
        <ele>33.1</ele>
        <time>2021-05-23T05:48:47Z</time>
      </trkpt>
      <trkpt lat="42.6107150" lon="-8.6445150">
        <ele>33.1</ele>
        <time>2021-05-23T05:48:48Z</time>
      </trkpt>
      <trkpt lat="42.6107410" lon="-8.6445330">
        <ele>33.1</ele>
        <time>2021-05-23T05:48:49Z</time>
      </trkpt>
      <trkpt lat="42.6107490" lon="-8.6445350">
        <ele>33.1</ele>
        <time>2021-05-23T05:48:50Z</time>
      </trkpt>
      <trkpt lat="42.6107660" lon="-8.6445320">
        <ele>33.0</ele>
        <time>2021-05-23T05:48:51Z</time>
      </trkpt>
      <trkpt lat="42.6107830" lon="-8.6445330">
        <ele>33.0</ele>
        <time>2021-05-23T05:48:52Z</time>
      </trkpt>
      <trkpt lat="42.6108010" lon="-8.6445320">
        <ele>33.0</ele>
        <time>2021-05-23T05:48:53Z</time>
      </trkpt>
      <trkpt lat="42.6108190" lon="-8.6445270">
        <ele>33.0</ele>
        <time>2021-05-23T05:48:54Z</time>
      </trkpt>
      <trkpt lat="42.6108350" lon="-8.6445290">
        <ele>33.0</ele>
        <time>2021-05-23T05:48:55Z</time>
      </trkpt>
      <trkpt lat="42.6108510" lon="-8.6445340">
        <ele>33.0</ele>
        <time>2021-05-23T05:48:56Z</time>
      </trkpt>
      <trkpt lat="42.6108670" lon="-8.6445290">
        <ele>33.0</ele>
        <time>2021-05-23T05:48:57Z</time>
      </trkpt>
      <trkpt lat="42.6108810" lon="-8.6445310">
        <ele>32.9</ele>
        <time>2021-05-23T05:48:58Z</time>
      </trkpt>
      <trkpt lat="42.6108960" lon="-8.6445260">
        <ele>32.9</ele>
        <time>2021-05-23T05:48:59Z</time>
      </trkpt>
      <trkpt lat="42.6109120" lon="-8.6445270">
        <ele>32.9</ele>
        <time>2021-05-23T05:49:00Z</time>
      </trkpt>
      <trkpt lat="42.6109340" lon="-8.6445240">
        <ele>32.9</ele>
        <time>2021-05-23T05:49:01Z</time>
      </trkpt>
      <trkpt lat="42.6109430" lon="-8.6445250">
        <ele>32.9</ele>
        <time>2021-05-23T05:49:02Z</time>
      </trkpt>
      <trkpt lat="42.6109520" lon="-8.6445250">
        <ele>32.9</ele>
        <time>2021-05-23T05:49:03Z</time>
      </trkpt>
      <trkpt lat="42.6109730" lon="-8.6445200">
        <ele>32.9</ele>
        <time>2021-05-23T05:49:04Z</time>
      </trkpt>
      <trkpt lat="42.6109830" lon="-8.6445200">
        <ele>32.9</ele>
        <time>2021-05-23T05:49:05Z</time>
      </trkpt>
      <trkpt lat="42.6109930" lon="-8.6445190">
        <ele>32.9</ele>
        <time>2021-05-23T05:49:06Z</time>
      </trkpt>
      <trkpt lat="42.6110100" lon="-8.6445120">
        <ele>32.8</ele>
        <time>2021-05-23T05:49:07Z</time>
      </trkpt>
      <trkpt lat="42.6110260" lon="-8.6445050">
        <ele>32.8</ele>
        <time>2021-05-23T05:49:08Z</time>
      </trkpt>
      <trkpt lat="42.6110400" lon="-8.6445000">
        <ele>32.8</ele>
        <time>2021-05-23T05:49:09Z</time>
      </trkpt>
      <trkpt lat="42.6110550" lon="-8.6444960">
        <ele>32.8</ele>
        <time>2021-05-23T05:49:10Z</time>
      </trkpt>
      <trkpt lat="42.6110690" lon="-8.6444860">
        <ele>32.8</ele>
        <time>2021-05-23T05:49:11Z</time>
      </trkpt>
      <trkpt lat="42.6110830" lon="-8.6444830">
        <ele>32.8</ele>
        <time>2021-05-23T05:49:12Z</time>
      </trkpt>
      <trkpt lat="42.6110970" lon="-8.6444780">
        <ele>32.8</ele>
        <time>2021-05-23T05:49:13Z</time>
      </trkpt>
      <trkpt lat="42.6111090" lon="-8.6444660">
        <ele>32.8</ele>
        <time>2021-05-23T05:49:14Z</time>
      </trkpt>
      <trkpt lat="42.6111210" lon="-8.6444630">
        <ele>32.8</ele>
        <time>2021-05-23T05:49:15Z</time>
      </trkpt>
      <trkpt lat="42.6111340" lon="-8.6444560">
        <ele>32.8</ele>
        <time>2021-05-23T05:49:16Z</time>
      </trkpt>
      <trkpt lat="42.6111600" lon="-8.6444420">
        <ele>32.8</ele>
        <time>2021-05-23T05:49:18Z</time>
      </trkpt>
      <trkpt lat="42.6111750" lon="-8.6444370">
        <ele>32.8</ele>
        <time>2021-05-23T05:49:20Z</time>
      </trkpt>
      <trkpt lat="42.6111880" lon="-8.6444290">
        <ele>32.8</ele>
        <time>2021-05-23T05:49:21Z</time>
      </trkpt>
      <trkpt lat="42.6112010" lon="-8.6444190">
        <ele>32.7</ele>
        <time>2021-05-23T05:49:22Z</time>
      </trkpt>
      <trkpt lat="42.6112120" lon="-8.6444110">
        <ele>32.7</ele>
        <time>2021-05-23T05:49:23Z</time>
      </trkpt>
      <trkpt lat="42.6112270" lon="-8.6444050">
        <ele>32.7</ele>
        <time>2021-05-23T05:49:24Z</time>
      </trkpt>
      <trkpt lat="42.6112400" lon="-8.6444000">
        <ele>32.7</ele>
        <time>2021-05-23T05:49:25Z</time>
      </trkpt>
      <trkpt lat="42.6112580" lon="-8.6444050">
        <ele>32.7</ele>
        <time>2021-05-23T05:49:26Z</time>
      </trkpt>
      <trkpt lat="42.6112790" lon="-8.6443960">
        <ele>32.7</ele>
        <time>2021-05-23T05:49:27Z</time>
      </trkpt>
      <trkpt lat="42.6112870" lon="-8.6443910">
        <ele>32.7</ele>
        <time>2021-05-23T05:49:28Z</time>
      </trkpt>
      <trkpt lat="42.6112950" lon="-8.6443860">
        <ele>32.7</ele>
        <time>2021-05-23T05:49:29Z</time>
      </trkpt>
      <trkpt lat="42.6113070" lon="-8.6443770">
        <ele>32.7</ele>
        <time>2021-05-23T05:49:30Z</time>
      </trkpt>
      <trkpt lat="42.6113170" lon="-8.6443640">
        <ele>32.7</ele>
        <time>2021-05-23T05:49:31Z</time>
      </trkpt>
      <trkpt lat="42.6113380" lon="-8.6443560">
        <ele>32.7</ele>
        <time>2021-05-23T05:49:32Z</time>
      </trkpt>
      <trkpt lat="42.6113440" lon="-8.6443480">
        <ele>32.7</ele>
        <time>2021-05-23T05:49:33Z</time>
      </trkpt>
      <trkpt lat="42.6113510" lon="-8.6443410">
        <ele>32.7</ele>
        <time>2021-05-23T05:49:34Z</time>
      </trkpt>
      <trkpt lat="42.6113690" lon="-8.6443260">
        <ele>32.7</ele>
        <time>2021-05-23T05:49:35Z</time>
      </trkpt>
      <trkpt lat="42.6113770" lon="-8.6443190">
        <ele>32.7</ele>
        <time>2021-05-23T05:49:36Z</time>
      </trkpt>
      <trkpt lat="42.6113850" lon="-8.6443130">
        <ele>32.7</ele>
        <time>2021-05-23T05:49:37Z</time>
      </trkpt>
      <trkpt lat="42.6114060" lon="-8.6443070">
        <ele>32.7</ele>
        <time>2021-05-23T05:49:38Z</time>
      </trkpt>
      <trkpt lat="42.6114140" lon="-8.6443040">
        <ele>32.7</ele>
        <time>2021-05-23T05:49:39Z</time>
      </trkpt>
      <trkpt lat="42.6114220" lon="-8.6443020">
        <ele>32.7</ele>
        <time>2021-05-23T05:49:40Z</time>
      </trkpt>
      <trkpt lat="42.6114330" lon="-8.6442940">
        <ele>32.7</ele>
        <time>2021-05-23T05:49:41Z</time>
      </trkpt>
      <trkpt lat="42.6114410" lon="-8.6442920">
        <ele>32.7</ele>
        <time>2021-05-23T05:49:42Z</time>
      </trkpt>
      <trkpt lat="42.6114480" lon="-8.6442850">
        <ele>32.7</ele>
        <time>2021-05-23T05:49:43Z</time>
      </trkpt>
      <trkpt lat="42.6114450" lon="-8.6442690">
        <ele>32.7</ele>
        <time>2021-05-23T05:49:44Z</time>
      </trkpt>
      <trkpt lat="42.6114550" lon="-8.6442680">
        <ele>32.7</ele>
        <time>2021-05-23T05:49:45Z</time>
      </trkpt>
      <trkpt lat="42.6114680" lon="-8.6442600">
        <ele>32.6</ele>
        <time>2021-05-23T05:49:46Z</time>
      </trkpt>
      <trkpt lat="42.6114780" lon="-8.6442530">
        <ele>32.6</ele>
        <time>2021-05-23T05:49:47Z</time>
      </trkpt>
      <trkpt lat="42.6114940" lon="-8.6442510">
        <ele>32.6</ele>
        <time>2021-05-23T05:49:48Z</time>
      </trkpt>
      <trkpt lat="42.6115100" lon="-8.6442390">
        <ele>32.6</ele>
        <time>2021-05-23T05:49:49Z</time>
      </trkpt>
      <trkpt lat="42.6115190" lon="-8.6442380">
        <ele>32.6</ele>
        <time>2021-05-23T05:49:50Z</time>
      </trkpt>
      <trkpt lat="42.6115290" lon="-8.6442360">
        <ele>32.6</ele>
        <time>2021-05-23T05:49:51Z</time>
      </trkpt>
      <trkpt lat="42.6115420" lon="-8.6442240">
        <ele>32.6</ele>
        <time>2021-05-23T05:49:52Z</time>
      </trkpt>
      <trkpt lat="42.6115530" lon="-8.6442180">
        <ele>32.6</ele>
        <time>2021-05-23T05:49:53Z</time>
      </trkpt>
      <trkpt lat="42.6115660" lon="-8.6442060">
        <ele>32.6</ele>
        <time>2021-05-23T05:49:54Z</time>
      </trkpt>
      <trkpt lat="42.6115850" lon="-8.6442020">
        <ele>32.6</ele>
        <time>2021-05-23T05:49:55Z</time>
      </trkpt>
      <trkpt lat="42.6116020" lon="-8.6441970">
        <ele>32.6</ele>
        <time>2021-05-23T05:49:56Z</time>
      </trkpt>
      <trkpt lat="42.6116180" lon="-8.6441910">
        <ele>32.6</ele>
        <time>2021-05-23T05:49:57Z</time>
      </trkpt>
      <trkpt lat="42.6116390" lon="-8.6441860">
        <ele>32.6</ele>
        <time>2021-05-23T05:49:58Z</time>
      </trkpt>
      <trkpt lat="42.6116480" lon="-8.6441820">
        <ele>32.6</ele>
        <time>2021-05-23T05:49:59Z</time>
      </trkpt>
      <trkpt lat="42.6116560" lon="-8.6441790">
        <ele>32.5</ele>
        <time>2021-05-23T05:50:00Z</time>
      </trkpt>
      <trkpt lat="42.6116750" lon="-8.6441850">
        <ele>32.5</ele>
        <time>2021-05-23T05:50:01Z</time>
      </trkpt>
      <trkpt lat="42.6116900" lon="-8.6441830">
        <ele>32.5</ele>
        <time>2021-05-23T05:50:02Z</time>
      </trkpt>
      <trkpt lat="42.6117050" lon="-8.6441830">
        <ele>32.5</ele>
        <time>2021-05-23T05:50:03Z</time>
      </trkpt>
      <trkpt lat="42.6117180" lon="-8.6441750">
        <ele>32.5</ele>
        <time>2021-05-23T05:50:04Z</time>
      </trkpt>
      <trkpt lat="42.6117400" lon="-8.6441720">
        <ele>32.5</ele>
        <time>2021-05-23T05:50:05Z</time>
      </trkpt>
      <trkpt lat="42.6117490" lon="-8.6441730">
        <ele>32.6</ele>
        <time>2021-05-23T05:50:06Z</time>
      </trkpt>
      <trkpt lat="42.6117570" lon="-8.6441730">
        <ele>32.6</ele>
        <time>2021-05-23T05:50:07Z</time>
      </trkpt>
      <trkpt lat="42.6117720" lon="-8.6441730">
        <ele>32.6</ele>
        <time>2021-05-23T05:50:08Z</time>
      </trkpt>
      <trkpt lat="42.6117770" lon="-8.6441670">
        <ele>32.6</ele>
        <time>2021-05-23T05:50:09Z</time>
      </trkpt>
      <trkpt lat="42.6117880" lon="-8.6441570">
        <ele>32.6</ele>
        <time>2021-05-23T05:50:10Z</time>
      </trkpt>
      <trkpt lat="42.6118120" lon="-8.6441570">
        <ele>32.6</ele>
        <time>2021-05-23T05:50:11Z</time>
      </trkpt>
      <trkpt lat="42.6118190" lon="-8.6441590">
        <ele>32.6</ele>
        <time>2021-05-23T05:50:12Z</time>
      </trkpt>
      <trkpt lat="42.6118270" lon="-8.6441600">
        <ele>32.6</ele>
        <time>2021-05-23T05:50:13Z</time>
      </trkpt>
      <trkpt lat="42.6118400" lon="-8.6441560">
        <ele>32.6</ele>
        <time>2021-05-23T05:50:14Z</time>
      </trkpt>
      <trkpt lat="42.6118520" lon="-8.6441610">
        <ele>32.6</ele>
        <time>2021-05-23T05:50:15Z</time>
      </trkpt>
      <trkpt lat="42.6118630" lon="-8.6441530">
        <ele>32.6</ele>
        <time>2021-05-23T05:50:16Z</time>
      </trkpt>
      <trkpt lat="42.6118810" lon="-8.6441520">
        <ele>32.6</ele>
        <time>2021-05-23T05:50:17Z</time>
      </trkpt>
      <trkpt lat="42.6118980" lon="-8.6441550">
        <ele>32.6</ele>
        <time>2021-05-23T05:50:18Z</time>
      </trkpt>
      <trkpt lat="42.6119170" lon="-8.6441560">
        <ele>32.6</ele>
        <time>2021-05-23T05:50:19Z</time>
      </trkpt>
      <trkpt lat="42.6119280" lon="-8.6441590">
        <ele>32.6</ele>
        <time>2021-05-23T05:50:20Z</time>
      </trkpt>
      <trkpt lat="42.6119380" lon="-8.6441620">
        <ele>32.6</ele>
        <time>2021-05-23T05:50:21Z</time>
      </trkpt>
      <trkpt lat="42.6119600" lon="-8.6441580">
        <ele>32.6</ele>
        <time>2021-05-23T05:50:22Z</time>
      </trkpt>
      <trkpt lat="42.6119740" lon="-8.6441690">
        <ele>32.6</ele>
        <time>2021-05-23T05:50:23Z</time>
      </trkpt>
      <trkpt lat="42.6119920" lon="-8.6441610">
        <ele>32.6</ele>
        <time>2021-05-23T05:50:24Z</time>
      </trkpt>
      <trkpt lat="42.6120020" lon="-8.6441600">
        <ele>32.6</ele>
        <time>2021-05-23T05:50:25Z</time>
      </trkpt>
      <trkpt lat="42.6120110" lon="-8.6441590">
        <ele>32.6</ele>
        <time>2021-05-23T05:50:26Z</time>
      </trkpt>
      <trkpt lat="42.6120240" lon="-8.6441660">
        <ele>32.6</ele>
        <time>2021-05-23T05:50:27Z</time>
      </trkpt>
      <trkpt lat="42.6120390" lon="-8.6441720">
        <ele>32.6</ele>
        <time>2021-05-23T05:50:28Z</time>
      </trkpt>
      <trkpt lat="42.6120520" lon="-8.6441730">
        <ele>32.6</ele>
        <time>2021-05-23T05:50:29Z</time>
      </trkpt>
      <trkpt lat="42.6120650" lon="-8.6441770">
        <ele>32.6</ele>
        <time>2021-05-23T05:50:30Z</time>
      </trkpt>
      <trkpt lat="42.6120750" lon="-8.6441800">
        <ele>32.6</ele>
        <time>2021-05-23T05:50:31Z</time>
      </trkpt>
      <trkpt lat="42.6120900" lon="-8.6441850">
        <ele>32.6</ele>
        <time>2021-05-23T05:50:32Z</time>
      </trkpt>
      <trkpt lat="42.6121000" lon="-8.6441890">
        <ele>32.6</ele>
        <time>2021-05-23T05:50:33Z</time>
      </trkpt>
      <trkpt lat="42.6121100" lon="-8.6441920">
        <ele>32.7</ele>
        <time>2021-05-23T05:50:34Z</time>
      </trkpt>
      <trkpt lat="42.6121310" lon="-8.6441940">
        <ele>32.7</ele>
        <time>2021-05-23T05:50:35Z</time>
      </trkpt>
      <trkpt lat="42.6121400" lon="-8.6441940">
        <ele>32.7</ele>
        <time>2021-05-23T05:50:36Z</time>
      </trkpt>
      <trkpt lat="42.6121490" lon="-8.6441950">
        <ele>32.7</ele>
        <time>2021-05-23T05:50:37Z</time>
      </trkpt>
      <trkpt lat="42.6121620" lon="-8.6442010">
        <ele>32.7</ele>
        <time>2021-05-23T05:50:38Z</time>
      </trkpt>
      <trkpt lat="42.6121680" lon="-8.6442020">
        <ele>32.7</ele>
        <time>2021-05-23T05:50:39Z</time>
      </trkpt>
      <trkpt lat="42.6121770" lon="-8.6442010">
        <ele>32.7</ele>
        <time>2021-05-23T05:50:40Z</time>
      </trkpt>
      <trkpt lat="42.6121940" lon="-8.6442110">
        <ele>32.7</ele>
        <time>2021-05-23T05:50:41Z</time>
      </trkpt>
      <trkpt lat="42.6122030" lon="-8.6442170">
        <ele>32.7</ele>
        <time>2021-05-23T05:50:42Z</time>
      </trkpt>
      <trkpt lat="42.6122310" lon="-8.6442310">
        <ele>32.7</ele>
        <time>2021-05-23T05:50:43Z</time>
      </trkpt>
      <trkpt lat="42.6122380" lon="-8.6442330">
        <ele>32.7</ele>
        <time>2021-05-23T05:50:44Z</time>
      </trkpt>
      <trkpt lat="42.6122610" lon="-8.6442450">
        <ele>32.8</ele>
        <time>2021-05-23T05:50:45Z</time>
      </trkpt>
      <trkpt lat="42.6122680" lon="-8.6442490">
        <ele>32.8</ele>
        <time>2021-05-23T05:50:46Z</time>
      </trkpt>
      <trkpt lat="42.6122760" lon="-8.6442520">
        <ele>32.8</ele>
        <time>2021-05-23T05:50:47Z</time>
      </trkpt>
      <trkpt lat="42.6122930" lon="-8.6442530">
        <ele>32.8</ele>
        <time>2021-05-23T05:50:48Z</time>
      </trkpt>
      <trkpt lat="42.6123090" lon="-8.6442570">
        <ele>32.8</ele>
        <time>2021-05-23T05:50:49Z</time>
      </trkpt>
      <trkpt lat="42.6123240" lon="-8.6442610">
        <ele>32.8</ele>
        <time>2021-05-23T05:50:50Z</time>
      </trkpt>
      <trkpt lat="42.6123390" lon="-8.6442650">
        <ele>32.9</ele>
        <time>2021-05-23T05:50:51Z</time>
      </trkpt>
      <trkpt lat="42.6123510" lon="-8.6442780">
        <ele>32.9</ele>
        <time>2021-05-23T05:50:52Z</time>
      </trkpt>
      <trkpt lat="42.6123640" lon="-8.6442860">
        <ele>32.9</ele>
        <time>2021-05-23T05:50:53Z</time>
      </trkpt>
      <trkpt lat="42.6123790" lon="-8.6442880">
        <ele>32.9</ele>
        <time>2021-05-23T05:50:54Z</time>
      </trkpt>
      <trkpt lat="42.6123920" lon="-8.6442970">
        <ele>32.9</ele>
        <time>2021-05-23T05:50:55Z</time>
      </trkpt>
      <trkpt lat="42.6124050" lon="-8.6443050">
        <ele>32.9</ele>
        <time>2021-05-23T05:50:56Z</time>
      </trkpt>
      <trkpt lat="42.6124180" lon="-8.6443120">
        <ele>33.0</ele>
        <time>2021-05-23T05:50:57Z</time>
      </trkpt>
      <trkpt lat="42.6124400" lon="-8.6443200">
        <ele>33.0</ele>
        <time>2021-05-23T05:50:58Z</time>
      </trkpt>
      <trkpt lat="42.6124490" lon="-8.6443240">
        <ele>33.0</ele>
        <time>2021-05-23T05:50:59Z</time>
      </trkpt>
      <trkpt lat="42.6124590" lon="-8.6443280">
        <ele>33.0</ele>
        <time>2021-05-23T05:51:00Z</time>
      </trkpt>
      <trkpt lat="42.6124800" lon="-8.6443380">
        <ele>33.0</ele>
        <time>2021-05-23T05:51:01Z</time>
      </trkpt>
      <trkpt lat="42.6124880" lon="-8.6443420">
        <ele>33.1</ele>
        <time>2021-05-23T05:51:02Z</time>
      </trkpt>
      <trkpt lat="42.6124970" lon="-8.6443450">
        <ele>33.1</ele>
        <time>2021-05-23T05:51:03Z</time>
      </trkpt>
      <trkpt lat="42.6125100" lon="-8.6443490">
        <ele>33.1</ele>
        <time>2021-05-23T05:51:04Z</time>
      </trkpt>
      <trkpt lat="42.6125230" lon="-8.6443610">
        <ele>33.1</ele>
        <time>2021-05-23T05:51:05Z</time>
      </trkpt>
      <trkpt lat="42.6125380" lon="-8.6443720">
        <ele>33.1</ele>
        <time>2021-05-23T05:51:06Z</time>
      </trkpt>
      <trkpt lat="42.6125510" lon="-8.6443770">
        <ele>33.2</ele>
        <time>2021-05-23T05:51:07Z</time>
      </trkpt>
      <trkpt lat="42.6125640" lon="-8.6443840">
        <ele>33.2</ele>
        <time>2021-05-23T05:51:08Z</time>
      </trkpt>
      <trkpt lat="42.6125790" lon="-8.6443890">
        <ele>33.2</ele>
        <time>2021-05-23T05:51:09Z</time>
      </trkpt>
      <trkpt lat="42.6125990" lon="-8.6444010">
        <ele>33.3</ele>
        <time>2021-05-23T05:51:10Z</time>
      </trkpt>
      <trkpt lat="42.6126060" lon="-8.6444070">
        <ele>33.3</ele>
        <time>2021-05-23T05:51:11Z</time>
      </trkpt>
      <trkpt lat="42.6126140" lon="-8.6444120">
        <ele>33.3</ele>
        <time>2021-05-23T05:51:12Z</time>
      </trkpt>
      <trkpt lat="42.6126370" lon="-8.6444210">
        <ele>33.4</ele>
        <time>2021-05-23T05:51:13Z</time>
      </trkpt>
      <trkpt lat="42.6126450" lon="-8.6444240">
        <ele>33.4</ele>
        <time>2021-05-23T05:51:14Z</time>
      </trkpt>
      <trkpt lat="42.6126530" lon="-8.6444280">
        <ele>33.4</ele>
        <time>2021-05-23T05:51:15Z</time>
      </trkpt>
      <trkpt lat="42.6126700" lon="-8.6444330">
        <ele>33.4</ele>
        <time>2021-05-23T05:51:16Z</time>
      </trkpt>
      <trkpt lat="42.6126830" lon="-8.6444380">
        <ele>33.5</ele>
        <time>2021-05-23T05:51:17Z</time>
      </trkpt>
      <trkpt lat="42.6126960" lon="-8.6444430">
        <ele>33.5</ele>
        <time>2021-05-23T05:51:18Z</time>
      </trkpt>
      <trkpt lat="42.6127100" lon="-8.6444500">
        <ele>33.5</ele>
        <time>2021-05-23T05:51:19Z</time>
      </trkpt>
      <trkpt lat="42.6127240" lon="-8.6444550">
        <ele>33.6</ele>
        <time>2021-05-23T05:51:20Z</time>
      </trkpt>
      <trkpt lat="42.6127370" lon="-8.6444550">
        <ele>33.6</ele>
        <time>2021-05-23T05:51:21Z</time>
      </trkpt>
      <trkpt lat="42.6127480" lon="-8.6444620">
        <ele>33.6</ele>
        <time>2021-05-23T05:51:22Z</time>
      </trkpt>
      <trkpt lat="42.6127620" lon="-8.6444670">
        <ele>33.6</ele>
        <time>2021-05-23T05:51:23Z</time>
      </trkpt>
      <trkpt lat="42.6127820" lon="-8.6444800">
        <ele>33.7</ele>
        <time>2021-05-23T05:51:24Z</time>
      </trkpt>
      <trkpt lat="42.6127900" lon="-8.6444850">
        <ele>33.7</ele>
        <time>2021-05-23T05:51:25Z</time>
      </trkpt>
      <trkpt lat="42.6127990" lon="-8.6444890">
        <ele>33.7</ele>
        <time>2021-05-23T05:51:26Z</time>
      </trkpt>
      <trkpt lat="42.6128130" lon="-8.6444900">
        <ele>33.8</ele>
        <time>2021-05-23T05:51:27Z</time>
      </trkpt>
      <trkpt lat="42.6128280" lon="-8.6444930">
        <ele>33.8</ele>
        <time>2021-05-23T05:51:28Z</time>
      </trkpt>
      <trkpt lat="42.6128470" lon="-8.6445040">
        <ele>33.8</ele>
        <time>2021-05-23T05:51:29Z</time>
      </trkpt>
      <trkpt lat="42.6128550" lon="-8.6445090">
        <ele>33.9</ele>
        <time>2021-05-23T05:51:30Z</time>
      </trkpt>
      <trkpt lat="42.6128620" lon="-8.6445140">
        <ele>33.9</ele>
        <time>2021-05-23T05:51:31Z</time>
      </trkpt>
      <trkpt lat="42.6128780" lon="-8.6445210">
        <ele>33.9</ele>
        <time>2021-05-23T05:51:32Z</time>
      </trkpt>
      <trkpt lat="42.6128940" lon="-8.6445240">
        <ele>33.9</ele>
        <time>2021-05-23T05:51:33Z</time>
      </trkpt>
      <trkpt lat="42.6129150" lon="-8.6445380">
        <ele>34.0</ele>
        <time>2021-05-23T05:51:34Z</time>
      </trkpt>
      <trkpt lat="42.6129230" lon="-8.6445440">
        <ele>34.0</ele>
        <time>2021-05-23T05:51:35Z</time>
      </trkpt>
      <trkpt lat="42.6129310" lon="-8.6445510">
        <ele>34.1</ele>
        <time>2021-05-23T05:51:36Z</time>
      </trkpt>
      <trkpt lat="42.6129420" lon="-8.6445620">
        <ele>34.1</ele>
        <time>2021-05-23T05:51:37Z</time>
      </trkpt>
      <trkpt lat="42.6129560" lon="-8.6445720">
        <ele>34.1</ele>
        <time>2021-05-23T05:51:38Z</time>
      </trkpt>
      <trkpt lat="42.6129640" lon="-8.6445780">
        <ele>34.1</ele>
        <time>2021-05-23T05:51:39Z</time>
      </trkpt>
      <trkpt lat="42.6129710" lon="-8.6445920">
        <ele>34.2</ele>
        <time>2021-05-23T05:51:40Z</time>
      </trkpt>
      <trkpt lat="42.6129830" lon="-8.6445830">
        <ele>34.2</ele>
        <time>2021-05-23T05:51:41Z</time>
      </trkpt>
      <trkpt lat="42.6129860" lon="-8.6445660">
        <ele>34.3</ele>
        <time>2021-05-23T05:51:42Z</time>
      </trkpt>
      <trkpt lat="42.6129850" lon="-8.6445640">
        <ele>34.3</ele>
        <time>2021-05-23T05:51:43Z</time>
      </trkpt>
      <trkpt lat="42.6129920" lon="-8.6445620">
        <ele>34.3</ele>
        <time>2021-05-23T05:51:44Z</time>
      </trkpt>
      <trkpt lat="42.6129900" lon="-8.6445600">
        <ele>34.3</ele>
        <time>2021-05-23T05:51:45Z</time>
      </trkpt>
      <trkpt lat="42.6129830" lon="-8.6445570">
        <ele>34.3</ele>
        <time>2021-05-23T05:51:46Z</time>
      </trkpt>
      <trkpt lat="42.6129790" lon="-8.6445540">
        <ele>34.3</ele>
        <time>2021-05-23T05:51:47Z</time>
      </trkpt>
      <trkpt lat="42.6129780" lon="-8.6445490">
        <ele>34.3</ele>
        <time>2021-05-23T05:51:48Z</time>
      </trkpt>
      <trkpt lat="42.6129750" lon="-8.6445430">
        <ele>34.3</ele>
        <time>2021-05-23T05:51:49Z</time>
      </trkpt>
      <trkpt lat="42.6129730" lon="-8.6445400">
        <ele>34.4</ele>
        <time>2021-05-23T05:51:50Z</time>
      </trkpt>
      <trkpt lat="42.6129710" lon="-8.6445350">
        <ele>34.4</ele>
        <time>2021-05-23T05:51:51Z</time>
      </trkpt>
      <trkpt lat="42.6129690" lon="-8.6445310">
        <ele>34.4</ele>
        <time>2021-05-23T05:51:52Z</time>
      </trkpt>
      <trkpt lat="42.6129670" lon="-8.6445260">
        <ele>34.4</ele>
        <time>2021-05-23T05:51:53Z</time>
      </trkpt>
      <trkpt lat="42.6129670" lon="-8.6445190">
        <ele>34.4</ele>
        <time>2021-05-23T05:51:54Z</time>
      </trkpt>
      <trkpt lat="42.6129620" lon="-8.6445200">
        <ele>34.4</ele>
        <time>2021-05-23T05:51:55Z</time>
      </trkpt>
      <trkpt lat="42.6129650" lon="-8.6445200">
        <ele>34.4</ele>
        <time>2021-05-23T05:51:56Z</time>
      </trkpt>
      <trkpt lat="42.6129510" lon="-8.6445210">
        <ele>34.5</ele>
        <time>2021-05-23T05:51:57Z</time>
      </trkpt>
      <trkpt lat="42.6129500" lon="-8.6445210">
        <ele>34.5</ele>
        <time>2021-05-23T05:51:58Z</time>
      </trkpt>
      <trkpt lat="42.6129500" lon="-8.6445210">
        <ele>34.5</ele>
        <time>2021-05-23T05:51:59Z</time>
      </trkpt>
      <trkpt lat="42.6129450" lon="-8.6445200">
        <ele>34.5</ele>
        <time>2021-05-23T05:52:00Z</time>
      </trkpt>
      <trkpt lat="42.6129440" lon="-8.6445200">
        <ele>34.5</ele>
        <time>2021-05-23T05:52:01Z</time>
      </trkpt>
      <trkpt lat="42.6129400" lon="-8.6445220">
        <ele>34.5</ele>
        <time>2021-05-23T05:52:02Z</time>
      </trkpt>
      <trkpt lat="42.6129380" lon="-8.6445250">
        <ele>34.5</ele>
        <time>2021-05-23T05:52:03Z</time>
      </trkpt>
      <trkpt lat="42.6129390" lon="-8.6445240">
        <ele>34.5</ele>
        <time>2021-05-23T05:52:04Z</time>
      </trkpt>
      <trkpt lat="42.6129360" lon="-8.6445250">
        <ele>34.5</ele>
        <time>2021-05-23T05:52:05Z</time>
      </trkpt>
      <trkpt lat="42.6129340" lon="-8.6445240">
        <ele>34.5</ele>
        <time>2021-05-23T05:52:06Z</time>
      </trkpt>
      <trkpt lat="42.6129330" lon="-8.6445240">
        <ele>34.5</ele>
        <time>2021-05-23T05:52:07Z</time>
      </trkpt>
      <trkpt lat="42.6129280" lon="-8.6445250">
        <ele>34.5</ele>
        <time>2021-05-23T05:52:08Z</time>
      </trkpt>
      <trkpt lat="42.6129270" lon="-8.6445230">
        <ele>34.6</ele>
        <time>2021-05-23T05:52:09Z</time>
      </trkpt>
      <trkpt lat="42.6129270" lon="-8.6445230">
        <ele>34.6</ele>
        <time>2021-05-23T05:52:10Z</time>
      </trkpt>
      <trkpt lat="42.6129270" lon="-8.6445230">
        <ele>34.6</ele>
        <time>2021-05-23T05:52:11Z</time>
      </trkpt>
      <trkpt lat="42.6129270" lon="-8.6445230">
        <ele>34.6</ele>
        <time>2021-05-23T05:52:12Z</time>
      </trkpt>
      <trkpt lat="42.6129270" lon="-8.6445230">
        <ele>34.6</ele>
        <time>2021-05-23T05:52:13Z</time>
      </trkpt>
      <trkpt lat="42.6129180" lon="-8.6445250">
        <ele>34.6</ele>
        <time>2021-05-23T05:52:14Z</time>
      </trkpt>
      <trkpt lat="42.6129160" lon="-8.6445250">
        <ele>34.6</ele>
        <time>2021-05-23T05:52:15Z</time>
      </trkpt>
      <trkpt lat="42.6129190" lon="-8.6445260">
        <ele>34.6</ele>
        <time>2021-05-23T05:52:16Z</time>
      </trkpt>
      <trkpt lat="42.6129180" lon="-8.6445260">
        <ele>34.6</ele>
        <time>2021-05-23T05:52:17Z</time>
      </trkpt>
      <trkpt lat="42.6129170" lon="-8.6445260">
        <ele>34.6</ele>
        <time>2021-05-23T05:52:18Z</time>
      </trkpt>
      <trkpt lat="42.6129150" lon="-8.6445250">
        <ele>34.6</ele>
        <time>2021-05-23T05:52:19Z</time>
      </trkpt>
      <trkpt lat="42.6129150" lon="-8.6445250">
        <ele>34.6</ele>
        <time>2021-05-23T05:52:20Z</time>
      </trkpt>
      <trkpt lat="42.6129110" lon="-8.6445240">
        <ele>34.6</ele>
        <time>2021-05-23T05:52:21Z</time>
      </trkpt>
      <trkpt lat="42.6129100" lon="-8.6445240">
        <ele>34.6</ele>
        <time>2021-05-23T05:52:22Z</time>
      </trkpt>
      <trkpt lat="42.6129120" lon="-8.6445220">
        <ele>34.6</ele>
        <time>2021-05-23T05:52:23Z</time>
      </trkpt>
      <trkpt lat="42.6129130" lon="-8.6445210">
        <ele>34.6</ele>
        <time>2021-05-23T05:52:24Z</time>
      </trkpt>
      <trkpt lat="42.6129140" lon="-8.6445210">
        <ele>34.6</ele>
        <time>2021-05-23T05:52:25Z</time>
      </trkpt>
      <trkpt lat="42.6129160" lon="-8.6445200">
        <ele>34.6</ele>
        <time>2021-05-23T05:52:26Z</time>
      </trkpt>
      <trkpt lat="42.6129140" lon="-8.6445210">
        <ele>34.6</ele>
        <time>2021-05-23T05:52:27Z</time>
      </trkpt>
      <trkpt lat="42.6129120" lon="-8.6445210">
        <ele>34.6</ele>
        <time>2021-05-23T05:52:28Z</time>
      </trkpt>
      <trkpt lat="42.6129120" lon="-8.6445200">
        <ele>34.7</ele>
        <time>2021-05-23T05:52:29Z</time>
      </trkpt>
      <trkpt lat="42.6129170" lon="-8.6445210">
        <ele>34.7</ele>
        <time>2021-05-23T05:52:30Z</time>
      </trkpt>
      <trkpt lat="42.6129320" lon="-8.6445230">
        <ele>34.7</ele>
        <time>2021-05-23T05:52:31Z</time>
      </trkpt>
      <trkpt lat="42.6129440" lon="-8.6445260">
        <ele>34.7</ele>
        <time>2021-05-23T05:52:32Z</time>
      </trkpt>
      <trkpt lat="42.6129490" lon="-8.6445280">
        <ele>34.8</ele>
        <time>2021-05-23T05:52:33Z</time>
      </trkpt>
      <trkpt lat="42.6129620" lon="-8.6445400">
        <ele>34.8</ele>
        <time>2021-05-23T05:52:34Z</time>
      </trkpt>
      <trkpt lat="42.6129710" lon="-8.6445350">
        <ele>34.8</ele>
        <time>2021-05-23T05:52:35Z</time>
      </trkpt>
      <trkpt lat="42.6129820" lon="-8.6445370">
        <ele>34.9</ele>
        <time>2021-05-23T05:52:36Z</time>
      </trkpt>
      <trkpt lat="42.6130040" lon="-8.6445420">
        <ele>34.9</ele>
        <time>2021-05-23T05:52:37Z</time>
      </trkpt>
      <trkpt lat="42.6130120" lon="-8.6445460">
        <ele>35.0</ele>
        <time>2021-05-23T05:52:38Z</time>
      </trkpt>
      <trkpt lat="42.6130210" lon="-8.6445510">
        <ele>35.0</ele>
        <time>2021-05-23T05:52:39Z</time>
      </trkpt>
      <trkpt lat="42.6130320" lon="-8.6445590">
        <ele>35.1</ele>
        <time>2021-05-23T05:52:40Z</time>
      </trkpt>
      <trkpt lat="42.6130490" lon="-8.6445700">
        <ele>35.1</ele>
        <time>2021-05-23T05:52:41Z</time>
      </trkpt>
      <trkpt lat="42.6130570" lon="-8.6445720">
        <ele>35.2</ele>
        <time>2021-05-23T05:52:42Z</time>
      </trkpt>
      <trkpt lat="42.6130750" lon="-8.6445860">
        <ele>35.2</ele>
        <time>2021-05-23T05:52:43Z</time>
      </trkpt>
      <trkpt lat="42.6130860" lon="-8.6445780">
        <ele>35.3</ele>
        <time>2021-05-23T05:52:44Z</time>
      </trkpt>
      <trkpt lat="42.6130960" lon="-8.6445840">
        <ele>35.3</ele>
        <time>2021-05-23T05:52:45Z</time>
      </trkpt>
      <trkpt lat="42.6131050" lon="-8.6445870">
        <ele>35.4</ele>
        <time>2021-05-23T05:52:46Z</time>
      </trkpt>
      <trkpt lat="42.6131180" lon="-8.6445900">
        <ele>35.4</ele>
        <time>2021-05-23T05:52:47Z</time>
      </trkpt>
      <trkpt lat="42.6131350" lon="-8.6446050">
        <ele>35.5</ele>
        <time>2021-05-23T05:52:48Z</time>
      </trkpt>
      <trkpt lat="42.6131470" lon="-8.6446090">
        <ele>35.6</ele>
        <time>2021-05-23T05:52:49Z</time>
      </trkpt>
      <trkpt lat="42.6131590" lon="-8.6446150">
        <ele>35.7</ele>
        <time>2021-05-23T05:52:50Z</time>
      </trkpt>
      <trkpt lat="42.6131620" lon="-8.6446240">
        <ele>35.7</ele>
        <time>2021-05-23T05:52:51Z</time>
      </trkpt>
      <trkpt lat="42.6131630" lon="-8.6446210">
        <ele>35.7</ele>
        <time>2021-05-23T05:52:52Z</time>
      </trkpt>
      <trkpt lat="42.6131680" lon="-8.6446200">
        <ele>35.7</ele>
        <time>2021-05-23T05:52:53Z</time>
      </trkpt>
      <trkpt lat="42.6131790" lon="-8.6446170">
        <ele>35.8</ele>
        <time>2021-05-23T05:52:54Z</time>
      </trkpt>
      <trkpt lat="42.6131980" lon="-8.6446290">
        <ele>35.9</ele>
        <time>2021-05-23T05:52:55Z</time>
      </trkpt>
      <trkpt lat="42.6132090" lon="-8.6446300">
        <ele>36.0</ele>
        <time>2021-05-23T05:52:56Z</time>
      </trkpt>
      <trkpt lat="42.6132250" lon="-8.6446450">
        <ele>36.1</ele>
        <time>2021-05-23T05:52:57Z</time>
      </trkpt>
      <trkpt lat="42.6132460" lon="-8.6446610">
        <ele>36.2</ele>
        <time>2021-05-23T05:52:58Z</time>
      </trkpt>
      <trkpt lat="42.6132530" lon="-8.6446640">
        <ele>36.3</ele>
        <time>2021-05-23T05:52:59Z</time>
      </trkpt>
      <trkpt lat="42.6132610" lon="-8.6446680">
        <ele>36.3</ele>
        <time>2021-05-23T05:53:00Z</time>
      </trkpt>
      <trkpt lat="42.6132720" lon="-8.6446690">
        <ele>36.4</ele>
        <time>2021-05-23T05:53:01Z</time>
      </trkpt>
      <trkpt lat="42.6132910" lon="-8.6446760">
        <ele>36.5</ele>
        <time>2021-05-23T05:53:02Z</time>
      </trkpt>
      <trkpt lat="42.6133180" lon="-8.6446920">
        <ele>36.7</ele>
        <time>2021-05-23T05:53:03Z</time>
      </trkpt>
      <trkpt lat="42.6133280" lon="-8.6447000">
        <ele>36.7</ele>
        <time>2021-05-23T05:53:04Z</time>
      </trkpt>
      <trkpt lat="42.6133420" lon="-8.6447140">
        <ele>36.9</ele>
        <time>2021-05-23T05:53:05Z</time>
      </trkpt>
      <trkpt lat="42.6133590" lon="-8.6447250">
        <ele>37.0</ele>
        <time>2021-05-23T05:53:06Z</time>
      </trkpt>
      <trkpt lat="42.6133930" lon="-8.6447320">
        <ele>37.2</ele>
        <time>2021-05-23T05:53:07Z</time>
      </trkpt>
      <trkpt lat="42.6134030" lon="-8.6447360">
        <ele>37.3</ele>
        <time>2021-05-23T05:53:08Z</time>
      </trkpt>
      <trkpt lat="42.6134320" lon="-8.6447480">
        <ele>37.5</ele>
        <time>2021-05-23T05:53:09Z</time>
      </trkpt>
      <trkpt lat="42.6134390" lon="-8.6447540">
        <ele>37.5</ele>
        <time>2021-05-23T05:53:10Z</time>
      </trkpt>
      <trkpt lat="42.6134620" lon="-8.6447760">
        <ele>37.7</ele>
        <time>2021-05-23T05:53:11Z</time>
      </trkpt>
      <trkpt lat="42.6134690" lon="-8.6447830">
        <ele>37.8</ele>
        <time>2021-05-23T05:53:12Z</time>
      </trkpt>
      <trkpt lat="42.6134860" lon="-8.6447880">
        <ele>37.9</ele>
        <time>2021-05-23T05:53:13Z</time>
      </trkpt>
      <trkpt lat="42.6135020" lon="-8.6447930">
        <ele>38.1</ele>
        <time>2021-05-23T05:53:14Z</time>
      </trkpt>
      <trkpt lat="42.6135110" lon="-8.6447990">
        <ele>38.1</ele>
        <time>2021-05-23T05:53:15Z</time>
      </trkpt>
      <trkpt lat="42.6135210" lon="-8.6448000">
        <ele>38.2</ele>
        <time>2021-05-23T05:53:16Z</time>
      </trkpt>
      <trkpt lat="42.6135270" lon="-8.6448040">
        <ele>38.2</ele>
        <time>2021-05-23T05:53:17Z</time>
      </trkpt>
      <trkpt lat="42.6135280" lon="-8.6448080">
        <ele>38.3</ele>
        <time>2021-05-23T05:53:18Z</time>
      </trkpt>
      <trkpt lat="42.6135440" lon="-8.6448120">
        <ele>38.4</ele>
        <time>2021-05-23T05:53:19Z</time>
      </trkpt>
      <trkpt lat="42.6135520" lon="-8.6448130">
        <ele>38.5</ele>
        <time>2021-05-23T05:53:20Z</time>
      </trkpt>
      <trkpt lat="42.6135590" lon="-8.6448150">
        <ele>38.5</ele>
        <time>2021-05-23T05:53:21Z</time>
      </trkpt>
      <trkpt lat="42.6135670" lon="-8.6448170">
        <ele>38.6</ele>
        <time>2021-05-23T05:53:22Z</time>
      </trkpt>
      <trkpt lat="42.6135740" lon="-8.6448260">
        <ele>38.6</ele>
        <time>2021-05-23T05:53:23Z</time>
      </trkpt>
      <trkpt lat="42.6135850" lon="-8.6448340">
        <ele>38.7</ele>
        <time>2021-05-23T05:53:24Z</time>
      </trkpt>
      <trkpt lat="42.6135970" lon="-8.6448460">
        <ele>38.8</ele>
        <time>2021-05-23T05:53:25Z</time>
      </trkpt>
      <trkpt lat="42.6136040" lon="-8.6448470">
        <ele>38.9</ele>
        <time>2021-05-23T05:53:26Z</time>
      </trkpt>
      <trkpt lat="42.6136250" lon="-8.6448480">
        <ele>39.1</ele>
        <time>2021-05-23T05:53:27Z</time>
      </trkpt>
      <trkpt lat="42.6136370" lon="-8.6448460">
        <ele>39.2</ele>
        <time>2021-05-23T05:53:28Z</time>
      </trkpt>
      <trkpt lat="42.6136540" lon="-8.6448490">
        <ele>39.3</ele>
        <time>2021-05-23T05:53:29Z</time>
      </trkpt>
      <trkpt lat="42.6136560" lon="-8.6448580">
        <ele>39.4</ele>
        <time>2021-05-23T05:53:30Z</time>
      </trkpt>
      <trkpt lat="42.6136750" lon="-8.6448660">
        <ele>39.6</ele>
        <time>2021-05-23T05:53:31Z</time>
      </trkpt>
      <trkpt lat="42.6136820" lon="-8.6448650">
        <ele>39.6</ele>
        <time>2021-05-23T05:53:32Z</time>
      </trkpt>
      <trkpt lat="42.6137110" lon="-8.6448800">
        <ele>39.9</ele>
        <time>2021-05-23T05:53:33Z</time>
      </trkpt>
      <trkpt lat="42.6137190" lon="-8.6448820">
        <ele>40.0</ele>
        <time>2021-05-23T05:53:34Z</time>
      </trkpt>
      <trkpt lat="42.6137380" lon="-8.6448770">
        <ele>40.2</ele>
        <time>2021-05-23T05:53:35Z</time>
      </trkpt>
      <trkpt lat="42.6137480" lon="-8.6448740">
        <ele>40.3</ele>
        <time>2021-05-23T05:53:36Z</time>
      </trkpt>
      <trkpt lat="42.6137590" lon="-8.6448700">
        <ele>40.4</ele>
        <time>2021-05-23T05:53:37Z</time>
      </trkpt>
      <trkpt lat="42.6137660" lon="-8.6448690">
        <ele>40.5</ele>
        <time>2021-05-23T05:53:38Z</time>
      </trkpt>
      <trkpt lat="42.6137800" lon="-8.6448640">
        <ele>40.6</ele>
        <time>2021-05-23T05:53:39Z</time>
      </trkpt>
      <trkpt lat="42.6137900" lon="-8.6448600">
        <ele>40.7</ele>
        <time>2021-05-23T05:53:40Z</time>
      </trkpt>
      <trkpt lat="42.6138060" lon="-8.6448610">
        <ele>40.9</ele>
        <time>2021-05-23T05:53:41Z</time>
      </trkpt>
      <trkpt lat="42.6138200" lon="-8.6448530">
        <ele>41.0</ele>
        <time>2021-05-23T05:53:42Z</time>
      </trkpt>
      <trkpt lat="42.6138230" lon="-8.6448510">
        <ele>41.1</ele>
        <time>2021-05-23T05:53:43Z</time>
      </trkpt>
      <trkpt lat="42.6138340" lon="-8.6448510">
        <ele>41.2</ele>
        <time>2021-05-23T05:53:44Z</time>
      </trkpt>
      <trkpt lat="42.6138460" lon="-8.6448520">
        <ele>41.3</ele>
        <time>2021-05-23T05:53:45Z</time>
      </trkpt>
      <trkpt lat="42.6138510" lon="-8.6448520">
        <ele>41.3</ele>
        <time>2021-05-23T05:53:46Z</time>
      </trkpt>
      <trkpt lat="42.6138530" lon="-8.6448560">
        <ele>41.4</ele>
        <time>2021-05-23T05:53:47Z</time>
      </trkpt>
      <trkpt lat="42.6138650" lon="-8.6448570">
        <ele>41.5</ele>
        <time>2021-05-23T05:53:48Z</time>
      </trkpt>
      <trkpt lat="42.6138830" lon="-8.6448580">
        <ele>41.7</ele>
        <time>2021-05-23T05:53:49Z</time>
      </trkpt>
      <trkpt lat="42.6138860" lon="-8.6448540">
        <ele>41.7</ele>
        <time>2021-05-23T05:53:50Z</time>
      </trkpt>
      <trkpt lat="42.6139070" lon="-8.6448490">
        <ele>42.0</ele>
        <time>2021-05-23T05:53:51Z</time>
      </trkpt>
      <trkpt lat="42.6139150" lon="-8.6448540">
        <ele>42.0</ele>
        <time>2021-05-23T05:53:52Z</time>
      </trkpt>
      <trkpt lat="42.6139240" lon="-8.6448430">
        <ele>42.2</ele>
        <time>2021-05-23T05:53:53Z</time>
      </trkpt>
      <trkpt lat="42.6139290" lon="-8.6448400">
        <ele>42.2</ele>
        <time>2021-05-23T05:53:54Z</time>
      </trkpt>
      <trkpt lat="42.6139470" lon="-8.6448400">
        <ele>42.4</ele>
        <time>2021-05-23T05:53:55Z</time>
      </trkpt>
      <trkpt lat="42.6139640" lon="-8.6448410">
        <ele>42.6</ele>
        <time>2021-05-23T05:53:56Z</time>
      </trkpt>
      <trkpt lat="42.6139740" lon="-8.6448400">
        <ele>42.6</ele>
        <time>2021-05-23T05:53:57Z</time>
      </trkpt>
      <trkpt lat="42.6139830" lon="-8.6448380">
        <ele>42.7</ele>
        <time>2021-05-23T05:53:58Z</time>
      </trkpt>
      <trkpt lat="42.6140040" lon="-8.6448350">
        <ele>42.9</ele>
        <time>2021-05-23T05:53:59Z</time>
      </trkpt>
      <trkpt lat="42.6140130" lon="-8.6448350">
        <ele>43.0</ele>
        <time>2021-05-23T05:54:00Z</time>
      </trkpt>
      <trkpt lat="42.6140230" lon="-8.6448340">
        <ele>43.1</ele>
        <time>2021-05-23T05:54:01Z</time>
      </trkpt>
      <trkpt lat="42.6140330" lon="-8.6448260">
        <ele>43.1</ele>
        <time>2021-05-23T05:54:02Z</time>
      </trkpt>
      <trkpt lat="42.6140490" lon="-8.6448210">
        <ele>43.2</ele>
        <time>2021-05-23T05:54:03Z</time>
      </trkpt>
      <trkpt lat="42.6140510" lon="-8.6448150">
        <ele>43.2</ele>
        <time>2021-05-23T05:54:04Z</time>
      </trkpt>
      <trkpt lat="42.6140640" lon="-8.6448080">
        <ele>43.2</ele>
        <time>2021-05-23T05:54:05Z</time>
      </trkpt>
      <trkpt lat="42.6140780" lon="-8.6447990">
        <ele>43.2</ele>
        <time>2021-05-23T05:54:06Z</time>
      </trkpt>
      <trkpt lat="42.6140910" lon="-8.6447910">
        <ele>43.2</ele>
        <time>2021-05-23T05:54:07Z</time>
      </trkpt>
      <trkpt lat="42.6141080" lon="-8.6447860">
        <ele>43.2</ele>
        <time>2021-05-23T05:54:08Z</time>
      </trkpt>
      <trkpt lat="42.6141240" lon="-8.6447870">
        <ele>43.3</ele>
        <time>2021-05-23T05:54:09Z</time>
      </trkpt>
      <trkpt lat="42.6141430" lon="-8.6447830">
        <ele>43.3</ele>
        <time>2021-05-23T05:54:10Z</time>
      </trkpt>
      <trkpt lat="42.6141600" lon="-8.6447800">
        <ele>43.3</ele>
        <time>2021-05-23T05:54:11Z</time>
      </trkpt>
      <trkpt lat="42.6141780" lon="-8.6447840">
        <ele>43.3</ele>
        <time>2021-05-23T05:54:12Z</time>
      </trkpt>
      <trkpt lat="42.6141970" lon="-8.6447830">
        <ele>43.3</ele>
        <time>2021-05-23T05:54:13Z</time>
      </trkpt>
      <trkpt lat="42.6142140" lon="-8.6447840">
        <ele>43.4</ele>
        <time>2021-05-23T05:54:14Z</time>
      </trkpt>
      <trkpt lat="42.6142340" lon="-8.6447810">
        <ele>43.4</ele>
        <time>2021-05-23T05:54:15Z</time>
      </trkpt>
      <trkpt lat="42.6142440" lon="-8.6447770">
        <ele>43.4</ele>
        <time>2021-05-23T05:54:16Z</time>
      </trkpt>
      <trkpt lat="42.6142530" lon="-8.6447720">
        <ele>43.4</ele>
        <time>2021-05-23T05:54:17Z</time>
      </trkpt>
      <trkpt lat="42.6142760" lon="-8.6447680">
        <ele>43.4</ele>
        <time>2021-05-23T05:54:18Z</time>
      </trkpt>
      <trkpt lat="42.6142850" lon="-8.6447640">
        <ele>43.4</ele>
        <time>2021-05-23T05:54:19Z</time>
      </trkpt>
      <trkpt lat="42.6142930" lon="-8.6447610">
        <ele>43.4</ele>
        <time>2021-05-23T05:54:20Z</time>
      </trkpt>
      <trkpt lat="42.6143070" lon="-8.6447560">
        <ele>43.4</ele>
        <time>2021-05-23T05:54:21Z</time>
      </trkpt>
      <trkpt lat="42.6143230" lon="-8.6447550">
        <ele>43.5</ele>
        <time>2021-05-23T05:54:22Z</time>
      </trkpt>
      <trkpt lat="42.6143380" lon="-8.6447510">
        <ele>43.5</ele>
        <time>2021-05-23T05:54:23Z</time>
      </trkpt>
      <trkpt lat="42.6143510" lon="-8.6447400">
        <ele>43.5</ele>
        <time>2021-05-23T05:54:24Z</time>
      </trkpt>
      <trkpt lat="42.6143670" lon="-8.6447420">
        <ele>43.5</ele>
        <time>2021-05-23T05:54:25Z</time>
      </trkpt>
      <trkpt lat="42.6143830" lon="-8.6447400">
        <ele>43.5</ele>
        <time>2021-05-23T05:54:26Z</time>
      </trkpt>
      <trkpt lat="42.6143960" lon="-8.6447400">
        <ele>43.5</ele>
        <time>2021-05-23T05:54:27Z</time>
      </trkpt>
      <trkpt lat="42.6144090" lon="-8.6447340">
        <ele>43.5</ele>
        <time>2021-05-23T05:54:28Z</time>
      </trkpt>
      <trkpt lat="42.6144230" lon="-8.6447370">
        <ele>43.5</ele>
        <time>2021-05-23T05:54:29Z</time>
      </trkpt>
      <trkpt lat="42.6144370" lon="-8.6447380">
        <ele>43.5</ele>
        <time>2021-05-23T05:54:30Z</time>
      </trkpt>
      <trkpt lat="42.6144530" lon="-8.6447320">
        <ele>43.6</ele>
        <time>2021-05-23T05:54:31Z</time>
      </trkpt>
      <trkpt lat="42.6144680" lon="-8.6447330">
        <ele>43.6</ele>
        <time>2021-05-23T05:54:32Z</time>
      </trkpt>
      <trkpt lat="42.6144900" lon="-8.6447350">
        <ele>43.6</ele>
        <time>2021-05-23T05:54:33Z</time>
      </trkpt>
      <trkpt lat="42.6144990" lon="-8.6447340">
        <ele>43.6</ele>
        <time>2021-05-23T05:54:34Z</time>
      </trkpt>
      <trkpt lat="42.6145080" lon="-8.6447320">
        <ele>43.6</ele>
        <time>2021-05-23T05:54:35Z</time>
      </trkpt>
      <trkpt lat="42.6145230" lon="-8.6447260">
        <ele>43.6</ele>
        <time>2021-05-23T05:54:36Z</time>
      </trkpt>
      <trkpt lat="42.6145360" lon="-8.6447280">
        <ele>43.6</ele>
        <time>2021-05-23T05:54:37Z</time>
      </trkpt>
      <trkpt lat="42.6145480" lon="-8.6447320">
        <ele>43.6</ele>
        <time>2021-05-23T05:54:38Z</time>
      </trkpt>
      <trkpt lat="42.6145660" lon="-8.6447370">
        <ele>43.6</ele>
        <time>2021-05-23T05:54:39Z</time>
      </trkpt>
      <trkpt lat="42.6145880" lon="-8.6447280">
        <ele>43.6</ele>
        <time>2021-05-23T05:54:40Z</time>
      </trkpt>
      <trkpt lat="42.6145970" lon="-8.6447250">
        <ele>43.6</ele>
        <time>2021-05-23T05:54:41Z</time>
      </trkpt>
      <trkpt lat="42.6146060" lon="-8.6447230">
        <ele>43.6</ele>
        <time>2021-05-23T05:54:42Z</time>
      </trkpt>
      <trkpt lat="42.6146200" lon="-8.6447220">
        <ele>43.6</ele>
        <time>2021-05-23T05:54:43Z</time>
      </trkpt>
      <trkpt lat="42.6146340" lon="-8.6447210">
        <ele>43.6</ele>
        <time>2021-05-23T05:54:44Z</time>
      </trkpt>
      <trkpt lat="42.6146540" lon="-8.6447250">
        <ele>43.6</ele>
        <time>2021-05-23T05:54:45Z</time>
      </trkpt>
      <trkpt lat="42.6146620" lon="-8.6447250">
        <ele>43.6</ele>
        <time>2021-05-23T05:54:46Z</time>
      </trkpt>
      <trkpt lat="42.6146710" lon="-8.6447260">
        <ele>43.5</ele>
        <time>2021-05-23T05:54:47Z</time>
      </trkpt>
      <trkpt lat="42.6146840" lon="-8.6447200">
        <ele>43.5</ele>
        <time>2021-05-23T05:54:48Z</time>
      </trkpt>
      <trkpt lat="42.6146980" lon="-8.6447300">
        <ele>43.5</ele>
        <time>2021-05-23T05:54:49Z</time>
      </trkpt>
      <trkpt lat="42.6147130" lon="-8.6447270">
        <ele>43.5</ele>
        <time>2021-05-23T05:54:50Z</time>
      </trkpt>
      <trkpt lat="42.6147270" lon="-8.6447310">
        <ele>43.4</ele>
        <time>2021-05-23T05:54:51Z</time>
      </trkpt>
      <trkpt lat="42.6147410" lon="-8.6447350">
        <ele>43.4</ele>
        <time>2021-05-23T05:54:52Z</time>
      </trkpt>
      <trkpt lat="42.6147560" lon="-8.6447300">
        <ele>43.4</ele>
        <time>2021-05-23T05:54:53Z</time>
      </trkpt>
      <trkpt lat="42.6147780" lon="-8.6447280">
        <ele>43.3</ele>
        <time>2021-05-23T05:54:54Z</time>
      </trkpt>
      <trkpt lat="42.6147860" lon="-8.6447290">
        <ele>43.3</ele>
        <time>2021-05-23T05:54:55Z</time>
      </trkpt>
      <trkpt lat="42.6147950" lon="-8.6447290">
        <ele>43.3</ele>
        <time>2021-05-23T05:54:56Z</time>
      </trkpt>
      <trkpt lat="42.6148150" lon="-8.6447250">
        <ele>43.2</ele>
        <time>2021-05-23T05:54:57Z</time>
      </trkpt>
      <trkpt lat="42.6148240" lon="-8.6447250">
        <ele>43.2</ele>
        <time>2021-05-23T05:54:58Z</time>
      </trkpt>
      <trkpt lat="42.6148320" lon="-8.6447240">
        <ele>43.2</ele>
        <time>2021-05-23T05:54:59Z</time>
      </trkpt>
      <trkpt lat="42.6148470" lon="-8.6447220">
        <ele>43.1</ele>
        <time>2021-05-23T05:55:00Z</time>
      </trkpt>
      <trkpt lat="42.6148610" lon="-8.6447240">
        <ele>43.1</ele>
        <time>2021-05-23T05:55:01Z</time>
      </trkpt>
      <trkpt lat="42.6148820" lon="-8.6447160">
        <ele>43.0</ele>
        <time>2021-05-23T05:55:02Z</time>
      </trkpt>
      <trkpt lat="42.6148910" lon="-8.6447180">
        <ele>43.0</ele>
        <time>2021-05-23T05:55:03Z</time>
      </trkpt>
      <trkpt lat="42.6149000" lon="-8.6447190">
        <ele>43.0</ele>
        <time>2021-05-23T05:55:04Z</time>
      </trkpt>
      <trkpt lat="42.6149130" lon="-8.6447140">
        <ele>42.9</ele>
        <time>2021-05-23T05:55:05Z</time>
      </trkpt>
      <trkpt lat="42.6149240" lon="-8.6447090">
        <ele>42.9</ele>
        <time>2021-05-23T05:55:06Z</time>
      </trkpt>
      <trkpt lat="42.6149360" lon="-8.6447090">
        <ele>42.8</ele>
        <time>2021-05-23T05:55:07Z</time>
      </trkpt>
      <trkpt lat="42.6149440" lon="-8.6447070">
        <ele>42.8</ele>
        <time>2021-05-23T05:55:08Z</time>
      </trkpt>
      <trkpt lat="42.6149610" lon="-8.6447100">
        <ele>42.8</ele>
        <time>2021-05-23T05:55:09Z</time>
      </trkpt>
      <trkpt lat="42.6149680" lon="-8.6447060">
        <ele>42.7</ele>
        <time>2021-05-23T05:55:10Z</time>
      </trkpt>
      <trkpt lat="42.6149880" lon="-8.6446980">
        <ele>42.7</ele>
        <time>2021-05-23T05:55:11Z</time>
      </trkpt>
      <trkpt lat="42.6149980" lon="-8.6446950">
        <ele>42.6</ele>
        <time>2021-05-23T05:55:12Z</time>
      </trkpt>
      <trkpt lat="42.6150070" lon="-8.6446920">
        <ele>42.6</ele>
        <time>2021-05-23T05:55:13Z</time>
      </trkpt>
      <trkpt lat="42.6150240" lon="-8.6446900">
        <ele>42.5</ele>
        <time>2021-05-23T05:55:14Z</time>
      </trkpt>
      <trkpt lat="42.6150360" lon="-8.6446930">
        <ele>42.5</ele>
        <time>2021-05-23T05:55:15Z</time>
      </trkpt>
      <trkpt lat="42.6150500" lon="-8.6447000">
        <ele>42.4</ele>
        <time>2021-05-23T05:55:16Z</time>
      </trkpt>
      <trkpt lat="42.6150630" lon="-8.6447050">
        <ele>42.4</ele>
        <time>2021-05-23T05:55:17Z</time>
      </trkpt>
      <trkpt lat="42.6150740" lon="-8.6447030">
        <ele>42.3</ele>
        <time>2021-05-23T05:55:18Z</time>
      </trkpt>
      <trkpt lat="42.6150830" lon="-8.6447010">
        <ele>42.3</ele>
        <time>2021-05-23T05:55:19Z</time>
      </trkpt>
      <trkpt lat="42.6150880" lon="-8.6446890">
        <ele>42.3</ele>
        <time>2021-05-23T05:55:20Z</time>
      </trkpt>
      <trkpt lat="42.6150960" lon="-8.6446750">
        <ele>42.2</ele>
        <time>2021-05-23T05:55:21Z</time>
      </trkpt>
      <trkpt lat="42.6151100" lon="-8.6446750">
        <ele>42.2</ele>
        <time>2021-05-23T05:55:22Z</time>
      </trkpt>
      <trkpt lat="42.6151150" lon="-8.6446680">
        <ele>42.2</ele>
        <time>2021-05-23T05:55:23Z</time>
      </trkpt>
      <trkpt lat="42.6151190" lon="-8.6446710">
        <ele>42.1</ele>
        <time>2021-05-23T05:55:24Z</time>
      </trkpt>
      <trkpt lat="42.6151260" lon="-8.6446650">
        <ele>42.1</ele>
        <time>2021-05-23T05:55:25Z</time>
      </trkpt>
      <trkpt lat="42.6151440" lon="-8.6446700">
        <ele>42.1</ele>
        <time>2021-05-23T05:55:26Z</time>
      </trkpt>
      <trkpt lat="42.6151520" lon="-8.6446620">
        <ele>42.0</ele>
        <time>2021-05-23T05:55:27Z</time>
      </trkpt>
      <trkpt lat="42.6151690" lon="-8.6446650">
        <ele>42.0</ele>
        <time>2021-05-23T05:55:28Z</time>
      </trkpt>
      <trkpt lat="42.6151770" lon="-8.6446590">
        <ele>42.0</ele>
        <time>2021-05-23T05:55:29Z</time>
      </trkpt>
      <trkpt lat="42.6151900" lon="-8.6446580">
        <ele>41.9</ele>
        <time>2021-05-23T05:55:30Z</time>
      </trkpt>
      <trkpt lat="42.6152030" lon="-8.6446570">
        <ele>41.9</ele>
        <time>2021-05-23T05:55:31Z</time>
      </trkpt>
      <trkpt lat="42.6152040" lon="-8.6446470">
        <ele>41.9</ele>
        <time>2021-05-23T05:55:32Z</time>
      </trkpt>
      <trkpt lat="42.6152210" lon="-8.6446480">
        <ele>41.9</ele>
        <time>2021-05-23T05:55:33Z</time>
      </trkpt>
      <trkpt lat="42.6152340" lon="-8.6446440">
        <ele>41.8</ele>
        <time>2021-05-23T05:55:34Z</time>
      </trkpt>
      <trkpt lat="42.6152440" lon="-8.6446380">
        <ele>41.8</ele>
        <time>2021-05-23T05:55:35Z</time>
      </trkpt>
      <trkpt lat="42.6152560" lon="-8.6446380">
        <ele>41.8</ele>
        <time>2021-05-23T05:55:36Z</time>
      </trkpt>
      <trkpt lat="42.6152650" lon="-8.6446280">
        <ele>41.8</ele>
        <time>2021-05-23T05:55:37Z</time>
      </trkpt>
      <trkpt lat="42.6152900" lon="-8.6446290">
        <ele>41.7</ele>
        <time>2021-05-23T05:55:38Z</time>
      </trkpt>
      <trkpt lat="42.6152990" lon="-8.6446290">
        <ele>41.7</ele>
        <time>2021-05-23T05:55:39Z</time>
      </trkpt>
      <trkpt lat="42.6153090" lon="-8.6446290">
        <ele>41.7</ele>
        <time>2021-05-23T05:55:40Z</time>
      </trkpt>
      <trkpt lat="42.6153220" lon="-8.6446270">
        <ele>41.7</ele>
        <time>2021-05-23T05:55:41Z</time>
      </trkpt>
      <trkpt lat="42.6153370" lon="-8.6446220">
        <ele>41.7</ele>
        <time>2021-05-23T05:55:42Z</time>
      </trkpt>
      <trkpt lat="42.6153500" lon="-8.6446030">
        <ele>41.7</ele>
        <time>2021-05-23T05:55:43Z</time>
      </trkpt>
      <trkpt lat="42.6153600" lon="-8.6445990">
        <ele>41.7</ele>
        <time>2021-05-23T05:55:44Z</time>
      </trkpt>
      <trkpt lat="42.6153710" lon="-8.6445960">
        <ele>41.6</ele>
        <time>2021-05-23T05:55:45Z</time>
      </trkpt>
      <trkpt lat="42.6153840" lon="-8.6445970">
        <ele>41.6</ele>
        <time>2021-05-23T05:55:46Z</time>
      </trkpt>
      <trkpt lat="42.6153980" lon="-8.6445950">
        <ele>41.6</ele>
        <time>2021-05-23T05:55:47Z</time>
      </trkpt>
      <trkpt lat="42.6154220" lon="-8.6445960">
        <ele>41.6</ele>
        <time>2021-05-23T05:55:48Z</time>
      </trkpt>
      <trkpt lat="42.6154280" lon="-8.6445800">
        <ele>41.6</ele>
        <time>2021-05-23T05:55:49Z</time>
      </trkpt>
      <trkpt lat="42.6154390" lon="-8.6445790">
        <ele>41.6</ele>
        <time>2021-05-23T05:55:50Z</time>
      </trkpt>
      <trkpt lat="42.6154570" lon="-8.6445740">
        <ele>41.6</ele>
        <time>2021-05-23T05:55:51Z</time>
      </trkpt>
      <trkpt lat="42.6154680" lon="-8.6445750">
        <ele>41.6</ele>
        <time>2021-05-23T05:55:52Z</time>
      </trkpt>
      <trkpt lat="42.6154790" lon="-8.6445650">
        <ele>41.6</ele>
        <time>2021-05-23T05:55:53Z</time>
      </trkpt>
      <trkpt lat="42.6154910" lon="-8.6445600">
        <ele>41.6</ele>
        <time>2021-05-23T05:55:54Z</time>
      </trkpt>
      <trkpt lat="42.6155030" lon="-8.6445600">
        <ele>41.6</ele>
        <time>2021-05-23T05:55:55Z</time>
      </trkpt>
      <trkpt lat="42.6155220" lon="-8.6445580">
        <ele>41.6</ele>
        <time>2021-05-23T05:55:56Z</time>
      </trkpt>
      <trkpt lat="42.6155310" lon="-8.6445570">
        <ele>41.6</ele>
        <time>2021-05-23T05:55:57Z</time>
      </trkpt>
      <trkpt lat="42.6155460" lon="-8.6445520">
        <ele>41.6</ele>
        <time>2021-05-23T05:55:58Z</time>
      </trkpt>
      <trkpt lat="42.6155550" lon="-8.6445500">
        <ele>41.6</ele>
        <time>2021-05-23T05:55:59Z</time>
      </trkpt>
      <trkpt lat="42.6155760" lon="-8.6445460">
        <ele>41.6</ele>
        <time>2021-05-23T05:56:00Z</time>
      </trkpt>
      <trkpt lat="42.6155840" lon="-8.6445460">
        <ele>41.6</ele>
        <time>2021-05-23T05:56:01Z</time>
      </trkpt>
      <trkpt lat="42.6155930" lon="-8.6445460">
        <ele>41.6</ele>
        <time>2021-05-23T05:56:02Z</time>
      </trkpt>
      <trkpt lat="42.6155960" lon="-8.6445410">
        <ele>41.6</ele>
        <time>2021-05-23T05:56:03Z</time>
      </trkpt>
      <trkpt lat="42.6156080" lon="-8.6445380">
        <ele>41.6</ele>
        <time>2021-05-23T05:56:04Z</time>
      </trkpt>
      <trkpt lat="42.6156230" lon="-8.6445370">
        <ele>41.6</ele>
        <time>2021-05-23T05:56:05Z</time>
      </trkpt>
      <trkpt lat="42.6156450" lon="-8.6445340">
        <ele>41.6</ele>
        <time>2021-05-23T05:56:06Z</time>
      </trkpt>
      <trkpt lat="42.6156520" lon="-8.6445320">
        <ele>41.6</ele>
        <time>2021-05-23T05:56:07Z</time>
      </trkpt>
      <trkpt lat="42.6156600" lon="-8.6445310">
        <ele>41.6</ele>
        <time>2021-05-23T05:56:08Z</time>
      </trkpt>
      <trkpt lat="42.6156700" lon="-8.6445190">
        <ele>41.6</ele>
        <time>2021-05-23T05:56:09Z</time>
      </trkpt>
      <trkpt lat="42.6156900" lon="-8.6445210">
        <ele>41.7</ele>
        <time>2021-05-23T05:56:10Z</time>
      </trkpt>
      <trkpt lat="42.6157120" lon="-8.6445210">
        <ele>41.7</ele>
        <time>2021-05-23T05:56:11Z</time>
      </trkpt>
      <trkpt lat="42.6157220" lon="-8.6445170">
        <ele>41.7</ele>
        <time>2021-05-23T05:56:12Z</time>
      </trkpt>
      <trkpt lat="42.6157330" lon="-8.6445140">
        <ele>41.7</ele>
        <time>2021-05-23T05:56:13Z</time>
      </trkpt>
      <trkpt lat="42.6157370" lon="-8.6445130">
        <ele>41.7</ele>
        <time>2021-05-23T05:56:14Z</time>
      </trkpt>
      <trkpt lat="42.6157460" lon="-8.6445130">
        <ele>41.7</ele>
        <time>2021-05-23T05:56:15Z</time>
      </trkpt>
      <trkpt lat="42.6157640" lon="-8.6445180">
        <ele>41.7</ele>
        <time>2021-05-23T05:56:16Z</time>
      </trkpt>
      <trkpt lat="42.6157960" lon="-8.6445200">
        <ele>41.8</ele>
        <time>2021-05-23T05:56:17Z</time>
      </trkpt>
      <trkpt lat="42.6158020" lon="-8.6445210">
        <ele>41.8</ele>
        <time>2021-05-23T05:56:18Z</time>
      </trkpt>
      <trkpt lat="42.6158190" lon="-8.6445180">
        <ele>41.8</ele>
        <time>2021-05-23T05:56:19Z</time>
      </trkpt>
      <trkpt lat="42.6158350" lon="-8.6445190">
        <ele>41.8</ele>
        <time>2021-05-23T05:56:20Z</time>
      </trkpt>
      <trkpt lat="42.6158570" lon="-8.6445240">
        <ele>41.8</ele>
        <time>2021-05-23T05:56:21Z</time>
      </trkpt>
      <trkpt lat="42.6158680" lon="-8.6445250">
        <ele>41.8</ele>
        <time>2021-05-23T05:56:22Z</time>
      </trkpt>
      <trkpt lat="42.6158780" lon="-8.6445270">
        <ele>41.9</ele>
        <time>2021-05-23T05:56:23Z</time>
      </trkpt>
      <trkpt lat="42.6158950" lon="-8.6445320">
        <ele>41.9</ele>
        <time>2021-05-23T05:56:24Z</time>
      </trkpt>
      <trkpt lat="42.6159080" lon="-8.6445330">
        <ele>41.9</ele>
        <time>2021-05-23T05:56:25Z</time>
      </trkpt>
      <trkpt lat="42.6159230" lon="-8.6445320">
        <ele>41.9</ele>
        <time>2021-05-23T05:56:26Z</time>
      </trkpt>
      <trkpt lat="42.6159390" lon="-8.6445330">
        <ele>41.9</ele>
        <time>2021-05-23T05:56:27Z</time>
      </trkpt>
      <trkpt lat="42.6159570" lon="-8.6445340">
        <ele>42.0</ele>
        <time>2021-05-23T05:56:28Z</time>
      </trkpt>
      <trkpt lat="42.6159740" lon="-8.6445330">
        <ele>42.0</ele>
        <time>2021-05-23T05:56:29Z</time>
      </trkpt>
      <trkpt lat="42.6159890" lon="-8.6445390">
        <ele>42.0</ele>
        <time>2021-05-23T05:56:30Z</time>
      </trkpt>
      <trkpt lat="42.6160020" lon="-8.6445390">
        <ele>42.1</ele>
        <time>2021-05-23T05:56:31Z</time>
      </trkpt>
      <trkpt lat="42.6160180" lon="-8.6445360">
        <ele>42.1</ele>
        <time>2021-05-23T05:56:32Z</time>
      </trkpt>
      <trkpt lat="42.6160290" lon="-8.6445440">
        <ele>42.1</ele>
        <time>2021-05-23T05:56:33Z</time>
      </trkpt>
      <trkpt lat="42.6160450" lon="-8.6445420">
        <ele>42.2</ele>
        <time>2021-05-23T05:56:34Z</time>
      </trkpt>
      <trkpt lat="42.6160640" lon="-8.6445440">
        <ele>42.2</ele>
        <time>2021-05-23T05:56:35Z</time>
      </trkpt>
      <trkpt lat="42.6160870" lon="-8.6445510">
        <ele>42.3</ele>
        <time>2021-05-23T05:56:36Z</time>
      </trkpt>
      <trkpt lat="42.6160970" lon="-8.6445540">
        <ele>42.4</ele>
        <time>2021-05-23T05:56:37Z</time>
      </trkpt>
      <trkpt lat="42.6161070" lon="-8.6445580">
        <ele>42.4</ele>
        <time>2021-05-23T05:56:38Z</time>
      </trkpt>
      <trkpt lat="42.6161240" lon="-8.6445780">
        <ele>42.5</ele>
        <time>2021-05-23T05:56:39Z</time>
      </trkpt>
      <trkpt lat="42.6161320" lon="-8.6445820">
        <ele>42.5</ele>
        <time>2021-05-23T05:56:40Z</time>
      </trkpt>
      <trkpt lat="42.6161410" lon="-8.6445870">
        <ele>42.6</ele>
        <time>2021-05-23T05:56:41Z</time>
      </trkpt>
      <trkpt lat="42.6161630" lon="-8.6445970">
        <ele>42.7</ele>
        <time>2021-05-23T05:56:42Z</time>
      </trkpt>
      <trkpt lat="42.6161710" lon="-8.6446020">
        <ele>42.7</ele>
        <time>2021-05-23T05:56:43Z</time>
      </trkpt>
      <trkpt lat="42.6161800" lon="-8.6446080">
        <ele>42.8</ele>
        <time>2021-05-23T05:56:44Z</time>
      </trkpt>
      <trkpt lat="42.6161900" lon="-8.6446230">
        <ele>42.8</ele>
        <time>2021-05-23T05:56:45Z</time>
      </trkpt>
      <trkpt lat="42.6162020" lon="-8.6446320">
        <ele>42.9</ele>
        <time>2021-05-23T05:56:46Z</time>
      </trkpt>
      <trkpt lat="42.6162100" lon="-8.6446440">
        <ele>42.9</ele>
        <time>2021-05-23T05:56:47Z</time>
      </trkpt>
      <trkpt lat="42.6162260" lon="-8.6446480">
        <ele>43.0</ele>
        <time>2021-05-23T05:56:48Z</time>
      </trkpt>
      <trkpt lat="42.6162480" lon="-8.6446540">
        <ele>43.1</ele>
        <time>2021-05-23T05:56:49Z</time>
      </trkpt>
      <trkpt lat="42.6162570" lon="-8.6446580">
        <ele>43.1</ele>
        <time>2021-05-23T05:56:50Z</time>
      </trkpt>
      <trkpt lat="42.6162650" lon="-8.6446620">
        <ele>43.1</ele>
        <time>2021-05-23T05:56:51Z</time>
      </trkpt>
      <trkpt lat="42.6162770" lon="-8.6446660">
        <ele>43.1</ele>
        <time>2021-05-23T05:56:52Z</time>
      </trkpt>
      <trkpt lat="42.6162930" lon="-8.6446630">
        <ele>43.2</ele>
        <time>2021-05-23T05:56:53Z</time>
      </trkpt>
      <trkpt lat="42.6163120" lon="-8.6446650">
        <ele>43.2</ele>
        <time>2021-05-23T05:56:54Z</time>
      </trkpt>
      <trkpt lat="42.6163210" lon="-8.6446640">
        <ele>43.2</ele>
        <time>2021-05-23T05:56:55Z</time>
      </trkpt>
      <trkpt lat="42.6163310" lon="-8.6446630">
        <ele>43.2</ele>
        <time>2021-05-23T05:56:56Z</time>
      </trkpt>
      <trkpt lat="42.6163480" lon="-8.6446630">
        <ele>43.2</ele>
        <time>2021-05-23T05:56:57Z</time>
      </trkpt>
      <trkpt lat="42.6163620" lon="-8.6446660">
        <ele>43.2</ele>
        <time>2021-05-23T05:56:58Z</time>
      </trkpt>
      <trkpt lat="42.6163770" lon="-8.6446650">
        <ele>43.2</ele>
        <time>2021-05-23T05:56:59Z</time>
      </trkpt>
      <trkpt lat="42.6163920" lon="-8.6446640">
        <ele>43.2</ele>
        <time>2021-05-23T05:57:00Z</time>
      </trkpt>
      <trkpt lat="42.6164070" lon="-8.6446700">
        <ele>43.2</ele>
        <time>2021-05-23T05:57:01Z</time>
      </trkpt>
      <trkpt lat="42.6164200" lon="-8.6446750">
        <ele>43.2</ele>
        <time>2021-05-23T05:57:02Z</time>
      </trkpt>
      <trkpt lat="42.6164440" lon="-8.6446780">
        <ele>43.2</ele>
        <time>2021-05-23T05:57:03Z</time>
      </trkpt>
      <trkpt lat="42.6164530" lon="-8.6446780">
        <ele>43.2</ele>
        <time>2021-05-23T05:57:04Z</time>
      </trkpt>
      <trkpt lat="42.6164630" lon="-8.6446780">
        <ele>43.2</ele>
        <time>2021-05-23T05:57:05Z</time>
      </trkpt>
      <trkpt lat="42.6164780" lon="-8.6446770">
        <ele>43.2</ele>
        <time>2021-05-23T05:57:06Z</time>
      </trkpt>
      <trkpt lat="42.6164960" lon="-8.6446830">
        <ele>43.2</ele>
        <time>2021-05-23T05:57:07Z</time>
      </trkpt>
      <trkpt lat="42.6165110" lon="-8.6446870">
        <ele>43.2</ele>
        <time>2021-05-23T05:57:08Z</time>
      </trkpt>
      <trkpt lat="42.6165280" lon="-8.6446890">
        <ele>43.2</ele>
        <time>2021-05-23T05:57:09Z</time>
      </trkpt>
      <trkpt lat="42.6165500" lon="-8.6446970">
        <ele>43.2</ele>
        <time>2021-05-23T05:57:10Z</time>
      </trkpt>
      <trkpt lat="42.6165590" lon="-8.6447000">
        <ele>43.2</ele>
        <time>2021-05-23T05:57:11Z</time>
      </trkpt>
      <trkpt lat="42.6165680" lon="-8.6447040">
        <ele>43.2</ele>
        <time>2021-05-23T05:57:12Z</time>
      </trkpt>
      <trkpt lat="42.6165820" lon="-8.6447070">
        <ele>43.2</ele>
        <time>2021-05-23T05:57:13Z</time>
      </trkpt>
      <trkpt lat="42.6165950" lon="-8.6447140">
        <ele>43.2</ele>
        <time>2021-05-23T05:57:14Z</time>
      </trkpt>
      <trkpt lat="42.6166120" lon="-8.6447170">
        <ele>43.2</ele>
        <time>2021-05-23T05:57:15Z</time>
      </trkpt>
      <trkpt lat="42.6166270" lon="-8.6447210">
        <ele>43.2</ele>
        <time>2021-05-23T05:57:16Z</time>
      </trkpt>
      <trkpt lat="42.6166410" lon="-8.6447290">
        <ele>43.3</ele>
        <time>2021-05-23T05:57:17Z</time>
      </trkpt>
      <trkpt lat="42.6166550" lon="-8.6447350">
        <ele>43.3</ele>
        <time>2021-05-23T05:57:18Z</time>
      </trkpt>
      <trkpt lat="42.6166690" lon="-8.6447400">
        <ele>43.3</ele>
        <time>2021-05-23T05:57:19Z</time>
      </trkpt>
      <trkpt lat="42.6166800" lon="-8.6447420">
        <ele>43.3</ele>
        <time>2021-05-23T05:57:20Z</time>
      </trkpt>
      <trkpt lat="42.6166900" lon="-8.6447460">
        <ele>43.3</ele>
        <time>2021-05-23T05:57:21Z</time>
      </trkpt>
      <trkpt lat="42.6167110" lon="-8.6447530">
        <ele>43.3</ele>
        <time>2021-05-23T05:57:22Z</time>
      </trkpt>
      <trkpt lat="42.6167180" lon="-8.6447550">
        <ele>43.3</ele>
        <time>2021-05-23T05:57:23Z</time>
      </trkpt>
      <trkpt lat="42.6167260" lon="-8.6447580">
        <ele>43.3</ele>
        <time>2021-05-23T05:57:24Z</time>
      </trkpt>
      <trkpt lat="42.6167380" lon="-8.6447500">
        <ele>43.3</ele>
        <time>2021-05-23T05:57:25Z</time>
      </trkpt>
      <trkpt lat="42.6167500" lon="-8.6447510">
        <ele>43.3</ele>
        <time>2021-05-23T05:57:26Z</time>
      </trkpt>
      <trkpt lat="42.6167610" lon="-8.6447560">
        <ele>43.3</ele>
        <time>2021-05-23T05:57:27Z</time>
      </trkpt>
      <trkpt lat="42.6167820" lon="-8.6447640">
        <ele>43.3</ele>
        <time>2021-05-23T05:57:28Z</time>
      </trkpt>
      <trkpt lat="42.6167890" lon="-8.6447730">
        <ele>43.3</ele>
        <time>2021-05-23T05:57:29Z</time>
      </trkpt>
      <trkpt lat="42.6167970" lon="-8.6447830">
        <ele>43.3</ele>
        <time>2021-05-23T05:57:30Z</time>
      </trkpt>
      <trkpt lat="42.6168120" lon="-8.6447970">
        <ele>43.3</ele>
        <time>2021-05-23T05:57:31Z</time>
      </trkpt>
      <trkpt lat="42.6168190" lon="-8.6448020">
        <ele>43.3</ele>
        <time>2021-05-23T05:57:32Z</time>
      </trkpt>
      <trkpt lat="42.6168250" lon="-8.6448060">
        <ele>43.3</ele>
        <time>2021-05-23T05:57:33Z</time>
      </trkpt>
      <trkpt lat="42.6168320" lon="-8.6448110">
        <ele>43.3</ele>
        <time>2021-05-23T05:57:34Z</time>
      </trkpt>
      <trkpt lat="42.6168430" lon="-8.6448120">
        <ele>43.3</ele>
        <time>2021-05-23T05:57:35Z</time>
      </trkpt>
      <trkpt lat="42.6168590" lon="-8.6448130">
        <ele>43.3</ele>
        <time>2021-05-23T05:57:36Z</time>
      </trkpt>
      <trkpt lat="42.6168740" lon="-8.6448180">
        <ele>43.3</ele>
        <time>2021-05-23T05:57:37Z</time>
      </trkpt>
      <trkpt lat="42.6168930" lon="-8.6448200">
        <ele>43.3</ele>
        <time>2021-05-23T05:57:38Z</time>
      </trkpt>
      <trkpt lat="42.6169120" lon="-8.6448150">
        <ele>43.4</ele>
        <time>2021-05-23T05:57:39Z</time>
      </trkpt>
      <trkpt lat="42.6169210" lon="-8.6448170">
        <ele>43.4</ele>
        <time>2021-05-23T05:57:40Z</time>
      </trkpt>
      <trkpt lat="42.6169300" lon="-8.6448200">
        <ele>43.4</ele>
        <time>2021-05-23T05:57:41Z</time>
      </trkpt>
      <trkpt lat="42.6169430" lon="-8.6448310">
        <ele>43.4</ele>
        <time>2021-05-23T05:57:42Z</time>
      </trkpt>
      <trkpt lat="42.6169600" lon="-8.6448310">
        <ele>43.4</ele>
        <time>2021-05-23T05:57:43Z</time>
      </trkpt>
      <trkpt lat="42.6169720" lon="-8.6448350">
        <ele>43.4</ele>
        <time>2021-05-23T05:57:44Z</time>
      </trkpt>
      <trkpt lat="42.6169880" lon="-8.6448370">
        <ele>43.4</ele>
        <time>2021-05-23T05:57:45Z</time>
      </trkpt>
      <trkpt lat="42.6170020" lon="-8.6448430">
        <ele>43.4</ele>
        <time>2021-05-23T05:57:46Z</time>
      </trkpt>
      <trkpt lat="42.6170160" lon="-8.6448460">
        <ele>43.4</ele>
        <time>2021-05-23T05:57:47Z</time>
      </trkpt>
      <trkpt lat="42.6170320" lon="-8.6448490">
        <ele>43.4</ele>
        <time>2021-05-23T05:57:48Z</time>
      </trkpt>
      <trkpt lat="42.6170450" lon="-8.6448460">
        <ele>43.4</ele>
        <time>2021-05-23T05:57:49Z</time>
      </trkpt>
      <trkpt lat="42.6170600" lon="-8.6448480">
        <ele>43.4</ele>
        <time>2021-05-23T05:57:50Z</time>
      </trkpt>
      <trkpt lat="42.6170740" lon="-8.6448420">
        <ele>43.4</ele>
        <time>2021-05-23T05:57:51Z</time>
      </trkpt>
      <trkpt lat="42.6170890" lon="-8.6448420">
        <ele>43.4</ele>
        <time>2021-05-23T05:57:52Z</time>
      </trkpt>
      <trkpt lat="42.6171030" lon="-8.6448470">
        <ele>43.4</ele>
        <time>2021-05-23T05:57:53Z</time>
      </trkpt>
      <trkpt lat="42.6171170" lon="-8.6448410">
        <ele>43.4</ele>
        <time>2021-05-23T05:57:54Z</time>
      </trkpt>
      <trkpt lat="42.6171300" lon="-8.6448340">
        <ele>43.4</ele>
        <time>2021-05-23T05:57:55Z</time>
      </trkpt>
      <trkpt lat="42.6171420" lon="-8.6448250">
        <ele>43.4</ele>
        <time>2021-05-23T05:57:56Z</time>
      </trkpt>
      <trkpt lat="42.6171570" lon="-8.6448260">
        <ele>43.4</ele>
        <time>2021-05-23T05:57:57Z</time>
      </trkpt>
      <trkpt lat="42.6171710" lon="-8.6448170">
        <ele>43.4</ele>
        <time>2021-05-23T05:57:58Z</time>
      </trkpt>
      <trkpt lat="42.6171870" lon="-8.6448110">
        <ele>43.4</ele>
        <time>2021-05-23T05:57:59Z</time>
      </trkpt>
      <trkpt lat="42.6172000" lon="-8.6448130">
        <ele>43.4</ele>
        <time>2021-05-23T05:58:00Z</time>
      </trkpt>
      <trkpt lat="42.6172150" lon="-8.6448200">
        <ele>43.4</ele>
        <time>2021-05-23T05:58:01Z</time>
      </trkpt>
      <trkpt lat="42.6172380" lon="-8.6448130">
        <ele>43.4</ele>
        <time>2021-05-23T05:58:02Z</time>
      </trkpt>
      <trkpt lat="42.6172460" lon="-8.6448090">
        <ele>43.4</ele>
        <time>2021-05-23T05:58:03Z</time>
      </trkpt>
      <trkpt lat="42.6172550" lon="-8.6448060">
        <ele>43.5</ele>
        <time>2021-05-23T05:58:04Z</time>
      </trkpt>
      <trkpt lat="42.6172680" lon="-8.6448010">
        <ele>43.5</ele>
        <time>2021-05-23T05:58:05Z</time>
      </trkpt>
      <trkpt lat="42.6172820" lon="-8.6447970">
        <ele>43.5</ele>
        <time>2021-05-23T05:58:06Z</time>
      </trkpt>
      <trkpt lat="42.6172940" lon="-8.6447920">
        <ele>43.5</ele>
        <time>2021-05-23T05:58:07Z</time>
      </trkpt>
      <trkpt lat="42.6173100" lon="-8.6447930">
        <ele>43.5</ele>
        <time>2021-05-23T05:58:08Z</time>
      </trkpt>
      <trkpt lat="42.6173240" lon="-8.6447900">
        <ele>43.5</ele>
        <time>2021-05-23T05:58:09Z</time>
      </trkpt>
      <trkpt lat="42.6173370" lon="-8.6447880">
        <ele>43.5</ele>
        <time>2021-05-23T05:58:10Z</time>
      </trkpt>
      <trkpt lat="42.6173520" lon="-8.6447850">
        <ele>43.5</ele>
        <time>2021-05-23T05:58:11Z</time>
      </trkpt>
      <trkpt lat="42.6173650" lon="-8.6447860">
        <ele>43.5</ele>
        <time>2021-05-23T05:58:12Z</time>
      </trkpt>
      <trkpt lat="42.6173800" lon="-8.6447860">
        <ele>43.5</ele>
        <time>2021-05-23T05:58:13Z</time>
      </trkpt>
      <trkpt lat="42.6173960" lon="-8.6447820">
        <ele>43.5</ele>
        <time>2021-05-23T05:58:14Z</time>
      </trkpt>
      <trkpt lat="42.6174100" lon="-8.6447770">
        <ele>43.5</ele>
        <time>2021-05-23T05:58:15Z</time>
      </trkpt>
      <trkpt lat="42.6174230" lon="-8.6447740">
        <ele>43.5</ele>
        <time>2021-05-23T05:58:16Z</time>
      </trkpt>
      <trkpt lat="42.6174460" lon="-8.6447640">
        <ele>43.6</ele>
        <time>2021-05-23T05:58:17Z</time>
      </trkpt>
      <trkpt lat="42.6174550" lon="-8.6447610">
        <ele>43.6</ele>
        <time>2021-05-23T05:58:18Z</time>
      </trkpt>
      <trkpt lat="42.6174640" lon="-8.6447590">
        <ele>43.6</ele>
        <time>2021-05-23T05:58:19Z</time>
      </trkpt>
      <trkpt lat="42.6174770" lon="-8.6447560">
        <ele>43.6</ele>
        <time>2021-05-23T05:58:20Z</time>
      </trkpt>
      <trkpt lat="42.6174920" lon="-8.6447610">
        <ele>43.6</ele>
        <time>2021-05-23T05:58:21Z</time>
      </trkpt>
      <trkpt lat="42.6175080" lon="-8.6447580">
        <ele>43.6</ele>
        <time>2021-05-23T05:58:22Z</time>
      </trkpt>
      <trkpt lat="42.6175200" lon="-8.6447540">
        <ele>43.6</ele>
        <time>2021-05-23T05:58:23Z</time>
      </trkpt>
      <trkpt lat="42.6175290" lon="-8.6447540">
        <ele>43.6</ele>
        <time>2021-05-23T05:58:24Z</time>
      </trkpt>
      <trkpt lat="42.6175440" lon="-8.6447430">
        <ele>43.7</ele>
        <time>2021-05-23T05:58:25Z</time>
      </trkpt>
      <trkpt lat="42.6175530" lon="-8.6447380">
        <ele>43.7</ele>
        <time>2021-05-23T05:58:26Z</time>
      </trkpt>
      <trkpt lat="42.6175650" lon="-8.6447340">
        <ele>43.7</ele>
        <time>2021-05-23T05:58:27Z</time>
      </trkpt>
      <trkpt lat="42.6175750" lon="-8.6447360">
        <ele>43.7</ele>
        <time>2021-05-23T05:58:28Z</time>
      </trkpt>
      <trkpt lat="42.6175870" lon="-8.6447380">
        <ele>43.7</ele>
        <time>2021-05-23T05:58:29Z</time>
      </trkpt>
      <trkpt lat="42.6175970" lon="-8.6447340">
        <ele>43.7</ele>
        <time>2021-05-23T05:58:30Z</time>
      </trkpt>
      <trkpt lat="42.6176060" lon="-8.6447290">
        <ele>43.7</ele>
        <time>2021-05-23T05:58:31Z</time>
      </trkpt>
      <trkpt lat="42.6176220" lon="-8.6447290">
        <ele>43.8</ele>
        <time>2021-05-23T05:58:32Z</time>
      </trkpt>
      <trkpt lat="42.6176330" lon="-8.6447190">
        <ele>43.8</ele>
        <time>2021-05-23T05:58:33Z</time>
      </trkpt>
      <trkpt lat="42.6176490" lon="-8.6447160">
        <ele>43.8</ele>
        <time>2021-05-23T05:58:34Z</time>
      </trkpt>
      <trkpt lat="42.6176700" lon="-8.6447080">
        <ele>43.8</ele>
        <time>2021-05-23T05:58:35Z</time>
      </trkpt>
      <trkpt lat="42.6176770" lon="-8.6447040">
        <ele>43.8</ele>
        <time>2021-05-23T05:58:36Z</time>
      </trkpt>
      <trkpt lat="42.6176850" lon="-8.6446990">
        <ele>43.8</ele>
        <time>2021-05-23T05:58:37Z</time>
      </trkpt>
      <trkpt lat="42.6177020" lon="-8.6447000">
        <ele>43.9</ele>
        <time>2021-05-23T05:58:38Z</time>
      </trkpt>
      <trkpt lat="42.6177120" lon="-8.6446960">
        <ele>43.9</ele>
        <time>2021-05-23T05:58:39Z</time>
      </trkpt>
      <trkpt lat="42.6177280" lon="-8.6446880">
        <ele>43.9</ele>
        <time>2021-05-23T05:58:40Z</time>
      </trkpt>
      <trkpt lat="42.6177410" lon="-8.6446790">
        <ele>43.9</ele>
        <time>2021-05-23T05:58:41Z</time>
      </trkpt>
      <trkpt lat="42.6177570" lon="-8.6446770">
        <ele>44.0</ele>
        <time>2021-05-23T05:58:42Z</time>
      </trkpt>
      <trkpt lat="42.6177700" lon="-8.6446770">
        <ele>44.0</ele>
        <time>2021-05-23T05:58:43Z</time>
      </trkpt>
      <trkpt lat="42.6177800" lon="-8.6446730">
        <ele>44.0</ele>
        <time>2021-05-23T05:58:44Z</time>
      </trkpt>
      <trkpt lat="42.6177940" lon="-8.6446750">
        <ele>44.0</ele>
        <time>2021-05-23T05:58:45Z</time>
      </trkpt>
      <trkpt lat="42.6178030" lon="-8.6446770">
        <ele>44.0</ele>
        <time>2021-05-23T05:58:46Z</time>
      </trkpt>
      <trkpt lat="42.6178170" lon="-8.6446780">
        <ele>44.1</ele>
        <time>2021-05-23T05:58:47Z</time>
      </trkpt>
      <trkpt lat="42.6178310" lon="-8.6446760">
        <ele>44.1</ele>
        <time>2021-05-23T05:58:48Z</time>
      </trkpt>
      <trkpt lat="42.6178390" lon="-8.6446780">
        <ele>44.1</ele>
        <time>2021-05-23T05:58:49Z</time>
      </trkpt>
      <trkpt lat="42.6178530" lon="-8.6446680">
        <ele>44.1</ele>
        <time>2021-05-23T05:58:50Z</time>
      </trkpt>
      <trkpt lat="42.6178590" lon="-8.6446640">
        <ele>44.1</ele>
        <time>2021-05-23T05:58:51Z</time>
      </trkpt>
      <trkpt lat="42.6178740" lon="-8.6446610">
        <ele>44.2</ele>
        <time>2021-05-23T05:58:52Z</time>
      </trkpt>
      <trkpt lat="42.6178850" lon="-8.6446530">
        <ele>44.2</ele>
        <time>2021-05-23T05:58:53Z</time>
      </trkpt>
      <trkpt lat="42.6178990" lon="-8.6446490">
        <ele>44.2</ele>
        <time>2021-05-23T05:58:54Z</time>
      </trkpt>
      <trkpt lat="42.6179000" lon="-8.6446440">
        <ele>44.2</ele>
        <time>2021-05-23T05:58:55Z</time>
      </trkpt>
      <trkpt lat="42.6179140" lon="-8.6446350">
        <ele>44.3</ele>
        <time>2021-05-23T05:58:56Z</time>
      </trkpt>
      <trkpt lat="42.6179170" lon="-8.6446320">
        <ele>44.3</ele>
        <time>2021-05-23T05:58:57Z</time>
      </trkpt>
      <trkpt lat="42.6179380" lon="-8.6446290">
        <ele>44.3</ele>
        <time>2021-05-23T05:58:58Z</time>
      </trkpt>
      <trkpt lat="42.6179490" lon="-8.6446280">
        <ele>44.4</ele>
        <time>2021-05-23T05:58:59Z</time>
      </trkpt>
      <trkpt lat="42.6179720" lon="-8.6446250">
        <ele>44.4</ele>
        <time>2021-05-23T05:59:00Z</time>
      </trkpt>
      <trkpt lat="42.6179820" lon="-8.6446240">
        <ele>44.4</ele>
        <time>2021-05-23T05:59:01Z</time>
      </trkpt>
      <trkpt lat="42.6179930" lon="-8.6446230">
        <ele>44.5</ele>
        <time>2021-05-23T05:59:02Z</time>
      </trkpt>
      <trkpt lat="42.6180040" lon="-8.6446210">
        <ele>44.5</ele>
        <time>2021-05-23T05:59:03Z</time>
      </trkpt>
      <trkpt lat="42.6180140" lon="-8.6446150">
        <ele>44.5</ele>
        <time>2021-05-23T05:59:04Z</time>
      </trkpt>
      <trkpt lat="42.6180130" lon="-8.6446100">
        <ele>44.5</ele>
        <time>2021-05-23T05:59:05Z</time>
      </trkpt>
      <trkpt lat="42.6180150" lon="-8.6446010">
        <ele>44.5</ele>
        <time>2021-05-23T05:59:06Z</time>
      </trkpt>
      <trkpt lat="42.6180220" lon="-8.6445970">
        <ele>44.6</ele>
        <time>2021-05-23T05:59:07Z</time>
      </trkpt>
      <trkpt lat="42.6180280" lon="-8.6445960">
        <ele>44.6</ele>
        <time>2021-05-23T05:59:08Z</time>
      </trkpt>
      <trkpt lat="42.6180450" lon="-8.6445950">
        <ele>44.6</ele>
        <time>2021-05-23T05:59:09Z</time>
      </trkpt>
      <trkpt lat="42.6180580" lon="-8.6445990">
        <ele>44.7</ele>
        <time>2021-05-23T05:59:10Z</time>
      </trkpt>
      <trkpt lat="42.6180680" lon="-8.6446000">
        <ele>44.7</ele>
        <time>2021-05-23T05:59:11Z</time>
      </trkpt>
      <trkpt lat="42.6180780" lon="-8.6445990">
        <ele>44.7</ele>
        <time>2021-05-23T05:59:12Z</time>
      </trkpt>
      <trkpt lat="42.6180960" lon="-8.6446010">
        <ele>44.8</ele>
        <time>2021-05-23T05:59:13Z</time>
      </trkpt>
      <trkpt lat="42.6181100" lon="-8.6446080">
        <ele>44.8</ele>
        <time>2021-05-23T05:59:14Z</time>
      </trkpt>
      <trkpt lat="42.6181120" lon="-8.6446110">
        <ele>44.8</ele>
        <time>2021-05-23T05:59:15Z</time>
      </trkpt>
      <trkpt lat="42.6181250" lon="-8.6446060">
        <ele>44.9</ele>
        <time>2021-05-23T05:59:16Z</time>
      </trkpt>
      <trkpt lat="42.6181440" lon="-8.6446120">
        <ele>44.9</ele>
        <time>2021-05-23T05:59:17Z</time>
      </trkpt>
      <trkpt lat="42.6181530" lon="-8.6446140">
        <ele>45.0</ele>
        <time>2021-05-23T05:59:18Z</time>
      </trkpt>
      <trkpt lat="42.6181690" lon="-8.6446170">
        <ele>45.0</ele>
        <time>2021-05-23T05:59:19Z</time>
      </trkpt>
      <trkpt lat="42.6181770" lon="-8.6446160">
        <ele>45.0</ele>
        <time>2021-05-23T05:59:20Z</time>
      </trkpt>
      <trkpt lat="42.6181970" lon="-8.6446150">
        <ele>45.1</ele>
        <time>2021-05-23T05:59:21Z</time>
      </trkpt>
      <trkpt lat="42.6182080" lon="-8.6446140">
        <ele>45.1</ele>
        <time>2021-05-23T05:59:22Z</time>
      </trkpt>
      <trkpt lat="42.6182180" lon="-8.6446140">
        <ele>45.2</ele>
        <time>2021-05-23T05:59:23Z</time>
      </trkpt>
      <trkpt lat="42.6182320" lon="-8.6446120">
        <ele>45.2</ele>
        <time>2021-05-23T05:59:24Z</time>
      </trkpt>
      <trkpt lat="42.6182510" lon="-8.6446230">
        <ele>45.3</ele>
        <time>2021-05-23T05:59:25Z</time>
      </trkpt>
      <trkpt lat="42.6182640" lon="-8.6446240">
        <ele>45.3</ele>
        <time>2021-05-23T05:59:26Z</time>
      </trkpt>
      <trkpt lat="42.6182760" lon="-8.6446270">
        <ele>45.4</ele>
        <time>2021-05-23T05:59:27Z</time>
      </trkpt>
      <trkpt lat="42.6182870" lon="-8.6446220">
        <ele>45.4</ele>
        <time>2021-05-23T05:59:28Z</time>
      </trkpt>
      <trkpt lat="42.6183000" lon="-8.6446230">
        <ele>45.5</ele>
        <time>2021-05-23T05:59:29Z</time>
      </trkpt>
      <trkpt lat="42.6183160" lon="-8.6446250">
        <ele>45.6</ele>
        <time>2021-05-23T05:59:30Z</time>
      </trkpt>
      <trkpt lat="42.6183270" lon="-8.6446240">
        <ele>45.6</ele>
        <time>2021-05-23T05:59:31Z</time>
      </trkpt>
      <trkpt lat="42.6183450" lon="-8.6446170">
        <ele>45.7</ele>
        <time>2021-05-23T05:59:32Z</time>
      </trkpt>
      <trkpt lat="42.6183650" lon="-8.6446190">
        <ele>45.8</ele>
        <time>2021-05-23T05:59:33Z</time>
      </trkpt>
      <trkpt lat="42.6183750" lon="-8.6446200">
        <ele>45.8</ele>
        <time>2021-05-23T05:59:34Z</time>
      </trkpt>
      <trkpt lat="42.6183840" lon="-8.6446210">
        <ele>45.9</ele>
        <time>2021-05-23T05:59:35Z</time>
      </trkpt>
      <trkpt lat="42.6184010" lon="-8.6446220">
        <ele>45.9</ele>
        <time>2021-05-23T05:59:36Z</time>
      </trkpt>
      <trkpt lat="42.6184150" lon="-8.6446240">
        <ele>46.0</ele>
        <time>2021-05-23T05:59:37Z</time>
      </trkpt>
      <trkpt lat="42.6184310" lon="-8.6446250">
        <ele>46.1</ele>
        <time>2021-05-23T05:59:38Z</time>
      </trkpt>
      <trkpt lat="42.6184450" lon="-8.6446290">
        <ele>46.1</ele>
        <time>2021-05-23T05:59:39Z</time>
      </trkpt>
      <trkpt lat="42.6184670" lon="-8.6446290">
        <ele>46.2</ele>
        <time>2021-05-23T05:59:40Z</time>
      </trkpt>
      <trkpt lat="42.6184750" lon="-8.6446270">
        <ele>46.3</ele>
        <time>2021-05-23T05:59:41Z</time>
      </trkpt>
      <trkpt lat="42.6184820" lon="-8.6446250">
        <ele>46.3</ele>
        <time>2021-05-23T05:59:42Z</time>
      </trkpt>
      <trkpt lat="42.6184910" lon="-8.6446270">
        <ele>46.3</ele>
        <time>2021-05-23T05:59:43Z</time>
      </trkpt>
      <trkpt lat="42.6185160" lon="-8.6446290">
        <ele>46.5</ele>
        <time>2021-05-23T05:59:44Z</time>
      </trkpt>
      <trkpt lat="42.6185380" lon="-8.6446270">
        <ele>46.6</ele>
        <time>2021-05-23T05:59:45Z</time>
      </trkpt>
      <trkpt lat="42.6185450" lon="-8.6446300">
        <ele>46.6</ele>
        <time>2021-05-23T05:59:46Z</time>
      </trkpt>
      <trkpt lat="42.6185530" lon="-8.6446330">
        <ele>46.7</ele>
        <time>2021-05-23T05:59:47Z</time>
      </trkpt>
      <trkpt lat="42.6185710" lon="-8.6446280">
        <ele>46.7</ele>
        <time>2021-05-23T05:59:48Z</time>
      </trkpt>
      <trkpt lat="42.6185820" lon="-8.6446260">
        <ele>46.8</ele>
        <time>2021-05-23T05:59:49Z</time>
      </trkpt>
      <trkpt lat="42.6186010" lon="-8.6446290">
        <ele>46.9</ele>
        <time>2021-05-23T05:59:50Z</time>
      </trkpt>
      <trkpt lat="42.6186110" lon="-8.6446270">
        <ele>47.0</ele>
        <time>2021-05-23T05:59:51Z</time>
      </trkpt>
      <trkpt lat="42.6186200" lon="-8.6446240">
        <ele>47.0</ele>
        <time>2021-05-23T05:59:52Z</time>
      </trkpt>
      <trkpt lat="42.6186290" lon="-8.6446160">
        <ele>47.1</ele>
        <time>2021-05-23T05:59:53Z</time>
      </trkpt>
      <trkpt lat="42.6186480" lon="-8.6446160">
        <ele>47.2</ele>
        <time>2021-05-23T05:59:54Z</time>
      </trkpt>
      <trkpt lat="42.6186650" lon="-8.6446080">
        <ele>47.2</ele>
        <time>2021-05-23T05:59:55Z</time>
      </trkpt>
      <trkpt lat="42.6186740" lon="-8.6446040">
        <ele>47.3</ele>
        <time>2021-05-23T05:59:56Z</time>
      </trkpt>
      <trkpt lat="42.6186800" lon="-8.6446050">
        <ele>47.3</ele>
        <time>2021-05-23T05:59:57Z</time>
      </trkpt>
      <trkpt lat="42.6186930" lon="-8.6446020">
        <ele>47.4</ele>
        <time>2021-05-23T05:59:58Z</time>
      </trkpt>
      <trkpt lat="42.6187090" lon="-8.6445980">
        <ele>47.5</ele>
        <time>2021-05-23T05:59:59Z</time>
      </trkpt>
      <trkpt lat="42.6187260" lon="-8.6445860">
        <ele>47.6</ele>
        <time>2021-05-23T06:00:00Z</time>
      </trkpt>
      <trkpt lat="42.6187350" lon="-8.6445810">
        <ele>47.6</ele>
        <time>2021-05-23T06:00:01Z</time>
      </trkpt>
      <trkpt lat="42.6187600" lon="-8.6445900">
        <ele>47.7</ele>
        <time>2021-05-23T06:00:02Z</time>
      </trkpt>
      <trkpt lat="42.6187700" lon="-8.6445940">
        <ele>47.8</ele>
        <time>2021-05-23T06:00:03Z</time>
      </trkpt>
      <trkpt lat="42.6187800" lon="-8.6445980">
        <ele>47.8</ele>
        <time>2021-05-23T06:00:04Z</time>
      </trkpt>
      <trkpt lat="42.6187940" lon="-8.6445940">
        <ele>47.9</ele>
        <time>2021-05-23T06:00:05Z</time>
      </trkpt>
      <trkpt lat="42.6188030" lon="-8.6445940">
        <ele>47.9</ele>
        <time>2021-05-23T06:00:06Z</time>
      </trkpt>
      <trkpt lat="42.6188110" lon="-8.6445930">
        <ele>47.9</ele>
        <time>2021-05-23T06:00:07Z</time>
      </trkpt>
      <trkpt lat="42.6188200" lon="-8.6445920">
        <ele>48.0</ele>
        <time>2021-05-23T06:00:08Z</time>
      </trkpt>
      <trkpt lat="42.6188410" lon="-8.6445970">
        <ele>48.0</ele>
        <time>2021-05-23T06:00:09Z</time>
      </trkpt>
      <trkpt lat="42.6188510" lon="-8.6445980">
        <ele>48.1</ele>
        <time>2021-05-23T06:00:10Z</time>
      </trkpt>
      <trkpt lat="42.6188600" lon="-8.6445980">
        <ele>48.1</ele>
        <time>2021-05-23T06:00:11Z</time>
      </trkpt>
      <trkpt lat="42.6188710" lon="-8.6445950">
        <ele>48.1</ele>
        <time>2021-05-23T06:00:12Z</time>
      </trkpt>
      <trkpt lat="42.6188920" lon="-8.6446120">
        <ele>48.2</ele>
        <time>2021-05-23T06:00:13Z</time>
      </trkpt>
      <trkpt lat="42.6189060" lon="-8.6446150">
        <ele>48.2</ele>
        <time>2021-05-23T06:00:14Z</time>
      </trkpt>
      <trkpt lat="42.6189160" lon="-8.6446230">
        <ele>48.3</ele>
        <time>2021-05-23T06:00:15Z</time>
      </trkpt>
      <trkpt lat="42.6189260" lon="-8.6446300">
        <ele>48.3</ele>
        <time>2021-05-23T06:00:16Z</time>
      </trkpt>
      <trkpt lat="42.6189370" lon="-8.6446390">
        <ele>48.3</ele>
        <time>2021-05-23T06:00:17Z</time>
      </trkpt>
      <trkpt lat="42.6189550" lon="-8.6446550">
        <ele>48.4</ele>
        <time>2021-05-23T06:00:18Z</time>
      </trkpt>
      <trkpt lat="42.6189580" lon="-8.6446530">
        <ele>48.4</ele>
        <time>2021-05-23T06:00:19Z</time>
      </trkpt>
      <trkpt lat="42.6189680" lon="-8.6446680">
        <ele>48.4</ele>
        <time>2021-05-23T06:00:20Z</time>
      </trkpt>
      <trkpt lat="42.6189710" lon="-8.6446710">
        <ele>48.4</ele>
        <time>2021-05-23T06:00:21Z</time>
      </trkpt>
      <trkpt lat="42.6189850" lon="-8.6446800">
        <ele>48.4</ele>
        <time>2021-05-23T06:00:22Z</time>
      </trkpt>
      <trkpt lat="42.6190100" lon="-8.6446970">
        <ele>48.5</ele>
        <time>2021-05-23T06:00:23Z</time>
      </trkpt>
      <trkpt lat="42.6190180" lon="-8.6447020">
        <ele>48.5</ele>
        <time>2021-05-23T06:00:24Z</time>
      </trkpt>
      <trkpt lat="42.6190300" lon="-8.6447130">
        <ele>48.5</ele>
        <time>2021-05-23T06:00:25Z</time>
      </trkpt>
      <trkpt lat="42.6190390" lon="-8.6447100">
        <ele>48.5</ele>
        <time>2021-05-23T06:00:26Z</time>
      </trkpt>
      <trkpt lat="42.6190520" lon="-8.6447130">
        <ele>48.5</ele>
        <time>2021-05-23T06:00:27Z</time>
      </trkpt>
      <trkpt lat="42.6190660" lon="-8.6447130">
        <ele>48.6</ele>
        <time>2021-05-23T06:00:28Z</time>
      </trkpt>
      <trkpt lat="42.6190810" lon="-8.6447220">
        <ele>48.6</ele>
        <time>2021-05-23T06:00:29Z</time>
      </trkpt>
      <trkpt lat="42.6190960" lon="-8.6447240">
        <ele>48.6</ele>
        <time>2021-05-23T06:00:30Z</time>
      </trkpt>
      <trkpt lat="42.6191080" lon="-8.6447310">
        <ele>48.6</ele>
        <time>2021-05-23T06:00:31Z</time>
      </trkpt>
      <trkpt lat="42.6191240" lon="-8.6447350">
        <ele>48.6</ele>
        <time>2021-05-23T06:00:32Z</time>
      </trkpt>
      <trkpt lat="42.6191370" lon="-8.6447340">
        <ele>48.7</ele>
        <time>2021-05-23T06:00:33Z</time>
      </trkpt>
      <trkpt lat="42.6191530" lon="-8.6447360">
        <ele>48.7</ele>
        <time>2021-05-23T06:00:34Z</time>
      </trkpt>
      <trkpt lat="42.6191610" lon="-8.6447340">
        <ele>48.7</ele>
        <time>2021-05-23T06:00:35Z</time>
      </trkpt>
      <trkpt lat="42.6191680" lon="-8.6447330">
        <ele>48.7</ele>
        <time>2021-05-23T06:00:36Z</time>
      </trkpt>
      <trkpt lat="42.6191750" lon="-8.6447310">
        <ele>48.7</ele>
        <time>2021-05-23T06:00:37Z</time>
      </trkpt>
      <trkpt lat="42.6191990" lon="-8.6447350">
        <ele>48.7</ele>
        <time>2021-05-23T06:00:38Z</time>
      </trkpt>
      <trkpt lat="42.6192080" lon="-8.6447390">
        <ele>48.7</ele>
        <time>2021-05-23T06:00:39Z</time>
      </trkpt>
      <trkpt lat="42.6192210" lon="-8.6447260">
        <ele>48.7</ele>
        <time>2021-05-23T06:00:40Z</time>
      </trkpt>
      <trkpt lat="42.6192360" lon="-8.6447310">
        <ele>48.8</ele>
        <time>2021-05-23T06:00:41Z</time>
      </trkpt>
      <trkpt lat="42.6192600" lon="-8.6447330">
        <ele>48.8</ele>
        <time>2021-05-23T06:00:42Z</time>
      </trkpt>
      <trkpt lat="42.6192680" lon="-8.6447310">
        <ele>48.8</ele>
        <time>2021-05-23T06:00:43Z</time>
      </trkpt>
      <trkpt lat="42.6192760" lon="-8.6447290">
        <ele>48.8</ele>
        <time>2021-05-23T06:00:44Z</time>
      </trkpt>
      <trkpt lat="42.6193020" lon="-8.6447270">
        <ele>48.8</ele>
        <time>2021-05-23T06:00:45Z</time>
      </trkpt>
      <trkpt lat="42.6193140" lon="-8.6447300">
        <ele>48.8</ele>
        <time>2021-05-23T06:00:46Z</time>
      </trkpt>
      <trkpt lat="42.6193340" lon="-8.6447220">
        <ele>48.9</ele>
        <time>2021-05-23T06:00:47Z</time>
      </trkpt>
      <trkpt lat="42.6193430" lon="-8.6447210">
        <ele>48.9</ele>
        <time>2021-05-23T06:00:48Z</time>
      </trkpt>
      <trkpt lat="42.6193510" lon="-8.6447200">
        <ele>48.9</ele>
        <time>2021-05-23T06:00:49Z</time>
      </trkpt>
      <trkpt lat="42.6193820" lon="-8.6447170">
        <ele>48.9</ele>
        <time>2021-05-23T06:00:50Z</time>
      </trkpt>
      <trkpt lat="42.6193950" lon="-8.6447160">
        <ele>48.9</ele>
        <time>2021-05-23T06:00:51Z</time>
      </trkpt>
      <trkpt lat="42.6194100" lon="-8.6447190">
        <ele>48.9</ele>
        <time>2021-05-23T06:00:52Z</time>
      </trkpt>
      <trkpt lat="42.6194140" lon="-8.6447090">
        <ele>48.9</ele>
        <time>2021-05-23T06:00:53Z</time>
      </trkpt>
      <trkpt lat="42.6194280" lon="-8.6446990">
        <ele>48.9</ele>
        <time>2021-05-23T06:00:54Z</time>
      </trkpt>
      <trkpt lat="42.6194420" lon="-8.6446990">
        <ele>49.0</ele>
        <time>2021-05-23T06:00:55Z</time>
      </trkpt>
      <trkpt lat="42.6194570" lon="-8.6446970">
        <ele>49.0</ele>
        <time>2021-05-23T06:00:56Z</time>
      </trkpt>
      <trkpt lat="42.6194710" lon="-8.6446990">
        <ele>49.0</ele>
        <time>2021-05-23T06:00:57Z</time>
      </trkpt>
      <trkpt lat="42.6194910" lon="-8.6447060">
        <ele>49.0</ele>
        <time>2021-05-23T06:00:58Z</time>
      </trkpt>
      <trkpt lat="42.6195020" lon="-8.6446930">
        <ele>49.0</ele>
        <time>2021-05-23T06:00:59Z</time>
      </trkpt>
      <trkpt lat="42.6195230" lon="-8.6446870">
        <ele>49.0</ele>
        <time>2021-05-23T06:01:00Z</time>
      </trkpt>
      <trkpt lat="42.6195400" lon="-8.6446780">
        <ele>49.0</ele>
        <time>2021-05-23T06:01:01Z</time>
      </trkpt>
      <trkpt lat="42.6195510" lon="-8.6446780">
        <ele>49.0</ele>
        <time>2021-05-23T06:01:02Z</time>
      </trkpt>
      <trkpt lat="42.6195620" lon="-8.6446770">
        <ele>49.1</ele>
        <time>2021-05-23T06:01:03Z</time>
      </trkpt>
      <trkpt lat="42.6195730" lon="-8.6446760">
        <ele>49.1</ele>
        <time>2021-05-23T06:01:04Z</time>
      </trkpt>
      <trkpt lat="42.6195830" lon="-8.6446800">
        <ele>49.1</ele>
        <time>2021-05-23T06:01:05Z</time>
      </trkpt>
      <trkpt lat="42.6195920" lon="-8.6446820">
        <ele>49.1</ele>
        <time>2021-05-23T06:01:06Z</time>
      </trkpt>
      <trkpt lat="42.6196000" lon="-8.6446760">
        <ele>49.1</ele>
        <time>2021-05-23T06:01:07Z</time>
      </trkpt>
      <trkpt lat="42.6196210" lon="-8.6446800">
        <ele>49.1</ele>
        <time>2021-05-23T06:01:08Z</time>
      </trkpt>
      <trkpt lat="42.6196320" lon="-8.6446830">
        <ele>49.1</ele>
        <time>2021-05-23T06:01:09Z</time>
      </trkpt>
      <trkpt lat="42.6196480" lon="-8.6446670">
        <ele>49.1</ele>
        <time>2021-05-23T06:01:10Z</time>
      </trkpt>
      <trkpt lat="42.6196520" lon="-8.6446550">
        <ele>49.1</ele>
        <time>2021-05-23T06:01:11Z</time>
      </trkpt>
      <trkpt lat="42.6196550" lon="-8.6446430">
        <ele>49.1</ele>
        <time>2021-05-23T06:01:12Z</time>
      </trkpt>
      <trkpt lat="42.6196770" lon="-8.6446350">
        <ele>49.1</ele>
        <time>2021-05-23T06:01:13Z</time>
      </trkpt>
      <trkpt lat="42.6196840" lon="-8.6446280">
        <ele>49.1</ele>
        <time>2021-05-23T06:01:14Z</time>
      </trkpt>
      <trkpt lat="42.6196900" lon="-8.6446220">
        <ele>49.1</ele>
        <time>2021-05-23T06:01:15Z</time>
      </trkpt>
      <trkpt lat="42.6196980" lon="-8.6446120">
        <ele>49.1</ele>
        <time>2021-05-23T06:01:16Z</time>
      </trkpt>
      <trkpt lat="42.6197100" lon="-8.6445960">
        <ele>49.1</ele>
        <time>2021-05-23T06:01:17Z</time>
      </trkpt>
      <trkpt lat="42.6197210" lon="-8.6445850">
        <ele>49.1</ele>
        <time>2021-05-23T06:01:18Z</time>
      </trkpt>
      <trkpt lat="42.6197370" lon="-8.6445720">
        <ele>49.1</ele>
        <time>2021-05-23T06:01:19Z</time>
      </trkpt>
      <trkpt lat="42.6197420" lon="-8.6445610">
        <ele>49.1</ele>
        <time>2021-05-23T06:01:20Z</time>
      </trkpt>
      <trkpt lat="42.6197580" lon="-8.6445370">
        <ele>49.2</ele>
        <time>2021-05-23T06:01:21Z</time>
      </trkpt>
      <trkpt lat="42.6197640" lon="-8.6445140">
        <ele>49.2</ele>
        <time>2021-05-23T06:01:22Z</time>
      </trkpt>
      <trkpt lat="42.6197800" lon="-8.6445130">
        <ele>49.2</ele>
        <time>2021-05-23T06:01:23Z</time>
      </trkpt>
      <trkpt lat="42.6197810" lon="-8.6444760">
        <ele>49.2</ele>
        <time>2021-05-23T06:01:24Z</time>
      </trkpt>
      <trkpt lat="42.6198000" lon="-8.6444630">
        <ele>49.2</ele>
        <time>2021-05-23T06:01:25Z</time>
      </trkpt>
      <trkpt lat="42.6198080" lon="-8.6444530">
        <ele>49.2</ele>
        <time>2021-05-23T06:01:26Z</time>
      </trkpt>
      <trkpt lat="42.6198120" lon="-8.6444290">
        <ele>49.2</ele>
        <time>2021-05-23T06:01:27Z</time>
      </trkpt>
      <trkpt lat="42.6198210" lon="-8.6444140">
        <ele>49.3</ele>
        <time>2021-05-23T06:01:28Z</time>
      </trkpt>
      <trkpt lat="42.6198340" lon="-8.6444080">
        <ele>49.3</ele>
        <time>2021-05-23T06:01:29Z</time>
      </trkpt>
      <trkpt lat="42.6198480" lon="-8.6444070">
        <ele>49.3</ele>
        <time>2021-05-23T06:01:30Z</time>
      </trkpt>
      <trkpt lat="42.6198670" lon="-8.6444050">
        <ele>49.3</ele>
        <time>2021-05-23T06:01:31Z</time>
      </trkpt>
      <trkpt lat="42.6198850" lon="-8.6444080">
        <ele>49.3</ele>
        <time>2021-05-23T06:01:32Z</time>
      </trkpt>
      <trkpt lat="42.6198930" lon="-8.6444030">
        <ele>49.3</ele>
        <time>2021-05-23T06:01:33Z</time>
      </trkpt>
      <trkpt lat="42.6199070" lon="-8.6444030">
        <ele>49.3</ele>
        <time>2021-05-23T06:01:34Z</time>
      </trkpt>
      <trkpt lat="42.6199120" lon="-8.6443970">
        <ele>49.3</ele>
        <time>2021-05-23T06:01:35Z</time>
      </trkpt>
      <trkpt lat="42.6199120" lon="-8.6443990">
        <ele>49.3</ele>
        <time>2021-05-23T06:01:36Z</time>
      </trkpt>
      <trkpt lat="42.6199310" lon="-8.6444090">
        <ele>49.4</ele>
        <time>2021-05-23T06:01:37Z</time>
      </trkpt>
      <trkpt lat="42.6199390" lon="-8.6444070">
        <ele>49.4</ele>
        <time>2021-05-23T06:01:38Z</time>
      </trkpt>
      <trkpt lat="42.6199510" lon="-8.6444080">
        <ele>49.4</ele>
        <time>2021-05-23T06:01:39Z</time>
      </trkpt>
      <trkpt lat="42.6199720" lon="-8.6444020">
        <ele>49.4</ele>
        <time>2021-05-23T06:01:40Z</time>
      </trkpt>
      <trkpt lat="42.6199960" lon="-8.6443980">
        <ele>49.4</ele>
        <time>2021-05-23T06:01:41Z</time>
      </trkpt>
      <trkpt lat="42.6200090" lon="-8.6443970">
        <ele>49.5</ele>
        <time>2021-05-23T06:01:42Z</time>
      </trkpt>
      <trkpt lat="42.6200240" lon="-8.6444030">
        <ele>49.5</ele>
        <time>2021-05-23T06:01:43Z</time>
      </trkpt>
      <trkpt lat="42.6200400" lon="-8.6444000">
        <ele>49.5</ele>
        <time>2021-05-23T06:01:44Z</time>
      </trkpt>
      <trkpt lat="42.6200510" lon="-8.6443930">
        <ele>49.5</ele>
        <time>2021-05-23T06:01:45Z</time>
      </trkpt>
      <trkpt lat="42.6200610" lon="-8.6443910">
        <ele>49.5</ele>
        <time>2021-05-23T06:01:46Z</time>
      </trkpt>
      <trkpt lat="42.6200700" lon="-8.6443860">
        <ele>49.5</ele>
        <time>2021-05-23T06:01:47Z</time>
      </trkpt>
      <trkpt lat="42.6200760" lon="-8.6443870">
        <ele>49.5</ele>
        <time>2021-05-23T06:01:48Z</time>
      </trkpt>
      <trkpt lat="42.6200810" lon="-8.6443850">
        <ele>49.5</ele>
        <time>2021-05-23T06:01:49Z</time>
      </trkpt>
      <trkpt lat="42.6200890" lon="-8.6443710">
        <ele>49.5</ele>
        <time>2021-05-23T06:01:50Z</time>
      </trkpt>
      <trkpt lat="42.6201000" lon="-8.6443600">
        <ele>49.5</ele>
        <time>2021-05-23T06:01:51Z</time>
      </trkpt>
      <trkpt lat="42.6201060" lon="-8.6443490">
        <ele>49.5</ele>
        <time>2021-05-23T06:01:52Z</time>
      </trkpt>
      <trkpt lat="42.6201140" lon="-8.6443550">
        <ele>49.5</ele>
        <time>2021-05-23T06:01:53Z</time>
      </trkpt>
      <trkpt lat="42.6201300" lon="-8.6443530">
        <ele>49.5</ele>
        <time>2021-05-23T06:01:54Z</time>
      </trkpt>
      <trkpt lat="42.6201520" lon="-8.6443460">
        <ele>49.5</ele>
        <time>2021-05-23T06:01:55Z</time>
      </trkpt>
      <trkpt lat="42.6201610" lon="-8.6443390">
        <ele>49.5</ele>
        <time>2021-05-23T06:01:56Z</time>
      </trkpt>
      <trkpt lat="42.6201690" lon="-8.6443320">
        <ele>49.5</ele>
        <time>2021-05-23T06:01:57Z</time>
      </trkpt>
      <trkpt lat="42.6201790" lon="-8.6443310">
        <ele>49.5</ele>
        <time>2021-05-23T06:01:58Z</time>
      </trkpt>
      <trkpt lat="42.6201900" lon="-8.6443360">
        <ele>49.5</ele>
        <time>2021-05-23T06:01:59Z</time>
      </trkpt>
      <trkpt lat="42.6201970" lon="-8.6443460">
        <ele>49.5</ele>
        <time>2021-05-23T06:02:00Z</time>
      </trkpt>
      <trkpt lat="42.6202260" lon="-8.6443440">
        <ele>49.5</ele>
        <time>2021-05-23T06:02:01Z</time>
      </trkpt>
      <trkpt lat="42.6202360" lon="-8.6443460">
        <ele>49.5</ele>
        <time>2021-05-23T06:02:02Z</time>
      </trkpt>
      <trkpt lat="42.6202450" lon="-8.6443490">
        <ele>49.5</ele>
        <time>2021-05-23T06:02:03Z</time>
      </trkpt>
      <trkpt lat="42.6202570" lon="-8.6443480">
        <ele>49.5</ele>
        <time>2021-05-23T06:02:04Z</time>
      </trkpt>
      <trkpt lat="42.6202700" lon="-8.6443420">
        <ele>49.5</ele>
        <time>2021-05-23T06:02:05Z</time>
      </trkpt>
      <trkpt lat="42.6202830" lon="-8.6443390">
        <ele>49.5</ele>
        <time>2021-05-23T06:02:06Z</time>
      </trkpt>
      <trkpt lat="42.6202980" lon="-8.6443330">
        <ele>49.4</ele>
        <time>2021-05-23T06:02:07Z</time>
      </trkpt>
      <trkpt lat="42.6203110" lon="-8.6443300">
        <ele>49.4</ele>
        <time>2021-05-23T06:02:08Z</time>
      </trkpt>
      <trkpt lat="42.6203200" lon="-8.6443280">
        <ele>49.4</ele>
        <time>2021-05-23T06:02:09Z</time>
      </trkpt>
      <trkpt lat="42.6203330" lon="-8.6443240">
        <ele>49.4</ele>
        <time>2021-05-23T06:02:10Z</time>
      </trkpt>
      <trkpt lat="42.6203460" lon="-8.6443210">
        <ele>49.4</ele>
        <time>2021-05-23T06:02:11Z</time>
      </trkpt>
      <trkpt lat="42.6203540" lon="-8.6443140">
        <ele>49.4</ele>
        <time>2021-05-23T06:02:12Z</time>
      </trkpt>
      <trkpt lat="42.6203640" lon="-8.6443110">
        <ele>49.4</ele>
        <time>2021-05-23T06:02:13Z</time>
      </trkpt>
      <trkpt lat="42.6203770" lon="-8.6443130">
        <ele>49.4</ele>
        <time>2021-05-23T06:02:14Z</time>
      </trkpt>
      <trkpt lat="42.6203860" lon="-8.6443120">
        <ele>49.4</ele>
        <time>2021-05-23T06:02:15Z</time>
      </trkpt>
      <trkpt lat="42.6203950" lon="-8.6443000">
        <ele>49.4</ele>
        <time>2021-05-23T06:02:16Z</time>
      </trkpt>
      <trkpt lat="42.6204220" lon="-8.6443030">
        <ele>49.4</ele>
        <time>2021-05-23T06:02:17Z</time>
      </trkpt>
      <trkpt lat="42.6204310" lon="-8.6443070">
        <ele>49.4</ele>
        <time>2021-05-23T06:02:18Z</time>
      </trkpt>
      <trkpt lat="42.6204400" lon="-8.6443100">
        <ele>49.4</ele>
        <time>2021-05-23T06:02:19Z</time>
      </trkpt>
      <trkpt lat="42.6204440" lon="-8.6443050">
        <ele>49.4</ele>
        <time>2021-05-23T06:02:20Z</time>
      </trkpt>
      <trkpt lat="42.6204600" lon="-8.6443060">
        <ele>49.4</ele>
        <time>2021-05-23T06:02:21Z</time>
      </trkpt>
      <trkpt lat="42.6204750" lon="-8.6443060">
        <ele>49.4</ele>
        <time>2021-05-23T06:02:22Z</time>
      </trkpt>
      <trkpt lat="42.6204800" lon="-8.6443070">
        <ele>49.4</ele>
        <time>2021-05-23T06:02:23Z</time>
      </trkpt>
      <trkpt lat="42.6204800" lon="-8.6443090">
        <ele>49.4</ele>
        <time>2021-05-23T06:02:24Z</time>
      </trkpt>
      <trkpt lat="42.6204890" lon="-8.6443020">
        <ele>49.4</ele>
        <time>2021-05-23T06:02:25Z</time>
      </trkpt>
      <trkpt lat="42.6205020" lon="-8.6442920">
        <ele>49.4</ele>
        <time>2021-05-23T06:02:26Z</time>
      </trkpt>
      <trkpt lat="42.6205190" lon="-8.6442970">
        <ele>49.4</ele>
        <time>2021-05-23T06:02:27Z</time>
      </trkpt>
      <trkpt lat="42.6205360" lon="-8.6442990">
        <ele>49.4</ele>
        <time>2021-05-23T06:02:28Z</time>
      </trkpt>
      <trkpt lat="42.6205470" lon="-8.6442930">
        <ele>49.4</ele>
        <time>2021-05-23T06:02:29Z</time>
      </trkpt>
      <trkpt lat="42.6205500" lon="-8.6442890">
        <ele>49.4</ele>
        <time>2021-05-23T06:02:30Z</time>
      </trkpt>
      <trkpt lat="42.6205710" lon="-8.6442890">
        <ele>49.4</ele>
        <time>2021-05-23T06:02:31Z</time>
      </trkpt>
      <trkpt lat="42.6206020" lon="-8.6442880">
        <ele>49.4</ele>
        <time>2021-05-23T06:02:32Z</time>
      </trkpt>
      <trkpt lat="42.6206120" lon="-8.6442860">
        <ele>49.4</ele>
        <time>2021-05-23T06:02:33Z</time>
      </trkpt>
      <trkpt lat="42.6206300" lon="-8.6442770">
        <ele>49.4</ele>
        <time>2021-05-23T06:02:34Z</time>
      </trkpt>
      <trkpt lat="42.6206420" lon="-8.6442660">
        <ele>49.4</ele>
        <time>2021-05-23T06:02:35Z</time>
      </trkpt>
      <trkpt lat="42.6206750" lon="-8.6442750">
        <ele>49.5</ele>
        <time>2021-05-23T06:02:36Z</time>
      </trkpt>
      <trkpt lat="42.6206850" lon="-8.6442730">
        <ele>49.5</ele>
        <time>2021-05-23T06:02:37Z</time>
      </trkpt>
      <trkpt lat="42.6207000" lon="-8.6442670">
        <ele>49.5</ele>
        <time>2021-05-23T06:02:38Z</time>
      </trkpt>
      <trkpt lat="42.6207190" lon="-8.6442680">
        <ele>49.5</ele>
        <time>2021-05-23T06:02:39Z</time>
      </trkpt>
      <trkpt lat="42.6207390" lon="-8.6442700">
        <ele>49.5</ele>
        <time>2021-05-23T06:02:40Z</time>
      </trkpt>
      <trkpt lat="42.6207520" lon="-8.6442660">
        <ele>49.5</ele>
        <time>2021-05-23T06:02:41Z</time>
      </trkpt>
      <trkpt lat="42.6207680" lon="-8.6442500">
        <ele>49.6</ele>
        <time>2021-05-23T06:02:42Z</time>
      </trkpt>
      <trkpt lat="42.6207790" lon="-8.6442440">
        <ele>49.6</ele>
        <time>2021-05-23T06:02:43Z</time>
      </trkpt>
      <trkpt lat="42.6207890" lon="-8.6442370">
        <ele>49.6</ele>
        <time>2021-05-23T06:02:44Z</time>
      </trkpt>
      <trkpt lat="42.6207990" lon="-8.6442310">
        <ele>49.6</ele>
        <time>2021-05-23T06:02:45Z</time>
      </trkpt>
      <trkpt lat="42.6208260" lon="-8.6442210">
        <ele>49.6</ele>
        <time>2021-05-23T06:02:46Z</time>
      </trkpt>
      <trkpt lat="42.6208320" lon="-8.6442180">
        <ele>49.6</ele>
        <time>2021-05-23T06:02:47Z</time>
      </trkpt>
      <trkpt lat="42.6208390" lon="-8.6442150">
        <ele>49.6</ele>
        <time>2021-05-23T06:02:48Z</time>
      </trkpt>
      <trkpt lat="42.6208710" lon="-8.6442160">
        <ele>49.7</ele>
        <time>2021-05-23T06:02:49Z</time>
      </trkpt>
      <trkpt lat="42.6208780" lon="-8.6442130">
        <ele>49.7</ele>
        <time>2021-05-23T06:02:50Z</time>
      </trkpt>
      <trkpt lat="42.6209110" lon="-8.6442020">
        <ele>49.7</ele>
        <time>2021-05-23T06:02:51Z</time>
      </trkpt>
      <trkpt lat="42.6209170" lon="-8.6441990">
        <ele>49.7</ele>
        <time>2021-05-23T06:02:52Z</time>
      </trkpt>
      <trkpt lat="42.6209280" lon="-8.6441860">
        <ele>49.7</ele>
        <time>2021-05-23T06:02:53Z</time>
      </trkpt>
      <trkpt lat="42.6209380" lon="-8.6441810">
        <ele>49.7</ele>
        <time>2021-05-23T06:02:54Z</time>
      </trkpt>
      <trkpt lat="42.6209440" lon="-8.6441850">
        <ele>49.7</ele>
        <time>2021-05-23T06:02:55Z</time>
      </trkpt>
      <trkpt lat="42.6209480" lon="-8.6441780">
        <ele>49.7</ele>
        <time>2021-05-23T06:02:56Z</time>
      </trkpt>
      <trkpt lat="42.6209720" lon="-8.6441570">
        <ele>49.8</ele>
        <time>2021-05-23T06:02:57Z</time>
      </trkpt>
      <trkpt lat="42.6209840" lon="-8.6441460">
        <ele>49.8</ele>
        <time>2021-05-23T06:02:58Z</time>
      </trkpt>
      <trkpt lat="42.6209980" lon="-8.6441440">
        <ele>49.8</ele>
        <time>2021-05-23T06:02:59Z</time>
      </trkpt>
      <trkpt lat="42.6210210" lon="-8.6441170">
        <ele>49.8</ele>
        <time>2021-05-23T06:03:00Z</time>
      </trkpt>
      <trkpt lat="42.6210260" lon="-8.6441060">
        <ele>49.8</ele>
        <time>2021-05-23T06:03:01Z</time>
      </trkpt>
      <trkpt lat="42.6210360" lon="-8.6440980">
        <ele>49.8</ele>
        <time>2021-05-23T06:03:02Z</time>
      </trkpt>
      <trkpt lat="42.6210500" lon="-8.6440860">
        <ele>49.9</ele>
        <time>2021-05-23T06:03:03Z</time>
      </trkpt>
      <trkpt lat="42.6210790" lon="-8.6440740">
        <ele>49.9</ele>
        <time>2021-05-23T06:03:04Z</time>
      </trkpt>
      <trkpt lat="42.6210890" lon="-8.6440700">
        <ele>49.9</ele>
        <time>2021-05-23T06:03:05Z</time>
      </trkpt>
      <trkpt lat="42.6211080" lon="-8.6440580">
        <ele>49.9</ele>
        <time>2021-05-23T06:03:06Z</time>
      </trkpt>
      <trkpt lat="42.6211210" lon="-8.6440540">
        <ele>49.9</ele>
        <time>2021-05-23T06:03:07Z</time>
      </trkpt>
      <trkpt lat="42.6211410" lon="-8.6440440">
        <ele>49.9</ele>
        <time>2021-05-23T06:03:08Z</time>
      </trkpt>
      <trkpt lat="42.6211510" lon="-8.6440400">
        <ele>49.9</ele>
        <time>2021-05-23T06:03:09Z</time>
      </trkpt>
      <trkpt lat="42.6211600" lon="-8.6440360">
        <ele>50.0</ele>
        <time>2021-05-23T06:03:10Z</time>
      </trkpt>
      <trkpt lat="42.6211700" lon="-8.6440320">
        <ele>50.0</ele>
        <time>2021-05-23T06:03:11Z</time>
      </trkpt>
      <trkpt lat="42.6211850" lon="-8.6440180">
        <ele>50.0</ele>
        <time>2021-05-23T06:03:12Z</time>
      </trkpt>
      <trkpt lat="42.6212010" lon="-8.6440110">
        <ele>50.0</ele>
        <time>2021-05-23T06:03:13Z</time>
      </trkpt>
      <trkpt lat="42.6212130" lon="-8.6439990">
        <ele>50.0</ele>
        <time>2021-05-23T06:03:14Z</time>
      </trkpt>
      <trkpt lat="42.6212330" lon="-8.6439930">
        <ele>50.0</ele>
        <time>2021-05-23T06:03:15Z</time>
      </trkpt>
      <trkpt lat="42.6212500" lon="-8.6439850">
        <ele>50.0</ele>
        <time>2021-05-23T06:03:16Z</time>
      </trkpt>
      <trkpt lat="42.6212610" lon="-8.6439750">
        <ele>50.0</ele>
        <time>2021-05-23T06:03:17Z</time>
      </trkpt>
      <trkpt lat="42.6212710" lon="-8.6439650">
        <ele>50.0</ele>
        <time>2021-05-23T06:03:18Z</time>
      </trkpt>
      <trkpt lat="42.6212810" lon="-8.6439570">
        <ele>50.0</ele>
        <time>2021-05-23T06:03:19Z</time>
      </trkpt>
      <trkpt lat="42.6212890" lon="-8.6439490">
        <ele>50.0</ele>
        <time>2021-05-23T06:03:20Z</time>
      </trkpt>
      <trkpt lat="42.6213040" lon="-8.6439430">
        <ele>50.1</ele>
        <time>2021-05-23T06:03:21Z</time>
      </trkpt>
      <trkpt lat="42.6213130" lon="-8.6439230">
        <ele>50.1</ele>
        <time>2021-05-23T06:03:22Z</time>
      </trkpt>
      <trkpt lat="42.6213270" lon="-8.6439170">
        <ele>50.1</ele>
        <time>2021-05-23T06:03:23Z</time>
      </trkpt>
      <trkpt lat="42.6213310" lon="-8.6439070">
        <ele>50.1</ele>
        <time>2021-05-23T06:03:24Z</time>
      </trkpt>
      <trkpt lat="42.6213450" lon="-8.6439010">
        <ele>50.1</ele>
        <time>2021-05-23T06:03:25Z</time>
      </trkpt>
      <trkpt lat="42.6213750" lon="-8.6438960">
        <ele>50.1</ele>
        <time>2021-05-23T06:03:26Z</time>
      </trkpt>
      <trkpt lat="42.6213830" lon="-8.6439000">
        <ele>50.1</ele>
        <time>2021-05-23T06:03:27Z</time>
      </trkpt>
      <trkpt lat="42.6214010" lon="-8.6439080">
        <ele>50.1</ele>
        <time>2021-05-23T06:03:28Z</time>
      </trkpt>
      <trkpt lat="42.6214170" lon="-8.6439050">
        <ele>50.1</ele>
        <time>2021-05-23T06:03:29Z</time>
      </trkpt>
      <trkpt lat="42.6214320" lon="-8.6438940">
        <ele>50.1</ele>
        <time>2021-05-23T06:03:30Z</time>
      </trkpt>
      <trkpt lat="42.6214460" lon="-8.6438850">
        <ele>50.2</ele>
        <time>2021-05-23T06:03:31Z</time>
      </trkpt>
      <trkpt lat="42.6214560" lon="-8.6438820">
        <ele>50.2</ele>
        <time>2021-05-23T06:03:32Z</time>
      </trkpt>
      <trkpt lat="42.6214730" lon="-8.6438720">
        <ele>50.2</ele>
        <time>2021-05-23T06:03:33Z</time>
      </trkpt>
      <trkpt lat="42.6214880" lon="-8.6438620">
        <ele>50.2</ele>
        <time>2021-05-23T06:03:34Z</time>
      </trkpt>
      <trkpt lat="42.6215040" lon="-8.6438560">
        <ele>50.2</ele>
        <time>2021-05-23T06:03:35Z</time>
      </trkpt>
      <trkpt lat="42.6215180" lon="-8.6438340">
        <ele>50.3</ele>
        <time>2021-05-23T06:03:36Z</time>
      </trkpt>
      <trkpt lat="42.6215240" lon="-8.6438180">
        <ele>50.3</ele>
        <time>2021-05-23T06:03:37Z</time>
      </trkpt>
      <trkpt lat="42.6215380" lon="-8.6438110">
        <ele>50.3</ele>
        <time>2021-05-23T06:03:38Z</time>
      </trkpt>
      <trkpt lat="42.6215510" lon="-8.6437940">
        <ele>50.3</ele>
        <time>2021-05-23T06:03:39Z</time>
      </trkpt>
      <trkpt lat="42.6215780" lon="-8.6437850">
        <ele>50.4</ele>
        <time>2021-05-23T06:03:40Z</time>
      </trkpt>
      <trkpt lat="42.6215860" lon="-8.6437780">
        <ele>50.4</ele>
        <time>2021-05-23T06:03:41Z</time>
      </trkpt>
      <trkpt lat="42.6215930" lon="-8.6437720">
        <ele>50.4</ele>
        <time>2021-05-23T06:03:42Z</time>
      </trkpt>
      <trkpt lat="42.6216010" lon="-8.6437650">
        <ele>50.4</ele>
        <time>2021-05-23T06:03:43Z</time>
      </trkpt>
      <trkpt lat="42.6216130" lon="-8.6437540">
        <ele>50.5</ele>
        <time>2021-05-23T06:03:44Z</time>
      </trkpt>
      <trkpt lat="42.6216310" lon="-8.6437490">
        <ele>50.5</ele>
        <time>2021-05-23T06:03:45Z</time>
      </trkpt>
      <trkpt lat="42.6216460" lon="-8.6437360">
        <ele>50.5</ele>
        <time>2021-05-23T06:03:46Z</time>
      </trkpt>
      <trkpt lat="42.6216580" lon="-8.6437360">
        <ele>50.5</ele>
        <time>2021-05-23T06:03:47Z</time>
      </trkpt>
      <trkpt lat="42.6216720" lon="-8.6437240">
        <ele>50.6</ele>
        <time>2021-05-23T06:03:48Z</time>
      </trkpt>
      <trkpt lat="42.6216820" lon="-8.6437190">
        <ele>50.6</ele>
        <time>2021-05-23T06:03:49Z</time>
      </trkpt>
      <trkpt lat="42.6216930" lon="-8.6437150">
        <ele>50.6</ele>
        <time>2021-05-23T06:03:50Z</time>
      </trkpt>
      <trkpt lat="42.6217220" lon="-8.6437060">
        <ele>50.7</ele>
        <time>2021-05-23T06:03:51Z</time>
      </trkpt>
      <trkpt lat="42.6217290" lon="-8.6436960">
        <ele>50.7</ele>
        <time>2021-05-23T06:03:52Z</time>
      </trkpt>
      <trkpt lat="42.6217360" lon="-8.6436860">
        <ele>50.7</ele>
        <time>2021-05-23T06:03:53Z</time>
      </trkpt>
      <trkpt lat="42.6217520" lon="-8.6436740">
        <ele>50.8</ele>
        <time>2021-05-23T06:03:54Z</time>
      </trkpt>
      <trkpt lat="42.6217600" lon="-8.6436700">
        <ele>50.8</ele>
        <time>2021-05-23T06:03:55Z</time>
      </trkpt>
      <trkpt lat="42.6217690" lon="-8.6436660">
        <ele>50.8</ele>
        <time>2021-05-23T06:03:56Z</time>
      </trkpt>
      <trkpt lat="42.6217830" lon="-8.6436540">
        <ele>50.9</ele>
        <time>2021-05-23T06:03:57Z</time>
      </trkpt>
      <trkpt lat="42.6217940" lon="-8.6436460">
        <ele>50.9</ele>
        <time>2021-05-23T06:03:58Z</time>
      </trkpt>
      <trkpt lat="42.6218140" lon="-8.6436490">
        <ele>51.0</ele>
        <time>2021-05-23T06:03:59Z</time>
      </trkpt>
      <trkpt lat="42.6218230" lon="-8.6436420">
        <ele>51.0</ele>
        <time>2021-05-23T06:04:00Z</time>
      </trkpt>
      <trkpt lat="42.6218460" lon="-8.6436430">
        <ele>51.0</ele>
        <time>2021-05-23T06:04:01Z</time>
      </trkpt>
      <trkpt lat="42.6218590" lon="-8.6436370">
        <ele>51.1</ele>
        <time>2021-05-23T06:04:02Z</time>
      </trkpt>
      <trkpt lat="42.6218720" lon="-8.6436310">
        <ele>51.1</ele>
        <time>2021-05-23T06:04:03Z</time>
      </trkpt>
      <trkpt lat="42.6218890" lon="-8.6436160">
        <ele>51.2</ele>
        <time>2021-05-23T06:04:04Z</time>
      </trkpt>
      <trkpt lat="42.6219070" lon="-8.6436170">
        <ele>51.2</ele>
        <time>2021-05-23T06:04:05Z</time>
      </trkpt>
      <trkpt lat="42.6219250" lon="-8.6436120">
        <ele>51.3</ele>
        <time>2021-05-23T06:04:06Z</time>
      </trkpt>
      <trkpt lat="42.6219430" lon="-8.6436110">
        <ele>51.3</ele>
        <time>2021-05-23T06:04:07Z</time>
      </trkpt>
      <trkpt lat="42.6219590" lon="-8.6436070">
        <ele>51.4</ele>
        <time>2021-05-23T06:04:08Z</time>
      </trkpt>
      <trkpt lat="42.6219750" lon="-8.6436110">
        <ele>51.4</ele>
        <time>2021-05-23T06:04:09Z</time>
      </trkpt>
      <trkpt lat="42.6219880" lon="-8.6436050">
        <ele>51.4</ele>
        <time>2021-05-23T06:04:10Z</time>
      </trkpt>
      <trkpt lat="42.6219960" lon="-8.6435960">
        <ele>51.5</ele>
        <time>2021-05-23T06:04:11Z</time>
      </trkpt>
      <trkpt lat="42.6219990" lon="-8.6435800">
        <ele>51.5</ele>
        <time>2021-05-23T06:04:12Z</time>
      </trkpt>
      <trkpt lat="42.6219980" lon="-8.6435640">
        <ele>51.5</ele>
        <time>2021-05-23T06:04:13Z</time>
      </trkpt>
      <trkpt lat="42.6220010" lon="-8.6435470">
        <ele>51.6</ele>
        <time>2021-05-23T06:04:14Z</time>
      </trkpt>
      <trkpt lat="42.6220120" lon="-8.6435380">
        <ele>51.6</ele>
        <time>2021-05-23T06:04:15Z</time>
      </trkpt>
      <trkpt lat="42.6220230" lon="-8.6435350">
        <ele>51.6</ele>
        <time>2021-05-23T06:04:16Z</time>
      </trkpt>
      <trkpt lat="42.6220360" lon="-8.6435140">
        <ele>51.7</ele>
        <time>2021-05-23T06:04:17Z</time>
      </trkpt>
      <trkpt lat="42.6220460" lon="-8.6435090">
        <ele>51.7</ele>
        <time>2021-05-23T06:04:18Z</time>
      </trkpt>
      <trkpt lat="42.6220550" lon="-8.6435050">
        <ele>51.7</ele>
        <time>2021-05-23T06:04:19Z</time>
      </trkpt>
      <trkpt lat="42.6220680" lon="-8.6435060">
        <ele>51.8</ele>
        <time>2021-05-23T06:04:20Z</time>
      </trkpt>
      <trkpt lat="42.6220850" lon="-8.6435050">
        <ele>51.8</ele>
        <time>2021-05-23T06:04:21Z</time>
      </trkpt>
      <trkpt lat="42.6221020" lon="-8.6434960">
        <ele>51.9</ele>
        <time>2021-05-23T06:04:22Z</time>
      </trkpt>
      <trkpt lat="42.6221130" lon="-8.6434930">
        <ele>51.9</ele>
        <time>2021-05-23T06:04:23Z</time>
      </trkpt>
      <trkpt lat="42.6221230" lon="-8.6434890">
        <ele>51.9</ele>
        <time>2021-05-23T06:04:24Z</time>
      </trkpt>
      <trkpt lat="42.6221390" lon="-8.6434970">
        <ele>52.0</ele>
        <time>2021-05-23T06:04:25Z</time>
      </trkpt>
      <trkpt lat="42.6221440" lon="-8.6434950">
        <ele>52.0</ele>
        <time>2021-05-23T06:04:26Z</time>
      </trkpt>
      <trkpt lat="42.6221500" lon="-8.6434940">
        <ele>52.0</ele>
        <time>2021-05-23T06:04:27Z</time>
      </trkpt>
      <trkpt lat="42.6221550" lon="-8.6434920">
        <ele>52.0</ele>
        <time>2021-05-23T06:04:28Z</time>
      </trkpt>
      <trkpt lat="42.6221610" lon="-8.6434900">
        <ele>52.0</ele>
        <time>2021-05-23T06:04:29Z</time>
      </trkpt>
      <trkpt lat="42.6221800" lon="-8.6434900">
        <ele>52.1</ele>
        <time>2021-05-23T06:04:30Z</time>
      </trkpt>
      <trkpt lat="42.6221940" lon="-8.6434880">
        <ele>52.1</ele>
        <time>2021-05-23T06:04:31Z</time>
      </trkpt>
      <trkpt lat="42.6222140" lon="-8.6434730">
        <ele>52.1</ele>
        <time>2021-05-23T06:04:32Z</time>
      </trkpt>
      <trkpt lat="42.6222230" lon="-8.6434680">
        <ele>52.2</ele>
        <time>2021-05-23T06:04:33Z</time>
      </trkpt>
      <trkpt lat="42.6222330" lon="-8.6434630">
        <ele>52.2</ele>
        <time>2021-05-23T06:04:34Z</time>
      </trkpt>
      <trkpt lat="42.6222630" lon="-8.6434720">
        <ele>52.2</ele>
        <time>2021-05-23T06:04:35Z</time>
      </trkpt>
      <trkpt lat="42.6222710" lon="-8.6434750">
        <ele>52.2</ele>
        <time>2021-05-23T06:04:36Z</time>
      </trkpt>
      <trkpt lat="42.6222870" lon="-8.6434720">
        <ele>52.3</ele>
        <time>2021-05-23T06:04:37Z</time>
      </trkpt>
      <trkpt lat="42.6223030" lon="-8.6434710">
        <ele>52.3</ele>
        <time>2021-05-23T06:04:38Z</time>
      </trkpt>
      <trkpt lat="42.6223360" lon="-8.6434680">
        <ele>52.3</ele>
        <time>2021-05-23T06:04:39Z</time>
      </trkpt>
      <trkpt lat="42.6223450" lon="-8.6434710">
        <ele>52.3</ele>
        <time>2021-05-23T06:04:40Z</time>
      </trkpt>
      <trkpt lat="42.6223530" lon="-8.6434770">
        <ele>52.3</ele>
        <time>2021-05-23T06:04:41Z</time>
      </trkpt>
      <trkpt lat="42.6223630" lon="-8.6434730">
        <ele>52.3</ele>
        <time>2021-05-23T06:04:42Z</time>
      </trkpt>
      <trkpt lat="42.6223720" lon="-8.6434800">
        <ele>52.3</ele>
        <time>2021-05-23T06:04:43Z</time>
      </trkpt>
      <trkpt lat="42.6223860" lon="-8.6434910">
        <ele>52.3</ele>
        <time>2021-05-23T06:04:44Z</time>
      </trkpt>
      <trkpt lat="42.6224010" lon="-8.6434910">
        <ele>52.3</ele>
        <time>2021-05-23T06:04:45Z</time>
      </trkpt>
      <trkpt lat="42.6224260" lon="-8.6434960">
        <ele>52.3</ele>
        <time>2021-05-23T06:04:46Z</time>
      </trkpt>
      <trkpt lat="42.6224380" lon="-8.6434960">
        <ele>52.3</ele>
        <time>2021-05-23T06:04:47Z</time>
      </trkpt>
      <trkpt lat="42.6224570" lon="-8.6434870">
        <ele>52.3</ele>
        <time>2021-05-23T06:04:48Z</time>
      </trkpt>
      <trkpt lat="42.6224670" lon="-8.6434860">
        <ele>52.3</ele>
        <time>2021-05-23T06:04:49Z</time>
      </trkpt>
      <trkpt lat="42.6224770" lon="-8.6434840">
        <ele>52.3</ele>
        <time>2021-05-23T06:04:50Z</time>
      </trkpt>
      <trkpt lat="42.6224960" lon="-8.6434800">
        <ele>52.3</ele>
        <time>2021-05-23T06:04:51Z</time>
      </trkpt>
      <trkpt lat="42.6225030" lon="-8.6434780">
        <ele>52.3</ele>
        <time>2021-05-23T06:04:52Z</time>
      </trkpt>
      <trkpt lat="42.6225110" lon="-8.6434770">
        <ele>52.3</ele>
        <time>2021-05-23T06:04:53Z</time>
      </trkpt>
      <trkpt lat="42.6225180" lon="-8.6434750">
        <ele>52.3</ele>
        <time>2021-05-23T06:04:54Z</time>
      </trkpt>
      <trkpt lat="42.6225350" lon="-8.6434630">
        <ele>52.3</ele>
        <time>2021-05-23T06:04:55Z</time>
      </trkpt>
      <trkpt lat="42.6225440" lon="-8.6434610">
        <ele>52.3</ele>
        <time>2021-05-23T06:04:56Z</time>
      </trkpt>
      <trkpt lat="42.6225490" lon="-8.6434530">
        <ele>52.3</ele>
        <time>2021-05-23T06:04:57Z</time>
      </trkpt>
      <trkpt lat="42.6225580" lon="-8.6434410">
        <ele>52.3</ele>
        <time>2021-05-23T06:04:58Z</time>
      </trkpt>
      <trkpt lat="42.6225720" lon="-8.6434360">
        <ele>52.3</ele>
        <time>2021-05-23T06:04:59Z</time>
      </trkpt>
      <trkpt lat="42.6226040" lon="-8.6434320">
        <ele>52.2</ele>
        <time>2021-05-23T06:05:00Z</time>
      </trkpt>
      <trkpt lat="42.6226130" lon="-8.6434320">
        <ele>52.2</ele>
        <time>2021-05-23T06:05:01Z</time>
      </trkpt>
      <trkpt lat="42.6226380" lon="-8.6434360">
        <ele>52.2</ele>
        <time>2021-05-23T06:05:02Z</time>
      </trkpt>
      <trkpt lat="42.6226460" lon="-8.6434360">
        <ele>52.2</ele>
        <time>2021-05-23T06:05:03Z</time>
      </trkpt>
      <trkpt lat="42.6226540" lon="-8.6434370">
        <ele>52.2</ele>
        <time>2021-05-23T06:05:04Z</time>
      </trkpt>
      <trkpt lat="42.6226710" lon="-8.6434280">
        <ele>52.2</ele>
        <time>2021-05-23T06:05:05Z</time>
      </trkpt>
      <trkpt lat="42.6226790" lon="-8.6434220">
        <ele>52.1</ele>
        <time>2021-05-23T06:05:06Z</time>
      </trkpt>
      <trkpt lat="42.6226880" lon="-8.6434160">
        <ele>52.1</ele>
        <time>2021-05-23T06:05:07Z</time>
      </trkpt>
      <trkpt lat="42.6227210" lon="-8.6434160">
        <ele>52.1</ele>
        <time>2021-05-23T06:05:08Z</time>
      </trkpt>
      <trkpt lat="42.6227300" lon="-8.6434150">
        <ele>52.1</ele>
        <time>2021-05-23T06:05:09Z</time>
      </trkpt>
      <trkpt lat="42.6227390" lon="-8.6434090">
        <ele>52.1</ele>
        <time>2021-05-23T06:05:10Z</time>
      </trkpt>
      <trkpt lat="42.6227500" lon="-8.6433980">
        <ele>52.1</ele>
        <time>2021-05-23T06:05:11Z</time>
      </trkpt>
      <trkpt lat="42.6227620" lon="-8.6433910">
        <ele>52.1</ele>
        <time>2021-05-23T06:05:12Z</time>
      </trkpt>
      <trkpt lat="42.6227880" lon="-8.6433980">
        <ele>52.1</ele>
        <time>2021-05-23T06:05:13Z</time>
      </trkpt>
      <trkpt lat="42.6227980" lon="-8.6433990">
        <ele>52.1</ele>
        <time>2021-05-23T06:05:14Z</time>
      </trkpt>
      <trkpt lat="42.6228350" lon="-8.6433940">
        <ele>52.1</ele>
        <time>2021-05-23T06:05:15Z</time>
      </trkpt>
      <trkpt lat="42.6228470" lon="-8.6433920">
        <ele>52.1</ele>
        <time>2021-05-23T06:05:16Z</time>
      </trkpt>
      <trkpt lat="42.6228750" lon="-8.6433890">
        <ele>52.1</ele>
        <time>2021-05-23T06:05:17Z</time>
      </trkpt>
      <trkpt lat="42.6228860" lon="-8.6433900">
        <ele>52.1</ele>
        <time>2021-05-23T06:05:18Z</time>
      </trkpt>
      <trkpt lat="42.6228980" lon="-8.6433910">
        <ele>52.1</ele>
        <time>2021-05-23T06:05:19Z</time>
      </trkpt>
      <trkpt lat="42.6229210" lon="-8.6433910">
        <ele>52.1</ele>
        <time>2021-05-23T06:05:20Z</time>
      </trkpt>
      <trkpt lat="42.6229460" lon="-8.6433880">
        <ele>52.1</ele>
        <time>2021-05-23T06:05:21Z</time>
      </trkpt>
      <trkpt lat="42.6229560" lon="-8.6433890">
        <ele>52.1</ele>
        <time>2021-05-23T06:05:22Z</time>
      </trkpt>
      <trkpt lat="42.6229820" lon="-8.6434030">
        <ele>52.1</ele>
        <time>2021-05-23T06:05:23Z</time>
      </trkpt>
      <trkpt lat="42.6229910" lon="-8.6434070">
        <ele>52.1</ele>
        <time>2021-05-23T06:05:24Z</time>
      </trkpt>
      <trkpt lat="42.6230180" lon="-8.6434250">
        <ele>52.1</ele>
        <time>2021-05-23T06:05:25Z</time>
      </trkpt>
      <trkpt lat="42.6230280" lon="-8.6434300">
        <ele>52.1</ele>
        <time>2021-05-23T06:05:26Z</time>
      </trkpt>
      <trkpt lat="42.6230420" lon="-8.6434350">
        <ele>52.1</ele>
        <time>2021-05-23T06:05:27Z</time>
      </trkpt>
      <trkpt lat="42.6230510" lon="-8.6434390">
        <ele>52.1</ele>
        <time>2021-05-23T06:05:28Z</time>
      </trkpt>
      <trkpt lat="42.6230600" lon="-8.6434420">
        <ele>52.1</ele>
        <time>2021-05-23T06:05:29Z</time>
      </trkpt>
      <trkpt lat="42.6230690" lon="-8.6434460">
        <ele>52.1</ele>
        <time>2021-05-23T06:05:30Z</time>
      </trkpt>
      <trkpt lat="42.6230840" lon="-8.6434560">
        <ele>52.1</ele>
        <time>2021-05-23T06:05:31Z</time>
      </trkpt>
      <trkpt lat="42.6230960" lon="-8.6434680">
        <ele>52.1</ele>
        <time>2021-05-23T06:05:32Z</time>
      </trkpt>
      <trkpt lat="42.6231190" lon="-8.6434830">
        <ele>52.1</ele>
        <time>2021-05-23T06:05:33Z</time>
      </trkpt>
      <trkpt lat="42.6231270" lon="-8.6434830">
        <ele>52.1</ele>
        <time>2021-05-23T06:05:34Z</time>
      </trkpt>
      <trkpt lat="42.6231350" lon="-8.6434830">
        <ele>52.2</ele>
        <time>2021-05-23T06:05:35Z</time>
      </trkpt>
      <trkpt lat="42.6231500" lon="-8.6434870">
        <ele>52.2</ele>
        <time>2021-05-23T06:05:36Z</time>
      </trkpt>
      <trkpt lat="42.6231690" lon="-8.6434970">
        <ele>52.2</ele>
        <time>2021-05-23T06:05:37Z</time>
      </trkpt>
      <trkpt lat="42.6231860" lon="-8.6435030">
        <ele>52.2</ele>
        <time>2021-05-23T06:05:38Z</time>
      </trkpt>
      <trkpt lat="42.6231890" lon="-8.6434990">
        <ele>52.2</ele>
        <time>2021-05-23T06:05:39Z</time>
      </trkpt>
      <trkpt lat="42.6231970" lon="-8.6434960">
        <ele>52.2</ele>
        <time>2021-05-23T06:05:40Z</time>
      </trkpt>
      <trkpt lat="42.6232050" lon="-8.6435020">
        <ele>52.2</ele>
        <time>2021-05-23T06:05:41Z</time>
      </trkpt>
      <trkpt lat="42.6232200" lon="-8.6435220">
        <ele>52.3</ele>
        <time>2021-05-23T06:05:42Z</time>
      </trkpt>
      <trkpt lat="42.6232360" lon="-8.6435290">
        <ele>52.3</ele>
        <time>2021-05-23T06:05:43Z</time>
      </trkpt>
      <trkpt lat="42.6232440" lon="-8.6435320">
        <ele>52.3</ele>
        <time>2021-05-23T06:05:44Z</time>
      </trkpt>
      <trkpt lat="42.6232500" lon="-8.6435270">
        <ele>52.3</ele>
        <time>2021-05-23T06:05:45Z</time>
      </trkpt>
      <trkpt lat="42.6232600" lon="-8.6435300">
        <ele>52.3</ele>
        <time>2021-05-23T06:05:46Z</time>
      </trkpt>
      <trkpt lat="42.6232690" lon="-8.6435390">
        <ele>52.3</ele>
        <time>2021-05-23T06:05:47Z</time>
      </trkpt>
      <trkpt lat="42.6232770" lon="-8.6435470">
        <ele>52.3</ele>
        <time>2021-05-23T06:05:48Z</time>
      </trkpt>
      <trkpt lat="42.6232850" lon="-8.6435560">
        <ele>52.3</ele>
        <time>2021-05-23T06:05:49Z</time>
      </trkpt>
      <trkpt lat="42.6233130" lon="-8.6435710">
        <ele>52.4</ele>
        <time>2021-05-23T06:05:50Z</time>
      </trkpt>
      <trkpt lat="42.6233340" lon="-8.6435870">
        <ele>52.4</ele>
        <time>2021-05-23T06:05:51Z</time>
      </trkpt>
      <trkpt lat="42.6233430" lon="-8.6435950">
        <ele>52.4</ele>
        <time>2021-05-23T06:05:52Z</time>
      </trkpt>
      <trkpt lat="42.6233530" lon="-8.6436020">
        <ele>52.4</ele>
        <time>2021-05-23T06:05:53Z</time>
      </trkpt>
      <trkpt lat="42.6233810" lon="-8.6436250">
        <ele>52.5</ele>
        <time>2021-05-23T06:05:54Z</time>
      </trkpt>
      <trkpt lat="42.6233900" lon="-8.6436320">
        <ele>52.5</ele>
        <time>2021-05-23T06:05:55Z</time>
      </trkpt>
      <trkpt lat="42.6234230" lon="-8.6436460">
        <ele>52.5</ele>
        <time>2021-05-23T06:05:56Z</time>
      </trkpt>
      <trkpt lat="42.6234330" lon="-8.6436500">
        <ele>52.5</ele>
        <time>2021-05-23T06:05:57Z</time>
      </trkpt>
      <trkpt lat="42.6234570" lon="-8.6436600">
        <ele>52.6</ele>
        <time>2021-05-23T06:05:58Z</time>
      </trkpt>
      <trkpt lat="42.6234640" lon="-8.6436650">
        <ele>52.6</ele>
        <time>2021-05-23T06:05:59Z</time>
      </trkpt>
      <trkpt lat="42.6234720" lon="-8.6436700">
        <ele>52.6</ele>
        <time>2021-05-23T06:06:00Z</time>
      </trkpt>
      <trkpt lat="42.6234910" lon="-8.6436810">
        <ele>52.6</ele>
        <time>2021-05-23T06:06:01Z</time>
      </trkpt>
      <trkpt lat="42.6235050" lon="-8.6436860">
        <ele>52.6</ele>
        <time>2021-05-23T06:06:02Z</time>
      </trkpt>
      <trkpt lat="42.6235190" lon="-8.6436970">
        <ele>52.6</ele>
        <time>2021-05-23T06:06:03Z</time>
      </trkpt>
      <trkpt lat="42.6235270" lon="-8.6437070">
        <ele>52.6</ele>
        <time>2021-05-23T06:06:04Z</time>
      </trkpt>
      <trkpt lat="42.6235340" lon="-8.6437170">
        <ele>52.6</ele>
        <time>2021-05-23T06:06:05Z</time>
      </trkpt>
      <trkpt lat="42.6235460" lon="-8.6437260">
        <ele>52.7</ele>
        <time>2021-05-23T06:06:06Z</time>
      </trkpt>
      <trkpt lat="42.6235640" lon="-8.6437280">
        <ele>52.7</ele>
        <time>2021-05-23T06:06:07Z</time>
      </trkpt>
      <trkpt lat="42.6235790" lon="-8.6437450">
        <ele>52.7</ele>
        <time>2021-05-23T06:06:08Z</time>
      </trkpt>
      <trkpt lat="42.6235870" lon="-8.6437500">
        <ele>52.7</ele>
        <time>2021-05-23T06:06:09Z</time>
      </trkpt>
      <trkpt lat="42.6235960" lon="-8.6437540">
        <ele>52.7</ele>
        <time>2021-05-23T06:06:10Z</time>
      </trkpt>
      <trkpt lat="42.6236100" lon="-8.6437680">
        <ele>52.7</ele>
        <time>2021-05-23T06:06:11Z</time>
      </trkpt>
      <trkpt lat="42.6236210" lon="-8.6437720">
        <ele>52.8</ele>
        <time>2021-05-23T06:06:12Z</time>
      </trkpt>
      <trkpt lat="42.6236310" lon="-8.6437770">
        <ele>52.8</ele>
        <time>2021-05-23T06:06:13Z</time>
      </trkpt>
      <trkpt lat="42.6236530" lon="-8.6437840">
        <ele>52.8</ele>
        <time>2021-05-23T06:06:14Z</time>
      </trkpt>
      <trkpt lat="42.6236610" lon="-8.6437860">
        <ele>52.8</ele>
        <time>2021-05-23T06:06:15Z</time>
      </trkpt>
      <trkpt lat="42.6236690" lon="-8.6437870">
        <ele>52.8</ele>
        <time>2021-05-23T06:06:16Z</time>
      </trkpt>
      <trkpt lat="42.6236880" lon="-8.6437940">
        <ele>52.8</ele>
        <time>2021-05-23T06:06:17Z</time>
      </trkpt>
      <trkpt lat="42.6236980" lon="-8.6437970">
        <ele>52.8</ele>
        <time>2021-05-23T06:06:18Z</time>
      </trkpt>
      <trkpt lat="42.6237070" lon="-8.6437990">
        <ele>52.8</ele>
        <time>2021-05-23T06:06:19Z</time>
      </trkpt>
      <trkpt lat="42.6237290" lon="-8.6437990">
        <ele>52.8</ele>
        <time>2021-05-23T06:06:20Z</time>
      </trkpt>
      <trkpt lat="42.6237370" lon="-8.6438040">
        <ele>52.8</ele>
        <time>2021-05-23T06:06:21Z</time>
      </trkpt>
      <trkpt lat="42.6237460" lon="-8.6438080">
        <ele>52.8</ele>
        <time>2021-05-23T06:06:22Z</time>
      </trkpt>
      <trkpt lat="42.6237630" lon="-8.6438130">
        <ele>52.8</ele>
        <time>2021-05-23T06:06:23Z</time>
      </trkpt>
      <trkpt lat="42.6237750" lon="-8.6438180">
        <ele>52.8</ele>
        <time>2021-05-23T06:06:24Z</time>
      </trkpt>
      <trkpt lat="42.6237860" lon="-8.6438220">
        <ele>52.8</ele>
        <time>2021-05-23T06:06:25Z</time>
      </trkpt>
      <trkpt lat="42.6237990" lon="-8.6438260">
        <ele>52.8</ele>
        <time>2021-05-23T06:06:26Z</time>
      </trkpt>
      <trkpt lat="42.6238140" lon="-8.6438310">
        <ele>52.8</ele>
        <time>2021-05-23T06:06:27Z</time>
      </trkpt>
      <trkpt lat="42.6238470" lon="-8.6438400">
        <ele>52.8</ele>
        <time>2021-05-23T06:06:28Z</time>
      </trkpt>
      <trkpt lat="42.6238550" lon="-8.6438390">
        <ele>52.8</ele>
        <time>2021-05-23T06:06:29Z</time>
      </trkpt>
      <trkpt lat="42.6238710" lon="-8.6438290">
        <ele>52.8</ele>
        <time>2021-05-23T06:06:30Z</time>
      </trkpt>
      <trkpt lat="42.6238840" lon="-8.6438230">
        <ele>52.8</ele>
        <time>2021-05-23T06:06:31Z</time>
      </trkpt>
      <trkpt lat="42.6239010" lon="-8.6438220">
        <ele>52.9</ele>
        <time>2021-05-23T06:06:32Z</time>
      </trkpt>
      <trkpt lat="42.6239110" lon="-8.6438190">
        <ele>52.9</ele>
        <time>2021-05-23T06:06:33Z</time>
      </trkpt>
      <trkpt lat="42.6239260" lon="-8.6438150">
        <ele>52.9</ele>
        <time>2021-05-23T06:06:34Z</time>
      </trkpt>
      <trkpt lat="42.6239450" lon="-8.6438180">
        <ele>52.9</ele>
        <time>2021-05-23T06:06:35Z</time>
      </trkpt>
      <trkpt lat="42.6239640" lon="-8.6438250">
        <ele>52.9</ele>
        <time>2021-05-23T06:06:36Z</time>
      </trkpt>
      <trkpt lat="42.6239760" lon="-8.6438280">
        <ele>52.9</ele>
        <time>2021-05-23T06:06:37Z</time>
      </trkpt>
      <trkpt lat="42.6239910" lon="-8.6438230">
        <ele>52.9</ele>
        <time>2021-05-23T06:06:38Z</time>
      </trkpt>
      <trkpt lat="42.6240110" lon="-8.6438210">
        <ele>52.9</ele>
        <time>2021-05-23T06:06:39Z</time>
      </trkpt>
      <trkpt lat="42.6240270" lon="-8.6438280">
        <ele>52.9</ele>
        <time>2021-05-23T06:06:40Z</time>
      </trkpt>
      <trkpt lat="42.6240430" lon="-8.6438250">
        <ele>52.9</ele>
        <time>2021-05-23T06:06:41Z</time>
      </trkpt>
      <trkpt lat="42.6240580" lon="-8.6438260">
        <ele>52.9</ele>
        <time>2021-05-23T06:06:42Z</time>
      </trkpt>
      <trkpt lat="42.6240740" lon="-8.6438330">
        <ele>53.0</ele>
        <time>2021-05-23T06:06:43Z</time>
      </trkpt>
      <trkpt lat="42.6240880" lon="-8.6438210">
        <ele>53.0</ele>
        <time>2021-05-23T06:06:44Z</time>
      </trkpt>
      <trkpt lat="42.6241030" lon="-8.6438160">
        <ele>53.0</ele>
        <time>2021-05-23T06:06:45Z</time>
      </trkpt>
      <trkpt lat="42.6241200" lon="-8.6438200">
        <ele>53.0</ele>
        <time>2021-05-23T06:06:46Z</time>
      </trkpt>
      <trkpt lat="42.6241370" lon="-8.6438210">
        <ele>53.0</ele>
        <time>2021-05-23T06:06:47Z</time>
      </trkpt>
      <trkpt lat="42.6241470" lon="-8.6438090">
        <ele>53.1</ele>
        <time>2021-05-23T06:06:48Z</time>
      </trkpt>
      <trkpt lat="42.6241630" lon="-8.6438080">
        <ele>53.1</ele>
        <time>2021-05-23T06:06:49Z</time>
      </trkpt>
      <trkpt lat="42.6241880" lon="-8.6438120">
        <ele>53.1</ele>
        <time>2021-05-23T06:06:50Z</time>
      </trkpt>
      <trkpt lat="42.6241970" lon="-8.6438130">
        <ele>53.1</ele>
        <time>2021-05-23T06:06:51Z</time>
      </trkpt>
      <trkpt lat="42.6242060" lon="-8.6438130">
        <ele>53.1</ele>
        <time>2021-05-23T06:06:52Z</time>
      </trkpt>
      <trkpt lat="42.6242200" lon="-8.6438110">
        <ele>53.2</ele>
        <time>2021-05-23T06:06:53Z</time>
      </trkpt>
      <trkpt lat="42.6242360" lon="-8.6438060">
        <ele>53.2</ele>
        <time>2021-05-23T06:06:54Z</time>
      </trkpt>
      <trkpt lat="42.6242520" lon="-8.6438000">
        <ele>53.2</ele>
        <time>2021-05-23T06:06:55Z</time>
      </trkpt>
      <trkpt lat="42.6242680" lon="-8.6438030">
        <ele>53.3</ele>
        <time>2021-05-23T06:06:56Z</time>
      </trkpt>
      <trkpt lat="42.6242840" lon="-8.6438040">
        <ele>53.3</ele>
        <time>2021-05-23T06:06:57Z</time>
      </trkpt>
      <trkpt lat="42.6243010" lon="-8.6438100">
        <ele>53.3</ele>
        <time>2021-05-23T06:06:58Z</time>
      </trkpt>
      <trkpt lat="42.6243230" lon="-8.6438140">
        <ele>53.3</ele>
        <time>2021-05-23T06:06:59Z</time>
      </trkpt>
      <trkpt lat="42.6243310" lon="-8.6438130">
        <ele>53.4</ele>
        <time>2021-05-23T06:07:00Z</time>
      </trkpt>
      <trkpt lat="42.6243400" lon="-8.6438110">
        <ele>53.4</ele>
        <time>2021-05-23T06:07:01Z</time>
      </trkpt>
      <trkpt lat="42.6243460" lon="-8.6438120">
        <ele>53.4</ele>
        <time>2021-05-23T06:07:02Z</time>
      </trkpt>
      <trkpt lat="42.6243500" lon="-8.6438080">
        <ele>53.4</ele>
        <time>2021-05-23T06:07:03Z</time>
      </trkpt>
      <trkpt lat="42.6243600" lon="-8.6438010">
        <ele>53.4</ele>
        <time>2021-05-23T06:07:04Z</time>
      </trkpt>
      <trkpt lat="42.6243720" lon="-8.6438020">
        <ele>53.4</ele>
        <time>2021-05-23T06:07:05Z</time>
      </trkpt>
      <trkpt lat="42.6243820" lon="-8.6438110">
        <ele>53.4</ele>
        <time>2021-05-23T06:07:06Z</time>
      </trkpt>
      <trkpt lat="42.6243910" lon="-8.6438090">
        <ele>53.5</ele>
        <time>2021-05-23T06:07:07Z</time>
      </trkpt>
      <trkpt lat="42.6244000" lon="-8.6438150">
        <ele>53.5</ele>
        <time>2021-05-23T06:07:08Z</time>
      </trkpt>
      <trkpt lat="42.6244080" lon="-8.6438090">
        <ele>53.5</ele>
        <time>2021-05-23T06:07:09Z</time>
      </trkpt>
      <trkpt lat="42.6244200" lon="-8.6438070">
        <ele>53.5</ele>
        <time>2021-05-23T06:07:10Z</time>
      </trkpt>
      <trkpt lat="42.6244340" lon="-8.6438100">
        <ele>53.5</ele>
        <time>2021-05-23T06:07:11Z</time>
      </trkpt>
      <trkpt lat="42.6244510" lon="-8.6437980">
        <ele>53.5</ele>
        <time>2021-05-23T06:07:12Z</time>
      </trkpt>
      <trkpt lat="42.6244600" lon="-8.6437970">
        <ele>53.6</ele>
        <time>2021-05-23T06:07:13Z</time>
      </trkpt>
      <trkpt lat="42.6244700" lon="-8.6437960">
        <ele>53.6</ele>
        <time>2021-05-23T06:07:14Z</time>
      </trkpt>
      <trkpt lat="42.6244900" lon="-8.6438050">
        <ele>53.6</ele>
        <time>2021-05-23T06:07:15Z</time>
      </trkpt>
      <trkpt lat="42.6244980" lon="-8.6438080">
        <ele>53.6</ele>
        <time>2021-05-23T06:07:16Z</time>
      </trkpt>
      <trkpt lat="42.6245070" lon="-8.6438110">
        <ele>53.6</ele>
        <time>2021-05-23T06:07:17Z</time>
      </trkpt>
      <trkpt lat="42.6245150" lon="-8.6438050">
        <ele>53.6</ele>
        <time>2021-05-23T06:07:18Z</time>
      </trkpt>
      <trkpt lat="42.6245380" lon="-8.6438130">
        <ele>53.7</ele>
        <time>2021-05-23T06:07:19Z</time>
      </trkpt>
      <trkpt lat="42.6245610" lon="-8.6438160">
        <ele>53.7</ele>
        <time>2021-05-23T06:07:20Z</time>
      </trkpt>
      <trkpt lat="42.6245720" lon="-8.6438160">
        <ele>53.7</ele>
        <time>2021-05-23T06:07:21Z</time>
      </trkpt>
      <trkpt lat="42.6245820" lon="-8.6438170">
        <ele>53.8</ele>
        <time>2021-05-23T06:07:22Z</time>
      </trkpt>
      <trkpt lat="42.6245950" lon="-8.6438170">
        <ele>53.8</ele>
        <time>2021-05-23T06:07:23Z</time>
      </trkpt>
      <trkpt lat="42.6246110" lon="-8.6438220">
        <ele>53.8</ele>
        <time>2021-05-23T06:07:24Z</time>
      </trkpt>
      <trkpt lat="42.6246280" lon="-8.6438260">
        <ele>53.8</ele>
        <time>2021-05-23T06:07:25Z</time>
      </trkpt>
      <trkpt lat="42.6246430" lon="-8.6438400">
        <ele>53.9</ele>
        <time>2021-05-23T06:07:26Z</time>
      </trkpt>
      <trkpt lat="42.6246710" lon="-8.6438380">
        <ele>53.9</ele>
        <time>2021-05-23T06:07:27Z</time>
      </trkpt>
      <trkpt lat="42.6246800" lon="-8.6438390">
        <ele>53.9</ele>
        <time>2021-05-23T06:07:28Z</time>
      </trkpt>
      <trkpt lat="42.6246990" lon="-8.6438420">
        <ele>54.0</ele>
        <time>2021-05-23T06:07:29Z</time>
      </trkpt>
      <trkpt lat="42.6247080" lon="-8.6438410">
        <ele>54.0</ele>
        <time>2021-05-23T06:07:30Z</time>
      </trkpt>
      <trkpt lat="42.6247180" lon="-8.6438410">
        <ele>54.0</ele>
        <time>2021-05-23T06:07:31Z</time>
      </trkpt>
      <trkpt lat="42.6247310" lon="-8.6438400">
        <ele>54.0</ele>
        <time>2021-05-23T06:07:32Z</time>
      </trkpt>
      <trkpt lat="42.6247530" lon="-8.6438520">
        <ele>54.1</ele>
        <time>2021-05-23T06:07:33Z</time>
      </trkpt>
      <trkpt lat="42.6247680" lon="-8.6438600">
        <ele>54.1</ele>
        <time>2021-05-23T06:07:34Z</time>
      </trkpt>
      <trkpt lat="42.6247860" lon="-8.6438720">
        <ele>54.1</ele>
        <time>2021-05-23T06:07:35Z</time>
      </trkpt>
      <trkpt lat="42.6248140" lon="-8.6438860">
        <ele>54.2</ele>
        <time>2021-05-23T06:07:36Z</time>
      </trkpt>
      <trkpt lat="42.6248240" lon="-8.6438870">
        <ele>54.2</ele>
        <time>2021-05-23T06:07:37Z</time>
      </trkpt>
      <trkpt lat="42.6248410" lon="-8.6438920">
        <ele>54.3</ele>
        <time>2021-05-23T06:07:38Z</time>
      </trkpt>
      <trkpt lat="42.6248570" lon="-8.6439010">
        <ele>54.3</ele>
        <time>2021-05-23T06:07:39Z</time>
      </trkpt>
      <trkpt lat="42.6248710" lon="-8.6439090">
        <ele>54.3</ele>
        <time>2021-05-23T06:07:40Z</time>
      </trkpt>
      <trkpt lat="42.6248860" lon="-8.6439190">
        <ele>54.4</ele>
        <time>2021-05-23T06:07:41Z</time>
      </trkpt>
      <trkpt lat="42.6249020" lon="-8.6439220">
        <ele>54.4</ele>
        <time>2021-05-23T06:07:42Z</time>
      </trkpt>
      <trkpt lat="42.6249160" lon="-8.6439260">
        <ele>54.4</ele>
        <time>2021-05-23T06:07:43Z</time>
      </trkpt>
      <trkpt lat="42.6249310" lon="-8.6439250">
        <ele>54.4</ele>
        <time>2021-05-23T06:07:44Z</time>
      </trkpt>
      <trkpt lat="42.6249460" lon="-8.6439260">
        <ele>54.5</ele>
        <time>2021-05-23T06:07:45Z</time>
      </trkpt>
      <trkpt lat="42.6249560" lon="-8.6439290">
        <ele>54.5</ele>
        <time>2021-05-23T06:07:46Z</time>
      </trkpt>
      <trkpt lat="42.6249780" lon="-8.6439300">
        <ele>54.5</ele>
        <time>2021-05-23T06:07:47Z</time>
      </trkpt>
      <trkpt lat="42.6249920" lon="-8.6439290">
        <ele>54.6</ele>
        <time>2021-05-23T06:07:48Z</time>
      </trkpt>
      <trkpt lat="42.6250110" lon="-8.6439400">
        <ele>54.6</ele>
        <time>2021-05-23T06:07:49Z</time>
      </trkpt>
      <trkpt lat="42.6250270" lon="-8.6439450">
        <ele>54.6</ele>
        <time>2021-05-23T06:07:50Z</time>
      </trkpt>
      <trkpt lat="42.6250450" lon="-8.6439470">
        <ele>54.7</ele>
        <time>2021-05-23T06:07:51Z</time>
      </trkpt>
      <trkpt lat="42.6250600" lon="-8.6439480">
        <ele>54.7</ele>
        <time>2021-05-23T06:07:52Z</time>
      </trkpt>
      <trkpt lat="42.6250750" lon="-8.6439480">
        <ele>54.7</ele>
        <time>2021-05-23T06:07:53Z</time>
      </trkpt>
      <trkpt lat="42.6250920" lon="-8.6439500">
        <ele>54.8</ele>
        <time>2021-05-23T06:07:54Z</time>
      </trkpt>
      <trkpt lat="42.6251070" lon="-8.6439490">
        <ele>54.8</ele>
        <time>2021-05-23T06:07:55Z</time>
      </trkpt>
      <trkpt lat="42.6251210" lon="-8.6439500">
        <ele>54.8</ele>
        <time>2021-05-23T06:07:56Z</time>
      </trkpt>
      <trkpt lat="42.6251370" lon="-8.6439600">
        <ele>54.8</ele>
        <time>2021-05-23T06:07:57Z</time>
      </trkpt>
      <trkpt lat="42.6251490" lon="-8.6439580">
        <ele>54.9</ele>
        <time>2021-05-23T06:07:58Z</time>
      </trkpt>
      <trkpt lat="42.6251570" lon="-8.6439530">
        <ele>54.9</ele>
        <time>2021-05-23T06:07:59Z</time>
      </trkpt>
      <trkpt lat="42.6251690" lon="-8.6439520">
        <ele>54.9</ele>
        <time>2021-05-23T06:08:00Z</time>
      </trkpt>
      <trkpt lat="42.6251800" lon="-8.6439460">
        <ele>54.9</ele>
        <time>2021-05-23T06:08:01Z</time>
      </trkpt>
      <trkpt lat="42.6251910" lon="-8.6439420">
        <ele>54.9</ele>
        <time>2021-05-23T06:08:02Z</time>
      </trkpt>
      <trkpt lat="42.6252040" lon="-8.6439500">
        <ele>55.0</ele>
        <time>2021-05-23T06:08:03Z</time>
      </trkpt>
      <trkpt lat="42.6252170" lon="-8.6439400">
        <ele>55.0</ele>
        <time>2021-05-23T06:08:04Z</time>
      </trkpt>
      <trkpt lat="42.6252260" lon="-8.6439390">
        <ele>55.0</ele>
        <time>2021-05-23T06:08:05Z</time>
      </trkpt>
      <trkpt lat="42.6252340" lon="-8.6439370">
        <ele>55.0</ele>
        <time>2021-05-23T06:08:06Z</time>
      </trkpt>
      <trkpt lat="42.6252420" lon="-8.6439350">
        <ele>55.0</ele>
        <time>2021-05-23T06:08:07Z</time>
      </trkpt>
      <trkpt lat="42.6252490" lon="-8.6439290">
        <ele>55.0</ele>
        <time>2021-05-23T06:08:08Z</time>
      </trkpt>
      <trkpt lat="42.6252620" lon="-8.6439290">
        <ele>55.0</ele>
        <time>2021-05-23T06:08:09Z</time>
      </trkpt>
      <trkpt lat="42.6252730" lon="-8.6439270">
        <ele>55.1</ele>
        <time>2021-05-23T06:08:10Z</time>
      </trkpt>
      <trkpt lat="42.6252910" lon="-8.6439200">
        <ele>55.1</ele>
        <time>2021-05-23T06:08:11Z</time>
      </trkpt>
      <trkpt lat="42.6253020" lon="-8.6439180">
        <ele>55.1</ele>
        <time>2021-05-23T06:08:12Z</time>
      </trkpt>
      <trkpt lat="42.6253120" lon="-8.6439150">
        <ele>55.1</ele>
        <time>2021-05-23T06:08:13Z</time>
      </trkpt>
      <trkpt lat="42.6253240" lon="-8.6439160">
        <ele>55.2</ele>
        <time>2021-05-23T06:08:14Z</time>
      </trkpt>
      <trkpt lat="42.6253430" lon="-8.6439200">
        <ele>55.2</ele>
        <time>2021-05-23T06:08:15Z</time>
      </trkpt>
      <trkpt lat="42.6253570" lon="-8.6439200">
        <ele>55.2</ele>
        <time>2021-05-23T06:08:16Z</time>
      </trkpt>
      <trkpt lat="42.6253570" lon="-8.6439140">
        <ele>55.2</ele>
        <time>2021-05-23T06:08:17Z</time>
      </trkpt>
      <trkpt lat="42.6253740" lon="-8.6439150">
        <ele>55.3</ele>
        <time>2021-05-23T06:08:18Z</time>
      </trkpt>
      <trkpt lat="42.6253940" lon="-8.6439080">
        <ele>55.3</ele>
        <time>2021-05-23T06:08:19Z</time>
      </trkpt>
      <trkpt lat="42.6254050" lon="-8.6439060">
        <ele>55.3</ele>
        <time>2021-05-23T06:08:20Z</time>
      </trkpt>
      <trkpt lat="42.6254160" lon="-8.6439050">
        <ele>55.4</ele>
        <time>2021-05-23T06:08:21Z</time>
      </trkpt>
      <trkpt lat="42.6254250" lon="-8.6438980">
        <ele>55.4</ele>
        <time>2021-05-23T06:08:22Z</time>
      </trkpt>
      <trkpt lat="42.6254420" lon="-8.6438950">
        <ele>55.4</ele>
        <time>2021-05-23T06:08:23Z</time>
      </trkpt>
      <trkpt lat="42.6254540" lon="-8.6438910">
        <ele>55.5</ele>
        <time>2021-05-23T06:08:24Z</time>
      </trkpt>
      <trkpt lat="42.6254690" lon="-8.6438940">
        <ele>55.5</ele>
        <time>2021-05-23T06:08:25Z</time>
      </trkpt>
      <trkpt lat="42.6254840" lon="-8.6438900">
        <ele>55.6</ele>
        <time>2021-05-23T06:08:26Z</time>
      </trkpt>
      <trkpt lat="42.6255030" lon="-8.6438980">
        <ele>55.7</ele>
        <time>2021-05-23T06:08:27Z</time>
      </trkpt>
      <trkpt lat="42.6255200" lon="-8.6438970">
        <ele>55.7</ele>
        <time>2021-05-23T06:08:28Z</time>
      </trkpt>
      <trkpt lat="42.6255320" lon="-8.6439000">
        <ele>55.8</ele>
        <time>2021-05-23T06:08:29Z</time>
      </trkpt>
      <trkpt lat="42.6255440" lon="-8.6438960">
        <ele>55.8</ele>
        <time>2021-05-23T06:08:30Z</time>
      </trkpt>
      <trkpt lat="42.6255530" lon="-8.6438980">
        <ele>55.9</ele>
        <time>2021-05-23T06:08:31Z</time>
      </trkpt>
      <trkpt lat="42.6255610" lon="-8.6439000">
        <ele>55.9</ele>
        <time>2021-05-23T06:08:32Z</time>
      </trkpt>
      <trkpt lat="42.6255710" lon="-8.6438980">
        <ele>56.0</ele>
        <time>2021-05-23T06:08:33Z</time>
      </trkpt>
      <trkpt lat="42.6255940" lon="-8.6439110">
        <ele>56.1</ele>
        <time>2021-05-23T06:08:34Z</time>
      </trkpt>
      <trkpt lat="42.6256070" lon="-8.6439240">
        <ele>56.2</ele>
        <time>2021-05-23T06:08:35Z</time>
      </trkpt>
      <trkpt lat="42.6256220" lon="-8.6439330">
        <ele>56.2</ele>
        <time>2021-05-23T06:08:36Z</time>
      </trkpt>
      <trkpt lat="42.6256360" lon="-8.6439290">
        <ele>56.3</ele>
        <time>2021-05-23T06:08:37Z</time>
      </trkpt>
      <trkpt lat="42.6256480" lon="-8.6439440">
        <ele>56.4</ele>
        <time>2021-05-23T06:08:38Z</time>
      </trkpt>
      <trkpt lat="42.6256680" lon="-8.6439490">
        <ele>56.5</ele>
        <time>2021-05-23T06:08:39Z</time>
      </trkpt>
      <trkpt lat="42.6256770" lon="-8.6439490">
        <ele>56.6</ele>
        <time>2021-05-23T06:08:40Z</time>
      </trkpt>
      <trkpt lat="42.6256870" lon="-8.6439500">
        <ele>56.6</ele>
        <time>2021-05-23T06:08:41Z</time>
      </trkpt>
      <trkpt lat="42.6257030" lon="-8.6439660">
        <ele>56.7</ele>
        <time>2021-05-23T06:08:42Z</time>
      </trkpt>
      <trkpt lat="42.6257170" lon="-8.6439750">
        <ele>56.8</ele>
        <time>2021-05-23T06:08:43Z</time>
      </trkpt>
      <trkpt lat="42.6257290" lon="-8.6439860">
        <ele>56.9</ele>
        <time>2021-05-23T06:08:44Z</time>
      </trkpt>
      <trkpt lat="42.6257400" lon="-8.6439970">
        <ele>57.0</ele>
        <time>2021-05-23T06:08:45Z</time>
      </trkpt>
      <trkpt lat="42.6257530" lon="-8.6440130">
        <ele>57.1</ele>
        <time>2021-05-23T06:08:46Z</time>
      </trkpt>
      <trkpt lat="42.6257700" lon="-8.6440200">
        <ele>57.2</ele>
        <time>2021-05-23T06:08:47Z</time>
      </trkpt>
      <trkpt lat="42.6257840" lon="-8.6440320">
        <ele>57.3</ele>
        <time>2021-05-23T06:08:48Z</time>
      </trkpt>
      <trkpt lat="42.6257930" lon="-8.6440390">
        <ele>57.4</ele>
        <time>2021-05-23T06:08:49Z</time>
      </trkpt>
      <trkpt lat="42.6258020" lon="-8.6440450">
        <ele>57.5</ele>
        <time>2021-05-23T06:08:50Z</time>
      </trkpt>
      <trkpt lat="42.6258110" lon="-8.6440520">
        <ele>57.5</ele>
        <time>2021-05-23T06:08:51Z</time>
      </trkpt>
      <trkpt lat="42.6258200" lon="-8.6440690">
        <ele>57.7</ele>
        <time>2021-05-23T06:08:52Z</time>
      </trkpt>
      <trkpt lat="42.6258320" lon="-8.6440840">
        <ele>57.8</ele>
        <time>2021-05-23T06:08:53Z</time>
      </trkpt>
      <trkpt lat="42.6258410" lon="-8.6440960">
        <ele>57.9</ele>
        <time>2021-05-23T06:08:54Z</time>
      </trkpt>
      <trkpt lat="42.6258570" lon="-8.6441050">
        <ele>58.1</ele>
        <time>2021-05-23T06:08:55Z</time>
      </trkpt>
      <trkpt lat="42.6258700" lon="-8.6441140">
        <ele>58.2</ele>
        <time>2021-05-23T06:08:56Z</time>
      </trkpt>
      <trkpt lat="42.6258820" lon="-8.6441240">
        <ele>58.3</ele>
        <time>2021-05-23T06:08:57Z</time>
      </trkpt>
      <trkpt lat="42.6258930" lon="-8.6441370">
        <ele>58.5</ele>
        <time>2021-05-23T06:08:58Z</time>
      </trkpt>
      <trkpt lat="42.6259000" lon="-8.6441570">
        <ele>58.6</ele>
        <time>2021-05-23T06:08:59Z</time>
      </trkpt>
      <trkpt lat="42.6259060" lon="-8.6441610">
        <ele>58.7</ele>
        <time>2021-05-23T06:09:00Z</time>
      </trkpt>
      <trkpt lat="42.6259140" lon="-8.6441620">
        <ele>58.8</ele>
        <time>2021-05-23T06:09:01Z</time>
      </trkpt>
      <trkpt lat="42.6259220" lon="-8.6441650">
        <ele>58.8</ele>
        <time>2021-05-23T06:09:02Z</time>
      </trkpt>
      <trkpt lat="42.6259260" lon="-8.6441800">
        <ele>59.0</ele>
        <time>2021-05-23T06:09:03Z</time>
      </trkpt>
      <trkpt lat="42.6259420" lon="-8.6442000">
        <ele>59.2</ele>
        <time>2021-05-23T06:09:04Z</time>
      </trkpt>
      <trkpt lat="42.6259500" lon="-8.6442090">
        <ele>59.3</ele>
        <time>2021-05-23T06:09:05Z</time>
      </trkpt>
      <trkpt lat="42.6259570" lon="-8.6442170">
        <ele>59.4</ele>
        <time>2021-05-23T06:09:06Z</time>
      </trkpt>
      <trkpt lat="42.6259660" lon="-8.6442420">
        <ele>59.6</ele>
        <time>2021-05-23T06:09:07Z</time>
      </trkpt>
      <trkpt lat="42.6259720" lon="-8.6442540">
        <ele>59.6</ele>
        <time>2021-05-23T06:09:08Z</time>
      </trkpt>
      <trkpt lat="42.6259780" lon="-8.6442670">
        <ele>59.6</ele>
        <time>2021-05-23T06:09:09Z</time>
      </trkpt>
      <trkpt lat="42.6259870" lon="-8.6442770">
        <ele>59.6</ele>
        <time>2021-05-23T06:09:10Z</time>
      </trkpt>
      <trkpt lat="42.6260040" lon="-8.6442820">
        <ele>59.7</ele>
        <time>2021-05-23T06:09:11Z</time>
      </trkpt>
      <trkpt lat="42.6260190" lon="-8.6442910">
        <ele>59.7</ele>
        <time>2021-05-23T06:09:12Z</time>
      </trkpt>
      <trkpt lat="42.6260310" lon="-8.6443070">
        <ele>59.7</ele>
        <time>2021-05-23T06:09:13Z</time>
      </trkpt>
      <trkpt lat="42.6260490" lon="-8.6443270">
        <ele>59.7</ele>
        <time>2021-05-23T06:09:14Z</time>
      </trkpt>
      <trkpt lat="42.6260560" lon="-8.6443340">
        <ele>59.7</ele>
        <time>2021-05-23T06:09:15Z</time>
      </trkpt>
      <trkpt lat="42.6260630" lon="-8.6443410">
        <ele>59.7</ele>
        <time>2021-05-23T06:09:16Z</time>
      </trkpt>
      <trkpt lat="42.6260660" lon="-8.6443500">
        <ele>59.7</ele>
        <time>2021-05-23T06:09:17Z</time>
      </trkpt>
      <trkpt lat="42.6260710" lon="-8.6443640">
        <ele>59.7</ele>
        <time>2021-05-23T06:09:18Z</time>
      </trkpt>
      <trkpt lat="42.6260770" lon="-8.6443760">
        <ele>59.6</ele>
        <time>2021-05-23T06:09:19Z</time>
      </trkpt>
      <trkpt lat="42.6260820" lon="-8.6443850">
        <ele>59.6</ele>
        <time>2021-05-23T06:09:20Z</time>
      </trkpt>
      <trkpt lat="42.6260900" lon="-8.6444040">
        <ele>59.6</ele>
        <time>2021-05-23T06:09:21Z</time>
      </trkpt>
      <trkpt lat="42.6260930" lon="-8.6444120">
        <ele>59.6</ele>
        <time>2021-05-23T06:09:22Z</time>
      </trkpt>
      <trkpt lat="42.6261030" lon="-8.6444160">
        <ele>59.6</ele>
        <time>2021-05-23T06:09:23Z</time>
      </trkpt>
      <trkpt lat="42.6261100" lon="-8.6444180">
        <ele>59.6</ele>
        <time>2021-05-23T06:09:24Z</time>
      </trkpt>
      <trkpt lat="42.6261210" lon="-8.6444340">
        <ele>59.6</ele>
        <time>2021-05-23T06:09:25Z</time>
      </trkpt>
      <trkpt lat="42.6261380" lon="-8.6444600">
        <ele>59.5</ele>
        <time>2021-05-23T06:09:26Z</time>
      </trkpt>
      <trkpt lat="42.6261460" lon="-8.6444700">
        <ele>59.5</ele>
        <time>2021-05-23T06:09:27Z</time>
      </trkpt>
      <trkpt lat="42.6261540" lon="-8.6444780">
        <ele>59.5</ele>
        <time>2021-05-23T06:09:28Z</time>
      </trkpt>
      <trkpt lat="42.6261610" lon="-8.6444970">
        <ele>59.4</ele>
        <time>2021-05-23T06:09:29Z</time>
      </trkpt>
      <trkpt lat="42.6261700" lon="-8.6445020">
        <ele>59.4</ele>
        <time>2021-05-23T06:09:30Z</time>
      </trkpt>
      <trkpt lat="42.6261790" lon="-8.6445150">
        <ele>59.4</ele>
        <time>2021-05-23T06:09:31Z</time>
      </trkpt>
      <trkpt lat="42.6261920" lon="-8.6445260">
        <ele>59.4</ele>
        <time>2021-05-23T06:09:32Z</time>
      </trkpt>
      <trkpt lat="42.6262160" lon="-8.6445470">
        <ele>59.3</ele>
        <time>2021-05-23T06:09:33Z</time>
      </trkpt>
      <trkpt lat="42.6262240" lon="-8.6445460">
        <ele>59.3</ele>
        <time>2021-05-23T06:09:34Z</time>
      </trkpt>
      <trkpt lat="42.6262420" lon="-8.6445660">
        <ele>59.3</ele>
        <time>2021-05-23T06:09:35Z</time>
      </trkpt>
      <trkpt lat="42.6262520" lon="-8.6445770">
        <ele>59.3</ele>
        <time>2021-05-23T06:09:36Z</time>
      </trkpt>
      <trkpt lat="42.6262670" lon="-8.6445930">
        <ele>59.2</ele>
        <time>2021-05-23T06:09:37Z</time>
      </trkpt>
      <trkpt lat="42.6262710" lon="-8.6445980">
        <ele>59.2</ele>
        <time>2021-05-23T06:09:38Z</time>
      </trkpt>
      <trkpt lat="42.6262890" lon="-8.6446140">
        <ele>59.2</ele>
        <time>2021-05-23T06:09:39Z</time>
      </trkpt>
      <trkpt lat="42.6262940" lon="-8.6446200">
        <ele>59.2</ele>
        <time>2021-05-23T06:09:40Z</time>
      </trkpt>
      <trkpt lat="42.6263110" lon="-8.6446360">
        <ele>59.2</ele>
        <time>2021-05-23T06:09:41Z</time>
      </trkpt>
      <trkpt lat="42.6263190" lon="-8.6446450">
        <ele>59.2</ele>
        <time>2021-05-23T06:09:42Z</time>
      </trkpt>
      <trkpt lat="42.6263270" lon="-8.6446540">
        <ele>59.2</ele>
        <time>2021-05-23T06:09:43Z</time>
      </trkpt>
      <trkpt lat="42.6263470" lon="-8.6446720">
        <ele>59.1</ele>
        <time>2021-05-23T06:09:44Z</time>
      </trkpt>
      <trkpt lat="42.6263550" lon="-8.6446760">
        <ele>59.1</ele>
        <time>2021-05-23T06:09:45Z</time>
      </trkpt>
      <trkpt lat="42.6263620" lon="-8.6446810">
        <ele>59.1</ele>
        <time>2021-05-23T06:09:46Z</time>
      </trkpt>
      <trkpt lat="42.6263800" lon="-8.6446890">
        <ele>59.1</ele>
        <time>2021-05-23T06:09:47Z</time>
      </trkpt>
      <trkpt lat="42.6263920" lon="-8.6447020">
        <ele>59.1</ele>
        <time>2021-05-23T06:09:48Z</time>
      </trkpt>
      <trkpt lat="42.6264020" lon="-8.6447180">
        <ele>59.2</ele>
        <time>2021-05-23T06:09:49Z</time>
      </trkpt>
      <trkpt lat="42.6264080" lon="-8.6447260">
        <ele>59.2</ele>
        <time>2021-05-23T06:09:50Z</time>
      </trkpt>
      <trkpt lat="42.6264130" lon="-8.6447350">
        <ele>59.2</ele>
        <time>2021-05-23T06:09:51Z</time>
      </trkpt>
      <trkpt lat="42.6264180" lon="-8.6447440">
        <ele>59.2</ele>
        <time>2021-05-23T06:09:52Z</time>
      </trkpt>
      <trkpt lat="42.6264410" lon="-8.6447460">
        <ele>59.2</ele>
        <time>2021-05-23T06:09:53Z</time>
      </trkpt>
      <trkpt lat="42.6264510" lon="-8.6447440">
        <ele>59.2</ele>
        <time>2021-05-23T06:09:54Z</time>
      </trkpt>
      <trkpt lat="42.6264600" lon="-8.6447430">
        <ele>59.2</ele>
        <time>2021-05-23T06:09:55Z</time>
      </trkpt>
      <trkpt lat="42.6264770" lon="-8.6447510">
        <ele>59.2</ele>
        <time>2021-05-23T06:09:56Z</time>
      </trkpt>
      <trkpt lat="42.6264920" lon="-8.6447560">
        <ele>59.2</ele>
        <time>2021-05-23T06:09:57Z</time>
      </trkpt>
      <trkpt lat="42.6265050" lon="-8.6447660">
        <ele>59.2</ele>
        <time>2021-05-23T06:09:58Z</time>
      </trkpt>
      <trkpt lat="42.6265210" lon="-8.6447760">
        <ele>59.3</ele>
        <time>2021-05-23T06:09:59Z</time>
      </trkpt>
      <trkpt lat="42.6265400" lon="-8.6447830">
        <ele>59.3</ele>
        <time>2021-05-23T06:10:00Z</time>
      </trkpt>
      <trkpt lat="42.6265490" lon="-8.6447840">
        <ele>59.3</ele>
        <time>2021-05-23T06:10:01Z</time>
      </trkpt>
      <trkpt lat="42.6265580" lon="-8.6447860">
        <ele>59.3</ele>
        <time>2021-05-23T06:10:02Z</time>
      </trkpt>
      <trkpt lat="42.6265890" lon="-8.6448030">
        <ele>59.4</ele>
        <time>2021-05-23T06:10:03Z</time>
      </trkpt>
      <trkpt lat="42.6265980" lon="-8.6448020">
        <ele>59.4</ele>
        <time>2021-05-23T06:10:04Z</time>
      </trkpt>
      <trkpt lat="42.6266040" lon="-8.6447910">
        <ele>59.4</ele>
        <time>2021-05-23T06:10:05Z</time>
      </trkpt>
      <trkpt lat="42.6266080" lon="-8.6447980">
        <ele>59.4</ele>
        <time>2021-05-23T06:10:06Z</time>
      </trkpt>
      <trkpt lat="42.6266130" lon="-8.6447970">
        <ele>59.4</ele>
        <time>2021-05-23T06:10:07Z</time>
      </trkpt>
      <trkpt lat="42.6266270" lon="-8.6448000">
        <ele>59.5</ele>
        <time>2021-05-23T06:10:08Z</time>
      </trkpt>
      <trkpt lat="42.6266480" lon="-8.6448010">
        <ele>59.5</ele>
        <time>2021-05-23T06:10:09Z</time>
      </trkpt>
      <trkpt lat="42.6266530" lon="-8.6448010">
        <ele>59.5</ele>
        <time>2021-05-23T06:10:10Z</time>
      </trkpt>
      <trkpt lat="42.6266600" lon="-8.6447920">
        <ele>59.5</ele>
        <time>2021-05-23T06:10:11Z</time>
      </trkpt>
      <trkpt lat="42.6266830" lon="-8.6448110">
        <ele>59.6</ele>
        <time>2021-05-23T06:10:12Z</time>
      </trkpt>
      <trkpt lat="42.6266950" lon="-8.6448010">
        <ele>59.6</ele>
        <time>2021-05-23T06:10:13Z</time>
      </trkpt>
      <trkpt lat="42.6267040" lon="-8.6448010">
        <ele>59.6</ele>
        <time>2021-05-23T06:10:14Z</time>
      </trkpt>
      <trkpt lat="42.6267180" lon="-8.6448130">
        <ele>59.6</ele>
        <time>2021-05-23T06:10:15Z</time>
      </trkpt>
      <trkpt lat="42.6267350" lon="-8.6448170">
        <ele>59.7</ele>
        <time>2021-05-23T06:10:16Z</time>
      </trkpt>
      <trkpt lat="42.6267480" lon="-8.6448290">
        <ele>59.7</ele>
        <time>2021-05-23T06:10:17Z</time>
      </trkpt>
      <trkpt lat="42.6267780" lon="-8.6448420">
        <ele>59.7</ele>
        <time>2021-05-23T06:10:18Z</time>
      </trkpt>
      <trkpt lat="42.6267840" lon="-8.6448460">
        <ele>59.7</ele>
        <time>2021-05-23T06:10:19Z</time>
      </trkpt>
      <trkpt lat="42.6268000" lon="-8.6448420">
        <ele>59.8</ele>
        <time>2021-05-23T06:10:20Z</time>
      </trkpt>
      <trkpt lat="42.6268130" lon="-8.6448500">
        <ele>59.8</ele>
        <time>2021-05-23T06:10:21Z</time>
      </trkpt>
      <trkpt lat="42.6268450" lon="-8.6448680">
        <ele>59.8</ele>
        <time>2021-05-23T06:10:22Z</time>
      </trkpt>
      <trkpt lat="42.6268510" lon="-8.6448740">
        <ele>59.8</ele>
        <time>2021-05-23T06:10:23Z</time>
      </trkpt>
      <trkpt lat="42.6268630" lon="-8.6448700">
        <ele>59.9</ele>
        <time>2021-05-23T06:10:24Z</time>
      </trkpt>
      <trkpt lat="42.6268810" lon="-8.6448780">
        <ele>59.9</ele>
        <time>2021-05-23T06:10:25Z</time>
      </trkpt>
      <trkpt lat="42.6269000" lon="-8.6448910">
        <ele>59.9</ele>
        <time>2021-05-23T06:10:26Z</time>
      </trkpt>
      <trkpt lat="42.6269120" lon="-8.6448970">
        <ele>59.9</ele>
        <time>2021-05-23T06:10:27Z</time>
      </trkpt>
      <trkpt lat="42.6269450" lon="-8.6448960">
        <ele>60.0</ele>
        <time>2021-05-23T06:10:28Z</time>
      </trkpt>
      <trkpt lat="42.6269570" lon="-8.6448980">
        <ele>60.0</ele>
        <time>2021-05-23T06:10:29Z</time>
      </trkpt>
      <trkpt lat="42.6269750" lon="-8.6449070">
        <ele>60.0</ele>
        <time>2021-05-23T06:10:30Z</time>
      </trkpt>
      <trkpt lat="42.6269800" lon="-8.6449100">
        <ele>60.0</ele>
        <time>2021-05-23T06:10:31Z</time>
      </trkpt>
      <trkpt lat="42.6269860" lon="-8.6449140">
        <ele>60.0</ele>
        <time>2021-05-23T06:10:32Z</time>
      </trkpt>
      <trkpt lat="42.6269910" lon="-8.6449180">
        <ele>60.0</ele>
        <time>2021-05-23T06:10:33Z</time>
      </trkpt>
      <trkpt lat="42.6270030" lon="-8.6449180">
        <ele>60.0</ele>
        <time>2021-05-23T06:10:34Z</time>
      </trkpt>
      <trkpt lat="42.6270170" lon="-8.6449280">
        <ele>60.1</ele>
        <time>2021-05-23T06:10:35Z</time>
      </trkpt>
      <trkpt lat="42.6270490" lon="-8.6449380">
        <ele>60.1</ele>
        <time>2021-05-23T06:10:36Z</time>
      </trkpt>
      <trkpt lat="42.6270580" lon="-8.6449370">
        <ele>60.1</ele>
        <time>2021-05-23T06:10:37Z</time>
      </trkpt>
      <trkpt lat="42.6270760" lon="-8.6449290">
        <ele>60.1</ele>
        <time>2021-05-23T06:10:38Z</time>
      </trkpt>
      <trkpt lat="42.6270860" lon="-8.6449300">
        <ele>60.1</ele>
        <time>2021-05-23T06:10:39Z</time>
      </trkpt>
      <trkpt lat="42.6270950" lon="-8.6449310">
        <ele>60.2</ele>
        <time>2021-05-23T06:10:40Z</time>
      </trkpt>
      <trkpt lat="42.6271280" lon="-8.6449390">
        <ele>60.2</ele>
        <time>2021-05-23T06:10:41Z</time>
      </trkpt>
      <trkpt lat="42.6271370" lon="-8.6449430">
        <ele>60.2</ele>
        <time>2021-05-23T06:10:42Z</time>
      </trkpt>
      <trkpt lat="42.6271550" lon="-8.6449490">
        <ele>60.2</ele>
        <time>2021-05-23T06:10:43Z</time>
      </trkpt>
      <trkpt lat="42.6271670" lon="-8.6449590">
        <ele>60.3</ele>
        <time>2021-05-23T06:10:44Z</time>
      </trkpt>
      <trkpt lat="42.6271840" lon="-8.6449580">
        <ele>60.3</ele>
        <time>2021-05-23T06:10:45Z</time>
      </trkpt>
      <trkpt lat="42.6272020" lon="-8.6449650">
        <ele>60.3</ele>
        <time>2021-05-23T06:10:46Z</time>
      </trkpt>
      <trkpt lat="42.6272120" lon="-8.6449650">
        <ele>60.3</ele>
        <time>2021-05-23T06:10:47Z</time>
      </trkpt>
      <trkpt lat="42.6272340" lon="-8.6449740">
        <ele>60.4</ele>
        <time>2021-05-23T06:10:48Z</time>
      </trkpt>
      <trkpt lat="42.6272480" lon="-8.6449800">
        <ele>60.4</ele>
        <time>2021-05-23T06:10:49Z</time>
      </trkpt>
      <trkpt lat="42.6272610" lon="-8.6449850">
        <ele>60.4</ele>
        <time>2021-05-23T06:10:50Z</time>
      </trkpt>
      <trkpt lat="42.6272780" lon="-8.6449730">
        <ele>60.5</ele>
        <time>2021-05-23T06:10:51Z</time>
      </trkpt>
      <trkpt lat="42.6272910" lon="-8.6449750">
        <ele>60.5</ele>
        <time>2021-05-23T06:10:52Z</time>
      </trkpt>
      <trkpt lat="42.6273040" lon="-8.6449770">
        <ele>60.5</ele>
        <time>2021-05-23T06:10:53Z</time>
      </trkpt>
      <trkpt lat="42.6273170" lon="-8.6449810">
        <ele>60.6</ele>
        <time>2021-05-23T06:10:54Z</time>
      </trkpt>
      <trkpt lat="42.6273310" lon="-8.6449890">
        <ele>60.6</ele>
        <time>2021-05-23T06:10:55Z</time>
      </trkpt>
      <trkpt lat="42.6273600" lon="-8.6449970">
        <ele>60.7</ele>
        <time>2021-05-23T06:10:56Z</time>
      </trkpt>
      <trkpt lat="42.6273710" lon="-8.6450010">
        <ele>60.7</ele>
        <time>2021-05-23T06:10:57Z</time>
      </trkpt>
      <trkpt lat="42.6274000" lon="-8.6450150">
        <ele>60.8</ele>
        <time>2021-05-23T06:10:58Z</time>
      </trkpt>
      <trkpt lat="42.6274080" lon="-8.6450200">
        <ele>60.8</ele>
        <time>2021-05-23T06:10:59Z</time>
      </trkpt>
      <trkpt lat="42.6274240" lon="-8.6450350">
        <ele>60.9</ele>
        <time>2021-05-23T06:11:00Z</time>
      </trkpt>
      <trkpt lat="42.6274360" lon="-8.6450420">
        <ele>60.9</ele>
        <time>2021-05-23T06:11:01Z</time>
      </trkpt>
      <trkpt lat="42.6274510" lon="-8.6450470">
        <ele>60.9</ele>
        <time>2021-05-23T06:11:02Z</time>
      </trkpt>
      <trkpt lat="42.6274700" lon="-8.6450510">
        <ele>61.0</ele>
        <time>2021-05-23T06:11:03Z</time>
      </trkpt>
      <trkpt lat="42.6274850" lon="-8.6450450">
        <ele>61.0</ele>
        <time>2021-05-23T06:11:04Z</time>
      </trkpt>
      <trkpt lat="42.6274990" lon="-8.6450610">
        <ele>61.1</ele>
        <time>2021-05-23T06:11:05Z</time>
      </trkpt>
      <trkpt lat="42.6275120" lon="-8.6450620">
        <ele>61.1</ele>
        <time>2021-05-23T06:11:06Z</time>
      </trkpt>
      <trkpt lat="42.6275270" lon="-8.6450720">
        <ele>61.1</ele>
        <time>2021-05-23T06:11:07Z</time>
      </trkpt>
      <trkpt lat="42.6275420" lon="-8.6450790">
        <ele>61.2</ele>
        <time>2021-05-23T06:11:08Z</time>
      </trkpt>
      <trkpt lat="42.6275540" lon="-8.6450890">
        <ele>61.2</ele>
        <time>2021-05-23T06:11:09Z</time>
      </trkpt>
      <trkpt lat="42.6275680" lon="-8.6450910">
        <ele>61.2</ele>
        <time>2021-05-23T06:11:10Z</time>
      </trkpt>
      <trkpt lat="42.6275800" lon="-8.6450980">
        <ele>61.3</ele>
        <time>2021-05-23T06:11:11Z</time>
      </trkpt>
      <trkpt lat="42.6275840" lon="-8.6450960">
        <ele>61.3</ele>
        <time>2021-05-23T06:11:12Z</time>
      </trkpt>
      <trkpt lat="42.6275970" lon="-8.6450990">
        <ele>61.3</ele>
        <time>2021-05-23T06:11:13Z</time>
      </trkpt>
      <trkpt lat="42.6276050" lon="-8.6451010">
        <ele>61.3</ele>
        <time>2021-05-23T06:11:14Z</time>
      </trkpt>
      <trkpt lat="42.6276150" lon="-8.6450920">
        <ele>61.3</ele>
        <time>2021-05-23T06:11:15Z</time>
      </trkpt>
      <trkpt lat="42.6276300" lon="-8.6451020">
        <ele>61.4</ele>
        <time>2021-05-23T06:11:16Z</time>
      </trkpt>
      <trkpt lat="42.6276430" lon="-8.6451110">
        <ele>61.4</ele>
        <time>2021-05-23T06:11:17Z</time>
      </trkpt>
      <trkpt lat="42.6276640" lon="-8.6451190">
        <ele>61.5</ele>
        <time>2021-05-23T06:11:18Z</time>
      </trkpt>
      <trkpt lat="42.6276750" lon="-8.6451260">
        <ele>61.5</ele>
        <time>2021-05-23T06:11:19Z</time>
      </trkpt>
      <trkpt lat="42.6276870" lon="-8.6451330">
        <ele>61.5</ele>
        <time>2021-05-23T06:11:20Z</time>
      </trkpt>
      <trkpt lat="42.6277010" lon="-8.6451360">
        <ele>61.5</ele>
        <time>2021-05-23T06:11:21Z</time>
      </trkpt>
      <trkpt lat="42.6277120" lon="-8.6451370">
        <ele>61.6</ele>
        <time>2021-05-23T06:11:22Z</time>
      </trkpt>
      <trkpt lat="42.6277140" lon="-8.6451390">
        <ele>61.6</ele>
        <time>2021-05-23T06:11:23Z</time>
      </trkpt>
      <trkpt lat="42.6277310" lon="-8.6451470">
        <ele>61.6</ele>
        <time>2021-05-23T06:11:24Z</time>
      </trkpt>
      <trkpt lat="42.6277320" lon="-8.6451400">
        <ele>61.6</ele>
        <time>2021-05-23T06:11:25Z</time>
      </trkpt>
      <trkpt lat="42.6277470" lon="-8.6451410">
        <ele>61.6</ele>
        <time>2021-05-23T06:11:26Z</time>
      </trkpt>
      <trkpt lat="42.6277620" lon="-8.6451410">
        <ele>61.7</ele>
        <time>2021-05-23T06:11:27Z</time>
      </trkpt>
      <trkpt lat="42.6277710" lon="-8.6451340">
        <ele>61.7</ele>
        <time>2021-05-23T06:11:28Z</time>
      </trkpt>
      <trkpt lat="42.6277790" lon="-8.6451370">
        <ele>61.7</ele>
        <time>2021-05-23T06:11:29Z</time>
      </trkpt>
      <trkpt lat="42.6277920" lon="-8.6451430">
        <ele>61.7</ele>
        <time>2021-05-23T06:11:30Z</time>
      </trkpt>
      <trkpt lat="42.6278030" lon="-8.6451330">
        <ele>61.7</ele>
        <time>2021-05-23T06:11:31Z</time>
      </trkpt>
      <trkpt lat="42.6278120" lon="-8.6451320">
        <ele>61.7</ele>
        <time>2021-05-23T06:11:32Z</time>
      </trkpt>
      <trkpt lat="42.6278210" lon="-8.6451300">
        <ele>61.8</ele>
        <time>2021-05-23T06:11:33Z</time>
      </trkpt>
      <trkpt lat="42.6278300" lon="-8.6451280">
        <ele>61.8</ele>
        <time>2021-05-23T06:11:34Z</time>
      </trkpt>
      <trkpt lat="42.6278420" lon="-8.6451320">
        <ele>61.8</ele>
        <time>2021-05-23T06:11:35Z</time>
      </trkpt>
      <trkpt lat="42.6278620" lon="-8.6451430">
        <ele>61.8</ele>
        <time>2021-05-23T06:11:36Z</time>
      </trkpt>
      <trkpt lat="42.6278710" lon="-8.6451470">
        <ele>61.9</ele>
        <time>2021-05-23T06:11:37Z</time>
      </trkpt>
      <trkpt lat="42.6278790" lon="-8.6451420">
        <ele>61.9</ele>
        <time>2021-05-23T06:11:38Z</time>
      </trkpt>
      <trkpt lat="42.6278890" lon="-8.6451320">
        <ele>61.9</ele>
        <time>2021-05-23T06:11:39Z</time>
      </trkpt>
      <trkpt lat="42.6279040" lon="-8.6451330">
        <ele>61.9</ele>
        <time>2021-05-23T06:11:40Z</time>
      </trkpt>
      <trkpt lat="42.6279120" lon="-8.6451320">
        <ele>62.0</ele>
        <time>2021-05-23T06:11:41Z</time>
      </trkpt>
      <trkpt lat="42.6279200" lon="-8.6451300">
        <ele>62.0</ele>
        <time>2021-05-23T06:11:42Z</time>
      </trkpt>
      <trkpt lat="42.6279280" lon="-8.6451290">
        <ele>62.0</ele>
        <time>2021-05-23T06:11:43Z</time>
      </trkpt>
      <trkpt lat="42.6279360" lon="-8.6451280">
        <ele>62.0</ele>
        <time>2021-05-23T06:11:44Z</time>
      </trkpt>
      <trkpt lat="42.6279480" lon="-8.6451310">
        <ele>62.0</ele>
        <time>2021-05-23T06:11:45Z</time>
      </trkpt>
      <trkpt lat="42.6279580" lon="-8.6451250">
        <ele>62.0</ele>
        <time>2021-05-23T06:11:46Z</time>
      </trkpt>
      <trkpt lat="42.6279730" lon="-8.6451200">
        <ele>62.1</ele>
        <time>2021-05-23T06:11:47Z</time>
      </trkpt>
      <trkpt lat="42.6279920" lon="-8.6451140">
        <ele>62.1</ele>
        <time>2021-05-23T06:11:48Z</time>
      </trkpt>
      <trkpt lat="42.6280040" lon="-8.6451150">
        <ele>62.1</ele>
        <time>2021-05-23T06:11:49Z</time>
      </trkpt>
      <trkpt lat="42.6280170" lon="-8.6451160">
        <ele>62.2</ele>
        <time>2021-05-23T06:11:50Z</time>
      </trkpt>
      <trkpt lat="42.6280290" lon="-8.6451170">
        <ele>62.2</ele>
        <time>2021-05-23T06:11:51Z</time>
      </trkpt>
      <trkpt lat="42.6280400" lon="-8.6451210">
        <ele>62.2</ele>
        <time>2021-05-23T06:11:52Z</time>
      </trkpt>
      <trkpt lat="42.6280540" lon="-8.6451220">
        <ele>62.2</ele>
        <time>2021-05-23T06:11:53Z</time>
      </trkpt>
      <trkpt lat="42.6280650" lon="-8.6451190">
        <ele>62.3</ele>
        <time>2021-05-23T06:11:54Z</time>
      </trkpt>
      <trkpt lat="42.6280760" lon="-8.6451200">
        <ele>62.3</ele>
        <time>2021-05-23T06:11:55Z</time>
      </trkpt>
      <trkpt lat="42.6280870" lon="-8.6451190">
        <ele>62.3</ele>
        <time>2021-05-23T06:11:56Z</time>
      </trkpt>
      <trkpt lat="42.6280990" lon="-8.6451280">
        <ele>62.3</ele>
        <time>2021-05-23T06:11:57Z</time>
      </trkpt>
      <trkpt lat="42.6281150" lon="-8.6451210">
        <ele>62.4</ele>
        <time>2021-05-23T06:11:58Z</time>
      </trkpt>
      <trkpt lat="42.6281240" lon="-8.6451200">
        <ele>62.4</ele>
        <time>2021-05-23T06:11:59Z</time>
      </trkpt>
      <trkpt lat="42.6281340" lon="-8.6451190">
        <ele>62.4</ele>
        <time>2021-05-23T06:12:00Z</time>
      </trkpt>
      <trkpt lat="42.6281430" lon="-8.6451120">
        <ele>62.4</ele>
        <time>2021-05-23T06:12:01Z</time>
      </trkpt>
      <trkpt lat="42.6281540" lon="-8.6451040">
        <ele>62.5</ele>
        <time>2021-05-23T06:12:02Z</time>
      </trkpt>
      <trkpt lat="42.6281630" lon="-8.6451000">
        <ele>62.5</ele>
        <time>2021-05-23T06:12:03Z</time>
      </trkpt>
      <trkpt lat="42.6281840" lon="-8.6451020">
        <ele>62.5</ele>
        <time>2021-05-23T06:12:04Z</time>
      </trkpt>
      <trkpt lat="42.6281930" lon="-8.6451060">
        <ele>62.6</ele>
        <time>2021-05-23T06:12:05Z</time>
      </trkpt>
      <trkpt lat="42.6282010" lon="-8.6451090">
        <ele>62.6</ele>
        <time>2021-05-23T06:12:06Z</time>
      </trkpt>
      <trkpt lat="42.6282090" lon="-8.6451060">
        <ele>62.6</ele>
        <time>2021-05-23T06:12:07Z</time>
      </trkpt>
      <trkpt lat="42.6282170" lon="-8.6451140">
        <ele>62.6</ele>
        <time>2021-05-23T06:12:08Z</time>
      </trkpt>
      <trkpt lat="42.6282230" lon="-8.6451050">
        <ele>62.7</ele>
        <time>2021-05-23T06:12:09Z</time>
      </trkpt>
      <trkpt lat="42.6282310" lon="-8.6450990">
        <ele>62.7</ele>
        <time>2021-05-23T06:12:10Z</time>
      </trkpt>
      <trkpt lat="42.6282370" lon="-8.6451020">
        <ele>62.7</ele>
        <time>2021-05-23T06:12:11Z</time>
      </trkpt>
      <trkpt lat="42.6282590" lon="-8.6451030">
        <ele>62.7</ele>
        <time>2021-05-23T06:12:12Z</time>
      </trkpt>
      <trkpt lat="42.6282680" lon="-8.6451000">
        <ele>62.8</ele>
        <time>2021-05-23T06:12:13Z</time>
      </trkpt>
      <trkpt lat="42.6282870" lon="-8.6451060">
        <ele>62.8</ele>
        <time>2021-05-23T06:12:14Z</time>
      </trkpt>
      <trkpt lat="42.6283130" lon="-8.6451080">
        <ele>62.9</ele>
        <time>2021-05-23T06:12:15Z</time>
      </trkpt>
      <trkpt lat="42.6283240" lon="-8.6451070">
        <ele>62.9</ele>
        <time>2021-05-23T06:12:16Z</time>
      </trkpt>
      <trkpt lat="42.6283430" lon="-8.6451090">
        <ele>62.9</ele>
        <time>2021-05-23T06:12:17Z</time>
      </trkpt>
      <trkpt lat="42.6283600" lon="-8.6451080">
        <ele>63.0</ele>
        <time>2021-05-23T06:12:18Z</time>
      </trkpt>
      <trkpt lat="42.6283820" lon="-8.6451150">
        <ele>63.0</ele>
        <time>2021-05-23T06:12:19Z</time>
      </trkpt>
      <trkpt lat="42.6283930" lon="-8.6451180">
        <ele>63.0</ele>
        <time>2021-05-23T06:12:20Z</time>
      </trkpt>
      <trkpt lat="42.6284030" lon="-8.6451220">
        <ele>63.1</ele>
        <time>2021-05-23T06:12:21Z</time>
      </trkpt>
      <trkpt lat="42.6284130" lon="-8.6451260">
        <ele>63.1</ele>
        <time>2021-05-23T06:12:22Z</time>
      </trkpt>
      <trkpt lat="42.6284260" lon="-8.6451390">
        <ele>63.1</ele>
        <time>2021-05-23T06:12:23Z</time>
      </trkpt>
      <trkpt lat="42.6284430" lon="-8.6451240">
        <ele>63.1</ele>
        <time>2021-05-23T06:12:24Z</time>
      </trkpt>
      <trkpt lat="42.6284520" lon="-8.6451090">
        <ele>63.2</ele>
        <time>2021-05-23T06:12:25Z</time>
      </trkpt>
      <trkpt lat="42.6284690" lon="-8.6451050">
        <ele>63.2</ele>
        <time>2021-05-23T06:12:26Z</time>
      </trkpt>
      <trkpt lat="42.6284780" lon="-8.6450950">
        <ele>63.2</ele>
        <time>2021-05-23T06:12:27Z</time>
      </trkpt>
      <trkpt lat="42.6284830" lon="-8.6450940">
        <ele>63.2</ele>
        <time>2021-05-23T06:12:28Z</time>
      </trkpt>
      <trkpt lat="42.6284930" lon="-8.6450960">
        <ele>63.2</ele>
        <time>2021-05-23T06:12:29Z</time>
      </trkpt>
      <trkpt lat="42.6284910" lon="-8.6450960">
        <ele>63.2</ele>
        <time>2021-05-23T06:12:30Z</time>
      </trkpt>
      <trkpt lat="42.6284970" lon="-8.6450880">
        <ele>63.3</ele>
        <time>2021-05-23T06:12:31Z</time>
      </trkpt>
      <trkpt lat="42.6285220" lon="-8.6450870">
        <ele>63.3</ele>
        <time>2021-05-23T06:12:32Z</time>
      </trkpt>
      <trkpt lat="42.6285360" lon="-8.6450880">
        <ele>63.3</ele>
        <time>2021-05-23T06:12:33Z</time>
      </trkpt>
      <trkpt lat="42.6285490" lon="-8.6450890">
        <ele>63.4</ele>
        <time>2021-05-23T06:12:34Z</time>
      </trkpt>
      <trkpt lat="42.6285610" lon="-8.6450760">
        <ele>63.4</ele>
        <time>2021-05-23T06:12:35Z</time>
      </trkpt>
      <trkpt lat="42.6285690" lon="-8.6450750">
        <ele>63.4</ele>
        <time>2021-05-23T06:12:36Z</time>
      </trkpt>
      <trkpt lat="42.6285780" lon="-8.6450740">
        <ele>63.4</ele>
        <time>2021-05-23T06:12:37Z</time>
      </trkpt>
      <trkpt lat="42.6285860" lon="-8.6450730">
        <ele>63.4</ele>
        <time>2021-05-23T06:12:38Z</time>
      </trkpt>
      <trkpt lat="42.6285940" lon="-8.6450730">
        <ele>63.5</ele>
        <time>2021-05-23T06:12:39Z</time>
      </trkpt>
      <trkpt lat="42.6286020" lon="-8.6450720">
        <ele>63.5</ele>
        <time>2021-05-23T06:12:40Z</time>
      </trkpt>
      <trkpt lat="42.6286110" lon="-8.6450710">
        <ele>63.5</ele>
        <time>2021-05-23T06:12:41Z</time>
      </trkpt>
      <trkpt lat="42.6286190" lon="-8.6450700">
        <ele>63.5</ele>
        <time>2021-05-23T06:12:42Z</time>
      </trkpt>
      <trkpt lat="42.6286270" lon="-8.6450690">
        <ele>63.5</ele>
        <time>2021-05-23T06:12:43Z</time>
      </trkpt>
      <trkpt lat="42.6286640" lon="-8.6450840">
        <ele>63.6</ele>
        <time>2021-05-23T06:12:44Z</time>
      </trkpt>
      <trkpt lat="42.6286750" lon="-8.6450890">
        <ele>63.6</ele>
        <time>2021-05-23T06:12:45Z</time>
      </trkpt>
      <trkpt lat="42.6286790" lon="-8.6450710">
        <ele>63.6</ele>
        <time>2021-05-23T06:12:46Z</time>
      </trkpt>
      <trkpt lat="42.6286950" lon="-8.6450630">
        <ele>63.7</ele>
        <time>2021-05-23T06:12:47Z</time>
      </trkpt>
      <trkpt lat="42.6287060" lon="-8.6450650">
        <ele>63.7</ele>
        <time>2021-05-23T06:12:48Z</time>
      </trkpt>
      <trkpt lat="42.6287210" lon="-8.6450680">
        <ele>63.7</ele>
        <time>2021-05-23T06:12:49Z</time>
      </trkpt>
      <trkpt lat="42.6287350" lon="-8.6450690">
        <ele>63.8</ele>
        <time>2021-05-23T06:12:50Z</time>
      </trkpt>
      <trkpt lat="42.6287510" lon="-8.6450760">
        <ele>63.8</ele>
        <time>2021-05-23T06:12:51Z</time>
      </trkpt>
      <trkpt lat="42.6287650" lon="-8.6450780">
        <ele>63.8</ele>
        <time>2021-05-23T06:12:52Z</time>
      </trkpt>
      <trkpt lat="42.6287750" lon="-8.6450760">
        <ele>63.8</ele>
        <time>2021-05-23T06:12:53Z</time>
      </trkpt>
      <trkpt lat="42.6287850" lon="-8.6450730">
        <ele>63.8</ele>
        <time>2021-05-23T06:12:54Z</time>
      </trkpt>
      <trkpt lat="42.6287950" lon="-8.6450700">
        <ele>63.9</ele>
        <time>2021-05-23T06:12:55Z</time>
      </trkpt>
      <trkpt lat="42.6288270" lon="-8.6450830">
        <ele>63.9</ele>
        <time>2021-05-23T06:12:56Z</time>
      </trkpt>
      <trkpt lat="42.6288370" lon="-8.6450910">
        <ele>64.0</ele>
        <time>2021-05-23T06:12:57Z</time>
      </trkpt>
      <trkpt lat="42.6288500" lon="-8.6450710">
        <ele>64.0</ele>
        <time>2021-05-23T06:12:58Z</time>
      </trkpt>
      <trkpt lat="42.6288540" lon="-8.6450720">
        <ele>64.0</ele>
        <time>2021-05-23T06:12:59Z</time>
      </trkpt>
      <trkpt lat="42.6288620" lon="-8.6450650">
        <ele>64.0</ele>
        <time>2021-05-23T06:13:00Z</time>
      </trkpt>
      <trkpt lat="42.6288660" lon="-8.6450560">
        <ele>64.0</ele>
        <time>2021-05-23T06:13:01Z</time>
      </trkpt>
      <trkpt lat="42.6288850" lon="-8.6450590">
        <ele>64.1</ele>
        <time>2021-05-23T06:13:02Z</time>
      </trkpt>
      <trkpt lat="42.6288890" lon="-8.6450470">
        <ele>64.1</ele>
        <time>2021-05-23T06:13:03Z</time>
      </trkpt>
      <trkpt lat="42.6288970" lon="-8.6450500">
        <ele>64.1</ele>
        <time>2021-05-23T06:13:04Z</time>
      </trkpt>
      <trkpt lat="42.6289090" lon="-8.6450420">
        <ele>64.2</ele>
        <time>2021-05-23T06:13:05Z</time>
      </trkpt>
      <trkpt lat="42.6289180" lon="-8.6450390">
        <ele>64.2</ele>
        <time>2021-05-23T06:13:06Z</time>
      </trkpt>
      <trkpt lat="42.6289250" lon="-8.6450440">
        <ele>64.2</ele>
        <time>2021-05-23T06:13:07Z</time>
      </trkpt>
      <trkpt lat="42.6289390" lon="-8.6450410">
        <ele>64.2</ele>
        <time>2021-05-23T06:13:08Z</time>
      </trkpt>
      <trkpt lat="42.6289490" lon="-8.6450270">
        <ele>64.3</ele>
        <time>2021-05-23T06:13:09Z</time>
      </trkpt>
      <trkpt lat="42.6289650" lon="-8.6450280">
        <ele>64.3</ele>
        <time>2021-05-23T06:13:10Z</time>
      </trkpt>
      <trkpt lat="42.6289830" lon="-8.6450260">
        <ele>64.4</ele>
        <time>2021-05-23T06:13:11Z</time>
      </trkpt>
      <trkpt lat="42.6289980" lon="-8.6450210">
        <ele>64.4</ele>
        <time>2021-05-23T06:13:12Z</time>
      </trkpt>
      <trkpt lat="42.6290070" lon="-8.6450220">
        <ele>64.4</ele>
        <time>2021-05-23T06:13:13Z</time>
      </trkpt>
      <trkpt lat="42.6290150" lon="-8.6450220">
        <ele>64.4</ele>
        <time>2021-05-23T06:13:14Z</time>
      </trkpt>
      <trkpt lat="42.6290230" lon="-8.6450230">
        <ele>64.4</ele>
        <time>2021-05-23T06:13:15Z</time>
      </trkpt>
      <trkpt lat="42.6290400" lon="-8.6450270">
        <ele>64.5</ele>
        <time>2021-05-23T06:13:16Z</time>
      </trkpt>
      <trkpt lat="42.6290540" lon="-8.6450270">
        <ele>64.5</ele>
        <time>2021-05-23T06:13:17Z</time>
      </trkpt>
      <trkpt lat="42.6290730" lon="-8.6450260">
        <ele>64.6</ele>
        <time>2021-05-23T06:13:18Z</time>
      </trkpt>
      <trkpt lat="42.6290840" lon="-8.6450260">
        <ele>64.6</ele>
        <time>2021-05-23T06:13:19Z</time>
      </trkpt>
      <trkpt lat="42.6291000" lon="-8.6450290">
        <ele>64.6</ele>
        <time>2021-05-23T06:13:20Z</time>
      </trkpt>
      <trkpt lat="42.6291120" lon="-8.6450280">
        <ele>64.6</ele>
        <time>2021-05-23T06:13:21Z</time>
      </trkpt>
      <trkpt lat="42.6291250" lon="-8.6450200">
        <ele>64.7</ele>
        <time>2021-05-23T06:13:22Z</time>
      </trkpt>
      <trkpt lat="42.6291330" lon="-8.6450170">
        <ele>64.7</ele>
        <time>2021-05-23T06:13:23Z</time>
      </trkpt>
      <trkpt lat="42.6291460" lon="-8.6450190">
        <ele>64.7</ele>
        <time>2021-05-23T06:13:24Z</time>
      </trkpt>
      <trkpt lat="42.6291620" lon="-8.6450200">
        <ele>64.7</ele>
        <time>2021-05-23T06:13:25Z</time>
      </trkpt>
      <trkpt lat="42.6291740" lon="-8.6450200">
        <ele>64.7</ele>
        <time>2021-05-23T06:13:26Z</time>
      </trkpt>
      <trkpt lat="42.6291920" lon="-8.6450340">
        <ele>64.8</ele>
        <time>2021-05-23T06:13:27Z</time>
      </trkpt>
      <trkpt lat="42.6292040" lon="-8.6450400">
        <ele>64.8</ele>
        <time>2021-05-23T06:13:28Z</time>
      </trkpt>
      <trkpt lat="42.6292150" lon="-8.6450510">
        <ele>64.8</ele>
        <time>2021-05-23T06:13:29Z</time>
      </trkpt>
      <trkpt lat="42.6292220" lon="-8.6450440">
        <ele>64.8</ele>
        <time>2021-05-23T06:13:30Z</time>
      </trkpt>
      <trkpt lat="42.6292350" lon="-8.6450470">
        <ele>64.8</ele>
        <time>2021-05-23T06:13:31Z</time>
      </trkpt>
      <trkpt lat="42.6292450" lon="-8.6450380">
        <ele>64.8</ele>
        <time>2021-05-23T06:13:32Z</time>
      </trkpt>
      <trkpt lat="42.6292650" lon="-8.6450340">
        <ele>64.8</ele>
        <time>2021-05-23T06:13:33Z</time>
      </trkpt>
      <trkpt lat="42.6292770" lon="-8.6450360">
        <ele>64.9</ele>
        <time>2021-05-23T06:13:34Z</time>
      </trkpt>
      <trkpt lat="42.6292980" lon="-8.6450300">
        <ele>64.9</ele>
        <time>2021-05-23T06:13:35Z</time>
      </trkpt>
      <trkpt lat="42.6293200" lon="-8.6450320">
        <ele>64.9</ele>
        <time>2021-05-23T06:13:36Z</time>
      </trkpt>
      <trkpt lat="42.6293330" lon="-8.6450320">
        <ele>64.9</ele>
        <time>2021-05-23T06:13:37Z</time>
      </trkpt>
      <trkpt lat="42.6293450" lon="-8.6450300">
        <ele>64.9</ele>
        <time>2021-05-23T06:13:38Z</time>
      </trkpt>
      <trkpt lat="42.6293470" lon="-8.6450280">
        <ele>64.9</ele>
        <time>2021-05-23T06:13:39Z</time>
      </trkpt>
      <trkpt lat="42.6293670" lon="-8.6450350">
        <ele>64.9</ele>
        <time>2021-05-23T06:13:40Z</time>
      </trkpt>
      <trkpt lat="42.6293860" lon="-8.6450380">
        <ele>64.9</ele>
        <time>2021-05-23T06:13:41Z</time>
      </trkpt>
      <trkpt lat="42.6293950" lon="-8.6450390">
        <ele>64.9</ele>
        <time>2021-05-23T06:13:42Z</time>
      </trkpt>
      <trkpt lat="42.6294030" lon="-8.6450410">
        <ele>64.9</ele>
        <time>2021-05-23T06:13:43Z</time>
      </trkpt>
      <trkpt lat="42.6294180" lon="-8.6450430">
        <ele>64.9</ele>
        <time>2021-05-23T06:13:44Z</time>
      </trkpt>
      <trkpt lat="42.6294290" lon="-8.6450440">
        <ele>64.9</ele>
        <time>2021-05-23T06:13:45Z</time>
      </trkpt>
      <trkpt lat="42.6294390" lon="-8.6450460">
        <ele>64.9</ele>
        <time>2021-05-23T06:13:46Z</time>
      </trkpt>
      <trkpt lat="42.6294500" lon="-8.6450480">
        <ele>65.0</ele>
        <time>2021-05-23T06:13:47Z</time>
      </trkpt>
      <trkpt lat="42.6294530" lon="-8.6450410">
        <ele>65.0</ele>
        <time>2021-05-23T06:13:48Z</time>
      </trkpt>
      <trkpt lat="42.6294620" lon="-8.6450480">
        <ele>65.0</ele>
        <time>2021-05-23T06:13:49Z</time>
      </trkpt>
      <trkpt lat="42.6294830" lon="-8.6450480">
        <ele>65.0</ele>
        <time>2021-05-23T06:13:50Z</time>
      </trkpt>
      <trkpt lat="42.6294960" lon="-8.6450480">
        <ele>65.0</ele>
        <time>2021-05-23T06:13:51Z</time>
      </trkpt>
      <trkpt lat="42.6295140" lon="-8.6450550">
        <ele>65.0</ele>
        <time>2021-05-23T06:13:52Z</time>
      </trkpt>
      <trkpt lat="42.6295200" lon="-8.6450620">
        <ele>65.0</ele>
        <time>2021-05-23T06:13:53Z</time>
      </trkpt>
      <trkpt lat="42.6295310" lon="-8.6450620">
        <ele>65.0</ele>
        <time>2021-05-23T06:13:54Z</time>
      </trkpt>
      <trkpt lat="42.6295440" lon="-8.6450600">
        <ele>65.0</ele>
        <time>2021-05-23T06:13:55Z</time>
      </trkpt>
      <trkpt lat="42.6295540" lon="-8.6450660">
        <ele>65.0</ele>
        <time>2021-05-23T06:13:56Z</time>
      </trkpt>
      <trkpt lat="42.6295670" lon="-8.6450620">
        <ele>65.0</ele>
        <time>2021-05-23T06:13:57Z</time>
      </trkpt>
      <trkpt lat="42.6295800" lon="-8.6450600">
        <ele>65.0</ele>
        <time>2021-05-23T06:13:58Z</time>
      </trkpt>
      <trkpt lat="42.6295960" lon="-8.6450570">
        <ele>65.0</ele>
        <time>2021-05-23T06:13:59Z</time>
      </trkpt>
      <trkpt lat="42.6296070" lon="-8.6450490">
        <ele>65.0</ele>
        <time>2021-05-23T06:14:00Z</time>
      </trkpt>
      <trkpt lat="42.6296240" lon="-8.6450400">
        <ele>65.0</ele>
        <time>2021-05-23T06:14:01Z</time>
      </trkpt>
      <trkpt lat="42.6296330" lon="-8.6450370">
        <ele>65.0</ele>
        <time>2021-05-23T06:14:02Z</time>
      </trkpt>
      <trkpt lat="42.6296410" lon="-8.6450350">
        <ele>65.0</ele>
        <time>2021-05-23T06:14:03Z</time>
      </trkpt>
      <trkpt lat="42.6296490" lon="-8.6450320">
        <ele>65.0</ele>
        <time>2021-05-23T06:14:04Z</time>
      </trkpt>
      <trkpt lat="42.6296670" lon="-8.6450190">
        <ele>65.0</ele>
        <time>2021-05-23T06:14:05Z</time>
      </trkpt>
      <trkpt lat="42.6296770" lon="-8.6450180">
        <ele>65.0</ele>
        <time>2021-05-23T06:14:06Z</time>
      </trkpt>
      <trkpt lat="42.6296890" lon="-8.6450090">
        <ele>65.0</ele>
        <time>2021-05-23T06:14:07Z</time>
      </trkpt>
      <trkpt lat="42.6297070" lon="-8.6450100">
        <ele>65.0</ele>
        <time>2021-05-23T06:14:08Z</time>
      </trkpt>
      <trkpt lat="42.6297240" lon="-8.6450130">
        <ele>64.9</ele>
        <time>2021-05-23T06:14:09Z</time>
      </trkpt>
      <trkpt lat="42.6297310" lon="-8.6450070">
        <ele>64.9</ele>
        <time>2021-05-23T06:14:10Z</time>
      </trkpt>
      <trkpt lat="42.6297340" lon="-8.6450000">
        <ele>64.9</ele>
        <time>2021-05-23T06:14:11Z</time>
      </trkpt>
      <trkpt lat="42.6297480" lon="-8.6449920">
        <ele>64.9</ele>
        <time>2021-05-23T06:14:12Z</time>
      </trkpt>
      <trkpt lat="42.6297610" lon="-8.6449880">
        <ele>64.9</ele>
        <time>2021-05-23T06:14:13Z</time>
      </trkpt>
      <trkpt lat="42.6297730" lon="-8.6449850">
        <ele>64.9</ele>
        <time>2021-05-23T06:14:14Z</time>
      </trkpt>
      <trkpt lat="42.6297920" lon="-8.6449890">
        <ele>64.9</ele>
        <time>2021-05-23T06:14:15Z</time>
      </trkpt>
      <trkpt lat="42.6298000" lon="-8.6449860">
        <ele>64.9</ele>
        <time>2021-05-23T06:14:16Z</time>
      </trkpt>
      <trkpt lat="42.6298070" lon="-8.6449820">
        <ele>64.9</ele>
        <time>2021-05-23T06:14:17Z</time>
      </trkpt>
      <trkpt lat="42.6298140" lon="-8.6449780">
        <ele>64.9</ele>
        <time>2021-05-23T06:14:18Z</time>
      </trkpt>
      <trkpt lat="42.6298370" lon="-8.6449890">
        <ele>64.8</ele>
        <time>2021-05-23T06:14:19Z</time>
      </trkpt>
      <trkpt lat="42.6298410" lon="-8.6449880">
        <ele>64.8</ele>
        <time>2021-05-23T06:14:20Z</time>
      </trkpt>
      <trkpt lat="42.6298440" lon="-8.6449940">
        <ele>64.8</ele>
        <time>2021-05-23T06:14:21Z</time>
      </trkpt>
      <trkpt lat="42.6298450" lon="-8.6449850">
        <ele>64.8</ele>
        <time>2021-05-23T06:14:22Z</time>
      </trkpt>
      <trkpt lat="42.6298570" lon="-8.6449750">
        <ele>64.8</ele>
        <time>2021-05-23T06:14:23Z</time>
      </trkpt>
      <trkpt lat="42.6298670" lon="-8.6449550">
        <ele>64.8</ele>
        <time>2021-05-23T06:14:24Z</time>
      </trkpt>
      <trkpt lat="42.6298890" lon="-8.6449570">
        <ele>64.8</ele>
        <time>2021-05-23T06:14:25Z</time>
      </trkpt>
      <trkpt lat="42.6298980" lon="-8.6449560">
        <ele>64.8</ele>
        <time>2021-05-23T06:14:26Z</time>
      </trkpt>
      <trkpt lat="42.6299070" lon="-8.6449540">
        <ele>64.8</ele>
        <time>2021-05-23T06:14:27Z</time>
      </trkpt>
      <trkpt lat="42.6299170" lon="-8.6449600">
        <ele>64.8</ele>
        <time>2021-05-23T06:14:28Z</time>
      </trkpt>
      <trkpt lat="42.6299260" lon="-8.6449630">
        <ele>64.8</ele>
        <time>2021-05-23T06:14:29Z</time>
      </trkpt>
      <trkpt lat="42.6299340" lon="-8.6449600">
        <ele>64.8</ele>
        <time>2021-05-23T06:14:30Z</time>
      </trkpt>
      <trkpt lat="42.6299570" lon="-8.6449540">
        <ele>64.8</ele>
        <time>2021-05-23T06:14:31Z</time>
      </trkpt>
      <trkpt lat="42.6299660" lon="-8.6449600">
        <ele>64.8</ele>
        <time>2021-05-23T06:14:32Z</time>
      </trkpt>
      <trkpt lat="42.6299750" lon="-8.6449650">
        <ele>64.8</ele>
        <time>2021-05-23T06:14:33Z</time>
      </trkpt>
      <trkpt lat="42.6299850" lon="-8.6449670">
        <ele>64.8</ele>
        <time>2021-05-23T06:14:34Z</time>
      </trkpt>
      <trkpt lat="42.6299900" lon="-8.6449680">
        <ele>64.8</ele>
        <time>2021-05-23T06:14:35Z</time>
      </trkpt>
      <trkpt lat="42.6300060" lon="-8.6449750">
        <ele>64.8</ele>
        <time>2021-05-23T06:14:36Z</time>
      </trkpt>
      <trkpt lat="42.6300150" lon="-8.6449750">
        <ele>64.8</ele>
        <time>2021-05-23T06:14:37Z</time>
      </trkpt>
      <trkpt lat="42.6300270" lon="-8.6449750">
        <ele>64.7</ele>
        <time>2021-05-23T06:14:38Z</time>
      </trkpt>
      <trkpt lat="42.6300320" lon="-8.6449570">
        <ele>64.7</ele>
        <time>2021-05-23T06:14:39Z</time>
      </trkpt>
      <trkpt lat="42.6300360" lon="-8.6449430">
        <ele>64.7</ele>
        <time>2021-05-23T06:14:40Z</time>
      </trkpt>
      <trkpt lat="42.6300420" lon="-8.6449290">
        <ele>64.7</ele>
        <time>2021-05-23T06:14:41Z</time>
      </trkpt>
      <trkpt lat="42.6300510" lon="-8.6449280">
        <ele>64.7</ele>
        <time>2021-05-23T06:14:42Z</time>
      </trkpt>
      <trkpt lat="42.6300700" lon="-8.6449300">
        <ele>64.7</ele>
        <time>2021-05-23T06:14:43Z</time>
      </trkpt>
      <trkpt lat="42.6300770" lon="-8.6449310">
        <ele>64.7</ele>
        <time>2021-05-23T06:14:44Z</time>
      </trkpt>
      <trkpt lat="42.6300840" lon="-8.6449310">
        <ele>64.7</ele>
        <time>2021-05-23T06:14:45Z</time>
      </trkpt>
      <trkpt lat="42.6300920" lon="-8.6449320">
        <ele>64.7</ele>
        <time>2021-05-23T06:14:46Z</time>
      </trkpt>
      <trkpt lat="42.6301010" lon="-8.6449270">
        <ele>64.7</ele>
        <time>2021-05-23T06:14:47Z</time>
      </trkpt>
      <trkpt lat="42.6301120" lon="-8.6449300">
        <ele>64.7</ele>
        <time>2021-05-23T06:14:48Z</time>
      </trkpt>
      <trkpt lat="42.6301210" lon="-8.6449290">
        <ele>64.7</ele>
        <time>2021-05-23T06:14:49Z</time>
      </trkpt>
      <trkpt lat="42.6301360" lon="-8.6449260">
        <ele>64.7</ele>
        <time>2021-05-23T06:14:50Z</time>
      </trkpt>
      <trkpt lat="42.6301470" lon="-8.6449180">
        <ele>64.7</ele>
        <time>2021-05-23T06:14:51Z</time>
      </trkpt>
      <trkpt lat="42.6301550" lon="-8.6449170">
        <ele>64.7</ele>
        <time>2021-05-23T06:14:52Z</time>
      </trkpt>
      <trkpt lat="42.6301620" lon="-8.6449120">
        <ele>64.7</ele>
        <time>2021-05-23T06:14:53Z</time>
      </trkpt>
      <trkpt lat="42.6301690" lon="-8.6449150">
        <ele>64.7</ele>
        <time>2021-05-23T06:14:54Z</time>
      </trkpt>
      <trkpt lat="42.6301830" lon="-8.6449140">
        <ele>64.7</ele>
        <time>2021-05-23T06:14:55Z</time>
      </trkpt>
      <trkpt lat="42.6301960" lon="-8.6449050">
        <ele>64.6</ele>
        <time>2021-05-23T06:14:56Z</time>
      </trkpt>
      <trkpt lat="42.6302020" lon="-8.6448920">
        <ele>64.6</ele>
        <time>2021-05-23T06:14:57Z</time>
      </trkpt>
      <trkpt lat="42.6302140" lon="-8.6448940">
        <ele>64.6</ele>
        <time>2021-05-23T06:14:58Z</time>
      </trkpt>
      <trkpt lat="42.6302290" lon="-8.6448880">
        <ele>64.6</ele>
        <time>2021-05-23T06:14:59Z</time>
      </trkpt>
      <trkpt lat="42.6302400" lon="-8.6448760">
        <ele>64.6</ele>
        <time>2021-05-23T06:15:00Z</time>
      </trkpt>
      <trkpt lat="42.6302570" lon="-8.6448730">
        <ele>64.6</ele>
        <time>2021-05-23T06:15:01Z</time>
      </trkpt>
      <trkpt lat="42.6302650" lon="-8.6448690">
        <ele>64.6</ele>
        <time>2021-05-23T06:15:02Z</time>
      </trkpt>
      <trkpt lat="42.6302730" lon="-8.6448640">
        <ele>64.6</ele>
        <time>2021-05-23T06:15:03Z</time>
      </trkpt>
      <trkpt lat="42.6302810" lon="-8.6448600">
        <ele>64.6</ele>
        <time>2021-05-23T06:15:04Z</time>
      </trkpt>
      <trkpt lat="42.6302940" lon="-8.6448530">
        <ele>64.6</ele>
        <time>2021-05-23T06:15:05Z</time>
      </trkpt>
      <trkpt lat="42.6303070" lon="-8.6448480">
        <ele>64.6</ele>
        <time>2021-05-23T06:15:06Z</time>
      </trkpt>
      <trkpt lat="42.6303120" lon="-8.6448490">
        <ele>64.6</ele>
        <time>2021-05-23T06:15:07Z</time>
      </trkpt>
      <trkpt lat="42.6303200" lon="-8.6448380">
        <ele>64.6</ele>
        <time>2021-05-23T06:15:08Z</time>
      </trkpt>
      <trkpt lat="42.6303330" lon="-8.6448350">
        <ele>64.6</ele>
        <time>2021-05-23T06:15:09Z</time>
      </trkpt>
      <trkpt lat="42.6303510" lon="-8.6448330">
        <ele>64.6</ele>
        <time>2021-05-23T06:15:10Z</time>
      </trkpt>
      <trkpt lat="42.6303570" lon="-8.6448330">
        <ele>64.5</ele>
        <time>2021-05-23T06:15:11Z</time>
      </trkpt>
      <trkpt lat="42.6303630" lon="-8.6448320">
        <ele>64.5</ele>
        <time>2021-05-23T06:15:12Z</time>
      </trkpt>
      <trkpt lat="42.6303700" lon="-8.6448320">
        <ele>64.5</ele>
        <time>2021-05-23T06:15:13Z</time>
      </trkpt>
      <trkpt lat="42.6303810" lon="-8.6448250">
        <ele>64.5</ele>
        <time>2021-05-23T06:15:14Z</time>
      </trkpt>
      <trkpt lat="42.6303850" lon="-8.6448170">
        <ele>64.5</ele>
        <time>2021-05-23T06:15:15Z</time>
      </trkpt>
      <trkpt lat="42.6303990" lon="-8.6448060">
        <ele>64.5</ele>
        <time>2021-05-23T06:15:16Z</time>
      </trkpt>
      <trkpt lat="42.6304130" lon="-8.6448210">
        <ele>64.5</ele>
        <time>2021-05-23T06:15:17Z</time>
      </trkpt>
      <trkpt lat="42.6304200" lon="-8.6448250">
        <ele>64.5</ele>
        <time>2021-05-23T06:15:18Z</time>
      </trkpt>
      <trkpt lat="42.6304330" lon="-8.6448200">
        <ele>64.5</ele>
        <time>2021-05-23T06:15:19Z</time>
      </trkpt>
      <trkpt lat="42.6304370" lon="-8.6448130">
        <ele>64.5</ele>
        <time>2021-05-23T06:15:20Z</time>
      </trkpt>
      <trkpt lat="42.6304480" lon="-8.6448040">
        <ele>64.5</ele>
        <time>2021-05-23T06:15:21Z</time>
      </trkpt>
      <trkpt lat="42.6304610" lon="-8.6447990">
        <ele>64.5</ele>
        <time>2021-05-23T06:15:22Z</time>
      </trkpt>
      <trkpt lat="42.6304650" lon="-8.6448020">
        <ele>64.5</ele>
        <time>2021-05-23T06:15:23Z</time>
      </trkpt>
      <trkpt lat="42.6304780" lon="-8.6447940">
        <ele>64.5</ele>
        <time>2021-05-23T06:15:24Z</time>
      </trkpt>
      <trkpt lat="42.6304850" lon="-8.6447750">
        <ele>64.5</ele>
        <time>2021-05-23T06:15:25Z</time>
      </trkpt>
      <trkpt lat="42.6304900" lon="-8.6447770">
        <ele>64.5</ele>
        <time>2021-05-23T06:15:26Z</time>
      </trkpt>
      <trkpt lat="42.6304930" lon="-8.6447730">
        <ele>64.5</ele>
        <time>2021-05-23T06:15:27Z</time>
      </trkpt>
      <trkpt lat="42.6305030" lon="-8.6447720">
        <ele>64.4</ele>
        <time>2021-05-23T06:15:28Z</time>
      </trkpt>
      <trkpt lat="42.6305150" lon="-8.6447750">
        <ele>64.4</ele>
        <time>2021-05-23T06:15:29Z</time>
      </trkpt>
      <trkpt lat="42.6305190" lon="-8.6447660">
        <ele>64.4</ele>
        <time>2021-05-23T06:15:30Z</time>
      </trkpt>
      <trkpt lat="42.6305220" lon="-8.6447580">
        <ele>64.4</ele>
        <time>2021-05-23T06:15:31Z</time>
      </trkpt>
      <trkpt lat="42.6305210" lon="-8.6447560">
        <ele>64.4</ele>
        <time>2021-05-23T06:15:32Z</time>
      </trkpt>
      <trkpt lat="42.6305130" lon="-8.6447540">
        <ele>64.4</ele>
        <time>2021-05-23T06:15:33Z</time>
      </trkpt>
      <trkpt lat="42.6305140" lon="-8.6447540">
        <ele>64.4</ele>
        <time>2021-05-23T06:15:34Z</time>
      </trkpt>
      <trkpt lat="42.6305110" lon="-8.6447570">
        <ele>64.4</ele>
        <time>2021-05-23T06:15:35Z</time>
      </trkpt>
      <trkpt lat="42.6305120" lon="-8.6447580">
        <ele>64.4</ele>
        <time>2021-05-23T06:15:36Z</time>
      </trkpt>
      <trkpt lat="42.6305080" lon="-8.6447550">
        <ele>64.4</ele>
        <time>2021-05-23T06:15:37Z</time>
      </trkpt>
      <trkpt lat="42.6305070" lon="-8.6447520">
        <ele>64.4</ele>
        <time>2021-05-23T06:15:38Z</time>
      </trkpt>
      <trkpt lat="42.6305080" lon="-8.6447460">
        <ele>64.4</ele>
        <time>2021-05-23T06:15:39Z</time>
      </trkpt>
      <trkpt lat="42.6305090" lon="-8.6447420">
        <ele>64.4</ele>
        <time>2021-05-23T06:15:40Z</time>
      </trkpt>
      <trkpt lat="42.6305070" lon="-8.6447400">
        <ele>64.4</ele>
        <time>2021-05-23T06:15:41Z</time>
      </trkpt>
      <trkpt lat="42.6305040" lon="-8.6447400">
        <ele>64.4</ele>
        <time>2021-05-23T06:15:42Z</time>
      </trkpt>
      <trkpt lat="42.6305030" lon="-8.6447380">
        <ele>64.4</ele>
        <time>2021-05-23T06:15:43Z</time>
      </trkpt>
      <trkpt lat="42.6305000" lon="-8.6447370">
        <ele>64.4</ele>
        <time>2021-05-23T06:15:44Z</time>
      </trkpt>
      <trkpt lat="42.6304990" lon="-8.6447340">
        <ele>64.4</ele>
        <time>2021-05-23T06:15:45Z</time>
      </trkpt>
      <trkpt lat="42.6304960" lon="-8.6447290">
        <ele>64.4</ele>
        <time>2021-05-23T06:15:46Z</time>
      </trkpt>
      <trkpt lat="42.6304960" lon="-8.6447280">
        <ele>64.4</ele>
        <time>2021-05-23T06:15:47Z</time>
      </trkpt>
      <trkpt lat="42.6304930" lon="-8.6447280">
        <ele>64.4</ele>
        <time>2021-05-23T06:15:48Z</time>
      </trkpt>
      <trkpt lat="42.6304930" lon="-8.6447280">
        <ele>64.3</ele>
        <time>2021-05-23T06:15:49Z</time>
      </trkpt>
      <trkpt lat="42.6304910" lon="-8.6447300">
        <ele>64.3</ele>
        <time>2021-05-23T06:15:50Z</time>
      </trkpt>
      <trkpt lat="42.6304920" lon="-8.6447260">
        <ele>64.3</ele>
        <time>2021-05-23T06:15:51Z</time>
      </trkpt>
      <trkpt lat="42.6305000" lon="-8.6447210">
        <ele>64.3</ele>
        <time>2021-05-23T06:15:52Z</time>
      </trkpt>
      <trkpt lat="42.6305030" lon="-8.6447230">
        <ele>64.3</ele>
        <time>2021-05-23T06:15:53Z</time>
      </trkpt>
      <trkpt lat="42.6305050" lon="-8.6447280">
        <ele>64.3</ele>
        <time>2021-05-23T06:15:54Z</time>
      </trkpt>
      <trkpt lat="42.6305090" lon="-8.6447260">
        <ele>64.3</ele>
        <time>2021-05-23T06:15:55Z</time>
      </trkpt>
      <trkpt lat="42.6305060" lon="-8.6447230">
        <ele>64.3</ele>
        <time>2021-05-23T06:15:56Z</time>
      </trkpt>
      <trkpt lat="42.6305100" lon="-8.6447180">
        <ele>64.3</ele>
        <time>2021-05-23T06:15:57Z</time>
      </trkpt>
      <trkpt lat="42.6305140" lon="-8.6447140">
        <ele>64.3</ele>
        <time>2021-05-23T06:15:58Z</time>
      </trkpt>
      <trkpt lat="42.6305160" lon="-8.6447170">
        <ele>64.3</ele>
        <time>2021-05-23T06:15:59Z</time>
      </trkpt>
      <trkpt lat="42.6305220" lon="-8.6447210">
        <ele>64.3</ele>
        <time>2021-05-23T06:16:00Z</time>
      </trkpt>
      <trkpt lat="42.6305260" lon="-8.6447150">
        <ele>64.3</ele>
        <time>2021-05-23T06:16:01Z</time>
      </trkpt>
      <trkpt lat="42.6305370" lon="-8.6447270">
        <ele>64.3</ele>
        <time>2021-05-23T06:16:02Z</time>
      </trkpt>
      <trkpt lat="42.6305390" lon="-8.6447310">
        <ele>64.3</ele>
        <time>2021-05-23T06:16:03Z</time>
      </trkpt>
      <trkpt lat="42.6305410" lon="-8.6447350">
        <ele>64.3</ele>
        <time>2021-05-23T06:16:04Z</time>
      </trkpt>
      <trkpt lat="42.6305430" lon="-8.6447390">
        <ele>64.3</ele>
        <time>2021-05-23T06:16:05Z</time>
      </trkpt>
      <trkpt lat="42.6305450" lon="-8.6447440">
        <ele>64.3</ele>
        <time>2021-05-23T06:16:06Z</time>
      </trkpt>
      <trkpt lat="42.6305470" lon="-8.6447480">
        <ele>64.3</ele>
        <time>2021-05-23T06:16:07Z</time>
      </trkpt>
      <trkpt lat="42.6305500" lon="-8.6447520">
        <ele>64.2</ele>
        <time>2021-05-23T06:16:08Z</time>
      </trkpt>
      <trkpt lat="42.6305520" lon="-8.6447560">
        <ele>64.2</ele>
        <time>2021-05-23T06:16:09Z</time>
      </trkpt>
      <trkpt lat="42.6305540" lon="-8.6447600">
        <ele>64.2</ele>
        <time>2021-05-23T06:16:10Z</time>
      </trkpt>
      <trkpt lat="42.6305560" lon="-8.6447640">
        <ele>64.2</ele>
        <time>2021-05-23T06:16:11Z</time>
      </trkpt>
      <trkpt lat="42.6305580" lon="-8.6447680">
        <ele>64.2</ele>
        <time>2021-05-23T06:16:12Z</time>
      </trkpt>
      <trkpt lat="42.6305600" lon="-8.6447720">
        <ele>64.2</ele>
        <time>2021-05-23T06:16:13Z</time>
      </trkpt>
      <trkpt lat="42.6305620" lon="-8.6447760">
        <ele>64.2</ele>
        <time>2021-05-23T06:16:14Z</time>
      </trkpt>
      <trkpt lat="42.6305640" lon="-8.6447810">
        <ele>64.2</ele>
        <time>2021-05-23T06:16:15Z</time>
      </trkpt>
      <trkpt lat="42.6305660" lon="-8.6447850">
        <ele>64.2</ele>
        <time>2021-05-23T06:16:16Z</time>
      </trkpt>
      <trkpt lat="42.6305680" lon="-8.6447890">
        <ele>64.2</ele>
        <time>2021-05-23T06:16:17Z</time>
      </trkpt>
      <trkpt lat="42.6305700" lon="-8.6447930">
        <ele>64.2</ele>
        <time>2021-05-23T06:16:18Z</time>
      </trkpt>
      <trkpt lat="42.6305720" lon="-8.6447970">
        <ele>64.2</ele>
        <time>2021-05-23T06:16:19Z</time>
      </trkpt>
      <trkpt lat="42.6305740" lon="-8.6448010">
        <ele>64.2</ele>
        <time>2021-05-23T06:16:20Z</time>
      </trkpt>
      <trkpt lat="42.6305770" lon="-8.6448050">
        <ele>64.2</ele>
        <time>2021-05-23T06:16:21Z</time>
      </trkpt>
      <trkpt lat="42.6305790" lon="-8.6448090">
        <ele>64.2</ele>
        <time>2021-05-23T06:16:22Z</time>
      </trkpt>
      <trkpt lat="42.6305810" lon="-8.6448140">
        <ele>64.2</ele>
        <time>2021-05-23T06:16:23Z</time>
      </trkpt>
      <trkpt lat="42.6305830" lon="-8.6448180">
        <ele>64.2</ele>
        <time>2021-05-23T06:16:24Z</time>
      </trkpt>
      <trkpt lat="42.6305850" lon="-8.6448220">
        <ele>64.2</ele>
        <time>2021-05-23T06:16:25Z</time>
      </trkpt>
      <trkpt lat="42.6305870" lon="-8.6448260">
        <ele>64.2</ele>
        <time>2021-05-23T06:16:26Z</time>
      </trkpt>
      <trkpt lat="42.6305890" lon="-8.6448300">
        <ele>64.2</ele>
        <time>2021-05-23T06:16:27Z</time>
      </trkpt>
      <trkpt lat="42.6305780" lon="-8.6448280">
        <ele>64.2</ele>
        <time>2021-05-23T06:16:28Z</time>
      </trkpt>
      <trkpt lat="42.6305730" lon="-8.6448270">
        <ele>64.2</ele>
        <time>2021-05-23T06:16:29Z</time>
      </trkpt>
      <trkpt lat="42.6305690" lon="-8.6448330">
        <ele>64.2</ele>
        <time>2021-05-23T06:16:30Z</time>
      </trkpt>
      <trkpt lat="42.6305650" lon="-8.6448250">
        <ele>64.2</ele>
        <time>2021-05-23T06:16:31Z</time>
      </trkpt>
      <trkpt lat="42.6305560" lon="-8.6448270">
        <ele>64.2</ele>
        <time>2021-05-23T06:16:32Z</time>
      </trkpt>
      <trkpt lat="42.6305550" lon="-8.6448360">
        <ele>64.2</ele>
        <time>2021-05-23T06:16:33Z</time>
      </trkpt>
      <trkpt lat="42.6305500" lon="-8.6448370">
        <ele>64.2</ele>
        <time>2021-05-23T06:16:34Z</time>
      </trkpt>
      <trkpt lat="42.6305480" lon="-8.6448350">
        <ele>64.2</ele>
        <time>2021-05-23T06:16:35Z</time>
      </trkpt>
      <trkpt lat="42.6305510" lon="-8.6448310">
        <ele>64.2</ele>
        <time>2021-05-23T06:16:36Z</time>
      </trkpt>
      <trkpt lat="42.6305540" lon="-8.6448390">
        <ele>64.2</ele>
        <time>2021-05-23T06:16:37Z</time>
      </trkpt>
      <trkpt lat="42.6305610" lon="-8.6448360">
        <ele>64.2</ele>
        <time>2021-05-23T06:16:38Z</time>
      </trkpt>
      <trkpt lat="42.6305570" lon="-8.6448350">
        <ele>64.2</ele>
        <time>2021-05-23T06:16:39Z</time>
      </trkpt>
      <trkpt lat="42.6305600" lon="-8.6448410">
        <ele>64.2</ele>
        <time>2021-05-23T06:16:40Z</time>
      </trkpt>
      <trkpt lat="42.6305620" lon="-8.6448360">
        <ele>64.2</ele>
        <time>2021-05-23T06:16:41Z</time>
      </trkpt>
      <trkpt lat="42.6305680" lon="-8.6448440">
        <ele>64.2</ele>
        <time>2021-05-23T06:16:42Z</time>
      </trkpt>
      <trkpt lat="42.6305700" lon="-8.6448360">
        <ele>64.2</ele>
        <time>2021-05-23T06:16:43Z</time>
      </trkpt>
      <trkpt lat="42.6305600" lon="-8.6448530">
        <ele>64.2</ele>
        <time>2021-05-23T06:16:44Z</time>
      </trkpt>
      <trkpt lat="42.6305440" lon="-8.6448730">
        <ele>64.1</ele>
        <time>2021-05-23T06:16:45Z</time>
      </trkpt>
      <trkpt lat="42.6305460" lon="-8.6448800">
        <ele>64.1</ele>
        <time>2021-05-23T06:16:46Z</time>
      </trkpt>
      <trkpt lat="42.6305520" lon="-8.6448770">
        <ele>64.1</ele>
        <time>2021-05-23T06:16:47Z</time>
      </trkpt>
      <trkpt lat="42.6305580" lon="-8.6448730">
        <ele>64.1</ele>
        <time>2021-05-23T06:16:48Z</time>
      </trkpt>
      <trkpt lat="42.6305640" lon="-8.6448700">
        <ele>64.1</ele>
        <time>2021-05-23T06:16:49Z</time>
      </trkpt>
      <trkpt lat="42.6305690" lon="-8.6448670">
        <ele>64.1</ele>
        <time>2021-05-23T06:16:50Z</time>
      </trkpt>
      <trkpt lat="42.6305750" lon="-8.6448640">
        <ele>64.1</ele>
        <time>2021-05-23T06:16:51Z</time>
      </trkpt>
      <trkpt lat="42.6305810" lon="-8.6448600">
        <ele>64.1</ele>
        <time>2021-05-23T06:16:52Z</time>
      </trkpt>
      <trkpt lat="42.6305870" lon="-8.6448570">
        <ele>64.1</ele>
        <time>2021-05-23T06:16:53Z</time>
      </trkpt>
      <trkpt lat="42.6306020" lon="-8.6448440">
        <ele>64.1</ele>
        <time>2021-05-23T06:16:54Z</time>
      </trkpt>
      <trkpt lat="42.6306010" lon="-8.6448420">
        <ele>64.1</ele>
        <time>2021-05-23T06:16:55Z</time>
      </trkpt>
      <trkpt lat="42.6306010" lon="-8.6448400">
        <ele>64.1</ele>
        <time>2021-05-23T06:16:56Z</time>
      </trkpt>
      <trkpt lat="42.6306000" lon="-8.6448380">
        <ele>64.1</ele>
        <time>2021-05-23T06:16:57Z</time>
      </trkpt>
      <trkpt lat="42.6306000" lon="-8.6448360">
        <ele>64.1</ele>
        <time>2021-05-23T06:16:58Z</time>
      </trkpt>
      <trkpt lat="42.6306000" lon="-8.6448340">
        <ele>64.1</ele>
        <time>2021-05-23T06:16:59Z</time>
      </trkpt>
      <trkpt lat="42.6305990" lon="-8.6448320">
        <ele>64.1</ele>
        <time>2021-05-23T06:17:00Z</time>
      </trkpt>
      <trkpt lat="42.6305990" lon="-8.6448290">
        <ele>64.1</ele>
        <time>2021-05-23T06:17:01Z</time>
      </trkpt>
      <trkpt lat="42.6305980" lon="-8.6448270">
        <ele>64.1</ele>
        <time>2021-05-23T06:17:02Z</time>
      </trkpt>
      <trkpt lat="42.6305980" lon="-8.6448250">
        <ele>64.1</ele>
        <time>2021-05-23T06:17:03Z</time>
      </trkpt>
      <trkpt lat="42.6305970" lon="-8.6448230">
        <ele>64.1</ele>
        <time>2021-05-23T06:17:04Z</time>
      </trkpt>
      <trkpt lat="42.6305970" lon="-8.6448210">
        <ele>64.1</ele>
        <time>2021-05-23T06:17:05Z</time>
      </trkpt>
      <trkpt lat="42.6305970" lon="-8.6448190">
        <ele>64.1</ele>
        <time>2021-05-23T06:17:06Z</time>
      </trkpt>
      <trkpt lat="42.6305960" lon="-8.6448170">
        <ele>64.1</ele>
        <time>2021-05-23T06:17:07Z</time>
      </trkpt>
      <trkpt lat="42.6305960" lon="-8.6448150">
        <ele>64.1</ele>
        <time>2021-05-23T06:17:08Z</time>
      </trkpt>
      <trkpt lat="42.6305950" lon="-8.6448130">
        <ele>64.1</ele>
        <time>2021-05-23T06:17:09Z</time>
      </trkpt>
      <trkpt lat="42.6305950" lon="-8.6448110">
        <ele>64.1</ele>
        <time>2021-05-23T06:17:10Z</time>
      </trkpt>
      <trkpt lat="42.6305950" lon="-8.6448090">
        <ele>64.1</ele>
        <time>2021-05-23T06:17:11Z</time>
      </trkpt>
      <trkpt lat="42.6305940" lon="-8.6448070">
        <ele>64.1</ele>
        <time>2021-05-23T06:17:12Z</time>
      </trkpt>
      <trkpt lat="42.6305940" lon="-8.6448050">
        <ele>64.1</ele>
        <time>2021-05-23T06:17:13Z</time>
      </trkpt>
      <trkpt lat="42.6305930" lon="-8.6448030">
        <ele>64.1</ele>
        <time>2021-05-23T06:17:14Z</time>
      </trkpt>
      <trkpt lat="42.6305930" lon="-8.6448010">
        <ele>64.1</ele>
        <time>2021-05-23T06:17:15Z</time>
      </trkpt>
      <trkpt lat="42.6305920" lon="-8.6447980">
        <ele>64.1</ele>
        <time>2021-05-23T06:17:16Z</time>
      </trkpt>
      <trkpt lat="42.6305920" lon="-8.6447960">
        <ele>64.1</ele>
        <time>2021-05-23T06:17:17Z</time>
      </trkpt>
      <trkpt lat="42.6305920" lon="-8.6447940">
        <ele>64.1</ele>
        <time>2021-05-23T06:17:18Z</time>
      </trkpt>
      <trkpt lat="42.6305910" lon="-8.6447920">
        <ele>64.1</ele>
        <time>2021-05-23T06:17:19Z</time>
      </trkpt>
      <trkpt lat="42.6305910" lon="-8.6447900">
        <ele>64.1</ele>
        <time>2021-05-23T06:17:20Z</time>
      </trkpt>
      <trkpt lat="42.6305900" lon="-8.6447880">
        <ele>64.1</ele>
        <time>2021-05-23T06:17:21Z</time>
      </trkpt>
      <trkpt lat="42.6305900" lon="-8.6447860">
        <ele>64.1</ele>
        <time>2021-05-23T06:17:22Z</time>
      </trkpt>
      <trkpt lat="42.6305900" lon="-8.6447840">
        <ele>64.1</ele>
        <time>2021-05-23T06:17:23Z</time>
      </trkpt>
      <trkpt lat="42.6305890" lon="-8.6447820">
        <ele>64.1</ele>
        <time>2021-05-23T06:17:24Z</time>
      </trkpt>
      <trkpt lat="42.6305890" lon="-8.6447800">
        <ele>64.1</ele>
        <time>2021-05-23T06:17:25Z</time>
      </trkpt>
      <trkpt lat="42.6305880" lon="-8.6447780">
        <ele>64.1</ele>
        <time>2021-05-23T06:17:26Z</time>
      </trkpt>
      <trkpt lat="42.6305880" lon="-8.6447760">
        <ele>64.1</ele>
        <time>2021-05-23T06:17:27Z</time>
      </trkpt>
      <trkpt lat="42.6305870" lon="-8.6447740">
        <ele>64.1</ele>
        <time>2021-05-23T06:17:28Z</time>
      </trkpt>
      <trkpt lat="42.6305870" lon="-8.6447720">
        <ele>64.1</ele>
        <time>2021-05-23T06:17:29Z</time>
      </trkpt>
      <trkpt lat="42.6305870" lon="-8.6447700">
        <ele>64.1</ele>
        <time>2021-05-23T06:17:30Z</time>
      </trkpt>
      <trkpt lat="42.6305860" lon="-8.6447670">
        <ele>64.1</ele>
        <time>2021-05-23T06:17:31Z</time>
      </trkpt>
      <trkpt lat="42.6305860" lon="-8.6447650">
        <ele>64.1</ele>
        <time>2021-05-23T06:17:32Z</time>
      </trkpt>
      <trkpt lat="42.6305850" lon="-8.6447630">
        <ele>64.1</ele>
        <time>2021-05-23T06:17:33Z</time>
      </trkpt>
      <trkpt lat="42.6305850" lon="-8.6447610">
        <ele>64.1</ele>
        <time>2021-05-23T06:17:34Z</time>
      </trkpt>
      <trkpt lat="42.6305850" lon="-8.6447590">
        <ele>64.1</ele>
        <time>2021-05-23T06:17:35Z</time>
      </trkpt>
      <trkpt lat="42.6305840" lon="-8.6447570">
        <ele>64.1</ele>
        <time>2021-05-23T06:17:36Z</time>
      </trkpt>
      <trkpt lat="42.6305840" lon="-8.6447550">
        <ele>64.1</ele>
        <time>2021-05-23T06:17:37Z</time>
      </trkpt>
      <trkpt lat="42.6305830" lon="-8.6447530">
        <ele>64.1</ele>
        <time>2021-05-23T06:17:38Z</time>
      </trkpt>
      <trkpt lat="42.6305830" lon="-8.6447510">
        <ele>64.1</ele>
        <time>2021-05-23T06:17:39Z</time>
      </trkpt>
      <trkpt lat="42.6305820" lon="-8.6447490">
        <ele>64.1</ele>
        <time>2021-05-23T06:17:40Z</time>
      </trkpt>
      <trkpt lat="42.6305820" lon="-8.6447470">
        <ele>64.1</ele>
        <time>2021-05-23T06:17:41Z</time>
      </trkpt>
      <trkpt lat="42.6305820" lon="-8.6447450">
        <ele>64.1</ele>
        <time>2021-05-23T06:17:42Z</time>
      </trkpt>
      <trkpt lat="42.6305810" lon="-8.6447430">
        <ele>64.1</ele>
        <time>2021-05-23T06:17:43Z</time>
      </trkpt>
      <trkpt lat="42.6305810" lon="-8.6447410">
        <ele>64.1</ele>
        <time>2021-05-23T06:17:44Z</time>
      </trkpt>
      <trkpt lat="42.6305800" lon="-8.6447390">
        <ele>64.1</ele>
        <time>2021-05-23T06:17:45Z</time>
      </trkpt>
      <trkpt lat="42.6305800" lon="-8.6447360">
        <ele>64.1</ele>
        <time>2021-05-23T06:17:46Z</time>
      </trkpt>
      <trkpt lat="42.6305800" lon="-8.6447340">
        <ele>64.1</ele>
        <time>2021-05-23T06:17:47Z</time>
      </trkpt>
      <trkpt lat="42.6305790" lon="-8.6447320">
        <ele>64.1</ele>
        <time>2021-05-23T06:17:48Z</time>
      </trkpt>
      <trkpt lat="42.6305790" lon="-8.6447300">
        <ele>64.1</ele>
        <time>2021-05-23T06:17:49Z</time>
      </trkpt>
      <trkpt lat="42.6305780" lon="-8.6447280">
        <ele>64.1</ele>
        <time>2021-05-23T06:17:50Z</time>
      </trkpt>
      <trkpt lat="42.6305780" lon="-8.6447260">
        <ele>64.1</ele>
        <time>2021-05-23T06:17:51Z</time>
      </trkpt>
      <trkpt lat="42.6305770" lon="-8.6447240">
        <ele>64.1</ele>
        <time>2021-05-23T06:17:52Z</time>
      </trkpt>
      <trkpt lat="42.6305770" lon="-8.6447220">
        <ele>64.1</ele>
        <time>2021-05-23T06:17:53Z</time>
      </trkpt>
      <trkpt lat="42.6305720" lon="-8.6447100">
        <ele>64.1</ele>
        <time>2021-05-23T06:17:54Z</time>
      </trkpt>
      <trkpt lat="42.6305740" lon="-8.6447030">
        <ele>64.1</ele>
        <time>2021-05-23T06:17:55Z</time>
      </trkpt>
      <trkpt lat="42.6305790" lon="-8.6447000">
        <ele>64.1</ele>
        <time>2021-05-23T06:17:56Z</time>
      </trkpt>
      <trkpt lat="42.6305830" lon="-8.6447060">
        <ele>64.1</ele>
        <time>2021-05-23T06:17:57Z</time>
      </trkpt>
      <trkpt lat="42.6305850" lon="-8.6447080">
        <ele>64.1</ele>
        <time>2021-05-23T06:17:58Z</time>
      </trkpt>
      <trkpt lat="42.6305880" lon="-8.6447100">
        <ele>64.1</ele>
        <time>2021-05-23T06:17:59Z</time>
      </trkpt>
      <trkpt lat="42.6305920" lon="-8.6447130">
        <ele>64.1</ele>
        <time>2021-05-23T06:18:00Z</time>
      </trkpt>
      <trkpt lat="42.6305890" lon="-8.6446990">
        <ele>64.1</ele>
        <time>2021-05-23T06:18:01Z</time>
      </trkpt>
      <trkpt lat="42.6305850" lon="-8.6446860">
        <ele>64.1</ele>
        <time>2021-05-23T06:18:02Z</time>
      </trkpt>
      <trkpt lat="42.6305800" lon="-8.6446870">
        <ele>64.1</ele>
        <time>2021-05-23T06:18:03Z</time>
      </trkpt>
      <trkpt lat="42.6305740" lon="-8.6446770">
        <ele>64.1</ele>
        <time>2021-05-23T06:18:04Z</time>
      </trkpt>
      <trkpt lat="42.6305610" lon="-8.6446590">
        <ele>64.1</ele>
        <time>2021-05-23T06:18:05Z</time>
      </trkpt>
      <trkpt lat="42.6305640" lon="-8.6446520">
        <ele>64.1</ele>
        <time>2021-05-23T06:18:06Z</time>
      </trkpt>
      <trkpt lat="42.6305610" lon="-8.6446410">
        <ele>64.1</ele>
        <time>2021-05-23T06:18:07Z</time>
      </trkpt>
      <trkpt lat="42.6305590" lon="-8.6446290">
        <ele>64.1</ele>
        <time>2021-05-23T06:18:08Z</time>
      </trkpt>
      <trkpt lat="42.6305560" lon="-8.6446180">
        <ele>64.1</ele>
        <time>2021-05-23T06:18:09Z</time>
      </trkpt>
      <trkpt lat="42.6305540" lon="-8.6446060">
        <ele>64.1</ele>
        <time>2021-05-23T06:18:10Z</time>
      </trkpt>
      <trkpt lat="42.6305640" lon="-8.6445900">
        <ele>64.1</ele>
        <time>2021-05-23T06:18:11Z</time>
      </trkpt>
      <trkpt lat="42.6305680" lon="-8.6445750">
        <ele>64.1</ele>
        <time>2021-05-23T06:18:12Z</time>
      </trkpt>
      <trkpt lat="42.6305670" lon="-8.6445560">
        <ele>64.1</ele>
        <time>2021-05-23T06:18:13Z</time>
      </trkpt>
      <trkpt lat="42.6305590" lon="-8.6445490">
        <ele>64.1</ele>
        <time>2021-05-23T06:18:14Z</time>
      </trkpt>
      <trkpt lat="42.6305570" lon="-8.6445590">
        <ele>64.1</ele>
        <time>2021-05-23T06:18:15Z</time>
      </trkpt>
      <trkpt lat="42.6305460" lon="-8.6445360">
        <ele>64.1</ele>
        <time>2021-05-23T06:18:16Z</time>
      </trkpt>
      <trkpt lat="42.6305500" lon="-8.6445510">
        <ele>64.1</ele>
        <time>2021-05-23T06:18:17Z</time>
      </trkpt>
      <trkpt lat="42.6305470" lon="-8.6445650">
        <ele>64.1</ele>
        <time>2021-05-23T06:18:18Z</time>
      </trkpt>
      <trkpt lat="42.6305480" lon="-8.6445740">
        <ele>64.1</ele>
        <time>2021-05-23T06:18:19Z</time>
      </trkpt>
      <trkpt lat="42.6305430" lon="-8.6445870">
        <ele>64.1</ele>
        <time>2021-05-23T06:18:20Z</time>
      </trkpt>
      <trkpt lat="42.6305390" lon="-8.6445950">
        <ele>64.1</ele>
        <time>2021-05-23T06:18:21Z</time>
      </trkpt>
      <trkpt lat="42.6305400" lon="-8.6446220">
        <ele>64.1</ele>
        <time>2021-05-23T06:18:22Z</time>
      </trkpt>
      <trkpt lat="42.6305420" lon="-8.6446390">
        <ele>64.1</ele>
        <time>2021-05-23T06:18:23Z</time>
      </trkpt>
      <trkpt lat="42.6305370" lon="-8.6446440">
        <ele>64.1</ele>
        <time>2021-05-23T06:18:24Z</time>
      </trkpt>
      <trkpt lat="42.6305330" lon="-8.6446530">
        <ele>64.2</ele>
        <time>2021-05-23T06:18:25Z</time>
      </trkpt>
      <trkpt lat="42.6305320" lon="-8.6446630">
        <ele>64.2</ele>
        <time>2021-05-23T06:18:26Z</time>
      </trkpt>
      <trkpt lat="42.6305320" lon="-8.6446630">
        <ele>64.2</ele>
        <time>2021-05-23T06:18:27Z</time>
      </trkpt>
      <trkpt lat="42.6305400" lon="-8.6447040">
        <ele>64.2</ele>
        <time>2021-05-23T06:18:28Z</time>
      </trkpt>
      <trkpt lat="42.6305370" lon="-8.6447200">
        <ele>64.2</ele>
        <time>2021-05-23T06:18:29Z</time>
      </trkpt>
      <trkpt lat="42.6305410" lon="-8.6447400">
        <ele>64.2</ele>
        <time>2021-05-23T06:18:30Z</time>
      </trkpt>
      <trkpt lat="42.6305360" lon="-8.6447530">
        <ele>64.2</ele>
        <time>2021-05-23T06:18:31Z</time>
      </trkpt>
      <trkpt lat="42.6305310" lon="-8.6447700">
        <ele>64.2</ele>
        <time>2021-05-23T06:18:32Z</time>
      </trkpt>
      <trkpt lat="42.6305280" lon="-8.6447910">
        <ele>64.2</ele>
        <time>2021-05-23T06:18:33Z</time>
      </trkpt>
      <trkpt lat="42.6305230" lon="-8.6448320">
        <ele>64.3</ele>
        <time>2021-05-23T06:18:34Z</time>
      </trkpt>
      <trkpt lat="42.6305230" lon="-8.6448470">
        <ele>64.3</ele>
        <time>2021-05-23T06:18:35Z</time>
      </trkpt>
      <trkpt lat="42.6305280" lon="-8.6448660">
        <ele>64.3</ele>
        <time>2021-05-23T06:18:36Z</time>
      </trkpt>
      <trkpt lat="42.6305190" lon="-8.6448580">
        <ele>64.3</ele>
        <time>2021-05-23T06:18:37Z</time>
      </trkpt>
      <trkpt lat="42.6305300" lon="-8.6448510">
        <ele>64.3</ele>
        <time>2021-05-23T06:18:38Z</time>
      </trkpt>
      <trkpt lat="42.6305340" lon="-8.6448460">
        <ele>64.3</ele>
        <time>2021-05-23T06:18:39Z</time>
      </trkpt>
      <trkpt lat="42.6305400" lon="-8.6448450">
        <ele>64.3</ele>
        <time>2021-05-23T06:18:40Z</time>
      </trkpt>
      <trkpt lat="42.6305400" lon="-8.6448500">
        <ele>64.3</ele>
        <time>2021-05-23T06:18:41Z</time>
      </trkpt>
      <trkpt lat="42.6305440" lon="-8.6448590">
        <ele>64.3</ele>
        <time>2021-05-23T06:18:42Z</time>
      </trkpt>
      <trkpt lat="42.6305460" lon="-8.6448650">
        <ele>64.3</ele>
        <time>2021-05-23T06:18:43Z</time>
      </trkpt>
      <trkpt lat="42.6305510" lon="-8.6448530">
        <ele>64.3</ele>
        <time>2021-05-23T06:18:44Z</time>
      </trkpt>
      <trkpt lat="42.6305610" lon="-8.6448460">
        <ele>64.4</ele>
        <time>2021-05-23T06:18:45Z</time>
      </trkpt>
      <trkpt lat="42.6305650" lon="-8.6448440">
        <ele>64.4</ele>
        <time>2021-05-23T06:18:46Z</time>
      </trkpt>
      <trkpt lat="42.6305650" lon="-8.6448440">
        <ele>64.4</ele>
        <time>2021-05-23T06:18:47Z</time>
      </trkpt>
      <trkpt lat="42.6305640" lon="-8.6448460">
        <ele>64.4</ele>
        <time>2021-05-23T06:18:48Z</time>
      </trkpt>
      <trkpt lat="42.6305690" lon="-8.6448430">
        <ele>64.4</ele>
        <time>2021-05-23T06:18:49Z</time>
      </trkpt>
      <trkpt lat="42.6305780" lon="-8.6448460">
        <ele>64.4</ele>
        <time>2021-05-23T06:18:50Z</time>
      </trkpt>
      <trkpt lat="42.6305810" lon="-8.6448430">
        <ele>64.4</ele>
        <time>2021-05-23T06:18:51Z</time>
      </trkpt>
      <trkpt lat="42.6305640" lon="-8.6448500">
        <ele>64.4</ele>
        <time>2021-05-23T06:18:52Z</time>
      </trkpt>
      <trkpt lat="42.6305720" lon="-8.6448550">
        <ele>64.4</ele>
        <time>2021-05-23T06:18:53Z</time>
      </trkpt>
      <trkpt lat="42.6305810" lon="-8.6448550">
        <ele>64.4</ele>
        <time>2021-05-23T06:18:54Z</time>
      </trkpt>
      <trkpt lat="42.6305810" lon="-8.6448560">
        <ele>64.4</ele>
        <time>2021-05-23T06:18:55Z</time>
      </trkpt>
      <trkpt lat="42.6305810" lon="-8.6448610">
        <ele>64.4</ele>
        <time>2021-05-23T06:18:56Z</time>
      </trkpt>
      <trkpt lat="42.6305820" lon="-8.6448670">
        <ele>64.4</ele>
        <time>2021-05-23T06:18:57Z</time>
      </trkpt>
      <trkpt lat="42.6305830" lon="-8.6448670">
        <ele>64.4</ele>
        <time>2021-05-23T06:18:58Z</time>
      </trkpt>
      <trkpt lat="42.6305830" lon="-8.6448670">
        <ele>64.4</ele>
        <time>2021-05-23T06:18:59Z</time>
      </trkpt>
      <trkpt lat="42.6305830" lon="-8.6448670">
        <ele>64.4</ele>
        <time>2021-05-23T06:19:00Z</time>
      </trkpt>
      <trkpt lat="42.6305780" lon="-8.6448700">
        <ele>64.4</ele>
        <time>2021-05-23T06:19:01Z</time>
      </trkpt>
      <trkpt lat="42.6305790" lon="-8.6448750">
        <ele>64.4</ele>
        <time>2021-05-23T06:19:02Z</time>
      </trkpt>
      <trkpt lat="42.6305760" lon="-8.6448790">
        <ele>64.4</ele>
        <time>2021-05-23T06:19:03Z</time>
      </trkpt>
      <trkpt lat="42.6305810" lon="-8.6448840">
        <ele>64.4</ele>
        <time>2021-05-23T06:19:04Z</time>
      </trkpt>
      <trkpt lat="42.6305850" lon="-8.6448870">
        <ele>64.4</ele>
        <time>2021-05-23T06:19:05Z</time>
      </trkpt>
      <trkpt lat="42.6305890" lon="-8.6448890">
        <ele>64.4</ele>
        <time>2021-05-23T06:19:06Z</time>
      </trkpt>
      <trkpt lat="42.6305910" lon="-8.6448820">
        <ele>64.4</ele>
        <time>2021-05-23T06:19:07Z</time>
      </trkpt>
      <trkpt lat="42.6305920" lon="-8.6448830">
        <ele>64.4</ele>
        <time>2021-05-23T06:19:08Z</time>
      </trkpt>
      <trkpt lat="42.6305920" lon="-8.6448890">
        <ele>64.4</ele>
        <time>2021-05-23T06:19:09Z</time>
      </trkpt>
      <trkpt lat="42.6305930" lon="-8.6448870">
        <ele>64.4</ele>
        <time>2021-05-23T06:19:10Z</time>
      </trkpt>
      <trkpt lat="42.6305960" lon="-8.6448870">
        <ele>64.5</ele>
        <time>2021-05-23T06:19:11Z</time>
      </trkpt>
      <trkpt lat="42.6305960" lon="-8.6448830">
        <ele>64.5</ele>
        <time>2021-05-23T06:19:12Z</time>
      </trkpt>
      <trkpt lat="42.6305960" lon="-8.6448770">
        <ele>64.5</ele>
        <time>2021-05-23T06:19:13Z</time>
      </trkpt>
      <trkpt lat="42.6305980" lon="-8.6448760">
        <ele>64.5</ele>
        <time>2021-05-23T06:19:14Z</time>
      </trkpt>
      <trkpt lat="42.6306020" lon="-8.6448760">
        <ele>64.5</ele>
        <time>2021-05-23T06:19:15Z</time>
      </trkpt>
      <trkpt lat="42.6306030" lon="-8.6448780">
        <ele>64.5</ele>
        <time>2021-05-23T06:19:16Z</time>
      </trkpt>
      <trkpt lat="42.6306050" lon="-8.6448810">
        <ele>64.5</ele>
        <time>2021-05-23T06:19:17Z</time>
      </trkpt>
      <trkpt lat="42.6306060" lon="-8.6448890">
        <ele>64.5</ele>
        <time>2021-05-23T06:19:18Z</time>
      </trkpt>
      <trkpt lat="42.6306090" lon="-8.6448960">
        <ele>64.5</ele>
        <time>2021-05-23T06:19:19Z</time>
      </trkpt>
      <trkpt lat="42.6306080" lon="-8.6448980">
        <ele>64.5</ele>
        <time>2021-05-23T06:19:20Z</time>
      </trkpt>
      <trkpt lat="42.6306080" lon="-8.6448980">
        <ele>64.5</ele>
        <time>2021-05-23T06:19:21Z</time>
      </trkpt>
      <trkpt lat="42.6306080" lon="-8.6448980">
        <ele>64.5</ele>
        <time>2021-05-23T06:19:22Z</time>
      </trkpt>
      <trkpt lat="42.6306040" lon="-8.6449000">
        <ele>64.5</ele>
        <time>2021-05-23T06:19:23Z</time>
      </trkpt>
      <trkpt lat="42.6306080" lon="-8.6449060">
        <ele>64.5</ele>
        <time>2021-05-23T06:19:24Z</time>
      </trkpt>
      <trkpt lat="42.6306080" lon="-8.6449060">
        <ele>64.5</ele>
        <time>2021-05-23T06:19:25Z</time>
      </trkpt>
      <trkpt lat="42.6306080" lon="-8.6449060">
        <ele>64.5</ele>
        <time>2021-05-23T06:19:26Z</time>
      </trkpt>
      <trkpt lat="42.6306090" lon="-8.6449000">
        <ele>64.5</ele>
        <time>2021-05-23T06:19:27Z</time>
      </trkpt>
      <trkpt lat="42.6306040" lon="-8.6449010">
        <ele>64.5</ele>
        <time>2021-05-23T06:19:28Z</time>
      </trkpt>
      <trkpt lat="42.6306010" lon="-8.6449010">
        <ele>64.5</ele>
        <time>2021-05-23T06:19:29Z</time>
      </trkpt>
      <trkpt lat="42.6305960" lon="-8.6449010">
        <ele>64.5</ele>
        <time>2021-05-23T06:19:30Z</time>
      </trkpt>
      <trkpt lat="42.6305920" lon="-8.6448990">
        <ele>64.5</ele>
        <time>2021-05-23T06:19:31Z</time>
      </trkpt>
      <trkpt lat="42.6305870" lon="-8.6449000">
        <ele>64.5</ele>
        <time>2021-05-23T06:19:32Z</time>
      </trkpt>
      <trkpt lat="42.6305870" lon="-8.6448970">
        <ele>64.5</ele>
        <time>2021-05-23T06:19:33Z</time>
      </trkpt>
      <trkpt lat="42.6305880" lon="-8.6448950">
        <ele>64.6</ele>
        <time>2021-05-23T06:19:34Z</time>
      </trkpt>
      <trkpt lat="42.6305960" lon="-8.6449000">
        <ele>64.6</ele>
        <time>2021-05-23T06:19:35Z</time>
      </trkpt>
      <trkpt lat="42.6305940" lon="-8.6449030">
        <ele>64.6</ele>
        <time>2021-05-23T06:19:36Z</time>
      </trkpt>
      <trkpt lat="42.6305940" lon="-8.6449030">
        <ele>64.6</ele>
        <time>2021-05-23T06:19:37Z</time>
      </trkpt>
      <trkpt lat="42.6305940" lon="-8.6449030">
        <ele>64.6</ele>
        <time>2021-05-23T06:19:38Z</time>
      </trkpt>
      <trkpt lat="42.6305940" lon="-8.6449030">
        <ele>64.6</ele>
        <time>2021-05-23T06:19:39Z</time>
      </trkpt>
      <trkpt lat="42.6305940" lon="-8.6449030">
        <ele>64.6</ele>
        <time>2021-05-23T06:19:40Z</time>
      </trkpt>
      <trkpt lat="42.6305940" lon="-8.6449030">
        <ele>64.6</ele>
        <time>2021-05-23T06:19:41Z</time>
      </trkpt>
      <trkpt lat="42.6305940" lon="-8.6449030">
        <ele>64.6</ele>
        <time>2021-05-23T06:19:42Z</time>
      </trkpt>
      <trkpt lat="42.6305940" lon="-8.6449030">
        <ele>64.6</ele>
        <time>2021-05-23T06:19:43Z</time>
      </trkpt>
      <trkpt lat="42.6305940" lon="-8.6449030">
        <ele>64.6</ele>
        <time>2021-05-23T06:19:44Z</time>
      </trkpt>
      <trkpt lat="42.6305940" lon="-8.6449030">
        <ele>64.6</ele>
        <time>2021-05-23T06:19:45Z</time>
      </trkpt>
      <trkpt lat="42.6305960" lon="-8.6448540">
        <ele>64.6</ele>
        <time>2021-05-23T06:19:46Z</time>
      </trkpt>
      <trkpt lat="42.6305940" lon="-8.6448570">
        <ele>64.6</ele>
        <time>2021-05-23T06:19:47Z</time>
      </trkpt>
      <trkpt lat="42.6305910" lon="-8.6448580">
        <ele>64.6</ele>
        <time>2021-05-23T06:19:48Z</time>
      </trkpt>
      <trkpt lat="42.6305900" lon="-8.6448590">
        <ele>64.6</ele>
        <time>2021-05-23T06:19:49Z</time>
      </trkpt>
      <trkpt lat="42.6305890" lon="-8.6448540">
        <ele>64.6</ele>
        <time>2021-05-23T06:19:50Z</time>
      </trkpt>
      <trkpt lat="42.6305880" lon="-8.6448400">
        <ele>64.7</ele>
        <time>2021-05-23T06:19:51Z</time>
      </trkpt>
      <trkpt lat="42.6305880" lon="-8.6448390">
        <ele>64.7</ele>
        <time>2021-05-23T06:19:52Z</time>
      </trkpt>
      <trkpt lat="42.6305860" lon="-8.6448400">
        <ele>64.7</ele>
        <time>2021-05-23T06:19:53Z</time>
      </trkpt>
      <trkpt lat="42.6305840" lon="-8.6448430">
        <ele>64.7</ele>
        <time>2021-05-23T06:19:54Z</time>
      </trkpt>
      <trkpt lat="42.6305800" lon="-8.6448380">
        <ele>64.7</ele>
        <time>2021-05-23T06:19:55Z</time>
      </trkpt>
      <trkpt lat="42.6305780" lon="-8.6448330">
        <ele>64.7</ele>
        <time>2021-05-23T06:19:56Z</time>
      </trkpt>
      <trkpt lat="42.6305780" lon="-8.6448330">
        <ele>64.7</ele>
        <time>2021-05-23T06:19:57Z</time>
      </trkpt>
      <trkpt lat="42.6305800" lon="-8.6448300">
        <ele>64.7</ele>
        <time>2021-05-23T06:19:58Z</time>
      </trkpt>
      <trkpt lat="42.6305780" lon="-8.6448310">
        <ele>64.7</ele>
        <time>2021-05-23T06:19:59Z</time>
      </trkpt>
      <trkpt lat="42.6305820" lon="-8.6448320">
        <ele>64.7</ele>
        <time>2021-05-23T06:20:00Z</time>
      </trkpt>
      <trkpt lat="42.6305800" lon="-8.6448240">
        <ele>64.7</ele>
        <time>2021-05-23T06:20:01Z</time>
      </trkpt>
      <trkpt lat="42.6305750" lon="-8.6448220">
        <ele>64.7</ele>
        <time>2021-05-23T06:20:02Z</time>
      </trkpt>
      <trkpt lat="42.6305760" lon="-8.6448260">
        <ele>64.7</ele>
        <time>2021-05-23T06:20:03Z</time>
      </trkpt>
      <trkpt lat="42.6305760" lon="-8.6448200">
        <ele>64.7</ele>
        <time>2021-05-23T06:20:04Z</time>
      </trkpt>
      <trkpt lat="42.6305760" lon="-8.6448140">
        <ele>64.8</ele>
        <time>2021-05-23T06:20:05Z</time>
      </trkpt>
      <trkpt lat="42.6305770" lon="-8.6448170">
        <ele>64.8</ele>
        <time>2021-05-23T06:20:06Z</time>
      </trkpt>
      <trkpt lat="42.6305810" lon="-8.6448240">
        <ele>64.8</ele>
        <time>2021-05-23T06:20:07Z</time>
      </trkpt>
      <trkpt lat="42.6305800" lon="-8.6448300">
        <ele>64.8</ele>
        <time>2021-05-23T06:20:08Z</time>
      </trkpt>
      <trkpt lat="42.6305760" lon="-8.6448380">
        <ele>64.8</ele>
        <time>2021-05-23T06:20:09Z</time>
      </trkpt>
      <trkpt lat="42.6305790" lon="-8.6448380">
        <ele>64.8</ele>
        <time>2021-05-23T06:20:10Z</time>
      </trkpt>
      <trkpt lat="42.6305810" lon="-8.6448420">
        <ele>64.8</ele>
        <time>2021-05-23T06:20:11Z</time>
      </trkpt>
      <trkpt lat="42.6305830" lon="-8.6448470">
        <ele>64.8</ele>
        <time>2021-05-23T06:20:12Z</time>
      </trkpt>
      <trkpt lat="42.6305830" lon="-8.6448470">
        <ele>64.8</ele>
        <time>2021-05-23T06:20:13Z</time>
      </trkpt>
      <trkpt lat="42.6305890" lon="-8.6448580">
        <ele>64.8</ele>
        <time>2021-05-23T06:20:14Z</time>
      </trkpt>
      <trkpt lat="42.6305890" lon="-8.6448580">
        <ele>64.8</ele>
        <time>2021-05-23T06:20:15Z</time>
      </trkpt>
      <trkpt lat="42.6305890" lon="-8.6448580">
        <ele>64.8</ele>
        <time>2021-05-23T06:20:16Z</time>
      </trkpt>
      <trkpt lat="42.6305970" lon="-8.6448660">
        <ele>64.9</ele>
        <time>2021-05-23T06:20:17Z</time>
      </trkpt>
      <trkpt lat="42.6305980" lon="-8.6448650">
        <ele>64.9</ele>
        <time>2021-05-23T06:20:18Z</time>
      </trkpt>
      <trkpt lat="42.6305950" lon="-8.6448660">
        <ele>64.9</ele>
        <time>2021-05-23T06:20:19Z</time>
      </trkpt>
      <trkpt lat="42.6305950" lon="-8.6448670">
        <ele>64.9</ele>
        <time>2021-05-23T06:20:20Z</time>
      </trkpt>
      <trkpt lat="42.6305950" lon="-8.6448670">
        <ele>64.9</ele>
        <time>2021-05-23T06:20:21Z</time>
      </trkpt>
      <trkpt lat="42.6305980" lon="-8.6448600">
        <ele>64.9</ele>
        <time>2021-05-23T06:20:22Z</time>
      </trkpt>
      <trkpt lat="42.6306000" lon="-8.6448570">
        <ele>64.9</ele>
        <time>2021-05-23T06:20:23Z</time>
      </trkpt>
      <trkpt lat="42.6305930" lon="-8.6448590">
        <ele>64.9</ele>
        <time>2021-05-23T06:20:24Z</time>
      </trkpt>
      <trkpt lat="42.6305930" lon="-8.6448650">
        <ele>64.9</ele>
        <time>2021-05-23T06:20:25Z</time>
      </trkpt>
      <trkpt lat="42.6305890" lon="-8.6448690">
        <ele>64.9</ele>
        <time>2021-05-23T06:20:26Z</time>
      </trkpt>
      <trkpt lat="42.6305850" lon="-8.6448780">
        <ele>65.0</ele>
        <time>2021-05-23T06:20:27Z</time>
      </trkpt>
      <trkpt lat="42.6305820" lon="-8.6448870">
        <ele>65.0</ele>
        <time>2021-05-23T06:20:28Z</time>
      </trkpt>
      <trkpt lat="42.6305800" lon="-8.6449020">
        <ele>65.0</ele>
        <time>2021-05-23T06:20:29Z</time>
      </trkpt>
      <trkpt lat="42.6305800" lon="-8.6449020">
        <ele>65.0</ele>
        <time>2021-05-23T06:20:30Z</time>
      </trkpt>
      <trkpt lat="42.6305770" lon="-8.6448910">
        <ele>65.0</ele>
        <time>2021-05-23T06:20:31Z</time>
      </trkpt>
      <trkpt lat="42.6305870" lon="-8.6448860">
        <ele>65.0</ele>
        <time>2021-05-23T06:20:32Z</time>
      </trkpt>
      <trkpt lat="42.6305810" lon="-8.6448900">
        <ele>65.1</ele>
        <time>2021-05-23T06:20:33Z</time>
      </trkpt>
      <trkpt lat="42.6305790" lon="-8.6448820">
        <ele>65.1</ele>
        <time>2021-05-23T06:20:34Z</time>
      </trkpt>
      <trkpt lat="42.6305770" lon="-8.6448770">
        <ele>65.1</ele>
        <time>2021-05-23T06:20:35Z</time>
      </trkpt>
      <trkpt lat="42.6305730" lon="-8.6448700">
        <ele>65.1</ele>
        <time>2021-05-23T06:20:36Z</time>
      </trkpt>
      <trkpt lat="42.6305740" lon="-8.6448700">
        <ele>65.1</ele>
        <time>2021-05-23T06:20:37Z</time>
      </trkpt>
      <trkpt lat="42.6305600" lon="-8.6448700">
        <ele>65.1</ele>
        <time>2021-05-23T06:20:38Z</time>
      </trkpt>
      <trkpt lat="42.6305560" lon="-8.6448650">
        <ele>65.1</ele>
        <time>2021-05-23T06:20:39Z</time>
      </trkpt>
      <trkpt lat="42.6305500" lon="-8.6448600">
        <ele>65.2</ele>
        <time>2021-05-23T06:20:40Z</time>
      </trkpt>
      <trkpt lat="42.6305520" lon="-8.6448650">
        <ele>65.2</ele>
        <time>2021-05-23T06:20:41Z</time>
      </trkpt>
      <trkpt lat="42.6305610" lon="-8.6448660">
        <ele>65.2</ele>
        <time>2021-05-23T06:20:42Z</time>
      </trkpt>
      <trkpt lat="42.6305690" lon="-8.6448650">
        <ele>65.2</ele>
        <time>2021-05-23T06:20:43Z</time>
      </trkpt>
      <trkpt lat="42.6305700" lon="-8.6448650">
        <ele>65.2</ele>
        <time>2021-05-23T06:20:44Z</time>
      </trkpt>
      <trkpt lat="42.6305700" lon="-8.6448610">
        <ele>65.2</ele>
        <time>2021-05-23T06:20:45Z</time>
      </trkpt>
      <trkpt lat="42.6305760" lon="-8.6448650">
        <ele>65.2</ele>
        <time>2021-05-23T06:20:46Z</time>
      </trkpt>
      <trkpt lat="42.6305750" lon="-8.6448750">
        <ele>65.3</ele>
        <time>2021-05-23T06:20:47Z</time>
      </trkpt>
      <trkpt lat="42.6305790" lon="-8.6448820">
        <ele>65.3</ele>
        <time>2021-05-23T06:20:48Z</time>
      </trkpt>
      <trkpt lat="42.6305780" lon="-8.6448870">
        <ele>65.3</ele>
        <time>2021-05-23T06:20:49Z</time>
      </trkpt>
      <trkpt lat="42.6305850" lon="-8.6448850">
        <ele>65.3</ele>
        <time>2021-05-23T06:20:50Z</time>
      </trkpt>
      <trkpt lat="42.6305840" lon="-8.6448800">
        <ele>65.3</ele>
        <time>2021-05-23T06:20:51Z</time>
      </trkpt>
      <trkpt lat="42.6305810" lon="-8.6448660">
        <ele>65.3</ele>
        <time>2021-05-23T06:20:52Z</time>
      </trkpt>
      <trkpt lat="42.6305690" lon="-8.6448640">
        <ele>65.4</ele>
        <time>2021-05-23T06:20:53Z</time>
      </trkpt>
      <trkpt lat="42.6305540" lon="-8.6448640">
        <ele>65.4</ele>
        <time>2021-05-23T06:20:54Z</time>
      </trkpt>
      <trkpt lat="42.6305450" lon="-8.6448580">
        <ele>65.4</ele>
        <time>2021-05-23T06:20:55Z</time>
      </trkpt>
      <trkpt lat="42.6305390" lon="-8.6448620">
        <ele>65.4</ele>
        <time>2021-05-23T06:20:56Z</time>
      </trkpt>
      <trkpt lat="42.6305340" lon="-8.6448630">
        <ele>65.4</ele>
        <time>2021-05-23T06:20:57Z</time>
      </trkpt>
      <trkpt lat="42.6305300" lon="-8.6448590">
        <ele>65.5</ele>
        <time>2021-05-23T06:20:58Z</time>
      </trkpt>
      <trkpt lat="42.6305360" lon="-8.6448530">
        <ele>65.5</ele>
        <time>2021-05-23T06:20:59Z</time>
      </trkpt>
      <trkpt lat="42.6305400" lon="-8.6448560">
        <ele>65.5</ele>
        <time>2021-05-23T06:21:00Z</time>
      </trkpt>
      <trkpt lat="42.6305370" lon="-8.6448540">
        <ele>65.5</ele>
        <time>2021-05-23T06:21:01Z</time>
      </trkpt>
      <trkpt lat="42.6305320" lon="-8.6448560">
        <ele>65.5</ele>
        <time>2021-05-23T06:21:02Z</time>
      </trkpt>
      <trkpt lat="42.6305320" lon="-8.6448500">
        <ele>65.5</ele>
        <time>2021-05-23T06:21:03Z</time>
      </trkpt>
      <trkpt lat="42.6305320" lon="-8.6448510">
        <ele>65.5</ele>
        <time>2021-05-23T06:21:04Z</time>
      </trkpt>
      <trkpt lat="42.6305300" lon="-8.6448550">
        <ele>65.5</ele>
        <time>2021-05-23T06:21:05Z</time>
      </trkpt>
      <trkpt lat="42.6305380" lon="-8.6448620">
        <ele>65.6</ele>
        <time>2021-05-23T06:21:06Z</time>
      </trkpt>
      <trkpt lat="42.6305380" lon="-8.6448620">
        <ele>65.6</ele>
        <time>2021-05-23T06:21:07Z</time>
      </trkpt>
      <trkpt lat="42.6305490" lon="-8.6448740">
        <ele>65.6</ele>
        <time>2021-05-23T06:21:08Z</time>
      </trkpt>
      <trkpt lat="42.6305540" lon="-8.6448780">
        <ele>65.6</ele>
        <time>2021-05-23T06:21:09Z</time>
      </trkpt>
      <trkpt lat="42.6305590" lon="-8.6448890">
        <ele>65.6</ele>
        <time>2021-05-23T06:21:10Z</time>
      </trkpt>
      <trkpt lat="42.6305590" lon="-8.6448890">
        <ele>65.6</ele>
        <time>2021-05-23T06:21:11Z</time>
      </trkpt>
      <trkpt lat="42.6305590" lon="-8.6448890">
        <ele>65.6</ele>
        <time>2021-05-23T06:21:12Z</time>
      </trkpt>
      <trkpt lat="42.6305620" lon="-8.6448940">
        <ele>65.7</ele>
        <time>2021-05-23T06:21:13Z</time>
      </trkpt>
      <trkpt lat="42.6305610" lon="-8.6448930">
        <ele>65.7</ele>
        <time>2021-05-23T06:21:14Z</time>
      </trkpt>
      <trkpt lat="42.6305640" lon="-8.6448960">
        <ele>65.7</ele>
        <time>2021-05-23T06:21:15Z</time>
      </trkpt>
      <trkpt lat="42.6305720" lon="-8.6449030">
        <ele>65.7</ele>
        <time>2021-05-23T06:21:16Z</time>
      </trkpt>
      <trkpt lat="42.6305720" lon="-8.6449030">
        <ele>65.7</ele>
        <time>2021-05-23T06:21:17Z</time>
      </trkpt>
      <trkpt lat="42.6305790" lon="-8.6449040">
        <ele>65.7</ele>
        <time>2021-05-23T06:21:18Z</time>
      </trkpt>
      <trkpt lat="42.6305790" lon="-8.6449040">
        <ele>65.7</ele>
        <time>2021-05-23T06:21:19Z</time>
      </trkpt>
      <trkpt lat="42.6305830" lon="-8.6449040">
        <ele>65.7</ele>
        <time>2021-05-23T06:21:20Z</time>
      </trkpt>
      <trkpt lat="42.6305770" lon="-8.6448920">
        <ele>65.8</ele>
        <time>2021-05-23T06:21:21Z</time>
      </trkpt>
      <trkpt lat="42.6305770" lon="-8.6448920">
        <ele>65.8</ele>
        <time>2021-05-23T06:21:22Z</time>
      </trkpt>
      <trkpt lat="42.6305800" lon="-8.6448690">
        <ele>65.8</ele>
        <time>2021-05-23T06:21:23Z</time>
      </trkpt>
      <trkpt lat="42.6305800" lon="-8.6448690">
        <ele>65.8</ele>
        <time>2021-05-23T06:21:24Z</time>
      </trkpt>
      <trkpt lat="42.6305840" lon="-8.6448640">
        <ele>65.8</ele>
        <time>2021-05-23T06:21:25Z</time>
      </trkpt>
      <trkpt lat="42.6305830" lon="-8.6448590">
        <ele>65.8</ele>
        <time>2021-05-23T06:21:26Z</time>
      </trkpt>
      <trkpt lat="42.6305830" lon="-8.6448590">
        <ele>65.8</ele>
        <time>2021-05-23T06:21:27Z</time>
      </trkpt>
      <trkpt lat="42.6305820" lon="-8.6448660">
        <ele>65.8</ele>
        <time>2021-05-23T06:21:28Z</time>
      </trkpt>
      <trkpt lat="42.6305810" lon="-8.6448680">
        <ele>65.8</ele>
        <time>2021-05-23T06:21:29Z</time>
      </trkpt>
      <trkpt lat="42.6305810" lon="-8.6448680">
        <ele>65.8</ele>
        <time>2021-05-23T06:21:30Z</time>
      </trkpt>
      <trkpt lat="42.6305810" lon="-8.6448680">
        <ele>65.8</ele>
        <time>2021-05-23T06:21:31Z</time>
      </trkpt>
      <trkpt lat="42.6305800" lon="-8.6448610">
        <ele>65.9</ele>
        <time>2021-05-23T06:21:32Z</time>
      </trkpt>
      <trkpt lat="42.6305830" lon="-8.6448670">
        <ele>65.9</ele>
        <time>2021-05-23T06:21:33Z</time>
      </trkpt>
      <trkpt lat="42.6305790" lon="-8.6448690">
        <ele>65.9</ele>
        <time>2021-05-23T06:21:34Z</time>
      </trkpt>
      <trkpt lat="42.6305750" lon="-8.6448740">
        <ele>65.9</ele>
        <time>2021-05-23T06:21:35Z</time>
      </trkpt>
      <trkpt lat="42.6305620" lon="-8.6448680">
        <ele>66.0</ele>
        <time>2021-05-23T06:21:36Z</time>
      </trkpt>
      <trkpt lat="42.6305710" lon="-8.6448780">
        <ele>66.0</ele>
        <time>2021-05-23T06:21:37Z</time>
      </trkpt>
      <trkpt lat="42.6305730" lon="-8.6448770">
        <ele>66.0</ele>
        <time>2021-05-23T06:21:38Z</time>
      </trkpt>
      <trkpt lat="42.6305700" lon="-8.6448730">
        <ele>66.0</ele>
        <time>2021-05-23T06:21:39Z</time>
      </trkpt>
      <trkpt lat="42.6305740" lon="-8.6448680">
        <ele>66.0</ele>
        <time>2021-05-23T06:21:40Z</time>
      </trkpt>
      <trkpt lat="42.6305650" lon="-8.6448600">
        <ele>66.1</ele>
        <time>2021-05-23T06:21:41Z</time>
      </trkpt>
      <trkpt lat="42.6305550" lon="-8.6448530">
        <ele>66.1</ele>
        <time>2021-05-23T06:21:42Z</time>
      </trkpt>
      <trkpt lat="42.6305520" lon="-8.6448470">
        <ele>66.1</ele>
        <time>2021-05-23T06:21:43Z</time>
      </trkpt>
      <trkpt lat="42.6305500" lon="-8.6448330">
        <ele>66.2</ele>
        <time>2021-05-23T06:21:44Z</time>
      </trkpt>
      <trkpt lat="42.6305490" lon="-8.6448290">
        <ele>66.2</ele>
        <time>2021-05-23T06:21:45Z</time>
      </trkpt>
      <trkpt lat="42.6305470" lon="-8.6448380">
        <ele>66.2</ele>
        <time>2021-05-23T06:21:46Z</time>
      </trkpt>
      <trkpt lat="42.6305480" lon="-8.6448400">
        <ele>66.2</ele>
        <time>2021-05-23T06:21:47Z</time>
      </trkpt>
      <trkpt lat="42.6305480" lon="-8.6448310">
        <ele>66.2</ele>
        <time>2021-05-23T06:21:48Z</time>
      </trkpt>
      <trkpt lat="42.6305450" lon="-8.6448330">
        <ele>66.2</ele>
        <time>2021-05-23T06:21:49Z</time>
      </trkpt>
      <trkpt lat="42.6305410" lon="-8.6448330">
        <ele>66.3</ele>
        <time>2021-05-23T06:21:50Z</time>
      </trkpt>
      <trkpt lat="42.6305400" lon="-8.6448330">
        <ele>66.3</ele>
        <time>2021-05-23T06:21:51Z</time>
      </trkpt>
      <trkpt lat="42.6305400" lon="-8.6448330">
        <ele>66.3</ele>
        <time>2021-05-23T06:21:52Z</time>
      </trkpt>
      <trkpt lat="42.6305400" lon="-8.6448330">
        <ele>66.3</ele>
        <time>2021-05-23T06:21:53Z</time>
      </trkpt>
      <trkpt lat="42.6305370" lon="-8.6448160">
        <ele>66.3</ele>
        <time>2021-05-23T06:21:54Z</time>
      </trkpt>
      <trkpt lat="42.6305390" lon="-8.6448090">
        <ele>66.3</ele>
        <time>2021-05-23T06:21:55Z</time>
      </trkpt>
      <trkpt lat="42.6305440" lon="-8.6448010">
        <ele>66.4</ele>
        <time>2021-05-23T06:21:56Z</time>
      </trkpt>
      <trkpt lat="42.6305420" lon="-8.6448010">
        <ele>66.4</ele>
        <time>2021-05-23T06:21:57Z</time>
      </trkpt>
      <trkpt lat="42.6305310" lon="-8.6448030">
        <ele>66.4</ele>
        <time>2021-05-23T06:21:58Z</time>
      </trkpt>
      <trkpt lat="42.6305230" lon="-8.6448090">
        <ele>66.4</ele>
        <time>2021-05-23T06:21:59Z</time>
      </trkpt>
      <trkpt lat="42.6305260" lon="-8.6448170">
        <ele>66.5</ele>
        <time>2021-05-23T06:22:00Z</time>
      </trkpt>
      <trkpt lat="42.6305290" lon="-8.6448140">
        <ele>66.5</ele>
        <time>2021-05-23T06:22:01Z</time>
      </trkpt>
      <trkpt lat="42.6305270" lon="-8.6448160">
        <ele>66.5</ele>
        <time>2021-05-23T06:22:02Z</time>
      </trkpt>
      <trkpt lat="42.6305230" lon="-8.6448260">
        <ele>66.5</ele>
        <time>2021-05-23T06:22:03Z</time>
      </trkpt>
      <trkpt lat="42.6305210" lon="-8.6448310">
        <ele>66.5</ele>
        <time>2021-05-23T06:22:04Z</time>
      </trkpt>
      <trkpt lat="42.6305220" lon="-8.6448350">
        <ele>66.6</ele>
        <time>2021-05-23T06:22:05Z</time>
      </trkpt>
      <trkpt lat="42.6305320" lon="-8.6448420">
        <ele>66.6</ele>
        <time>2021-05-23T06:22:06Z</time>
      </trkpt>
      <trkpt lat="42.6305380" lon="-8.6448430">
        <ele>66.6</ele>
        <time>2021-05-23T06:22:07Z</time>
      </trkpt>
      <trkpt lat="42.6305380" lon="-8.6448500">
        <ele>66.6</ele>
        <time>2021-05-23T06:22:08Z</time>
      </trkpt>
      <trkpt lat="42.6305460" lon="-8.6448580">
        <ele>66.7</ele>
        <time>2021-05-23T06:22:09Z</time>
      </trkpt>
      <trkpt lat="42.6305500" lon="-8.6448570">
        <ele>66.7</ele>
        <time>2021-05-23T06:22:10Z</time>
      </trkpt>
      <trkpt lat="42.6305450" lon="-8.6448530">
        <ele>66.7</ele>
        <time>2021-05-23T06:22:11Z</time>
      </trkpt>
      <trkpt lat="42.6305430" lon="-8.6448530">
        <ele>66.7</ele>
        <time>2021-05-23T06:22:12Z</time>
      </trkpt>
      <trkpt lat="42.6305600" lon="-8.6448510">
        <ele>66.8</ele>
        <time>2021-05-23T06:22:13Z</time>
      </trkpt>
      <trkpt lat="42.6305660" lon="-8.6448410">
        <ele>66.8</ele>
        <time>2021-05-23T06:22:14Z</time>
      </trkpt>
      <trkpt lat="42.6305720" lon="-8.6448420">
        <ele>66.9</ele>
        <time>2021-05-23T06:22:15Z</time>
      </trkpt>
      <trkpt lat="42.6305940" lon="-8.6448110">
        <ele>67.0</ele>
        <time>2021-05-23T06:22:16Z</time>
      </trkpt>
      <trkpt lat="42.6306030" lon="-8.6448030">
        <ele>67.0</ele>
        <time>2021-05-23T06:22:17Z</time>
      </trkpt>
      <trkpt lat="42.6306140" lon="-8.6447930">
        <ele>67.1</ele>
        <time>2021-05-23T06:22:18Z</time>
      </trkpt>
      <trkpt lat="42.6306140" lon="-8.6447860">
        <ele>67.1</ele>
        <time>2021-05-23T06:22:19Z</time>
      </trkpt>
      <trkpt lat="42.6306130" lon="-8.6447800">
        <ele>67.1</ele>
        <time>2021-05-23T06:22:20Z</time>
      </trkpt>
      <trkpt lat="42.6306150" lon="-8.6447790">
        <ele>67.1</ele>
        <time>2021-05-23T06:22:21Z</time>
      </trkpt>
      <trkpt lat="42.6306180" lon="-8.6447790">
        <ele>67.1</ele>
        <time>2021-05-23T06:22:22Z</time>
      </trkpt>
      <trkpt lat="42.6306230" lon="-8.6447740">
        <ele>67.2</ele>
        <time>2021-05-23T06:22:23Z</time>
      </trkpt>
      <trkpt lat="42.6306200" lon="-8.6447700">
        <ele>67.2</ele>
        <time>2021-05-23T06:22:24Z</time>
      </trkpt>
      <trkpt lat="42.6306230" lon="-8.6447650">
        <ele>67.2</ele>
        <time>2021-05-23T06:22:25Z</time>
      </trkpt>
      <trkpt lat="42.6306310" lon="-8.6447690">
        <ele>67.2</ele>
        <time>2021-05-23T06:22:26Z</time>
      </trkpt>
      <trkpt lat="42.6306370" lon="-8.6447670">
        <ele>67.2</ele>
        <time>2021-05-23T06:22:27Z</time>
      </trkpt>
      <trkpt lat="42.6306400" lon="-8.6447710">
        <ele>67.3</ele>
        <time>2021-05-23T06:22:28Z</time>
      </trkpt>
      <trkpt lat="42.6306420" lon="-8.6447620">
        <ele>67.3</ele>
        <time>2021-05-23T06:22:29Z</time>
      </trkpt>
      <trkpt lat="42.6306550" lon="-8.6447550">
        <ele>67.3</ele>
        <time>2021-05-23T06:22:30Z</time>
      </trkpt>
      <trkpt lat="42.6306660" lon="-8.6447460">
        <ele>67.4</ele>
        <time>2021-05-23T06:22:31Z</time>
      </trkpt>
      <trkpt lat="42.6306700" lon="-8.6447390">
        <ele>67.4</ele>
        <time>2021-05-23T06:22:32Z</time>
      </trkpt>
      <trkpt lat="42.6306830" lon="-8.6447350">
        <ele>67.5</ele>
        <time>2021-05-23T06:22:33Z</time>
      </trkpt>
      <trkpt lat="42.6306970" lon="-8.6447140">
        <ele>67.5</ele>
        <time>2021-05-23T06:22:34Z</time>
      </trkpt>
      <trkpt lat="42.6307030" lon="-8.6447030">
        <ele>67.6</ele>
        <time>2021-05-23T06:22:35Z</time>
      </trkpt>
      <trkpt lat="42.6307080" lon="-8.6446920">
        <ele>67.6</ele>
        <time>2021-05-23T06:22:36Z</time>
      </trkpt>
      <trkpt lat="42.6307120" lon="-8.6446810">
        <ele>67.7</ele>
        <time>2021-05-23T06:22:37Z</time>
      </trkpt>
      <trkpt lat="42.6307160" lon="-8.6446670">
        <ele>67.7</ele>
        <time>2021-05-23T06:22:38Z</time>
      </trkpt>
      <trkpt lat="42.6307250" lon="-8.6446560">
        <ele>67.8</ele>
        <time>2021-05-23T06:22:39Z</time>
      </trkpt>
      <trkpt lat="42.6307370" lon="-8.6446450">
        <ele>67.8</ele>
        <time>2021-05-23T06:22:40Z</time>
      </trkpt>
      <trkpt lat="42.6307460" lon="-8.6446410">
        <ele>67.9</ele>
        <time>2021-05-23T06:22:41Z</time>
      </trkpt>
      <trkpt lat="42.6307570" lon="-8.6446380">
        <ele>67.9</ele>
        <time>2021-05-23T06:22:42Z</time>
      </trkpt>
      <trkpt lat="42.6307670" lon="-8.6446390">
        <ele>67.9</ele>
        <time>2021-05-23T06:22:43Z</time>
      </trkpt>
      <trkpt lat="42.6307790" lon="-8.6446300">
        <ele>68.0</ele>
        <time>2021-05-23T06:22:44Z</time>
      </trkpt>
      <trkpt lat="42.6307810" lon="-8.6446200">
        <ele>68.0</ele>
        <time>2021-05-23T06:22:45Z</time>
      </trkpt>
      <trkpt lat="42.6307970" lon="-8.6446230">
        <ele>68.1</ele>
        <time>2021-05-23T06:22:46Z</time>
      </trkpt>
      <trkpt lat="42.6308010" lon="-8.6446130">
        <ele>68.1</ele>
        <time>2021-05-23T06:22:47Z</time>
      </trkpt>
      <trkpt lat="42.6308140" lon="-8.6446070">
        <ele>68.2</ele>
        <time>2021-05-23T06:22:48Z</time>
      </trkpt>
      <trkpt lat="42.6308220" lon="-8.6446030">
        <ele>68.2</ele>
        <time>2021-05-23T06:22:49Z</time>
      </trkpt>
      <trkpt lat="42.6308360" lon="-8.6445970">
        <ele>68.3</ele>
        <time>2021-05-23T06:22:50Z</time>
      </trkpt>
      <trkpt lat="42.6308460" lon="-8.6445940">
        <ele>68.4</ele>
        <time>2021-05-23T06:22:51Z</time>
      </trkpt>
      <trkpt lat="42.6308610" lon="-8.6445880">
        <ele>68.4</ele>
        <time>2021-05-23T06:22:52Z</time>
      </trkpt>
      <trkpt lat="42.6308760" lon="-8.6445800">
        <ele>68.5</ele>
        <time>2021-05-23T06:22:53Z</time>
      </trkpt>
      <trkpt lat="42.6308950" lon="-8.6445720">
        <ele>68.6</ele>
        <time>2021-05-23T06:22:54Z</time>
      </trkpt>
      <trkpt lat="42.6309060" lon="-8.6445730">
        <ele>68.6</ele>
        <time>2021-05-23T06:22:55Z</time>
      </trkpt>
      <trkpt lat="42.6309160" lon="-8.6445740">
        <ele>68.7</ele>
        <time>2021-05-23T06:22:56Z</time>
      </trkpt>
      <trkpt lat="42.6309280" lon="-8.6445710">
        <ele>68.7</ele>
        <time>2021-05-23T06:22:57Z</time>
      </trkpt>
      <trkpt lat="42.6309380" lon="-8.6445710">
        <ele>68.8</ele>
        <time>2021-05-23T06:22:58Z</time>
      </trkpt>
      <trkpt lat="42.6309460" lon="-8.6445610">
        <ele>68.8</ele>
        <time>2021-05-23T06:22:59Z</time>
      </trkpt>
      <trkpt lat="42.6309670" lon="-8.6445660">
        <ele>68.9</ele>
        <time>2021-05-23T06:23:00Z</time>
      </trkpt>
      <trkpt lat="42.6309750" lon="-8.6445660">
        <ele>69.0</ele>
        <time>2021-05-23T06:23:01Z</time>
      </trkpt>
      <trkpt lat="42.6309820" lon="-8.6445670">
        <ele>69.0</ele>
        <time>2021-05-23T06:23:02Z</time>
      </trkpt>
      <trkpt lat="42.6309900" lon="-8.6445680">
        <ele>69.0</ele>
        <time>2021-05-23T06:23:03Z</time>
      </trkpt>
      <trkpt lat="42.6310120" lon="-8.6445680">
        <ele>69.2</ele>
        <time>2021-05-23T06:23:04Z</time>
      </trkpt>
      <trkpt lat="42.6310210" lon="-8.6445690">
        <ele>69.2</ele>
        <time>2021-05-23T06:23:05Z</time>
      </trkpt>
      <trkpt lat="42.6310290" lon="-8.6445710">
        <ele>69.2</ele>
        <time>2021-05-23T06:23:06Z</time>
      </trkpt>
      <trkpt lat="42.6310370" lon="-8.6445730">
        <ele>69.3</ele>
        <time>2021-05-23T06:23:07Z</time>
      </trkpt>
      <trkpt lat="42.6310380" lon="-8.6445680">
        <ele>69.3</ele>
        <time>2021-05-23T06:23:08Z</time>
      </trkpt>
      <trkpt lat="42.6310450" lon="-8.6445630">
        <ele>69.3</ele>
        <time>2021-05-23T06:23:09Z</time>
      </trkpt>
      <trkpt lat="42.6310490" lon="-8.6445560">
        <ele>69.4</ele>
        <time>2021-05-23T06:23:10Z</time>
      </trkpt>
      <trkpt lat="42.6310620" lon="-8.6445560">
        <ele>69.4</ele>
        <time>2021-05-23T06:23:11Z</time>
      </trkpt>
      <trkpt lat="42.6310700" lon="-8.6445550">
        <ele>69.4</ele>
        <time>2021-05-23T06:23:12Z</time>
      </trkpt>
      <trkpt lat="42.6310820" lon="-8.6445580">
        <ele>69.5</ele>
        <time>2021-05-23T06:23:13Z</time>
      </trkpt>
      <trkpt lat="42.6310830" lon="-8.6445550">
        <ele>69.5</ele>
        <time>2021-05-23T06:23:14Z</time>
      </trkpt>
      <trkpt lat="42.6310940" lon="-8.6445490">
        <ele>69.6</ele>
        <time>2021-05-23T06:23:15Z</time>
      </trkpt>
      <trkpt lat="42.6310900" lon="-8.6445540">
        <ele>69.6</ele>
        <time>2021-05-23T06:23:16Z</time>
      </trkpt>
      <trkpt lat="42.6311070" lon="-8.6445630">
        <ele>69.7</ele>
        <time>2021-05-23T06:23:17Z</time>
      </trkpt>
      <trkpt lat="42.6311230" lon="-8.6445710">
        <ele>69.8</ele>
        <time>2021-05-23T06:23:18Z</time>
      </trkpt>
      <trkpt lat="42.6311310" lon="-8.6445740">
        <ele>69.8</ele>
        <time>2021-05-23T06:23:19Z</time>
      </trkpt>
      <trkpt lat="42.6311360" lon="-8.6445780">
        <ele>69.9</ele>
        <time>2021-05-23T06:23:20Z</time>
      </trkpt>
      <trkpt lat="42.6311480" lon="-8.6445790">
        <ele>69.9</ele>
        <time>2021-05-23T06:23:21Z</time>
      </trkpt>
      <trkpt lat="42.6311540" lon="-8.6445840">
        <ele>70.0</ele>
        <time>2021-05-23T06:23:22Z</time>
      </trkpt>
      <trkpt lat="42.6311630" lon="-8.6445830">
        <ele>70.0</ele>
        <time>2021-05-23T06:23:23Z</time>
      </trkpt>
      <trkpt lat="42.6311770" lon="-8.6445820">
        <ele>70.1</ele>
        <time>2021-05-23T06:23:24Z</time>
      </trkpt>
      <trkpt lat="42.6311910" lon="-8.6445830">
        <ele>70.1</ele>
        <time>2021-05-23T06:23:25Z</time>
      </trkpt>
      <trkpt lat="42.6312010" lon="-8.6445820">
        <ele>70.2</ele>
        <time>2021-05-23T06:23:26Z</time>
      </trkpt>
      <trkpt lat="42.6312050" lon="-8.6445820">
        <ele>70.2</ele>
        <time>2021-05-23T06:23:27Z</time>
      </trkpt>
      <trkpt lat="42.6312210" lon="-8.6445840">
        <ele>70.3</ele>
        <time>2021-05-23T06:23:28Z</time>
      </trkpt>
      <trkpt lat="42.6312380" lon="-8.6445900">
        <ele>70.4</ele>
        <time>2021-05-23T06:23:29Z</time>
      </trkpt>
      <trkpt lat="42.6312530" lon="-8.6445890">
        <ele>70.5</ele>
        <time>2021-05-23T06:23:30Z</time>
      </trkpt>
      <trkpt lat="42.6312690" lon="-8.6445840">
        <ele>70.6</ele>
        <time>2021-05-23T06:23:31Z</time>
      </trkpt>
      <trkpt lat="42.6312810" lon="-8.6445820">
        <ele>70.6</ele>
        <time>2021-05-23T06:23:32Z</time>
      </trkpt>
      <trkpt lat="42.6312960" lon="-8.6445830">
        <ele>70.7</ele>
        <time>2021-05-23T06:23:33Z</time>
      </trkpt>
      <trkpt lat="42.6313070" lon="-8.6445760">
        <ele>70.8</ele>
        <time>2021-05-23T06:23:34Z</time>
      </trkpt>
      <trkpt lat="42.6313110" lon="-8.6445700">
        <ele>70.8</ele>
        <time>2021-05-23T06:23:35Z</time>
      </trkpt>
      <trkpt lat="42.6313330" lon="-8.6445690">
        <ele>70.9</ele>
        <time>2021-05-23T06:23:36Z</time>
      </trkpt>
      <trkpt lat="42.6313420" lon="-8.6445690">
        <ele>71.0</ele>
        <time>2021-05-23T06:23:37Z</time>
      </trkpt>
      <trkpt lat="42.6313520" lon="-8.6445680">
        <ele>71.0</ele>
        <time>2021-05-23T06:23:38Z</time>
      </trkpt>
      <trkpt lat="42.6313610" lon="-8.6445670">
        <ele>71.1</ele>
        <time>2021-05-23T06:23:39Z</time>
      </trkpt>
      <trkpt lat="42.6313700" lon="-8.6445620">
        <ele>71.1</ele>
        <time>2021-05-23T06:23:40Z</time>
      </trkpt>
      <trkpt lat="42.6313860" lon="-8.6445660">
        <ele>71.2</ele>
        <time>2021-05-23T06:23:41Z</time>
      </trkpt>
      <trkpt lat="42.6314040" lon="-8.6445590">
        <ele>71.3</ele>
        <time>2021-05-23T06:23:42Z</time>
      </trkpt>
      <trkpt lat="42.6314110" lon="-8.6445640">
        <ele>71.4</ele>
        <time>2021-05-23T06:23:43Z</time>
      </trkpt>
      <trkpt lat="42.6314220" lon="-8.6445610">
        <ele>71.4</ele>
        <time>2021-05-23T06:23:44Z</time>
      </trkpt>
      <trkpt lat="42.6314410" lon="-8.6445570">
        <ele>71.5</ele>
        <time>2021-05-23T06:23:45Z</time>
      </trkpt>
      <trkpt lat="42.6314500" lon="-8.6445560">
        <ele>71.6</ele>
        <time>2021-05-23T06:23:46Z</time>
      </trkpt>
      <trkpt lat="42.6314590" lon="-8.6445560">
        <ele>71.6</ele>
        <time>2021-05-23T06:23:47Z</time>
      </trkpt>
      <trkpt lat="42.6314720" lon="-8.6445510">
        <ele>71.7</ele>
        <time>2021-05-23T06:23:48Z</time>
      </trkpt>
      <trkpt lat="42.6314920" lon="-8.6445480">
        <ele>71.8</ele>
        <time>2021-05-23T06:23:49Z</time>
      </trkpt>
      <trkpt lat="42.6315100" lon="-8.6445550">
        <ele>71.9</ele>
        <time>2021-05-23T06:23:50Z</time>
      </trkpt>
      <trkpt lat="42.6315160" lon="-8.6445540">
        <ele>71.9</ele>
        <time>2021-05-23T06:23:51Z</time>
      </trkpt>
      <trkpt lat="42.6315270" lon="-8.6445520">
        <ele>71.9</ele>
        <time>2021-05-23T06:23:52Z</time>
      </trkpt>
      <trkpt lat="42.6315410" lon="-8.6445500">
        <ele>72.0</ele>
        <time>2021-05-23T06:23:53Z</time>
      </trkpt>
      <trkpt lat="42.6315460" lon="-8.6445470">
        <ele>72.0</ele>
        <time>2021-05-23T06:23:54Z</time>
      </trkpt>
      <trkpt lat="42.6315590" lon="-8.6445460">
        <ele>72.1</ele>
        <time>2021-05-23T06:23:55Z</time>
      </trkpt>
      <trkpt lat="42.6315710" lon="-8.6445490">
        <ele>72.1</ele>
        <time>2021-05-23T06:23:56Z</time>
      </trkpt>
      <trkpt lat="42.6315760" lon="-8.6445470">
        <ele>72.1</ele>
        <time>2021-05-23T06:23:57Z</time>
      </trkpt>
      <trkpt lat="42.6315880" lon="-8.6445460">
        <ele>72.2</ele>
        <time>2021-05-23T06:23:58Z</time>
      </trkpt>
      <trkpt lat="42.6316050" lon="-8.6445410">
        <ele>72.2</ele>
        <time>2021-05-23T06:23:59Z</time>
      </trkpt>
      <trkpt lat="42.6316130" lon="-8.6445380">
        <ele>72.3</ele>
        <time>2021-05-23T06:24:00Z</time>
      </trkpt>
      <trkpt lat="42.6316210" lon="-8.6445340">
        <ele>72.3</ele>
        <time>2021-05-23T06:24:01Z</time>
      </trkpt>
      <trkpt lat="42.6316290" lon="-8.6445310">
        <ele>72.3</ele>
        <time>2021-05-23T06:24:02Z</time>
      </trkpt>
      <trkpt lat="42.6316490" lon="-8.6445300">
        <ele>72.4</ele>
        <time>2021-05-23T06:24:03Z</time>
      </trkpt>
      <trkpt lat="42.6316610" lon="-8.6445300">
        <ele>72.4</ele>
        <time>2021-05-23T06:24:04Z</time>
      </trkpt>
      <trkpt lat="42.6316730" lon="-8.6445300">
        <ele>72.5</ele>
        <time>2021-05-23T06:24:05Z</time>
      </trkpt>
      <trkpt lat="42.6316890" lon="-8.6445280">
        <ele>72.5</ele>
        <time>2021-05-23T06:24:06Z</time>
      </trkpt>
      <trkpt lat="42.6316910" lon="-8.6445220">
        <ele>72.5</ele>
        <time>2021-05-23T06:24:07Z</time>
      </trkpt>
      <trkpt lat="42.6316950" lon="-8.6445210">
        <ele>72.5</ele>
        <time>2021-05-23T06:24:08Z</time>
      </trkpt>
      <trkpt lat="42.6317050" lon="-8.6445260">
        <ele>72.6</ele>
        <time>2021-05-23T06:24:09Z</time>
      </trkpt>
      <trkpt lat="42.6317200" lon="-8.6445250">
        <ele>72.6</ele>
        <time>2021-05-23T06:24:10Z</time>
      </trkpt>
      <trkpt lat="42.6317300" lon="-8.6445290">
        <ele>72.7</ele>
        <time>2021-05-23T06:24:11Z</time>
      </trkpt>
      <trkpt lat="42.6317400" lon="-8.6445270">
        <ele>72.7</ele>
        <time>2021-05-23T06:24:12Z</time>
      </trkpt>
      <trkpt lat="42.6317570" lon="-8.6445250">
        <ele>72.7</ele>
        <time>2021-05-23T06:24:13Z</time>
      </trkpt>
      <trkpt lat="42.6317750" lon="-8.6445290">
        <ele>72.8</ele>
        <time>2021-05-23T06:24:14Z</time>
      </trkpt>
      <trkpt lat="42.6317890" lon="-8.6445320">
        <ele>72.8</ele>
        <time>2021-05-23T06:24:15Z</time>
      </trkpt>
      <trkpt lat="42.6318060" lon="-8.6445370">
        <ele>72.9</ele>
        <time>2021-05-23T06:24:16Z</time>
      </trkpt>
      <trkpt lat="42.6318160" lon="-8.6445410">
        <ele>72.9</ele>
        <time>2021-05-23T06:24:17Z</time>
      </trkpt>
      <trkpt lat="42.6318300" lon="-8.6445480">
        <ele>73.0</ele>
        <time>2021-05-23T06:24:18Z</time>
      </trkpt>
      <trkpt lat="42.6318380" lon="-8.6445480">
        <ele>73.0</ele>
        <time>2021-05-23T06:24:19Z</time>
      </trkpt>
      <trkpt lat="42.6318490" lon="-8.6445510">
        <ele>73.0</ele>
        <time>2021-05-23T06:24:20Z</time>
      </trkpt>
      <trkpt lat="42.6318600" lon="-8.6445530">
        <ele>73.1</ele>
        <time>2021-05-23T06:24:21Z</time>
      </trkpt>
      <trkpt lat="42.6318700" lon="-8.6445520">
        <ele>73.1</ele>
        <time>2021-05-23T06:24:22Z</time>
      </trkpt>
      <trkpt lat="42.6318780" lon="-8.6445620">
        <ele>73.1</ele>
        <time>2021-05-23T06:24:23Z</time>
      </trkpt>
      <trkpt lat="42.6318940" lon="-8.6445720">
        <ele>73.2</ele>
        <time>2021-05-23T06:24:24Z</time>
      </trkpt>
      <trkpt lat="42.6319070" lon="-8.6445890">
        <ele>73.2</ele>
        <time>2021-05-23T06:24:25Z</time>
      </trkpt>
      <trkpt lat="42.6319120" lon="-8.6445920">
        <ele>73.2</ele>
        <time>2021-05-23T06:24:26Z</time>
      </trkpt>
      <trkpt lat="42.6319170" lon="-8.6446040">
        <ele>73.3</ele>
        <time>2021-05-23T06:24:27Z</time>
      </trkpt>
      <trkpt lat="42.6319310" lon="-8.6446240">
        <ele>73.3</ele>
        <time>2021-05-23T06:24:28Z</time>
      </trkpt>
      <trkpt lat="42.6319370" lon="-8.6446320">
        <ele>73.4</ele>
        <time>2021-05-23T06:24:29Z</time>
      </trkpt>
      <trkpt lat="42.6319420" lon="-8.6446330">
        <ele>73.4</ele>
        <time>2021-05-23T06:24:30Z</time>
      </trkpt>
      <trkpt lat="42.6319530" lon="-8.6446560">
        <ele>73.5</ele>
        <time>2021-05-23T06:24:31Z</time>
      </trkpt>
      <trkpt lat="42.6319640" lon="-8.6446660">
        <ele>73.5</ele>
        <time>2021-05-23T06:24:32Z</time>
      </trkpt>
      <trkpt lat="42.6319780" lon="-8.6446910">
        <ele>73.6</ele>
        <time>2021-05-23T06:24:33Z</time>
      </trkpt>
      <trkpt lat="42.6319830" lon="-8.6446980">
        <ele>73.6</ele>
        <time>2021-05-23T06:24:34Z</time>
      </trkpt>
      <trkpt lat="42.6319890" lon="-8.6447040">
        <ele>73.6</ele>
        <time>2021-05-23T06:24:35Z</time>
      </trkpt>
      <trkpt lat="42.6319940" lon="-8.6447050">
        <ele>73.6</ele>
        <time>2021-05-23T06:24:36Z</time>
      </trkpt>
      <trkpt lat="42.6320050" lon="-8.6447230">
        <ele>73.7</ele>
        <time>2021-05-23T06:24:37Z</time>
      </trkpt>
      <trkpt lat="42.6320110" lon="-8.6447280">
        <ele>73.7</ele>
        <time>2021-05-23T06:24:38Z</time>
      </trkpt>
      <trkpt lat="42.6320260" lon="-8.6447400">
        <ele>73.8</ele>
        <time>2021-05-23T06:24:39Z</time>
      </trkpt>
      <trkpt lat="42.6320320" lon="-8.6447450">
        <ele>73.8</ele>
        <time>2021-05-23T06:24:40Z</time>
      </trkpt>
      <trkpt lat="42.6320400" lon="-8.6447560">
        <ele>73.9</ele>
        <time>2021-05-23T06:24:41Z</time>
      </trkpt>
      <trkpt lat="42.6320440" lon="-8.6447630">
        <ele>73.9</ele>
        <time>2021-05-23T06:24:42Z</time>
      </trkpt>
      <trkpt lat="42.6320650" lon="-8.6447800">
        <ele>74.0</ele>
        <time>2021-05-23T06:24:43Z</time>
      </trkpt>
      <trkpt lat="42.6320840" lon="-8.6447990">
        <ele>74.0</ele>
        <time>2021-05-23T06:24:44Z</time>
      </trkpt>
      <trkpt lat="42.6320930" lon="-8.6447940">
        <ele>74.1</ele>
        <time>2021-05-23T06:24:45Z</time>
      </trkpt>
      <trkpt lat="42.6321000" lon="-8.6448170">
        <ele>74.1</ele>
        <time>2021-05-23T06:24:46Z</time>
      </trkpt>
      <trkpt lat="42.6321050" lon="-8.6448180">
        <ele>74.2</ele>
        <time>2021-05-23T06:24:47Z</time>
      </trkpt>
      <trkpt lat="42.6321110" lon="-8.6448280">
        <ele>74.2</ele>
        <time>2021-05-23T06:24:48Z</time>
      </trkpt>
      <trkpt lat="42.6321230" lon="-8.6448340">
        <ele>74.2</ele>
        <time>2021-05-23T06:24:49Z</time>
      </trkpt>
      <trkpt lat="42.6321320" lon="-8.6448280">
        <ele>74.2</ele>
        <time>2021-05-23T06:24:50Z</time>
      </trkpt>
      <trkpt lat="42.6321430" lon="-8.6448400">
        <ele>74.3</ele>
        <time>2021-05-23T06:24:51Z</time>
      </trkpt>
      <trkpt lat="42.6321470" lon="-8.6448430">
        <ele>74.3</ele>
        <time>2021-05-23T06:24:52Z</time>
      </trkpt>
      <trkpt lat="42.6321520" lon="-8.6448570">
        <ele>74.3</ele>
        <time>2021-05-23T06:24:53Z</time>
      </trkpt>
      <trkpt lat="42.6321560" lon="-8.6448680">
        <ele>74.4</ele>
        <time>2021-05-23T06:24:54Z</time>
      </trkpt>
      <trkpt lat="42.6321600" lon="-8.6448710">
        <ele>74.4</ele>
        <time>2021-05-23T06:24:55Z</time>
      </trkpt>
      <trkpt lat="42.6321670" lon="-8.6448950">
        <ele>74.4</ele>
        <time>2021-05-23T06:24:56Z</time>
      </trkpt>
      <trkpt lat="42.6321690" lon="-8.6449070">
        <ele>74.5</ele>
        <time>2021-05-23T06:24:57Z</time>
      </trkpt>
      <trkpt lat="42.6321670" lon="-8.6449150">
        <ele>74.5</ele>
        <time>2021-05-23T06:24:58Z</time>
      </trkpt>
      <trkpt lat="42.6321680" lon="-8.6449220">
        <ele>74.5</ele>
        <time>2021-05-23T06:24:59Z</time>
      </trkpt>
      <trkpt lat="42.6321790" lon="-8.6449440">
        <ele>74.5</ele>
        <time>2021-05-23T06:25:00Z</time>
      </trkpt>
      <trkpt lat="42.6321930" lon="-8.6449630">
        <ele>74.6</ele>
        <time>2021-05-23T06:25:01Z</time>
      </trkpt>
      <trkpt lat="42.6321990" lon="-8.6449680">
        <ele>74.6</ele>
        <time>2021-05-23T06:25:02Z</time>
      </trkpt>
      <trkpt lat="42.6322060" lon="-8.6449660">
        <ele>74.6</ele>
        <time>2021-05-23T06:25:03Z</time>
      </trkpt>
      <trkpt lat="42.6322020" lon="-8.6449780">
        <ele>74.7</ele>
        <time>2021-05-23T06:25:04Z</time>
      </trkpt>
      <trkpt lat="42.6322120" lon="-8.6450050">
        <ele>74.7</ele>
        <time>2021-05-23T06:25:05Z</time>
      </trkpt>
      <trkpt lat="42.6322200" lon="-8.6450190">
        <ele>74.7</ele>
        <time>2021-05-23T06:25:06Z</time>
      </trkpt>
      <trkpt lat="42.6322200" lon="-8.6450250">
        <ele>74.8</ele>
        <time>2021-05-23T06:25:07Z</time>
      </trkpt>
      <trkpt lat="42.6322330" lon="-8.6450370">
        <ele>74.8</ele>
        <time>2021-05-23T06:25:08Z</time>
      </trkpt>
      <trkpt lat="42.6322410" lon="-8.6450460">
        <ele>74.8</ele>
        <time>2021-05-23T06:25:09Z</time>
      </trkpt>
      <trkpt lat="42.6322480" lon="-8.6450640">
        <ele>74.8</ele>
        <time>2021-05-23T06:25:10Z</time>
      </trkpt>
      <trkpt lat="42.6322490" lon="-8.6450720">
        <ele>74.8</ele>
        <time>2021-05-23T06:25:11Z</time>
      </trkpt>
      <trkpt lat="42.6322660" lon="-8.6450890">
        <ele>74.9</ele>
        <time>2021-05-23T06:25:12Z</time>
      </trkpt>
      <trkpt lat="42.6322770" lon="-8.6450940">
        <ele>74.9</ele>
        <time>2021-05-23T06:25:13Z</time>
      </trkpt>
      <trkpt lat="42.6322890" lon="-8.6450990">
        <ele>74.9</ele>
        <time>2021-05-23T06:25:14Z</time>
      </trkpt>
      <trkpt lat="42.6322990" lon="-8.6451140">
        <ele>74.9</ele>
        <time>2021-05-23T06:25:15Z</time>
      </trkpt>
      <trkpt lat="42.6323060" lon="-8.6451250">
        <ele>75.0</ele>
        <time>2021-05-23T06:25:16Z</time>
      </trkpt>
      <trkpt lat="42.6323060" lon="-8.6451370">
        <ele>75.0</ele>
        <time>2021-05-23T06:25:17Z</time>
      </trkpt>
      <trkpt lat="42.6323220" lon="-8.6451660">
        <ele>75.0</ele>
        <time>2021-05-23T06:25:18Z</time>
      </trkpt>
      <trkpt lat="42.6323290" lon="-8.6451740">
        <ele>75.0</ele>
        <time>2021-05-23T06:25:19Z</time>
      </trkpt>
      <trkpt lat="42.6323440" lon="-8.6451870">
        <ele>75.0</ele>
        <time>2021-05-23T06:25:20Z</time>
      </trkpt>
      <trkpt lat="42.6323630" lon="-8.6451900">
        <ele>75.1</ele>
        <time>2021-05-23T06:25:21Z</time>
      </trkpt>
      <trkpt lat="42.6323910" lon="-8.6452130">
        <ele>75.1</ele>
        <time>2021-05-23T06:25:22Z</time>
      </trkpt>
      <trkpt lat="42.6323980" lon="-8.6452170">
        <ele>75.1</ele>
        <time>2021-05-23T06:25:23Z</time>
      </trkpt>
      <trkpt lat="42.6324110" lon="-8.6452260">
        <ele>75.1</ele>
        <time>2021-05-23T06:25:24Z</time>
      </trkpt>
      <trkpt lat="42.6324280" lon="-8.6452280">
        <ele>75.1</ele>
        <time>2021-05-23T06:25:25Z</time>
      </trkpt>
      <trkpt lat="42.6324370" lon="-8.6452380">
        <ele>75.1</ele>
        <time>2021-05-23T06:25:26Z</time>
      </trkpt>
      <trkpt lat="42.6324460" lon="-8.6452370">
        <ele>75.1</ele>
        <time>2021-05-23T06:25:27Z</time>
      </trkpt>
      <trkpt lat="42.6324590" lon="-8.6452380">
        <ele>75.1</ele>
        <time>2021-05-23T06:25:28Z</time>
      </trkpt>
      <trkpt lat="42.6324690" lon="-8.6452350">
        <ele>75.1</ele>
        <time>2021-05-23T06:25:29Z</time>
      </trkpt>
      <trkpt lat="42.6324800" lon="-8.6452300">
        <ele>75.1</ele>
        <time>2021-05-23T06:25:30Z</time>
      </trkpt>
      <trkpt lat="42.6324850" lon="-8.6452340">
        <ele>75.1</ele>
        <time>2021-05-23T06:25:31Z</time>
      </trkpt>
      <trkpt lat="42.6324900" lon="-8.6452350">
        <ele>75.1</ele>
        <time>2021-05-23T06:25:32Z</time>
      </trkpt>
      <trkpt lat="42.6324970" lon="-8.6452340">
        <ele>75.1</ele>
        <time>2021-05-23T06:25:33Z</time>
      </trkpt>
      <trkpt lat="42.6325090" lon="-8.6452320">
        <ele>75.1</ele>
        <time>2021-05-23T06:25:34Z</time>
      </trkpt>
      <trkpt lat="42.6325200" lon="-8.6452330">
        <ele>75.1</ele>
        <time>2021-05-23T06:25:35Z</time>
      </trkpt>
      <trkpt lat="42.6325380" lon="-8.6452380">
        <ele>75.2</ele>
        <time>2021-05-23T06:25:36Z</time>
      </trkpt>
      <trkpt lat="42.6325450" lon="-8.6452410">
        <ele>75.2</ele>
        <time>2021-05-23T06:25:37Z</time>
      </trkpt>
      <trkpt lat="42.6325520" lon="-8.6452390">
        <ele>75.2</ele>
        <time>2021-05-23T06:25:38Z</time>
      </trkpt>
      <trkpt lat="42.6325560" lon="-8.6452410">
        <ele>75.2</ele>
        <time>2021-05-23T06:25:39Z</time>
      </trkpt>
      <trkpt lat="42.6325700" lon="-8.6452420">
        <ele>75.2</ele>
        <time>2021-05-23T06:25:40Z</time>
      </trkpt>
      <trkpt lat="42.6325820" lon="-8.6452430">
        <ele>75.2</ele>
        <time>2021-05-23T06:25:41Z</time>
      </trkpt>
      <trkpt lat="42.6326090" lon="-8.6452500">
        <ele>75.2</ele>
        <time>2021-05-23T06:25:42Z</time>
      </trkpt>
      <trkpt lat="42.6326190" lon="-8.6452490">
        <ele>75.2</ele>
        <time>2021-05-23T06:25:43Z</time>
      </trkpt>
      <trkpt lat="42.6326340" lon="-8.6452580">
        <ele>75.2</ele>
        <time>2021-05-23T06:25:44Z</time>
      </trkpt>
      <trkpt lat="42.6326450" lon="-8.6452600">
        <ele>75.2</ele>
        <time>2021-05-23T06:25:45Z</time>
      </trkpt>
      <trkpt lat="42.6326550" lon="-8.6452620">
        <ele>75.2</ele>
        <time>2021-05-23T06:25:46Z</time>
      </trkpt>
      <trkpt lat="42.6326810" lon="-8.6452730">
        <ele>75.2</ele>
        <time>2021-05-23T06:25:47Z</time>
      </trkpt>
      <trkpt lat="42.6326910" lon="-8.6452770">
        <ele>75.2</ele>
        <time>2021-05-23T06:25:48Z</time>
      </trkpt>
      <trkpt lat="42.6327000" lon="-8.6452810">
        <ele>75.2</ele>
        <time>2021-05-23T06:25:49Z</time>
      </trkpt>
      <trkpt lat="42.6327130" lon="-8.6452870">
        <ele>75.2</ele>
        <time>2021-05-23T06:25:50Z</time>
      </trkpt>
      <trkpt lat="42.6327300" lon="-8.6452840">
        <ele>75.2</ele>
        <time>2021-05-23T06:25:51Z</time>
      </trkpt>
      <trkpt lat="42.6327310" lon="-8.6452790">
        <ele>75.2</ele>
        <time>2021-05-23T06:25:52Z</time>
      </trkpt>
      <trkpt lat="42.6327380" lon="-8.6452830">
        <ele>75.2</ele>
        <time>2021-05-23T06:25:53Z</time>
      </trkpt>
      <trkpt lat="42.6327440" lon="-8.6452870">
        <ele>75.2</ele>
        <time>2021-05-23T06:25:54Z</time>
      </trkpt>
      <trkpt lat="42.6327610" lon="-8.6452940">
        <ele>75.2</ele>
        <time>2021-05-23T06:25:55Z</time>
      </trkpt>
      <trkpt lat="42.6327760" lon="-8.6453000">
        <ele>75.2</ele>
        <time>2021-05-23T06:25:56Z</time>
      </trkpt>
      <trkpt lat="42.6327830" lon="-8.6452900">
        <ele>75.2</ele>
        <time>2021-05-23T06:25:57Z</time>
      </trkpt>
      <trkpt lat="42.6327900" lon="-8.6452900">
        <ele>75.2</ele>
        <time>2021-05-23T06:25:58Z</time>
      </trkpt>
      <trkpt lat="42.6328080" lon="-8.6452830">
        <ele>75.2</ele>
        <time>2021-05-23T06:25:59Z</time>
      </trkpt>
      <trkpt lat="42.6328200" lon="-8.6452810">
        <ele>75.2</ele>
        <time>2021-05-23T06:26:00Z</time>
      </trkpt>
      <trkpt lat="42.6328310" lon="-8.6452900">
        <ele>75.3</ele>
        <time>2021-05-23T06:26:01Z</time>
      </trkpt>
      <trkpt lat="42.6328430" lon="-8.6452840">
        <ele>75.3</ele>
        <time>2021-05-23T06:26:02Z</time>
      </trkpt>
      <trkpt lat="42.6328540" lon="-8.6452830">
        <ele>75.3</ele>
        <time>2021-05-23T06:26:03Z</time>
      </trkpt>
      <trkpt lat="42.6328690" lon="-8.6452860">
        <ele>75.3</ele>
        <time>2021-05-23T06:26:04Z</time>
      </trkpt>
      <trkpt lat="42.6328810" lon="-8.6452870">
        <ele>75.3</ele>
        <time>2021-05-23T06:26:05Z</time>
      </trkpt>
      <trkpt lat="42.6328940" lon="-8.6452850">
        <ele>75.3</ele>
        <time>2021-05-23T06:26:06Z</time>
      </trkpt>
      <trkpt lat="42.6328960" lon="-8.6452900">
        <ele>75.3</ele>
        <time>2021-05-23T06:26:07Z</time>
      </trkpt>
      <trkpt lat="42.6328970" lon="-8.6452770">
        <ele>75.3</ele>
        <time>2021-05-23T06:26:08Z</time>
      </trkpt>
      <trkpt lat="42.6329020" lon="-8.6452750">
        <ele>75.3</ele>
        <time>2021-05-23T06:26:09Z</time>
      </trkpt>
      <trkpt lat="42.6329130" lon="-8.6452770">
        <ele>75.3</ele>
        <time>2021-05-23T06:26:10Z</time>
      </trkpt>
      <trkpt lat="42.6329360" lon="-8.6452800">
        <ele>75.3</ele>
        <time>2021-05-23T06:26:11Z</time>
      </trkpt>
      <trkpt lat="42.6329410" lon="-8.6452780">
        <ele>75.3</ele>
        <time>2021-05-23T06:26:12Z</time>
      </trkpt>
      <trkpt lat="42.6329470" lon="-8.6452750">
        <ele>75.3</ele>
        <time>2021-05-23T06:26:13Z</time>
      </trkpt>
      <trkpt lat="42.6329520" lon="-8.6452730">
        <ele>75.3</ele>
        <time>2021-05-23T06:26:14Z</time>
      </trkpt>
      <trkpt lat="42.6329640" lon="-8.6452720">
        <ele>75.3</ele>
        <time>2021-05-23T06:26:15Z</time>
      </trkpt>
      <trkpt lat="42.6329780" lon="-8.6452610">
        <ele>75.3</ele>
        <time>2021-05-23T06:26:16Z</time>
      </trkpt>
      <trkpt lat="42.6329940" lon="-8.6452710">
        <ele>75.3</ele>
        <time>2021-05-23T06:26:17Z</time>
      </trkpt>
      <trkpt lat="42.6330060" lon="-8.6452720">
        <ele>75.3</ele>
        <time>2021-05-23T06:26:18Z</time>
      </trkpt>
      <trkpt lat="42.6330110" lon="-8.6452790">
        <ele>75.3</ele>
        <time>2021-05-23T06:26:19Z</time>
      </trkpt>
      <trkpt lat="42.6330350" lon="-8.6452980">
        <ele>75.3</ele>
        <time>2021-05-23T06:26:20Z</time>
      </trkpt>
      <trkpt lat="42.6330510" lon="-8.6452970">
        <ele>75.3</ele>
        <time>2021-05-23T06:26:21Z</time>
      </trkpt>
      <trkpt lat="42.6330640" lon="-8.6453000">
        <ele>75.4</ele>
        <time>2021-05-23T06:26:22Z</time>
      </trkpt>
      <trkpt lat="42.6330890" lon="-8.6453080">
        <ele>75.4</ele>
        <time>2021-05-23T06:26:23Z</time>
      </trkpt>
      <trkpt lat="42.6331000" lon="-8.6453110">
        <ele>75.4</ele>
        <time>2021-05-23T06:26:24Z</time>
      </trkpt>
      <trkpt lat="42.6331090" lon="-8.6453100">
        <ele>75.4</ele>
        <time>2021-05-23T06:26:25Z</time>
      </trkpt>
      <trkpt lat="42.6331190" lon="-8.6452930">
        <ele>75.4</ele>
        <time>2021-05-23T06:26:26Z</time>
      </trkpt>
      <trkpt lat="42.6331170" lon="-8.6452850">
        <ele>75.4</ele>
        <time>2021-05-23T06:26:27Z</time>
      </trkpt>
      <trkpt lat="42.6331240" lon="-8.6452850">
        <ele>75.4</ele>
        <time>2021-05-23T06:26:28Z</time>
      </trkpt>
      <trkpt lat="42.6331480" lon="-8.6452780">
        <ele>75.4</ele>
        <time>2021-05-23T06:26:29Z</time>
      </trkpt>
      <trkpt lat="42.6331640" lon="-8.6452800">
        <ele>75.4</ele>
        <time>2021-05-23T06:26:30Z</time>
      </trkpt>
      <trkpt lat="42.6331910" lon="-8.6452740">
        <ele>75.5</ele>
        <time>2021-05-23T06:26:31Z</time>
      </trkpt>
      <trkpt lat="42.6331950" lon="-8.6452700">
        <ele>75.5</ele>
        <time>2021-05-23T06:26:32Z</time>
      </trkpt>
      <trkpt lat="42.6331990" lon="-8.6452660">
        <ele>75.5</ele>
        <time>2021-05-23T06:26:33Z</time>
      </trkpt>
      <trkpt lat="42.6332070" lon="-8.6452670">
        <ele>75.5</ele>
        <time>2021-05-23T06:26:34Z</time>
      </trkpt>
      <trkpt lat="42.6332060" lon="-8.6452690">
        <ele>75.5</ele>
        <time>2021-05-23T06:26:35Z</time>
      </trkpt>
      <trkpt lat="42.6332100" lon="-8.6452600">
        <ele>75.5</ele>
        <time>2021-05-23T06:26:36Z</time>
      </trkpt>
      <trkpt lat="42.6332120" lon="-8.6452490">
        <ele>75.5</ele>
        <time>2021-05-23T06:26:37Z</time>
      </trkpt>
      <trkpt lat="42.6332230" lon="-8.6452490">
        <ele>75.5</ele>
        <time>2021-05-23T06:26:38Z</time>
      </trkpt>
      <trkpt lat="42.6332300" lon="-8.6452500">
        <ele>75.5</ele>
        <time>2021-05-23T06:26:39Z</time>
      </trkpt>
      <trkpt lat="42.6332380" lon="-8.6452430">
        <ele>75.5</ele>
        <time>2021-05-23T06:26:40Z</time>
      </trkpt>
      <trkpt lat="42.6332540" lon="-8.6452430">
        <ele>75.5</ele>
        <time>2021-05-23T06:26:41Z</time>
      </trkpt>
      <trkpt lat="42.6332580" lon="-8.6452380">
        <ele>75.5</ele>
        <time>2021-05-23T06:26:42Z</time>
      </trkpt>
      <trkpt lat="42.6332750" lon="-8.6452340">
        <ele>75.6</ele>
        <time>2021-05-23T06:26:43Z</time>
      </trkpt>
      <trkpt lat="42.6332850" lon="-8.6452250">
        <ele>75.6</ele>
        <time>2021-05-23T06:26:44Z</time>
      </trkpt>
      <trkpt lat="42.6333000" lon="-8.6452250">
        <ele>75.6</ele>
        <time>2021-05-23T06:26:45Z</time>
      </trkpt>
      <trkpt lat="42.6333110" lon="-8.6452140">
        <ele>75.6</ele>
        <time>2021-05-23T06:26:46Z</time>
      </trkpt>
      <trkpt lat="42.6333220" lon="-8.6452130">
        <ele>75.6</ele>
        <time>2021-05-23T06:26:47Z</time>
      </trkpt>
      <trkpt lat="42.6333380" lon="-8.6452050">
        <ele>75.6</ele>
        <time>2021-05-23T06:26:48Z</time>
      </trkpt>
      <trkpt lat="42.6333430" lon="-8.6452090">
        <ele>75.6</ele>
        <time>2021-05-23T06:26:49Z</time>
      </trkpt>
      <trkpt lat="42.6333520" lon="-8.6452050">
        <ele>75.6</ele>
        <time>2021-05-23T06:26:50Z</time>
      </trkpt>
      <trkpt lat="42.6333650" lon="-8.6452020">
        <ele>75.6</ele>
        <time>2021-05-23T06:26:51Z</time>
      </trkpt>
      <trkpt lat="42.6333660" lon="-8.6451980">
        <ele>75.6</ele>
        <time>2021-05-23T06:26:52Z</time>
      </trkpt>
      <trkpt lat="42.6333750" lon="-8.6451950">
        <ele>75.6</ele>
        <time>2021-05-23T06:26:53Z</time>
      </trkpt>
      <trkpt lat="42.6333950" lon="-8.6451920">
        <ele>75.6</ele>
        <time>2021-05-23T06:26:54Z</time>
      </trkpt>
      <trkpt lat="42.6334120" lon="-8.6451870">
        <ele>75.6</ele>
        <time>2021-05-23T06:26:55Z</time>
      </trkpt>
      <trkpt lat="42.6334140" lon="-8.6451900">
        <ele>75.6</ele>
        <time>2021-05-23T06:26:56Z</time>
      </trkpt>
      <trkpt lat="42.6334230" lon="-8.6451870">
        <ele>75.6</ele>
        <time>2021-05-23T06:26:57Z</time>
      </trkpt>
      <trkpt lat="42.6334430" lon="-8.6451790">
        <ele>75.6</ele>
        <time>2021-05-23T06:26:58Z</time>
      </trkpt>
      <trkpt lat="42.6334540" lon="-8.6451770">
        <ele>75.6</ele>
        <time>2021-05-23T06:26:59Z</time>
      </trkpt>
      <trkpt lat="42.6334640" lon="-8.6451750">
        <ele>75.6</ele>
        <time>2021-05-23T06:27:00Z</time>
      </trkpt>
      <trkpt lat="42.6334750" lon="-8.6451660">
        <ele>75.6</ele>
        <time>2021-05-23T06:27:01Z</time>
      </trkpt>
      <trkpt lat="42.6334920" lon="-8.6451610">
        <ele>75.6</ele>
        <time>2021-05-23T06:27:02Z</time>
      </trkpt>
      <trkpt lat="42.6335060" lon="-8.6451640">
        <ele>75.6</ele>
        <time>2021-05-23T06:27:03Z</time>
      </trkpt>
      <trkpt lat="42.6335170" lon="-8.6451650">
        <ele>75.6</ele>
        <time>2021-05-23T06:27:04Z</time>
      </trkpt>
      <trkpt lat="42.6335280" lon="-8.6451620">
        <ele>75.6</ele>
        <time>2021-05-23T06:27:05Z</time>
      </trkpt>
      <trkpt lat="42.6335480" lon="-8.6451600">
        <ele>75.6</ele>
        <time>2021-05-23T06:27:06Z</time>
      </trkpt>
      <trkpt lat="42.6335560" lon="-8.6451490">
        <ele>75.6</ele>
        <time>2021-05-23T06:27:07Z</time>
      </trkpt>
      <trkpt lat="42.6335790" lon="-8.6451530">
        <ele>75.6</ele>
        <time>2021-05-23T06:27:08Z</time>
      </trkpt>
      <trkpt lat="42.6335880" lon="-8.6451510">
        <ele>75.6</ele>
        <time>2021-05-23T06:27:09Z</time>
      </trkpt>
      <trkpt lat="42.6335960" lon="-8.6451480">
        <ele>75.6</ele>
        <time>2021-05-23T06:27:10Z</time>
      </trkpt>
      <trkpt lat="42.6336200" lon="-8.6451400">
        <ele>75.6</ele>
        <time>2021-05-23T06:27:11Z</time>
      </trkpt>
      <trkpt lat="42.6336280" lon="-8.6451310">
        <ele>75.6</ele>
        <time>2021-05-23T06:27:12Z</time>
      </trkpt>
      <trkpt lat="42.6336370" lon="-8.6451230">
        <ele>75.6</ele>
        <time>2021-05-23T06:27:13Z</time>
      </trkpt>
      <trkpt lat="42.6336530" lon="-8.6451210">
        <ele>75.6</ele>
        <time>2021-05-23T06:27:14Z</time>
      </trkpt>
      <trkpt lat="42.6336620" lon="-8.6451160">
        <ele>75.6</ele>
        <time>2021-05-23T06:27:15Z</time>
      </trkpt>
      <trkpt lat="42.6336710" lon="-8.6451100">
        <ele>75.6</ele>
        <time>2021-05-23T06:27:16Z</time>
      </trkpt>
      <trkpt lat="42.6336800" lon="-8.6451040">
        <ele>75.6</ele>
        <time>2021-05-23T06:27:17Z</time>
      </trkpt>
      <trkpt lat="42.6336980" lon="-8.6451060">
        <ele>75.6</ele>
        <time>2021-05-23T06:27:18Z</time>
      </trkpt>
      <trkpt lat="42.6337110" lon="-8.6451010">
        <ele>75.6</ele>
        <time>2021-05-23T06:27:19Z</time>
      </trkpt>
      <trkpt lat="42.6337260" lon="-8.6451050">
        <ele>75.6</ele>
        <time>2021-05-23T06:27:20Z</time>
      </trkpt>
      <trkpt lat="42.6337460" lon="-8.6451030">
        <ele>75.6</ele>
        <time>2021-05-23T06:27:21Z</time>
      </trkpt>
      <trkpt lat="42.6337650" lon="-8.6450990">
        <ele>75.5</ele>
        <time>2021-05-23T06:27:22Z</time>
      </trkpt>
      <trkpt lat="42.6337760" lon="-8.6451040">
        <ele>75.5</ele>
        <time>2021-05-23T06:27:23Z</time>
      </trkpt>
      <trkpt lat="42.6337930" lon="-8.6451020">
        <ele>75.5</ele>
        <time>2021-05-23T06:27:24Z</time>
      </trkpt>
      <trkpt lat="42.6338060" lon="-8.6450930">
        <ele>75.5</ele>
        <time>2021-05-23T06:27:25Z</time>
      </trkpt>
      <trkpt lat="42.6338210" lon="-8.6450860">
        <ele>75.5</ele>
        <time>2021-05-23T06:27:26Z</time>
      </trkpt>
      <trkpt lat="42.6338280" lon="-8.6450850">
        <ele>75.5</ele>
        <time>2021-05-23T06:27:27Z</time>
      </trkpt>
      <trkpt lat="42.6338400" lon="-8.6450980">
        <ele>75.5</ele>
        <time>2021-05-23T06:27:28Z</time>
      </trkpt>
      <trkpt lat="42.6338610" lon="-8.6450900">
        <ele>75.5</ele>
        <time>2021-05-23T06:27:29Z</time>
      </trkpt>
      <trkpt lat="42.6338730" lon="-8.6450870">
        <ele>75.5</ele>
        <time>2021-05-23T06:27:30Z</time>
      </trkpt>
      <trkpt lat="42.6338840" lon="-8.6450840">
        <ele>75.5</ele>
        <time>2021-05-23T06:27:31Z</time>
      </trkpt>
      <trkpt lat="42.6338950" lon="-8.6450810">
        <ele>75.5</ele>
        <time>2021-05-23T06:27:32Z</time>
      </trkpt>
      <trkpt lat="42.6339070" lon="-8.6450780">
        <ele>75.5</ele>
        <time>2021-05-23T06:27:33Z</time>
      </trkpt>
      <trkpt lat="42.6339180" lon="-8.6450750">
        <ele>75.5</ele>
        <time>2021-05-23T06:27:34Z</time>
      </trkpt>
      <trkpt lat="42.6339280" lon="-8.6450840">
        <ele>75.4</ele>
        <time>2021-05-23T06:27:35Z</time>
      </trkpt>
      <trkpt lat="42.6339300" lon="-8.6450720">
        <ele>75.4</ele>
        <time>2021-05-23T06:27:36Z</time>
      </trkpt>
      <trkpt lat="42.6339490" lon="-8.6450670">
        <ele>75.4</ele>
        <time>2021-05-23T06:27:37Z</time>
      </trkpt>
      <trkpt lat="42.6339790" lon="-8.6450720">
        <ele>75.4</ele>
        <time>2021-05-23T06:27:38Z</time>
      </trkpt>
      <trkpt lat="42.6339870" lon="-8.6450770">
        <ele>75.4</ele>
        <time>2021-05-23T06:27:39Z</time>
      </trkpt>
      <trkpt lat="42.6340050" lon="-8.6450770">
        <ele>75.4</ele>
        <time>2021-05-23T06:27:40Z</time>
      </trkpt>
      <trkpt lat="42.6340170" lon="-8.6450760">
        <ele>75.4</ele>
        <time>2021-05-23T06:27:41Z</time>
      </trkpt>
      <trkpt lat="42.6340280" lon="-8.6450750">
        <ele>75.3</ele>
        <time>2021-05-23T06:27:42Z</time>
      </trkpt>
      <trkpt lat="42.6340400" lon="-8.6450740">
        <ele>75.3</ele>
        <time>2021-05-23T06:27:43Z</time>
      </trkpt>
      <trkpt lat="42.6340510" lon="-8.6450730">
        <ele>75.3</ele>
        <time>2021-05-23T06:27:44Z</time>
      </trkpt>
      <trkpt lat="42.6340600" lon="-8.6450700">
        <ele>75.3</ele>
        <time>2021-05-23T06:27:45Z</time>
      </trkpt>
      <trkpt lat="42.6340710" lon="-8.6450660">
        <ele>75.3</ele>
        <time>2021-05-23T06:27:46Z</time>
      </trkpt>
      <trkpt lat="42.6340800" lon="-8.6450600">
        <ele>75.3</ele>
        <time>2021-05-23T06:27:47Z</time>
      </trkpt>
      <trkpt lat="42.6341030" lon="-8.6450590">
        <ele>75.3</ele>
        <time>2021-05-23T06:27:48Z</time>
      </trkpt>
      <trkpt lat="42.6341090" lon="-8.6450560">
        <ele>75.2</ele>
        <time>2021-05-23T06:27:49Z</time>
      </trkpt>
      <trkpt lat="42.6341160" lon="-8.6450530">
        <ele>75.2</ele>
        <time>2021-05-23T06:27:50Z</time>
      </trkpt>
      <trkpt lat="42.6341270" lon="-8.6450430">
        <ele>75.2</ele>
        <time>2021-05-23T06:27:51Z</time>
      </trkpt>
      <trkpt lat="42.6341370" lon="-8.6450380">
        <ele>75.2</ele>
        <time>2021-05-23T06:27:52Z</time>
      </trkpt>
      <trkpt lat="42.6341480" lon="-8.6450310">
        <ele>75.2</ele>
        <time>2021-05-23T06:27:53Z</time>
      </trkpt>
      <trkpt lat="42.6341610" lon="-8.6450270">
        <ele>75.2</ele>
        <time>2021-05-23T06:27:54Z</time>
      </trkpt>
      <trkpt lat="42.6341660" lon="-8.6450260">
        <ele>75.2</ele>
        <time>2021-05-23T06:27:55Z</time>
      </trkpt>
      <trkpt lat="42.6341780" lon="-8.6450210">
        <ele>75.2</ele>
        <time>2021-05-23T06:27:56Z</time>
      </trkpt>
      <trkpt lat="42.6341940" lon="-8.6450100">
        <ele>75.1</ele>
        <time>2021-05-23T06:27:57Z</time>
      </trkpt>
      <trkpt lat="42.6341980" lon="-8.6450070">
        <ele>75.1</ele>
        <time>2021-05-23T06:27:58Z</time>
      </trkpt>
      <trkpt lat="42.6342050" lon="-8.6449990">
        <ele>75.1</ele>
        <time>2021-05-23T06:27:59Z</time>
      </trkpt>
      <trkpt lat="42.6342130" lon="-8.6449940">
        <ele>75.1</ele>
        <time>2021-05-23T06:28:00Z</time>
      </trkpt>
      <trkpt lat="42.6342210" lon="-8.6449920">
        <ele>75.1</ele>
        <time>2021-05-23T06:28:01Z</time>
      </trkpt>
      <trkpt lat="42.6342350" lon="-8.6449840">
        <ele>75.1</ele>
        <time>2021-05-23T06:28:02Z</time>
      </trkpt>
      <trkpt lat="42.6342440" lon="-8.6449780">
        <ele>75.1</ele>
        <time>2021-05-23T06:28:03Z</time>
      </trkpt>
      <trkpt lat="42.6342600" lon="-8.6449810">
        <ele>75.1</ele>
        <time>2021-05-23T06:28:04Z</time>
      </trkpt>
      <trkpt lat="42.6342710" lon="-8.6449770">
        <ele>75.0</ele>
        <time>2021-05-23T06:28:05Z</time>
      </trkpt>
      <trkpt lat="42.6342750" lon="-8.6449810">
        <ele>75.0</ele>
        <time>2021-05-23T06:28:06Z</time>
      </trkpt>
      <trkpt lat="42.6342880" lon="-8.6449850">
        <ele>75.0</ele>
        <time>2021-05-23T06:28:07Z</time>
      </trkpt>
      <trkpt lat="42.6342990" lon="-8.6449730">
        <ele>75.0</ele>
        <time>2021-05-23T06:28:08Z</time>
      </trkpt>
      <trkpt lat="42.6343150" lon="-8.6449580">
        <ele>75.0</ele>
        <time>2021-05-23T06:28:09Z</time>
      </trkpt>
      <trkpt lat="42.6343250" lon="-8.6449520">
        <ele>75.0</ele>
        <time>2021-05-23T06:28:10Z</time>
      </trkpt>
      <trkpt lat="42.6343340" lon="-8.6449460">
        <ele>74.9</ele>
        <time>2021-05-23T06:28:11Z</time>
      </trkpt>
      <trkpt lat="42.6343430" lon="-8.6449480">
        <ele>74.9</ele>
        <time>2021-05-23T06:28:12Z</time>
      </trkpt>
      <trkpt lat="42.6343650" lon="-8.6449500">
        <ele>74.9</ele>
        <time>2021-05-23T06:28:13Z</time>
      </trkpt>
      <trkpt lat="42.6343880" lon="-8.6449480">
        <ele>74.9</ele>
        <time>2021-05-23T06:28:14Z</time>
      </trkpt>
      <trkpt lat="42.6343950" lon="-8.6449460">
        <ele>74.9</ele>
        <time>2021-05-23T06:28:15Z</time>
      </trkpt>
      <trkpt lat="42.6344030" lon="-8.6449440">
        <ele>74.8</ele>
        <time>2021-05-23T06:28:16Z</time>
      </trkpt>
      <trkpt lat="42.6344230" lon="-8.6449410">
        <ele>74.8</ele>
        <time>2021-05-23T06:28:17Z</time>
      </trkpt>
      <trkpt lat="42.6344320" lon="-8.6449380">
        <ele>74.8</ele>
        <time>2021-05-23T06:28:18Z</time>
      </trkpt>
      <trkpt lat="42.6344420" lon="-8.6449360">
        <ele>74.8</ele>
        <time>2021-05-23T06:28:19Z</time>
      </trkpt>
      <trkpt lat="42.6344510" lon="-8.6449330">
        <ele>74.8</ele>
        <time>2021-05-23T06:28:20Z</time>
      </trkpt>
      <trkpt lat="42.6344640" lon="-8.6449340">
        <ele>74.8</ele>
        <time>2021-05-23T06:28:21Z</time>
      </trkpt>
      <trkpt lat="42.6344720" lon="-8.6449320">
        <ele>74.8</ele>
        <time>2021-05-23T06:28:22Z</time>
      </trkpt>
      <trkpt lat="42.6344840" lon="-8.6449290">
        <ele>74.7</ele>
        <time>2021-05-23T06:28:23Z</time>
      </trkpt>
      <trkpt lat="42.6344930" lon="-8.6449200">
        <ele>74.7</ele>
        <time>2021-05-23T06:28:24Z</time>
      </trkpt>
      <trkpt lat="42.6345010" lon="-8.6449150">
        <ele>74.7</ele>
        <time>2021-05-23T06:28:25Z</time>
      </trkpt>
      <trkpt lat="42.6345110" lon="-8.6449070">
        <ele>74.7</ele>
        <time>2021-05-23T06:28:26Z</time>
      </trkpt>
      <trkpt lat="42.6345380" lon="-8.6448970">
        <ele>74.7</ele>
        <time>2021-05-23T06:28:27Z</time>
      </trkpt>
      <trkpt lat="42.6345480" lon="-8.6448980">
        <ele>74.7</ele>
        <time>2021-05-23T06:28:28Z</time>
      </trkpt>
      <trkpt lat="42.6345660" lon="-8.6448950">
        <ele>74.6</ele>
        <time>2021-05-23T06:28:29Z</time>
      </trkpt>
      <trkpt lat="42.6345780" lon="-8.6448910">
        <ele>74.6</ele>
        <time>2021-05-23T06:28:30Z</time>
      </trkpt>
      <trkpt lat="42.6345810" lon="-8.6448860">
        <ele>74.6</ele>
        <time>2021-05-23T06:28:31Z</time>
      </trkpt>
      <trkpt lat="42.6345990" lon="-8.6448860">
        <ele>74.6</ele>
        <time>2021-05-23T06:28:32Z</time>
      </trkpt>
      <trkpt lat="42.6346060" lon="-8.6448730">
        <ele>74.6</ele>
        <time>2021-05-23T06:28:33Z</time>
      </trkpt>
      <trkpt lat="42.6346220" lon="-8.6448720">
        <ele>74.6</ele>
        <time>2021-05-23T06:28:34Z</time>
      </trkpt>
      <trkpt lat="42.6346380" lon="-8.6448710">
        <ele>74.6</ele>
        <time>2021-05-23T06:28:35Z</time>
      </trkpt>
      <trkpt lat="42.6346430" lon="-8.6448630">
        <ele>74.6</ele>
        <time>2021-05-23T06:28:36Z</time>
      </trkpt>
      <trkpt lat="42.6346520" lon="-8.6448610">
        <ele>74.6</ele>
        <time>2021-05-23T06:28:37Z</time>
      </trkpt>
      <trkpt lat="42.6346700" lon="-8.6448510">
        <ele>74.6</ele>
        <time>2021-05-23T06:28:38Z</time>
      </trkpt>
      <trkpt lat="42.6346910" lon="-8.6448480">
        <ele>74.6</ele>
        <time>2021-05-23T06:28:39Z</time>
      </trkpt>
      <trkpt lat="42.6347010" lon="-8.6448460">
        <ele>74.6</ele>
        <time>2021-05-23T06:28:40Z</time>
      </trkpt>
      <trkpt lat="42.6347100" lon="-8.6448430">
        <ele>74.6</ele>
        <time>2021-05-23T06:28:41Z</time>
      </trkpt>
      <trkpt lat="42.6347250" lon="-8.6448410">
        <ele>74.6</ele>
        <time>2021-05-23T06:28:42Z</time>
      </trkpt>
      <trkpt lat="42.6347340" lon="-8.6448430">
        <ele>74.6</ele>
        <time>2021-05-23T06:28:43Z</time>
      </trkpt>
      <trkpt lat="42.6347420" lon="-8.6448450">
        <ele>74.6</ele>
        <time>2021-05-23T06:28:44Z</time>
      </trkpt>
      <trkpt lat="42.6347510" lon="-8.6448470">
        <ele>74.6</ele>
        <time>2021-05-23T06:28:45Z</time>
      </trkpt>
      <trkpt lat="42.6347730" lon="-8.6448450">
        <ele>74.6</ele>
        <time>2021-05-23T06:28:46Z</time>
      </trkpt>
      <trkpt lat="42.6347820" lon="-8.6448400">
        <ele>74.6</ele>
        <time>2021-05-23T06:28:47Z</time>
      </trkpt>
      <trkpt lat="42.6347910" lon="-8.6448350">
        <ele>74.6</ele>
        <time>2021-05-23T06:28:48Z</time>
      </trkpt>
      <trkpt lat="42.6348000" lon="-8.6448290">
        <ele>74.6</ele>
        <time>2021-05-23T06:28:49Z</time>
      </trkpt>
      <trkpt lat="42.6348120" lon="-8.6448310">
        <ele>74.6</ele>
        <time>2021-05-23T06:28:50Z</time>
      </trkpt>
      <trkpt lat="42.6348200" lon="-8.6448300">
        <ele>74.6</ele>
        <time>2021-05-23T06:28:51Z</time>
      </trkpt>
      <trkpt lat="42.6348320" lon="-8.6448370">
        <ele>74.6</ele>
        <time>2021-05-23T06:28:52Z</time>
      </trkpt>
      <trkpt lat="42.6348360" lon="-8.6448340">
        <ele>74.6</ele>
        <time>2021-05-23T06:28:53Z</time>
      </trkpt>
      <trkpt lat="42.6348480" lon="-8.6448320">
        <ele>74.6</ele>
        <time>2021-05-23T06:28:54Z</time>
      </trkpt>
      <trkpt lat="42.6348600" lon="-8.6448170">
        <ele>74.6</ele>
        <time>2021-05-23T06:28:55Z</time>
      </trkpt>
      <trkpt lat="42.6348680" lon="-8.6448130">
        <ele>74.7</ele>
        <time>2021-05-23T06:28:56Z</time>
      </trkpt>
      <trkpt lat="42.6348760" lon="-8.6448090">
        <ele>74.7</ele>
        <time>2021-05-23T06:28:57Z</time>
      </trkpt>
      <trkpt lat="42.6348840" lon="-8.6448050">
        <ele>74.7</ele>
        <time>2021-05-23T06:28:58Z</time>
      </trkpt>
      <trkpt lat="42.6349040" lon="-8.6448020">
        <ele>74.7</ele>
        <time>2021-05-23T06:28:59Z</time>
      </trkpt>
      <trkpt lat="42.6349130" lon="-8.6447990">
        <ele>74.7</ele>
        <time>2021-05-23T06:29:00Z</time>
      </trkpt>
      <trkpt lat="42.6349220" lon="-8.6447970">
        <ele>74.7</ele>
        <time>2021-05-23T06:29:01Z</time>
      </trkpt>
      <trkpt lat="42.6349340" lon="-8.6447940">
        <ele>74.7</ele>
        <time>2021-05-23T06:29:02Z</time>
      </trkpt>
      <trkpt lat="42.6349340" lon="-8.6447910">
        <ele>74.7</ele>
        <time>2021-05-23T06:29:03Z</time>
      </trkpt>
      <trkpt lat="42.6349450" lon="-8.6447820">
        <ele>74.7</ele>
        <time>2021-05-23T06:29:04Z</time>
      </trkpt>
      <trkpt lat="42.6349520" lon="-8.6447840">
        <ele>74.7</ele>
        <time>2021-05-23T06:29:05Z</time>
      </trkpt>
      <trkpt lat="42.6349750" lon="-8.6447890">
        <ele>74.8</ele>
        <time>2021-05-23T06:29:06Z</time>
      </trkpt>
      <trkpt lat="42.6349820" lon="-8.6447920">
        <ele>74.8</ele>
        <time>2021-05-23T06:29:07Z</time>
      </trkpt>
      <trkpt lat="42.6349900" lon="-8.6447950">
        <ele>74.8</ele>
        <time>2021-05-23T06:29:08Z</time>
      </trkpt>
      <trkpt lat="42.6349980" lon="-8.6447920">
        <ele>74.8</ele>
        <time>2021-05-23T06:29:09Z</time>
      </trkpt>
      <trkpt lat="42.6350050" lon="-8.6448030">
        <ele>74.8</ele>
        <time>2021-05-23T06:29:10Z</time>
      </trkpt>
      <trkpt lat="42.6350180" lon="-8.6447930">
        <ele>74.8</ele>
        <time>2021-05-23T06:29:11Z</time>
      </trkpt>
      <trkpt lat="42.6350340" lon="-8.6447870">
        <ele>74.8</ele>
        <time>2021-05-23T06:29:12Z</time>
      </trkpt>
      <trkpt lat="42.6350480" lon="-8.6447870">
        <ele>74.9</ele>
        <time>2021-05-23T06:29:13Z</time>
      </trkpt>
      <trkpt lat="42.6350660" lon="-8.6447890">
        <ele>74.9</ele>
        <time>2021-05-23T06:29:14Z</time>
      </trkpt>
      <trkpt lat="42.6350830" lon="-8.6447920">
        <ele>74.9</ele>
        <time>2021-05-23T06:29:15Z</time>
      </trkpt>
      <trkpt lat="42.6350990" lon="-8.6447830">
        <ele>74.9</ele>
        <time>2021-05-23T06:29:16Z</time>
      </trkpt>
      <trkpt lat="42.6351100" lon="-8.6447810">
        <ele>74.9</ele>
        <time>2021-05-23T06:29:17Z</time>
      </trkpt>
      <trkpt lat="42.6351240" lon="-8.6447920">
        <ele>75.0</ele>
        <time>2021-05-23T06:29:18Z</time>
      </trkpt>
      <trkpt lat="42.6351400" lon="-8.6447970">
        <ele>75.0</ele>
        <time>2021-05-23T06:29:19Z</time>
      </trkpt>
      <trkpt lat="42.6351620" lon="-8.6447960">
        <ele>75.0</ele>
        <time>2021-05-23T06:29:20Z</time>
      </trkpt>
      <trkpt lat="42.6351710" lon="-8.6447990">
        <ele>75.0</ele>
        <time>2021-05-23T06:29:21Z</time>
      </trkpt>
      <trkpt lat="42.6351810" lon="-8.6448020">
        <ele>75.0</ele>
        <time>2021-05-23T06:29:22Z</time>
      </trkpt>
      <trkpt lat="42.6351880" lon="-8.6448020">
        <ele>75.0</ele>
        <time>2021-05-23T06:29:23Z</time>
      </trkpt>
      <trkpt lat="42.6352000" lon="-8.6447910">
        <ele>75.1</ele>
        <time>2021-05-23T06:29:24Z</time>
      </trkpt>
      <trkpt lat="42.6352150" lon="-8.6447900">
        <ele>75.1</ele>
        <time>2021-05-23T06:29:25Z</time>
      </trkpt>
      <trkpt lat="42.6352360" lon="-8.6447970">
        <ele>75.1</ele>
        <time>2021-05-23T06:29:26Z</time>
      </trkpt>
      <trkpt lat="42.6352410" lon="-8.6448040">
        <ele>75.1</ele>
        <time>2021-05-23T06:29:27Z</time>
      </trkpt>
      <trkpt lat="42.6352650" lon="-8.6448030">
        <ele>75.1</ele>
        <time>2021-05-23T06:29:28Z</time>
      </trkpt>
      <trkpt lat="42.6352740" lon="-8.6448030">
        <ele>75.2</ele>
        <time>2021-05-23T06:29:29Z</time>
      </trkpt>
      <trkpt lat="42.6352820" lon="-8.6448030">
        <ele>75.2</ele>
        <time>2021-05-23T06:29:30Z</time>
      </trkpt>
      <trkpt lat="42.6352980" lon="-8.6448130">
        <ele>75.2</ele>
        <time>2021-05-23T06:29:31Z</time>
      </trkpt>
      <trkpt lat="42.6353100" lon="-8.6448140">
        <ele>75.2</ele>
        <time>2021-05-23T06:29:32Z</time>
      </trkpt>
      <trkpt lat="42.6353350" lon="-8.6448330">
        <ele>75.2</ele>
        <time>2021-05-23T06:29:33Z</time>
      </trkpt>
      <trkpt lat="42.6353550" lon="-8.6448440">
        <ele>75.2</ele>
        <time>2021-05-23T06:29:34Z</time>
      </trkpt>
      <trkpt lat="42.6353630" lon="-8.6448490">
        <ele>75.2</ele>
        <time>2021-05-23T06:29:35Z</time>
      </trkpt>
      <trkpt lat="42.6353700" lon="-8.6448540">
        <ele>75.2</ele>
        <time>2021-05-23T06:29:36Z</time>
      </trkpt>
      <trkpt lat="42.6353820" lon="-8.6448560">
        <ele>75.2</ele>
        <time>2021-05-23T06:29:37Z</time>
      </trkpt>
      <trkpt lat="42.6353960" lon="-8.6448520">
        <ele>75.3</ele>
        <time>2021-05-23T06:29:38Z</time>
      </trkpt>
      <trkpt lat="42.6354030" lon="-8.6448580">
        <ele>75.3</ele>
        <time>2021-05-23T06:29:39Z</time>
      </trkpt>
      <trkpt lat="42.6354140" lon="-8.6448560">
        <ele>75.3</ele>
        <time>2021-05-23T06:29:40Z</time>
      </trkpt>
      <trkpt lat="42.6354340" lon="-8.6448560">
        <ele>75.3</ele>
        <time>2021-05-23T06:29:41Z</time>
      </trkpt>
      <trkpt lat="42.6354410" lon="-8.6448500">
        <ele>75.3</ele>
        <time>2021-05-23T06:29:42Z</time>
      </trkpt>
      <trkpt lat="42.6354500" lon="-8.6448410">
        <ele>75.3</ele>
        <time>2021-05-23T06:29:43Z</time>
      </trkpt>
      <trkpt lat="42.6354660" lon="-8.6448390">
        <ele>75.3</ele>
        <time>2021-05-23T06:29:44Z</time>
      </trkpt>
      <trkpt lat="42.6354880" lon="-8.6448410">
        <ele>75.3</ele>
        <time>2021-05-23T06:29:45Z</time>
      </trkpt>
      <trkpt lat="42.6354970" lon="-8.6448430">
        <ele>75.3</ele>
        <time>2021-05-23T06:29:46Z</time>
      </trkpt>
      <trkpt lat="42.6355050" lon="-8.6448460">
        <ele>75.3</ele>
        <time>2021-05-23T06:29:47Z</time>
      </trkpt>
      <trkpt lat="42.6355190" lon="-8.6448510">
        <ele>75.3</ele>
        <time>2021-05-23T06:29:48Z</time>
      </trkpt>
      <trkpt lat="42.6355380" lon="-8.6448610">
        <ele>75.3</ele>
        <time>2021-05-23T06:29:49Z</time>
      </trkpt>
      <trkpt lat="42.6355400" lon="-8.6448680">
        <ele>75.3</ele>
        <time>2021-05-23T06:29:50Z</time>
      </trkpt>
      <trkpt lat="42.6355480" lon="-8.6448720">
        <ele>75.3</ele>
        <time>2021-05-23T06:29:51Z</time>
      </trkpt>
      <trkpt lat="42.6355660" lon="-8.6448780">
        <ele>75.3</ele>
        <time>2021-05-23T06:29:52Z</time>
      </trkpt>
      <trkpt lat="42.6355760" lon="-8.6448790">
        <ele>75.3</ele>
        <time>2021-05-23T06:29:53Z</time>
      </trkpt>
      <trkpt lat="42.6355860" lon="-8.6448780">
        <ele>75.3</ele>
        <time>2021-05-23T06:29:54Z</time>
      </trkpt>
      <trkpt lat="42.6355950" lon="-8.6448760">
        <ele>75.2</ele>
        <time>2021-05-23T06:29:55Z</time>
      </trkpt>
      <trkpt lat="42.6356050" lon="-8.6448750">
        <ele>75.2</ele>
        <time>2021-05-23T06:29:56Z</time>
      </trkpt>
      <trkpt lat="42.6356150" lon="-8.6448710">
        <ele>75.2</ele>
        <time>2021-05-23T06:29:57Z</time>
      </trkpt>
      <trkpt lat="42.6356290" lon="-8.6448680">
        <ele>75.2</ele>
        <time>2021-05-23T06:29:58Z</time>
      </trkpt>
      <trkpt lat="42.6356410" lon="-8.6448700">
        <ele>75.2</ele>
        <time>2021-05-23T06:29:59Z</time>
      </trkpt>
      <trkpt lat="42.6356530" lon="-8.6448740">
        <ele>75.2</ele>
        <time>2021-05-23T06:30:00Z</time>
      </trkpt>
      <trkpt lat="42.6356610" lon="-8.6448760">
        <ele>75.2</ele>
        <time>2021-05-23T06:30:01Z</time>
      </trkpt>
      <trkpt lat="42.6356690" lon="-8.6448770">
        <ele>75.2</ele>
        <time>2021-05-23T06:30:02Z</time>
      </trkpt>
      <trkpt lat="42.6356770" lon="-8.6448790">
        <ele>75.2</ele>
        <time>2021-05-23T06:30:03Z</time>
      </trkpt>
      <trkpt lat="42.6356940" lon="-8.6448840">
        <ele>75.2</ele>
        <time>2021-05-23T06:30:04Z</time>
      </trkpt>
      <trkpt lat="42.6357070" lon="-8.6448830">
        <ele>75.2</ele>
        <time>2021-05-23T06:30:05Z</time>
      </trkpt>
      <trkpt lat="42.6357250" lon="-8.6448830">
        <ele>75.2</ele>
        <time>2021-05-23T06:30:06Z</time>
      </trkpt>
      <trkpt lat="42.6357350" lon="-8.6448800">
        <ele>75.2</ele>
        <time>2021-05-23T06:30:07Z</time>
      </trkpt>
      <trkpt lat="42.6357430" lon="-8.6448690">
        <ele>75.2</ele>
        <time>2021-05-23T06:30:08Z</time>
      </trkpt>
      <trkpt lat="42.6357660" lon="-8.6448770">
        <ele>75.2</ele>
        <time>2021-05-23T06:30:09Z</time>
      </trkpt>
      <trkpt lat="42.6357740" lon="-8.6448710">
        <ele>75.2</ele>
        <time>2021-05-23T06:30:10Z</time>
      </trkpt>
      <trkpt lat="42.6357870" lon="-8.6448680">
        <ele>75.2</ele>
        <time>2021-05-23T06:30:11Z</time>
      </trkpt>
      <trkpt lat="42.6357980" lon="-8.6448620">
        <ele>75.2</ele>
        <time>2021-05-23T06:30:12Z</time>
      </trkpt>
      <trkpt lat="42.6358110" lon="-8.6448640">
        <ele>75.1</ele>
        <time>2021-05-23T06:30:13Z</time>
      </trkpt>
      <trkpt lat="42.6358170" lon="-8.6448660">
        <ele>75.1</ele>
        <time>2021-05-23T06:30:14Z</time>
      </trkpt>
      <trkpt lat="42.6358310" lon="-8.6448680">
        <ele>75.1</ele>
        <time>2021-05-23T06:30:15Z</time>
      </trkpt>
      <trkpt lat="42.6358390" lon="-8.6448750">
        <ele>75.1</ele>
        <time>2021-05-23T06:30:16Z</time>
      </trkpt>
      <trkpt lat="42.6358500" lon="-8.6448710">
        <ele>75.1</ele>
        <time>2021-05-23T06:30:17Z</time>
      </trkpt>
      <trkpt lat="42.6358590" lon="-8.6448660">
        <ele>75.1</ele>
        <time>2021-05-23T06:30:18Z</time>
      </trkpt>
      <trkpt lat="42.6358750" lon="-8.6448660">
        <ele>75.1</ele>
        <time>2021-05-23T06:30:19Z</time>
      </trkpt>
      <trkpt lat="42.6358850" lon="-8.6448700">
        <ele>75.1</ele>
        <time>2021-05-23T06:30:20Z</time>
      </trkpt>
      <trkpt lat="42.6358950" lon="-8.6448730">
        <ele>75.1</ele>
        <time>2021-05-23T06:30:21Z</time>
      </trkpt>
      <trkpt lat="42.6359110" lon="-8.6448690">
        <ele>75.1</ele>
        <time>2021-05-23T06:30:22Z</time>
      </trkpt>
      <trkpt lat="42.6359170" lon="-8.6448690">
        <ele>75.1</ele>
        <time>2021-05-23T06:30:23Z</time>
      </trkpt>
      <trkpt lat="42.6359240" lon="-8.6448680">
        <ele>75.1</ele>
        <time>2021-05-23T06:30:24Z</time>
      </trkpt>
      <trkpt lat="42.6359300" lon="-8.6448680">
        <ele>75.1</ele>
        <time>2021-05-23T06:30:25Z</time>
      </trkpt>
      <trkpt lat="42.6359370" lon="-8.6448680">
        <ele>75.1</ele>
        <time>2021-05-23T06:30:26Z</time>
      </trkpt>
      <trkpt lat="42.6359420" lon="-8.6448760">
        <ele>75.1</ele>
        <time>2021-05-23T06:30:27Z</time>
      </trkpt>
      <trkpt lat="42.6359570" lon="-8.6448810">
        <ele>75.1</ele>
        <time>2021-05-23T06:30:28Z</time>
      </trkpt>
      <trkpt lat="42.6359660" lon="-8.6448780">
        <ele>75.1</ele>
        <time>2021-05-23T06:30:29Z</time>
      </trkpt>
      <trkpt lat="42.6359810" lon="-8.6448780">
        <ele>75.1</ele>
        <time>2021-05-23T06:30:30Z</time>
      </trkpt>
      <trkpt lat="42.6359940" lon="-8.6448890">
        <ele>75.0</ele>
        <time>2021-05-23T06:30:31Z</time>
      </trkpt>
      <trkpt lat="42.6360100" lon="-8.6448860">
        <ele>75.0</ele>
        <time>2021-05-23T06:30:32Z</time>
      </trkpt>
      <trkpt lat="42.6360240" lon="-8.6448870">
        <ele>75.0</ele>
        <time>2021-05-23T06:30:33Z</time>
      </trkpt>
      <trkpt lat="42.6360370" lon="-8.6448880">
        <ele>75.0</ele>
        <time>2021-05-23T06:30:34Z</time>
      </trkpt>
      <trkpt lat="42.6360520" lon="-8.6448920">
        <ele>75.0</ele>
        <time>2021-05-23T06:30:35Z</time>
      </trkpt>
      <trkpt lat="42.6360600" lon="-8.6448900">
        <ele>75.0</ele>
        <time>2021-05-23T06:30:36Z</time>
      </trkpt>
      <trkpt lat="42.6360670" lon="-8.6448870">
        <ele>75.0</ele>
        <time>2021-05-23T06:30:37Z</time>
      </trkpt>
      <trkpt lat="42.6360750" lon="-8.6448850">
        <ele>75.0</ele>
        <time>2021-05-23T06:30:38Z</time>
      </trkpt>
      <trkpt lat="42.6360860" lon="-8.6448950">
        <ele>75.0</ele>
        <time>2021-05-23T06:30:39Z</time>
      </trkpt>
      <trkpt lat="42.6361040" lon="-8.6448990">
        <ele>75.0</ele>
        <time>2021-05-23T06:30:40Z</time>
      </trkpt>
      <trkpt lat="42.6361180" lon="-8.6448930">
        <ele>75.0</ele>
        <time>2021-05-23T06:30:41Z</time>
      </trkpt>
      <trkpt lat="42.6361230" lon="-8.6448900">
        <ele>75.0</ele>
        <time>2021-05-23T06:30:42Z</time>
      </trkpt>
      <trkpt lat="42.6361400" lon="-8.6449010">
        <ele>75.0</ele>
        <time>2021-05-23T06:30:43Z</time>
      </trkpt>
      <trkpt lat="42.6361550" lon="-8.6449100">
        <ele>75.0</ele>
        <time>2021-05-23T06:30:44Z</time>
      </trkpt>
      <trkpt lat="42.6361720" lon="-8.6448970">
        <ele>75.0</ele>
        <time>2021-05-23T06:30:45Z</time>
      </trkpt>
      <trkpt lat="42.6361770" lon="-8.6448890">
        <ele>75.0</ele>
        <time>2021-05-23T06:30:46Z</time>
      </trkpt>
      <trkpt lat="42.6361860" lon="-8.6448820">
        <ele>75.0</ele>
        <time>2021-05-23T06:30:47Z</time>
      </trkpt>
      <trkpt lat="42.6362020" lon="-8.6448760">
        <ele>75.0</ele>
        <time>2021-05-23T06:30:48Z</time>
      </trkpt>
      <trkpt lat="42.6362140" lon="-8.6448800">
        <ele>75.0</ele>
        <time>2021-05-23T06:30:49Z</time>
      </trkpt>
      <trkpt lat="42.6362280" lon="-8.6448790">
        <ele>75.0</ele>
        <time>2021-05-23T06:30:50Z</time>
      </trkpt>
      <trkpt lat="42.6362360" lon="-8.6448700">
        <ele>75.0</ele>
        <time>2021-05-23T06:30:51Z</time>
      </trkpt>
      <trkpt lat="42.6362460" lon="-8.6448560">
        <ele>75.0</ele>
        <time>2021-05-23T06:30:52Z</time>
      </trkpt>
      <trkpt lat="42.6362560" lon="-8.6448570">
        <ele>75.0</ele>
        <time>2021-05-23T06:30:53Z</time>
      </trkpt>
      <trkpt lat="42.6362670" lon="-8.6448560">
        <ele>75.0</ele>
        <time>2021-05-23T06:30:54Z</time>
      </trkpt>
      <trkpt lat="42.6362750" lon="-8.6448490">
        <ele>75.0</ele>
        <time>2021-05-23T06:30:55Z</time>
      </trkpt>
      <trkpt lat="42.6362810" lon="-8.6448530">
        <ele>75.0</ele>
        <time>2021-05-23T06:30:56Z</time>
      </trkpt>
      <trkpt lat="42.6362920" lon="-8.6448630">
        <ele>75.0</ele>
        <time>2021-05-23T06:30:57Z</time>
      </trkpt>
      <trkpt lat="42.6363030" lon="-8.6448590">
        <ele>75.0</ele>
        <time>2021-05-23T06:30:58Z</time>
      </trkpt>
      <trkpt lat="42.6363150" lon="-8.6448640">
        <ele>75.0</ele>
        <time>2021-05-23T06:30:59Z</time>
      </trkpt>
      <trkpt lat="42.6363220" lon="-8.6448600">
        <ele>75.0</ele>
        <time>2021-05-23T06:31:00Z</time>
      </trkpt>
      <trkpt lat="42.6363380" lon="-8.6448580">
        <ele>75.0</ele>
        <time>2021-05-23T06:31:01Z</time>
      </trkpt>
      <trkpt lat="42.6363650" lon="-8.6448520">
        <ele>75.0</ele>
        <time>2021-05-23T06:31:02Z</time>
      </trkpt>
      <trkpt lat="42.6363720" lon="-8.6448480">
        <ele>75.0</ele>
        <time>2021-05-23T06:31:03Z</time>
      </trkpt>
      <trkpt lat="42.6363790" lon="-8.6448440">
        <ele>75.0</ele>
        <time>2021-05-23T06:31:04Z</time>
      </trkpt>
      <trkpt lat="42.6363900" lon="-8.6448450">
        <ele>75.0</ele>
        <time>2021-05-23T06:31:05Z</time>
      </trkpt>
      <trkpt lat="42.6363930" lon="-8.6448400">
        <ele>75.0</ele>
        <time>2021-05-23T06:31:06Z</time>
      </trkpt>
      <trkpt lat="42.6364050" lon="-8.6448320">
        <ele>75.0</ele>
        <time>2021-05-23T06:31:07Z</time>
      </trkpt>
      <trkpt lat="42.6364250" lon="-8.6448380">
        <ele>75.0</ele>
        <time>2021-05-23T06:31:08Z</time>
      </trkpt>
      <trkpt lat="42.6364330" lon="-8.6448410">
        <ele>75.0</ele>
        <time>2021-05-23T06:31:09Z</time>
      </trkpt>
      <trkpt lat="42.6364420" lon="-8.6448450">
        <ele>75.0</ele>
        <time>2021-05-23T06:31:10Z</time>
      </trkpt>
      <trkpt lat="42.6364630" lon="-8.6448440">
        <ele>75.1</ele>
        <time>2021-05-23T06:31:11Z</time>
      </trkpt>
      <trkpt lat="42.6364740" lon="-8.6448480">
        <ele>75.1</ele>
        <time>2021-05-23T06:31:12Z</time>
      </trkpt>
      <trkpt lat="42.6364840" lon="-8.6448510">
        <ele>75.1</ele>
        <time>2021-05-23T06:31:13Z</time>
      </trkpt>
      <trkpt lat="42.6365070" lon="-8.6448450">
        <ele>75.1</ele>
        <time>2021-05-23T06:31:14Z</time>
      </trkpt>
      <trkpt lat="42.6365160" lon="-8.6448410">
        <ele>75.1</ele>
        <time>2021-05-23T06:31:15Z</time>
      </trkpt>
      <trkpt lat="42.6365250" lon="-8.6448360">
        <ele>75.1</ele>
        <time>2021-05-23T06:31:16Z</time>
      </trkpt>
      <trkpt lat="42.6365380" lon="-8.6448350">
        <ele>75.1</ele>
        <time>2021-05-23T06:31:17Z</time>
      </trkpt>
      <trkpt lat="42.6365500" lon="-8.6448310">
        <ele>75.1</ele>
        <time>2021-05-23T06:31:18Z</time>
      </trkpt>
      <trkpt lat="42.6365580" lon="-8.6448310">
        <ele>75.1</ele>
        <time>2021-05-23T06:31:19Z</time>
      </trkpt>
      <trkpt lat="42.6365790" lon="-8.6448340">
        <ele>75.2</ele>
        <time>2021-05-23T06:31:20Z</time>
      </trkpt>
      <trkpt lat="42.6365870" lon="-8.6448340">
        <ele>75.2</ele>
        <time>2021-05-23T06:31:21Z</time>
      </trkpt>
      <trkpt lat="42.6365960" lon="-8.6448350">
        <ele>75.2</ele>
        <time>2021-05-23T06:31:22Z</time>
      </trkpt>
      <trkpt lat="42.6366190" lon="-8.6448360">
        <ele>75.2</ele>
        <time>2021-05-23T06:31:23Z</time>
      </trkpt>
      <trkpt lat="42.6366270" lon="-8.6448360">
        <ele>75.2</ele>
        <time>2021-05-23T06:31:24Z</time>
      </trkpt>
      <trkpt lat="42.6366340" lon="-8.6448370">
        <ele>75.2</ele>
        <time>2021-05-23T06:31:25Z</time>
      </trkpt>
      <trkpt lat="42.6366490" lon="-8.6448370">
        <ele>75.2</ele>
        <time>2021-05-23T06:31:26Z</time>
      </trkpt>
      <trkpt lat="42.6366620" lon="-8.6448350">
        <ele>75.2</ele>
        <time>2021-05-23T06:31:27Z</time>
      </trkpt>
      <trkpt lat="42.6366890" lon="-8.6448370">
        <ele>75.3</ele>
        <time>2021-05-23T06:31:28Z</time>
      </trkpt>
      <trkpt lat="42.6366950" lon="-8.6448380">
        <ele>75.3</ele>
        <time>2021-05-23T06:31:29Z</time>
      </trkpt>
      <trkpt lat="42.6367020" lon="-8.6448380">
        <ele>75.3</ele>
        <time>2021-05-23T06:31:30Z</time>
      </trkpt>
      <trkpt lat="42.6367130" lon="-8.6448380">
        <ele>75.3</ele>
        <time>2021-05-23T06:31:31Z</time>
      </trkpt>
      <trkpt lat="42.6367210" lon="-8.6448430">
        <ele>75.3</ele>
        <time>2021-05-23T06:31:32Z</time>
      </trkpt>
      <trkpt lat="42.6367370" lon="-8.6448390">
        <ele>75.3</ele>
        <time>2021-05-23T06:31:33Z</time>
      </trkpt>
      <trkpt lat="42.6367470" lon="-8.6448390">
        <ele>75.3</ele>
        <time>2021-05-23T06:31:34Z</time>
      </trkpt>
      <trkpt lat="42.6367590" lon="-8.6448330">
        <ele>75.3</ele>
        <time>2021-05-23T06:31:35Z</time>
      </trkpt>
      <trkpt lat="42.6367710" lon="-8.6448390">
        <ele>75.3</ele>
        <time>2021-05-23T06:31:36Z</time>
      </trkpt>
      <trkpt lat="42.6367780" lon="-8.6448390">
        <ele>75.3</ele>
        <time>2021-05-23T06:31:37Z</time>
      </trkpt>
      <trkpt lat="42.6367890" lon="-8.6448350">
        <ele>75.3</ele>
        <time>2021-05-23T06:31:38Z</time>
      </trkpt>
      <trkpt lat="42.6368050" lon="-8.6448390">
        <ele>75.3</ele>
        <time>2021-05-23T06:31:39Z</time>
      </trkpt>
      <trkpt lat="42.6368220" lon="-8.6448350">
        <ele>75.3</ele>
        <time>2021-05-23T06:31:40Z</time>
      </trkpt>
      <trkpt lat="42.6368290" lon="-8.6448350">
        <ele>75.3</ele>
        <time>2021-05-23T06:31:41Z</time>
      </trkpt>
      <trkpt lat="42.6368370" lon="-8.6448360">
        <ele>75.3</ele>
        <time>2021-05-23T06:31:42Z</time>
      </trkpt>
      <trkpt lat="42.6368440" lon="-8.6448360">
        <ele>75.3</ele>
        <time>2021-05-23T06:31:43Z</time>
      </trkpt>
      <trkpt lat="42.6368650" lon="-8.6448380">
        <ele>75.3</ele>
        <time>2021-05-23T06:31:44Z</time>
      </trkpt>
      <trkpt lat="42.6368730" lon="-8.6448420">
        <ele>75.3</ele>
        <time>2021-05-23T06:31:45Z</time>
      </trkpt>
      <trkpt lat="42.6368800" lon="-8.6448460">
        <ele>75.3</ele>
        <time>2021-05-23T06:31:46Z</time>
      </trkpt>
      <trkpt lat="42.6368860" lon="-8.6448450">
        <ele>75.3</ele>
        <time>2021-05-23T06:31:47Z</time>
      </trkpt>
      <trkpt lat="42.6368950" lon="-8.6448480">
        <ele>75.3</ele>
        <time>2021-05-23T06:31:48Z</time>
      </trkpt>
      <trkpt lat="42.6369170" lon="-8.6448440">
        <ele>75.3</ele>
        <time>2021-05-23T06:31:49Z</time>
      </trkpt>
      <trkpt lat="42.6369410" lon="-8.6448470">
        <ele>75.3</ele>
        <time>2021-05-23T06:31:50Z</time>
      </trkpt>
      <trkpt lat="42.6369490" lon="-8.6448490">
        <ele>75.4</ele>
        <time>2021-05-23T06:31:51Z</time>
      </trkpt>
      <trkpt lat="42.6369570" lon="-8.6448520">
        <ele>75.4</ele>
        <time>2021-05-23T06:31:52Z</time>
      </trkpt>
      <trkpt lat="42.6369600" lon="-8.6448610">
        <ele>75.4</ele>
        <time>2021-05-23T06:31:53Z</time>
      </trkpt>
      <trkpt lat="42.6369570" lon="-8.6448640">
        <ele>75.4</ele>
        <time>2021-05-23T06:31:54Z</time>
      </trkpt>
      <trkpt lat="42.6369580" lon="-8.6448770">
        <ele>75.4</ele>
        <time>2021-05-23T06:31:55Z</time>
      </trkpt>
      <trkpt lat="42.6369550" lon="-8.6448760">
        <ele>75.4</ele>
        <time>2021-05-23T06:31:56Z</time>
      </trkpt>
      <trkpt lat="42.6369570" lon="-8.6448800">
        <ele>75.4</ele>
        <time>2021-05-23T06:31:57Z</time>
      </trkpt>
      <trkpt lat="42.6369600" lon="-8.6448820">
        <ele>75.4</ele>
        <time>2021-05-23T06:31:58Z</time>
      </trkpt>
      <trkpt lat="42.6369590" lon="-8.6448780">
        <ele>75.4</ele>
        <time>2021-05-23T06:31:59Z</time>
      </trkpt>
      <trkpt lat="42.6369610" lon="-8.6448720">
        <ele>75.4</ele>
        <time>2021-05-23T06:32:00Z</time>
      </trkpt>
      <trkpt lat="42.6369660" lon="-8.6448720">
        <ele>75.4</ele>
        <time>2021-05-23T06:32:01Z</time>
      </trkpt>
      <trkpt lat="42.6369700" lon="-8.6448730">
        <ele>75.4</ele>
        <time>2021-05-23T06:32:02Z</time>
      </trkpt>
      <trkpt lat="42.6369790" lon="-8.6448660">
        <ele>75.4</ele>
        <time>2021-05-23T06:32:03Z</time>
      </trkpt>
      <trkpt lat="42.6369820" lon="-8.6448710">
        <ele>75.4</ele>
        <time>2021-05-23T06:32:04Z</time>
      </trkpt>
      <trkpt lat="42.6369890" lon="-8.6448640">
        <ele>75.4</ele>
        <time>2021-05-23T06:32:05Z</time>
      </trkpt>
      <trkpt lat="42.6369970" lon="-8.6448550">
        <ele>75.4</ele>
        <time>2021-05-23T06:32:06Z</time>
      </trkpt>
      <trkpt lat="42.6370040" lon="-8.6448470">
        <ele>75.4</ele>
        <time>2021-05-23T06:32:07Z</time>
      </trkpt>
      <trkpt lat="42.6370120" lon="-8.6448380">
        <ele>75.4</ele>
        <time>2021-05-23T06:32:08Z</time>
      </trkpt>
      <trkpt lat="42.6370230" lon="-8.6448300">
        <ele>75.4</ele>
        <time>2021-05-23T06:32:09Z</time>
      </trkpt>
      <trkpt lat="42.6370350" lon="-8.6448270">
        <ele>75.4</ele>
        <time>2021-05-23T06:32:10Z</time>
      </trkpt>
      <trkpt lat="42.6370430" lon="-8.6448170">
        <ele>75.4</ele>
        <time>2021-05-23T06:32:11Z</time>
      </trkpt>
      <trkpt lat="42.6370630" lon="-8.6448040">
        <ele>75.4</ele>
        <time>2021-05-23T06:32:12Z</time>
      </trkpt>
      <trkpt lat="42.6370710" lon="-8.6448000">
        <ele>75.4</ele>
        <time>2021-05-23T06:32:13Z</time>
      </trkpt>
      <trkpt lat="42.6370790" lon="-8.6447950">
        <ele>75.5</ele>
        <time>2021-05-23T06:32:14Z</time>
      </trkpt>
      <trkpt lat="42.6370920" lon="-8.6447820">
        <ele>75.5</ele>
        <time>2021-05-23T06:32:15Z</time>
      </trkpt>
      <trkpt lat="42.6371000" lon="-8.6447760">
        <ele>75.5</ele>
        <time>2021-05-23T06:32:16Z</time>
      </trkpt>
      <trkpt lat="42.6371070" lon="-8.6447710">
        <ele>75.5</ele>
        <time>2021-05-23T06:32:17Z</time>
      </trkpt>
      <trkpt lat="42.6371140" lon="-8.6447650">
        <ele>75.5</ele>
        <time>2021-05-23T06:32:18Z</time>
      </trkpt>
      <trkpt lat="42.6371250" lon="-8.6447610">
        <ele>75.5</ele>
        <time>2021-05-23T06:32:19Z</time>
      </trkpt>
      <trkpt lat="42.6371350" lon="-8.6447550">
        <ele>75.5</ele>
        <time>2021-05-23T06:32:20Z</time>
      </trkpt>
      <trkpt lat="42.6371470" lon="-8.6447530">
        <ele>75.5</ele>
        <time>2021-05-23T06:32:21Z</time>
      </trkpt>
      <trkpt lat="42.6371550" lon="-8.6447390">
        <ele>75.6</ele>
        <time>2021-05-23T06:32:22Z</time>
      </trkpt>
      <trkpt lat="42.6371580" lon="-8.6447360">
        <ele>75.6</ele>
        <time>2021-05-23T06:32:23Z</time>
      </trkpt>
      <trkpt lat="42.6371650" lon="-8.6447230">
        <ele>75.6</ele>
        <time>2021-05-23T06:32:24Z</time>
      </trkpt>
      <trkpt lat="42.6371740" lon="-8.6447110">
        <ele>75.6</ele>
        <time>2021-05-23T06:32:25Z</time>
      </trkpt>
      <trkpt lat="42.6371960" lon="-8.6447070">
        <ele>75.6</ele>
        <time>2021-05-23T06:32:26Z</time>
      </trkpt>
      <trkpt lat="42.6372060" lon="-8.6447020">
        <ele>75.6</ele>
        <time>2021-05-23T06:32:27Z</time>
      </trkpt>
      <trkpt lat="42.6372120" lon="-8.6446930">
        <ele>75.6</ele>
        <time>2021-05-23T06:32:28Z</time>
      </trkpt>
      <trkpt lat="42.6372230" lon="-8.6446880">
        <ele>75.7</ele>
        <time>2021-05-23T06:32:29Z</time>
      </trkpt>
      <trkpt lat="42.6372340" lon="-8.6446850">
        <ele>75.7</ele>
        <time>2021-05-23T06:32:30Z</time>
      </trkpt>
      <trkpt lat="42.6372470" lon="-8.6446780">
        <ele>75.7</ele>
        <time>2021-05-23T06:32:31Z</time>
      </trkpt>
      <trkpt lat="42.6372540" lon="-8.6446720">
        <ele>75.7</ele>
        <time>2021-05-23T06:32:32Z</time>
      </trkpt>
      <trkpt lat="42.6372700" lon="-8.6446680">
        <ele>75.7</ele>
        <time>2021-05-23T06:32:33Z</time>
      </trkpt>
      <trkpt lat="42.6372760" lon="-8.6446640">
        <ele>75.7</ele>
        <time>2021-05-23T06:32:34Z</time>
      </trkpt>
      <trkpt lat="42.6372770" lon="-8.6446560">
        <ele>75.7</ele>
        <time>2021-05-23T06:32:35Z</time>
      </trkpt>
      <trkpt lat="42.6372880" lon="-8.6446560">
        <ele>75.8</ele>
        <time>2021-05-23T06:32:36Z</time>
      </trkpt>
      <trkpt lat="42.6373010" lon="-8.6446430">
        <ele>75.8</ele>
        <time>2021-05-23T06:32:37Z</time>
      </trkpt>
      <trkpt lat="42.6373120" lon="-8.6446430">
        <ele>75.8</ele>
        <time>2021-05-23T06:32:38Z</time>
      </trkpt>
      <trkpt lat="42.6373200" lon="-8.6446450">
        <ele>75.8</ele>
        <time>2021-05-23T06:32:39Z</time>
      </trkpt>
      <trkpt lat="42.6373330" lon="-8.6446490">
        <ele>75.8</ele>
        <time>2021-05-23T06:32:40Z</time>
      </trkpt>
      <trkpt lat="42.6373380" lon="-8.6446460">
        <ele>75.9</ele>
        <time>2021-05-23T06:32:41Z</time>
      </trkpt>
      <trkpt lat="42.6373460" lon="-8.6446460">
        <ele>75.9</ele>
        <time>2021-05-23T06:32:42Z</time>
      </trkpt>
      <trkpt lat="42.6373500" lon="-8.6446400">
        <ele>75.9</ele>
        <time>2021-05-23T06:32:43Z</time>
      </trkpt>
      <trkpt lat="42.6373590" lon="-8.6446310">
        <ele>75.9</ele>
        <time>2021-05-23T06:32:44Z</time>
      </trkpt>
      <trkpt lat="42.6373660" lon="-8.6446250">
        <ele>75.9</ele>
        <time>2021-05-23T06:32:45Z</time>
      </trkpt>
      <trkpt lat="42.6373760" lon="-8.6446200">
        <ele>75.9</ele>
        <time>2021-05-23T06:32:46Z</time>
      </trkpt>
      <trkpt lat="42.6373900" lon="-8.6446110">
        <ele>76.0</ele>
        <time>2021-05-23T06:32:47Z</time>
      </trkpt>
      <trkpt lat="42.6374060" lon="-8.6446130">
        <ele>76.0</ele>
        <time>2021-05-23T06:32:48Z</time>
      </trkpt>
      <trkpt lat="42.6374170" lon="-8.6446170">
        <ele>76.0</ele>
        <time>2021-05-23T06:32:49Z</time>
      </trkpt>
      <trkpt lat="42.6374240" lon="-8.6446150">
        <ele>76.0</ele>
        <time>2021-05-23T06:32:50Z</time>
      </trkpt>
      <trkpt lat="42.6374360" lon="-8.6446150">
        <ele>76.1</ele>
        <time>2021-05-23T06:32:51Z</time>
      </trkpt>
      <trkpt lat="42.6374500" lon="-8.6446160">
        <ele>76.1</ele>
        <time>2021-05-23T06:32:52Z</time>
      </trkpt>
      <trkpt lat="42.6374630" lon="-8.6446220">
        <ele>76.1</ele>
        <time>2021-05-23T06:32:53Z</time>
      </trkpt>
      <trkpt lat="42.6374780" lon="-8.6446340">
        <ele>76.2</ele>
        <time>2021-05-23T06:32:54Z</time>
      </trkpt>
      <trkpt lat="42.6374890" lon="-8.6446420">
        <ele>76.2</ele>
        <time>2021-05-23T06:32:55Z</time>
      </trkpt>
      <trkpt lat="42.6375120" lon="-8.6446400">
        <ele>76.3</ele>
        <time>2021-05-23T06:32:56Z</time>
      </trkpt>
      <trkpt lat="42.6375190" lon="-8.6446420">
        <ele>76.3</ele>
        <time>2021-05-23T06:32:57Z</time>
      </trkpt>
      <trkpt lat="42.6375250" lon="-8.6446440">
        <ele>76.3</ele>
        <time>2021-05-23T06:32:58Z</time>
      </trkpt>
      <trkpt lat="42.6375340" lon="-8.6446490">
        <ele>76.3</ele>
        <time>2021-05-23T06:32:59Z</time>
      </trkpt>
      <trkpt lat="42.6375420" lon="-8.6446540">
        <ele>76.4</ele>
        <time>2021-05-23T06:33:00Z</time>
      </trkpt>
      <trkpt lat="42.6375480" lon="-8.6446620">
        <ele>76.4</ele>
        <time>2021-05-23T06:33:01Z</time>
      </trkpt>
      <trkpt lat="42.6375570" lon="-8.6446640">
        <ele>76.4</ele>
        <time>2021-05-23T06:33:02Z</time>
      </trkpt>
      <trkpt lat="42.6375660" lon="-8.6446580">
        <ele>76.5</ele>
        <time>2021-05-23T06:33:03Z</time>
      </trkpt>
      <trkpt lat="42.6375800" lon="-8.6446650">
        <ele>76.5</ele>
        <time>2021-05-23T06:33:04Z</time>
      </trkpt>
      <trkpt lat="42.6375850" lon="-8.6446740">
        <ele>76.5</ele>
        <time>2021-05-23T06:33:05Z</time>
      </trkpt>
      <trkpt lat="42.6376020" lon="-8.6446780">
        <ele>76.6</ele>
        <time>2021-05-23T06:33:06Z</time>
      </trkpt>
      <trkpt lat="42.6376090" lon="-8.6446790">
        <ele>76.6</ele>
        <time>2021-05-23T06:33:07Z</time>
      </trkpt>
      <trkpt lat="42.6376170" lon="-8.6446800">
        <ele>76.6</ele>
        <time>2021-05-23T06:33:08Z</time>
      </trkpt>
      <trkpt lat="42.6376240" lon="-8.6446810">
        <ele>76.6</ele>
        <time>2021-05-23T06:33:09Z</time>
      </trkpt>
      <trkpt lat="42.6376410" lon="-8.6446760">
        <ele>76.7</ele>
        <time>2021-05-23T06:33:10Z</time>
      </trkpt>
      <trkpt lat="42.6376490" lon="-8.6446800">
        <ele>76.7</ele>
        <time>2021-05-23T06:33:11Z</time>
      </trkpt>
      <trkpt lat="42.6376580" lon="-8.6446830">
        <ele>76.7</ele>
        <time>2021-05-23T06:33:12Z</time>
      </trkpt>
      <trkpt lat="42.6376660" lon="-8.6446870">
        <ele>76.8</ele>
        <time>2021-05-23T06:33:13Z</time>
      </trkpt>
      <trkpt lat="42.6376820" lon="-8.6447020">
        <ele>76.8</ele>
        <time>2021-05-23T06:33:14Z</time>
      </trkpt>
      <trkpt lat="42.6376850" lon="-8.6447020">
        <ele>76.8</ele>
        <time>2021-05-23T06:33:15Z</time>
      </trkpt>
      <trkpt lat="42.6376910" lon="-8.6447050">
        <ele>76.9</ele>
        <time>2021-05-23T06:33:16Z</time>
      </trkpt>
      <trkpt lat="42.6377050" lon="-8.6447120">
        <ele>76.9</ele>
        <time>2021-05-23T06:33:17Z</time>
      </trkpt>
      <trkpt lat="42.6377210" lon="-8.6447060">
        <ele>76.9</ele>
        <time>2021-05-23T06:33:18Z</time>
      </trkpt>
      <trkpt lat="42.6377360" lon="-8.6446930">
        <ele>77.0</ele>
        <time>2021-05-23T06:33:19Z</time>
      </trkpt>
      <trkpt lat="42.6377470" lon="-8.6446930">
        <ele>77.0</ele>
        <time>2021-05-23T06:33:20Z</time>
      </trkpt>
      <trkpt lat="42.6377570" lon="-8.6446920">
        <ele>77.1</ele>
        <time>2021-05-23T06:33:21Z</time>
      </trkpt>
      <trkpt lat="42.6377770" lon="-8.6446960">
        <ele>77.1</ele>
        <time>2021-05-23T06:33:22Z</time>
      </trkpt>
      <trkpt lat="42.6377840" lon="-8.6447040">
        <ele>77.2</ele>
        <time>2021-05-23T06:33:23Z</time>
      </trkpt>
      <trkpt lat="42.6378000" lon="-8.6446950">
        <ele>77.2</ele>
        <time>2021-05-23T06:33:24Z</time>
      </trkpt>
      <trkpt lat="42.6378050" lon="-8.6446850">
        <ele>77.2</ele>
        <time>2021-05-23T06:33:25Z</time>
      </trkpt>
      <trkpt lat="42.6378110" lon="-8.6446840">
        <ele>77.3</ele>
        <time>2021-05-23T06:33:26Z</time>
      </trkpt>
      <trkpt lat="42.6378250" lon="-8.6446930">
        <ele>77.3</ele>
        <time>2021-05-23T06:33:27Z</time>
      </trkpt>
      <trkpt lat="42.6378350" lon="-8.6446940">
        <ele>77.3</ele>
        <time>2021-05-23T06:33:28Z</time>
      </trkpt>
      <trkpt lat="42.6378450" lon="-8.6446880">
        <ele>77.4</ele>
        <time>2021-05-23T06:33:29Z</time>
      </trkpt>
      <trkpt lat="42.6378640" lon="-8.6446960">
        <ele>77.4</ele>
        <time>2021-05-23T06:33:30Z</time>
      </trkpt>
      <trkpt lat="42.6378700" lon="-8.6446950">
        <ele>77.5</ele>
        <time>2021-05-23T06:33:31Z</time>
      </trkpt>
      <trkpt lat="42.6378770" lon="-8.6446950">
        <ele>77.5</ele>
        <time>2021-05-23T06:33:32Z</time>
      </trkpt>
      <trkpt lat="42.6378830" lon="-8.6446940">
        <ele>77.5</ele>
        <time>2021-05-23T06:33:33Z</time>
      </trkpt>
      <trkpt lat="42.6378980" lon="-8.6446930">
        <ele>77.6</ele>
        <time>2021-05-23T06:33:34Z</time>
      </trkpt>
      <trkpt lat="42.6379140" lon="-8.6446870">
        <ele>77.6</ele>
        <time>2021-05-23T06:33:35Z</time>
      </trkpt>
      <trkpt lat="42.6379330" lon="-8.6446790">
        <ele>77.7</ele>
        <time>2021-05-23T06:33:36Z</time>
      </trkpt>
      <trkpt lat="42.6379410" lon="-8.6446780">
        <ele>77.7</ele>
        <time>2021-05-23T06:33:37Z</time>
      </trkpt>
      <trkpt lat="42.6379500" lon="-8.6446780">
        <ele>77.8</ele>
        <time>2021-05-23T06:33:38Z</time>
      </trkpt>
      <trkpt lat="42.6379690" lon="-8.6446830">
        <ele>77.8</ele>
        <time>2021-05-23T06:33:39Z</time>
      </trkpt>
      <trkpt lat="42.6379770" lon="-8.6446770">
        <ele>77.9</ele>
        <time>2021-05-23T06:33:40Z</time>
      </trkpt>
      <trkpt lat="42.6379920" lon="-8.6446660">
        <ele>77.9</ele>
        <time>2021-05-23T06:33:41Z</time>
      </trkpt>
      <trkpt lat="42.6380070" lon="-8.6446600">
        <ele>78.0</ele>
        <time>2021-05-23T06:33:42Z</time>
      </trkpt>
      <trkpt lat="42.6380220" lon="-8.6446620">
        <ele>78.0</ele>
        <time>2021-05-23T06:33:43Z</time>
      </trkpt>
      <trkpt lat="42.6380390" lon="-8.6446600">
        <ele>78.1</ele>
        <time>2021-05-23T06:33:44Z</time>
      </trkpt>
      <trkpt lat="42.6380500" lon="-8.6446570">
        <ele>78.1</ele>
        <time>2021-05-23T06:33:45Z</time>
      </trkpt>
      <trkpt lat="42.6380520" lon="-8.6446540">
        <ele>78.1</ele>
        <time>2021-05-23T06:33:46Z</time>
      </trkpt>
      <trkpt lat="42.6380650" lon="-8.6446500">
        <ele>78.2</ele>
        <time>2021-05-23T06:33:47Z</time>
      </trkpt>
      <trkpt lat="42.6380690" lon="-8.6446520">
        <ele>78.2</ele>
        <time>2021-05-23T06:33:48Z</time>
      </trkpt>
      <trkpt lat="42.6380860" lon="-8.6446530">
        <ele>78.2</ele>
        <time>2021-05-23T06:33:49Z</time>
      </trkpt>
      <trkpt lat="42.6381030" lon="-8.6446480">
        <ele>78.3</ele>
        <time>2021-05-23T06:33:50Z</time>
      </trkpt>
      <trkpt lat="42.6381200" lon="-8.6446480">
        <ele>78.3</ele>
        <time>2021-05-23T06:33:51Z</time>
      </trkpt>
      <trkpt lat="42.6381340" lon="-8.6446460">
        <ele>78.4</ele>
        <time>2021-05-23T06:33:52Z</time>
      </trkpt>
      <trkpt lat="42.6381510" lon="-8.6446440">
        <ele>78.4</ele>
        <time>2021-05-23T06:33:53Z</time>
      </trkpt>
      <trkpt lat="42.6381600" lon="-8.6446450">
        <ele>78.4</ele>
        <time>2021-05-23T06:33:54Z</time>
      </trkpt>
      <trkpt lat="42.6381680" lon="-8.6446470">
        <ele>78.5</ele>
        <time>2021-05-23T06:33:55Z</time>
      </trkpt>
      <trkpt lat="42.6381770" lon="-8.6446480">
        <ele>78.5</ele>
        <time>2021-05-23T06:33:56Z</time>
      </trkpt>
      <trkpt lat="42.6381930" lon="-8.6446410">
        <ele>78.5</ele>
        <time>2021-05-23T06:33:57Z</time>
      </trkpt>
      <trkpt lat="42.6381990" lon="-8.6446400">
        <ele>78.5</ele>
        <time>2021-05-23T06:33:58Z</time>
      </trkpt>
      <trkpt lat="42.6382040" lon="-8.6446380">
        <ele>78.6</ele>
        <time>2021-05-23T06:33:59Z</time>
      </trkpt>
      <trkpt lat="42.6382100" lon="-8.6446370">
        <ele>78.6</ele>
        <time>2021-05-23T06:34:00Z</time>
      </trkpt>
      <trkpt lat="42.6382150" lon="-8.6446350">
        <ele>78.6</ele>
        <time>2021-05-23T06:34:01Z</time>
      </trkpt>
      <trkpt lat="42.6382120" lon="-8.6446350">
        <ele>78.6</ele>
        <time>2021-05-23T06:34:02Z</time>
      </trkpt>
      <trkpt lat="42.6382230" lon="-8.6446370">
        <ele>78.6</ele>
        <time>2021-05-23T06:34:03Z</time>
      </trkpt>
      <trkpt lat="42.6382430" lon="-8.6446340">
        <ele>78.7</ele>
        <time>2021-05-23T06:34:04Z</time>
      </trkpt>
      <trkpt lat="42.6382570" lon="-8.6446360">
        <ele>78.7</ele>
        <time>2021-05-23T06:34:05Z</time>
      </trkpt>
      <trkpt lat="42.6382660" lon="-8.6446250">
        <ele>78.7</ele>
        <time>2021-05-23T06:34:06Z</time>
      </trkpt>
      <trkpt lat="42.6382700" lon="-8.6446130">
        <ele>78.7</ele>
        <time>2021-05-23T06:34:07Z</time>
      </trkpt>
      <trkpt lat="42.6382740" lon="-8.6446120">
        <ele>78.8</ele>
        <time>2021-05-23T06:34:08Z</time>
      </trkpt>
      <trkpt lat="42.6382830" lon="-8.6446160">
        <ele>78.8</ele>
        <time>2021-05-23T06:34:09Z</time>
      </trkpt>
      <trkpt lat="42.6382930" lon="-8.6446080">
        <ele>78.8</ele>
        <time>2021-05-23T06:34:10Z</time>
      </trkpt>
      <trkpt lat="42.6382990" lon="-8.6446060">
        <ele>78.8</ele>
        <time>2021-05-23T06:34:11Z</time>
      </trkpt>
      <trkpt lat="42.6383130" lon="-8.6445990">
        <ele>78.9</ele>
        <time>2021-05-23T06:34:12Z</time>
      </trkpt>
      <trkpt lat="42.6383250" lon="-8.6445890">
        <ele>78.9</ele>
        <time>2021-05-23T06:34:13Z</time>
      </trkpt>
      <trkpt lat="42.6383360" lon="-8.6445780">
        <ele>78.9</ele>
        <time>2021-05-23T06:34:14Z</time>
      </trkpt>
      <trkpt lat="42.6383610" lon="-8.6445790">
        <ele>79.0</ele>
        <time>2021-05-23T06:34:15Z</time>
      </trkpt>
      <trkpt lat="42.6383680" lon="-8.6445770">
        <ele>79.0</ele>
        <time>2021-05-23T06:34:16Z</time>
      </trkpt>
      <trkpt lat="42.6383810" lon="-8.6445740">
        <ele>79.0</ele>
        <time>2021-05-23T06:34:17Z</time>
      </trkpt>
      <trkpt lat="42.6383990" lon="-8.6445630">
        <ele>79.1</ele>
        <time>2021-05-23T06:34:18Z</time>
      </trkpt>
      <trkpt lat="42.6384090" lon="-8.6445640">
        <ele>79.1</ele>
        <time>2021-05-23T06:34:19Z</time>
      </trkpt>
      <trkpt lat="42.6384200" lon="-8.6445640">
        <ele>79.1</ele>
        <time>2021-05-23T06:34:20Z</time>
      </trkpt>
      <trkpt lat="42.6384340" lon="-8.6445480">
        <ele>79.2</ele>
        <time>2021-05-23T06:34:21Z</time>
      </trkpt>
      <trkpt lat="42.6384570" lon="-8.6445410">
        <ele>79.3</ele>
        <time>2021-05-23T06:34:22Z</time>
      </trkpt>
      <trkpt lat="42.6384680" lon="-8.6445390">
        <ele>79.3</ele>
        <time>2021-05-23T06:34:23Z</time>
      </trkpt>
      <trkpt lat="42.6384790" lon="-8.6445370">
        <ele>79.3</ele>
        <time>2021-05-23T06:34:24Z</time>
      </trkpt>
      <trkpt lat="42.6384850" lon="-8.6445290">
        <ele>79.3</ele>
        <time>2021-05-23T06:34:25Z</time>
      </trkpt>
      <trkpt lat="42.6385000" lon="-8.6445270">
        <ele>79.4</ele>
        <time>2021-05-23T06:34:26Z</time>
      </trkpt>
      <trkpt lat="42.6385160" lon="-8.6445350">
        <ele>79.5</ele>
        <time>2021-05-23T06:34:27Z</time>
      </trkpt>
      <trkpt lat="42.6385380" lon="-8.6445340">
        <ele>79.5</ele>
        <time>2021-05-23T06:34:28Z</time>
      </trkpt>
      <trkpt lat="42.6385460" lon="-8.6445340">
        <ele>79.6</ele>
        <time>2021-05-23T06:34:29Z</time>
      </trkpt>
      <trkpt lat="42.6385550" lon="-8.6445330">
        <ele>79.6</ele>
        <time>2021-05-23T06:34:30Z</time>
      </trkpt>
      <trkpt lat="42.6385760" lon="-8.6445360">
        <ele>79.7</ele>
        <time>2021-05-23T06:34:31Z</time>
      </trkpt>
      <trkpt lat="42.6385890" lon="-8.6445350">
        <ele>79.7</ele>
        <time>2021-05-23T06:34:32Z</time>
      </trkpt>
      <trkpt lat="42.6386000" lon="-8.6445280">
        <ele>79.8</ele>
        <time>2021-05-23T06:34:33Z</time>
      </trkpt>
      <trkpt lat="42.6386040" lon="-8.6445140">
        <ele>79.8</ele>
        <time>2021-05-23T06:34:34Z</time>
      </trkpt>
      <trkpt lat="42.6386140" lon="-8.6445110">
        <ele>79.9</ele>
        <time>2021-05-23T06:34:35Z</time>
      </trkpt>
      <trkpt lat="42.6386400" lon="-8.6445050">
        <ele>80.0</ele>
        <time>2021-05-23T06:34:36Z</time>
      </trkpt>
      <trkpt lat="42.6386460" lon="-8.6445010">
        <ele>80.0</ele>
        <time>2021-05-23T06:34:37Z</time>
      </trkpt>
      <trkpt lat="42.6386530" lon="-8.6444970">
        <ele>80.0</ele>
        <time>2021-05-23T06:34:38Z</time>
      </trkpt>
      <trkpt lat="42.6386620" lon="-8.6444920">
        <ele>80.1</ele>
        <time>2021-05-23T06:34:39Z</time>
      </trkpt>
      <trkpt lat="42.6386710" lon="-8.6444830">
        <ele>80.1</ele>
        <time>2021-05-23T06:34:40Z</time>
      </trkpt>
      <trkpt lat="42.6386840" lon="-8.6444820">
        <ele>80.2</ele>
        <time>2021-05-23T06:34:41Z</time>
      </trkpt>
      <trkpt lat="42.6386980" lon="-8.6444860">
        <ele>80.3</ele>
        <time>2021-05-23T06:34:42Z</time>
      </trkpt>
      <trkpt lat="42.6387110" lon="-8.6444900">
        <ele>80.3</ele>
        <time>2021-05-23T06:34:43Z</time>
      </trkpt>
      <trkpt lat="42.6387230" lon="-8.6444890">
        <ele>80.4</ele>
        <time>2021-05-23T06:34:44Z</time>
      </trkpt>
      <trkpt lat="42.6387280" lon="-8.6444940">
        <ele>80.4</ele>
        <time>2021-05-23T06:34:45Z</time>
      </trkpt>
      <trkpt lat="42.6387350" lon="-8.6444930">
        <ele>80.4</ele>
        <time>2021-05-23T06:34:46Z</time>
      </trkpt>
      <trkpt lat="42.6387450" lon="-8.6444890">
        <ele>80.5</ele>
        <time>2021-05-23T06:34:47Z</time>
      </trkpt>
      <trkpt lat="42.6387660" lon="-8.6444840">
        <ele>80.6</ele>
        <time>2021-05-23T06:34:48Z</time>
      </trkpt>
      <trkpt lat="42.6387740" lon="-8.6444810">
        <ele>80.6</ele>
        <time>2021-05-23T06:34:49Z</time>
      </trkpt>
      <trkpt lat="42.6387830" lon="-8.6444780">
        <ele>80.6</ele>
        <time>2021-05-23T06:34:50Z</time>
      </trkpt>
      <trkpt lat="42.6387980" lon="-8.6444710">
        <ele>80.7</ele>
        <time>2021-05-23T06:34:51Z</time>
      </trkpt>
      <trkpt lat="42.6388040" lon="-8.6444650">
        <ele>80.7</ele>
        <time>2021-05-23T06:34:52Z</time>
      </trkpt>
      <trkpt lat="42.6388180" lon="-8.6444700">
        <ele>80.8</ele>
        <time>2021-05-23T06:34:53Z</time>
      </trkpt>
      <trkpt lat="42.6388460" lon="-8.6444720">
        <ele>80.9</ele>
        <time>2021-05-23T06:34:54Z</time>
      </trkpt>
      <trkpt lat="42.6388580" lon="-8.6444770">
        <ele>81.0</ele>
        <time>2021-05-23T06:34:55Z</time>
      </trkpt>
      <trkpt lat="42.6388610" lon="-8.6444740">
        <ele>81.0</ele>
        <time>2021-05-23T06:34:56Z</time>
      </trkpt>
      <trkpt lat="42.6388610" lon="-8.6444710">
        <ele>81.0</ele>
        <time>2021-05-23T06:34:57Z</time>
      </trkpt>
      <trkpt lat="42.6388710" lon="-8.6444670">
        <ele>81.1</ele>
        <time>2021-05-23T06:34:58Z</time>
      </trkpt>
      <trkpt lat="42.6388860" lon="-8.6444790">
        <ele>81.1</ele>
        <time>2021-05-23T06:34:59Z</time>
      </trkpt>
      <trkpt lat="42.6389000" lon="-8.6444650">
        <ele>81.2</ele>
        <time>2021-05-23T06:35:00Z</time>
      </trkpt>
      <trkpt lat="42.6389090" lon="-8.6444590">
        <ele>81.3</ele>
        <time>2021-05-23T06:35:01Z</time>
      </trkpt>
      <trkpt lat="42.6389220" lon="-8.6444550">
        <ele>81.3</ele>
        <time>2021-05-23T06:35:02Z</time>
      </trkpt>
      <trkpt lat="42.6389350" lon="-8.6444520">
        <ele>81.4</ele>
        <time>2021-05-23T06:35:03Z</time>
      </trkpt>
      <trkpt lat="42.6389440" lon="-8.6444540">
        <ele>81.4</ele>
        <time>2021-05-23T06:35:04Z</time>
      </trkpt>
      <trkpt lat="42.6389640" lon="-8.6444450">
        <ele>81.5</ele>
        <time>2021-05-23T06:35:05Z</time>
      </trkpt>
      <trkpt lat="42.6389750" lon="-8.6444440">
        <ele>81.6</ele>
        <time>2021-05-23T06:35:06Z</time>
      </trkpt>
      <trkpt lat="42.6389870" lon="-8.6444430">
        <ele>81.6</ele>
        <time>2021-05-23T06:35:07Z</time>
      </trkpt>
      <trkpt lat="42.6389980" lon="-8.6444460">
        <ele>81.7</ele>
        <time>2021-05-23T06:35:08Z</time>
      </trkpt>
      <trkpt lat="42.6390110" lon="-8.6444420">
        <ele>81.7</ele>
        <time>2021-05-23T06:35:09Z</time>
      </trkpt>
      <trkpt lat="42.6390220" lon="-8.6444390">
        <ele>81.8</ele>
        <time>2021-05-23T06:35:10Z</time>
      </trkpt>
      <trkpt lat="42.6390450" lon="-8.6444310">
        <ele>81.9</ele>
        <time>2021-05-23T06:35:11Z</time>
      </trkpt>
      <trkpt lat="42.6390530" lon="-8.6444320">
        <ele>81.9</ele>
        <time>2021-05-23T06:35:12Z</time>
      </trkpt>
      <trkpt lat="42.6390610" lon="-8.6444320">
        <ele>81.9</ele>
        <time>2021-05-23T06:35:13Z</time>
      </trkpt>
      <trkpt lat="42.6390810" lon="-8.6444280">
        <ele>82.0</ele>
        <time>2021-05-23T06:35:14Z</time>
      </trkpt>
      <trkpt lat="42.6390930" lon="-8.6444240">
        <ele>82.1</ele>
        <time>2021-05-23T06:35:15Z</time>
      </trkpt>
      <trkpt lat="42.6391040" lon="-8.6444210">
        <ele>82.1</ele>
        <time>2021-05-23T06:35:16Z</time>
      </trkpt>
      <trkpt lat="42.6391100" lon="-8.6444110">
        <ele>82.2</ele>
        <time>2021-05-23T06:35:17Z</time>
      </trkpt>
      <trkpt lat="42.6391300" lon="-8.6444100">
        <ele>82.2</ele>
        <time>2021-05-23T06:35:18Z</time>
      </trkpt>
      <trkpt lat="42.6391390" lon="-8.6444100">
        <ele>82.3</ele>
        <time>2021-05-23T06:35:19Z</time>
      </trkpt>
      <trkpt lat="42.6391440" lon="-8.6443900">
        <ele>82.3</ele>
        <time>2021-05-23T06:35:20Z</time>
      </trkpt>
      <trkpt lat="42.6391500" lon="-8.6443790">
        <ele>82.4</ele>
        <time>2021-05-23T06:35:21Z</time>
      </trkpt>
      <trkpt lat="42.6391690" lon="-8.6443650">
        <ele>82.5</ele>
        <time>2021-05-23T06:35:22Z</time>
      </trkpt>
      <trkpt lat="42.6391760" lon="-8.6443600">
        <ele>82.5</ele>
        <time>2021-05-23T06:35:23Z</time>
      </trkpt>
      <trkpt lat="42.6391840" lon="-8.6443550">
        <ele>82.5</ele>
        <time>2021-05-23T06:35:24Z</time>
      </trkpt>
      <trkpt lat="42.6392120" lon="-8.6443590">
        <ele>82.6</ele>
        <time>2021-05-23T06:35:25Z</time>
      </trkpt>
      <trkpt lat="42.6392210" lon="-8.6443590">
        <ele>82.7</ele>
        <time>2021-05-23T06:35:26Z</time>
      </trkpt>
      <trkpt lat="42.6392320" lon="-8.6443550">
        <ele>82.7</ele>
        <time>2021-05-23T06:35:27Z</time>
      </trkpt>
      <trkpt lat="42.6392470" lon="-8.6443530">
        <ele>82.8</ele>
        <time>2021-05-23T06:35:28Z</time>
      </trkpt>
      <trkpt lat="42.6392560" lon="-8.6443500">
        <ele>82.8</ele>
        <time>2021-05-23T06:35:29Z</time>
      </trkpt>
      <trkpt lat="42.6392680" lon="-8.6443410">
        <ele>82.9</ele>
        <time>2021-05-23T06:35:30Z</time>
      </trkpt>
      <trkpt lat="42.6392870" lon="-8.6443370">
        <ele>83.0</ele>
        <time>2021-05-23T06:35:31Z</time>
      </trkpt>
      <trkpt lat="42.6392960" lon="-8.6443270">
        <ele>83.0</ele>
        <time>2021-05-23T06:35:32Z</time>
      </trkpt>
      <trkpt lat="42.6393030" lon="-8.6443250">
        <ele>83.0</ele>
        <time>2021-05-23T06:35:33Z</time>
      </trkpt>
      <trkpt lat="42.6393190" lon="-8.6443260">
        <ele>83.1</ele>
        <time>2021-05-23T06:35:34Z</time>
      </trkpt>
      <trkpt lat="42.6393240" lon="-8.6443200">
        <ele>83.1</ele>
        <time>2021-05-23T06:35:35Z</time>
      </trkpt>
      <trkpt lat="42.6393360" lon="-8.6443130">
        <ele>83.2</ele>
        <time>2021-05-23T06:35:36Z</time>
      </trkpt>
      <trkpt lat="42.6393450" lon="-8.6443120">
        <ele>83.2</ele>
        <time>2021-05-23T06:35:37Z</time>
      </trkpt>
      <trkpt lat="42.6393510" lon="-8.6443020">
        <ele>83.2</ele>
        <time>2021-05-23T06:35:38Z</time>
      </trkpt>
      <trkpt lat="42.6393600" lon="-8.6442900">
        <ele>83.3</ele>
        <time>2021-05-23T06:35:39Z</time>
      </trkpt>
      <trkpt lat="42.6393750" lon="-8.6442860">
        <ele>83.3</ele>
        <time>2021-05-23T06:35:40Z</time>
      </trkpt>
      <trkpt lat="42.6393810" lon="-8.6442790">
        <ele>83.4</ele>
        <time>2021-05-23T06:35:41Z</time>
      </trkpt>
      <trkpt lat="42.6393860" lon="-8.6442780">
        <ele>83.4</ele>
        <time>2021-05-23T06:35:42Z</time>
      </trkpt>
      <trkpt lat="42.6393950" lon="-8.6442720">
        <ele>83.4</ele>
        <time>2021-05-23T06:35:43Z</time>
      </trkpt>
      <trkpt lat="42.6394090" lon="-8.6442690">
        <ele>83.5</ele>
        <time>2021-05-23T06:35:44Z</time>
      </trkpt>
      <trkpt lat="42.6394140" lon="-8.6442620">
        <ele>83.5</ele>
        <time>2021-05-23T06:35:45Z</time>
      </trkpt>
      <trkpt lat="42.6394260" lon="-8.6442490">
        <ele>83.5</ele>
        <time>2021-05-23T06:35:46Z</time>
      </trkpt>
      <trkpt lat="42.6394350" lon="-8.6442460">
        <ele>83.6</ele>
        <time>2021-05-23T06:35:47Z</time>
      </trkpt>
      <trkpt lat="42.6394470" lon="-8.6442380">
        <ele>83.6</ele>
        <time>2021-05-23T06:35:48Z</time>
      </trkpt>
      <trkpt lat="42.6394500" lon="-8.6442330">
        <ele>83.6</ele>
        <time>2021-05-23T06:35:49Z</time>
      </trkpt>
      <trkpt lat="42.6394670" lon="-8.6442310">
        <ele>83.7</ele>
        <time>2021-05-23T06:35:50Z</time>
      </trkpt>
      <trkpt lat="42.6394780" lon="-8.6442320">
        <ele>83.7</ele>
        <time>2021-05-23T06:35:51Z</time>
      </trkpt>
      <trkpt lat="42.6394880" lon="-8.6442370">
        <ele>83.7</ele>
        <time>2021-05-23T06:35:52Z</time>
      </trkpt>
      <trkpt lat="42.6394980" lon="-8.6442310">
        <ele>83.8</ele>
        <time>2021-05-23T06:35:53Z</time>
      </trkpt>
      <trkpt lat="42.6395050" lon="-8.6442110">
        <ele>83.8</ele>
        <time>2021-05-23T06:35:54Z</time>
      </trkpt>
      <trkpt lat="42.6395210" lon="-8.6442080">
        <ele>83.9</ele>
        <time>2021-05-23T06:35:55Z</time>
      </trkpt>
      <trkpt lat="42.6395390" lon="-8.6441960">
        <ele>83.9</ele>
        <time>2021-05-23T06:35:56Z</time>
      </trkpt>
      <trkpt lat="42.6395480" lon="-8.6441930">
        <ele>83.9</ele>
        <time>2021-05-23T06:35:57Z</time>
      </trkpt>
      <trkpt lat="42.6395560" lon="-8.6441910">
        <ele>83.9</ele>
        <time>2021-05-23T06:35:58Z</time>
      </trkpt>
      <trkpt lat="42.6395580" lon="-8.6441770">
        <ele>84.0</ele>
        <time>2021-05-23T06:35:59Z</time>
      </trkpt>
      <trkpt lat="42.6395700" lon="-8.6441740">
        <ele>84.0</ele>
        <time>2021-05-23T06:36:00Z</time>
      </trkpt>
      <trkpt lat="42.6395860" lon="-8.6441620">
        <ele>84.0</ele>
        <time>2021-05-23T06:36:01Z</time>
      </trkpt>
      <trkpt lat="42.6396020" lon="-8.6441530">
        <ele>84.0</ele>
        <time>2021-05-23T06:36:02Z</time>
      </trkpt>
      <trkpt lat="42.6396150" lon="-8.6441380">
        <ele>84.0</ele>
        <time>2021-05-23T06:36:03Z</time>
      </trkpt>
      <trkpt lat="42.6396310" lon="-8.6441220">
        <ele>84.0</ele>
        <time>2021-05-23T06:36:04Z</time>
      </trkpt>
      <trkpt lat="42.6396350" lon="-8.6441160">
        <ele>84.0</ele>
        <time>2021-05-23T06:36:05Z</time>
      </trkpt>
      <trkpt lat="42.6396420" lon="-8.6441060">
        <ele>84.0</ele>
        <time>2021-05-23T06:36:06Z</time>
      </trkpt>
      <trkpt lat="42.6396530" lon="-8.6440840">
        <ele>84.0</ele>
        <time>2021-05-23T06:36:07Z</time>
      </trkpt>
      <trkpt lat="42.6396600" lon="-8.6440730">
        <ele>84.0</ele>
        <time>2021-05-23T06:36:08Z</time>
      </trkpt>
      <trkpt lat="42.6396660" lon="-8.6440620">
        <ele>84.0</ele>
        <time>2021-05-23T06:36:09Z</time>
      </trkpt>
      <trkpt lat="42.6396800" lon="-8.6440520">
        <ele>84.0</ele>
        <time>2021-05-23T06:36:10Z</time>
      </trkpt>
      <trkpt lat="42.6396940" lon="-8.6440480">
        <ele>83.9</ele>
        <time>2021-05-23T06:36:11Z</time>
      </trkpt>
      <trkpt lat="42.6396970" lon="-8.6440290">
        <ele>83.9</ele>
        <time>2021-05-23T06:36:12Z</time>
      </trkpt>
      <trkpt lat="42.6397070" lon="-8.6440150">
        <ele>83.9</ele>
        <time>2021-05-23T06:36:13Z</time>
      </trkpt>
      <trkpt lat="42.6397170" lon="-8.6440060">
        <ele>83.9</ele>
        <time>2021-05-23T06:36:14Z</time>
      </trkpt>
      <trkpt lat="42.6397300" lon="-8.6439910">
        <ele>83.8</ele>
        <time>2021-05-23T06:36:15Z</time>
      </trkpt>
      <trkpt lat="42.6397370" lon="-8.6439890">
        <ele>83.8</ele>
        <time>2021-05-23T06:36:16Z</time>
      </trkpt>
      <trkpt lat="42.6397430" lon="-8.6439790">
        <ele>83.8</ele>
        <time>2021-05-23T06:36:17Z</time>
      </trkpt>
      <trkpt lat="42.6397530" lon="-8.6439720">
        <ele>83.8</ele>
        <time>2021-05-23T06:36:18Z</time>
      </trkpt>
      <trkpt lat="42.6397710" lon="-8.6439480">
        <ele>83.7</ele>
        <time>2021-05-23T06:36:19Z</time>
      </trkpt>
      <trkpt lat="42.6397780" lon="-8.6439390">
        <ele>83.7</ele>
        <time>2021-05-23T06:36:20Z</time>
      </trkpt>
      <trkpt lat="42.6397840" lon="-8.6439290">
        <ele>83.6</ele>
        <time>2021-05-23T06:36:21Z</time>
      </trkpt>
      <trkpt lat="42.6397830" lon="-8.6439140">
        <ele>83.6</ele>
        <time>2021-05-23T06:36:22Z</time>
      </trkpt>
      <trkpt lat="42.6397920" lon="-8.6438910">
        <ele>83.6</ele>
        <time>2021-05-23T06:36:23Z</time>
      </trkpt>
      <trkpt lat="42.6398010" lon="-8.6438680">
        <ele>83.5</ele>
        <time>2021-05-23T06:36:24Z</time>
      </trkpt>
      <trkpt lat="42.6398130" lon="-8.6438580">
        <ele>83.5</ele>
        <time>2021-05-23T06:36:25Z</time>
      </trkpt>
      <trkpt lat="42.6398280" lon="-8.6438360">
        <ele>83.4</ele>
        <time>2021-05-23T06:36:26Z</time>
      </trkpt>
      <trkpt lat="42.6398340" lon="-8.6438270">
        <ele>83.4</ele>
        <time>2021-05-23T06:36:27Z</time>
      </trkpt>
      <trkpt lat="42.6398400" lon="-8.6438180">
        <ele>83.4</ele>
        <time>2021-05-23T06:36:28Z</time>
      </trkpt>
      <trkpt lat="42.6398450" lon="-8.6438010">
        <ele>83.4</ele>
        <time>2021-05-23T06:36:29Z</time>
      </trkpt>
      <trkpt lat="42.6398480" lon="-8.6437800">
        <ele>83.3</ele>
        <time>2021-05-23T06:36:30Z</time>
      </trkpt>
      <trkpt lat="42.6398600" lon="-8.6437700">
        <ele>83.3</ele>
        <time>2021-05-23T06:36:31Z</time>
      </trkpt>
      <trkpt lat="42.6398680" lon="-8.6437520">
        <ele>83.3</ele>
        <time>2021-05-23T06:36:32Z</time>
      </trkpt>
      <trkpt lat="42.6398730" lon="-8.6437370">
        <ele>83.3</ele>
        <time>2021-05-23T06:36:33Z</time>
      </trkpt>
      <trkpt lat="42.6398810" lon="-8.6437220">
        <ele>83.3</ele>
        <time>2021-05-23T06:36:34Z</time>
      </trkpt>
      <trkpt lat="42.6398960" lon="-8.6437220">
        <ele>83.2</ele>
        <time>2021-05-23T06:36:35Z</time>
      </trkpt>
      <trkpt lat="42.6399170" lon="-8.6437060">
        <ele>83.2</ele>
        <time>2021-05-23T06:36:36Z</time>
      </trkpt>
      <trkpt lat="42.6399240" lon="-8.6437000">
        <ele>83.2</ele>
        <time>2021-05-23T06:36:37Z</time>
      </trkpt>
      <trkpt lat="42.6399320" lon="-8.6436950">
        <ele>83.2</ele>
        <time>2021-05-23T06:36:38Z</time>
      </trkpt>
      <trkpt lat="42.6399450" lon="-8.6436900">
        <ele>83.2</ele>
        <time>2021-05-23T06:36:39Z</time>
      </trkpt>
      <trkpt lat="42.6399570" lon="-8.6436740">
        <ele>83.2</ele>
        <time>2021-05-23T06:36:40Z</time>
      </trkpt>
      <trkpt lat="42.6399800" lon="-8.6436740">
        <ele>83.2</ele>
        <time>2021-05-23T06:36:41Z</time>
      </trkpt>
      <trkpt lat="42.6399880" lon="-8.6436700">
        <ele>83.1</ele>
        <time>2021-05-23T06:36:42Z</time>
      </trkpt>
      <trkpt lat="42.6399960" lon="-8.6436670">
        <ele>83.1</ele>
        <time>2021-05-23T06:36:43Z</time>
      </trkpt>
      <trkpt lat="42.6400040" lon="-8.6436530">
        <ele>83.1</ele>
        <time>2021-05-23T06:36:44Z</time>
      </trkpt>
      <trkpt lat="42.6400150" lon="-8.6436580">
        <ele>83.1</ele>
        <time>2021-05-23T06:36:45Z</time>
      </trkpt>
      <trkpt lat="42.6400260" lon="-8.6436460">
        <ele>83.1</ele>
        <time>2021-05-23T06:36:46Z</time>
      </trkpt>
      <trkpt lat="42.6400370" lon="-8.6436450">
        <ele>83.1</ele>
        <time>2021-05-23T06:36:47Z</time>
      </trkpt>
      <trkpt lat="42.6400520" lon="-8.6436300">
        <ele>83.1</ele>
        <time>2021-05-23T06:36:48Z</time>
      </trkpt>
      <trkpt lat="42.6400600" lon="-8.6436200">
        <ele>83.1</ele>
        <time>2021-05-23T06:36:49Z</time>
      </trkpt>
      <trkpt lat="42.6400680" lon="-8.6436150">
        <ele>83.1</ele>
        <time>2021-05-23T06:36:50Z</time>
      </trkpt>
      <trkpt lat="42.6400800" lon="-8.6436060">
        <ele>83.1</ele>
        <time>2021-05-23T06:36:51Z</time>
      </trkpt>
      <trkpt lat="42.6400940" lon="-8.6435960">
        <ele>83.1</ele>
        <time>2021-05-23T06:36:52Z</time>
      </trkpt>
      <trkpt lat="42.6401000" lon="-8.6435900">
        <ele>83.1</ele>
        <time>2021-05-23T06:36:53Z</time>
      </trkpt>
      <trkpt lat="42.6401050" lon="-8.6435830">
        <ele>83.1</ele>
        <time>2021-05-23T06:36:54Z</time>
      </trkpt>
      <trkpt lat="42.6401110" lon="-8.6435770">
        <ele>83.1</ele>
        <time>2021-05-23T06:36:55Z</time>
      </trkpt>
      <trkpt lat="42.6401200" lon="-8.6435760">
        <ele>83.1</ele>
        <time>2021-05-23T06:36:56Z</time>
      </trkpt>
      <trkpt lat="42.6401310" lon="-8.6435680">
        <ele>83.1</ele>
        <time>2021-05-23T06:36:57Z</time>
      </trkpt>
      <trkpt lat="42.6401310" lon="-8.6435670">
        <ele>83.1</ele>
        <time>2021-05-23T06:36:58Z</time>
      </trkpt>
      <trkpt lat="42.6401440" lon="-8.6435610">
        <ele>83.1</ele>
        <time>2021-05-23T06:36:59Z</time>
      </trkpt>
      <trkpt lat="42.6401590" lon="-8.6435460">
        <ele>83.1</ele>
        <time>2021-05-23T06:37:00Z</time>
      </trkpt>
      <trkpt lat="42.6401690" lon="-8.6435400">
        <ele>83.1</ele>
        <time>2021-05-23T06:37:01Z</time>
      </trkpt>
      <trkpt lat="42.6401790" lon="-8.6435350">
        <ele>83.1</ele>
        <time>2021-05-23T06:37:02Z</time>
      </trkpt>
      <trkpt lat="42.6401860" lon="-8.6435250">
        <ele>83.1</ele>
        <time>2021-05-23T06:37:03Z</time>
      </trkpt>
      <trkpt lat="42.6401930" lon="-8.6435250">
        <ele>83.1</ele>
        <time>2021-05-23T06:37:04Z</time>
      </trkpt>
      <trkpt lat="42.6402000" lon="-8.6435100">
        <ele>83.1</ele>
        <time>2021-05-23T06:37:05Z</time>
      </trkpt>
      <trkpt lat="42.6402140" lon="-8.6434900">
        <ele>83.1</ele>
        <time>2021-05-23T06:37:06Z</time>
      </trkpt>
      <trkpt lat="42.6402280" lon="-8.6434820">
        <ele>83.1</ele>
        <time>2021-05-23T06:37:07Z</time>
      </trkpt>
      <trkpt lat="42.6402450" lon="-8.6434760">
        <ele>83.1</ele>
        <time>2021-05-23T06:37:08Z</time>
      </trkpt>
      <trkpt lat="42.6402600" lon="-8.6434640">
        <ele>83.2</ele>
        <time>2021-05-23T06:37:09Z</time>
      </trkpt>
      <trkpt lat="42.6402750" lon="-8.6434620">
        <ele>83.2</ele>
        <time>2021-05-23T06:37:10Z</time>
      </trkpt>
      <trkpt lat="42.6402870" lon="-8.6434500">
        <ele>83.2</ele>
        <time>2021-05-23T06:37:11Z</time>
      </trkpt>
      <trkpt lat="42.6403010" lon="-8.6434380">
        <ele>83.2</ele>
        <time>2021-05-23T06:37:12Z</time>
      </trkpt>
      <trkpt lat="42.6403150" lon="-8.6434350">
        <ele>83.2</ele>
        <time>2021-05-23T06:37:13Z</time>
      </trkpt>
      <trkpt lat="42.6403270" lon="-8.6434270">
        <ele>83.2</ele>
        <time>2021-05-23T06:37:14Z</time>
      </trkpt>
      <trkpt lat="42.6403420" lon="-8.6434210">
        <ele>83.3</ele>
        <time>2021-05-23T06:37:15Z</time>
      </trkpt>
      <trkpt lat="42.6403560" lon="-8.6434210">
        <ele>83.3</ele>
        <time>2021-05-23T06:37:16Z</time>
      </trkpt>
      <trkpt lat="42.6403690" lon="-8.6434100">
        <ele>83.3</ele>
        <time>2021-05-23T06:37:17Z</time>
      </trkpt>
      <trkpt lat="42.6403870" lon="-8.6433980">
        <ele>83.3</ele>
        <time>2021-05-23T06:37:18Z</time>
      </trkpt>
      <trkpt lat="42.6403960" lon="-8.6433940">
        <ele>83.3</ele>
        <time>2021-05-23T06:37:19Z</time>
      </trkpt>
      <trkpt lat="42.6404040" lon="-8.6433890">
        <ele>83.3</ele>
        <time>2021-05-23T06:37:20Z</time>
      </trkpt>
      <trkpt lat="42.6404240" lon="-8.6433790">
        <ele>83.4</ele>
        <time>2021-05-23T06:37:21Z</time>
      </trkpt>
      <trkpt lat="42.6404310" lon="-8.6433730">
        <ele>83.4</ele>
        <time>2021-05-23T06:37:22Z</time>
      </trkpt>
      <trkpt lat="42.6404380" lon="-8.6433680">
        <ele>83.4</ele>
        <time>2021-05-23T06:37:23Z</time>
      </trkpt>
      <trkpt lat="42.6404500" lon="-8.6433550">
        <ele>83.4</ele>
        <time>2021-05-23T06:37:24Z</time>
      </trkpt>
      <trkpt lat="42.6404620" lon="-8.6433500">
        <ele>83.4</ele>
        <time>2021-05-23T06:37:25Z</time>
      </trkpt>
      <trkpt lat="42.6404840" lon="-8.6433430">
        <ele>83.5</ele>
        <time>2021-05-23T06:37:26Z</time>
      </trkpt>
      <trkpt lat="42.6404920" lon="-8.6433390">
        <ele>83.5</ele>
        <time>2021-05-23T06:37:27Z</time>
      </trkpt>
      <trkpt lat="42.6405010" lon="-8.6433360">
        <ele>83.5</ele>
        <time>2021-05-23T06:37:28Z</time>
      </trkpt>
      <trkpt lat="42.6405200" lon="-8.6433250">
        <ele>83.6</ele>
        <time>2021-05-23T06:37:29Z</time>
      </trkpt>
      <trkpt lat="42.6405280" lon="-8.6433210">
        <ele>83.6</ele>
        <time>2021-05-23T06:37:30Z</time>
      </trkpt>
      <trkpt lat="42.6405360" lon="-8.6433180">
        <ele>83.6</ele>
        <time>2021-05-23T06:37:31Z</time>
      </trkpt>
      <trkpt lat="42.6405440" lon="-8.6433130">
        <ele>83.7</ele>
        <time>2021-05-23T06:37:32Z</time>
      </trkpt>
      <trkpt lat="42.6405580" lon="-8.6433120">
        <ele>83.7</ele>
        <time>2021-05-23T06:37:33Z</time>
      </trkpt>
      <trkpt lat="42.6405700" lon="-8.6433080">
        <ele>83.7</ele>
        <time>2021-05-23T06:37:34Z</time>
      </trkpt>
      <trkpt lat="42.6405930" lon="-8.6433100">
        <ele>83.8</ele>
        <time>2021-05-23T06:37:35Z</time>
      </trkpt>
      <trkpt lat="42.6406000" lon="-8.6433090">
        <ele>83.8</ele>
        <time>2021-05-23T06:37:36Z</time>
      </trkpt>
      <trkpt lat="42.6406080" lon="-8.6433070">
        <ele>83.9</ele>
        <time>2021-05-23T06:37:37Z</time>
      </trkpt>
      <trkpt lat="42.6406280" lon="-8.6433030">
        <ele>83.9</ele>
        <time>2021-05-23T06:37:38Z</time>
      </trkpt>
      <trkpt lat="42.6406370" lon="-8.6433010">
        <ele>84.0</ele>
        <time>2021-05-23T06:37:39Z</time>
      </trkpt>
      <trkpt lat="42.6406470" lon="-8.6433000">
        <ele>84.0</ele>
        <time>2021-05-23T06:37:40Z</time>
      </trkpt>
      <trkpt lat="42.6406670" lon="-8.6433030">
        <ele>84.1</ele>
        <time>2021-05-23T06:37:41Z</time>
      </trkpt>
      <trkpt lat="42.6406760" lon="-8.6433020">
        <ele>84.1</ele>
        <time>2021-05-23T06:37:42Z</time>
      </trkpt>
      <trkpt lat="42.6406840" lon="-8.6433010">
        <ele>84.2</ele>
        <time>2021-05-23T06:37:43Z</time>
      </trkpt>
      <trkpt lat="42.6407040" lon="-8.6432940">
        <ele>84.2</ele>
        <time>2021-05-23T06:37:44Z</time>
      </trkpt>
      <trkpt lat="42.6407120" lon="-8.6432890">
        <ele>84.3</ele>
        <time>2021-05-23T06:37:45Z</time>
      </trkpt>
      <trkpt lat="42.6407190" lon="-8.6432850">
        <ele>84.3</ele>
        <time>2021-05-23T06:37:46Z</time>
      </trkpt>
      <trkpt lat="42.6407330" lon="-8.6432860">
        <ele>84.4</ele>
        <time>2021-05-23T06:37:47Z</time>
      </trkpt>
      <trkpt lat="42.6407470" lon="-8.6432910">
        <ele>84.4</ele>
        <time>2021-05-23T06:37:48Z</time>
      </trkpt>
      <trkpt lat="42.6407590" lon="-8.6432960">
        <ele>84.5</ele>
        <time>2021-05-23T06:37:49Z</time>
      </trkpt>
      <trkpt lat="42.6407620" lon="-8.6432910">
        <ele>84.5</ele>
        <time>2021-05-23T06:37:50Z</time>
      </trkpt>
      <trkpt lat="42.6407710" lon="-8.6432860">
        <ele>84.6</ele>
        <time>2021-05-23T06:37:51Z</time>
      </trkpt>
      <trkpt lat="42.6407790" lon="-8.6432840">
        <ele>84.6</ele>
        <time>2021-05-23T06:37:52Z</time>
      </trkpt>
      <trkpt lat="42.6407900" lon="-8.6432890">
        <ele>84.7</ele>
        <time>2021-05-23T06:37:53Z</time>
      </trkpt>
      <trkpt lat="42.6407970" lon="-8.6432760">
        <ele>84.7</ele>
        <time>2021-05-23T06:37:54Z</time>
      </trkpt>
      <trkpt lat="42.6408060" lon="-8.6432700">
        <ele>84.8</ele>
        <time>2021-05-23T06:37:55Z</time>
      </trkpt>
      <trkpt lat="42.6408130" lon="-8.6432640">
        <ele>84.8</ele>
        <time>2021-05-23T06:37:56Z</time>
      </trkpt>
      <trkpt lat="42.6408180" lon="-8.6432600">
        <ele>84.9</ele>
        <time>2021-05-23T06:37:57Z</time>
      </trkpt>
      <trkpt lat="42.6408320" lon="-8.6432510">
        <ele>84.9</ele>
        <time>2021-05-23T06:37:58Z</time>
      </trkpt>
      <trkpt lat="42.6408410" lon="-8.6432460">
        <ele>85.0</ele>
        <time>2021-05-23T06:37:59Z</time>
      </trkpt>
      <trkpt lat="42.6408530" lon="-8.6432420">
        <ele>85.1</ele>
        <time>2021-05-23T06:38:00Z</time>
      </trkpt>
      <trkpt lat="42.6408610" lon="-8.6432390">
        <ele>85.1</ele>
        <time>2021-05-23T06:38:01Z</time>
      </trkpt>
      <trkpt lat="42.6408780" lon="-8.6432280">
        <ele>85.2</ele>
        <time>2021-05-23T06:38:02Z</time>
      </trkpt>
      <trkpt lat="42.6408860" lon="-8.6432230">
        <ele>85.3</ele>
        <time>2021-05-23T06:38:03Z</time>
      </trkpt>
      <trkpt lat="42.6408930" lon="-8.6432170">
        <ele>85.3</ele>
        <time>2021-05-23T06:38:04Z</time>
      </trkpt>
      <trkpt lat="42.6409000" lon="-8.6432120">
        <ele>85.4</ele>
        <time>2021-05-23T06:38:05Z</time>
      </trkpt>
      <trkpt lat="42.6409090" lon="-8.6432110">
        <ele>85.4</ele>
        <time>2021-05-23T06:38:06Z</time>
      </trkpt>
      <trkpt lat="42.6409160" lon="-8.6432060">
        <ele>85.5</ele>
        <time>2021-05-23T06:38:07Z</time>
      </trkpt>
      <trkpt lat="42.6409210" lon="-8.6432010">
        <ele>85.5</ele>
        <time>2021-05-23T06:38:08Z</time>
      </trkpt>
      <trkpt lat="42.6409290" lon="-8.6431970">
        <ele>85.6</ele>
        <time>2021-05-23T06:38:09Z</time>
      </trkpt>
      <trkpt lat="42.6409430" lon="-8.6431880">
        <ele>85.7</ele>
        <time>2021-05-23T06:38:10Z</time>
      </trkpt>
      <trkpt lat="42.6409500" lon="-8.6431850">
        <ele>85.7</ele>
        <time>2021-05-23T06:38:11Z</time>
      </trkpt>
      <trkpt lat="42.6409560" lon="-8.6431830">
        <ele>85.8</ele>
        <time>2021-05-23T06:38:12Z</time>
      </trkpt>
      <trkpt lat="42.6409630" lon="-8.6431800">
        <ele>85.8</ele>
        <time>2021-05-23T06:38:13Z</time>
      </trkpt>
      <trkpt lat="42.6409760" lon="-8.6431710">
        <ele>85.9</ele>
        <time>2021-05-23T06:38:14Z</time>
      </trkpt>
      <trkpt lat="42.6409900" lon="-8.6431700">
        <ele>86.1</ele>
        <time>2021-05-23T06:38:15Z</time>
      </trkpt>
      <trkpt lat="42.6409940" lon="-8.6431640">
        <ele>86.1</ele>
        <time>2021-05-23T06:38:16Z</time>
      </trkpt>
      <trkpt lat="42.6410000" lon="-8.6431530">
        <ele>86.2</ele>
        <time>2021-05-23T06:38:17Z</time>
      </trkpt>
      <trkpt lat="42.6410150" lon="-8.6431490">
        <ele>86.3</ele>
        <time>2021-05-23T06:38:18Z</time>
      </trkpt>
      <trkpt lat="42.6410350" lon="-8.6431510">
        <ele>86.5</ele>
        <time>2021-05-23T06:38:19Z</time>
      </trkpt>
      <trkpt lat="42.6410440" lon="-8.6431490">
        <ele>86.5</ele>
        <time>2021-05-23T06:38:20Z</time>
      </trkpt>
      <trkpt lat="42.6410530" lon="-8.6431460">
        <ele>86.6</ele>
        <time>2021-05-23T06:38:21Z</time>
      </trkpt>
      <trkpt lat="42.6410720" lon="-8.6431440">
        <ele>86.8</ele>
        <time>2021-05-23T06:38:22Z</time>
      </trkpt>
      <trkpt lat="42.6410740" lon="-8.6431350">
        <ele>86.8</ele>
        <time>2021-05-23T06:38:23Z</time>
      </trkpt>
      <trkpt lat="42.6410840" lon="-8.6431340">
        <ele>86.9</ele>
        <time>2021-05-23T06:38:24Z</time>
      </trkpt>
      <trkpt lat="42.6411020" lon="-8.6431200">
        <ele>87.1</ele>
        <time>2021-05-23T06:38:25Z</time>
      </trkpt>
      <trkpt lat="42.6411110" lon="-8.6431130">
        <ele>87.2</ele>
        <time>2021-05-23T06:38:26Z</time>
      </trkpt>
      <trkpt lat="42.6411200" lon="-8.6431070">
        <ele>87.3</ele>
        <time>2021-05-23T06:38:27Z</time>
      </trkpt>
      <trkpt lat="42.6411360" lon="-8.6431070">
        <ele>87.4</ele>
        <time>2021-05-23T06:38:28Z</time>
      </trkpt>
      <trkpt lat="42.6411390" lon="-8.6431070">
        <ele>87.4</ele>
        <time>2021-05-23T06:38:29Z</time>
      </trkpt>
      <trkpt lat="42.6411480" lon="-8.6431060">
        <ele>87.5</ele>
        <time>2021-05-23T06:38:30Z</time>
      </trkpt>
      <trkpt lat="42.6411580" lon="-8.6431100">
        <ele>87.6</ele>
        <time>2021-05-23T06:38:31Z</time>
      </trkpt>
      <trkpt lat="42.6411670" lon="-8.6431070">
        <ele>87.7</ele>
        <time>2021-05-23T06:38:32Z</time>
      </trkpt>
      <trkpt lat="42.6411800" lon="-8.6431070">
        <ele>87.8</ele>
        <time>2021-05-23T06:38:33Z</time>
      </trkpt>
      <trkpt lat="42.6411920" lon="-8.6431050">
        <ele>87.9</ele>
        <time>2021-05-23T06:38:34Z</time>
      </trkpt>
      <trkpt lat="42.6412020" lon="-8.6431020">
        <ele>88.0</ele>
        <time>2021-05-23T06:38:35Z</time>
      </trkpt>
      <trkpt lat="42.6412110" lon="-8.6431070">
        <ele>88.1</ele>
        <time>2021-05-23T06:38:36Z</time>
      </trkpt>
      <trkpt lat="42.6412110" lon="-8.6431040">
        <ele>88.1</ele>
        <time>2021-05-23T06:38:37Z</time>
      </trkpt>
      <trkpt lat="42.6412180" lon="-8.6431000">
        <ele>88.1</ele>
        <time>2021-05-23T06:38:38Z</time>
      </trkpt>
      <trkpt lat="42.6412310" lon="-8.6430920">
        <ele>88.3</ele>
        <time>2021-05-23T06:38:39Z</time>
      </trkpt>
      <trkpt lat="42.6412430" lon="-8.6430950">
        <ele>88.4</ele>
        <time>2021-05-23T06:38:40Z</time>
      </trkpt>
      <trkpt lat="42.6412690" lon="-8.6430900">
        <ele>88.6</ele>
        <time>2021-05-23T06:38:41Z</time>
      </trkpt>
      <trkpt lat="42.6412750" lon="-8.6430840">
        <ele>88.6</ele>
        <time>2021-05-23T06:38:42Z</time>
      </trkpt>
      <trkpt lat="42.6412820" lon="-8.6430780">
        <ele>88.7</ele>
        <time>2021-05-23T06:38:43Z</time>
      </trkpt>
      <trkpt lat="42.6412960" lon="-8.6430700">
        <ele>88.8</ele>
        <time>2021-05-23T06:38:44Z</time>
      </trkpt>
      <trkpt lat="42.6413010" lon="-8.6430650">
        <ele>88.9</ele>
        <time>2021-05-23T06:38:45Z</time>
      </trkpt>
      <trkpt lat="42.6413070" lon="-8.6430610">
        <ele>88.9</ele>
        <time>2021-05-23T06:38:46Z</time>
      </trkpt>
      <trkpt lat="42.6413120" lon="-8.6430560">
        <ele>89.0</ele>
        <time>2021-05-23T06:38:47Z</time>
      </trkpt>
      <trkpt lat="42.6413180" lon="-8.6430510">
        <ele>89.1</ele>
        <time>2021-05-23T06:38:48Z</time>
      </trkpt>
      <trkpt lat="42.6413300" lon="-8.6430500">
        <ele>89.2</ele>
        <time>2021-05-23T06:38:49Z</time>
      </trkpt>
      <trkpt lat="42.6413430" lon="-8.6430450">
        <ele>89.3</ele>
        <time>2021-05-23T06:38:50Z</time>
      </trkpt>
      <trkpt lat="42.6413490" lon="-8.6430490">
        <ele>89.3</ele>
        <time>2021-05-23T06:38:51Z</time>
      </trkpt>
      <trkpt lat="42.6413610" lon="-8.6430450">
        <ele>89.4</ele>
        <time>2021-05-23T06:38:52Z</time>
      </trkpt>
      <trkpt lat="42.6413720" lon="-8.6430460">
        <ele>89.5</ele>
        <time>2021-05-23T06:38:53Z</time>
      </trkpt>
      <trkpt lat="42.6413840" lon="-8.6430400">
        <ele>89.6</ele>
        <time>2021-05-23T06:38:54Z</time>
      </trkpt>
      <trkpt lat="42.6413920" lon="-8.6430400">
        <ele>89.7</ele>
        <time>2021-05-23T06:38:55Z</time>
      </trkpt>
      <trkpt lat="42.6414010" lon="-8.6430440">
        <ele>89.8</ele>
        <time>2021-05-23T06:38:56Z</time>
      </trkpt>
      <trkpt lat="42.6414150" lon="-8.6430420">
        <ele>89.9</ele>
        <time>2021-05-23T06:38:57Z</time>
      </trkpt>
      <trkpt lat="42.6414340" lon="-8.6430300">
        <ele>90.1</ele>
        <time>2021-05-23T06:38:58Z</time>
      </trkpt>
      <trkpt lat="42.6414430" lon="-8.6430270">
        <ele>90.2</ele>
        <time>2021-05-23T06:38:59Z</time>
      </trkpt>
      <trkpt lat="42.6414530" lon="-8.6430250">
        <ele>90.3</ele>
        <time>2021-05-23T06:39:00Z</time>
      </trkpt>
      <trkpt lat="42.6414770" lon="-8.6430150">
        <ele>90.5</ele>
        <time>2021-05-23T06:39:01Z</time>
      </trkpt>
      <trkpt lat="42.6414820" lon="-8.6430100">
        <ele>90.5</ele>
        <time>2021-05-23T06:39:02Z</time>
      </trkpt>
      <trkpt lat="42.6414870" lon="-8.6430050">
        <ele>90.6</ele>
        <time>2021-05-23T06:39:03Z</time>
      </trkpt>
      <trkpt lat="42.6415060" lon="-8.6430040">
        <ele>90.8</ele>
        <time>2021-05-23T06:39:04Z</time>
      </trkpt>
      <trkpt lat="42.6415170" lon="-8.6430050">
        <ele>90.9</ele>
        <time>2021-05-23T06:39:05Z</time>
      </trkpt>
      <trkpt lat="42.6415280" lon="-8.6430060">
        <ele>91.0</ele>
        <time>2021-05-23T06:39:06Z</time>
      </trkpt>
      <trkpt lat="42.6415520" lon="-8.6430030">
        <ele>91.2</ele>
        <time>2021-05-23T06:39:07Z</time>
      </trkpt>
      <trkpt lat="42.6415580" lon="-8.6430020">
        <ele>91.3</ele>
        <time>2021-05-23T06:39:08Z</time>
      </trkpt>
      <trkpt lat="42.6415650" lon="-8.6430020">
        <ele>91.3</ele>
        <time>2021-05-23T06:39:09Z</time>
      </trkpt>
      <trkpt lat="42.6415840" lon="-8.6430010">
        <ele>91.5</ele>
        <time>2021-05-23T06:39:10Z</time>
      </trkpt>
      <trkpt lat="42.6415990" lon="-8.6429940">
        <ele>91.7</ele>
        <time>2021-05-23T06:39:11Z</time>
      </trkpt>
      <trkpt lat="42.6416190" lon="-8.6429940">
        <ele>91.9</ele>
        <time>2021-05-23T06:39:12Z</time>
      </trkpt>
      <trkpt lat="42.6416320" lon="-8.6429950">
        <ele>92.0</ele>
        <time>2021-05-23T06:39:13Z</time>
      </trkpt>
      <trkpt lat="42.6416520" lon="-8.6429960">
        <ele>92.2</ele>
        <time>2021-05-23T06:39:14Z</time>
      </trkpt>
      <trkpt lat="42.6416620" lon="-8.6429960">
        <ele>92.4</ele>
        <time>2021-05-23T06:39:15Z</time>
      </trkpt>
      <trkpt lat="42.6416720" lon="-8.6429970">
        <ele>92.5</ele>
        <time>2021-05-23T06:39:16Z</time>
      </trkpt>
      <trkpt lat="42.6416960" lon="-8.6429950">
        <ele>92.7</ele>
        <time>2021-05-23T06:39:17Z</time>
      </trkpt>
      <trkpt lat="42.6417030" lon="-8.6429950">
        <ele>92.8</ele>
        <time>2021-05-23T06:39:18Z</time>
      </trkpt>
      <trkpt lat="42.6417090" lon="-8.6429960">
        <ele>92.9</ele>
        <time>2021-05-23T06:39:19Z</time>
      </trkpt>
      <trkpt lat="42.6417120" lon="-8.6429920">
        <ele>93.0</ele>
        <time>2021-05-23T06:39:20Z</time>
      </trkpt>
      <trkpt lat="42.6417200" lon="-8.6429930">
        <ele>93.1</ele>
        <time>2021-05-23T06:39:21Z</time>
      </trkpt>
      <trkpt lat="42.6417280" lon="-8.6429910">
        <ele>93.2</ele>
        <time>2021-05-23T06:39:22Z</time>
      </trkpt>
      <trkpt lat="42.6417450" lon="-8.6429900">
        <ele>93.4</ele>
        <time>2021-05-23T06:39:23Z</time>
      </trkpt>
      <trkpt lat="42.6417580" lon="-8.6429870">
        <ele>93.5</ele>
        <time>2021-05-23T06:39:24Z</time>
      </trkpt>
      <trkpt lat="42.6417700" lon="-8.6429910">
        <ele>93.7</ele>
        <time>2021-05-23T06:39:25Z</time>
      </trkpt>
      <trkpt lat="42.6417790" lon="-8.6429900">
        <ele>93.8</ele>
        <time>2021-05-23T06:39:26Z</time>
      </trkpt>
      <trkpt lat="42.6418020" lon="-8.6429920">
        <ele>94.2</ele>
        <time>2021-05-23T06:39:27Z</time>
      </trkpt>
      <trkpt lat="42.6418130" lon="-8.6429950">
        <ele>94.3</ele>
        <time>2021-05-23T06:39:28Z</time>
      </trkpt>
      <trkpt lat="42.6418250" lon="-8.6429980">
        <ele>94.5</ele>
        <time>2021-05-23T06:39:29Z</time>
      </trkpt>
      <trkpt lat="42.6418220" lon="-8.6429900">
        <ele>94.6</ele>
        <time>2021-05-23T06:39:30Z</time>
      </trkpt>
      <trkpt lat="42.6418280" lon="-8.6429890">
        <ele>94.7</ele>
        <time>2021-05-23T06:39:31Z</time>
      </trkpt>
      <trkpt lat="42.6418370" lon="-8.6429820">
        <ele>94.8</ele>
        <time>2021-05-23T06:39:32Z</time>
      </trkpt>
      <trkpt lat="42.6418430" lon="-8.6429880">
        <ele>95.0</ele>
        <time>2021-05-23T06:39:33Z</time>
      </trkpt>
      <trkpt lat="42.6418550" lon="-8.6429900">
        <ele>95.1</ele>
        <time>2021-05-23T06:39:34Z</time>
      </trkpt>
      <trkpt lat="42.6418690" lon="-8.6429940">
        <ele>95.3</ele>
        <time>2021-05-23T06:39:35Z</time>
      </trkpt>
      <trkpt lat="42.6418750" lon="-8.6429910">
        <ele>95.4</ele>
        <time>2021-05-23T06:39:36Z</time>
      </trkpt>
      <trkpt lat="42.6418800" lon="-8.6429930">
        <ele>95.5</ele>
        <time>2021-05-23T06:39:37Z</time>
      </trkpt>
      <trkpt lat="42.6418910" lon="-8.6429970">
        <ele>95.7</ele>
        <time>2021-05-23T06:39:38Z</time>
      </trkpt>
      <trkpt lat="42.6418990" lon="-8.6430000">
        <ele>95.8</ele>
        <time>2021-05-23T06:39:39Z</time>
      </trkpt>
      <trkpt lat="42.6419160" lon="-8.6429990">
        <ele>96.1</ele>
        <time>2021-05-23T06:39:40Z</time>
      </trkpt>
      <trkpt lat="42.6419160" lon="-8.6429910">
        <ele>96.2</ele>
        <time>2021-05-23T06:39:41Z</time>
      </trkpt>
      <trkpt lat="42.6419270" lon="-8.6429980">
        <ele>96.4</ele>
        <time>2021-05-23T06:39:42Z</time>
      </trkpt>
      <trkpt lat="42.6419350" lon="-8.6430020">
        <ele>96.5</ele>
        <time>2021-05-23T06:39:43Z</time>
      </trkpt>
      <trkpt lat="42.6419530" lon="-8.6430100">
        <ele>96.8</ele>
        <time>2021-05-23T06:39:44Z</time>
      </trkpt>
      <trkpt lat="42.6419590" lon="-8.6430110">
        <ele>96.9</ele>
        <time>2021-05-23T06:39:45Z</time>
      </trkpt>
      <trkpt lat="42.6419680" lon="-8.6430090">
        <ele>97.1</ele>
        <time>2021-05-23T06:39:46Z</time>
      </trkpt>
      <trkpt lat="42.6419830" lon="-8.6430090">
        <ele>97.4</ele>
        <time>2021-05-23T06:39:47Z</time>
      </trkpt>
      <trkpt lat="42.6419910" lon="-8.6430080">
        <ele>97.5</ele>
        <time>2021-05-23T06:39:48Z</time>
      </trkpt>
      <trkpt lat="42.6419950" lon="-8.6430080">
        <ele>97.6</ele>
        <time>2021-05-23T06:39:49Z</time>
      </trkpt>
      <trkpt lat="42.6420040" lon="-8.6430110">
        <ele>97.8</ele>
        <time>2021-05-23T06:39:50Z</time>
      </trkpt>
      <trkpt lat="42.6420130" lon="-8.6430130">
        <ele>97.9</ele>
        <time>2021-05-23T06:39:51Z</time>
      </trkpt>
      <trkpt lat="42.6420260" lon="-8.6430240">
        <ele>98.2</ele>
        <time>2021-05-23T06:39:52Z</time>
      </trkpt>
      <trkpt lat="42.6420370" lon="-8.6430300">
        <ele>98.4</ele>
        <time>2021-05-23T06:39:53Z</time>
      </trkpt>
      <trkpt lat="42.6420460" lon="-8.6430330">
        <ele>98.6</ele>
        <time>2021-05-23T06:39:54Z</time>
      </trkpt>
      <trkpt lat="42.6420510" lon="-8.6430330">
        <ele>98.7</ele>
        <time>2021-05-23T06:39:55Z</time>
      </trkpt>
      <trkpt lat="42.6420560" lon="-8.6430350">
        <ele>98.8</ele>
        <time>2021-05-23T06:39:56Z</time>
      </trkpt>
      <trkpt lat="42.6420610" lon="-8.6430370">
        <ele>98.9</ele>
        <time>2021-05-23T06:39:57Z</time>
      </trkpt>
      <trkpt lat="42.6420670" lon="-8.6430320">
        <ele>99.0</ele>
        <time>2021-05-23T06:39:58Z</time>
      </trkpt>
      <trkpt lat="42.6420760" lon="-8.6430360">
        <ele>99.2</ele>
        <time>2021-05-23T06:39:59Z</time>
      </trkpt>
      <trkpt lat="42.6420840" lon="-8.6430460">
        <ele>99.4</ele>
        <time>2021-05-23T06:40:00Z</time>
      </trkpt>
      <trkpt lat="42.6420950" lon="-8.6430520">
        <ele>99.7</ele>
        <time>2021-05-23T06:40:01Z</time>
      </trkpt>
      <trkpt lat="42.6420990" lon="-8.6430500">
        <ele>99.7</ele>
        <time>2021-05-23T06:40:02Z</time>
      </trkpt>
      <trkpt lat="42.6421060" lon="-8.6430450">
        <ele>99.9</ele>
        <time>2021-05-23T06:40:03Z</time>
      </trkpt>
      <trkpt lat="42.6421200" lon="-8.6430440">
        <ele>100.1</ele>
        <time>2021-05-23T06:40:04Z</time>
      </trkpt>
      <trkpt lat="42.6421200" lon="-8.6430390">
        <ele>100.2</ele>
        <time>2021-05-23T06:40:05Z</time>
      </trkpt>
      <trkpt lat="42.6421340" lon="-8.6430340">
        <ele>100.5</ele>
        <time>2021-05-23T06:40:06Z</time>
      </trkpt>
      <trkpt lat="42.6421380" lon="-8.6430400">
        <ele>100.6</ele>
        <time>2021-05-23T06:40:07Z</time>
      </trkpt>
      <trkpt lat="42.6421450" lon="-8.6430360">
        <ele>100.7</ele>
        <time>2021-05-23T06:40:08Z</time>
      </trkpt>
      <trkpt lat="42.6421510" lon="-8.6430400">
        <ele>100.8</ele>
        <time>2021-05-23T06:40:09Z</time>
      </trkpt>
      <trkpt lat="42.6421560" lon="-8.6430390">
        <ele>100.9</ele>
        <time>2021-05-23T06:40:10Z</time>
      </trkpt>
      <trkpt lat="42.6421610" lon="-8.6430400">
        <ele>101.0</ele>
        <time>2021-05-23T06:40:11Z</time>
      </trkpt>
      <trkpt lat="42.6421740" lon="-8.6430390">
        <ele>101.3</ele>
        <time>2021-05-23T06:40:12Z</time>
      </trkpt>
      <trkpt lat="42.6421800" lon="-8.6430340">
        <ele>101.4</ele>
        <time>2021-05-23T06:40:13Z</time>
      </trkpt>
      <trkpt lat="42.6421930" lon="-8.6430350">
        <ele>101.6</ele>
        <time>2021-05-23T06:40:14Z</time>
      </trkpt>
      <trkpt lat="42.6422010" lon="-8.6430310">
        <ele>101.7</ele>
        <time>2021-05-23T06:40:15Z</time>
      </trkpt>
      <trkpt lat="42.6422100" lon="-8.6430220">
        <ele>101.9</ele>
        <time>2021-05-23T06:40:16Z</time>
      </trkpt>
      <trkpt lat="42.6422220" lon="-8.6430170">
        <ele>102.1</ele>
        <time>2021-05-23T06:40:17Z</time>
      </trkpt>
      <trkpt lat="42.6422380" lon="-8.6430230">
        <ele>102.3</ele>
        <time>2021-05-23T06:40:18Z</time>
      </trkpt>
      <trkpt lat="42.6422460" lon="-8.6430230">
        <ele>102.4</ele>
        <time>2021-05-23T06:40:19Z</time>
      </trkpt>
      <trkpt lat="42.6422530" lon="-8.6430240">
        <ele>102.5</ele>
        <time>2021-05-23T06:40:20Z</time>
      </trkpt>
      <trkpt lat="42.6422610" lon="-8.6430250">
        <ele>102.7</ele>
        <time>2021-05-23T06:40:21Z</time>
      </trkpt>
      <trkpt lat="42.6422720" lon="-8.6430280">
        <ele>102.8</ele>
        <time>2021-05-23T06:40:22Z</time>
      </trkpt>
      <trkpt lat="42.6422820" lon="-8.6430260">
        <ele>102.9</ele>
        <time>2021-05-23T06:40:23Z</time>
      </trkpt>
      <trkpt lat="42.6422870" lon="-8.6430290">
        <ele>103.0</ele>
        <time>2021-05-23T06:40:24Z</time>
      </trkpt>
      <trkpt lat="42.6422920" lon="-8.6430260">
        <ele>103.1</ele>
        <time>2021-05-23T06:40:25Z</time>
      </trkpt>
      <trkpt lat="42.6422930" lon="-8.6430160">
        <ele>103.1</ele>
        <time>2021-05-23T06:40:26Z</time>
      </trkpt>
      <trkpt lat="42.6423030" lon="-8.6430300">
        <ele>103.3</ele>
        <time>2021-05-23T06:40:27Z</time>
      </trkpt>
      <trkpt lat="42.6423160" lon="-8.6430300">
        <ele>103.4</ele>
        <time>2021-05-23T06:40:28Z</time>
      </trkpt>
      <trkpt lat="42.6423240" lon="-8.6430280">
        <ele>103.5</ele>
        <time>2021-05-23T06:40:29Z</time>
      </trkpt>
      <trkpt lat="42.6423390" lon="-8.6430240">
        <ele>103.7</ele>
        <time>2021-05-23T06:40:30Z</time>
      </trkpt>
      <trkpt lat="42.6423490" lon="-8.6430230">
        <ele>103.8</ele>
        <time>2021-05-23T06:40:31Z</time>
      </trkpt>
      <trkpt lat="42.6423520" lon="-8.6430200">
        <ele>103.8</ele>
        <time>2021-05-23T06:40:32Z</time>
      </trkpt>
      <trkpt lat="42.6423630" lon="-8.6430140">
        <ele>103.9</ele>
        <time>2021-05-23T06:40:33Z</time>
      </trkpt>
      <trkpt lat="42.6423740" lon="-8.6430100">
        <ele>104.0</ele>
        <time>2021-05-23T06:40:34Z</time>
      </trkpt>
      <trkpt lat="42.6423860" lon="-8.6430110">
        <ele>104.1</ele>
        <time>2021-05-23T06:40:35Z</time>
      </trkpt>
      <trkpt lat="42.6424070" lon="-8.6430160">
        <ele>104.3</ele>
        <time>2021-05-23T06:40:36Z</time>
      </trkpt>
      <trkpt lat="42.6424150" lon="-8.6430180">
        <ele>104.3</ele>
        <time>2021-05-23T06:40:37Z</time>
      </trkpt>
      <trkpt lat="42.6424260" lon="-8.6430180">
        <ele>104.4</ele>
        <time>2021-05-23T06:40:38Z</time>
      </trkpt>
      <trkpt lat="42.6424360" lon="-8.6430190">
        <ele>104.5</ele>
        <time>2021-05-23T06:40:39Z</time>
      </trkpt>
      <trkpt lat="42.6424430" lon="-8.6430180">
        <ele>104.5</ele>
        <time>2021-05-23T06:40:40Z</time>
      </trkpt>
      <trkpt lat="42.6424540" lon="-8.6430150">
        <ele>104.6</ele>
        <time>2021-05-23T06:40:41Z</time>
      </trkpt>
      <trkpt lat="42.6424590" lon="-8.6430130">
        <ele>104.6</ele>
        <time>2021-05-23T06:40:42Z</time>
      </trkpt>
      <trkpt lat="42.6424640" lon="-8.6430110">
        <ele>104.7</ele>
        <time>2021-05-23T06:40:43Z</time>
      </trkpt>
      <trkpt lat="42.6424680" lon="-8.6430090">
        <ele>104.7</ele>
        <time>2021-05-23T06:40:44Z</time>
      </trkpt>
      <trkpt lat="42.6424730" lon="-8.6430070">
        <ele>104.7</ele>
        <time>2021-05-23T06:40:45Z</time>
      </trkpt>
      <trkpt lat="42.6424780" lon="-8.6430050">
        <ele>104.8</ele>
        <time>2021-05-23T06:40:46Z</time>
      </trkpt>
      <trkpt lat="42.6424830" lon="-8.6430030">
        <ele>104.8</ele>
        <time>2021-05-23T06:40:47Z</time>
      </trkpt>
      <trkpt lat="42.6424840" lon="-8.6430020">
        <ele>104.8</ele>
        <time>2021-05-23T06:40:48Z</time>
      </trkpt>
      <trkpt lat="42.6425020" lon="-8.6429950">
        <ele>104.9</ele>
        <time>2021-05-23T06:40:49Z</time>
      </trkpt>
      <trkpt lat="42.6425180" lon="-8.6429880">
        <ele>105.0</ele>
        <time>2021-05-23T06:40:50Z</time>
      </trkpt>
      <trkpt lat="42.6425230" lon="-8.6429910">
        <ele>105.0</ele>
        <time>2021-05-23T06:40:51Z</time>
      </trkpt>
      <trkpt lat="42.6425410" lon="-8.6429960">
        <ele>105.1</ele>
        <time>2021-05-23T06:40:52Z</time>
      </trkpt>
      <trkpt lat="42.6425510" lon="-8.6430000">
        <ele>105.2</ele>
        <time>2021-05-23T06:40:53Z</time>
      </trkpt>
      <trkpt lat="42.6425780" lon="-8.6430020">
        <ele>105.3</ele>
        <time>2021-05-23T06:40:54Z</time>
      </trkpt>
      <trkpt lat="42.6425850" lon="-8.6430030">
        <ele>105.3</ele>
        <time>2021-05-23T06:40:55Z</time>
      </trkpt>
      <trkpt lat="42.6425920" lon="-8.6430040">
        <ele>105.4</ele>
        <time>2021-05-23T06:40:56Z</time>
      </trkpt>
      <trkpt lat="42.6426080" lon="-8.6430120">
        <ele>105.4</ele>
        <time>2021-05-23T06:40:57Z</time>
      </trkpt>
      <trkpt lat="42.6426220" lon="-8.6430170">
        <ele>105.5</ele>
        <time>2021-05-23T06:40:58Z</time>
      </trkpt>
      <trkpt lat="42.6426350" lon="-8.6430170">
        <ele>105.5</ele>
        <time>2021-05-23T06:40:59Z</time>
      </trkpt>
      <trkpt lat="42.6426500" lon="-8.6430350">
        <ele>105.6</ele>
        <time>2021-05-23T06:41:00Z</time>
      </trkpt>
      <trkpt lat="42.6426660" lon="-8.6430630">
        <ele>105.7</ele>
        <time>2021-05-23T06:41:01Z</time>
      </trkpt>
      <trkpt lat="42.6426740" lon="-8.6430730">
        <ele>105.7</ele>
        <time>2021-05-23T06:41:02Z</time>
      </trkpt>
      <trkpt lat="42.6426920" lon="-8.6430840">
        <ele>105.8</ele>
        <time>2021-05-23T06:41:03Z</time>
      </trkpt>
      <trkpt lat="42.6427020" lon="-8.6430950">
        <ele>105.8</ele>
        <time>2021-05-23T06:41:04Z</time>
      </trkpt>
      <trkpt lat="42.6426990" lon="-8.6431010">
        <ele>105.9</ele>
        <time>2021-05-23T06:41:05Z</time>
      </trkpt>
      <trkpt lat="42.6427070" lon="-8.6431140">
        <ele>105.9</ele>
        <time>2021-05-23T06:41:06Z</time>
      </trkpt>
      <trkpt lat="42.6427260" lon="-8.6431220">
        <ele>106.0</ele>
        <time>2021-05-23T06:41:07Z</time>
      </trkpt>
      <trkpt lat="42.6427350" lon="-8.6431400">
        <ele>106.0</ele>
        <time>2021-05-23T06:41:08Z</time>
      </trkpt>
      <trkpt lat="42.6427380" lon="-8.6431570">
        <ele>106.1</ele>
        <time>2021-05-23T06:41:09Z</time>
      </trkpt>
      <trkpt lat="42.6427480" lon="-8.6431770">
        <ele>106.2</ele>
        <time>2021-05-23T06:41:10Z</time>
      </trkpt>
      <trkpt lat="42.6427510" lon="-8.6431890">
        <ele>106.2</ele>
        <time>2021-05-23T06:41:11Z</time>
      </trkpt>
      <trkpt lat="42.6427550" lon="-8.6432020">
        <ele>106.3</ele>
        <time>2021-05-23T06:41:12Z</time>
      </trkpt>
      <trkpt lat="42.6427590" lon="-8.6432150">
        <ele>106.3</ele>
        <time>2021-05-23T06:41:13Z</time>
      </trkpt>
      <trkpt lat="42.6427670" lon="-8.6432330">
        <ele>106.4</ele>
        <time>2021-05-23T06:41:14Z</time>
      </trkpt>
      <trkpt lat="42.6427730" lon="-8.6432420">
        <ele>106.4</ele>
        <time>2021-05-23T06:41:15Z</time>
      </trkpt>
      <trkpt lat="42.6427800" lon="-8.6432550">
        <ele>106.4</ele>
        <time>2021-05-23T06:41:16Z</time>
      </trkpt>
      <trkpt lat="42.6427970" lon="-8.6432710">
        <ele>106.5</ele>
        <time>2021-05-23T06:41:17Z</time>
      </trkpt>
      <trkpt lat="42.6427980" lon="-8.6432740">
        <ele>106.6</ele>
        <time>2021-05-23T06:41:18Z</time>
      </trkpt>
      <trkpt lat="42.6428030" lon="-8.6432880">
        <ele>106.6</ele>
        <time>2021-05-23T06:41:19Z</time>
      </trkpt>
      <trkpt lat="42.6428100" lon="-8.6432970">
        <ele>106.7</ele>
        <time>2021-05-23T06:41:20Z</time>
      </trkpt>
      <trkpt lat="42.6428170" lon="-8.6433090">
        <ele>106.7</ele>
        <time>2021-05-23T06:41:21Z</time>
      </trkpt>
      <trkpt lat="42.6428310" lon="-8.6433220">
        <ele>106.8</ele>
        <time>2021-05-23T06:41:22Z</time>
      </trkpt>
      <trkpt lat="42.6428340" lon="-8.6433390">
        <ele>106.9</ele>
        <time>2021-05-23T06:41:23Z</time>
      </trkpt>
      <trkpt lat="42.6428390" lon="-8.6433440">
        <ele>106.9</ele>
        <time>2021-05-23T06:41:24Z</time>
      </trkpt>
      <trkpt lat="42.6428500" lon="-8.6433590">
        <ele>107.0</ele>
        <time>2021-05-23T06:41:25Z</time>
      </trkpt>
      <trkpt lat="42.6428530" lon="-8.6433600">
        <ele>107.0</ele>
        <time>2021-05-23T06:41:26Z</time>
      </trkpt>
      <trkpt lat="42.6428650" lon="-8.6433630">
        <ele>107.1</ele>
        <time>2021-05-23T06:41:27Z</time>
      </trkpt>
      <trkpt lat="42.6428720" lon="-8.6433650">
        <ele>107.1</ele>
        <time>2021-05-23T06:41:28Z</time>
      </trkpt>
      <trkpt lat="42.6428800" lon="-8.6433640">
        <ele>107.1</ele>
        <time>2021-05-23T06:41:29Z</time>
      </trkpt>
      <trkpt lat="42.6428850" lon="-8.6433650">
        <ele>107.2</ele>
        <time>2021-05-23T06:41:30Z</time>
      </trkpt>
      <trkpt lat="42.6428990" lon="-8.6433780">
        <ele>107.3</ele>
        <time>2021-05-23T06:41:31Z</time>
      </trkpt>
      <trkpt lat="42.6429080" lon="-8.6433790">
        <ele>107.3</ele>
        <time>2021-05-23T06:41:32Z</time>
      </trkpt>
      <trkpt lat="42.6429160" lon="-8.6433800">
        <ele>107.4</ele>
        <time>2021-05-23T06:41:33Z</time>
      </trkpt>
      <trkpt lat="42.6429230" lon="-8.6433770">
        <ele>107.4</ele>
        <time>2021-05-23T06:41:34Z</time>
      </trkpt>
      <trkpt lat="42.6429290" lon="-8.6433780">
        <ele>107.5</ele>
        <time>2021-05-23T06:41:35Z</time>
      </trkpt>
      <trkpt lat="42.6429400" lon="-8.6433690">
        <ele>107.5</ele>
        <time>2021-05-23T06:41:36Z</time>
      </trkpt>
      <trkpt lat="42.6429500" lon="-8.6433640">
        <ele>107.6</ele>
        <time>2021-05-23T06:41:37Z</time>
      </trkpt>
      <trkpt lat="42.6429580" lon="-8.6433550">
        <ele>107.7</ele>
        <time>2021-05-23T06:41:38Z</time>
      </trkpt>
      <trkpt lat="42.6429750" lon="-8.6433510">
        <ele>107.8</ele>
        <time>2021-05-23T06:41:39Z</time>
      </trkpt>
      <trkpt lat="42.6429810" lon="-8.6433490">
        <ele>107.9</ele>
        <time>2021-05-23T06:41:40Z</time>
      </trkpt>
      <trkpt lat="42.6429880" lon="-8.6433460">
        <ele>107.9</ele>
        <time>2021-05-23T06:41:41Z</time>
      </trkpt>
      <trkpt lat="42.6429940" lon="-8.6433440">
        <ele>108.0</ele>
        <time>2021-05-23T06:41:42Z</time>
      </trkpt>
      <trkpt lat="42.6430020" lon="-8.6433460">
        <ele>108.0</ele>
        <time>2021-05-23T06:41:43Z</time>
      </trkpt>
      <trkpt lat="42.6430160" lon="-8.6433420">
        <ele>108.1</ele>
        <time>2021-05-23T06:41:44Z</time>
      </trkpt>
      <trkpt lat="42.6430280" lon="-8.6433450">
        <ele>108.2</ele>
        <time>2021-05-23T06:41:45Z</time>
      </trkpt>
      <trkpt lat="42.6430370" lon="-8.6433410">
        <ele>108.3</ele>
        <time>2021-05-23T06:41:46Z</time>
      </trkpt>
      <trkpt lat="42.6430520" lon="-8.6433430">
        <ele>108.4</ele>
        <time>2021-05-23T06:41:47Z</time>
      </trkpt>
      <trkpt lat="42.6430630" lon="-8.6433560">
        <ele>108.6</ele>
        <time>2021-05-23T06:41:48Z</time>
      </trkpt>
      <trkpt lat="42.6430640" lon="-8.6433570">
        <ele>108.6</ele>
        <time>2021-05-23T06:41:49Z</time>
      </trkpt>
      <trkpt lat="42.6430700" lon="-8.6433600">
        <ele>108.7</ele>
        <time>2021-05-23T06:41:50Z</time>
      </trkpt>
      <trkpt lat="42.6430750" lon="-8.6433540">
        <ele>108.7</ele>
        <time>2021-05-23T06:41:51Z</time>
      </trkpt>
      <trkpt lat="42.6430780" lon="-8.6433500">
        <ele>108.8</ele>
        <time>2021-05-23T06:41:52Z</time>
      </trkpt>
      <trkpt lat="42.6430980" lon="-8.6433550">
        <ele>109.0</ele>
        <time>2021-05-23T06:41:53Z</time>
      </trkpt>
      <trkpt lat="42.6431020" lon="-8.6433520">
        <ele>109.0</ele>
        <time>2021-05-23T06:41:54Z</time>
      </trkpt>
      <trkpt lat="42.6431070" lon="-8.6433540">
        <ele>109.1</ele>
        <time>2021-05-23T06:41:55Z</time>
      </trkpt>
      <trkpt lat="42.6431140" lon="-8.6433540">
        <ele>109.1</ele>
        <time>2021-05-23T06:41:56Z</time>
      </trkpt>
      <trkpt lat="42.6431280" lon="-8.6433600">
        <ele>109.3</ele>
        <time>2021-05-23T06:41:57Z</time>
      </trkpt>
      <trkpt lat="42.6431460" lon="-8.6433470">
        <ele>109.5</ele>
        <time>2021-05-23T06:41:58Z</time>
      </trkpt>
      <trkpt lat="42.6431490" lon="-8.6433410">
        <ele>109.6</ele>
        <time>2021-05-23T06:41:59Z</time>
      </trkpt>
      <trkpt lat="42.6431570" lon="-8.6433420">
        <ele>109.7</ele>
        <time>2021-05-23T06:42:00Z</time>
      </trkpt>
      <trkpt lat="42.6431660" lon="-8.6433420">
        <ele>109.8</ele>
        <time>2021-05-23T06:42:01Z</time>
      </trkpt>
      <trkpt lat="42.6431840" lon="-8.6433450">
        <ele>110.0</ele>
        <time>2021-05-23T06:42:02Z</time>
      </trkpt>
      <trkpt lat="42.6432010" lon="-8.6433400">
        <ele>110.2</ele>
        <time>2021-05-23T06:42:03Z</time>
      </trkpt>
      <trkpt lat="42.6432040" lon="-8.6433370">
        <ele>110.2</ele>
        <time>2021-05-23T06:42:04Z</time>
      </trkpt>
      <trkpt lat="42.6432160" lon="-8.6433420">
        <ele>110.4</ele>
        <time>2021-05-23T06:42:05Z</time>
      </trkpt>
      <trkpt lat="42.6432280" lon="-8.6433490">
        <ele>110.5</ele>
        <time>2021-05-23T06:42:06Z</time>
      </trkpt>
      <trkpt lat="42.6432360" lon="-8.6433570">
        <ele>110.6</ele>
        <time>2021-05-23T06:42:07Z</time>
      </trkpt>
      <trkpt lat="42.6432390" lon="-8.6433520">
        <ele>110.7</ele>
        <time>2021-05-23T06:42:08Z</time>
      </trkpt>
      <trkpt lat="42.6432470" lon="-8.6433550">
        <ele>110.8</ele>
        <time>2021-05-23T06:42:09Z</time>
      </trkpt>
      <trkpt lat="42.6432560" lon="-8.6433560">
        <ele>110.9</ele>
        <time>2021-05-23T06:42:10Z</time>
      </trkpt>
      <trkpt lat="42.6432650" lon="-8.6433540">
        <ele>111.0</ele>
        <time>2021-05-23T06:42:11Z</time>
      </trkpt>
      <trkpt lat="42.6432800" lon="-8.6433510">
        <ele>111.2</ele>
        <time>2021-05-23T06:42:12Z</time>
      </trkpt>
      <trkpt lat="42.6432990" lon="-8.6433570">
        <ele>111.4</ele>
        <time>2021-05-23T06:42:13Z</time>
      </trkpt>
      <trkpt lat="42.6433120" lon="-8.6433620">
        <ele>111.6</ele>
        <time>2021-05-23T06:42:14Z</time>
      </trkpt>
      <trkpt lat="42.6433330" lon="-8.6433790">
        <ele>111.9</ele>
        <time>2021-05-23T06:42:15Z</time>
      </trkpt>
      <trkpt lat="42.6433300" lon="-8.6433700">
        <ele>112.0</ele>
        <time>2021-05-23T06:42:16Z</time>
      </trkpt>
      <trkpt lat="42.6433370" lon="-8.6433730">
        <ele>112.0</ele>
        <time>2021-05-23T06:42:17Z</time>
      </trkpt>
      <trkpt lat="42.6433470" lon="-8.6433750">
        <ele>112.2</ele>
        <time>2021-05-23T06:42:18Z</time>
      </trkpt>
      <trkpt lat="42.6433680" lon="-8.6433800">
        <ele>112.4</ele>
        <time>2021-05-23T06:42:19Z</time>
      </trkpt>
      <trkpt lat="42.6433770" lon="-8.6433820">
        <ele>112.5</ele>
        <time>2021-05-23T06:42:20Z</time>
      </trkpt>
      <trkpt lat="42.6433870" lon="-8.6433830">
        <ele>112.6</ele>
        <time>2021-05-23T06:42:21Z</time>
      </trkpt>
      <trkpt lat="42.6434090" lon="-8.6433960">
        <ele>112.9</ele>
        <time>2021-05-23T06:42:22Z</time>
      </trkpt>
      <trkpt lat="42.6434080" lon="-8.6433970">
        <ele>112.9</ele>
        <time>2021-05-23T06:42:23Z</time>
      </trkpt>
      <trkpt lat="42.6434180" lon="-8.6433950">
        <ele>113.0</ele>
        <time>2021-05-23T06:42:24Z</time>
      </trkpt>
      <trkpt lat="42.6434230" lon="-8.6433920">
        <ele>113.0</ele>
        <time>2021-05-23T06:42:25Z</time>
      </trkpt>
      <trkpt lat="42.6434340" lon="-8.6433920">
        <ele>113.2</ele>
        <time>2021-05-23T06:42:26Z</time>
      </trkpt>
      <trkpt lat="42.6434420" lon="-8.6433890">
        <ele>113.2</ele>
        <time>2021-05-23T06:42:27Z</time>
      </trkpt>
      <trkpt lat="42.6434510" lon="-8.6433930">
        <ele>113.3</ele>
        <time>2021-05-23T06:42:28Z</time>
      </trkpt>
      <trkpt lat="42.6434710" lon="-8.6433900">
        <ele>113.5</ele>
        <time>2021-05-23T06:42:29Z</time>
      </trkpt>
      <trkpt lat="42.6434790" lon="-8.6433860">
        <ele>113.6</ele>
        <time>2021-05-23T06:42:30Z</time>
      </trkpt>
      <trkpt lat="42.6434880" lon="-8.6433820">
        <ele>113.7</ele>
        <time>2021-05-23T06:42:31Z</time>
      </trkpt>
      <trkpt lat="42.6435010" lon="-8.6433800">
        <ele>113.8</ele>
        <time>2021-05-23T06:42:32Z</time>
      </trkpt>
      <trkpt lat="42.6435010" lon="-8.6433820">
        <ele>113.8</ele>
        <time>2021-05-23T06:42:33Z</time>
      </trkpt>
      <trkpt lat="42.6435090" lon="-8.6433830">
        <ele>113.9</ele>
        <time>2021-05-23T06:42:34Z</time>
      </trkpt>
      <trkpt lat="42.6435190" lon="-8.6433820">
        <ele>114.0</ele>
        <time>2021-05-23T06:42:35Z</time>
      </trkpt>
      <trkpt lat="42.6435310" lon="-8.6433780">
        <ele>114.1</ele>
        <time>2021-05-23T06:42:36Z</time>
      </trkpt>
      <trkpt lat="42.6435360" lon="-8.6433780">
        <ele>114.1</ele>
        <time>2021-05-23T06:42:37Z</time>
      </trkpt>
      <trkpt lat="42.6435500" lon="-8.6433750">
        <ele>114.2</ele>
        <time>2021-05-23T06:42:38Z</time>
      </trkpt>
      <trkpt lat="42.6435620" lon="-8.6433680">
        <ele>114.3</ele>
        <time>2021-05-23T06:42:39Z</time>
      </trkpt>
      <trkpt lat="42.6435700" lon="-8.6433620">
        <ele>114.4</ele>
        <time>2021-05-23T06:42:40Z</time>
      </trkpt>
      <trkpt lat="42.6435810" lon="-8.6433600">
        <ele>114.4</ele>
        <time>2021-05-23T06:42:41Z</time>
      </trkpt>
      <trkpt lat="42.6435970" lon="-8.6433620">
        <ele>114.5</ele>
        <time>2021-05-23T06:42:42Z</time>
      </trkpt>
      <trkpt lat="42.6436110" lon="-8.6433580">
        <ele>114.6</ele>
        <time>2021-05-23T06:42:43Z</time>
      </trkpt>
      <trkpt lat="42.6436160" lon="-8.6433550">
        <ele>114.7</ele>
        <time>2021-05-23T06:42:44Z</time>
      </trkpt>
      <trkpt lat="42.6436250" lon="-8.6433510">
        <ele>114.7</ele>
        <time>2021-05-23T06:42:45Z</time>
      </trkpt>
      <trkpt lat="42.6436330" lon="-8.6433430">
        <ele>114.8</ele>
        <time>2021-05-23T06:42:46Z</time>
      </trkpt>
      <trkpt lat="42.6436430" lon="-8.6433350">
        <ele>114.9</ele>
        <time>2021-05-23T06:42:47Z</time>
      </trkpt>
      <trkpt lat="42.6436620" lon="-8.6433240">
        <ele>115.0</ele>
        <time>2021-05-23T06:42:48Z</time>
      </trkpt>
      <trkpt lat="42.6436710" lon="-8.6433180">
        <ele>115.0</ele>
        <time>2021-05-23T06:42:49Z</time>
      </trkpt>
      <trkpt lat="42.6436810" lon="-8.6433120">
        <ele>115.1</ele>
        <time>2021-05-23T06:42:50Z</time>
      </trkpt>
      <trkpt lat="42.6436970" lon="-8.6433200">
        <ele>115.2</ele>
        <time>2021-05-23T06:42:51Z</time>
      </trkpt>
      <trkpt lat="42.6437120" lon="-8.6433230">
        <ele>115.2</ele>
        <time>2021-05-23T06:42:52Z</time>
      </trkpt>
      <trkpt lat="42.6437170" lon="-8.6433200">
        <ele>115.3</ele>
        <time>2021-05-23T06:42:53Z</time>
      </trkpt>
      <trkpt lat="42.6437260" lon="-8.6433180">
        <ele>115.3</ele>
        <time>2021-05-23T06:42:54Z</time>
      </trkpt>
      <trkpt lat="42.6437390" lon="-8.6433120">
        <ele>115.4</ele>
        <time>2021-05-23T06:42:55Z</time>
      </trkpt>
      <trkpt lat="42.6437610" lon="-8.6433120">
        <ele>115.5</ele>
        <time>2021-05-23T06:42:56Z</time>
      </trkpt>
      <trkpt lat="42.6437700" lon="-8.6433110">
        <ele>115.5</ele>
        <time>2021-05-23T06:42:57Z</time>
      </trkpt>
      <trkpt lat="42.6437900" lon="-8.6433060">
        <ele>115.6</ele>
        <time>2021-05-23T06:42:58Z</time>
      </trkpt>
      <trkpt lat="42.6437980" lon="-8.6433070">
        <ele>115.7</ele>
        <time>2021-05-23T06:42:59Z</time>
      </trkpt>
      <trkpt lat="42.6438060" lon="-8.6433080">
        <ele>115.7</ele>
        <time>2021-05-23T06:43:00Z</time>
      </trkpt>
      <trkpt lat="42.6438140" lon="-8.6433090">
        <ele>115.7</ele>
        <time>2021-05-23T06:43:01Z</time>
      </trkpt>
      <trkpt lat="42.6438260" lon="-8.6433070">
        <ele>115.8</ele>
        <time>2021-05-23T06:43:02Z</time>
      </trkpt>
      <trkpt lat="42.6438310" lon="-8.6432940">
        <ele>115.8</ele>
        <time>2021-05-23T06:43:03Z</time>
      </trkpt>
      <trkpt lat="42.6438350" lon="-8.6432950">
        <ele>115.9</ele>
        <time>2021-05-23T06:43:04Z</time>
      </trkpt>
      <trkpt lat="42.6438450" lon="-8.6432940">
        <ele>115.9</ele>
        <time>2021-05-23T06:43:05Z</time>
      </trkpt>
      <trkpt lat="42.6438570" lon="-8.6432920">
        <ele>116.0</ele>
        <time>2021-05-23T06:43:06Z</time>
      </trkpt>
      <trkpt lat="42.6438710" lon="-8.6432920">
        <ele>116.0</ele>
        <time>2021-05-23T06:43:07Z</time>
      </trkpt>
      <trkpt lat="42.6438790" lon="-8.6432910">
        <ele>116.1</ele>
        <time>2021-05-23T06:43:08Z</time>
      </trkpt>
      <trkpt lat="42.6438910" lon="-8.6432920">
        <ele>116.1</ele>
        <time>2021-05-23T06:43:09Z</time>
      </trkpt>
      <trkpt lat="42.6439040" lon="-8.6432870">
        <ele>116.2</ele>
        <time>2021-05-23T06:43:10Z</time>
      </trkpt>
      <trkpt lat="42.6439100" lon="-8.6432750">
        <ele>116.2</ele>
        <time>2021-05-23T06:43:11Z</time>
      </trkpt>
      <trkpt lat="42.6439260" lon="-8.6432770">
        <ele>116.3</ele>
        <time>2021-05-23T06:43:12Z</time>
      </trkpt>
      <trkpt lat="42.6439340" lon="-8.6432780">
        <ele>116.3</ele>
        <time>2021-05-23T06:43:13Z</time>
      </trkpt>
      <trkpt lat="42.6439460" lon="-8.6432790">
        <ele>116.4</ele>
        <time>2021-05-23T06:43:14Z</time>
      </trkpt>
      <trkpt lat="42.6439560" lon="-8.6432750">
        <ele>116.5</ele>
        <time>2021-05-23T06:43:15Z</time>
      </trkpt>
      <trkpt lat="42.6439620" lon="-8.6432720">
        <ele>116.5</ele>
        <time>2021-05-23T06:43:16Z</time>
      </trkpt>
      <trkpt lat="42.6439780" lon="-8.6432710">
        <ele>116.6</ele>
        <time>2021-05-23T06:43:17Z</time>
      </trkpt>
      <trkpt lat="42.6439830" lon="-8.6432590">
        <ele>116.6</ele>
        <time>2021-05-23T06:43:18Z</time>
      </trkpt>
      <trkpt lat="42.6439870" lon="-8.6432560">
        <ele>116.6</ele>
        <time>2021-05-23T06:43:19Z</time>
      </trkpt>
      <trkpt lat="42.6439990" lon="-8.6432560">
        <ele>116.7</ele>
        <time>2021-05-23T06:43:20Z</time>
      </trkpt>
      <trkpt lat="42.6440090" lon="-8.6432550">
        <ele>116.7</ele>
        <time>2021-05-23T06:43:21Z</time>
      </trkpt>
      <trkpt lat="42.6440260" lon="-8.6432560">
        <ele>116.8</ele>
        <time>2021-05-23T06:43:22Z</time>
      </trkpt>
      <trkpt lat="42.6440390" lon="-8.6432560">
        <ele>116.9</ele>
        <time>2021-05-23T06:43:23Z</time>
      </trkpt>
      <trkpt lat="42.6440550" lon="-8.6432560">
        <ele>117.0</ele>
        <time>2021-05-23T06:43:24Z</time>
      </trkpt>
      <trkpt lat="42.6440630" lon="-8.6432520">
        <ele>117.0</ele>
        <time>2021-05-23T06:43:25Z</time>
      </trkpt>
      <trkpt lat="42.6440720" lon="-8.6432490">
        <ele>117.0</ele>
        <time>2021-05-23T06:43:26Z</time>
      </trkpt>
      <trkpt lat="42.6440810" lon="-8.6432450">
        <ele>117.1</ele>
        <time>2021-05-23T06:43:27Z</time>
      </trkpt>
      <trkpt lat="42.6440930" lon="-8.6432480">
        <ele>117.1</ele>
        <time>2021-05-23T06:43:28Z</time>
      </trkpt>
      <trkpt lat="42.6441050" lon="-8.6432480">
        <ele>117.2</ele>
        <time>2021-05-23T06:43:29Z</time>
      </trkpt>
      <trkpt lat="42.6441170" lon="-8.6432480">
        <ele>117.2</ele>
        <time>2021-05-23T06:43:30Z</time>
      </trkpt>
      <trkpt lat="42.6441260" lon="-8.6432430">
        <ele>117.3</ele>
        <time>2021-05-23T06:43:31Z</time>
      </trkpt>
      <trkpt lat="42.6441330" lon="-8.6432430">
        <ele>117.3</ele>
        <time>2021-05-23T06:43:32Z</time>
      </trkpt>
      <trkpt lat="42.6441390" lon="-8.6432390">
        <ele>117.4</ele>
        <time>2021-05-23T06:43:33Z</time>
      </trkpt>
      <trkpt lat="42.6441620" lon="-8.6432450">
        <ele>117.5</ele>
        <time>2021-05-23T06:43:34Z</time>
      </trkpt>
      <trkpt lat="42.6441640" lon="-8.6432360">
        <ele>117.5</ele>
        <time>2021-05-23T06:43:35Z</time>
      </trkpt>
      <trkpt lat="42.6441800" lon="-8.6432310">
        <ele>117.6</ele>
        <time>2021-05-23T06:43:36Z</time>
      </trkpt>
      <trkpt lat="42.6441880" lon="-8.6432240">
        <ele>117.6</ele>
        <time>2021-05-23T06:43:37Z</time>
      </trkpt>
      <trkpt lat="42.6441960" lon="-8.6432170">
        <ele>117.6</ele>
        <time>2021-05-23T06:43:38Z</time>
      </trkpt>
      <trkpt lat="42.6442070" lon="-8.6432140">
        <ele>117.7</ele>
        <time>2021-05-23T06:43:39Z</time>
      </trkpt>
      <trkpt lat="42.6442170" lon="-8.6432120">
        <ele>117.7</ele>
        <time>2021-05-23T06:43:40Z</time>
      </trkpt>
      <trkpt lat="42.6442270" lon="-8.6432090">
        <ele>117.8</ele>
        <time>2021-05-23T06:43:41Z</time>
      </trkpt>
      <trkpt lat="42.6442400" lon="-8.6431980">
        <ele>117.8</ele>
        <time>2021-05-23T06:43:42Z</time>
      </trkpt>
      <trkpt lat="42.6442510" lon="-8.6431950">
        <ele>117.9</ele>
        <time>2021-05-23T06:43:43Z</time>
      </trkpt>
      <trkpt lat="42.6442610" lon="-8.6431980">
        <ele>117.9</ele>
        <time>2021-05-23T06:43:44Z</time>
      </trkpt>
      <trkpt lat="42.6442710" lon="-8.6431980">
        <ele>117.9</ele>
        <time>2021-05-23T06:43:45Z</time>
      </trkpt>
      <trkpt lat="42.6442830" lon="-8.6432020">
        <ele>118.0</ele>
        <time>2021-05-23T06:43:46Z</time>
      </trkpt>
      <trkpt lat="42.6442920" lon="-8.6432000">
        <ele>118.0</ele>
        <time>2021-05-23T06:43:47Z</time>
      </trkpt>
      <trkpt lat="42.6442990" lon="-8.6431990">
        <ele>118.1</ele>
        <time>2021-05-23T06:43:48Z</time>
      </trkpt>
      <trkpt lat="42.6443090" lon="-8.6432010">
        <ele>118.1</ele>
        <time>2021-05-23T06:43:49Z</time>
      </trkpt>
      <trkpt lat="42.6443210" lon="-8.6431990">
        <ele>118.1</ele>
        <time>2021-05-23T06:43:50Z</time>
      </trkpt>
      <trkpt lat="42.6443270" lon="-8.6431950">
        <ele>118.2</ele>
        <time>2021-05-23T06:43:51Z</time>
      </trkpt>
      <trkpt lat="42.6443410" lon="-8.6431900">
        <ele>118.2</ele>
        <time>2021-05-23T06:43:52Z</time>
      </trkpt>
      <trkpt lat="42.6443450" lon="-8.6431830">
        <ele>118.3</ele>
        <time>2021-05-23T06:43:53Z</time>
      </trkpt>
      <trkpt lat="42.6443530" lon="-8.6431820">
        <ele>118.3</ele>
        <time>2021-05-23T06:43:54Z</time>
      </trkpt>
      <trkpt lat="42.6443760" lon="-8.6431790">
        <ele>118.4</ele>
        <time>2021-05-23T06:43:55Z</time>
      </trkpt>
      <trkpt lat="42.6443830" lon="-8.6431780">
        <ele>118.4</ele>
        <time>2021-05-23T06:43:56Z</time>
      </trkpt>
      <trkpt lat="42.6443900" lon="-8.6431780">
        <ele>118.5</ele>
        <time>2021-05-23T06:43:57Z</time>
      </trkpt>
      <trkpt lat="42.6444070" lon="-8.6431790">
        <ele>118.5</ele>
        <time>2021-05-23T06:43:58Z</time>
      </trkpt>
      <trkpt lat="42.6444180" lon="-8.6431740">
        <ele>118.6</ele>
        <time>2021-05-23T06:43:59Z</time>
      </trkpt>
      <trkpt lat="42.6444270" lon="-8.6431610">
        <ele>118.7</ele>
        <time>2021-05-23T06:44:00Z</time>
      </trkpt>
      <trkpt lat="42.6444330" lon="-8.6431610">
        <ele>118.7</ele>
        <time>2021-05-23T06:44:01Z</time>
      </trkpt>
      <trkpt lat="42.6444380" lon="-8.6431610">
        <ele>118.7</ele>
        <time>2021-05-23T06:44:02Z</time>
      </trkpt>
      <trkpt lat="42.6444430" lon="-8.6431610">
        <ele>118.7</ele>
        <time>2021-05-23T06:44:03Z</time>
      </trkpt>
      <trkpt lat="42.6444490" lon="-8.6431610">
        <ele>118.8</ele>
        <time>2021-05-23T06:44:04Z</time>
      </trkpt>
      <trkpt lat="42.6444540" lon="-8.6431610">
        <ele>118.8</ele>
        <time>2021-05-23T06:44:05Z</time>
      </trkpt>
      <trkpt lat="42.6444630" lon="-8.6431670">
        <ele>118.9</ele>
        <time>2021-05-23T06:44:06Z</time>
      </trkpt>
      <trkpt lat="42.6444780" lon="-8.6431740">
        <ele>119.0</ele>
        <time>2021-05-23T06:44:07Z</time>
      </trkpt>
      <trkpt lat="42.6444860" lon="-8.6431640">
        <ele>119.0</ele>
        <time>2021-05-23T06:44:08Z</time>
      </trkpt>
      <trkpt lat="42.6445060" lon="-8.6431640">
        <ele>119.2</ele>
        <time>2021-05-23T06:44:09Z</time>
      </trkpt>
      <trkpt lat="42.6445140" lon="-8.6431640">
        <ele>119.2</ele>
        <time>2021-05-23T06:44:10Z</time>
      </trkpt>
      <trkpt lat="42.6445230" lon="-8.6431640">
        <ele>119.3</ele>
        <time>2021-05-23T06:44:11Z</time>
      </trkpt>
      <trkpt lat="42.6445340" lon="-8.6431660">
        <ele>119.3</ele>
        <time>2021-05-23T06:44:12Z</time>
      </trkpt>
      <trkpt lat="42.6445450" lon="-8.6431670">
        <ele>119.4</ele>
        <time>2021-05-23T06:44:13Z</time>
      </trkpt>
      <trkpt lat="42.6445550" lon="-8.6431680">
        <ele>119.5</ele>
        <time>2021-05-23T06:44:14Z</time>
      </trkpt>
      <trkpt lat="42.6445680" lon="-8.6431700">
        <ele>119.6</ele>
        <time>2021-05-23T06:44:15Z</time>
      </trkpt>
      <trkpt lat="42.6445730" lon="-8.6431720">
        <ele>119.6</ele>
        <time>2021-05-23T06:44:16Z</time>
      </trkpt>
      <trkpt lat="42.6445830" lon="-8.6431680">
        <ele>119.7</ele>
        <time>2021-05-23T06:44:17Z</time>
      </trkpt>
      <trkpt lat="42.6446030" lon="-8.6431700">
        <ele>119.8</ele>
        <time>2021-05-23T06:44:18Z</time>
      </trkpt>
      <trkpt lat="42.6446110" lon="-8.6431670">
        <ele>119.9</ele>
        <time>2021-05-23T06:44:19Z</time>
      </trkpt>
      <trkpt lat="42.6446260" lon="-8.6431670">
        <ele>120.0</ele>
        <time>2021-05-23T06:44:20Z</time>
      </trkpt>
      <trkpt lat="42.6446350" lon="-8.6431710">
        <ele>120.0</ele>
        <time>2021-05-23T06:44:21Z</time>
      </trkpt>
      <trkpt lat="42.6446430" lon="-8.6431760">
        <ele>120.1</ele>
        <time>2021-05-23T06:44:22Z</time>
      </trkpt>
      <trkpt lat="42.6446520" lon="-8.6431800">
        <ele>120.2</ele>
        <time>2021-05-23T06:44:23Z</time>
      </trkpt>
      <trkpt lat="42.6446540" lon="-8.6431740">
        <ele>120.2</ele>
        <time>2021-05-23T06:44:24Z</time>
      </trkpt>
      <trkpt lat="42.6446640" lon="-8.6431770">
        <ele>120.3</ele>
        <time>2021-05-23T06:44:25Z</time>
      </trkpt>
      <trkpt lat="42.6446820" lon="-8.6431810">
        <ele>120.4</ele>
        <time>2021-05-23T06:44:26Z</time>
      </trkpt>
      <trkpt lat="42.6446970" lon="-8.6431850">
        <ele>120.6</ele>
        <time>2021-05-23T06:44:27Z</time>
      </trkpt>
      <trkpt lat="42.6447060" lon="-8.6431800">
        <ele>120.6</ele>
        <time>2021-05-23T06:44:28Z</time>
      </trkpt>
      <trkpt lat="42.6447160" lon="-8.6431840">
        <ele>120.7</ele>
        <time>2021-05-23T06:44:29Z</time>
      </trkpt>
      <trkpt lat="42.6447360" lon="-8.6431950">
        <ele>120.9</ele>
        <time>2021-05-23T06:44:30Z</time>
      </trkpt>
      <trkpt lat="42.6447440" lon="-8.6431950">
        <ele>121.0</ele>
        <time>2021-05-23T06:44:31Z</time>
      </trkpt>
      <trkpt lat="42.6447510" lon="-8.6431940">
        <ele>121.0</ele>
        <time>2021-05-23T06:44:32Z</time>
      </trkpt>
      <trkpt lat="42.6447590" lon="-8.6431940">
        <ele>121.1</ele>
        <time>2021-05-23T06:44:33Z</time>
      </trkpt>
      <trkpt lat="42.6447650" lon="-8.6431970">
        <ele>121.2</ele>
        <time>2021-05-23T06:44:34Z</time>
      </trkpt>
      <trkpt lat="42.6447710" lon="-8.6432040">
        <ele>121.2</ele>
        <time>2021-05-23T06:44:35Z</time>
      </trkpt>
      <trkpt lat="42.6447900" lon="-8.6432140">
        <ele>121.4</ele>
        <time>2021-05-23T06:44:36Z</time>
      </trkpt>
      <trkpt lat="42.6448010" lon="-8.6432230">
        <ele>121.6</ele>
        <time>2021-05-23T06:44:37Z</time>
      </trkpt>
      <trkpt lat="42.6448160" lon="-8.6432310">
        <ele>121.7</ele>
        <time>2021-05-23T06:44:38Z</time>
      </trkpt>
      <trkpt lat="42.6448260" lon="-8.6432370">
        <ele>121.8</ele>
        <time>2021-05-23T06:44:39Z</time>
      </trkpt>
      <trkpt lat="42.6448370" lon="-8.6432430">
        <ele>121.9</ele>
        <time>2021-05-23T06:44:40Z</time>
      </trkpt>
      <trkpt lat="42.6448510" lon="-8.6432430">
        <ele>122.1</ele>
        <time>2021-05-23T06:44:41Z</time>
      </trkpt>
      <trkpt lat="42.6448600" lon="-8.6432520">
        <ele>122.2</ele>
        <time>2021-05-23T06:44:42Z</time>
      </trkpt>
      <trkpt lat="42.6448730" lon="-8.6432580">
        <ele>122.4</ele>
        <time>2021-05-23T06:44:43Z</time>
      </trkpt>
      <trkpt lat="42.6448800" lon="-8.6432600">
        <ele>122.4</ele>
        <time>2021-05-23T06:44:44Z</time>
      </trkpt>
      <trkpt lat="42.6448960" lon="-8.6432670">
        <ele>122.7</ele>
        <time>2021-05-23T06:44:45Z</time>
      </trkpt>
      <trkpt lat="42.6449090" lon="-8.6432750">
        <ele>122.8</ele>
        <time>2021-05-23T06:44:46Z</time>
      </trkpt>
      <trkpt lat="42.6449150" lon="-8.6432830">
        <ele>122.9</ele>
        <time>2021-05-23T06:44:47Z</time>
      </trkpt>
      <trkpt lat="42.6449180" lon="-8.6432870">
        <ele>123.0</ele>
        <time>2021-05-23T06:44:48Z</time>
      </trkpt>
      <trkpt lat="42.6449210" lon="-8.6432910">
        <ele>123.0</ele>
        <time>2021-05-23T06:44:49Z</time>
      </trkpt>
      <trkpt lat="42.6449240" lon="-8.6432940">
        <ele>123.1</ele>
        <time>2021-05-23T06:44:50Z</time>
      </trkpt>
      <trkpt lat="42.6449260" lon="-8.6432980">
        <ele>123.1</ele>
        <time>2021-05-23T06:44:51Z</time>
      </trkpt>
      <trkpt lat="42.6449290" lon="-8.6433020">
        <ele>123.2</ele>
        <time>2021-05-23T06:44:52Z</time>
      </trkpt>
      <trkpt lat="42.6449320" lon="-8.6433060">
        <ele>123.2</ele>
        <time>2021-05-23T06:44:53Z</time>
      </trkpt>
      <trkpt lat="42.6449350" lon="-8.6433100">
        <ele>123.3</ele>
        <time>2021-05-23T06:44:54Z</time>
      </trkpt>
      <trkpt lat="42.6449440" lon="-8.6433150">
        <ele>123.4</ele>
        <time>2021-05-23T06:44:55Z</time>
      </trkpt>
      <trkpt lat="42.6449460" lon="-8.6433180">
        <ele>123.5</ele>
        <time>2021-05-23T06:44:56Z</time>
      </trkpt>
      <trkpt lat="42.6449560" lon="-8.6433230">
        <ele>123.6</ele>
        <time>2021-05-23T06:44:57Z</time>
      </trkpt>
      <trkpt lat="42.6449670" lon="-8.6433180">
        <ele>123.7</ele>
        <time>2021-05-23T06:44:58Z</time>
      </trkpt>
      <trkpt lat="42.6449740" lon="-8.6433320">
        <ele>123.9</ele>
        <time>2021-05-23T06:44:59Z</time>
      </trkpt>
      <trkpt lat="42.6449900" lon="-8.6433320">
        <ele>124.1</ele>
        <time>2021-05-23T06:45:00Z</time>
      </trkpt>
      <trkpt lat="42.6449980" lon="-8.6433290">
        <ele>124.3</ele>
        <time>2021-05-23T06:45:01Z</time>
      </trkpt>
      <trkpt lat="42.6450020" lon="-8.6433350">
        <ele>124.3</ele>
        <time>2021-05-23T06:45:02Z</time>
      </trkpt>
      <trkpt lat="42.6450050" lon="-8.6433420">
        <ele>124.4</ele>
        <time>2021-05-23T06:45:03Z</time>
      </trkpt>
      <trkpt lat="42.6450160" lon="-8.6433450">
        <ele>124.6</ele>
        <time>2021-05-23T06:45:04Z</time>
      </trkpt>
      <trkpt lat="42.6450220" lon="-8.6433470">
        <ele>124.7</ele>
        <time>2021-05-23T06:45:05Z</time>
      </trkpt>
      <trkpt lat="42.6450260" lon="-8.6433510">
        <ele>124.7</ele>
        <time>2021-05-23T06:45:06Z</time>
      </trkpt>
      <trkpt lat="42.6450390" lon="-8.6433640">
        <ele>125.0</ele>
        <time>2021-05-23T06:45:07Z</time>
      </trkpt>
      <trkpt lat="42.6450480" lon="-8.6433650">
        <ele>125.1</ele>
        <time>2021-05-23T06:45:08Z</time>
      </trkpt>
      <trkpt lat="42.6450510" lon="-8.6433750">
        <ele>125.2</ele>
        <time>2021-05-23T06:45:09Z</time>
      </trkpt>
      <trkpt lat="42.6450600" lon="-8.6433850">
        <ele>125.4</ele>
        <time>2021-05-23T06:45:10Z</time>
      </trkpt>
      <trkpt lat="42.6450710" lon="-8.6433880">
        <ele>125.5</ele>
        <time>2021-05-23T06:45:11Z</time>
      </trkpt>
      <trkpt lat="42.6450870" lon="-8.6433960">
        <ele>125.7</ele>
        <time>2021-05-23T06:45:12Z</time>
      </trkpt>
      <trkpt lat="42.6451010" lon="-8.6434010">
        <ele>125.9</ele>
        <time>2021-05-23T06:45:13Z</time>
      </trkpt>
      <trkpt lat="42.6451110" lon="-8.6434030">
        <ele>126.1</ele>
        <time>2021-05-23T06:45:14Z</time>
      </trkpt>
      <trkpt lat="42.6451240" lon="-8.6434050">
        <ele>126.2</ele>
        <time>2021-05-23T06:45:15Z</time>
      </trkpt>
      <trkpt lat="42.6451300" lon="-8.6434030">
        <ele>126.3</ele>
        <time>2021-05-23T06:45:16Z</time>
      </trkpt>
      <trkpt lat="42.6451450" lon="-8.6433950">
        <ele>126.5</ele>
        <time>2021-05-23T06:45:17Z</time>
      </trkpt>
      <trkpt lat="42.6451560" lon="-8.6433930">
        <ele>126.6</ele>
        <time>2021-05-23T06:45:18Z</time>
      </trkpt>
      <trkpt lat="42.6451650" lon="-8.6433940">
        <ele>126.7</ele>
        <time>2021-05-23T06:45:19Z</time>
      </trkpt>
      <trkpt lat="42.6451830" lon="-8.6434000">
        <ele>126.9</ele>
        <time>2021-05-23T06:45:20Z</time>
      </trkpt>
      <trkpt lat="42.6451920" lon="-8.6433990">
        <ele>127.0</ele>
        <time>2021-05-23T06:45:21Z</time>
      </trkpt>
      <trkpt lat="42.6451960" lon="-8.6433980">
        <ele>127.1</ele>
        <time>2021-05-23T06:45:22Z</time>
      </trkpt>
      <trkpt lat="42.6452020" lon="-8.6433930">
        <ele>127.2</ele>
        <time>2021-05-23T06:45:23Z</time>
      </trkpt>
      <trkpt lat="42.6452060" lon="-8.6433890">
        <ele>127.2</ele>
        <time>2021-05-23T06:45:24Z</time>
      </trkpt>
      <trkpt lat="42.6452110" lon="-8.6433840">
        <ele>127.3</ele>
        <time>2021-05-23T06:45:25Z</time>
      </trkpt>
      <trkpt lat="42.6452210" lon="-8.6433800">
        <ele>127.4</ele>
        <time>2021-05-23T06:45:26Z</time>
      </trkpt>
      <trkpt lat="42.6452360" lon="-8.6433770">
        <ele>127.5</ele>
        <time>2021-05-23T06:45:27Z</time>
      </trkpt>
      <trkpt lat="42.6452540" lon="-8.6433730">
        <ele>127.7</ele>
        <time>2021-05-23T06:45:28Z</time>
      </trkpt>
      <trkpt lat="42.6452630" lon="-8.6433780">
        <ele>127.8</ele>
        <time>2021-05-23T06:45:29Z</time>
      </trkpt>
      <trkpt lat="42.6452750" lon="-8.6433710">
        <ele>127.9</ele>
        <time>2021-05-23T06:45:30Z</time>
      </trkpt>
      <trkpt lat="42.6452760" lon="-8.6433660">
        <ele>127.9</ele>
        <time>2021-05-23T06:45:31Z</time>
      </trkpt>
      <trkpt lat="42.6452820" lon="-8.6433710">
        <ele>127.9</ele>
        <time>2021-05-23T06:45:32Z</time>
      </trkpt>
      <trkpt lat="42.6453000" lon="-8.6433720">
        <ele>128.1</ele>
        <time>2021-05-23T06:45:33Z</time>
      </trkpt>
      <trkpt lat="42.6453170" lon="-8.6433690">
        <ele>128.2</ele>
        <time>2021-05-23T06:45:34Z</time>
      </trkpt>
      <trkpt lat="42.6453260" lon="-8.6433630">
        <ele>128.3</ele>
        <time>2021-05-23T06:45:35Z</time>
      </trkpt>
      <trkpt lat="42.6453380" lon="-8.6433580">
        <ele>128.3</ele>
        <time>2021-05-23T06:45:36Z</time>
      </trkpt>
      <trkpt lat="42.6453490" lon="-8.6433470">
        <ele>128.4</ele>
        <time>2021-05-23T06:45:37Z</time>
      </trkpt>
      <trkpt lat="42.6453530" lon="-8.6433490">
        <ele>128.4</ele>
        <time>2021-05-23T06:45:38Z</time>
      </trkpt>
      <trkpt lat="42.6453670" lon="-8.6433560">
        <ele>128.5</ele>
        <time>2021-05-23T06:45:39Z</time>
      </trkpt>
      <trkpt lat="42.6453730" lon="-8.6433550">
        <ele>128.5</ele>
        <time>2021-05-23T06:45:40Z</time>
      </trkpt>
      <trkpt lat="42.6453830" lon="-8.6433510">
        <ele>128.6</ele>
        <time>2021-05-23T06:45:41Z</time>
      </trkpt>
      <trkpt lat="42.6453960" lon="-8.6433550">
        <ele>128.7</ele>
        <time>2021-05-23T06:45:42Z</time>
      </trkpt>
      <trkpt lat="42.6454040" lon="-8.6433540">
        <ele>128.7</ele>
        <time>2021-05-23T06:45:43Z</time>
      </trkpt>
      <trkpt lat="42.6454190" lon="-8.6433510">
        <ele>128.8</ele>
        <time>2021-05-23T06:45:44Z</time>
      </trkpt>
      <trkpt lat="42.6454330" lon="-8.6433520">
        <ele>128.8</ele>
        <time>2021-05-23T06:45:45Z</time>
      </trkpt>
      <trkpt lat="42.6454460" lon="-8.6433580">
        <ele>128.9</ele>
        <time>2021-05-23T06:45:46Z</time>
      </trkpt>
      <trkpt lat="42.6454450" lon="-8.6433580">
        <ele>128.9</ele>
        <time>2021-05-23T06:45:47Z</time>
      </trkpt>
      <trkpt lat="42.6454610" lon="-8.6433620">
        <ele>128.9</ele>
        <time>2021-05-23T06:45:48Z</time>
      </trkpt>
      <trkpt lat="42.6454710" lon="-8.6433650">
        <ele>129.0</ele>
        <time>2021-05-23T06:45:49Z</time>
      </trkpt>
      <trkpt lat="42.6454790" lon="-8.6433760">
        <ele>129.0</ele>
        <time>2021-05-23T06:45:50Z</time>
      </trkpt>
      <trkpt lat="42.6455000" lon="-8.6433790">
        <ele>129.1</ele>
        <time>2021-05-23T06:45:51Z</time>
      </trkpt>
      <trkpt lat="42.6455110" lon="-8.6433820">
        <ele>129.1</ele>
        <time>2021-05-23T06:45:52Z</time>
      </trkpt>
      <trkpt lat="42.6455350" lon="-8.6433950">
        <ele>129.2</ele>
        <time>2021-05-23T06:45:53Z</time>
      </trkpt>
      <trkpt lat="42.6455430" lon="-8.6434010">
        <ele>129.2</ele>
        <time>2021-05-23T06:45:54Z</time>
      </trkpt>
      <trkpt lat="42.6455520" lon="-8.6434080">
        <ele>129.2</ele>
        <time>2021-05-23T06:45:55Z</time>
      </trkpt>
      <trkpt lat="42.6455670" lon="-8.6434120">
        <ele>129.2</ele>
        <time>2021-05-23T06:45:56Z</time>
      </trkpt>
      <trkpt lat="42.6455840" lon="-8.6434170">
        <ele>129.3</ele>
        <time>2021-05-23T06:45:57Z</time>
      </trkpt>
      <trkpt lat="42.6456000" lon="-8.6434230">
        <ele>129.3</ele>
        <time>2021-05-23T06:45:58Z</time>
      </trkpt>
      <trkpt lat="42.6456110" lon="-8.6434280">
        <ele>129.3</ele>
        <time>2021-05-23T06:45:59Z</time>
      </trkpt>
      <trkpt lat="42.6456330" lon="-8.6434370">
        <ele>129.3</ele>
        <time>2021-05-23T06:46:00Z</time>
      </trkpt>
      <trkpt lat="42.6456400" lon="-8.6434420">
        <ele>129.4</ele>
        <time>2021-05-23T06:46:01Z</time>
      </trkpt>
      <trkpt lat="42.6456620" lon="-8.6434460">
        <ele>129.4</ele>
        <time>2021-05-23T06:46:02Z</time>
      </trkpt>
      <trkpt lat="42.6456670" lon="-8.6434480">
        <ele>129.4</ele>
        <time>2021-05-23T06:46:03Z</time>
      </trkpt>
      <trkpt lat="42.6456980" lon="-8.6434590">
        <ele>129.4</ele>
        <time>2021-05-23T06:46:04Z</time>
      </trkpt>
      <trkpt lat="42.6457070" lon="-8.6434650">
        <ele>129.4</ele>
        <time>2021-05-23T06:46:05Z</time>
      </trkpt>
      <trkpt lat="42.6457030" lon="-8.6434690">
        <ele>129.4</ele>
        <time>2021-05-23T06:46:06Z</time>
      </trkpt>
      <trkpt lat="42.6457080" lon="-8.6434710">
        <ele>129.4</ele>
        <time>2021-05-23T06:46:07Z</time>
      </trkpt>
      <trkpt lat="42.6457270" lon="-8.6434860">
        <ele>129.4</ele>
        <time>2021-05-23T06:46:08Z</time>
      </trkpt>
      <trkpt lat="42.6457350" lon="-8.6434910">
        <ele>129.4</ele>
        <time>2021-05-23T06:46:09Z</time>
      </trkpt>
      <trkpt lat="42.6457450" lon="-8.6434940">
        <ele>129.4</ele>
        <time>2021-05-23T06:46:10Z</time>
      </trkpt>
      <trkpt lat="42.6457570" lon="-8.6435010">
        <ele>129.4</ele>
        <time>2021-05-23T06:46:11Z</time>
      </trkpt>
      <trkpt lat="42.6457680" lon="-8.6435040">
        <ele>129.4</ele>
        <time>2021-05-23T06:46:12Z</time>
      </trkpt>
      <trkpt lat="42.6457650" lon="-8.6435020">
        <ele>129.4</ele>
        <time>2021-05-23T06:46:13Z</time>
      </trkpt>
      <trkpt lat="42.6457700" lon="-8.6435050">
        <ele>129.4</ele>
        <time>2021-05-23T06:46:14Z</time>
      </trkpt>
      <trkpt lat="42.6457770" lon="-8.6435180">
        <ele>129.3</ele>
        <time>2021-05-23T06:46:15Z</time>
      </trkpt>
      <trkpt lat="42.6457970" lon="-8.6435290">
        <ele>129.3</ele>
        <time>2021-05-23T06:46:16Z</time>
      </trkpt>
      <trkpt lat="42.6458030" lon="-8.6435300">
        <ele>129.3</ele>
        <time>2021-05-23T06:46:17Z</time>
      </trkpt>
      <trkpt lat="42.6458310" lon="-8.6435390">
        <ele>129.3</ele>
        <time>2021-05-23T06:46:18Z</time>
      </trkpt>
      <trkpt lat="42.6458400" lon="-8.6435390">
        <ele>129.3</ele>
        <time>2021-05-23T06:46:19Z</time>
      </trkpt>
      <trkpt lat="42.6458420" lon="-8.6435430">
        <ele>129.3</ele>
        <time>2021-05-23T06:46:20Z</time>
      </trkpt>
      <trkpt lat="42.6458560" lon="-8.6435460">
        <ele>129.3</ele>
        <time>2021-05-23T06:46:21Z</time>
      </trkpt>
      <trkpt lat="42.6458580" lon="-8.6435530">
        <ele>129.3</ele>
        <time>2021-05-23T06:46:22Z</time>
      </trkpt>
      <trkpt lat="42.6458810" lon="-8.6435560">
        <ele>129.3</ele>
        <time>2021-05-23T06:46:23Z</time>
      </trkpt>
      <trkpt lat="42.6458880" lon="-8.6435560">
        <ele>129.3</ele>
        <time>2021-05-23T06:46:24Z</time>
      </trkpt>
      <trkpt lat="42.6458940" lon="-8.6435550">
        <ele>129.3</ele>
        <time>2021-05-23T06:46:25Z</time>
      </trkpt>
      <trkpt lat="42.6459120" lon="-8.6435510">
        <ele>129.3</ele>
        <time>2021-05-23T06:46:26Z</time>
      </trkpt>
      <trkpt lat="42.6459250" lon="-8.6435560">
        <ele>129.3</ele>
        <time>2021-05-23T06:46:27Z</time>
      </trkpt>
      <trkpt lat="42.6459360" lon="-8.6435550">
        <ele>129.2</ele>
        <time>2021-05-23T06:46:28Z</time>
      </trkpt>
      <trkpt lat="42.6459420" lon="-8.6435540">
        <ele>129.2</ele>
        <time>2021-05-23T06:46:29Z</time>
      </trkpt>
      <trkpt lat="42.6459520" lon="-8.6435500">
        <ele>129.2</ele>
        <time>2021-05-23T06:46:30Z</time>
      </trkpt>
      <trkpt lat="42.6459680" lon="-8.6435420">
        <ele>129.2</ele>
        <time>2021-05-23T06:46:31Z</time>
      </trkpt>
      <trkpt lat="42.6459800" lon="-8.6435400">
        <ele>129.2</ele>
        <time>2021-05-23T06:46:32Z</time>
      </trkpt>
      <trkpt lat="42.6460000" lon="-8.6435430">
        <ele>129.2</ele>
        <time>2021-05-23T06:46:33Z</time>
      </trkpt>
      <trkpt lat="42.6460090" lon="-8.6435400">
        <ele>129.2</ele>
        <time>2021-05-23T06:46:34Z</time>
      </trkpt>
      <trkpt lat="42.6460180" lon="-8.6435370">
        <ele>129.2</ele>
        <time>2021-05-23T06:46:35Z</time>
      </trkpt>
      <trkpt lat="42.6460410" lon="-8.6435410">
        <ele>129.2</ele>
        <time>2021-05-23T06:46:36Z</time>
      </trkpt>
      <trkpt lat="42.6460510" lon="-8.6435410">
        <ele>129.2</ele>
        <time>2021-05-23T06:46:37Z</time>
      </trkpt>
      <trkpt lat="42.6460610" lon="-8.6435420">
        <ele>129.2</ele>
        <time>2021-05-23T06:46:38Z</time>
      </trkpt>
      <trkpt lat="42.6460790" lon="-8.6435410">
        <ele>129.2</ele>
        <time>2021-05-23T06:46:39Z</time>
      </trkpt>
      <trkpt lat="42.6460870" lon="-8.6435420">
        <ele>129.2</ele>
        <time>2021-05-23T06:46:40Z</time>
      </trkpt>
      <trkpt lat="42.6460940" lon="-8.6435420">
        <ele>129.2</ele>
        <time>2021-05-23T06:46:41Z</time>
      </trkpt>
      <trkpt lat="42.6461020" lon="-8.6435430">
        <ele>129.2</ele>
        <time>2021-05-23T06:46:42Z</time>
      </trkpt>
      <trkpt lat="42.6461220" lon="-8.6435440">
        <ele>129.2</ele>
        <time>2021-05-23T06:46:43Z</time>
      </trkpt>
      <trkpt lat="42.6461310" lon="-8.6435450">
        <ele>129.2</ele>
        <time>2021-05-23T06:46:44Z</time>
      </trkpt>
      <trkpt lat="42.6461390" lon="-8.6435460">
        <ele>129.2</ele>
        <time>2021-05-23T06:46:45Z</time>
      </trkpt>
      <trkpt lat="42.6461500" lon="-8.6435490">
        <ele>129.2</ele>
        <time>2021-05-23T06:46:46Z</time>
      </trkpt>
      <trkpt lat="42.6461660" lon="-8.6435450">
        <ele>129.2</ele>
        <time>2021-05-23T06:46:47Z</time>
      </trkpt>
      <trkpt lat="42.6461770" lon="-8.6435410">
        <ele>129.2</ele>
        <time>2021-05-23T06:46:48Z</time>
      </trkpt>
      <trkpt lat="42.6461930" lon="-8.6435430">
        <ele>129.2</ele>
        <time>2021-05-23T06:46:49Z</time>
      </trkpt>
      <trkpt lat="42.6462140" lon="-8.6435450">
        <ele>129.2</ele>
        <time>2021-05-23T06:46:50Z</time>
      </trkpt>
      <trkpt lat="42.6462220" lon="-8.6435440">
        <ele>129.2</ele>
        <time>2021-05-23T06:46:51Z</time>
      </trkpt>
      <trkpt lat="42.6462290" lon="-8.6435420">
        <ele>129.2</ele>
        <time>2021-05-23T06:46:52Z</time>
      </trkpt>
      <trkpt lat="42.6462360" lon="-8.6435410">
        <ele>129.2</ele>
        <time>2021-05-23T06:46:53Z</time>
      </trkpt>
      <trkpt lat="42.6462520" lon="-8.6435510">
        <ele>129.2</ele>
        <time>2021-05-23T06:46:54Z</time>
      </trkpt>
      <trkpt lat="42.6462700" lon="-8.6435550">
        <ele>129.2</ele>
        <time>2021-05-23T06:46:55Z</time>
      </trkpt>
      <trkpt lat="42.6462850" lon="-8.6435580">
        <ele>129.2</ele>
        <time>2021-05-23T06:46:56Z</time>
      </trkpt>
      <trkpt lat="42.6463000" lon="-8.6435630">
        <ele>129.2</ele>
        <time>2021-05-23T06:46:57Z</time>
      </trkpt>
      <trkpt lat="42.6463150" lon="-8.6435670">
        <ele>129.2</ele>
        <time>2021-05-23T06:46:58Z</time>
      </trkpt>
      <trkpt lat="42.6463270" lon="-8.6435660">
        <ele>129.2</ele>
        <time>2021-05-23T06:46:59Z</time>
      </trkpt>
      <trkpt lat="42.6463480" lon="-8.6435740">
        <ele>129.2</ele>
        <time>2021-05-23T06:47:00Z</time>
      </trkpt>
      <trkpt lat="42.6463550" lon="-8.6435760">
        <ele>129.2</ele>
        <time>2021-05-23T06:47:01Z</time>
      </trkpt>
      <trkpt lat="42.6463630" lon="-8.6435770">
        <ele>129.2</ele>
        <time>2021-05-23T06:47:02Z</time>
      </trkpt>
      <trkpt lat="42.6463740" lon="-8.6435780">
        <ele>129.2</ele>
        <time>2021-05-23T06:47:03Z</time>
      </trkpt>
      <trkpt lat="42.6463880" lon="-8.6435840">
        <ele>129.2</ele>
        <time>2021-05-23T06:47:04Z</time>
      </trkpt>
      <trkpt lat="42.6463990" lon="-8.6435820">
        <ele>129.2</ele>
        <time>2021-05-23T06:47:05Z</time>
      </trkpt>
      <trkpt lat="42.6464150" lon="-8.6435850">
        <ele>129.2</ele>
        <time>2021-05-23T06:47:06Z</time>
      </trkpt>
      <trkpt lat="42.6464230" lon="-8.6435850">
        <ele>129.2</ele>
        <time>2021-05-23T06:47:07Z</time>
      </trkpt>
      <trkpt lat="42.6464300" lon="-8.6435860">
        <ele>129.2</ele>
        <time>2021-05-23T06:47:08Z</time>
      </trkpt>
      <trkpt lat="42.6464370" lon="-8.6435860">
        <ele>129.2</ele>
        <time>2021-05-23T06:47:09Z</time>
      </trkpt>
      <trkpt lat="42.6464510" lon="-8.6435850">
        <ele>129.2</ele>
        <time>2021-05-23T06:47:10Z</time>
      </trkpt>
      <trkpt lat="42.6464600" lon="-8.6435890">
        <ele>129.2</ele>
        <time>2021-05-23T06:47:11Z</time>
      </trkpt>
      <trkpt lat="42.6464680" lon="-8.6435870">
        <ele>129.2</ele>
        <time>2021-05-23T06:47:12Z</time>
      </trkpt>
      <trkpt lat="42.6464870" lon="-8.6435950">
        <ele>129.3</ele>
        <time>2021-05-23T06:47:13Z</time>
      </trkpt>
      <trkpt lat="42.6464970" lon="-8.6435960">
        <ele>129.3</ele>
        <time>2021-05-23T06:47:14Z</time>
      </trkpt>
      <trkpt lat="42.6465070" lon="-8.6435980">
        <ele>129.3</ele>
        <time>2021-05-23T06:47:15Z</time>
      </trkpt>
      <trkpt lat="42.6465210" lon="-8.6436040">
        <ele>129.3</ele>
        <time>2021-05-23T06:47:16Z</time>
      </trkpt>
      <trkpt lat="42.6465320" lon="-8.6436020">
        <ele>129.3</ele>
        <time>2021-05-23T06:47:17Z</time>
      </trkpt>
      <trkpt lat="42.6465410" lon="-8.6436140">
        <ele>129.3</ele>
        <time>2021-05-23T06:47:18Z</time>
      </trkpt>
      <trkpt lat="42.6465510" lon="-8.6436150">
        <ele>129.3</ele>
        <time>2021-05-23T06:47:19Z</time>
      </trkpt>
      <trkpt lat="42.6465600" lon="-8.6436180">
        <ele>129.3</ele>
        <time>2021-05-23T06:47:20Z</time>
      </trkpt>
      <trkpt lat="42.6465730" lon="-8.6436170">
        <ele>129.3</ele>
        <time>2021-05-23T06:47:21Z</time>
      </trkpt>
      <trkpt lat="42.6465850" lon="-8.6436200">
        <ele>129.3</ele>
        <time>2021-05-23T06:47:22Z</time>
      </trkpt>
      <trkpt lat="42.6465930" lon="-8.6436260">
        <ele>129.3</ele>
        <time>2021-05-23T06:47:23Z</time>
      </trkpt>
      <trkpt lat="42.6466020" lon="-8.6436310">
        <ele>129.3</ele>
        <time>2021-05-23T06:47:24Z</time>
      </trkpt>
      <trkpt lat="42.6466200" lon="-8.6436310">
        <ele>129.3</ele>
        <time>2021-05-23T06:47:25Z</time>
      </trkpt>
      <trkpt lat="42.6466320" lon="-8.6436310">
        <ele>129.4</ele>
        <time>2021-05-23T06:47:26Z</time>
      </trkpt>
      <trkpt lat="42.6466410" lon="-8.6436310">
        <ele>129.4</ele>
        <time>2021-05-23T06:47:27Z</time>
      </trkpt>
      <trkpt lat="42.6466500" lon="-8.6436320">
        <ele>129.4</ele>
        <time>2021-05-23T06:47:28Z</time>
      </trkpt>
      <trkpt lat="42.6466630" lon="-8.6436340">
        <ele>129.4</ele>
        <time>2021-05-23T06:47:29Z</time>
      </trkpt>
      <trkpt lat="42.6466770" lon="-8.6436350">
        <ele>129.4</ele>
        <time>2021-05-23T06:47:30Z</time>
      </trkpt>
      <trkpt lat="42.6466910" lon="-8.6436390">
        <ele>129.4</ele>
        <time>2021-05-23T06:47:31Z</time>
      </trkpt>
      <trkpt lat="42.6467120" lon="-8.6436400">
        <ele>129.4</ele>
        <time>2021-05-23T06:47:32Z</time>
      </trkpt>
      <trkpt lat="42.6467210" lon="-8.6436400">
        <ele>129.4</ele>
        <time>2021-05-23T06:47:33Z</time>
      </trkpt>
      <trkpt lat="42.6467310" lon="-8.6436400">
        <ele>129.4</ele>
        <time>2021-05-23T06:47:34Z</time>
      </trkpt>
      <trkpt lat="42.6467430" lon="-8.6436420">
        <ele>129.4</ele>
        <time>2021-05-23T06:47:35Z</time>
      </trkpt>
      <trkpt lat="42.6467530" lon="-8.6436440">
        <ele>129.4</ele>
        <time>2021-05-23T06:47:36Z</time>
      </trkpt>
      <trkpt lat="42.6467660" lon="-8.6436440">
        <ele>129.5</ele>
        <time>2021-05-23T06:47:37Z</time>
      </trkpt>
      <trkpt lat="42.6467770" lon="-8.6436510">
        <ele>129.5</ele>
        <time>2021-05-23T06:47:38Z</time>
      </trkpt>
      <trkpt lat="42.6467890" lon="-8.6436540">
        <ele>129.5</ele>
        <time>2021-05-23T06:47:39Z</time>
      </trkpt>
      <trkpt lat="42.6468000" lon="-8.6436570">
        <ele>129.5</ele>
        <time>2021-05-23T06:47:40Z</time>
      </trkpt>
      <trkpt lat="42.6468050" lon="-8.6436620">
        <ele>129.5</ele>
        <time>2021-05-23T06:47:41Z</time>
      </trkpt>
      <trkpt lat="42.6468200" lon="-8.6436680">
        <ele>129.5</ele>
        <time>2021-05-23T06:47:42Z</time>
      </trkpt>
      <trkpt lat="42.6468270" lon="-8.6436670">
        <ele>129.5</ele>
        <time>2021-05-23T06:47:43Z</time>
      </trkpt>
      <trkpt lat="42.6468480" lon="-8.6436640">
        <ele>129.5</ele>
        <time>2021-05-23T06:47:44Z</time>
      </trkpt>
      <trkpt lat="42.6468570" lon="-8.6436640">
        <ele>129.6</ele>
        <time>2021-05-23T06:47:45Z</time>
      </trkpt>
      <trkpt lat="42.6468660" lon="-8.6436640">
        <ele>129.6</ele>
        <time>2021-05-23T06:47:46Z</time>
      </trkpt>
      <trkpt lat="42.6468790" lon="-8.6436680">
        <ele>129.6</ele>
        <time>2021-05-23T06:47:47Z</time>
      </trkpt>
      <trkpt lat="42.6468920" lon="-8.6436730">
        <ele>129.6</ele>
        <time>2021-05-23T06:47:48Z</time>
      </trkpt>
      <trkpt lat="42.6469040" lon="-8.6436730">
        <ele>129.6</ele>
        <time>2021-05-23T06:47:49Z</time>
      </trkpt>
      <trkpt lat="42.6469190" lon="-8.6436760">
        <ele>129.7</ele>
        <time>2021-05-23T06:47:50Z</time>
      </trkpt>
      <trkpt lat="42.6469260" lon="-8.6436810">
        <ele>129.7</ele>
        <time>2021-05-23T06:47:51Z</time>
      </trkpt>
      <trkpt lat="42.6469390" lon="-8.6436870">
        <ele>129.7</ele>
        <time>2021-05-23T06:47:52Z</time>
      </trkpt>
      <trkpt lat="42.6469600" lon="-8.6436930">
        <ele>129.7</ele>
        <time>2021-05-23T06:47:53Z</time>
      </trkpt>
      <trkpt lat="42.6469660" lon="-8.6436990">
        <ele>129.7</ele>
        <time>2021-05-23T06:47:54Z</time>
      </trkpt>
      <trkpt lat="42.6469760" lon="-8.6437070">
        <ele>129.8</ele>
        <time>2021-05-23T06:47:55Z</time>
      </trkpt>
      <trkpt lat="42.6469890" lon="-8.6437170">
        <ele>129.8</ele>
        <time>2021-05-23T06:47:56Z</time>
      </trkpt>
      <trkpt lat="42.6470100" lon="-8.6437320">
        <ele>129.8</ele>
        <time>2021-05-23T06:47:57Z</time>
      </trkpt>
      <trkpt lat="42.6470170" lon="-8.6437360">
        <ele>129.8</ele>
        <time>2021-05-23T06:47:58Z</time>
      </trkpt>
      <trkpt lat="42.6470250" lon="-8.6437400">
        <ele>129.8</ele>
        <time>2021-05-23T06:47:59Z</time>
      </trkpt>
      <trkpt lat="42.6470290" lon="-8.6437460">
        <ele>129.9</ele>
        <time>2021-05-23T06:48:00Z</time>
      </trkpt>
      <trkpt lat="42.6470420" lon="-8.6437530">
        <ele>129.9</ele>
        <time>2021-05-23T06:48:01Z</time>
      </trkpt>
      <trkpt lat="42.6470480" lon="-8.6437600">
        <ele>129.9</ele>
        <time>2021-05-23T06:48:02Z</time>
      </trkpt>
      <trkpt lat="42.6470520" lon="-8.6437660">
        <ele>129.9</ele>
        <time>2021-05-23T06:48:03Z</time>
      </trkpt>
      <trkpt lat="42.6470640" lon="-8.6437750">
        <ele>129.9</ele>
        <time>2021-05-23T06:48:04Z</time>
      </trkpt>
      <trkpt lat="42.6470740" lon="-8.6437930">
        <ele>129.9</ele>
        <time>2021-05-23T06:48:05Z</time>
      </trkpt>
      <trkpt lat="42.6470770" lon="-8.6438040">
        <ele>129.9</ele>
        <time>2021-05-23T06:48:06Z</time>
      </trkpt>
      <trkpt lat="42.6470860" lon="-8.6438090">
        <ele>130.0</ele>
        <time>2021-05-23T06:48:07Z</time>
      </trkpt>
      <trkpt lat="42.6471050" lon="-8.6438190">
        <ele>130.0</ele>
        <time>2021-05-23T06:48:08Z</time>
      </trkpt>
      <trkpt lat="42.6471090" lon="-8.6438290">
        <ele>130.0</ele>
        <time>2021-05-23T06:48:09Z</time>
      </trkpt>
      <trkpt lat="42.6471130" lon="-8.6438380">
        <ele>130.0</ele>
        <time>2021-05-23T06:48:10Z</time>
      </trkpt>
      <trkpt lat="42.6471260" lon="-8.6438510">
        <ele>130.0</ele>
        <time>2021-05-23T06:48:11Z</time>
      </trkpt>
      <trkpt lat="42.6471360" lon="-8.6438670">
        <ele>130.0</ele>
        <time>2021-05-23T06:48:12Z</time>
      </trkpt>
      <trkpt lat="42.6471510" lon="-8.6438800">
        <ele>130.1</ele>
        <time>2021-05-23T06:48:13Z</time>
      </trkpt>
      <trkpt lat="42.6471530" lon="-8.6438940">
        <ele>130.1</ele>
        <time>2021-05-23T06:48:14Z</time>
      </trkpt>
      <trkpt lat="42.6471590" lon="-8.6439120">
        <ele>130.1</ele>
        <time>2021-05-23T06:48:15Z</time>
      </trkpt>
      <trkpt lat="42.6471660" lon="-8.6439240">
        <ele>130.1</ele>
        <time>2021-05-23T06:48:16Z</time>
      </trkpt>
      <trkpt lat="42.6471840" lon="-8.6439470">
        <ele>130.1</ele>
        <time>2021-05-23T06:48:17Z</time>
      </trkpt>
      <trkpt lat="42.6471870" lon="-8.6439550">
        <ele>130.2</ele>
        <time>2021-05-23T06:48:18Z</time>
      </trkpt>
      <trkpt lat="42.6471890" lon="-8.6439630">
        <ele>130.2</ele>
        <time>2021-05-23T06:48:19Z</time>
      </trkpt>
      <trkpt lat="42.6471930" lon="-8.6439810">
        <ele>130.2</ele>
        <time>2021-05-23T06:48:20Z</time>
      </trkpt>
      <trkpt lat="42.6472040" lon="-8.6439980">
        <ele>130.2</ele>
        <time>2021-05-23T06:48:21Z</time>
      </trkpt>
      <trkpt lat="42.6472170" lon="-8.6440210">
        <ele>130.2</ele>
        <time>2021-05-23T06:48:22Z</time>
      </trkpt>
      <trkpt lat="42.6472230" lon="-8.6440280">
        <ele>130.2</ele>
        <time>2021-05-23T06:48:23Z</time>
      </trkpt>
      <trkpt lat="42.6472290" lon="-8.6440360">
        <ele>130.3</ele>
        <time>2021-05-23T06:48:24Z</time>
      </trkpt>
      <trkpt lat="42.6472350" lon="-8.6440440">
        <ele>130.3</ele>
        <time>2021-05-23T06:48:25Z</time>
      </trkpt>
      <trkpt lat="42.6472430" lon="-8.6440550">
        <ele>130.3</ele>
        <time>2021-05-23T06:48:26Z</time>
      </trkpt>
      <trkpt lat="42.6472490" lon="-8.6440740">
        <ele>130.3</ele>
        <time>2021-05-23T06:48:27Z</time>
      </trkpt>
      <trkpt lat="42.6472590" lon="-8.6440840">
        <ele>130.3</ele>
        <time>2021-05-23T06:48:28Z</time>
      </trkpt>
      <trkpt lat="42.6472620" lon="-8.6440970">
        <ele>130.3</ele>
        <time>2021-05-23T06:48:29Z</time>
      </trkpt>
      <trkpt lat="42.6472680" lon="-8.6441100">
        <ele>130.4</ele>
        <time>2021-05-23T06:48:30Z</time>
      </trkpt>
      <trkpt lat="42.6472810" lon="-8.6441230">
        <ele>130.4</ele>
        <time>2021-05-23T06:48:31Z</time>
      </trkpt>
      <trkpt lat="42.6472860" lon="-8.6441340">
        <ele>130.4</ele>
        <time>2021-05-23T06:48:32Z</time>
      </trkpt>
      <trkpt lat="42.6472900" lon="-8.6441480">
        <ele>130.4</ele>
        <time>2021-05-23T06:48:33Z</time>
      </trkpt>
      <trkpt lat="42.6472940" lon="-8.6441650">
        <ele>130.4</ele>
        <time>2021-05-23T06:48:34Z</time>
      </trkpt>
      <trkpt lat="42.6473020" lon="-8.6441750">
        <ele>130.5</ele>
        <time>2021-05-23T06:48:35Z</time>
      </trkpt>
      <trkpt lat="42.6473140" lon="-8.6441830">
        <ele>130.5</ele>
        <time>2021-05-23T06:48:36Z</time>
      </trkpt>
      <trkpt lat="42.6473200" lon="-8.6442040">
        <ele>130.5</ele>
        <time>2021-05-23T06:48:37Z</time>
      </trkpt>
      <trkpt lat="42.6473270" lon="-8.6442170">
        <ele>130.5</ele>
        <time>2021-05-23T06:48:38Z</time>
      </trkpt>
      <trkpt lat="42.6473380" lon="-8.6442320">
        <ele>130.6</ele>
        <time>2021-05-23T06:48:39Z</time>
      </trkpt>
      <trkpt lat="42.6473420" lon="-8.6442370">
        <ele>130.6</ele>
        <time>2021-05-23T06:48:40Z</time>
      </trkpt>
      <trkpt lat="42.6473470" lon="-8.6442480">
        <ele>130.6</ele>
        <time>2021-05-23T06:48:41Z</time>
      </trkpt>
      <trkpt lat="42.6473640" lon="-8.6442690">
        <ele>130.7</ele>
        <time>2021-05-23T06:48:42Z</time>
      </trkpt>
      <trkpt lat="42.6473740" lon="-8.6442760">
        <ele>130.7</ele>
        <time>2021-05-23T06:48:43Z</time>
      </trkpt>
      <trkpt lat="42.6473840" lon="-8.6442830">
        <ele>130.7</ele>
        <time>2021-05-23T06:48:44Z</time>
      </trkpt>
      <trkpt lat="42.6473890" lon="-8.6442850">
        <ele>130.7</ele>
        <time>2021-05-23T06:48:45Z</time>
      </trkpt>
      <trkpt lat="42.6473960" lon="-8.6442950">
        <ele>130.7</ele>
        <time>2021-05-23T06:48:46Z</time>
      </trkpt>
      <trkpt lat="42.6474120" lon="-8.6443040">
        <ele>130.8</ele>
        <time>2021-05-23T06:48:47Z</time>
      </trkpt>
      <trkpt lat="42.6474230" lon="-8.6443170">
        <ele>130.8</ele>
        <time>2021-05-23T06:48:48Z</time>
      </trkpt>
      <trkpt lat="42.6474360" lon="-8.6443290">
        <ele>130.8</ele>
        <time>2021-05-23T06:48:49Z</time>
      </trkpt>
      <trkpt lat="42.6474380" lon="-8.6443350">
        <ele>130.8</ele>
        <time>2021-05-23T06:48:50Z</time>
      </trkpt>
      <trkpt lat="42.6474430" lon="-8.6443430">
        <ele>130.9</ele>
        <time>2021-05-23T06:48:51Z</time>
      </trkpt>
      <trkpt lat="42.6474560" lon="-8.6443590">
        <ele>130.9</ele>
        <time>2021-05-23T06:48:52Z</time>
      </trkpt>
      <trkpt lat="42.6474690" lon="-8.6443710">
        <ele>130.9</ele>
        <time>2021-05-23T06:48:53Z</time>
      </trkpt>
      <trkpt lat="42.6474790" lon="-8.6443790">
        <ele>131.0</ele>
        <time>2021-05-23T06:48:54Z</time>
      </trkpt>
      <trkpt lat="42.6474920" lon="-8.6443860">
        <ele>131.0</ele>
        <time>2021-05-23T06:48:55Z</time>
      </trkpt>
      <trkpt lat="42.6475050" lon="-8.6443970">
        <ele>131.0</ele>
        <time>2021-05-23T06:48:56Z</time>
      </trkpt>
      <trkpt lat="42.6475040" lon="-8.6444100">
        <ele>131.1</ele>
        <time>2021-05-23T06:48:57Z</time>
      </trkpt>
      <trkpt lat="42.6475170" lon="-8.6444210">
        <ele>131.1</ele>
        <time>2021-05-23T06:48:58Z</time>
      </trkpt>
      <trkpt lat="42.6475220" lon="-8.6444300">
        <ele>131.1</ele>
        <time>2021-05-23T06:48:59Z</time>
      </trkpt>
      <trkpt lat="42.6475360" lon="-8.6444400">
        <ele>131.2</ele>
        <time>2021-05-23T06:49:00Z</time>
      </trkpt>
      <trkpt lat="42.6475430" lon="-8.6444460">
        <ele>131.2</ele>
        <time>2021-05-23T06:49:01Z</time>
      </trkpt>
      <trkpt lat="42.6475530" lon="-8.6444530">
        <ele>131.2</ele>
        <time>2021-05-23T06:49:02Z</time>
      </trkpt>
      <trkpt lat="42.6475700" lon="-8.6444670">
        <ele>131.3</ele>
        <time>2021-05-23T06:49:03Z</time>
      </trkpt>
      <trkpt lat="42.6475780" lon="-8.6444720">
        <ele>131.3</ele>
        <time>2021-05-23T06:49:04Z</time>
      </trkpt>
      <trkpt lat="42.6475860" lon="-8.6444760">
        <ele>131.3</ele>
        <time>2021-05-23T06:49:05Z</time>
      </trkpt>
      <trkpt lat="42.6476070" lon="-8.6444930">
        <ele>131.4</ele>
        <time>2021-05-23T06:49:06Z</time>
      </trkpt>
      <trkpt lat="42.6476140" lon="-8.6444960">
        <ele>131.4</ele>
        <time>2021-05-23T06:49:07Z</time>
      </trkpt>
      <trkpt lat="42.6476200" lon="-8.6444980">
        <ele>131.4</ele>
        <time>2021-05-23T06:49:08Z</time>
      </trkpt>
      <trkpt lat="42.6476340" lon="-8.6445140">
        <ele>131.5</ele>
        <time>2021-05-23T06:49:09Z</time>
      </trkpt>
      <trkpt lat="42.6476420" lon="-8.6445230">
        <ele>131.5</ele>
        <time>2021-05-23T06:49:10Z</time>
      </trkpt>
      <trkpt lat="42.6476550" lon="-8.6445280">
        <ele>131.5</ele>
        <time>2021-05-23T06:49:11Z</time>
      </trkpt>
      <trkpt lat="42.6476620" lon="-8.6445310">
        <ele>131.6</ele>
        <time>2021-05-23T06:49:12Z</time>
      </trkpt>
      <trkpt lat="42.6476720" lon="-8.6445410">
        <ele>131.6</ele>
        <time>2021-05-23T06:49:13Z</time>
      </trkpt>
      <trkpt lat="42.6476820" lon="-8.6445480">
        <ele>131.6</ele>
        <time>2021-05-23T06:49:14Z</time>
      </trkpt>
      <trkpt lat="42.6476980" lon="-8.6445610">
        <ele>131.7</ele>
        <time>2021-05-23T06:49:15Z</time>
      </trkpt>
      <trkpt lat="42.6477160" lon="-8.6445760">
        <ele>131.7</ele>
        <time>2021-05-23T06:49:16Z</time>
      </trkpt>
      <trkpt lat="42.6477240" lon="-8.6445800">
        <ele>131.8</ele>
        <time>2021-05-23T06:49:17Z</time>
      </trkpt>
      <trkpt lat="42.6477310" lon="-8.6445840">
        <ele>131.8</ele>
        <time>2021-05-23T06:49:18Z</time>
      </trkpt>
      <trkpt lat="42.6477420" lon="-8.6445900">
        <ele>131.8</ele>
        <time>2021-05-23T06:49:19Z</time>
      </trkpt>
      <trkpt lat="42.6477480" lon="-8.6445970">
        <ele>131.9</ele>
        <time>2021-05-23T06:49:20Z</time>
      </trkpt>
      <trkpt lat="42.6477560" lon="-8.6446010">
        <ele>131.9</ele>
        <time>2021-05-23T06:49:21Z</time>
      </trkpt>
      <trkpt lat="42.6477680" lon="-8.6446020">
        <ele>131.9</ele>
        <time>2021-05-23T06:49:22Z</time>
      </trkpt>
      <trkpt lat="42.6477820" lon="-8.6446100">
        <ele>132.0</ele>
        <time>2021-05-23T06:49:23Z</time>
      </trkpt>
      <trkpt lat="42.6478050" lon="-8.6446190">
        <ele>132.1</ele>
        <time>2021-05-23T06:49:24Z</time>
      </trkpt>
      <trkpt lat="42.6478100" lon="-8.6446250">
        <ele>132.1</ele>
        <time>2021-05-23T06:49:25Z</time>
      </trkpt>
      <trkpt lat="42.6478150" lon="-8.6446310">
        <ele>132.1</ele>
        <time>2021-05-23T06:49:26Z</time>
      </trkpt>
      <trkpt lat="42.6478210" lon="-8.6446380">
        <ele>132.1</ele>
        <time>2021-05-23T06:49:27Z</time>
      </trkpt>
      <trkpt lat="42.6478370" lon="-8.6446430">
        <ele>132.2</ele>
        <time>2021-05-23T06:49:28Z</time>
      </trkpt>
      <trkpt lat="42.6478470" lon="-8.6446480">
        <ele>132.2</ele>
        <time>2021-05-23T06:49:29Z</time>
      </trkpt>
      <trkpt lat="42.6478690" lon="-8.6446550">
        <ele>132.3</ele>
        <time>2021-05-23T06:49:30Z</time>
      </trkpt>
      <trkpt lat="42.6478770" lon="-8.6446560">
        <ele>132.3</ele>
        <time>2021-05-23T06:49:31Z</time>
      </trkpt>
      <trkpt lat="42.6478850" lon="-8.6446560">
        <ele>132.4</ele>
        <time>2021-05-23T06:49:32Z</time>
      </trkpt>
      <trkpt lat="42.6479020" lon="-8.6446640">
        <ele>132.4</ele>
        <time>2021-05-23T06:49:33Z</time>
      </trkpt>
      <trkpt lat="42.6479110" lon="-8.6446690">
        <ele>132.5</ele>
        <time>2021-05-23T06:49:34Z</time>
      </trkpt>
      <trkpt lat="42.6479190" lon="-8.6446730">
        <ele>132.5</ele>
        <time>2021-05-23T06:49:35Z</time>
      </trkpt>
      <trkpt lat="42.6479310" lon="-8.6446770">
        <ele>132.5</ele>
        <time>2021-05-23T06:49:36Z</time>
      </trkpt>
      <trkpt lat="42.6479480" lon="-8.6446790">
        <ele>132.6</ele>
        <time>2021-05-23T06:49:37Z</time>
      </trkpt>
      <trkpt lat="42.6479710" lon="-8.6446860">
        <ele>132.7</ele>
        <time>2021-05-23T06:49:38Z</time>
      </trkpt>
      <trkpt lat="42.6479770" lon="-8.6446880">
        <ele>132.7</ele>
        <time>2021-05-23T06:49:39Z</time>
      </trkpt>
      <trkpt lat="42.6479830" lon="-8.6446900">
        <ele>132.8</ele>
        <time>2021-05-23T06:49:40Z</time>
      </trkpt>
      <trkpt lat="42.6479960" lon="-8.6446930">
        <ele>132.8</ele>
        <time>2021-05-23T06:49:41Z</time>
      </trkpt>
      <trkpt lat="42.6480140" lon="-8.6446950">
        <ele>132.9</ele>
        <time>2021-05-23T06:49:42Z</time>
      </trkpt>
      <trkpt lat="42.6480210" lon="-8.6446950">
        <ele>132.9</ele>
        <time>2021-05-23T06:49:43Z</time>
      </trkpt>
      <trkpt lat="42.6480340" lon="-8.6446980">
        <ele>133.0</ele>
        <time>2021-05-23T06:49:44Z</time>
      </trkpt>
      <trkpt lat="42.6480490" lon="-8.6446990">
        <ele>133.0</ele>
        <time>2021-05-23T06:49:45Z</time>
      </trkpt>
      <trkpt lat="42.6480600" lon="-8.6447000">
        <ele>133.1</ele>
        <time>2021-05-23T06:49:46Z</time>
      </trkpt>
      <trkpt lat="42.6480730" lon="-8.6446970">
        <ele>133.1</ele>
        <time>2021-05-23T06:49:47Z</time>
      </trkpt>
      <trkpt lat="42.6480840" lon="-8.6447010">
        <ele>133.2</ele>
        <time>2021-05-23T06:49:48Z</time>
      </trkpt>
      <trkpt lat="42.6480950" lon="-8.6447010">
        <ele>133.2</ele>
        <time>2021-05-23T06:49:49Z</time>
      </trkpt>
      <trkpt lat="42.6481030" lon="-8.6447030">
        <ele>133.2</ele>
        <time>2021-05-23T06:49:50Z</time>
      </trkpt>
      <trkpt lat="42.6481180" lon="-8.6447030">
        <ele>133.3</ele>
        <time>2021-05-23T06:49:51Z</time>
      </trkpt>
      <trkpt lat="42.6481340" lon="-8.6447050">
        <ele>133.3</ele>
        <time>2021-05-23T06:49:52Z</time>
      </trkpt>
      <trkpt lat="42.6481410" lon="-8.6447010">
        <ele>133.4</ele>
        <time>2021-05-23T06:49:53Z</time>
      </trkpt>
      <trkpt lat="42.6481530" lon="-8.6447060">
        <ele>133.4</ele>
        <time>2021-05-23T06:49:54Z</time>
      </trkpt>
      <trkpt lat="42.6481750" lon="-8.6447080">
        <ele>133.5</ele>
        <time>2021-05-23T06:49:55Z</time>
      </trkpt>
      <trkpt lat="42.6481830" lon="-8.6447100">
        <ele>133.5</ele>
        <time>2021-05-23T06:49:56Z</time>
      </trkpt>
      <trkpt lat="42.6481920" lon="-8.6447110">
        <ele>133.6</ele>
        <time>2021-05-23T06:49:57Z</time>
      </trkpt>
      <trkpt lat="42.6482020" lon="-8.6447060">
        <ele>133.6</ele>
        <time>2021-05-23T06:49:58Z</time>
      </trkpt>
      <trkpt lat="42.6482120" lon="-8.6447080">
        <ele>133.6</ele>
        <time>2021-05-23T06:49:59Z</time>
      </trkpt>
      <trkpt lat="42.6482220" lon="-8.6447150">
        <ele>133.7</ele>
        <time>2021-05-23T06:50:00Z</time>
      </trkpt>
      <trkpt lat="42.6482330" lon="-8.6447190">
        <ele>133.7</ele>
        <time>2021-05-23T06:50:01Z</time>
      </trkpt>
      <trkpt lat="42.6482460" lon="-8.6447230">
        <ele>133.8</ele>
        <time>2021-05-23T06:50:02Z</time>
      </trkpt>
      <trkpt lat="42.6482560" lon="-8.6447230">
        <ele>133.8</ele>
        <time>2021-05-23T06:50:03Z</time>
      </trkpt>
      <trkpt lat="42.6482690" lon="-8.6447250">
        <ele>133.8</ele>
        <time>2021-05-23T06:50:04Z</time>
      </trkpt>
      <trkpt lat="42.6482730" lon="-8.6447290">
        <ele>133.8</ele>
        <time>2021-05-23T06:50:05Z</time>
      </trkpt>
      <trkpt lat="42.6482830" lon="-8.6447390">
        <ele>133.9</ele>
        <time>2021-05-23T06:50:06Z</time>
      </trkpt>
      <trkpt lat="42.6482960" lon="-8.6447420">
        <ele>133.9</ele>
        <time>2021-05-23T06:50:07Z</time>
      </trkpt>
      <trkpt lat="42.6483040" lon="-8.6447460">
        <ele>134.0</ele>
        <time>2021-05-23T06:50:08Z</time>
      </trkpt>
      <trkpt lat="42.6483140" lon="-8.6447470">
        <ele>134.0</ele>
        <time>2021-05-23T06:50:09Z</time>
      </trkpt>
      <trkpt lat="42.6483350" lon="-8.6447540">
        <ele>134.1</ele>
        <time>2021-05-23T06:50:10Z</time>
      </trkpt>
      <trkpt lat="42.6483460" lon="-8.6447570">
        <ele>134.1</ele>
        <time>2021-05-23T06:50:11Z</time>
      </trkpt>
      <trkpt lat="42.6483570" lon="-8.6447600">
        <ele>134.1</ele>
        <time>2021-05-23T06:50:12Z</time>
      </trkpt>
      <trkpt lat="42.6483630" lon="-8.6447600">
        <ele>134.2</ele>
        <time>2021-05-23T06:50:13Z</time>
      </trkpt>
      <trkpt lat="42.6483710" lon="-8.6447660">
        <ele>134.2</ele>
        <time>2021-05-23T06:50:14Z</time>
      </trkpt>
      <trkpt lat="42.6483860" lon="-8.6447690">
        <ele>134.3</ele>
        <time>2021-05-23T06:50:15Z</time>
      </trkpt>
      <trkpt lat="42.6484050" lon="-8.6447750">
        <ele>134.3</ele>
        <time>2021-05-23T06:50:16Z</time>
      </trkpt>
      <trkpt lat="42.6484130" lon="-8.6447770">
        <ele>134.3</ele>
        <time>2021-05-23T06:50:17Z</time>
      </trkpt>
      <trkpt lat="42.6484220" lon="-8.6447800">
        <ele>134.4</ele>
        <time>2021-05-23T06:50:18Z</time>
      </trkpt>
      <trkpt lat="42.6484290" lon="-8.6447790">
        <ele>134.4</ele>
        <time>2021-05-23T06:50:19Z</time>
      </trkpt>
      <trkpt lat="42.6484420" lon="-8.6447870">
        <ele>134.4</ele>
        <time>2021-05-23T06:50:20Z</time>
      </trkpt>
      <trkpt lat="42.6484510" lon="-8.6447920">
        <ele>134.5</ele>
        <time>2021-05-23T06:50:21Z</time>
      </trkpt>
      <trkpt lat="42.6484720" lon="-8.6448010">
        <ele>134.6</ele>
        <time>2021-05-23T06:50:22Z</time>
      </trkpt>
      <trkpt lat="42.6484800" lon="-8.6448050">
        <ele>134.6</ele>
        <time>2021-05-23T06:50:23Z</time>
      </trkpt>
      <trkpt lat="42.6484880" lon="-8.6448090">
        <ele>134.6</ele>
        <time>2021-05-23T06:50:24Z</time>
      </trkpt>
      <trkpt lat="42.6484990" lon="-8.6448180">
        <ele>134.7</ele>
        <time>2021-05-23T06:50:25Z</time>
      </trkpt>
      <trkpt lat="42.6485170" lon="-8.6448220">
        <ele>134.7</ele>
        <time>2021-05-23T06:50:26Z</time>
      </trkpt>
      <trkpt lat="42.6485230" lon="-8.6448250">
        <ele>134.7</ele>
        <time>2021-05-23T06:50:27Z</time>
      </trkpt>
      <trkpt lat="42.6485280" lon="-8.6448260">
        <ele>134.8</ele>
        <time>2021-05-23T06:50:28Z</time>
      </trkpt>
      <trkpt lat="42.6485360" lon="-8.6448330">
        <ele>134.8</ele>
        <time>2021-05-23T06:50:29Z</time>
      </trkpt>
      <trkpt lat="42.6485490" lon="-8.6448420">
        <ele>134.8</ele>
        <time>2021-05-23T06:50:30Z</time>
      </trkpt>
      <trkpt lat="42.6485560" lon="-8.6448520">
        <ele>134.9</ele>
        <time>2021-05-23T06:50:31Z</time>
      </trkpt>
      <trkpt lat="42.6485700" lon="-8.6448600">
        <ele>134.9</ele>
        <time>2021-05-23T06:50:32Z</time>
      </trkpt>
      <trkpt lat="42.6485770" lon="-8.6448600">
        <ele>134.9</ele>
        <time>2021-05-23T06:50:33Z</time>
      </trkpt>
      <trkpt lat="42.6485990" lon="-8.6448730">
        <ele>135.0</ele>
        <time>2021-05-23T06:50:34Z</time>
      </trkpt>
      <trkpt lat="42.6486070" lon="-8.6448760">
        <ele>135.1</ele>
        <time>2021-05-23T06:50:35Z</time>
      </trkpt>
      <trkpt lat="42.6486160" lon="-8.6448790">
        <ele>135.1</ele>
        <time>2021-05-23T06:50:36Z</time>
      </trkpt>
      <trkpt lat="42.6486330" lon="-8.6448840">
        <ele>135.1</ele>
        <time>2021-05-23T06:50:37Z</time>
      </trkpt>
      <trkpt lat="42.6486430" lon="-8.6448880">
        <ele>135.2</ele>
        <time>2021-05-23T06:50:38Z</time>
      </trkpt>
      <trkpt lat="42.6486520" lon="-8.6448920">
        <ele>135.2</ele>
        <time>2021-05-23T06:50:39Z</time>
      </trkpt>
      <trkpt lat="42.6486610" lon="-8.6448930">
        <ele>135.3</ele>
        <time>2021-05-23T06:50:40Z</time>
      </trkpt>
      <trkpt lat="42.6486700" lon="-8.6448930">
        <ele>135.3</ele>
        <time>2021-05-23T06:50:41Z</time>
      </trkpt>
      <trkpt lat="42.6486830" lon="-8.6448950">
        <ele>135.3</ele>
        <time>2021-05-23T06:50:42Z</time>
      </trkpt>
      <trkpt lat="42.6486940" lon="-8.6449030">
        <ele>135.4</ele>
        <time>2021-05-23T06:50:43Z</time>
      </trkpt>
      <trkpt lat="42.6487030" lon="-8.6449080">
        <ele>135.4</ele>
        <time>2021-05-23T06:50:44Z</time>
      </trkpt>
      <trkpt lat="42.6487150" lon="-8.6449100">
        <ele>135.5</ele>
        <time>2021-05-23T06:50:45Z</time>
      </trkpt>
      <trkpt lat="42.6487230" lon="-8.6449140">
        <ele>135.5</ele>
        <time>2021-05-23T06:50:46Z</time>
      </trkpt>
      <trkpt lat="42.6487330" lon="-8.6449210">
        <ele>135.6</ele>
        <time>2021-05-23T06:50:47Z</time>
      </trkpt>
      <trkpt lat="42.6487490" lon="-8.6449280">
        <ele>135.6</ele>
        <time>2021-05-23T06:50:48Z</time>
      </trkpt>
      <trkpt lat="42.6487690" lon="-8.6449320">
        <ele>135.7</ele>
        <time>2021-05-23T06:50:49Z</time>
      </trkpt>
      <trkpt lat="42.6487790" lon="-8.6449360">
        <ele>135.7</ele>
        <time>2021-05-23T06:50:50Z</time>
      </trkpt>
      <trkpt lat="42.6487880" lon="-8.6449400">
        <ele>135.8</ele>
        <time>2021-05-23T06:50:51Z</time>
      </trkpt>
      <trkpt lat="42.6488070" lon="-8.6449380">
        <ele>135.9</ele>
        <time>2021-05-23T06:50:52Z</time>
      </trkpt>
      <trkpt lat="42.6488160" lon="-8.6449390">
        <ele>135.9</ele>
        <time>2021-05-23T06:50:53Z</time>
      </trkpt>
      <trkpt lat="42.6488260" lon="-8.6449410">
        <ele>135.9</ele>
        <time>2021-05-23T06:50:54Z</time>
      </trkpt>
      <trkpt lat="42.6488400" lon="-8.6449390">
        <ele>136.0</ele>
        <time>2021-05-23T06:50:55Z</time>
      </trkpt>
      <trkpt lat="42.6488550" lon="-8.6449320">
        <ele>136.1</ele>
        <time>2021-05-23T06:50:56Z</time>
      </trkpt>
      <trkpt lat="42.6488680" lon="-8.6449230">
        <ele>136.1</ele>
        <time>2021-05-23T06:50:57Z</time>
      </trkpt>
      <trkpt lat="42.6488840" lon="-8.6449280">
        <ele>136.2</ele>
        <time>2021-05-23T06:50:58Z</time>
      </trkpt>
      <trkpt lat="42.6488960" lon="-8.6449300">
        <ele>136.2</ele>
        <time>2021-05-23T06:50:59Z</time>
      </trkpt>
      <trkpt lat="42.6489140" lon="-8.6449330">
        <ele>136.3</ele>
        <time>2021-05-23T06:51:00Z</time>
      </trkpt>
      <trkpt lat="42.6489240" lon="-8.6449280">
        <ele>136.4</ele>
        <time>2021-05-23T06:51:01Z</time>
      </trkpt>
      <trkpt lat="42.6489370" lon="-8.6449250">
        <ele>136.4</ele>
        <time>2021-05-23T06:51:02Z</time>
      </trkpt>
      <trkpt lat="42.6489500" lon="-8.6449310">
        <ele>136.5</ele>
        <time>2021-05-23T06:51:03Z</time>
      </trkpt>
      <trkpt lat="42.6489690" lon="-8.6449340">
        <ele>136.5</ele>
        <time>2021-05-23T06:51:04Z</time>
      </trkpt>
      <trkpt lat="42.6489780" lon="-8.6449390">
        <ele>136.6</ele>
        <time>2021-05-23T06:51:05Z</time>
      </trkpt>
      <trkpt lat="42.6489870" lon="-8.6449430">
        <ele>136.6</ele>
        <time>2021-05-23T06:51:06Z</time>
      </trkpt>
      <trkpt lat="42.6490060" lon="-8.6449540">
        <ele>136.7</ele>
        <time>2021-05-23T06:51:07Z</time>
      </trkpt>
      <trkpt lat="42.6490150" lon="-8.6449590">
        <ele>136.7</ele>
        <time>2021-05-23T06:51:08Z</time>
      </trkpt>
      <trkpt lat="42.6490230" lon="-8.6449630">
        <ele>136.8</ele>
        <time>2021-05-23T06:51:09Z</time>
      </trkpt>
      <trkpt lat="42.6490320" lon="-8.6449640">
        <ele>136.8</ele>
        <time>2021-05-23T06:51:10Z</time>
      </trkpt>
      <trkpt lat="42.6490400" lon="-8.6449630">
        <ele>136.8</ele>
        <time>2021-05-23T06:51:11Z</time>
      </trkpt>
      <trkpt lat="42.6490530" lon="-8.6449720">
        <ele>136.9</ele>
        <time>2021-05-23T06:51:12Z</time>
      </trkpt>
      <trkpt lat="42.6490640" lon="-8.6449790">
        <ele>137.0</ele>
        <time>2021-05-23T06:51:13Z</time>
      </trkpt>
      <trkpt lat="42.6490790" lon="-8.6449860">
        <ele>137.0</ele>
        <time>2021-05-23T06:51:14Z</time>
      </trkpt>
      <trkpt lat="42.6490900" lon="-8.6449880">
        <ele>137.1</ele>
        <time>2021-05-23T06:51:15Z</time>
      </trkpt>
      <trkpt lat="42.6491000" lon="-8.6449880">
        <ele>137.1</ele>
        <time>2021-05-23T06:51:16Z</time>
      </trkpt>
      <trkpt lat="42.6491110" lon="-8.6449920">
        <ele>137.2</ele>
        <time>2021-05-23T06:51:17Z</time>
      </trkpt>
      <trkpt lat="42.6491190" lon="-8.6449940">
        <ele>137.2</ele>
        <time>2021-05-23T06:51:18Z</time>
      </trkpt>
      <trkpt lat="42.6491290" lon="-8.6449980">
        <ele>137.3</ele>
        <time>2021-05-23T06:51:19Z</time>
      </trkpt>
      <trkpt lat="42.6491390" lon="-8.6450020">
        <ele>137.3</ele>
        <time>2021-05-23T06:51:20Z</time>
      </trkpt>
      <trkpt lat="42.6491580" lon="-8.6450170">
        <ele>137.5</ele>
        <time>2021-05-23T06:51:21Z</time>
      </trkpt>
      <trkpt lat="42.6491660" lon="-8.6450230">
        <ele>137.5</ele>
        <time>2021-05-23T06:51:22Z</time>
      </trkpt>
      <trkpt lat="42.6491740" lon="-8.6450300">
        <ele>137.6</ele>
        <time>2021-05-23T06:51:23Z</time>
      </trkpt>
      <trkpt lat="42.6491890" lon="-8.6450350">
        <ele>137.6</ele>
        <time>2021-05-23T06:51:24Z</time>
      </trkpt>
      <trkpt lat="42.6491960" lon="-8.6450390">
        <ele>137.7</ele>
        <time>2021-05-23T06:51:25Z</time>
      </trkpt>
      <trkpt lat="42.6492020" lon="-8.6450440">
        <ele>137.7</ele>
        <time>2021-05-23T06:51:26Z</time>
      </trkpt>
      <trkpt lat="42.6492090" lon="-8.6450480">
        <ele>137.7</ele>
        <time>2021-05-23T06:51:27Z</time>
      </trkpt>
      <trkpt lat="42.6492280" lon="-8.6450540">
        <ele>137.8</ele>
        <time>2021-05-23T06:51:28Z</time>
      </trkpt>
      <trkpt lat="42.6492390" lon="-8.6450620">
        <ele>137.9</ele>
        <time>2021-05-23T06:51:29Z</time>
      </trkpt>
      <trkpt lat="42.6492500" lon="-8.6450690">
        <ele>137.9</ele>
        <time>2021-05-23T06:51:30Z</time>
      </trkpt>
      <trkpt lat="42.6492520" lon="-8.6450750">
        <ele>138.0</ele>
        <time>2021-05-23T06:51:31Z</time>
      </trkpt>
      <trkpt lat="42.6492650" lon="-8.6450730">
        <ele>138.0</ele>
        <time>2021-05-23T06:51:32Z</time>
      </trkpt>
      <trkpt lat="42.6492770" lon="-8.6450790">
        <ele>138.1</ele>
        <time>2021-05-23T06:51:33Z</time>
      </trkpt>
      <trkpt lat="42.6492810" lon="-8.6450860">
        <ele>138.1</ele>
        <time>2021-05-23T06:51:34Z</time>
      </trkpt>
      <trkpt lat="42.6492900" lon="-8.6450930">
        <ele>138.1</ele>
        <time>2021-05-23T06:51:35Z</time>
      </trkpt>
      <trkpt lat="42.6493040" lon="-8.6450930">
        <ele>138.1</ele>
        <time>2021-05-23T06:51:36Z</time>
      </trkpt>
      <trkpt lat="42.6493150" lon="-8.6451040">
        <ele>138.1</ele>
        <time>2021-05-23T06:51:37Z</time>
      </trkpt>
      <trkpt lat="42.6493300" lon="-8.6451160">
        <ele>138.2</ele>
        <time>2021-05-23T06:51:38Z</time>
      </trkpt>
      <trkpt lat="42.6493340" lon="-8.6451280">
        <ele>138.2</ele>
        <time>2021-05-23T06:51:39Z</time>
      </trkpt>
      <trkpt lat="42.6493430" lon="-8.6451430">
        <ele>138.2</ele>
        <time>2021-05-23T06:51:40Z</time>
      </trkpt>
      <trkpt lat="42.6493400" lon="-8.6451570">
        <ele>138.2</ele>
        <time>2021-05-23T06:51:41Z</time>
      </trkpt>
      <trkpt lat="42.6493490" lon="-8.6451740">
        <ele>138.2</ele>
        <time>2021-05-23T06:51:42Z</time>
      </trkpt>
      <trkpt lat="42.6493430" lon="-8.6451920">
        <ele>138.2</ele>
        <time>2021-05-23T06:51:43Z</time>
      </trkpt>
      <trkpt lat="42.6493430" lon="-8.6452010">
        <ele>138.2</ele>
        <time>2021-05-23T06:51:44Z</time>
      </trkpt>
      <trkpt lat="42.6493430" lon="-8.6452240">
        <ele>138.2</ele>
        <time>2021-05-23T06:51:45Z</time>
      </trkpt>
      <trkpt lat="42.6493360" lon="-8.6452300">
        <ele>138.2</ele>
        <time>2021-05-23T06:51:46Z</time>
      </trkpt>
      <trkpt lat="42.6493280" lon="-8.6452460">
        <ele>138.2</ele>
        <time>2021-05-23T06:51:47Z</time>
      </trkpt>
      <trkpt lat="42.6493170" lon="-8.6452640">
        <ele>138.2</ele>
        <time>2021-05-23T06:51:48Z</time>
      </trkpt>
      <trkpt lat="42.6493100" lon="-8.6452690">
        <ele>138.2</ele>
        <time>2021-05-23T06:51:49Z</time>
      </trkpt>
      <trkpt lat="42.6493060" lon="-8.6452720">
        <ele>138.2</ele>
        <time>2021-05-23T06:51:50Z</time>
      </trkpt>
      <trkpt lat="42.6492950" lon="-8.6452760">
        <ele>138.2</ele>
        <time>2021-05-23T06:51:51Z</time>
      </trkpt>
      <trkpt lat="42.6492900" lon="-8.6452850">
        <ele>138.2</ele>
        <time>2021-05-23T06:51:52Z</time>
      </trkpt>
      <trkpt lat="42.6492840" lon="-8.6452960">
        <ele>138.2</ele>
        <time>2021-05-23T06:51:53Z</time>
      </trkpt>
      <trkpt lat="42.6492830" lon="-8.6452970">
        <ele>138.2</ele>
        <time>2021-05-23T06:51:54Z</time>
      </trkpt>
      <trkpt lat="42.6492780" lon="-8.6453050">
        <ele>138.2</ele>
        <time>2021-05-23T06:51:55Z</time>
      </trkpt>
      <trkpt lat="42.6492780" lon="-8.6453120">
        <ele>138.2</ele>
        <time>2021-05-23T06:51:56Z</time>
      </trkpt>
      <trkpt lat="42.6492810" lon="-8.6453190">
        <ele>138.2</ele>
        <time>2021-05-23T06:51:57Z</time>
      </trkpt>
      <trkpt lat="42.6492770" lon="-8.6453410">
        <ele>138.2</ele>
        <time>2021-05-23T06:51:58Z</time>
      </trkpt>
      <trkpt lat="42.6492700" lon="-8.6453620">
        <ele>138.3</ele>
        <time>2021-05-23T06:51:59Z</time>
      </trkpt>
      <trkpt lat="42.6492630" lon="-8.6453850">
        <ele>138.3</ele>
        <time>2021-05-23T06:52:00Z</time>
      </trkpt>
      <trkpt lat="42.6492680" lon="-8.6453950">
        <ele>138.4</ele>
        <time>2021-05-23T06:52:01Z</time>
      </trkpt>
      <trkpt lat="42.6492690" lon="-8.6454080">
        <ele>138.4</ele>
        <time>2021-05-23T06:52:02Z</time>
      </trkpt>
      <trkpt lat="42.6492750" lon="-8.6454080">
        <ele>138.4</ele>
        <time>2021-05-23T06:52:03Z</time>
      </trkpt>
      <trkpt lat="42.6492760" lon="-8.6454140">
        <ele>138.4</ele>
        <time>2021-05-23T06:52:04Z</time>
      </trkpt>
      <trkpt lat="42.6492750" lon="-8.6454260">
        <ele>138.5</ele>
        <time>2021-05-23T06:52:05Z</time>
      </trkpt>
      <trkpt lat="42.6492770" lon="-8.6454530">
        <ele>138.6</ele>
        <time>2021-05-23T06:52:06Z</time>
      </trkpt>
      <trkpt lat="42.6492800" lon="-8.6454590">
        <ele>138.6</ele>
        <time>2021-05-23T06:52:07Z</time>
      </trkpt>
      <trkpt lat="42.6492850" lon="-8.6454630">
        <ele>138.6</ele>
        <time>2021-05-23T06:52:08Z</time>
      </trkpt>
      <trkpt lat="42.6492930" lon="-8.6454780">
        <ele>138.7</ele>
        <time>2021-05-23T06:52:09Z</time>
      </trkpt>
      <trkpt lat="42.6492980" lon="-8.6454900">
        <ele>138.7</ele>
        <time>2021-05-23T06:52:10Z</time>
      </trkpt>
      <trkpt lat="42.6493020" lon="-8.6454980">
        <ele>138.8</ele>
        <time>2021-05-23T06:52:11Z</time>
      </trkpt>
      <trkpt lat="42.6493010" lon="-8.6455060">
        <ele>138.8</ele>
        <time>2021-05-23T06:52:12Z</time>
      </trkpt>
      <trkpt lat="42.6493000" lon="-8.6455180">
        <ele>138.8</ele>
        <time>2021-05-23T06:52:13Z</time>
      </trkpt>
      <trkpt lat="42.6493010" lon="-8.6455280">
        <ele>138.9</ele>
        <time>2021-05-23T06:52:14Z</time>
      </trkpt>
      <trkpt lat="42.6493050" lon="-8.6455410">
        <ele>138.9</ele>
        <time>2021-05-23T06:52:15Z</time>
      </trkpt>
      <trkpt lat="42.6493080" lon="-8.6455690">
        <ele>139.0</ele>
        <time>2021-05-23T06:52:16Z</time>
      </trkpt>
      <trkpt lat="42.6493110" lon="-8.6455750">
        <ele>139.1</ele>
        <time>2021-05-23T06:52:17Z</time>
      </trkpt>
      <trkpt lat="42.6493130" lon="-8.6455820">
        <ele>139.1</ele>
        <time>2021-05-23T06:52:18Z</time>
      </trkpt>
      <trkpt lat="42.6493150" lon="-8.6455890">
        <ele>139.1</ele>
        <time>2021-05-23T06:52:19Z</time>
      </trkpt>
      <trkpt lat="42.6493220" lon="-8.6456080">
        <ele>139.2</ele>
        <time>2021-05-23T06:52:20Z</time>
      </trkpt>
      <trkpt lat="42.6493260" lon="-8.6456200">
        <ele>139.3</ele>
        <time>2021-05-23T06:52:21Z</time>
      </trkpt>
      <trkpt lat="42.6493320" lon="-8.6456290">
        <ele>139.3</ele>
        <time>2021-05-23T06:52:22Z</time>
      </trkpt>
      <trkpt lat="42.6493430" lon="-8.6456380">
        <ele>139.4</ele>
        <time>2021-05-23T06:52:23Z</time>
      </trkpt>
      <trkpt lat="42.6493420" lon="-8.6456550">
        <ele>139.5</ele>
        <time>2021-05-23T06:52:24Z</time>
      </trkpt>
      <trkpt lat="42.6493480" lon="-8.6456650">
        <ele>139.6</ele>
        <time>2021-05-23T06:52:25Z</time>
      </trkpt>
      <trkpt lat="42.6493580" lon="-8.6456770">
        <ele>139.6</ele>
        <time>2021-05-23T06:52:26Z</time>
      </trkpt>
      <trkpt lat="42.6493700" lon="-8.6456910">
        <ele>139.7</ele>
        <time>2021-05-23T06:52:27Z</time>
      </trkpt>
      <trkpt lat="42.6493850" lon="-8.6457050">
        <ele>139.9</ele>
        <time>2021-05-23T06:52:28Z</time>
      </trkpt>
      <trkpt lat="42.6493940" lon="-8.6457110">
        <ele>139.9</ele>
        <time>2021-05-23T06:52:29Z</time>
      </trkpt>
      <trkpt lat="42.6494020" lon="-8.6457170">
        <ele>140.0</ele>
        <time>2021-05-23T06:52:30Z</time>
      </trkpt>
      <trkpt lat="42.6494090" lon="-8.6457270">
        <ele>140.1</ele>
        <time>2021-05-23T06:52:31Z</time>
      </trkpt>
      <trkpt lat="42.6494130" lon="-8.6457330">
        <ele>140.1</ele>
        <time>2021-05-23T06:52:32Z</time>
      </trkpt>
      <trkpt lat="42.6494240" lon="-8.6457500">
        <ele>140.2</ele>
        <time>2021-05-23T06:52:33Z</time>
      </trkpt>
      <trkpt lat="42.6494320" lon="-8.6457740">
        <ele>140.3</ele>
        <time>2021-05-23T06:52:34Z</time>
      </trkpt>
      <trkpt lat="42.6494410" lon="-8.6457870">
        <ele>140.4</ele>
        <time>2021-05-23T06:52:35Z</time>
      </trkpt>
      <trkpt lat="42.6494530" lon="-8.6458110">
        <ele>140.6</ele>
        <time>2021-05-23T06:52:36Z</time>
      </trkpt>
      <trkpt lat="42.6494590" lon="-8.6458200">
        <ele>140.6</ele>
        <time>2021-05-23T06:52:37Z</time>
      </trkpt>
      <trkpt lat="42.6494650" lon="-8.6458300">
        <ele>140.7</ele>
        <time>2021-05-23T06:52:38Z</time>
      </trkpt>
      <trkpt lat="42.6494760" lon="-8.6458520">
        <ele>140.8</ele>
        <time>2021-05-23T06:52:39Z</time>
      </trkpt>
      <trkpt lat="42.6494820" lon="-8.6458610">
        <ele>140.8</ele>
        <time>2021-05-23T06:52:40Z</time>
      </trkpt>
      <trkpt lat="42.6494880" lon="-8.6458700">
        <ele>140.9</ele>
        <time>2021-05-23T06:52:41Z</time>
      </trkpt>
      <trkpt lat="42.6494940" lon="-8.6458930">
        <ele>141.0</ele>
        <time>2021-05-23T06:52:42Z</time>
      </trkpt>
      <trkpt lat="42.6494970" lon="-8.6459070">
        <ele>141.1</ele>
        <time>2021-05-23T06:52:43Z</time>
      </trkpt>
      <trkpt lat="42.6495040" lon="-8.6459210">
        <ele>141.2</ele>
        <time>2021-05-23T06:52:44Z</time>
      </trkpt>
      <trkpt lat="42.6495020" lon="-8.6459300">
        <ele>141.2</ele>
        <time>2021-05-23T06:52:45Z</time>
      </trkpt>
      <trkpt lat="42.6495090" lon="-8.6459480">
        <ele>141.3</ele>
        <time>2021-05-23T06:52:46Z</time>
      </trkpt>
      <trkpt lat="42.6495180" lon="-8.6459670">
        <ele>141.4</ele>
        <time>2021-05-23T06:52:47Z</time>
      </trkpt>
      <trkpt lat="42.6495230" lon="-8.6459780">
        <ele>141.4</ele>
        <time>2021-05-23T06:52:48Z</time>
      </trkpt>
      <trkpt lat="42.6495290" lon="-8.6459890">
        <ele>141.5</ele>
        <time>2021-05-23T06:52:49Z</time>
      </trkpt>
      <trkpt lat="42.6495390" lon="-8.6460140">
        <ele>141.6</ele>
        <time>2021-05-23T06:52:50Z</time>
      </trkpt>
      <trkpt lat="42.6495450" lon="-8.6460260">
        <ele>141.6</ele>
        <time>2021-05-23T06:52:51Z</time>
      </trkpt>
      <trkpt lat="42.6495520" lon="-8.6460380">
        <ele>141.7</ele>
        <time>2021-05-23T06:52:52Z</time>
      </trkpt>
      <trkpt lat="42.6495560" lon="-8.6460410">
        <ele>141.7</ele>
        <time>2021-05-23T06:52:53Z</time>
      </trkpt>
      <trkpt lat="42.6495590" lon="-8.6460440">
        <ele>141.7</ele>
        <time>2021-05-23T06:52:54Z</time>
      </trkpt>
      <trkpt lat="42.6495610" lon="-8.6460400">
        <ele>141.8</ele>
        <time>2021-05-23T06:52:55Z</time>
      </trkpt>
      <trkpt lat="42.6495620" lon="-8.6460410">
        <ele>141.8</ele>
        <time>2021-05-23T06:52:56Z</time>
      </trkpt>
      <trkpt lat="42.6495670" lon="-8.6460530">
        <ele>141.8</ele>
        <time>2021-05-23T06:52:57Z</time>
      </trkpt>
      <trkpt lat="42.6495680" lon="-8.6460560">
        <ele>141.8</ele>
        <time>2021-05-23T06:52:58Z</time>
      </trkpt>
      <trkpt lat="42.6495690" lon="-8.6460600">
        <ele>141.8</ele>
        <time>2021-05-23T06:52:59Z</time>
      </trkpt>
      <trkpt lat="42.6495740" lon="-8.6460660">
        <ele>141.8</ele>
        <time>2021-05-23T06:53:00Z</time>
      </trkpt>
      <trkpt lat="42.6495750" lon="-8.6460640">
        <ele>141.8</ele>
        <time>2021-05-23T06:53:01Z</time>
      </trkpt>
      <trkpt lat="42.6495840" lon="-8.6460600">
        <ele>141.8</ele>
        <time>2021-05-23T06:53:02Z</time>
      </trkpt>
      <trkpt lat="42.6495900" lon="-8.6460600">
        <ele>141.8</ele>
        <time>2021-05-23T06:53:03Z</time>
      </trkpt>
      <trkpt lat="42.6495900" lon="-8.6460630">
        <ele>141.8</ele>
        <time>2021-05-23T06:53:04Z</time>
      </trkpt>
      <trkpt lat="42.6495910" lon="-8.6460650">
        <ele>141.8</ele>
        <time>2021-05-23T06:53:05Z</time>
      </trkpt>
      <trkpt lat="42.6495900" lon="-8.6460730">
        <ele>141.8</ele>
        <time>2021-05-23T06:53:06Z</time>
      </trkpt>
      <trkpt lat="42.6495910" lon="-8.6460730">
        <ele>141.8</ele>
        <time>2021-05-23T06:53:07Z</time>
      </trkpt>
      <trkpt lat="42.6495930" lon="-8.6460720">
        <ele>141.9</ele>
        <time>2021-05-23T06:53:08Z</time>
      </trkpt>
      <trkpt lat="42.6496000" lon="-8.6460680">
        <ele>141.9</ele>
        <time>2021-05-23T06:53:09Z</time>
      </trkpt>
      <trkpt lat="42.6496050" lon="-8.6460710">
        <ele>141.9</ele>
        <time>2021-05-23T06:53:10Z</time>
      </trkpt>
      <trkpt lat="42.6496150" lon="-8.6460810">
        <ele>141.9</ele>
        <time>2021-05-23T06:53:11Z</time>
      </trkpt>
      <trkpt lat="42.6496190" lon="-8.6460940">
        <ele>141.9</ele>
        <time>2021-05-23T06:53:12Z</time>
      </trkpt>
      <trkpt lat="42.6496320" lon="-8.6460990">
        <ele>141.9</ele>
        <time>2021-05-23T06:53:13Z</time>
      </trkpt>
      <trkpt lat="42.6496360" lon="-8.6461150">
        <ele>142.0</ele>
        <time>2021-05-23T06:53:14Z</time>
      </trkpt>
      <trkpt lat="42.6496440" lon="-8.6461200">
        <ele>142.0</ele>
        <time>2021-05-23T06:53:15Z</time>
      </trkpt>
      <trkpt lat="42.6496550" lon="-8.6461290">
        <ele>142.0</ele>
        <time>2021-05-23T06:53:16Z</time>
      </trkpt>
      <trkpt lat="42.6496680" lon="-8.6461330">
        <ele>142.0</ele>
        <time>2021-05-23T06:53:17Z</time>
      </trkpt>
      <trkpt lat="42.6496750" lon="-8.6461390">
        <ele>142.0</ele>
        <time>2021-05-23T06:53:18Z</time>
      </trkpt>
      <trkpt lat="42.6496820" lon="-8.6461460">
        <ele>142.0</ele>
        <time>2021-05-23T06:53:19Z</time>
      </trkpt>
      <trkpt lat="42.6496890" lon="-8.6461520">
        <ele>142.1</ele>
        <time>2021-05-23T06:53:20Z</time>
      </trkpt>
      <trkpt lat="42.6497020" lon="-8.6461690">
        <ele>142.1</ele>
        <time>2021-05-23T06:53:21Z</time>
      </trkpt>
      <trkpt lat="42.6497100" lon="-8.6461740">
        <ele>142.1</ele>
        <time>2021-05-23T06:53:22Z</time>
      </trkpt>
      <trkpt lat="42.6497150" lon="-8.6461840">
        <ele>142.1</ele>
        <time>2021-05-23T06:53:23Z</time>
      </trkpt>
      <trkpt lat="42.6497300" lon="-8.6461980">
        <ele>142.1</ele>
        <time>2021-05-23T06:53:24Z</time>
      </trkpt>
      <trkpt lat="42.6497370" lon="-8.6462100">
        <ele>142.2</ele>
        <time>2021-05-23T06:53:25Z</time>
      </trkpt>
      <trkpt lat="42.6497480" lon="-8.6462280">
        <ele>142.2</ele>
        <time>2021-05-23T06:53:26Z</time>
      </trkpt>
      <trkpt lat="42.6497570" lon="-8.6462370">
        <ele>142.2</ele>
        <time>2021-05-23T06:53:27Z</time>
      </trkpt>
      <trkpt lat="42.6497670" lon="-8.6462470">
        <ele>142.2</ele>
        <time>2021-05-23T06:53:28Z</time>
      </trkpt>
      <trkpt lat="42.6497820" lon="-8.6462570">
        <ele>142.2</ele>
        <time>2021-05-23T06:53:29Z</time>
      </trkpt>
      <trkpt lat="42.6497880" lon="-8.6462630">
        <ele>142.3</ele>
        <time>2021-05-23T06:53:30Z</time>
      </trkpt>
      <trkpt lat="42.6497930" lon="-8.6462690">
        <ele>142.3</ele>
        <time>2021-05-23T06:53:31Z</time>
      </trkpt>
      <trkpt lat="42.6497990" lon="-8.6462750">
        <ele>142.3</ele>
        <time>2021-05-23T06:53:32Z</time>
      </trkpt>
      <trkpt lat="42.6498250" lon="-8.6462870">
        <ele>142.3</ele>
        <time>2021-05-23T06:53:33Z</time>
      </trkpt>
      <trkpt lat="42.6498360" lon="-8.6462970">
        <ele>142.3</ele>
        <time>2021-05-23T06:53:34Z</time>
      </trkpt>
      <trkpt lat="42.6498560" lon="-8.6463120">
        <ele>142.4</ele>
        <time>2021-05-23T06:53:35Z</time>
      </trkpt>
      <trkpt lat="42.6498630" lon="-8.6463180">
        <ele>142.4</ele>
        <time>2021-05-23T06:53:36Z</time>
      </trkpt>
      <trkpt lat="42.6498770" lon="-8.6463230">
        <ele>142.4</ele>
        <time>2021-05-23T06:53:37Z</time>
      </trkpt>
      <trkpt lat="42.6498860" lon="-8.6463250">
        <ele>142.4</ele>
        <time>2021-05-23T06:53:38Z</time>
      </trkpt>
      <trkpt lat="42.6498910" lon="-8.6463340">
        <ele>142.4</ele>
        <time>2021-05-23T06:53:39Z</time>
      </trkpt>
      <trkpt lat="42.6498990" lon="-8.6463400">
        <ele>142.4</ele>
        <time>2021-05-23T06:53:40Z</time>
      </trkpt>
      <trkpt lat="42.6499110" lon="-8.6463450">
        <ele>142.4</ele>
        <time>2021-05-23T06:53:41Z</time>
      </trkpt>
      <trkpt lat="42.6499150" lon="-8.6463480">
        <ele>142.4</ele>
        <time>2021-05-23T06:53:42Z</time>
      </trkpt>
      <trkpt lat="42.6499250" lon="-8.6463490">
        <ele>142.5</ele>
        <time>2021-05-23T06:53:43Z</time>
      </trkpt>
      <trkpt lat="42.6499420" lon="-8.6463540">
        <ele>142.5</ele>
        <time>2021-05-23T06:53:44Z</time>
      </trkpt>
      <trkpt lat="42.6499530" lon="-8.6463670">
        <ele>142.5</ele>
        <time>2021-05-23T06:53:45Z</time>
      </trkpt>
      <trkpt lat="42.6499650" lon="-8.6463880">
        <ele>142.5</ele>
        <time>2021-05-23T06:53:46Z</time>
      </trkpt>
      <trkpt lat="42.6499730" lon="-8.6464020">
        <ele>142.5</ele>
        <time>2021-05-23T06:53:47Z</time>
      </trkpt>
      <trkpt lat="42.6499810" lon="-8.6464160">
        <ele>142.6</ele>
        <time>2021-05-23T06:53:48Z</time>
      </trkpt>
      <trkpt lat="42.6499930" lon="-8.6464270">
        <ele>142.6</ele>
        <time>2021-05-23T06:53:49Z</time>
      </trkpt>
      <trkpt lat="42.6500110" lon="-8.6464440">
        <ele>142.6</ele>
        <time>2021-05-23T06:53:50Z</time>
      </trkpt>
      <trkpt lat="42.6500210" lon="-8.6464550">
        <ele>142.6</ele>
        <time>2021-05-23T06:53:51Z</time>
      </trkpt>
      <trkpt lat="42.6500350" lon="-8.6464700">
        <ele>142.6</ele>
        <time>2021-05-23T06:53:52Z</time>
      </trkpt>
      <trkpt lat="42.6500450" lon="-8.6464780">
        <ele>142.7</ele>
        <time>2021-05-23T06:53:53Z</time>
      </trkpt>
      <trkpt lat="42.6500540" lon="-8.6464860">
        <ele>142.7</ele>
        <time>2021-05-23T06:53:54Z</time>
      </trkpt>
      <trkpt lat="42.6500610" lon="-8.6464970">
        <ele>142.7</ele>
        <time>2021-05-23T06:53:55Z</time>
      </trkpt>
      <trkpt lat="42.6500620" lon="-8.6465150">
        <ele>142.7</ele>
        <time>2021-05-23T06:53:56Z</time>
      </trkpt>
      <trkpt lat="42.6500740" lon="-8.6465260">
        <ele>142.7</ele>
        <time>2021-05-23T06:53:57Z</time>
      </trkpt>
      <trkpt lat="42.6500800" lon="-8.6465320">
        <ele>142.7</ele>
        <time>2021-05-23T06:53:58Z</time>
      </trkpt>
      <trkpt lat="42.6500880" lon="-8.6465410">
        <ele>142.8</ele>
        <time>2021-05-23T06:53:59Z</time>
      </trkpt>
      <trkpt lat="42.6500860" lon="-8.6465420">
        <ele>142.8</ele>
        <time>2021-05-23T06:54:00Z</time>
      </trkpt>
      <trkpt lat="42.6500940" lon="-8.6465580">
        <ele>142.8</ele>
        <time>2021-05-23T06:54:01Z</time>
      </trkpt>
      <trkpt lat="42.6501060" lon="-8.6465720">
        <ele>142.8</ele>
        <time>2021-05-23T06:54:02Z</time>
      </trkpt>
      <trkpt lat="42.6501120" lon="-8.6465760">
        <ele>142.8</ele>
        <time>2021-05-23T06:54:03Z</time>
      </trkpt>
      <trkpt lat="42.6501230" lon="-8.6465870">
        <ele>142.8</ele>
        <time>2021-05-23T06:54:04Z</time>
      </trkpt>
      <trkpt lat="42.6501310" lon="-8.6466050">
        <ele>142.9</ele>
        <time>2021-05-23T06:54:05Z</time>
      </trkpt>
      <trkpt lat="42.6501370" lon="-8.6466280">
        <ele>142.9</ele>
        <time>2021-05-23T06:54:06Z</time>
      </trkpt>
      <trkpt lat="42.6501400" lon="-8.6466350">
        <ele>142.9</ele>
        <time>2021-05-23T06:54:07Z</time>
      </trkpt>
      <trkpt lat="42.6501470" lon="-8.6466440">
        <ele>142.9</ele>
        <time>2021-05-23T06:54:08Z</time>
      </trkpt>
      <trkpt lat="42.6501570" lon="-8.6466570">
        <ele>143.0</ele>
        <time>2021-05-23T06:54:09Z</time>
      </trkpt>
      <trkpt lat="42.6501680" lon="-8.6466800">
        <ele>143.0</ele>
        <time>2021-05-23T06:54:10Z</time>
      </trkpt>
      <trkpt lat="42.6501770" lon="-8.6466870">
        <ele>143.0</ele>
        <time>2021-05-23T06:54:11Z</time>
      </trkpt>
      <trkpt lat="42.6501850" lon="-8.6466930">
        <ele>143.0</ele>
        <time>2021-05-23T06:54:12Z</time>
      </trkpt>
      <trkpt lat="42.6501890" lon="-8.6467040">
        <ele>143.1</ele>
        <time>2021-05-23T06:54:13Z</time>
      </trkpt>
      <trkpt lat="42.6501980" lon="-8.6467110">
        <ele>143.1</ele>
        <time>2021-05-23T06:54:14Z</time>
      </trkpt>
      <trkpt lat="42.6502070" lon="-8.6467270">
        <ele>143.1</ele>
        <time>2021-05-23T06:54:15Z</time>
      </trkpt>
      <trkpt lat="42.6502210" lon="-8.6467470">
        <ele>143.2</ele>
        <time>2021-05-23T06:54:16Z</time>
      </trkpt>
      <trkpt lat="42.6502250" lon="-8.6467580">
        <ele>143.2</ele>
        <time>2021-05-23T06:54:17Z</time>
      </trkpt>
      <trkpt lat="42.6502300" lon="-8.6467690">
        <ele>143.2</ele>
        <time>2021-05-23T06:54:18Z</time>
      </trkpt>
      <trkpt lat="42.6502460" lon="-8.6467850">
        <ele>143.2</ele>
        <time>2021-05-23T06:54:19Z</time>
      </trkpt>
      <trkpt lat="42.6502550" lon="-8.6467910">
        <ele>143.3</ele>
        <time>2021-05-23T06:54:20Z</time>
      </trkpt>
      <trkpt lat="42.6502640" lon="-8.6467970">
        <ele>143.3</ele>
        <time>2021-05-23T06:54:21Z</time>
      </trkpt>
      <trkpt lat="42.6502770" lon="-8.6467980">
        <ele>143.3</ele>
        <time>2021-05-23T06:54:22Z</time>
      </trkpt>
      <trkpt lat="42.6502800" lon="-8.6468020">
        <ele>143.3</ele>
        <time>2021-05-23T06:54:23Z</time>
      </trkpt>
      <trkpt lat="42.6502840" lon="-8.6467990">
        <ele>143.4</ele>
        <time>2021-05-23T06:54:24Z</time>
      </trkpt>
      <trkpt lat="42.6502990" lon="-8.6468020">
        <ele>143.4</ele>
        <time>2021-05-23T06:54:25Z</time>
      </trkpt>
      <trkpt lat="42.6503110" lon="-8.6467990">
        <ele>143.4</ele>
        <time>2021-05-23T06:54:26Z</time>
      </trkpt>
      <trkpt lat="42.6503260" lon="-8.6468040">
        <ele>143.5</ele>
        <time>2021-05-23T06:54:27Z</time>
      </trkpt>
      <trkpt lat="42.6503320" lon="-8.6468060">
        <ele>143.5</ele>
        <time>2021-05-23T06:54:28Z</time>
      </trkpt>
      <trkpt lat="42.6503490" lon="-8.6468030">
        <ele>143.6</ele>
        <time>2021-05-23T06:54:29Z</time>
      </trkpt>
      <trkpt lat="42.6503600" lon="-8.6468010">
        <ele>143.6</ele>
        <time>2021-05-23T06:54:30Z</time>
      </trkpt>
      <trkpt lat="42.6503720" lon="-8.6468090">
        <ele>143.6</ele>
        <time>2021-05-23T06:54:31Z</time>
      </trkpt>
      <trkpt lat="42.6503880" lon="-8.6468100">
        <ele>143.7</ele>
        <time>2021-05-23T06:54:32Z</time>
      </trkpt>
      <trkpt lat="42.6504010" lon="-8.6468090">
        <ele>143.7</ele>
        <time>2021-05-23T06:54:33Z</time>
      </trkpt>
      <trkpt lat="42.6504160" lon="-8.6468110">
        <ele>143.8</ele>
        <time>2021-05-23T06:54:34Z</time>
      </trkpt>
      <trkpt lat="42.6504310" lon="-8.6468060">
        <ele>143.8</ele>
        <time>2021-05-23T06:54:35Z</time>
      </trkpt>
      <trkpt lat="42.6504480" lon="-8.6468020">
        <ele>143.9</ele>
        <time>2021-05-23T06:54:36Z</time>
      </trkpt>
      <trkpt lat="42.6504630" lon="-8.6468020">
        <ele>143.9</ele>
        <time>2021-05-23T06:54:37Z</time>
      </trkpt>
      <trkpt lat="42.6504810" lon="-8.6468040">
        <ele>144.0</ele>
        <time>2021-05-23T06:54:38Z</time>
      </trkpt>
      <trkpt lat="42.6504900" lon="-8.6468050">
        <ele>144.0</ele>
        <time>2021-05-23T06:54:39Z</time>
      </trkpt>
      <trkpt lat="42.6505020" lon="-8.6468100">
        <ele>144.0</ele>
        <time>2021-05-23T06:54:40Z</time>
      </trkpt>
      <trkpt lat="42.6505130" lon="-8.6468150">
        <ele>144.1</ele>
        <time>2021-05-23T06:54:41Z</time>
      </trkpt>
      <trkpt lat="42.6505250" lon="-8.6468210">
        <ele>144.1</ele>
        <time>2021-05-23T06:54:42Z</time>
      </trkpt>
      <trkpt lat="42.6505330" lon="-8.6468310">
        <ele>144.1</ele>
        <time>2021-05-23T06:54:43Z</time>
      </trkpt>
      <trkpt lat="42.6505410" lon="-8.6468420">
        <ele>144.2</ele>
        <time>2021-05-23T06:54:44Z</time>
      </trkpt>
      <trkpt lat="42.6505550" lon="-8.6468520">
        <ele>144.2</ele>
        <time>2021-05-23T06:54:45Z</time>
      </trkpt>
      <trkpt lat="42.6505590" lon="-8.6468650">
        <ele>144.2</ele>
        <time>2021-05-23T06:54:46Z</time>
      </trkpt>
      <trkpt lat="42.6505660" lon="-8.6468720">
        <ele>144.3</ele>
        <time>2021-05-23T06:54:47Z</time>
      </trkpt>
      <trkpt lat="42.6505810" lon="-8.6468890">
        <ele>144.3</ele>
        <time>2021-05-23T06:54:48Z</time>
      </trkpt>
      <trkpt lat="42.6505880" lon="-8.6468950">
        <ele>144.3</ele>
        <time>2021-05-23T06:54:49Z</time>
      </trkpt>
      <trkpt lat="42.6505950" lon="-8.6469010">
        <ele>144.4</ele>
        <time>2021-05-23T06:54:50Z</time>
      </trkpt>
      <trkpt lat="42.6506100" lon="-8.6469190">
        <ele>144.4</ele>
        <time>2021-05-23T06:54:51Z</time>
      </trkpt>
      <trkpt lat="42.6506200" lon="-8.6469240">
        <ele>144.5</ele>
        <time>2021-05-23T06:54:52Z</time>
      </trkpt>
      <trkpt lat="42.6506290" lon="-8.6469300">
        <ele>144.5</ele>
        <time>2021-05-23T06:54:53Z</time>
      </trkpt>
      <trkpt lat="42.6506390" lon="-8.6469350">
        <ele>144.5</ele>
        <time>2021-05-23T06:54:54Z</time>
      </trkpt>
      <trkpt lat="42.6506510" lon="-8.6469360">
        <ele>144.6</ele>
        <time>2021-05-23T06:54:55Z</time>
      </trkpt>
      <trkpt lat="42.6506620" lon="-8.6469310">
        <ele>144.6</ele>
        <time>2021-05-23T06:54:56Z</time>
      </trkpt>
      <trkpt lat="42.6506770" lon="-8.6469230">
        <ele>144.6</ele>
        <time>2021-05-23T06:54:57Z</time>
      </trkpt>
      <trkpt lat="42.6506890" lon="-8.6469130">
        <ele>144.6</ele>
        <time>2021-05-23T06:54:58Z</time>
      </trkpt>
      <trkpt lat="42.6507080" lon="-8.6469020">
        <ele>144.6</ele>
        <time>2021-05-23T06:54:59Z</time>
      </trkpt>
      <trkpt lat="42.6507160" lon="-8.6468960">
        <ele>144.6</ele>
        <time>2021-05-23T06:55:00Z</time>
      </trkpt>
      <trkpt lat="42.6507230" lon="-8.6468910">
        <ele>144.7</ele>
        <time>2021-05-23T06:55:01Z</time>
      </trkpt>
      <trkpt lat="42.6507300" lon="-8.6468780">
        <ele>144.7</ele>
        <time>2021-05-23T06:55:02Z</time>
      </trkpt>
      <trkpt lat="42.6507410" lon="-8.6468680">
        <ele>144.7</ele>
        <time>2021-05-23T06:55:03Z</time>
      </trkpt>
      <trkpt lat="42.6507410" lon="-8.6468600">
        <ele>144.7</ele>
        <time>2021-05-23T06:55:04Z</time>
      </trkpt>
      <trkpt lat="42.6507490" lon="-8.6468540">
        <ele>144.7</ele>
        <time>2021-05-23T06:55:05Z</time>
      </trkpt>
      <trkpt lat="42.6507540" lon="-8.6468410">
        <ele>144.7</ele>
        <time>2021-05-23T06:55:06Z</time>
      </trkpt>
      <trkpt lat="42.6507650" lon="-8.6468270">
        <ele>144.7</ele>
        <time>2021-05-23T06:55:07Z</time>
      </trkpt>
      <trkpt lat="42.6507690" lon="-8.6468060">
        <ele>144.8</ele>
        <time>2021-05-23T06:55:08Z</time>
      </trkpt>
      <trkpt lat="42.6507790" lon="-8.6468070">
        <ele>144.8</ele>
        <time>2021-05-23T06:55:09Z</time>
      </trkpt>
      <trkpt lat="42.6507890" lon="-8.6467960">
        <ele>144.8</ele>
        <time>2021-05-23T06:55:10Z</time>
      </trkpt>
      <trkpt lat="42.6508090" lon="-8.6467770">
        <ele>144.8</ele>
        <time>2021-05-23T06:55:11Z</time>
      </trkpt>
      <trkpt lat="42.6508160" lon="-8.6467680">
        <ele>144.8</ele>
        <time>2021-05-23T06:55:12Z</time>
      </trkpt>
      <trkpt lat="42.6508240" lon="-8.6467580">
        <ele>144.8</ele>
        <time>2021-05-23T06:55:13Z</time>
      </trkpt>
      <trkpt lat="42.6508370" lon="-8.6467440">
        <ele>144.8</ele>
        <time>2021-05-23T06:55:14Z</time>
      </trkpt>
      <trkpt lat="42.6508440" lon="-8.6467370">
        <ele>144.8</ele>
        <time>2021-05-23T06:55:15Z</time>
      </trkpt>
      <trkpt lat="42.6508500" lon="-8.6467310">
        <ele>144.9</ele>
        <time>2021-05-23T06:55:16Z</time>
      </trkpt>
      <trkpt lat="42.6508570" lon="-8.6467240">
        <ele>144.9</ele>
        <time>2021-05-23T06:55:17Z</time>
      </trkpt>
      <trkpt lat="42.6508620" lon="-8.6466920">
        <ele>144.9</ele>
        <time>2021-05-23T06:55:18Z</time>
      </trkpt>
      <trkpt lat="42.6508610" lon="-8.6466820">
        <ele>144.9</ele>
        <time>2021-05-23T06:55:19Z</time>
      </trkpt>
      <trkpt lat="42.6508610" lon="-8.6466720">
        <ele>144.9</ele>
        <time>2021-05-23T06:55:20Z</time>
      </trkpt>
      <trkpt lat="42.6508680" lon="-8.6466480">
        <ele>144.9</ele>
        <time>2021-05-23T06:55:21Z</time>
      </trkpt>
      <trkpt lat="42.6508710" lon="-8.6466390">
        <ele>144.9</ele>
        <time>2021-05-23T06:55:22Z</time>
      </trkpt>
      <trkpt lat="42.6508770" lon="-8.6466290">
        <ele>144.9</ele>
        <time>2021-05-23T06:55:23Z</time>
      </trkpt>
      <trkpt lat="42.6508820" lon="-8.6466110">
        <ele>144.9</ele>
        <time>2021-05-23T06:55:24Z</time>
      </trkpt>
      <trkpt lat="42.6508880" lon="-8.6465920">
        <ele>145.0</ele>
        <time>2021-05-23T06:55:25Z</time>
      </trkpt>
      <trkpt lat="42.6509010" lon="-8.6465870">
        <ele>145.0</ele>
        <time>2021-05-23T06:55:26Z</time>
      </trkpt>
      <trkpt lat="42.6509000" lon="-8.6465700">
        <ele>145.0</ele>
        <time>2021-05-23T06:55:27Z</time>
      </trkpt>
      <trkpt lat="42.6509100" lon="-8.6465580">
        <ele>145.0</ele>
        <time>2021-05-23T06:55:28Z</time>
      </trkpt>
      <trkpt lat="42.6509210" lon="-8.6465330">
        <ele>145.0</ele>
        <time>2021-05-23T06:55:29Z</time>
      </trkpt>
      <trkpt lat="42.6509250" lon="-8.6465240">
        <ele>145.0</ele>
        <time>2021-05-23T06:55:30Z</time>
      </trkpt>
      <trkpt lat="42.6509300" lon="-8.6465150">
        <ele>145.0</ele>
        <time>2021-05-23T06:55:31Z</time>
      </trkpt>
      <trkpt lat="42.6509350" lon="-8.6465050">
        <ele>145.0</ele>
        <time>2021-05-23T06:55:32Z</time>
      </trkpt>
      <trkpt lat="42.6509340" lon="-8.6464930">
        <ele>145.0</ele>
        <time>2021-05-23T06:55:33Z</time>
      </trkpt>
      <trkpt lat="42.6509390" lon="-8.6464780">
        <ele>145.0</ele>
        <time>2021-05-23T06:55:34Z</time>
      </trkpt>
      <trkpt lat="42.6509390" lon="-8.6464440">
        <ele>145.0</ele>
        <time>2021-05-23T06:55:35Z</time>
      </trkpt>
      <trkpt lat="42.6509420" lon="-8.6464350">
        <ele>145.1</ele>
        <time>2021-05-23T06:55:36Z</time>
      </trkpt>
      <trkpt lat="42.6509440" lon="-8.6464260">
        <ele>145.1</ele>
        <time>2021-05-23T06:55:37Z</time>
      </trkpt>
      <trkpt lat="42.6509510" lon="-8.6464220">
        <ele>145.1</ele>
        <time>2021-05-23T06:55:38Z</time>
      </trkpt>
      <trkpt lat="42.6509570" lon="-8.6464160">
        <ele>145.1</ele>
        <time>2021-05-23T06:55:39Z</time>
      </trkpt>
      <trkpt lat="42.6509650" lon="-8.6464190">
        <ele>145.1</ele>
        <time>2021-05-23T06:55:40Z</time>
      </trkpt>
      <trkpt lat="42.6509760" lon="-8.6464200">
        <ele>145.1</ele>
        <time>2021-05-23T06:55:41Z</time>
      </trkpt>
      <trkpt lat="42.6510000" lon="-8.6464210">
        <ele>145.1</ele>
        <time>2021-05-23T06:55:42Z</time>
      </trkpt>
      <trkpt lat="42.6510070" lon="-8.6464230">
        <ele>145.1</ele>
        <time>2021-05-23T06:55:43Z</time>
      </trkpt>
      <trkpt lat="42.6510140" lon="-8.6464260">
        <ele>145.1</ele>
        <time>2021-05-23T06:55:44Z</time>
      </trkpt>
      <trkpt lat="42.6510270" lon="-8.6464150">
        <ele>145.1</ele>
        <time>2021-05-23T06:55:45Z</time>
      </trkpt>
      <trkpt lat="42.6510300" lon="-8.6463970">
        <ele>145.1</ele>
        <time>2021-05-23T06:55:46Z</time>
      </trkpt>
      <trkpt lat="42.6510490" lon="-8.6463910">
        <ele>145.1</ele>
        <time>2021-05-23T06:55:47Z</time>
      </trkpt>
      <trkpt lat="42.6510610" lon="-8.6463780">
        <ele>145.1</ele>
        <time>2021-05-23T06:55:48Z</time>
      </trkpt>
      <trkpt lat="42.6510530" lon="-8.6463680">
        <ele>145.1</ele>
        <time>2021-05-23T06:55:49Z</time>
      </trkpt>
      <trkpt lat="42.6510590" lon="-8.6463800">
        <ele>145.1</ele>
        <time>2021-05-23T06:55:50Z</time>
      </trkpt>
      <trkpt lat="42.6510670" lon="-8.6463840">
        <ele>145.1</ele>
        <time>2021-05-23T06:55:51Z</time>
      </trkpt>
      <trkpt lat="42.6510760" lon="-8.6463880">
        <ele>145.1</ele>
        <time>2021-05-23T06:55:52Z</time>
      </trkpt>
      <trkpt lat="42.6510860" lon="-8.6463840">
        <ele>145.1</ele>
        <time>2021-05-23T06:55:53Z</time>
      </trkpt>
      <trkpt lat="42.6510910" lon="-8.6463820">
        <ele>145.1</ele>
        <time>2021-05-23T06:55:54Z</time>
      </trkpt>
      <trkpt lat="42.6510990" lon="-8.6463800">
        <ele>145.1</ele>
        <time>2021-05-23T06:55:55Z</time>
      </trkpt>
      <trkpt lat="42.6511080" lon="-8.6463790">
        <ele>145.2</ele>
        <time>2021-05-23T06:55:56Z</time>
      </trkpt>
      <trkpt lat="42.6511170" lon="-8.6463780">
        <ele>145.2</ele>
        <time>2021-05-23T06:55:57Z</time>
      </trkpt>
      <trkpt lat="42.6511230" lon="-8.6463770">
        <ele>145.2</ele>
        <time>2021-05-23T06:55:58Z</time>
      </trkpt>
      <trkpt lat="42.6511250" lon="-8.6463770">
        <ele>145.2</ele>
        <time>2021-05-23T06:55:59Z</time>
      </trkpt>
      <trkpt lat="42.6511290" lon="-8.6463750">
        <ele>145.2</ele>
        <time>2021-05-23T06:56:00Z</time>
      </trkpt>
      <trkpt lat="42.6511270" lon="-8.6463670">
        <ele>145.2</ele>
        <time>2021-05-23T06:56:01Z</time>
      </trkpt>
      <trkpt lat="42.6511260" lon="-8.6463700">
        <ele>145.2</ele>
        <time>2021-05-23T06:56:02Z</time>
      </trkpt>
      <trkpt lat="42.6511410" lon="-8.6463650">
        <ele>145.2</ele>
        <time>2021-05-23T06:56:03Z</time>
      </trkpt>
      <trkpt lat="42.6511560" lon="-8.6463630">
        <ele>145.2</ele>
        <time>2021-05-23T06:56:04Z</time>
      </trkpt>
      <trkpt lat="42.6511700" lon="-8.6463590">
        <ele>145.2</ele>
        <time>2021-05-23T06:56:05Z</time>
      </trkpt>
      <trkpt lat="42.6511830" lon="-8.6463540">
        <ele>145.3</ele>
        <time>2021-05-23T06:56:06Z</time>
      </trkpt>
      <trkpt lat="42.6511900" lon="-8.6463540">
        <ele>145.3</ele>
        <time>2021-05-23T06:56:07Z</time>
      </trkpt>
      <trkpt lat="42.6512010" lon="-8.6463560">
        <ele>145.3</ele>
        <time>2021-05-23T06:56:08Z</time>
      </trkpt>
      <trkpt lat="42.6512190" lon="-8.6463580">
        <ele>145.3</ele>
        <time>2021-05-23T06:56:09Z</time>
      </trkpt>
      <trkpt lat="42.6512270" lon="-8.6463620">
        <ele>145.4</ele>
        <time>2021-05-23T06:56:10Z</time>
      </trkpt>
      <trkpt lat="42.6512380" lon="-8.6463670">
        <ele>145.4</ele>
        <time>2021-05-23T06:56:11Z</time>
      </trkpt>
      <trkpt lat="42.6512530" lon="-8.6463680">
        <ele>145.4</ele>
        <time>2021-05-23T06:56:12Z</time>
      </trkpt>
      <trkpt lat="42.6512770" lon="-8.6463720">
        <ele>145.5</ele>
        <time>2021-05-23T06:56:13Z</time>
      </trkpt>
      <trkpt lat="42.6512870" lon="-8.6463720">
        <ele>145.5</ele>
        <time>2021-05-23T06:56:14Z</time>
      </trkpt>
      <trkpt lat="42.6512960" lon="-8.6463720">
        <ele>145.5</ele>
        <time>2021-05-23T06:56:15Z</time>
      </trkpt>
      <trkpt lat="42.6513190" lon="-8.6463700">
        <ele>145.6</ele>
        <time>2021-05-23T06:56:16Z</time>
      </trkpt>
      <trkpt lat="42.6513270" lon="-8.6463780">
        <ele>145.6</ele>
        <time>2021-05-23T06:56:17Z</time>
      </trkpt>
      <trkpt lat="42.6513460" lon="-8.6463840">
        <ele>145.7</ele>
        <time>2021-05-23T06:56:18Z</time>
      </trkpt>
      <trkpt lat="42.6513540" lon="-8.6463870">
        <ele>145.7</ele>
        <time>2021-05-23T06:56:19Z</time>
      </trkpt>
      <trkpt lat="42.6513630" lon="-8.6463900">
        <ele>145.7</ele>
        <time>2021-05-23T06:56:20Z</time>
      </trkpt>
      <trkpt lat="42.6513670" lon="-8.6463900">
        <ele>145.7</ele>
        <time>2021-05-23T06:56:21Z</time>
      </trkpt>
      <trkpt lat="42.6513790" lon="-8.6463920">
        <ele>145.7</ele>
        <time>2021-05-23T06:56:22Z</time>
      </trkpt>
      <trkpt lat="42.6513950" lon="-8.6464030">
        <ele>145.8</ele>
        <time>2021-05-23T06:56:23Z</time>
      </trkpt>
      <trkpt lat="42.6514100" lon="-8.6464160">
        <ele>145.8</ele>
        <time>2021-05-23T06:56:24Z</time>
      </trkpt>
      <trkpt lat="42.6514190" lon="-8.6464190">
        <ele>145.9</ele>
        <time>2021-05-23T06:56:25Z</time>
      </trkpt>
      <trkpt lat="42.6514270" lon="-8.6464210">
        <ele>145.9</ele>
        <time>2021-05-23T06:56:26Z</time>
      </trkpt>
      <trkpt lat="42.6514360" lon="-8.6464240">
        <ele>145.9</ele>
        <time>2021-05-23T06:56:27Z</time>
      </trkpt>
      <trkpt lat="42.6514550" lon="-8.6464360">
        <ele>145.9</ele>
        <time>2021-05-23T06:56:28Z</time>
      </trkpt>
      <trkpt lat="42.6514620" lon="-8.6464420">
        <ele>145.9</ele>
        <time>2021-05-23T06:56:29Z</time>
      </trkpt>
      <trkpt lat="42.6514680" lon="-8.6464470">
        <ele>145.9</ele>
        <time>2021-05-23T06:56:30Z</time>
      </trkpt>
      <trkpt lat="42.6514810" lon="-8.6464630">
        <ele>146.0</ele>
        <time>2021-05-23T06:56:31Z</time>
      </trkpt>
      <trkpt lat="42.6514910" lon="-8.6464680">
        <ele>146.0</ele>
        <time>2021-05-23T06:56:32Z</time>
      </trkpt>
      <trkpt lat="42.6514920" lon="-8.6464740">
        <ele>146.0</ele>
        <time>2021-05-23T06:56:33Z</time>
      </trkpt>
      <trkpt lat="42.6514960" lon="-8.6464670">
        <ele>146.0</ele>
        <time>2021-05-23T06:56:34Z</time>
      </trkpt>
      <trkpt lat="42.6515050" lon="-8.6464610">
        <ele>146.0</ele>
        <time>2021-05-23T06:56:35Z</time>
      </trkpt>
      <trkpt lat="42.6515230" lon="-8.6464560">
        <ele>146.0</ele>
        <time>2021-05-23T06:56:36Z</time>
      </trkpt>
      <trkpt lat="42.6515290" lon="-8.6464420">
        <ele>146.0</ele>
        <time>2021-05-23T06:56:37Z</time>
      </trkpt>
      <trkpt lat="42.6515380" lon="-8.6464370">
        <ele>146.0</ele>
        <time>2021-05-23T06:56:38Z</time>
      </trkpt>
      <trkpt lat="42.6515460" lon="-8.6464310">
        <ele>146.0</ele>
        <time>2021-05-23T06:56:39Z</time>
      </trkpt>
      <trkpt lat="42.6515550" lon="-8.6464260">
        <ele>146.0</ele>
        <time>2021-05-23T06:56:40Z</time>
      </trkpt>
      <trkpt lat="42.6515640" lon="-8.6464150">
        <ele>146.0</ele>
        <time>2021-05-23T06:56:41Z</time>
      </trkpt>
      <trkpt lat="42.6515700" lon="-8.6464110">
        <ele>146.0</ele>
        <time>2021-05-23T06:56:42Z</time>
      </trkpt>
      <trkpt lat="42.6515850" lon="-8.6463990">
        <ele>146.0</ele>
        <time>2021-05-23T06:56:43Z</time>
      </trkpt>
      <trkpt lat="42.6516000" lon="-8.6463870">
        <ele>146.0</ele>
        <time>2021-05-23T06:56:44Z</time>
      </trkpt>
      <trkpt lat="42.6516090" lon="-8.6463830">
        <ele>146.0</ele>
        <time>2021-05-23T06:56:45Z</time>
      </trkpt>
      <trkpt lat="42.6516180" lon="-8.6463800">
        <ele>146.0</ele>
        <time>2021-05-23T06:56:46Z</time>
      </trkpt>
      <trkpt lat="42.6516360" lon="-8.6463720">
        <ele>146.0</ele>
        <time>2021-05-23T06:56:47Z</time>
      </trkpt>
      <trkpt lat="42.6516460" lon="-8.6463660">
        <ele>146.1</ele>
        <time>2021-05-23T06:56:48Z</time>
      </trkpt>
      <trkpt lat="42.6516540" lon="-8.6463600">
        <ele>146.1</ele>
        <time>2021-05-23T06:56:49Z</time>
      </trkpt>
      <trkpt lat="42.6516710" lon="-8.6463510">
        <ele>146.1</ele>
        <time>2021-05-23T06:56:50Z</time>
      </trkpt>
      <trkpt lat="42.6516860" lon="-8.6463340">
        <ele>146.1</ele>
        <time>2021-05-23T06:56:51Z</time>
      </trkpt>
      <trkpt lat="42.6516970" lon="-8.6463260">
        <ele>146.1</ele>
        <time>2021-05-23T06:56:52Z</time>
      </trkpt>
      <trkpt lat="42.6517080" lon="-8.6463180">
        <ele>146.1</ele>
        <time>2021-05-23T06:56:53Z</time>
      </trkpt>
      <trkpt lat="42.6517160" lon="-8.6463050">
        <ele>146.1</ele>
        <time>2021-05-23T06:56:54Z</time>
      </trkpt>
      <trkpt lat="42.6517270" lon="-8.6462990">
        <ele>146.1</ele>
        <time>2021-05-23T06:56:55Z</time>
      </trkpt>
      <trkpt lat="42.6517350" lon="-8.6462920">
        <ele>146.1</ele>
        <time>2021-05-23T06:56:56Z</time>
      </trkpt>
      <trkpt lat="42.6517420" lon="-8.6462830">
        <ele>146.1</ele>
        <time>2021-05-23T06:56:57Z</time>
      </trkpt>
      <trkpt lat="42.6517530" lon="-8.6462720">
        <ele>146.1</ele>
        <time>2021-05-23T06:56:58Z</time>
      </trkpt>
      <trkpt lat="42.6517620" lon="-8.6462680">
        <ele>146.1</ele>
        <time>2021-05-23T06:56:59Z</time>
      </trkpt>
      <trkpt lat="42.6517740" lon="-8.6462560">
        <ele>146.1</ele>
        <time>2021-05-23T06:57:00Z</time>
      </trkpt>
      <trkpt lat="42.6517890" lon="-8.6462380">
        <ele>146.1</ele>
        <time>2021-05-23T06:57:01Z</time>
      </trkpt>
      <trkpt lat="42.6517980" lon="-8.6462350">
        <ele>146.1</ele>
        <time>2021-05-23T06:57:02Z</time>
      </trkpt>
      <trkpt lat="42.6518150" lon="-8.6462180">
        <ele>146.1</ele>
        <time>2021-05-23T06:57:03Z</time>
      </trkpt>
      <trkpt lat="42.6518300" lon="-8.6462000">
        <ele>146.1</ele>
        <time>2021-05-23T06:57:04Z</time>
      </trkpt>
      <trkpt lat="42.6518350" lon="-8.6461900">
        <ele>146.0</ele>
        <time>2021-05-23T06:57:05Z</time>
      </trkpt>
      <trkpt lat="42.6518400" lon="-8.6461800">
        <ele>146.0</ele>
        <time>2021-05-23T06:57:06Z</time>
      </trkpt>
      <trkpt lat="42.6518450" lon="-8.6461700">
        <ele>146.0</ele>
        <time>2021-05-23T06:57:07Z</time>
      </trkpt>
      <trkpt lat="42.6518490" lon="-8.6461530">
        <ele>146.0</ele>
        <time>2021-05-23T06:57:08Z</time>
      </trkpt>
      <trkpt lat="42.6518600" lon="-8.6461410">
        <ele>146.0</ele>
        <time>2021-05-23T06:57:09Z</time>
      </trkpt>
      <trkpt lat="42.6518630" lon="-8.6461330">
        <ele>146.0</ele>
        <time>2021-05-23T06:57:10Z</time>
      </trkpt>
      <trkpt lat="42.6518750" lon="-8.6461130">
        <ele>146.0</ele>
        <time>2021-05-23T06:57:11Z</time>
      </trkpt>
      <trkpt lat="42.6518760" lon="-8.6460990">
        <ele>146.0</ele>
        <time>2021-05-23T06:57:12Z</time>
      </trkpt>
      <trkpt lat="42.6518840" lon="-8.6460730">
        <ele>146.0</ele>
        <time>2021-05-23T06:57:13Z</time>
      </trkpt>
      <trkpt lat="42.6518910" lon="-8.6460610">
        <ele>146.0</ele>
        <time>2021-05-23T06:57:14Z</time>
      </trkpt>
      <trkpt lat="42.6518990" lon="-8.6460500">
        <ele>146.0</ele>
        <time>2021-05-23T06:57:15Z</time>
      </trkpt>
      <trkpt lat="42.6519100" lon="-8.6460400">
        <ele>146.0</ele>
        <time>2021-05-23T06:57:16Z</time>
      </trkpt>
      <trkpt lat="42.6519190" lon="-8.6460320">
        <ele>146.0</ele>
        <time>2021-05-23T06:57:17Z</time>
      </trkpt>
      <trkpt lat="42.6519260" lon="-8.6460280">
        <ele>146.0</ele>
        <time>2021-05-23T06:57:18Z</time>
      </trkpt>
      <trkpt lat="42.6519340" lon="-8.6460210">
        <ele>146.0</ele>
        <time>2021-05-23T06:57:19Z</time>
      </trkpt>
      <trkpt lat="42.6519350" lon="-8.6460150">
        <ele>146.0</ele>
        <time>2021-05-23T06:57:20Z</time>
      </trkpt>
      <trkpt lat="42.6519350" lon="-8.6460040">
        <ele>146.0</ele>
        <time>2021-05-23T06:57:21Z</time>
      </trkpt>
      <trkpt lat="42.6519330" lon="-8.6459920">
        <ele>146.0</ele>
        <time>2021-05-23T06:57:22Z</time>
      </trkpt>
      <trkpt lat="42.6519360" lon="-8.6459920">
        <ele>146.0</ele>
        <time>2021-05-23T06:57:23Z</time>
      </trkpt>
      <trkpt lat="42.6519420" lon="-8.6459870">
        <ele>146.0</ele>
        <time>2021-05-23T06:57:24Z</time>
      </trkpt>
      <trkpt lat="42.6519400" lon="-8.6459810">
        <ele>146.0</ele>
        <time>2021-05-23T06:57:25Z</time>
      </trkpt>
      <trkpt lat="42.6519400" lon="-8.6459660">
        <ele>146.0</ele>
        <time>2021-05-23T06:57:26Z</time>
      </trkpt>
      <trkpt lat="42.6519430" lon="-8.6459550">
        <ele>146.0</ele>
        <time>2021-05-23T06:57:27Z</time>
      </trkpt>
      <trkpt lat="42.6519370" lon="-8.6459470">
        <ele>146.0</ele>
        <time>2021-05-23T06:57:28Z</time>
      </trkpt>
      <trkpt lat="42.6519380" lon="-8.6459440">
        <ele>146.0</ele>
        <time>2021-05-23T06:57:29Z</time>
      </trkpt>
      <trkpt lat="42.6519380" lon="-8.6459400">
        <ele>146.0</ele>
        <time>2021-05-23T06:57:30Z</time>
      </trkpt>
      <trkpt lat="42.6519250" lon="-8.6459260">
        <ele>146.0</ele>
        <time>2021-05-23T06:57:31Z</time>
      </trkpt>
      <trkpt lat="42.6519240" lon="-8.6459220">
        <ele>146.0</ele>
        <time>2021-05-23T06:57:32Z</time>
      </trkpt>
      <trkpt lat="42.6519250" lon="-8.6459230">
        <ele>146.0</ele>
        <time>2021-05-23T06:57:33Z</time>
      </trkpt>
      <trkpt lat="42.6519260" lon="-8.6459200">
        <ele>146.0</ele>
        <time>2021-05-23T06:57:34Z</time>
      </trkpt>
      <trkpt lat="42.6519290" lon="-8.6459210">
        <ele>146.0</ele>
        <time>2021-05-23T06:57:35Z</time>
      </trkpt>
      <trkpt lat="42.6519290" lon="-8.6459190">
        <ele>146.0</ele>
        <time>2021-05-23T06:57:36Z</time>
      </trkpt>
      <trkpt lat="42.6519250" lon="-8.6459230">
        <ele>146.0</ele>
        <time>2021-05-23T06:57:37Z</time>
      </trkpt>
      <trkpt lat="42.6519220" lon="-8.6459220">
        <ele>146.0</ele>
        <time>2021-05-23T06:57:38Z</time>
      </trkpt>
      <trkpt lat="42.6519220" lon="-8.6459270">
        <ele>146.0</ele>
        <time>2021-05-23T06:57:39Z</time>
      </trkpt>
      <trkpt lat="42.6519190" lon="-8.6459340">
        <ele>146.0</ele>
        <time>2021-05-23T06:57:40Z</time>
      </trkpt>
      <trkpt lat="42.6519220" lon="-8.6459320">
        <ele>146.0</ele>
        <time>2021-05-23T06:57:41Z</time>
      </trkpt>
      <trkpt lat="42.6519210" lon="-8.6459340">
        <ele>146.0</ele>
        <time>2021-05-23T06:57:42Z</time>
      </trkpt>
      <trkpt lat="42.6519170" lon="-8.6459360">
        <ele>146.0</ele>
        <time>2021-05-23T06:57:43Z</time>
      </trkpt>
      <trkpt lat="42.6519080" lon="-8.6459330">
        <ele>146.0</ele>
        <time>2021-05-23T06:57:44Z</time>
      </trkpt>
      <trkpt lat="42.6519090" lon="-8.6459290">
        <ele>146.0</ele>
        <time>2021-05-23T06:57:45Z</time>
      </trkpt>
      <trkpt lat="42.6519080" lon="-8.6459260">
        <ele>146.0</ele>
        <time>2021-05-23T06:57:46Z</time>
      </trkpt>
      <trkpt lat="42.6519060" lon="-8.6459230">
        <ele>146.0</ele>
        <time>2021-05-23T06:57:47Z</time>
      </trkpt>
      <trkpt lat="42.6519050" lon="-8.6459250">
        <ele>146.0</ele>
        <time>2021-05-23T06:57:48Z</time>
      </trkpt>
      <trkpt lat="42.6519060" lon="-8.6459270">
        <ele>146.0</ele>
        <time>2021-05-23T06:57:49Z</time>
      </trkpt>
      <trkpt lat="42.6519100" lon="-8.6459250">
        <ele>146.0</ele>
        <time>2021-05-23T06:57:50Z</time>
      </trkpt>
      <trkpt lat="42.6519180" lon="-8.6459280">
        <ele>146.0</ele>
        <time>2021-05-23T06:57:51Z</time>
      </trkpt>
      <trkpt lat="42.6519170" lon="-8.6459240">
        <ele>146.0</ele>
        <time>2021-05-23T06:57:52Z</time>
      </trkpt>
      <trkpt lat="42.6519170" lon="-8.6459210">
        <ele>146.0</ele>
        <time>2021-05-23T06:57:53Z</time>
      </trkpt>
      <trkpt lat="42.6519180" lon="-8.6459180">
        <ele>146.0</ele>
        <time>2021-05-23T06:57:54Z</time>
      </trkpt>
      <trkpt lat="42.6519170" lon="-8.6459110">
        <ele>146.0</ele>
        <time>2021-05-23T06:57:55Z</time>
      </trkpt>
      <trkpt lat="42.6519220" lon="-8.6459100">
        <ele>146.0</ele>
        <time>2021-05-23T06:57:56Z</time>
      </trkpt>
      <trkpt lat="42.6519260" lon="-8.6459050">
        <ele>146.0</ele>
        <time>2021-05-23T06:57:57Z</time>
      </trkpt>
      <trkpt lat="42.6519290" lon="-8.6459040">
        <ele>146.0</ele>
        <time>2021-05-23T06:57:58Z</time>
      </trkpt>
      <trkpt lat="42.6519270" lon="-8.6459070">
        <ele>146.0</ele>
        <time>2021-05-23T06:57:59Z</time>
      </trkpt>
      <trkpt lat="42.6519230" lon="-8.6459080">
        <ele>146.0</ele>
        <time>2021-05-23T06:58:00Z</time>
      </trkpt>
      <trkpt lat="42.6519260" lon="-8.6459080">
        <ele>146.0</ele>
        <time>2021-05-23T06:58:01Z</time>
      </trkpt>
      <trkpt lat="42.6519230" lon="-8.6459090">
        <ele>146.0</ele>
        <time>2021-05-23T06:58:02Z</time>
      </trkpt>
      <trkpt lat="42.6519280" lon="-8.6459150">
        <ele>146.0</ele>
        <time>2021-05-23T06:58:03Z</time>
      </trkpt>
      <trkpt lat="42.6519290" lon="-8.6459130">
        <ele>146.0</ele>
        <time>2021-05-23T06:58:04Z</time>
      </trkpt>
      <trkpt lat="42.6519310" lon="-8.6459060">
        <ele>146.0</ele>
        <time>2021-05-23T06:58:05Z</time>
      </trkpt>
      <trkpt lat="42.6519320" lon="-8.6459120">
        <ele>146.0</ele>
        <time>2021-05-23T06:58:06Z</time>
      </trkpt>
      <trkpt lat="42.6519310" lon="-8.6459140">
        <ele>146.0</ele>
        <time>2021-05-23T06:58:07Z</time>
      </trkpt>
      <trkpt lat="42.6519300" lon="-8.6459150">
        <ele>146.0</ele>
        <time>2021-05-23T06:58:08Z</time>
      </trkpt>
      <trkpt lat="42.6519300" lon="-8.6459160">
        <ele>146.0</ele>
        <time>2021-05-23T06:58:09Z</time>
      </trkpt>
      <trkpt lat="42.6519290" lon="-8.6459160">
        <ele>146.0</ele>
        <time>2021-05-23T06:58:10Z</time>
      </trkpt>
      <trkpt lat="42.6519290" lon="-8.6459160">
        <ele>146.0</ele>
        <time>2021-05-23T06:58:11Z</time>
      </trkpt>
      <trkpt lat="42.6519190" lon="-8.6459120">
        <ele>146.0</ele>
        <time>2021-05-23T06:58:12Z</time>
      </trkpt>
      <trkpt lat="42.6519130" lon="-8.6459110">
        <ele>146.0</ele>
        <time>2021-05-23T06:58:13Z</time>
      </trkpt>
      <trkpt lat="42.6519120" lon="-8.6459100">
        <ele>146.0</ele>
        <time>2021-05-23T06:58:14Z</time>
      </trkpt>
      <trkpt lat="42.6519170" lon="-8.6459110">
        <ele>146.0</ele>
        <time>2021-05-23T06:58:15Z</time>
      </trkpt>
      <trkpt lat="42.6519140" lon="-8.6459120">
        <ele>146.0</ele>
        <time>2021-05-23T06:58:16Z</time>
      </trkpt>
      <trkpt lat="42.6519110" lon="-8.6459110">
        <ele>146.0</ele>
        <time>2021-05-23T06:58:17Z</time>
      </trkpt>
      <trkpt lat="42.6519090" lon="-8.6459210">
        <ele>146.0</ele>
        <time>2021-05-23T06:58:18Z</time>
      </trkpt>
      <trkpt lat="42.6519130" lon="-8.6459180">
        <ele>146.0</ele>
        <time>2021-05-23T06:58:19Z</time>
      </trkpt>
      <trkpt lat="42.6519130" lon="-8.6459180">
        <ele>146.0</ele>
        <time>2021-05-23T06:58:20Z</time>
      </trkpt>
      <trkpt lat="42.6519130" lon="-8.6459180">
        <ele>146.0</ele>
        <time>2021-05-23T06:58:21Z</time>
      </trkpt>
      <trkpt lat="42.6519110" lon="-8.6459160">
        <ele>146.0</ele>
        <time>2021-05-23T06:58:22Z</time>
      </trkpt>
      <trkpt lat="42.6519120" lon="-8.6459160">
        <ele>146.0</ele>
        <time>2021-05-23T06:58:23Z</time>
      </trkpt>
      <trkpt lat="42.6519090" lon="-8.6459110">
        <ele>146.0</ele>
        <time>2021-05-23T06:58:24Z</time>
      </trkpt>
      <trkpt lat="42.6519080" lon="-8.6459090">
        <ele>146.0</ele>
        <time>2021-05-23T06:58:25Z</time>
      </trkpt>
      <trkpt lat="42.6519050" lon="-8.6459180">
        <ele>146.0</ele>
        <time>2021-05-23T06:58:26Z</time>
      </trkpt>
      <trkpt lat="42.6519090" lon="-8.6459240">
        <ele>146.0</ele>
        <time>2021-05-23T06:58:27Z</time>
      </trkpt>
      <trkpt lat="42.6519080" lon="-8.6459320">
        <ele>146.0</ele>
        <time>2021-05-23T06:58:28Z</time>
      </trkpt>
      <trkpt lat="42.6519010" lon="-8.6459310">
        <ele>146.0</ele>
        <time>2021-05-23T06:58:29Z</time>
      </trkpt>
      <trkpt lat="42.6519010" lon="-8.6459370">
        <ele>146.0</ele>
        <time>2021-05-23T06:58:30Z</time>
      </trkpt>
      <trkpt lat="42.6519030" lon="-8.6459550">
        <ele>146.0</ele>
        <time>2021-05-23T06:58:31Z</time>
      </trkpt>
      <trkpt lat="42.6519010" lon="-8.6459680">
        <ele>146.0</ele>
        <time>2021-05-23T06:58:32Z</time>
      </trkpt>
      <trkpt lat="42.6519040" lon="-8.6459830">
        <ele>146.0</ele>
        <time>2021-05-23T06:58:33Z</time>
      </trkpt>
      <trkpt lat="42.6519050" lon="-8.6460000">
        <ele>146.0</ele>
        <time>2021-05-23T06:58:34Z</time>
      </trkpt>
      <trkpt lat="42.6519040" lon="-8.6460040">
        <ele>146.0</ele>
        <time>2021-05-23T06:58:35Z</time>
      </trkpt>
      <trkpt lat="42.6519010" lon="-8.6460100">
        <ele>146.0</ele>
        <time>2021-05-23T06:58:36Z</time>
      </trkpt>
      <trkpt lat="42.6519040" lon="-8.6460170">
        <ele>146.0</ele>
        <time>2021-05-23T06:58:37Z</time>
      </trkpt>
      <trkpt lat="42.6519030" lon="-8.6460290">
        <ele>146.0</ele>
        <time>2021-05-23T06:58:38Z</time>
      </trkpt>
      <trkpt lat="42.6519040" lon="-8.6460380">
        <ele>146.0</ele>
        <time>2021-05-23T06:58:39Z</time>
      </trkpt>
      <trkpt lat="42.6519050" lon="-8.6460450">
        <ele>146.0</ele>
        <time>2021-05-23T06:58:40Z</time>
      </trkpt>
      <trkpt lat="42.6519090" lon="-8.6460380">
        <ele>146.0</ele>
        <time>2021-05-23T06:58:41Z</time>
      </trkpt>
      <trkpt lat="42.6519170" lon="-8.6460270">
        <ele>146.0</ele>
        <time>2021-05-23T06:58:42Z</time>
      </trkpt>
      <trkpt lat="42.6519240" lon="-8.6460110">
        <ele>146.0</ele>
        <time>2021-05-23T06:58:43Z</time>
      </trkpt>
      <trkpt lat="42.6519300" lon="-8.6459940">
        <ele>146.0</ele>
        <time>2021-05-23T06:58:44Z</time>
      </trkpt>
      <trkpt lat="42.6519290" lon="-8.6459810">
        <ele>146.0</ele>
        <time>2021-05-23T06:58:45Z</time>
      </trkpt>
      <trkpt lat="42.6519290" lon="-8.6459670">
        <ele>146.0</ele>
        <time>2021-05-23T06:58:46Z</time>
      </trkpt>
      <trkpt lat="42.6519200" lon="-8.6459520">
        <ele>146.0</ele>
        <time>2021-05-23T06:58:47Z</time>
      </trkpt>
      <trkpt lat="42.6519220" lon="-8.6459470">
        <ele>146.0</ele>
        <time>2021-05-23T06:58:48Z</time>
      </trkpt>
      <trkpt lat="42.6519200" lon="-8.6459430">
        <ele>146.0</ele>
        <time>2021-05-23T06:58:49Z</time>
      </trkpt>
      <trkpt lat="42.6519150" lon="-8.6459480">
        <ele>146.0</ele>
        <time>2021-05-23T06:58:50Z</time>
      </trkpt>
      <trkpt lat="42.6519150" lon="-8.6459490">
        <ele>146.0</ele>
        <time>2021-05-23T06:58:51Z</time>
      </trkpt>
      <trkpt lat="42.6519160" lon="-8.6459490">
        <ele>146.0</ele>
        <time>2021-05-23T06:58:52Z</time>
      </trkpt>
      <trkpt lat="42.6519150" lon="-8.6459500">
        <ele>146.0</ele>
        <time>2021-05-23T06:58:53Z</time>
      </trkpt>
      <trkpt lat="42.6519200" lon="-8.6459440">
        <ele>146.0</ele>
        <time>2021-05-23T06:58:54Z</time>
      </trkpt>
      <trkpt lat="42.6519230" lon="-8.6459470">
        <ele>146.0</ele>
        <time>2021-05-23T06:58:55Z</time>
      </trkpt>
      <trkpt lat="42.6519210" lon="-8.6459490">
        <ele>146.0</ele>
        <time>2021-05-23T06:58:56Z</time>
      </trkpt>
      <trkpt lat="42.6519220" lon="-8.6459380">
        <ele>146.0</ele>
        <time>2021-05-23T06:58:57Z</time>
      </trkpt>
      <trkpt lat="42.6519220" lon="-8.6459380">
        <ele>146.0</ele>
        <time>2021-05-23T06:58:58Z</time>
      </trkpt>
      <trkpt lat="42.6519220" lon="-8.6459380">
        <ele>146.0</ele>
        <time>2021-05-23T06:58:59Z</time>
      </trkpt>
      <trkpt lat="42.6519220" lon="-8.6459380">
        <ele>146.0</ele>
        <time>2021-05-23T06:59:00Z</time>
      </trkpt>
      <trkpt lat="42.6519350" lon="-8.6459230">
        <ele>146.0</ele>
        <time>2021-05-23T06:59:01Z</time>
      </trkpt>
      <trkpt lat="42.6519370" lon="-8.6459240">
        <ele>146.0</ele>
        <time>2021-05-23T06:59:02Z</time>
      </trkpt>
      <trkpt lat="42.6519380" lon="-8.6459210">
        <ele>146.0</ele>
        <time>2021-05-23T06:59:03Z</time>
      </trkpt>
      <trkpt lat="42.6519360" lon="-8.6459190">
        <ele>146.0</ele>
        <time>2021-05-23T06:59:04Z</time>
      </trkpt>
      <trkpt lat="42.6519330" lon="-8.6459190">
        <ele>146.0</ele>
        <time>2021-05-23T06:59:05Z</time>
      </trkpt>
      <trkpt lat="42.6519320" lon="-8.6459170">
        <ele>146.0</ele>
        <time>2021-05-23T06:59:06Z</time>
      </trkpt>
      <trkpt lat="42.6519310" lon="-8.6459170">
        <ele>146.0</ele>
        <time>2021-05-23T06:59:07Z</time>
      </trkpt>
      <trkpt lat="42.6519340" lon="-8.6459230">
        <ele>146.0</ele>
        <time>2021-05-23T06:59:08Z</time>
      </trkpt>
      <trkpt lat="42.6519350" lon="-8.6459290">
        <ele>146.0</ele>
        <time>2021-05-23T06:59:09Z</time>
      </trkpt>
      <trkpt lat="42.6519330" lon="-8.6459330">
        <ele>146.0</ele>
        <time>2021-05-23T06:59:10Z</time>
      </trkpt>
      <trkpt lat="42.6519330" lon="-8.6459310">
        <ele>146.0</ele>
        <time>2021-05-23T06:59:11Z</time>
      </trkpt>
      <trkpt lat="42.6519400" lon="-8.6459350">
        <ele>146.0</ele>
        <time>2021-05-23T06:59:12Z</time>
      </trkpt>
      <trkpt lat="42.6519420" lon="-8.6459420">
        <ele>146.0</ele>
        <time>2021-05-23T06:59:13Z</time>
      </trkpt>
      <trkpt lat="42.6519450" lon="-8.6459470">
        <ele>146.0</ele>
        <time>2021-05-23T06:59:14Z</time>
      </trkpt>
      <trkpt lat="42.6519480" lon="-8.6459490">
        <ele>146.0</ele>
        <time>2021-05-23T06:59:15Z</time>
      </trkpt>
      <trkpt lat="42.6519480" lon="-8.6459600">
        <ele>146.0</ele>
        <time>2021-05-23T06:59:16Z</time>
      </trkpt>
      <trkpt lat="42.6519460" lon="-8.6459600">
        <ele>146.0</ele>
        <time>2021-05-23T06:59:17Z</time>
      </trkpt>
      <trkpt lat="42.6519380" lon="-8.6459530">
        <ele>146.0</ele>
        <time>2021-05-23T06:59:18Z</time>
      </trkpt>
      <trkpt lat="42.6519270" lon="-8.6459540">
        <ele>146.0</ele>
        <time>2021-05-23T06:59:19Z</time>
      </trkpt>
      <trkpt lat="42.6519200" lon="-8.6459560">
        <ele>146.0</ele>
        <time>2021-05-23T06:59:20Z</time>
      </trkpt>
      <trkpt lat="42.6519270" lon="-8.6459580">
        <ele>146.0</ele>
        <time>2021-05-23T06:59:21Z</time>
      </trkpt>
      <trkpt lat="42.6519370" lon="-8.6459590">
        <ele>146.0</ele>
        <time>2021-05-23T06:59:22Z</time>
      </trkpt>
      <trkpt lat="42.6519340" lon="-8.6459460">
        <ele>146.0</ele>
        <time>2021-05-23T06:59:23Z</time>
      </trkpt>
      <trkpt lat="42.6519320" lon="-8.6459430">
        <ele>146.0</ele>
        <time>2021-05-23T06:59:24Z</time>
      </trkpt>
      <trkpt lat="42.6519320" lon="-8.6459570">
        <ele>146.0</ele>
        <time>2021-05-23T06:59:25Z</time>
      </trkpt>
      <trkpt lat="42.6519340" lon="-8.6459560">
        <ele>146.0</ele>
        <time>2021-05-23T06:59:26Z</time>
      </trkpt>
      <trkpt lat="42.6519380" lon="-8.6459560">
        <ele>146.0</ele>
        <time>2021-05-23T06:59:27Z</time>
      </trkpt>
      <trkpt lat="42.6519330" lon="-8.6459530">
        <ele>146.0</ele>
        <time>2021-05-23T06:59:28Z</time>
      </trkpt>
      <trkpt lat="42.6519310" lon="-8.6459460">
        <ele>146.0</ele>
        <time>2021-05-23T06:59:29Z</time>
      </trkpt>
      <trkpt lat="42.6519270" lon="-8.6459400">
        <ele>146.0</ele>
        <time>2021-05-23T06:59:30Z</time>
      </trkpt>
      <trkpt lat="42.6519270" lon="-8.6459450">
        <ele>146.0</ele>
        <time>2021-05-23T06:59:31Z</time>
      </trkpt>
      <trkpt lat="42.6519290" lon="-8.6459470">
        <ele>146.0</ele>
        <time>2021-05-23T06:59:32Z</time>
      </trkpt>
      <trkpt lat="42.6519290" lon="-8.6459400">
        <ele>146.0</ele>
        <time>2021-05-23T06:59:33Z</time>
      </trkpt>
      <trkpt lat="42.6519270" lon="-8.6459370">
        <ele>146.0</ele>
        <time>2021-05-23T06:59:34Z</time>
      </trkpt>
      <trkpt lat="42.6519250" lon="-8.6459370">
        <ele>146.0</ele>
        <time>2021-05-23T06:59:35Z</time>
      </trkpt>
      <trkpt lat="42.6519270" lon="-8.6459310">
        <ele>146.0</ele>
        <time>2021-05-23T06:59:36Z</time>
      </trkpt>
      <trkpt lat="42.6519270" lon="-8.6459330">
        <ele>146.0</ele>
        <time>2021-05-23T06:59:37Z</time>
      </trkpt>
      <trkpt lat="42.6519290" lon="-8.6459340">
        <ele>146.0</ele>
        <time>2021-05-23T06:59:38Z</time>
      </trkpt>
      <trkpt lat="42.6519280" lon="-8.6459350">
        <ele>146.0</ele>
        <time>2021-05-23T06:59:39Z</time>
      </trkpt>
      <trkpt lat="42.6519210" lon="-8.6459390">
        <ele>146.0</ele>
        <time>2021-05-23T06:59:40Z</time>
      </trkpt>
      <trkpt lat="42.6519220" lon="-8.6459330">
        <ele>146.0</ele>
        <time>2021-05-23T06:59:41Z</time>
      </trkpt>
      <trkpt lat="42.6519200" lon="-8.6459280">
        <ele>146.0</ele>
        <time>2021-05-23T06:59:42Z</time>
      </trkpt>
      <trkpt lat="42.6519210" lon="-8.6459250">
        <ele>146.0</ele>
        <time>2021-05-23T06:59:43Z</time>
      </trkpt>
      <trkpt lat="42.6519140" lon="-8.6459200">
        <ele>146.0</ele>
        <time>2021-05-23T06:59:44Z</time>
      </trkpt>
      <trkpt lat="42.6519170" lon="-8.6459280">
        <ele>146.0</ele>
        <time>2021-05-23T06:59:45Z</time>
      </trkpt>
      <trkpt lat="42.6519160" lon="-8.6459320">
        <ele>146.0</ele>
        <time>2021-05-23T06:59:46Z</time>
      </trkpt>
      <trkpt lat="42.6519110" lon="-8.6459320">
        <ele>146.0</ele>
        <time>2021-05-23T06:59:47Z</time>
      </trkpt>
      <trkpt lat="42.6519050" lon="-8.6459280">
        <ele>146.0</ele>
        <time>2021-05-23T06:59:48Z</time>
      </trkpt>
      <trkpt lat="42.6519060" lon="-8.6459210">
        <ele>146.0</ele>
        <time>2021-05-23T06:59:49Z</time>
      </trkpt>
      <trkpt lat="42.6519030" lon="-8.6459180">
        <ele>146.0</ele>
        <time>2021-05-23T06:59:50Z</time>
      </trkpt>
      <trkpt lat="42.6519040" lon="-8.6459230">
        <ele>146.0</ele>
        <time>2021-05-23T06:59:51Z</time>
      </trkpt>
      <trkpt lat="42.6519060" lon="-8.6459250">
        <ele>146.0</ele>
        <time>2021-05-23T06:59:52Z</time>
      </trkpt>
      <trkpt lat="42.6519060" lon="-8.6459250">
        <ele>146.0</ele>
        <time>2021-05-23T06:59:53Z</time>
      </trkpt>
      <trkpt lat="42.6519060" lon="-8.6459250">
        <ele>146.0</ele>
        <time>2021-05-23T06:59:54Z</time>
      </trkpt>
      <trkpt lat="42.6519110" lon="-8.6459300">
        <ele>146.0</ele>
        <time>2021-05-23T06:59:55Z</time>
      </trkpt>
      <trkpt lat="42.6519130" lon="-8.6459220">
        <ele>146.0</ele>
        <time>2021-05-23T06:59:56Z</time>
      </trkpt>
      <trkpt lat="42.6519110" lon="-8.6459200">
        <ele>146.0</ele>
        <time>2021-05-23T06:59:57Z</time>
      </trkpt>
      <trkpt lat="42.6519130" lon="-8.6459320">
        <ele>146.0</ele>
        <time>2021-05-23T06:59:58Z</time>
      </trkpt>
      <trkpt lat="42.6519120" lon="-8.6459290">
        <ele>146.0</ele>
        <time>2021-05-23T06:59:59Z</time>
      </trkpt>
      <trkpt lat="42.6519210" lon="-8.6459240">
        <ele>146.0</ele>
        <time>2021-05-23T07:00:00Z</time>
      </trkpt>
      <trkpt lat="42.6519280" lon="-8.6459310">
        <ele>146.0</ele>
        <time>2021-05-23T07:00:01Z</time>
      </trkpt>
      <trkpt lat="42.6519300" lon="-8.6459380">
        <ele>146.0</ele>
        <time>2021-05-23T07:00:02Z</time>
      </trkpt>
      <trkpt lat="42.6519310" lon="-8.6459450">
        <ele>146.0</ele>
        <time>2021-05-23T07:00:03Z</time>
      </trkpt>
      <trkpt lat="42.6519330" lon="-8.6459490">
        <ele>146.0</ele>
        <time>2021-05-23T07:00:04Z</time>
      </trkpt>
      <trkpt lat="42.6519330" lon="-8.6459580">
        <ele>146.0</ele>
        <time>2021-05-23T07:00:05Z</time>
      </trkpt>
      <trkpt lat="42.6519280" lon="-8.6459550">
        <ele>146.0</ele>
        <time>2021-05-23T07:00:06Z</time>
      </trkpt>
      <trkpt lat="42.6519290" lon="-8.6459680">
        <ele>146.0</ele>
        <time>2021-05-23T07:00:07Z</time>
      </trkpt>
      <trkpt lat="42.6519310" lon="-8.6459790">
        <ele>146.0</ele>
        <time>2021-05-23T07:00:08Z</time>
      </trkpt>
      <trkpt lat="42.6519230" lon="-8.6459910">
        <ele>146.0</ele>
        <time>2021-05-23T07:00:09Z</time>
      </trkpt>
      <trkpt lat="42.6519190" lon="-8.6460070">
        <ele>146.0</ele>
        <time>2021-05-23T07:00:10Z</time>
      </trkpt>
      <trkpt lat="42.6519140" lon="-8.6460200">
        <ele>146.0</ele>
        <time>2021-05-23T07:00:11Z</time>
      </trkpt>
      <trkpt lat="42.6519140" lon="-8.6460230">
        <ele>146.0</ele>
        <time>2021-05-23T07:00:12Z</time>
      </trkpt>
      <trkpt lat="42.6519160" lon="-8.6460260">
        <ele>146.0</ele>
        <time>2021-05-23T07:00:13Z</time>
      </trkpt>
      <trkpt lat="42.6519150" lon="-8.6460320">
        <ele>146.0</ele>
        <time>2021-05-23T07:00:14Z</time>
      </trkpt>
      <trkpt lat="42.6519210" lon="-8.6460250">
        <ele>146.0</ele>
        <time>2021-05-23T07:00:15Z</time>
      </trkpt>
      <trkpt lat="42.6519240" lon="-8.6460180">
        <ele>146.0</ele>
        <time>2021-05-23T07:00:16Z</time>
      </trkpt>
      <trkpt lat="42.6519270" lon="-8.6460120">
        <ele>146.0</ele>
        <time>2021-05-23T07:00:17Z</time>
      </trkpt>
      <trkpt lat="42.6519310" lon="-8.6460080">
        <ele>146.0</ele>
        <time>2021-05-23T07:00:18Z</time>
      </trkpt>
      <trkpt lat="42.6519300" lon="-8.6460070">
        <ele>146.0</ele>
        <time>2021-05-23T07:00:19Z</time>
      </trkpt>
      <trkpt lat="42.6519280" lon="-8.6460050">
        <ele>146.0</ele>
        <time>2021-05-23T07:00:20Z</time>
      </trkpt>
      <trkpt lat="42.6519270" lon="-8.6460040">
        <ele>146.0</ele>
        <time>2021-05-23T07:00:21Z</time>
      </trkpt>
      <trkpt lat="42.6519260" lon="-8.6460050">
        <ele>146.0</ele>
        <time>2021-05-23T07:00:22Z</time>
      </trkpt>
      <trkpt lat="42.6519260" lon="-8.6460050">
        <ele>146.0</ele>
        <time>2021-05-23T07:00:23Z</time>
      </trkpt>
      <trkpt lat="42.6519250" lon="-8.6460050">
        <ele>146.0</ele>
        <time>2021-05-23T07:00:24Z</time>
      </trkpt>
      <trkpt lat="42.6519280" lon="-8.6460050">
        <ele>146.0</ele>
        <time>2021-05-23T07:00:25Z</time>
      </trkpt>
      <trkpt lat="42.6519310" lon="-8.6460040">
        <ele>146.0</ele>
        <time>2021-05-23T07:00:26Z</time>
      </trkpt>
      <trkpt lat="42.6519320" lon="-8.6460030">
        <ele>146.0</ele>
        <time>2021-05-23T07:00:27Z</time>
      </trkpt>
      <trkpt lat="42.6519330" lon="-8.6459990">
        <ele>146.0</ele>
        <time>2021-05-23T07:00:28Z</time>
      </trkpt>
      <trkpt lat="42.6519340" lon="-8.6459970">
        <ele>146.0</ele>
        <time>2021-05-23T07:00:29Z</time>
      </trkpt>
      <trkpt lat="42.6519370" lon="-8.6459960">
        <ele>146.0</ele>
        <time>2021-05-23T07:00:30Z</time>
      </trkpt>
      <trkpt lat="42.6519390" lon="-8.6459940">
        <ele>146.0</ele>
        <time>2021-05-23T07:00:31Z</time>
      </trkpt>
      <trkpt lat="42.6519400" lon="-8.6459920">
        <ele>146.1</ele>
        <time>2021-05-23T07:00:32Z</time>
      </trkpt>
      <trkpt lat="42.6519420" lon="-8.6459900">
        <ele>146.1</ele>
        <time>2021-05-23T07:00:33Z</time>
      </trkpt>
      <trkpt lat="42.6519430" lon="-8.6459880">
        <ele>146.1</ele>
        <time>2021-05-23T07:00:34Z</time>
      </trkpt>
      <trkpt lat="42.6519450" lon="-8.6459860">
        <ele>146.1</ele>
        <time>2021-05-23T07:00:35Z</time>
      </trkpt>
      <trkpt lat="42.6519460" lon="-8.6459840">
        <ele>146.1</ele>
        <time>2021-05-23T07:00:36Z</time>
      </trkpt>
      <trkpt lat="42.6519480" lon="-8.6459820">
        <ele>146.1</ele>
        <time>2021-05-23T07:00:37Z</time>
      </trkpt>
      <trkpt lat="42.6519490" lon="-8.6459800">
        <ele>146.1</ele>
        <time>2021-05-23T07:00:38Z</time>
      </trkpt>
      <trkpt lat="42.6519510" lon="-8.6459780">
        <ele>146.1</ele>
        <time>2021-05-23T07:00:39Z</time>
      </trkpt>
      <trkpt lat="42.6519520" lon="-8.6459760">
        <ele>146.1</ele>
        <time>2021-05-23T07:00:40Z</time>
      </trkpt>
      <trkpt lat="42.6519540" lon="-8.6459740">
        <ele>146.1</ele>
        <time>2021-05-23T07:00:41Z</time>
      </trkpt>
      <trkpt lat="42.6519550" lon="-8.6459720">
        <ele>146.1</ele>
        <time>2021-05-23T07:00:42Z</time>
      </trkpt>
      <trkpt lat="42.6519570" lon="-8.6459700">
        <ele>146.1</ele>
        <time>2021-05-23T07:00:43Z</time>
      </trkpt>
      <trkpt lat="42.6519580" lon="-8.6459680">
        <ele>146.1</ele>
        <time>2021-05-23T07:00:44Z</time>
      </trkpt>
      <trkpt lat="42.6519600" lon="-8.6459660">
        <ele>146.1</ele>
        <time>2021-05-23T07:00:45Z</time>
      </trkpt>
      <trkpt lat="42.6519610" lon="-8.6459640">
        <ele>146.1</ele>
        <time>2021-05-23T07:00:46Z</time>
      </trkpt>
      <trkpt lat="42.6519580" lon="-8.6459540">
        <ele>146.1</ele>
        <time>2021-05-23T07:00:47Z</time>
      </trkpt>
      <trkpt lat="42.6519530" lon="-8.6459560">
        <ele>146.1</ele>
        <time>2021-05-23T07:00:48Z</time>
      </trkpt>
      <trkpt lat="42.6519520" lon="-8.6459510">
        <ele>146.1</ele>
        <time>2021-05-23T07:00:49Z</time>
      </trkpt>
      <trkpt lat="42.6519550" lon="-8.6459380">
        <ele>146.1</ele>
        <time>2021-05-23T07:00:50Z</time>
      </trkpt>
      <trkpt lat="42.6519530" lon="-8.6459300">
        <ele>146.1</ele>
        <time>2021-05-23T07:00:51Z</time>
      </trkpt>
      <trkpt lat="42.6519570" lon="-8.6459240">
        <ele>146.1</ele>
        <time>2021-05-23T07:00:52Z</time>
      </trkpt>
      <trkpt lat="42.6519560" lon="-8.6459150">
        <ele>146.1</ele>
        <time>2021-05-23T07:00:53Z</time>
      </trkpt>
      <trkpt lat="42.6519480" lon="-8.6459160">
        <ele>146.1</ele>
        <time>2021-05-23T07:00:54Z</time>
      </trkpt>
      <trkpt lat="42.6519450" lon="-8.6459180">
        <ele>146.1</ele>
        <time>2021-05-23T07:00:55Z</time>
      </trkpt>
      <trkpt lat="42.6519390" lon="-8.6459180">
        <ele>146.1</ele>
        <time>2021-05-23T07:00:56Z</time>
      </trkpt>
      <trkpt lat="42.6519330" lon="-8.6459130">
        <ele>146.1</ele>
        <time>2021-05-23T07:00:57Z</time>
      </trkpt>
      <trkpt lat="42.6519270" lon="-8.6459100">
        <ele>146.1</ele>
        <time>2021-05-23T07:00:58Z</time>
      </trkpt>
      <trkpt lat="42.6519220" lon="-8.6459160">
        <ele>146.1</ele>
        <time>2021-05-23T07:00:59Z</time>
      </trkpt>
      <trkpt lat="42.6519220" lon="-8.6459210">
        <ele>146.1</ele>
        <time>2021-05-23T07:01:00Z</time>
      </trkpt>
      <trkpt lat="42.6519210" lon="-8.6459270">
        <ele>146.1</ele>
        <time>2021-05-23T07:01:01Z</time>
      </trkpt>
      <trkpt lat="42.6519200" lon="-8.6459320">
        <ele>146.1</ele>
        <time>2021-05-23T07:01:02Z</time>
      </trkpt>
      <trkpt lat="42.6519200" lon="-8.6459370">
        <ele>146.1</ele>
        <time>2021-05-23T07:01:03Z</time>
      </trkpt>
      <trkpt lat="42.6519190" lon="-8.6459420">
        <ele>146.1</ele>
        <time>2021-05-23T07:01:04Z</time>
      </trkpt>
      <trkpt lat="42.6519180" lon="-8.6459480">
        <ele>146.1</ele>
        <time>2021-05-23T07:01:05Z</time>
      </trkpt>
      <trkpt lat="42.6519180" lon="-8.6459530">
        <ele>146.2</ele>
        <time>2021-05-23T07:01:06Z</time>
      </trkpt>
      <trkpt lat="42.6519170" lon="-8.6459580">
        <ele>146.2</ele>
        <time>2021-05-23T07:01:07Z</time>
      </trkpt>
      <trkpt lat="42.6519150" lon="-8.6459630">
        <ele>146.2</ele>
        <time>2021-05-23T07:01:08Z</time>
      </trkpt>
      <trkpt lat="42.6519090" lon="-8.6459720">
        <ele>146.2</ele>
        <time>2021-05-23T07:01:09Z</time>
      </trkpt>
      <trkpt lat="42.6519060" lon="-8.6459850">
        <ele>146.2</ele>
        <time>2021-05-23T07:01:10Z</time>
      </trkpt>
      <trkpt lat="42.6519040" lon="-8.6459890">
        <ele>146.2</ele>
        <time>2021-05-23T07:01:11Z</time>
      </trkpt>
      <trkpt lat="42.6519080" lon="-8.6459900">
        <ele>146.2</ele>
        <time>2021-05-23T07:01:12Z</time>
      </trkpt>
      <trkpt lat="42.6519090" lon="-8.6459980">
        <ele>146.2</ele>
        <time>2021-05-23T07:01:13Z</time>
      </trkpt>
      <trkpt lat="42.6519110" lon="-8.6460110">
        <ele>146.2</ele>
        <time>2021-05-23T07:01:14Z</time>
      </trkpt>
      <trkpt lat="42.6519090" lon="-8.6460180">
        <ele>146.2</ele>
        <time>2021-05-23T07:01:15Z</time>
      </trkpt>
      <trkpt lat="42.6519080" lon="-8.6460250">
        <ele>146.2</ele>
        <time>2021-05-23T07:01:16Z</time>
      </trkpt>
      <trkpt lat="42.6519070" lon="-8.6460320">
        <ele>146.2</ele>
        <time>2021-05-23T07:01:17Z</time>
      </trkpt>
      <trkpt lat="42.6519050" lon="-8.6460390">
        <ele>146.2</ele>
        <time>2021-05-23T07:01:18Z</time>
      </trkpt>
      <trkpt lat="42.6519040" lon="-8.6460460">
        <ele>146.2</ele>
        <time>2021-05-23T07:01:19Z</time>
      </trkpt>
      <trkpt lat="42.6519020" lon="-8.6460530">
        <ele>146.2</ele>
        <time>2021-05-23T07:01:20Z</time>
      </trkpt>
      <trkpt lat="42.6519010" lon="-8.6460600">
        <ele>146.2</ele>
        <time>2021-05-23T07:01:21Z</time>
      </trkpt>
      <trkpt lat="42.6519010" lon="-8.6460420">
        <ele>146.3</ele>
        <time>2021-05-23T07:01:22Z</time>
      </trkpt>
      <trkpt lat="42.6519080" lon="-8.6460160">
        <ele>146.3</ele>
        <time>2021-05-23T07:01:23Z</time>
      </trkpt>
      <trkpt lat="42.6519080" lon="-8.6460020">
        <ele>146.3</ele>
        <time>2021-05-23T07:01:24Z</time>
      </trkpt>
      <trkpt lat="42.6519110" lon="-8.6459850">
        <ele>146.3</ele>
        <time>2021-05-23T07:01:25Z</time>
      </trkpt>
      <trkpt lat="42.6519120" lon="-8.6459770">
        <ele>146.3</ele>
        <time>2021-05-23T07:01:26Z</time>
      </trkpt>
      <trkpt lat="42.6519180" lon="-8.6459690">
        <ele>146.3</ele>
        <time>2021-05-23T07:01:27Z</time>
      </trkpt>
      <trkpt lat="42.6519160" lon="-8.6459640">
        <ele>146.3</ele>
        <time>2021-05-23T07:01:28Z</time>
      </trkpt>
      <trkpt lat="42.6519230" lon="-8.6459600">
        <ele>146.3</ele>
        <time>2021-05-23T07:01:29Z</time>
      </trkpt>
      <trkpt lat="42.6519250" lon="-8.6459460">
        <ele>146.3</ele>
        <time>2021-05-23T07:01:30Z</time>
      </trkpt>
      <trkpt lat="42.6519240" lon="-8.6459400">
        <ele>146.4</ele>
        <time>2021-05-23T07:01:31Z</time>
      </trkpt>
      <trkpt lat="42.6519220" lon="-8.6459340">
        <ele>146.4</ele>
        <time>2021-05-23T07:01:32Z</time>
      </trkpt>
      <trkpt lat="42.6519210" lon="-8.6459380">
        <ele>146.4</ele>
        <time>2021-05-23T07:01:33Z</time>
      </trkpt>
      <trkpt lat="42.6519210" lon="-8.6459360">
        <ele>146.4</ele>
        <time>2021-05-23T07:01:34Z</time>
      </trkpt>
      <trkpt lat="42.6519170" lon="-8.6459390">
        <ele>146.4</ele>
        <time>2021-05-23T07:01:35Z</time>
      </trkpt>
      <trkpt lat="42.6519170" lon="-8.6459400">
        <ele>146.4</ele>
        <time>2021-05-23T07:01:36Z</time>
      </trkpt>
      <trkpt lat="42.6519170" lon="-8.6459400">
        <ele>146.4</ele>
        <time>2021-05-23T07:01:37Z</time>
      </trkpt>
      <trkpt lat="42.6519170" lon="-8.6459400">
        <ele>146.4</ele>
        <time>2021-05-23T07:01:38Z</time>
      </trkpt>
      <trkpt lat="42.6519150" lon="-8.6459500">
        <ele>146.4</ele>
        <time>2021-05-23T07:01:39Z</time>
      </trkpt>
      <trkpt lat="42.6519150" lon="-8.6459530">
        <ele>146.4</ele>
        <time>2021-05-23T07:01:40Z</time>
      </trkpt>
      <trkpt lat="42.6519140" lon="-8.6459600">
        <ele>146.4</ele>
        <time>2021-05-23T07:01:41Z</time>
      </trkpt>
      <trkpt lat="42.6519140" lon="-8.6459660">
        <ele>146.4</ele>
        <time>2021-05-23T07:01:42Z</time>
      </trkpt>
      <trkpt lat="42.6519190" lon="-8.6459690">
        <ele>146.4</ele>
        <time>2021-05-23T07:01:43Z</time>
      </trkpt>
      <trkpt lat="42.6519190" lon="-8.6459690">
        <ele>146.4</ele>
        <time>2021-05-23T07:01:44Z</time>
      </trkpt>
      <trkpt lat="42.6519200" lon="-8.6459750">
        <ele>146.4</ele>
        <time>2021-05-23T07:01:45Z</time>
      </trkpt>
      <trkpt lat="42.6519220" lon="-8.6459760">
        <ele>146.4</ele>
        <time>2021-05-23T07:01:46Z</time>
      </trkpt>
      <trkpt lat="42.6519250" lon="-8.6459810">
        <ele>146.4</ele>
        <time>2021-05-23T07:01:47Z</time>
      </trkpt>
      <trkpt lat="42.6519280" lon="-8.6459830">
        <ele>146.4</ele>
        <time>2021-05-23T07:01:48Z</time>
      </trkpt>
      <trkpt lat="42.6519280" lon="-8.6459930">
        <ele>146.4</ele>
        <time>2021-05-23T07:01:49Z</time>
      </trkpt>
      <trkpt lat="42.6519280" lon="-8.6459950">
        <ele>146.4</ele>
        <time>2021-05-23T07:01:50Z</time>
      </trkpt>
      <trkpt lat="42.6519280" lon="-8.6459990">
        <ele>146.5</ele>
        <time>2021-05-23T07:01:51Z</time>
      </trkpt>
      <trkpt lat="42.6519270" lon="-8.6460090">
        <ele>146.5</ele>
        <time>2021-05-23T07:01:52Z</time>
      </trkpt>
      <trkpt lat="42.6519280" lon="-8.6460040">
        <ele>146.5</ele>
        <time>2021-05-23T07:01:53Z</time>
      </trkpt>
      <trkpt lat="42.6519230" lon="-8.6460000">
        <ele>146.5</ele>
        <time>2021-05-23T07:01:54Z</time>
      </trkpt>
      <trkpt lat="42.6519190" lon="-8.6459950">
        <ele>146.5</ele>
        <time>2021-05-23T07:01:55Z</time>
      </trkpt>
      <trkpt lat="42.6519170" lon="-8.6460040">
        <ele>146.5</ele>
        <time>2021-05-23T07:01:56Z</time>
      </trkpt>
      <trkpt lat="42.6519220" lon="-8.6460060">
        <ele>146.5</ele>
        <time>2021-05-23T07:01:57Z</time>
      </trkpt>
      <trkpt lat="42.6519210" lon="-8.6460090">
        <ele>146.5</ele>
        <time>2021-05-23T07:01:58Z</time>
      </trkpt>
      <trkpt lat="42.6519210" lon="-8.6460080">
        <ele>146.5</ele>
        <time>2021-05-23T07:01:59Z</time>
      </trkpt>
      <trkpt lat="42.6519200" lon="-8.6460120">
        <ele>146.5</ele>
        <time>2021-05-23T07:02:00Z</time>
      </trkpt>
      <trkpt lat="42.6519180" lon="-8.6460170">
        <ele>146.5</ele>
        <time>2021-05-23T07:02:01Z</time>
      </trkpt>
      <trkpt lat="42.6519180" lon="-8.6460170">
        <ele>146.5</ele>
        <time>2021-05-23T07:02:02Z</time>
      </trkpt>
      <trkpt lat="42.6519140" lon="-8.6460170">
        <ele>146.5</ele>
        <time>2021-05-23T07:02:03Z</time>
      </trkpt>
      <trkpt lat="42.6519130" lon="-8.6460100">
        <ele>146.5</ele>
        <time>2021-05-23T07:02:04Z</time>
      </trkpt>
      <trkpt lat="42.6519130" lon="-8.6460070">
        <ele>146.5</ele>
        <time>2021-05-23T07:02:05Z</time>
      </trkpt>
      <trkpt lat="42.6519100" lon="-8.6460020">
        <ele>146.5</ele>
        <time>2021-05-23T07:02:06Z</time>
      </trkpt>
      <trkpt lat="42.6519130" lon="-8.6459950">
        <ele>146.6</ele>
        <time>2021-05-23T07:02:07Z</time>
      </trkpt>
      <trkpt lat="42.6519150" lon="-8.6459880">
        <ele>146.6</ele>
        <time>2021-05-23T07:02:08Z</time>
      </trkpt>
      <trkpt lat="42.6519150" lon="-8.6459900">
        <ele>146.6</ele>
        <time>2021-05-23T07:02:09Z</time>
      </trkpt>
      <trkpt lat="42.6519100" lon="-8.6459870">
        <ele>146.6</ele>
        <time>2021-05-23T07:02:10Z</time>
      </trkpt>
      <trkpt lat="42.6519080" lon="-8.6459850">
        <ele>146.6</ele>
        <time>2021-05-23T07:02:11Z</time>
      </trkpt>
      <trkpt lat="42.6519090" lon="-8.6459860">
        <ele>146.6</ele>
        <time>2021-05-23T07:02:12Z</time>
      </trkpt>
      <trkpt lat="42.6519080" lon="-8.6459780">
        <ele>146.6</ele>
        <time>2021-05-23T07:02:13Z</time>
      </trkpt>
      <trkpt lat="42.6519070" lon="-8.6459750">
        <ele>146.6</ele>
        <time>2021-05-23T07:02:14Z</time>
      </trkpt>
      <trkpt lat="42.6519070" lon="-8.6459740">
        <ele>146.6</ele>
        <time>2021-05-23T07:02:15Z</time>
      </trkpt>
      <trkpt lat="42.6519080" lon="-8.6459720">
        <ele>146.6</ele>
        <time>2021-05-23T07:02:16Z</time>
      </trkpt>
      <trkpt lat="42.6519140" lon="-8.6459610">
        <ele>146.6</ele>
        <time>2021-05-23T07:02:17Z</time>
      </trkpt>
      <trkpt lat="42.6519160" lon="-8.6459570">
        <ele>146.6</ele>
        <time>2021-05-23T07:02:18Z</time>
      </trkpt>
      <trkpt lat="42.6519140" lon="-8.6459480">
        <ele>146.6</ele>
        <time>2021-05-23T07:02:19Z</time>
      </trkpt>
      <trkpt lat="42.6519180" lon="-8.6459350">
        <ele>146.6</ele>
        <time>2021-05-23T07:02:20Z</time>
      </trkpt>
      <trkpt lat="42.6519220" lon="-8.6459410">
        <ele>146.6</ele>
        <time>2021-05-23T07:02:21Z</time>
      </trkpt>
      <trkpt lat="42.6519290" lon="-8.6459280">
        <ele>146.7</ele>
        <time>2021-05-23T07:02:22Z</time>
      </trkpt>
      <trkpt lat="42.6519320" lon="-8.6459250">
        <ele>146.7</ele>
        <time>2021-05-23T07:02:23Z</time>
      </trkpt>
      <trkpt lat="42.6519360" lon="-8.6459290">
        <ele>146.7</ele>
        <time>2021-05-23T07:02:24Z</time>
      </trkpt>
      <trkpt lat="42.6519340" lon="-8.6459280">
        <ele>146.7</ele>
        <time>2021-05-23T07:02:25Z</time>
      </trkpt>
      <trkpt lat="42.6519300" lon="-8.6459190">
        <ele>146.7</ele>
        <time>2021-05-23T07:02:26Z</time>
      </trkpt>
      <trkpt lat="42.6519290" lon="-8.6459140">
        <ele>146.7</ele>
        <time>2021-05-23T07:02:27Z</time>
      </trkpt>
      <trkpt lat="42.6519360" lon="-8.6459180">
        <ele>146.7</ele>
        <time>2021-05-23T07:02:28Z</time>
      </trkpt>
      <trkpt lat="42.6519390" lon="-8.6459120">
        <ele>146.7</ele>
        <time>2021-05-23T07:02:29Z</time>
      </trkpt>
      <trkpt lat="42.6519400" lon="-8.6459150">
        <ele>146.7</ele>
        <time>2021-05-23T07:02:30Z</time>
      </trkpt>
      <trkpt lat="42.6519430" lon="-8.6459190">
        <ele>146.7</ele>
        <time>2021-05-23T07:02:31Z</time>
      </trkpt>
      <trkpt lat="42.6519410" lon="-8.6459210">
        <ele>146.7</ele>
        <time>2021-05-23T07:02:32Z</time>
      </trkpt>
      <trkpt lat="42.6519440" lon="-8.6459210">
        <ele>146.7</ele>
        <time>2021-05-23T07:02:33Z</time>
      </trkpt>
      <trkpt lat="42.6519430" lon="-8.6459210">
        <ele>146.7</ele>
        <time>2021-05-23T07:02:34Z</time>
      </trkpt>
      <trkpt lat="42.6519320" lon="-8.6459200">
        <ele>146.8</ele>
        <time>2021-05-23T07:02:35Z</time>
      </trkpt>
      <trkpt lat="42.6519280" lon="-8.6459250">
        <ele>146.8</ele>
        <time>2021-05-23T07:02:36Z</time>
      </trkpt>
      <trkpt lat="42.6519280" lon="-8.6459380">
        <ele>146.8</ele>
        <time>2021-05-23T07:02:37Z</time>
      </trkpt>
      <trkpt lat="42.6519190" lon="-8.6459370">
        <ele>146.8</ele>
        <time>2021-05-23T07:02:38Z</time>
      </trkpt>
      <trkpt lat="42.6519110" lon="-8.6459280">
        <ele>146.8</ele>
        <time>2021-05-23T07:02:39Z</time>
      </trkpt>
      <trkpt lat="42.6519000" lon="-8.6459240">
        <ele>146.9</ele>
        <time>2021-05-23T07:02:40Z</time>
      </trkpt>
      <trkpt lat="42.6518970" lon="-8.6459230">
        <ele>146.9</ele>
        <time>2021-05-23T07:02:41Z</time>
      </trkpt>
      <trkpt lat="42.6518980" lon="-8.6459200">
        <ele>146.9</ele>
        <time>2021-05-23T07:02:42Z</time>
      </trkpt>
      <trkpt lat="42.6518980" lon="-8.6459170">
        <ele>146.9</ele>
        <time>2021-05-23T07:02:43Z</time>
      </trkpt>
      <trkpt lat="42.6518950" lon="-8.6459160">
        <ele>146.9</ele>
        <time>2021-05-23T07:02:44Z</time>
      </trkpt>
      <trkpt lat="42.6519030" lon="-8.6459110">
        <ele>146.9</ele>
        <time>2021-05-23T07:02:45Z</time>
      </trkpt>
      <trkpt lat="42.6519080" lon="-8.6459160">
        <ele>146.9</ele>
        <time>2021-05-23T07:02:46Z</time>
      </trkpt>
      <trkpt lat="42.6519060" lon="-8.6459160">
        <ele>146.9</ele>
        <time>2021-05-23T07:02:47Z</time>
      </trkpt>
      <trkpt lat="42.6519030" lon="-8.6459140">
        <ele>146.9</ele>
        <time>2021-05-23T07:02:48Z</time>
      </trkpt>
      <trkpt lat="42.6519050" lon="-8.6459050">
        <ele>146.9</ele>
        <time>2021-05-23T07:02:49Z</time>
      </trkpt>
      <trkpt lat="42.6519040" lon="-8.6459000">
        <ele>146.9</ele>
        <time>2021-05-23T07:02:50Z</time>
      </trkpt>
      <trkpt lat="42.6519040" lon="-8.6459000">
        <ele>146.9</ele>
        <time>2021-05-23T07:02:51Z</time>
      </trkpt>
      <trkpt lat="42.6519030" lon="-8.6459040">
        <ele>146.9</ele>
        <time>2021-05-23T07:02:52Z</time>
      </trkpt>
      <trkpt lat="42.6519070" lon="-8.6459100">
        <ele>147.0</ele>
        <time>2021-05-23T07:02:53Z</time>
      </trkpt>
      <trkpt lat="42.6519140" lon="-8.6459120">
        <ele>147.0</ele>
        <time>2021-05-23T07:02:54Z</time>
      </trkpt>
      <trkpt lat="42.6519120" lon="-8.6459210">
        <ele>147.0</ele>
        <time>2021-05-23T07:02:55Z</time>
      </trkpt>
      <trkpt lat="42.6519100" lon="-8.6459260">
        <ele>147.0</ele>
        <time>2021-05-23T07:02:56Z</time>
      </trkpt>
      <trkpt lat="42.6519020" lon="-8.6459280">
        <ele>147.0</ele>
        <time>2021-05-23T07:02:57Z</time>
      </trkpt>
      <trkpt lat="42.6519010" lon="-8.6459320">
        <ele>147.0</ele>
        <time>2021-05-23T07:02:58Z</time>
      </trkpt>
      <trkpt lat="42.6519060" lon="-8.6459370">
        <ele>147.0</ele>
        <time>2021-05-23T07:02:59Z</time>
      </trkpt>
      <trkpt lat="42.6519030" lon="-8.6459420">
        <ele>147.0</ele>
        <time>2021-05-23T07:03:00Z</time>
      </trkpt>
      <trkpt lat="42.6519030" lon="-8.6459440">
        <ele>147.0</ele>
        <time>2021-05-23T07:03:01Z</time>
      </trkpt>
      <trkpt lat="42.6518960" lon="-8.6459340">
        <ele>147.0</ele>
        <time>2021-05-23T07:03:02Z</time>
      </trkpt>
      <trkpt lat="42.6518960" lon="-8.6459350">
        <ele>147.1</ele>
        <time>2021-05-23T07:03:03Z</time>
      </trkpt>
      <trkpt lat="42.6518940" lon="-8.6459320">
        <ele>147.1</ele>
        <time>2021-05-23T07:03:04Z</time>
      </trkpt>
      <trkpt lat="42.6518910" lon="-8.6459280">
        <ele>147.1</ele>
        <time>2021-05-23T07:03:05Z</time>
      </trkpt>
      <trkpt lat="42.6518870" lon="-8.6459260">
        <ele>147.1</ele>
        <time>2021-05-23T07:03:06Z</time>
      </trkpt>
      <trkpt lat="42.6518890" lon="-8.6459200">
        <ele>147.1</ele>
        <time>2021-05-23T07:03:07Z</time>
      </trkpt>
      <trkpt lat="42.6518870" lon="-8.6459210">
        <ele>147.1</ele>
        <time>2021-05-23T07:03:08Z</time>
      </trkpt>
      <trkpt lat="42.6518870" lon="-8.6459220">
        <ele>147.1</ele>
        <time>2021-05-23T07:03:09Z</time>
      </trkpt>
      <trkpt lat="42.6518820" lon="-8.6459250">
        <ele>147.1</ele>
        <time>2021-05-23T07:03:10Z</time>
      </trkpt>
      <trkpt lat="42.6518830" lon="-8.6459300">
        <ele>147.1</ele>
        <time>2021-05-23T07:03:11Z</time>
      </trkpt>
      <trkpt lat="42.6518850" lon="-8.6459310">
        <ele>147.1</ele>
        <time>2021-05-23T07:03:12Z</time>
      </trkpt>
      <trkpt lat="42.6518880" lon="-8.6459320">
        <ele>147.1</ele>
        <time>2021-05-23T07:03:13Z</time>
      </trkpt>
      <trkpt lat="42.6518910" lon="-8.6459380">
        <ele>147.1</ele>
        <time>2021-05-23T07:03:14Z</time>
      </trkpt>
      <trkpt lat="42.6518910" lon="-8.6459460">
        <ele>147.1</ele>
        <time>2021-05-23T07:03:15Z</time>
      </trkpt>
      <trkpt lat="42.6518880" lon="-8.6459490">
        <ele>147.1</ele>
        <time>2021-05-23T07:03:16Z</time>
      </trkpt>
      <trkpt lat="42.6518960" lon="-8.6459560">
        <ele>147.2</ele>
        <time>2021-05-23T07:03:17Z</time>
      </trkpt>
      <trkpt lat="42.6518930" lon="-8.6459620">
        <ele>147.2</ele>
        <time>2021-05-23T07:03:18Z</time>
      </trkpt>
      <trkpt lat="42.6518900" lon="-8.6459630">
        <ele>147.2</ele>
        <time>2021-05-23T07:03:19Z</time>
      </trkpt>
      <trkpt lat="42.6518890" lon="-8.6459630">
        <ele>147.2</ele>
        <time>2021-05-23T07:03:20Z</time>
      </trkpt>
      <trkpt lat="42.6518920" lon="-8.6459680">
        <ele>147.2</ele>
        <time>2021-05-23T07:03:21Z</time>
      </trkpt>
      <trkpt lat="42.6518920" lon="-8.6459680">
        <ele>147.2</ele>
        <time>2021-05-23T07:03:22Z</time>
      </trkpt>
      <trkpt lat="42.6518920" lon="-8.6459650">
        <ele>147.2</ele>
        <time>2021-05-23T07:03:23Z</time>
      </trkpt>
      <trkpt lat="42.6518890" lon="-8.6459600">
        <ele>147.2</ele>
        <time>2021-05-23T07:03:24Z</time>
      </trkpt>
      <trkpt lat="42.6518820" lon="-8.6459570">
        <ele>147.2</ele>
        <time>2021-05-23T07:03:25Z</time>
      </trkpt>
      <trkpt lat="42.6518870" lon="-8.6459590">
        <ele>147.2</ele>
        <time>2021-05-23T07:03:26Z</time>
      </trkpt>
      <trkpt lat="42.6518830" lon="-8.6459610">
        <ele>147.2</ele>
        <time>2021-05-23T07:03:27Z</time>
      </trkpt>
      <trkpt lat="42.6518940" lon="-8.6459600">
        <ele>147.3</ele>
        <time>2021-05-23T07:03:28Z</time>
      </trkpt>
      <trkpt lat="42.6518910" lon="-8.6459510">
        <ele>147.3</ele>
        <time>2021-05-23T07:03:29Z</time>
      </trkpt>
      <trkpt lat="42.6518960" lon="-8.6459450">
        <ele>147.3</ele>
        <time>2021-05-23T07:03:30Z</time>
      </trkpt>
      <trkpt lat="42.6519100" lon="-8.6459400">
        <ele>147.3</ele>
        <time>2021-05-23T07:03:31Z</time>
      </trkpt>
      <trkpt lat="42.6519180" lon="-8.6459330">
        <ele>147.3</ele>
        <time>2021-05-23T07:03:32Z</time>
      </trkpt>
      <trkpt lat="42.6519240" lon="-8.6459330">
        <ele>147.3</ele>
        <time>2021-05-23T07:03:33Z</time>
      </trkpt>
      <trkpt lat="42.6519250" lon="-8.6459290">
        <ele>147.4</ele>
        <time>2021-05-23T07:03:34Z</time>
      </trkpt>
      <trkpt lat="42.6519300" lon="-8.6459250">
        <ele>147.4</ele>
        <time>2021-05-23T07:03:35Z</time>
      </trkpt>
      <trkpt lat="42.6519330" lon="-8.6459240">
        <ele>147.4</ele>
        <time>2021-05-23T07:03:36Z</time>
      </trkpt>
      <trkpt lat="42.6519350" lon="-8.6459230">
        <ele>147.4</ele>
        <time>2021-05-23T07:03:37Z</time>
      </trkpt>
      <trkpt lat="42.6519450" lon="-8.6459210">
        <ele>147.4</ele>
        <time>2021-05-23T07:03:38Z</time>
      </trkpt>
      <trkpt lat="42.6519450" lon="-8.6459180">
        <ele>147.4</ele>
        <time>2021-05-23T07:03:39Z</time>
      </trkpt>
      <trkpt lat="42.6519460" lon="-8.6459150">
        <ele>147.4</ele>
        <time>2021-05-23T07:03:40Z</time>
      </trkpt>
      <trkpt lat="42.6519460" lon="-8.6459120">
        <ele>147.4</ele>
        <time>2021-05-23T07:03:41Z</time>
      </trkpt>
      <trkpt lat="42.6519470" lon="-8.6459080">
        <ele>147.4</ele>
        <time>2021-05-23T07:03:42Z</time>
      </trkpt>
      <trkpt lat="42.6519470" lon="-8.6459050">
        <ele>147.4</ele>
        <time>2021-05-23T07:03:43Z</time>
      </trkpt>
      <trkpt lat="42.6519480" lon="-8.6459020">
        <ele>147.4</ele>
        <time>2021-05-23T07:03:44Z</time>
      </trkpt>
      <trkpt lat="42.6519480" lon="-8.6458990">
        <ele>147.4</ele>
        <time>2021-05-23T07:03:45Z</time>
      </trkpt>
      <trkpt lat="42.6519490" lon="-8.6458960">
        <ele>147.4</ele>
        <time>2021-05-23T07:03:46Z</time>
      </trkpt>
      <trkpt lat="42.6519500" lon="-8.6458930">
        <ele>147.4</ele>
        <time>2021-05-23T07:03:47Z</time>
      </trkpt>
      <trkpt lat="42.6519500" lon="-8.6458900">
        <ele>147.4</ele>
        <time>2021-05-23T07:03:48Z</time>
      </trkpt>
      <trkpt lat="42.6519510" lon="-8.6458870">
        <ele>147.5</ele>
        <time>2021-05-23T07:03:49Z</time>
      </trkpt>
      <trkpt lat="42.6519510" lon="-8.6458840">
        <ele>147.5</ele>
        <time>2021-05-23T07:03:50Z</time>
      </trkpt>
      <trkpt lat="42.6519520" lon="-8.6458800">
        <ele>147.5</ele>
        <time>2021-05-23T07:03:51Z</time>
      </trkpt>
      <trkpt lat="42.6519520" lon="-8.6458770">
        <ele>147.5</ele>
        <time>2021-05-23T07:03:52Z</time>
      </trkpt>
      <trkpt lat="42.6519530" lon="-8.6458740">
        <ele>147.5</ele>
        <time>2021-05-23T07:03:53Z</time>
      </trkpt>
      <trkpt lat="42.6519530" lon="-8.6458710">
        <ele>147.5</ele>
        <time>2021-05-23T07:03:54Z</time>
      </trkpt>
      <trkpt lat="42.6519540" lon="-8.6458680">
        <ele>147.5</ele>
        <time>2021-05-23T07:03:55Z</time>
      </trkpt>
      <trkpt lat="42.6519570" lon="-8.6458570">
        <ele>147.5</ele>
        <time>2021-05-23T07:03:56Z</time>
      </trkpt>
      <trkpt lat="42.6519600" lon="-8.6458600">
        <ele>147.5</ele>
        <time>2021-05-23T07:03:57Z</time>
      </trkpt>
      <trkpt lat="42.6519580" lon="-8.6458600">
        <ele>147.5</ele>
        <time>2021-05-23T07:03:58Z</time>
      </trkpt>
      <trkpt lat="42.6519560" lon="-8.6458640">
        <ele>147.5</ele>
        <time>2021-05-23T07:03:59Z</time>
      </trkpt>
      <trkpt lat="42.6519570" lon="-8.6458640">
        <ele>147.5</ele>
        <time>2021-05-23T07:04:00Z</time>
      </trkpt>
      <trkpt lat="42.6519590" lon="-8.6458550">
        <ele>147.5</ele>
        <time>2021-05-23T07:04:01Z</time>
      </trkpt>
      <trkpt lat="42.6519770" lon="-8.6458460">
        <ele>147.6</ele>
        <time>2021-05-23T07:04:02Z</time>
      </trkpt>
      <trkpt lat="42.6519910" lon="-8.6458240">
        <ele>147.6</ele>
        <time>2021-05-23T07:04:03Z</time>
      </trkpt>
      <trkpt lat="42.6519940" lon="-8.6458110">
        <ele>147.6</ele>
        <time>2021-05-23T07:04:04Z</time>
      </trkpt>
      <trkpt lat="42.6519970" lon="-8.6457990">
        <ele>147.7</ele>
        <time>2021-05-23T07:04:05Z</time>
      </trkpt>
      <trkpt lat="42.6520080" lon="-8.6457830">
        <ele>147.7</ele>
        <time>2021-05-23T07:04:06Z</time>
      </trkpt>
      <trkpt lat="42.6520160" lon="-8.6457760">
        <ele>147.7</ele>
        <time>2021-05-23T07:04:07Z</time>
      </trkpt>
      <trkpt lat="42.6520250" lon="-8.6457700">
        <ele>147.7</ele>
        <time>2021-05-23T07:04:08Z</time>
      </trkpt>
      <trkpt lat="42.6520330" lon="-8.6457630">
        <ele>147.7</ele>
        <time>2021-05-23T07:04:09Z</time>
      </trkpt>
      <trkpt lat="42.6520500" lon="-8.6457430">
        <ele>147.8</ele>
        <time>2021-05-23T07:04:10Z</time>
      </trkpt>
      <trkpt lat="42.6520560" lon="-8.6457380">
        <ele>147.8</ele>
        <time>2021-05-23T07:04:11Z</time>
      </trkpt>
      <trkpt lat="42.6520630" lon="-8.6457340">
        <ele>147.8</ele>
        <time>2021-05-23T07:04:12Z</time>
      </trkpt>
      <trkpt lat="42.6520870" lon="-8.6457120">
        <ele>147.9</ele>
        <time>2021-05-23T07:04:13Z</time>
      </trkpt>
      <trkpt lat="42.6520920" lon="-8.6457040">
        <ele>147.9</ele>
        <time>2021-05-23T07:04:14Z</time>
      </trkpt>
      <trkpt lat="42.6520960" lon="-8.6456970">
        <ele>147.9</ele>
        <time>2021-05-23T07:04:15Z</time>
      </trkpt>
      <trkpt lat="42.6521080" lon="-8.6456900">
        <ele>147.9</ele>
        <time>2021-05-23T07:04:16Z</time>
      </trkpt>
      <trkpt lat="42.6521240" lon="-8.6456820">
        <ele>148.0</ele>
        <time>2021-05-23T07:04:17Z</time>
      </trkpt>
      <trkpt lat="42.6521350" lon="-8.6456730">
        <ele>148.0</ele>
        <time>2021-05-23T07:04:18Z</time>
      </trkpt>
      <trkpt lat="42.6521490" lon="-8.6456660">
        <ele>148.0</ele>
        <time>2021-05-23T07:04:19Z</time>
      </trkpt>
      <trkpt lat="42.6521650" lon="-8.6456580">
        <ele>148.1</ele>
        <time>2021-05-23T07:04:20Z</time>
      </trkpt>
      <trkpt lat="42.6521800" lon="-8.6456480">
        <ele>148.1</ele>
        <time>2021-05-23T07:04:21Z</time>
      </trkpt>
      <trkpt lat="42.6521930" lon="-8.6456320">
        <ele>148.1</ele>
        <time>2021-05-23T07:04:22Z</time>
      </trkpt>
      <trkpt lat="42.6522100" lon="-8.6456240">
        <ele>148.2</ele>
        <time>2021-05-23T07:04:23Z</time>
      </trkpt>
      <trkpt lat="42.6522330" lon="-8.6456120">
        <ele>148.2</ele>
        <time>2021-05-23T07:04:24Z</time>
      </trkpt>
      <trkpt lat="42.6522410" lon="-8.6456050">
        <ele>148.2</ele>
        <time>2021-05-23T07:04:25Z</time>
      </trkpt>
      <trkpt lat="42.6522490" lon="-8.6455990">
        <ele>148.3</ele>
        <time>2021-05-23T07:04:26Z</time>
      </trkpt>
      <trkpt lat="42.6522510" lon="-8.6455910">
        <ele>148.3</ele>
        <time>2021-05-23T07:04:27Z</time>
      </trkpt>
      <trkpt lat="42.6522570" lon="-8.6455850">
        <ele>148.3</ele>
        <time>2021-05-23T07:04:28Z</time>
      </trkpt>
      <trkpt lat="42.6522750" lon="-8.6455730">
        <ele>148.3</ele>
        <time>2021-05-23T07:04:29Z</time>
      </trkpt>
      <trkpt lat="42.6522850" lon="-8.6455670">
        <ele>148.3</ele>
        <time>2021-05-23T07:04:30Z</time>
      </trkpt>
      <trkpt lat="42.6522940" lon="-8.6455560">
        <ele>148.4</ele>
        <time>2021-05-23T07:04:31Z</time>
      </trkpt>
      <trkpt lat="42.6523070" lon="-8.6455530">
        <ele>148.5</ele>
        <time>2021-05-23T07:04:32Z</time>
      </trkpt>
      <trkpt lat="42.6523090" lon="-8.6455490">
        <ele>148.5</ele>
        <time>2021-05-23T07:04:33Z</time>
      </trkpt>
      <trkpt lat="42.6523150" lon="-8.6455420">
        <ele>148.6</ele>
        <time>2021-05-23T07:04:34Z</time>
      </trkpt>
      <trkpt lat="42.6523270" lon="-8.6455380">
        <ele>148.7</ele>
        <time>2021-05-23T07:04:35Z</time>
      </trkpt>
      <trkpt lat="42.6523380" lon="-8.6455310">
        <ele>148.8</ele>
        <time>2021-05-23T07:04:36Z</time>
      </trkpt>
      <trkpt lat="42.6523380" lon="-8.6455330">
        <ele>148.8</ele>
        <time>2021-05-23T07:04:37Z</time>
      </trkpt>
      <trkpt lat="42.6523310" lon="-8.6455350">
        <ele>148.8</ele>
        <time>2021-05-23T07:04:38Z</time>
      </trkpt>
      <trkpt lat="42.6523310" lon="-8.6455380">
        <ele>148.9</ele>
        <time>2021-05-23T07:04:39Z</time>
      </trkpt>
      <trkpt lat="42.6523250" lon="-8.6455410">
        <ele>148.9</ele>
        <time>2021-05-23T07:04:40Z</time>
      </trkpt>
      <trkpt lat="42.6523230" lon="-8.6455410">
        <ele>148.9</ele>
        <time>2021-05-23T07:04:41Z</time>
      </trkpt>
      <trkpt lat="42.6523260" lon="-8.6455380">
        <ele>148.9</ele>
        <time>2021-05-23T07:04:42Z</time>
      </trkpt>
      <trkpt lat="42.6523250" lon="-8.6455430">
        <ele>149.0</ele>
        <time>2021-05-23T07:04:43Z</time>
      </trkpt>
      <trkpt lat="42.6523210" lon="-8.6455430">
        <ele>149.0</ele>
        <time>2021-05-23T07:04:44Z</time>
      </trkpt>
      <trkpt lat="42.6523210" lon="-8.6455440">
        <ele>149.0</ele>
        <time>2021-05-23T07:04:45Z</time>
      </trkpt>
      <trkpt lat="42.6523170" lon="-8.6455450">
        <ele>149.0</ele>
        <time>2021-05-23T07:04:46Z</time>
      </trkpt>
      <trkpt lat="42.6523190" lon="-8.6455440">
        <ele>149.1</ele>
        <time>2021-05-23T07:04:47Z</time>
      </trkpt>
      <trkpt lat="42.6523180" lon="-8.6455460">
        <ele>149.1</ele>
        <time>2021-05-23T07:04:48Z</time>
      </trkpt>
      <trkpt lat="42.6523130" lon="-8.6455460">
        <ele>149.1</ele>
        <time>2021-05-23T07:04:49Z</time>
      </trkpt>
      <trkpt lat="42.6523190" lon="-8.6455480">
        <ele>149.2</ele>
        <time>2021-05-23T07:04:50Z</time>
      </trkpt>
      <trkpt lat="42.6523190" lon="-8.6455500">
        <ele>149.2</ele>
        <time>2021-05-23T07:04:51Z</time>
      </trkpt>
      <trkpt lat="42.6523210" lon="-8.6455480">
        <ele>149.2</ele>
        <time>2021-05-23T07:04:52Z</time>
      </trkpt>
      <trkpt lat="42.6523180" lon="-8.6455460">
        <ele>149.2</ele>
        <time>2021-05-23T07:04:53Z</time>
      </trkpt>
      <trkpt lat="42.6523160" lon="-8.6455460">
        <ele>149.2</ele>
        <time>2021-05-23T07:04:54Z</time>
      </trkpt>
      <trkpt lat="42.6523140" lon="-8.6455410">
        <ele>149.3</ele>
        <time>2021-05-23T07:04:55Z</time>
      </trkpt>
      <trkpt lat="42.6523120" lon="-8.6455350">
        <ele>149.3</ele>
        <time>2021-05-23T07:04:56Z</time>
      </trkpt>
      <trkpt lat="42.6523130" lon="-8.6455300">
        <ele>149.3</ele>
        <time>2021-05-23T07:04:57Z</time>
      </trkpt>
      <trkpt lat="42.6523140" lon="-8.6455270">
        <ele>149.4</ele>
        <time>2021-05-23T07:04:58Z</time>
      </trkpt>
      <trkpt lat="42.6523140" lon="-8.6455290">
        <ele>149.4</ele>
        <time>2021-05-23T07:04:59Z</time>
      </trkpt>
      <trkpt lat="42.6523140" lon="-8.6455290">
        <ele>149.4</ele>
        <time>2021-05-23T07:05:00Z</time>
      </trkpt>
      <trkpt lat="42.6523140" lon="-8.6455280">
        <ele>149.4</ele>
        <time>2021-05-23T07:05:01Z</time>
      </trkpt>
      <trkpt lat="42.6523130" lon="-8.6455310">
        <ele>149.4</ele>
        <time>2021-05-23T07:05:02Z</time>
      </trkpt>
      <trkpt lat="42.6523100" lon="-8.6455320">
        <ele>149.4</ele>
        <time>2021-05-23T07:05:03Z</time>
      </trkpt>
      <trkpt lat="42.6523090" lon="-8.6455320">
        <ele>149.4</ele>
        <time>2021-05-23T07:05:04Z</time>
      </trkpt>
      <trkpt lat="42.6523060" lon="-8.6455270">
        <ele>149.5</ele>
        <time>2021-05-23T07:05:05Z</time>
      </trkpt>
      <trkpt lat="42.6523000" lon="-8.6455270">
        <ele>149.5</ele>
        <time>2021-05-23T07:05:06Z</time>
      </trkpt>
      <trkpt lat="42.6522960" lon="-8.6455300">
        <ele>149.6</ele>
        <time>2021-05-23T07:05:07Z</time>
      </trkpt>
      <trkpt lat="42.6522980" lon="-8.6455290">
        <ele>149.6</ele>
        <time>2021-05-23T07:05:08Z</time>
      </trkpt>
      <trkpt lat="42.6523000" lon="-8.6455260">
        <ele>149.6</ele>
        <time>2021-05-23T07:05:09Z</time>
      </trkpt>
      <trkpt lat="42.6523000" lon="-8.6455230">
        <ele>149.6</ele>
        <time>2021-05-23T07:05:11Z</time>
      </trkpt>
      <trkpt lat="42.6523020" lon="-8.6455230">
        <ele>149.6</ele>
        <time>2021-05-23T07:05:12Z</time>
      </trkpt>
      <trkpt lat="42.6523010" lon="-8.6455240">
        <ele>149.7</ele>
        <time>2021-05-23T07:05:13Z</time>
      </trkpt>
      <trkpt lat="42.6522990" lon="-8.6455230">
        <ele>149.7</ele>
        <time>2021-05-23T07:05:14Z</time>
      </trkpt>
      <trkpt lat="42.6522980" lon="-8.6455240">
        <ele>149.7</ele>
        <time>2021-05-23T07:05:15Z</time>
      </trkpt>
      <trkpt lat="42.6523010" lon="-8.6455250">
        <ele>149.7</ele>
        <time>2021-05-23T07:05:16Z</time>
      </trkpt>
      <trkpt lat="42.6523040" lon="-8.6455230">
        <ele>149.7</ele>
        <time>2021-05-23T07:05:17Z</time>
      </trkpt>
      <trkpt lat="42.6522990" lon="-8.6455140">
        <ele>149.8</ele>
        <time>2021-05-23T07:05:18Z</time>
      </trkpt>
      <trkpt lat="42.6522960" lon="-8.6455090">
        <ele>149.9</ele>
        <time>2021-05-23T07:05:19Z</time>
      </trkpt>
      <trkpt lat="42.6522750" lon="-8.6454950">
        <ele>150.1</ele>
        <time>2021-05-23T07:05:20Z</time>
      </trkpt>
      <trkpt lat="42.6522700" lon="-8.6454920">
        <ele>150.1</ele>
        <time>2021-05-23T07:05:21Z</time>
      </trkpt>
      <trkpt lat="42.6522670" lon="-8.6454890">
        <ele>150.2</ele>
        <time>2021-05-23T07:05:22Z</time>
      </trkpt>
      <trkpt lat="42.6522730" lon="-8.6454910">
        <ele>150.2</ele>
        <time>2021-05-23T07:05:23Z</time>
      </trkpt>
      <trkpt lat="42.6522730" lon="-8.6454910">
        <ele>150.2</ele>
        <time>2021-05-23T07:05:24Z</time>
      </trkpt>
      <trkpt lat="42.6522740" lon="-8.6454890">
        <ele>150.2</ele>
        <time>2021-05-23T07:05:25Z</time>
      </trkpt>
      <trkpt lat="42.6522750" lon="-8.6454880">
        <ele>150.2</ele>
        <time>2021-05-23T07:05:26Z</time>
      </trkpt>
      <trkpt lat="42.6522750" lon="-8.6454890">
        <ele>150.2</ele>
        <time>2021-05-23T07:05:27Z</time>
      </trkpt>
      <trkpt lat="42.6522720" lon="-8.6454880">
        <ele>150.3</ele>
        <time>2021-05-23T07:05:28Z</time>
      </trkpt>
      <trkpt lat="42.6522710" lon="-8.6454920">
        <ele>150.3</ele>
        <time>2021-05-23T07:05:29Z</time>
      </trkpt>
      <trkpt lat="42.6522730" lon="-8.6454960">
        <ele>150.3</ele>
        <time>2021-05-23T07:05:30Z</time>
      </trkpt>
      <trkpt lat="42.6522730" lon="-8.6454990">
        <ele>150.4</ele>
        <time>2021-05-23T07:05:31Z</time>
      </trkpt>
      <trkpt lat="42.6522760" lon="-8.6455020">
        <ele>150.4</ele>
        <time>2021-05-23T07:05:32Z</time>
      </trkpt>
      <trkpt lat="42.6522790" lon="-8.6455030">
        <ele>150.4</ele>
        <time>2021-05-23T07:05:33Z</time>
      </trkpt>
      <trkpt lat="42.6522820" lon="-8.6455030">
        <ele>150.5</ele>
        <time>2021-05-23T07:05:34Z</time>
      </trkpt>
      <trkpt lat="42.6522820" lon="-8.6455080">
        <ele>150.5</ele>
        <time>2021-05-23T07:05:35Z</time>
      </trkpt>
      <trkpt lat="42.6522840" lon="-8.6455080">
        <ele>150.5</ele>
        <time>2021-05-23T07:05:36Z</time>
      </trkpt>
      <trkpt lat="42.6522870" lon="-8.6455070">
        <ele>150.5</ele>
        <time>2021-05-23T07:05:37Z</time>
      </trkpt>
      <trkpt lat="42.6522900" lon="-8.6455070">
        <ele>150.6</ele>
        <time>2021-05-23T07:05:38Z</time>
      </trkpt>
      <trkpt lat="42.6522930" lon="-8.6455060">
        <ele>150.6</ele>
        <time>2021-05-23T07:05:39Z</time>
      </trkpt>
      <trkpt lat="42.6522970" lon="-8.6455110">
        <ele>150.7</ele>
        <time>2021-05-23T07:05:40Z</time>
      </trkpt>
      <trkpt lat="42.6523000" lon="-8.6455110">
        <ele>150.7</ele>
        <time>2021-05-23T07:05:41Z</time>
      </trkpt>
      <trkpt lat="42.6523230" lon="-8.6455190">
        <ele>150.9</ele>
        <time>2021-05-23T07:05:42Z</time>
      </trkpt>
      <trkpt lat="42.6523300" lon="-8.6455150">
        <ele>151.0</ele>
        <time>2021-05-23T07:05:43Z</time>
      </trkpt>
      <trkpt lat="42.6523370" lon="-8.6455120">
        <ele>151.1</ele>
        <time>2021-05-23T07:05:44Z</time>
      </trkpt>
      <trkpt lat="42.6523500" lon="-8.6455160">
        <ele>151.2</ele>
        <time>2021-05-23T07:05:45Z</time>
      </trkpt>
      <trkpt lat="42.6523570" lon="-8.6455080">
        <ele>151.3</ele>
        <time>2021-05-23T07:05:46Z</time>
      </trkpt>
      <trkpt lat="42.6523680" lon="-8.6455080">
        <ele>151.4</ele>
        <time>2021-05-23T07:05:47Z</time>
      </trkpt>
      <trkpt lat="42.6523790" lon="-8.6454990">
        <ele>151.5</ele>
        <time>2021-05-23T07:05:48Z</time>
      </trkpt>
      <trkpt lat="42.6523890" lon="-8.6454960">
        <ele>151.6</ele>
        <time>2021-05-23T07:05:49Z</time>
      </trkpt>
      <trkpt lat="42.6524030" lon="-8.6454960">
        <ele>151.8</ele>
        <time>2021-05-23T07:05:50Z</time>
      </trkpt>
      <trkpt lat="42.6524130" lon="-8.6454890">
        <ele>151.9</ele>
        <time>2021-05-23T07:05:51Z</time>
      </trkpt>
      <trkpt lat="42.6524220" lon="-8.6454780">
        <ele>152.0</ele>
        <time>2021-05-23T07:05:52Z</time>
      </trkpt>
      <trkpt lat="42.6524330" lon="-8.6454730">
        <ele>152.1</ele>
        <time>2021-05-23T07:05:53Z</time>
      </trkpt>
      <trkpt lat="42.6524440" lon="-8.6454630">
        <ele>152.2</ele>
        <time>2021-05-23T07:05:54Z</time>
      </trkpt>
      <trkpt lat="42.6524510" lon="-8.6454480">
        <ele>152.4</ele>
        <time>2021-05-23T07:05:55Z</time>
      </trkpt>
      <trkpt lat="42.6524570" lon="-8.6454370">
        <ele>152.5</ele>
        <time>2021-05-23T07:05:56Z</time>
      </trkpt>
      <trkpt lat="42.6524680" lon="-8.6454250">
        <ele>152.6</ele>
        <time>2021-05-23T07:05:57Z</time>
      </trkpt>
      <trkpt lat="42.6524770" lon="-8.6454180">
        <ele>152.7</ele>
        <time>2021-05-23T07:05:58Z</time>
      </trkpt>
      <trkpt lat="42.6524770" lon="-8.6454180">
        <ele>152.7</ele>
        <time>2021-05-23T07:05:59Z</time>
      </trkpt>
      <trkpt lat="42.6524820" lon="-8.6454180">
        <ele>152.8</ele>
        <time>2021-05-23T07:06:00Z</time>
      </trkpt>
      <trkpt lat="42.6524810" lon="-8.6454180">
        <ele>152.8</ele>
        <time>2021-05-23T07:06:01Z</time>
      </trkpt>
      <trkpt lat="42.6524830" lon="-8.6454180">
        <ele>152.8</ele>
        <time>2021-05-23T07:06:02Z</time>
      </trkpt>
      <trkpt lat="42.6524890" lon="-8.6454190">
        <ele>152.8</ele>
        <time>2021-05-23T07:06:03Z</time>
      </trkpt>
      <trkpt lat="42.6524890" lon="-8.6454200">
        <ele>152.8</ele>
        <time>2021-05-23T07:06:04Z</time>
      </trkpt>
      <trkpt lat="42.6524910" lon="-8.6454170">
        <ele>152.9</ele>
        <time>2021-05-23T07:06:05Z</time>
      </trkpt>
      <trkpt lat="42.6524930" lon="-8.6454170">
        <ele>152.9</ele>
        <time>2021-05-23T07:06:06Z</time>
      </trkpt>
      <trkpt lat="42.6525000" lon="-8.6454140">
        <ele>153.0</ele>
        <time>2021-05-23T07:06:07Z</time>
      </trkpt>
      <trkpt lat="42.6525040" lon="-8.6454170">
        <ele>153.0</ele>
        <time>2021-05-23T07:06:08Z</time>
      </trkpt>
      <trkpt lat="42.6525100" lon="-8.6454200">
        <ele>153.1</ele>
        <time>2021-05-23T07:06:09Z</time>
      </trkpt>
      <trkpt lat="42.6525170" lon="-8.6454160">
        <ele>153.1</ele>
        <time>2021-05-23T07:06:10Z</time>
      </trkpt>
      <trkpt lat="42.6525190" lon="-8.6454150">
        <ele>153.1</ele>
        <time>2021-05-23T07:06:11Z</time>
      </trkpt>
      <trkpt lat="42.6525230" lon="-8.6454090">
        <ele>153.2</ele>
        <time>2021-05-23T07:06:12Z</time>
      </trkpt>
      <trkpt lat="42.6525250" lon="-8.6454010">
        <ele>153.2</ele>
        <time>2021-05-23T07:06:13Z</time>
      </trkpt>
      <trkpt lat="42.6525300" lon="-8.6453830">
        <ele>153.4</ele>
        <time>2021-05-23T07:06:14Z</time>
      </trkpt>
      <trkpt lat="42.6525460" lon="-8.6453650">
        <ele>153.5</ele>
        <time>2021-05-23T07:06:15Z</time>
      </trkpt>
      <trkpt lat="42.6525530" lon="-8.6453540">
        <ele>153.6</ele>
        <time>2021-05-23T07:06:16Z</time>
      </trkpt>
      <trkpt lat="42.6525610" lon="-8.6453430">
        <ele>153.7</ele>
        <time>2021-05-23T07:06:17Z</time>
      </trkpt>
      <trkpt lat="42.6525750" lon="-8.6453260">
        <ele>153.8</ele>
        <time>2021-05-23T07:06:18Z</time>
      </trkpt>
      <trkpt lat="42.6525870" lon="-8.6453140">
        <ele>153.9</ele>
        <time>2021-05-23T07:06:19Z</time>
      </trkpt>
      <trkpt lat="42.6526000" lon="-8.6453100">
        <ele>154.0</ele>
        <time>2021-05-23T07:06:20Z</time>
      </trkpt>
      <trkpt lat="42.6526090" lon="-8.6452990">
        <ele>154.1</ele>
        <time>2021-05-23T07:06:21Z</time>
      </trkpt>
      <trkpt lat="42.6526170" lon="-8.6452900">
        <ele>154.2</ele>
        <time>2021-05-23T07:06:22Z</time>
      </trkpt>
      <trkpt lat="42.6526300" lon="-8.6452830">
        <ele>154.3</ele>
        <time>2021-05-23T07:06:23Z</time>
      </trkpt>
      <trkpt lat="42.6526430" lon="-8.6452680">
        <ele>154.4</ele>
        <time>2021-05-23T07:06:24Z</time>
      </trkpt>
      <trkpt lat="42.6526650" lon="-8.6452520">
        <ele>154.6</ele>
        <time>2021-05-23T07:06:25Z</time>
      </trkpt>
      <trkpt lat="42.6526760" lon="-8.6452460">
        <ele>154.7</ele>
        <time>2021-05-23T07:06:26Z</time>
      </trkpt>
      <trkpt lat="42.6526870" lon="-8.6452390">
        <ele>154.7</ele>
        <time>2021-05-23T07:06:27Z</time>
      </trkpt>
      <trkpt lat="42.6526950" lon="-8.6452290">
        <ele>154.8</ele>
        <time>2021-05-23T07:06:28Z</time>
      </trkpt>
      <trkpt lat="42.6527030" lon="-8.6452230">
        <ele>154.9</ele>
        <time>2021-05-23T07:06:29Z</time>
      </trkpt>
      <trkpt lat="42.6527110" lon="-8.6452160">
        <ele>154.9</ele>
        <time>2021-05-23T07:06:30Z</time>
      </trkpt>
      <trkpt lat="42.6527190" lon="-8.6452100">
        <ele>155.0</ele>
        <time>2021-05-23T07:06:31Z</time>
      </trkpt>
      <trkpt lat="42.6527330" lon="-8.6452000">
        <ele>155.1</ele>
        <time>2021-05-23T07:06:32Z</time>
      </trkpt>
      <trkpt lat="42.6527430" lon="-8.6451910">
        <ele>155.1</ele>
        <time>2021-05-23T07:06:33Z</time>
      </trkpt>
      <trkpt lat="42.6527610" lon="-8.6451720">
        <ele>155.3</ele>
        <time>2021-05-23T07:06:34Z</time>
      </trkpt>
      <trkpt lat="42.6527690" lon="-8.6451660">
        <ele>155.3</ele>
        <time>2021-05-23T07:06:35Z</time>
      </trkpt>
      <trkpt lat="42.6527770" lon="-8.6451610">
        <ele>155.4</ele>
        <time>2021-05-23T07:06:36Z</time>
      </trkpt>
      <trkpt lat="42.6527950" lon="-8.6451480">
        <ele>155.5</ele>
        <time>2021-05-23T07:06:37Z</time>
      </trkpt>
      <trkpt lat="42.6528020" lon="-8.6451410">
        <ele>155.6</ele>
        <time>2021-05-23T07:06:38Z</time>
      </trkpt>
      <trkpt lat="42.6528080" lon="-8.6451340">
        <ele>155.6</ele>
        <time>2021-05-23T07:06:39Z</time>
      </trkpt>
      <trkpt lat="42.6528250" lon="-8.6451170">
        <ele>155.8</ele>
        <time>2021-05-23T07:06:40Z</time>
      </trkpt>
      <trkpt lat="42.6528310" lon="-8.6451100">
        <ele>155.8</ele>
        <time>2021-05-23T07:06:41Z</time>
      </trkpt>
      <trkpt lat="42.6528380" lon="-8.6451040">
        <ele>155.9</ele>
        <time>2021-05-23T07:06:42Z</time>
      </trkpt>
      <trkpt lat="42.6528460" lon="-8.6450970">
        <ele>155.9</ele>
        <time>2021-05-23T07:06:43Z</time>
      </trkpt>
      <trkpt lat="42.6528570" lon="-8.6450880">
        <ele>156.0</ele>
        <time>2021-05-23T07:06:44Z</time>
      </trkpt>
      <trkpt lat="42.6528670" lon="-8.6450850">
        <ele>156.1</ele>
        <time>2021-05-23T07:06:45Z</time>
      </trkpt>
      <trkpt lat="42.6528820" lon="-8.6450740">
        <ele>156.2</ele>
        <time>2021-05-23T07:06:46Z</time>
      </trkpt>
      <trkpt lat="42.6528860" lon="-8.6450700">
        <ele>156.2</ele>
        <time>2021-05-23T07:06:47Z</time>
      </trkpt>
      <trkpt lat="42.6528980" lon="-8.6450650">
        <ele>156.3</ele>
        <time>2021-05-23T07:06:48Z</time>
      </trkpt>
      <trkpt lat="42.6529060" lon="-8.6450620">
        <ele>156.3</ele>
        <time>2021-05-23T07:06:49Z</time>
      </trkpt>
      <trkpt lat="42.6529190" lon="-8.6450650">
        <ele>156.4</ele>
        <time>2021-05-23T07:06:50Z</time>
      </trkpt>
      <trkpt lat="42.6529340" lon="-8.6450570">
        <ele>156.5</ele>
        <time>2021-05-23T07:06:51Z</time>
      </trkpt>
      <trkpt lat="42.6529400" lon="-8.6450540">
        <ele>156.6</ele>
        <time>2021-05-23T07:06:52Z</time>
      </trkpt>
      <trkpt lat="42.6529490" lon="-8.6450490">
        <ele>156.6</ele>
        <time>2021-05-23T07:06:53Z</time>
      </trkpt>
      <trkpt lat="42.6529630" lon="-8.6450430">
        <ele>156.7</ele>
        <time>2021-05-23T07:06:54Z</time>
      </trkpt>
      <trkpt lat="42.6529780" lon="-8.6450270">
        <ele>156.9</ele>
        <time>2021-05-23T07:06:55Z</time>
      </trkpt>
      <trkpt lat="42.6529880" lon="-8.6450210">
        <ele>156.9</ele>
        <time>2021-05-23T07:06:56Z</time>
      </trkpt>
      <trkpt lat="42.6530060" lon="-8.6450100">
        <ele>157.1</ele>
        <time>2021-05-23T07:06:57Z</time>
      </trkpt>
      <trkpt lat="42.6530110" lon="-8.6450070">
        <ele>157.1</ele>
        <time>2021-05-23T07:06:58Z</time>
      </trkpt>
      <trkpt lat="42.6530180" lon="-8.6450040">
        <ele>157.2</ele>
        <time>2021-05-23T07:06:59Z</time>
      </trkpt>
      <trkpt lat="42.6530370" lon="-8.6449860">
        <ele>157.3</ele>
        <time>2021-05-23T07:07:00Z</time>
      </trkpt>
      <trkpt lat="42.6530440" lon="-8.6449790">
        <ele>157.4</ele>
        <time>2021-05-23T07:07:01Z</time>
      </trkpt>
      <trkpt lat="42.6530500" lon="-8.6449730">
        <ele>157.4</ele>
        <time>2021-05-23T07:07:02Z</time>
      </trkpt>
      <trkpt lat="42.6530680" lon="-8.6449540">
        <ele>157.6</ele>
        <time>2021-05-23T07:07:03Z</time>
      </trkpt>
      <trkpt lat="42.6530750" lon="-8.6449490">
        <ele>157.6</ele>
        <time>2021-05-23T07:07:04Z</time>
      </trkpt>
      <trkpt lat="42.6530830" lon="-8.6449430">
        <ele>157.7</ele>
        <time>2021-05-23T07:07:05Z</time>
      </trkpt>
      <trkpt lat="42.6531020" lon="-8.6449220">
        <ele>157.8</ele>
        <time>2021-05-23T07:07:06Z</time>
      </trkpt>
      <trkpt lat="42.6531100" lon="-8.6449150">
        <ele>157.9</ele>
        <time>2021-05-23T07:07:07Z</time>
      </trkpt>
      <trkpt lat="42.6531170" lon="-8.6449080">
        <ele>158.0</ele>
        <time>2021-05-23T07:07:08Z</time>
      </trkpt>
      <trkpt lat="42.6531280" lon="-8.6448990">
        <ele>158.0</ele>
        <time>2021-05-23T07:07:09Z</time>
      </trkpt>
      <trkpt lat="42.6531390" lon="-8.6448850">
        <ele>158.1</ele>
        <time>2021-05-23T07:07:10Z</time>
      </trkpt>
      <trkpt lat="42.6531580" lon="-8.6448740">
        <ele>158.2</ele>
        <time>2021-05-23T07:07:11Z</time>
      </trkpt>
      <trkpt lat="42.6531660" lon="-8.6448680">
        <ele>158.3</ele>
        <time>2021-05-23T07:07:12Z</time>
      </trkpt>
      <trkpt lat="42.6531740" lon="-8.6448630">
        <ele>158.3</ele>
        <time>2021-05-23T07:07:13Z</time>
      </trkpt>
      <trkpt lat="42.6531800" lon="-8.6448560">
        <ele>158.4</ele>
        <time>2021-05-23T07:07:14Z</time>
      </trkpt>
      <trkpt lat="42.6531910" lon="-8.6448530">
        <ele>158.4</ele>
        <time>2021-05-23T07:07:15Z</time>
      </trkpt>
      <trkpt lat="42.6532040" lon="-8.6448470">
        <ele>158.5</ele>
        <time>2021-05-23T07:07:16Z</time>
      </trkpt>
      <trkpt lat="42.6532140" lon="-8.6448390">
        <ele>158.5</ele>
        <time>2021-05-23T07:07:17Z</time>
      </trkpt>
      <trkpt lat="42.6532240" lon="-8.6448350">
        <ele>158.6</ele>
        <time>2021-05-23T07:07:18Z</time>
      </trkpt>
      <trkpt lat="42.6532330" lon="-8.6448220">
        <ele>158.6</ele>
        <time>2021-05-23T07:07:19Z</time>
      </trkpt>
      <trkpt lat="42.6532500" lon="-8.6448090">
        <ele>158.7</ele>
        <time>2021-05-23T07:07:20Z</time>
      </trkpt>
      <trkpt lat="42.6532590" lon="-8.6448040">
        <ele>158.8</ele>
        <time>2021-05-23T07:07:21Z</time>
      </trkpt>
      <trkpt lat="42.6532670" lon="-8.6448000">
        <ele>158.8</ele>
        <time>2021-05-23T07:07:22Z</time>
      </trkpt>
      <trkpt lat="42.6532700" lon="-8.6447930">
        <ele>158.8</ele>
        <time>2021-05-23T07:07:23Z</time>
      </trkpt>
      <trkpt lat="42.6532760" lon="-8.6447910">
        <ele>158.8</ele>
        <time>2021-05-23T07:07:24Z</time>
      </trkpt>
      <trkpt lat="42.6532880" lon="-8.6447750">
        <ele>158.9</ele>
        <time>2021-05-23T07:07:25Z</time>
      </trkpt>
      <trkpt lat="42.6533010" lon="-8.6447690">
        <ele>158.9</ele>
        <time>2021-05-23T07:07:26Z</time>
      </trkpt>
      <trkpt lat="42.6533140" lon="-8.6447650">
        <ele>159.0</ele>
        <time>2021-05-23T07:07:27Z</time>
      </trkpt>
      <trkpt lat="42.6533360" lon="-8.6447560">
        <ele>159.1</ele>
        <time>2021-05-23T07:07:28Z</time>
      </trkpt>
      <trkpt lat="42.6533450" lon="-8.6447510">
        <ele>159.1</ele>
        <time>2021-05-23T07:07:29Z</time>
      </trkpt>
      <trkpt lat="42.6533530" lon="-8.6447460">
        <ele>159.1</ele>
        <time>2021-05-23T07:07:30Z</time>
      </trkpt>
      <trkpt lat="42.6533620" lon="-8.6447360">
        <ele>159.2</ele>
        <time>2021-05-23T07:07:31Z</time>
      </trkpt>
      <trkpt lat="42.6533710" lon="-8.6447230">
        <ele>159.2</ele>
        <time>2021-05-23T07:07:32Z</time>
      </trkpt>
      <trkpt lat="42.6533800" lon="-8.6447160">
        <ele>159.3</ele>
        <time>2021-05-23T07:07:33Z</time>
      </trkpt>
      <trkpt lat="42.6533980" lon="-8.6447040">
        <ele>159.3</ele>
        <time>2021-05-23T07:07:34Z</time>
      </trkpt>
      <trkpt lat="42.6534070" lon="-8.6446970">
        <ele>159.4</ele>
        <time>2021-05-23T07:07:35Z</time>
      </trkpt>
      <trkpt lat="42.6534150" lon="-8.6446910">
        <ele>159.4</ele>
        <time>2021-05-23T07:07:36Z</time>
      </trkpt>
      <trkpt lat="42.6534260" lon="-8.6446910">
        <ele>159.5</ele>
        <time>2021-05-23T07:07:37Z</time>
      </trkpt>
      <trkpt lat="42.6534360" lon="-8.6446770">
        <ele>159.5</ele>
        <time>2021-05-23T07:07:38Z</time>
      </trkpt>
      <trkpt lat="42.6534450" lon="-8.6446650">
        <ele>159.6</ele>
        <time>2021-05-23T07:07:39Z</time>
      </trkpt>
      <trkpt lat="42.6534520" lon="-8.6446450">
        <ele>159.6</ele>
        <time>2021-05-23T07:07:40Z</time>
      </trkpt>
      <trkpt lat="42.6534630" lon="-8.6446340">
        <ele>159.7</ele>
        <time>2021-05-23T07:07:41Z</time>
      </trkpt>
      <trkpt lat="42.6534810" lon="-8.6446190">
        <ele>159.7</ele>
        <time>2021-05-23T07:07:42Z</time>
      </trkpt>
      <trkpt lat="42.6534910" lon="-8.6446110">
        <ele>159.8</ele>
        <time>2021-05-23T07:07:43Z</time>
      </trkpt>
      <trkpt lat="42.6535000" lon="-8.6446040">
        <ele>159.8</ele>
        <time>2021-05-23T07:07:44Z</time>
      </trkpt>
      <trkpt lat="42.6535100" lon="-8.6445900">
        <ele>159.9</ele>
        <time>2021-05-23T07:07:45Z</time>
      </trkpt>
      <trkpt lat="42.6535150" lon="-8.6445770">
        <ele>159.9</ele>
        <time>2021-05-23T07:07:46Z</time>
      </trkpt>
      <trkpt lat="42.6535220" lon="-8.6445660">
        <ele>160.0</ele>
        <time>2021-05-23T07:07:47Z</time>
      </trkpt>
      <trkpt lat="42.6535340" lon="-8.6445510">
        <ele>160.0</ele>
        <time>2021-05-23T07:07:48Z</time>
      </trkpt>
      <trkpt lat="42.6535390" lon="-8.6445430">
        <ele>160.1</ele>
        <time>2021-05-23T07:07:49Z</time>
      </trkpt>
      <trkpt lat="42.6535450" lon="-8.6445340">
        <ele>160.1</ele>
        <time>2021-05-23T07:07:50Z</time>
      </trkpt>
      <trkpt lat="42.6535500" lon="-8.6445250">
        <ele>160.1</ele>
        <time>2021-05-23T07:07:51Z</time>
      </trkpt>
      <trkpt lat="42.6535720" lon="-8.6444980">
        <ele>160.2</ele>
        <time>2021-05-23T07:07:52Z</time>
      </trkpt>
      <trkpt lat="42.6535770" lon="-8.6444910">
        <ele>160.3</ele>
        <time>2021-05-23T07:07:53Z</time>
      </trkpt>
      <trkpt lat="42.6535950" lon="-8.6444750">
        <ele>160.4</ele>
        <time>2021-05-23T07:07:54Z</time>
      </trkpt>
      <trkpt lat="42.6536010" lon="-8.6444680">
        <ele>160.4</ele>
        <time>2021-05-23T07:07:55Z</time>
      </trkpt>
      <trkpt lat="42.6536060" lon="-8.6444600">
        <ele>160.4</ele>
        <time>2021-05-23T07:07:56Z</time>
      </trkpt>
      <trkpt lat="42.6536150" lon="-8.6444420">
        <ele>160.5</ele>
        <time>2021-05-23T07:07:57Z</time>
      </trkpt>
      <trkpt lat="42.6536210" lon="-8.6444220">
        <ele>160.6</ele>
        <time>2021-05-23T07:07:58Z</time>
      </trkpt>
      <trkpt lat="42.6536300" lon="-8.6444090">
        <ele>160.6</ele>
        <time>2021-05-23T07:07:59Z</time>
      </trkpt>
      <trkpt lat="42.6536440" lon="-8.6444000">
        <ele>160.7</ele>
        <time>2021-05-23T07:08:00Z</time>
      </trkpt>
      <trkpt lat="42.6536570" lon="-8.6443800">
        <ele>160.8</ele>
        <time>2021-05-23T07:08:01Z</time>
      </trkpt>
      <trkpt lat="42.6536620" lon="-8.6443690">
        <ele>160.8</ele>
        <time>2021-05-23T07:08:02Z</time>
      </trkpt>
      <trkpt lat="42.6536660" lon="-8.6443590">
        <ele>160.9</ele>
        <time>2021-05-23T07:08:03Z</time>
      </trkpt>
      <trkpt lat="42.6536810" lon="-8.6443340">
        <ele>161.0</ele>
        <time>2021-05-23T07:08:04Z</time>
      </trkpt>
      <trkpt lat="42.6536860" lon="-8.6443240">
        <ele>161.0</ele>
        <time>2021-05-23T07:08:05Z</time>
      </trkpt>
      <trkpt lat="42.6536910" lon="-8.6443130">
        <ele>161.1</ele>
        <time>2021-05-23T07:08:06Z</time>
      </trkpt>
      <trkpt lat="42.6537090" lon="-8.6442880">
        <ele>161.2</ele>
        <time>2021-05-23T07:08:07Z</time>
      </trkpt>
      <trkpt lat="42.6537160" lon="-8.6442790">
        <ele>161.3</ele>
        <time>2021-05-23T07:08:08Z</time>
      </trkpt>
      <trkpt lat="42.6537230" lon="-8.6442700">
        <ele>161.3</ele>
        <time>2021-05-23T07:08:09Z</time>
      </trkpt>
      <trkpt lat="42.6537400" lon="-8.6442490">
        <ele>161.5</ele>
        <time>2021-05-23T07:08:10Z</time>
      </trkpt>
      <trkpt lat="42.6537480" lon="-8.6442400">
        <ele>161.5</ele>
        <time>2021-05-23T07:08:11Z</time>
      </trkpt>
      <trkpt lat="42.6537560" lon="-8.6442320">
        <ele>161.6</ele>
        <time>2021-05-23T07:08:12Z</time>
      </trkpt>
      <trkpt lat="42.6537720" lon="-8.6442340">
        <ele>161.7</ele>
        <time>2021-05-23T07:08:13Z</time>
      </trkpt>
      <trkpt lat="42.6537830" lon="-8.6442290">
        <ele>161.7</ele>
        <time>2021-05-23T07:08:14Z</time>
      </trkpt>
      <trkpt lat="42.6538000" lon="-8.6442320">
        <ele>161.8</ele>
        <time>2021-05-23T07:08:15Z</time>
      </trkpt>
      <trkpt lat="42.6538120" lon="-8.6442390">
        <ele>161.9</ele>
        <time>2021-05-23T07:08:16Z</time>
      </trkpt>
      <trkpt lat="42.6538140" lon="-8.6442470">
        <ele>161.9</ele>
        <time>2021-05-23T07:08:17Z</time>
      </trkpt>
      <trkpt lat="42.6538210" lon="-8.6442450">
        <ele>162.0</ele>
        <time>2021-05-23T07:08:18Z</time>
      </trkpt>
      <trkpt lat="42.6538270" lon="-8.6442490">
        <ele>162.0</ele>
        <time>2021-05-23T07:08:19Z</time>
      </trkpt>
      <trkpt lat="42.6538320" lon="-8.6442470">
        <ele>162.0</ele>
        <time>2021-05-23T07:08:20Z</time>
      </trkpt>
      <trkpt lat="42.6538410" lon="-8.6442510">
        <ele>162.1</ele>
        <time>2021-05-23T07:08:21Z</time>
      </trkpt>
      <trkpt lat="42.6538510" lon="-8.6442520">
        <ele>162.2</ele>
        <time>2021-05-23T07:08:22Z</time>
      </trkpt>
      <trkpt lat="42.6538600" lon="-8.6442580">
        <ele>162.2</ele>
        <time>2021-05-23T07:08:23Z</time>
      </trkpt>
      <trkpt lat="42.6538720" lon="-8.6442600">
        <ele>162.3</ele>
        <time>2021-05-23T07:08:24Z</time>
      </trkpt>
      <trkpt lat="42.6538850" lon="-8.6442680">
        <ele>162.4</ele>
        <time>2021-05-23T07:08:25Z</time>
      </trkpt>
      <trkpt lat="42.6538920" lon="-8.6442710">
        <ele>162.4</ele>
        <time>2021-05-23T07:08:26Z</time>
      </trkpt>
      <trkpt lat="42.6538960" lon="-8.6442670">
        <ele>162.4</ele>
        <time>2021-05-23T07:08:27Z</time>
      </trkpt>
      <trkpt lat="42.6539020" lon="-8.6442630">
        <ele>162.5</ele>
        <time>2021-05-23T07:08:28Z</time>
      </trkpt>
      <trkpt lat="42.6539330" lon="-8.6442660">
        <ele>162.6</ele>
        <time>2021-05-23T07:08:29Z</time>
      </trkpt>
      <trkpt lat="42.6539450" lon="-8.6442690">
        <ele>162.7</ele>
        <time>2021-05-23T07:08:30Z</time>
      </trkpt>
      <trkpt lat="42.6539490" lon="-8.6442740">
        <ele>162.7</ele>
        <time>2021-05-23T07:08:31Z</time>
      </trkpt>
      <trkpt lat="42.6539600" lon="-8.6442770">
        <ele>162.8</ele>
        <time>2021-05-23T07:08:32Z</time>
      </trkpt>
      <trkpt lat="42.6539720" lon="-8.6442780">
        <ele>162.8</ele>
        <time>2021-05-23T07:08:33Z</time>
      </trkpt>
      <trkpt lat="42.6539860" lon="-8.6442770">
        <ele>162.9</ele>
        <time>2021-05-23T07:08:34Z</time>
      </trkpt>
      <trkpt lat="42.6540050" lon="-8.6442710">
        <ele>163.0</ele>
        <time>2021-05-23T07:08:35Z</time>
      </trkpt>
      <trkpt lat="42.6540190" lon="-8.6442720">
        <ele>163.0</ele>
        <time>2021-05-23T07:08:36Z</time>
      </trkpt>
      <trkpt lat="42.6540310" lon="-8.6442760">
        <ele>163.1</ele>
        <time>2021-05-23T07:08:37Z</time>
      </trkpt>
      <trkpt lat="42.6540370" lon="-8.6442830">
        <ele>163.1</ele>
        <time>2021-05-23T07:08:38Z</time>
      </trkpt>
      <trkpt lat="42.6540470" lon="-8.6442920">
        <ele>163.2</ele>
        <time>2021-05-23T07:08:39Z</time>
      </trkpt>
      <trkpt lat="42.6540530" lon="-8.6442890">
        <ele>163.2</ele>
        <time>2021-05-23T07:08:40Z</time>
      </trkpt>
      <trkpt lat="42.6540700" lon="-8.6442900">
        <ele>163.3</ele>
        <time>2021-05-23T07:08:41Z</time>
      </trkpt>
      <trkpt lat="42.6540990" lon="-8.6442860">
        <ele>163.4</ele>
        <time>2021-05-23T07:08:42Z</time>
      </trkpt>
      <trkpt lat="42.6541060" lon="-8.6442830">
        <ele>163.4</ele>
        <time>2021-05-23T07:08:43Z</time>
      </trkpt>
      <trkpt lat="42.6541170" lon="-8.6442790">
        <ele>163.4</ele>
        <time>2021-05-23T07:08:44Z</time>
      </trkpt>
      <trkpt lat="42.6541300" lon="-8.6442770">
        <ele>163.5</ele>
        <time>2021-05-23T07:08:45Z</time>
      </trkpt>
      <trkpt lat="42.6541410" lon="-8.6442740">
        <ele>163.5</ele>
        <time>2021-05-23T07:08:46Z</time>
      </trkpt>
      <trkpt lat="42.6541560" lon="-8.6442720">
        <ele>163.6</ele>
        <time>2021-05-23T07:08:47Z</time>
      </trkpt>
      <trkpt lat="42.6541700" lon="-8.6442680">
        <ele>163.6</ele>
        <time>2021-05-23T07:08:48Z</time>
      </trkpt>
      <trkpt lat="42.6541830" lon="-8.6442620">
        <ele>163.6</ele>
        <time>2021-05-23T07:08:49Z</time>
      </trkpt>
      <trkpt lat="42.6542030" lon="-8.6442560">
        <ele>163.7</ele>
        <time>2021-05-23T07:08:50Z</time>
      </trkpt>
      <trkpt lat="42.6542240" lon="-8.6442470">
        <ele>163.7</ele>
        <time>2021-05-23T07:08:51Z</time>
      </trkpt>
      <trkpt lat="42.6542330" lon="-8.6442420">
        <ele>163.8</ele>
        <time>2021-05-23T07:08:52Z</time>
      </trkpt>
      <trkpt lat="42.6542410" lon="-8.6442360">
        <ele>163.8</ele>
        <time>2021-05-23T07:08:53Z</time>
      </trkpt>
      <trkpt lat="42.6542520" lon="-8.6442330">
        <ele>163.8</ele>
        <time>2021-05-23T07:08:54Z</time>
      </trkpt>
      <trkpt lat="42.6542680" lon="-8.6442220">
        <ele>163.8</ele>
        <time>2021-05-23T07:08:55Z</time>
      </trkpt>
      <trkpt lat="42.6542820" lon="-8.6442140">
        <ele>163.8</ele>
        <time>2021-05-23T07:08:56Z</time>
      </trkpt>
      <trkpt lat="42.6543000" lon="-8.6442000">
        <ele>163.9</ele>
        <time>2021-05-23T07:08:57Z</time>
      </trkpt>
      <trkpt lat="42.6543150" lon="-8.6441890">
        <ele>163.9</ele>
        <time>2021-05-23T07:08:58Z</time>
      </trkpt>
      <trkpt lat="42.6543280" lon="-8.6441770">
        <ele>163.9</ele>
        <time>2021-05-23T07:08:59Z</time>
      </trkpt>
      <trkpt lat="42.6543400" lon="-8.6441740">
        <ele>163.9</ele>
        <time>2021-05-23T07:09:00Z</time>
      </trkpt>
      <trkpt lat="42.6543550" lon="-8.6441710">
        <ele>164.0</ele>
        <time>2021-05-23T07:09:01Z</time>
      </trkpt>
      <trkpt lat="42.6543740" lon="-8.6441530">
        <ele>164.0</ele>
        <time>2021-05-23T07:09:02Z</time>
      </trkpt>
      <trkpt lat="42.6543810" lon="-8.6441470">
        <ele>164.0</ele>
        <time>2021-05-23T07:09:03Z</time>
      </trkpt>
      <trkpt lat="42.6543870" lon="-8.6441400">
        <ele>164.0</ele>
        <time>2021-05-23T07:09:04Z</time>
      </trkpt>
      <trkpt lat="42.6543970" lon="-8.6441380">
        <ele>164.0</ele>
        <time>2021-05-23T07:09:05Z</time>
      </trkpt>
      <trkpt lat="42.6543990" lon="-8.6441440">
        <ele>164.0</ele>
        <time>2021-05-23T07:09:06Z</time>
      </trkpt>
      <trkpt lat="42.6543970" lon="-8.6441470">
        <ele>164.0</ele>
        <time>2021-05-23T07:09:07Z</time>
      </trkpt>
      <trkpt lat="42.6543980" lon="-8.6441480">
        <ele>164.0</ele>
        <time>2021-05-23T07:09:08Z</time>
      </trkpt>
      <trkpt lat="42.6543980" lon="-8.6441480">
        <ele>164.0</ele>
        <time>2021-05-23T07:09:09Z</time>
      </trkpt>
      <trkpt lat="42.6543980" lon="-8.6441470">
        <ele>164.0</ele>
        <time>2021-05-23T07:09:10Z</time>
      </trkpt>
      <trkpt lat="42.6544000" lon="-8.6441470">
        <ele>164.0</ele>
        <time>2021-05-23T07:09:11Z</time>
      </trkpt>
      <trkpt lat="42.6544010" lon="-8.6441470">
        <ele>164.0</ele>
        <time>2021-05-23T07:09:12Z</time>
      </trkpt>
      <trkpt lat="42.6544010" lon="-8.6441460">
        <ele>164.0</ele>
        <time>2021-05-23T07:09:13Z</time>
      </trkpt>
      <trkpt lat="42.6544010" lon="-8.6441470">
        <ele>164.0</ele>
        <time>2021-05-23T07:09:14Z</time>
      </trkpt>
      <trkpt lat="42.6544010" lon="-8.6441470">
        <ele>164.0</ele>
        <time>2021-05-23T07:09:15Z</time>
      </trkpt>
      <trkpt lat="42.6544040" lon="-8.6441440">
        <ele>164.0</ele>
        <time>2021-05-23T07:09:16Z</time>
      </trkpt>
      <trkpt lat="42.6544130" lon="-8.6441320">
        <ele>164.1</ele>
        <time>2021-05-23T07:09:17Z</time>
      </trkpt>
      <trkpt lat="42.6544260" lon="-8.6441160">
        <ele>164.1</ele>
        <time>2021-05-23T07:09:18Z</time>
      </trkpt>
      <trkpt lat="42.6544340" lon="-8.6441070">
        <ele>164.1</ele>
        <time>2021-05-23T07:09:19Z</time>
      </trkpt>
      <trkpt lat="42.6544540" lon="-8.6440920">
        <ele>164.1</ele>
        <time>2021-05-23T07:09:20Z</time>
      </trkpt>
      <trkpt lat="42.6544620" lon="-8.6440810">
        <ele>164.1</ele>
        <time>2021-05-23T07:09:21Z</time>
      </trkpt>
      <trkpt lat="42.6544800" lon="-8.6440640">
        <ele>164.1</ele>
        <time>2021-05-23T07:09:22Z</time>
      </trkpt>
      <trkpt lat="42.6544860" lon="-8.6440570">
        <ele>164.1</ele>
        <time>2021-05-23T07:09:23Z</time>
      </trkpt>
      <trkpt lat="42.6544920" lon="-8.6440500">
        <ele>164.1</ele>
        <time>2021-05-23T07:09:24Z</time>
      </trkpt>
      <trkpt lat="42.6544970" lon="-8.6440380">
        <ele>164.1</ele>
        <time>2021-05-23T07:09:25Z</time>
      </trkpt>
      <trkpt lat="42.6545060" lon="-8.6440330">
        <ele>164.2</ele>
        <time>2021-05-23T07:09:26Z</time>
      </trkpt>
      <trkpt lat="42.6545200" lon="-8.6440250">
        <ele>164.2</ele>
        <time>2021-05-23T07:09:27Z</time>
      </trkpt>
      <trkpt lat="42.6545310" lon="-8.6440120">
        <ele>164.2</ele>
        <time>2021-05-23T07:09:28Z</time>
      </trkpt>
      <trkpt lat="42.6545410" lon="-8.6440020">
        <ele>164.2</ele>
        <time>2021-05-23T07:09:29Z</time>
      </trkpt>
      <trkpt lat="42.6545550" lon="-8.6439910">
        <ele>164.2</ele>
        <time>2021-05-23T07:09:30Z</time>
      </trkpt>
      <trkpt lat="42.6545690" lon="-8.6439850">
        <ele>164.2</ele>
        <time>2021-05-23T07:09:31Z</time>
      </trkpt>
      <trkpt lat="42.6545750" lon="-8.6439790">
        <ele>164.2</ele>
        <time>2021-05-23T07:09:32Z</time>
      </trkpt>
      <trkpt lat="42.6545790" lon="-8.6439650">
        <ele>164.1</ele>
        <time>2021-05-23T07:09:33Z</time>
      </trkpt>
      <trkpt lat="42.6545960" lon="-8.6439540">
        <ele>164.1</ele>
        <time>2021-05-23T07:09:34Z</time>
      </trkpt>
      <trkpt lat="42.6546050" lon="-8.6439510">
        <ele>164.1</ele>
        <time>2021-05-23T07:09:35Z</time>
      </trkpt>
      <trkpt lat="42.6546110" lon="-8.6439400">
        <ele>164.1</ele>
        <time>2021-05-23T07:09:36Z</time>
      </trkpt>
      <trkpt lat="42.6546200" lon="-8.6439290">
        <ele>164.1</ele>
        <time>2021-05-23T07:09:37Z</time>
      </trkpt>
      <trkpt lat="42.6546410" lon="-8.6439130">
        <ele>164.1</ele>
        <time>2021-05-23T07:09:38Z</time>
      </trkpt>
      <trkpt lat="42.6546500" lon="-8.6439010">
        <ele>164.0</ele>
        <time>2021-05-23T07:09:39Z</time>
      </trkpt>
      <trkpt lat="42.6546590" lon="-8.6438890">
        <ele>164.0</ele>
        <time>2021-05-23T07:09:40Z</time>
      </trkpt>
      <trkpt lat="42.6546710" lon="-8.6438760">
        <ele>163.9</ele>
        <time>2021-05-23T07:09:41Z</time>
      </trkpt>
      <trkpt lat="42.6546820" lon="-8.6438630">
        <ele>163.9</ele>
        <time>2021-05-23T07:09:42Z</time>
      </trkpt>
      <trkpt lat="42.6546870" lon="-8.6438460">
        <ele>163.9</ele>
        <time>2021-05-23T07:09:43Z</time>
      </trkpt>
      <trkpt lat="42.6546920" lon="-8.6438300">
        <ele>163.8</ele>
        <time>2021-05-23T07:09:44Z</time>
      </trkpt>
      <trkpt lat="42.6546960" lon="-8.6438270">
        <ele>163.8</ele>
        <time>2021-05-23T07:09:45Z</time>
      </trkpt>
      <trkpt lat="42.6547050" lon="-8.6438180">
        <ele>163.8</ele>
        <time>2021-05-23T07:09:46Z</time>
      </trkpt>
      <trkpt lat="42.6546980" lon="-8.6438170">
        <ele>163.7</ele>
        <time>2021-05-23T07:09:47Z</time>
      </trkpt>
      <trkpt lat="42.6547100" lon="-8.6437870">
        <ele>163.7</ele>
        <time>2021-05-23T07:09:48Z</time>
      </trkpt>
      <trkpt lat="42.6547080" lon="-8.6437690">
        <ele>163.6</ele>
        <time>2021-05-23T07:09:49Z</time>
      </trkpt>
      <trkpt lat="42.6547150" lon="-8.6437560">
        <ele>163.6</ele>
        <time>2021-05-23T07:09:50Z</time>
      </trkpt>
      <trkpt lat="42.6547150" lon="-8.6437410">
        <ele>163.5</ele>
        <time>2021-05-23T07:09:51Z</time>
      </trkpt>
      <trkpt lat="42.6547170" lon="-8.6437220">
        <ele>163.5</ele>
        <time>2021-05-23T07:09:52Z</time>
      </trkpt>
      <trkpt lat="42.6547230" lon="-8.6436990">
        <ele>163.4</ele>
        <time>2021-05-23T07:09:53Z</time>
      </trkpt>
      <trkpt lat="42.6547330" lon="-8.6436840">
        <ele>163.4</ele>
        <time>2021-05-23T07:09:54Z</time>
      </trkpt>
      <trkpt lat="42.6547220" lon="-8.6436720">
        <ele>163.3</ele>
        <time>2021-05-23T07:09:55Z</time>
      </trkpt>
      <trkpt lat="42.6547230" lon="-8.6436520">
        <ele>163.3</ele>
        <time>2021-05-23T07:09:56Z</time>
      </trkpt>
      <trkpt lat="42.6547180" lon="-8.6436330">
        <ele>163.3</ele>
        <time>2021-05-23T07:09:57Z</time>
      </trkpt>
      <trkpt lat="42.6547220" lon="-8.6436090">
        <ele>163.2</ele>
        <time>2021-05-23T07:09:58Z</time>
      </trkpt>
      <trkpt lat="42.6547290" lon="-8.6435920">
        <ele>163.2</ele>
        <time>2021-05-23T07:09:59Z</time>
      </trkpt>
      <trkpt lat="42.6547240" lon="-8.6435820">
        <ele>163.2</ele>
        <time>2021-05-23T07:10:00Z</time>
      </trkpt>
      <trkpt lat="42.6547310" lon="-8.6435650">
        <ele>163.2</ele>
        <time>2021-05-23T07:10:01Z</time>
      </trkpt>
      <trkpt lat="42.6547310" lon="-8.6435430">
        <ele>163.2</ele>
        <time>2021-05-23T07:10:02Z</time>
      </trkpt>
      <trkpt lat="42.6547310" lon="-8.6435230">
        <ele>163.1</ele>
        <time>2021-05-23T07:10:03Z</time>
      </trkpt>
      <trkpt lat="42.6547420" lon="-8.6434930">
        <ele>163.1</ele>
        <time>2021-05-23T07:10:04Z</time>
      </trkpt>
      <trkpt lat="42.6547500" lon="-8.6434810">
        <ele>163.1</ele>
        <time>2021-05-23T07:10:05Z</time>
      </trkpt>
      <trkpt lat="42.6547590" lon="-8.6434680">
        <ele>163.1</ele>
        <time>2021-05-23T07:10:06Z</time>
      </trkpt>
      <trkpt lat="42.6547650" lon="-8.6434620">
        <ele>163.1</ele>
        <time>2021-05-23T07:10:07Z</time>
      </trkpt>
      <trkpt lat="42.6547740" lon="-8.6434480">
        <ele>163.1</ele>
        <time>2021-05-23T07:10:08Z</time>
      </trkpt>
      <trkpt lat="42.6547690" lon="-8.6434310">
        <ele>163.1</ele>
        <time>2021-05-23T07:10:09Z</time>
      </trkpt>
      <trkpt lat="42.6547710" lon="-8.6434140">
        <ele>163.1</ele>
        <time>2021-05-23T07:10:10Z</time>
      </trkpt>
      <trkpt lat="42.6547750" lon="-8.6433880">
        <ele>163.0</ele>
        <time>2021-05-23T07:10:11Z</time>
      </trkpt>
      <trkpt lat="42.6547850" lon="-8.6433620">
        <ele>163.0</ele>
        <time>2021-05-23T07:10:12Z</time>
      </trkpt>
      <trkpt lat="42.6547920" lon="-8.6433510">
        <ele>163.0</ele>
        <time>2021-05-23T07:10:13Z</time>
      </trkpt>
      <trkpt lat="42.6547980" lon="-8.6433400">
        <ele>163.0</ele>
        <time>2021-05-23T07:10:14Z</time>
      </trkpt>
      <trkpt lat="42.6548050" lon="-8.6433290">
        <ele>163.0</ele>
        <time>2021-05-23T07:10:15Z</time>
      </trkpt>
      <trkpt lat="42.6548190" lon="-8.6433060">
        <ele>163.1</ele>
        <time>2021-05-23T07:10:16Z</time>
      </trkpt>
      <trkpt lat="42.6548290" lon="-8.6432850">
        <ele>163.1</ele>
        <time>2021-05-23T07:10:17Z</time>
      </trkpt>
      <trkpt lat="42.6548370" lon="-8.6432750">
        <ele>163.1</ele>
        <time>2021-05-23T07:10:18Z</time>
      </trkpt>
      <trkpt lat="42.6548400" lon="-8.6432530">
        <ele>163.1</ele>
        <time>2021-05-23T07:10:19Z</time>
      </trkpt>
      <trkpt lat="42.6548490" lon="-8.6432450">
        <ele>163.1</ele>
        <time>2021-05-23T07:10:20Z</time>
      </trkpt>
      <trkpt lat="42.6548590" lon="-8.6432360">
        <ele>163.1</ele>
        <time>2021-05-23T07:10:21Z</time>
      </trkpt>
      <trkpt lat="42.6548680" lon="-8.6432270">
        <ele>163.2</ele>
        <time>2021-05-23T07:10:22Z</time>
      </trkpt>
      <trkpt lat="42.6548730" lon="-8.6432130">
        <ele>163.2</ele>
        <time>2021-05-23T07:10:23Z</time>
      </trkpt>
      <trkpt lat="42.6548910" lon="-8.6431960">
        <ele>163.2</ele>
        <time>2021-05-23T07:10:24Z</time>
      </trkpt>
      <trkpt lat="42.6548980" lon="-8.6431830">
        <ele>163.2</ele>
        <time>2021-05-23T07:10:25Z</time>
      </trkpt>
      <trkpt lat="42.6549170" lon="-8.6431740">
        <ele>163.3</ele>
        <time>2021-05-23T07:10:26Z</time>
      </trkpt>
      <trkpt lat="42.6549300" lon="-8.6431590">
        <ele>163.3</ele>
        <time>2021-05-23T07:10:27Z</time>
      </trkpt>
      <trkpt lat="42.6549420" lon="-8.6431490">
        <ele>163.3</ele>
        <time>2021-05-23T07:10:28Z</time>
      </trkpt>
      <trkpt lat="42.6549560" lon="-8.6431350">
        <ele>163.4</ele>
        <time>2021-05-23T07:10:29Z</time>
      </trkpt>
      <trkpt lat="42.6549670" lon="-8.6431310">
        <ele>163.4</ele>
        <time>2021-05-23T07:10:30Z</time>
      </trkpt>
      <trkpt lat="42.6549770" lon="-8.6431260">
        <ele>163.4</ele>
        <time>2021-05-23T07:10:31Z</time>
      </trkpt>
      <trkpt lat="42.6549930" lon="-8.6431200">
        <ele>163.5</ele>
        <time>2021-05-23T07:10:32Z</time>
      </trkpt>
      <trkpt lat="42.6550060" lon="-8.6431070">
        <ele>163.5</ele>
        <time>2021-05-23T07:10:33Z</time>
      </trkpt>
      <trkpt lat="42.6550270" lon="-8.6430950">
        <ele>163.6</ele>
        <time>2021-05-23T07:10:34Z</time>
      </trkpt>
      <trkpt lat="42.6550350" lon="-8.6430920">
        <ele>163.6</ele>
        <time>2021-05-23T07:10:35Z</time>
      </trkpt>
      <trkpt lat="42.6550440" lon="-8.6430890">
        <ele>163.6</ele>
        <time>2021-05-23T07:10:36Z</time>
      </trkpt>
      <trkpt lat="42.6550550" lon="-8.6430750">
        <ele>163.7</ele>
        <time>2021-05-23T07:10:37Z</time>
      </trkpt>
      <trkpt lat="42.6550700" lon="-8.6430730">
        <ele>163.7</ele>
        <time>2021-05-23T07:10:38Z</time>
      </trkpt>
      <trkpt lat="42.6550880" lon="-8.6430640">
        <ele>163.9</ele>
        <time>2021-05-23T07:10:39Z</time>
      </trkpt>
      <trkpt lat="42.6550990" lon="-8.6430520">
        <ele>163.9</ele>
        <time>2021-05-23T07:10:40Z</time>
      </trkpt>
      <trkpt lat="42.6551150" lon="-8.6430410">
        <ele>163.9</ele>
        <time>2021-05-23T07:10:41Z</time>
      </trkpt>
      <trkpt lat="42.6551220" lon="-8.6430430">
        <ele>163.9</ele>
        <time>2021-05-23T07:10:42Z</time>
      </trkpt>
      <trkpt lat="42.6551280" lon="-8.6430450">
        <ele>163.9</ele>
        <time>2021-05-23T07:10:43Z</time>
      </trkpt>
      <trkpt lat="42.6551400" lon="-8.6430530">
        <ele>164.0</ele>
        <time>2021-05-23T07:10:44Z</time>
      </trkpt>
      <trkpt lat="42.6551490" lon="-8.6430590">
        <ele>164.0</ele>
        <time>2021-05-23T07:10:45Z</time>
      </trkpt>
      <trkpt lat="42.6551580" lon="-8.6430660">
        <ele>164.0</ele>
        <time>2021-05-23T07:10:46Z</time>
      </trkpt>
      <trkpt lat="42.6551670" lon="-8.6430720">
        <ele>164.0</ele>
        <time>2021-05-23T07:10:47Z</time>
      </trkpt>
      <trkpt lat="42.6551840" lon="-8.6430880">
        <ele>164.2</ele>
        <time>2021-05-23T07:10:48Z</time>
      </trkpt>
      <trkpt lat="42.6551930" lon="-8.6430890">
        <ele>164.2</ele>
        <time>2021-05-23T07:10:49Z</time>
      </trkpt>
      <trkpt lat="42.6552020" lon="-8.6430890">
        <ele>164.2</ele>
        <time>2021-05-23T07:10:50Z</time>
      </trkpt>
      <trkpt lat="42.6552110" lon="-8.6430900">
        <ele>164.2</ele>
        <time>2021-05-23T07:10:51Z</time>
      </trkpt>
      <trkpt lat="42.6552200" lon="-8.6430910">
        <ele>164.3</ele>
        <time>2021-05-23T07:10:52Z</time>
      </trkpt>
      <trkpt lat="42.6552340" lon="-8.6431060">
        <ele>164.3</ele>
        <time>2021-05-23T07:10:53Z</time>
      </trkpt>
      <trkpt lat="42.6552340" lon="-8.6431070">
        <ele>164.3</ele>
        <time>2021-05-23T07:10:54Z</time>
      </trkpt>
      <trkpt lat="42.6552450" lon="-8.6431150">
        <ele>164.4</ele>
        <time>2021-05-23T07:10:55Z</time>
      </trkpt>
      <trkpt lat="42.6552630" lon="-8.6431230">
        <ele>164.4</ele>
        <time>2021-05-23T07:10:56Z</time>
      </trkpt>
      <trkpt lat="42.6552640" lon="-8.6431240">
        <ele>164.4</ele>
        <time>2021-05-23T07:10:57Z</time>
      </trkpt>
      <trkpt lat="42.6552690" lon="-8.6431280">
        <ele>164.5</ele>
        <time>2021-05-23T07:10:58Z</time>
      </trkpt>
      <trkpt lat="42.6552790" lon="-8.6431320">
        <ele>164.5</ele>
        <time>2021-05-23T07:10:59Z</time>
      </trkpt>
      <trkpt lat="42.6552840" lon="-8.6431370">
        <ele>164.5</ele>
        <time>2021-05-23T07:11:00Z</time>
      </trkpt>
      <trkpt lat="42.6552890" lon="-8.6431460">
        <ele>164.6</ele>
        <time>2021-05-23T07:11:01Z</time>
      </trkpt>
      <trkpt lat="42.6552980" lon="-8.6431500">
        <ele>164.6</ele>
        <time>2021-05-23T07:11:02Z</time>
      </trkpt>
      <trkpt lat="42.6553030" lon="-8.6431530">
        <ele>164.6</ele>
        <time>2021-05-23T07:11:03Z</time>
      </trkpt>
      <trkpt lat="42.6553090" lon="-8.6431570">
        <ele>164.6</ele>
        <time>2021-05-23T07:11:04Z</time>
      </trkpt>
      <trkpt lat="42.6553090" lon="-8.6431570">
        <ele>164.6</ele>
        <time>2021-05-23T07:11:05Z</time>
      </trkpt>
      <trkpt lat="42.6553100" lon="-8.6431580">
        <ele>164.6</ele>
        <time>2021-05-23T07:11:06Z</time>
      </trkpt>
      <trkpt lat="42.6553110" lon="-8.6431580">
        <ele>164.6</ele>
        <time>2021-05-23T07:11:07Z</time>
      </trkpt>
      <trkpt lat="42.6553120" lon="-8.6431590">
        <ele>164.6</ele>
        <time>2021-05-23T07:11:08Z</time>
      </trkpt>
      <trkpt lat="42.6553120" lon="-8.6431590">
        <ele>164.6</ele>
        <time>2021-05-23T07:11:09Z</time>
      </trkpt>
      <trkpt lat="42.6553130" lon="-8.6431600">
        <ele>164.7</ele>
        <time>2021-05-23T07:11:10Z</time>
      </trkpt>
      <trkpt lat="42.6553140" lon="-8.6431610">
        <ele>164.7</ele>
        <time>2021-05-23T07:11:11Z</time>
      </trkpt>
      <trkpt lat="42.6553140" lon="-8.6431610">
        <ele>164.7</ele>
        <time>2021-05-23T07:11:12Z</time>
      </trkpt>
      <trkpt lat="42.6553150" lon="-8.6431620">
        <ele>164.7</ele>
        <time>2021-05-23T07:11:13Z</time>
      </trkpt>
      <trkpt lat="42.6553160" lon="-8.6431620">
        <ele>164.7</ele>
        <time>2021-05-23T07:11:14Z</time>
      </trkpt>
      <trkpt lat="42.6553170" lon="-8.6431630">
        <ele>164.7</ele>
        <time>2021-05-23T07:11:15Z</time>
      </trkpt>
      <trkpt lat="42.6553170" lon="-8.6431630">
        <ele>164.7</ele>
        <time>2021-05-23T07:11:16Z</time>
      </trkpt>
      <trkpt lat="42.6553180" lon="-8.6431640">
        <ele>164.7</ele>
        <time>2021-05-23T07:11:17Z</time>
      </trkpt>
      <trkpt lat="42.6553190" lon="-8.6431640">
        <ele>164.7</ele>
        <time>2021-05-23T07:11:18Z</time>
      </trkpt>
      <trkpt lat="42.6553190" lon="-8.6431650">
        <ele>164.7</ele>
        <time>2021-05-23T07:11:19Z</time>
      </trkpt>
      <trkpt lat="42.6553200" lon="-8.6431660">
        <ele>164.7</ele>
        <time>2021-05-23T07:11:20Z</time>
      </trkpt>
      <trkpt lat="42.6553210" lon="-8.6431660">
        <ele>164.7</ele>
        <time>2021-05-23T07:11:21Z</time>
      </trkpt>
      <trkpt lat="42.6553210" lon="-8.6431670">
        <ele>164.7</ele>
        <time>2021-05-23T07:11:22Z</time>
      </trkpt>
      <trkpt lat="42.6553220" lon="-8.6431670">
        <ele>164.7</ele>
        <time>2021-05-23T07:11:23Z</time>
      </trkpt>
      <trkpt lat="42.6553230" lon="-8.6431680">
        <ele>164.7</ele>
        <time>2021-05-23T07:11:24Z</time>
      </trkpt>
      <trkpt lat="42.6553240" lon="-8.6431680">
        <ele>164.7</ele>
        <time>2021-05-23T07:11:25Z</time>
      </trkpt>
      <trkpt lat="42.6553240" lon="-8.6431690">
        <ele>164.7</ele>
        <time>2021-05-23T07:11:26Z</time>
      </trkpt>
      <trkpt lat="42.6553250" lon="-8.6431700">
        <ele>164.7</ele>
        <time>2021-05-23T07:11:27Z</time>
      </trkpt>
      <trkpt lat="42.6553260" lon="-8.6431700">
        <ele>164.7</ele>
        <time>2021-05-23T07:11:28Z</time>
      </trkpt>
      <trkpt lat="42.6553260" lon="-8.6431710">
        <ele>164.7</ele>
        <time>2021-05-23T07:11:29Z</time>
      </trkpt>
      <trkpt lat="42.6553270" lon="-8.6431710">
        <ele>164.7</ele>
        <time>2021-05-23T07:11:30Z</time>
      </trkpt>
      <trkpt lat="42.6553280" lon="-8.6431720">
        <ele>164.7</ele>
        <time>2021-05-23T07:11:31Z</time>
      </trkpt>
      <trkpt lat="42.6553290" lon="-8.6431720">
        <ele>164.7</ele>
        <time>2021-05-23T07:11:32Z</time>
      </trkpt>
      <trkpt lat="42.6553290" lon="-8.6431730">
        <ele>164.7</ele>
        <time>2021-05-23T07:11:33Z</time>
      </trkpt>
      <trkpt lat="42.6553300" lon="-8.6431740">
        <ele>164.7</ele>
        <time>2021-05-23T07:11:34Z</time>
      </trkpt>
      <trkpt lat="42.6553310" lon="-8.6431740">
        <ele>164.7</ele>
        <time>2021-05-23T07:11:35Z</time>
      </trkpt>
      <trkpt lat="42.6553310" lon="-8.6431750">
        <ele>164.7</ele>
        <time>2021-05-23T07:11:36Z</time>
      </trkpt>
      <trkpt lat="42.6553320" lon="-8.6431750">
        <ele>164.7</ele>
        <time>2021-05-23T07:11:37Z</time>
      </trkpt>
      <trkpt lat="42.6553330" lon="-8.6431760">
        <ele>164.7</ele>
        <time>2021-05-23T07:11:38Z</time>
      </trkpt>
      <trkpt lat="42.6553340" lon="-8.6431760">
        <ele>164.7</ele>
        <time>2021-05-23T07:11:39Z</time>
      </trkpt>
      <trkpt lat="42.6553340" lon="-8.6431770">
        <ele>164.8</ele>
        <time>2021-05-23T07:11:40Z</time>
      </trkpt>
      <trkpt lat="42.6553350" lon="-8.6431770">
        <ele>164.8</ele>
        <time>2021-05-23T07:11:41Z</time>
      </trkpt>
      <trkpt lat="42.6553360" lon="-8.6431780">
        <ele>164.8</ele>
        <time>2021-05-23T07:11:42Z</time>
      </trkpt>
      <trkpt lat="42.6553360" lon="-8.6431790">
        <ele>164.8</ele>
        <time>2021-05-23T07:11:43Z</time>
      </trkpt>
      <trkpt lat="42.6553370" lon="-8.6431790">
        <ele>164.8</ele>
        <time>2021-05-23T07:11:44Z</time>
      </trkpt>
      <trkpt lat="42.6553380" lon="-8.6431800">
        <ele>164.8</ele>
        <time>2021-05-23T07:11:45Z</time>
      </trkpt>
      <trkpt lat="42.6553390" lon="-8.6431800">
        <ele>164.8</ele>
        <time>2021-05-23T07:11:46Z</time>
      </trkpt>
      <trkpt lat="42.6553390" lon="-8.6431810">
        <ele>164.8</ele>
        <time>2021-05-23T07:11:47Z</time>
      </trkpt>
      <trkpt lat="42.6553400" lon="-8.6431810">
        <ele>164.8</ele>
        <time>2021-05-23T07:11:48Z</time>
      </trkpt>
      <trkpt lat="42.6553410" lon="-8.6431820">
        <ele>164.8</ele>
        <time>2021-05-23T07:11:49Z</time>
      </trkpt>
      <trkpt lat="42.6553410" lon="-8.6431830">
        <ele>164.8</ele>
        <time>2021-05-23T07:11:50Z</time>
      </trkpt>
      <trkpt lat="42.6553420" lon="-8.6431830">
        <ele>164.8</ele>
        <time>2021-05-23T07:11:51Z</time>
      </trkpt>
      <trkpt lat="42.6553430" lon="-8.6431840">
        <ele>164.8</ele>
        <time>2021-05-23T07:11:52Z</time>
      </trkpt>
      <trkpt lat="42.6553440" lon="-8.6431840">
        <ele>164.8</ele>
        <time>2021-05-23T07:11:53Z</time>
      </trkpt>
      <trkpt lat="42.6553440" lon="-8.6431850">
        <ele>164.8</ele>
        <time>2021-05-23T07:11:54Z</time>
      </trkpt>
      <trkpt lat="42.6553450" lon="-8.6431850">
        <ele>164.8</ele>
        <time>2021-05-23T07:11:55Z</time>
      </trkpt>
      <trkpt lat="42.6553460" lon="-8.6431860">
        <ele>164.8</ele>
        <time>2021-05-23T07:11:56Z</time>
      </trkpt>
      <trkpt lat="42.6553460" lon="-8.6431870">
        <ele>164.8</ele>
        <time>2021-05-23T07:11:57Z</time>
      </trkpt>
      <trkpt lat="42.6553470" lon="-8.6431870">
        <ele>164.8</ele>
        <time>2021-05-23T07:11:58Z</time>
      </trkpt>
      <trkpt lat="42.6553480" lon="-8.6431880">
        <ele>164.8</ele>
        <time>2021-05-23T07:11:59Z</time>
      </trkpt>
      <trkpt lat="42.6553480" lon="-8.6431880">
        <ele>164.8</ele>
        <time>2021-05-23T07:12:00Z</time>
      </trkpt>
      <trkpt lat="42.6553490" lon="-8.6431890">
        <ele>164.8</ele>
        <time>2021-05-23T07:12:01Z</time>
      </trkpt>
      <trkpt lat="42.6553500" lon="-8.6431890">
        <ele>164.8</ele>
        <time>2021-05-23T07:12:02Z</time>
      </trkpt>
      <trkpt lat="42.6553510" lon="-8.6431900">
        <ele>164.8</ele>
        <time>2021-05-23T07:12:03Z</time>
      </trkpt>
      <trkpt lat="42.6553510" lon="-8.6431900">
        <ele>164.8</ele>
        <time>2021-05-23T07:12:04Z</time>
      </trkpt>
      <trkpt lat="42.6553520" lon="-8.6431910">
        <ele>164.8</ele>
        <time>2021-05-23T07:12:05Z</time>
      </trkpt>
      <trkpt lat="42.6553530" lon="-8.6431920">
        <ele>164.8</ele>
        <time>2021-05-23T07:12:06Z</time>
      </trkpt>
      <trkpt lat="42.6553530" lon="-8.6431920">
        <ele>164.8</ele>
        <time>2021-05-23T07:12:07Z</time>
      </trkpt>
      <trkpt lat="42.6553540" lon="-8.6431930">
        <ele>164.8</ele>
        <time>2021-05-23T07:12:08Z</time>
      </trkpt>
      <trkpt lat="42.6553550" lon="-8.6431930">
        <ele>164.8</ele>
        <time>2021-05-23T07:12:09Z</time>
      </trkpt>
      <trkpt lat="42.6553560" lon="-8.6431940">
        <ele>164.9</ele>
        <time>2021-05-23T07:12:10Z</time>
      </trkpt>
      <trkpt lat="42.6553560" lon="-8.6431940">
        <ele>164.9</ele>
        <time>2021-05-23T07:12:11Z</time>
      </trkpt>
      <trkpt lat="42.6553570" lon="-8.6431950">
        <ele>164.9</ele>
        <time>2021-05-23T07:12:12Z</time>
      </trkpt>
      <trkpt lat="42.6553580" lon="-8.6431920">
        <ele>164.9</ele>
        <time>2021-05-23T07:12:13Z</time>
      </trkpt>
      <trkpt lat="42.6553640" lon="-8.6431880">
        <ele>164.9</ele>
        <time>2021-05-23T07:12:14Z</time>
      </trkpt>
      <trkpt lat="42.6553610" lon="-8.6431890">
        <ele>164.9</ele>
        <time>2021-05-23T07:12:15Z</time>
      </trkpt>
      <trkpt lat="42.6553600" lon="-8.6431880">
        <ele>164.9</ele>
        <time>2021-05-23T07:12:16Z</time>
      </trkpt>
      <trkpt lat="42.6553540" lon="-8.6431870">
        <ele>164.9</ele>
        <time>2021-05-23T07:12:17Z</time>
      </trkpt>
      <trkpt lat="42.6553510" lon="-8.6431920">
        <ele>164.9</ele>
        <time>2021-05-23T07:12:18Z</time>
      </trkpt>
      <trkpt lat="42.6553530" lon="-8.6431910">
        <ele>165.0</ele>
        <time>2021-05-23T07:12:19Z</time>
      </trkpt>
      <trkpt lat="42.6553550" lon="-8.6431850">
        <ele>165.0</ele>
        <time>2021-05-23T07:12:20Z</time>
      </trkpt>
      <trkpt lat="42.6553580" lon="-8.6431840">
        <ele>165.0</ele>
        <time>2021-05-23T07:12:21Z</time>
      </trkpt>
      <trkpt lat="42.6553590" lon="-8.6431800">
        <ele>165.0</ele>
        <time>2021-05-23T07:12:22Z</time>
      </trkpt>
      <trkpt lat="42.6553620" lon="-8.6431790">
        <ele>165.0</ele>
        <time>2021-05-23T07:12:23Z</time>
      </trkpt>
      <trkpt lat="42.6553700" lon="-8.6431720">
        <ele>165.0</ele>
        <time>2021-05-23T07:12:24Z</time>
      </trkpt>
      <trkpt lat="42.6553690" lon="-8.6431740">
        <ele>165.0</ele>
        <time>2021-05-23T07:12:25Z</time>
      </trkpt>
      <trkpt lat="42.6553700" lon="-8.6431760">
        <ele>165.0</ele>
        <time>2021-05-23T07:12:26Z</time>
      </trkpt>
      <trkpt lat="42.6553730" lon="-8.6431730">
        <ele>165.1</ele>
        <time>2021-05-23T07:12:27Z</time>
      </trkpt>
      <trkpt lat="42.6553740" lon="-8.6431810">
        <ele>165.1</ele>
        <time>2021-05-23T07:12:28Z</time>
      </trkpt>
      <trkpt lat="42.6553840" lon="-8.6431700">
        <ele>165.1</ele>
        <time>2021-05-23T07:12:29Z</time>
      </trkpt>
      <trkpt lat="42.6554010" lon="-8.6431710">
        <ele>165.2</ele>
        <time>2021-05-23T07:12:30Z</time>
      </trkpt>
      <trkpt lat="42.6554070" lon="-8.6431590">
        <ele>165.2</ele>
        <time>2021-05-23T07:12:31Z</time>
      </trkpt>
      <trkpt lat="42.6554150" lon="-8.6431490">
        <ele>165.2</ele>
        <time>2021-05-23T07:12:32Z</time>
      </trkpt>
      <trkpt lat="42.6554220" lon="-8.6431340">
        <ele>165.3</ele>
        <time>2021-05-23T07:12:33Z</time>
      </trkpt>
      <trkpt lat="42.6554320" lon="-8.6431130">
        <ele>165.4</ele>
        <time>2021-05-23T07:12:34Z</time>
      </trkpt>
      <trkpt lat="42.6554480" lon="-8.6430920">
        <ele>165.4</ele>
        <time>2021-05-23T07:12:35Z</time>
      </trkpt>
      <trkpt lat="42.6554510" lon="-8.6430790">
        <ele>165.5</ele>
        <time>2021-05-23T07:12:36Z</time>
      </trkpt>
      <trkpt lat="42.6554540" lon="-8.6430660">
        <ele>165.5</ele>
        <time>2021-05-23T07:12:37Z</time>
      </trkpt>
      <trkpt lat="42.6554550" lon="-8.6430500">
        <ele>165.5</ele>
        <time>2021-05-23T07:12:38Z</time>
      </trkpt>
      <trkpt lat="42.6554650" lon="-8.6430480">
        <ele>165.5</ele>
        <time>2021-05-23T07:12:39Z</time>
      </trkpt>
      <trkpt lat="42.6554680" lon="-8.6430330">
        <ele>165.5</ele>
        <time>2021-05-23T07:12:40Z</time>
      </trkpt>
      <trkpt lat="42.6554720" lon="-8.6430200">
        <ele>165.6</ele>
        <time>2021-05-23T07:12:41Z</time>
      </trkpt>
      <trkpt lat="42.6554830" lon="-8.6430110">
        <ele>165.6</ele>
        <time>2021-05-23T07:12:42Z</time>
      </trkpt>
      <trkpt lat="42.6554830" lon="-8.6430000">
        <ele>165.6</ele>
        <time>2021-05-23T07:12:43Z</time>
      </trkpt>
      <trkpt lat="42.6554870" lon="-8.6429790">
        <ele>165.6</ele>
        <time>2021-05-23T07:12:44Z</time>
      </trkpt>
      <trkpt lat="42.6554970" lon="-8.6429620">
        <ele>165.6</ele>
        <time>2021-05-23T07:12:45Z</time>
      </trkpt>
      <trkpt lat="42.6555040" lon="-8.6429510">
        <ele>165.6</ele>
        <time>2021-05-23T07:12:46Z</time>
      </trkpt>
      <trkpt lat="42.6555030" lon="-8.6429350">
        <ele>165.6</ele>
        <time>2021-05-23T07:12:47Z</time>
      </trkpt>
      <trkpt lat="42.6555020" lon="-8.6429170">
        <ele>165.6</ele>
        <time>2021-05-23T07:12:48Z</time>
      </trkpt>
      <trkpt lat="42.6555030" lon="-8.6429020">
        <ele>165.6</ele>
        <time>2021-05-23T07:12:49Z</time>
      </trkpt>
      <trkpt lat="42.6555120" lon="-8.6428870">
        <ele>165.6</ele>
        <time>2021-05-23T07:12:50Z</time>
      </trkpt>
      <trkpt lat="42.6555060" lon="-8.6428750">
        <ele>165.6</ele>
        <time>2021-05-23T07:12:51Z</time>
      </trkpt>
      <trkpt lat="42.6555090" lon="-8.6428590">
        <ele>165.6</ele>
        <time>2021-05-23T07:12:52Z</time>
      </trkpt>
      <trkpt lat="42.6555180" lon="-8.6428460">
        <ele>165.6</ele>
        <time>2021-05-23T07:12:53Z</time>
      </trkpt>
      <trkpt lat="42.6555180" lon="-8.6428380">
        <ele>165.6</ele>
        <time>2021-05-23T07:12:54Z</time>
      </trkpt>
      <trkpt lat="42.6555210" lon="-8.6428120">
        <ele>165.5</ele>
        <time>2021-05-23T07:12:55Z</time>
      </trkpt>
      <trkpt lat="42.6555230" lon="-8.6427990">
        <ele>165.5</ele>
        <time>2021-05-23T07:12:56Z</time>
      </trkpt>
      <trkpt lat="42.6555240" lon="-8.6427860">
        <ele>165.5</ele>
        <time>2021-05-23T07:12:57Z</time>
      </trkpt>
      <trkpt lat="42.6555290" lon="-8.6427610">
        <ele>165.5</ele>
        <time>2021-05-23T07:12:58Z</time>
      </trkpt>
      <trkpt lat="42.6555350" lon="-8.6427460">
        <ele>165.4</ele>
        <time>2021-05-23T07:12:59Z</time>
      </trkpt>
      <trkpt lat="42.6555330" lon="-8.6427320">
        <ele>165.4</ele>
        <time>2021-05-23T07:13:00Z</time>
      </trkpt>
      <trkpt lat="42.6555310" lon="-8.6427180">
        <ele>165.4</ele>
        <time>2021-05-23T07:13:01Z</time>
      </trkpt>
      <trkpt lat="42.6555360" lon="-8.6427020">
        <ele>165.4</ele>
        <time>2021-05-23T07:13:02Z</time>
      </trkpt>
      <trkpt lat="42.6555440" lon="-8.6426740">
        <ele>165.3</ele>
        <time>2021-05-23T07:13:03Z</time>
      </trkpt>
      <trkpt lat="42.6555450" lon="-8.6426670">
        <ele>165.3</ele>
        <time>2021-05-23T07:13:04Z</time>
      </trkpt>
      <trkpt lat="42.6555530" lon="-8.6426510">
        <ele>165.3</ele>
        <time>2021-05-23T07:13:05Z</time>
      </trkpt>
      <trkpt lat="42.6555540" lon="-8.6426530">
        <ele>165.3</ele>
        <time>2021-05-23T07:13:06Z</time>
      </trkpt>
      <trkpt lat="42.6555560" lon="-8.6426390">
        <ele>165.3</ele>
        <time>2021-05-23T07:13:07Z</time>
      </trkpt>
      <trkpt lat="42.6555500" lon="-8.6426180">
        <ele>165.2</ele>
        <time>2021-05-23T07:13:08Z</time>
      </trkpt>
      <trkpt lat="42.6555440" lon="-8.6426000">
        <ele>165.2</ele>
        <time>2021-05-23T07:13:09Z</time>
      </trkpt>
      <trkpt lat="42.6555460" lon="-8.6425870">
        <ele>165.2</ele>
        <time>2021-05-23T07:13:10Z</time>
      </trkpt>
      <trkpt lat="42.6555410" lon="-8.6425820">
        <ele>165.1</ele>
        <time>2021-05-23T07:13:11Z</time>
      </trkpt>
      <trkpt lat="42.6555440" lon="-8.6425690">
        <ele>165.1</ele>
        <time>2021-05-23T07:13:12Z</time>
      </trkpt>
      <trkpt lat="42.6555450" lon="-8.6425570">
        <ele>165.1</ele>
        <time>2021-05-23T07:13:13Z</time>
      </trkpt>
      <trkpt lat="42.6555570" lon="-8.6425480">
        <ele>165.1</ele>
        <time>2021-05-23T07:13:14Z</time>
      </trkpt>
      <trkpt lat="42.6555550" lon="-8.6425300">
        <ele>165.0</ele>
        <time>2021-05-23T07:13:15Z</time>
      </trkpt>
      <trkpt lat="42.6555560" lon="-8.6425190">
        <ele>165.0</ele>
        <time>2021-05-23T07:13:16Z</time>
      </trkpt>
      <trkpt lat="42.6555590" lon="-8.6425060">
        <ele>165.0</ele>
        <time>2021-05-23T07:13:17Z</time>
      </trkpt>
      <trkpt lat="42.6555690" lon="-8.6424860">
        <ele>165.0</ele>
        <time>2021-05-23T07:13:18Z</time>
      </trkpt>
      <trkpt lat="42.6555780" lon="-8.6424740">
        <ele>164.9</ele>
        <time>2021-05-23T07:13:19Z</time>
      </trkpt>
      <trkpt lat="42.6555980" lon="-8.6424640">
        <ele>164.9</ele>
        <time>2021-05-23T07:13:20Z</time>
      </trkpt>
      <trkpt lat="42.6556080" lon="-8.6424520">
        <ele>164.9</ele>
        <time>2021-05-23T07:13:21Z</time>
      </trkpt>
      <trkpt lat="42.6556110" lon="-8.6424500">
        <ele>164.9</ele>
        <time>2021-05-23T07:13:22Z</time>
      </trkpt>
      <trkpt lat="42.6556230" lon="-8.6424330">
        <ele>164.8</ele>
        <time>2021-05-23T07:13:23Z</time>
      </trkpt>
      <trkpt lat="42.6556320" lon="-8.6424170">
        <ele>164.8</ele>
        <time>2021-05-23T07:13:24Z</time>
      </trkpt>
      <trkpt lat="42.6556390" lon="-8.6423900">
        <ele>164.8</ele>
        <time>2021-05-23T07:13:25Z</time>
      </trkpt>
      <trkpt lat="42.6556420" lon="-8.6423780">
        <ele>164.8</ele>
        <time>2021-05-23T07:13:26Z</time>
      </trkpt>
      <trkpt lat="42.6556460" lon="-8.6423670">
        <ele>164.7</ele>
        <time>2021-05-23T07:13:27Z</time>
      </trkpt>
      <trkpt lat="42.6556670" lon="-8.6423480">
        <ele>164.7</ele>
        <time>2021-05-23T07:13:28Z</time>
      </trkpt>
      <trkpt lat="42.6556720" lon="-8.6423390">
        <ele>164.7</ele>
        <time>2021-05-23T07:13:29Z</time>
      </trkpt>
      <trkpt lat="42.6556760" lon="-8.6423310">
        <ele>164.7</ele>
        <time>2021-05-23T07:13:30Z</time>
      </trkpt>
      <trkpt lat="42.6556840" lon="-8.6423220">
        <ele>164.7</ele>
        <time>2021-05-23T07:13:31Z</time>
      </trkpt>
      <trkpt lat="42.6556920" lon="-8.6423160">
        <ele>164.7</ele>
        <time>2021-05-23T07:13:32Z</time>
      </trkpt>
      <trkpt lat="42.6557030" lon="-8.6423010">
        <ele>164.6</ele>
        <time>2021-05-23T07:13:33Z</time>
      </trkpt>
      <trkpt lat="42.6557180" lon="-8.6422880">
        <ele>164.6</ele>
        <time>2021-05-23T07:13:34Z</time>
      </trkpt>
      <trkpt lat="42.6557240" lon="-8.6422770">
        <ele>164.6</ele>
        <time>2021-05-23T07:13:35Z</time>
      </trkpt>
      <trkpt lat="42.6557330" lon="-8.6422610">
        <ele>164.6</ele>
        <time>2021-05-23T07:13:36Z</time>
      </trkpt>
      <trkpt lat="42.6557450" lon="-8.6422510">
        <ele>164.6</ele>
        <time>2021-05-23T07:13:37Z</time>
      </trkpt>
      <trkpt lat="42.6557640" lon="-8.6422270">
        <ele>164.6</ele>
        <time>2021-05-23T07:13:38Z</time>
      </trkpt>
      <trkpt lat="42.6557700" lon="-8.6422180">
        <ele>164.6</ele>
        <time>2021-05-23T07:13:39Z</time>
      </trkpt>
      <trkpt lat="42.6557770" lon="-8.6422090">
        <ele>164.6</ele>
        <time>2021-05-23T07:13:40Z</time>
      </trkpt>
      <trkpt lat="42.6557860" lon="-8.6422020">
        <ele>164.6</ele>
        <time>2021-05-23T07:13:41Z</time>
      </trkpt>
      <trkpt lat="42.6557890" lon="-8.6421940">
        <ele>164.6</ele>
        <time>2021-05-23T07:13:42Z</time>
      </trkpt>
      <trkpt lat="42.6557990" lon="-8.6421850">
        <ele>164.6</ele>
        <time>2021-05-23T07:13:43Z</time>
      </trkpt>
      <trkpt lat="42.6558150" lon="-8.6421770">
        <ele>164.6</ele>
        <time>2021-05-23T07:13:44Z</time>
      </trkpt>
      <trkpt lat="42.6558250" lon="-8.6421620">
        <ele>164.6</ele>
        <time>2021-05-23T07:13:45Z</time>
      </trkpt>
      <trkpt lat="42.6558360" lon="-8.6421660">
        <ele>164.5</ele>
        <time>2021-05-23T07:13:46Z</time>
      </trkpt>
      <trkpt lat="42.6558420" lon="-8.6421680">
        <ele>164.5</ele>
        <time>2021-05-23T07:13:47Z</time>
      </trkpt>
      <trkpt lat="42.6558480" lon="-8.6421690">
        <ele>164.5</ele>
        <time>2021-05-23T07:13:48Z</time>
      </trkpt>
      <trkpt lat="42.6558530" lon="-8.6421710">
        <ele>164.5</ele>
        <time>2021-05-23T07:13:49Z</time>
      </trkpt>
      <trkpt lat="42.6558590" lon="-8.6421720">
        <ele>164.5</ele>
        <time>2021-05-23T07:13:50Z</time>
      </trkpt>
      <trkpt lat="42.6558650" lon="-8.6421740">
        <ele>164.4</ele>
        <time>2021-05-23T07:13:51Z</time>
      </trkpt>
      <trkpt lat="42.6558800" lon="-8.6421870">
        <ele>164.4</ele>
        <time>2021-05-23T07:13:52Z</time>
      </trkpt>
      <trkpt lat="42.6558830" lon="-8.6421880">
        <ele>164.4</ele>
        <time>2021-05-23T07:13:53Z</time>
      </trkpt>
      <trkpt lat="42.6558720" lon="-8.6421900">
        <ele>164.4</ele>
        <time>2021-05-23T07:13:54Z</time>
      </trkpt>
      <trkpt lat="42.6558790" lon="-8.6422000">
        <ele>164.3</ele>
        <time>2021-05-23T07:13:55Z</time>
      </trkpt>
      <trkpt lat="42.6558840" lon="-8.6422090">
        <ele>164.3</ele>
        <time>2021-05-23T07:13:56Z</time>
      </trkpt>
      <trkpt lat="42.6558930" lon="-8.6422160">
        <ele>164.3</ele>
        <time>2021-05-23T07:13:57Z</time>
      </trkpt>
      <trkpt lat="42.6559000" lon="-8.6422220">
        <ele>164.3</ele>
        <time>2021-05-23T07:13:58Z</time>
      </trkpt>
      <trkpt lat="42.6559060" lon="-8.6422270">
        <ele>164.3</ele>
        <time>2021-05-23T07:13:59Z</time>
      </trkpt>
      <trkpt lat="42.6559130" lon="-8.6422330">
        <ele>164.2</ele>
        <time>2021-05-23T07:14:00Z</time>
      </trkpt>
      <trkpt lat="42.6559200" lon="-8.6422390">
        <ele>164.2</ele>
        <time>2021-05-23T07:14:01Z</time>
      </trkpt>
      <trkpt lat="42.6559380" lon="-8.6422480">
        <ele>164.2</ele>
        <time>2021-05-23T07:14:02Z</time>
      </trkpt>
      <trkpt lat="42.6559490" lon="-8.6422470">
        <ele>164.2</ele>
        <time>2021-05-23T07:14:03Z</time>
      </trkpt>
      <trkpt lat="42.6559580" lon="-8.6422490">
        <ele>164.2</ele>
        <time>2021-05-23T07:14:04Z</time>
      </trkpt>
      <trkpt lat="42.6559660" lon="-8.6422560">
        <ele>164.1</ele>
        <time>2021-05-23T07:14:05Z</time>
      </trkpt>
      <trkpt lat="42.6559780" lon="-8.6422680">
        <ele>164.1</ele>
        <time>2021-05-23T07:14:06Z</time>
      </trkpt>
      <trkpt lat="42.6559880" lon="-8.6422820">
        <ele>164.1</ele>
        <time>2021-05-23T07:14:07Z</time>
      </trkpt>
      <trkpt lat="42.6560000" lon="-8.6422830">
        <ele>164.1</ele>
        <time>2021-05-23T07:14:08Z</time>
      </trkpt>
      <trkpt lat="42.6560090" lon="-8.6422870">
        <ele>164.1</ele>
        <time>2021-05-23T07:14:09Z</time>
      </trkpt>
      <trkpt lat="42.6560240" lon="-8.6422950">
        <ele>164.0</ele>
        <time>2021-05-23T07:14:10Z</time>
      </trkpt>
      <trkpt lat="42.6560310" lon="-8.6423010">
        <ele>164.0</ele>
        <time>2021-05-23T07:14:11Z</time>
      </trkpt>
      <trkpt lat="42.6560380" lon="-8.6423060">
        <ele>164.0</ele>
        <time>2021-05-23T07:14:12Z</time>
      </trkpt>
      <trkpt lat="42.6560450" lon="-8.6423120">
        <ele>164.0</ele>
        <time>2021-05-23T07:14:13Z</time>
      </trkpt>
      <trkpt lat="42.6560730" lon="-8.6423220">
        <ele>164.0</ele>
        <time>2021-05-23T07:14:14Z</time>
      </trkpt>
      <trkpt lat="42.6560840" lon="-8.6423240">
        <ele>164.0</ele>
        <time>2021-05-23T07:14:15Z</time>
      </trkpt>
      <trkpt lat="42.6560820" lon="-8.6423250">
        <ele>164.0</ele>
        <time>2021-05-23T07:14:16Z</time>
      </trkpt>
      <trkpt lat="42.6560980" lon="-8.6423250">
        <ele>163.9</ele>
        <time>2021-05-23T07:14:17Z</time>
      </trkpt>
      <trkpt lat="42.6560960" lon="-8.6423240">
        <ele>163.9</ele>
        <time>2021-05-23T07:14:18Z</time>
      </trkpt>
      <trkpt lat="42.6561180" lon="-8.6423370">
        <ele>163.9</ele>
        <time>2021-05-23T07:14:19Z</time>
      </trkpt>
      <trkpt lat="42.6561440" lon="-8.6423440">
        <ele>163.9</ele>
        <time>2021-05-23T07:14:20Z</time>
      </trkpt>
      <trkpt lat="42.6561530" lon="-8.6423470">
        <ele>163.9</ele>
        <time>2021-05-23T07:14:21Z</time>
      </trkpt>
      <trkpt lat="42.6561610" lon="-8.6423490">
        <ele>163.9</ele>
        <time>2021-05-23T07:14:22Z</time>
      </trkpt>
      <trkpt lat="42.6561700" lon="-8.6423540">
        <ele>163.9</ele>
        <time>2021-05-23T07:14:23Z</time>
      </trkpt>
      <trkpt lat="42.6561820" lon="-8.6423570">
        <ele>163.8</ele>
        <time>2021-05-23T07:14:24Z</time>
      </trkpt>
      <trkpt lat="42.6561950" lon="-8.6423610">
        <ele>163.8</ele>
        <time>2021-05-23T07:14:25Z</time>
      </trkpt>
      <trkpt lat="42.6562070" lon="-8.6423640">
        <ele>163.8</ele>
        <time>2021-05-23T07:14:26Z</time>
      </trkpt>
      <trkpt lat="42.6562260" lon="-8.6423690">
        <ele>163.8</ele>
        <time>2021-05-23T07:14:27Z</time>
      </trkpt>
      <trkpt lat="42.6562330" lon="-8.6423720">
        <ele>163.8</ele>
        <time>2021-05-23T07:14:28Z</time>
      </trkpt>
      <trkpt lat="42.6562400" lon="-8.6423750">
        <ele>163.8</ele>
        <time>2021-05-23T07:14:29Z</time>
      </trkpt>
      <trkpt lat="42.6562470" lon="-8.6423780">
        <ele>163.8</ele>
        <time>2021-05-23T07:14:30Z</time>
      </trkpt>
      <trkpt lat="42.6562640" lon="-8.6423800">
        <ele>163.8</ele>
        <time>2021-05-23T07:14:31Z</time>
      </trkpt>
      <trkpt lat="42.6562760" lon="-8.6423840">
        <ele>163.8</ele>
        <time>2021-05-23T07:14:32Z</time>
      </trkpt>
      <trkpt lat="42.6562890" lon="-8.6423830">
        <ele>163.8</ele>
        <time>2021-05-23T07:14:33Z</time>
      </trkpt>
      <trkpt lat="42.6563110" lon="-8.6423850">
        <ele>163.7</ele>
        <time>2021-05-23T07:14:34Z</time>
      </trkpt>
      <trkpt lat="42.6563270" lon="-8.6423920">
        <ele>163.7</ele>
        <time>2021-05-23T07:14:35Z</time>
      </trkpt>
      <trkpt lat="42.6563320" lon="-8.6423950">
        <ele>163.7</ele>
        <time>2021-05-23T07:14:36Z</time>
      </trkpt>
      <trkpt lat="42.6563410" lon="-8.6423970">
        <ele>163.7</ele>
        <time>2021-05-23T07:14:37Z</time>
      </trkpt>
      <trkpt lat="42.6563490" lon="-8.6424010">
        <ele>163.7</ele>
        <time>2021-05-23T07:14:38Z</time>
      </trkpt>
      <trkpt lat="42.6563580" lon="-8.6424010">
        <ele>163.7</ele>
        <time>2021-05-23T07:14:39Z</time>
      </trkpt>
      <trkpt lat="42.6563730" lon="-8.6424020">
        <ele>163.7</ele>
        <time>2021-05-23T07:14:40Z</time>
      </trkpt>
      <trkpt lat="42.6563810" lon="-8.6424070">
        <ele>163.7</ele>
        <time>2021-05-23T07:14:41Z</time>
      </trkpt>
      <trkpt lat="42.6564000" lon="-8.6424090">
        <ele>163.7</ele>
        <time>2021-05-23T07:14:42Z</time>
      </trkpt>
      <trkpt lat="42.6564150" lon="-8.6424160">
        <ele>163.7</ele>
        <time>2021-05-23T07:14:43Z</time>
      </trkpt>
      <trkpt lat="42.6564220" lon="-8.6424220">
        <ele>163.7</ele>
        <time>2021-05-23T07:14:44Z</time>
      </trkpt>
      <trkpt lat="42.6564320" lon="-8.6424230">
        <ele>163.7</ele>
        <time>2021-05-23T07:14:45Z</time>
      </trkpt>
      <trkpt lat="42.6564530" lon="-8.6424290">
        <ele>163.7</ele>
        <time>2021-05-23T07:14:46Z</time>
      </trkpt>
      <trkpt lat="42.6564640" lon="-8.6424340">
        <ele>163.7</ele>
        <time>2021-05-23T07:14:47Z</time>
      </trkpt>
      <trkpt lat="42.6564740" lon="-8.6424390">
        <ele>163.7</ele>
        <time>2021-05-23T07:14:48Z</time>
      </trkpt>
      <trkpt lat="42.6564820" lon="-8.6424370">
        <ele>163.7</ele>
        <time>2021-05-23T07:14:49Z</time>
      </trkpt>
      <trkpt lat="42.6564920" lon="-8.6424420">
        <ele>163.7</ele>
        <time>2021-05-23T07:14:50Z</time>
      </trkpt>
      <trkpt lat="42.6565070" lon="-8.6424520">
        <ele>163.7</ele>
        <time>2021-05-23T07:14:51Z</time>
      </trkpt>
      <trkpt lat="42.6565290" lon="-8.6424590">
        <ele>163.7</ele>
        <time>2021-05-23T07:14:52Z</time>
      </trkpt>
      <trkpt lat="42.6565400" lon="-8.6424630">
        <ele>163.7</ele>
        <time>2021-05-23T07:14:53Z</time>
      </trkpt>
      <trkpt lat="42.6565520" lon="-8.6424680">
        <ele>163.7</ele>
        <time>2021-05-23T07:14:54Z</time>
      </trkpt>
      <trkpt lat="42.6565680" lon="-8.6424770">
        <ele>163.7</ele>
        <time>2021-05-23T07:14:55Z</time>
      </trkpt>
      <trkpt lat="42.6565760" lon="-8.6424830">
        <ele>163.7</ele>
        <time>2021-05-23T07:14:56Z</time>
      </trkpt>
      <trkpt lat="42.6565850" lon="-8.6424900">
        <ele>163.7</ele>
        <time>2021-05-23T07:14:57Z</time>
      </trkpt>
      <trkpt lat="42.6566030" lon="-8.6425020">
        <ele>163.7</ele>
        <time>2021-05-23T07:14:58Z</time>
      </trkpt>
      <trkpt lat="42.6566130" lon="-8.6425040">
        <ele>163.7</ele>
        <time>2021-05-23T07:14:59Z</time>
      </trkpt>
      <trkpt lat="42.6566220" lon="-8.6425070">
        <ele>163.7</ele>
        <time>2021-05-23T07:15:00Z</time>
      </trkpt>
      <trkpt lat="42.6566400" lon="-8.6425130">
        <ele>163.7</ele>
        <time>2021-05-23T07:15:01Z</time>
      </trkpt>
      <trkpt lat="42.6566530" lon="-8.6425200">
        <ele>163.7</ele>
        <time>2021-05-23T07:15:02Z</time>
      </trkpt>
      <trkpt lat="42.6566650" lon="-8.6425260">
        <ele>163.7</ele>
        <time>2021-05-23T07:15:03Z</time>
      </trkpt>
      <trkpt lat="42.6566810" lon="-8.6425310">
        <ele>163.7</ele>
        <time>2021-05-23T07:15:04Z</time>
      </trkpt>
      <trkpt lat="42.6566920" lon="-8.6425340">
        <ele>163.7</ele>
        <time>2021-05-23T07:15:05Z</time>
      </trkpt>
      <trkpt lat="42.6567080" lon="-8.6425390">
        <ele>163.7</ele>
        <time>2021-05-23T07:15:06Z</time>
      </trkpt>
      <trkpt lat="42.6567190" lon="-8.6425470">
        <ele>163.7</ele>
        <time>2021-05-23T07:15:07Z</time>
      </trkpt>
      <trkpt lat="42.6567290" lon="-8.6425540">
        <ele>163.7</ele>
        <time>2021-05-23T07:15:08Z</time>
      </trkpt>
      <trkpt lat="42.6567390" lon="-8.6425610">
        <ele>163.7</ele>
        <time>2021-05-23T07:15:09Z</time>
      </trkpt>
      <trkpt lat="42.6567540" lon="-8.6425710">
        <ele>163.7</ele>
        <time>2021-05-23T07:15:10Z</time>
      </trkpt>
      <trkpt lat="42.6567690" lon="-8.6425830">
        <ele>163.7</ele>
        <time>2021-05-23T07:15:11Z</time>
      </trkpt>
      <trkpt lat="42.6567770" lon="-8.6425870">
        <ele>163.7</ele>
        <time>2021-05-23T07:15:12Z</time>
      </trkpt>
      <trkpt lat="42.6567850" lon="-8.6425920">
        <ele>163.7</ele>
        <time>2021-05-23T07:15:13Z</time>
      </trkpt>
      <trkpt lat="42.6567930" lon="-8.6425970">
        <ele>163.7</ele>
        <time>2021-05-23T07:15:14Z</time>
      </trkpt>
      <trkpt lat="42.6568040" lon="-8.6426000">
        <ele>163.7</ele>
        <time>2021-05-23T07:15:15Z</time>
      </trkpt>
      <trkpt lat="42.6568060" lon="-8.6426030">
        <ele>163.7</ele>
        <time>2021-05-23T07:15:16Z</time>
      </trkpt>
      <trkpt lat="42.6568160" lon="-8.6426070">
        <ele>163.7</ele>
        <time>2021-05-23T07:15:17Z</time>
      </trkpt>
      <trkpt lat="42.6568250" lon="-8.6426090">
        <ele>163.7</ele>
        <time>2021-05-23T07:15:18Z</time>
      </trkpt>
      <trkpt lat="42.6568480" lon="-8.6426160">
        <ele>163.7</ele>
        <time>2021-05-23T07:15:19Z</time>
      </trkpt>
      <trkpt lat="42.6568570" lon="-8.6426200">
        <ele>163.7</ele>
        <time>2021-05-23T07:15:20Z</time>
      </trkpt>
      <trkpt lat="42.6568650" lon="-8.6426230">
        <ele>163.7</ele>
        <time>2021-05-23T07:15:21Z</time>
      </trkpt>
      <trkpt lat="42.6568820" lon="-8.6426230">
        <ele>163.7</ele>
        <time>2021-05-23T07:15:22Z</time>
      </trkpt>
      <trkpt lat="42.6568930" lon="-8.6426290">
        <ele>163.7</ele>
        <time>2021-05-23T07:15:23Z</time>
      </trkpt>
      <trkpt lat="42.6569060" lon="-8.6426340">
        <ele>163.7</ele>
        <time>2021-05-23T07:15:24Z</time>
      </trkpt>
      <trkpt lat="42.6569240" lon="-8.6426410">
        <ele>163.7</ele>
        <time>2021-05-23T07:15:25Z</time>
      </trkpt>
      <trkpt lat="42.6569350" lon="-8.6426490">
        <ele>163.7</ele>
        <time>2021-05-23T07:15:26Z</time>
      </trkpt>
      <trkpt lat="42.6569500" lon="-8.6426560">
        <ele>163.7</ele>
        <time>2021-05-23T07:15:27Z</time>
      </trkpt>
      <trkpt lat="42.6569620" lon="-8.6426700">
        <ele>163.7</ele>
        <time>2021-05-23T07:15:28Z</time>
      </trkpt>
      <trkpt lat="42.6569730" lon="-8.6426760">
        <ele>163.7</ele>
        <time>2021-05-23T07:15:29Z</time>
      </trkpt>
      <trkpt lat="42.6569820" lon="-8.6426850">
        <ele>163.7</ele>
        <time>2021-05-23T07:15:30Z</time>
      </trkpt>
      <trkpt lat="42.6569910" lon="-8.6426820">
        <ele>163.7</ele>
        <time>2021-05-23T07:15:31Z</time>
      </trkpt>
      <trkpt lat="42.6569970" lon="-8.6426830">
        <ele>163.7</ele>
        <time>2021-05-23T07:15:32Z</time>
      </trkpt>
      <trkpt lat="42.6569960" lon="-8.6426830">
        <ele>163.7</ele>
        <time>2021-05-23T07:15:33Z</time>
      </trkpt>
      <trkpt lat="42.6569880" lon="-8.6426790">
        <ele>163.7</ele>
        <time>2021-05-23T07:15:34Z</time>
      </trkpt>
      <trkpt lat="42.6569830" lon="-8.6426760">
        <ele>163.7</ele>
        <time>2021-05-23T07:15:35Z</time>
      </trkpt>
      <trkpt lat="42.6569830" lon="-8.6426770">
        <ele>163.7</ele>
        <time>2021-05-23T07:15:36Z</time>
      </trkpt>
      <trkpt lat="42.6569820" lon="-8.6426740">
        <ele>163.7</ele>
        <time>2021-05-23T07:15:37Z</time>
      </trkpt>
      <trkpt lat="42.6569860" lon="-8.6426710">
        <ele>163.7</ele>
        <time>2021-05-23T07:15:38Z</time>
      </trkpt>
      <trkpt lat="42.6569910" lon="-8.6426660">
        <ele>163.7</ele>
        <time>2021-05-23T07:15:39Z</time>
      </trkpt>
      <trkpt lat="42.6570060" lon="-8.6426580">
        <ele>163.7</ele>
        <time>2021-05-23T07:15:40Z</time>
      </trkpt>
      <trkpt lat="42.6570180" lon="-8.6426670">
        <ele>163.7</ele>
        <time>2021-05-23T07:15:41Z</time>
      </trkpt>
      <trkpt lat="42.6570240" lon="-8.6426800">
        <ele>163.7</ele>
        <time>2021-05-23T07:15:42Z</time>
      </trkpt>
      <trkpt lat="42.6570290" lon="-8.6426890">
        <ele>163.7</ele>
        <time>2021-05-23T07:15:43Z</time>
      </trkpt>
      <trkpt lat="42.6570460" lon="-8.6426940">
        <ele>163.7</ele>
        <time>2021-05-23T07:15:44Z</time>
      </trkpt>
      <trkpt lat="42.6570580" lon="-8.6427100">
        <ele>163.7</ele>
        <time>2021-05-23T07:15:45Z</time>
      </trkpt>
      <trkpt lat="42.6570760" lon="-8.6427170">
        <ele>163.7</ele>
        <time>2021-05-23T07:15:46Z</time>
      </trkpt>
      <trkpt lat="42.6570870" lon="-8.6427270">
        <ele>163.7</ele>
        <time>2021-05-23T07:15:47Z</time>
      </trkpt>
      <trkpt lat="42.6571000" lon="-8.6427380">
        <ele>163.8</ele>
        <time>2021-05-23T07:15:48Z</time>
      </trkpt>
      <trkpt lat="42.6571110" lon="-8.6427590">
        <ele>163.8</ele>
        <time>2021-05-23T07:15:49Z</time>
      </trkpt>
      <trkpt lat="42.6571290" lon="-8.6427630">
        <ele>163.8</ele>
        <time>2021-05-23T07:15:50Z</time>
      </trkpt>
      <trkpt lat="42.6571380" lon="-8.6427710">
        <ele>163.8</ele>
        <time>2021-05-23T07:15:51Z</time>
      </trkpt>
      <trkpt lat="42.6571470" lon="-8.6427780">
        <ele>163.8</ele>
        <time>2021-05-23T07:15:52Z</time>
      </trkpt>
      <trkpt lat="42.6571610" lon="-8.6427890">
        <ele>163.8</ele>
        <time>2021-05-23T07:15:53Z</time>
      </trkpt>
      <trkpt lat="42.6571760" lon="-8.6427970">
        <ele>163.8</ele>
        <time>2021-05-23T07:15:54Z</time>
      </trkpt>
      <trkpt lat="42.6571880" lon="-8.6428080">
        <ele>163.8</ele>
        <time>2021-05-23T07:15:55Z</time>
      </trkpt>
      <trkpt lat="42.6572020" lon="-8.6428170">
        <ele>163.8</ele>
        <time>2021-05-23T07:15:56Z</time>
      </trkpt>
      <trkpt lat="42.6572160" lon="-8.6428280">
        <ele>163.8</ele>
        <time>2021-05-23T07:15:57Z</time>
      </trkpt>
      <trkpt lat="42.6572250" lon="-8.6428370">
        <ele>163.8</ele>
        <time>2021-05-23T07:15:58Z</time>
      </trkpt>
      <trkpt lat="42.6572420" lon="-8.6428340">
        <ele>163.8</ele>
        <time>2021-05-23T07:15:59Z</time>
      </trkpt>
      <trkpt lat="42.6572590" lon="-8.6428370">
        <ele>163.8</ele>
        <time>2021-05-23T07:16:00Z</time>
      </trkpt>
      <trkpt lat="42.6572740" lon="-8.6428440">
        <ele>163.8</ele>
        <time>2021-05-23T07:16:01Z</time>
      </trkpt>
      <trkpt lat="42.6572870" lon="-8.6428440">
        <ele>163.8</ele>
        <time>2021-05-23T07:16:02Z</time>
      </trkpt>
      <trkpt lat="42.6573000" lon="-8.6428450">
        <ele>163.8</ele>
        <time>2021-05-23T07:16:03Z</time>
      </trkpt>
      <trkpt lat="42.6573160" lon="-8.6428410">
        <ele>163.8</ele>
        <time>2021-05-23T07:16:04Z</time>
      </trkpt>
      <trkpt lat="42.6573340" lon="-8.6428320">
        <ele>163.8</ele>
        <time>2021-05-23T07:16:05Z</time>
      </trkpt>
      <trkpt lat="42.6573460" lon="-8.6428240">
        <ele>163.7</ele>
        <time>2021-05-23T07:16:06Z</time>
      </trkpt>
      <trkpt lat="42.6573600" lon="-8.6428160">
        <ele>163.7</ele>
        <time>2021-05-23T07:16:07Z</time>
      </trkpt>
      <trkpt lat="42.6573750" lon="-8.6427990">
        <ele>163.7</ele>
        <time>2021-05-23T07:16:08Z</time>
      </trkpt>
      <trkpt lat="42.6573780" lon="-8.6427830">
        <ele>163.7</ele>
        <time>2021-05-23T07:16:09Z</time>
      </trkpt>
      <trkpt lat="42.6573840" lon="-8.6427590">
        <ele>163.7</ele>
        <time>2021-05-23T07:16:10Z</time>
      </trkpt>
      <trkpt lat="42.6573940" lon="-8.6427460">
        <ele>163.7</ele>
        <time>2021-05-23T07:16:11Z</time>
      </trkpt>
      <trkpt lat="42.6574060" lon="-8.6427280">
        <ele>163.6</ele>
        <time>2021-05-23T07:16:12Z</time>
      </trkpt>
      <trkpt lat="42.6574130" lon="-8.6427130">
        <ele>163.6</ele>
        <time>2021-05-23T07:16:13Z</time>
      </trkpt>
      <trkpt lat="42.6574250" lon="-8.6426970">
        <ele>163.6</ele>
        <time>2021-05-23T07:16:14Z</time>
      </trkpt>
      <trkpt lat="42.6574290" lon="-8.6426810">
        <ele>163.6</ele>
        <time>2021-05-23T07:16:15Z</time>
      </trkpt>
      <trkpt lat="42.6574400" lon="-8.6426650">
        <ele>163.6</ele>
        <time>2021-05-23T07:16:16Z</time>
      </trkpt>
      <trkpt lat="42.6574430" lon="-8.6426480">
        <ele>163.6</ele>
        <time>2021-05-23T07:16:17Z</time>
      </trkpt>
      <trkpt lat="42.6574540" lon="-8.6426320">
        <ele>163.6</ele>
        <time>2021-05-23T07:16:18Z</time>
      </trkpt>
      <trkpt lat="42.6574670" lon="-8.6426180">
        <ele>163.5</ele>
        <time>2021-05-23T07:16:19Z</time>
      </trkpt>
      <trkpt lat="42.6574740" lon="-8.6426000">
        <ele>163.5</ele>
        <time>2021-05-23T07:16:20Z</time>
      </trkpt>
      <trkpt lat="42.6574830" lon="-8.6425860">
        <ele>163.5</ele>
        <time>2021-05-23T07:16:21Z</time>
      </trkpt>
      <trkpt lat="42.6574940" lon="-8.6425750">
        <ele>163.5</ele>
        <time>2021-05-23T07:16:22Z</time>
      </trkpt>
      <trkpt lat="42.6575020" lon="-8.6425620">
        <ele>163.5</ele>
        <time>2021-05-23T07:16:23Z</time>
      </trkpt>
      <trkpt lat="42.6575110" lon="-8.6425450">
        <ele>163.5</ele>
        <time>2021-05-23T07:16:24Z</time>
      </trkpt>
      <trkpt lat="42.6575200" lon="-8.6425290">
        <ele>163.5</ele>
        <time>2021-05-23T07:16:25Z</time>
      </trkpt>
      <trkpt lat="42.6575290" lon="-8.6425120">
        <ele>163.5</ele>
        <time>2021-05-23T07:16:26Z</time>
      </trkpt>
      <trkpt lat="42.6575470" lon="-8.6425050">
        <ele>163.5</ele>
        <time>2021-05-23T07:16:27Z</time>
      </trkpt>
      <trkpt lat="42.6575520" lon="-8.6424820">
        <ele>163.5</ele>
        <time>2021-05-23T07:16:28Z</time>
      </trkpt>
      <trkpt lat="42.6575620" lon="-8.6424560">
        <ele>163.5</ele>
        <time>2021-05-23T07:16:29Z</time>
      </trkpt>
      <trkpt lat="42.6575690" lon="-8.6424430">
        <ele>163.5</ele>
        <time>2021-05-23T07:16:30Z</time>
      </trkpt>
      <trkpt lat="42.6575750" lon="-8.6424290">
        <ele>163.5</ele>
        <time>2021-05-23T07:16:31Z</time>
      </trkpt>
      <trkpt lat="42.6575880" lon="-8.6424150">
        <ele>163.5</ele>
        <time>2021-05-23T07:16:32Z</time>
      </trkpt>
      <trkpt lat="42.6576000" lon="-8.6424000">
        <ele>163.5</ele>
        <time>2021-05-23T07:16:33Z</time>
      </trkpt>
      <trkpt lat="42.6576060" lon="-8.6423800">
        <ele>163.4</ele>
        <time>2021-05-23T07:16:34Z</time>
      </trkpt>
      <trkpt lat="42.6576180" lon="-8.6423700">
        <ele>163.4</ele>
        <time>2021-05-23T07:16:35Z</time>
      </trkpt>
      <trkpt lat="42.6576270" lon="-8.6423420">
        <ele>163.4</ele>
        <time>2021-05-23T07:16:36Z</time>
      </trkpt>
      <trkpt lat="42.6576290" lon="-8.6423290">
        <ele>163.4</ele>
        <time>2021-05-23T07:16:37Z</time>
      </trkpt>
      <trkpt lat="42.6576320" lon="-8.6423170">
        <ele>163.4</ele>
        <time>2021-05-23T07:16:38Z</time>
      </trkpt>
      <trkpt lat="42.6576370" lon="-8.6422910">
        <ele>163.4</ele>
        <time>2021-05-23T07:16:39Z</time>
      </trkpt>
      <trkpt lat="42.6576420" lon="-8.6422780">
        <ele>163.4</ele>
        <time>2021-05-23T07:16:40Z</time>
      </trkpt>
      <trkpt lat="42.6576470" lon="-8.6422660">
        <ele>163.4</ele>
        <time>2021-05-23T07:16:41Z</time>
      </trkpt>
      <trkpt lat="42.6576460" lon="-8.6422470">
        <ele>163.4</ele>
        <time>2021-05-23T07:16:42Z</time>
      </trkpt>
      <trkpt lat="42.6576490" lon="-8.6422350">
        <ele>163.4</ele>
        <time>2021-05-23T07:16:43Z</time>
      </trkpt>
      <trkpt lat="42.6576480" lon="-8.6422220">
        <ele>163.4</ele>
        <time>2021-05-23T07:16:44Z</time>
      </trkpt>
      <trkpt lat="42.6576530" lon="-8.6422080">
        <ele>163.4</ele>
        <time>2021-05-23T07:16:45Z</time>
      </trkpt>
      <trkpt lat="42.6576560" lon="-8.6422020">
        <ele>163.4</ele>
        <time>2021-05-23T07:16:46Z</time>
      </trkpt>
      <trkpt lat="42.6576610" lon="-8.6421850">
        <ele>163.4</ele>
        <time>2021-05-23T07:16:47Z</time>
      </trkpt>
      <trkpt lat="42.6576720" lon="-8.6421720">
        <ele>163.4</ele>
        <time>2021-05-23T07:16:48Z</time>
      </trkpt>
      <trkpt lat="42.6576760" lon="-8.6421610">
        <ele>163.4</ele>
        <time>2021-05-23T07:16:49Z</time>
      </trkpt>
      <trkpt lat="42.6576790" lon="-8.6421510">
        <ele>163.4</ele>
        <time>2021-05-23T07:16:50Z</time>
      </trkpt>
      <trkpt lat="42.6576830" lon="-8.6421400">
        <ele>163.4</ele>
        <time>2021-05-23T07:16:51Z</time>
      </trkpt>
      <trkpt lat="42.6576870" lon="-8.6421210">
        <ele>163.4</ele>
        <time>2021-05-23T07:16:52Z</time>
      </trkpt>
      <trkpt lat="42.6576900" lon="-8.6421130">
        <ele>163.4</ele>
        <time>2021-05-23T07:16:53Z</time>
      </trkpt>
      <trkpt lat="42.6576970" lon="-8.6420960">
        <ele>163.5</ele>
        <time>2021-05-23T07:16:54Z</time>
      </trkpt>
      <trkpt lat="42.6577130" lon="-8.6420760">
        <ele>163.5</ele>
        <time>2021-05-23T07:16:55Z</time>
      </trkpt>
      <trkpt lat="42.6577180" lon="-8.6420680">
        <ele>163.5</ele>
        <time>2021-05-23T07:16:56Z</time>
      </trkpt>
      <trkpt lat="42.6577230" lon="-8.6420600">
        <ele>163.5</ele>
        <time>2021-05-23T07:16:57Z</time>
      </trkpt>
      <trkpt lat="42.6577260" lon="-8.6420570">
        <ele>163.5</ele>
        <time>2021-05-23T07:16:58Z</time>
      </trkpt>
      <trkpt lat="42.6577330" lon="-8.6420470">
        <ele>163.5</ele>
        <time>2021-05-23T07:16:59Z</time>
      </trkpt>
      <trkpt lat="42.6577350" lon="-8.6420370">
        <ele>163.5</ele>
        <time>2021-05-23T07:17:00Z</time>
      </trkpt>
      <trkpt lat="42.6577330" lon="-8.6420380">
        <ele>163.5</ele>
        <time>2021-05-23T07:17:01Z</time>
      </trkpt>
      <trkpt lat="42.6577270" lon="-8.6420440">
        <ele>163.5</ele>
        <time>2021-05-23T07:17:02Z</time>
      </trkpt>
      <trkpt lat="42.6577260" lon="-8.6420430">
        <ele>163.5</ele>
        <time>2021-05-23T07:17:03Z</time>
      </trkpt>
      <trkpt lat="42.6577230" lon="-8.6420430">
        <ele>163.5</ele>
        <time>2021-05-23T07:17:04Z</time>
      </trkpt>
      <trkpt lat="42.6577230" lon="-8.6420440">
        <ele>163.5</ele>
        <time>2021-05-23T07:17:05Z</time>
      </trkpt>
      <trkpt lat="42.6577210" lon="-8.6420450">
        <ele>163.5</ele>
        <time>2021-05-23T07:17:06Z</time>
      </trkpt>
      <trkpt lat="42.6577240" lon="-8.6420380">
        <ele>163.5</ele>
        <time>2021-05-23T07:17:07Z</time>
      </trkpt>
      <trkpt lat="42.6577270" lon="-8.6420300">
        <ele>163.5</ele>
        <time>2021-05-23T07:17:08Z</time>
      </trkpt>
      <trkpt lat="42.6577320" lon="-8.6420250">
        <ele>163.5</ele>
        <time>2021-05-23T07:17:09Z</time>
      </trkpt>
      <trkpt lat="42.6577370" lon="-8.6420190">
        <ele>163.5</ele>
        <time>2021-05-23T07:17:10Z</time>
      </trkpt>
      <trkpt lat="42.6577410" lon="-8.6420160">
        <ele>163.5</ele>
        <time>2021-05-23T07:17:11Z</time>
      </trkpt>
      <trkpt lat="42.6577420" lon="-8.6420140">
        <ele>163.5</ele>
        <time>2021-05-23T07:17:12Z</time>
      </trkpt>
      <trkpt lat="42.6577430" lon="-8.6420130">
        <ele>163.5</ele>
        <time>2021-05-23T07:17:13Z</time>
      </trkpt>
      <trkpt lat="42.6577440" lon="-8.6420110">
        <ele>163.5</ele>
        <time>2021-05-23T07:17:14Z</time>
      </trkpt>
      <trkpt lat="42.6577440" lon="-8.6420100">
        <ele>163.5</ele>
        <time>2021-05-23T07:17:15Z</time>
      </trkpt>
      <trkpt lat="42.6577450" lon="-8.6420080">
        <ele>163.5</ele>
        <time>2021-05-23T07:17:16Z</time>
      </trkpt>
      <trkpt lat="42.6577460" lon="-8.6420070">
        <ele>163.5</ele>
        <time>2021-05-23T07:17:17Z</time>
      </trkpt>
      <trkpt lat="42.6577470" lon="-8.6420050">
        <ele>163.5</ele>
        <time>2021-05-23T07:17:18Z</time>
      </trkpt>
      <trkpt lat="42.6577480" lon="-8.6420040">
        <ele>163.5</ele>
        <time>2021-05-23T07:17:19Z</time>
      </trkpt>
      <trkpt lat="42.6577490" lon="-8.6420020">
        <ele>163.5</ele>
        <time>2021-05-23T07:17:20Z</time>
      </trkpt>
      <trkpt lat="42.6577500" lon="-8.6420010">
        <ele>163.5</ele>
        <time>2021-05-23T07:17:21Z</time>
      </trkpt>
      <trkpt lat="42.6577510" lon="-8.6420000">
        <ele>163.5</ele>
        <time>2021-05-23T07:17:22Z</time>
      </trkpt>
      <trkpt lat="42.6577510" lon="-8.6419980">
        <ele>163.5</ele>
        <time>2021-05-23T07:17:23Z</time>
      </trkpt>
      <trkpt lat="42.6577520" lon="-8.6419970">
        <ele>163.5</ele>
        <time>2021-05-23T07:17:24Z</time>
      </trkpt>
      <trkpt lat="42.6577530" lon="-8.6419950">
        <ele>163.5</ele>
        <time>2021-05-23T07:17:25Z</time>
      </trkpt>
      <trkpt lat="42.6577540" lon="-8.6419940">
        <ele>163.5</ele>
        <time>2021-05-23T07:17:26Z</time>
      </trkpt>
      <trkpt lat="42.6577550" lon="-8.6419920">
        <ele>163.5</ele>
        <time>2021-05-23T07:17:27Z</time>
      </trkpt>
      <trkpt lat="42.6577560" lon="-8.6419910">
        <ele>163.5</ele>
        <time>2021-05-23T07:17:28Z</time>
      </trkpt>
      <trkpt lat="42.6577570" lon="-8.6419890">
        <ele>163.5</ele>
        <time>2021-05-23T07:17:29Z</time>
      </trkpt>
      <trkpt lat="42.6577580" lon="-8.6419880">
        <ele>163.5</ele>
        <time>2021-05-23T07:17:30Z</time>
      </trkpt>
      <trkpt lat="42.6577580" lon="-8.6419860">
        <ele>163.5</ele>
        <time>2021-05-23T07:17:31Z</time>
      </trkpt>
      <trkpt lat="42.6577590" lon="-8.6419850">
        <ele>163.5</ele>
        <time>2021-05-23T07:17:32Z</time>
      </trkpt>
      <trkpt lat="42.6577600" lon="-8.6419830">
        <ele>163.5</ele>
        <time>2021-05-23T07:17:33Z</time>
      </trkpt>
      <trkpt lat="42.6577610" lon="-8.6419820">
        <ele>163.5</ele>
        <time>2021-05-23T07:17:34Z</time>
      </trkpt>
      <trkpt lat="42.6577630" lon="-8.6419800">
        <ele>163.5</ele>
        <time>2021-05-23T07:17:35Z</time>
      </trkpt>
      <trkpt lat="42.6577650" lon="-8.6419800">
        <ele>163.5</ele>
        <time>2021-05-23T07:17:36Z</time>
      </trkpt>
      <trkpt lat="42.6577640" lon="-8.6419770">
        <ele>163.5</ele>
        <time>2021-05-23T07:17:37Z</time>
      </trkpt>
      <trkpt lat="42.6577650" lon="-8.6419780">
        <ele>163.5</ele>
        <time>2021-05-23T07:17:38Z</time>
      </trkpt>
      <trkpt lat="42.6577680" lon="-8.6419770">
        <ele>163.5</ele>
        <time>2021-05-23T07:17:39Z</time>
      </trkpt>
      <trkpt lat="42.6577720" lon="-8.6419760">
        <ele>163.5</ele>
        <time>2021-05-23T07:17:40Z</time>
      </trkpt>
      <trkpt lat="42.6577730" lon="-8.6419760">
        <ele>163.5</ele>
        <time>2021-05-23T07:17:41Z</time>
      </trkpt>
      <trkpt lat="42.6577690" lon="-8.6419750">
        <ele>163.5</ele>
        <time>2021-05-23T07:17:42Z</time>
      </trkpt>
      <trkpt lat="42.6577680" lon="-8.6419750">
        <ele>163.5</ele>
        <time>2021-05-23T07:17:43Z</time>
      </trkpt>
      <trkpt lat="42.6577680" lon="-8.6419740">
        <ele>163.5</ele>
        <time>2021-05-23T07:17:44Z</time>
      </trkpt>
      <trkpt lat="42.6577660" lon="-8.6419740">
        <ele>163.5</ele>
        <time>2021-05-23T07:17:45Z</time>
      </trkpt>
      <trkpt lat="42.6577660" lon="-8.6419710">
        <ele>163.5</ele>
        <time>2021-05-23T07:17:46Z</time>
      </trkpt>
      <trkpt lat="42.6577640" lon="-8.6419710">
        <ele>163.5</ele>
        <time>2021-05-23T07:17:47Z</time>
      </trkpt>
      <trkpt lat="42.6577580" lon="-8.6419730">
        <ele>163.4</ele>
        <time>2021-05-23T07:17:48Z</time>
      </trkpt>
      <trkpt lat="42.6577540" lon="-8.6419790">
        <ele>163.4</ele>
        <time>2021-05-23T07:17:49Z</time>
      </trkpt>
      <trkpt lat="42.6577550" lon="-8.6419750">
        <ele>163.4</ele>
        <time>2021-05-23T07:17:50Z</time>
      </trkpt>
      <trkpt lat="42.6577530" lon="-8.6419840">
        <ele>163.4</ele>
        <time>2021-05-23T07:17:51Z</time>
      </trkpt>
      <trkpt lat="42.6577490" lon="-8.6419850">
        <ele>163.4</ele>
        <time>2021-05-23T07:17:52Z</time>
      </trkpt>
      <trkpt lat="42.6577450" lon="-8.6419880">
        <ele>163.4</ele>
        <time>2021-05-23T07:17:53Z</time>
      </trkpt>
      <trkpt lat="42.6577410" lon="-8.6419900">
        <ele>163.4</ele>
        <time>2021-05-23T07:17:54Z</time>
      </trkpt>
      <trkpt lat="42.6577400" lon="-8.6419900">
        <ele>163.4</ele>
        <time>2021-05-23T07:17:55Z</time>
      </trkpt>
      <trkpt lat="42.6577390" lon="-8.6419920">
        <ele>163.4</ele>
        <time>2021-05-23T07:17:56Z</time>
      </trkpt>
      <trkpt lat="42.6577390" lon="-8.6419920">
        <ele>163.4</ele>
        <time>2021-05-23T07:17:57Z</time>
      </trkpt>
      <trkpt lat="42.6577400" lon="-8.6419960">
        <ele>163.4</ele>
        <time>2021-05-23T07:17:58Z</time>
      </trkpt>
      <trkpt lat="42.6577400" lon="-8.6419960">
        <ele>163.4</ele>
        <time>2021-05-23T07:17:59Z</time>
      </trkpt>
      <trkpt lat="42.6577400" lon="-8.6419970">
        <ele>163.3</ele>
        <time>2021-05-23T07:18:00Z</time>
      </trkpt>
      <trkpt lat="42.6577400" lon="-8.6419970">
        <ele>163.3</ele>
        <time>2021-05-23T07:18:01Z</time>
      </trkpt>
      <trkpt lat="42.6577420" lon="-8.6419950">
        <ele>163.3</ele>
        <time>2021-05-23T07:18:02Z</time>
      </trkpt>
      <trkpt lat="42.6577450" lon="-8.6419960">
        <ele>163.3</ele>
        <time>2021-05-23T07:18:03Z</time>
      </trkpt>
      <trkpt lat="42.6577450" lon="-8.6419970">
        <ele>163.3</ele>
        <time>2021-05-23T07:18:04Z</time>
      </trkpt>
      <trkpt lat="42.6577450" lon="-8.6419970">
        <ele>163.3</ele>
        <time>2021-05-23T07:18:05Z</time>
      </trkpt>
      <trkpt lat="42.6577430" lon="-8.6420010">
        <ele>163.3</ele>
        <time>2021-05-23T07:18:06Z</time>
      </trkpt>
      <trkpt lat="42.6577440" lon="-8.6420030">
        <ele>163.3</ele>
        <time>2021-05-23T07:18:07Z</time>
      </trkpt>
      <trkpt lat="42.6577460" lon="-8.6419990">
        <ele>163.3</ele>
        <time>2021-05-23T07:18:08Z</time>
      </trkpt>
      <trkpt lat="42.6577450" lon="-8.6419960">
        <ele>163.3</ele>
        <time>2021-05-23T07:18:09Z</time>
      </trkpt>
      <trkpt lat="42.6577410" lon="-8.6419980">
        <ele>163.3</ele>
        <time>2021-05-23T07:18:10Z</time>
      </trkpt>
      <trkpt lat="42.6577380" lon="-8.6420010">
        <ele>163.3</ele>
        <time>2021-05-23T07:18:11Z</time>
      </trkpt>
      <trkpt lat="42.6577380" lon="-8.6420010">
        <ele>163.3</ele>
        <time>2021-05-23T07:18:12Z</time>
      </trkpt>
      <trkpt lat="42.6577360" lon="-8.6419970">
        <ele>163.3</ele>
        <time>2021-05-23T07:18:13Z</time>
      </trkpt>
      <trkpt lat="42.6577360" lon="-8.6419980">
        <ele>163.3</ele>
        <time>2021-05-23T07:18:14Z</time>
      </trkpt>
      <trkpt lat="42.6577370" lon="-8.6420000">
        <ele>163.3</ele>
        <time>2021-05-23T07:18:15Z</time>
      </trkpt>
      <trkpt lat="42.6577360" lon="-8.6419990">
        <ele>163.3</ele>
        <time>2021-05-23T07:18:16Z</time>
      </trkpt>
      <trkpt lat="42.6577350" lon="-8.6419970">
        <ele>163.3</ele>
        <time>2021-05-23T07:18:17Z</time>
      </trkpt>
      <trkpt lat="42.6577330" lon="-8.6419990">
        <ele>163.3</ele>
        <time>2021-05-23T07:18:18Z</time>
      </trkpt>
      <trkpt lat="42.6577360" lon="-8.6420010">
        <ele>163.3</ele>
        <time>2021-05-23T07:18:19Z</time>
      </trkpt>
      <trkpt lat="42.6577380" lon="-8.6419990">
        <ele>163.3</ele>
        <time>2021-05-23T07:18:20Z</time>
      </trkpt>
      <trkpt lat="42.6577390" lon="-8.6419990">
        <ele>163.3</ele>
        <time>2021-05-23T07:18:21Z</time>
      </trkpt>
      <trkpt lat="42.6577370" lon="-8.6420040">
        <ele>163.3</ele>
        <time>2021-05-23T07:18:22Z</time>
      </trkpt>
      <trkpt lat="42.6577370" lon="-8.6420060">
        <ele>163.3</ele>
        <time>2021-05-23T07:18:23Z</time>
      </trkpt>
      <trkpt lat="42.6577350" lon="-8.6420130">
        <ele>163.3</ele>
        <time>2021-05-23T07:18:24Z</time>
      </trkpt>
      <trkpt lat="42.6577330" lon="-8.6420170">
        <ele>163.2</ele>
        <time>2021-05-23T07:18:25Z</time>
      </trkpt>
      <trkpt lat="42.6577320" lon="-8.6420230">
        <ele>163.2</ele>
        <time>2021-05-23T07:18:26Z</time>
      </trkpt>
      <trkpt lat="42.6577320" lon="-8.6420230">
        <ele>163.2</ele>
        <time>2021-05-23T07:18:27Z</time>
      </trkpt>
      <trkpt lat="42.6577340" lon="-8.6420320">
        <ele>163.2</ele>
        <time>2021-05-23T07:18:28Z</time>
      </trkpt>
      <trkpt lat="42.6577350" lon="-8.6420310">
        <ele>163.2</ele>
        <time>2021-05-23T07:18:29Z</time>
      </trkpt>
      <trkpt lat="42.6577320" lon="-8.6420330">
        <ele>163.2</ele>
        <time>2021-05-23T07:18:30Z</time>
      </trkpt>
      <trkpt lat="42.6577340" lon="-8.6420330">
        <ele>163.2</ele>
        <time>2021-05-23T07:18:31Z</time>
      </trkpt>
      <trkpt lat="42.6577360" lon="-8.6420330">
        <ele>163.2</ele>
        <time>2021-05-23T07:18:32Z</time>
      </trkpt>
      <trkpt lat="42.6577360" lon="-8.6420330">
        <ele>163.1</ele>
        <time>2021-05-23T07:18:33Z</time>
      </trkpt>
      <trkpt lat="42.6577340" lon="-8.6420340">
        <ele>163.1</ele>
        <time>2021-05-23T07:18:34Z</time>
      </trkpt>
      <trkpt lat="42.6577320" lon="-8.6420320">
        <ele>163.1</ele>
        <time>2021-05-23T07:18:35Z</time>
      </trkpt>
      <trkpt lat="42.6577350" lon="-8.6420320">
        <ele>163.1</ele>
        <time>2021-05-23T07:18:36Z</time>
      </trkpt>
      <trkpt lat="42.6577330" lon="-8.6420330">
        <ele>163.1</ele>
        <time>2021-05-23T07:18:37Z</time>
      </trkpt>
      <trkpt lat="42.6577320" lon="-8.6420370">
        <ele>163.1</ele>
        <time>2021-05-23T07:18:38Z</time>
      </trkpt>
      <trkpt lat="42.6577300" lon="-8.6420390">
        <ele>163.1</ele>
        <time>2021-05-23T07:18:39Z</time>
      </trkpt>
      <trkpt lat="42.6577270" lon="-8.6420430">
        <ele>163.1</ele>
        <time>2021-05-23T07:18:40Z</time>
      </trkpt>
      <trkpt lat="42.6577270" lon="-8.6420440">
        <ele>163.1</ele>
        <time>2021-05-23T07:18:41Z</time>
      </trkpt>
      <trkpt lat="42.6577270" lon="-8.6420430">
        <ele>163.1</ele>
        <time>2021-05-23T07:18:42Z</time>
      </trkpt>
      <trkpt lat="42.6577250" lon="-8.6420410">
        <ele>163.1</ele>
        <time>2021-05-23T07:18:43Z</time>
      </trkpt>
      <trkpt lat="42.6577220" lon="-8.6420380">
        <ele>163.1</ele>
        <time>2021-05-23T07:18:44Z</time>
      </trkpt>
      <trkpt lat="42.6577170" lon="-8.6420340">
        <ele>163.1</ele>
        <time>2021-05-23T07:18:45Z</time>
      </trkpt>
      <trkpt lat="42.6577200" lon="-8.6420250">
        <ele>163.0</ele>
        <time>2021-05-23T07:18:46Z</time>
      </trkpt>
      <trkpt lat="42.6577220" lon="-8.6420140">
        <ele>163.0</ele>
        <time>2021-05-23T07:18:47Z</time>
      </trkpt>
      <trkpt lat="42.6577250" lon="-8.6420100">
        <ele>163.0</ele>
        <time>2021-05-23T07:18:48Z</time>
      </trkpt>
      <trkpt lat="42.6577260" lon="-8.6420130">
        <ele>163.0</ele>
        <time>2021-05-23T07:18:49Z</time>
      </trkpt>
      <trkpt lat="42.6577270" lon="-8.6420140">
        <ele>163.0</ele>
        <time>2021-05-23T07:18:50Z</time>
      </trkpt>
      <trkpt lat="42.6577300" lon="-8.6420110">
        <ele>163.0</ele>
        <time>2021-05-23T07:18:51Z</time>
      </trkpt>
      <trkpt lat="42.6577340" lon="-8.6420120">
        <ele>163.0</ele>
        <time>2021-05-23T07:18:52Z</time>
      </trkpt>
      <trkpt lat="42.6577370" lon="-8.6420140">
        <ele>163.0</ele>
        <time>2021-05-23T07:18:53Z</time>
      </trkpt>
      <trkpt lat="42.6577370" lon="-8.6420150">
        <ele>163.0</ele>
        <time>2021-05-23T07:18:54Z</time>
      </trkpt>
      <trkpt lat="42.6577380" lon="-8.6420170">
        <ele>163.0</ele>
        <time>2021-05-23T07:18:55Z</time>
      </trkpt>
      <trkpt lat="42.6577380" lon="-8.6420180">
        <ele>163.0</ele>
        <time>2021-05-23T07:18:56Z</time>
      </trkpt>
      <trkpt lat="42.6577400" lon="-8.6420210">
        <ele>163.0</ele>
        <time>2021-05-23T07:18:57Z</time>
      </trkpt>
      <trkpt lat="42.6577420" lon="-8.6420200">
        <ele>163.0</ele>
        <time>2021-05-23T07:18:58Z</time>
      </trkpt>
      <trkpt lat="42.6577420" lon="-8.6420210">
        <ele>162.9</ele>
        <time>2021-05-23T07:18:59Z</time>
      </trkpt>
      <trkpt lat="42.6577430" lon="-8.6420210">
        <ele>162.9</ele>
        <time>2021-05-23T07:19:00Z</time>
      </trkpt>
      <trkpt lat="42.6577400" lon="-8.6420210">
        <ele>162.9</ele>
        <time>2021-05-23T07:19:01Z</time>
      </trkpt>
      <trkpt lat="42.6577410" lon="-8.6420190">
        <ele>162.9</ele>
        <time>2021-05-23T07:19:02Z</time>
      </trkpt>
      <trkpt lat="42.6577420" lon="-8.6420180">
        <ele>162.9</ele>
        <time>2021-05-23T07:19:03Z</time>
      </trkpt>
      <trkpt lat="42.6577420" lon="-8.6420180">
        <ele>162.9</ele>
        <time>2021-05-23T07:19:04Z</time>
      </trkpt>
      <trkpt lat="42.6577470" lon="-8.6420150">
        <ele>162.9</ele>
        <time>2021-05-23T07:19:05Z</time>
      </trkpt>
      <trkpt lat="42.6577490" lon="-8.6420170">
        <ele>162.9</ele>
        <time>2021-05-23T07:19:06Z</time>
      </trkpt>
      <trkpt lat="42.6577470" lon="-8.6420140">
        <ele>162.9</ele>
        <time>2021-05-23T07:19:07Z</time>
      </trkpt>
      <trkpt lat="42.6577510" lon="-8.6420120">
        <ele>162.9</ele>
        <time>2021-05-23T07:19:08Z</time>
      </trkpt>
      <trkpt lat="42.6577520" lon="-8.6420090">
        <ele>162.9</ele>
        <time>2021-05-23T07:19:09Z</time>
      </trkpt>
      <trkpt lat="42.6577530" lon="-8.6420090">
        <ele>162.9</ele>
        <time>2021-05-23T07:19:10Z</time>
      </trkpt>
      <trkpt lat="42.6577550" lon="-8.6420030">
        <ele>162.9</ele>
        <time>2021-05-23T07:19:11Z</time>
      </trkpt>
      <trkpt lat="42.6577570" lon="-8.6420030">
        <ele>162.9</ele>
        <time>2021-05-23T07:19:12Z</time>
      </trkpt>
      <trkpt lat="42.6577580" lon="-8.6420020">
        <ele>162.9</ele>
        <time>2021-05-23T07:19:13Z</time>
      </trkpt>
      <trkpt lat="42.6577610" lon="-8.6420020">
        <ele>162.9</ele>
        <time>2021-05-23T07:19:14Z</time>
      </trkpt>
      <trkpt lat="42.6577630" lon="-8.6420000">
        <ele>162.9</ele>
        <time>2021-05-23T07:19:15Z</time>
      </trkpt>
      <trkpt lat="42.6577670" lon="-8.6419980">
        <ele>162.8</ele>
        <time>2021-05-23T07:19:16Z</time>
      </trkpt>
      <trkpt lat="42.6577670" lon="-8.6419980">
        <ele>162.8</ele>
        <time>2021-05-23T07:19:17Z</time>
      </trkpt>
      <trkpt lat="42.6577670" lon="-8.6419980">
        <ele>162.8</ele>
        <time>2021-05-23T07:19:18Z</time>
      </trkpt>
      <trkpt lat="42.6577740" lon="-8.6419910">
        <ele>162.8</ele>
        <time>2021-05-23T07:19:19Z</time>
      </trkpt>
      <trkpt lat="42.6577740" lon="-8.6419910">
        <ele>162.8</ele>
        <time>2021-05-23T07:19:20Z</time>
      </trkpt>
      <trkpt lat="42.6577740" lon="-8.6419910">
        <ele>162.8</ele>
        <time>2021-05-23T07:19:21Z</time>
      </trkpt>
      <trkpt lat="42.6577740" lon="-8.6419910">
        <ele>162.8</ele>
        <time>2021-05-23T07:19:22Z</time>
      </trkpt>
      <trkpt lat="42.6577860" lon="-8.6419800">
        <ele>162.8</ele>
        <time>2021-05-23T07:19:23Z</time>
      </trkpt>
      <trkpt lat="42.6577910" lon="-8.6419750">
        <ele>162.8</ele>
        <time>2021-05-23T07:19:24Z</time>
      </trkpt>
      <trkpt lat="42.6577930" lon="-8.6419680">
        <ele>162.8</ele>
        <time>2021-05-23T07:19:25Z</time>
      </trkpt>
      <trkpt lat="42.6577880" lon="-8.6419680">
        <ele>162.8</ele>
        <time>2021-05-23T07:19:26Z</time>
      </trkpt>
      <trkpt lat="42.6577870" lon="-8.6419690">
        <ele>162.7</ele>
        <time>2021-05-23T07:19:27Z</time>
      </trkpt>
      <trkpt lat="42.6577820" lon="-8.6419750">
        <ele>162.7</ele>
        <time>2021-05-23T07:19:28Z</time>
      </trkpt>
      <trkpt lat="42.6577770" lon="-8.6419710">
        <ele>162.7</ele>
        <time>2021-05-23T07:19:29Z</time>
      </trkpt>
      <trkpt lat="42.6577780" lon="-8.6419710">
        <ele>162.7</ele>
        <time>2021-05-23T07:19:30Z</time>
      </trkpt>
      <trkpt lat="42.6577800" lon="-8.6419610">
        <ele>162.7</ele>
        <time>2021-05-23T07:19:31Z</time>
      </trkpt>
      <trkpt lat="42.6577910" lon="-8.6419500">
        <ele>162.7</ele>
        <time>2021-05-23T07:19:32Z</time>
      </trkpt>
      <trkpt lat="42.6577980" lon="-8.6419430">
        <ele>162.7</ele>
        <time>2021-05-23T07:19:33Z</time>
      </trkpt>
      <trkpt lat="42.6578090" lon="-8.6419190">
        <ele>162.6</ele>
        <time>2021-05-23T07:19:34Z</time>
      </trkpt>
      <trkpt lat="42.6578170" lon="-8.6419100">
        <ele>162.6</ele>
        <time>2021-05-23T07:19:35Z</time>
      </trkpt>
      <trkpt lat="42.6578220" lon="-8.6418990">
        <ele>162.6</ele>
        <time>2021-05-23T07:19:36Z</time>
      </trkpt>
      <trkpt lat="42.6578300" lon="-8.6418880">
        <ele>162.5</ele>
        <time>2021-05-23T07:19:37Z</time>
      </trkpt>
      <trkpt lat="42.6578450" lon="-8.6418680">
        <ele>162.5</ele>
        <time>2021-05-23T07:19:38Z</time>
      </trkpt>
      <trkpt lat="42.6578530" lon="-8.6418610">
        <ele>162.5</ele>
        <time>2021-05-23T07:19:39Z</time>
      </trkpt>
      <trkpt lat="42.6578600" lon="-8.6418530">
        <ele>162.5</ele>
        <time>2021-05-23T07:19:40Z</time>
      </trkpt>
      <trkpt lat="42.6578680" lon="-8.6418290">
        <ele>162.4</ele>
        <time>2021-05-23T07:19:41Z</time>
      </trkpt>
      <trkpt lat="42.6578730" lon="-8.6418190">
        <ele>162.4</ele>
        <time>2021-05-23T07:19:42Z</time>
      </trkpt>
      <trkpt lat="42.6578780" lon="-8.6418090">
        <ele>162.4</ele>
        <time>2021-05-23T07:19:43Z</time>
      </trkpt>
      <trkpt lat="42.6578800" lon="-8.6417940">
        <ele>162.4</ele>
        <time>2021-05-23T07:19:44Z</time>
      </trkpt>
      <trkpt lat="42.6578870" lon="-8.6417820">
        <ele>162.3</ele>
        <time>2021-05-23T07:19:45Z</time>
      </trkpt>
      <trkpt lat="42.6578890" lon="-8.6417710">
        <ele>162.3</ele>
        <time>2021-05-23T07:19:46Z</time>
      </trkpt>
      <trkpt lat="42.6578960" lon="-8.6417550">
        <ele>162.3</ele>
        <time>2021-05-23T07:19:47Z</time>
      </trkpt>
      <trkpt lat="42.6578980" lon="-8.6417410">
        <ele>162.3</ele>
        <time>2021-05-23T07:19:48Z</time>
      </trkpt>
      <trkpt lat="42.6579020" lon="-8.6417310">
        <ele>162.3</ele>
        <time>2021-05-23T07:19:49Z</time>
      </trkpt>
      <trkpt lat="42.6579140" lon="-8.6417100">
        <ele>162.2</ele>
        <time>2021-05-23T07:19:50Z</time>
      </trkpt>
      <trkpt lat="42.6579160" lon="-8.6416960">
        <ele>162.2</ele>
        <time>2021-05-23T07:19:51Z</time>
      </trkpt>
      <trkpt lat="42.6579200" lon="-8.6416880">
        <ele>162.2</ele>
        <time>2021-05-23T07:19:52Z</time>
      </trkpt>
      <trkpt lat="42.6579240" lon="-8.6416750">
        <ele>162.2</ele>
        <time>2021-05-23T07:19:53Z</time>
      </trkpt>
      <trkpt lat="42.6579300" lon="-8.6416570">
        <ele>162.2</ele>
        <time>2021-05-23T07:19:54Z</time>
      </trkpt>
      <trkpt lat="42.6579320" lon="-8.6416320">
        <ele>162.1</ele>
        <time>2021-05-23T07:19:55Z</time>
      </trkpt>
      <trkpt lat="42.6579340" lon="-8.6416190">
        <ele>162.1</ele>
        <time>2021-05-23T07:19:56Z</time>
      </trkpt>
      <trkpt lat="42.6579360" lon="-8.6416050">
        <ele>162.1</ele>
        <time>2021-05-23T07:19:57Z</time>
      </trkpt>
      <trkpt lat="42.6579400" lon="-8.6415930">
        <ele>162.1</ele>
        <time>2021-05-23T07:19:58Z</time>
      </trkpt>
      <trkpt lat="42.6579520" lon="-8.6415800">
        <ele>162.1</ele>
        <time>2021-05-23T07:19:59Z</time>
      </trkpt>
      <trkpt lat="42.6579540" lon="-8.6415660">
        <ele>162.1</ele>
        <time>2021-05-23T07:20:00Z</time>
      </trkpt>
      <trkpt lat="42.6579620" lon="-8.6415410">
        <ele>162.0</ele>
        <time>2021-05-23T07:20:01Z</time>
      </trkpt>
      <trkpt lat="42.6579580" lon="-8.6415230">
        <ele>162.0</ele>
        <time>2021-05-23T07:20:02Z</time>
      </trkpt>
      <trkpt lat="42.6579650" lon="-8.6415090">
        <ele>162.0</ele>
        <time>2021-05-23T07:20:03Z</time>
      </trkpt>
      <trkpt lat="42.6579660" lon="-8.6414860">
        <ele>162.0</ele>
        <time>2021-05-23T07:20:04Z</time>
      </trkpt>
      <trkpt lat="42.6579740" lon="-8.6414560">
        <ele>162.0</ele>
        <time>2021-05-23T07:20:05Z</time>
      </trkpt>
      <trkpt lat="42.6579760" lon="-8.6414460">
        <ele>161.9</ele>
        <time>2021-05-23T07:20:06Z</time>
      </trkpt>
      <trkpt lat="42.6579770" lon="-8.6414370">
        <ele>161.9</ele>
        <time>2021-05-23T07:20:07Z</time>
      </trkpt>
      <trkpt lat="42.6579820" lon="-8.6414150">
        <ele>161.9</ele>
        <time>2021-05-23T07:20:08Z</time>
      </trkpt>
      <trkpt lat="42.6579860" lon="-8.6414000">
        <ele>161.9</ele>
        <time>2021-05-23T07:20:09Z</time>
      </trkpt>
      <trkpt lat="42.6579910" lon="-8.6413860">
        <ele>161.9</ele>
        <time>2021-05-23T07:20:10Z</time>
      </trkpt>
      <trkpt lat="42.6579910" lon="-8.6413650">
        <ele>161.9</ele>
        <time>2021-05-23T07:20:11Z</time>
      </trkpt>
      <trkpt lat="42.6579890" lon="-8.6413470">
        <ele>161.9</ele>
        <time>2021-05-23T07:20:12Z</time>
      </trkpt>
      <trkpt lat="42.6579860" lon="-8.6413210">
        <ele>161.9</ele>
        <time>2021-05-23T07:20:13Z</time>
      </trkpt>
      <trkpt lat="42.6579840" lon="-8.6413080">
        <ele>161.9</ele>
        <time>2021-05-23T07:20:14Z</time>
      </trkpt>
      <trkpt lat="42.6579830" lon="-8.6412950">
        <ele>161.9</ele>
        <time>2021-05-23T07:20:15Z</time>
      </trkpt>
      <trkpt lat="42.6579830" lon="-8.6412890">
        <ele>161.9</ele>
        <time>2021-05-23T07:20:16Z</time>
      </trkpt>
      <trkpt lat="42.6579870" lon="-8.6412700">
        <ele>161.9</ele>
        <time>2021-05-23T07:20:17Z</time>
      </trkpt>
      <trkpt lat="42.6579900" lon="-8.6412470">
        <ele>161.9</ele>
        <time>2021-05-23T07:20:18Z</time>
      </trkpt>
      <trkpt lat="42.6579920" lon="-8.6412170">
        <ele>161.9</ele>
        <time>2021-05-23T07:20:19Z</time>
      </trkpt>
      <trkpt lat="42.6579920" lon="-8.6412060">
        <ele>161.8</ele>
        <time>2021-05-23T07:20:20Z</time>
      </trkpt>
      <trkpt lat="42.6579930" lon="-8.6411960">
        <ele>161.8</ele>
        <time>2021-05-23T07:20:21Z</time>
      </trkpt>
      <trkpt lat="42.6579920" lon="-8.6411790">
        <ele>161.8</ele>
        <time>2021-05-23T07:20:22Z</time>
      </trkpt>
      <trkpt lat="42.6579970" lon="-8.6411670">
        <ele>161.8</ele>
        <time>2021-05-23T07:20:23Z</time>
      </trkpt>
      <trkpt lat="42.6580020" lon="-8.6411510">
        <ele>161.8</ele>
        <time>2021-05-23T07:20:24Z</time>
      </trkpt>
      <trkpt lat="42.6580120" lon="-8.6411270">
        <ele>161.8</ele>
        <time>2021-05-23T07:20:25Z</time>
      </trkpt>
      <trkpt lat="42.6580160" lon="-8.6411160">
        <ele>161.8</ele>
        <time>2021-05-23T07:20:26Z</time>
      </trkpt>
      <trkpt lat="42.6580200" lon="-8.6411050">
        <ele>161.8</ele>
        <time>2021-05-23T07:20:27Z</time>
      </trkpt>
      <trkpt lat="42.6580170" lon="-8.6410750">
        <ele>161.8</ele>
        <time>2021-05-23T07:20:28Z</time>
      </trkpt>
      <trkpt lat="42.6580180" lon="-8.6410650">
        <ele>161.8</ele>
        <time>2021-05-23T07:20:29Z</time>
      </trkpt>
      <trkpt lat="42.6580200" lon="-8.6410540">
        <ele>161.8</ele>
        <time>2021-05-23T07:20:30Z</time>
      </trkpt>
      <trkpt lat="42.6580460" lon="-8.6410320">
        <ele>161.8</ele>
        <time>2021-05-23T07:20:31Z</time>
      </trkpt>
      <trkpt lat="42.6580500" lon="-8.6410210">
        <ele>161.8</ele>
        <time>2021-05-23T07:20:32Z</time>
      </trkpt>
      <trkpt lat="42.6580570" lon="-8.6409930">
        <ele>161.8</ele>
        <time>2021-05-23T07:20:33Z</time>
      </trkpt>
      <trkpt lat="42.6580450" lon="-8.6409820">
        <ele>161.8</ele>
        <time>2021-05-23T07:20:34Z</time>
      </trkpt>
      <trkpt lat="42.6580470" lon="-8.6409480">
        <ele>161.8</ele>
        <time>2021-05-23T07:20:35Z</time>
      </trkpt>
      <trkpt lat="42.6580500" lon="-8.6409340">
        <ele>161.8</ele>
        <time>2021-05-23T07:20:36Z</time>
      </trkpt>
      <trkpt lat="42.6580520" lon="-8.6409200">
        <ele>161.8</ele>
        <time>2021-05-23T07:20:37Z</time>
      </trkpt>
      <trkpt lat="42.6580510" lon="-8.6409020">
        <ele>161.7</ele>
        <time>2021-05-23T07:20:38Z</time>
      </trkpt>
      <trkpt lat="42.6580500" lon="-8.6408940">
        <ele>161.7</ele>
        <time>2021-05-23T07:20:39Z</time>
      </trkpt>
      <trkpt lat="42.6580520" lon="-8.6408760">
        <ele>161.7</ele>
        <time>2021-05-23T07:20:40Z</time>
      </trkpt>
      <trkpt lat="42.6580450" lon="-8.6408560">
        <ele>161.7</ele>
        <time>2021-05-23T07:20:41Z</time>
      </trkpt>
      <trkpt lat="42.6580530" lon="-8.6408330">
        <ele>161.7</ele>
        <time>2021-05-23T07:20:42Z</time>
      </trkpt>
      <trkpt lat="42.6580630" lon="-8.6408060">
        <ele>161.7</ele>
        <time>2021-05-23T07:20:43Z</time>
      </trkpt>
      <trkpt lat="42.6580610" lon="-8.6407970">
        <ele>161.7</ele>
        <time>2021-05-23T07:20:44Z</time>
      </trkpt>
      <trkpt lat="42.6580660" lon="-8.6407730">
        <ele>161.7</ele>
        <time>2021-05-23T07:20:45Z</time>
      </trkpt>
      <trkpt lat="42.6580740" lon="-8.6407570">
        <ele>161.7</ele>
        <time>2021-05-23T07:20:46Z</time>
      </trkpt>
      <trkpt lat="42.6580750" lon="-8.6407460">
        <ele>161.6</ele>
        <time>2021-05-23T07:20:47Z</time>
      </trkpt>
      <trkpt lat="42.6580750" lon="-8.6407190">
        <ele>161.6</ele>
        <time>2021-05-23T07:20:48Z</time>
      </trkpt>
      <trkpt lat="42.6580800" lon="-8.6406820">
        <ele>161.6</ele>
        <time>2021-05-23T07:20:49Z</time>
      </trkpt>
      <trkpt lat="42.6580840" lon="-8.6406710">
        <ele>161.6</ele>
        <time>2021-05-23T07:20:50Z</time>
      </trkpt>
      <trkpt lat="42.6580920" lon="-8.6406530">
        <ele>161.5</ele>
        <time>2021-05-23T07:20:51Z</time>
      </trkpt>
      <trkpt lat="42.6581020" lon="-8.6406350">
        <ele>161.5</ele>
        <time>2021-05-23T07:20:52Z</time>
      </trkpt>
      <trkpt lat="42.6581180" lon="-8.6406170">
        <ele>161.5</ele>
        <time>2021-05-23T07:20:53Z</time>
      </trkpt>
      <trkpt lat="42.6581230" lon="-8.6405970">
        <ele>161.4</ele>
        <time>2021-05-23T07:20:54Z</time>
      </trkpt>
      <trkpt lat="42.6581280" lon="-8.6405590">
        <ele>161.4</ele>
        <time>2021-05-23T07:20:55Z</time>
      </trkpt>
      <trkpt lat="42.6581270" lon="-8.6405450">
        <ele>161.4</ele>
        <time>2021-05-23T07:20:56Z</time>
      </trkpt>
      <trkpt lat="42.6581270" lon="-8.6405180">
        <ele>161.3</ele>
        <time>2021-05-23T07:20:57Z</time>
      </trkpt>
      <trkpt lat="42.6581310" lon="-8.6405030">
        <ele>161.3</ele>
        <time>2021-05-23T07:20:58Z</time>
      </trkpt>
      <trkpt lat="42.6581420" lon="-8.6404880">
        <ele>161.2</ele>
        <time>2021-05-23T07:20:59Z</time>
      </trkpt>
      <trkpt lat="42.6581420" lon="-8.6404760">
        <ele>161.2</ele>
        <time>2021-05-23T07:21:00Z</time>
      </trkpt>
      <trkpt lat="42.6581440" lon="-8.6404580">
        <ele>161.1</ele>
        <time>2021-05-23T07:21:01Z</time>
      </trkpt>
      <trkpt lat="42.6581480" lon="-8.6404370">
        <ele>161.1</ele>
        <time>2021-05-23T07:21:02Z</time>
      </trkpt>
      <trkpt lat="42.6581440" lon="-8.6404230">
        <ele>161.0</ele>
        <time>2021-05-23T07:21:03Z</time>
      </trkpt>
      <trkpt lat="42.6581410" lon="-8.6404130">
        <ele>161.0</ele>
        <time>2021-05-23T07:21:04Z</time>
      </trkpt>
      <trkpt lat="42.6581390" lon="-8.6403940">
        <ele>161.0</ele>
        <time>2021-05-23T07:21:05Z</time>
      </trkpt>
      <trkpt lat="42.6581410" lon="-8.6403830">
        <ele>160.9</ele>
        <time>2021-05-23T07:21:06Z</time>
      </trkpt>
      <trkpt lat="42.6581420" lon="-8.6403720">
        <ele>160.9</ele>
        <time>2021-05-23T07:21:07Z</time>
      </trkpt>
      <trkpt lat="42.6581400" lon="-8.6403470">
        <ele>160.8</ele>
        <time>2021-05-23T07:21:08Z</time>
      </trkpt>
      <trkpt lat="42.6581400" lon="-8.6403350">
        <ele>160.8</ele>
        <time>2021-05-23T07:21:09Z</time>
      </trkpt>
      <trkpt lat="42.6581470" lon="-8.6403080">
        <ele>160.7</ele>
        <time>2021-05-23T07:21:10Z</time>
      </trkpt>
      <trkpt lat="42.6581480" lon="-8.6402970">
        <ele>160.6</ele>
        <time>2021-05-23T07:21:11Z</time>
      </trkpt>
      <trkpt lat="42.6581500" lon="-8.6402860">
        <ele>160.6</ele>
        <time>2021-05-23T07:21:12Z</time>
      </trkpt>
      <trkpt lat="42.6581610" lon="-8.6402590">
        <ele>160.5</ele>
        <time>2021-05-23T07:21:13Z</time>
      </trkpt>
      <trkpt lat="42.6581640" lon="-8.6402470">
        <ele>160.4</ele>
        <time>2021-05-23T07:21:14Z</time>
      </trkpt>
      <trkpt lat="42.6581660" lon="-8.6402340">
        <ele>160.4</ele>
        <time>2021-05-23T07:21:15Z</time>
      </trkpt>
      <trkpt lat="42.6581680" lon="-8.6402090">
        <ele>160.3</ele>
        <time>2021-05-23T07:21:16Z</time>
      </trkpt>
      <trkpt lat="42.6581630" lon="-8.6402070">
        <ele>160.2</ele>
        <time>2021-05-23T07:21:17Z</time>
      </trkpt>
      <trkpt lat="42.6581680" lon="-8.6401950">
        <ele>160.2</ele>
        <time>2021-05-23T07:21:18Z</time>
      </trkpt>
      <trkpt lat="42.6581770" lon="-8.6401710">
        <ele>160.1</ele>
        <time>2021-05-23T07:21:19Z</time>
      </trkpt>
      <trkpt lat="42.6581850" lon="-8.6401520">
        <ele>160.0</ele>
        <time>2021-05-23T07:21:20Z</time>
      </trkpt>
      <trkpt lat="42.6581950" lon="-8.6401300">
        <ele>159.9</ele>
        <time>2021-05-23T07:21:21Z</time>
      </trkpt>
      <trkpt lat="42.6582000" lon="-8.6401150">
        <ele>159.8</ele>
        <time>2021-05-23T07:21:22Z</time>
      </trkpt>
      <trkpt lat="42.6582130" lon="-8.6400820">
        <ele>159.7</ele>
        <time>2021-05-23T07:21:23Z</time>
      </trkpt>
      <trkpt lat="42.6582170" lon="-8.6400690">
        <ele>159.6</ele>
        <time>2021-05-23T07:21:24Z</time>
      </trkpt>
      <trkpt lat="42.6582300" lon="-8.6400630">
        <ele>159.5</ele>
        <time>2021-05-23T07:21:25Z</time>
      </trkpt>
      <trkpt lat="42.6582390" lon="-8.6400520">
        <ele>159.5</ele>
        <time>2021-05-23T07:21:26Z</time>
      </trkpt>
      <trkpt lat="42.6582470" lon="-8.6400430">
        <ele>159.4</ele>
        <time>2021-05-23T07:21:27Z</time>
      </trkpt>
      <trkpt lat="42.6582560" lon="-8.6400350">
        <ele>159.3</ele>
        <time>2021-05-23T07:21:28Z</time>
      </trkpt>
      <trkpt lat="42.6582680" lon="-8.6400300">
        <ele>159.3</ele>
        <time>2021-05-23T07:21:29Z</time>
      </trkpt>
      <trkpt lat="42.6582710" lon="-8.6400210">
        <ele>159.2</ele>
        <time>2021-05-23T07:21:30Z</time>
      </trkpt>
      <trkpt lat="42.6582830" lon="-8.6400060">
        <ele>159.1</ele>
        <time>2021-05-23T07:21:31Z</time>
      </trkpt>
      <trkpt lat="42.6582880" lon="-8.6399990">
        <ele>159.1</ele>
        <time>2021-05-23T07:21:32Z</time>
      </trkpt>
      <trkpt lat="42.6582930" lon="-8.6399910">
        <ele>159.1</ele>
        <time>2021-05-23T07:21:33Z</time>
      </trkpt>
      <trkpt lat="42.6582980" lon="-8.6399830">
        <ele>159.0</ele>
        <time>2021-05-23T07:21:34Z</time>
      </trkpt>
      <trkpt lat="42.6583040" lon="-8.6399750">
        <ele>159.0</ele>
        <time>2021-05-23T07:21:35Z</time>
      </trkpt>
      <trkpt lat="42.6583160" lon="-8.6399730">
        <ele>158.9</ele>
        <time>2021-05-23T07:21:36Z</time>
      </trkpt>
      <trkpt lat="42.6583260" lon="-8.6399670">
        <ele>158.8</ele>
        <time>2021-05-23T07:21:37Z</time>
      </trkpt>
      <trkpt lat="42.6583340" lon="-8.6399620">
        <ele>158.8</ele>
        <time>2021-05-23T07:21:38Z</time>
      </trkpt>
      <trkpt lat="42.6583440" lon="-8.6399590">
        <ele>158.7</ele>
        <time>2021-05-23T07:21:39Z</time>
      </trkpt>
      <trkpt lat="42.6583530" lon="-8.6399560">
        <ele>158.6</ele>
        <time>2021-05-23T07:21:40Z</time>
      </trkpt>
      <trkpt lat="42.6583620" lon="-8.6399530">
        <ele>158.6</ele>
        <time>2021-05-23T07:21:41Z</time>
      </trkpt>
      <trkpt lat="42.6583770" lon="-8.6399520">
        <ele>158.5</ele>
        <time>2021-05-23T07:21:42Z</time>
      </trkpt>
      <trkpt lat="42.6583940" lon="-8.6399440">
        <ele>158.3</ele>
        <time>2021-05-23T07:21:43Z</time>
      </trkpt>
      <trkpt lat="42.6584080" lon="-8.6399380">
        <ele>158.2</ele>
        <time>2021-05-23T07:21:44Z</time>
      </trkpt>
      <trkpt lat="42.6584150" lon="-8.6399340">
        <ele>158.2</ele>
        <time>2021-05-23T07:21:45Z</time>
      </trkpt>
      <trkpt lat="42.6584210" lon="-8.6399290">
        <ele>158.1</ele>
        <time>2021-05-23T07:21:46Z</time>
      </trkpt>
      <trkpt lat="42.6584280" lon="-8.6399240">
        <ele>158.1</ele>
        <time>2021-05-23T07:21:47Z</time>
      </trkpt>
      <trkpt lat="42.6584440" lon="-8.6399250">
        <ele>157.9</ele>
        <time>2021-05-23T07:21:48Z</time>
      </trkpt>
      <trkpt lat="42.6584570" lon="-8.6399200">
        <ele>157.8</ele>
        <time>2021-05-23T07:21:49Z</time>
      </trkpt>
      <trkpt lat="42.6584730" lon="-8.6399110">
        <ele>157.7</ele>
        <time>2021-05-23T07:21:50Z</time>
      </trkpt>
      <trkpt lat="42.6584800" lon="-8.6399040">
        <ele>157.6</ele>
        <time>2021-05-23T07:21:51Z</time>
      </trkpt>
      <trkpt lat="42.6584850" lon="-8.6399010">
        <ele>157.6</ele>
        <time>2021-05-23T07:21:52Z</time>
      </trkpt>
      <trkpt lat="42.6584990" lon="-8.6398840">
        <ele>157.4</ele>
        <time>2021-05-23T07:21:53Z</time>
      </trkpt>
      <trkpt lat="42.6585120" lon="-8.6398760">
        <ele>157.3</ele>
        <time>2021-05-23T07:21:54Z</time>
      </trkpt>
      <trkpt lat="42.6585230" lon="-8.6398560">
        <ele>157.2</ele>
        <time>2021-05-23T07:21:55Z</time>
      </trkpt>
      <trkpt lat="42.6585380" lon="-8.6398510">
        <ele>157.0</ele>
        <time>2021-05-23T07:21:56Z</time>
      </trkpt>
      <trkpt lat="42.6585470" lon="-8.6398460">
        <ele>157.0</ele>
        <time>2021-05-23T07:21:57Z</time>
      </trkpt>
      <trkpt lat="42.6585570" lon="-8.6398340">
        <ele>156.8</ele>
        <time>2021-05-23T07:21:58Z</time>
      </trkpt>
      <trkpt lat="42.6585600" lon="-8.6398280">
        <ele>156.8</ele>
        <time>2021-05-23T07:21:59Z</time>
      </trkpt>
      <trkpt lat="42.6585690" lon="-8.6398100">
        <ele>156.7</ele>
        <time>2021-05-23T07:22:00Z</time>
      </trkpt>
      <trkpt lat="42.6585750" lon="-8.6397900">
        <ele>156.5</ele>
        <time>2021-05-23T07:22:01Z</time>
      </trkpt>
      <trkpt lat="42.6585890" lon="-8.6397750">
        <ele>156.4</ele>
        <time>2021-05-23T07:22:02Z</time>
      </trkpt>
      <trkpt lat="42.6585970" lon="-8.6397640">
        <ele>156.3</ele>
        <time>2021-05-23T07:22:03Z</time>
      </trkpt>
      <trkpt lat="42.6586070" lon="-8.6397380">
        <ele>156.1</ele>
        <time>2021-05-23T07:22:04Z</time>
      </trkpt>
      <trkpt lat="42.6586140" lon="-8.6397230">
        <ele>156.0</ele>
        <time>2021-05-23T07:22:05Z</time>
      </trkpt>
      <trkpt lat="42.6586210" lon="-8.6397070">
        <ele>155.8</ele>
        <time>2021-05-23T07:22:06Z</time>
      </trkpt>
      <trkpt lat="42.6586360" lon="-8.6396810">
        <ele>155.6</ele>
        <time>2021-05-23T07:22:07Z</time>
      </trkpt>
      <trkpt lat="42.6586400" lon="-8.6396710">
        <ele>155.5</ele>
        <time>2021-05-23T07:22:08Z</time>
      </trkpt>
      <trkpt lat="42.6586440" lon="-8.6396610">
        <ele>155.5</ele>
        <time>2021-05-23T07:22:09Z</time>
      </trkpt>
      <trkpt lat="42.6586530" lon="-8.6396300">
        <ele>155.2</ele>
        <time>2021-05-23T07:22:10Z</time>
      </trkpt>
      <trkpt lat="42.6586560" lon="-8.6396200">
        <ele>155.2</ele>
        <time>2021-05-23T07:22:11Z</time>
      </trkpt>
      <trkpt lat="42.6586590" lon="-8.6396090">
        <ele>155.1</ele>
        <time>2021-05-23T07:22:12Z</time>
      </trkpt>
      <trkpt lat="42.6586660" lon="-8.6395910">
        <ele>155.0</ele>
        <time>2021-05-23T07:22:13Z</time>
      </trkpt>
      <trkpt lat="42.6586670" lon="-8.6395690">
        <ele>154.9</ele>
        <time>2021-05-23T07:22:14Z</time>
      </trkpt>
      <trkpt lat="42.6586710" lon="-8.6395550">
        <ele>154.8</ele>
        <time>2021-05-23T07:22:15Z</time>
      </trkpt>
      <trkpt lat="42.6586860" lon="-8.6395400">
        <ele>154.6</ele>
        <time>2021-05-23T07:22:16Z</time>
      </trkpt>
      <trkpt lat="42.6586840" lon="-8.6395170">
        <ele>154.5</ele>
        <time>2021-05-23T07:22:17Z</time>
      </trkpt>
      <trkpt lat="42.6586850" lon="-8.6395050">
        <ele>154.4</ele>
        <time>2021-05-23T07:22:18Z</time>
      </trkpt>
      <trkpt lat="42.6586850" lon="-8.6394940">
        <ele>154.4</ele>
        <time>2021-05-23T07:22:19Z</time>
      </trkpt>
      <trkpt lat="42.6586860" lon="-8.6394820">
        <ele>154.3</ele>
        <time>2021-05-23T07:22:20Z</time>
      </trkpt>
      <trkpt lat="42.6586850" lon="-8.6394590">
        <ele>154.2</ele>
        <time>2021-05-23T07:22:21Z</time>
      </trkpt>
      <trkpt lat="42.6586850" lon="-8.6394480">
        <ele>154.1</ele>
        <time>2021-05-23T07:22:22Z</time>
      </trkpt>
      <trkpt lat="42.6586850" lon="-8.6394360">
        <ele>154.1</ele>
        <time>2021-05-23T07:22:23Z</time>
      </trkpt>
      <trkpt lat="42.6586850" lon="-8.6394240">
        <ele>154.0</ele>
        <time>2021-05-23T07:22:24Z</time>
      </trkpt>
      <trkpt lat="42.6586850" lon="-8.6394040">
        <ele>153.9</ele>
        <time>2021-05-23T07:22:25Z</time>
      </trkpt>
      <trkpt lat="42.6586890" lon="-8.6393930">
        <ele>153.9</ele>
        <time>2021-05-23T07:22:26Z</time>
      </trkpt>
      <trkpt lat="42.6586900" lon="-8.6393770">
        <ele>153.8</ele>
        <time>2021-05-23T07:22:27Z</time>
      </trkpt>
      <trkpt lat="42.6586920" lon="-8.6393550">
        <ele>153.7</ele>
        <time>2021-05-23T07:22:28Z</time>
      </trkpt>
      <trkpt lat="42.6586980" lon="-8.6393450">
        <ele>153.6</ele>
        <time>2021-05-23T07:22:29Z</time>
      </trkpt>
      <trkpt lat="42.6586940" lon="-8.6393280">
        <ele>153.5</ele>
        <time>2021-05-23T07:22:30Z</time>
      </trkpt>
      <trkpt lat="42.6586890" lon="-8.6393220">
        <ele>153.5</ele>
        <time>2021-05-23T07:22:31Z</time>
      </trkpt>
      <trkpt lat="42.6586730" lon="-8.6393010">
        <ele>153.4</ele>
        <time>2021-05-23T07:22:32Z</time>
      </trkpt>
      <trkpt lat="42.6586600" lon="-8.6392790">
        <ele>153.2</ele>
        <time>2021-05-23T07:22:33Z</time>
      </trkpt>
      <trkpt lat="42.6586590" lon="-8.6392730">
        <ele>153.2</ele>
        <time>2021-05-23T07:22:34Z</time>
      </trkpt>
      <trkpt lat="42.6586470" lon="-8.6392690">
        <ele>153.1</ele>
        <time>2021-05-23T07:22:35Z</time>
      </trkpt>
      <trkpt lat="42.6586300" lon="-8.6392520">
        <ele>153.0</ele>
        <time>2021-05-23T07:22:36Z</time>
      </trkpt>
      <trkpt lat="42.6586200" lon="-8.6392440">
        <ele>153.0</ele>
        <time>2021-05-23T07:22:37Z</time>
      </trkpt>
      <trkpt lat="42.6586100" lon="-8.6392330">
        <ele>152.9</ele>
        <time>2021-05-23T07:22:38Z</time>
      </trkpt>
      <trkpt lat="42.6585930" lon="-8.6392160">
        <ele>152.8</ele>
        <time>2021-05-23T07:22:39Z</time>
      </trkpt>
      <trkpt lat="42.6585660" lon="-8.6391930">
        <ele>152.6</ele>
        <time>2021-05-23T07:22:40Z</time>
      </trkpt>
      <trkpt lat="42.6585590" lon="-8.6391870">
        <ele>152.6</ele>
        <time>2021-05-23T07:22:41Z</time>
      </trkpt>
      <trkpt lat="42.6585450" lon="-8.6391770">
        <ele>152.5</ele>
        <time>2021-05-23T07:22:42Z</time>
      </trkpt>
      <trkpt lat="42.6585330" lon="-8.6391660">
        <ele>152.5</ele>
        <time>2021-05-23T07:22:43Z</time>
      </trkpt>
      <trkpt lat="42.6585180" lon="-8.6391560">
        <ele>152.4</ele>
        <time>2021-05-23T07:22:44Z</time>
      </trkpt>
      <trkpt lat="42.6585070" lon="-8.6391430">
        <ele>152.3</ele>
        <time>2021-05-23T07:22:45Z</time>
      </trkpt>
      <trkpt lat="42.6584920" lon="-8.6391380">
        <ele>152.3</ele>
        <time>2021-05-23T07:22:46Z</time>
      </trkpt>
      <trkpt lat="42.6584830" lon="-8.6391390">
        <ele>152.2</ele>
        <time>2021-05-23T07:22:47Z</time>
      </trkpt>
      <trkpt lat="42.6584750" lon="-8.6391220">
        <ele>152.2</ele>
        <time>2021-05-23T07:22:48Z</time>
      </trkpt>
      <trkpt lat="42.6584700" lon="-8.6391180">
        <ele>152.2</ele>
        <time>2021-05-23T07:22:49Z</time>
      </trkpt>
      <trkpt lat="42.6584560" lon="-8.6390990">
        <ele>152.1</ele>
        <time>2021-05-23T07:22:50Z</time>
      </trkpt>
      <trkpt lat="42.6584460" lon="-8.6390960">
        <ele>152.0</ele>
        <time>2021-05-23T07:22:51Z</time>
      </trkpt>
      <trkpt lat="42.6584290" lon="-8.6390780">
        <ele>152.0</ele>
        <time>2021-05-23T07:22:52Z</time>
      </trkpt>
      <trkpt lat="42.6584160" lon="-8.6390690">
        <ele>151.9</ele>
        <time>2021-05-23T07:22:53Z</time>
      </trkpt>
      <trkpt lat="42.6584010" lon="-8.6390630">
        <ele>151.9</ele>
        <time>2021-05-23T07:22:54Z</time>
      </trkpt>
      <trkpt lat="42.6583890" lon="-8.6390520">
        <ele>151.8</ele>
        <time>2021-05-23T07:22:55Z</time>
      </trkpt>
      <trkpt lat="42.6583800" lon="-8.6390460">
        <ele>151.8</ele>
        <time>2021-05-23T07:22:56Z</time>
      </trkpt>
      <trkpt lat="42.6583720" lon="-8.6390350">
        <ele>151.8</ele>
        <time>2021-05-23T07:22:57Z</time>
      </trkpt>
      <trkpt lat="42.6583690" lon="-8.6390240">
        <ele>151.7</ele>
        <time>2021-05-23T07:22:58Z</time>
      </trkpt>
      <trkpt lat="42.6583610" lon="-8.6390220">
        <ele>151.7</ele>
        <time>2021-05-23T07:22:59Z</time>
      </trkpt>
      <trkpt lat="42.6583520" lon="-8.6390070">
        <ele>151.7</ele>
        <time>2021-05-23T07:23:00Z</time>
      </trkpt>
      <trkpt lat="42.6583490" lon="-8.6389980">
        <ele>151.7</ele>
        <time>2021-05-23T07:23:01Z</time>
      </trkpt>
      <trkpt lat="42.6583370" lon="-8.6389810">
        <ele>151.6</ele>
        <time>2021-05-23T07:23:02Z</time>
      </trkpt>
      <trkpt lat="42.6583280" lon="-8.6389630">
        <ele>151.6</ele>
        <time>2021-05-23T07:23:03Z</time>
      </trkpt>
      <trkpt lat="42.6583140" lon="-8.6389400">
        <ele>151.5</ele>
        <time>2021-05-23T07:23:04Z</time>
      </trkpt>
      <trkpt lat="42.6583080" lon="-8.6389300">
        <ele>151.5</ele>
        <time>2021-05-23T07:23:05Z</time>
      </trkpt>
      <trkpt lat="42.6583030" lon="-8.6389190">
        <ele>151.4</ele>
        <time>2021-05-23T07:23:06Z</time>
      </trkpt>
      <trkpt lat="42.6582930" lon="-8.6389040">
        <ele>151.4</ele>
        <time>2021-05-23T07:23:07Z</time>
      </trkpt>
      <trkpt lat="42.6582850" lon="-8.6388960">
        <ele>151.4</ele>
        <time>2021-05-23T07:23:08Z</time>
      </trkpt>
      <trkpt lat="42.6582780" lon="-8.6388880">
        <ele>151.4</ele>
        <time>2021-05-23T07:23:09Z</time>
      </trkpt>
      <trkpt lat="42.6582700" lon="-8.6388710">
        <ele>151.3</ele>
        <time>2021-05-23T07:23:10Z</time>
      </trkpt>
      <trkpt lat="42.6582670" lon="-8.6388580">
        <ele>151.3</ele>
        <time>2021-05-23T07:23:11Z</time>
      </trkpt>
      <trkpt lat="42.6582630" lon="-8.6388440">
        <ele>151.3</ele>
        <time>2021-05-23T07:23:12Z</time>
      </trkpt>
      <trkpt lat="42.6582530" lon="-8.6388190">
        <ele>151.2</ele>
        <time>2021-05-23T07:23:13Z</time>
      </trkpt>
      <trkpt lat="42.6582450" lon="-8.6388060">
        <ele>151.2</ele>
        <time>2021-05-23T07:23:14Z</time>
      </trkpt>
      <trkpt lat="42.6582310" lon="-8.6387850">
        <ele>151.1</ele>
        <time>2021-05-23T07:23:15Z</time>
      </trkpt>
      <trkpt lat="42.6582240" lon="-8.6387780">
        <ele>151.1</ele>
        <time>2021-05-23T07:23:16Z</time>
      </trkpt>
      <trkpt lat="42.6582180" lon="-8.6387700">
        <ele>151.1</ele>
        <time>2021-05-23T07:23:17Z</time>
      </trkpt>
      <trkpt lat="42.6582110" lon="-8.6387490">
        <ele>151.1</ele>
        <time>2021-05-23T07:23:18Z</time>
      </trkpt>
      <trkpt lat="42.6582040" lon="-8.6387300">
        <ele>151.0</ele>
        <time>2021-05-23T07:23:19Z</time>
      </trkpt>
      <trkpt lat="42.6582010" lon="-8.6387160">
        <ele>151.0</ele>
        <time>2021-05-23T07:23:20Z</time>
      </trkpt>
      <trkpt lat="42.6581940" lon="-8.6387020">
        <ele>151.0</ele>
        <time>2021-05-23T07:23:21Z</time>
      </trkpt>
      <trkpt lat="42.6581870" lon="-8.6386980">
        <ele>151.0</ele>
        <time>2021-05-23T07:23:22Z</time>
      </trkpt>
      <trkpt lat="42.6581840" lon="-8.6386800">
        <ele>150.9</ele>
        <time>2021-05-23T07:23:23Z</time>
      </trkpt>
      <trkpt lat="42.6581820" lon="-8.6386690">
        <ele>150.9</ele>
        <time>2021-05-23T07:23:24Z</time>
      </trkpt>
      <trkpt lat="42.6581800" lon="-8.6386610">
        <ele>150.9</ele>
        <time>2021-05-23T07:23:25Z</time>
      </trkpt>
      <trkpt lat="42.6581770" lon="-8.6386380">
        <ele>150.9</ele>
        <time>2021-05-23T07:23:26Z</time>
      </trkpt>
      <trkpt lat="42.6581780" lon="-8.6386190">
        <ele>150.8</ele>
        <time>2021-05-23T07:23:27Z</time>
      </trkpt>
      <trkpt lat="42.6581760" lon="-8.6385980">
        <ele>150.8</ele>
        <time>2021-05-23T07:23:28Z</time>
      </trkpt>
      <trkpt lat="42.6581730" lon="-8.6385830">
        <ele>150.8</ele>
        <time>2021-05-23T07:23:29Z</time>
      </trkpt>
      <trkpt lat="42.6581700" lon="-8.6385680">
        <ele>150.8</ele>
        <time>2021-05-23T07:23:30Z</time>
      </trkpt>
      <trkpt lat="42.6581660" lon="-8.6385490">
        <ele>150.7</ele>
        <time>2021-05-23T07:23:31Z</time>
      </trkpt>
      <trkpt lat="42.6581630" lon="-8.6385280">
        <ele>150.7</ele>
        <time>2021-05-23T07:23:32Z</time>
      </trkpt>
      <trkpt lat="42.6581570" lon="-8.6385090">
        <ele>150.7</ele>
        <time>2021-05-23T07:23:33Z</time>
      </trkpt>
      <trkpt lat="42.6581410" lon="-8.6384970">
        <ele>150.7</ele>
        <time>2021-05-23T07:23:34Z</time>
      </trkpt>
      <trkpt lat="42.6581330" lon="-8.6384720">
        <ele>150.6</ele>
        <time>2021-05-23T07:23:35Z</time>
      </trkpt>
      <trkpt lat="42.6581310" lon="-8.6384590">
        <ele>150.6</ele>
        <time>2021-05-23T07:23:36Z</time>
      </trkpt>
      <trkpt lat="42.6581300" lon="-8.6384470">
        <ele>150.6</ele>
        <time>2021-05-23T07:23:37Z</time>
      </trkpt>
      <trkpt lat="42.6581230" lon="-8.6384180">
        <ele>150.6</ele>
        <time>2021-05-23T07:23:38Z</time>
      </trkpt>
      <trkpt lat="42.6581200" lon="-8.6384080">
        <ele>150.6</ele>
        <time>2021-05-23T07:23:39Z</time>
      </trkpt>
      <trkpt lat="42.6581180" lon="-8.6383980">
        <ele>150.6</ele>
        <time>2021-05-23T07:23:40Z</time>
      </trkpt>
      <trkpt lat="42.6581130" lon="-8.6383820">
        <ele>150.5</ele>
        <time>2021-05-23T07:23:41Z</time>
      </trkpt>
      <trkpt lat="42.6581020" lon="-8.6383640">
        <ele>150.5</ele>
        <time>2021-05-23T07:23:42Z</time>
      </trkpt>
      <trkpt lat="42.6580910" lon="-8.6383400">
        <ele>150.5</ele>
        <time>2021-05-23T07:23:43Z</time>
      </trkpt>
      <trkpt lat="42.6580850" lon="-8.6383320">
        <ele>150.5</ele>
        <time>2021-05-23T07:23:44Z</time>
      </trkpt>
      <trkpt lat="42.6580780" lon="-8.6383230">
        <ele>150.5</ele>
        <time>2021-05-23T07:23:45Z</time>
      </trkpt>
      <trkpt lat="42.6580810" lon="-8.6383020">
        <ele>150.5</ele>
        <time>2021-05-23T07:23:46Z</time>
      </trkpt>
      <trkpt lat="42.6580810" lon="-8.6382800">
        <ele>150.4</ele>
        <time>2021-05-23T07:23:47Z</time>
      </trkpt>
      <trkpt lat="42.6580710" lon="-8.6382520">
        <ele>150.4</ele>
        <time>2021-05-23T07:23:48Z</time>
      </trkpt>
      <trkpt lat="42.6580700" lon="-8.6382400">
        <ele>150.4</ele>
        <time>2021-05-23T07:23:49Z</time>
      </trkpt>
      <trkpt lat="42.6580680" lon="-8.6382280">
        <ele>150.4</ele>
        <time>2021-05-23T07:23:50Z</time>
      </trkpt>
      <trkpt lat="42.6580710" lon="-8.6382100">
        <ele>150.4</ele>
        <time>2021-05-23T07:23:51Z</time>
      </trkpt>
      <trkpt lat="42.6580790" lon="-8.6381900">
        <ele>150.4</ele>
        <time>2021-05-23T07:23:52Z</time>
      </trkpt>
      <trkpt lat="42.6580870" lon="-8.6381740">
        <ele>150.3</ele>
        <time>2021-05-23T07:23:53Z</time>
      </trkpt>
      <trkpt lat="42.6580880" lon="-8.6381520">
        <ele>150.3</ele>
        <time>2021-05-23T07:23:54Z</time>
      </trkpt>
      <trkpt lat="42.6580890" lon="-8.6381330">
        <ele>150.3</ele>
        <time>2021-05-23T07:23:55Z</time>
      </trkpt>
      <trkpt lat="42.6581040" lon="-8.6381190">
        <ele>150.3</ele>
        <time>2021-05-23T07:23:56Z</time>
      </trkpt>
      <trkpt lat="42.6581100" lon="-8.6381010">
        <ele>150.0</ele>
        <time>2021-05-23T07:23:57Z</time>
      </trkpt>
      <trkpt lat="42.6581210" lon="-8.6380850">
        <ele>150.0</ele>
        <time>2021-05-23T07:23:58Z</time>
      </trkpt>
      <trkpt lat="42.6581370" lon="-8.6380800">
        <ele>150.0</ele>
        <time>2021-05-23T07:23:59Z</time>
      </trkpt>
      <trkpt lat="42.6581440" lon="-8.6380670">
        <ele>150.0</ele>
        <time>2021-05-23T07:24:00Z</time>
      </trkpt>
      <trkpt lat="42.6581570" lon="-8.6380550">
        <ele>149.9</ele>
        <time>2021-05-23T07:24:01Z</time>
      </trkpt>
      <trkpt lat="42.6581720" lon="-8.6380490">
        <ele>149.9</ele>
        <time>2021-05-23T07:24:02Z</time>
      </trkpt>
      <trkpt lat="42.6581910" lon="-8.6380320">
        <ele>149.9</ele>
        <time>2021-05-23T07:24:03Z</time>
      </trkpt>
      <trkpt lat="42.6581990" lon="-8.6380270">
        <ele>149.9</ele>
        <time>2021-05-23T07:24:04Z</time>
      </trkpt>
      <trkpt lat="42.6582080" lon="-8.6380230">
        <ele>149.9</ele>
        <time>2021-05-23T07:24:05Z</time>
      </trkpt>
      <trkpt lat="42.6582140" lon="-8.6380040">
        <ele>149.8</ele>
        <time>2021-05-23T07:24:06Z</time>
      </trkpt>
      <trkpt lat="42.6582190" lon="-8.6379860">
        <ele>149.8</ele>
        <time>2021-05-23T07:24:07Z</time>
      </trkpt>
      <trkpt lat="42.6582330" lon="-8.6379620">
        <ele>149.8</ele>
        <time>2021-05-23T07:24:08Z</time>
      </trkpt>
      <trkpt lat="42.6582440" lon="-8.6379570">
        <ele>149.8</ele>
        <time>2021-05-23T07:24:09Z</time>
      </trkpt>
      <trkpt lat="42.6582540" lon="-8.6379510">
        <ele>149.9</ele>
        <time>2021-05-23T07:24:10Z</time>
      </trkpt>
      <trkpt lat="42.6582590" lon="-8.6379380">
        <ele>149.9</ele>
        <time>2021-05-23T07:24:11Z</time>
      </trkpt>
      <trkpt lat="42.6582660" lon="-8.6379240">
        <ele>149.9</ele>
        <time>2021-05-23T07:24:12Z</time>
      </trkpt>
      <trkpt lat="42.6582780" lon="-8.6379180">
        <ele>149.9</ele>
        <time>2021-05-23T07:24:13Z</time>
      </trkpt>
      <trkpt lat="42.6582930" lon="-8.6378960">
        <ele>150.0</ele>
        <time>2021-05-23T07:24:14Z</time>
      </trkpt>
      <trkpt lat="42.6583000" lon="-8.6378890">
        <ele>150.0</ele>
        <time>2021-05-23T07:24:15Z</time>
      </trkpt>
      <trkpt lat="42.6583070" lon="-8.6378820">
        <ele>150.0</ele>
        <time>2021-05-23T07:24:16Z</time>
      </trkpt>
      <trkpt lat="42.6583160" lon="-8.6378670">
        <ele>150.1</ele>
        <time>2021-05-23T07:24:17Z</time>
      </trkpt>
      <trkpt lat="42.6583210" lon="-8.6378560">
        <ele>150.1</ele>
        <time>2021-05-23T07:24:18Z</time>
      </trkpt>
      <trkpt lat="42.6583310" lon="-8.6378470">
        <ele>150.1</ele>
        <time>2021-05-23T07:24:19Z</time>
      </trkpt>
      <trkpt lat="42.6583470" lon="-8.6378480">
        <ele>150.2</ele>
        <time>2021-05-23T07:24:20Z</time>
      </trkpt>
      <trkpt lat="42.6583610" lon="-8.6378420">
        <ele>150.2</ele>
        <time>2021-05-23T07:24:21Z</time>
      </trkpt>
      <trkpt lat="42.6583740" lon="-8.6378350">
        <ele>150.2</ele>
        <time>2021-05-23T07:24:22Z</time>
      </trkpt>
      <trkpt lat="42.6583850" lon="-8.6378200">
        <ele>150.3</ele>
        <time>2021-05-23T07:24:23Z</time>
      </trkpt>
      <trkpt lat="42.6584000" lon="-8.6378190">
        <ele>150.3</ele>
        <time>2021-05-23T07:24:24Z</time>
      </trkpt>
      <trkpt lat="42.6584100" lon="-8.6378060">
        <ele>150.3</ele>
        <time>2021-05-23T07:24:25Z</time>
      </trkpt>
      <trkpt lat="42.6584280" lon="-8.6377900">
        <ele>150.3</ele>
        <time>2021-05-23T07:24:26Z</time>
      </trkpt>
      <trkpt lat="42.6584340" lon="-8.6377810">
        <ele>150.3</ele>
        <time>2021-05-23T07:24:27Z</time>
      </trkpt>
      <trkpt lat="42.6584400" lon="-8.6377730">
        <ele>150.3</ele>
        <time>2021-05-23T07:24:28Z</time>
      </trkpt>
      <trkpt lat="42.6584530" lon="-8.6377510">
        <ele>150.3</ele>
        <time>2021-05-23T07:24:29Z</time>
      </trkpt>
      <trkpt lat="42.6584570" lon="-8.6377410">
        <ele>150.3</ele>
        <time>2021-05-23T07:24:30Z</time>
      </trkpt>
      <trkpt lat="42.6584600" lon="-8.6377300">
        <ele>150.3</ele>
        <time>2021-05-23T07:24:31Z</time>
      </trkpt>
      <trkpt lat="42.6584660" lon="-8.6377150">
        <ele>150.3</ele>
        <time>2021-05-23T07:24:32Z</time>
      </trkpt>
      <trkpt lat="42.6584700" lon="-8.6376960">
        <ele>150.3</ele>
        <time>2021-05-23T07:24:33Z</time>
      </trkpt>
      <trkpt lat="42.6584750" lon="-8.6376790">
        <ele>150.3</ele>
        <time>2021-05-23T07:24:34Z</time>
      </trkpt>
      <trkpt lat="42.6584790" lon="-8.6376590">
        <ele>150.3</ele>
        <time>2021-05-23T07:24:35Z</time>
      </trkpt>
      <trkpt lat="42.6584710" lon="-8.6376360">
        <ele>150.4</ele>
        <time>2021-05-23T07:24:36Z</time>
      </trkpt>
      <trkpt lat="42.6584780" lon="-8.6376200">
        <ele>150.4</ele>
        <time>2021-05-23T07:24:37Z</time>
      </trkpt>
      <trkpt lat="42.6584900" lon="-8.6375930">
        <ele>150.4</ele>
        <time>2021-05-23T07:24:38Z</time>
      </trkpt>
      <trkpt lat="42.6584920" lon="-8.6375820">
        <ele>150.4</ele>
        <time>2021-05-23T07:24:39Z</time>
      </trkpt>
      <trkpt lat="42.6584940" lon="-8.6375700">
        <ele>150.4</ele>
        <time>2021-05-23T07:24:40Z</time>
      </trkpt>
      <trkpt lat="42.6585000" lon="-8.6375550">
        <ele>150.4</ele>
        <time>2021-05-23T07:24:41Z</time>
      </trkpt>
      <trkpt lat="42.6584990" lon="-8.6375300">
        <ele>150.4</ele>
        <time>2021-05-23T07:24:42Z</time>
      </trkpt>
      <trkpt lat="42.6584970" lon="-8.6375090">
        <ele>150.4</ele>
        <time>2021-05-23T07:24:43Z</time>
      </trkpt>
      <trkpt lat="42.6585040" lon="-8.6374910">
        <ele>150.4</ele>
        <time>2021-05-23T07:24:44Z</time>
      </trkpt>
      <trkpt lat="42.6585100" lon="-8.6374720">
        <ele>150.4</ele>
        <time>2021-05-23T07:24:45Z</time>
      </trkpt>
      <trkpt lat="42.6585170" lon="-8.6374550">
        <ele>150.4</ele>
        <time>2021-05-23T07:24:46Z</time>
      </trkpt>
      <trkpt lat="42.6585200" lon="-8.6374360">
        <ele>150.4</ele>
        <time>2021-05-23T07:24:47Z</time>
      </trkpt>
      <trkpt lat="42.6585240" lon="-8.6374190">
        <ele>150.4</ele>
        <time>2021-05-23T07:24:48Z</time>
      </trkpt>
      <trkpt lat="42.6585320" lon="-8.6373920">
        <ele>150.4</ele>
        <time>2021-05-23T07:24:49Z</time>
      </trkpt>
      <trkpt lat="42.6585370" lon="-8.6373830">
        <ele>150.4</ele>
        <time>2021-05-23T07:24:50Z</time>
      </trkpt>
      <trkpt lat="42.6585420" lon="-8.6373740">
        <ele>150.4</ele>
        <time>2021-05-23T07:24:51Z</time>
      </trkpt>
      <trkpt lat="42.6585450" lon="-8.6373450">
        <ele>150.4</ele>
        <time>2021-05-23T07:24:52Z</time>
      </trkpt>
      <trkpt lat="42.6585400" lon="-8.6373320">
        <ele>150.4</ele>
        <time>2021-05-23T07:24:53Z</time>
      </trkpt>
      <trkpt lat="42.6585360" lon="-8.6373180">
        <ele>150.4</ele>
        <time>2021-05-23T07:24:54Z</time>
      </trkpt>
      <trkpt lat="42.6585360" lon="-8.6372900">
        <ele>150.4</ele>
        <time>2021-05-23T07:24:55Z</time>
      </trkpt>
      <trkpt lat="42.6585380" lon="-8.6372780">
        <ele>150.4</ele>
        <time>2021-05-23T07:24:56Z</time>
      </trkpt>
      <trkpt lat="42.6585390" lon="-8.6372650">
        <ele>150.4</ele>
        <time>2021-05-23T07:24:57Z</time>
      </trkpt>
      <trkpt lat="42.6585410" lon="-8.6372450">
        <ele>150.4</ele>
        <time>2021-05-23T07:24:58Z</time>
      </trkpt>
      <trkpt lat="42.6585310" lon="-8.6372260">
        <ele>150.4</ele>
        <time>2021-05-23T07:24:59Z</time>
      </trkpt>
      <trkpt lat="42.6585360" lon="-8.6372080">
        <ele>150.4</ele>
        <time>2021-05-23T07:25:00Z</time>
      </trkpt>
      <trkpt lat="42.6585260" lon="-8.6371900">
        <ele>150.4</ele>
        <time>2021-05-23T07:25:01Z</time>
      </trkpt>
      <trkpt lat="42.6585240" lon="-8.6371740">
        <ele>150.4</ele>
        <time>2021-05-23T07:25:02Z</time>
      </trkpt>
      <trkpt lat="42.6585260" lon="-8.6371550">
        <ele>150.4</ele>
        <time>2021-05-23T07:25:03Z</time>
      </trkpt>
      <trkpt lat="42.6585230" lon="-8.6371410">
        <ele>150.4</ele>
        <time>2021-05-23T07:25:04Z</time>
      </trkpt>
      <trkpt lat="42.6585270" lon="-8.6371120">
        <ele>150.4</ele>
        <time>2021-05-23T07:25:05Z</time>
      </trkpt>
      <trkpt lat="42.6585240" lon="-8.6371000">
        <ele>150.4</ele>
        <time>2021-05-23T07:25:06Z</time>
      </trkpt>
      <trkpt lat="42.6585210" lon="-8.6370880">
        <ele>150.4</ele>
        <time>2021-05-23T07:25:07Z</time>
      </trkpt>
      <trkpt lat="42.6585150" lon="-8.6370620">
        <ele>150.4</ele>
        <time>2021-05-23T07:25:08Z</time>
      </trkpt>
      <trkpt lat="42.6585100" lon="-8.6370490">
        <ele>150.4</ele>
        <time>2021-05-23T07:25:09Z</time>
      </trkpt>
      <trkpt lat="42.6585060" lon="-8.6370370">
        <ele>150.4</ele>
        <time>2021-05-23T07:25:10Z</time>
      </trkpt>
      <trkpt lat="42.6585050" lon="-8.6370190">
        <ele>150.4</ele>
        <time>2021-05-23T07:25:11Z</time>
      </trkpt>
      <trkpt lat="42.6585100" lon="-8.6370000">
        <ele>150.4</ele>
        <time>2021-05-23T07:25:12Z</time>
      </trkpt>
      <trkpt lat="42.6585120" lon="-8.6369810">
        <ele>150.4</ele>
        <time>2021-05-23T07:25:13Z</time>
      </trkpt>
      <trkpt lat="42.6585200" lon="-8.6369690">
        <ele>150.4</ele>
        <time>2021-05-23T07:25:14Z</time>
      </trkpt>
      <trkpt lat="42.6585200" lon="-8.6369530">
        <ele>150.4</ele>
        <time>2021-05-23T07:25:15Z</time>
      </trkpt>
      <trkpt lat="42.6585220" lon="-8.6369390">
        <ele>150.5</ele>
        <time>2021-05-23T07:25:16Z</time>
      </trkpt>
      <trkpt lat="42.6585230" lon="-8.6369260">
        <ele>150.5</ele>
        <time>2021-05-23T07:25:17Z</time>
      </trkpt>
      <trkpt lat="42.6585300" lon="-8.6369120">
        <ele>150.5</ele>
        <time>2021-05-23T07:25:18Z</time>
      </trkpt>
      <trkpt lat="42.6585320" lon="-8.6368970">
        <ele>150.5</ele>
        <time>2021-05-23T07:25:19Z</time>
      </trkpt>
      <trkpt lat="42.6585430" lon="-8.6368850">
        <ele>150.5</ele>
        <time>2021-05-23T07:25:20Z</time>
      </trkpt>
      <trkpt lat="42.6585540" lon="-8.6368790">
        <ele>150.5</ele>
        <time>2021-05-23T07:25:21Z</time>
      </trkpt>
      <trkpt lat="42.6585680" lon="-8.6368710">
        <ele>150.5</ele>
        <time>2021-05-23T07:25:22Z</time>
      </trkpt>
      <trkpt lat="42.6585790" lon="-8.6368610">
        <ele>150.5</ele>
        <time>2021-05-23T07:25:23Z</time>
      </trkpt>
      <trkpt lat="42.6585970" lon="-8.6368420">
        <ele>150.6</ele>
        <time>2021-05-23T07:25:24Z</time>
      </trkpt>
      <trkpt lat="42.6586030" lon="-8.6368310">
        <ele>150.6</ele>
        <time>2021-05-23T07:25:25Z</time>
      </trkpt>
      <trkpt lat="42.6586090" lon="-8.6368210">
        <ele>150.6</ele>
        <time>2021-05-23T07:25:26Z</time>
      </trkpt>
      <trkpt lat="42.6586230" lon="-8.6368140">
        <ele>150.6</ele>
        <time>2021-05-23T07:25:27Z</time>
      </trkpt>
      <trkpt lat="42.6586330" lon="-8.6368000">
        <ele>150.6</ele>
        <time>2021-05-23T07:25:28Z</time>
      </trkpt>
      <trkpt lat="42.6586480" lon="-8.6367970">
        <ele>150.6</ele>
        <time>2021-05-23T07:25:29Z</time>
      </trkpt>
      <trkpt lat="42.6586610" lon="-8.6367880">
        <ele>150.7</ele>
        <time>2021-05-23T07:25:30Z</time>
      </trkpt>
      <trkpt lat="42.6586730" lon="-8.6367720">
        <ele>150.7</ele>
        <time>2021-05-23T07:25:31Z</time>
      </trkpt>
      <trkpt lat="42.6586830" lon="-8.6367590">
        <ele>150.7</ele>
        <time>2021-05-23T07:25:32Z</time>
      </trkpt>
      <trkpt lat="42.6587040" lon="-8.6367520">
        <ele>150.7</ele>
        <time>2021-05-23T07:25:33Z</time>
      </trkpt>
      <trkpt lat="42.6587130" lon="-8.6367520">
        <ele>150.7</ele>
        <time>2021-05-23T07:25:34Z</time>
      </trkpt>
      <trkpt lat="42.6587230" lon="-8.6367520">
        <ele>150.8</ele>
        <time>2021-05-23T07:25:35Z</time>
      </trkpt>
      <trkpt lat="42.6587340" lon="-8.6367420">
        <ele>150.8</ele>
        <time>2021-05-23T07:25:36Z</time>
      </trkpt>
      <trkpt lat="42.6587490" lon="-8.6367280">
        <ele>150.8</ele>
        <time>2021-05-23T07:25:37Z</time>
      </trkpt>
      <trkpt lat="42.6587590" lon="-8.6367160">
        <ele>150.8</ele>
        <time>2021-05-23T07:25:38Z</time>
      </trkpt>
      <trkpt lat="42.6587680" lon="-8.6366980">
        <ele>150.8</ele>
        <time>2021-05-23T07:25:39Z</time>
      </trkpt>
      <trkpt lat="42.6587800" lon="-8.6366780">
        <ele>150.9</ele>
        <time>2021-05-23T07:25:40Z</time>
      </trkpt>
      <trkpt lat="42.6587890" lon="-8.6366680">
        <ele>150.9</ele>
        <time>2021-05-23T07:25:41Z</time>
      </trkpt>
      <trkpt lat="42.6587980" lon="-8.6366300">
        <ele>150.9</ele>
        <time>2021-05-23T07:25:42Z</time>
      </trkpt>
      <trkpt lat="42.6587970" lon="-8.6366150">
        <ele>150.9</ele>
        <time>2021-05-23T07:25:43Z</time>
      </trkpt>
      <trkpt lat="42.6588020" lon="-8.6365970">
        <ele>150.9</ele>
        <time>2021-05-23T07:25:44Z</time>
      </trkpt>
      <trkpt lat="42.6588170" lon="-8.6365870">
        <ele>151.0</ele>
        <time>2021-05-23T07:25:45Z</time>
      </trkpt>
      <trkpt lat="42.6588210" lon="-8.6365660">
        <ele>151.0</ele>
        <time>2021-05-23T07:25:46Z</time>
      </trkpt>
      <trkpt lat="42.6588200" lon="-8.6365450">
        <ele>151.0</ele>
        <time>2021-05-23T07:25:47Z</time>
      </trkpt>
      <trkpt lat="42.6588250" lon="-8.6365290">
        <ele>151.0</ele>
        <time>2021-05-23T07:25:48Z</time>
      </trkpt>
      <trkpt lat="42.6588280" lon="-8.6365080">
        <ele>151.0</ele>
        <time>2021-05-23T07:25:49Z</time>
      </trkpt>
      <trkpt lat="42.6588360" lon="-8.6364930">
        <ele>151.0</ele>
        <time>2021-05-23T07:25:50Z</time>
      </trkpt>
      <trkpt lat="42.6588350" lon="-8.6364720">
        <ele>151.0</ele>
        <time>2021-05-23T07:25:51Z</time>
      </trkpt>
      <trkpt lat="42.6588330" lon="-8.6364520">
        <ele>151.1</ele>
        <time>2021-05-23T07:25:52Z</time>
      </trkpt>
      <trkpt lat="42.6588400" lon="-8.6364350">
        <ele>151.1</ele>
        <time>2021-05-23T07:25:53Z</time>
      </trkpt>
      <trkpt lat="42.6588480" lon="-8.6364080">
        <ele>151.1</ele>
        <time>2021-05-23T07:25:54Z</time>
      </trkpt>
      <trkpt lat="42.6588520" lon="-8.6363970">
        <ele>151.1</ele>
        <time>2021-05-23T07:25:55Z</time>
      </trkpt>
      <trkpt lat="42.6588550" lon="-8.6363860">
        <ele>151.1</ele>
        <time>2021-05-23T07:25:56Z</time>
      </trkpt>
      <trkpt lat="42.6588530" lon="-8.6363630">
        <ele>151.1</ele>
        <time>2021-05-23T07:25:57Z</time>
      </trkpt>
      <trkpt lat="42.6588580" lon="-8.6363470">
        <ele>151.1</ele>
        <time>2021-05-23T07:25:58Z</time>
      </trkpt>
      <trkpt lat="42.6588570" lon="-8.6363250">
        <ele>151.2</ele>
        <time>2021-05-23T07:25:59Z</time>
      </trkpt>
      <trkpt lat="42.6588530" lon="-8.6363070">
        <ele>151.2</ele>
        <time>2021-05-23T07:26:00Z</time>
      </trkpt>
      <trkpt lat="42.6588640" lon="-8.6362830">
        <ele>151.2</ele>
        <time>2021-05-23T07:26:01Z</time>
      </trkpt>
      <trkpt lat="42.6588630" lon="-8.6362710">
        <ele>151.2</ele>
        <time>2021-05-23T07:26:02Z</time>
      </trkpt>
      <trkpt lat="42.6588620" lon="-8.6362590">
        <ele>151.2</ele>
        <time>2021-05-23T07:26:03Z</time>
      </trkpt>
      <trkpt lat="42.6588660" lon="-8.6362370">
        <ele>151.2</ele>
        <time>2021-05-23T07:26:04Z</time>
      </trkpt>
      <trkpt lat="42.6588610" lon="-8.6362220">
        <ele>151.2</ele>
        <time>2021-05-23T07:26:05Z</time>
      </trkpt>
      <trkpt lat="42.6588660" lon="-8.6362070">
        <ele>151.2</ele>
        <time>2021-05-23T07:26:06Z</time>
      </trkpt>
      <trkpt lat="42.6588770" lon="-8.6361960">
        <ele>151.2</ele>
        <time>2021-05-23T07:26:07Z</time>
      </trkpt>
      <trkpt lat="42.6588800" lon="-8.6361870">
        <ele>151.3</ele>
        <time>2021-05-23T07:26:08Z</time>
      </trkpt>
      <trkpt lat="42.6588920" lon="-8.6361600">
        <ele>151.3</ele>
        <time>2021-05-23T07:26:09Z</time>
      </trkpt>
      <trkpt lat="42.6588950" lon="-8.6361490">
        <ele>151.3</ele>
        <time>2021-05-23T07:26:10Z</time>
      </trkpt>
      <trkpt lat="42.6588970" lon="-8.6361390">
        <ele>151.3</ele>
        <time>2021-05-23T07:26:11Z</time>
      </trkpt>
      <trkpt lat="42.6588980" lon="-8.6361210">
        <ele>151.3</ele>
        <time>2021-05-23T07:26:12Z</time>
      </trkpt>
      <trkpt lat="42.6588960" lon="-8.6361020">
        <ele>151.3</ele>
        <time>2021-05-23T07:26:13Z</time>
      </trkpt>
      <trkpt lat="42.6588950" lon="-8.6360800">
        <ele>151.3</ele>
        <time>2021-05-23T07:26:14Z</time>
      </trkpt>
      <trkpt lat="42.6589030" lon="-8.6360630">
        <ele>151.3</ele>
        <time>2021-05-23T07:26:15Z</time>
      </trkpt>
      <trkpt lat="42.6589100" lon="-8.6360470">
        <ele>151.3</ele>
        <time>2021-05-23T07:26:16Z</time>
      </trkpt>
      <trkpt lat="42.6589100" lon="-8.6360270">
        <ele>151.4</ele>
        <time>2021-05-23T07:26:17Z</time>
      </trkpt>
      <trkpt lat="42.6589170" lon="-8.6360100">
        <ele>151.4</ele>
        <time>2021-05-23T07:26:18Z</time>
      </trkpt>
      <trkpt lat="42.6589200" lon="-8.6359930">
        <ele>151.4</ele>
        <time>2021-05-23T07:26:19Z</time>
      </trkpt>
      <trkpt lat="42.6589280" lon="-8.6359760">
        <ele>151.4</ele>
        <time>2021-05-23T07:26:20Z</time>
      </trkpt>
      <trkpt lat="42.6589340" lon="-8.6359560">
        <ele>151.4</ele>
        <time>2021-05-23T07:26:21Z</time>
      </trkpt>
      <trkpt lat="42.6589370" lon="-8.6359360">
        <ele>151.4</ele>
        <time>2021-05-23T07:26:22Z</time>
      </trkpt>
      <trkpt lat="42.6589460" lon="-8.6359170">
        <ele>151.5</ele>
        <time>2021-05-23T07:26:23Z</time>
      </trkpt>
      <trkpt lat="42.6589460" lon="-8.6358980">
        <ele>151.5</ele>
        <time>2021-05-23T07:26:24Z</time>
      </trkpt>
      <trkpt lat="42.6589430" lon="-8.6358780">
        <ele>151.5</ele>
        <time>2021-05-23T07:26:25Z</time>
      </trkpt>
      <trkpt lat="42.6589490" lon="-8.6358590">
        <ele>151.5</ele>
        <time>2021-05-23T07:26:26Z</time>
      </trkpt>
      <trkpt lat="42.6589480" lon="-8.6358410">
        <ele>151.5</ele>
        <time>2021-05-23T07:26:27Z</time>
      </trkpt>
      <trkpt lat="42.6589520" lon="-8.6358130">
        <ele>151.5</ele>
        <time>2021-05-23T07:26:28Z</time>
      </trkpt>
      <trkpt lat="42.6589520" lon="-8.6358020">
        <ele>151.6</ele>
        <time>2021-05-23T07:26:29Z</time>
      </trkpt>
      <trkpt lat="42.6589520" lon="-8.6357900">
        <ele>151.6</ele>
        <time>2021-05-23T07:26:30Z</time>
      </trkpt>
      <trkpt lat="42.6589560" lon="-8.6357700">
        <ele>151.6</ele>
        <time>2021-05-23T07:26:31Z</time>
      </trkpt>
      <trkpt lat="42.6589590" lon="-8.6357530">
        <ele>151.6</ele>
        <time>2021-05-23T07:26:32Z</time>
      </trkpt>
      <trkpt lat="42.6589620" lon="-8.6357370">
        <ele>151.6</ele>
        <time>2021-05-23T07:26:33Z</time>
      </trkpt>
      <trkpt lat="42.6589590" lon="-8.6357160">
        <ele>151.7</ele>
        <time>2021-05-23T07:26:34Z</time>
      </trkpt>
      <trkpt lat="42.6589600" lon="-8.6356860">
        <ele>151.7</ele>
        <time>2021-05-23T07:26:35Z</time>
      </trkpt>
      <trkpt lat="42.6589610" lon="-8.6356740">
        <ele>151.7</ele>
        <time>2021-05-23T07:26:36Z</time>
      </trkpt>
      <trkpt lat="42.6589630" lon="-8.6356610">
        <ele>151.7</ele>
        <time>2021-05-23T07:26:37Z</time>
      </trkpt>
      <trkpt lat="42.6589560" lon="-8.6356320">
        <ele>151.7</ele>
        <time>2021-05-23T07:26:38Z</time>
      </trkpt>
      <trkpt lat="42.6589540" lon="-8.6356220">
        <ele>151.8</ele>
        <time>2021-05-23T07:26:39Z</time>
      </trkpt>
      <trkpt lat="42.6589520" lon="-8.6356120">
        <ele>151.8</ele>
        <time>2021-05-23T07:26:40Z</time>
      </trkpt>
      <trkpt lat="42.6589560" lon="-8.6355910">
        <ele>151.8</ele>
        <time>2021-05-23T07:26:41Z</time>
      </trkpt>
      <trkpt lat="42.6589610" lon="-8.6355750">
        <ele>151.8</ele>
        <time>2021-05-23T07:26:42Z</time>
      </trkpt>
      <trkpt lat="42.6589690" lon="-8.6355490">
        <ele>151.8</ele>
        <time>2021-05-23T07:26:43Z</time>
      </trkpt>
      <trkpt lat="42.6589690" lon="-8.6355380">
        <ele>151.9</ele>
        <time>2021-05-23T07:26:44Z</time>
      </trkpt>
      <trkpt lat="42.6589700" lon="-8.6355260">
        <ele>151.9</ele>
        <time>2021-05-23T07:26:45Z</time>
      </trkpt>
      <trkpt lat="42.6589770" lon="-8.6355090">
        <ele>151.9</ele>
        <time>2021-05-23T07:26:46Z</time>
      </trkpt>
      <trkpt lat="42.6589820" lon="-8.6354910">
        <ele>151.9</ele>
        <time>2021-05-23T07:26:47Z</time>
      </trkpt>
      <trkpt lat="42.6589750" lon="-8.6354740">
        <ele>152.0</ele>
        <time>2021-05-23T07:26:48Z</time>
      </trkpt>
      <trkpt lat="42.6589690" lon="-8.6354530">
        <ele>152.0</ele>
        <time>2021-05-23T07:26:49Z</time>
      </trkpt>
      <trkpt lat="42.6589630" lon="-8.6354340">
        <ele>152.0</ele>
        <time>2021-05-23T07:26:50Z</time>
      </trkpt>
      <trkpt lat="42.6589750" lon="-8.6354170">
        <ele>152.1</ele>
        <time>2021-05-23T07:26:51Z</time>
      </trkpt>
      <trkpt lat="42.6589810" lon="-8.6353980">
        <ele>152.2</ele>
        <time>2021-05-23T07:26:52Z</time>
      </trkpt>
      <trkpt lat="42.6589870" lon="-8.6353820">
        <ele>152.2</ele>
        <time>2021-05-23T07:26:53Z</time>
      </trkpt>
      <trkpt lat="42.6590020" lon="-8.6353740">
        <ele>152.2</ele>
        <time>2021-05-23T07:26:54Z</time>
      </trkpt>
      <trkpt lat="42.6590130" lon="-8.6353660">
        <ele>152.3</ele>
        <time>2021-05-23T07:26:55Z</time>
      </trkpt>
      <trkpt lat="42.6590250" lon="-8.6353590">
        <ele>152.3</ele>
        <time>2021-05-23T07:26:56Z</time>
      </trkpt>
      <trkpt lat="42.6590300" lon="-8.6353510">
        <ele>152.3</ele>
        <time>2021-05-23T07:26:57Z</time>
      </trkpt>
      <trkpt lat="42.6590430" lon="-8.6353470">
        <ele>152.3</ele>
        <time>2021-05-23T07:26:58Z</time>
      </trkpt>
      <trkpt lat="42.6590570" lon="-8.6353520">
        <ele>152.4</ele>
        <time>2021-05-23T07:26:59Z</time>
      </trkpt>
      <trkpt lat="42.6590670" lon="-8.6353550">
        <ele>152.4</ele>
        <time>2021-05-23T07:27:00Z</time>
      </trkpt>
      <trkpt lat="42.6590780" lon="-8.6353540">
        <ele>152.4</ele>
        <time>2021-05-23T07:27:01Z</time>
      </trkpt>
      <trkpt lat="42.6590880" lon="-8.6353600">
        <ele>152.4</ele>
        <time>2021-05-23T07:27:02Z</time>
      </trkpt>
      <trkpt lat="42.6591000" lon="-8.6353620">
        <ele>152.4</ele>
        <time>2021-05-23T07:27:03Z</time>
      </trkpt>
      <trkpt lat="42.6591100" lon="-8.6353640">
        <ele>152.5</ele>
        <time>2021-05-23T07:27:04Z</time>
      </trkpt>
      <trkpt lat="42.6591210" lon="-8.6353670">
        <ele>152.5</ele>
        <time>2021-05-23T07:27:05Z</time>
      </trkpt>
      <trkpt lat="42.6591310" lon="-8.6353620">
        <ele>152.5</ele>
        <time>2021-05-23T07:27:06Z</time>
      </trkpt>
      <trkpt lat="42.6591440" lon="-8.6353690">
        <ele>152.5</ele>
        <time>2021-05-23T07:27:07Z</time>
      </trkpt>
      <trkpt lat="42.6591560" lon="-8.6353770">
        <ele>152.6</ele>
        <time>2021-05-23T07:27:08Z</time>
      </trkpt>
      <trkpt lat="42.6591690" lon="-8.6353840">
        <ele>152.6</ele>
        <time>2021-05-23T07:27:09Z</time>
      </trkpt>
      <trkpt lat="42.6591840" lon="-8.6353730">
        <ele>152.6</ele>
        <time>2021-05-23T07:27:10Z</time>
      </trkpt>
      <trkpt lat="42.6591960" lon="-8.6353730">
        <ele>152.7</ele>
        <time>2021-05-23T07:27:11Z</time>
      </trkpt>
      <trkpt lat="42.6592170" lon="-8.6353760">
        <ele>152.7</ele>
        <time>2021-05-23T07:27:12Z</time>
      </trkpt>
      <trkpt lat="42.6592250" lon="-8.6353750">
        <ele>152.7</ele>
        <time>2021-05-23T07:27:13Z</time>
      </trkpt>
      <trkpt lat="42.6592340" lon="-8.6353750">
        <ele>152.8</ele>
        <time>2021-05-23T07:27:14Z</time>
      </trkpt>
      <trkpt lat="42.6592560" lon="-8.6353780">
        <ele>152.8</ele>
        <time>2021-05-23T07:27:15Z</time>
      </trkpt>
      <trkpt lat="42.6592650" lon="-8.6353760">
        <ele>152.8</ele>
        <time>2021-05-23T07:27:16Z</time>
      </trkpt>
      <trkpt lat="42.6592730" lon="-8.6353750">
        <ele>152.9</ele>
        <time>2021-05-23T07:27:17Z</time>
      </trkpt>
      <trkpt lat="42.6592860" lon="-8.6353720">
        <ele>152.9</ele>
        <time>2021-05-23T07:27:18Z</time>
      </trkpt>
      <trkpt lat="42.6593000" lon="-8.6353660">
        <ele>152.9</ele>
        <time>2021-05-23T07:27:19Z</time>
      </trkpt>
      <trkpt lat="42.6593140" lon="-8.6353680">
        <ele>153.0</ele>
        <time>2021-05-23T07:27:20Z</time>
      </trkpt>
      <trkpt lat="42.6593280" lon="-8.6353600">
        <ele>153.0</ele>
        <time>2021-05-23T07:27:21Z</time>
      </trkpt>
      <trkpt lat="42.6593420" lon="-8.6353560">
        <ele>153.0</ele>
        <time>2021-05-23T07:27:22Z</time>
      </trkpt>
      <trkpt lat="42.6593580" lon="-8.6353550">
        <ele>153.1</ele>
        <time>2021-05-23T07:27:23Z</time>
      </trkpt>
      <trkpt lat="42.6593720" lon="-8.6353460">
        <ele>153.1</ele>
        <time>2021-05-23T07:27:24Z</time>
      </trkpt>
      <trkpt lat="42.6593840" lon="-8.6353350">
        <ele>153.1</ele>
        <time>2021-05-23T07:27:25Z</time>
      </trkpt>
      <trkpt lat="42.6594040" lon="-8.6353220">
        <ele>153.2</ele>
        <time>2021-05-23T07:27:26Z</time>
      </trkpt>
      <trkpt lat="42.6594110" lon="-8.6353200">
        <ele>153.2</ele>
        <time>2021-05-23T07:27:27Z</time>
      </trkpt>
      <trkpt lat="42.6594190" lon="-8.6353170">
        <ele>153.2</ele>
        <time>2021-05-23T07:27:28Z</time>
      </trkpt>
      <trkpt lat="42.6594400" lon="-8.6353070">
        <ele>153.2</ele>
        <time>2021-05-23T07:27:29Z</time>
      </trkpt>
      <trkpt lat="42.6594480" lon="-8.6353020">
        <ele>153.3</ele>
        <time>2021-05-23T07:27:30Z</time>
      </trkpt>
      <trkpt lat="42.6594570" lon="-8.6352960">
        <ele>153.3</ele>
        <time>2021-05-23T07:27:31Z</time>
      </trkpt>
      <trkpt lat="42.6594690" lon="-8.6352880">
        <ele>153.3</ele>
        <time>2021-05-23T07:27:32Z</time>
      </trkpt>
      <trkpt lat="42.6594830" lon="-8.6352840">
        <ele>153.3</ele>
        <time>2021-05-23T07:27:33Z</time>
      </trkpt>
      <trkpt lat="42.6594950" lon="-8.6352800">
        <ele>153.3</ele>
        <time>2021-05-23T07:27:34Z</time>
      </trkpt>
      <trkpt lat="42.6595100" lon="-8.6352730">
        <ele>153.4</ele>
        <time>2021-05-23T07:27:35Z</time>
      </trkpt>
      <trkpt lat="42.6595230" lon="-8.6352660">
        <ele>153.4</ele>
        <time>2021-05-23T07:27:36Z</time>
      </trkpt>
      <trkpt lat="42.6595350" lon="-8.6352660">
        <ele>153.4</ele>
        <time>2021-05-23T07:27:37Z</time>
      </trkpt>
      <trkpt lat="42.6595460" lon="-8.6352610">
        <ele>153.4</ele>
        <time>2021-05-23T07:27:38Z</time>
      </trkpt>
      <trkpt lat="42.6595590" lon="-8.6352610">
        <ele>153.4</ele>
        <time>2021-05-23T07:27:39Z</time>
      </trkpt>
      <trkpt lat="42.6595750" lon="-8.6352650">
        <ele>153.4</ele>
        <time>2021-05-23T07:27:40Z</time>
      </trkpt>
      <trkpt lat="42.6595880" lon="-8.6352680">
        <ele>153.4</ele>
        <time>2021-05-23T07:27:41Z</time>
      </trkpt>
      <trkpt lat="42.6596030" lon="-8.6352680">
        <ele>153.4</ele>
        <time>2021-05-23T07:27:42Z</time>
      </trkpt>
      <trkpt lat="42.6596250" lon="-8.6352690">
        <ele>153.5</ele>
        <time>2021-05-23T07:27:43Z</time>
      </trkpt>
      <trkpt lat="42.6596330" lon="-8.6352720">
        <ele>153.5</ele>
        <time>2021-05-23T07:27:44Z</time>
      </trkpt>
      <trkpt lat="42.6596410" lon="-8.6352750">
        <ele>153.5</ele>
        <time>2021-05-23T07:27:45Z</time>
      </trkpt>
      <trkpt lat="42.6596610" lon="-8.6352870">
        <ele>153.5</ele>
        <time>2021-05-23T07:27:46Z</time>
      </trkpt>
      <trkpt lat="42.6596660" lon="-8.6352950">
        <ele>153.5</ele>
        <time>2021-05-23T07:27:47Z</time>
      </trkpt>
      <trkpt lat="42.6596720" lon="-8.6353040">
        <ele>153.5</ele>
        <time>2021-05-23T07:27:48Z</time>
      </trkpt>
      <trkpt lat="42.6596870" lon="-8.6353060">
        <ele>153.5</ele>
        <time>2021-05-23T07:27:49Z</time>
      </trkpt>
      <trkpt lat="42.6596990" lon="-8.6353120">
        <ele>153.5</ele>
        <time>2021-05-23T07:27:50Z</time>
      </trkpt>
      <trkpt lat="42.6597090" lon="-8.6353200">
        <ele>153.5</ele>
        <time>2021-05-23T07:27:51Z</time>
      </trkpt>
      <trkpt lat="42.6597180" lon="-8.6353310">
        <ele>153.5</ele>
        <time>2021-05-23T07:27:52Z</time>
      </trkpt>
      <trkpt lat="42.6597270" lon="-8.6353380">
        <ele>153.5</ele>
        <time>2021-05-23T07:27:53Z</time>
      </trkpt>
      <trkpt lat="42.6597370" lon="-8.6353490">
        <ele>153.5</ele>
        <time>2021-05-23T07:27:54Z</time>
      </trkpt>
      <trkpt lat="42.6597440" lon="-8.6353610">
        <ele>153.5</ele>
        <time>2021-05-23T07:27:55Z</time>
      </trkpt>
      <trkpt lat="42.6597470" lon="-8.6353750">
        <ele>153.5</ele>
        <time>2021-05-23T07:27:56Z</time>
      </trkpt>
      <trkpt lat="42.6597520" lon="-8.6353900">
        <ele>153.6</ele>
        <time>2021-05-23T07:27:57Z</time>
      </trkpt>
      <trkpt lat="42.6597670" lon="-8.6354020">
        <ele>153.6</ele>
        <time>2021-05-23T07:27:58Z</time>
      </trkpt>
      <trkpt lat="42.6597820" lon="-8.6354090">
        <ele>153.6</ele>
        <time>2021-05-23T07:27:59Z</time>
      </trkpt>
      <trkpt lat="42.6597990" lon="-8.6354100">
        <ele>153.6</ele>
        <time>2021-05-23T07:28:00Z</time>
      </trkpt>
      <trkpt lat="42.6598170" lon="-8.6354250">
        <ele>153.6</ele>
        <time>2021-05-23T07:28:01Z</time>
      </trkpt>
      <trkpt lat="42.6598230" lon="-8.6354320">
        <ele>153.6</ele>
        <time>2021-05-23T07:28:02Z</time>
      </trkpt>
      <trkpt lat="42.6598300" lon="-8.6354390">
        <ele>153.6</ele>
        <time>2021-05-23T07:28:03Z</time>
      </trkpt>
      <trkpt lat="42.6598410" lon="-8.6354470">
        <ele>153.6</ele>
        <time>2021-05-23T07:28:04Z</time>
      </trkpt>
      <trkpt lat="42.6598550" lon="-8.6354550">
        <ele>153.6</ele>
        <time>2021-05-23T07:28:05Z</time>
      </trkpt>
      <trkpt lat="42.6598760" lon="-8.6354640">
        <ele>153.6</ele>
        <time>2021-05-23T07:28:06Z</time>
      </trkpt>
      <trkpt lat="42.6598840" lon="-8.6354690">
        <ele>153.6</ele>
        <time>2021-05-23T07:28:07Z</time>
      </trkpt>
      <trkpt lat="42.6598910" lon="-8.6354730">
        <ele>153.6</ele>
        <time>2021-05-23T07:28:08Z</time>
      </trkpt>
      <trkpt lat="42.6599070" lon="-8.6354880">
        <ele>153.7</ele>
        <time>2021-05-23T07:28:09Z</time>
      </trkpt>
      <trkpt lat="42.6599150" lon="-8.6354950">
        <ele>153.7</ele>
        <time>2021-05-23T07:28:10Z</time>
      </trkpt>
      <trkpt lat="42.6599220" lon="-8.6355010">
        <ele>153.7</ele>
        <time>2021-05-23T07:28:11Z</time>
      </trkpt>
      <trkpt lat="42.6599340" lon="-8.6355050">
        <ele>153.7</ele>
        <time>2021-05-23T07:28:12Z</time>
      </trkpt>
      <trkpt lat="42.6599440" lon="-8.6355110">
        <ele>153.7</ele>
        <time>2021-05-23T07:28:13Z</time>
      </trkpt>
      <trkpt lat="42.6599500" lon="-8.6355230">
        <ele>153.7</ele>
        <time>2021-05-23T07:28:14Z</time>
      </trkpt>
      <trkpt lat="42.6599600" lon="-8.6355270">
        <ele>153.7</ele>
        <time>2021-05-23T07:28:15Z</time>
      </trkpt>
      <trkpt lat="42.6599710" lon="-8.6355380">
        <ele>153.7</ele>
        <time>2021-05-23T07:28:16Z</time>
      </trkpt>
      <trkpt lat="42.6599810" lon="-8.6355440">
        <ele>153.7</ele>
        <time>2021-05-23T07:28:17Z</time>
      </trkpt>
      <trkpt lat="42.6599960" lon="-8.6355470">
        <ele>153.7</ele>
        <time>2021-05-23T07:28:18Z</time>
      </trkpt>
      <trkpt lat="42.6600080" lon="-8.6355570">
        <ele>153.7</ele>
        <time>2021-05-23T07:28:19Z</time>
      </trkpt>
      <trkpt lat="42.6600270" lon="-8.6355680">
        <ele>153.7</ele>
        <time>2021-05-23T07:28:20Z</time>
      </trkpt>
      <trkpt lat="42.6600340" lon="-8.6355750">
        <ele>153.7</ele>
        <time>2021-05-23T07:28:21Z</time>
      </trkpt>
      <trkpt lat="42.6600410" lon="-8.6355820">
        <ele>153.7</ele>
        <time>2021-05-23T07:28:22Z</time>
      </trkpt>
      <trkpt lat="42.6600520" lon="-8.6355850">
        <ele>153.7</ele>
        <time>2021-05-23T07:28:23Z</time>
      </trkpt>
      <trkpt lat="42.6600620" lon="-8.6355900">
        <ele>153.7</ele>
        <time>2021-05-23T07:28:24Z</time>
      </trkpt>
      <trkpt lat="42.6600730" lon="-8.6355970">
        <ele>153.8</ele>
        <time>2021-05-23T07:28:25Z</time>
      </trkpt>
      <trkpt lat="42.6600900" lon="-8.6356170">
        <ele>153.8</ele>
        <time>2021-05-23T07:28:26Z</time>
      </trkpt>
      <trkpt lat="42.6600980" lon="-8.6356220">
        <ele>153.8</ele>
        <time>2021-05-23T07:28:27Z</time>
      </trkpt>
      <trkpt lat="42.6601060" lon="-8.6356260">
        <ele>153.8</ele>
        <time>2021-05-23T07:28:28Z</time>
      </trkpt>
      <trkpt lat="42.6601160" lon="-8.6356350">
        <ele>153.8</ele>
        <time>2021-05-23T07:28:29Z</time>
      </trkpt>
      <trkpt lat="42.6601270" lon="-8.6356420">
        <ele>153.8</ele>
        <time>2021-05-23T07:28:30Z</time>
      </trkpt>
      <trkpt lat="42.6601350" lon="-8.6356540">
        <ele>153.8</ele>
        <time>2021-05-23T07:28:31Z</time>
      </trkpt>
      <trkpt lat="42.6601530" lon="-8.6356680">
        <ele>153.8</ele>
        <time>2021-05-23T07:28:33Z</time>
      </trkpt>
      <trkpt lat="42.6601610" lon="-8.6356720">
        <ele>153.8</ele>
        <time>2021-05-23T07:28:34Z</time>
      </trkpt>
      <trkpt lat="42.6601690" lon="-8.6356750">
        <ele>153.8</ele>
        <time>2021-05-23T07:28:35Z</time>
      </trkpt>
      <trkpt lat="42.6601880" lon="-8.6356910">
        <ele>153.9</ele>
        <time>2021-05-23T07:28:36Z</time>
      </trkpt>
      <trkpt lat="42.6601970" lon="-8.6356940">
        <ele>153.9</ele>
        <time>2021-05-23T07:28:37Z</time>
      </trkpt>
      <trkpt lat="42.6602060" lon="-8.6356980">
        <ele>153.9</ele>
        <time>2021-05-23T07:28:38Z</time>
      </trkpt>
      <trkpt lat="42.6602280" lon="-8.6357100">
        <ele>153.9</ele>
        <time>2021-05-23T07:28:39Z</time>
      </trkpt>
      <trkpt lat="42.6602390" lon="-8.6357160">
        <ele>153.9</ele>
        <time>2021-05-23T07:28:40Z</time>
      </trkpt>
      <trkpt lat="42.6602510" lon="-8.6357220">
        <ele>153.9</ele>
        <time>2021-05-23T07:28:41Z</time>
      </trkpt>
      <trkpt lat="42.6602650" lon="-8.6357430">
        <ele>154.0</ele>
        <time>2021-05-23T07:28:42Z</time>
      </trkpt>
      <trkpt lat="42.6602690" lon="-8.6357530">
        <ele>154.0</ele>
        <time>2021-05-23T07:28:43Z</time>
      </trkpt>
      <trkpt lat="42.6602750" lon="-8.6357630">
        <ele>154.0</ele>
        <time>2021-05-23T07:28:44Z</time>
      </trkpt>
      <trkpt lat="42.6602870" lon="-8.6357690">
        <ele>154.0</ele>
        <time>2021-05-23T07:28:45Z</time>
      </trkpt>
      <trkpt lat="42.6602930" lon="-8.6357870">
        <ele>154.1</ele>
        <time>2021-05-23T07:28:46Z</time>
      </trkpt>
      <trkpt lat="42.6603110" lon="-8.6358040">
        <ele>154.1</ele>
        <time>2021-05-23T07:28:47Z</time>
      </trkpt>
      <trkpt lat="42.6603170" lon="-8.6358130">
        <ele>154.1</ele>
        <time>2021-05-23T07:28:48Z</time>
      </trkpt>
      <trkpt lat="42.6603240" lon="-8.6358210">
        <ele>154.1</ele>
        <time>2021-05-23T07:28:49Z</time>
      </trkpt>
      <trkpt lat="42.6603380" lon="-8.6358210">
        <ele>154.2</ele>
        <time>2021-05-23T07:28:50Z</time>
      </trkpt>
      <trkpt lat="42.6603530" lon="-8.6358280">
        <ele>154.2</ele>
        <time>2021-05-23T07:28:51Z</time>
      </trkpt>
      <trkpt lat="42.6603700" lon="-8.6358490">
        <ele>154.2</ele>
        <time>2021-05-23T07:28:52Z</time>
      </trkpt>
      <trkpt lat="42.6603760" lon="-8.6358560">
        <ele>154.3</ele>
        <time>2021-05-23T07:28:53Z</time>
      </trkpt>
      <trkpt lat="42.6603830" lon="-8.6358620">
        <ele>154.3</ele>
        <time>2021-05-23T07:28:54Z</time>
      </trkpt>
      <trkpt lat="42.6603980" lon="-8.6358790">
        <ele>154.3</ele>
        <time>2021-05-23T07:28:55Z</time>
      </trkpt>
      <trkpt lat="42.6604060" lon="-8.6358850">
        <ele>154.3</ele>
        <time>2021-05-23T07:28:56Z</time>
      </trkpt>
      <trkpt lat="42.6604130" lon="-8.6358910">
        <ele>154.4</ele>
        <time>2021-05-23T07:28:57Z</time>
      </trkpt>
      <trkpt lat="42.6604300" lon="-8.6359080">
        <ele>154.4</ele>
        <time>2021-05-23T07:28:58Z</time>
      </trkpt>
      <trkpt lat="42.6604380" lon="-8.6359160">
        <ele>154.4</ele>
        <time>2021-05-23T07:28:59Z</time>
      </trkpt>
      <trkpt lat="42.6604450" lon="-8.6359240">
        <ele>154.5</ele>
        <time>2021-05-23T07:29:00Z</time>
      </trkpt>
      <trkpt lat="42.6604520" lon="-8.6359360">
        <ele>154.5</ele>
        <time>2021-05-23T07:29:01Z</time>
      </trkpt>
      <trkpt lat="42.6604650" lon="-8.6359410">
        <ele>154.5</ele>
        <time>2021-05-23T07:29:02Z</time>
      </trkpt>
      <trkpt lat="42.6604710" lon="-8.6359560">
        <ele>154.6</ele>
        <time>2021-05-23T07:29:03Z</time>
      </trkpt>
      <trkpt lat="42.6604910" lon="-8.6359650">
        <ele>154.6</ele>
        <time>2021-05-23T07:29:04Z</time>
      </trkpt>
      <trkpt lat="42.6604990" lon="-8.6359700">
        <ele>154.7</ele>
        <time>2021-05-23T07:29:05Z</time>
      </trkpt>
      <trkpt lat="42.6605070" lon="-8.6359740">
        <ele>154.7</ele>
        <time>2021-05-23T07:29:06Z</time>
      </trkpt>
      <trkpt lat="42.6605270" lon="-8.6359890">
        <ele>154.8</ele>
        <time>2021-05-23T07:29:07Z</time>
      </trkpt>
      <trkpt lat="42.6605360" lon="-8.6359940">
        <ele>154.8</ele>
        <time>2021-05-23T07:29:08Z</time>
      </trkpt>
      <trkpt lat="42.6605440" lon="-8.6360000">
        <ele>154.8</ele>
        <time>2021-05-23T07:29:09Z</time>
      </trkpt>
      <trkpt lat="42.6605640" lon="-8.6360100">
        <ele>154.9</ele>
        <time>2021-05-23T07:29:10Z</time>
      </trkpt>
      <trkpt lat="42.6605710" lon="-8.6360150">
        <ele>154.9</ele>
        <time>2021-05-23T07:29:11Z</time>
      </trkpt>
      <trkpt lat="42.6605790" lon="-8.6360190">
        <ele>155.0</ele>
        <time>2021-05-23T07:29:12Z</time>
      </trkpt>
      <trkpt lat="42.6605900" lon="-8.6360300">
        <ele>155.0</ele>
        <time>2021-05-23T07:29:13Z</time>
      </trkpt>
      <trkpt lat="42.6606030" lon="-8.6360390">
        <ele>155.1</ele>
        <time>2021-05-23T07:29:14Z</time>
      </trkpt>
      <trkpt lat="42.6606140" lon="-8.6360390">
        <ele>155.1</ele>
        <time>2021-05-23T07:29:15Z</time>
      </trkpt>
      <trkpt lat="42.6606250" lon="-8.6360460">
        <ele>155.2</ele>
        <time>2021-05-23T07:29:16Z</time>
      </trkpt>
      <trkpt lat="42.6606350" lon="-8.6360590">
        <ele>155.2</ele>
        <time>2021-05-23T07:29:17Z</time>
      </trkpt>
      <trkpt lat="42.6606470" lon="-8.6360710">
        <ele>155.3</ele>
        <time>2021-05-23T07:29:18Z</time>
      </trkpt>
      <trkpt lat="42.6606600" lon="-8.6360740">
        <ele>155.3</ele>
        <time>2021-05-23T07:29:19Z</time>
      </trkpt>
      <trkpt lat="42.6606810" lon="-8.6360850">
        <ele>155.4</ele>
        <time>2021-05-23T07:29:20Z</time>
      </trkpt>
      <trkpt lat="42.6606890" lon="-8.6360890">
        <ele>155.4</ele>
        <time>2021-05-23T07:29:21Z</time>
      </trkpt>
      <trkpt lat="42.6606980" lon="-8.6360920">
        <ele>155.4</ele>
        <time>2021-05-23T07:29:22Z</time>
      </trkpt>
      <trkpt lat="42.6607070" lon="-8.6360940">
        <ele>155.5</ele>
        <time>2021-05-23T07:29:23Z</time>
      </trkpt>
      <trkpt lat="42.6607190" lon="-8.6361010">
        <ele>155.5</ele>
        <time>2021-05-23T07:29:24Z</time>
      </trkpt>
      <trkpt lat="42.6607310" lon="-8.6361030">
        <ele>155.5</ele>
        <time>2021-05-23T07:29:25Z</time>
      </trkpt>
      <trkpt lat="42.6607420" lon="-8.6361030">
        <ele>155.6</ele>
        <time>2021-05-23T07:29:26Z</time>
      </trkpt>
      <trkpt lat="42.6607550" lon="-8.6361140">
        <ele>155.6</ele>
        <time>2021-05-23T07:29:27Z</time>
      </trkpt>
      <trkpt lat="42.6607650" lon="-8.6361070">
        <ele>155.6</ele>
        <time>2021-05-23T07:29:28Z</time>
      </trkpt>
      <trkpt lat="42.6607770" lon="-8.6361170">
        <ele>155.7</ele>
        <time>2021-05-23T07:29:29Z</time>
      </trkpt>
      <trkpt lat="42.6607850" lon="-8.6361320">
        <ele>155.7</ele>
        <time>2021-05-23T07:29:30Z</time>
      </trkpt>
      <trkpt lat="42.6608060" lon="-8.6361400">
        <ele>155.7</ele>
        <time>2021-05-23T07:29:31Z</time>
      </trkpt>
      <trkpt lat="42.6608130" lon="-8.6361440">
        <ele>155.7</ele>
        <time>2021-05-23T07:29:32Z</time>
      </trkpt>
      <trkpt lat="42.6608210" lon="-8.6361490">
        <ele>155.7</ele>
        <time>2021-05-23T07:29:33Z</time>
      </trkpt>
      <trkpt lat="42.6608290" lon="-8.6361640">
        <ele>155.8</ele>
        <time>2021-05-23T07:29:34Z</time>
      </trkpt>
      <trkpt lat="42.6608420" lon="-8.6361780">
        <ele>155.8</ele>
        <time>2021-05-23T07:29:35Z</time>
      </trkpt>
      <trkpt lat="42.6608560" lon="-8.6361890">
        <ele>155.8</ele>
        <time>2021-05-23T07:29:36Z</time>
      </trkpt>
      <trkpt lat="42.6608670" lon="-8.6362020">
        <ele>155.8</ele>
        <time>2021-05-23T07:29:37Z</time>
      </trkpt>
      <trkpt lat="42.6608730" lon="-8.6362210">
        <ele>155.8</ele>
        <time>2021-05-23T07:29:38Z</time>
      </trkpt>
      <trkpt lat="42.6608820" lon="-8.6362330">
        <ele>155.8</ele>
        <time>2021-05-23T07:29:39Z</time>
      </trkpt>
      <trkpt lat="42.6608940" lon="-8.6362480">
        <ele>155.8</ele>
        <time>2021-05-23T07:29:40Z</time>
      </trkpt>
      <trkpt lat="42.6609080" lon="-8.6362570">
        <ele>155.8</ele>
        <time>2021-05-23T07:29:41Z</time>
      </trkpt>
      <trkpt lat="42.6609270" lon="-8.6362660">
        <ele>155.8</ele>
        <time>2021-05-23T07:29:42Z</time>
      </trkpt>
      <trkpt lat="42.6609340" lon="-8.6362720">
        <ele>155.8</ele>
        <time>2021-05-23T07:29:43Z</time>
      </trkpt>
      <trkpt lat="42.6609410" lon="-8.6362780">
        <ele>155.8</ele>
        <time>2021-05-23T07:29:44Z</time>
      </trkpt>
      <trkpt lat="42.6609580" lon="-8.6362960">
        <ele>155.8</ele>
        <time>2021-05-23T07:29:45Z</time>
      </trkpt>
      <trkpt lat="42.6609640" lon="-8.6363070">
        <ele>155.8</ele>
        <time>2021-05-23T07:29:46Z</time>
      </trkpt>
      <trkpt lat="42.6609690" lon="-8.6363180">
        <ele>155.8</ele>
        <time>2021-05-23T07:29:47Z</time>
      </trkpt>
      <trkpt lat="42.6609850" lon="-8.6363400">
        <ele>155.8</ele>
        <time>2021-05-23T07:29:48Z</time>
      </trkpt>
      <trkpt lat="42.6609920" lon="-8.6363490">
        <ele>155.8</ele>
        <time>2021-05-23T07:29:49Z</time>
      </trkpt>
      <trkpt lat="42.6609980" lon="-8.6363570">
        <ele>155.8</ele>
        <time>2021-05-23T07:29:50Z</time>
      </trkpt>
      <trkpt lat="42.6610130" lon="-8.6363610">
        <ele>155.8</ele>
        <time>2021-05-23T07:29:51Z</time>
      </trkpt>
      <trkpt lat="42.6610260" lon="-8.6363700">
        <ele>155.8</ele>
        <time>2021-05-23T07:29:52Z</time>
      </trkpt>
      <trkpt lat="42.6610450" lon="-8.6363860">
        <ele>155.8</ele>
        <time>2021-05-23T07:29:53Z</time>
      </trkpt>
      <trkpt lat="42.6610520" lon="-8.6363910">
        <ele>155.8</ele>
        <time>2021-05-23T07:29:54Z</time>
      </trkpt>
      <trkpt lat="42.6610600" lon="-8.6363950">
        <ele>155.8</ele>
        <time>2021-05-23T07:29:55Z</time>
      </trkpt>
      <trkpt lat="42.6610730" lon="-8.6364030">
        <ele>155.8</ele>
        <time>2021-05-23T07:29:56Z</time>
      </trkpt>
      <trkpt lat="42.6610860" lon="-8.6364150">
        <ele>155.8</ele>
        <time>2021-05-23T07:29:57Z</time>
      </trkpt>
      <trkpt lat="42.6610980" lon="-8.6364210">
        <ele>155.8</ele>
        <time>2021-05-23T07:29:58Z</time>
      </trkpt>
      <trkpt lat="42.6611140" lon="-8.6364120">
        <ele>155.8</ele>
        <time>2021-05-23T07:29:59Z</time>
      </trkpt>
      <trkpt lat="42.6611350" lon="-8.6364170">
        <ele>155.8</ele>
        <time>2021-05-23T07:30:00Z</time>
      </trkpt>
      <trkpt lat="42.6611440" lon="-8.6364250">
        <ele>155.8</ele>
        <time>2021-05-23T07:30:01Z</time>
      </trkpt>
      <trkpt lat="42.6611520" lon="-8.6364320">
        <ele>155.8</ele>
        <time>2021-05-23T07:30:02Z</time>
      </trkpt>
      <trkpt lat="42.6611720" lon="-8.6364320">
        <ele>155.8</ele>
        <time>2021-05-23T07:30:03Z</time>
      </trkpt>
      <trkpt lat="42.6611810" lon="-8.6364260">
        <ele>155.8</ele>
        <time>2021-05-23T07:30:04Z</time>
      </trkpt>
      <trkpt lat="42.6611910" lon="-8.6364190">
        <ele>155.8</ele>
        <time>2021-05-23T07:30:05Z</time>
      </trkpt>
      <trkpt lat="42.6612040" lon="-8.6364240">
        <ele>155.8</ele>
        <time>2021-05-23T07:30:06Z</time>
      </trkpt>
      <trkpt lat="42.6612190" lon="-8.6364300">
        <ele>155.7</ele>
        <time>2021-05-23T07:30:07Z</time>
      </trkpt>
      <trkpt lat="42.6612330" lon="-8.6364400">
        <ele>155.7</ele>
        <time>2021-05-23T07:30:08Z</time>
      </trkpt>
      <trkpt lat="42.6612460" lon="-8.6364480">
        <ele>155.7</ele>
        <time>2021-05-23T07:30:09Z</time>
      </trkpt>
      <trkpt lat="42.6612690" lon="-8.6364470">
        <ele>155.7</ele>
        <time>2021-05-23T07:30:10Z</time>
      </trkpt>
      <trkpt lat="42.6612790" lon="-8.6364460">
        <ele>155.7</ele>
        <time>2021-05-23T07:30:11Z</time>
      </trkpt>
      <trkpt lat="42.6612880" lon="-8.6364440">
        <ele>155.7</ele>
        <time>2021-05-23T07:30:12Z</time>
      </trkpt>
      <trkpt lat="42.6613010" lon="-8.6364350">
        <ele>155.7</ele>
        <time>2021-05-23T07:30:13Z</time>
      </trkpt>
      <trkpt lat="42.6613160" lon="-8.6364370">
        <ele>155.7</ele>
        <time>2021-05-23T07:30:14Z</time>
      </trkpt>
      <trkpt lat="42.6613310" lon="-8.6364430">
        <ele>155.7</ele>
        <time>2021-05-23T07:30:16Z</time>
      </trkpt>
      <trkpt lat="42.6613450" lon="-8.6364430">
        <ele>155.7</ele>
        <time>2021-05-23T07:30:17Z</time>
      </trkpt>
      <trkpt lat="42.6613680" lon="-8.6364440">
        <ele>155.7</ele>
        <time>2021-05-23T07:30:18Z</time>
      </trkpt>
      <trkpt lat="42.6613770" lon="-8.6364420">
        <ele>155.6</ele>
        <time>2021-05-23T07:30:19Z</time>
      </trkpt>
      <trkpt lat="42.6613870" lon="-8.6364390">
        <ele>155.6</ele>
        <time>2021-05-23T07:30:20Z</time>
      </trkpt>
      <trkpt lat="42.6614080" lon="-8.6364320">
        <ele>155.6</ele>
        <time>2021-05-23T07:30:21Z</time>
      </trkpt>
      <trkpt lat="42.6614150" lon="-8.6364250">
        <ele>155.6</ele>
        <time>2021-05-23T07:30:22Z</time>
      </trkpt>
      <trkpt lat="42.6614210" lon="-8.6364190">
        <ele>155.6</ele>
        <time>2021-05-23T07:30:23Z</time>
      </trkpt>
      <trkpt lat="42.6614380" lon="-8.6364230">
        <ele>155.6</ele>
        <time>2021-05-23T07:30:24Z</time>
      </trkpt>
      <trkpt lat="42.6614500" lon="-8.6364260">
        <ele>155.6</ele>
        <time>2021-05-23T07:30:25Z</time>
      </trkpt>
      <trkpt lat="42.6614630" lon="-8.6364240">
        <ele>155.5</ele>
        <time>2021-05-23T07:30:26Z</time>
      </trkpt>
      <trkpt lat="42.6614730" lon="-8.6364220">
        <ele>155.5</ele>
        <time>2021-05-23T07:30:27Z</time>
      </trkpt>
      <trkpt lat="42.6614840" lon="-8.6364230">
        <ele>155.5</ele>
        <time>2021-05-23T07:30:28Z</time>
      </trkpt>
      <trkpt lat="42.6614930" lon="-8.6364120">
        <ele>155.5</ele>
        <time>2021-05-23T07:30:29Z</time>
      </trkpt>
      <trkpt lat="42.6614950" lon="-8.6364100">
        <ele>155.5</ele>
        <time>2021-05-23T07:30:30Z</time>
      </trkpt>
      <trkpt lat="42.6615030" lon="-8.6364080">
        <ele>155.5</ele>
        <time>2021-05-23T07:30:31Z</time>
      </trkpt>
      <trkpt lat="42.6615120" lon="-8.6364010">
        <ele>155.4</ele>
        <time>2021-05-23T07:30:32Z</time>
      </trkpt>
      <trkpt lat="42.6615200" lon="-8.6363990">
        <ele>155.4</ele>
        <time>2021-05-23T07:30:33Z</time>
      </trkpt>
      <trkpt lat="42.6615290" lon="-8.6363980">
        <ele>155.4</ele>
        <time>2021-05-23T07:30:34Z</time>
      </trkpt>
      <trkpt lat="42.6615350" lon="-8.6363910">
        <ele>155.4</ele>
        <time>2021-05-23T07:30:35Z</time>
      </trkpt>
      <trkpt lat="42.6615330" lon="-8.6363860">
        <ele>155.4</ele>
        <time>2021-05-23T07:30:36Z</time>
      </trkpt>
      <trkpt lat="42.6615330" lon="-8.6363810">
        <ele>155.4</ele>
        <time>2021-05-23T07:30:37Z</time>
      </trkpt>
      <trkpt lat="42.6615390" lon="-8.6363760">
        <ele>155.4</ele>
        <time>2021-05-23T07:30:38Z</time>
      </trkpt>
      <trkpt lat="42.6615540" lon="-8.6363500">
        <ele>155.3</ele>
        <time>2021-05-23T07:30:39Z</time>
      </trkpt>
      <trkpt lat="42.6615560" lon="-8.6363410">
        <ele>155.3</ele>
        <time>2021-05-23T07:30:40Z</time>
      </trkpt>
      <trkpt lat="42.6615590" lon="-8.6363330">
        <ele>155.3</ele>
        <time>2021-05-23T07:30:41Z</time>
      </trkpt>
      <trkpt lat="42.6615660" lon="-8.6363270">
        <ele>155.2</ele>
        <time>2021-05-23T07:30:42Z</time>
      </trkpt>
      <trkpt lat="42.6615710" lon="-8.6363200">
        <ele>155.2</ele>
        <time>2021-05-23T07:30:43Z</time>
      </trkpt>
      <trkpt lat="42.6615800" lon="-8.6363070">
        <ele>155.2</ele>
        <time>2021-05-23T07:30:44Z</time>
      </trkpt>
      <trkpt lat="42.6616000" lon="-8.6363000">
        <ele>155.1</ele>
        <time>2021-05-23T07:30:45Z</time>
      </trkpt>
      <trkpt lat="42.6616070" lon="-8.6362920">
        <ele>155.1</ele>
        <time>2021-05-23T07:30:46Z</time>
      </trkpt>
      <trkpt lat="42.6616130" lon="-8.6362850">
        <ele>155.1</ele>
        <time>2021-05-23T07:30:47Z</time>
      </trkpt>
      <trkpt lat="42.6616220" lon="-8.6362750">
        <ele>155.1</ele>
        <time>2021-05-23T07:30:48Z</time>
      </trkpt>
      <trkpt lat="42.6616290" lon="-8.6362670">
        <ele>155.1</ele>
        <time>2021-05-23T07:30:49Z</time>
      </trkpt>
      <trkpt lat="42.6616350" lon="-8.6362600">
        <ele>155.1</ele>
        <time>2021-05-23T07:30:50Z</time>
      </trkpt>
      <trkpt lat="42.6616410" lon="-8.6362520">
        <ele>155.1</ele>
        <time>2021-05-23T07:30:51Z</time>
      </trkpt>
      <trkpt lat="42.6616450" lon="-8.6362440">
        <ele>155.1</ele>
        <time>2021-05-23T07:30:52Z</time>
      </trkpt>
      <trkpt lat="42.6616500" lon="-8.6362310">
        <ele>155.0</ele>
        <time>2021-05-23T07:30:53Z</time>
      </trkpt>
      <trkpt lat="42.6616560" lon="-8.6362200">
        <ele>155.0</ele>
        <time>2021-05-23T07:30:54Z</time>
      </trkpt>
      <trkpt lat="42.6616740" lon="-8.6362030">
        <ele>155.0</ele>
        <time>2021-05-23T07:30:55Z</time>
      </trkpt>
      <trkpt lat="42.6616820" lon="-8.6361980">
        <ele>155.0</ele>
        <time>2021-05-23T07:30:56Z</time>
      </trkpt>
      <trkpt lat="42.6616890" lon="-8.6361930">
        <ele>155.0</ele>
        <time>2021-05-23T07:30:57Z</time>
      </trkpt>
      <trkpt lat="42.6616930" lon="-8.6361730">
        <ele>154.9</ele>
        <time>2021-05-23T07:30:58Z</time>
      </trkpt>
      <trkpt lat="42.6616980" lon="-8.6361550">
        <ele>154.9</ele>
        <time>2021-05-23T07:30:59Z</time>
      </trkpt>
      <trkpt lat="42.6616990" lon="-8.6361410">
        <ele>154.9</ele>
        <time>2021-05-23T07:31:00Z</time>
      </trkpt>
      <trkpt lat="42.6616970" lon="-8.6361280">
        <ele>154.9</ele>
        <time>2021-05-23T07:31:01Z</time>
      </trkpt>
      <trkpt lat="42.6617020" lon="-8.6361100">
        <ele>154.9</ele>
        <time>2021-05-23T07:31:02Z</time>
      </trkpt>
      <trkpt lat="42.6617110" lon="-8.6360990">
        <ele>154.8</ele>
        <time>2021-05-23T07:31:03Z</time>
      </trkpt>
      <trkpt lat="42.6617190" lon="-8.6360910">
        <ele>154.8</ele>
        <time>2021-05-23T07:31:04Z</time>
      </trkpt>
      <trkpt lat="42.6617240" lon="-8.6360740">
        <ele>154.8</ele>
        <time>2021-05-23T07:31:05Z</time>
      </trkpt>
      <trkpt lat="42.6617320" lon="-8.6360620">
        <ele>154.7</ele>
        <time>2021-05-23T07:31:06Z</time>
      </trkpt>
      <trkpt lat="42.6617500" lon="-8.6360500">
        <ele>154.7</ele>
        <time>2021-05-23T07:31:07Z</time>
      </trkpt>
      <trkpt lat="42.6617620" lon="-8.6360350">
        <ele>154.6</ele>
        <time>2021-05-23T07:31:08Z</time>
      </trkpt>
      <trkpt lat="42.6617670" lon="-8.6360210">
        <ele>154.6</ele>
        <time>2021-05-23T07:31:09Z</time>
      </trkpt>
      <trkpt lat="42.6617840" lon="-8.6360040">
        <ele>154.5</ele>
        <time>2021-05-23T07:31:10Z</time>
      </trkpt>
      <trkpt lat="42.6617930" lon="-8.6359970">
        <ele>154.5</ele>
        <time>2021-05-23T07:31:11Z</time>
      </trkpt>
      <trkpt lat="42.6618010" lon="-8.6359890">
        <ele>154.5</ele>
        <time>2021-05-23T07:31:12Z</time>
      </trkpt>
      <trkpt lat="42.6618160" lon="-8.6359660">
        <ele>154.4</ele>
        <time>2021-05-23T07:31:13Z</time>
      </trkpt>
      <trkpt lat="42.6618230" lon="-8.6359590">
        <ele>154.3</ele>
        <time>2021-05-23T07:31:14Z</time>
      </trkpt>
      <trkpt lat="42.6618300" lon="-8.6359510">
        <ele>154.3</ele>
        <time>2021-05-23T07:31:15Z</time>
      </trkpt>
      <trkpt lat="42.6618440" lon="-8.6359390">
        <ele>154.2</ele>
        <time>2021-05-23T07:31:16Z</time>
      </trkpt>
      <trkpt lat="42.6618530" lon="-8.6359230">
        <ele>154.1</ele>
        <time>2021-05-23T07:31:17Z</time>
      </trkpt>
      <trkpt lat="42.6618680" lon="-8.6359070">
        <ele>154.0</ele>
        <time>2021-05-23T07:31:18Z</time>
      </trkpt>
      <trkpt lat="42.6618780" lon="-8.6358920">
        <ele>154.0</ele>
        <time>2021-05-23T07:31:19Z</time>
      </trkpt>
      <trkpt lat="42.6618880" lon="-8.6358820">
        <ele>153.9</ele>
        <time>2021-05-23T07:31:20Z</time>
      </trkpt>
      <trkpt lat="42.6618960" lon="-8.6358630">
        <ele>153.8</ele>
        <time>2021-05-23T07:31:21Z</time>
      </trkpt>
      <trkpt lat="42.6619120" lon="-8.6358570">
        <ele>153.7</ele>
        <time>2021-05-23T07:31:22Z</time>
      </trkpt>
      <trkpt lat="42.6619230" lon="-8.6358360">
        <ele>153.5</ele>
        <time>2021-05-23T07:31:23Z</time>
      </trkpt>
      <trkpt lat="42.6619330" lon="-8.6358210">
        <ele>153.4</ele>
        <time>2021-05-23T07:31:24Z</time>
      </trkpt>
      <trkpt lat="42.6619440" lon="-8.6358070">
        <ele>153.3</ele>
        <time>2021-05-23T07:31:25Z</time>
      </trkpt>
      <trkpt lat="42.6619480" lon="-8.6357860">
        <ele>153.2</ele>
        <time>2021-05-23T07:31:26Z</time>
      </trkpt>
      <trkpt lat="42.6619560" lon="-8.6357670">
        <ele>153.1</ele>
        <time>2021-05-23T07:31:27Z</time>
      </trkpt>
      <trkpt lat="42.6619690" lon="-8.6357520">
        <ele>152.9</ele>
        <time>2021-05-23T07:31:28Z</time>
      </trkpt>
      <trkpt lat="42.6619790" lon="-8.6357410">
        <ele>152.8</ele>
        <time>2021-05-23T07:31:29Z</time>
      </trkpt>
      <trkpt lat="42.6619930" lon="-8.6357260">
        <ele>152.7</ele>
        <time>2021-05-23T07:31:30Z</time>
      </trkpt>
      <trkpt lat="42.6620090" lon="-8.6357190">
        <ele>152.6</ele>
        <time>2021-05-23T07:31:31Z</time>
      </trkpt>
      <trkpt lat="42.6620260" lon="-8.6357000">
        <ele>152.4</ele>
        <time>2021-05-23T07:31:32Z</time>
      </trkpt>
      <trkpt lat="42.6620320" lon="-8.6356920">
        <ele>152.3</ele>
        <time>2021-05-23T07:31:33Z</time>
      </trkpt>
      <trkpt lat="42.6620380" lon="-8.6356840">
        <ele>152.2</ele>
        <time>2021-05-23T07:31:34Z</time>
      </trkpt>
      <trkpt lat="42.6620490" lon="-8.6356760">
        <ele>152.1</ele>
        <time>2021-05-23T07:31:35Z</time>
      </trkpt>
      <trkpt lat="42.6620620" lon="-8.6356690">
        <ele>152.0</ele>
        <time>2021-05-23T07:31:36Z</time>
      </trkpt>
      <trkpt lat="42.6620730" lon="-8.6356610">
        <ele>151.8</ele>
        <time>2021-05-23T07:31:37Z</time>
      </trkpt>
      <trkpt lat="42.6620870" lon="-8.6356540">
        <ele>151.7</ele>
        <time>2021-05-23T07:31:38Z</time>
      </trkpt>
      <trkpt lat="42.6621020" lon="-8.6356470">
        <ele>151.6</ele>
        <time>2021-05-23T07:31:39Z</time>
      </trkpt>
      <trkpt lat="42.6621190" lon="-8.6356430">
        <ele>151.4</ele>
        <time>2021-05-23T07:31:40Z</time>
      </trkpt>
      <trkpt lat="42.6621370" lon="-8.6356220">
        <ele>151.2</ele>
        <time>2021-05-23T07:31:41Z</time>
      </trkpt>
      <trkpt lat="42.6621430" lon="-8.6356130">
        <ele>151.1</ele>
        <time>2021-05-23T07:31:42Z</time>
      </trkpt>
      <trkpt lat="42.6621500" lon="-8.6356050">
        <ele>151.0</ele>
        <time>2021-05-23T07:31:43Z</time>
      </trkpt>
      <trkpt lat="42.6621670" lon="-8.6355860">
        <ele>150.8</ele>
        <time>2021-05-23T07:31:44Z</time>
      </trkpt>
      <trkpt lat="42.6621730" lon="-8.6355790">
        <ele>150.8</ele>
        <time>2021-05-23T07:31:45Z</time>
      </trkpt>
      <trkpt lat="42.6621790" lon="-8.6355720">
        <ele>150.7</ele>
        <time>2021-05-23T07:31:46Z</time>
      </trkpt>
      <trkpt lat="42.6621970" lon="-8.6355670">
        <ele>150.5</ele>
        <time>2021-05-23T07:31:47Z</time>
      </trkpt>
      <trkpt lat="42.6622050" lon="-8.6355500">
        <ele>150.4</ele>
        <time>2021-05-23T07:31:48Z</time>
      </trkpt>
      <trkpt lat="42.6622150" lon="-8.6355410">
        <ele>150.3</ele>
        <time>2021-05-23T07:31:49Z</time>
      </trkpt>
      <trkpt lat="42.6622290" lon="-8.6355320">
        <ele>150.1</ele>
        <time>2021-05-23T07:31:50Z</time>
      </trkpt>
      <trkpt lat="42.6622440" lon="-8.6355230">
        <ele>150.0</ele>
        <time>2021-05-23T07:31:51Z</time>
      </trkpt>
      <trkpt lat="42.6622550" lon="-8.6355170">
        <ele>149.8</ele>
        <time>2021-05-23T07:31:52Z</time>
      </trkpt>
      <trkpt lat="42.6622690" lon="-8.6355090">
        <ele>149.7</ele>
        <time>2021-05-23T07:31:54Z</time>
      </trkpt>
      <trkpt lat="42.6622760" lon="-8.6354890">
        <ele>149.6</ele>
        <time>2021-05-23T07:31:55Z</time>
      </trkpt>
      <trkpt lat="42.6622880" lon="-8.6354820">
        <ele>149.4</ele>
        <time>2021-05-23T07:31:56Z</time>
      </trkpt>
      <trkpt lat="42.6622920" lon="-8.6354680">
        <ele>149.3</ele>
        <time>2021-05-23T07:31:57Z</time>
      </trkpt>
      <trkpt lat="42.6622970" lon="-8.6354530">
        <ele>149.2</ele>
        <time>2021-05-23T07:31:58Z</time>
      </trkpt>
      <trkpt lat="42.6623130" lon="-8.6354400">
        <ele>149.0</ele>
        <time>2021-05-23T07:31:59Z</time>
      </trkpt>
      <trkpt lat="42.6623220" lon="-8.6354340">
        <ele>148.9</ele>
        <time>2021-05-23T07:32:00Z</time>
      </trkpt>
      <trkpt lat="42.6623300" lon="-8.6354290">
        <ele>148.8</ele>
        <time>2021-05-23T07:32:01Z</time>
      </trkpt>
      <trkpt lat="42.6623440" lon="-8.6354250">
        <ele>148.7</ele>
        <time>2021-05-23T07:32:02Z</time>
      </trkpt>
      <trkpt lat="42.6623560" lon="-8.6354230">
        <ele>148.6</ele>
        <time>2021-05-23T07:32:03Z</time>
      </trkpt>
      <trkpt lat="42.6623640" lon="-8.6354130">
        <ele>148.5</ele>
        <time>2021-05-23T07:32:04Z</time>
      </trkpt>
      <trkpt lat="42.6623700" lon="-8.6354030">
        <ele>148.4</ele>
        <time>2021-05-23T07:32:05Z</time>
      </trkpt>
      <trkpt lat="42.6623790" lon="-8.6353890">
        <ele>148.2</ele>
        <time>2021-05-23T07:32:06Z</time>
      </trkpt>
      <trkpt lat="42.6623920" lon="-8.6353830">
        <ele>148.1</ele>
        <time>2021-05-23T07:32:07Z</time>
      </trkpt>
      <trkpt lat="42.6624080" lon="-8.6353830">
        <ele>147.9</ele>
        <time>2021-05-23T07:32:08Z</time>
      </trkpt>
      <trkpt lat="42.6624190" lon="-8.6353750">
        <ele>147.8</ele>
        <time>2021-05-23T07:32:09Z</time>
      </trkpt>
      <trkpt lat="42.6624320" lon="-8.6353700">
        <ele>147.6</ele>
        <time>2021-05-23T07:32:10Z</time>
      </trkpt>
      <trkpt lat="42.6624370" lon="-8.6353560">
        <ele>147.5</ele>
        <time>2021-05-23T07:32:11Z</time>
      </trkpt>
      <trkpt lat="42.6624460" lon="-8.6353460">
        <ele>147.4</ele>
        <time>2021-05-23T07:32:12Z</time>
      </trkpt>
      <trkpt lat="42.6624650" lon="-8.6353290">
        <ele>147.1</ele>
        <time>2021-05-23T07:32:13Z</time>
      </trkpt>
      <trkpt lat="42.6624710" lon="-8.6353240">
        <ele>147.0</ele>
        <time>2021-05-23T07:32:14Z</time>
      </trkpt>
      <trkpt lat="42.6624780" lon="-8.6353180">
        <ele>146.9</ele>
        <time>2021-05-23T07:32:15Z</time>
      </trkpt>
      <trkpt lat="42.6624950" lon="-8.6353040">
        <ele>146.7</ele>
        <time>2021-05-23T07:32:16Z</time>
      </trkpt>
      <trkpt lat="42.6625040" lon="-8.6353000">
        <ele>146.6</ele>
        <time>2021-05-23T07:32:17Z</time>
      </trkpt>
      <trkpt lat="42.6625120" lon="-8.6352960">
        <ele>146.5</ele>
        <time>2021-05-23T07:32:18Z</time>
      </trkpt>
      <trkpt lat="42.6625220" lon="-8.6352930">
        <ele>146.3</ele>
        <time>2021-05-23T07:32:19Z</time>
      </trkpt>
      <trkpt lat="42.6625330" lon="-8.6352890">
        <ele>146.2</ele>
        <time>2021-05-23T07:32:20Z</time>
      </trkpt>
      <trkpt lat="42.6625440" lon="-8.6352820">
        <ele>146.1</ele>
        <time>2021-05-23T07:32:21Z</time>
      </trkpt>
      <trkpt lat="42.6625650" lon="-8.6352720">
        <ele>145.8</ele>
        <time>2021-05-23T07:32:22Z</time>
      </trkpt>
      <trkpt lat="42.6625730" lon="-8.6352670">
        <ele>145.7</ele>
        <time>2021-05-23T07:32:23Z</time>
      </trkpt>
      <trkpt lat="42.6625810" lon="-8.6352630">
        <ele>145.6</ele>
        <time>2021-05-23T07:32:24Z</time>
      </trkpt>
      <trkpt lat="42.6625970" lon="-8.6352500">
        <ele>145.3</ele>
        <time>2021-05-23T07:32:25Z</time>
      </trkpt>
      <trkpt lat="42.6626040" lon="-8.6352430">
        <ele>145.2</ele>
        <time>2021-05-23T07:32:26Z</time>
      </trkpt>
      <trkpt lat="42.6626120" lon="-8.6352370">
        <ele>145.1</ele>
        <time>2021-05-23T07:32:27Z</time>
      </trkpt>
      <trkpt lat="42.6626250" lon="-8.6352230">
        <ele>144.9</ele>
        <time>2021-05-23T07:32:28Z</time>
      </trkpt>
      <trkpt lat="42.6626240" lon="-8.6352060">
        <ele>144.7</ele>
        <time>2021-05-23T07:32:29Z</time>
      </trkpt>
      <trkpt lat="42.6626290" lon="-8.6351990">
        <ele>144.6</ele>
        <time>2021-05-23T07:32:30Z</time>
      </trkpt>
      <trkpt lat="42.6626400" lon="-8.6352010">
        <ele>144.5</ele>
        <time>2021-05-23T07:32:31Z</time>
      </trkpt>
      <trkpt lat="42.6626480" lon="-8.6351970">
        <ele>144.4</ele>
        <time>2021-05-23T07:32:32Z</time>
      </trkpt>
      <trkpt lat="42.6626540" lon="-8.6351880">
        <ele>144.2</ele>
        <time>2021-05-23T07:32:33Z</time>
      </trkpt>
      <trkpt lat="42.6626610" lon="-8.6351820">
        <ele>144.1</ele>
        <time>2021-05-23T07:32:34Z</time>
      </trkpt>
      <trkpt lat="42.6626730" lon="-8.6351600">
        <ele>143.9</ele>
        <time>2021-05-23T07:32:35Z</time>
      </trkpt>
      <trkpt lat="42.6626790" lon="-8.6351510">
        <ele>143.7</ele>
        <time>2021-05-23T07:32:36Z</time>
      </trkpt>
      <trkpt lat="42.6626850" lon="-8.6351420">
        <ele>143.6</ele>
        <time>2021-05-23T07:32:37Z</time>
      </trkpt>
      <trkpt lat="42.6626900" lon="-8.6351290">
        <ele>143.5</ele>
        <time>2021-05-23T07:32:38Z</time>
      </trkpt>
      <trkpt lat="42.6626960" lon="-8.6351150">
        <ele>143.3</ele>
        <time>2021-05-23T07:32:39Z</time>
      </trkpt>
      <trkpt lat="42.6627020" lon="-8.6351010">
        <ele>143.1</ele>
        <time>2021-05-23T07:32:40Z</time>
      </trkpt>
      <trkpt lat="42.6627140" lon="-8.6350760">
        <ele>142.8</ele>
        <time>2021-05-23T07:32:41Z</time>
      </trkpt>
      <trkpt lat="42.6627200" lon="-8.6350670">
        <ele>142.7</ele>
        <time>2021-05-23T07:32:42Z</time>
      </trkpt>
      <trkpt lat="42.6627260" lon="-8.6350580">
        <ele>142.6</ele>
        <time>2021-05-23T07:32:43Z</time>
      </trkpt>
      <trkpt lat="42.6627290" lon="-8.6350420">
        <ele>142.4</ele>
        <time>2021-05-23T07:32:44Z</time>
      </trkpt>
      <trkpt lat="42.6627350" lon="-8.6350300">
        <ele>142.2</ele>
        <time>2021-05-23T07:32:45Z</time>
      </trkpt>
      <trkpt lat="42.6627390" lon="-8.6350220">
        <ele>142.1</ele>
        <time>2021-05-23T07:32:46Z</time>
      </trkpt>
      <trkpt lat="42.6627500" lon="-8.6350100">
        <ele>141.9</ele>
        <time>2021-05-23T07:32:47Z</time>
      </trkpt>
      <trkpt lat="42.6627590" lon="-8.6349970">
        <ele>141.7</ele>
        <time>2021-05-23T07:32:48Z</time>
      </trkpt>
      <trkpt lat="42.6627720" lon="-8.6349850">
        <ele>141.5</ele>
        <time>2021-05-23T07:32:49Z</time>
      </trkpt>
      <trkpt lat="42.6627870" lon="-8.6349810">
        <ele>141.3</ele>
        <time>2021-05-23T07:32:50Z</time>
      </trkpt>
      <trkpt lat="42.6627950" lon="-8.6349710">
        <ele>141.2</ele>
        <time>2021-05-23T07:32:51Z</time>
      </trkpt>
      <trkpt lat="42.6628070" lon="-8.6349540">
        <ele>140.9</ele>
        <time>2021-05-23T07:32:52Z</time>
      </trkpt>
      <trkpt lat="42.6628130" lon="-8.6349290">
        <ele>140.7</ele>
        <time>2021-05-23T07:32:53Z</time>
      </trkpt>
      <trkpt lat="42.6628240" lon="-8.6349270">
        <ele>140.6</ele>
        <time>2021-05-23T07:32:54Z</time>
      </trkpt>
      <trkpt lat="42.6628240" lon="-8.6349220">
        <ele>140.5</ele>
        <time>2021-05-23T07:32:55Z</time>
      </trkpt>
      <trkpt lat="42.6628310" lon="-8.6349160">
        <ele>140.4</ele>
        <time>2021-05-23T07:32:56Z</time>
      </trkpt>
      <trkpt lat="42.6628510" lon="-8.6349080">
        <ele>140.2</ele>
        <time>2021-05-23T07:32:57Z</time>
      </trkpt>
      <trkpt lat="42.6628530" lon="-8.6348950">
        <ele>140.0</ele>
        <time>2021-05-23T07:32:58Z</time>
      </trkpt>
      <trkpt lat="42.6628550" lon="-8.6348870">
        <ele>140.0</ele>
        <time>2021-05-23T07:32:59Z</time>
      </trkpt>
      <trkpt lat="42.6628580" lon="-8.6348830">
        <ele>139.9</ele>
        <time>2021-05-23T07:33:00Z</time>
      </trkpt>
      <trkpt lat="42.6628710" lon="-8.6348730">
        <ele>139.7</ele>
        <time>2021-05-23T07:33:01Z</time>
      </trkpt>
      <trkpt lat="42.6628830" lon="-8.6348540">
        <ele>139.5</ele>
        <time>2021-05-23T07:33:02Z</time>
      </trkpt>
      <trkpt lat="42.6628880" lon="-8.6348460">
        <ele>139.5</ele>
        <time>2021-05-23T07:33:03Z</time>
      </trkpt>
      <trkpt lat="42.6628920" lon="-8.6348390">
        <ele>139.4</ele>
        <time>2021-05-23T07:33:04Z</time>
      </trkpt>
      <trkpt lat="42.6628970" lon="-8.6348310">
        <ele>139.3</ele>
        <time>2021-05-23T07:33:05Z</time>
      </trkpt>
      <trkpt lat="42.6629040" lon="-8.6348180">
        <ele>139.2</ele>
        <time>2021-05-23T07:33:06Z</time>
      </trkpt>
      <trkpt lat="42.6629180" lon="-8.6348040">
        <ele>139.0</ele>
        <time>2021-05-23T07:33:07Z</time>
      </trkpt>
      <trkpt lat="42.6629260" lon="-8.6347850">
        <ele>138.9</ele>
        <time>2021-05-23T07:33:08Z</time>
      </trkpt>
      <trkpt lat="42.6629400" lon="-8.6347730">
        <ele>138.7</ele>
        <time>2021-05-23T07:33:09Z</time>
      </trkpt>
      <trkpt lat="42.6629560" lon="-8.6347510">
        <ele>138.5</ele>
        <time>2021-05-23T07:33:10Z</time>
      </trkpt>
      <trkpt lat="42.6629630" lon="-8.6347420">
        <ele>138.5</ele>
        <time>2021-05-23T07:33:11Z</time>
      </trkpt>
      <trkpt lat="42.6629700" lon="-8.6347340">
        <ele>138.4</ele>
        <time>2021-05-23T07:33:12Z</time>
      </trkpt>
      <trkpt lat="42.6629800" lon="-8.6347210">
        <ele>138.3</ele>
        <time>2021-05-23T07:33:13Z</time>
      </trkpt>
      <trkpt lat="42.6629850" lon="-8.6347020">
        <ele>138.2</ele>
        <time>2021-05-23T07:33:14Z</time>
      </trkpt>
      <trkpt lat="42.6629990" lon="-8.6346940">
        <ele>138.1</ele>
        <time>2021-05-23T07:33:15Z</time>
      </trkpt>
      <trkpt lat="42.6630070" lon="-8.6346740">
        <ele>137.9</ele>
        <time>2021-05-23T07:33:16Z</time>
      </trkpt>
      <trkpt lat="42.6630210" lon="-8.6346650">
        <ele>137.8</ele>
        <time>2021-05-23T07:33:17Z</time>
      </trkpt>
      <trkpt lat="42.6630310" lon="-8.6346530">
        <ele>137.7</ele>
        <time>2021-05-23T07:33:18Z</time>
      </trkpt>
      <trkpt lat="42.6630500" lon="-8.6346410">
        <ele>137.6</ele>
        <time>2021-05-23T07:33:19Z</time>
      </trkpt>
      <trkpt lat="42.6630560" lon="-8.6346330">
        <ele>137.5</ele>
        <time>2021-05-23T07:33:20Z</time>
      </trkpt>
      <trkpt lat="42.6630630" lon="-8.6346260">
        <ele>137.5</ele>
        <time>2021-05-23T07:33:21Z</time>
      </trkpt>
      <trkpt lat="42.6630790" lon="-8.6346080">
        <ele>137.4</ele>
        <time>2021-05-23T07:33:22Z</time>
      </trkpt>
      <trkpt lat="42.6630870" lon="-8.6346030">
        <ele>137.3</ele>
        <time>2021-05-23T07:33:23Z</time>
      </trkpt>
      <trkpt lat="42.6630960" lon="-8.6345980">
        <ele>137.2</ele>
        <time>2021-05-23T07:33:24Z</time>
      </trkpt>
      <trkpt lat="42.6631000" lon="-8.6345860">
        <ele>137.2</ele>
        <time>2021-05-23T07:33:25Z</time>
      </trkpt>
      <trkpt lat="42.6631100" lon="-8.6345770">
        <ele>137.1</ele>
        <time>2021-05-23T07:33:26Z</time>
      </trkpt>
      <trkpt lat="42.6631180" lon="-8.6345650">
        <ele>137.1</ele>
        <time>2021-05-23T07:33:27Z</time>
      </trkpt>
      <trkpt lat="42.6631260" lon="-8.6345540">
        <ele>137.0</ele>
        <time>2021-05-23T07:33:28Z</time>
      </trkpt>
      <trkpt lat="42.6631300" lon="-8.6345460">
        <ele>137.0</ele>
        <time>2021-05-23T07:33:29Z</time>
      </trkpt>
      <trkpt lat="42.6631440" lon="-8.6345470">
        <ele>136.9</ele>
        <time>2021-05-23T07:33:30Z</time>
      </trkpt>
      <trkpt lat="42.6631450" lon="-8.6345390">
        <ele>136.8</ele>
        <time>2021-05-23T07:33:31Z</time>
      </trkpt>
      <trkpt lat="42.6631550" lon="-8.6345410">
        <ele>136.8</ele>
        <time>2021-05-23T07:33:32Z</time>
      </trkpt>
      <trkpt lat="42.6631700" lon="-8.6345310">
        <ele>136.7</ele>
        <time>2021-05-23T07:33:33Z</time>
      </trkpt>
      <trkpt lat="42.6631720" lon="-8.6345220">
        <ele>136.7</ele>
        <time>2021-05-23T07:33:34Z</time>
      </trkpt>
      <trkpt lat="42.6631830" lon="-8.6345160">
        <ele>136.6</ele>
        <time>2021-05-23T07:33:35Z</time>
      </trkpt>
      <trkpt lat="42.6631920" lon="-8.6345060">
        <ele>136.6</ele>
        <time>2021-05-23T07:33:36Z</time>
      </trkpt>
      <trkpt lat="42.6632110" lon="-8.6344990">
        <ele>136.5</ele>
        <time>2021-05-23T07:33:37Z</time>
      </trkpt>
      <trkpt lat="42.6632180" lon="-8.6344960">
        <ele>136.4</ele>
        <time>2021-05-23T07:33:38Z</time>
      </trkpt>
      <trkpt lat="42.6632240" lon="-8.6344920">
        <ele>136.4</ele>
        <time>2021-05-23T07:33:39Z</time>
      </trkpt>
      <trkpt lat="42.6632310" lon="-8.6344880">
        <ele>136.4</ele>
        <time>2021-05-23T07:33:40Z</time>
      </trkpt>
      <trkpt lat="42.6632460" lon="-8.6344760">
        <ele>136.3</ele>
        <time>2021-05-23T07:33:41Z</time>
      </trkpt>
      <trkpt lat="42.6632480" lon="-8.6344620">
        <ele>136.2</ele>
        <time>2021-05-23T07:33:42Z</time>
      </trkpt>
      <trkpt lat="42.6632620" lon="-8.6344490">
        <ele>136.2</ele>
        <time>2021-05-23T07:33:44Z</time>
      </trkpt>
      <trkpt lat="42.6632800" lon="-8.6344340">
        <ele>136.1</ele>
        <time>2021-05-23T07:33:45Z</time>
      </trkpt>
      <trkpt lat="42.6632910" lon="-8.6344270">
        <ele>136.1</ele>
        <time>2021-05-23T07:33:46Z</time>
      </trkpt>
      <trkpt lat="42.6633010" lon="-8.6344200">
        <ele>136.0</ele>
        <time>2021-05-23T07:33:47Z</time>
      </trkpt>
      <trkpt lat="42.6633200" lon="-8.6344050">
        <ele>135.9</ele>
        <time>2021-05-23T07:33:48Z</time>
      </trkpt>
      <trkpt lat="42.6633330" lon="-8.6343990">
        <ele>135.9</ele>
        <time>2021-05-23T07:33:49Z</time>
      </trkpt>
      <trkpt lat="42.6633470" lon="-8.6343940">
        <ele>135.9</ele>
        <time>2021-05-23T07:33:50Z</time>
      </trkpt>
      <trkpt lat="42.6633580" lon="-8.6343810">
        <ele>135.8</ele>
        <time>2021-05-23T07:33:51Z</time>
      </trkpt>
      <trkpt lat="42.6633710" lon="-8.6343730">
        <ele>135.8</ele>
        <time>2021-05-23T07:33:52Z</time>
      </trkpt>
      <trkpt lat="42.6633890" lon="-8.6343560">
        <ele>135.8</ele>
        <time>2021-05-23T07:33:53Z</time>
      </trkpt>
      <trkpt lat="42.6633970" lon="-8.6343450">
        <ele>135.8</ele>
        <time>2021-05-23T07:33:54Z</time>
      </trkpt>
      <trkpt lat="42.6634060" lon="-8.6343350">
        <ele>135.8</ele>
        <time>2021-05-23T07:33:55Z</time>
      </trkpt>
      <trkpt lat="42.6634190" lon="-8.6343200">
        <ele>135.7</ele>
        <time>2021-05-23T07:33:56Z</time>
      </trkpt>
      <trkpt lat="42.6634310" lon="-8.6343110">
        <ele>135.7</ele>
        <time>2021-05-23T07:33:57Z</time>
      </trkpt>
      <trkpt lat="42.6634460" lon="-8.6343040">
        <ele>135.7</ele>
        <time>2021-05-23T07:33:58Z</time>
      </trkpt>
      <trkpt lat="42.6634570" lon="-8.6342970">
        <ele>135.7</ele>
        <time>2021-05-23T07:33:59Z</time>
      </trkpt>
      <trkpt lat="42.6634700" lon="-8.6342880">
        <ele>135.7</ele>
        <time>2021-05-23T07:34:00Z</time>
      </trkpt>
      <trkpt lat="42.6634790" lon="-8.6342780">
        <ele>135.7</ele>
        <time>2021-05-23T07:34:01Z</time>
      </trkpt>
      <trkpt lat="42.6634730" lon="-8.6342780">
        <ele>135.7</ele>
        <time>2021-05-23T07:34:02Z</time>
      </trkpt>
      <trkpt lat="42.6634790" lon="-8.6342670">
        <ele>135.7</ele>
        <time>2021-05-23T07:34:03Z</time>
      </trkpt>
      <trkpt lat="42.6634960" lon="-8.6342510">
        <ele>135.7</ele>
        <time>2021-05-23T07:34:04Z</time>
      </trkpt>
      <trkpt lat="42.6635050" lon="-8.6342440">
        <ele>135.8</ele>
        <time>2021-05-23T07:34:05Z</time>
      </trkpt>
      <trkpt lat="42.6635150" lon="-8.6342380">
        <ele>135.8</ele>
        <time>2021-05-23T07:34:06Z</time>
      </trkpt>
      <trkpt lat="42.6635290" lon="-8.6342290">
        <ele>135.8</ele>
        <time>2021-05-23T07:34:07Z</time>
      </trkpt>
      <trkpt lat="42.6635380" lon="-8.6342160">
        <ele>135.8</ele>
        <time>2021-05-23T07:34:08Z</time>
      </trkpt>
      <trkpt lat="42.6635590" lon="-8.6342090">
        <ele>135.8</ele>
        <time>2021-05-23T07:34:09Z</time>
      </trkpt>
      <trkpt lat="42.6635680" lon="-8.6342070">
        <ele>135.9</ele>
        <time>2021-05-23T07:34:10Z</time>
      </trkpt>
      <trkpt lat="42.6635770" lon="-8.6342060">
        <ele>135.9</ele>
        <time>2021-05-23T07:34:11Z</time>
      </trkpt>
      <trkpt lat="42.6635890" lon="-8.6341980">
        <ele>135.9</ele>
        <time>2021-05-23T07:34:12Z</time>
      </trkpt>
      <trkpt lat="42.6636010" lon="-8.6341910">
        <ele>135.9</ele>
        <time>2021-05-23T07:34:13Z</time>
      </trkpt>
      <trkpt lat="42.6636140" lon="-8.6341810">
        <ele>136.0</ele>
        <time>2021-05-23T07:34:14Z</time>
      </trkpt>
      <trkpt lat="42.6636250" lon="-8.6341720">
        <ele>136.0</ele>
        <time>2021-05-23T07:34:15Z</time>
      </trkpt>
      <trkpt lat="42.6636430" lon="-8.6341580">
        <ele>136.1</ele>
        <time>2021-05-23T07:34:16Z</time>
      </trkpt>
      <trkpt lat="42.6636510" lon="-8.6341540">
        <ele>136.1</ele>
        <time>2021-05-23T07:34:17Z</time>
      </trkpt>
      <trkpt lat="42.6636590" lon="-8.6341510">
        <ele>136.1</ele>
        <time>2021-05-23T07:34:18Z</time>
      </trkpt>
      <trkpt lat="42.6636810" lon="-8.6341400">
        <ele>136.2</ele>
        <time>2021-05-23T07:34:19Z</time>
      </trkpt>
      <trkpt lat="42.6636880" lon="-8.6341350">
        <ele>136.2</ele>
        <time>2021-05-23T07:34:20Z</time>
      </trkpt>
      <trkpt lat="42.6636950" lon="-8.6341300">
        <ele>136.2</ele>
        <time>2021-05-23T07:34:21Z</time>
      </trkpt>
      <trkpt lat="42.6637130" lon="-8.6341150">
        <ele>136.3</ele>
        <time>2021-05-23T07:34:22Z</time>
      </trkpt>
      <trkpt lat="42.6637190" lon="-8.6341080">
        <ele>136.3</ele>
        <time>2021-05-23T07:34:23Z</time>
      </trkpt>
      <trkpt lat="42.6637260" lon="-8.6341020">
        <ele>136.3</ele>
        <time>2021-05-23T07:34:24Z</time>
      </trkpt>
      <trkpt lat="42.6637410" lon="-8.6340850">
        <ele>136.4</ele>
        <time>2021-05-23T07:34:25Z</time>
      </trkpt>
      <trkpt lat="42.6637490" lon="-8.6340790">
        <ele>136.4</ele>
        <time>2021-05-23T07:34:26Z</time>
      </trkpt>
      <trkpt lat="42.6637560" lon="-8.6340730">
        <ele>136.5</ele>
        <time>2021-05-23T07:34:27Z</time>
      </trkpt>
      <trkpt lat="42.6637660" lon="-8.6340670">
        <ele>136.5</ele>
        <time>2021-05-23T07:34:28Z</time>
      </trkpt>
      <trkpt lat="42.6637720" lon="-8.6340530">
        <ele>136.6</ele>
        <time>2021-05-23T07:34:29Z</time>
      </trkpt>
      <trkpt lat="42.6637810" lon="-8.6340410">
        <ele>136.6</ele>
        <time>2021-05-23T07:34:30Z</time>
      </trkpt>
      <trkpt lat="42.6637990" lon="-8.6340270">
        <ele>136.7</ele>
        <time>2021-05-23T07:34:31Z</time>
      </trkpt>
      <trkpt lat="42.6638060" lon="-8.6340210">
        <ele>136.7</ele>
        <time>2021-05-23T07:34:32Z</time>
      </trkpt>
      <trkpt lat="42.6638130" lon="-8.6340150">
        <ele>136.7</ele>
        <time>2021-05-23T07:34:33Z</time>
      </trkpt>
      <trkpt lat="42.6638340" lon="-8.6340080">
        <ele>136.8</ele>
        <time>2021-05-23T07:34:34Z</time>
      </trkpt>
      <trkpt lat="42.6638410" lon="-8.6340010">
        <ele>136.9</ele>
        <time>2021-05-23T07:34:35Z</time>
      </trkpt>
      <trkpt lat="42.6638480" lon="-8.6339940">
        <ele>136.9</ele>
        <time>2021-05-23T07:34:36Z</time>
      </trkpt>
      <trkpt lat="42.6638570" lon="-8.6339780">
        <ele>137.0</ele>
        <time>2021-05-23T07:34:37Z</time>
      </trkpt>
      <trkpt lat="42.6638670" lon="-8.6339670">
        <ele>137.0</ele>
        <time>2021-05-23T07:34:38Z</time>
      </trkpt>
      <trkpt lat="42.6638790" lon="-8.6339610">
        <ele>137.1</ele>
        <time>2021-05-23T07:34:39Z</time>
      </trkpt>
      <trkpt lat="42.6638950" lon="-8.6339560">
        <ele>137.1</ele>
        <time>2021-05-23T07:34:40Z</time>
      </trkpt>
      <trkpt lat="42.6639170" lon="-8.6339480">
        <ele>137.2</ele>
        <time>2021-05-23T07:34:41Z</time>
      </trkpt>
      <trkpt lat="42.6639240" lon="-8.6339430">
        <ele>137.3</ele>
        <time>2021-05-23T07:34:42Z</time>
      </trkpt>
      <trkpt lat="42.6639310" lon="-8.6339390">
        <ele>137.3</ele>
        <time>2021-05-23T07:34:43Z</time>
      </trkpt>
      <trkpt lat="42.6639410" lon="-8.6339310">
        <ele>137.3</ele>
        <time>2021-05-23T07:34:44Z</time>
      </trkpt>
      <trkpt lat="42.6639500" lon="-8.6339200">
        <ele>137.4</ele>
        <time>2021-05-23T07:34:45Z</time>
      </trkpt>
      <trkpt lat="42.6639610" lon="-8.6339140">
        <ele>137.4</ele>
        <time>2021-05-23T07:34:46Z</time>
      </trkpt>
      <trkpt lat="42.6639820" lon="-8.6339030">
        <ele>137.5</ele>
        <time>2021-05-23T07:34:47Z</time>
      </trkpt>
      <trkpt lat="42.6639910" lon="-8.6339020">
        <ele>137.6</ele>
        <time>2021-05-23T07:34:48Z</time>
      </trkpt>
      <trkpt lat="42.6640000" lon="-8.6339000">
        <ele>137.6</ele>
        <time>2021-05-23T07:34:49Z</time>
      </trkpt>
      <trkpt lat="42.6640200" lon="-8.6338930">
        <ele>137.7</ele>
        <time>2021-05-23T07:34:50Z</time>
      </trkpt>
      <trkpt lat="42.6640290" lon="-8.6338930">
        <ele>137.7</ele>
        <time>2021-05-23T07:34:51Z</time>
      </trkpt>
      <trkpt lat="42.6640380" lon="-8.6338920">
        <ele>137.8</ele>
        <time>2021-05-23T07:34:52Z</time>
      </trkpt>
      <trkpt lat="42.6640480" lon="-8.6338850">
        <ele>137.8</ele>
        <time>2021-05-23T07:34:53Z</time>
      </trkpt>
      <trkpt lat="42.6640600" lon="-8.6338840">
        <ele>137.8</ele>
        <time>2021-05-23T07:34:54Z</time>
      </trkpt>
      <trkpt lat="42.6640720" lon="-8.6338860">
        <ele>137.9</ele>
        <time>2021-05-23T07:34:55Z</time>
      </trkpt>
      <trkpt lat="42.6640790" lon="-8.6338830">
        <ele>137.9</ele>
        <time>2021-05-23T07:34:56Z</time>
      </trkpt>
      <trkpt lat="42.6640810" lon="-8.6338790">
        <ele>137.9</ele>
        <time>2021-05-23T07:34:57Z</time>
      </trkpt>
      <trkpt lat="42.6640800" lon="-8.6338730">
        <ele>137.9</ele>
        <time>2021-05-23T07:34:58Z</time>
      </trkpt>
      <trkpt lat="42.6640860" lon="-8.6338670">
        <ele>138.0</ele>
        <time>2021-05-23T07:34:59Z</time>
      </trkpt>
      <trkpt lat="42.6640870" lon="-8.6338670">
        <ele>138.0</ele>
        <time>2021-05-23T07:35:00Z</time>
      </trkpt>
      <trkpt lat="42.6640900" lon="-8.6338630">
        <ele>138.0</ele>
        <time>2021-05-23T07:35:01Z</time>
      </trkpt>
      <trkpt lat="42.6640980" lon="-8.6338620">
        <ele>138.0</ele>
        <time>2021-05-23T07:35:02Z</time>
      </trkpt>
      <trkpt lat="42.6641030" lon="-8.6338620">
        <ele>138.0</ele>
        <time>2021-05-23T07:35:03Z</time>
      </trkpt>
      <trkpt lat="42.6641030" lon="-8.6338570">
        <ele>138.0</ele>
        <time>2021-05-23T07:35:04Z</time>
      </trkpt>
      <trkpt lat="42.6641020" lon="-8.6338550">
        <ele>138.1</ele>
        <time>2021-05-23T07:35:05Z</time>
      </trkpt>
      <trkpt lat="42.6641050" lon="-8.6338540">
        <ele>138.1</ele>
        <time>2021-05-23T07:35:06Z</time>
      </trkpt>
      <trkpt lat="42.6641070" lon="-8.6338510">
        <ele>138.1</ele>
        <time>2021-05-23T07:35:07Z</time>
      </trkpt>
      <trkpt lat="42.6641100" lon="-8.6338480">
        <ele>138.1</ele>
        <time>2021-05-23T07:35:08Z</time>
      </trkpt>
      <trkpt lat="42.6641120" lon="-8.6338460">
        <ele>138.1</ele>
        <time>2021-05-23T07:35:09Z</time>
      </trkpt>
      <trkpt lat="42.6641140" lon="-8.6338430">
        <ele>138.1</ele>
        <time>2021-05-23T07:35:10Z</time>
      </trkpt>
      <trkpt lat="42.6641180" lon="-8.6338420">
        <ele>138.1</ele>
        <time>2021-05-23T07:35:11Z</time>
      </trkpt>
      <trkpt lat="42.6641200" lon="-8.6338420">
        <ele>138.1</ele>
        <time>2021-05-23T07:35:12Z</time>
      </trkpt>
      <trkpt lat="42.6641160" lon="-8.6338450">
        <ele>138.1</ele>
        <time>2021-05-23T07:35:13Z</time>
      </trkpt>
      <trkpt lat="42.6641160" lon="-8.6338440">
        <ele>138.1</ele>
        <time>2021-05-23T07:35:14Z</time>
      </trkpt>
      <trkpt lat="42.6641130" lon="-8.6338440">
        <ele>138.2</ele>
        <time>2021-05-23T07:35:15Z</time>
      </trkpt>
      <trkpt lat="42.6641120" lon="-8.6338450">
        <ele>138.2</ele>
        <time>2021-05-23T07:35:16Z</time>
      </trkpt>
      <trkpt lat="42.6641260" lon="-8.6338440">
        <ele>138.2</ele>
        <time>2021-05-23T07:35:17Z</time>
      </trkpt>
      <trkpt lat="42.6641370" lon="-8.6338440">
        <ele>138.2</ele>
        <time>2021-05-23T07:35:18Z</time>
      </trkpt>
      <trkpt lat="42.6641480" lon="-8.6338390">
        <ele>138.3</ele>
        <time>2021-05-23T07:35:19Z</time>
      </trkpt>
      <trkpt lat="42.6641520" lon="-8.6338320">
        <ele>138.3</ele>
        <time>2021-05-23T07:35:20Z</time>
      </trkpt>
      <trkpt lat="42.6641540" lon="-8.6338300">
        <ele>138.3</ele>
        <time>2021-05-23T07:35:21Z</time>
      </trkpt>
      <trkpt lat="42.6641630" lon="-8.6338220">
        <ele>138.3</ele>
        <time>2021-05-23T07:35:22Z</time>
      </trkpt>
      <trkpt lat="42.6641620" lon="-8.6338220">
        <ele>138.3</ele>
        <time>2021-05-23T07:35:23Z</time>
      </trkpt>
      <trkpt lat="42.6641750" lon="-8.6338190">
        <ele>138.4</ele>
        <time>2021-05-23T07:35:24Z</time>
      </trkpt>
      <trkpt lat="42.6641820" lon="-8.6338150">
        <ele>138.4</ele>
        <time>2021-05-23T07:35:25Z</time>
      </trkpt>
      <trkpt lat="42.6641950" lon="-8.6338070">
        <ele>138.4</ele>
        <time>2021-05-23T07:35:26Z</time>
      </trkpt>
      <trkpt lat="42.6642000" lon="-8.6338040">
        <ele>138.5</ele>
        <time>2021-05-23T07:35:27Z</time>
      </trkpt>
      <trkpt lat="42.6642050" lon="-8.6338010">
        <ele>138.5</ele>
        <time>2021-05-23T07:35:28Z</time>
      </trkpt>
      <trkpt lat="42.6642100" lon="-8.6337980">
        <ele>138.5</ele>
        <time>2021-05-23T07:35:29Z</time>
      </trkpt>
      <trkpt lat="42.6642150" lon="-8.6337950">
        <ele>138.5</ele>
        <time>2021-05-23T07:35:30Z</time>
      </trkpt>
      <trkpt lat="42.6642180" lon="-8.6337920">
        <ele>138.5</ele>
        <time>2021-05-23T07:35:31Z</time>
      </trkpt>
      <trkpt lat="42.6642230" lon="-8.6337880">
        <ele>138.5</ele>
        <time>2021-05-23T07:35:32Z</time>
      </trkpt>
      <trkpt lat="42.6642320" lon="-8.6337850">
        <ele>138.6</ele>
        <time>2021-05-23T07:35:33Z</time>
      </trkpt>
      <trkpt lat="42.6642420" lon="-8.6337800">
        <ele>138.6</ele>
        <time>2021-05-23T07:35:34Z</time>
      </trkpt>
      <trkpt lat="42.6642460" lon="-8.6337770">
        <ele>138.6</ele>
        <time>2021-05-23T07:35:35Z</time>
      </trkpt>
      <trkpt lat="42.6642520" lon="-8.6337720">
        <ele>138.6</ele>
        <time>2021-05-23T07:35:36Z</time>
      </trkpt>
      <trkpt lat="42.6642610" lon="-8.6337650">
        <ele>138.7</ele>
        <time>2021-05-23T07:35:37Z</time>
      </trkpt>
      <trkpt lat="42.6642710" lon="-8.6337610">
        <ele>138.7</ele>
        <time>2021-05-23T07:35:38Z</time>
      </trkpt>
      <trkpt lat="42.6642820" lon="-8.6337570">
        <ele>138.7</ele>
        <time>2021-05-23T07:35:40Z</time>
      </trkpt>
      <trkpt lat="42.6642930" lon="-8.6337510">
        <ele>138.7</ele>
        <time>2021-05-23T07:35:41Z</time>
      </trkpt>
      <trkpt lat="42.6643030" lon="-8.6337420">
        <ele>138.8</ele>
        <time>2021-05-23T07:35:42Z</time>
      </trkpt>
      <trkpt lat="42.6643140" lon="-8.6337340">
        <ele>138.8</ele>
        <time>2021-05-23T07:35:43Z</time>
      </trkpt>
      <trkpt lat="42.6643220" lon="-8.6337330">
        <ele>138.8</ele>
        <time>2021-05-23T07:35:44Z</time>
      </trkpt>
      <trkpt lat="42.6643280" lon="-8.6337280">
        <ele>138.8</ele>
        <time>2021-05-23T07:35:45Z</time>
      </trkpt>
      <trkpt lat="42.6643370" lon="-8.6337250">
        <ele>138.9</ele>
        <time>2021-05-23T07:35:46Z</time>
      </trkpt>
      <trkpt lat="42.6643420" lon="-8.6337230">
        <ele>138.9</ele>
        <time>2021-05-23T07:35:47Z</time>
      </trkpt>
      <trkpt lat="42.6643480" lon="-8.6337160">
        <ele>138.9</ele>
        <time>2021-05-23T07:35:48Z</time>
      </trkpt>
      <trkpt lat="42.6643520" lon="-8.6337130">
        <ele>138.9</ele>
        <time>2021-05-23T07:35:49Z</time>
      </trkpt>
      <trkpt lat="42.6643670" lon="-8.6337070">
        <ele>139.0</ele>
        <time>2021-05-23T07:35:50Z</time>
      </trkpt>
      <trkpt lat="42.6643780" lon="-8.6337010">
        <ele>139.0</ele>
        <time>2021-05-23T07:35:51Z</time>
      </trkpt>
      <trkpt lat="42.6643900" lon="-8.6336910">
        <ele>139.0</ele>
        <time>2021-05-23T07:35:52Z</time>
      </trkpt>
      <trkpt lat="42.6643950" lon="-8.6336890">
        <ele>139.0</ele>
        <time>2021-05-23T07:35:53Z</time>
      </trkpt>
      <trkpt lat="42.6644040" lon="-8.6336860">
        <ele>139.0</ele>
        <time>2021-05-23T07:35:54Z</time>
      </trkpt>
      <trkpt lat="42.6644110" lon="-8.6336800">
        <ele>139.1</ele>
        <time>2021-05-23T07:35:55Z</time>
      </trkpt>
      <trkpt lat="42.6644270" lon="-8.6336720">
        <ele>139.1</ele>
        <time>2021-05-23T07:35:56Z</time>
      </trkpt>
      <trkpt lat="42.6644300" lon="-8.6336690">
        <ele>139.1</ele>
        <time>2021-05-23T07:35:57Z</time>
      </trkpt>
      <trkpt lat="42.6644390" lon="-8.6336680">
        <ele>139.1</ele>
        <time>2021-05-23T07:35:58Z</time>
      </trkpt>
      <trkpt lat="42.6644470" lon="-8.6336610">
        <ele>139.2</ele>
        <time>2021-05-23T07:35:59Z</time>
      </trkpt>
      <trkpt lat="42.6644510" lon="-8.6336560">
        <ele>139.2</ele>
        <time>2021-05-23T07:36:00Z</time>
      </trkpt>
      <trkpt lat="42.6644540" lon="-8.6336480">
        <ele>139.2</ele>
        <time>2021-05-23T07:36:01Z</time>
      </trkpt>
      <trkpt lat="42.6644690" lon="-8.6336470">
        <ele>139.2</ele>
        <time>2021-05-23T07:36:02Z</time>
      </trkpt>
      <trkpt lat="42.6644760" lon="-8.6336430">
        <ele>139.2</ele>
        <time>2021-05-23T07:36:03Z</time>
      </trkpt>
      <trkpt lat="42.6644830" lon="-8.6336400">
        <ele>139.2</ele>
        <time>2021-05-23T07:36:04Z</time>
      </trkpt>
      <trkpt lat="42.6644900" lon="-8.6336360">
        <ele>139.2</ele>
        <time>2021-05-23T07:36:05Z</time>
      </trkpt>
      <trkpt lat="42.6645060" lon="-8.6336310">
        <ele>139.3</ele>
        <time>2021-05-23T07:36:06Z</time>
      </trkpt>
      <trkpt lat="42.6645140" lon="-8.6336250">
        <ele>139.3</ele>
        <time>2021-05-23T07:36:07Z</time>
      </trkpt>
      <trkpt lat="42.6645250" lon="-8.6336200">
        <ele>139.3</ele>
        <time>2021-05-23T07:36:08Z</time>
      </trkpt>
      <trkpt lat="42.6645360" lon="-8.6336150">
        <ele>139.3</ele>
        <time>2021-05-23T07:36:09Z</time>
      </trkpt>
      <trkpt lat="42.6645470" lon="-8.6336080">
        <ele>139.4</ele>
        <time>2021-05-23T07:36:10Z</time>
      </trkpt>
      <trkpt lat="42.6645540" lon="-8.6336090">
        <ele>139.4</ele>
        <time>2021-05-23T07:36:11Z</time>
      </trkpt>
      <trkpt lat="42.6645640" lon="-8.6336030">
        <ele>139.4</ele>
        <time>2021-05-23T07:36:12Z</time>
      </trkpt>
      <trkpt lat="42.6645750" lon="-8.6335980">
        <ele>139.4</ele>
        <time>2021-05-23T07:36:13Z</time>
      </trkpt>
      <trkpt lat="42.6645800" lon="-8.6335930">
        <ele>139.4</ele>
        <time>2021-05-23T07:36:14Z</time>
      </trkpt>
      <trkpt lat="42.6645900" lon="-8.6335880">
        <ele>139.5</ele>
        <time>2021-05-23T07:36:15Z</time>
      </trkpt>
      <trkpt lat="42.6645920" lon="-8.6335860">
        <ele>139.5</ele>
        <time>2021-05-23T07:36:16Z</time>
      </trkpt>
      <trkpt lat="42.6646040" lon="-8.6335800">
        <ele>139.5</ele>
        <time>2021-05-23T07:36:17Z</time>
      </trkpt>
      <trkpt lat="42.6646130" lon="-8.6335760">
        <ele>139.5</ele>
        <time>2021-05-23T07:36:18Z</time>
      </trkpt>
      <trkpt lat="42.6646220" lon="-8.6335740">
        <ele>139.5</ele>
        <time>2021-05-23T07:36:19Z</time>
      </trkpt>
      <trkpt lat="42.6646340" lon="-8.6335680">
        <ele>139.5</ele>
        <time>2021-05-23T07:36:20Z</time>
      </trkpt>
      <trkpt lat="42.6646430" lon="-8.6335670">
        <ele>139.6</ele>
        <time>2021-05-23T07:36:21Z</time>
      </trkpt>
      <trkpt lat="42.6646530" lon="-8.6335620">
        <ele>139.6</ele>
        <time>2021-05-23T07:36:22Z</time>
      </trkpt>
      <trkpt lat="42.6646670" lon="-8.6335580">
        <ele>139.6</ele>
        <time>2021-05-23T07:36:23Z</time>
      </trkpt>
      <trkpt lat="42.6646770" lon="-8.6335570">
        <ele>139.6</ele>
        <time>2021-05-23T07:36:24Z</time>
      </trkpt>
      <trkpt lat="42.6646810" lon="-8.6335530">
        <ele>139.6</ele>
        <time>2021-05-23T07:36:25Z</time>
      </trkpt>
      <trkpt lat="42.6646890" lon="-8.6335490">
        <ele>139.7</ele>
        <time>2021-05-23T07:36:26Z</time>
      </trkpt>
      <trkpt lat="42.6646980" lon="-8.6335450">
        <ele>139.7</ele>
        <time>2021-05-23T07:36:27Z</time>
      </trkpt>
      <trkpt lat="42.6647040" lon="-8.6335420">
        <ele>139.7</ele>
        <time>2021-05-23T07:36:28Z</time>
      </trkpt>
      <trkpt lat="42.6647130" lon="-8.6335350">
        <ele>139.7</ele>
        <time>2021-05-23T07:36:29Z</time>
      </trkpt>
      <trkpt lat="42.6647160" lon="-8.6335290">
        <ele>139.7</ele>
        <time>2021-05-23T07:36:30Z</time>
      </trkpt>
      <trkpt lat="42.6647180" lon="-8.6335240">
        <ele>139.7</ele>
        <time>2021-05-23T07:36:31Z</time>
      </trkpt>
      <trkpt lat="42.6647240" lon="-8.6335200">
        <ele>139.7</ele>
        <time>2021-05-23T07:36:32Z</time>
      </trkpt>
      <trkpt lat="42.6647360" lon="-8.6335190">
        <ele>139.8</ele>
        <time>2021-05-23T07:36:33Z</time>
      </trkpt>
      <trkpt lat="42.6647450" lon="-8.6335100">
        <ele>139.8</ele>
        <time>2021-05-23T07:36:34Z</time>
      </trkpt>
      <trkpt lat="42.6647560" lon="-8.6335030">
        <ele>139.8</ele>
        <time>2021-05-23T07:36:35Z</time>
      </trkpt>
      <trkpt lat="42.6647600" lon="-8.6334990">
        <ele>139.8</ele>
        <time>2021-05-23T07:36:36Z</time>
      </trkpt>
      <trkpt lat="42.6647720" lon="-8.6334960">
        <ele>139.8</ele>
        <time>2021-05-23T07:36:37Z</time>
      </trkpt>
      <trkpt lat="42.6647780" lon="-8.6334930">
        <ele>139.8</ele>
        <time>2021-05-23T07:36:38Z</time>
      </trkpt>
      <trkpt lat="42.6647910" lon="-8.6334870">
        <ele>139.9</ele>
        <time>2021-05-23T07:36:39Z</time>
      </trkpt>
      <trkpt lat="42.6648040" lon="-8.6334780">
        <ele>139.9</ele>
        <time>2021-05-23T07:36:40Z</time>
      </trkpt>
      <trkpt lat="42.6648120" lon="-8.6334750">
        <ele>139.9</ele>
        <time>2021-05-23T07:36:41Z</time>
      </trkpt>
      <trkpt lat="42.6648220" lon="-8.6334730">
        <ele>139.9</ele>
        <time>2021-05-23T07:36:42Z</time>
      </trkpt>
      <trkpt lat="42.6648250" lon="-8.6334720">
        <ele>139.9</ele>
        <time>2021-05-23T07:36:43Z</time>
      </trkpt>
      <trkpt lat="42.6648380" lon="-8.6334730">
        <ele>139.9</ele>
        <time>2021-05-23T07:36:44Z</time>
      </trkpt>
      <trkpt lat="42.6648460" lon="-8.6334730">
        <ele>139.9</ele>
        <time>2021-05-23T07:36:45Z</time>
      </trkpt>
      <trkpt lat="42.6648550" lon="-8.6334710">
        <ele>139.9</ele>
        <time>2021-05-23T07:36:46Z</time>
      </trkpt>
      <trkpt lat="42.6648540" lon="-8.6334700">
        <ele>139.9</ele>
        <time>2021-05-23T07:36:47Z</time>
      </trkpt>
      <trkpt lat="42.6648710" lon="-8.6334730">
        <ele>139.9</ele>
        <time>2021-05-23T07:36:48Z</time>
      </trkpt>
      <trkpt lat="42.6648830" lon="-8.6334720">
        <ele>139.8</ele>
        <time>2021-05-23T07:36:49Z</time>
      </trkpt>
      <trkpt lat="42.6648860" lon="-8.6334640">
        <ele>139.8</ele>
        <time>2021-05-23T07:36:50Z</time>
      </trkpt>
      <trkpt lat="42.6649000" lon="-8.6334600">
        <ele>139.8</ele>
        <time>2021-05-23T07:36:51Z</time>
      </trkpt>
      <trkpt lat="42.6649170" lon="-8.6334550">
        <ele>139.8</ele>
        <time>2021-05-23T07:36:52Z</time>
      </trkpt>
      <trkpt lat="42.6649440" lon="-8.6334520">
        <ele>139.8</ele>
        <time>2021-05-23T07:36:53Z</time>
      </trkpt>
      <trkpt lat="42.6649490" lon="-8.6334490">
        <ele>139.8</ele>
        <time>2021-05-23T07:36:54Z</time>
      </trkpt>
      <trkpt lat="42.6649550" lon="-8.6334460">
        <ele>139.7</ele>
        <time>2021-05-23T07:36:55Z</time>
      </trkpt>
      <trkpt lat="42.6649760" lon="-8.6334370">
        <ele>139.7</ele>
        <time>2021-05-23T07:36:56Z</time>
      </trkpt>
      <trkpt lat="42.6649850" lon="-8.6334350">
        <ele>139.7</ele>
        <time>2021-05-23T07:36:57Z</time>
      </trkpt>
      <trkpt lat="42.6649950" lon="-8.6334320">
        <ele>139.7</ele>
        <time>2021-05-23T07:36:58Z</time>
      </trkpt>
      <trkpt lat="42.6650030" lon="-8.6334270">
        <ele>139.7</ele>
        <time>2021-05-23T07:36:59Z</time>
      </trkpt>
      <trkpt lat="42.6650110" lon="-8.6334270">
        <ele>139.6</ele>
        <time>2021-05-23T07:37:00Z</time>
      </trkpt>
      <trkpt lat="42.6650310" lon="-8.6334230">
        <ele>139.6</ele>
        <time>2021-05-23T07:37:01Z</time>
      </trkpt>
      <trkpt lat="42.6650410" lon="-8.6334220">
        <ele>139.6</ele>
        <time>2021-05-23T07:37:02Z</time>
      </trkpt>
      <trkpt lat="42.6650490" lon="-8.6334180">
        <ele>139.6</ele>
        <time>2021-05-23T07:37:03Z</time>
      </trkpt>
      <trkpt lat="42.6650640" lon="-8.6334140">
        <ele>139.5</ele>
        <time>2021-05-23T07:37:04Z</time>
      </trkpt>
      <trkpt lat="42.6650850" lon="-8.6334030">
        <ele>139.5</ele>
        <time>2021-05-23T07:37:05Z</time>
      </trkpt>
      <trkpt lat="42.6650980" lon="-8.6334040">
        <ele>139.5</ele>
        <time>2021-05-23T07:37:06Z</time>
      </trkpt>
      <trkpt lat="42.6651280" lon="-8.6334010">
        <ele>139.4</ele>
        <time>2021-05-23T07:37:07Z</time>
      </trkpt>
      <trkpt lat="42.6651380" lon="-8.6333990">
        <ele>139.4</ele>
        <time>2021-05-23T07:37:08Z</time>
      </trkpt>
      <trkpt lat="42.6651580" lon="-8.6334010">
        <ele>139.3</ele>
        <time>2021-05-23T07:37:09Z</time>
      </trkpt>
      <trkpt lat="42.6651720" lon="-8.6333990">
        <ele>139.3</ele>
        <time>2021-05-23T07:37:10Z</time>
      </trkpt>
      <trkpt lat="42.6651880" lon="-8.6333920">
        <ele>139.2</ele>
        <time>2021-05-23T07:37:11Z</time>
      </trkpt>
      <trkpt lat="42.6652020" lon="-8.6333810">
        <ele>139.2</ele>
        <time>2021-05-23T07:37:12Z</time>
      </trkpt>
      <trkpt lat="42.6652120" lon="-8.6333760">
        <ele>139.2</ele>
        <time>2021-05-23T07:37:13Z</time>
      </trkpt>
      <trkpt lat="42.6652290" lon="-8.6333690">
        <ele>139.1</ele>
        <time>2021-05-23T07:37:14Z</time>
      </trkpt>
      <trkpt lat="42.6652440" lon="-8.6333660">
        <ele>139.1</ele>
        <time>2021-05-23T07:37:15Z</time>
      </trkpt>
      <trkpt lat="42.6652580" lon="-8.6333640">
        <ele>139.0</ele>
        <time>2021-05-23T07:37:16Z</time>
      </trkpt>
      <trkpt lat="42.6652740" lon="-8.6333630">
        <ele>139.0</ele>
        <time>2021-05-23T07:37:17Z</time>
      </trkpt>
      <trkpt lat="42.6652890" lon="-8.6333600">
        <ele>138.9</ele>
        <time>2021-05-23T07:37:18Z</time>
      </trkpt>
      <trkpt lat="42.6652980" lon="-8.6333590">
        <ele>138.9</ele>
        <time>2021-05-23T07:37:19Z</time>
      </trkpt>
      <trkpt lat="42.6653040" lon="-8.6333530">
        <ele>138.9</ele>
        <time>2021-05-23T07:37:20Z</time>
      </trkpt>
      <trkpt lat="42.6653100" lon="-8.6333510">
        <ele>138.9</ele>
        <time>2021-05-23T07:37:21Z</time>
      </trkpt>
      <trkpt lat="42.6653130" lon="-8.6333400">
        <ele>138.8</ele>
        <time>2021-05-23T07:37:22Z</time>
      </trkpt>
      <trkpt lat="42.6653250" lon="-8.6333380">
        <ele>138.8</ele>
        <time>2021-05-23T07:37:23Z</time>
      </trkpt>
      <trkpt lat="42.6653320" lon="-8.6333410">
        <ele>138.8</ele>
        <time>2021-05-23T07:37:24Z</time>
      </trkpt>
      <trkpt lat="42.6653440" lon="-8.6333380">
        <ele>138.7</ele>
        <time>2021-05-23T07:37:25Z</time>
      </trkpt>
      <trkpt lat="42.6653610" lon="-8.6333350">
        <ele>138.7</ele>
        <time>2021-05-23T07:37:26Z</time>
      </trkpt>
      <trkpt lat="42.6653700" lon="-8.6333340">
        <ele>138.6</ele>
        <time>2021-05-23T07:37:27Z</time>
      </trkpt>
      <trkpt lat="42.6653780" lon="-8.6333330">
        <ele>138.6</ele>
        <time>2021-05-23T07:37:28Z</time>
      </trkpt>
      <trkpt lat="42.6653860" lon="-8.6333320">
        <ele>138.6</ele>
        <time>2021-05-23T07:37:29Z</time>
      </trkpt>
      <trkpt lat="42.6654080" lon="-8.6333280">
        <ele>138.5</ele>
        <time>2021-05-23T07:37:30Z</time>
      </trkpt>
      <trkpt lat="42.6654160" lon="-8.6333260">
        <ele>138.5</ele>
        <time>2021-05-23T07:37:31Z</time>
      </trkpt>
      <trkpt lat="42.6654230" lon="-8.6333250">
        <ele>138.5</ele>
        <time>2021-05-23T07:37:32Z</time>
      </trkpt>
      <trkpt lat="42.6654440" lon="-8.6333170">
        <ele>138.4</ele>
        <time>2021-05-23T07:37:33Z</time>
      </trkpt>
      <trkpt lat="42.6654510" lon="-8.6333150">
        <ele>138.4</ele>
        <time>2021-05-23T07:37:34Z</time>
      </trkpt>
      <trkpt lat="42.6654570" lon="-8.6333120">
        <ele>138.3</ele>
        <time>2021-05-23T07:37:35Z</time>
      </trkpt>
      <trkpt lat="42.6654640" lon="-8.6333090">
        <ele>138.3</ele>
        <time>2021-05-23T07:37:36Z</time>
      </trkpt>
      <trkpt lat="42.6654720" lon="-8.6333110">
        <ele>138.3</ele>
        <time>2021-05-23T07:37:37Z</time>
      </trkpt>
      <trkpt lat="42.6654920" lon="-8.6333010">
        <ele>138.2</ele>
        <time>2021-05-23T07:37:38Z</time>
      </trkpt>
      <trkpt lat="42.6655020" lon="-8.6332930">
        <ele>138.2</ele>
        <time>2021-05-23T07:37:39Z</time>
      </trkpt>
      <trkpt lat="42.6655190" lon="-8.6332930">
        <ele>138.1</ele>
        <time>2021-05-23T07:37:40Z</time>
      </trkpt>
      <trkpt lat="42.6655370" lon="-8.6332980">
        <ele>138.1</ele>
        <time>2021-05-23T07:37:42Z</time>
      </trkpt>
      <trkpt lat="42.6655530" lon="-8.6332870">
        <ele>138.0</ele>
        <time>2021-05-23T07:37:43Z</time>
      </trkpt>
      <trkpt lat="42.6655700" lon="-8.6332880">
        <ele>137.9</ele>
        <time>2021-05-23T07:37:44Z</time>
      </trkpt>
      <trkpt lat="42.6655820" lon="-8.6332870">
        <ele>137.9</ele>
        <time>2021-05-23T07:37:45Z</time>
      </trkpt>
      <trkpt lat="42.6655980" lon="-8.6332850">
        <ele>137.9</ele>
        <time>2021-05-23T07:37:46Z</time>
      </trkpt>
      <trkpt lat="42.6656160" lon="-8.6332840">
        <ele>137.8</ele>
        <time>2021-05-23T07:37:47Z</time>
      </trkpt>
      <trkpt lat="42.6656320" lon="-8.6332810">
        <ele>137.7</ele>
        <time>2021-05-23T07:37:48Z</time>
      </trkpt>
      <trkpt lat="42.6656480" lon="-8.6332760">
        <ele>137.7</ele>
        <time>2021-05-23T07:37:49Z</time>
      </trkpt>
      <trkpt lat="42.6656580" lon="-8.6332710">
        <ele>137.7</ele>
        <time>2021-05-23T07:37:50Z</time>
      </trkpt>
      <trkpt lat="42.6656710" lon="-8.6332640">
        <ele>137.6</ele>
        <time>2021-05-23T07:37:51Z</time>
      </trkpt>
      <trkpt lat="42.6656830" lon="-8.6332680">
        <ele>137.6</ele>
        <time>2021-05-23T07:37:52Z</time>
      </trkpt>
      <trkpt lat="42.6656930" lon="-8.6332610">
        <ele>137.5</ele>
        <time>2021-05-23T07:37:53Z</time>
      </trkpt>
      <trkpt lat="42.6657050" lon="-8.6332610">
        <ele>137.5</ele>
        <time>2021-05-23T07:37:54Z</time>
      </trkpt>
      <trkpt lat="42.6657170" lon="-8.6332620">
        <ele>137.5</ele>
        <time>2021-05-23T07:37:55Z</time>
      </trkpt>
      <trkpt lat="42.6657240" lon="-8.6332600">
        <ele>137.5</ele>
        <time>2021-05-23T07:37:56Z</time>
      </trkpt>
      <trkpt lat="42.6657340" lon="-8.6332580">
        <ele>137.4</ele>
        <time>2021-05-23T07:37:57Z</time>
      </trkpt>
      <trkpt lat="42.6657500" lon="-8.6332560">
        <ele>137.4</ele>
        <time>2021-05-23T07:37:58Z</time>
      </trkpt>
      <trkpt lat="42.6657690" lon="-8.6332510">
        <ele>137.3</ele>
        <time>2021-05-23T07:37:59Z</time>
      </trkpt>
      <trkpt lat="42.6657780" lon="-8.6332520">
        <ele>137.3</ele>
        <time>2021-05-23T07:38:00Z</time>
      </trkpt>
      <trkpt lat="42.6657880" lon="-8.6332520">
        <ele>137.3</ele>
        <time>2021-05-23T07:38:01Z</time>
      </trkpt>
      <trkpt lat="42.6658020" lon="-8.6332460">
        <ele>137.3</ele>
        <time>2021-05-23T07:38:02Z</time>
      </trkpt>
      <trkpt lat="42.6658180" lon="-8.6332440">
        <ele>137.2</ele>
        <time>2021-05-23T07:38:03Z</time>
      </trkpt>
      <trkpt lat="42.6658410" lon="-8.6332450">
        <ele>137.2</ele>
        <time>2021-05-23T07:38:04Z</time>
      </trkpt>
      <trkpt lat="42.6658500" lon="-8.6332480">
        <ele>137.1</ele>
        <time>2021-05-23T07:38:05Z</time>
      </trkpt>
      <trkpt lat="42.6658590" lon="-8.6332510">
        <ele>137.1</ele>
        <time>2021-05-23T07:38:06Z</time>
      </trkpt>
      <trkpt lat="42.6658800" lon="-8.6332420">
        <ele>137.1</ele>
        <time>2021-05-23T07:38:07Z</time>
      </trkpt>
      <trkpt lat="42.6658880" lon="-8.6332390">
        <ele>137.1</ele>
        <time>2021-05-23T07:38:08Z</time>
      </trkpt>
      <trkpt lat="42.6658970" lon="-8.6332370">
        <ele>137.0</ele>
        <time>2021-05-23T07:38:09Z</time>
      </trkpt>
      <trkpt lat="42.6659110" lon="-8.6332370">
        <ele>137.0</ele>
        <time>2021-05-23T07:38:10Z</time>
      </trkpt>
      <trkpt lat="42.6659250" lon="-8.6332360">
        <ele>137.0</ele>
        <time>2021-05-23T07:38:11Z</time>
      </trkpt>
      <trkpt lat="42.6659390" lon="-8.6332420">
        <ele>137.0</ele>
        <time>2021-05-23T07:38:12Z</time>
      </trkpt>
      <trkpt lat="42.6659530" lon="-8.6332330">
        <ele>136.9</ele>
        <time>2021-05-23T07:38:13Z</time>
      </trkpt>
      <trkpt lat="42.6659740" lon="-8.6332310">
        <ele>136.9</ele>
        <time>2021-05-23T07:38:14Z</time>
      </trkpt>
      <trkpt lat="42.6659830" lon="-8.6332290">
        <ele>136.9</ele>
        <time>2021-05-23T07:38:15Z</time>
      </trkpt>
      <trkpt lat="42.6659910" lon="-8.6332270">
        <ele>136.9</ele>
        <time>2021-05-23T07:38:16Z</time>
      </trkpt>
      <trkpt lat="42.6660070" lon="-8.6332280">
        <ele>136.8</ele>
        <time>2021-05-23T07:38:17Z</time>
      </trkpt>
      <trkpt lat="42.6660180" lon="-8.6332270">
        <ele>136.8</ele>
        <time>2021-05-23T07:38:18Z</time>
      </trkpt>
      <trkpt lat="42.6660340" lon="-8.6332300">
        <ele>136.8</ele>
        <time>2021-05-23T07:38:19Z</time>
      </trkpt>
      <trkpt lat="42.6660470" lon="-8.6332250">
        <ele>136.8</ele>
        <time>2021-05-23T07:38:20Z</time>
      </trkpt>
      <trkpt lat="42.6660580" lon="-8.6332260">
        <ele>136.8</ele>
        <time>2021-05-23T07:38:21Z</time>
      </trkpt>
      <trkpt lat="42.6660700" lon="-8.6332250">
        <ele>136.8</ele>
        <time>2021-05-23T07:38:22Z</time>
      </trkpt>
      <trkpt lat="42.6660830" lon="-8.6332250">
        <ele>136.8</ele>
        <time>2021-05-23T07:38:23Z</time>
      </trkpt>
      <trkpt lat="42.6661040" lon="-8.6332210">
        <ele>136.8</ele>
        <time>2021-05-23T07:38:24Z</time>
      </trkpt>
      <trkpt lat="42.6661130" lon="-8.6332250">
        <ele>136.7</ele>
        <time>2021-05-23T07:38:25Z</time>
      </trkpt>
      <trkpt lat="42.6661220" lon="-8.6332290">
        <ele>136.7</ele>
        <time>2021-05-23T07:38:26Z</time>
      </trkpt>
      <trkpt lat="42.6661290" lon="-8.6332360">
        <ele>136.7</ele>
        <time>2021-05-23T07:38:27Z</time>
      </trkpt>
      <trkpt lat="42.6661420" lon="-8.6332290">
        <ele>136.7</ele>
        <time>2021-05-23T07:38:28Z</time>
      </trkpt>
      <trkpt lat="42.6661540" lon="-8.6332300">
        <ele>136.7</ele>
        <time>2021-05-23T07:38:29Z</time>
      </trkpt>
      <trkpt lat="42.6661750" lon="-8.6332230">
        <ele>136.7</ele>
        <time>2021-05-23T07:38:30Z</time>
      </trkpt>
      <trkpt lat="42.6661830" lon="-8.6332190">
        <ele>136.7</ele>
        <time>2021-05-23T07:38:31Z</time>
      </trkpt>
      <trkpt lat="42.6661920" lon="-8.6332150">
        <ele>136.7</ele>
        <time>2021-05-23T07:38:32Z</time>
      </trkpt>
      <trkpt lat="42.6662070" lon="-8.6332120">
        <ele>136.7</ele>
        <time>2021-05-23T07:38:33Z</time>
      </trkpt>
      <trkpt lat="42.6662230" lon="-8.6332110">
        <ele>136.7</ele>
        <time>2021-05-23T07:38:34Z</time>
      </trkpt>
      <trkpt lat="42.6662440" lon="-8.6332080">
        <ele>136.7</ele>
        <time>2021-05-23T07:38:35Z</time>
      </trkpt>
      <trkpt lat="42.6662540" lon="-8.6332060">
        <ele>136.7</ele>
        <time>2021-05-23T07:38:36Z</time>
      </trkpt>
      <trkpt lat="42.6662630" lon="-8.6332030">
        <ele>136.7</ele>
        <time>2021-05-23T07:38:37Z</time>
      </trkpt>
      <trkpt lat="42.6662840" lon="-8.6331980">
        <ele>136.7</ele>
        <time>2021-05-23T07:38:38Z</time>
      </trkpt>
      <trkpt lat="42.6662920" lon="-8.6331980">
        <ele>136.7</ele>
        <time>2021-05-23T07:38:39Z</time>
      </trkpt>
      <trkpt lat="42.6663010" lon="-8.6331970">
        <ele>136.7</ele>
        <time>2021-05-23T07:38:40Z</time>
      </trkpt>
      <trkpt lat="42.6663230" lon="-8.6331920">
        <ele>136.8</ele>
        <time>2021-05-23T07:38:41Z</time>
      </trkpt>
      <trkpt lat="42.6663310" lon="-8.6331910">
        <ele>136.8</ele>
        <time>2021-05-23T07:38:42Z</time>
      </trkpt>
      <trkpt lat="42.6663400" lon="-8.6331900">
        <ele>136.8</ele>
        <time>2021-05-23T07:38:43Z</time>
      </trkpt>
      <trkpt lat="42.6663600" lon="-8.6331870">
        <ele>136.8</ele>
        <time>2021-05-23T07:38:44Z</time>
      </trkpt>
      <trkpt lat="42.6663680" lon="-8.6331850">
        <ele>136.8</ele>
        <time>2021-05-23T07:38:45Z</time>
      </trkpt>
      <trkpt lat="42.6663770" lon="-8.6331830">
        <ele>136.8</ele>
        <time>2021-05-23T07:38:46Z</time>
      </trkpt>
      <trkpt lat="42.6663900" lon="-8.6331770">
        <ele>136.8</ele>
        <time>2021-05-23T07:38:47Z</time>
      </trkpt>
      <trkpt lat="42.6664050" lon="-8.6331800">
        <ele>136.9</ele>
        <time>2021-05-23T07:38:48Z</time>
      </trkpt>
      <trkpt lat="42.6664240" lon="-8.6331720">
        <ele>136.9</ele>
        <time>2021-05-23T07:38:49Z</time>
      </trkpt>
      <trkpt lat="42.6664320" lon="-8.6331700">
        <ele>136.9</ele>
        <time>2021-05-23T07:38:50Z</time>
      </trkpt>
      <trkpt lat="42.6664400" lon="-8.6331670">
        <ele>136.9</ele>
        <time>2021-05-23T07:38:51Z</time>
      </trkpt>
      <trkpt lat="42.6664540" lon="-8.6331710">
        <ele>136.9</ele>
        <time>2021-05-23T07:38:52Z</time>
      </trkpt>
      <trkpt lat="42.6664680" lon="-8.6331690">
        <ele>137.0</ele>
        <time>2021-05-23T07:38:53Z</time>
      </trkpt>
      <trkpt lat="42.6664790" lon="-8.6331680">
        <ele>137.0</ele>
        <time>2021-05-23T07:38:54Z</time>
      </trkpt>
      <trkpt lat="42.6664910" lon="-8.6331660">
        <ele>137.0</ele>
        <time>2021-05-23T07:38:55Z</time>
      </trkpt>
      <trkpt lat="42.6665030" lon="-8.6331670">
        <ele>137.0</ele>
        <time>2021-05-23T07:38:56Z</time>
      </trkpt>
      <trkpt lat="42.6665130" lon="-8.6331670">
        <ele>137.1</ele>
        <time>2021-05-23T07:38:57Z</time>
      </trkpt>
      <trkpt lat="42.6665260" lon="-8.6331630">
        <ele>137.1</ele>
        <time>2021-05-23T07:38:58Z</time>
      </trkpt>
      <trkpt lat="42.6665380" lon="-8.6331650">
        <ele>137.1</ele>
        <time>2021-05-23T07:38:59Z</time>
      </trkpt>
      <trkpt lat="42.6665590" lon="-8.6331670">
        <ele>137.2</ele>
        <time>2021-05-23T07:39:00Z</time>
      </trkpt>
      <trkpt lat="42.6665680" lon="-8.6331680">
        <ele>137.2</ele>
        <time>2021-05-23T07:39:01Z</time>
      </trkpt>
      <trkpt lat="42.6665760" lon="-8.6331680">
        <ele>137.2</ele>
        <time>2021-05-23T07:39:02Z</time>
      </trkpt>
      <trkpt lat="42.6665960" lon="-8.6331690">
        <ele>137.3</ele>
        <time>2021-05-23T07:39:03Z</time>
      </trkpt>
      <trkpt lat="42.6666040" lon="-8.6331680">
        <ele>137.3</ele>
        <time>2021-05-23T07:39:04Z</time>
      </trkpt>
      <trkpt lat="42.6666130" lon="-8.6331670">
        <ele>137.3</ele>
        <time>2021-05-23T07:39:05Z</time>
      </trkpt>
      <trkpt lat="42.6666270" lon="-8.6331540">
        <ele>137.4</ele>
        <time>2021-05-23T07:39:06Z</time>
      </trkpt>
      <trkpt lat="42.6666390" lon="-8.6331570">
        <ele>137.4</ele>
        <time>2021-05-23T07:39:07Z</time>
      </trkpt>
      <trkpt lat="42.6666600" lon="-8.6331590">
        <ele>137.5</ele>
        <time>2021-05-23T07:39:08Z</time>
      </trkpt>
      <trkpt lat="42.6666680" lon="-8.6331600">
        <ele>137.5</ele>
        <time>2021-05-23T07:39:09Z</time>
      </trkpt>
      <trkpt lat="42.6666770" lon="-8.6331620">
        <ele>137.5</ele>
        <time>2021-05-23T07:39:10Z</time>
      </trkpt>
      <trkpt lat="42.6667000" lon="-8.6331680">
        <ele>137.6</ele>
        <time>2021-05-23T07:39:11Z</time>
      </trkpt>
      <trkpt lat="42.6667110" lon="-8.6331630">
        <ele>137.7</ele>
        <time>2021-05-23T07:39:12Z</time>
      </trkpt>
      <trkpt lat="42.6667250" lon="-8.6331640">
        <ele>137.7</ele>
        <time>2021-05-23T07:39:13Z</time>
      </trkpt>
      <trkpt lat="42.6667380" lon="-8.6331680">
        <ele>137.8</ele>
        <time>2021-05-23T07:39:14Z</time>
      </trkpt>
      <trkpt lat="42.6667590" lon="-8.6331640">
        <ele>137.9</ele>
        <time>2021-05-23T07:39:15Z</time>
      </trkpt>
      <trkpt lat="42.6667670" lon="-8.6331660">
        <ele>137.9</ele>
        <time>2021-05-23T07:39:16Z</time>
      </trkpt>
      <trkpt lat="42.6667760" lon="-8.6331670">
        <ele>138.0</ele>
        <time>2021-05-23T07:39:17Z</time>
      </trkpt>
      <trkpt lat="42.6667810" lon="-8.6331700">
        <ele>138.0</ele>
        <time>2021-05-23T07:39:18Z</time>
      </trkpt>
      <trkpt lat="42.6667870" lon="-8.6331580">
        <ele>138.0</ele>
        <time>2021-05-23T07:39:19Z</time>
      </trkpt>
      <trkpt lat="42.6667920" lon="-8.6331590">
        <ele>138.1</ele>
        <time>2021-05-23T07:39:20Z</time>
      </trkpt>
      <trkpt lat="42.6667990" lon="-8.6331570">
        <ele>138.1</ele>
        <time>2021-05-23T07:39:21Z</time>
      </trkpt>
      <trkpt lat="42.6668110" lon="-8.6331590">
        <ele>138.2</ele>
        <time>2021-05-23T07:39:22Z</time>
      </trkpt>
      <trkpt lat="42.6668230" lon="-8.6331530">
        <ele>138.2</ele>
        <time>2021-05-23T07:39:23Z</time>
      </trkpt>
      <trkpt lat="42.6668380" lon="-8.6331570">
        <ele>138.3</ele>
        <time>2021-05-23T07:39:24Z</time>
      </trkpt>
      <trkpt lat="42.6668420" lon="-8.6331600">
        <ele>138.3</ele>
        <time>2021-05-23T07:39:25Z</time>
      </trkpt>
      <trkpt lat="42.6668510" lon="-8.6331580">
        <ele>138.4</ele>
        <time>2021-05-23T07:39:26Z</time>
      </trkpt>
      <trkpt lat="42.6668610" lon="-8.6331620">
        <ele>138.4</ele>
        <time>2021-05-23T07:39:27Z</time>
      </trkpt>
      <trkpt lat="42.6668710" lon="-8.6331630">
        <ele>138.5</ele>
        <time>2021-05-23T07:39:28Z</time>
      </trkpt>
      <trkpt lat="42.6668780" lon="-8.6331610">
        <ele>138.5</ele>
        <time>2021-05-23T07:39:29Z</time>
      </trkpt>
      <trkpt lat="42.6668780" lon="-8.6331590">
        <ele>138.5</ele>
        <time>2021-05-23T07:39:30Z</time>
      </trkpt>
      <trkpt lat="42.6668840" lon="-8.6331610">
        <ele>138.5</ele>
        <time>2021-05-23T07:39:31Z</time>
      </trkpt>
      <trkpt lat="42.6668930" lon="-8.6331590">
        <ele>138.6</ele>
        <time>2021-05-23T07:39:32Z</time>
      </trkpt>
      <trkpt lat="42.6668990" lon="-8.6331620">
        <ele>138.6</ele>
        <time>2021-05-23T07:39:33Z</time>
      </trkpt>
      <trkpt lat="42.6669090" lon="-8.6331620">
        <ele>138.7</ele>
        <time>2021-05-23T07:39:34Z</time>
      </trkpt>
      <trkpt lat="42.6669180" lon="-8.6331610">
        <ele>138.7</ele>
        <time>2021-05-23T07:39:35Z</time>
      </trkpt>
      <trkpt lat="42.6669240" lon="-8.6331610">
        <ele>138.7</ele>
        <time>2021-05-23T07:39:36Z</time>
      </trkpt>
      <trkpt lat="42.6669320" lon="-8.6331590">
        <ele>138.8</ele>
        <time>2021-05-23T07:39:37Z</time>
      </trkpt>
      <trkpt lat="42.6669440" lon="-8.6331600">
        <ele>138.8</ele>
        <time>2021-05-23T07:39:38Z</time>
      </trkpt>
      <trkpt lat="42.6669460" lon="-8.6331590">
        <ele>138.8</ele>
        <time>2021-05-23T07:39:39Z</time>
      </trkpt>
      <trkpt lat="42.6669520" lon="-8.6331620">
        <ele>138.9</ele>
        <time>2021-05-23T07:39:40Z</time>
      </trkpt>
      <trkpt lat="42.6669670" lon="-8.6331680">
        <ele>138.9</ele>
        <time>2021-05-23T07:39:42Z</time>
      </trkpt>
      <trkpt lat="42.6669740" lon="-8.6331700">
        <ele>139.0</ele>
        <time>2021-05-23T07:39:43Z</time>
      </trkpt>
      <trkpt lat="42.6669840" lon="-8.6331700">
        <ele>139.0</ele>
        <time>2021-05-23T07:39:44Z</time>
      </trkpt>
      <trkpt lat="42.6669920" lon="-8.6331710">
        <ele>139.1</ele>
        <time>2021-05-23T07:39:45Z</time>
      </trkpt>
      <trkpt lat="42.6670000" lon="-8.6331660">
        <ele>139.1</ele>
        <time>2021-05-23T07:39:46Z</time>
      </trkpt>
      <trkpt lat="42.6670170" lon="-8.6331770">
        <ele>139.2</ele>
        <time>2021-05-23T07:39:47Z</time>
      </trkpt>
      <trkpt lat="42.6670270" lon="-8.6331760">
        <ele>139.2</ele>
        <time>2021-05-23T07:39:48Z</time>
      </trkpt>
      <trkpt lat="42.6670370" lon="-8.6331760">
        <ele>139.3</ele>
        <time>2021-05-23T07:39:49Z</time>
      </trkpt>
      <trkpt lat="42.6670470" lon="-8.6331750">
        <ele>139.3</ele>
        <time>2021-05-23T07:39:50Z</time>
      </trkpt>
      <trkpt lat="42.6670610" lon="-8.6331730">
        <ele>139.4</ele>
        <time>2021-05-23T07:39:51Z</time>
      </trkpt>
      <trkpt lat="42.6670750" lon="-8.6331720">
        <ele>139.5</ele>
        <time>2021-05-23T07:39:52Z</time>
      </trkpt>
      <trkpt lat="42.6670880" lon="-8.6331690">
        <ele>139.5</ele>
        <time>2021-05-23T07:39:53Z</time>
      </trkpt>
      <trkpt lat="42.6671030" lon="-8.6331730">
        <ele>139.6</ele>
        <time>2021-05-23T07:39:54Z</time>
      </trkpt>
      <trkpt lat="42.6671210" lon="-8.6331680">
        <ele>139.7</ele>
        <time>2021-05-23T07:39:55Z</time>
      </trkpt>
      <trkpt lat="42.6671300" lon="-8.6331630">
        <ele>139.7</ele>
        <time>2021-05-23T07:39:56Z</time>
      </trkpt>
      <trkpt lat="42.6671490" lon="-8.6331580">
        <ele>139.8</ele>
        <time>2021-05-23T07:39:57Z</time>
      </trkpt>
      <trkpt lat="42.6671590" lon="-8.6331580">
        <ele>139.9</ele>
        <time>2021-05-23T07:39:58Z</time>
      </trkpt>
      <trkpt lat="42.6671680" lon="-8.6331570">
        <ele>139.9</ele>
        <time>2021-05-23T07:39:59Z</time>
      </trkpt>
      <trkpt lat="42.6671750" lon="-8.6331490">
        <ele>140.0</ele>
        <time>2021-05-23T07:40:00Z</time>
      </trkpt>
      <trkpt lat="42.6671870" lon="-8.6331500">
        <ele>140.0</ele>
        <time>2021-05-23T07:40:01Z</time>
      </trkpt>
      <trkpt lat="42.6671990" lon="-8.6331550">
        <ele>140.1</ele>
        <time>2021-05-23T07:40:02Z</time>
      </trkpt>
      <trkpt lat="42.6672070" lon="-8.6331600">
        <ele>140.1</ele>
        <time>2021-05-23T07:40:03Z</time>
      </trkpt>
      <trkpt lat="42.6672190" lon="-8.6331600">
        <ele>140.2</ele>
        <time>2021-05-23T07:40:04Z</time>
      </trkpt>
      <trkpt lat="42.6672300" lon="-8.6331590">
        <ele>140.4</ele>
        <time>2021-05-23T07:40:05Z</time>
      </trkpt>
      <trkpt lat="42.6672420" lon="-8.6331590">
        <ele>140.4</ele>
        <time>2021-05-23T07:40:06Z</time>
      </trkpt>
      <trkpt lat="42.6672540" lon="-8.6331660">
        <ele>140.3</ele>
        <time>2021-05-23T07:40:07Z</time>
      </trkpt>
      <trkpt lat="42.6672670" lon="-8.6331780">
        <ele>140.3</ele>
        <time>2021-05-23T07:40:08Z</time>
      </trkpt>
      <trkpt lat="42.6672780" lon="-8.6331870">
        <ele>140.3</ele>
        <time>2021-05-23T07:40:09Z</time>
      </trkpt>
      <trkpt lat="42.6672880" lon="-8.6331970">
        <ele>140.3</ele>
        <time>2021-05-23T07:40:10Z</time>
      </trkpt>
      <trkpt lat="42.6672950" lon="-8.6332040">
        <ele>140.3</ele>
        <time>2021-05-23T07:40:11Z</time>
      </trkpt>
      <trkpt lat="42.6672940" lon="-8.6332170">
        <ele>140.3</ele>
        <time>2021-05-23T07:40:12Z</time>
      </trkpt>
      <trkpt lat="42.6672850" lon="-8.6332290">
        <ele>140.3</ele>
        <time>2021-05-23T07:40:13Z</time>
      </trkpt>
      <trkpt lat="42.6672770" lon="-8.6332390">
        <ele>140.3</ele>
        <time>2021-05-23T07:40:14Z</time>
      </trkpt>
      <trkpt lat="42.6672670" lon="-8.6332700">
        <ele>140.3</ele>
        <time>2021-05-23T07:40:15Z</time>
      </trkpt>
      <trkpt lat="42.6672650" lon="-8.6332800">
        <ele>140.3</ele>
        <time>2021-05-23T07:40:16Z</time>
      </trkpt>
      <trkpt lat="42.6672640" lon="-8.6332890">
        <ele>140.3</ele>
        <time>2021-05-23T07:40:17Z</time>
      </trkpt>
      <trkpt lat="42.6672650" lon="-8.6333030">
        <ele>140.3</ele>
        <time>2021-05-23T07:40:18Z</time>
      </trkpt>
      <trkpt lat="42.6672620" lon="-8.6333190">
        <ele>140.3</ele>
        <time>2021-05-23T07:40:19Z</time>
      </trkpt>
      <trkpt lat="42.6672600" lon="-8.6333310">
        <ele>140.3</ele>
        <time>2021-05-23T07:40:20Z</time>
      </trkpt>
      <trkpt lat="42.6672600" lon="-8.6333500">
        <ele>140.3</ele>
        <time>2021-05-23T07:40:21Z</time>
      </trkpt>
      <trkpt lat="42.6672550" lon="-8.6333660">
        <ele>140.3</ele>
        <time>2021-05-23T07:40:22Z</time>
      </trkpt>
      <trkpt lat="42.6672550" lon="-8.6333790">
        <ele>140.3</ele>
        <time>2021-05-23T07:40:23Z</time>
      </trkpt>
      <trkpt lat="42.6672520" lon="-8.6333960">
        <ele>140.2</ele>
        <time>2021-05-23T07:40:24Z</time>
      </trkpt>
      <trkpt lat="42.6672510" lon="-8.6334120">
        <ele>140.2</ele>
        <time>2021-05-23T07:40:25Z</time>
      </trkpt>
      <trkpt lat="42.6672480" lon="-8.6334240">
        <ele>140.2</ele>
        <time>2021-05-23T07:40:26Z</time>
      </trkpt>
      <trkpt lat="42.6672530" lon="-8.6334340">
        <ele>140.2</ele>
        <time>2021-05-23T07:40:27Z</time>
      </trkpt>
      <trkpt lat="42.6672510" lon="-8.6334510">
        <ele>140.2</ele>
        <time>2021-05-23T07:40:28Z</time>
      </trkpt>
      <trkpt lat="42.6672490" lon="-8.6334680">
        <ele>140.2</ele>
        <time>2021-05-23T07:40:29Z</time>
      </trkpt>
      <trkpt lat="42.6672440" lon="-8.6334930">
        <ele>140.2</ele>
        <time>2021-05-23T07:40:30Z</time>
      </trkpt>
      <trkpt lat="42.6672430" lon="-8.6335050">
        <ele>140.2</ele>
        <time>2021-05-23T07:40:31Z</time>
      </trkpt>
      <trkpt lat="42.6672410" lon="-8.6335180">
        <ele>140.2</ele>
        <time>2021-05-23T07:40:32Z</time>
      </trkpt>
      <trkpt lat="42.6672390" lon="-8.6335310">
        <ele>140.2</ele>
        <time>2021-05-23T07:40:33Z</time>
      </trkpt>
      <trkpt lat="42.6672380" lon="-8.6335430">
        <ele>140.2</ele>
        <time>2021-05-23T07:40:34Z</time>
      </trkpt>
      <trkpt lat="42.6672360" lon="-8.6335560">
        <ele>140.2</ele>
        <time>2021-05-23T07:40:35Z</time>
      </trkpt>
      <trkpt lat="42.6672310" lon="-8.6335860">
        <ele>140.2</ele>
        <time>2021-05-23T07:40:36Z</time>
      </trkpt>
      <trkpt lat="42.6672310" lon="-8.6335960">
        <ele>140.2</ele>
        <time>2021-05-23T07:40:37Z</time>
      </trkpt>
      <trkpt lat="42.6672300" lon="-8.6336060">
        <ele>140.2</ele>
        <time>2021-05-23T07:40:38Z</time>
      </trkpt>
      <trkpt lat="42.6672270" lon="-8.6336230">
        <ele>140.2</ele>
        <time>2021-05-23T07:40:39Z</time>
      </trkpt>
      <trkpt lat="42.6672280" lon="-8.6336430">
        <ele>140.2</ele>
        <time>2021-05-23T07:40:40Z</time>
      </trkpt>
      <trkpt lat="42.6672230" lon="-8.6336630">
        <ele>140.2</ele>
        <time>2021-05-23T07:40:41Z</time>
      </trkpt>
      <trkpt lat="42.6672240" lon="-8.6336830">
        <ele>140.2</ele>
        <time>2021-05-23T07:40:42Z</time>
      </trkpt>
      <trkpt lat="42.6672260" lon="-8.6336990">
        <ele>140.2</ele>
        <time>2021-05-23T07:40:43Z</time>
      </trkpt>
      <trkpt lat="42.6672200" lon="-8.6337200">
        <ele>140.2</ele>
        <time>2021-05-23T07:40:44Z</time>
      </trkpt>
      <trkpt lat="42.6672180" lon="-8.6337500">
        <ele>140.2</ele>
        <time>2021-05-23T07:40:45Z</time>
      </trkpt>
      <trkpt lat="42.6672180" lon="-8.6337610">
        <ele>140.2</ele>
        <time>2021-05-23T07:40:46Z</time>
      </trkpt>
      <trkpt lat="42.6672170" lon="-8.6337710">
        <ele>140.2</ele>
        <time>2021-05-23T07:40:47Z</time>
      </trkpt>
      <trkpt lat="42.6672150" lon="-8.6337820">
        <ele>139.9</ele>
        <time>2021-05-23T07:40:48Z</time>
      </trkpt>
      <trkpt lat="42.6672200" lon="-8.6338000">
        <ele>139.8</ele>
        <time>2021-05-23T07:40:49Z</time>
      </trkpt>
      <trkpt lat="42.6672250" lon="-8.6338120">
        <ele>139.8</ele>
        <time>2021-05-23T07:40:50Z</time>
      </trkpt>
      <trkpt lat="42.6672380" lon="-8.6338220">
        <ele>139.7</ele>
        <time>2021-05-23T07:40:51Z</time>
      </trkpt>
      <trkpt lat="42.6672510" lon="-8.6338280">
        <ele>139.6</ele>
        <time>2021-05-23T07:40:52Z</time>
      </trkpt>
      <trkpt lat="42.6672670" lon="-8.6338290">
        <ele>139.5</ele>
        <time>2021-05-23T07:40:53Z</time>
      </trkpt>
      <trkpt lat="42.6672800" lon="-8.6338310">
        <ele>139.5</ele>
        <time>2021-05-23T07:40:54Z</time>
      </trkpt>
      <trkpt lat="42.6672940" lon="-8.6338270">
        <ele>139.4</ele>
        <time>2021-05-23T07:40:55Z</time>
      </trkpt>
      <trkpt lat="42.6673090" lon="-8.6338290">
        <ele>139.3</ele>
        <time>2021-05-23T07:40:56Z</time>
      </trkpt>
      <trkpt lat="42.6673230" lon="-8.6338260">
        <ele>139.2</ele>
        <time>2021-05-23T07:40:57Z</time>
      </trkpt>
      <trkpt lat="42.6673380" lon="-8.6338240">
        <ele>139.1</ele>
        <time>2021-05-23T07:40:58Z</time>
      </trkpt>
      <trkpt lat="42.6673530" lon="-8.6338120">
        <ele>138.9</ele>
        <time>2021-05-23T07:40:59Z</time>
      </trkpt>
      <trkpt lat="42.6673670" lon="-8.6338160">
        <ele>138.8</ele>
        <time>2021-05-23T07:41:00Z</time>
      </trkpt>
      <trkpt lat="42.6673820" lon="-8.6338150">
        <ele>138.7</ele>
        <time>2021-05-23T07:41:01Z</time>
      </trkpt>
      <trkpt lat="42.6673970" lon="-8.6338200">
        <ele>138.6</ele>
        <time>2021-05-23T07:41:02Z</time>
      </trkpt>
      <trkpt lat="42.6674120" lon="-8.6338200">
        <ele>138.5</ele>
        <time>2021-05-23T07:41:03Z</time>
      </trkpt>
      <trkpt lat="42.6674270" lon="-8.6338170">
        <ele>138.4</ele>
        <time>2021-05-23T07:41:04Z</time>
      </trkpt>
      <trkpt lat="42.6674420" lon="-8.6338170">
        <ele>138.3</ele>
        <time>2021-05-23T07:41:05Z</time>
      </trkpt>
      <trkpt lat="42.6674560" lon="-8.6338160">
        <ele>138.1</ele>
        <time>2021-05-23T07:41:06Z</time>
      </trkpt>
      <trkpt lat="42.6674710" lon="-8.6338130">
        <ele>138.0</ele>
        <time>2021-05-23T07:41:07Z</time>
      </trkpt>
      <trkpt lat="42.6674850" lon="-8.6338130">
        <ele>137.9</ele>
        <time>2021-05-23T07:41:08Z</time>
      </trkpt>
      <trkpt lat="42.6675010" lon="-8.6338160">
        <ele>137.8</ele>
        <time>2021-05-23T07:41:09Z</time>
      </trkpt>
      <trkpt lat="42.6675150" lon="-8.6338130">
        <ele>137.7</ele>
        <time>2021-05-23T07:41:10Z</time>
      </trkpt>
      <trkpt lat="42.6675290" lon="-8.6338090">
        <ele>137.5</ele>
        <time>2021-05-23T07:41:11Z</time>
      </trkpt>
      <trkpt lat="42.6675440" lon="-8.6338090">
        <ele>137.4</ele>
        <time>2021-05-23T07:41:12Z</time>
      </trkpt>
      <trkpt lat="42.6675550" lon="-8.6338090">
        <ele>137.3</ele>
        <time>2021-05-23T07:41:13Z</time>
      </trkpt>
      <trkpt lat="42.6675680" lon="-8.6338130">
        <ele>137.2</ele>
        <time>2021-05-23T07:41:14Z</time>
      </trkpt>
      <trkpt lat="42.6675790" lon="-8.6338130">
        <ele>137.1</ele>
        <time>2021-05-23T07:41:15Z</time>
      </trkpt>
      <trkpt lat="42.6675910" lon="-8.6338130">
        <ele>137.0</ele>
        <time>2021-05-23T07:41:16Z</time>
      </trkpt>
      <trkpt lat="42.6676210" lon="-8.6338110">
        <ele>136.7</ele>
        <time>2021-05-23T07:41:17Z</time>
      </trkpt>
      <trkpt lat="42.6676360" lon="-8.6338140">
        <ele>136.6</ele>
        <time>2021-05-23T07:41:18Z</time>
      </trkpt>
      <trkpt lat="42.6676500" lon="-8.6338160">
        <ele>136.4</ele>
        <time>2021-05-23T07:41:19Z</time>
      </trkpt>
      <trkpt lat="42.6676620" lon="-8.6338250">
        <ele>136.3</ele>
        <time>2021-05-23T07:41:20Z</time>
      </trkpt>
      <trkpt lat="42.6676830" lon="-8.6338320">
        <ele>136.1</ele>
        <time>2021-05-23T07:41:21Z</time>
      </trkpt>
      <trkpt lat="42.6676920" lon="-8.6338360">
        <ele>136.0</ele>
        <time>2021-05-23T07:41:22Z</time>
      </trkpt>
      <trkpt lat="42.6677000" lon="-8.6338390">
        <ele>136.0</ele>
        <time>2021-05-23T07:41:23Z</time>
      </trkpt>
      <trkpt lat="42.6677220" lon="-8.6338400">
        <ele>135.8</ele>
        <time>2021-05-23T07:41:24Z</time>
      </trkpt>
      <trkpt lat="42.6677300" lon="-8.6338410">
        <ele>135.7</ele>
        <time>2021-05-23T07:41:25Z</time>
      </trkpt>
      <trkpt lat="42.6677390" lon="-8.6338410">
        <ele>135.6</ele>
        <time>2021-05-23T07:41:26Z</time>
      </trkpt>
      <trkpt lat="42.6677530" lon="-8.6338420">
        <ele>135.5</ele>
        <time>2021-05-23T07:41:27Z</time>
      </trkpt>
      <trkpt lat="42.6677660" lon="-8.6338440">
        <ele>135.4</ele>
        <time>2021-05-23T07:41:28Z</time>
      </trkpt>
      <trkpt lat="42.6677870" lon="-8.6338500">
        <ele>135.2</ele>
        <time>2021-05-23T07:41:29Z</time>
      </trkpt>
      <trkpt lat="42.6677960" lon="-8.6338540">
        <ele>135.2</ele>
        <time>2021-05-23T07:41:30Z</time>
      </trkpt>
      <trkpt lat="42.6678040" lon="-8.6338580">
        <ele>135.1</ele>
        <time>2021-05-23T07:41:31Z</time>
      </trkpt>
      <trkpt lat="42.6678190" lon="-8.6338540">
        <ele>135.0</ele>
        <time>2021-05-23T07:41:32Z</time>
      </trkpt>
      <trkpt lat="42.6678310" lon="-8.6338540">
        <ele>134.9</ele>
        <time>2021-05-23T07:41:33Z</time>
      </trkpt>
      <trkpt lat="42.6678450" lon="-8.6338610">
        <ele>134.8</ele>
        <time>2021-05-23T07:41:34Z</time>
      </trkpt>
      <trkpt lat="42.6678590" lon="-8.6338520">
        <ele>134.6</ele>
        <time>2021-05-23T07:41:35Z</time>
      </trkpt>
      <trkpt lat="42.6678720" lon="-8.6338590">
        <ele>134.5</ele>
        <time>2021-05-23T07:41:36Z</time>
      </trkpt>
      <trkpt lat="42.6678870" lon="-8.6338580">
        <ele>134.4</ele>
        <time>2021-05-23T07:41:37Z</time>
      </trkpt>
      <trkpt lat="42.6679080" lon="-8.6338530">
        <ele>134.2</ele>
        <time>2021-05-23T07:41:38Z</time>
      </trkpt>
      <trkpt lat="42.6679170" lon="-8.6338480">
        <ele>134.2</ele>
        <time>2021-05-23T07:41:39Z</time>
      </trkpt>
      <trkpt lat="42.6679250" lon="-8.6338430">
        <ele>134.1</ele>
        <time>2021-05-23T07:41:40Z</time>
      </trkpt>
      <trkpt lat="42.6679460" lon="-8.6338430">
        <ele>134.0</ele>
        <time>2021-05-23T07:41:41Z</time>
      </trkpt>
      <trkpt lat="42.6679550" lon="-8.6338430">
        <ele>133.9</ele>
        <time>2021-05-23T07:41:42Z</time>
      </trkpt>
      <trkpt lat="42.6679630" lon="-8.6338440">
        <ele>133.8</ele>
        <time>2021-05-23T07:41:43Z</time>
      </trkpt>
      <trkpt lat="42.6679740" lon="-8.6338490">
        <ele>133.8</ele>
        <time>2021-05-23T07:41:44Z</time>
      </trkpt>
      <trkpt lat="42.6679820" lon="-8.6338480">
        <ele>133.7</ele>
        <time>2021-05-23T07:41:45Z</time>
      </trkpt>
      <trkpt lat="42.6679920" lon="-8.6338470">
        <ele>133.6</ele>
        <time>2021-05-23T07:41:46Z</time>
      </trkpt>
      <trkpt lat="42.6680040" lon="-8.6338520">
        <ele>133.5</ele>
        <time>2021-05-23T07:41:47Z</time>
      </trkpt>
      <trkpt lat="42.6680070" lon="-8.6338530">
        <ele>133.5</ele>
        <time>2021-05-23T07:41:49Z</time>
      </trkpt>
      <trkpt lat="42.6680120" lon="-8.6338530">
        <ele>133.5</ele>
        <time>2021-05-23T07:41:50Z</time>
      </trkpt>
      <trkpt lat="42.6680240" lon="-8.6338560">
        <ele>133.4</ele>
        <time>2021-05-23T07:41:51Z</time>
      </trkpt>
      <trkpt lat="42.6680360" lon="-8.6338570">
        <ele>133.3</ele>
        <time>2021-05-23T07:41:52Z</time>
      </trkpt>
      <trkpt lat="42.6680480" lon="-8.6338570">
        <ele>133.2</ele>
        <time>2021-05-23T07:41:53Z</time>
      </trkpt>
      <trkpt lat="42.6680560" lon="-8.6338570">
        <ele>133.2</ele>
        <time>2021-05-23T07:41:54Z</time>
      </trkpt>
      <trkpt lat="42.6680670" lon="-8.6338580">
        <ele>133.1</ele>
        <time>2021-05-23T07:41:55Z</time>
      </trkpt>
      <trkpt lat="42.6680730" lon="-8.6338620">
        <ele>133.0</ele>
        <time>2021-05-23T07:41:56Z</time>
      </trkpt>
      <trkpt lat="42.6680870" lon="-8.6338630">
        <ele>132.9</ele>
        <time>2021-05-23T07:41:57Z</time>
      </trkpt>
      <trkpt lat="42.6680930" lon="-8.6338610">
        <ele>132.9</ele>
        <time>2021-05-23T07:41:58Z</time>
      </trkpt>
      <trkpt lat="42.6681040" lon="-8.6338590">
        <ele>132.8</ele>
        <time>2021-05-23T07:41:59Z</time>
      </trkpt>
      <trkpt lat="42.6681090" lon="-8.6338600">
        <ele>132.8</ele>
        <time>2021-05-23T07:42:00Z</time>
      </trkpt>
      <trkpt lat="42.6681230" lon="-8.6338630">
        <ele>132.7</ele>
        <time>2021-05-23T07:42:01Z</time>
      </trkpt>
      <trkpt lat="42.6681370" lon="-8.6338670">
        <ele>132.6</ele>
        <time>2021-05-23T07:42:02Z</time>
      </trkpt>
      <trkpt lat="42.6681420" lon="-8.6338680">
        <ele>132.6</ele>
        <time>2021-05-23T07:42:03Z</time>
      </trkpt>
      <trkpt lat="42.6681480" lon="-8.6338680">
        <ele>132.5</ele>
        <time>2021-05-23T07:42:04Z</time>
      </trkpt>
      <trkpt lat="42.6681530" lon="-8.6338690">
        <ele>132.5</ele>
        <time>2021-05-23T07:42:05Z</time>
      </trkpt>
      <trkpt lat="42.6681590" lon="-8.6338700">
        <ele>132.4</ele>
        <time>2021-05-23T07:42:06Z</time>
      </trkpt>
      <trkpt lat="42.6681660" lon="-8.6338730">
        <ele>132.4</ele>
        <time>2021-05-23T07:42:07Z</time>
      </trkpt>
      <trkpt lat="42.6681800" lon="-8.6338780">
        <ele>132.3</ele>
        <time>2021-05-23T07:42:08Z</time>
      </trkpt>
      <trkpt lat="42.6681890" lon="-8.6338770">
        <ele>132.2</ele>
        <time>2021-05-23T07:42:09Z</time>
      </trkpt>
      <trkpt lat="42.6681950" lon="-8.6338780">
        <ele>132.2</ele>
        <time>2021-05-23T07:42:10Z</time>
      </trkpt>
      <trkpt lat="42.6682080" lon="-8.6338780">
        <ele>132.1</ele>
        <time>2021-05-23T07:42:11Z</time>
      </trkpt>
      <trkpt lat="42.6682200" lon="-8.6338790">
        <ele>132.0</ele>
        <time>2021-05-23T07:42:12Z</time>
      </trkpt>
      <trkpt lat="42.6682290" lon="-8.6338780">
        <ele>132.0</ele>
        <time>2021-05-23T07:42:13Z</time>
      </trkpt>
      <trkpt lat="42.6682390" lon="-8.6338810">
        <ele>131.9</ele>
        <time>2021-05-23T07:42:14Z</time>
      </trkpt>
      <trkpt lat="42.6682490" lon="-8.6338850">
        <ele>131.8</ele>
        <time>2021-05-23T07:42:15Z</time>
      </trkpt>
      <trkpt lat="42.6682590" lon="-8.6338850">
        <ele>131.8</ele>
        <time>2021-05-23T07:42:16Z</time>
      </trkpt>
      <trkpt lat="42.6682710" lon="-8.6338840">
        <ele>131.7</ele>
        <time>2021-05-23T07:42:17Z</time>
      </trkpt>
      <trkpt lat="42.6682810" lon="-8.6338860">
        <ele>131.6</ele>
        <time>2021-05-23T07:42:18Z</time>
      </trkpt>
      <trkpt lat="42.6682910" lon="-8.6338890">
        <ele>131.6</ele>
        <time>2021-05-23T07:42:19Z</time>
      </trkpt>
      <trkpt lat="42.6683000" lon="-8.6338890">
        <ele>131.5</ele>
        <time>2021-05-23T07:42:20Z</time>
      </trkpt>
      <trkpt lat="42.6683100" lon="-8.6338890">
        <ele>131.4</ele>
        <time>2021-05-23T07:42:21Z</time>
      </trkpt>
      <trkpt lat="42.6683200" lon="-8.6338870">
        <ele>131.4</ele>
        <time>2021-05-23T07:42:22Z</time>
      </trkpt>
      <trkpt lat="42.6683310" lon="-8.6338880">
        <ele>131.3</ele>
        <time>2021-05-23T07:42:23Z</time>
      </trkpt>
      <trkpt lat="42.6683420" lon="-8.6338910">
        <ele>131.2</ele>
        <time>2021-05-23T07:42:24Z</time>
      </trkpt>
      <trkpt lat="42.6683510" lon="-8.6338950">
        <ele>131.2</ele>
        <time>2021-05-23T07:42:25Z</time>
      </trkpt>
      <trkpt lat="42.6683640" lon="-8.6338970">
        <ele>131.1</ele>
        <time>2021-05-23T07:42:26Z</time>
      </trkpt>
      <trkpt lat="42.6683760" lon="-8.6338990">
        <ele>131.0</ele>
        <time>2021-05-23T07:42:27Z</time>
      </trkpt>
      <trkpt lat="42.6683870" lon="-8.6338980">
        <ele>130.9</ele>
        <time>2021-05-23T07:42:28Z</time>
      </trkpt>
      <trkpt lat="42.6683980" lon="-8.6338960">
        <ele>130.9</ele>
        <time>2021-05-23T07:42:29Z</time>
      </trkpt>
      <trkpt lat="42.6684050" lon="-8.6338920">
        <ele>130.8</ele>
        <time>2021-05-23T07:42:30Z</time>
      </trkpt>
      <trkpt lat="42.6684140" lon="-8.6338930">
        <ele>130.8</ele>
        <time>2021-05-23T07:42:31Z</time>
      </trkpt>
      <trkpt lat="42.6684290" lon="-8.6338950">
        <ele>130.7</ele>
        <time>2021-05-23T07:42:32Z</time>
      </trkpt>
      <trkpt lat="42.6684410" lon="-8.6338950">
        <ele>130.6</ele>
        <time>2021-05-23T07:42:33Z</time>
      </trkpt>
      <trkpt lat="42.6684540" lon="-8.6338960">
        <ele>130.5</ele>
        <time>2021-05-23T07:42:34Z</time>
      </trkpt>
      <trkpt lat="42.6684670" lon="-8.6338960">
        <ele>130.4</ele>
        <time>2021-05-23T07:42:35Z</time>
      </trkpt>
      <trkpt lat="42.6684770" lon="-8.6338970">
        <ele>130.3</ele>
        <time>2021-05-23T07:42:36Z</time>
      </trkpt>
      <trkpt lat="42.6684840" lon="-8.6338960">
        <ele>130.3</ele>
        <time>2021-05-23T07:42:37Z</time>
      </trkpt>
      <trkpt lat="42.6684940" lon="-8.6338950">
        <ele>130.2</ele>
        <time>2021-05-23T07:42:38Z</time>
      </trkpt>
      <trkpt lat="42.6685050" lon="-8.6338920">
        <ele>130.2</ele>
        <time>2021-05-23T07:42:39Z</time>
      </trkpt>
      <trkpt lat="42.6685170" lon="-8.6338900">
        <ele>130.1</ele>
        <time>2021-05-23T07:42:40Z</time>
      </trkpt>
      <trkpt lat="42.6685340" lon="-8.6338860">
        <ele>130.0</ele>
        <time>2021-05-23T07:42:41Z</time>
      </trkpt>
      <trkpt lat="42.6685520" lon="-8.6338910">
        <ele>129.8</ele>
        <time>2021-05-23T07:42:42Z</time>
      </trkpt>
      <trkpt lat="42.6685610" lon="-8.6338880">
        <ele>129.8</ele>
        <time>2021-05-23T07:42:43Z</time>
      </trkpt>
      <trkpt lat="42.6685710" lon="-8.6338910">
        <ele>129.7</ele>
        <time>2021-05-23T07:42:44Z</time>
      </trkpt>
      <trkpt lat="42.6685950" lon="-8.6338930">
        <ele>129.5</ele>
        <time>2021-05-23T07:42:45Z</time>
      </trkpt>
      <trkpt lat="42.6685980" lon="-8.6338940">
        <ele>129.5</ele>
        <time>2021-05-23T07:42:46Z</time>
      </trkpt>
      <trkpt lat="42.6686160" lon="-8.6338910">
        <ele>129.4</ele>
        <time>2021-05-23T07:42:47Z</time>
      </trkpt>
      <trkpt lat="42.6686290" lon="-8.6338950">
        <ele>129.3</ele>
        <time>2021-05-23T07:42:48Z</time>
      </trkpt>
      <trkpt lat="42.6686550" lon="-8.6338940">
        <ele>129.1</ele>
        <time>2021-05-23T07:42:49Z</time>
      </trkpt>
      <trkpt lat="42.6686640" lon="-8.6338930">
        <ele>129.1</ele>
        <time>2021-05-23T07:42:50Z</time>
      </trkpt>
      <trkpt lat="42.6686720" lon="-8.6338930">
        <ele>129.0</ele>
        <time>2021-05-23T07:42:51Z</time>
      </trkpt>
      <trkpt lat="42.6686760" lon="-8.6338910">
        <ele>129.0</ele>
        <time>2021-05-23T07:42:52Z</time>
      </trkpt>
      <trkpt lat="42.6686860" lon="-8.6338930">
        <ele>128.9</ele>
        <time>2021-05-23T07:42:53Z</time>
      </trkpt>
      <trkpt lat="42.6686990" lon="-8.6338940">
        <ele>128.8</ele>
        <time>2021-05-23T07:42:54Z</time>
      </trkpt>
      <trkpt lat="42.6687190" lon="-8.6338920">
        <ele>128.7</ele>
        <time>2021-05-23T07:42:55Z</time>
      </trkpt>
      <trkpt lat="42.6687340" lon="-8.6338900">
        <ele>128.6</ele>
        <time>2021-05-23T07:42:56Z</time>
      </trkpt>
      <trkpt lat="42.6687560" lon="-8.6338890">
        <ele>128.4</ele>
        <time>2021-05-23T07:42:57Z</time>
      </trkpt>
      <trkpt lat="42.6687670" lon="-8.6338880">
        <ele>128.4</ele>
        <time>2021-05-23T07:42:58Z</time>
      </trkpt>
      <trkpt lat="42.6687770" lon="-8.6338860">
        <ele>128.3</ele>
        <time>2021-05-23T07:42:59Z</time>
      </trkpt>
      <trkpt lat="42.6687920" lon="-8.6338840">
        <ele>128.2</ele>
        <time>2021-05-23T07:43:00Z</time>
      </trkpt>
      <trkpt lat="42.6688060" lon="-8.6338840">
        <ele>128.1</ele>
        <time>2021-05-23T07:43:01Z</time>
      </trkpt>
      <trkpt lat="42.6688210" lon="-8.6338910">
        <ele>128.0</ele>
        <time>2021-05-23T07:43:02Z</time>
      </trkpt>
      <trkpt lat="42.6688360" lon="-8.6338860">
        <ele>127.9</ele>
        <time>2021-05-23T07:43:03Z</time>
      </trkpt>
      <trkpt lat="42.6688570" lon="-8.6338890">
        <ele>127.7</ele>
        <time>2021-05-23T07:43:04Z</time>
      </trkpt>
      <trkpt lat="42.6688660" lon="-8.6338920">
        <ele>127.7</ele>
        <time>2021-05-23T07:43:05Z</time>
      </trkpt>
      <trkpt lat="42.6688750" lon="-8.6338950">
        <ele>127.6</ele>
        <time>2021-05-23T07:43:06Z</time>
      </trkpt>
      <trkpt lat="42.6688900" lon="-8.6338900">
        <ele>127.5</ele>
        <time>2021-05-23T07:43:07Z</time>
      </trkpt>
      <trkpt lat="42.6689050" lon="-8.6338930">
        <ele>127.4</ele>
        <time>2021-05-23T07:43:08Z</time>
      </trkpt>
      <trkpt lat="42.6689190" lon="-8.6338910">
        <ele>127.3</ele>
        <time>2021-05-23T07:43:09Z</time>
      </trkpt>
      <trkpt lat="42.6689330" lon="-8.6338900">
        <ele>127.2</ele>
        <time>2021-05-23T07:43:10Z</time>
      </trkpt>
      <trkpt lat="42.6689470" lon="-8.6338910">
        <ele>127.1</ele>
        <time>2021-05-23T07:43:11Z</time>
      </trkpt>
      <trkpt lat="42.6689620" lon="-8.6338920">
        <ele>127.0</ele>
        <time>2021-05-23T07:43:12Z</time>
      </trkpt>
      <trkpt lat="42.6689840" lon="-8.6338920">
        <ele>126.8</ele>
        <time>2021-05-23T07:43:13Z</time>
      </trkpt>
      <trkpt lat="42.6689940" lon="-8.6338930">
        <ele>126.8</ele>
        <time>2021-05-23T07:43:14Z</time>
      </trkpt>
      <trkpt lat="42.6690030" lon="-8.6338950">
        <ele>126.7</ele>
        <time>2021-05-23T07:43:15Z</time>
      </trkpt>
      <trkpt lat="42.6690150" lon="-8.6338970">
        <ele>126.6</ele>
        <time>2021-05-23T07:43:16Z</time>
      </trkpt>
      <trkpt lat="42.6690310" lon="-8.6338950">
        <ele>126.5</ele>
        <time>2021-05-23T07:43:17Z</time>
      </trkpt>
      <trkpt lat="42.6690440" lon="-8.6339010">
        <ele>126.5</ele>
        <time>2021-05-23T07:43:18Z</time>
      </trkpt>
      <trkpt lat="42.6690560" lon="-8.6338920">
        <ele>126.4</ele>
        <time>2021-05-23T07:43:19Z</time>
      </trkpt>
      <trkpt lat="42.6690650" lon="-8.6338940">
        <ele>126.3</ele>
        <time>2021-05-23T07:43:20Z</time>
      </trkpt>
      <trkpt lat="42.6690760" lon="-8.6338880">
        <ele>126.2</ele>
        <time>2021-05-23T07:43:21Z</time>
      </trkpt>
      <trkpt lat="42.6690840" lon="-8.6338930">
        <ele>126.2</ele>
        <time>2021-05-23T07:43:22Z</time>
      </trkpt>
      <trkpt lat="42.6690960" lon="-8.6338870">
        <ele>126.1</ele>
        <time>2021-05-23T07:43:23Z</time>
      </trkpt>
      <trkpt lat="42.6691120" lon="-8.6338860">
        <ele>126.0</ele>
        <time>2021-05-23T07:43:24Z</time>
      </trkpt>
      <trkpt lat="42.6691380" lon="-8.6338770">
        <ele>125.8</ele>
        <time>2021-05-23T07:43:25Z</time>
      </trkpt>
      <trkpt lat="42.6691430" lon="-8.6338720">
        <ele>125.8</ele>
        <time>2021-05-23T07:43:27Z</time>
      </trkpt>
      <trkpt lat="42.6691390" lon="-8.6338680">
        <ele>125.8</ele>
        <time>2021-05-23T07:43:28Z</time>
      </trkpt>
      <trkpt lat="42.6691450" lon="-8.6338710">
        <ele>125.7</ele>
        <time>2021-05-23T07:43:29Z</time>
      </trkpt>
      <trkpt lat="42.6691600" lon="-8.6338720">
        <ele>125.6</ele>
        <time>2021-05-23T07:43:30Z</time>
      </trkpt>
      <trkpt lat="42.6691810" lon="-8.6338720">
        <ele>125.5</ele>
        <time>2021-05-23T07:43:31Z</time>
      </trkpt>
      <trkpt lat="42.6691910" lon="-8.6338640">
        <ele>125.4</ele>
        <time>2021-05-23T07:43:32Z</time>
      </trkpt>
      <trkpt lat="42.6691940" lon="-8.6338620">
        <ele>125.4</ele>
        <time>2021-05-23T07:43:33Z</time>
      </trkpt>
      <trkpt lat="42.6692000" lon="-8.6338670">
        <ele>125.4</ele>
        <time>2021-05-23T07:43:34Z</time>
      </trkpt>
      <trkpt lat="42.6692080" lon="-8.6338660">
        <ele>125.3</ele>
        <time>2021-05-23T07:43:35Z</time>
      </trkpt>
      <trkpt lat="42.6692200" lon="-8.6338640">
        <ele>125.3</ele>
        <time>2021-05-23T07:43:36Z</time>
      </trkpt>
      <trkpt lat="42.6692270" lon="-8.6338570">
        <ele>125.2</ele>
        <time>2021-05-23T07:43:37Z</time>
      </trkpt>
      <trkpt lat="42.6692480" lon="-8.6338550">
        <ele>125.1</ele>
        <time>2021-05-23T07:43:38Z</time>
      </trkpt>
      <trkpt lat="42.6692540" lon="-8.6338510">
        <ele>125.0</ele>
        <time>2021-05-23T07:43:39Z</time>
      </trkpt>
      <trkpt lat="42.6692640" lon="-8.6338510">
        <ele>125.0</ele>
        <time>2021-05-23T07:43:40Z</time>
      </trkpt>
      <trkpt lat="42.6692690" lon="-8.6338580">
        <ele>124.9</ele>
        <time>2021-05-23T07:43:41Z</time>
      </trkpt>
      <trkpt lat="42.6692780" lon="-8.6338570">
        <ele>124.9</ele>
        <time>2021-05-23T07:43:42Z</time>
      </trkpt>
      <trkpt lat="42.6692930" lon="-8.6338600">
        <ele>124.8</ele>
        <time>2021-05-23T07:43:43Z</time>
      </trkpt>
      <trkpt lat="42.6693100" lon="-8.6338590">
        <ele>124.7</ele>
        <time>2021-05-23T07:43:44Z</time>
      </trkpt>
      <trkpt lat="42.6693230" lon="-8.6338570">
        <ele>124.6</ele>
        <time>2021-05-23T07:43:45Z</time>
      </trkpt>
      <trkpt lat="42.6693320" lon="-8.6338520">
        <ele>124.6</ele>
        <time>2021-05-23T07:43:46Z</time>
      </trkpt>
      <trkpt lat="42.6693460" lon="-8.6338570">
        <ele>124.5</ele>
        <time>2021-05-23T07:43:47Z</time>
      </trkpt>
      <trkpt lat="42.6693620" lon="-8.6338510">
        <ele>124.4</ele>
        <time>2021-05-23T07:43:48Z</time>
      </trkpt>
      <trkpt lat="42.6693740" lon="-8.6338480">
        <ele>124.3</ele>
        <time>2021-05-23T07:43:49Z</time>
      </trkpt>
      <trkpt lat="42.6693910" lon="-8.6338500">
        <ele>124.2</ele>
        <time>2021-05-23T07:43:50Z</time>
      </trkpt>
      <trkpt lat="42.6694090" lon="-8.6338520">
        <ele>124.1</ele>
        <time>2021-05-23T07:43:51Z</time>
      </trkpt>
      <trkpt lat="42.6694270" lon="-8.6338430">
        <ele>124.0</ele>
        <time>2021-05-23T07:43:52Z</time>
      </trkpt>
      <trkpt lat="42.6694350" lon="-8.6338430">
        <ele>123.9</ele>
        <time>2021-05-23T07:43:53Z</time>
      </trkpt>
      <trkpt lat="42.6694430" lon="-8.6338440">
        <ele>123.9</ele>
        <time>2021-05-23T07:43:54Z</time>
      </trkpt>
      <trkpt lat="42.6694510" lon="-8.6338440">
        <ele>123.8</ele>
        <time>2021-05-23T07:43:55Z</time>
      </trkpt>
      <trkpt lat="42.6694620" lon="-8.6338420">
        <ele>123.8</ele>
        <time>2021-05-23T07:43:56Z</time>
      </trkpt>
      <trkpt lat="42.6694770" lon="-8.6338400">
        <ele>123.7</ele>
        <time>2021-05-23T07:43:57Z</time>
      </trkpt>
      <trkpt lat="42.6694870" lon="-8.6338360">
        <ele>123.6</ele>
        <time>2021-05-23T07:43:58Z</time>
      </trkpt>
      <trkpt lat="42.6694990" lon="-8.6338310">
        <ele>123.5</ele>
        <time>2021-05-23T07:43:59Z</time>
      </trkpt>
      <trkpt lat="42.6695170" lon="-8.6338360">
        <ele>123.4</ele>
        <time>2021-05-23T07:44:00Z</time>
      </trkpt>
      <trkpt lat="42.6695380" lon="-8.6338380">
        <ele>123.3</ele>
        <time>2021-05-23T07:44:01Z</time>
      </trkpt>
      <trkpt lat="42.6695470" lon="-8.6338400">
        <ele>123.3</ele>
        <time>2021-05-23T07:44:02Z</time>
      </trkpt>
      <trkpt lat="42.6695560" lon="-8.6338420">
        <ele>123.2</ele>
        <time>2021-05-23T07:44:03Z</time>
      </trkpt>
      <trkpt lat="42.6695740" lon="-8.6338420">
        <ele>123.1</ele>
        <time>2021-05-23T07:44:04Z</time>
      </trkpt>
      <trkpt lat="42.6695880" lon="-8.6338480">
        <ele>123.0</ele>
        <time>2021-05-23T07:44:05Z</time>
      </trkpt>
      <trkpt lat="42.6696070" lon="-8.6338430">
        <ele>122.9</ele>
        <time>2021-05-23T07:44:06Z</time>
      </trkpt>
      <trkpt lat="42.6696210" lon="-8.6338440">
        <ele>122.9</ele>
        <time>2021-05-23T07:44:07Z</time>
      </trkpt>
      <trkpt lat="42.6696460" lon="-8.6338480">
        <ele>122.7</ele>
        <time>2021-05-23T07:44:08Z</time>
      </trkpt>
      <trkpt lat="42.6696540" lon="-8.6338500">
        <ele>122.7</ele>
        <time>2021-05-23T07:44:09Z</time>
      </trkpt>
      <trkpt lat="42.6696630" lon="-8.6338510">
        <ele>122.6</ele>
        <time>2021-05-23T07:44:10Z</time>
      </trkpt>
      <trkpt lat="42.6696790" lon="-8.6338500">
        <ele>122.6</ele>
        <time>2021-05-23T07:44:11Z</time>
      </trkpt>
      <trkpt lat="42.6696940" lon="-8.6338550">
        <ele>122.5</ele>
        <time>2021-05-23T07:44:12Z</time>
      </trkpt>
      <trkpt lat="42.6697090" lon="-8.6338480">
        <ele>122.4</ele>
        <time>2021-05-23T07:44:13Z</time>
      </trkpt>
      <trkpt lat="42.6697230" lon="-8.6338490">
        <ele>122.3</ele>
        <time>2021-05-23T07:44:14Z</time>
      </trkpt>
      <trkpt lat="42.6697400" lon="-8.6338570">
        <ele>122.3</ele>
        <time>2021-05-23T07:44:15Z</time>
      </trkpt>
      <trkpt lat="42.6697520" lon="-8.6338610">
        <ele>122.2</ele>
        <time>2021-05-23T07:44:16Z</time>
      </trkpt>
      <trkpt lat="42.6697660" lon="-8.6338630">
        <ele>122.1</ele>
        <time>2021-05-23T07:44:17Z</time>
      </trkpt>
      <trkpt lat="42.6697790" lon="-8.6338660">
        <ele>122.1</ele>
        <time>2021-05-23T07:44:18Z</time>
      </trkpt>
      <trkpt lat="42.6697930" lon="-8.6338610">
        <ele>122.0</ele>
        <time>2021-05-23T07:44:19Z</time>
      </trkpt>
      <trkpt lat="42.6698090" lon="-8.6338570">
        <ele>121.9</ele>
        <time>2021-05-23T07:44:20Z</time>
      </trkpt>
      <trkpt lat="42.6698200" lon="-8.6338510">
        <ele>121.9</ele>
        <time>2021-05-23T07:44:21Z</time>
      </trkpt>
      <trkpt lat="42.6698290" lon="-8.6338380">
        <ele>121.8</ele>
        <time>2021-05-23T07:44:22Z</time>
      </trkpt>
      <trkpt lat="42.6698400" lon="-8.6338330">
        <ele>121.8</ele>
        <time>2021-05-23T07:44:23Z</time>
      </trkpt>
      <trkpt lat="42.6698510" lon="-8.6338220">
        <ele>121.7</ele>
        <time>2021-05-23T07:44:24Z</time>
      </trkpt>
      <trkpt lat="42.6698710" lon="-8.6338300">
        <ele>121.6</ele>
        <time>2021-05-23T07:44:25Z</time>
      </trkpt>
      <trkpt lat="42.6698830" lon="-8.6338260">
        <ele>121.6</ele>
        <time>2021-05-23T07:44:26Z</time>
      </trkpt>
      <trkpt lat="42.6699010" lon="-8.6338280">
        <ele>121.5</ele>
        <time>2021-05-23T07:44:27Z</time>
      </trkpt>
      <trkpt lat="42.6699150" lon="-8.6338260">
        <ele>121.4</ele>
        <time>2021-05-23T07:44:28Z</time>
      </trkpt>
      <trkpt lat="42.6699330" lon="-8.6338300">
        <ele>121.4</ele>
        <time>2021-05-23T07:44:29Z</time>
      </trkpt>
      <trkpt lat="42.6699510" lon="-8.6338300">
        <ele>121.3</ele>
        <time>2021-05-23T07:44:30Z</time>
      </trkpt>
      <trkpt lat="42.6699650" lon="-8.6338320">
        <ele>121.2</ele>
        <time>2021-05-23T07:44:31Z</time>
      </trkpt>
      <trkpt lat="42.6699790" lon="-8.6338340">
        <ele>121.2</ele>
        <time>2021-05-23T07:44:32Z</time>
      </trkpt>
      <trkpt lat="42.6699950" lon="-8.6338280">
        <ele>121.1</ele>
        <time>2021-05-23T07:44:33Z</time>
      </trkpt>
      <trkpt lat="42.6700160" lon="-8.6338250">
        <ele>121.0</ele>
        <time>2021-05-23T07:44:34Z</time>
      </trkpt>
      <trkpt lat="42.6700260" lon="-8.6338230">
        <ele>121.0</ele>
        <time>2021-05-23T07:44:35Z</time>
      </trkpt>
      <trkpt lat="42.6700350" lon="-8.6338220">
        <ele>121.0</ele>
        <time>2021-05-23T07:44:36Z</time>
      </trkpt>
      <trkpt lat="42.6700560" lon="-8.6338190">
        <ele>120.9</ele>
        <time>2021-05-23T07:44:37Z</time>
      </trkpt>
      <trkpt lat="42.6700660" lon="-8.6338170">
        <ele>120.8</ele>
        <time>2021-05-23T07:44:38Z</time>
      </trkpt>
      <trkpt lat="42.6700750" lon="-8.6338160">
        <ele>120.8</ele>
        <time>2021-05-23T07:44:39Z</time>
      </trkpt>
      <trkpt lat="42.6700890" lon="-8.6338120">
        <ele>120.7</ele>
        <time>2021-05-23T07:44:40Z</time>
      </trkpt>
      <trkpt lat="42.6701040" lon="-8.6338100">
        <ele>120.7</ele>
        <time>2021-05-23T07:44:41Z</time>
      </trkpt>
      <trkpt lat="42.6701180" lon="-8.6338050">
        <ele>120.6</ele>
        <time>2021-05-23T07:44:42Z</time>
      </trkpt>
      <trkpt lat="42.6701340" lon="-8.6338030">
        <ele>120.6</ele>
        <time>2021-05-23T07:44:43Z</time>
      </trkpt>
      <trkpt lat="42.6701480" lon="-8.6337960">
        <ele>120.5</ele>
        <time>2021-05-23T07:44:44Z</time>
      </trkpt>
      <trkpt lat="42.6701630" lon="-8.6337900">
        <ele>120.5</ele>
        <time>2021-05-23T07:44:45Z</time>
      </trkpt>
      <trkpt lat="42.6701780" lon="-8.6337860">
        <ele>120.4</ele>
        <time>2021-05-23T07:44:46Z</time>
      </trkpt>
      <trkpt lat="42.6701910" lon="-8.6337800">
        <ele>120.4</ele>
        <time>2021-05-23T07:44:47Z</time>
      </trkpt>
      <trkpt lat="42.6702080" lon="-8.6337760">
        <ele>120.3</ele>
        <time>2021-05-23T07:44:48Z</time>
      </trkpt>
      <trkpt lat="42.6702220" lon="-8.6337710">
        <ele>120.3</ele>
        <time>2021-05-23T07:44:49Z</time>
      </trkpt>
      <trkpt lat="42.6702340" lon="-8.6337670">
        <ele>120.3</ele>
        <time>2021-05-23T07:44:50Z</time>
      </trkpt>
      <trkpt lat="42.6702460" lon="-8.6337620">
        <ele>120.2</ele>
        <time>2021-05-23T07:44:51Z</time>
      </trkpt>
      <trkpt lat="42.6702550" lon="-8.6337560">
        <ele>120.2</ele>
        <time>2021-05-23T07:44:52Z</time>
      </trkpt>
      <trkpt lat="42.6702690" lon="-8.6337500">
        <ele>120.2</ele>
        <time>2021-05-23T07:44:53Z</time>
      </trkpt>
      <trkpt lat="42.6702820" lon="-8.6337480">
        <ele>120.1</ele>
        <time>2021-05-23T07:44:54Z</time>
      </trkpt>
      <trkpt lat="42.6703010" lon="-8.6337380">
        <ele>120.1</ele>
        <time>2021-05-23T07:44:55Z</time>
      </trkpt>
      <trkpt lat="42.6703090" lon="-8.6337330">
        <ele>120.1</ele>
        <time>2021-05-23T07:44:56Z</time>
      </trkpt>
      <trkpt lat="42.6703170" lon="-8.6337280">
        <ele>120.0</ele>
        <time>2021-05-23T07:44:57Z</time>
      </trkpt>
      <trkpt lat="42.6703350" lon="-8.6337150">
        <ele>120.0</ele>
        <time>2021-05-23T07:44:58Z</time>
      </trkpt>
      <trkpt lat="42.6703440" lon="-8.6337110">
        <ele>120.0</ele>
        <time>2021-05-23T07:44:59Z</time>
      </trkpt>
      <trkpt lat="42.6703520" lon="-8.6337080">
        <ele>119.9</ele>
        <time>2021-05-23T07:45:00Z</time>
      </trkpt>
      <trkpt lat="42.6703610" lon="-8.6337020">
        <ele>119.9</ele>
        <time>2021-05-23T07:45:01Z</time>
      </trkpt>
      <trkpt lat="42.6703730" lon="-8.6337040">
        <ele>119.9</ele>
        <time>2021-05-23T07:45:02Z</time>
      </trkpt>
      <trkpt lat="42.6703790" lon="-8.6336970">
        <ele>119.9</ele>
        <time>2021-05-23T07:45:03Z</time>
      </trkpt>
      <trkpt lat="42.6703940" lon="-8.6336930">
        <ele>119.8</ele>
        <time>2021-05-23T07:45:04Z</time>
      </trkpt>
      <trkpt lat="42.6704040" lon="-8.6336900">
        <ele>119.8</ele>
        <time>2021-05-23T07:45:05Z</time>
      </trkpt>
      <trkpt lat="42.6704150" lon="-8.6336870">
        <ele>119.8</ele>
        <time>2021-05-23T07:45:06Z</time>
      </trkpt>
      <trkpt lat="42.6704260" lon="-8.6336830">
        <ele>119.8</ele>
        <time>2021-05-23T07:45:07Z</time>
      </trkpt>
      <trkpt lat="42.6704420" lon="-8.6336780">
        <ele>119.7</ele>
        <time>2021-05-23T07:45:08Z</time>
      </trkpt>
      <trkpt lat="42.6704540" lon="-8.6336700">
        <ele>119.7</ele>
        <time>2021-05-23T07:45:09Z</time>
      </trkpt>
      <trkpt lat="42.6704690" lon="-8.6336650">
        <ele>119.7</ele>
        <time>2021-05-23T07:45:10Z</time>
      </trkpt>
      <trkpt lat="42.6704850" lon="-8.6336600">
        <ele>119.6</ele>
        <time>2021-05-23T07:45:11Z</time>
      </trkpt>
      <trkpt lat="42.6705020" lon="-8.6336530">
        <ele>119.6</ele>
        <time>2021-05-23T07:45:12Z</time>
      </trkpt>
      <trkpt lat="42.6705220" lon="-8.6336460">
        <ele>119.6</ele>
        <time>2021-05-23T07:45:13Z</time>
      </trkpt>
      <trkpt lat="42.6705290" lon="-8.6336430">
        <ele>119.5</ele>
        <time>2021-05-23T07:45:14Z</time>
      </trkpt>
      <trkpt lat="42.6705370" lon="-8.6336410">
        <ele>119.5</ele>
        <time>2021-05-23T07:45:15Z</time>
      </trkpt>
      <trkpt lat="42.6705470" lon="-8.6336320">
        <ele>119.5</ele>
        <time>2021-05-23T07:45:16Z</time>
      </trkpt>
      <trkpt lat="42.6705640" lon="-8.6336350">
        <ele>119.5</ele>
        <time>2021-05-23T07:45:17Z</time>
      </trkpt>
      <trkpt lat="42.6705860" lon="-8.6336260">
        <ele>119.4</ele>
        <time>2021-05-23T07:45:18Z</time>
      </trkpt>
      <trkpt lat="42.6705930" lon="-8.6336200">
        <ele>119.4</ele>
        <time>2021-05-23T07:45:19Z</time>
      </trkpt>
      <trkpt lat="42.6706010" lon="-8.6336150">
        <ele>119.4</ele>
        <time>2021-05-23T07:45:20Z</time>
      </trkpt>
      <trkpt lat="42.6706230" lon="-8.6336100">
        <ele>119.3</ele>
        <time>2021-05-23T07:45:21Z</time>
      </trkpt>
      <trkpt lat="42.6706300" lon="-8.6336080">
        <ele>119.3</ele>
        <time>2021-05-23T07:45:22Z</time>
      </trkpt>
      <trkpt lat="42.6706380" lon="-8.6336070">
        <ele>119.3</ele>
        <time>2021-05-23T07:45:23Z</time>
      </trkpt>
      <trkpt lat="42.6706540" lon="-8.6336050">
        <ele>119.2</ele>
        <time>2021-05-23T07:45:24Z</time>
      </trkpt>
      <trkpt lat="42.6706640" lon="-8.6335970">
        <ele>119.2</ele>
        <time>2021-05-23T07:45:25Z</time>
      </trkpt>
      <trkpt lat="42.6706730" lon="-8.6335950">
        <ele>119.2</ele>
        <time>2021-05-23T07:45:26Z</time>
      </trkpt>
      <trkpt lat="42.6706770" lon="-8.6335880">
        <ele>119.1</ele>
        <time>2021-05-23T07:45:27Z</time>
      </trkpt>
      <trkpt lat="42.6706970" lon="-8.6335820">
        <ele>119.1</ele>
        <time>2021-05-23T07:45:28Z</time>
      </trkpt>
      <trkpt lat="42.6707140" lon="-8.6335750">
        <ele>119.0</ele>
        <time>2021-05-23T07:45:29Z</time>
      </trkpt>
      <trkpt lat="42.6707230" lon="-8.6335720">
        <ele>119.0</ele>
        <time>2021-05-23T07:45:30Z</time>
      </trkpt>
      <trkpt lat="42.6707320" lon="-8.6335680">
        <ele>118.9</ele>
        <time>2021-05-23T07:45:31Z</time>
      </trkpt>
      <trkpt lat="42.6707470" lon="-8.6335660">
        <ele>118.9</ele>
        <time>2021-05-23T07:45:32Z</time>
      </trkpt>
      <trkpt lat="42.6707590" lon="-8.6335620">
        <ele>118.8</ele>
        <time>2021-05-23T07:45:33Z</time>
      </trkpt>
      <trkpt lat="42.6707730" lon="-8.6335530">
        <ele>118.8</ele>
        <time>2021-05-23T07:45:34Z</time>
      </trkpt>
      <trkpt lat="42.6707880" lon="-8.6335480">
        <ele>118.7</ele>
        <time>2021-05-23T07:45:35Z</time>
      </trkpt>
      <trkpt lat="42.6708050" lon="-8.6335370">
        <ele>118.6</ele>
        <time>2021-05-23T07:45:36Z</time>
      </trkpt>
      <trkpt lat="42.6708130" lon="-8.6335340">
        <ele>118.6</ele>
        <time>2021-05-23T07:45:37Z</time>
      </trkpt>
      <trkpt lat="42.6708220" lon="-8.6335310">
        <ele>118.5</ele>
        <time>2021-05-23T07:45:38Z</time>
      </trkpt>
      <trkpt lat="42.6708320" lon="-8.6335320">
        <ele>118.4</ele>
        <time>2021-05-23T07:45:39Z</time>
      </trkpt>
      <trkpt lat="42.6708380" lon="-8.6335280">
        <ele>118.4</ele>
        <time>2021-05-23T07:45:40Z</time>
      </trkpt>
      <trkpt lat="42.6708510" lon="-8.6335150">
        <ele>118.3</ele>
        <time>2021-05-23T07:45:41Z</time>
      </trkpt>
      <trkpt lat="42.6708700" lon="-8.6335040">
        <ele>118.2</ele>
        <time>2021-05-23T07:45:42Z</time>
      </trkpt>
      <trkpt lat="42.6708780" lon="-8.6335020">
        <ele>118.1</ele>
        <time>2021-05-23T07:45:43Z</time>
      </trkpt>
      <trkpt lat="42.6708860" lon="-8.6335000">
        <ele>118.1</ele>
        <time>2021-05-23T07:45:44Z</time>
      </trkpt>
      <trkpt lat="42.6709070" lon="-8.6334950">
        <ele>117.9</ele>
        <time>2021-05-23T07:45:45Z</time>
      </trkpt>
      <trkpt lat="42.6709150" lon="-8.6334940">
        <ele>117.9</ele>
        <time>2021-05-23T07:45:46Z</time>
      </trkpt>
      <trkpt lat="42.6709230" lon="-8.6334940">
        <ele>117.8</ele>
        <time>2021-05-23T07:45:47Z</time>
      </trkpt>
      <trkpt lat="42.6709370" lon="-8.6334890">
        <ele>117.7</ele>
        <time>2021-05-23T07:45:48Z</time>
      </trkpt>
      <trkpt lat="42.6709450" lon="-8.6334890">
        <ele>117.6</ele>
        <time>2021-05-23T07:45:49Z</time>
      </trkpt>
      <trkpt lat="42.6709520" lon="-8.6334880">
        <ele>117.6</ele>
        <time>2021-05-23T07:45:50Z</time>
      </trkpt>
      <trkpt lat="42.6709600" lon="-8.6334870">
        <ele>117.5</ele>
        <time>2021-05-23T07:45:51Z</time>
      </trkpt>
      <trkpt lat="42.6709730" lon="-8.6334890">
        <ele>117.4</ele>
        <time>2021-05-23T07:45:52Z</time>
      </trkpt>
      <trkpt lat="42.6709810" lon="-8.6334840">
        <ele>117.3</ele>
        <time>2021-05-23T07:45:53Z</time>
      </trkpt>
      <trkpt lat="42.6709870" lon="-8.6334800">
        <ele>117.3</ele>
        <time>2021-05-23T07:45:54Z</time>
      </trkpt>
      <trkpt lat="42.6709920" lon="-8.6334800">
        <ele>117.2</ele>
        <time>2021-05-23T07:45:55Z</time>
      </trkpt>
      <trkpt lat="42.6710040" lon="-8.6334800">
        <ele>117.2</ele>
        <time>2021-05-23T07:45:56Z</time>
      </trkpt>
      <trkpt lat="42.6710210" lon="-8.6334820">
        <ele>117.0</ele>
        <time>2021-05-23T07:45:57Z</time>
      </trkpt>
      <trkpt lat="42.6710360" lon="-8.6334800">
        <ele>116.9</ele>
        <time>2021-05-23T07:45:58Z</time>
      </trkpt>
      <trkpt lat="42.6710500" lon="-8.6334750">
        <ele>116.8</ele>
        <time>2021-05-23T07:45:59Z</time>
      </trkpt>
      <trkpt lat="42.6710700" lon="-8.6334770">
        <ele>116.6</ele>
        <time>2021-05-23T07:46:00Z</time>
      </trkpt>
      <trkpt lat="42.6710800" lon="-8.6334740">
        <ele>116.5</ele>
        <time>2021-05-23T07:46:01Z</time>
      </trkpt>
      <trkpt lat="42.6710890" lon="-8.6334720">
        <ele>116.4</ele>
        <time>2021-05-23T07:46:02Z</time>
      </trkpt>
      <trkpt lat="42.6711020" lon="-8.6334700">
        <ele>116.3</ele>
        <time>2021-05-23T07:46:03Z</time>
      </trkpt>
      <trkpt lat="42.6711140" lon="-8.6334680">
        <ele>116.2</ele>
        <time>2021-05-23T07:46:04Z</time>
      </trkpt>
      <trkpt lat="42.6711240" lon="-8.6334710">
        <ele>116.1</ele>
        <time>2021-05-23T07:46:05Z</time>
      </trkpt>
      <trkpt lat="42.6711260" lon="-8.6334690">
        <ele>116.1</ele>
        <time>2021-05-23T07:46:06Z</time>
      </trkpt>
      <trkpt lat="42.6711340" lon="-8.6334620">
        <ele>116.0</ele>
        <time>2021-05-23T07:46:07Z</time>
      </trkpt>
      <trkpt lat="42.6711490" lon="-8.6334530">
        <ele>115.9</ele>
        <time>2021-05-23T07:46:08Z</time>
      </trkpt>
      <trkpt lat="42.6711550" lon="-8.6334520">
        <ele>115.8</ele>
        <time>2021-05-23T07:46:09Z</time>
      </trkpt>
      <trkpt lat="42.6711610" lon="-8.6334560">
        <ele>115.8</ele>
        <time>2021-05-23T07:46:10Z</time>
      </trkpt>
      <trkpt lat="42.6711720" lon="-8.6334530">
        <ele>115.7</ele>
        <time>2021-05-23T07:46:11Z</time>
      </trkpt>
      <trkpt lat="42.6711850" lon="-8.6334470">
        <ele>115.6</ele>
        <time>2021-05-23T07:46:12Z</time>
      </trkpt>
      <trkpt lat="42.6711810" lon="-8.6334500">
        <ele>115.5</ele>
        <time>2021-05-23T07:46:13Z</time>
      </trkpt>
      <trkpt lat="42.6711920" lon="-8.6334500">
        <ele>115.4</ele>
        <time>2021-05-23T07:46:14Z</time>
      </trkpt>
      <trkpt lat="42.6712040" lon="-8.6334480">
        <ele>115.3</ele>
        <time>2021-05-23T07:46:15Z</time>
      </trkpt>
      <trkpt lat="42.6712150" lon="-8.6334390">
        <ele>115.2</ele>
        <time>2021-05-23T07:46:16Z</time>
      </trkpt>
      <trkpt lat="42.6712180" lon="-8.6334340">
        <ele>115.2</ele>
        <time>2021-05-23T07:46:17Z</time>
      </trkpt>
      <trkpt lat="42.6712310" lon="-8.6334300">
        <ele>115.1</ele>
        <time>2021-05-23T07:46:18Z</time>
      </trkpt>
      <trkpt lat="42.6712440" lon="-8.6334250">
        <ele>115.0</ele>
        <time>2021-05-23T07:46:19Z</time>
      </trkpt>
      <trkpt lat="42.6712620" lon="-8.6334240">
        <ele>114.8</ele>
        <time>2021-05-23T07:46:20Z</time>
      </trkpt>
      <trkpt lat="42.6712730" lon="-8.6334220">
        <ele>114.7</ele>
        <time>2021-05-23T07:46:21Z</time>
      </trkpt>
      <trkpt lat="42.6712850" lon="-8.6334210">
        <ele>114.6</ele>
        <time>2021-05-23T07:46:22Z</time>
      </trkpt>
      <trkpt lat="42.6713010" lon="-8.6334100">
        <ele>114.5</ele>
        <time>2021-05-23T07:46:23Z</time>
      </trkpt>
      <trkpt lat="42.6713130" lon="-8.6334100">
        <ele>114.4</ele>
        <time>2021-05-23T07:46:24Z</time>
      </trkpt>
      <trkpt lat="42.6713420" lon="-8.6334060">
        <ele>114.2</ele>
        <time>2021-05-23T07:46:25Z</time>
      </trkpt>
      <trkpt lat="42.6713720" lon="-8.6333940">
        <ele>114.0</ele>
        <time>2021-05-23T07:46:26Z</time>
      </trkpt>
      <trkpt lat="42.6713810" lon="-8.6333910">
        <ele>113.9</ele>
        <time>2021-05-23T07:46:27Z</time>
      </trkpt>
      <trkpt lat="42.6714100" lon="-8.6333820">
        <ele>113.7</ele>
        <time>2021-05-23T07:46:28Z</time>
      </trkpt>
      <trkpt lat="42.6714190" lon="-8.6333780">
        <ele>113.7</ele>
        <time>2021-05-23T07:46:29Z</time>
      </trkpt>
      <trkpt lat="42.6714480" lon="-8.6333710">
        <ele>113.5</ele>
        <time>2021-05-23T07:46:30Z</time>
      </trkpt>
      <trkpt lat="42.6714560" lon="-8.6333660">
        <ele>113.4</ele>
        <time>2021-05-23T07:46:31Z</time>
      </trkpt>
      <trkpt lat="42.6714710" lon="-8.6333620">
        <ele>113.3</ele>
        <time>2021-05-23T07:46:32Z</time>
      </trkpt>
      <trkpt lat="42.6714880" lon="-8.6333560">
        <ele>113.2</ele>
        <time>2021-05-23T07:46:33Z</time>
      </trkpt>
      <trkpt lat="42.6715040" lon="-8.6333560">
        <ele>113.2</ele>
        <time>2021-05-23T07:46:34Z</time>
      </trkpt>
      <trkpt lat="42.6715230" lon="-8.6333450">
        <ele>113.0</ele>
        <time>2021-05-23T07:46:35Z</time>
      </trkpt>
      <trkpt lat="42.6715430" lon="-8.6333410">
        <ele>112.9</ele>
        <time>2021-05-23T07:46:36Z</time>
      </trkpt>
      <trkpt lat="42.6715510" lon="-8.6333380">
        <ele>112.9</ele>
        <time>2021-05-23T07:46:37Z</time>
      </trkpt>
      <trkpt lat="42.6715590" lon="-8.6333360">
        <ele>112.8</ele>
        <time>2021-05-23T07:46:38Z</time>
      </trkpt>
      <trkpt lat="42.6715740" lon="-8.6333300">
        <ele>112.8</ele>
        <time>2021-05-23T07:46:39Z</time>
      </trkpt>
      <trkpt lat="42.6715910" lon="-8.6333280">
        <ele>112.7</ele>
        <time>2021-05-23T07:46:40Z</time>
      </trkpt>
      <trkpt lat="42.6716040" lon="-8.6333190">
        <ele>112.6</ele>
        <time>2021-05-23T07:46:41Z</time>
      </trkpt>
      <trkpt lat="42.6716120" lon="-8.6333090">
        <ele>112.6</ele>
        <time>2021-05-23T07:46:42Z</time>
      </trkpt>
      <trkpt lat="42.6716200" lon="-8.6333080">
        <ele>112.5</ele>
        <time>2021-05-23T07:46:43Z</time>
      </trkpt>
      <trkpt lat="42.6716290" lon="-8.6333080">
        <ele>112.5</ele>
        <time>2021-05-23T07:46:44Z</time>
      </trkpt>
      <trkpt lat="42.6716420" lon="-8.6333020">
        <ele>112.4</ele>
        <time>2021-05-23T07:46:45Z</time>
      </trkpt>
      <trkpt lat="42.6716470" lon="-8.6332950">
        <ele>112.4</ele>
        <time>2021-05-23T07:46:46Z</time>
      </trkpt>
      <trkpt lat="42.6716680" lon="-8.6332840">
        <ele>112.3</ele>
        <time>2021-05-23T07:46:47Z</time>
      </trkpt>
      <trkpt lat="42.6716770" lon="-8.6332810">
        <ele>112.3</ele>
        <time>2021-05-23T07:46:48Z</time>
      </trkpt>
      <trkpt lat="42.6716850" lon="-8.6332770">
        <ele>112.2</ele>
        <time>2021-05-23T07:46:49Z</time>
      </trkpt>
      <trkpt lat="42.6717060" lon="-8.6332690">
        <ele>112.2</ele>
        <time>2021-05-23T07:46:50Z</time>
      </trkpt>
      <trkpt lat="42.6717130" lon="-8.6332660">
        <ele>112.2</ele>
        <time>2021-05-23T07:46:51Z</time>
      </trkpt>
      <trkpt lat="42.6717210" lon="-8.6332630">
        <ele>112.1</ele>
        <time>2021-05-23T07:46:52Z</time>
      </trkpt>
      <trkpt lat="42.6717270" lon="-8.6332590">
        <ele>112.1</ele>
        <time>2021-05-23T07:46:53Z</time>
      </trkpt>
      <trkpt lat="42.6717470" lon="-8.6332530">
        <ele>112.1</ele>
        <time>2021-05-23T07:46:54Z</time>
      </trkpt>
      <trkpt lat="42.6717670" lon="-8.6332500">
        <ele>112.0</ele>
        <time>2021-05-23T07:46:55Z</time>
      </trkpt>
      <trkpt lat="42.6717800" lon="-8.6332400">
        <ele>112.0</ele>
        <time>2021-05-23T07:46:56Z</time>
      </trkpt>
      <trkpt lat="42.6718010" lon="-8.6332320">
        <ele>111.9</ele>
        <time>2021-05-23T07:46:57Z</time>
      </trkpt>
      <trkpt lat="42.6718100" lon="-8.6332310">
        <ele>111.9</ele>
        <time>2021-05-23T07:46:58Z</time>
      </trkpt>
      <trkpt lat="42.6718200" lon="-8.6332290">
        <ele>111.9</ele>
        <time>2021-05-23T07:46:59Z</time>
      </trkpt>
      <trkpt lat="42.6718330" lon="-8.6332260">
        <ele>111.9</ele>
        <time>2021-05-23T07:47:00Z</time>
      </trkpt>
      <trkpt lat="42.6718490" lon="-8.6332200">
        <ele>111.9</ele>
        <time>2021-05-23T07:47:01Z</time>
      </trkpt>
      <trkpt lat="42.6718640" lon="-8.6332150">
        <ele>111.9</ele>
        <time>2021-05-23T07:47:02Z</time>
      </trkpt>
      <trkpt lat="42.6718760" lon="-8.6332100">
        <ele>111.8</ele>
        <time>2021-05-23T07:47:03Z</time>
      </trkpt>
      <trkpt lat="42.6718950" lon="-8.6331990">
        <ele>111.8</ele>
        <time>2021-05-23T07:47:04Z</time>
      </trkpt>
      <trkpt lat="42.6719040" lon="-8.6331940">
        <ele>111.8</ele>
        <time>2021-05-23T07:47:05Z</time>
      </trkpt>
      <trkpt lat="42.6719120" lon="-8.6331900">
        <ele>111.8</ele>
        <time>2021-05-23T07:47:06Z</time>
      </trkpt>
      <trkpt lat="42.6719270" lon="-8.6331930">
        <ele>111.8</ele>
        <time>2021-05-23T07:47:07Z</time>
      </trkpt>
      <trkpt lat="42.6719410" lon="-8.6331920">
        <ele>111.8</ele>
        <time>2021-05-23T07:47:08Z</time>
      </trkpt>
      <trkpt lat="42.6719550" lon="-8.6331910">
        <ele>111.8</ele>
        <time>2021-05-23T07:47:09Z</time>
      </trkpt>
      <trkpt lat="42.6719700" lon="-8.6331860">
        <ele>111.8</ele>
        <time>2021-05-23T07:47:10Z</time>
      </trkpt>
      <trkpt lat="42.6719830" lon="-8.6331850">
        <ele>111.8</ele>
        <time>2021-05-23T07:47:11Z</time>
      </trkpt>
      <trkpt lat="42.6719990" lon="-8.6331840">
        <ele>111.8</ele>
        <time>2021-05-23T07:47:12Z</time>
      </trkpt>
      <trkpt lat="42.6720140" lon="-8.6331840">
        <ele>111.9</ele>
        <time>2021-05-23T07:47:13Z</time>
      </trkpt>
      <trkpt lat="42.6720300" lon="-8.6331800">
        <ele>111.9</ele>
        <time>2021-05-23T07:47:14Z</time>
      </trkpt>
      <trkpt lat="42.6720490" lon="-8.6331720">
        <ele>111.9</ele>
        <time>2021-05-23T07:47:15Z</time>
      </trkpt>
      <trkpt lat="42.6720580" lon="-8.6331700">
        <ele>112.0</ele>
        <time>2021-05-23T07:47:16Z</time>
      </trkpt>
      <trkpt lat="42.6720670" lon="-8.6331670">
        <ele>112.0</ele>
        <time>2021-05-23T07:47:17Z</time>
      </trkpt>
      <trkpt lat="42.6720830" lon="-8.6331660">
        <ele>112.0</ele>
        <time>2021-05-23T07:47:18Z</time>
      </trkpt>
      <trkpt lat="42.6720960" lon="-8.6331650">
        <ele>112.1</ele>
        <time>2021-05-23T07:47:19Z</time>
      </trkpt>
      <trkpt lat="42.6721110" lon="-8.6331700">
        <ele>112.2</ele>
        <time>2021-05-23T07:47:20Z</time>
      </trkpt>
      <trkpt lat="42.6721250" lon="-8.6331720">
        <ele>112.2</ele>
        <time>2021-05-23T07:47:21Z</time>
      </trkpt>
      <trkpt lat="42.6721370" lon="-8.6331630">
        <ele>112.3</ele>
        <time>2021-05-23T07:47:22Z</time>
      </trkpt>
      <trkpt lat="42.6721520" lon="-8.6331600">
        <ele>112.4</ele>
        <time>2021-05-23T07:47:23Z</time>
      </trkpt>
      <trkpt lat="42.6721680" lon="-8.6331550">
        <ele>112.5</ele>
        <time>2021-05-23T07:47:24Z</time>
      </trkpt>
      <trkpt lat="42.6721810" lon="-8.6331490">
        <ele>112.6</ele>
        <time>2021-05-23T07:47:25Z</time>
      </trkpt>
      <trkpt lat="42.6721960" lon="-8.6331470">
        <ele>112.6</ele>
        <time>2021-05-23T07:47:26Z</time>
      </trkpt>
      <trkpt lat="42.6722120" lon="-8.6331460">
        <ele>112.7</ele>
        <time>2021-05-23T07:47:27Z</time>
      </trkpt>
      <trkpt lat="42.6722320" lon="-8.6331350">
        <ele>112.9</ele>
        <time>2021-05-23T07:47:28Z</time>
      </trkpt>
      <trkpt lat="42.6722410" lon="-8.6331310">
        <ele>113.0</ele>
        <time>2021-05-23T07:47:29Z</time>
      </trkpt>
      <trkpt lat="42.6722510" lon="-8.6331270">
        <ele>113.0</ele>
        <time>2021-05-23T07:47:30Z</time>
      </trkpt>
      <trkpt lat="42.6722700" lon="-8.6331160">
        <ele>113.2</ele>
        <time>2021-05-23T07:47:31Z</time>
      </trkpt>
      <trkpt lat="42.6722770" lon="-8.6331120">
        <ele>113.3</ele>
        <time>2021-05-23T07:47:32Z</time>
      </trkpt>
      <trkpt lat="42.6722850" lon="-8.6331080">
        <ele>113.3</ele>
        <time>2021-05-23T07:47:33Z</time>
      </trkpt>
      <trkpt lat="42.6723040" lon="-8.6330980">
        <ele>113.5</ele>
        <time>2021-05-23T07:47:34Z</time>
      </trkpt>
      <trkpt lat="42.6723130" lon="-8.6330950">
        <ele>113.6</ele>
        <time>2021-05-23T07:47:35Z</time>
      </trkpt>
      <trkpt lat="42.6723210" lon="-8.6330920">
        <ele>113.7</ele>
        <time>2021-05-23T07:47:36Z</time>
      </trkpt>
      <trkpt lat="42.6723320" lon="-8.6330870">
        <ele>113.8</ele>
        <time>2021-05-23T07:47:37Z</time>
      </trkpt>
      <trkpt lat="42.6723440" lon="-8.6330870">
        <ele>113.9</ele>
        <time>2021-05-23T07:47:38Z</time>
      </trkpt>
      <trkpt lat="42.6723520" lon="-8.6330830">
        <ele>114.0</ele>
        <time>2021-05-23T07:47:39Z</time>
      </trkpt>
      <trkpt lat="42.6723570" lon="-8.6330780">
        <ele>114.0</ele>
        <time>2021-05-23T07:47:40Z</time>
      </trkpt>
      <trkpt lat="42.6723690" lon="-8.6330710">
        <ele>114.1</ele>
        <time>2021-05-23T07:47:41Z</time>
      </trkpt>
      <trkpt lat="42.6723730" lon="-8.6330650">
        <ele>114.2</ele>
        <time>2021-05-23T07:47:42Z</time>
      </trkpt>
      <trkpt lat="42.6723840" lon="-8.6330620">
        <ele>114.3</ele>
        <time>2021-05-23T07:47:43Z</time>
      </trkpt>
      <trkpt lat="42.6723990" lon="-8.6330560">
        <ele>114.5</ele>
        <time>2021-05-23T07:47:44Z</time>
      </trkpt>
      <trkpt lat="42.6724040" lon="-8.6330570">
        <ele>114.6</ele>
        <time>2021-05-23T07:47:45Z</time>
      </trkpt>
      <trkpt lat="42.6724190" lon="-8.6330550">
        <ele>114.7</ele>
        <time>2021-05-23T07:47:46Z</time>
      </trkpt>
      <trkpt lat="42.6724270" lon="-8.6330520">
        <ele>114.8</ele>
        <time>2021-05-23T07:47:47Z</time>
      </trkpt>
      <trkpt lat="42.6724370" lon="-8.6330440">
        <ele>115.0</ele>
        <time>2021-05-23T07:47:48Z</time>
      </trkpt>
      <trkpt lat="42.6724470" lon="-8.6330460">
        <ele>115.1</ele>
        <time>2021-05-23T07:47:49Z</time>
      </trkpt>
      <trkpt lat="42.6724610" lon="-8.6330400">
        <ele>115.3</ele>
        <time>2021-05-23T07:47:50Z</time>
      </trkpt>
      <trkpt lat="42.6724630" lon="-8.6330430">
        <ele>115.3</ele>
        <time>2021-05-23T07:47:51Z</time>
      </trkpt>
      <trkpt lat="42.6724760" lon="-8.6330360">
        <ele>115.5</ele>
        <time>2021-05-23T07:47:52Z</time>
      </trkpt>
      <trkpt lat="42.6724820" lon="-8.6330360">
        <ele>115.6</ele>
        <time>2021-05-23T07:47:53Z</time>
      </trkpt>
      <trkpt lat="42.6724920" lon="-8.6330420">
        <ele>115.8</ele>
        <time>2021-05-23T07:47:54Z</time>
      </trkpt>
      <trkpt lat="42.6725030" lon="-8.6330370">
        <ele>115.9</ele>
        <time>2021-05-23T07:47:55Z</time>
      </trkpt>
      <trkpt lat="42.6725130" lon="-8.6330350">
        <ele>116.1</ele>
        <time>2021-05-23T07:47:56Z</time>
      </trkpt>
      <trkpt lat="42.6725220" lon="-8.6330320">
        <ele>116.2</ele>
        <time>2021-05-23T07:47:57Z</time>
      </trkpt>
      <trkpt lat="42.6725330" lon="-8.6330290">
        <ele>116.4</ele>
        <time>2021-05-23T07:47:58Z</time>
      </trkpt>
      <trkpt lat="42.6725400" lon="-8.6330270">
        <ele>116.5</ele>
        <time>2021-05-23T07:47:59Z</time>
      </trkpt>
      <trkpt lat="42.6725450" lon="-8.6330260">
        <ele>116.6</ele>
        <time>2021-05-23T07:48:00Z</time>
      </trkpt>
      <trkpt lat="42.6725580" lon="-8.6330290">
        <ele>116.7</ele>
        <time>2021-05-23T07:48:01Z</time>
      </trkpt>
      <trkpt lat="42.6725690" lon="-8.6330270">
        <ele>116.9</ele>
        <time>2021-05-23T07:48:02Z</time>
      </trkpt>
      <trkpt lat="42.6725850" lon="-8.6330200">
        <ele>117.1</ele>
        <time>2021-05-23T07:48:03Z</time>
      </trkpt>
      <trkpt lat="42.6725970" lon="-8.6330180">
        <ele>117.3</ele>
        <time>2021-05-23T07:48:04Z</time>
      </trkpt>
      <trkpt lat="42.6726080" lon="-8.6330170">
        <ele>117.5</ele>
        <time>2021-05-23T07:48:05Z</time>
      </trkpt>
      <trkpt lat="42.6726170" lon="-8.6330180">
        <ele>117.6</ele>
        <time>2021-05-23T07:48:06Z</time>
      </trkpt>
      <trkpt lat="42.6726270" lon="-8.6330180">
        <ele>117.7</ele>
        <time>2021-05-23T07:48:07Z</time>
      </trkpt>
      <trkpt lat="42.6726400" lon="-8.6330130">
        <ele>117.9</ele>
        <time>2021-05-23T07:48:08Z</time>
      </trkpt>
      <trkpt lat="42.6726520" lon="-8.6330130">
        <ele>118.1</ele>
        <time>2021-05-23T07:48:09Z</time>
      </trkpt>
      <trkpt lat="42.6726630" lon="-8.6330140">
        <ele>118.2</ele>
        <time>2021-05-23T07:48:10Z</time>
      </trkpt>
      <trkpt lat="42.6726690" lon="-8.6330170">
        <ele>118.3</ele>
        <time>2021-05-23T07:48:11Z</time>
      </trkpt>
      <trkpt lat="42.6726740" lon="-8.6330210">
        <ele>118.4</ele>
        <time>2021-05-23T07:48:12Z</time>
      </trkpt>
      <trkpt lat="42.6726880" lon="-8.6330220">
        <ele>118.6</ele>
        <time>2021-05-23T07:48:13Z</time>
      </trkpt>
      <trkpt lat="42.6727020" lon="-8.6330230">
        <ele>118.7</ele>
        <time>2021-05-23T07:48:14Z</time>
      </trkpt>
      <trkpt lat="42.6727100" lon="-8.6330220">
        <ele>118.8</ele>
        <time>2021-05-23T07:48:15Z</time>
      </trkpt>
      <trkpt lat="42.6727210" lon="-8.6330260">
        <ele>118.9</ele>
        <time>2021-05-23T07:48:16Z</time>
      </trkpt>
      <trkpt lat="42.6727310" lon="-8.6330240">
        <ele>119.0</ele>
        <time>2021-05-23T07:48:17Z</time>
      </trkpt>
      <trkpt lat="42.6727400" lon="-8.6330310">
        <ele>119.1</ele>
        <time>2021-05-23T07:48:18Z</time>
      </trkpt>
      <trkpt lat="42.6727440" lon="-8.6330250">
        <ele>119.2</ele>
        <time>2021-05-23T07:48:19Z</time>
      </trkpt>
      <trkpt lat="42.6727590" lon="-8.6330290">
        <ele>119.3</ele>
        <time>2021-05-23T07:48:20Z</time>
      </trkpt>
      <trkpt lat="42.6727650" lon="-8.6330330">
        <ele>119.4</ele>
        <time>2021-05-23T07:48:21Z</time>
      </trkpt>
      <trkpt lat="42.6727800" lon="-8.6330380">
        <ele>119.5</ele>
        <time>2021-05-23T07:48:22Z</time>
      </trkpt>
      <trkpt lat="42.6727920" lon="-8.6330410">
        <ele>119.6</ele>
        <time>2021-05-23T07:48:23Z</time>
      </trkpt>
      <trkpt lat="42.6728130" lon="-8.6330390">
        <ele>119.7</ele>
        <time>2021-05-23T07:48:24Z</time>
      </trkpt>
      <trkpt lat="42.6728210" lon="-8.6330370">
        <ele>119.8</ele>
        <time>2021-05-23T07:48:25Z</time>
      </trkpt>
      <trkpt lat="42.6728290" lon="-8.6330350">
        <ele>119.8</ele>
        <time>2021-05-23T07:48:26Z</time>
      </trkpt>
      <trkpt lat="42.6728480" lon="-8.6330380">
        <ele>119.9</ele>
        <time>2021-05-23T07:48:27Z</time>
      </trkpt>
      <trkpt lat="42.6728600" lon="-8.6330450">
        <ele>120.0</ele>
        <time>2021-05-23T07:48:28Z</time>
      </trkpt>
      <trkpt lat="42.6728790" lon="-8.6330500">
        <ele>120.1</ele>
        <time>2021-05-23T07:48:29Z</time>
      </trkpt>
      <trkpt lat="42.6728890" lon="-8.6330540">
        <ele>120.1</ele>
        <time>2021-05-23T07:48:30Z</time>
      </trkpt>
      <trkpt lat="42.6729000" lon="-8.6330580">
        <ele>120.2</ele>
        <time>2021-05-23T07:48:31Z</time>
      </trkpt>
      <trkpt lat="42.6729190" lon="-8.6330680">
        <ele>120.2</ele>
        <time>2021-05-23T07:48:32Z</time>
      </trkpt>
      <trkpt lat="42.6729270" lon="-8.6330720">
        <ele>120.3</ele>
        <time>2021-05-23T07:48:33Z</time>
      </trkpt>
      <trkpt lat="42.6729340" lon="-8.6330760">
        <ele>120.3</ele>
        <time>2021-05-23T07:48:34Z</time>
      </trkpt>
      <trkpt lat="42.6729470" lon="-8.6330860">
        <ele>120.3</ele>
        <time>2021-05-23T07:48:35Z</time>
      </trkpt>
      <trkpt lat="42.6729620" lon="-8.6330890">
        <ele>120.4</ele>
        <time>2021-05-23T07:48:36Z</time>
      </trkpt>
      <trkpt lat="42.6729840" lon="-8.6331020">
        <ele>120.4</ele>
        <time>2021-05-23T07:48:37Z</time>
      </trkpt>
      <trkpt lat="42.6729940" lon="-8.6331080">
        <ele>120.5</ele>
        <time>2021-05-23T07:48:38Z</time>
      </trkpt>
      <trkpt lat="42.6730030" lon="-8.6331140">
        <ele>120.5</ele>
        <time>2021-05-23T07:48:39Z</time>
      </trkpt>
      <trkpt lat="42.6730140" lon="-8.6331200">
        <ele>120.5</ele>
        <time>2021-05-23T07:48:40Z</time>
      </trkpt>
      <trkpt lat="42.6730300" lon="-8.6331220">
        <ele>120.6</ele>
        <time>2021-05-23T07:48:41Z</time>
      </trkpt>
      <trkpt lat="42.6730440" lon="-8.6331220">
        <ele>120.6</ele>
        <time>2021-05-23T07:48:42Z</time>
      </trkpt>
      <trkpt lat="42.6730500" lon="-8.6331250">
        <ele>120.6</ele>
        <time>2021-05-23T07:48:43Z</time>
      </trkpt>
      <trkpt lat="42.6730550" lon="-8.6331390">
        <ele>120.7</ele>
        <time>2021-05-23T07:48:44Z</time>
      </trkpt>
      <trkpt lat="42.6730680" lon="-8.6331490">
        <ele>120.7</ele>
        <time>2021-05-23T07:48:45Z</time>
      </trkpt>
      <trkpt lat="42.6730750" lon="-8.6331470">
        <ele>120.7</ele>
        <time>2021-05-23T07:48:46Z</time>
      </trkpt>
      <trkpt lat="42.6730830" lon="-8.6331480">
        <ele>120.8</ele>
        <time>2021-05-23T07:48:47Z</time>
      </trkpt>
      <trkpt lat="42.6730910" lon="-8.6331530">
        <ele>120.8</ele>
        <time>2021-05-23T07:48:48Z</time>
      </trkpt>
      <trkpt lat="42.6731040" lon="-8.6331630">
        <ele>120.8</ele>
        <time>2021-05-23T07:48:49Z</time>
      </trkpt>
      <trkpt lat="42.6731180" lon="-8.6331610">
        <ele>120.9</ele>
        <time>2021-05-23T07:48:50Z</time>
      </trkpt>
      <trkpt lat="42.6731330" lon="-8.6331700">
        <ele>120.9</ele>
        <time>2021-05-23T07:48:51Z</time>
      </trkpt>
      <trkpt lat="42.6731430" lon="-8.6331740">
        <ele>121.0</ele>
        <time>2021-05-23T07:48:52Z</time>
      </trkpt>
      <trkpt lat="42.6731520" lon="-8.6331790">
        <ele>121.0</ele>
        <time>2021-05-23T07:48:53Z</time>
      </trkpt>
      <trkpt lat="42.6731630" lon="-8.6331900">
        <ele>121.0</ele>
        <time>2021-05-23T07:48:54Z</time>
      </trkpt>
      <trkpt lat="42.6731740" lon="-8.6332030">
        <ele>121.0</ele>
        <time>2021-05-23T07:48:55Z</time>
      </trkpt>
      <trkpt lat="42.6731890" lon="-8.6332120">
        <ele>121.1</ele>
        <time>2021-05-23T07:48:56Z</time>
      </trkpt>
      <trkpt lat="42.6732000" lon="-8.6332170">
        <ele>121.1</ele>
        <time>2021-05-23T07:48:57Z</time>
      </trkpt>
      <trkpt lat="42.6732100" lon="-8.6332220">
        <ele>121.1</ele>
        <time>2021-05-23T07:48:58Z</time>
      </trkpt>
      <trkpt lat="42.6732200" lon="-8.6332280">
        <ele>121.1</ele>
        <time>2021-05-23T07:48:59Z</time>
      </trkpt>
      <trkpt lat="42.6732280" lon="-8.6332300">
        <ele>121.2</ele>
        <time>2021-05-23T07:49:00Z</time>
      </trkpt>
      <trkpt lat="42.6732420" lon="-8.6332330">
        <ele>121.2</ele>
        <time>2021-05-23T07:49:01Z</time>
      </trkpt>
      <trkpt lat="42.6732560" lon="-8.6332360">
        <ele>121.2</ele>
        <time>2021-05-23T07:49:02Z</time>
      </trkpt>
      <trkpt lat="42.6732670" lon="-8.6332410">
        <ele>121.2</ele>
        <time>2021-05-23T07:49:03Z</time>
      </trkpt>
      <trkpt lat="42.6732740" lon="-8.6332390">
        <ele>121.2</ele>
        <time>2021-05-23T07:49:04Z</time>
      </trkpt>
      <trkpt lat="42.6732900" lon="-8.6332450">
        <ele>121.3</ele>
        <time>2021-05-23T07:49:05Z</time>
      </trkpt>
      <trkpt lat="42.6733060" lon="-8.6332440">
        <ele>121.3</ele>
        <time>2021-05-23T07:49:06Z</time>
      </trkpt>
      <trkpt lat="42.6733270" lon="-8.6332550">
        <ele>121.3</ele>
        <time>2021-05-23T07:49:07Z</time>
      </trkpt>
      <trkpt lat="42.6733370" lon="-8.6332560">
        <ele>121.3</ele>
        <time>2021-05-23T07:49:08Z</time>
      </trkpt>
      <trkpt lat="42.6733460" lon="-8.6332580">
        <ele>121.3</ele>
        <time>2021-05-23T07:49:09Z</time>
      </trkpt>
      <trkpt lat="42.6733510" lon="-8.6332530">
        <ele>121.3</ele>
        <time>2021-05-23T07:49:10Z</time>
      </trkpt>
      <trkpt lat="42.6733490" lon="-8.6332580">
        <ele>121.3</ele>
        <time>2021-05-23T07:49:11Z</time>
      </trkpt>
      <trkpt lat="42.6733520" lon="-8.6332660">
        <ele>121.3</ele>
        <time>2021-05-23T07:49:12Z</time>
      </trkpt>
      <trkpt lat="42.6733710" lon="-8.6332670">
        <ele>121.4</ele>
        <time>2021-05-23T07:49:13Z</time>
      </trkpt>
      <trkpt lat="42.6733790" lon="-8.6332730">
        <ele>121.4</ele>
        <time>2021-05-23T07:49:14Z</time>
      </trkpt>
      <trkpt lat="42.6733880" lon="-8.6332630">
        <ele>121.4</ele>
        <time>2021-05-23T07:49:15Z</time>
      </trkpt>
      <trkpt lat="42.6734060" lon="-8.6332600">
        <ele>121.4</ele>
        <time>2021-05-23T07:49:16Z</time>
      </trkpt>
      <trkpt lat="42.6734120" lon="-8.6332570">
        <ele>121.4</ele>
        <time>2021-05-23T07:49:17Z</time>
      </trkpt>
      <trkpt lat="42.6734320" lon="-8.6332640">
        <ele>121.4</ele>
        <time>2021-05-23T07:49:18Z</time>
      </trkpt>
      <trkpt lat="42.6734390" lon="-8.6332660">
        <ele>121.4</ele>
        <time>2021-05-23T07:49:19Z</time>
      </trkpt>
      <trkpt lat="42.6734480" lon="-8.6332650">
        <ele>121.4</ele>
        <time>2021-05-23T07:49:20Z</time>
      </trkpt>
      <trkpt lat="42.6734630" lon="-8.6332590">
        <ele>121.5</ele>
        <time>2021-05-23T07:49:21Z</time>
      </trkpt>
      <trkpt lat="42.6734710" lon="-8.6332580">
        <ele>121.5</ele>
        <time>2021-05-23T07:49:22Z</time>
      </trkpt>
      <trkpt lat="42.6734800" lon="-8.6332610">
        <ele>121.5</ele>
        <time>2021-05-23T07:49:23Z</time>
      </trkpt>
      <trkpt lat="42.6734900" lon="-8.6332610">
        <ele>121.5</ele>
        <time>2021-05-23T07:49:24Z</time>
      </trkpt>
      <trkpt lat="42.6734990" lon="-8.6332620">
        <ele>121.5</ele>
        <time>2021-05-23T07:49:25Z</time>
      </trkpt>
      <trkpt lat="42.6735090" lon="-8.6332620">
        <ele>121.5</ele>
        <time>2021-05-23T07:49:26Z</time>
      </trkpt>
      <trkpt lat="42.6735330" lon="-8.6332560">
        <ele>121.5</ele>
        <time>2021-05-23T07:49:27Z</time>
      </trkpt>
      <trkpt lat="42.6735400" lon="-8.6332580">
        <ele>121.5</ele>
        <time>2021-05-23T07:49:28Z</time>
      </trkpt>
      <trkpt lat="42.6735470" lon="-8.6332610">
        <ele>121.6</ele>
        <time>2021-05-23T07:49:29Z</time>
      </trkpt>
      <trkpt lat="42.6735630" lon="-8.6332640">
        <ele>121.6</ele>
        <time>2021-05-23T07:49:30Z</time>
      </trkpt>
      <trkpt lat="42.6735780" lon="-8.6332660">
        <ele>121.6</ele>
        <time>2021-05-23T07:49:31Z</time>
      </trkpt>
      <trkpt lat="42.6736020" lon="-8.6332740">
        <ele>121.6</ele>
        <time>2021-05-23T07:49:32Z</time>
      </trkpt>
      <trkpt lat="42.6736130" lon="-8.6332800">
        <ele>121.6</ele>
        <time>2021-05-23T07:49:33Z</time>
      </trkpt>
      <trkpt lat="42.6736320" lon="-8.6332770">
        <ele>121.6</ele>
        <time>2021-05-23T07:49:34Z</time>
      </trkpt>
      <trkpt lat="42.6736410" lon="-8.6332740">
        <ele>121.6</ele>
        <time>2021-05-23T07:49:35Z</time>
      </trkpt>
      <trkpt lat="42.6736550" lon="-8.6332750">
        <ele>121.7</ele>
        <time>2021-05-23T07:49:36Z</time>
      </trkpt>
      <trkpt lat="42.6736720" lon="-8.6332730">
        <ele>121.7</ele>
        <time>2021-05-23T07:49:37Z</time>
      </trkpt>
      <trkpt lat="42.6736960" lon="-8.6332750">
        <ele>121.7</ele>
        <time>2021-05-23T07:49:38Z</time>
      </trkpt>
      <trkpt lat="42.6737020" lon="-8.6332750">
        <ele>121.7</ele>
        <time>2021-05-23T07:49:39Z</time>
      </trkpt>
      <trkpt lat="42.6737090" lon="-8.6332760">
        <ele>121.7</ele>
        <time>2021-05-23T07:49:40Z</time>
      </trkpt>
      <trkpt lat="42.6737210" lon="-8.6332790">
        <ele>121.7</ele>
        <time>2021-05-23T07:49:41Z</time>
      </trkpt>
      <trkpt lat="42.6737380" lon="-8.6332800">
        <ele>121.8</ele>
        <time>2021-05-23T07:49:42Z</time>
      </trkpt>
      <trkpt lat="42.6737600" lon="-8.6332740">
        <ele>121.8</ele>
        <time>2021-05-23T07:49:43Z</time>
      </trkpt>
      <trkpt lat="42.6737680" lon="-8.6332730">
        <ele>121.8</ele>
        <time>2021-05-23T07:49:44Z</time>
      </trkpt>
      <trkpt lat="42.6737760" lon="-8.6332710">
        <ele>121.8</ele>
        <time>2021-05-23T07:49:45Z</time>
      </trkpt>
      <trkpt lat="42.6737900" lon="-8.6332690">
        <ele>121.8</ele>
        <time>2021-05-23T07:49:46Z</time>
      </trkpt>
      <trkpt lat="42.6738100" lon="-8.6332700">
        <ele>121.8</ele>
        <time>2021-05-23T07:49:47Z</time>
      </trkpt>
      <trkpt lat="42.6738320" lon="-8.6332730">
        <ele>121.9</ele>
        <time>2021-05-23T07:49:48Z</time>
      </trkpt>
      <trkpt lat="42.6738420" lon="-8.6332750">
        <ele>121.9</ele>
        <time>2021-05-23T07:49:49Z</time>
      </trkpt>
      <trkpt lat="42.6738530" lon="-8.6332770">
        <ele>121.9</ele>
        <time>2021-05-23T07:49:50Z</time>
      </trkpt>
      <trkpt lat="42.6738770" lon="-8.6332740">
        <ele>122.0</ele>
        <time>2021-05-23T07:49:51Z</time>
      </trkpt>
      <trkpt lat="42.6738860" lon="-8.6332740">
        <ele>122.0</ele>
        <time>2021-05-23T07:49:52Z</time>
      </trkpt>
      <trkpt lat="42.6738940" lon="-8.6332730">
        <ele>122.0</ele>
        <time>2021-05-23T07:49:53Z</time>
      </trkpt>
      <trkpt lat="42.6739080" lon="-8.6332740">
        <ele>122.0</ele>
        <time>2021-05-23T07:49:54Z</time>
      </trkpt>
      <trkpt lat="42.6739270" lon="-8.6332760">
        <ele>122.0</ele>
        <time>2021-05-23T07:49:55Z</time>
      </trkpt>
      <trkpt lat="42.6739390" lon="-8.6332750">
        <ele>122.0</ele>
        <time>2021-05-23T07:49:56Z</time>
      </trkpt>
      <trkpt lat="42.6739590" lon="-8.6332800">
        <ele>122.1</ele>
        <time>2021-05-23T07:49:57Z</time>
      </trkpt>
      <trkpt lat="42.6739800" lon="-8.6332850">
        <ele>122.1</ele>
        <time>2021-05-23T07:49:58Z</time>
      </trkpt>
      <trkpt lat="42.6739890" lon="-8.6332850">
        <ele>122.1</ele>
        <time>2021-05-23T07:49:59Z</time>
      </trkpt>
      <trkpt lat="42.6739970" lon="-8.6332850">
        <ele>122.2</ele>
        <time>2021-05-23T07:50:00Z</time>
      </trkpt>
      <trkpt lat="42.6740190" lon="-8.6332890">
        <ele>122.2</ele>
        <time>2021-05-23T07:50:01Z</time>
      </trkpt>
      <trkpt lat="42.6740300" lon="-8.6332890">
        <ele>122.2</ele>
        <time>2021-05-23T07:50:02Z</time>
      </trkpt>
      <trkpt lat="42.6740420" lon="-8.6332880">
        <ele>122.2</ele>
        <time>2021-05-23T07:50:03Z</time>
      </trkpt>
      <trkpt lat="42.6740510" lon="-8.6332930">
        <ele>122.3</ele>
        <time>2021-05-23T07:50:04Z</time>
      </trkpt>
      <trkpt lat="42.6740590" lon="-8.6332940">
        <ele>122.3</ele>
        <time>2021-05-23T07:50:05Z</time>
      </trkpt>
      <trkpt lat="42.6740770" lon="-8.6332950">
        <ele>122.3</ele>
        <time>2021-05-23T07:50:06Z</time>
      </trkpt>
      <trkpt lat="42.6740980" lon="-8.6332960">
        <ele>122.4</ele>
        <time>2021-05-23T07:50:07Z</time>
      </trkpt>
      <trkpt lat="42.6741070" lon="-8.6332950">
        <ele>122.4</ele>
        <time>2021-05-23T07:50:08Z</time>
      </trkpt>
      <trkpt lat="42.6741170" lon="-8.6332930">
        <ele>122.4</ele>
        <time>2021-05-23T07:50:09Z</time>
      </trkpt>
      <trkpt lat="42.6741350" lon="-8.6332990">
        <ele>122.5</ele>
        <time>2021-05-23T07:50:10Z</time>
      </trkpt>
      <trkpt lat="42.6741440" lon="-8.6333060">
        <ele>122.5</ele>
        <time>2021-05-23T07:50:11Z</time>
      </trkpt>
      <trkpt lat="42.6741610" lon="-8.6333120">
        <ele>122.6</ele>
        <time>2021-05-23T07:50:12Z</time>
      </trkpt>
      <trkpt lat="42.6741730" lon="-8.6333150">
        <ele>122.6</ele>
        <time>2021-05-23T07:50:13Z</time>
      </trkpt>
      <trkpt lat="42.6741920" lon="-8.6333120">
        <ele>122.6</ele>
        <time>2021-05-23T07:50:14Z</time>
      </trkpt>
      <trkpt lat="42.6742070" lon="-8.6333110">
        <ele>122.7</ele>
        <time>2021-05-23T07:50:15Z</time>
      </trkpt>
      <trkpt lat="42.6742210" lon="-8.6333100">
        <ele>122.7</ele>
        <time>2021-05-23T07:50:16Z</time>
      </trkpt>
      <trkpt lat="42.6742380" lon="-8.6333100">
        <ele>122.8</ele>
        <time>2021-05-23T07:50:17Z</time>
      </trkpt>
      <trkpt lat="42.6742440" lon="-8.6333220">
        <ele>122.8</ele>
        <time>2021-05-23T07:50:18Z</time>
      </trkpt>
      <trkpt lat="42.6742530" lon="-8.6333260">
        <ele>122.9</ele>
        <time>2021-05-23T07:50:19Z</time>
      </trkpt>
      <trkpt lat="42.6742540" lon="-8.6333270">
        <ele>122.9</ele>
        <time>2021-05-23T07:50:20Z</time>
      </trkpt>
      <trkpt lat="42.6742550" lon="-8.6333280">
        <ele>122.9</ele>
        <time>2021-05-23T07:50:21Z</time>
      </trkpt>
      <trkpt lat="42.6742710" lon="-8.6333340">
        <ele>122.9</ele>
        <time>2021-05-23T07:50:22Z</time>
      </trkpt>
      <trkpt lat="42.6742860" lon="-8.6333370">
        <ele>123.0</ele>
        <time>2021-05-23T07:50:23Z</time>
      </trkpt>
      <trkpt lat="42.6742910" lon="-8.6333440">
        <ele>123.0</ele>
        <time>2021-05-23T07:50:24Z</time>
      </trkpt>
      <trkpt lat="42.6743000" lon="-8.6333440">
        <ele>123.1</ele>
        <time>2021-05-23T07:50:25Z</time>
      </trkpt>
      <trkpt lat="42.6743140" lon="-8.6333470">
        <ele>123.1</ele>
        <time>2021-05-23T07:50:26Z</time>
      </trkpt>
      <trkpt lat="42.6743290" lon="-8.6333450">
        <ele>123.2</ele>
        <time>2021-05-23T07:50:27Z</time>
      </trkpt>
      <trkpt lat="42.6743410" lon="-8.6333450">
        <ele>123.2</ele>
        <time>2021-05-23T07:50:28Z</time>
      </trkpt>
      <trkpt lat="42.6743570" lon="-8.6333590">
        <ele>123.3</ele>
        <time>2021-05-23T07:50:29Z</time>
      </trkpt>
      <trkpt lat="42.6743670" lon="-8.6333620">
        <ele>123.4</ele>
        <time>2021-05-23T07:50:30Z</time>
      </trkpt>
      <trkpt lat="42.6743760" lon="-8.6333650">
        <ele>123.4</ele>
        <time>2021-05-23T07:50:31Z</time>
      </trkpt>
      <trkpt lat="42.6743900" lon="-8.6333620">
        <ele>123.5</ele>
        <time>2021-05-23T07:50:32Z</time>
      </trkpt>
      <trkpt lat="42.6744030" lon="-8.6333760">
        <ele>123.5</ele>
        <time>2021-05-23T07:50:33Z</time>
      </trkpt>
      <trkpt lat="42.6744210" lon="-8.6333850">
        <ele>123.6</ele>
        <time>2021-05-23T07:50:34Z</time>
      </trkpt>
      <trkpt lat="42.6744300" lon="-8.6333900">
        <ele>123.7</ele>
        <time>2021-05-23T07:50:35Z</time>
      </trkpt>
      <trkpt lat="42.6744400" lon="-8.6333940">
        <ele>123.7</ele>
        <time>2021-05-23T07:50:36Z</time>
      </trkpt>
      <trkpt lat="42.6744590" lon="-8.6334100">
        <ele>123.8</ele>
        <time>2021-05-23T07:50:37Z</time>
      </trkpt>
      <trkpt lat="42.6744690" lon="-8.6334170">
        <ele>123.9</ele>
        <time>2021-05-23T07:50:38Z</time>
      </trkpt>
      <trkpt lat="42.6744780" lon="-8.6334230">
        <ele>123.9</ele>
        <time>2021-05-23T07:50:39Z</time>
      </trkpt>
      <trkpt lat="42.6744990" lon="-8.6334270">
        <ele>124.0</ele>
        <time>2021-05-23T07:50:40Z</time>
      </trkpt>
      <trkpt lat="42.6745070" lon="-8.6334350">
        <ele>124.1</ele>
        <time>2021-05-23T07:50:41Z</time>
      </trkpt>
      <trkpt lat="42.6745220" lon="-8.6334420">
        <ele>124.2</ele>
        <time>2021-05-23T07:50:42Z</time>
      </trkpt>
      <trkpt lat="42.6745380" lon="-8.6334480">
        <ele>124.3</ele>
        <time>2021-05-23T07:50:43Z</time>
      </trkpt>
      <trkpt lat="42.6745540" lon="-8.6334560">
        <ele>124.4</ele>
        <time>2021-05-23T07:50:44Z</time>
      </trkpt>
      <trkpt lat="42.6745680" lon="-8.6334720">
        <ele>124.5</ele>
        <time>2021-05-23T07:50:45Z</time>
      </trkpt>
      <trkpt lat="42.6745840" lon="-8.6334820">
        <ele>124.6</ele>
        <time>2021-05-23T07:50:46Z</time>
      </trkpt>
      <trkpt lat="42.6745950" lon="-8.6334900">
        <ele>124.6</ele>
        <time>2021-05-23T07:50:47Z</time>
      </trkpt>
      <trkpt lat="42.6746110" lon="-8.6335090">
        <ele>124.8</ele>
        <time>2021-05-23T07:50:48Z</time>
      </trkpt>
      <trkpt lat="42.6746190" lon="-8.6335170">
        <ele>124.8</ele>
        <time>2021-05-23T07:50:49Z</time>
      </trkpt>
      <trkpt lat="42.6746270" lon="-8.6335250">
        <ele>124.9</ele>
        <time>2021-05-23T07:50:50Z</time>
      </trkpt>
      <trkpt lat="42.6746400" lon="-8.6335380">
        <ele>125.0</ele>
        <time>2021-05-23T07:50:51Z</time>
      </trkpt>
      <trkpt lat="42.6746480" lon="-8.6335500">
        <ele>125.1</ele>
        <time>2021-05-23T07:50:52Z</time>
      </trkpt>
      <trkpt lat="42.6746660" lon="-8.6335630">
        <ele>125.2</ele>
        <time>2021-05-23T07:50:53Z</time>
      </trkpt>
      <trkpt lat="42.6746770" lon="-8.6335760">
        <ele>125.3</ele>
        <time>2021-05-23T07:50:54Z</time>
      </trkpt>
      <trkpt lat="42.6746870" lon="-8.6335880">
        <ele>125.4</ele>
        <time>2021-05-23T07:50:55Z</time>
      </trkpt>
      <trkpt lat="42.6746940" lon="-8.6336000">
        <ele>125.4</ele>
        <time>2021-05-23T07:50:56Z</time>
      </trkpt>
      <trkpt lat="42.6746980" lon="-8.6336140">
        <ele>125.5</ele>
        <time>2021-05-23T07:50:57Z</time>
      </trkpt>
      <trkpt lat="42.6747090" lon="-8.6336360">
        <ele>125.6</ele>
        <time>2021-05-23T07:50:58Z</time>
      </trkpt>
      <trkpt lat="42.6747130" lon="-8.6336470">
        <ele>125.7</ele>
        <time>2021-05-23T07:50:59Z</time>
      </trkpt>
      <trkpt lat="42.6747160" lon="-8.6336580">
        <ele>125.7</ele>
        <time>2021-05-23T07:51:00Z</time>
      </trkpt>
      <trkpt lat="42.6747250" lon="-8.6336780">
        <ele>125.8</ele>
        <time>2021-05-23T07:51:01Z</time>
      </trkpt>
      <trkpt lat="42.6747280" lon="-8.6336930">
        <ele>125.9</ele>
        <time>2021-05-23T07:51:02Z</time>
      </trkpt>
      <trkpt lat="42.6747360" lon="-8.6337090">
        <ele>126.0</ele>
        <time>2021-05-23T07:51:03Z</time>
      </trkpt>
      <trkpt lat="42.6747470" lon="-8.6337240">
        <ele>126.1</ele>
        <time>2021-05-23T07:51:04Z</time>
      </trkpt>
      <trkpt lat="42.6747500" lon="-8.6337500">
        <ele>126.2</ele>
        <time>2021-05-23T07:51:05Z</time>
      </trkpt>
      <trkpt lat="42.6747510" lon="-8.6337610">
        <ele>126.2</ele>
        <time>2021-05-23T07:51:06Z</time>
      </trkpt>
      <trkpt lat="42.6747520" lon="-8.6337720">
        <ele>126.3</ele>
        <time>2021-05-23T07:51:07Z</time>
      </trkpt>
      <trkpt lat="42.6747500" lon="-8.6337970">
        <ele>126.4</ele>
        <time>2021-05-23T07:51:08Z</time>
      </trkpt>
      <trkpt lat="42.6747520" lon="-8.6338100">
        <ele>126.4</ele>
        <time>2021-05-23T07:51:09Z</time>
      </trkpt>
      <trkpt lat="42.6747510" lon="-8.6338190">
        <ele>126.5</ele>
        <time>2021-05-23T07:51:10Z</time>
      </trkpt>
      <trkpt lat="42.6747530" lon="-8.6338390">
        <ele>126.5</ele>
        <time>2021-05-23T07:51:11Z</time>
      </trkpt>
      <trkpt lat="42.6747560" lon="-8.6338500">
        <ele>126.6</ele>
        <time>2021-05-23T07:51:12Z</time>
      </trkpt>
      <trkpt lat="42.6747540" lon="-8.6338680">
        <ele>126.7</ele>
        <time>2021-05-23T07:51:13Z</time>
      </trkpt>
      <trkpt lat="42.6747510" lon="-8.6338790">
        <ele>126.7</ele>
        <time>2021-05-23T07:51:14Z</time>
      </trkpt>
      <trkpt lat="42.6747550" lon="-8.6338980">
        <ele>126.8</ele>
        <time>2021-05-23T07:51:15Z</time>
      </trkpt>
      <trkpt lat="42.6747620" lon="-8.6339100">
        <ele>126.8</ele>
        <time>2021-05-23T07:51:16Z</time>
      </trkpt>
      <trkpt lat="42.6747560" lon="-8.6339170">
        <ele>126.9</ele>
        <time>2021-05-23T07:51:17Z</time>
      </trkpt>
      <trkpt lat="42.6747570" lon="-8.6339370">
        <ele>126.9</ele>
        <time>2021-05-23T07:51:18Z</time>
      </trkpt>
      <trkpt lat="42.6747540" lon="-8.6339570">
        <ele>127.0</ele>
        <time>2021-05-23T07:51:19Z</time>
      </trkpt>
      <trkpt lat="42.6747510" lon="-8.6339760">
        <ele>127.0</ele>
        <time>2021-05-23T07:51:20Z</time>
      </trkpt>
      <trkpt lat="42.6747510" lon="-8.6339880">
        <ele>127.1</ele>
        <time>2021-05-23T07:51:21Z</time>
      </trkpt>
      <trkpt lat="42.6747510" lon="-8.6340000">
        <ele>127.1</ele>
        <time>2021-05-23T07:51:22Z</time>
      </trkpt>
      <trkpt lat="42.6747490" lon="-8.6340180">
        <ele>127.2</ele>
        <time>2021-05-23T07:51:23Z</time>
      </trkpt>
      <trkpt lat="42.6747490" lon="-8.6340340">
        <ele>127.2</ele>
        <time>2021-05-23T07:51:24Z</time>
      </trkpt>
      <trkpt lat="42.6747520" lon="-8.6340460">
        <ele>127.3</ele>
        <time>2021-05-23T07:51:25Z</time>
      </trkpt>
      <trkpt lat="42.6747430" lon="-8.6340620">
        <ele>127.3</ele>
        <time>2021-05-23T07:51:26Z</time>
      </trkpt>
      <trkpt lat="42.6747540" lon="-8.6340780">
        <ele>127.4</ele>
        <time>2021-05-23T07:51:27Z</time>
      </trkpt>
      <trkpt lat="42.6747550" lon="-8.6341010">
        <ele>127.4</ele>
        <time>2021-05-23T07:51:28Z</time>
      </trkpt>
      <trkpt lat="42.6747540" lon="-8.6341180">
        <ele>127.5</ele>
        <time>2021-05-23T07:51:29Z</time>
      </trkpt>
      <trkpt lat="42.6747490" lon="-8.6341400">
        <ele>127.5</ele>
        <time>2021-05-23T07:51:30Z</time>
      </trkpt>
      <trkpt lat="42.6747490" lon="-8.6341720">
        <ele>127.6</ele>
        <time>2021-05-23T07:51:31Z</time>
      </trkpt>
      <trkpt lat="42.6747490" lon="-8.6341820">
        <ele>127.7</ele>
        <time>2021-05-23T07:51:32Z</time>
      </trkpt>
      <trkpt lat="42.6747500" lon="-8.6341930">
        <ele>127.7</ele>
        <time>2021-05-23T07:51:33Z</time>
      </trkpt>
      <trkpt lat="42.6747540" lon="-8.6342080">
        <ele>127.7</ele>
        <time>2021-05-23T07:51:34Z</time>
      </trkpt>
      <trkpt lat="42.6747500" lon="-8.6342220">
        <ele>127.8</ele>
        <time>2021-05-23T07:51:35Z</time>
      </trkpt>
      <trkpt lat="42.6747580" lon="-8.6342370">
        <ele>127.8</ele>
        <time>2021-05-23T07:51:36Z</time>
      </trkpt>
      <trkpt lat="42.6747580" lon="-8.6342530">
        <ele>127.9</ele>
        <time>2021-05-23T07:51:37Z</time>
      </trkpt>
      <trkpt lat="42.6747570" lon="-8.6342650">
        <ele>127.9</ele>
        <time>2021-05-23T07:51:38Z</time>
      </trkpt>
      <trkpt lat="42.6747570" lon="-8.6342760">
        <ele>127.9</ele>
        <time>2021-05-23T07:51:39Z</time>
      </trkpt>
      <trkpt lat="42.6747560" lon="-8.6342870">
        <ele>128.0</ele>
        <time>2021-05-23T07:51:40Z</time>
      </trkpt>
      <trkpt lat="42.6747530" lon="-8.6343040">
        <ele>128.0</ele>
        <time>2021-05-23T07:51:41Z</time>
      </trkpt>
      <trkpt lat="42.6747520" lon="-8.6343230">
        <ele>128.1</ele>
        <time>2021-05-23T07:51:42Z</time>
      </trkpt>
      <trkpt lat="42.6747500" lon="-8.6343390">
        <ele>128.1</ele>
        <time>2021-05-23T07:51:43Z</time>
      </trkpt>
      <trkpt lat="42.6747470" lon="-8.6343430">
        <ele>128.1</ele>
        <time>2021-05-23T07:51:44Z</time>
      </trkpt>
      <trkpt lat="42.6747500" lon="-8.6343600">
        <ele>128.2</ele>
        <time>2021-05-23T07:51:45Z</time>
      </trkpt>
      <trkpt lat="42.6747530" lon="-8.6343860">
        <ele>128.3</ele>
        <time>2021-05-23T07:51:46Z</time>
      </trkpt>
      <trkpt lat="42.6747560" lon="-8.6343970">
        <ele>128.3</ele>
        <time>2021-05-23T07:51:47Z</time>
      </trkpt>
      <trkpt lat="42.6747580" lon="-8.6344090">
        <ele>128.3</ele>
        <time>2021-05-23T07:51:48Z</time>
      </trkpt>
      <trkpt lat="42.6747580" lon="-8.6344320">
        <ele>128.4</ele>
        <time>2021-05-23T07:51:49Z</time>
      </trkpt>
      <trkpt lat="42.6747580" lon="-8.6344430">
        <ele>128.4</ele>
        <time>2021-05-23T07:51:50Z</time>
      </trkpt>
      <trkpt lat="42.6747570" lon="-8.6344530">
        <ele>128.4</ele>
        <time>2021-05-23T07:51:51Z</time>
      </trkpt>
      <trkpt lat="42.6747560" lon="-8.6344640">
        <ele>128.5</ele>
        <time>2021-05-23T07:51:52Z</time>
      </trkpt>
      <trkpt lat="42.6747640" lon="-8.6344940">
        <ele>128.6</ele>
        <time>2021-05-23T07:51:53Z</time>
      </trkpt>
      <trkpt lat="42.6747650" lon="-8.6345020">
        <ele>128.6</ele>
        <time>2021-05-23T07:51:54Z</time>
      </trkpt>
      <trkpt lat="42.6747660" lon="-8.6345110">
        <ele>128.6</ele>
        <time>2021-05-23T07:51:55Z</time>
      </trkpt>
      <trkpt lat="42.6747670" lon="-8.6345410">
        <ele>128.7</ele>
        <time>2021-05-23T07:51:56Z</time>
      </trkpt>
      <trkpt lat="42.6747680" lon="-8.6345530">
        <ele>128.8</ele>
        <time>2021-05-23T07:51:57Z</time>
      </trkpt>
      <trkpt lat="42.6747690" lon="-8.6345660">
        <ele>128.8</ele>
        <time>2021-05-23T07:51:58Z</time>
      </trkpt>
      <trkpt lat="42.6747630" lon="-8.6345870">
        <ele>128.9</ele>
        <time>2021-05-23T07:51:59Z</time>
      </trkpt>
      <trkpt lat="42.6747640" lon="-8.6346050">
        <ele>128.9</ele>
        <time>2021-05-23T07:52:00Z</time>
      </trkpt>
      <trkpt lat="42.6747580" lon="-8.6346110">
        <ele>128.9</ele>
        <time>2021-05-23T07:52:01Z</time>
      </trkpt>
      <trkpt lat="42.6747600" lon="-8.6346300">
        <ele>129.0</ele>
        <time>2021-05-23T07:52:02Z</time>
      </trkpt>
      <trkpt lat="42.6747610" lon="-8.6346420">
        <ele>129.0</ele>
        <time>2021-05-23T07:52:03Z</time>
      </trkpt>
      <trkpt lat="42.6747600" lon="-8.6346650">
        <ele>129.1</ele>
        <time>2021-05-23T07:52:04Z</time>
      </trkpt>
      <trkpt lat="42.6747570" lon="-8.6346810">
        <ele>129.2</ele>
        <time>2021-05-23T07:52:05Z</time>
      </trkpt>
      <trkpt lat="42.6747530" lon="-8.6346960">
        <ele>129.2</ele>
        <time>2021-05-23T07:52:06Z</time>
      </trkpt>
      <trkpt lat="42.6747540" lon="-8.6347120">
        <ele>129.3</ele>
        <time>2021-05-23T07:52:07Z</time>
      </trkpt>
      <trkpt lat="42.6747520" lon="-8.6347290">
        <ele>129.3</ele>
        <time>2021-05-23T07:52:08Z</time>
      </trkpt>
      <trkpt lat="42.6747510" lon="-8.6347570">
        <ele>129.5</ele>
        <time>2021-05-23T07:52:09Z</time>
      </trkpt>
      <trkpt lat="42.6747570" lon="-8.6347650">
        <ele>129.5</ele>
        <time>2021-05-23T07:52:10Z</time>
      </trkpt>
      <trkpt lat="42.6747640" lon="-8.6347900">
        <ele>129.6</ele>
        <time>2021-05-23T07:52:11Z</time>
      </trkpt>
      <trkpt lat="42.6747660" lon="-8.6348030">
        <ele>129.6</ele>
        <time>2021-05-23T07:52:12Z</time>
      </trkpt>
      <trkpt lat="42.6747740" lon="-8.6348210">
        <ele>129.7</ele>
        <time>2021-05-23T07:52:13Z</time>
      </trkpt>
      <trkpt lat="42.6747750" lon="-8.6348400">
        <ele>129.8</ele>
        <time>2021-05-23T07:52:14Z</time>
      </trkpt>
      <trkpt lat="42.6747840" lon="-8.6348710">
        <ele>129.9</ele>
        <time>2021-05-23T07:52:15Z</time>
      </trkpt>
      <trkpt lat="42.6747880" lon="-8.6348840">
        <ele>130.0</ele>
        <time>2021-05-23T07:52:16Z</time>
      </trkpt>
      <trkpt lat="42.6747930" lon="-8.6348970">
        <ele>130.1</ele>
        <time>2021-05-23T07:52:17Z</time>
      </trkpt>
      <trkpt lat="42.6747990" lon="-8.6349240">
        <ele>130.2</ele>
        <time>2021-05-23T07:52:18Z</time>
      </trkpt>
      <trkpt lat="42.6748010" lon="-8.6349360">
        <ele>130.2</ele>
        <time>2021-05-23T07:52:19Z</time>
      </trkpt>
      <trkpt lat="42.6748040" lon="-8.6349470">
        <ele>130.3</ele>
        <time>2021-05-23T07:52:20Z</time>
      </trkpt>
      <trkpt lat="42.6748130" lon="-8.6349650">
        <ele>130.4</ele>
        <time>2021-05-23T07:52:21Z</time>
      </trkpt>
      <trkpt lat="42.6748200" lon="-8.6349790">
        <ele>130.4</ele>
        <time>2021-05-23T07:52:22Z</time>
      </trkpt>
      <trkpt lat="42.6748260" lon="-8.6350070">
        <ele>130.5</ele>
        <time>2021-05-23T07:52:23Z</time>
      </trkpt>
      <trkpt lat="42.6748320" lon="-8.6350210">
        <ele>130.6</ele>
        <time>2021-05-23T07:52:24Z</time>
      </trkpt>
      <trkpt lat="42.6748380" lon="-8.6350350">
        <ele>130.7</ele>
        <time>2021-05-23T07:52:25Z</time>
      </trkpt>
      <trkpt lat="42.6748430" lon="-8.6350530">
        <ele>130.8</ele>
        <time>2021-05-23T07:52:26Z</time>
      </trkpt>
      <trkpt lat="42.6748470" lon="-8.6350750">
        <ele>130.8</ele>
        <time>2021-05-23T07:52:27Z</time>
      </trkpt>
      <trkpt lat="42.6748540" lon="-8.6350900">
        <ele>130.9</ele>
        <time>2021-05-23T07:52:28Z</time>
      </trkpt>
      <trkpt lat="42.6748500" lon="-8.6351020">
        <ele>131.0</ele>
        <time>2021-05-23T07:52:29Z</time>
      </trkpt>
      <trkpt lat="42.6748530" lon="-8.6351190">
        <ele>131.0</ele>
        <time>2021-05-23T07:52:30Z</time>
      </trkpt>
      <trkpt lat="42.6748560" lon="-8.6351290">
        <ele>131.1</ele>
        <time>2021-05-23T07:52:31Z</time>
      </trkpt>
      <trkpt lat="42.6748520" lon="-8.6351550">
        <ele>131.1</ele>
        <time>2021-05-23T07:52:32Z</time>
      </trkpt>
      <trkpt lat="42.6748560" lon="-8.6351640">
        <ele>131.2</ele>
        <time>2021-05-23T07:52:33Z</time>
      </trkpt>
      <trkpt lat="42.6748510" lon="-8.6351790">
        <ele>131.2</ele>
        <time>2021-05-23T07:52:34Z</time>
      </trkpt>
      <trkpt lat="42.6748570" lon="-8.6351960">
        <ele>131.3</ele>
        <time>2021-05-23T07:52:35Z</time>
      </trkpt>
      <trkpt lat="42.6748620" lon="-8.6352120">
        <ele>131.3</ele>
        <time>2021-05-23T07:52:36Z</time>
      </trkpt>
      <trkpt lat="42.6748650" lon="-8.6352230">
        <ele>131.4</ele>
        <time>2021-05-23T07:52:37Z</time>
      </trkpt>
      <trkpt lat="42.6748710" lon="-8.6352340">
        <ele>131.4</ele>
        <time>2021-05-23T07:52:38Z</time>
      </trkpt>
      <trkpt lat="42.6748760" lon="-8.6352550">
        <ele>131.4</ele>
        <time>2021-05-23T07:52:39Z</time>
      </trkpt>
      <trkpt lat="42.6748740" lon="-8.6352740">
        <ele>131.5</ele>
        <time>2021-05-23T07:52:40Z</time>
      </trkpt>
      <trkpt lat="42.6748720" lon="-8.6352890">
        <ele>131.5</ele>
        <time>2021-05-23T07:52:41Z</time>
      </trkpt>
      <trkpt lat="42.6748730" lon="-8.6353030">
        <ele>131.5</ele>
        <time>2021-05-23T07:52:42Z</time>
      </trkpt>
      <trkpt lat="42.6748840" lon="-8.6353360">
        <ele>131.6</ele>
        <time>2021-05-23T07:52:43Z</time>
      </trkpt>
      <trkpt lat="42.6748890" lon="-8.6353430">
        <ele>131.6</ele>
        <time>2021-05-23T07:52:44Z</time>
      </trkpt>
      <trkpt lat="42.6748930" lon="-8.6353510">
        <ele>131.7</ele>
        <time>2021-05-23T07:52:45Z</time>
      </trkpt>
      <trkpt lat="42.6749000" lon="-8.6353750">
        <ele>131.7</ele>
        <time>2021-05-23T07:52:46Z</time>
      </trkpt>
      <trkpt lat="42.6749010" lon="-8.6353900">
        <ele>131.7</ele>
        <time>2021-05-23T07:52:47Z</time>
      </trkpt>
      <trkpt lat="42.6749030" lon="-8.6354050">
        <ele>131.7</ele>
        <time>2021-05-23T07:52:48Z</time>
      </trkpt>
      <trkpt lat="42.6749020" lon="-8.6354320">
        <ele>131.8</ele>
        <time>2021-05-23T07:52:49Z</time>
      </trkpt>
      <trkpt lat="42.6749040" lon="-8.6354450">
        <ele>131.8</ele>
        <time>2021-05-23T07:52:50Z</time>
      </trkpt>
      <trkpt lat="42.6749070" lon="-8.6354590">
        <ele>131.8</ele>
        <time>2021-05-23T07:52:51Z</time>
      </trkpt>
      <trkpt lat="42.6749200" lon="-8.6354810">
        <ele>131.9</ele>
        <time>2021-05-23T07:52:52Z</time>
      </trkpt>
      <trkpt lat="42.6749180" lon="-8.6355000">
        <ele>131.9</ele>
        <time>2021-05-23T07:52:53Z</time>
      </trkpt>
      <trkpt lat="42.6749210" lon="-8.6355190">
        <ele>131.9</ele>
        <time>2021-05-23T07:52:54Z</time>
      </trkpt>
      <trkpt lat="42.6749210" lon="-8.6355390">
        <ele>131.9</ele>
        <time>2021-05-23T07:52:55Z</time>
      </trkpt>
      <trkpt lat="42.6749270" lon="-8.6355530">
        <ele>131.9</ele>
        <time>2021-05-23T07:52:56Z</time>
      </trkpt>
      <trkpt lat="42.6749220" lon="-8.6355670">
        <ele>131.9</ele>
        <time>2021-05-23T07:52:57Z</time>
      </trkpt>
      <trkpt lat="42.6749260" lon="-8.6355820">
        <ele>132.0</ele>
        <time>2021-05-23T07:52:58Z</time>
      </trkpt>
      <trkpt lat="42.6749380" lon="-8.6356070">
        <ele>132.0</ele>
        <time>2021-05-23T07:52:59Z</time>
      </trkpt>
      <trkpt lat="42.6749420" lon="-8.6356160">
        <ele>132.0</ele>
        <time>2021-05-23T07:53:00Z</time>
      </trkpt>
      <trkpt lat="42.6749450" lon="-8.6356240">
        <ele>132.0</ele>
        <time>2021-05-23T07:53:01Z</time>
      </trkpt>
      <trkpt lat="42.6749480" lon="-8.6356430">
        <ele>132.0</ele>
        <time>2021-05-23T07:53:02Z</time>
      </trkpt>
      <trkpt lat="42.6749560" lon="-8.6356610">
        <ele>132.0</ele>
        <time>2021-05-23T07:53:03Z</time>
      </trkpt>
      <trkpt lat="42.6749670" lon="-8.6356910">
        <ele>132.0</ele>
        <time>2021-05-23T07:53:04Z</time>
      </trkpt>
      <trkpt lat="42.6749720" lon="-8.6357000">
        <ele>132.0</ele>
        <time>2021-05-23T07:53:05Z</time>
      </trkpt>
      <trkpt lat="42.6749760" lon="-8.6357080">
        <ele>132.0</ele>
        <time>2021-05-23T07:53:06Z</time>
      </trkpt>
      <trkpt lat="42.6749890" lon="-8.6357420">
        <ele>132.1</ele>
        <time>2021-05-23T07:53:07Z</time>
      </trkpt>
      <trkpt lat="42.6749930" lon="-8.6357540">
        <ele>132.1</ele>
        <time>2021-05-23T07:53:08Z</time>
      </trkpt>
      <trkpt lat="42.6749920" lon="-8.6357710">
        <ele>132.1</ele>
        <time>2021-05-23T07:53:09Z</time>
      </trkpt>
      <trkpt lat="42.6749980" lon="-8.6357920">
        <ele>132.1</ele>
        <time>2021-05-23T07:53:10Z</time>
      </trkpt>
      <trkpt lat="42.6750110" lon="-8.6358150">
        <ele>132.1</ele>
        <time>2021-05-23T07:53:11Z</time>
      </trkpt>
      <trkpt lat="42.6750110" lon="-8.6358350">
        <ele>132.1</ele>
        <time>2021-05-23T07:53:12Z</time>
      </trkpt>
      <trkpt lat="42.6750210" lon="-8.6358570">
        <ele>132.2</ele>
        <time>2021-05-23T07:53:13Z</time>
      </trkpt>
      <trkpt lat="42.6750240" lon="-8.6358690">
        <ele>132.2</ele>
        <time>2021-05-23T07:53:14Z</time>
      </trkpt>
      <trkpt lat="42.6750270" lon="-8.6358810">
        <ele>132.2</ele>
        <time>2021-05-23T07:53:15Z</time>
      </trkpt>
      <trkpt lat="42.6750430" lon="-8.6359200">
        <ele>132.2</ele>
        <time>2021-05-23T07:53:16Z</time>
      </trkpt>
      <trkpt lat="42.6750480" lon="-8.6359290">
        <ele>132.2</ele>
        <time>2021-05-23T07:53:17Z</time>
      </trkpt>
      <trkpt lat="42.6750520" lon="-8.6359530">
        <ele>132.3</ele>
        <time>2021-05-23T07:53:18Z</time>
      </trkpt>
      <trkpt lat="42.6750520" lon="-8.6359600">
        <ele>132.3</ele>
        <time>2021-05-23T07:53:19Z</time>
      </trkpt>
      <trkpt lat="42.6750570" lon="-8.6359730">
        <ele>132.3</ele>
        <time>2021-05-23T07:53:20Z</time>
      </trkpt>
      <trkpt lat="42.6750660" lon="-8.6359900">
        <ele>132.3</ele>
        <time>2021-05-23T07:53:21Z</time>
      </trkpt>
      <trkpt lat="42.6750690" lon="-8.6359960">
        <ele>132.3</ele>
        <time>2021-05-23T07:53:22Z</time>
      </trkpt>
      <trkpt lat="42.6750710" lon="-8.6360070">
        <ele>132.3</ele>
        <time>2021-05-23T07:53:23Z</time>
      </trkpt>
      <trkpt lat="42.6750770" lon="-8.6360270">
        <ele>132.3</ele>
        <time>2021-05-23T07:53:24Z</time>
      </trkpt>
      <trkpt lat="42.6750840" lon="-8.6360390">
        <ele>132.4</ele>
        <time>2021-05-23T07:53:25Z</time>
      </trkpt>
      <trkpt lat="42.6750920" lon="-8.6360500">
        <ele>132.4</ele>
        <time>2021-05-23T07:53:26Z</time>
      </trkpt>
      <trkpt lat="42.6750970" lon="-8.6360660">
        <ele>132.4</ele>
        <time>2021-05-23T07:53:27Z</time>
      </trkpt>
      <trkpt lat="42.6751000" lon="-8.6360760">
        <ele>132.4</ele>
        <time>2021-05-23T07:53:28Z</time>
      </trkpt>
      <trkpt lat="42.6751080" lon="-8.6360840">
        <ele>132.4</ele>
        <time>2021-05-23T07:53:29Z</time>
      </trkpt>
      <trkpt lat="42.6751190" lon="-8.6361120">
        <ele>132.5</ele>
        <time>2021-05-23T07:53:30Z</time>
      </trkpt>
      <trkpt lat="42.6751240" lon="-8.6361200">
        <ele>132.5</ele>
        <time>2021-05-23T07:53:31Z</time>
      </trkpt>
      <trkpt lat="42.6751280" lon="-8.6361280">
        <ele>132.5</ele>
        <time>2021-05-23T07:53:32Z</time>
      </trkpt>
      <trkpt lat="42.6751420" lon="-8.6361470">
        <ele>132.5</ele>
        <time>2021-05-23T07:53:33Z</time>
      </trkpt>
      <trkpt lat="42.6751450" lon="-8.6361580">
        <ele>132.5</ele>
        <time>2021-05-23T07:53:34Z</time>
      </trkpt>
      <trkpt lat="42.6751520" lon="-8.6361740">
        <ele>132.6</ele>
        <time>2021-05-23T07:53:35Z</time>
      </trkpt>
      <trkpt lat="42.6751630" lon="-8.6361920">
        <ele>132.6</ele>
        <time>2021-05-23T07:53:36Z</time>
      </trkpt>
      <trkpt lat="42.6751680" lon="-8.6362120">
        <ele>132.6</ele>
        <time>2021-05-23T07:53:37Z</time>
      </trkpt>
      <trkpt lat="42.6751710" lon="-8.6362220">
        <ele>132.7</ele>
        <time>2021-05-23T07:53:38Z</time>
      </trkpt>
      <trkpt lat="42.6751740" lon="-8.6362330">
        <ele>132.7</ele>
        <time>2021-05-23T07:53:39Z</time>
      </trkpt>
      <trkpt lat="42.6751770" lon="-8.6362440">
        <ele>132.7</ele>
        <time>2021-05-23T07:53:40Z</time>
      </trkpt>
      <trkpt lat="42.6751880" lon="-8.6362620">
        <ele>132.7</ele>
        <time>2021-05-23T07:53:41Z</time>
      </trkpt>
      <trkpt lat="42.6751920" lon="-8.6362770">
        <ele>132.8</ele>
        <time>2021-05-23T07:53:42Z</time>
      </trkpt>
      <trkpt lat="42.6751990" lon="-8.6362970">
        <ele>132.8</ele>
        <time>2021-05-23T07:53:43Z</time>
      </trkpt>
      <trkpt lat="42.6752040" lon="-8.6363110">
        <ele>132.8</ele>
        <time>2021-05-23T07:53:44Z</time>
      </trkpt>
      <trkpt lat="42.6752080" lon="-8.6363240">
        <ele>132.8</ele>
        <time>2021-05-23T07:53:45Z</time>
      </trkpt>
      <trkpt lat="42.6752100" lon="-8.6363410">
        <ele>132.9</ele>
        <time>2021-05-23T07:53:46Z</time>
      </trkpt>
      <trkpt lat="42.6752080" lon="-8.6363620">
        <ele>132.9</ele>
        <time>2021-05-23T07:53:47Z</time>
      </trkpt>
      <trkpt lat="42.6752160" lon="-8.6363880">
        <ele>133.0</ele>
        <time>2021-05-23T07:53:48Z</time>
      </trkpt>
      <trkpt lat="42.6752210" lon="-8.6363970">
        <ele>133.0</ele>
        <time>2021-05-23T07:53:49Z</time>
      </trkpt>
      <trkpt lat="42.6752250" lon="-8.6364070">
        <ele>133.0</ele>
        <time>2021-05-23T07:53:50Z</time>
      </trkpt>
      <trkpt lat="42.6752410" lon="-8.6364370">
        <ele>133.1</ele>
        <time>2021-05-23T07:53:51Z</time>
      </trkpt>
      <trkpt lat="42.6752460" lon="-8.6364480">
        <ele>133.1</ele>
        <time>2021-05-23T07:53:52Z</time>
      </trkpt>
      <trkpt lat="42.6752450" lon="-8.6364680">
        <ele>133.1</ele>
        <time>2021-05-23T07:53:53Z</time>
      </trkpt>
      <trkpt lat="42.6752470" lon="-8.6364750">
        <ele>133.1</ele>
        <time>2021-05-23T07:53:54Z</time>
      </trkpt>
      <trkpt lat="42.6752550" lon="-8.6364930">
        <ele>133.2</ele>
        <time>2021-05-23T07:53:55Z</time>
      </trkpt>
      <trkpt lat="42.6752590" lon="-8.6365210">
        <ele>133.2</ele>
        <time>2021-05-23T07:53:56Z</time>
      </trkpt>
      <trkpt lat="42.6752630" lon="-8.6365390">
        <ele>133.2</ele>
        <time>2021-05-23T07:53:57Z</time>
      </trkpt>
      <trkpt lat="42.6752700" lon="-8.6365740">
        <ele>133.3</ele>
        <time>2021-05-23T07:53:58Z</time>
      </trkpt>
      <trkpt lat="42.6752740" lon="-8.6365880">
        <ele>133.3</ele>
        <time>2021-05-23T07:53:59Z</time>
      </trkpt>
      <trkpt lat="42.6752770" lon="-8.6366030">
        <ele>133.3</ele>
        <time>2021-05-23T07:54:00Z</time>
      </trkpt>
      <trkpt lat="42.6752840" lon="-8.6366190">
        <ele>133.4</ele>
        <time>2021-05-23T07:54:01Z</time>
      </trkpt>
      <trkpt lat="42.6752850" lon="-8.6366340">
        <ele>133.4</ele>
        <time>2021-05-23T07:54:02Z</time>
      </trkpt>
      <trkpt lat="42.6752880" lon="-8.6366470">
        <ele>133.4</ele>
        <time>2021-05-23T07:54:03Z</time>
      </trkpt>
      <trkpt lat="42.6752920" lon="-8.6366780">
        <ele>133.5</ele>
        <time>2021-05-23T07:54:04Z</time>
      </trkpt>
      <trkpt lat="42.6752950" lon="-8.6366870">
        <ele>133.5</ele>
        <time>2021-05-23T07:54:05Z</time>
      </trkpt>
      <trkpt lat="42.6752990" lon="-8.6366970">
        <ele>133.5</ele>
        <time>2021-05-23T07:54:06Z</time>
      </trkpt>
      <trkpt lat="42.6753130" lon="-8.6367140">
        <ele>133.6</ele>
        <time>2021-05-23T07:54:07Z</time>
      </trkpt>
      <trkpt lat="42.6753110" lon="-8.6367270">
        <ele>133.6</ele>
        <time>2021-05-23T07:54:08Z</time>
      </trkpt>
      <trkpt lat="42.6753150" lon="-8.6367360">
        <ele>133.6</ele>
        <time>2021-05-23T07:54:09Z</time>
      </trkpt>
      <trkpt lat="42.6753110" lon="-8.6367490">
        <ele>133.6</ele>
        <time>2021-05-23T07:54:10Z</time>
      </trkpt>
      <trkpt lat="42.6753220" lon="-8.6367660">
        <ele>133.7</ele>
        <time>2021-05-23T07:54:11Z</time>
      </trkpt>
      <trkpt lat="42.6753270" lon="-8.6367780">
        <ele>133.7</ele>
        <time>2021-05-23T07:54:12Z</time>
      </trkpt>
      <trkpt lat="42.6753240" lon="-8.6367980">
        <ele>133.7</ele>
        <time>2021-05-23T07:54:13Z</time>
      </trkpt>
      <trkpt lat="42.6753310" lon="-8.6368110">
        <ele>133.8</ele>
        <time>2021-05-23T07:54:14Z</time>
      </trkpt>
      <trkpt lat="42.6753290" lon="-8.6368230">
        <ele>133.8</ele>
        <time>2021-05-23T07:54:15Z</time>
      </trkpt>
      <trkpt lat="42.6753370" lon="-8.6368420">
        <ele>133.8</ele>
        <time>2021-05-23T07:54:16Z</time>
      </trkpt>
      <trkpt lat="42.6753460" lon="-8.6368560">
        <ele>133.9</ele>
        <time>2021-05-23T07:54:17Z</time>
      </trkpt>
      <trkpt lat="42.6753600" lon="-8.6368880">
        <ele>133.9</ele>
        <time>2021-05-23T07:54:18Z</time>
      </trkpt>
      <trkpt lat="42.6753690" lon="-8.6369000">
        <ele>133.9</ele>
        <time>2021-05-23T07:54:19Z</time>
      </trkpt>
      <trkpt lat="42.6753700" lon="-8.6369180">
        <ele>134.0</ele>
        <time>2021-05-23T07:54:20Z</time>
      </trkpt>
      <trkpt lat="42.6753720" lon="-8.6369410">
        <ele>134.0</ele>
        <time>2021-05-23T07:54:21Z</time>
      </trkpt>
      <trkpt lat="42.6753850" lon="-8.6369730">
        <ele>134.0</ele>
        <time>2021-05-23T07:54:22Z</time>
      </trkpt>
      <trkpt lat="42.6753940" lon="-8.6369910">
        <ele>134.0</ele>
        <time>2021-05-23T07:54:23Z</time>
      </trkpt>
      <trkpt lat="42.6754060" lon="-8.6370080">
        <ele>134.1</ele>
        <time>2021-05-23T07:54:24Z</time>
      </trkpt>
      <trkpt lat="42.6754060" lon="-8.6370210">
        <ele>134.1</ele>
        <time>2021-05-23T07:54:25Z</time>
      </trkpt>
      <trkpt lat="42.6754060" lon="-8.6370340">
        <ele>134.1</ele>
        <time>2021-05-23T07:54:26Z</time>
      </trkpt>
      <trkpt lat="42.6754130" lon="-8.6370520">
        <ele>134.1</ele>
        <time>2021-05-23T07:54:27Z</time>
      </trkpt>
      <trkpt lat="42.6754260" lon="-8.6370660">
        <ele>134.1</ele>
        <time>2021-05-23T07:54:28Z</time>
      </trkpt>
      <trkpt lat="42.6754280" lon="-8.6370770">
        <ele>134.1</ele>
        <time>2021-05-23T07:54:29Z</time>
      </trkpt>
      <trkpt lat="42.6754330" lon="-8.6370900">
        <ele>134.1</ele>
        <time>2021-05-23T07:54:30Z</time>
      </trkpt>
      <trkpt lat="42.6754340" lon="-8.6371060">
        <ele>134.2</ele>
        <time>2021-05-23T07:54:31Z</time>
      </trkpt>
      <trkpt lat="42.6754440" lon="-8.6371240">
        <ele>134.2</ele>
        <time>2021-05-23T07:54:32Z</time>
      </trkpt>
      <trkpt lat="42.6754470" lon="-8.6371430">
        <ele>134.2</ele>
        <time>2021-05-23T07:54:33Z</time>
      </trkpt>
      <trkpt lat="42.6754460" lon="-8.6371500">
        <ele>134.2</ele>
        <time>2021-05-23T07:54:34Z</time>
      </trkpt>
      <trkpt lat="42.6754550" lon="-8.6371710">
        <ele>134.2</ele>
        <time>2021-05-23T07:54:35Z</time>
      </trkpt>
      <trkpt lat="42.6754620" lon="-8.6371910">
        <ele>134.2</ele>
        <time>2021-05-23T07:54:36Z</time>
      </trkpt>
      <trkpt lat="42.6754700" lon="-8.6372090">
        <ele>134.2</ele>
        <time>2021-05-23T07:54:37Z</time>
      </trkpt>
      <trkpt lat="42.6754700" lon="-8.6372280">
        <ele>134.2</ele>
        <time>2021-05-23T07:54:38Z</time>
      </trkpt>
      <trkpt lat="42.6754750" lon="-8.6372460">
        <ele>134.3</ele>
        <time>2021-05-23T07:54:39Z</time>
      </trkpt>
      <trkpt lat="42.6754900" lon="-8.6372710">
        <ele>134.3</ele>
        <time>2021-05-23T07:54:40Z</time>
      </trkpt>
      <trkpt lat="42.6754970" lon="-8.6372810">
        <ele>134.3</ele>
        <time>2021-05-23T07:54:41Z</time>
      </trkpt>
      <trkpt lat="42.6755030" lon="-8.6372900">
        <ele>134.3</ele>
        <time>2021-05-23T07:54:42Z</time>
      </trkpt>
      <trkpt lat="42.6755160" lon="-8.6373090">
        <ele>134.3</ele>
        <time>2021-05-23T07:54:43Z</time>
      </trkpt>
      <trkpt lat="42.6755210" lon="-8.6373200">
        <ele>134.3</ele>
        <time>2021-05-23T07:54:44Z</time>
      </trkpt>
      <trkpt lat="42.6755270" lon="-8.6373320">
        <ele>134.3</ele>
        <time>2021-05-23T07:54:45Z</time>
      </trkpt>
      <trkpt lat="42.6755370" lon="-8.6373460">
        <ele>134.3</ele>
        <time>2021-05-23T07:54:46Z</time>
      </trkpt>
      <trkpt lat="42.6755420" lon="-8.6373560">
        <ele>134.3</ele>
        <time>2021-05-23T07:54:47Z</time>
      </trkpt>
      <trkpt lat="42.6755470" lon="-8.6373700">
        <ele>134.4</ele>
        <time>2021-05-23T07:54:48Z</time>
      </trkpt>
      <trkpt lat="42.6755610" lon="-8.6373890">
        <ele>134.4</ele>
        <time>2021-05-23T07:54:49Z</time>
      </trkpt>
      <trkpt lat="42.6755670" lon="-8.6373970">
        <ele>134.4</ele>
        <time>2021-05-23T07:54:50Z</time>
      </trkpt>
      <trkpt lat="42.6755710" lon="-8.6374120">
        <ele>134.4</ele>
        <time>2021-05-23T07:54:51Z</time>
      </trkpt>
      <trkpt lat="42.6755800" lon="-8.6374290">
        <ele>134.4</ele>
        <time>2021-05-23T07:54:52Z</time>
      </trkpt>
      <trkpt lat="42.6755850" lon="-8.6374430">
        <ele>134.4</ele>
        <time>2021-05-23T07:54:53Z</time>
      </trkpt>
      <trkpt lat="42.6756000" lon="-8.6374550">
        <ele>134.4</ele>
        <time>2021-05-23T07:54:54Z</time>
      </trkpt>
      <trkpt lat="42.6756130" lon="-8.6374780">
        <ele>134.5</ele>
        <time>2021-05-23T07:54:55Z</time>
      </trkpt>
      <trkpt lat="42.6756180" lon="-8.6374870">
        <ele>134.5</ele>
        <time>2021-05-23T07:54:56Z</time>
      </trkpt>
      <trkpt lat="42.6756240" lon="-8.6374950">
        <ele>134.5</ele>
        <time>2021-05-23T07:54:57Z</time>
      </trkpt>
      <trkpt lat="42.6756350" lon="-8.6375080">
        <ele>134.5</ele>
        <time>2021-05-23T07:54:58Z</time>
      </trkpt>
      <trkpt lat="42.6756510" lon="-8.6375170">
        <ele>134.5</ele>
        <time>2021-05-23T07:54:59Z</time>
      </trkpt>
      <trkpt lat="42.6756520" lon="-8.6375310">
        <ele>134.5</ele>
        <time>2021-05-23T07:55:00Z</time>
      </trkpt>
      <trkpt lat="42.6756630" lon="-8.6375440">
        <ele>134.5</ele>
        <time>2021-05-23T07:55:01Z</time>
      </trkpt>
      <trkpt lat="42.6756730" lon="-8.6375550">
        <ele>134.6</ele>
        <time>2021-05-23T07:55:02Z</time>
      </trkpt>
      <trkpt lat="42.6756790" lon="-8.6375690">
        <ele>134.6</ele>
        <time>2021-05-23T07:55:03Z</time>
      </trkpt>
      <trkpt lat="42.6756920" lon="-8.6375830">
        <ele>134.6</ele>
        <time>2021-05-23T07:55:04Z</time>
      </trkpt>
      <trkpt lat="42.6757070" lon="-8.6376020">
        <ele>134.6</ele>
        <time>2021-05-23T07:55:05Z</time>
      </trkpt>
      <trkpt lat="42.6757130" lon="-8.6376110">
        <ele>134.6</ele>
        <time>2021-05-23T07:55:06Z</time>
      </trkpt>
      <trkpt lat="42.6757190" lon="-8.6376200">
        <ele>134.6</ele>
        <time>2021-05-23T07:55:07Z</time>
      </trkpt>
      <trkpt lat="42.6757250" lon="-8.6376290">
        <ele>134.7</ele>
        <time>2021-05-23T07:55:08Z</time>
      </trkpt>
      <trkpt lat="42.6757320" lon="-8.6376370">
        <ele>134.7</ele>
        <time>2021-05-23T07:55:09Z</time>
      </trkpt>
      <trkpt lat="42.6757390" lon="-8.6376430">
        <ele>134.7</ele>
        <time>2021-05-23T07:55:10Z</time>
      </trkpt>
      <trkpt lat="42.6757490" lon="-8.6376570">
        <ele>134.7</ele>
        <time>2021-05-23T07:55:11Z</time>
      </trkpt>
      <trkpt lat="42.6757660" lon="-8.6376780">
        <ele>134.7</ele>
        <time>2021-05-23T07:55:12Z</time>
      </trkpt>
      <trkpt lat="42.6757710" lon="-8.6376900">
        <ele>134.7</ele>
        <time>2021-05-23T07:55:13Z</time>
      </trkpt>
      <trkpt lat="42.6757770" lon="-8.6377010">
        <ele>134.7</ele>
        <time>2021-05-23T07:55:14Z</time>
      </trkpt>
      <trkpt lat="42.6757970" lon="-8.6377200">
        <ele>134.8</ele>
        <time>2021-05-23T07:55:15Z</time>
      </trkpt>
      <trkpt lat="42.6758030" lon="-8.6377230">
        <ele>134.8</ele>
        <time>2021-05-23T07:55:16Z</time>
      </trkpt>
      <trkpt lat="42.6758080" lon="-8.6377270">
        <ele>134.8</ele>
        <time>2021-05-23T07:55:17Z</time>
      </trkpt>
      <trkpt lat="42.6758130" lon="-8.6377380">
        <ele>134.8</ele>
        <time>2021-05-23T07:55:18Z</time>
      </trkpt>
      <trkpt lat="42.6758200" lon="-8.6377530">
        <ele>134.8</ele>
        <time>2021-05-23T07:55:19Z</time>
      </trkpt>
      <trkpt lat="42.6758270" lon="-8.6377660">
        <ele>134.8</ele>
        <time>2021-05-23T07:55:20Z</time>
      </trkpt>
      <trkpt lat="42.6758430" lon="-8.6377800">
        <ele>134.8</ele>
        <time>2021-05-23T07:55:21Z</time>
      </trkpt>
      <trkpt lat="42.6758550" lon="-8.6377920">
        <ele>134.9</ele>
        <time>2021-05-23T07:55:22Z</time>
      </trkpt>
      <trkpt lat="42.6758710" lon="-8.6378140">
        <ele>134.9</ele>
        <time>2021-05-23T07:55:23Z</time>
      </trkpt>
      <trkpt lat="42.6758740" lon="-8.6378230">
        <ele>134.9</ele>
        <time>2021-05-23T07:55:24Z</time>
      </trkpt>
      <trkpt lat="42.6758770" lon="-8.6378330">
        <ele>134.9</ele>
        <time>2021-05-23T07:55:25Z</time>
      </trkpt>
      <trkpt lat="42.6758890" lon="-8.6378570">
        <ele>134.9</ele>
        <time>2021-05-23T07:55:26Z</time>
      </trkpt>
      <trkpt lat="42.6758950" lon="-8.6378670">
        <ele>134.9</ele>
        <time>2021-05-23T07:55:27Z</time>
      </trkpt>
      <trkpt lat="42.6759000" lon="-8.6378780">
        <ele>134.9</ele>
        <time>2021-05-23T07:55:28Z</time>
      </trkpt>
      <trkpt lat="42.6759160" lon="-8.6378960">
        <ele>134.9</ele>
        <time>2021-05-23T07:55:29Z</time>
      </trkpt>
      <trkpt lat="42.6759220" lon="-8.6379040">
        <ele>134.9</ele>
        <time>2021-05-23T07:55:30Z</time>
      </trkpt>
      <trkpt lat="42.6759290" lon="-8.6379110">
        <ele>134.9</ele>
        <time>2021-05-23T07:55:31Z</time>
      </trkpt>
      <trkpt lat="42.6759430" lon="-8.6379250">
        <ele>134.9</ele>
        <time>2021-05-23T07:55:32Z</time>
      </trkpt>
      <trkpt lat="42.6759490" lon="-8.6379390">
        <ele>135.0</ele>
        <time>2021-05-23T07:55:33Z</time>
      </trkpt>
      <trkpt lat="42.6759570" lon="-8.6379500">
        <ele>135.0</ele>
        <time>2021-05-23T07:55:34Z</time>
      </trkpt>
      <trkpt lat="42.6759650" lon="-8.6379680">
        <ele>135.0</ele>
        <time>2021-05-23T07:55:35Z</time>
      </trkpt>
      <trkpt lat="42.6759700" lon="-8.6379780">
        <ele>135.0</ele>
        <time>2021-05-23T07:55:36Z</time>
      </trkpt>
      <trkpt lat="42.6759780" lon="-8.6379950">
        <ele>135.0</ele>
        <time>2021-05-23T07:55:37Z</time>
      </trkpt>
      <trkpt lat="42.6759890" lon="-8.6380080">
        <ele>135.0</ele>
        <time>2021-05-23T07:55:38Z</time>
      </trkpt>
      <trkpt lat="42.6759990" lon="-8.6380200">
        <ele>135.0</ele>
        <time>2021-05-23T07:55:39Z</time>
      </trkpt>
      <trkpt lat="42.6760130" lon="-8.6380370">
        <ele>135.0</ele>
        <time>2021-05-23T07:55:40Z</time>
      </trkpt>
      <trkpt lat="42.6760280" lon="-8.6380620">
        <ele>135.0</ele>
        <time>2021-05-23T07:55:41Z</time>
      </trkpt>
      <trkpt lat="42.6760320" lon="-8.6380720">
        <ele>135.0</ele>
        <time>2021-05-23T07:55:42Z</time>
      </trkpt>
      <trkpt lat="42.6760360" lon="-8.6380820">
        <ele>135.0</ele>
        <time>2021-05-23T07:55:43Z</time>
      </trkpt>
      <trkpt lat="42.6760390" lon="-8.6380930">
        <ele>135.0</ele>
        <time>2021-05-23T07:55:44Z</time>
      </trkpt>
      <trkpt lat="42.6760490" lon="-8.6380970">
        <ele>135.0</ele>
        <time>2021-05-23T07:55:45Z</time>
      </trkpt>
      <trkpt lat="42.6760580" lon="-8.6381100">
        <ele>135.0</ele>
        <time>2021-05-23T07:55:46Z</time>
      </trkpt>
      <trkpt lat="42.6760700" lon="-8.6381210">
        <ele>135.0</ele>
        <time>2021-05-23T07:55:47Z</time>
      </trkpt>
      <trkpt lat="42.6760780" lon="-8.6381360">
        <ele>135.0</ele>
        <time>2021-05-23T07:55:48Z</time>
      </trkpt>
      <trkpt lat="42.6760840" lon="-8.6381500">
        <ele>135.0</ele>
        <time>2021-05-23T07:55:49Z</time>
      </trkpt>
      <trkpt lat="42.6760940" lon="-8.6381680">
        <ele>135.0</ele>
        <time>2021-05-23T07:55:50Z</time>
      </trkpt>
      <trkpt lat="42.6761040" lon="-8.6381750">
        <ele>135.0</ele>
        <time>2021-05-23T07:55:51Z</time>
      </trkpt>
      <trkpt lat="42.6761140" lon="-8.6382000">
        <ele>135.1</ele>
        <time>2021-05-23T07:55:52Z</time>
      </trkpt>
      <trkpt lat="42.6761210" lon="-8.6382120">
        <ele>135.1</ele>
        <time>2021-05-23T07:55:53Z</time>
      </trkpt>
      <trkpt lat="42.6761280" lon="-8.6382280">
        <ele>135.1</ele>
        <time>2021-05-23T07:55:54Z</time>
      </trkpt>
      <trkpt lat="42.6761330" lon="-8.6382390">
        <ele>135.1</ele>
        <time>2021-05-23T07:55:55Z</time>
      </trkpt>
      <trkpt lat="42.6761460" lon="-8.6382600">
        <ele>135.1</ele>
        <time>2021-05-23T07:55:56Z</time>
      </trkpt>
      <trkpt lat="42.6761590" lon="-8.6382720">
        <ele>135.1</ele>
        <time>2021-05-23T07:55:57Z</time>
      </trkpt>
      <trkpt lat="42.6761630" lon="-8.6382890">
        <ele>135.1</ele>
        <time>2021-05-23T07:55:58Z</time>
      </trkpt>
      <trkpt lat="42.6761710" lon="-8.6382990">
        <ele>135.1</ele>
        <time>2021-05-23T07:55:59Z</time>
      </trkpt>
      <trkpt lat="42.6761770" lon="-8.6383040">
        <ele>135.1</ele>
        <time>2021-05-23T07:56:00Z</time>
      </trkpt>
      <trkpt lat="42.6761870" lon="-8.6383200">
        <ele>135.1</ele>
        <time>2021-05-23T07:56:01Z</time>
      </trkpt>
      <trkpt lat="42.6761930" lon="-8.6383280">
        <ele>135.1</ele>
        <time>2021-05-23T07:56:02Z</time>
      </trkpt>
      <trkpt lat="42.6761980" lon="-8.6383420">
        <ele>135.1</ele>
        <time>2021-05-23T07:56:03Z</time>
      </trkpt>
      <trkpt lat="42.6762040" lon="-8.6383590">
        <ele>135.1</ele>
        <time>2021-05-23T07:56:04Z</time>
      </trkpt>
      <trkpt lat="42.6762120" lon="-8.6383810">
        <ele>135.1</ele>
        <time>2021-05-23T07:56:05Z</time>
      </trkpt>
      <trkpt lat="42.6762240" lon="-8.6384000">
        <ele>135.1</ele>
        <time>2021-05-23T07:56:06Z</time>
      </trkpt>
      <trkpt lat="42.6762330" lon="-8.6384090">
        <ele>135.1</ele>
        <time>2021-05-23T07:56:07Z</time>
      </trkpt>
      <trkpt lat="42.6762430" lon="-8.6384180">
        <ele>135.2</ele>
        <time>2021-05-23T07:56:08Z</time>
      </trkpt>
      <trkpt lat="42.6762520" lon="-8.6384340">
        <ele>135.2</ele>
        <time>2021-05-23T07:56:09Z</time>
      </trkpt>
      <trkpt lat="42.6762690" lon="-8.6384470">
        <ele>135.2</ele>
        <time>2021-05-23T07:56:10Z</time>
      </trkpt>
      <trkpt lat="42.6762780" lon="-8.6384660">
        <ele>135.2</ele>
        <time>2021-05-23T07:56:11Z</time>
      </trkpt>
      <trkpt lat="42.6762830" lon="-8.6384800">
        <ele>135.2</ele>
        <time>2021-05-23T07:56:12Z</time>
      </trkpt>
      <trkpt lat="42.6762930" lon="-8.6384960">
        <ele>135.2</ele>
        <time>2021-05-23T07:56:13Z</time>
      </trkpt>
      <trkpt lat="42.6763050" lon="-8.6385050">
        <ele>135.2</ele>
        <time>2021-05-23T07:56:14Z</time>
      </trkpt>
      <trkpt lat="42.6763150" lon="-8.6385170">
        <ele>135.2</ele>
        <time>2021-05-23T07:56:15Z</time>
      </trkpt>
      <trkpt lat="42.6763250" lon="-8.6385230">
        <ele>135.2</ele>
        <time>2021-05-23T07:56:16Z</time>
      </trkpt>
      <trkpt lat="42.6763290" lon="-8.6385320">
        <ele>135.2</ele>
        <time>2021-05-23T07:56:17Z</time>
      </trkpt>
      <trkpt lat="42.6763490" lon="-8.6385420">
        <ele>135.2</ele>
        <time>2021-05-23T07:56:18Z</time>
      </trkpt>
      <trkpt lat="42.6763550" lon="-8.6385520">
        <ele>135.2</ele>
        <time>2021-05-23T07:56:19Z</time>
      </trkpt>
      <trkpt lat="42.6763640" lon="-8.6385600">
        <ele>135.2</ele>
        <time>2021-05-23T07:56:20Z</time>
      </trkpt>
      <trkpt lat="42.6763800" lon="-8.6385720">
        <ele>135.2</ele>
        <time>2021-05-23T07:56:21Z</time>
      </trkpt>
      <trkpt lat="42.6763930" lon="-8.6385830">
        <ele>135.2</ele>
        <time>2021-05-23T07:56:22Z</time>
      </trkpt>
      <trkpt lat="42.6764030" lon="-8.6385950">
        <ele>135.2</ele>
        <time>2021-05-23T07:56:23Z</time>
      </trkpt>
      <trkpt lat="42.6764110" lon="-8.6386010">
        <ele>135.2</ele>
        <time>2021-05-23T07:56:24Z</time>
      </trkpt>
      <trkpt lat="42.6764160" lon="-8.6386070">
        <ele>135.2</ele>
        <time>2021-05-23T07:56:25Z</time>
      </trkpt>
      <trkpt lat="42.6764330" lon="-8.6386120">
        <ele>135.2</ele>
        <time>2021-05-23T07:56:26Z</time>
      </trkpt>
      <trkpt lat="42.6764430" lon="-8.6386230">
        <ele>135.1</ele>
        <time>2021-05-23T07:56:27Z</time>
      </trkpt>
      <trkpt lat="42.6764560" lon="-8.6386340">
        <ele>135.1</ele>
        <time>2021-05-23T07:56:28Z</time>
      </trkpt>
      <trkpt lat="42.6764640" lon="-8.6386470">
        <ele>135.1</ele>
        <time>2021-05-23T07:56:29Z</time>
      </trkpt>
      <trkpt lat="42.6764790" lon="-8.6386480">
        <ele>135.0</ele>
        <time>2021-05-23T07:56:30Z</time>
      </trkpt>
      <trkpt lat="42.6764880" lon="-8.6386470">
        <ele>135.0</ele>
        <time>2021-05-23T07:56:31Z</time>
      </trkpt>
      <trkpt lat="42.6765160" lon="-8.6386460">
        <ele>134.9</ele>
        <time>2021-05-23T07:56:32Z</time>
      </trkpt>
      <trkpt lat="42.6765250" lon="-8.6386430">
        <ele>134.9</ele>
        <time>2021-05-23T07:56:33Z</time>
      </trkpt>
      <trkpt lat="42.6765350" lon="-8.6386390">
        <ele>134.9</ele>
        <time>2021-05-23T07:56:34Z</time>
      </trkpt>
      <trkpt lat="42.6765500" lon="-8.6386310">
        <ele>134.8</ele>
        <time>2021-05-23T07:56:35Z</time>
      </trkpt>
      <trkpt lat="42.6765660" lon="-8.6386280">
        <ele>134.8</ele>
        <time>2021-05-23T07:56:36Z</time>
      </trkpt>
      <trkpt lat="42.6765810" lon="-8.6386200">
        <ele>134.8</ele>
        <time>2021-05-23T07:56:37Z</time>
      </trkpt>
      <trkpt lat="42.6765980" lon="-8.6386150">
        <ele>134.7</ele>
        <time>2021-05-23T07:56:38Z</time>
      </trkpt>
      <trkpt lat="42.6766140" lon="-8.6386100">
        <ele>134.7</ele>
        <time>2021-05-23T07:56:39Z</time>
      </trkpt>
      <trkpt lat="42.6766320" lon="-8.6386060">
        <ele>134.6</ele>
        <time>2021-05-23T07:56:40Z</time>
      </trkpt>
      <trkpt lat="42.6766500" lon="-8.6385980">
        <ele>134.6</ele>
        <time>2021-05-23T07:56:41Z</time>
      </trkpt>
      <trkpt lat="42.6766630" lon="-8.6385930">
        <ele>134.5</ele>
        <time>2021-05-23T07:56:42Z</time>
      </trkpt>
      <trkpt lat="42.6766770" lon="-8.6385810">
        <ele>134.5</ele>
        <time>2021-05-23T07:56:43Z</time>
      </trkpt>
      <trkpt lat="42.6766880" lon="-8.6385670">
        <ele>134.5</ele>
        <time>2021-05-23T07:56:44Z</time>
      </trkpt>
      <trkpt lat="42.6767040" lon="-8.6385580">
        <ele>134.4</ele>
        <time>2021-05-23T07:56:45Z</time>
      </trkpt>
      <trkpt lat="42.6767150" lon="-8.6385460">
        <ele>134.4</ele>
        <time>2021-05-23T07:56:46Z</time>
      </trkpt>
      <trkpt lat="42.6767280" lon="-8.6385410">
        <ele>134.3</ele>
        <time>2021-05-23T07:56:47Z</time>
      </trkpt>
      <trkpt lat="42.6767440" lon="-8.6385370">
        <ele>134.3</ele>
        <time>2021-05-23T07:56:48Z</time>
      </trkpt>
      <trkpt lat="42.6767590" lon="-8.6385320">
        <ele>134.2</ele>
        <time>2021-05-23T07:56:49Z</time>
      </trkpt>
      <trkpt lat="42.6767710" lon="-8.6385160">
        <ele>134.2</ele>
        <time>2021-05-23T07:56:50Z</time>
      </trkpt>
      <trkpt lat="42.6767800" lon="-8.6385040">
        <ele>134.1</ele>
        <time>2021-05-23T07:56:51Z</time>
      </trkpt>
      <trkpt lat="42.6767980" lon="-8.6385000">
        <ele>134.1</ele>
        <time>2021-05-23T07:56:52Z</time>
      </trkpt>
      <trkpt lat="42.6768110" lon="-8.6384790">
        <ele>134.0</ele>
        <time>2021-05-23T07:56:53Z</time>
      </trkpt>
      <trkpt lat="42.6768180" lon="-8.6384700">
        <ele>134.0</ele>
        <time>2021-05-23T07:56:54Z</time>
      </trkpt>
      <trkpt lat="42.6768240" lon="-8.6384600">
        <ele>133.9</ele>
        <time>2021-05-23T07:56:55Z</time>
      </trkpt>
      <trkpt lat="42.6768340" lon="-8.6384360">
        <ele>133.9</ele>
        <time>2021-05-23T07:56:56Z</time>
      </trkpt>
      <trkpt lat="42.6768400" lon="-8.6384280">
        <ele>133.8</ele>
        <time>2021-05-23T07:56:57Z</time>
      </trkpt>
      <trkpt lat="42.6768460" lon="-8.6384210">
        <ele>133.8</ele>
        <time>2021-05-23T07:56:58Z</time>
      </trkpt>
      <trkpt lat="42.6768580" lon="-8.6384110">
        <ele>133.8</ele>
        <time>2021-05-23T07:56:59Z</time>
      </trkpt>
      <trkpt lat="42.6768670" lon="-8.6383970">
        <ele>133.7</ele>
        <time>2021-05-23T07:57:00Z</time>
      </trkpt>
      <trkpt lat="42.6768740" lon="-8.6383840">
        <ele>133.7</ele>
        <time>2021-05-23T07:57:01Z</time>
      </trkpt>
      <trkpt lat="42.6768840" lon="-8.6383650">
        <ele>133.6</ele>
        <time>2021-05-23T07:57:02Z</time>
      </trkpt>
      <trkpt lat="42.6768940" lon="-8.6383520">
        <ele>133.6</ele>
        <time>2021-05-23T07:57:03Z</time>
      </trkpt>
      <trkpt lat="42.6769080" lon="-8.6383450">
        <ele>133.5</ele>
        <time>2021-05-23T07:57:04Z</time>
      </trkpt>
      <trkpt lat="42.6769210" lon="-8.6383300">
        <ele>133.4</ele>
        <time>2021-05-23T07:57:05Z</time>
      </trkpt>
      <trkpt lat="42.6769310" lon="-8.6383150">
        <ele>133.4</ele>
        <time>2021-05-23T07:57:06Z</time>
      </trkpt>
      <trkpt lat="42.6769470" lon="-8.6382970">
        <ele>133.3</ele>
        <time>2021-05-23T07:57:07Z</time>
      </trkpt>
      <trkpt lat="42.6769530" lon="-8.6382880">
        <ele>133.3</ele>
        <time>2021-05-23T07:57:08Z</time>
      </trkpt>
      <trkpt lat="42.6769600" lon="-8.6382800">
        <ele>133.2</ele>
        <time>2021-05-23T07:57:09Z</time>
      </trkpt>
      <trkpt lat="42.6769730" lon="-8.6382560">
        <ele>133.1</ele>
        <time>2021-05-23T07:57:10Z</time>
      </trkpt>
      <trkpt lat="42.6769780" lon="-8.6382470">
        <ele>133.1</ele>
        <time>2021-05-23T07:57:11Z</time>
      </trkpt>
      <trkpt lat="42.6769830" lon="-8.6382370">
        <ele>133.1</ele>
        <time>2021-05-23T07:57:12Z</time>
      </trkpt>
      <trkpt lat="42.6769920" lon="-8.6382220">
        <ele>133.0</ele>
        <time>2021-05-23T07:57:13Z</time>
      </trkpt>
      <trkpt lat="42.6770000" lon="-8.6382040">
        <ele>132.9</ele>
        <time>2021-05-23T07:57:14Z</time>
      </trkpt>
      <trkpt lat="42.6770100" lon="-8.6381810">
        <ele>132.8</ele>
        <time>2021-05-23T07:57:15Z</time>
      </trkpt>
      <trkpt lat="42.6770130" lon="-8.6381700">
        <ele>132.7</ele>
        <time>2021-05-23T07:57:16Z</time>
      </trkpt>
      <trkpt lat="42.6770160" lon="-8.6381590">
        <ele>132.7</ele>
        <time>2021-05-23T07:57:17Z</time>
      </trkpt>
      <trkpt lat="42.6770080" lon="-8.6381400">
        <ele>132.6</ele>
        <time>2021-05-23T07:57:18Z</time>
      </trkpt>
      <trkpt lat="42.6770120" lon="-8.6381240">
        <ele>132.5</ele>
        <time>2021-05-23T07:57:19Z</time>
      </trkpt>
      <trkpt lat="42.6770080" lon="-8.6381210">
        <ele>132.5</ele>
        <time>2021-05-23T07:57:20Z</time>
      </trkpt>
      <trkpt lat="42.6770090" lon="-8.6380920">
        <ele>132.4</ele>
        <time>2021-05-23T07:57:21Z</time>
      </trkpt>
      <trkpt lat="42.6770070" lon="-8.6380800">
        <ele>132.3</ele>
        <time>2021-05-23T07:57:22Z</time>
      </trkpt>
      <trkpt lat="42.6770060" lon="-8.6380680">
        <ele>132.2</ele>
        <time>2021-05-23T07:57:23Z</time>
      </trkpt>
      <trkpt lat="42.6770040" lon="-8.6380450">
        <ele>132.1</ele>
        <time>2021-05-23T07:57:24Z</time>
      </trkpt>
      <trkpt lat="42.6769960" lon="-8.6380370">
        <ele>132.1</ele>
        <time>2021-05-23T07:57:25Z</time>
      </trkpt>
      <trkpt lat="42.6769980" lon="-8.6380270">
        <ele>132.0</ele>
        <time>2021-05-23T07:57:26Z</time>
      </trkpt>
      <trkpt lat="42.6770020" lon="-8.6380130">
        <ele>131.9</ele>
        <time>2021-05-23T07:57:27Z</time>
      </trkpt>
      <trkpt lat="42.6770020" lon="-8.6380030">
        <ele>131.9</ele>
        <time>2021-05-23T07:57:28Z</time>
      </trkpt>
      <trkpt lat="42.6770030" lon="-8.6379870">
        <ele>131.8</ele>
        <time>2021-05-23T07:57:29Z</time>
      </trkpt>
      <trkpt lat="42.6770070" lon="-8.6379600">
        <ele>131.7</ele>
        <time>2021-05-23T07:57:30Z</time>
      </trkpt>
      <trkpt lat="42.6770100" lon="-8.6379480">
        <ele>131.6</ele>
        <time>2021-05-23T07:57:31Z</time>
      </trkpt>
      <trkpt lat="42.6770120" lon="-8.6379360">
        <ele>131.6</ele>
        <time>2021-05-23T07:57:32Z</time>
      </trkpt>
      <trkpt lat="42.6770100" lon="-8.6379160">
        <ele>131.5</ele>
        <time>2021-05-23T07:57:33Z</time>
      </trkpt>
      <trkpt lat="42.6770170" lon="-8.6379060">
        <ele>131.4</ele>
        <time>2021-05-23T07:57:34Z</time>
      </trkpt>
      <trkpt lat="42.6770210" lon="-8.6378910">
        <ele>131.3</ele>
        <time>2021-05-23T07:57:35Z</time>
      </trkpt>
      <trkpt lat="42.6770260" lon="-8.6378540">
        <ele>131.1</ele>
        <time>2021-05-23T07:57:36Z</time>
      </trkpt>
      <trkpt lat="42.6770290" lon="-8.6378420">
        <ele>131.0</ele>
        <time>2021-05-23T07:57:37Z</time>
      </trkpt>
      <trkpt lat="42.6770310" lon="-8.6378310">
        <ele>131.0</ele>
        <time>2021-05-23T07:57:38Z</time>
      </trkpt>
      <trkpt lat="42.6770350" lon="-8.6378210">
        <ele>130.9</ele>
        <time>2021-05-23T07:57:39Z</time>
      </trkpt>
      <trkpt lat="42.6770440" lon="-8.6378100">
        <ele>130.8</ele>
        <time>2021-05-23T07:57:40Z</time>
      </trkpt>
      <trkpt lat="42.6770470" lon="-8.6377920">
        <ele>130.7</ele>
        <time>2021-05-23T07:57:41Z</time>
      </trkpt>
      <trkpt lat="42.6770630" lon="-8.6377790">
        <ele>130.6</ele>
        <time>2021-05-23T07:57:42Z</time>
      </trkpt>
      <trkpt lat="42.6770700" lon="-8.6377620">
        <ele>130.5</ele>
        <time>2021-05-23T07:57:43Z</time>
      </trkpt>
      <trkpt lat="42.6770700" lon="-8.6377530">
        <ele>130.4</ele>
        <time>2021-05-23T07:57:44Z</time>
      </trkpt>
      <trkpt lat="42.6770800" lon="-8.6377400">
        <ele>130.3</ele>
        <time>2021-05-23T07:57:45Z</time>
      </trkpt>
      <trkpt lat="42.6770890" lon="-8.6377240">
        <ele>130.2</ele>
        <time>2021-05-23T07:57:46Z</time>
      </trkpt>
      <trkpt lat="42.6771010" lon="-8.6376970">
        <ele>130.0</ele>
        <time>2021-05-23T07:57:47Z</time>
      </trkpt>
      <trkpt lat="42.6771060" lon="-8.6376880">
        <ele>129.9</ele>
        <time>2021-05-23T07:57:48Z</time>
      </trkpt>
      <trkpt lat="42.6771110" lon="-8.6376790">
        <ele>129.9</ele>
        <time>2021-05-23T07:57:49Z</time>
      </trkpt>
      <trkpt lat="42.6771150" lon="-8.6376520">
        <ele>129.7</ele>
        <time>2021-05-23T07:57:50Z</time>
      </trkpt>
      <trkpt lat="42.6771190" lon="-8.6376410">
        <ele>129.6</ele>
        <time>2021-05-23T07:57:51Z</time>
      </trkpt>
      <trkpt lat="42.6771220" lon="-8.6376290">
        <ele>129.5</ele>
        <time>2021-05-23T07:57:52Z</time>
      </trkpt>
      <trkpt lat="42.6771250" lon="-8.6376140">
        <ele>129.4</ele>
        <time>2021-05-23T07:57:53Z</time>
      </trkpt>
      <trkpt lat="42.6771190" lon="-8.6376050">
        <ele>129.3</ele>
        <time>2021-05-23T07:57:54Z</time>
      </trkpt>
      <trkpt lat="42.6771260" lon="-8.6375820">
        <ele>129.2</ele>
        <time>2021-05-23T07:57:55Z</time>
      </trkpt>
      <trkpt lat="42.6771400" lon="-8.6375570">
        <ele>128.9</ele>
        <time>2021-05-23T07:57:56Z</time>
      </trkpt>
      <trkpt lat="42.6771420" lon="-8.6375480">
        <ele>128.9</ele>
        <time>2021-05-23T07:57:57Z</time>
      </trkpt>
      <trkpt lat="42.6771440" lon="-8.6375390">
        <ele>128.8</ele>
        <time>2021-05-23T07:57:58Z</time>
      </trkpt>
      <trkpt lat="42.6771670" lon="-8.6375100">
        <ele>128.5</ele>
        <time>2021-05-23T07:57:59Z</time>
      </trkpt>
      <trkpt lat="42.6771710" lon="-8.6375030">
        <ele>128.4</ele>
        <time>2021-05-23T07:58:00Z</time>
      </trkpt>
      <trkpt lat="42.6771720" lon="-8.6374880">
        <ele>128.3</ele>
        <time>2021-05-23T07:58:01Z</time>
      </trkpt>
      <trkpt lat="42.6771750" lon="-8.6374780">
        <ele>128.3</ele>
        <time>2021-05-23T07:58:02Z</time>
      </trkpt>
      <trkpt lat="42.6771780" lon="-8.6374630">
        <ele>128.1</ele>
        <time>2021-05-23T07:58:03Z</time>
      </trkpt>
      <trkpt lat="42.6771820" lon="-8.6374380">
        <ele>127.9</ele>
        <time>2021-05-23T07:58:04Z</time>
      </trkpt>
      <trkpt lat="42.6771890" lon="-8.6374260">
        <ele>127.8</ele>
        <time>2021-05-23T07:58:05Z</time>
      </trkpt>
      <trkpt lat="42.6771950" lon="-8.6374130">
        <ele>127.7</ele>
        <time>2021-05-23T07:58:06Z</time>
      </trkpt>
      <trkpt lat="42.6772010" lon="-8.6374000">
        <ele>127.6</ele>
        <time>2021-05-23T07:58:07Z</time>
      </trkpt>
      <trkpt lat="42.6772040" lon="-8.6373890">
        <ele>127.5</ele>
        <time>2021-05-23T07:58:08Z</time>
      </trkpt>
      <trkpt lat="42.6772140" lon="-8.6373650">
        <ele>127.2</ele>
        <time>2021-05-23T07:58:09Z</time>
      </trkpt>
      <trkpt lat="42.6772140" lon="-8.6373570">
        <ele>127.2</ele>
        <time>2021-05-23T07:58:10Z</time>
      </trkpt>
      <trkpt lat="42.6772230" lon="-8.6373430">
        <ele>127.0</ele>
        <time>2021-05-23T07:58:11Z</time>
      </trkpt>
      <trkpt lat="42.6772330" lon="-8.6373310">
        <ele>126.9</ele>
        <time>2021-05-23T07:58:12Z</time>
      </trkpt>
      <trkpt lat="42.6772390" lon="-8.6373210">
        <ele>126.8</ele>
        <time>2021-05-23T07:58:13Z</time>
      </trkpt>
      <trkpt lat="42.6772560" lon="-8.6372990">
        <ele>126.5</ele>
        <time>2021-05-23T07:58:14Z</time>
      </trkpt>
      <trkpt lat="42.6772700" lon="-8.6372920">
        <ele>126.3</ele>
        <time>2021-05-23T07:58:15Z</time>
      </trkpt>
      <trkpt lat="42.6772790" lon="-8.6372780">
        <ele>126.1</ele>
        <time>2021-05-23T07:58:16Z</time>
      </trkpt>
      <trkpt lat="42.6772860" lon="-8.6372660">
        <ele>126.0</ele>
        <time>2021-05-23T07:58:17Z</time>
      </trkpt>
      <trkpt lat="42.6772930" lon="-8.6372530">
        <ele>125.9</ele>
        <time>2021-05-23T07:58:18Z</time>
      </trkpt>
      <trkpt lat="42.6773050" lon="-8.6372450">
        <ele>125.7</ele>
        <time>2021-05-23T07:58:19Z</time>
      </trkpt>
      <trkpt lat="42.6773100" lon="-8.6372340">
        <ele>125.6</ele>
        <time>2021-05-23T07:58:20Z</time>
      </trkpt>
      <trkpt lat="42.6773220" lon="-8.6372200">
        <ele>125.4</ele>
        <time>2021-05-23T07:58:21Z</time>
      </trkpt>
      <trkpt lat="42.6773280" lon="-8.6372120">
        <ele>125.3</ele>
        <time>2021-05-23T07:58:22Z</time>
      </trkpt>
      <trkpt lat="42.6773480" lon="-8.6371950">
        <ele>125.0</ele>
        <time>2021-05-23T07:58:23Z</time>
      </trkpt>
      <trkpt lat="42.6773540" lon="-8.6371910">
        <ele>125.0</ele>
        <time>2021-05-23T07:58:24Z</time>
      </trkpt>
      <trkpt lat="42.6773610" lon="-8.6371880">
        <ele>125.0</ele>
        <time>2021-05-23T07:58:25Z</time>
      </trkpt>
      <trkpt lat="42.6773780" lon="-8.6371810">
        <ele>124.8</ele>
        <time>2021-05-23T07:58:26Z</time>
      </trkpt>
      <trkpt lat="42.6773890" lon="-8.6371730">
        <ele>124.7</ele>
        <time>2021-05-23T07:58:27Z</time>
      </trkpt>
      <trkpt lat="42.6774010" lon="-8.6371690">
        <ele>124.6</ele>
        <time>2021-05-23T07:58:28Z</time>
      </trkpt>
      <trkpt lat="42.6774100" lon="-8.6371650">
        <ele>124.5</ele>
        <time>2021-05-23T07:58:29Z</time>
      </trkpt>
      <trkpt lat="42.6774150" lon="-8.6371650">
        <ele>124.5</ele>
        <time>2021-05-23T07:58:30Z</time>
      </trkpt>
      <trkpt lat="42.6774240" lon="-8.6371630">
        <ele>124.4</ele>
        <time>2021-05-23T07:58:31Z</time>
      </trkpt>
      <trkpt lat="42.6774290" lon="-8.6371640">
        <ele>124.4</ele>
        <time>2021-05-23T07:58:32Z</time>
      </trkpt>
      <trkpt lat="42.6774410" lon="-8.6371570">
        <ele>124.3</ele>
        <time>2021-05-23T07:58:33Z</time>
      </trkpt>
      <trkpt lat="42.6774530" lon="-8.6371510">
        <ele>124.2</ele>
        <time>2021-05-23T07:58:34Z</time>
      </trkpt>
      <trkpt lat="42.6774740" lon="-8.6371450">
        <ele>124.0</ele>
        <time>2021-05-23T07:58:35Z</time>
      </trkpt>
      <trkpt lat="42.6774820" lon="-8.6371420">
        <ele>123.9</ele>
        <time>2021-05-23T07:58:36Z</time>
      </trkpt>
      <trkpt lat="42.6774890" lon="-8.6371390">
        <ele>123.9</ele>
        <time>2021-05-23T07:58:37Z</time>
      </trkpt>
      <trkpt lat="42.6775080" lon="-8.6371310">
        <ele>123.7</ele>
        <time>2021-05-23T07:58:38Z</time>
      </trkpt>
      <trkpt lat="42.6775140" lon="-8.6371310">
        <ele>123.6</ele>
        <time>2021-05-23T07:58:39Z</time>
      </trkpt>
      <trkpt lat="42.6775210" lon="-8.6371310">
        <ele>123.6</ele>
        <time>2021-05-23T07:58:40Z</time>
      </trkpt>
      <trkpt lat="42.6775270" lon="-8.6371310">
        <ele>123.5</ele>
        <time>2021-05-23T07:58:41Z</time>
      </trkpt>
      <trkpt lat="42.6775320" lon="-8.6371280">
        <ele>123.6</ele>
        <time>2021-05-23T07:58:42Z</time>
      </trkpt>
      <trkpt lat="42.6775430" lon="-8.6371260">
        <ele>123.5</ele>
        <time>2021-05-23T07:58:43Z</time>
      </trkpt>
      <trkpt lat="42.6775580" lon="-8.6371240">
        <ele>123.4</ele>
        <time>2021-05-23T07:58:44Z</time>
      </trkpt>
      <trkpt lat="42.6775730" lon="-8.6371250">
        <ele>123.2</ele>
        <time>2021-05-23T07:58:45Z</time>
      </trkpt>
      <trkpt lat="42.6775760" lon="-8.6371280">
        <ele>123.2</ele>
        <time>2021-05-23T07:58:46Z</time>
      </trkpt>
      <trkpt lat="42.6775930" lon="-8.6371320">
        <ele>123.1</ele>
        <time>2021-05-23T07:58:47Z</time>
      </trkpt>
      <trkpt lat="42.6776090" lon="-8.6371330">
        <ele>123.0</ele>
        <time>2021-05-23T07:58:48Z</time>
      </trkpt>
      <trkpt lat="42.6776120" lon="-8.6371330">
        <ele>122.9</ele>
        <time>2021-05-23T07:58:49Z</time>
      </trkpt>
      <trkpt lat="42.6776210" lon="-8.6371300">
        <ele>122.9</ele>
        <time>2021-05-23T07:58:50Z</time>
      </trkpt>
      <trkpt lat="42.6776420" lon="-8.6371300">
        <ele>122.7</ele>
        <time>2021-05-23T07:58:51Z</time>
      </trkpt>
      <trkpt lat="42.6776510" lon="-8.6371270">
        <ele>122.6</ele>
        <time>2021-05-23T07:58:52Z</time>
      </trkpt>
      <trkpt lat="42.6776600" lon="-8.6371250">
        <ele>122.6</ele>
        <time>2021-05-23T07:58:53Z</time>
      </trkpt>
      <trkpt lat="42.6776690" lon="-8.6371270">
        <ele>122.5</ele>
        <time>2021-05-23T07:58:54Z</time>
      </trkpt>
      <trkpt lat="42.6776760" lon="-8.6371290">
        <ele>122.5</ele>
        <time>2021-05-23T07:58:55Z</time>
      </trkpt>
      <trkpt lat="42.6776800" lon="-8.6371280">
        <ele>122.5</ele>
        <time>2021-05-23T07:58:56Z</time>
      </trkpt>
      <trkpt lat="42.6776960" lon="-8.6371230">
        <ele>122.4</ele>
        <time>2021-05-23T07:58:57Z</time>
      </trkpt>
      <trkpt lat="42.6777130" lon="-8.6371270">
        <ele>122.2</ele>
        <time>2021-05-23T07:58:58Z</time>
      </trkpt>
      <trkpt lat="42.6777210" lon="-8.6371270">
        <ele>122.2</ele>
        <time>2021-05-23T07:58:59Z</time>
      </trkpt>
      <trkpt lat="42.6777300" lon="-8.6371260">
        <ele>122.1</ele>
        <time>2021-05-23T07:59:00Z</time>
      </trkpt>
      <trkpt lat="42.6777380" lon="-8.6371260">
        <ele>122.1</ele>
        <time>2021-05-23T07:59:01Z</time>
      </trkpt>
      <trkpt lat="42.6777460" lon="-8.6371270">
        <ele>122.1</ele>
        <time>2021-05-23T07:59:02Z</time>
      </trkpt>
      <trkpt lat="42.6777540" lon="-8.6371270">
        <ele>122.0</ele>
        <time>2021-05-23T07:59:03Z</time>
      </trkpt>
      <trkpt lat="42.6777610" lon="-8.6371270">
        <ele>122.0</ele>
        <time>2021-05-23T07:59:04Z</time>
      </trkpt>
      <trkpt lat="42.6777690" lon="-8.6371270">
        <ele>122.0</ele>
        <time>2021-05-23T07:59:05Z</time>
      </trkpt>
      <trkpt lat="42.6777760" lon="-8.6371270">
        <ele>122.0</ele>
        <time>2021-05-23T07:59:06Z</time>
      </trkpt>
      <trkpt lat="42.6777940" lon="-8.6371320">
        <ele>121.8</ele>
        <time>2021-05-23T07:59:07Z</time>
      </trkpt>
      <trkpt lat="42.6778100" lon="-8.6371310">
        <ele>121.7</ele>
        <time>2021-05-23T07:59:08Z</time>
      </trkpt>
      <trkpt lat="42.6778250" lon="-8.6371240">
        <ele>121.6</ele>
        <time>2021-05-23T07:59:09Z</time>
      </trkpt>
      <trkpt lat="42.6778450" lon="-8.6371280">
        <ele>121.4</ele>
        <time>2021-05-23T07:59:10Z</time>
      </trkpt>
      <trkpt lat="42.6778540" lon="-8.6371330">
        <ele>121.4</ele>
        <time>2021-05-23T07:59:11Z</time>
      </trkpt>
      <trkpt lat="42.6778530" lon="-8.6371340">
        <ele>121.4</ele>
        <time>2021-05-23T07:59:12Z</time>
      </trkpt>
      <trkpt lat="42.6778630" lon="-8.6371350">
        <ele>121.4</ele>
        <time>2021-05-23T07:59:13Z</time>
      </trkpt>
      <trkpt lat="42.6778780" lon="-8.6371330">
        <ele>121.3</ele>
        <time>2021-05-23T07:59:14Z</time>
      </trkpt>
      <trkpt lat="42.6778970" lon="-8.6371340">
        <ele>121.1</ele>
        <time>2021-05-23T07:59:15Z</time>
      </trkpt>
      <trkpt lat="42.6779090" lon="-8.6371360">
        <ele>121.1</ele>
        <time>2021-05-23T07:59:16Z</time>
      </trkpt>
      <trkpt lat="42.6779200" lon="-8.6371370">
        <ele>121.0</ele>
        <time>2021-05-23T07:59:17Z</time>
      </trkpt>
      <trkpt lat="42.6779380" lon="-8.6371340">
        <ele>120.8</ele>
        <time>2021-05-23T07:59:18Z</time>
      </trkpt>
      <trkpt lat="42.6779540" lon="-8.6371300">
        <ele>120.7</ele>
        <time>2021-05-23T07:59:19Z</time>
      </trkpt>
      <trkpt lat="42.6779620" lon="-8.6371280">
        <ele>120.7</ele>
        <time>2021-05-23T07:59:20Z</time>
      </trkpt>
      <trkpt lat="42.6779650" lon="-8.6371300">
        <ele>120.7</ele>
        <time>2021-05-23T07:59:21Z</time>
      </trkpt>
      <trkpt lat="42.6779740" lon="-8.6371330">
        <ele>120.7</ele>
        <time>2021-05-23T07:59:22Z</time>
      </trkpt>
      <trkpt lat="42.6779870" lon="-8.6371290">
        <ele>120.6</ele>
        <time>2021-05-23T07:59:23Z</time>
      </trkpt>
      <trkpt lat="42.6780050" lon="-8.6371280">
        <ele>120.5</ele>
        <time>2021-05-23T07:59:24Z</time>
      </trkpt>
      <trkpt lat="42.6780110" lon="-8.6371210">
        <ele>120.5</ele>
        <time>2021-05-23T07:59:25Z</time>
      </trkpt>
      <trkpt lat="42.6780160" lon="-8.6371100">
        <ele>120.4</ele>
        <time>2021-05-23T07:59:26Z</time>
      </trkpt>
      <trkpt lat="42.6780240" lon="-8.6371000">
        <ele>120.4</ele>
        <time>2021-05-23T07:59:27Z</time>
      </trkpt>
      <trkpt lat="42.6780380" lon="-8.6370940">
        <ele>120.3</ele>
        <time>2021-05-23T07:59:28Z</time>
      </trkpt>
      <trkpt lat="42.6780480" lon="-8.6370920">
        <ele>120.3</ele>
        <time>2021-05-23T07:59:29Z</time>
      </trkpt>
      <trkpt lat="42.6780700" lon="-8.6370870">
        <ele>120.1</ele>
        <time>2021-05-23T07:59:30Z</time>
      </trkpt>
      <trkpt lat="42.6780800" lon="-8.6370870">
        <ele>120.0</ele>
        <time>2021-05-23T07:59:31Z</time>
      </trkpt>
      <trkpt lat="42.6780900" lon="-8.6370860">
        <ele>120.0</ele>
        <time>2021-05-23T07:59:32Z</time>
      </trkpt>
      <trkpt lat="42.6781080" lon="-8.6370750">
        <ele>119.9</ele>
        <time>2021-05-23T07:59:33Z</time>
      </trkpt>
      <trkpt lat="42.6781220" lon="-8.6370650">
        <ele>119.8</ele>
        <time>2021-05-23T07:59:34Z</time>
      </trkpt>
      <trkpt lat="42.6781350" lon="-8.6370620">
        <ele>119.7</ele>
        <time>2021-05-23T07:59:35Z</time>
      </trkpt>
      <trkpt lat="42.6781500" lon="-8.6370660">
        <ele>119.7</ele>
        <time>2021-05-23T07:59:36Z</time>
      </trkpt>
      <trkpt lat="42.6781610" lon="-8.6370640">
        <ele>119.6</ele>
        <time>2021-05-23T07:59:37Z</time>
      </trkpt>
      <trkpt lat="42.6781700" lon="-8.6370620">
        <ele>119.6</ele>
        <time>2021-05-23T07:59:38Z</time>
      </trkpt>
      <trkpt lat="42.6781840" lon="-8.6370530">
        <ele>119.6</ele>
        <time>2021-05-23T07:59:39Z</time>
      </trkpt>
      <trkpt lat="42.6782030" lon="-8.6370460">
        <ele>119.4</ele>
        <time>2021-05-23T07:59:40Z</time>
      </trkpt>
      <trkpt lat="42.6782140" lon="-8.6370430">
        <ele>119.4</ele>
        <time>2021-05-23T07:59:41Z</time>
      </trkpt>
      <trkpt lat="42.6782270" lon="-8.6370420">
        <ele>119.3</ele>
        <time>2021-05-23T07:59:42Z</time>
      </trkpt>
      <trkpt lat="42.6782430" lon="-8.6370370">
        <ele>119.2</ele>
        <time>2021-05-23T07:59:43Z</time>
      </trkpt>
      <trkpt lat="42.6782520" lon="-8.6370360">
        <ele>119.2</ele>
        <time>2021-05-23T07:59:44Z</time>
      </trkpt>
      <trkpt lat="42.6782660" lon="-8.6370340">
        <ele>119.2</ele>
        <time>2021-05-23T07:59:45Z</time>
      </trkpt>
      <trkpt lat="42.6782740" lon="-8.6370300">
        <ele>119.2</ele>
        <time>2021-05-23T07:59:46Z</time>
      </trkpt>
      <trkpt lat="42.6782850" lon="-8.6370240">
        <ele>119.2</ele>
        <time>2021-05-23T07:59:47Z</time>
      </trkpt>
      <trkpt lat="42.6782940" lon="-8.6370190">
        <ele>119.1</ele>
        <time>2021-05-23T07:59:48Z</time>
      </trkpt>
      <trkpt lat="42.6783070" lon="-8.6370150">
        <ele>119.1</ele>
        <time>2021-05-23T07:59:49Z</time>
      </trkpt>
      <trkpt lat="42.6783120" lon="-8.6370130">
        <ele>119.1</ele>
        <time>2021-05-23T07:59:50Z</time>
      </trkpt>
      <trkpt lat="42.6783310" lon="-8.6370080">
        <ele>118.9</ele>
        <time>2021-05-23T07:59:51Z</time>
      </trkpt>
      <trkpt lat="42.6783420" lon="-8.6370060">
        <ele>118.9</ele>
        <time>2021-05-23T07:59:52Z</time>
      </trkpt>
      <trkpt lat="42.6783530" lon="-8.6370050">
        <ele>118.9</ele>
        <time>2021-05-23T07:59:53Z</time>
      </trkpt>
      <trkpt lat="42.6783760" lon="-8.6370000">
        <ele>118.7</ele>
        <time>2021-05-23T07:59:54Z</time>
      </trkpt>
      <trkpt lat="42.6783980" lon="-8.6369980">
        <ele>118.6</ele>
        <time>2021-05-23T07:59:55Z</time>
      </trkpt>
      <trkpt lat="42.6784080" lon="-8.6369970">
        <ele>118.6</ele>
        <time>2021-05-23T07:59:56Z</time>
      </trkpt>
      <trkpt lat="42.6784170" lon="-8.6369950">
        <ele>118.6</ele>
        <time>2021-05-23T07:59:57Z</time>
      </trkpt>
      <trkpt lat="42.6784360" lon="-8.6369930">
        <ele>118.5</ele>
        <time>2021-05-23T07:59:58Z</time>
      </trkpt>
      <trkpt lat="42.6784430" lon="-8.6369930">
        <ele>118.5</ele>
        <time>2021-05-23T07:59:59Z</time>
      </trkpt>
      <trkpt lat="42.6784490" lon="-8.6369940">
        <ele>118.5</ele>
        <time>2021-05-23T08:00:00Z</time>
      </trkpt>
      <trkpt lat="42.6784560" lon="-8.6369940">
        <ele>118.5</ele>
        <time>2021-05-23T08:00:01Z</time>
      </trkpt>
      <trkpt lat="42.6784690" lon="-8.6369930">
        <ele>118.5</ele>
        <time>2021-05-23T08:00:02Z</time>
      </trkpt>
      <trkpt lat="42.6784830" lon="-8.6369940">
        <ele>118.3</ele>
        <time>2021-05-23T08:00:03Z</time>
      </trkpt>
      <trkpt lat="42.6785020" lon="-8.6369940">
        <ele>118.1</ele>
        <time>2021-05-23T08:00:04Z</time>
      </trkpt>
      <trkpt lat="42.6785110" lon="-8.6369930">
        <ele>118.0</ele>
        <time>2021-05-23T08:00:05Z</time>
      </trkpt>
      <trkpt lat="42.6785210" lon="-8.6369920">
        <ele>117.9</ele>
        <time>2021-05-23T08:00:06Z</time>
      </trkpt>
      <trkpt lat="42.6785430" lon="-8.6369910">
        <ele>117.7</ele>
        <time>2021-05-23T08:00:07Z</time>
      </trkpt>
      <trkpt lat="42.6785530" lon="-8.6369920">
        <ele>117.5</ele>
        <time>2021-05-23T08:00:08Z</time>
      </trkpt>
      <trkpt lat="42.6785640" lon="-8.6369940">
        <ele>117.4</ele>
        <time>2021-05-23T08:00:09Z</time>
      </trkpt>
      <trkpt lat="42.6785620" lon="-8.6369950">
        <ele>117.4</ele>
        <time>2021-05-23T08:00:10Z</time>
      </trkpt>
      <trkpt lat="42.6785820" lon="-8.6370000">
        <ele>117.2</ele>
        <time>2021-05-23T08:00:11Z</time>
      </trkpt>
      <trkpt lat="42.6785930" lon="-8.6370000">
        <ele>117.0</ele>
        <time>2021-05-23T08:00:12Z</time>
      </trkpt>
      <trkpt lat="42.6786020" lon="-8.6370020">
        <ele>116.9</ele>
        <time>2021-05-23T08:00:13Z</time>
      </trkpt>
      <trkpt lat="42.6786250" lon="-8.6370110">
        <ele>116.7</ele>
        <time>2021-05-23T08:00:14Z</time>
      </trkpt>
      <trkpt lat="42.6786460" lon="-8.6370230">
        <ele>116.4</ele>
        <time>2021-05-23T08:00:15Z</time>
      </trkpt>
      <trkpt lat="42.6786530" lon="-8.6370280">
        <ele>116.3</ele>
        <time>2021-05-23T08:00:16Z</time>
      </trkpt>
      <trkpt lat="42.6786590" lon="-8.6370320">
        <ele>116.2</ele>
        <time>2021-05-23T08:00:17Z</time>
      </trkpt>
      <trkpt lat="42.6786670" lon="-8.6370450">
        <ele>116.1</ele>
        <time>2021-05-23T08:00:18Z</time>
      </trkpt>
      <trkpt lat="42.6786700" lon="-8.6370500">
        <ele>116.0</ele>
        <time>2021-05-23T08:00:19Z</time>
      </trkpt>
      <trkpt lat="42.6786740" lon="-8.6370550">
        <ele>116.0</ele>
        <time>2021-05-23T08:00:20Z</time>
      </trkpt>
      <trkpt lat="42.6786780" lon="-8.6370610">
        <ele>115.9</ele>
        <time>2021-05-23T08:00:21Z</time>
      </trkpt>
      <trkpt lat="42.6786810" lon="-8.6370660">
        <ele>115.8</ele>
        <time>2021-05-23T08:00:22Z</time>
      </trkpt>
      <trkpt lat="42.6786850" lon="-8.6370710">
        <ele>115.8</ele>
        <time>2021-05-23T08:00:23Z</time>
      </trkpt>
      <trkpt lat="42.6787000" lon="-8.6370830">
        <ele>115.6</ele>
        <time>2021-05-23T08:00:24Z</time>
      </trkpt>
      <trkpt lat="42.6787110" lon="-8.6370920">
        <ele>115.4</ele>
        <time>2021-05-23T08:00:25Z</time>
      </trkpt>
      <trkpt lat="42.6787210" lon="-8.6371000">
        <ele>115.3</ele>
        <time>2021-05-23T08:00:26Z</time>
      </trkpt>
      <trkpt lat="42.6787320" lon="-8.6371090">
        <ele>115.1</ele>
        <time>2021-05-23T08:00:27Z</time>
      </trkpt>
      <trkpt lat="42.6787260" lon="-8.6371210">
        <ele>115.0</ele>
        <time>2021-05-23T08:00:28Z</time>
      </trkpt>
      <trkpt lat="42.6787360" lon="-8.6371360">
        <ele>114.8</ele>
        <time>2021-05-23T08:00:29Z</time>
      </trkpt>
      <trkpt lat="42.6787420" lon="-8.6371470">
        <ele>114.7</ele>
        <time>2021-05-23T08:00:30Z</time>
      </trkpt>
      <trkpt lat="42.6787470" lon="-8.6371560">
        <ele>114.6</ele>
        <time>2021-05-23T08:00:31Z</time>
      </trkpt>
      <trkpt lat="42.6787600" lon="-8.6371720">
        <ele>114.4</ele>
        <time>2021-05-23T08:00:32Z</time>
      </trkpt>
      <trkpt lat="42.6787640" lon="-8.6371870">
        <ele>114.3</ele>
        <time>2021-05-23T08:00:33Z</time>
      </trkpt>
      <trkpt lat="42.6787680" lon="-8.6371960">
        <ele>114.2</ele>
        <time>2021-05-23T08:00:34Z</time>
      </trkpt>
      <trkpt lat="42.6787720" lon="-8.6372120">
        <ele>114.0</ele>
        <time>2021-05-23T08:00:35Z</time>
      </trkpt>
      <trkpt lat="42.6787750" lon="-8.6372290">
        <ele>113.9</ele>
        <time>2021-05-23T08:00:36Z</time>
      </trkpt>
      <trkpt lat="42.6787770" lon="-8.6372410">
        <ele>113.8</ele>
        <time>2021-05-23T08:00:37Z</time>
      </trkpt>
      <trkpt lat="42.6787800" lon="-8.6372520">
        <ele>113.7</ele>
        <time>2021-05-23T08:00:38Z</time>
      </trkpt>
      <trkpt lat="42.6787820" lon="-8.6372640">
        <ele>113.6</ele>
        <time>2021-05-23T08:00:39Z</time>
      </trkpt>
      <trkpt lat="42.6787890" lon="-8.6372810">
        <ele>113.4</ele>
        <time>2021-05-23T08:00:40Z</time>
      </trkpt>
      <trkpt lat="42.6787920" lon="-8.6372920">
        <ele>113.3</ele>
        <time>2021-05-23T08:00:41Z</time>
      </trkpt>
      <trkpt lat="42.6787970" lon="-8.6373080">
        <ele>113.2</ele>
        <time>2021-05-23T08:00:42Z</time>
      </trkpt>
      <trkpt lat="42.6788020" lon="-8.6373200">
        <ele>113.1</ele>
        <time>2021-05-23T08:00:43Z</time>
      </trkpt>
      <trkpt lat="42.6788060" lon="-8.6373350">
        <ele>113.0</ele>
        <time>2021-05-23T08:00:44Z</time>
      </trkpt>
      <trkpt lat="42.6788190" lon="-8.6373440">
        <ele>112.8</ele>
        <time>2021-05-23T08:00:45Z</time>
      </trkpt>
      <trkpt lat="42.6788250" lon="-8.6373540">
        <ele>112.7</ele>
        <time>2021-05-23T08:00:46Z</time>
      </trkpt>
      <trkpt lat="42.6788380" lon="-8.6373820">
        <ele>112.5</ele>
        <time>2021-05-23T08:00:47Z</time>
      </trkpt>
      <trkpt lat="42.6788410" lon="-8.6373900">
        <ele>112.4</ele>
        <time>2021-05-23T08:00:48Z</time>
      </trkpt>
      <trkpt lat="42.6788430" lon="-8.6373880">
        <ele>112.4</ele>
        <time>2021-05-23T08:00:49Z</time>
      </trkpt>
      <trkpt lat="42.6788500" lon="-8.6374000">
        <ele>112.3</ele>
        <time>2021-05-23T08:00:50Z</time>
      </trkpt>
      <trkpt lat="42.6788630" lon="-8.6373950">
        <ele>112.1</ele>
        <time>2021-05-23T08:00:51Z</time>
      </trkpt>
      <trkpt lat="42.6788710" lon="-8.6373950">
        <ele>112.0</ele>
        <time>2021-05-23T08:00:52Z</time>
      </trkpt>
      <trkpt lat="42.6788850" lon="-8.6373970">
        <ele>111.9</ele>
        <time>2021-05-23T08:00:53Z</time>
      </trkpt>
      <trkpt lat="42.6788860" lon="-8.6373980">
        <ele>111.9</ele>
        <time>2021-05-23T08:00:54Z</time>
      </trkpt>
      <trkpt lat="42.6788860" lon="-8.6373980">
        <ele>111.9</ele>
        <time>2021-05-23T08:00:55Z</time>
      </trkpt>
      <trkpt lat="42.6788860" lon="-8.6373980">
        <ele>111.9</ele>
        <time>2021-05-23T08:00:56Z</time>
      </trkpt>
      <trkpt lat="42.6788860" lon="-8.6373990">
        <ele>111.9</ele>
        <time>2021-05-23T08:00:57Z</time>
      </trkpt>
      <trkpt lat="42.6788870" lon="-8.6373990">
        <ele>111.9</ele>
        <time>2021-05-23T08:00:58Z</time>
      </trkpt>
      <trkpt lat="42.6788870" lon="-8.6373990">
        <ele>111.9</ele>
        <time>2021-05-23T08:00:59Z</time>
      </trkpt>
      <trkpt lat="42.6788870" lon="-8.6373990">
        <ele>111.9</ele>
        <time>2021-05-23T08:01:00Z</time>
      </trkpt>
      <trkpt lat="42.6788880" lon="-8.6374000">
        <ele>111.9</ele>
        <time>2021-05-23T08:01:01Z</time>
      </trkpt>
      <trkpt lat="42.6788880" lon="-8.6374000">
        <ele>111.9</ele>
        <time>2021-05-23T08:01:02Z</time>
      </trkpt>
      <trkpt lat="42.6788880" lon="-8.6374000">
        <ele>111.9</ele>
        <time>2021-05-23T08:01:03Z</time>
      </trkpt>
      <trkpt lat="42.6788880" lon="-8.6374010">
        <ele>111.8</ele>
        <time>2021-05-23T08:01:04Z</time>
      </trkpt>
      <trkpt lat="42.6788890" lon="-8.6374010">
        <ele>111.8</ele>
        <time>2021-05-23T08:01:05Z</time>
      </trkpt>
      <trkpt lat="42.6788890" lon="-8.6374010">
        <ele>111.8</ele>
        <time>2021-05-23T08:01:06Z</time>
      </trkpt>
      <trkpt lat="42.6788890" lon="-8.6374020">
        <ele>111.8</ele>
        <time>2021-05-23T08:01:07Z</time>
      </trkpt>
      <trkpt lat="42.6788890" lon="-8.6374020">
        <ele>111.8</ele>
        <time>2021-05-23T08:01:08Z</time>
      </trkpt>
      <trkpt lat="42.6788900" lon="-8.6374020">
        <ele>111.8</ele>
        <time>2021-05-23T08:01:09Z</time>
      </trkpt>
      <trkpt lat="42.6788900" lon="-8.6374020">
        <ele>111.8</ele>
        <time>2021-05-23T08:01:10Z</time>
      </trkpt>
      <trkpt lat="42.6788900" lon="-8.6374030">
        <ele>111.8</ele>
        <time>2021-05-23T08:01:11Z</time>
      </trkpt>
      <trkpt lat="42.6788910" lon="-8.6374030">
        <ele>111.8</ele>
        <time>2021-05-23T08:01:12Z</time>
      </trkpt>
      <trkpt lat="42.6788910" lon="-8.6374030">
        <ele>111.8</ele>
        <time>2021-05-23T08:01:13Z</time>
      </trkpt>
      <trkpt lat="42.6788910" lon="-8.6374040">
        <ele>111.8</ele>
        <time>2021-05-23T08:01:14Z</time>
      </trkpt>
      <trkpt lat="42.6788910" lon="-8.6374040">
        <ele>111.8</ele>
        <time>2021-05-23T08:01:15Z</time>
      </trkpt>
      <trkpt lat="42.6788920" lon="-8.6374040">
        <ele>111.8</ele>
        <time>2021-05-23T08:01:16Z</time>
      </trkpt>
      <trkpt lat="42.6788920" lon="-8.6374050">
        <ele>111.8</ele>
        <time>2021-05-23T08:01:17Z</time>
      </trkpt>
      <trkpt lat="42.6788920" lon="-8.6374050">
        <ele>111.8</ele>
        <time>2021-05-23T08:01:18Z</time>
      </trkpt>
      <trkpt lat="42.6788930" lon="-8.6374050">
        <ele>111.8</ele>
        <time>2021-05-23T08:01:19Z</time>
      </trkpt>
      <trkpt lat="42.6788930" lon="-8.6374060">
        <ele>111.8</ele>
        <time>2021-05-23T08:01:20Z</time>
      </trkpt>
      <trkpt lat="42.6788930" lon="-8.6374060">
        <ele>111.8</ele>
        <time>2021-05-23T08:01:21Z</time>
      </trkpt>
      <trkpt lat="42.6788930" lon="-8.6374060">
        <ele>111.8</ele>
        <time>2021-05-23T08:01:22Z</time>
      </trkpt>
      <trkpt lat="42.6788940" lon="-8.6374060">
        <ele>111.7</ele>
        <time>2021-05-23T08:01:23Z</time>
      </trkpt>
      <trkpt lat="42.6788940" lon="-8.6374070">
        <ele>111.7</ele>
        <time>2021-05-23T08:01:24Z</time>
      </trkpt>
      <trkpt lat="42.6788940" lon="-8.6374070">
        <ele>111.7</ele>
        <time>2021-05-23T08:01:25Z</time>
      </trkpt>
      <trkpt lat="42.6788950" lon="-8.6374070">
        <ele>111.7</ele>
        <time>2021-05-23T08:01:26Z</time>
      </trkpt>
      <trkpt lat="42.6788950" lon="-8.6374080">
        <ele>111.7</ele>
        <time>2021-05-23T08:01:27Z</time>
      </trkpt>
      <trkpt lat="42.6788950" lon="-8.6374080">
        <ele>111.7</ele>
        <time>2021-05-23T08:01:28Z</time>
      </trkpt>
      <trkpt lat="42.6788950" lon="-8.6374080">
        <ele>111.7</ele>
        <time>2021-05-23T08:01:29Z</time>
      </trkpt>
      <trkpt lat="42.6788960" lon="-8.6374090">
        <ele>111.7</ele>
        <time>2021-05-23T08:01:30Z</time>
      </trkpt>
      <trkpt lat="42.6788960" lon="-8.6374090">
        <ele>111.7</ele>
        <time>2021-05-23T08:01:31Z</time>
      </trkpt>
      <trkpt lat="42.6788960" lon="-8.6374090">
        <ele>111.7</ele>
        <time>2021-05-23T08:01:32Z</time>
      </trkpt>
      <trkpt lat="42.6788970" lon="-8.6374090">
        <ele>111.7</ele>
        <time>2021-05-23T08:01:33Z</time>
      </trkpt>
      <trkpt lat="42.6788970" lon="-8.6374100">
        <ele>111.7</ele>
        <time>2021-05-23T08:01:34Z</time>
      </trkpt>
      <trkpt lat="42.6788970" lon="-8.6374100">
        <ele>111.7</ele>
        <time>2021-05-23T08:01:35Z</time>
      </trkpt>
      <trkpt lat="42.6788970" lon="-8.6374100">
        <ele>111.7</ele>
        <time>2021-05-23T08:01:36Z</time>
      </trkpt>
      <trkpt lat="42.6788980" lon="-8.6374110">
        <ele>111.7</ele>
        <time>2021-05-23T08:01:37Z</time>
      </trkpt>
      <trkpt lat="42.6788980" lon="-8.6374110">
        <ele>111.7</ele>
        <time>2021-05-23T08:01:38Z</time>
      </trkpt>
      <trkpt lat="42.6788980" lon="-8.6374110">
        <ele>111.7</ele>
        <time>2021-05-23T08:01:39Z</time>
      </trkpt>
      <trkpt lat="42.6788980" lon="-8.6374120">
        <ele>111.7</ele>
        <time>2021-05-23T08:01:40Z</time>
      </trkpt>
      <trkpt lat="42.6788990" lon="-8.6374120">
        <ele>111.7</ele>
        <time>2021-05-23T08:01:41Z</time>
      </trkpt>
      <trkpt lat="42.6788990" lon="-8.6374120">
        <ele>111.7</ele>
        <time>2021-05-23T08:01:42Z</time>
      </trkpt>
      <trkpt lat="42.6788990" lon="-8.6374130">
        <ele>111.7</ele>
        <time>2021-05-23T08:01:43Z</time>
      </trkpt>
      <trkpt lat="42.6789000" lon="-8.6374130">
        <ele>111.6</ele>
        <time>2021-05-23T08:01:44Z</time>
      </trkpt>
      <trkpt lat="42.6789000" lon="-8.6374130">
        <ele>111.6</ele>
        <time>2021-05-23T08:01:45Z</time>
      </trkpt>
      <trkpt lat="42.6789000" lon="-8.6374130">
        <ele>111.6</ele>
        <time>2021-05-23T08:01:46Z</time>
      </trkpt>
      <trkpt lat="42.6789000" lon="-8.6374140">
        <ele>111.6</ele>
        <time>2021-05-23T08:01:47Z</time>
      </trkpt>
      <trkpt lat="42.6789010" lon="-8.6374140">
        <ele>111.6</ele>
        <time>2021-05-23T08:01:48Z</time>
      </trkpt>
      <trkpt lat="42.6789010" lon="-8.6374140">
        <ele>111.6</ele>
        <time>2021-05-23T08:01:49Z</time>
      </trkpt>
      <trkpt lat="42.6789010" lon="-8.6374150">
        <ele>111.6</ele>
        <time>2021-05-23T08:01:50Z</time>
      </trkpt>
      <trkpt lat="42.6789020" lon="-8.6374150">
        <ele>111.6</ele>
        <time>2021-05-23T08:01:51Z</time>
      </trkpt>
      <trkpt lat="42.6789020" lon="-8.6374150">
        <ele>111.6</ele>
        <time>2021-05-23T08:01:52Z</time>
      </trkpt>
      <trkpt lat="42.6789020" lon="-8.6374160">
        <ele>111.6</ele>
        <time>2021-05-23T08:01:53Z</time>
      </trkpt>
      <trkpt lat="42.6789020" lon="-8.6374160">
        <ele>111.6</ele>
        <time>2021-05-23T08:01:54Z</time>
      </trkpt>
      <trkpt lat="42.6789030" lon="-8.6374160">
        <ele>111.6</ele>
        <time>2021-05-23T08:01:55Z</time>
      </trkpt>
      <trkpt lat="42.6789030" lon="-8.6374170">
        <ele>111.6</ele>
        <time>2021-05-23T08:01:56Z</time>
      </trkpt>
      <trkpt lat="42.6789030" lon="-8.6374170">
        <ele>111.6</ele>
        <time>2021-05-23T08:01:57Z</time>
      </trkpt>
      <trkpt lat="42.6789040" lon="-8.6374170">
        <ele>111.6</ele>
        <time>2021-05-23T08:01:58Z</time>
      </trkpt>
      <trkpt lat="42.6789040" lon="-8.6374170">
        <ele>111.6</ele>
        <time>2021-05-23T08:01:59Z</time>
      </trkpt>
      <trkpt lat="42.6789040" lon="-8.6374180">
        <ele>111.6</ele>
        <time>2021-05-23T08:02:00Z</time>
      </trkpt>
      <trkpt lat="42.6789040" lon="-8.6374180">
        <ele>111.6</ele>
        <time>2021-05-23T08:02:01Z</time>
      </trkpt>
      <trkpt lat="42.6789050" lon="-8.6374180">
        <ele>111.6</ele>
        <time>2021-05-23T08:02:02Z</time>
      </trkpt>
      <trkpt lat="42.6789050" lon="-8.6374190">
        <ele>111.6</ele>
        <time>2021-05-23T08:02:03Z</time>
      </trkpt>
      <trkpt lat="42.6789050" lon="-8.6374190">
        <ele>111.6</ele>
        <time>2021-05-23T08:02:04Z</time>
      </trkpt>
      <trkpt lat="42.6789050" lon="-8.6374190">
        <ele>111.6</ele>
        <time>2021-05-23T08:02:05Z</time>
      </trkpt>
      <trkpt lat="42.6789060" lon="-8.6374200">
        <ele>111.5</ele>
        <time>2021-05-23T08:02:06Z</time>
      </trkpt>
      <trkpt lat="42.6789060" lon="-8.6374200">
        <ele>111.5</ele>
        <time>2021-05-23T08:02:07Z</time>
      </trkpt>
      <trkpt lat="42.6789060" lon="-8.6374200">
        <ele>111.5</ele>
        <time>2021-05-23T08:02:08Z</time>
      </trkpt>
      <trkpt lat="42.6789070" lon="-8.6374200">
        <ele>111.5</ele>
        <time>2021-05-23T08:02:09Z</time>
      </trkpt>
      <trkpt lat="42.6789070" lon="-8.6374210">
        <ele>111.5</ele>
        <time>2021-05-23T08:02:10Z</time>
      </trkpt>
      <trkpt lat="42.6789070" lon="-8.6374210">
        <ele>111.5</ele>
        <time>2021-05-23T08:02:11Z</time>
      </trkpt>
      <trkpt lat="42.6789070" lon="-8.6374210">
        <ele>111.5</ele>
        <time>2021-05-23T08:02:12Z</time>
      </trkpt>
      <trkpt lat="42.6789080" lon="-8.6374220">
        <ele>111.5</ele>
        <time>2021-05-23T08:02:13Z</time>
      </trkpt>
      <trkpt lat="42.6789080" lon="-8.6374220">
        <ele>111.5</ele>
        <time>2021-05-23T08:02:14Z</time>
      </trkpt>
      <trkpt lat="42.6789080" lon="-8.6374220">
        <ele>111.5</ele>
        <time>2021-05-23T08:02:15Z</time>
      </trkpt>
      <trkpt lat="42.6789090" lon="-8.6374230">
        <ele>111.5</ele>
        <time>2021-05-23T08:02:16Z</time>
      </trkpt>
      <trkpt lat="42.6789090" lon="-8.6374230">
        <ele>111.5</ele>
        <time>2021-05-23T08:02:17Z</time>
      </trkpt>
      <trkpt lat="42.6789090" lon="-8.6374230">
        <ele>111.5</ele>
        <time>2021-05-23T08:02:18Z</time>
      </trkpt>
      <trkpt lat="42.6789090" lon="-8.6374240">
        <ele>111.5</ele>
        <time>2021-05-23T08:02:19Z</time>
      </trkpt>
      <trkpt lat="42.6789100" lon="-8.6374240">
        <ele>111.5</ele>
        <time>2021-05-23T08:02:20Z</time>
      </trkpt>
      <trkpt lat="42.6789100" lon="-8.6374240">
        <ele>111.5</ele>
        <time>2021-05-23T08:02:21Z</time>
      </trkpt>
      <trkpt lat="42.6789100" lon="-8.6374240">
        <ele>111.5</ele>
        <time>2021-05-23T08:02:22Z</time>
      </trkpt>
      <trkpt lat="42.6789110" lon="-8.6374250">
        <ele>111.5</ele>
        <time>2021-05-23T08:02:23Z</time>
      </trkpt>
      <trkpt lat="42.6789110" lon="-8.6374250">
        <ele>111.5</ele>
        <time>2021-05-23T08:02:24Z</time>
      </trkpt>
      <trkpt lat="42.6789110" lon="-8.6374250">
        <ele>111.5</ele>
        <time>2021-05-23T08:02:25Z</time>
      </trkpt>
      <trkpt lat="42.6789110" lon="-8.6374260">
        <ele>111.5</ele>
        <time>2021-05-23T08:02:26Z</time>
      </trkpt>
      <trkpt lat="42.6789120" lon="-8.6374260">
        <ele>111.5</ele>
        <time>2021-05-23T08:02:27Z</time>
      </trkpt>
      <trkpt lat="42.6789120" lon="-8.6374260">
        <ele>111.5</ele>
        <time>2021-05-23T08:02:28Z</time>
      </trkpt>
      <trkpt lat="42.6789120" lon="-8.6374270">
        <ele>111.4</ele>
        <time>2021-05-23T08:02:29Z</time>
      </trkpt>
      <trkpt lat="42.6789120" lon="-8.6374270">
        <ele>111.4</ele>
        <time>2021-05-23T08:02:30Z</time>
      </trkpt>
      <trkpt lat="42.6789130" lon="-8.6374270">
        <ele>111.4</ele>
        <time>2021-05-23T08:02:31Z</time>
      </trkpt>
      <trkpt lat="42.6789130" lon="-8.6374270">
        <ele>111.4</ele>
        <time>2021-05-23T08:02:32Z</time>
      </trkpt>
      <trkpt lat="42.6789130" lon="-8.6374280">
        <ele>111.4</ele>
        <time>2021-05-23T08:02:33Z</time>
      </trkpt>
      <trkpt lat="42.6789140" lon="-8.6374280">
        <ele>111.4</ele>
        <time>2021-05-23T08:02:34Z</time>
      </trkpt>
      <trkpt lat="42.6789140" lon="-8.6374280">
        <ele>111.4</ele>
        <time>2021-05-23T08:02:35Z</time>
      </trkpt>
      <trkpt lat="42.6789140" lon="-8.6374290">
        <ele>111.4</ele>
        <time>2021-05-23T08:02:36Z</time>
      </trkpt>
      <trkpt lat="42.6789140" lon="-8.6374290">
        <ele>111.4</ele>
        <time>2021-05-23T08:02:37Z</time>
      </trkpt>
      <trkpt lat="42.6789150" lon="-8.6374290">
        <ele>111.4</ele>
        <time>2021-05-23T08:02:38Z</time>
      </trkpt>
      <trkpt lat="42.6789150" lon="-8.6374300">
        <ele>111.4</ele>
        <time>2021-05-23T08:02:39Z</time>
      </trkpt>
      <trkpt lat="42.6789150" lon="-8.6374300">
        <ele>111.4</ele>
        <time>2021-05-23T08:02:40Z</time>
      </trkpt>
      <trkpt lat="42.6789160" lon="-8.6374300">
        <ele>111.4</ele>
        <time>2021-05-23T08:02:41Z</time>
      </trkpt>
      <trkpt lat="42.6789160" lon="-8.6374310">
        <ele>111.4</ele>
        <time>2021-05-23T08:02:42Z</time>
      </trkpt>
      <trkpt lat="42.6789160" lon="-8.6374310">
        <ele>111.4</ele>
        <time>2021-05-23T08:02:43Z</time>
      </trkpt>
      <trkpt lat="42.6789160" lon="-8.6374310">
        <ele>111.4</ele>
        <time>2021-05-23T08:02:44Z</time>
      </trkpt>
      <trkpt lat="42.6789170" lon="-8.6374310">
        <ele>111.4</ele>
        <time>2021-05-23T08:02:45Z</time>
      </trkpt>
      <trkpt lat="42.6789170" lon="-8.6374320">
        <ele>111.4</ele>
        <time>2021-05-23T08:02:46Z</time>
      </trkpt>
      <trkpt lat="42.6789170" lon="-8.6374320">
        <ele>111.4</ele>
        <time>2021-05-23T08:02:47Z</time>
      </trkpt>
      <trkpt lat="42.6789180" lon="-8.6374320">
        <ele>111.4</ele>
        <time>2021-05-23T08:02:48Z</time>
      </trkpt>
      <trkpt lat="42.6789180" lon="-8.6374330">
        <ele>111.3</ele>
        <time>2021-05-23T08:02:49Z</time>
      </trkpt>
      <trkpt lat="42.6789180" lon="-8.6374330">
        <ele>111.3</ele>
        <time>2021-05-23T08:02:50Z</time>
      </trkpt>
      <trkpt lat="42.6789180" lon="-8.6374330">
        <ele>111.3</ele>
        <time>2021-05-23T08:02:51Z</time>
      </trkpt>
      <trkpt lat="42.6789190" lon="-8.6374340">
        <ele>111.3</ele>
        <time>2021-05-23T08:02:52Z</time>
      </trkpt>
      <trkpt lat="42.6789190" lon="-8.6374340">
        <ele>111.3</ele>
        <time>2021-05-23T08:02:53Z</time>
      </trkpt>
      <trkpt lat="42.6789190" lon="-8.6374340">
        <ele>111.3</ele>
        <time>2021-05-23T08:02:54Z</time>
      </trkpt>
      <trkpt lat="42.6789200" lon="-8.6374340">
        <ele>111.3</ele>
        <time>2021-05-23T08:02:55Z</time>
      </trkpt>
      <trkpt lat="42.6789200" lon="-8.6374350">
        <ele>111.3</ele>
        <time>2021-05-23T08:02:56Z</time>
      </trkpt>
      <trkpt lat="42.6789200" lon="-8.6374350">
        <ele>111.3</ele>
        <time>2021-05-23T08:02:57Z</time>
      </trkpt>
      <trkpt lat="42.6789200" lon="-8.6374350">
        <ele>111.3</ele>
        <time>2021-05-23T08:02:58Z</time>
      </trkpt>
      <trkpt lat="42.6789210" lon="-8.6374360">
        <ele>111.3</ele>
        <time>2021-05-23T08:02:59Z</time>
      </trkpt>
      <trkpt lat="42.6789210" lon="-8.6374360">
        <ele>111.3</ele>
        <time>2021-05-23T08:03:00Z</time>
      </trkpt>
      <trkpt lat="42.6789210" lon="-8.6374360">
        <ele>111.3</ele>
        <time>2021-05-23T08:03:01Z</time>
      </trkpt>
      <trkpt lat="42.6789210" lon="-8.6374370">
        <ele>111.3</ele>
        <time>2021-05-23T08:03:02Z</time>
      </trkpt>
      <trkpt lat="42.6789220" lon="-8.6374370">
        <ele>111.3</ele>
        <time>2021-05-23T08:03:03Z</time>
      </trkpt>
      <trkpt lat="42.6789220" lon="-8.6374370">
        <ele>111.3</ele>
        <time>2021-05-23T08:03:04Z</time>
      </trkpt>
      <trkpt lat="42.6789220" lon="-8.6374380">
        <ele>111.3</ele>
        <time>2021-05-23T08:03:05Z</time>
      </trkpt>
      <trkpt lat="42.6789230" lon="-8.6374380">
        <ele>111.3</ele>
        <time>2021-05-23T08:03:06Z</time>
      </trkpt>
      <trkpt lat="42.6789230" lon="-8.6374380">
        <ele>111.3</ele>
        <time>2021-05-23T08:03:07Z</time>
      </trkpt>
      <trkpt lat="42.6789230" lon="-8.6374380">
        <ele>111.3</ele>
        <time>2021-05-23T08:03:08Z</time>
      </trkpt>
      <trkpt lat="42.6789230" lon="-8.6374390">
        <ele>111.3</ele>
        <time>2021-05-23T08:03:09Z</time>
      </trkpt>
      <trkpt lat="42.6789240" lon="-8.6374390">
        <ele>111.3</ele>
        <time>2021-05-23T08:03:10Z</time>
      </trkpt>
      <trkpt lat="42.6789240" lon="-8.6374390">
        <ele>111.3</ele>
        <time>2021-05-23T08:03:11Z</time>
      </trkpt>
      <trkpt lat="42.6789240" lon="-8.6374400">
        <ele>111.2</ele>
        <time>2021-05-23T08:03:12Z</time>
      </trkpt>
      <trkpt lat="42.6789250" lon="-8.6374400">
        <ele>111.2</ele>
        <time>2021-05-23T08:03:13Z</time>
      </trkpt>
      <trkpt lat="42.6789250" lon="-8.6374400">
        <ele>111.2</ele>
        <time>2021-05-23T08:03:14Z</time>
      </trkpt>
      <trkpt lat="42.6789250" lon="-8.6374410">
        <ele>111.2</ele>
        <time>2021-05-23T08:03:15Z</time>
      </trkpt>
      <trkpt lat="42.6789250" lon="-8.6374410">
        <ele>111.2</ele>
        <time>2021-05-23T08:03:16Z</time>
      </trkpt>
      <trkpt lat="42.6789260" lon="-8.6374410">
        <ele>111.2</ele>
        <time>2021-05-23T08:03:17Z</time>
      </trkpt>
      <trkpt lat="42.6789260" lon="-8.6374420">
        <ele>111.2</ele>
        <time>2021-05-23T08:03:18Z</time>
      </trkpt>
      <trkpt lat="42.6789260" lon="-8.6374420">
        <ele>111.2</ele>
        <time>2021-05-23T08:03:19Z</time>
      </trkpt>
      <trkpt lat="42.6789270" lon="-8.6374420">
        <ele>111.2</ele>
        <time>2021-05-23T08:03:20Z</time>
      </trkpt>
      <trkpt lat="42.6789270" lon="-8.6374420">
        <ele>111.2</ele>
        <time>2021-05-23T08:03:21Z</time>
      </trkpt>
      <trkpt lat="42.6789270" lon="-8.6374430">
        <ele>111.2</ele>
        <time>2021-05-23T08:03:22Z</time>
      </trkpt>
      <trkpt lat="42.6789270" lon="-8.6374430">
        <ele>111.2</ele>
        <time>2021-05-23T08:03:23Z</time>
      </trkpt>
      <trkpt lat="42.6789280" lon="-8.6374430">
        <ele>111.2</ele>
        <time>2021-05-23T08:03:24Z</time>
      </trkpt>
      <trkpt lat="42.6789280" lon="-8.6374440">
        <ele>111.2</ele>
        <time>2021-05-23T08:03:25Z</time>
      </trkpt>
      <trkpt lat="42.6789280" lon="-8.6374440">
        <ele>111.2</ele>
        <time>2021-05-23T08:03:26Z</time>
      </trkpt>
      <trkpt lat="42.6789280" lon="-8.6374440">
        <ele>111.2</ele>
        <time>2021-05-23T08:03:27Z</time>
      </trkpt>
      <trkpt lat="42.6789290" lon="-8.6374450">
        <ele>111.2</ele>
        <time>2021-05-23T08:03:28Z</time>
      </trkpt>
      <trkpt lat="42.6789290" lon="-8.6374450">
        <ele>111.2</ele>
        <time>2021-05-23T08:03:29Z</time>
      </trkpt>
      <trkpt lat="42.6789290" lon="-8.6374450">
        <ele>111.2</ele>
        <time>2021-05-23T08:03:30Z</time>
      </trkpt>
      <trkpt lat="42.6789300" lon="-8.6374450">
        <ele>111.2</ele>
        <time>2021-05-23T08:03:31Z</time>
      </trkpt>
      <trkpt lat="42.6789300" lon="-8.6374460">
        <ele>111.1</ele>
        <time>2021-05-23T08:03:32Z</time>
      </trkpt>
      <trkpt lat="42.6789300" lon="-8.6374460">
        <ele>111.1</ele>
        <time>2021-05-23T08:03:33Z</time>
      </trkpt>
      <trkpt lat="42.6789300" lon="-8.6374460">
        <ele>111.1</ele>
        <time>2021-05-23T08:03:34Z</time>
      </trkpt>
      <trkpt lat="42.6789310" lon="-8.6374470">
        <ele>111.1</ele>
        <time>2021-05-23T08:03:35Z</time>
      </trkpt>
      <trkpt lat="42.6789310" lon="-8.6374470">
        <ele>111.1</ele>
        <time>2021-05-23T08:03:36Z</time>
      </trkpt>
      <trkpt lat="42.6789340" lon="-8.6374410">
        <ele>111.1</ele>
        <time>2021-05-23T08:03:37Z</time>
      </trkpt>
      <trkpt lat="42.6789390" lon="-8.6374360">
        <ele>111.0</ele>
        <time>2021-05-23T08:03:38Z</time>
      </trkpt>
      <trkpt lat="42.6789360" lon="-8.6374410">
        <ele>111.0</ele>
        <time>2021-05-23T08:03:39Z</time>
      </trkpt>
      <trkpt lat="42.6789380" lon="-8.6374380">
        <ele>111.0</ele>
        <time>2021-05-23T08:03:40Z</time>
      </trkpt>
      <trkpt lat="42.6789420" lon="-8.6374410">
        <ele>110.9</ele>
        <time>2021-05-23T08:03:41Z</time>
      </trkpt>
      <trkpt lat="42.6789460" lon="-8.6374430">
        <ele>110.9</ele>
        <time>2021-05-23T08:03:42Z</time>
      </trkpt>
      <trkpt lat="42.6789520" lon="-8.6374420">
        <ele>110.8</ele>
        <time>2021-05-23T08:03:43Z</time>
      </trkpt>
      <trkpt lat="42.6789560" lon="-8.6374380">
        <ele>110.8</ele>
        <time>2021-05-23T08:03:44Z</time>
      </trkpt>
      <trkpt lat="42.6789550" lon="-8.6374400">
        <ele>110.7</ele>
        <time>2021-05-23T08:03:45Z</time>
      </trkpt>
      <trkpt lat="42.6789540" lon="-8.6374420">
        <ele>110.7</ele>
        <time>2021-05-23T08:03:46Z</time>
      </trkpt>
      <trkpt lat="42.6789530" lon="-8.6374420">
        <ele>110.7</ele>
        <time>2021-05-23T08:03:47Z</time>
      </trkpt>
      <trkpt lat="42.6789500" lon="-8.6374410">
        <ele>110.7</ele>
        <time>2021-05-23T08:03:48Z</time>
      </trkpt>
      <trkpt lat="42.6789490" lon="-8.6374420">
        <ele>110.7</ele>
        <time>2021-05-23T08:03:49Z</time>
      </trkpt>
      <trkpt lat="42.6789490" lon="-8.6374440">
        <ele>110.7</ele>
        <time>2021-05-23T08:03:50Z</time>
      </trkpt>
      <trkpt lat="42.6789480" lon="-8.6374460">
        <ele>110.6</ele>
        <time>2021-05-23T08:03:51Z</time>
      </trkpt>
      <trkpt lat="42.6789480" lon="-8.6374460">
        <ele>110.6</ele>
        <time>2021-05-23T08:03:52Z</time>
      </trkpt>
      <trkpt lat="42.6789470" lon="-8.6374490">
        <ele>110.6</ele>
        <time>2021-05-23T08:03:53Z</time>
      </trkpt>
      <trkpt lat="42.6789480" lon="-8.6374500">
        <ele>110.6</ele>
        <time>2021-05-23T08:03:54Z</time>
      </trkpt>
      <trkpt lat="42.6789520" lon="-8.6374520">
        <ele>110.6</ele>
        <time>2021-05-23T08:03:55Z</time>
      </trkpt>
      <trkpt lat="42.6789530" lon="-8.6374530">
        <ele>110.6</ele>
        <time>2021-05-23T08:03:56Z</time>
      </trkpt>
      <trkpt lat="42.6789540" lon="-8.6374550">
        <ele>110.5</ele>
        <time>2021-05-23T08:03:57Z</time>
      </trkpt>
      <trkpt lat="42.6789540" lon="-8.6374540">
        <ele>110.5</ele>
        <time>2021-05-23T08:03:58Z</time>
      </trkpt>
      <trkpt lat="42.6789570" lon="-8.6374600">
        <ele>110.5</ele>
        <time>2021-05-23T08:03:59Z</time>
      </trkpt>
      <trkpt lat="42.6789630" lon="-8.6374620">
        <ele>110.4</ele>
        <time>2021-05-23T08:04:00Z</time>
      </trkpt>
      <trkpt lat="42.6789620" lon="-8.6374610">
        <ele>110.4</ele>
        <time>2021-05-23T08:04:01Z</time>
      </trkpt>
      <trkpt lat="42.6789650" lon="-8.6374610">
        <ele>110.4</ele>
        <time>2021-05-23T08:04:02Z</time>
      </trkpt>
      <trkpt lat="42.6789710" lon="-8.6374620">
        <ele>110.3</ele>
        <time>2021-05-23T08:04:03Z</time>
      </trkpt>
      <trkpt lat="42.6789750" lon="-8.6374630">
        <ele>110.3</ele>
        <time>2021-05-23T08:04:04Z</time>
      </trkpt>
      <trkpt lat="42.6789800" lon="-8.6374650">
        <ele>110.2</ele>
        <time>2021-05-23T08:04:05Z</time>
      </trkpt>
      <trkpt lat="42.6789800" lon="-8.6374690">
        <ele>110.2</ele>
        <time>2021-05-23T08:04:06Z</time>
      </trkpt>
      <trkpt lat="42.6789740" lon="-8.6374720">
        <ele>110.1</ele>
        <time>2021-05-23T08:04:07Z</time>
      </trkpt>
      <trkpt lat="42.6789750" lon="-8.6374730">
        <ele>110.1</ele>
        <time>2021-05-23T08:04:08Z</time>
      </trkpt>
      <trkpt lat="42.6789750" lon="-8.6374730">
        <ele>110.1</ele>
        <time>2021-05-23T08:04:09Z</time>
      </trkpt>
      <trkpt lat="42.6789770" lon="-8.6374740">
        <ele>110.1</ele>
        <time>2021-05-23T08:04:10Z</time>
      </trkpt>
      <trkpt lat="42.6789790" lon="-8.6374750">
        <ele>110.1</ele>
        <time>2021-05-23T08:04:11Z</time>
      </trkpt>
      <trkpt lat="42.6789790" lon="-8.6374750">
        <ele>110.1</ele>
        <time>2021-05-23T08:04:12Z</time>
      </trkpt>
      <trkpt lat="42.6789790" lon="-8.6374780">
        <ele>110.1</ele>
        <time>2021-05-23T08:04:13Z</time>
      </trkpt>
      <trkpt lat="42.6789760" lon="-8.6374770">
        <ele>110.0</ele>
        <time>2021-05-23T08:04:14Z</time>
      </trkpt>
      <trkpt lat="42.6789760" lon="-8.6374790">
        <ele>110.0</ele>
        <time>2021-05-23T08:04:15Z</time>
      </trkpt>
      <trkpt lat="42.6789760" lon="-8.6374810">
        <ele>110.0</ele>
        <time>2021-05-23T08:04:16Z</time>
      </trkpt>
      <trkpt lat="42.6789720" lon="-8.6374800">
        <ele>110.0</ele>
        <time>2021-05-23T08:04:17Z</time>
      </trkpt>
      <trkpt lat="42.6789680" lon="-8.6374820">
        <ele>109.9</ele>
        <time>2021-05-23T08:04:18Z</time>
      </trkpt>
      <trkpt lat="42.6789680" lon="-8.6374820">
        <ele>109.9</ele>
        <time>2021-05-23T08:04:19Z</time>
      </trkpt>
      <trkpt lat="42.6789680" lon="-8.6374820">
        <ele>109.9</ele>
        <time>2021-05-23T08:04:20Z</time>
      </trkpt>
      <trkpt lat="42.6789630" lon="-8.6374770">
        <ele>109.9</ele>
        <time>2021-05-23T08:04:21Z</time>
      </trkpt>
      <trkpt lat="42.6789570" lon="-8.6374760">
        <ele>109.8</ele>
        <time>2021-05-23T08:04:22Z</time>
      </trkpt>
      <trkpt lat="42.6789550" lon="-8.6374760">
        <ele>109.8</ele>
        <time>2021-05-23T08:04:23Z</time>
      </trkpt>
      <trkpt lat="42.6789550" lon="-8.6374760">
        <ele>109.8</ele>
        <time>2021-05-23T08:04:24Z</time>
      </trkpt>
      <trkpt lat="42.6789550" lon="-8.6374760">
        <ele>109.8</ele>
        <time>2021-05-23T08:04:25Z</time>
      </trkpt>
      <trkpt lat="42.6789550" lon="-8.6374760">
        <ele>109.8</ele>
        <time>2021-05-23T08:04:26Z</time>
      </trkpt>
      <trkpt lat="42.6789450" lon="-8.6374690">
        <ele>109.7</ele>
        <time>2021-05-23T08:04:27Z</time>
      </trkpt>
      <trkpt lat="42.6789450" lon="-8.6374690">
        <ele>109.7</ele>
        <time>2021-05-23T08:04:28Z</time>
      </trkpt>
      <trkpt lat="42.6789450" lon="-8.6374690">
        <ele>109.7</ele>
        <time>2021-05-23T08:04:29Z</time>
      </trkpt>
      <trkpt lat="42.6789370" lon="-8.6374570">
        <ele>109.6</ele>
        <time>2021-05-23T08:04:30Z</time>
      </trkpt>
      <trkpt lat="42.6789370" lon="-8.6374530">
        <ele>109.5</ele>
        <time>2021-05-23T08:04:31Z</time>
      </trkpt>
      <trkpt lat="42.6789370" lon="-8.6374520">
        <ele>109.5</ele>
        <time>2021-05-23T08:04:32Z</time>
      </trkpt>
      <trkpt lat="42.6789420" lon="-8.6374500">
        <ele>109.5</ele>
        <time>2021-05-23T08:04:33Z</time>
      </trkpt>
      <trkpt lat="42.6789480" lon="-8.6374460">
        <ele>109.4</ele>
        <time>2021-05-23T08:04:34Z</time>
      </trkpt>
      <trkpt lat="42.6789530" lon="-8.6374420">
        <ele>109.4</ele>
        <time>2021-05-23T08:04:35Z</time>
      </trkpt>
      <trkpt lat="42.6789610" lon="-8.6374430">
        <ele>109.3</ele>
        <time>2021-05-23T08:04:36Z</time>
      </trkpt>
      <trkpt lat="42.6789620" lon="-8.6374480">
        <ele>109.2</ele>
        <time>2021-05-23T08:04:37Z</time>
      </trkpt>
      <trkpt lat="42.6789670" lon="-8.6374510">
        <ele>109.2</ele>
        <time>2021-05-23T08:04:38Z</time>
      </trkpt>
      <trkpt lat="42.6789690" lon="-8.6374530">
        <ele>109.2</ele>
        <time>2021-05-23T08:04:39Z</time>
      </trkpt>
      <trkpt lat="42.6789770" lon="-8.6374560">
        <ele>109.1</ele>
        <time>2021-05-23T08:04:40Z</time>
      </trkpt>
      <trkpt lat="42.6789840" lon="-8.6374570">
        <ele>109.0</ele>
        <time>2021-05-23T08:04:41Z</time>
      </trkpt>
      <trkpt lat="42.6789910" lon="-8.6374570">
        <ele>108.9</ele>
        <time>2021-05-23T08:04:42Z</time>
      </trkpt>
      <trkpt lat="42.6789920" lon="-8.6374610">
        <ele>108.9</ele>
        <time>2021-05-23T08:04:43Z</time>
      </trkpt>
      <trkpt lat="42.6789960" lon="-8.6374610">
        <ele>108.9</ele>
        <time>2021-05-23T08:04:44Z</time>
      </trkpt>
      <trkpt lat="42.6789980" lon="-8.6374600">
        <ele>108.9</ele>
        <time>2021-05-23T08:04:45Z</time>
      </trkpt>
      <trkpt lat="42.6790090" lon="-8.6374620">
        <ele>108.7</ele>
        <time>2021-05-23T08:04:46Z</time>
      </trkpt>
      <trkpt lat="42.6790150" lon="-8.6374630">
        <ele>108.7</ele>
        <time>2021-05-23T08:04:47Z</time>
      </trkpt>
      <trkpt lat="42.6790090" lon="-8.6374650">
        <ele>108.6</ele>
        <time>2021-05-23T08:04:48Z</time>
      </trkpt>
      <trkpt lat="42.6790110" lon="-8.6374680">
        <ele>108.6</ele>
        <time>2021-05-23T08:04:49Z</time>
      </trkpt>
      <trkpt lat="42.6790160" lon="-8.6374710">
        <ele>108.5</ele>
        <time>2021-05-23T08:04:50Z</time>
      </trkpt>
      <trkpt lat="42.6790160" lon="-8.6374710">
        <ele>108.5</ele>
        <time>2021-05-23T08:04:51Z</time>
      </trkpt>
      <trkpt lat="42.6790160" lon="-8.6374710">
        <ele>108.5</ele>
        <time>2021-05-23T08:04:52Z</time>
      </trkpt>
      <trkpt lat="42.6790320" lon="-8.6374690">
        <ele>108.4</ele>
        <time>2021-05-23T08:04:53Z</time>
      </trkpt>
      <trkpt lat="42.6790330" lon="-8.6374720">
        <ele>108.4</ele>
        <time>2021-05-23T08:04:54Z</time>
      </trkpt>
      <trkpt lat="42.6790380" lon="-8.6374730">
        <ele>108.3</ele>
        <time>2021-05-23T08:04:55Z</time>
      </trkpt>
      <trkpt lat="42.6790380" lon="-8.6374740">
        <ele>108.3</ele>
        <time>2021-05-23T08:04:56Z</time>
      </trkpt>
      <trkpt lat="42.6790450" lon="-8.6374740">
        <ele>108.2</ele>
        <time>2021-05-23T08:04:57Z</time>
      </trkpt>
      <trkpt lat="42.6790480" lon="-8.6374740">
        <ele>108.2</ele>
        <time>2021-05-23T08:04:58Z</time>
      </trkpt>
      <trkpt lat="42.6790470" lon="-8.6374740">
        <ele>108.2</ele>
        <time>2021-05-23T08:04:59Z</time>
      </trkpt>
      <trkpt lat="42.6790490" lon="-8.6374770">
        <ele>108.2</ele>
        <time>2021-05-23T08:05:00Z</time>
      </trkpt>
      <trkpt lat="42.6790470" lon="-8.6374770">
        <ele>108.2</ele>
        <time>2021-05-23T08:05:01Z</time>
      </trkpt>
      <trkpt lat="42.6790490" lon="-8.6374770">
        <ele>108.1</ele>
        <time>2021-05-23T08:05:02Z</time>
      </trkpt>
      <trkpt lat="42.6790490" lon="-8.6374770">
        <ele>108.1</ele>
        <time>2021-05-23T08:05:03Z</time>
      </trkpt>
      <trkpt lat="42.6790470" lon="-8.6374780">
        <ele>108.1</ele>
        <time>2021-05-23T08:05:04Z</time>
      </trkpt>
      <trkpt lat="42.6790550" lon="-8.6374770">
        <ele>108.0</ele>
        <time>2021-05-23T08:05:05Z</time>
      </trkpt>
      <trkpt lat="42.6790580" lon="-8.6374770">
        <ele>108.0</ele>
        <time>2021-05-23T08:05:06Z</time>
      </trkpt>
      <trkpt lat="42.6790590" lon="-8.6374770">
        <ele>108.0</ele>
        <time>2021-05-23T08:05:07Z</time>
      </trkpt>
      <trkpt lat="42.6790590" lon="-8.6374770">
        <ele>108.0</ele>
        <time>2021-05-23T08:05:08Z</time>
      </trkpt>
      <trkpt lat="42.6790590" lon="-8.6374770">
        <ele>108.0</ele>
        <time>2021-05-23T08:05:09Z</time>
      </trkpt>
      <trkpt lat="42.6790590" lon="-8.6374770">
        <ele>108.0</ele>
        <time>2021-05-23T08:05:10Z</time>
      </trkpt>
      <trkpt lat="42.6790570" lon="-8.6374840">
        <ele>107.9</ele>
        <time>2021-05-23T08:05:11Z</time>
      </trkpt>
      <trkpt lat="42.6790560" lon="-8.6374830">
        <ele>107.9</ele>
        <time>2021-05-23T08:05:12Z</time>
      </trkpt>
      <trkpt lat="42.6790550" lon="-8.6374830">
        <ele>107.9</ele>
        <time>2021-05-23T08:05:13Z</time>
      </trkpt>
      <trkpt lat="42.6790560" lon="-8.6374860">
        <ele>107.9</ele>
        <time>2021-05-23T08:05:14Z</time>
      </trkpt>
      <trkpt lat="42.6790520" lon="-8.6374860">
        <ele>107.9</ele>
        <time>2021-05-23T08:05:15Z</time>
      </trkpt>
      <trkpt lat="42.6790500" lon="-8.6374870">
        <ele>107.8</ele>
        <time>2021-05-23T08:05:16Z</time>
      </trkpt>
      <trkpt lat="42.6790500" lon="-8.6374870">
        <ele>107.8</ele>
        <time>2021-05-23T08:05:17Z</time>
      </trkpt>
      <trkpt lat="42.6790500" lon="-8.6374870">
        <ele>107.8</ele>
        <time>2021-05-23T08:05:18Z</time>
      </trkpt>
      <trkpt lat="42.6790440" lon="-8.6374890">
        <ele>107.8</ele>
        <time>2021-05-23T08:05:19Z</time>
      </trkpt>
      <trkpt lat="42.6790450" lon="-8.6374900">
        <ele>107.8</ele>
        <time>2021-05-23T08:05:20Z</time>
      </trkpt>
      <trkpt lat="42.6790350" lon="-8.6374850">
        <ele>107.7</ele>
        <time>2021-05-23T08:05:21Z</time>
      </trkpt>
      <trkpt lat="42.6790300" lon="-8.6374870">
        <ele>107.6</ele>
        <time>2021-05-23T08:05:22Z</time>
      </trkpt>
      <trkpt lat="42.6790260" lon="-8.6374850">
        <ele>107.6</ele>
        <time>2021-05-23T08:05:23Z</time>
      </trkpt>
      <trkpt lat="42.6790190" lon="-8.6374820">
        <ele>107.5</ele>
        <time>2021-05-23T08:05:24Z</time>
      </trkpt>
      <trkpt lat="42.6790180" lon="-8.6374810">
        <ele>107.5</ele>
        <time>2021-05-23T08:05:25Z</time>
      </trkpt>
      <trkpt lat="42.6790180" lon="-8.6374810">
        <ele>107.5</ele>
        <time>2021-05-23T08:05:26Z</time>
      </trkpt>
      <trkpt lat="42.6790180" lon="-8.6374810">
        <ele>107.5</ele>
        <time>2021-05-23T08:05:27Z</time>
      </trkpt>
      <trkpt lat="42.6790180" lon="-8.6374810">
        <ele>107.5</ele>
        <time>2021-05-23T08:05:28Z</time>
      </trkpt>
      <trkpt lat="42.6790180" lon="-8.6374810">
        <ele>107.5</ele>
        <time>2021-05-23T08:05:29Z</time>
      </trkpt>
      <trkpt lat="42.6790180" lon="-8.6374810">
        <ele>107.5</ele>
        <time>2021-05-23T08:05:30Z</time>
      </trkpt>
      <trkpt lat="42.6789890" lon="-8.6374800">
        <ele>107.2</ele>
        <time>2021-05-23T08:05:31Z</time>
      </trkpt>
      <trkpt lat="42.6789830" lon="-8.6374800">
        <ele>107.2</ele>
        <time>2021-05-23T08:05:32Z</time>
      </trkpt>
      <trkpt lat="42.6789780" lon="-8.6374790">
        <ele>107.1</ele>
        <time>2021-05-23T08:05:33Z</time>
      </trkpt>
      <trkpt lat="42.6789770" lon="-8.6374800">
        <ele>107.1</ele>
        <time>2021-05-23T08:05:34Z</time>
      </trkpt>
      <trkpt lat="42.6789750" lon="-8.6374800">
        <ele>107.1</ele>
        <time>2021-05-23T08:05:35Z</time>
      </trkpt>
      <trkpt lat="42.6789750" lon="-8.6374800">
        <ele>107.1</ele>
        <time>2021-05-23T08:05:36Z</time>
      </trkpt>
      <trkpt lat="42.6789720" lon="-8.6374780">
        <ele>107.0</ele>
        <time>2021-05-23T08:05:37Z</time>
      </trkpt>
      <trkpt lat="42.6789660" lon="-8.6374770">
        <ele>107.0</ele>
        <time>2021-05-23T08:05:38Z</time>
      </trkpt>
      <trkpt lat="42.6789630" lon="-8.6374800">
        <ele>106.9</ele>
        <time>2021-05-23T08:05:39Z</time>
      </trkpt>
      <trkpt lat="42.6789590" lon="-8.6374800">
        <ele>106.9</ele>
        <time>2021-05-23T08:05:40Z</time>
      </trkpt>
      <trkpt lat="42.6789570" lon="-8.6374790">
        <ele>106.9</ele>
        <time>2021-05-23T08:05:41Z</time>
      </trkpt>
      <trkpt lat="42.6789570" lon="-8.6374770">
        <ele>106.9</ele>
        <time>2021-05-23T08:05:42Z</time>
      </trkpt>
      <trkpt lat="42.6789550" lon="-8.6374750">
        <ele>106.9</ele>
        <time>2021-05-23T08:05:43Z</time>
      </trkpt>
      <trkpt lat="42.6789540" lon="-8.6374750">
        <ele>106.8</ele>
        <time>2021-05-23T08:05:44Z</time>
      </trkpt>
      <trkpt lat="42.6789530" lon="-8.6374750">
        <ele>106.8</ele>
        <time>2021-05-23T08:05:45Z</time>
      </trkpt>
      <trkpt lat="42.6789530" lon="-8.6374780">
        <ele>106.8</ele>
        <time>2021-05-23T08:05:46Z</time>
      </trkpt>
      <trkpt lat="42.6789530" lon="-8.6374780">
        <ele>106.8</ele>
        <time>2021-05-23T08:05:47Z</time>
      </trkpt>
      <trkpt lat="42.6789530" lon="-8.6374780">
        <ele>106.8</ele>
        <time>2021-05-23T08:05:48Z</time>
      </trkpt>
      <trkpt lat="42.6789530" lon="-8.6374780">
        <ele>106.8</ele>
        <time>2021-05-23T08:05:49Z</time>
      </trkpt>
      <trkpt lat="42.6789530" lon="-8.6374780">
        <ele>106.8</ele>
        <time>2021-05-23T08:05:50Z</time>
      </trkpt>
      <trkpt lat="42.6789500" lon="-8.6374810">
        <ele>106.8</ele>
        <time>2021-05-23T08:05:51Z</time>
      </trkpt>
      <trkpt lat="42.6789500" lon="-8.6374790">
        <ele>106.8</ele>
        <time>2021-05-23T08:05:52Z</time>
      </trkpt>
      <trkpt lat="42.6789480" lon="-8.6374780">
        <ele>106.7</ele>
        <time>2021-05-23T08:05:53Z</time>
      </trkpt>
      <trkpt lat="42.6789490" lon="-8.6374770">
        <ele>106.7</ele>
        <time>2021-05-23T08:05:54Z</time>
      </trkpt>
      <trkpt lat="42.6789520" lon="-8.6374780">
        <ele>106.7</ele>
        <time>2021-05-23T08:05:55Z</time>
      </trkpt>
      <trkpt lat="42.6789530" lon="-8.6374780">
        <ele>106.7</ele>
        <time>2021-05-23T08:05:56Z</time>
      </trkpt>
      <trkpt lat="42.6789510" lon="-8.6374810">
        <ele>106.7</ele>
        <time>2021-05-23T08:05:57Z</time>
      </trkpt>
      <trkpt lat="42.6789510" lon="-8.6374800">
        <ele>106.7</ele>
        <time>2021-05-23T08:05:58Z</time>
      </trkpt>
      <trkpt lat="42.6789510" lon="-8.6374790">
        <ele>106.7</ele>
        <time>2021-05-23T08:05:59Z</time>
      </trkpt>
      <trkpt lat="42.6789470" lon="-8.6374760">
        <ele>106.6</ele>
        <time>2021-05-23T08:06:00Z</time>
      </trkpt>
      <trkpt lat="42.6789460" lon="-8.6374760">
        <ele>106.6</ele>
        <time>2021-05-23T08:06:01Z</time>
      </trkpt>
      <trkpt lat="42.6789480" lon="-8.6374770">
        <ele>106.6</ele>
        <time>2021-05-23T08:06:02Z</time>
      </trkpt>
      <trkpt lat="42.6789500" lon="-8.6374730">
        <ele>106.5</ele>
        <time>2021-05-23T08:06:03Z</time>
      </trkpt>
      <trkpt lat="42.6789500" lon="-8.6374730">
        <ele>106.5</ele>
        <time>2021-05-23T08:06:04Z</time>
      </trkpt>
      <trkpt lat="42.6789500" lon="-8.6374730">
        <ele>106.5</ele>
        <time>2021-05-23T08:06:05Z</time>
      </trkpt>
      <trkpt lat="42.6789500" lon="-8.6374730">
        <ele>106.5</ele>
        <time>2021-05-23T08:06:06Z</time>
      </trkpt>
      <trkpt lat="42.6789500" lon="-8.6374730">
        <ele>106.5</ele>
        <time>2021-05-23T08:06:07Z</time>
      </trkpt>
      <trkpt lat="42.6789500" lon="-8.6374730">
        <ele>106.5</ele>
        <time>2021-05-23T08:06:08Z</time>
      </trkpt>
      <trkpt lat="42.6789500" lon="-8.6374730">
        <ele>106.5</ele>
        <time>2021-05-23T08:06:09Z</time>
      </trkpt>
      <trkpt lat="42.6789480" lon="-8.6374650">
        <ele>106.5</ele>
        <time>2021-05-23T08:06:10Z</time>
      </trkpt>
      <trkpt lat="42.6789500" lon="-8.6374630">
        <ele>106.5</ele>
        <time>2021-05-23T08:06:11Z</time>
      </trkpt>
      <trkpt lat="42.6789500" lon="-8.6374630">
        <ele>106.5</ele>
        <time>2021-05-23T08:06:12Z</time>
      </trkpt>
      <trkpt lat="42.6789510" lon="-8.6374630">
        <ele>106.5</ele>
        <time>2021-05-23T08:06:13Z</time>
      </trkpt>
      <trkpt lat="42.6789500" lon="-8.6374650">
        <ele>106.4</ele>
        <time>2021-05-23T08:06:14Z</time>
      </trkpt>
      <trkpt lat="42.6789530" lon="-8.6374650">
        <ele>106.4</ele>
        <time>2021-05-23T08:06:15Z</time>
      </trkpt>
      <trkpt lat="42.6789520" lon="-8.6374640">
        <ele>106.4</ele>
        <time>2021-05-23T08:06:16Z</time>
      </trkpt>
      <trkpt lat="42.6789510" lon="-8.6374630">
        <ele>106.4</ele>
        <time>2021-05-23T08:06:17Z</time>
      </trkpt>
      <trkpt lat="42.6789500" lon="-8.6374680">
        <ele>106.4</ele>
        <time>2021-05-23T08:06:18Z</time>
      </trkpt>
      <trkpt lat="42.6789480" lon="-8.6374730">
        <ele>106.3</ele>
        <time>2021-05-23T08:06:19Z</time>
      </trkpt>
      <trkpt lat="42.6789470" lon="-8.6374800">
        <ele>106.3</ele>
        <time>2021-05-23T08:06:20Z</time>
      </trkpt>
      <trkpt lat="42.6789450" lon="-8.6374860">
        <ele>106.2</ele>
        <time>2021-05-23T08:06:21Z</time>
      </trkpt>
      <trkpt lat="42.6789430" lon="-8.6374890">
        <ele>106.2</ele>
        <time>2021-05-23T08:06:22Z</time>
      </trkpt>
      <trkpt lat="42.6789400" lon="-8.6374910">
        <ele>106.2</ele>
        <time>2021-05-23T08:06:23Z</time>
      </trkpt>
      <trkpt lat="42.6789390" lon="-8.6374920">
        <ele>106.1</ele>
        <time>2021-05-23T08:06:24Z</time>
      </trkpt>
      <trkpt lat="42.6789350" lon="-8.6374920">
        <ele>106.1</ele>
        <time>2021-05-23T08:06:25Z</time>
      </trkpt>
      <trkpt lat="42.6789340" lon="-8.6374900">
        <ele>106.1</ele>
        <time>2021-05-23T08:06:26Z</time>
      </trkpt>
      <trkpt lat="42.6789340" lon="-8.6374860">
        <ele>106.1</ele>
        <time>2021-05-23T08:06:27Z</time>
      </trkpt>
      <trkpt lat="42.6789310" lon="-8.6374890">
        <ele>106.0</ele>
        <time>2021-05-23T08:06:28Z</time>
      </trkpt>
      <trkpt lat="42.6789350" lon="-8.6374860">
        <ele>106.0</ele>
        <time>2021-05-23T08:06:29Z</time>
      </trkpt>
      <trkpt lat="42.6789340" lon="-8.6374750">
        <ele>105.9</ele>
        <time>2021-05-23T08:06:30Z</time>
      </trkpt>
      <trkpt lat="42.6789380" lon="-8.6374670">
        <ele>105.8</ele>
        <time>2021-05-23T08:06:31Z</time>
      </trkpt>
      <trkpt lat="42.6789390" lon="-8.6374640">
        <ele>105.8</ele>
        <time>2021-05-23T08:06:32Z</time>
      </trkpt>
      <trkpt lat="42.6789410" lon="-8.6374660">
        <ele>105.8</ele>
        <time>2021-05-23T08:06:33Z</time>
      </trkpt>
      <trkpt lat="42.6789420" lon="-8.6374640">
        <ele>105.8</ele>
        <time>2021-05-23T08:06:34Z</time>
      </trkpt>
      <trkpt lat="42.6789440" lon="-8.6374650">
        <ele>105.8</ele>
        <time>2021-05-23T08:06:35Z</time>
      </trkpt>
      <trkpt lat="42.6789450" lon="-8.6374640">
        <ele>105.8</ele>
        <time>2021-05-23T08:06:36Z</time>
      </trkpt>
      <trkpt lat="42.6789460" lon="-8.6374630">
        <ele>105.7</ele>
        <time>2021-05-23T08:06:37Z</time>
      </trkpt>
      <trkpt lat="42.6789450" lon="-8.6374650">
        <ele>105.7</ele>
        <time>2021-05-23T08:06:38Z</time>
      </trkpt>
      <trkpt lat="42.6789440" lon="-8.6374640">
        <ele>105.7</ele>
        <time>2021-05-23T08:06:39Z</time>
      </trkpt>
      <trkpt lat="42.6789390" lon="-8.6374620">
        <ele>105.7</ele>
        <time>2021-05-23T08:06:40Z</time>
      </trkpt>
      <trkpt lat="42.6789390" lon="-8.6374580">
        <ele>105.6</ele>
        <time>2021-05-23T08:06:41Z</time>
      </trkpt>
      <trkpt lat="42.6789390" lon="-8.6374570">
        <ele>105.6</ele>
        <time>2021-05-23T08:06:42Z</time>
      </trkpt>
      <trkpt lat="42.6789390" lon="-8.6374570">
        <ele>105.6</ele>
        <time>2021-05-23T08:06:43Z</time>
      </trkpt>
      <trkpt lat="42.6789320" lon="-8.6374570">
        <ele>105.6</ele>
        <time>2021-05-23T08:06:44Z</time>
      </trkpt>
      <trkpt lat="42.6789330" lon="-8.6374570">
        <ele>105.6</ele>
        <time>2021-05-23T08:06:45Z</time>
      </trkpt>
      <trkpt lat="42.6789320" lon="-8.6374580">
        <ele>105.6</ele>
        <time>2021-05-23T08:06:46Z</time>
      </trkpt>
      <trkpt lat="42.6789420" lon="-8.6374550">
        <ele>105.5</ele>
        <time>2021-05-23T08:06:47Z</time>
      </trkpt>
      <trkpt lat="42.6789460" lon="-8.6374590">
        <ele>105.4</ele>
        <time>2021-05-23T08:06:48Z</time>
      </trkpt>
      <trkpt lat="42.6789450" lon="-8.6374640">
        <ele>105.4</ele>
        <time>2021-05-23T08:06:49Z</time>
      </trkpt>
      <trkpt lat="42.6789450" lon="-8.6374690">
        <ele>105.4</ele>
        <time>2021-05-23T08:06:50Z</time>
      </trkpt>
      <trkpt lat="42.6789450" lon="-8.6374730">
        <ele>105.3</ele>
        <time>2021-05-23T08:06:51Z</time>
      </trkpt>
      <trkpt lat="42.6789460" lon="-8.6374760">
        <ele>105.3</ele>
        <time>2021-05-23T08:06:52Z</time>
      </trkpt>
      <trkpt lat="42.6789470" lon="-8.6374770">
        <ele>105.3</ele>
        <time>2021-05-23T08:06:53Z</time>
      </trkpt>
      <trkpt lat="42.6789470" lon="-8.6374730">
        <ele>105.3</ele>
        <time>2021-05-23T08:06:54Z</time>
      </trkpt>
      <trkpt lat="42.6789480" lon="-8.6374740">
        <ele>105.3</ele>
        <time>2021-05-23T08:06:55Z</time>
      </trkpt>
      <trkpt lat="42.6789440" lon="-8.6374760">
        <ele>105.2</ele>
        <time>2021-05-23T08:06:56Z</time>
      </trkpt>
      <trkpt lat="42.6789510" lon="-8.6374810">
        <ele>105.2</ele>
        <time>2021-05-23T08:06:57Z</time>
      </trkpt>
      <trkpt lat="42.6789460" lon="-8.6374740">
        <ele>105.1</ele>
        <time>2021-05-23T08:06:58Z</time>
      </trkpt>
      <trkpt lat="42.6789460" lon="-8.6374730">
        <ele>105.1</ele>
        <time>2021-05-23T08:06:59Z</time>
      </trkpt>
      <trkpt lat="42.6789440" lon="-8.6374670">
        <ele>105.0</ele>
        <time>2021-05-23T08:07:00Z</time>
      </trkpt>
      <trkpt lat="42.6789350" lon="-8.6374580">
        <ele>104.9</ele>
        <time>2021-05-23T08:07:01Z</time>
      </trkpt>
      <trkpt lat="42.6789240" lon="-8.6374570">
        <ele>104.8</ele>
        <time>2021-05-23T08:07:02Z</time>
      </trkpt>
      <trkpt lat="42.6789110" lon="-8.6374510">
        <ele>104.7</ele>
        <time>2021-05-23T08:07:03Z</time>
      </trkpt>
      <trkpt lat="42.6788960" lon="-8.6374480">
        <ele>104.6</ele>
        <time>2021-05-23T08:07:04Z</time>
      </trkpt>
      <trkpt lat="42.6788960" lon="-8.6374440">
        <ele>104.6</ele>
        <time>2021-05-23T08:07:05Z</time>
      </trkpt>
      <trkpt lat="42.6788940" lon="-8.6374410">
        <ele>104.5</ele>
        <time>2021-05-23T08:07:06Z</time>
      </trkpt>
      <trkpt lat="42.6788860" lon="-8.6374230">
        <ele>104.4</ele>
        <time>2021-05-23T08:07:07Z</time>
      </trkpt>
      <trkpt lat="42.6788780" lon="-8.6374080">
        <ele>104.3</ele>
        <time>2021-05-23T08:07:08Z</time>
      </trkpt>
      <trkpt lat="42.6788670" lon="-8.6373910">
        <ele>104.2</ele>
        <time>2021-05-23T08:07:09Z</time>
      </trkpt>
      <trkpt lat="42.6788650" lon="-8.6373680">
        <ele>104.0</ele>
        <time>2021-05-23T08:07:10Z</time>
      </trkpt>
      <trkpt lat="42.6788700" lon="-8.6373470">
        <ele>103.9</ele>
        <time>2021-05-23T08:07:11Z</time>
      </trkpt>
      <trkpt lat="42.6788700" lon="-8.6373280">
        <ele>103.8</ele>
        <time>2021-05-23T08:07:12Z</time>
      </trkpt>
      <trkpt lat="42.6788650" lon="-8.6373120">
        <ele>103.7</ele>
        <time>2021-05-23T08:07:13Z</time>
      </trkpt>
      <trkpt lat="42.6788660" lon="-8.6372990">
        <ele>103.6</ele>
        <time>2021-05-23T08:07:14Z</time>
      </trkpt>
      <trkpt lat="42.6788670" lon="-8.6372850">
        <ele>103.6</ele>
        <time>2021-05-23T08:07:15Z</time>
      </trkpt>
      <trkpt lat="42.6788730" lon="-8.6372750">
        <ele>103.5</ele>
        <time>2021-05-23T08:07:16Z</time>
      </trkpt>
      <trkpt lat="42.6788810" lon="-8.6372650">
        <ele>103.4</ele>
        <time>2021-05-23T08:07:17Z</time>
      </trkpt>
      <trkpt lat="42.6788780" lon="-8.6372700">
        <ele>103.4</ele>
        <time>2021-05-23T08:07:18Z</time>
      </trkpt>
      <trkpt lat="42.6788760" lon="-8.6372670">
        <ele>103.4</ele>
        <time>2021-05-23T08:07:19Z</time>
      </trkpt>
      <trkpt lat="42.6788750" lon="-8.6372650">
        <ele>103.3</ele>
        <time>2021-05-23T08:07:20Z</time>
      </trkpt>
      <trkpt lat="42.6788750" lon="-8.6372650">
        <ele>103.3</ele>
        <time>2021-05-23T08:07:21Z</time>
      </trkpt>
      <trkpt lat="42.6788750" lon="-8.6372650">
        <ele>103.3</ele>
        <time>2021-05-23T08:07:22Z</time>
      </trkpt>
      <trkpt lat="42.6788750" lon="-8.6372650">
        <ele>103.3</ele>
        <time>2021-05-23T08:07:23Z</time>
      </trkpt>
      <trkpt lat="42.6788760" lon="-8.6372640">
        <ele>103.3</ele>
        <time>2021-05-23T08:07:24Z</time>
      </trkpt>
      <trkpt lat="42.6788760" lon="-8.6372640">
        <ele>103.3</ele>
        <time>2021-05-23T08:07:25Z</time>
      </trkpt>
      <trkpt lat="42.6788730" lon="-8.6372650">
        <ele>103.3</ele>
        <time>2021-05-23T08:07:26Z</time>
      </trkpt>
      <trkpt lat="42.6788730" lon="-8.6372650">
        <ele>103.3</ele>
        <time>2021-05-23T08:07:27Z</time>
      </trkpt>
      <trkpt lat="42.6788730" lon="-8.6372650">
        <ele>103.3</ele>
        <time>2021-05-23T08:07:28Z</time>
      </trkpt>
      <trkpt lat="42.6788730" lon="-8.6372650">
        <ele>103.3</ele>
        <time>2021-05-23T08:07:29Z</time>
      </trkpt>
      <trkpt lat="42.6788730" lon="-8.6372650">
        <ele>103.3</ele>
        <time>2021-05-23T08:07:30Z</time>
      </trkpt>
      <trkpt lat="42.6788730" lon="-8.6372650">
        <ele>103.3</ele>
        <time>2021-05-23T08:07:31Z</time>
      </trkpt>
      <trkpt lat="42.6788730" lon="-8.6372650">
        <ele>103.3</ele>
        <time>2021-05-23T08:07:32Z</time>
      </trkpt>
      <trkpt lat="42.6788730" lon="-8.6372650">
        <ele>103.3</ele>
        <time>2021-05-23T08:07:33Z</time>
      </trkpt>
      <trkpt lat="42.6788730" lon="-8.6372650">
        <ele>103.3</ele>
        <time>2021-05-23T08:07:34Z</time>
      </trkpt>
      <trkpt lat="42.6788730" lon="-8.6372650">
        <ele>103.3</ele>
        <time>2021-05-23T08:07:35Z</time>
      </trkpt>
      <trkpt lat="42.6788730" lon="-8.6372650">
        <ele>103.3</ele>
        <time>2021-05-23T08:07:36Z</time>
      </trkpt>
      <trkpt lat="42.6788730" lon="-8.6372650">
        <ele>103.3</ele>
        <time>2021-05-23T08:07:37Z</time>
      </trkpt>
      <trkpt lat="42.6788730" lon="-8.6372650">
        <ele>103.3</ele>
        <time>2021-05-23T08:07:38Z</time>
      </trkpt>
      <trkpt lat="42.6788730" lon="-8.6372650">
        <ele>103.3</ele>
        <time>2021-05-23T08:07:39Z</time>
      </trkpt>
      <trkpt lat="42.6788730" lon="-8.6372650">
        <ele>103.3</ele>
        <time>2021-05-23T08:07:40Z</time>
      </trkpt>
      <trkpt lat="42.6788730" lon="-8.6372650">
        <ele>103.3</ele>
        <time>2021-05-23T08:07:41Z</time>
      </trkpt>
      <trkpt lat="42.6788730" lon="-8.6372650">
        <ele>103.3</ele>
        <time>2021-05-23T08:07:42Z</time>
      </trkpt>
      <trkpt lat="42.6788730" lon="-8.6372650">
        <ele>103.3</ele>
        <time>2021-05-23T08:07:43Z</time>
      </trkpt>
      <trkpt lat="42.6788730" lon="-8.6372650">
        <ele>103.3</ele>
        <time>2021-05-23T08:07:44Z</time>
      </trkpt>
      <trkpt lat="42.6788730" lon="-8.6372650">
        <ele>103.3</ele>
        <time>2021-05-23T08:07:45Z</time>
      </trkpt>
      <trkpt lat="42.6788730" lon="-8.6372650">
        <ele>103.3</ele>
        <time>2021-05-23T08:07:46Z</time>
      </trkpt>
      <trkpt lat="42.6788730" lon="-8.6372650">
        <ele>103.3</ele>
        <time>2021-05-23T08:07:47Z</time>
      </trkpt>
      <trkpt lat="42.6788810" lon="-8.6372650">
        <ele>103.2</ele>
        <time>2021-05-23T08:07:48Z</time>
      </trkpt>
      <trkpt lat="42.6788810" lon="-8.6372650">
        <ele>103.2</ele>
        <time>2021-05-23T08:07:49Z</time>
      </trkpt>
      <trkpt lat="42.6788810" lon="-8.6372650">
        <ele>103.2</ele>
        <time>2021-05-23T08:07:50Z</time>
      </trkpt>
      <trkpt lat="42.6788820" lon="-8.6372610">
        <ele>103.2</ele>
        <time>2021-05-23T08:07:51Z</time>
      </trkpt>
      <trkpt lat="42.6788820" lon="-8.6372600">
        <ele>103.2</ele>
        <time>2021-05-23T08:07:52Z</time>
      </trkpt>
      <trkpt lat="42.6788850" lon="-8.6372600">
        <ele>103.2</ele>
        <time>2021-05-23T08:07:53Z</time>
      </trkpt>
      <trkpt lat="42.6788830" lon="-8.6372680">
        <ele>103.1</ele>
        <time>2021-05-23T08:07:54Z</time>
      </trkpt>
      <trkpt lat="42.6788840" lon="-8.6372720">
        <ele>103.1</ele>
        <time>2021-05-23T08:07:55Z</time>
      </trkpt>
      <trkpt lat="42.6788710" lon="-8.6372790">
        <ele>103.0</ele>
        <time>2021-05-23T08:07:56Z</time>
      </trkpt>
      <trkpt lat="42.6788590" lon="-8.6372850">
        <ele>102.9</ele>
        <time>2021-05-23T08:07:57Z</time>
      </trkpt>
      <trkpt lat="42.6788620" lon="-8.6372930">
        <ele>102.9</ele>
        <time>2021-05-23T08:07:58Z</time>
      </trkpt>
      <trkpt lat="42.6788640" lon="-8.6372970">
        <ele>102.8</ele>
        <time>2021-05-23T08:07:59Z</time>
      </trkpt>
      <trkpt lat="42.6788610" lon="-8.6373230">
        <ele>102.7</ele>
        <time>2021-05-23T08:08:00Z</time>
      </trkpt>
      <trkpt lat="42.6788670" lon="-8.6373310">
        <ele>102.6</ele>
        <time>2021-05-23T08:08:01Z</time>
      </trkpt>
      <trkpt lat="42.6788710" lon="-8.6373410">
        <ele>102.6</ele>
        <time>2021-05-23T08:08:02Z</time>
      </trkpt>
      <trkpt lat="42.6788700" lon="-8.6373500">
        <ele>102.5</ele>
        <time>2021-05-23T08:08:03Z</time>
      </trkpt>
      <trkpt lat="42.6788750" lon="-8.6373570">
        <ele>102.4</ele>
        <time>2021-05-23T08:08:04Z</time>
      </trkpt>
      <trkpt lat="42.6788760" lon="-8.6373680">
        <ele>102.4</ele>
        <time>2021-05-23T08:08:05Z</time>
      </trkpt>
      <trkpt lat="42.6788890" lon="-8.6373790">
        <ele>102.3</ele>
        <time>2021-05-23T08:08:06Z</time>
      </trkpt>
      <trkpt lat="42.6788960" lon="-8.6373860">
        <ele>102.2</ele>
        <time>2021-05-23T08:08:07Z</time>
      </trkpt>
      <trkpt lat="42.6789020" lon="-8.6373930">
        <ele>102.1</ele>
        <time>2021-05-23T08:08:08Z</time>
      </trkpt>
      <trkpt lat="42.6789080" lon="-8.6374000">
        <ele>102.0</ele>
        <time>2021-05-23T08:08:09Z</time>
      </trkpt>
      <trkpt lat="42.6789130" lon="-8.6374070">
        <ele>102.0</ele>
        <time>2021-05-23T08:08:10Z</time>
      </trkpt>
      <trkpt lat="42.6789200" lon="-8.6374100">
        <ele>101.9</ele>
        <time>2021-05-23T08:08:11Z</time>
      </trkpt>
      <trkpt lat="42.6789290" lon="-8.6374120">
        <ele>101.8</ele>
        <time>2021-05-23T08:08:12Z</time>
      </trkpt>
      <trkpt lat="42.6789310" lon="-8.6374120">
        <ele>101.8</ele>
        <time>2021-05-23T08:08:13Z</time>
      </trkpt>
      <trkpt lat="42.6789360" lon="-8.6374150">
        <ele>101.8</ele>
        <time>2021-05-23T08:08:14Z</time>
      </trkpt>
      <trkpt lat="42.6789380" lon="-8.6374170">
        <ele>101.7</ele>
        <time>2021-05-23T08:08:15Z</time>
      </trkpt>
      <trkpt lat="42.6789430" lon="-8.6374210">
        <ele>101.7</ele>
        <time>2021-05-23T08:08:16Z</time>
      </trkpt>
      <trkpt lat="42.6789520" lon="-8.6374270">
        <ele>101.6</ele>
        <time>2021-05-23T08:08:17Z</time>
      </trkpt>
      <trkpt lat="42.6789490" lon="-8.6374300">
        <ele>101.6</ele>
        <time>2021-05-23T08:08:18Z</time>
      </trkpt>
      <trkpt lat="42.6789470" lon="-8.6374280">
        <ele>101.5</ele>
        <time>2021-05-23T08:08:19Z</time>
      </trkpt>
      <trkpt lat="42.6789510" lon="-8.6374280">
        <ele>101.5</ele>
        <time>2021-05-23T08:08:20Z</time>
      </trkpt>
      <trkpt lat="42.6789490" lon="-8.6374260">
        <ele>101.5</ele>
        <time>2021-05-23T08:08:21Z</time>
      </trkpt>
      <trkpt lat="42.6789480" lon="-8.6374260">
        <ele>101.5</ele>
        <time>2021-05-23T08:08:22Z</time>
      </trkpt>
      <trkpt lat="42.6789490" lon="-8.6374290">
        <ele>101.4</ele>
        <time>2021-05-23T08:08:23Z</time>
      </trkpt>
      <trkpt lat="42.6789500" lon="-8.6374300">
        <ele>101.4</ele>
        <time>2021-05-23T08:08:24Z</time>
      </trkpt>
      <trkpt lat="42.6789540" lon="-8.6374370">
        <ele>101.4</ele>
        <time>2021-05-23T08:08:25Z</time>
      </trkpt>
      <trkpt lat="42.6789580" lon="-8.6374420">
        <ele>101.3</ele>
        <time>2021-05-23T08:08:26Z</time>
      </trkpt>
      <trkpt lat="42.6789620" lon="-8.6374470">
        <ele>101.3</ele>
        <time>2021-05-23T08:08:27Z</time>
      </trkpt>
      <trkpt lat="42.6789620" lon="-8.6374460">
        <ele>101.3</ele>
        <time>2021-05-23T08:08:28Z</time>
      </trkpt>
      <trkpt lat="42.6789620" lon="-8.6374460">
        <ele>101.3</ele>
        <time>2021-05-23T08:08:29Z</time>
      </trkpt>
      <trkpt lat="42.6789620" lon="-8.6374460">
        <ele>101.3</ele>
        <time>2021-05-23T08:08:30Z</time>
      </trkpt>
      <trkpt lat="42.6789610" lon="-8.6374460">
        <ele>101.2</ele>
        <time>2021-05-23T08:08:31Z</time>
      </trkpt>
      <trkpt lat="42.6789610" lon="-8.6374450">
        <ele>101.2</ele>
        <time>2021-05-23T08:08:32Z</time>
      </trkpt>
      <trkpt lat="42.6789610" lon="-8.6374450">
        <ele>101.2</ele>
        <time>2021-05-23T08:08:33Z</time>
      </trkpt>
      <trkpt lat="42.6789610" lon="-8.6374450">
        <ele>101.2</ele>
        <time>2021-05-23T08:08:34Z</time>
      </trkpt>
      <trkpt lat="42.6789610" lon="-8.6374440">
        <ele>101.2</ele>
        <time>2021-05-23T08:08:35Z</time>
      </trkpt>
      <trkpt lat="42.6789610" lon="-8.6374440">
        <ele>101.2</ele>
        <time>2021-05-23T08:08:36Z</time>
      </trkpt>
      <trkpt lat="42.6789610" lon="-8.6374440">
        <ele>101.2</ele>
        <time>2021-05-23T08:08:37Z</time>
      </trkpt>
      <trkpt lat="42.6789610" lon="-8.6374430">
        <ele>101.2</ele>
        <time>2021-05-23T08:08:38Z</time>
      </trkpt>
      <trkpt lat="42.6789600" lon="-8.6374430">
        <ele>101.2</ele>
        <time>2021-05-23T08:08:39Z</time>
      </trkpt>
      <trkpt lat="42.6789600" lon="-8.6374430">
        <ele>101.2</ele>
        <time>2021-05-23T08:08:40Z</time>
      </trkpt>
      <trkpt lat="42.6789600" lon="-8.6374430">
        <ele>101.2</ele>
        <time>2021-05-23T08:08:41Z</time>
      </trkpt>
      <trkpt lat="42.6789600" lon="-8.6374420">
        <ele>101.2</ele>
        <time>2021-05-23T08:08:42Z</time>
      </trkpt>
      <trkpt lat="42.6789600" lon="-8.6374420">
        <ele>101.2</ele>
        <time>2021-05-23T08:08:43Z</time>
      </trkpt>
      <trkpt lat="42.6789600" lon="-8.6374420">
        <ele>101.2</ele>
        <time>2021-05-23T08:08:44Z</time>
      </trkpt>
      <trkpt lat="42.6789600" lon="-8.6374410">
        <ele>101.2</ele>
        <time>2021-05-23T08:08:45Z</time>
      </trkpt>
      <trkpt lat="42.6789600" lon="-8.6374410">
        <ele>101.2</ele>
        <time>2021-05-23T08:08:46Z</time>
      </trkpt>
      <trkpt lat="42.6789590" lon="-8.6374410">
        <ele>101.2</ele>
        <time>2021-05-23T08:08:47Z</time>
      </trkpt>
      <trkpt lat="42.6789590" lon="-8.6374400">
        <ele>101.2</ele>
        <time>2021-05-23T08:08:48Z</time>
      </trkpt>
      <trkpt lat="42.6789590" lon="-8.6374400">
        <ele>101.2</ele>
        <time>2021-05-23T08:08:49Z</time>
      </trkpt>
      <trkpt lat="42.6789590" lon="-8.6374400">
        <ele>101.2</ele>
        <time>2021-05-23T08:08:50Z</time>
      </trkpt>
      <trkpt lat="42.6789590" lon="-8.6374400">
        <ele>101.2</ele>
        <time>2021-05-23T08:08:51Z</time>
      </trkpt>
      <trkpt lat="42.6789590" lon="-8.6374390">
        <ele>101.2</ele>
        <time>2021-05-23T08:08:52Z</time>
      </trkpt>
      <trkpt lat="42.6789590" lon="-8.6374390">
        <ele>101.2</ele>
        <time>2021-05-23T08:08:53Z</time>
      </trkpt>
      <trkpt lat="42.6789590" lon="-8.6374390">
        <ele>101.2</ele>
        <time>2021-05-23T08:08:54Z</time>
      </trkpt>
      <trkpt lat="42.6789590" lon="-8.6374380">
        <ele>101.2</ele>
        <time>2021-05-23T08:08:55Z</time>
      </trkpt>
      <trkpt lat="42.6789580" lon="-8.6374380">
        <ele>101.2</ele>
        <time>2021-05-23T08:08:56Z</time>
      </trkpt>
      <trkpt lat="42.6789580" lon="-8.6374380">
        <ele>101.2</ele>
        <time>2021-05-23T08:08:57Z</time>
      </trkpt>
      <trkpt lat="42.6789580" lon="-8.6374380">
        <ele>101.2</ele>
        <time>2021-05-23T08:08:58Z</time>
      </trkpt>
      <trkpt lat="42.6789580" lon="-8.6374370">
        <ele>101.1</ele>
        <time>2021-05-23T08:08:59Z</time>
      </trkpt>
      <trkpt lat="42.6789580" lon="-8.6374370">
        <ele>101.1</ele>
        <time>2021-05-23T08:09:00Z</time>
      </trkpt>
      <trkpt lat="42.6789580" lon="-8.6374370">
        <ele>101.1</ele>
        <time>2021-05-23T08:09:01Z</time>
      </trkpt>
      <trkpt lat="42.6789580" lon="-8.6374360">
        <ele>101.1</ele>
        <time>2021-05-23T08:09:02Z</time>
      </trkpt>
      <trkpt lat="42.6789580" lon="-8.6374360">
        <ele>101.1</ele>
        <time>2021-05-23T08:09:03Z</time>
      </trkpt>
      <trkpt lat="42.6789570" lon="-8.6374360">
        <ele>101.1</ele>
        <time>2021-05-23T08:09:04Z</time>
      </trkpt>
      <trkpt lat="42.6789570" lon="-8.6374350">
        <ele>101.1</ele>
        <time>2021-05-23T08:09:05Z</time>
      </trkpt>
      <trkpt lat="42.6789570" lon="-8.6374350">
        <ele>101.1</ele>
        <time>2021-05-23T08:09:06Z</time>
      </trkpt>
      <trkpt lat="42.6789570" lon="-8.6374350">
        <ele>101.1</ele>
        <time>2021-05-23T08:09:07Z</time>
      </trkpt>
      <trkpt lat="42.6789570" lon="-8.6374350">
        <ele>101.1</ele>
        <time>2021-05-23T08:09:08Z</time>
      </trkpt>
      <trkpt lat="42.6789570" lon="-8.6374340">
        <ele>101.1</ele>
        <time>2021-05-23T08:09:09Z</time>
      </trkpt>
      <trkpt lat="42.6789570" lon="-8.6374340">
        <ele>101.1</ele>
        <time>2021-05-23T08:09:10Z</time>
      </trkpt>
      <trkpt lat="42.6789570" lon="-8.6374340">
        <ele>101.1</ele>
        <time>2021-05-23T08:09:11Z</time>
      </trkpt>
      <trkpt lat="42.6789570" lon="-8.6374330">
        <ele>101.1</ele>
        <time>2021-05-23T08:09:12Z</time>
      </trkpt>
      <trkpt lat="42.6789560" lon="-8.6374330">
        <ele>101.1</ele>
        <time>2021-05-23T08:09:13Z</time>
      </trkpt>
      <trkpt lat="42.6789560" lon="-8.6374330">
        <ele>101.1</ele>
        <time>2021-05-23T08:09:14Z</time>
      </trkpt>
      <trkpt lat="42.6789560" lon="-8.6374330">
        <ele>101.1</ele>
        <time>2021-05-23T08:09:15Z</time>
      </trkpt>
      <trkpt lat="42.6789560" lon="-8.6374320">
        <ele>101.1</ele>
        <time>2021-05-23T08:09:16Z</time>
      </trkpt>
      <trkpt lat="42.6789560" lon="-8.6374320">
        <ele>101.1</ele>
        <time>2021-05-23T08:09:17Z</time>
      </trkpt>
      <trkpt lat="42.6789560" lon="-8.6374320">
        <ele>101.1</ele>
        <time>2021-05-23T08:09:18Z</time>
      </trkpt>
      <trkpt lat="42.6789560" lon="-8.6374310">
        <ele>101.1</ele>
        <time>2021-05-23T08:09:19Z</time>
      </trkpt>
      <trkpt lat="42.6789560" lon="-8.6374310">
        <ele>101.1</ele>
        <time>2021-05-23T08:09:20Z</time>
      </trkpt>
      <trkpt lat="42.6789550" lon="-8.6374310">
        <ele>101.1</ele>
        <time>2021-05-23T08:09:21Z</time>
      </trkpt>
      <trkpt lat="42.6789550" lon="-8.6374300">
        <ele>101.1</ele>
        <time>2021-05-23T08:09:22Z</time>
      </trkpt>
      <trkpt lat="42.6789550" lon="-8.6374300">
        <ele>101.1</ele>
        <time>2021-05-23T08:09:23Z</time>
      </trkpt>
      <trkpt lat="42.6789550" lon="-8.6374300">
        <ele>101.1</ele>
        <time>2021-05-23T08:09:24Z</time>
      </trkpt>
      <trkpt lat="42.6789550" lon="-8.6374300">
        <ele>101.1</ele>
        <time>2021-05-23T08:09:25Z</time>
      </trkpt>
      <trkpt lat="42.6789550" lon="-8.6374290">
        <ele>101.1</ele>
        <time>2021-05-23T08:09:26Z</time>
      </trkpt>
      <trkpt lat="42.6789550" lon="-8.6374290">
        <ele>101.1</ele>
        <time>2021-05-23T08:09:27Z</time>
      </trkpt>
      <trkpt lat="42.6789550" lon="-8.6374290">
        <ele>101.1</ele>
        <time>2021-05-23T08:09:28Z</time>
      </trkpt>
      <trkpt lat="42.6789540" lon="-8.6374280">
        <ele>101.1</ele>
        <time>2021-05-23T08:09:29Z</time>
      </trkpt>
      <trkpt lat="42.6789540" lon="-8.6374280">
        <ele>101.1</ele>
        <time>2021-05-23T08:09:30Z</time>
      </trkpt>
      <trkpt lat="42.6789540" lon="-8.6374280">
        <ele>101.1</ele>
        <time>2021-05-23T08:09:31Z</time>
      </trkpt>
      <trkpt lat="42.6789540" lon="-8.6374270">
        <ele>101.0</ele>
        <time>2021-05-23T08:09:32Z</time>
      </trkpt>
      <trkpt lat="42.6789540" lon="-8.6374270">
        <ele>101.0</ele>
        <time>2021-05-23T08:09:33Z</time>
      </trkpt>
      <trkpt lat="42.6789540" lon="-8.6374270">
        <ele>101.0</ele>
        <time>2021-05-23T08:09:34Z</time>
      </trkpt>
      <trkpt lat="42.6789540" lon="-8.6374270">
        <ele>101.0</ele>
        <time>2021-05-23T08:09:35Z</time>
      </trkpt>
      <trkpt lat="42.6789540" lon="-8.6374260">
        <ele>101.0</ele>
        <time>2021-05-23T08:09:36Z</time>
      </trkpt>
      <trkpt lat="42.6789540" lon="-8.6374260">
        <ele>101.0</ele>
        <time>2021-05-23T08:09:37Z</time>
      </trkpt>
      <trkpt lat="42.6789530" lon="-8.6374260">
        <ele>101.0</ele>
        <time>2021-05-23T08:09:38Z</time>
      </trkpt>
      <trkpt lat="42.6789530" lon="-8.6374250">
        <ele>101.0</ele>
        <time>2021-05-23T08:09:39Z</time>
      </trkpt>
      <trkpt lat="42.6789530" lon="-8.6374250">
        <ele>101.0</ele>
        <time>2021-05-23T08:09:40Z</time>
      </trkpt>
      <trkpt lat="42.6789530" lon="-8.6374250">
        <ele>101.0</ele>
        <time>2021-05-23T08:09:41Z</time>
      </trkpt>
      <trkpt lat="42.6789530" lon="-8.6374250">
        <ele>101.0</ele>
        <time>2021-05-23T08:09:42Z</time>
      </trkpt>
      <trkpt lat="42.6789530" lon="-8.6374240">
        <ele>101.0</ele>
        <time>2021-05-23T08:09:43Z</time>
      </trkpt>
      <trkpt lat="42.6789530" lon="-8.6374240">
        <ele>101.0</ele>
        <time>2021-05-23T08:09:44Z</time>
      </trkpt>
      <trkpt lat="42.6789530" lon="-8.6374240">
        <ele>101.0</ele>
        <time>2021-05-23T08:09:45Z</time>
      </trkpt>
      <trkpt lat="42.6789520" lon="-8.6374230">
        <ele>101.0</ele>
        <time>2021-05-23T08:09:46Z</time>
      </trkpt>
      <trkpt lat="42.6789520" lon="-8.6374230">
        <ele>101.0</ele>
        <time>2021-05-23T08:09:47Z</time>
      </trkpt>
      <trkpt lat="42.6789520" lon="-8.6374230">
        <ele>101.0</ele>
        <time>2021-05-23T08:09:48Z</time>
      </trkpt>
      <trkpt lat="42.6789520" lon="-8.6374220">
        <ele>101.0</ele>
        <time>2021-05-23T08:09:49Z</time>
      </trkpt>
      <trkpt lat="42.6789520" lon="-8.6374220">
        <ele>101.0</ele>
        <time>2021-05-23T08:09:50Z</time>
      </trkpt>
      <trkpt lat="42.6789520" lon="-8.6374220">
        <ele>101.0</ele>
        <time>2021-05-23T08:09:51Z</time>
      </trkpt>
      <trkpt lat="42.6789520" lon="-8.6374220">
        <ele>101.0</ele>
        <time>2021-05-23T08:09:52Z</time>
      </trkpt>
      <trkpt lat="42.6789520" lon="-8.6374210">
        <ele>101.0</ele>
        <time>2021-05-23T08:09:53Z</time>
      </trkpt>
      <trkpt lat="42.6789520" lon="-8.6374210">
        <ele>101.0</ele>
        <time>2021-05-23T08:09:54Z</time>
      </trkpt>
      <trkpt lat="42.6789510" lon="-8.6374210">
        <ele>101.0</ele>
        <time>2021-05-23T08:09:55Z</time>
      </trkpt>
      <trkpt lat="42.6789510" lon="-8.6374200">
        <ele>101.0</ele>
        <time>2021-05-23T08:09:56Z</time>
      </trkpt>
      <trkpt lat="42.6789510" lon="-8.6374200">
        <ele>101.0</ele>
        <time>2021-05-23T08:09:57Z</time>
      </trkpt>
      <trkpt lat="42.6789510" lon="-8.6374200">
        <ele>101.0</ele>
        <time>2021-05-23T08:09:58Z</time>
      </trkpt>
      <trkpt lat="42.6789510" lon="-8.6374200">
        <ele>101.0</ele>
        <time>2021-05-23T08:09:59Z</time>
      </trkpt>
      <trkpt lat="42.6789510" lon="-8.6374190">
        <ele>101.0</ele>
        <time>2021-05-23T08:10:00Z</time>
      </trkpt>
      <trkpt lat="42.6789510" lon="-8.6374190">
        <ele>101.0</ele>
        <time>2021-05-23T08:10:01Z</time>
      </trkpt>
      <trkpt lat="42.6789510" lon="-8.6374190">
        <ele>101.0</ele>
        <time>2021-05-23T08:10:02Z</time>
      </trkpt>
      <trkpt lat="42.6789500" lon="-8.6374180">
        <ele>100.9</ele>
        <time>2021-05-23T08:10:03Z</time>
      </trkpt>
      <trkpt lat="42.6789500" lon="-8.6374180">
        <ele>100.9</ele>
        <time>2021-05-23T08:10:04Z</time>
      </trkpt>
      <trkpt lat="42.6789500" lon="-8.6374180">
        <ele>100.9</ele>
        <time>2021-05-23T08:10:05Z</time>
      </trkpt>
      <trkpt lat="42.6789500" lon="-8.6374170">
        <ele>100.9</ele>
        <time>2021-05-23T08:10:06Z</time>
      </trkpt>
      <trkpt lat="42.6789500" lon="-8.6374170">
        <ele>100.9</ele>
        <time>2021-05-23T08:10:07Z</time>
      </trkpt>
      <trkpt lat="42.6789500" lon="-8.6374170">
        <ele>100.9</ele>
        <time>2021-05-23T08:10:08Z</time>
      </trkpt>
      <trkpt lat="42.6789500" lon="-8.6374170">
        <ele>100.9</ele>
        <time>2021-05-23T08:10:09Z</time>
      </trkpt>
      <trkpt lat="42.6789500" lon="-8.6374160">
        <ele>100.9</ele>
        <time>2021-05-23T08:10:10Z</time>
      </trkpt>
      <trkpt lat="42.6789490" lon="-8.6374160">
        <ele>100.9</ele>
        <time>2021-05-23T08:10:11Z</time>
      </trkpt>
      <trkpt lat="42.6789490" lon="-8.6374160">
        <ele>100.9</ele>
        <time>2021-05-23T08:10:12Z</time>
      </trkpt>
      <trkpt lat="42.6789490" lon="-8.6374150">
        <ele>100.9</ele>
        <time>2021-05-23T08:10:13Z</time>
      </trkpt>
      <trkpt lat="42.6789490" lon="-8.6374150">
        <ele>100.9</ele>
        <time>2021-05-23T08:10:14Z</time>
      </trkpt>
      <trkpt lat="42.6789490" lon="-8.6374150">
        <ele>100.9</ele>
        <time>2021-05-23T08:10:15Z</time>
      </trkpt>
      <trkpt lat="42.6789490" lon="-8.6374140">
        <ele>100.9</ele>
        <time>2021-05-23T08:10:16Z</time>
      </trkpt>
      <trkpt lat="42.6789490" lon="-8.6374140">
        <ele>100.9</ele>
        <time>2021-05-23T08:10:17Z</time>
      </trkpt>
      <trkpt lat="42.6789490" lon="-8.6374140">
        <ele>100.9</ele>
        <time>2021-05-23T08:10:18Z</time>
      </trkpt>
      <trkpt lat="42.6789490" lon="-8.6374140">
        <ele>100.9</ele>
        <time>2021-05-23T08:10:19Z</time>
      </trkpt>
      <trkpt lat="42.6789480" lon="-8.6374130">
        <ele>100.9</ele>
        <time>2021-05-23T08:10:20Z</time>
      </trkpt>
      <trkpt lat="42.6789480" lon="-8.6374130">
        <ele>100.9</ele>
        <time>2021-05-23T08:10:21Z</time>
      </trkpt>
      <trkpt lat="42.6789480" lon="-8.6374130">
        <ele>100.9</ele>
        <time>2021-05-23T08:10:22Z</time>
      </trkpt>
      <trkpt lat="42.6789480" lon="-8.6374120">
        <ele>100.9</ele>
        <time>2021-05-23T08:10:23Z</time>
      </trkpt>
      <trkpt lat="42.6789480" lon="-8.6374120">
        <ele>100.9</ele>
        <time>2021-05-23T08:10:24Z</time>
      </trkpt>
      <trkpt lat="42.6789480" lon="-8.6374120">
        <ele>100.9</ele>
        <time>2021-05-23T08:10:25Z</time>
      </trkpt>
      <trkpt lat="42.6789480" lon="-8.6374120">
        <ele>100.9</ele>
        <time>2021-05-23T08:10:26Z</time>
      </trkpt>
      <trkpt lat="42.6789480" lon="-8.6374110">
        <ele>100.9</ele>
        <time>2021-05-23T08:10:27Z</time>
      </trkpt>
      <trkpt lat="42.6789470" lon="-8.6374110">
        <ele>100.9</ele>
        <time>2021-05-23T08:10:28Z</time>
      </trkpt>
      <trkpt lat="42.6789470" lon="-8.6374110">
        <ele>100.9</ele>
        <time>2021-05-23T08:10:29Z</time>
      </trkpt>
      <trkpt lat="42.6789470" lon="-8.6374100">
        <ele>100.9</ele>
        <time>2021-05-23T08:10:30Z</time>
      </trkpt>
      <trkpt lat="42.6789470" lon="-8.6374100">
        <ele>100.9</ele>
        <time>2021-05-23T08:10:31Z</time>
      </trkpt>
      <trkpt lat="42.6789470" lon="-8.6374100">
        <ele>100.9</ele>
        <time>2021-05-23T08:10:32Z</time>
      </trkpt>
      <trkpt lat="42.6789470" lon="-8.6374090">
        <ele>100.9</ele>
        <time>2021-05-23T08:10:33Z</time>
      </trkpt>
      <trkpt lat="42.6789470" lon="-8.6374090">
        <ele>100.9</ele>
        <time>2021-05-23T08:10:34Z</time>
      </trkpt>
      <trkpt lat="42.6789470" lon="-8.6374090">
        <ele>100.9</ele>
        <time>2021-05-23T08:10:35Z</time>
      </trkpt>
      <trkpt lat="42.6789460" lon="-8.6374090">
        <ele>100.9</ele>
        <time>2021-05-23T08:10:36Z</time>
      </trkpt>
      <trkpt lat="42.6789460" lon="-8.6374080">
        <ele>100.8</ele>
        <time>2021-05-23T08:10:37Z</time>
      </trkpt>
      <trkpt lat="42.6789460" lon="-8.6374080">
        <ele>100.8</ele>
        <time>2021-05-23T08:10:38Z</time>
      </trkpt>
      <trkpt lat="42.6789460" lon="-8.6374080">
        <ele>100.8</ele>
        <time>2021-05-23T08:10:39Z</time>
      </trkpt>
      <trkpt lat="42.6789460" lon="-8.6374070">
        <ele>100.8</ele>
        <time>2021-05-23T08:10:40Z</time>
      </trkpt>
      <trkpt lat="42.6789460" lon="-8.6374070">
        <ele>100.8</ele>
        <time>2021-05-23T08:10:41Z</time>
      </trkpt>
      <trkpt lat="42.6789460" lon="-8.6374070">
        <ele>100.8</ele>
        <time>2021-05-23T08:10:42Z</time>
      </trkpt>
      <trkpt lat="42.6789460" lon="-8.6374070">
        <ele>100.8</ele>
        <time>2021-05-23T08:10:43Z</time>
      </trkpt>
      <trkpt lat="42.6789460" lon="-8.6374060">
        <ele>100.8</ele>
        <time>2021-05-23T08:10:44Z</time>
      </trkpt>
      <trkpt lat="42.6789450" lon="-8.6374060">
        <ele>100.8</ele>
        <time>2021-05-23T08:10:45Z</time>
      </trkpt>
      <trkpt lat="42.6789450" lon="-8.6374060">
        <ele>100.8</ele>
        <time>2021-05-23T08:10:46Z</time>
      </trkpt>
      <trkpt lat="42.6789450" lon="-8.6374050">
        <ele>100.8</ele>
        <time>2021-05-23T08:10:47Z</time>
      </trkpt>
      <trkpt lat="42.6789450" lon="-8.6374050">
        <ele>100.8</ele>
        <time>2021-05-23T08:10:48Z</time>
      </trkpt>
      <trkpt lat="42.6789450" lon="-8.6374050">
        <ele>100.8</ele>
        <time>2021-05-23T08:10:49Z</time>
      </trkpt>
      <trkpt lat="42.6789450" lon="-8.6374040">
        <ele>100.8</ele>
        <time>2021-05-23T08:10:50Z</time>
      </trkpt>
      <trkpt lat="42.6789450" lon="-8.6374040">
        <ele>100.8</ele>
        <time>2021-05-23T08:10:51Z</time>
      </trkpt>
      <trkpt lat="42.6789450" lon="-8.6374040">
        <ele>100.8</ele>
        <time>2021-05-23T08:10:52Z</time>
      </trkpt>
      <trkpt lat="42.6789440" lon="-8.6374040">
        <ele>100.8</ele>
        <time>2021-05-23T08:10:53Z</time>
      </trkpt>
      <trkpt lat="42.6789440" lon="-8.6374030">
        <ele>100.8</ele>
        <time>2021-05-23T08:10:54Z</time>
      </trkpt>
      <trkpt lat="42.6789440" lon="-8.6374030">
        <ele>100.8</ele>
        <time>2021-05-23T08:10:55Z</time>
      </trkpt>
      <trkpt lat="42.6789440" lon="-8.6374030">
        <ele>100.8</ele>
        <time>2021-05-23T08:10:56Z</time>
      </trkpt>
      <trkpt lat="42.6789440" lon="-8.6374020">
        <ele>100.8</ele>
        <time>2021-05-23T08:10:57Z</time>
      </trkpt>
      <trkpt lat="42.6789440" lon="-8.6374020">
        <ele>100.8</ele>
        <time>2021-05-23T08:10:58Z</time>
      </trkpt>
      <trkpt lat="42.6789440" lon="-8.6374020">
        <ele>100.8</ele>
        <time>2021-05-23T08:10:59Z</time>
      </trkpt>
      <trkpt lat="42.6789440" lon="-8.6374010">
        <ele>100.8</ele>
        <time>2021-05-23T08:11:00Z</time>
      </trkpt>
      <trkpt lat="42.6789440" lon="-8.6374010">
        <ele>100.8</ele>
        <time>2021-05-23T08:11:01Z</time>
      </trkpt>
      <trkpt lat="42.6789430" lon="-8.6374010">
        <ele>100.8</ele>
        <time>2021-05-23T08:11:02Z</time>
      </trkpt>
      <trkpt lat="42.6789430" lon="-8.6374010">
        <ele>100.8</ele>
        <time>2021-05-23T08:11:03Z</time>
      </trkpt>
      <trkpt lat="42.6789430" lon="-8.6374000">
        <ele>100.8</ele>
        <time>2021-05-23T08:11:04Z</time>
      </trkpt>
      <trkpt lat="42.6789430" lon="-8.6374000">
        <ele>100.8</ele>
        <time>2021-05-23T08:11:05Z</time>
      </trkpt>
      <trkpt lat="42.6789430" lon="-8.6374000">
        <ele>100.8</ele>
        <time>2021-05-23T08:11:06Z</time>
      </trkpt>
      <trkpt lat="42.6789430" lon="-8.6373990">
        <ele>100.7</ele>
        <time>2021-05-23T08:11:07Z</time>
      </trkpt>
      <trkpt lat="42.6789430" lon="-8.6373990">
        <ele>100.7</ele>
        <time>2021-05-23T08:11:08Z</time>
      </trkpt>
      <trkpt lat="42.6789430" lon="-8.6373990">
        <ele>100.7</ele>
        <time>2021-05-23T08:11:09Z</time>
      </trkpt>
      <trkpt lat="42.6789420" lon="-8.6373990">
        <ele>100.7</ele>
        <time>2021-05-23T08:11:10Z</time>
      </trkpt>
      <trkpt lat="42.6789420" lon="-8.6373980">
        <ele>100.7</ele>
        <time>2021-05-23T08:11:11Z</time>
      </trkpt>
      <trkpt lat="42.6789420" lon="-8.6373980">
        <ele>100.7</ele>
        <time>2021-05-23T08:11:12Z</time>
      </trkpt>
      <trkpt lat="42.6789420" lon="-8.6373980">
        <ele>100.7</ele>
        <time>2021-05-23T08:11:13Z</time>
      </trkpt>
      <trkpt lat="42.6789420" lon="-8.6373970">
        <ele>100.7</ele>
        <time>2021-05-23T08:11:14Z</time>
      </trkpt>
      <trkpt lat="42.6789420" lon="-8.6373970">
        <ele>100.7</ele>
        <time>2021-05-23T08:11:15Z</time>
      </trkpt>
      <trkpt lat="42.6789420" lon="-8.6373970">
        <ele>100.7</ele>
        <time>2021-05-23T08:11:16Z</time>
      </trkpt>
      <trkpt lat="42.6789420" lon="-8.6373960">
        <ele>100.7</ele>
        <time>2021-05-23T08:11:17Z</time>
      </trkpt>
      <trkpt lat="42.6789410" lon="-8.6373960">
        <ele>100.7</ele>
        <time>2021-05-23T08:11:18Z</time>
      </trkpt>
      <trkpt lat="42.6789410" lon="-8.6373960">
        <ele>100.7</ele>
        <time>2021-05-23T08:11:19Z</time>
      </trkpt>
      <trkpt lat="42.6789410" lon="-8.6373960">
        <ele>100.7</ele>
        <time>2021-05-23T08:11:20Z</time>
      </trkpt>
      <trkpt lat="42.6789410" lon="-8.6373950">
        <ele>100.7</ele>
        <time>2021-05-23T08:11:21Z</time>
      </trkpt>
      <trkpt lat="42.6789410" lon="-8.6373950">
        <ele>100.7</ele>
        <time>2021-05-23T08:11:22Z</time>
      </trkpt>
      <trkpt lat="42.6789360" lon="-8.6373870">
        <ele>100.6</ele>
        <time>2021-05-23T08:11:23Z</time>
      </trkpt>
      <trkpt lat="42.6789280" lon="-8.6373850">
        <ele>100.5</ele>
        <time>2021-05-23T08:11:24Z</time>
      </trkpt>
      <trkpt lat="42.6789310" lon="-8.6373760">
        <ele>100.5</ele>
        <time>2021-05-23T08:11:25Z</time>
      </trkpt>
      <trkpt lat="42.6789400" lon="-8.6373680">
        <ele>100.4</ele>
        <time>2021-05-23T08:11:26Z</time>
      </trkpt>
      <trkpt lat="42.6789460" lon="-8.6373620">
        <ele>100.3</ele>
        <time>2021-05-23T08:11:27Z</time>
      </trkpt>
      <trkpt lat="42.6789630" lon="-8.6373660">
        <ele>100.1</ele>
        <time>2021-05-23T08:11:28Z</time>
      </trkpt>
      <trkpt lat="42.6789740" lon="-8.6373620">
        <ele>100.0</ele>
        <time>2021-05-23T08:11:29Z</time>
      </trkpt>
      <trkpt lat="42.6789690" lon="-8.6373580">
        <ele>99.9</ele>
        <time>2021-05-23T08:11:30Z</time>
      </trkpt>
      <trkpt lat="42.6789760" lon="-8.6373510">
        <ele>99.8</ele>
        <time>2021-05-23T08:11:31Z</time>
      </trkpt>
      <trkpt lat="42.6789830" lon="-8.6373390">
        <ele>99.7</ele>
        <time>2021-05-23T08:11:32Z</time>
      </trkpt>
      <trkpt lat="42.6789920" lon="-8.6373280">
        <ele>99.6</ele>
        <time>2021-05-23T08:11:33Z</time>
      </trkpt>
      <trkpt lat="42.6789890" lon="-8.6373270">
        <ele>99.5</ele>
        <time>2021-05-23T08:11:34Z</time>
      </trkpt>
      <trkpt lat="42.6790000" lon="-8.6373210">
        <ele>99.4</ele>
        <time>2021-05-23T08:11:35Z</time>
      </trkpt>
      <trkpt lat="42.6789950" lon="-8.6373040">
        <ele>99.3</ele>
        <time>2021-05-23T08:11:36Z</time>
      </trkpt>
      <trkpt lat="42.6789950" lon="-8.6372950">
        <ele>99.2</ele>
        <time>2021-05-23T08:11:37Z</time>
      </trkpt>
      <trkpt lat="42.6790020" lon="-8.6372990">
        <ele>99.1</ele>
        <time>2021-05-23T08:11:38Z</time>
      </trkpt>
      <trkpt lat="42.6790070" lon="-8.6373000">
        <ele>99.1</ele>
        <time>2021-05-23T08:11:39Z</time>
      </trkpt>
      <trkpt lat="42.6790170" lon="-8.6373040">
        <ele>98.9</ele>
        <time>2021-05-23T08:11:40Z</time>
      </trkpt>
      <trkpt lat="42.6790240" lon="-8.6373000">
        <ele>98.9</ele>
        <time>2021-05-23T08:11:41Z</time>
      </trkpt>
      <trkpt lat="42.6790310" lon="-8.6373040">
        <ele>98.8</ele>
        <time>2021-05-23T08:11:42Z</time>
      </trkpt>
      <trkpt lat="42.6790390" lon="-8.6373070">
        <ele>98.7</ele>
        <time>2021-05-23T08:11:43Z</time>
      </trkpt>
      <trkpt lat="42.6790440" lon="-8.6373040">
        <ele>98.6</ele>
        <time>2021-05-23T08:11:44Z</time>
      </trkpt>
      <trkpt lat="42.6790480" lon="-8.6373010">
        <ele>98.6</ele>
        <time>2021-05-23T08:11:45Z</time>
      </trkpt>
      <trkpt lat="42.6790580" lon="-8.6373000">
        <ele>98.4</ele>
        <time>2021-05-23T08:11:46Z</time>
      </trkpt>
      <trkpt lat="42.6790600" lon="-8.6372980">
        <ele>98.4</ele>
        <time>2021-05-23T08:11:47Z</time>
      </trkpt>
      <trkpt lat="42.6790690" lon="-8.6372990">
        <ele>98.3</ele>
        <time>2021-05-23T08:11:48Z</time>
      </trkpt>
      <trkpt lat="42.6790710" lon="-8.6372940">
        <ele>98.3</ele>
        <time>2021-05-23T08:11:49Z</time>
      </trkpt>
      <trkpt lat="42.6790810" lon="-8.6372920">
        <ele>95.2</ele>
        <time>2021-05-23T08:11:50Z</time>
      </trkpt>
      <trkpt lat="42.6790870" lon="-8.6372860">
        <ele>95.0</ele>
        <time>2021-05-23T08:11:51Z</time>
      </trkpt>
      <trkpt lat="42.6791070" lon="-8.6372820">
        <ele>94.7</ele>
        <time>2021-05-23T08:11:52Z</time>
      </trkpt>
      <trkpt lat="42.6791150" lon="-8.6372810">
        <ele>94.5</ele>
        <time>2021-05-23T08:11:53Z</time>
      </trkpt>
      <trkpt lat="42.6791220" lon="-8.6372790">
        <ele>94.4</ele>
        <time>2021-05-23T08:11:54Z</time>
      </trkpt>
      <trkpt lat="42.6791290" lon="-8.6372780">
        <ele>94.3</ele>
        <time>2021-05-23T08:11:55Z</time>
      </trkpt>
      <trkpt lat="42.6791400" lon="-8.6372840">
        <ele>94.1</ele>
        <time>2021-05-23T08:11:56Z</time>
      </trkpt>
      <trkpt lat="42.6791460" lon="-8.6373020">
        <ele>93.9</ele>
        <time>2021-05-23T08:11:57Z</time>
      </trkpt>
      <trkpt lat="42.6791500" lon="-8.6373130">
        <ele>93.7</ele>
        <time>2021-05-23T08:11:58Z</time>
      </trkpt>
      <trkpt lat="42.6791800" lon="-8.6373290">
        <ele>93.2</ele>
        <time>2021-05-23T08:11:59Z</time>
      </trkpt>
      <trkpt lat="42.6791850" lon="-8.6373310">
        <ele>93.1</ele>
        <time>2021-05-23T08:12:00Z</time>
      </trkpt>
      <trkpt lat="42.6792000" lon="-8.6373270">
        <ele>92.9</ele>
        <time>2021-05-23T08:12:01Z</time>
      </trkpt>
      <trkpt lat="42.6792110" lon="-8.6373260">
        <ele>92.7</ele>
        <time>2021-05-23T08:12:02Z</time>
      </trkpt>
      <trkpt lat="42.6792220" lon="-8.6373240">
        <ele>92.5</ele>
        <time>2021-05-23T08:12:03Z</time>
      </trkpt>
      <trkpt lat="42.6792340" lon="-8.6373170">
        <ele>92.3</ele>
        <time>2021-05-23T08:12:04Z</time>
      </trkpt>
      <trkpt lat="42.6792410" lon="-8.6373130">
        <ele>92.2</ele>
        <time>2021-05-23T08:12:05Z</time>
      </trkpt>
      <trkpt lat="42.6792410" lon="-8.6373110">
        <ele>92.2</ele>
        <time>2021-05-23T08:12:06Z</time>
      </trkpt>
      <trkpt lat="42.6792420" lon="-8.6373060">
        <ele>92.1</ele>
        <time>2021-05-23T08:12:07Z</time>
      </trkpt>
      <trkpt lat="42.6792360" lon="-8.6373120">
        <ele>92.0</ele>
        <time>2021-05-23T08:12:08Z</time>
      </trkpt>
      <trkpt lat="42.6792300" lon="-8.6373170">
        <ele>91.9</ele>
        <time>2021-05-23T08:12:09Z</time>
      </trkpt>
      <trkpt lat="42.6792310" lon="-8.6373180">
        <ele>91.9</ele>
        <time>2021-05-23T08:12:10Z</time>
      </trkpt>
      <trkpt lat="42.6792320" lon="-8.6373150">
        <ele>91.9</ele>
        <time>2021-05-23T08:12:11Z</time>
      </trkpt>
      <trkpt lat="42.6792320" lon="-8.6373150">
        <ele>91.9</ele>
        <time>2021-05-23T08:12:12Z</time>
      </trkpt>
      <trkpt lat="42.6792360" lon="-8.6373140">
        <ele>91.8</ele>
        <time>2021-05-23T08:12:13Z</time>
      </trkpt>
      <trkpt lat="42.6792480" lon="-8.6373170">
        <ele>91.6</ele>
        <time>2021-05-23T08:12:14Z</time>
      </trkpt>
      <trkpt lat="42.6792530" lon="-8.6373220">
        <ele>91.5</ele>
        <time>2021-05-23T08:12:15Z</time>
      </trkpt>
      <trkpt lat="42.6792550" lon="-8.6373070">
        <ele>91.4</ele>
        <time>2021-05-23T08:12:16Z</time>
      </trkpt>
      <trkpt lat="42.6792620" lon="-8.6373030">
        <ele>91.3</ele>
        <time>2021-05-23T08:12:17Z</time>
      </trkpt>
      <trkpt lat="42.6792750" lon="-8.6373110">
        <ele>91.0</ele>
        <time>2021-05-23T08:12:18Z</time>
      </trkpt>
      <trkpt lat="42.6792960" lon="-8.6373030">
        <ele>90.7</ele>
        <time>2021-05-23T08:12:19Z</time>
      </trkpt>
      <trkpt lat="42.6793040" lon="-8.6372980">
        <ele>90.6</ele>
        <time>2021-05-23T08:12:20Z</time>
      </trkpt>
      <trkpt lat="42.6793120" lon="-8.6372920">
        <ele>90.5</ele>
        <time>2021-05-23T08:12:21Z</time>
      </trkpt>
      <trkpt lat="42.6793220" lon="-8.6372880">
        <ele>90.3</ele>
        <time>2021-05-23T08:12:22Z</time>
      </trkpt>
      <trkpt lat="42.6793440" lon="-8.6372800">
        <ele>90.0</ele>
        <time>2021-05-23T08:12:24Z</time>
      </trkpt>
      <trkpt lat="42.6793520" lon="-8.6372690">
        <ele>89.8</ele>
        <time>2021-05-23T08:12:25Z</time>
      </trkpt>
      <trkpt lat="42.6793540" lon="-8.6372700">
        <ele>89.8</ele>
        <time>2021-05-23T08:12:26Z</time>
      </trkpt>
      <trkpt lat="42.6793700" lon="-8.6372690">
        <ele>89.5</ele>
        <time>2021-05-23T08:12:27Z</time>
      </trkpt>
      <trkpt lat="42.6793810" lon="-8.6372550">
        <ele>89.3</ele>
        <time>2021-05-23T08:12:28Z</time>
      </trkpt>
      <trkpt lat="42.6793830" lon="-8.6372440">
        <ele>89.2</ele>
        <time>2021-05-23T08:12:29Z</time>
      </trkpt>
      <trkpt lat="42.6793930" lon="-8.6372350">
        <ele>89.0</ele>
        <time>2021-05-23T08:12:30Z</time>
      </trkpt>
      <trkpt lat="42.6793960" lon="-8.6372250">
        <ele>88.9</ele>
        <time>2021-05-23T08:12:31Z</time>
      </trkpt>
      <trkpt lat="42.6794050" lon="-8.6372110">
        <ele>88.7</ele>
        <time>2021-05-23T08:12:32Z</time>
      </trkpt>
      <trkpt lat="42.6794190" lon="-8.6372010">
        <ele>88.5</ele>
        <time>2021-05-23T08:12:33Z</time>
      </trkpt>
      <trkpt lat="42.6794300" lon="-8.6371800">
        <ele>88.2</ele>
        <time>2021-05-23T08:12:34Z</time>
      </trkpt>
      <trkpt lat="42.6794340" lon="-8.6371740">
        <ele>88.1</ele>
        <time>2021-05-23T08:12:35Z</time>
      </trkpt>
      <trkpt lat="42.6794370" lon="-8.6371670">
        <ele>88.0</ele>
        <time>2021-05-23T08:12:36Z</time>
      </trkpt>
      <trkpt lat="42.6794400" lon="-8.6371600">
        <ele>87.9</ele>
        <time>2021-05-23T08:12:37Z</time>
      </trkpt>
      <trkpt lat="42.6794440" lon="-8.6371480">
        <ele>87.8</ele>
        <time>2021-05-23T08:12:38Z</time>
      </trkpt>
      <trkpt lat="42.6794550" lon="-8.6371320">
        <ele>87.6</ele>
        <time>2021-05-23T08:12:39Z</time>
      </trkpt>
      <trkpt lat="42.6794630" lon="-8.6371280">
        <ele>87.4</ele>
        <time>2021-05-23T08:12:40Z</time>
      </trkpt>
      <trkpt lat="42.6794740" lon="-8.6371110">
        <ele>87.2</ele>
        <time>2021-05-23T08:12:41Z</time>
      </trkpt>
      <trkpt lat="42.6794810" lon="-8.6371010">
        <ele>87.1</ele>
        <time>2021-05-23T08:12:42Z</time>
      </trkpt>
      <trkpt lat="42.6794870" lon="-8.6370920">
        <ele>86.9</ele>
        <time>2021-05-23T08:12:43Z</time>
      </trkpt>
      <trkpt lat="42.6794930" lon="-8.6370820">
        <ele>86.8</ele>
        <time>2021-05-23T08:12:44Z</time>
      </trkpt>
      <trkpt lat="42.6795080" lon="-8.6370760">
        <ele>86.6</ele>
        <time>2021-05-23T08:12:45Z</time>
      </trkpt>
      <trkpt lat="42.6795180" lon="-8.6370730">
        <ele>86.4</ele>
        <time>2021-05-23T08:12:46Z</time>
      </trkpt>
      <trkpt lat="42.6795290" lon="-8.6370700">
        <ele>86.3</ele>
        <time>2021-05-23T08:12:47Z</time>
      </trkpt>
      <trkpt lat="42.6795530" lon="-8.6370630">
        <ele>85.9</ele>
        <time>2021-05-23T08:12:48Z</time>
      </trkpt>
      <trkpt lat="42.6795630" lon="-8.6370600">
        <ele>85.8</ele>
        <time>2021-05-23T08:12:49Z</time>
      </trkpt>
      <trkpt lat="42.6795720" lon="-8.6370580">
        <ele>85.6</ele>
        <time>2021-05-23T08:12:50Z</time>
      </trkpt>
      <trkpt lat="42.6795920" lon="-8.6370510">
        <ele>85.3</ele>
        <time>2021-05-23T08:12:51Z</time>
      </trkpt>
      <trkpt lat="42.6796000" lon="-8.6370500">
        <ele>85.2</ele>
        <time>2021-05-23T08:12:52Z</time>
      </trkpt>
      <trkpt lat="42.6796090" lon="-8.6370500">
        <ele>85.1</ele>
        <time>2021-05-23T08:12:53Z</time>
      </trkpt>
      <trkpt lat="42.6796210" lon="-8.6370540">
        <ele>84.9</ele>
        <time>2021-05-23T08:12:54Z</time>
      </trkpt>
      <trkpt lat="42.6796310" lon="-8.6370500">
        <ele>84.8</ele>
        <time>2021-05-23T08:12:55Z</time>
      </trkpt>
      <trkpt lat="42.6796290" lon="-8.6370440">
        <ele>84.7</ele>
        <time>2021-05-23T08:12:56Z</time>
      </trkpt>
      <trkpt lat="42.6796390" lon="-8.6370340">
        <ele>84.5</ele>
        <time>2021-05-23T08:12:57Z</time>
      </trkpt>
      <trkpt lat="42.6796490" lon="-8.6370270">
        <ele>84.4</ele>
        <time>2021-05-23T08:12:58Z</time>
      </trkpt>
      <trkpt lat="42.6796560" lon="-8.6370180">
        <ele>84.2</ele>
        <time>2021-05-23T08:12:59Z</time>
      </trkpt>
      <trkpt lat="42.6796640" lon="-8.6370160">
        <ele>84.1</ele>
        <time>2021-05-23T08:13:00Z</time>
      </trkpt>
      <trkpt lat="42.6796760" lon="-8.6370120">
        <ele>84.0</ele>
        <time>2021-05-23T08:13:01Z</time>
      </trkpt>
      <trkpt lat="42.6796880" lon="-8.6370050">
        <ele>83.8</ele>
        <time>2021-05-23T08:13:02Z</time>
      </trkpt>
      <trkpt lat="42.6796990" lon="-8.6370010">
        <ele>83.7</ele>
        <time>2021-05-23T08:13:03Z</time>
      </trkpt>
      <trkpt lat="42.6797140" lon="-8.6369960">
        <ele>83.5</ele>
        <time>2021-05-23T08:13:04Z</time>
      </trkpt>
      <trkpt lat="42.6797230" lon="-8.6369930">
        <ele>83.4</ele>
        <time>2021-05-23T08:13:05Z</time>
      </trkpt>
      <trkpt lat="42.6797310" lon="-8.6369900">
        <ele>83.3</ele>
        <time>2021-05-23T08:13:06Z</time>
      </trkpt>
      <trkpt lat="42.6797390" lon="-8.6369870">
        <ele>83.2</ele>
        <time>2021-05-23T08:13:07Z</time>
      </trkpt>
      <trkpt lat="42.6797430" lon="-8.6369830">
        <ele>83.2</ele>
        <time>2021-05-23T08:13:08Z</time>
      </trkpt>
      <trkpt lat="42.6797650" lon="-8.6369850">
        <ele>82.9</ele>
        <time>2021-05-23T08:13:09Z</time>
      </trkpt>
      <trkpt lat="42.6797690" lon="-8.6369810">
        <ele>82.9</ele>
        <time>2021-05-23T08:13:10Z</time>
      </trkpt>
      <trkpt lat="42.6797770" lon="-8.6369690">
        <ele>82.8</ele>
        <time>2021-05-23T08:13:11Z</time>
      </trkpt>
      <trkpt lat="42.6797950" lon="-8.6369650">
        <ele>82.6</ele>
        <time>2021-05-23T08:13:12Z</time>
      </trkpt>
      <trkpt lat="42.6798030" lon="-8.6369570">
        <ele>82.5</ele>
        <time>2021-05-23T08:13:13Z</time>
      </trkpt>
      <trkpt lat="42.6798050" lon="-8.6369460">
        <ele>82.4</ele>
        <time>2021-05-23T08:13:14Z</time>
      </trkpt>
      <trkpt lat="42.6798220" lon="-8.6369450">
        <ele>82.2</ele>
        <time>2021-05-23T08:13:15Z</time>
      </trkpt>
      <trkpt lat="42.6798340" lon="-8.6369360">
        <ele>82.1</ele>
        <time>2021-05-23T08:13:16Z</time>
      </trkpt>
      <trkpt lat="42.6798430" lon="-8.6369320">
        <ele>82.0</ele>
        <time>2021-05-23T08:13:17Z</time>
      </trkpt>
      <trkpt lat="42.6798510" lon="-8.6369270">
        <ele>81.9</ele>
        <time>2021-05-23T08:13:18Z</time>
      </trkpt>
      <trkpt lat="42.6798600" lon="-8.6369220">
        <ele>81.9</ele>
        <time>2021-05-23T08:13:19Z</time>
      </trkpt>
      <trkpt lat="42.6798780" lon="-8.6369100">
        <ele>81.7</ele>
        <time>2021-05-23T08:13:20Z</time>
      </trkpt>
      <trkpt lat="42.6798890" lon="-8.6369050">
        <ele>81.6</ele>
        <time>2021-05-23T08:13:21Z</time>
      </trkpt>
      <trkpt lat="42.6798990" lon="-8.6369000">
        <ele>81.5</ele>
        <time>2021-05-23T08:13:22Z</time>
      </trkpt>
      <trkpt lat="42.6799110" lon="-8.6368970">
        <ele>81.4</ele>
        <time>2021-05-23T08:13:23Z</time>
      </trkpt>
      <trkpt lat="42.6799220" lon="-8.6368940">
        <ele>81.3</ele>
        <time>2021-05-23T08:13:24Z</time>
      </trkpt>
      <trkpt lat="42.6799240" lon="-8.6368780">
        <ele>81.2</ele>
        <time>2021-05-23T08:13:25Z</time>
      </trkpt>
      <trkpt lat="42.6799300" lon="-8.6368710">
        <ele>81.1</ele>
        <time>2021-05-23T08:13:26Z</time>
      </trkpt>
      <trkpt lat="42.6799380" lon="-8.6368690">
        <ele>81.1</ele>
        <time>2021-05-23T08:13:27Z</time>
      </trkpt>
      <trkpt lat="42.6799510" lon="-8.6368690">
        <ele>81.0</ele>
        <time>2021-05-23T08:13:28Z</time>
      </trkpt>
      <trkpt lat="42.6799720" lon="-8.6368510">
        <ele>80.8</ele>
        <time>2021-05-23T08:13:29Z</time>
      </trkpt>
      <trkpt lat="42.6799790" lon="-8.6368430">
        <ele>80.7</ele>
        <time>2021-05-23T08:13:30Z</time>
      </trkpt>
      <trkpt lat="42.6799860" lon="-8.6368340">
        <ele>80.6</ele>
        <time>2021-05-23T08:13:31Z</time>
      </trkpt>
      <trkpt lat="42.6799860" lon="-8.6368250">
        <ele>80.6</ele>
        <time>2021-05-23T08:13:32Z</time>
      </trkpt>
      <trkpt lat="42.6799910" lon="-8.6368170">
        <ele>80.5</ele>
        <time>2021-05-23T08:13:33Z</time>
      </trkpt>
      <trkpt lat="42.6799890" lon="-8.6368140">
        <ele>80.5</ele>
        <time>2021-05-23T08:13:34Z</time>
      </trkpt>
      <trkpt lat="42.6799830" lon="-8.6368030">
        <ele>80.4</ele>
        <time>2021-05-23T08:13:35Z</time>
      </trkpt>
      <trkpt lat="42.6799810" lon="-8.6367970">
        <ele>80.4</ele>
        <time>2021-05-23T08:13:36Z</time>
      </trkpt>
      <trkpt lat="42.6799800" lon="-8.6367930">
        <ele>80.3</ele>
        <time>2021-05-23T08:13:37Z</time>
      </trkpt>
      <trkpt lat="42.6799750" lon="-8.6367780">
        <ele>80.2</ele>
        <time>2021-05-23T08:13:38Z</time>
      </trkpt>
      <trkpt lat="42.6799750" lon="-8.6367700">
        <ele>80.2</ele>
        <time>2021-05-23T08:13:39Z</time>
      </trkpt>
      <trkpt lat="42.6799820" lon="-8.6367570">
        <ele>80.1</ele>
        <time>2021-05-23T08:13:40Z</time>
      </trkpt>
      <trkpt lat="42.6799860" lon="-8.6367550">
        <ele>80.1</ele>
        <time>2021-05-23T08:13:41Z</time>
      </trkpt>
      <trkpt lat="42.6799970" lon="-8.6367650">
        <ele>79.9</ele>
        <time>2021-05-23T08:13:42Z</time>
      </trkpt>
      <trkpt lat="42.6800080" lon="-8.6367650">
        <ele>79.9</ele>
        <time>2021-05-23T08:13:43Z</time>
      </trkpt>
      <trkpt lat="42.6800130" lon="-8.6367580">
        <ele>79.8</ele>
        <time>2021-05-23T08:13:44Z</time>
      </trkpt>
      <trkpt lat="42.6800210" lon="-8.6367390">
        <ele>79.7</ele>
        <time>2021-05-23T08:13:45Z</time>
      </trkpt>
      <trkpt lat="42.6800280" lon="-8.6367340">
        <ele>79.6</ele>
        <time>2021-05-23T08:13:46Z</time>
      </trkpt>
      <trkpt lat="42.6800340" lon="-8.6367300">
        <ele>79.5</ele>
        <time>2021-05-23T08:13:47Z</time>
      </trkpt>
      <trkpt lat="42.6800410" lon="-8.6367250">
        <ele>79.5</ele>
        <time>2021-05-23T08:13:48Z</time>
      </trkpt>
      <trkpt lat="42.6800470" lon="-8.6367200">
        <ele>79.4</ele>
        <time>2021-05-23T08:13:49Z</time>
      </trkpt>
      <trkpt lat="42.6800600" lon="-8.6367170">
        <ele>79.3</ele>
        <time>2021-05-23T08:13:50Z</time>
      </trkpt>
      <trkpt lat="42.6800660" lon="-8.6367110">
        <ele>79.3</ele>
        <time>2021-05-23T08:13:51Z</time>
      </trkpt>
      <trkpt lat="42.6800760" lon="-8.6366930">
        <ele>79.1</ele>
        <time>2021-05-23T08:13:52Z</time>
      </trkpt>
      <trkpt lat="42.6800860" lon="-8.6366830">
        <ele>79.0</ele>
        <time>2021-05-23T08:13:53Z</time>
      </trkpt>
      <trkpt lat="42.6800950" lon="-8.6366670">
        <ele>78.9</ele>
        <time>2021-05-23T08:13:54Z</time>
      </trkpt>
      <trkpt lat="42.6801220" lon="-8.6366450">
        <ele>78.7</ele>
        <time>2021-05-23T08:13:55Z</time>
      </trkpt>
      <trkpt lat="42.6801270" lon="-8.6366400">
        <ele>78.6</ele>
        <time>2021-05-23T08:13:56Z</time>
      </trkpt>
      <trkpt lat="42.6801360" lon="-8.6366260">
        <ele>78.5</ele>
        <time>2021-05-23T08:13:57Z</time>
      </trkpt>
      <trkpt lat="42.6801390" lon="-8.6366160">
        <ele>78.5</ele>
        <time>2021-05-23T08:13:58Z</time>
      </trkpt>
      <trkpt lat="42.6801390" lon="-8.6366060">
        <ele>78.4</ele>
        <time>2021-05-23T08:13:59Z</time>
      </trkpt>
      <trkpt lat="42.6801500" lon="-8.6366050">
        <ele>78.3</ele>
        <time>2021-05-23T08:14:00Z</time>
      </trkpt>
      <trkpt lat="42.6801680" lon="-8.6365910">
        <ele>78.2</ele>
        <time>2021-05-23T08:14:01Z</time>
      </trkpt>
      <trkpt lat="42.6801860" lon="-8.6365770">
        <ele>78.0</ele>
        <time>2021-05-23T08:14:02Z</time>
      </trkpt>
      <trkpt lat="42.6801920" lon="-8.6365680">
        <ele>78.0</ele>
        <time>2021-05-23T08:14:03Z</time>
      </trkpt>
      <trkpt lat="42.6802010" lon="-8.6365560">
        <ele>77.9</ele>
        <time>2021-05-23T08:14:04Z</time>
      </trkpt>
      <trkpt lat="42.6802100" lon="-8.6365460">
        <ele>77.8</ele>
        <time>2021-05-23T08:14:05Z</time>
      </trkpt>
      <trkpt lat="42.6802170" lon="-8.6365380">
        <ele>77.7</ele>
        <time>2021-05-23T08:14:06Z</time>
      </trkpt>
      <trkpt lat="42.6802170" lon="-8.6365130">
        <ele>77.6</ele>
        <time>2021-05-23T08:14:07Z</time>
      </trkpt>
      <trkpt lat="42.6802140" lon="-8.6365040">
        <ele>77.6</ele>
        <time>2021-05-23T08:14:08Z</time>
      </trkpt>
      <trkpt lat="42.6802350" lon="-8.6364990">
        <ele>77.4</ele>
        <time>2021-05-23T08:14:09Z</time>
      </trkpt>
      <trkpt lat="42.6802420" lon="-8.6364700">
        <ele>77.3</ele>
        <time>2021-05-23T08:14:10Z</time>
      </trkpt>
      <trkpt lat="42.6802460" lon="-8.6364600">
        <ele>77.2</ele>
        <time>2021-05-23T08:14:11Z</time>
      </trkpt>
      <trkpt lat="42.6802500" lon="-8.6364500">
        <ele>77.2</ele>
        <time>2021-05-23T08:14:12Z</time>
      </trkpt>
      <trkpt lat="42.6802580" lon="-8.6364360">
        <ele>77.1</ele>
        <time>2021-05-23T08:14:13Z</time>
      </trkpt>
      <trkpt lat="42.6802690" lon="-8.6364210">
        <ele>77.0</ele>
        <time>2021-05-23T08:14:14Z</time>
      </trkpt>
      <trkpt lat="42.6802780" lon="-8.6364080">
        <ele>76.9</ele>
        <time>2021-05-23T08:14:15Z</time>
      </trkpt>
      <trkpt lat="42.6802860" lon="-8.6363980">
        <ele>76.8</ele>
        <time>2021-05-23T08:14:16Z</time>
      </trkpt>
      <trkpt lat="42.6802900" lon="-8.6363830">
        <ele>76.7</ele>
        <time>2021-05-23T08:14:17Z</time>
      </trkpt>
      <trkpt lat="42.6802930" lon="-8.6363720">
        <ele>76.7</ele>
        <time>2021-05-23T08:14:18Z</time>
      </trkpt>
      <trkpt lat="42.6803060" lon="-8.6363620">
        <ele>76.6</ele>
        <time>2021-05-23T08:14:19Z</time>
      </trkpt>
      <trkpt lat="42.6803140" lon="-8.6363540">
        <ele>76.5</ele>
        <time>2021-05-23T08:14:20Z</time>
      </trkpt>
      <trkpt lat="42.6803330" lon="-8.6363390">
        <ele>76.4</ele>
        <time>2021-05-23T08:14:21Z</time>
      </trkpt>
      <trkpt lat="42.6803400" lon="-8.6363340">
        <ele>76.3</ele>
        <time>2021-05-23T08:14:22Z</time>
      </trkpt>
      <trkpt lat="42.6803480" lon="-8.6363300">
        <ele>76.3</ele>
        <time>2021-05-23T08:14:23Z</time>
      </trkpt>
      <trkpt lat="42.6803710" lon="-8.6363220">
        <ele>76.1</ele>
        <time>2021-05-23T08:14:24Z</time>
      </trkpt>
      <trkpt lat="42.6803810" lon="-8.6363120">
        <ele>76.1</ele>
        <time>2021-05-23T08:14:25Z</time>
      </trkpt>
      <trkpt lat="42.6803910" lon="-8.6363030">
        <ele>76.0</ele>
        <time>2021-05-23T08:14:26Z</time>
      </trkpt>
      <trkpt lat="42.6804070" lon="-8.6362960">
        <ele>75.9</ele>
        <time>2021-05-23T08:14:27Z</time>
      </trkpt>
      <trkpt lat="42.6804200" lon="-8.6362930">
        <ele>75.8</ele>
        <time>2021-05-23T08:14:28Z</time>
      </trkpt>
      <trkpt lat="42.6804280" lon="-8.6362750">
        <ele>75.7</ele>
        <time>2021-05-23T08:14:29Z</time>
      </trkpt>
      <trkpt lat="42.6804330" lon="-8.6362750">
        <ele>75.6</ele>
        <time>2021-05-23T08:14:30Z</time>
      </trkpt>
      <trkpt lat="42.6804430" lon="-8.6362650">
        <ele>75.5</ele>
        <time>2021-05-23T08:14:31Z</time>
      </trkpt>
      <trkpt lat="42.6804450" lon="-8.6362590">
        <ele>75.5</ele>
        <time>2021-05-23T08:14:32Z</time>
      </trkpt>
      <trkpt lat="42.6804530" lon="-8.6362460">
        <ele>75.4</ele>
        <time>2021-05-23T08:14:33Z</time>
      </trkpt>
      <trkpt lat="42.6804670" lon="-8.6362380">
        <ele>75.3</ele>
        <time>2021-05-23T08:14:34Z</time>
      </trkpt>
      <trkpt lat="42.6804800" lon="-8.6362280">
        <ele>75.2</ele>
        <time>2021-05-23T08:14:35Z</time>
      </trkpt>
      <trkpt lat="42.6804830" lon="-8.6362220">
        <ele>75.1</ele>
        <time>2021-05-23T08:14:36Z</time>
      </trkpt>
      <trkpt lat="42.6804960" lon="-8.6362120">
        <ele>75.0</ele>
        <time>2021-05-23T08:14:37Z</time>
      </trkpt>
      <trkpt lat="42.6805070" lon="-8.6362090">
        <ele>74.9</ele>
        <time>2021-05-23T08:14:38Z</time>
      </trkpt>
      <trkpt lat="42.6805130" lon="-8.6361980">
        <ele>74.8</ele>
        <time>2021-05-23T08:14:39Z</time>
      </trkpt>
      <trkpt lat="42.6805300" lon="-8.6361840">
        <ele>74.7</ele>
        <time>2021-05-23T08:14:40Z</time>
      </trkpt>
      <trkpt lat="42.6805400" lon="-8.6361680">
        <ele>74.5</ele>
        <time>2021-05-23T08:14:41Z</time>
      </trkpt>
      <trkpt lat="42.6805490" lon="-8.6361660">
        <ele>74.4</ele>
        <time>2021-05-23T08:14:42Z</time>
      </trkpt>
      <trkpt lat="42.6805570" lon="-8.6361610">
        <ele>74.4</ele>
        <time>2021-05-23T08:14:43Z</time>
      </trkpt>
      <trkpt lat="42.6805660" lon="-8.6361570">
        <ele>74.3</ele>
        <time>2021-05-23T08:14:44Z</time>
      </trkpt>
      <trkpt lat="42.6805720" lon="-8.6361490">
        <ele>74.2</ele>
        <time>2021-05-23T08:14:45Z</time>
      </trkpt>
      <trkpt lat="42.6805850" lon="-8.6361390">
        <ele>74.1</ele>
        <time>2021-05-23T08:14:46Z</time>
      </trkpt>
      <trkpt lat="42.6806030" lon="-8.6361300">
        <ele>73.9</ele>
        <time>2021-05-23T08:14:47Z</time>
      </trkpt>
      <trkpt lat="42.6806120" lon="-8.6361210">
        <ele>73.8</ele>
        <time>2021-05-23T08:14:48Z</time>
      </trkpt>
      <trkpt lat="42.6806110" lon="-8.6361080">
        <ele>73.7</ele>
        <time>2021-05-23T08:14:49Z</time>
      </trkpt>
      <trkpt lat="42.6806250" lon="-8.6361100">
        <ele>73.6</ele>
        <time>2021-05-23T08:14:50Z</time>
      </trkpt>
      <trkpt lat="42.6806320" lon="-8.6360900">
        <ele>73.4</ele>
        <time>2021-05-23T08:14:51Z</time>
      </trkpt>
      <trkpt lat="42.6806340" lon="-8.6360840">
        <ele>73.4</ele>
        <time>2021-05-23T08:14:52Z</time>
      </trkpt>
      <trkpt lat="42.6806390" lon="-8.6360780">
        <ele>73.3</ele>
        <time>2021-05-23T08:14:53Z</time>
      </trkpt>
      <trkpt lat="42.6806470" lon="-8.6360750">
        <ele>73.2</ele>
        <time>2021-05-23T08:14:54Z</time>
      </trkpt>
      <trkpt lat="42.6806530" lon="-8.6360700">
        <ele>73.2</ele>
        <time>2021-05-23T08:14:55Z</time>
      </trkpt>
      <trkpt lat="42.6806640" lon="-8.6360710">
        <ele>73.1</ele>
        <time>2021-05-23T08:14:56Z</time>
      </trkpt>
      <trkpt lat="42.6806850" lon="-8.6360670">
        <ele>72.9</ele>
        <time>2021-05-23T08:14:57Z</time>
      </trkpt>
      <trkpt lat="42.6806920" lon="-8.6360640">
        <ele>72.9</ele>
        <time>2021-05-23T08:14:58Z</time>
      </trkpt>
      <trkpt lat="42.6806930" lon="-8.6360600">
        <ele>72.8</ele>
        <time>2021-05-23T08:14:59Z</time>
      </trkpt>
      <trkpt lat="42.6806970" lon="-8.6360570">
        <ele>72.8</ele>
        <time>2021-05-23T08:15:00Z</time>
      </trkpt>
      <trkpt lat="42.6807070" lon="-8.6360570">
        <ele>72.7</ele>
        <time>2021-05-23T08:15:01Z</time>
      </trkpt>
      <trkpt lat="42.6807190" lon="-8.6360550">
        <ele>72.6</ele>
        <time>2021-05-23T08:15:02Z</time>
      </trkpt>
      <trkpt lat="42.6807250" lon="-8.6360570">
        <ele>72.6</ele>
        <time>2021-05-23T08:15:03Z</time>
      </trkpt>
      <trkpt lat="42.6807430" lon="-8.6360500">
        <ele>72.5</ele>
        <time>2021-05-23T08:15:04Z</time>
      </trkpt>
      <trkpt lat="42.6807500" lon="-8.6360450">
        <ele>72.4</ele>
        <time>2021-05-23T08:15:05Z</time>
      </trkpt>
      <trkpt lat="42.6807590" lon="-8.6360490">
        <ele>72.4</ele>
        <time>2021-05-23T08:15:06Z</time>
      </trkpt>
      <trkpt lat="42.6807700" lon="-8.6360510">
        <ele>72.3</ele>
        <time>2021-05-23T08:15:07Z</time>
      </trkpt>
      <trkpt lat="42.6807820" lon="-8.6360440">
        <ele>72.2</ele>
        <time>2021-05-23T08:15:08Z</time>
      </trkpt>
      <trkpt lat="42.6807930" lon="-8.6360540">
        <ele>72.2</ele>
        <time>2021-05-23T08:15:09Z</time>
      </trkpt>
      <trkpt lat="42.6808060" lon="-8.6360610">
        <ele>72.1</ele>
        <time>2021-05-23T08:15:10Z</time>
      </trkpt>
      <trkpt lat="42.6808030" lon="-8.6360610">
        <ele>72.1</ele>
        <time>2021-05-23T08:15:11Z</time>
      </trkpt>
      <trkpt lat="42.6808060" lon="-8.6360620">
        <ele>72.1</ele>
        <time>2021-05-23T08:15:12Z</time>
      </trkpt>
      <trkpt lat="42.6808280" lon="-8.6360710">
        <ele>72.0</ele>
        <time>2021-05-23T08:15:13Z</time>
      </trkpt>
      <trkpt lat="42.6808380" lon="-8.6360820">
        <ele>71.9</ele>
        <time>2021-05-23T08:15:14Z</time>
      </trkpt>
      <trkpt lat="42.6808640" lon="-8.6360860">
        <ele>71.8</ele>
        <time>2021-05-23T08:15:15Z</time>
      </trkpt>
      <trkpt lat="42.6808750" lon="-8.6360880">
        <ele>71.8</ele>
        <time>2021-05-23T08:15:16Z</time>
      </trkpt>
      <trkpt lat="42.6809030" lon="-8.6361020">
        <ele>71.7</ele>
        <time>2021-05-23T08:15:17Z</time>
      </trkpt>
      <trkpt lat="42.6809160" lon="-8.6361140">
        <ele>71.6</ele>
        <time>2021-05-23T08:15:18Z</time>
      </trkpt>
      <trkpt lat="42.6809470" lon="-8.6361210">
        <ele>71.6</ele>
        <time>2021-05-23T08:15:19Z</time>
      </trkpt>
      <trkpt lat="42.6809570" lon="-8.6361200">
        <ele>71.6</ele>
        <time>2021-05-23T08:15:20Z</time>
      </trkpt>
      <trkpt lat="42.6809720" lon="-8.6361270">
        <ele>71.5</ele>
        <time>2021-05-23T08:15:21Z</time>
      </trkpt>
      <trkpt lat="42.6809810" lon="-8.6361270">
        <ele>71.5</ele>
        <time>2021-05-23T08:15:22Z</time>
      </trkpt>
      <trkpt lat="42.6809860" lon="-8.6361340">
        <ele>71.5</ele>
        <time>2021-05-23T08:15:23Z</time>
      </trkpt>
      <trkpt lat="42.6810000" lon="-8.6361440">
        <ele>71.5</ele>
        <time>2021-05-23T08:15:24Z</time>
      </trkpt>
      <trkpt lat="42.6810080" lon="-8.6361490">
        <ele>71.5</ele>
        <time>2021-05-23T08:15:25Z</time>
      </trkpt>
      <trkpt lat="42.6810150" lon="-8.6361550">
        <ele>71.5</ele>
        <time>2021-05-23T08:15:26Z</time>
      </trkpt>
      <trkpt lat="42.6810220" lon="-8.6361610">
        <ele>71.5</ele>
        <time>2021-05-23T08:15:27Z</time>
      </trkpt>
      <trkpt lat="42.6810290" lon="-8.6361580">
        <ele>71.5</ele>
        <time>2021-05-23T08:15:28Z</time>
      </trkpt>
      <trkpt lat="42.6810330" lon="-8.6361580">
        <ele>71.5</ele>
        <time>2021-05-23T08:15:29Z</time>
      </trkpt>
      <trkpt lat="42.6810390" lon="-8.6361730">
        <ele>71.6</ele>
        <time>2021-05-23T08:15:30Z</time>
      </trkpt>
      <trkpt lat="42.6810500" lon="-8.6361840">
        <ele>71.6</ele>
        <time>2021-05-23T08:15:31Z</time>
      </trkpt>
      <trkpt lat="42.6810660" lon="-8.6361910">
        <ele>71.6</ele>
        <time>2021-05-23T08:15:32Z</time>
      </trkpt>
      <trkpt lat="42.6810630" lon="-8.6361960">
        <ele>71.6</ele>
        <time>2021-05-23T08:15:33Z</time>
      </trkpt>
      <trkpt lat="42.6810800" lon="-8.6362060">
        <ele>71.7</ele>
        <time>2021-05-23T08:15:34Z</time>
      </trkpt>
      <trkpt lat="42.6810950" lon="-8.6362130">
        <ele>71.7</ele>
        <time>2021-05-23T08:15:35Z</time>
      </trkpt>
      <trkpt lat="42.6810970" lon="-8.6362190">
        <ele>71.7</ele>
        <time>2021-05-23T08:15:36Z</time>
      </trkpt>
      <trkpt lat="42.6811120" lon="-8.6362240">
        <ele>71.8</ele>
        <time>2021-05-23T08:15:37Z</time>
      </trkpt>
      <trkpt lat="42.6811290" lon="-8.6362350">
        <ele>71.8</ele>
        <time>2021-05-23T08:15:38Z</time>
      </trkpt>
      <trkpt lat="42.6811340" lon="-8.6362360">
        <ele>71.8</ele>
        <time>2021-05-23T08:15:39Z</time>
      </trkpt>
      <trkpt lat="42.6811430" lon="-8.6362420">
        <ele>71.9</ele>
        <time>2021-05-23T08:15:40Z</time>
      </trkpt>
      <trkpt lat="42.6811470" lon="-8.6362490">
        <ele>71.9</ele>
        <time>2021-05-23T08:15:41Z</time>
      </trkpt>
      <trkpt lat="42.6811620" lon="-8.6362580">
        <ele>72.0</ele>
        <time>2021-05-23T08:15:42Z</time>
      </trkpt>
      <trkpt lat="42.6811730" lon="-8.6362680">
        <ele>72.0</ele>
        <time>2021-05-23T08:15:43Z</time>
      </trkpt>
      <trkpt lat="42.6811870" lon="-8.6362810">
        <ele>72.1</ele>
        <time>2021-05-23T08:15:44Z</time>
      </trkpt>
      <trkpt lat="42.6811960" lon="-8.6362880">
        <ele>72.2</ele>
        <time>2021-05-23T08:15:45Z</time>
      </trkpt>
      <trkpt lat="42.6812050" lon="-8.6362940">
        <ele>72.2</ele>
        <time>2021-05-23T08:15:46Z</time>
      </trkpt>
      <trkpt lat="42.6812180" lon="-8.6362960">
        <ele>72.3</ele>
        <time>2021-05-23T08:15:47Z</time>
      </trkpt>
      <trkpt lat="42.6812290" lon="-8.6363030">
        <ele>72.4</ele>
        <time>2021-05-23T08:15:48Z</time>
      </trkpt>
      <trkpt lat="42.6812370" lon="-8.6363100">
        <ele>72.4</ele>
        <time>2021-05-23T08:15:49Z</time>
      </trkpt>
      <trkpt lat="42.6812520" lon="-8.6363220">
        <ele>72.5</ele>
        <time>2021-05-23T08:15:50Z</time>
      </trkpt>
      <trkpt lat="42.6812640" lon="-8.6363280">
        <ele>72.6</ele>
        <time>2021-05-23T08:15:51Z</time>
      </trkpt>
      <trkpt lat="42.6812710" lon="-8.6363390">
        <ele>72.7</ele>
        <time>2021-05-23T08:15:52Z</time>
      </trkpt>
      <trkpt lat="42.6812720" lon="-8.6363400">
        <ele>72.7</ele>
        <time>2021-05-23T08:15:53Z</time>
      </trkpt>
      <trkpt lat="42.6812840" lon="-8.6363480">
        <ele>72.7</ele>
        <time>2021-05-23T08:15:54Z</time>
      </trkpt>
      <trkpt lat="42.6812880" lon="-8.6363470">
        <ele>72.8</ele>
        <time>2021-05-23T08:15:55Z</time>
      </trkpt>
      <trkpt lat="42.6813070" lon="-8.6363530">
        <ele>72.9</ele>
        <time>2021-05-23T08:15:56Z</time>
      </trkpt>
      <trkpt lat="42.6813170" lon="-8.6363540">
        <ele>72.9</ele>
        <time>2021-05-23T08:15:57Z</time>
      </trkpt>
      <trkpt lat="42.6813260" lon="-8.6363550">
        <ele>73.0</ele>
        <time>2021-05-23T08:15:58Z</time>
      </trkpt>
      <trkpt lat="42.6813460" lon="-8.6363640">
        <ele>73.1</ele>
        <time>2021-05-23T08:15:59Z</time>
      </trkpt>
      <trkpt lat="42.6813570" lon="-8.6363680">
        <ele>73.2</ele>
        <time>2021-05-23T08:16:00Z</time>
      </trkpt>
      <trkpt lat="42.6813690" lon="-8.6363730">
        <ele>73.3</ele>
        <time>2021-05-23T08:16:01Z</time>
      </trkpt>
      <trkpt lat="42.6813890" lon="-8.6363840">
        <ele>73.4</ele>
        <time>2021-05-23T08:16:02Z</time>
      </trkpt>
      <trkpt lat="42.6813950" lon="-8.6363860">
        <ele>73.5</ele>
        <time>2021-05-23T08:16:03Z</time>
      </trkpt>
      <trkpt lat="42.6814130" lon="-8.6363910">
        <ele>73.6</ele>
        <time>2021-05-23T08:16:04Z</time>
      </trkpt>
      <trkpt lat="42.6814210" lon="-8.6364050">
        <ele>73.7</ele>
        <time>2021-05-23T08:16:05Z</time>
      </trkpt>
      <trkpt lat="42.6814340" lon="-8.6364180">
        <ele>73.8</ele>
        <time>2021-05-23T08:16:06Z</time>
      </trkpt>
      <trkpt lat="42.6814410" lon="-8.6364250">
        <ele>73.9</ele>
        <time>2021-05-23T08:16:07Z</time>
      </trkpt>
      <trkpt lat="42.6814470" lon="-8.6364330">
        <ele>74.0</ele>
        <time>2021-05-23T08:16:08Z</time>
      </trkpt>
      <trkpt lat="42.6814540" lon="-8.6364400">
        <ele>74.0</ele>
        <time>2021-05-23T08:16:09Z</time>
      </trkpt>
      <trkpt lat="42.6814610" lon="-8.6364470">
        <ele>74.1</ele>
        <time>2021-05-23T08:16:10Z</time>
      </trkpt>
      <trkpt lat="42.6814790" lon="-8.6364610">
        <ele>74.3</ele>
        <time>2021-05-23T08:16:11Z</time>
      </trkpt>
      <trkpt lat="42.6814920" lon="-8.6364590">
        <ele>74.4</ele>
        <time>2021-05-23T08:16:12Z</time>
      </trkpt>
      <trkpt lat="42.6815220" lon="-8.6364720">
        <ele>74.7</ele>
        <time>2021-05-23T08:16:13Z</time>
      </trkpt>
      <trkpt lat="42.6815310" lon="-8.6364790">
        <ele>74.7</ele>
        <time>2021-05-23T08:16:14Z</time>
      </trkpt>
      <trkpt lat="42.6815370" lon="-8.6364820">
        <ele>74.8</ele>
        <time>2021-05-23T08:16:15Z</time>
      </trkpt>
      <trkpt lat="42.6815560" lon="-8.6365000">
        <ele>75.0</ele>
        <time>2021-05-23T08:16:16Z</time>
      </trkpt>
      <trkpt lat="42.6815570" lon="-8.6364980">
        <ele>75.0</ele>
        <time>2021-05-23T08:16:17Z</time>
      </trkpt>
      <trkpt lat="42.6815830" lon="-8.6365080">
        <ele>75.2</ele>
        <time>2021-05-23T08:16:18Z</time>
      </trkpt>
      <trkpt lat="42.6815880" lon="-8.6365150">
        <ele>75.3</ele>
        <time>2021-05-23T08:16:19Z</time>
      </trkpt>
      <trkpt lat="42.6815990" lon="-8.6365210">
        <ele>75.4</ele>
        <time>2021-05-23T08:16:20Z</time>
      </trkpt>
      <trkpt lat="42.6815990" lon="-8.6365250">
        <ele>75.4</ele>
        <time>2021-05-23T08:16:21Z</time>
      </trkpt>
      <trkpt lat="42.6816020" lon="-8.6365370">
        <ele>75.5</ele>
        <time>2021-05-23T08:16:22Z</time>
      </trkpt>
      <trkpt lat="42.6816040" lon="-8.6365450">
        <ele>75.6</ele>
        <time>2021-05-23T08:16:23Z</time>
      </trkpt>
      <trkpt lat="42.6816010" lon="-8.6365420">
        <ele>75.6</ele>
        <time>2021-05-23T08:16:24Z</time>
      </trkpt>
      <trkpt lat="42.6816070" lon="-8.6365580">
        <ele>75.7</ele>
        <time>2021-05-23T08:16:25Z</time>
      </trkpt>
      <trkpt lat="42.6816200" lon="-8.6365700">
        <ele>75.8</ele>
        <time>2021-05-23T08:16:26Z</time>
      </trkpt>
      <trkpt lat="42.6816250" lon="-8.6365810">
        <ele>75.9</ele>
        <time>2021-05-23T08:16:27Z</time>
      </trkpt>
      <trkpt lat="42.6816350" lon="-8.6365820">
        <ele>75.9</ele>
        <time>2021-05-23T08:16:28Z</time>
      </trkpt>
      <trkpt lat="42.6816430" lon="-8.6365830">
        <ele>76.0</ele>
        <time>2021-05-23T08:16:29Z</time>
      </trkpt>
      <trkpt lat="42.6816550" lon="-8.6365820">
        <ele>76.0</ele>
        <time>2021-05-23T08:16:30Z</time>
      </trkpt>
      <trkpt lat="42.6816760" lon="-8.6365850">
        <ele>76.2</ele>
        <time>2021-05-23T08:16:31Z</time>
      </trkpt>
      <trkpt lat="42.6816850" lon="-8.6365880">
        <ele>76.2</ele>
        <time>2021-05-23T08:16:32Z</time>
      </trkpt>
      <trkpt lat="42.6816930" lon="-8.6365900">
        <ele>76.3</ele>
        <time>2021-05-23T08:16:33Z</time>
      </trkpt>
      <trkpt lat="42.6817080" lon="-8.6366010">
        <ele>76.3</ele>
        <time>2021-05-23T08:16:34Z</time>
      </trkpt>
      <trkpt lat="42.6817210" lon="-8.6365990">
        <ele>76.4</ele>
        <time>2021-05-23T08:16:35Z</time>
      </trkpt>
      <trkpt lat="42.6817270" lon="-8.6365890">
        <ele>76.4</ele>
        <time>2021-05-23T08:16:36Z</time>
      </trkpt>
      <trkpt lat="42.6817370" lon="-8.6365950">
        <ele>76.4</ele>
        <time>2021-05-23T08:16:37Z</time>
      </trkpt>
      <trkpt lat="42.6817500" lon="-8.6365960">
        <ele>76.5</ele>
        <time>2021-05-23T08:16:38Z</time>
      </trkpt>
      <trkpt lat="42.6817560" lon="-8.6365860">
        <ele>76.5</ele>
        <time>2021-05-23T08:16:39Z</time>
      </trkpt>
      <trkpt lat="42.6817760" lon="-8.6365930">
        <ele>76.6</ele>
        <time>2021-05-23T08:16:40Z</time>
      </trkpt>
      <trkpt lat="42.6817850" lon="-8.6365920">
        <ele>76.6</ele>
        <time>2021-05-23T08:16:41Z</time>
      </trkpt>
      <trkpt lat="42.6817960" lon="-8.6366030">
        <ele>76.6</ele>
        <time>2021-05-23T08:16:42Z</time>
      </trkpt>
      <trkpt lat="42.6817950" lon="-8.6365960">
        <ele>76.6</ele>
        <time>2021-05-23T08:16:43Z</time>
      </trkpt>
      <trkpt lat="42.6818130" lon="-8.6366020">
        <ele>76.6</ele>
        <time>2021-05-23T08:16:44Z</time>
      </trkpt>
      <trkpt lat="42.6818380" lon="-8.6366050">
        <ele>76.7</ele>
        <time>2021-05-23T08:16:45Z</time>
      </trkpt>
      <trkpt lat="42.6818490" lon="-8.6366100">
        <ele>76.7</ele>
        <time>2021-05-23T08:16:46Z</time>
      </trkpt>
      <trkpt lat="42.6818610" lon="-8.6366150">
        <ele>76.7</ele>
        <time>2021-05-23T08:16:47Z</time>
      </trkpt>
      <trkpt lat="42.6818730" lon="-8.6366230">
        <ele>76.7</ele>
        <time>2021-05-23T08:16:48Z</time>
      </trkpt>
      <trkpt lat="42.6818860" lon="-8.6366300">
        <ele>76.7</ele>
        <time>2021-05-23T08:16:49Z</time>
      </trkpt>
      <trkpt lat="42.6818990" lon="-8.6366370">
        <ele>76.8</ele>
        <time>2021-05-23T08:16:50Z</time>
      </trkpt>
      <trkpt lat="42.6819170" lon="-8.6366410">
        <ele>76.8</ele>
        <time>2021-05-23T08:16:51Z</time>
      </trkpt>
      <trkpt lat="42.6819310" lon="-8.6366470">
        <ele>76.8</ele>
        <time>2021-05-23T08:16:52Z</time>
      </trkpt>
      <trkpt lat="42.6819350" lon="-8.6366400">
        <ele>76.9</ele>
        <time>2021-05-23T08:16:53Z</time>
      </trkpt>
      <trkpt lat="42.6819520" lon="-8.6366600">
        <ele>76.9</ele>
        <time>2021-05-23T08:16:54Z</time>
      </trkpt>
      <trkpt lat="42.6819660" lon="-8.6366570">
        <ele>76.9</ele>
        <time>2021-05-23T08:16:55Z</time>
      </trkpt>
      <trkpt lat="42.6819720" lon="-8.6366640">
        <ele>77.0</ele>
        <time>2021-05-23T08:16:56Z</time>
      </trkpt>
      <trkpt lat="42.6819870" lon="-8.6366720">
        <ele>77.0</ele>
        <time>2021-05-23T08:16:57Z</time>
      </trkpt>
      <trkpt lat="42.6819990" lon="-8.6366760">
        <ele>77.1</ele>
        <time>2021-05-23T08:16:58Z</time>
      </trkpt>
      <trkpt lat="42.6819990" lon="-8.6366820">
        <ele>77.1</ele>
        <time>2021-05-23T08:16:59Z</time>
      </trkpt>
      <trkpt lat="42.6820070" lon="-8.6366850">
        <ele>77.1</ele>
        <time>2021-05-23T08:17:00Z</time>
      </trkpt>
      <trkpt lat="42.6820200" lon="-8.6366920">
        <ele>77.2</ele>
        <time>2021-05-23T08:17:01Z</time>
      </trkpt>
      <trkpt lat="42.6820250" lon="-8.6366990">
        <ele>77.2</ele>
        <time>2021-05-23T08:17:02Z</time>
      </trkpt>
      <trkpt lat="42.6820370" lon="-8.6367150">
        <ele>77.3</ele>
        <time>2021-05-23T08:17:03Z</time>
      </trkpt>
      <trkpt lat="42.6820470" lon="-8.6367210">
        <ele>77.4</ele>
        <time>2021-05-23T08:17:04Z</time>
      </trkpt>
      <trkpt lat="42.6820540" lon="-8.6367270">
        <ele>77.4</ele>
        <time>2021-05-23T08:17:05Z</time>
      </trkpt>
      <trkpt lat="42.6820600" lon="-8.6367300">
        <ele>77.4</ele>
        <time>2021-05-23T08:17:06Z</time>
      </trkpt>
      <trkpt lat="42.6820680" lon="-8.6367320">
        <ele>77.5</ele>
        <time>2021-05-23T08:17:07Z</time>
      </trkpt>
      <trkpt lat="42.6820740" lon="-8.6367440">
        <ele>77.6</ele>
        <time>2021-05-23T08:17:08Z</time>
      </trkpt>
      <trkpt lat="42.6820780" lon="-8.6367530">
        <ele>77.6</ele>
        <time>2021-05-23T08:17:09Z</time>
      </trkpt>
      <trkpt lat="42.6820810" lon="-8.6367570">
        <ele>77.7</ele>
        <time>2021-05-23T08:17:10Z</time>
      </trkpt>
      <trkpt lat="42.6820950" lon="-8.6367770">
        <ele>77.8</ele>
        <time>2021-05-23T08:17:11Z</time>
      </trkpt>
      <trkpt lat="42.6821150" lon="-8.6367980">
        <ele>78.0</ele>
        <time>2021-05-23T08:17:12Z</time>
      </trkpt>
      <trkpt lat="42.6821270" lon="-8.6368040">
        <ele>78.1</ele>
        <time>2021-05-23T08:17:13Z</time>
      </trkpt>
      <trkpt lat="42.6821390" lon="-8.6368090">
        <ele>78.2</ele>
        <time>2021-05-23T08:17:14Z</time>
      </trkpt>
      <trkpt lat="42.6821570" lon="-8.6368140">
        <ele>78.4</ele>
        <time>2021-05-23T08:17:15Z</time>
      </trkpt>
      <trkpt lat="42.6821700" lon="-8.6368180">
        <ele>78.5</ele>
        <time>2021-05-23T08:17:16Z</time>
      </trkpt>
      <trkpt lat="42.6821820" lon="-8.6368280">
        <ele>78.6</ele>
        <time>2021-05-23T08:17:17Z</time>
      </trkpt>
      <trkpt lat="42.6821950" lon="-8.6368330">
        <ele>78.8</ele>
        <time>2021-05-23T08:17:18Z</time>
      </trkpt>
      <trkpt lat="42.6822090" lon="-8.6368470">
        <ele>78.9</ele>
        <time>2021-05-23T08:17:19Z</time>
      </trkpt>
      <trkpt lat="42.6822140" lon="-8.6368540">
        <ele>79.0</ele>
        <time>2021-05-23T08:17:20Z</time>
      </trkpt>
      <trkpt lat="42.6822190" lon="-8.6368620">
        <ele>79.1</ele>
        <time>2021-05-23T08:17:21Z</time>
      </trkpt>
      <trkpt lat="42.6822240" lon="-8.6368700">
        <ele>79.2</ele>
        <time>2021-05-23T08:17:22Z</time>
      </trkpt>
      <trkpt lat="42.6822340" lon="-8.6368710">
        <ele>79.3</ele>
        <time>2021-05-23T08:17:23Z</time>
      </trkpt>
      <trkpt lat="42.6822410" lon="-8.6368860">
        <ele>79.5</ele>
        <time>2021-05-23T08:17:24Z</time>
      </trkpt>
      <trkpt lat="42.6822520" lon="-8.6368910">
        <ele>79.6</ele>
        <time>2021-05-23T08:17:25Z</time>
      </trkpt>
      <trkpt lat="42.6822730" lon="-8.6369080">
        <ele>79.9</ele>
        <time>2021-05-23T08:17:26Z</time>
      </trkpt>
      <trkpt lat="42.6822740" lon="-8.6369080">
        <ele>79.9</ele>
        <time>2021-05-23T08:17:27Z</time>
      </trkpt>
      <trkpt lat="42.6822740" lon="-8.6369150">
        <ele>80.0</ele>
        <time>2021-05-23T08:17:28Z</time>
      </trkpt>
      <trkpt lat="42.6822760" lon="-8.6369230">
        <ele>80.0</ele>
        <time>2021-05-23T08:17:29Z</time>
      </trkpt>
      <trkpt lat="42.6822940" lon="-8.6369420">
        <ele>80.3</ele>
        <time>2021-05-23T08:17:30Z</time>
      </trkpt>
      <trkpt lat="42.6823000" lon="-8.6369450">
        <ele>80.4</ele>
        <time>2021-05-23T08:17:31Z</time>
      </trkpt>
      <trkpt lat="42.6823050" lon="-8.6369550">
        <ele>80.5</ele>
        <time>2021-05-23T08:17:32Z</time>
      </trkpt>
      <trkpt lat="42.6823210" lon="-8.6369690">
        <ele>80.7</ele>
        <time>2021-05-23T08:17:33Z</time>
      </trkpt>
      <trkpt lat="42.6823270" lon="-8.6369670">
        <ele>80.8</ele>
        <time>2021-05-23T08:17:34Z</time>
      </trkpt>
      <trkpt lat="42.6823330" lon="-8.6369670">
        <ele>80.9</ele>
        <time>2021-05-23T08:17:35Z</time>
      </trkpt>
      <trkpt lat="42.6823440" lon="-8.6369700">
        <ele>81.0</ele>
        <time>2021-05-23T08:17:36Z</time>
      </trkpt>
      <trkpt lat="42.6823520" lon="-8.6369770">
        <ele>81.1</ele>
        <time>2021-05-23T08:17:37Z</time>
      </trkpt>
      <trkpt lat="42.6823710" lon="-8.6369880">
        <ele>81.4</ele>
        <time>2021-05-23T08:17:38Z</time>
      </trkpt>
      <trkpt lat="42.6823800" lon="-8.6369890">
        <ele>81.5</ele>
        <time>2021-05-23T08:17:39Z</time>
      </trkpt>
      <trkpt lat="42.6823880" lon="-8.6369900">
        <ele>81.5</ele>
        <time>2021-05-23T08:17:40Z</time>
      </trkpt>
      <trkpt lat="42.6823920" lon="-8.6369930">
        <ele>81.6</ele>
        <time>2021-05-23T08:17:41Z</time>
      </trkpt>
      <trkpt lat="42.6823980" lon="-8.6370050">
        <ele>81.7</ele>
        <time>2021-05-23T08:17:42Z</time>
      </trkpt>
      <trkpt lat="42.6824060" lon="-8.6370180">
        <ele>81.8</ele>
        <time>2021-05-23T08:17:43Z</time>
      </trkpt>
      <trkpt lat="42.6824160" lon="-8.6370290">
        <ele>82.0</ele>
        <time>2021-05-23T08:17:44Z</time>
      </trkpt>
      <trkpt lat="42.6824150" lon="-8.6370290">
        <ele>82.0</ele>
        <time>2021-05-23T08:17:45Z</time>
      </trkpt>
      <trkpt lat="42.6824240" lon="-8.6370280">
        <ele>82.0</ele>
        <time>2021-05-23T08:17:46Z</time>
      </trkpt>
      <trkpt lat="42.6824290" lon="-8.6370270">
        <ele>82.1</ele>
        <time>2021-05-23T08:17:47Z</time>
      </trkpt>
      <trkpt lat="42.6824400" lon="-8.6370130">
        <ele>82.2</ele>
        <time>2021-05-23T08:17:48Z</time>
      </trkpt>
      <trkpt lat="42.6824490" lon="-8.6370220">
        <ele>82.3</ele>
        <time>2021-05-23T08:17:49Z</time>
      </trkpt>
      <trkpt lat="42.6824610" lon="-8.6370150">
        <ele>82.4</ele>
        <time>2021-05-23T08:17:50Z</time>
      </trkpt>
      <trkpt lat="42.6824740" lon="-8.6370200">
        <ele>82.4</ele>
        <time>2021-05-23T08:17:51Z</time>
      </trkpt>
      <trkpt lat="42.6824980" lon="-8.6370220">
        <ele>82.6</ele>
        <time>2021-05-23T08:17:52Z</time>
      </trkpt>
      <trkpt lat="42.6825120" lon="-8.6370260">
        <ele>82.6</ele>
        <time>2021-05-23T08:17:54Z</time>
      </trkpt>
      <trkpt lat="42.6825260" lon="-8.6370290">
        <ele>82.7</ele>
        <time>2021-05-23T08:17:55Z</time>
      </trkpt>
      <trkpt lat="42.6825400" lon="-8.6370330">
        <ele>82.7</ele>
        <time>2021-05-23T08:17:56Z</time>
      </trkpt>
      <trkpt lat="42.6825580" lon="-8.6370330">
        <ele>82.6</ele>
        <time>2021-05-23T08:17:58Z</time>
      </trkpt>
      <trkpt lat="42.6825680" lon="-8.6370320">
        <ele>82.6</ele>
        <time>2021-05-23T08:17:59Z</time>
      </trkpt>
      <trkpt lat="42.6825780" lon="-8.6370300">
        <ele>82.6</ele>
        <time>2021-05-23T08:18:00Z</time>
      </trkpt>
      <trkpt lat="42.6825930" lon="-8.6370350">
        <ele>82.5</ele>
        <time>2021-05-23T08:18:01Z</time>
      </trkpt>
      <trkpt lat="42.6826040" lon="-8.6370380">
        <ele>82.5</ele>
        <time>2021-05-23T08:18:02Z</time>
      </trkpt>
      <trkpt lat="42.6826070" lon="-8.6370420">
        <ele>82.5</ele>
        <time>2021-05-23T08:18:03Z</time>
      </trkpt>
      <trkpt lat="42.6826130" lon="-8.6370420">
        <ele>82.4</ele>
        <time>2021-05-23T08:18:04Z</time>
      </trkpt>
      <trkpt lat="42.6826180" lon="-8.6370420">
        <ele>82.4</ele>
        <time>2021-05-23T08:18:05Z</time>
      </trkpt>
      <trkpt lat="42.6826280" lon="-8.6370470">
        <ele>82.4</ele>
        <time>2021-05-23T08:18:06Z</time>
      </trkpt>
      <trkpt lat="42.6826420" lon="-8.6370490">
        <ele>82.3</ele>
        <time>2021-05-23T08:18:07Z</time>
      </trkpt>
      <trkpt lat="42.6826510" lon="-8.6370480">
        <ele>82.3</ele>
        <time>2021-05-23T08:18:08Z</time>
      </trkpt>
      <trkpt lat="42.6826610" lon="-8.6370550">
        <ele>82.2</ele>
        <time>2021-05-23T08:18:09Z</time>
      </trkpt>
      <trkpt lat="42.6826760" lon="-8.6370520">
        <ele>82.1</ele>
        <time>2021-05-23T08:18:10Z</time>
      </trkpt>
      <trkpt lat="42.6827000" lon="-8.6370520">
        <ele>82.0</ele>
        <time>2021-05-23T08:18:11Z</time>
      </trkpt>
      <trkpt lat="42.6827080" lon="-8.6370550">
        <ele>82.0</ele>
        <time>2021-05-23T08:18:12Z</time>
      </trkpt>
      <trkpt lat="42.6827170" lon="-8.6370580">
        <ele>81.9</ele>
        <time>2021-05-23T08:18:13Z</time>
      </trkpt>
      <trkpt lat="42.6827250" lon="-8.6370610">
        <ele>81.8</ele>
        <time>2021-05-23T08:18:14Z</time>
      </trkpt>
      <trkpt lat="42.6827290" lon="-8.6370480">
        <ele>81.8</ele>
        <time>2021-05-23T08:18:15Z</time>
      </trkpt>
      <trkpt lat="42.6827390" lon="-8.6370600">
        <ele>81.7</ele>
        <time>2021-05-23T08:18:16Z</time>
      </trkpt>
      <trkpt lat="42.6827420" lon="-8.6370590">
        <ele>81.7</ele>
        <time>2021-05-23T08:18:17Z</time>
      </trkpt>
      <trkpt lat="42.6827570" lon="-8.6370670">
        <ele>81.6</ele>
        <time>2021-05-23T08:18:18Z</time>
      </trkpt>
      <trkpt lat="42.6827790" lon="-8.6370680">
        <ele>81.4</ele>
        <time>2021-05-23T08:18:19Z</time>
      </trkpt>
      <trkpt lat="42.6827920" lon="-8.6370760">
        <ele>81.3</ele>
        <time>2021-05-23T08:18:20Z</time>
      </trkpt>
      <trkpt lat="42.6828060" lon="-8.6370830">
        <ele>81.2</ele>
        <time>2021-05-23T08:18:21Z</time>
      </trkpt>
      <trkpt lat="42.6828280" lon="-8.6370830">
        <ele>81.0</ele>
        <time>2021-05-23T08:18:22Z</time>
      </trkpt>
      <trkpt lat="42.6828370" lon="-8.6370830">
        <ele>80.9</ele>
        <time>2021-05-23T08:18:23Z</time>
      </trkpt>
      <trkpt lat="42.6828470" lon="-8.6370820">
        <ele>80.9</ele>
        <time>2021-05-23T08:18:24Z</time>
      </trkpt>
      <trkpt lat="42.6828610" lon="-8.6370770">
        <ele>80.7</ele>
        <time>2021-05-23T08:18:25Z</time>
      </trkpt>
      <trkpt lat="42.6828810" lon="-8.6370880">
        <ele>80.6</ele>
        <time>2021-05-23T08:18:26Z</time>
      </trkpt>
      <trkpt lat="42.6828960" lon="-8.6370910">
        <ele>80.4</ele>
        <time>2021-05-23T08:18:27Z</time>
      </trkpt>
      <trkpt lat="42.6829100" lon="-8.6370930">
        <ele>80.3</ele>
        <time>2021-05-23T08:18:28Z</time>
      </trkpt>
      <trkpt lat="42.6829250" lon="-8.6370980">
        <ele>80.2</ele>
        <time>2021-05-23T08:18:29Z</time>
      </trkpt>
      <trkpt lat="42.6829390" lon="-8.6370920">
        <ele>80.0</ele>
        <time>2021-05-23T08:18:30Z</time>
      </trkpt>
      <trkpt lat="42.6829560" lon="-8.6370890">
        <ele>79.8</ele>
        <time>2021-05-23T08:18:31Z</time>
      </trkpt>
      <trkpt lat="42.6829610" lon="-8.6370900">
        <ele>79.8</ele>
        <time>2021-05-23T08:18:32Z</time>
      </trkpt>
      <trkpt lat="42.6829650" lon="-8.6370920">
        <ele>79.8</ele>
        <time>2021-05-23T08:18:33Z</time>
      </trkpt>
      <trkpt lat="42.6829700" lon="-8.6370930">
        <ele>79.7</ele>
        <time>2021-05-23T08:18:34Z</time>
      </trkpt>
      <trkpt lat="42.6829750" lon="-8.6370940">
        <ele>79.6</ele>
        <time>2021-05-23T08:18:35Z</time>
      </trkpt>
      <trkpt lat="42.6829870" lon="-8.6370880">
        <ele>79.5</ele>
        <time>2021-05-23T08:18:36Z</time>
      </trkpt>
      <trkpt lat="42.6829970" lon="-8.6370890">
        <ele>79.4</ele>
        <time>2021-05-23T08:18:37Z</time>
      </trkpt>
      <trkpt lat="42.6830060" lon="-8.6370890">
        <ele>79.3</ele>
        <time>2021-05-23T08:18:38Z</time>
      </trkpt>
      <trkpt lat="42.6830150" lon="-8.6370900">
        <ele>79.2</ele>
        <time>2021-05-23T08:18:39Z</time>
      </trkpt>
      <trkpt lat="42.6830340" lon="-8.6370980">
        <ele>79.0</ele>
        <time>2021-05-23T08:18:40Z</time>
      </trkpt>
      <trkpt lat="42.6830420" lon="-8.6370970">
        <ele>78.9</ele>
        <time>2021-05-23T08:18:41Z</time>
      </trkpt>
      <trkpt lat="42.6830510" lon="-8.6370970">
        <ele>78.8</ele>
        <time>2021-05-23T08:18:42Z</time>
      </trkpt>
      <trkpt lat="42.6830370" lon="-8.6370890">
        <ele>78.6</ele>
        <time>2021-05-23T08:18:43Z</time>
      </trkpt>
      <trkpt lat="42.6830480" lon="-8.6370930">
        <ele>78.5</ele>
        <time>2021-05-23T08:18:44Z</time>
      </trkpt>
      <trkpt lat="42.6830550" lon="-8.6370930">
        <ele>78.4</ele>
        <time>2021-05-23T08:18:45Z</time>
      </trkpt>
      <trkpt lat="42.6830660" lon="-8.6370840">
        <ele>78.3</ele>
        <time>2021-05-23T08:18:46Z</time>
      </trkpt>
      <trkpt lat="42.6830830" lon="-8.6370870">
        <ele>78.1</ele>
        <time>2021-05-23T08:18:47Z</time>
      </trkpt>
      <trkpt lat="42.6831020" lon="-8.6370840">
        <ele>77.9</ele>
        <time>2021-05-23T08:18:48Z</time>
      </trkpt>
      <trkpt lat="42.6831150" lon="-8.6370830">
        <ele>77.7</ele>
        <time>2021-05-23T08:18:49Z</time>
      </trkpt>
      <trkpt lat="42.6831270" lon="-8.6370810">
        <ele>77.6</ele>
        <time>2021-05-23T08:18:50Z</time>
      </trkpt>
      <trkpt lat="42.6831350" lon="-8.6370690">
        <ele>77.5</ele>
        <time>2021-05-23T08:18:51Z</time>
      </trkpt>
      <trkpt lat="42.6831420" lon="-8.6370620">
        <ele>77.4</ele>
        <time>2021-05-23T08:18:52Z</time>
      </trkpt>
      <trkpt lat="42.6831480" lon="-8.6370540">
        <ele>77.3</ele>
        <time>2021-05-23T08:18:53Z</time>
      </trkpt>
      <trkpt lat="42.6831550" lon="-8.6370470">
        <ele>77.1</ele>
        <time>2021-05-23T08:18:54Z</time>
      </trkpt>
      <trkpt lat="42.6831740" lon="-8.6370410">
        <ele>76.9</ele>
        <time>2021-05-23T08:18:55Z</time>
      </trkpt>
      <trkpt lat="42.6831830" lon="-8.6370380">
        <ele>76.8</ele>
        <time>2021-05-23T08:18:56Z</time>
      </trkpt>
      <trkpt lat="42.6831930" lon="-8.6370340">
        <ele>76.7</ele>
        <time>2021-05-23T08:18:57Z</time>
      </trkpt>
      <trkpt lat="42.6832160" lon="-8.6370240">
        <ele>76.4</ele>
        <time>2021-05-23T08:18:58Z</time>
      </trkpt>
      <trkpt lat="42.6832250" lon="-8.6370170">
        <ele>76.2</ele>
        <time>2021-05-23T08:18:59Z</time>
      </trkpt>
      <trkpt lat="42.6832340" lon="-8.6370100">
        <ele>76.1</ele>
        <time>2021-05-23T08:19:00Z</time>
      </trkpt>
      <trkpt lat="42.6832420" lon="-8.6370020">
        <ele>76.0</ele>
        <time>2021-05-23T08:19:01Z</time>
      </trkpt>
      <trkpt lat="42.6832510" lon="-8.6369950">
        <ele>75.9</ele>
        <time>2021-05-23T08:19:02Z</time>
      </trkpt>
      <trkpt lat="42.6832600" lon="-8.6369880">
        <ele>75.7</ele>
        <time>2021-05-23T08:19:03Z</time>
      </trkpt>
      <trkpt lat="42.6832740" lon="-8.6369740">
        <ele>75.6</ele>
        <time>2021-05-23T08:19:04Z</time>
      </trkpt>
      <trkpt lat="42.6832800" lon="-8.6369690">
        <ele>75.5</ele>
        <time>2021-05-23T08:19:05Z</time>
      </trkpt>
      <trkpt lat="42.6832850" lon="-8.6369630">
        <ele>75.4</ele>
        <time>2021-05-23T08:19:06Z</time>
      </trkpt>
      <trkpt lat="42.6832900" lon="-8.6369570">
        <ele>75.4</ele>
        <time>2021-05-23T08:19:07Z</time>
      </trkpt>
      <trkpt lat="42.6833000" lon="-8.6369500">
        <ele>75.2</ele>
        <time>2021-05-23T08:19:08Z</time>
      </trkpt>
      <trkpt lat="42.6833050" lon="-8.6369390">
        <ele>75.1</ele>
        <time>2021-05-23T08:19:09Z</time>
      </trkpt>
      <trkpt lat="42.6833090" lon="-8.6369280">
        <ele>75.0</ele>
        <time>2021-05-23T08:19:10Z</time>
      </trkpt>
      <trkpt lat="42.6833200" lon="-8.6369190">
        <ele>74.8</ele>
        <time>2021-05-23T08:19:11Z</time>
      </trkpt>
      <trkpt lat="42.6833270" lon="-8.6368990">
        <ele>74.6</ele>
        <time>2021-05-23T08:19:12Z</time>
      </trkpt>
      <trkpt lat="42.6833430" lon="-8.6368870">
        <ele>74.4</ele>
        <time>2021-05-23T08:19:13Z</time>
      </trkpt>
      <trkpt lat="42.6833570" lon="-8.6368770">
        <ele>74.3</ele>
        <time>2021-05-23T08:19:14Z</time>
      </trkpt>
      <trkpt lat="42.6833670" lon="-8.6368610">
        <ele>74.1</ele>
        <time>2021-05-23T08:19:15Z</time>
      </trkpt>
      <trkpt lat="42.6833730" lon="-8.6368540">
        <ele>74.0</ele>
        <time>2021-05-23T08:19:16Z</time>
      </trkpt>
      <trkpt lat="42.6833800" lon="-8.6368460">
        <ele>73.9</ele>
        <time>2021-05-23T08:19:17Z</time>
      </trkpt>
      <trkpt lat="42.6833860" lon="-8.6368390">
        <ele>73.8</ele>
        <time>2021-05-23T08:19:18Z</time>
      </trkpt>
      <trkpt lat="42.6833930" lon="-8.6368310">
        <ele>73.7</ele>
        <time>2021-05-23T08:19:19Z</time>
      </trkpt>
      <trkpt lat="42.6834120" lon="-8.6368230">
        <ele>73.5</ele>
        <time>2021-05-23T08:19:20Z</time>
      </trkpt>
      <trkpt lat="42.6834270" lon="-8.6368180">
        <ele>73.3</ele>
        <time>2021-05-23T08:19:21Z</time>
      </trkpt>
      <trkpt lat="42.6834310" lon="-8.6368030">
        <ele>73.2</ele>
        <time>2021-05-23T08:19:22Z</time>
      </trkpt>
      <trkpt lat="42.6834340" lon="-8.6367980">
        <ele>73.2</ele>
        <time>2021-05-23T08:19:23Z</time>
      </trkpt>
      <trkpt lat="42.6834410" lon="-8.6367840">
        <ele>73.1</ele>
        <time>2021-05-23T08:19:24Z</time>
      </trkpt>
      <trkpt lat="42.6834530" lon="-8.6367780">
        <ele>72.9</ele>
        <time>2021-05-23T08:19:25Z</time>
      </trkpt>
      <trkpt lat="42.6834660" lon="-8.6367640">
        <ele>72.7</ele>
        <time>2021-05-23T08:19:26Z</time>
      </trkpt>
      <trkpt lat="42.6834720" lon="-8.6367480">
        <ele>72.6</ele>
        <time>2021-05-23T08:19:27Z</time>
      </trkpt>
      <trkpt lat="42.6834780" lon="-8.6367430">
        <ele>72.5</ele>
        <time>2021-05-23T08:19:28Z</time>
      </trkpt>
      <trkpt lat="42.6834840" lon="-8.6367390">
        <ele>72.4</ele>
        <time>2021-05-23T08:19:29Z</time>
      </trkpt>
      <trkpt lat="42.6834890" lon="-8.6367340">
        <ele>72.4</ele>
        <time>2021-05-23T08:19:30Z</time>
      </trkpt>
      <trkpt lat="42.6834950" lon="-8.6367300">
        <ele>72.3</ele>
        <time>2021-05-23T08:19:31Z</time>
      </trkpt>
      <trkpt lat="42.6835010" lon="-8.6367250">
        <ele>72.3</ele>
        <time>2021-05-23T08:19:32Z</time>
      </trkpt>
      <trkpt lat="42.6835160" lon="-8.6367280">
        <ele>72.1</ele>
        <time>2021-05-23T08:19:33Z</time>
      </trkpt>
      <trkpt lat="42.6835220" lon="-8.6367250">
        <ele>72.1</ele>
        <time>2021-05-23T08:19:34Z</time>
      </trkpt>
      <trkpt lat="42.6835370" lon="-8.6367220">
        <ele>71.9</ele>
        <time>2021-05-23T08:19:35Z</time>
      </trkpt>
      <trkpt lat="42.6835500" lon="-8.6367170">
        <ele>71.7</ele>
        <time>2021-05-23T08:19:36Z</time>
      </trkpt>
      <trkpt lat="42.6835620" lon="-8.6367060">
        <ele>71.6</ele>
        <time>2021-05-23T08:19:37Z</time>
      </trkpt>
      <trkpt lat="42.6835760" lon="-8.6367010">
        <ele>71.5</ele>
        <time>2021-05-23T08:19:38Z</time>
      </trkpt>
      <trkpt lat="42.6835810" lon="-8.6367000">
        <ele>71.5</ele>
        <time>2021-05-23T08:19:39Z</time>
      </trkpt>
      <trkpt lat="42.6835870" lon="-8.6366980">
        <ele>71.4</ele>
        <time>2021-05-23T08:19:40Z</time>
      </trkpt>
      <trkpt lat="42.6835920" lon="-8.6366960">
        <ele>71.3</ele>
        <time>2021-05-23T08:19:41Z</time>
      </trkpt>
      <trkpt lat="42.6835970" lon="-8.6366950">
        <ele>71.3</ele>
        <time>2021-05-23T08:19:42Z</time>
      </trkpt>
      <trkpt lat="42.6836020" lon="-8.6366930">
        <ele>71.2</ele>
        <time>2021-05-23T08:19:43Z</time>
      </trkpt>
      <trkpt lat="42.6836170" lon="-8.6366870">
        <ele>71.1</ele>
        <time>2021-05-23T08:19:44Z</time>
      </trkpt>
      <trkpt lat="42.6836150" lon="-8.6366880">
        <ele>71.1</ele>
        <time>2021-05-23T08:19:45Z</time>
      </trkpt>
      <trkpt lat="42.6836200" lon="-8.6366830">
        <ele>71.0</ele>
        <time>2021-05-23T08:19:46Z</time>
      </trkpt>
      <trkpt lat="42.6836230" lon="-8.6366710">
        <ele>70.9</ele>
        <time>2021-05-23T08:19:47Z</time>
      </trkpt>
      <trkpt lat="42.6836320" lon="-8.6366680">
        <ele>70.8</ele>
        <time>2021-05-23T08:19:48Z</time>
      </trkpt>
      <trkpt lat="42.6836500" lon="-8.6366560">
        <ele>70.6</ele>
        <time>2021-05-23T08:19:49Z</time>
      </trkpt>
      <trkpt lat="42.6836600" lon="-8.6366600">
        <ele>70.5</ele>
        <time>2021-05-23T08:19:50Z</time>
      </trkpt>
      <trkpt lat="42.6836740" lon="-8.6366580">
        <ele>70.4</ele>
        <time>2021-05-23T08:19:51Z</time>
      </trkpt>
      <trkpt lat="42.6836890" lon="-8.6366610">
        <ele>70.3</ele>
        <time>2021-05-23T08:19:52Z</time>
      </trkpt>
      <trkpt lat="42.6837020" lon="-8.6366600">
        <ele>70.1</ele>
        <time>2021-05-23T08:19:53Z</time>
      </trkpt>
      <trkpt lat="42.6836960" lon="-8.6366480">
        <ele>70.0</ele>
        <time>2021-05-23T08:19:54Z</time>
      </trkpt>
      <trkpt lat="42.6837080" lon="-8.6366460">
        <ele>69.9</ele>
        <time>2021-05-23T08:19:55Z</time>
      </trkpt>
      <trkpt lat="42.6837240" lon="-8.6366460">
        <ele>69.8</ele>
        <time>2021-05-23T08:19:56Z</time>
      </trkpt>
      <trkpt lat="42.6837350" lon="-8.6366430">
        <ele>69.6</ele>
        <time>2021-05-23T08:19:57Z</time>
      </trkpt>
      <trkpt lat="42.6837430" lon="-8.6366430">
        <ele>69.6</ele>
        <time>2021-05-23T08:19:58Z</time>
      </trkpt>
      <trkpt lat="42.6837410" lon="-8.6366440">
        <ele>69.5</ele>
        <time>2021-05-23T08:19:59Z</time>
      </trkpt>
      <trkpt lat="42.6837510" lon="-8.6366520">
        <ele>69.5</ele>
        <time>2021-05-23T08:20:00Z</time>
      </trkpt>
      <trkpt lat="42.6837770" lon="-8.6366490">
        <ele>69.2</ele>
        <time>2021-05-23T08:20:01Z</time>
      </trkpt>
      <trkpt lat="42.6837870" lon="-8.6366440">
        <ele>69.1</ele>
        <time>2021-05-23T08:20:02Z</time>
      </trkpt>
      <trkpt lat="42.6838050" lon="-8.6366370">
        <ele>69.0</ele>
        <time>2021-05-23T08:20:03Z</time>
      </trkpt>
      <trkpt lat="42.6838140" lon="-8.6366330">
        <ele>68.9</ele>
        <time>2021-05-23T08:20:04Z</time>
      </trkpt>
      <trkpt lat="42.6838360" lon="-8.6366330">
        <ele>68.6</ele>
        <time>2021-05-23T08:20:05Z</time>
      </trkpt>
      <trkpt lat="42.6838430" lon="-8.6366330">
        <ele>68.6</ele>
        <time>2021-05-23T08:20:06Z</time>
      </trkpt>
      <trkpt lat="42.6838510" lon="-8.6366320">
        <ele>68.5</ele>
        <time>2021-05-23T08:20:07Z</time>
      </trkpt>
      <trkpt lat="42.6838580" lon="-8.6366310">
        <ele>68.4</ele>
        <time>2021-05-23T08:20:08Z</time>
      </trkpt>
      <trkpt lat="42.6838850" lon="-8.6366300">
        <ele>68.2</ele>
        <time>2021-05-23T08:20:09Z</time>
      </trkpt>
      <trkpt lat="42.6838940" lon="-8.6366300">
        <ele>68.1</ele>
        <time>2021-05-23T08:20:10Z</time>
      </trkpt>
      <trkpt lat="42.6839030" lon="-8.6366300">
        <ele>68.0</ele>
        <time>2021-05-23T08:20:11Z</time>
      </trkpt>
      <trkpt lat="42.6839160" lon="-8.6366310">
        <ele>67.9</ele>
        <time>2021-05-23T08:20:12Z</time>
      </trkpt>
      <trkpt lat="42.6839260" lon="-8.6366330">
        <ele>67.8</ele>
        <time>2021-05-23T08:20:13Z</time>
      </trkpt>
      <trkpt lat="42.6839390" lon="-8.6366300">
        <ele>67.7</ele>
        <time>2021-05-23T08:20:14Z</time>
      </trkpt>
      <trkpt lat="42.6839390" lon="-8.6366230">
        <ele>67.7</ele>
        <time>2021-05-23T08:20:15Z</time>
      </trkpt>
      <trkpt lat="42.6839640" lon="-8.6366270">
        <ele>67.4</ele>
        <time>2021-05-23T08:20:16Z</time>
      </trkpt>
      <trkpt lat="42.6839720" lon="-8.6366220">
        <ele>67.3</ele>
        <time>2021-05-23T08:20:17Z</time>
      </trkpt>
      <trkpt lat="42.6839880" lon="-8.6366180">
        <ele>67.2</ele>
        <time>2021-05-23T08:20:18Z</time>
      </trkpt>
      <trkpt lat="42.6839970" lon="-8.6366140">
        <ele>67.1</ele>
        <time>2021-05-23T08:20:19Z</time>
      </trkpt>
      <trkpt lat="42.6840060" lon="-8.6366060">
        <ele>67.1</ele>
        <time>2021-05-23T08:20:20Z</time>
      </trkpt>
      <trkpt lat="42.6840360" lon="-8.6366100">
        <ele>66.8</ele>
        <time>2021-05-23T08:20:21Z</time>
      </trkpt>
      <trkpt lat="42.6840420" lon="-8.6366060">
        <ele>66.7</ele>
        <time>2021-05-23T08:20:22Z</time>
      </trkpt>
      <trkpt lat="42.6840730" lon="-8.6366050">
        <ele>66.4</ele>
        <time>2021-05-23T08:20:23Z</time>
      </trkpt>
      <trkpt lat="42.6840860" lon="-8.6366060">
        <ele>66.3</ele>
        <time>2021-05-23T08:20:24Z</time>
      </trkpt>
      <trkpt lat="42.6840990" lon="-8.6365920">
        <ele>66.1</ele>
        <time>2021-05-23T08:20:25Z</time>
      </trkpt>
      <trkpt lat="42.6841200" lon="-8.6366030">
        <ele>65.9</ele>
        <time>2021-05-23T08:20:26Z</time>
      </trkpt>
      <trkpt lat="42.6841350" lon="-8.6366020">
        <ele>65.9</ele>
        <time>2021-05-23T08:20:27Z</time>
      </trkpt>
      <trkpt lat="42.6841540" lon="-8.6365990">
        <ele>65.7</ele>
        <time>2021-05-23T08:20:28Z</time>
      </trkpt>
      <trkpt lat="42.6841630" lon="-8.6365970">
        <ele>65.6</ele>
        <time>2021-05-23T08:20:29Z</time>
      </trkpt>
      <trkpt lat="42.6841740" lon="-8.6365870">
        <ele>65.5</ele>
        <time>2021-05-23T08:20:30Z</time>
      </trkpt>
      <trkpt lat="42.6841810" lon="-8.6365900">
        <ele>65.4</ele>
        <time>2021-05-23T08:20:31Z</time>
      </trkpt>
      <trkpt lat="42.6841970" lon="-8.6365730">
        <ele>65.3</ele>
        <time>2021-05-23T08:20:32Z</time>
      </trkpt>
      <trkpt lat="42.6841970" lon="-8.6365710">
        <ele>65.2</ele>
        <time>2021-05-23T08:20:33Z</time>
      </trkpt>
      <trkpt lat="42.6842040" lon="-8.6365620">
        <ele>65.3</ele>
        <time>2021-05-23T08:20:34Z</time>
      </trkpt>
      <trkpt lat="42.6842160" lon="-8.6365610">
        <ele>65.1</ele>
        <time>2021-05-23T08:20:35Z</time>
      </trkpt>
      <trkpt lat="42.6842230" lon="-8.6365590">
        <ele>65.1</ele>
        <time>2021-05-23T08:20:36Z</time>
      </trkpt>
      <trkpt lat="42.6842290" lon="-8.6365570">
        <ele>65.0</ele>
        <time>2021-05-23T08:20:37Z</time>
      </trkpt>
      <trkpt lat="42.6842360" lon="-8.6365550">
        <ele>65.0</ele>
        <time>2021-05-23T08:20:38Z</time>
      </trkpt>
      <trkpt lat="42.6842420" lon="-8.6365530">
        <ele>64.9</ele>
        <time>2021-05-23T08:20:39Z</time>
      </trkpt>
      <trkpt lat="42.6842600" lon="-8.6365510">
        <ele>64.7</ele>
        <time>2021-05-23T08:20:40Z</time>
      </trkpt>
      <trkpt lat="42.6842700" lon="-8.6365520">
        <ele>64.7</ele>
        <time>2021-05-23T08:20:41Z</time>
      </trkpt>
      <trkpt lat="42.6842790" lon="-8.6365520">
        <ele>64.6</ele>
        <time>2021-05-23T08:20:42Z</time>
      </trkpt>
      <trkpt lat="42.6842900" lon="-8.6365540">
        <ele>64.5</ele>
        <time>2021-05-23T08:20:43Z</time>
      </trkpt>
      <trkpt lat="42.6843010" lon="-8.6365580">
        <ele>64.4</ele>
        <time>2021-05-23T08:20:44Z</time>
      </trkpt>
      <trkpt lat="42.6843100" lon="-8.6365570">
        <ele>64.3</ele>
        <time>2021-05-23T08:20:45Z</time>
      </trkpt>
      <trkpt lat="42.6843250" lon="-8.6365590">
        <ele>64.2</ele>
        <time>2021-05-23T08:20:46Z</time>
      </trkpt>
      <trkpt lat="42.6843270" lon="-8.6365640">
        <ele>64.1</ele>
        <time>2021-05-23T08:20:47Z</time>
      </trkpt>
      <trkpt lat="42.6843360" lon="-8.6365710">
        <ele>64.1</ele>
        <time>2021-05-23T08:20:48Z</time>
      </trkpt>
      <trkpt lat="42.6843560" lon="-8.6365750">
        <ele>63.9</ele>
        <time>2021-05-23T08:20:49Z</time>
      </trkpt>
      <trkpt lat="42.6843660" lon="-8.6365810">
        <ele>63.8</ele>
        <time>2021-05-23T08:20:50Z</time>
      </trkpt>
      <trkpt lat="42.6843780" lon="-8.6365940">
        <ele>63.7</ele>
        <time>2021-05-23T08:20:51Z</time>
      </trkpt>
      <trkpt lat="42.6843870" lon="-8.6365930">
        <ele>63.6</ele>
        <time>2021-05-23T08:20:52Z</time>
      </trkpt>
      <trkpt lat="42.6843890" lon="-8.6365960">
        <ele>63.6</ele>
        <time>2021-05-23T08:20:53Z</time>
      </trkpt>
      <trkpt lat="42.6843910" lon="-8.6366000">
        <ele>63.6</ele>
        <time>2021-05-23T08:20:54Z</time>
      </trkpt>
      <trkpt lat="42.6844000" lon="-8.6365940">
        <ele>63.5</ele>
        <time>2021-05-23T08:20:55Z</time>
      </trkpt>
      <trkpt lat="42.6843990" lon="-8.6365930">
        <ele>63.5</ele>
        <time>2021-05-23T08:20:56Z</time>
      </trkpt>
      <trkpt lat="42.6844100" lon="-8.6365970">
        <ele>63.4</ele>
        <time>2021-05-23T08:20:57Z</time>
      </trkpt>
      <trkpt lat="42.6844240" lon="-8.6366060">
        <ele>63.3</ele>
        <time>2021-05-23T08:20:58Z</time>
      </trkpt>
      <trkpt lat="42.6844320" lon="-8.6366080">
        <ele>63.3</ele>
        <time>2021-05-23T08:20:59Z</time>
      </trkpt>
      <trkpt lat="42.6844440" lon="-8.6366110">
        <ele>63.2</ele>
        <time>2021-05-23T08:21:00Z</time>
      </trkpt>
      <trkpt lat="42.6844470" lon="-8.6366110">
        <ele>63.2</ele>
        <time>2021-05-23T08:21:01Z</time>
      </trkpt>
      <trkpt lat="42.6844530" lon="-8.6366070">
        <ele>63.2</ele>
        <time>2021-05-23T08:21:02Z</time>
      </trkpt>
      <trkpt lat="42.6844620" lon="-8.6366010">
        <ele>63.1</ele>
        <time>2021-05-23T08:21:03Z</time>
      </trkpt>
      <trkpt lat="42.6844730" lon="-8.6366030">
        <ele>63.1</ele>
        <time>2021-05-23T08:21:04Z</time>
      </trkpt>
      <trkpt lat="42.6844760" lon="-8.6366090">
        <ele>63.1</ele>
        <time>2021-05-23T08:21:05Z</time>
      </trkpt>
      <trkpt lat="42.6844850" lon="-8.6366160">
        <ele>63.0</ele>
        <time>2021-05-23T08:21:06Z</time>
      </trkpt>
      <trkpt lat="42.6844940" lon="-8.6366230">
        <ele>63.0</ele>
        <time>2021-05-23T08:21:07Z</time>
      </trkpt>
      <trkpt lat="42.6845070" lon="-8.6366340">
        <ele>62.9</ele>
        <time>2021-05-23T08:21:08Z</time>
      </trkpt>
      <trkpt lat="42.6845150" lon="-8.6366410">
        <ele>62.9</ele>
        <time>2021-05-23T08:21:09Z</time>
      </trkpt>
      <trkpt lat="42.6845300" lon="-8.6366460">
        <ele>62.9</ele>
        <time>2021-05-23T08:21:10Z</time>
      </trkpt>
      <trkpt lat="42.6845370" lon="-8.6366500">
        <ele>62.9</ele>
        <time>2021-05-23T08:21:11Z</time>
      </trkpt>
      <trkpt lat="42.6845450" lon="-8.6366530">
        <ele>62.9</ele>
        <time>2021-05-23T08:21:12Z</time>
      </trkpt>
      <trkpt lat="42.6845520" lon="-8.6366570">
        <ele>62.9</ele>
        <time>2021-05-23T08:21:13Z</time>
      </trkpt>
      <trkpt lat="42.6845620" lon="-8.6366650">
        <ele>62.9</ele>
        <time>2021-05-23T08:21:14Z</time>
      </trkpt>
      <trkpt lat="42.6845650" lon="-8.6366730">
        <ele>62.9</ele>
        <time>2021-05-23T08:21:15Z</time>
      </trkpt>
      <trkpt lat="42.6845650" lon="-8.6366700">
        <ele>62.9</ele>
        <time>2021-05-23T08:21:16Z</time>
      </trkpt>
      <trkpt lat="42.6845780" lon="-8.6366720">
        <ele>63.0</ele>
        <time>2021-05-23T08:21:17Z</time>
      </trkpt>
      <trkpt lat="42.6845920" lon="-8.6366770">
        <ele>63.0</ele>
        <time>2021-05-23T08:21:18Z</time>
      </trkpt>
      <trkpt lat="42.6845970" lon="-8.6366770">
        <ele>63.0</ele>
        <time>2021-05-23T08:21:19Z</time>
      </trkpt>
      <trkpt lat="42.6846000" lon="-8.6366860">
        <ele>63.0</ele>
        <time>2021-05-23T08:21:20Z</time>
      </trkpt>
      <trkpt lat="42.6846080" lon="-8.6366970">
        <ele>63.1</ele>
        <time>2021-05-23T08:21:21Z</time>
      </trkpt>
      <trkpt lat="42.6846190" lon="-8.6367040">
        <ele>63.1</ele>
        <time>2021-05-23T08:21:22Z</time>
      </trkpt>
      <trkpt lat="42.6846270" lon="-8.6367030">
        <ele>63.2</ele>
        <time>2021-05-23T08:21:23Z</time>
      </trkpt>
      <trkpt lat="42.6846370" lon="-8.6367040">
        <ele>63.2</ele>
        <time>2021-05-23T08:21:24Z</time>
      </trkpt>
      <trkpt lat="42.6846500" lon="-8.6367150">
        <ele>63.3</ele>
        <time>2021-05-23T08:21:25Z</time>
      </trkpt>
      <trkpt lat="42.6846590" lon="-8.6367200">
        <ele>63.3</ele>
        <time>2021-05-23T08:21:26Z</time>
      </trkpt>
      <trkpt lat="42.6846650" lon="-8.6367300">
        <ele>63.4</ele>
        <time>2021-05-23T08:21:27Z</time>
      </trkpt>
      <trkpt lat="42.6846700" lon="-8.6367290">
        <ele>63.4</ele>
        <time>2021-05-23T08:21:28Z</time>
      </trkpt>
      <trkpt lat="42.6846760" lon="-8.6367320">
        <ele>63.5</ele>
        <time>2021-05-23T08:21:29Z</time>
      </trkpt>
      <trkpt lat="42.6846840" lon="-8.6367370">
        <ele>63.5</ele>
        <time>2021-05-23T08:21:30Z</time>
      </trkpt>
      <trkpt lat="42.6846930" lon="-8.6367510">
        <ele>63.6</ele>
        <time>2021-05-23T08:21:31Z</time>
      </trkpt>
      <trkpt lat="42.6847080" lon="-8.6367460">
        <ele>63.7</ele>
        <time>2021-05-23T08:21:32Z</time>
      </trkpt>
      <trkpt lat="42.6847130" lon="-8.6367550">
        <ele>63.8</ele>
        <time>2021-05-23T08:21:33Z</time>
      </trkpt>
      <trkpt lat="42.6847220" lon="-8.6367580">
        <ele>63.9</ele>
        <time>2021-05-23T08:21:34Z</time>
      </trkpt>
      <trkpt lat="42.6847300" lon="-8.6367600">
        <ele>63.9</ele>
        <time>2021-05-23T08:21:35Z</time>
      </trkpt>
      <trkpt lat="42.6847360" lon="-8.6367610">
        <ele>64.0</ele>
        <time>2021-05-23T08:21:36Z</time>
      </trkpt>
      <trkpt lat="42.6847440" lon="-8.6367680">
        <ele>64.0</ele>
        <time>2021-05-23T08:21:37Z</time>
      </trkpt>
      <trkpt lat="42.6847510" lon="-8.6367730">
        <ele>64.1</ele>
        <time>2021-05-23T08:21:38Z</time>
      </trkpt>
      <trkpt lat="42.6847660" lon="-8.6367790">
        <ele>64.2</ele>
        <time>2021-05-23T08:21:39Z</time>
      </trkpt>
      <trkpt lat="42.6847740" lon="-8.6367830">
        <ele>64.3</ele>
        <time>2021-05-23T08:21:40Z</time>
      </trkpt>
      <trkpt lat="42.6847810" lon="-8.6367880">
        <ele>64.4</ele>
        <time>2021-05-23T08:21:41Z</time>
      </trkpt>
      <trkpt lat="42.6847880" lon="-8.6367920">
        <ele>64.5</ele>
        <time>2021-05-23T08:21:42Z</time>
      </trkpt>
      <trkpt lat="42.6848020" lon="-8.6368010">
        <ele>64.6</ele>
        <time>2021-05-23T08:21:43Z</time>
      </trkpt>
      <trkpt lat="42.6848090" lon="-8.6368010">
        <ele>64.7</ele>
        <time>2021-05-23T08:21:44Z</time>
      </trkpt>
      <trkpt lat="42.6848190" lon="-8.6368050">
        <ele>64.8</ele>
        <time>2021-05-23T08:21:45Z</time>
      </trkpt>
      <trkpt lat="42.6848330" lon="-8.6368150">
        <ele>65.0</ele>
        <time>2021-05-23T08:21:46Z</time>
      </trkpt>
      <trkpt lat="42.6848320" lon="-8.6368130">
        <ele>65.0</ele>
        <time>2021-05-23T08:21:47Z</time>
      </trkpt>
      <trkpt lat="42.6848440" lon="-8.6368230">
        <ele>65.1</ele>
        <time>2021-05-23T08:21:48Z</time>
      </trkpt>
      <trkpt lat="42.6848480" lon="-8.6368200">
        <ele>65.2</ele>
        <time>2021-05-23T08:21:49Z</time>
      </trkpt>
      <trkpt lat="42.6848610" lon="-8.6368230">
        <ele>65.3</ele>
        <time>2021-05-23T08:21:50Z</time>
      </trkpt>
      <trkpt lat="42.6848750" lon="-8.6368240">
        <ele>65.4</ele>
        <time>2021-05-23T08:21:51Z</time>
      </trkpt>
      <trkpt lat="42.6848870" lon="-8.6368380">
        <ele>65.6</ele>
        <time>2021-05-23T08:21:52Z</time>
      </trkpt>
      <trkpt lat="42.6848830" lon="-8.6368320">
        <ele>65.6</ele>
        <time>2021-05-23T08:21:53Z</time>
      </trkpt>
      <trkpt lat="42.6848970" lon="-8.6368400">
        <ele>65.8</ele>
        <time>2021-05-23T08:21:54Z</time>
      </trkpt>
      <trkpt lat="42.6849050" lon="-8.6368460">
        <ele>65.9</ele>
        <time>2021-05-23T08:21:55Z</time>
      </trkpt>
      <trkpt lat="42.6849170" lon="-8.6368510">
        <ele>66.0</ele>
        <time>2021-05-23T08:21:56Z</time>
      </trkpt>
      <trkpt lat="42.6849240" lon="-8.6368440">
        <ele>66.1</ele>
        <time>2021-05-23T08:21:57Z</time>
      </trkpt>
      <trkpt lat="42.6849380" lon="-8.6368530">
        <ele>66.2</ele>
        <time>2021-05-23T08:21:58Z</time>
      </trkpt>
      <trkpt lat="42.6849540" lon="-8.6368730">
        <ele>66.4</ele>
        <time>2021-05-23T08:21:59Z</time>
      </trkpt>
      <trkpt lat="42.6849610" lon="-8.6368740">
        <ele>66.5</ele>
        <time>2021-05-23T08:22:00Z</time>
      </trkpt>
      <trkpt lat="42.6849740" lon="-8.6368820">
        <ele>66.6</ele>
        <time>2021-05-23T08:22:01Z</time>
      </trkpt>
      <trkpt lat="42.6849800" lon="-8.6368880">
        <ele>66.7</ele>
        <time>2021-05-23T08:22:02Z</time>
      </trkpt>
      <trkpt lat="42.6849870" lon="-8.6368940">
        <ele>66.8</ele>
        <time>2021-05-23T08:22:03Z</time>
      </trkpt>
      <trkpt lat="42.6849950" lon="-8.6369000">
        <ele>66.8</ele>
        <time>2021-05-23T08:22:04Z</time>
      </trkpt>
      <trkpt lat="42.6850020" lon="-8.6369030">
        <ele>66.9</ele>
        <time>2021-05-23T08:22:05Z</time>
      </trkpt>
      <trkpt lat="42.6850170" lon="-8.6369110">
        <ele>67.0</ele>
        <time>2021-05-23T08:22:06Z</time>
      </trkpt>
      <trkpt lat="42.6850280" lon="-8.6369170">
        <ele>67.1</ele>
        <time>2021-05-23T08:22:07Z</time>
      </trkpt>
      <trkpt lat="42.6850370" lon="-8.6369290">
        <ele>67.2</ele>
        <time>2021-05-23T08:22:08Z</time>
      </trkpt>
      <trkpt lat="42.6850390" lon="-8.6369260">
        <ele>67.2</ele>
        <time>2021-05-23T08:22:09Z</time>
      </trkpt>
      <trkpt lat="42.6850490" lon="-8.6369240">
        <ele>67.3</ele>
        <time>2021-05-23T08:22:10Z</time>
      </trkpt>
      <trkpt lat="42.6850800" lon="-8.6369380">
        <ele>67.5</ele>
        <time>2021-05-23T08:22:11Z</time>
      </trkpt>
      <trkpt lat="42.6850890" lon="-8.6369360">
        <ele>67.6</ele>
        <time>2021-05-23T08:22:12Z</time>
      </trkpt>
      <trkpt lat="42.6850890" lon="-8.6369460">
        <ele>67.6</ele>
        <time>2021-05-23T08:22:13Z</time>
      </trkpt>
      <trkpt lat="42.6850930" lon="-8.6369450">
        <ele>67.7</ele>
        <time>2021-05-23T08:22:14Z</time>
      </trkpt>
      <trkpt lat="42.6850940" lon="-8.6369400">
        <ele>67.7</ele>
        <time>2021-05-23T08:22:15Z</time>
      </trkpt>
      <trkpt lat="42.6851060" lon="-8.6369370">
        <ele>67.8</ele>
        <time>2021-05-23T08:22:16Z</time>
      </trkpt>
      <trkpt lat="42.6851190" lon="-8.6369380">
        <ele>67.8</ele>
        <time>2021-05-23T08:22:17Z</time>
      </trkpt>
      <trkpt lat="42.6851400" lon="-8.6369460">
        <ele>68.0</ele>
        <time>2021-05-23T08:22:18Z</time>
      </trkpt>
      <trkpt lat="42.6851440" lon="-8.6369480">
        <ele>68.0</ele>
        <time>2021-05-23T08:22:19Z</time>
      </trkpt>
      <trkpt lat="42.6851470" lon="-8.6369450">
        <ele>68.0</ele>
        <time>2021-05-23T08:22:20Z</time>
      </trkpt>
      <trkpt lat="42.6851770" lon="-8.6369510">
        <ele>68.2</ele>
        <time>2021-05-23T08:22:21Z</time>
      </trkpt>
      <trkpt lat="42.6851880" lon="-8.6369540">
        <ele>68.2</ele>
        <time>2021-05-23T08:22:22Z</time>
      </trkpt>
      <trkpt lat="42.6851990" lon="-8.6369510">
        <ele>68.3</ele>
        <time>2021-05-23T08:22:23Z</time>
      </trkpt>
      <trkpt lat="42.6852110" lon="-8.6369560">
        <ele>68.4</ele>
        <time>2021-05-23T08:22:24Z</time>
      </trkpt>
      <trkpt lat="42.6852220" lon="-8.6369600">
        <ele>68.4</ele>
        <time>2021-05-23T08:22:25Z</time>
      </trkpt>
      <trkpt lat="42.6852330" lon="-8.6369650">
        <ele>68.5</ele>
        <time>2021-05-23T08:22:26Z</time>
      </trkpt>
      <trkpt lat="42.6852270" lon="-8.6369580">
        <ele>68.5</ele>
        <time>2021-05-23T08:22:27Z</time>
      </trkpt>
      <trkpt lat="42.6852470" lon="-8.6369620">
        <ele>68.6</ele>
        <time>2021-05-23T08:22:28Z</time>
      </trkpt>
      <trkpt lat="42.6852620" lon="-8.6369800">
        <ele>68.6</ele>
        <time>2021-05-23T08:22:29Z</time>
      </trkpt>
      <trkpt lat="42.6852740" lon="-8.6369870">
        <ele>68.7</ele>
        <time>2021-05-23T08:22:30Z</time>
      </trkpt>
      <trkpt lat="42.6852810" lon="-8.6369950">
        <ele>68.7</ele>
        <time>2021-05-23T08:22:31Z</time>
      </trkpt>
      <trkpt lat="42.6852880" lon="-8.6370020">
        <ele>68.7</ele>
        <time>2021-05-23T08:22:32Z</time>
      </trkpt>
      <trkpt lat="42.6852950" lon="-8.6370100">
        <ele>68.7</ele>
        <time>2021-05-23T08:22:33Z</time>
      </trkpt>
      <trkpt lat="42.6853090" lon="-8.6370270">
        <ele>68.7</ele>
        <time>2021-05-23T08:22:34Z</time>
      </trkpt>
      <trkpt lat="42.6853130" lon="-8.6370290">
        <ele>68.8</ele>
        <time>2021-05-23T08:22:35Z</time>
      </trkpt>
      <trkpt lat="42.6853170" lon="-8.6370420">
        <ele>68.8</ele>
        <time>2021-05-23T08:22:36Z</time>
      </trkpt>
      <trkpt lat="42.6853180" lon="-8.6370550">
        <ele>68.8</ele>
        <time>2021-05-23T08:22:37Z</time>
      </trkpt>
      <trkpt lat="42.6853230" lon="-8.6370610">
        <ele>68.8</ele>
        <time>2021-05-23T08:22:38Z</time>
      </trkpt>
      <trkpt lat="42.6853240" lon="-8.6370700">
        <ele>68.8</ele>
        <time>2021-05-23T08:22:39Z</time>
      </trkpt>
      <trkpt lat="42.6853250" lon="-8.6370830">
        <ele>68.8</ele>
        <time>2021-05-23T08:22:40Z</time>
      </trkpt>
      <trkpt lat="42.6853330" lon="-8.6371070">
        <ele>68.8</ele>
        <time>2021-05-23T08:22:41Z</time>
      </trkpt>
      <trkpt lat="42.6853410" lon="-8.6371210">
        <ele>68.8</ele>
        <time>2021-05-23T08:22:42Z</time>
      </trkpt>
      <trkpt lat="42.6853500" lon="-8.6371260">
        <ele>68.8</ele>
        <time>2021-05-23T08:22:43Z</time>
      </trkpt>
      <trkpt lat="42.6853570" lon="-8.6371320">
        <ele>68.8</ele>
        <time>2021-05-23T08:22:44Z</time>
      </trkpt>
      <trkpt lat="42.6853630" lon="-8.6371370">
        <ele>68.8</ele>
        <time>2021-05-23T08:22:45Z</time>
      </trkpt>
      <trkpt lat="42.6853700" lon="-8.6371430">
        <ele>68.8</ele>
        <time>2021-05-23T08:22:46Z</time>
      </trkpt>
      <trkpt lat="42.6853770" lon="-8.6371480">
        <ele>68.8</ele>
        <time>2021-05-23T08:22:47Z</time>
      </trkpt>
      <trkpt lat="42.6853860" lon="-8.6371570">
        <ele>68.7</ele>
        <time>2021-05-23T08:22:48Z</time>
      </trkpt>
      <trkpt lat="42.6853820" lon="-8.6371510">
        <ele>68.7</ele>
        <time>2021-05-23T08:22:49Z</time>
      </trkpt>
      <trkpt lat="42.6853890" lon="-8.6371560">
        <ele>68.7</ele>
        <time>2021-05-23T08:22:50Z</time>
      </trkpt>
      <trkpt lat="42.6853900" lon="-8.6371630">
        <ele>68.7</ele>
        <time>2021-05-23T08:22:51Z</time>
      </trkpt>
      <trkpt lat="42.6853990" lon="-8.6371670">
        <ele>68.7</ele>
        <time>2021-05-23T08:22:52Z</time>
      </trkpt>
      <trkpt lat="42.6854080" lon="-8.6371680">
        <ele>68.7</ele>
        <time>2021-05-23T08:22:53Z</time>
      </trkpt>
      <trkpt lat="42.6854110" lon="-8.6371710">
        <ele>68.7</ele>
        <time>2021-05-23T08:22:54Z</time>
      </trkpt>
      <trkpt lat="42.6854240" lon="-8.6371850">
        <ele>68.7</ele>
        <time>2021-05-23T08:22:55Z</time>
      </trkpt>
      <trkpt lat="42.6854180" lon="-8.6371850">
        <ele>68.7</ele>
        <time>2021-05-23T08:22:56Z</time>
      </trkpt>
      <trkpt lat="42.6854170" lon="-8.6371820">
        <ele>68.7</ele>
        <time>2021-05-23T08:22:57Z</time>
      </trkpt>
      <trkpt lat="42.6854360" lon="-8.6371890">
        <ele>68.7</ele>
        <time>2021-05-23T08:22:58Z</time>
      </trkpt>
      <trkpt lat="42.6854310" lon="-8.6371890">
        <ele>68.7</ele>
        <time>2021-05-23T08:22:59Z</time>
      </trkpt>
      <trkpt lat="42.6854310" lon="-8.6371880">
        <ele>68.7</ele>
        <time>2021-05-23T08:23:00Z</time>
      </trkpt>
      <trkpt lat="42.6854280" lon="-8.6371890">
        <ele>68.7</ele>
        <time>2021-05-23T08:23:01Z</time>
      </trkpt>
      <trkpt lat="42.6854320" lon="-8.6371880">
        <ele>68.7</ele>
        <time>2021-05-23T08:23:02Z</time>
      </trkpt>
      <trkpt lat="42.6854290" lon="-8.6371820">
        <ele>68.7</ele>
        <time>2021-05-23T08:23:03Z</time>
      </trkpt>
      <trkpt lat="42.6854310" lon="-8.6371780">
        <ele>68.6</ele>
        <time>2021-05-23T08:23:04Z</time>
      </trkpt>
      <trkpt lat="42.6854320" lon="-8.6371870">
        <ele>68.6</ele>
        <time>2021-05-23T08:23:05Z</time>
      </trkpt>
      <trkpt lat="42.6854320" lon="-8.6371870">
        <ele>68.6</ele>
        <time>2021-05-23T08:23:06Z</time>
      </trkpt>
      <trkpt lat="42.6854370" lon="-8.6372050">
        <ele>68.6</ele>
        <time>2021-05-23T08:23:07Z</time>
      </trkpt>
      <trkpt lat="42.6854350" lon="-8.6372030">
        <ele>68.6</ele>
        <time>2021-05-23T08:23:08Z</time>
      </trkpt>
      <trkpt lat="42.6854320" lon="-8.6372020">
        <ele>68.6</ele>
        <time>2021-05-23T08:23:09Z</time>
      </trkpt>
      <trkpt lat="42.6854310" lon="-8.6372070">
        <ele>68.6</ele>
        <time>2021-05-23T08:23:10Z</time>
      </trkpt>
      <trkpt lat="42.6854340" lon="-8.6372110">
        <ele>68.6</ele>
        <time>2021-05-23T08:23:11Z</time>
      </trkpt>
      <trkpt lat="42.6854340" lon="-8.6372100">
        <ele>68.6</ele>
        <time>2021-05-23T08:23:12Z</time>
      </trkpt>
      <trkpt lat="42.6854350" lon="-8.6372030">
        <ele>68.6</ele>
        <time>2021-05-23T08:23:13Z</time>
      </trkpt>
      <trkpt lat="42.6854290" lon="-8.6372090">
        <ele>68.6</ele>
        <time>2021-05-23T08:23:14Z</time>
      </trkpt>
      <trkpt lat="42.6854350" lon="-8.6372140">
        <ele>68.6</ele>
        <time>2021-05-23T08:23:15Z</time>
      </trkpt>
      <trkpt lat="42.6854420" lon="-8.6372070">
        <ele>68.6</ele>
        <time>2021-05-23T08:23:16Z</time>
      </trkpt>
      <trkpt lat="42.6854480" lon="-8.6371980">
        <ele>68.6</ele>
        <time>2021-05-23T08:23:17Z</time>
      </trkpt>
      <trkpt lat="42.6854630" lon="-8.6371890">
        <ele>68.6</ele>
        <time>2021-05-23T08:23:18Z</time>
      </trkpt>
      <trkpt lat="42.6854780" lon="-8.6371840">
        <ele>68.7</ele>
        <time>2021-05-23T08:23:19Z</time>
      </trkpt>
      <trkpt lat="42.6854900" lon="-8.6371730">
        <ele>68.7</ele>
        <time>2021-05-23T08:23:20Z</time>
      </trkpt>
      <trkpt lat="42.6855030" lon="-8.6371590">
        <ele>68.7</ele>
        <time>2021-05-23T08:23:21Z</time>
      </trkpt>
      <trkpt lat="42.6855100" lon="-8.6371510">
        <ele>68.7</ele>
        <time>2021-05-23T08:23:22Z</time>
      </trkpt>
      <trkpt lat="42.6855200" lon="-8.6371480">
        <ele>68.7</ele>
        <time>2021-05-23T08:23:23Z</time>
      </trkpt>
      <trkpt lat="42.6855300" lon="-8.6371350">
        <ele>68.7</ele>
        <time>2021-05-23T08:23:24Z</time>
      </trkpt>
      <trkpt lat="42.6855440" lon="-8.6371220">
        <ele>68.7</ele>
        <time>2021-05-23T08:23:25Z</time>
      </trkpt>
      <trkpt lat="42.6855750" lon="-8.6371190">
        <ele>68.7</ele>
        <time>2021-05-23T08:23:26Z</time>
      </trkpt>
      <trkpt lat="42.6855820" lon="-8.6371200">
        <ele>68.7</ele>
        <time>2021-05-23T08:23:27Z</time>
      </trkpt>
      <trkpt lat="42.6856160" lon="-8.6371070">
        <ele>68.8</ele>
        <time>2021-05-23T08:23:28Z</time>
      </trkpt>
      <trkpt lat="42.6856370" lon="-8.6371030">
        <ele>68.8</ele>
        <time>2021-05-23T08:23:29Z</time>
      </trkpt>
      <trkpt lat="42.6856450" lon="-8.6371000">
        <ele>68.8</ele>
        <time>2021-05-23T08:23:30Z</time>
      </trkpt>
      <trkpt lat="42.6856590" lon="-8.6370990">
        <ele>68.8</ele>
        <time>2021-05-23T08:23:31Z</time>
      </trkpt>
      <trkpt lat="42.6856670" lon="-8.6371020">
        <ele>68.8</ele>
        <time>2021-05-23T08:23:32Z</time>
      </trkpt>
      <trkpt lat="42.6856820" lon="-8.6371050">
        <ele>68.8</ele>
        <time>2021-05-23T08:23:33Z</time>
      </trkpt>
      <trkpt lat="42.6856940" lon="-8.6371110">
        <ele>68.9</ele>
        <time>2021-05-23T08:23:34Z</time>
      </trkpt>
      <trkpt lat="42.6857060" lon="-8.6371200">
        <ele>68.9</ele>
        <time>2021-05-23T08:23:35Z</time>
      </trkpt>
      <trkpt lat="42.6857030" lon="-8.6371190">
        <ele>68.9</ele>
        <time>2021-05-23T08:23:36Z</time>
      </trkpt>
      <trkpt lat="42.6857290" lon="-8.6371240">
        <ele>68.9</ele>
        <time>2021-05-23T08:23:37Z</time>
      </trkpt>
      <trkpt lat="42.6857360" lon="-8.6371280">
        <ele>68.9</ele>
        <time>2021-05-23T08:23:38Z</time>
      </trkpt>
      <trkpt lat="42.6857430" lon="-8.6371240">
        <ele>68.9</ele>
        <time>2021-05-23T08:23:39Z</time>
      </trkpt>
      <trkpt lat="42.6857460" lon="-8.6371310">
        <ele>68.9</ele>
        <time>2021-05-23T08:23:40Z</time>
      </trkpt>
      <trkpt lat="42.6857600" lon="-8.6371390">
        <ele>69.0</ele>
        <time>2021-05-23T08:23:41Z</time>
      </trkpt>
      <trkpt lat="42.6857750" lon="-8.6371480">
        <ele>69.0</ele>
        <time>2021-05-23T08:23:42Z</time>
      </trkpt>
      <trkpt lat="42.6857730" lon="-8.6371500">
        <ele>69.0</ele>
        <time>2021-05-23T08:23:43Z</time>
      </trkpt>
      <trkpt lat="42.6857830" lon="-8.6371550">
        <ele>69.0</ele>
        <time>2021-05-23T08:23:44Z</time>
      </trkpt>
      <trkpt lat="42.6857890" lon="-8.6371560">
        <ele>69.0</ele>
        <time>2021-05-23T08:23:45Z</time>
      </trkpt>
      <trkpt lat="42.6857960" lon="-8.6371650">
        <ele>69.1</ele>
        <time>2021-05-23T08:23:46Z</time>
      </trkpt>
      <trkpt lat="42.6858100" lon="-8.6371740">
        <ele>69.1</ele>
        <time>2021-05-23T08:23:47Z</time>
      </trkpt>
      <trkpt lat="42.6858180" lon="-8.6371750">
        <ele>69.1</ele>
        <time>2021-05-23T08:23:48Z</time>
      </trkpt>
      <trkpt lat="42.6858230" lon="-8.6371810">
        <ele>69.1</ele>
        <time>2021-05-23T08:23:49Z</time>
      </trkpt>
      <trkpt lat="42.6858350" lon="-8.6371840">
        <ele>69.1</ele>
        <time>2021-05-23T08:23:50Z</time>
      </trkpt>
      <trkpt lat="42.6858430" lon="-8.6371880">
        <ele>69.2</ele>
        <time>2021-05-23T08:23:51Z</time>
      </trkpt>
      <trkpt lat="42.6858510" lon="-8.6371950">
        <ele>69.2</ele>
        <time>2021-05-23T08:23:52Z</time>
      </trkpt>
      <trkpt lat="42.6858600" lon="-8.6371920">
        <ele>69.2</ele>
        <time>2021-05-23T08:23:53Z</time>
      </trkpt>
      <trkpt lat="42.6858750" lon="-8.6372020">
        <ele>69.3</ele>
        <time>2021-05-23T08:23:54Z</time>
      </trkpt>
      <trkpt lat="42.6858830" lon="-8.6372090">
        <ele>69.3</ele>
        <time>2021-05-23T08:23:55Z</time>
      </trkpt>
      <trkpt lat="42.6858880" lon="-8.6372180">
        <ele>69.3</ele>
        <time>2021-05-23T08:23:56Z</time>
      </trkpt>
      <trkpt lat="42.6858940" lon="-8.6372270">
        <ele>69.3</ele>
        <time>2021-05-23T08:23:57Z</time>
      </trkpt>
      <trkpt lat="42.6859110" lon="-8.6372340">
        <ele>69.4</ele>
        <time>2021-05-23T08:23:58Z</time>
      </trkpt>
      <trkpt lat="42.6859310" lon="-8.6372440">
        <ele>69.4</ele>
        <time>2021-05-23T08:23:59Z</time>
      </trkpt>
      <trkpt lat="42.6859370" lon="-8.6372480">
        <ele>69.5</ele>
        <time>2021-05-23T08:24:00Z</time>
      </trkpt>
      <trkpt lat="42.6859420" lon="-8.6372510">
        <ele>69.5</ele>
        <time>2021-05-23T08:24:01Z</time>
      </trkpt>
      <trkpt lat="42.6859480" lon="-8.6372550">
        <ele>69.5</ele>
        <time>2021-05-23T08:24:02Z</time>
      </trkpt>
      <trkpt lat="42.6859600" lon="-8.6372640">
        <ele>69.5</ele>
        <time>2021-05-23T08:24:03Z</time>
      </trkpt>
      <trkpt lat="42.6859640" lon="-8.6372690">
        <ele>69.6</ele>
        <time>2021-05-23T08:24:04Z</time>
      </trkpt>
      <trkpt lat="42.6859730" lon="-8.6372750">
        <ele>69.6</ele>
        <time>2021-05-23T08:24:05Z</time>
      </trkpt>
      <trkpt lat="42.6859730" lon="-8.6372870">
        <ele>69.6</ele>
        <time>2021-05-23T08:24:06Z</time>
      </trkpt>
      <trkpt lat="42.6859790" lon="-8.6372970">
        <ele>69.7</ele>
        <time>2021-05-23T08:24:07Z</time>
      </trkpt>
      <trkpt lat="42.6859920" lon="-8.6372930">
        <ele>69.7</ele>
        <time>2021-05-23T08:24:08Z</time>
      </trkpt>
      <trkpt lat="42.6860030" lon="-8.6373000">
        <ele>69.8</ele>
        <time>2021-05-23T08:24:09Z</time>
      </trkpt>
      <trkpt lat="42.6860030" lon="-8.6373100">
        <ele>69.8</ele>
        <time>2021-05-23T08:24:10Z</time>
      </trkpt>
      <trkpt lat="42.6860140" lon="-8.6373260">
        <ele>69.9</ele>
        <time>2021-05-23T08:24:11Z</time>
      </trkpt>
      <trkpt lat="42.6860170" lon="-8.6373390">
        <ele>69.9</ele>
        <time>2021-05-23T08:24:12Z</time>
      </trkpt>
      <trkpt lat="42.6860290" lon="-8.6373560">
        <ele>70.0</ele>
        <time>2021-05-23T08:24:13Z</time>
      </trkpt>
      <trkpt lat="42.6860350" lon="-8.6373620">
        <ele>70.0</ele>
        <time>2021-05-23T08:24:14Z</time>
      </trkpt>
      <trkpt lat="42.6860420" lon="-8.6373690">
        <ele>70.1</ele>
        <time>2021-05-23T08:24:15Z</time>
      </trkpt>
      <trkpt lat="42.6860480" lon="-8.6373760">
        <ele>70.1</ele>
        <time>2021-05-23T08:24:16Z</time>
      </trkpt>
      <trkpt lat="42.6860600" lon="-8.6373850">
        <ele>70.2</ele>
        <time>2021-05-23T08:24:17Z</time>
      </trkpt>
      <trkpt lat="42.6860710" lon="-8.6373960">
        <ele>70.3</ele>
        <time>2021-05-23T08:24:18Z</time>
      </trkpt>
      <trkpt lat="42.6860800" lon="-8.6373950">
        <ele>70.3</ele>
        <time>2021-05-23T08:24:19Z</time>
      </trkpt>
      <trkpt lat="42.6860910" lon="-8.6374010">
        <ele>70.4</ele>
        <time>2021-05-23T08:24:20Z</time>
      </trkpt>
      <trkpt lat="42.6861010" lon="-8.6374090">
        <ele>70.5</ele>
        <time>2021-05-23T08:24:21Z</time>
      </trkpt>
      <trkpt lat="42.6861200" lon="-8.6374280">
        <ele>70.6</ele>
        <time>2021-05-23T08:24:22Z</time>
      </trkpt>
      <trkpt lat="42.6861260" lon="-8.6374350">
        <ele>70.7</ele>
        <time>2021-05-23T08:24:23Z</time>
      </trkpt>
      <trkpt lat="42.6861330" lon="-8.6374430">
        <ele>70.7</ele>
        <time>2021-05-23T08:24:24Z</time>
      </trkpt>
      <trkpt lat="42.6861480" lon="-8.6374450">
        <ele>70.8</ele>
        <time>2021-05-23T08:24:25Z</time>
      </trkpt>
      <trkpt lat="42.6861540" lon="-8.6374430">
        <ele>70.9</ele>
        <time>2021-05-23T08:24:26Z</time>
      </trkpt>
      <trkpt lat="42.6861610" lon="-8.6374480">
        <ele>70.9</ele>
        <time>2021-05-23T08:24:27Z</time>
      </trkpt>
      <trkpt lat="42.6861650" lon="-8.6374520">
        <ele>71.0</ele>
        <time>2021-05-23T08:24:28Z</time>
      </trkpt>
      <trkpt lat="42.6861740" lon="-8.6374500">
        <ele>71.1</ele>
        <time>2021-05-23T08:24:29Z</time>
      </trkpt>
      <trkpt lat="42.6861890" lon="-8.6374530">
        <ele>71.2</ele>
        <time>2021-05-23T08:24:30Z</time>
      </trkpt>
      <trkpt lat="42.6862020" lon="-8.6374610">
        <ele>71.3</ele>
        <time>2021-05-23T08:24:31Z</time>
      </trkpt>
      <trkpt lat="42.6862030" lon="-8.6374610">
        <ele>71.3</ele>
        <time>2021-05-23T08:24:33Z</time>
      </trkpt>
      <trkpt lat="42.6862160" lon="-8.6374650">
        <ele>71.4</ele>
        <time>2021-05-23T08:24:34Z</time>
      </trkpt>
      <trkpt lat="42.6862280" lon="-8.6374720">
        <ele>71.5</ele>
        <time>2021-05-23T08:24:35Z</time>
      </trkpt>
      <trkpt lat="42.6862340" lon="-8.6374710">
        <ele>71.5</ele>
        <time>2021-05-23T08:24:36Z</time>
      </trkpt>
      <trkpt lat="42.6862430" lon="-8.6374670">
        <ele>71.6</ele>
        <time>2021-05-23T08:24:37Z</time>
      </trkpt>
      <trkpt lat="42.6862610" lon="-8.6374770">
        <ele>71.8</ele>
        <time>2021-05-23T08:24:38Z</time>
      </trkpt>
      <trkpt lat="42.6862740" lon="-8.6374760">
        <ele>71.9</ele>
        <time>2021-05-23T08:24:39Z</time>
      </trkpt>
      <trkpt lat="42.6862880" lon="-8.6374920">
        <ele>72.0</ele>
        <time>2021-05-23T08:24:40Z</time>
      </trkpt>
      <trkpt lat="42.6862970" lon="-8.6374950">
        <ele>72.1</ele>
        <time>2021-05-23T08:24:41Z</time>
      </trkpt>
      <trkpt lat="42.6863020" lon="-8.6375000">
        <ele>72.2</ele>
        <time>2021-05-23T08:24:42Z</time>
      </trkpt>
      <trkpt lat="42.6863160" lon="-8.6375070">
        <ele>72.3</ele>
        <time>2021-05-23T08:24:43Z</time>
      </trkpt>
      <trkpt lat="42.6863350" lon="-8.6375160">
        <ele>72.5</ele>
        <time>2021-05-23T08:24:44Z</time>
      </trkpt>
      <trkpt lat="42.6863440" lon="-8.6375260">
        <ele>72.5</ele>
        <time>2021-05-23T08:24:45Z</time>
      </trkpt>
      <trkpt lat="42.6863500" lon="-8.6375330">
        <ele>72.6</ele>
        <time>2021-05-23T08:24:46Z</time>
      </trkpt>
      <trkpt lat="42.6863570" lon="-8.6375410">
        <ele>72.7</ele>
        <time>2021-05-23T08:24:47Z</time>
      </trkpt>
      <trkpt lat="42.6863630" lon="-8.6375490">
        <ele>72.7</ele>
        <time>2021-05-23T08:24:48Z</time>
      </trkpt>
      <trkpt lat="42.6863820" lon="-8.6375560">
        <ele>72.9</ele>
        <time>2021-05-23T08:24:49Z</time>
      </trkpt>
      <trkpt lat="42.6863920" lon="-8.6375590">
        <ele>73.0</ele>
        <time>2021-05-23T08:24:50Z</time>
      </trkpt>
      <trkpt lat="42.6864010" lon="-8.6375610">
        <ele>73.0</ele>
        <time>2021-05-23T08:24:51Z</time>
      </trkpt>
      <trkpt lat="42.6864170" lon="-8.6375590">
        <ele>73.1</ele>
        <time>2021-05-23T08:24:52Z</time>
      </trkpt>
      <trkpt lat="42.6864340" lon="-8.6375650">
        <ele>73.2</ele>
        <time>2021-05-23T08:24:53Z</time>
      </trkpt>
      <trkpt lat="42.6864410" lon="-8.6375660">
        <ele>73.3</ele>
        <time>2021-05-23T08:24:54Z</time>
      </trkpt>
      <trkpt lat="42.6864530" lon="-8.6375770">
        <ele>73.4</ele>
        <time>2021-05-23T08:24:55Z</time>
      </trkpt>
      <trkpt lat="42.6864680" lon="-8.6375790">
        <ele>73.5</ele>
        <time>2021-05-23T08:24:56Z</time>
      </trkpt>
      <trkpt lat="42.6864810" lon="-8.6375830">
        <ele>73.6</ele>
        <time>2021-05-23T08:24:57Z</time>
      </trkpt>
      <trkpt lat="42.6864850" lon="-8.6375820">
        <ele>73.6</ele>
        <time>2021-05-23T08:24:58Z</time>
      </trkpt>
      <trkpt lat="42.6865030" lon="-8.6375850">
        <ele>73.7</ele>
        <time>2021-05-23T08:24:59Z</time>
      </trkpt>
      <trkpt lat="42.6865140" lon="-8.6375870">
        <ele>73.8</ele>
        <time>2021-05-23T08:25:00Z</time>
      </trkpt>
      <trkpt lat="42.6865200" lon="-8.6375880">
        <ele>73.8</ele>
        <time>2021-05-23T08:25:01Z</time>
      </trkpt>
      <trkpt lat="42.6865320" lon="-8.6375940">
        <ele>73.9</ele>
        <time>2021-05-23T08:25:02Z</time>
      </trkpt>
      <trkpt lat="42.6865380" lon="-8.6375890">
        <ele>73.9</ele>
        <time>2021-05-23T08:25:03Z</time>
      </trkpt>
      <trkpt lat="42.6865470" lon="-8.6375960">
        <ele>74.0</ele>
        <time>2021-05-23T08:25:04Z</time>
      </trkpt>
      <trkpt lat="42.6865610" lon="-8.6376090">
        <ele>74.1</ele>
        <time>2021-05-23T08:25:05Z</time>
      </trkpt>
      <trkpt lat="42.6865700" lon="-8.6376160">
        <ele>74.1</ele>
        <time>2021-05-23T08:25:06Z</time>
      </trkpt>
      <trkpt lat="42.6865750" lon="-8.6376240">
        <ele>74.2</ele>
        <time>2021-05-23T08:25:07Z</time>
      </trkpt>
      <trkpt lat="42.6865800" lon="-8.6376370">
        <ele>74.2</ele>
        <time>2021-05-23T08:25:08Z</time>
      </trkpt>
      <trkpt lat="42.6865830" lon="-8.6376430">
        <ele>74.3</ele>
        <time>2021-05-23T08:25:09Z</time>
      </trkpt>
      <trkpt lat="42.6865840" lon="-8.6376470">
        <ele>74.3</ele>
        <time>2021-05-23T08:25:10Z</time>
      </trkpt>
      <trkpt lat="42.6865950" lon="-8.6376550">
        <ele>74.4</ele>
        <time>2021-05-23T08:25:11Z</time>
      </trkpt>
      <trkpt lat="42.6866030" lon="-8.6376620">
        <ele>74.4</ele>
        <time>2021-05-23T08:25:12Z</time>
      </trkpt>
      <trkpt lat="42.6866070" lon="-8.6376710">
        <ele>74.5</ele>
        <time>2021-05-23T08:25:13Z</time>
      </trkpt>
      <trkpt lat="42.6866150" lon="-8.6376810">
        <ele>74.5</ele>
        <time>2021-05-23T08:25:14Z</time>
      </trkpt>
      <trkpt lat="42.6866200" lon="-8.6376960">
        <ele>74.6</ele>
        <time>2021-05-23T08:25:15Z</time>
      </trkpt>
      <trkpt lat="42.6866220" lon="-8.6377070">
        <ele>74.7</ele>
        <time>2021-05-23T08:25:16Z</time>
      </trkpt>
      <trkpt lat="42.6866220" lon="-8.6377120">
        <ele>74.7</ele>
        <time>2021-05-23T08:25:17Z</time>
      </trkpt>
      <trkpt lat="42.6866190" lon="-8.6377240">
        <ele>74.7</ele>
        <time>2021-05-23T08:25:18Z</time>
      </trkpt>
      <trkpt lat="42.6866190" lon="-8.6377450">
        <ele>74.8</ele>
        <time>2021-05-23T08:25:19Z</time>
      </trkpt>
      <trkpt lat="42.6866150" lon="-8.6377580">
        <ele>74.9</ele>
        <time>2021-05-23T08:25:20Z</time>
      </trkpt>
      <trkpt lat="42.6866110" lon="-8.6377620">
        <ele>74.9</ele>
        <time>2021-05-23T08:25:21Z</time>
      </trkpt>
      <trkpt lat="42.6866120" lon="-8.6377660">
        <ele>74.9</ele>
        <time>2021-05-23T08:25:22Z</time>
      </trkpt>
      <trkpt lat="42.6866150" lon="-8.6377880">
        <ele>75.0</ele>
        <time>2021-05-23T08:25:23Z</time>
      </trkpt>
      <trkpt lat="42.6866250" lon="-8.6378060">
        <ele>75.0</ele>
        <time>2021-05-23T08:25:24Z</time>
      </trkpt>
      <trkpt lat="42.6866330" lon="-8.6378210">
        <ele>75.1</ele>
        <time>2021-05-23T08:25:25Z</time>
      </trkpt>
      <trkpt lat="42.6866480" lon="-8.6378360">
        <ele>75.1</ele>
        <time>2021-05-23T08:25:26Z</time>
      </trkpt>
      <trkpt lat="42.6866590" lon="-8.6378410">
        <ele>75.2</ele>
        <time>2021-05-23T08:25:27Z</time>
      </trkpt>
      <trkpt lat="42.6866700" lon="-8.6378540">
        <ele>75.2</ele>
        <time>2021-05-23T08:25:28Z</time>
      </trkpt>
      <trkpt lat="42.6866850" lon="-8.6378690">
        <ele>75.2</ele>
        <time>2021-05-23T08:25:29Z</time>
      </trkpt>
      <trkpt lat="42.6866990" lon="-8.6378750">
        <ele>75.2</ele>
        <time>2021-05-23T08:25:30Z</time>
      </trkpt>
      <trkpt lat="42.6867070" lon="-8.6378720">
        <ele>75.2</ele>
        <time>2021-05-23T08:25:31Z</time>
      </trkpt>
      <trkpt lat="42.6867150" lon="-8.6378710">
        <ele>75.3</ele>
        <time>2021-05-23T08:25:32Z</time>
      </trkpt>
      <trkpt lat="42.6867330" lon="-8.6378740">
        <ele>75.3</ele>
        <time>2021-05-23T08:25:33Z</time>
      </trkpt>
      <trkpt lat="42.6867400" lon="-8.6378720">
        <ele>75.3</ele>
        <time>2021-05-23T08:25:34Z</time>
      </trkpt>
      <trkpt lat="42.6867450" lon="-8.6378750">
        <ele>75.3</ele>
        <time>2021-05-23T08:25:35Z</time>
      </trkpt>
      <trkpt lat="42.6867550" lon="-8.6378750">
        <ele>75.2</ele>
        <time>2021-05-23T08:25:36Z</time>
      </trkpt>
      <trkpt lat="42.6867680" lon="-8.6378660">
        <ele>75.2</ele>
        <time>2021-05-23T08:25:37Z</time>
      </trkpt>
      <trkpt lat="42.6867760" lon="-8.6378610">
        <ele>75.2</ele>
        <time>2021-05-23T08:25:38Z</time>
      </trkpt>
      <trkpt lat="42.6867770" lon="-8.6378520">
        <ele>75.2</ele>
        <time>2021-05-23T08:25:39Z</time>
      </trkpt>
      <trkpt lat="42.6867860" lon="-8.6378470">
        <ele>75.2</ele>
        <time>2021-05-23T08:25:40Z</time>
      </trkpt>
      <trkpt lat="42.6867990" lon="-8.6378360">
        <ele>75.2</ele>
        <time>2021-05-23T08:25:41Z</time>
      </trkpt>
      <trkpt lat="42.6868080" lon="-8.6378250">
        <ele>75.1</ele>
        <time>2021-05-23T08:25:42Z</time>
      </trkpt>
      <trkpt lat="42.6868140" lon="-8.6378150">
        <ele>75.1</ele>
        <time>2021-05-23T08:25:43Z</time>
      </trkpt>
      <trkpt lat="42.6868260" lon="-8.6378070">
        <ele>75.1</ele>
        <time>2021-05-23T08:25:44Z</time>
      </trkpt>
      <trkpt lat="42.6868340" lon="-8.6377990">
        <ele>75.0</ele>
        <time>2021-05-23T08:25:45Z</time>
      </trkpt>
      <trkpt lat="42.6868510" lon="-8.6377940">
        <ele>75.0</ele>
        <time>2021-05-23T08:25:46Z</time>
      </trkpt>
      <trkpt lat="42.6868580" lon="-8.6377910">
        <ele>74.9</ele>
        <time>2021-05-23T08:25:47Z</time>
      </trkpt>
      <trkpt lat="42.6868710" lon="-8.6377700">
        <ele>74.9</ele>
        <time>2021-05-23T08:25:48Z</time>
      </trkpt>
      <trkpt lat="42.6868810" lon="-8.6377650">
        <ele>74.8</ele>
        <time>2021-05-23T08:25:49Z</time>
      </trkpt>
      <trkpt lat="42.6868780" lon="-8.6377680">
        <ele>74.8</ele>
        <time>2021-05-23T08:25:50Z</time>
      </trkpt>
      <trkpt lat="42.6868840" lon="-8.6377620">
        <ele>74.7</ele>
        <time>2021-05-23T08:25:51Z</time>
      </trkpt>
      <trkpt lat="42.6868860" lon="-8.6377570">
        <ele>74.7</ele>
        <time>2021-05-23T08:25:52Z</time>
      </trkpt>
      <trkpt lat="42.6868920" lon="-8.6377480">
        <ele>74.7</ele>
        <time>2021-05-23T08:25:53Z</time>
      </trkpt>
      <trkpt lat="42.6868980" lon="-8.6377480">
        <ele>74.6</ele>
        <time>2021-05-23T08:25:54Z</time>
      </trkpt>
      <trkpt lat="42.6869030" lon="-8.6377390">
        <ele>74.6</ele>
        <time>2021-05-23T08:25:55Z</time>
      </trkpt>
      <trkpt lat="42.6869130" lon="-8.6377250">
        <ele>74.5</ele>
        <time>2021-05-23T08:25:56Z</time>
      </trkpt>
      <trkpt lat="42.6869210" lon="-8.6377180">
        <ele>74.5</ele>
        <time>2021-05-23T08:25:57Z</time>
      </trkpt>
      <trkpt lat="42.6869280" lon="-8.6377100">
        <ele>74.4</ele>
        <time>2021-05-23T08:25:58Z</time>
      </trkpt>
      <trkpt lat="42.6869350" lon="-8.6377030">
        <ele>74.3</ele>
        <time>2021-05-23T08:25:59Z</time>
      </trkpt>
      <trkpt lat="42.6869530" lon="-8.6376980">
        <ele>74.2</ele>
        <time>2021-05-23T08:26:00Z</time>
      </trkpt>
      <trkpt lat="42.6869660" lon="-8.6376910">
        <ele>74.1</ele>
        <time>2021-05-23T08:26:01Z</time>
      </trkpt>
      <trkpt lat="42.6869780" lon="-8.6376840">
        <ele>74.0</ele>
        <time>2021-05-23T08:26:02Z</time>
      </trkpt>
      <trkpt lat="42.6869900" lon="-8.6376780">
        <ele>74.0</ele>
        <time>2021-05-23T08:26:03Z</time>
      </trkpt>
      <trkpt lat="42.6870020" lon="-8.6376760">
        <ele>73.9</ele>
        <time>2021-05-23T08:26:04Z</time>
      </trkpt>
      <trkpt lat="42.6870150" lon="-8.6376740">
        <ele>73.8</ele>
        <time>2021-05-23T08:26:05Z</time>
      </trkpt>
      <trkpt lat="42.6870290" lon="-8.6376680">
        <ele>73.7</ele>
        <time>2021-05-23T08:26:06Z</time>
      </trkpt>
      <trkpt lat="42.6870410" lon="-8.6376730">
        <ele>73.6</ele>
        <time>2021-05-23T08:26:07Z</time>
      </trkpt>
      <trkpt lat="42.6870540" lon="-8.6376770">
        <ele>73.5</ele>
        <time>2021-05-23T08:26:08Z</time>
      </trkpt>
      <trkpt lat="42.6870660" lon="-8.6376820">
        <ele>73.4</ele>
        <time>2021-05-23T08:26:09Z</time>
      </trkpt>
      <trkpt lat="42.6870830" lon="-8.6376890">
        <ele>73.2</ele>
        <time>2021-05-23T08:26:10Z</time>
      </trkpt>
      <trkpt lat="42.6870930" lon="-8.6376910">
        <ele>73.2</ele>
        <time>2021-05-23T08:26:11Z</time>
      </trkpt>
      <trkpt lat="42.6871020" lon="-8.6376930">
        <ele>73.1</ele>
        <time>2021-05-23T08:26:12Z</time>
      </trkpt>
      <trkpt lat="42.6871140" lon="-8.6377020">
        <ele>73.0</ele>
        <time>2021-05-23T08:26:13Z</time>
      </trkpt>
      <trkpt lat="42.6871250" lon="-8.6377060">
        <ele>72.9</ele>
        <time>2021-05-23T08:26:14Z</time>
      </trkpt>
      <trkpt lat="42.6871380" lon="-8.6377030">
        <ele>72.8</ele>
        <time>2021-05-23T08:26:15Z</time>
      </trkpt>
      <trkpt lat="42.6871500" lon="-8.6377020">
        <ele>72.7</ele>
        <time>2021-05-23T08:26:16Z</time>
      </trkpt>
      <trkpt lat="42.6871610" lon="-8.6377180">
        <ele>72.6</ele>
        <time>2021-05-23T08:26:17Z</time>
      </trkpt>
      <trkpt lat="42.6871710" lon="-8.6377100">
        <ele>72.5</ele>
        <time>2021-05-23T08:26:18Z</time>
      </trkpt>
      <trkpt lat="42.6871690" lon="-8.6377180">
        <ele>72.5</ele>
        <time>2021-05-23T08:26:19Z</time>
      </trkpt>
      <trkpt lat="42.6871670" lon="-8.6377230">
        <ele>72.4</ele>
        <time>2021-05-23T08:26:20Z</time>
      </trkpt>
      <trkpt lat="42.6871620" lon="-8.6377230">
        <ele>72.4</ele>
        <time>2021-05-23T08:26:21Z</time>
      </trkpt>
      <trkpt lat="42.6871620" lon="-8.6377300">
        <ele>72.4</ele>
        <time>2021-05-23T08:26:22Z</time>
      </trkpt>
      <trkpt lat="42.6871800" lon="-8.6377370">
        <ele>72.2</ele>
        <time>2021-05-23T08:26:23Z</time>
      </trkpt>
      <trkpt lat="42.6871870" lon="-8.6377480">
        <ele>72.1</ele>
        <time>2021-05-23T08:26:24Z</time>
      </trkpt>
      <trkpt lat="42.6871930" lon="-8.6377490">
        <ele>72.1</ele>
        <time>2021-05-23T08:26:25Z</time>
      </trkpt>
      <trkpt lat="42.6872170" lon="-8.6377630">
        <ele>71.8</ele>
        <time>2021-05-23T08:26:26Z</time>
      </trkpt>
      <trkpt lat="42.6872220" lon="-8.6377560">
        <ele>71.8</ele>
        <time>2021-05-23T08:26:27Z</time>
      </trkpt>
      <trkpt lat="42.6872280" lon="-8.6377660">
        <ele>71.7</ele>
        <time>2021-05-23T08:26:28Z</time>
      </trkpt>
      <trkpt lat="42.6872330" lon="-8.6377620">
        <ele>71.6</ele>
        <time>2021-05-23T08:26:29Z</time>
      </trkpt>
      <trkpt lat="42.6872360" lon="-8.6377590">
        <ele>71.6</ele>
        <time>2021-05-23T08:26:30Z</time>
      </trkpt>
      <trkpt lat="42.6872410" lon="-8.6377600">
        <ele>71.6</ele>
        <time>2021-05-23T08:26:31Z</time>
      </trkpt>
      <trkpt lat="42.6872500" lon="-8.6377610">
        <ele>71.5</ele>
        <time>2021-05-23T08:26:32Z</time>
      </trkpt>
      <trkpt lat="42.6872440" lon="-8.6377510">
        <ele>71.4</ele>
        <time>2021-05-23T08:26:33Z</time>
      </trkpt>
      <trkpt lat="42.6872730" lon="-8.6377650">
        <ele>71.1</ele>
        <time>2021-05-23T08:26:34Z</time>
      </trkpt>
      <trkpt lat="42.6872780" lon="-8.6377640">
        <ele>71.0</ele>
        <time>2021-05-23T08:26:35Z</time>
      </trkpt>
      <trkpt lat="42.6872850" lon="-8.6377640">
        <ele>71.0</ele>
        <time>2021-05-23T08:26:36Z</time>
      </trkpt>
      <trkpt lat="42.6873110" lon="-8.6377740">
        <ele>70.7</ele>
        <time>2021-05-23T08:26:37Z</time>
      </trkpt>
      <trkpt lat="42.6873200" lon="-8.6377650">
        <ele>70.6</ele>
        <time>2021-05-23T08:26:38Z</time>
      </trkpt>
      <trkpt lat="42.6873380" lon="-8.6377650">
        <ele>70.4</ele>
        <time>2021-05-23T08:26:39Z</time>
      </trkpt>
      <trkpt lat="42.6873470" lon="-8.6377620">
        <ele>70.3</ele>
        <time>2021-05-23T08:26:40Z</time>
      </trkpt>
      <trkpt lat="42.6873620" lon="-8.6377630">
        <ele>70.2</ele>
        <time>2021-05-23T08:26:41Z</time>
      </trkpt>
      <trkpt lat="42.6873660" lon="-8.6377580">
        <ele>70.1</ele>
        <time>2021-05-23T08:26:42Z</time>
      </trkpt>
      <trkpt lat="42.6873810" lon="-8.6377530">
        <ele>70.0</ele>
        <time>2021-05-23T08:26:43Z</time>
      </trkpt>
      <trkpt lat="42.6873990" lon="-8.6377530">
        <ele>69.8</ele>
        <time>2021-05-23T08:26:44Z</time>
      </trkpt>
      <trkpt lat="42.6874120" lon="-8.6377510">
        <ele>69.6</ele>
        <time>2021-05-23T08:26:45Z</time>
      </trkpt>
      <trkpt lat="42.6874310" lon="-8.6377670">
        <ele>69.4</ele>
        <time>2021-05-23T08:26:46Z</time>
      </trkpt>
      <trkpt lat="42.6874380" lon="-8.6377640">
        <ele>69.3</ele>
        <time>2021-05-23T08:26:47Z</time>
      </trkpt>
      <trkpt lat="42.6874470" lon="-8.6377610">
        <ele>69.2</ele>
        <time>2021-05-23T08:26:48Z</time>
      </trkpt>
      <trkpt lat="42.6874540" lon="-8.6377570">
        <ele>69.2</ele>
        <time>2021-05-23T08:26:49Z</time>
      </trkpt>
      <trkpt lat="42.6874670" lon="-8.6377580">
        <ele>69.0</ele>
        <time>2021-05-23T08:26:50Z</time>
      </trkpt>
      <trkpt lat="42.6874940" lon="-8.6377580">
        <ele>68.8</ele>
        <time>2021-05-23T08:26:51Z</time>
      </trkpt>
      <trkpt lat="42.6875040" lon="-8.6377620">
        <ele>68.6</ele>
        <time>2021-05-23T08:26:52Z</time>
      </trkpt>
      <trkpt lat="42.6875150" lon="-8.6377650">
        <ele>68.5</ele>
        <time>2021-05-23T08:26:53Z</time>
      </trkpt>
      <trkpt lat="42.6875260" lon="-8.6377680">
        <ele>68.4</ele>
        <time>2021-05-23T08:26:54Z</time>
      </trkpt>
      <trkpt lat="42.6875350" lon="-8.6377660">
        <ele>68.3</ele>
        <time>2021-05-23T08:26:55Z</time>
      </trkpt>
      <trkpt lat="42.6875350" lon="-8.6377620">
        <ele>68.3</ele>
        <time>2021-05-23T08:26:56Z</time>
      </trkpt>
      <trkpt lat="42.6875420" lon="-8.6377510">
        <ele>68.2</ele>
        <time>2021-05-23T08:26:57Z</time>
      </trkpt>
      <trkpt lat="42.6875510" lon="-8.6377380">
        <ele>68.1</ele>
        <time>2021-05-23T08:26:58Z</time>
      </trkpt>
      <trkpt lat="42.6875610" lon="-8.6377310">
        <ele>68.0</ele>
        <time>2021-05-23T08:26:59Z</time>
      </trkpt>
      <trkpt lat="42.6875720" lon="-8.6377260">
        <ele>67.9</ele>
        <time>2021-05-23T08:27:00Z</time>
      </trkpt>
      <trkpt lat="42.6875870" lon="-8.6377460">
        <ele>67.7</ele>
        <time>2021-05-23T08:27:01Z</time>
      </trkpt>
      <trkpt lat="42.6875890" lon="-8.6377350">
        <ele>67.6</ele>
        <time>2021-05-23T08:27:02Z</time>
      </trkpt>
      <trkpt lat="42.6875950" lon="-8.6377260">
        <ele>67.5</ele>
        <time>2021-05-23T08:27:03Z</time>
      </trkpt>
      <trkpt lat="42.6876030" lon="-8.6377230">
        <ele>67.5</ele>
        <time>2021-05-23T08:27:04Z</time>
      </trkpt>
      <trkpt lat="42.6876070" lon="-8.6377230">
        <ele>67.4</ele>
        <time>2021-05-23T08:27:05Z</time>
      </trkpt>
      <trkpt lat="42.6876110" lon="-8.6377240">
        <ele>67.4</ele>
        <time>2021-05-23T08:27:06Z</time>
      </trkpt>
      <trkpt lat="42.6876240" lon="-8.6377280">
        <ele>67.3</ele>
        <time>2021-05-23T08:27:07Z</time>
      </trkpt>
      <trkpt lat="42.6876340" lon="-8.6377290">
        <ele>67.2</ele>
        <time>2021-05-23T08:27:08Z</time>
      </trkpt>
      <trkpt lat="42.6876530" lon="-8.6377500">
        <ele>67.0</ele>
        <time>2021-05-23T08:27:09Z</time>
      </trkpt>
      <trkpt lat="42.6876600" lon="-8.6377570">
        <ele>67.0</ele>
        <time>2021-05-23T08:27:10Z</time>
      </trkpt>
      <trkpt lat="42.6876660" lon="-8.6377630">
        <ele>66.9</ele>
        <time>2021-05-23T08:27:11Z</time>
      </trkpt>
      <trkpt lat="42.6876840" lon="-8.6377750">
        <ele>66.8</ele>
        <time>2021-05-23T08:27:12Z</time>
      </trkpt>
      <trkpt lat="42.6876930" lon="-8.6377810">
        <ele>66.7</ele>
        <time>2021-05-23T08:27:13Z</time>
      </trkpt>
      <trkpt lat="42.6877010" lon="-8.6377870">
        <ele>66.6</ele>
        <time>2021-05-23T08:27:14Z</time>
      </trkpt>
      <trkpt lat="42.6877120" lon="-8.6377880">
        <ele>66.6</ele>
        <time>2021-05-23T08:27:15Z</time>
      </trkpt>
      <trkpt lat="42.6877220" lon="-8.6378000">
        <ele>66.5</ele>
        <time>2021-05-23T08:27:16Z</time>
      </trkpt>
      <trkpt lat="42.6877290" lon="-8.6378010">
        <ele>66.4</ele>
        <time>2021-05-23T08:27:17Z</time>
      </trkpt>
      <trkpt lat="42.6877340" lon="-8.6378040">
        <ele>66.4</ele>
        <time>2021-05-23T08:27:18Z</time>
      </trkpt>
      <trkpt lat="42.6877370" lon="-8.6378090">
        <ele>66.4</ele>
        <time>2021-05-23T08:27:19Z</time>
      </trkpt>
      <trkpt lat="42.6877360" lon="-8.6378100">
        <ele>66.4</ele>
        <time>2021-05-23T08:27:20Z</time>
      </trkpt>
      <trkpt lat="42.6877450" lon="-8.6378170">
        <ele>66.3</ele>
        <time>2021-05-23T08:27:21Z</time>
      </trkpt>
      <trkpt lat="42.6877540" lon="-8.6378220">
        <ele>66.3</ele>
        <time>2021-05-23T08:27:22Z</time>
      </trkpt>
      <trkpt lat="42.6877600" lon="-8.6378260">
        <ele>66.2</ele>
        <time>2021-05-23T08:27:23Z</time>
      </trkpt>
      <trkpt lat="42.6877710" lon="-8.6378300">
        <ele>66.1</ele>
        <time>2021-05-23T08:27:24Z</time>
      </trkpt>
      <trkpt lat="42.6877730" lon="-8.6378300">
        <ele>66.1</ele>
        <time>2021-05-23T08:27:25Z</time>
      </trkpt>
      <trkpt lat="42.6877860" lon="-8.6378320">
        <ele>66.1</ele>
        <time>2021-05-23T08:27:26Z</time>
      </trkpt>
      <trkpt lat="42.6878060" lon="-8.6378350">
        <ele>66.0</ele>
        <time>2021-05-23T08:27:27Z</time>
      </trkpt>
      <trkpt lat="42.6878140" lon="-8.6378370">
        <ele>65.9</ele>
        <time>2021-05-23T08:27:28Z</time>
      </trkpt>
      <trkpt lat="42.6878220" lon="-8.6378380">
        <ele>65.9</ele>
        <time>2021-05-23T08:27:29Z</time>
      </trkpt>
      <trkpt lat="42.6878270" lon="-8.6378380">
        <ele>65.9</ele>
        <time>2021-05-23T08:27:30Z</time>
      </trkpt>
      <trkpt lat="42.6878290" lon="-8.6378410">
        <ele>65.8</ele>
        <time>2021-05-23T08:27:31Z</time>
      </trkpt>
      <trkpt lat="42.6878380" lon="-8.6378430">
        <ele>65.8</ele>
        <time>2021-05-23T08:27:32Z</time>
      </trkpt>
      <trkpt lat="42.6878560" lon="-8.6378460">
        <ele>65.7</ele>
        <time>2021-05-23T08:27:33Z</time>
      </trkpt>
      <trkpt lat="42.6878700" lon="-8.6378460">
        <ele>65.6</ele>
        <time>2021-05-23T08:27:34Z</time>
      </trkpt>
      <trkpt lat="42.6878850" lon="-8.6378480">
        <ele>65.6</ele>
        <time>2021-05-23T08:27:35Z</time>
      </trkpt>
      <trkpt lat="42.6878940" lon="-8.6378570">
        <ele>65.5</ele>
        <time>2021-05-23T08:27:36Z</time>
      </trkpt>
      <trkpt lat="42.6879140" lon="-8.6378710">
        <ele>65.4</ele>
        <time>2021-05-23T08:27:37Z</time>
      </trkpt>
      <trkpt lat="42.6879270" lon="-8.6378800">
        <ele>65.3</ele>
        <time>2021-05-23T08:27:38Z</time>
      </trkpt>
      <trkpt lat="42.6879340" lon="-8.6378970">
        <ele>65.2</ele>
        <time>2021-05-23T08:27:39Z</time>
      </trkpt>
      <trkpt lat="42.6879570" lon="-8.6379040">
        <ele>65.1</ele>
        <time>2021-05-23T08:27:40Z</time>
      </trkpt>
      <trkpt lat="42.6879640" lon="-8.6379070">
        <ele>65.1</ele>
        <time>2021-05-23T08:27:41Z</time>
      </trkpt>
      <trkpt lat="42.6879810" lon="-8.6379150">
        <ele>65.0</ele>
        <time>2021-05-23T08:27:42Z</time>
      </trkpt>
      <trkpt lat="42.6879910" lon="-8.6379250">
        <ele>65.0</ele>
        <time>2021-05-23T08:27:43Z</time>
      </trkpt>
      <trkpt lat="42.6879970" lon="-8.6379270">
        <ele>64.9</ele>
        <time>2021-05-23T08:27:44Z</time>
      </trkpt>
      <trkpt lat="42.6880100" lon="-8.6379340">
        <ele>64.9</ele>
        <time>2021-05-23T08:27:45Z</time>
      </trkpt>
      <trkpt lat="42.6880200" lon="-8.6379430">
        <ele>64.8</ele>
        <time>2021-05-23T08:27:46Z</time>
      </trkpt>
      <trkpt lat="42.6880390" lon="-8.6379570">
        <ele>64.7</ele>
        <time>2021-05-23T08:27:47Z</time>
      </trkpt>
      <trkpt lat="42.6880460" lon="-8.6379600">
        <ele>64.7</ele>
        <time>2021-05-23T08:27:48Z</time>
      </trkpt>
      <trkpt lat="42.6880540" lon="-8.6379640">
        <ele>64.7</ele>
        <time>2021-05-23T08:27:49Z</time>
      </trkpt>
      <trkpt lat="42.6880700" lon="-8.6379830">
        <ele>64.6</ele>
        <time>2021-05-23T08:27:50Z</time>
      </trkpt>
      <trkpt lat="42.6880790" lon="-8.6379940">
        <ele>64.6</ele>
        <time>2021-05-23T08:27:51Z</time>
      </trkpt>
      <trkpt lat="42.6880870" lon="-8.6380040">
        <ele>64.5</ele>
        <time>2021-05-23T08:27:52Z</time>
      </trkpt>
      <trkpt lat="42.6881010" lon="-8.6380140">
        <ele>64.5</ele>
        <time>2021-05-23T08:27:53Z</time>
      </trkpt>
      <trkpt lat="42.6881020" lon="-8.6380220">
        <ele>64.4</ele>
        <time>2021-05-23T08:27:54Z</time>
      </trkpt>
      <trkpt lat="42.6881040" lon="-8.6380320">
        <ele>64.4</ele>
        <time>2021-05-23T08:27:55Z</time>
      </trkpt>
      <trkpt lat="42.6881030" lon="-8.6380370">
        <ele>64.4</ele>
        <time>2021-05-23T08:27:56Z</time>
      </trkpt>
      <trkpt lat="42.6881110" lon="-8.6380430">
        <ele>64.4</ele>
        <time>2021-05-23T08:27:57Z</time>
      </trkpt>
      <trkpt lat="42.6881050" lon="-8.6380510">
        <ele>64.4</ele>
        <time>2021-05-23T08:27:58Z</time>
      </trkpt>
      <trkpt lat="42.6881220" lon="-8.6380630">
        <ele>64.3</ele>
        <time>2021-05-23T08:27:59Z</time>
      </trkpt>
      <trkpt lat="42.6881280" lon="-8.6380700">
        <ele>64.3</ele>
        <time>2021-05-23T08:28:00Z</time>
      </trkpt>
      <trkpt lat="42.6881420" lon="-8.6380910">
        <ele>64.2</ele>
        <time>2021-05-23T08:28:01Z</time>
      </trkpt>
      <trkpt lat="42.6881480" lon="-8.6381000">
        <ele>64.2</ele>
        <time>2021-05-23T08:28:02Z</time>
      </trkpt>
      <trkpt lat="42.6881530" lon="-8.6381090">
        <ele>64.2</ele>
        <time>2021-05-23T08:28:03Z</time>
      </trkpt>
      <trkpt lat="42.6881590" lon="-8.6381140">
        <ele>64.2</ele>
        <time>2021-05-23T08:28:04Z</time>
      </trkpt>
      <trkpt lat="42.6881580" lon="-8.6381270">
        <ele>64.2</ele>
        <time>2021-05-23T08:28:05Z</time>
      </trkpt>
      <trkpt lat="42.6881650" lon="-8.6381430">
        <ele>64.1</ele>
        <time>2021-05-23T08:28:06Z</time>
      </trkpt>
      <trkpt lat="42.6881670" lon="-8.6381480">
        <ele>64.1</ele>
        <time>2021-05-23T08:28:07Z</time>
      </trkpt>
      <trkpt lat="42.6881710" lon="-8.6381730">
        <ele>64.1</ele>
        <time>2021-05-23T08:28:08Z</time>
      </trkpt>
      <trkpt lat="42.6881700" lon="-8.6381820">
        <ele>64.1</ele>
        <time>2021-05-23T08:28:09Z</time>
      </trkpt>
      <trkpt lat="42.6881810" lon="-8.6381960">
        <ele>64.0</ele>
        <time>2021-05-23T08:28:10Z</time>
      </trkpt>
      <trkpt lat="42.6881880" lon="-8.6382080">
        <ele>64.0</ele>
        <time>2021-05-23T08:28:11Z</time>
      </trkpt>
      <trkpt lat="42.6881820" lon="-8.6382130">
        <ele>64.0</ele>
        <time>2021-05-23T08:28:12Z</time>
      </trkpt>
      <trkpt lat="42.6881830" lon="-8.6382250">
        <ele>64.0</ele>
        <time>2021-05-23T08:28:13Z</time>
      </trkpt>
      <trkpt lat="42.6881810" lon="-8.6382630">
        <ele>64.0</ele>
        <time>2021-05-23T08:28:14Z</time>
      </trkpt>
      <trkpt lat="42.6881800" lon="-8.6382770">
        <ele>64.0</ele>
        <time>2021-05-23T08:28:15Z</time>
      </trkpt>
      <trkpt lat="42.6881890" lon="-8.6382890">
        <ele>63.9</ele>
        <time>2021-05-23T08:28:16Z</time>
      </trkpt>
      <trkpt lat="42.6882020" lon="-8.6383130">
        <ele>63.9</ele>
        <time>2021-05-23T08:28:17Z</time>
      </trkpt>
      <trkpt lat="42.6882100" lon="-8.6383330">
        <ele>63.9</ele>
        <time>2021-05-23T08:28:18Z</time>
      </trkpt>
      <trkpt lat="42.6882050" lon="-8.6383450">
        <ele>63.9</ele>
        <time>2021-05-23T08:28:19Z</time>
      </trkpt>
      <trkpt lat="42.6882100" lon="-8.6383550">
        <ele>63.9</ele>
        <time>2021-05-23T08:28:20Z</time>
      </trkpt>
      <trkpt lat="42.6882230" lon="-8.6383700">
        <ele>63.9</ele>
        <time>2021-05-23T08:28:21Z</time>
      </trkpt>
      <trkpt lat="42.6882270" lon="-8.6383800">
        <ele>63.9</ele>
        <time>2021-05-23T08:28:22Z</time>
      </trkpt>
      <trkpt lat="42.6882250" lon="-8.6383820">
        <ele>63.9</ele>
        <time>2021-05-23T08:28:23Z</time>
      </trkpt>
      <trkpt lat="42.6882290" lon="-8.6383870">
        <ele>63.9</ele>
        <time>2021-05-23T08:28:24Z</time>
      </trkpt>
      <trkpt lat="42.6882490" lon="-8.6384170">
        <ele>63.8</ele>
        <time>2021-05-23T08:28:25Z</time>
      </trkpt>
      <trkpt lat="42.6882590" lon="-8.6384280">
        <ele>63.8</ele>
        <time>2021-05-23T08:28:26Z</time>
      </trkpt>
      <trkpt lat="42.6882680" lon="-8.6384390">
        <ele>63.8</ele>
        <time>2021-05-23T08:28:27Z</time>
      </trkpt>
      <trkpt lat="42.6882720" lon="-8.6384550">
        <ele>63.8</ele>
        <time>2021-05-23T08:28:28Z</time>
      </trkpt>
      <trkpt lat="42.6882740" lon="-8.6384670">
        <ele>63.8</ele>
        <time>2021-05-23T08:28:29Z</time>
      </trkpt>
      <trkpt lat="42.6882810" lon="-8.6384760">
        <ele>63.8</ele>
        <time>2021-05-23T08:28:30Z</time>
      </trkpt>
      <trkpt lat="42.6882920" lon="-8.6384910">
        <ele>63.8</ele>
        <time>2021-05-23T08:28:31Z</time>
      </trkpt>
      <trkpt lat="42.6882930" lon="-8.6384970">
        <ele>63.8</ele>
        <time>2021-05-23T08:28:32Z</time>
      </trkpt>
      <trkpt lat="42.6883030" lon="-8.6385050">
        <ele>63.8</ele>
        <time>2021-05-23T08:28:33Z</time>
      </trkpt>
      <trkpt lat="42.6883240" lon="-8.6385140">
        <ele>63.8</ele>
        <time>2021-05-23T08:28:34Z</time>
      </trkpt>
      <trkpt lat="42.6883290" lon="-8.6385110">
        <ele>63.8</ele>
        <time>2021-05-23T08:28:35Z</time>
      </trkpt>
      <trkpt lat="42.6883350" lon="-8.6385050">
        <ele>63.8</ele>
        <time>2021-05-23T08:28:36Z</time>
      </trkpt>
      <trkpt lat="42.6883560" lon="-8.6385110">
        <ele>63.7</ele>
        <time>2021-05-23T08:28:37Z</time>
      </trkpt>
      <trkpt lat="42.6883640" lon="-8.6385110">
        <ele>63.7</ele>
        <time>2021-05-23T08:28:38Z</time>
      </trkpt>
      <trkpt lat="42.6883730" lon="-8.6385120">
        <ele>63.7</ele>
        <time>2021-05-23T08:28:39Z</time>
      </trkpt>
      <trkpt lat="42.6883980" lon="-8.6385120">
        <ele>63.7</ele>
        <time>2021-05-23T08:28:40Z</time>
      </trkpt>
      <trkpt lat="42.6884100" lon="-8.6385150">
        <ele>63.7</ele>
        <time>2021-05-23T08:28:41Z</time>
      </trkpt>
      <trkpt lat="42.6884230" lon="-8.6385190">
        <ele>63.7</ele>
        <time>2021-05-23T08:28:42Z</time>
      </trkpt>
      <trkpt lat="42.6884350" lon="-8.6385230">
        <ele>63.6</ele>
        <time>2021-05-23T08:28:43Z</time>
      </trkpt>
      <trkpt lat="42.6884250" lon="-8.6385100">
        <ele>63.6</ele>
        <time>2021-05-23T08:28:44Z</time>
      </trkpt>
      <trkpt lat="42.6884240" lon="-8.6385170">
        <ele>63.6</ele>
        <time>2021-05-23T08:28:45Z</time>
      </trkpt>
      <trkpt lat="42.6884200" lon="-8.6385210">
        <ele>63.6</ele>
        <time>2021-05-23T08:28:46Z</time>
      </trkpt>
      <trkpt lat="42.6884110" lon="-8.6385220">
        <ele>63.6</ele>
        <time>2021-05-23T08:28:47Z</time>
      </trkpt>
      <trkpt lat="42.6884080" lon="-8.6385160">
        <ele>63.6</ele>
        <time>2021-05-23T08:28:48Z</time>
      </trkpt>
      <trkpt lat="42.6884030" lon="-8.6385090">
        <ele>63.6</ele>
        <time>2021-05-23T08:28:49Z</time>
      </trkpt>
      <trkpt lat="42.6883990" lon="-8.6385100">
        <ele>63.6</ele>
        <time>2021-05-23T08:28:50Z</time>
      </trkpt>
      <trkpt lat="42.6884000" lon="-8.6385090">
        <ele>63.6</ele>
        <time>2021-05-23T08:28:51Z</time>
      </trkpt>
      <trkpt lat="42.6884180" lon="-8.6385000">
        <ele>63.6</ele>
        <time>2021-05-23T08:28:52Z</time>
      </trkpt>
      <trkpt lat="42.6884150" lon="-8.6384960">
        <ele>63.5</ele>
        <time>2021-05-23T08:28:53Z</time>
      </trkpt>
      <trkpt lat="42.6884110" lon="-8.6384990">
        <ele>63.5</ele>
        <time>2021-05-23T08:28:54Z</time>
      </trkpt>
      <trkpt lat="42.6884090" lon="-8.6385050">
        <ele>63.5</ele>
        <time>2021-05-23T08:28:55Z</time>
      </trkpt>
      <trkpt lat="42.6884090" lon="-8.6385080">
        <ele>63.5</ele>
        <time>2021-05-23T08:28:56Z</time>
      </trkpt>
      <trkpt lat="42.6884040" lon="-8.6385030">
        <ele>63.5</ele>
        <time>2021-05-23T08:28:57Z</time>
      </trkpt>
      <trkpt lat="42.6883970" lon="-8.6385070">
        <ele>63.5</ele>
        <time>2021-05-23T08:28:58Z</time>
      </trkpt>
      <trkpt lat="42.6883870" lon="-8.6385030">
        <ele>63.5</ele>
        <time>2021-05-23T08:28:59Z</time>
      </trkpt>
      <trkpt lat="42.6883880" lon="-8.6385000">
        <ele>63.5</ele>
        <time>2021-05-23T08:29:00Z</time>
      </trkpt>
      <trkpt lat="42.6883770" lon="-8.6385020">
        <ele>63.5</ele>
        <time>2021-05-23T08:29:01Z</time>
      </trkpt>
      <trkpt lat="42.6883680" lon="-8.6385060">
        <ele>63.5</ele>
        <time>2021-05-23T08:29:02Z</time>
      </trkpt>
      <trkpt lat="42.6883600" lon="-8.6385090">
        <ele>63.4</ele>
        <time>2021-05-23T08:29:03Z</time>
      </trkpt>
      <trkpt lat="42.6883630" lon="-8.6385180">
        <ele>63.4</ele>
        <time>2021-05-23T08:29:04Z</time>
      </trkpt>
      <trkpt lat="42.6883650" lon="-8.6385120">
        <ele>63.4</ele>
        <time>2021-05-23T08:29:05Z</time>
      </trkpt>
      <trkpt lat="42.6883700" lon="-8.6385030">
        <ele>63.4</ele>
        <time>2021-05-23T08:29:06Z</time>
      </trkpt>
      <trkpt lat="42.6883720" lon="-8.6385000">
        <ele>63.4</ele>
        <time>2021-05-23T08:29:07Z</time>
      </trkpt>
      <trkpt lat="42.6883750" lon="-8.6384940">
        <ele>63.4</ele>
        <time>2021-05-23T08:29:08Z</time>
      </trkpt>
      <trkpt lat="42.6883870" lon="-8.6384930">
        <ele>63.4</ele>
        <time>2021-05-23T08:29:09Z</time>
      </trkpt>
      <trkpt lat="42.6883850" lon="-8.6384900">
        <ele>63.4</ele>
        <time>2021-05-23T08:29:10Z</time>
      </trkpt>
      <trkpt lat="42.6883920" lon="-8.6384910">
        <ele>63.3</ele>
        <time>2021-05-23T08:29:11Z</time>
      </trkpt>
      <trkpt lat="42.6883940" lon="-8.6384810">
        <ele>63.3</ele>
        <time>2021-05-23T08:29:12Z</time>
      </trkpt>
      <trkpt lat="42.6883940" lon="-8.6384780">
        <ele>63.3</ele>
        <time>2021-05-23T08:29:13Z</time>
      </trkpt>
      <trkpt lat="42.6883960" lon="-8.6384780">
        <ele>63.3</ele>
        <time>2021-05-23T08:29:14Z</time>
      </trkpt>
      <trkpt lat="42.6883890" lon="-8.6384780">
        <ele>63.3</ele>
        <time>2021-05-23T08:29:15Z</time>
      </trkpt>
      <trkpt lat="42.6883910" lon="-8.6384780">
        <ele>63.3</ele>
        <time>2021-05-23T08:29:16Z</time>
      </trkpt>
      <trkpt lat="42.6883940" lon="-8.6384730">
        <ele>63.3</ele>
        <time>2021-05-23T08:29:17Z</time>
      </trkpt>
      <trkpt lat="42.6883870" lon="-8.6384630">
        <ele>63.3</ele>
        <time>2021-05-23T08:29:18Z</time>
      </trkpt>
      <trkpt lat="42.6883810" lon="-8.6384590">
        <ele>63.2</ele>
        <time>2021-05-23T08:29:19Z</time>
      </trkpt>
      <trkpt lat="42.6883740" lon="-8.6384560">
        <ele>63.2</ele>
        <time>2021-05-23T08:29:20Z</time>
      </trkpt>
      <trkpt lat="42.6883680" lon="-8.6384520">
        <ele>63.2</ele>
        <time>2021-05-23T08:29:21Z</time>
      </trkpt>
      <trkpt lat="42.6883610" lon="-8.6384480">
        <ele>63.2</ele>
        <time>2021-05-23T08:29:22Z</time>
      </trkpt>
      <trkpt lat="42.6883500" lon="-8.6384460">
        <ele>63.1</ele>
        <time>2021-05-23T08:29:23Z</time>
      </trkpt>
      <trkpt lat="42.6883450" lon="-8.6384490">
        <ele>63.1</ele>
        <time>2021-05-23T08:29:24Z</time>
      </trkpt>
      <trkpt lat="42.6883390" lon="-8.6384530">
        <ele>63.1</ele>
        <time>2021-05-23T08:29:25Z</time>
      </trkpt>
      <trkpt lat="42.6883330" lon="-8.6384570">
        <ele>63.1</ele>
        <time>2021-05-23T08:29:26Z</time>
      </trkpt>
      <trkpt lat="42.6883330" lon="-8.6384540">
        <ele>63.1</ele>
        <time>2021-05-23T08:29:27Z</time>
      </trkpt>
      <trkpt lat="42.6883220" lon="-8.6384580">
        <ele>63.0</ele>
        <time>2021-05-23T08:29:28Z</time>
      </trkpt>
      <trkpt lat="42.6883240" lon="-8.6384680">
        <ele>63.0</ele>
        <time>2021-05-23T08:29:29Z</time>
      </trkpt>
      <trkpt lat="42.6883250" lon="-8.6384760">
        <ele>63.0</ele>
        <time>2021-05-23T08:29:30Z</time>
      </trkpt>
      <trkpt lat="42.6883290" lon="-8.6384800">
        <ele>63.0</ele>
        <time>2021-05-23T08:29:31Z</time>
      </trkpt>
      <trkpt lat="42.6883350" lon="-8.6384770">
        <ele>63.0</ele>
        <time>2021-05-23T08:29:32Z</time>
      </trkpt>
      <trkpt lat="42.6883500" lon="-8.6384770">
        <ele>62.9</ele>
        <time>2021-05-23T08:29:33Z</time>
      </trkpt>
      <trkpt lat="42.6883570" lon="-8.6384770">
        <ele>62.9</ele>
        <time>2021-05-23T08:29:34Z</time>
      </trkpt>
      <trkpt lat="42.6883590" lon="-8.6384640">
        <ele>62.8</ele>
        <time>2021-05-23T08:29:35Z</time>
      </trkpt>
      <trkpt lat="42.6883620" lon="-8.6384590">
        <ele>62.8</ele>
        <time>2021-05-23T08:29:36Z</time>
      </trkpt>
      <trkpt lat="42.6883650" lon="-8.6384540">
        <ele>62.8</ele>
        <time>2021-05-23T08:29:37Z</time>
      </trkpt>
      <trkpt lat="42.6883680" lon="-8.6384500">
        <ele>62.8</ele>
        <time>2021-05-23T08:29:38Z</time>
      </trkpt>
      <trkpt lat="42.6883710" lon="-8.6384450">
        <ele>62.8</ele>
        <time>2021-05-23T08:29:39Z</time>
      </trkpt>
      <trkpt lat="42.6883740" lon="-8.6384400">
        <ele>62.7</ele>
        <time>2021-05-23T08:29:40Z</time>
      </trkpt>
      <trkpt lat="42.6883770" lon="-8.6384350">
        <ele>62.7</ele>
        <time>2021-05-23T08:29:41Z</time>
      </trkpt>
      <trkpt lat="42.6883800" lon="-8.6384300">
        <ele>62.7</ele>
        <time>2021-05-23T08:29:42Z</time>
      </trkpt>
      <trkpt lat="42.6884030" lon="-8.6384140">
        <ele>62.6</ele>
        <time>2021-05-23T08:29:43Z</time>
      </trkpt>
      <trkpt lat="42.6884050" lon="-8.6384140">
        <ele>62.6</ele>
        <time>2021-05-23T08:29:44Z</time>
      </trkpt>
      <trkpt lat="42.6884170" lon="-8.6384100">
        <ele>62.5</ele>
        <time>2021-05-23T08:29:45Z</time>
      </trkpt>
      <trkpt lat="42.6884160" lon="-8.6384180">
        <ele>62.5</ele>
        <time>2021-05-23T08:29:46Z</time>
      </trkpt>
      <trkpt lat="42.6884080" lon="-8.6384220">
        <ele>62.5</ele>
        <time>2021-05-23T08:29:47Z</time>
      </trkpt>
      <trkpt lat="42.6883990" lon="-8.6384380">
        <ele>62.4</ele>
        <time>2021-05-23T08:29:48Z</time>
      </trkpt>
      <trkpt lat="42.6883920" lon="-8.6384330">
        <ele>62.4</ele>
        <time>2021-05-23T08:29:49Z</time>
      </trkpt>
      <trkpt lat="42.6883830" lon="-8.6384190">
        <ele>62.3</ele>
        <time>2021-05-23T08:29:50Z</time>
      </trkpt>
      <trkpt lat="42.6883770" lon="-8.6384170">
        <ele>62.3</ele>
        <time>2021-05-23T08:29:51Z</time>
      </trkpt>
      <trkpt lat="42.6883730" lon="-8.6384080">
        <ele>62.3</ele>
        <time>2021-05-23T08:29:52Z</time>
      </trkpt>
      <trkpt lat="42.6883760" lon="-8.6384070">
        <ele>62.3</ele>
        <time>2021-05-23T08:29:53Z</time>
      </trkpt>
      <trkpt lat="42.6883790" lon="-8.6384070">
        <ele>62.2</ele>
        <time>2021-05-23T08:29:54Z</time>
      </trkpt>
      <trkpt lat="42.6883810" lon="-8.6384060">
        <ele>62.2</ele>
        <time>2021-05-23T08:29:55Z</time>
      </trkpt>
      <trkpt lat="42.6883840" lon="-8.6384060">
        <ele>62.2</ele>
        <time>2021-05-23T08:29:56Z</time>
      </trkpt>
      <trkpt lat="42.6883870" lon="-8.6384060">
        <ele>62.2</ele>
        <time>2021-05-23T08:29:57Z</time>
      </trkpt>
      <trkpt lat="42.6883900" lon="-8.6384050">
        <ele>62.2</ele>
        <time>2021-05-23T08:29:58Z</time>
      </trkpt>
      <trkpt lat="42.6883930" lon="-8.6384050">
        <ele>62.2</ele>
        <time>2021-05-23T08:29:59Z</time>
      </trkpt>
      <trkpt lat="42.6883960" lon="-8.6384040">
        <ele>62.2</ele>
        <time>2021-05-23T08:30:00Z</time>
      </trkpt>
      <trkpt lat="42.6883990" lon="-8.6384040">
        <ele>62.2</ele>
        <time>2021-05-23T08:30:01Z</time>
      </trkpt>
      <trkpt lat="42.6884020" lon="-8.6384040">
        <ele>62.2</ele>
        <time>2021-05-23T08:30:02Z</time>
      </trkpt>
      <trkpt lat="42.6884040" lon="-8.6384030">
        <ele>62.1</ele>
        <time>2021-05-23T08:30:03Z</time>
      </trkpt>
      <trkpt lat="42.6884070" lon="-8.6384030">
        <ele>62.1</ele>
        <time>2021-05-23T08:30:04Z</time>
      </trkpt>
      <trkpt lat="42.6884100" lon="-8.6384020">
        <ele>62.1</ele>
        <time>2021-05-23T08:30:05Z</time>
      </trkpt>
      <trkpt lat="42.6884130" lon="-8.6384020">
        <ele>62.1</ele>
        <time>2021-05-23T08:30:06Z</time>
      </trkpt>
      <trkpt lat="42.6884420" lon="-8.6383900">
        <ele>62.0</ele>
        <time>2021-05-23T08:30:07Z</time>
      </trkpt>
      <trkpt lat="42.6884510" lon="-8.6383790">
        <ele>61.9</ele>
        <time>2021-05-23T08:30:08Z</time>
      </trkpt>
      <trkpt lat="42.6884650" lon="-8.6383740">
        <ele>61.9</ele>
        <time>2021-05-23T08:30:09Z</time>
      </trkpt>
      <trkpt lat="42.6884730" lon="-8.6383730">
        <ele>61.8</ele>
        <time>2021-05-23T08:30:10Z</time>
      </trkpt>
      <trkpt lat="42.6884800" lon="-8.6383660">
        <ele>61.8</ele>
        <time>2021-05-23T08:30:11Z</time>
      </trkpt>
      <trkpt lat="42.6884940" lon="-8.6383640">
        <ele>61.8</ele>
        <time>2021-05-23T08:30:12Z</time>
      </trkpt>
      <trkpt lat="42.6885030" lon="-8.6383630">
        <ele>61.7</ele>
        <time>2021-05-23T08:30:13Z</time>
      </trkpt>
      <trkpt lat="42.6885110" lon="-8.6383620">
        <ele>61.7</ele>
        <time>2021-05-23T08:30:14Z</time>
      </trkpt>
      <trkpt lat="42.6885190" lon="-8.6383610">
        <ele>61.7</ele>
        <time>2021-05-23T08:30:15Z</time>
      </trkpt>
      <trkpt lat="42.6885290" lon="-8.6383580">
        <ele>61.6</ele>
        <time>2021-05-23T08:30:16Z</time>
      </trkpt>
      <trkpt lat="42.6885370" lon="-8.6383480">
        <ele>61.6</ele>
        <time>2021-05-23T08:30:17Z</time>
      </trkpt>
      <trkpt lat="42.6885450" lon="-8.6383390">
        <ele>61.6</ele>
        <time>2021-05-23T08:30:18Z</time>
      </trkpt>
      <trkpt lat="42.6885670" lon="-8.6383340">
        <ele>61.5</ele>
        <time>2021-05-23T08:30:19Z</time>
      </trkpt>
      <trkpt lat="42.6885770" lon="-8.6383340">
        <ele>61.5</ele>
        <time>2021-05-23T08:30:20Z</time>
      </trkpt>
      <trkpt lat="42.6885860" lon="-8.6383340">
        <ele>61.4</ele>
        <time>2021-05-23T08:30:21Z</time>
      </trkpt>
      <trkpt lat="42.6886020" lon="-8.6383260">
        <ele>61.4</ele>
        <time>2021-05-23T08:30:22Z</time>
      </trkpt>
      <trkpt lat="42.6886090" lon="-8.6383240">
        <ele>61.3</ele>
        <time>2021-05-23T08:30:23Z</time>
      </trkpt>
      <trkpt lat="42.6886150" lon="-8.6383210">
        <ele>61.3</ele>
        <time>2021-05-23T08:30:24Z</time>
      </trkpt>
      <trkpt lat="42.6886220" lon="-8.6383180">
        <ele>61.3</ele>
        <time>2021-05-23T08:30:25Z</time>
      </trkpt>
      <trkpt lat="42.6886240" lon="-8.6383150">
        <ele>61.3</ele>
        <time>2021-05-23T08:30:26Z</time>
      </trkpt>
      <trkpt lat="42.6886290" lon="-8.6383160">
        <ele>61.3</ele>
        <time>2021-05-23T08:30:27Z</time>
      </trkpt>
      <trkpt lat="42.6886480" lon="-8.6383170">
        <ele>61.2</ele>
        <time>2021-05-23T08:30:28Z</time>
      </trkpt>
      <trkpt lat="42.6886580" lon="-8.6383170">
        <ele>61.2</ele>
        <time>2021-05-23T08:30:29Z</time>
      </trkpt>
      <trkpt lat="42.6886680" lon="-8.6383090">
        <ele>61.1</ele>
        <time>2021-05-23T08:30:30Z</time>
      </trkpt>
      <trkpt lat="42.6886710" lon="-8.6383030">
        <ele>61.1</ele>
        <time>2021-05-23T08:30:31Z</time>
      </trkpt>
      <trkpt lat="42.6886840" lon="-8.6382970">
        <ele>61.0</ele>
        <time>2021-05-23T08:30:32Z</time>
      </trkpt>
      <trkpt lat="42.6886860" lon="-8.6382920">
        <ele>61.0</ele>
        <time>2021-05-23T08:30:33Z</time>
      </trkpt>
      <trkpt lat="42.6887050" lon="-8.6382920">
        <ele>61.0</ele>
        <time>2021-05-23T08:30:34Z</time>
      </trkpt>
      <trkpt lat="42.6887030" lon="-8.6382950">
        <ele>60.9</ele>
        <time>2021-05-23T08:30:35Z</time>
      </trkpt>
      <trkpt lat="42.6887040" lon="-8.6382960">
        <ele>60.9</ele>
        <time>2021-05-23T08:30:36Z</time>
      </trkpt>
      <trkpt lat="42.6887070" lon="-8.6382970">
        <ele>60.9</ele>
        <time>2021-05-23T08:30:37Z</time>
      </trkpt>
      <trkpt lat="42.6887130" lon="-8.6382910">
        <ele>60.9</ele>
        <time>2021-05-23T08:30:38Z</time>
      </trkpt>
      <trkpt lat="42.6887250" lon="-8.6383070">
        <ele>60.8</ele>
        <time>2021-05-23T08:30:39Z</time>
      </trkpt>
      <trkpt lat="42.6887350" lon="-8.6383000">
        <ele>60.7</ele>
        <time>2021-05-23T08:30:40Z</time>
      </trkpt>
      <trkpt lat="42.6887440" lon="-8.6383030">
        <ele>60.7</ele>
        <time>2021-05-23T08:30:41Z</time>
      </trkpt>
      <trkpt lat="42.6887530" lon="-8.6383060">
        <ele>60.7</ele>
        <time>2021-05-23T08:30:42Z</time>
      </trkpt>
      <trkpt lat="42.6887630" lon="-8.6383040">
        <ele>60.6</ele>
        <time>2021-05-23T08:30:43Z</time>
      </trkpt>
      <trkpt lat="42.6887700" lon="-8.6382960">
        <ele>60.5</ele>
        <time>2021-05-23T08:30:44Z</time>
      </trkpt>
      <trkpt lat="42.6887780" lon="-8.6382880">
        <ele>60.5</ele>
        <time>2021-05-23T08:30:45Z</time>
      </trkpt>
      <trkpt lat="42.6887950" lon="-8.6382870">
        <ele>60.4</ele>
        <time>2021-05-23T08:30:46Z</time>
      </trkpt>
      <trkpt lat="42.6887950" lon="-8.6382770">
        <ele>60.3</ele>
        <time>2021-05-23T08:30:47Z</time>
      </trkpt>
      <trkpt lat="42.6887970" lon="-8.6382840">
        <ele>60.3</ele>
        <time>2021-05-23T08:30:49Z</time>
      </trkpt>
      <trkpt lat="42.6888050" lon="-8.6382840">
        <ele>60.3</ele>
        <time>2021-05-23T08:30:50Z</time>
      </trkpt>
      <trkpt lat="42.6888080" lon="-8.6382770">
        <ele>60.2</ele>
        <time>2021-05-23T08:30:51Z</time>
      </trkpt>
      <trkpt lat="42.6888200" lon="-8.6382680">
        <ele>60.1</ele>
        <time>2021-05-23T08:30:52Z</time>
      </trkpt>
      <trkpt lat="42.6888350" lon="-8.6382720">
        <ele>60.0</ele>
        <time>2021-05-23T08:30:53Z</time>
      </trkpt>
      <trkpt lat="42.6888420" lon="-8.6382670">
        <ele>60.0</ele>
        <time>2021-05-23T08:30:54Z</time>
      </trkpt>
      <trkpt lat="42.6888530" lon="-8.6382640">
        <ele>59.9</ele>
        <time>2021-05-23T08:30:55Z</time>
      </trkpt>
      <trkpt lat="42.6888650" lon="-8.6382620">
        <ele>59.8</ele>
        <time>2021-05-23T08:30:56Z</time>
      </trkpt>
      <trkpt lat="42.6888790" lon="-8.6382610">
        <ele>59.7</ele>
        <time>2021-05-23T08:30:57Z</time>
      </trkpt>
      <trkpt lat="42.6888860" lon="-8.6382650">
        <ele>59.6</ele>
        <time>2021-05-23T08:30:58Z</time>
      </trkpt>
      <trkpt lat="42.6888950" lon="-8.6382570">
        <ele>59.5</ele>
        <time>2021-05-23T08:30:59Z</time>
      </trkpt>
      <trkpt lat="42.6889220" lon="-8.6382620">
        <ele>59.3</ele>
        <time>2021-05-23T08:31:00Z</time>
      </trkpt>
      <trkpt lat="42.6889260" lon="-8.6382570">
        <ele>59.2</ele>
        <time>2021-05-23T08:31:01Z</time>
      </trkpt>
      <trkpt lat="42.6889300" lon="-8.6382540">
        <ele>59.2</ele>
        <time>2021-05-23T08:31:02Z</time>
      </trkpt>
      <trkpt lat="42.6889410" lon="-8.6382590">
        <ele>59.1</ele>
        <time>2021-05-23T08:31:03Z</time>
      </trkpt>
      <trkpt lat="42.6889500" lon="-8.6382440">
        <ele>58.9</ele>
        <time>2021-05-23T08:31:04Z</time>
      </trkpt>
      <trkpt lat="42.6889540" lon="-8.6382340">
        <ele>58.8</ele>
        <time>2021-05-23T08:31:05Z</time>
      </trkpt>
      <trkpt lat="42.6889640" lon="-8.6382220">
        <ele>58.7</ele>
        <time>2021-05-23T08:31:06Z</time>
      </trkpt>
      <trkpt lat="42.6889740" lon="-8.6382190">
        <ele>58.6</ele>
        <time>2021-05-23T08:31:07Z</time>
      </trkpt>
      <trkpt lat="42.6889690" lon="-8.6382190">
        <ele>58.6</ele>
        <time>2021-05-23T08:31:08Z</time>
      </trkpt>
      <trkpt lat="42.6889700" lon="-8.6382170">
        <ele>58.5</ele>
        <time>2021-05-23T08:31:09Z</time>
      </trkpt>
      <trkpt lat="42.6889740" lon="-8.6382110">
        <ele>58.5</ele>
        <time>2021-05-23T08:31:10Z</time>
      </trkpt>
      <trkpt lat="42.6889800" lon="-8.6382060">
        <ele>58.4</ele>
        <time>2021-05-23T08:31:11Z</time>
      </trkpt>
      <trkpt lat="42.6889940" lon="-8.6381890">
        <ele>58.2</ele>
        <time>2021-05-23T08:31:12Z</time>
      </trkpt>
      <trkpt lat="42.6889890" lon="-8.6381870">
        <ele>58.2</ele>
        <time>2021-05-23T08:31:13Z</time>
      </trkpt>
      <trkpt lat="42.6889970" lon="-8.6381850">
        <ele>58.1</ele>
        <time>2021-05-23T08:31:14Z</time>
      </trkpt>
      <trkpt lat="42.6890060" lon="-8.6381810">
        <ele>58.0</ele>
        <time>2021-05-23T08:31:15Z</time>
      </trkpt>
      <trkpt lat="42.6890130" lon="-8.6381770">
        <ele>57.9</ele>
        <time>2021-05-23T08:31:16Z</time>
      </trkpt>
      <trkpt lat="42.6890210" lon="-8.6381710">
        <ele>57.8</ele>
        <time>2021-05-23T08:31:17Z</time>
      </trkpt>
      <trkpt lat="42.6890200" lon="-8.6381650">
        <ele>57.8</ele>
        <time>2021-05-23T08:31:18Z</time>
      </trkpt>
      <trkpt lat="42.6890290" lon="-8.6381640">
        <ele>57.7</ele>
        <time>2021-05-23T08:31:19Z</time>
      </trkpt>
      <trkpt lat="42.6890400" lon="-8.6381650">
        <ele>57.6</ele>
        <time>2021-05-23T08:31:20Z</time>
      </trkpt>
      <trkpt lat="42.6890320" lon="-8.6381500">
        <ele>57.4</ele>
        <time>2021-05-23T08:31:21Z</time>
      </trkpt>
      <trkpt lat="42.6890510" lon="-8.6381460">
        <ele>57.2</ele>
        <time>2021-05-23T08:31:22Z</time>
      </trkpt>
      <trkpt lat="42.6890690" lon="-8.6381460">
        <ele>57.0</ele>
        <time>2021-05-23T08:31:23Z</time>
      </trkpt>
      <trkpt lat="42.6890830" lon="-8.6381340">
        <ele>56.8</ele>
        <time>2021-05-23T08:31:24Z</time>
      </trkpt>
      <trkpt lat="42.6890970" lon="-8.6381290">
        <ele>56.7</ele>
        <time>2021-05-23T08:31:25Z</time>
      </trkpt>
      <trkpt lat="42.6890960" lon="-8.6381210">
        <ele>56.6</ele>
        <time>2021-05-23T08:31:26Z</time>
      </trkpt>
      <trkpt lat="42.6890980" lon="-8.6381140">
        <ele>56.6</ele>
        <time>2021-05-23T08:31:27Z</time>
      </trkpt>
      <trkpt lat="42.6891030" lon="-8.6381130">
        <ele>56.5</ele>
        <time>2021-05-23T08:31:28Z</time>
      </trkpt>
      <trkpt lat="42.6891120" lon="-8.6381070">
        <ele>56.4</ele>
        <time>2021-05-23T08:31:29Z</time>
      </trkpt>
      <trkpt lat="42.6891260" lon="-8.6381160">
        <ele>56.2</ele>
        <time>2021-05-23T08:31:30Z</time>
      </trkpt>
      <trkpt lat="42.6891440" lon="-8.6381080">
        <ele>56.0</ele>
        <time>2021-05-23T08:31:31Z</time>
      </trkpt>
      <trkpt lat="42.6891490" lon="-8.6381080">
        <ele>56.0</ele>
        <time>2021-05-23T08:31:32Z</time>
      </trkpt>
      <trkpt lat="42.6891530" lon="-8.6381080">
        <ele>56.0</ele>
        <time>2021-05-23T08:31:33Z</time>
      </trkpt>
      <trkpt lat="42.6891580" lon="-8.6381080">
        <ele>55.9</ele>
        <time>2021-05-23T08:31:34Z</time>
      </trkpt>
      <trkpt lat="42.6891630" lon="-8.6381080">
        <ele>55.8</ele>
        <time>2021-05-23T08:31:35Z</time>
      </trkpt>
      <trkpt lat="42.6891780" lon="-8.6381070">
        <ele>55.7</ele>
        <time>2021-05-23T08:31:36Z</time>
      </trkpt>
      <trkpt lat="42.6891780" lon="-8.6381080">
        <ele>55.7</ele>
        <time>2021-05-23T08:31:37Z</time>
      </trkpt>
      <trkpt lat="42.6891910" lon="-8.6381080">
        <ele>55.6</ele>
        <time>2021-05-23T08:31:38Z</time>
      </trkpt>
      <trkpt lat="42.6892050" lon="-8.6380990">
        <ele>55.4</ele>
        <time>2021-05-23T08:31:39Z</time>
      </trkpt>
      <trkpt lat="42.6892110" lon="-8.6380880">
        <ele>55.3</ele>
        <time>2021-05-23T08:31:40Z</time>
      </trkpt>
      <trkpt lat="42.6892220" lon="-8.6380870">
        <ele>55.2</ele>
        <time>2021-05-23T08:31:41Z</time>
      </trkpt>
      <trkpt lat="42.6892220" lon="-8.6380980">
        <ele>55.1</ele>
        <time>2021-05-23T08:31:42Z</time>
      </trkpt>
      <trkpt lat="42.6892430" lon="-8.6381030">
        <ele>54.9</ele>
        <time>2021-05-23T08:31:43Z</time>
      </trkpt>
      <trkpt lat="42.6892430" lon="-8.6380990">
        <ele>54.9</ele>
        <time>2021-05-23T08:31:44Z</time>
      </trkpt>
      <trkpt lat="42.6892510" lon="-8.6381010">
        <ele>54.8</ele>
        <time>2021-05-23T08:31:45Z</time>
      </trkpt>
      <trkpt lat="42.6892670" lon="-8.6381000">
        <ele>54.6</ele>
        <time>2021-05-23T08:31:46Z</time>
      </trkpt>
      <trkpt lat="42.6892820" lon="-8.6380810">
        <ele>54.4</ele>
        <time>2021-05-23T08:31:47Z</time>
      </trkpt>
      <trkpt lat="42.6892950" lon="-8.6380790">
        <ele>54.3</ele>
        <time>2021-05-23T08:31:48Z</time>
      </trkpt>
      <trkpt lat="42.6893020" lon="-8.6380820">
        <ele>54.3</ele>
        <time>2021-05-23T08:31:49Z</time>
      </trkpt>
      <trkpt lat="42.6893100" lon="-8.6380860">
        <ele>54.2</ele>
        <time>2021-05-23T08:31:50Z</time>
      </trkpt>
      <trkpt lat="42.6893200" lon="-8.6380870">
        <ele>54.1</ele>
        <time>2021-05-23T08:31:51Z</time>
      </trkpt>
      <trkpt lat="42.6893310" lon="-8.6380820">
        <ele>54.0</ele>
        <time>2021-05-23T08:31:52Z</time>
      </trkpt>
      <trkpt lat="42.6893420" lon="-8.6380790">
        <ele>53.9</ele>
        <time>2021-05-23T08:31:53Z</time>
      </trkpt>
      <trkpt lat="42.6893510" lon="-8.6380860">
        <ele>53.8</ele>
        <time>2021-05-23T08:31:54Z</time>
      </trkpt>
      <trkpt lat="42.6893670" lon="-8.6380890">
        <ele>53.7</ele>
        <time>2021-05-23T08:31:55Z</time>
      </trkpt>
      <trkpt lat="42.6893730" lon="-8.6380990">
        <ele>53.6</ele>
        <time>2021-05-23T08:31:56Z</time>
      </trkpt>
      <trkpt lat="42.6893880" lon="-8.6381160">
        <ele>53.4</ele>
        <time>2021-05-23T08:31:57Z</time>
      </trkpt>
      <trkpt lat="42.6893850" lon="-8.6381260">
        <ele>53.4</ele>
        <time>2021-05-23T08:31:58Z</time>
      </trkpt>
      <trkpt lat="42.6893910" lon="-8.6381330">
        <ele>53.3</ele>
        <time>2021-05-23T08:31:59Z</time>
      </trkpt>
      <trkpt lat="42.6894040" lon="-8.6381430">
        <ele>53.2</ele>
        <time>2021-05-23T08:32:00Z</time>
      </trkpt>
      <trkpt lat="42.6894120" lon="-8.6381490">
        <ele>53.1</ele>
        <time>2021-05-23T08:32:01Z</time>
      </trkpt>
      <trkpt lat="42.6894190" lon="-8.6381560">
        <ele>53.1</ele>
        <time>2021-05-23T08:32:02Z</time>
      </trkpt>
      <trkpt lat="42.6894270" lon="-8.6381620">
        <ele>53.0</ele>
        <time>2021-05-23T08:32:03Z</time>
      </trkpt>
      <trkpt lat="42.6894450" lon="-8.6381660">
        <ele>52.9</ele>
        <time>2021-05-23T08:32:04Z</time>
      </trkpt>
      <trkpt lat="42.6894490" lon="-8.6381680">
        <ele>52.8</ele>
        <time>2021-05-23T08:32:05Z</time>
      </trkpt>
      <trkpt lat="42.6894540" lon="-8.6381710">
        <ele>52.8</ele>
        <time>2021-05-23T08:32:06Z</time>
      </trkpt>
      <trkpt lat="42.6894580" lon="-8.6381730">
        <ele>52.8</ele>
        <time>2021-05-23T08:32:07Z</time>
      </trkpt>
      <trkpt lat="42.6894630" lon="-8.6381760">
        <ele>52.7</ele>
        <time>2021-05-23T08:32:08Z</time>
      </trkpt>
      <trkpt lat="42.6894870" lon="-8.6381890">
        <ele>52.6</ele>
        <time>2021-05-23T08:32:09Z</time>
      </trkpt>
      <trkpt lat="42.6894930" lon="-8.6381950">
        <ele>52.5</ele>
        <time>2021-05-23T08:32:10Z</time>
      </trkpt>
      <trkpt lat="42.6895000" lon="-8.6382000">
        <ele>52.5</ele>
        <time>2021-05-23T08:32:11Z</time>
      </trkpt>
      <trkpt lat="42.6895130" lon="-8.6382080">
        <ele>52.4</ele>
        <time>2021-05-23T08:32:12Z</time>
      </trkpt>
      <trkpt lat="42.6895320" lon="-8.6382100">
        <ele>52.3</ele>
        <time>2021-05-23T08:32:13Z</time>
      </trkpt>
      <trkpt lat="42.6895590" lon="-8.6382320">
        <ele>52.1</ele>
        <time>2021-05-23T08:32:14Z</time>
      </trkpt>
      <trkpt lat="42.6895650" lon="-8.6382390">
        <ele>52.1</ele>
        <time>2021-05-23T08:32:15Z</time>
      </trkpt>
      <trkpt lat="42.6895610" lon="-8.6382270">
        <ele>52.1</ele>
        <time>2021-05-23T08:32:16Z</time>
      </trkpt>
      <trkpt lat="42.6895720" lon="-8.6382290">
        <ele>52.0</ele>
        <time>2021-05-23T08:32:17Z</time>
      </trkpt>
      <trkpt lat="42.6895870" lon="-8.6382480">
        <ele>51.9</ele>
        <time>2021-05-23T08:32:18Z</time>
      </trkpt>
      <trkpt lat="42.6895870" lon="-8.6382550">
        <ele>51.8</ele>
        <time>2021-05-23T08:32:19Z</time>
      </trkpt>
      <trkpt lat="42.6895910" lon="-8.6382620">
        <ele>51.8</ele>
        <time>2021-05-23T08:32:20Z</time>
      </trkpt>
      <trkpt lat="42.6896070" lon="-8.6382790">
        <ele>51.7</ele>
        <time>2021-05-23T08:32:21Z</time>
      </trkpt>
      <trkpt lat="42.6896150" lon="-8.6382860">
        <ele>51.7</ele>
        <time>2021-05-23T08:32:22Z</time>
      </trkpt>
      <trkpt lat="42.6896240" lon="-8.6382930">
        <ele>51.6</ele>
        <time>2021-05-23T08:32:23Z</time>
      </trkpt>
      <trkpt lat="42.6896370" lon="-8.6383000">
        <ele>51.5</ele>
        <time>2021-05-23T08:32:24Z</time>
      </trkpt>
      <trkpt lat="42.6896500" lon="-8.6383120">
        <ele>51.4</ele>
        <time>2021-05-23T08:32:25Z</time>
      </trkpt>
      <trkpt lat="42.6896500" lon="-8.6383190">
        <ele>51.4</ele>
        <time>2021-05-23T08:32:26Z</time>
      </trkpt>
      <trkpt lat="42.6896510" lon="-8.6383190">
        <ele>51.4</ele>
        <time>2021-05-23T08:32:27Z</time>
      </trkpt>
      <trkpt lat="42.6896520" lon="-8.6383150">
        <ele>51.4</ele>
        <time>2021-05-23T08:32:28Z</time>
      </trkpt>
      <trkpt lat="42.6896590" lon="-8.6383110">
        <ele>51.3</ele>
        <time>2021-05-23T08:32:29Z</time>
      </trkpt>
      <trkpt lat="42.6896650" lon="-8.6383090">
        <ele>51.3</ele>
        <time>2021-05-23T08:32:30Z</time>
      </trkpt>
      <trkpt lat="42.6896650" lon="-8.6383040">
        <ele>51.3</ele>
        <time>2021-05-23T08:32:31Z</time>
      </trkpt>
      <trkpt lat="42.6896780" lon="-8.6383130">
        <ele>51.2</ele>
        <time>2021-05-23T08:32:32Z</time>
      </trkpt>
      <trkpt lat="42.6896840" lon="-8.6383130">
        <ele>51.2</ele>
        <time>2021-05-23T08:32:33Z</time>
      </trkpt>
      <trkpt lat="42.6896770" lon="-8.6383180">
        <ele>51.1</ele>
        <time>2021-05-23T08:32:34Z</time>
      </trkpt>
      <trkpt lat="42.6896780" lon="-8.6383320">
        <ele>51.1</ele>
        <time>2021-05-23T08:32:35Z</time>
      </trkpt>
      <trkpt lat="42.6896890" lon="-8.6383400">
        <ele>51.0</ele>
        <time>2021-05-23T08:32:36Z</time>
      </trkpt>
      <trkpt lat="42.6897020" lon="-8.6383380">
        <ele>50.9</ele>
        <time>2021-05-23T08:32:37Z</time>
      </trkpt>
      <trkpt lat="42.6896920" lon="-8.6383330">
        <ele>50.8</ele>
        <time>2021-05-23T08:32:38Z</time>
      </trkpt>
      <trkpt lat="42.6896850" lon="-8.6383340">
        <ele>50.8</ele>
        <time>2021-05-23T08:32:39Z</time>
      </trkpt>
      <trkpt lat="42.6896890" lon="-8.6383380">
        <ele>50.8</ele>
        <time>2021-05-23T08:32:40Z</time>
      </trkpt>
      <trkpt lat="42.6896990" lon="-8.6383430">
        <ele>50.7</ele>
        <time>2021-05-23T08:32:41Z</time>
      </trkpt>
      <trkpt lat="42.6897110" lon="-8.6383570">
        <ele>50.6</ele>
        <time>2021-05-23T08:32:42Z</time>
      </trkpt>
      <trkpt lat="42.6897130" lon="-8.6383580">
        <ele>50.6</ele>
        <time>2021-05-23T08:32:43Z</time>
      </trkpt>
      <trkpt lat="42.6897300" lon="-8.6383620">
        <ele>50.5</ele>
        <time>2021-05-23T08:32:44Z</time>
      </trkpt>
      <trkpt lat="42.6897440" lon="-8.6383670">
        <ele>50.4</ele>
        <time>2021-05-23T08:32:45Z</time>
      </trkpt>
      <trkpt lat="42.6897520" lon="-8.6383700">
        <ele>50.3</ele>
        <time>2021-05-23T08:32:46Z</time>
      </trkpt>
      <trkpt lat="42.6897600" lon="-8.6383730">
        <ele>50.3</ele>
        <time>2021-05-23T08:32:47Z</time>
      </trkpt>
      <trkpt lat="42.6897680" lon="-8.6383760">
        <ele>50.2</ele>
        <time>2021-05-23T08:32:48Z</time>
      </trkpt>
      <trkpt lat="42.6897890" lon="-8.6383810">
        <ele>50.1</ele>
        <time>2021-05-23T08:32:49Z</time>
      </trkpt>
      <trkpt lat="42.6898070" lon="-8.6383840">
        <ele>50.0</ele>
        <time>2021-05-23T08:32:50Z</time>
      </trkpt>
      <trkpt lat="42.6898290" lon="-8.6383910">
        <ele>49.8</ele>
        <time>2021-05-23T08:32:51Z</time>
      </trkpt>
      <trkpt lat="42.6898400" lon="-8.6383900">
        <ele>49.8</ele>
        <time>2021-05-23T08:32:52Z</time>
      </trkpt>
      <trkpt lat="42.6898500" lon="-8.6383900">
        <ele>49.7</ele>
        <time>2021-05-23T08:32:53Z</time>
      </trkpt>
      <trkpt lat="42.6898580" lon="-8.6383950">
        <ele>49.6</ele>
        <time>2021-05-23T08:32:54Z</time>
      </trkpt>
      <trkpt lat="42.6898690" lon="-8.6383940">
        <ele>49.6</ele>
        <time>2021-05-23T08:32:55Z</time>
      </trkpt>
      <trkpt lat="42.6898760" lon="-8.6383940">
        <ele>49.5</ele>
        <time>2021-05-23T08:32:56Z</time>
      </trkpt>
      <trkpt lat="42.6898820" lon="-8.6383960">
        <ele>49.5</ele>
        <time>2021-05-23T08:32:57Z</time>
      </trkpt>
      <trkpt lat="42.6898910" lon="-8.6383950">
        <ele>49.4</ele>
        <time>2021-05-23T08:32:58Z</time>
      </trkpt>
      <trkpt lat="42.6899050" lon="-8.6384020">
        <ele>49.3</ele>
        <time>2021-05-23T08:32:59Z</time>
      </trkpt>
      <trkpt lat="42.6899020" lon="-8.6384030">
        <ele>49.3</ele>
        <time>2021-05-23T08:33:00Z</time>
      </trkpt>
      <trkpt lat="42.6899080" lon="-8.6384150">
        <ele>49.3</ele>
        <time>2021-05-23T08:33:01Z</time>
      </trkpt>
      <trkpt lat="42.6899200" lon="-8.6384180">
        <ele>49.2</ele>
        <time>2021-05-23T08:33:02Z</time>
      </trkpt>
      <trkpt lat="42.6899260" lon="-8.6384200">
        <ele>49.1</ele>
        <time>2021-05-23T08:33:03Z</time>
      </trkpt>
      <trkpt lat="42.6899330" lon="-8.6384210">
        <ele>49.1</ele>
        <time>2021-05-23T08:33:04Z</time>
      </trkpt>
      <trkpt lat="42.6899390" lon="-8.6384230">
        <ele>49.1</ele>
        <time>2021-05-23T08:33:05Z</time>
      </trkpt>
      <trkpt lat="42.6899450" lon="-8.6384240">
        <ele>49.0</ele>
        <time>2021-05-23T08:33:06Z</time>
      </trkpt>
      <trkpt lat="42.6899510" lon="-8.6384260">
        <ele>49.0</ele>
        <time>2021-05-23T08:33:07Z</time>
      </trkpt>
      <trkpt lat="42.6899760" lon="-8.6384350">
        <ele>48.8</ele>
        <time>2021-05-23T08:33:08Z</time>
      </trkpt>
      <trkpt lat="42.6899800" lon="-8.6384320">
        <ele>48.8</ele>
        <time>2021-05-23T08:33:09Z</time>
      </trkpt>
      <trkpt lat="42.6899810" lon="-8.6384380">
        <ele>48.8</ele>
        <time>2021-05-23T08:33:10Z</time>
      </trkpt>
      <trkpt lat="42.6899880" lon="-8.6384350">
        <ele>48.7</ele>
        <time>2021-05-23T08:33:11Z</time>
      </trkpt>
      <trkpt lat="42.6899940" lon="-8.6384380">
        <ele>48.7</ele>
        <time>2021-05-23T08:33:12Z</time>
      </trkpt>
      <trkpt lat="42.6900140" lon="-8.6384390">
        <ele>48.5</ele>
        <time>2021-05-23T08:33:13Z</time>
      </trkpt>
      <trkpt lat="42.6900200" lon="-8.6384520">
        <ele>48.5</ele>
        <time>2021-05-23T08:33:14Z</time>
      </trkpt>
      <trkpt lat="42.6900260" lon="-8.6384610">
        <ele>48.4</ele>
        <time>2021-05-23T08:33:15Z</time>
      </trkpt>
      <trkpt lat="42.6900280" lon="-8.6384590">
        <ele>48.4</ele>
        <time>2021-05-23T08:33:16Z</time>
      </trkpt>
      <trkpt lat="42.6900360" lon="-8.6384630">
        <ele>48.4</ele>
        <time>2021-05-23T08:33:17Z</time>
      </trkpt>
      <trkpt lat="42.6900540" lon="-8.6384600">
        <ele>48.2</ele>
        <time>2021-05-23T08:33:18Z</time>
      </trkpt>
      <trkpt lat="42.6900680" lon="-8.6384570">
        <ele>48.2</ele>
        <time>2021-05-23T08:33:19Z</time>
      </trkpt>
      <trkpt lat="42.6900810" lon="-8.6384590">
        <ele>48.1</ele>
        <time>2021-05-23T08:33:20Z</time>
      </trkpt>
      <trkpt lat="42.6900860" lon="-8.6384680">
        <ele>48.0</ele>
        <time>2021-05-23T08:33:21Z</time>
      </trkpt>
      <trkpt lat="42.6901010" lon="-8.6384710">
        <ele>48.0</ele>
        <time>2021-05-23T08:33:22Z</time>
      </trkpt>
      <trkpt lat="42.6901210" lon="-8.6384860">
        <ele>47.8</ele>
        <time>2021-05-23T08:33:23Z</time>
      </trkpt>
      <trkpt lat="42.6901300" lon="-8.6384930">
        <ele>47.8</ele>
        <time>2021-05-23T08:33:24Z</time>
      </trkpt>
      <trkpt lat="42.6901380" lon="-8.6385000">
        <ele>47.7</ele>
        <time>2021-05-23T08:33:25Z</time>
      </trkpt>
      <trkpt lat="42.6901640" lon="-8.6385070">
        <ele>47.6</ele>
        <time>2021-05-23T08:33:26Z</time>
      </trkpt>
      <trkpt lat="42.6901750" lon="-8.6385110">
        <ele>47.6</ele>
        <time>2021-05-23T08:33:27Z</time>
      </trkpt>
      <trkpt lat="42.6901920" lon="-8.6385240">
        <ele>47.5</ele>
        <time>2021-05-23T08:33:28Z</time>
      </trkpt>
      <trkpt lat="42.6902070" lon="-8.6385290">
        <ele>47.4</ele>
        <time>2021-05-23T08:33:29Z</time>
      </trkpt>
      <trkpt lat="42.6902330" lon="-8.6385400">
        <ele>47.3</ele>
        <time>2021-05-23T08:33:30Z</time>
      </trkpt>
      <trkpt lat="42.6902390" lon="-8.6385440">
        <ele>47.3</ele>
        <time>2021-05-23T08:33:31Z</time>
      </trkpt>
      <trkpt lat="42.6902460" lon="-8.6385470">
        <ele>47.3</ele>
        <time>2021-05-23T08:33:32Z</time>
      </trkpt>
      <trkpt lat="42.6902560" lon="-8.6385550">
        <ele>47.2</ele>
        <time>2021-05-23T08:33:33Z</time>
      </trkpt>
      <trkpt lat="42.6902600" lon="-8.6385560">
        <ele>47.2</ele>
        <time>2021-05-23T08:33:34Z</time>
      </trkpt>
      <trkpt lat="42.6902770" lon="-8.6385640">
        <ele>47.2</ele>
        <time>2021-05-23T08:33:35Z</time>
      </trkpt>
      <trkpt lat="42.6902850" lon="-8.6385720">
        <ele>47.2</ele>
        <time>2021-05-23T08:33:36Z</time>
      </trkpt>
      <trkpt lat="42.6902970" lon="-8.6385880">
        <ele>47.1</ele>
        <time>2021-05-23T08:33:37Z</time>
      </trkpt>
      <trkpt lat="42.6903010" lon="-8.6385940">
        <ele>47.1</ele>
        <time>2021-05-23T08:33:38Z</time>
      </trkpt>
      <trkpt lat="42.6903060" lon="-8.6386050">
        <ele>47.1</ele>
        <time>2021-05-23T08:33:39Z</time>
      </trkpt>
      <trkpt lat="42.6903180" lon="-8.6386190">
        <ele>47.1</ele>
        <time>2021-05-23T08:33:40Z</time>
      </trkpt>
      <trkpt lat="42.6903230" lon="-8.6386250">
        <ele>47.1</ele>
        <time>2021-05-23T08:33:41Z</time>
      </trkpt>
      <trkpt lat="42.6903250" lon="-8.6386310">
        <ele>47.0</ele>
        <time>2021-05-23T08:33:42Z</time>
      </trkpt>
      <trkpt lat="42.6903350" lon="-8.6386420">
        <ele>47.0</ele>
        <time>2021-05-23T08:33:43Z</time>
      </trkpt>
      <trkpt lat="42.6903460" lon="-8.6386560">
        <ele>47.0</ele>
        <time>2021-05-23T08:33:44Z</time>
      </trkpt>
      <trkpt lat="42.6903470" lon="-8.6386670">
        <ele>47.0</ele>
        <time>2021-05-23T08:33:45Z</time>
      </trkpt>
      <trkpt lat="42.6903560" lon="-8.6386790">
        <ele>47.0</ele>
        <time>2021-05-23T08:33:46Z</time>
      </trkpt>
      <trkpt lat="42.6903680" lon="-8.6386900">
        <ele>47.0</ele>
        <time>2021-05-23T08:33:47Z</time>
      </trkpt>
      <trkpt lat="42.6903680" lon="-8.6387080">
        <ele>47.0</ele>
        <time>2021-05-23T08:33:48Z</time>
      </trkpt>
      <trkpt lat="42.6903780" lon="-8.6387200">
        <ele>46.9</ele>
        <time>2021-05-23T08:33:49Z</time>
      </trkpt>
      <trkpt lat="42.6903800" lon="-8.6387290">
        <ele>46.9</ele>
        <time>2021-05-23T08:33:50Z</time>
      </trkpt>
      <trkpt lat="42.6903960" lon="-8.6387470">
        <ele>46.9</ele>
        <time>2021-05-23T08:33:51Z</time>
      </trkpt>
      <trkpt lat="42.6904060" lon="-8.6387540">
        <ele>46.9</ele>
        <time>2021-05-23T08:33:52Z</time>
      </trkpt>
      <trkpt lat="42.6904170" lon="-8.6387610">
        <ele>46.9</ele>
        <time>2021-05-23T08:33:53Z</time>
      </trkpt>
      <trkpt lat="42.6904500" lon="-8.6387630">
        <ele>46.8</ele>
        <time>2021-05-23T08:33:54Z</time>
      </trkpt>
      <trkpt lat="42.6904610" lon="-8.6387650">
        <ele>46.8</ele>
        <time>2021-05-23T08:33:55Z</time>
      </trkpt>
      <trkpt lat="42.6904760" lon="-8.6387580">
        <ele>46.8</ele>
        <time>2021-05-23T08:33:56Z</time>
      </trkpt>
      <trkpt lat="42.6904850" lon="-8.6387550">
        <ele>46.8</ele>
        <time>2021-05-23T08:33:57Z</time>
      </trkpt>
      <trkpt lat="42.6904930" lon="-8.6387530">
        <ele>46.8</ele>
        <time>2021-05-23T08:33:58Z</time>
      </trkpt>
      <trkpt lat="42.6905010" lon="-8.6387500">
        <ele>46.7</ele>
        <time>2021-05-23T08:33:59Z</time>
      </trkpt>
      <trkpt lat="42.6905120" lon="-8.6387450">
        <ele>46.7</ele>
        <time>2021-05-23T08:34:00Z</time>
      </trkpt>
      <trkpt lat="42.6905160" lon="-8.6387410">
        <ele>46.7</ele>
        <time>2021-05-23T08:34:01Z</time>
      </trkpt>
      <trkpt lat="42.6905270" lon="-8.6387300">
        <ele>46.6</ele>
        <time>2021-05-23T08:34:02Z</time>
      </trkpt>
      <trkpt lat="42.6905370" lon="-8.6387210">
        <ele>46.6</ele>
        <time>2021-05-23T08:34:03Z</time>
      </trkpt>
      <trkpt lat="42.6905460" lon="-8.6387160">
        <ele>46.6</ele>
        <time>2021-05-23T08:34:04Z</time>
      </trkpt>
      <trkpt lat="42.6905520" lon="-8.6387260">
        <ele>46.6</ele>
        <time>2021-05-23T08:34:05Z</time>
      </trkpt>
      <trkpt lat="42.6905590" lon="-8.6387320">
        <ele>46.6</ele>
        <time>2021-05-23T08:34:06Z</time>
      </trkpt>
      <trkpt lat="42.6905610" lon="-8.6387420">
        <ele>46.6</ele>
        <time>2021-05-23T08:34:07Z</time>
      </trkpt>
      <trkpt lat="42.6905460" lon="-8.6387410">
        <ele>46.5</ele>
        <time>2021-05-23T08:34:08Z</time>
      </trkpt>
      <trkpt lat="42.6905500" lon="-8.6387490">
        <ele>46.5</ele>
        <time>2021-05-23T08:34:09Z</time>
      </trkpt>
      <trkpt lat="42.6905470" lon="-8.6387490">
        <ele>46.5</ele>
        <time>2021-05-23T08:34:10Z</time>
      </trkpt>
      <trkpt lat="42.6905450" lon="-8.6387500">
        <ele>46.5</ele>
        <time>2021-05-23T08:34:11Z</time>
      </trkpt>
      <trkpt lat="42.6905500" lon="-8.6387550">
        <ele>46.5</ele>
        <time>2021-05-23T08:34:12Z</time>
      </trkpt>
      <trkpt lat="42.6905550" lon="-8.6387560">
        <ele>46.5</ele>
        <time>2021-05-23T08:34:13Z</time>
      </trkpt>
      <trkpt lat="42.6905530" lon="-8.6387580">
        <ele>46.5</ele>
        <time>2021-05-23T08:34:14Z</time>
      </trkpt>
      <trkpt lat="42.6905540" lon="-8.6387580">
        <ele>46.5</ele>
        <time>2021-05-23T08:34:15Z</time>
      </trkpt>
      <trkpt lat="42.6905530" lon="-8.6387550">
        <ele>46.5</ele>
        <time>2021-05-23T08:34:16Z</time>
      </trkpt>
      <trkpt lat="42.6905520" lon="-8.6387530">
        <ele>46.5</ele>
        <time>2021-05-23T08:34:17Z</time>
      </trkpt>
      <trkpt lat="42.6905560" lon="-8.6387560">
        <ele>46.5</ele>
        <time>2021-05-23T08:34:18Z</time>
      </trkpt>
      <trkpt lat="42.6905570" lon="-8.6387570">
        <ele>46.5</ele>
        <time>2021-05-23T08:34:19Z</time>
      </trkpt>
      <trkpt lat="42.6905590" lon="-8.6387500">
        <ele>46.4</ele>
        <time>2021-05-23T08:34:20Z</time>
      </trkpt>
      <trkpt lat="42.6905630" lon="-8.6387470">
        <ele>46.4</ele>
        <time>2021-05-23T08:34:21Z</time>
      </trkpt>
      <trkpt lat="42.6905720" lon="-8.6387230">
        <ele>46.4</ele>
        <time>2021-05-23T08:34:22Z</time>
      </trkpt>
      <trkpt lat="42.6905670" lon="-8.6387130">
        <ele>46.4</ele>
        <time>2021-05-23T08:34:23Z</time>
      </trkpt>
      <trkpt lat="42.6905630" lon="-8.6387010">
        <ele>46.3</ele>
        <time>2021-05-23T08:34:24Z</time>
      </trkpt>
      <trkpt lat="42.6905600" lon="-8.6386950">
        <ele>46.3</ele>
        <time>2021-05-23T08:34:25Z</time>
      </trkpt>
      <trkpt lat="42.6905600" lon="-8.6386940">
        <ele>46.3</ele>
        <time>2021-05-23T08:34:26Z</time>
      </trkpt>
      <trkpt lat="42.6905620" lon="-8.6386850">
        <ele>46.3</ele>
        <time>2021-05-23T08:34:27Z</time>
      </trkpt>
      <trkpt lat="42.6905460" lon="-8.6386670">
        <ele>46.3</ele>
        <time>2021-05-23T08:34:28Z</time>
      </trkpt>
      <trkpt lat="42.6905500" lon="-8.6386650">
        <ele>46.3</ele>
        <time>2021-05-23T08:34:29Z</time>
      </trkpt>
      <trkpt lat="42.6905510" lon="-8.6386620">
        <ele>46.3</ele>
        <time>2021-05-23T08:34:30Z</time>
      </trkpt>
      <trkpt lat="42.6905540" lon="-8.6386600">
        <ele>46.3</ele>
        <time>2021-05-23T08:34:31Z</time>
      </trkpt>
      <trkpt lat="42.6905560" lon="-8.6386540">
        <ele>46.2</ele>
        <time>2021-05-23T08:34:32Z</time>
      </trkpt>
      <trkpt lat="42.6905590" lon="-8.6386430">
        <ele>46.2</ele>
        <time>2021-05-23T08:34:33Z</time>
      </trkpt>
      <trkpt lat="42.6905620" lon="-8.6386350">
        <ele>46.2</ele>
        <time>2021-05-23T08:34:34Z</time>
      </trkpt>
      <trkpt lat="42.6905720" lon="-8.6386160">
        <ele>46.2</ele>
        <time>2021-05-23T08:34:35Z</time>
      </trkpt>
      <trkpt lat="42.6905660" lon="-8.6386120">
        <ele>46.2</ele>
        <time>2021-05-23T08:34:36Z</time>
      </trkpt>
      <trkpt lat="42.6905590" lon="-8.6385990">
        <ele>46.1</ele>
        <time>2021-05-23T08:34:37Z</time>
      </trkpt>
      <trkpt lat="42.6905620" lon="-8.6386130">
        <ele>46.1</ele>
        <time>2021-05-23T08:34:38Z</time>
      </trkpt>
      <trkpt lat="42.6905620" lon="-8.6386180">
        <ele>46.1</ele>
        <time>2021-05-23T08:34:39Z</time>
      </trkpt>
      <trkpt lat="42.6905640" lon="-8.6386260">
        <ele>46.1</ele>
        <time>2021-05-23T08:34:40Z</time>
      </trkpt>
      <trkpt lat="42.6905630" lon="-8.6386230">
        <ele>46.1</ele>
        <time>2021-05-23T08:34:41Z</time>
      </trkpt>
      <trkpt lat="42.6905600" lon="-8.6386310">
        <ele>46.1</ele>
        <time>2021-05-23T08:34:42Z</time>
      </trkpt>
      <trkpt lat="42.6905590" lon="-8.6386300">
        <ele>46.1</ele>
        <time>2021-05-23T08:34:43Z</time>
      </trkpt>
      <trkpt lat="42.6905620" lon="-8.6386250">
        <ele>46.1</ele>
        <time>2021-05-23T08:34:44Z</time>
      </trkpt>
      <trkpt lat="42.6905660" lon="-8.6386170">
        <ele>46.1</ele>
        <time>2021-05-23T08:34:45Z</time>
      </trkpt>
      <trkpt lat="42.6905690" lon="-8.6386100">
        <ele>46.0</ele>
        <time>2021-05-23T08:34:46Z</time>
      </trkpt>
      <trkpt lat="42.6905710" lon="-8.6386170">
        <ele>46.0</ele>
        <time>2021-05-23T08:34:47Z</time>
      </trkpt>
      <trkpt lat="42.6905710" lon="-8.6386200">
        <ele>46.0</ele>
        <time>2021-05-23T08:34:48Z</time>
      </trkpt>
      <trkpt lat="42.6905640" lon="-8.6386150">
        <ele>46.0</ele>
        <time>2021-05-23T08:34:49Z</time>
      </trkpt>
      <trkpt lat="42.6905610" lon="-8.6386100">
        <ele>46.0</ele>
        <time>2021-05-23T08:34:50Z</time>
      </trkpt>
      <trkpt lat="42.6905670" lon="-8.6386030">
        <ele>46.0</ele>
        <time>2021-05-23T08:34:51Z</time>
      </trkpt>
      <trkpt lat="42.6905710" lon="-8.6385910">
        <ele>46.0</ele>
        <time>2021-05-23T08:34:52Z</time>
      </trkpt>
      <trkpt lat="42.6905780" lon="-8.6385750">
        <ele>46.0</ele>
        <time>2021-05-23T08:34:53Z</time>
      </trkpt>
      <trkpt lat="42.6905760" lon="-8.6385640">
        <ele>46.0</ele>
        <time>2021-05-23T08:34:54Z</time>
      </trkpt>
      <trkpt lat="42.6905790" lon="-8.6385400">
        <ele>45.9</ele>
        <time>2021-05-23T08:34:55Z</time>
      </trkpt>
      <trkpt lat="42.6905790" lon="-8.6385320">
        <ele>45.9</ele>
        <time>2021-05-23T08:34:56Z</time>
      </trkpt>
      <trkpt lat="42.6905780" lon="-8.6385270">
        <ele>45.9</ele>
        <time>2021-05-23T08:34:57Z</time>
      </trkpt>
      <trkpt lat="42.6905850" lon="-8.6385150">
        <ele>45.9</ele>
        <time>2021-05-23T08:34:58Z</time>
      </trkpt>
      <trkpt lat="42.6905870" lon="-8.6384960">
        <ele>45.9</ele>
        <time>2021-05-23T08:34:59Z</time>
      </trkpt>
      <trkpt lat="42.6905950" lon="-8.6384720">
        <ele>45.9</ele>
        <time>2021-05-23T08:35:00Z</time>
      </trkpt>
      <trkpt lat="42.6906010" lon="-8.6384650">
        <ele>45.9</ele>
        <time>2021-05-23T08:35:01Z</time>
      </trkpt>
      <trkpt lat="42.6906060" lon="-8.6384580">
        <ele>45.9</ele>
        <time>2021-05-23T08:35:02Z</time>
      </trkpt>
      <trkpt lat="42.6906120" lon="-8.6384510">
        <ele>45.9</ele>
        <time>2021-05-23T08:35:03Z</time>
      </trkpt>
      <trkpt lat="42.6906160" lon="-8.6384220">
        <ele>45.9</ele>
        <time>2021-05-23T08:35:04Z</time>
      </trkpt>
      <trkpt lat="42.6906190" lon="-8.6384130">
        <ele>45.9</ele>
        <time>2021-05-23T08:35:05Z</time>
      </trkpt>
      <trkpt lat="42.6906220" lon="-8.6384040">
        <ele>45.9</ele>
        <time>2021-05-23T08:35:06Z</time>
      </trkpt>
      <trkpt lat="42.6906220" lon="-8.6383960">
        <ele>45.9</ele>
        <time>2021-05-23T08:35:07Z</time>
      </trkpt>
      <trkpt lat="42.6906280" lon="-8.6383730">
        <ele>45.9</ele>
        <time>2021-05-23T08:35:08Z</time>
      </trkpt>
      <trkpt lat="42.6906280" lon="-8.6383660">
        <ele>45.9</ele>
        <time>2021-05-23T08:35:09Z</time>
      </trkpt>
      <trkpt lat="42.6906390" lon="-8.6383430">
        <ele>45.9</ele>
        <time>2021-05-23T08:35:10Z</time>
      </trkpt>
      <trkpt lat="42.6906420" lon="-8.6383320">
        <ele>45.9</ele>
        <time>2021-05-23T08:35:11Z</time>
      </trkpt>
      <trkpt lat="42.6906450" lon="-8.6383210">
        <ele>45.9</ele>
        <time>2021-05-23T08:35:12Z</time>
      </trkpt>
      <trkpt lat="42.6906540" lon="-8.6383090">
        <ele>45.9</ele>
        <time>2021-05-23T08:35:13Z</time>
      </trkpt>
      <trkpt lat="42.6906550" lon="-8.6382980">
        <ele>45.9</ele>
        <time>2021-05-23T08:35:14Z</time>
      </trkpt>
      <trkpt lat="42.6906620" lon="-8.6382790">
        <ele>45.9</ele>
        <time>2021-05-23T08:35:15Z</time>
      </trkpt>
      <trkpt lat="42.6906610" lon="-8.6382740">
        <ele>45.9</ele>
        <time>2021-05-23T08:35:16Z</time>
      </trkpt>
      <trkpt lat="42.6906640" lon="-8.6382550">
        <ele>45.9</ele>
        <time>2021-05-23T08:35:17Z</time>
      </trkpt>
      <trkpt lat="42.6906700" lon="-8.6382390">
        <ele>45.9</ele>
        <time>2021-05-23T08:35:18Z</time>
      </trkpt>
      <trkpt lat="42.6906800" lon="-8.6382230">
        <ele>45.9</ele>
        <time>2021-05-23T08:35:19Z</time>
      </trkpt>
      <trkpt lat="42.6906820" lon="-8.6382060">
        <ele>46.0</ele>
        <time>2021-05-23T08:35:20Z</time>
      </trkpt>
      <trkpt lat="42.6906890" lon="-8.6381910">
        <ele>46.0</ele>
        <time>2021-05-23T08:35:21Z</time>
      </trkpt>
      <trkpt lat="42.6906960" lon="-8.6381810">
        <ele>46.0</ele>
        <time>2021-05-23T08:35:22Z</time>
      </trkpt>
      <trkpt lat="42.6906990" lon="-8.6381690">
        <ele>46.0</ele>
        <time>2021-05-23T08:35:23Z</time>
      </trkpt>
      <trkpt lat="42.6907080" lon="-8.6381540">
        <ele>46.0</ele>
        <time>2021-05-23T08:35:24Z</time>
      </trkpt>
      <trkpt lat="42.6907120" lon="-8.6381450">
        <ele>46.0</ele>
        <time>2021-05-23T08:35:25Z</time>
      </trkpt>
      <trkpt lat="42.6907180" lon="-8.6381310">
        <ele>46.0</ele>
        <time>2021-05-23T08:35:26Z</time>
      </trkpt>
      <trkpt lat="42.6907250" lon="-8.6381150">
        <ele>46.1</ele>
        <time>2021-05-23T08:35:27Z</time>
      </trkpt>
      <trkpt lat="42.6907250" lon="-8.6381040">
        <ele>46.1</ele>
        <time>2021-05-23T08:35:28Z</time>
      </trkpt>
      <trkpt lat="42.6907330" lon="-8.6380910">
        <ele>46.1</ele>
        <time>2021-05-23T08:35:29Z</time>
      </trkpt>
      <trkpt lat="42.6907400" lon="-8.6380770">
        <ele>46.1</ele>
        <time>2021-05-23T08:35:30Z</time>
      </trkpt>
      <trkpt lat="42.6907440" lon="-8.6380630">
        <ele>46.1</ele>
        <time>2021-05-23T08:35:31Z</time>
      </trkpt>
      <trkpt lat="42.6907450" lon="-8.6380520">
        <ele>46.1</ele>
        <time>2021-05-23T08:35:32Z</time>
      </trkpt>
      <trkpt lat="42.6907510" lon="-8.6380450">
        <ele>46.2</ele>
        <time>2021-05-23T08:35:33Z</time>
      </trkpt>
      <trkpt lat="42.6907560" lon="-8.6380380">
        <ele>46.2</ele>
        <time>2021-05-23T08:35:34Z</time>
      </trkpt>
      <trkpt lat="42.6907550" lon="-8.6380250">
        <ele>46.2</ele>
        <time>2021-05-23T08:35:35Z</time>
      </trkpt>
      <trkpt lat="42.6907630" lon="-8.6380110">
        <ele>46.2</ele>
        <time>2021-05-23T08:35:36Z</time>
      </trkpt>
      <trkpt lat="42.6907710" lon="-8.6379940">
        <ele>46.3</ele>
        <time>2021-05-23T08:35:37Z</time>
      </trkpt>
      <trkpt lat="42.6907780" lon="-8.6379840">
        <ele>46.3</ele>
        <time>2021-05-23T08:35:38Z</time>
      </trkpt>
      <trkpt lat="42.6907780" lon="-8.6379800">
        <ele>46.3</ele>
        <time>2021-05-23T08:35:39Z</time>
      </trkpt>
      <trkpt lat="42.6907870" lon="-8.6379610">
        <ele>46.3</ele>
        <time>2021-05-23T08:35:40Z</time>
      </trkpt>
      <trkpt lat="42.6907880" lon="-8.6379510">
        <ele>46.3</ele>
        <time>2021-05-23T08:35:41Z</time>
      </trkpt>
      <trkpt lat="42.6907920" lon="-8.6379400">
        <ele>46.4</ele>
        <time>2021-05-23T08:35:42Z</time>
      </trkpt>
      <trkpt lat="42.6908030" lon="-8.6379170">
        <ele>46.4</ele>
        <time>2021-05-23T08:35:43Z</time>
      </trkpt>
      <trkpt lat="42.6908090" lon="-8.6379070">
        <ele>46.4</ele>
        <time>2021-05-23T08:35:44Z</time>
      </trkpt>
      <trkpt lat="42.6908150" lon="-8.6378970">
        <ele>46.5</ele>
        <time>2021-05-23T08:35:45Z</time>
      </trkpt>
      <trkpt lat="42.6908200" lon="-8.6378840">
        <ele>46.5</ele>
        <time>2021-05-23T08:35:46Z</time>
      </trkpt>
      <trkpt lat="42.6908230" lon="-8.6378740">
        <ele>46.5</ele>
        <time>2021-05-23T08:35:47Z</time>
      </trkpt>
      <trkpt lat="42.6908290" lon="-8.6378630">
        <ele>46.6</ele>
        <time>2021-05-23T08:35:48Z</time>
      </trkpt>
      <trkpt lat="42.6908370" lon="-8.6378470">
        <ele>46.6</ele>
        <time>2021-05-23T08:35:49Z</time>
      </trkpt>
      <trkpt lat="42.6908420" lon="-8.6378410">
        <ele>46.6</ele>
        <time>2021-05-23T08:35:50Z</time>
      </trkpt>
      <trkpt lat="42.6908500" lon="-8.6378260">
        <ele>46.7</ele>
        <time>2021-05-23T08:35:51Z</time>
      </trkpt>
      <trkpt lat="42.6908500" lon="-8.6378140">
        <ele>46.7</ele>
        <time>2021-05-23T08:35:52Z</time>
      </trkpt>
      <trkpt lat="42.6908590" lon="-8.6377970">
        <ele>46.7</ele>
        <time>2021-05-23T08:35:53Z</time>
      </trkpt>
      <trkpt lat="42.6908590" lon="-8.6377910">
        <ele>46.7</ele>
        <time>2021-05-23T08:35:54Z</time>
      </trkpt>
      <trkpt lat="42.6908670" lon="-8.6377730">
        <ele>46.8</ele>
        <time>2021-05-23T08:35:55Z</time>
      </trkpt>
      <trkpt lat="42.6908720" lon="-8.6377620">
        <ele>46.8</ele>
        <time>2021-05-23T08:35:56Z</time>
      </trkpt>
      <trkpt lat="42.6908810" lon="-8.6377520">
        <ele>46.9</ele>
        <time>2021-05-23T08:35:57Z</time>
      </trkpt>
      <trkpt lat="42.6908810" lon="-8.6377400">
        <ele>46.9</ele>
        <time>2021-05-23T08:35:58Z</time>
      </trkpt>
      <trkpt lat="42.6908870" lon="-8.6377360">
        <ele>46.9</ele>
        <time>2021-05-23T08:35:59Z</time>
      </trkpt>
      <trkpt lat="42.6908960" lon="-8.6377180">
        <ele>47.0</ele>
        <time>2021-05-23T08:36:00Z</time>
      </trkpt>
      <trkpt lat="42.6909040" lon="-8.6377040">
        <ele>47.0</ele>
        <time>2021-05-23T08:36:01Z</time>
      </trkpt>
      <trkpt lat="42.6909160" lon="-8.6376910">
        <ele>47.1</ele>
        <time>2021-05-23T08:36:02Z</time>
      </trkpt>
      <trkpt lat="42.6909210" lon="-8.6376780">
        <ele>47.1</ele>
        <time>2021-05-23T08:36:03Z</time>
      </trkpt>
      <trkpt lat="42.6909250" lon="-8.6376670">
        <ele>47.1</ele>
        <time>2021-05-23T08:36:04Z</time>
      </trkpt>
      <trkpt lat="42.6909330" lon="-8.6376560">
        <ele>47.1</ele>
        <time>2021-05-23T08:36:05Z</time>
      </trkpt>
      <trkpt lat="42.6909430" lon="-8.6376460">
        <ele>47.2</ele>
        <time>2021-05-23T08:36:06Z</time>
      </trkpt>
      <trkpt lat="42.6909480" lon="-8.6376380">
        <ele>47.2</ele>
        <time>2021-05-23T08:36:07Z</time>
      </trkpt>
      <trkpt lat="42.6909580" lon="-8.6376210">
        <ele>47.3</ele>
        <time>2021-05-23T08:36:08Z</time>
      </trkpt>
      <trkpt lat="42.6909620" lon="-8.6376130">
        <ele>47.3</ele>
        <time>2021-05-23T08:36:09Z</time>
      </trkpt>
      <trkpt lat="42.6909730" lon="-8.6376020">
        <ele>47.3</ele>
        <time>2021-05-23T08:36:10Z</time>
      </trkpt>
      <trkpt lat="42.6909840" lon="-8.6375980">
        <ele>47.4</ele>
        <time>2021-05-23T08:36:11Z</time>
      </trkpt>
      <trkpt lat="42.6910060" lon="-8.6375910">
        <ele>47.4</ele>
        <time>2021-05-23T08:36:12Z</time>
      </trkpt>
      <trkpt lat="42.6910140" lon="-8.6375900">
        <ele>47.5</ele>
        <time>2021-05-23T08:36:13Z</time>
      </trkpt>
      <trkpt lat="42.6910210" lon="-8.6375890">
        <ele>47.5</ele>
        <time>2021-05-23T08:36:14Z</time>
      </trkpt>
      <trkpt lat="42.6910300" lon="-8.6375840">
        <ele>47.5</ele>
        <time>2021-05-23T08:36:15Z</time>
      </trkpt>
      <trkpt lat="42.6910380" lon="-8.6375900">
        <ele>47.5</ele>
        <time>2021-05-23T08:36:16Z</time>
      </trkpt>
      <trkpt lat="42.6910550" lon="-8.6375910">
        <ele>47.6</ele>
        <time>2021-05-23T08:36:17Z</time>
      </trkpt>
      <trkpt lat="42.6910620" lon="-8.6375830">
        <ele>47.6</ele>
        <time>2021-05-23T08:36:18Z</time>
      </trkpt>
      <trkpt lat="42.6910690" lon="-8.6375950">
        <ele>47.7</ele>
        <time>2021-05-23T08:36:19Z</time>
      </trkpt>
      <trkpt lat="42.6910830" lon="-8.6375900">
        <ele>47.7</ele>
        <time>2021-05-23T08:36:20Z</time>
      </trkpt>
      <trkpt lat="42.6911040" lon="-8.6375970">
        <ele>47.8</ele>
        <time>2021-05-23T08:36:21Z</time>
      </trkpt>
      <trkpt lat="42.6911140" lon="-8.6375990">
        <ele>47.8</ele>
        <time>2021-05-23T08:36:22Z</time>
      </trkpt>
      <trkpt lat="42.6911230" lon="-8.6376020">
        <ele>47.9</ele>
        <time>2021-05-23T08:36:23Z</time>
      </trkpt>
      <trkpt lat="42.6911390" lon="-8.6376080">
        <ele>47.9</ele>
        <time>2021-05-23T08:36:24Z</time>
      </trkpt>
      <trkpt lat="42.6911470" lon="-8.6376090">
        <ele>48.0</ele>
        <time>2021-05-23T08:36:25Z</time>
      </trkpt>
      <trkpt lat="42.6911540" lon="-8.6376100">
        <ele>48.0</ele>
        <time>2021-05-23T08:36:26Z</time>
      </trkpt>
      <trkpt lat="42.6911620" lon="-8.6376110">
        <ele>48.0</ele>
        <time>2021-05-23T08:36:27Z</time>
      </trkpt>
      <trkpt lat="42.6911690" lon="-8.6376060">
        <ele>48.0</ele>
        <time>2021-05-23T08:36:28Z</time>
      </trkpt>
      <trkpt lat="42.6911810" lon="-8.6376150">
        <ele>48.1</ele>
        <time>2021-05-23T08:36:29Z</time>
      </trkpt>
      <trkpt lat="42.6911920" lon="-8.6376200">
        <ele>48.2</ele>
        <time>2021-05-23T08:36:30Z</time>
      </trkpt>
      <trkpt lat="42.6912130" lon="-8.6376250">
        <ele>48.2</ele>
        <time>2021-05-23T08:36:31Z</time>
      </trkpt>
      <trkpt lat="42.6912210" lon="-8.6376270">
        <ele>48.3</ele>
        <time>2021-05-23T08:36:32Z</time>
      </trkpt>
      <trkpt lat="42.6912280" lon="-8.6376300">
        <ele>48.3</ele>
        <time>2021-05-23T08:36:33Z</time>
      </trkpt>
      <trkpt lat="42.6912380" lon="-8.6376300">
        <ele>48.3</ele>
        <time>2021-05-23T08:36:34Z</time>
      </trkpt>
      <trkpt lat="42.6912470" lon="-8.6376240">
        <ele>48.4</ele>
        <time>2021-05-23T08:36:35Z</time>
      </trkpt>
      <trkpt lat="42.6912640" lon="-8.6376280">
        <ele>48.5</ele>
        <time>2021-05-23T08:36:36Z</time>
      </trkpt>
      <trkpt lat="42.6912750" lon="-8.6376310">
        <ele>48.5</ele>
        <time>2021-05-23T08:36:37Z</time>
      </trkpt>
      <trkpt lat="42.6912850" lon="-8.6376330">
        <ele>48.6</ele>
        <time>2021-05-23T08:36:38Z</time>
      </trkpt>
      <trkpt lat="42.6912990" lon="-8.6376330">
        <ele>48.6</ele>
        <time>2021-05-23T08:36:39Z</time>
      </trkpt>
      <trkpt lat="42.6913030" lon="-8.6376310">
        <ele>48.6</ele>
        <time>2021-05-23T08:36:40Z</time>
      </trkpt>
      <trkpt lat="42.6913180" lon="-8.6376280">
        <ele>48.7</ele>
        <time>2021-05-23T08:36:41Z</time>
      </trkpt>
      <trkpt lat="42.6913290" lon="-8.6376280">
        <ele>48.8</ele>
        <time>2021-05-23T08:36:42Z</time>
      </trkpt>
      <trkpt lat="42.6913390" lon="-8.6376310">
        <ele>48.8</ele>
        <time>2021-05-23T08:36:43Z</time>
      </trkpt>
      <trkpt lat="42.6913540" lon="-8.6376420">
        <ele>48.9</ele>
        <time>2021-05-23T08:36:44Z</time>
      </trkpt>
      <trkpt lat="42.6913750" lon="-8.6376450">
        <ele>49.0</ele>
        <time>2021-05-23T08:36:45Z</time>
      </trkpt>
      <trkpt lat="42.6913840" lon="-8.6376440">
        <ele>49.0</ele>
        <time>2021-05-23T08:36:46Z</time>
      </trkpt>
      <trkpt lat="42.6913920" lon="-8.6376440">
        <ele>49.1</ele>
        <time>2021-05-23T08:36:47Z</time>
      </trkpt>
      <trkpt lat="42.6914060" lon="-8.6376360">
        <ele>49.1</ele>
        <time>2021-05-23T08:36:48Z</time>
      </trkpt>
      <trkpt lat="42.6914130" lon="-8.6376400">
        <ele>49.2</ele>
        <time>2021-05-23T08:36:49Z</time>
      </trkpt>
      <trkpt lat="42.6914270" lon="-8.6376470">
        <ele>49.3</ele>
        <time>2021-05-23T08:36:50Z</time>
      </trkpt>
      <trkpt lat="42.6914420" lon="-8.6376450">
        <ele>49.3</ele>
        <time>2021-05-23T08:36:51Z</time>
      </trkpt>
      <trkpt lat="42.6914490" lon="-8.6376430">
        <ele>49.4</ele>
        <time>2021-05-23T08:36:52Z</time>
      </trkpt>
      <trkpt lat="42.6914610" lon="-8.6376410">
        <ele>49.4</ele>
        <time>2021-05-23T08:36:53Z</time>
      </trkpt>
      <trkpt lat="42.6914770" lon="-8.6376340">
        <ele>49.5</ele>
        <time>2021-05-23T08:36:54Z</time>
      </trkpt>
      <trkpt lat="42.6914890" lon="-8.6376340">
        <ele>49.6</ele>
        <time>2021-05-23T08:36:55Z</time>
      </trkpt>
      <trkpt lat="42.6914980" lon="-8.6376320">
        <ele>49.6</ele>
        <time>2021-05-23T08:36:56Z</time>
      </trkpt>
      <trkpt lat="42.6915050" lon="-8.6376290">
        <ele>49.6</ele>
        <time>2021-05-23T08:36:57Z</time>
      </trkpt>
      <trkpt lat="42.6915180" lon="-8.6376210">
        <ele>49.7</ele>
        <time>2021-05-23T08:36:58Z</time>
      </trkpt>
      <trkpt lat="42.6915320" lon="-8.6376200">
        <ele>49.8</ele>
        <time>2021-05-23T08:36:59Z</time>
      </trkpt>
      <trkpt lat="42.6915400" lon="-8.6376120">
        <ele>49.8</ele>
        <time>2021-05-23T08:37:00Z</time>
      </trkpt>
      <trkpt lat="42.6915520" lon="-8.6376120">
        <ele>49.9</ele>
        <time>2021-05-23T08:37:01Z</time>
      </trkpt>
      <trkpt lat="42.6915600" lon="-8.6376070">
        <ele>49.9</ele>
        <time>2021-05-23T08:37:02Z</time>
      </trkpt>
      <trkpt lat="42.6915740" lon="-8.6376030">
        <ele>50.0</ele>
        <time>2021-05-23T08:37:03Z</time>
      </trkpt>
      <trkpt lat="42.6915840" lon="-8.6375990">
        <ele>50.0</ele>
        <time>2021-05-23T08:37:04Z</time>
      </trkpt>
      <trkpt lat="42.6916040" lon="-8.6375890">
        <ele>50.1</ele>
        <time>2021-05-23T08:37:05Z</time>
      </trkpt>
      <trkpt lat="42.6916120" lon="-8.6375840">
        <ele>50.2</ele>
        <time>2021-05-23T08:37:06Z</time>
      </trkpt>
      <trkpt lat="42.6916210" lon="-8.6375800">
        <ele>50.2</ele>
        <time>2021-05-23T08:37:07Z</time>
      </trkpt>
      <trkpt lat="42.6916330" lon="-8.6375790">
        <ele>50.3</ele>
        <time>2021-05-23T08:37:08Z</time>
      </trkpt>
      <trkpt lat="42.6916410" lon="-8.6375780">
        <ele>50.3</ele>
        <time>2021-05-23T08:37:09Z</time>
      </trkpt>
      <trkpt lat="42.6916560" lon="-8.6375820">
        <ele>50.4</ele>
        <time>2021-05-23T08:37:10Z</time>
      </trkpt>
      <trkpt lat="42.6916700" lon="-8.6375800">
        <ele>50.4</ele>
        <time>2021-05-23T08:37:11Z</time>
      </trkpt>
      <trkpt lat="42.6916770" lon="-8.6375740">
        <ele>50.5</ele>
        <time>2021-05-23T08:37:12Z</time>
      </trkpt>
      <trkpt lat="42.6916870" lon="-8.6375690">
        <ele>50.5</ele>
        <time>2021-05-23T08:37:13Z</time>
      </trkpt>
      <trkpt lat="42.6916990" lon="-8.6375700">
        <ele>50.6</ele>
        <time>2021-05-23T08:37:14Z</time>
      </trkpt>
      <trkpt lat="42.6917080" lon="-8.6375680">
        <ele>50.6</ele>
        <time>2021-05-23T08:37:15Z</time>
      </trkpt>
      <trkpt lat="42.6917190" lon="-8.6375620">
        <ele>50.7</ele>
        <time>2021-05-23T08:37:16Z</time>
      </trkpt>
      <trkpt lat="42.6917320" lon="-8.6375580">
        <ele>50.7</ele>
        <time>2021-05-23T08:37:17Z</time>
      </trkpt>
      <trkpt lat="42.6917440" lon="-8.6375540">
        <ele>50.8</ele>
        <time>2021-05-23T08:37:18Z</time>
      </trkpt>
      <trkpt lat="42.6917510" lon="-8.6375550">
        <ele>50.8</ele>
        <time>2021-05-23T08:37:19Z</time>
      </trkpt>
      <trkpt lat="42.6917750" lon="-8.6375520">
        <ele>50.9</ele>
        <time>2021-05-23T08:37:20Z</time>
      </trkpt>
      <trkpt lat="42.6917820" lon="-8.6375490">
        <ele>51.0</ele>
        <time>2021-05-23T08:37:21Z</time>
      </trkpt>
      <trkpt lat="42.6917890" lon="-8.6375460">
        <ele>51.0</ele>
        <time>2021-05-23T08:37:22Z</time>
      </trkpt>
      <trkpt lat="42.6918070" lon="-8.6375370">
        <ele>51.1</ele>
        <time>2021-05-23T08:37:23Z</time>
      </trkpt>
      <trkpt lat="42.6918150" lon="-8.6375350">
        <ele>51.2</ele>
        <time>2021-05-23T08:37:24Z</time>
      </trkpt>
      <trkpt lat="42.6918220" lon="-8.6375320">
        <ele>51.2</ele>
        <time>2021-05-23T08:37:25Z</time>
      </trkpt>
      <trkpt lat="42.6918300" lon="-8.6375300">
        <ele>51.3</ele>
        <time>2021-05-23T08:37:26Z</time>
      </trkpt>
      <trkpt lat="42.6918320" lon="-8.6375330">
        <ele>51.3</ele>
        <time>2021-05-23T08:37:27Z</time>
      </trkpt>
      <trkpt lat="42.6918500" lon="-8.6375260">
        <ele>51.4</ele>
        <time>2021-05-23T08:37:28Z</time>
      </trkpt>
      <trkpt lat="42.6918610" lon="-8.6375270">
        <ele>51.4</ele>
        <time>2021-05-23T08:37:29Z</time>
      </trkpt>
      <trkpt lat="42.6918760" lon="-8.6375220">
        <ele>51.5</ele>
        <time>2021-05-23T08:37:30Z</time>
      </trkpt>
      <trkpt lat="42.6918840" lon="-8.6375190">
        <ele>51.6</ele>
        <time>2021-05-23T08:37:31Z</time>
      </trkpt>
      <trkpt lat="42.6918910" lon="-8.6375150">
        <ele>51.6</ele>
        <time>2021-05-23T08:37:32Z</time>
      </trkpt>
      <trkpt lat="42.6918990" lon="-8.6375120">
        <ele>51.7</ele>
        <time>2021-05-23T08:37:33Z</time>
      </trkpt>
      <trkpt lat="42.6919160" lon="-8.6375080">
        <ele>51.8</ele>
        <time>2021-05-23T08:37:34Z</time>
      </trkpt>
      <trkpt lat="42.6919220" lon="-8.6375070">
        <ele>51.8</ele>
        <time>2021-05-23T08:37:35Z</time>
      </trkpt>
      <trkpt lat="42.6919270" lon="-8.6375060">
        <ele>51.8</ele>
        <time>2021-05-23T08:37:36Z</time>
      </trkpt>
      <trkpt lat="42.6919430" lon="-8.6374970">
        <ele>51.9</ele>
        <time>2021-05-23T08:37:37Z</time>
      </trkpt>
      <trkpt lat="42.6919520" lon="-8.6374910">
        <ele>52.0</ele>
        <time>2021-05-23T08:37:38Z</time>
      </trkpt>
      <trkpt lat="42.6919620" lon="-8.6374840">
        <ele>52.1</ele>
        <time>2021-05-23T08:37:39Z</time>
      </trkpt>
      <trkpt lat="42.6919710" lon="-8.6374790">
        <ele>52.1</ele>
        <time>2021-05-23T08:37:40Z</time>
      </trkpt>
      <trkpt lat="42.6919800" lon="-8.6374760">
        <ele>52.2</ele>
        <time>2021-05-23T08:37:41Z</time>
      </trkpt>
      <trkpt lat="42.6919910" lon="-8.6374770">
        <ele>52.3</ele>
        <time>2021-05-23T08:37:42Z</time>
      </trkpt>
      <trkpt lat="42.6920010" lon="-8.6374750">
        <ele>52.5</ele>
        <time>2021-05-23T08:37:43Z</time>
      </trkpt>
      <trkpt lat="42.6920070" lon="-8.6374700">
        <ele>52.5</ele>
        <time>2021-05-23T08:37:44Z</time>
      </trkpt>
      <trkpt lat="42.6920160" lon="-8.6374680">
        <ele>52.6</ele>
        <time>2021-05-23T08:37:45Z</time>
      </trkpt>
      <trkpt lat="42.6920250" lon="-8.6374630">
        <ele>52.6</ele>
        <time>2021-05-23T08:37:46Z</time>
      </trkpt>
      <trkpt lat="42.6920420" lon="-8.6374640">
        <ele>52.7</ele>
        <time>2021-05-23T08:37:47Z</time>
      </trkpt>
      <trkpt lat="42.6920450" lon="-8.6374660">
        <ele>52.7</ele>
        <time>2021-05-23T08:37:48Z</time>
      </trkpt>
      <trkpt lat="42.6920530" lon="-8.6374670">
        <ele>52.7</ele>
        <time>2021-05-23T08:37:49Z</time>
      </trkpt>
      <trkpt lat="42.6920630" lon="-8.6374710">
        <ele>52.8</ele>
        <time>2021-05-23T08:37:50Z</time>
      </trkpt>
      <trkpt lat="42.6920630" lon="-8.6374740">
        <ele>52.8</ele>
        <time>2021-05-23T08:37:51Z</time>
      </trkpt>
      <trkpt lat="42.6920820" lon="-8.6374780">
        <ele>52.8</ele>
        <time>2021-05-23T08:37:52Z</time>
      </trkpt>
      <trkpt lat="42.6920920" lon="-8.6374750">
        <ele>52.9</ele>
        <time>2021-05-23T08:37:53Z</time>
      </trkpt>
      <trkpt lat="42.6921000" lon="-8.6374820">
        <ele>52.9</ele>
        <time>2021-05-23T08:37:54Z</time>
      </trkpt>
      <trkpt lat="42.6921100" lon="-8.6374870">
        <ele>52.9</ele>
        <time>2021-05-23T08:37:55Z</time>
      </trkpt>
      <trkpt lat="42.6921220" lon="-8.6374840">
        <ele>52.9</ele>
        <time>2021-05-23T08:37:56Z</time>
      </trkpt>
      <trkpt lat="42.6921300" lon="-8.6374870">
        <ele>53.0</ele>
        <time>2021-05-23T08:37:57Z</time>
      </trkpt>
      <trkpt lat="42.6921390" lon="-8.6374900">
        <ele>53.0</ele>
        <time>2021-05-23T08:37:58Z</time>
      </trkpt>
      <trkpt lat="42.6921700" lon="-8.6374910">
        <ele>53.0</ele>
        <time>2021-05-23T08:37:59Z</time>
      </trkpt>
      <trkpt lat="42.6921780" lon="-8.6374910">
        <ele>53.1</ele>
        <time>2021-05-23T08:38:00Z</time>
      </trkpt>
      <trkpt lat="42.6921990" lon="-8.6374960">
        <ele>53.1</ele>
        <time>2021-05-23T08:38:01Z</time>
      </trkpt>
      <trkpt lat="42.6922070" lon="-8.6375020">
        <ele>53.1</ele>
        <time>2021-05-23T08:38:02Z</time>
      </trkpt>
      <trkpt lat="42.6922160" lon="-8.6375070">
        <ele>53.1</ele>
        <time>2021-05-23T08:38:03Z</time>
      </trkpt>
      <trkpt lat="42.6922340" lon="-8.6375060">
        <ele>53.1</ele>
        <time>2021-05-23T08:38:04Z</time>
      </trkpt>
      <trkpt lat="42.6922420" lon="-8.6375090">
        <ele>53.1</ele>
        <time>2021-05-23T08:38:05Z</time>
      </trkpt>
      <trkpt lat="42.6922510" lon="-8.6375120">
        <ele>53.1</ele>
        <time>2021-05-23T08:38:06Z</time>
      </trkpt>
      <trkpt lat="42.6922590" lon="-8.6375150">
        <ele>53.1</ele>
        <time>2021-05-23T08:38:07Z</time>
      </trkpt>
      <trkpt lat="42.6922730" lon="-8.6375190">
        <ele>53.1</ele>
        <time>2021-05-23T08:38:08Z</time>
      </trkpt>
      <trkpt lat="42.6922800" lon="-8.6375180">
        <ele>53.1</ele>
        <time>2021-05-23T08:38:09Z</time>
      </trkpt>
      <trkpt lat="42.6922860" lon="-8.6375180">
        <ele>53.1</ele>
        <time>2021-05-23T08:38:10Z</time>
      </trkpt>
      <trkpt lat="42.6922930" lon="-8.6375170">
        <ele>53.1</ele>
        <time>2021-05-23T08:38:11Z</time>
      </trkpt>
      <trkpt lat="42.6922990" lon="-8.6375170">
        <ele>53.1</ele>
        <time>2021-05-23T08:38:12Z</time>
      </trkpt>
      <trkpt lat="42.6923080" lon="-8.6375210">
        <ele>53.1</ele>
        <time>2021-05-23T08:38:13Z</time>
      </trkpt>
      <trkpt lat="42.6923240" lon="-8.6375260">
        <ele>53.1</ele>
        <time>2021-05-23T08:38:14Z</time>
      </trkpt>
      <trkpt lat="42.6923260" lon="-8.6375290">
        <ele>53.1</ele>
        <time>2021-05-23T08:38:15Z</time>
      </trkpt>
      <trkpt lat="42.6923360" lon="-8.6375250">
        <ele>53.1</ele>
        <time>2021-05-23T08:38:16Z</time>
      </trkpt>
      <trkpt lat="42.6923440" lon="-8.6375260">
        <ele>53.1</ele>
        <time>2021-05-23T08:38:17Z</time>
      </trkpt>
      <trkpt lat="42.6923540" lon="-8.6375280">
        <ele>53.1</ele>
        <time>2021-05-23T08:38:18Z</time>
      </trkpt>
      <trkpt lat="42.6923700" lon="-8.6375270">
        <ele>53.0</ele>
        <time>2021-05-23T08:38:19Z</time>
      </trkpt>
      <trkpt lat="42.6923790" lon="-8.6375260">
        <ele>53.0</ele>
        <time>2021-05-23T08:38:20Z</time>
      </trkpt>
      <trkpt lat="42.6923860" lon="-8.6375260">
        <ele>53.0</ele>
        <time>2021-05-23T08:38:21Z</time>
      </trkpt>
      <trkpt lat="42.6924090" lon="-8.6375310">
        <ele>53.0</ele>
        <time>2021-05-23T08:38:22Z</time>
      </trkpt>
      <trkpt lat="42.6924200" lon="-8.6375310">
        <ele>53.0</ele>
        <time>2021-05-23T08:38:23Z</time>
      </trkpt>
      <trkpt lat="42.6924320" lon="-8.6375300">
        <ele>53.0</ele>
        <time>2021-05-23T08:38:24Z</time>
      </trkpt>
      <trkpt lat="42.6924450" lon="-8.6375230">
        <ele>53.0</ele>
        <time>2021-05-23T08:38:25Z</time>
      </trkpt>
      <trkpt lat="42.6924610" lon="-8.6375190">
        <ele>53.0</ele>
        <time>2021-05-23T08:38:26Z</time>
      </trkpt>
      <trkpt lat="42.6924760" lon="-8.6375150">
        <ele>52.9</ele>
        <time>2021-05-23T08:38:27Z</time>
      </trkpt>
      <trkpt lat="42.6924920" lon="-8.6375090">
        <ele>52.9</ele>
        <time>2021-05-23T08:38:28Z</time>
      </trkpt>
      <trkpt lat="42.6925150" lon="-8.6375090">
        <ele>52.9</ele>
        <time>2021-05-23T08:38:29Z</time>
      </trkpt>
      <trkpt lat="42.6925240" lon="-8.6375080">
        <ele>52.9</ele>
        <time>2021-05-23T08:38:30Z</time>
      </trkpt>
      <trkpt lat="42.6925330" lon="-8.6375060">
        <ele>52.9</ele>
        <time>2021-05-23T08:38:31Z</time>
      </trkpt>
      <trkpt lat="42.6925490" lon="-8.6375070">
        <ele>52.9</ele>
        <time>2021-05-23T08:38:32Z</time>
      </trkpt>
      <trkpt lat="42.6925610" lon="-8.6375060">
        <ele>52.9</ele>
        <time>2021-05-23T08:38:33Z</time>
      </trkpt>
      <trkpt lat="42.6925750" lon="-8.6375100">
        <ele>52.9</ele>
        <time>2021-05-23T08:38:34Z</time>
      </trkpt>
      <trkpt lat="42.6925880" lon="-8.6375100">
        <ele>52.8</ele>
        <time>2021-05-23T08:38:35Z</time>
      </trkpt>
      <trkpt lat="42.6926090" lon="-8.6375130">
        <ele>52.8</ele>
        <time>2021-05-23T08:38:36Z</time>
      </trkpt>
      <trkpt lat="42.6926180" lon="-8.6375130">
        <ele>52.8</ele>
        <time>2021-05-23T08:38:37Z</time>
      </trkpt>
      <trkpt lat="42.6926270" lon="-8.6375130">
        <ele>52.8</ele>
        <time>2021-05-23T08:38:38Z</time>
      </trkpt>
      <trkpt lat="42.6926480" lon="-8.6375090">
        <ele>52.8</ele>
        <time>2021-05-23T08:38:39Z</time>
      </trkpt>
      <trkpt lat="42.6926580" lon="-8.6375100">
        <ele>52.8</ele>
        <time>2021-05-23T08:38:40Z</time>
      </trkpt>
      <trkpt lat="42.6926670" lon="-8.6375120">
        <ele>52.8</ele>
        <time>2021-05-23T08:38:41Z</time>
      </trkpt>
      <trkpt lat="42.6926900" lon="-8.6375100">
        <ele>52.8</ele>
        <time>2021-05-23T08:38:42Z</time>
      </trkpt>
      <trkpt lat="42.6926980" lon="-8.6375120">
        <ele>52.8</ele>
        <time>2021-05-23T08:38:43Z</time>
      </trkpt>
      <trkpt lat="42.6927070" lon="-8.6375140">
        <ele>52.8</ele>
        <time>2021-05-23T08:38:44Z</time>
      </trkpt>
      <trkpt lat="42.6927270" lon="-8.6375260">
        <ele>52.8</ele>
        <time>2021-05-23T08:38:45Z</time>
      </trkpt>
      <trkpt lat="42.6927350" lon="-8.6375290">
        <ele>52.8</ele>
        <time>2021-05-23T08:38:46Z</time>
      </trkpt>
      <trkpt lat="42.6927430" lon="-8.6375330">
        <ele>52.8</ele>
        <time>2021-05-23T08:38:47Z</time>
      </trkpt>
      <trkpt lat="42.6927530" lon="-8.6375390">
        <ele>52.8</ele>
        <time>2021-05-23T08:38:48Z</time>
      </trkpt>
      <trkpt lat="42.6927610" lon="-8.6375560">
        <ele>52.8</ele>
        <time>2021-05-23T08:38:49Z</time>
      </trkpt>
      <trkpt lat="42.6927690" lon="-8.6375660">
        <ele>52.8</ele>
        <time>2021-05-23T08:38:50Z</time>
      </trkpt>
      <trkpt lat="42.6927810" lon="-8.6375900">
        <ele>52.8</ele>
        <time>2021-05-23T08:38:51Z</time>
      </trkpt>
      <trkpt lat="42.6927870" lon="-8.6375980">
        <ele>52.8</ele>
        <time>2021-05-23T08:38:52Z</time>
      </trkpt>
      <trkpt lat="42.6927930" lon="-8.6376060">
        <ele>52.8</ele>
        <time>2021-05-23T08:38:53Z</time>
      </trkpt>
      <trkpt lat="42.6928060" lon="-8.6376280">
        <ele>52.8</ele>
        <time>2021-05-23T08:38:54Z</time>
      </trkpt>
      <trkpt lat="42.6928110" lon="-8.6376370">
        <ele>52.8</ele>
        <time>2021-05-23T08:38:55Z</time>
      </trkpt>
      <trkpt lat="42.6928150" lon="-8.6376470">
        <ele>52.8</ele>
        <time>2021-05-23T08:38:56Z</time>
      </trkpt>
      <trkpt lat="42.6928190" lon="-8.6376630">
        <ele>52.8</ele>
        <time>2021-05-23T08:38:57Z</time>
      </trkpt>
      <trkpt lat="42.6928270" lon="-8.6376760">
        <ele>52.8</ele>
        <time>2021-05-23T08:38:58Z</time>
      </trkpt>
      <trkpt lat="42.6928340" lon="-8.6376890">
        <ele>52.8</ele>
        <time>2021-05-23T08:38:59Z</time>
      </trkpt>
      <trkpt lat="42.6928490" lon="-8.6377060">
        <ele>52.9</ele>
        <time>2021-05-23T08:39:00Z</time>
      </trkpt>
      <trkpt lat="42.6928560" lon="-8.6377130">
        <ele>52.9</ele>
        <time>2021-05-23T08:39:01Z</time>
      </trkpt>
      <trkpt lat="42.6928620" lon="-8.6377200">
        <ele>52.9</ele>
        <time>2021-05-23T08:39:02Z</time>
      </trkpt>
      <trkpt lat="42.6928720" lon="-8.6377340">
        <ele>52.9</ele>
        <time>2021-05-23T08:39:03Z</time>
      </trkpt>
      <trkpt lat="42.6928820" lon="-8.6377480">
        <ele>52.9</ele>
        <time>2021-05-23T08:39:04Z</time>
      </trkpt>
      <trkpt lat="42.6928940" lon="-8.6377590">
        <ele>52.9</ele>
        <time>2021-05-23T08:39:05Z</time>
      </trkpt>
      <trkpt lat="42.6929030" lon="-8.6377710">
        <ele>53.0</ele>
        <time>2021-05-23T08:39:06Z</time>
      </trkpt>
      <trkpt lat="42.6929250" lon="-8.6377800">
        <ele>53.0</ele>
        <time>2021-05-23T08:39:07Z</time>
      </trkpt>
      <trkpt lat="42.6929350" lon="-8.6377800">
        <ele>53.0</ele>
        <time>2021-05-23T08:39:08Z</time>
      </trkpt>
      <trkpt lat="42.6929440" lon="-8.6377810">
        <ele>53.0</ele>
        <time>2021-05-23T08:39:09Z</time>
      </trkpt>
      <trkpt lat="42.6929650" lon="-8.6377770">
        <ele>53.0</ele>
        <time>2021-05-23T08:39:10Z</time>
      </trkpt>
      <trkpt lat="42.6929730" lon="-8.6377750">
        <ele>53.1</ele>
        <time>2021-05-23T08:39:11Z</time>
      </trkpt>
      <trkpt lat="42.6929810" lon="-8.6377730">
        <ele>53.1</ele>
        <time>2021-05-23T08:39:12Z</time>
      </trkpt>
      <trkpt lat="42.6930020" lon="-8.6377740">
        <ele>53.1</ele>
        <time>2021-05-23T08:39:13Z</time>
      </trkpt>
      <trkpt lat="42.6930100" lon="-8.6377770">
        <ele>53.1</ele>
        <time>2021-05-23T08:39:14Z</time>
      </trkpt>
      <trkpt lat="42.6930180" lon="-8.6377790">
        <ele>53.1</ele>
        <time>2021-05-23T08:39:15Z</time>
      </trkpt>
      <trkpt lat="42.6930270" lon="-8.6377790">
        <ele>53.2</ele>
        <time>2021-05-23T08:39:16Z</time>
      </trkpt>
      <trkpt lat="42.6930400" lon="-8.6377800">
        <ele>53.2</ele>
        <time>2021-05-23T08:39:17Z</time>
      </trkpt>
      <trkpt lat="42.6930500" lon="-8.6377780">
        <ele>53.2</ele>
        <time>2021-05-23T08:39:18Z</time>
      </trkpt>
      <trkpt lat="42.6930620" lon="-8.6377780">
        <ele>53.2</ele>
        <time>2021-05-23T08:39:19Z</time>
      </trkpt>
      <trkpt lat="42.6930670" lon="-8.6377750">
        <ele>53.2</ele>
        <time>2021-05-23T08:39:20Z</time>
      </trkpt>
      <trkpt lat="42.6930810" lon="-8.6377720">
        <ele>53.3</ele>
        <time>2021-05-23T08:39:21Z</time>
      </trkpt>
      <trkpt lat="42.6931050" lon="-8.6377770">
        <ele>53.3</ele>
        <time>2021-05-23T08:39:22Z</time>
      </trkpt>
      <trkpt lat="42.6931140" lon="-8.6377800">
        <ele>53.4</ele>
        <time>2021-05-23T08:39:23Z</time>
      </trkpt>
      <trkpt lat="42.6931240" lon="-8.6377840">
        <ele>53.4</ele>
        <time>2021-05-23T08:39:24Z</time>
      </trkpt>
      <trkpt lat="42.6931380" lon="-8.6377890">
        <ele>53.4</ele>
        <time>2021-05-23T08:39:25Z</time>
      </trkpt>
      <trkpt lat="42.6931510" lon="-8.6377970">
        <ele>53.5</ele>
        <time>2021-05-23T08:39:26Z</time>
      </trkpt>
      <trkpt lat="42.6931740" lon="-8.6378010">
        <ele>53.5</ele>
        <time>2021-05-23T08:39:27Z</time>
      </trkpt>
      <trkpt lat="42.6931820" lon="-8.6378020">
        <ele>53.6</ele>
        <time>2021-05-23T08:39:28Z</time>
      </trkpt>
      <trkpt lat="42.6931900" lon="-8.6378040">
        <ele>53.6</ele>
        <time>2021-05-23T08:39:29Z</time>
      </trkpt>
      <trkpt lat="42.6932100" lon="-8.6378150">
        <ele>53.6</ele>
        <time>2021-05-23T08:39:30Z</time>
      </trkpt>
      <trkpt lat="42.6932170" lon="-8.6378170">
        <ele>53.7</ele>
        <time>2021-05-23T08:39:31Z</time>
      </trkpt>
      <trkpt lat="42.6932250" lon="-8.6378200">
        <ele>53.7</ele>
        <time>2021-05-23T08:39:32Z</time>
      </trkpt>
      <trkpt lat="42.6932450" lon="-8.6378300">
        <ele>53.8</ele>
        <time>2021-05-23T08:39:33Z</time>
      </trkpt>
      <trkpt lat="42.6932530" lon="-8.6378320">
        <ele>53.9</ele>
        <time>2021-05-23T08:39:34Z</time>
      </trkpt>
      <trkpt lat="42.6932600" lon="-8.6378350">
        <ele>53.9</ele>
        <time>2021-05-23T08:39:35Z</time>
      </trkpt>
      <trkpt lat="42.6932680" lon="-8.6378450">
        <ele>54.0</ele>
        <time>2021-05-23T08:39:36Z</time>
      </trkpt>
      <trkpt lat="42.6932730" lon="-8.6378580">
        <ele>54.1</ele>
        <time>2021-05-23T08:39:37Z</time>
      </trkpt>
      <trkpt lat="42.6932800" lon="-8.6378630">
        <ele>54.1</ele>
        <time>2021-05-23T08:39:38Z</time>
      </trkpt>
      <trkpt lat="42.6932930" lon="-8.6378680">
        <ele>54.2</ele>
        <time>2021-05-23T08:39:39Z</time>
      </trkpt>
      <trkpt lat="42.6933040" lon="-8.6378720">
        <ele>54.3</ele>
        <time>2021-05-23T08:39:40Z</time>
      </trkpt>
      <trkpt lat="42.6933140" lon="-8.6378740">
        <ele>54.4</ele>
        <time>2021-05-23T08:39:41Z</time>
      </trkpt>
      <trkpt lat="42.6933190" lon="-8.6378780">
        <ele>54.4</ele>
        <time>2021-05-23T08:39:42Z</time>
      </trkpt>
      <trkpt lat="42.6933260" lon="-8.6378780">
        <ele>54.4</ele>
        <time>2021-05-23T08:39:43Z</time>
      </trkpt>
      <trkpt lat="42.6933390" lon="-8.6378790">
        <ele>54.5</ele>
        <time>2021-05-23T08:39:44Z</time>
      </trkpt>
      <trkpt lat="42.6933470" lon="-8.6378880">
        <ele>54.6</ele>
        <time>2021-05-23T08:39:45Z</time>
      </trkpt>
      <trkpt lat="42.6933530" lon="-8.6378920">
        <ele>54.7</ele>
        <time>2021-05-23T08:39:46Z</time>
      </trkpt>
      <trkpt lat="42.6933630" lon="-8.6379060">
        <ele>54.8</ele>
        <time>2021-05-23T08:39:47Z</time>
      </trkpt>
      <trkpt lat="42.6933740" lon="-8.6379110">
        <ele>54.9</ele>
        <time>2021-05-23T08:39:48Z</time>
      </trkpt>
      <trkpt lat="42.6933790" lon="-8.6379150">
        <ele>54.9</ele>
        <time>2021-05-23T08:39:49Z</time>
      </trkpt>
      <trkpt lat="42.6933910" lon="-8.6379190">
        <ele>55.0</ele>
        <time>2021-05-23T08:39:50Z</time>
      </trkpt>
      <trkpt lat="42.6934010" lon="-8.6379290">
        <ele>55.2</ele>
        <time>2021-05-23T08:39:51Z</time>
      </trkpt>
      <trkpt lat="42.6934120" lon="-8.6379360">
        <ele>55.3</ele>
        <time>2021-05-23T08:39:52Z</time>
      </trkpt>
      <trkpt lat="42.6934150" lon="-8.6379360">
        <ele>55.3</ele>
        <time>2021-05-23T08:39:53Z</time>
      </trkpt>
      <trkpt lat="42.6934220" lon="-8.6379460">
        <ele>55.4</ele>
        <time>2021-05-23T08:39:54Z</time>
      </trkpt>
      <trkpt lat="42.6934320" lon="-8.6379510">
        <ele>55.5</ele>
        <time>2021-05-23T08:39:55Z</time>
      </trkpt>
      <trkpt lat="42.6934420" lon="-8.6379570">
        <ele>55.6</ele>
        <time>2021-05-23T08:39:56Z</time>
      </trkpt>
      <trkpt lat="42.6934520" lon="-8.6379600">
        <ele>55.7</ele>
        <time>2021-05-23T08:39:57Z</time>
      </trkpt>
      <trkpt lat="42.6934640" lon="-8.6379560">
        <ele>55.8</ele>
        <time>2021-05-23T08:39:58Z</time>
      </trkpt>
      <trkpt lat="42.6934750" lon="-8.6379550">
        <ele>55.8</ele>
        <time>2021-05-23T08:39:59Z</time>
      </trkpt>
      <trkpt lat="42.6934850" lon="-8.6379550">
        <ele>55.8</ele>
        <time>2021-05-23T08:40:00Z</time>
      </trkpt>
      <trkpt lat="42.6934900" lon="-8.6379520">
        <ele>55.8</ele>
        <time>2021-05-23T08:40:01Z</time>
      </trkpt>
      <trkpt lat="42.6934930" lon="-8.6379580">
        <ele>55.8</ele>
        <time>2021-05-23T08:40:02Z</time>
      </trkpt>
      <trkpt lat="42.6935020" lon="-8.6379620">
        <ele>55.8</ele>
        <time>2021-05-23T08:40:03Z</time>
      </trkpt>
      <trkpt lat="42.6935110" lon="-8.6379700">
        <ele>55.9</ele>
        <time>2021-05-23T08:40:04Z</time>
      </trkpt>
      <trkpt lat="42.6935210" lon="-8.6379790">
        <ele>55.9</ele>
        <time>2021-05-23T08:40:05Z</time>
      </trkpt>
      <trkpt lat="42.6935340" lon="-8.6379920">
        <ele>55.9</ele>
        <time>2021-05-23T08:40:06Z</time>
      </trkpt>
      <trkpt lat="42.6935430" lon="-8.6379930">
        <ele>55.9</ele>
        <time>2021-05-23T08:40:07Z</time>
      </trkpt>
      <trkpt lat="42.6935490" lon="-8.6379910">
        <ele>56.0</ele>
        <time>2021-05-23T08:40:08Z</time>
      </trkpt>
      <trkpt lat="42.6935700" lon="-8.6379980">
        <ele>56.0</ele>
        <time>2021-05-23T08:40:09Z</time>
      </trkpt>
      <trkpt lat="42.6935770" lon="-8.6380010">
        <ele>56.0</ele>
        <time>2021-05-23T08:40:10Z</time>
      </trkpt>
      <trkpt lat="42.6935840" lon="-8.6380040">
        <ele>56.0</ele>
        <time>2021-05-23T08:40:11Z</time>
      </trkpt>
      <trkpt lat="42.6935910" lon="-8.6380030">
        <ele>56.0</ele>
        <time>2021-05-23T08:40:12Z</time>
      </trkpt>
      <trkpt lat="42.6935990" lon="-8.6380060">
        <ele>56.0</ele>
        <time>2021-05-23T08:40:13Z</time>
      </trkpt>
      <trkpt lat="42.6936060" lon="-8.6380080">
        <ele>56.1</ele>
        <time>2021-05-23T08:40:14Z</time>
      </trkpt>
      <trkpt lat="42.6936140" lon="-8.6380110">
        <ele>56.1</ele>
        <time>2021-05-23T08:40:15Z</time>
      </trkpt>
      <trkpt lat="42.6936210" lon="-8.6380140">
        <ele>56.1</ele>
        <time>2021-05-23T08:40:16Z</time>
      </trkpt>
      <trkpt lat="42.6936320" lon="-8.6380240">
        <ele>56.1</ele>
        <time>2021-05-23T08:40:17Z</time>
      </trkpt>
      <trkpt lat="42.6936410" lon="-8.6380300">
        <ele>56.1</ele>
        <time>2021-05-23T08:40:18Z</time>
      </trkpt>
      <trkpt lat="42.6936560" lon="-8.6380270">
        <ele>56.1</ele>
        <time>2021-05-23T08:40:19Z</time>
      </trkpt>
      <trkpt lat="42.6936640" lon="-8.6380310">
        <ele>56.2</ele>
        <time>2021-05-23T08:40:20Z</time>
      </trkpt>
      <trkpt lat="42.6936810" lon="-8.6380380">
        <ele>56.2</ele>
        <time>2021-05-23T08:40:21Z</time>
      </trkpt>
      <trkpt lat="42.6936900" lon="-8.6380450">
        <ele>56.2</ele>
        <time>2021-05-23T08:40:22Z</time>
      </trkpt>
      <trkpt lat="42.6937010" lon="-8.6380530">
        <ele>56.2</ele>
        <time>2021-05-23T08:40:23Z</time>
      </trkpt>
      <trkpt lat="42.6937020" lon="-8.6380570">
        <ele>56.2</ele>
        <time>2021-05-23T08:40:24Z</time>
      </trkpt>
      <trkpt lat="42.6937100" lon="-8.6380640">
        <ele>56.2</ele>
        <time>2021-05-23T08:40:25Z</time>
      </trkpt>
      <trkpt lat="42.6937160" lon="-8.6380680">
        <ele>56.3</ele>
        <time>2021-05-23T08:40:26Z</time>
      </trkpt>
      <trkpt lat="42.6937260" lon="-8.6380690">
        <ele>56.3</ele>
        <time>2021-05-23T08:40:27Z</time>
      </trkpt>
      <trkpt lat="42.6937320" lon="-8.6380690">
        <ele>56.3</ele>
        <time>2021-05-23T08:40:28Z</time>
      </trkpt>
      <trkpt lat="42.6937400" lon="-8.6380750">
        <ele>56.3</ele>
        <time>2021-05-23T08:40:29Z</time>
      </trkpt>
      <trkpt lat="42.6937580" lon="-8.6380790">
        <ele>56.3</ele>
        <time>2021-05-23T08:40:30Z</time>
      </trkpt>
      <trkpt lat="42.6937680" lon="-8.6380800">
        <ele>56.3</ele>
        <time>2021-05-23T08:40:31Z</time>
      </trkpt>
      <trkpt lat="42.6937770" lon="-8.6380820">
        <ele>56.4</ele>
        <time>2021-05-23T08:40:32Z</time>
      </trkpt>
      <trkpt lat="42.6937940" lon="-8.6380900">
        <ele>56.4</ele>
        <time>2021-05-23T08:40:33Z</time>
      </trkpt>
      <trkpt lat="42.6938000" lon="-8.6380920">
        <ele>56.4</ele>
        <time>2021-05-23T08:40:34Z</time>
      </trkpt>
      <trkpt lat="42.6938060" lon="-8.6380950">
        <ele>56.4</ele>
        <time>2021-05-23T08:40:35Z</time>
      </trkpt>
      <trkpt lat="42.6938120" lon="-8.6380970">
        <ele>56.4</ele>
        <time>2021-05-23T08:40:36Z</time>
      </trkpt>
      <trkpt lat="42.6938180" lon="-8.6381000">
        <ele>56.4</ele>
        <time>2021-05-23T08:40:37Z</time>
      </trkpt>
      <trkpt lat="42.6938380" lon="-8.6381010">
        <ele>56.5</ele>
        <time>2021-05-23T08:40:38Z</time>
      </trkpt>
      <trkpt lat="42.6938460" lon="-8.6381030">
        <ele>56.5</ele>
        <time>2021-05-23T08:40:39Z</time>
      </trkpt>
      <trkpt lat="42.6938530" lon="-8.6381060">
        <ele>56.5</ele>
        <time>2021-05-23T08:40:40Z</time>
      </trkpt>
      <trkpt lat="42.6938610" lon="-8.6381090">
        <ele>56.5</ele>
        <time>2021-05-23T08:40:41Z</time>
      </trkpt>
      <trkpt lat="42.6938730" lon="-8.6381160">
        <ele>56.6</ele>
        <time>2021-05-23T08:40:42Z</time>
      </trkpt>
      <trkpt lat="42.6938920" lon="-8.6381190">
        <ele>56.6</ele>
        <time>2021-05-23T08:40:43Z</time>
      </trkpt>
      <trkpt lat="42.6939190" lon="-8.6381290">
        <ele>56.7</ele>
        <time>2021-05-23T08:40:44Z</time>
      </trkpt>
      <trkpt lat="42.6939270" lon="-8.6381350">
        <ele>56.7</ele>
        <time>2021-05-23T08:40:45Z</time>
      </trkpt>
      <trkpt lat="42.6939440" lon="-8.6381450">
        <ele>56.7</ele>
        <time>2021-05-23T08:40:46Z</time>
      </trkpt>
      <trkpt lat="42.6939540" lon="-8.6381490">
        <ele>56.8</ele>
        <time>2021-05-23T08:40:47Z</time>
      </trkpt>
      <trkpt lat="42.6939630" lon="-8.6381540">
        <ele>56.8</ele>
        <time>2021-05-23T08:40:48Z</time>
      </trkpt>
      <trkpt lat="42.6939770" lon="-8.6381660">
        <ele>56.8</ele>
        <time>2021-05-23T08:40:49Z</time>
      </trkpt>
      <trkpt lat="42.6939880" lon="-8.6381690">
        <ele>56.9</ele>
        <time>2021-05-23T08:40:50Z</time>
      </trkpt>
      <trkpt lat="42.6940060" lon="-8.6381740">
        <ele>56.9</ele>
        <time>2021-05-23T08:40:51Z</time>
      </trkpt>
      <trkpt lat="42.6940160" lon="-8.6381770">
        <ele>56.9</ele>
        <time>2021-05-23T08:40:52Z</time>
      </trkpt>
      <trkpt lat="42.6940250" lon="-8.6381810">
        <ele>56.9</ele>
        <time>2021-05-23T08:40:53Z</time>
      </trkpt>
      <trkpt lat="42.6940420" lon="-8.6381830">
        <ele>57.0</ele>
        <time>2021-05-23T08:40:54Z</time>
      </trkpt>
      <trkpt lat="42.6940540" lon="-8.6381930">
        <ele>57.0</ele>
        <time>2021-05-23T08:40:55Z</time>
      </trkpt>
      <trkpt lat="42.6940550" lon="-8.6381910">
        <ele>57.0</ele>
        <time>2021-05-23T08:40:56Z</time>
      </trkpt>
      <trkpt lat="42.6940690" lon="-8.6381910">
        <ele>57.0</ele>
        <time>2021-05-23T08:40:57Z</time>
      </trkpt>
      <trkpt lat="42.6940830" lon="-8.6381920">
        <ele>57.1</ele>
        <time>2021-05-23T08:40:58Z</time>
      </trkpt>
      <trkpt lat="42.6940910" lon="-8.6381930">
        <ele>57.1</ele>
        <time>2021-05-23T08:40:59Z</time>
      </trkpt>
      <trkpt lat="42.6941020" lon="-8.6381970">
        <ele>57.1</ele>
        <time>2021-05-23T08:41:00Z</time>
      </trkpt>
      <trkpt lat="42.6941110" lon="-8.6381960">
        <ele>57.1</ele>
        <time>2021-05-23T08:41:01Z</time>
      </trkpt>
      <trkpt lat="42.6941180" lon="-8.6381930">
        <ele>57.1</ele>
        <time>2021-05-23T08:41:02Z</time>
      </trkpt>
      <trkpt lat="42.6941340" lon="-8.6381930">
        <ele>57.1</ele>
        <time>2021-05-23T08:41:03Z</time>
      </trkpt>
      <trkpt lat="42.6941450" lon="-8.6381990">
        <ele>57.1</ele>
        <time>2021-05-23T08:41:04Z</time>
      </trkpt>
      <trkpt lat="42.6941630" lon="-8.6382020">
        <ele>57.1</ele>
        <time>2021-05-23T08:41:05Z</time>
      </trkpt>
      <trkpt lat="42.6941670" lon="-8.6382020">
        <ele>57.1</ele>
        <time>2021-05-23T08:41:06Z</time>
      </trkpt>
      <trkpt lat="42.6941780" lon="-8.6382010">
        <ele>57.2</ele>
        <time>2021-05-23T08:41:07Z</time>
      </trkpt>
      <trkpt lat="42.6941900" lon="-8.6381990">
        <ele>57.2</ele>
        <time>2021-05-23T08:41:08Z</time>
      </trkpt>
      <trkpt lat="42.6941980" lon="-8.6382000">
        <ele>57.2</ele>
        <time>2021-05-23T08:41:09Z</time>
      </trkpt>
      <trkpt lat="42.6942070" lon="-8.6382020">
        <ele>57.2</ele>
        <time>2021-05-23T08:41:10Z</time>
      </trkpt>
      <trkpt lat="42.6942150" lon="-8.6382040">
        <ele>57.2</ele>
        <time>2021-05-23T08:41:11Z</time>
      </trkpt>
      <trkpt lat="42.6942210" lon="-8.6382040">
        <ele>57.2</ele>
        <time>2021-05-23T08:41:12Z</time>
      </trkpt>
      <trkpt lat="42.6942430" lon="-8.6382020">
        <ele>57.2</ele>
        <time>2021-05-23T08:41:13Z</time>
      </trkpt>
      <trkpt lat="42.6942530" lon="-8.6382030">
        <ele>57.2</ele>
        <time>2021-05-23T08:41:14Z</time>
      </trkpt>
      <trkpt lat="42.6942620" lon="-8.6382070">
        <ele>57.2</ele>
        <time>2021-05-23T08:41:15Z</time>
      </trkpt>
      <trkpt lat="42.6942610" lon="-8.6382080">
        <ele>57.2</ele>
        <time>2021-05-23T08:41:16Z</time>
      </trkpt>
      <trkpt lat="42.6942730" lon="-8.6382170">
        <ele>57.2</ele>
        <time>2021-05-23T08:41:17Z</time>
      </trkpt>
      <trkpt lat="42.6942800" lon="-8.6382200">
        <ele>57.2</ele>
        <time>2021-05-23T08:41:18Z</time>
      </trkpt>
      <trkpt lat="42.6942820" lon="-8.6382220">
        <ele>57.2</ele>
        <time>2021-05-23T08:41:19Z</time>
      </trkpt>
      <trkpt lat="42.6942950" lon="-8.6382250">
        <ele>57.2</ele>
        <time>2021-05-23T08:41:20Z</time>
      </trkpt>
      <trkpt lat="42.6943070" lon="-8.6382310">
        <ele>57.2</ele>
        <time>2021-05-23T08:41:21Z</time>
      </trkpt>
      <trkpt lat="42.6943290" lon="-8.6382330">
        <ele>57.1</ele>
        <time>2021-05-23T08:41:22Z</time>
      </trkpt>
      <trkpt lat="42.6943360" lon="-8.6382320">
        <ele>57.1</ele>
        <time>2021-05-23T08:41:23Z</time>
      </trkpt>
      <trkpt lat="42.6943440" lon="-8.6382320">
        <ele>57.1</ele>
        <time>2021-05-23T08:41:24Z</time>
      </trkpt>
      <trkpt lat="42.6943570" lon="-8.6382390">
        <ele>57.1</ele>
        <time>2021-05-23T08:41:25Z</time>
      </trkpt>
      <trkpt lat="42.6943660" lon="-8.6382390">
        <ele>57.1</ele>
        <time>2021-05-23T08:41:26Z</time>
      </trkpt>
      <trkpt lat="42.6943750" lon="-8.6382390">
        <ele>57.1</ele>
        <time>2021-05-23T08:41:27Z</time>
      </trkpt>
      <trkpt lat="42.6943850" lon="-8.6382380">
        <ele>57.1</ele>
        <time>2021-05-23T08:41:28Z</time>
      </trkpt>
      <trkpt lat="42.6943940" lon="-8.6382380">
        <ele>57.1</ele>
        <time>2021-05-23T08:41:29Z</time>
      </trkpt>
      <trkpt lat="42.6944030" lon="-8.6382380">
        <ele>57.1</ele>
        <time>2021-05-23T08:41:30Z</time>
      </trkpt>
      <trkpt lat="42.6944120" lon="-8.6382380">
        <ele>57.1</ele>
        <time>2021-05-23T08:41:31Z</time>
      </trkpt>
      <trkpt lat="42.6944420" lon="-8.6382340">
        <ele>57.1</ele>
        <time>2021-05-23T08:41:32Z</time>
      </trkpt>
      <trkpt lat="42.6944520" lon="-8.6382430">
        <ele>57.1</ele>
        <time>2021-05-23T08:41:33Z</time>
      </trkpt>
      <trkpt lat="42.6944610" lon="-8.6382400">
        <ele>57.1</ele>
        <time>2021-05-23T08:41:34Z</time>
      </trkpt>
      <trkpt lat="42.6944660" lon="-8.6382480">
        <ele>57.1</ele>
        <time>2021-05-23T08:41:35Z</time>
      </trkpt>
      <trkpt lat="42.6944730" lon="-8.6382560">
        <ele>57.1</ele>
        <time>2021-05-23T08:41:36Z</time>
      </trkpt>
      <trkpt lat="42.6944910" lon="-8.6382640">
        <ele>57.1</ele>
        <time>2021-05-23T08:41:37Z</time>
      </trkpt>
      <trkpt lat="42.6945000" lon="-8.6382630">
        <ele>57.1</ele>
        <time>2021-05-23T08:41:38Z</time>
      </trkpt>
      <trkpt lat="42.6945130" lon="-8.6382680">
        <ele>57.1</ele>
        <time>2021-05-23T08:41:39Z</time>
      </trkpt>
      <trkpt lat="42.6945190" lon="-8.6382720">
        <ele>57.1</ele>
        <time>2021-05-23T08:41:40Z</time>
      </trkpt>
      <trkpt lat="42.6945280" lon="-8.6382700">
        <ele>57.1</ele>
        <time>2021-05-23T08:41:41Z</time>
      </trkpt>
      <trkpt lat="42.6945410" lon="-8.6382690">
        <ele>57.1</ele>
        <time>2021-05-23T08:41:42Z</time>
      </trkpt>
      <trkpt lat="42.6945500" lon="-8.6382710">
        <ele>57.1</ele>
        <time>2021-05-23T08:41:43Z</time>
      </trkpt>
      <trkpt lat="42.6945610" lon="-8.6382750">
        <ele>57.1</ele>
        <time>2021-05-23T08:41:44Z</time>
      </trkpt>
      <trkpt lat="42.6945670" lon="-8.6382790">
        <ele>57.1</ele>
        <time>2021-05-23T08:41:45Z</time>
      </trkpt>
      <trkpt lat="42.6945770" lon="-8.6382800">
        <ele>57.1</ele>
        <time>2021-05-23T08:41:46Z</time>
      </trkpt>
      <trkpt lat="42.6945840" lon="-8.6382790">
        <ele>57.1</ele>
        <time>2021-05-23T08:41:47Z</time>
      </trkpt>
      <trkpt lat="42.6945830" lon="-8.6382790">
        <ele>57.1</ele>
        <time>2021-05-23T08:41:48Z</time>
      </trkpt>
      <trkpt lat="42.6945840" lon="-8.6382790">
        <ele>57.1</ele>
        <time>2021-05-23T08:41:49Z</time>
      </trkpt>
      <trkpt lat="42.6945900" lon="-8.6382820">
        <ele>57.1</ele>
        <time>2021-05-23T08:41:50Z</time>
      </trkpt>
      <trkpt lat="42.6946010" lon="-8.6382780">
        <ele>57.1</ele>
        <time>2021-05-23T08:41:51Z</time>
      </trkpt>
      <trkpt lat="42.6946090" lon="-8.6382780">
        <ele>57.2</ele>
        <time>2021-05-23T08:41:52Z</time>
      </trkpt>
      <trkpt lat="42.6946150" lon="-8.6382780">
        <ele>57.2</ele>
        <time>2021-05-23T08:41:53Z</time>
      </trkpt>
      <trkpt lat="42.6946220" lon="-8.6382800">
        <ele>57.2</ele>
        <time>2021-05-23T08:41:54Z</time>
      </trkpt>
      <trkpt lat="42.6946320" lon="-8.6382680">
        <ele>57.2</ele>
        <time>2021-05-23T08:41:55Z</time>
      </trkpt>
      <trkpt lat="42.6946390" lon="-8.6382680">
        <ele>57.2</ele>
        <time>2021-05-23T08:41:56Z</time>
      </trkpt>
      <trkpt lat="42.6946470" lon="-8.6382680">
        <ele>57.2</ele>
        <time>2021-05-23T08:41:57Z</time>
      </trkpt>
      <trkpt lat="42.6946540" lon="-8.6382690">
        <ele>57.3</ele>
        <time>2021-05-23T08:41:58Z</time>
      </trkpt>
      <trkpt lat="42.6946610" lon="-8.6382690">
        <ele>57.3</ele>
        <time>2021-05-23T08:41:59Z</time>
      </trkpt>
      <trkpt lat="42.6946690" lon="-8.6382690">
        <ele>57.3</ele>
        <time>2021-05-23T08:42:00Z</time>
      </trkpt>
      <trkpt lat="42.6946870" lon="-8.6382670">
        <ele>57.3</ele>
        <time>2021-05-23T08:42:01Z</time>
      </trkpt>
      <trkpt lat="42.6946950" lon="-8.6382670">
        <ele>57.4</ele>
        <time>2021-05-23T08:42:02Z</time>
      </trkpt>
      <trkpt lat="42.6947020" lon="-8.6382680">
        <ele>57.4</ele>
        <time>2021-05-23T08:42:03Z</time>
      </trkpt>
      <trkpt lat="42.6947100" lon="-8.6382680">
        <ele>57.4</ele>
        <time>2021-05-23T08:42:04Z</time>
      </trkpt>
      <trkpt lat="42.6947130" lon="-8.6382670">
        <ele>57.4</ele>
        <time>2021-05-23T08:42:05Z</time>
      </trkpt>
      <trkpt lat="42.6947240" lon="-8.6382700">
        <ele>57.5</ele>
        <time>2021-05-23T08:42:06Z</time>
      </trkpt>
      <trkpt lat="42.6947320" lon="-8.6382640">
        <ele>57.5</ele>
        <time>2021-05-23T08:42:07Z</time>
      </trkpt>
      <trkpt lat="42.6947450" lon="-8.6382720">
        <ele>57.6</ele>
        <time>2021-05-23T08:42:08Z</time>
      </trkpt>
      <trkpt lat="42.6947570" lon="-8.6382730">
        <ele>57.6</ele>
        <time>2021-05-23T08:42:09Z</time>
      </trkpt>
      <trkpt lat="42.6947640" lon="-8.6382730">
        <ele>57.6</ele>
        <time>2021-05-23T08:42:10Z</time>
      </trkpt>
      <trkpt lat="42.6947770" lon="-8.6382720">
        <ele>57.7</ele>
        <time>2021-05-23T08:42:11Z</time>
      </trkpt>
      <trkpt lat="42.6947880" lon="-8.6382720">
        <ele>57.7</ele>
        <time>2021-05-23T08:42:12Z</time>
      </trkpt>
      <trkpt lat="42.6947980" lon="-8.6382740">
        <ele>57.8</ele>
        <time>2021-05-23T08:42:13Z</time>
      </trkpt>
      <trkpt lat="42.6948060" lon="-8.6382790">
        <ele>57.8</ele>
        <time>2021-05-23T08:42:14Z</time>
      </trkpt>
      <trkpt lat="42.6948190" lon="-8.6382780">
        <ele>57.9</ele>
        <time>2021-05-23T08:42:15Z</time>
      </trkpt>
      <trkpt lat="42.6948230" lon="-8.6382800">
        <ele>57.9</ele>
        <time>2021-05-23T08:42:16Z</time>
      </trkpt>
      <trkpt lat="42.6948280" lon="-8.6382790">
        <ele>57.9</ele>
        <time>2021-05-23T08:42:17Z</time>
      </trkpt>
      <trkpt lat="42.6948410" lon="-8.6382700">
        <ele>58.0</ele>
        <time>2021-05-23T08:42:18Z</time>
      </trkpt>
      <trkpt lat="42.6948510" lon="-8.6382680">
        <ele>58.0</ele>
        <time>2021-05-23T08:42:19Z</time>
      </trkpt>
      <trkpt lat="42.6948580" lon="-8.6382660">
        <ele>58.1</ele>
        <time>2021-05-23T08:42:20Z</time>
      </trkpt>
      <trkpt lat="42.6948650" lon="-8.6382700">
        <ele>58.1</ele>
        <time>2021-05-23T08:42:21Z</time>
      </trkpt>
      <trkpt lat="42.6948630" lon="-8.6382730">
        <ele>58.1</ele>
        <time>2021-05-23T08:42:22Z</time>
      </trkpt>
      <trkpt lat="42.6948620" lon="-8.6382760">
        <ele>58.1</ele>
        <time>2021-05-23T08:42:23Z</time>
      </trkpt>
      <trkpt lat="42.6948630" lon="-8.6382740">
        <ele>58.1</ele>
        <time>2021-05-23T08:42:24Z</time>
      </trkpt>
      <trkpt lat="42.6948640" lon="-8.6382740">
        <ele>58.1</ele>
        <time>2021-05-23T08:42:25Z</time>
      </trkpt>
      <trkpt lat="42.6948630" lon="-8.6382720">
        <ele>58.1</ele>
        <time>2021-05-23T08:42:26Z</time>
      </trkpt>
      <trkpt lat="42.6948630" lon="-8.6382690">
        <ele>58.1</ele>
        <time>2021-05-23T08:42:27Z</time>
      </trkpt>
      <trkpt lat="42.6948630" lon="-8.6382680">
        <ele>58.1</ele>
        <time>2021-05-23T08:42:28Z</time>
      </trkpt>
      <trkpt lat="42.6948640" lon="-8.6382690">
        <ele>58.2</ele>
        <time>2021-05-23T08:42:29Z</time>
      </trkpt>
      <trkpt lat="42.6948630" lon="-8.6382730">
        <ele>58.2</ele>
        <time>2021-05-23T08:42:30Z</time>
      </trkpt>
      <trkpt lat="42.6948640" lon="-8.6382710">
        <ele>58.2</ele>
        <time>2021-05-23T08:42:31Z</time>
      </trkpt>
      <trkpt lat="42.6948660" lon="-8.6382720">
        <ele>58.2</ele>
        <time>2021-05-23T08:42:32Z</time>
      </trkpt>
      <trkpt lat="42.6948620" lon="-8.6382750">
        <ele>58.2</ele>
        <time>2021-05-23T08:42:33Z</time>
      </trkpt>
      <trkpt lat="42.6948590" lon="-8.6382700">
        <ele>58.2</ele>
        <time>2021-05-23T08:42:34Z</time>
      </trkpt>
      <trkpt lat="42.6948610" lon="-8.6382710">
        <ele>58.2</ele>
        <time>2021-05-23T08:42:35Z</time>
      </trkpt>
      <trkpt lat="42.6948570" lon="-8.6382700">
        <ele>58.3</ele>
        <time>2021-05-23T08:42:36Z</time>
      </trkpt>
      <trkpt lat="42.6948570" lon="-8.6382700">
        <ele>58.3</ele>
        <time>2021-05-23T08:42:37Z</time>
      </trkpt>
      <trkpt lat="42.6948580" lon="-8.6382720">
        <ele>58.3</ele>
        <time>2021-05-23T08:42:38Z</time>
      </trkpt>
      <trkpt lat="42.6948520" lon="-8.6382730">
        <ele>58.3</ele>
        <time>2021-05-23T08:42:39Z</time>
      </trkpt>
      <trkpt lat="42.6948460" lon="-8.6382790">
        <ele>58.3</ele>
        <time>2021-05-23T08:42:40Z</time>
      </trkpt>
      <trkpt lat="42.6948400" lon="-8.6382830">
        <ele>58.4</ele>
        <time>2021-05-23T08:42:41Z</time>
      </trkpt>
      <trkpt lat="42.6948440" lon="-8.6382840">
        <ele>58.4</ele>
        <time>2021-05-23T08:42:42Z</time>
      </trkpt>
      <trkpt lat="42.6948430" lon="-8.6382820">
        <ele>58.4</ele>
        <time>2021-05-23T08:42:43Z</time>
      </trkpt>
      <trkpt lat="42.6948390" lon="-8.6382830">
        <ele>58.4</ele>
        <time>2021-05-23T08:42:44Z</time>
      </trkpt>
      <trkpt lat="42.6948410" lon="-8.6382800">
        <ele>58.4</ele>
        <time>2021-05-23T08:42:45Z</time>
      </trkpt>
      <trkpt lat="42.6948400" lon="-8.6382790">
        <ele>58.4</ele>
        <time>2021-05-23T08:42:46Z</time>
      </trkpt>
      <trkpt lat="42.6948390" lon="-8.6382780">
        <ele>58.4</ele>
        <time>2021-05-23T08:42:47Z</time>
      </trkpt>
      <trkpt lat="42.6948370" lon="-8.6382770">
        <ele>58.4</ele>
        <time>2021-05-23T08:42:48Z</time>
      </trkpt>
      <trkpt lat="42.6948360" lon="-8.6382770">
        <ele>58.4</ele>
        <time>2021-05-23T08:42:49Z</time>
      </trkpt>
      <trkpt lat="42.6948350" lon="-8.6382760">
        <ele>58.4</ele>
        <time>2021-05-23T08:42:50Z</time>
      </trkpt>
      <trkpt lat="42.6948330" lon="-8.6382760">
        <ele>58.4</ele>
        <time>2021-05-23T08:42:51Z</time>
      </trkpt>
      <trkpt lat="42.6948330" lon="-8.6382760">
        <ele>58.4</ele>
        <time>2021-05-23T08:42:52Z</time>
      </trkpt>
      <trkpt lat="42.6948340" lon="-8.6382750">
        <ele>58.4</ele>
        <time>2021-05-23T08:42:53Z</time>
      </trkpt>
      <trkpt lat="42.6948350" lon="-8.6382740">
        <ele>58.4</ele>
        <time>2021-05-23T08:42:54Z</time>
      </trkpt>
      <trkpt lat="42.6948380" lon="-8.6382720">
        <ele>58.5</ele>
        <time>2021-05-23T08:42:55Z</time>
      </trkpt>
      <trkpt lat="42.6948390" lon="-8.6382700">
        <ele>58.5</ele>
        <time>2021-05-23T08:42:56Z</time>
      </trkpt>
      <trkpt lat="42.6948390" lon="-8.6382660">
        <ele>58.5</ele>
        <time>2021-05-23T08:42:57Z</time>
      </trkpt>
      <trkpt lat="42.6948370" lon="-8.6382650">
        <ele>58.5</ele>
        <time>2021-05-23T08:42:58Z</time>
      </trkpt>
      <trkpt lat="42.6948360" lon="-8.6382680">
        <ele>58.5</ele>
        <time>2021-05-23T08:42:59Z</time>
      </trkpt>
      <trkpt lat="42.6948370" lon="-8.6382740">
        <ele>58.5</ele>
        <time>2021-05-23T08:43:00Z</time>
      </trkpt>
      <trkpt lat="42.6948480" lon="-8.6382770">
        <ele>58.5</ele>
        <time>2021-05-23T08:43:01Z</time>
      </trkpt>
      <trkpt lat="42.6948530" lon="-8.6382760">
        <ele>58.6</ele>
        <time>2021-05-23T08:43:02Z</time>
      </trkpt>
      <trkpt lat="42.6948580" lon="-8.6382740">
        <ele>58.6</ele>
        <time>2021-05-23T08:43:03Z</time>
      </trkpt>
      <trkpt lat="42.6948610" lon="-8.6382710">
        <ele>58.6</ele>
        <time>2021-05-23T08:43:04Z</time>
      </trkpt>
      <trkpt lat="42.6948690" lon="-8.6382590">
        <ele>58.6</ele>
        <time>2021-05-23T08:43:05Z</time>
      </trkpt>
      <trkpt lat="42.6948700" lon="-8.6382600">
        <ele>58.6</ele>
        <time>2021-05-23T08:43:06Z</time>
      </trkpt>
      <trkpt lat="42.6948720" lon="-8.6382620">
        <ele>58.6</ele>
        <time>2021-05-23T08:43:07Z</time>
      </trkpt>
      <trkpt lat="42.6948740" lon="-8.6382560">
        <ele>58.6</ele>
        <time>2021-05-23T08:43:08Z</time>
      </trkpt>
      <trkpt lat="42.6948740" lon="-8.6382560">
        <ele>58.6</ele>
        <time>2021-05-23T08:43:09Z</time>
      </trkpt>
      <trkpt lat="42.6948760" lon="-8.6382580">
        <ele>58.6</ele>
        <time>2021-05-23T08:43:10Z</time>
      </trkpt>
      <trkpt lat="42.6948780" lon="-8.6382600">
        <ele>58.7</ele>
        <time>2021-05-23T08:43:11Z</time>
      </trkpt>
      <trkpt lat="42.6948810" lon="-8.6382610">
        <ele>58.7</ele>
        <time>2021-05-23T08:43:12Z</time>
      </trkpt>
      <trkpt lat="42.6948840" lon="-8.6382630">
        <ele>58.7</ele>
        <time>2021-05-23T08:43:13Z</time>
      </trkpt>
      <trkpt lat="42.6948860" lon="-8.6382590">
        <ele>58.7</ele>
        <time>2021-05-23T08:43:14Z</time>
      </trkpt>
      <trkpt lat="42.6948870" lon="-8.6382570">
        <ele>58.7</ele>
        <time>2021-05-23T08:43:15Z</time>
      </trkpt>
      <trkpt lat="42.6948880" lon="-8.6382590">
        <ele>58.7</ele>
        <time>2021-05-23T08:43:16Z</time>
      </trkpt>
      <trkpt lat="42.6948880" lon="-8.6382590">
        <ele>58.7</ele>
        <time>2021-05-23T08:43:17Z</time>
      </trkpt>
      <trkpt lat="42.6948870" lon="-8.6382590">
        <ele>58.7</ele>
        <time>2021-05-23T08:43:18Z</time>
      </trkpt>
      <trkpt lat="42.6948890" lon="-8.6382620">
        <ele>58.7</ele>
        <time>2021-05-23T08:43:19Z</time>
      </trkpt>
      <trkpt lat="42.6948900" lon="-8.6382630">
        <ele>58.7</ele>
        <time>2021-05-23T08:43:20Z</time>
      </trkpt>
      <trkpt lat="42.6948880" lon="-8.6382610">
        <ele>58.7</ele>
        <time>2021-05-23T08:43:21Z</time>
      </trkpt>
      <trkpt lat="42.6948900" lon="-8.6382600">
        <ele>58.7</ele>
        <time>2021-05-23T08:43:22Z</time>
      </trkpt>
      <trkpt lat="42.6948920" lon="-8.6382650">
        <ele>58.7</ele>
        <time>2021-05-23T08:43:23Z</time>
      </trkpt>
      <trkpt lat="42.6948910" lon="-8.6382660">
        <ele>58.7</ele>
        <time>2021-05-23T08:43:24Z</time>
      </trkpt>
      <trkpt lat="42.6948940" lon="-8.6382680">
        <ele>58.7</ele>
        <time>2021-05-23T08:43:25Z</time>
      </trkpt>
      <trkpt lat="42.6948930" lon="-8.6382850">
        <ele>58.8</ele>
        <time>2021-05-23T08:43:26Z</time>
      </trkpt>
      <trkpt lat="42.6948950" lon="-8.6382900">
        <ele>58.8</ele>
        <time>2021-05-23T08:43:27Z</time>
      </trkpt>
      <trkpt lat="42.6948960" lon="-8.6382900">
        <ele>58.8</ele>
        <time>2021-05-23T08:43:28Z</time>
      </trkpt>
      <trkpt lat="42.6948980" lon="-8.6382940">
        <ele>58.8</ele>
        <time>2021-05-23T08:43:29Z</time>
      </trkpt>
      <trkpt lat="42.6948980" lon="-8.6382940">
        <ele>58.8</ele>
        <time>2021-05-23T08:43:30Z</time>
      </trkpt>
      <trkpt lat="42.6949000" lon="-8.6382990">
        <ele>58.8</ele>
        <time>2021-05-23T08:43:31Z</time>
      </trkpt>
      <trkpt lat="42.6949000" lon="-8.6382990">
        <ele>58.8</ele>
        <time>2021-05-23T08:43:32Z</time>
      </trkpt>
      <trkpt lat="42.6949080" lon="-8.6382990">
        <ele>58.8</ele>
        <time>2021-05-23T08:43:33Z</time>
      </trkpt>
      <trkpt lat="42.6949090" lon="-8.6382960">
        <ele>58.8</ele>
        <time>2021-05-23T08:43:34Z</time>
      </trkpt>
      <trkpt lat="42.6949110" lon="-8.6382970">
        <ele>58.8</ele>
        <time>2021-05-23T08:43:35Z</time>
      </trkpt>
      <trkpt lat="42.6949090" lon="-8.6382960">
        <ele>58.8</ele>
        <time>2021-05-23T08:43:36Z</time>
      </trkpt>
      <trkpt lat="42.6949110" lon="-8.6382950">
        <ele>58.8</ele>
        <time>2021-05-23T08:43:37Z</time>
      </trkpt>
      <trkpt lat="42.6949100" lon="-8.6382960">
        <ele>58.8</ele>
        <time>2021-05-23T08:43:38Z</time>
      </trkpt>
      <trkpt lat="42.6949100" lon="-8.6382960">
        <ele>58.8</ele>
        <time>2021-05-23T08:43:39Z</time>
      </trkpt>
      <trkpt lat="42.6949120" lon="-8.6382960">
        <ele>58.8</ele>
        <time>2021-05-23T08:43:40Z</time>
      </trkpt>
      <trkpt lat="42.6949100" lon="-8.6382950">
        <ele>58.8</ele>
        <time>2021-05-23T08:43:41Z</time>
      </trkpt>
      <trkpt lat="42.6949100" lon="-8.6382950">
        <ele>58.8</ele>
        <time>2021-05-23T08:43:42Z</time>
      </trkpt>
      <trkpt lat="42.6949140" lon="-8.6382940">
        <ele>58.8</ele>
        <time>2021-05-23T08:43:43Z</time>
      </trkpt>
      <trkpt lat="42.6949170" lon="-8.6382870">
        <ele>58.8</ele>
        <time>2021-05-23T08:43:44Z</time>
      </trkpt>
      <trkpt lat="42.6949200" lon="-8.6382830">
        <ele>58.8</ele>
        <time>2021-05-23T08:43:45Z</time>
      </trkpt>
      <trkpt lat="42.6949270" lon="-8.6382840">
        <ele>58.8</ele>
        <time>2021-05-23T08:43:46Z</time>
      </trkpt>
      <trkpt lat="42.6949340" lon="-8.6382740">
        <ele>58.9</ele>
        <time>2021-05-23T08:43:47Z</time>
      </trkpt>
      <trkpt lat="42.6949410" lon="-8.6382690">
        <ele>58.9</ele>
        <time>2021-05-23T08:43:48Z</time>
      </trkpt>
      <trkpt lat="42.6949530" lon="-8.6382740">
        <ele>58.9</ele>
        <time>2021-05-23T08:43:49Z</time>
      </trkpt>
      <trkpt lat="42.6949700" lon="-8.6382820">
        <ele>58.9</ele>
        <time>2021-05-23T08:43:50Z</time>
      </trkpt>
      <trkpt lat="42.6949790" lon="-8.6382840">
        <ele>58.9</ele>
        <time>2021-05-23T08:43:51Z</time>
      </trkpt>
      <trkpt lat="42.6949870" lon="-8.6382870">
        <ele>58.9</ele>
        <time>2021-05-23T08:43:52Z</time>
      </trkpt>
      <trkpt lat="42.6949950" lon="-8.6382890">
        <ele>58.9</ele>
        <time>2021-05-23T08:43:53Z</time>
      </trkpt>
      <trkpt lat="42.6949980" lon="-8.6382850">
        <ele>58.9</ele>
        <time>2021-05-23T08:43:54Z</time>
      </trkpt>
      <trkpt lat="42.6950190" lon="-8.6382890">
        <ele>58.9</ele>
        <time>2021-05-23T08:43:55Z</time>
      </trkpt>
      <trkpt lat="42.6950280" lon="-8.6382880">
        <ele>58.9</ele>
        <time>2021-05-23T08:43:56Z</time>
      </trkpt>
      <trkpt lat="42.6950470" lon="-8.6382910">
        <ele>58.9</ele>
        <time>2021-05-23T08:43:57Z</time>
      </trkpt>
      <trkpt lat="42.6950550" lon="-8.6382920">
        <ele>58.9</ele>
        <time>2021-05-23T08:43:58Z</time>
      </trkpt>
      <trkpt lat="42.6950620" lon="-8.6382930">
        <ele>58.9</ele>
        <time>2021-05-23T08:43:59Z</time>
      </trkpt>
      <trkpt lat="42.6950690" lon="-8.6382940">
        <ele>58.9</ele>
        <time>2021-05-23T08:44:00Z</time>
      </trkpt>
      <trkpt lat="42.6950760" lon="-8.6383010">
        <ele>58.9</ele>
        <time>2021-05-23T08:44:01Z</time>
      </trkpt>
      <trkpt lat="42.6950860" lon="-8.6383020">
        <ele>58.9</ele>
        <time>2021-05-23T08:44:02Z</time>
      </trkpt>
      <trkpt lat="42.6950980" lon="-8.6382990">
        <ele>58.9</ele>
        <time>2021-05-23T08:44:03Z</time>
      </trkpt>
      <trkpt lat="42.6951040" lon="-8.6383040">
        <ele>58.9</ele>
        <time>2021-05-23T08:44:04Z</time>
      </trkpt>
      <trkpt lat="42.6951120" lon="-8.6382990">
        <ele>59.0</ele>
        <time>2021-05-23T08:44:05Z</time>
      </trkpt>
      <trkpt lat="42.6951300" lon="-8.6382970">
        <ele>59.0</ele>
        <time>2021-05-23T08:44:06Z</time>
      </trkpt>
      <trkpt lat="42.6951430" lon="-8.6382930">
        <ele>59.0</ele>
        <time>2021-05-23T08:44:07Z</time>
      </trkpt>
      <trkpt lat="42.6951360" lon="-8.6382990">
        <ele>59.0</ele>
        <time>2021-05-23T08:44:08Z</time>
      </trkpt>
      <trkpt lat="42.6951520" lon="-8.6382950">
        <ele>59.0</ele>
        <time>2021-05-23T08:44:09Z</time>
      </trkpt>
      <trkpt lat="42.6951630" lon="-8.6382940">
        <ele>59.0</ele>
        <time>2021-05-23T08:44:10Z</time>
      </trkpt>
      <trkpt lat="42.6951720" lon="-8.6382910">
        <ele>59.0</ele>
        <time>2021-05-23T08:44:11Z</time>
      </trkpt>
      <trkpt lat="42.6951790" lon="-8.6382930">
        <ele>59.0</ele>
        <time>2021-05-23T08:44:12Z</time>
      </trkpt>
      <trkpt lat="42.6951890" lon="-8.6383010">
        <ele>59.0</ele>
        <time>2021-05-23T08:44:13Z</time>
      </trkpt>
      <trkpt lat="42.6951960" lon="-8.6382930">
        <ele>59.0</ele>
        <time>2021-05-23T08:44:14Z</time>
      </trkpt>
      <trkpt lat="42.6952150" lon="-8.6382890">
        <ele>59.0</ele>
        <time>2021-05-23T08:44:15Z</time>
      </trkpt>
      <trkpt lat="42.6952230" lon="-8.6382900">
        <ele>59.0</ele>
        <time>2021-05-23T08:44:16Z</time>
      </trkpt>
      <trkpt lat="42.6952300" lon="-8.6382900">
        <ele>59.0</ele>
        <time>2021-05-23T08:44:17Z</time>
      </trkpt>
      <trkpt lat="42.6952380" lon="-8.6382910">
        <ele>59.0</ele>
        <time>2021-05-23T08:44:18Z</time>
      </trkpt>
      <trkpt lat="42.6952510" lon="-8.6382890">
        <ele>59.0</ele>
        <time>2021-05-23T08:44:19Z</time>
      </trkpt>
      <trkpt lat="42.6952650" lon="-8.6382930">
        <ele>59.0</ele>
        <time>2021-05-23T08:44:20Z</time>
      </trkpt>
      <trkpt lat="42.6952780" lon="-8.6382960">
        <ele>59.0</ele>
        <time>2021-05-23T08:44:21Z</time>
      </trkpt>
      <trkpt lat="42.6952920" lon="-8.6382950">
        <ele>59.0</ele>
        <time>2021-05-23T08:44:22Z</time>
      </trkpt>
      <trkpt lat="42.6952990" lon="-8.6382930">
        <ele>59.0</ele>
        <time>2021-05-23T08:44:23Z</time>
      </trkpt>
      <trkpt lat="42.6953190" lon="-8.6383030">
        <ele>59.0</ele>
        <time>2021-05-23T08:44:24Z</time>
      </trkpt>
      <trkpt lat="42.6953240" lon="-8.6383020">
        <ele>59.0</ele>
        <time>2021-05-23T08:44:25Z</time>
      </trkpt>
      <trkpt lat="42.6953410" lon="-8.6383100">
        <ele>59.0</ele>
        <time>2021-05-23T08:44:26Z</time>
      </trkpt>
      <trkpt lat="42.6953450" lon="-8.6383070">
        <ele>59.0</ele>
        <time>2021-05-23T08:44:27Z</time>
      </trkpt>
      <trkpt lat="42.6953530" lon="-8.6383060">
        <ele>59.1</ele>
        <time>2021-05-23T08:44:28Z</time>
      </trkpt>
      <trkpt lat="42.6953610" lon="-8.6383070">
        <ele>59.1</ele>
        <time>2021-05-23T08:44:29Z</time>
      </trkpt>
      <trkpt lat="42.6953820" lon="-8.6383130">
        <ele>59.1</ele>
        <time>2021-05-23T08:44:31Z</time>
      </trkpt>
      <trkpt lat="42.6953970" lon="-8.6383190">
        <ele>59.1</ele>
        <time>2021-05-23T08:44:32Z</time>
      </trkpt>
      <trkpt lat="42.6954220" lon="-8.6383270">
        <ele>59.1</ele>
        <time>2021-05-23T08:44:33Z</time>
      </trkpt>
      <trkpt lat="42.6954240" lon="-8.6383240">
        <ele>59.1</ele>
        <time>2021-05-23T08:44:34Z</time>
      </trkpt>
      <trkpt lat="42.6954340" lon="-8.6383290">
        <ele>59.1</ele>
        <time>2021-05-23T08:44:35Z</time>
      </trkpt>
      <trkpt lat="42.6954610" lon="-8.6383200">
        <ele>59.1</ele>
        <time>2021-05-23T08:44:37Z</time>
      </trkpt>
      <trkpt lat="42.6954650" lon="-8.6383200">
        <ele>59.1</ele>
        <time>2021-05-23T08:44:38Z</time>
      </trkpt>
      <trkpt lat="42.6954780" lon="-8.6383210">
        <ele>59.2</ele>
        <time>2021-05-23T08:44:40Z</time>
      </trkpt>
      <trkpt lat="42.6954880" lon="-8.6383270">
        <ele>59.2</ele>
        <time>2021-05-23T08:44:41Z</time>
      </trkpt>
      <trkpt lat="42.6954960" lon="-8.6383270">
        <ele>59.2</ele>
        <time>2021-05-23T08:44:42Z</time>
      </trkpt>
      <trkpt lat="42.6955020" lon="-8.6383260">
        <ele>59.2</ele>
        <time>2021-05-23T08:44:43Z</time>
      </trkpt>
      <trkpt lat="42.6955130" lon="-8.6383370">
        <ele>59.2</ele>
        <time>2021-05-23T08:44:44Z</time>
      </trkpt>
      <trkpt lat="42.6955220" lon="-8.6383400">
        <ele>59.2</ele>
        <time>2021-05-23T08:44:45Z</time>
      </trkpt>
      <trkpt lat="42.6955350" lon="-8.6383500">
        <ele>59.2</ele>
        <time>2021-05-23T08:44:46Z</time>
      </trkpt>
      <trkpt lat="42.6955370" lon="-8.6383470">
        <ele>59.2</ele>
        <time>2021-05-23T08:44:47Z</time>
      </trkpt>
      <trkpt lat="42.6955420" lon="-8.6383500">
        <ele>59.2</ele>
        <time>2021-05-23T08:44:48Z</time>
      </trkpt>
      <trkpt lat="42.6955780" lon="-8.6383520">
        <ele>59.3</ele>
        <time>2021-05-23T08:44:49Z</time>
      </trkpt>
      <trkpt lat="42.6955830" lon="-8.6383590">
        <ele>59.3</ele>
        <time>2021-05-23T08:44:50Z</time>
      </trkpt>
      <trkpt lat="42.6955960" lon="-8.6383650">
        <ele>59.3</ele>
        <time>2021-05-23T08:44:51Z</time>
      </trkpt>
      <trkpt lat="42.6956040" lon="-8.6383660">
        <ele>59.3</ele>
        <time>2021-05-23T08:44:52Z</time>
      </trkpt>
      <trkpt lat="42.6956230" lon="-8.6383770">
        <ele>59.3</ele>
        <time>2021-05-23T08:44:53Z</time>
      </trkpt>
      <trkpt lat="42.6956360" lon="-8.6383820">
        <ele>59.3</ele>
        <time>2021-05-23T08:44:54Z</time>
      </trkpt>
      <trkpt lat="42.6956520" lon="-8.6383850">
        <ele>59.4</ele>
        <time>2021-05-23T08:44:55Z</time>
      </trkpt>
      <trkpt lat="42.6956700" lon="-8.6383960">
        <ele>59.4</ele>
        <time>2021-05-23T08:44:56Z</time>
      </trkpt>
      <trkpt lat="42.6956940" lon="-8.6384010">
        <ele>59.4</ele>
        <time>2021-05-23T08:44:57Z</time>
      </trkpt>
      <trkpt lat="42.6957080" lon="-8.6384050">
        <ele>59.4</ele>
        <time>2021-05-23T08:44:58Z</time>
      </trkpt>
      <trkpt lat="42.6957210" lon="-8.6384090">
        <ele>59.5</ele>
        <time>2021-05-23T08:44:59Z</time>
      </trkpt>
      <trkpt lat="42.6957340" lon="-8.6384230">
        <ele>59.5</ele>
        <time>2021-05-23T08:45:00Z</time>
      </trkpt>
      <trkpt lat="42.6957430" lon="-8.6384310">
        <ele>59.5</ele>
        <time>2021-05-23T08:45:01Z</time>
      </trkpt>
      <trkpt lat="42.6957510" lon="-8.6384400">
        <ele>59.5</ele>
        <time>2021-05-23T08:45:02Z</time>
      </trkpt>
      <trkpt lat="42.6957600" lon="-8.6384440">
        <ele>59.5</ele>
        <time>2021-05-23T08:45:03Z</time>
      </trkpt>
      <trkpt lat="42.6957690" lon="-8.6384550">
        <ele>59.5</ele>
        <time>2021-05-23T08:45:04Z</time>
      </trkpt>
      <trkpt lat="42.6957820" lon="-8.6384570">
        <ele>59.5</ele>
        <time>2021-05-23T08:45:05Z</time>
      </trkpt>
      <trkpt lat="42.6957900" lon="-8.6384680">
        <ele>59.5</ele>
        <time>2021-05-23T08:45:06Z</time>
      </trkpt>
      <trkpt lat="42.6958060" lon="-8.6384760">
        <ele>59.5</ele>
        <time>2021-05-23T08:45:07Z</time>
      </trkpt>
      <trkpt lat="42.6958110" lon="-8.6384750">
        <ele>59.5</ele>
        <time>2021-05-23T08:45:08Z</time>
      </trkpt>
      <trkpt lat="42.6958250" lon="-8.6384830">
        <ele>59.5</ele>
        <time>2021-05-23T08:45:09Z</time>
      </trkpt>
      <trkpt lat="42.6958350" lon="-8.6384950">
        <ele>59.5</ele>
        <time>2021-05-23T08:45:10Z</time>
      </trkpt>
      <trkpt lat="42.6958530" lon="-8.6385130">
        <ele>59.5</ele>
        <time>2021-05-23T08:45:11Z</time>
      </trkpt>
      <trkpt lat="42.6958580" lon="-8.6385190">
        <ele>59.5</ele>
        <time>2021-05-23T08:45:12Z</time>
      </trkpt>
      <trkpt lat="42.6958640" lon="-8.6385260">
        <ele>59.5</ele>
        <time>2021-05-23T08:45:13Z</time>
      </trkpt>
      <trkpt lat="42.6958690" lon="-8.6385310">
        <ele>59.5</ele>
        <time>2021-05-23T08:45:14Z</time>
      </trkpt>
      <trkpt lat="42.6958780" lon="-8.6385370">
        <ele>59.5</ele>
        <time>2021-05-23T08:45:15Z</time>
      </trkpt>
      <trkpt lat="42.6958890" lon="-8.6385480">
        <ele>59.5</ele>
        <time>2021-05-23T08:45:16Z</time>
      </trkpt>
      <trkpt lat="42.6959050" lon="-8.6385620">
        <ele>59.5</ele>
        <time>2021-05-23T08:45:17Z</time>
      </trkpt>
      <trkpt lat="42.6959110" lon="-8.6385710">
        <ele>59.5</ele>
        <time>2021-05-23T08:45:18Z</time>
      </trkpt>
      <trkpt lat="42.6959180" lon="-8.6385800">
        <ele>59.5</ele>
        <time>2021-05-23T08:45:19Z</time>
      </trkpt>
      <trkpt lat="42.6959390" lon="-8.6386010">
        <ele>59.5</ele>
        <time>2021-05-23T08:45:20Z</time>
      </trkpt>
      <trkpt lat="42.6959450" lon="-8.6386100">
        <ele>59.5</ele>
        <time>2021-05-23T08:45:21Z</time>
      </trkpt>
      <trkpt lat="42.6959500" lon="-8.6386200">
        <ele>59.5</ele>
        <time>2021-05-23T08:45:22Z</time>
      </trkpt>
      <trkpt lat="42.6959650" lon="-8.6386380">
        <ele>59.5</ele>
        <time>2021-05-23T08:45:23Z</time>
      </trkpt>
      <trkpt lat="42.6959720" lon="-8.6386450">
        <ele>59.5</ele>
        <time>2021-05-23T08:45:24Z</time>
      </trkpt>
      <trkpt lat="42.6959800" lon="-8.6386510">
        <ele>59.5</ele>
        <time>2021-05-23T08:45:25Z</time>
      </trkpt>
      <trkpt lat="42.6959830" lon="-8.6386630">
        <ele>59.5</ele>
        <time>2021-05-23T08:45:26Z</time>
      </trkpt>
      <trkpt lat="42.6959890" lon="-8.6386770">
        <ele>59.5</ele>
        <time>2021-05-23T08:45:27Z</time>
      </trkpt>
      <trkpt lat="42.6959960" lon="-8.6386760">
        <ele>59.6</ele>
        <time>2021-05-23T08:45:28Z</time>
      </trkpt>
      <trkpt lat="42.6959970" lon="-8.6386720">
        <ele>59.6</ele>
        <time>2021-05-23T08:45:29Z</time>
      </trkpt>
      <trkpt lat="42.6960010" lon="-8.6386690">
        <ele>59.6</ele>
        <time>2021-05-23T08:45:30Z</time>
      </trkpt>
      <trkpt lat="42.6960030" lon="-8.6386650">
        <ele>59.6</ele>
        <time>2021-05-23T08:45:31Z</time>
      </trkpt>
      <trkpt lat="42.6960040" lon="-8.6386580">
        <ele>59.6</ele>
        <time>2021-05-23T08:45:32Z</time>
      </trkpt>
      <trkpt lat="42.6960080" lon="-8.6386560">
        <ele>59.6</ele>
        <time>2021-05-23T08:45:33Z</time>
      </trkpt>
      <trkpt lat="42.6960040" lon="-8.6386580">
        <ele>59.6</ele>
        <time>2021-05-23T08:45:34Z</time>
      </trkpt>
      <trkpt lat="42.6960090" lon="-8.6386590">
        <ele>59.6</ele>
        <time>2021-05-23T08:45:35Z</time>
      </trkpt>
      <trkpt lat="42.6960100" lon="-8.6386570">
        <ele>59.6</ele>
        <time>2021-05-23T08:45:36Z</time>
      </trkpt>
      <trkpt lat="42.6960130" lon="-8.6386560">
        <ele>59.6</ele>
        <time>2021-05-23T08:45:37Z</time>
      </trkpt>
      <trkpt lat="42.6960140" lon="-8.6386550">
        <ele>59.6</ele>
        <time>2021-05-23T08:45:38Z</time>
      </trkpt>
      <trkpt lat="42.6960160" lon="-8.6386580">
        <ele>59.6</ele>
        <time>2021-05-23T08:45:39Z</time>
      </trkpt>
      <trkpt lat="42.6960160" lon="-8.6386540">
        <ele>59.6</ele>
        <time>2021-05-23T08:45:40Z</time>
      </trkpt>
      <trkpt lat="42.6960070" lon="-8.6386540">
        <ele>59.6</ele>
        <time>2021-05-23T08:45:41Z</time>
      </trkpt>
      <trkpt lat="42.6960100" lon="-8.6386540">
        <ele>59.6</ele>
        <time>2021-05-23T08:45:42Z</time>
      </trkpt>
      <trkpt lat="42.6960180" lon="-8.6386560">
        <ele>59.6</ele>
        <time>2021-05-23T08:45:43Z</time>
      </trkpt>
      <trkpt lat="42.6960190" lon="-8.6386570">
        <ele>59.6</ele>
        <time>2021-05-23T08:45:44Z</time>
      </trkpt>
      <trkpt lat="42.6960160" lon="-8.6386610">
        <ele>59.6</ele>
        <time>2021-05-23T08:45:45Z</time>
      </trkpt>
      <trkpt lat="42.6960160" lon="-8.6386630">
        <ele>59.6</ele>
        <time>2021-05-23T08:45:46Z</time>
      </trkpt>
      <trkpt lat="42.6960240" lon="-8.6386620">
        <ele>59.6</ele>
        <time>2021-05-23T08:45:47Z</time>
      </trkpt>
      <trkpt lat="42.6960240" lon="-8.6386610">
        <ele>59.6</ele>
        <time>2021-05-23T08:45:48Z</time>
      </trkpt>
      <trkpt lat="42.6960200" lon="-8.6386640">
        <ele>59.6</ele>
        <time>2021-05-23T08:45:49Z</time>
      </trkpt>
      <trkpt lat="42.6960120" lon="-8.6386700">
        <ele>59.6</ele>
        <time>2021-05-23T08:45:50Z</time>
      </trkpt>
      <trkpt lat="42.6960060" lon="-8.6386720">
        <ele>59.6</ele>
        <time>2021-05-23T08:45:51Z</time>
      </trkpt>
      <trkpt lat="42.6960010" lon="-8.6386670">
        <ele>59.6</ele>
        <time>2021-05-23T08:45:52Z</time>
      </trkpt>
      <trkpt lat="42.6960000" lon="-8.6386700">
        <ele>59.6</ele>
        <time>2021-05-23T08:45:53Z</time>
      </trkpt>
      <trkpt lat="42.6959990" lon="-8.6386710">
        <ele>59.6</ele>
        <time>2021-05-23T08:45:54Z</time>
      </trkpt>
      <trkpt lat="42.6959940" lon="-8.6386720">
        <ele>59.6</ele>
        <time>2021-05-23T08:45:55Z</time>
      </trkpt>
      <trkpt lat="42.6959880" lon="-8.6386730">
        <ele>59.6</ele>
        <time>2021-05-23T08:45:56Z</time>
      </trkpt>
      <trkpt lat="42.6959890" lon="-8.6386720">
        <ele>59.6</ele>
        <time>2021-05-23T08:45:57Z</time>
      </trkpt>
      <trkpt lat="42.6959970" lon="-8.6386720">
        <ele>59.6</ele>
        <time>2021-05-23T08:45:58Z</time>
      </trkpt>
      <trkpt lat="42.6959990" lon="-8.6386660">
        <ele>59.6</ele>
        <time>2021-05-23T08:45:59Z</time>
      </trkpt>
      <trkpt lat="42.6960000" lon="-8.6386650">
        <ele>59.6</ele>
        <time>2021-05-23T08:46:00Z</time>
      </trkpt>
      <trkpt lat="42.6960080" lon="-8.6386620">
        <ele>59.6</ele>
        <time>2021-05-23T08:46:01Z</time>
      </trkpt>
      <trkpt lat="42.6960120" lon="-8.6386520">
        <ele>59.6</ele>
        <time>2021-05-23T08:46:02Z</time>
      </trkpt>
      <trkpt lat="42.6960090" lon="-8.6386610">
        <ele>59.6</ele>
        <time>2021-05-23T08:46:03Z</time>
      </trkpt>
      <trkpt lat="42.6960140" lon="-8.6386690">
        <ele>59.6</ele>
        <time>2021-05-23T08:46:04Z</time>
      </trkpt>
      <trkpt lat="42.6960160" lon="-8.6386830">
        <ele>59.6</ele>
        <time>2021-05-23T08:46:05Z</time>
      </trkpt>
      <trkpt lat="42.6960170" lon="-8.6386880">
        <ele>59.6</ele>
        <time>2021-05-23T08:46:06Z</time>
      </trkpt>
      <trkpt lat="42.6960210" lon="-8.6386910">
        <ele>59.6</ele>
        <time>2021-05-23T08:46:07Z</time>
      </trkpt>
      <trkpt lat="42.6960220" lon="-8.6386790">
        <ele>59.6</ele>
        <time>2021-05-23T08:46:08Z</time>
      </trkpt>
      <trkpt lat="42.6960240" lon="-8.6386760">
        <ele>59.6</ele>
        <time>2021-05-23T08:46:09Z</time>
      </trkpt>
      <trkpt lat="42.6960310" lon="-8.6386770">
        <ele>59.6</ele>
        <time>2021-05-23T08:46:10Z</time>
      </trkpt>
      <trkpt lat="42.6960160" lon="-8.6386700">
        <ele>59.6</ele>
        <time>2021-05-23T08:46:11Z</time>
      </trkpt>
      <trkpt lat="42.6960170" lon="-8.6386740">
        <ele>59.6</ele>
        <time>2021-05-23T08:46:12Z</time>
      </trkpt>
      <trkpt lat="42.6960160" lon="-8.6386780">
        <ele>59.6</ele>
        <time>2021-05-23T08:46:13Z</time>
      </trkpt>
      <trkpt lat="42.6960080" lon="-8.6386750">
        <ele>59.6</ele>
        <time>2021-05-23T08:46:14Z</time>
      </trkpt>
      <trkpt lat="42.6959890" lon="-8.6386870">
        <ele>59.6</ele>
        <time>2021-05-23T08:46:15Z</time>
      </trkpt>
      <trkpt lat="42.6959840" lon="-8.6386740">
        <ele>59.6</ele>
        <time>2021-05-23T08:46:16Z</time>
      </trkpt>
      <trkpt lat="42.6959820" lon="-8.6386710">
        <ele>59.6</ele>
        <time>2021-05-23T08:46:17Z</time>
      </trkpt>
      <trkpt lat="42.6959790" lon="-8.6386680">
        <ele>59.6</ele>
        <time>2021-05-23T08:46:18Z</time>
      </trkpt>
      <trkpt lat="42.6959760" lon="-8.6386650">
        <ele>59.6</ele>
        <time>2021-05-23T08:46:19Z</time>
      </trkpt>
      <trkpt lat="42.6959740" lon="-8.6386610">
        <ele>59.6</ele>
        <time>2021-05-23T08:46:20Z</time>
      </trkpt>
      <trkpt lat="42.6959710" lon="-8.6386580">
        <ele>59.6</ele>
        <time>2021-05-23T08:46:21Z</time>
      </trkpt>
      <trkpt lat="42.6959680" lon="-8.6386550">
        <ele>59.6</ele>
        <time>2021-05-23T08:46:22Z</time>
      </trkpt>
      <trkpt lat="42.6959660" lon="-8.6386520">
        <ele>59.6</ele>
        <time>2021-05-23T08:46:23Z</time>
      </trkpt>
      <trkpt lat="42.6959630" lon="-8.6386490">
        <ele>59.6</ele>
        <time>2021-05-23T08:46:24Z</time>
      </trkpt>
      <trkpt lat="42.6959720" lon="-8.6386400">
        <ele>59.6</ele>
        <time>2021-05-23T08:46:26Z</time>
      </trkpt>
      <trkpt lat="42.6959730" lon="-8.6386320">
        <ele>59.6</ele>
        <time>2021-05-23T08:46:27Z</time>
      </trkpt>
      <trkpt lat="42.6959790" lon="-8.6386290">
        <ele>59.6</ele>
        <time>2021-05-23T08:46:28Z</time>
      </trkpt>
      <trkpt lat="42.6959840" lon="-8.6386220">
        <ele>59.6</ele>
        <time>2021-05-23T08:46:29Z</time>
      </trkpt>
      <trkpt lat="42.6959870" lon="-8.6386250">
        <ele>59.6</ele>
        <time>2021-05-23T08:46:30Z</time>
      </trkpt>
      <trkpt lat="42.6959880" lon="-8.6386230">
        <ele>59.6</ele>
        <time>2021-05-23T08:46:31Z</time>
      </trkpt>
      <trkpt lat="42.6959860" lon="-8.6386240">
        <ele>59.6</ele>
        <time>2021-05-23T08:46:32Z</time>
      </trkpt>
      <trkpt lat="42.6959930" lon="-8.6386270">
        <ele>59.6</ele>
        <time>2021-05-23T08:46:33Z</time>
      </trkpt>
      <trkpt lat="42.6959920" lon="-8.6386260">
        <ele>59.6</ele>
        <time>2021-05-23T08:46:34Z</time>
      </trkpt>
      <trkpt lat="42.6959950" lon="-8.6386200">
        <ele>59.6</ele>
        <time>2021-05-23T08:46:35Z</time>
      </trkpt>
      <trkpt lat="42.6959990" lon="-8.6386240">
        <ele>59.6</ele>
        <time>2021-05-23T08:46:36Z</time>
      </trkpt>
      <trkpt lat="42.6960010" lon="-8.6386270">
        <ele>59.6</ele>
        <time>2021-05-23T08:46:37Z</time>
      </trkpt>
      <trkpt lat="42.6960050" lon="-8.6386350">
        <ele>59.6</ele>
        <time>2021-05-23T08:46:38Z</time>
      </trkpt>
      <trkpt lat="42.6960120" lon="-8.6386400">
        <ele>59.6</ele>
        <time>2021-05-23T08:46:39Z</time>
      </trkpt>
      <trkpt lat="42.6960220" lon="-8.6386430">
        <ele>59.6</ele>
        <time>2021-05-23T08:46:40Z</time>
      </trkpt>
      <trkpt lat="42.6960240" lon="-8.6386360">
        <ele>59.6</ele>
        <time>2021-05-23T08:46:41Z</time>
      </trkpt>
      <trkpt lat="42.6960250" lon="-8.6386290">
        <ele>59.6</ele>
        <time>2021-05-23T08:46:42Z</time>
      </trkpt>
      <trkpt lat="42.6960260" lon="-8.6386220">
        <ele>59.6</ele>
        <time>2021-05-23T08:46:43Z</time>
      </trkpt>
      <trkpt lat="42.6960270" lon="-8.6386150">
        <ele>59.6</ele>
        <time>2021-05-23T08:46:44Z</time>
      </trkpt>
      <trkpt lat="42.6960290" lon="-8.6386080">
        <ele>59.6</ele>
        <time>2021-05-23T08:46:45Z</time>
      </trkpt>
      <trkpt lat="42.6960300" lon="-8.6386010">
        <ele>59.6</ele>
        <time>2021-05-23T08:46:46Z</time>
      </trkpt>
      <trkpt lat="42.6960310" lon="-8.6385940">
        <ele>59.6</ele>
        <time>2021-05-23T08:46:47Z</time>
      </trkpt>
      <trkpt lat="42.6960390" lon="-8.6385960">
        <ele>59.7</ele>
        <time>2021-05-23T08:46:48Z</time>
      </trkpt>
      <trkpt lat="42.6960410" lon="-8.6386060">
        <ele>59.7</ele>
        <time>2021-05-23T08:46:49Z</time>
      </trkpt>
      <trkpt lat="42.6960440" lon="-8.6386150">
        <ele>59.7</ele>
        <time>2021-05-23T08:46:50Z</time>
      </trkpt>
      <trkpt lat="42.6960470" lon="-8.6386250">
        <ele>59.7</ele>
        <time>2021-05-23T08:46:51Z</time>
      </trkpt>
      <trkpt lat="42.6960490" lon="-8.6386350">
        <ele>59.7</ele>
        <time>2021-05-23T08:46:52Z</time>
      </trkpt>
      <trkpt lat="42.6960520" lon="-8.6386450">
        <ele>59.7</ele>
        <time>2021-05-23T08:46:53Z</time>
      </trkpt>
      <trkpt lat="42.6960560" lon="-8.6386530">
        <ele>59.7</ele>
        <time>2021-05-23T08:46:54Z</time>
      </trkpt>
      <trkpt lat="42.6960610" lon="-8.6386600">
        <ele>59.7</ele>
        <time>2021-05-23T08:46:55Z</time>
      </trkpt>
      <trkpt lat="42.6960640" lon="-8.6386590">
        <ele>59.7</ele>
        <time>2021-05-23T08:46:56Z</time>
      </trkpt>
      <trkpt lat="42.6960550" lon="-8.6386630">
        <ele>59.7</ele>
        <time>2021-05-23T08:46:57Z</time>
      </trkpt>
      <trkpt lat="42.6960510" lon="-8.6386690">
        <ele>59.7</ele>
        <time>2021-05-23T08:46:58Z</time>
      </trkpt>
      <trkpt lat="42.6960440" lon="-8.6386690">
        <ele>59.7</ele>
        <time>2021-05-23T08:46:59Z</time>
      </trkpt>
      <trkpt lat="42.6960380" lon="-8.6386520">
        <ele>59.7</ele>
        <time>2021-05-23T08:47:00Z</time>
      </trkpt>
      <trkpt lat="42.6960300" lon="-8.6386480">
        <ele>59.7</ele>
        <time>2021-05-23T08:47:01Z</time>
      </trkpt>
      <trkpt lat="42.6960510" lon="-8.6386710">
        <ele>59.7</ele>
        <time>2021-05-23T08:47:02Z</time>
      </trkpt>
      <trkpt lat="42.6960440" lon="-8.6386860">
        <ele>59.7</ele>
        <time>2021-05-23T08:47:03Z</time>
      </trkpt>
      <trkpt lat="42.6960460" lon="-8.6386940">
        <ele>59.7</ele>
        <time>2021-05-23T08:47:04Z</time>
      </trkpt>
      <trkpt lat="42.6960420" lon="-8.6386830">
        <ele>59.7</ele>
        <time>2021-05-23T08:47:05Z</time>
      </trkpt>
      <trkpt lat="42.6960400" lon="-8.6386840">
        <ele>59.7</ele>
        <time>2021-05-23T08:47:06Z</time>
      </trkpt>
      <trkpt lat="42.6960410" lon="-8.6386810">
        <ele>59.7</ele>
        <time>2021-05-23T08:47:07Z</time>
      </trkpt>
      <trkpt lat="42.6960510" lon="-8.6386810">
        <ele>59.7</ele>
        <time>2021-05-23T08:47:08Z</time>
      </trkpt>
      <trkpt lat="42.6960540" lon="-8.6386670">
        <ele>59.7</ele>
        <time>2021-05-23T08:47:09Z</time>
      </trkpt>
      <trkpt lat="42.6960400" lon="-8.6386460">
        <ele>59.7</ele>
        <time>2021-05-23T08:47:10Z</time>
      </trkpt>
      <trkpt lat="42.6960360" lon="-8.6386130">
        <ele>59.7</ele>
        <time>2021-05-23T08:47:11Z</time>
      </trkpt>
      <trkpt lat="42.6960290" lon="-8.6386030">
        <ele>59.7</ele>
        <time>2021-05-23T08:47:12Z</time>
      </trkpt>
      <trkpt lat="42.6960210" lon="-8.6385920">
        <ele>59.7</ele>
        <time>2021-05-23T08:47:13Z</time>
      </trkpt>
      <trkpt lat="42.6960220" lon="-8.6385850">
        <ele>59.7</ele>
        <time>2021-05-23T08:47:14Z</time>
      </trkpt>
      <trkpt lat="42.6960200" lon="-8.6385810">
        <ele>59.7</ele>
        <time>2021-05-23T08:47:15Z</time>
      </trkpt>
      <trkpt lat="42.6960190" lon="-8.6385770">
        <ele>59.7</ele>
        <time>2021-05-23T08:47:16Z</time>
      </trkpt>
      <trkpt lat="42.6960180" lon="-8.6385730">
        <ele>59.7</ele>
        <time>2021-05-23T08:47:17Z</time>
      </trkpt>
      <trkpt lat="42.6960160" lon="-8.6385690">
        <ele>59.7</ele>
        <time>2021-05-23T08:47:18Z</time>
      </trkpt>
      <trkpt lat="42.6960150" lon="-8.6385640">
        <ele>59.7</ele>
        <time>2021-05-23T08:47:19Z</time>
      </trkpt>
      <trkpt lat="42.6960130" lon="-8.6385600">
        <ele>59.7</ele>
        <time>2021-05-23T08:47:20Z</time>
      </trkpt>
      <trkpt lat="42.6960120" lon="-8.6385560">
        <ele>59.7</ele>
        <time>2021-05-23T08:47:21Z</time>
      </trkpt>
      <trkpt lat="42.6960110" lon="-8.6385520">
        <ele>59.7</ele>
        <time>2021-05-23T08:47:22Z</time>
      </trkpt>
      <trkpt lat="42.6960090" lon="-8.6385480">
        <ele>59.7</ele>
        <time>2021-05-23T08:47:23Z</time>
      </trkpt>
      <trkpt lat="42.6960080" lon="-8.6385440">
        <ele>59.7</ele>
        <time>2021-05-23T08:47:24Z</time>
      </trkpt>
      <trkpt lat="42.6960110" lon="-8.6385360">
        <ele>59.7</ele>
        <time>2021-05-23T08:47:25Z</time>
      </trkpt>
      <trkpt lat="42.6960090" lon="-8.6385310">
        <ele>59.7</ele>
        <time>2021-05-23T08:47:26Z</time>
      </trkpt>
      <trkpt lat="42.6960000" lon="-8.6385420">
        <ele>59.7</ele>
        <time>2021-05-23T08:47:27Z</time>
      </trkpt>
      <trkpt lat="42.6960140" lon="-8.6385500">
        <ele>59.7</ele>
        <time>2021-05-23T08:47:28Z</time>
      </trkpt>
      <trkpt lat="42.6959970" lon="-8.6385420">
        <ele>59.7</ele>
        <time>2021-05-23T08:47:29Z</time>
      </trkpt>
      <trkpt lat="42.6959850" lon="-8.6385370">
        <ele>59.8</ele>
        <time>2021-05-23T08:47:30Z</time>
      </trkpt>
      <trkpt lat="42.6959850" lon="-8.6385370">
        <ele>59.8</ele>
        <time>2021-05-23T08:47:31Z</time>
      </trkpt>
      <trkpt lat="42.6959850" lon="-8.6385370">
        <ele>59.8</ele>
        <time>2021-05-23T08:47:32Z</time>
      </trkpt>
      <trkpt lat="42.6959850" lon="-8.6385370">
        <ele>59.8</ele>
        <time>2021-05-23T08:47:33Z</time>
      </trkpt>
      <trkpt lat="42.6960260" lon="-8.6385720">
        <ele>59.8</ele>
        <time>2021-05-23T08:47:34Z</time>
      </trkpt>
      <trkpt lat="42.6960070" lon="-8.6385510">
        <ele>59.8</ele>
        <time>2021-05-23T08:47:35Z</time>
      </trkpt>
      <trkpt lat="42.6960060" lon="-8.6385530">
        <ele>59.8</ele>
        <time>2021-05-23T08:47:36Z</time>
      </trkpt>
      <trkpt lat="42.6960290" lon="-8.6385690">
        <ele>59.8</ele>
        <time>2021-05-23T08:47:37Z</time>
      </trkpt>
      <trkpt lat="42.6960420" lon="-8.6385950">
        <ele>59.8</ele>
        <time>2021-05-23T08:47:38Z</time>
      </trkpt>
      <trkpt lat="42.6960430" lon="-8.6385990">
        <ele>59.8</ele>
        <time>2021-05-23T08:47:39Z</time>
      </trkpt>
      <trkpt lat="42.6960350" lon="-8.6386120">
        <ele>59.8</ele>
        <time>2021-05-23T08:47:40Z</time>
      </trkpt>
      <trkpt lat="42.6960350" lon="-8.6386200">
        <ele>59.8</ele>
        <time>2021-05-23T08:47:41Z</time>
      </trkpt>
      <trkpt lat="42.6960320" lon="-8.6386340">
        <ele>59.8</ele>
        <time>2021-05-23T08:47:42Z</time>
      </trkpt>
      <trkpt lat="42.6960240" lon="-8.6386350">
        <ele>59.8</ele>
        <time>2021-05-23T08:47:43Z</time>
      </trkpt>
      <trkpt lat="42.6960130" lon="-8.6386210">
        <ele>59.8</ele>
        <time>2021-05-23T08:47:44Z</time>
      </trkpt>
      <trkpt lat="42.6960120" lon="-8.6386030">
        <ele>59.8</ele>
        <time>2021-05-23T08:47:45Z</time>
      </trkpt>
      <trkpt lat="42.6960120" lon="-8.6386010">
        <ele>59.8</ele>
        <time>2021-05-23T08:47:46Z</time>
      </trkpt>
      <trkpt lat="42.6960030" lon="-8.6385990">
        <ele>59.8</ele>
        <time>2021-05-23T08:47:47Z</time>
      </trkpt>
      <trkpt lat="42.6960050" lon="-8.6385950">
        <ele>59.8</ele>
        <time>2021-05-23T08:47:48Z</time>
      </trkpt>
      <trkpt lat="42.6960030" lon="-8.6385950">
        <ele>59.8</ele>
        <time>2021-05-23T08:47:49Z</time>
      </trkpt>
      <trkpt lat="42.6959960" lon="-8.6385900">
        <ele>59.8</ele>
        <time>2021-05-23T08:47:50Z</time>
      </trkpt>
      <trkpt lat="42.6959890" lon="-8.6385900">
        <ele>59.8</ele>
        <time>2021-05-23T08:47:51Z</time>
      </trkpt>
      <trkpt lat="42.6959900" lon="-8.6386100">
        <ele>59.8</ele>
        <time>2021-05-23T08:47:52Z</time>
      </trkpt>
      <trkpt lat="42.6959920" lon="-8.6386030">
        <ele>59.8</ele>
        <time>2021-05-23T08:47:53Z</time>
      </trkpt>
      <trkpt lat="42.6960000" lon="-8.6386210">
        <ele>59.8</ele>
        <time>2021-05-23T08:47:54Z</time>
      </trkpt>
      <trkpt lat="42.6960020" lon="-8.6386230">
        <ele>59.8</ele>
        <time>2021-05-23T08:47:55Z</time>
      </trkpt>
      <trkpt lat="42.6959970" lon="-8.6386160">
        <ele>59.8</ele>
        <time>2021-05-23T08:47:56Z</time>
      </trkpt>
      <trkpt lat="42.6959930" lon="-8.6386310">
        <ele>59.8</ele>
        <time>2021-05-23T08:47:57Z</time>
      </trkpt>
      <trkpt lat="42.6959940" lon="-8.6386380">
        <ele>59.8</ele>
        <time>2021-05-23T08:47:58Z</time>
      </trkpt>
      <trkpt lat="42.6960070" lon="-8.6386430">
        <ele>59.9</ele>
        <time>2021-05-23T08:47:59Z</time>
      </trkpt>
      <trkpt lat="42.6960090" lon="-8.6386540">
        <ele>59.9</ele>
        <time>2021-05-23T08:48:00Z</time>
      </trkpt>
      <trkpt lat="42.6960130" lon="-8.6386640">
        <ele>59.9</ele>
        <time>2021-05-23T08:48:01Z</time>
      </trkpt>
      <trkpt lat="42.6960150" lon="-8.6386650">
        <ele>59.9</ele>
        <time>2021-05-23T08:48:02Z</time>
      </trkpt>
      <trkpt lat="42.6960180" lon="-8.6386690">
        <ele>59.9</ele>
        <time>2021-05-23T08:48:03Z</time>
      </trkpt>
      <trkpt lat="42.6960200" lon="-8.6386710">
        <ele>59.9</ele>
        <time>2021-05-23T08:48:04Z</time>
      </trkpt>
      <trkpt lat="42.6960220" lon="-8.6386700">
        <ele>59.9</ele>
        <time>2021-05-23T08:48:05Z</time>
      </trkpt>
      <trkpt lat="42.6960270" lon="-8.6386740">
        <ele>59.9</ele>
        <time>2021-05-23T08:48:06Z</time>
      </trkpt>
      <trkpt lat="42.6960290" lon="-8.6386790">
        <ele>59.9</ele>
        <time>2021-05-23T08:48:07Z</time>
      </trkpt>
      <trkpt lat="42.6960290" lon="-8.6386790">
        <ele>59.9</ele>
        <time>2021-05-23T08:48:08Z</time>
      </trkpt>
      <trkpt lat="42.6960290" lon="-8.6386790">
        <ele>59.9</ele>
        <time>2021-05-23T08:48:09Z</time>
      </trkpt>
      <trkpt lat="42.6960370" lon="-8.6386860">
        <ele>59.9</ele>
        <time>2021-05-23T08:48:10Z</time>
      </trkpt>
      <trkpt lat="42.6960360" lon="-8.6386870">
        <ele>59.9</ele>
        <time>2021-05-23T08:48:11Z</time>
      </trkpt>
      <trkpt lat="42.6960350" lon="-8.6386890">
        <ele>59.9</ele>
        <time>2021-05-23T08:48:12Z</time>
      </trkpt>
      <trkpt lat="42.6960340" lon="-8.6386900">
        <ele>59.9</ele>
        <time>2021-05-23T08:48:13Z</time>
      </trkpt>
      <trkpt lat="42.6960340" lon="-8.6386910">
        <ele>59.9</ele>
        <time>2021-05-23T08:48:14Z</time>
      </trkpt>
      <trkpt lat="42.6960330" lon="-8.6386930">
        <ele>59.9</ele>
        <time>2021-05-23T08:48:15Z</time>
      </trkpt>
      <trkpt lat="42.6960320" lon="-8.6386940">
        <ele>59.9</ele>
        <time>2021-05-23T08:48:16Z</time>
      </trkpt>
      <trkpt lat="42.6960310" lon="-8.6386950">
        <ele>59.9</ele>
        <time>2021-05-23T08:48:17Z</time>
      </trkpt>
      <trkpt lat="42.6960300" lon="-8.6386970">
        <ele>59.9</ele>
        <time>2021-05-23T08:48:18Z</time>
      </trkpt>
      <trkpt lat="42.6960290" lon="-8.6386980">
        <ele>59.9</ele>
        <time>2021-05-23T08:48:19Z</time>
      </trkpt>
      <trkpt lat="42.6960280" lon="-8.6386990">
        <ele>59.9</ele>
        <time>2021-05-23T08:48:20Z</time>
      </trkpt>
      <trkpt lat="42.6960270" lon="-8.6387000">
        <ele>59.9</ele>
        <time>2021-05-23T08:48:21Z</time>
      </trkpt>
      <trkpt lat="42.6960270" lon="-8.6387020">
        <ele>59.9</ele>
        <time>2021-05-23T08:48:22Z</time>
      </trkpt>
      <trkpt lat="42.6960260" lon="-8.6387030">
        <ele>59.9</ele>
        <time>2021-05-23T08:48:23Z</time>
      </trkpt>
      <trkpt lat="42.6960250" lon="-8.6387040">
        <ele>59.9</ele>
        <time>2021-05-23T08:48:24Z</time>
      </trkpt>
      <trkpt lat="42.6960240" lon="-8.6387060">
        <ele>59.9</ele>
        <time>2021-05-23T08:48:25Z</time>
      </trkpt>
      <trkpt lat="42.6960230" lon="-8.6387070">
        <ele>59.9</ele>
        <time>2021-05-23T08:48:26Z</time>
      </trkpt>
      <trkpt lat="42.6960220" lon="-8.6387080">
        <ele>59.9</ele>
        <time>2021-05-23T08:48:27Z</time>
      </trkpt>
      <trkpt lat="42.6960210" lon="-8.6387100">
        <ele>59.9</ele>
        <time>2021-05-23T08:48:28Z</time>
      </trkpt>
      <trkpt lat="42.6960200" lon="-8.6387110">
        <ele>59.9</ele>
        <time>2021-05-23T08:48:29Z</time>
      </trkpt>
      <trkpt lat="42.6960200" lon="-8.6387120">
        <ele>59.9</ele>
        <time>2021-05-23T08:48:30Z</time>
      </trkpt>
      <trkpt lat="42.6960190" lon="-8.6387140">
        <ele>59.9</ele>
        <time>2021-05-23T08:48:31Z</time>
      </trkpt>
      <trkpt lat="42.6960180" lon="-8.6387150">
        <ele>59.9</ele>
        <time>2021-05-23T08:48:32Z</time>
      </trkpt>
      <trkpt lat="42.6960170" lon="-8.6387160">
        <ele>59.9</ele>
        <time>2021-05-23T08:48:33Z</time>
      </trkpt>
      <trkpt lat="42.6960160" lon="-8.6387180">
        <ele>59.9</ele>
        <time>2021-05-23T08:48:34Z</time>
      </trkpt>
      <trkpt lat="42.6960150" lon="-8.6387190">
        <ele>59.9</ele>
        <time>2021-05-23T08:48:35Z</time>
      </trkpt>
      <trkpt lat="42.6960140" lon="-8.6387200">
        <ele>59.9</ele>
        <time>2021-05-23T08:48:36Z</time>
      </trkpt>
      <trkpt lat="42.6960130" lon="-8.6387210">
        <ele>59.9</ele>
        <time>2021-05-23T08:48:37Z</time>
      </trkpt>
      <trkpt lat="42.6960130" lon="-8.6387230">
        <ele>59.9</ele>
        <time>2021-05-23T08:48:38Z</time>
      </trkpt>
      <trkpt lat="42.6960120" lon="-8.6387240">
        <ele>59.9</ele>
        <time>2021-05-23T08:48:39Z</time>
      </trkpt>
      <trkpt lat="42.6960110" lon="-8.6387250">
        <ele>59.9</ele>
        <time>2021-05-23T08:48:40Z</time>
      </trkpt>
      <trkpt lat="42.6960100" lon="-8.6387270">
        <ele>59.9</ele>
        <time>2021-05-23T08:48:41Z</time>
      </trkpt>
      <trkpt lat="42.6960090" lon="-8.6387280">
        <ele>59.9</ele>
        <time>2021-05-23T08:48:42Z</time>
      </trkpt>
      <trkpt lat="42.6960030" lon="-8.6387260">
        <ele>59.9</ele>
        <time>2021-05-23T08:48:43Z</time>
      </trkpt>
      <trkpt lat="42.6960000" lon="-8.6387280">
        <ele>59.9</ele>
        <time>2021-05-23T08:48:44Z</time>
      </trkpt>
      <trkpt lat="42.6959990" lon="-8.6387240">
        <ele>59.9</ele>
        <time>2021-05-23T08:48:45Z</time>
      </trkpt>
      <trkpt lat="42.6959960" lon="-8.6387220">
        <ele>59.9</ele>
        <time>2021-05-23T08:48:46Z</time>
      </trkpt>
      <trkpt lat="42.6959920" lon="-8.6387220">
        <ele>59.9</ele>
        <time>2021-05-23T08:48:47Z</time>
      </trkpt>
      <trkpt lat="42.6959930" lon="-8.6387130">
        <ele>59.9</ele>
        <time>2021-05-23T08:48:48Z</time>
      </trkpt>
      <trkpt lat="42.6959940" lon="-8.6386990">
        <ele>59.9</ele>
        <time>2021-05-23T08:48:49Z</time>
      </trkpt>
      <trkpt lat="42.6959960" lon="-8.6386910">
        <ele>59.9</ele>
        <time>2021-05-23T08:48:50Z</time>
      </trkpt>
      <trkpt lat="42.6960000" lon="-8.6386840">
        <ele>59.9</ele>
        <time>2021-05-23T08:48:51Z</time>
      </trkpt>
      <trkpt lat="42.6960030" lon="-8.6386790">
        <ele>59.9</ele>
        <time>2021-05-23T08:48:52Z</time>
      </trkpt>
      <trkpt lat="42.6960050" lon="-8.6386780">
        <ele>59.9</ele>
        <time>2021-05-23T08:48:53Z</time>
      </trkpt>
      <trkpt lat="42.6960050" lon="-8.6386780">
        <ele>59.9</ele>
        <time>2021-05-23T08:48:54Z</time>
      </trkpt>
      <trkpt lat="42.6960120" lon="-8.6386730">
        <ele>59.9</ele>
        <time>2021-05-23T08:48:55Z</time>
      </trkpt>
      <trkpt lat="42.6960130" lon="-8.6386720">
        <ele>59.9</ele>
        <time>2021-05-23T08:48:56Z</time>
      </trkpt>
      <trkpt lat="42.6960160" lon="-8.6386710">
        <ele>59.9</ele>
        <time>2021-05-23T08:48:57Z</time>
      </trkpt>
      <trkpt lat="42.6960180" lon="-8.6386720">
        <ele>59.9</ele>
        <time>2021-05-23T08:48:58Z</time>
      </trkpt>
      <trkpt lat="42.6960190" lon="-8.6386720">
        <ele>59.9</ele>
        <time>2021-05-23T08:48:59Z</time>
      </trkpt>
      <trkpt lat="42.6960190" lon="-8.6386720">
        <ele>59.9</ele>
        <time>2021-05-23T08:49:00Z</time>
      </trkpt>
      <trkpt lat="42.6960190" lon="-8.6386720">
        <ele>59.9</ele>
        <time>2021-05-23T08:49:01Z</time>
      </trkpt>
      <trkpt lat="42.6960190" lon="-8.6386720">
        <ele>59.9</ele>
        <time>2021-05-23T08:49:02Z</time>
      </trkpt>
      <trkpt lat="42.6960190" lon="-8.6386720">
        <ele>59.9</ele>
        <time>2021-05-23T08:49:03Z</time>
      </trkpt>
      <trkpt lat="42.6960320" lon="-8.6386720">
        <ele>59.9</ele>
        <time>2021-05-23T08:49:04Z</time>
      </trkpt>
      <trkpt lat="42.6960330" lon="-8.6386730">
        <ele>59.9</ele>
        <time>2021-05-23T08:49:05Z</time>
      </trkpt>
      <trkpt lat="42.6960330" lon="-8.6386730">
        <ele>59.9</ele>
        <time>2021-05-23T08:49:06Z</time>
      </trkpt>
      <trkpt lat="42.6960330" lon="-8.6386730">
        <ele>59.9</ele>
        <time>2021-05-23T08:49:07Z</time>
      </trkpt>
      <trkpt lat="42.6960370" lon="-8.6386700">
        <ele>59.9</ele>
        <time>2021-05-23T08:49:08Z</time>
      </trkpt>
      <trkpt lat="42.6960370" lon="-8.6386700">
        <ele>59.9</ele>
        <time>2021-05-23T08:49:09Z</time>
      </trkpt>
      <trkpt lat="42.6960370" lon="-8.6386700">
        <ele>59.9</ele>
        <time>2021-05-23T08:49:10Z</time>
      </trkpt>
      <trkpt lat="42.6960410" lon="-8.6386710">
        <ele>59.9</ele>
        <time>2021-05-23T08:49:11Z</time>
      </trkpt>
      <trkpt lat="42.6960410" lon="-8.6386710">
        <ele>59.9</ele>
        <time>2021-05-23T08:49:12Z</time>
      </trkpt>
      <trkpt lat="42.6960410" lon="-8.6386710">
        <ele>59.9</ele>
        <time>2021-05-23T08:49:13Z</time>
      </trkpt>
      <trkpt lat="42.6960410" lon="-8.6386710">
        <ele>59.9</ele>
        <time>2021-05-23T08:49:14Z</time>
      </trkpt>
      <trkpt lat="42.6960410" lon="-8.6386710">
        <ele>59.9</ele>
        <time>2021-05-23T08:49:15Z</time>
      </trkpt>
      <trkpt lat="42.6960430" lon="-8.6386690">
        <ele>59.9</ele>
        <time>2021-05-23T08:49:16Z</time>
      </trkpt>
      <trkpt lat="42.6960410" lon="-8.6386660">
        <ele>59.9</ele>
        <time>2021-05-23T08:49:17Z</time>
      </trkpt>
      <trkpt lat="42.6960370" lon="-8.6386610">
        <ele>59.9</ele>
        <time>2021-05-23T08:49:18Z</time>
      </trkpt>
      <trkpt lat="42.6960340" lon="-8.6386590">
        <ele>59.9</ele>
        <time>2021-05-23T08:49:19Z</time>
      </trkpt>
      <trkpt lat="42.6960330" lon="-8.6386570">
        <ele>59.9</ele>
        <time>2021-05-23T08:49:20Z</time>
      </trkpt>
      <trkpt lat="42.6960250" lon="-8.6386600">
        <ele>59.9</ele>
        <time>2021-05-23T08:49:21Z</time>
      </trkpt>
      <trkpt lat="42.6960290" lon="-8.6386570">
        <ele>59.9</ele>
        <time>2021-05-23T08:49:22Z</time>
      </trkpt>
      <trkpt lat="42.6960230" lon="-8.6386530">
        <ele>59.9</ele>
        <time>2021-05-23T08:49:23Z</time>
      </trkpt>
      <trkpt lat="42.6960240" lon="-8.6386590">
        <ele>59.9</ele>
        <time>2021-05-23T08:49:24Z</time>
      </trkpt>
      <trkpt lat="42.6960200" lon="-8.6386630">
        <ele>59.9</ele>
        <time>2021-05-23T08:49:25Z</time>
      </trkpt>
      <trkpt lat="42.6960210" lon="-8.6386640">
        <ele>59.9</ele>
        <time>2021-05-23T08:49:26Z</time>
      </trkpt>
      <trkpt lat="42.6960190" lon="-8.6386610">
        <ele>59.9</ele>
        <time>2021-05-23T08:49:27Z</time>
      </trkpt>
      <trkpt lat="42.6960170" lon="-8.6386630">
        <ele>59.9</ele>
        <time>2021-05-23T08:49:28Z</time>
      </trkpt>
      <trkpt lat="42.6960210" lon="-8.6386640">
        <ele>59.9</ele>
        <time>2021-05-23T08:49:29Z</time>
      </trkpt>
      <trkpt lat="42.6960230" lon="-8.6386600">
        <ele>59.9</ele>
        <time>2021-05-23T08:49:30Z</time>
      </trkpt>
      <trkpt lat="42.6960270" lon="-8.6386530">
        <ele>59.9</ele>
        <time>2021-05-23T08:49:31Z</time>
      </trkpt>
      <trkpt lat="42.6960300" lon="-8.6386440">
        <ele>59.9</ele>
        <time>2021-05-23T08:49:32Z</time>
      </trkpt>
      <trkpt lat="42.6960310" lon="-8.6386460">
        <ele>59.9</ele>
        <time>2021-05-23T08:49:33Z</time>
      </trkpt>
      <trkpt lat="42.6960350" lon="-8.6386460">
        <ele>60.0</ele>
        <time>2021-05-23T08:49:34Z</time>
      </trkpt>
      <trkpt lat="42.6960350" lon="-8.6386490">
        <ele>60.0</ele>
        <time>2021-05-23T08:49:35Z</time>
      </trkpt>
      <trkpt lat="42.6960340" lon="-8.6386460">
        <ele>60.0</ele>
        <time>2021-05-23T08:49:36Z</time>
      </trkpt>
      <trkpt lat="42.6960350" lon="-8.6386430">
        <ele>60.0</ele>
        <time>2021-05-23T08:49:37Z</time>
      </trkpt>
      <trkpt lat="42.6960330" lon="-8.6386430">
        <ele>60.0</ele>
        <time>2021-05-23T08:49:38Z</time>
      </trkpt>
      <trkpt lat="42.6960300" lon="-8.6386440">
        <ele>60.0</ele>
        <time>2021-05-23T08:49:39Z</time>
      </trkpt>
      <trkpt lat="42.6960290" lon="-8.6386470">
        <ele>60.0</ele>
        <time>2021-05-23T08:49:40Z</time>
      </trkpt>
      <trkpt lat="42.6960270" lon="-8.6386320">
        <ele>60.0</ele>
        <time>2021-05-23T08:49:41Z</time>
      </trkpt>
      <trkpt lat="42.6960270" lon="-8.6386200">
        <ele>60.0</ele>
        <time>2021-05-23T08:49:42Z</time>
      </trkpt>
      <trkpt lat="42.6960250" lon="-8.6386130">
        <ele>60.0</ele>
        <time>2021-05-23T08:49:43Z</time>
      </trkpt>
      <trkpt lat="42.6960200" lon="-8.6386010">
        <ele>60.0</ele>
        <time>2021-05-23T08:49:44Z</time>
      </trkpt>
      <trkpt lat="42.6960210" lon="-8.6385860">
        <ele>60.0</ele>
        <time>2021-05-23T08:49:45Z</time>
      </trkpt>
      <trkpt lat="42.6960230" lon="-8.6385760">
        <ele>60.0</ele>
        <time>2021-05-23T08:49:46Z</time>
      </trkpt>
      <trkpt lat="42.6960280" lon="-8.6385710">
        <ele>60.0</ele>
        <time>2021-05-23T08:49:47Z</time>
      </trkpt>
      <trkpt lat="42.6960430" lon="-8.6385800">
        <ele>60.0</ele>
        <time>2021-05-23T08:49:48Z</time>
      </trkpt>
      <trkpt lat="42.6960360" lon="-8.6385590">
        <ele>60.0</ele>
        <time>2021-05-23T08:49:49Z</time>
      </trkpt>
      <trkpt lat="42.6960150" lon="-8.6385470">
        <ele>60.0</ele>
        <time>2021-05-23T08:49:50Z</time>
      </trkpt>
      <trkpt lat="42.6960310" lon="-8.6385500">
        <ele>60.0</ele>
        <time>2021-05-23T08:49:51Z</time>
      </trkpt>
      <trkpt lat="42.6960350" lon="-8.6385570">
        <ele>60.0</ele>
        <time>2021-05-23T08:49:52Z</time>
      </trkpt>
      <trkpt lat="42.6960380" lon="-8.6385630">
        <ele>60.0</ele>
        <time>2021-05-23T08:49:53Z</time>
      </trkpt>
      <trkpt lat="42.6960420" lon="-8.6385700">
        <ele>60.0</ele>
        <time>2021-05-23T08:49:54Z</time>
      </trkpt>
      <trkpt lat="42.6960460" lon="-8.6385760">
        <ele>60.0</ele>
        <time>2021-05-23T08:49:55Z</time>
      </trkpt>
      <trkpt lat="42.6960490" lon="-8.6385710">
        <ele>60.0</ele>
        <time>2021-05-23T08:49:56Z</time>
      </trkpt>
      <trkpt lat="42.6960680" lon="-8.6385790">
        <ele>60.0</ele>
        <time>2021-05-23T08:49:57Z</time>
      </trkpt>
      <trkpt lat="42.6960720" lon="-8.6385880">
        <ele>60.0</ele>
        <time>2021-05-23T08:49:58Z</time>
      </trkpt>
      <trkpt lat="42.6960810" lon="-8.6385910">
        <ele>60.0</ele>
        <time>2021-05-23T08:49:59Z</time>
      </trkpt>
      <trkpt lat="42.6960830" lon="-8.6385890">
        <ele>60.0</ele>
        <time>2021-05-23T08:50:00Z</time>
      </trkpt>
      <trkpt lat="42.6960770" lon="-8.6385850">
        <ele>60.0</ele>
        <time>2021-05-23T08:50:01Z</time>
      </trkpt>
      <trkpt lat="42.6960630" lon="-8.6385710">
        <ele>60.0</ele>
        <time>2021-05-23T08:50:02Z</time>
      </trkpt>
      <trkpt lat="42.6960780" lon="-8.6385720">
        <ele>60.1</ele>
        <time>2021-05-23T08:50:03Z</time>
      </trkpt>
      <trkpt lat="42.6960850" lon="-8.6385650">
        <ele>60.1</ele>
        <time>2021-05-23T08:50:04Z</time>
      </trkpt>
      <trkpt lat="42.6960810" lon="-8.6385560">
        <ele>60.1</ele>
        <time>2021-05-23T08:50:05Z</time>
      </trkpt>
      <trkpt lat="42.6960700" lon="-8.6385550">
        <ele>60.1</ele>
        <time>2021-05-23T08:50:06Z</time>
      </trkpt>
      <trkpt lat="42.6960750" lon="-8.6385620">
        <ele>60.1</ele>
        <time>2021-05-23T08:50:07Z</time>
      </trkpt>
      <trkpt lat="42.6960820" lon="-8.6385710">
        <ele>60.1</ele>
        <time>2021-05-23T08:50:08Z</time>
      </trkpt>
      <trkpt lat="42.6960810" lon="-8.6385640">
        <ele>60.1</ele>
        <time>2021-05-23T08:50:09Z</time>
      </trkpt>
      <trkpt lat="42.6960870" lon="-8.6385560">
        <ele>60.1</ele>
        <time>2021-05-23T08:50:10Z</time>
      </trkpt>
      <trkpt lat="42.6960720" lon="-8.6385390">
        <ele>60.1</ele>
        <time>2021-05-23T08:50:11Z</time>
      </trkpt>
      <trkpt lat="42.6960610" lon="-8.6385360">
        <ele>60.1</ele>
        <time>2021-05-23T08:50:12Z</time>
      </trkpt>
      <trkpt lat="42.6960510" lon="-8.6385330">
        <ele>60.1</ele>
        <time>2021-05-23T08:50:13Z</time>
      </trkpt>
      <trkpt lat="42.6960370" lon="-8.6384950">
        <ele>60.1</ele>
        <time>2021-05-23T08:50:14Z</time>
      </trkpt>
      <trkpt lat="42.6960230" lon="-8.6384830">
        <ele>60.1</ele>
        <time>2021-05-23T08:50:15Z</time>
      </trkpt>
      <trkpt lat="42.6960080" lon="-8.6384550">
        <ele>60.1</ele>
        <time>2021-05-23T08:50:16Z</time>
      </trkpt>
      <trkpt lat="42.6959930" lon="-8.6384540">
        <ele>60.1</ele>
        <time>2021-05-23T08:50:17Z</time>
      </trkpt>
      <trkpt lat="42.6959890" lon="-8.6384520">
        <ele>60.1</ele>
        <time>2021-05-23T08:50:18Z</time>
      </trkpt>
      <trkpt lat="42.6959900" lon="-8.6384550">
        <ele>60.1</ele>
        <time>2021-05-23T08:50:19Z</time>
      </trkpt>
      <trkpt lat="42.6959890" lon="-8.6384500">
        <ele>60.1</ele>
        <time>2021-05-23T08:50:20Z</time>
      </trkpt>
      <trkpt lat="42.6959950" lon="-8.6384600">
        <ele>60.1</ele>
        <time>2021-05-23T08:50:21Z</time>
      </trkpt>
      <trkpt lat="42.6959980" lon="-8.6384630">
        <ele>60.1</ele>
        <time>2021-05-23T08:50:22Z</time>
      </trkpt>
      <trkpt lat="42.6960000" lon="-8.6384640">
        <ele>60.1</ele>
        <time>2021-05-23T08:50:23Z</time>
      </trkpt>
      <trkpt lat="42.6960100" lon="-8.6384680">
        <ele>60.1</ele>
        <time>2021-05-23T08:50:24Z</time>
      </trkpt>
      <trkpt lat="42.6960140" lon="-8.6384780">
        <ele>60.1</ele>
        <time>2021-05-23T08:50:25Z</time>
      </trkpt>
      <trkpt lat="42.6960300" lon="-8.6384880">
        <ele>60.2</ele>
        <time>2021-05-23T08:50:26Z</time>
      </trkpt>
      <trkpt lat="42.6960350" lon="-8.6384940">
        <ele>60.2</ele>
        <time>2021-05-23T08:50:27Z</time>
      </trkpt>
      <trkpt lat="42.6960390" lon="-8.6385000">
        <ele>60.2</ele>
        <time>2021-05-23T08:50:28Z</time>
      </trkpt>
      <trkpt lat="42.6960440" lon="-8.6385060">
        <ele>60.2</ele>
        <time>2021-05-23T08:50:29Z</time>
      </trkpt>
      <trkpt lat="42.6960490" lon="-8.6385120">
        <ele>60.2</ele>
        <time>2021-05-23T08:50:30Z</time>
      </trkpt>
      <trkpt lat="42.6960290" lon="-8.6385220">
        <ele>60.2</ele>
        <time>2021-05-23T08:50:31Z</time>
      </trkpt>
      <trkpt lat="42.6960180" lon="-8.6385110">
        <ele>60.2</ele>
        <time>2021-05-23T08:50:32Z</time>
      </trkpt>
      <trkpt lat="42.6960030" lon="-8.6384960">
        <ele>60.2</ele>
        <time>2021-05-23T08:50:33Z</time>
      </trkpt>
      <trkpt lat="42.6959950" lon="-8.6385010">
        <ele>60.2</ele>
        <time>2021-05-23T08:50:34Z</time>
      </trkpt>
      <trkpt lat="42.6959840" lon="-8.6385090">
        <ele>60.2</ele>
        <time>2021-05-23T08:50:35Z</time>
      </trkpt>
      <trkpt lat="42.6959970" lon="-8.6385180">
        <ele>60.2</ele>
        <time>2021-05-23T08:50:36Z</time>
      </trkpt>
      <trkpt lat="42.6960040" lon="-8.6385230">
        <ele>60.2</ele>
        <time>2021-05-23T08:50:37Z</time>
      </trkpt>
      <trkpt lat="42.6960110" lon="-8.6385290">
        <ele>60.2</ele>
        <time>2021-05-23T08:50:38Z</time>
      </trkpt>
      <trkpt lat="42.6960180" lon="-8.6385340">
        <ele>60.2</ele>
        <time>2021-05-23T08:50:39Z</time>
      </trkpt>
      <trkpt lat="42.6960240" lon="-8.6385390">
        <ele>60.2</ele>
        <time>2021-05-23T08:50:40Z</time>
      </trkpt>
      <trkpt lat="42.6960160" lon="-8.6385740">
        <ele>60.2</ele>
        <time>2021-05-23T08:50:41Z</time>
      </trkpt>
      <trkpt lat="42.6960160" lon="-8.6385790">
        <ele>60.2</ele>
        <time>2021-05-23T08:50:42Z</time>
      </trkpt>
      <trkpt lat="42.6960180" lon="-8.6386020">
        <ele>60.2</ele>
        <time>2021-05-23T08:50:43Z</time>
      </trkpt>
      <trkpt lat="42.6960270" lon="-8.6386040">
        <ele>60.2</ele>
        <time>2021-05-23T08:50:44Z</time>
      </trkpt>
      <trkpt lat="42.6960170" lon="-8.6385910">
        <ele>60.2</ele>
        <time>2021-05-23T08:50:45Z</time>
      </trkpt>
      <trkpt lat="42.6959900" lon="-8.6385890">
        <ele>60.3</ele>
        <time>2021-05-23T08:50:46Z</time>
      </trkpt>
      <trkpt lat="42.6959940" lon="-8.6385960">
        <ele>60.3</ele>
        <time>2021-05-23T08:50:47Z</time>
      </trkpt>
      <trkpt lat="42.6960030" lon="-8.6386010">
        <ele>60.3</ele>
        <time>2021-05-23T08:50:48Z</time>
      </trkpt>
      <trkpt lat="42.6960120" lon="-8.6386050">
        <ele>60.3</ele>
        <time>2021-05-23T08:50:49Z</time>
      </trkpt>
      <trkpt lat="42.6960200" lon="-8.6386100">
        <ele>60.3</ele>
        <time>2021-05-23T08:50:50Z</time>
      </trkpt>
      <trkpt lat="42.6960290" lon="-8.6386140">
        <ele>60.3</ele>
        <time>2021-05-23T08:50:51Z</time>
      </trkpt>
      <trkpt lat="42.6960380" lon="-8.6386190">
        <ele>60.3</ele>
        <time>2021-05-23T08:50:52Z</time>
      </trkpt>
      <trkpt lat="42.6960370" lon="-8.6385990">
        <ele>60.3</ele>
        <time>2021-05-23T08:50:53Z</time>
      </trkpt>
      <trkpt lat="42.6960590" lon="-8.6385970">
        <ele>60.3</ele>
        <time>2021-05-23T08:50:54Z</time>
      </trkpt>
      <trkpt lat="42.6960610" lon="-8.6386000">
        <ele>60.3</ele>
        <time>2021-05-23T08:50:55Z</time>
      </trkpt>
      <trkpt lat="42.6960540" lon="-8.6385880">
        <ele>60.3</ele>
        <time>2021-05-23T08:50:56Z</time>
      </trkpt>
      <trkpt lat="42.6960450" lon="-8.6385820">
        <ele>60.3</ele>
        <time>2021-05-23T08:50:57Z</time>
      </trkpt>
      <trkpt lat="42.6960480" lon="-8.6385830">
        <ele>60.3</ele>
        <time>2021-05-23T08:50:58Z</time>
      </trkpt>
      <trkpt lat="42.6960510" lon="-8.6385800">
        <ele>60.3</ele>
        <time>2021-05-23T08:50:59Z</time>
      </trkpt>
      <trkpt lat="42.6960550" lon="-8.6385780">
        <ele>60.3</ele>
        <time>2021-05-23T08:51:00Z</time>
      </trkpt>
      <trkpt lat="42.6960580" lon="-8.6385760">
        <ele>60.3</ele>
        <time>2021-05-23T08:51:01Z</time>
      </trkpt>
      <trkpt lat="42.6960610" lon="-8.6385740">
        <ele>60.3</ele>
        <time>2021-05-23T08:51:02Z</time>
      </trkpt>
      <trkpt lat="42.6960640" lon="-8.6385710">
        <ele>60.3</ele>
        <time>2021-05-23T08:51:03Z</time>
      </trkpt>
      <trkpt lat="42.6960670" lon="-8.6385690">
        <ele>60.3</ele>
        <time>2021-05-23T08:51:04Z</time>
      </trkpt>
      <trkpt lat="42.6960700" lon="-8.6385670">
        <ele>60.3</ele>
        <time>2021-05-23T08:51:05Z</time>
      </trkpt>
      <trkpt lat="42.6960740" lon="-8.6385650">
        <ele>60.3</ele>
        <time>2021-05-23T08:51:06Z</time>
      </trkpt>
      <trkpt lat="42.6960770" lon="-8.6385620">
        <ele>60.3</ele>
        <time>2021-05-23T08:51:07Z</time>
      </trkpt>
      <trkpt lat="42.6960800" lon="-8.6385600">
        <ele>60.3</ele>
        <time>2021-05-23T08:51:08Z</time>
      </trkpt>
      <trkpt lat="42.6961060" lon="-8.6385440">
        <ele>60.3</ele>
        <time>2021-05-23T08:51:09Z</time>
      </trkpt>
      <trkpt lat="42.6961140" lon="-8.6385230">
        <ele>60.3</ele>
        <time>2021-05-23T08:51:10Z</time>
      </trkpt>
      <trkpt lat="42.6961030" lon="-8.6385440">
        <ele>60.4</ele>
        <time>2021-05-23T08:51:11Z</time>
      </trkpt>
      <trkpt lat="42.6961060" lon="-8.6385590">
        <ele>60.4</ele>
        <time>2021-05-23T08:51:12Z</time>
      </trkpt>
      <trkpt lat="42.6961190" lon="-8.6385670">
        <ele>60.4</ele>
        <time>2021-05-23T08:51:13Z</time>
      </trkpt>
      <trkpt lat="42.6961230" lon="-8.6385610">
        <ele>60.4</ele>
        <time>2021-05-23T08:51:14Z</time>
      </trkpt>
      <trkpt lat="42.6961300" lon="-8.6385590">
        <ele>60.4</ele>
        <time>2021-05-23T08:51:15Z</time>
      </trkpt>
      <trkpt lat="42.6961390" lon="-8.6385570">
        <ele>60.4</ele>
        <time>2021-05-23T08:51:16Z</time>
      </trkpt>
      <trkpt lat="42.6961160" lon="-8.6385660">
        <ele>60.4</ele>
        <time>2021-05-23T08:51:17Z</time>
      </trkpt>
      <trkpt lat="42.6960870" lon="-8.6385730">
        <ele>60.4</ele>
        <time>2021-05-23T08:51:18Z</time>
      </trkpt>
      <trkpt lat="42.6960570" lon="-8.6385810">
        <ele>60.4</ele>
        <time>2021-05-23T08:51:19Z</time>
      </trkpt>
      <trkpt lat="42.6960490" lon="-8.6385410">
        <ele>60.4</ele>
        <time>2021-05-23T08:51:20Z</time>
      </trkpt>
      <trkpt lat="42.6960420" lon="-8.6385320">
        <ele>60.4</ele>
        <time>2021-05-23T08:51:21Z</time>
      </trkpt>
      <trkpt lat="42.6960420" lon="-8.6385320">
        <ele>60.4</ele>
        <time>2021-05-23T08:51:22Z</time>
      </trkpt>
      <trkpt lat="42.6960420" lon="-8.6385320">
        <ele>60.4</ele>
        <time>2021-05-23T08:51:23Z</time>
      </trkpt>
      <trkpt lat="42.6960420" lon="-8.6385320">
        <ele>60.4</ele>
        <time>2021-05-23T08:51:24Z</time>
      </trkpt>
      <trkpt lat="42.6960480" lon="-8.6385680">
        <ele>60.4</ele>
        <time>2021-05-23T08:51:25Z</time>
      </trkpt>
      <trkpt lat="42.6960700" lon="-8.6385990">
        <ele>60.5</ele>
        <time>2021-05-23T08:51:26Z</time>
      </trkpt>
      <trkpt lat="42.6960620" lon="-8.6385940">
        <ele>60.5</ele>
        <time>2021-05-23T08:51:27Z</time>
      </trkpt>
      <trkpt lat="42.6960690" lon="-8.6385910">
        <ele>60.5</ele>
        <time>2021-05-23T08:51:28Z</time>
      </trkpt>
      <trkpt lat="42.6960510" lon="-8.6385710">
        <ele>60.5</ele>
        <time>2021-05-23T08:51:29Z</time>
      </trkpt>
      <trkpt lat="42.6960690" lon="-8.6385930">
        <ele>60.5</ele>
        <time>2021-05-23T08:51:30Z</time>
      </trkpt>
      <trkpt lat="42.6960770" lon="-8.6386000">
        <ele>60.5</ele>
        <time>2021-05-23T08:51:31Z</time>
      </trkpt>
      <trkpt lat="42.6960770" lon="-8.6386050">
        <ele>60.5</ele>
        <time>2021-05-23T08:51:32Z</time>
      </trkpt>
      <trkpt lat="42.6960720" lon="-8.6385840">
        <ele>60.5</ele>
        <time>2021-05-23T08:51:33Z</time>
      </trkpt>
      <trkpt lat="42.6960850" lon="-8.6386010">
        <ele>60.5</ele>
        <time>2021-05-23T08:51:34Z</time>
      </trkpt>
      <trkpt lat="42.6960900" lon="-8.6386160">
        <ele>60.5</ele>
        <time>2021-05-23T08:51:35Z</time>
      </trkpt>
      <trkpt lat="42.6960980" lon="-8.6386240">
        <ele>60.5</ele>
        <time>2021-05-23T08:51:36Z</time>
      </trkpt>
      <trkpt lat="42.6961060" lon="-8.6386290">
        <ele>60.5</ele>
        <time>2021-05-23T08:51:37Z</time>
      </trkpt>
      <trkpt lat="42.6961070" lon="-8.6386150">
        <ele>60.5</ele>
        <time>2021-05-23T08:51:38Z</time>
      </trkpt>
      <trkpt lat="42.6961040" lon="-8.6386210">
        <ele>60.5</ele>
        <time>2021-05-23T08:51:39Z</time>
      </trkpt>
      <trkpt lat="42.6961010" lon="-8.6386240">
        <ele>60.5</ele>
        <time>2021-05-23T08:51:40Z</time>
      </trkpt>
      <trkpt lat="42.6960940" lon="-8.6386220">
        <ele>60.5</ele>
        <time>2021-05-23T08:51:41Z</time>
      </trkpt>
      <trkpt lat="42.6960870" lon="-8.6386050">
        <ele>60.6</ele>
        <time>2021-05-23T08:51:42Z</time>
      </trkpt>
      <trkpt lat="42.6960900" lon="-8.6385960">
        <ele>60.6</ele>
        <time>2021-05-23T08:51:43Z</time>
      </trkpt>
      <trkpt lat="42.6960860" lon="-8.6386090">
        <ele>60.6</ele>
        <time>2021-05-23T08:51:44Z</time>
      </trkpt>
      <trkpt lat="42.6960980" lon="-8.6386020">
        <ele>60.6</ele>
        <time>2021-05-23T08:51:45Z</time>
      </trkpt>
      <trkpt lat="42.6961060" lon="-8.6386190">
        <ele>60.6</ele>
        <time>2021-05-23T08:51:46Z</time>
      </trkpt>
      <trkpt lat="42.6961170" lon="-8.6386390">
        <ele>60.6</ele>
        <time>2021-05-23T08:51:47Z</time>
      </trkpt>
      <trkpt lat="42.6961250" lon="-8.6386470">
        <ele>60.6</ele>
        <time>2021-05-23T08:51:48Z</time>
      </trkpt>
      <trkpt lat="42.6961290" lon="-8.6386530">
        <ele>60.6</ele>
        <time>2021-05-23T08:51:49Z</time>
      </trkpt>
      <trkpt lat="42.6961270" lon="-8.6386530">
        <ele>60.6</ele>
        <time>2021-05-23T08:51:50Z</time>
      </trkpt>
      <trkpt lat="42.6961240" lon="-8.6386530">
        <ele>60.6</ele>
        <time>2021-05-23T08:51:51Z</time>
      </trkpt>
      <trkpt lat="42.6961220" lon="-8.6386530">
        <ele>60.6</ele>
        <time>2021-05-23T08:51:52Z</time>
      </trkpt>
      <trkpt lat="42.6961200" lon="-8.6386520">
        <ele>60.6</ele>
        <time>2021-05-23T08:51:53Z</time>
      </trkpt>
      <trkpt lat="42.6961180" lon="-8.6386520">
        <ele>60.6</ele>
        <time>2021-05-23T08:51:54Z</time>
      </trkpt>
      <trkpt lat="42.6961160" lon="-8.6386520">
        <ele>60.6</ele>
        <time>2021-05-23T08:51:55Z</time>
      </trkpt>
      <trkpt lat="42.6961130" lon="-8.6386520">
        <ele>60.6</ele>
        <time>2021-05-23T08:51:56Z</time>
      </trkpt>
      <trkpt lat="42.6961110" lon="-8.6386520">
        <ele>60.6</ele>
        <time>2021-05-23T08:51:57Z</time>
      </trkpt>
      <trkpt lat="42.6961090" lon="-8.6386520">
        <ele>60.6</ele>
        <time>2021-05-23T08:51:58Z</time>
      </trkpt>
      <trkpt lat="42.6961070" lon="-8.6386520">
        <ele>60.6</ele>
        <time>2021-05-23T08:51:59Z</time>
      </trkpt>
      <trkpt lat="42.6961050" lon="-8.6386520">
        <ele>60.6</ele>
        <time>2021-05-23T08:52:15Z</time>
      </trkpt>
      <trkpt lat="42.6961020" lon="-8.6386510">
        <ele>60.6</ele>
        <time>2021-05-23T08:52:16Z</time>
      </trkpt>
      <trkpt lat="42.6961000" lon="-8.6386510">
        <ele>60.6</ele>
        <time>2021-05-23T08:52:17Z</time>
      </trkpt>
      <trkpt lat="42.6960980" lon="-8.6386510">
        <ele>60.6</ele>
        <time>2021-05-23T08:52:18Z</time>
      </trkpt>
      <trkpt lat="42.6960960" lon="-8.6386510">
        <ele>60.6</ele>
        <time>2021-05-23T08:52:19Z</time>
      </trkpt>
      <trkpt lat="42.6960940" lon="-8.6386510">
        <ele>60.6</ele>
        <time>2021-05-23T08:52:20Z</time>
      </trkpt>
      <trkpt lat="42.6960910" lon="-8.6386510">
        <ele>60.6</ele>
        <time>2021-05-23T08:52:21Z</time>
      </trkpt>
      <trkpt lat="42.6960890" lon="-8.6386510">
        <ele>60.6</ele>
        <time>2021-05-23T08:52:22Z</time>
      </trkpt>
      <trkpt lat="42.6960870" lon="-8.6386510">
        <ele>60.6</ele>
        <time>2021-05-23T08:52:23Z</time>
      </trkpt>
      <trkpt lat="42.6960850" lon="-8.6386510">
        <ele>60.6</ele>
        <time>2021-05-23T08:52:24Z</time>
      </trkpt>
      <trkpt lat="42.6960830" lon="-8.6386500">
        <ele>60.6</ele>
        <time>2021-05-23T08:52:25Z</time>
      </trkpt>
      <trkpt lat="42.6960800" lon="-8.6386500">
        <ele>60.6</ele>
        <time>2021-05-23T08:52:26Z</time>
      </trkpt>
      <trkpt lat="42.6960780" lon="-8.6386500">
        <ele>60.6</ele>
        <time>2021-05-23T08:52:27Z</time>
      </trkpt>
      <trkpt lat="42.6960760" lon="-8.6386500">
        <ele>60.6</ele>
        <time>2021-05-23T08:52:28Z</time>
      </trkpt>
      <trkpt lat="42.6960740" lon="-8.6386500">
        <ele>60.6</ele>
        <time>2021-05-23T08:52:29Z</time>
      </trkpt>
      <trkpt lat="42.6960720" lon="-8.6386500">
        <ele>60.6</ele>
        <time>2021-05-23T08:52:30Z</time>
      </trkpt>
      <trkpt lat="42.6960700" lon="-8.6386500">
        <ele>60.6</ele>
        <time>2021-05-23T08:52:31Z</time>
      </trkpt>
      <trkpt lat="42.6960670" lon="-8.6386500">
        <ele>60.6</ele>
        <time>2021-05-23T08:52:32Z</time>
      </trkpt>
      <trkpt lat="42.6960650" lon="-8.6386490">
        <ele>60.6</ele>
        <time>2021-05-23T08:52:33Z</time>
      </trkpt>
      <trkpt lat="42.6960630" lon="-8.6386490">
        <ele>60.6</ele>
        <time>2021-05-23T08:52:34Z</time>
      </trkpt>
      <trkpt lat="42.6960610" lon="-8.6386490">
        <ele>60.6</ele>
        <time>2021-05-23T08:52:35Z</time>
      </trkpt>
      <trkpt lat="42.6960590" lon="-8.6386490">
        <ele>60.6</ele>
        <time>2021-05-23T08:52:36Z</time>
      </trkpt>
      <trkpt lat="42.6960560" lon="-8.6386490">
        <ele>60.6</ele>
        <time>2021-05-23T08:52:37Z</time>
      </trkpt>
      <trkpt lat="42.6960540" lon="-8.6386490">
        <ele>60.6</ele>
        <time>2021-05-23T08:52:38Z</time>
      </trkpt>
      <trkpt lat="42.6960520" lon="-8.6386490">
        <ele>60.6</ele>
        <time>2021-05-23T08:52:39Z</time>
      </trkpt>
      <trkpt lat="42.6960500" lon="-8.6386490">
        <ele>60.6</ele>
        <time>2021-05-23T08:52:40Z</time>
      </trkpt>
      <trkpt lat="42.6960480" lon="-8.6386490">
        <ele>60.6</ele>
        <time>2021-05-23T08:52:41Z</time>
      </trkpt>
      <trkpt lat="42.6960450" lon="-8.6386480">
        <ele>60.6</ele>
        <time>2021-05-23T08:52:42Z</time>
      </trkpt>
      <trkpt lat="42.6960430" lon="-8.6386480">
        <ele>60.6</ele>
        <time>2021-05-23T08:52:43Z</time>
      </trkpt>
      <trkpt lat="42.6960410" lon="-8.6386480">
        <ele>60.6</ele>
        <time>2021-05-23T08:52:44Z</time>
      </trkpt>
      <trkpt lat="42.6960390" lon="-8.6386480">
        <ele>60.6</ele>
        <time>2021-05-23T08:52:45Z</time>
      </trkpt>
      <trkpt lat="42.6960370" lon="-8.6386480">
        <ele>60.6</ele>
        <time>2021-05-23T08:52:46Z</time>
      </trkpt>
      <trkpt lat="42.6960340" lon="-8.6386480">
        <ele>60.6</ele>
        <time>2021-05-23T08:52:47Z</time>
      </trkpt>
      <trkpt lat="42.6960320" lon="-8.6386480">
        <ele>60.6</ele>
        <time>2021-05-23T08:52:48Z</time>
      </trkpt>
      <trkpt lat="42.6960300" lon="-8.6386480">
        <ele>60.7</ele>
        <time>2021-05-23T08:52:49Z</time>
      </trkpt>
      <trkpt lat="42.6960280" lon="-8.6386470">
        <ele>60.7</ele>
        <time>2021-05-23T08:52:50Z</time>
      </trkpt>
      <trkpt lat="42.6960260" lon="-8.6386470">
        <ele>60.7</ele>
        <time>2021-05-23T08:52:51Z</time>
      </trkpt>
      <trkpt lat="42.6960230" lon="-8.6386470">
        <ele>60.7</ele>
        <time>2021-05-23T08:52:52Z</time>
      </trkpt>
      <trkpt lat="42.6960210" lon="-8.6386470">
        <ele>60.7</ele>
        <time>2021-05-23T08:52:53Z</time>
      </trkpt>
      <trkpt lat="42.6960190" lon="-8.6386470">
        <ele>60.7</ele>
        <time>2021-05-23T08:52:54Z</time>
      </trkpt>
      <trkpt lat="42.6960210" lon="-8.6386490">
        <ele>60.7</ele>
        <time>2021-05-23T08:52:55Z</time>
      </trkpt>
      <trkpt lat="42.6960120" lon="-8.6386340">
        <ele>60.7</ele>
        <time>2021-05-23T08:52:56Z</time>
      </trkpt>
      <trkpt lat="42.6960090" lon="-8.6386190">
        <ele>60.7</ele>
        <time>2021-05-23T08:52:57Z</time>
      </trkpt>
      <trkpt lat="42.6960330" lon="-8.6386220">
        <ele>60.7</ele>
        <time>2021-05-23T08:52:58Z</time>
      </trkpt>
      <trkpt lat="42.6960180" lon="-8.6386100">
        <ele>60.7</ele>
        <time>2021-05-23T08:52:59Z</time>
      </trkpt>
      <trkpt lat="42.6960140" lon="-8.6386030">
        <ele>60.7</ele>
        <time>2021-05-23T08:53:00Z</time>
      </trkpt>
      <trkpt lat="42.6960270" lon="-8.6386150">
        <ele>60.7</ele>
        <time>2021-05-23T08:53:01Z</time>
      </trkpt>
      <trkpt lat="42.6960430" lon="-8.6386160">
        <ele>60.7</ele>
        <time>2021-05-23T08:53:02Z</time>
      </trkpt>
      <trkpt lat="42.6960520" lon="-8.6386160">
        <ele>60.7</ele>
        <time>2021-05-23T08:53:03Z</time>
      </trkpt>
      <trkpt lat="42.6960610" lon="-8.6386260">
        <ele>60.7</ele>
        <time>2021-05-23T08:53:04Z</time>
      </trkpt>
      <trkpt lat="42.6960650" lon="-8.6386350">
        <ele>60.7</ele>
        <time>2021-05-23T08:53:05Z</time>
      </trkpt>
      <trkpt lat="42.6960640" lon="-8.6386370">
        <ele>60.7</ele>
        <time>2021-05-23T08:53:06Z</time>
      </trkpt>
      <trkpt lat="42.6960540" lon="-8.6386380">
        <ele>60.7</ele>
        <time>2021-05-23T08:53:07Z</time>
      </trkpt>
      <trkpt lat="42.6960590" lon="-8.6386360">
        <ele>60.7</ele>
        <time>2021-05-23T08:53:08Z</time>
      </trkpt>
      <trkpt lat="42.6960730" lon="-8.6386440">
        <ele>60.7</ele>
        <time>2021-05-23T08:53:09Z</time>
      </trkpt>
      <trkpt lat="42.6960680" lon="-8.6386310">
        <ele>60.8</ele>
        <time>2021-05-23T08:53:10Z</time>
      </trkpt>
      <trkpt lat="42.6960710" lon="-8.6386110">
        <ele>60.8</ele>
        <time>2021-05-23T08:53:11Z</time>
      </trkpt>
      <trkpt lat="42.6960720" lon="-8.6386150">
        <ele>60.8</ele>
        <time>2021-05-23T08:53:12Z</time>
      </trkpt>
      <trkpt lat="42.6960800" lon="-8.6386070">
        <ele>60.8</ele>
        <time>2021-05-23T08:53:13Z</time>
      </trkpt>
      <trkpt lat="42.6960760" lon="-8.6386050">
        <ele>60.8</ele>
        <time>2021-05-23T08:53:14Z</time>
      </trkpt>
      <trkpt lat="42.6960660" lon="-8.6385980">
        <ele>60.8</ele>
        <time>2021-05-23T08:53:15Z</time>
      </trkpt>
      <trkpt lat="42.6960660" lon="-8.6385980">
        <ele>60.8</ele>
        <time>2021-05-23T08:53:16Z</time>
      </trkpt>
      <trkpt lat="42.6960700" lon="-8.6386190">
        <ele>60.8</ele>
        <time>2021-05-23T08:53:17Z</time>
      </trkpt>
      <trkpt lat="42.6960770" lon="-8.6386190">
        <ele>60.8</ele>
        <time>2021-05-23T08:53:18Z</time>
      </trkpt>
      <trkpt lat="42.6960780" lon="-8.6386190">
        <ele>60.8</ele>
        <time>2021-05-23T08:53:19Z</time>
      </trkpt>
      <trkpt lat="42.6960760" lon="-8.6386240">
        <ele>60.8</ele>
        <time>2021-05-23T08:53:20Z</time>
      </trkpt>
      <trkpt lat="42.6960720" lon="-8.6386390">
        <ele>60.8</ele>
        <time>2021-05-23T08:53:21Z</time>
      </trkpt>
      <trkpt lat="42.6960730" lon="-8.6386440">
        <ele>60.8</ele>
        <time>2021-05-23T08:53:22Z</time>
      </trkpt>
      <trkpt lat="42.6960660" lon="-8.6386440">
        <ele>60.8</ele>
        <time>2021-05-23T08:53:23Z</time>
      </trkpt>
      <trkpt lat="42.6960580" lon="-8.6386480">
        <ele>60.8</ele>
        <time>2021-05-23T08:53:24Z</time>
      </trkpt>
      <trkpt lat="42.6960550" lon="-8.6386550">
        <ele>60.8</ele>
        <time>2021-05-23T08:53:25Z</time>
      </trkpt>
      <trkpt lat="42.6960580" lon="-8.6386510">
        <ele>60.8</ele>
        <time>2021-05-23T08:53:26Z</time>
      </trkpt>
      <trkpt lat="42.6960500" lon="-8.6386360">
        <ele>60.8</ele>
        <time>2021-05-23T08:53:27Z</time>
      </trkpt>
      <trkpt lat="42.6960460" lon="-8.6386300">
        <ele>60.8</ele>
        <time>2021-05-23T08:53:28Z</time>
      </trkpt>
      <trkpt lat="42.6960430" lon="-8.6386260">
        <ele>60.8</ele>
        <time>2021-05-23T08:53:29Z</time>
      </trkpt>
      <trkpt lat="42.6960430" lon="-8.6386180">
        <ele>60.8</ele>
        <time>2021-05-23T08:53:30Z</time>
      </trkpt>
      <trkpt lat="42.6960450" lon="-8.6386230">
        <ele>60.8</ele>
        <time>2021-05-23T08:53:31Z</time>
      </trkpt>
      <trkpt lat="42.6960380" lon="-8.6386270">
        <ele>60.8</ele>
        <time>2021-05-23T08:53:32Z</time>
      </trkpt>
      <trkpt lat="42.6960430" lon="-8.6386560">
        <ele>60.9</ele>
        <time>2021-05-23T08:53:33Z</time>
      </trkpt>
      <trkpt lat="42.6960250" lon="-8.6386410">
        <ele>60.9</ele>
        <time>2021-05-23T08:53:34Z</time>
      </trkpt>
      <trkpt lat="42.6960220" lon="-8.6386510">
        <ele>60.9</ele>
        <time>2021-05-23T08:53:35Z</time>
      </trkpt>
      <trkpt lat="42.6960290" lon="-8.6386330">
        <ele>60.9</ele>
        <time>2021-05-23T08:53:36Z</time>
      </trkpt>
      <trkpt lat="42.6960300" lon="-8.6386310">
        <ele>60.9</ele>
        <time>2021-05-23T08:53:37Z</time>
      </trkpt>
      <trkpt lat="42.6960340" lon="-8.6386240">
        <ele>60.9</ele>
        <time>2021-05-23T08:53:38Z</time>
      </trkpt>
      <trkpt lat="42.6960390" lon="-8.6386210">
        <ele>60.9</ele>
        <time>2021-05-23T08:53:39Z</time>
      </trkpt>
      <trkpt lat="42.6960400" lon="-8.6386100">
        <ele>60.9</ele>
        <time>2021-05-23T08:53:40Z</time>
      </trkpt>
      <trkpt lat="42.6960350" lon="-8.6386090">
        <ele>60.9</ele>
        <time>2021-05-23T08:53:41Z</time>
      </trkpt>
      <trkpt lat="42.6960400" lon="-8.6386070">
        <ele>60.9</ele>
        <time>2021-05-23T08:53:42Z</time>
      </trkpt>
      <trkpt lat="42.6960410" lon="-8.6386060">
        <ele>60.9</ele>
        <time>2021-05-23T08:53:43Z</time>
      </trkpt>
      <trkpt lat="42.6960400" lon="-8.6386090">
        <ele>60.9</ele>
        <time>2021-05-23T08:53:44Z</time>
      </trkpt>
      <trkpt lat="42.6960420" lon="-8.6386120">
        <ele>60.9</ele>
        <time>2021-05-23T08:53:45Z</time>
      </trkpt>
      <trkpt lat="42.6960450" lon="-8.6386110">
        <ele>60.9</ele>
        <time>2021-05-23T08:53:46Z</time>
      </trkpt>
      <trkpt lat="42.6960450" lon="-8.6386110">
        <ele>60.9</ele>
        <time>2021-05-23T08:53:47Z</time>
      </trkpt>
      <trkpt lat="42.6960450" lon="-8.6386110">
        <ele>60.9</ele>
        <time>2021-05-23T08:53:49Z</time>
      </trkpt>
      <trkpt lat="42.6960540" lon="-8.6385980">
        <ele>60.9</ele>
        <time>2021-05-23T08:53:50Z</time>
      </trkpt>
      <trkpt lat="42.6960580" lon="-8.6385920">
        <ele>60.9</ele>
        <time>2021-05-23T08:53:51Z</time>
      </trkpt>
      <trkpt lat="42.6960760" lon="-8.6386020">
        <ele>60.9</ele>
        <time>2021-05-23T08:53:52Z</time>
      </trkpt>
      <trkpt lat="42.6960760" lon="-8.6386080">
        <ele>60.9</ele>
        <time>2021-05-23T08:53:53Z</time>
      </trkpt>
      <trkpt lat="42.6960770" lon="-8.6386140">
        <ele>60.9</ele>
        <time>2021-05-23T08:53:54Z</time>
      </trkpt>
      <trkpt lat="42.6960780" lon="-8.6386190">
        <ele>60.9</ele>
        <time>2021-05-23T08:53:55Z</time>
      </trkpt>
      <trkpt lat="42.6960780" lon="-8.6386250">
        <ele>61.0</ele>
        <time>2021-05-23T08:53:56Z</time>
      </trkpt>
      <trkpt lat="42.6960790" lon="-8.6386310">
        <ele>61.0</ele>
        <time>2021-05-23T08:53:57Z</time>
      </trkpt>
      <trkpt lat="42.6960790" lon="-8.6386370">
        <ele>61.0</ele>
        <time>2021-05-23T08:53:58Z</time>
      </trkpt>
      <trkpt lat="42.6960800" lon="-8.6386430">
        <ele>61.0</ele>
        <time>2021-05-23T08:53:59Z</time>
      </trkpt>
      <trkpt lat="42.6960660" lon="-8.6386360">
        <ele>61.0</ele>
        <time>2021-05-23T08:54:00Z</time>
      </trkpt>
      <trkpt lat="42.6960600" lon="-8.6386220">
        <ele>61.0</ele>
        <time>2021-05-23T08:54:01Z</time>
      </trkpt>
      <trkpt lat="42.6960560" lon="-8.6386160">
        <ele>61.0</ele>
        <time>2021-05-23T08:54:02Z</time>
      </trkpt>
      <trkpt lat="42.6960500" lon="-8.6386200">
        <ele>61.0</ele>
        <time>2021-05-23T08:54:03Z</time>
      </trkpt>
      <trkpt lat="42.6960470" lon="-8.6386150">
        <ele>61.0</ele>
        <time>2021-05-23T08:54:04Z</time>
      </trkpt>
      <trkpt lat="42.6960450" lon="-8.6386110">
        <ele>61.0</ele>
        <time>2021-05-23T08:54:05Z</time>
      </trkpt>
      <trkpt lat="42.6960420" lon="-8.6386060">
        <ele>61.0</ele>
        <time>2021-05-23T08:54:06Z</time>
      </trkpt>
      <trkpt lat="42.6960400" lon="-8.6386020">
        <ele>61.0</ele>
        <time>2021-05-23T08:54:07Z</time>
      </trkpt>
      <trkpt lat="42.6960380" lon="-8.6385980">
        <ele>61.0</ele>
        <time>2021-05-23T08:54:08Z</time>
      </trkpt>
      <trkpt lat="42.6960350" lon="-8.6385930">
        <ele>61.0</ele>
        <time>2021-05-23T08:54:10Z</time>
      </trkpt>
      <trkpt lat="42.6960330" lon="-8.6385890">
        <ele>61.0</ele>
        <time>2021-05-23T08:54:11Z</time>
      </trkpt>
      <trkpt lat="42.6960300" lon="-8.6385840">
        <ele>61.0</ele>
        <time>2021-05-23T08:54:12Z</time>
      </trkpt>
      <trkpt lat="42.6960280" lon="-8.6385800">
        <ele>61.0</ele>
        <time>2021-05-23T08:54:13Z</time>
      </trkpt>
      <trkpt lat="42.6960290" lon="-8.6385730">
        <ele>61.0</ele>
        <time>2021-05-23T08:54:14Z</time>
      </trkpt>
      <trkpt lat="42.6960400" lon="-8.6385660">
        <ele>61.0</ele>
        <time>2021-05-23T08:54:15Z</time>
      </trkpt>
      <trkpt lat="42.6960380" lon="-8.6385630">
        <ele>61.0</ele>
        <time>2021-05-23T08:54:16Z</time>
      </trkpt>
      <trkpt lat="42.6960380" lon="-8.6385540">
        <ele>61.0</ele>
        <time>2021-05-23T08:54:17Z</time>
      </trkpt>
      <trkpt lat="42.6960400" lon="-8.6385420">
        <ele>61.0</ele>
        <time>2021-05-23T08:54:18Z</time>
      </trkpt>
      <trkpt lat="42.6960470" lon="-8.6385260">
        <ele>61.0</ele>
        <time>2021-05-23T08:54:19Z</time>
      </trkpt>
      <trkpt lat="42.6960560" lon="-8.6385360">
        <ele>61.1</ele>
        <time>2021-05-23T08:54:20Z</time>
      </trkpt>
      <trkpt lat="42.6960500" lon="-8.6385650">
        <ele>61.1</ele>
        <time>2021-05-23T08:54:21Z</time>
      </trkpt>
      <trkpt lat="42.6960340" lon="-8.6385730">
        <ele>61.1</ele>
        <time>2021-05-23T08:54:22Z</time>
      </trkpt>
      <trkpt lat="42.6960490" lon="-8.6385690">
        <ele>61.1</ele>
        <time>2021-05-23T08:54:23Z</time>
      </trkpt>
      <trkpt lat="42.6960470" lon="-8.6385710">
        <ele>61.1</ele>
        <time>2021-05-23T08:54:24Z</time>
      </trkpt>
      <trkpt lat="42.6960430" lon="-8.6385620">
        <ele>61.1</ele>
        <time>2021-05-23T08:54:25Z</time>
      </trkpt>
      <trkpt lat="42.6960580" lon="-8.6385640">
        <ele>61.1</ele>
        <time>2021-05-23T08:54:26Z</time>
      </trkpt>
      <trkpt lat="42.6960570" lon="-8.6385720">
        <ele>61.1</ele>
        <time>2021-05-23T08:54:27Z</time>
      </trkpt>
      <trkpt lat="42.6960620" lon="-8.6385570">
        <ele>61.1</ele>
        <time>2021-05-23T08:54:28Z</time>
      </trkpt>
      <trkpt lat="42.6960470" lon="-8.6385570">
        <ele>61.1</ele>
        <time>2021-05-23T08:54:29Z</time>
      </trkpt>
      <trkpt lat="42.6960380" lon="-8.6385440">
        <ele>61.1</ele>
        <time>2021-05-23T08:54:30Z</time>
      </trkpt>
      <trkpt lat="42.6960220" lon="-8.6385200">
        <ele>61.2</ele>
        <time>2021-05-23T08:54:31Z</time>
      </trkpt>
      <trkpt lat="42.6960090" lon="-8.6385200">
        <ele>61.2</ele>
        <time>2021-05-23T08:54:32Z</time>
      </trkpt>
      <trkpt lat="42.6960020" lon="-8.6385280">
        <ele>61.2</ele>
        <time>2021-05-23T08:54:33Z</time>
      </trkpt>
      <trkpt lat="42.6960020" lon="-8.6385340">
        <ele>61.2</ele>
        <time>2021-05-23T08:54:34Z</time>
      </trkpt>
      <trkpt lat="42.6959970" lon="-8.6385250">
        <ele>61.2</ele>
        <time>2021-05-23T08:54:35Z</time>
      </trkpt>
      <trkpt lat="42.6959890" lon="-8.6385110">
        <ele>61.2</ele>
        <time>2021-05-23T08:54:36Z</time>
      </trkpt>
      <trkpt lat="42.6959840" lon="-8.6385090">
        <ele>61.2</ele>
        <time>2021-05-23T08:54:37Z</time>
      </trkpt>
      <trkpt lat="42.6959930" lon="-8.6385130">
        <ele>61.2</ele>
        <time>2021-05-23T08:54:38Z</time>
      </trkpt>
      <trkpt lat="42.6959930" lon="-8.6385140">
        <ele>61.2</ele>
        <time>2021-05-23T08:54:39Z</time>
      </trkpt>
      <trkpt lat="42.6959930" lon="-8.6385140">
        <ele>61.2</ele>
        <time>2021-05-23T08:54:40Z</time>
      </trkpt>
      <trkpt lat="42.6959920" lon="-8.6385000">
        <ele>61.2</ele>
        <time>2021-05-23T08:54:41Z</time>
      </trkpt>
      <trkpt lat="42.6959940" lon="-8.6384890">
        <ele>61.2</ele>
        <time>2021-05-23T08:54:42Z</time>
      </trkpt>
      <trkpt lat="42.6959910" lon="-8.6384770">
        <ele>61.2</ele>
        <time>2021-05-23T08:54:43Z</time>
      </trkpt>
      <trkpt lat="42.6960020" lon="-8.6384770">
        <ele>61.2</ele>
        <time>2021-05-23T08:54:44Z</time>
      </trkpt>
      <trkpt lat="42.6960220" lon="-8.6384810">
        <ele>61.2</ele>
        <time>2021-05-23T08:54:45Z</time>
      </trkpt>
      <trkpt lat="42.6960370" lon="-8.6384980">
        <ele>61.3</ele>
        <time>2021-05-23T08:54:46Z</time>
      </trkpt>
      <trkpt lat="42.6960380" lon="-8.6385190">
        <ele>61.3</ele>
        <time>2021-05-23T08:54:47Z</time>
      </trkpt>
      <trkpt lat="42.6960390" lon="-8.6385090">
        <ele>61.3</ele>
        <time>2021-05-23T08:54:48Z</time>
      </trkpt>
      <trkpt lat="42.6960500" lon="-8.6385180">
        <ele>61.3</ele>
        <time>2021-05-23T08:54:49Z</time>
      </trkpt>
      <trkpt lat="42.6960600" lon="-8.6385260">
        <ele>61.3</ele>
        <time>2021-05-23T08:54:50Z</time>
      </trkpt>
      <trkpt lat="42.6960710" lon="-8.6385350">
        <ele>61.3</ele>
        <time>2021-05-23T08:54:51Z</time>
      </trkpt>
      <trkpt lat="42.6960820" lon="-8.6385440">
        <ele>61.3</ele>
        <time>2021-05-23T08:54:52Z</time>
      </trkpt>
      <trkpt lat="42.6960890" lon="-8.6385480">
        <ele>61.3</ele>
        <time>2021-05-23T08:54:53Z</time>
      </trkpt>
      <trkpt lat="42.6960920" lon="-8.6385480">
        <ele>61.3</ele>
        <time>2021-05-23T08:54:54Z</time>
      </trkpt>
      <trkpt lat="42.6960940" lon="-8.6385480">
        <ele>61.3</ele>
        <time>2021-05-23T08:54:55Z</time>
      </trkpt>
      <trkpt lat="42.6960970" lon="-8.6385490">
        <ele>61.3</ele>
        <time>2021-05-23T08:54:56Z</time>
      </trkpt>
      <trkpt lat="42.6961000" lon="-8.6385490">
        <ele>61.3</ele>
        <time>2021-05-23T08:54:57Z</time>
      </trkpt>
      <trkpt lat="42.6961030" lon="-8.6385490">
        <ele>61.3</ele>
        <time>2021-05-23T08:54:58Z</time>
      </trkpt>
      <trkpt lat="42.6961060" lon="-8.6385490">
        <ele>61.3</ele>
        <time>2021-05-23T08:54:59Z</time>
      </trkpt>
      <trkpt lat="42.6961080" lon="-8.6385490">
        <ele>61.3</ele>
        <time>2021-05-23T08:55:00Z</time>
      </trkpt>
      <trkpt lat="42.6961110" lon="-8.6385490">
        <ele>61.3</ele>
        <time>2021-05-23T08:55:01Z</time>
      </trkpt>
      <trkpt lat="42.6961140" lon="-8.6385490">
        <ele>61.3</ele>
        <time>2021-05-23T08:55:02Z</time>
      </trkpt>
      <trkpt lat="42.6961170" lon="-8.6385490">
        <ele>61.3</ele>
        <time>2021-05-23T08:55:03Z</time>
      </trkpt>
      <trkpt lat="42.6961200" lon="-8.6385500">
        <ele>61.3</ele>
        <time>2021-05-23T08:55:04Z</time>
      </trkpt>
      <trkpt lat="42.6961220" lon="-8.6385500">
        <ele>61.3</ele>
        <time>2021-05-23T08:55:05Z</time>
      </trkpt>
      <trkpt lat="42.6961250" lon="-8.6385500">
        <ele>61.4</ele>
        <time>2021-05-23T08:55:06Z</time>
      </trkpt>
      <trkpt lat="42.6961280" lon="-8.6385500">
        <ele>61.4</ele>
        <time>2021-05-23T08:55:07Z</time>
      </trkpt>
      <trkpt lat="42.6961430" lon="-8.6385540">
        <ele>61.4</ele>
        <time>2021-05-23T08:55:08Z</time>
      </trkpt>
      <trkpt lat="42.6961570" lon="-8.6385570">
        <ele>61.4</ele>
        <time>2021-05-23T08:55:09Z</time>
      </trkpt>
      <trkpt lat="42.6961720" lon="-8.6385610">
        <ele>61.4</ele>
        <time>2021-05-23T08:55:10Z</time>
      </trkpt>
      <trkpt lat="42.6961640" lon="-8.6385620">
        <ele>61.4</ele>
        <time>2021-05-23T08:55:11Z</time>
      </trkpt>
      <trkpt lat="42.6961600" lon="-8.6385570">
        <ele>61.4</ele>
        <time>2021-05-23T08:55:12Z</time>
      </trkpt>
      <trkpt lat="42.6961560" lon="-8.6385530">
        <ele>61.4</ele>
        <time>2021-05-23T08:55:13Z</time>
      </trkpt>
      <trkpt lat="42.6961520" lon="-8.6385480">
        <ele>61.4</ele>
        <time>2021-05-23T08:55:14Z</time>
      </trkpt>
      <trkpt lat="42.6961470" lon="-8.6385440">
        <ele>61.4</ele>
        <time>2021-05-23T08:55:15Z</time>
      </trkpt>
      <trkpt lat="42.6961430" lon="-8.6385400">
        <ele>61.4</ele>
        <time>2021-05-23T08:55:16Z</time>
      </trkpt>
      <trkpt lat="42.6961390" lon="-8.6385350">
        <ele>61.4</ele>
        <time>2021-05-23T08:55:17Z</time>
      </trkpt>
      <trkpt lat="42.6961350" lon="-8.6385310">
        <ele>61.4</ele>
        <time>2021-05-23T08:55:18Z</time>
      </trkpt>
      <trkpt lat="42.6961350" lon="-8.6385310">
        <ele>61.4</ele>
        <time>2021-05-23T08:55:19Z</time>
      </trkpt>
      <trkpt lat="42.6961370" lon="-8.6385380">
        <ele>61.4</ele>
        <time>2021-05-23T08:55:20Z</time>
      </trkpt>
      <trkpt lat="42.6961430" lon="-8.6385380">
        <ele>61.4</ele>
        <time>2021-05-23T08:55:21Z</time>
      </trkpt>
      <trkpt lat="42.6961400" lon="-8.6385470">
        <ele>61.4</ele>
        <time>2021-05-23T08:55:22Z</time>
      </trkpt>
      <trkpt lat="42.6961500" lon="-8.6385580">
        <ele>61.5</ele>
        <time>2021-05-23T08:55:23Z</time>
      </trkpt>
      <trkpt lat="42.6961430" lon="-8.6385560">
        <ele>61.5</ele>
        <time>2021-05-23T08:55:24Z</time>
      </trkpt>
      <trkpt lat="42.6961230" lon="-8.6385660">
        <ele>61.5</ele>
        <time>2021-05-23T08:55:25Z</time>
      </trkpt>
      <trkpt lat="42.6961130" lon="-8.6385720">
        <ele>61.5</ele>
        <time>2021-05-23T08:55:26Z</time>
      </trkpt>
      <trkpt lat="42.6960900" lon="-8.6385810">
        <ele>61.5</ele>
        <time>2021-05-23T08:55:27Z</time>
      </trkpt>
      <trkpt lat="42.6960790" lon="-8.6385910">
        <ele>61.5</ele>
        <time>2021-05-23T08:55:28Z</time>
      </trkpt>
      <trkpt lat="42.6960680" lon="-8.6385840">
        <ele>61.5</ele>
        <time>2021-05-23T08:55:29Z</time>
      </trkpt>
      <trkpt lat="42.6960600" lon="-8.6385840">
        <ele>61.5</ele>
        <time>2021-05-23T08:55:30Z</time>
      </trkpt>
      <trkpt lat="42.6960510" lon="-8.6385990">
        <ele>61.5</ele>
        <time>2021-05-23T08:55:31Z</time>
      </trkpt>
      <trkpt lat="42.6960480" lon="-8.6386000">
        <ele>61.6</ele>
        <time>2021-05-23T08:55:32Z</time>
      </trkpt>
      <trkpt lat="42.6960460" lon="-8.6386010">
        <ele>61.6</ele>
        <time>2021-05-23T08:55:33Z</time>
      </trkpt>
      <trkpt lat="42.6960430" lon="-8.6386010">
        <ele>61.6</ele>
        <time>2021-05-23T08:55:34Z</time>
      </trkpt>
      <trkpt lat="42.6960410" lon="-8.6386020">
        <ele>61.6</ele>
        <time>2021-05-23T08:55:35Z</time>
      </trkpt>
      <trkpt lat="42.6960390" lon="-8.6386030">
        <ele>61.6</ele>
        <time>2021-05-23T08:55:36Z</time>
      </trkpt>
      <trkpt lat="42.6960360" lon="-8.6386040">
        <ele>61.6</ele>
        <time>2021-05-23T08:55:37Z</time>
      </trkpt>
      <trkpt lat="42.6960340" lon="-8.6386050">
        <ele>61.6</ele>
        <time>2021-05-23T08:55:38Z</time>
      </trkpt>
      <trkpt lat="42.6960310" lon="-8.6386060">
        <ele>61.6</ele>
        <time>2021-05-23T08:55:39Z</time>
      </trkpt>
      <trkpt lat="42.6960290" lon="-8.6386060">
        <ele>61.6</ele>
        <time>2021-05-23T08:55:40Z</time>
      </trkpt>
      <trkpt lat="42.6960260" lon="-8.6386070">
        <ele>61.6</ele>
        <time>2021-05-23T08:55:41Z</time>
      </trkpt>
      <trkpt lat="42.6960240" lon="-8.6386080">
        <ele>61.6</ele>
        <time>2021-05-23T08:55:42Z</time>
      </trkpt>
      <trkpt lat="42.6960220" lon="-8.6385960">
        <ele>61.6</ele>
        <time>2021-05-23T08:55:43Z</time>
      </trkpt>
      <trkpt lat="42.6960360" lon="-8.6385820">
        <ele>61.6</ele>
        <time>2021-05-23T08:55:44Z</time>
      </trkpt>
      <trkpt lat="42.6960440" lon="-8.6385740">
        <ele>61.6</ele>
        <time>2021-05-23T08:55:45Z</time>
      </trkpt>
      <trkpt lat="42.6960470" lon="-8.6385800">
        <ele>61.6</ele>
        <time>2021-05-23T08:55:46Z</time>
      </trkpt>
      <trkpt lat="42.6960530" lon="-8.6385990">
        <ele>61.6</ele>
        <time>2021-05-23T08:55:47Z</time>
      </trkpt>
      <trkpt lat="42.6960580" lon="-8.6386000">
        <ele>61.6</ele>
        <time>2021-05-23T08:55:48Z</time>
      </trkpt>
      <trkpt lat="42.6960510" lon="-8.6385940">
        <ele>61.6</ele>
        <time>2021-05-23T08:55:50Z</time>
      </trkpt>
      <trkpt lat="42.6960520" lon="-8.6385900">
        <ele>61.6</ele>
        <time>2021-05-23T08:55:51Z</time>
      </trkpt>
      <trkpt lat="42.6960530" lon="-8.6385950">
        <ele>61.6</ele>
        <time>2021-05-23T08:55:52Z</time>
      </trkpt>
      <trkpt lat="42.6960500" lon="-8.6385800">
        <ele>61.7</ele>
        <time>2021-05-23T08:55:53Z</time>
      </trkpt>
      <trkpt lat="42.6960560" lon="-8.6385790">
        <ele>61.7</ele>
        <time>2021-05-23T08:55:54Z</time>
      </trkpt>
      <trkpt lat="42.6960430" lon="-8.6385590">
        <ele>61.7</ele>
        <time>2021-05-23T08:55:55Z</time>
      </trkpt>
      <trkpt lat="42.6960310" lon="-8.6385680">
        <ele>61.7</ele>
        <time>2021-05-23T08:55:56Z</time>
      </trkpt>
      <trkpt lat="42.6960390" lon="-8.6385760">
        <ele>61.7</ele>
        <time>2021-05-23T08:55:57Z</time>
      </trkpt>
      <trkpt lat="42.6960310" lon="-8.6385640">
        <ele>61.7</ele>
        <time>2021-05-23T08:55:58Z</time>
      </trkpt>
      <trkpt lat="42.6960380" lon="-8.6385710">
        <ele>61.7</ele>
        <time>2021-05-23T08:55:59Z</time>
      </trkpt>
      <trkpt lat="42.6960300" lon="-8.6385770">
        <ele>61.7</ele>
        <time>2021-05-23T08:56:00Z</time>
      </trkpt>
      <trkpt lat="42.6960310" lon="-8.6385820">
        <ele>61.7</ele>
        <time>2021-05-23T08:56:01Z</time>
      </trkpt>
      <trkpt lat="42.6960310" lon="-8.6385820">
        <ele>61.7</ele>
        <time>2021-05-23T08:56:02Z</time>
      </trkpt>
      <trkpt lat="42.6960170" lon="-8.6385790">
        <ele>61.7</ele>
        <time>2021-05-23T08:56:03Z</time>
      </trkpt>
      <trkpt lat="42.6960100" lon="-8.6385730">
        <ele>61.8</ele>
        <time>2021-05-23T08:56:04Z</time>
      </trkpt>
      <trkpt lat="42.6960100" lon="-8.6385690">
        <ele>61.8</ele>
        <time>2021-05-23T08:56:05Z</time>
      </trkpt>
      <trkpt lat="42.6960090" lon="-8.6385640">
        <ele>61.8</ele>
        <time>2021-05-23T08:56:06Z</time>
      </trkpt>
      <trkpt lat="42.6960090" lon="-8.6385600">
        <ele>61.8</ele>
        <time>2021-05-23T08:56:07Z</time>
      </trkpt>
      <trkpt lat="42.6960080" lon="-8.6385560">
        <ele>61.8</ele>
        <time>2021-05-23T08:56:08Z</time>
      </trkpt>
      <trkpt lat="42.6960080" lon="-8.6385520">
        <ele>61.8</ele>
        <time>2021-05-23T08:56:09Z</time>
      </trkpt>
      <trkpt lat="42.6960070" lon="-8.6385480">
        <ele>61.8</ele>
        <time>2021-05-23T08:56:10Z</time>
      </trkpt>
      <trkpt lat="42.6960060" lon="-8.6385440">
        <ele>61.8</ele>
        <time>2021-05-23T08:56:11Z</time>
      </trkpt>
      <trkpt lat="42.6960060" lon="-8.6385390">
        <ele>61.8</ele>
        <time>2021-05-23T08:56:12Z</time>
      </trkpt>
      <trkpt lat="42.6960050" lon="-8.6385350">
        <ele>61.8</ele>
        <time>2021-05-23T08:56:13Z</time>
      </trkpt>
      <trkpt lat="42.6960050" lon="-8.6385310">
        <ele>61.8</ele>
        <time>2021-05-23T08:56:14Z</time>
      </trkpt>
      <trkpt lat="42.6960040" lon="-8.6385270">
        <ele>61.8</ele>
        <time>2021-05-23T08:56:15Z</time>
      </trkpt>
      <trkpt lat="42.6960070" lon="-8.6385120">
        <ele>61.8</ele>
        <time>2021-05-23T08:56:16Z</time>
      </trkpt>
      <trkpt lat="42.6960140" lon="-8.6385070">
        <ele>61.8</ele>
        <time>2021-05-23T08:56:17Z</time>
      </trkpt>
      <trkpt lat="42.6960200" lon="-8.6385030">
        <ele>61.8</ele>
        <time>2021-05-23T08:56:18Z</time>
      </trkpt>
      <trkpt lat="42.6960270" lon="-8.6384980">
        <ele>61.8</ele>
        <time>2021-05-23T08:56:19Z</time>
      </trkpt>
      <trkpt lat="42.6960340" lon="-8.6384940">
        <ele>61.8</ele>
        <time>2021-05-23T08:56:20Z</time>
      </trkpt>
      <trkpt lat="42.6960330" lon="-8.6385080">
        <ele>61.8</ele>
        <time>2021-05-23T08:56:21Z</time>
      </trkpt>
      <trkpt lat="42.6960080" lon="-8.6385010">
        <ele>61.9</ele>
        <time>2021-05-23T08:56:22Z</time>
      </trkpt>
      <trkpt lat="42.6960420" lon="-8.6385220">
        <ele>61.9</ele>
        <time>2021-05-23T08:56:23Z</time>
      </trkpt>
      <trkpt lat="42.6960410" lon="-8.6385350">
        <ele>61.9</ele>
        <time>2021-05-23T08:56:24Z</time>
      </trkpt>
      <trkpt lat="42.6960320" lon="-8.6385390">
        <ele>61.9</ele>
        <time>2021-05-23T08:56:25Z</time>
      </trkpt>
      <trkpt lat="42.6960110" lon="-8.6385180">
        <ele>61.9</ele>
        <time>2021-05-23T08:56:26Z</time>
      </trkpt>
      <trkpt lat="42.6960030" lon="-8.6385190">
        <ele>61.9</ele>
        <time>2021-05-23T08:56:27Z</time>
      </trkpt>
      <trkpt lat="42.6960080" lon="-8.6385240">
        <ele>62.0</ele>
        <time>2021-05-23T08:56:28Z</time>
      </trkpt>
      <trkpt lat="42.6959800" lon="-8.6385070">
        <ele>62.0</ele>
        <time>2021-05-23T08:56:29Z</time>
      </trkpt>
      <trkpt lat="42.6959740" lon="-8.6385110">
        <ele>62.0</ele>
        <time>2021-05-23T08:56:30Z</time>
      </trkpt>
      <trkpt lat="42.6959790" lon="-8.6385410">
        <ele>62.0</ele>
        <time>2021-05-23T08:56:31Z</time>
      </trkpt>
      <trkpt lat="42.6959730" lon="-8.6385430">
        <ele>62.0</ele>
        <time>2021-05-23T08:56:32Z</time>
      </trkpt>
      <trkpt lat="42.6959470" lon="-8.6385270">
        <ele>62.1</ele>
        <time>2021-05-23T08:56:33Z</time>
      </trkpt>
      <trkpt lat="42.6959650" lon="-8.6385420">
        <ele>62.1</ele>
        <time>2021-05-23T08:56:34Z</time>
      </trkpt>
      <trkpt lat="42.6959730" lon="-8.6385380">
        <ele>62.1</ele>
        <time>2021-05-23T08:56:35Z</time>
      </trkpt>
      <trkpt lat="42.6959800" lon="-8.6385380">
        <ele>62.1</ele>
        <time>2021-05-23T08:56:36Z</time>
      </trkpt>
      <trkpt lat="42.6959890" lon="-8.6385410">
        <ele>62.1</ele>
        <time>2021-05-23T08:56:37Z</time>
      </trkpt>
      <trkpt lat="42.6959970" lon="-8.6385540">
        <ele>62.1</ele>
        <time>2021-05-23T08:56:38Z</time>
      </trkpt>
      <trkpt lat="42.6959980" lon="-8.6385640">
        <ele>62.1</ele>
        <time>2021-05-23T08:56:39Z</time>
      </trkpt>
      <trkpt lat="42.6960160" lon="-8.6385810">
        <ele>62.1</ele>
        <time>2021-05-23T08:56:40Z</time>
      </trkpt>
      <trkpt lat="42.6960200" lon="-8.6385830">
        <ele>62.2</ele>
        <time>2021-05-23T08:56:41Z</time>
      </trkpt>
      <trkpt lat="42.6960240" lon="-8.6385860">
        <ele>62.2</ele>
        <time>2021-05-23T08:56:42Z</time>
      </trkpt>
      <trkpt lat="42.6960270" lon="-8.6385890">
        <ele>62.2</ele>
        <time>2021-05-23T08:56:43Z</time>
      </trkpt>
      <trkpt lat="42.6960310" lon="-8.6385910">
        <ele>62.2</ele>
        <time>2021-05-23T08:56:44Z</time>
      </trkpt>
      <trkpt lat="42.6960350" lon="-8.6385940">
        <ele>62.2</ele>
        <time>2021-05-23T08:56:45Z</time>
      </trkpt>
      <trkpt lat="42.6960520" lon="-8.6385990">
        <ele>62.2</ele>
        <time>2021-05-23T08:56:46Z</time>
      </trkpt>
      <trkpt lat="42.6960680" lon="-8.6386040">
        <ele>62.2</ele>
        <time>2021-05-23T08:56:47Z</time>
      </trkpt>
      <trkpt lat="42.6960240" lon="-8.6385730">
        <ele>62.3</ele>
        <time>2021-05-23T08:56:48Z</time>
      </trkpt>
      <trkpt lat="42.6960170" lon="-8.6385630">
        <ele>62.3</ele>
        <time>2021-05-23T08:56:49Z</time>
      </trkpt>
      <trkpt lat="42.6960190" lon="-8.6385430">
        <ele>62.3</ele>
        <time>2021-05-23T08:56:50Z</time>
      </trkpt>
      <trkpt lat="42.6960200" lon="-8.6385460">
        <ele>62.3</ele>
        <time>2021-05-23T08:56:51Z</time>
      </trkpt>
      <trkpt lat="42.6960160" lon="-8.6385680">
        <ele>62.3</ele>
        <time>2021-05-23T08:56:52Z</time>
      </trkpt>
      <trkpt lat="42.6960160" lon="-8.6385840">
        <ele>62.3</ele>
        <time>2021-05-23T08:56:53Z</time>
      </trkpt>
      <trkpt lat="42.6960070" lon="-8.6385900">
        <ele>62.3</ele>
        <time>2021-05-23T08:56:54Z</time>
      </trkpt>
      <trkpt lat="42.6960080" lon="-8.6385950">
        <ele>62.3</ele>
        <time>2021-05-23T08:56:55Z</time>
      </trkpt>
      <trkpt lat="42.6960110" lon="-8.6386170">
        <ele>62.4</ele>
        <time>2021-05-23T08:56:56Z</time>
      </trkpt>
      <trkpt lat="42.6960110" lon="-8.6386320">
        <ele>62.4</ele>
        <time>2021-05-23T08:56:57Z</time>
      </trkpt>
      <trkpt lat="42.6960120" lon="-8.6386440">
        <ele>62.4</ele>
        <time>2021-05-23T08:56:58Z</time>
      </trkpt>
      <trkpt lat="42.6960120" lon="-8.6386570">
        <ele>62.4</ele>
        <time>2021-05-23T08:56:59Z</time>
      </trkpt>
      <trkpt lat="42.6960130" lon="-8.6386690">
        <ele>62.4</ele>
        <time>2021-05-23T08:57:00Z</time>
      </trkpt>
      <trkpt lat="42.6960140" lon="-8.6386810">
        <ele>62.4</ele>
        <time>2021-05-23T08:57:01Z</time>
      </trkpt>
      <trkpt lat="42.6960230" lon="-8.6386890">
        <ele>62.4</ele>
        <time>2021-05-23T08:57:02Z</time>
      </trkpt>
      <trkpt lat="42.6960220" lon="-8.6386880">
        <ele>62.4</ele>
        <time>2021-05-23T08:57:03Z</time>
      </trkpt>
      <trkpt lat="42.6960220" lon="-8.6386880">
        <ele>62.4</ele>
        <time>2021-05-23T08:57:04Z</time>
      </trkpt>
      <trkpt lat="42.6960220" lon="-8.6386870">
        <ele>62.4</ele>
        <time>2021-05-23T08:57:05Z</time>
      </trkpt>
      <trkpt lat="42.6960210" lon="-8.6386870">
        <ele>62.4</ele>
        <time>2021-05-23T08:57:06Z</time>
      </trkpt>
      <trkpt lat="42.6960210" lon="-8.6386870">
        <ele>62.4</ele>
        <time>2021-05-23T08:57:07Z</time>
      </trkpt>
      <trkpt lat="42.6960210" lon="-8.6386860">
        <ele>62.4</ele>
        <time>2021-05-23T08:57:08Z</time>
      </trkpt>
      <trkpt lat="42.6960210" lon="-8.6386860">
        <ele>62.4</ele>
        <time>2021-05-23T08:57:09Z</time>
      </trkpt>
      <trkpt lat="42.6960200" lon="-8.6386850">
        <ele>62.4</ele>
        <time>2021-05-23T08:57:10Z</time>
      </trkpt>
      <trkpt lat="42.6960200" lon="-8.6386850">
        <ele>62.4</ele>
        <time>2021-05-23T08:57:11Z</time>
      </trkpt>
      <trkpt lat="42.6960200" lon="-8.6386840">
        <ele>62.4</ele>
        <time>2021-05-23T08:57:12Z</time>
      </trkpt>
      <trkpt lat="42.6960190" lon="-8.6386840">
        <ele>62.4</ele>
        <time>2021-05-23T08:57:13Z</time>
      </trkpt>
      <trkpt lat="42.6960190" lon="-8.6386840">
        <ele>62.4</ele>
        <time>2021-05-23T08:57:14Z</time>
      </trkpt>
      <trkpt lat="42.6960190" lon="-8.6386830">
        <ele>62.4</ele>
        <time>2021-05-23T08:57:15Z</time>
      </trkpt>
      <trkpt lat="42.6960180" lon="-8.6386830">
        <ele>62.4</ele>
        <time>2021-05-23T08:57:16Z</time>
      </trkpt>
      <trkpt lat="42.6960180" lon="-8.6386820">
        <ele>62.4</ele>
        <time>2021-05-23T08:57:17Z</time>
      </trkpt>
      <trkpt lat="42.6960180" lon="-8.6386820">
        <ele>62.4</ele>
        <time>2021-05-23T08:57:18Z</time>
      </trkpt>
      <trkpt lat="42.6960180" lon="-8.6386820">
        <ele>62.4</ele>
        <time>2021-05-23T08:57:19Z</time>
      </trkpt>
      <trkpt lat="42.6960170" lon="-8.6386810">
        <ele>62.4</ele>
        <time>2021-05-23T08:57:20Z</time>
      </trkpt>
      <trkpt lat="42.6960170" lon="-8.6386810">
        <ele>62.4</ele>
        <time>2021-05-23T08:57:21Z</time>
      </trkpt>
      <trkpt lat="42.6960170" lon="-8.6386800">
        <ele>62.4</ele>
        <time>2021-05-23T08:57:22Z</time>
      </trkpt>
      <trkpt lat="42.6960160" lon="-8.6386800">
        <ele>62.4</ele>
        <time>2021-05-23T08:57:23Z</time>
      </trkpt>
      <trkpt lat="42.6960160" lon="-8.6386790">
        <ele>62.4</ele>
        <time>2021-05-23T08:57:24Z</time>
      </trkpt>
      <trkpt lat="42.6960160" lon="-8.6386790">
        <ele>62.4</ele>
        <time>2021-05-23T08:57:25Z</time>
      </trkpt>
      <trkpt lat="42.6960150" lon="-8.6386790">
        <ele>62.4</ele>
        <time>2021-05-23T08:57:26Z</time>
      </trkpt>
      <trkpt lat="42.6960150" lon="-8.6386780">
        <ele>62.4</ele>
        <time>2021-05-23T08:57:27Z</time>
      </trkpt>
      <trkpt lat="42.6960150" lon="-8.6386780">
        <ele>62.4</ele>
        <time>2021-05-23T08:57:28Z</time>
      </trkpt>
      <trkpt lat="42.6960140" lon="-8.6386770">
        <ele>62.4</ele>
        <time>2021-05-23T08:57:29Z</time>
      </trkpt>
      <trkpt lat="42.6960140" lon="-8.6386770">
        <ele>62.4</ele>
        <time>2021-05-23T08:57:30Z</time>
      </trkpt>
      <trkpt lat="42.6960140" lon="-8.6386770">
        <ele>62.4</ele>
        <time>2021-05-23T08:57:31Z</time>
      </trkpt>
      <trkpt lat="42.6960140" lon="-8.6386760">
        <ele>62.4</ele>
        <time>2021-05-23T08:57:32Z</time>
      </trkpt>
      <trkpt lat="42.6960130" lon="-8.6386760">
        <ele>62.4</ele>
        <time>2021-05-23T08:57:33Z</time>
      </trkpt>
      <trkpt lat="42.6960130" lon="-8.6386750">
        <ele>62.4</ele>
        <time>2021-05-23T08:57:34Z</time>
      </trkpt>
      <trkpt lat="42.6960130" lon="-8.6386750">
        <ele>62.4</ele>
        <time>2021-05-23T08:57:35Z</time>
      </trkpt>
      <trkpt lat="42.6960120" lon="-8.6386740">
        <ele>62.4</ele>
        <time>2021-05-23T08:57:36Z</time>
      </trkpt>
      <trkpt lat="42.6960120" lon="-8.6386740">
        <ele>62.4</ele>
        <time>2021-05-23T08:57:37Z</time>
      </trkpt>
      <trkpt lat="42.6960120" lon="-8.6386740">
        <ele>62.4</ele>
        <time>2021-05-23T08:57:38Z</time>
      </trkpt>
      <trkpt lat="42.6960110" lon="-8.6386730">
        <ele>62.4</ele>
        <time>2021-05-23T08:57:39Z</time>
      </trkpt>
      <trkpt lat="42.6960110" lon="-8.6386730">
        <ele>62.4</ele>
        <time>2021-05-23T08:57:40Z</time>
      </trkpt>
      <trkpt lat="42.6960110" lon="-8.6386720">
        <ele>62.4</ele>
        <time>2021-05-23T08:57:41Z</time>
      </trkpt>
      <trkpt lat="42.6960110" lon="-8.6386720">
        <ele>62.4</ele>
        <time>2021-05-23T08:57:43Z</time>
      </trkpt>
      <trkpt lat="42.6960100" lon="-8.6386720">
        <ele>62.4</ele>
        <time>2021-05-23T08:57:45Z</time>
      </trkpt>
      <trkpt lat="42.6960100" lon="-8.6386710">
        <ele>62.4</ele>
        <time>2021-05-23T08:57:46Z</time>
      </trkpt>
      <trkpt lat="42.6960100" lon="-8.6386710">
        <ele>62.4</ele>
        <time>2021-05-23T08:57:47Z</time>
      </trkpt>
      <trkpt lat="42.6960090" lon="-8.6386700">
        <ele>62.4</ele>
        <time>2021-05-23T08:57:48Z</time>
      </trkpt>
      <trkpt lat="42.6960090" lon="-8.6386700">
        <ele>62.4</ele>
        <time>2021-05-23T08:57:49Z</time>
      </trkpt>
      <trkpt lat="42.6960090" lon="-8.6386700">
        <ele>62.4</ele>
        <time>2021-05-23T08:57:50Z</time>
      </trkpt>
      <trkpt lat="42.6960080" lon="-8.6386690">
        <ele>62.5</ele>
        <time>2021-05-23T08:57:51Z</time>
      </trkpt>
      <trkpt lat="42.6960080" lon="-8.6386690">
        <ele>62.5</ele>
        <time>2021-05-23T08:57:52Z</time>
      </trkpt>
      <trkpt lat="42.6960080" lon="-8.6386680">
        <ele>62.5</ele>
        <time>2021-05-23T08:57:53Z</time>
      </trkpt>
      <trkpt lat="42.6960070" lon="-8.6386680">
        <ele>62.5</ele>
        <time>2021-05-23T08:57:54Z</time>
      </trkpt>
      <trkpt lat="42.6960070" lon="-8.6386670">
        <ele>62.5</ele>
        <time>2021-05-23T08:57:55Z</time>
      </trkpt>
      <trkpt lat="42.6960070" lon="-8.6386670">
        <ele>62.5</ele>
        <time>2021-05-23T08:57:56Z</time>
      </trkpt>
      <trkpt lat="42.6960070" lon="-8.6386670">
        <ele>62.5</ele>
        <time>2021-05-23T08:57:57Z</time>
      </trkpt>
      <trkpt lat="42.6960060" lon="-8.6386660">
        <ele>62.5</ele>
        <time>2021-05-23T08:57:58Z</time>
      </trkpt>
      <trkpt lat="42.6960060" lon="-8.6386660">
        <ele>62.5</ele>
        <time>2021-05-23T08:57:59Z</time>
      </trkpt>
      <trkpt lat="42.6960060" lon="-8.6386650">
        <ele>62.5</ele>
        <time>2021-05-23T08:58:00Z</time>
      </trkpt>
      <trkpt lat="42.6960050" lon="-8.6386650">
        <ele>62.5</ele>
        <time>2021-05-23T08:58:01Z</time>
      </trkpt>
      <trkpt lat="42.6960050" lon="-8.6386650">
        <ele>62.5</ele>
        <time>2021-05-23T08:58:02Z</time>
      </trkpt>
      <trkpt lat="42.6960050" lon="-8.6386640">
        <ele>62.5</ele>
        <time>2021-05-23T08:58:03Z</time>
      </trkpt>
      <trkpt lat="42.6960040" lon="-8.6386640">
        <ele>62.5</ele>
        <time>2021-05-23T08:58:04Z</time>
      </trkpt>
      <trkpt lat="42.6960040" lon="-8.6386630">
        <ele>62.5</ele>
        <time>2021-05-23T08:58:05Z</time>
      </trkpt>
      <trkpt lat="42.6960040" lon="-8.6386630">
        <ele>62.5</ele>
        <time>2021-05-23T08:58:06Z</time>
      </trkpt>
      <trkpt lat="42.6960030" lon="-8.6386620">
        <ele>62.5</ele>
        <time>2021-05-23T08:58:07Z</time>
      </trkpt>
      <trkpt lat="42.6960030" lon="-8.6386620">
        <ele>62.5</ele>
        <time>2021-05-23T08:58:08Z</time>
      </trkpt>
      <trkpt lat="42.6960030" lon="-8.6386620">
        <ele>62.5</ele>
        <time>2021-05-23T08:58:09Z</time>
      </trkpt>
      <trkpt lat="42.6960030" lon="-8.6386610">
        <ele>62.5</ele>
        <time>2021-05-23T08:58:10Z</time>
      </trkpt>
      <trkpt lat="42.6960020" lon="-8.6386610">
        <ele>62.5</ele>
        <time>2021-05-23T08:58:11Z</time>
      </trkpt>
      <trkpt lat="42.6960020" lon="-8.6386600">
        <ele>62.5</ele>
        <time>2021-05-23T08:58:12Z</time>
      </trkpt>
      <trkpt lat="42.6960020" lon="-8.6386600">
        <ele>62.5</ele>
        <time>2021-05-23T08:58:13Z</time>
      </trkpt>
      <trkpt lat="42.6960010" lon="-8.6386600">
        <ele>62.5</ele>
        <time>2021-05-23T08:58:14Z</time>
      </trkpt>
      <trkpt lat="42.6960010" lon="-8.6386590">
        <ele>62.5</ele>
        <time>2021-05-23T08:58:15Z</time>
      </trkpt>
      <trkpt lat="42.6960010" lon="-8.6386590">
        <ele>62.5</ele>
        <time>2021-05-23T08:58:16Z</time>
      </trkpt>
      <trkpt lat="42.6960000" lon="-8.6386580">
        <ele>62.5</ele>
        <time>2021-05-23T08:58:17Z</time>
      </trkpt>
      <trkpt lat="42.6960000" lon="-8.6386580">
        <ele>62.5</ele>
        <time>2021-05-23T08:58:18Z</time>
      </trkpt>
      <trkpt lat="42.6960000" lon="-8.6386570">
        <ele>62.5</ele>
        <time>2021-05-23T08:58:19Z</time>
      </trkpt>
      <trkpt lat="42.6960000" lon="-8.6386570">
        <ele>62.5</ele>
        <time>2021-05-23T08:58:20Z</time>
      </trkpt>
      <trkpt lat="42.6959990" lon="-8.6386570">
        <ele>62.5</ele>
        <time>2021-05-23T08:58:21Z</time>
      </trkpt>
      <trkpt lat="42.6959990" lon="-8.6386560">
        <ele>62.5</ele>
        <time>2021-05-23T08:58:22Z</time>
      </trkpt>
      <trkpt lat="42.6959990" lon="-8.6386560">
        <ele>62.5</ele>
        <time>2021-05-23T08:58:23Z</time>
      </trkpt>
      <trkpt lat="42.6959980" lon="-8.6386550">
        <ele>62.5</ele>
        <time>2021-05-23T08:58:24Z</time>
      </trkpt>
      <trkpt lat="42.6959980" lon="-8.6386550">
        <ele>62.5</ele>
        <time>2021-05-23T08:58:25Z</time>
      </trkpt>
      <trkpt lat="42.6960010" lon="-8.6386630">
        <ele>62.5</ele>
        <time>2021-05-23T08:58:26Z</time>
      </trkpt>
      <trkpt lat="42.6960050" lon="-8.6386670">
        <ele>62.5</ele>
        <time>2021-05-23T08:58:27Z</time>
      </trkpt>
      <trkpt lat="42.6960040" lon="-8.6386750">
        <ele>62.5</ele>
        <time>2021-05-23T08:58:28Z</time>
      </trkpt>
      <trkpt lat="42.6960060" lon="-8.6386750">
        <ele>62.5</ele>
        <time>2021-05-23T08:58:29Z</time>
      </trkpt>
      <trkpt lat="42.6960040" lon="-8.6386880">
        <ele>62.5</ele>
        <time>2021-05-23T08:58:30Z</time>
      </trkpt>
      <trkpt lat="42.6960040" lon="-8.6386950">
        <ele>62.5</ele>
        <time>2021-05-23T08:58:31Z</time>
      </trkpt>
      <trkpt lat="42.6960010" lon="-8.6387030">
        <ele>62.5</ele>
        <time>2021-05-23T08:58:32Z</time>
      </trkpt>
      <trkpt lat="42.6959980" lon="-8.6387200">
        <ele>62.5</ele>
        <time>2021-05-23T08:58:33Z</time>
      </trkpt>
      <trkpt lat="42.6959980" lon="-8.6387330">
        <ele>62.5</ele>
        <time>2021-05-23T08:58:34Z</time>
      </trkpt>
      <trkpt lat="42.6960060" lon="-8.6387410">
        <ele>62.6</ele>
        <time>2021-05-23T08:58:35Z</time>
      </trkpt>
      <trkpt lat="42.6960130" lon="-8.6387430">
        <ele>62.6</ele>
        <time>2021-05-23T08:58:36Z</time>
      </trkpt>
      <trkpt lat="42.6960130" lon="-8.6387480">
        <ele>62.6</ele>
        <time>2021-05-23T08:58:37Z</time>
      </trkpt>
      <trkpt lat="42.6960220" lon="-8.6387470">
        <ele>62.6</ele>
        <time>2021-05-23T08:58:38Z</time>
      </trkpt>
      <trkpt lat="42.6960300" lon="-8.6387500">
        <ele>62.6</ele>
        <time>2021-05-23T08:58:39Z</time>
      </trkpt>
      <trkpt lat="42.6960360" lon="-8.6387600">
        <ele>62.6</ele>
        <time>2021-05-23T08:58:40Z</time>
      </trkpt>
      <trkpt lat="42.6960420" lon="-8.6387670">
        <ele>62.6</ele>
        <time>2021-05-23T08:58:41Z</time>
      </trkpt>
      <trkpt lat="42.6960510" lon="-8.6387740">
        <ele>62.6</ele>
        <time>2021-05-23T08:58:42Z</time>
      </trkpt>
      <trkpt lat="42.6960580" lon="-8.6387940">
        <ele>62.6</ele>
        <time>2021-05-23T08:58:43Z</time>
      </trkpt>
      <trkpt lat="42.6960670" lon="-8.6388060">
        <ele>62.7</ele>
        <time>2021-05-23T08:58:44Z</time>
      </trkpt>
      <trkpt lat="42.6960760" lon="-8.6388180">
        <ele>62.7</ele>
        <time>2021-05-23T08:58:45Z</time>
      </trkpt>
      <trkpt lat="42.6960890" lon="-8.6388260">
        <ele>62.7</ele>
        <time>2021-05-23T08:58:46Z</time>
      </trkpt>
      <trkpt lat="42.6961000" lon="-8.6388420">
        <ele>62.7</ele>
        <time>2021-05-23T08:58:47Z</time>
      </trkpt>
      <trkpt lat="42.6961090" lon="-8.6388530">
        <ele>62.7</ele>
        <time>2021-05-23T08:58:48Z</time>
      </trkpt>
      <trkpt lat="42.6961140" lon="-8.6388630">
        <ele>62.7</ele>
        <time>2021-05-23T08:58:49Z</time>
      </trkpt>
      <trkpt lat="42.6961270" lon="-8.6388810">
        <ele>62.8</ele>
        <time>2021-05-23T08:58:50Z</time>
      </trkpt>
      <trkpt lat="42.6961350" lon="-8.6388870">
        <ele>62.8</ele>
        <time>2021-05-23T08:58:51Z</time>
      </trkpt>
      <trkpt lat="42.6961480" lon="-8.6389040">
        <ele>62.8</ele>
        <time>2021-05-23T08:58:52Z</time>
      </trkpt>
      <trkpt lat="42.6961550" lon="-8.6389110">
        <ele>62.8</ele>
        <time>2021-05-23T08:58:53Z</time>
      </trkpt>
      <trkpt lat="42.6961640" lon="-8.6389240">
        <ele>62.8</ele>
        <time>2021-05-23T08:58:54Z</time>
      </trkpt>
      <trkpt lat="42.6961610" lon="-8.6389210">
        <ele>62.8</ele>
        <time>2021-05-23T08:58:55Z</time>
      </trkpt>
      <trkpt lat="42.6961650" lon="-8.6389180">
        <ele>62.8</ele>
        <time>2021-05-23T08:58:56Z</time>
      </trkpt>
      <trkpt lat="42.6961710" lon="-8.6389240">
        <ele>62.8</ele>
        <time>2021-05-23T08:58:57Z</time>
      </trkpt>
      <trkpt lat="42.6961820" lon="-8.6389360">
        <ele>62.9</ele>
        <time>2021-05-23T08:58:58Z</time>
      </trkpt>
      <trkpt lat="42.6961860" lon="-8.6389440">
        <ele>62.9</ele>
        <time>2021-05-23T08:58:59Z</time>
      </trkpt>
      <trkpt lat="42.6961930" lon="-8.6389540">
        <ele>62.9</ele>
        <time>2021-05-23T08:59:00Z</time>
      </trkpt>
      <trkpt lat="42.6962030" lon="-8.6389680">
        <ele>62.9</ele>
        <time>2021-05-23T08:59:01Z</time>
      </trkpt>
      <trkpt lat="42.6962090" lon="-8.6389750">
        <ele>62.9</ele>
        <time>2021-05-23T08:59:02Z</time>
      </trkpt>
      <trkpt lat="42.6962150" lon="-8.6389830">
        <ele>62.9</ele>
        <time>2021-05-23T08:59:03Z</time>
      </trkpt>
      <trkpt lat="42.6962210" lon="-8.6389910">
        <ele>62.9</ele>
        <time>2021-05-23T08:59:04Z</time>
      </trkpt>
      <trkpt lat="42.6962260" lon="-8.6390060">
        <ele>62.9</ele>
        <time>2021-05-23T08:59:05Z</time>
      </trkpt>
      <trkpt lat="42.6962340" lon="-8.6390120">
        <ele>63.0</ele>
        <time>2021-05-23T08:59:06Z</time>
      </trkpt>
      <trkpt lat="42.6962390" lon="-8.6390150">
        <ele>63.0</ele>
        <time>2021-05-23T08:59:07Z</time>
      </trkpt>
      <trkpt lat="42.6962460" lon="-8.6390200">
        <ele>63.0</ele>
        <time>2021-05-23T08:59:08Z</time>
      </trkpt>
      <trkpt lat="42.6962460" lon="-8.6390210">
        <ele>63.0</ele>
        <time>2021-05-23T08:59:09Z</time>
      </trkpt>
      <trkpt lat="42.6962510" lon="-8.6390320">
        <ele>63.0</ele>
        <time>2021-05-23T08:59:10Z</time>
      </trkpt>
      <trkpt lat="42.6962590" lon="-8.6390510">
        <ele>63.0</ele>
        <time>2021-05-23T08:59:11Z</time>
      </trkpt>
      <trkpt lat="42.6962620" lon="-8.6390600">
        <ele>63.0</ele>
        <time>2021-05-23T08:59:12Z</time>
      </trkpt>
      <trkpt lat="42.6962740" lon="-8.6390750">
        <ele>63.0</ele>
        <time>2021-05-23T08:59:13Z</time>
      </trkpt>
      <trkpt lat="42.6962790" lon="-8.6390800">
        <ele>63.0</ele>
        <time>2021-05-23T08:59:14Z</time>
      </trkpt>
      <trkpt lat="42.6962850" lon="-8.6390860">
        <ele>63.1</ele>
        <time>2021-05-23T08:59:15Z</time>
      </trkpt>
      <trkpt lat="42.6962900" lon="-8.6390910">
        <ele>63.1</ele>
        <time>2021-05-23T08:59:16Z</time>
      </trkpt>
      <trkpt lat="42.6963040" lon="-8.6391000">
        <ele>63.1</ele>
        <time>2021-05-23T08:59:17Z</time>
      </trkpt>
      <trkpt lat="42.6963130" lon="-8.6391050">
        <ele>63.1</ele>
        <time>2021-05-23T08:59:18Z</time>
      </trkpt>
      <trkpt lat="42.6963210" lon="-8.6391110">
        <ele>63.1</ele>
        <time>2021-05-23T08:59:19Z</time>
      </trkpt>
      <trkpt lat="42.6963290" lon="-8.6391160">
        <ele>63.1</ele>
        <time>2021-05-23T08:59:20Z</time>
      </trkpt>
      <trkpt lat="42.6963340" lon="-8.6391210">
        <ele>63.1</ele>
        <time>2021-05-23T08:59:21Z</time>
      </trkpt>
      <trkpt lat="42.6963480" lon="-8.6391270">
        <ele>63.1</ele>
        <time>2021-05-23T08:59:22Z</time>
      </trkpt>
      <trkpt lat="42.6963570" lon="-8.6391270">
        <ele>63.2</ele>
        <time>2021-05-23T08:59:23Z</time>
      </trkpt>
      <trkpt lat="42.6963650" lon="-8.6391370">
        <ele>63.2</ele>
        <time>2021-05-23T08:59:24Z</time>
      </trkpt>
      <trkpt lat="42.6963720" lon="-8.6391440">
        <ele>63.2</ele>
        <time>2021-05-23T08:59:25Z</time>
      </trkpt>
      <trkpt lat="42.6963770" lon="-8.6391580">
        <ele>63.2</ele>
        <time>2021-05-23T08:59:26Z</time>
      </trkpt>
      <trkpt lat="42.6963950" lon="-8.6391760">
        <ele>63.2</ele>
        <time>2021-05-23T08:59:27Z</time>
      </trkpt>
      <trkpt lat="42.6964030" lon="-8.6391820">
        <ele>63.2</ele>
        <time>2021-05-23T08:59:28Z</time>
      </trkpt>
      <trkpt lat="42.6964100" lon="-8.6391870">
        <ele>63.3</ele>
        <time>2021-05-23T08:59:29Z</time>
      </trkpt>
      <trkpt lat="42.6964200" lon="-8.6391880">
        <ele>63.3</ele>
        <time>2021-05-23T08:59:30Z</time>
      </trkpt>
      <trkpt lat="42.6964290" lon="-8.6391990">
        <ele>63.3</ele>
        <time>2021-05-23T08:59:31Z</time>
      </trkpt>
      <trkpt lat="42.6964390" lon="-8.6392100">
        <ele>63.3</ele>
        <time>2021-05-23T08:59:32Z</time>
      </trkpt>
      <trkpt lat="42.6964540" lon="-8.6392180">
        <ele>63.3</ele>
        <time>2021-05-23T08:59:33Z</time>
      </trkpt>
      <trkpt lat="42.6964580" lon="-8.6392250">
        <ele>63.3</ele>
        <time>2021-05-23T08:59:34Z</time>
      </trkpt>
      <trkpt lat="42.6964660" lon="-8.6392300">
        <ele>63.3</ele>
        <time>2021-05-23T08:59:35Z</time>
      </trkpt>
      <trkpt lat="42.6964850" lon="-8.6392350">
        <ele>63.4</ele>
        <time>2021-05-23T08:59:36Z</time>
      </trkpt>
      <trkpt lat="42.6964970" lon="-8.6392420">
        <ele>63.4</ele>
        <time>2021-05-23T08:59:37Z</time>
      </trkpt>
      <trkpt lat="42.6964990" lon="-8.6392480">
        <ele>63.4</ele>
        <time>2021-05-23T08:59:38Z</time>
      </trkpt>
      <trkpt lat="42.6965180" lon="-8.6392560">
        <ele>63.4</ele>
        <time>2021-05-23T08:59:39Z</time>
      </trkpt>
      <trkpt lat="42.6965290" lon="-8.6392640">
        <ele>63.4</ele>
        <time>2021-05-23T08:59:40Z</time>
      </trkpt>
      <trkpt lat="42.6965440" lon="-8.6392890">
        <ele>63.5</ele>
        <time>2021-05-23T08:59:41Z</time>
      </trkpt>
      <trkpt lat="42.6965520" lon="-8.6392970">
        <ele>63.5</ele>
        <time>2021-05-23T08:59:42Z</time>
      </trkpt>
      <trkpt lat="42.6965620" lon="-8.6393140">
        <ele>63.5</ele>
        <time>2021-05-23T08:59:43Z</time>
      </trkpt>
      <trkpt lat="42.6965780" lon="-8.6393290">
        <ele>63.5</ele>
        <time>2021-05-23T08:59:44Z</time>
      </trkpt>
      <trkpt lat="42.6965870" lon="-8.6393330">
        <ele>63.6</ele>
        <time>2021-05-23T08:59:45Z</time>
      </trkpt>
      <trkpt lat="42.6965930" lon="-8.6393410">
        <ele>63.7</ele>
        <time>2021-05-23T08:59:46Z</time>
      </trkpt>
      <trkpt lat="42.6966010" lon="-8.6393490">
        <ele>63.7</ele>
        <time>2021-05-23T08:59:47Z</time>
      </trkpt>
      <trkpt lat="42.6966110" lon="-8.6393600">
        <ele>63.7</ele>
        <time>2021-05-23T08:59:48Z</time>
      </trkpt>
      <trkpt lat="42.6966170" lon="-8.6393620">
        <ele>63.8</ele>
        <time>2021-05-23T08:59:49Z</time>
      </trkpt>
      <trkpt lat="42.6966220" lon="-8.6393710">
        <ele>63.8</ele>
        <time>2021-05-23T08:59:50Z</time>
      </trkpt>
      <trkpt lat="42.6966180" lon="-8.6393700">
        <ele>63.8</ele>
        <time>2021-05-23T08:59:51Z</time>
      </trkpt>
      <trkpt lat="42.6966160" lon="-8.6393890">
        <ele>63.8</ele>
        <time>2021-05-23T08:59:52Z</time>
      </trkpt>
      <trkpt lat="42.6966160" lon="-8.6394030">
        <ele>63.8</ele>
        <time>2021-05-23T08:59:53Z</time>
      </trkpt>
      <trkpt lat="42.6966080" lon="-8.6394090">
        <ele>63.8</ele>
        <time>2021-05-23T08:59:54Z</time>
      </trkpt>
      <trkpt lat="42.6966040" lon="-8.6394240">
        <ele>63.8</ele>
        <time>2021-05-23T08:59:55Z</time>
      </trkpt>
      <trkpt lat="42.6966090" lon="-8.6394310">
        <ele>63.8</ele>
        <time>2021-05-23T08:59:56Z</time>
      </trkpt>
      <trkpt lat="42.6966050" lon="-8.6394420">
        <ele>63.8</ele>
        <time>2021-05-23T08:59:57Z</time>
      </trkpt>
      <trkpt lat="42.6966020" lon="-8.6394510">
        <ele>63.8</ele>
        <time>2021-05-23T08:59:58Z</time>
      </trkpt>
      <trkpt lat="42.6965960" lon="-8.6394630">
        <ele>63.8</ele>
        <time>2021-05-23T08:59:59Z</time>
      </trkpt>
      <trkpt lat="42.6965940" lon="-8.6394830">
        <ele>63.8</ele>
        <time>2021-05-23T09:00:00Z</time>
      </trkpt>
      <trkpt lat="42.6965900" lon="-8.6394810">
        <ele>63.8</ele>
        <time>2021-05-23T09:00:01Z</time>
      </trkpt>
      <trkpt lat="42.6965900" lon="-8.6394890">
        <ele>63.8</ele>
        <time>2021-05-23T09:00:02Z</time>
      </trkpt>
      <trkpt lat="42.6965850" lon="-8.6395070">
        <ele>63.8</ele>
        <time>2021-05-23T09:00:03Z</time>
      </trkpt>
      <trkpt lat="42.6965860" lon="-8.6395220">
        <ele>63.7</ele>
        <time>2021-05-23T09:00:04Z</time>
      </trkpt>
      <trkpt lat="42.6965860" lon="-8.6395380">
        <ele>63.7</ele>
        <time>2021-05-23T09:00:05Z</time>
      </trkpt>
      <trkpt lat="42.6965880" lon="-8.6395460">
        <ele>63.7</ele>
        <time>2021-05-23T09:00:06Z</time>
      </trkpt>
      <trkpt lat="42.6965850" lon="-8.6395760">
        <ele>63.6</ele>
        <time>2021-05-23T09:00:07Z</time>
      </trkpt>
      <trkpt lat="42.6965880" lon="-8.6395860">
        <ele>63.6</ele>
        <time>2021-05-23T09:00:08Z</time>
      </trkpt>
      <trkpt lat="42.6965900" lon="-8.6396130">
        <ele>63.6</ele>
        <time>2021-05-23T09:00:09Z</time>
      </trkpt>
      <trkpt lat="42.6965880" lon="-8.6396270">
        <ele>63.5</ele>
        <time>2021-05-23T09:00:10Z</time>
      </trkpt>
      <trkpt lat="42.6965860" lon="-8.6396400">
        <ele>63.5</ele>
        <time>2021-05-23T09:00:11Z</time>
      </trkpt>
      <trkpt lat="42.6965800" lon="-8.6396740">
        <ele>63.4</ele>
        <time>2021-05-23T09:00:12Z</time>
      </trkpt>
      <trkpt lat="42.6965780" lon="-8.6396810">
        <ele>63.4</ele>
        <time>2021-05-23T09:00:13Z</time>
      </trkpt>
      <trkpt lat="42.6965750" lon="-8.6396890">
        <ele>63.4</ele>
        <time>2021-05-23T09:00:14Z</time>
      </trkpt>
      <trkpt lat="42.6965720" lon="-8.6397010">
        <ele>63.4</ele>
        <time>2021-05-23T09:00:15Z</time>
      </trkpt>
      <trkpt lat="42.6965650" lon="-8.6397150">
        <ele>63.3</ele>
        <time>2021-05-23T09:00:16Z</time>
      </trkpt>
      <trkpt lat="42.6965660" lon="-8.6397350">
        <ele>63.3</ele>
        <time>2021-05-23T09:00:17Z</time>
      </trkpt>
      <trkpt lat="42.6965590" lon="-8.6397590">
        <ele>63.2</ele>
        <time>2021-05-23T09:00:18Z</time>
      </trkpt>
      <trkpt lat="42.6965560" lon="-8.6397720">
        <ele>63.1</ele>
        <time>2021-05-23T09:00:19Z</time>
      </trkpt>
      <trkpt lat="42.6965550" lon="-8.6397990">
        <ele>63.0</ele>
        <time>2021-05-23T09:00:20Z</time>
      </trkpt>
      <trkpt lat="42.6965530" lon="-8.6398160">
        <ele>62.9</ele>
        <time>2021-05-23T09:00:21Z</time>
      </trkpt>
      <trkpt lat="42.6965460" lon="-8.6398390">
        <ele>62.8</ele>
        <time>2021-05-23T09:00:22Z</time>
      </trkpt>
      <trkpt lat="42.6965490" lon="-8.6398590">
        <ele>62.7</ele>
        <time>2021-05-23T09:00:23Z</time>
      </trkpt>
      <trkpt lat="42.6965500" lon="-8.6398870">
        <ele>62.5</ele>
        <time>2021-05-23T09:00:24Z</time>
      </trkpt>
      <trkpt lat="42.6965490" lon="-8.6399020">
        <ele>62.4</ele>
        <time>2021-05-23T09:00:25Z</time>
      </trkpt>
      <trkpt lat="42.6965490" lon="-8.6399170">
        <ele>62.3</ele>
        <time>2021-05-23T09:00:26Z</time>
      </trkpt>
      <trkpt lat="42.6965470" lon="-8.6399320">
        <ele>62.2</ele>
        <time>2021-05-23T09:00:27Z</time>
      </trkpt>
      <trkpt lat="42.6965480" lon="-8.6399480">
        <ele>62.1</ele>
        <time>2021-05-23T09:00:28Z</time>
      </trkpt>
      <trkpt lat="42.6965560" lon="-8.6399560">
        <ele>62.0</ele>
        <time>2021-05-23T09:00:29Z</time>
      </trkpt>
      <trkpt lat="42.6965570" lon="-8.6399680">
        <ele>61.9</ele>
        <time>2021-05-23T09:00:30Z</time>
      </trkpt>
      <trkpt lat="42.6965600" lon="-8.6399810">
        <ele>61.8</ele>
        <time>2021-05-23T09:00:31Z</time>
      </trkpt>
      <trkpt lat="42.6965640" lon="-8.6400000">
        <ele>61.6</ele>
        <time>2021-05-23T09:00:33Z</time>
      </trkpt>
      <trkpt lat="42.6965630" lon="-8.6400060">
        <ele>61.6</ele>
        <time>2021-05-23T09:00:34Z</time>
      </trkpt>
      <trkpt lat="42.6965670" lon="-8.6400240">
        <ele>61.4</ele>
        <time>2021-05-23T09:00:35Z</time>
      </trkpt>
      <trkpt lat="42.6965660" lon="-8.6400330">
        <ele>61.3</ele>
        <time>2021-05-23T09:00:36Z</time>
      </trkpt>
      <trkpt lat="42.6965680" lon="-8.6400480">
        <ele>61.2</ele>
        <time>2021-05-23T09:00:37Z</time>
      </trkpt>
      <trkpt lat="42.6965780" lon="-8.6400740">
        <ele>61.0</ele>
        <time>2021-05-23T09:00:38Z</time>
      </trkpt>
      <trkpt lat="42.6965820" lon="-8.6400860">
        <ele>60.9</ele>
        <time>2021-05-23T09:00:39Z</time>
      </trkpt>
      <trkpt lat="42.6965850" lon="-8.6400990">
        <ele>60.8</ele>
        <time>2021-05-23T09:00:40Z</time>
      </trkpt>
      <trkpt lat="42.6965910" lon="-8.6401190">
        <ele>60.6</ele>
        <time>2021-05-23T09:00:41Z</time>
      </trkpt>
      <trkpt lat="42.6965940" lon="-8.6401330">
        <ele>60.5</ele>
        <time>2021-05-23T09:00:42Z</time>
      </trkpt>
      <trkpt lat="42.6965970" lon="-8.6401470">
        <ele>60.4</ele>
        <time>2021-05-23T09:00:43Z</time>
      </trkpt>
      <trkpt lat="42.6965980" lon="-8.6401760">
        <ele>60.1</ele>
        <time>2021-05-23T09:00:44Z</time>
      </trkpt>
      <trkpt lat="42.6966020" lon="-8.6401850">
        <ele>60.1</ele>
        <time>2021-05-23T09:00:45Z</time>
      </trkpt>
      <trkpt lat="42.6966050" lon="-8.6401950">
        <ele>60.0</ele>
        <time>2021-05-23T09:00:46Z</time>
      </trkpt>
      <trkpt lat="42.6966090" lon="-8.6402050">
        <ele>59.9</ele>
        <time>2021-05-23T09:00:47Z</time>
      </trkpt>
      <trkpt lat="42.6966150" lon="-8.6402180">
        <ele>59.8</ele>
        <time>2021-05-23T09:00:48Z</time>
      </trkpt>
      <trkpt lat="42.6966190" lon="-8.6402300">
        <ele>59.7</ele>
        <time>2021-05-23T09:00:49Z</time>
      </trkpt>
      <trkpt lat="42.6966160" lon="-8.6402440">
        <ele>59.6</ele>
        <time>2021-05-23T09:00:50Z</time>
      </trkpt>
      <trkpt lat="42.6966270" lon="-8.6402650">
        <ele>59.4</ele>
        <time>2021-05-23T09:00:51Z</time>
      </trkpt>
      <trkpt lat="42.6966280" lon="-8.6402660">
        <ele>59.4</ele>
        <time>2021-05-23T09:00:52Z</time>
      </trkpt>
      <trkpt lat="42.6966390" lon="-8.6402730">
        <ele>59.3</ele>
        <time>2021-05-23T09:00:53Z</time>
      </trkpt>
      <trkpt lat="42.6966460" lon="-8.6402900">
        <ele>59.2</ele>
        <time>2021-05-23T09:00:54Z</time>
      </trkpt>
      <trkpt lat="42.6966550" lon="-8.6403140">
        <ele>59.1</ele>
        <time>2021-05-23T09:00:55Z</time>
      </trkpt>
      <trkpt lat="42.6966630" lon="-8.6403300">
        <ele>58.9</ele>
        <time>2021-05-23T09:00:56Z</time>
      </trkpt>
      <trkpt lat="42.6966720" lon="-8.6403460">
        <ele>58.8</ele>
        <time>2021-05-23T09:00:57Z</time>
      </trkpt>
      <trkpt lat="42.6966810" lon="-8.6403630">
        <ele>58.7</ele>
        <time>2021-05-23T09:00:58Z</time>
      </trkpt>
      <trkpt lat="42.6966860" lon="-8.6403710">
        <ele>58.7</ele>
        <time>2021-05-23T09:00:59Z</time>
      </trkpt>
      <trkpt lat="42.6966900" lon="-8.6403800">
        <ele>58.6</ele>
        <time>2021-05-23T09:01:00Z</time>
      </trkpt>
      <trkpt lat="42.6966950" lon="-8.6403890">
        <ele>58.6</ele>
        <time>2021-05-23T09:01:01Z</time>
      </trkpt>
      <trkpt lat="42.6967160" lon="-8.6404270">
        <ele>58.3</ele>
        <time>2021-05-23T09:01:02Z</time>
      </trkpt>
      <trkpt lat="42.6967180" lon="-8.6404390">
        <ele>58.2</ele>
        <time>2021-05-23T09:01:03Z</time>
      </trkpt>
      <trkpt lat="42.6967270" lon="-8.6404590">
        <ele>58.1</ele>
        <time>2021-05-23T09:01:04Z</time>
      </trkpt>
      <trkpt lat="42.6967490" lon="-8.6404960">
        <ele>57.9</ele>
        <time>2021-05-23T09:01:05Z</time>
      </trkpt>
      <trkpt lat="42.6967610" lon="-8.6405120">
        <ele>57.8</ele>
        <time>2021-05-23T09:01:06Z</time>
      </trkpt>
      <trkpt lat="42.6967690" lon="-8.6405320">
        <ele>57.8</ele>
        <time>2021-05-23T09:01:07Z</time>
      </trkpt>
      <trkpt lat="42.6967780" lon="-8.6405490">
        <ele>57.7</ele>
        <time>2021-05-23T09:01:08Z</time>
      </trkpt>
      <trkpt lat="42.6967880" lon="-8.6405620">
        <ele>57.6</ele>
        <time>2021-05-23T09:01:09Z</time>
      </trkpt>
      <trkpt lat="42.6968000" lon="-8.6405710">
        <ele>57.6</ele>
        <time>2021-05-23T09:01:10Z</time>
      </trkpt>
      <trkpt lat="42.6968130" lon="-8.6405820">
        <ele>57.5</ele>
        <time>2021-05-23T09:01:11Z</time>
      </trkpt>
      <trkpt lat="42.6968190" lon="-8.6405870">
        <ele>57.5</ele>
        <time>2021-05-23T09:01:12Z</time>
      </trkpt>
      <trkpt lat="42.6968240" lon="-8.6405890">
        <ele>57.5</ele>
        <time>2021-05-23T09:01:13Z</time>
      </trkpt>
      <trkpt lat="42.6968420" lon="-8.6406100">
        <ele>57.4</ele>
        <time>2021-05-23T09:01:14Z</time>
      </trkpt>
      <trkpt lat="42.6968490" lon="-8.6406160">
        <ele>57.3</ele>
        <time>2021-05-23T09:01:15Z</time>
      </trkpt>
      <trkpt lat="42.6968560" lon="-8.6406220">
        <ele>57.3</ele>
        <time>2021-05-23T09:01:16Z</time>
      </trkpt>
      <trkpt lat="42.6968640" lon="-8.6406340">
        <ele>57.3</ele>
        <time>2021-05-23T09:01:17Z</time>
      </trkpt>
      <trkpt lat="42.6968750" lon="-8.6406330">
        <ele>57.3</ele>
        <time>2021-05-23T09:01:18Z</time>
      </trkpt>
      <trkpt lat="42.6968830" lon="-8.6406470">
        <ele>57.2</ele>
        <time>2021-05-23T09:01:19Z</time>
      </trkpt>
      <trkpt lat="42.6968930" lon="-8.6406480">
        <ele>57.2</ele>
        <time>2021-05-23T09:01:20Z</time>
      </trkpt>
      <trkpt lat="42.6969030" lon="-8.6406550">
        <ele>57.2</ele>
        <time>2021-05-23T09:01:21Z</time>
      </trkpt>
      <trkpt lat="42.6969050" lon="-8.6406570">
        <ele>57.1</ele>
        <time>2021-05-23T09:01:22Z</time>
      </trkpt>
      <trkpt lat="42.6969140" lon="-8.6406650">
        <ele>57.1</ele>
        <time>2021-05-23T09:01:23Z</time>
      </trkpt>
      <trkpt lat="42.6969270" lon="-8.6406780">
        <ele>57.1</ele>
        <time>2021-05-23T09:01:24Z</time>
      </trkpt>
      <trkpt lat="42.6969360" lon="-8.6406870">
        <ele>57.1</ele>
        <time>2021-05-23T09:01:25Z</time>
      </trkpt>
      <trkpt lat="42.6969640" lon="-8.6406990">
        <ele>57.0</ele>
        <time>2021-05-23T09:01:26Z</time>
      </trkpt>
      <trkpt lat="42.6969740" lon="-8.6407030">
        <ele>57.0</ele>
        <time>2021-05-23T09:01:27Z</time>
      </trkpt>
      <trkpt lat="42.6969840" lon="-8.6407080">
        <ele>57.0</ele>
        <time>2021-05-23T09:01:28Z</time>
      </trkpt>
      <trkpt lat="42.6969960" lon="-8.6407110">
        <ele>56.9</ele>
        <time>2021-05-23T09:01:29Z</time>
      </trkpt>
      <trkpt lat="42.6970040" lon="-8.6407170">
        <ele>56.9</ele>
        <time>2021-05-23T09:01:30Z</time>
      </trkpt>
      <trkpt lat="42.6970110" lon="-8.6407240">
        <ele>56.9</ele>
        <time>2021-05-23T09:01:31Z</time>
      </trkpt>
      <trkpt lat="42.6970190" lon="-8.6407300">
        <ele>56.9</ele>
        <time>2021-05-23T09:01:32Z</time>
      </trkpt>
      <trkpt lat="42.6970390" lon="-8.6407490">
        <ele>56.9</ele>
        <time>2021-05-23T09:01:33Z</time>
      </trkpt>
      <trkpt lat="42.6970490" lon="-8.6407550">
        <ele>56.9</ele>
        <time>2021-05-23T09:01:34Z</time>
      </trkpt>
      <trkpt lat="42.6970580" lon="-8.6407610">
        <ele>56.9</ele>
        <time>2021-05-23T09:01:35Z</time>
      </trkpt>
      <trkpt lat="42.6970770" lon="-8.6407570">
        <ele>56.9</ele>
        <time>2021-05-23T09:01:36Z</time>
      </trkpt>
      <trkpt lat="42.6970860" lon="-8.6407660">
        <ele>56.9</ele>
        <time>2021-05-23T09:01:37Z</time>
      </trkpt>
      <trkpt lat="42.6970980" lon="-8.6407800">
        <ele>56.9</ele>
        <time>2021-05-23T09:01:38Z</time>
      </trkpt>
      <trkpt lat="42.6971020" lon="-8.6407810">
        <ele>56.9</ele>
        <time>2021-05-23T09:01:39Z</time>
      </trkpt>
      <trkpt lat="42.6971150" lon="-8.6407860">
        <ele>56.9</ele>
        <time>2021-05-23T09:01:40Z</time>
      </trkpt>
      <trkpt lat="42.6971290" lon="-8.6407890">
        <ele>56.9</ele>
        <time>2021-05-23T09:01:41Z</time>
      </trkpt>
      <trkpt lat="42.6971320" lon="-8.6407950">
        <ele>56.9</ele>
        <time>2021-05-23T09:01:42Z</time>
      </trkpt>
      <trkpt lat="42.6971410" lon="-8.6408040">
        <ele>57.0</ele>
        <time>2021-05-23T09:01:43Z</time>
      </trkpt>
      <trkpt lat="42.6971580" lon="-8.6408140">
        <ele>57.0</ele>
        <time>2021-05-23T09:01:44Z</time>
      </trkpt>
      <trkpt lat="42.6971670" lon="-8.6408180">
        <ele>57.0</ele>
        <time>2021-05-23T09:01:45Z</time>
      </trkpt>
      <trkpt lat="42.6971760" lon="-8.6408230">
        <ele>57.0</ele>
        <time>2021-05-23T09:01:46Z</time>
      </trkpt>
      <trkpt lat="42.6971850" lon="-8.6408270">
        <ele>57.1</ele>
        <time>2021-05-23T09:01:47Z</time>
      </trkpt>
      <trkpt lat="42.6971920" lon="-8.6408280">
        <ele>57.1</ele>
        <time>2021-05-23T09:01:49Z</time>
      </trkpt>
      <trkpt lat="42.6972130" lon="-8.6408420">
        <ele>57.2</ele>
        <time>2021-05-23T09:01:50Z</time>
      </trkpt>
      <trkpt lat="42.6972140" lon="-8.6408330">
        <ele>57.2</ele>
        <time>2021-05-23T09:01:51Z</time>
      </trkpt>
      <trkpt lat="42.6972300" lon="-8.6408410">
        <ele>57.2</ele>
        <time>2021-05-23T09:01:52Z</time>
      </trkpt>
      <trkpt lat="42.6972420" lon="-8.6408430">
        <ele>57.3</ele>
        <time>2021-05-23T09:01:53Z</time>
      </trkpt>
      <trkpt lat="42.6972460" lon="-8.6408400">
        <ele>57.3</ele>
        <time>2021-05-23T09:01:54Z</time>
      </trkpt>
      <trkpt lat="42.6972560" lon="-8.6408430">
        <ele>57.3</ele>
        <time>2021-05-23T09:01:55Z</time>
      </trkpt>
      <trkpt lat="42.6972640" lon="-8.6408440">
        <ele>57.4</ele>
        <time>2021-05-23T09:01:56Z</time>
      </trkpt>
      <trkpt lat="42.6972720" lon="-8.6408450">
        <ele>57.4</ele>
        <time>2021-05-23T09:01:57Z</time>
      </trkpt>
      <trkpt lat="42.6972930" lon="-8.6408450">
        <ele>57.5</ele>
        <time>2021-05-23T09:01:58Z</time>
      </trkpt>
      <trkpt lat="42.6973060" lon="-8.6408520">
        <ele>57.6</ele>
        <time>2021-05-23T09:01:59Z</time>
      </trkpt>
      <trkpt lat="42.6973190" lon="-8.6408750">
        <ele>57.7</ele>
        <time>2021-05-23T09:02:00Z</time>
      </trkpt>
      <trkpt lat="42.6973250" lon="-8.6408800">
        <ele>57.7</ele>
        <time>2021-05-23T09:02:01Z</time>
      </trkpt>
      <trkpt lat="42.6973450" lon="-8.6408780">
        <ele>57.8</ele>
        <time>2021-05-23T09:02:02Z</time>
      </trkpt>
      <trkpt lat="42.6973600" lon="-8.6408870">
        <ele>57.9</ele>
        <time>2021-05-23T09:02:03Z</time>
      </trkpt>
      <trkpt lat="42.6973780" lon="-8.6408870">
        <ele>58.0</ele>
        <time>2021-05-23T09:02:04Z</time>
      </trkpt>
      <trkpt lat="42.6973920" lon="-8.6408920">
        <ele>58.0</ele>
        <time>2021-05-23T09:02:05Z</time>
      </trkpt>
      <trkpt lat="42.6974060" lon="-8.6408970">
        <ele>58.1</ele>
        <time>2021-05-23T09:02:06Z</time>
      </trkpt>
      <trkpt lat="42.6974170" lon="-8.6409050">
        <ele>58.2</ele>
        <time>2021-05-23T09:02:07Z</time>
      </trkpt>
      <trkpt lat="42.6974300" lon="-8.6409160">
        <ele>58.3</ele>
        <time>2021-05-23T09:02:08Z</time>
      </trkpt>
      <trkpt lat="42.6974400" lon="-8.6409270">
        <ele>58.4</ele>
        <time>2021-05-23T09:02:09Z</time>
      </trkpt>
      <trkpt lat="42.6974490" lon="-8.6409330">
        <ele>58.5</ele>
        <time>2021-05-23T09:02:10Z</time>
      </trkpt>
      <trkpt lat="42.6974580" lon="-8.6409320">
        <ele>58.5</ele>
        <time>2021-05-23T09:02:11Z</time>
      </trkpt>
      <trkpt lat="42.6974720" lon="-8.6409320">
        <ele>58.6</ele>
        <time>2021-05-23T09:02:12Z</time>
      </trkpt>
      <trkpt lat="42.6974860" lon="-8.6409340">
        <ele>58.8</ele>
        <time>2021-05-23T09:02:13Z</time>
      </trkpt>
      <trkpt lat="42.6974950" lon="-8.6409400">
        <ele>58.9</ele>
        <time>2021-05-23T09:02:14Z</time>
      </trkpt>
      <trkpt lat="42.6975030" lon="-8.6409500">
        <ele>58.9</ele>
        <time>2021-05-23T09:02:15Z</time>
      </trkpt>
      <trkpt lat="42.6975130" lon="-8.6409480">
        <ele>59.0</ele>
        <time>2021-05-23T09:02:16Z</time>
      </trkpt>
      <trkpt lat="42.6975190" lon="-8.6409460">
        <ele>59.1</ele>
        <time>2021-05-23T09:02:17Z</time>
      </trkpt>
      <trkpt lat="42.6975280" lon="-8.6409450">
        <ele>59.2</ele>
        <time>2021-05-23T09:02:18Z</time>
      </trkpt>
      <trkpt lat="42.6975380" lon="-8.6409520">
        <ele>59.3</ele>
        <time>2021-05-23T09:02:19Z</time>
      </trkpt>
      <trkpt lat="42.6975480" lon="-8.6409530">
        <ele>59.4</ele>
        <time>2021-05-23T09:02:20Z</time>
      </trkpt>
      <trkpt lat="42.6975550" lon="-8.6409550">
        <ele>59.5</ele>
        <time>2021-05-23T09:02:21Z</time>
      </trkpt>
      <trkpt lat="42.6975680" lon="-8.6409630">
        <ele>59.6</ele>
        <time>2021-05-23T09:02:22Z</time>
      </trkpt>
      <trkpt lat="42.6975780" lon="-8.6409680">
        <ele>59.7</ele>
        <time>2021-05-23T09:02:23Z</time>
      </trkpt>
      <trkpt lat="42.6975900" lon="-8.6409670">
        <ele>59.8</ele>
        <time>2021-05-23T09:02:24Z</time>
      </trkpt>
      <trkpt lat="42.6976020" lon="-8.6409660">
        <ele>60.0</ele>
        <time>2021-05-23T09:02:25Z</time>
      </trkpt>
      <trkpt lat="42.6976120" lon="-8.6409660">
        <ele>60.1</ele>
        <time>2021-05-23T09:02:26Z</time>
      </trkpt>
      <trkpt lat="42.6976220" lon="-8.6409650">
        <ele>60.2</ele>
        <time>2021-05-23T09:02:27Z</time>
      </trkpt>
      <trkpt lat="42.6976340" lon="-8.6409650">
        <ele>60.3</ele>
        <time>2021-05-23T09:02:28Z</time>
      </trkpt>
      <trkpt lat="42.6976430" lon="-8.6409670">
        <ele>60.4</ele>
        <time>2021-05-23T09:02:29Z</time>
      </trkpt>
      <trkpt lat="42.6976550" lon="-8.6409670">
        <ele>60.6</ele>
        <time>2021-05-23T09:02:30Z</time>
      </trkpt>
      <trkpt lat="42.6976680" lon="-8.6409710">
        <ele>60.7</ele>
        <time>2021-05-23T09:02:31Z</time>
      </trkpt>
      <trkpt lat="42.6976750" lon="-8.6409650">
        <ele>60.8</ele>
        <time>2021-05-23T09:02:32Z</time>
      </trkpt>
      <trkpt lat="42.6976840" lon="-8.6409660">
        <ele>60.9</ele>
        <time>2021-05-23T09:02:33Z</time>
      </trkpt>
      <trkpt lat="42.6976940" lon="-8.6409640">
        <ele>61.0</ele>
        <time>2021-05-23T09:02:34Z</time>
      </trkpt>
      <trkpt lat="42.6977030" lon="-8.6409630">
        <ele>61.1</ele>
        <time>2021-05-23T09:02:35Z</time>
      </trkpt>
      <trkpt lat="42.6977150" lon="-8.6409670">
        <ele>61.2</ele>
        <time>2021-05-23T09:02:36Z</time>
      </trkpt>
      <trkpt lat="42.6977240" lon="-8.6409600">
        <ele>61.3</ele>
        <time>2021-05-23T09:02:37Z</time>
      </trkpt>
      <trkpt lat="42.6977320" lon="-8.6409580">
        <ele>61.4</ele>
        <time>2021-05-23T09:02:38Z</time>
      </trkpt>
      <trkpt lat="42.6977300" lon="-8.6409650">
        <ele>61.5</ele>
        <time>2021-05-23T09:02:39Z</time>
      </trkpt>
      <trkpt lat="42.6977410" lon="-8.6409690">
        <ele>61.6</ele>
        <time>2021-05-23T09:02:40Z</time>
      </trkpt>
      <trkpt lat="42.6977520" lon="-8.6409680">
        <ele>61.7</ele>
        <time>2021-05-23T09:02:41Z</time>
      </trkpt>
      <trkpt lat="42.6977650" lon="-8.6409650">
        <ele>61.8</ele>
        <time>2021-05-23T09:02:42Z</time>
      </trkpt>
      <trkpt lat="42.6977770" lon="-8.6409640">
        <ele>61.9</ele>
        <time>2021-05-23T09:02:43Z</time>
      </trkpt>
      <trkpt lat="42.6977830" lon="-8.6409630">
        <ele>62.0</ele>
        <time>2021-05-23T09:02:44Z</time>
      </trkpt>
      <trkpt lat="42.6977960" lon="-8.6409570">
        <ele>62.1</ele>
        <time>2021-05-23T09:02:45Z</time>
      </trkpt>
      <trkpt lat="42.6978050" lon="-8.6409630">
        <ele>62.1</ele>
        <time>2021-05-23T09:02:46Z</time>
      </trkpt>
      <trkpt lat="42.6978180" lon="-8.6409660">
        <ele>62.2</ele>
        <time>2021-05-23T09:02:47Z</time>
      </trkpt>
      <trkpt lat="42.6978280" lon="-8.6409660">
        <ele>62.3</ele>
        <time>2021-05-23T09:02:48Z</time>
      </trkpt>
      <trkpt lat="42.6978410" lon="-8.6409680">
        <ele>62.4</ele>
        <time>2021-05-23T09:02:49Z</time>
      </trkpt>
      <trkpt lat="42.6978520" lon="-8.6409650">
        <ele>62.5</ele>
        <time>2021-05-23T09:02:50Z</time>
      </trkpt>
      <trkpt lat="42.6978640" lon="-8.6409680">
        <ele>62.5</ele>
        <time>2021-05-23T09:02:51Z</time>
      </trkpt>
      <trkpt lat="42.6978740" lon="-8.6409780">
        <ele>62.6</ele>
        <time>2021-05-23T09:02:52Z</time>
      </trkpt>
      <trkpt lat="42.6978840" lon="-8.6409870">
        <ele>62.7</ele>
        <time>2021-05-23T09:02:53Z</time>
      </trkpt>
      <trkpt lat="42.6978920" lon="-8.6409900">
        <ele>62.7</ele>
        <time>2021-05-23T09:02:54Z</time>
      </trkpt>
      <trkpt lat="42.6979050" lon="-8.6409880">
        <ele>62.8</ele>
        <time>2021-05-23T09:02:55Z</time>
      </trkpt>
      <trkpt lat="42.6979210" lon="-8.6409880">
        <ele>62.8</ele>
        <time>2021-05-23T09:02:56Z</time>
      </trkpt>
      <trkpt lat="42.6979330" lon="-8.6409890">
        <ele>62.9</ele>
        <time>2021-05-23T09:02:57Z</time>
      </trkpt>
      <trkpt lat="42.6979450" lon="-8.6409940">
        <ele>62.9</ele>
        <time>2021-05-23T09:02:58Z</time>
      </trkpt>
      <trkpt lat="42.6979480" lon="-8.6409960">
        <ele>62.9</ele>
        <time>2021-05-23T09:02:59Z</time>
      </trkpt>
      <trkpt lat="42.6979700" lon="-8.6409950">
        <ele>63.0</ele>
        <time>2021-05-23T09:03:00Z</time>
      </trkpt>
      <trkpt lat="42.6979800" lon="-8.6409930">
        <ele>63.0</ele>
        <time>2021-05-23T09:03:01Z</time>
      </trkpt>
      <trkpt lat="42.6979890" lon="-8.6409920">
        <ele>63.0</ele>
        <time>2021-05-23T09:03:02Z</time>
      </trkpt>
      <trkpt lat="42.6980000" lon="-8.6409930">
        <ele>63.1</ele>
        <time>2021-05-23T09:03:03Z</time>
      </trkpt>
      <trkpt lat="42.6980070" lon="-8.6409970">
        <ele>63.1</ele>
        <time>2021-05-23T09:03:04Z</time>
      </trkpt>
      <trkpt lat="42.6980170" lon="-8.6409950">
        <ele>63.1</ele>
        <time>2021-05-23T09:03:05Z</time>
      </trkpt>
      <trkpt lat="42.6980290" lon="-8.6409980">
        <ele>63.1</ele>
        <time>2021-05-23T09:03:06Z</time>
      </trkpt>
      <trkpt lat="42.6980400" lon="-8.6409980">
        <ele>63.1</ele>
        <time>2021-05-23T09:03:07Z</time>
      </trkpt>
      <trkpt lat="42.6980520" lon="-8.6409980">
        <ele>63.2</ele>
        <time>2021-05-23T09:03:08Z</time>
      </trkpt>
      <trkpt lat="42.6980630" lon="-8.6410020">
        <ele>63.2</ele>
        <time>2021-05-23T09:03:09Z</time>
      </trkpt>
      <trkpt lat="42.6980710" lon="-8.6410010">
        <ele>63.2</ele>
        <time>2021-05-23T09:03:10Z</time>
      </trkpt>
      <trkpt lat="42.6980930" lon="-8.6410070">
        <ele>63.3</ele>
        <time>2021-05-23T09:03:11Z</time>
      </trkpt>
      <trkpt lat="42.6981040" lon="-8.6410050">
        <ele>63.3</ele>
        <time>2021-05-23T09:03:12Z</time>
      </trkpt>
      <trkpt lat="42.6981170" lon="-8.6410080">
        <ele>63.3</ele>
        <time>2021-05-23T09:03:13Z</time>
      </trkpt>
      <trkpt lat="42.6981290" lon="-8.6410110">
        <ele>63.4</ele>
        <time>2021-05-23T09:03:14Z</time>
      </trkpt>
      <trkpt lat="42.6981440" lon="-8.6410130">
        <ele>63.4</ele>
        <time>2021-05-23T09:03:15Z</time>
      </trkpt>
      <trkpt lat="42.6981540" lon="-8.6410190">
        <ele>63.4</ele>
        <time>2021-05-23T09:03:16Z</time>
      </trkpt>
      <trkpt lat="42.6981660" lon="-8.6410160">
        <ele>63.4</ele>
        <time>2021-05-23T09:03:17Z</time>
      </trkpt>
      <trkpt lat="42.6981720" lon="-8.6410140">
        <ele>63.5</ele>
        <time>2021-05-23T09:03:18Z</time>
      </trkpt>
      <trkpt lat="42.6981860" lon="-8.6410130">
        <ele>63.5</ele>
        <time>2021-05-23T09:03:19Z</time>
      </trkpt>
      <trkpt lat="42.6981970" lon="-8.6410110">
        <ele>63.5</ele>
        <time>2021-05-23T09:03:20Z</time>
      </trkpt>
      <trkpt lat="42.6982020" lon="-8.6410120">
        <ele>63.5</ele>
        <time>2021-05-23T09:03:21Z</time>
      </trkpt>
      <trkpt lat="42.6982120" lon="-8.6410150">
        <ele>63.6</ele>
        <time>2021-05-23T09:03:22Z</time>
      </trkpt>
      <trkpt lat="42.6982280" lon="-8.6410170">
        <ele>63.6</ele>
        <time>2021-05-23T09:03:23Z</time>
      </trkpt>
      <trkpt lat="42.6982360" lon="-8.6410140">
        <ele>63.6</ele>
        <time>2021-05-23T09:03:24Z</time>
      </trkpt>
      <trkpt lat="42.6982480" lon="-8.6410120">
        <ele>63.7</ele>
        <time>2021-05-23T09:03:25Z</time>
      </trkpt>
      <trkpt lat="42.6982580" lon="-8.6410130">
        <ele>63.7</ele>
        <time>2021-05-23T09:03:26Z</time>
      </trkpt>
      <trkpt lat="42.6982690" lon="-8.6410080">
        <ele>63.7</ele>
        <time>2021-05-23T09:03:27Z</time>
      </trkpt>
      <trkpt lat="42.6982880" lon="-8.6410060">
        <ele>63.8</ele>
        <time>2021-05-23T09:03:28Z</time>
      </trkpt>
      <trkpt lat="42.6982980" lon="-8.6410080">
        <ele>63.8</ele>
        <time>2021-05-23T09:03:29Z</time>
      </trkpt>
      <trkpt lat="42.6983080" lon="-8.6410090">
        <ele>63.8</ele>
        <time>2021-05-23T09:03:30Z</time>
      </trkpt>
      <trkpt lat="42.6983090" lon="-8.6410060">
        <ele>63.8</ele>
        <time>2021-05-23T09:03:31Z</time>
      </trkpt>
      <trkpt lat="42.6983230" lon="-8.6410080">
        <ele>63.9</ele>
        <time>2021-05-23T09:03:32Z</time>
      </trkpt>
      <trkpt lat="42.6983290" lon="-8.6410050">
        <ele>63.9</ele>
        <time>2021-05-23T09:03:33Z</time>
      </trkpt>
      <trkpt lat="42.6983410" lon="-8.6410060">
        <ele>63.9</ele>
        <time>2021-05-23T09:03:34Z</time>
      </trkpt>
      <trkpt lat="42.6983620" lon="-8.6410110">
        <ele>64.0</ele>
        <time>2021-05-23T09:03:35Z</time>
      </trkpt>
      <trkpt lat="42.6983760" lon="-8.6410080">
        <ele>64.0</ele>
        <time>2021-05-23T09:03:36Z</time>
      </trkpt>
      <trkpt lat="42.6983940" lon="-8.6410070">
        <ele>64.0</ele>
        <time>2021-05-23T09:03:37Z</time>
      </trkpt>
      <trkpt lat="42.6984030" lon="-8.6410060">
        <ele>64.1</ele>
        <time>2021-05-23T09:03:38Z</time>
      </trkpt>
      <trkpt lat="42.6984130" lon="-8.6410050">
        <ele>64.1</ele>
        <time>2021-05-23T09:03:39Z</time>
      </trkpt>
      <trkpt lat="42.6984320" lon="-8.6410030">
        <ele>64.1</ele>
        <time>2021-05-23T09:03:40Z</time>
      </trkpt>
      <trkpt lat="42.6984410" lon="-8.6410050">
        <ele>64.1</ele>
        <time>2021-05-23T09:03:41Z</time>
      </trkpt>
      <trkpt lat="42.6984510" lon="-8.6410060">
        <ele>64.2</ele>
        <time>2021-05-23T09:03:42Z</time>
      </trkpt>
      <trkpt lat="42.6984700" lon="-8.6409990">
        <ele>64.2</ele>
        <time>2021-05-23T09:03:43Z</time>
      </trkpt>
      <trkpt lat="42.6984800" lon="-8.6409930">
        <ele>64.3</ele>
        <time>2021-05-23T09:03:44Z</time>
      </trkpt>
      <trkpt lat="42.6984910" lon="-8.6409870">
        <ele>64.3</ele>
        <time>2021-05-23T09:03:45Z</time>
      </trkpt>
      <trkpt lat="42.6985020" lon="-8.6409810">
        <ele>64.3</ele>
        <time>2021-05-23T09:03:46Z</time>
      </trkpt>
      <trkpt lat="42.6985050" lon="-8.6409750">
        <ele>64.4</ele>
        <time>2021-05-23T09:03:47Z</time>
      </trkpt>
      <trkpt lat="42.6985210" lon="-8.6409670">
        <ele>64.4</ele>
        <time>2021-05-23T09:03:48Z</time>
      </trkpt>
      <trkpt lat="42.6985250" lon="-8.6409650">
        <ele>64.4</ele>
        <time>2021-05-23T09:03:49Z</time>
      </trkpt>
      <trkpt lat="42.6985350" lon="-8.6409570">
        <ele>64.5</ele>
        <time>2021-05-23T09:03:50Z</time>
      </trkpt>
      <trkpt lat="42.6985500" lon="-8.6409520">
        <ele>64.5</ele>
        <time>2021-05-23T09:03:51Z</time>
      </trkpt>
      <trkpt lat="42.6985630" lon="-8.6409430">
        <ele>64.6</ele>
        <time>2021-05-23T09:03:52Z</time>
      </trkpt>
      <trkpt lat="42.6985730" lon="-8.6409450">
        <ele>64.6</ele>
        <time>2021-05-23T09:03:53Z</time>
      </trkpt>
      <trkpt lat="42.6985840" lon="-8.6409370">
        <ele>64.6</ele>
        <time>2021-05-23T09:03:54Z</time>
      </trkpt>
      <trkpt lat="42.6985960" lon="-8.6409350">
        <ele>64.7</ele>
        <time>2021-05-23T09:03:55Z</time>
      </trkpt>
      <trkpt lat="42.6986080" lon="-8.6409300">
        <ele>64.7</ele>
        <time>2021-05-23T09:03:56Z</time>
      </trkpt>
      <trkpt lat="42.6986210" lon="-8.6409260">
        <ele>64.8</ele>
        <time>2021-05-23T09:03:57Z</time>
      </trkpt>
      <trkpt lat="42.6986280" lon="-8.6409220">
        <ele>64.8</ele>
        <time>2021-05-23T09:03:58Z</time>
      </trkpt>
      <trkpt lat="42.6986400" lon="-8.6409110">
        <ele>64.9</ele>
        <time>2021-05-23T09:03:59Z</time>
      </trkpt>
      <trkpt lat="42.6986430" lon="-8.6409000">
        <ele>64.9</ele>
        <time>2021-05-23T09:04:00Z</time>
      </trkpt>
      <trkpt lat="42.6986540" lon="-8.6408960">
        <ele>64.9</ele>
        <time>2021-05-23T09:04:01Z</time>
      </trkpt>
      <trkpt lat="42.6986620" lon="-8.6408890">
        <ele>65.0</ele>
        <time>2021-05-23T09:04:02Z</time>
      </trkpt>
      <trkpt lat="42.6986700" lon="-8.6408800">
        <ele>65.0</ele>
        <time>2021-05-23T09:04:03Z</time>
      </trkpt>
      <trkpt lat="42.6986920" lon="-8.6408730">
        <ele>65.1</ele>
        <time>2021-05-23T09:04:04Z</time>
      </trkpt>
      <trkpt lat="42.6987030" lon="-8.6408780">
        <ele>65.1</ele>
        <time>2021-05-23T09:04:05Z</time>
      </trkpt>
      <trkpt lat="42.6987170" lon="-8.6408760">
        <ele>65.2</ele>
        <time>2021-05-23T09:04:06Z</time>
      </trkpt>
      <trkpt lat="42.6987360" lon="-8.6408720">
        <ele>65.2</ele>
        <time>2021-05-23T09:04:07Z</time>
      </trkpt>
      <trkpt lat="42.6987520" lon="-8.6408790">
        <ele>65.3</ele>
        <time>2021-05-23T09:04:08Z</time>
      </trkpt>
      <trkpt lat="42.6987720" lon="-8.6408800">
        <ele>65.3</ele>
        <time>2021-05-23T09:04:09Z</time>
      </trkpt>
      <trkpt lat="42.6987820" lon="-8.6408670">
        <ele>65.4</ele>
        <time>2021-05-23T09:04:10Z</time>
      </trkpt>
      <trkpt lat="42.6987960" lon="-8.6408630">
        <ele>65.4</ele>
        <time>2021-05-23T09:04:11Z</time>
      </trkpt>
      <trkpt lat="42.6988250" lon="-8.6408590">
        <ele>65.5</ele>
        <time>2021-05-23T09:04:12Z</time>
      </trkpt>
      <trkpt lat="42.6988500" lon="-8.6408380">
        <ele>65.5</ele>
        <time>2021-05-23T09:04:13Z</time>
      </trkpt>
      <trkpt lat="42.6988580" lon="-8.6408330">
        <ele>65.5</ele>
        <time>2021-05-23T09:04:14Z</time>
      </trkpt>
      <trkpt lat="42.6988760" lon="-8.6408220">
        <ele>65.6</ele>
        <time>2021-05-23T09:04:15Z</time>
      </trkpt>
      <trkpt lat="42.6988900" lon="-8.6408150">
        <ele>65.6</ele>
        <time>2021-05-23T09:04:16Z</time>
      </trkpt>
      <trkpt lat="42.6989060" lon="-8.6408070">
        <ele>65.6</ele>
        <time>2021-05-23T09:04:17Z</time>
      </trkpt>
      <trkpt lat="42.6989210" lon="-8.6407950">
        <ele>65.6</ele>
        <time>2021-05-23T09:04:18Z</time>
      </trkpt>
      <trkpt lat="42.6989320" lon="-8.6407750">
        <ele>65.6</ele>
        <time>2021-05-23T09:04:19Z</time>
      </trkpt>
      <trkpt lat="42.6989510" lon="-8.6407870">
        <ele>65.7</ele>
        <time>2021-05-23T09:04:20Z</time>
      </trkpt>
      <trkpt lat="42.6989640" lon="-8.6407970">
        <ele>65.7</ele>
        <time>2021-05-23T09:04:21Z</time>
      </trkpt>
      <trkpt lat="42.6989780" lon="-8.6407740">
        <ele>65.7</ele>
        <time>2021-05-23T09:04:22Z</time>
      </trkpt>
      <trkpt lat="42.6989910" lon="-8.6407650">
        <ele>65.7</ele>
        <time>2021-05-23T09:04:23Z</time>
      </trkpt>
      <trkpt lat="42.6990010" lon="-8.6407500">
        <ele>65.8</ele>
        <time>2021-05-23T09:04:24Z</time>
      </trkpt>
      <trkpt lat="42.6990170" lon="-8.6407300">
        <ele>65.8</ele>
        <time>2021-05-23T09:04:25Z</time>
      </trkpt>
      <trkpt lat="42.6990250" lon="-8.6407240">
        <ele>65.8</ele>
        <time>2021-05-23T09:04:26Z</time>
      </trkpt>
      <trkpt lat="42.6990320" lon="-8.6407180">
        <ele>65.8</ele>
        <time>2021-05-23T09:04:27Z</time>
      </trkpt>
      <trkpt lat="42.6990470" lon="-8.6407070">
        <ele>65.8</ele>
        <time>2021-05-23T09:04:28Z</time>
      </trkpt>
      <trkpt lat="42.6990640" lon="-8.6407020">
        <ele>65.9</ele>
        <time>2021-05-23T09:04:29Z</time>
      </trkpt>
      <trkpt lat="42.6990780" lon="-8.6406930">
        <ele>65.9</ele>
        <time>2021-05-23T09:04:30Z</time>
      </trkpt>
      <trkpt lat="42.6990910" lon="-8.6406810">
        <ele>65.9</ele>
        <time>2021-05-23T09:04:31Z</time>
      </trkpt>
      <trkpt lat="42.6991090" lon="-8.6406690">
        <ele>65.9</ele>
        <time>2021-05-23T09:04:32Z</time>
      </trkpt>
      <trkpt lat="42.6991170" lon="-8.6406590">
        <ele>66.0</ele>
        <time>2021-05-23T09:04:33Z</time>
      </trkpt>
      <trkpt lat="42.6991240" lon="-8.6406500">
        <ele>66.0</ele>
        <time>2021-05-23T09:04:34Z</time>
      </trkpt>
      <trkpt lat="42.6991340" lon="-8.6406380">
        <ele>66.0</ele>
        <time>2021-05-23T09:04:35Z</time>
      </trkpt>
      <trkpt lat="42.6991450" lon="-8.6406290">
        <ele>66.0</ele>
        <time>2021-05-23T09:04:36Z</time>
      </trkpt>
      <trkpt lat="42.6991500" lon="-8.6406180">
        <ele>66.0</ele>
        <time>2021-05-23T09:04:37Z</time>
      </trkpt>
      <trkpt lat="42.6991590" lon="-8.6406070">
        <ele>66.0</ele>
        <time>2021-05-23T09:04:38Z</time>
      </trkpt>
      <trkpt lat="42.6991720" lon="-8.6405960">
        <ele>66.1</ele>
        <time>2021-05-23T09:04:40Z</time>
      </trkpt>
      <trkpt lat="42.6991710" lon="-8.6405780">
        <ele>66.1</ele>
        <time>2021-05-23T09:04:41Z</time>
      </trkpt>
      <trkpt lat="42.6991710" lon="-8.6405740">
        <ele>66.1</ele>
        <time>2021-05-23T09:04:42Z</time>
      </trkpt>
      <trkpt lat="42.6991720" lon="-8.6405610">
        <ele>66.1</ele>
        <time>2021-05-23T09:04:43Z</time>
      </trkpt>
      <trkpt lat="42.6991860" lon="-8.6405410">
        <ele>66.1</ele>
        <time>2021-05-23T09:04:44Z</time>
      </trkpt>
      <trkpt lat="42.6991840" lon="-8.6405280">
        <ele>66.1</ele>
        <time>2021-05-23T09:04:45Z</time>
      </trkpt>
      <trkpt lat="42.6991930" lon="-8.6405060">
        <ele>66.2</ele>
        <time>2021-05-23T09:04:46Z</time>
      </trkpt>
      <trkpt lat="42.6991950" lon="-8.6404960">
        <ele>66.2</ele>
        <time>2021-05-23T09:04:47Z</time>
      </trkpt>
      <trkpt lat="42.6992010" lon="-8.6404850">
        <ele>66.2</ele>
        <time>2021-05-23T09:04:48Z</time>
      </trkpt>
      <trkpt lat="42.6992090" lon="-8.6404810">
        <ele>66.2</ele>
        <time>2021-05-23T09:04:49Z</time>
      </trkpt>
      <trkpt lat="42.6992150" lon="-8.6404720">
        <ele>66.2</ele>
        <time>2021-05-23T09:04:50Z</time>
      </trkpt>
      <trkpt lat="42.6992310" lon="-8.6404570">
        <ele>66.2</ele>
        <time>2021-05-23T09:04:51Z</time>
      </trkpt>
      <trkpt lat="42.6992370" lon="-8.6404470">
        <ele>66.2</ele>
        <time>2021-05-23T09:04:52Z</time>
      </trkpt>
      <trkpt lat="42.6992440" lon="-8.6404380">
        <ele>66.3</ele>
        <time>2021-05-23T09:04:53Z</time>
      </trkpt>
      <trkpt lat="42.6992600" lon="-8.6404180">
        <ele>66.3</ele>
        <time>2021-05-23T09:04:54Z</time>
      </trkpt>
      <trkpt lat="42.6992700" lon="-8.6404090">
        <ele>66.3</ele>
        <time>2021-05-23T09:04:55Z</time>
      </trkpt>
      <trkpt lat="42.6992810" lon="-8.6404000">
        <ele>66.3</ele>
        <time>2021-05-23T09:04:56Z</time>
      </trkpt>
      <trkpt lat="42.6992930" lon="-8.6403770">
        <ele>66.4</ele>
        <time>2021-05-23T09:04:57Z</time>
      </trkpt>
      <trkpt lat="42.6993010" lon="-8.6403690">
        <ele>66.4</ele>
        <time>2021-05-23T09:04:58Z</time>
      </trkpt>
      <trkpt lat="42.6993080" lon="-8.6403600">
        <ele>66.4</ele>
        <time>2021-05-23T09:04:59Z</time>
      </trkpt>
      <trkpt lat="42.6993150" lon="-8.6403360">
        <ele>66.4</ele>
        <time>2021-05-23T09:05:00Z</time>
      </trkpt>
      <trkpt lat="42.6993180" lon="-8.6403240">
        <ele>66.4</ele>
        <time>2021-05-23T09:05:01Z</time>
      </trkpt>
      <trkpt lat="42.6993200" lon="-8.6403130">
        <ele>66.5</ele>
        <time>2021-05-23T09:05:02Z</time>
      </trkpt>
      <trkpt lat="42.6993240" lon="-8.6403050">
        <ele>66.5</ele>
        <time>2021-05-23T09:05:03Z</time>
      </trkpt>
      <trkpt lat="42.6993260" lon="-8.6402900">
        <ele>66.5</ele>
        <time>2021-05-23T09:05:04Z</time>
      </trkpt>
      <trkpt lat="42.6993340" lon="-8.6402740">
        <ele>66.5</ele>
        <time>2021-05-23T09:05:05Z</time>
      </trkpt>
      <trkpt lat="42.6993500" lon="-8.6402570">
        <ele>66.6</ele>
        <time>2021-05-23T09:05:06Z</time>
      </trkpt>
      <trkpt lat="42.6993550" lon="-8.6402460">
        <ele>66.6</ele>
        <time>2021-05-23T09:05:07Z</time>
      </trkpt>
      <trkpt lat="42.6993640" lon="-8.6402310">
        <ele>66.6</ele>
        <time>2021-05-23T09:05:08Z</time>
      </trkpt>
      <trkpt lat="42.6993620" lon="-8.6402260">
        <ele>66.6</ele>
        <time>2021-05-23T09:05:09Z</time>
      </trkpt>
      <trkpt lat="42.6993760" lon="-8.6402080">
        <ele>66.7</ele>
        <time>2021-05-23T09:05:10Z</time>
      </trkpt>
      <trkpt lat="42.6993890" lon="-8.6401820">
        <ele>66.7</ele>
        <time>2021-05-23T09:05:11Z</time>
      </trkpt>
      <trkpt lat="42.6993970" lon="-8.6401690">
        <ele>66.7</ele>
        <time>2021-05-23T09:05:12Z</time>
      </trkpt>
      <trkpt lat="42.6994060" lon="-8.6401520">
        <ele>66.8</ele>
        <time>2021-05-23T09:05:13Z</time>
      </trkpt>
      <trkpt lat="42.6994090" lon="-8.6401390">
        <ele>66.8</ele>
        <time>2021-05-23T09:05:14Z</time>
      </trkpt>
      <trkpt lat="42.6994120" lon="-8.6401280">
        <ele>66.8</ele>
        <time>2021-05-23T09:05:15Z</time>
      </trkpt>
      <trkpt lat="42.6994290" lon="-8.6400990">
        <ele>66.9</ele>
        <time>2021-05-23T09:05:16Z</time>
      </trkpt>
      <trkpt lat="42.6994360" lon="-8.6400860">
        <ele>66.9</ele>
        <time>2021-05-23T09:05:17Z</time>
      </trkpt>
      <trkpt lat="42.6994500" lon="-8.6400750">
        <ele>67.0</ele>
        <time>2021-05-23T09:05:18Z</time>
      </trkpt>
      <trkpt lat="42.6994590" lon="-8.6400610">
        <ele>67.0</ele>
        <time>2021-05-23T09:05:19Z</time>
      </trkpt>
      <trkpt lat="42.6994680" lon="-8.6400600">
        <ele>67.1</ele>
        <time>2021-05-23T09:05:20Z</time>
      </trkpt>
      <trkpt lat="42.6994750" lon="-8.6400660">
        <ele>67.1</ele>
        <time>2021-05-23T09:05:21Z</time>
      </trkpt>
      <trkpt lat="42.6994890" lon="-8.6400680">
        <ele>67.1</ele>
        <time>2021-05-23T09:05:22Z</time>
      </trkpt>
      <trkpt lat="42.6995160" lon="-8.6400790">
        <ele>67.2</ele>
        <time>2021-05-23T09:05:23Z</time>
      </trkpt>
      <trkpt lat="42.6995260" lon="-8.6400810">
        <ele>67.2</ele>
        <time>2021-05-23T09:05:24Z</time>
      </trkpt>
      <trkpt lat="42.6995400" lon="-8.6400890">
        <ele>67.3</ele>
        <time>2021-05-23T09:05:25Z</time>
      </trkpt>
      <trkpt lat="42.6995530" lon="-8.6400910">
        <ele>67.3</ele>
        <time>2021-05-23T09:05:26Z</time>
      </trkpt>
      <trkpt lat="42.6995660" lon="-8.6400910">
        <ele>67.3</ele>
        <time>2021-05-23T09:05:27Z</time>
      </trkpt>
      <trkpt lat="42.6995810" lon="-8.6401080">
        <ele>67.4</ele>
        <time>2021-05-23T09:05:28Z</time>
      </trkpt>
      <trkpt lat="42.6995840" lon="-8.6401180">
        <ele>67.4</ele>
        <time>2021-05-23T09:05:29Z</time>
      </trkpt>
      <trkpt lat="42.6995900" lon="-8.6401230">
        <ele>67.4</ele>
        <time>2021-05-23T09:05:30Z</time>
      </trkpt>
      <trkpt lat="42.6995990" lon="-8.6401200">
        <ele>67.5</ele>
        <time>2021-05-23T09:05:31Z</time>
      </trkpt>
      <trkpt lat="42.6996060" lon="-8.6401240">
        <ele>67.5</ele>
        <time>2021-05-23T09:05:32Z</time>
      </trkpt>
      <trkpt lat="42.6996200" lon="-8.6401290">
        <ele>67.5</ele>
        <time>2021-05-23T09:05:33Z</time>
      </trkpt>
      <trkpt lat="42.6996300" lon="-8.6401350">
        <ele>67.5</ele>
        <time>2021-05-23T09:05:34Z</time>
      </trkpt>
      <trkpt lat="42.6996390" lon="-8.6401390">
        <ele>67.5</ele>
        <time>2021-05-23T09:05:35Z</time>
      </trkpt>
      <trkpt lat="42.6996420" lon="-8.6401360">
        <ele>67.5</ele>
        <time>2021-05-23T09:05:36Z</time>
      </trkpt>
      <trkpt lat="42.6996420" lon="-8.6401330">
        <ele>67.5</ele>
        <time>2021-05-23T09:05:37Z</time>
      </trkpt>
      <trkpt lat="42.6996530" lon="-8.6401440">
        <ele>67.6</ele>
        <time>2021-05-23T09:05:38Z</time>
      </trkpt>
      <trkpt lat="42.6996650" lon="-8.6401500">
        <ele>67.6</ele>
        <time>2021-05-23T09:05:39Z</time>
      </trkpt>
      <trkpt lat="42.6996700" lon="-8.6401530">
        <ele>67.6</ele>
        <time>2021-05-23T09:05:40Z</time>
      </trkpt>
      <trkpt lat="42.6996830" lon="-8.6401580">
        <ele>67.6</ele>
        <time>2021-05-23T09:05:41Z</time>
      </trkpt>
      <trkpt lat="42.6996960" lon="-8.6401570">
        <ele>67.6</ele>
        <time>2021-05-23T09:05:42Z</time>
      </trkpt>
      <trkpt lat="42.6996980" lon="-8.6401560">
        <ele>67.6</ele>
        <time>2021-05-23T09:05:43Z</time>
      </trkpt>
      <trkpt lat="42.6997060" lon="-8.6401600">
        <ele>67.6</ele>
        <time>2021-05-23T09:05:44Z</time>
      </trkpt>
      <trkpt lat="42.6997180" lon="-8.6401710">
        <ele>67.6</ele>
        <time>2021-05-23T09:05:45Z</time>
      </trkpt>
      <trkpt lat="42.6997290" lon="-8.6401780">
        <ele>67.6</ele>
        <time>2021-05-23T09:05:46Z</time>
      </trkpt>
      <trkpt lat="42.6997530" lon="-8.6401900">
        <ele>67.7</ele>
        <time>2021-05-23T09:05:47Z</time>
      </trkpt>
      <trkpt lat="42.6997590" lon="-8.6401920">
        <ele>67.7</ele>
        <time>2021-05-23T09:05:48Z</time>
      </trkpt>
      <trkpt lat="42.6997660" lon="-8.6401940">
        <ele>67.7</ele>
        <time>2021-05-23T09:05:49Z</time>
      </trkpt>
      <trkpt lat="42.6997710" lon="-8.6402030">
        <ele>67.7</ele>
        <time>2021-05-23T09:05:50Z</time>
      </trkpt>
      <trkpt lat="42.6997910" lon="-8.6402110">
        <ele>67.7</ele>
        <time>2021-05-23T09:05:51Z</time>
      </trkpt>
      <trkpt lat="42.6997990" lon="-8.6402160">
        <ele>67.7</ele>
        <time>2021-05-23T09:05:52Z</time>
      </trkpt>
      <trkpt lat="42.6998100" lon="-8.6402240">
        <ele>67.7</ele>
        <time>2021-05-23T09:05:53Z</time>
      </trkpt>
      <trkpt lat="42.6998170" lon="-8.6402270">
        <ele>67.7</ele>
        <time>2021-05-23T09:05:54Z</time>
      </trkpt>
      <trkpt lat="42.6998390" lon="-8.6402240">
        <ele>67.7</ele>
        <time>2021-05-23T09:05:55Z</time>
      </trkpt>
      <trkpt lat="42.6998410" lon="-8.6402310">
        <ele>67.7</ele>
        <time>2021-05-23T09:05:56Z</time>
      </trkpt>
      <trkpt lat="42.6998470" lon="-8.6402300">
        <ele>67.7</ele>
        <time>2021-05-23T09:05:57Z</time>
      </trkpt>
      <trkpt lat="42.6998550" lon="-8.6402320">
        <ele>67.7</ele>
        <time>2021-05-23T09:05:58Z</time>
      </trkpt>
      <trkpt lat="42.6998570" lon="-8.6402290">
        <ele>67.7</ele>
        <time>2021-05-23T09:05:59Z</time>
      </trkpt>
      <trkpt lat="42.6998620" lon="-8.6402360">
        <ele>67.7</ele>
        <time>2021-05-23T09:06:00Z</time>
      </trkpt>
      <trkpt lat="42.6998740" lon="-8.6402440">
        <ele>67.7</ele>
        <time>2021-05-23T09:06:01Z</time>
      </trkpt>
      <trkpt lat="42.6998860" lon="-8.6402430">
        <ele>67.7</ele>
        <time>2021-05-23T09:06:02Z</time>
      </trkpt>
      <trkpt lat="42.6999020" lon="-8.6402430">
        <ele>67.7</ele>
        <time>2021-05-23T09:06:03Z</time>
      </trkpt>
      <trkpt lat="42.6999030" lon="-8.6402390">
        <ele>67.7</ele>
        <time>2021-05-23T09:06:04Z</time>
      </trkpt>
      <trkpt lat="42.6999090" lon="-8.6402350">
        <ele>67.7</ele>
        <time>2021-05-23T09:06:05Z</time>
      </trkpt>
      <trkpt lat="42.6999150" lon="-8.6402310">
        <ele>67.7</ele>
        <time>2021-05-23T09:06:06Z</time>
      </trkpt>
      <trkpt lat="42.6999280" lon="-8.6402240">
        <ele>67.7</ele>
        <time>2021-05-23T09:06:07Z</time>
      </trkpt>
      <trkpt lat="42.6999440" lon="-8.6402170">
        <ele>67.7</ele>
        <time>2021-05-23T09:06:08Z</time>
      </trkpt>
      <trkpt lat="42.6999510" lon="-8.6402150">
        <ele>67.7</ele>
        <time>2021-05-23T09:06:09Z</time>
      </trkpt>
      <trkpt lat="42.6999580" lon="-8.6402120">
        <ele>67.7</ele>
        <time>2021-05-23T09:06:10Z</time>
      </trkpt>
      <trkpt lat="42.6999650" lon="-8.6402090">
        <ele>67.7</ele>
        <time>2021-05-23T09:06:11Z</time>
      </trkpt>
      <trkpt lat="42.6999720" lon="-8.6402070">
        <ele>67.7</ele>
        <time>2021-05-23T09:06:12Z</time>
      </trkpt>
      <trkpt lat="42.6999790" lon="-8.6402040">
        <ele>67.7</ele>
        <time>2021-05-23T09:06:13Z</time>
      </trkpt>
      <trkpt lat="42.6999860" lon="-8.6402020">
        <ele>67.7</ele>
        <time>2021-05-23T09:06:14Z</time>
      </trkpt>
      <trkpt lat="42.6999930" lon="-8.6401990">
        <ele>67.7</ele>
        <time>2021-05-23T09:06:15Z</time>
      </trkpt>
      <trkpt lat="42.7000000" lon="-8.6401960">
        <ele>67.7</ele>
        <time>2021-05-23T09:06:16Z</time>
      </trkpt>
      <trkpt lat="42.7000070" lon="-8.6401940">
        <ele>67.7</ele>
        <time>2021-05-23T09:06:17Z</time>
      </trkpt>
      <trkpt lat="42.7000140" lon="-8.6401910">
        <ele>67.7</ele>
        <time>2021-05-23T09:06:18Z</time>
      </trkpt>
      <trkpt lat="42.7000290" lon="-8.6401950">
        <ele>67.7</ele>
        <time>2021-05-23T09:06:19Z</time>
      </trkpt>
      <trkpt lat="42.7000420" lon="-8.6401910">
        <ele>67.7</ele>
        <time>2021-05-23T09:06:20Z</time>
      </trkpt>
      <trkpt lat="42.7000450" lon="-8.6401850">
        <ele>67.7</ele>
        <time>2021-05-23T09:06:21Z</time>
      </trkpt>
      <trkpt lat="42.7000560" lon="-8.6401810">
        <ele>67.7</ele>
        <time>2021-05-23T09:06:22Z</time>
      </trkpt>
      <trkpt lat="42.7000760" lon="-8.6401840">
        <ele>67.8</ele>
        <time>2021-05-23T09:06:23Z</time>
      </trkpt>
      <trkpt lat="42.7000860" lon="-8.6401810">
        <ele>67.8</ele>
        <time>2021-05-23T09:06:24Z</time>
      </trkpt>
      <trkpt lat="42.7000960" lon="-8.6401780">
        <ele>67.8</ele>
        <time>2021-05-23T09:06:25Z</time>
      </trkpt>
      <trkpt lat="42.7001060" lon="-8.6401800">
        <ele>67.8</ele>
        <time>2021-05-23T09:06:26Z</time>
      </trkpt>
      <trkpt lat="42.7001230" lon="-8.6401830">
        <ele>67.9</ele>
        <time>2021-05-23T09:06:27Z</time>
      </trkpt>
      <trkpt lat="42.7001250" lon="-8.6401830">
        <ele>67.9</ele>
        <time>2021-05-23T09:06:28Z</time>
      </trkpt>
      <trkpt lat="42.7001400" lon="-8.6401830">
        <ele>67.9</ele>
        <time>2021-05-23T09:06:29Z</time>
      </trkpt>
      <trkpt lat="42.7001440" lon="-8.6401780">
        <ele>67.9</ele>
        <time>2021-05-23T09:06:30Z</time>
      </trkpt>
      <trkpt lat="42.7001510" lon="-8.6401760">
        <ele>67.9</ele>
        <time>2021-05-23T09:06:31Z</time>
      </trkpt>
      <trkpt lat="42.7001590" lon="-8.6401750">
        <ele>68.0</ele>
        <time>2021-05-23T09:06:32Z</time>
      </trkpt>
      <trkpt lat="42.7001730" lon="-8.6401760">
        <ele>68.0</ele>
        <time>2021-05-23T09:06:33Z</time>
      </trkpt>
      <trkpt lat="42.7001950" lon="-8.6401780">
        <ele>68.0</ele>
        <time>2021-05-23T09:06:35Z</time>
      </trkpt>
      <trkpt lat="42.7002020" lon="-8.6401770">
        <ele>68.0</ele>
        <time>2021-05-23T09:06:36Z</time>
      </trkpt>
      <trkpt lat="42.7002100" lon="-8.6401770">
        <ele>68.1</ele>
        <time>2021-05-23T09:06:37Z</time>
      </trkpt>
      <trkpt lat="42.7002180" lon="-8.6401760">
        <ele>68.1</ele>
        <time>2021-05-23T09:06:38Z</time>
      </trkpt>
      <trkpt lat="42.7002370" lon="-8.6401770">
        <ele>68.1</ele>
        <time>2021-05-23T09:06:39Z</time>
      </trkpt>
      <trkpt lat="42.7002460" lon="-8.6401770">
        <ele>68.1</ele>
        <time>2021-05-23T09:06:40Z</time>
      </trkpt>
      <trkpt lat="42.7002550" lon="-8.6401780">
        <ele>68.2</ele>
        <time>2021-05-23T09:06:41Z</time>
      </trkpt>
      <trkpt lat="42.7002770" lon="-8.6401790">
        <ele>68.2</ele>
        <time>2021-05-23T09:06:42Z</time>
      </trkpt>
      <trkpt lat="42.7002840" lon="-8.6401790">
        <ele>68.2</ele>
        <time>2021-05-23T09:06:43Z</time>
      </trkpt>
      <trkpt lat="42.7002920" lon="-8.6401780">
        <ele>68.2</ele>
        <time>2021-05-23T09:06:44Z</time>
      </trkpt>
      <trkpt lat="42.7003020" lon="-8.6401790">
        <ele>68.3</ele>
        <time>2021-05-23T09:06:45Z</time>
      </trkpt>
      <trkpt lat="42.7003120" lon="-8.6401810">
        <ele>68.3</ele>
        <time>2021-05-23T09:06:46Z</time>
      </trkpt>
      <trkpt lat="42.7003230" lon="-8.6401820">
        <ele>68.3</ele>
        <time>2021-05-23T09:06:47Z</time>
      </trkpt>
      <trkpt lat="42.7003420" lon="-8.6401830">
        <ele>68.3</ele>
        <time>2021-05-23T09:06:48Z</time>
      </trkpt>
      <trkpt lat="42.7003520" lon="-8.6401850">
        <ele>68.4</ele>
        <time>2021-05-23T09:06:49Z</time>
      </trkpt>
      <trkpt lat="42.7003620" lon="-8.6401870">
        <ele>68.4</ele>
        <time>2021-05-23T09:06:50Z</time>
      </trkpt>
      <trkpt lat="42.7003690" lon="-8.6401800">
        <ele>68.4</ele>
        <time>2021-05-23T09:06:51Z</time>
      </trkpt>
      <trkpt lat="42.7003830" lon="-8.6401850">
        <ele>68.4</ele>
        <time>2021-05-23T09:06:52Z</time>
      </trkpt>
      <trkpt lat="42.7003930" lon="-8.6401840">
        <ele>68.4</ele>
        <time>2021-05-23T09:06:53Z</time>
      </trkpt>
      <trkpt lat="42.7004060" lon="-8.6401820">
        <ele>68.5</ele>
        <time>2021-05-23T09:06:54Z</time>
      </trkpt>
      <trkpt lat="42.7004180" lon="-8.6401760">
        <ele>68.5</ele>
        <time>2021-05-23T09:06:55Z</time>
      </trkpt>
      <trkpt lat="42.7004280" lon="-8.6401810">
        <ele>68.5</ele>
        <time>2021-05-23T09:06:56Z</time>
      </trkpt>
      <trkpt lat="42.7004460" lon="-8.6401840">
        <ele>68.5</ele>
        <time>2021-05-23T09:06:57Z</time>
      </trkpt>
      <trkpt lat="42.7004590" lon="-8.6401860">
        <ele>68.5</ele>
        <time>2021-05-23T09:06:58Z</time>
      </trkpt>
      <trkpt lat="42.7004680" lon="-8.6401850">
        <ele>68.6</ele>
        <time>2021-05-23T09:06:59Z</time>
      </trkpt>
      <trkpt lat="42.7004780" lon="-8.6401820">
        <ele>68.6</ele>
        <time>2021-05-23T09:07:00Z</time>
      </trkpt>
      <trkpt lat="42.7004900" lon="-8.6401780">
        <ele>68.6</ele>
        <time>2021-05-23T09:07:01Z</time>
      </trkpt>
      <trkpt lat="42.7005020" lon="-8.6401790">
        <ele>68.6</ele>
        <time>2021-05-23T09:07:02Z</time>
      </trkpt>
      <trkpt lat="42.7005080" lon="-8.6401820">
        <ele>68.6</ele>
        <time>2021-05-23T09:07:03Z</time>
      </trkpt>
      <trkpt lat="42.7005210" lon="-8.6401900">
        <ele>68.6</ele>
        <time>2021-05-23T09:07:04Z</time>
      </trkpt>
      <trkpt lat="42.7005430" lon="-8.6401880">
        <ele>68.6</ele>
        <time>2021-05-23T09:07:05Z</time>
      </trkpt>
      <trkpt lat="42.7005500" lon="-8.6401870">
        <ele>68.6</ele>
        <time>2021-05-23T09:07:06Z</time>
      </trkpt>
      <trkpt lat="42.7005580" lon="-8.6401860">
        <ele>68.6</ele>
        <time>2021-05-23T09:07:07Z</time>
      </trkpt>
      <trkpt lat="42.7005650" lon="-8.6401860">
        <ele>68.6</ele>
        <time>2021-05-23T09:07:08Z</time>
      </trkpt>
      <trkpt lat="42.7005810" lon="-8.6401860">
        <ele>68.6</ele>
        <time>2021-05-23T09:07:09Z</time>
      </trkpt>
      <trkpt lat="42.7005890" lon="-8.6401800">
        <ele>68.6</ele>
        <time>2021-05-23T09:07:10Z</time>
      </trkpt>
      <trkpt lat="42.7006010" lon="-8.6401770">
        <ele>68.6</ele>
        <time>2021-05-23T09:07:11Z</time>
      </trkpt>
      <trkpt lat="42.7006080" lon="-8.6401730">
        <ele>68.6</ele>
        <time>2021-05-23T09:07:12Z</time>
      </trkpt>
      <trkpt lat="42.7006220" lon="-8.6401760">
        <ele>68.6</ele>
        <time>2021-05-23T09:07:13Z</time>
      </trkpt>
      <trkpt lat="42.7006340" lon="-8.6401720">
        <ele>68.6</ele>
        <time>2021-05-23T09:07:14Z</time>
      </trkpt>
      <trkpt lat="42.7006400" lon="-8.6401690">
        <ele>68.6</ele>
        <time>2021-05-23T09:07:15Z</time>
      </trkpt>
      <trkpt lat="42.7006510" lon="-8.6401630">
        <ele>68.6</ele>
        <time>2021-05-23T09:07:16Z</time>
      </trkpt>
      <trkpt lat="42.7006640" lon="-8.6401570">
        <ele>68.6</ele>
        <time>2021-05-23T09:07:17Z</time>
      </trkpt>
      <trkpt lat="42.7006690" lon="-8.6401580">
        <ele>68.6</ele>
        <time>2021-05-23T09:07:18Z</time>
      </trkpt>
      <trkpt lat="42.7006810" lon="-8.6401520">
        <ele>68.6</ele>
        <time>2021-05-23T09:07:19Z</time>
      </trkpt>
      <trkpt lat="42.7006890" lon="-8.6401450">
        <ele>68.6</ele>
        <time>2021-05-23T09:07:20Z</time>
      </trkpt>
      <trkpt lat="42.7007020" lon="-8.6401460">
        <ele>68.5</ele>
        <time>2021-05-23T09:07:21Z</time>
      </trkpt>
      <trkpt lat="42.7007120" lon="-8.6401460">
        <ele>68.5</ele>
        <time>2021-05-23T09:07:22Z</time>
      </trkpt>
      <trkpt lat="42.7007280" lon="-8.6401400">
        <ele>68.5</ele>
        <time>2021-05-23T09:07:23Z</time>
      </trkpt>
      <trkpt lat="42.7007350" lon="-8.6401370">
        <ele>68.5</ele>
        <time>2021-05-23T09:07:24Z</time>
      </trkpt>
      <trkpt lat="42.7007460" lon="-8.6401330">
        <ele>68.5</ele>
        <time>2021-05-23T09:07:25Z</time>
      </trkpt>
      <trkpt lat="42.7007650" lon="-8.6401220">
        <ele>68.4</ele>
        <time>2021-05-23T09:07:26Z</time>
      </trkpt>
      <trkpt lat="42.7007740" lon="-8.6401350">
        <ele>68.4</ele>
        <time>2021-05-23T09:07:27Z</time>
      </trkpt>
      <trkpt lat="42.7007920" lon="-8.6401240">
        <ele>68.4</ele>
        <time>2021-05-23T09:07:28Z</time>
      </trkpt>
      <trkpt lat="42.7008010" lon="-8.6401190">
        <ele>68.4</ele>
        <time>2021-05-23T09:07:29Z</time>
      </trkpt>
      <trkpt lat="42.7008090" lon="-8.6401130">
        <ele>68.3</ele>
        <time>2021-05-23T09:07:30Z</time>
      </trkpt>
      <trkpt lat="42.7008320" lon="-8.6401090">
        <ele>68.3</ele>
        <time>2021-05-23T09:07:31Z</time>
      </trkpt>
      <trkpt lat="42.7008390" lon="-8.6401090">
        <ele>68.3</ele>
        <time>2021-05-23T09:07:32Z</time>
      </trkpt>
      <trkpt lat="42.7008460" lon="-8.6401100">
        <ele>68.2</ele>
        <time>2021-05-23T09:07:33Z</time>
      </trkpt>
      <trkpt lat="42.7008530" lon="-8.6401070">
        <ele>68.2</ele>
        <time>2021-05-23T09:07:34Z</time>
      </trkpt>
      <trkpt lat="42.7008600" lon="-8.6401060">
        <ele>68.2</ele>
        <time>2021-05-23T09:07:35Z</time>
      </trkpt>
      <trkpt lat="42.7008670" lon="-8.6401060">
        <ele>68.2</ele>
        <time>2021-05-23T09:07:36Z</time>
      </trkpt>
      <trkpt lat="42.7008730" lon="-8.6401050">
        <ele>68.2</ele>
        <time>2021-05-23T09:07:37Z</time>
      </trkpt>
      <trkpt lat="42.7008800" lon="-8.6401040">
        <ele>68.1</ele>
        <time>2021-05-23T09:07:38Z</time>
      </trkpt>
      <trkpt lat="42.7008870" lon="-8.6401030">
        <ele>68.1</ele>
        <time>2021-05-23T09:07:39Z</time>
      </trkpt>
      <trkpt lat="42.7008940" lon="-8.6400990">
        <ele>68.1</ele>
        <time>2021-05-23T09:07:40Z</time>
      </trkpt>
      <trkpt lat="42.7009010" lon="-8.6400980">
        <ele>68.1</ele>
        <time>2021-05-23T09:07:41Z</time>
      </trkpt>
      <trkpt lat="42.7009140" lon="-8.6400980">
        <ele>68.0</ele>
        <time>2021-05-23T09:07:42Z</time>
      </trkpt>
      <trkpt lat="42.7009370" lon="-8.6400920">
        <ele>67.9</ele>
        <time>2021-05-23T09:07:44Z</time>
      </trkpt>
      <trkpt lat="42.7009470" lon="-8.6400890">
        <ele>67.9</ele>
        <time>2021-05-23T09:07:45Z</time>
      </trkpt>
      <trkpt lat="42.7009570" lon="-8.6400870">
        <ele>67.8</ele>
        <time>2021-05-23T09:07:46Z</time>
      </trkpt>
      <trkpt lat="42.7009660" lon="-8.6400840">
        <ele>67.8</ele>
        <time>2021-05-23T09:07:47Z</time>
      </trkpt>
      <trkpt lat="42.7009790" lon="-8.6400740">
        <ele>67.7</ele>
        <time>2021-05-23T09:07:48Z</time>
      </trkpt>
      <trkpt lat="42.7009910" lon="-8.6400730">
        <ele>67.7</ele>
        <time>2021-05-23T09:07:49Z</time>
      </trkpt>
      <trkpt lat="42.7010090" lon="-8.6400770">
        <ele>67.6</ele>
        <time>2021-05-23T09:07:50Z</time>
      </trkpt>
      <trkpt lat="42.7010180" lon="-8.6400810">
        <ele>67.5</ele>
        <time>2021-05-23T09:07:51Z</time>
      </trkpt>
      <trkpt lat="42.7010470" lon="-8.6400950">
        <ele>67.3</ele>
        <time>2021-05-23T09:07:52Z</time>
      </trkpt>
      <trkpt lat="42.7010570" lon="-8.6400980">
        <ele>67.3</ele>
        <time>2021-05-23T09:07:53Z</time>
      </trkpt>
      <trkpt lat="42.7010650" lon="-8.6401040">
        <ele>67.2</ele>
        <time>2021-05-23T09:07:54Z</time>
      </trkpt>
      <trkpt lat="42.7010870" lon="-8.6401200">
        <ele>67.1</ele>
        <time>2021-05-23T09:07:55Z</time>
      </trkpt>
      <trkpt lat="42.7010930" lon="-8.6401190">
        <ele>67.0</ele>
        <time>2021-05-23T09:07:56Z</time>
      </trkpt>
      <trkpt lat="42.7011050" lon="-8.6401240">
        <ele>66.9</ele>
        <time>2021-05-23T09:07:57Z</time>
      </trkpt>
      <trkpt lat="42.7011200" lon="-8.6401340">
        <ele>66.8</ele>
        <time>2021-05-23T09:07:58Z</time>
      </trkpt>
      <trkpt lat="42.7011300" lon="-8.6401390">
        <ele>66.8</ele>
        <time>2021-05-23T09:07:59Z</time>
      </trkpt>
      <trkpt lat="42.7011460" lon="-8.6401460">
        <ele>66.7</ele>
        <time>2021-05-23T09:08:00Z</time>
      </trkpt>
      <trkpt lat="42.7011530" lon="-8.6401540">
        <ele>66.6</ele>
        <time>2021-05-23T09:08:01Z</time>
      </trkpt>
      <trkpt lat="42.7011660" lon="-8.6401650">
        <ele>66.5</ele>
        <time>2021-05-23T09:08:02Z</time>
      </trkpt>
      <trkpt lat="42.7011730" lon="-8.6401690">
        <ele>66.5</ele>
        <time>2021-05-23T09:08:03Z</time>
      </trkpt>
      <trkpt lat="42.7011840" lon="-8.6401780">
        <ele>66.4</ele>
        <time>2021-05-23T09:08:04Z</time>
      </trkpt>
      <trkpt lat="42.7011950" lon="-8.6401910">
        <ele>66.3</ele>
        <time>2021-05-23T09:08:05Z</time>
      </trkpt>
      <trkpt lat="42.7012040" lon="-8.6401920">
        <ele>66.3</ele>
        <time>2021-05-23T09:08:06Z</time>
      </trkpt>
      <trkpt lat="42.7012240" lon="-8.6402020">
        <ele>66.1</ele>
        <time>2021-05-23T09:08:07Z</time>
      </trkpt>
      <trkpt lat="42.7012470" lon="-8.6402220">
        <ele>66.0</ele>
        <time>2021-05-23T09:08:08Z</time>
      </trkpt>
      <trkpt lat="42.7012520" lon="-8.6402270">
        <ele>66.0</ele>
        <time>2021-05-23T09:08:09Z</time>
      </trkpt>
      <trkpt lat="42.7012570" lon="-8.6402310">
        <ele>65.9</ele>
        <time>2021-05-23T09:08:10Z</time>
      </trkpt>
      <trkpt lat="42.7012710" lon="-8.6402470">
        <ele>65.9</ele>
        <time>2021-05-23T09:08:11Z</time>
      </trkpt>
      <trkpt lat="42.7012830" lon="-8.6402560">
        <ele>65.8</ele>
        <time>2021-05-23T09:08:12Z</time>
      </trkpt>
      <trkpt lat="42.7012880" lon="-8.6402660">
        <ele>65.8</ele>
        <time>2021-05-23T09:08:13Z</time>
      </trkpt>
      <trkpt lat="42.7012910" lon="-8.6402660">
        <ele>65.7</ele>
        <time>2021-05-23T09:08:14Z</time>
      </trkpt>
      <trkpt lat="42.7012990" lon="-8.6402770">
        <ele>65.7</ele>
        <time>2021-05-23T09:08:15Z</time>
      </trkpt>
      <trkpt lat="42.7013040" lon="-8.6402870">
        <ele>65.7</ele>
        <time>2021-05-23T09:08:16Z</time>
      </trkpt>
      <trkpt lat="42.7013160" lon="-8.6402940">
        <ele>65.6</ele>
        <time>2021-05-23T09:08:17Z</time>
      </trkpt>
      <trkpt lat="42.7013240" lon="-8.6403050">
        <ele>65.6</ele>
        <time>2021-05-23T09:08:18Z</time>
      </trkpt>
      <trkpt lat="42.7013310" lon="-8.6403060">
        <ele>65.6</ele>
        <time>2021-05-23T09:08:19Z</time>
      </trkpt>
      <trkpt lat="42.7013390" lon="-8.6403200">
        <ele>65.5</ele>
        <time>2021-05-23T09:08:20Z</time>
      </trkpt>
      <trkpt lat="42.7013470" lon="-8.6403370">
        <ele>65.5</ele>
        <time>2021-05-23T09:08:21Z</time>
      </trkpt>
      <trkpt lat="42.7013590" lon="-8.6403550">
        <ele>65.4</ele>
        <time>2021-05-23T09:08:22Z</time>
      </trkpt>
      <trkpt lat="42.7013620" lon="-8.6403560">
        <ele>65.4</ele>
        <time>2021-05-23T09:08:23Z</time>
      </trkpt>
      <trkpt lat="42.7013650" lon="-8.6403780">
        <ele>65.3</ele>
        <time>2021-05-23T09:08:24Z</time>
      </trkpt>
      <trkpt lat="42.7013670" lon="-8.6403800">
        <ele>65.3</ele>
        <time>2021-05-23T09:08:25Z</time>
      </trkpt>
      <trkpt lat="42.7013720" lon="-8.6403980">
        <ele>65.3</ele>
        <time>2021-05-23T09:08:26Z</time>
      </trkpt>
      <trkpt lat="42.7013730" lon="-8.6404130">
        <ele>65.3</ele>
        <time>2021-05-23T09:08:27Z</time>
      </trkpt>
      <trkpt lat="42.7013780" lon="-8.6404290">
        <ele>65.2</ele>
        <time>2021-05-23T09:08:28Z</time>
      </trkpt>
      <trkpt lat="42.7013780" lon="-8.6404470">
        <ele>65.2</ele>
        <time>2021-05-23T09:08:29Z</time>
      </trkpt>
      <trkpt lat="42.7013800" lon="-8.6404600">
        <ele>65.2</ele>
        <time>2021-05-23T09:08:30Z</time>
      </trkpt>
      <trkpt lat="42.7013800" lon="-8.6404720">
        <ele>65.2</ele>
        <time>2021-05-23T09:08:31Z</time>
      </trkpt>
      <trkpt lat="42.7013800" lon="-8.6404870">
        <ele>65.1</ele>
        <time>2021-05-23T09:08:32Z</time>
      </trkpt>
      <trkpt lat="42.7013800" lon="-8.6405040">
        <ele>65.1</ele>
        <time>2021-05-23T09:08:33Z</time>
      </trkpt>
      <trkpt lat="42.7013780" lon="-8.6405250">
        <ele>65.1</ele>
        <time>2021-05-23T09:08:34Z</time>
      </trkpt>
      <trkpt lat="42.7013760" lon="-8.6405440">
        <ele>65.0</ele>
        <time>2021-05-23T09:08:35Z</time>
      </trkpt>
      <trkpt lat="42.7013770" lon="-8.6405560">
        <ele>65.0</ele>
        <time>2021-05-23T09:08:36Z</time>
      </trkpt>
      <trkpt lat="42.7013760" lon="-8.6405740">
        <ele>65.0</ele>
        <time>2021-05-23T09:08:37Z</time>
      </trkpt>
      <trkpt lat="42.7013760" lon="-8.6405780">
        <ele>65.0</ele>
        <time>2021-05-23T09:08:38Z</time>
      </trkpt>
      <trkpt lat="42.7013760" lon="-8.6405890">
        <ele>65.0</ele>
        <time>2021-05-23T09:08:39Z</time>
      </trkpt>
      <trkpt lat="42.7013760" lon="-8.6406070">
        <ele>64.9</ele>
        <time>2021-05-23T09:08:40Z</time>
      </trkpt>
      <trkpt lat="42.7013850" lon="-8.6406280">
        <ele>64.9</ele>
        <time>2021-05-23T09:08:41Z</time>
      </trkpt>
      <trkpt lat="42.7013900" lon="-8.6406430">
        <ele>64.9</ele>
        <time>2021-05-23T09:08:42Z</time>
      </trkpt>
      <trkpt lat="42.7013920" lon="-8.6406560">
        <ele>64.9</ele>
        <time>2021-05-23T09:08:43Z</time>
      </trkpt>
      <trkpt lat="42.7013940" lon="-8.6406650">
        <ele>64.9</ele>
        <time>2021-05-23T09:08:44Z</time>
      </trkpt>
      <trkpt lat="42.7014010" lon="-8.6406930">
        <ele>64.8</ele>
        <time>2021-05-23T09:08:45Z</time>
      </trkpt>
      <trkpt lat="42.7014060" lon="-8.6407040">
        <ele>64.8</ele>
        <time>2021-05-23T09:08:46Z</time>
      </trkpt>
      <trkpt lat="42.7014100" lon="-8.6407140">
        <ele>64.8</ele>
        <time>2021-05-23T09:08:47Z</time>
      </trkpt>
      <trkpt lat="42.7014160" lon="-8.6407370">
        <ele>64.8</ele>
        <time>2021-05-23T09:08:48Z</time>
      </trkpt>
      <trkpt lat="42.7014190" lon="-8.6407570">
        <ele>64.7</ele>
        <time>2021-05-23T09:08:49Z</time>
      </trkpt>
      <trkpt lat="42.7014300" lon="-8.6407650">
        <ele>64.7</ele>
        <time>2021-05-23T09:08:50Z</time>
      </trkpt>
      <trkpt lat="42.7014360" lon="-8.6407830">
        <ele>64.7</ele>
        <time>2021-05-23T09:08:51Z</time>
      </trkpt>
      <trkpt lat="42.7014390" lon="-8.6407930">
        <ele>64.7</ele>
        <time>2021-05-23T09:08:52Z</time>
      </trkpt>
      <trkpt lat="42.7014510" lon="-8.6408000">
        <ele>64.7</ele>
        <time>2021-05-23T09:08:53Z</time>
      </trkpt>
      <trkpt lat="42.7014570" lon="-8.6408150">
        <ele>64.7</ele>
        <time>2021-05-23T09:08:54Z</time>
      </trkpt>
      <trkpt lat="42.7014590" lon="-8.6408240">
        <ele>64.6</ele>
        <time>2021-05-23T09:08:55Z</time>
      </trkpt>
      <trkpt lat="42.7014700" lon="-8.6408320">
        <ele>64.6</ele>
        <time>2021-05-23T09:08:56Z</time>
      </trkpt>
      <trkpt lat="42.7014780" lon="-8.6408390">
        <ele>64.6</ele>
        <time>2021-05-23T09:08:57Z</time>
      </trkpt>
      <trkpt lat="42.7014850" lon="-8.6408460">
        <ele>64.6</ele>
        <time>2021-05-23T09:08:58Z</time>
      </trkpt>
      <trkpt lat="42.7014930" lon="-8.6408530">
        <ele>64.6</ele>
        <time>2021-05-23T09:08:59Z</time>
      </trkpt>
      <trkpt lat="42.7015040" lon="-8.6408630">
        <ele>64.6</ele>
        <time>2021-05-23T09:09:00Z</time>
      </trkpt>
      <trkpt lat="42.7015120" lon="-8.6408760">
        <ele>64.6</ele>
        <time>2021-05-23T09:09:01Z</time>
      </trkpt>
      <trkpt lat="42.7015110" lon="-8.6408890">
        <ele>64.6</ele>
        <time>2021-05-23T09:09:02Z</time>
      </trkpt>
      <trkpt lat="42.7015130" lon="-8.6408870">
        <ele>64.6</ele>
        <time>2021-05-23T09:09:03Z</time>
      </trkpt>
      <trkpt lat="42.7015220" lon="-8.6409080">
        <ele>64.6</ele>
        <time>2021-05-23T09:09:04Z</time>
      </trkpt>
      <trkpt lat="42.7015290" lon="-8.6409180">
        <ele>64.6</ele>
        <time>2021-05-23T09:09:05Z</time>
      </trkpt>
      <trkpt lat="42.7015310" lon="-8.6409240">
        <ele>64.6</ele>
        <time>2021-05-23T09:09:06Z</time>
      </trkpt>
      <trkpt lat="42.7015340" lon="-8.6409350">
        <ele>64.6</ele>
        <time>2021-05-23T09:09:07Z</time>
      </trkpt>
      <trkpt lat="42.7015390" lon="-8.6409640">
        <ele>64.6</ele>
        <time>2021-05-23T09:09:08Z</time>
      </trkpt>
      <trkpt lat="42.7015440" lon="-8.6409710">
        <ele>64.6</ele>
        <time>2021-05-23T09:09:09Z</time>
      </trkpt>
      <trkpt lat="42.7015490" lon="-8.6409800">
        <ele>64.6</ele>
        <time>2021-05-23T09:09:10Z</time>
      </trkpt>
      <trkpt lat="42.7015600" lon="-8.6409890">
        <ele>64.7</ele>
        <time>2021-05-23T09:09:11Z</time>
      </trkpt>
      <trkpt lat="42.7015870" lon="-8.6410110">
        <ele>64.7</ele>
        <time>2021-05-23T09:09:12Z</time>
      </trkpt>
      <trkpt lat="42.7015910" lon="-8.6410210">
        <ele>64.7</ele>
        <time>2021-05-23T09:09:13Z</time>
      </trkpt>
      <trkpt lat="42.7016030" lon="-8.6410330">
        <ele>64.7</ele>
        <time>2021-05-23T09:09:14Z</time>
      </trkpt>
      <trkpt lat="42.7016160" lon="-8.6410300">
        <ele>64.8</ele>
        <time>2021-05-23T09:09:15Z</time>
      </trkpt>
      <trkpt lat="42.7016160" lon="-8.6410460">
        <ele>64.8</ele>
        <time>2021-05-23T09:09:16Z</time>
      </trkpt>
      <trkpt lat="42.7016210" lon="-8.6410530">
        <ele>64.8</ele>
        <time>2021-05-23T09:09:17Z</time>
      </trkpt>
      <trkpt lat="42.7016280" lon="-8.6410610">
        <ele>64.8</ele>
        <time>2021-05-23T09:09:18Z</time>
      </trkpt>
      <trkpt lat="42.7016340" lon="-8.6410830">
        <ele>64.9</ele>
        <time>2021-05-23T09:09:19Z</time>
      </trkpt>
      <trkpt lat="42.7016360" lon="-8.6411020">
        <ele>64.9</ele>
        <time>2021-05-23T09:09:20Z</time>
      </trkpt>
      <trkpt lat="42.7016410" lon="-8.6411250">
        <ele>64.9</ele>
        <time>2021-05-23T09:09:21Z</time>
      </trkpt>
      <trkpt lat="42.7016420" lon="-8.6411530">
        <ele>65.0</ele>
        <time>2021-05-23T09:09:22Z</time>
      </trkpt>
      <trkpt lat="42.7016420" lon="-8.6411670">
        <ele>65.0</ele>
        <time>2021-05-23T09:09:23Z</time>
      </trkpt>
      <trkpt lat="42.7016410" lon="-8.6411800">
        <ele>65.1</ele>
        <time>2021-05-23T09:09:24Z</time>
      </trkpt>
      <trkpt lat="42.7016410" lon="-8.6411950">
        <ele>65.1</ele>
        <time>2021-05-23T09:09:25Z</time>
      </trkpt>
      <trkpt lat="42.7016390" lon="-8.6412120">
        <ele>65.1</ele>
        <time>2021-05-23T09:09:26Z</time>
      </trkpt>
      <trkpt lat="42.7016330" lon="-8.6412200">
        <ele>65.2</ele>
        <time>2021-05-23T09:09:27Z</time>
      </trkpt>
      <trkpt lat="42.7016330" lon="-8.6412410">
        <ele>65.2</ele>
        <time>2021-05-23T09:09:28Z</time>
      </trkpt>
      <trkpt lat="42.7016330" lon="-8.6412570">
        <ele>65.2</ele>
        <time>2021-05-23T09:09:29Z</time>
      </trkpt>
      <trkpt lat="42.7016320" lon="-8.6412740">
        <ele>65.3</ele>
        <time>2021-05-23T09:09:30Z</time>
      </trkpt>
      <trkpt lat="42.7016300" lon="-8.6412900">
        <ele>65.3</ele>
        <time>2021-05-23T09:09:31Z</time>
      </trkpt>
      <trkpt lat="42.7016290" lon="-8.6413030">
        <ele>65.4</ele>
        <time>2021-05-23T09:09:32Z</time>
      </trkpt>
      <trkpt lat="42.7016280" lon="-8.6413320">
        <ele>65.5</ele>
        <time>2021-05-23T09:09:33Z</time>
      </trkpt>
      <trkpt lat="42.7016260" lon="-8.6413450">
        <ele>65.5</ele>
        <time>2021-05-23T09:09:34Z</time>
      </trkpt>
      <trkpt lat="42.7016230" lon="-8.6413580">
        <ele>65.5</ele>
        <time>2021-05-23T09:09:35Z</time>
      </trkpt>
      <trkpt lat="42.7016160" lon="-8.6413770">
        <ele>65.6</ele>
        <time>2021-05-23T09:09:36Z</time>
      </trkpt>
      <trkpt lat="42.7016140" lon="-8.6413890">
        <ele>65.7</ele>
        <time>2021-05-23T09:09:37Z</time>
      </trkpt>
      <trkpt lat="42.7016110" lon="-8.6414020">
        <ele>65.7</ele>
        <time>2021-05-23T09:09:38Z</time>
      </trkpt>
      <trkpt lat="42.7016080" lon="-8.6414140">
        <ele>65.7</ele>
        <time>2021-05-23T09:09:39Z</time>
      </trkpt>
      <trkpt lat="42.7016040" lon="-8.6414310">
        <ele>65.8</ele>
        <time>2021-05-23T09:09:40Z</time>
      </trkpt>
      <trkpt lat="42.7016020" lon="-8.6414460">
        <ele>65.9</ele>
        <time>2021-05-23T09:09:41Z</time>
      </trkpt>
      <trkpt lat="42.7016040" lon="-8.6414590">
        <ele>65.9</ele>
        <time>2021-05-23T09:09:42Z</time>
      </trkpt>
      <trkpt lat="42.7016060" lon="-8.6414760">
        <ele>66.0</ele>
        <time>2021-05-23T09:09:43Z</time>
      </trkpt>
      <trkpt lat="42.7016040" lon="-8.6414840">
        <ele>66.0</ele>
        <time>2021-05-23T09:09:44Z</time>
      </trkpt>
      <trkpt lat="42.7016030" lon="-8.6415000">
        <ele>66.0</ele>
        <time>2021-05-23T09:09:45Z</time>
      </trkpt>
      <trkpt lat="42.7016010" lon="-8.6415170">
        <ele>66.1</ele>
        <time>2021-05-23T09:09:46Z</time>
      </trkpt>
      <trkpt lat="42.7015950" lon="-8.6415380">
        <ele>66.2</ele>
        <time>2021-05-23T09:09:47Z</time>
      </trkpt>
      <trkpt lat="42.7015910" lon="-8.6415540">
        <ele>66.2</ele>
        <time>2021-05-23T09:09:48Z</time>
      </trkpt>
      <trkpt lat="42.7015980" lon="-8.6415810">
        <ele>66.3</ele>
        <time>2021-05-23T09:09:49Z</time>
      </trkpt>
      <trkpt lat="42.7015850" lon="-8.6415980">
        <ele>66.4</ele>
        <time>2021-05-23T09:09:50Z</time>
      </trkpt>
      <trkpt lat="42.7015820" lon="-8.6416100">
        <ele>66.5</ele>
        <time>2021-05-23T09:09:51Z</time>
      </trkpt>
      <trkpt lat="42.7015790" lon="-8.6416230">
        <ele>66.5</ele>
        <time>2021-05-23T09:09:52Z</time>
      </trkpt>
      <trkpt lat="42.7015730" lon="-8.6416280">
        <ele>66.6</ele>
        <time>2021-05-23T09:09:53Z</time>
      </trkpt>
      <trkpt lat="42.7015700" lon="-8.6416310">
        <ele>66.6</ele>
        <time>2021-05-23T09:09:54Z</time>
      </trkpt>
      <trkpt lat="42.7015630" lon="-8.6416480">
        <ele>66.7</ele>
        <time>2021-05-23T09:09:55Z</time>
      </trkpt>
      <trkpt lat="42.7015590" lon="-8.6416630">
        <ele>66.7</ele>
        <time>2021-05-23T09:09:56Z</time>
      </trkpt>
      <trkpt lat="42.7015530" lon="-8.6416720">
        <ele>66.7</ele>
        <time>2021-05-23T09:09:57Z</time>
      </trkpt>
      <trkpt lat="42.7015460" lon="-8.6416890">
        <ele>66.8</ele>
        <time>2021-05-23T09:09:58Z</time>
      </trkpt>
      <trkpt lat="42.7015470" lon="-8.6417050">
        <ele>66.9</ele>
        <time>2021-05-23T09:09:59Z</time>
      </trkpt>
      <trkpt lat="42.7015450" lon="-8.6417170">
        <ele>66.9</ele>
        <time>2021-05-23T09:10:00Z</time>
      </trkpt>
      <trkpt lat="42.7015410" lon="-8.6417370">
        <ele>67.0</ele>
        <time>2021-05-23T09:10:01Z</time>
      </trkpt>
      <trkpt lat="42.7015360" lon="-8.6417500">
        <ele>67.0</ele>
        <time>2021-05-23T09:10:02Z</time>
      </trkpt>
      <trkpt lat="42.7015290" lon="-8.6417610">
        <ele>67.1</ele>
        <time>2021-05-23T09:10:03Z</time>
      </trkpt>
      <trkpt lat="42.7015280" lon="-8.6417760">
        <ele>67.1</ele>
        <time>2021-05-23T09:10:04Z</time>
      </trkpt>
      <trkpt lat="42.7015210" lon="-8.6417910">
        <ele>67.2</ele>
        <time>2021-05-23T09:10:05Z</time>
      </trkpt>
      <trkpt lat="42.7015230" lon="-8.6418210">
        <ele>67.3</ele>
        <time>2021-05-23T09:10:06Z</time>
      </trkpt>
      <trkpt lat="42.7015130" lon="-8.6418340">
        <ele>67.3</ele>
        <time>2021-05-23T09:10:07Z</time>
      </trkpt>
      <trkpt lat="42.7015020" lon="-8.6418600">
        <ele>67.4</ele>
        <time>2021-05-23T09:10:08Z</time>
      </trkpt>
      <trkpt lat="42.7014900" lon="-8.6418690">
        <ele>67.5</ele>
        <time>2021-05-23T09:10:09Z</time>
      </trkpt>
      <trkpt lat="42.7014910" lon="-8.6418820">
        <ele>67.5</ele>
        <time>2021-05-23T09:10:10Z</time>
      </trkpt>
      <trkpt lat="42.7014860" lon="-8.6418950">
        <ele>67.5</ele>
        <time>2021-05-23T09:10:11Z</time>
      </trkpt>
      <trkpt lat="42.7014820" lon="-8.6419080">
        <ele>67.6</ele>
        <time>2021-05-23T09:10:12Z</time>
      </trkpt>
      <trkpt lat="42.7014850" lon="-8.6419370">
        <ele>67.7</ele>
        <time>2021-05-23T09:10:13Z</time>
      </trkpt>
      <trkpt lat="42.7014870" lon="-8.6419550">
        <ele>67.7</ele>
        <time>2021-05-23T09:10:14Z</time>
      </trkpt>
      <trkpt lat="42.7014880" lon="-8.6419730">
        <ele>67.8</ele>
        <time>2021-05-23T09:10:15Z</time>
      </trkpt>
      <trkpt lat="42.7014960" lon="-8.6419980">
        <ele>67.8</ele>
        <time>2021-05-23T09:10:16Z</time>
      </trkpt>
      <trkpt lat="42.7014990" lon="-8.6420090">
        <ele>67.9</ele>
        <time>2021-05-23T09:10:17Z</time>
      </trkpt>
      <trkpt lat="42.7015020" lon="-8.6420200">
        <ele>67.9</ele>
        <time>2021-05-23T09:10:18Z</time>
      </trkpt>
      <trkpt lat="42.7015110" lon="-8.6420430">
        <ele>68.0</ele>
        <time>2021-05-23T09:10:19Z</time>
      </trkpt>
      <trkpt lat="42.7015130" lon="-8.6420510">
        <ele>68.0</ele>
        <time>2021-05-23T09:10:20Z</time>
      </trkpt>
      <trkpt lat="42.7015140" lon="-8.6420600">
        <ele>68.0</ele>
        <time>2021-05-23T09:10:21Z</time>
      </trkpt>
      <trkpt lat="42.7015160" lon="-8.6420680">
        <ele>68.0</ele>
        <time>2021-05-23T09:10:22Z</time>
      </trkpt>
      <trkpt lat="42.7015220" lon="-8.6420910">
        <ele>68.1</ele>
        <time>2021-05-23T09:10:23Z</time>
      </trkpt>
      <trkpt lat="42.7015310" lon="-8.6420830">
        <ele>68.1</ele>
        <time>2021-05-23T09:10:24Z</time>
      </trkpt>
      <trkpt lat="42.7015410" lon="-8.6421010">
        <ele>68.2</ele>
        <time>2021-05-23T09:10:25Z</time>
      </trkpt>
      <trkpt lat="42.7015470" lon="-8.6421110">
        <ele>68.2</ele>
        <time>2021-05-23T09:10:26Z</time>
      </trkpt>
      <trkpt lat="42.7015450" lon="-8.6421150">
        <ele>68.3</ele>
        <time>2021-05-23T09:10:27Z</time>
      </trkpt>
      <trkpt lat="42.7015430" lon="-8.6421140">
        <ele>68.3</ele>
        <time>2021-05-23T09:10:28Z</time>
      </trkpt>
      <trkpt lat="42.7015490" lon="-8.6421170">
        <ele>68.3</ele>
        <time>2021-05-23T09:10:29Z</time>
      </trkpt>
      <trkpt lat="42.7015640" lon="-8.6421350">
        <ele>68.4</ele>
        <time>2021-05-23T09:10:30Z</time>
      </trkpt>
      <trkpt lat="42.7015740" lon="-8.6421360">
        <ele>68.4</ele>
        <time>2021-05-23T09:10:31Z</time>
      </trkpt>
      <trkpt lat="42.7015920" lon="-8.6421550">
        <ele>68.5</ele>
        <time>2021-05-23T09:10:32Z</time>
      </trkpt>
      <trkpt lat="42.7016120" lon="-8.6421580">
        <ele>68.6</ele>
        <time>2021-05-23T09:10:33Z</time>
      </trkpt>
      <trkpt lat="42.7016200" lon="-8.6421600">
        <ele>68.6</ele>
        <time>2021-05-23T09:10:34Z</time>
      </trkpt>
      <trkpt lat="42.7016290" lon="-8.6421610">
        <ele>68.7</ele>
        <time>2021-05-23T09:10:35Z</time>
      </trkpt>
      <trkpt lat="42.7016390" lon="-8.6421630">
        <ele>68.7</ele>
        <time>2021-05-23T09:10:36Z</time>
      </trkpt>
      <trkpt lat="42.7016470" lon="-8.6421630">
        <ele>68.7</ele>
        <time>2021-05-23T09:10:37Z</time>
      </trkpt>
      <trkpt lat="42.7016510" lon="-8.6421660">
        <ele>68.8</ele>
        <time>2021-05-23T09:10:38Z</time>
      </trkpt>
      <trkpt lat="42.7016520" lon="-8.6421690">
        <ele>68.8</ele>
        <time>2021-05-23T09:10:39Z</time>
      </trkpt>
      <trkpt lat="42.7016570" lon="-8.6421730">
        <ele>68.8</ele>
        <time>2021-05-23T09:10:40Z</time>
      </trkpt>
      <trkpt lat="42.7016620" lon="-8.6421800">
        <ele>68.8</ele>
        <time>2021-05-23T09:10:41Z</time>
      </trkpt>
      <trkpt lat="42.7016750" lon="-8.6422000">
        <ele>68.9</ele>
        <time>2021-05-23T09:10:42Z</time>
      </trkpt>
      <trkpt lat="42.7016810" lon="-8.6422030">
        <ele>69.0</ele>
        <time>2021-05-23T09:10:43Z</time>
      </trkpt>
      <trkpt lat="42.7016880" lon="-8.6422080">
        <ele>69.0</ele>
        <time>2021-05-23T09:10:44Z</time>
      </trkpt>
      <trkpt lat="42.7016980" lon="-8.6422150">
        <ele>69.0</ele>
        <time>2021-05-23T09:10:45Z</time>
      </trkpt>
      <trkpt lat="42.7017140" lon="-8.6422200">
        <ele>69.1</ele>
        <time>2021-05-23T09:10:46Z</time>
      </trkpt>
      <trkpt lat="42.7017270" lon="-8.6422270">
        <ele>69.2</ele>
        <time>2021-05-23T09:10:47Z</time>
      </trkpt>
      <trkpt lat="42.7017450" lon="-8.6422310">
        <ele>69.3</ele>
        <time>2021-05-23T09:10:48Z</time>
      </trkpt>
      <trkpt lat="42.7017600" lon="-8.6422410">
        <ele>69.4</ele>
        <time>2021-05-23T09:10:49Z</time>
      </trkpt>
      <trkpt lat="42.7017770" lon="-8.6422500">
        <ele>69.5</ele>
        <time>2021-05-23T09:10:50Z</time>
      </trkpt>
      <trkpt lat="42.7017940" lon="-8.6422590">
        <ele>69.6</ele>
        <time>2021-05-23T09:10:51Z</time>
      </trkpt>
      <trkpt lat="42.7018070" lon="-8.6422630">
        <ele>69.6</ele>
        <time>2021-05-23T09:10:52Z</time>
      </trkpt>
      <trkpt lat="42.7018250" lon="-8.6422820">
        <ele>69.7</ele>
        <time>2021-05-23T09:10:53Z</time>
      </trkpt>
      <trkpt lat="42.7018340" lon="-8.6422870">
        <ele>69.8</ele>
        <time>2021-05-23T09:10:54Z</time>
      </trkpt>
      <trkpt lat="42.7018530" lon="-8.6422950">
        <ele>69.9</ele>
        <time>2021-05-23T09:10:55Z</time>
      </trkpt>
      <trkpt lat="42.7018590" lon="-8.6423000">
        <ele>69.9</ele>
        <time>2021-05-23T09:10:56Z</time>
      </trkpt>
      <trkpt lat="42.7018640" lon="-8.6423040">
        <ele>70.0</ele>
        <time>2021-05-23T09:10:57Z</time>
      </trkpt>
      <trkpt lat="42.7018690" lon="-8.6423090">
        <ele>70.0</ele>
        <time>2021-05-23T09:10:58Z</time>
      </trkpt>
      <trkpt lat="42.7018790" lon="-8.6423080">
        <ele>70.0</ele>
        <time>2021-05-23T09:10:59Z</time>
      </trkpt>
      <trkpt lat="42.7018900" lon="-8.6423060">
        <ele>70.1</ele>
        <time>2021-05-23T09:11:00Z</time>
      </trkpt>
      <trkpt lat="42.7019050" lon="-8.6423060">
        <ele>70.2</ele>
        <time>2021-05-23T09:11:01Z</time>
      </trkpt>
      <trkpt lat="42.7019200" lon="-8.6423060">
        <ele>70.2</ele>
        <time>2021-05-23T09:11:02Z</time>
      </trkpt>
      <trkpt lat="42.7019350" lon="-8.6423090">
        <ele>70.3</ele>
        <time>2021-05-23T09:11:03Z</time>
      </trkpt>
      <trkpt lat="42.7019440" lon="-8.6423030">
        <ele>70.4</ele>
        <time>2021-05-23T09:11:04Z</time>
      </trkpt>
      <trkpt lat="42.7019470" lon="-8.6422950">
        <ele>70.4</ele>
        <time>2021-05-23T09:11:05Z</time>
      </trkpt>
      <trkpt lat="42.7019590" lon="-8.6422900">
        <ele>70.5</ele>
        <time>2021-05-23T09:11:06Z</time>
      </trkpt>
      <trkpt lat="42.7019670" lon="-8.6422850">
        <ele>70.5</ele>
        <time>2021-05-23T09:11:07Z</time>
      </trkpt>
      <trkpt lat="42.7019810" lon="-8.6422800">
        <ele>70.6</ele>
        <time>2021-05-23T09:11:08Z</time>
      </trkpt>
      <trkpt lat="42.7019920" lon="-8.6422720">
        <ele>70.7</ele>
        <time>2021-05-23T09:11:09Z</time>
      </trkpt>
      <trkpt lat="42.7020010" lon="-8.6422670">
        <ele>70.7</ele>
        <time>2021-05-23T09:11:10Z</time>
      </trkpt>
      <trkpt lat="42.7020170" lon="-8.6422610">
        <ele>70.8</ele>
        <time>2021-05-23T09:11:11Z</time>
      </trkpt>
      <trkpt lat="42.7020210" lon="-8.6422560">
        <ele>70.8</ele>
        <time>2021-05-23T09:11:12Z</time>
      </trkpt>
      <trkpt lat="42.7020250" lon="-8.6422500">
        <ele>70.9</ele>
        <time>2021-05-23T09:11:13Z</time>
      </trkpt>
      <trkpt lat="42.7020310" lon="-8.6422430">
        <ele>70.9</ele>
        <time>2021-05-23T09:11:14Z</time>
      </trkpt>
      <trkpt lat="42.7020340" lon="-8.6422420">
        <ele>70.9</ele>
        <time>2021-05-23T09:11:15Z</time>
      </trkpt>
      <trkpt lat="42.7020380" lon="-8.6422360">
        <ele>71.0</ele>
        <time>2021-05-23T09:11:16Z</time>
      </trkpt>
      <trkpt lat="42.7020440" lon="-8.6422350">
        <ele>71.0</ele>
        <time>2021-05-23T09:11:17Z</time>
      </trkpt>
      <trkpt lat="42.7020640" lon="-8.6422250">
        <ele>71.1</ele>
        <time>2021-05-23T09:11:18Z</time>
      </trkpt>
      <trkpt lat="42.7020760" lon="-8.6422240">
        <ele>71.2</ele>
        <time>2021-05-23T09:11:19Z</time>
      </trkpt>
      <trkpt lat="42.7020960" lon="-8.6422140">
        <ele>71.3</ele>
        <time>2021-05-23T09:11:20Z</time>
      </trkpt>
      <trkpt lat="42.7021040" lon="-8.6422100">
        <ele>71.3</ele>
        <time>2021-05-23T09:11:21Z</time>
      </trkpt>
      <trkpt lat="42.7021130" lon="-8.6422070">
        <ele>71.4</ele>
        <time>2021-05-23T09:11:22Z</time>
      </trkpt>
      <trkpt lat="42.7021290" lon="-8.6421990">
        <ele>71.5</ele>
        <time>2021-05-23T09:11:23Z</time>
      </trkpt>
      <trkpt lat="42.7021450" lon="-8.6421920">
        <ele>71.6</ele>
        <time>2021-05-23T09:11:24Z</time>
      </trkpt>
      <trkpt lat="42.7021590" lon="-8.6421930">
        <ele>71.7</ele>
        <time>2021-05-23T09:11:25Z</time>
      </trkpt>
      <trkpt lat="42.7021640" lon="-8.6421830">
        <ele>71.7</ele>
        <time>2021-05-23T09:11:26Z</time>
      </trkpt>
      <trkpt lat="42.7021740" lon="-8.6421780">
        <ele>71.8</ele>
        <time>2021-05-23T09:11:27Z</time>
      </trkpt>
      <trkpt lat="42.7021900" lon="-8.6421710">
        <ele>71.9</ele>
        <time>2021-05-23T09:11:28Z</time>
      </trkpt>
      <trkpt lat="42.7022090" lon="-8.6421650">
        <ele>72.0</ele>
        <time>2021-05-23T09:11:29Z</time>
      </trkpt>
      <trkpt lat="42.7022340" lon="-8.6421640">
        <ele>72.1</ele>
        <time>2021-05-23T09:11:30Z</time>
      </trkpt>
      <trkpt lat="42.7022410" lon="-8.6421630">
        <ele>72.2</ele>
        <time>2021-05-23T09:11:31Z</time>
      </trkpt>
      <trkpt lat="42.7022490" lon="-8.6421610">
        <ele>72.2</ele>
        <time>2021-05-23T09:11:32Z</time>
      </trkpt>
      <trkpt lat="42.7022730" lon="-8.6421680">
        <ele>72.3</ele>
        <time>2021-05-23T09:11:33Z</time>
      </trkpt>
      <trkpt lat="42.7022790" lon="-8.6421660">
        <ele>72.4</ele>
        <time>2021-05-23T09:11:34Z</time>
      </trkpt>
      <trkpt lat="42.7022940" lon="-8.6421580">
        <ele>72.4</ele>
        <time>2021-05-23T09:11:35Z</time>
      </trkpt>
      <trkpt lat="42.7023120" lon="-8.6421500">
        <ele>72.5</ele>
        <time>2021-05-23T09:11:36Z</time>
      </trkpt>
      <trkpt lat="42.7023370" lon="-8.6421400">
        <ele>72.7</ele>
        <time>2021-05-23T09:11:37Z</time>
      </trkpt>
      <trkpt lat="42.7023420" lon="-8.6421360">
        <ele>72.7</ele>
        <time>2021-05-23T09:11:38Z</time>
      </trkpt>
      <trkpt lat="42.7023480" lon="-8.6421320">
        <ele>72.7</ele>
        <time>2021-05-23T09:11:39Z</time>
      </trkpt>
      <trkpt lat="42.7023600" lon="-8.6421250">
        <ele>72.8</ele>
        <time>2021-05-23T09:11:40Z</time>
      </trkpt>
      <trkpt lat="42.7023730" lon="-8.6421170">
        <ele>72.9</ele>
        <time>2021-05-23T09:11:41Z</time>
      </trkpt>
      <trkpt lat="42.7023730" lon="-8.6421140">
        <ele>72.9</ele>
        <time>2021-05-23T09:11:42Z</time>
      </trkpt>
      <trkpt lat="42.7023770" lon="-8.6421150">
        <ele>72.9</ele>
        <time>2021-05-23T09:11:43Z</time>
      </trkpt>
      <trkpt lat="42.7023860" lon="-8.6421140">
        <ele>73.0</ele>
        <time>2021-05-23T09:11:44Z</time>
      </trkpt>
      <trkpt lat="42.7023860" lon="-8.6421130">
        <ele>73.0</ele>
        <time>2021-05-23T09:11:45Z</time>
      </trkpt>
      <trkpt lat="42.7023910" lon="-8.6421100">
        <ele>73.0</ele>
        <time>2021-05-23T09:11:46Z</time>
      </trkpt>
      <trkpt lat="42.7023960" lon="-8.6421080">
        <ele>73.0</ele>
        <time>2021-05-23T09:11:47Z</time>
      </trkpt>
      <trkpt lat="42.7024060" lon="-8.6421100">
        <ele>73.0</ele>
        <time>2021-05-23T09:11:48Z</time>
      </trkpt>
      <trkpt lat="42.7024090" lon="-8.6421030">
        <ele>73.1</ele>
        <time>2021-05-23T09:11:49Z</time>
      </trkpt>
      <trkpt lat="42.7024250" lon="-8.6420950">
        <ele>73.1</ele>
        <time>2021-05-23T09:11:50Z</time>
      </trkpt>
      <trkpt lat="42.7024330" lon="-8.6420920">
        <ele>73.1</ele>
        <time>2021-05-23T09:11:51Z</time>
      </trkpt>
      <trkpt lat="42.7024370" lon="-8.6420920">
        <ele>73.1</ele>
        <time>2021-05-23T09:11:52Z</time>
      </trkpt>
      <trkpt lat="42.7024510" lon="-8.6420860">
        <ele>73.1</ele>
        <time>2021-05-23T09:11:53Z</time>
      </trkpt>
      <trkpt lat="42.7024610" lon="-8.6420850">
        <ele>73.1</ele>
        <time>2021-05-23T09:11:54Z</time>
      </trkpt>
      <trkpt lat="42.7024680" lon="-8.6420840">
        <ele>73.1</ele>
        <time>2021-05-23T09:11:55Z</time>
      </trkpt>
      <trkpt lat="42.7024810" lon="-8.6420830">
        <ele>73.1</ele>
        <time>2021-05-23T09:11:56Z</time>
      </trkpt>
      <trkpt lat="42.7024940" lon="-8.6420880">
        <ele>73.1</ele>
        <time>2021-05-23T09:11:57Z</time>
      </trkpt>
      <trkpt lat="42.7025070" lon="-8.6420830">
        <ele>73.1</ele>
        <time>2021-05-23T09:11:58Z</time>
      </trkpt>
      <trkpt lat="42.7025130" lon="-8.6420840">
        <ele>73.1</ele>
        <time>2021-05-23T09:11:59Z</time>
      </trkpt>
      <trkpt lat="42.7025240" lon="-8.6420900">
        <ele>73.1</ele>
        <time>2021-05-23T09:12:00Z</time>
      </trkpt>
      <trkpt lat="42.7025310" lon="-8.6420890">
        <ele>73.2</ele>
        <time>2021-05-23T09:12:01Z</time>
      </trkpt>
      <trkpt lat="42.7025400" lon="-8.6420890">
        <ele>73.2</ele>
        <time>2021-05-23T09:12:02Z</time>
      </trkpt>
      <trkpt lat="42.7025530" lon="-8.6420860">
        <ele>73.2</ele>
        <time>2021-05-23T09:12:03Z</time>
      </trkpt>
      <trkpt lat="42.7025630" lon="-8.6420830">
        <ele>73.2</ele>
        <time>2021-05-23T09:12:04Z</time>
      </trkpt>
      <trkpt lat="42.7025690" lon="-8.6420810">
        <ele>73.2</ele>
        <time>2021-05-23T09:12:05Z</time>
      </trkpt>
      <trkpt lat="42.7025760" lon="-8.6420820">
        <ele>73.2</ele>
        <time>2021-05-23T09:12:06Z</time>
      </trkpt>
      <trkpt lat="42.7025850" lon="-8.6420840">
        <ele>73.2</ele>
        <time>2021-05-23T09:12:07Z</time>
      </trkpt>
      <trkpt lat="42.7025930" lon="-8.6420780">
        <ele>73.2</ele>
        <time>2021-05-23T09:12:08Z</time>
      </trkpt>
      <trkpt lat="42.7026040" lon="-8.6420780">
        <ele>73.2</ele>
        <time>2021-05-23T09:12:09Z</time>
      </trkpt>
      <trkpt lat="42.7026160" lon="-8.6420820">
        <ele>73.2</ele>
        <time>2021-05-23T09:12:10Z</time>
      </trkpt>
      <trkpt lat="42.7026320" lon="-8.6420840">
        <ele>73.2</ele>
        <time>2021-05-23T09:12:11Z</time>
      </trkpt>
      <trkpt lat="42.7026400" lon="-8.6420840">
        <ele>73.2</ele>
        <time>2021-05-23T09:12:12Z</time>
      </trkpt>
      <trkpt lat="42.7026490" lon="-8.6420850">
        <ele>73.2</ele>
        <time>2021-05-23T09:12:13Z</time>
      </trkpt>
      <trkpt lat="42.7026560" lon="-8.6420890">
        <ele>73.2</ele>
        <time>2021-05-23T09:12:14Z</time>
      </trkpt>
      <trkpt lat="42.7026700" lon="-8.6420910">
        <ele>73.2</ele>
        <time>2021-05-23T09:12:15Z</time>
      </trkpt>
      <trkpt lat="42.7026790" lon="-8.6420920">
        <ele>73.2</ele>
        <time>2021-05-23T09:12:16Z</time>
      </trkpt>
      <trkpt lat="42.7026870" lon="-8.6420920">
        <ele>73.2</ele>
        <time>2021-05-23T09:12:17Z</time>
      </trkpt>
      <trkpt lat="42.7026920" lon="-8.6420900">
        <ele>73.2</ele>
        <time>2021-05-23T09:12:18Z</time>
      </trkpt>
      <trkpt lat="42.7027120" lon="-8.6420970">
        <ele>73.2</ele>
        <time>2021-05-23T09:12:19Z</time>
      </trkpt>
      <trkpt lat="42.7027190" lon="-8.6420970">
        <ele>73.2</ele>
        <time>2021-05-23T09:12:20Z</time>
      </trkpt>
      <trkpt lat="42.7027290" lon="-8.6420970">
        <ele>73.2</ele>
        <time>2021-05-23T09:12:21Z</time>
      </trkpt>
      <trkpt lat="42.7027350" lon="-8.6420930">
        <ele>73.2</ele>
        <time>2021-05-23T09:12:22Z</time>
      </trkpt>
      <trkpt lat="42.7027420" lon="-8.6420930">
        <ele>73.2</ele>
        <time>2021-05-23T09:12:23Z</time>
      </trkpt>
      <trkpt lat="42.7027650" lon="-8.6421020">
        <ele>73.2</ele>
        <time>2021-05-23T09:12:24Z</time>
      </trkpt>
      <trkpt lat="42.7027720" lon="-8.6421060">
        <ele>73.2</ele>
        <time>2021-05-23T09:12:25Z</time>
      </trkpt>
      <trkpt lat="42.7027800" lon="-8.6421100">
        <ele>73.2</ele>
        <time>2021-05-23T09:12:26Z</time>
      </trkpt>
      <trkpt lat="42.7028000" lon="-8.6421170">
        <ele>73.2</ele>
        <time>2021-05-23T09:12:27Z</time>
      </trkpt>
      <trkpt lat="42.7028100" lon="-8.6421210">
        <ele>73.2</ele>
        <time>2021-05-23T09:12:28Z</time>
      </trkpt>
      <trkpt lat="42.7028190" lon="-8.6421250">
        <ele>73.1</ele>
        <time>2021-05-23T09:12:29Z</time>
      </trkpt>
      <trkpt lat="42.7028360" lon="-8.6421260">
        <ele>73.1</ele>
        <time>2021-05-23T09:12:30Z</time>
      </trkpt>
      <trkpt lat="42.7028410" lon="-8.6421280">
        <ele>73.1</ele>
        <time>2021-05-23T09:12:31Z</time>
      </trkpt>
      <trkpt lat="42.7028520" lon="-8.6421270">
        <ele>73.1</ele>
        <time>2021-05-23T09:12:32Z</time>
      </trkpt>
      <trkpt lat="42.7028710" lon="-8.6421250">
        <ele>73.1</ele>
        <time>2021-05-23T09:12:33Z</time>
      </trkpt>
      <trkpt lat="42.7028720" lon="-8.6421310">
        <ele>73.1</ele>
        <time>2021-05-23T09:12:34Z</time>
      </trkpt>
      <trkpt lat="42.7028850" lon="-8.6421290">
        <ele>73.1</ele>
        <time>2021-05-23T09:12:35Z</time>
      </trkpt>
      <trkpt lat="42.7028970" lon="-8.6421340">
        <ele>73.1</ele>
        <time>2021-05-23T09:12:36Z</time>
      </trkpt>
      <trkpt lat="42.7029080" lon="-8.6421410">
        <ele>73.1</ele>
        <time>2021-05-23T09:12:37Z</time>
      </trkpt>
      <trkpt lat="42.7029180" lon="-8.6421410">
        <ele>73.1</ele>
        <time>2021-05-23T09:12:38Z</time>
      </trkpt>
      <trkpt lat="42.7029370" lon="-8.6421420">
        <ele>73.1</ele>
        <time>2021-05-23T09:12:39Z</time>
      </trkpt>
      <trkpt lat="42.7029390" lon="-8.6421370">
        <ele>73.1</ele>
        <time>2021-05-23T09:12:40Z</time>
      </trkpt>
      <trkpt lat="42.7029420" lon="-8.6421360">
        <ele>73.1</ele>
        <time>2021-05-23T09:12:41Z</time>
      </trkpt>
      <trkpt lat="42.7029500" lon="-8.6421360">
        <ele>73.1</ele>
        <time>2021-05-23T09:12:42Z</time>
      </trkpt>
      <trkpt lat="42.7029630" lon="-8.6421370">
        <ele>73.1</ele>
        <time>2021-05-23T09:12:43Z</time>
      </trkpt>
      <trkpt lat="42.7029790" lon="-8.6421410">
        <ele>73.1</ele>
        <time>2021-05-23T09:12:44Z</time>
      </trkpt>
      <trkpt lat="42.7029910" lon="-8.6421490">
        <ele>73.1</ele>
        <time>2021-05-23T09:12:45Z</time>
      </trkpt>
      <trkpt lat="42.7030070" lon="-8.6421560">
        <ele>73.0</ele>
        <time>2021-05-23T09:12:46Z</time>
      </trkpt>
      <trkpt lat="42.7030210" lon="-8.6421560">
        <ele>73.0</ele>
        <time>2021-05-23T09:12:47Z</time>
      </trkpt>
      <trkpt lat="42.7030260" lon="-8.6421580">
        <ele>73.0</ele>
        <time>2021-05-23T09:12:48Z</time>
      </trkpt>
      <trkpt lat="42.7030310" lon="-8.6421540">
        <ele>73.0</ele>
        <time>2021-05-23T09:12:49Z</time>
      </trkpt>
      <trkpt lat="42.7030380" lon="-8.6421560">
        <ele>73.0</ele>
        <time>2021-05-23T09:12:50Z</time>
      </trkpt>
      <trkpt lat="42.7030480" lon="-8.6421580">
        <ele>73.0</ele>
        <time>2021-05-23T09:12:51Z</time>
      </trkpt>
      <trkpt lat="42.7030590" lon="-8.6421510">
        <ele>73.0</ele>
        <time>2021-05-23T09:12:52Z</time>
      </trkpt>
      <trkpt lat="42.7030700" lon="-8.6421580">
        <ele>73.0</ele>
        <time>2021-05-23T09:12:53Z</time>
      </trkpt>
      <trkpt lat="42.7030730" lon="-8.6421630">
        <ele>73.0</ele>
        <time>2021-05-23T09:12:54Z</time>
      </trkpt>
      <trkpt lat="42.7030900" lon="-8.6421720">
        <ele>73.0</ele>
        <time>2021-05-23T09:12:55Z</time>
      </trkpt>
      <trkpt lat="42.7030970" lon="-8.6421740">
        <ele>73.0</ele>
        <time>2021-05-23T09:12:56Z</time>
      </trkpt>
      <trkpt lat="42.7031080" lon="-8.6421800">
        <ele>73.0</ele>
        <time>2021-05-23T09:12:57Z</time>
      </trkpt>
      <trkpt lat="42.7031100" lon="-8.6421700">
        <ele>73.0</ele>
        <time>2021-05-23T09:12:58Z</time>
      </trkpt>
      <trkpt lat="42.7031250" lon="-8.6421750">
        <ele>73.0</ele>
        <time>2021-05-23T09:12:59Z</time>
      </trkpt>
      <trkpt lat="42.7031390" lon="-8.6421780">
        <ele>73.0</ele>
        <time>2021-05-23T09:13:00Z</time>
      </trkpt>
      <trkpt lat="42.7031450" lon="-8.6421820">
        <ele>73.0</ele>
        <time>2021-05-23T09:13:01Z</time>
      </trkpt>
      <trkpt lat="42.7031580" lon="-8.6421880">
        <ele>73.0</ele>
        <time>2021-05-23T09:13:02Z</time>
      </trkpt>
      <trkpt lat="42.7031670" lon="-8.6421850">
        <ele>73.0</ele>
        <time>2021-05-23T09:13:03Z</time>
      </trkpt>
      <trkpt lat="42.7031770" lon="-8.6421870">
        <ele>73.0</ele>
        <time>2021-05-23T09:13:04Z</time>
      </trkpt>
      <trkpt lat="42.7031850" lon="-8.6421870">
        <ele>73.0</ele>
        <time>2021-05-23T09:13:05Z</time>
      </trkpt>
      <trkpt lat="42.7032040" lon="-8.6421920">
        <ele>73.0</ele>
        <time>2021-05-23T09:13:06Z</time>
      </trkpt>
      <trkpt lat="42.7032100" lon="-8.6421950">
        <ele>73.0</ele>
        <time>2021-05-23T09:13:07Z</time>
      </trkpt>
      <trkpt lat="42.7032160" lon="-8.6421970">
        <ele>73.0</ele>
        <time>2021-05-23T09:13:08Z</time>
      </trkpt>
      <trkpt lat="42.7032220" lon="-8.6422000">
        <ele>73.0</ele>
        <time>2021-05-23T09:13:09Z</time>
      </trkpt>
      <trkpt lat="42.7032320" lon="-8.6422020">
        <ele>73.0</ele>
        <time>2021-05-23T09:13:10Z</time>
      </trkpt>
      <trkpt lat="42.7032420" lon="-8.6422100">
        <ele>73.0</ele>
        <time>2021-05-23T09:13:11Z</time>
      </trkpt>
      <trkpt lat="42.7032500" lon="-8.6422100">
        <ele>73.0</ele>
        <time>2021-05-23T09:13:12Z</time>
      </trkpt>
      <trkpt lat="42.7032560" lon="-8.6422070">
        <ele>73.0</ele>
        <time>2021-05-23T09:13:13Z</time>
      </trkpt>
      <trkpt lat="42.7032670" lon="-8.6422090">
        <ele>73.0</ele>
        <time>2021-05-23T09:13:14Z</time>
      </trkpt>
      <trkpt lat="42.7032750" lon="-8.6422100">
        <ele>73.0</ele>
        <time>2021-05-23T09:13:15Z</time>
      </trkpt>
      <trkpt lat="42.7032830" lon="-8.6422120">
        <ele>73.0</ele>
        <time>2021-05-23T09:13:16Z</time>
      </trkpt>
      <trkpt lat="42.7032940" lon="-8.6422080">
        <ele>73.0</ele>
        <time>2021-05-23T09:13:17Z</time>
      </trkpt>
      <trkpt lat="42.7033070" lon="-8.6422150">
        <ele>73.0</ele>
        <time>2021-05-23T09:13:18Z</time>
      </trkpt>
      <trkpt lat="42.7033180" lon="-8.6422120">
        <ele>73.0</ele>
        <time>2021-05-23T09:13:19Z</time>
      </trkpt>
      <trkpt lat="42.7033210" lon="-8.6422120">
        <ele>73.0</ele>
        <time>2021-05-23T09:13:20Z</time>
      </trkpt>
      <trkpt lat="42.7033220" lon="-8.6422100">
        <ele>73.0</ele>
        <time>2021-05-23T09:13:21Z</time>
      </trkpt>
      <trkpt lat="42.7033220" lon="-8.6422080">
        <ele>73.0</ele>
        <time>2021-05-23T09:13:22Z</time>
      </trkpt>
      <trkpt lat="42.7033350" lon="-8.6422110">
        <ele>73.0</ele>
        <time>2021-05-23T09:13:23Z</time>
      </trkpt>
      <trkpt lat="42.7033410" lon="-8.6422050">
        <ele>73.0</ele>
        <time>2021-05-23T09:13:24Z</time>
      </trkpt>
      <trkpt lat="42.7033510" lon="-8.6422080">
        <ele>73.0</ele>
        <time>2021-05-23T09:13:25Z</time>
      </trkpt>
      <trkpt lat="42.7033680" lon="-8.6422130">
        <ele>73.0</ele>
        <time>2021-05-23T09:13:26Z</time>
      </trkpt>
      <trkpt lat="42.7033740" lon="-8.6422130">
        <ele>73.0</ele>
        <time>2021-05-23T09:13:27Z</time>
      </trkpt>
      <trkpt lat="42.7033810" lon="-8.6422140">
        <ele>73.0</ele>
        <time>2021-05-23T09:13:28Z</time>
      </trkpt>
      <trkpt lat="42.7033870" lon="-8.6422140">
        <ele>73.0</ele>
        <time>2021-05-23T09:13:29Z</time>
      </trkpt>
      <trkpt lat="42.7034000" lon="-8.6422130">
        <ele>73.1</ele>
        <time>2021-05-23T09:13:30Z</time>
      </trkpt>
      <trkpt lat="42.7034170" lon="-8.6422140">
        <ele>73.1</ele>
        <time>2021-05-23T09:13:31Z</time>
      </trkpt>
      <trkpt lat="42.7034250" lon="-8.6422170">
        <ele>73.1</ele>
        <time>2021-05-23T09:13:32Z</time>
      </trkpt>
      <trkpt lat="42.7034300" lon="-8.6422180">
        <ele>73.1</ele>
        <time>2021-05-23T09:13:33Z</time>
      </trkpt>
      <trkpt lat="42.7034330" lon="-8.6422180">
        <ele>73.1</ele>
        <time>2021-05-23T09:13:34Z</time>
      </trkpt>
      <trkpt lat="42.7034450" lon="-8.6422180">
        <ele>73.1</ele>
        <time>2021-05-23T09:13:35Z</time>
      </trkpt>
      <trkpt lat="42.7034570" lon="-8.6422220">
        <ele>73.1</ele>
        <time>2021-05-23T09:13:36Z</time>
      </trkpt>
      <trkpt lat="42.7034620" lon="-8.6422210">
        <ele>73.1</ele>
        <time>2021-05-23T09:13:37Z</time>
      </trkpt>
      <trkpt lat="42.7034700" lon="-8.6422180">
        <ele>73.1</ele>
        <time>2021-05-23T09:13:38Z</time>
      </trkpt>
      <trkpt lat="42.7034740" lon="-8.6422160">
        <ele>73.1</ele>
        <time>2021-05-23T09:13:39Z</time>
      </trkpt>
      <trkpt lat="42.7034820" lon="-8.6422190">
        <ele>73.1</ele>
        <time>2021-05-23T09:13:40Z</time>
      </trkpt>
      <trkpt lat="42.7034950" lon="-8.6422160">
        <ele>73.1</ele>
        <time>2021-05-23T09:13:41Z</time>
      </trkpt>
      <trkpt lat="42.7034980" lon="-8.6422180">
        <ele>73.1</ele>
        <time>2021-05-23T09:13:42Z</time>
      </trkpt>
      <trkpt lat="42.7035090" lon="-8.6422220">
        <ele>73.1</ele>
        <time>2021-05-23T09:13:43Z</time>
      </trkpt>
      <trkpt lat="42.7035110" lon="-8.6422270">
        <ele>73.1</ele>
        <time>2021-05-23T09:13:44Z</time>
      </trkpt>
      <trkpt lat="42.7035220" lon="-8.6422290">
        <ele>73.1</ele>
        <time>2021-05-23T09:13:45Z</time>
      </trkpt>
      <trkpt lat="42.7035320" lon="-8.6422370">
        <ele>73.2</ele>
        <time>2021-05-23T09:13:46Z</time>
      </trkpt>
      <trkpt lat="42.7035410" lon="-8.6422330">
        <ele>73.2</ele>
        <time>2021-05-23T09:13:47Z</time>
      </trkpt>
      <trkpt lat="42.7035560" lon="-8.6422330">
        <ele>73.2</ele>
        <time>2021-05-23T09:13:48Z</time>
      </trkpt>
      <trkpt lat="42.7035730" lon="-8.6422340">
        <ele>73.2</ele>
        <time>2021-05-23T09:13:49Z</time>
      </trkpt>
      <trkpt lat="42.7035880" lon="-8.6422400">
        <ele>73.2</ele>
        <time>2021-05-23T09:13:50Z</time>
      </trkpt>
      <trkpt lat="42.7035930" lon="-8.6422410">
        <ele>73.2</ele>
        <time>2021-05-23T09:13:51Z</time>
      </trkpt>
      <trkpt lat="42.7036010" lon="-8.6422420">
        <ele>73.2</ele>
        <time>2021-05-23T09:13:52Z</time>
      </trkpt>
      <trkpt lat="42.7036140" lon="-8.6422470">
        <ele>73.2</ele>
        <time>2021-05-23T09:13:53Z</time>
      </trkpt>
      <trkpt lat="42.7036220" lon="-8.6422450">
        <ele>73.2</ele>
        <time>2021-05-23T09:13:54Z</time>
      </trkpt>
      <trkpt lat="42.7036300" lon="-8.6422470">
        <ele>73.2</ele>
        <time>2021-05-23T09:13:55Z</time>
      </trkpt>
      <trkpt lat="42.7036340" lon="-8.6422460">
        <ele>73.2</ele>
        <time>2021-05-23T09:13:56Z</time>
      </trkpt>
      <trkpt lat="42.7036410" lon="-8.6422470">
        <ele>73.2</ele>
        <time>2021-05-23T09:13:57Z</time>
      </trkpt>
      <trkpt lat="42.7036470" lon="-8.6422540">
        <ele>73.2</ele>
        <time>2021-05-23T09:13:58Z</time>
      </trkpt>
      <trkpt lat="42.7036580" lon="-8.6422540">
        <ele>73.2</ele>
        <time>2021-05-23T09:13:59Z</time>
      </trkpt>
      <trkpt lat="42.7036680" lon="-8.6422490">
        <ele>73.2</ele>
        <time>2021-05-23T09:14:00Z</time>
      </trkpt>
      <trkpt lat="42.7036790" lon="-8.6422530">
        <ele>73.2</ele>
        <time>2021-05-23T09:14:01Z</time>
      </trkpt>
      <trkpt lat="42.7036850" lon="-8.6422570">
        <ele>73.3</ele>
        <time>2021-05-23T09:14:02Z</time>
      </trkpt>
      <trkpt lat="42.7036990" lon="-8.6422550">
        <ele>73.3</ele>
        <time>2021-05-23T09:14:03Z</time>
      </trkpt>
      <trkpt lat="42.7037080" lon="-8.6422560">
        <ele>73.3</ele>
        <time>2021-05-23T09:14:04Z</time>
      </trkpt>
      <trkpt lat="42.7037200" lon="-8.6422570">
        <ele>73.3</ele>
        <time>2021-05-23T09:14:05Z</time>
      </trkpt>
      <trkpt lat="42.7037310" lon="-8.6422560">
        <ele>73.3</ele>
        <time>2021-05-23T09:14:06Z</time>
      </trkpt>
      <trkpt lat="42.7037470" lon="-8.6422580">
        <ele>73.2</ele>
        <time>2021-05-23T09:14:07Z</time>
      </trkpt>
      <trkpt lat="42.7037560" lon="-8.6422580">
        <ele>73.2</ele>
        <time>2021-05-23T09:14:08Z</time>
      </trkpt>
      <trkpt lat="42.7037580" lon="-8.6422600">
        <ele>73.2</ele>
        <time>2021-05-23T09:14:09Z</time>
      </trkpt>
      <trkpt lat="42.7037730" lon="-8.6422700">
        <ele>73.2</ele>
        <time>2021-05-23T09:14:10Z</time>
      </trkpt>
      <trkpt lat="42.7037850" lon="-8.6422690">
        <ele>73.2</ele>
        <time>2021-05-23T09:14:11Z</time>
      </trkpt>
      <trkpt lat="42.7037970" lon="-8.6422720">
        <ele>73.2</ele>
        <time>2021-05-23T09:14:12Z</time>
      </trkpt>
      <trkpt lat="42.7038050" lon="-8.6422670">
        <ele>73.2</ele>
        <time>2021-05-23T09:14:13Z</time>
      </trkpt>
      <trkpt lat="42.7038230" lon="-8.6422690">
        <ele>73.2</ele>
        <time>2021-05-23T09:14:14Z</time>
      </trkpt>
      <trkpt lat="42.7038370" lon="-8.6422700">
        <ele>73.1</ele>
        <time>2021-05-23T09:14:15Z</time>
      </trkpt>
      <trkpt lat="42.7038500" lon="-8.6422720">
        <ele>73.1</ele>
        <time>2021-05-23T09:14:16Z</time>
      </trkpt>
      <trkpt lat="42.7038640" lon="-8.6422810">
        <ele>73.1</ele>
        <time>2021-05-23T09:14:17Z</time>
      </trkpt>
      <trkpt lat="42.7038690" lon="-8.6422840">
        <ele>73.1</ele>
        <time>2021-05-23T09:14:18Z</time>
      </trkpt>
      <trkpt lat="42.7038740" lon="-8.6422880">
        <ele>73.0</ele>
        <time>2021-05-23T09:14:19Z</time>
      </trkpt>
      <trkpt lat="42.7038790" lon="-8.6422910">
        <ele>73.0</ele>
        <time>2021-05-23T09:14:20Z</time>
      </trkpt>
      <trkpt lat="42.7038840" lon="-8.6422940">
        <ele>73.0</ele>
        <time>2021-05-23T09:14:21Z</time>
      </trkpt>
      <trkpt lat="42.7038910" lon="-8.6422970">
        <ele>73.0</ele>
        <time>2021-05-23T09:14:22Z</time>
      </trkpt>
      <trkpt lat="42.7038970" lon="-8.6423040">
        <ele>73.0</ele>
        <time>2021-05-23T09:14:23Z</time>
      </trkpt>
      <trkpt lat="42.7039060" lon="-8.6423110">
        <ele>73.0</ele>
        <time>2021-05-23T09:14:24Z</time>
      </trkpt>
      <trkpt lat="42.7039170" lon="-8.6423150">
        <ele>72.9</ele>
        <time>2021-05-23T09:14:25Z</time>
      </trkpt>
      <trkpt lat="42.7039230" lon="-8.6423150">
        <ele>72.9</ele>
        <time>2021-05-23T09:14:26Z</time>
      </trkpt>
      <trkpt lat="42.7039320" lon="-8.6423100">
        <ele>72.9</ele>
        <time>2021-05-23T09:14:27Z</time>
      </trkpt>
      <trkpt lat="42.7039360" lon="-8.6423080">
        <ele>72.9</ele>
        <time>2021-05-23T09:14:28Z</time>
      </trkpt>
      <trkpt lat="42.7039430" lon="-8.6423080">
        <ele>72.9</ele>
        <time>2021-05-23T09:14:29Z</time>
      </trkpt>
      <trkpt lat="42.7039520" lon="-8.6423100">
        <ele>72.9</ele>
        <time>2021-05-23T09:14:30Z</time>
      </trkpt>
      <trkpt lat="42.7039700" lon="-8.6423120">
        <ele>72.9</ele>
        <time>2021-05-23T09:14:31Z</time>
      </trkpt>
      <trkpt lat="42.7039770" lon="-8.6423150">
        <ele>72.8</ele>
        <time>2021-05-23T09:14:32Z</time>
      </trkpt>
      <trkpt lat="42.7039820" lon="-8.6423100">
        <ele>72.8</ele>
        <time>2021-05-23T09:14:33Z</time>
      </trkpt>
      <trkpt lat="42.7039910" lon="-8.6423090">
        <ele>72.8</ele>
        <time>2021-05-23T09:14:34Z</time>
      </trkpt>
      <trkpt lat="42.7040100" lon="-8.6423090">
        <ele>72.8</ele>
        <time>2021-05-23T09:14:35Z</time>
      </trkpt>
      <trkpt lat="42.7040200" lon="-8.6423060">
        <ele>72.8</ele>
        <time>2021-05-23T09:14:36Z</time>
      </trkpt>
      <trkpt lat="42.7040280" lon="-8.6423130">
        <ele>72.7</ele>
        <time>2021-05-23T09:14:37Z</time>
      </trkpt>
      <trkpt lat="42.7040370" lon="-8.6423140">
        <ele>72.7</ele>
        <time>2021-05-23T09:14:38Z</time>
      </trkpt>
      <trkpt lat="42.7040430" lon="-8.6423160">
        <ele>72.7</ele>
        <time>2021-05-23T09:14:39Z</time>
      </trkpt>
      <trkpt lat="42.7040630" lon="-8.6423260">
        <ele>72.7</ele>
        <time>2021-05-23T09:14:40Z</time>
      </trkpt>
      <trkpt lat="42.7040730" lon="-8.6423300">
        <ele>72.7</ele>
        <time>2021-05-23T09:14:41Z</time>
      </trkpt>
      <trkpt lat="42.7040830" lon="-8.6423340">
        <ele>72.6</ele>
        <time>2021-05-23T09:14:42Z</time>
      </trkpt>
      <trkpt lat="42.7040900" lon="-8.6423410">
        <ele>72.6</ele>
        <time>2021-05-23T09:14:43Z</time>
      </trkpt>
      <trkpt lat="42.7041020" lon="-8.6423430">
        <ele>72.6</ele>
        <time>2021-05-23T09:14:44Z</time>
      </trkpt>
      <trkpt lat="42.7041090" lon="-8.6423440">
        <ele>72.6</ele>
        <time>2021-05-23T09:14:45Z</time>
      </trkpt>
      <trkpt lat="42.7041230" lon="-8.6423480">
        <ele>72.6</ele>
        <time>2021-05-23T09:14:46Z</time>
      </trkpt>
      <trkpt lat="42.7041300" lon="-8.6423430">
        <ele>72.6</ele>
        <time>2021-05-23T09:14:47Z</time>
      </trkpt>
      <trkpt lat="42.7041420" lon="-8.6423420">
        <ele>72.5</ele>
        <time>2021-05-23T09:14:48Z</time>
      </trkpt>
      <trkpt lat="42.7041480" lon="-8.6423470">
        <ele>72.5</ele>
        <time>2021-05-23T09:14:49Z</time>
      </trkpt>
      <trkpt lat="42.7041710" lon="-8.6423440">
        <ele>72.5</ele>
        <time>2021-05-23T09:14:50Z</time>
      </trkpt>
      <trkpt lat="42.7041830" lon="-8.6423460">
        <ele>72.4</ele>
        <time>2021-05-23T09:14:51Z</time>
      </trkpt>
      <trkpt lat="42.7041880" lon="-8.6423440">
        <ele>72.4</ele>
        <time>2021-05-23T09:14:52Z</time>
      </trkpt>
      <trkpt lat="42.7041940" lon="-8.6423430">
        <ele>72.4</ele>
        <time>2021-05-23T09:14:53Z</time>
      </trkpt>
      <trkpt lat="42.7041990" lon="-8.6423420">
        <ele>72.4</ele>
        <time>2021-05-23T09:14:54Z</time>
      </trkpt>
      <trkpt lat="42.7042050" lon="-8.6423400">
        <ele>72.4</ele>
        <time>2021-05-23T09:14:55Z</time>
      </trkpt>
      <trkpt lat="42.7042100" lon="-8.6423390">
        <ele>72.4</ele>
        <time>2021-05-23T09:14:56Z</time>
      </trkpt>
      <trkpt lat="42.7042210" lon="-8.6423430">
        <ele>72.3</ele>
        <time>2021-05-23T09:14:57Z</time>
      </trkpt>
      <trkpt lat="42.7042360" lon="-8.6423440">
        <ele>72.3</ele>
        <time>2021-05-23T09:14:58Z</time>
      </trkpt>
      <trkpt lat="42.7042500" lon="-8.6423390">
        <ele>72.3</ele>
        <time>2021-05-23T09:14:59Z</time>
      </trkpt>
      <trkpt lat="42.7042670" lon="-8.6423450">
        <ele>72.2</ele>
        <time>2021-05-23T09:15:00Z</time>
      </trkpt>
      <trkpt lat="42.7042820" lon="-8.6423450">
        <ele>72.2</ele>
        <time>2021-05-23T09:15:01Z</time>
      </trkpt>
      <trkpt lat="42.7042910" lon="-8.6423500">
        <ele>72.1</ele>
        <time>2021-05-23T09:15:02Z</time>
      </trkpt>
      <trkpt lat="42.7042970" lon="-8.6423440">
        <ele>72.1</ele>
        <time>2021-05-23T09:15:03Z</time>
      </trkpt>
      <trkpt lat="42.7043140" lon="-8.6423420">
        <ele>72.1</ele>
        <time>2021-05-23T09:15:04Z</time>
      </trkpt>
      <trkpt lat="42.7043300" lon="-8.6423390">
        <ele>72.0</ele>
        <time>2021-05-23T09:15:05Z</time>
      </trkpt>
      <trkpt lat="42.7043470" lon="-8.6423410">
        <ele>71.9</ele>
        <time>2021-05-23T09:15:06Z</time>
      </trkpt>
      <trkpt lat="42.7043560" lon="-8.6423440">
        <ele>71.9</ele>
        <time>2021-05-23T09:15:07Z</time>
      </trkpt>
      <trkpt lat="42.7043640" lon="-8.6423400">
        <ele>71.9</ele>
        <time>2021-05-23T09:15:08Z</time>
      </trkpt>
      <trkpt lat="42.7043770" lon="-8.6423460">
        <ele>71.8</ele>
        <time>2021-05-23T09:15:09Z</time>
      </trkpt>
      <trkpt lat="42.7043860" lon="-8.6423460">
        <ele>71.7</ele>
        <time>2021-05-23T09:15:10Z</time>
      </trkpt>
      <trkpt lat="42.7043940" lon="-8.6423420">
        <ele>71.7</ele>
        <time>2021-05-23T09:15:11Z</time>
      </trkpt>
      <trkpt lat="42.7044040" lon="-8.6423450">
        <ele>71.7</ele>
        <time>2021-05-23T09:15:12Z</time>
      </trkpt>
      <trkpt lat="42.7044250" lon="-8.6423440">
        <ele>71.5</ele>
        <time>2021-05-23T09:15:13Z</time>
      </trkpt>
      <trkpt lat="42.7044390" lon="-8.6423430">
        <ele>71.5</ele>
        <time>2021-05-23T09:15:14Z</time>
      </trkpt>
      <trkpt lat="42.7044490" lon="-8.6423430">
        <ele>71.4</ele>
        <time>2021-05-23T09:15:15Z</time>
      </trkpt>
      <trkpt lat="42.7044600" lon="-8.6423400">
        <ele>71.3</ele>
        <time>2021-05-23T09:15:16Z</time>
      </trkpt>
      <trkpt lat="42.7044730" lon="-8.6423460">
        <ele>71.2</ele>
        <time>2021-05-23T09:15:17Z</time>
      </trkpt>
      <trkpt lat="42.7044820" lon="-8.6423490">
        <ele>71.2</ele>
        <time>2021-05-23T09:15:18Z</time>
      </trkpt>
      <trkpt lat="42.7044920" lon="-8.6423530">
        <ele>71.1</ele>
        <time>2021-05-23T09:15:19Z</time>
      </trkpt>
      <trkpt lat="42.7045010" lon="-8.6423570">
        <ele>71.0</ele>
        <time>2021-05-23T09:15:20Z</time>
      </trkpt>
      <trkpt lat="42.7045210" lon="-8.6423620">
        <ele>70.9</ele>
        <time>2021-05-23T09:15:21Z</time>
      </trkpt>
      <trkpt lat="42.7045320" lon="-8.6423650">
        <ele>70.8</ele>
        <time>2021-05-23T09:15:22Z</time>
      </trkpt>
      <trkpt lat="42.7045440" lon="-8.6423680">
        <ele>70.7</ele>
        <time>2021-05-23T09:15:23Z</time>
      </trkpt>
      <trkpt lat="42.7045550" lon="-8.6423690">
        <ele>70.6</ele>
        <time>2021-05-23T09:15:24Z</time>
      </trkpt>
      <trkpt lat="42.7045600" lon="-8.6423710">
        <ele>70.6</ele>
        <time>2021-05-23T09:15:25Z</time>
      </trkpt>
      <trkpt lat="42.7045630" lon="-8.6423680">
        <ele>70.6</ele>
        <time>2021-05-23T09:15:26Z</time>
      </trkpt>
      <trkpt lat="42.7045760" lon="-8.6423750">
        <ele>70.5</ele>
        <time>2021-05-23T09:15:27Z</time>
      </trkpt>
      <trkpt lat="42.7045820" lon="-8.6423780">
        <ele>70.4</ele>
        <time>2021-05-23T09:15:28Z</time>
      </trkpt>
      <trkpt lat="42.7045930" lon="-8.6423820">
        <ele>70.3</ele>
        <time>2021-05-23T09:15:29Z</time>
      </trkpt>
      <trkpt lat="42.7046110" lon="-8.6423870">
        <ele>70.2</ele>
        <time>2021-05-23T09:15:30Z</time>
      </trkpt>
      <trkpt lat="42.7046300" lon="-8.6423870">
        <ele>70.0</ele>
        <time>2021-05-23T09:15:31Z</time>
      </trkpt>
      <trkpt lat="42.7046370" lon="-8.6423900">
        <ele>69.9</ele>
        <time>2021-05-23T09:15:32Z</time>
      </trkpt>
      <trkpt lat="42.7046400" lon="-8.6423910">
        <ele>69.9</ele>
        <time>2021-05-23T09:15:33Z</time>
      </trkpt>
      <trkpt lat="42.7046510" lon="-8.6423970">
        <ele>69.8</ele>
        <time>2021-05-23T09:15:34Z</time>
      </trkpt>
      <trkpt lat="42.7046690" lon="-8.6424000">
        <ele>69.6</ele>
        <time>2021-05-23T09:15:35Z</time>
      </trkpt>
      <trkpt lat="42.7046740" lon="-8.6423970">
        <ele>69.6</ele>
        <time>2021-05-23T09:15:36Z</time>
      </trkpt>
      <trkpt lat="42.7046850" lon="-8.6423930">
        <ele>69.5</ele>
        <time>2021-05-23T09:15:37Z</time>
      </trkpt>
      <trkpt lat="42.7046900" lon="-8.6423990">
        <ele>69.4</ele>
        <time>2021-05-23T09:15:38Z</time>
      </trkpt>
      <trkpt lat="42.7046980" lon="-8.6424040">
        <ele>69.3</ele>
        <time>2021-05-23T09:15:39Z</time>
      </trkpt>
      <trkpt lat="42.7047160" lon="-8.6424060">
        <ele>69.2</ele>
        <time>2021-05-23T09:15:40Z</time>
      </trkpt>
      <trkpt lat="42.7047250" lon="-8.6424100">
        <ele>69.1</ele>
        <time>2021-05-23T09:15:41Z</time>
      </trkpt>
      <trkpt lat="42.7047330" lon="-8.6424150">
        <ele>69.0</ele>
        <time>2021-05-23T09:15:42Z</time>
      </trkpt>
      <trkpt lat="42.7047400" lon="-8.6424200">
        <ele>68.9</ele>
        <time>2021-05-23T09:15:43Z</time>
      </trkpt>
      <trkpt lat="42.7047410" lon="-8.6424180">
        <ele>68.9</ele>
        <time>2021-05-23T09:15:44Z</time>
      </trkpt>
      <trkpt lat="42.7047540" lon="-8.6424340">
        <ele>68.7</ele>
        <time>2021-05-23T09:15:45Z</time>
      </trkpt>
      <trkpt lat="42.7047550" lon="-8.6424380">
        <ele>68.7</ele>
        <time>2021-05-23T09:15:46Z</time>
      </trkpt>
      <trkpt lat="42.7047570" lon="-8.6424380">
        <ele>68.7</ele>
        <time>2021-05-23T09:15:47Z</time>
      </trkpt>
      <trkpt lat="42.7047710" lon="-8.6424280">
        <ele>68.5</ele>
        <time>2021-05-23T09:15:48Z</time>
      </trkpt>
      <trkpt lat="42.7047780" lon="-8.6424120">
        <ele>68.4</ele>
        <time>2021-05-23T09:15:49Z</time>
      </trkpt>
      <trkpt lat="42.7047740" lon="-8.6424110">
        <ele>68.4</ele>
        <time>2021-05-23T09:15:50Z</time>
      </trkpt>
      <trkpt lat="42.7047780" lon="-8.6424100">
        <ele>68.3</ele>
        <time>2021-05-23T09:15:51Z</time>
      </trkpt>
      <trkpt lat="42.7047890" lon="-8.6424130">
        <ele>68.2</ele>
        <time>2021-05-23T09:15:52Z</time>
      </trkpt>
      <trkpt lat="42.7047920" lon="-8.6424120">
        <ele>68.2</ele>
        <time>2021-05-23T09:15:53Z</time>
      </trkpt>
      <trkpt lat="42.7048010" lon="-8.6424170">
        <ele>68.1</ele>
        <time>2021-05-23T09:15:54Z</time>
      </trkpt>
      <trkpt lat="42.7048100" lon="-8.6424190">
        <ele>68.0</ele>
        <time>2021-05-23T09:15:55Z</time>
      </trkpt>
      <trkpt lat="42.7048190" lon="-8.6424220">
        <ele>67.9</ele>
        <time>2021-05-23T09:15:56Z</time>
      </trkpt>
      <trkpt lat="42.7048270" lon="-8.6424190">
        <ele>67.8</ele>
        <time>2021-05-23T09:15:57Z</time>
      </trkpt>
      <trkpt lat="42.7048360" lon="-8.6424170">
        <ele>67.8</ele>
        <time>2021-05-23T09:15:58Z</time>
      </trkpt>
      <trkpt lat="42.7048400" lon="-8.6424180">
        <ele>67.7</ele>
        <time>2021-05-23T09:15:59Z</time>
      </trkpt>
      <trkpt lat="42.7048480" lon="-8.6424210">
        <ele>67.7</ele>
        <time>2021-05-23T09:16:00Z</time>
      </trkpt>
      <trkpt lat="42.7048590" lon="-8.6424240">
        <ele>67.6</ele>
        <time>2021-05-23T09:16:01Z</time>
      </trkpt>
      <trkpt lat="42.7048720" lon="-8.6424180">
        <ele>67.4</ele>
        <time>2021-05-23T09:16:02Z</time>
      </trkpt>
      <trkpt lat="42.7048930" lon="-8.6424130">
        <ele>67.2</ele>
        <time>2021-05-23T09:16:03Z</time>
      </trkpt>
      <trkpt lat="42.7049020" lon="-8.6424090">
        <ele>67.2</ele>
        <time>2021-05-23T09:16:04Z</time>
      </trkpt>
      <trkpt lat="42.7049110" lon="-8.6424060">
        <ele>67.1</ele>
        <time>2021-05-23T09:16:05Z</time>
      </trkpt>
      <trkpt lat="42.7049410" lon="-8.6423990">
        <ele>66.8</ele>
        <time>2021-05-23T09:16:06Z</time>
      </trkpt>
      <trkpt lat="42.7049470" lon="-8.6423930">
        <ele>66.8</ele>
        <time>2021-05-23T09:16:07Z</time>
      </trkpt>
      <trkpt lat="42.7049590" lon="-8.6423890">
        <ele>66.7</ele>
        <time>2021-05-23T09:16:08Z</time>
      </trkpt>
      <trkpt lat="42.7049680" lon="-8.6423830">
        <ele>66.6</ele>
        <time>2021-05-23T09:16:09Z</time>
      </trkpt>
      <trkpt lat="42.7049780" lon="-8.6423830">
        <ele>66.5</ele>
        <time>2021-05-23T09:16:10Z</time>
      </trkpt>
      <trkpt lat="42.7050100" lon="-8.6423730">
        <ele>66.2</ele>
        <time>2021-05-23T09:16:11Z</time>
      </trkpt>
      <trkpt lat="42.7050190" lon="-8.6423700">
        <ele>66.1</ele>
        <time>2021-05-23T09:16:12Z</time>
      </trkpt>
      <trkpt lat="42.7050270" lon="-8.6423640">
        <ele>66.1</ele>
        <time>2021-05-23T09:16:13Z</time>
      </trkpt>
      <trkpt lat="42.7050260" lon="-8.6423640">
        <ele>66.1</ele>
        <time>2021-05-23T09:16:14Z</time>
      </trkpt>
      <trkpt lat="42.7050420" lon="-8.6423640">
        <ele>65.9</ele>
        <time>2021-05-23T09:16:15Z</time>
      </trkpt>
      <trkpt lat="42.7050480" lon="-8.6423610">
        <ele>65.9</ele>
        <time>2021-05-23T09:16:16Z</time>
      </trkpt>
      <trkpt lat="42.7050600" lon="-8.6423580">
        <ele>65.8</ele>
        <time>2021-05-23T09:16:17Z</time>
      </trkpt>
      <trkpt lat="42.7050780" lon="-8.6423540">
        <ele>65.7</ele>
        <time>2021-05-23T09:16:18Z</time>
      </trkpt>
      <trkpt lat="42.7050960" lon="-8.6423540">
        <ele>65.5</ele>
        <time>2021-05-23T09:16:19Z</time>
      </trkpt>
      <trkpt lat="42.7051070" lon="-8.6423540">
        <ele>65.5</ele>
        <time>2021-05-23T09:16:20Z</time>
      </trkpt>
      <trkpt lat="42.7051170" lon="-8.6423600">
        <ele>65.4</ele>
        <time>2021-05-23T09:16:21Z</time>
      </trkpt>
      <trkpt lat="42.7051340" lon="-8.6423650">
        <ele>65.3</ele>
        <time>2021-05-23T09:16:22Z</time>
      </trkpt>
      <trkpt lat="42.7051500" lon="-8.6423630">
        <ele>65.2</ele>
        <time>2021-05-23T09:16:23Z</time>
      </trkpt>
      <trkpt lat="42.7051570" lon="-8.6423700">
        <ele>65.1</ele>
        <time>2021-05-23T09:16:24Z</time>
      </trkpt>
      <trkpt lat="42.7051620" lon="-8.6423760">
        <ele>65.1</ele>
        <time>2021-05-23T09:16:25Z</time>
      </trkpt>
      <trkpt lat="42.7051780" lon="-8.6423760">
        <ele>65.0</ele>
        <time>2021-05-23T09:16:26Z</time>
      </trkpt>
      <trkpt lat="42.7051840" lon="-8.6423760">
        <ele>64.9</ele>
        <time>2021-05-23T09:16:27Z</time>
      </trkpt>
      <trkpt lat="42.7051890" lon="-8.6423770">
        <ele>64.9</ele>
        <time>2021-05-23T09:16:28Z</time>
      </trkpt>
      <trkpt lat="42.7051950" lon="-8.6423770">
        <ele>64.9</ele>
        <time>2021-05-23T09:16:29Z</time>
      </trkpt>
      <trkpt lat="42.7052010" lon="-8.6423770">
        <ele>64.8</ele>
        <time>2021-05-23T09:16:30Z</time>
      </trkpt>
      <trkpt lat="42.7052080" lon="-8.6423830">
        <ele>64.8</ele>
        <time>2021-05-23T09:16:31Z</time>
      </trkpt>
      <trkpt lat="42.7052340" lon="-8.6423840">
        <ele>64.6</ele>
        <time>2021-05-23T09:16:32Z</time>
      </trkpt>
      <trkpt lat="42.7052610" lon="-8.6423820">
        <ele>64.5</ele>
        <time>2021-05-23T09:16:33Z</time>
      </trkpt>
      <trkpt lat="42.7052700" lon="-8.6423830">
        <ele>64.5</ele>
        <time>2021-05-23T09:16:34Z</time>
      </trkpt>
      <trkpt lat="42.7052800" lon="-8.6423840">
        <ele>64.4</ele>
        <time>2021-05-23T09:16:35Z</time>
      </trkpt>
      <trkpt lat="42.7052980" lon="-8.6423940">
        <ele>64.3</ele>
        <time>2021-05-23T09:16:36Z</time>
      </trkpt>
      <trkpt lat="42.7053100" lon="-8.6423940">
        <ele>64.3</ele>
        <time>2021-05-23T09:16:37Z</time>
      </trkpt>
      <trkpt lat="42.7053210" lon="-8.6423930">
        <ele>64.3</ele>
        <time>2021-05-23T09:16:38Z</time>
      </trkpt>
      <trkpt lat="42.7053340" lon="-8.6423880">
        <ele>64.2</ele>
        <time>2021-05-23T09:16:39Z</time>
      </trkpt>
      <trkpt lat="42.7053380" lon="-8.6423890">
        <ele>64.2</ele>
        <time>2021-05-23T09:16:40Z</time>
      </trkpt>
      <trkpt lat="42.7053450" lon="-8.6423940">
        <ele>64.2</ele>
        <time>2021-05-23T09:16:41Z</time>
      </trkpt>
      <trkpt lat="42.7053480" lon="-8.6423990">
        <ele>64.1</ele>
        <time>2021-05-23T09:16:42Z</time>
      </trkpt>
      <trkpt lat="42.7053520" lon="-8.6424040">
        <ele>64.1</ele>
        <time>2021-05-23T09:16:43Z</time>
      </trkpt>
      <trkpt lat="42.7053600" lon="-8.6424030">
        <ele>64.1</ele>
        <time>2021-05-23T09:16:44Z</time>
      </trkpt>
      <trkpt lat="42.7053720" lon="-8.6424040">
        <ele>64.0</ele>
        <time>2021-05-23T09:16:45Z</time>
      </trkpt>
      <trkpt lat="42.7053810" lon="-8.6424030">
        <ele>64.0</ele>
        <time>2021-05-23T09:16:46Z</time>
      </trkpt>
      <trkpt lat="42.7053990" lon="-8.6423970">
        <ele>63.9</ele>
        <time>2021-05-23T09:16:47Z</time>
      </trkpt>
      <trkpt lat="42.7054090" lon="-8.6423890">
        <ele>63.9</ele>
        <time>2021-05-23T09:16:48Z</time>
      </trkpt>
      <trkpt lat="42.7054130" lon="-8.6423910">
        <ele>63.9</ele>
        <time>2021-05-23T09:16:49Z</time>
      </trkpt>
      <trkpt lat="42.7054230" lon="-8.6423920">
        <ele>63.9</ele>
        <time>2021-05-23T09:16:50Z</time>
      </trkpt>
      <trkpt lat="42.7054370" lon="-8.6424020">
        <ele>63.8</ele>
        <time>2021-05-23T09:16:51Z</time>
      </trkpt>
      <trkpt lat="42.7054520" lon="-8.6424000">
        <ele>63.7</ele>
        <time>2021-05-23T09:16:52Z</time>
      </trkpt>
      <trkpt lat="42.7054660" lon="-8.6424110">
        <ele>63.7</ele>
        <time>2021-05-23T09:16:53Z</time>
      </trkpt>
      <trkpt lat="42.7054940" lon="-8.6424240">
        <ele>63.6</ele>
        <time>2021-05-23T09:16:54Z</time>
      </trkpt>
      <trkpt lat="42.7055030" lon="-8.6424250">
        <ele>63.5</ele>
        <time>2021-05-23T09:16:55Z</time>
      </trkpt>
      <trkpt lat="42.7055120" lon="-8.6424440">
        <ele>63.5</ele>
        <time>2021-05-23T09:16:56Z</time>
      </trkpt>
      <trkpt lat="42.7055240" lon="-8.6424540">
        <ele>63.4</ele>
        <time>2021-05-23T09:16:57Z</time>
      </trkpt>
      <trkpt lat="42.7055530" lon="-8.6424480">
        <ele>63.3</ele>
        <time>2021-05-23T09:16:58Z</time>
      </trkpt>
      <trkpt lat="42.7055600" lon="-8.6424440">
        <ele>63.3</ele>
        <time>2021-05-23T09:16:59Z</time>
      </trkpt>
      <trkpt lat="42.7055720" lon="-8.6424510">
        <ele>63.2</ele>
        <time>2021-05-23T09:17:00Z</time>
      </trkpt>
      <trkpt lat="42.7055900" lon="-8.6424510">
        <ele>63.1</ele>
        <time>2021-05-23T09:17:01Z</time>
      </trkpt>
      <trkpt lat="42.7056170" lon="-8.6424580">
        <ele>63.0</ele>
        <time>2021-05-23T09:17:02Z</time>
      </trkpt>
      <trkpt lat="42.7056220" lon="-8.6424580">
        <ele>63.0</ele>
        <time>2021-05-23T09:17:03Z</time>
      </trkpt>
      <trkpt lat="42.7056270" lon="-8.6424590">
        <ele>63.0</ele>
        <time>2021-05-23T09:17:04Z</time>
      </trkpt>
      <trkpt lat="42.7056340" lon="-8.6424630">
        <ele>62.9</ele>
        <time>2021-05-23T09:17:05Z</time>
      </trkpt>
      <trkpt lat="42.7056580" lon="-8.6424700">
        <ele>62.8</ele>
        <time>2021-05-23T09:17:06Z</time>
      </trkpt>
      <trkpt lat="42.7056620" lon="-8.6424960">
        <ele>62.7</ele>
        <time>2021-05-23T09:17:07Z</time>
      </trkpt>
      <trkpt lat="42.7056610" lon="-8.6425010">
        <ele>62.7</ele>
        <time>2021-05-23T09:17:08Z</time>
      </trkpt>
      <trkpt lat="42.7056520" lon="-8.6425060">
        <ele>62.6</ele>
        <time>2021-05-23T09:17:09Z</time>
      </trkpt>
      <trkpt lat="42.7056490" lon="-8.6425170">
        <ele>62.6</ele>
        <time>2021-05-23T09:17:10Z</time>
      </trkpt>
      <trkpt lat="42.7056350" lon="-8.6425420">
        <ele>62.4</ele>
        <time>2021-05-23T09:17:11Z</time>
      </trkpt>
      <trkpt lat="42.7056450" lon="-8.6425640">
        <ele>62.3</ele>
        <time>2021-05-23T09:17:12Z</time>
      </trkpt>
      <trkpt lat="42.7056490" lon="-8.6425730">
        <ele>62.3</ele>
        <time>2021-05-23T09:17:13Z</time>
      </trkpt>
      <trkpt lat="42.7056520" lon="-8.6425830">
        <ele>62.3</ele>
        <time>2021-05-23T09:17:14Z</time>
      </trkpt>
      <trkpt lat="42.7056550" lon="-8.6425930">
        <ele>62.2</ele>
        <time>2021-05-23T09:17:15Z</time>
      </trkpt>
      <trkpt lat="42.7056580" lon="-8.6426060">
        <ele>62.2</ele>
        <time>2021-05-23T09:17:16Z</time>
      </trkpt>
      <trkpt lat="42.7056600" lon="-8.6426110">
        <ele>62.1</ele>
        <time>2021-05-23T09:17:17Z</time>
      </trkpt>
      <trkpt lat="42.7056630" lon="-8.6426160">
        <ele>62.1</ele>
        <time>2021-05-23T09:17:18Z</time>
      </trkpt>
      <trkpt lat="42.7056650" lon="-8.6426210">
        <ele>62.1</ele>
        <time>2021-05-23T09:17:19Z</time>
      </trkpt>
      <trkpt lat="42.7056680" lon="-8.6426270">
        <ele>62.1</ele>
        <time>2021-05-23T09:17:20Z</time>
      </trkpt>
      <trkpt lat="42.7056700" lon="-8.6426320">
        <ele>62.0</ele>
        <time>2021-05-23T09:17:21Z</time>
      </trkpt>
      <trkpt lat="42.7056730" lon="-8.6426370">
        <ele>62.0</ele>
        <time>2021-05-23T09:17:22Z</time>
      </trkpt>
      <trkpt lat="42.7056750" lon="-8.6426420">
        <ele>62.0</ele>
        <time>2021-05-23T09:17:23Z</time>
      </trkpt>
      <trkpt lat="42.7056780" lon="-8.6426550">
        <ele>61.9</ele>
        <time>2021-05-23T09:17:24Z</time>
      </trkpt>
      <trkpt lat="42.7056770" lon="-8.6426640">
        <ele>61.9</ele>
        <time>2021-05-23T09:17:25Z</time>
      </trkpt>
      <trkpt lat="42.7056810" lon="-8.6426690">
        <ele>61.9</ele>
        <time>2021-05-23T09:17:26Z</time>
      </trkpt>
      <trkpt lat="42.7056940" lon="-8.6426790">
        <ele>61.8</ele>
        <time>2021-05-23T09:17:27Z</time>
      </trkpt>
      <trkpt lat="42.7056980" lon="-8.6427010">
        <ele>61.7</ele>
        <time>2021-05-23T09:17:28Z</time>
      </trkpt>
      <trkpt lat="42.7057030" lon="-8.6427160">
        <ele>61.7</ele>
        <time>2021-05-23T09:17:29Z</time>
      </trkpt>
      <trkpt lat="42.7057160" lon="-8.6427250">
        <ele>61.6</ele>
        <time>2021-05-23T09:17:30Z</time>
      </trkpt>
      <trkpt lat="42.7057290" lon="-8.6427320">
        <ele>61.5</ele>
        <time>2021-05-23T09:17:31Z</time>
      </trkpt>
      <trkpt lat="42.7057430" lon="-8.6427460">
        <ele>61.4</ele>
        <time>2021-05-23T09:17:32Z</time>
      </trkpt>
      <trkpt lat="42.7057480" lon="-8.6427580">
        <ele>61.4</ele>
        <time>2021-05-23T09:17:33Z</time>
      </trkpt>
      <trkpt lat="42.7057630" lon="-8.6427790">
        <ele>61.3</ele>
        <time>2021-05-23T09:17:34Z</time>
      </trkpt>
      <trkpt lat="42.7057700" lon="-8.6427890">
        <ele>61.3</ele>
        <time>2021-05-23T09:17:35Z</time>
      </trkpt>
      <trkpt lat="42.7057780" lon="-8.6427980">
        <ele>61.2</ele>
        <time>2021-05-23T09:17:36Z</time>
      </trkpt>
      <trkpt lat="42.7057910" lon="-8.6428110">
        <ele>61.1</ele>
        <time>2021-05-23T09:17:37Z</time>
      </trkpt>
      <trkpt lat="42.7058030" lon="-8.6428200">
        <ele>61.1</ele>
        <time>2021-05-23T09:17:38Z</time>
      </trkpt>
      <trkpt lat="42.7058200" lon="-8.6428290">
        <ele>61.0</ele>
        <time>2021-05-23T09:17:39Z</time>
      </trkpt>
      <trkpt lat="42.7058220" lon="-8.6428430">
        <ele>61.0</ele>
        <time>2021-05-23T09:17:40Z</time>
      </trkpt>
      <trkpt lat="42.7058280" lon="-8.6428500">
        <ele>60.9</ele>
        <time>2021-05-23T09:17:41Z</time>
      </trkpt>
      <trkpt lat="42.7058490" lon="-8.6428760">
        <ele>60.8</ele>
        <time>2021-05-23T09:17:42Z</time>
      </trkpt>
      <trkpt lat="42.7058720" lon="-8.6428980">
        <ele>60.7</ele>
        <time>2021-05-23T09:17:43Z</time>
      </trkpt>
      <trkpt lat="42.7058790" lon="-8.6429050">
        <ele>60.7</ele>
        <time>2021-05-23T09:17:44Z</time>
      </trkpt>
      <trkpt lat="42.7058870" lon="-8.6429110">
        <ele>60.6</ele>
        <time>2021-05-23T09:17:45Z</time>
      </trkpt>
      <trkpt lat="42.7059030" lon="-8.6429340">
        <ele>60.5</ele>
        <time>2021-05-23T09:17:46Z</time>
      </trkpt>
      <trkpt lat="42.7059090" lon="-8.6429420">
        <ele>60.5</ele>
        <time>2021-05-23T09:17:47Z</time>
      </trkpt>
      <trkpt lat="42.7059140" lon="-8.6429500">
        <ele>60.5</ele>
        <time>2021-05-23T09:17:48Z</time>
      </trkpt>
      <trkpt lat="42.7059150" lon="-8.6429560">
        <ele>60.5</ele>
        <time>2021-05-23T09:17:49Z</time>
      </trkpt>
      <trkpt lat="42.7059180" lon="-8.6429680">
        <ele>60.4</ele>
        <time>2021-05-23T09:17:50Z</time>
      </trkpt>
      <trkpt lat="42.7059300" lon="-8.6429900">
        <ele>60.3</ele>
        <time>2021-05-23T09:17:51Z</time>
      </trkpt>
      <trkpt lat="42.7059410" lon="-8.6430020">
        <ele>60.3</ele>
        <time>2021-05-23T09:17:52Z</time>
      </trkpt>
      <trkpt lat="42.7059560" lon="-8.6430120">
        <ele>60.2</ele>
        <time>2021-05-23T09:17:53Z</time>
      </trkpt>
      <trkpt lat="42.7059720" lon="-8.6430260">
        <ele>60.1</ele>
        <time>2021-05-23T09:17:54Z</time>
      </trkpt>
      <trkpt lat="42.7059800" lon="-8.6430360">
        <ele>60.1</ele>
        <time>2021-05-23T09:17:55Z</time>
      </trkpt>
      <trkpt lat="42.7059820" lon="-8.6430460">
        <ele>60.0</ele>
        <time>2021-05-23T09:17:56Z</time>
      </trkpt>
      <trkpt lat="42.7059890" lon="-8.6430580">
        <ele>60.0</ele>
        <time>2021-05-23T09:17:57Z</time>
      </trkpt>
      <trkpt lat="42.7059960" lon="-8.6430680">
        <ele>59.9</ele>
        <time>2021-05-23T09:17:58Z</time>
      </trkpt>
      <trkpt lat="42.7060080" lon="-8.6430710">
        <ele>59.9</ele>
        <time>2021-05-23T09:17:59Z</time>
      </trkpt>
      <trkpt lat="42.7060120" lon="-8.6430850">
        <ele>59.8</ele>
        <time>2021-05-23T09:18:00Z</time>
      </trkpt>
      <trkpt lat="42.7060140" lon="-8.6431000">
        <ele>59.7</ele>
        <time>2021-05-23T09:18:01Z</time>
      </trkpt>
      <trkpt lat="42.7060210" lon="-8.6431080">
        <ele>59.7</ele>
        <time>2021-05-23T09:18:02Z</time>
      </trkpt>
      <trkpt lat="42.7060320" lon="-8.6431200">
        <ele>59.6</ele>
        <time>2021-05-23T09:18:03Z</time>
      </trkpt>
      <trkpt lat="42.7060340" lon="-8.6431310">
        <ele>59.6</ele>
        <time>2021-05-23T09:18:04Z</time>
      </trkpt>
      <trkpt lat="42.7060340" lon="-8.6431370">
        <ele>59.6</ele>
        <time>2021-05-23T09:18:05Z</time>
      </trkpt>
      <trkpt lat="42.7060380" lon="-8.6431500">
        <ele>59.5</ele>
        <time>2021-05-23T09:18:06Z</time>
      </trkpt>
      <trkpt lat="42.7060330" lon="-8.6431650">
        <ele>59.4</ele>
        <time>2021-05-23T09:18:07Z</time>
      </trkpt>
      <trkpt lat="42.7060200" lon="-8.6431730">
        <ele>59.4</ele>
        <time>2021-05-23T09:18:08Z</time>
      </trkpt>
      <trkpt lat="42.7059960" lon="-8.6431760">
        <ele>59.2</ele>
        <time>2021-05-23T09:18:09Z</time>
      </trkpt>
      <trkpt lat="42.7059890" lon="-8.6431740">
        <ele>59.2</ele>
        <time>2021-05-23T09:18:10Z</time>
      </trkpt>
      <trkpt lat="42.7059820" lon="-8.6431720">
        <ele>59.1</ele>
        <time>2021-05-23T09:18:11Z</time>
      </trkpt>
      <trkpt lat="42.7059760" lon="-8.6431780">
        <ele>59.1</ele>
        <time>2021-05-23T09:18:12Z</time>
      </trkpt>
      <trkpt lat="42.7059720" lon="-8.6431720">
        <ele>59.1</ele>
        <time>2021-05-23T09:18:13Z</time>
      </trkpt>
      <trkpt lat="42.7059670" lon="-8.6431580">
        <ele>59.0</ele>
        <time>2021-05-23T09:18:14Z</time>
      </trkpt>
      <trkpt lat="42.7059640" lon="-8.6431550">
        <ele>59.0</ele>
        <time>2021-05-23T09:18:15Z</time>
      </trkpt>
      <trkpt lat="42.7059800" lon="-8.6431800">
        <ele>58.8</ele>
        <time>2021-05-23T09:18:16Z</time>
      </trkpt>
      <trkpt lat="42.7059830" lon="-8.6431900">
        <ele>58.8</ele>
        <time>2021-05-23T09:18:17Z</time>
      </trkpt>
      <trkpt lat="42.7059820" lon="-8.6432040">
        <ele>58.7</ele>
        <time>2021-05-23T09:18:18Z</time>
      </trkpt>
      <trkpt lat="42.7059870" lon="-8.6432150">
        <ele>58.6</ele>
        <time>2021-05-23T09:18:19Z</time>
      </trkpt>
      <trkpt lat="42.7059900" lon="-8.6432250">
        <ele>58.6</ele>
        <time>2021-05-23T09:18:20Z</time>
      </trkpt>
      <trkpt lat="42.7059950" lon="-8.6432410">
        <ele>58.5</ele>
        <time>2021-05-23T09:18:21Z</time>
      </trkpt>
      <trkpt lat="42.7059950" lon="-8.6432530">
        <ele>58.5</ele>
        <time>2021-05-23T09:18:22Z</time>
      </trkpt>
      <trkpt lat="42.7059920" lon="-8.6432620">
        <ele>58.4</ele>
        <time>2021-05-23T09:18:23Z</time>
      </trkpt>
      <trkpt lat="42.7059970" lon="-8.6432750">
        <ele>58.3</ele>
        <time>2021-05-23T09:18:24Z</time>
      </trkpt>
      <trkpt lat="42.7059980" lon="-8.6432930">
        <ele>58.3</ele>
        <time>2021-05-23T09:18:25Z</time>
      </trkpt>
      <trkpt lat="42.7059960" lon="-8.6433150">
        <ele>58.2</ele>
        <time>2021-05-23T09:18:26Z</time>
      </trkpt>
      <trkpt lat="42.7060000" lon="-8.6433230">
        <ele>58.1</ele>
        <time>2021-05-23T09:18:27Z</time>
      </trkpt>
      <trkpt lat="42.7060010" lon="-8.6433330">
        <ele>58.1</ele>
        <time>2021-05-23T09:18:28Z</time>
      </trkpt>
      <trkpt lat="42.7060050" lon="-8.6433430">
        <ele>58.0</ele>
        <time>2021-05-23T09:18:29Z</time>
      </trkpt>
      <trkpt lat="42.7060130" lon="-8.6433640">
        <ele>57.9</ele>
        <time>2021-05-23T09:18:30Z</time>
      </trkpt>
      <trkpt lat="42.7060120" lon="-8.6433730">
        <ele>57.9</ele>
        <time>2021-05-23T09:18:31Z</time>
      </trkpt>
      <trkpt lat="42.7060060" lon="-8.6434110">
        <ele>57.7</ele>
        <time>2021-05-23T09:18:32Z</time>
      </trkpt>
      <trkpt lat="42.7060030" lon="-8.6434240">
        <ele>57.6</ele>
        <time>2021-05-23T09:18:33Z</time>
      </trkpt>
      <trkpt lat="42.7060000" lon="-8.6434310">
        <ele>57.6</ele>
        <time>2021-05-23T09:18:34Z</time>
      </trkpt>
      <trkpt lat="42.7060040" lon="-8.6434540">
        <ele>57.5</ele>
        <time>2021-05-23T09:18:35Z</time>
      </trkpt>
      <trkpt lat="42.7060070" lon="-8.6434720">
        <ele>57.4</ele>
        <time>2021-05-23T09:18:36Z</time>
      </trkpt>
      <trkpt lat="42.7060060" lon="-8.6435100">
        <ele>57.3</ele>
        <time>2021-05-23T09:18:37Z</time>
      </trkpt>
      <trkpt lat="42.7060050" lon="-8.6435210">
        <ele>57.2</ele>
        <time>2021-05-23T09:18:38Z</time>
      </trkpt>
      <trkpt lat="42.7060080" lon="-8.6435310">
        <ele>57.2</ele>
        <time>2021-05-23T09:18:39Z</time>
      </trkpt>
      <trkpt lat="42.7060110" lon="-8.6435380">
        <ele>57.1</ele>
        <time>2021-05-23T09:18:40Z</time>
      </trkpt>
      <trkpt lat="42.7060060" lon="-8.6435690">
        <ele>57.0</ele>
        <time>2021-05-23T09:18:41Z</time>
      </trkpt>
      <trkpt lat="42.7060050" lon="-8.6435860">
        <ele>56.9</ele>
        <time>2021-05-23T09:18:42Z</time>
      </trkpt>
      <trkpt lat="42.7060000" lon="-8.6436080">
        <ele>56.8</ele>
        <time>2021-05-23T09:18:43Z</time>
      </trkpt>
      <trkpt lat="42.7059880" lon="-8.6436200">
        <ele>56.8</ele>
        <time>2021-05-23T09:18:44Z</time>
      </trkpt>
      <trkpt lat="42.7059900" lon="-8.6436420">
        <ele>56.7</ele>
        <time>2021-05-23T09:18:45Z</time>
      </trkpt>
      <trkpt lat="42.7059940" lon="-8.6436440">
        <ele>56.6</ele>
        <time>2021-05-23T09:18:46Z</time>
      </trkpt>
      <trkpt lat="42.7059910" lon="-8.6436600">
        <ele>56.6</ele>
        <time>2021-05-23T09:18:47Z</time>
      </trkpt>
      <trkpt lat="42.7059950" lon="-8.6436740">
        <ele>56.5</ele>
        <time>2021-05-23T09:18:48Z</time>
      </trkpt>
      <trkpt lat="42.7060070" lon="-8.6436850">
        <ele>56.4</ele>
        <time>2021-05-23T09:18:49Z</time>
      </trkpt>
      <trkpt lat="42.7060100" lon="-8.6437100">
        <ele>56.3</ele>
        <time>2021-05-23T09:18:50Z</time>
      </trkpt>
      <trkpt lat="42.7060120" lon="-8.6437190">
        <ele>56.3</ele>
        <time>2021-05-23T09:18:51Z</time>
      </trkpt>
      <trkpt lat="42.7060150" lon="-8.6437280">
        <ele>56.2</ele>
        <time>2021-05-23T09:18:52Z</time>
      </trkpt>
      <trkpt lat="42.7060170" lon="-8.6437370">
        <ele>56.2</ele>
        <time>2021-05-23T09:18:53Z</time>
      </trkpt>
      <trkpt lat="42.7060240" lon="-8.6437580">
        <ele>56.1</ele>
        <time>2021-05-23T09:18:54Z</time>
      </trkpt>
      <trkpt lat="42.7060200" lon="-8.6437750">
        <ele>56.1</ele>
        <time>2021-05-23T09:18:55Z</time>
      </trkpt>
      <trkpt lat="42.7060160" lon="-8.6437890">
        <ele>56.0</ele>
        <time>2021-05-23T09:18:56Z</time>
      </trkpt>
      <trkpt lat="42.7060170" lon="-8.6438030">
        <ele>55.9</ele>
        <time>2021-05-23T09:18:57Z</time>
      </trkpt>
      <trkpt lat="42.7060180" lon="-8.6438230">
        <ele>55.9</ele>
        <time>2021-05-23T09:18:58Z</time>
      </trkpt>
      <trkpt lat="42.7060240" lon="-8.6438450">
        <ele>55.8</ele>
        <time>2021-05-23T09:18:59Z</time>
      </trkpt>
      <trkpt lat="42.7060290" lon="-8.6438590">
        <ele>55.7</ele>
        <time>2021-05-23T09:19:00Z</time>
      </trkpt>
      <trkpt lat="42.7060350" lon="-8.6438740">
        <ele>55.6</ele>
        <time>2021-05-23T09:19:01Z</time>
      </trkpt>
      <trkpt lat="42.7060440" lon="-8.6438970">
        <ele>55.5</ele>
        <time>2021-05-23T09:19:02Z</time>
      </trkpt>
      <trkpt lat="42.7060540" lon="-8.6439060">
        <ele>55.5</ele>
        <time>2021-05-23T09:19:03Z</time>
      </trkpt>
      <trkpt lat="42.7060670" lon="-8.6439300">
        <ele>55.4</ele>
        <time>2021-05-23T09:19:04Z</time>
      </trkpt>
      <trkpt lat="42.7060710" lon="-8.6439410">
        <ele>55.3</ele>
        <time>2021-05-23T09:19:05Z</time>
      </trkpt>
      <trkpt lat="42.7060760" lon="-8.6439530">
        <ele>55.3</ele>
        <time>2021-05-23T09:19:06Z</time>
      </trkpt>
      <trkpt lat="42.7060800" lon="-8.6439650">
        <ele>55.2</ele>
        <time>2021-05-23T09:19:07Z</time>
      </trkpt>
      <trkpt lat="42.7060860" lon="-8.6439960">
        <ele>55.1</ele>
        <time>2021-05-23T09:19:08Z</time>
      </trkpt>
      <trkpt lat="42.7060900" lon="-8.6440160">
        <ele>55.1</ele>
        <time>2021-05-23T09:19:09Z</time>
      </trkpt>
      <trkpt lat="42.7060930" lon="-8.6440250">
        <ele>55.0</ele>
        <time>2021-05-23T09:19:10Z</time>
      </trkpt>
      <trkpt lat="42.7061010" lon="-8.6440400">
        <ele>55.0</ele>
        <time>2021-05-23T09:19:11Z</time>
      </trkpt>
      <trkpt lat="42.7061020" lon="-8.6440590">
        <ele>54.9</ele>
        <time>2021-05-23T09:19:12Z</time>
      </trkpt>
      <trkpt lat="42.7061060" lon="-8.6440770">
        <ele>54.8</ele>
        <time>2021-05-23T09:19:13Z</time>
      </trkpt>
      <trkpt lat="42.7061060" lon="-8.6440850">
        <ele>54.8</ele>
        <time>2021-05-23T09:19:14Z</time>
      </trkpt>
      <trkpt lat="42.7061100" lon="-8.6441070">
        <ele>54.7</ele>
        <time>2021-05-23T09:19:15Z</time>
      </trkpt>
      <trkpt lat="42.7061230" lon="-8.6441170">
        <ele>54.7</ele>
        <time>2021-05-23T09:19:16Z</time>
      </trkpt>
      <trkpt lat="42.7061320" lon="-8.6441410">
        <ele>54.6</ele>
        <time>2021-05-23T09:19:17Z</time>
      </trkpt>
      <trkpt lat="42.7061350" lon="-8.6441530">
        <ele>54.6</ele>
        <time>2021-05-23T09:19:18Z</time>
      </trkpt>
      <trkpt lat="42.7061390" lon="-8.6441650">
        <ele>54.5</ele>
        <time>2021-05-23T09:19:19Z</time>
      </trkpt>
      <trkpt lat="42.7061440" lon="-8.6441800">
        <ele>54.5</ele>
        <time>2021-05-23T09:19:20Z</time>
      </trkpt>
      <trkpt lat="42.7061520" lon="-8.6442000">
        <ele>54.4</ele>
        <time>2021-05-23T09:19:21Z</time>
      </trkpt>
      <trkpt lat="42.7061610" lon="-8.6442110">
        <ele>54.4</ele>
        <time>2021-05-23T09:19:22Z</time>
      </trkpt>
      <trkpt lat="42.7061640" lon="-8.6442190">
        <ele>54.3</ele>
        <time>2021-05-23T09:19:23Z</time>
      </trkpt>
      <trkpt lat="42.7061690" lon="-8.6442270">
        <ele>54.3</ele>
        <time>2021-05-23T09:19:24Z</time>
      </trkpt>
      <trkpt lat="42.7061720" lon="-8.6442290">
        <ele>54.3</ele>
        <time>2021-05-23T09:19:25Z</time>
      </trkpt>
      <trkpt lat="42.7061820" lon="-8.6442570">
        <ele>54.2</ele>
        <time>2021-05-23T09:19:26Z</time>
      </trkpt>
      <trkpt lat="42.7061860" lon="-8.6442660">
        <ele>54.2</ele>
        <time>2021-05-23T09:19:27Z</time>
      </trkpt>
      <trkpt lat="42.7061900" lon="-8.6442760">
        <ele>54.1</ele>
        <time>2021-05-23T09:19:28Z</time>
      </trkpt>
      <trkpt lat="42.7061990" lon="-8.6442880">
        <ele>54.1</ele>
        <time>2021-05-23T09:19:29Z</time>
      </trkpt>
      <trkpt lat="42.7062030" lon="-8.6443070">
        <ele>54.0</ele>
        <time>2021-05-23T09:19:30Z</time>
      </trkpt>
      <trkpt lat="42.7062060" lon="-8.6443150">
        <ele>54.0</ele>
        <time>2021-05-23T09:19:31Z</time>
      </trkpt>
      <trkpt lat="42.7062120" lon="-8.6443250">
        <ele>53.9</ele>
        <time>2021-05-23T09:19:32Z</time>
      </trkpt>
      <trkpt lat="42.7062250" lon="-8.6443420">
        <ele>53.9</ele>
        <time>2021-05-23T09:19:33Z</time>
      </trkpt>
      <trkpt lat="42.7062310" lon="-8.6443670">
        <ele>53.8</ele>
        <time>2021-05-23T09:19:34Z</time>
      </trkpt>
      <trkpt lat="42.7062360" lon="-8.6443860">
        <ele>53.7</ele>
        <time>2021-05-23T09:19:35Z</time>
      </trkpt>
      <trkpt lat="42.7062520" lon="-8.6444050">
        <ele>53.6</ele>
        <time>2021-05-23T09:19:36Z</time>
      </trkpt>
      <trkpt lat="42.7062530" lon="-8.6444210">
        <ele>53.6</ele>
        <time>2021-05-23T09:19:37Z</time>
      </trkpt>
      <trkpt lat="42.7062630" lon="-8.6444370">
        <ele>53.5</ele>
        <time>2021-05-23T09:19:38Z</time>
      </trkpt>
      <trkpt lat="42.7062640" lon="-8.6444480">
        <ele>53.5</ele>
        <time>2021-05-23T09:19:39Z</time>
      </trkpt>
      <trkpt lat="42.7062630" lon="-8.6444560">
        <ele>53.4</ele>
        <time>2021-05-23T09:19:40Z</time>
      </trkpt>
      <trkpt lat="42.7062680" lon="-8.6444690">
        <ele>53.4</ele>
        <time>2021-05-23T09:19:41Z</time>
      </trkpt>
      <trkpt lat="42.7062790" lon="-8.6444810">
        <ele>53.3</ele>
        <time>2021-05-23T09:19:42Z</time>
      </trkpt>
      <trkpt lat="42.7062850" lon="-8.6444880">
        <ele>53.2</ele>
        <time>2021-05-23T09:19:43Z</time>
      </trkpt>
      <trkpt lat="42.7062970" lon="-8.6444980">
        <ele>53.2</ele>
        <time>2021-05-23T09:19:44Z</time>
      </trkpt>
      <trkpt lat="42.7063030" lon="-8.6445070">
        <ele>53.1</ele>
        <time>2021-05-23T09:19:45Z</time>
      </trkpt>
      <trkpt lat="42.7063100" lon="-8.6445130">
        <ele>53.0</ele>
        <time>2021-05-23T09:19:46Z</time>
      </trkpt>
      <trkpt lat="42.7063150" lon="-8.6445210">
        <ele>53.0</ele>
        <time>2021-05-23T09:19:47Z</time>
      </trkpt>
      <trkpt lat="42.7063200" lon="-8.6445200">
        <ele>52.9</ele>
        <time>2021-05-23T09:19:48Z</time>
      </trkpt>
      <trkpt lat="42.7063390" lon="-8.6445310">
        <ele>52.8</ele>
        <time>2021-05-23T09:19:49Z</time>
      </trkpt>
      <trkpt lat="42.7063460" lon="-8.6445340">
        <ele>52.7</ele>
        <time>2021-05-23T09:19:50Z</time>
      </trkpt>
      <trkpt lat="42.7063500" lon="-8.6445360">
        <ele>52.7</ele>
        <time>2021-05-23T09:19:51Z</time>
      </trkpt>
      <trkpt lat="42.7063530" lon="-8.6445490">
        <ele>52.6</ele>
        <time>2021-05-23T09:19:52Z</time>
      </trkpt>
      <trkpt lat="42.7063630" lon="-8.6445400">
        <ele>52.5</ele>
        <time>2021-05-23T09:19:53Z</time>
      </trkpt>
      <trkpt lat="42.7063710" lon="-8.6445370">
        <ele>52.5</ele>
        <time>2021-05-23T09:19:54Z</time>
      </trkpt>
      <trkpt lat="42.7063790" lon="-8.6445400">
        <ele>52.4</ele>
        <time>2021-05-23T09:19:55Z</time>
      </trkpt>
      <trkpt lat="42.7063890" lon="-8.6445470">
        <ele>52.3</ele>
        <time>2021-05-23T09:19:56Z</time>
      </trkpt>
      <trkpt lat="42.7063990" lon="-8.6445540">
        <ele>52.2</ele>
        <time>2021-05-23T09:19:57Z</time>
      </trkpt>
      <trkpt lat="42.7064030" lon="-8.6445580">
        <ele>52.2</ele>
        <time>2021-05-23T09:19:58Z</time>
      </trkpt>
      <trkpt lat="42.7064080" lon="-8.6445490">
        <ele>52.1</ele>
        <time>2021-05-23T09:19:59Z</time>
      </trkpt>
      <trkpt lat="42.7064060" lon="-8.6445530">
        <ele>52.1</ele>
        <time>2021-05-23T09:20:00Z</time>
      </trkpt>
      <trkpt lat="42.7064070" lon="-8.6445520">
        <ele>52.1</ele>
        <time>2021-05-23T09:20:01Z</time>
      </trkpt>
      <trkpt lat="42.7064060" lon="-8.6445570">
        <ele>52.0</ele>
        <time>2021-05-23T09:20:02Z</time>
      </trkpt>
      <trkpt lat="42.7064080" lon="-8.6445620">
        <ele>52.0</ele>
        <time>2021-05-23T09:20:03Z</time>
      </trkpt>
      <trkpt lat="42.7064220" lon="-8.6445710">
        <ele>51.9</ele>
        <time>2021-05-23T09:20:04Z</time>
      </trkpt>
      <trkpt lat="42.7064250" lon="-8.6445840">
        <ele>51.8</ele>
        <time>2021-05-23T09:20:05Z</time>
      </trkpt>
      <trkpt lat="42.7064410" lon="-8.6445510">
        <ele>51.6</ele>
        <time>2021-05-23T09:20:06Z</time>
      </trkpt>
      <trkpt lat="42.7064580" lon="-8.6445450">
        <ele>51.4</ele>
        <time>2021-05-23T09:20:07Z</time>
      </trkpt>
      <trkpt lat="42.7064660" lon="-8.6445490">
        <ele>51.3</ele>
        <time>2021-05-23T09:20:08Z</time>
      </trkpt>
      <trkpt lat="42.7064750" lon="-8.6445570">
        <ele>51.3</ele>
        <time>2021-05-23T09:20:09Z</time>
      </trkpt>
      <trkpt lat="42.7064820" lon="-8.6445660">
        <ele>51.2</ele>
        <time>2021-05-23T09:20:10Z</time>
      </trkpt>
      <trkpt lat="42.7064870" lon="-8.6445760">
        <ele>51.1</ele>
        <time>2021-05-23T09:20:11Z</time>
      </trkpt>
      <trkpt lat="42.7064990" lon="-8.6445870">
        <ele>51.0</ele>
        <time>2021-05-23T09:20:12Z</time>
      </trkpt>
      <trkpt lat="42.7065100" lon="-8.6446060">
        <ele>50.9</ele>
        <time>2021-05-23T09:20:13Z</time>
      </trkpt>
      <trkpt lat="42.7065150" lon="-8.6446180">
        <ele>50.8</ele>
        <time>2021-05-23T09:20:14Z</time>
      </trkpt>
      <trkpt lat="42.7065260" lon="-8.6446360">
        <ele>50.6</ele>
        <time>2021-05-23T09:20:15Z</time>
      </trkpt>
      <trkpt lat="42.7065320" lon="-8.6446560">
        <ele>50.5</ele>
        <time>2021-05-23T09:20:16Z</time>
      </trkpt>
      <trkpt lat="42.7065460" lon="-8.6446710">
        <ele>50.4</ele>
        <time>2021-05-23T09:20:17Z</time>
      </trkpt>
      <trkpt lat="42.7065550" lon="-8.6446910">
        <ele>50.2</ele>
        <time>2021-05-23T09:20:18Z</time>
      </trkpt>
      <trkpt lat="42.7065560" lon="-8.6447170">
        <ele>50.1</ele>
        <time>2021-05-23T09:20:19Z</time>
      </trkpt>
      <trkpt lat="42.7065540" lon="-8.6447390">
        <ele>49.9</ele>
        <time>2021-05-23T09:20:20Z</time>
      </trkpt>
      <trkpt lat="42.7065500" lon="-8.6447680">
        <ele>49.7</ele>
        <time>2021-05-23T09:20:21Z</time>
      </trkpt>
      <trkpt lat="42.7065470" lon="-8.6447790">
        <ele>49.6</ele>
        <time>2021-05-23T09:20:22Z</time>
      </trkpt>
      <trkpt lat="42.7065450" lon="-8.6447890">
        <ele>49.6</ele>
        <time>2021-05-23T09:20:23Z</time>
      </trkpt>
      <trkpt lat="42.7065400" lon="-8.6448100">
        <ele>49.4</ele>
        <time>2021-05-23T09:20:24Z</time>
      </trkpt>
      <trkpt lat="42.7065380" lon="-8.6448210">
        <ele>49.3</ele>
        <time>2021-05-23T09:20:25Z</time>
      </trkpt>
      <trkpt lat="42.7065350" lon="-8.6448320">
        <ele>49.2</ele>
        <time>2021-05-23T09:20:26Z</time>
      </trkpt>
      <trkpt lat="42.7065320" lon="-8.6448430">
        <ele>49.1</ele>
        <time>2021-05-23T09:20:27Z</time>
      </trkpt>
      <trkpt lat="42.7065310" lon="-8.6448720">
        <ele>48.9</ele>
        <time>2021-05-23T09:20:28Z</time>
      </trkpt>
      <trkpt lat="42.7065320" lon="-8.6448860">
        <ele>48.8</ele>
        <time>2021-05-23T09:20:29Z</time>
      </trkpt>
      <trkpt lat="42.7065320" lon="-8.6449010">
        <ele>48.7</ele>
        <time>2021-05-23T09:20:30Z</time>
      </trkpt>
      <trkpt lat="42.7065360" lon="-8.6449130">
        <ele>48.6</ele>
        <time>2021-05-23T09:20:31Z</time>
      </trkpt>
      <trkpt lat="42.7065340" lon="-8.6449160">
        <ele>48.6</ele>
        <time>2021-05-23T09:20:32Z</time>
      </trkpt>
      <trkpt lat="42.7065300" lon="-8.6449280">
        <ele>48.4</ele>
        <time>2021-05-23T09:20:33Z</time>
      </trkpt>
      <trkpt lat="42.7065310" lon="-8.6449420">
        <ele>48.3</ele>
        <time>2021-05-23T09:20:34Z</time>
      </trkpt>
      <trkpt lat="42.7065270" lon="-8.6449570">
        <ele>48.2</ele>
        <time>2021-05-23T09:20:35Z</time>
      </trkpt>
      <trkpt lat="42.7065260" lon="-8.6449700">
        <ele>48.1</ele>
        <time>2021-05-23T09:20:36Z</time>
      </trkpt>
      <trkpt lat="42.7065210" lon="-8.6449810">
        <ele>48.0</ele>
        <time>2021-05-23T09:20:37Z</time>
      </trkpt>
      <trkpt lat="42.7065130" lon="-8.6449960">
        <ele>47.9</ele>
        <time>2021-05-23T09:20:38Z</time>
      </trkpt>
      <trkpt lat="42.7065140" lon="-8.6450090">
        <ele>47.7</ele>
        <time>2021-05-23T09:20:39Z</time>
      </trkpt>
      <trkpt lat="42.7065110" lon="-8.6450090">
        <ele>47.7</ele>
        <time>2021-05-23T09:20:40Z</time>
      </trkpt>
      <trkpt lat="42.7065050" lon="-8.6450140">
        <ele>47.6</ele>
        <time>2021-05-23T09:20:41Z</time>
      </trkpt>
      <trkpt lat="42.7065020" lon="-8.6450420">
        <ele>47.4</ele>
        <time>2021-05-23T09:20:42Z</time>
      </trkpt>
      <trkpt lat="42.7064990" lon="-8.6450530">
        <ele>47.3</ele>
        <time>2021-05-23T09:20:43Z</time>
      </trkpt>
      <trkpt lat="42.7064970" lon="-8.6450640">
        <ele>47.2</ele>
        <time>2021-05-23T09:20:44Z</time>
      </trkpt>
      <trkpt lat="42.7064980" lon="-8.6450760">
        <ele>47.1</ele>
        <time>2021-05-23T09:20:45Z</time>
      </trkpt>
      <trkpt lat="42.7065050" lon="-8.6450920">
        <ele>47.0</ele>
        <time>2021-05-23T09:20:46Z</time>
      </trkpt>
      <trkpt lat="42.7065030" lon="-8.6450990">
        <ele>46.9</ele>
        <time>2021-05-23T09:20:47Z</time>
      </trkpt>
      <trkpt lat="42.7065050" lon="-8.6451090">
        <ele>46.8</ele>
        <time>2021-05-23T09:20:48Z</time>
      </trkpt>
      <trkpt lat="42.7065050" lon="-8.6451440">
        <ele>46.5</ele>
        <time>2021-05-23T09:20:49Z</time>
      </trkpt>
      <trkpt lat="42.7065070" lon="-8.6451630">
        <ele>46.4</ele>
        <time>2021-05-23T09:20:50Z</time>
      </trkpt>
      <trkpt lat="42.7065190" lon="-8.6451850">
        <ele>46.2</ele>
        <time>2021-05-23T09:20:51Z</time>
      </trkpt>
      <trkpt lat="42.7065220" lon="-8.6452010">
        <ele>46.0</ele>
        <time>2021-05-23T09:20:52Z</time>
      </trkpt>
      <trkpt lat="42.7065200" lon="-8.6452170">
        <ele>45.9</ele>
        <time>2021-05-23T09:20:53Z</time>
      </trkpt>
      <trkpt lat="42.7065230" lon="-8.6452290">
        <ele>45.8</ele>
        <time>2021-05-23T09:20:54Z</time>
      </trkpt>
      <trkpt lat="42.7065220" lon="-8.6452440">
        <ele>45.7</ele>
        <time>2021-05-23T09:20:55Z</time>
      </trkpt>
      <trkpt lat="42.7065200" lon="-8.6452690">
        <ele>45.4</ele>
        <time>2021-05-23T09:20:56Z</time>
      </trkpt>
      <trkpt lat="42.7065170" lon="-8.6452660">
        <ele>45.4</ele>
        <time>2021-05-23T09:20:57Z</time>
      </trkpt>
      <trkpt lat="42.7065230" lon="-8.6452860">
        <ele>45.2</ele>
        <time>2021-05-23T09:20:58Z</time>
      </trkpt>
      <trkpt lat="42.7065260" lon="-8.6453140">
        <ele>45.0</ele>
        <time>2021-05-23T09:20:59Z</time>
      </trkpt>
      <trkpt lat="42.7065290" lon="-8.6453320">
        <ele>44.8</ele>
        <time>2021-05-23T09:21:00Z</time>
      </trkpt>
      <trkpt lat="42.7065290" lon="-8.6453450">
        <ele>44.7</ele>
        <time>2021-05-23T09:21:01Z</time>
      </trkpt>
      <trkpt lat="42.7065280" lon="-8.6453630">
        <ele>44.6</ele>
        <time>2021-05-23T09:21:02Z</time>
      </trkpt>
      <trkpt lat="42.7065310" lon="-8.6453780">
        <ele>44.4</ele>
        <time>2021-05-23T09:21:03Z</time>
      </trkpt>
      <trkpt lat="42.7065380" lon="-8.6454030">
        <ele>44.2</ele>
        <time>2021-05-23T09:21:04Z</time>
      </trkpt>
      <trkpt lat="42.7065420" lon="-8.6454100">
        <ele>44.1</ele>
        <time>2021-05-23T09:21:05Z</time>
      </trkpt>
      <trkpt lat="42.7065460" lon="-8.6454170">
        <ele>44.0</ele>
        <time>2021-05-23T09:21:06Z</time>
      </trkpt>
      <trkpt lat="42.7065500" lon="-8.6454240">
        <ele>44.0</ele>
        <time>2021-05-23T09:21:07Z</time>
      </trkpt>
      <trkpt lat="42.7065500" lon="-8.6454450">
        <ele>43.8</ele>
        <time>2021-05-23T09:21:08Z</time>
      </trkpt>
      <trkpt lat="42.7065540" lon="-8.6454660">
        <ele>43.6</ele>
        <time>2021-05-23T09:21:09Z</time>
      </trkpt>
      <trkpt lat="42.7065560" lon="-8.6454910">
        <ele>43.4</ele>
        <time>2021-05-23T09:21:10Z</time>
      </trkpt>
      <trkpt lat="42.7065550" lon="-8.6454990">
        <ele>43.3</ele>
        <time>2021-05-23T09:21:11Z</time>
      </trkpt>
      <trkpt lat="42.7065540" lon="-8.6455080">
        <ele>43.2</ele>
        <time>2021-05-23T09:21:12Z</time>
      </trkpt>
      <trkpt lat="42.7065530" lon="-8.6455160">
        <ele>43.2</ele>
        <time>2021-05-23T09:21:13Z</time>
      </trkpt>
      <trkpt lat="42.7065510" lon="-8.6455410">
        <ele>43.0</ele>
        <time>2021-05-23T09:21:14Z</time>
      </trkpt>
      <trkpt lat="42.7065540" lon="-8.6455510">
        <ele>42.9</ele>
        <time>2021-05-23T09:21:15Z</time>
      </trkpt>
      <trkpt lat="42.7065560" lon="-8.6455610">
        <ele>42.8</ele>
        <time>2021-05-23T09:21:16Z</time>
      </trkpt>
      <trkpt lat="42.7065590" lon="-8.6455710">
        <ele>42.7</ele>
        <time>2021-05-23T09:21:17Z</time>
      </trkpt>
      <trkpt lat="42.7065660" lon="-8.6455810">
        <ele>42.6</ele>
        <time>2021-05-23T09:21:18Z</time>
      </trkpt>
      <trkpt lat="42.7065660" lon="-8.6455920">
        <ele>42.5</ele>
        <time>2021-05-23T09:21:19Z</time>
      </trkpt>
      <trkpt lat="42.7065680" lon="-8.6456030">
        <ele>42.4</ele>
        <time>2021-05-23T09:21:20Z</time>
      </trkpt>
      <trkpt lat="42.7065630" lon="-8.6456080">
        <ele>42.3</ele>
        <time>2021-05-23T09:21:21Z</time>
      </trkpt>
      <trkpt lat="42.7065670" lon="-8.6456160">
        <ele>42.2</ele>
        <time>2021-05-23T09:21:22Z</time>
      </trkpt>
      <trkpt lat="42.7065710" lon="-8.6456460">
        <ele>42.0</ele>
        <time>2021-05-23T09:21:23Z</time>
      </trkpt>
      <trkpt lat="42.7065790" lon="-8.6456640">
        <ele>41.8</ele>
        <time>2021-05-23T09:21:24Z</time>
      </trkpt>
      <trkpt lat="42.7065780" lon="-8.6456810">
        <ele>41.6</ele>
        <time>2021-05-23T09:21:25Z</time>
      </trkpt>
      <trkpt lat="42.7065830" lon="-8.6456950">
        <ele>41.5</ele>
        <time>2021-05-23T09:21:26Z</time>
      </trkpt>
      <trkpt lat="42.7065910" lon="-8.6457110">
        <ele>41.3</ele>
        <time>2021-05-23T09:21:27Z</time>
      </trkpt>
      <trkpt lat="42.7065910" lon="-8.6457220">
        <ele>41.2</ele>
        <time>2021-05-23T09:21:28Z</time>
      </trkpt>
      <trkpt lat="42.7065930" lon="-8.6457430">
        <ele>41.0</ele>
        <time>2021-05-23T09:21:29Z</time>
      </trkpt>
      <trkpt lat="42.7065980" lon="-8.6457500">
        <ele>40.9</ele>
        <time>2021-05-23T09:21:30Z</time>
      </trkpt>
      <trkpt lat="42.7066020" lon="-8.6457580">
        <ele>40.8</ele>
        <time>2021-05-23T09:21:31Z</time>
      </trkpt>
      <trkpt lat="42.7066070" lon="-8.6457690">
        <ele>40.7</ele>
        <time>2021-05-23T09:21:32Z</time>
      </trkpt>
      <trkpt lat="42.7066090" lon="-8.6457800">
        <ele>40.6</ele>
        <time>2021-05-23T09:21:33Z</time>
      </trkpt>
      <trkpt lat="42.7066090" lon="-8.6457970">
        <ele>40.4</ele>
        <time>2021-05-23T09:21:34Z</time>
      </trkpt>
      <trkpt lat="42.7066130" lon="-8.6458140">
        <ele>40.3</ele>
        <time>2021-05-23T09:21:35Z</time>
      </trkpt>
      <trkpt lat="42.7066080" lon="-8.6458270">
        <ele>40.2</ele>
        <time>2021-05-23T09:21:36Z</time>
      </trkpt>
      <trkpt lat="42.7066070" lon="-8.6458340">
        <ele>40.1</ele>
        <time>2021-05-23T09:21:37Z</time>
      </trkpt>
      <trkpt lat="42.7066050" lon="-8.6458510">
        <ele>39.9</ele>
        <time>2021-05-23T09:21:38Z</time>
      </trkpt>
      <trkpt lat="42.7065950" lon="-8.6458690">
        <ele>39.8</ele>
        <time>2021-05-23T09:21:39Z</time>
      </trkpt>
      <trkpt lat="42.7065960" lon="-8.6458840">
        <ele>39.6</ele>
        <time>2021-05-23T09:21:40Z</time>
      </trkpt>
      <trkpt lat="42.7065970" lon="-8.6458970">
        <ele>39.5</ele>
        <time>2021-05-23T09:21:41Z</time>
      </trkpt>
      <trkpt lat="42.7065970" lon="-8.6459090">
        <ele>39.4</ele>
        <time>2021-05-23T09:21:42Z</time>
      </trkpt>
      <trkpt lat="42.7065980" lon="-8.6459220">
        <ele>39.3</ele>
        <time>2021-05-23T09:21:43Z</time>
      </trkpt>
      <trkpt lat="42.7066010" lon="-8.6459440">
        <ele>39.1</ele>
        <time>2021-05-23T09:21:44Z</time>
      </trkpt>
      <trkpt lat="42.7066040" lon="-8.6459540">
        <ele>39.1</ele>
        <time>2021-05-23T09:21:45Z</time>
      </trkpt>
      <trkpt lat="42.7066070" lon="-8.6459630">
        <ele>39.0</ele>
        <time>2021-05-23T09:21:46Z</time>
      </trkpt>
      <trkpt lat="42.7066100" lon="-8.6459730">
        <ele>38.9</ele>
        <time>2021-05-23T09:21:47Z</time>
      </trkpt>
      <trkpt lat="42.7066130" lon="-8.6459780">
        <ele>38.9</ele>
        <time>2021-05-23T09:21:48Z</time>
      </trkpt>
      <trkpt lat="42.7066210" lon="-8.6459930">
        <ele>38.7</ele>
        <time>2021-05-23T09:21:49Z</time>
      </trkpt>
      <trkpt lat="42.7066280" lon="-8.6460110">
        <ele>38.6</ele>
        <time>2021-05-23T09:21:50Z</time>
      </trkpt>
      <trkpt lat="42.7066330" lon="-8.6460240">
        <ele>38.5</ele>
        <time>2021-05-23T09:21:51Z</time>
      </trkpt>
      <trkpt lat="42.7066380" lon="-8.6460380">
        <ele>38.4</ele>
        <time>2021-05-23T09:21:52Z</time>
      </trkpt>
      <trkpt lat="42.7066430" lon="-8.6460560">
        <ele>38.3</ele>
        <time>2021-05-23T09:21:53Z</time>
      </trkpt>
      <trkpt lat="42.7066530" lon="-8.6460610">
        <ele>38.2</ele>
        <time>2021-05-23T09:21:54Z</time>
      </trkpt>
      <trkpt lat="42.7066570" lon="-8.6460710">
        <ele>38.0</ele>
        <time>2021-05-23T09:21:55Z</time>
      </trkpt>
      <trkpt lat="42.7066670" lon="-8.6460850">
        <ele>37.9</ele>
        <time>2021-05-23T09:21:56Z</time>
      </trkpt>
      <trkpt lat="42.7066710" lon="-8.6461100">
        <ele>37.8</ele>
        <time>2021-05-23T09:21:57Z</time>
      </trkpt>
      <trkpt lat="42.7066710" lon="-8.6461230">
        <ele>37.7</ele>
        <time>2021-05-23T09:21:58Z</time>
      </trkpt>
      <trkpt lat="42.7066710" lon="-8.6461360">
        <ele>37.6</ele>
        <time>2021-05-23T09:21:59Z</time>
      </trkpt>
      <trkpt lat="42.7066690" lon="-8.6461430">
        <ele>37.6</ele>
        <time>2021-05-23T09:22:00Z</time>
      </trkpt>
      <trkpt lat="42.7066740" lon="-8.6461630">
        <ele>37.5</ele>
        <time>2021-05-23T09:22:01Z</time>
      </trkpt>
      <trkpt lat="42.7066750" lon="-8.6461730">
        <ele>37.4</ele>
        <time>2021-05-23T09:22:02Z</time>
      </trkpt>
      <trkpt lat="42.7066810" lon="-8.6461810">
        <ele>37.3</ele>
        <time>2021-05-23T09:22:03Z</time>
      </trkpt>
      <trkpt lat="42.7066870" lon="-8.6461940">
        <ele>37.3</ele>
        <time>2021-05-23T09:22:04Z</time>
      </trkpt>
      <trkpt lat="42.7066870" lon="-8.6462110">
        <ele>37.2</ele>
        <time>2021-05-23T09:22:05Z</time>
      </trkpt>
      <trkpt lat="42.7066870" lon="-8.6462440">
        <ele>37.0</ele>
        <time>2021-05-23T09:22:06Z</time>
      </trkpt>
      <trkpt lat="42.7066870" lon="-8.6462570">
        <ele>36.9</ele>
        <time>2021-05-23T09:22:07Z</time>
      </trkpt>
      <trkpt lat="42.7066860" lon="-8.6462700">
        <ele>36.9</ele>
        <time>2021-05-23T09:22:08Z</time>
      </trkpt>
      <trkpt lat="42.7066910" lon="-8.6462860">
        <ele>36.8</ele>
        <time>2021-05-23T09:22:09Z</time>
      </trkpt>
      <trkpt lat="42.7066960" lon="-8.6463000">
        <ele>36.7</ele>
        <time>2021-05-23T09:22:10Z</time>
      </trkpt>
      <trkpt lat="42.7066950" lon="-8.6463120">
        <ele>36.7</ele>
        <time>2021-05-23T09:22:11Z</time>
      </trkpt>
      <trkpt lat="42.7066960" lon="-8.6463260">
        <ele>36.6</ele>
        <time>2021-05-23T09:22:12Z</time>
      </trkpt>
      <trkpt lat="42.7066940" lon="-8.6463340">
        <ele>36.5</ele>
        <time>2021-05-23T09:22:13Z</time>
      </trkpt>
      <trkpt lat="42.7066940" lon="-8.6463430">
        <ele>36.5</ele>
        <time>2021-05-23T09:22:14Z</time>
      </trkpt>
      <trkpt lat="42.7066910" lon="-8.6463530">
        <ele>36.4</ele>
        <time>2021-05-23T09:22:15Z</time>
      </trkpt>
      <trkpt lat="42.7066840" lon="-8.6463700">
        <ele>36.3</ele>
        <time>2021-05-23T09:22:16Z</time>
      </trkpt>
      <trkpt lat="42.7066840" lon="-8.6463810">
        <ele>36.3</ele>
        <time>2021-05-23T09:22:17Z</time>
      </trkpt>
      <trkpt lat="42.7066830" lon="-8.6463920">
        <ele>36.2</ele>
        <time>2021-05-23T09:22:18Z</time>
      </trkpt>
      <trkpt lat="42.7066820" lon="-8.6464030">
        <ele>36.2</ele>
        <time>2021-05-23T09:22:19Z</time>
      </trkpt>
      <trkpt lat="42.7066830" lon="-8.6464200">
        <ele>36.1</ele>
        <time>2021-05-23T09:22:20Z</time>
      </trkpt>
      <trkpt lat="42.7066830" lon="-8.6464410">
        <ele>36.0</ele>
        <time>2021-05-23T09:22:21Z</time>
      </trkpt>
      <trkpt lat="42.7066880" lon="-8.6464540">
        <ele>35.9</ele>
        <time>2021-05-23T09:22:22Z</time>
      </trkpt>
      <trkpt lat="42.7066910" lon="-8.6464660">
        <ele>35.8</ele>
        <time>2021-05-23T09:22:23Z</time>
      </trkpt>
      <trkpt lat="42.7066970" lon="-8.6464810">
        <ele>35.8</ele>
        <time>2021-05-23T09:22:24Z</time>
      </trkpt>
      <trkpt lat="42.7067010" lon="-8.6465030">
        <ele>35.6</ele>
        <time>2021-05-23T09:22:25Z</time>
      </trkpt>
      <trkpt lat="42.7067060" lon="-8.6465070">
        <ele>35.6</ele>
        <time>2021-05-23T09:22:26Z</time>
      </trkpt>
      <trkpt lat="42.7067120" lon="-8.6465130">
        <ele>35.6</ele>
        <time>2021-05-23T09:22:27Z</time>
      </trkpt>
      <trkpt lat="42.7067120" lon="-8.6465310">
        <ele>35.5</ele>
        <time>2021-05-23T09:22:28Z</time>
      </trkpt>
      <trkpt lat="42.7067090" lon="-8.6465350">
        <ele>35.4</ele>
        <time>2021-05-23T09:22:29Z</time>
      </trkpt>
      <trkpt lat="42.7067140" lon="-8.6465520">
        <ele>35.3</ele>
        <time>2021-05-23T09:22:30Z</time>
      </trkpt>
      <trkpt lat="42.7067200" lon="-8.6465890">
        <ele>35.1</ele>
        <time>2021-05-23T09:22:31Z</time>
      </trkpt>
      <trkpt lat="42.7067200" lon="-8.6466030">
        <ele>35.1</ele>
        <time>2021-05-23T09:22:32Z</time>
      </trkpt>
      <trkpt lat="42.7067190" lon="-8.6466160">
        <ele>35.0</ele>
        <time>2021-05-23T09:22:33Z</time>
      </trkpt>
      <trkpt lat="42.7067200" lon="-8.6466240">
        <ele>35.0</ele>
        <time>2021-05-23T09:22:34Z</time>
      </trkpt>
      <trkpt lat="42.7067220" lon="-8.6466360">
        <ele>34.9</ele>
        <time>2021-05-23T09:22:35Z</time>
      </trkpt>
      <trkpt lat="42.7067230" lon="-8.6466430">
        <ele>34.9</ele>
        <time>2021-05-23T09:22:36Z</time>
      </trkpt>
      <trkpt lat="42.7067240" lon="-8.6466570">
        <ele>34.8</ele>
        <time>2021-05-23T09:22:37Z</time>
      </trkpt>
      <trkpt lat="42.7067260" lon="-8.6466690">
        <ele>34.7</ele>
        <time>2021-05-23T09:22:38Z</time>
      </trkpt>
      <trkpt lat="42.7067340" lon="-8.6466810">
        <ele>34.7</ele>
        <time>2021-05-23T09:22:39Z</time>
      </trkpt>
      <trkpt lat="42.7067360" lon="-8.6466940">
        <ele>34.6</ele>
        <time>2021-05-23T09:22:40Z</time>
      </trkpt>
      <trkpt lat="42.7067420" lon="-8.6467240">
        <ele>34.5</ele>
        <time>2021-05-23T09:22:41Z</time>
      </trkpt>
      <trkpt lat="42.7067450" lon="-8.6467340">
        <ele>34.4</ele>
        <time>2021-05-23T09:22:42Z</time>
      </trkpt>
      <trkpt lat="42.7067470" lon="-8.6467440">
        <ele>34.4</ele>
        <time>2021-05-23T09:22:43Z</time>
      </trkpt>
      <trkpt lat="42.7067510" lon="-8.6467600">
        <ele>34.3</ele>
        <time>2021-05-23T09:22:44Z</time>
      </trkpt>
      <trkpt lat="42.7067460" lon="-8.6467710">
        <ele>34.2</ele>
        <time>2021-05-23T09:22:45Z</time>
      </trkpt>
      <trkpt lat="42.7067560" lon="-8.6467910">
        <ele>34.1</ele>
        <time>2021-05-23T09:22:46Z</time>
      </trkpt>
      <trkpt lat="42.7067590" lon="-8.6468160">
        <ele>34.0</ele>
        <time>2021-05-23T09:22:47Z</time>
      </trkpt>
      <trkpt lat="42.7067590" lon="-8.6468280">
        <ele>34.0</ele>
        <time>2021-05-23T09:22:48Z</time>
      </trkpt>
      <trkpt lat="42.7067590" lon="-8.6468410">
        <ele>33.9</ele>
        <time>2021-05-23T09:22:49Z</time>
      </trkpt>
      <trkpt lat="42.7067590" lon="-8.6468490">
        <ele>33.9</ele>
        <time>2021-05-23T09:22:50Z</time>
      </trkpt>
      <trkpt lat="42.7067590" lon="-8.6468700">
        <ele>33.8</ele>
        <time>2021-05-23T09:22:51Z</time>
      </trkpt>
      <trkpt lat="42.7067580" lon="-8.6468830">
        <ele>33.8</ele>
        <time>2021-05-23T09:22:52Z</time>
      </trkpt>
      <trkpt lat="42.7067580" lon="-8.6469130">
        <ele>33.7</ele>
        <time>2021-05-23T09:22:53Z</time>
      </trkpt>
      <trkpt lat="42.7067580" lon="-8.6469230">
        <ele>33.7</ele>
        <time>2021-05-23T09:22:54Z</time>
      </trkpt>
      <trkpt lat="42.7067590" lon="-8.6469340">
        <ele>33.6</ele>
        <time>2021-05-23T09:22:55Z</time>
      </trkpt>
      <trkpt lat="42.7067660" lon="-8.6469570">
        <ele>33.6</ele>
        <time>2021-05-23T09:22:56Z</time>
      </trkpt>
      <trkpt lat="42.7067700" lon="-8.6469810">
        <ele>33.5</ele>
        <time>2021-05-23T09:22:57Z</time>
      </trkpt>
      <trkpt lat="42.7067710" lon="-8.6470000">
        <ele>33.5</ele>
        <time>2021-05-23T09:22:58Z</time>
      </trkpt>
      <trkpt lat="42.7067750" lon="-8.6470100">
        <ele>33.4</ele>
        <time>2021-05-23T09:22:59Z</time>
      </trkpt>
      <trkpt lat="42.7067780" lon="-8.6470190">
        <ele>33.4</ele>
        <time>2021-05-23T09:23:00Z</time>
      </trkpt>
      <trkpt lat="42.7067810" lon="-8.6470290">
        <ele>33.4</ele>
        <time>2021-05-23T09:23:01Z</time>
      </trkpt>
      <trkpt lat="42.7067760" lon="-8.6470450">
        <ele>33.4</ele>
        <time>2021-05-23T09:23:02Z</time>
      </trkpt>
      <trkpt lat="42.7067770" lon="-8.6470630">
        <ele>33.3</ele>
        <time>2021-05-23T09:23:03Z</time>
      </trkpt>
      <trkpt lat="42.7067750" lon="-8.6470750">
        <ele>33.3</ele>
        <time>2021-05-23T09:23:04Z</time>
      </trkpt>
      <trkpt lat="42.7067780" lon="-8.6470930">
        <ele>33.3</ele>
        <time>2021-05-23T09:23:05Z</time>
      </trkpt>
      <trkpt lat="42.7067780" lon="-8.6471090">
        <ele>33.2</ele>
        <time>2021-05-23T09:23:06Z</time>
      </trkpt>
      <trkpt lat="42.7067760" lon="-8.6471190">
        <ele>33.2</ele>
        <time>2021-05-23T09:23:07Z</time>
      </trkpt>
      <trkpt lat="42.7067780" lon="-8.6471520">
        <ele>33.2</ele>
        <time>2021-05-23T09:23:08Z</time>
      </trkpt>
      <trkpt lat="42.7067760" lon="-8.6471620">
        <ele>33.2</ele>
        <time>2021-05-23T09:23:09Z</time>
      </trkpt>
      <trkpt lat="42.7067780" lon="-8.6471770">
        <ele>33.2</ele>
        <time>2021-05-23T09:23:10Z</time>
      </trkpt>
      <trkpt lat="42.7067760" lon="-8.6472010">
        <ele>33.1</ele>
        <time>2021-05-23T09:23:11Z</time>
      </trkpt>
      <trkpt lat="42.7067690" lon="-8.6472140">
        <ele>33.1</ele>
        <time>2021-05-23T09:23:12Z</time>
      </trkpt>
      <trkpt lat="42.7067720" lon="-8.6472410">
        <ele>33.1</ele>
        <time>2021-05-23T09:23:13Z</time>
      </trkpt>
      <trkpt lat="42.7067720" lon="-8.6472660">
        <ele>33.1</ele>
        <time>2021-05-23T09:23:14Z</time>
      </trkpt>
      <trkpt lat="42.7067720" lon="-8.6472790">
        <ele>33.0</ele>
        <time>2021-05-23T09:23:15Z</time>
      </trkpt>
      <trkpt lat="42.7067730" lon="-8.6472920">
        <ele>33.0</ele>
        <time>2021-05-23T09:23:16Z</time>
      </trkpt>
      <trkpt lat="42.7067710" lon="-8.6473170">
        <ele>33.0</ele>
        <time>2021-05-23T09:23:17Z</time>
      </trkpt>
      <trkpt lat="42.7067700" lon="-8.6473300">
        <ele>33.0</ele>
        <time>2021-05-23T09:23:18Z</time>
      </trkpt>
      <trkpt lat="42.7067700" lon="-8.6473420">
        <ele>33.0</ele>
        <time>2021-05-23T09:23:19Z</time>
      </trkpt>
      <trkpt lat="42.7067700" lon="-8.6473540">
        <ele>33.0</ele>
        <time>2021-05-23T09:23:20Z</time>
      </trkpt>
      <trkpt lat="42.7067700" lon="-8.6473720">
        <ele>33.0</ele>
        <time>2021-05-23T09:23:21Z</time>
      </trkpt>
      <trkpt lat="42.7067640" lon="-8.6473910">
        <ele>33.0</ele>
        <time>2021-05-23T09:23:22Z</time>
      </trkpt>
      <trkpt lat="42.7067640" lon="-8.6474070">
        <ele>32.9</ele>
        <time>2021-05-23T09:23:23Z</time>
      </trkpt>
      <trkpt lat="42.7067660" lon="-8.6474110">
        <ele>32.9</ele>
        <time>2021-05-23T09:23:24Z</time>
      </trkpt>
      <trkpt lat="42.7067650" lon="-8.6474340">
        <ele>32.9</ele>
        <time>2021-05-23T09:23:25Z</time>
      </trkpt>
      <trkpt lat="42.7067670" lon="-8.6474400">
        <ele>32.9</ele>
        <time>2021-05-23T09:23:26Z</time>
      </trkpt>
      <trkpt lat="42.7067710" lon="-8.6474640">
        <ele>32.9</ele>
        <time>2021-05-23T09:23:27Z</time>
      </trkpt>
      <trkpt lat="42.7067760" lon="-8.6474770">
        <ele>32.9</ele>
        <time>2021-05-23T09:23:28Z</time>
      </trkpt>
      <trkpt lat="42.7067840" lon="-8.6474940">
        <ele>32.8</ele>
        <time>2021-05-23T09:23:29Z</time>
      </trkpt>
      <trkpt lat="42.7067910" lon="-8.6474980">
        <ele>32.6</ele>
        <time>2021-05-23T09:23:30Z</time>
      </trkpt>
      <trkpt lat="42.7067980" lon="-8.6474940">
        <ele>32.6</ele>
        <time>2021-05-23T09:23:31Z</time>
      </trkpt>
      <trkpt lat="42.7068080" lon="-8.6474890">
        <ele>32.6</ele>
        <time>2021-05-23T09:23:32Z</time>
      </trkpt>
      <trkpt lat="42.7068140" lon="-8.6474890">
        <ele>32.6</ele>
        <time>2021-05-23T09:23:33Z</time>
      </trkpt>
      <trkpt lat="42.7068170" lon="-8.6474910">
        <ele>32.6</ele>
        <time>2021-05-23T09:23:34Z</time>
      </trkpt>
      <trkpt lat="42.7068310" lon="-8.6474860">
        <ele>32.5</ele>
        <time>2021-05-23T09:23:35Z</time>
      </trkpt>
      <trkpt lat="42.7068370" lon="-8.6474790">
        <ele>32.5</ele>
        <time>2021-05-23T09:23:36Z</time>
      </trkpt>
      <trkpt lat="42.7068440" lon="-8.6474780">
        <ele>32.5</ele>
        <time>2021-05-23T09:23:37Z</time>
      </trkpt>
      <trkpt lat="42.7068560" lon="-8.6474800">
        <ele>32.5</ele>
        <time>2021-05-23T09:23:38Z</time>
      </trkpt>
      <trkpt lat="42.7068630" lon="-8.6474830">
        <ele>32.4</ele>
        <time>2021-05-23T09:23:39Z</time>
      </trkpt>
      <trkpt lat="42.7068680" lon="-8.6474860">
        <ele>32.4</ele>
        <time>2021-05-23T09:23:40Z</time>
      </trkpt>
      <trkpt lat="42.7068850" lon="-8.6474940">
        <ele>32.4</ele>
        <time>2021-05-23T09:23:41Z</time>
      </trkpt>
      <trkpt lat="42.7068990" lon="-8.6474960">
        <ele>32.4</ele>
        <time>2021-05-23T09:23:42Z</time>
      </trkpt>
      <trkpt lat="42.7069150" lon="-8.6474920">
        <ele>32.3</ele>
        <time>2021-05-23T09:23:43Z</time>
      </trkpt>
      <trkpt lat="42.7069220" lon="-8.6474930">
        <ele>32.3</ele>
        <time>2021-05-23T09:23:44Z</time>
      </trkpt>
      <trkpt lat="42.7069300" lon="-8.6474930">
        <ele>32.3</ele>
        <time>2021-05-23T09:23:45Z</time>
      </trkpt>
      <trkpt lat="42.7069370" lon="-8.6474940">
        <ele>32.3</ele>
        <time>2021-05-23T09:23:46Z</time>
      </trkpt>
      <trkpt lat="42.7069470" lon="-8.6474910">
        <ele>32.3</ele>
        <time>2021-05-23T09:23:47Z</time>
      </trkpt>
      <trkpt lat="42.7069600" lon="-8.6474880">
        <ele>32.3</ele>
        <time>2021-05-23T09:23:48Z</time>
      </trkpt>
      <trkpt lat="42.7069720" lon="-8.6474870">
        <ele>32.2</ele>
        <time>2021-05-23T09:23:49Z</time>
      </trkpt>
      <trkpt lat="42.7069850" lon="-8.6474850">
        <ele>32.2</ele>
        <time>2021-05-23T09:23:50Z</time>
      </trkpt>
      <trkpt lat="42.7070010" lon="-8.6474830">
        <ele>32.2</ele>
        <time>2021-05-23T09:23:51Z</time>
      </trkpt>
      <trkpt lat="42.7070070" lon="-8.6474810">
        <ele>32.2</ele>
        <time>2021-05-23T09:23:52Z</time>
      </trkpt>
      <trkpt lat="42.7070130" lon="-8.6474830">
        <ele>32.2</ele>
        <time>2021-05-23T09:23:53Z</time>
      </trkpt>
      <trkpt lat="42.7070240" lon="-8.6474850">
        <ele>32.2</ele>
        <time>2021-05-23T09:23:54Z</time>
      </trkpt>
      <trkpt lat="42.7070370" lon="-8.6474880">
        <ele>32.2</ele>
        <time>2021-05-23T09:23:55Z</time>
      </trkpt>
      <trkpt lat="42.7070630" lon="-8.6474910">
        <ele>32.1</ele>
        <time>2021-05-23T09:23:56Z</time>
      </trkpt>
      <trkpt lat="42.7070740" lon="-8.6474930">
        <ele>32.1</ele>
        <time>2021-05-23T09:23:57Z</time>
      </trkpt>
      <trkpt lat="42.7070860" lon="-8.6474960">
        <ele>32.1</ele>
        <time>2021-05-23T09:23:58Z</time>
      </trkpt>
      <trkpt lat="42.7070970" lon="-8.6474950">
        <ele>32.1</ele>
        <time>2021-05-23T09:23:59Z</time>
      </trkpt>
      <trkpt lat="42.7071090" lon="-8.6474960">
        <ele>32.1</ele>
        <time>2021-05-23T09:24:00Z</time>
      </trkpt>
      <trkpt lat="42.7071280" lon="-8.6474920">
        <ele>32.1</ele>
        <time>2021-05-23T09:24:01Z</time>
      </trkpt>
      <trkpt lat="42.7071380" lon="-8.6474880">
        <ele>32.1</ele>
        <time>2021-05-23T09:24:02Z</time>
      </trkpt>
      <trkpt lat="42.7071470" lon="-8.6474840">
        <ele>32.1</ele>
        <time>2021-05-23T09:24:03Z</time>
      </trkpt>
      <trkpt lat="42.7071530" lon="-8.6474870">
        <ele>32.1</ele>
        <time>2021-05-23T09:24:04Z</time>
      </trkpt>
      <trkpt lat="42.7071570" lon="-8.6474860">
        <ele>32.1</ele>
        <time>2021-05-23T09:24:05Z</time>
      </trkpt>
      <trkpt lat="42.7071670" lon="-8.6474810">
        <ele>32.1</ele>
        <time>2021-05-23T09:24:06Z</time>
      </trkpt>
      <trkpt lat="42.7071770" lon="-8.6474810">
        <ele>32.1</ele>
        <time>2021-05-23T09:24:07Z</time>
      </trkpt>
      <trkpt lat="42.7071950" lon="-8.6474800">
        <ele>32.0</ele>
        <time>2021-05-23T09:24:08Z</time>
      </trkpt>
      <trkpt lat="42.7072070" lon="-8.6474830">
        <ele>32.0</ele>
        <time>2021-05-23T09:24:09Z</time>
      </trkpt>
      <trkpt lat="42.7072180" lon="-8.6474850">
        <ele>32.0</ele>
        <time>2021-05-23T09:24:10Z</time>
      </trkpt>
      <trkpt lat="42.7072280" lon="-8.6474820">
        <ele>32.0</ele>
        <time>2021-05-23T09:24:11Z</time>
      </trkpt>
      <trkpt lat="42.7072330" lon="-8.6474850">
        <ele>32.0</ele>
        <time>2021-05-23T09:24:12Z</time>
      </trkpt>
      <trkpt lat="42.7072470" lon="-8.6474840">
        <ele>32.0</ele>
        <time>2021-05-23T09:24:13Z</time>
      </trkpt>
      <trkpt lat="42.7072700" lon="-8.6474840">
        <ele>32.0</ele>
        <time>2021-05-23T09:24:14Z</time>
      </trkpt>
      <trkpt lat="42.7072790" lon="-8.6474870">
        <ele>31.9</ele>
        <time>2021-05-23T09:24:15Z</time>
      </trkpt>
      <trkpt lat="42.7072870" lon="-8.6474900">
        <ele>31.9</ele>
        <time>2021-05-23T09:24:16Z</time>
      </trkpt>
      <trkpt lat="42.7072910" lon="-8.6475000">
        <ele>31.9</ele>
        <time>2021-05-23T09:24:17Z</time>
      </trkpt>
      <trkpt lat="42.7073020" lon="-8.6475090">
        <ele>31.9</ele>
        <time>2021-05-23T09:24:18Z</time>
      </trkpt>
      <trkpt lat="42.7073110" lon="-8.6475170">
        <ele>31.9</ele>
        <time>2021-05-23T09:24:19Z</time>
      </trkpt>
      <trkpt lat="42.7073280" lon="-8.6475280">
        <ele>31.9</ele>
        <time>2021-05-23T09:24:20Z</time>
      </trkpt>
      <trkpt lat="42.7073370" lon="-8.6475390">
        <ele>31.8</ele>
        <time>2021-05-23T09:24:21Z</time>
      </trkpt>
      <trkpt lat="42.7073450" lon="-8.6475480">
        <ele>31.8</ele>
        <time>2021-05-23T09:24:22Z</time>
      </trkpt>
      <trkpt lat="42.7073570" lon="-8.6475660">
        <ele>31.7</ele>
        <time>2021-05-23T09:24:23Z</time>
      </trkpt>
      <trkpt lat="42.7073730" lon="-8.6475830">
        <ele>31.7</ele>
        <time>2021-05-23T09:24:24Z</time>
      </trkpt>
      <trkpt lat="42.7073810" lon="-8.6475880">
        <ele>31.7</ele>
        <time>2021-05-23T09:24:25Z</time>
      </trkpt>
      <trkpt lat="42.7073880" lon="-8.6475930">
        <ele>31.7</ele>
        <time>2021-05-23T09:24:26Z</time>
      </trkpt>
      <trkpt lat="42.7073920" lon="-8.6475890">
        <ele>31.7</ele>
        <time>2021-05-23T09:24:27Z</time>
      </trkpt>
      <trkpt lat="42.7073980" lon="-8.6475940">
        <ele>31.7</ele>
        <time>2021-05-23T09:24:28Z</time>
      </trkpt>
      <trkpt lat="42.7074050" lon="-8.6475990">
        <ele>31.7</ele>
        <time>2021-05-23T09:24:29Z</time>
      </trkpt>
      <trkpt lat="42.7074180" lon="-8.6476040">
        <ele>31.6</ele>
        <time>2021-05-23T09:24:30Z</time>
      </trkpt>
      <trkpt lat="42.7074360" lon="-8.6475990">
        <ele>31.6</ele>
        <time>2021-05-23T09:24:31Z</time>
      </trkpt>
      <trkpt lat="42.7074430" lon="-8.6475960">
        <ele>31.6</ele>
        <time>2021-05-23T09:24:32Z</time>
      </trkpt>
      <trkpt lat="42.7074490" lon="-8.6475930">
        <ele>31.6</ele>
        <time>2021-05-23T09:24:33Z</time>
      </trkpt>
      <trkpt lat="42.7074550" lon="-8.6475900">
        <ele>31.6</ele>
        <time>2021-05-23T09:24:34Z</time>
      </trkpt>
      <trkpt lat="42.7074650" lon="-8.6475910">
        <ele>31.6</ele>
        <time>2021-05-23T09:24:35Z</time>
      </trkpt>
      <trkpt lat="42.7074770" lon="-8.6475820">
        <ele>31.5</ele>
        <time>2021-05-23T09:24:36Z</time>
      </trkpt>
      <trkpt lat="42.7074890" lon="-8.6475770">
        <ele>31.5</ele>
        <time>2021-05-23T09:24:37Z</time>
      </trkpt>
      <trkpt lat="42.7075000" lon="-8.6475710">
        <ele>31.5</ele>
        <time>2021-05-23T09:24:38Z</time>
      </trkpt>
      <trkpt lat="42.7075050" lon="-8.6475720">
        <ele>31.5</ele>
        <time>2021-05-23T09:24:39Z</time>
      </trkpt>
      <trkpt lat="42.7075200" lon="-8.6475670">
        <ele>31.5</ele>
        <time>2021-05-23T09:24:40Z</time>
      </trkpt>
      <trkpt lat="42.7075350" lon="-8.6475620">
        <ele>31.5</ele>
        <time>2021-05-23T09:24:41Z</time>
      </trkpt>
      <trkpt lat="42.7075410" lon="-8.6475640">
        <ele>31.5</ele>
        <time>2021-05-23T09:24:42Z</time>
      </trkpt>
      <trkpt lat="42.7075500" lon="-8.6475650">
        <ele>31.4</ele>
        <time>2021-05-23T09:24:43Z</time>
      </trkpt>
      <trkpt lat="42.7075570" lon="-8.6475580">
        <ele>31.4</ele>
        <time>2021-05-23T09:24:44Z</time>
      </trkpt>
      <trkpt lat="42.7075680" lon="-8.6475560">
        <ele>31.4</ele>
        <time>2021-05-23T09:24:45Z</time>
      </trkpt>
      <trkpt lat="42.7075750" lon="-8.6475560">
        <ele>31.4</ele>
        <time>2021-05-23T09:24:46Z</time>
      </trkpt>
      <trkpt lat="42.7075820" lon="-8.6475530">
        <ele>31.4</ele>
        <time>2021-05-23T09:24:47Z</time>
      </trkpt>
      <trkpt lat="42.7075930" lon="-8.6475480">
        <ele>31.4</ele>
        <time>2021-05-23T09:24:48Z</time>
      </trkpt>
      <trkpt lat="42.7076060" lon="-8.6475460">
        <ele>31.4</ele>
        <time>2021-05-23T09:24:49Z</time>
      </trkpt>
      <trkpt lat="42.7076170" lon="-8.6475430">
        <ele>31.4</ele>
        <time>2021-05-23T09:24:50Z</time>
      </trkpt>
      <trkpt lat="42.7076330" lon="-8.6475520">
        <ele>31.4</ele>
        <time>2021-05-23T09:24:51Z</time>
      </trkpt>
      <trkpt lat="42.7076400" lon="-8.6475400">
        <ele>31.4</ele>
        <time>2021-05-23T09:24:52Z</time>
      </trkpt>
      <trkpt lat="42.7076510" lon="-8.6475460">
        <ele>31.3</ele>
        <time>2021-05-23T09:24:53Z</time>
      </trkpt>
      <trkpt lat="42.7076690" lon="-8.6475360">
        <ele>31.3</ele>
        <time>2021-05-23T09:24:54Z</time>
      </trkpt>
      <trkpt lat="42.7076770" lon="-8.6475330">
        <ele>31.3</ele>
        <time>2021-05-23T09:24:55Z</time>
      </trkpt>
      <trkpt lat="42.7076860" lon="-8.6475300">
        <ele>31.3</ele>
        <time>2021-05-23T09:24:56Z</time>
      </trkpt>
      <trkpt lat="42.7076950" lon="-8.6475270">
        <ele>31.3</ele>
        <time>2021-05-23T09:24:57Z</time>
      </trkpt>
      <trkpt lat="42.7077110" lon="-8.6475270">
        <ele>31.3</ele>
        <time>2021-05-23T09:24:58Z</time>
      </trkpt>
      <trkpt lat="42.7077190" lon="-8.6475200">
        <ele>31.3</ele>
        <time>2021-05-23T09:24:59Z</time>
      </trkpt>
      <trkpt lat="42.7077260" lon="-8.6475150">
        <ele>31.3</ele>
        <time>2021-05-23T09:25:00Z</time>
      </trkpt>
      <trkpt lat="42.7077350" lon="-8.6475150">
        <ele>31.3</ele>
        <time>2021-05-23T09:25:01Z</time>
      </trkpt>
      <trkpt lat="42.7077490" lon="-8.6475120">
        <ele>31.3</ele>
        <time>2021-05-23T09:25:02Z</time>
      </trkpt>
      <trkpt lat="42.7077630" lon="-8.6475120">
        <ele>31.3</ele>
        <time>2021-05-23T09:25:03Z</time>
      </trkpt>
      <trkpt lat="42.7077690" lon="-8.6475030">
        <ele>31.3</ele>
        <time>2021-05-23T09:25:04Z</time>
      </trkpt>
      <trkpt lat="42.7077810" lon="-8.6475050">
        <ele>31.2</ele>
        <time>2021-05-23T09:25:05Z</time>
      </trkpt>
      <trkpt lat="42.7078010" lon="-8.6474930">
        <ele>31.2</ele>
        <time>2021-05-23T09:25:06Z</time>
      </trkpt>
      <trkpt lat="42.7078120" lon="-8.6474910">
        <ele>31.2</ele>
        <time>2021-05-23T09:25:07Z</time>
      </trkpt>
      <trkpt lat="42.7078220" lon="-8.6474890">
        <ele>31.2</ele>
        <time>2021-05-23T09:25:08Z</time>
      </trkpt>
      <trkpt lat="42.7078290" lon="-8.6474880">
        <ele>31.2</ele>
        <time>2021-05-23T09:25:09Z</time>
      </trkpt>
      <trkpt lat="42.7078430" lon="-8.6474730">
        <ele>31.2</ele>
        <time>2021-05-23T09:25:10Z</time>
      </trkpt>
      <trkpt lat="42.7078520" lon="-8.6474750">
        <ele>31.2</ele>
        <time>2021-05-23T09:25:11Z</time>
      </trkpt>
      <trkpt lat="42.7078760" lon="-8.6474670">
        <ele>31.2</ele>
        <time>2021-05-23T09:25:12Z</time>
      </trkpt>
      <trkpt lat="42.7078840" lon="-8.6474680">
        <ele>31.2</ele>
        <time>2021-05-23T09:25:13Z</time>
      </trkpt>
      <trkpt lat="42.7078920" lon="-8.6474700">
        <ele>31.2</ele>
        <time>2021-05-23T09:25:14Z</time>
      </trkpt>
      <trkpt lat="42.7079020" lon="-8.6474650">
        <ele>31.2</ele>
        <time>2021-05-23T09:25:15Z</time>
      </trkpt>
      <trkpt lat="42.7079120" lon="-8.6474600">
        <ele>31.1</ele>
        <time>2021-05-23T09:25:16Z</time>
      </trkpt>
      <trkpt lat="42.7079240" lon="-8.6474560">
        <ele>31.1</ele>
        <time>2021-05-23T09:25:17Z</time>
      </trkpt>
      <trkpt lat="42.7079450" lon="-8.6474520">
        <ele>31.1</ele>
        <time>2021-05-23T09:25:18Z</time>
      </trkpt>
      <trkpt lat="42.7079530" lon="-8.6474510">
        <ele>31.1</ele>
        <time>2021-05-23T09:25:19Z</time>
      </trkpt>
      <trkpt lat="42.7079610" lon="-8.6474500">
        <ele>31.1</ele>
        <time>2021-05-23T09:25:20Z</time>
      </trkpt>
      <trkpt lat="42.7079680" lon="-8.6474520">
        <ele>31.1</ele>
        <time>2021-05-23T09:25:21Z</time>
      </trkpt>
      <trkpt lat="42.7079820" lon="-8.6474440">
        <ele>31.1</ele>
        <time>2021-05-23T09:25:22Z</time>
      </trkpt>
      <trkpt lat="42.7079970" lon="-8.6474430">
        <ele>31.1</ele>
        <time>2021-05-23T09:25:23Z</time>
      </trkpt>
      <trkpt lat="42.7080110" lon="-8.6474360">
        <ele>31.1</ele>
        <time>2021-05-23T09:25:24Z</time>
      </trkpt>
      <trkpt lat="42.7080240" lon="-8.6474350">
        <ele>31.1</ele>
        <time>2021-05-23T09:25:25Z</time>
      </trkpt>
      <trkpt lat="42.7080480" lon="-8.6474350">
        <ele>31.1</ele>
        <time>2021-05-23T09:25:26Z</time>
      </trkpt>
      <trkpt lat="42.7080540" lon="-8.6474310">
        <ele>31.1</ele>
        <time>2021-05-23T09:25:27Z</time>
      </trkpt>
      <trkpt lat="42.7080610" lon="-8.6474270">
        <ele>31.1</ele>
        <time>2021-05-23T09:25:28Z</time>
      </trkpt>
      <trkpt lat="42.7080720" lon="-8.6474210">
        <ele>31.0</ele>
        <time>2021-05-23T09:25:29Z</time>
      </trkpt>
      <trkpt lat="42.7080810" lon="-8.6474230">
        <ele>31.0</ele>
        <time>2021-05-23T09:25:30Z</time>
      </trkpt>
      <trkpt lat="42.7080920" lon="-8.6474170">
        <ele>31.0</ele>
        <time>2021-05-23T09:25:31Z</time>
      </trkpt>
      <trkpt lat="42.7081000" lon="-8.6474130">
        <ele>31.0</ele>
        <time>2021-05-23T09:25:32Z</time>
      </trkpt>
      <trkpt lat="42.7081140" lon="-8.6474120">
        <ele>31.0</ele>
        <time>2021-05-23T09:25:33Z</time>
      </trkpt>
      <trkpt lat="42.7081260" lon="-8.6474050">
        <ele>31.0</ele>
        <time>2021-05-23T09:25:34Z</time>
      </trkpt>
      <trkpt lat="42.7081380" lon="-8.6473990">
        <ele>31.0</ele>
        <time>2021-05-23T09:25:35Z</time>
      </trkpt>
      <trkpt lat="42.7081550" lon="-8.6474030">
        <ele>31.0</ele>
        <time>2021-05-23T09:25:36Z</time>
      </trkpt>
      <trkpt lat="42.7081640" lon="-8.6473970">
        <ele>31.0</ele>
        <time>2021-05-23T09:25:37Z</time>
      </trkpt>
      <trkpt lat="42.7081740" lon="-8.6474000">
        <ele>31.0</ele>
        <time>2021-05-23T09:25:38Z</time>
      </trkpt>
      <trkpt lat="42.7081880" lon="-8.6473920">
        <ele>31.0</ele>
        <time>2021-05-23T09:25:39Z</time>
      </trkpt>
      <trkpt lat="42.7081910" lon="-8.6473890">
        <ele>31.0</ele>
        <time>2021-05-23T09:25:40Z</time>
      </trkpt>
      <trkpt lat="42.7082090" lon="-8.6473860">
        <ele>31.0</ele>
        <time>2021-05-23T09:25:41Z</time>
      </trkpt>
      <trkpt lat="42.7082180" lon="-8.6473880">
        <ele>31.0</ele>
        <time>2021-05-23T09:25:42Z</time>
      </trkpt>
      <trkpt lat="42.7082300" lon="-8.6473840">
        <ele>31.0</ele>
        <time>2021-05-23T09:25:43Z</time>
      </trkpt>
      <trkpt lat="42.7082450" lon="-8.6473850">
        <ele>31.0</ele>
        <time>2021-05-23T09:25:44Z</time>
      </trkpt>
      <trkpt lat="42.7082680" lon="-8.6473840">
        <ele>31.0</ele>
        <time>2021-05-23T09:25:45Z</time>
      </trkpt>
      <trkpt lat="42.7082760" lon="-8.6473840">
        <ele>31.0</ele>
        <time>2021-05-23T09:25:46Z</time>
      </trkpt>
      <trkpt lat="42.7082850" lon="-8.6473830">
        <ele>31.0</ele>
        <time>2021-05-23T09:25:47Z</time>
      </trkpt>
      <trkpt lat="42.7083050" lon="-8.6473770">
        <ele>31.0</ele>
        <time>2021-05-23T09:25:48Z</time>
      </trkpt>
      <trkpt lat="42.7083140" lon="-8.6473760">
        <ele>31.0</ele>
        <time>2021-05-23T09:25:49Z</time>
      </trkpt>
      <trkpt lat="42.7083230" lon="-8.6473740">
        <ele>31.0</ele>
        <time>2021-05-23T09:25:50Z</time>
      </trkpt>
      <trkpt lat="42.7083240" lon="-8.6473640">
        <ele>31.0</ele>
        <time>2021-05-23T09:25:51Z</time>
      </trkpt>
      <trkpt lat="42.7083370" lon="-8.6473660">
        <ele>30.9</ele>
        <time>2021-05-23T09:25:52Z</time>
      </trkpt>
      <trkpt lat="42.7083520" lon="-8.6473620">
        <ele>30.9</ele>
        <time>2021-05-23T09:25:53Z</time>
      </trkpt>
      <trkpt lat="42.7083630" lon="-8.6473630">
        <ele>30.9</ele>
        <time>2021-05-23T09:25:54Z</time>
      </trkpt>
      <trkpt lat="42.7083770" lon="-8.6473690">
        <ele>30.9</ele>
        <time>2021-05-23T09:25:55Z</time>
      </trkpt>
      <trkpt lat="42.7083790" lon="-8.6473720">
        <ele>30.9</ele>
        <time>2021-05-23T09:25:56Z</time>
      </trkpt>
      <trkpt lat="42.7083820" lon="-8.6473630">
        <ele>30.9</ele>
        <time>2021-05-23T09:25:57Z</time>
      </trkpt>
      <trkpt lat="42.7083860" lon="-8.6473600">
        <ele>30.9</ele>
        <time>2021-05-23T09:25:58Z</time>
      </trkpt>
      <trkpt lat="42.7083890" lon="-8.6473560">
        <ele>30.9</ele>
        <time>2021-05-23T09:25:59Z</time>
      </trkpt>
      <trkpt lat="42.7083930" lon="-8.6473530">
        <ele>30.9</ele>
        <time>2021-05-23T09:26:00Z</time>
      </trkpt>
      <trkpt lat="42.7083960" lon="-8.6473500">
        <ele>30.9</ele>
        <time>2021-05-23T09:26:01Z</time>
      </trkpt>
      <trkpt lat="42.7083990" lon="-8.6473470">
        <ele>30.9</ele>
        <time>2021-05-23T09:26:02Z</time>
      </trkpt>
      <trkpt lat="42.7084030" lon="-8.6473430">
        <ele>30.9</ele>
        <time>2021-05-23T09:26:03Z</time>
      </trkpt>
      <trkpt lat="42.7084060" lon="-8.6473400">
        <ele>30.9</ele>
        <time>2021-05-23T09:26:04Z</time>
      </trkpt>
      <trkpt lat="42.7084110" lon="-8.6473430">
        <ele>30.9</ele>
        <time>2021-05-23T09:26:05Z</time>
      </trkpt>
      <trkpt lat="42.7084280" lon="-8.6473390">
        <ele>30.9</ele>
        <time>2021-05-23T09:26:06Z</time>
      </trkpt>
      <trkpt lat="42.7084420" lon="-8.6473340">
        <ele>30.9</ele>
        <time>2021-05-23T09:26:07Z</time>
      </trkpt>
      <trkpt lat="42.7084520" lon="-8.6473290">
        <ele>30.9</ele>
        <time>2021-05-23T09:26:08Z</time>
      </trkpt>
      <trkpt lat="42.7084600" lon="-8.6473260">
        <ele>30.9</ele>
        <time>2021-05-23T09:26:09Z</time>
      </trkpt>
      <trkpt lat="42.7084710" lon="-8.6473190">
        <ele>30.9</ele>
        <time>2021-05-23T09:26:10Z</time>
      </trkpt>
      <trkpt lat="42.7084820" lon="-8.6473130">
        <ele>30.9</ele>
        <time>2021-05-23T09:26:11Z</time>
      </trkpt>
      <trkpt lat="42.7084890" lon="-8.6473200">
        <ele>30.9</ele>
        <time>2021-05-23T09:26:12Z</time>
      </trkpt>
      <trkpt lat="42.7085010" lon="-8.6473160">
        <ele>30.9</ele>
        <time>2021-05-23T09:26:13Z</time>
      </trkpt>
      <trkpt lat="42.7085140" lon="-8.6473200">
        <ele>30.9</ele>
        <time>2021-05-23T09:26:14Z</time>
      </trkpt>
      <trkpt lat="42.7085280" lon="-8.6473160">
        <ele>30.9</ele>
        <time>2021-05-23T09:26:15Z</time>
      </trkpt>
      <trkpt lat="42.7085310" lon="-8.6473130">
        <ele>30.9</ele>
        <time>2021-05-23T09:26:16Z</time>
      </trkpt>
      <trkpt lat="42.7085540" lon="-8.6473050">
        <ele>30.9</ele>
        <time>2021-05-23T09:26:17Z</time>
      </trkpt>
      <trkpt lat="42.7085630" lon="-8.6473030">
        <ele>30.9</ele>
        <time>2021-05-23T09:26:18Z</time>
      </trkpt>
      <trkpt lat="42.7085710" lon="-8.6473010">
        <ele>30.9</ele>
        <time>2021-05-23T09:26:19Z</time>
      </trkpt>
      <trkpt lat="42.7085750" lon="-8.6473000">
        <ele>30.9</ele>
        <time>2021-05-23T09:26:20Z</time>
      </trkpt>
      <trkpt lat="42.7085800" lon="-8.6472890">
        <ele>30.9</ele>
        <time>2021-05-23T09:26:21Z</time>
      </trkpt>
      <trkpt lat="42.7085970" lon="-8.6472890">
        <ele>30.9</ele>
        <time>2021-05-23T09:26:22Z</time>
      </trkpt>
      <trkpt lat="42.7086080" lon="-8.6472870">
        <ele>30.9</ele>
        <time>2021-05-23T09:26:23Z</time>
      </trkpt>
      <trkpt lat="42.7086200" lon="-8.6472800">
        <ele>30.9</ele>
        <time>2021-05-23T09:26:24Z</time>
      </trkpt>
      <trkpt lat="42.7086300" lon="-8.6472750">
        <ele>30.9</ele>
        <time>2021-05-23T09:26:25Z</time>
      </trkpt>
      <trkpt lat="42.7086380" lon="-8.6472750">
        <ele>30.9</ele>
        <time>2021-05-23T09:26:26Z</time>
      </trkpt>
      <trkpt lat="42.7086560" lon="-8.6472730">
        <ele>30.9</ele>
        <time>2021-05-23T09:26:27Z</time>
      </trkpt>
      <trkpt lat="42.7086660" lon="-8.6472680">
        <ele>30.9</ele>
        <time>2021-05-23T09:26:28Z</time>
      </trkpt>
      <trkpt lat="42.7086740" lon="-8.6472730">
        <ele>30.9</ele>
        <time>2021-05-23T09:26:29Z</time>
      </trkpt>
      <trkpt lat="42.7086880" lon="-8.6472680">
        <ele>30.9</ele>
        <time>2021-05-23T09:26:30Z</time>
      </trkpt>
      <trkpt lat="42.7086980" lon="-8.6472640">
        <ele>30.9</ele>
        <time>2021-05-23T09:26:31Z</time>
      </trkpt>
      <trkpt lat="42.7087120" lon="-8.6472650">
        <ele>30.9</ele>
        <time>2021-05-23T09:26:32Z</time>
      </trkpt>
      <trkpt lat="42.7087200" lon="-8.6472630">
        <ele>30.9</ele>
        <time>2021-05-23T09:26:33Z</time>
      </trkpt>
      <trkpt lat="42.7087270" lon="-8.6472600">
        <ele>30.9</ele>
        <time>2021-05-23T09:26:34Z</time>
      </trkpt>
      <trkpt lat="42.7087400" lon="-8.6472550">
        <ele>30.9</ele>
        <time>2021-05-23T09:26:35Z</time>
      </trkpt>
      <trkpt lat="42.7087500" lon="-8.6472550">
        <ele>30.9</ele>
        <time>2021-05-23T09:26:36Z</time>
      </trkpt>
      <trkpt lat="42.7087600" lon="-8.6472470">
        <ele>30.9</ele>
        <time>2021-05-23T09:26:37Z</time>
      </trkpt>
      <trkpt lat="42.7087680" lon="-8.6472450">
        <ele>30.9</ele>
        <time>2021-05-23T09:26:38Z</time>
      </trkpt>
      <trkpt lat="42.7087790" lon="-8.6472390">
        <ele>30.9</ele>
        <time>2021-05-23T09:26:39Z</time>
      </trkpt>
      <trkpt lat="42.7087830" lon="-8.6472380">
        <ele>30.9</ele>
        <time>2021-05-23T09:26:40Z</time>
      </trkpt>
      <trkpt lat="42.7087950" lon="-8.6472370">
        <ele>31.0</ele>
        <time>2021-05-23T09:26:41Z</time>
      </trkpt>
      <trkpt lat="42.7088080" lon="-8.6472340">
        <ele>31.0</ele>
        <time>2021-05-23T09:26:42Z</time>
      </trkpt>
      <trkpt lat="42.7088170" lon="-8.6472360">
        <ele>31.0</ele>
        <time>2021-05-23T09:26:43Z</time>
      </trkpt>
      <trkpt lat="42.7088250" lon="-8.6472310">
        <ele>31.0</ele>
        <time>2021-05-23T09:26:44Z</time>
      </trkpt>
      <trkpt lat="42.7088290" lon="-8.6472380">
        <ele>31.0</ele>
        <time>2021-05-23T09:26:45Z</time>
      </trkpt>
      <trkpt lat="42.7088410" lon="-8.6472360">
        <ele>31.0</ele>
        <time>2021-05-23T09:26:46Z</time>
      </trkpt>
      <trkpt lat="42.7088520" lon="-8.6472380">
        <ele>31.0</ele>
        <time>2021-05-23T09:26:47Z</time>
      </trkpt>
      <trkpt lat="42.7088650" lon="-8.6472260">
        <ele>31.0</ele>
        <time>2021-05-23T09:26:48Z</time>
      </trkpt>
      <trkpt lat="42.7088710" lon="-8.6472230">
        <ele>31.0</ele>
        <time>2021-05-23T09:26:49Z</time>
      </trkpt>
      <trkpt lat="42.7088760" lon="-8.6472190">
        <ele>31.0</ele>
        <time>2021-05-23T09:26:50Z</time>
      </trkpt>
      <trkpt lat="42.7088820" lon="-8.6472160">
        <ele>31.0</ele>
        <time>2021-05-23T09:26:51Z</time>
      </trkpt>
      <trkpt lat="42.7088880" lon="-8.6472130">
        <ele>31.0</ele>
        <time>2021-05-23T09:26:52Z</time>
      </trkpt>
      <trkpt lat="42.7088980" lon="-8.6472100">
        <ele>31.0</ele>
        <time>2021-05-23T09:26:53Z</time>
      </trkpt>
      <trkpt lat="42.7089160" lon="-8.6472050">
        <ele>31.0</ele>
        <time>2021-05-23T09:26:54Z</time>
      </trkpt>
      <trkpt lat="42.7089410" lon="-8.6472010">
        <ele>31.0</ele>
        <time>2021-05-23T09:26:55Z</time>
      </trkpt>
      <trkpt lat="42.7089490" lon="-8.6471990">
        <ele>31.0</ele>
        <time>2021-05-23T09:26:56Z</time>
      </trkpt>
      <trkpt lat="42.7089570" lon="-8.6471970">
        <ele>31.0</ele>
        <time>2021-05-23T09:26:57Z</time>
      </trkpt>
      <trkpt lat="42.7089830" lon="-8.6471890">
        <ele>31.0</ele>
        <time>2021-05-23T09:26:58Z</time>
      </trkpt>
      <trkpt lat="42.7089920" lon="-8.6471850">
        <ele>31.0</ele>
        <time>2021-05-23T09:26:59Z</time>
      </trkpt>
      <trkpt lat="42.7090010" lon="-8.6471820">
        <ele>31.0</ele>
        <time>2021-05-23T09:27:00Z</time>
      </trkpt>
      <trkpt lat="42.7090140" lon="-8.6471800">
        <ele>31.0</ele>
        <time>2021-05-23T09:27:01Z</time>
      </trkpt>
      <trkpt lat="42.7090300" lon="-8.6471760">
        <ele>31.0</ele>
        <time>2021-05-23T09:27:02Z</time>
      </trkpt>
      <trkpt lat="42.7090440" lon="-8.6471770">
        <ele>31.0</ele>
        <time>2021-05-23T09:27:03Z</time>
      </trkpt>
      <trkpt lat="42.7090570" lon="-8.6471690">
        <ele>31.0</ele>
        <time>2021-05-23T09:27:04Z</time>
      </trkpt>
      <trkpt lat="42.7090640" lon="-8.6471730">
        <ele>31.0</ele>
        <time>2021-05-23T09:27:05Z</time>
      </trkpt>
      <trkpt lat="42.7090750" lon="-8.6471710">
        <ele>31.0</ele>
        <time>2021-05-23T09:27:06Z</time>
      </trkpt>
      <trkpt lat="42.7090830" lon="-8.6471660">
        <ele>31.0</ele>
        <time>2021-05-23T09:27:07Z</time>
      </trkpt>
      <trkpt lat="42.7090860" lon="-8.6471590">
        <ele>31.0</ele>
        <time>2021-05-23T09:27:08Z</time>
      </trkpt>
      <trkpt lat="42.7091100" lon="-8.6471520">
        <ele>31.0</ele>
        <time>2021-05-23T09:27:09Z</time>
      </trkpt>
      <trkpt lat="42.7091170" lon="-8.6471520">
        <ele>31.0</ele>
        <time>2021-05-23T09:27:10Z</time>
      </trkpt>
      <trkpt lat="42.7091240" lon="-8.6471520">
        <ele>31.0</ele>
        <time>2021-05-23T09:27:11Z</time>
      </trkpt>
      <trkpt lat="42.7091450" lon="-8.6471410">
        <ele>31.0</ele>
        <time>2021-05-23T09:27:12Z</time>
      </trkpt>
      <trkpt lat="42.7091520" lon="-8.6471380">
        <ele>31.0</ele>
        <time>2021-05-23T09:27:13Z</time>
      </trkpt>
      <trkpt lat="42.7091600" lon="-8.6471360">
        <ele>31.0</ele>
        <time>2021-05-23T09:27:14Z</time>
      </trkpt>
      <trkpt lat="42.7091730" lon="-8.6471340">
        <ele>31.0</ele>
        <time>2021-05-23T09:27:15Z</time>
      </trkpt>
      <trkpt lat="42.7091900" lon="-8.6471410">
        <ele>31.0</ele>
        <time>2021-05-23T09:27:16Z</time>
      </trkpt>
      <trkpt lat="42.7092120" lon="-8.6471480">
        <ele>31.1</ele>
        <time>2021-05-23T09:27:17Z</time>
      </trkpt>
      <trkpt lat="42.7092190" lon="-8.6471500">
        <ele>31.1</ele>
        <time>2021-05-23T09:27:18Z</time>
      </trkpt>
      <trkpt lat="42.7092260" lon="-8.6471530">
        <ele>31.1</ele>
        <time>2021-05-23T09:27:19Z</time>
      </trkpt>
      <trkpt lat="42.7092380" lon="-8.6471520">
        <ele>31.1</ele>
        <time>2021-05-23T09:27:20Z</time>
      </trkpt>
      <trkpt lat="42.7092510" lon="-8.6471580">
        <ele>31.1</ele>
        <time>2021-05-23T09:27:21Z</time>
      </trkpt>
      <trkpt lat="42.7092610" lon="-8.6471650">
        <ele>31.1</ele>
        <time>2021-05-23T09:27:22Z</time>
      </trkpt>
      <trkpt lat="42.7092760" lon="-8.6471720">
        <ele>31.1</ele>
        <time>2021-05-23T09:27:23Z</time>
      </trkpt>
      <trkpt lat="42.7092880" lon="-8.6471750">
        <ele>31.1</ele>
        <time>2021-05-23T09:27:24Z</time>
      </trkpt>
      <trkpt lat="42.7093040" lon="-8.6471800">
        <ele>31.1</ele>
        <time>2021-05-23T09:27:25Z</time>
      </trkpt>
      <trkpt lat="42.7093170" lon="-8.6471810">
        <ele>31.1</ele>
        <time>2021-05-23T09:27:26Z</time>
      </trkpt>
      <trkpt lat="42.7093400" lon="-8.6471900">
        <ele>31.1</ele>
        <time>2021-05-23T09:27:27Z</time>
      </trkpt>
      <trkpt lat="42.7093470" lon="-8.6471890">
        <ele>31.1</ele>
        <time>2021-05-23T09:27:28Z</time>
      </trkpt>
      <trkpt lat="42.7093550" lon="-8.6471870">
        <ele>31.1</ele>
        <time>2021-05-23T09:27:29Z</time>
      </trkpt>
      <trkpt lat="42.7093740" lon="-8.6471920">
        <ele>31.2</ele>
        <time>2021-05-23T09:27:30Z</time>
      </trkpt>
      <trkpt lat="42.7093830" lon="-8.6471990">
        <ele>31.2</ele>
        <time>2021-05-23T09:27:31Z</time>
      </trkpt>
      <trkpt lat="42.7093920" lon="-8.6472050">
        <ele>31.2</ele>
        <time>2021-05-23T09:27:32Z</time>
      </trkpt>
      <trkpt lat="42.7094070" lon="-8.6472060">
        <ele>31.2</ele>
        <time>2021-05-23T09:27:33Z</time>
      </trkpt>
      <trkpt lat="42.7094200" lon="-8.6472120">
        <ele>31.2</ele>
        <time>2021-05-23T09:27:34Z</time>
      </trkpt>
      <trkpt lat="42.7094250" lon="-8.6472150">
        <ele>31.2</ele>
        <time>2021-05-23T09:27:35Z</time>
      </trkpt>
      <trkpt lat="42.7094350" lon="-8.6472220">
        <ele>31.2</ele>
        <time>2021-05-23T09:27:36Z</time>
      </trkpt>
      <trkpt lat="42.7094470" lon="-8.6472230">
        <ele>31.2</ele>
        <time>2021-05-23T09:27:37Z</time>
      </trkpt>
      <trkpt lat="42.7094630" lon="-8.6472310">
        <ele>31.2</ele>
        <time>2021-05-23T09:27:38Z</time>
      </trkpt>
      <trkpt lat="42.7094730" lon="-8.6472350">
        <ele>31.2</ele>
        <time>2021-05-23T09:27:39Z</time>
      </trkpt>
      <trkpt lat="42.7094850" lon="-8.6472400">
        <ele>31.2</ele>
        <time>2021-05-23T09:27:40Z</time>
      </trkpt>
      <trkpt lat="42.7094970" lon="-8.6472460">
        <ele>31.2</ele>
        <time>2021-05-23T09:27:41Z</time>
      </trkpt>
      <trkpt lat="42.7095050" lon="-8.6472470">
        <ele>31.2</ele>
        <time>2021-05-23T09:27:42Z</time>
      </trkpt>
      <trkpt lat="42.7095180" lon="-8.6472490">
        <ele>31.3</ele>
        <time>2021-05-23T09:27:43Z</time>
      </trkpt>
      <trkpt lat="42.7095290" lon="-8.6472570">
        <ele>31.3</ele>
        <time>2021-05-23T09:27:44Z</time>
      </trkpt>
      <trkpt lat="42.7095380" lon="-8.6472610">
        <ele>31.3</ele>
        <time>2021-05-23T09:27:45Z</time>
      </trkpt>
      <trkpt lat="42.7095490" lon="-8.6472630">
        <ele>31.3</ele>
        <time>2021-05-23T09:27:46Z</time>
      </trkpt>
      <trkpt lat="42.7095580" lon="-8.6472700">
        <ele>31.3</ele>
        <time>2021-05-23T09:27:47Z</time>
      </trkpt>
      <trkpt lat="42.7095680" lon="-8.6472720">
        <ele>31.3</ele>
        <time>2021-05-23T09:27:48Z</time>
      </trkpt>
      <trkpt lat="42.7095960" lon="-8.6472830">
        <ele>31.3</ele>
        <time>2021-05-23T09:27:49Z</time>
      </trkpt>
      <trkpt lat="42.7096050" lon="-8.6472870">
        <ele>31.3</ele>
        <time>2021-05-23T09:27:50Z</time>
      </trkpt>
      <trkpt lat="42.7096180" lon="-8.6472840">
        <ele>31.3</ele>
        <time>2021-05-23T09:27:51Z</time>
      </trkpt>
      <trkpt lat="42.7096310" lon="-8.6472840">
        <ele>31.3</ele>
        <time>2021-05-23T09:27:52Z</time>
      </trkpt>
      <trkpt lat="42.7096410" lon="-8.6472910">
        <ele>31.3</ele>
        <time>2021-05-23T09:27:53Z</time>
      </trkpt>
      <trkpt lat="42.7096490" lon="-8.6472970">
        <ele>31.3</ele>
        <time>2021-05-23T09:27:54Z</time>
      </trkpt>
      <trkpt lat="42.7096600" lon="-8.6473040">
        <ele>31.4</ele>
        <time>2021-05-23T09:27:55Z</time>
      </trkpt>
      <trkpt lat="42.7096690" lon="-8.6473030">
        <ele>31.4</ele>
        <time>2021-05-23T09:27:56Z</time>
      </trkpt>
      <trkpt lat="42.7096800" lon="-8.6473030">
        <ele>31.4</ele>
        <time>2021-05-23T09:27:57Z</time>
      </trkpt>
      <trkpt lat="42.7096960" lon="-8.6473080">
        <ele>31.4</ele>
        <time>2021-05-23T09:27:58Z</time>
      </trkpt>
      <trkpt lat="42.7097180" lon="-8.6473130">
        <ele>31.4</ele>
        <time>2021-05-23T09:27:59Z</time>
      </trkpt>
      <trkpt lat="42.7097270" lon="-8.6473160">
        <ele>31.4</ele>
        <time>2021-05-23T09:28:00Z</time>
      </trkpt>
      <trkpt lat="42.7097350" lon="-8.6473200">
        <ele>31.4</ele>
        <time>2021-05-23T09:28:01Z</time>
      </trkpt>
      <trkpt lat="42.7097420" lon="-8.6473170">
        <ele>31.4</ele>
        <time>2021-05-23T09:28:02Z</time>
      </trkpt>
      <trkpt lat="42.7097550" lon="-8.6473190">
        <ele>31.4</ele>
        <time>2021-05-23T09:28:03Z</time>
      </trkpt>
      <trkpt lat="42.7097690" lon="-8.6473150">
        <ele>31.4</ele>
        <time>2021-05-23T09:28:04Z</time>
      </trkpt>
      <trkpt lat="42.7097830" lon="-8.6473200">
        <ele>31.4</ele>
        <time>2021-05-23T09:28:05Z</time>
      </trkpt>
      <trkpt lat="42.7097920" lon="-8.6473150">
        <ele>31.4</ele>
        <time>2021-05-23T09:28:06Z</time>
      </trkpt>
      <trkpt lat="42.7098050" lon="-8.6473140">
        <ele>31.4</ele>
        <time>2021-05-23T09:28:07Z</time>
      </trkpt>
      <trkpt lat="42.7098100" lon="-8.6473170">
        <ele>31.4</ele>
        <time>2021-05-23T09:28:08Z</time>
      </trkpt>
      <trkpt lat="42.7098230" lon="-8.6473140">
        <ele>31.4</ele>
        <time>2021-05-23T09:28:09Z</time>
      </trkpt>
      <trkpt lat="42.7098350" lon="-8.6473170">
        <ele>31.4</ele>
        <time>2021-05-23T09:28:10Z</time>
      </trkpt>
      <trkpt lat="42.7098490" lon="-8.6473180">
        <ele>31.4</ele>
        <time>2021-05-23T09:28:11Z</time>
      </trkpt>
      <trkpt lat="42.7098680" lon="-8.6473190">
        <ele>31.4</ele>
        <time>2021-05-23T09:28:12Z</time>
      </trkpt>
      <trkpt lat="42.7098770" lon="-8.6473130">
        <ele>31.4</ele>
        <time>2021-05-23T09:28:13Z</time>
      </trkpt>
      <trkpt lat="42.7098870" lon="-8.6473150">
        <ele>31.4</ele>
        <time>2021-05-23T09:28:14Z</time>
      </trkpt>
      <trkpt lat="42.7098970" lon="-8.6473170">
        <ele>31.4</ele>
        <time>2021-05-23T09:28:15Z</time>
      </trkpt>
      <trkpt lat="42.7099160" lon="-8.6473180">
        <ele>31.4</ele>
        <time>2021-05-23T09:28:16Z</time>
      </trkpt>
      <trkpt lat="42.7099270" lon="-8.6473180">
        <ele>31.4</ele>
        <time>2021-05-23T09:28:17Z</time>
      </trkpt>
      <trkpt lat="42.7099370" lon="-8.6473190">
        <ele>31.4</ele>
        <time>2021-05-23T09:28:18Z</time>
      </trkpt>
      <trkpt lat="42.7099580" lon="-8.6473190">
        <ele>31.4</ele>
        <time>2021-05-23T09:28:19Z</time>
      </trkpt>
      <trkpt lat="42.7099680" lon="-8.6473210">
        <ele>31.4</ele>
        <time>2021-05-23T09:28:20Z</time>
      </trkpt>
      <trkpt lat="42.7099770" lon="-8.6473220">
        <ele>31.4</ele>
        <time>2021-05-23T09:28:21Z</time>
      </trkpt>
      <trkpt lat="42.7099880" lon="-8.6473210">
        <ele>31.4</ele>
        <time>2021-05-23T09:28:22Z</time>
      </trkpt>
      <trkpt lat="42.7100010" lon="-8.6473260">
        <ele>31.4</ele>
        <time>2021-05-23T09:28:23Z</time>
      </trkpt>
      <trkpt lat="42.7100060" lon="-8.6473280">
        <ele>31.4</ele>
        <time>2021-05-23T09:28:24Z</time>
      </trkpt>
      <trkpt lat="42.7100210" lon="-8.6473260">
        <ele>31.4</ele>
        <time>2021-05-23T09:28:25Z</time>
      </trkpt>
      <trkpt lat="42.7100390" lon="-8.6473420">
        <ele>31.4</ele>
        <time>2021-05-23T09:28:26Z</time>
      </trkpt>
      <trkpt lat="42.7100590" lon="-8.6473390">
        <ele>31.4</ele>
        <time>2021-05-23T09:28:27Z</time>
      </trkpt>
      <trkpt lat="42.7100720" lon="-8.6473390">
        <ele>31.4</ele>
        <time>2021-05-23T09:28:28Z</time>
      </trkpt>
      <trkpt lat="42.7100960" lon="-8.6473400">
        <ele>31.4</ele>
        <time>2021-05-23T09:28:29Z</time>
      </trkpt>
      <trkpt lat="42.7101030" lon="-8.6473430">
        <ele>31.4</ele>
        <time>2021-05-23T09:28:30Z</time>
      </trkpt>
      <trkpt lat="42.7101100" lon="-8.6473460">
        <ele>31.4</ele>
        <time>2021-05-23T09:28:31Z</time>
      </trkpt>
      <trkpt lat="42.7101220" lon="-8.6473400">
        <ele>31.4</ele>
        <time>2021-05-23T09:28:32Z</time>
      </trkpt>
      <trkpt lat="42.7101390" lon="-8.6473350">
        <ele>31.4</ele>
        <time>2021-05-23T09:28:33Z</time>
      </trkpt>
      <trkpt lat="42.7101510" lon="-8.6473340">
        <ele>31.4</ele>
        <time>2021-05-23T09:28:34Z</time>
      </trkpt>
      <trkpt lat="42.7101630" lon="-8.6473310">
        <ele>31.4</ele>
        <time>2021-05-23T09:28:35Z</time>
      </trkpt>
      <trkpt lat="42.7101720" lon="-8.6473260">
        <ele>31.4</ele>
        <time>2021-05-23T09:28:36Z</time>
      </trkpt>
      <trkpt lat="42.7101950" lon="-8.6473250">
        <ele>31.4</ele>
        <time>2021-05-23T09:28:37Z</time>
      </trkpt>
      <trkpt lat="42.7102030" lon="-8.6473240">
        <ele>31.4</ele>
        <time>2021-05-23T09:28:38Z</time>
      </trkpt>
      <trkpt lat="42.7102120" lon="-8.6473240">
        <ele>31.4</ele>
        <time>2021-05-23T09:28:39Z</time>
      </trkpt>
      <trkpt lat="42.7102280" lon="-8.6473150">
        <ele>31.4</ele>
        <time>2021-05-23T09:28:40Z</time>
      </trkpt>
      <trkpt lat="42.7102380" lon="-8.6473150">
        <ele>31.4</ele>
        <time>2021-05-23T09:28:41Z</time>
      </trkpt>
      <trkpt lat="42.7102470" lon="-8.6473140">
        <ele>31.4</ele>
        <time>2021-05-23T09:28:42Z</time>
      </trkpt>
      <trkpt lat="42.7102560" lon="-8.6473130">
        <ele>31.4</ele>
        <time>2021-05-23T09:28:43Z</time>
      </trkpt>
      <trkpt lat="42.7102780" lon="-8.6473070">
        <ele>31.4</ele>
        <time>2021-05-23T09:28:44Z</time>
      </trkpt>
      <trkpt lat="42.7102870" lon="-8.6473060">
        <ele>31.4</ele>
        <time>2021-05-23T09:28:45Z</time>
      </trkpt>
      <trkpt lat="42.7102950" lon="-8.6473060">
        <ele>31.4</ele>
        <time>2021-05-23T09:28:46Z</time>
      </trkpt>
      <trkpt lat="42.7103050" lon="-8.6472990">
        <ele>31.4</ele>
        <time>2021-05-23T09:28:47Z</time>
      </trkpt>
      <trkpt lat="42.7103240" lon="-8.6472940">
        <ele>31.4</ele>
        <time>2021-05-23T09:28:48Z</time>
      </trkpt>
      <trkpt lat="42.7103380" lon="-8.6472970">
        <ele>31.4</ele>
        <time>2021-05-23T09:28:49Z</time>
      </trkpt>
      <trkpt lat="42.7103590" lon="-8.6472940">
        <ele>31.4</ele>
        <time>2021-05-23T09:28:50Z</time>
      </trkpt>
      <trkpt lat="42.7103730" lon="-8.6472900">
        <ele>31.3</ele>
        <time>2021-05-23T09:28:51Z</time>
      </trkpt>
      <trkpt lat="42.7103810" lon="-8.6472920">
        <ele>31.3</ele>
        <time>2021-05-23T09:28:52Z</time>
      </trkpt>
      <trkpt lat="42.7103930" lon="-8.6472920">
        <ele>31.3</ele>
        <time>2021-05-23T09:28:53Z</time>
      </trkpt>
      <trkpt lat="42.7104010" lon="-8.6472910">
        <ele>31.3</ele>
        <time>2021-05-23T09:28:54Z</time>
      </trkpt>
      <trkpt lat="42.7104150" lon="-8.6472910">
        <ele>31.3</ele>
        <time>2021-05-23T09:28:55Z</time>
      </trkpt>
      <trkpt lat="42.7104240" lon="-8.6472920">
        <ele>31.3</ele>
        <time>2021-05-23T09:28:56Z</time>
      </trkpt>
      <trkpt lat="42.7104310" lon="-8.6472920">
        <ele>31.3</ele>
        <time>2021-05-23T09:28:57Z</time>
      </trkpt>
      <trkpt lat="42.7104400" lon="-8.6472880">
        <ele>31.3</ele>
        <time>2021-05-23T09:28:58Z</time>
      </trkpt>
      <trkpt lat="42.7104420" lon="-8.6472910">
        <ele>31.3</ele>
        <time>2021-05-23T09:28:59Z</time>
      </trkpt>
      <trkpt lat="42.7104370" lon="-8.6472900">
        <ele>31.3</ele>
        <time>2021-05-23T09:29:00Z</time>
      </trkpt>
      <trkpt lat="42.7104300" lon="-8.6472910">
        <ele>31.3</ele>
        <time>2021-05-23T09:29:01Z</time>
      </trkpt>
      <trkpt lat="42.7104330" lon="-8.6472880">
        <ele>31.3</ele>
        <time>2021-05-23T09:29:02Z</time>
      </trkpt>
      <trkpt lat="42.7104300" lon="-8.6472870">
        <ele>31.3</ele>
        <time>2021-05-23T09:29:03Z</time>
      </trkpt>
      <trkpt lat="42.7104310" lon="-8.6472870">
        <ele>31.3</ele>
        <time>2021-05-23T09:29:04Z</time>
      </trkpt>
      <trkpt lat="42.7104280" lon="-8.6472890">
        <ele>31.3</ele>
        <time>2021-05-23T09:29:05Z</time>
      </trkpt>
      <trkpt lat="42.7104260" lon="-8.6472920">
        <ele>31.3</ele>
        <time>2021-05-23T09:29:06Z</time>
      </trkpt>
      <trkpt lat="42.7104210" lon="-8.6473000">
        <ele>31.3</ele>
        <time>2021-05-23T09:29:07Z</time>
      </trkpt>
      <trkpt lat="42.7104220" lon="-8.6473010">
        <ele>31.3</ele>
        <time>2021-05-23T09:29:08Z</time>
      </trkpt>
      <trkpt lat="42.7104250" lon="-8.6473040">
        <ele>31.3</ele>
        <time>2021-05-23T09:29:09Z</time>
      </trkpt>
      <trkpt lat="42.7104270" lon="-8.6473080">
        <ele>31.3</ele>
        <time>2021-05-23T09:29:10Z</time>
      </trkpt>
      <trkpt lat="42.7104270" lon="-8.6473080">
        <ele>31.3</ele>
        <time>2021-05-23T09:29:11Z</time>
      </trkpt>
      <trkpt lat="42.7104270" lon="-8.6473070">
        <ele>31.3</ele>
        <time>2021-05-23T09:29:12Z</time>
      </trkpt>
      <trkpt lat="42.7104280" lon="-8.6473080">
        <ele>31.3</ele>
        <time>2021-05-23T09:29:13Z</time>
      </trkpt>
      <trkpt lat="42.7104360" lon="-8.6473130">
        <ele>31.3</ele>
        <time>2021-05-23T09:29:14Z</time>
      </trkpt>
      <trkpt lat="42.7104380" lon="-8.6473150">
        <ele>31.3</ele>
        <time>2021-05-23T09:29:15Z</time>
      </trkpt>
      <trkpt lat="42.7104450" lon="-8.6473170">
        <ele>31.3</ele>
        <time>2021-05-23T09:29:16Z</time>
      </trkpt>
      <trkpt lat="42.7104480" lon="-8.6473110">
        <ele>31.3</ele>
        <time>2021-05-23T09:29:17Z</time>
      </trkpt>
      <trkpt lat="42.7104530" lon="-8.6473040">
        <ele>31.3</ele>
        <time>2021-05-23T09:29:18Z</time>
      </trkpt>
      <trkpt lat="42.7104620" lon="-8.6472950">
        <ele>31.3</ele>
        <time>2021-05-23T09:29:19Z</time>
      </trkpt>
      <trkpt lat="42.7104680" lon="-8.6472880">
        <ele>31.3</ele>
        <time>2021-05-23T09:29:20Z</time>
      </trkpt>
      <trkpt lat="42.7104780" lon="-8.6472800">
        <ele>31.3</ele>
        <time>2021-05-23T09:29:21Z</time>
      </trkpt>
      <trkpt lat="42.7104880" lon="-8.6472750">
        <ele>31.3</ele>
        <time>2021-05-23T09:29:22Z</time>
      </trkpt>
      <trkpt lat="42.7104920" lon="-8.6472750">
        <ele>31.3</ele>
        <time>2021-05-23T09:29:23Z</time>
      </trkpt>
      <trkpt lat="42.7105020" lon="-8.6472730">
        <ele>31.2</ele>
        <time>2021-05-23T09:29:24Z</time>
      </trkpt>
      <trkpt lat="42.7105040" lon="-8.6472690">
        <ele>31.2</ele>
        <time>2021-05-23T09:29:25Z</time>
      </trkpt>
      <trkpt lat="42.7105040" lon="-8.6472650">
        <ele>31.2</ele>
        <time>2021-05-23T09:29:26Z</time>
      </trkpt>
      <trkpt lat="42.7105030" lon="-8.6472600">
        <ele>31.2</ele>
        <time>2021-05-23T09:29:27Z</time>
      </trkpt>
      <trkpt lat="42.7105040" lon="-8.6472610">
        <ele>31.2</ele>
        <time>2021-05-23T09:29:28Z</time>
      </trkpt>
      <trkpt lat="42.7105090" lon="-8.6472670">
        <ele>31.2</ele>
        <time>2021-05-23T09:29:29Z</time>
      </trkpt>
      <trkpt lat="42.7105120" lon="-8.6472680">
        <ele>31.2</ele>
        <time>2021-05-23T09:29:30Z</time>
      </trkpt>
      <trkpt lat="42.7105140" lon="-8.6472680">
        <ele>31.2</ele>
        <time>2021-05-23T09:29:31Z</time>
      </trkpt>
      <trkpt lat="42.7105160" lon="-8.6472680">
        <ele>31.2</ele>
        <time>2021-05-23T09:29:32Z</time>
      </trkpt>
      <trkpt lat="42.7105150" lon="-8.6472730">
        <ele>31.2</ele>
        <time>2021-05-23T09:29:33Z</time>
      </trkpt>
      <trkpt lat="42.7105110" lon="-8.6472770">
        <ele>31.2</ele>
        <time>2021-05-23T09:29:34Z</time>
      </trkpt>
      <trkpt lat="42.7105090" lon="-8.6472780">
        <ele>31.2</ele>
        <time>2021-05-23T09:29:35Z</time>
      </trkpt>
      <trkpt lat="42.7105070" lon="-8.6472820">
        <ele>31.2</ele>
        <time>2021-05-23T09:29:36Z</time>
      </trkpt>
      <trkpt lat="42.7105030" lon="-8.6472900">
        <ele>31.2</ele>
        <time>2021-05-23T09:29:37Z</time>
      </trkpt>
      <trkpt lat="42.7105040" lon="-8.6472900">
        <ele>31.2</ele>
        <time>2021-05-23T09:29:38Z</time>
      </trkpt>
      <trkpt lat="42.7105020" lon="-8.6472950">
        <ele>31.2</ele>
        <time>2021-05-23T09:29:39Z</time>
      </trkpt>
      <trkpt lat="42.7105030" lon="-8.6473010">
        <ele>31.2</ele>
        <time>2021-05-23T09:29:40Z</time>
      </trkpt>
      <trkpt lat="42.7105020" lon="-8.6473090">
        <ele>31.2</ele>
        <time>2021-05-23T09:29:41Z</time>
      </trkpt>
      <trkpt lat="42.7105050" lon="-8.6473120">
        <ele>31.2</ele>
        <time>2021-05-23T09:29:42Z</time>
      </trkpt>
      <trkpt lat="42.7105060" lon="-8.6473130">
        <ele>31.2</ele>
        <time>2021-05-23T09:29:43Z</time>
      </trkpt>
      <trkpt lat="42.7105000" lon="-8.6473110">
        <ele>31.2</ele>
        <time>2021-05-23T09:29:44Z</time>
      </trkpt>
      <trkpt lat="42.7104970" lon="-8.6473130">
        <ele>31.2</ele>
        <time>2021-05-23T09:29:45Z</time>
      </trkpt>
      <trkpt lat="42.7104900" lon="-8.6473140">
        <ele>31.2</ele>
        <time>2021-05-23T09:29:46Z</time>
      </trkpt>
      <trkpt lat="42.7104850" lon="-8.6473110">
        <ele>31.2</ele>
        <time>2021-05-23T09:29:47Z</time>
      </trkpt>
      <trkpt lat="42.7104840" lon="-8.6473110">
        <ele>31.2</ele>
        <time>2021-05-23T09:29:48Z</time>
      </trkpt>
      <trkpt lat="42.7104820" lon="-8.6473090">
        <ele>31.2</ele>
        <time>2021-05-23T09:29:49Z</time>
      </trkpt>
      <trkpt lat="42.7104790" lon="-8.6473090">
        <ele>31.2</ele>
        <time>2021-05-23T09:29:50Z</time>
      </trkpt>
      <trkpt lat="42.7104750" lon="-8.6473020">
        <ele>31.2</ele>
        <time>2021-05-23T09:29:51Z</time>
      </trkpt>
      <trkpt lat="42.7104780" lon="-8.6473030">
        <ele>31.2</ele>
        <time>2021-05-23T09:29:52Z</time>
      </trkpt>
      <trkpt lat="42.7104740" lon="-8.6473040">
        <ele>31.2</ele>
        <time>2021-05-23T09:29:53Z</time>
      </trkpt>
      <trkpt lat="42.7104600" lon="-8.6473020">
        <ele>31.2</ele>
        <time>2021-05-23T09:29:54Z</time>
      </trkpt>
      <trkpt lat="42.7104600" lon="-8.6472990">
        <ele>31.2</ele>
        <time>2021-05-23T09:29:55Z</time>
      </trkpt>
      <trkpt lat="42.7104700" lon="-8.6473050">
        <ele>31.2</ele>
        <time>2021-05-23T09:29:56Z</time>
      </trkpt>
      <trkpt lat="42.7104750" lon="-8.6473040">
        <ele>31.1</ele>
        <time>2021-05-23T09:29:57Z</time>
      </trkpt>
      <trkpt lat="42.7104790" lon="-8.6473040">
        <ele>31.1</ele>
        <time>2021-05-23T09:29:58Z</time>
      </trkpt>
      <trkpt lat="42.7104840" lon="-8.6473020">
        <ele>31.1</ele>
        <time>2021-05-23T09:29:59Z</time>
      </trkpt>
      <trkpt lat="42.7104830" lon="-8.6473060">
        <ele>31.1</ele>
        <time>2021-05-23T09:30:00Z</time>
      </trkpt>
      <trkpt lat="42.7104860" lon="-8.6473100">
        <ele>31.1</ele>
        <time>2021-05-23T09:30:01Z</time>
      </trkpt>
      <trkpt lat="42.7104870" lon="-8.6473090">
        <ele>31.1</ele>
        <time>2021-05-23T09:30:02Z</time>
      </trkpt>
      <trkpt lat="42.7104860" lon="-8.6473090">
        <ele>31.1</ele>
        <time>2021-05-23T09:30:03Z</time>
      </trkpt>
      <trkpt lat="42.7104880" lon="-8.6473190">
        <ele>31.1</ele>
        <time>2021-05-23T09:30:04Z</time>
      </trkpt>
      <trkpt lat="42.7104920" lon="-8.6473220">
        <ele>31.1</ele>
        <time>2021-05-23T09:30:05Z</time>
      </trkpt>
      <trkpt lat="42.7104880" lon="-8.6473230">
        <ele>31.1</ele>
        <time>2021-05-23T09:30:06Z</time>
      </trkpt>
      <trkpt lat="42.7104860" lon="-8.6473260">
        <ele>31.1</ele>
        <time>2021-05-23T09:30:07Z</time>
      </trkpt>
      <trkpt lat="42.7104830" lon="-8.6473300">
        <ele>31.1</ele>
        <time>2021-05-23T09:30:08Z</time>
      </trkpt>
      <trkpt lat="42.7104810" lon="-8.6473320">
        <ele>31.1</ele>
        <time>2021-05-23T09:30:09Z</time>
      </trkpt>
      <trkpt lat="42.7104810" lon="-8.6473320">
        <ele>31.1</ele>
        <time>2021-05-23T09:30:10Z</time>
      </trkpt>
      <trkpt lat="42.7104800" lon="-8.6473340">
        <ele>31.1</ele>
        <time>2021-05-23T09:30:11Z</time>
      </trkpt>
      <trkpt lat="42.7104790" lon="-8.6473330">
        <ele>31.1</ele>
        <time>2021-05-23T09:30:12Z</time>
      </trkpt>
      <trkpt lat="42.7104720" lon="-8.6473270">
        <ele>31.1</ele>
        <time>2021-05-23T09:30:13Z</time>
      </trkpt>
      <trkpt lat="42.7104710" lon="-8.6473220">
        <ele>31.1</ele>
        <time>2021-05-23T09:30:14Z</time>
      </trkpt>
      <trkpt lat="42.7104810" lon="-8.6473180">
        <ele>31.1</ele>
        <time>2021-05-23T09:30:15Z</time>
      </trkpt>
      <trkpt lat="42.7104820" lon="-8.6473210">
        <ele>31.1</ele>
        <time>2021-05-23T09:30:16Z</time>
      </trkpt>
      <trkpt lat="42.7104900" lon="-8.6473250">
        <ele>31.1</ele>
        <time>2021-05-23T09:30:17Z</time>
      </trkpt>
      <trkpt lat="42.7104910" lon="-8.6473180">
        <ele>31.1</ele>
        <time>2021-05-23T09:30:18Z</time>
      </trkpt>
      <trkpt lat="42.7104950" lon="-8.6473130">
        <ele>31.1</ele>
        <time>2021-05-23T09:30:19Z</time>
      </trkpt>
      <trkpt lat="42.7105000" lon="-8.6473190">
        <ele>31.1</ele>
        <time>2021-05-23T09:30:20Z</time>
      </trkpt>
      <trkpt lat="42.7105080" lon="-8.6473140">
        <ele>31.1</ele>
        <time>2021-05-23T09:30:21Z</time>
      </trkpt>
      <trkpt lat="42.7105100" lon="-8.6473130">
        <ele>31.1</ele>
        <time>2021-05-23T09:30:22Z</time>
      </trkpt>
      <trkpt lat="42.7105080" lon="-8.6473100">
        <ele>31.1</ele>
        <time>2021-05-23T09:30:23Z</time>
      </trkpt>
      <trkpt lat="42.7105070" lon="-8.6473100">
        <ele>31.1</ele>
        <time>2021-05-23T09:30:24Z</time>
      </trkpt>
      <trkpt lat="42.7104990" lon="-8.6473050">
        <ele>31.1</ele>
        <time>2021-05-23T09:30:25Z</time>
      </trkpt>
      <trkpt lat="42.7104920" lon="-8.6473100">
        <ele>31.0</ele>
        <time>2021-05-23T09:30:26Z</time>
      </trkpt>
      <trkpt lat="42.7104910" lon="-8.6473080">
        <ele>31.0</ele>
        <time>2021-05-23T09:30:27Z</time>
      </trkpt>
      <trkpt lat="42.7104880" lon="-8.6473080">
        <ele>31.0</ele>
        <time>2021-05-23T09:30:28Z</time>
      </trkpt>
      <trkpt lat="42.7104900" lon="-8.6473060">
        <ele>31.0</ele>
        <time>2021-05-23T09:30:29Z</time>
      </trkpt>
      <trkpt lat="42.7104900" lon="-8.6473070">
        <ele>31.0</ele>
        <time>2021-05-23T09:30:30Z</time>
      </trkpt>
      <trkpt lat="42.7104890" lon="-8.6473110">
        <ele>31.0</ele>
        <time>2021-05-23T09:30:31Z</time>
      </trkpt>
      <trkpt lat="42.7104850" lon="-8.6473090">
        <ele>31.0</ele>
        <time>2021-05-23T09:30:32Z</time>
      </trkpt>
      <trkpt lat="42.7104930" lon="-8.6473060">
        <ele>31.0</ele>
        <time>2021-05-23T09:30:33Z</time>
      </trkpt>
      <trkpt lat="42.7104890" lon="-8.6473090">
        <ele>31.0</ele>
        <time>2021-05-23T09:30:34Z</time>
      </trkpt>
      <trkpt lat="42.7104690" lon="-8.6473100">
        <ele>31.0</ele>
        <time>2021-05-23T09:30:35Z</time>
      </trkpt>
      <trkpt lat="42.7104690" lon="-8.6473150">
        <ele>31.0</ele>
        <time>2021-05-23T09:30:36Z</time>
      </trkpt>
      <trkpt lat="42.7104680" lon="-8.6473030">
        <ele>31.0</ele>
        <time>2021-05-23T09:30:37Z</time>
      </trkpt>
      <trkpt lat="42.7104590" lon="-8.6473080">
        <ele>31.0</ele>
        <time>2021-05-23T09:30:38Z</time>
      </trkpt>
      <trkpt lat="42.7104490" lon="-8.6473100">
        <ele>31.0</ele>
        <time>2021-05-23T09:30:39Z</time>
      </trkpt>
      <trkpt lat="42.7104450" lon="-8.6472970">
        <ele>31.0</ele>
        <time>2021-05-23T09:30:40Z</time>
      </trkpt>
      <trkpt lat="42.7104340" lon="-8.6472940">
        <ele>31.0</ele>
        <time>2021-05-23T09:30:41Z</time>
      </trkpt>
      <trkpt lat="42.7104310" lon="-8.6472960">
        <ele>31.0</ele>
        <time>2021-05-23T09:30:42Z</time>
      </trkpt>
      <trkpt lat="42.7104220" lon="-8.6472980">
        <ele>31.0</ele>
        <time>2021-05-23T09:30:43Z</time>
      </trkpt>
      <trkpt lat="42.7104190" lon="-8.6473010">
        <ele>31.0</ele>
        <time>2021-05-23T09:30:44Z</time>
      </trkpt>
      <trkpt lat="42.7104240" lon="-8.6473030">
        <ele>31.0</ele>
        <time>2021-05-23T09:30:45Z</time>
      </trkpt>
      <trkpt lat="42.7104190" lon="-8.6473050">
        <ele>31.0</ele>
        <time>2021-05-23T09:30:46Z</time>
      </trkpt>
      <trkpt lat="42.7104180" lon="-8.6473080">
        <ele>31.0</ele>
        <time>2021-05-23T09:30:47Z</time>
      </trkpt>
      <trkpt lat="42.7104160" lon="-8.6473050">
        <ele>30.9</ele>
        <time>2021-05-23T09:30:48Z</time>
      </trkpt>
      <trkpt lat="42.7104140" lon="-8.6473040">
        <ele>30.9</ele>
        <time>2021-05-23T09:30:49Z</time>
      </trkpt>
      <trkpt lat="42.7104160" lon="-8.6473050">
        <ele>30.9</ele>
        <time>2021-05-23T09:30:50Z</time>
      </trkpt>
      <trkpt lat="42.7104330" lon="-8.6473240">
        <ele>30.9</ele>
        <time>2021-05-23T09:30:51Z</time>
      </trkpt>
      <trkpt lat="42.7104290" lon="-8.6473240">
        <ele>30.9</ele>
        <time>2021-05-23T09:30:52Z</time>
      </trkpt>
      <trkpt lat="42.7104310" lon="-8.6473320">
        <ele>30.9</ele>
        <time>2021-05-23T09:30:53Z</time>
      </trkpt>
      <trkpt lat="42.7104330" lon="-8.6473230">
        <ele>30.9</ele>
        <time>2021-05-23T09:30:54Z</time>
      </trkpt>
      <trkpt lat="42.7104260" lon="-8.6473070">
        <ele>30.9</ele>
        <time>2021-05-23T09:30:55Z</time>
      </trkpt>
      <trkpt lat="42.7104040" lon="-8.6473080">
        <ele>30.9</ele>
        <time>2021-05-23T09:30:56Z</time>
      </trkpt>
      <trkpt lat="42.7104140" lon="-8.6473040">
        <ele>30.9</ele>
        <time>2021-05-23T09:30:57Z</time>
      </trkpt>
      <trkpt lat="42.7104100" lon="-8.6473060">
        <ele>30.9</ele>
        <time>2021-05-23T09:30:58Z</time>
      </trkpt>
      <trkpt lat="42.7104090" lon="-8.6472970">
        <ele>30.9</ele>
        <time>2021-05-23T09:30:59Z</time>
      </trkpt>
      <trkpt lat="42.7104070" lon="-8.6472990">
        <ele>30.9</ele>
        <time>2021-05-23T09:31:00Z</time>
      </trkpt>
      <trkpt lat="42.7103900" lon="-8.6472830">
        <ele>30.9</ele>
        <time>2021-05-23T09:31:01Z</time>
      </trkpt>
      <trkpt lat="42.7103740" lon="-8.6472780">
        <ele>30.9</ele>
        <time>2021-05-23T09:31:02Z</time>
      </trkpt>
      <trkpt lat="42.7103610" lon="-8.6472730">
        <ele>30.9</ele>
        <time>2021-05-23T09:31:03Z</time>
      </trkpt>
      <trkpt lat="42.7103530" lon="-8.6472780">
        <ele>30.9</ele>
        <time>2021-05-23T09:31:04Z</time>
      </trkpt>
      <trkpt lat="42.7103420" lon="-8.6472800">
        <ele>30.8</ele>
        <time>2021-05-23T09:31:05Z</time>
      </trkpt>
      <trkpt lat="42.7103290" lon="-8.6472830">
        <ele>30.8</ele>
        <time>2021-05-23T09:31:06Z</time>
      </trkpt>
      <trkpt lat="42.7103070" lon="-8.6472860">
        <ele>30.8</ele>
        <time>2021-05-23T09:31:07Z</time>
      </trkpt>
      <trkpt lat="42.7102990" lon="-8.6472860">
        <ele>30.8</ele>
        <time>2021-05-23T09:31:08Z</time>
      </trkpt>
      <trkpt lat="42.7102900" lon="-8.6472860">
        <ele>30.8</ele>
        <time>2021-05-23T09:31:09Z</time>
      </trkpt>
      <trkpt lat="42.7102750" lon="-8.6472850">
        <ele>30.8</ele>
        <time>2021-05-23T09:31:10Z</time>
      </trkpt>
      <trkpt lat="42.7102640" lon="-8.6472920">
        <ele>30.8</ele>
        <time>2021-05-23T09:31:11Z</time>
      </trkpt>
      <trkpt lat="42.7102560" lon="-8.6472950">
        <ele>30.8</ele>
        <time>2021-05-23T09:31:12Z</time>
      </trkpt>
      <trkpt lat="42.7102470" lon="-8.6473030">
        <ele>30.8</ele>
        <time>2021-05-23T09:31:13Z</time>
      </trkpt>
      <trkpt lat="42.7102340" lon="-8.6473060">
        <ele>30.8</ele>
        <time>2021-05-23T09:31:14Z</time>
      </trkpt>
      <trkpt lat="42.7102270" lon="-8.6473040">
        <ele>30.8</ele>
        <time>2021-05-23T09:31:15Z</time>
      </trkpt>
      <trkpt lat="42.7102140" lon="-8.6473010">
        <ele>30.8</ele>
        <time>2021-05-23T09:31:16Z</time>
      </trkpt>
      <trkpt lat="42.7102060" lon="-8.6473030">
        <ele>30.8</ele>
        <time>2021-05-23T09:31:17Z</time>
      </trkpt>
      <trkpt lat="42.7102000" lon="-8.6473050">
        <ele>30.8</ele>
        <time>2021-05-23T09:31:18Z</time>
      </trkpt>
      <trkpt lat="42.7101900" lon="-8.6473120">
        <ele>30.8</ele>
        <time>2021-05-23T09:31:19Z</time>
      </trkpt>
      <trkpt lat="42.7101790" lon="-8.6473200">
        <ele>30.8</ele>
        <time>2021-05-23T09:31:20Z</time>
      </trkpt>
      <trkpt lat="42.7101810" lon="-8.6473290">
        <ele>30.8</ele>
        <time>2021-05-23T09:31:21Z</time>
      </trkpt>
      <trkpt lat="42.7101830" lon="-8.6473270">
        <ele>30.8</ele>
        <time>2021-05-23T09:31:22Z</time>
      </trkpt>
      <trkpt lat="42.7101810" lon="-8.6473270">
        <ele>30.8</ele>
        <time>2021-05-23T09:31:23Z</time>
      </trkpt>
      <trkpt lat="42.7101760" lon="-8.6473260">
        <ele>30.8</ele>
        <time>2021-05-23T09:31:24Z</time>
      </trkpt>
      <trkpt lat="42.7101770" lon="-8.6473260">
        <ele>30.8</ele>
        <time>2021-05-23T09:31:25Z</time>
      </trkpt>
      <trkpt lat="42.7101770" lon="-8.6473250">
        <ele>30.8</ele>
        <time>2021-05-23T09:31:26Z</time>
      </trkpt>
      <trkpt lat="42.7101810" lon="-8.6473220">
        <ele>30.8</ele>
        <time>2021-05-23T09:31:27Z</time>
      </trkpt>
      <trkpt lat="42.7101790" lon="-8.6473190">
        <ele>30.8</ele>
        <time>2021-05-23T09:31:28Z</time>
      </trkpt>
      <trkpt lat="42.7101790" lon="-8.6473150">
        <ele>30.8</ele>
        <time>2021-05-23T09:31:29Z</time>
      </trkpt>
      <trkpt lat="42.7101800" lon="-8.6473080">
        <ele>30.8</ele>
        <time>2021-05-23T09:31:30Z</time>
      </trkpt>
      <trkpt lat="42.7101780" lon="-8.6473010">
        <ele>30.8</ele>
        <time>2021-05-23T09:31:31Z</time>
      </trkpt>
      <trkpt lat="42.7101770" lon="-8.6472940">
        <ele>30.8</ele>
        <time>2021-05-23T09:31:32Z</time>
      </trkpt>
      <trkpt lat="42.7101730" lon="-8.6473010">
        <ele>30.8</ele>
        <time>2021-05-23T09:31:33Z</time>
      </trkpt>
      <trkpt lat="42.7101710" lon="-8.6472970">
        <ele>30.8</ele>
        <time>2021-05-23T09:31:34Z</time>
      </trkpt>
      <trkpt lat="42.7101670" lon="-8.6472940">
        <ele>30.8</ele>
        <time>2021-05-23T09:31:35Z</time>
      </trkpt>
      <trkpt lat="42.7101630" lon="-8.6473000">
        <ele>30.8</ele>
        <time>2021-05-23T09:31:36Z</time>
      </trkpt>
      <trkpt lat="42.7101650" lon="-8.6472920">
        <ele>30.8</ele>
        <time>2021-05-23T09:31:37Z</time>
      </trkpt>
      <trkpt lat="42.7101650" lon="-8.6472960">
        <ele>30.8</ele>
        <time>2021-05-23T09:31:38Z</time>
      </trkpt>
      <trkpt lat="42.7101670" lon="-8.6473010">
        <ele>30.8</ele>
        <time>2021-05-23T09:31:39Z</time>
      </trkpt>
      <trkpt lat="42.7101660" lon="-8.6473070">
        <ele>30.8</ele>
        <time>2021-05-23T09:31:40Z</time>
      </trkpt>
      <trkpt lat="42.7101710" lon="-8.6473100">
        <ele>30.8</ele>
        <time>2021-05-23T09:31:41Z</time>
      </trkpt>
      <trkpt lat="42.7101710" lon="-8.6473170">
        <ele>30.8</ele>
        <time>2021-05-23T09:31:42Z</time>
      </trkpt>
      <trkpt lat="42.7101740" lon="-8.6473160">
        <ele>30.8</ele>
        <time>2021-05-23T09:31:43Z</time>
      </trkpt>
      <trkpt lat="42.7101780" lon="-8.6473120">
        <ele>30.8</ele>
        <time>2021-05-23T09:31:44Z</time>
      </trkpt>
      <trkpt lat="42.7101780" lon="-8.6473110">
        <ele>30.8</ele>
        <time>2021-05-23T09:31:45Z</time>
      </trkpt>
      <trkpt lat="42.7101780" lon="-8.6473120">
        <ele>30.8</ele>
        <time>2021-05-23T09:31:46Z</time>
      </trkpt>
      <trkpt lat="42.7101780" lon="-8.6473140">
        <ele>30.8</ele>
        <time>2021-05-23T09:31:47Z</time>
      </trkpt>
      <trkpt lat="42.7101740" lon="-8.6473170">
        <ele>30.8</ele>
        <time>2021-05-23T09:31:48Z</time>
      </trkpt>
      <trkpt lat="42.7101770" lon="-8.6473210">
        <ele>30.8</ele>
        <time>2021-05-23T09:31:49Z</time>
      </trkpt>
      <trkpt lat="42.7101800" lon="-8.6473200">
        <ele>30.8</ele>
        <time>2021-05-23T09:31:50Z</time>
      </trkpt>
      <trkpt lat="42.7101900" lon="-8.6473230">
        <ele>30.8</ele>
        <time>2021-05-23T09:31:51Z</time>
      </trkpt>
      <trkpt lat="42.7101900" lon="-8.6473230">
        <ele>30.8</ele>
        <time>2021-05-23T09:31:52Z</time>
      </trkpt>
      <trkpt lat="42.7101900" lon="-8.6473240">
        <ele>30.8</ele>
        <time>2021-05-23T09:31:53Z</time>
      </trkpt>
      <trkpt lat="42.7101930" lon="-8.6473250">
        <ele>30.8</ele>
        <time>2021-05-23T09:31:54Z</time>
      </trkpt>
      <trkpt lat="42.7101980" lon="-8.6473240">
        <ele>30.8</ele>
        <time>2021-05-23T09:31:55Z</time>
      </trkpt>
      <trkpt lat="42.7102030" lon="-8.6473270">
        <ele>30.8</ele>
        <time>2021-05-23T09:31:56Z</time>
      </trkpt>
      <trkpt lat="42.7102120" lon="-8.6473290">
        <ele>30.8</ele>
        <time>2021-05-23T09:31:57Z</time>
      </trkpt>
      <trkpt lat="42.7102170" lon="-8.6473270">
        <ele>30.8</ele>
        <time>2021-05-23T09:31:58Z</time>
      </trkpt>
      <trkpt lat="42.7102200" lon="-8.6473280">
        <ele>30.8</ele>
        <time>2021-05-23T09:31:59Z</time>
      </trkpt>
      <trkpt lat="42.7102290" lon="-8.6473260">
        <ele>30.8</ele>
        <time>2021-05-23T09:32:00Z</time>
      </trkpt>
      <trkpt lat="42.7102370" lon="-8.6473260">
        <ele>30.8</ele>
        <time>2021-05-23T09:32:01Z</time>
      </trkpt>
      <trkpt lat="42.7102450" lon="-8.6473260">
        <ele>30.8</ele>
        <time>2021-05-23T09:32:02Z</time>
      </trkpt>
      <trkpt lat="42.7102460" lon="-8.6473290">
        <ele>30.8</ele>
        <time>2021-05-23T09:32:03Z</time>
      </trkpt>
      <trkpt lat="42.7102510" lon="-8.6473260">
        <ele>30.8</ele>
        <time>2021-05-23T09:32:04Z</time>
      </trkpt>
      <trkpt lat="42.7102510" lon="-8.6473250">
        <ele>30.8</ele>
        <time>2021-05-23T09:32:05Z</time>
      </trkpt>
      <trkpt lat="42.7102450" lon="-8.6473230">
        <ele>30.8</ele>
        <time>2021-05-23T09:32:06Z</time>
      </trkpt>
      <trkpt lat="42.7102360" lon="-8.6473240">
        <ele>30.8</ele>
        <time>2021-05-23T09:32:07Z</time>
      </trkpt>
      <trkpt lat="42.7102270" lon="-8.6473170">
        <ele>30.8</ele>
        <time>2021-05-23T09:32:08Z</time>
      </trkpt>
      <trkpt lat="42.7102170" lon="-8.6473180">
        <ele>30.8</ele>
        <time>2021-05-23T09:32:09Z</time>
      </trkpt>
      <trkpt lat="42.7102010" lon="-8.6473210">
        <ele>30.8</ele>
        <time>2021-05-23T09:32:10Z</time>
      </trkpt>
      <trkpt lat="42.7101950" lon="-8.6473180">
        <ele>30.8</ele>
        <time>2021-05-23T09:32:11Z</time>
      </trkpt>
      <trkpt lat="42.7101900" lon="-8.6473150">
        <ele>30.8</ele>
        <time>2021-05-23T09:32:12Z</time>
      </trkpt>
      <trkpt lat="42.7101890" lon="-8.6473110">
        <ele>30.8</ele>
        <time>2021-05-23T09:32:13Z</time>
      </trkpt>
      <trkpt lat="42.7101870" lon="-8.6473060">
        <ele>30.8</ele>
        <time>2021-05-23T09:32:14Z</time>
      </trkpt>
      <trkpt lat="42.7101890" lon="-8.6473060">
        <ele>30.8</ele>
        <time>2021-05-23T09:32:15Z</time>
      </trkpt>
      <trkpt lat="42.7101890" lon="-8.6473020">
        <ele>30.8</ele>
        <time>2021-05-23T09:32:16Z</time>
      </trkpt>
      <trkpt lat="42.7101840" lon="-8.6472970">
        <ele>30.8</ele>
        <time>2021-05-23T09:32:17Z</time>
      </trkpt>
      <trkpt lat="42.7101810" lon="-8.6472950">
        <ele>30.8</ele>
        <time>2021-05-23T09:32:18Z</time>
      </trkpt>
      <trkpt lat="42.7101820" lon="-8.6472960">
        <ele>30.8</ele>
        <time>2021-05-23T09:32:19Z</time>
      </trkpt>
      <trkpt lat="42.7101780" lon="-8.6472940">
        <ele>30.8</ele>
        <time>2021-05-23T09:32:20Z</time>
      </trkpt>
      <trkpt lat="42.7101750" lon="-8.6472910">
        <ele>30.8</ele>
        <time>2021-05-23T09:32:21Z</time>
      </trkpt>
      <trkpt lat="42.7101750" lon="-8.6472940">
        <ele>30.8</ele>
        <time>2021-05-23T09:32:22Z</time>
      </trkpt>
      <trkpt lat="42.7101700" lon="-8.6472920">
        <ele>30.8</ele>
        <time>2021-05-23T09:32:23Z</time>
      </trkpt>
      <trkpt lat="42.7101660" lon="-8.6472940">
        <ele>30.8</ele>
        <time>2021-05-23T09:32:24Z</time>
      </trkpt>
      <trkpt lat="42.7101630" lon="-8.6472930">
        <ele>30.8</ele>
        <time>2021-05-23T09:32:25Z</time>
      </trkpt>
      <trkpt lat="42.7101610" lon="-8.6472910">
        <ele>30.8</ele>
        <time>2021-05-23T09:32:26Z</time>
      </trkpt>
      <trkpt lat="42.7101610" lon="-8.6472910">
        <ele>30.8</ele>
        <time>2021-05-23T09:32:27Z</time>
      </trkpt>
      <trkpt lat="42.7101610" lon="-8.6472910">
        <ele>30.8</ele>
        <time>2021-05-23T09:32:28Z</time>
      </trkpt>
      <trkpt lat="42.7101560" lon="-8.6472870">
        <ele>30.8</ele>
        <time>2021-05-23T09:32:29Z</time>
      </trkpt>
      <trkpt lat="42.7101560" lon="-8.6472860">
        <ele>30.8</ele>
        <time>2021-05-23T09:32:30Z</time>
      </trkpt>
      <trkpt lat="42.7101620" lon="-8.6472850">
        <ele>30.8</ele>
        <time>2021-05-23T09:32:31Z</time>
      </trkpt>
      <trkpt lat="42.7101630" lon="-8.6472830">
        <ele>30.8</ele>
        <time>2021-05-23T09:32:32Z</time>
      </trkpt>
      <trkpt lat="42.7101650" lon="-8.6472790">
        <ele>30.8</ele>
        <time>2021-05-23T09:32:33Z</time>
      </trkpt>
      <trkpt lat="42.7101710" lon="-8.6472800">
        <ele>30.8</ele>
        <time>2021-05-23T09:32:34Z</time>
      </trkpt>
      <trkpt lat="42.7101820" lon="-8.6472760">
        <ele>30.8</ele>
        <time>2021-05-23T09:32:35Z</time>
      </trkpt>
      <trkpt lat="42.7101840" lon="-8.6472750">
        <ele>30.8</ele>
        <time>2021-05-23T09:32:36Z</time>
      </trkpt>
      <trkpt lat="42.7101840" lon="-8.6472760">
        <ele>30.8</ele>
        <time>2021-05-23T09:32:37Z</time>
      </trkpt>
      <trkpt lat="42.7101850" lon="-8.6472800">
        <ele>30.8</ele>
        <time>2021-05-23T09:32:38Z</time>
      </trkpt>
      <trkpt lat="42.7101860" lon="-8.6472790">
        <ele>30.8</ele>
        <time>2021-05-23T09:32:39Z</time>
      </trkpt>
      <trkpt lat="42.7101860" lon="-8.6472760">
        <ele>30.8</ele>
        <time>2021-05-23T09:32:40Z</time>
      </trkpt>
      <trkpt lat="42.7101850" lon="-8.6472720">
        <ele>30.8</ele>
        <time>2021-05-23T09:32:41Z</time>
      </trkpt>
      <trkpt lat="42.7101870" lon="-8.6472680">
        <ele>30.8</ele>
        <time>2021-05-23T09:32:42Z</time>
      </trkpt>
      <trkpt lat="42.7101860" lon="-8.6472650">
        <ele>30.8</ele>
        <time>2021-05-23T09:32:43Z</time>
      </trkpt>
      <trkpt lat="42.7101850" lon="-8.6472600">
        <ele>30.8</ele>
        <time>2021-05-23T09:32:44Z</time>
      </trkpt>
      <trkpt lat="42.7101860" lon="-8.6472590">
        <ele>30.8</ele>
        <time>2021-05-23T09:32:45Z</time>
      </trkpt>
      <trkpt lat="42.7101830" lon="-8.6472630">
        <ele>30.8</ele>
        <time>2021-05-23T09:32:46Z</time>
      </trkpt>
      <trkpt lat="42.7101850" lon="-8.6472670">
        <ele>30.8</ele>
        <time>2021-05-23T09:32:47Z</time>
      </trkpt>
      <trkpt lat="42.7101870" lon="-8.6472720">
        <ele>30.8</ele>
        <time>2021-05-23T09:32:48Z</time>
      </trkpt>
      <trkpt lat="42.7101880" lon="-8.6472740">
        <ele>30.8</ele>
        <time>2021-05-23T09:32:49Z</time>
      </trkpt>
      <trkpt lat="42.7101910" lon="-8.6472730">
        <ele>30.8</ele>
        <time>2021-05-23T09:32:50Z</time>
      </trkpt>
      <trkpt lat="42.7101920" lon="-8.6472760">
        <ele>30.8</ele>
        <time>2021-05-23T09:32:51Z</time>
      </trkpt>
      <trkpt lat="42.7101900" lon="-8.6472760">
        <ele>30.8</ele>
        <time>2021-05-23T09:32:52Z</time>
      </trkpt>
      <trkpt lat="42.7101890" lon="-8.6472770">
        <ele>30.8</ele>
        <time>2021-05-23T09:32:53Z</time>
      </trkpt>
      <trkpt lat="42.7101870" lon="-8.6472750">
        <ele>30.8</ele>
        <time>2021-05-23T09:32:54Z</time>
      </trkpt>
      <trkpt lat="42.7101840" lon="-8.6472750">
        <ele>30.8</ele>
        <time>2021-05-23T09:32:55Z</time>
      </trkpt>
      <trkpt lat="42.7101810" lon="-8.6472780">
        <ele>30.8</ele>
        <time>2021-05-23T09:32:56Z</time>
      </trkpt>
      <trkpt lat="42.7101790" lon="-8.6472840">
        <ele>30.8</ele>
        <time>2021-05-23T09:32:57Z</time>
      </trkpt>
      <trkpt lat="42.7101780" lon="-8.6472870">
        <ele>30.8</ele>
        <time>2021-05-23T09:32:58Z</time>
      </trkpt>
      <trkpt lat="42.7101760" lon="-8.6472890">
        <ele>30.8</ele>
        <time>2021-05-23T09:32:59Z</time>
      </trkpt>
      <trkpt lat="42.7101750" lon="-8.6472900">
        <ele>30.8</ele>
        <time>2021-05-23T09:33:00Z</time>
      </trkpt>
      <trkpt lat="42.7101760" lon="-8.6472880">
        <ele>30.8</ele>
        <time>2021-05-23T09:33:01Z</time>
      </trkpt>
      <trkpt lat="42.7101760" lon="-8.6472910">
        <ele>30.8</ele>
        <time>2021-05-23T09:33:02Z</time>
      </trkpt>
      <trkpt lat="42.7101730" lon="-8.6472840">
        <ele>30.7</ele>
        <time>2021-05-23T09:33:04Z</time>
      </trkpt>
      <trkpt lat="42.7101640" lon="-8.6472900">
        <ele>30.7</ele>
        <time>2021-05-23T09:33:05Z</time>
      </trkpt>
      <trkpt lat="42.7101710" lon="-8.6472890">
        <ele>30.7</ele>
        <time>2021-05-23T09:33:06Z</time>
      </trkpt>
      <trkpt lat="42.7101770" lon="-8.6472940">
        <ele>30.7</ele>
        <time>2021-05-23T09:33:07Z</time>
      </trkpt>
      <trkpt lat="42.7101730" lon="-8.6472860">
        <ele>30.7</ele>
        <time>2021-05-23T09:33:08Z</time>
      </trkpt>
      <trkpt lat="42.7101710" lon="-8.6472900">
        <ele>30.7</ele>
        <time>2021-05-23T09:33:09Z</time>
      </trkpt>
      <trkpt lat="42.7101690" lon="-8.6472930">
        <ele>30.7</ele>
        <time>2021-05-23T09:33:11Z</time>
      </trkpt>
      <trkpt lat="42.7101670" lon="-8.6473010">
        <ele>30.7</ele>
        <time>2021-05-23T09:33:12Z</time>
      </trkpt>
      <trkpt lat="42.7101630" lon="-8.6473110">
        <ele>30.7</ele>
        <time>2021-05-23T09:33:13Z</time>
      </trkpt>
      <trkpt lat="42.7101630" lon="-8.6473160">
        <ele>30.7</ele>
        <time>2021-05-23T09:33:14Z</time>
      </trkpt>
      <trkpt lat="42.7101590" lon="-8.6473200">
        <ele>30.7</ele>
        <time>2021-05-23T09:33:15Z</time>
      </trkpt>
      <trkpt lat="42.7101590" lon="-8.6473250">
        <ele>30.7</ele>
        <time>2021-05-23T09:33:16Z</time>
      </trkpt>
      <trkpt lat="42.7101600" lon="-8.6473290">
        <ele>30.7</ele>
        <time>2021-05-23T09:33:17Z</time>
      </trkpt>
      <trkpt lat="42.7101600" lon="-8.6473310">
        <ele>30.7</ele>
        <time>2021-05-23T09:33:18Z</time>
      </trkpt>
      <trkpt lat="42.7101610" lon="-8.6473320">
        <ele>30.7</ele>
        <time>2021-05-23T09:33:19Z</time>
      </trkpt>
      <trkpt lat="42.7101620" lon="-8.6473350">
        <ele>30.7</ele>
        <time>2021-05-23T09:33:20Z</time>
      </trkpt>
      <trkpt lat="42.7101660" lon="-8.6473360">
        <ele>30.7</ele>
        <time>2021-05-23T09:33:21Z</time>
      </trkpt>
      <trkpt lat="42.7101690" lon="-8.6473380">
        <ele>30.7</ele>
        <time>2021-05-23T09:33:22Z</time>
      </trkpt>
      <trkpt lat="42.7101660" lon="-8.6473380">
        <ele>30.7</ele>
        <time>2021-05-23T09:33:23Z</time>
      </trkpt>
      <trkpt lat="42.7101650" lon="-8.6473400">
        <ele>30.7</ele>
        <time>2021-05-23T09:33:24Z</time>
      </trkpt>
      <trkpt lat="42.7101640" lon="-8.6473390">
        <ele>30.7</ele>
        <time>2021-05-23T09:33:25Z</time>
      </trkpt>
      <trkpt lat="42.7101630" lon="-8.6473350">
        <ele>30.7</ele>
        <time>2021-05-23T09:33:26Z</time>
      </trkpt>
      <trkpt lat="42.7101640" lon="-8.6473320">
        <ele>30.7</ele>
        <time>2021-05-23T09:33:27Z</time>
      </trkpt>
      <trkpt lat="42.7101700" lon="-8.6473290">
        <ele>30.7</ele>
        <time>2021-05-23T09:33:28Z</time>
      </trkpt>
      <trkpt lat="42.7101700" lon="-8.6473290">
        <ele>30.7</ele>
        <time>2021-05-23T09:33:29Z</time>
      </trkpt>
      <trkpt lat="42.7101700" lon="-8.6473290">
        <ele>30.7</ele>
        <time>2021-05-23T09:33:30Z</time>
      </trkpt>
      <trkpt lat="42.7101780" lon="-8.6473210">
        <ele>30.7</ele>
        <time>2021-05-23T09:33:31Z</time>
      </trkpt>
      <trkpt lat="42.7101800" lon="-8.6473210">
        <ele>30.7</ele>
        <time>2021-05-23T09:33:32Z</time>
      </trkpt>
      <trkpt lat="42.7101850" lon="-8.6473230">
        <ele>30.7</ele>
        <time>2021-05-23T09:33:33Z</time>
      </trkpt>
      <trkpt lat="42.7101900" lon="-8.6473270">
        <ele>30.7</ele>
        <time>2021-05-23T09:33:34Z</time>
      </trkpt>
      <trkpt lat="42.7101900" lon="-8.6473300">
        <ele>30.7</ele>
        <time>2021-05-23T09:33:35Z</time>
      </trkpt>
      <trkpt lat="42.7101940" lon="-8.6473310">
        <ele>30.7</ele>
        <time>2021-05-23T09:33:36Z</time>
      </trkpt>
      <trkpt lat="42.7101980" lon="-8.6473300">
        <ele>30.7</ele>
        <time>2021-05-23T09:33:37Z</time>
      </trkpt>
      <trkpt lat="42.7102040" lon="-8.6473260">
        <ele>30.7</ele>
        <time>2021-05-23T09:33:38Z</time>
      </trkpt>
      <trkpt lat="42.7102050" lon="-8.6473250">
        <ele>30.7</ele>
        <time>2021-05-23T09:33:39Z</time>
      </trkpt>
      <trkpt lat="42.7102140" lon="-8.6473280">
        <ele>30.7</ele>
        <time>2021-05-23T09:33:40Z</time>
      </trkpt>
      <trkpt lat="42.7102130" lon="-8.6473220">
        <ele>30.7</ele>
        <time>2021-05-23T09:33:41Z</time>
      </trkpt>
      <trkpt lat="42.7102110" lon="-8.6473130">
        <ele>30.7</ele>
        <time>2021-05-23T09:33:42Z</time>
      </trkpt>
      <trkpt lat="42.7102080" lon="-8.6473090">
        <ele>30.7</ele>
        <time>2021-05-23T09:33:43Z</time>
      </trkpt>
      <trkpt lat="42.7102090" lon="-8.6473000">
        <ele>30.7</ele>
        <time>2021-05-23T09:33:44Z</time>
      </trkpt>
      <trkpt lat="42.7102120" lon="-8.6473030">
        <ele>30.7</ele>
        <time>2021-05-23T09:33:45Z</time>
      </trkpt>
      <trkpt lat="42.7102100" lon="-8.6473000">
        <ele>30.7</ele>
        <time>2021-05-23T09:33:46Z</time>
      </trkpt>
      <trkpt lat="42.7102110" lon="-8.6472970">
        <ele>30.7</ele>
        <time>2021-05-23T09:33:47Z</time>
      </trkpt>
      <trkpt lat="42.7102120" lon="-8.6472880">
        <ele>30.7</ele>
        <time>2021-05-23T09:33:48Z</time>
      </trkpt>
      <trkpt lat="42.7102120" lon="-8.6472880">
        <ele>30.7</ele>
        <time>2021-05-23T09:33:49Z</time>
      </trkpt>
      <trkpt lat="42.7102130" lon="-8.6472900">
        <ele>30.7</ele>
        <time>2021-05-23T09:33:50Z</time>
      </trkpt>
      <trkpt lat="42.7102120" lon="-8.6472880">
        <ele>30.7</ele>
        <time>2021-05-23T09:33:51Z</time>
      </trkpt>
      <trkpt lat="42.7102120" lon="-8.6472780">
        <ele>30.7</ele>
        <time>2021-05-23T09:33:52Z</time>
      </trkpt>
      <trkpt lat="42.7102100" lon="-8.6472660">
        <ele>30.7</ele>
        <time>2021-05-23T09:33:53Z</time>
      </trkpt>
      <trkpt lat="42.7102050" lon="-8.6472570">
        <ele>30.7</ele>
        <time>2021-05-23T09:33:54Z</time>
      </trkpt>
      <trkpt lat="42.7102060" lon="-8.6472520">
        <ele>30.7</ele>
        <time>2021-05-23T09:33:55Z</time>
      </trkpt>
      <trkpt lat="42.7102070" lon="-8.6472510">
        <ele>30.7</ele>
        <time>2021-05-23T09:33:56Z</time>
      </trkpt>
      <trkpt lat="42.7102060" lon="-8.6472520">
        <ele>30.7</ele>
        <time>2021-05-23T09:33:57Z</time>
      </trkpt>
      <trkpt lat="42.7102040" lon="-8.6472480">
        <ele>30.7</ele>
        <time>2021-05-23T09:33:58Z</time>
      </trkpt>
      <trkpt lat="42.7102040" lon="-8.6472480">
        <ele>30.7</ele>
        <time>2021-05-23T09:33:59Z</time>
      </trkpt>
      <trkpt lat="42.7102040" lon="-8.6472450">
        <ele>30.7</ele>
        <time>2021-05-23T09:34:00Z</time>
      </trkpt>
      <trkpt lat="42.7102040" lon="-8.6472400">
        <ele>30.7</ele>
        <time>2021-05-23T09:34:01Z</time>
      </trkpt>
      <trkpt lat="42.7102040" lon="-8.6472400">
        <ele>30.7</ele>
        <time>2021-05-23T09:34:02Z</time>
      </trkpt>
      <trkpt lat="42.7102040" lon="-8.6472400">
        <ele>30.7</ele>
        <time>2021-05-23T09:34:03Z</time>
      </trkpt>
      <trkpt lat="42.7102080" lon="-8.6472460">
        <ele>30.7</ele>
        <time>2021-05-23T09:34:04Z</time>
      </trkpt>
      <trkpt lat="42.7102090" lon="-8.6472460">
        <ele>30.7</ele>
        <time>2021-05-23T09:34:05Z</time>
      </trkpt>
      <trkpt lat="42.7102060" lon="-8.6472420">
        <ele>30.7</ele>
        <time>2021-05-23T09:34:06Z</time>
      </trkpt>
      <trkpt lat="42.7102060" lon="-8.6472360">
        <ele>30.7</ele>
        <time>2021-05-23T09:34:07Z</time>
      </trkpt>
      <trkpt lat="42.7102070" lon="-8.6472470">
        <ele>30.7</ele>
        <time>2021-05-23T09:34:08Z</time>
      </trkpt>
      <trkpt lat="42.7102100" lon="-8.6472430">
        <ele>30.7</ele>
        <time>2021-05-23T09:34:09Z</time>
      </trkpt>
      <trkpt lat="42.7102130" lon="-8.6472390">
        <ele>30.7</ele>
        <time>2021-05-23T09:34:10Z</time>
      </trkpt>
      <trkpt lat="42.7102100" lon="-8.6472310">
        <ele>30.7</ele>
        <time>2021-05-23T09:34:11Z</time>
      </trkpt>
      <trkpt lat="42.7102090" lon="-8.6472200">
        <ele>30.7</ele>
        <time>2021-05-23T09:34:12Z</time>
      </trkpt>
      <trkpt lat="42.7102070" lon="-8.6472250">
        <ele>30.7</ele>
        <time>2021-05-23T09:34:13Z</time>
      </trkpt>
      <trkpt lat="42.7102040" lon="-8.6472180">
        <ele>30.7</ele>
        <time>2021-05-23T09:34:14Z</time>
      </trkpt>
      <trkpt lat="42.7102010" lon="-8.6472210">
        <ele>30.7</ele>
        <time>2021-05-23T09:34:15Z</time>
      </trkpt>
      <trkpt lat="42.7101990" lon="-8.6472210">
        <ele>30.7</ele>
        <time>2021-05-23T09:34:16Z</time>
      </trkpt>
      <trkpt lat="42.7101970" lon="-8.6472200">
        <ele>30.7</ele>
        <time>2021-05-23T09:34:17Z</time>
      </trkpt>
      <trkpt lat="42.7101970" lon="-8.6472200">
        <ele>30.7</ele>
        <time>2021-05-23T09:34:18Z</time>
      </trkpt>
      <trkpt lat="42.7101980" lon="-8.6472220">
        <ele>30.7</ele>
        <time>2021-05-23T09:34:19Z</time>
      </trkpt>
      <trkpt lat="42.7101960" lon="-8.6472180">
        <ele>30.7</ele>
        <time>2021-05-23T09:34:20Z</time>
      </trkpt>
      <trkpt lat="42.7101960" lon="-8.6472100">
        <ele>30.7</ele>
        <time>2021-05-23T09:34:21Z</time>
      </trkpt>
      <trkpt lat="42.7101930" lon="-8.6472030">
        <ele>30.7</ele>
        <time>2021-05-23T09:34:22Z</time>
      </trkpt>
      <trkpt lat="42.7101940" lon="-8.6471980">
        <ele>30.7</ele>
        <time>2021-05-23T09:34:23Z</time>
      </trkpt>
      <trkpt lat="42.7101900" lon="-8.6472130">
        <ele>30.7</ele>
        <time>2021-05-23T09:34:24Z</time>
      </trkpt>
      <trkpt lat="42.7101970" lon="-8.6472380">
        <ele>30.7</ele>
        <time>2021-05-23T09:34:25Z</time>
      </trkpt>
      <trkpt lat="42.7102040" lon="-8.6472520">
        <ele>30.7</ele>
        <time>2021-05-23T09:34:26Z</time>
      </trkpt>
      <trkpt lat="42.7102060" lon="-8.6472620">
        <ele>30.7</ele>
        <time>2021-05-23T09:34:27Z</time>
      </trkpt>
      <trkpt lat="42.7102150" lon="-8.6472640">
        <ele>30.7</ele>
        <time>2021-05-23T09:34:28Z</time>
      </trkpt>
      <trkpt lat="42.7102240" lon="-8.6472670">
        <ele>30.7</ele>
        <time>2021-05-23T09:34:29Z</time>
      </trkpt>
      <trkpt lat="42.7102280" lon="-8.6472690">
        <ele>30.7</ele>
        <time>2021-05-23T09:34:30Z</time>
      </trkpt>
      <trkpt lat="42.7102340" lon="-8.6472700">
        <ele>30.7</ele>
        <time>2021-05-23T09:34:31Z</time>
      </trkpt>
      <trkpt lat="42.7102420" lon="-8.6472710">
        <ele>30.7</ele>
        <time>2021-05-23T09:34:32Z</time>
      </trkpt>
      <trkpt lat="42.7102470" lon="-8.6472730">
        <ele>30.7</ele>
        <time>2021-05-23T09:34:33Z</time>
      </trkpt>
      <trkpt lat="42.7102540" lon="-8.6472730">
        <ele>30.7</ele>
        <time>2021-05-23T09:34:34Z</time>
      </trkpt>
      <trkpt lat="42.7102640" lon="-8.6472730">
        <ele>30.7</ele>
        <time>2021-05-23T09:34:35Z</time>
      </trkpt>
      <trkpt lat="42.7102750" lon="-8.6472740">
        <ele>30.7</ele>
        <time>2021-05-23T09:34:36Z</time>
      </trkpt>
      <trkpt lat="42.7102880" lon="-8.6472710">
        <ele>30.7</ele>
        <time>2021-05-23T09:34:37Z</time>
      </trkpt>
      <trkpt lat="42.7102990" lon="-8.6472730">
        <ele>30.7</ele>
        <time>2021-05-23T09:34:38Z</time>
      </trkpt>
      <trkpt lat="42.7103130" lon="-8.6472760">
        <ele>30.7</ele>
        <time>2021-05-23T09:34:39Z</time>
      </trkpt>
      <trkpt lat="42.7103190" lon="-8.6472810">
        <ele>30.7</ele>
        <time>2021-05-23T09:34:40Z</time>
      </trkpt>
      <trkpt lat="42.7103350" lon="-8.6472740">
        <ele>30.7</ele>
        <time>2021-05-23T09:34:41Z</time>
      </trkpt>
      <trkpt lat="42.7103520" lon="-8.6472700">
        <ele>30.7</ele>
        <time>2021-05-23T09:34:42Z</time>
      </trkpt>
      <trkpt lat="42.7103580" lon="-8.6472710">
        <ele>30.7</ele>
        <time>2021-05-23T09:34:43Z</time>
      </trkpt>
      <trkpt lat="42.7103630" lon="-8.6472730">
        <ele>30.7</ele>
        <time>2021-05-23T09:34:44Z</time>
      </trkpt>
      <trkpt lat="42.7103690" lon="-8.6472740">
        <ele>30.7</ele>
        <time>2021-05-23T09:34:45Z</time>
      </trkpt>
      <trkpt lat="42.7103750" lon="-8.6472750">
        <ele>30.7</ele>
        <time>2021-05-23T09:34:46Z</time>
      </trkpt>
      <trkpt lat="42.7103810" lon="-8.6472800">
        <ele>30.7</ele>
        <time>2021-05-23T09:34:47Z</time>
      </trkpt>
      <trkpt lat="42.7103890" lon="-8.6472800">
        <ele>30.8</ele>
        <time>2021-05-23T09:34:48Z</time>
      </trkpt>
      <trkpt lat="42.7103970" lon="-8.6472810">
        <ele>30.8</ele>
        <time>2021-05-23T09:34:49Z</time>
      </trkpt>
      <trkpt lat="42.7104060" lon="-8.6472800">
        <ele>30.8</ele>
        <time>2021-05-23T09:34:50Z</time>
      </trkpt>
      <trkpt lat="42.7104120" lon="-8.6472810">
        <ele>30.8</ele>
        <time>2021-05-23T09:34:51Z</time>
      </trkpt>
      <trkpt lat="42.7104220" lon="-8.6472820">
        <ele>30.8</ele>
        <time>2021-05-23T09:34:52Z</time>
      </trkpt>
      <trkpt lat="42.7104240" lon="-8.6472850">
        <ele>30.8</ele>
        <time>2021-05-23T09:34:53Z</time>
      </trkpt>
      <trkpt lat="42.7104230" lon="-8.6472890">
        <ele>30.8</ele>
        <time>2021-05-23T09:34:54Z</time>
      </trkpt>
      <trkpt lat="42.7104270" lon="-8.6472980">
        <ele>30.8</ele>
        <time>2021-05-23T09:34:55Z</time>
      </trkpt>
      <trkpt lat="42.7104270" lon="-8.6473000">
        <ele>30.8</ele>
        <time>2021-05-23T09:34:56Z</time>
      </trkpt>
      <trkpt lat="42.7104280" lon="-8.6473030">
        <ele>30.8</ele>
        <time>2021-05-23T09:34:57Z</time>
      </trkpt>
      <trkpt lat="42.7104310" lon="-8.6473080">
        <ele>30.8</ele>
        <time>2021-05-23T09:34:58Z</time>
      </trkpt>
      <trkpt lat="42.7104350" lon="-8.6473070">
        <ele>30.8</ele>
        <time>2021-05-23T09:34:59Z</time>
      </trkpt>
      <trkpt lat="42.7104380" lon="-8.6473060">
        <ele>30.8</ele>
        <time>2021-05-23T09:35:00Z</time>
      </trkpt>
      <trkpt lat="42.7104420" lon="-8.6473040">
        <ele>30.8</ele>
        <time>2021-05-23T09:35:01Z</time>
      </trkpt>
      <trkpt lat="42.7104460" lon="-8.6473030">
        <ele>30.8</ele>
        <time>2021-05-23T09:35:02Z</time>
      </trkpt>
      <trkpt lat="42.7104500" lon="-8.6473020">
        <ele>30.8</ele>
        <time>2021-05-23T09:35:03Z</time>
      </trkpt>
      <trkpt lat="42.7104540" lon="-8.6473010">
        <ele>30.8</ele>
        <time>2021-05-23T09:35:04Z</time>
      </trkpt>
      <trkpt lat="42.7104580" lon="-8.6473000">
        <ele>30.8</ele>
        <time>2021-05-23T09:35:05Z</time>
      </trkpt>
      <trkpt lat="42.7104610" lon="-8.6472990">
        <ele>30.8</ele>
        <time>2021-05-23T09:35:06Z</time>
      </trkpt>
      <trkpt lat="42.7104650" lon="-8.6472970">
        <ele>30.8</ele>
        <time>2021-05-23T09:35:07Z</time>
      </trkpt>
      <trkpt lat="42.7104690" lon="-8.6472960">
        <ele>30.8</ele>
        <time>2021-05-23T09:35:08Z</time>
      </trkpt>
      <trkpt lat="42.7104730" lon="-8.6472950">
        <ele>30.8</ele>
        <time>2021-05-23T09:35:09Z</time>
      </trkpt>
      <trkpt lat="42.7104770" lon="-8.6472940">
        <ele>30.8</ele>
        <time>2021-05-23T09:35:10Z</time>
      </trkpt>
      <trkpt lat="42.7104800" lon="-8.6472930">
        <ele>30.8</ele>
        <time>2021-05-23T09:35:11Z</time>
      </trkpt>
      <trkpt lat="42.7104840" lon="-8.6472920">
        <ele>30.8</ele>
        <time>2021-05-23T09:35:12Z</time>
      </trkpt>
      <trkpt lat="42.7104880" lon="-8.6472910">
        <ele>30.8</ele>
        <time>2021-05-23T09:35:13Z</time>
      </trkpt>
      <trkpt lat="42.7104920" lon="-8.6472890">
        <ele>30.8</ele>
        <time>2021-05-23T09:35:14Z</time>
      </trkpt>
      <trkpt lat="42.7104960" lon="-8.6472880">
        <ele>30.8</ele>
        <time>2021-05-23T09:35:15Z</time>
      </trkpt>
      <trkpt lat="42.7105000" lon="-8.6472870">
        <ele>30.8</ele>
        <time>2021-05-23T09:35:16Z</time>
      </trkpt>
      <trkpt lat="42.7105030" lon="-8.6472860">
        <ele>30.8</ele>
        <time>2021-05-23T09:35:17Z</time>
      </trkpt>
      <trkpt lat="42.7105070" lon="-8.6472850">
        <ele>30.8</ele>
        <time>2021-05-23T09:35:18Z</time>
      </trkpt>
      <trkpt lat="42.7105110" lon="-8.6472840">
        <ele>30.8</ele>
        <time>2021-05-23T09:35:19Z</time>
      </trkpt>
      <trkpt lat="42.7105150" lon="-8.6472820">
        <ele>30.8</ele>
        <time>2021-05-23T09:35:20Z</time>
      </trkpt>
      <trkpt lat="42.7105190" lon="-8.6472810">
        <ele>30.8</ele>
        <time>2021-05-23T09:35:21Z</time>
      </trkpt>
      <trkpt lat="42.7105230" lon="-8.6472800">
        <ele>30.8</ele>
        <time>2021-05-23T09:35:22Z</time>
      </trkpt>
      <trkpt lat="42.7105260" lon="-8.6472790">
        <ele>30.8</ele>
        <time>2021-05-23T09:35:23Z</time>
      </trkpt>
      <trkpt lat="42.7105300" lon="-8.6472780">
        <ele>30.8</ele>
        <time>2021-05-23T09:35:24Z</time>
      </trkpt>
      <trkpt lat="42.7105340" lon="-8.6472770">
        <ele>30.8</ele>
        <time>2021-05-23T09:35:25Z</time>
      </trkpt>
      <trkpt lat="42.7105380" lon="-8.6472760">
        <ele>30.8</ele>
        <time>2021-05-23T09:35:26Z</time>
      </trkpt>
      <trkpt lat="42.7105420" lon="-8.6472740">
        <ele>30.8</ele>
        <time>2021-05-23T09:35:27Z</time>
      </trkpt>
      <trkpt lat="42.7105450" lon="-8.6472730">
        <ele>30.8</ele>
        <time>2021-05-23T09:35:28Z</time>
      </trkpt>
      <trkpt lat="42.7105490" lon="-8.6472720">
        <ele>30.8</ele>
        <time>2021-05-23T09:35:29Z</time>
      </trkpt>
      <trkpt lat="42.7105530" lon="-8.6472710">
        <ele>30.8</ele>
        <time>2021-05-23T09:35:30Z</time>
      </trkpt>
      <trkpt lat="42.7105570" lon="-8.6472700">
        <ele>30.8</ele>
        <time>2021-05-23T09:35:31Z</time>
      </trkpt>
      <trkpt lat="42.7105610" lon="-8.6472690">
        <ele>30.8</ele>
        <time>2021-05-23T09:35:32Z</time>
      </trkpt>
      <trkpt lat="42.7105650" lon="-8.6472670">
        <ele>30.8</ele>
        <time>2021-05-23T09:35:33Z</time>
      </trkpt>
      <trkpt lat="42.7105680" lon="-8.6472660">
        <ele>30.8</ele>
        <time>2021-05-23T09:35:34Z</time>
      </trkpt>
      <trkpt lat="42.7105720" lon="-8.6472650">
        <ele>30.8</ele>
        <time>2021-05-23T09:35:35Z</time>
      </trkpt>
      <trkpt lat="42.7105760" lon="-8.6472640">
        <ele>30.8</ele>
        <time>2021-05-23T09:35:36Z</time>
      </trkpt>
      <trkpt lat="42.7105840" lon="-8.6472660">
        <ele>30.8</ele>
        <time>2021-05-23T09:35:37Z</time>
      </trkpt>
      <trkpt lat="42.7105960" lon="-8.6472570">
        <ele>30.8</ele>
        <time>2021-05-23T09:35:38Z</time>
      </trkpt>
      <trkpt lat="42.7106020" lon="-8.6472570">
        <ele>30.8</ele>
        <time>2021-05-23T09:35:39Z</time>
      </trkpt>
      <trkpt lat="42.7106260" lon="-8.6472540">
        <ele>30.8</ele>
        <time>2021-05-23T09:35:40Z</time>
      </trkpt>
      <trkpt lat="42.7106320" lon="-8.6472520">
        <ele>30.8</ele>
        <time>2021-05-23T09:35:41Z</time>
      </trkpt>
      <trkpt lat="42.7106390" lon="-8.6472510">
        <ele>30.8</ele>
        <time>2021-05-23T09:35:42Z</time>
      </trkpt>
      <trkpt lat="42.7106510" lon="-8.6472480">
        <ele>30.8</ele>
        <time>2021-05-23T09:35:43Z</time>
      </trkpt>
      <trkpt lat="42.7106580" lon="-8.6472390">
        <ele>30.9</ele>
        <time>2021-05-23T09:35:44Z</time>
      </trkpt>
      <trkpt lat="42.7106690" lon="-8.6472310">
        <ele>30.9</ele>
        <time>2021-05-23T09:35:45Z</time>
      </trkpt>
      <trkpt lat="42.7106810" lon="-8.6472310">
        <ele>30.9</ele>
        <time>2021-05-23T09:35:46Z</time>
      </trkpt>
      <trkpt lat="42.7106940" lon="-8.6472270">
        <ele>30.9</ele>
        <time>2021-05-23T09:35:47Z</time>
      </trkpt>
      <trkpt lat="42.7107050" lon="-8.6472210">
        <ele>30.9</ele>
        <time>2021-05-23T09:35:48Z</time>
      </trkpt>
      <trkpt lat="42.7107170" lon="-8.6472110">
        <ele>30.9</ele>
        <time>2021-05-23T09:35:49Z</time>
      </trkpt>
      <trkpt lat="42.7107310" lon="-8.6472060">
        <ele>30.9</ele>
        <time>2021-05-23T09:35:50Z</time>
      </trkpt>
      <trkpt lat="42.7107530" lon="-8.6471980">
        <ele>30.9</ele>
        <time>2021-05-23T09:35:51Z</time>
      </trkpt>
      <trkpt lat="42.7107610" lon="-8.6471960">
        <ele>30.9</ele>
        <time>2021-05-23T09:35:52Z</time>
      </trkpt>
      <trkpt lat="42.7107690" lon="-8.6471930">
        <ele>30.9</ele>
        <time>2021-05-23T09:35:53Z</time>
      </trkpt>
      <trkpt lat="42.7107900" lon="-8.6471900">
        <ele>30.9</ele>
        <time>2021-05-23T09:35:54Z</time>
      </trkpt>
      <trkpt lat="42.7107990" lon="-8.6471880">
        <ele>31.0</ele>
        <time>2021-05-23T09:35:55Z</time>
      </trkpt>
      <trkpt lat="42.7108090" lon="-8.6471870">
        <ele>31.0</ele>
        <time>2021-05-23T09:35:56Z</time>
      </trkpt>
      <trkpt lat="42.7108220" lon="-8.6472020">
        <ele>31.0</ele>
        <time>2021-05-23T09:35:57Z</time>
      </trkpt>
      <trkpt lat="42.7108210" lon="-8.6471940">
        <ele>31.0</ele>
        <time>2021-05-23T09:35:58Z</time>
      </trkpt>
      <trkpt lat="42.7108390" lon="-8.6471900">
        <ele>31.0</ele>
        <time>2021-05-23T09:35:59Z</time>
      </trkpt>
      <trkpt lat="42.7108520" lon="-8.6471860">
        <ele>31.0</ele>
        <time>2021-05-23T09:36:00Z</time>
      </trkpt>
      <trkpt lat="42.7108630" lon="-8.6471860">
        <ele>31.0</ele>
        <time>2021-05-23T09:36:01Z</time>
      </trkpt>
      <trkpt lat="42.7108720" lon="-8.6471880">
        <ele>31.0</ele>
        <time>2021-05-23T09:36:02Z</time>
      </trkpt>
      <trkpt lat="42.7108940" lon="-8.6471820">
        <ele>31.1</ele>
        <time>2021-05-23T09:36:03Z</time>
      </trkpt>
      <trkpt lat="42.7109030" lon="-8.6471790">
        <ele>31.1</ele>
        <time>2021-05-23T09:36:04Z</time>
      </trkpt>
      <trkpt lat="42.7109190" lon="-8.6471720">
        <ele>31.1</ele>
        <time>2021-05-23T09:36:05Z</time>
      </trkpt>
      <trkpt lat="42.7109280" lon="-8.6471710">
        <ele>31.1</ele>
        <time>2021-05-23T09:36:06Z</time>
      </trkpt>
      <trkpt lat="42.7109360" lon="-8.6471690">
        <ele>31.1</ele>
        <time>2021-05-23T09:36:07Z</time>
      </trkpt>
      <trkpt lat="42.7109440" lon="-8.6471670">
        <ele>31.1</ele>
        <time>2021-05-23T09:36:08Z</time>
      </trkpt>
      <trkpt lat="42.7109570" lon="-8.6471630">
        <ele>31.1</ele>
        <time>2021-05-23T09:36:09Z</time>
      </trkpt>
      <trkpt lat="42.7109720" lon="-8.6471680">
        <ele>31.2</ele>
        <time>2021-05-23T09:36:10Z</time>
      </trkpt>
      <trkpt lat="42.7109960" lon="-8.6471820">
        <ele>31.2</ele>
        <time>2021-05-23T09:36:11Z</time>
      </trkpt>
      <trkpt lat="42.7110060" lon="-8.6471870">
        <ele>31.2</ele>
        <time>2021-05-23T09:36:12Z</time>
      </trkpt>
      <trkpt lat="42.7110090" lon="-8.6471850">
        <ele>31.2</ele>
        <time>2021-05-23T09:36:13Z</time>
      </trkpt>
      <trkpt lat="42.7110200" lon="-8.6471870">
        <ele>31.2</ele>
        <time>2021-05-23T09:36:14Z</time>
      </trkpt>
      <trkpt lat="42.7110230" lon="-8.6471890">
        <ele>31.2</ele>
        <time>2021-05-23T09:36:15Z</time>
      </trkpt>
      <trkpt lat="42.7110270" lon="-8.6471870">
        <ele>31.2</ele>
        <time>2021-05-23T09:36:16Z</time>
      </trkpt>
      <trkpt lat="42.7110340" lon="-8.6471870">
        <ele>31.3</ele>
        <time>2021-05-23T09:36:17Z</time>
      </trkpt>
      <trkpt lat="42.7110430" lon="-8.6471840">
        <ele>31.3</ele>
        <time>2021-05-23T09:36:18Z</time>
      </trkpt>
      <trkpt lat="42.7110450" lon="-8.6471830">
        <ele>31.3</ele>
        <time>2021-05-23T09:36:19Z</time>
      </trkpt>
      <trkpt lat="42.7110480" lon="-8.6471830">
        <ele>31.3</ele>
        <time>2021-05-23T09:36:20Z</time>
      </trkpt>
      <trkpt lat="42.7110500" lon="-8.6471820">
        <ele>31.3</ele>
        <time>2021-05-23T09:36:21Z</time>
      </trkpt>
      <trkpt lat="42.7110530" lon="-8.6471810">
        <ele>31.3</ele>
        <time>2021-05-23T09:36:22Z</time>
      </trkpt>
      <trkpt lat="42.7110560" lon="-8.6471800">
        <ele>31.3</ele>
        <time>2021-05-23T09:36:23Z</time>
      </trkpt>
      <trkpt lat="42.7110580" lon="-8.6471790">
        <ele>31.3</ele>
        <time>2021-05-23T09:36:24Z</time>
      </trkpt>
      <trkpt lat="42.7110610" lon="-8.6471780">
        <ele>31.3</ele>
        <time>2021-05-23T09:36:25Z</time>
      </trkpt>
      <trkpt lat="42.7110630" lon="-8.6471780">
        <ele>31.3</ele>
        <time>2021-05-23T09:36:26Z</time>
      </trkpt>
      <trkpt lat="42.7110660" lon="-8.6471770">
        <ele>31.3</ele>
        <time>2021-05-23T09:36:27Z</time>
      </trkpt>
      <trkpt lat="42.7110680" lon="-8.6471760">
        <ele>31.3</ele>
        <time>2021-05-23T09:36:28Z</time>
      </trkpt>
      <trkpt lat="42.7110710" lon="-8.6471750">
        <ele>31.3</ele>
        <time>2021-05-23T09:36:29Z</time>
      </trkpt>
      <trkpt lat="42.7110740" lon="-8.6471730">
        <ele>31.3</ele>
        <time>2021-05-23T09:36:30Z</time>
      </trkpt>
      <trkpt lat="42.7110780" lon="-8.6471750">
        <ele>31.3</ele>
        <time>2021-05-23T09:36:31Z</time>
      </trkpt>
      <trkpt lat="42.7110900" lon="-8.6471600">
        <ele>31.4</ele>
        <time>2021-05-23T09:36:32Z</time>
      </trkpt>
      <trkpt lat="42.7110990" lon="-8.6471660">
        <ele>31.4</ele>
        <time>2021-05-23T09:36:33Z</time>
      </trkpt>
      <trkpt lat="42.7111140" lon="-8.6471680">
        <ele>31.4</ele>
        <time>2021-05-23T09:36:34Z</time>
      </trkpt>
      <trkpt lat="42.7111230" lon="-8.6471660">
        <ele>31.4</ele>
        <time>2021-05-23T09:36:35Z</time>
      </trkpt>
      <trkpt lat="42.7111310" lon="-8.6471630">
        <ele>31.4</ele>
        <time>2021-05-23T09:36:36Z</time>
      </trkpt>
      <trkpt lat="42.7111390" lon="-8.6471610">
        <ele>31.5</ele>
        <time>2021-05-23T09:36:37Z</time>
      </trkpt>
      <trkpt lat="42.7111490" lon="-8.6471630">
        <ele>31.5</ele>
        <time>2021-05-23T09:36:38Z</time>
      </trkpt>
      <trkpt lat="42.7111580" lon="-8.6471650">
        <ele>31.5</ele>
        <time>2021-05-23T09:36:39Z</time>
      </trkpt>
      <trkpt lat="42.7111590" lon="-8.6471620">
        <ele>31.5</ele>
        <time>2021-05-23T09:36:40Z</time>
      </trkpt>
      <trkpt lat="42.7111730" lon="-8.6471590">
        <ele>31.5</ele>
        <time>2021-05-23T09:36:41Z</time>
      </trkpt>
      <trkpt lat="42.7111830" lon="-8.6471580">
        <ele>31.5</ele>
        <time>2021-05-23T09:36:42Z</time>
      </trkpt>
      <trkpt lat="42.7111930" lon="-8.6471550">
        <ele>31.6</ele>
        <time>2021-05-23T09:36:43Z</time>
      </trkpt>
      <trkpt lat="42.7112050" lon="-8.6471540">
        <ele>31.6</ele>
        <time>2021-05-23T09:36:44Z</time>
      </trkpt>
      <trkpt lat="42.7112160" lon="-8.6471510">
        <ele>31.6</ele>
        <time>2021-05-23T09:36:45Z</time>
      </trkpt>
      <trkpt lat="42.7112280" lon="-8.6471490">
        <ele>31.6</ele>
        <time>2021-05-23T09:36:46Z</time>
      </trkpt>
      <trkpt lat="42.7112330" lon="-8.6471440">
        <ele>31.6</ele>
        <time>2021-05-23T09:36:47Z</time>
      </trkpt>
      <trkpt lat="42.7112570" lon="-8.6471370">
        <ele>31.7</ele>
        <time>2021-05-23T09:36:48Z</time>
      </trkpt>
      <trkpt lat="42.7112660" lon="-8.6471340">
        <ele>31.7</ele>
        <time>2021-05-23T09:36:49Z</time>
      </trkpt>
      <trkpt lat="42.7112760" lon="-8.6471320">
        <ele>31.7</ele>
        <time>2021-05-23T09:36:50Z</time>
      </trkpt>
      <trkpt lat="42.7112900" lon="-8.6471410">
        <ele>31.8</ele>
        <time>2021-05-23T09:36:51Z</time>
      </trkpt>
      <trkpt lat="42.7113050" lon="-8.6471500">
        <ele>31.8</ele>
        <time>2021-05-23T09:36:52Z</time>
      </trkpt>
      <trkpt lat="42.7113200" lon="-8.6471410">
        <ele>31.8</ele>
        <time>2021-05-23T09:36:53Z</time>
      </trkpt>
      <trkpt lat="42.7113350" lon="-8.6471380">
        <ele>31.9</ele>
        <time>2021-05-23T09:36:54Z</time>
      </trkpt>
      <trkpt lat="42.7113430" lon="-8.6471340">
        <ele>31.9</ele>
        <time>2021-05-23T09:36:55Z</time>
      </trkpt>
      <trkpt lat="42.7113490" lon="-8.6471260">
        <ele>31.9</ele>
        <time>2021-05-23T09:36:56Z</time>
      </trkpt>
      <trkpt lat="42.7113560" lon="-8.6471130">
        <ele>31.9</ele>
        <time>2021-05-23T09:36:57Z</time>
      </trkpt>
      <trkpt lat="42.7113670" lon="-8.6471020">
        <ele>32.0</ele>
        <time>2021-05-23T09:36:58Z</time>
      </trkpt>
      <trkpt lat="42.7113770" lon="-8.6470950">
        <ele>32.1</ele>
        <time>2021-05-23T09:36:59Z</time>
      </trkpt>
      <trkpt lat="42.7113860" lon="-8.6470920">
        <ele>32.1</ele>
        <time>2021-05-23T09:37:00Z</time>
      </trkpt>
      <trkpt lat="42.7113930" lon="-8.6470890">
        <ele>32.1</ele>
        <time>2021-05-23T09:37:01Z</time>
      </trkpt>
      <trkpt lat="42.7114010" lon="-8.6470860">
        <ele>32.1</ele>
        <time>2021-05-23T09:37:02Z</time>
      </trkpt>
      <trkpt lat="42.7114080" lon="-8.6470820">
        <ele>32.2</ele>
        <time>2021-05-23T09:37:03Z</time>
      </trkpt>
      <trkpt lat="42.7114190" lon="-8.6470820">
        <ele>32.2</ele>
        <time>2021-05-23T09:37:04Z</time>
      </trkpt>
      <trkpt lat="42.7114330" lon="-8.6470790">
        <ele>32.2</ele>
        <time>2021-05-23T09:37:05Z</time>
      </trkpt>
      <trkpt lat="42.7114480" lon="-8.6470840">
        <ele>32.3</ele>
        <time>2021-05-23T09:37:06Z</time>
      </trkpt>
      <trkpt lat="42.7114610" lon="-8.6470900">
        <ele>32.3</ele>
        <time>2021-05-23T09:37:07Z</time>
      </trkpt>
      <trkpt lat="42.7114630" lon="-8.6470910">
        <ele>32.3</ele>
        <time>2021-05-23T09:37:08Z</time>
      </trkpt>
      <trkpt lat="42.7114720" lon="-8.6470880">
        <ele>32.3</ele>
        <time>2021-05-23T09:37:09Z</time>
      </trkpt>
      <trkpt lat="42.7114830" lon="-8.6470850">
        <ele>32.4</ele>
        <time>2021-05-23T09:37:10Z</time>
      </trkpt>
      <trkpt lat="42.7114980" lon="-8.6470830">
        <ele>32.4</ele>
        <time>2021-05-23T09:37:11Z</time>
      </trkpt>
      <trkpt lat="42.7115120" lon="-8.6470820">
        <ele>32.4</ele>
        <time>2021-05-23T09:37:12Z</time>
      </trkpt>
      <trkpt lat="42.7115210" lon="-8.6470810">
        <ele>32.5</ele>
        <time>2021-05-23T09:37:13Z</time>
      </trkpt>
      <trkpt lat="42.7115280" lon="-8.6470820">
        <ele>32.5</ele>
        <time>2021-05-23T09:37:14Z</time>
      </trkpt>
      <trkpt lat="42.7115420" lon="-8.6470760">
        <ele>32.5</ele>
        <time>2021-05-23T09:37:15Z</time>
      </trkpt>
      <trkpt lat="42.7115620" lon="-8.6470770">
        <ele>32.5</ele>
        <time>2021-05-23T09:37:16Z</time>
      </trkpt>
      <trkpt lat="42.7115730" lon="-8.6470810">
        <ele>32.6</ele>
        <time>2021-05-23T09:37:17Z</time>
      </trkpt>
      <trkpt lat="42.7115870" lon="-8.6470830">
        <ele>32.6</ele>
        <time>2021-05-23T09:37:18Z</time>
      </trkpt>
      <trkpt lat="42.7116040" lon="-8.6470860">
        <ele>32.6</ele>
        <time>2021-05-23T09:37:19Z</time>
      </trkpt>
      <trkpt lat="42.7116190" lon="-8.6470860">
        <ele>32.6</ele>
        <time>2021-05-23T09:37:20Z</time>
      </trkpt>
      <trkpt lat="42.7116340" lon="-8.6470910">
        <ele>32.6</ele>
        <time>2021-05-23T09:37:21Z</time>
      </trkpt>
      <trkpt lat="42.7116480" lon="-8.6470930">
        <ele>32.7</ele>
        <time>2021-05-23T09:37:22Z</time>
      </trkpt>
      <trkpt lat="42.7116630" lon="-8.6470930">
        <ele>32.7</ele>
        <time>2021-05-23T09:37:23Z</time>
      </trkpt>
      <trkpt lat="42.7116770" lon="-8.6470900">
        <ele>32.7</ele>
        <time>2021-05-23T09:37:24Z</time>
      </trkpt>
      <trkpt lat="42.7116870" lon="-8.6470980">
        <ele>32.7</ele>
        <time>2021-05-23T09:37:25Z</time>
      </trkpt>
      <trkpt lat="42.7116940" lon="-8.6471000">
        <ele>32.7</ele>
        <time>2021-05-23T09:37:26Z</time>
      </trkpt>
      <trkpt lat="42.7117030" lon="-8.6470980">
        <ele>32.7</ele>
        <time>2021-05-23T09:37:27Z</time>
      </trkpt>
      <trkpt lat="42.7117150" lon="-8.6470960">
        <ele>32.7</ele>
        <time>2021-05-23T09:37:28Z</time>
      </trkpt>
      <trkpt lat="42.7117230" lon="-8.6470980">
        <ele>32.7</ele>
        <time>2021-05-23T09:37:29Z</time>
      </trkpt>
      <trkpt lat="42.7117450" lon="-8.6470930">
        <ele>32.7</ele>
        <time>2021-05-23T09:37:30Z</time>
      </trkpt>
      <trkpt lat="42.7117540" lon="-8.6470940">
        <ele>32.7</ele>
        <time>2021-05-23T09:37:31Z</time>
      </trkpt>
      <trkpt lat="42.7117620" lon="-8.6470940">
        <ele>32.7</ele>
        <time>2021-05-23T09:37:32Z</time>
      </trkpt>
      <trkpt lat="42.7117810" lon="-8.6470910">
        <ele>32.7</ele>
        <time>2021-05-23T09:37:33Z</time>
      </trkpt>
      <trkpt lat="42.7117900" lon="-8.6470920">
        <ele>32.7</ele>
        <time>2021-05-23T09:37:34Z</time>
      </trkpt>
      <trkpt lat="42.7118000" lon="-8.6470920">
        <ele>32.7</ele>
        <time>2021-05-23T09:37:35Z</time>
      </trkpt>
      <trkpt lat="42.7118100" lon="-8.6470930">
        <ele>32.7</ele>
        <time>2021-05-23T09:37:36Z</time>
      </trkpt>
      <trkpt lat="42.7118210" lon="-8.6470970">
        <ele>32.7</ele>
        <time>2021-05-23T09:37:37Z</time>
      </trkpt>
      <trkpt lat="42.7118320" lon="-8.6471000">
        <ele>32.7</ele>
        <time>2021-05-23T09:37:38Z</time>
      </trkpt>
      <trkpt lat="42.7118500" lon="-8.6470970">
        <ele>32.6</ele>
        <time>2021-05-23T09:37:39Z</time>
      </trkpt>
      <trkpt lat="42.7118600" lon="-8.6470960">
        <ele>32.6</ele>
        <time>2021-05-23T09:37:40Z</time>
      </trkpt>
      <trkpt lat="42.7118690" lon="-8.6471040">
        <ele>32.6</ele>
        <time>2021-05-23T09:37:41Z</time>
      </trkpt>
      <trkpt lat="42.7118800" lon="-8.6471080">
        <ele>32.6</ele>
        <time>2021-05-23T09:37:42Z</time>
      </trkpt>
      <trkpt lat="42.7118940" lon="-8.6471080">
        <ele>32.6</ele>
        <time>2021-05-23T09:37:43Z</time>
      </trkpt>
      <trkpt lat="42.7119080" lon="-8.6471120">
        <ele>32.5</ele>
        <time>2021-05-23T09:37:45Z</time>
      </trkpt>
      <trkpt lat="42.7119160" lon="-8.6471210">
        <ele>32.5</ele>
        <time>2021-05-23T09:37:46Z</time>
      </trkpt>
      <trkpt lat="42.7119250" lon="-8.6471250">
        <ele>32.5</ele>
        <time>2021-05-23T09:37:47Z</time>
      </trkpt>
      <trkpt lat="42.7119470" lon="-8.6471330">
        <ele>32.5</ele>
        <time>2021-05-23T09:37:48Z</time>
      </trkpt>
      <trkpt lat="42.7119540" lon="-8.6471330">
        <ele>32.4</ele>
        <time>2021-05-23T09:37:49Z</time>
      </trkpt>
      <trkpt lat="42.7119620" lon="-8.6471340">
        <ele>32.4</ele>
        <time>2021-05-23T09:37:50Z</time>
      </trkpt>
      <trkpt lat="42.7119730" lon="-8.6471360">
        <ele>32.4</ele>
        <time>2021-05-23T09:37:51Z</time>
      </trkpt>
      <trkpt lat="42.7119900" lon="-8.6471390">
        <ele>32.4</ele>
        <time>2021-05-23T09:37:52Z</time>
      </trkpt>
      <trkpt lat="42.7119960" lon="-8.6471440">
        <ele>32.4</ele>
        <time>2021-05-23T09:37:53Z</time>
      </trkpt>
      <trkpt lat="42.7120090" lon="-8.6471490">
        <ele>32.3</ele>
        <time>2021-05-23T09:37:54Z</time>
      </trkpt>
      <trkpt lat="42.7120180" lon="-8.6471530">
        <ele>32.3</ele>
        <time>2021-05-23T09:37:55Z</time>
      </trkpt>
      <trkpt lat="42.7120310" lon="-8.6471550">
        <ele>32.3</ele>
        <time>2021-05-23T09:37:56Z</time>
      </trkpt>
      <trkpt lat="42.7120530" lon="-8.6471550">
        <ele>32.2</ele>
        <time>2021-05-23T09:37:57Z</time>
      </trkpt>
      <trkpt lat="42.7120590" lon="-8.6471570">
        <ele>32.2</ele>
        <time>2021-05-23T09:37:58Z</time>
      </trkpt>
      <trkpt lat="42.7120730" lon="-8.6471570">
        <ele>32.2</ele>
        <time>2021-05-23T09:37:59Z</time>
      </trkpt>
      <trkpt lat="42.7120870" lon="-8.6471580">
        <ele>32.1</ele>
        <time>2021-05-23T09:38:00Z</time>
      </trkpt>
      <trkpt lat="42.7120980" lon="-8.6471630">
        <ele>32.1</ele>
        <time>2021-05-23T09:38:01Z</time>
      </trkpt>
      <trkpt lat="42.7121080" lon="-8.6471650">
        <ele>32.1</ele>
        <time>2021-05-23T09:38:02Z</time>
      </trkpt>
      <trkpt lat="42.7121210" lon="-8.6471640">
        <ele>32.1</ele>
        <time>2021-05-23T09:38:03Z</time>
      </trkpt>
      <trkpt lat="42.7121260" lon="-8.6471590">
        <ele>32.1</ele>
        <time>2021-05-23T09:38:04Z</time>
      </trkpt>
      <trkpt lat="42.7121450" lon="-8.6471650">
        <ele>32.0</ele>
        <time>2021-05-23T09:38:05Z</time>
      </trkpt>
      <trkpt lat="42.7121570" lon="-8.6471650">
        <ele>32.0</ele>
        <time>2021-05-23T09:38:06Z</time>
      </trkpt>
      <trkpt lat="42.7121630" lon="-8.6471640">
        <ele>32.0</ele>
        <time>2021-05-23T09:38:07Z</time>
      </trkpt>
      <trkpt lat="42.7121730" lon="-8.6471580">
        <ele>31.9</ele>
        <time>2021-05-23T09:38:08Z</time>
      </trkpt>
      <trkpt lat="42.7121860" lon="-8.6471530">
        <ele>31.9</ele>
        <time>2021-05-23T09:38:09Z</time>
      </trkpt>
      <trkpt lat="42.7121920" lon="-8.6471540">
        <ele>31.9</ele>
        <time>2021-05-23T09:38:10Z</time>
      </trkpt>
      <trkpt lat="42.7122070" lon="-8.6471470">
        <ele>31.9</ele>
        <time>2021-05-23T09:38:11Z</time>
      </trkpt>
      <trkpt lat="42.7122150" lon="-8.6471450">
        <ele>31.8</ele>
        <time>2021-05-23T09:38:12Z</time>
      </trkpt>
      <trkpt lat="42.7122260" lon="-8.6471380">
        <ele>31.8</ele>
        <time>2021-05-23T09:38:13Z</time>
      </trkpt>
      <trkpt lat="42.7122290" lon="-8.6471330">
        <ele>31.8</ele>
        <time>2021-05-23T09:38:14Z</time>
      </trkpt>
      <trkpt lat="42.7122430" lon="-8.6471200">
        <ele>31.8</ele>
        <time>2021-05-23T09:38:15Z</time>
      </trkpt>
      <trkpt lat="42.7122490" lon="-8.6471140">
        <ele>31.8</ele>
        <time>2021-05-23T09:38:16Z</time>
      </trkpt>
      <trkpt lat="42.7122520" lon="-8.6471140">
        <ele>31.8</ele>
        <time>2021-05-23T09:38:17Z</time>
      </trkpt>
      <trkpt lat="42.7122630" lon="-8.6471110">
        <ele>31.8</ele>
        <time>2021-05-23T09:38:18Z</time>
      </trkpt>
      <trkpt lat="42.7122760" lon="-8.6471070">
        <ele>31.7</ele>
        <time>2021-05-23T09:38:19Z</time>
      </trkpt>
      <trkpt lat="42.7122900" lon="-8.6471080">
        <ele>31.7</ele>
        <time>2021-05-23T09:38:20Z</time>
      </trkpt>
      <trkpt lat="42.7122980" lon="-8.6471110">
        <ele>31.7</ele>
        <time>2021-05-23T09:38:21Z</time>
      </trkpt>
      <trkpt lat="42.7123080" lon="-8.6471170">
        <ele>31.7</ele>
        <time>2021-05-23T09:38:22Z</time>
      </trkpt>
      <trkpt lat="42.7123150" lon="-8.6471100">
        <ele>31.7</ele>
        <time>2021-05-23T09:38:23Z</time>
      </trkpt>
      <trkpt lat="42.7123270" lon="-8.6471140">
        <ele>31.7</ele>
        <time>2021-05-23T09:38:24Z</time>
      </trkpt>
      <trkpt lat="42.7123290" lon="-8.6471160">
        <ele>31.7</ele>
        <time>2021-05-23T09:38:25Z</time>
      </trkpt>
      <trkpt lat="42.7123270" lon="-8.6471110">
        <ele>31.7</ele>
        <time>2021-05-23T09:38:26Z</time>
      </trkpt>
      <trkpt lat="42.7123260" lon="-8.6471130">
        <ele>31.7</ele>
        <time>2021-05-23T09:38:27Z</time>
      </trkpt>
      <trkpt lat="42.7123350" lon="-8.6471160">
        <ele>31.7</ele>
        <time>2021-05-23T09:38:28Z</time>
      </trkpt>
      <trkpt lat="42.7123550" lon="-8.6471260">
        <ele>31.6</ele>
        <time>2021-05-23T09:38:29Z</time>
      </trkpt>
      <trkpt lat="42.7123650" lon="-8.6471260">
        <ele>31.6</ele>
        <time>2021-05-23T09:38:30Z</time>
      </trkpt>
      <trkpt lat="42.7123760" lon="-8.6471260">
        <ele>31.6</ele>
        <time>2021-05-23T09:38:31Z</time>
      </trkpt>
      <trkpt lat="42.7123860" lon="-8.6471320">
        <ele>31.6</ele>
        <time>2021-05-23T09:38:32Z</time>
      </trkpt>
      <trkpt lat="42.7124030" lon="-8.6471280">
        <ele>31.6</ele>
        <time>2021-05-23T09:38:33Z</time>
      </trkpt>
      <trkpt lat="42.7124200" lon="-8.6471300">
        <ele>31.6</ele>
        <time>2021-05-23T09:38:34Z</time>
      </trkpt>
      <trkpt lat="42.7124380" lon="-8.6471370">
        <ele>31.6</ele>
        <time>2021-05-23T09:38:35Z</time>
      </trkpt>
      <trkpt lat="42.7124580" lon="-8.6471350">
        <ele>31.6</ele>
        <time>2021-05-23T09:38:36Z</time>
      </trkpt>
      <trkpt lat="42.7124670" lon="-8.6471360">
        <ele>31.5</ele>
        <time>2021-05-23T09:38:37Z</time>
      </trkpt>
      <trkpt lat="42.7124760" lon="-8.6471360">
        <ele>31.5</ele>
        <time>2021-05-23T09:38:38Z</time>
      </trkpt>
      <trkpt lat="42.7124880" lon="-8.6471370">
        <ele>31.5</ele>
        <time>2021-05-23T09:38:39Z</time>
      </trkpt>
      <trkpt lat="42.7125030" lon="-8.6471400">
        <ele>31.5</ele>
        <time>2021-05-23T09:38:40Z</time>
      </trkpt>
      <trkpt lat="42.7125240" lon="-8.6471390">
        <ele>31.5</ele>
        <time>2021-05-23T09:38:41Z</time>
      </trkpt>
      <trkpt lat="42.7125330" lon="-8.6471390">
        <ele>31.5</ele>
        <time>2021-05-23T09:38:42Z</time>
      </trkpt>
      <trkpt lat="42.7125430" lon="-8.6471390">
        <ele>31.5</ele>
        <time>2021-05-23T09:38:43Z</time>
      </trkpt>
      <trkpt lat="42.7125490" lon="-8.6471450">
        <ele>31.5</ele>
        <time>2021-05-23T09:38:44Z</time>
      </trkpt>
      <trkpt lat="42.7125660" lon="-8.6471400">
        <ele>31.5</ele>
        <time>2021-05-23T09:38:45Z</time>
      </trkpt>
      <trkpt lat="42.7125730" lon="-8.6471420">
        <ele>31.5</ele>
        <time>2021-05-23T09:38:46Z</time>
      </trkpt>
      <trkpt lat="42.7125940" lon="-8.6471500">
        <ele>31.4</ele>
        <time>2021-05-23T09:38:47Z</time>
      </trkpt>
      <trkpt lat="42.7126010" lon="-8.6471520">
        <ele>31.4</ele>
        <time>2021-05-23T09:38:48Z</time>
      </trkpt>
      <trkpt lat="42.7126090" lon="-8.6471540">
        <ele>31.4</ele>
        <time>2021-05-23T09:38:49Z</time>
      </trkpt>
      <trkpt lat="42.7126280" lon="-8.6471600">
        <ele>31.4</ele>
        <time>2021-05-23T09:38:50Z</time>
      </trkpt>
      <trkpt lat="42.7126370" lon="-8.6471630">
        <ele>31.4</ele>
        <time>2021-05-23T09:38:51Z</time>
      </trkpt>
      <trkpt lat="42.7126460" lon="-8.6471670">
        <ele>31.4</ele>
        <time>2021-05-23T09:38:52Z</time>
      </trkpt>
      <trkpt lat="42.7126550" lon="-8.6471710">
        <ele>31.4</ele>
        <time>2021-05-23T09:38:53Z</time>
      </trkpt>
      <trkpt lat="42.7126720" lon="-8.6471720">
        <ele>31.4</ele>
        <time>2021-05-23T09:38:54Z</time>
      </trkpt>
      <trkpt lat="42.7126810" lon="-8.6471730">
        <ele>31.4</ele>
        <time>2021-05-23T09:38:55Z</time>
      </trkpt>
      <trkpt lat="42.7126910" lon="-8.6471740">
        <ele>31.3</ele>
        <time>2021-05-23T09:38:56Z</time>
      </trkpt>
      <trkpt lat="42.7127060" lon="-8.6471750">
        <ele>31.3</ele>
        <time>2021-05-23T09:38:57Z</time>
      </trkpt>
      <trkpt lat="42.7127110" lon="-8.6471730">
        <ele>31.3</ele>
        <time>2021-05-23T09:38:58Z</time>
      </trkpt>
      <trkpt lat="42.7127240" lon="-8.6471740">
        <ele>31.3</ele>
        <time>2021-05-23T09:38:59Z</time>
      </trkpt>
      <trkpt lat="42.7127370" lon="-8.6471760">
        <ele>31.3</ele>
        <time>2021-05-23T09:39:00Z</time>
      </trkpt>
      <trkpt lat="42.7127440" lon="-8.6471860">
        <ele>31.3</ele>
        <time>2021-05-23T09:39:01Z</time>
      </trkpt>
      <trkpt lat="42.7127550" lon="-8.6471860">
        <ele>31.3</ele>
        <time>2021-05-23T09:39:02Z</time>
      </trkpt>
      <trkpt lat="42.7127730" lon="-8.6471890">
        <ele>31.3</ele>
        <time>2021-05-23T09:39:03Z</time>
      </trkpt>
      <trkpt lat="42.7127820" lon="-8.6471900">
        <ele>31.2</ele>
        <time>2021-05-23T09:39:04Z</time>
      </trkpt>
      <trkpt lat="42.7127920" lon="-8.6471900">
        <ele>31.2</ele>
        <time>2021-05-23T09:39:05Z</time>
      </trkpt>
      <trkpt lat="42.7128040" lon="-8.6471950">
        <ele>31.2</ele>
        <time>2021-05-23T09:39:06Z</time>
      </trkpt>
      <trkpt lat="42.7128180" lon="-8.6472050">
        <ele>31.2</ele>
        <time>2021-05-23T09:39:07Z</time>
      </trkpt>
      <trkpt lat="42.7128360" lon="-8.6472150">
        <ele>31.2</ele>
        <time>2021-05-23T09:39:08Z</time>
      </trkpt>
      <trkpt lat="42.7128450" lon="-8.6472170">
        <ele>31.2</ele>
        <time>2021-05-23T09:39:09Z</time>
      </trkpt>
      <trkpt lat="42.7128530" lon="-8.6472200">
        <ele>31.2</ele>
        <time>2021-05-23T09:39:10Z</time>
      </trkpt>
      <trkpt lat="42.7128690" lon="-8.6472190">
        <ele>31.2</ele>
        <time>2021-05-23T09:39:11Z</time>
      </trkpt>
      <trkpt lat="42.7128790" lon="-8.6472260">
        <ele>31.1</ele>
        <time>2021-05-23T09:39:12Z</time>
      </trkpt>
      <trkpt lat="42.7128870" lon="-8.6472360">
        <ele>31.1</ele>
        <time>2021-05-23T09:39:13Z</time>
      </trkpt>
      <trkpt lat="42.7129000" lon="-8.6472420">
        <ele>31.1</ele>
        <time>2021-05-23T09:39:14Z</time>
      </trkpt>
      <trkpt lat="42.7129130" lon="-8.6472470">
        <ele>31.1</ele>
        <time>2021-05-23T09:39:15Z</time>
      </trkpt>
      <trkpt lat="42.7129220" lon="-8.6472460">
        <ele>31.1</ele>
        <time>2021-05-23T09:39:16Z</time>
      </trkpt>
      <trkpt lat="42.7129330" lon="-8.6472470">
        <ele>31.1</ele>
        <time>2021-05-23T09:39:17Z</time>
      </trkpt>
      <trkpt lat="42.7129340" lon="-8.6472480">
        <ele>31.1</ele>
        <time>2021-05-23T09:39:18Z</time>
      </trkpt>
      <trkpt lat="42.7129380" lon="-8.6472460">
        <ele>31.1</ele>
        <time>2021-05-23T09:39:19Z</time>
      </trkpt>
      <trkpt lat="42.7129440" lon="-8.6472520">
        <ele>31.1</ele>
        <time>2021-05-23T09:39:20Z</time>
      </trkpt>
      <trkpt lat="42.7129650" lon="-8.6472520">
        <ele>31.1</ele>
        <time>2021-05-23T09:39:21Z</time>
      </trkpt>
      <trkpt lat="42.7129740" lon="-8.6472560">
        <ele>31.1</ele>
        <time>2021-05-23T09:39:22Z</time>
      </trkpt>
      <trkpt lat="42.7129840" lon="-8.6472600">
        <ele>31.1</ele>
        <time>2021-05-23T09:39:23Z</time>
      </trkpt>
      <trkpt lat="42.7129930" lon="-8.6472650">
        <ele>31.0</ele>
        <time>2021-05-23T09:39:24Z</time>
      </trkpt>
      <trkpt lat="42.7130030" lon="-8.6472690">
        <ele>31.0</ele>
        <time>2021-05-23T09:39:26Z</time>
      </trkpt>
      <trkpt lat="42.7130130" lon="-8.6472670">
        <ele>31.0</ele>
        <time>2021-05-23T09:39:27Z</time>
      </trkpt>
      <trkpt lat="42.7130220" lon="-8.6472760">
        <ele>31.0</ele>
        <time>2021-05-23T09:39:28Z</time>
      </trkpt>
      <trkpt lat="42.7130330" lon="-8.6472840">
        <ele>31.0</ele>
        <time>2021-05-23T09:39:29Z</time>
      </trkpt>
      <trkpt lat="42.7130410" lon="-8.6472930">
        <ele>31.0</ele>
        <time>2021-05-23T09:39:30Z</time>
      </trkpt>
      <trkpt lat="42.7130630" lon="-8.6472980">
        <ele>31.0</ele>
        <time>2021-05-23T09:39:31Z</time>
      </trkpt>
      <trkpt lat="42.7130720" lon="-8.6473020">
        <ele>31.0</ele>
        <time>2021-05-23T09:39:32Z</time>
      </trkpt>
      <trkpt lat="42.7130800" lon="-8.6473060">
        <ele>31.0</ele>
        <time>2021-05-23T09:39:33Z</time>
      </trkpt>
      <trkpt lat="42.7130900" lon="-8.6473110">
        <ele>31.0</ele>
        <time>2021-05-23T09:39:34Z</time>
      </trkpt>
      <trkpt lat="42.7131010" lon="-8.6473100">
        <ele>31.0</ele>
        <time>2021-05-23T09:39:35Z</time>
      </trkpt>
      <trkpt lat="42.7131090" lon="-8.6473140">
        <ele>30.9</ele>
        <time>2021-05-23T09:39:36Z</time>
      </trkpt>
      <trkpt lat="42.7131180" lon="-8.6473180">
        <ele>30.9</ele>
        <time>2021-05-23T09:39:37Z</time>
      </trkpt>
      <trkpt lat="42.7131360" lon="-8.6473210">
        <ele>30.9</ele>
        <time>2021-05-23T09:39:38Z</time>
      </trkpt>
      <trkpt lat="42.7131480" lon="-8.6473230">
        <ele>30.9</ele>
        <time>2021-05-23T09:39:39Z</time>
      </trkpt>
      <trkpt lat="42.7131620" lon="-8.6473190">
        <ele>30.9</ele>
        <time>2021-05-23T09:39:40Z</time>
      </trkpt>
      <trkpt lat="42.7131720" lon="-8.6473210">
        <ele>30.9</ele>
        <time>2021-05-23T09:39:41Z</time>
      </trkpt>
      <trkpt lat="42.7131840" lon="-8.6473300">
        <ele>30.9</ele>
        <time>2021-05-23T09:39:42Z</time>
      </trkpt>
      <trkpt lat="42.7131960" lon="-8.6473270">
        <ele>30.9</ele>
        <time>2021-05-23T09:39:43Z</time>
      </trkpt>
      <trkpt lat="42.7131990" lon="-8.6473340">
        <ele>30.9</ele>
        <time>2021-05-23T09:39:44Z</time>
      </trkpt>
      <trkpt lat="42.7132080" lon="-8.6473370">
        <ele>30.9</ele>
        <time>2021-05-23T09:39:45Z</time>
      </trkpt>
      <trkpt lat="42.7132220" lon="-8.6473510">
        <ele>30.9</ele>
        <time>2021-05-23T09:39:46Z</time>
      </trkpt>
      <trkpt lat="42.7132300" lon="-8.6473580">
        <ele>30.9</ele>
        <time>2021-05-23T09:39:47Z</time>
      </trkpt>
      <trkpt lat="42.7132520" lon="-8.6473580">
        <ele>30.9</ele>
        <time>2021-05-23T09:39:48Z</time>
      </trkpt>
      <trkpt lat="42.7132590" lon="-8.6473600">
        <ele>30.9</ele>
        <time>2021-05-23T09:39:49Z</time>
      </trkpt>
      <trkpt lat="42.7132670" lon="-8.6473620">
        <ele>30.9</ele>
        <time>2021-05-23T09:39:50Z</time>
      </trkpt>
      <trkpt lat="42.7132810" lon="-8.6473640">
        <ele>30.9</ele>
        <time>2021-05-23T09:39:51Z</time>
      </trkpt>
      <trkpt lat="42.7132960" lon="-8.6473640">
        <ele>30.9</ele>
        <time>2021-05-23T09:39:52Z</time>
      </trkpt>
      <trkpt lat="42.7133060" lon="-8.6473660">
        <ele>30.9</ele>
        <time>2021-05-23T09:39:53Z</time>
      </trkpt>
      <trkpt lat="42.7133220" lon="-8.6473680">
        <ele>30.9</ele>
        <time>2021-05-23T09:39:54Z</time>
      </trkpt>
      <trkpt lat="42.7133310" lon="-8.6473740">
        <ele>30.9</ele>
        <time>2021-05-23T09:39:55Z</time>
      </trkpt>
      <trkpt lat="42.7133430" lon="-8.6473780">
        <ele>30.9</ele>
        <time>2021-05-23T09:39:56Z</time>
      </trkpt>
      <trkpt lat="42.7133570" lon="-8.6473790">
        <ele>30.9</ele>
        <time>2021-05-23T09:39:57Z</time>
      </trkpt>
      <trkpt lat="42.7133630" lon="-8.6473870">
        <ele>30.9</ele>
        <time>2021-05-23T09:39:58Z</time>
      </trkpt>
      <trkpt lat="42.7133790" lon="-8.6473940">
        <ele>30.9</ele>
        <time>2021-05-23T09:39:59Z</time>
      </trkpt>
      <trkpt lat="42.7133910" lon="-8.6473950">
        <ele>30.9</ele>
        <time>2021-05-23T09:40:00Z</time>
      </trkpt>
      <trkpt lat="42.7134030" lon="-8.6474040">
        <ele>30.9</ele>
        <time>2021-05-23T09:40:01Z</time>
      </trkpt>
      <trkpt lat="42.7134120" lon="-8.6474080">
        <ele>30.9</ele>
        <time>2021-05-23T09:40:02Z</time>
      </trkpt>
      <trkpt lat="42.7134190" lon="-8.6474150">
        <ele>30.9</ele>
        <time>2021-05-23T09:40:03Z</time>
      </trkpt>
      <trkpt lat="42.7134310" lon="-8.6474210">
        <ele>30.9</ele>
        <time>2021-05-23T09:40:04Z</time>
      </trkpt>
      <trkpt lat="42.7134410" lon="-8.6474200">
        <ele>30.9</ele>
        <time>2021-05-23T09:40:05Z</time>
      </trkpt>
      <trkpt lat="42.7134520" lon="-8.6474280">
        <ele>30.9</ele>
        <time>2021-05-23T09:40:06Z</time>
      </trkpt>
      <trkpt lat="42.7134580" lon="-8.6474320">
        <ele>30.9</ele>
        <time>2021-05-23T09:40:07Z</time>
      </trkpt>
      <trkpt lat="42.7134680" lon="-8.6474380">
        <ele>30.9</ele>
        <time>2021-05-23T09:40:08Z</time>
      </trkpt>
      <trkpt lat="42.7134820" lon="-8.6474480">
        <ele>30.9</ele>
        <time>2021-05-23T09:40:09Z</time>
      </trkpt>
      <trkpt lat="42.7135000" lon="-8.6474630">
        <ele>30.9</ele>
        <time>2021-05-23T09:40:10Z</time>
      </trkpt>
      <trkpt lat="42.7135080" lon="-8.6474680">
        <ele>30.9</ele>
        <time>2021-05-23T09:40:11Z</time>
      </trkpt>
      <trkpt lat="42.7135160" lon="-8.6474740">
        <ele>30.9</ele>
        <time>2021-05-23T09:40:12Z</time>
      </trkpt>
      <trkpt lat="42.7135350" lon="-8.6474900">
        <ele>30.9</ele>
        <time>2021-05-23T09:40:13Z</time>
      </trkpt>
      <trkpt lat="42.7135410" lon="-8.6474950">
        <ele>30.9</ele>
        <time>2021-05-23T09:40:14Z</time>
      </trkpt>
      <trkpt lat="42.7135470" lon="-8.6474990">
        <ele>30.9</ele>
        <time>2021-05-23T09:40:15Z</time>
      </trkpt>
      <trkpt lat="42.7135680" lon="-8.6475110">
        <ele>30.9</ele>
        <time>2021-05-23T09:40:16Z</time>
      </trkpt>
      <trkpt lat="42.7135740" lon="-8.6475140">
        <ele>30.9</ele>
        <time>2021-05-23T09:40:17Z</time>
      </trkpt>
      <trkpt lat="42.7135810" lon="-8.6475180">
        <ele>30.9</ele>
        <time>2021-05-23T09:40:18Z</time>
      </trkpt>
      <trkpt lat="42.7135950" lon="-8.6475260">
        <ele>30.9</ele>
        <time>2021-05-23T09:40:19Z</time>
      </trkpt>
      <trkpt lat="42.7136020" lon="-8.6475310">
        <ele>30.9</ele>
        <time>2021-05-23T09:40:20Z</time>
      </trkpt>
      <trkpt lat="42.7136100" lon="-8.6475350">
        <ele>30.9</ele>
        <time>2021-05-23T09:40:21Z</time>
      </trkpt>
      <trkpt lat="42.7136170" lon="-8.6475400">
        <ele>30.9</ele>
        <time>2021-05-23T09:40:22Z</time>
      </trkpt>
      <trkpt lat="42.7136350" lon="-8.6475470">
        <ele>30.9</ele>
        <time>2021-05-23T09:40:23Z</time>
      </trkpt>
      <trkpt lat="42.7136410" lon="-8.6475490">
        <ele>30.9</ele>
        <time>2021-05-23T09:40:24Z</time>
      </trkpt>
      <trkpt lat="42.7136480" lon="-8.6475510">
        <ele>30.9</ele>
        <time>2021-05-23T09:40:25Z</time>
      </trkpt>
      <trkpt lat="42.7136540" lon="-8.6475530">
        <ele>30.9</ele>
        <time>2021-05-23T09:40:26Z</time>
      </trkpt>
      <trkpt lat="42.7136650" lon="-8.6475550">
        <ele>30.9</ele>
        <time>2021-05-23T09:40:27Z</time>
      </trkpt>
      <trkpt lat="42.7136710" lon="-8.6475630">
        <ele>30.9</ele>
        <time>2021-05-23T09:40:28Z</time>
      </trkpt>
      <trkpt lat="42.7136820" lon="-8.6475630">
        <ele>30.9</ele>
        <time>2021-05-23T09:40:29Z</time>
      </trkpt>
      <trkpt lat="42.7136950" lon="-8.6475700">
        <ele>30.9</ele>
        <time>2021-05-23T09:40:30Z</time>
      </trkpt>
      <trkpt lat="42.7137020" lon="-8.6475760">
        <ele>30.9</ele>
        <time>2021-05-23T09:40:31Z</time>
      </trkpt>
      <trkpt lat="42.7137080" lon="-8.6475810">
        <ele>30.9</ele>
        <time>2021-05-23T09:40:32Z</time>
      </trkpt>
      <trkpt lat="42.7137150" lon="-8.6475870">
        <ele>30.9</ele>
        <time>2021-05-23T09:40:33Z</time>
      </trkpt>
      <trkpt lat="42.7137340" lon="-8.6475950">
        <ele>30.9</ele>
        <time>2021-05-23T09:40:34Z</time>
      </trkpt>
      <trkpt lat="42.7137440" lon="-8.6475960">
        <ele>30.9</ele>
        <time>2021-05-23T09:40:35Z</time>
      </trkpt>
      <trkpt lat="42.7137550" lon="-8.6475960">
        <ele>30.9</ele>
        <time>2021-05-23T09:40:36Z</time>
      </trkpt>
      <trkpt lat="42.7137640" lon="-8.6475970">
        <ele>30.9</ele>
        <time>2021-05-23T09:40:37Z</time>
      </trkpt>
      <trkpt lat="42.7137770" lon="-8.6476050">
        <ele>30.9</ele>
        <time>2021-05-23T09:40:38Z</time>
      </trkpt>
      <trkpt lat="42.7137870" lon="-8.6476120">
        <ele>30.9</ele>
        <time>2021-05-23T09:40:39Z</time>
      </trkpt>
      <trkpt lat="42.7138080" lon="-8.6476220">
        <ele>30.9</ele>
        <time>2021-05-23T09:40:40Z</time>
      </trkpt>
      <trkpt lat="42.7138180" lon="-8.6476260">
        <ele>30.9</ele>
        <time>2021-05-23T09:40:41Z</time>
      </trkpt>
      <trkpt lat="42.7138270" lon="-8.6476300">
        <ele>30.9</ele>
        <time>2021-05-23T09:40:42Z</time>
      </trkpt>
      <trkpt lat="42.7138360" lon="-8.6476360">
        <ele>30.9</ele>
        <time>2021-05-23T09:40:43Z</time>
      </trkpt>
      <trkpt lat="42.7138440" lon="-8.6476340">
        <ele>31.0</ele>
        <time>2021-05-23T09:40:44Z</time>
      </trkpt>
      <trkpt lat="42.7138570" lon="-8.6476410">
        <ele>31.0</ele>
        <time>2021-05-23T09:40:45Z</time>
      </trkpt>
      <trkpt lat="42.7138690" lon="-8.6476500">
        <ele>31.0</ele>
        <time>2021-05-23T09:40:46Z</time>
      </trkpt>
      <trkpt lat="42.7138850" lon="-8.6476650">
        <ele>31.0</ele>
        <time>2021-05-23T09:40:47Z</time>
      </trkpt>
      <trkpt lat="42.7138930" lon="-8.6476710">
        <ele>31.0</ele>
        <time>2021-05-23T09:40:48Z</time>
      </trkpt>
      <trkpt lat="42.7139000" lon="-8.6476820">
        <ele>31.0</ele>
        <time>2021-05-23T09:40:49Z</time>
      </trkpt>
      <trkpt lat="42.7139100" lon="-8.6476950">
        <ele>31.0</ele>
        <time>2021-05-23T09:40:50Z</time>
      </trkpt>
      <trkpt lat="42.7139230" lon="-8.6477090">
        <ele>31.0</ele>
        <time>2021-05-23T09:40:51Z</time>
      </trkpt>
      <trkpt lat="42.7139370" lon="-8.6477130">
        <ele>31.0</ele>
        <time>2021-05-23T09:40:52Z</time>
      </trkpt>
      <trkpt lat="42.7139470" lon="-8.6477160">
        <ele>31.0</ele>
        <time>2021-05-23T09:40:53Z</time>
      </trkpt>
      <trkpt lat="42.7139570" lon="-8.6477200">
        <ele>31.0</ele>
        <time>2021-05-23T09:40:54Z</time>
      </trkpt>
      <trkpt lat="42.7139670" lon="-8.6477260">
        <ele>31.0</ele>
        <time>2021-05-23T09:40:55Z</time>
      </trkpt>
      <trkpt lat="42.7139770" lon="-8.6477370">
        <ele>31.0</ele>
        <time>2021-05-23T09:40:56Z</time>
      </trkpt>
      <trkpt lat="42.7139930" lon="-8.6477480">
        <ele>31.0</ele>
        <time>2021-05-23T09:40:57Z</time>
      </trkpt>
      <trkpt lat="42.7140020" lon="-8.6477480">
        <ele>31.0</ele>
        <time>2021-05-23T09:40:58Z</time>
      </trkpt>
      <trkpt lat="42.7140080" lon="-8.6477550">
        <ele>31.0</ele>
        <time>2021-05-23T09:40:59Z</time>
      </trkpt>
      <trkpt lat="42.7140200" lon="-8.6477520">
        <ele>31.0</ele>
        <time>2021-05-23T09:41:00Z</time>
      </trkpt>
      <trkpt lat="42.7140310" lon="-8.6477620">
        <ele>31.0</ele>
        <time>2021-05-23T09:41:01Z</time>
      </trkpt>
      <trkpt lat="42.7140390" lon="-8.6477690">
        <ele>31.0</ele>
        <time>2021-05-23T09:41:02Z</time>
      </trkpt>
      <trkpt lat="42.7140500" lon="-8.6477770">
        <ele>31.0</ele>
        <time>2021-05-23T09:41:03Z</time>
      </trkpt>
      <trkpt lat="42.7140590" lon="-8.6477890">
        <ele>31.0</ele>
        <time>2021-05-23T09:41:04Z</time>
      </trkpt>
      <trkpt lat="42.7140720" lon="-8.6478010">
        <ele>31.0</ele>
        <time>2021-05-23T09:41:05Z</time>
      </trkpt>
      <trkpt lat="42.7140840" lon="-8.6478110">
        <ele>31.0</ele>
        <time>2021-05-23T09:41:06Z</time>
      </trkpt>
      <trkpt lat="42.7140930" lon="-8.6478110">
        <ele>31.0</ele>
        <time>2021-05-23T09:41:07Z</time>
      </trkpt>
      <trkpt lat="42.7141000" lon="-8.6478140">
        <ele>31.0</ele>
        <time>2021-05-23T09:41:08Z</time>
      </trkpt>
      <trkpt lat="42.7141080" lon="-8.6478140">
        <ele>31.0</ele>
        <time>2021-05-23T09:41:09Z</time>
      </trkpt>
      <trkpt lat="42.7141150" lon="-8.6478240">
        <ele>31.0</ele>
        <time>2021-05-23T09:41:10Z</time>
      </trkpt>
      <trkpt lat="42.7141260" lon="-8.6478340">
        <ele>31.0</ele>
        <time>2021-05-23T09:41:11Z</time>
      </trkpt>
      <trkpt lat="42.7141380" lon="-8.6478410">
        <ele>31.0</ele>
        <time>2021-05-23T09:41:12Z</time>
      </trkpt>
      <trkpt lat="42.7141500" lon="-8.6478500">
        <ele>30.9</ele>
        <time>2021-05-23T09:41:13Z</time>
      </trkpt>
      <trkpt lat="42.7141720" lon="-8.6478580">
        <ele>30.9</ele>
        <time>2021-05-23T09:41:14Z</time>
      </trkpt>
      <trkpt lat="42.7141810" lon="-8.6478610">
        <ele>30.9</ele>
        <time>2021-05-23T09:41:15Z</time>
      </trkpt>
      <trkpt lat="42.7141900" lon="-8.6478650">
        <ele>30.9</ele>
        <time>2021-05-23T09:41:16Z</time>
      </trkpt>
      <trkpt lat="42.7141970" lon="-8.6478710">
        <ele>30.9</ele>
        <time>2021-05-23T09:41:17Z</time>
      </trkpt>
      <trkpt lat="42.7142030" lon="-8.6478760">
        <ele>30.9</ele>
        <time>2021-05-23T09:41:18Z</time>
      </trkpt>
      <trkpt lat="42.7142160" lon="-8.6478820">
        <ele>30.9</ele>
        <time>2021-05-23T09:41:19Z</time>
      </trkpt>
      <trkpt lat="42.7142360" lon="-8.6478910">
        <ele>30.9</ele>
        <time>2021-05-23T09:41:20Z</time>
      </trkpt>
      <trkpt lat="42.7142440" lon="-8.6478940">
        <ele>30.9</ele>
        <time>2021-05-23T09:41:21Z</time>
      </trkpt>
      <trkpt lat="42.7142510" lon="-8.6478970">
        <ele>30.9</ele>
        <time>2021-05-23T09:41:22Z</time>
      </trkpt>
      <trkpt lat="42.7142650" lon="-8.6479010">
        <ele>30.9</ele>
        <time>2021-05-23T09:41:23Z</time>
      </trkpt>
      <trkpt lat="42.7142770" lon="-8.6479090">
        <ele>30.9</ele>
        <time>2021-05-23T09:41:24Z</time>
      </trkpt>
      <trkpt lat="42.7142890" lon="-8.6479220">
        <ele>30.9</ele>
        <time>2021-05-23T09:41:25Z</time>
      </trkpt>
      <trkpt lat="42.7143030" lon="-8.6479250">
        <ele>30.9</ele>
        <time>2021-05-23T09:41:26Z</time>
      </trkpt>
      <trkpt lat="42.7143100" lon="-8.6479240">
        <ele>30.9</ele>
        <time>2021-05-23T09:41:27Z</time>
      </trkpt>
      <trkpt lat="42.7143230" lon="-8.6479360">
        <ele>30.9</ele>
        <time>2021-05-23T09:41:28Z</time>
      </trkpt>
      <trkpt lat="42.7143350" lon="-8.6479370">
        <ele>30.9</ele>
        <time>2021-05-23T09:41:29Z</time>
      </trkpt>
      <trkpt lat="42.7143550" lon="-8.6479550">
        <ele>30.9</ele>
        <time>2021-05-23T09:41:30Z</time>
      </trkpt>
      <trkpt lat="42.7143630" lon="-8.6479590">
        <ele>30.9</ele>
        <time>2021-05-23T09:41:31Z</time>
      </trkpt>
      <trkpt lat="42.7143700" lon="-8.6479630">
        <ele>30.9</ele>
        <time>2021-05-23T09:41:32Z</time>
      </trkpt>
      <trkpt lat="42.7143730" lon="-8.6479680">
        <ele>30.9</ele>
        <time>2021-05-23T09:41:33Z</time>
      </trkpt>
      <trkpt lat="42.7143790" lon="-8.6479800">
        <ele>30.9</ele>
        <time>2021-05-23T09:41:34Z</time>
      </trkpt>
      <trkpt lat="42.7143890" lon="-8.6479800">
        <ele>30.9</ele>
        <time>2021-05-23T09:41:35Z</time>
      </trkpt>
      <trkpt lat="42.7143980" lon="-8.6479820">
        <ele>30.9</ele>
        <time>2021-05-23T09:41:36Z</time>
      </trkpt>
      <trkpt lat="42.7144190" lon="-8.6479940">
        <ele>30.9</ele>
        <time>2021-05-23T09:41:37Z</time>
      </trkpt>
      <trkpt lat="42.7144250" lon="-8.6480010">
        <ele>30.9</ele>
        <time>2021-05-23T09:41:38Z</time>
      </trkpt>
      <trkpt lat="42.7144320" lon="-8.6480070">
        <ele>30.9</ele>
        <time>2021-05-23T09:41:39Z</time>
      </trkpt>
      <trkpt lat="42.7144550" lon="-8.6480080">
        <ele>30.9</ele>
        <time>2021-05-23T09:41:40Z</time>
      </trkpt>
      <trkpt lat="42.7144630" lon="-8.6480070">
        <ele>30.9</ele>
        <time>2021-05-23T09:41:41Z</time>
      </trkpt>
      <trkpt lat="42.7144710" lon="-8.6480060">
        <ele>30.9</ele>
        <time>2021-05-23T09:41:42Z</time>
      </trkpt>
      <trkpt lat="42.7144900" lon="-8.6480130">
        <ele>30.9</ele>
        <time>2021-05-23T09:41:43Z</time>
      </trkpt>
      <trkpt lat="42.7144990" lon="-8.6480150">
        <ele>30.9</ele>
        <time>2021-05-23T09:41:44Z</time>
      </trkpt>
      <trkpt lat="42.7145080" lon="-8.6480160">
        <ele>30.9</ele>
        <time>2021-05-23T09:41:45Z</time>
      </trkpt>
      <trkpt lat="42.7145270" lon="-8.6480200">
        <ele>30.9</ele>
        <time>2021-05-23T09:41:46Z</time>
      </trkpt>
      <trkpt lat="42.7145340" lon="-8.6480210">
        <ele>30.9</ele>
        <time>2021-05-23T09:41:47Z</time>
      </trkpt>
      <trkpt lat="42.7145410" lon="-8.6480230">
        <ele>30.9</ele>
        <time>2021-05-23T09:41:48Z</time>
      </trkpt>
      <trkpt lat="42.7145480" lon="-8.6480250">
        <ele>30.9</ele>
        <time>2021-05-23T09:41:49Z</time>
      </trkpt>
      <trkpt lat="42.7145580" lon="-8.6480280">
        <ele>30.9</ele>
        <time>2021-05-23T09:41:50Z</time>
      </trkpt>
      <trkpt lat="42.7145760" lon="-8.6480330">
        <ele>30.9</ele>
        <time>2021-05-23T09:41:51Z</time>
      </trkpt>
      <trkpt lat="42.7145980" lon="-8.6480420">
        <ele>30.9</ele>
        <time>2021-05-23T09:41:52Z</time>
      </trkpt>
      <trkpt lat="42.7146070" lon="-8.6480470">
        <ele>30.9</ele>
        <time>2021-05-23T09:41:53Z</time>
      </trkpt>
      <trkpt lat="42.7146150" lon="-8.6480510">
        <ele>30.9</ele>
        <time>2021-05-23T09:41:54Z</time>
      </trkpt>
      <trkpt lat="42.7146290" lon="-8.6480620">
        <ele>30.9</ele>
        <time>2021-05-23T09:41:55Z</time>
      </trkpt>
      <trkpt lat="42.7146430" lon="-8.6480680">
        <ele>30.9</ele>
        <time>2021-05-23T09:41:56Z</time>
      </trkpt>
      <trkpt lat="42.7146560" lon="-8.6480740">
        <ele>30.9</ele>
        <time>2021-05-23T09:41:57Z</time>
      </trkpt>
      <trkpt lat="42.7146690" lon="-8.6480820">
        <ele>30.9</ele>
        <time>2021-05-23T09:41:58Z</time>
      </trkpt>
      <trkpt lat="42.7146780" lon="-8.6480930">
        <ele>30.9</ele>
        <time>2021-05-23T09:41:59Z</time>
      </trkpt>
      <trkpt lat="42.7146860" lon="-8.6480960">
        <ele>30.9</ele>
        <time>2021-05-23T09:42:00Z</time>
      </trkpt>
      <trkpt lat="42.7146940" lon="-8.6480980">
        <ele>30.9</ele>
        <time>2021-05-23T09:42:01Z</time>
      </trkpt>
      <trkpt lat="42.7147110" lon="-8.6481070">
        <ele>30.9</ele>
        <time>2021-05-23T09:42:02Z</time>
      </trkpt>
      <trkpt lat="42.7147170" lon="-8.6481100">
        <ele>30.9</ele>
        <time>2021-05-23T09:42:03Z</time>
      </trkpt>
      <trkpt lat="42.7147220" lon="-8.6481140">
        <ele>30.9</ele>
        <time>2021-05-23T09:42:04Z</time>
      </trkpt>
      <trkpt lat="42.7147280" lon="-8.6481170">
        <ele>30.9</ele>
        <time>2021-05-23T09:42:05Z</time>
      </trkpt>
      <trkpt lat="42.7147500" lon="-8.6481250">
        <ele>30.9</ele>
        <time>2021-05-23T09:42:06Z</time>
      </trkpt>
      <trkpt lat="42.7147580" lon="-8.6481280">
        <ele>30.9</ele>
        <time>2021-05-23T09:42:07Z</time>
      </trkpt>
      <trkpt lat="42.7147650" lon="-8.6481320">
        <ele>30.9</ele>
        <time>2021-05-23T09:42:08Z</time>
      </trkpt>
      <trkpt lat="42.7147730" lon="-8.6481330">
        <ele>30.9</ele>
        <time>2021-05-23T09:42:09Z</time>
      </trkpt>
      <trkpt lat="42.7147840" lon="-8.6481340">
        <ele>30.9</ele>
        <time>2021-05-23T09:42:10Z</time>
      </trkpt>
      <trkpt lat="42.7147950" lon="-8.6481390">
        <ele>30.9</ele>
        <time>2021-05-23T09:42:11Z</time>
      </trkpt>
      <trkpt lat="42.7148060" lon="-8.6481390">
        <ele>30.9</ele>
        <time>2021-05-23T09:42:12Z</time>
      </trkpt>
      <trkpt lat="42.7148160" lon="-8.6481410">
        <ele>30.9</ele>
        <time>2021-05-23T09:42:13Z</time>
      </trkpt>
      <trkpt lat="42.7148240" lon="-8.6481470">
        <ele>30.9</ele>
        <time>2021-05-23T09:42:14Z</time>
      </trkpt>
      <trkpt lat="42.7148400" lon="-8.6481490">
        <ele>30.9</ele>
        <time>2021-05-23T09:42:15Z</time>
      </trkpt>
      <trkpt lat="42.7148540" lon="-8.6481520">
        <ele>30.9</ele>
        <time>2021-05-23T09:42:16Z</time>
      </trkpt>
      <trkpt lat="42.7148720" lon="-8.6481520">
        <ele>30.9</ele>
        <time>2021-05-23T09:42:17Z</time>
      </trkpt>
      <trkpt lat="42.7148830" lon="-8.6481530">
        <ele>30.9</ele>
        <time>2021-05-23T09:42:18Z</time>
      </trkpt>
      <trkpt lat="42.7148930" lon="-8.6481530">
        <ele>30.9</ele>
        <time>2021-05-23T09:42:19Z</time>
      </trkpt>
      <trkpt lat="42.7149150" lon="-8.6481600">
        <ele>30.9</ele>
        <time>2021-05-23T09:42:20Z</time>
      </trkpt>
      <trkpt lat="42.7149220" lon="-8.6481630">
        <ele>30.9</ele>
        <time>2021-05-23T09:42:21Z</time>
      </trkpt>
      <trkpt lat="42.7149300" lon="-8.6481660">
        <ele>30.9</ele>
        <time>2021-05-23T09:42:22Z</time>
      </trkpt>
      <trkpt lat="42.7149500" lon="-8.6481760">
        <ele>30.9</ele>
        <time>2021-05-23T09:42:23Z</time>
      </trkpt>
      <trkpt lat="42.7149580" lon="-8.6481790">
        <ele>30.9</ele>
        <time>2021-05-23T09:42:24Z</time>
      </trkpt>
      <trkpt lat="42.7149660" lon="-8.6481820">
        <ele>30.9</ele>
        <time>2021-05-23T09:42:25Z</time>
      </trkpt>
      <trkpt lat="42.7149770" lon="-8.6481850">
        <ele>30.9</ele>
        <time>2021-05-23T09:42:26Z</time>
      </trkpt>
      <trkpt lat="42.7149880" lon="-8.6481860">
        <ele>30.9</ele>
        <time>2021-05-23T09:42:27Z</time>
      </trkpt>
      <trkpt lat="42.7149960" lon="-8.6481900">
        <ele>31.0</ele>
        <time>2021-05-23T09:42:28Z</time>
      </trkpt>
      <trkpt lat="42.7150100" lon="-8.6481900">
        <ele>31.0</ele>
        <time>2021-05-23T09:42:29Z</time>
      </trkpt>
      <trkpt lat="42.7150280" lon="-8.6481960">
        <ele>31.0</ele>
        <time>2021-05-23T09:42:30Z</time>
      </trkpt>
      <trkpt lat="42.7150400" lon="-8.6481970">
        <ele>31.0</ele>
        <time>2021-05-23T09:42:31Z</time>
      </trkpt>
      <trkpt lat="42.7150470" lon="-8.6481930">
        <ele>31.0</ele>
        <time>2021-05-23T09:42:32Z</time>
      </trkpt>
      <trkpt lat="42.7150440" lon="-8.6481900">
        <ele>31.0</ele>
        <time>2021-05-23T09:42:33Z</time>
      </trkpt>
      <trkpt lat="42.7150590" lon="-8.6481950">
        <ele>31.0</ele>
        <time>2021-05-23T09:42:34Z</time>
      </trkpt>
      <trkpt lat="42.7150710" lon="-8.6481970">
        <ele>31.0</ele>
        <time>2021-05-23T09:42:35Z</time>
      </trkpt>
      <trkpt lat="42.7150770" lon="-8.6481910">
        <ele>31.0</ele>
        <time>2021-05-23T09:42:36Z</time>
      </trkpt>
      <trkpt lat="42.7150810" lon="-8.6481930">
        <ele>31.0</ele>
        <time>2021-05-23T09:42:37Z</time>
      </trkpt>
      <trkpt lat="42.7150920" lon="-8.6481940">
        <ele>31.0</ele>
        <time>2021-05-23T09:42:38Z</time>
      </trkpt>
      <trkpt lat="42.7151100" lon="-8.6481970">
        <ele>31.0</ele>
        <time>2021-05-23T09:42:39Z</time>
      </trkpt>
      <trkpt lat="42.7151150" lon="-8.6481940">
        <ele>31.0</ele>
        <time>2021-05-23T09:42:40Z</time>
      </trkpt>
      <trkpt lat="42.7151270" lon="-8.6481980">
        <ele>31.0</ele>
        <time>2021-05-23T09:42:41Z</time>
      </trkpt>
      <trkpt lat="42.7151370" lon="-8.6482010">
        <ele>31.0</ele>
        <time>2021-05-23T09:42:42Z</time>
      </trkpt>
      <trkpt lat="42.7151470" lon="-8.6482040">
        <ele>31.0</ele>
        <time>2021-05-23T09:42:43Z</time>
      </trkpt>
      <trkpt lat="42.7151630" lon="-8.6482080">
        <ele>31.0</ele>
        <time>2021-05-23T09:42:44Z</time>
      </trkpt>
      <trkpt lat="42.7151740" lon="-8.6482100">
        <ele>31.0</ele>
        <time>2021-05-23T09:42:45Z</time>
      </trkpt>
      <trkpt lat="42.7151880" lon="-8.6482190">
        <ele>31.0</ele>
        <time>2021-05-23T09:42:46Z</time>
      </trkpt>
      <trkpt lat="42.7151940" lon="-8.6482290">
        <ele>31.0</ele>
        <time>2021-05-23T09:42:47Z</time>
      </trkpt>
      <trkpt lat="42.7152040" lon="-8.6482320">
        <ele>31.0</ele>
        <time>2021-05-23T09:42:48Z</time>
      </trkpt>
      <trkpt lat="42.7152140" lon="-8.6482380">
        <ele>31.0</ele>
        <time>2021-05-23T09:42:49Z</time>
      </trkpt>
      <trkpt lat="42.7152270" lon="-8.6482450">
        <ele>31.0</ele>
        <time>2021-05-23T09:42:50Z</time>
      </trkpt>
      <trkpt lat="42.7152420" lon="-8.6482570">
        <ele>31.0</ele>
        <time>2021-05-23T09:42:51Z</time>
      </trkpt>
      <trkpt lat="42.7152450" lon="-8.6482540">
        <ele>31.0</ele>
        <time>2021-05-23T09:42:52Z</time>
      </trkpt>
      <trkpt lat="42.7152550" lon="-8.6482550">
        <ele>31.0</ele>
        <time>2021-05-23T09:42:53Z</time>
      </trkpt>
      <trkpt lat="42.7152770" lon="-8.6482550">
        <ele>31.0</ele>
        <time>2021-05-23T09:42:54Z</time>
      </trkpt>
      <trkpt lat="42.7152860" lon="-8.6482570">
        <ele>31.0</ele>
        <time>2021-05-23T09:42:55Z</time>
      </trkpt>
      <trkpt lat="42.7152940" lon="-8.6482600">
        <ele>31.0</ele>
        <time>2021-05-23T09:42:56Z</time>
      </trkpt>
      <trkpt lat="42.7153020" lon="-8.6482600">
        <ele>31.0</ele>
        <time>2021-05-23T09:42:57Z</time>
      </trkpt>
      <trkpt lat="42.7153100" lon="-8.6482610">
        <ele>31.0</ele>
        <time>2021-05-23T09:42:58Z</time>
      </trkpt>
      <trkpt lat="42.7153140" lon="-8.6482590">
        <ele>31.0</ele>
        <time>2021-05-23T09:42:59Z</time>
      </trkpt>
      <trkpt lat="42.7153290" lon="-8.6482600">
        <ele>31.0</ele>
        <time>2021-05-23T09:43:00Z</time>
      </trkpt>
      <trkpt lat="42.7153380" lon="-8.6482650">
        <ele>31.0</ele>
        <time>2021-05-23T09:43:01Z</time>
      </trkpt>
      <trkpt lat="42.7153510" lon="-8.6482680">
        <ele>31.0</ele>
        <time>2021-05-23T09:43:02Z</time>
      </trkpt>
      <trkpt lat="42.7153610" lon="-8.6482740">
        <ele>31.0</ele>
        <time>2021-05-23T09:43:03Z</time>
      </trkpt>
      <trkpt lat="42.7153700" lon="-8.6482750">
        <ele>31.0</ele>
        <time>2021-05-23T09:43:04Z</time>
      </trkpt>
      <trkpt lat="42.7153810" lon="-8.6482800">
        <ele>31.0</ele>
        <time>2021-05-23T09:43:05Z</time>
      </trkpt>
      <trkpt lat="42.7153890" lon="-8.6482840">
        <ele>31.0</ele>
        <time>2021-05-23T09:43:06Z</time>
      </trkpt>
      <trkpt lat="42.7154160" lon="-8.6482870">
        <ele>31.0</ele>
        <time>2021-05-23T09:43:07Z</time>
      </trkpt>
      <trkpt lat="42.7154230" lon="-8.6482890">
        <ele>31.0</ele>
        <time>2021-05-23T09:43:08Z</time>
      </trkpt>
      <trkpt lat="42.7154300" lon="-8.6482920">
        <ele>31.0</ele>
        <time>2021-05-23T09:43:09Z</time>
      </trkpt>
      <trkpt lat="42.7154440" lon="-8.6482920">
        <ele>31.0</ele>
        <time>2021-05-23T09:43:10Z</time>
      </trkpt>
      <trkpt lat="42.7154580" lon="-8.6482980">
        <ele>31.0</ele>
        <time>2021-05-23T09:43:11Z</time>
      </trkpt>
      <trkpt lat="42.7154700" lon="-8.6482930">
        <ele>31.0</ele>
        <time>2021-05-23T09:43:12Z</time>
      </trkpt>
      <trkpt lat="42.7154790" lon="-8.6482980">
        <ele>31.0</ele>
        <time>2021-05-23T09:43:13Z</time>
      </trkpt>
      <trkpt lat="42.7154930" lon="-8.6482980">
        <ele>31.0</ele>
        <time>2021-05-23T09:43:14Z</time>
      </trkpt>
      <trkpt lat="42.7155010" lon="-8.6483010">
        <ele>31.0</ele>
        <time>2021-05-23T09:43:15Z</time>
      </trkpt>
      <trkpt lat="42.7155180" lon="-8.6483090">
        <ele>31.0</ele>
        <time>2021-05-23T09:43:16Z</time>
      </trkpt>
      <trkpt lat="42.7155370" lon="-8.6483140">
        <ele>31.0</ele>
        <time>2021-05-23T09:43:17Z</time>
      </trkpt>
      <trkpt lat="42.7155470" lon="-8.6483170">
        <ele>31.0</ele>
        <time>2021-05-23T09:43:18Z</time>
      </trkpt>
      <trkpt lat="42.7155560" lon="-8.6483200">
        <ele>31.0</ele>
        <time>2021-05-23T09:43:19Z</time>
      </trkpt>
      <trkpt lat="42.7155650" lon="-8.6483210">
        <ele>31.0</ele>
        <time>2021-05-23T09:43:20Z</time>
      </trkpt>
      <trkpt lat="42.7155690" lon="-8.6483290">
        <ele>31.0</ele>
        <time>2021-05-23T09:43:21Z</time>
      </trkpt>
      <trkpt lat="42.7155780" lon="-8.6483370">
        <ele>31.0</ele>
        <time>2021-05-23T09:43:22Z</time>
      </trkpt>
      <trkpt lat="42.7155860" lon="-8.6483420">
        <ele>31.0</ele>
        <time>2021-05-23T09:43:23Z</time>
      </trkpt>
      <trkpt lat="42.7155940" lon="-8.6483450">
        <ele>31.0</ele>
        <time>2021-05-23T09:43:24Z</time>
      </trkpt>
      <trkpt lat="42.7156020" lon="-8.6483420">
        <ele>31.0</ele>
        <time>2021-05-23T09:43:25Z</time>
      </trkpt>
      <trkpt lat="42.7156060" lon="-8.6483400">
        <ele>31.0</ele>
        <time>2021-05-23T09:43:26Z</time>
      </trkpt>
      <trkpt lat="42.7156140" lon="-8.6483400">
        <ele>31.0</ele>
        <time>2021-05-23T09:43:27Z</time>
      </trkpt>
      <trkpt lat="42.7156270" lon="-8.6483460">
        <ele>31.0</ele>
        <time>2021-05-23T09:43:28Z</time>
      </trkpt>
      <trkpt lat="42.7156350" lon="-8.6483510">
        <ele>31.0</ele>
        <time>2021-05-23T09:43:29Z</time>
      </trkpt>
      <trkpt lat="42.7156420" lon="-8.6483560">
        <ele>31.0</ele>
        <time>2021-05-23T09:43:30Z</time>
      </trkpt>
      <trkpt lat="42.7156490" lon="-8.6483610">
        <ele>31.0</ele>
        <time>2021-05-23T09:43:31Z</time>
      </trkpt>
      <trkpt lat="42.7156610" lon="-8.6483550">
        <ele>31.0</ele>
        <time>2021-05-23T09:43:32Z</time>
      </trkpt>
      <trkpt lat="42.7156650" lon="-8.6483530">
        <ele>31.0</ele>
        <time>2021-05-23T09:43:33Z</time>
      </trkpt>
      <trkpt lat="42.7156650" lon="-8.6483520">
        <ele>31.0</ele>
        <time>2021-05-23T09:43:34Z</time>
      </trkpt>
      <trkpt lat="42.7156620" lon="-8.6483450">
        <ele>31.0</ele>
        <time>2021-05-23T09:43:35Z</time>
      </trkpt>
      <trkpt lat="42.7156530" lon="-8.6483400">
        <ele>31.0</ele>
        <time>2021-05-23T09:43:36Z</time>
      </trkpt>
      <trkpt lat="42.7156490" lon="-8.6483390">
        <ele>31.0</ele>
        <time>2021-05-23T09:43:37Z</time>
      </trkpt>
      <trkpt lat="42.7156490" lon="-8.6483340">
        <ele>31.0</ele>
        <time>2021-05-23T09:43:38Z</time>
      </trkpt>
      <trkpt lat="42.7156590" lon="-8.6483290">
        <ele>31.0</ele>
        <time>2021-05-23T09:43:39Z</time>
      </trkpt>
      <trkpt lat="42.7156780" lon="-8.6483330">
        <ele>31.0</ele>
        <time>2021-05-23T09:43:40Z</time>
      </trkpt>
      <trkpt lat="42.7157000" lon="-8.6483360">
        <ele>31.0</ele>
        <time>2021-05-23T09:43:41Z</time>
      </trkpt>
      <trkpt lat="42.7157110" lon="-8.6483360">
        <ele>31.0</ele>
        <time>2021-05-23T09:43:42Z</time>
      </trkpt>
      <trkpt lat="42.7157210" lon="-8.6483350">
        <ele>31.0</ele>
        <time>2021-05-23T09:43:43Z</time>
      </trkpt>
      <trkpt lat="42.7157540" lon="-8.6483400">
        <ele>31.0</ele>
        <time>2021-05-23T09:43:44Z</time>
      </trkpt>
      <trkpt lat="42.7157630" lon="-8.6483430">
        <ele>31.0</ele>
        <time>2021-05-23T09:43:45Z</time>
      </trkpt>
      <trkpt lat="42.7157700" lon="-8.6483520">
        <ele>31.0</ele>
        <time>2021-05-23T09:43:46Z</time>
      </trkpt>
      <trkpt lat="42.7157880" lon="-8.6483600">
        <ele>31.0</ele>
        <time>2021-05-23T09:43:47Z</time>
      </trkpt>
      <trkpt lat="42.7158090" lon="-8.6483600">
        <ele>31.0</ele>
        <time>2021-05-23T09:43:48Z</time>
      </trkpt>
      <trkpt lat="42.7158190" lon="-8.6483620">
        <ele>31.0</ele>
        <time>2021-05-23T09:43:49Z</time>
      </trkpt>
      <trkpt lat="42.7158300" lon="-8.6483630">
        <ele>31.0</ele>
        <time>2021-05-23T09:43:50Z</time>
      </trkpt>
      <trkpt lat="42.7158610" lon="-8.6483700">
        <ele>31.0</ele>
        <time>2021-05-23T09:43:51Z</time>
      </trkpt>
      <trkpt lat="42.7158700" lon="-8.6483750">
        <ele>31.0</ele>
        <time>2021-05-23T09:43:52Z</time>
      </trkpt>
      <trkpt lat="42.7158790" lon="-8.6483800">
        <ele>31.0</ele>
        <time>2021-05-23T09:43:53Z</time>
      </trkpt>
      <trkpt lat="42.7158930" lon="-8.6483860">
        <ele>31.0</ele>
        <time>2021-05-23T09:43:54Z</time>
      </trkpt>
      <trkpt lat="42.7159010" lon="-8.6483890">
        <ele>31.0</ele>
        <time>2021-05-23T09:43:55Z</time>
      </trkpt>
      <trkpt lat="42.7159100" lon="-8.6483890">
        <ele>31.0</ele>
        <time>2021-05-23T09:43:56Z</time>
      </trkpt>
      <trkpt lat="42.7159240" lon="-8.6483930">
        <ele>31.0</ele>
        <time>2021-05-23T09:43:57Z</time>
      </trkpt>
      <trkpt lat="42.7159320" lon="-8.6484040">
        <ele>31.0</ele>
        <time>2021-05-23T09:43:58Z</time>
      </trkpt>
      <trkpt lat="42.7159420" lon="-8.6484050">
        <ele>31.0</ele>
        <time>2021-05-23T09:43:59Z</time>
      </trkpt>
      <trkpt lat="42.7159550" lon="-8.6484100">
        <ele>31.0</ele>
        <time>2021-05-23T09:44:00Z</time>
      </trkpt>
      <trkpt lat="42.7159680" lon="-8.6484120">
        <ele>31.0</ele>
        <time>2021-05-23T09:44:01Z</time>
      </trkpt>
      <trkpt lat="42.7159800" lon="-8.6484080">
        <ele>31.0</ele>
        <time>2021-05-23T09:44:02Z</time>
      </trkpt>
      <trkpt lat="42.7159870" lon="-8.6484110">
        <ele>31.0</ele>
        <time>2021-05-23T09:44:03Z</time>
      </trkpt>
      <trkpt lat="42.7160000" lon="-8.6484090">
        <ele>31.0</ele>
        <time>2021-05-23T09:44:04Z</time>
      </trkpt>
      <trkpt lat="42.7160160" lon="-8.6484060">
        <ele>31.0</ele>
        <time>2021-05-23T09:44:05Z</time>
      </trkpt>
      <trkpt lat="42.7160250" lon="-8.6484060">
        <ele>31.0</ele>
        <time>2021-05-23T09:44:06Z</time>
      </trkpt>
      <trkpt lat="42.7160320" lon="-8.6484060">
        <ele>31.0</ele>
        <time>2021-05-23T09:44:07Z</time>
      </trkpt>
      <trkpt lat="42.7160450" lon="-8.6484060">
        <ele>31.0</ele>
        <time>2021-05-23T09:44:08Z</time>
      </trkpt>
      <trkpt lat="42.7160550" lon="-8.6484170">
        <ele>31.0</ele>
        <time>2021-05-23T09:44:09Z</time>
      </trkpt>
      <trkpt lat="42.7160630" lon="-8.6484220">
        <ele>31.0</ele>
        <time>2021-05-23T09:44:10Z</time>
      </trkpt>
      <trkpt lat="42.7160750" lon="-8.6484170">
        <ele>31.0</ele>
        <time>2021-05-23T09:44:11Z</time>
      </trkpt>
      <trkpt lat="42.7160820" lon="-8.6484170">
        <ele>31.0</ele>
        <time>2021-05-23T09:44:12Z</time>
      </trkpt>
      <trkpt lat="42.7160940" lon="-8.6484190">
        <ele>31.0</ele>
        <time>2021-05-23T09:44:13Z</time>
      </trkpt>
      <trkpt lat="42.7161030" lon="-8.6484210">
        <ele>31.0</ele>
        <time>2021-05-23T09:44:14Z</time>
      </trkpt>
      <trkpt lat="42.7161200" lon="-8.6484240">
        <ele>31.0</ele>
        <time>2021-05-23T09:44:15Z</time>
      </trkpt>
      <trkpt lat="42.7161250" lon="-8.6484260">
        <ele>31.0</ele>
        <time>2021-05-23T09:44:16Z</time>
      </trkpt>
      <trkpt lat="42.7161370" lon="-8.6484330">
        <ele>31.0</ele>
        <time>2021-05-23T09:44:17Z</time>
      </trkpt>
      <trkpt lat="42.7161440" lon="-8.6484390">
        <ele>31.0</ele>
        <time>2021-05-23T09:44:18Z</time>
      </trkpt>
      <trkpt lat="42.7161530" lon="-8.6484400">
        <ele>31.0</ele>
        <time>2021-05-23T09:44:19Z</time>
      </trkpt>
      <trkpt lat="42.7161750" lon="-8.6484400">
        <ele>31.0</ele>
        <time>2021-05-23T09:44:20Z</time>
      </trkpt>
      <trkpt lat="42.7161840" lon="-8.6484400">
        <ele>31.0</ele>
        <time>2021-05-23T09:44:21Z</time>
      </trkpt>
      <trkpt lat="42.7161920" lon="-8.6484410">
        <ele>31.0</ele>
        <time>2021-05-23T09:44:22Z</time>
      </trkpt>
      <trkpt lat="42.7162020" lon="-8.6484430">
        <ele>31.0</ele>
        <time>2021-05-23T09:44:23Z</time>
      </trkpt>
      <trkpt lat="42.7162140" lon="-8.6484490">
        <ele>31.0</ele>
        <time>2021-05-23T09:44:24Z</time>
      </trkpt>
      <trkpt lat="42.7162240" lon="-8.6484510">
        <ele>31.0</ele>
        <time>2021-05-23T09:44:25Z</time>
      </trkpt>
      <trkpt lat="42.7162370" lon="-8.6484510">
        <ele>31.0</ele>
        <time>2021-05-23T09:44:26Z</time>
      </trkpt>
      <trkpt lat="42.7162450" lon="-8.6484570">
        <ele>31.0</ele>
        <time>2021-05-23T09:44:27Z</time>
      </trkpt>
      <trkpt lat="42.7162590" lon="-8.6484590">
        <ele>31.0</ele>
        <time>2021-05-23T09:44:28Z</time>
      </trkpt>
      <trkpt lat="42.7162780" lon="-8.6484650">
        <ele>31.0</ele>
        <time>2021-05-23T09:44:29Z</time>
      </trkpt>
      <trkpt lat="42.7162860" lon="-8.6484680">
        <ele>31.0</ele>
        <time>2021-05-23T09:44:30Z</time>
      </trkpt>
      <trkpt lat="42.7162950" lon="-8.6484700">
        <ele>31.0</ele>
        <time>2021-05-23T09:44:31Z</time>
      </trkpt>
      <trkpt lat="42.7163080" lon="-8.6484730">
        <ele>31.0</ele>
        <time>2021-05-23T09:44:32Z</time>
      </trkpt>
      <trkpt lat="42.7163170" lon="-8.6484670">
        <ele>31.0</ele>
        <time>2021-05-23T09:44:33Z</time>
      </trkpt>
      <trkpt lat="42.7163300" lon="-8.6484720">
        <ele>31.0</ele>
        <time>2021-05-23T09:44:34Z</time>
      </trkpt>
      <trkpt lat="42.7163440" lon="-8.6484750">
        <ele>31.0</ele>
        <time>2021-05-23T09:44:35Z</time>
      </trkpt>
      <trkpt lat="42.7163630" lon="-8.6484790">
        <ele>31.0</ele>
        <time>2021-05-23T09:44:36Z</time>
      </trkpt>
      <trkpt lat="42.7163770" lon="-8.6484800">
        <ele>31.0</ele>
        <time>2021-05-23T09:44:37Z</time>
      </trkpt>
      <trkpt lat="42.7163840" lon="-8.6484880">
        <ele>31.0</ele>
        <time>2021-05-23T09:44:38Z</time>
      </trkpt>
      <trkpt lat="42.7163930" lon="-8.6484890">
        <ele>31.0</ele>
        <time>2021-05-23T09:44:39Z</time>
      </trkpt>
      <trkpt lat="42.7164000" lon="-8.6484960">
        <ele>31.0</ele>
        <time>2021-05-23T09:44:40Z</time>
      </trkpt>
      <trkpt lat="42.7164090" lon="-8.6484940">
        <ele>31.0</ele>
        <time>2021-05-23T09:44:41Z</time>
      </trkpt>
      <trkpt lat="42.7164240" lon="-8.6484920">
        <ele>31.0</ele>
        <time>2021-05-23T09:44:42Z</time>
      </trkpt>
      <trkpt lat="42.7164370" lon="-8.6484920">
        <ele>31.0</ele>
        <time>2021-05-23T09:44:43Z</time>
      </trkpt>
      <trkpt lat="42.7164510" lon="-8.6484950">
        <ele>31.0</ele>
        <time>2021-05-23T09:44:44Z</time>
      </trkpt>
      <trkpt lat="42.7164610" lon="-8.6485010">
        <ele>31.0</ele>
        <time>2021-05-23T09:44:45Z</time>
      </trkpt>
      <trkpt lat="42.7164700" lon="-8.6485040">
        <ele>31.0</ele>
        <time>2021-05-23T09:44:46Z</time>
      </trkpt>
      <trkpt lat="42.7164780" lon="-8.6485060">
        <ele>31.0</ele>
        <time>2021-05-23T09:44:47Z</time>
      </trkpt>
      <trkpt lat="42.7164870" lon="-8.6485090">
        <ele>31.0</ele>
        <time>2021-05-23T09:44:48Z</time>
      </trkpt>
      <trkpt lat="42.7164950" lon="-8.6485140">
        <ele>31.0</ele>
        <time>2021-05-23T09:44:49Z</time>
      </trkpt>
      <trkpt lat="42.7165060" lon="-8.6485150">
        <ele>31.0</ele>
        <time>2021-05-23T09:44:50Z</time>
      </trkpt>
      <trkpt lat="42.7165210" lon="-8.6485100">
        <ele>31.0</ele>
        <time>2021-05-23T09:44:51Z</time>
      </trkpt>
      <trkpt lat="42.7165330" lon="-8.6485190">
        <ele>31.0</ele>
        <time>2021-05-23T09:44:52Z</time>
      </trkpt>
      <trkpt lat="42.7165500" lon="-8.6485240">
        <ele>31.0</ele>
        <time>2021-05-23T09:44:53Z</time>
      </trkpt>
      <trkpt lat="42.7165570" lon="-8.6485230">
        <ele>31.0</ele>
        <time>2021-05-23T09:44:54Z</time>
      </trkpt>
      <trkpt lat="42.7165720" lon="-8.6485300">
        <ele>31.0</ele>
        <time>2021-05-23T09:44:55Z</time>
      </trkpt>
      <trkpt lat="42.7165820" lon="-8.6485270">
        <ele>31.0</ele>
        <time>2021-05-23T09:44:56Z</time>
      </trkpt>
      <trkpt lat="42.7165950" lon="-8.6485330">
        <ele>31.0</ele>
        <time>2021-05-23T09:44:57Z</time>
      </trkpt>
      <trkpt lat="42.7166090" lon="-8.6485400">
        <ele>31.0</ele>
        <time>2021-05-23T09:44:58Z</time>
      </trkpt>
      <trkpt lat="42.7166280" lon="-8.6485450">
        <ele>31.0</ele>
        <time>2021-05-23T09:44:59Z</time>
      </trkpt>
      <trkpt lat="42.7166380" lon="-8.6485490">
        <ele>31.0</ele>
        <time>2021-05-23T09:45:00Z</time>
      </trkpt>
      <trkpt lat="42.7166470" lon="-8.6485540">
        <ele>31.0</ele>
        <time>2021-05-23T09:45:01Z</time>
      </trkpt>
      <trkpt lat="42.7166630" lon="-8.6485630">
        <ele>31.0</ele>
        <time>2021-05-23T09:45:02Z</time>
      </trkpt>
      <trkpt lat="42.7166750" lon="-8.6485690">
        <ele>31.0</ele>
        <time>2021-05-23T09:45:03Z</time>
      </trkpt>
      <trkpt lat="42.7166940" lon="-8.6485800">
        <ele>31.0</ele>
        <time>2021-05-23T09:45:04Z</time>
      </trkpt>
      <trkpt lat="42.7167030" lon="-8.6485850">
        <ele>31.0</ele>
        <time>2021-05-23T09:45:05Z</time>
      </trkpt>
      <trkpt lat="42.7167110" lon="-8.6485900">
        <ele>31.0</ele>
        <time>2021-05-23T09:45:06Z</time>
      </trkpt>
      <trkpt lat="42.7167180" lon="-8.6485910">
        <ele>31.0</ele>
        <time>2021-05-23T09:45:07Z</time>
      </trkpt>
      <trkpt lat="42.7167210" lon="-8.6485960">
        <ele>31.0</ele>
        <time>2021-05-23T09:45:08Z</time>
      </trkpt>
      <trkpt lat="42.7167270" lon="-8.6486000">
        <ele>31.0</ele>
        <time>2021-05-23T09:45:09Z</time>
      </trkpt>
      <trkpt lat="42.7167410" lon="-8.6486040">
        <ele>31.0</ele>
        <time>2021-05-23T09:45:10Z</time>
      </trkpt>
      <trkpt lat="42.7167590" lon="-8.6486140">
        <ele>31.0</ele>
        <time>2021-05-23T09:45:11Z</time>
      </trkpt>
      <trkpt lat="42.7167670" lon="-8.6486200">
        <ele>31.0</ele>
        <time>2021-05-23T09:45:12Z</time>
      </trkpt>
      <trkpt lat="42.7167760" lon="-8.6486260">
        <ele>31.0</ele>
        <time>2021-05-23T09:45:13Z</time>
      </trkpt>
      <trkpt lat="42.7167850" lon="-8.6486320">
        <ele>31.0</ele>
        <time>2021-05-23T09:45:14Z</time>
      </trkpt>
      <trkpt lat="42.7167980" lon="-8.6486360">
        <ele>31.0</ele>
        <time>2021-05-23T09:45:15Z</time>
      </trkpt>
      <trkpt lat="42.7168070" lon="-8.6486440">
        <ele>31.0</ele>
        <time>2021-05-23T09:45:16Z</time>
      </trkpt>
      <trkpt lat="42.7168180" lon="-8.6486500">
        <ele>31.0</ele>
        <time>2021-05-23T09:45:17Z</time>
      </trkpt>
      <trkpt lat="42.7168290" lon="-8.6486520">
        <ele>31.0</ele>
        <time>2021-05-23T09:45:18Z</time>
      </trkpt>
      <trkpt lat="42.7168380" lon="-8.6486480">
        <ele>31.0</ele>
        <time>2021-05-23T09:45:19Z</time>
      </trkpt>
      <trkpt lat="42.7168460" lon="-8.6486490">
        <ele>31.0</ele>
        <time>2021-05-23T09:45:20Z</time>
      </trkpt>
      <trkpt lat="42.7168540" lon="-8.6486500">
        <ele>31.0</ele>
        <time>2021-05-23T09:45:21Z</time>
      </trkpt>
      <trkpt lat="42.7168600" lon="-8.6486470">
        <ele>31.0</ele>
        <time>2021-05-23T09:45:22Z</time>
      </trkpt>
      <trkpt lat="42.7168730" lon="-8.6486480">
        <ele>31.0</ele>
        <time>2021-05-23T09:45:23Z</time>
      </trkpt>
      <trkpt lat="42.7168950" lon="-8.6486480">
        <ele>31.0</ele>
        <time>2021-05-23T09:45:24Z</time>
      </trkpt>
      <trkpt lat="42.7169050" lon="-8.6486480">
        <ele>31.0</ele>
        <time>2021-05-23T09:45:25Z</time>
      </trkpt>
      <trkpt lat="42.7169150" lon="-8.6486490">
        <ele>31.0</ele>
        <time>2021-05-23T09:45:26Z</time>
      </trkpt>
      <trkpt lat="42.7169270" lon="-8.6486500">
        <ele>31.0</ele>
        <time>2021-05-23T09:45:27Z</time>
      </trkpt>
      <trkpt lat="42.7169390" lon="-8.6486500">
        <ele>31.0</ele>
        <time>2021-05-23T09:45:28Z</time>
      </trkpt>
      <trkpt lat="42.7169490" lon="-8.6486570">
        <ele>31.0</ele>
        <time>2021-05-23T09:45:29Z</time>
      </trkpt>
      <trkpt lat="42.7169670" lon="-8.6486500">
        <ele>31.0</ele>
        <time>2021-05-23T09:45:30Z</time>
      </trkpt>
      <trkpt lat="42.7169770" lon="-8.6486490">
        <ele>31.0</ele>
        <time>2021-05-23T09:45:31Z</time>
      </trkpt>
      <trkpt lat="42.7169860" lon="-8.6486470">
        <ele>31.0</ele>
        <time>2021-05-23T09:45:32Z</time>
      </trkpt>
      <trkpt lat="42.7169990" lon="-8.6486450">
        <ele>31.0</ele>
        <time>2021-05-23T09:45:33Z</time>
      </trkpt>
      <trkpt lat="42.7170120" lon="-8.6486460">
        <ele>31.0</ele>
        <time>2021-05-23T09:45:34Z</time>
      </trkpt>
      <trkpt lat="42.7170200" lon="-8.6486400">
        <ele>30.9</ele>
        <time>2021-05-23T09:45:35Z</time>
      </trkpt>
      <trkpt lat="42.7170400" lon="-8.6486420">
        <ele>30.9</ele>
        <time>2021-05-23T09:45:36Z</time>
      </trkpt>
      <trkpt lat="42.7170510" lon="-8.6486400">
        <ele>30.9</ele>
        <time>2021-05-23T09:45:37Z</time>
      </trkpt>
      <trkpt lat="42.7170610" lon="-8.6486380">
        <ele>30.9</ele>
        <time>2021-05-23T09:45:38Z</time>
      </trkpt>
      <trkpt lat="42.7170780" lon="-8.6486380">
        <ele>30.9</ele>
        <time>2021-05-23T09:45:39Z</time>
      </trkpt>
      <trkpt lat="42.7170880" lon="-8.6486410">
        <ele>30.9</ele>
        <time>2021-05-23T09:45:40Z</time>
      </trkpt>
      <trkpt lat="42.7171030" lon="-8.6486430">
        <ele>30.9</ele>
        <time>2021-05-23T09:45:41Z</time>
      </trkpt>
      <trkpt lat="42.7171180" lon="-8.6486470">
        <ele>30.9</ele>
        <time>2021-05-23T09:45:42Z</time>
      </trkpt>
      <trkpt lat="42.7171340" lon="-8.6486440">
        <ele>30.9</ele>
        <time>2021-05-23T09:45:43Z</time>
      </trkpt>
      <trkpt lat="42.7171470" lon="-8.6486420">
        <ele>30.9</ele>
        <time>2021-05-23T09:45:44Z</time>
      </trkpt>
      <trkpt lat="42.7171590" lon="-8.6486420">
        <ele>30.9</ele>
        <time>2021-05-23T09:45:45Z</time>
      </trkpt>
      <trkpt lat="42.7171720" lon="-8.6486450">
        <ele>30.9</ele>
        <time>2021-05-23T09:45:46Z</time>
      </trkpt>
      <trkpt lat="42.7171800" lon="-8.6486430">
        <ele>30.9</ele>
        <time>2021-05-23T09:45:47Z</time>
      </trkpt>
      <trkpt lat="42.7171860" lon="-8.6486440">
        <ele>30.9</ele>
        <time>2021-05-23T09:45:48Z</time>
      </trkpt>
      <trkpt lat="42.7171990" lon="-8.6486390">
        <ele>30.9</ele>
        <time>2021-05-23T09:45:49Z</time>
      </trkpt>
      <trkpt lat="42.7172110" lon="-8.6486400">
        <ele>30.9</ele>
        <time>2021-05-23T09:45:50Z</time>
      </trkpt>
      <trkpt lat="42.7172220" lon="-8.6486370">
        <ele>30.9</ele>
        <time>2021-05-23T09:45:51Z</time>
      </trkpt>
      <trkpt lat="42.7172340" lon="-8.6486390">
        <ele>30.9</ele>
        <time>2021-05-23T09:45:52Z</time>
      </trkpt>
      <trkpt lat="42.7172430" lon="-8.6486400">
        <ele>30.9</ele>
        <time>2021-05-23T09:45:53Z</time>
      </trkpt>
      <trkpt lat="42.7172550" lon="-8.6486430">
        <ele>30.9</ele>
        <time>2021-05-23T09:45:54Z</time>
      </trkpt>
      <trkpt lat="42.7172710" lon="-8.6486440">
        <ele>30.8</ele>
        <time>2021-05-23T09:45:55Z</time>
      </trkpt>
      <trkpt lat="42.7172870" lon="-8.6486460">
        <ele>30.8</ele>
        <time>2021-05-23T09:45:56Z</time>
      </trkpt>
      <trkpt lat="42.7172990" lon="-8.6486410">
        <ele>30.8</ele>
        <time>2021-05-23T09:45:57Z</time>
      </trkpt>
      <trkpt lat="42.7173100" lon="-8.6486400">
        <ele>30.8</ele>
        <time>2021-05-23T09:45:58Z</time>
      </trkpt>
      <trkpt lat="42.7173240" lon="-8.6486380">
        <ele>30.8</ele>
        <time>2021-05-23T09:45:59Z</time>
      </trkpt>
      <trkpt lat="42.7173340" lon="-8.6486310">
        <ele>30.8</ele>
        <time>2021-05-23T09:46:00Z</time>
      </trkpt>
      <trkpt lat="42.7173490" lon="-8.6486200">
        <ele>30.8</ele>
        <time>2021-05-23T09:46:01Z</time>
      </trkpt>
      <trkpt lat="42.7173560" lon="-8.6486190">
        <ele>30.8</ele>
        <time>2021-05-23T09:46:02Z</time>
      </trkpt>
      <trkpt lat="42.7173650" lon="-8.6486160">
        <ele>30.8</ele>
        <time>2021-05-23T09:46:03Z</time>
      </trkpt>
      <trkpt lat="42.7173730" lon="-8.6486130">
        <ele>30.8</ele>
        <time>2021-05-23T09:46:04Z</time>
      </trkpt>
      <trkpt lat="42.7173820" lon="-8.6486110">
        <ele>30.8</ele>
        <time>2021-05-23T09:46:05Z</time>
      </trkpt>
      <trkpt lat="42.7173920" lon="-8.6486070">
        <ele>30.8</ele>
        <time>2021-05-23T09:46:06Z</time>
      </trkpt>
      <trkpt lat="42.7174160" lon="-8.6485950">
        <ele>30.8</ele>
        <time>2021-05-23T09:46:07Z</time>
      </trkpt>
      <trkpt lat="42.7174240" lon="-8.6485900">
        <ele>30.8</ele>
        <time>2021-05-23T09:46:08Z</time>
      </trkpt>
      <trkpt lat="42.7174330" lon="-8.6485850">
        <ele>30.8</ele>
        <time>2021-05-23T09:46:09Z</time>
      </trkpt>
      <trkpt lat="42.7174460" lon="-8.6485850">
        <ele>30.8</ele>
        <time>2021-05-23T09:46:10Z</time>
      </trkpt>
      <trkpt lat="42.7174630" lon="-8.6485870">
        <ele>30.8</ele>
        <time>2021-05-23T09:46:11Z</time>
      </trkpt>
      <trkpt lat="42.7174900" lon="-8.6485870">
        <ele>30.8</ele>
        <time>2021-05-23T09:46:12Z</time>
      </trkpt>
      <trkpt lat="42.7175020" lon="-8.6485900">
        <ele>30.7</ele>
        <time>2021-05-23T09:46:13Z</time>
      </trkpt>
      <trkpt lat="42.7175290" lon="-8.6485970">
        <ele>30.7</ele>
        <time>2021-05-23T09:46:14Z</time>
      </trkpt>
      <trkpt lat="42.7175390" lon="-8.6485980">
        <ele>30.7</ele>
        <time>2021-05-23T09:46:15Z</time>
      </trkpt>
      <trkpt lat="42.7175520" lon="-8.6486000">
        <ele>30.7</ele>
        <time>2021-05-23T09:46:16Z</time>
      </trkpt>
      <trkpt lat="42.7175680" lon="-8.6485980">
        <ele>30.7</ele>
        <time>2021-05-23T09:46:17Z</time>
      </trkpt>
      <trkpt lat="42.7175840" lon="-8.6485910">
        <ele>30.7</ele>
        <time>2021-05-23T09:46:18Z</time>
      </trkpt>
      <trkpt lat="42.7175990" lon="-8.6485820">
        <ele>30.7</ele>
        <time>2021-05-23T09:46:19Z</time>
      </trkpt>
      <trkpt lat="42.7176060" lon="-8.6485840">
        <ele>30.7</ele>
        <time>2021-05-23T09:46:20Z</time>
      </trkpt>
      <trkpt lat="42.7176200" lon="-8.6485770">
        <ele>30.7</ele>
        <time>2021-05-23T09:46:21Z</time>
      </trkpt>
      <trkpt lat="42.7176330" lon="-8.6485640">
        <ele>30.7</ele>
        <time>2021-05-23T09:46:22Z</time>
      </trkpt>
      <trkpt lat="42.7176380" lon="-8.6485570">
        <ele>30.7</ele>
        <time>2021-05-23T09:46:23Z</time>
      </trkpt>
      <trkpt lat="42.7176450" lon="-8.6485450">
        <ele>30.7</ele>
        <time>2021-05-23T09:46:24Z</time>
      </trkpt>
      <trkpt lat="42.7176490" lon="-8.6485410">
        <ele>30.7</ele>
        <time>2021-05-23T09:46:25Z</time>
      </trkpt>
      <trkpt lat="42.7176600" lon="-8.6485390">
        <ele>30.7</ele>
        <time>2021-05-23T09:46:26Z</time>
      </trkpt>
      <trkpt lat="42.7176720" lon="-8.6485350">
        <ele>30.7</ele>
        <time>2021-05-23T09:46:27Z</time>
      </trkpt>
      <trkpt lat="42.7176840" lon="-8.6485340">
        <ele>30.7</ele>
        <time>2021-05-23T09:46:28Z</time>
      </trkpt>
      <trkpt lat="42.7176930" lon="-8.6485340">
        <ele>30.7</ele>
        <time>2021-05-23T09:46:29Z</time>
      </trkpt>
      <trkpt lat="42.7177090" lon="-8.6485270">
        <ele>30.7</ele>
        <time>2021-05-23T09:46:30Z</time>
      </trkpt>
      <trkpt lat="42.7177110" lon="-8.6485270">
        <ele>30.7</ele>
        <time>2021-05-23T09:46:31Z</time>
      </trkpt>
      <trkpt lat="42.7177210" lon="-8.6485220">
        <ele>30.7</ele>
        <time>2021-05-23T09:46:32Z</time>
      </trkpt>
      <trkpt lat="42.7177300" lon="-8.6485220">
        <ele>30.7</ele>
        <time>2021-05-23T09:46:33Z</time>
      </trkpt>
      <trkpt lat="42.7177360" lon="-8.6485180">
        <ele>30.7</ele>
        <time>2021-05-23T09:46:34Z</time>
      </trkpt>
      <trkpt lat="42.7177410" lon="-8.6485170">
        <ele>30.7</ele>
        <time>2021-05-23T09:46:35Z</time>
      </trkpt>
      <trkpt lat="42.7177480" lon="-8.6485110">
        <ele>30.7</ele>
        <time>2021-05-23T09:46:36Z</time>
      </trkpt>
      <trkpt lat="42.7177550" lon="-8.6485150">
        <ele>30.7</ele>
        <time>2021-05-23T09:46:37Z</time>
      </trkpt>
      <trkpt lat="42.7177670" lon="-8.6485170">
        <ele>30.7</ele>
        <time>2021-05-23T09:46:38Z</time>
      </trkpt>
      <trkpt lat="42.7177790" lon="-8.6485270">
        <ele>30.7</ele>
        <time>2021-05-23T09:46:39Z</time>
      </trkpt>
      <trkpt lat="42.7177940" lon="-8.6485350">
        <ele>30.6</ele>
        <time>2021-05-23T09:46:40Z</time>
      </trkpt>
      <trkpt lat="42.7178050" lon="-8.6485410">
        <ele>30.6</ele>
        <time>2021-05-23T09:46:41Z</time>
      </trkpt>
      <trkpt lat="42.7178240" lon="-8.6485330">
        <ele>30.6</ele>
        <time>2021-05-23T09:46:42Z</time>
      </trkpt>
      <trkpt lat="42.7178330" lon="-8.6485460">
        <ele>30.6</ele>
        <time>2021-05-23T09:46:43Z</time>
      </trkpt>
      <trkpt lat="42.7178450" lon="-8.6485560">
        <ele>30.6</ele>
        <time>2021-05-23T09:46:44Z</time>
      </trkpt>
      <trkpt lat="42.7178530" lon="-8.6485590">
        <ele>30.6</ele>
        <time>2021-05-23T09:46:45Z</time>
      </trkpt>
      <trkpt lat="42.7178620" lon="-8.6485700">
        <ele>30.6</ele>
        <time>2021-05-23T09:46:46Z</time>
      </trkpt>
      <trkpt lat="42.7178660" lon="-8.6485840">
        <ele>30.6</ele>
        <time>2021-05-23T09:46:47Z</time>
      </trkpt>
      <trkpt lat="42.7178740" lon="-8.6485750">
        <ele>30.6</ele>
        <time>2021-05-23T09:46:48Z</time>
      </trkpt>
      <trkpt lat="42.7178850" lon="-8.6485780">
        <ele>30.6</ele>
        <time>2021-05-23T09:46:49Z</time>
      </trkpt>
      <trkpt lat="42.7178940" lon="-8.6485820">
        <ele>30.6</ele>
        <time>2021-05-23T09:46:50Z</time>
      </trkpt>
      <trkpt lat="42.7179100" lon="-8.6485900">
        <ele>30.6</ele>
        <time>2021-05-23T09:46:51Z</time>
      </trkpt>
      <trkpt lat="42.7179160" lon="-8.6485950">
        <ele>30.6</ele>
        <time>2021-05-23T09:46:52Z</time>
      </trkpt>
      <trkpt lat="42.7179180" lon="-8.6485930">
        <ele>30.6</ele>
        <time>2021-05-23T09:46:53Z</time>
      </trkpt>
      <trkpt lat="42.7179280" lon="-8.6485970">
        <ele>30.6</ele>
        <time>2021-05-23T09:46:54Z</time>
      </trkpt>
      <trkpt lat="42.7179430" lon="-8.6486040">
        <ele>30.6</ele>
        <time>2021-05-23T09:46:55Z</time>
      </trkpt>
      <trkpt lat="42.7179570" lon="-8.6486140">
        <ele>30.6</ele>
        <time>2021-05-23T09:46:56Z</time>
      </trkpt>
      <trkpt lat="42.7179660" lon="-8.6486150">
        <ele>30.6</ele>
        <time>2021-05-23T09:46:57Z</time>
      </trkpt>
      <trkpt lat="42.7179760" lon="-8.6486250">
        <ele>30.6</ele>
        <time>2021-05-23T09:46:58Z</time>
      </trkpt>
      <trkpt lat="42.7179830" lon="-8.6486320">
        <ele>30.6</ele>
        <time>2021-05-23T09:46:59Z</time>
      </trkpt>
      <trkpt lat="42.7179930" lon="-8.6486320">
        <ele>30.6</ele>
        <time>2021-05-23T09:47:00Z</time>
      </trkpt>
      <trkpt lat="42.7180000" lon="-8.6486350">
        <ele>30.6</ele>
        <time>2021-05-23T09:47:01Z</time>
      </trkpt>
      <trkpt lat="42.7180190" lon="-8.6486390">
        <ele>30.7</ele>
        <time>2021-05-23T09:47:02Z</time>
      </trkpt>
      <trkpt lat="42.7180270" lon="-8.6486580">
        <ele>30.7</ele>
        <time>2021-05-23T09:47:03Z</time>
      </trkpt>
      <trkpt lat="42.7180410" lon="-8.6486620">
        <ele>30.7</ele>
        <time>2021-05-23T09:47:04Z</time>
      </trkpt>
      <trkpt lat="42.7180560" lon="-8.6486810">
        <ele>30.7</ele>
        <time>2021-05-23T09:47:05Z</time>
      </trkpt>
      <trkpt lat="42.7180650" lon="-8.6486850">
        <ele>30.7</ele>
        <time>2021-05-23T09:47:06Z</time>
      </trkpt>
      <trkpt lat="42.7180730" lon="-8.6486900">
        <ele>30.7</ele>
        <time>2021-05-23T09:47:07Z</time>
      </trkpt>
      <trkpt lat="42.7180930" lon="-8.6487030">
        <ele>30.7</ele>
        <time>2021-05-23T09:47:08Z</time>
      </trkpt>
      <trkpt lat="42.7181020" lon="-8.6487090">
        <ele>30.7</ele>
        <time>2021-05-23T09:47:09Z</time>
      </trkpt>
      <trkpt lat="42.7181100" lon="-8.6487150">
        <ele>30.8</ele>
        <time>2021-05-23T09:47:10Z</time>
      </trkpt>
      <trkpt lat="42.7181280" lon="-8.6487300">
        <ele>30.8</ele>
        <time>2021-05-23T09:47:11Z</time>
      </trkpt>
      <trkpt lat="42.7181350" lon="-8.6487370">
        <ele>30.8</ele>
        <time>2021-05-23T09:47:12Z</time>
      </trkpt>
      <trkpt lat="42.7181430" lon="-8.6487440">
        <ele>30.8</ele>
        <time>2021-05-23T09:47:13Z</time>
      </trkpt>
      <trkpt lat="42.7181530" lon="-8.6487450">
        <ele>30.8</ele>
        <time>2021-05-23T09:47:14Z</time>
      </trkpt>
      <trkpt lat="42.7181640" lon="-8.6487470">
        <ele>30.8</ele>
        <time>2021-05-23T09:47:15Z</time>
      </trkpt>
      <trkpt lat="42.7181750" lon="-8.6487520">
        <ele>30.9</ele>
        <time>2021-05-23T09:47:16Z</time>
      </trkpt>
      <trkpt lat="42.7181830" lon="-8.6487580">
        <ele>30.9</ele>
        <time>2021-05-23T09:47:17Z</time>
      </trkpt>
      <trkpt lat="42.7181900" lon="-8.6487700">
        <ele>30.9</ele>
        <time>2021-05-23T09:47:18Z</time>
      </trkpt>
      <trkpt lat="42.7182020" lon="-8.6487720">
        <ele>30.9</ele>
        <time>2021-05-23T09:47:19Z</time>
      </trkpt>
      <trkpt lat="42.7182200" lon="-8.6487810">
        <ele>30.9</ele>
        <time>2021-05-23T09:47:20Z</time>
      </trkpt>
      <trkpt lat="42.7182300" lon="-8.6487830">
        <ele>31.0</ele>
        <time>2021-05-23T09:47:21Z</time>
      </trkpt>
      <trkpt lat="42.7182390" lon="-8.6487850">
        <ele>31.0</ele>
        <time>2021-05-23T09:47:22Z</time>
      </trkpt>
      <trkpt lat="42.7182460" lon="-8.6487880">
        <ele>31.0</ele>
        <time>2021-05-23T09:47:23Z</time>
      </trkpt>
      <trkpt lat="42.7182600" lon="-8.6487930">
        <ele>31.0</ele>
        <time>2021-05-23T09:47:24Z</time>
      </trkpt>
      <trkpt lat="42.7182710" lon="-8.6488010">
        <ele>31.0</ele>
        <time>2021-05-23T09:47:25Z</time>
      </trkpt>
      <trkpt lat="42.7182850" lon="-8.6488210">
        <ele>31.1</ele>
        <time>2021-05-23T09:47:26Z</time>
      </trkpt>
      <trkpt lat="42.7182920" lon="-8.6488280">
        <ele>31.1</ele>
        <time>2021-05-23T09:47:27Z</time>
      </trkpt>
      <trkpt lat="42.7182990" lon="-8.6488340">
        <ele>31.1</ele>
        <time>2021-05-23T09:47:28Z</time>
      </trkpt>
      <trkpt lat="42.7183090" lon="-8.6488420">
        <ele>31.0</ele>
        <time>2021-05-23T09:47:29Z</time>
      </trkpt>
      <trkpt lat="42.7183150" lon="-8.6488460">
        <ele>31.0</ele>
        <time>2021-05-23T09:47:30Z</time>
      </trkpt>
      <trkpt lat="42.7183230" lon="-8.6488570">
        <ele>31.0</ele>
        <time>2021-05-23T09:47:31Z</time>
      </trkpt>
      <trkpt lat="42.7183440" lon="-8.6488670">
        <ele>30.9</ele>
        <time>2021-05-23T09:47:32Z</time>
      </trkpt>
      <trkpt lat="42.7183540" lon="-8.6488720">
        <ele>30.8</ele>
        <time>2021-05-23T09:47:33Z</time>
      </trkpt>
      <trkpt lat="42.7183640" lon="-8.6488690">
        <ele>30.8</ele>
        <time>2021-05-23T09:47:34Z</time>
      </trkpt>
      <trkpt lat="42.7183680" lon="-8.6488750">
        <ele>30.8</ele>
        <time>2021-05-23T09:47:35Z</time>
      </trkpt>
      <trkpt lat="42.7183720" lon="-8.6488780">
        <ele>30.8</ele>
        <time>2021-05-23T09:47:36Z</time>
      </trkpt>
      <trkpt lat="42.7183740" lon="-8.6488940">
        <ele>30.7</ele>
        <time>2021-05-23T09:47:37Z</time>
      </trkpt>
      <trkpt lat="42.7183800" lon="-8.6489040">
        <ele>30.7</ele>
        <time>2021-05-23T09:47:38Z</time>
      </trkpt>
      <trkpt lat="42.7183920" lon="-8.6489130">
        <ele>30.6</ele>
        <time>2021-05-23T09:47:39Z</time>
      </trkpt>
      <trkpt lat="42.7183950" lon="-8.6489240">
        <ele>30.6</ele>
        <time>2021-05-23T09:47:40Z</time>
      </trkpt>
      <trkpt lat="42.7184030" lon="-8.6489360">
        <ele>30.5</ele>
        <time>2021-05-23T09:47:41Z</time>
      </trkpt>
      <trkpt lat="42.7184060" lon="-8.6489450">
        <ele>30.5</ele>
        <time>2021-05-23T09:47:42Z</time>
      </trkpt>
      <trkpt lat="42.7184100" lon="-8.6489600">
        <ele>30.4</ele>
        <time>2021-05-23T09:47:43Z</time>
      </trkpt>
      <trkpt lat="42.7184190" lon="-8.6489700">
        <ele>30.3</ele>
        <time>2021-05-23T09:47:44Z</time>
      </trkpt>
      <trkpt lat="42.7184240" lon="-8.6489810">
        <ele>30.3</ele>
        <time>2021-05-23T09:47:45Z</time>
      </trkpt>
      <trkpt lat="42.7184270" lon="-8.6489880">
        <ele>30.2</ele>
        <time>2021-05-23T09:47:46Z</time>
      </trkpt>
      <trkpt lat="42.7184320" lon="-8.6489950">
        <ele>30.2</ele>
        <time>2021-05-23T09:47:47Z</time>
      </trkpt>
      <trkpt lat="42.7184380" lon="-8.6490080">
        <ele>30.1</ele>
        <time>2021-05-23T09:47:48Z</time>
      </trkpt>
      <trkpt lat="42.7184450" lon="-8.6490120">
        <ele>30.1</ele>
        <time>2021-05-23T09:47:49Z</time>
      </trkpt>
      <trkpt lat="42.7184500" lon="-8.6490230">
        <ele>30.0</ele>
        <time>2021-05-23T09:47:50Z</time>
      </trkpt>
      <trkpt lat="42.7184590" lon="-8.6490370">
        <ele>29.9</ele>
        <time>2021-05-23T09:47:51Z</time>
      </trkpt>
      <trkpt lat="42.7184590" lon="-8.6490410">
        <ele>29.9</ele>
        <time>2021-05-23T09:47:52Z</time>
      </trkpt>
      <trkpt lat="42.7184640" lon="-8.6490450">
        <ele>29.9</ele>
        <time>2021-05-23T09:47:53Z</time>
      </trkpt>
      <trkpt lat="42.7184660" lon="-8.6490540">
        <ele>29.8</ele>
        <time>2021-05-23T09:47:54Z</time>
      </trkpt>
      <trkpt lat="42.7184740" lon="-8.6490700">
        <ele>29.7</ele>
        <time>2021-05-23T09:47:55Z</time>
      </trkpt>
      <trkpt lat="42.7184840" lon="-8.6490790">
        <ele>29.6</ele>
        <time>2021-05-23T09:47:56Z</time>
      </trkpt>
      <trkpt lat="42.7184980" lon="-8.6490920">
        <ele>29.5</ele>
        <time>2021-05-23T09:47:57Z</time>
      </trkpt>
      <trkpt lat="42.7185070" lon="-8.6491000">
        <ele>29.4</ele>
        <time>2021-05-23T09:47:58Z</time>
      </trkpt>
      <trkpt lat="42.7185130" lon="-8.6491060">
        <ele>29.3</ele>
        <time>2021-05-23T09:47:59Z</time>
      </trkpt>
      <trkpt lat="42.7185170" lon="-8.6491150">
        <ele>29.2</ele>
        <time>2021-05-23T09:48:00Z</time>
      </trkpt>
      <trkpt lat="42.7185240" lon="-8.6491250">
        <ele>29.2</ele>
        <time>2021-05-23T09:48:01Z</time>
      </trkpt>
      <trkpt lat="42.7185320" lon="-8.6491360">
        <ele>29.1</ele>
        <time>2021-05-23T09:48:02Z</time>
      </trkpt>
      <trkpt lat="42.7185430" lon="-8.6491480">
        <ele>28.9</ele>
        <time>2021-05-23T09:48:03Z</time>
      </trkpt>
      <trkpt lat="42.7185490" lon="-8.6491510">
        <ele>28.9</ele>
        <time>2021-05-23T09:48:04Z</time>
      </trkpt>
      <trkpt lat="42.7185520" lon="-8.6491590">
        <ele>28.8</ele>
        <time>2021-05-23T09:48:05Z</time>
      </trkpt>
      <trkpt lat="42.7185580" lon="-8.6491670">
        <ele>28.7</ele>
        <time>2021-05-23T09:48:06Z</time>
      </trkpt>
      <trkpt lat="42.7185610" lon="-8.6491650">
        <ele>28.7</ele>
        <time>2021-05-23T09:48:07Z</time>
      </trkpt>
      <trkpt lat="42.7185710" lon="-8.6491720">
        <ele>28.6</ele>
        <time>2021-05-23T09:48:08Z</time>
      </trkpt>
      <trkpt lat="42.7185780" lon="-8.6491670">
        <ele>28.5</ele>
        <time>2021-05-23T09:48:09Z</time>
      </trkpt>
      <trkpt lat="42.7185820" lon="-8.6491770">
        <ele>28.4</ele>
        <time>2021-05-23T09:48:10Z</time>
      </trkpt>
      <trkpt lat="42.7185900" lon="-8.6491730">
        <ele>28.3</ele>
        <time>2021-05-23T09:48:11Z</time>
      </trkpt>
      <trkpt lat="42.7185940" lon="-8.6491860">
        <ele>28.2</ele>
        <time>2021-05-23T09:48:12Z</time>
      </trkpt>
      <trkpt lat="42.7186000" lon="-8.6491790">
        <ele>28.1</ele>
        <time>2021-05-23T09:48:13Z</time>
      </trkpt>
      <trkpt lat="42.7186100" lon="-8.6491760">
        <ele>28.0</ele>
        <time>2021-05-23T09:48:14Z</time>
      </trkpt>
      <trkpt lat="42.7186240" lon="-8.6491760">
        <ele>27.8</ele>
        <time>2021-05-23T09:48:15Z</time>
      </trkpt>
      <trkpt lat="42.7186360" lon="-8.6491780">
        <ele>27.7</ele>
        <time>2021-05-23T09:48:16Z</time>
      </trkpt>
      <trkpt lat="42.7186500" lon="-8.6491760">
        <ele>27.5</ele>
        <time>2021-05-23T09:48:17Z</time>
      </trkpt>
      <trkpt lat="42.7186700" lon="-8.6491680">
        <ele>27.3</ele>
        <time>2021-05-23T09:48:18Z</time>
      </trkpt>
      <trkpt lat="42.7186950" lon="-8.6491710">
        <ele>27.0</ele>
        <time>2021-05-23T09:48:19Z</time>
      </trkpt>
      <trkpt lat="42.7187050" lon="-8.6491720">
        <ele>26.9</ele>
        <time>2021-05-23T09:48:20Z</time>
      </trkpt>
      <trkpt lat="42.7187010" lon="-8.6491620">
        <ele>26.8</ele>
        <time>2021-05-23T09:48:21Z</time>
      </trkpt>
      <trkpt lat="42.7187060" lon="-8.6491630">
        <ele>26.7</ele>
        <time>2021-05-23T09:48:22Z</time>
      </trkpt>
      <trkpt lat="42.7187190" lon="-8.6491610">
        <ele>26.6</ele>
        <time>2021-05-23T09:48:23Z</time>
      </trkpt>
      <trkpt lat="42.7187220" lon="-8.6491620">
        <ele>26.6</ele>
        <time>2021-05-23T09:48:24Z</time>
      </trkpt>
      <trkpt lat="42.7187330" lon="-8.6491620">
        <ele>26.4</ele>
        <time>2021-05-23T09:48:25Z</time>
      </trkpt>
      <trkpt lat="42.7187600" lon="-8.6491620">
        <ele>26.2</ele>
        <time>2021-05-23T09:48:26Z</time>
      </trkpt>
      <trkpt lat="42.7187700" lon="-8.6491640">
        <ele>26.1</ele>
        <time>2021-05-23T09:48:27Z</time>
      </trkpt>
      <trkpt lat="42.7187970" lon="-8.6491700">
        <ele>25.8</ele>
        <time>2021-05-23T09:48:28Z</time>
      </trkpt>
      <trkpt lat="42.7188160" lon="-8.6491710">
        <ele>25.6</ele>
        <time>2021-05-23T09:48:29Z</time>
      </trkpt>
      <trkpt lat="42.7188250" lon="-8.6491790">
        <ele>25.5</ele>
        <time>2021-05-23T09:48:30Z</time>
      </trkpt>
      <trkpt lat="42.7188360" lon="-8.6491930">
        <ele>25.3</ele>
        <time>2021-05-23T09:48:31Z</time>
      </trkpt>
      <trkpt lat="42.7188450" lon="-8.6492000">
        <ele>25.2</ele>
        <time>2021-05-23T09:48:32Z</time>
      </trkpt>
      <trkpt lat="42.7188510" lon="-8.6492110">
        <ele>25.1</ele>
        <time>2021-05-23T09:48:33Z</time>
      </trkpt>
      <trkpt lat="42.7188620" lon="-8.6492150">
        <ele>25.1</ele>
        <time>2021-05-23T09:48:34Z</time>
      </trkpt>
      <trkpt lat="42.7188570" lon="-8.6492150">
        <ele>25.1</ele>
        <time>2021-05-23T09:48:35Z</time>
      </trkpt>
      <trkpt lat="42.7188580" lon="-8.6492210">
        <ele>25.1</ele>
        <time>2021-05-23T09:48:36Z</time>
      </trkpt>
      <trkpt lat="42.7188550" lon="-8.6492240">
        <ele>25.1</ele>
        <time>2021-05-23T09:48:37Z</time>
      </trkpt>
      <trkpt lat="42.7188460" lon="-8.6492270">
        <ele>25.1</ele>
        <time>2021-05-23T09:48:38Z</time>
      </trkpt>
      <trkpt lat="42.7188460" lon="-8.6492410">
        <ele>25.1</ele>
        <time>2021-05-23T09:48:39Z</time>
      </trkpt>
      <trkpt lat="42.7188410" lon="-8.6492340">
        <ele>25.1</ele>
        <time>2021-05-23T09:48:40Z</time>
      </trkpt>
      <trkpt lat="42.7188470" lon="-8.6492240">
        <ele>25.1</ele>
        <time>2021-05-23T09:48:41Z</time>
      </trkpt>
      <trkpt lat="42.7188520" lon="-8.6492320">
        <ele>25.1</ele>
        <time>2021-05-23T09:48:42Z</time>
      </trkpt>
      <trkpt lat="42.7188710" lon="-8.6492390">
        <ele>25.1</ele>
        <time>2021-05-23T09:48:43Z</time>
      </trkpt>
      <trkpt lat="42.7188870" lon="-8.6492280">
        <ele>25.1</ele>
        <time>2021-05-23T09:48:44Z</time>
      </trkpt>
      <trkpt lat="42.7188970" lon="-8.6492270">
        <ele>25.1</ele>
        <time>2021-05-23T09:48:45Z</time>
      </trkpt>
      <trkpt lat="42.7189070" lon="-8.6492260">
        <ele>25.1</ele>
        <time>2021-05-23T09:48:46Z</time>
      </trkpt>
      <trkpt lat="42.7189190" lon="-8.6492170">
        <ele>25.1</ele>
        <time>2021-05-23T09:48:47Z</time>
      </trkpt>
      <trkpt lat="42.7189310" lon="-8.6492150">
        <ele>25.1</ele>
        <time>2021-05-23T09:48:48Z</time>
      </trkpt>
      <trkpt lat="42.7189370" lon="-8.6492140">
        <ele>25.1</ele>
        <time>2021-05-23T09:48:49Z</time>
      </trkpt>
      <trkpt lat="42.7189540" lon="-8.6492060">
        <ele>25.1</ele>
        <time>2021-05-23T09:48:50Z</time>
      </trkpt>
      <trkpt lat="42.7189680" lon="-8.6492020">
        <ele>25.2</ele>
        <time>2021-05-23T09:48:51Z</time>
      </trkpt>
      <trkpt lat="42.7189850" lon="-8.6491990">
        <ele>25.2</ele>
        <time>2021-05-23T09:48:52Z</time>
      </trkpt>
      <trkpt lat="42.7189940" lon="-8.6491930">
        <ele>25.2</ele>
        <time>2021-05-23T09:48:53Z</time>
      </trkpt>
      <trkpt lat="42.7190030" lon="-8.6491870">
        <ele>25.2</ele>
        <time>2021-05-23T09:48:54Z</time>
      </trkpt>
      <trkpt lat="42.7190190" lon="-8.6491840">
        <ele>25.2</ele>
        <time>2021-05-23T09:48:55Z</time>
      </trkpt>
      <trkpt lat="42.7190310" lon="-8.6491820">
        <ele>25.2</ele>
        <time>2021-05-23T09:48:56Z</time>
      </trkpt>
      <trkpt lat="42.7190490" lon="-8.6491770">
        <ele>25.2</ele>
        <time>2021-05-23T09:48:57Z</time>
      </trkpt>
      <trkpt lat="42.7190590" lon="-8.6491750">
        <ele>25.3</ele>
        <time>2021-05-23T09:48:58Z</time>
      </trkpt>
      <trkpt lat="42.7190800" lon="-8.6491600">
        <ele>25.3</ele>
        <time>2021-05-23T09:48:59Z</time>
      </trkpt>
      <trkpt lat="42.7190860" lon="-8.6491550">
        <ele>25.3</ele>
        <time>2021-05-23T09:49:00Z</time>
      </trkpt>
      <trkpt lat="42.7190920" lon="-8.6491490">
        <ele>25.3</ele>
        <time>2021-05-23T09:49:01Z</time>
      </trkpt>
      <trkpt lat="42.7191090" lon="-8.6491320">
        <ele>25.3</ele>
        <time>2021-05-23T09:49:02Z</time>
      </trkpt>
      <trkpt lat="42.7191170" lon="-8.6491280">
        <ele>25.3</ele>
        <time>2021-05-23T09:49:03Z</time>
      </trkpt>
      <trkpt lat="42.7191250" lon="-8.6491240">
        <ele>25.3</ele>
        <time>2021-05-23T09:49:04Z</time>
      </trkpt>
      <trkpt lat="42.7191420" lon="-8.6491220">
        <ele>25.4</ele>
        <time>2021-05-23T09:49:05Z</time>
      </trkpt>
      <trkpt lat="42.7191540" lon="-8.6491270">
        <ele>25.4</ele>
        <time>2021-05-23T09:49:06Z</time>
      </trkpt>
      <trkpt lat="42.7191640" lon="-8.6491240">
        <ele>25.4</ele>
        <time>2021-05-23T09:49:07Z</time>
      </trkpt>
      <trkpt lat="42.7191770" lon="-8.6491160">
        <ele>25.4</ele>
        <time>2021-05-23T09:49:08Z</time>
      </trkpt>
      <trkpt lat="42.7191880" lon="-8.6491230">
        <ele>25.4</ele>
        <time>2021-05-23T09:49:09Z</time>
      </trkpt>
      <trkpt lat="42.7192070" lon="-8.6491200">
        <ele>25.4</ele>
        <time>2021-05-23T09:49:10Z</time>
      </trkpt>
      <trkpt lat="42.7192120" lon="-8.6491250">
        <ele>25.4</ele>
        <time>2021-05-23T09:49:11Z</time>
      </trkpt>
      <trkpt lat="42.7192240" lon="-8.6491280">
        <ele>25.4</ele>
        <time>2021-05-23T09:49:12Z</time>
      </trkpt>
      <trkpt lat="42.7192430" lon="-8.6491240">
        <ele>25.5</ele>
        <time>2021-05-23T09:49:13Z</time>
      </trkpt>
      <trkpt lat="42.7192530" lon="-8.6491230">
        <ele>25.5</ele>
        <time>2021-05-23T09:49:14Z</time>
      </trkpt>
      <trkpt lat="42.7192620" lon="-8.6491180">
        <ele>25.5</ele>
        <time>2021-05-23T09:49:15Z</time>
      </trkpt>
      <trkpt lat="42.7192750" lon="-8.6491160">
        <ele>25.5</ele>
        <time>2021-05-23T09:49:16Z</time>
      </trkpt>
      <trkpt lat="42.7192840" lon="-8.6491250">
        <ele>25.6</ele>
        <time>2021-05-23T09:49:17Z</time>
      </trkpt>
      <trkpt lat="42.7192920" lon="-8.6491170">
        <ele>25.6</ele>
        <time>2021-05-23T09:49:18Z</time>
      </trkpt>
      <trkpt lat="42.7193000" lon="-8.6491110">
        <ele>25.6</ele>
        <time>2021-05-23T09:49:19Z</time>
      </trkpt>
      <trkpt lat="42.7193060" lon="-8.6491030">
        <ele>25.6</ele>
        <time>2021-05-23T09:49:20Z</time>
      </trkpt>
      <trkpt lat="42.7193110" lon="-8.6490990">
        <ele>25.6</ele>
        <time>2021-05-23T09:49:21Z</time>
      </trkpt>
      <trkpt lat="42.7193210" lon="-8.6490980">
        <ele>25.6</ele>
        <time>2021-05-23T09:49:22Z</time>
      </trkpt>
      <trkpt lat="42.7193410" lon="-8.6490920">
        <ele>25.7</ele>
        <time>2021-05-23T09:49:23Z</time>
      </trkpt>
      <trkpt lat="42.7193550" lon="-8.6490850">
        <ele>25.7</ele>
        <time>2021-05-23T09:49:24Z</time>
      </trkpt>
      <trkpt lat="42.7193660" lon="-8.6490810">
        <ele>25.8</ele>
        <time>2021-05-23T09:49:25Z</time>
      </trkpt>
      <trkpt lat="42.7193760" lon="-8.6490770">
        <ele>25.8</ele>
        <time>2021-05-23T09:49:26Z</time>
      </trkpt>
      <trkpt lat="42.7193960" lon="-8.6490670">
        <ele>25.8</ele>
        <time>2021-05-23T09:49:27Z</time>
      </trkpt>
      <trkpt lat="42.7194020" lon="-8.6490640">
        <ele>25.9</ele>
        <time>2021-05-23T09:49:28Z</time>
      </trkpt>
      <trkpt lat="42.7194070" lon="-8.6490600">
        <ele>25.9</ele>
        <time>2021-05-23T09:49:29Z</time>
      </trkpt>
      <trkpt lat="42.7194130" lon="-8.6490560">
        <ele>25.9</ele>
        <time>2021-05-23T09:49:30Z</time>
      </trkpt>
      <trkpt lat="42.7194290" lon="-8.6490460">
        <ele>25.9</ele>
        <time>2021-05-23T09:49:31Z</time>
      </trkpt>
      <trkpt lat="42.7194380" lon="-8.6490410">
        <ele>26.0</ele>
        <time>2021-05-23T09:49:32Z</time>
      </trkpt>
      <trkpt lat="42.7194470" lon="-8.6490350">
        <ele>26.0</ele>
        <time>2021-05-23T09:49:33Z</time>
      </trkpt>
      <trkpt lat="42.7194590" lon="-8.6490300">
        <ele>26.0</ele>
        <time>2021-05-23T09:49:34Z</time>
      </trkpt>
      <trkpt lat="42.7194750" lon="-8.6490270">
        <ele>26.1</ele>
        <time>2021-05-23T09:49:35Z</time>
      </trkpt>
      <trkpt lat="42.7194940" lon="-8.6490230">
        <ele>26.1</ele>
        <time>2021-05-23T09:49:36Z</time>
      </trkpt>
      <trkpt lat="42.7195030" lon="-8.6490180">
        <ele>26.1</ele>
        <time>2021-05-23T09:49:37Z</time>
      </trkpt>
      <trkpt lat="42.7195110" lon="-8.6490140">
        <ele>26.2</ele>
        <time>2021-05-23T09:49:38Z</time>
      </trkpt>
      <trkpt lat="42.7195200" lon="-8.6490030">
        <ele>26.2</ele>
        <time>2021-05-23T09:49:39Z</time>
      </trkpt>
      <trkpt lat="42.7195280" lon="-8.6489980">
        <ele>26.2</ele>
        <time>2021-05-23T09:49:40Z</time>
      </trkpt>
      <trkpt lat="42.7195350" lon="-8.6489930">
        <ele>26.2</ele>
        <time>2021-05-23T09:49:41Z</time>
      </trkpt>
      <trkpt lat="42.7195420" lon="-8.6489880">
        <ele>26.2</ele>
        <time>2021-05-23T09:49:42Z</time>
      </trkpt>
      <trkpt lat="42.7195580" lon="-8.6489850">
        <ele>26.3</ele>
        <time>2021-05-23T09:49:43Z</time>
      </trkpt>
      <trkpt lat="42.7195700" lon="-8.6489820">
        <ele>26.3</ele>
        <time>2021-05-23T09:49:44Z</time>
      </trkpt>
      <trkpt lat="42.7195810" lon="-8.6489790">
        <ele>26.3</ele>
        <time>2021-05-23T09:49:45Z</time>
      </trkpt>
      <trkpt lat="42.7196050" lon="-8.6489750">
        <ele>26.3</ele>
        <time>2021-05-23T09:49:46Z</time>
      </trkpt>
      <trkpt lat="42.7196130" lon="-8.6489770">
        <ele>26.4</ele>
        <time>2021-05-23T09:49:47Z</time>
      </trkpt>
      <trkpt lat="42.7196220" lon="-8.6489790">
        <ele>26.4</ele>
        <time>2021-05-23T09:49:48Z</time>
      </trkpt>
      <trkpt lat="42.7196220" lon="-8.6489930">
        <ele>26.4</ele>
        <time>2021-05-23T09:49:49Z</time>
      </trkpt>
      <trkpt lat="42.7196270" lon="-8.6489920">
        <ele>26.4</ele>
        <time>2021-05-23T09:49:50Z</time>
      </trkpt>
      <trkpt lat="42.7196330" lon="-8.6490000">
        <ele>26.4</ele>
        <time>2021-05-23T09:49:51Z</time>
      </trkpt>
      <trkpt lat="42.7196470" lon="-8.6490110">
        <ele>26.4</ele>
        <time>2021-05-23T09:49:52Z</time>
      </trkpt>
      <trkpt lat="42.7196590" lon="-8.6490250">
        <ele>26.4</ele>
        <time>2021-05-23T09:49:53Z</time>
      </trkpt>
      <trkpt lat="42.7196630" lon="-8.6490230">
        <ele>26.4</ele>
        <time>2021-05-23T09:49:54Z</time>
      </trkpt>
      <trkpt lat="42.7196680" lon="-8.6490370">
        <ele>26.4</ele>
        <time>2021-05-23T09:49:55Z</time>
      </trkpt>
      <trkpt lat="42.7196830" lon="-8.6490480">
        <ele>26.3</ele>
        <time>2021-05-23T09:49:56Z</time>
      </trkpt>
      <trkpt lat="42.7196950" lon="-8.6490590">
        <ele>26.3</ele>
        <time>2021-05-23T09:49:57Z</time>
      </trkpt>
      <trkpt lat="42.7197040" lon="-8.6490690">
        <ele>26.3</ele>
        <time>2021-05-23T09:49:58Z</time>
      </trkpt>
      <trkpt lat="42.7197130" lon="-8.6490910">
        <ele>26.4</ele>
        <time>2021-05-23T09:49:59Z</time>
      </trkpt>
      <trkpt lat="42.7197200" lon="-8.6491060">
        <ele>26.4</ele>
        <time>2021-05-23T09:50:00Z</time>
      </trkpt>
      <trkpt lat="42.7197230" lon="-8.6491190">
        <ele>26.4</ele>
        <time>2021-05-23T09:50:01Z</time>
      </trkpt>
      <trkpt lat="42.7197310" lon="-8.6491300">
        <ele>26.4</ele>
        <time>2021-05-23T09:50:02Z</time>
      </trkpt>
      <trkpt lat="42.7197350" lon="-8.6491510">
        <ele>26.4</ele>
        <time>2021-05-23T09:50:03Z</time>
      </trkpt>
      <trkpt lat="42.7197390" lon="-8.6491670">
        <ele>26.4</ele>
        <time>2021-05-23T09:50:04Z</time>
      </trkpt>
      <trkpt lat="42.7197370" lon="-8.6491810">
        <ele>26.4</ele>
        <time>2021-05-23T09:50:05Z</time>
      </trkpt>
      <trkpt lat="42.7197390" lon="-8.6491940">
        <ele>26.5</ele>
        <time>2021-05-23T09:50:06Z</time>
      </trkpt>
      <trkpt lat="42.7197430" lon="-8.6492080">
        <ele>26.5</ele>
        <time>2021-05-23T09:50:07Z</time>
      </trkpt>
      <trkpt lat="42.7197380" lon="-8.6492070">
        <ele>26.5</ele>
        <time>2021-05-23T09:50:08Z</time>
      </trkpt>
      <trkpt lat="42.7197380" lon="-8.6492080">
        <ele>26.5</ele>
        <time>2021-05-23T09:50:09Z</time>
      </trkpt>
      <trkpt lat="42.7197400" lon="-8.6492050">
        <ele>26.5</ele>
        <time>2021-05-23T09:50:10Z</time>
      </trkpt>
      <trkpt lat="42.7197370" lon="-8.6492060">
        <ele>26.5</ele>
        <time>2021-05-23T09:50:11Z</time>
      </trkpt>
      <trkpt lat="42.7197380" lon="-8.6492020">
        <ele>26.5</ele>
        <time>2021-05-23T09:50:12Z</time>
      </trkpt>
      <trkpt lat="42.7197380" lon="-8.6492020">
        <ele>26.5</ele>
        <time>2021-05-23T09:50:13Z</time>
      </trkpt>
      <trkpt lat="42.7197280" lon="-8.6492040">
        <ele>26.5</ele>
        <time>2021-05-23T09:50:14Z</time>
      </trkpt>
      <trkpt lat="42.7197230" lon="-8.6492020">
        <ele>26.5</ele>
        <time>2021-05-23T09:50:15Z</time>
      </trkpt>
      <trkpt lat="42.7197170" lon="-8.6491980">
        <ele>26.5</ele>
        <time>2021-05-23T09:50:16Z</time>
      </trkpt>
      <trkpt lat="42.7197160" lon="-8.6491960">
        <ele>26.5</ele>
        <time>2021-05-23T09:50:17Z</time>
      </trkpt>
      <trkpt lat="42.7197140" lon="-8.6491940">
        <ele>26.5</ele>
        <time>2021-05-23T09:50:18Z</time>
      </trkpt>
      <trkpt lat="42.7197140" lon="-8.6491940">
        <ele>26.5</ele>
        <time>2021-05-23T09:50:19Z</time>
      </trkpt>
      <trkpt lat="42.7197130" lon="-8.6491930">
        <ele>26.5</ele>
        <time>2021-05-23T09:50:20Z</time>
      </trkpt>
      <trkpt lat="42.7197110" lon="-8.6491930">
        <ele>26.5</ele>
        <time>2021-05-23T09:50:21Z</time>
      </trkpt>
      <trkpt lat="42.7197090" lon="-8.6491920">
        <ele>26.5</ele>
        <time>2021-05-23T09:50:22Z</time>
      </trkpt>
      <trkpt lat="42.7197090" lon="-8.6491920">
        <ele>26.5</ele>
        <time>2021-05-23T09:50:23Z</time>
      </trkpt>
      <trkpt lat="42.7197090" lon="-8.6491920">
        <ele>26.5</ele>
        <time>2021-05-23T09:50:24Z</time>
      </trkpt>
      <trkpt lat="42.7197090" lon="-8.6491920">
        <ele>26.5</ele>
        <time>2021-05-23T09:50:25Z</time>
      </trkpt>
      <trkpt lat="42.7197090" lon="-8.6491920">
        <ele>26.5</ele>
        <time>2021-05-23T09:50:26Z</time>
      </trkpt>
      <trkpt lat="42.7197090" lon="-8.6491920">
        <ele>26.5</ele>
        <time>2021-05-23T09:50:27Z</time>
      </trkpt>
      <trkpt lat="42.7197090" lon="-8.6491920">
        <ele>26.5</ele>
        <time>2021-05-23T09:50:28Z</time>
      </trkpt>
      <trkpt lat="42.7197090" lon="-8.6491920">
        <ele>26.5</ele>
        <time>2021-05-23T09:50:29Z</time>
      </trkpt>
      <trkpt lat="42.7197090" lon="-8.6491920">
        <ele>26.5</ele>
        <time>2021-05-23T09:50:30Z</time>
      </trkpt>
      <trkpt lat="42.7197090" lon="-8.6491920">
        <ele>26.5</ele>
        <time>2021-05-23T09:50:31Z</time>
      </trkpt>
      <trkpt lat="42.7197030" lon="-8.6491840">
        <ele>26.6</ele>
        <time>2021-05-23T09:50:32Z</time>
      </trkpt>
      <trkpt lat="42.7197080" lon="-8.6491850">
        <ele>26.6</ele>
        <time>2021-05-23T09:50:33Z</time>
      </trkpt>
      <trkpt lat="42.7197110" lon="-8.6491850">
        <ele>26.6</ele>
        <time>2021-05-23T09:50:34Z</time>
      </trkpt>
      <trkpt lat="42.7197220" lon="-8.6491910">
        <ele>26.6</ele>
        <time>2021-05-23T09:50:35Z</time>
      </trkpt>
      <trkpt lat="42.7197320" lon="-8.6492080">
        <ele>26.6</ele>
        <time>2021-05-23T09:50:36Z</time>
      </trkpt>
      <trkpt lat="42.7197390" lon="-8.6492120">
        <ele>26.6</ele>
        <time>2021-05-23T09:50:37Z</time>
      </trkpt>
      <trkpt lat="42.7197460" lon="-8.6492170">
        <ele>26.7</ele>
        <time>2021-05-23T09:50:38Z</time>
      </trkpt>
      <trkpt lat="42.7197510" lon="-8.6492290">
        <ele>26.7</ele>
        <time>2021-05-23T09:50:39Z</time>
      </trkpt>
      <trkpt lat="42.7197600" lon="-8.6492380">
        <ele>26.7</ele>
        <time>2021-05-23T09:50:40Z</time>
      </trkpt>
      <trkpt lat="42.7197610" lon="-8.6492550">
        <ele>26.7</ele>
        <time>2021-05-23T09:50:41Z</time>
      </trkpt>
      <trkpt lat="42.7197700" lon="-8.6492750">
        <ele>26.8</ele>
        <time>2021-05-23T09:50:42Z</time>
      </trkpt>
      <trkpt lat="42.7197790" lon="-8.6492920">
        <ele>26.8</ele>
        <time>2021-05-23T09:50:43Z</time>
      </trkpt>
      <trkpt lat="42.7197850" lon="-8.6493130">
        <ele>26.9</ele>
        <time>2021-05-23T09:50:44Z</time>
      </trkpt>
      <trkpt lat="42.7197930" lon="-8.6493310">
        <ele>26.9</ele>
        <time>2021-05-23T09:50:45Z</time>
      </trkpt>
      <trkpt lat="42.7198010" lon="-8.6493450">
        <ele>26.9</ele>
        <time>2021-05-23T09:50:46Z</time>
      </trkpt>
      <trkpt lat="42.7198060" lon="-8.6493660">
        <ele>27.0</ele>
        <time>2021-05-23T09:50:47Z</time>
      </trkpt>
      <trkpt lat="42.7198130" lon="-8.6493740">
        <ele>27.0</ele>
        <time>2021-05-23T09:50:48Z</time>
      </trkpt>
      <trkpt lat="42.7198160" lon="-8.6493940">
        <ele>27.1</ele>
        <time>2021-05-23T09:50:49Z</time>
      </trkpt>
      <trkpt lat="42.7198190" lon="-8.6494100">
        <ele>27.1</ele>
        <time>2021-05-23T09:50:50Z</time>
      </trkpt>
      <trkpt lat="42.7198200" lon="-8.6494380">
        <ele>27.2</ele>
        <time>2021-05-23T09:50:51Z</time>
      </trkpt>
      <trkpt lat="42.7198230" lon="-8.6494500">
        <ele>27.2</ele>
        <time>2021-05-23T09:50:52Z</time>
      </trkpt>
      <trkpt lat="42.7198270" lon="-8.6494630">
        <ele>27.2</ele>
        <time>2021-05-23T09:50:53Z</time>
      </trkpt>
      <trkpt lat="42.7198320" lon="-8.6494780">
        <ele>27.3</ele>
        <time>2021-05-23T09:50:54Z</time>
      </trkpt>
      <trkpt lat="42.7198370" lon="-8.6494840">
        <ele>27.3</ele>
        <time>2021-05-23T09:50:55Z</time>
      </trkpt>
      <trkpt lat="42.7198440" lon="-8.6494940">
        <ele>27.3</ele>
        <time>2021-05-23T09:50:56Z</time>
      </trkpt>
      <trkpt lat="42.7198520" lon="-8.6495070">
        <ele>27.4</ele>
        <time>2021-05-23T09:50:57Z</time>
      </trkpt>
      <trkpt lat="42.7198570" lon="-8.6495190">
        <ele>27.4</ele>
        <time>2021-05-23T09:50:58Z</time>
      </trkpt>
      <trkpt lat="42.7198640" lon="-8.6495320">
        <ele>27.5</ele>
        <time>2021-05-23T09:50:59Z</time>
      </trkpt>
      <trkpt lat="42.7198700" lon="-8.6495390">
        <ele>27.5</ele>
        <time>2021-05-23T09:51:00Z</time>
      </trkpt>
      <trkpt lat="42.7198820" lon="-8.6495430">
        <ele>27.6</ele>
        <time>2021-05-23T09:51:01Z</time>
      </trkpt>
      <trkpt lat="42.7198930" lon="-8.6495420">
        <ele>27.6</ele>
        <time>2021-05-23T09:51:02Z</time>
      </trkpt>
      <trkpt lat="42.7198980" lon="-8.6495510">
        <ele>27.6</ele>
        <time>2021-05-23T09:51:03Z</time>
      </trkpt>
      <trkpt lat="42.7199100" lon="-8.6495490">
        <ele>27.7</ele>
        <time>2021-05-23T09:51:04Z</time>
      </trkpt>
      <trkpt lat="42.7199200" lon="-8.6495500">
        <ele>27.7</ele>
        <time>2021-05-23T09:51:05Z</time>
      </trkpt>
      <trkpt lat="42.7199330" lon="-8.6495510">
        <ele>27.8</ele>
        <time>2021-05-23T09:51:06Z</time>
      </trkpt>
      <trkpt lat="42.7199510" lon="-8.6495440">
        <ele>27.9</ele>
        <time>2021-05-23T09:51:07Z</time>
      </trkpt>
      <trkpt lat="42.7199670" lon="-8.6495430">
        <ele>27.9</ele>
        <time>2021-05-23T09:51:08Z</time>
      </trkpt>
      <trkpt lat="42.7199780" lon="-8.6495430">
        <ele>28.0</ele>
        <time>2021-05-23T09:51:09Z</time>
      </trkpt>
      <trkpt lat="42.7199880" lon="-8.6495440">
        <ele>28.0</ele>
        <time>2021-05-23T09:51:10Z</time>
      </trkpt>
      <trkpt lat="42.7199990" lon="-8.6495520">
        <ele>28.1</ele>
        <time>2021-05-23T09:51:11Z</time>
      </trkpt>
      <trkpt lat="42.7200150" lon="-8.6495450">
        <ele>28.2</ele>
        <time>2021-05-23T09:51:12Z</time>
      </trkpt>
      <trkpt lat="42.7200250" lon="-8.6495320">
        <ele>28.2</ele>
        <time>2021-05-23T09:51:13Z</time>
      </trkpt>
      <trkpt lat="42.7200460" lon="-8.6495340">
        <ele>28.3</ele>
        <time>2021-05-23T09:51:14Z</time>
      </trkpt>
      <trkpt lat="42.7200670" lon="-8.6495400">
        <ele>28.5</ele>
        <time>2021-05-23T09:51:15Z</time>
      </trkpt>
      <trkpt lat="42.7200790" lon="-8.6495410">
        <ele>28.5</ele>
        <time>2021-05-23T09:51:16Z</time>
      </trkpt>
      <trkpt lat="42.7201020" lon="-8.6495390">
        <ele>28.6</ele>
        <time>2021-05-23T09:51:17Z</time>
      </trkpt>
      <trkpt lat="42.7201110" lon="-8.6495380">
        <ele>28.7</ele>
        <time>2021-05-23T09:51:18Z</time>
      </trkpt>
      <trkpt lat="42.7201200" lon="-8.6495360">
        <ele>28.7</ele>
        <time>2021-05-23T09:51:19Z</time>
      </trkpt>
      <trkpt lat="42.7201370" lon="-8.6495320">
        <ele>28.8</ele>
        <time>2021-05-23T09:51:20Z</time>
      </trkpt>
      <trkpt lat="42.7201450" lon="-8.6495240">
        <ele>28.9</ele>
        <time>2021-05-23T09:51:21Z</time>
      </trkpt>
      <trkpt lat="42.7201540" lon="-8.6495210">
        <ele>28.9</ele>
        <time>2021-05-23T09:51:22Z</time>
      </trkpt>
      <trkpt lat="42.7201630" lon="-8.6495230">
        <ele>29.0</ele>
        <time>2021-05-23T09:51:23Z</time>
      </trkpt>
      <trkpt lat="42.7201720" lon="-8.6495160">
        <ele>29.0</ele>
        <time>2021-05-23T09:51:24Z</time>
      </trkpt>
      <trkpt lat="42.7201790" lon="-8.6495050">
        <ele>29.1</ele>
        <time>2021-05-23T09:51:25Z</time>
      </trkpt>
      <trkpt lat="42.7201900" lon="-8.6495010">
        <ele>29.1</ele>
        <time>2021-05-23T09:51:26Z</time>
      </trkpt>
      <trkpt lat="42.7201970" lon="-8.6494950">
        <ele>29.2</ele>
        <time>2021-05-23T09:51:27Z</time>
      </trkpt>
      <trkpt lat="42.7202050" lon="-8.6494930">
        <ele>29.2</ele>
        <time>2021-05-23T09:51:28Z</time>
      </trkpt>
      <trkpt lat="42.7202160" lon="-8.6494880">
        <ele>29.3</ele>
        <time>2021-05-23T09:51:29Z</time>
      </trkpt>
      <trkpt lat="42.7202260" lon="-8.6494730">
        <ele>29.4</ele>
        <time>2021-05-23T09:51:30Z</time>
      </trkpt>
      <trkpt lat="42.7202330" lon="-8.6494710">
        <ele>29.4</ele>
        <time>2021-05-23T09:51:31Z</time>
      </trkpt>
      <trkpt lat="42.7202390" lon="-8.6494800">
        <ele>29.5</ele>
        <time>2021-05-23T09:51:32Z</time>
      </trkpt>
      <trkpt lat="42.7202360" lon="-8.6494850">
        <ele>29.5</ele>
        <time>2021-05-23T09:51:33Z</time>
      </trkpt>
      <trkpt lat="42.7202310" lon="-8.6494820">
        <ele>29.5</ele>
        <time>2021-05-23T09:51:34Z</time>
      </trkpt>
      <trkpt lat="42.7202250" lon="-8.6494780">
        <ele>29.6</ele>
        <time>2021-05-23T09:51:35Z</time>
      </trkpt>
      <trkpt lat="42.7202200" lon="-8.6494770">
        <ele>29.6</ele>
        <time>2021-05-23T09:51:36Z</time>
      </trkpt>
      <trkpt lat="42.7202140" lon="-8.6494780">
        <ele>29.6</ele>
        <time>2021-05-23T09:51:37Z</time>
      </trkpt>
      <trkpt lat="42.7202150" lon="-8.6494760">
        <ele>29.6</ele>
        <time>2021-05-23T09:51:38Z</time>
      </trkpt>
      <trkpt lat="42.7202130" lon="-8.6494760">
        <ele>29.7</ele>
        <time>2021-05-23T09:51:39Z</time>
      </trkpt>
      <trkpt lat="42.7202170" lon="-8.6494740">
        <ele>29.7</ele>
        <time>2021-05-23T09:51:40Z</time>
      </trkpt>
      <trkpt lat="42.7202300" lon="-8.6494960">
        <ele>29.8</ele>
        <time>2021-05-23T09:51:41Z</time>
      </trkpt>
      <trkpt lat="42.7202300" lon="-8.6495030">
        <ele>29.8</ele>
        <time>2021-05-23T09:51:42Z</time>
      </trkpt>
      <trkpt lat="42.7202280" lon="-8.6495020">
        <ele>29.8</ele>
        <time>2021-05-23T09:51:43Z</time>
      </trkpt>
      <trkpt lat="42.7202260" lon="-8.6495010">
        <ele>29.9</ele>
        <time>2021-05-23T09:51:44Z</time>
      </trkpt>
      <trkpt lat="42.7202370" lon="-8.6495080">
        <ele>29.9</ele>
        <time>2021-05-23T09:51:45Z</time>
      </trkpt>
      <trkpt lat="42.7202280" lon="-8.6495010">
        <ele>30.0</ele>
        <time>2021-05-23T09:51:46Z</time>
      </trkpt>
      <trkpt lat="42.7202240" lon="-8.6495000">
        <ele>30.0</ele>
        <time>2021-05-23T09:51:47Z</time>
      </trkpt>
      <trkpt lat="42.7202180" lon="-8.6494980">
        <ele>30.1</ele>
        <time>2021-05-23T09:51:48Z</time>
      </trkpt>
      <trkpt lat="42.7202150" lon="-8.6495050">
        <ele>30.1</ele>
        <time>2021-05-23T09:51:49Z</time>
      </trkpt>
      <trkpt lat="42.7202150" lon="-8.6495040">
        <ele>30.1</ele>
        <time>2021-05-23T09:51:50Z</time>
      </trkpt>
      <trkpt lat="42.7202230" lon="-8.6495300">
        <ele>30.2</ele>
        <time>2021-05-23T09:51:51Z</time>
      </trkpt>
      <trkpt lat="42.7202190" lon="-8.6495240">
        <ele>30.3</ele>
        <time>2021-05-23T09:51:52Z</time>
      </trkpt>
      <trkpt lat="42.7202140" lon="-8.6495190">
        <ele>30.3</ele>
        <time>2021-05-23T09:51:53Z</time>
      </trkpt>
      <trkpt lat="42.7202130" lon="-8.6495160">
        <ele>30.3</ele>
        <time>2021-05-23T09:51:54Z</time>
      </trkpt>
      <trkpt lat="42.7202130" lon="-8.6495170">
        <ele>30.3</ele>
        <time>2021-05-23T09:51:55Z</time>
      </trkpt>
      <trkpt lat="42.7202220" lon="-8.6495260">
        <ele>30.4</ele>
        <time>2021-05-23T09:51:56Z</time>
      </trkpt>
      <trkpt lat="42.7202210" lon="-8.6495270">
        <ele>30.4</ele>
        <time>2021-05-23T09:51:57Z</time>
      </trkpt>
      <trkpt lat="42.7202290" lon="-8.6495350">
        <ele>30.5</ele>
        <time>2021-05-23T09:51:58Z</time>
      </trkpt>
      <trkpt lat="42.7202250" lon="-8.6495250">
        <ele>30.5</ele>
        <time>2021-05-23T09:51:59Z</time>
      </trkpt>
      <trkpt lat="42.7202280" lon="-8.6495290">
        <ele>30.5</ele>
        <time>2021-05-23T09:52:00Z</time>
      </trkpt>
      <trkpt lat="42.7202280" lon="-8.6495390">
        <ele>30.6</ele>
        <time>2021-05-23T09:52:01Z</time>
      </trkpt>
      <trkpt lat="42.7202320" lon="-8.6495490">
        <ele>30.6</ele>
        <time>2021-05-23T09:52:02Z</time>
      </trkpt>
      <trkpt lat="42.7202340" lon="-8.6495560">
        <ele>30.7</ele>
        <time>2021-05-23T09:52:03Z</time>
      </trkpt>
      <trkpt lat="42.7202370" lon="-8.6495570">
        <ele>30.7</ele>
        <time>2021-05-23T09:52:04Z</time>
      </trkpt>
      <trkpt lat="42.7202400" lon="-8.6495620">
        <ele>30.7</ele>
        <time>2021-05-23T09:52:05Z</time>
      </trkpt>
      <trkpt lat="42.7202420" lon="-8.6495660">
        <ele>30.7</ele>
        <time>2021-05-23T09:52:06Z</time>
      </trkpt>
      <trkpt lat="42.7202400" lon="-8.6495710">
        <ele>30.8</ele>
        <time>2021-05-23T09:52:07Z</time>
      </trkpt>
      <trkpt lat="42.7202470" lon="-8.6495710">
        <ele>30.8</ele>
        <time>2021-05-23T09:52:08Z</time>
      </trkpt>
      <trkpt lat="42.7202480" lon="-8.6495750">
        <ele>30.8</ele>
        <time>2021-05-23T09:52:09Z</time>
      </trkpt>
      <trkpt lat="42.7202540" lon="-8.6495770">
        <ele>30.9</ele>
        <time>2021-05-23T09:52:10Z</time>
      </trkpt>
      <trkpt lat="42.7202630" lon="-8.6495800">
        <ele>30.9</ele>
        <time>2021-05-23T09:52:11Z</time>
      </trkpt>
      <trkpt lat="42.7202640" lon="-8.6495800">
        <ele>30.9</ele>
        <time>2021-05-23T09:52:12Z</time>
      </trkpt>
      <trkpt lat="42.7202700" lon="-8.6495910">
        <ele>31.0</ele>
        <time>2021-05-23T09:52:13Z</time>
      </trkpt>
      <trkpt lat="42.7202740" lon="-8.6496070">
        <ele>31.1</ele>
        <time>2021-05-23T09:52:14Z</time>
      </trkpt>
      <trkpt lat="42.7202810" lon="-8.6496210">
        <ele>31.2</ele>
        <time>2021-05-23T09:52:15Z</time>
      </trkpt>
      <trkpt lat="42.7202900" lon="-8.6496330">
        <ele>31.2</ele>
        <time>2021-05-23T09:52:16Z</time>
      </trkpt>
      <trkpt lat="42.7202890" lon="-8.6496440">
        <ele>31.3</ele>
        <time>2021-05-23T09:52:17Z</time>
      </trkpt>
      <trkpt lat="42.7202840" lon="-8.6496640">
        <ele>31.4</ele>
        <time>2021-05-23T09:52:18Z</time>
      </trkpt>
      <trkpt lat="42.7202880" lon="-8.6496840">
        <ele>31.5</ele>
        <time>2021-05-23T09:52:19Z</time>
      </trkpt>
      <trkpt lat="42.7203030" lon="-8.6496990">
        <ele>31.6</ele>
        <time>2021-05-23T09:52:20Z</time>
      </trkpt>
      <trkpt lat="42.7203120" lon="-8.6497070">
        <ele>31.7</ele>
        <time>2021-05-23T09:52:21Z</time>
      </trkpt>
      <trkpt lat="42.7203280" lon="-8.6497210">
        <ele>31.8</ele>
        <time>2021-05-23T09:52:22Z</time>
      </trkpt>
      <trkpt lat="42.7203340" lon="-8.6497240">
        <ele>31.9</ele>
        <time>2021-05-23T09:52:23Z</time>
      </trkpt>
      <trkpt lat="42.7203390" lon="-8.6497270">
        <ele>31.9</ele>
        <time>2021-05-23T09:52:24Z</time>
      </trkpt>
      <trkpt lat="42.7203450" lon="-8.6497300">
        <ele>31.9</ele>
        <time>2021-05-23T09:52:25Z</time>
      </trkpt>
      <trkpt lat="42.7203630" lon="-8.6497440">
        <ele>32.1</ele>
        <time>2021-05-23T09:52:26Z</time>
      </trkpt>
      <trkpt lat="42.7203710" lon="-8.6497500">
        <ele>32.1</ele>
        <time>2021-05-23T09:52:27Z</time>
      </trkpt>
      <trkpt lat="42.7203780" lon="-8.6497560">
        <ele>32.2</ele>
        <time>2021-05-23T09:52:28Z</time>
      </trkpt>
      <trkpt lat="42.7203880" lon="-8.6497640">
        <ele>32.3</ele>
        <time>2021-05-23T09:52:29Z</time>
      </trkpt>
      <trkpt lat="42.7203980" lon="-8.6497840">
        <ele>32.4</ele>
        <time>2021-05-23T09:52:30Z</time>
      </trkpt>
      <trkpt lat="42.7204040" lon="-8.6497970">
        <ele>32.5</ele>
        <time>2021-05-23T09:52:31Z</time>
      </trkpt>
      <trkpt lat="42.7204110" lon="-8.6498080">
        <ele>32.5</ele>
        <time>2021-05-23T09:52:32Z</time>
      </trkpt>
      <trkpt lat="42.7204140" lon="-8.6498150">
        <ele>32.6</ele>
        <time>2021-05-23T09:52:33Z</time>
      </trkpt>
      <trkpt lat="42.7204230" lon="-8.6498290">
        <ele>32.6</ele>
        <time>2021-05-23T09:52:34Z</time>
      </trkpt>
      <trkpt lat="42.7204300" lon="-8.6498450">
        <ele>32.7</ele>
        <time>2021-05-23T09:52:35Z</time>
      </trkpt>
      <trkpt lat="42.7204440" lon="-8.6498650">
        <ele>32.8</ele>
        <time>2021-05-23T09:52:36Z</time>
      </trkpt>
      <trkpt lat="42.7204520" lon="-8.6498750">
        <ele>32.9</ele>
        <time>2021-05-23T09:52:37Z</time>
      </trkpt>
      <trkpt lat="42.7204600" lon="-8.6498850">
        <ele>33.0</ele>
        <time>2021-05-23T09:52:38Z</time>
      </trkpt>
      <trkpt lat="42.7204660" lon="-8.6498820">
        <ele>33.0</ele>
        <time>2021-05-23T09:52:39Z</time>
      </trkpt>
      <trkpt lat="42.7204720" lon="-8.6498890">
        <ele>33.1</ele>
        <time>2021-05-23T09:52:40Z</time>
      </trkpt>
      <trkpt lat="42.7204770" lon="-8.6498990">
        <ele>33.1</ele>
        <time>2021-05-23T09:52:41Z</time>
      </trkpt>
      <trkpt lat="42.7204920" lon="-8.6499070">
        <ele>33.2</ele>
        <time>2021-05-23T09:52:42Z</time>
      </trkpt>
      <trkpt lat="42.7205110" lon="-8.6499100">
        <ele>33.3</ele>
        <time>2021-05-23T09:52:43Z</time>
      </trkpt>
      <trkpt lat="42.7205180" lon="-8.6499210">
        <ele>33.4</ele>
        <time>2021-05-23T09:52:44Z</time>
      </trkpt>
      <trkpt lat="42.7205270" lon="-8.6499270">
        <ele>33.4</ele>
        <time>2021-05-23T09:52:45Z</time>
      </trkpt>
      <trkpt lat="42.7205390" lon="-8.6499300">
        <ele>33.5</ele>
        <time>2021-05-23T09:52:46Z</time>
      </trkpt>
      <trkpt lat="42.7205480" lon="-8.6499450">
        <ele>33.5</ele>
        <time>2021-05-23T09:52:47Z</time>
      </trkpt>
      <trkpt lat="42.7205540" lon="-8.6499850">
        <ele>33.7</ele>
        <time>2021-05-23T09:52:48Z</time>
      </trkpt>
      <trkpt lat="42.7205570" lon="-8.6499970">
        <ele>33.8</ele>
        <time>2021-05-23T09:52:49Z</time>
      </trkpt>
      <trkpt lat="42.7205790" lon="-8.6500020">
        <ele>33.9</ele>
        <time>2021-05-23T09:52:50Z</time>
      </trkpt>
      <trkpt lat="42.7205900" lon="-8.6500020">
        <ele>33.9</ele>
        <time>2021-05-23T09:52:51Z</time>
      </trkpt>
      <trkpt lat="42.7206020" lon="-8.6500030">
        <ele>34.0</ele>
        <time>2021-05-23T09:52:52Z</time>
      </trkpt>
      <trkpt lat="42.7206120" lon="-8.6500080">
        <ele>34.0</ele>
        <time>2021-05-23T09:52:53Z</time>
      </trkpt>
      <trkpt lat="42.7206290" lon="-8.6500090">
        <ele>34.1</ele>
        <time>2021-05-23T09:52:54Z</time>
      </trkpt>
      <trkpt lat="42.7206420" lon="-8.6500250">
        <ele>34.2</ele>
        <time>2021-05-23T09:52:55Z</time>
      </trkpt>
      <trkpt lat="42.7206500" lon="-8.6500250">
        <ele>34.2</ele>
        <time>2021-05-23T09:52:56Z</time>
      </trkpt>
      <trkpt lat="42.7206590" lon="-8.6500240">
        <ele>34.3</ele>
        <time>2021-05-23T09:52:57Z</time>
      </trkpt>
      <trkpt lat="42.7206670" lon="-8.6500230">
        <ele>34.3</ele>
        <time>2021-05-23T09:52:58Z</time>
      </trkpt>
      <trkpt lat="42.7206680" lon="-8.6500320">
        <ele>34.3</ele>
        <time>2021-05-23T09:52:59Z</time>
      </trkpt>
      <trkpt lat="42.7206750" lon="-8.6500350">
        <ele>34.4</ele>
        <time>2021-05-23T09:53:00Z</time>
      </trkpt>
      <trkpt lat="42.7206760" lon="-8.6500340">
        <ele>34.4</ele>
        <time>2021-05-23T09:53:01Z</time>
      </trkpt>
      <trkpt lat="42.7206860" lon="-8.6500380">
        <ele>34.4</ele>
        <time>2021-05-23T09:53:02Z</time>
      </trkpt>
      <trkpt lat="42.7206880" lon="-8.6500380">
        <ele>34.4</ele>
        <time>2021-05-23T09:53:03Z</time>
      </trkpt>
      <trkpt lat="42.7206870" lon="-8.6500440">
        <ele>34.4</ele>
        <time>2021-05-23T09:53:04Z</time>
      </trkpt>
      <trkpt lat="42.7206900" lon="-8.6500440">
        <ele>34.4</ele>
        <time>2021-05-23T09:53:05Z</time>
      </trkpt>
      <trkpt lat="42.7206900" lon="-8.6500440">
        <ele>34.4</ele>
        <time>2021-05-23T09:53:06Z</time>
      </trkpt>
      <trkpt lat="42.7207010" lon="-8.6500380">
        <ele>34.5</ele>
        <time>2021-05-23T09:53:07Z</time>
      </trkpt>
      <trkpt lat="42.7207000" lon="-8.6500480">
        <ele>34.5</ele>
        <time>2021-05-23T09:53:08Z</time>
      </trkpt>
      <trkpt lat="42.7207050" lon="-8.6500520">
        <ele>34.5</ele>
        <time>2021-05-23T09:53:09Z</time>
      </trkpt>
      <trkpt lat="42.7207060" lon="-8.6500590">
        <ele>34.6</ele>
        <time>2021-05-23T09:53:10Z</time>
      </trkpt>
      <trkpt lat="42.7207090" lon="-8.6500660">
        <ele>34.6</ele>
        <time>2021-05-23T09:53:11Z</time>
      </trkpt>
      <trkpt lat="42.7207110" lon="-8.6500620">
        <ele>34.6</ele>
        <time>2021-05-23T09:53:12Z</time>
      </trkpt>
      <trkpt lat="42.7207150" lon="-8.6500650">
        <ele>34.6</ele>
        <time>2021-05-23T09:53:13Z</time>
      </trkpt>
      <trkpt lat="42.7207120" lon="-8.6500570">
        <ele>34.6</ele>
        <time>2021-05-23T09:53:14Z</time>
      </trkpt>
      <trkpt lat="42.7207090" lon="-8.6500560">
        <ele>34.7</ele>
        <time>2021-05-23T09:53:15Z</time>
      </trkpt>
      <trkpt lat="42.7207100" lon="-8.6500540">
        <ele>34.7</ele>
        <time>2021-05-23T09:53:16Z</time>
      </trkpt>
      <trkpt lat="42.7207120" lon="-8.6500490">
        <ele>34.7</ele>
        <time>2021-05-23T09:53:17Z</time>
      </trkpt>
      <trkpt lat="42.7207130" lon="-8.6500500">
        <ele>34.7</ele>
        <time>2021-05-23T09:53:18Z</time>
      </trkpt>
      <trkpt lat="42.7207170" lon="-8.6500460">
        <ele>34.7</ele>
        <time>2021-05-23T09:53:19Z</time>
      </trkpt>
      <trkpt lat="42.7207170" lon="-8.6500520">
        <ele>34.7</ele>
        <time>2021-05-23T09:53:20Z</time>
      </trkpt>
      <trkpt lat="42.7207220" lon="-8.6500470">
        <ele>34.7</ele>
        <time>2021-05-23T09:53:21Z</time>
      </trkpt>
      <trkpt lat="42.7207250" lon="-8.6500450">
        <ele>34.7</ele>
        <time>2021-05-23T09:53:22Z</time>
      </trkpt>
      <trkpt lat="42.7207290" lon="-8.6500420">
        <ele>34.7</ele>
        <time>2021-05-23T09:53:23Z</time>
      </trkpt>
      <trkpt lat="42.7207350" lon="-8.6500400">
        <ele>34.8</ele>
        <time>2021-05-23T09:53:24Z</time>
      </trkpt>
      <trkpt lat="42.7207370" lon="-8.6500410">
        <ele>34.8</ele>
        <time>2021-05-23T09:53:25Z</time>
      </trkpt>
      <trkpt lat="42.7207370" lon="-8.6500440">
        <ele>34.8</ele>
        <time>2021-05-23T09:53:26Z</time>
      </trkpt>
      <trkpt lat="42.7207410" lon="-8.6500420">
        <ele>34.8</ele>
        <time>2021-05-23T09:53:27Z</time>
      </trkpt>
      <trkpt lat="42.7207420" lon="-8.6500410">
        <ele>34.8</ele>
        <time>2021-05-23T09:53:28Z</time>
      </trkpt>
      <trkpt lat="42.7207420" lon="-8.6500370">
        <ele>34.8</ele>
        <time>2021-05-23T09:53:29Z</time>
      </trkpt>
      <trkpt lat="42.7207440" lon="-8.6500330">
        <ele>34.8</ele>
        <time>2021-05-23T09:53:30Z</time>
      </trkpt>
      <trkpt lat="42.7207500" lon="-8.6500300">
        <ele>34.8</ele>
        <time>2021-05-23T09:53:31Z</time>
      </trkpt>
      <trkpt lat="42.7207580" lon="-8.6500260">
        <ele>34.9</ele>
        <time>2021-05-23T09:53:32Z</time>
      </trkpt>
      <trkpt lat="42.7207540" lon="-8.6500210">
        <ele>34.9</ele>
        <time>2021-05-23T09:53:33Z</time>
      </trkpt>
      <trkpt lat="42.7207600" lon="-8.6500190">
        <ele>34.9</ele>
        <time>2021-05-23T09:53:34Z</time>
      </trkpt>
      <trkpt lat="42.7207540" lon="-8.6500210">
        <ele>34.9</ele>
        <time>2021-05-23T09:53:35Z</time>
      </trkpt>
      <trkpt lat="42.7207490" lon="-8.6500270">
        <ele>34.9</ele>
        <time>2021-05-23T09:53:36Z</time>
      </trkpt>
      <trkpt lat="42.7207460" lon="-8.6500280">
        <ele>34.9</ele>
        <time>2021-05-23T09:53:37Z</time>
      </trkpt>
      <trkpt lat="42.7207430" lon="-8.6500310">
        <ele>34.9</ele>
        <time>2021-05-23T09:53:38Z</time>
      </trkpt>
      <trkpt lat="42.7207340" lon="-8.6500340">
        <ele>35.0</ele>
        <time>2021-05-23T09:53:39Z</time>
      </trkpt>
      <trkpt lat="42.7207420" lon="-8.6500430">
        <ele>35.0</ele>
        <time>2021-05-23T09:53:40Z</time>
      </trkpt>
      <trkpt lat="42.7207490" lon="-8.6500440">
        <ele>35.0</ele>
        <time>2021-05-23T09:53:41Z</time>
      </trkpt>
      <trkpt lat="42.7207560" lon="-8.6500460">
        <ele>35.0</ele>
        <time>2021-05-23T09:53:42Z</time>
      </trkpt>
      <trkpt lat="42.7207630" lon="-8.6500470">
        <ele>35.0</ele>
        <time>2021-05-23T09:53:43Z</time>
      </trkpt>
      <trkpt lat="42.7207700" lon="-8.6500490">
        <ele>35.0</ele>
        <time>2021-05-23T09:53:44Z</time>
      </trkpt>
      <trkpt lat="42.7207750" lon="-8.6500530">
        <ele>35.0</ele>
        <time>2021-05-23T09:53:45Z</time>
      </trkpt>
      <trkpt lat="42.7207780" lon="-8.6500550">
        <ele>35.0</ele>
        <time>2021-05-23T09:53:46Z</time>
      </trkpt>
      <trkpt lat="42.7207820" lon="-8.6500580">
        <ele>35.1</ele>
        <time>2021-05-23T09:53:47Z</time>
      </trkpt>
      <trkpt lat="42.7207780" lon="-8.6500560">
        <ele>35.1</ele>
        <time>2021-05-23T09:53:48Z</time>
      </trkpt>
      <trkpt lat="42.7207760" lon="-8.6500550">
        <ele>35.1</ele>
        <time>2021-05-23T09:53:49Z</time>
      </trkpt>
      <trkpt lat="42.7207740" lon="-8.6500510">
        <ele>35.1</ele>
        <time>2021-05-23T09:53:50Z</time>
      </trkpt>
      <trkpt lat="42.7207750" lon="-8.6500540">
        <ele>35.1</ele>
        <time>2021-05-23T09:53:51Z</time>
      </trkpt>
      <trkpt lat="42.7207750" lon="-8.6500570">
        <ele>35.1</ele>
        <time>2021-05-23T09:53:52Z</time>
      </trkpt>
      <trkpt lat="42.7207790" lon="-8.6500560">
        <ele>35.1</ele>
        <time>2021-05-23T09:53:53Z</time>
      </trkpt>
      <trkpt lat="42.7207760" lon="-8.6500550">
        <ele>35.1</ele>
        <time>2021-05-23T09:53:54Z</time>
      </trkpt>
      <trkpt lat="42.7207800" lon="-8.6500570">
        <ele>35.1</ele>
        <time>2021-05-23T09:53:55Z</time>
      </trkpt>
      <trkpt lat="42.7207790" lon="-8.6500620">
        <ele>35.1</ele>
        <time>2021-05-23T09:53:56Z</time>
      </trkpt>
      <trkpt lat="42.7207790" lon="-8.6500660">
        <ele>35.1</ele>
        <time>2021-05-23T09:53:57Z</time>
      </trkpt>
      <trkpt lat="42.7207780" lon="-8.6500710">
        <ele>35.1</ele>
        <time>2021-05-23T09:53:58Z</time>
      </trkpt>
      <trkpt lat="42.7207800" lon="-8.6500740">
        <ele>35.1</ele>
        <time>2021-05-23T09:53:59Z</time>
      </trkpt>
      <trkpt lat="42.7207780" lon="-8.6500760">
        <ele>35.1</ele>
        <time>2021-05-23T09:54:00Z</time>
      </trkpt>
      <trkpt lat="42.7207780" lon="-8.6500750">
        <ele>35.1</ele>
        <time>2021-05-23T09:54:01Z</time>
      </trkpt>
      <trkpt lat="42.7207770" lon="-8.6500800">
        <ele>35.1</ele>
        <time>2021-05-23T09:54:02Z</time>
      </trkpt>
      <trkpt lat="42.7207780" lon="-8.6500810">
        <ele>35.1</ele>
        <time>2021-05-23T09:54:03Z</time>
      </trkpt>
      <trkpt lat="42.7207780" lon="-8.6500770">
        <ele>35.1</ele>
        <time>2021-05-23T09:54:04Z</time>
      </trkpt>
      <trkpt lat="42.7207800" lon="-8.6500750">
        <ele>35.1</ele>
        <time>2021-05-23T09:54:05Z</time>
      </trkpt>
      <trkpt lat="42.7207860" lon="-8.6500750">
        <ele>35.1</ele>
        <time>2021-05-23T09:54:06Z</time>
      </trkpt>
      <trkpt lat="42.7207880" lon="-8.6500730">
        <ele>35.1</ele>
        <time>2021-05-23T09:54:07Z</time>
      </trkpt>
      <trkpt lat="42.7207870" lon="-8.6500740">
        <ele>35.1</ele>
        <time>2021-05-23T09:54:08Z</time>
      </trkpt>
      <trkpt lat="42.7207870" lon="-8.6500700">
        <ele>35.1</ele>
        <time>2021-05-23T09:54:09Z</time>
      </trkpt>
      <trkpt lat="42.7207870" lon="-8.6500730">
        <ele>35.1</ele>
        <time>2021-05-23T09:54:10Z</time>
      </trkpt>
      <trkpt lat="42.7207900" lon="-8.6500700">
        <ele>35.1</ele>
        <time>2021-05-23T09:54:11Z</time>
      </trkpt>
      <trkpt lat="42.7207890" lon="-8.6500740">
        <ele>35.2</ele>
        <time>2021-05-23T09:54:12Z</time>
      </trkpt>
      <trkpt lat="42.7207830" lon="-8.6500760">
        <ele>35.2</ele>
        <time>2021-05-23T09:54:13Z</time>
      </trkpt>
      <trkpt lat="42.7207810" lon="-8.6500810">
        <ele>35.2</ele>
        <time>2021-05-23T09:54:14Z</time>
      </trkpt>
      <trkpt lat="42.7207840" lon="-8.6500780">
        <ele>35.2</ele>
        <time>2021-05-23T09:54:15Z</time>
      </trkpt>
      <trkpt lat="42.7207830" lon="-8.6500770">
        <ele>35.2</ele>
        <time>2021-05-23T09:54:16Z</time>
      </trkpt>
      <trkpt lat="42.7207810" lon="-8.6500810">
        <ele>35.2</ele>
        <time>2021-05-23T09:54:17Z</time>
      </trkpt>
      <trkpt lat="42.7207810" lon="-8.6500820">
        <ele>35.2</ele>
        <time>2021-05-23T09:54:18Z</time>
      </trkpt>
      <trkpt lat="42.7207790" lon="-8.6500810">
        <ele>35.2</ele>
        <time>2021-05-23T09:54:19Z</time>
      </trkpt>
      <trkpt lat="42.7207780" lon="-8.6500820">
        <ele>35.2</ele>
        <time>2021-05-23T09:54:20Z</time>
      </trkpt>
      <trkpt lat="42.7207770" lon="-8.6500830">
        <ele>35.2</ele>
        <time>2021-05-23T09:54:21Z</time>
      </trkpt>
      <trkpt lat="42.7207750" lon="-8.6500810">
        <ele>35.2</ele>
        <time>2021-05-23T09:54:22Z</time>
      </trkpt>
      <trkpt lat="42.7207750" lon="-8.6500790">
        <ele>35.2</ele>
        <time>2021-05-23T09:54:23Z</time>
      </trkpt>
      <trkpt lat="42.7207720" lon="-8.6500800">
        <ele>35.2</ele>
        <time>2021-05-23T09:54:24Z</time>
      </trkpt>
      <trkpt lat="42.7207700" lon="-8.6500800">
        <ele>35.2</ele>
        <time>2021-05-23T09:54:25Z</time>
      </trkpt>
      <trkpt lat="42.7207700" lon="-8.6500800">
        <ele>35.2</ele>
        <time>2021-05-23T09:54:26Z</time>
      </trkpt>
      <trkpt lat="42.7207710" lon="-8.6500810">
        <ele>35.2</ele>
        <time>2021-05-23T09:54:27Z</time>
      </trkpt>
      <trkpt lat="42.7207690" lon="-8.6500830">
        <ele>35.2</ele>
        <time>2021-05-23T09:54:28Z</time>
      </trkpt>
      <trkpt lat="42.7207680" lon="-8.6500860">
        <ele>35.2</ele>
        <time>2021-05-23T09:54:29Z</time>
      </trkpt>
      <trkpt lat="42.7207690" lon="-8.6500850">
        <ele>35.2</ele>
        <time>2021-05-23T09:54:30Z</time>
      </trkpt>
      <trkpt lat="42.7207690" lon="-8.6500900">
        <ele>35.2</ele>
        <time>2021-05-23T09:54:31Z</time>
      </trkpt>
      <trkpt lat="42.7207700" lon="-8.6500880">
        <ele>35.2</ele>
        <time>2021-05-23T09:54:32Z</time>
      </trkpt>
      <trkpt lat="42.7207690" lon="-8.6500890">
        <ele>35.2</ele>
        <time>2021-05-23T09:54:33Z</time>
      </trkpt>
      <trkpt lat="42.7207720" lon="-8.6500860">
        <ele>35.2</ele>
        <time>2021-05-23T09:54:34Z</time>
      </trkpt>
      <trkpt lat="42.7207720" lon="-8.6500860">
        <ele>35.2</ele>
        <time>2021-05-23T09:54:35Z</time>
      </trkpt>
      <trkpt lat="42.7207730" lon="-8.6500890">
        <ele>35.2</ele>
        <time>2021-05-23T09:54:36Z</time>
      </trkpt>
      <trkpt lat="42.7207730" lon="-8.6500880">
        <ele>35.2</ele>
        <time>2021-05-23T09:54:37Z</time>
      </trkpt>
      <trkpt lat="42.7207730" lon="-8.6500850">
        <ele>35.2</ele>
        <time>2021-05-23T09:54:38Z</time>
      </trkpt>
      <trkpt lat="42.7207710" lon="-8.6500870">
        <ele>35.2</ele>
        <time>2021-05-23T09:54:39Z</time>
      </trkpt>
      <trkpt lat="42.7207700" lon="-8.6500830">
        <ele>35.2</ele>
        <time>2021-05-23T09:54:40Z</time>
      </trkpt>
      <trkpt lat="42.7207730" lon="-8.6500750">
        <ele>35.2</ele>
        <time>2021-05-23T09:54:41Z</time>
      </trkpt>
      <trkpt lat="42.7207830" lon="-8.6500710">
        <ele>35.2</ele>
        <time>2021-05-23T09:54:42Z</time>
      </trkpt>
      <trkpt lat="42.7207880" lon="-8.6500630">
        <ele>35.2</ele>
        <time>2021-05-23T09:54:43Z</time>
      </trkpt>
      <trkpt lat="42.7207870" lon="-8.6500620">
        <ele>35.2</ele>
        <time>2021-05-23T09:54:44Z</time>
      </trkpt>
      <trkpt lat="42.7207860" lon="-8.6500610">
        <ele>35.2</ele>
        <time>2021-05-23T09:54:45Z</time>
      </trkpt>
      <trkpt lat="42.7207830" lon="-8.6500620">
        <ele>35.2</ele>
        <time>2021-05-23T09:54:46Z</time>
      </trkpt>
      <trkpt lat="42.7207770" lon="-8.6500610">
        <ele>35.2</ele>
        <time>2021-05-23T09:54:47Z</time>
      </trkpt>
      <trkpt lat="42.7207770" lon="-8.6500680">
        <ele>35.2</ele>
        <time>2021-05-23T09:54:48Z</time>
      </trkpt>
      <trkpt lat="42.7207790" lon="-8.6500690">
        <ele>35.2</ele>
        <time>2021-05-23T09:54:49Z</time>
      </trkpt>
      <trkpt lat="42.7207880" lon="-8.6500760">
        <ele>35.2</ele>
        <time>2021-05-23T09:54:50Z</time>
      </trkpt>
      <trkpt lat="42.7207910" lon="-8.6500860">
        <ele>35.2</ele>
        <time>2021-05-23T09:54:51Z</time>
      </trkpt>
      <trkpt lat="42.7207840" lon="-8.6500840">
        <ele>35.2</ele>
        <time>2021-05-23T09:54:52Z</time>
      </trkpt>
      <trkpt lat="42.7207860" lon="-8.6500790">
        <ele>35.2</ele>
        <time>2021-05-23T09:54:53Z</time>
      </trkpt>
      <trkpt lat="42.7207890" lon="-8.6500850">
        <ele>35.2</ele>
        <time>2021-05-23T09:54:54Z</time>
      </trkpt>
      <trkpt lat="42.7207970" lon="-8.6500960">
        <ele>35.2</ele>
        <time>2021-05-23T09:54:55Z</time>
      </trkpt>
      <trkpt lat="42.7207990" lon="-8.6500950">
        <ele>35.2</ele>
        <time>2021-05-23T09:54:56Z</time>
      </trkpt>
      <trkpt lat="42.7207980" lon="-8.6500940">
        <ele>35.2</ele>
        <time>2021-05-23T09:54:57Z</time>
      </trkpt>
      <trkpt lat="42.7208060" lon="-8.6500780">
        <ele>35.2</ele>
        <time>2021-05-23T09:54:58Z</time>
      </trkpt>
      <trkpt lat="42.7208060" lon="-8.6500810">
        <ele>35.2</ele>
        <time>2021-05-23T09:54:59Z</time>
      </trkpt>
      <trkpt lat="42.7207980" lon="-8.6500980">
        <ele>35.2</ele>
        <time>2021-05-23T09:55:00Z</time>
      </trkpt>
      <trkpt lat="42.7207990" lon="-8.6500920">
        <ele>35.2</ele>
        <time>2021-05-23T09:55:01Z</time>
      </trkpt>
      <trkpt lat="42.7207970" lon="-8.6500940">
        <ele>35.2</ele>
        <time>2021-05-23T09:55:02Z</time>
      </trkpt>
      <trkpt lat="42.7207990" lon="-8.6500930">
        <ele>35.2</ele>
        <time>2021-05-23T09:55:03Z</time>
      </trkpt>
      <trkpt lat="42.7207970" lon="-8.6500910">
        <ele>35.2</ele>
        <time>2021-05-23T09:55:04Z</time>
      </trkpt>
      <trkpt lat="42.7207930" lon="-8.6500950">
        <ele>35.2</ele>
        <time>2021-05-23T09:55:05Z</time>
      </trkpt>
      <trkpt lat="42.7207930" lon="-8.6500930">
        <ele>35.2</ele>
        <time>2021-05-23T09:55:06Z</time>
      </trkpt>
      <trkpt lat="42.7207910" lon="-8.6500960">
        <ele>35.2</ele>
        <time>2021-05-23T09:55:07Z</time>
      </trkpt>
      <trkpt lat="42.7207900" lon="-8.6500980">
        <ele>35.2</ele>
        <time>2021-05-23T09:55:08Z</time>
      </trkpt>
      <trkpt lat="42.7207880" lon="-8.6500960">
        <ele>35.2</ele>
        <time>2021-05-23T09:55:09Z</time>
      </trkpt>
      <trkpt lat="42.7207770" lon="-8.6500890">
        <ele>35.2</ele>
        <time>2021-05-23T09:55:10Z</time>
      </trkpt>
      <trkpt lat="42.7207690" lon="-8.6500860">
        <ele>35.2</ele>
        <time>2021-05-23T09:55:11Z</time>
      </trkpt>
      <trkpt lat="42.7207680" lon="-8.6500880">
        <ele>35.2</ele>
        <time>2021-05-23T09:55:12Z</time>
      </trkpt>
      <trkpt lat="42.7207700" lon="-8.6500890">
        <ele>35.2</ele>
        <time>2021-05-23T09:55:13Z</time>
      </trkpt>
      <trkpt lat="42.7207680" lon="-8.6500860">
        <ele>35.2</ele>
        <time>2021-05-23T09:55:14Z</time>
      </trkpt>
      <trkpt lat="42.7207620" lon="-8.6500850">
        <ele>35.2</ele>
        <time>2021-05-23T09:55:15Z</time>
      </trkpt>
      <trkpt lat="42.7207640" lon="-8.6500860">
        <ele>35.2</ele>
        <time>2021-05-23T09:55:16Z</time>
      </trkpt>
      <trkpt lat="42.7207650" lon="-8.6500900">
        <ele>35.2</ele>
        <time>2021-05-23T09:55:17Z</time>
      </trkpt>
      <trkpt lat="42.7207630" lon="-8.6500940">
        <ele>35.2</ele>
        <time>2021-05-23T09:55:18Z</time>
      </trkpt>
      <trkpt lat="42.7207650" lon="-8.6500950">
        <ele>35.2</ele>
        <time>2021-05-23T09:55:19Z</time>
      </trkpt>
      <trkpt lat="42.7207680" lon="-8.6500960">
        <ele>35.2</ele>
        <time>2021-05-23T09:55:20Z</time>
      </trkpt>
      <trkpt lat="42.7207670" lon="-8.6500980">
        <ele>35.2</ele>
        <time>2021-05-23T09:55:21Z</time>
      </trkpt>
      <trkpt lat="42.7207660" lon="-8.6500980">
        <ele>35.2</ele>
        <time>2021-05-23T09:55:22Z</time>
      </trkpt>
      <trkpt lat="42.7207660" lon="-8.6500940">
        <ele>35.2</ele>
        <time>2021-05-23T09:55:23Z</time>
      </trkpt>
      <trkpt lat="42.7207630" lon="-8.6500740">
        <ele>35.2</ele>
        <time>2021-05-23T09:55:24Z</time>
      </trkpt>
      <trkpt lat="42.7207720" lon="-8.6500620">
        <ele>35.2</ele>
        <time>2021-05-23T09:55:25Z</time>
      </trkpt>
      <trkpt lat="42.7207740" lon="-8.6500590">
        <ele>35.2</ele>
        <time>2021-05-23T09:55:26Z</time>
      </trkpt>
      <trkpt lat="42.7207760" lon="-8.6500570">
        <ele>35.2</ele>
        <time>2021-05-23T09:55:27Z</time>
      </trkpt>
      <trkpt lat="42.7207800" lon="-8.6500520">
        <ele>35.2</ele>
        <time>2021-05-23T09:55:28Z</time>
      </trkpt>
      <trkpt lat="42.7207810" lon="-8.6500470">
        <ele>35.2</ele>
        <time>2021-05-23T09:55:29Z</time>
      </trkpt>
      <trkpt lat="42.7207800" lon="-8.6500470">
        <ele>35.2</ele>
        <time>2021-05-23T09:55:30Z</time>
      </trkpt>
      <trkpt lat="42.7207800" lon="-8.6500450">
        <ele>35.2</ele>
        <time>2021-05-23T09:55:31Z</time>
      </trkpt>
      <trkpt lat="42.7207880" lon="-8.6500440">
        <ele>35.2</ele>
        <time>2021-05-23T09:55:32Z</time>
      </trkpt>
      <trkpt lat="42.7207880" lon="-8.6500520">
        <ele>35.2</ele>
        <time>2021-05-23T09:55:33Z</time>
      </trkpt>
      <trkpt lat="42.7207930" lon="-8.6500530">
        <ele>35.2</ele>
        <time>2021-05-23T09:55:34Z</time>
      </trkpt>
      <trkpt lat="42.7207910" lon="-8.6500610">
        <ele>35.2</ele>
        <time>2021-05-23T09:55:35Z</time>
      </trkpt>
      <trkpt lat="42.7207890" lon="-8.6500650">
        <ele>35.2</ele>
        <time>2021-05-23T09:55:36Z</time>
      </trkpt>
      <trkpt lat="42.7207860" lon="-8.6500640">
        <ele>35.2</ele>
        <time>2021-05-23T09:55:37Z</time>
      </trkpt>
      <trkpt lat="42.7207850" lon="-8.6500670">
        <ele>35.1</ele>
        <time>2021-05-23T09:55:38Z</time>
      </trkpt>
      <trkpt lat="42.7207830" lon="-8.6500700">
        <ele>35.1</ele>
        <time>2021-05-23T09:55:39Z</time>
      </trkpt>
      <trkpt lat="42.7207700" lon="-8.6500840">
        <ele>35.1</ele>
        <time>2021-05-23T09:55:40Z</time>
      </trkpt>
      <trkpt lat="42.7207740" lon="-8.6500850">
        <ele>35.1</ele>
        <time>2021-05-23T09:55:41Z</time>
      </trkpt>
      <trkpt lat="42.7207750" lon="-8.6500930">
        <ele>35.1</ele>
        <time>2021-05-23T09:55:42Z</time>
      </trkpt>
      <trkpt lat="42.7207740" lon="-8.6500850">
        <ele>35.1</ele>
        <time>2021-05-23T09:55:43Z</time>
      </trkpt>
      <trkpt lat="42.7207810" lon="-8.6500920">
        <ele>35.1</ele>
        <time>2021-05-23T09:55:44Z</time>
      </trkpt>
      <trkpt lat="42.7207810" lon="-8.6500910">
        <ele>35.1</ele>
        <time>2021-05-23T09:55:45Z</time>
      </trkpt>
      <trkpt lat="42.7207890" lon="-8.6501000">
        <ele>35.1</ele>
        <time>2021-05-23T09:55:46Z</time>
      </trkpt>
      <trkpt lat="42.7207880" lon="-8.6500990">
        <ele>35.1</ele>
        <time>2021-05-23T09:55:47Z</time>
      </trkpt>
      <trkpt lat="42.7207930" lon="-8.6501010">
        <ele>35.1</ele>
        <time>2021-05-23T09:55:48Z</time>
      </trkpt>
      <trkpt lat="42.7207920" lon="-8.6501000">
        <ele>35.1</ele>
        <time>2021-05-23T09:55:49Z</time>
      </trkpt>
      <trkpt lat="42.7207940" lon="-8.6500940">
        <ele>35.1</ele>
        <time>2021-05-23T09:55:50Z</time>
      </trkpt>
      <trkpt lat="42.7207920" lon="-8.6500970">
        <ele>35.1</ele>
        <time>2021-05-23T09:55:51Z</time>
      </trkpt>
      <trkpt lat="42.7207920" lon="-8.6501010">
        <ele>35.1</ele>
        <time>2021-05-23T09:55:52Z</time>
      </trkpt>
      <trkpt lat="42.7207900" lon="-8.6501010">
        <ele>35.1</ele>
        <time>2021-05-23T09:55:53Z</time>
      </trkpt>
      <trkpt lat="42.7207920" lon="-8.6501010">
        <ele>35.1</ele>
        <time>2021-05-23T09:55:54Z</time>
      </trkpt>
      <trkpt lat="42.7207900" lon="-8.6501000">
        <ele>35.1</ele>
        <time>2021-05-23T09:55:55Z</time>
      </trkpt>
      <trkpt lat="42.7207920" lon="-8.6500900">
        <ele>35.1</ele>
        <time>2021-05-23T09:55:56Z</time>
      </trkpt>
      <trkpt lat="42.7207950" lon="-8.6500840">
        <ele>35.1</ele>
        <time>2021-05-23T09:55:57Z</time>
      </trkpt>
      <trkpt lat="42.7207950" lon="-8.6500840">
        <ele>35.1</ele>
        <time>2021-05-23T09:55:58Z</time>
      </trkpt>
      <trkpt lat="42.7207940" lon="-8.6500820">
        <ele>35.1</ele>
        <time>2021-05-23T09:55:59Z</time>
      </trkpt>
      <trkpt lat="42.7207970" lon="-8.6500730">
        <ele>35.1</ele>
        <time>2021-05-23T09:56:00Z</time>
      </trkpt>
      <trkpt lat="42.7207970" lon="-8.6500750">
        <ele>35.1</ele>
        <time>2021-05-23T09:56:01Z</time>
      </trkpt>
      <trkpt lat="42.7207990" lon="-8.6500710">
        <ele>35.1</ele>
        <time>2021-05-23T09:56:02Z</time>
      </trkpt>
      <trkpt lat="42.7208000" lon="-8.6500700">
        <ele>35.1</ele>
        <time>2021-05-23T09:56:03Z</time>
      </trkpt>
      <trkpt lat="42.7207990" lon="-8.6500700">
        <ele>35.1</ele>
        <time>2021-05-23T09:56:04Z</time>
      </trkpt>
      <trkpt lat="42.7207920" lon="-8.6500660">
        <ele>35.1</ele>
        <time>2021-05-23T09:56:05Z</time>
      </trkpt>
      <trkpt lat="42.7207880" lon="-8.6500630">
        <ele>35.1</ele>
        <time>2021-05-23T09:56:06Z</time>
      </trkpt>
      <trkpt lat="42.7207900" lon="-8.6500580">
        <ele>35.1</ele>
        <time>2021-05-23T09:56:07Z</time>
      </trkpt>
      <trkpt lat="42.7207920" lon="-8.6500600">
        <ele>35.0</ele>
        <time>2021-05-23T09:56:08Z</time>
      </trkpt>
      <trkpt lat="42.7207930" lon="-8.6500600">
        <ele>35.0</ele>
        <time>2021-05-23T09:56:09Z</time>
      </trkpt>
      <trkpt lat="42.7207920" lon="-8.6500560">
        <ele>35.0</ele>
        <time>2021-05-23T09:56:10Z</time>
      </trkpt>
      <trkpt lat="42.7207920" lon="-8.6500560">
        <ele>35.0</ele>
        <time>2021-05-23T09:56:11Z</time>
      </trkpt>
      <trkpt lat="42.7207900" lon="-8.6500590">
        <ele>35.0</ele>
        <time>2021-05-23T09:56:12Z</time>
      </trkpt>
      <trkpt lat="42.7207920" lon="-8.6500610">
        <ele>35.0</ele>
        <time>2021-05-23T09:56:13Z</time>
      </trkpt>
      <trkpt lat="42.7207910" lon="-8.6500620">
        <ele>35.0</ele>
        <time>2021-05-23T09:56:14Z</time>
      </trkpt>
      <trkpt lat="42.7207900" lon="-8.6500630">
        <ele>35.0</ele>
        <time>2021-05-23T09:56:15Z</time>
      </trkpt>
      <trkpt lat="42.7207920" lon="-8.6500660">
        <ele>35.0</ele>
        <time>2021-05-23T09:56:16Z</time>
      </trkpt>
      <trkpt lat="42.7207930" lon="-8.6500640">
        <ele>35.0</ele>
        <time>2021-05-23T09:56:17Z</time>
      </trkpt>
      <trkpt lat="42.7207930" lon="-8.6500690">
        <ele>35.0</ele>
        <time>2021-05-23T09:56:18Z</time>
      </trkpt>
      <trkpt lat="42.7207960" lon="-8.6500740">
        <ele>35.0</ele>
        <time>2021-05-23T09:56:19Z</time>
      </trkpt>
      <trkpt lat="42.7208010" lon="-8.6500740">
        <ele>35.0</ele>
        <time>2021-05-23T09:56:20Z</time>
      </trkpt>
      <trkpt lat="42.7208040" lon="-8.6500780">
        <ele>35.0</ele>
        <time>2021-05-23T09:56:21Z</time>
      </trkpt>
      <trkpt lat="42.7208060" lon="-8.6500790">
        <ele>35.0</ele>
        <time>2021-05-23T09:56:22Z</time>
      </trkpt>
      <trkpt lat="42.7208090" lon="-8.6500840">
        <ele>35.0</ele>
        <time>2021-05-23T09:56:23Z</time>
      </trkpt>
      <trkpt lat="42.7208140" lon="-8.6500760">
        <ele>35.0</ele>
        <time>2021-05-23T09:56:24Z</time>
      </trkpt>
      <trkpt lat="42.7208170" lon="-8.6500740">
        <ele>35.0</ele>
        <time>2021-05-23T09:56:25Z</time>
      </trkpt>
      <trkpt lat="42.7208200" lon="-8.6500740">
        <ele>35.0</ele>
        <time>2021-05-23T09:56:26Z</time>
      </trkpt>
      <trkpt lat="42.7208190" lon="-8.6500710">
        <ele>35.0</ele>
        <time>2021-05-23T09:56:27Z</time>
      </trkpt>
      <trkpt lat="42.7208170" lon="-8.6500690">
        <ele>35.0</ele>
        <time>2021-05-23T09:56:28Z</time>
      </trkpt>
      <trkpt lat="42.7208190" lon="-8.6500660">
        <ele>35.0</ele>
        <time>2021-05-23T09:56:29Z</time>
      </trkpt>
      <trkpt lat="42.7208200" lon="-8.6500660">
        <ele>35.0</ele>
        <time>2021-05-23T09:56:30Z</time>
      </trkpt>
      <trkpt lat="42.7208300" lon="-8.6500670">
        <ele>35.0</ele>
        <time>2021-05-23T09:56:31Z</time>
      </trkpt>
      <trkpt lat="42.7208320" lon="-8.6500700">
        <ele>35.0</ele>
        <time>2021-05-23T09:56:32Z</time>
      </trkpt>
      <trkpt lat="42.7208330" lon="-8.6500700">
        <ele>35.0</ele>
        <time>2021-05-23T09:56:33Z</time>
      </trkpt>
      <trkpt lat="42.7208270" lon="-8.6500650">
        <ele>34.9</ele>
        <time>2021-05-23T09:56:34Z</time>
      </trkpt>
      <trkpt lat="42.7208290" lon="-8.6500630">
        <ele>34.9</ele>
        <time>2021-05-23T09:56:35Z</time>
      </trkpt>
      <trkpt lat="42.7208240" lon="-8.6500710">
        <ele>34.9</ele>
        <time>2021-05-23T09:56:36Z</time>
      </trkpt>
      <trkpt lat="42.7208220" lon="-8.6500720">
        <ele>34.9</ele>
        <time>2021-05-23T09:56:37Z</time>
      </trkpt>
      <trkpt lat="42.7208220" lon="-8.6500720">
        <ele>34.9</ele>
        <time>2021-05-23T09:56:38Z</time>
      </trkpt>
      <trkpt lat="42.7208230" lon="-8.6500750">
        <ele>34.9</ele>
        <time>2021-05-23T09:56:39Z</time>
      </trkpt>
      <trkpt lat="42.7208210" lon="-8.6500730">
        <ele>34.9</ele>
        <time>2021-05-23T09:56:40Z</time>
      </trkpt>
      <trkpt lat="42.7208180" lon="-8.6500750">
        <ele>34.9</ele>
        <time>2021-05-23T09:56:41Z</time>
      </trkpt>
      <trkpt lat="42.7208140" lon="-8.6500790">
        <ele>34.9</ele>
        <time>2021-05-23T09:56:42Z</time>
      </trkpt>
      <trkpt lat="42.7208140" lon="-8.6500780">
        <ele>34.9</ele>
        <time>2021-05-23T09:56:43Z</time>
      </trkpt>
      <trkpt lat="42.7208200" lon="-8.6500800">
        <ele>34.9</ele>
        <time>2021-05-23T09:56:44Z</time>
      </trkpt>
      <trkpt lat="42.7208250" lon="-8.6500820">
        <ele>34.9</ele>
        <time>2021-05-23T09:56:45Z</time>
      </trkpt>
      <trkpt lat="42.7208270" lon="-8.6500810">
        <ele>34.9</ele>
        <time>2021-05-23T09:56:46Z</time>
      </trkpt>
      <trkpt lat="42.7208240" lon="-8.6500800">
        <ele>34.9</ele>
        <time>2021-05-23T09:56:47Z</time>
      </trkpt>
      <trkpt lat="42.7208230" lon="-8.6500730">
        <ele>34.9</ele>
        <time>2021-05-23T09:56:48Z</time>
      </trkpt>
      <trkpt lat="42.7208200" lon="-8.6500780">
        <ele>34.9</ele>
        <time>2021-05-23T09:56:49Z</time>
      </trkpt>
      <trkpt lat="42.7208190" lon="-8.6500770">
        <ele>34.9</ele>
        <time>2021-05-23T09:56:50Z</time>
      </trkpt>
      <trkpt lat="42.7208200" lon="-8.6500760">
        <ele>34.9</ele>
        <time>2021-05-23T09:56:51Z</time>
      </trkpt>
      <trkpt lat="42.7208220" lon="-8.6500720">
        <ele>34.9</ele>
        <time>2021-05-23T09:56:52Z</time>
      </trkpt>
      <trkpt lat="42.7208220" lon="-8.6500750">
        <ele>34.9</ele>
        <time>2021-05-23T09:56:53Z</time>
      </trkpt>
      <trkpt lat="42.7208200" lon="-8.6500800">
        <ele>34.9</ele>
        <time>2021-05-23T09:56:54Z</time>
      </trkpt>
      <trkpt lat="42.7208120" lon="-8.6500680">
        <ele>34.8</ele>
        <time>2021-05-23T09:56:55Z</time>
      </trkpt>
      <trkpt lat="42.7208070" lon="-8.6500740">
        <ele>34.8</ele>
        <time>2021-05-23T09:56:57Z</time>
      </trkpt>
      <trkpt lat="42.7208090" lon="-8.6500790">
        <ele>34.8</ele>
        <time>2021-05-23T09:56:58Z</time>
      </trkpt>
      <trkpt lat="42.7208140" lon="-8.6500820">
        <ele>34.8</ele>
        <time>2021-05-23T09:56:59Z</time>
      </trkpt>
      <trkpt lat="42.7208210" lon="-8.6500830">
        <ele>34.8</ele>
        <time>2021-05-23T09:57:00Z</time>
      </trkpt>
      <trkpt lat="42.7208220" lon="-8.6500810">
        <ele>34.8</ele>
        <time>2021-05-23T09:57:01Z</time>
      </trkpt>
      <trkpt lat="42.7208210" lon="-8.6500760">
        <ele>34.8</ele>
        <time>2021-05-23T09:57:02Z</time>
      </trkpt>
      <trkpt lat="42.7208220" lon="-8.6500740">
        <ele>34.8</ele>
        <time>2021-05-23T09:57:03Z</time>
      </trkpt>
      <trkpt lat="42.7208150" lon="-8.6500740">
        <ele>34.8</ele>
        <time>2021-05-23T09:57:04Z</time>
      </trkpt>
      <trkpt lat="42.7208120" lon="-8.6500710">
        <ele>34.8</ele>
        <time>2021-05-23T09:57:05Z</time>
      </trkpt>
      <trkpt lat="42.7208090" lon="-8.6500730">
        <ele>34.8</ele>
        <time>2021-05-23T09:57:06Z</time>
      </trkpt>
      <trkpt lat="42.7208060" lon="-8.6500690">
        <ele>34.8</ele>
        <time>2021-05-23T09:57:07Z</time>
      </trkpt>
      <trkpt lat="42.7208020" lon="-8.6500660">
        <ele>34.8</ele>
        <time>2021-05-23T09:57:08Z</time>
      </trkpt>
      <trkpt lat="42.7207980" lon="-8.6500660">
        <ele>34.8</ele>
        <time>2021-05-23T09:57:09Z</time>
      </trkpt>
      <trkpt lat="42.7207920" lon="-8.6500610">
        <ele>34.8</ele>
        <time>2021-05-23T09:57:10Z</time>
      </trkpt>
      <trkpt lat="42.7207870" lon="-8.6500560">
        <ele>34.8</ele>
        <time>2021-05-23T09:57:11Z</time>
      </trkpt>
      <trkpt lat="42.7207830" lon="-8.6500490">
        <ele>34.7</ele>
        <time>2021-05-23T09:57:12Z</time>
      </trkpt>
      <trkpt lat="42.7207790" lon="-8.6500510">
        <ele>34.7</ele>
        <time>2021-05-23T09:57:13Z</time>
      </trkpt>
      <trkpt lat="42.7207770" lon="-8.6500480">
        <ele>34.7</ele>
        <time>2021-05-23T09:57:14Z</time>
      </trkpt>
      <trkpt lat="42.7207760" lon="-8.6500480">
        <ele>34.7</ele>
        <time>2021-05-23T09:57:15Z</time>
      </trkpt>
      <trkpt lat="42.7207750" lon="-8.6500470">
        <ele>34.7</ele>
        <time>2021-05-23T09:57:16Z</time>
      </trkpt>
      <trkpt lat="42.7207760" lon="-8.6500480">
        <ele>34.7</ele>
        <time>2021-05-23T09:57:17Z</time>
      </trkpt>
      <trkpt lat="42.7207730" lon="-8.6500430">
        <ele>34.7</ele>
        <time>2021-05-23T09:57:18Z</time>
      </trkpt>
      <trkpt lat="42.7207720" lon="-8.6500460">
        <ele>34.7</ele>
        <time>2021-05-23T09:57:19Z</time>
      </trkpt>
      <trkpt lat="42.7207700" lon="-8.6500420">
        <ele>34.7</ele>
        <time>2021-05-23T09:57:20Z</time>
      </trkpt>
      <trkpt lat="42.7207720" lon="-8.6500450">
        <ele>34.7</ele>
        <time>2021-05-23T09:57:21Z</time>
      </trkpt>
      <trkpt lat="42.7207720" lon="-8.6500430">
        <ele>34.7</ele>
        <time>2021-05-23T09:57:22Z</time>
      </trkpt>
      <trkpt lat="42.7207710" lon="-8.6500480">
        <ele>34.7</ele>
        <time>2021-05-23T09:57:23Z</time>
      </trkpt>
      <trkpt lat="42.7207740" lon="-8.6500520">
        <ele>34.7</ele>
        <time>2021-05-23T09:57:24Z</time>
      </trkpt>
      <trkpt lat="42.7207720" lon="-8.6500480">
        <ele>34.7</ele>
        <time>2021-05-23T09:57:25Z</time>
      </trkpt>
      <trkpt lat="42.7207730" lon="-8.6500500">
        <ele>34.7</ele>
        <time>2021-05-23T09:57:26Z</time>
      </trkpt>
      <trkpt lat="42.7207740" lon="-8.6500470">
        <ele>34.7</ele>
        <time>2021-05-23T09:57:27Z</time>
      </trkpt>
      <trkpt lat="42.7207730" lon="-8.6500470">
        <ele>34.7</ele>
        <time>2021-05-23T09:57:28Z</time>
      </trkpt>
      <trkpt lat="42.7207690" lon="-8.6500510">
        <ele>34.7</ele>
        <time>2021-05-23T09:57:29Z</time>
      </trkpt>
      <trkpt lat="42.7207670" lon="-8.6500540">
        <ele>34.7</ele>
        <time>2021-05-23T09:57:30Z</time>
      </trkpt>
      <trkpt lat="42.7207650" lon="-8.6500490">
        <ele>34.7</ele>
        <time>2021-05-23T09:57:31Z</time>
      </trkpt>
      <trkpt lat="42.7207630" lon="-8.6500460">
        <ele>34.7</ele>
        <time>2021-05-23T09:57:32Z</time>
      </trkpt>
      <trkpt lat="42.7207610" lon="-8.6500460">
        <ele>34.7</ele>
        <time>2021-05-23T09:57:33Z</time>
      </trkpt>
      <trkpt lat="42.7207620" lon="-8.6500520">
        <ele>34.7</ele>
        <time>2021-05-23T09:57:34Z</time>
      </trkpt>
      <trkpt lat="42.7207660" lon="-8.6500540">
        <ele>34.7</ele>
        <time>2021-05-23T09:57:35Z</time>
      </trkpt>
      <trkpt lat="42.7207660" lon="-8.6500540">
        <ele>34.7</ele>
        <time>2021-05-23T09:57:36Z</time>
      </trkpt>
      <trkpt lat="42.7207670" lon="-8.6500630">
        <ele>34.6</ele>
        <time>2021-05-23T09:57:37Z</time>
      </trkpt>
      <trkpt lat="42.7207670" lon="-8.6500730">
        <ele>34.6</ele>
        <time>2021-05-23T09:57:38Z</time>
      </trkpt>
      <trkpt lat="42.7207650" lon="-8.6500750">
        <ele>34.6</ele>
        <time>2021-05-23T09:57:39Z</time>
      </trkpt>
      <trkpt lat="42.7207620" lon="-8.6500770">
        <ele>34.6</ele>
        <time>2021-05-23T09:57:40Z</time>
      </trkpt>
      <trkpt lat="42.7207620" lon="-8.6500820">
        <ele>34.6</ele>
        <time>2021-05-23T09:57:41Z</time>
      </trkpt>
      <trkpt lat="42.7207570" lon="-8.6500870">
        <ele>34.6</ele>
        <time>2021-05-23T09:57:42Z</time>
      </trkpt>
      <trkpt lat="42.7207570" lon="-8.6500860">
        <ele>34.6</ele>
        <time>2021-05-23T09:57:43Z</time>
      </trkpt>
      <trkpt lat="42.7207560" lon="-8.6500870">
        <ele>34.6</ele>
        <time>2021-05-23T09:57:44Z</time>
      </trkpt>
      <trkpt lat="42.7207580" lon="-8.6500870">
        <ele>34.6</ele>
        <time>2021-05-23T09:57:45Z</time>
      </trkpt>
      <trkpt lat="42.7207590" lon="-8.6500940">
        <ele>34.6</ele>
        <time>2021-05-23T09:57:46Z</time>
      </trkpt>
      <trkpt lat="42.7207570" lon="-8.6501000">
        <ele>34.6</ele>
        <time>2021-05-23T09:57:47Z</time>
      </trkpt>
      <trkpt lat="42.7207580" lon="-8.6501060">
        <ele>34.6</ele>
        <time>2021-05-23T09:57:48Z</time>
      </trkpt>
      <trkpt lat="42.7207570" lon="-8.6501090">
        <ele>34.6</ele>
        <time>2021-05-23T09:57:49Z</time>
      </trkpt>
      <trkpt lat="42.7207560" lon="-8.6501100">
        <ele>34.6</ele>
        <time>2021-05-23T09:57:50Z</time>
      </trkpt>
      <trkpt lat="42.7207570" lon="-8.6501090">
        <ele>34.6</ele>
        <time>2021-05-23T09:57:51Z</time>
      </trkpt>
      <trkpt lat="42.7207580" lon="-8.6501040">
        <ele>34.6</ele>
        <time>2021-05-23T09:57:52Z</time>
      </trkpt>
      <trkpt lat="42.7207600" lon="-8.6501130">
        <ele>34.6</ele>
        <time>2021-05-23T09:57:53Z</time>
      </trkpt>
      <trkpt lat="42.7207570" lon="-8.6501150">
        <ele>34.6</ele>
        <time>2021-05-23T09:57:54Z</time>
      </trkpt>
      <trkpt lat="42.7207630" lon="-8.6501150">
        <ele>34.6</ele>
        <time>2021-05-23T09:57:55Z</time>
      </trkpt>
      <trkpt lat="42.7207660" lon="-8.6501170">
        <ele>34.6</ele>
        <time>2021-05-23T09:57:56Z</time>
      </trkpt>
      <trkpt lat="42.7207700" lon="-8.6501140">
        <ele>34.6</ele>
        <time>2021-05-23T09:57:57Z</time>
      </trkpt>
      <trkpt lat="42.7207720" lon="-8.6501050">
        <ele>34.6</ele>
        <time>2021-05-23T09:57:58Z</time>
      </trkpt>
      <trkpt lat="42.7207710" lon="-8.6501050">
        <ele>34.6</ele>
        <time>2021-05-23T09:57:59Z</time>
      </trkpt>
      <trkpt lat="42.7207760" lon="-8.6501040">
        <ele>34.6</ele>
        <time>2021-05-23T09:58:00Z</time>
      </trkpt>
      <trkpt lat="42.7207770" lon="-8.6501020">
        <ele>34.6</ele>
        <time>2021-05-23T09:58:01Z</time>
      </trkpt>
      <trkpt lat="42.7207740" lon="-8.6500990">
        <ele>34.5</ele>
        <time>2021-05-23T09:58:02Z</time>
      </trkpt>
      <trkpt lat="42.7207720" lon="-8.6501010">
        <ele>34.5</ele>
        <time>2021-05-23T09:58:03Z</time>
      </trkpt>
      <trkpt lat="42.7207720" lon="-8.6501020">
        <ele>34.5</ele>
        <time>2021-05-23T09:58:04Z</time>
      </trkpt>
      <trkpt lat="42.7207750" lon="-8.6500990">
        <ele>34.5</ele>
        <time>2021-05-23T09:58:05Z</time>
      </trkpt>
      <trkpt lat="42.7207760" lon="-8.6501020">
        <ele>34.5</ele>
        <time>2021-05-23T09:58:06Z</time>
      </trkpt>
      <trkpt lat="42.7207760" lon="-8.6501080">
        <ele>34.5</ele>
        <time>2021-05-23T09:58:07Z</time>
      </trkpt>
      <trkpt lat="42.7207760" lon="-8.6501080">
        <ele>34.5</ele>
        <time>2021-05-23T09:58:08Z</time>
      </trkpt>
      <trkpt lat="42.7207660" lon="-8.6501180">
        <ele>34.5</ele>
        <time>2021-05-23T09:58:09Z</time>
      </trkpt>
      <trkpt lat="42.7207670" lon="-8.6501160">
        <ele>34.5</ele>
        <time>2021-05-23T09:58:10Z</time>
      </trkpt>
      <trkpt lat="42.7207670" lon="-8.6501190">
        <ele>34.5</ele>
        <time>2021-05-23T09:58:11Z</time>
      </trkpt>
      <trkpt lat="42.7207710" lon="-8.6501320">
        <ele>34.5</ele>
        <time>2021-05-23T09:58:12Z</time>
      </trkpt>
      <trkpt lat="42.7207710" lon="-8.6501320">
        <ele>34.5</ele>
        <time>2021-05-23T09:58:13Z</time>
      </trkpt>
      <trkpt lat="42.7207710" lon="-8.6501330">
        <ele>34.5</ele>
        <time>2021-05-23T09:58:14Z</time>
      </trkpt>
      <trkpt lat="42.7207700" lon="-8.6501310">
        <ele>34.5</ele>
        <time>2021-05-23T09:58:15Z</time>
      </trkpt>
      <trkpt lat="42.7207700" lon="-8.6501270">
        <ele>34.5</ele>
        <time>2021-05-23T09:58:16Z</time>
      </trkpt>
      <trkpt lat="42.7207720" lon="-8.6501210">
        <ele>34.5</ele>
        <time>2021-05-23T09:58:17Z</time>
      </trkpt>
      <trkpt lat="42.7207750" lon="-8.6501180">
        <ele>34.5</ele>
        <time>2021-05-23T09:58:18Z</time>
      </trkpt>
      <trkpt lat="42.7207790" lon="-8.6501170">
        <ele>34.5</ele>
        <time>2021-05-23T09:58:19Z</time>
      </trkpt>
      <trkpt lat="42.7207790" lon="-8.6501150">
        <ele>34.5</ele>
        <time>2021-05-23T09:58:20Z</time>
      </trkpt>
      <trkpt lat="42.7207800" lon="-8.6501170">
        <ele>34.5</ele>
        <time>2021-05-23T09:58:21Z</time>
      </trkpt>
      <trkpt lat="42.7207810" lon="-8.6501170">
        <ele>34.5</ele>
        <time>2021-05-23T09:58:22Z</time>
      </trkpt>
      <trkpt lat="42.7207820" lon="-8.6501130">
        <ele>34.5</ele>
        <time>2021-05-23T09:58:23Z</time>
      </trkpt>
      <trkpt lat="42.7207840" lon="-8.6501140">
        <ele>34.5</ele>
        <time>2021-05-23T09:58:24Z</time>
      </trkpt>
      <trkpt lat="42.7207870" lon="-8.6501100">
        <ele>34.5</ele>
        <time>2021-05-23T09:58:25Z</time>
      </trkpt>
      <trkpt lat="42.7207860" lon="-8.6501040">
        <ele>34.5</ele>
        <time>2021-05-23T09:58:26Z</time>
      </trkpt>
      <trkpt lat="42.7207880" lon="-8.6501000">
        <ele>34.5</ele>
        <time>2021-05-23T09:58:27Z</time>
      </trkpt>
      <trkpt lat="42.7207880" lon="-8.6500960">
        <ele>34.5</ele>
        <time>2021-05-23T09:58:28Z</time>
      </trkpt>
      <trkpt lat="42.7207880" lon="-8.6500910">
        <ele>34.5</ele>
        <time>2021-05-23T09:58:29Z</time>
      </trkpt>
      <trkpt lat="42.7207870" lon="-8.6500920">
        <ele>34.5</ele>
        <time>2021-05-23T09:58:30Z</time>
      </trkpt>
      <trkpt lat="42.7207880" lon="-8.6500920">
        <ele>34.5</ele>
        <time>2021-05-23T09:58:31Z</time>
      </trkpt>
      <trkpt lat="42.7207890" lon="-8.6500970">
        <ele>34.5</ele>
        <time>2021-05-23T09:58:32Z</time>
      </trkpt>
      <trkpt lat="42.7207930" lon="-8.6501000">
        <ele>34.5</ele>
        <time>2021-05-23T09:58:33Z</time>
      </trkpt>
      <trkpt lat="42.7207940" lon="-8.6500960">
        <ele>34.5</ele>
        <time>2021-05-23T09:58:34Z</time>
      </trkpt>
      <trkpt lat="42.7207960" lon="-8.6500990">
        <ele>34.5</ele>
        <time>2021-05-23T09:58:35Z</time>
      </trkpt>
      <trkpt lat="42.7207900" lon="-8.6500970">
        <ele>34.5</ele>
        <time>2021-05-23T09:58:36Z</time>
      </trkpt>
      <trkpt lat="42.7207920" lon="-8.6500950">
        <ele>34.5</ele>
        <time>2021-05-23T09:58:37Z</time>
      </trkpt>
      <trkpt lat="42.7207930" lon="-8.6500910">
        <ele>34.5</ele>
        <time>2021-05-23T09:58:38Z</time>
      </trkpt>
      <trkpt lat="42.7207910" lon="-8.6500880">
        <ele>34.4</ele>
        <time>2021-05-23T09:58:39Z</time>
      </trkpt>
      <trkpt lat="42.7207900" lon="-8.6500830">
        <ele>34.4</ele>
        <time>2021-05-23T09:58:40Z</time>
      </trkpt>
      <trkpt lat="42.7207910" lon="-8.6500820">
        <ele>34.4</ele>
        <time>2021-05-23T09:58:41Z</time>
      </trkpt>
      <trkpt lat="42.7207870" lon="-8.6500820">
        <ele>34.4</ele>
        <time>2021-05-23T09:58:42Z</time>
      </trkpt>
      <trkpt lat="42.7207880" lon="-8.6500830">
        <ele>34.4</ele>
        <time>2021-05-23T09:58:43Z</time>
      </trkpt>
      <trkpt lat="42.7207890" lon="-8.6500830">
        <ele>34.4</ele>
        <time>2021-05-23T09:58:44Z</time>
      </trkpt>
      <trkpt lat="42.7207890" lon="-8.6500870">
        <ele>34.4</ele>
        <time>2021-05-23T09:58:45Z</time>
      </trkpt>
      <trkpt lat="42.7207910" lon="-8.6500860">
        <ele>34.4</ele>
        <time>2021-05-23T09:58:46Z</time>
      </trkpt>
      <trkpt lat="42.7207880" lon="-8.6500840">
        <ele>34.4</ele>
        <time>2021-05-23T09:58:47Z</time>
      </trkpt>
      <trkpt lat="42.7207860" lon="-8.6500850">
        <ele>34.4</ele>
        <time>2021-05-23T09:58:48Z</time>
      </trkpt>
      <trkpt lat="42.7207880" lon="-8.6500890">
        <ele>34.4</ele>
        <time>2021-05-23T09:58:49Z</time>
      </trkpt>
      <trkpt lat="42.7207880" lon="-8.6500900">
        <ele>34.4</ele>
        <time>2021-05-23T09:58:50Z</time>
      </trkpt>
      <trkpt lat="42.7207910" lon="-8.6501010">
        <ele>34.4</ele>
        <time>2021-05-23T09:58:51Z</time>
      </trkpt>
      <trkpt lat="42.7207930" lon="-8.6501010">
        <ele>34.4</ele>
        <time>2021-05-23T09:58:52Z</time>
      </trkpt>
      <trkpt lat="42.7208010" lon="-8.6501160">
        <ele>34.4</ele>
        <time>2021-05-23T09:58:53Z</time>
      </trkpt>
      <trkpt lat="42.7208110" lon="-8.6501210">
        <ele>34.4</ele>
        <time>2021-05-23T09:58:54Z</time>
      </trkpt>
      <trkpt lat="42.7208140" lon="-8.6501240">
        <ele>34.4</ele>
        <time>2021-05-23T09:58:55Z</time>
      </trkpt>
      <trkpt lat="42.7208180" lon="-8.6501250">
        <ele>34.4</ele>
        <time>2021-05-23T09:58:56Z</time>
      </trkpt>
      <trkpt lat="42.7208210" lon="-8.6501270">
        <ele>34.4</ele>
        <time>2021-05-23T09:58:57Z</time>
      </trkpt>
      <trkpt lat="42.7208160" lon="-8.6501270">
        <ele>34.4</ele>
        <time>2021-05-23T09:58:58Z</time>
      </trkpt>
      <trkpt lat="42.7208150" lon="-8.6501250">
        <ele>34.4</ele>
        <time>2021-05-23T09:58:59Z</time>
      </trkpt>
      <trkpt lat="42.7208170" lon="-8.6501270">
        <ele>34.4</ele>
        <time>2021-05-23T09:59:00Z</time>
      </trkpt>
      <trkpt lat="42.7208170" lon="-8.6501250">
        <ele>34.4</ele>
        <time>2021-05-23T09:59:01Z</time>
      </trkpt>
      <trkpt lat="42.7208160" lon="-8.6501250">
        <ele>34.4</ele>
        <time>2021-05-23T09:59:02Z</time>
      </trkpt>
      <trkpt lat="42.7208170" lon="-8.6501210">
        <ele>34.4</ele>
        <time>2021-05-23T09:59:03Z</time>
      </trkpt>
      <trkpt lat="42.7208150" lon="-8.6501170">
        <ele>34.4</ele>
        <time>2021-05-23T09:59:04Z</time>
      </trkpt>
      <trkpt lat="42.7208180" lon="-8.6501170">
        <ele>34.4</ele>
        <time>2021-05-23T09:59:05Z</time>
      </trkpt>
      <trkpt lat="42.7208180" lon="-8.6501140">
        <ele>34.4</ele>
        <time>2021-05-23T09:59:06Z</time>
      </trkpt>
      <trkpt lat="42.7208190" lon="-8.6501120">
        <ele>34.4</ele>
        <time>2021-05-23T09:59:07Z</time>
      </trkpt>
      <trkpt lat="42.7208230" lon="-8.6501120">
        <ele>34.4</ele>
        <time>2021-05-23T09:59:08Z</time>
      </trkpt>
      <trkpt lat="42.7208220" lon="-8.6501110">
        <ele>34.4</ele>
        <time>2021-05-23T09:59:09Z</time>
      </trkpt>
      <trkpt lat="42.7208200" lon="-8.6501100">
        <ele>34.4</ele>
        <time>2021-05-23T09:59:10Z</time>
      </trkpt>
      <trkpt lat="42.7208200" lon="-8.6501080">
        <ele>34.4</ele>
        <time>2021-05-23T09:59:11Z</time>
      </trkpt>
      <trkpt lat="42.7208190" lon="-8.6501080">
        <ele>34.4</ele>
        <time>2021-05-23T09:59:12Z</time>
      </trkpt>
      <trkpt lat="42.7208180" lon="-8.6501100">
        <ele>34.4</ele>
        <time>2021-05-23T09:59:13Z</time>
      </trkpt>
      <trkpt lat="42.7208160" lon="-8.6501080">
        <ele>34.4</ele>
        <time>2021-05-23T09:59:14Z</time>
      </trkpt>
      <trkpt lat="42.7208130" lon="-8.6501040">
        <ele>34.4</ele>
        <time>2021-05-23T09:59:15Z</time>
      </trkpt>
      <trkpt lat="42.7208120" lon="-8.6501050">
        <ele>34.4</ele>
        <time>2021-05-23T09:59:16Z</time>
      </trkpt>
      <trkpt lat="42.7208120" lon="-8.6501050">
        <ele>34.4</ele>
        <time>2021-05-23T09:59:17Z</time>
      </trkpt>
      <trkpt lat="42.7208120" lon="-8.6501050">
        <ele>34.4</ele>
        <time>2021-05-23T09:59:18Z</time>
      </trkpt>
      <trkpt lat="42.7208120" lon="-8.6501050">
        <ele>34.4</ele>
        <time>2021-05-23T09:59:19Z</time>
      </trkpt>
      <trkpt lat="42.7208010" lon="-8.6501010">
        <ele>34.4</ele>
        <time>2021-05-23T09:59:20Z</time>
      </trkpt>
      <trkpt lat="42.7208000" lon="-8.6501010">
        <ele>34.4</ele>
        <time>2021-05-23T09:59:21Z</time>
      </trkpt>
      <trkpt lat="42.7207980" lon="-8.6500980">
        <ele>34.4</ele>
        <time>2021-05-23T09:59:22Z</time>
      </trkpt>
      <trkpt lat="42.7207960" lon="-8.6500980">
        <ele>34.4</ele>
        <time>2021-05-23T09:59:23Z</time>
      </trkpt>
      <trkpt lat="42.7207980" lon="-8.6500980">
        <ele>34.4</ele>
        <time>2021-05-23T09:59:24Z</time>
      </trkpt>
      <trkpt lat="42.7207990" lon="-8.6501010">
        <ele>34.4</ele>
        <time>2021-05-23T09:59:25Z</time>
      </trkpt>
      <trkpt lat="42.7208030" lon="-8.6501030">
        <ele>34.4</ele>
        <time>2021-05-23T09:59:26Z</time>
      </trkpt>
      <trkpt lat="42.7208050" lon="-8.6501030">
        <ele>34.4</ele>
        <time>2021-05-23T09:59:28Z</time>
      </trkpt>
      <trkpt lat="42.7208090" lon="-8.6501050">
        <ele>34.4</ele>
        <time>2021-05-23T09:59:29Z</time>
      </trkpt>
      <trkpt lat="42.7208130" lon="-8.6501100">
        <ele>34.4</ele>
        <time>2021-05-23T09:59:30Z</time>
      </trkpt>
      <trkpt lat="42.7208140" lon="-8.6501080">
        <ele>34.4</ele>
        <time>2021-05-23T09:59:31Z</time>
      </trkpt>
      <trkpt lat="42.7208180" lon="-8.6501020">
        <ele>34.4</ele>
        <time>2021-05-23T09:59:32Z</time>
      </trkpt>
      <trkpt lat="42.7208220" lon="-8.6500930">
        <ele>34.4</ele>
        <time>2021-05-23T09:59:33Z</time>
      </trkpt>
      <trkpt lat="42.7208250" lon="-8.6500900">
        <ele>34.4</ele>
        <time>2021-05-23T09:59:34Z</time>
      </trkpt>
      <trkpt lat="42.7208180" lon="-8.6500840">
        <ele>34.4</ele>
        <time>2021-05-23T09:59:35Z</time>
      </trkpt>
      <trkpt lat="42.7208250" lon="-8.6500880">
        <ele>34.4</ele>
        <time>2021-05-23T09:59:36Z</time>
      </trkpt>
      <trkpt lat="42.7208250" lon="-8.6500940">
        <ele>34.4</ele>
        <time>2021-05-23T09:59:37Z</time>
      </trkpt>
      <trkpt lat="42.7208280" lon="-8.6501070">
        <ele>34.4</ele>
        <time>2021-05-23T09:59:38Z</time>
      </trkpt>
      <trkpt lat="42.7208310" lon="-8.6501100">
        <ele>34.4</ele>
        <time>2021-05-23T09:59:39Z</time>
      </trkpt>
      <trkpt lat="42.7208350" lon="-8.6501150">
        <ele>34.4</ele>
        <time>2021-05-23T09:59:40Z</time>
      </trkpt>
      <trkpt lat="42.7208360" lon="-8.6501270">
        <ele>34.4</ele>
        <time>2021-05-23T09:59:41Z</time>
      </trkpt>
      <trkpt lat="42.7208280" lon="-8.6501510">
        <ele>34.4</ele>
        <time>2021-05-23T09:59:42Z</time>
      </trkpt>
      <trkpt lat="42.7208280" lon="-8.6501680">
        <ele>34.4</ele>
        <time>2021-05-23T09:59:43Z</time>
      </trkpt>
      <trkpt lat="42.7208280" lon="-8.6501770">
        <ele>34.4</ele>
        <time>2021-05-23T09:59:44Z</time>
      </trkpt>
      <trkpt lat="42.7208300" lon="-8.6501820">
        <ele>34.4</ele>
        <time>2021-05-23T09:59:45Z</time>
      </trkpt>
      <trkpt lat="42.7208330" lon="-8.6501880">
        <ele>34.4</ele>
        <time>2021-05-23T09:59:46Z</time>
      </trkpt>
      <trkpt lat="42.7208380" lon="-8.6502040">
        <ele>34.4</ele>
        <time>2021-05-23T09:59:47Z</time>
      </trkpt>
      <trkpt lat="42.7208440" lon="-8.6502080">
        <ele>34.4</ele>
        <time>2021-05-23T09:59:48Z</time>
      </trkpt>
      <trkpt lat="42.7208480" lon="-8.6502150">
        <ele>34.4</ele>
        <time>2021-05-23T09:59:49Z</time>
      </trkpt>
      <trkpt lat="42.7208490" lon="-8.6501990">
        <ele>34.4</ele>
        <time>2021-05-23T09:59:50Z</time>
      </trkpt>
      <trkpt lat="42.7208470" lon="-8.6501890">
        <ele>34.4</ele>
        <time>2021-05-23T09:59:51Z</time>
      </trkpt>
      <trkpt lat="42.7208470" lon="-8.6501830">
        <ele>34.4</ele>
        <time>2021-05-23T09:59:52Z</time>
      </trkpt>
      <trkpt lat="42.7208510" lon="-8.6501760">
        <ele>34.4</ele>
        <time>2021-05-23T09:59:53Z</time>
      </trkpt>
      <trkpt lat="42.7208540" lon="-8.6501780">
        <ele>34.4</ele>
        <time>2021-05-23T09:59:54Z</time>
      </trkpt>
      <trkpt lat="42.7208630" lon="-8.6501800">
        <ele>34.5</ele>
        <time>2021-05-23T09:59:55Z</time>
      </trkpt>
      <trkpt lat="42.7208810" lon="-8.6501900">
        <ele>34.5</ele>
        <time>2021-05-23T09:59:56Z</time>
      </trkpt>
      <trkpt lat="42.7208870" lon="-8.6501950">
        <ele>34.5</ele>
        <time>2021-05-23T09:59:57Z</time>
      </trkpt>
      <trkpt lat="42.7208920" lon="-8.6502000">
        <ele>34.5</ele>
        <time>2021-05-23T09:59:58Z</time>
      </trkpt>
      <trkpt lat="42.7208970" lon="-8.6502050">
        <ele>34.5</ele>
        <time>2021-05-23T09:59:59Z</time>
      </trkpt>
      <trkpt lat="42.7209020" lon="-8.6502040">
        <ele>34.5</ele>
        <time>2021-05-23T10:00:00Z</time>
      </trkpt>
      <trkpt lat="42.7209140" lon="-8.6502090">
        <ele>34.5</ele>
        <time>2021-05-23T10:00:01Z</time>
      </trkpt>
      <trkpt lat="42.7209200" lon="-8.6502080">
        <ele>34.5</ele>
        <time>2021-05-23T10:00:02Z</time>
      </trkpt>
      <trkpt lat="42.7209320" lon="-8.6502080">
        <ele>34.5</ele>
        <time>2021-05-23T10:00:03Z</time>
      </trkpt>
      <trkpt lat="42.7209430" lon="-8.6502010">
        <ele>34.5</ele>
        <time>2021-05-23T10:00:04Z</time>
      </trkpt>
      <trkpt lat="42.7209510" lon="-8.6502040">
        <ele>34.6</ele>
        <time>2021-05-23T10:00:05Z</time>
      </trkpt>
      <trkpt lat="42.7209640" lon="-8.6502050">
        <ele>34.6</ele>
        <time>2021-05-23T10:00:06Z</time>
      </trkpt>
      <trkpt lat="42.7209750" lon="-8.6502020">
        <ele>34.6</ele>
        <time>2021-05-23T10:00:07Z</time>
      </trkpt>
      <trkpt lat="42.7209860" lon="-8.6501980">
        <ele>34.6</ele>
        <time>2021-05-23T10:00:08Z</time>
      </trkpt>
      <trkpt lat="42.7209900" lon="-8.6502020">
        <ele>34.6</ele>
        <time>2021-05-23T10:00:09Z</time>
      </trkpt>
      <trkpt lat="42.7209980" lon="-8.6502050">
        <ele>34.6</ele>
        <time>2021-05-23T10:00:10Z</time>
      </trkpt>
      <trkpt lat="42.7210190" lon="-8.6502040">
        <ele>34.7</ele>
        <time>2021-05-23T10:00:11Z</time>
      </trkpt>
      <trkpt lat="42.7210270" lon="-8.6502060">
        <ele>34.7</ele>
        <time>2021-05-23T10:00:12Z</time>
      </trkpt>
      <trkpt lat="42.7210360" lon="-8.6502070">
        <ele>34.7</ele>
        <time>2021-05-23T10:00:13Z</time>
      </trkpt>
      <trkpt lat="42.7210530" lon="-8.6502040">
        <ele>34.7</ele>
        <time>2021-05-23T10:00:14Z</time>
      </trkpt>
      <trkpt lat="42.7210630" lon="-8.6502000">
        <ele>34.8</ele>
        <time>2021-05-23T10:00:15Z</time>
      </trkpt>
      <trkpt lat="42.7210710" lon="-8.6501960">
        <ele>34.8</ele>
        <time>2021-05-23T10:00:16Z</time>
      </trkpt>
      <trkpt lat="42.7210800" lon="-8.6501890">
        <ele>34.8</ele>
        <time>2021-05-23T10:00:17Z</time>
      </trkpt>
      <trkpt lat="42.7210980" lon="-8.6501900">
        <ele>34.8</ele>
        <time>2021-05-23T10:00:18Z</time>
      </trkpt>
      <trkpt lat="42.7211070" lon="-8.6501860">
        <ele>34.9</ele>
        <time>2021-05-23T10:00:19Z</time>
      </trkpt>
      <trkpt lat="42.7211190" lon="-8.6501780">
        <ele>34.9</ele>
        <time>2021-05-23T10:00:20Z</time>
      </trkpt>
      <trkpt lat="42.7211280" lon="-8.6501760">
        <ele>34.9</ele>
        <time>2021-05-23T10:00:21Z</time>
      </trkpt>
      <trkpt lat="42.7211390" lon="-8.6501700">
        <ele>34.9</ele>
        <time>2021-05-23T10:00:22Z</time>
      </trkpt>
      <trkpt lat="42.7211550" lon="-8.6501620">
        <ele>35.0</ele>
        <time>2021-05-23T10:00:23Z</time>
      </trkpt>
      <trkpt lat="42.7211640" lon="-8.6501550">
        <ele>35.0</ele>
        <time>2021-05-23T10:00:24Z</time>
      </trkpt>
      <trkpt lat="42.7211690" lon="-8.6501480">
        <ele>35.0</ele>
        <time>2021-05-23T10:00:25Z</time>
      </trkpt>
      <trkpt lat="42.7211750" lon="-8.6501480">
        <ele>35.1</ele>
        <time>2021-05-23T10:00:26Z</time>
      </trkpt>
      <trkpt lat="42.7211860" lon="-8.6501400">
        <ele>35.1</ele>
        <time>2021-05-23T10:00:27Z</time>
      </trkpt>
      <trkpt lat="42.7212040" lon="-8.6501330">
        <ele>35.1</ele>
        <time>2021-05-23T10:00:28Z</time>
      </trkpt>
      <trkpt lat="42.7212130" lon="-8.6501290">
        <ele>35.2</ele>
        <time>2021-05-23T10:00:29Z</time>
      </trkpt>
      <trkpt lat="42.7212220" lon="-8.6501240">
        <ele>35.2</ele>
        <time>2021-05-23T10:00:30Z</time>
      </trkpt>
      <trkpt lat="42.7212350" lon="-8.6501180">
        <ele>35.2</ele>
        <time>2021-05-23T10:00:31Z</time>
      </trkpt>
      <trkpt lat="42.7212500" lon="-8.6501150">
        <ele>35.3</ele>
        <time>2021-05-23T10:00:32Z</time>
      </trkpt>
      <trkpt lat="42.7212590" lon="-8.6501080">
        <ele>35.3</ele>
        <time>2021-05-23T10:00:33Z</time>
      </trkpt>
      <trkpt lat="42.7212760" lon="-8.6501060">
        <ele>35.3</ele>
        <time>2021-05-23T10:00:34Z</time>
      </trkpt>
      <trkpt lat="42.7212850" lon="-8.6501050">
        <ele>35.4</ele>
        <time>2021-05-23T10:00:35Z</time>
      </trkpt>
      <trkpt lat="42.7212950" lon="-8.6501000">
        <ele>35.4</ele>
        <time>2021-05-23T10:00:36Z</time>
      </trkpt>
      <trkpt lat="42.7213080" lon="-8.6500920">
        <ele>35.4</ele>
        <time>2021-05-23T10:00:37Z</time>
      </trkpt>
      <trkpt lat="42.7213180" lon="-8.6500920">
        <ele>35.5</ele>
        <time>2021-05-23T10:00:38Z</time>
      </trkpt>
      <trkpt lat="42.7213290" lon="-8.6500850">
        <ele>35.5</ele>
        <time>2021-05-23T10:00:39Z</time>
      </trkpt>
      <trkpt lat="42.7213400" lon="-8.6500810">
        <ele>35.5</ele>
        <time>2021-05-23T10:00:40Z</time>
      </trkpt>
      <trkpt lat="42.7213570" lon="-8.6500750">
        <ele>35.6</ele>
        <time>2021-05-23T10:00:41Z</time>
      </trkpt>
      <trkpt lat="42.7213650" lon="-8.6500730">
        <ele>35.6</ele>
        <time>2021-05-23T10:00:42Z</time>
      </trkpt>
      <trkpt lat="42.7213720" lon="-8.6500720">
        <ele>35.6</ele>
        <time>2021-05-23T10:00:43Z</time>
      </trkpt>
      <trkpt lat="42.7213800" lon="-8.6500700">
        <ele>35.7</ele>
        <time>2021-05-23T10:00:44Z</time>
      </trkpt>
      <trkpt lat="42.7213930" lon="-8.6500670">
        <ele>35.7</ele>
        <time>2021-05-23T10:00:45Z</time>
      </trkpt>
      <trkpt lat="42.7214020" lon="-8.6500630">
        <ele>35.7</ele>
        <time>2021-05-23T10:00:46Z</time>
      </trkpt>
      <trkpt lat="42.7214130" lon="-8.6500620">
        <ele>35.7</ele>
        <time>2021-05-23T10:00:47Z</time>
      </trkpt>
      <trkpt lat="42.7214320" lon="-8.6500530">
        <ele>35.8</ele>
        <time>2021-05-23T10:00:48Z</time>
      </trkpt>
      <trkpt lat="42.7214400" lon="-8.6500490">
        <ele>35.8</ele>
        <time>2021-05-23T10:00:49Z</time>
      </trkpt>
      <trkpt lat="42.7214480" lon="-8.6500460">
        <ele>35.9</ele>
        <time>2021-05-23T10:00:50Z</time>
      </trkpt>
      <trkpt lat="42.7214550" lon="-8.6500360">
        <ele>35.9</ele>
        <time>2021-05-23T10:00:51Z</time>
      </trkpt>
      <trkpt lat="42.7214610" lon="-8.6500340">
        <ele>35.9</ele>
        <time>2021-05-23T10:00:52Z</time>
      </trkpt>
      <trkpt lat="42.7214760" lon="-8.6500310">
        <ele>35.9</ele>
        <time>2021-05-23T10:00:53Z</time>
      </trkpt>
      <trkpt lat="42.7214980" lon="-8.6500150">
        <ele>36.0</ele>
        <time>2021-05-23T10:00:54Z</time>
      </trkpt>
      <trkpt lat="42.7215060" lon="-8.6500100">
        <ele>36.0</ele>
        <time>2021-05-23T10:00:55Z</time>
      </trkpt>
      <trkpt lat="42.7215150" lon="-8.6500050">
        <ele>36.1</ele>
        <time>2021-05-23T10:00:56Z</time>
      </trkpt>
      <trkpt lat="42.7215350" lon="-8.6499980">
        <ele>36.1</ele>
        <time>2021-05-23T10:00:57Z</time>
      </trkpt>
      <trkpt lat="42.7215440" lon="-8.6499970">
        <ele>36.1</ele>
        <time>2021-05-23T10:00:58Z</time>
      </trkpt>
      <trkpt lat="42.7215520" lon="-8.6499970">
        <ele>36.2</ele>
        <time>2021-05-23T10:00:59Z</time>
      </trkpt>
      <trkpt lat="42.7215650" lon="-8.6499950">
        <ele>36.2</ele>
        <time>2021-05-23T10:01:00Z</time>
      </trkpt>
      <trkpt lat="42.7215680" lon="-8.6499910">
        <ele>36.2</ele>
        <time>2021-05-23T10:01:01Z</time>
      </trkpt>
      <trkpt lat="42.7215790" lon="-8.6499860">
        <ele>36.2</ele>
        <time>2021-05-23T10:01:02Z</time>
      </trkpt>
      <trkpt lat="42.7215980" lon="-8.6499780">
        <ele>36.3</ele>
        <time>2021-05-23T10:01:03Z</time>
      </trkpt>
      <trkpt lat="42.7216060" lon="-8.6499700">
        <ele>36.3</ele>
        <time>2021-05-23T10:01:04Z</time>
      </trkpt>
      <trkpt lat="42.7216140" lon="-8.6499620">
        <ele>36.3</ele>
        <time>2021-05-23T10:01:05Z</time>
      </trkpt>
      <trkpt lat="42.7216300" lon="-8.6499580">
        <ele>36.4</ele>
        <time>2021-05-23T10:01:07Z</time>
      </trkpt>
      <trkpt lat="42.7216440" lon="-8.6499490">
        <ele>36.4</ele>
        <time>2021-05-23T10:01:08Z</time>
      </trkpt>
      <trkpt lat="42.7216620" lon="-8.6499460">
        <ele>36.4</ele>
        <time>2021-05-23T10:01:09Z</time>
      </trkpt>
      <trkpt lat="42.7216730" lon="-8.6499440">
        <ele>36.4</ele>
        <time>2021-05-23T10:01:10Z</time>
      </trkpt>
      <trkpt lat="42.7216830" lon="-8.6499410">
        <ele>36.5</ele>
        <time>2021-05-23T10:01:11Z</time>
      </trkpt>
      <trkpt lat="42.7216890" lon="-8.6499380">
        <ele>36.5</ele>
        <time>2021-05-23T10:01:12Z</time>
      </trkpt>
      <trkpt lat="42.7217080" lon="-8.6499280">
        <ele>36.5</ele>
        <time>2021-05-23T10:01:13Z</time>
      </trkpt>
      <trkpt lat="42.7217150" lon="-8.6499250">
        <ele>36.5</ele>
        <time>2021-05-23T10:01:14Z</time>
      </trkpt>
      <trkpt lat="42.7217310" lon="-8.6499240">
        <ele>36.5</ele>
        <time>2021-05-23T10:01:15Z</time>
      </trkpt>
      <trkpt lat="42.7217400" lon="-8.6499150">
        <ele>36.6</ele>
        <time>2021-05-23T10:01:16Z</time>
      </trkpt>
      <trkpt lat="42.7217460" lon="-8.6499140">
        <ele>36.6</ele>
        <time>2021-05-23T10:01:17Z</time>
      </trkpt>
      <trkpt lat="42.7217540" lon="-8.6499150">
        <ele>36.6</ele>
        <time>2021-05-23T10:01:18Z</time>
      </trkpt>
      <trkpt lat="42.7217600" lon="-8.6499110">
        <ele>36.6</ele>
        <time>2021-05-23T10:01:19Z</time>
      </trkpt>
      <trkpt lat="42.7217670" lon="-8.6499050">
        <ele>36.6</ele>
        <time>2021-05-23T10:01:20Z</time>
      </trkpt>
      <trkpt lat="42.7217750" lon="-8.6498980">
        <ele>36.6</ele>
        <time>2021-05-23T10:01:21Z</time>
      </trkpt>
      <trkpt lat="42.7217860" lon="-8.6498840">
        <ele>36.7</ele>
        <time>2021-05-23T10:01:22Z</time>
      </trkpt>
      <trkpt lat="42.7217950" lon="-8.6498720">
        <ele>36.7</ele>
        <time>2021-05-23T10:01:23Z</time>
      </trkpt>
      <trkpt lat="42.7218160" lon="-8.6498680">
        <ele>36.7</ele>
        <time>2021-05-23T10:01:24Z</time>
      </trkpt>
      <trkpt lat="42.7218250" lon="-8.6498670">
        <ele>36.7</ele>
        <time>2021-05-23T10:01:25Z</time>
      </trkpt>
      <trkpt lat="42.7218350" lon="-8.6498650">
        <ele>36.7</ele>
        <time>2021-05-23T10:01:26Z</time>
      </trkpt>
      <trkpt lat="42.7218510" lon="-8.6498560">
        <ele>36.8</ele>
        <time>2021-05-23T10:01:27Z</time>
      </trkpt>
      <trkpt lat="42.7218630" lon="-8.6498490">
        <ele>36.8</ele>
        <time>2021-05-23T10:01:28Z</time>
      </trkpt>
      <trkpt lat="42.7218730" lon="-8.6498380">
        <ele>36.8</ele>
        <time>2021-05-23T10:01:29Z</time>
      </trkpt>
      <trkpt lat="42.7218860" lon="-8.6498400">
        <ele>36.8</ele>
        <time>2021-05-23T10:01:30Z</time>
      </trkpt>
      <trkpt lat="42.7218970" lon="-8.6498370">
        <ele>36.8</ele>
        <time>2021-05-23T10:01:31Z</time>
      </trkpt>
      <trkpt lat="42.7219180" lon="-8.6498290">
        <ele>36.9</ele>
        <time>2021-05-23T10:01:32Z</time>
      </trkpt>
      <trkpt lat="42.7219270" lon="-8.6498270">
        <ele>36.9</ele>
        <time>2021-05-23T10:01:33Z</time>
      </trkpt>
      <trkpt lat="42.7219350" lon="-8.6498240">
        <ele>36.9</ele>
        <time>2021-05-23T10:01:34Z</time>
      </trkpt>
      <trkpt lat="42.7219460" lon="-8.6498250">
        <ele>36.9</ele>
        <time>2021-05-23T10:01:35Z</time>
      </trkpt>
      <trkpt lat="42.7219660" lon="-8.6498200">
        <ele>36.9</ele>
        <time>2021-05-23T10:01:36Z</time>
      </trkpt>
      <trkpt lat="42.7219740" lon="-8.6498110">
        <ele>37.0</ele>
        <time>2021-05-23T10:01:37Z</time>
      </trkpt>
      <trkpt lat="42.7219870" lon="-8.6498160">
        <ele>37.0</ele>
        <time>2021-05-23T10:01:38Z</time>
      </trkpt>
      <trkpt lat="42.7219980" lon="-8.6498160">
        <ele>37.0</ele>
        <time>2021-05-23T10:01:39Z</time>
      </trkpt>
      <trkpt lat="42.7220140" lon="-8.6498140">
        <ele>37.0</ele>
        <time>2021-05-23T10:01:40Z</time>
      </trkpt>
      <trkpt lat="42.7220220" lon="-8.6498160">
        <ele>37.0</ele>
        <time>2021-05-23T10:01:41Z</time>
      </trkpt>
      <trkpt lat="42.7220340" lon="-8.6498170">
        <ele>37.0</ele>
        <time>2021-05-23T10:01:42Z</time>
      </trkpt>
      <trkpt lat="42.7220480" lon="-8.6498130">
        <ele>37.1</ele>
        <time>2021-05-23T10:01:43Z</time>
      </trkpt>
      <trkpt lat="42.7220570" lon="-8.6498130">
        <ele>37.1</ele>
        <time>2021-05-23T10:01:44Z</time>
      </trkpt>
      <trkpt lat="42.7220660" lon="-8.6498120">
        <ele>37.1</ele>
        <time>2021-05-23T10:01:45Z</time>
      </trkpt>
      <trkpt lat="42.7220750" lon="-8.6498120">
        <ele>37.1</ele>
        <time>2021-05-23T10:01:46Z</time>
      </trkpt>
      <trkpt lat="42.7220880" lon="-8.6498160">
        <ele>37.1</ele>
        <time>2021-05-23T10:01:47Z</time>
      </trkpt>
      <trkpt lat="42.7221030" lon="-8.6498230">
        <ele>37.1</ele>
        <time>2021-05-23T10:01:48Z</time>
      </trkpt>
      <trkpt lat="42.7221210" lon="-8.6498330">
        <ele>37.2</ele>
        <time>2021-05-23T10:01:49Z</time>
      </trkpt>
      <trkpt lat="42.7221340" lon="-8.6498380">
        <ele>37.2</ele>
        <time>2021-05-23T10:01:50Z</time>
      </trkpt>
      <trkpt lat="42.7221460" lon="-8.6498430">
        <ele>37.2</ele>
        <time>2021-05-23T10:01:51Z</time>
      </trkpt>
      <trkpt lat="42.7221630" lon="-8.6498520">
        <ele>37.2</ele>
        <time>2021-05-23T10:01:52Z</time>
      </trkpt>
      <trkpt lat="42.7221710" lon="-8.6498600">
        <ele>37.2</ele>
        <time>2021-05-23T10:01:53Z</time>
      </trkpt>
      <trkpt lat="42.7221750" lon="-8.6498700">
        <ele>37.2</ele>
        <time>2021-05-23T10:01:54Z</time>
      </trkpt>
      <trkpt lat="42.7221740" lon="-8.6498740">
        <ele>37.2</ele>
        <time>2021-05-23T10:01:55Z</time>
      </trkpt>
      <trkpt lat="42.7221720" lon="-8.6498770">
        <ele>37.2</ele>
        <time>2021-05-23T10:01:56Z</time>
      </trkpt>
      <trkpt lat="42.7221710" lon="-8.6498800">
        <ele>37.2</ele>
        <time>2021-05-23T10:01:57Z</time>
      </trkpt>
      <trkpt lat="42.7221740" lon="-8.6498780">
        <ele>37.2</ele>
        <time>2021-05-23T10:01:58Z</time>
      </trkpt>
      <trkpt lat="42.7221800" lon="-8.6498810">
        <ele>37.2</ele>
        <time>2021-05-23T10:01:59Z</time>
      </trkpt>
      <trkpt lat="42.7221840" lon="-8.6498710">
        <ele>37.2</ele>
        <time>2021-05-23T10:02:00Z</time>
      </trkpt>
      <trkpt lat="42.7221890" lon="-8.6498670">
        <ele>37.2</ele>
        <time>2021-05-23T10:02:01Z</time>
      </trkpt>
      <trkpt lat="42.7221940" lon="-8.6498640">
        <ele>37.2</ele>
        <time>2021-05-23T10:02:02Z</time>
      </trkpt>
      <trkpt lat="42.7222000" lon="-8.6498600">
        <ele>37.2</ele>
        <time>2021-05-23T10:02:03Z</time>
      </trkpt>
      <trkpt lat="42.7222050" lon="-8.6498570">
        <ele>37.2</ele>
        <time>2021-05-23T10:02:04Z</time>
      </trkpt>
      <trkpt lat="42.7222100" lon="-8.6498530">
        <ele>37.2</ele>
        <time>2021-05-23T10:02:05Z</time>
      </trkpt>
      <trkpt lat="42.7222150" lon="-8.6498500">
        <ele>37.2</ele>
        <time>2021-05-23T10:02:06Z</time>
      </trkpt>
      <trkpt lat="42.7222310" lon="-8.6498430">
        <ele>37.3</ele>
        <time>2021-05-23T10:02:07Z</time>
      </trkpt>
      <trkpt lat="42.7222300" lon="-8.6498420">
        <ele>37.3</ele>
        <time>2021-05-23T10:02:08Z</time>
      </trkpt>
      <trkpt lat="42.7222340" lon="-8.6498380">
        <ele>37.3</ele>
        <time>2021-05-23T10:02:10Z</time>
      </trkpt>
      <trkpt lat="42.7222440" lon="-8.6498330">
        <ele>37.3</ele>
        <time>2021-05-23T10:02:11Z</time>
      </trkpt>
      <trkpt lat="42.7222520" lon="-8.6498300">
        <ele>37.3</ele>
        <time>2021-05-23T10:02:12Z</time>
      </trkpt>
      <trkpt lat="42.7222590" lon="-8.6498290">
        <ele>37.3</ele>
        <time>2021-05-23T10:02:13Z</time>
      </trkpt>
      <trkpt lat="42.7222690" lon="-8.6498280">
        <ele>37.3</ele>
        <time>2021-05-23T10:02:14Z</time>
      </trkpt>
      <trkpt lat="42.7222780" lon="-8.6498300">
        <ele>37.3</ele>
        <time>2021-05-23T10:02:15Z</time>
      </trkpt>
      <trkpt lat="42.7223020" lon="-8.6498590">
        <ele>37.3</ele>
        <time>2021-05-23T10:02:16Z</time>
      </trkpt>
      <trkpt lat="42.7223060" lon="-8.6498710">
        <ele>37.3</ele>
        <time>2021-05-23T10:02:17Z</time>
      </trkpt>
      <trkpt lat="42.7223180" lon="-8.6498840">
        <ele>37.3</ele>
        <time>2021-05-23T10:02:18Z</time>
      </trkpt>
      <trkpt lat="42.7223320" lon="-8.6498910">
        <ele>37.3</ele>
        <time>2021-05-23T10:02:19Z</time>
      </trkpt>
      <trkpt lat="42.7223660" lon="-8.6498930">
        <ele>37.4</ele>
        <time>2021-05-23T10:02:20Z</time>
      </trkpt>
      <trkpt lat="42.7223750" lon="-8.6498940">
        <ele>37.4</ele>
        <time>2021-05-23T10:02:21Z</time>
      </trkpt>
      <trkpt lat="42.7223780" lon="-8.6498970">
        <ele>37.4</ele>
        <time>2021-05-23T10:02:22Z</time>
      </trkpt>
      <trkpt lat="42.7223810" lon="-8.6499000">
        <ele>37.4</ele>
        <time>2021-05-23T10:02:23Z</time>
      </trkpt>
      <trkpt lat="42.7223930" lon="-8.6499050">
        <ele>37.4</ele>
        <time>2021-05-23T10:02:24Z</time>
      </trkpt>
      <trkpt lat="42.7223950" lon="-8.6499120">
        <ele>37.4</ele>
        <time>2021-05-23T10:02:25Z</time>
      </trkpt>
      <trkpt lat="42.7224050" lon="-8.6499090">
        <ele>37.4</ele>
        <time>2021-05-23T10:02:26Z</time>
      </trkpt>
      <trkpt lat="42.7224140" lon="-8.6499170">
        <ele>37.4</ele>
        <time>2021-05-23T10:02:27Z</time>
      </trkpt>
      <trkpt lat="42.7224180" lon="-8.6499180">
        <ele>37.4</ele>
        <time>2021-05-23T10:02:28Z</time>
      </trkpt>
      <trkpt lat="42.7224220" lon="-8.6499210">
        <ele>37.4</ele>
        <time>2021-05-23T10:02:29Z</time>
      </trkpt>
      <trkpt lat="42.7224220" lon="-8.6499310">
        <ele>37.4</ele>
        <time>2021-05-23T10:02:30Z</time>
      </trkpt>
      <trkpt lat="42.7224310" lon="-8.6499420">
        <ele>37.4</ele>
        <time>2021-05-23T10:02:31Z</time>
      </trkpt>
      <trkpt lat="42.7224420" lon="-8.6499600">
        <ele>37.4</ele>
        <time>2021-05-23T10:02:32Z</time>
      </trkpt>
      <trkpt lat="42.7224460" lon="-8.6499670">
        <ele>37.4</ele>
        <time>2021-05-23T10:02:33Z</time>
      </trkpt>
      <trkpt lat="42.7224510" lon="-8.6499740">
        <ele>37.4</ele>
        <time>2021-05-23T10:02:34Z</time>
      </trkpt>
      <trkpt lat="42.7224550" lon="-8.6499810">
        <ele>37.4</ele>
        <time>2021-05-23T10:02:35Z</time>
      </trkpt>
      <trkpt lat="42.7224700" lon="-8.6499890">
        <ele>37.4</ele>
        <time>2021-05-23T10:02:36Z</time>
      </trkpt>
      <trkpt lat="42.7224820" lon="-8.6499970">
        <ele>37.5</ele>
        <time>2021-05-23T10:02:37Z</time>
      </trkpt>
      <trkpt lat="42.7224910" lon="-8.6500000">
        <ele>37.5</ele>
        <time>2021-05-23T10:02:38Z</time>
      </trkpt>
      <trkpt lat="42.7224980" lon="-8.6500090">
        <ele>37.5</ele>
        <time>2021-05-23T10:02:39Z</time>
      </trkpt>
      <trkpt lat="42.7225110" lon="-8.6500070">
        <ele>37.5</ele>
        <time>2021-05-23T10:02:40Z</time>
      </trkpt>
      <trkpt lat="42.7225240" lon="-8.6500140">
        <ele>37.5</ele>
        <time>2021-05-23T10:02:41Z</time>
      </trkpt>
      <trkpt lat="42.7225310" lon="-8.6500180">
        <ele>37.5</ele>
        <time>2021-05-23T10:02:42Z</time>
      </trkpt>
      <trkpt lat="42.7225380" lon="-8.6500220">
        <ele>37.5</ele>
        <time>2021-05-23T10:02:43Z</time>
      </trkpt>
      <trkpt lat="42.7225450" lon="-8.6500260">
        <ele>37.4</ele>
        <time>2021-05-23T10:02:44Z</time>
      </trkpt>
      <trkpt lat="42.7225550" lon="-8.6500320">
        <ele>37.4</ele>
        <time>2021-05-23T10:02:45Z</time>
      </trkpt>
      <trkpt lat="42.7225710" lon="-8.6500410">
        <ele>37.4</ele>
        <time>2021-05-23T10:02:46Z</time>
      </trkpt>
      <trkpt lat="42.7225840" lon="-8.6500390">
        <ele>37.4</ele>
        <time>2021-05-23T10:02:47Z</time>
      </trkpt>
      <trkpt lat="42.7225980" lon="-8.6500510">
        <ele>37.4</ele>
        <time>2021-05-23T10:02:48Z</time>
      </trkpt>
      <trkpt lat="42.7226140" lon="-8.6500500">
        <ele>37.4</ele>
        <time>2021-05-23T10:02:49Z</time>
      </trkpt>
      <trkpt lat="42.7226250" lon="-8.6500530">
        <ele>37.4</ele>
        <time>2021-05-23T10:02:50Z</time>
      </trkpt>
      <trkpt lat="42.7226570" lon="-8.6500660">
        <ele>37.2</ele>
        <time>2021-05-23T10:02:51Z</time>
      </trkpt>
      <trkpt lat="42.7226650" lon="-8.6500710">
        <ele>37.2</ele>
        <time>2021-05-23T10:02:52Z</time>
      </trkpt>
      <trkpt lat="42.7226760" lon="-8.6500780">
        <ele>37.1</ele>
        <time>2021-05-23T10:02:53Z</time>
      </trkpt>
      <trkpt lat="42.7226940" lon="-8.6500860">
        <ele>37.1</ele>
        <time>2021-05-23T10:02:54Z</time>
      </trkpt>
      <trkpt lat="42.7227030" lon="-8.6500970">
        <ele>37.0</ele>
        <time>2021-05-23T10:02:55Z</time>
      </trkpt>
      <trkpt lat="42.7227210" lon="-8.6501040">
        <ele>36.9</ele>
        <time>2021-05-23T10:02:56Z</time>
      </trkpt>
      <trkpt lat="42.7227350" lon="-8.6501060">
        <ele>36.8</ele>
        <time>2021-05-23T10:02:57Z</time>
      </trkpt>
      <trkpt lat="42.7227450" lon="-8.6501110">
        <ele>36.7</ele>
        <time>2021-05-23T10:02:58Z</time>
      </trkpt>
      <trkpt lat="42.7227550" lon="-8.6501160">
        <ele>36.7</ele>
        <time>2021-05-23T10:02:59Z</time>
      </trkpt>
      <trkpt lat="42.7227710" lon="-8.6501230">
        <ele>36.5</ele>
        <time>2021-05-23T10:03:00Z</time>
      </trkpt>
      <trkpt lat="42.7227780" lon="-8.6501320">
        <ele>36.5</ele>
        <time>2021-05-23T10:03:01Z</time>
      </trkpt>
      <trkpt lat="42.7227870" lon="-8.6501370">
        <ele>36.4</ele>
        <time>2021-05-23T10:03:02Z</time>
      </trkpt>
      <trkpt lat="42.7227980" lon="-8.6501410">
        <ele>36.3</ele>
        <time>2021-05-23T10:03:03Z</time>
      </trkpt>
      <trkpt lat="42.7228070" lon="-8.6501510">
        <ele>36.2</ele>
        <time>2021-05-23T10:03:04Z</time>
      </trkpt>
      <trkpt lat="42.7228150" lon="-8.6501510">
        <ele>36.1</ele>
        <time>2021-05-23T10:03:05Z</time>
      </trkpt>
      <trkpt lat="42.7228250" lon="-8.6501550">
        <ele>36.0</ele>
        <time>2021-05-23T10:03:06Z</time>
      </trkpt>
      <trkpt lat="42.7228310" lon="-8.6501600">
        <ele>36.0</ele>
        <time>2021-05-23T10:03:07Z</time>
      </trkpt>
      <trkpt lat="42.7228400" lon="-8.6501570">
        <ele>35.9</ele>
        <time>2021-05-23T10:03:08Z</time>
      </trkpt>
      <trkpt lat="42.7228450" lon="-8.6501600">
        <ele>35.8</ele>
        <time>2021-05-23T10:03:09Z</time>
      </trkpt>
      <trkpt lat="42.7228570" lon="-8.6501650">
        <ele>35.7</ele>
        <time>2021-05-23T10:03:10Z</time>
      </trkpt>
      <trkpt lat="42.7228610" lon="-8.6501660">
        <ele>35.7</ele>
        <time>2021-05-23T10:03:11Z</time>
      </trkpt>
      <trkpt lat="42.7228770" lon="-8.6501630">
        <ele>35.5</ele>
        <time>2021-05-23T10:03:12Z</time>
      </trkpt>
      <trkpt lat="42.7229000" lon="-8.6501620">
        <ele>35.3</ele>
        <time>2021-05-23T10:03:13Z</time>
      </trkpt>
      <trkpt lat="42.7229070" lon="-8.6501610">
        <ele>35.2</ele>
        <time>2021-05-23T10:03:14Z</time>
      </trkpt>
      <trkpt lat="42.7229140" lon="-8.6501600">
        <ele>35.1</ele>
        <time>2021-05-23T10:03:15Z</time>
      </trkpt>
      <trkpt lat="42.7229330" lon="-8.6501600">
        <ele>34.9</ele>
        <time>2021-05-23T10:03:16Z</time>
      </trkpt>
      <trkpt lat="42.7229470" lon="-8.6501640">
        <ele>34.7</ele>
        <time>2021-05-23T10:03:17Z</time>
      </trkpt>
      <trkpt lat="42.7229540" lon="-8.6501650">
        <ele>34.7</ele>
        <time>2021-05-23T10:03:18Z</time>
      </trkpt>
      <trkpt lat="42.7229600" lon="-8.6501660">
        <ele>34.6</ele>
        <time>2021-05-23T10:03:19Z</time>
      </trkpt>
      <trkpt lat="42.7229740" lon="-8.6501710">
        <ele>34.4</ele>
        <time>2021-05-23T10:03:20Z</time>
      </trkpt>
      <trkpt lat="42.7229830" lon="-8.6501720">
        <ele>34.3</ele>
        <time>2021-05-23T10:03:21Z</time>
      </trkpt>
      <trkpt lat="42.7229860" lon="-8.6501830">
        <ele>34.2</ele>
        <time>2021-05-23T10:03:22Z</time>
      </trkpt>
      <trkpt lat="42.7229970" lon="-8.6501910">
        <ele>34.1</ele>
        <time>2021-05-23T10:03:23Z</time>
      </trkpt>
      <trkpt lat="42.7230080" lon="-8.6501990">
        <ele>33.9</ele>
        <time>2021-05-23T10:03:24Z</time>
      </trkpt>
      <trkpt lat="42.7230200" lon="-8.6502010">
        <ele>33.8</ele>
        <time>2021-05-23T10:03:25Z</time>
      </trkpt>
      <trkpt lat="42.7230400" lon="-8.6502060">
        <ele>33.6</ele>
        <time>2021-05-23T10:03:26Z</time>
      </trkpt>
      <trkpt lat="42.7230670" lon="-8.6502120">
        <ele>33.3</ele>
        <time>2021-05-23T10:03:27Z</time>
      </trkpt>
      <trkpt lat="42.7230770" lon="-8.6502130">
        <ele>33.2</ele>
        <time>2021-05-23T10:03:28Z</time>
      </trkpt>
      <trkpt lat="42.7230960" lon="-8.6502250">
        <ele>33.0</ele>
        <time>2021-05-23T10:03:29Z</time>
      </trkpt>
      <trkpt lat="42.7231080" lon="-8.6502280">
        <ele>32.8</ele>
        <time>2021-05-23T10:03:30Z</time>
      </trkpt>
      <trkpt lat="42.7231200" lon="-8.6502310">
        <ele>32.7</ele>
        <time>2021-05-23T10:03:31Z</time>
      </trkpt>
      <trkpt lat="42.7231400" lon="-8.6502410">
        <ele>32.5</ele>
        <time>2021-05-23T10:03:32Z</time>
      </trkpt>
      <trkpt lat="42.7231450" lon="-8.6502430">
        <ele>32.4</ele>
        <time>2021-05-23T10:03:33Z</time>
      </trkpt>
      <trkpt lat="42.7231500" lon="-8.6502450">
        <ele>32.4</ele>
        <time>2021-05-23T10:03:34Z</time>
      </trkpt>
      <trkpt lat="42.7231550" lon="-8.6502470">
        <ele>32.3</ele>
        <time>2021-05-23T10:03:35Z</time>
      </trkpt>
      <trkpt lat="42.7231620" lon="-8.6502550">
        <ele>32.2</ele>
        <time>2021-05-23T10:03:36Z</time>
      </trkpt>
      <trkpt lat="42.7231670" lon="-8.6502620">
        <ele>32.2</ele>
        <time>2021-05-23T10:03:37Z</time>
      </trkpt>
      <trkpt lat="42.7231820" lon="-8.6502690">
        <ele>32.0</ele>
        <time>2021-05-23T10:03:38Z</time>
      </trkpt>
      <trkpt lat="42.7231870" lon="-8.6502750">
        <ele>31.9</ele>
        <time>2021-05-23T10:03:39Z</time>
      </trkpt>
      <trkpt lat="42.7231920" lon="-8.6502820">
        <ele>31.9</ele>
        <time>2021-05-23T10:03:40Z</time>
      </trkpt>
      <trkpt lat="42.7231990" lon="-8.6502900">
        <ele>31.8</ele>
        <time>2021-05-23T10:03:41Z</time>
      </trkpt>
      <trkpt lat="42.7232100" lon="-8.6503000">
        <ele>31.6</ele>
        <time>2021-05-23T10:03:42Z</time>
      </trkpt>
      <trkpt lat="42.7232190" lon="-8.6503080">
        <ele>31.5</ele>
        <time>2021-05-23T10:03:43Z</time>
      </trkpt>
      <trkpt lat="42.7232240" lon="-8.6503180">
        <ele>31.4</ele>
        <time>2021-05-23T10:03:44Z</time>
      </trkpt>
      <trkpt lat="42.7232300" lon="-8.6503350">
        <ele>31.3</ele>
        <time>2021-05-23T10:03:45Z</time>
      </trkpt>
      <trkpt lat="42.7232380" lon="-8.6503370">
        <ele>31.2</ele>
        <time>2021-05-23T10:03:46Z</time>
      </trkpt>
      <trkpt lat="42.7232440" lon="-8.6503480">
        <ele>31.1</ele>
        <time>2021-05-23T10:03:47Z</time>
      </trkpt>
      <trkpt lat="42.7232440" lon="-8.6503560">
        <ele>31.0</ele>
        <time>2021-05-23T10:03:48Z</time>
      </trkpt>
      <trkpt lat="42.7232590" lon="-8.6503620">
        <ele>30.8</ele>
        <time>2021-05-23T10:03:49Z</time>
      </trkpt>
      <trkpt lat="42.7232790" lon="-8.6503760">
        <ele>30.6</ele>
        <time>2021-05-23T10:03:50Z</time>
      </trkpt>
      <trkpt lat="42.7232870" lon="-8.6503820">
        <ele>30.5</ele>
        <time>2021-05-23T10:03:51Z</time>
      </trkpt>
      <trkpt lat="42.7232940" lon="-8.6503880">
        <ele>30.4</ele>
        <time>2021-05-23T10:03:52Z</time>
      </trkpt>
      <trkpt lat="42.7233080" lon="-8.6504050">
        <ele>30.2</ele>
        <time>2021-05-23T10:03:53Z</time>
      </trkpt>
      <trkpt lat="42.7233150" lon="-8.6504140">
        <ele>30.1</ele>
        <time>2021-05-23T10:03:54Z</time>
      </trkpt>
      <trkpt lat="42.7233230" lon="-8.6504230">
        <ele>30.0</ele>
        <time>2021-05-23T10:03:55Z</time>
      </trkpt>
      <trkpt lat="42.7233300" lon="-8.6504270">
        <ele>29.9</ele>
        <time>2021-05-23T10:03:56Z</time>
      </trkpt>
      <trkpt lat="42.7233340" lon="-8.6504340">
        <ele>29.8</ele>
        <time>2021-05-23T10:03:57Z</time>
      </trkpt>
      <trkpt lat="42.7233310" lon="-8.6504370">
        <ele>29.8</ele>
        <time>2021-05-23T10:03:58Z</time>
      </trkpt>
      <trkpt lat="42.7233330" lon="-8.6504510">
        <ele>29.7</ele>
        <time>2021-05-23T10:03:59Z</time>
      </trkpt>
      <trkpt lat="42.7233370" lon="-8.6504490">
        <ele>29.7</ele>
        <time>2021-05-23T10:04:00Z</time>
      </trkpt>
      <trkpt lat="42.7233390" lon="-8.6504520">
        <ele>29.6</ele>
        <time>2021-05-23T10:04:01Z</time>
      </trkpt>
      <trkpt lat="42.7233440" lon="-8.6504460">
        <ele>29.6</ele>
        <time>2021-05-23T10:04:02Z</time>
      </trkpt>
      <trkpt lat="42.7233450" lon="-8.6504410">
        <ele>29.5</ele>
        <time>2021-05-23T10:04:03Z</time>
      </trkpt>
      <trkpt lat="42.7233450" lon="-8.6504410">
        <ele>29.5</ele>
        <time>2021-05-23T10:04:04Z</time>
      </trkpt>
      <trkpt lat="42.7233420" lon="-8.6504450">
        <ele>29.5</ele>
        <time>2021-05-23T10:04:05Z</time>
      </trkpt>
      <trkpt lat="42.7233440" lon="-8.6504440">
        <ele>29.5</ele>
        <time>2021-05-23T10:04:06Z</time>
      </trkpt>
      <trkpt lat="42.7233440" lon="-8.6504430">
        <ele>29.4</ele>
        <time>2021-05-23T10:04:07Z</time>
      </trkpt>
      <trkpt lat="42.7233420" lon="-8.6504400">
        <ele>29.4</ele>
        <time>2021-05-23T10:04:08Z</time>
      </trkpt>
      <trkpt lat="42.7233440" lon="-8.6504410">
        <ele>29.4</ele>
        <time>2021-05-23T10:04:09Z</time>
      </trkpt>
      <trkpt lat="42.7233480" lon="-8.6504380">
        <ele>29.3</ele>
        <time>2021-05-23T10:04:10Z</time>
      </trkpt>
      <trkpt lat="42.7233500" lon="-8.6504370">
        <ele>29.3</ele>
        <time>2021-05-23T10:04:11Z</time>
      </trkpt>
      <trkpt lat="42.7233510" lon="-8.6504340">
        <ele>29.3</ele>
        <time>2021-05-23T10:04:12Z</time>
      </trkpt>
      <trkpt lat="42.7233520" lon="-8.6504350">
        <ele>29.3</ele>
        <time>2021-05-23T10:04:13Z</time>
      </trkpt>
      <trkpt lat="42.7233470" lon="-8.6504690">
        <ele>29.0</ele>
        <time>2021-05-23T10:04:14Z</time>
      </trkpt>
      <trkpt lat="42.7233580" lon="-8.6504830">
        <ele>28.9</ele>
        <time>2021-05-23T10:04:15Z</time>
      </trkpt>
      <trkpt lat="42.7233650" lon="-8.6504940">
        <ele>28.8</ele>
        <time>2021-05-23T10:04:16Z</time>
      </trkpt>
      <trkpt lat="42.7233770" lon="-8.6504880">
        <ele>28.6</ele>
        <time>2021-05-23T10:04:17Z</time>
      </trkpt>
      <trkpt lat="42.7233900" lon="-8.6504940">
        <ele>28.5</ele>
        <time>2021-05-23T10:04:18Z</time>
      </trkpt>
      <trkpt lat="42.7233990" lon="-8.6504900">
        <ele>28.4</ele>
        <time>2021-05-23T10:04:19Z</time>
      </trkpt>
      <trkpt lat="42.7234110" lon="-8.6504920">
        <ele>28.3</ele>
        <time>2021-05-23T10:04:20Z</time>
      </trkpt>
      <trkpt lat="42.7234250" lon="-8.6504950">
        <ele>28.2</ele>
        <time>2021-05-23T10:04:21Z</time>
      </trkpt>
      <trkpt lat="42.7234340" lon="-8.6505060">
        <ele>28.1</ele>
        <time>2021-05-23T10:04:22Z</time>
      </trkpt>
      <trkpt lat="42.7234390" lon="-8.6505150">
        <ele>28.0</ele>
        <time>2021-05-23T10:04:23Z</time>
      </trkpt>
      <trkpt lat="42.7234500" lon="-8.6505200">
        <ele>27.9</ele>
        <time>2021-05-23T10:04:24Z</time>
      </trkpt>
      <trkpt lat="42.7234630" lon="-8.6505130">
        <ele>27.7</ele>
        <time>2021-05-23T10:04:25Z</time>
      </trkpt>
      <trkpt lat="42.7234770" lon="-8.6505140">
        <ele>27.6</ele>
        <time>2021-05-23T10:04:26Z</time>
      </trkpt>
      <trkpt lat="42.7234860" lon="-8.6505170">
        <ele>27.5</ele>
        <time>2021-05-23T10:04:27Z</time>
      </trkpt>
      <trkpt lat="42.7234960" lon="-8.6505240">
        <ele>27.4</ele>
        <time>2021-05-23T10:04:28Z</time>
      </trkpt>
      <trkpt lat="42.7235040" lon="-8.6505310">
        <ele>27.3</ele>
        <time>2021-05-23T10:04:29Z</time>
      </trkpt>
      <trkpt lat="42.7235130" lon="-8.6505330">
        <ele>27.3</ele>
        <time>2021-05-23T10:04:30Z</time>
      </trkpt>
      <trkpt lat="42.7235220" lon="-8.6505330">
        <ele>27.2</ele>
        <time>2021-05-23T10:04:31Z</time>
      </trkpt>
      <trkpt lat="42.7235310" lon="-8.6505330">
        <ele>27.1</ele>
        <time>2021-05-23T10:04:32Z</time>
      </trkpt>
      <trkpt lat="42.7235520" lon="-8.6505400">
        <ele>26.9</ele>
        <time>2021-05-23T10:04:33Z</time>
      </trkpt>
      <trkpt lat="42.7235610" lon="-8.6505400">
        <ele>26.8</ele>
        <time>2021-05-23T10:04:34Z</time>
      </trkpt>
      <trkpt lat="42.7235700" lon="-8.6505410">
        <ele>26.8</ele>
        <time>2021-05-23T10:04:35Z</time>
      </trkpt>
      <trkpt lat="42.7235750" lon="-8.6505470">
        <ele>26.7</ele>
        <time>2021-05-23T10:04:36Z</time>
      </trkpt>
      <trkpt lat="42.7235870" lon="-8.6505480">
        <ele>26.6</ele>
        <time>2021-05-23T10:04:37Z</time>
      </trkpt>
      <trkpt lat="42.7235980" lon="-8.6505530">
        <ele>26.5</ele>
        <time>2021-05-23T10:04:38Z</time>
      </trkpt>
      <trkpt lat="42.7236020" lon="-8.6505550">
        <ele>26.5</ele>
        <time>2021-05-23T10:04:39Z</time>
      </trkpt>
      <trkpt lat="42.7236140" lon="-8.6505580">
        <ele>26.3</ele>
        <time>2021-05-23T10:04:40Z</time>
      </trkpt>
      <trkpt lat="42.7236290" lon="-8.6505580">
        <ele>26.2</ele>
        <time>2021-05-23T10:04:41Z</time>
      </trkpt>
      <trkpt lat="42.7236390" lon="-8.6505610">
        <ele>26.1</ele>
        <time>2021-05-23T10:04:42Z</time>
      </trkpt>
      <trkpt lat="42.7236480" lon="-8.6505650">
        <ele>26.0</ele>
        <time>2021-05-23T10:04:43Z</time>
      </trkpt>
      <trkpt lat="42.7236620" lon="-8.6505640">
        <ele>25.9</ele>
        <time>2021-05-23T10:04:44Z</time>
      </trkpt>
      <trkpt lat="42.7236700" lon="-8.6505600">
        <ele>25.8</ele>
        <time>2021-05-23T10:04:45Z</time>
      </trkpt>
      <trkpt lat="42.7236870" lon="-8.6505510">
        <ele>25.7</ele>
        <time>2021-05-23T10:04:46Z</time>
      </trkpt>
      <trkpt lat="42.7236950" lon="-8.6505480">
        <ele>25.6</ele>
        <time>2021-05-23T10:04:47Z</time>
      </trkpt>
      <trkpt lat="42.7237120" lon="-8.6505480">
        <ele>25.5</ele>
        <time>2021-05-23T10:04:48Z</time>
      </trkpt>
      <trkpt lat="42.7237220" lon="-8.6505440">
        <ele>25.4</ele>
        <time>2021-05-23T10:04:49Z</time>
      </trkpt>
      <trkpt lat="42.7237370" lon="-8.6505400">
        <ele>25.2</ele>
        <time>2021-05-23T10:04:50Z</time>
      </trkpt>
      <trkpt lat="42.7237510" lon="-8.6505380">
        <ele>25.1</ele>
        <time>2021-05-23T10:04:51Z</time>
      </trkpt>
      <trkpt lat="42.7237730" lon="-8.6505300">
        <ele>24.9</ele>
        <time>2021-05-23T10:04:52Z</time>
      </trkpt>
      <trkpt lat="42.7237820" lon="-8.6505300">
        <ele>24.8</ele>
        <time>2021-05-23T10:04:53Z</time>
      </trkpt>
      <trkpt lat="42.7238010" lon="-8.6505190">
        <ele>24.6</ele>
        <time>2021-05-23T10:04:54Z</time>
      </trkpt>
      <trkpt lat="42.7238070" lon="-8.6505210">
        <ele>24.6</ele>
        <time>2021-05-23T10:04:55Z</time>
      </trkpt>
      <trkpt lat="42.7238140" lon="-8.6505270">
        <ele>24.5</ele>
        <time>2021-05-23T10:04:56Z</time>
      </trkpt>
      <trkpt lat="42.7238280" lon="-8.6505220">
        <ele>24.3</ele>
        <time>2021-05-23T10:04:57Z</time>
      </trkpt>
      <trkpt lat="42.7238350" lon="-8.6505170">
        <ele>24.3</ele>
        <time>2021-05-23T10:04:58Z</time>
      </trkpt>
      <trkpt lat="42.7238490" lon="-8.6505150">
        <ele>24.1</ele>
        <time>2021-05-23T10:04:59Z</time>
      </trkpt>
      <trkpt lat="42.7238690" lon="-8.6505130">
        <ele>23.9</ele>
        <time>2021-05-23T10:05:00Z</time>
      </trkpt>
      <trkpt lat="42.7238770" lon="-8.6505120">
        <ele>23.9</ele>
        <time>2021-05-23T10:05:01Z</time>
      </trkpt>
      <trkpt lat="42.7238860" lon="-8.6505100">
        <ele>23.8</ele>
        <time>2021-05-23T10:05:02Z</time>
      </trkpt>
      <trkpt lat="42.7239060" lon="-8.6505030">
        <ele>23.6</ele>
        <time>2021-05-23T10:05:03Z</time>
      </trkpt>
      <trkpt lat="42.7239150" lon="-8.6505040">
        <ele>23.5</ele>
        <time>2021-05-23T10:05:04Z</time>
      </trkpt>
      <trkpt lat="42.7239250" lon="-8.6505040">
        <ele>23.4</ele>
        <time>2021-05-23T10:05:05Z</time>
      </trkpt>
      <trkpt lat="42.7239320" lon="-8.6505010">
        <ele>23.3</ele>
        <time>2021-05-23T10:05:06Z</time>
      </trkpt>
      <trkpt lat="42.7239460" lon="-8.6504980">
        <ele>23.1</ele>
        <time>2021-05-23T10:05:07Z</time>
      </trkpt>
      <trkpt lat="42.7239500" lon="-8.6504960">
        <ele>23.1</ele>
        <time>2021-05-23T10:05:08Z</time>
      </trkpt>
      <trkpt lat="42.7239600" lon="-8.6504950">
        <ele>23.0</ele>
        <time>2021-05-23T10:05:09Z</time>
      </trkpt>
      <trkpt lat="42.7239740" lon="-8.6504930">
        <ele>22.8</ele>
        <time>2021-05-23T10:05:10Z</time>
      </trkpt>
      <trkpt lat="42.7239880" lon="-8.6504970">
        <ele>22.7</ele>
        <time>2021-05-23T10:05:11Z</time>
      </trkpt>
      <trkpt lat="42.7240070" lon="-8.6505040">
        <ele>22.4</ele>
        <time>2021-05-23T10:05:12Z</time>
      </trkpt>
      <trkpt lat="42.7240150" lon="-8.6505070">
        <ele>22.3</ele>
        <time>2021-05-23T10:05:13Z</time>
      </trkpt>
      <trkpt lat="42.7240240" lon="-8.6505100">
        <ele>22.2</ele>
        <time>2021-05-23T10:05:14Z</time>
      </trkpt>
      <trkpt lat="42.7240380" lon="-8.6505140">
        <ele>22.1</ele>
        <time>2021-05-23T10:05:15Z</time>
      </trkpt>
      <trkpt lat="42.7240580" lon="-8.6505180">
        <ele>21.6</ele>
        <time>2021-05-23T10:05:16Z</time>
      </trkpt>
      <trkpt lat="42.7240720" lon="-8.6505210">
        <ele>21.6</ele>
        <time>2021-05-23T10:05:17Z</time>
      </trkpt>
      <trkpt lat="42.7240850" lon="-8.6505320">
        <ele>21.6</ele>
        <time>2021-05-23T10:05:18Z</time>
      </trkpt>
      <trkpt lat="42.7240940" lon="-8.6505400">
        <ele>21.6</ele>
        <time>2021-05-23T10:05:19Z</time>
      </trkpt>
      <trkpt lat="42.7241070" lon="-8.6505610">
        <ele>21.6</ele>
        <time>2021-05-23T10:05:20Z</time>
      </trkpt>
      <trkpt lat="42.7241180" lon="-8.6505730">
        <ele>21.6</ele>
        <time>2021-05-23T10:05:21Z</time>
      </trkpt>
      <trkpt lat="42.7241340" lon="-8.6505690">
        <ele>21.6</ele>
        <time>2021-05-23T10:05:22Z</time>
      </trkpt>
      <trkpt lat="42.7241450" lon="-8.6505640">
        <ele>21.6</ele>
        <time>2021-05-23T10:05:23Z</time>
      </trkpt>
      <trkpt lat="42.7241590" lon="-8.6505580">
        <ele>21.6</ele>
        <time>2021-05-23T10:05:24Z</time>
      </trkpt>
      <trkpt lat="42.7241660" lon="-8.6505560">
        <ele>21.6</ele>
        <time>2021-05-23T10:05:25Z</time>
      </trkpt>
      <trkpt lat="42.7241750" lon="-8.6505550">
        <ele>21.6</ele>
        <time>2021-05-23T10:05:26Z</time>
      </trkpt>
      <trkpt lat="42.7241860" lon="-8.6505510">
        <ele>21.6</ele>
        <time>2021-05-23T10:05:27Z</time>
      </trkpt>
      <trkpt lat="42.7241970" lon="-8.6505490">
        <ele>21.6</ele>
        <time>2021-05-23T10:05:28Z</time>
      </trkpt>
      <trkpt lat="42.7242130" lon="-8.6505470">
        <ele>21.6</ele>
        <time>2021-05-23T10:05:29Z</time>
      </trkpt>
      <trkpt lat="42.7242180" lon="-8.6505370">
        <ele>21.6</ele>
        <time>2021-05-23T10:05:30Z</time>
      </trkpt>
      <trkpt lat="42.7242280" lon="-8.6505320">
        <ele>21.6</ele>
        <time>2021-05-23T10:05:31Z</time>
      </trkpt>
      <trkpt lat="42.7242480" lon="-8.6505170">
        <ele>21.6</ele>
        <time>2021-05-23T10:05:32Z</time>
      </trkpt>
      <trkpt lat="42.7242560" lon="-8.6505110">
        <ele>21.6</ele>
        <time>2021-05-23T10:05:33Z</time>
      </trkpt>
      <trkpt lat="42.7242640" lon="-8.6505040">
        <ele>21.6</ele>
        <time>2021-05-23T10:05:34Z</time>
      </trkpt>
      <trkpt lat="42.7242770" lon="-8.6505000">
        <ele>21.6</ele>
        <time>2021-05-23T10:05:35Z</time>
      </trkpt>
      <trkpt lat="42.7242850" lon="-8.6504940">
        <ele>21.6</ele>
        <time>2021-05-23T10:05:36Z</time>
      </trkpt>
      <trkpt lat="42.7242960" lon="-8.6505030">
        <ele>21.7</ele>
        <time>2021-05-23T10:05:37Z</time>
      </trkpt>
      <trkpt lat="42.7242960" lon="-8.6505110">
        <ele>21.7</ele>
        <time>2021-05-23T10:05:38Z</time>
      </trkpt>
      <trkpt lat="42.7243100" lon="-8.6505100">
        <ele>21.7</ele>
        <time>2021-05-23T10:05:39Z</time>
      </trkpt>
      <trkpt lat="42.7243120" lon="-8.6505070">
        <ele>21.7</ele>
        <time>2021-05-23T10:05:40Z</time>
      </trkpt>
      <trkpt lat="42.7243190" lon="-8.6505110">
        <ele>21.7</ele>
        <time>2021-05-23T10:05:41Z</time>
      </trkpt>
      <trkpt lat="42.7243260" lon="-8.6505000">
        <ele>21.7</ele>
        <time>2021-05-23T10:05:42Z</time>
      </trkpt>
      <trkpt lat="42.7243470" lon="-8.6504860">
        <ele>21.7</ele>
        <time>2021-05-23T10:05:43Z</time>
      </trkpt>
      <trkpt lat="42.7243580" lon="-8.6504830">
        <ele>21.7</ele>
        <time>2021-05-23T10:05:44Z</time>
      </trkpt>
      <trkpt lat="42.7243700" lon="-8.6504790">
        <ele>21.7</ele>
        <time>2021-05-23T10:05:45Z</time>
      </trkpt>
      <trkpt lat="42.7243720" lon="-8.6504850">
        <ele>21.7</ele>
        <time>2021-05-23T10:05:46Z</time>
      </trkpt>
      <trkpt lat="42.7243750" lon="-8.6504800">
        <ele>21.7</ele>
        <time>2021-05-23T10:05:47Z</time>
      </trkpt>
      <trkpt lat="42.7243800" lon="-8.6504880">
        <ele>21.7</ele>
        <time>2021-05-23T10:05:48Z</time>
      </trkpt>
      <trkpt lat="42.7243810" lon="-8.6504840">
        <ele>21.7</ele>
        <time>2021-05-23T10:05:49Z</time>
      </trkpt>
      <trkpt lat="42.7243880" lon="-8.6504810">
        <ele>21.7</ele>
        <time>2021-05-23T10:05:50Z</time>
      </trkpt>
      <trkpt lat="42.7243990" lon="-8.6504790">
        <ele>21.6</ele>
        <time>2021-05-23T10:05:51Z</time>
      </trkpt>
      <trkpt lat="42.7244140" lon="-8.6504720">
        <ele>21.6</ele>
        <time>2021-05-23T10:05:52Z</time>
      </trkpt>
      <trkpt lat="42.7244330" lon="-8.6504630">
        <ele>21.6</ele>
        <time>2021-05-23T10:05:53Z</time>
      </trkpt>
      <trkpt lat="42.7244480" lon="-8.6504620">
        <ele>21.6</ele>
        <time>2021-05-23T10:05:54Z</time>
      </trkpt>
      <trkpt lat="42.7244670" lon="-8.6504610">
        <ele>21.6</ele>
        <time>2021-05-23T10:05:55Z</time>
      </trkpt>
      <trkpt lat="42.7244890" lon="-8.6504640">
        <ele>21.6</ele>
        <time>2021-05-23T10:05:56Z</time>
      </trkpt>
      <trkpt lat="42.7245010" lon="-8.6504640">
        <ele>21.6</ele>
        <time>2021-05-23T10:05:57Z</time>
      </trkpt>
      <trkpt lat="42.7245130" lon="-8.6504600">
        <ele>21.6</ele>
        <time>2021-05-23T10:05:58Z</time>
      </trkpt>
      <trkpt lat="42.7245300" lon="-8.6504610">
        <ele>21.6</ele>
        <time>2021-05-23T10:05:59Z</time>
      </trkpt>
      <trkpt lat="42.7245540" lon="-8.6504680">
        <ele>21.6</ele>
        <time>2021-05-23T10:06:00Z</time>
      </trkpt>
      <trkpt lat="42.7245600" lon="-8.6504690">
        <ele>21.5</ele>
        <time>2021-05-23T10:06:01Z</time>
      </trkpt>
      <trkpt lat="42.7245660" lon="-8.6504690">
        <ele>21.5</ele>
        <time>2021-05-23T10:06:02Z</time>
      </trkpt>
      <trkpt lat="42.7245970" lon="-8.6504640">
        <ele>21.5</ele>
        <time>2021-05-23T10:06:03Z</time>
      </trkpt>
      <trkpt lat="42.7246070" lon="-8.6504650">
        <ele>21.4</ele>
        <time>2021-05-23T10:06:04Z</time>
      </trkpt>
      <trkpt lat="42.7246230" lon="-8.6504620">
        <ele>21.3</ele>
        <time>2021-05-23T10:06:05Z</time>
      </trkpt>
      <trkpt lat="42.7246350" lon="-8.6504530">
        <ele>21.3</ele>
        <time>2021-05-23T10:06:06Z</time>
      </trkpt>
      <trkpt lat="42.7246580" lon="-8.6504480">
        <ele>21.2</ele>
        <time>2021-05-23T10:06:07Z</time>
      </trkpt>
      <trkpt lat="42.7246690" lon="-8.6504470">
        <ele>21.1</ele>
        <time>2021-05-23T10:06:08Z</time>
      </trkpt>
      <trkpt lat="42.7246810" lon="-8.6504450">
        <ele>21.1</ele>
        <time>2021-05-23T10:06:09Z</time>
      </trkpt>
      <trkpt lat="42.7246930" lon="-8.6504470">
        <ele>21.0</ele>
        <time>2021-05-23T10:06:10Z</time>
      </trkpt>
      <trkpt lat="42.7247020" lon="-8.6504460">
        <ele>21.0</ele>
        <time>2021-05-23T10:06:11Z</time>
      </trkpt>
      <trkpt lat="42.7247110" lon="-8.6504440">
        <ele>20.9</ele>
        <time>2021-05-23T10:06:12Z</time>
      </trkpt>
      <trkpt lat="42.7247210" lon="-8.6504430">
        <ele>20.9</ele>
        <time>2021-05-23T10:06:13Z</time>
      </trkpt>
      <trkpt lat="42.7247310" lon="-8.6504400">
        <ele>20.8</ele>
        <time>2021-05-23T10:06:14Z</time>
      </trkpt>
      <trkpt lat="42.7247400" lon="-8.6504360">
        <ele>20.8</ele>
        <time>2021-05-23T10:06:15Z</time>
      </trkpt>
      <trkpt lat="42.7247480" lon="-8.6504430">
        <ele>20.7</ele>
        <time>2021-05-23T10:06:16Z</time>
      </trkpt>
      <trkpt lat="42.7247580" lon="-8.6504400">
        <ele>20.7</ele>
        <time>2021-05-23T10:06:17Z</time>
      </trkpt>
      <trkpt lat="42.7247720" lon="-8.6504340">
        <ele>20.6</ele>
        <time>2021-05-23T10:06:18Z</time>
      </trkpt>
      <trkpt lat="42.7247860" lon="-8.6504310">
        <ele>20.5</ele>
        <time>2021-05-23T10:06:19Z</time>
      </trkpt>
      <trkpt lat="42.7247970" lon="-8.6504270">
        <ele>20.5</ele>
        <time>2021-05-23T10:06:20Z</time>
      </trkpt>
      <trkpt lat="42.7248030" lon="-8.6504240">
        <ele>20.4</ele>
        <time>2021-05-23T10:06:21Z</time>
      </trkpt>
      <trkpt lat="42.7248140" lon="-8.6504240">
        <ele>20.4</ele>
        <time>2021-05-23T10:06:22Z</time>
      </trkpt>
      <trkpt lat="42.7248280" lon="-8.6504200">
        <ele>20.3</ele>
        <time>2021-05-23T10:06:23Z</time>
      </trkpt>
      <trkpt lat="42.7248380" lon="-8.6504180">
        <ele>20.3</ele>
        <time>2021-05-23T10:06:24Z</time>
      </trkpt>
      <trkpt lat="42.7248440" lon="-8.6504160">
        <ele>20.2</ele>
        <time>2021-05-23T10:06:25Z</time>
      </trkpt>
      <trkpt lat="42.7248500" lon="-8.6504150">
        <ele>20.2</ele>
        <time>2021-05-23T10:06:26Z</time>
      </trkpt>
      <trkpt lat="42.7248590" lon="-8.6504130">
        <ele>20.1</ele>
        <time>2021-05-23T10:06:27Z</time>
      </trkpt>
      <trkpt lat="42.7248700" lon="-8.6504090">
        <ele>20.1</ele>
        <time>2021-05-23T10:06:28Z</time>
      </trkpt>
      <trkpt lat="42.7248830" lon="-8.6504110">
        <ele>20.0</ele>
        <time>2021-05-23T10:06:29Z</time>
      </trkpt>
      <trkpt lat="42.7248920" lon="-8.6504110">
        <ele>19.9</ele>
        <time>2021-05-23T10:06:30Z</time>
      </trkpt>
      <trkpt lat="42.7249030" lon="-8.6504100">
        <ele>19.9</ele>
        <time>2021-05-23T10:06:31Z</time>
      </trkpt>
      <trkpt lat="42.7249190" lon="-8.6504100">
        <ele>19.8</ele>
        <time>2021-05-23T10:06:32Z</time>
      </trkpt>
      <trkpt lat="42.7249330" lon="-8.6504110">
        <ele>19.7</ele>
        <time>2021-05-23T10:06:33Z</time>
      </trkpt>
      <trkpt lat="42.7249430" lon="-8.6504070">
        <ele>19.6</ele>
        <time>2021-05-23T10:06:34Z</time>
      </trkpt>
      <trkpt lat="42.7249570" lon="-8.6504020">
        <ele>19.5</ele>
        <time>2021-05-23T10:06:35Z</time>
      </trkpt>
      <trkpt lat="42.7249620" lon="-8.6504010">
        <ele>19.5</ele>
        <time>2021-05-23T10:06:36Z</time>
      </trkpt>
      <trkpt lat="42.7249750" lon="-8.6504080">
        <ele>19.4</ele>
        <time>2021-05-23T10:06:37Z</time>
      </trkpt>
      <trkpt lat="42.7249920" lon="-8.6504120">
        <ele>19.3</ele>
        <time>2021-05-23T10:06:38Z</time>
      </trkpt>
      <trkpt lat="42.7250110" lon="-8.6504130">
        <ele>19.2</ele>
        <time>2021-05-23T10:06:39Z</time>
      </trkpt>
      <trkpt lat="42.7250210" lon="-8.6504120">
        <ele>19.1</ele>
        <time>2021-05-23T10:06:40Z</time>
      </trkpt>
      <trkpt lat="42.7250300" lon="-8.6504110">
        <ele>19.1</ele>
        <time>2021-05-23T10:06:41Z</time>
      </trkpt>
      <trkpt lat="42.7250340" lon="-8.6504080">
        <ele>19.0</ele>
        <time>2021-05-23T10:06:42Z</time>
      </trkpt>
      <trkpt lat="42.7250470" lon="-8.6504170">
        <ele>18.9</ele>
        <time>2021-05-23T10:06:43Z</time>
      </trkpt>
      <trkpt lat="42.7250650" lon="-8.6504240">
        <ele>18.8</ele>
        <time>2021-05-23T10:06:44Z</time>
      </trkpt>
      <trkpt lat="42.7250770" lon="-8.6504220">
        <ele>18.7</ele>
        <time>2021-05-23T10:06:45Z</time>
      </trkpt>
      <trkpt lat="42.7250890" lon="-8.6504230">
        <ele>18.6</ele>
        <time>2021-05-23T10:06:46Z</time>
      </trkpt>
      <trkpt lat="42.7250940" lon="-8.6504280">
        <ele>18.6</ele>
        <time>2021-05-23T10:06:47Z</time>
      </trkpt>
      <trkpt lat="42.7251010" lon="-8.6504380">
        <ele>18.5</ele>
        <time>2021-05-23T10:06:48Z</time>
      </trkpt>
      <trkpt lat="42.7251000" lon="-8.6504350">
        <ele>18.5</ele>
        <time>2021-05-23T10:06:49Z</time>
      </trkpt>
      <trkpt lat="42.7251080" lon="-8.6504380">
        <ele>18.5</ele>
        <time>2021-05-23T10:06:50Z</time>
      </trkpt>
      <trkpt lat="42.7251180" lon="-8.6504410">
        <ele>18.4</ele>
        <time>2021-05-23T10:06:51Z</time>
      </trkpt>
      <trkpt lat="42.7251260" lon="-8.6504490">
        <ele>18.3</ele>
        <time>2021-05-23T10:06:52Z</time>
      </trkpt>
      <trkpt lat="42.7251340" lon="-8.6504550">
        <ele>18.2</ele>
        <time>2021-05-23T10:06:53Z</time>
      </trkpt>
      <trkpt lat="42.7251380" lon="-8.6504510">
        <ele>18.2</ele>
        <time>2021-05-23T10:06:54Z</time>
      </trkpt>
      <trkpt lat="42.7251440" lon="-8.6504530">
        <ele>18.2</ele>
        <time>2021-05-23T10:06:55Z</time>
      </trkpt>
      <trkpt lat="42.7251430" lon="-8.6504530">
        <ele>18.2</ele>
        <time>2021-05-23T10:06:56Z</time>
      </trkpt>
      <trkpt lat="42.7251370" lon="-8.6504590">
        <ele>18.1</ele>
        <time>2021-05-23T10:06:57Z</time>
      </trkpt>
      <trkpt lat="42.7251230" lon="-8.6504540">
        <ele>18.0</ele>
        <time>2021-05-23T10:06:58Z</time>
      </trkpt>
      <trkpt lat="42.7251210" lon="-8.6504530">
        <ele>18.0</ele>
        <time>2021-05-23T10:06:59Z</time>
      </trkpt>
      <trkpt lat="42.7251200" lon="-8.6504500">
        <ele>18.0</ele>
        <time>2021-05-23T10:07:00Z</time>
      </trkpt>
      <trkpt lat="42.7251170" lon="-8.6504470">
        <ele>18.0</ele>
        <time>2021-05-23T10:07:01Z</time>
      </trkpt>
      <trkpt lat="42.7251120" lon="-8.6504520">
        <ele>17.9</ele>
        <time>2021-05-23T10:07:02Z</time>
      </trkpt>
      <trkpt lat="42.7251020" lon="-8.6504520">
        <ele>17.8</ele>
        <time>2021-05-23T10:07:03Z</time>
      </trkpt>
      <trkpt lat="42.7250940" lon="-8.6504560">
        <ele>17.8</ele>
        <time>2021-05-23T10:07:04Z</time>
      </trkpt>
      <trkpt lat="42.7250970" lon="-8.6504650">
        <ele>17.7</ele>
        <time>2021-05-23T10:07:05Z</time>
      </trkpt>
      <trkpt lat="42.7251000" lon="-8.6504650">
        <ele>17.7</ele>
        <time>2021-05-23T10:07:06Z</time>
      </trkpt>
      <trkpt lat="42.7250970" lon="-8.6504630">
        <ele>17.7</ele>
        <time>2021-05-23T10:07:07Z</time>
      </trkpt>
      <trkpt lat="42.7250960" lon="-8.6504610">
        <ele>17.7</ele>
        <time>2021-05-23T10:07:08Z</time>
      </trkpt>
      <trkpt lat="42.7250960" lon="-8.6504600">
        <ele>17.7</ele>
        <time>2021-05-23T10:07:09Z</time>
      </trkpt>
      <trkpt lat="42.7251070" lon="-8.6504580">
        <ele>17.6</ele>
        <time>2021-05-23T10:07:10Z</time>
      </trkpt>
      <trkpt lat="42.7251140" lon="-8.6504630">
        <ele>17.5</ele>
        <time>2021-05-23T10:07:11Z</time>
      </trkpt>
      <trkpt lat="42.7251210" lon="-8.6504640">
        <ele>17.5</ele>
        <time>2021-05-23T10:07:12Z</time>
      </trkpt>
      <trkpt lat="42.7251300" lon="-8.6504650">
        <ele>17.4</ele>
        <time>2021-05-23T10:07:13Z</time>
      </trkpt>
      <trkpt lat="42.7251380" lon="-8.6504520">
        <ele>17.3</ele>
        <time>2021-05-23T10:07:14Z</time>
      </trkpt>
      <trkpt lat="42.7251410" lon="-8.6504530">
        <ele>17.3</ele>
        <time>2021-05-23T10:07:15Z</time>
      </trkpt>
      <trkpt lat="42.7251510" lon="-8.6504500">
        <ele>17.2</ele>
        <time>2021-05-23T10:07:16Z</time>
      </trkpt>
      <trkpt lat="42.7251620" lon="-8.6504460">
        <ele>17.1</ele>
        <time>2021-05-23T10:07:17Z</time>
      </trkpt>
      <trkpt lat="42.7251690" lon="-8.6504460">
        <ele>17.1</ele>
        <time>2021-05-23T10:07:18Z</time>
      </trkpt>
      <trkpt lat="42.7251800" lon="-8.6504430">
        <ele>17.0</ele>
        <time>2021-05-23T10:07:19Z</time>
      </trkpt>
      <trkpt lat="42.7251890" lon="-8.6504330">
        <ele>16.9</ele>
        <time>2021-05-23T10:07:20Z</time>
      </trkpt>
      <trkpt lat="42.7252000" lon="-8.6504380">
        <ele>16.8</ele>
        <time>2021-05-23T10:07:21Z</time>
      </trkpt>
      <trkpt lat="42.7252070" lon="-8.6504380">
        <ele>16.8</ele>
        <time>2021-05-23T10:07:22Z</time>
      </trkpt>
      <trkpt lat="42.7252180" lon="-8.6504350">
        <ele>16.7</ele>
        <time>2021-05-23T10:07:23Z</time>
      </trkpt>
      <trkpt lat="42.7252330" lon="-8.6504360">
        <ele>16.6</ele>
        <time>2021-05-23T10:07:24Z</time>
      </trkpt>
      <trkpt lat="42.7252510" lon="-8.6504360">
        <ele>16.5</ele>
        <time>2021-05-23T10:07:25Z</time>
      </trkpt>
      <trkpt lat="42.7252700" lon="-8.6504380">
        <ele>16.3</ele>
        <time>2021-05-23T10:07:26Z</time>
      </trkpt>
      <trkpt lat="42.7252810" lon="-8.6504340">
        <ele>16.2</ele>
        <time>2021-05-23T10:07:27Z</time>
      </trkpt>
      <trkpt lat="42.7252910" lon="-8.6504300">
        <ele>16.2</ele>
        <time>2021-05-23T10:07:28Z</time>
      </trkpt>
      <trkpt lat="42.7253050" lon="-8.6504300">
        <ele>16.1</ele>
        <time>2021-05-23T10:07:29Z</time>
      </trkpt>
      <trkpt lat="42.7253120" lon="-8.6504290">
        <ele>16.0</ele>
        <time>2021-05-23T10:07:30Z</time>
      </trkpt>
      <trkpt lat="42.7253240" lon="-8.6504370">
        <ele>15.9</ele>
        <time>2021-05-23T10:07:31Z</time>
      </trkpt>
      <trkpt lat="42.7253370" lon="-8.6504310">
        <ele>15.8</ele>
        <time>2021-05-23T10:07:32Z</time>
      </trkpt>
      <trkpt lat="42.7253350" lon="-8.6504340">
        <ele>15.8</ele>
        <time>2021-05-23T10:07:33Z</time>
      </trkpt>
      <trkpt lat="42.7253430" lon="-8.6504500">
        <ele>15.7</ele>
        <time>2021-05-23T10:07:34Z</time>
      </trkpt>
      <trkpt lat="42.7253520" lon="-8.6504570">
        <ele>15.6</ele>
        <time>2021-05-23T10:07:35Z</time>
      </trkpt>
      <trkpt lat="42.7253610" lon="-8.6504660">
        <ele>15.5</ele>
        <time>2021-05-23T10:07:36Z</time>
      </trkpt>
      <trkpt lat="42.7253720" lon="-8.6504700">
        <ele>15.4</ele>
        <time>2021-05-23T10:07:37Z</time>
      </trkpt>
      <trkpt lat="42.7253840" lon="-8.6504770">
        <ele>15.3</ele>
        <time>2021-05-23T10:07:38Z</time>
      </trkpt>
      <trkpt lat="42.7254010" lon="-8.6504810">
        <ele>15.2</ele>
        <time>2021-05-23T10:07:39Z</time>
      </trkpt>
      <trkpt lat="42.7254100" lon="-8.6504940">
        <ele>15.1</ele>
        <time>2021-05-23T10:07:40Z</time>
      </trkpt>
      <trkpt lat="42.7254440" lon="-8.6505000">
        <ele>14.8</ele>
        <time>2021-05-23T10:07:41Z</time>
      </trkpt>
      <trkpt lat="42.7254550" lon="-8.6505080">
        <ele>14.7</ele>
        <time>2021-05-23T10:07:42Z</time>
      </trkpt>
      <trkpt lat="42.7254630" lon="-8.6505130">
        <ele>14.7</ele>
        <time>2021-05-23T10:07:43Z</time>
      </trkpt>
      <trkpt lat="42.7254720" lon="-8.6505140">
        <ele>14.6</ele>
        <time>2021-05-23T10:07:44Z</time>
      </trkpt>
      <trkpt lat="42.7254810" lon="-8.6505150">
        <ele>14.5</ele>
        <time>2021-05-23T10:07:45Z</time>
      </trkpt>
      <trkpt lat="42.7254910" lon="-8.6505150">
        <ele>14.5</ele>
        <time>2021-05-23T10:07:46Z</time>
      </trkpt>
      <trkpt lat="42.7255010" lon="-8.6505140">
        <ele>14.4</ele>
        <time>2021-05-23T10:07:47Z</time>
      </trkpt>
      <trkpt lat="42.7255070" lon="-8.6505150">
        <ele>14.3</ele>
        <time>2021-05-23T10:07:48Z</time>
      </trkpt>
      <trkpt lat="42.7255120" lon="-8.6505160">
        <ele>14.3</ele>
        <time>2021-05-23T10:07:49Z</time>
      </trkpt>
      <trkpt lat="42.7255230" lon="-8.6505270">
        <ele>14.2</ele>
        <time>2021-05-23T10:07:50Z</time>
      </trkpt>
      <trkpt lat="42.7255350" lon="-8.6505310">
        <ele>14.1</ele>
        <time>2021-05-23T10:07:51Z</time>
      </trkpt>
      <trkpt lat="42.7255460" lon="-8.6505340">
        <ele>14.0</ele>
        <time>2021-05-23T10:07:52Z</time>
      </trkpt>
      <trkpt lat="42.7255520" lon="-8.6505380">
        <ele>14.0</ele>
        <time>2021-05-23T10:07:53Z</time>
      </trkpt>
      <trkpt lat="42.7255590" lon="-8.6505390">
        <ele>13.9</ele>
        <time>2021-05-23T10:07:54Z</time>
      </trkpt>
      <trkpt lat="42.7255850" lon="-8.6505460">
        <ele>13.7</ele>
        <time>2021-05-23T10:07:55Z</time>
      </trkpt>
      <trkpt lat="42.7255900" lon="-8.6505460">
        <ele>13.7</ele>
        <time>2021-05-23T10:07:56Z</time>
      </trkpt>
      <trkpt lat="42.7256080" lon="-8.6505440">
        <ele>13.6</ele>
        <time>2021-05-23T10:07:57Z</time>
      </trkpt>
      <trkpt lat="42.7256140" lon="-8.6505400">
        <ele>13.5</ele>
        <time>2021-05-23T10:07:58Z</time>
      </trkpt>
      <trkpt lat="42.7256300" lon="-8.6505410">
        <ele>13.4</ele>
        <time>2021-05-23T10:07:59Z</time>
      </trkpt>
      <trkpt lat="42.7256390" lon="-8.6505430">
        <ele>13.3</ele>
        <time>2021-05-23T10:08:00Z</time>
      </trkpt>
      <trkpt lat="42.7256470" lon="-8.6505460">
        <ele>13.3</ele>
        <time>2021-05-23T10:08:01Z</time>
      </trkpt>
      <trkpt lat="42.7256550" lon="-8.6505490">
        <ele>13.2</ele>
        <time>2021-05-23T10:08:02Z</time>
      </trkpt>
      <trkpt lat="42.7256650" lon="-8.6505560">
        <ele>13.1</ele>
        <time>2021-05-23T10:08:03Z</time>
      </trkpt>
      <trkpt lat="42.7256700" lon="-8.6505600">
        <ele>13.1</ele>
        <time>2021-05-23T10:08:04Z</time>
      </trkpt>
      <trkpt lat="42.7256760" lon="-8.6505630">
        <ele>13.1</ele>
        <time>2021-05-23T10:08:05Z</time>
      </trkpt>
      <trkpt lat="42.7256810" lon="-8.6505670">
        <ele>13.0</ele>
        <time>2021-05-23T10:08:06Z</time>
      </trkpt>
      <trkpt lat="42.7256860" lon="-8.6505700">
        <ele>13.0</ele>
        <time>2021-05-23T10:08:07Z</time>
      </trkpt>
      <trkpt lat="42.7256910" lon="-8.6505740">
        <ele>12.9</ele>
        <time>2021-05-23T10:08:08Z</time>
      </trkpt>
      <trkpt lat="42.7257160" lon="-8.6505810">
        <ele>12.8</ele>
        <time>2021-05-23T10:08:09Z</time>
      </trkpt>
      <trkpt lat="42.7257260" lon="-8.6505830">
        <ele>12.7</ele>
        <time>2021-05-23T10:08:10Z</time>
      </trkpt>
      <trkpt lat="42.7257350" lon="-8.6505840">
        <ele>12.7</ele>
        <time>2021-05-23T10:08:11Z</time>
      </trkpt>
      <trkpt lat="42.7257490" lon="-8.6505950">
        <ele>12.7</ele>
        <time>2021-05-23T10:08:12Z</time>
      </trkpt>
      <trkpt lat="42.7257560" lon="-8.6505980">
        <ele>12.6</ele>
        <time>2021-05-23T10:08:13Z</time>
      </trkpt>
      <trkpt lat="42.7257630" lon="-8.6506020">
        <ele>12.6</ele>
        <time>2021-05-23T10:08:14Z</time>
      </trkpt>
      <trkpt lat="42.7257700" lon="-8.6506060">
        <ele>12.6</ele>
        <time>2021-05-23T10:08:15Z</time>
      </trkpt>
      <trkpt lat="42.7257800" lon="-8.6506030">
        <ele>12.6</ele>
        <time>2021-05-23T10:08:16Z</time>
      </trkpt>
      <trkpt lat="42.7257800" lon="-8.6506250">
        <ele>12.6</ele>
        <time>2021-05-23T10:08:17Z</time>
      </trkpt>
      <trkpt lat="42.7257910" lon="-8.6506320">
        <ele>12.5</ele>
        <time>2021-05-23T10:08:18Z</time>
      </trkpt>
      <trkpt lat="42.7257990" lon="-8.6506450">
        <ele>12.5</ele>
        <time>2021-05-23T10:08:19Z</time>
      </trkpt>
      <trkpt lat="42.7258060" lon="-8.6506550">
        <ele>12.5</ele>
        <time>2021-05-23T10:08:20Z</time>
      </trkpt>
      <trkpt lat="42.7258130" lon="-8.6506630">
        <ele>12.4</ele>
        <time>2021-05-23T10:08:21Z</time>
      </trkpt>
      <trkpt lat="42.7258190" lon="-8.6506750">
        <ele>12.4</ele>
        <time>2021-05-23T10:08:22Z</time>
      </trkpt>
      <trkpt lat="42.7258260" lon="-8.6506790">
        <ele>12.4</ele>
        <time>2021-05-23T10:08:23Z</time>
      </trkpt>
      <trkpt lat="42.7258340" lon="-8.6506700">
        <ele>12.4</ele>
        <time>2021-05-23T10:08:24Z</time>
      </trkpt>
      <trkpt lat="42.7258380" lon="-8.6506660">
        <ele>12.4</ele>
        <time>2021-05-23T10:08:25Z</time>
      </trkpt>
      <trkpt lat="42.7258460" lon="-8.6506500">
        <ele>12.3</ele>
        <time>2021-05-23T10:08:26Z</time>
      </trkpt>
      <trkpt lat="42.7258590" lon="-8.6506620">
        <ele>12.2</ele>
        <time>2021-05-23T10:08:27Z</time>
      </trkpt>
      <trkpt lat="42.7258730" lon="-8.6506750">
        <ele>12.1</ele>
        <time>2021-05-23T10:08:28Z</time>
      </trkpt>
      <trkpt lat="42.7258920" lon="-8.6506770">
        <ele>12.0</ele>
        <time>2021-05-23T10:08:29Z</time>
      </trkpt>
      <trkpt lat="42.7259080" lon="-8.6506750">
        <ele>11.9</ele>
        <time>2021-05-23T10:08:30Z</time>
      </trkpt>
      <trkpt lat="42.7259190" lon="-8.6506820">
        <ele>11.9</ele>
        <time>2021-05-23T10:08:31Z</time>
      </trkpt>
      <trkpt lat="42.7259350" lon="-8.6506840">
        <ele>11.8</ele>
        <time>2021-05-23T10:08:32Z</time>
      </trkpt>
      <trkpt lat="42.7259640" lon="-8.6506910">
        <ele>11.6</ele>
        <time>2021-05-23T10:08:33Z</time>
      </trkpt>
      <trkpt lat="42.7259740" lon="-8.6506930">
        <ele>11.6</ele>
        <time>2021-05-23T10:08:34Z</time>
      </trkpt>
      <trkpt lat="42.7259870" lon="-8.6507040">
        <ele>11.5</ele>
        <time>2021-05-23T10:08:35Z</time>
      </trkpt>
      <trkpt lat="42.7259920" lon="-8.6507090">
        <ele>11.5</ele>
        <time>2021-05-23T10:08:36Z</time>
      </trkpt>
      <trkpt lat="42.7259940" lon="-8.6507170">
        <ele>11.4</ele>
        <time>2021-05-23T10:08:37Z</time>
      </trkpt>
      <trkpt lat="42.7260100" lon="-8.6507140">
        <ele>11.3</ele>
        <time>2021-05-23T10:08:38Z</time>
      </trkpt>
      <trkpt lat="42.7260210" lon="-8.6507200">
        <ele>11.3</ele>
        <time>2021-05-23T10:08:39Z</time>
      </trkpt>
      <trkpt lat="42.7260340" lon="-8.6507330">
        <ele>11.2</ele>
        <time>2021-05-23T10:08:40Z</time>
      </trkpt>
      <trkpt lat="42.7260370" lon="-8.6507420">
        <ele>11.2</ele>
        <time>2021-05-23T10:08:41Z</time>
      </trkpt>
      <trkpt lat="42.7260520" lon="-8.6507460">
        <ele>11.1</ele>
        <time>2021-05-23T10:08:42Z</time>
      </trkpt>
      <trkpt lat="42.7260810" lon="-8.6507600">
        <ele>11.0</ele>
        <time>2021-05-23T10:08:43Z</time>
      </trkpt>
      <trkpt lat="42.7260880" lon="-8.6507630">
        <ele>10.9</ele>
        <time>2021-05-23T10:08:44Z</time>
      </trkpt>
      <trkpt lat="42.7260830" lon="-8.6507670">
        <ele>10.9</ele>
        <time>2021-05-23T10:08:45Z</time>
      </trkpt>
      <trkpt lat="42.7260950" lon="-8.6507770">
        <ele>10.8</ele>
        <time>2021-05-23T10:08:46Z</time>
      </trkpt>
      <trkpt lat="42.7261040" lon="-8.6507820">
        <ele>10.8</ele>
        <time>2021-05-23T10:08:47Z</time>
      </trkpt>
      <trkpt lat="42.7261170" lon="-8.6507860">
        <ele>10.7</ele>
        <time>2021-05-23T10:08:48Z</time>
      </trkpt>
      <trkpt lat="42.7261250" lon="-8.6507910">
        <ele>10.7</ele>
        <time>2021-05-23T10:08:49Z</time>
      </trkpt>
      <trkpt lat="42.7261290" lon="-8.6508040">
        <ele>10.6</ele>
        <time>2021-05-23T10:08:50Z</time>
      </trkpt>
      <trkpt lat="42.7261350" lon="-8.6508200">
        <ele>10.6</ele>
        <time>2021-05-23T10:08:51Z</time>
      </trkpt>
      <trkpt lat="42.7261320" lon="-8.6508510">
        <ele>10.5</ele>
        <time>2021-05-23T10:08:52Z</time>
      </trkpt>
      <trkpt lat="42.7261250" lon="-8.6508690">
        <ele>10.4</ele>
        <time>2021-05-23T10:08:53Z</time>
      </trkpt>
      <trkpt lat="42.7261190" lon="-8.6508860">
        <ele>10.3</ele>
        <time>2021-05-23T10:08:54Z</time>
      </trkpt>
      <trkpt lat="42.7261080" lon="-8.6509070">
        <ele>10.1</ele>
        <time>2021-05-23T10:08:55Z</time>
      </trkpt>
      <trkpt lat="42.7261030" lon="-8.6509210">
        <ele>10.1</ele>
        <time>2021-05-23T10:08:56Z</time>
      </trkpt>
      <trkpt lat="42.7260970" lon="-8.6509350">
        <ele>10.0</ele>
        <time>2021-05-23T10:08:57Z</time>
      </trkpt>
      <trkpt lat="42.7260880" lon="-8.6509530">
        <ele>10.0</ele>
        <time>2021-05-23T10:08:58Z</time>
      </trkpt>
      <trkpt lat="42.7260750" lon="-8.6509820">
        <ele>9.9</ele>
        <time>2021-05-23T10:08:59Z</time>
      </trkpt>
      <trkpt lat="42.7260680" lon="-8.6509930">
        <ele>9.9</ele>
        <time>2021-05-23T10:09:00Z</time>
      </trkpt>
      <trkpt lat="42.7260580" lon="-8.6510180">
        <ele>9.8</ele>
        <time>2021-05-23T10:09:01Z</time>
      </trkpt>
      <trkpt lat="42.7260500" lon="-8.6510300">
        <ele>9.8</ele>
        <time>2021-05-23T10:09:02Z</time>
      </trkpt>
      <trkpt lat="42.7260430" lon="-8.6510560">
        <ele>9.8</ele>
        <time>2021-05-23T10:09:03Z</time>
      </trkpt>
      <trkpt lat="42.7260380" lon="-8.6510690">
        <ele>9.7</ele>
        <time>2021-05-23T10:09:04Z</time>
      </trkpt>
      <trkpt lat="42.7260320" lon="-8.6510810">
        <ele>9.7</ele>
        <time>2021-05-23T10:09:05Z</time>
      </trkpt>
      <trkpt lat="42.7260240" lon="-8.6511040">
        <ele>9.7</ele>
        <time>2021-05-23T10:09:06Z</time>
      </trkpt>
      <trkpt lat="42.7260270" lon="-8.6511180">
        <ele>9.7</ele>
        <time>2021-05-23T10:09:07Z</time>
      </trkpt>
      <trkpt lat="42.7260220" lon="-8.6511370">
        <ele>9.6</ele>
        <time>2021-05-23T10:09:08Z</time>
      </trkpt>
      <trkpt lat="42.7260180" lon="-8.6511460">
        <ele>9.6</ele>
        <time>2021-05-23T10:09:09Z</time>
      </trkpt>
      <trkpt lat="42.7260130" lon="-8.6511540">
        <ele>9.6</ele>
        <time>2021-05-23T10:09:10Z</time>
      </trkpt>
      <trkpt lat="42.7260090" lon="-8.6511630">
        <ele>9.6</ele>
        <time>2021-05-23T10:09:11Z</time>
      </trkpt>
      <trkpt lat="42.7259970" lon="-8.6511840">
        <ele>9.6</ele>
        <time>2021-05-23T10:09:12Z</time>
      </trkpt>
      <trkpt lat="42.7259910" lon="-8.6512010">
        <ele>9.6</ele>
        <time>2021-05-23T10:09:13Z</time>
      </trkpt>
      <trkpt lat="42.7259890" lon="-8.6512050">
        <ele>9.6</ele>
        <time>2021-05-23T10:09:14Z</time>
      </trkpt>
      <trkpt lat="42.7259790" lon="-8.6512190">
        <ele>9.5</ele>
        <time>2021-05-23T10:09:15Z</time>
      </trkpt>
      <trkpt lat="42.7259690" lon="-8.6512390">
        <ele>9.5</ele>
        <time>2021-05-23T10:09:16Z</time>
      </trkpt>
      <trkpt lat="42.7259630" lon="-8.6512620">
        <ele>9.5</ele>
        <time>2021-05-23T10:09:17Z</time>
      </trkpt>
      <trkpt lat="42.7259600" lon="-8.6512760">
        <ele>9.5</ele>
        <time>2021-05-23T10:09:18Z</time>
      </trkpt>
      <trkpt lat="42.7259590" lon="-8.6512910">
        <ele>9.5</ele>
        <time>2021-05-23T10:09:19Z</time>
      </trkpt>
      <trkpt lat="42.7259590" lon="-8.6512920">
        <ele>9.5</ele>
        <time>2021-05-23T10:09:20Z</time>
      </trkpt>
      <trkpt lat="42.7259570" lon="-8.6512980">
        <ele>9.5</ele>
        <time>2021-05-23T10:09:21Z</time>
      </trkpt>
      <trkpt lat="42.7259600" lon="-8.6512980">
        <ele>9.5</ele>
        <time>2021-05-23T10:09:22Z</time>
      </trkpt>
      <trkpt lat="42.7259620" lon="-8.6513070">
        <ele>9.5</ele>
        <time>2021-05-23T10:09:23Z</time>
      </trkpt>
      <trkpt lat="42.7259620" lon="-8.6513230">
        <ele>9.5</ele>
        <time>2021-05-23T10:09:24Z</time>
      </trkpt>
      <trkpt lat="42.7259540" lon="-8.6513400">
        <ele>9.5</ele>
        <time>2021-05-23T10:09:25Z</time>
      </trkpt>
      <trkpt lat="42.7259490" lon="-8.6513540">
        <ele>9.5</ele>
        <time>2021-05-23T10:09:26Z</time>
      </trkpt>
      <trkpt lat="42.7259510" lon="-8.6513630">
        <ele>9.5</ele>
        <time>2021-05-23T10:09:27Z</time>
      </trkpt>
      <trkpt lat="42.7259440" lon="-8.6513790">
        <ele>9.5</ele>
        <time>2021-05-23T10:09:28Z</time>
      </trkpt>
      <trkpt lat="42.7259410" lon="-8.6513920">
        <ele>9.5</ele>
        <time>2021-05-23T10:09:29Z</time>
      </trkpt>
      <trkpt lat="42.7259430" lon="-8.6514000">
        <ele>9.5</ele>
        <time>2021-05-23T10:09:30Z</time>
      </trkpt>
      <trkpt lat="42.7259420" lon="-8.6514180">
        <ele>9.5</ele>
        <time>2021-05-23T10:09:31Z</time>
      </trkpt>
      <trkpt lat="42.7259440" lon="-8.6514220">
        <ele>9.5</ele>
        <time>2021-05-23T10:09:32Z</time>
      </trkpt>
      <trkpt lat="42.7259420" lon="-8.6514340">
        <ele>9.5</ele>
        <time>2021-05-23T10:09:33Z</time>
      </trkpt>
      <trkpt lat="42.7259410" lon="-8.6514420">
        <ele>9.5</ele>
        <time>2021-05-23T10:09:34Z</time>
      </trkpt>
      <trkpt lat="42.7259420" lon="-8.6514460">
        <ele>9.5</ele>
        <time>2021-05-23T10:09:35Z</time>
      </trkpt>
      <trkpt lat="42.7259370" lon="-8.6514580">
        <ele>9.4</ele>
        <time>2021-05-23T10:09:36Z</time>
      </trkpt>
      <trkpt lat="42.7259420" lon="-8.6514680">
        <ele>9.4</ele>
        <time>2021-05-23T10:09:37Z</time>
      </trkpt>
      <trkpt lat="42.7259410" lon="-8.6514720">
        <ele>9.4</ele>
        <time>2021-05-23T10:09:38Z</time>
      </trkpt>
      <trkpt lat="42.7259420" lon="-8.6514740">
        <ele>9.4</ele>
        <time>2021-05-23T10:09:39Z</time>
      </trkpt>
      <trkpt lat="42.7259440" lon="-8.6514820">
        <ele>9.4</ele>
        <time>2021-05-23T10:09:40Z</time>
      </trkpt>
      <trkpt lat="42.7259470" lon="-8.6514930">
        <ele>9.3</ele>
        <time>2021-05-23T10:09:41Z</time>
      </trkpt>
      <trkpt lat="42.7259460" lon="-8.6515020">
        <ele>9.3</ele>
        <time>2021-05-23T10:09:42Z</time>
      </trkpt>
      <trkpt lat="42.7259440" lon="-8.6515120">
        <ele>9.3</ele>
        <time>2021-05-23T10:09:43Z</time>
      </trkpt>
      <trkpt lat="42.7259420" lon="-8.6515210">
        <ele>9.3</ele>
        <time>2021-05-23T10:09:44Z</time>
      </trkpt>
      <trkpt lat="42.7259410" lon="-8.6515300">
        <ele>9.2</ele>
        <time>2021-05-23T10:09:45Z</time>
      </trkpt>
      <trkpt lat="42.7259390" lon="-8.6515390">
        <ele>9.2</ele>
        <time>2021-05-23T10:09:46Z</time>
      </trkpt>
      <trkpt lat="42.7259380" lon="-8.6515620">
        <ele>9.2</ele>
        <time>2021-05-23T10:09:47Z</time>
      </trkpt>
      <trkpt lat="42.7259290" lon="-8.6515750">
        <ele>9.1</ele>
        <time>2021-05-23T10:09:48Z</time>
      </trkpt>
      <trkpt lat="42.7259250" lon="-8.6515850">
        <ele>9.1</ele>
        <time>2021-05-23T10:09:49Z</time>
      </trkpt>
      <trkpt lat="42.7259190" lon="-8.6515960">
        <ele>9.0</ele>
        <time>2021-05-23T10:09:50Z</time>
      </trkpt>
      <trkpt lat="42.7259160" lon="-8.6516010">
        <ele>9.0</ele>
        <time>2021-05-23T10:09:51Z</time>
      </trkpt>
      <trkpt lat="42.7259100" lon="-8.6516150">
        <ele>9.0</ele>
        <time>2021-05-23T10:09:52Z</time>
      </trkpt>
      <trkpt lat="42.7259090" lon="-8.6516180">
        <ele>9.0</ele>
        <time>2021-05-23T10:09:53Z</time>
      </trkpt>
      <trkpt lat="42.7259010" lon="-8.6516230">
        <ele>9.0</ele>
        <time>2021-05-23T10:09:54Z</time>
      </trkpt>
      <trkpt lat="42.7258940" lon="-8.6516410">
        <ele>8.9</ele>
        <time>2021-05-23T10:09:55Z</time>
      </trkpt>
      <trkpt lat="42.7258900" lon="-8.6516530">
        <ele>8.9</ele>
        <time>2021-05-23T10:09:56Z</time>
      </trkpt>
      <trkpt lat="42.7258860" lon="-8.6516710">
        <ele>8.8</ele>
        <time>2021-05-23T10:09:57Z</time>
      </trkpt>
      <trkpt lat="42.7258840" lon="-8.6516900">
        <ele>8.8</ele>
        <time>2021-05-23T10:09:58Z</time>
      </trkpt>
      <trkpt lat="42.7258850" lon="-8.6517010">
        <ele>8.8</ele>
        <time>2021-05-23T10:09:59Z</time>
      </trkpt>
      <trkpt lat="42.7258800" lon="-8.6517150">
        <ele>8.7</ele>
        <time>2021-05-23T10:10:00Z</time>
      </trkpt>
      <trkpt lat="42.7258740" lon="-8.6517290">
        <ele>8.7</ele>
        <time>2021-05-23T10:10:01Z</time>
      </trkpt>
      <trkpt lat="42.7258690" lon="-8.6517410">
        <ele>8.7</ele>
        <time>2021-05-23T10:10:02Z</time>
      </trkpt>
      <trkpt lat="42.7258670" lon="-8.6517530">
        <ele>8.6</ele>
        <time>2021-05-23T10:10:03Z</time>
      </trkpt>
      <trkpt lat="42.7258610" lon="-8.6517650">
        <ele>8.6</ele>
        <time>2021-05-23T10:10:04Z</time>
      </trkpt>
      <trkpt lat="42.7258550" lon="-8.6517750">
        <ele>8.6</ele>
        <time>2021-05-23T10:10:05Z</time>
      </trkpt>
      <trkpt lat="42.7258490" lon="-8.6517800">
        <ele>8.6</ele>
        <time>2021-05-23T10:10:06Z</time>
      </trkpt>
      <trkpt lat="42.7258510" lon="-8.6517740">
        <ele>8.6</ele>
        <time>2021-05-23T10:10:07Z</time>
      </trkpt>
      <trkpt lat="42.7258500" lon="-8.6517820">
        <ele>8.6</ele>
        <time>2021-05-23T10:10:08Z</time>
      </trkpt>
      <trkpt lat="42.7258540" lon="-8.6518030">
        <ele>8.5</ele>
        <time>2021-05-23T10:10:09Z</time>
      </trkpt>
      <trkpt lat="42.7258440" lon="-8.6518310">
        <ele>8.5</ele>
        <time>2021-05-23T10:10:10Z</time>
      </trkpt>
      <trkpt lat="42.7258440" lon="-8.6518450">
        <ele>8.5</ele>
        <time>2021-05-23T10:10:11Z</time>
      </trkpt>
      <trkpt lat="42.7258440" lon="-8.6518600">
        <ele>8.4</ele>
        <time>2021-05-23T10:10:12Z</time>
      </trkpt>
      <trkpt lat="42.7258380" lon="-8.6519050">
        <ele>8.4</ele>
        <time>2021-05-23T10:10:13Z</time>
      </trkpt>
      <trkpt lat="42.7258360" lon="-8.6519180">
        <ele>8.4</ele>
        <time>2021-05-23T10:10:14Z</time>
      </trkpt>
      <trkpt lat="42.7258300" lon="-8.6519430">
        <ele>8.4</ele>
        <time>2021-05-23T10:10:15Z</time>
      </trkpt>
      <trkpt lat="42.7258290" lon="-8.6519580">
        <ele>8.4</ele>
        <time>2021-05-23T10:10:16Z</time>
      </trkpt>
      <trkpt lat="42.7258270" lon="-8.6519790">
        <ele>8.3</ele>
        <time>2021-05-23T10:10:17Z</time>
      </trkpt>
      <trkpt lat="42.7258240" lon="-8.6520010">
        <ele>8.3</ele>
        <time>2021-05-23T10:10:18Z</time>
      </trkpt>
      <trkpt lat="42.7258200" lon="-8.6520230">
        <ele>8.3</ele>
        <time>2021-05-23T10:10:19Z</time>
      </trkpt>
      <trkpt lat="42.7258170" lon="-8.6520390">
        <ele>8.3</ele>
        <time>2021-05-23T10:10:20Z</time>
      </trkpt>
      <trkpt lat="42.7258260" lon="-8.6520650">
        <ele>8.3</ele>
        <time>2021-05-23T10:10:21Z</time>
      </trkpt>
      <trkpt lat="42.7258300" lon="-8.6520760">
        <ele>8.3</ele>
        <time>2021-05-23T10:10:22Z</time>
      </trkpt>
      <trkpt lat="42.7258280" lon="-8.6520970">
        <ele>8.3</ele>
        <time>2021-05-23T10:10:23Z</time>
      </trkpt>
      <trkpt lat="42.7258240" lon="-8.6521150">
        <ele>8.3</ele>
        <time>2021-05-23T10:10:24Z</time>
      </trkpt>
      <trkpt lat="42.7258130" lon="-8.6521330">
        <ele>8.3</ele>
        <time>2021-05-23T10:10:25Z</time>
      </trkpt>
      <trkpt lat="42.7258060" lon="-8.6521420">
        <ele>8.3</ele>
        <time>2021-05-23T10:10:26Z</time>
      </trkpt>
      <trkpt lat="42.7257990" lon="-8.6521520">
        <ele>8.3</ele>
        <time>2021-05-23T10:10:27Z</time>
      </trkpt>
      <trkpt lat="42.7257850" lon="-8.6521890">
        <ele>8.3</ele>
        <time>2021-05-23T10:10:28Z</time>
      </trkpt>
      <trkpt lat="42.7257820" lon="-8.6522010">
        <ele>8.3</ele>
        <time>2021-05-23T10:10:29Z</time>
      </trkpt>
      <trkpt lat="42.7257850" lon="-8.6522060">
        <ele>8.3</ele>
        <time>2021-05-23T10:10:30Z</time>
      </trkpt>
      <trkpt lat="42.7257860" lon="-8.6522060">
        <ele>8.3</ele>
        <time>2021-05-23T10:10:31Z</time>
      </trkpt>
      <trkpt lat="42.7257780" lon="-8.6522270">
        <ele>8.3</ele>
        <time>2021-05-23T10:10:32Z</time>
      </trkpt>
      <trkpt lat="42.7257770" lon="-8.6522390">
        <ele>8.3</ele>
        <time>2021-05-23T10:10:33Z</time>
      </trkpt>
      <trkpt lat="42.7257800" lon="-8.6522500">
        <ele>8.3</ele>
        <time>2021-05-23T10:10:34Z</time>
      </trkpt>
      <trkpt lat="42.7257750" lon="-8.6522650">
        <ele>8.3</ele>
        <time>2021-05-23T10:10:35Z</time>
      </trkpt>
      <trkpt lat="42.7257680" lon="-8.6522770">
        <ele>8.3</ele>
        <time>2021-05-23T10:10:36Z</time>
      </trkpt>
      <trkpt lat="42.7257690" lon="-8.6522950">
        <ele>8.3</ele>
        <time>2021-05-23T10:10:37Z</time>
      </trkpt>
      <trkpt lat="42.7257620" lon="-8.6523120">
        <ele>8.3</ele>
        <time>2021-05-23T10:10:38Z</time>
      </trkpt>
      <trkpt lat="42.7257600" lon="-8.6523140">
        <ele>8.3</ele>
        <time>2021-05-23T10:10:39Z</time>
      </trkpt>
      <trkpt lat="42.7257590" lon="-8.6523370">
        <ele>8.3</ele>
        <time>2021-05-23T10:10:40Z</time>
      </trkpt>
      <trkpt lat="42.7257550" lon="-8.6523470">
        <ele>8.3</ele>
        <time>2021-05-23T10:10:41Z</time>
      </trkpt>
      <trkpt lat="42.7257520" lon="-8.6523600">
        <ele>8.3</ele>
        <time>2021-05-23T10:10:42Z</time>
      </trkpt>
      <trkpt lat="42.7257520" lon="-8.6523650">
        <ele>8.3</ele>
        <time>2021-05-23T10:10:43Z</time>
      </trkpt>
      <trkpt lat="42.7257520" lon="-8.6523700">
        <ele>8.3</ele>
        <time>2021-05-23T10:10:44Z</time>
      </trkpt>
      <trkpt lat="42.7257420" lon="-8.6523760">
        <ele>8.3</ele>
        <time>2021-05-23T10:10:45Z</time>
      </trkpt>
      <trkpt lat="42.7257230" lon="-8.6523880">
        <ele>8.3</ele>
        <time>2021-05-23T10:10:46Z</time>
      </trkpt>
      <trkpt lat="42.7257130" lon="-8.6523780">
        <ele>8.3</ele>
        <time>2021-05-23T10:10:47Z</time>
      </trkpt>
      <trkpt lat="42.7257040" lon="-8.6523880">
        <ele>8.2</ele>
        <time>2021-05-23T10:10:48Z</time>
      </trkpt>
      <trkpt lat="42.7256930" lon="-8.6523980">
        <ele>8.2</ele>
        <time>2021-05-23T10:10:49Z</time>
      </trkpt>
      <trkpt lat="42.7256760" lon="-8.6524000">
        <ele>8.2</ele>
        <time>2021-05-23T10:10:50Z</time>
      </trkpt>
      <trkpt lat="42.7256710" lon="-8.6524010">
        <ele>8.2</ele>
        <time>2021-05-23T10:10:51Z</time>
      </trkpt>
      <trkpt lat="42.7256670" lon="-8.6524010">
        <ele>8.2</ele>
        <time>2021-05-23T10:10:52Z</time>
      </trkpt>
      <trkpt lat="42.7256620" lon="-8.6524020">
        <ele>8.1</ele>
        <time>2021-05-23T10:10:53Z</time>
      </trkpt>
      <trkpt lat="42.7256570" lon="-8.6524020">
        <ele>8.1</ele>
        <time>2021-05-23T10:10:54Z</time>
      </trkpt>
      <trkpt lat="42.7256510" lon="-8.6524070">
        <ele>8.1</ele>
        <time>2021-05-23T10:10:55Z</time>
      </trkpt>
      <trkpt lat="42.7256390" lon="-8.6524090">
        <ele>8.1</ele>
        <time>2021-05-23T10:10:56Z</time>
      </trkpt>
      <trkpt lat="42.7256300" lon="-8.6524100">
        <ele>8.1</ele>
        <time>2021-05-23T10:10:57Z</time>
      </trkpt>
      <trkpt lat="42.7256240" lon="-8.6524110">
        <ele>8.0</ele>
        <time>2021-05-23T10:10:58Z</time>
      </trkpt>
      <trkpt lat="42.7256160" lon="-8.6524130">
        <ele>8.0</ele>
        <time>2021-05-23T10:10:59Z</time>
      </trkpt>
      <trkpt lat="42.7256020" lon="-8.6524190">
        <ele>8.0</ele>
        <time>2021-05-23T10:11:00Z</time>
      </trkpt>
      <trkpt lat="42.7255910" lon="-8.6524200">
        <ele>8.0</ele>
        <time>2021-05-23T10:11:01Z</time>
      </trkpt>
      <trkpt lat="42.7255730" lon="-8.6524240">
        <ele>8.0</ele>
        <time>2021-05-23T10:11:02Z</time>
      </trkpt>
      <trkpt lat="42.7255490" lon="-8.6524320">
        <ele>7.9</ele>
        <time>2021-05-23T10:11:03Z</time>
      </trkpt>
      <trkpt lat="42.7255410" lon="-8.6524200">
        <ele>7.9</ele>
        <time>2021-05-23T10:11:04Z</time>
      </trkpt>
      <trkpt lat="42.7255340" lon="-8.6524090">
        <ele>7.9</ele>
        <time>2021-05-23T10:11:05Z</time>
      </trkpt>
      <trkpt lat="42.7254970" lon="-8.6524000">
        <ele>7.8</ele>
        <time>2021-05-23T10:11:06Z</time>
      </trkpt>
      <trkpt lat="42.7254900" lon="-8.6524150">
        <ele>7.8</ele>
        <time>2021-05-23T10:11:07Z</time>
      </trkpt>
      <trkpt lat="42.7254690" lon="-8.6524110">
        <ele>7.7</ele>
        <time>2021-05-23T10:11:08Z</time>
      </trkpt>
      <trkpt lat="42.7254610" lon="-8.6524040">
        <ele>7.7</ele>
        <time>2021-05-23T10:11:09Z</time>
      </trkpt>
      <trkpt lat="42.7254560" lon="-8.6524120">
        <ele>7.7</ele>
        <time>2021-05-23T10:11:10Z</time>
      </trkpt>
      <trkpt lat="42.7254580" lon="-8.6524300">
        <ele>7.7</ele>
        <time>2021-05-23T10:11:11Z</time>
      </trkpt>
      <trkpt lat="42.7254550" lon="-8.6524360">
        <ele>7.6</ele>
        <time>2021-05-23T10:11:12Z</time>
      </trkpt>
      <trkpt lat="42.7254530" lon="-8.6524440">
        <ele>7.6</ele>
        <time>2021-05-23T10:11:13Z</time>
      </trkpt>
      <trkpt lat="42.7254490" lon="-8.6524710">
        <ele>7.6</ele>
        <time>2021-05-23T10:11:14Z</time>
      </trkpt>
      <trkpt lat="42.7254490" lon="-8.6524880">
        <ele>7.5</ele>
        <time>2021-05-23T10:11:15Z</time>
      </trkpt>
      <trkpt lat="42.7254480" lon="-8.6525020">
        <ele>7.5</ele>
        <time>2021-05-23T10:11:16Z</time>
      </trkpt>
      <trkpt lat="42.7254510" lon="-8.6525090">
        <ele>7.5</ele>
        <time>2021-05-23T10:11:17Z</time>
      </trkpt>
      <trkpt lat="42.7254470" lon="-8.6525310">
        <ele>7.4</ele>
        <time>2021-05-23T10:11:18Z</time>
      </trkpt>
      <trkpt lat="42.7254460" lon="-8.6525450">
        <ele>7.4</ele>
        <time>2021-05-23T10:11:19Z</time>
      </trkpt>
      <trkpt lat="42.7254440" lon="-8.6525600">
        <ele>7.4</ele>
        <time>2021-05-23T10:11:20Z</time>
      </trkpt>
      <trkpt lat="42.7254410" lon="-8.6525770">
        <ele>7.4</ele>
        <time>2021-05-23T10:11:21Z</time>
      </trkpt>
      <trkpt lat="42.7254400" lon="-8.6526020">
        <ele>7.3</ele>
        <time>2021-05-23T10:11:22Z</time>
      </trkpt>
      <trkpt lat="42.7254380" lon="-8.6526220">
        <ele>7.3</ele>
        <time>2021-05-23T10:11:23Z</time>
      </trkpt>
      <trkpt lat="42.7254400" lon="-8.6526520">
        <ele>7.2</ele>
        <time>2021-05-23T10:11:24Z</time>
      </trkpt>
      <trkpt lat="42.7254410" lon="-8.6526650">
        <ele>7.2</ele>
        <time>2021-05-23T10:11:25Z</time>
      </trkpt>
      <trkpt lat="42.7254410" lon="-8.6526780">
        <ele>7.2</ele>
        <time>2021-05-23T10:11:26Z</time>
      </trkpt>
      <trkpt lat="42.7254420" lon="-8.6526910">
        <ele>7.2</ele>
        <time>2021-05-23T10:11:27Z</time>
      </trkpt>
      <trkpt lat="42.7254370" lon="-8.6527170">
        <ele>7.2</ele>
        <time>2021-05-23T10:11:28Z</time>
      </trkpt>
      <trkpt lat="42.7254400" lon="-8.6527330">
        <ele>7.2</ele>
        <time>2021-05-23T10:11:29Z</time>
      </trkpt>
      <trkpt lat="42.7254400" lon="-8.6527460">
        <ele>7.2</ele>
        <time>2021-05-23T10:11:30Z</time>
      </trkpt>
      <trkpt lat="42.7254420" lon="-8.6527560">
        <ele>7.2</ele>
        <time>2021-05-23T10:11:31Z</time>
      </trkpt>
      <trkpt lat="42.7254480" lon="-8.6527730">
        <ele>7.2</ele>
        <time>2021-05-23T10:11:32Z</time>
      </trkpt>
      <trkpt lat="42.7254560" lon="-8.6527800">
        <ele>7.2</ele>
        <time>2021-05-23T10:11:33Z</time>
      </trkpt>
      <trkpt lat="42.7254580" lon="-8.6527900">
        <ele>7.2</ele>
        <time>2021-05-23T10:11:34Z</time>
      </trkpt>
      <trkpt lat="42.7254600" lon="-8.6528040">
        <ele>7.2</ele>
        <time>2021-05-23T10:11:35Z</time>
      </trkpt>
      <trkpt lat="42.7254650" lon="-8.6528200">
        <ele>7.2</ele>
        <time>2021-05-23T10:11:36Z</time>
      </trkpt>
      <trkpt lat="42.7254730" lon="-8.6528320">
        <ele>7.2</ele>
        <time>2021-05-23T10:11:37Z</time>
      </trkpt>
      <trkpt lat="42.7254840" lon="-8.6528590">
        <ele>7.3</ele>
        <time>2021-05-23T10:11:38Z</time>
      </trkpt>
      <trkpt lat="42.7254870" lon="-8.6528680">
        <ele>7.3</ele>
        <time>2021-05-23T10:11:39Z</time>
      </trkpt>
      <trkpt lat="42.7254910" lon="-8.6528770">
        <ele>7.4</ele>
        <time>2021-05-23T10:11:40Z</time>
      </trkpt>
      <trkpt lat="42.7254950" lon="-8.6528910">
        <ele>7.4</ele>
        <time>2021-05-23T10:11:41Z</time>
      </trkpt>
      <trkpt lat="42.7254990" lon="-8.6528970">
        <ele>7.4</ele>
        <time>2021-05-23T10:11:42Z</time>
      </trkpt>
      <trkpt lat="42.7255080" lon="-8.6529080">
        <ele>7.5</ele>
        <time>2021-05-23T10:11:43Z</time>
      </trkpt>
      <trkpt lat="42.7255100" lon="-8.6529240">
        <ele>7.5</ele>
        <time>2021-05-23T10:11:44Z</time>
      </trkpt>
      <trkpt lat="42.7255100" lon="-8.6529380">
        <ele>7.6</ele>
        <time>2021-05-23T10:11:45Z</time>
      </trkpt>
      <trkpt lat="42.7255080" lon="-8.6529470">
        <ele>7.7</ele>
        <time>2021-05-23T10:11:46Z</time>
      </trkpt>
      <trkpt lat="42.7255130" lon="-8.6529700">
        <ele>7.8</ele>
        <time>2021-05-23T10:11:47Z</time>
      </trkpt>
      <trkpt lat="42.7255180" lon="-8.6529740">
        <ele>7.8</ele>
        <time>2021-05-23T10:11:48Z</time>
      </trkpt>
      <trkpt lat="42.7255220" lon="-8.6529770">
        <ele>7.8</ele>
        <time>2021-05-23T10:11:49Z</time>
      </trkpt>
      <trkpt lat="42.7255260" lon="-8.6529800">
        <ele>7.9</ele>
        <time>2021-05-23T10:11:50Z</time>
      </trkpt>
      <trkpt lat="42.7255310" lon="-8.6529840">
        <ele>7.9</ele>
        <time>2021-05-23T10:11:51Z</time>
      </trkpt>
      <trkpt lat="42.7255350" lon="-8.6529870">
        <ele>7.9</ele>
        <time>2021-05-23T10:11:52Z</time>
      </trkpt>
      <trkpt lat="42.7255440" lon="-8.6529950">
        <ele>8.0</ele>
        <time>2021-05-23T10:11:53Z</time>
      </trkpt>
      <trkpt lat="42.7255530" lon="-8.6530080">
        <ele>8.1</ele>
        <time>2021-05-23T10:11:54Z</time>
      </trkpt>
      <trkpt lat="42.7255540" lon="-8.6530150">
        <ele>8.2</ele>
        <time>2021-05-23T10:11:55Z</time>
      </trkpt>
      <trkpt lat="42.7255470" lon="-8.6530150">
        <ele>8.2</ele>
        <time>2021-05-23T10:11:56Z</time>
      </trkpt>
      <trkpt lat="42.7255450" lon="-8.6530220">
        <ele>8.2</ele>
        <time>2021-05-23T10:11:57Z</time>
      </trkpt>
      <trkpt lat="42.7255420" lon="-8.6530430">
        <ele>8.4</ele>
        <time>2021-05-23T10:11:58Z</time>
      </trkpt>
      <trkpt lat="42.7255480" lon="-8.6530540">
        <ele>8.4</ele>
        <time>2021-05-23T10:11:59Z</time>
      </trkpt>
      <trkpt lat="42.7255520" lon="-8.6530640">
        <ele>8.5</ele>
        <time>2021-05-23T10:12:00Z</time>
      </trkpt>
      <trkpt lat="42.7255420" lon="-8.6530780">
        <ele>8.6</ele>
        <time>2021-05-23T10:12:01Z</time>
      </trkpt>
      <trkpt lat="42.7255440" lon="-8.6530880">
        <ele>8.6</ele>
        <time>2021-05-23T10:12:02Z</time>
      </trkpt>
      <trkpt lat="42.7255500" lon="-8.6531010">
        <ele>8.7</ele>
        <time>2021-05-23T10:12:03Z</time>
      </trkpt>
      <trkpt lat="42.7255530" lon="-8.6531150">
        <ele>8.7</ele>
        <time>2021-05-23T10:12:04Z</time>
      </trkpt>
      <trkpt lat="42.7255430" lon="-8.6531270">
        <ele>8.8</ele>
        <time>2021-05-23T10:12:05Z</time>
      </trkpt>
      <trkpt lat="42.7255450" lon="-8.6531440">
        <ele>9.0</ele>
        <time>2021-05-23T10:12:06Z</time>
      </trkpt>
      <trkpt lat="42.7255460" lon="-8.6531620">
        <ele>9.0</ele>
        <time>2021-05-23T10:12:07Z</time>
      </trkpt>
      <trkpt lat="42.7255430" lon="-8.6531740">
        <ele>9.0</ele>
        <time>2021-05-23T10:12:08Z</time>
      </trkpt>
      <trkpt lat="42.7255360" lon="-8.6531800">
        <ele>9.0</ele>
        <time>2021-05-23T10:12:09Z</time>
      </trkpt>
      <trkpt lat="42.7255310" lon="-8.6531930">
        <ele>9.0</ele>
        <time>2021-05-23T10:12:10Z</time>
      </trkpt>
      <trkpt lat="42.7255220" lon="-8.6532210">
        <ele>9.0</ele>
        <time>2021-05-23T10:12:11Z</time>
      </trkpt>
      <trkpt lat="42.7255220" lon="-8.6532320">
        <ele>9.0</ele>
        <time>2021-05-23T10:12:12Z</time>
      </trkpt>
      <trkpt lat="42.7255190" lon="-8.6532610">
        <ele>8.9</ele>
        <time>2021-05-23T10:12:13Z</time>
      </trkpt>
      <trkpt lat="42.7255260" lon="-8.6532850">
        <ele>8.9</ele>
        <time>2021-05-23T10:12:14Z</time>
      </trkpt>
      <trkpt lat="42.7255330" lon="-8.6532950">
        <ele>8.9</ele>
        <time>2021-05-23T10:12:15Z</time>
      </trkpt>
      <trkpt lat="42.7255390" lon="-8.6533040">
        <ele>8.9</ele>
        <time>2021-05-23T10:12:16Z</time>
      </trkpt>
      <trkpt lat="42.7255430" lon="-8.6533140">
        <ele>8.9</ele>
        <time>2021-05-23T10:12:17Z</time>
      </trkpt>
      <trkpt lat="42.7255400" lon="-8.6533300">
        <ele>8.9</ele>
        <time>2021-05-23T10:12:18Z</time>
      </trkpt>
      <trkpt lat="42.7255580" lon="-8.6533420">
        <ele>8.8</ele>
        <time>2021-05-23T10:12:19Z</time>
      </trkpt>
      <trkpt lat="42.7255580" lon="-8.6533630">
        <ele>8.8</ele>
        <time>2021-05-23T10:12:20Z</time>
      </trkpt>
      <trkpt lat="42.7255590" lon="-8.6533780">
        <ele>8.8</ele>
        <time>2021-05-23T10:12:21Z</time>
      </trkpt>
      <trkpt lat="42.7255630" lon="-8.6533890">
        <ele>8.8</ele>
        <time>2021-05-23T10:12:22Z</time>
      </trkpt>
      <trkpt lat="42.7255600" lon="-8.6534060">
        <ele>8.8</ele>
        <time>2021-05-23T10:12:23Z</time>
      </trkpt>
      <trkpt lat="42.7255600" lon="-8.6534300">
        <ele>8.8</ele>
        <time>2021-05-23T10:12:24Z</time>
      </trkpt>
      <trkpt lat="42.7255570" lon="-8.6534530">
        <ele>8.8</ele>
        <time>2021-05-23T10:12:25Z</time>
      </trkpt>
      <trkpt lat="42.7255530" lon="-8.6534660">
        <ele>8.8</ele>
        <time>2021-05-23T10:12:26Z</time>
      </trkpt>
      <trkpt lat="42.7255500" lon="-8.6534790">
        <ele>8.8</ele>
        <time>2021-05-23T10:12:27Z</time>
      </trkpt>
      <trkpt lat="42.7255540" lon="-8.6534970">
        <ele>8.8</ele>
        <time>2021-05-23T10:12:28Z</time>
      </trkpt>
      <trkpt lat="42.7255570" lon="-8.6535220">
        <ele>8.7</ele>
        <time>2021-05-23T10:12:29Z</time>
      </trkpt>
      <trkpt lat="42.7255640" lon="-8.6535400">
        <ele>8.7</ele>
        <time>2021-05-23T10:12:30Z</time>
      </trkpt>
      <trkpt lat="42.7255710" lon="-8.6535570">
        <ele>8.7</ele>
        <time>2021-05-23T10:12:31Z</time>
      </trkpt>
      <trkpt lat="42.7255700" lon="-8.6535650">
        <ele>8.7</ele>
        <time>2021-05-23T10:12:32Z</time>
      </trkpt>
      <trkpt lat="42.7255640" lon="-8.6535760">
        <ele>8.7</ele>
        <time>2021-05-23T10:12:33Z</time>
      </trkpt>
      <trkpt lat="42.7255620" lon="-8.6535680">
        <ele>8.7</ele>
        <time>2021-05-23T10:12:34Z</time>
      </trkpt>
      <trkpt lat="42.7255610" lon="-8.6535690">
        <ele>8.7</ele>
        <time>2021-05-23T10:12:35Z</time>
      </trkpt>
      <trkpt lat="42.7255540" lon="-8.6535840">
        <ele>8.7</ele>
        <time>2021-05-23T10:12:36Z</time>
      </trkpt>
      <trkpt lat="42.7255620" lon="-8.6536000">
        <ele>8.7</ele>
        <time>2021-05-23T10:12:37Z</time>
      </trkpt>
      <trkpt lat="42.7255530" lon="-8.6536140">
        <ele>8.7</ele>
        <time>2021-05-23T10:12:38Z</time>
      </trkpt>
      <trkpt lat="42.7255580" lon="-8.6536220">
        <ele>8.7</ele>
        <time>2021-05-23T10:12:39Z</time>
      </trkpt>
      <trkpt lat="42.7255640" lon="-8.6536360">
        <ele>8.7</ele>
        <time>2021-05-23T10:12:40Z</time>
      </trkpt>
      <trkpt lat="42.7255750" lon="-8.6536390">
        <ele>8.7</ele>
        <time>2021-05-23T10:12:41Z</time>
      </trkpt>
      <trkpt lat="42.7255770" lon="-8.6536500">
        <ele>8.7</ele>
        <time>2021-05-23T10:12:42Z</time>
      </trkpt>
      <trkpt lat="42.7255780" lon="-8.6536520">
        <ele>8.7</ele>
        <time>2021-05-23T10:12:43Z</time>
      </trkpt>
      <trkpt lat="42.7255840" lon="-8.6536600">
        <ele>8.7</ele>
        <time>2021-05-23T10:12:44Z</time>
      </trkpt>
      <trkpt lat="42.7255870" lon="-8.6536760">
        <ele>8.6</ele>
        <time>2021-05-23T10:12:45Z</time>
      </trkpt>
      <trkpt lat="42.7255910" lon="-8.6536870">
        <ele>8.6</ele>
        <time>2021-05-23T10:12:46Z</time>
      </trkpt>
      <trkpt lat="42.7256000" lon="-8.6536880">
        <ele>8.6</ele>
        <time>2021-05-23T10:12:47Z</time>
      </trkpt>
      <trkpt lat="42.7256060" lon="-8.6536940">
        <ele>8.6</ele>
        <time>2021-05-23T10:12:48Z</time>
      </trkpt>
      <trkpt lat="42.7256130" lon="-8.6537070">
        <ele>8.6</ele>
        <time>2021-05-23T10:12:49Z</time>
      </trkpt>
      <trkpt lat="42.7256200" lon="-8.6537190">
        <ele>8.6</ele>
        <time>2021-05-23T10:12:50Z</time>
      </trkpt>
      <trkpt lat="42.7256280" lon="-8.6537310">
        <ele>8.6</ele>
        <time>2021-05-23T10:12:51Z</time>
      </trkpt>
      <trkpt lat="42.7256280" lon="-8.6537480">
        <ele>8.6</ele>
        <time>2021-05-23T10:12:52Z</time>
      </trkpt>
      <trkpt lat="42.7256240" lon="-8.6537550">
        <ele>8.6</ele>
        <time>2021-05-23T10:12:53Z</time>
      </trkpt>
      <trkpt lat="42.7256220" lon="-8.6537700">
        <ele>8.6</ele>
        <time>2021-05-23T10:12:54Z</time>
      </trkpt>
      <trkpt lat="42.7256110" lon="-8.6537770">
        <ele>8.6</ele>
        <time>2021-05-23T10:12:55Z</time>
      </trkpt>
      <trkpt lat="42.7256020" lon="-8.6538170">
        <ele>8.6</ele>
        <time>2021-05-23T10:12:56Z</time>
      </trkpt>
      <trkpt lat="42.7255990" lon="-8.6538340">
        <ele>8.6</ele>
        <time>2021-05-23T10:12:57Z</time>
      </trkpt>
      <trkpt lat="42.7255960" lon="-8.6538550">
        <ele>8.6</ele>
        <time>2021-05-23T10:12:58Z</time>
      </trkpt>
      <trkpt lat="42.7255940" lon="-8.6538810">
        <ele>8.6</ele>
        <time>2021-05-23T10:12:59Z</time>
      </trkpt>
      <trkpt lat="42.7255860" lon="-8.6539110">
        <ele>8.5</ele>
        <time>2021-05-23T10:13:00Z</time>
      </trkpt>
      <trkpt lat="42.7255820" lon="-8.6539240">
        <ele>8.5</ele>
        <time>2021-05-23T10:13:01Z</time>
      </trkpt>
      <trkpt lat="42.7255780" lon="-8.6539370">
        <ele>8.5</ele>
        <time>2021-05-23T10:13:02Z</time>
      </trkpt>
      <trkpt lat="42.7255760" lon="-8.6539550">
        <ele>8.5</ele>
        <time>2021-05-23T10:13:03Z</time>
      </trkpt>
      <trkpt lat="42.7255720" lon="-8.6539660">
        <ele>8.5</ele>
        <time>2021-05-23T10:13:04Z</time>
      </trkpt>
      <trkpt lat="42.7255590" lon="-8.6539710">
        <ele>8.5</ele>
        <time>2021-05-23T10:13:05Z</time>
      </trkpt>
      <trkpt lat="42.7255620" lon="-8.6539750">
        <ele>8.5</ele>
        <time>2021-05-23T10:13:06Z</time>
      </trkpt>
      <trkpt lat="42.7255650" lon="-8.6539820">
        <ele>8.5</ele>
        <time>2021-05-23T10:13:07Z</time>
      </trkpt>
      <trkpt lat="42.7255640" lon="-8.6539810">
        <ele>8.5</ele>
        <time>2021-05-23T10:13:08Z</time>
      </trkpt>
      <trkpt lat="42.7255660" lon="-8.6539730">
        <ele>8.5</ele>
        <time>2021-05-23T10:13:09Z</time>
      </trkpt>
      <trkpt lat="42.7255710" lon="-8.6539650">
        <ele>8.5</ele>
        <time>2021-05-23T10:13:10Z</time>
      </trkpt>
      <trkpt lat="42.7255710" lon="-8.6539820">
        <ele>8.5</ele>
        <time>2021-05-23T10:13:11Z</time>
      </trkpt>
      <trkpt lat="42.7255720" lon="-8.6540010">
        <ele>8.5</ele>
        <time>2021-05-23T10:13:12Z</time>
      </trkpt>
      <trkpt lat="42.7255700" lon="-8.6540140">
        <ele>8.5</ele>
        <time>2021-05-23T10:13:13Z</time>
      </trkpt>
      <trkpt lat="42.7255670" lon="-8.6540300">
        <ele>8.5</ele>
        <time>2021-05-23T10:13:14Z</time>
      </trkpt>
      <trkpt lat="42.7255700" lon="-8.6540340">
        <ele>8.5</ele>
        <time>2021-05-23T10:13:15Z</time>
      </trkpt>
      <trkpt lat="42.7255710" lon="-8.6540560">
        <ele>8.4</ele>
        <time>2021-05-23T10:13:16Z</time>
      </trkpt>
      <trkpt lat="42.7255750" lon="-8.6540610">
        <ele>8.4</ele>
        <time>2021-05-23T10:13:17Z</time>
      </trkpt>
      <trkpt lat="42.7255750" lon="-8.6540830">
        <ele>8.4</ele>
        <time>2021-05-23T10:13:18Z</time>
      </trkpt>
      <trkpt lat="42.7255690" lon="-8.6541010">
        <ele>8.4</ele>
        <time>2021-05-23T10:13:19Z</time>
      </trkpt>
      <trkpt lat="42.7255660" lon="-8.6541170">
        <ele>8.4</ele>
        <time>2021-05-23T10:13:20Z</time>
      </trkpt>
      <trkpt lat="42.7255660" lon="-8.6541330">
        <ele>8.4</ele>
        <time>2021-05-23T10:13:21Z</time>
      </trkpt>
      <trkpt lat="42.7255640" lon="-8.6541490">
        <ele>8.4</ele>
        <time>2021-05-23T10:13:22Z</time>
      </trkpt>
      <trkpt lat="42.7255590" lon="-8.6541650">
        <ele>8.4</ele>
        <time>2021-05-23T10:13:23Z</time>
      </trkpt>
      <trkpt lat="42.7255610" lon="-8.6541820">
        <ele>8.4</ele>
        <time>2021-05-23T10:13:24Z</time>
      </trkpt>
      <trkpt lat="42.7255580" lon="-8.6541910">
        <ele>8.4</ele>
        <time>2021-05-23T10:13:25Z</time>
      </trkpt>
      <trkpt lat="42.7255600" lon="-8.6542110">
        <ele>8.4</ele>
        <time>2021-05-23T10:13:26Z</time>
      </trkpt>
      <trkpt lat="42.7255600" lon="-8.6542310">
        <ele>8.4</ele>
        <time>2021-05-23T10:13:27Z</time>
      </trkpt>
      <trkpt lat="42.7255630" lon="-8.6542540">
        <ele>8.4</ele>
        <time>2021-05-23T10:13:28Z</time>
      </trkpt>
      <trkpt lat="42.7255630" lon="-8.6542640">
        <ele>8.4</ele>
        <time>2021-05-23T10:13:29Z</time>
      </trkpt>
      <trkpt lat="42.7255620" lon="-8.6542750">
        <ele>8.4</ele>
        <time>2021-05-23T10:13:30Z</time>
      </trkpt>
      <trkpt lat="42.7255610" lon="-8.6542850">
        <ele>8.4</ele>
        <time>2021-05-23T10:13:31Z</time>
      </trkpt>
      <trkpt lat="42.7255580" lon="-8.6543150">
        <ele>8.4</ele>
        <time>2021-05-23T10:13:32Z</time>
      </trkpt>
      <trkpt lat="42.7255570" lon="-8.6543260">
        <ele>8.4</ele>
        <time>2021-05-23T10:13:33Z</time>
      </trkpt>
      <trkpt lat="42.7255550" lon="-8.6543370">
        <ele>8.4</ele>
        <time>2021-05-23T10:13:34Z</time>
      </trkpt>
      <trkpt lat="42.7255470" lon="-8.6543570">
        <ele>8.4</ele>
        <time>2021-05-23T10:13:35Z</time>
      </trkpt>
      <trkpt lat="42.7255440" lon="-8.6543720">
        <ele>8.4</ele>
        <time>2021-05-23T10:13:36Z</time>
      </trkpt>
      <trkpt lat="42.7255380" lon="-8.6543950">
        <ele>8.4</ele>
        <time>2021-05-23T10:13:37Z</time>
      </trkpt>
      <trkpt lat="42.7255340" lon="-8.6544090">
        <ele>8.4</ele>
        <time>2021-05-23T10:13:38Z</time>
      </trkpt>
      <trkpt lat="42.7255310" lon="-8.6544240">
        <ele>8.4</ele>
        <time>2021-05-23T10:13:39Z</time>
      </trkpt>
      <trkpt lat="42.7255330" lon="-8.6544390">
        <ele>8.4</ele>
        <time>2021-05-23T10:13:40Z</time>
      </trkpt>
      <trkpt lat="42.7255300" lon="-8.6544540">
        <ele>8.4</ele>
        <time>2021-05-23T10:13:41Z</time>
      </trkpt>
      <trkpt lat="42.7255280" lon="-8.6544670">
        <ele>8.4</ele>
        <time>2021-05-23T10:13:42Z</time>
      </trkpt>
      <trkpt lat="42.7255190" lon="-8.6545060">
        <ele>8.5</ele>
        <time>2021-05-23T10:13:43Z</time>
      </trkpt>
      <trkpt lat="42.7255170" lon="-8.6545170">
        <ele>8.5</ele>
        <time>2021-05-23T10:13:44Z</time>
      </trkpt>
      <trkpt lat="42.7255190" lon="-8.6545460">
        <ele>8.5</ele>
        <time>2021-05-23T10:13:45Z</time>
      </trkpt>
      <trkpt lat="42.7255190" lon="-8.6545590">
        <ele>8.5</ele>
        <time>2021-05-23T10:13:46Z</time>
      </trkpt>
      <trkpt lat="42.7255200" lon="-8.6545710">
        <ele>8.5</ele>
        <time>2021-05-23T10:13:47Z</time>
      </trkpt>
      <trkpt lat="42.7255170" lon="-8.6546080">
        <ele>8.5</ele>
        <time>2021-05-23T10:13:48Z</time>
      </trkpt>
      <trkpt lat="42.7255160" lon="-8.6546200">
        <ele>8.5</ele>
        <time>2021-05-23T10:13:49Z</time>
      </trkpt>
      <trkpt lat="42.7255140" lon="-8.6546350">
        <ele>8.5</ele>
        <time>2021-05-23T10:13:50Z</time>
      </trkpt>
      <trkpt lat="42.7255100" lon="-8.6546540">
        <ele>8.5</ele>
        <time>2021-05-23T10:13:51Z</time>
      </trkpt>
      <trkpt lat="42.7255110" lon="-8.6546650">
        <ele>8.5</ele>
        <time>2021-05-23T10:13:52Z</time>
      </trkpt>
      <trkpt lat="42.7255090" lon="-8.6546920">
        <ele>8.5</ele>
        <time>2021-05-23T10:13:53Z</time>
      </trkpt>
      <trkpt lat="42.7255090" lon="-8.6547050">
        <ele>8.5</ele>
        <time>2021-05-23T10:13:54Z</time>
      </trkpt>
      <trkpt lat="42.7255080" lon="-8.6547180">
        <ele>8.6</ele>
        <time>2021-05-23T10:13:55Z</time>
      </trkpt>
      <trkpt lat="42.7255050" lon="-8.6547460">
        <ele>8.6</ele>
        <time>2021-05-23T10:13:56Z</time>
      </trkpt>
      <trkpt lat="42.7255010" lon="-8.6547580">
        <ele>8.6</ele>
        <time>2021-05-23T10:13:57Z</time>
      </trkpt>
      <trkpt lat="42.7254980" lon="-8.6547700">
        <ele>8.6</ele>
        <time>2021-05-23T10:13:58Z</time>
      </trkpt>
      <trkpt lat="42.7254930" lon="-8.6547860">
        <ele>8.6</ele>
        <time>2021-05-23T10:13:59Z</time>
      </trkpt>
      <trkpt lat="42.7254920" lon="-8.6547980">
        <ele>8.6</ele>
        <time>2021-05-23T10:14:00Z</time>
      </trkpt>
      <trkpt lat="42.7254930" lon="-8.6548100">
        <ele>8.6</ele>
        <time>2021-05-23T10:14:01Z</time>
      </trkpt>
      <trkpt lat="42.7254900" lon="-8.6548260">
        <ele>8.6</ele>
        <time>2021-05-23T10:14:02Z</time>
      </trkpt>
      <trkpt lat="42.7254910" lon="-8.6548390">
        <ele>8.6</ele>
        <time>2021-05-23T10:14:03Z</time>
      </trkpt>
      <trkpt lat="42.7254870" lon="-8.6548580">
        <ele>8.6</ele>
        <time>2021-05-23T10:14:04Z</time>
      </trkpt>
      <trkpt lat="42.7254850" lon="-8.6548800">
        <ele>8.6</ele>
        <time>2021-05-23T10:14:05Z</time>
      </trkpt>
      <trkpt lat="42.7254850" lon="-8.6548900">
        <ele>8.6</ele>
        <time>2021-05-23T10:14:06Z</time>
      </trkpt>
      <trkpt lat="42.7254850" lon="-8.6549000">
        <ele>8.6</ele>
        <time>2021-05-23T10:14:07Z</time>
      </trkpt>
      <trkpt lat="42.7254850" lon="-8.6549100">
        <ele>8.6</ele>
        <time>2021-05-23T10:14:08Z</time>
      </trkpt>
      <trkpt lat="42.7254860" lon="-8.6549400">
        <ele>8.6</ele>
        <time>2021-05-23T10:14:09Z</time>
      </trkpt>
      <trkpt lat="42.7254850" lon="-8.6549520">
        <ele>8.6</ele>
        <time>2021-05-23T10:14:10Z</time>
      </trkpt>
      <trkpt lat="42.7254850" lon="-8.6549640">
        <ele>8.6</ele>
        <time>2021-05-23T10:14:11Z</time>
      </trkpt>
      <trkpt lat="42.7254840" lon="-8.6549770">
        <ele>8.6</ele>
        <time>2021-05-23T10:14:12Z</time>
      </trkpt>
      <trkpt lat="42.7254830" lon="-8.6549890">
        <ele>8.6</ele>
        <time>2021-05-23T10:14:13Z</time>
      </trkpt>
      <trkpt lat="42.7254830" lon="-8.6550030">
        <ele>8.6</ele>
        <time>2021-05-23T10:14:14Z</time>
      </trkpt>
      <trkpt lat="42.7254800" lon="-8.6550200">
        <ele>8.6</ele>
        <time>2021-05-23T10:14:15Z</time>
      </trkpt>
      <trkpt lat="42.7254810" lon="-8.6550290">
        <ele>8.6</ele>
        <time>2021-05-23T10:14:16Z</time>
      </trkpt>
      <trkpt lat="42.7254830" lon="-8.6550470">
        <ele>8.7</ele>
        <time>2021-05-23T10:14:17Z</time>
      </trkpt>
      <trkpt lat="42.7254830" lon="-8.6550670">
        <ele>8.7</ele>
        <time>2021-05-23T10:14:18Z</time>
      </trkpt>
      <trkpt lat="42.7254800" lon="-8.6550860">
        <ele>8.7</ele>
        <time>2021-05-23T10:14:19Z</time>
      </trkpt>
      <trkpt lat="42.7254770" lon="-8.6551040">
        <ele>8.7</ele>
        <time>2021-05-23T10:14:20Z</time>
      </trkpt>
      <trkpt lat="42.7254740" lon="-8.6551240">
        <ele>8.7</ele>
        <time>2021-05-23T10:14:21Z</time>
      </trkpt>
      <trkpt lat="42.7254740" lon="-8.6551500">
        <ele>8.7</ele>
        <time>2021-05-23T10:14:22Z</time>
      </trkpt>
      <trkpt lat="42.7254740" lon="-8.6551590">
        <ele>8.7</ele>
        <time>2021-05-23T10:14:23Z</time>
      </trkpt>
      <trkpt lat="42.7254730" lon="-8.6551690">
        <ele>8.7</ele>
        <time>2021-05-23T10:14:24Z</time>
      </trkpt>
      <trkpt lat="42.7254720" lon="-8.6551780">
        <ele>8.7</ele>
        <time>2021-05-23T10:14:25Z</time>
      </trkpt>
      <trkpt lat="42.7254680" lon="-8.6551920">
        <ele>8.7</ele>
        <time>2021-05-23T10:14:26Z</time>
      </trkpt>
      <trkpt lat="42.7254690" lon="-8.6552030">
        <ele>8.7</ele>
        <time>2021-05-23T10:14:27Z</time>
      </trkpt>
      <trkpt lat="42.7254680" lon="-8.6552160">
        <ele>8.7</ele>
        <time>2021-05-23T10:14:28Z</time>
      </trkpt>
      <trkpt lat="42.7254700" lon="-8.6552280">
        <ele>8.7</ele>
        <time>2021-05-23T10:14:29Z</time>
      </trkpt>
      <trkpt lat="42.7254680" lon="-8.6552420">
        <ele>8.7</ele>
        <time>2021-05-23T10:14:30Z</time>
      </trkpt>
      <trkpt lat="42.7254660" lon="-8.6552590">
        <ele>8.7</ele>
        <time>2021-05-23T10:14:31Z</time>
      </trkpt>
      <trkpt lat="42.7254630" lon="-8.6552870">
        <ele>8.8</ele>
        <time>2021-05-23T10:14:32Z</time>
      </trkpt>
      <trkpt lat="42.7254610" lon="-8.6552980">
        <ele>8.8</ele>
        <time>2021-05-23T10:14:33Z</time>
      </trkpt>
      <trkpt lat="42.7254600" lon="-8.6553100">
        <ele>8.8</ele>
        <time>2021-05-23T10:14:34Z</time>
      </trkpt>
      <trkpt lat="42.7254600" lon="-8.6553200">
        <ele>8.8</ele>
        <time>2021-05-23T10:14:35Z</time>
      </trkpt>
      <trkpt lat="42.7254610" lon="-8.6553300">
        <ele>8.8</ele>
        <time>2021-05-23T10:14:36Z</time>
      </trkpt>
      <trkpt lat="42.7254620" lon="-8.6553530">
        <ele>8.8</ele>
        <time>2021-05-23T10:14:37Z</time>
      </trkpt>
      <trkpt lat="42.7254590" lon="-8.6553760">
        <ele>8.8</ele>
        <time>2021-05-23T10:14:38Z</time>
      </trkpt>
      <trkpt lat="42.7254560" lon="-8.6553970">
        <ele>8.8</ele>
        <time>2021-05-23T10:14:39Z</time>
      </trkpt>
      <trkpt lat="42.7254540" lon="-8.6554120">
        <ele>8.8</ele>
        <time>2021-05-23T10:14:40Z</time>
      </trkpt>
      <trkpt lat="42.7254530" lon="-8.6554250">
        <ele>8.8</ele>
        <time>2021-05-23T10:14:41Z</time>
      </trkpt>
      <trkpt lat="42.7254510" lon="-8.6554380">
        <ele>8.8</ele>
        <time>2021-05-23T10:14:42Z</time>
      </trkpt>
      <trkpt lat="42.7254470" lon="-8.6554510">
        <ele>8.8</ele>
        <time>2021-05-23T10:14:43Z</time>
      </trkpt>
      <trkpt lat="42.7254450" lon="-8.6554610">
        <ele>8.8</ele>
        <time>2021-05-23T10:14:44Z</time>
      </trkpt>
      <trkpt lat="42.7254460" lon="-8.6554720">
        <ele>8.8</ele>
        <time>2021-05-23T10:14:45Z</time>
      </trkpt>
      <trkpt lat="42.7254420" lon="-8.6554780">
        <ele>8.8</ele>
        <time>2021-05-23T10:14:46Z</time>
      </trkpt>
      <trkpt lat="42.7254330" lon="-8.6554770">
        <ele>8.8</ele>
        <time>2021-05-23T10:14:47Z</time>
      </trkpt>
      <trkpt lat="42.7254240" lon="-8.6554780">
        <ele>8.8</ele>
        <time>2021-05-23T10:14:48Z</time>
      </trkpt>
      <trkpt lat="42.7254150" lon="-8.6554800">
        <ele>8.8</ele>
        <time>2021-05-23T10:14:49Z</time>
      </trkpt>
      <trkpt lat="42.7253920" lon="-8.6554870">
        <ele>8.8</ele>
        <time>2021-05-23T10:14:50Z</time>
      </trkpt>
      <trkpt lat="42.7253840" lon="-8.6554850">
        <ele>8.8</ele>
        <time>2021-05-23T10:14:51Z</time>
      </trkpt>
      <trkpt lat="42.7253750" lon="-8.6554820">
        <ele>8.8</ele>
        <time>2021-05-23T10:14:52Z</time>
      </trkpt>
      <trkpt lat="42.7253650" lon="-8.6554790">
        <ele>8.8</ele>
        <time>2021-05-23T10:14:53Z</time>
      </trkpt>
      <trkpt lat="42.7253570" lon="-8.6554750">
        <ele>8.8</ele>
        <time>2021-05-23T10:14:54Z</time>
      </trkpt>
      <trkpt lat="42.7253530" lon="-8.6554730">
        <ele>8.8</ele>
        <time>2021-05-23T10:14:55Z</time>
      </trkpt>
      <trkpt lat="42.7253420" lon="-8.6554750">
        <ele>8.8</ele>
        <time>2021-05-23T10:14:56Z</time>
      </trkpt>
      <trkpt lat="42.7253350" lon="-8.6554720">
        <ele>8.8</ele>
        <time>2021-05-23T10:14:57Z</time>
      </trkpt>
      <trkpt lat="42.7253240" lon="-8.6554740">
        <ele>8.8</ele>
        <time>2021-05-23T10:14:58Z</time>
      </trkpt>
      <trkpt lat="42.7253170" lon="-8.6554730">
        <ele>8.8</ele>
        <time>2021-05-23T10:14:59Z</time>
      </trkpt>
      <trkpt lat="42.7253130" lon="-8.6554750">
        <ele>8.8</ele>
        <time>2021-05-23T10:15:00Z</time>
      </trkpt>
      <trkpt lat="42.7253020" lon="-8.6554790">
        <ele>8.8</ele>
        <time>2021-05-23T10:15:01Z</time>
      </trkpt>
      <trkpt lat="42.7252930" lon="-8.6554800">
        <ele>8.8</ele>
        <time>2021-05-23T10:15:02Z</time>
      </trkpt>
      <trkpt lat="42.7252820" lon="-8.6554740">
        <ele>8.8</ele>
        <time>2021-05-23T10:15:03Z</time>
      </trkpt>
      <trkpt lat="42.7252720" lon="-8.6554760">
        <ele>8.8</ele>
        <time>2021-05-23T10:15:04Z</time>
      </trkpt>
      <trkpt lat="42.7252650" lon="-8.6554760">
        <ele>8.8</ele>
        <time>2021-05-23T10:15:05Z</time>
      </trkpt>
      <trkpt lat="42.7252600" lon="-8.6554790">
        <ele>8.8</ele>
        <time>2021-05-23T10:15:06Z</time>
      </trkpt>
      <trkpt lat="42.7252560" lon="-8.6554780">
        <ele>8.8</ele>
        <time>2021-05-23T10:15:07Z</time>
      </trkpt>
      <trkpt lat="42.7252540" lon="-8.6554870">
        <ele>8.8</ele>
        <time>2021-05-23T10:15:08Z</time>
      </trkpt>
      <trkpt lat="42.7252470" lon="-8.6554920">
        <ele>8.8</ele>
        <time>2021-05-23T10:15:09Z</time>
      </trkpt>
      <trkpt lat="42.7252490" lon="-8.6555040">
        <ele>8.8</ele>
        <time>2021-05-23T10:15:10Z</time>
      </trkpt>
      <trkpt lat="42.7252420" lon="-8.6555180">
        <ele>8.8</ele>
        <time>2021-05-23T10:15:11Z</time>
      </trkpt>
      <trkpt lat="42.7252430" lon="-8.6555330">
        <ele>8.8</ele>
        <time>2021-05-23T10:15:12Z</time>
      </trkpt>
      <trkpt lat="42.7252390" lon="-8.6555450">
        <ele>8.8</ele>
        <time>2021-05-23T10:15:13Z</time>
      </trkpt>
      <trkpt lat="42.7252420" lon="-8.6555600">
        <ele>8.8</ele>
        <time>2021-05-23T10:15:14Z</time>
      </trkpt>
      <trkpt lat="42.7252420" lon="-8.6555730">
        <ele>8.8</ele>
        <time>2021-05-23T10:15:15Z</time>
      </trkpt>
      <trkpt lat="42.7252450" lon="-8.6555830">
        <ele>8.8</ele>
        <time>2021-05-23T10:15:16Z</time>
      </trkpt>
      <trkpt lat="42.7252500" lon="-8.6555910">
        <ele>8.8</ele>
        <time>2021-05-23T10:15:17Z</time>
      </trkpt>
      <trkpt lat="42.7252510" lon="-8.6556030">
        <ele>8.8</ele>
        <time>2021-05-23T10:15:18Z</time>
      </trkpt>
      <trkpt lat="42.7252550" lon="-8.6556060">
        <ele>8.8</ele>
        <time>2021-05-23T10:15:19Z</time>
      </trkpt>
      <trkpt lat="42.7252600" lon="-8.6556050">
        <ele>8.8</ele>
        <time>2021-05-23T10:15:20Z</time>
      </trkpt>
      <trkpt lat="42.7252700" lon="-8.6556030">
        <ele>8.8</ele>
        <time>2021-05-23T10:15:21Z</time>
      </trkpt>
      <trkpt lat="42.7252750" lon="-8.6556010">
        <ele>8.8</ele>
        <time>2021-05-23T10:15:22Z</time>
      </trkpt>
      <trkpt lat="42.7252810" lon="-8.6555990">
        <ele>8.8</ele>
        <time>2021-05-23T10:15:23Z</time>
      </trkpt>
      <trkpt lat="42.7252880" lon="-8.6556000">
        <ele>8.8</ele>
        <time>2021-05-23T10:15:24Z</time>
      </trkpt>
      <trkpt lat="42.7253140" lon="-8.6556070">
        <ele>8.8</ele>
        <time>2021-05-23T10:15:25Z</time>
      </trkpt>
      <trkpt lat="42.7253210" lon="-8.6556090">
        <ele>8.8</ele>
        <time>2021-05-23T10:15:26Z</time>
      </trkpt>
      <trkpt lat="42.7253280" lon="-8.6556100">
        <ele>8.8</ele>
        <time>2021-05-23T10:15:27Z</time>
      </trkpt>
      <trkpt lat="42.7253350" lon="-8.6556120">
        <ele>8.8</ele>
        <time>2021-05-23T10:15:28Z</time>
      </trkpt>
      <trkpt lat="42.7253460" lon="-8.6556110">
        <ele>8.8</ele>
        <time>2021-05-23T10:15:29Z</time>
      </trkpt>
      <trkpt lat="42.7253520" lon="-8.6556170">
        <ele>8.8</ele>
        <time>2021-05-23T10:15:30Z</time>
      </trkpt>
      <trkpt lat="42.7253570" lon="-8.6556200">
        <ele>8.8</ele>
        <time>2021-05-23T10:15:31Z</time>
      </trkpt>
      <trkpt lat="42.7253670" lon="-8.6556200">
        <ele>8.8</ele>
        <time>2021-05-23T10:15:32Z</time>
      </trkpt>
      <trkpt lat="42.7253840" lon="-8.6556200">
        <ele>8.8</ele>
        <time>2021-05-23T10:15:33Z</time>
      </trkpt>
      <trkpt lat="42.7253920" lon="-8.6556220">
        <ele>8.8</ele>
        <time>2021-05-23T10:15:34Z</time>
      </trkpt>
      <trkpt lat="42.7254010" lon="-8.6556290">
        <ele>8.8</ele>
        <time>2021-05-23T10:15:35Z</time>
      </trkpt>
      <trkpt lat="42.7254010" lon="-8.6556390">
        <ele>8.8</ele>
        <time>2021-05-23T10:15:36Z</time>
      </trkpt>
      <trkpt lat="42.7254100" lon="-8.6556500">
        <ele>8.8</ele>
        <time>2021-05-23T10:15:37Z</time>
      </trkpt>
      <trkpt lat="42.7254190" lon="-8.6556590">
        <ele>8.8</ele>
        <time>2021-05-23T10:15:38Z</time>
      </trkpt>
      <trkpt lat="42.7254240" lon="-8.6556840">
        <ele>8.8</ele>
        <time>2021-05-23T10:15:39Z</time>
      </trkpt>
      <trkpt lat="42.7254260" lon="-8.6556960">
        <ele>8.8</ele>
        <time>2021-05-23T10:15:40Z</time>
      </trkpt>
      <trkpt lat="42.7254280" lon="-8.6557070">
        <ele>8.8</ele>
        <time>2021-05-23T10:15:41Z</time>
      </trkpt>
      <trkpt lat="42.7254340" lon="-8.6557260">
        <ele>8.8</ele>
        <time>2021-05-23T10:15:42Z</time>
      </trkpt>
      <trkpt lat="42.7254370" lon="-8.6557460">
        <ele>8.8</ele>
        <time>2021-05-23T10:15:43Z</time>
      </trkpt>
      <trkpt lat="42.7254340" lon="-8.6557640">
        <ele>8.8</ele>
        <time>2021-05-23T10:15:44Z</time>
      </trkpt>
      <trkpt lat="42.7254380" lon="-8.6557740">
        <ele>8.8</ele>
        <time>2021-05-23T10:15:45Z</time>
      </trkpt>
      <trkpt lat="42.7254450" lon="-8.6557830">
        <ele>8.8</ele>
        <time>2021-05-23T10:15:46Z</time>
      </trkpt>
      <trkpt lat="42.7254550" lon="-8.6558050">
        <ele>8.8</ele>
        <time>2021-05-23T10:15:47Z</time>
      </trkpt>
      <trkpt lat="42.7254610" lon="-8.6558150">
        <ele>8.8</ele>
        <time>2021-05-23T10:15:48Z</time>
      </trkpt>
      <trkpt lat="42.7254680" lon="-8.6558240">
        <ele>8.8</ele>
        <time>2021-05-23T10:15:49Z</time>
      </trkpt>
      <trkpt lat="42.7254760" lon="-8.6558340">
        <ele>8.8</ele>
        <time>2021-05-23T10:15:50Z</time>
      </trkpt>
      <trkpt lat="42.7254830" lon="-8.6558520">
        <ele>8.8</ele>
        <time>2021-05-23T10:15:51Z</time>
      </trkpt>
      <trkpt lat="42.7254750" lon="-8.6558610">
        <ele>8.8</ele>
        <time>2021-05-23T10:15:52Z</time>
      </trkpt>
      <trkpt lat="42.7254790" lon="-8.6558700">
        <ele>8.5</ele>
        <time>2021-05-23T10:15:53Z</time>
      </trkpt>
      <trkpt lat="42.7254780" lon="-8.6558830">
        <ele>8.5</ele>
        <time>2021-05-23T10:15:54Z</time>
      </trkpt>
      <trkpt lat="42.7254730" lon="-8.6559000">
        <ele>8.5</ele>
        <time>2021-05-23T10:15:55Z</time>
      </trkpt>
      <trkpt lat="42.7254770" lon="-8.6559080">
        <ele>8.5</ele>
        <time>2021-05-23T10:15:56Z</time>
      </trkpt>
      <trkpt lat="42.7254750" lon="-8.6559220">
        <ele>8.4</ele>
        <time>2021-05-23T10:15:57Z</time>
      </trkpt>
      <trkpt lat="42.7254790" lon="-8.6559380">
        <ele>8.4</ele>
        <time>2021-05-23T10:15:58Z</time>
      </trkpt>
      <trkpt lat="42.7254770" lon="-8.6559520">
        <ele>8.4</ele>
        <time>2021-05-23T10:15:59Z</time>
      </trkpt>
      <trkpt lat="42.7254740" lon="-8.6559670">
        <ele>8.3</ele>
        <time>2021-05-23T10:16:00Z</time>
      </trkpt>
      <trkpt lat="42.7254730" lon="-8.6559830">
        <ele>8.3</ele>
        <time>2021-05-23T10:16:01Z</time>
      </trkpt>
      <trkpt lat="42.7254670" lon="-8.6559930">
        <ele>8.3</ele>
        <time>2021-05-23T10:16:02Z</time>
      </trkpt>
      <trkpt lat="42.7254580" lon="-8.6560060">
        <ele>8.3</ele>
        <time>2021-05-23T10:16:03Z</time>
      </trkpt>
      <trkpt lat="42.7254490" lon="-8.6560190">
        <ele>8.2</ele>
        <time>2021-05-23T10:16:04Z</time>
      </trkpt>
      <trkpt lat="42.7254430" lon="-8.6560240">
        <ele>8.2</ele>
        <time>2021-05-23T10:16:05Z</time>
      </trkpt>
      <trkpt lat="42.7254380" lon="-8.6560330">
        <ele>8.2</ele>
        <time>2021-05-23T10:16:06Z</time>
      </trkpt>
      <trkpt lat="42.7254260" lon="-8.6560430">
        <ele>8.2</ele>
        <time>2021-05-23T10:16:07Z</time>
      </trkpt>
      <trkpt lat="42.7254220" lon="-8.6560430">
        <ele>8.1</ele>
        <time>2021-05-23T10:16:08Z</time>
      </trkpt>
      <trkpt lat="42.7254250" lon="-8.6560510">
        <ele>8.1</ele>
        <time>2021-05-23T10:16:09Z</time>
      </trkpt>
      <trkpt lat="42.7254330" lon="-8.6560610">
        <ele>8.1</ele>
        <time>2021-05-23T10:16:10Z</time>
      </trkpt>
      <trkpt lat="42.7254360" lon="-8.6560860">
        <ele>8.1</ele>
        <time>2021-05-23T10:16:11Z</time>
      </trkpt>
      <trkpt lat="42.7254420" lon="-8.6561030">
        <ele>8.1</ele>
        <time>2021-05-23T10:16:12Z</time>
      </trkpt>
      <trkpt lat="42.7254380" lon="-8.6561290">
        <ele>7.7</ele>
        <time>2021-05-23T10:16:13Z</time>
      </trkpt>
      <trkpt lat="42.7254430" lon="-8.6561330">
        <ele>7.7</ele>
        <time>2021-05-23T10:16:14Z</time>
      </trkpt>
      <trkpt lat="42.7254510" lon="-8.6561420">
        <ele>7.6</ele>
        <time>2021-05-23T10:16:15Z</time>
      </trkpt>
      <trkpt lat="42.7254590" lon="-8.6561500">
        <ele>7.6</ele>
        <time>2021-05-23T10:16:16Z</time>
      </trkpt>
      <trkpt lat="42.7254670" lon="-8.6561590">
        <ele>7.6</ele>
        <time>2021-05-23T10:16:17Z</time>
      </trkpt>
      <trkpt lat="42.7254760" lon="-8.6561490">
        <ele>7.6</ele>
        <time>2021-05-23T10:16:18Z</time>
      </trkpt>
      <trkpt lat="42.7254820" lon="-8.6561420">
        <ele>7.6</ele>
        <time>2021-05-23T10:16:19Z</time>
      </trkpt>
      <trkpt lat="42.7254910" lon="-8.6561310">
        <ele>7.6</ele>
        <time>2021-05-23T10:16:20Z</time>
      </trkpt>
      <trkpt lat="42.7254950" lon="-8.6561300">
        <ele>7.6</ele>
        <time>2021-05-23T10:16:21Z</time>
      </trkpt>
      <trkpt lat="42.7255060" lon="-8.6561230">
        <ele>7.5</ele>
        <time>2021-05-23T10:16:22Z</time>
      </trkpt>
      <trkpt lat="42.7255160" lon="-8.6561180">
        <ele>7.5</ele>
        <time>2021-05-23T10:16:23Z</time>
      </trkpt>
      <trkpt lat="42.7255330" lon="-8.6561190">
        <ele>7.5</ele>
        <time>2021-05-23T10:16:24Z</time>
      </trkpt>
      <trkpt lat="42.7255410" lon="-8.6561150">
        <ele>7.5</ele>
        <time>2021-05-23T10:16:25Z</time>
      </trkpt>
      <trkpt lat="42.7255520" lon="-8.6561140">
        <ele>7.4</ele>
        <time>2021-05-23T10:16:26Z</time>
      </trkpt>
      <trkpt lat="42.7255650" lon="-8.6561120">
        <ele>7.4</ele>
        <time>2021-05-23T10:16:27Z</time>
      </trkpt>
      <trkpt lat="42.7255790" lon="-8.6561200">
        <ele>7.4</ele>
        <time>2021-05-23T10:16:28Z</time>
      </trkpt>
      <trkpt lat="42.7255900" lon="-8.6561290">
        <ele>7.4</ele>
        <time>2021-05-23T10:16:29Z</time>
      </trkpt>
      <trkpt lat="42.7255910" lon="-8.6561390">
        <ele>7.3</ele>
        <time>2021-05-23T10:16:30Z</time>
      </trkpt>
      <trkpt lat="42.7255990" lon="-8.6561520">
        <ele>7.3</ele>
        <time>2021-05-23T10:16:31Z</time>
      </trkpt>
      <trkpt lat="42.7256130" lon="-8.6561720">
        <ele>7.2</ele>
        <time>2021-05-23T10:16:32Z</time>
      </trkpt>
      <trkpt lat="42.7256180" lon="-8.6561840">
        <ele>7.2</ele>
        <time>2021-05-23T10:16:33Z</time>
      </trkpt>
      <trkpt lat="42.7256230" lon="-8.6561950">
        <ele>7.2</ele>
        <time>2021-05-23T10:16:34Z</time>
      </trkpt>
      <trkpt lat="42.7256310" lon="-8.6562190">
        <ele>7.2</ele>
        <time>2021-05-23T10:16:35Z</time>
      </trkpt>
      <trkpt lat="42.7256350" lon="-8.6562370">
        <ele>7.2</ele>
        <time>2021-05-23T10:16:36Z</time>
      </trkpt>
      <trkpt lat="42.7256440" lon="-8.6562530">
        <ele>7.2</ele>
        <time>2021-05-23T10:16:37Z</time>
      </trkpt>
      <trkpt lat="42.7256480" lon="-8.6562620">
        <ele>7.3</ele>
        <time>2021-05-23T10:16:38Z</time>
      </trkpt>
      <trkpt lat="42.7256510" lon="-8.6562700">
        <ele>7.3</ele>
        <time>2021-05-23T10:16:39Z</time>
      </trkpt>
      <trkpt lat="42.7256540" lon="-8.6562790">
        <ele>7.3</ele>
        <time>2021-05-23T10:16:40Z</time>
      </trkpt>
      <trkpt lat="42.7256550" lon="-8.6562910">
        <ele>7.3</ele>
        <time>2021-05-23T10:16:41Z</time>
      </trkpt>
      <trkpt lat="42.7256570" lon="-8.6563030">
        <ele>7.3</ele>
        <time>2021-05-23T10:16:42Z</time>
      </trkpt>
      <trkpt lat="42.7256680" lon="-8.6563230">
        <ele>7.3</ele>
        <time>2021-05-23T10:16:43Z</time>
      </trkpt>
      <trkpt lat="42.7256710" lon="-8.6563450">
        <ele>7.3</ele>
        <time>2021-05-23T10:16:44Z</time>
      </trkpt>
      <trkpt lat="42.7256740" lon="-8.6563640">
        <ele>7.3</ele>
        <time>2021-05-23T10:16:45Z</time>
      </trkpt>
      <trkpt lat="42.7256770" lon="-8.6563700">
        <ele>7.3</ele>
        <time>2021-05-23T10:16:46Z</time>
      </trkpt>
      <trkpt lat="42.7256850" lon="-8.6563720">
        <ele>7.3</ele>
        <time>2021-05-23T10:16:47Z</time>
      </trkpt>
      <trkpt lat="42.7256900" lon="-8.6563890">
        <ele>7.3</ele>
        <time>2021-05-23T10:16:48Z</time>
      </trkpt>
      <trkpt lat="42.7256910" lon="-8.6564000">
        <ele>7.3</ele>
        <time>2021-05-23T10:16:49Z</time>
      </trkpt>
      <trkpt lat="42.7256950" lon="-8.6564170">
        <ele>7.3</ele>
        <time>2021-05-23T10:16:50Z</time>
      </trkpt>
      <trkpt lat="42.7256910" lon="-8.6564310">
        <ele>7.3</ele>
        <time>2021-05-23T10:16:51Z</time>
      </trkpt>
      <trkpt lat="42.7256940" lon="-8.6564450">
        <ele>7.3</ele>
        <time>2021-05-23T10:16:52Z</time>
      </trkpt>
      <trkpt lat="42.7256990" lon="-8.6564560">
        <ele>7.3</ele>
        <time>2021-05-23T10:16:53Z</time>
      </trkpt>
      <trkpt lat="42.7257030" lon="-8.6564700">
        <ele>7.3</ele>
        <time>2021-05-23T10:16:54Z</time>
      </trkpt>
      <trkpt lat="42.7257050" lon="-8.6564820">
        <ele>7.3</ele>
        <time>2021-05-23T10:16:55Z</time>
      </trkpt>
      <trkpt lat="42.7257080" lon="-8.6564960">
        <ele>7.3</ele>
        <time>2021-05-23T10:16:56Z</time>
      </trkpt>
      <trkpt lat="42.7257170" lon="-8.6565150">
        <ele>7.3</ele>
        <time>2021-05-23T10:16:57Z</time>
      </trkpt>
      <trkpt lat="42.7257320" lon="-8.6565370">
        <ele>7.3</ele>
        <time>2021-05-23T10:16:58Z</time>
      </trkpt>
      <trkpt lat="42.7257380" lon="-8.6565460">
        <ele>7.3</ele>
        <time>2021-05-23T10:16:59Z</time>
      </trkpt>
      <trkpt lat="42.7257430" lon="-8.6565550">
        <ele>7.3</ele>
        <time>2021-05-23T10:17:00Z</time>
      </trkpt>
      <trkpt lat="42.7257560" lon="-8.6565760">
        <ele>7.3</ele>
        <time>2021-05-23T10:17:01Z</time>
      </trkpt>
      <trkpt lat="42.7257630" lon="-8.6565840">
        <ele>7.3</ele>
        <time>2021-05-23T10:17:02Z</time>
      </trkpt>
      <trkpt lat="42.7257710" lon="-8.6565910">
        <ele>7.3</ele>
        <time>2021-05-23T10:17:03Z</time>
      </trkpt>
      <trkpt lat="42.7257850" lon="-8.6566070">
        <ele>7.3</ele>
        <time>2021-05-23T10:17:04Z</time>
      </trkpt>
      <trkpt lat="42.7257890" lon="-8.6566190">
        <ele>7.3</ele>
        <time>2021-05-23T10:17:05Z</time>
      </trkpt>
      <trkpt lat="42.7257910" lon="-8.6566260">
        <ele>7.3</ele>
        <time>2021-05-23T10:17:06Z</time>
      </trkpt>
      <trkpt lat="42.7257970" lon="-8.6566430">
        <ele>7.3</ele>
        <time>2021-05-23T10:17:07Z</time>
      </trkpt>
      <trkpt lat="42.7258000" lon="-8.6566660">
        <ele>7.3</ele>
        <time>2021-05-23T10:17:08Z</time>
      </trkpt>
      <trkpt lat="42.7257990" lon="-8.6566810">
        <ele>7.3</ele>
        <time>2021-05-23T10:17:09Z</time>
      </trkpt>
      <trkpt lat="42.7258010" lon="-8.6566920">
        <ele>7.3</ele>
        <time>2021-05-23T10:17:10Z</time>
      </trkpt>
      <trkpt lat="42.7258000" lon="-8.6567070">
        <ele>7.3</ele>
        <time>2021-05-23T10:17:11Z</time>
      </trkpt>
      <trkpt lat="42.7257990" lon="-8.6567230">
        <ele>7.3</ele>
        <time>2021-05-23T10:17:12Z</time>
      </trkpt>
      <trkpt lat="42.7258040" lon="-8.6567390">
        <ele>7.3</ele>
        <time>2021-05-23T10:17:13Z</time>
      </trkpt>
      <trkpt lat="42.7258090" lon="-8.6567460">
        <ele>7.3</ele>
        <time>2021-05-23T10:17:14Z</time>
      </trkpt>
      <trkpt lat="42.7258100" lon="-8.6567530">
        <ele>7.3</ele>
        <time>2021-05-23T10:17:15Z</time>
      </trkpt>
      <trkpt lat="42.7258160" lon="-8.6567610">
        <ele>7.3</ele>
        <time>2021-05-23T10:17:16Z</time>
      </trkpt>
      <trkpt lat="42.7258220" lon="-8.6567740">
        <ele>7.3</ele>
        <time>2021-05-23T10:17:17Z</time>
      </trkpt>
      <trkpt lat="42.7258250" lon="-8.6567890">
        <ele>7.3</ele>
        <time>2021-05-23T10:17:18Z</time>
      </trkpt>
      <trkpt lat="42.7258190" lon="-8.6568150">
        <ele>7.3</ele>
        <time>2021-05-23T10:17:19Z</time>
      </trkpt>
      <trkpt lat="42.7258220" lon="-8.6568280">
        <ele>7.3</ele>
        <time>2021-05-23T10:17:20Z</time>
      </trkpt>
      <trkpt lat="42.7258290" lon="-8.6568450">
        <ele>7.3</ele>
        <time>2021-05-23T10:17:21Z</time>
      </trkpt>
      <trkpt lat="42.7258360" lon="-8.6568560">
        <ele>7.3</ele>
        <time>2021-05-23T10:17:22Z</time>
      </trkpt>
      <trkpt lat="42.7258400" lon="-8.6568680">
        <ele>7.3</ele>
        <time>2021-05-23T10:17:23Z</time>
      </trkpt>
      <trkpt lat="42.7258400" lon="-8.6568880">
        <ele>7.3</ele>
        <time>2021-05-23T10:17:24Z</time>
      </trkpt>
      <trkpt lat="42.7258430" lon="-8.6568990">
        <ele>7.3</ele>
        <time>2021-05-23T10:17:25Z</time>
      </trkpt>
      <trkpt lat="42.7258500" lon="-8.6569100">
        <ele>7.3</ele>
        <time>2021-05-23T10:17:26Z</time>
      </trkpt>
      <trkpt lat="42.7258570" lon="-8.6569240">
        <ele>7.3</ele>
        <time>2021-05-23T10:17:27Z</time>
      </trkpt>
      <trkpt lat="42.7258660" lon="-8.6569280">
        <ele>7.3</ele>
        <time>2021-05-23T10:17:28Z</time>
      </trkpt>
      <trkpt lat="42.7258750" lon="-8.6569420">
        <ele>7.3</ele>
        <time>2021-05-23T10:17:29Z</time>
      </trkpt>
      <trkpt lat="42.7258810" lon="-8.6569560">
        <ele>7.3</ele>
        <time>2021-05-23T10:17:30Z</time>
      </trkpt>
      <trkpt lat="42.7258840" lon="-8.6569690">
        <ele>7.3</ele>
        <time>2021-05-23T10:17:31Z</time>
      </trkpt>
      <trkpt lat="42.7258830" lon="-8.6569840">
        <ele>7.3</ele>
        <time>2021-05-23T10:17:32Z</time>
      </trkpt>
      <trkpt lat="42.7258890" lon="-8.6570020">
        <ele>7.3</ele>
        <time>2021-05-23T10:17:33Z</time>
      </trkpt>
      <trkpt lat="42.7258920" lon="-8.6570150">
        <ele>7.3</ele>
        <time>2021-05-23T10:17:34Z</time>
      </trkpt>
      <trkpt lat="42.7258900" lon="-8.6570250">
        <ele>7.3</ele>
        <time>2021-05-23T10:17:35Z</time>
      </trkpt>
      <trkpt lat="42.7259000" lon="-8.6570430">
        <ele>7.3</ele>
        <time>2021-05-23T10:17:36Z</time>
      </trkpt>
      <trkpt lat="42.7259060" lon="-8.6570580">
        <ele>7.3</ele>
        <time>2021-05-23T10:17:37Z</time>
      </trkpt>
      <trkpt lat="42.7259050" lon="-8.6570770">
        <ele>7.3</ele>
        <time>2021-05-23T10:17:38Z</time>
      </trkpt>
      <trkpt lat="42.7259090" lon="-8.6570940">
        <ele>7.3</ele>
        <time>2021-05-23T10:17:39Z</time>
      </trkpt>
      <trkpt lat="42.7259150" lon="-8.6571030">
        <ele>7.3</ele>
        <time>2021-05-23T10:17:40Z</time>
      </trkpt>
      <trkpt lat="42.7259210" lon="-8.6571170">
        <ele>7.3</ele>
        <time>2021-05-23T10:17:41Z</time>
      </trkpt>
      <trkpt lat="42.7259300" lon="-8.6571320">
        <ele>7.3</ele>
        <time>2021-05-23T10:17:42Z</time>
      </trkpt>
      <trkpt lat="42.7259250" lon="-8.6571390">
        <ele>7.3</ele>
        <time>2021-05-23T10:17:43Z</time>
      </trkpt>
      <trkpt lat="42.7259270" lon="-8.6571540">
        <ele>7.3</ele>
        <time>2021-05-23T10:17:44Z</time>
      </trkpt>
      <trkpt lat="42.7259290" lon="-8.6571710">
        <ele>7.3</ele>
        <time>2021-05-23T10:17:45Z</time>
      </trkpt>
      <trkpt lat="42.7259370" lon="-8.6571800">
        <ele>7.3</ele>
        <time>2021-05-23T10:17:46Z</time>
      </trkpt>
      <trkpt lat="42.7259410" lon="-8.6572100">
        <ele>7.3</ele>
        <time>2021-05-23T10:17:47Z</time>
      </trkpt>
      <trkpt lat="42.7259420" lon="-8.6572220">
        <ele>7.3</ele>
        <time>2021-05-23T10:17:48Z</time>
      </trkpt>
      <trkpt lat="42.7259420" lon="-8.6572340">
        <ele>7.3</ele>
        <time>2021-05-23T10:17:49Z</time>
      </trkpt>
      <trkpt lat="42.7259450" lon="-8.6572510">
        <ele>7.3</ele>
        <time>2021-05-23T10:17:50Z</time>
      </trkpt>
      <trkpt lat="42.7259490" lon="-8.6572580">
        <ele>7.3</ele>
        <time>2021-05-23T10:17:51Z</time>
      </trkpt>
      <trkpt lat="42.7259510" lon="-8.6572730">
        <ele>7.3</ele>
        <time>2021-05-23T10:17:52Z</time>
      </trkpt>
      <trkpt lat="42.7259540" lon="-8.6572810">
        <ele>7.4</ele>
        <time>2021-05-23T10:17:53Z</time>
      </trkpt>
      <trkpt lat="42.7259520" lon="-8.6572960">
        <ele>7.4</ele>
        <time>2021-05-23T10:17:54Z</time>
      </trkpt>
      <trkpt lat="42.7259560" lon="-8.6573120">
        <ele>7.4</ele>
        <time>2021-05-23T10:17:55Z</time>
      </trkpt>
      <trkpt lat="42.7259620" lon="-8.6573310">
        <ele>7.4</ele>
        <time>2021-05-23T10:17:56Z</time>
      </trkpt>
      <trkpt lat="42.7259740" lon="-8.6573480">
        <ele>7.4</ele>
        <time>2021-05-23T10:17:57Z</time>
      </trkpt>
      <trkpt lat="42.7259740" lon="-8.6573700">
        <ele>7.4</ele>
        <time>2021-05-23T10:17:58Z</time>
      </trkpt>
      <trkpt lat="42.7259800" lon="-8.6573830">
        <ele>7.4</ele>
        <time>2021-05-23T10:17:59Z</time>
      </trkpt>
      <trkpt lat="42.7259850" lon="-8.6573930">
        <ele>7.4</ele>
        <time>2021-05-23T10:18:00Z</time>
      </trkpt>
      <trkpt lat="42.7259870" lon="-8.6574100">
        <ele>7.4</ele>
        <time>2021-05-23T10:18:01Z</time>
      </trkpt>
      <trkpt lat="42.7259920" lon="-8.6574240">
        <ele>7.4</ele>
        <time>2021-05-23T10:18:02Z</time>
      </trkpt>
      <trkpt lat="42.7259890" lon="-8.6574390">
        <ele>7.4</ele>
        <time>2021-05-23T10:18:03Z</time>
      </trkpt>
      <trkpt lat="42.7259950" lon="-8.6574570">
        <ele>7.4</ele>
        <time>2021-05-23T10:18:04Z</time>
      </trkpt>
      <trkpt lat="42.7259930" lon="-8.6574720">
        <ele>7.3</ele>
        <time>2021-05-23T10:18:05Z</time>
      </trkpt>
      <trkpt lat="42.7259880" lon="-8.6574870">
        <ele>7.3</ele>
        <time>2021-05-23T10:18:06Z</time>
      </trkpt>
      <trkpt lat="42.7259950" lon="-8.6575080">
        <ele>7.3</ele>
        <time>2021-05-23T10:18:07Z</time>
      </trkpt>
      <trkpt lat="42.7259870" lon="-8.6575260">
        <ele>7.3</ele>
        <time>2021-05-23T10:18:08Z</time>
      </trkpt>
      <trkpt lat="42.7259910" lon="-8.6575470">
        <ele>7.3</ele>
        <time>2021-05-23T10:18:09Z</time>
      </trkpt>
      <trkpt lat="42.7259900" lon="-8.6575630">
        <ele>7.3</ele>
        <time>2021-05-23T10:18:10Z</time>
      </trkpt>
      <trkpt lat="42.7259890" lon="-8.6575840">
        <ele>7.3</ele>
        <time>2021-05-23T10:18:11Z</time>
      </trkpt>
      <trkpt lat="42.7259890" lon="-8.6576020">
        <ele>7.3</ele>
        <time>2021-05-23T10:18:12Z</time>
      </trkpt>
      <trkpt lat="42.7259930" lon="-8.6576130">
        <ele>7.3</ele>
        <time>2021-05-23T10:18:13Z</time>
      </trkpt>
      <trkpt lat="42.7259860" lon="-8.6576410">
        <ele>7.3</ele>
        <time>2021-05-23T10:18:14Z</time>
      </trkpt>
      <trkpt lat="42.7259870" lon="-8.6576600">
        <ele>7.3</ele>
        <time>2021-05-23T10:18:15Z</time>
      </trkpt>
      <trkpt lat="42.7259980" lon="-8.6576650">
        <ele>7.3</ele>
        <time>2021-05-23T10:18:16Z</time>
      </trkpt>
      <trkpt lat="42.7260060" lon="-8.6576710">
        <ele>7.3</ele>
        <time>2021-05-23T10:18:17Z</time>
      </trkpt>
      <trkpt lat="42.7260160" lon="-8.6576820">
        <ele>7.3</ele>
        <time>2021-05-23T10:18:18Z</time>
      </trkpt>
      <trkpt lat="42.7260210" lon="-8.6576940">
        <ele>7.3</ele>
        <time>2021-05-23T10:18:19Z</time>
      </trkpt>
      <trkpt lat="42.7260290" lon="-8.6576960">
        <ele>7.3</ele>
        <time>2021-05-23T10:18:20Z</time>
      </trkpt>
      <trkpt lat="42.7260380" lon="-8.6577070">
        <ele>7.3</ele>
        <time>2021-05-23T10:18:21Z</time>
      </trkpt>
      <trkpt lat="42.7260410" lon="-8.6577240">
        <ele>7.3</ele>
        <time>2021-05-23T10:18:22Z</time>
      </trkpt>
      <trkpt lat="42.7260470" lon="-8.6577350">
        <ele>7.3</ele>
        <time>2021-05-23T10:18:23Z</time>
      </trkpt>
      <trkpt lat="42.7260570" lon="-8.6577480">
        <ele>7.3</ele>
        <time>2021-05-23T10:18:24Z</time>
      </trkpt>
      <trkpt lat="42.7260670" lon="-8.6577570">
        <ele>7.3</ele>
        <time>2021-05-23T10:18:25Z</time>
      </trkpt>
      <trkpt lat="42.7260730" lon="-8.6577670">
        <ele>7.3</ele>
        <time>2021-05-23T10:18:26Z</time>
      </trkpt>
      <trkpt lat="42.7260770" lon="-8.6577820">
        <ele>7.3</ele>
        <time>2021-05-23T10:18:27Z</time>
      </trkpt>
      <trkpt lat="42.7260860" lon="-8.6577960">
        <ele>7.3</ele>
        <time>2021-05-23T10:18:28Z</time>
      </trkpt>
      <trkpt lat="42.7260940" lon="-8.6578060">
        <ele>7.3</ele>
        <time>2021-05-23T10:18:29Z</time>
      </trkpt>
      <trkpt lat="42.7261010" lon="-8.6578180">
        <ele>7.3</ele>
        <time>2021-05-23T10:18:30Z</time>
      </trkpt>
      <trkpt lat="42.7261060" lon="-8.6578270">
        <ele>7.3</ele>
        <time>2021-05-23T10:18:31Z</time>
      </trkpt>
      <trkpt lat="42.7261100" lon="-8.6578370">
        <ele>7.3</ele>
        <time>2021-05-23T10:18:32Z</time>
      </trkpt>
      <trkpt lat="42.7261240" lon="-8.6578620">
        <ele>7.3</ele>
        <time>2021-05-23T10:18:33Z</time>
      </trkpt>
      <trkpt lat="42.7261290" lon="-8.6578680">
        <ele>7.3</ele>
        <time>2021-05-23T10:18:34Z</time>
      </trkpt>
      <trkpt lat="42.7261330" lon="-8.6578750">
        <ele>7.3</ele>
        <time>2021-05-23T10:18:35Z</time>
      </trkpt>
      <trkpt lat="42.7261350" lon="-8.6578900">
        <ele>7.3</ele>
        <time>2021-05-23T10:18:36Z</time>
      </trkpt>
      <trkpt lat="42.7261370" lon="-8.6579020">
        <ele>7.3</ele>
        <time>2021-05-23T10:18:37Z</time>
      </trkpt>
      <trkpt lat="42.7261470" lon="-8.6579140">
        <ele>7.3</ele>
        <time>2021-05-23T10:18:38Z</time>
      </trkpt>
      <trkpt lat="42.7261550" lon="-8.6579300">
        <ele>7.3</ele>
        <time>2021-05-23T10:18:39Z</time>
      </trkpt>
      <trkpt lat="42.7261630" lon="-8.6579390">
        <ele>7.3</ele>
        <time>2021-05-23T10:18:40Z</time>
      </trkpt>
      <trkpt lat="42.7261690" lon="-8.6579450">
        <ele>7.3</ele>
        <time>2021-05-23T10:18:41Z</time>
      </trkpt>
      <trkpt lat="42.7261760" lon="-8.6579490">
        <ele>7.3</ele>
        <time>2021-05-23T10:18:42Z</time>
      </trkpt>
      <trkpt lat="42.7261870" lon="-8.6579620">
        <ele>7.3</ele>
        <time>2021-05-23T10:18:43Z</time>
      </trkpt>
      <trkpt lat="42.7261890" lon="-8.6579710">
        <ele>7.3</ele>
        <time>2021-05-23T10:18:44Z</time>
      </trkpt>
      <trkpt lat="42.7261960" lon="-8.6579850">
        <ele>7.3</ele>
        <time>2021-05-23T10:18:45Z</time>
      </trkpt>
      <trkpt lat="42.7262060" lon="-8.6580090">
        <ele>7.3</ele>
        <time>2021-05-23T10:18:46Z</time>
      </trkpt>
      <trkpt lat="42.7262130" lon="-8.6580390">
        <ele>7.2</ele>
        <time>2021-05-23T10:18:47Z</time>
      </trkpt>
      <trkpt lat="42.7262170" lon="-8.6580500">
        <ele>7.2</ele>
        <time>2021-05-23T10:18:48Z</time>
      </trkpt>
      <trkpt lat="42.7262200" lon="-8.6580610">
        <ele>7.2</ele>
        <time>2021-05-23T10:18:49Z</time>
      </trkpt>
      <trkpt lat="42.7262210" lon="-8.6580760">
        <ele>7.2</ele>
        <time>2021-05-23T10:18:50Z</time>
      </trkpt>
      <trkpt lat="42.7262290" lon="-8.6580910">
        <ele>7.2</ele>
        <time>2021-05-23T10:18:51Z</time>
      </trkpt>
      <trkpt lat="42.7262330" lon="-8.6581040">
        <ele>7.2</ele>
        <time>2021-05-23T10:18:52Z</time>
      </trkpt>
      <trkpt lat="42.7262400" lon="-8.6581300">
        <ele>7.2</ele>
        <time>2021-05-23T10:18:53Z</time>
      </trkpt>
      <trkpt lat="42.7262440" lon="-8.6581420">
        <ele>7.2</ele>
        <time>2021-05-23T10:18:54Z</time>
      </trkpt>
      <trkpt lat="42.7262470" lon="-8.6581530">
        <ele>7.2</ele>
        <time>2021-05-23T10:18:55Z</time>
      </trkpt>
      <trkpt lat="42.7262580" lon="-8.6581720">
        <ele>7.2</ele>
        <time>2021-05-23T10:18:56Z</time>
      </trkpt>
      <trkpt lat="42.7262620" lon="-8.6581840">
        <ele>7.2</ele>
        <time>2021-05-23T10:18:57Z</time>
      </trkpt>
      <trkpt lat="42.7262670" lon="-8.6581950">
        <ele>7.2</ele>
        <time>2021-05-23T10:18:58Z</time>
      </trkpt>
      <trkpt lat="42.7262710" lon="-8.6582160">
        <ele>7.2</ele>
        <time>2021-05-23T10:18:59Z</time>
      </trkpt>
      <trkpt lat="42.7262680" lon="-8.6582400">
        <ele>7.2</ele>
        <time>2021-05-23T10:19:00Z</time>
      </trkpt>
      <trkpt lat="42.7262670" lon="-8.6582660">
        <ele>7.2</ele>
        <time>2021-05-23T10:19:01Z</time>
      </trkpt>
      <trkpt lat="42.7262640" lon="-8.6582860">
        <ele>7.2</ele>
        <time>2021-05-23T10:19:02Z</time>
      </trkpt>
      <trkpt lat="42.7262680" lon="-8.6583100">
        <ele>7.2</ele>
        <time>2021-05-23T10:19:03Z</time>
      </trkpt>
      <trkpt lat="42.7262690" lon="-8.6583270">
        <ele>7.2</ele>
        <time>2021-05-23T10:19:04Z</time>
      </trkpt>
      <trkpt lat="42.7262740" lon="-8.6583530">
        <ele>7.2</ele>
        <time>2021-05-23T10:19:05Z</time>
      </trkpt>
      <trkpt lat="42.7262820" lon="-8.6583620">
        <ele>7.3</ele>
        <time>2021-05-23T10:19:06Z</time>
      </trkpt>
      <trkpt lat="42.7262830" lon="-8.6583730">
        <ele>7.3</ele>
        <time>2021-05-23T10:19:07Z</time>
      </trkpt>
      <trkpt lat="42.7262800" lon="-8.6584010">
        <ele>7.3</ele>
        <time>2021-05-23T10:19:08Z</time>
      </trkpt>
      <trkpt lat="42.7262850" lon="-8.6584110">
        <ele>7.3</ele>
        <time>2021-05-23T10:19:09Z</time>
      </trkpt>
      <trkpt lat="42.7262920" lon="-8.6584170">
        <ele>7.3</ele>
        <time>2021-05-23T10:19:10Z</time>
      </trkpt>
      <trkpt lat="42.7263000" lon="-8.6584170">
        <ele>7.3</ele>
        <time>2021-05-23T10:19:11Z</time>
      </trkpt>
      <trkpt lat="42.7263060" lon="-8.6584260">
        <ele>7.3</ele>
        <time>2021-05-23T10:19:12Z</time>
      </trkpt>
      <trkpt lat="42.7263150" lon="-8.6584300">
        <ele>7.3</ele>
        <time>2021-05-23T10:19:13Z</time>
      </trkpt>
      <trkpt lat="42.7263260" lon="-8.6584390">
        <ele>7.3</ele>
        <time>2021-05-23T10:19:14Z</time>
      </trkpt>
      <trkpt lat="42.7263360" lon="-8.6584480">
        <ele>7.3</ele>
        <time>2021-05-23T10:19:15Z</time>
      </trkpt>
      <trkpt lat="42.7263440" lon="-8.6584570">
        <ele>7.3</ele>
        <time>2021-05-23T10:19:16Z</time>
      </trkpt>
      <trkpt lat="42.7263550" lon="-8.6584590">
        <ele>7.3</ele>
        <time>2021-05-23T10:19:17Z</time>
      </trkpt>
      <trkpt lat="42.7263650" lon="-8.6584670">
        <ele>7.3</ele>
        <time>2021-05-23T10:19:18Z</time>
      </trkpt>
      <trkpt lat="42.7263870" lon="-8.6584670">
        <ele>7.4</ele>
        <time>2021-05-23T10:19:19Z</time>
      </trkpt>
      <trkpt lat="42.7263970" lon="-8.6584690">
        <ele>7.4</ele>
        <time>2021-05-23T10:19:20Z</time>
      </trkpt>
      <trkpt lat="42.7264070" lon="-8.6584720">
        <ele>7.4</ele>
        <time>2021-05-23T10:19:21Z</time>
      </trkpt>
      <trkpt lat="42.7264230" lon="-8.6584640">
        <ele>7.4</ele>
        <time>2021-05-23T10:19:22Z</time>
      </trkpt>
      <trkpt lat="42.7264330" lon="-8.6584590">
        <ele>7.4</ele>
        <time>2021-05-23T10:19:23Z</time>
      </trkpt>
      <trkpt lat="42.7264450" lon="-8.6584610">
        <ele>7.4</ele>
        <time>2021-05-23T10:19:24Z</time>
      </trkpt>
      <trkpt lat="42.7264550" lon="-8.6584600">
        <ele>7.4</ele>
        <time>2021-05-23T10:19:25Z</time>
      </trkpt>
      <trkpt lat="42.7264670" lon="-8.6584530">
        <ele>7.4</ele>
        <time>2021-05-23T10:19:26Z</time>
      </trkpt>
      <trkpt lat="42.7264770" lon="-8.6584480">
        <ele>7.4</ele>
        <time>2021-05-23T10:19:27Z</time>
      </trkpt>
      <trkpt lat="42.7264870" lon="-8.6584480">
        <ele>7.4</ele>
        <time>2021-05-23T10:19:28Z</time>
      </trkpt>
      <trkpt lat="42.7265010" lon="-8.6584460">
        <ele>7.4</ele>
        <time>2021-05-23T10:19:29Z</time>
      </trkpt>
      <trkpt lat="42.7265230" lon="-8.6584450">
        <ele>7.4</ele>
        <time>2021-05-23T10:19:30Z</time>
      </trkpt>
      <trkpt lat="42.7265300" lon="-8.6584450">
        <ele>7.4</ele>
        <time>2021-05-23T10:19:31Z</time>
      </trkpt>
      <trkpt lat="42.7265380" lon="-8.6584440">
        <ele>7.4</ele>
        <time>2021-05-23T10:19:32Z</time>
      </trkpt>
      <trkpt lat="42.7265470" lon="-8.6584420">
        <ele>7.4</ele>
        <time>2021-05-23T10:19:33Z</time>
      </trkpt>
      <trkpt lat="42.7265590" lon="-8.6584370">
        <ele>7.4</ele>
        <time>2021-05-23T10:19:34Z</time>
      </trkpt>
      <trkpt lat="42.7265690" lon="-8.6584300">
        <ele>7.4</ele>
        <time>2021-05-23T10:19:35Z</time>
      </trkpt>
      <trkpt lat="42.7265800" lon="-8.6584280">
        <ele>7.4</ele>
        <time>2021-05-23T10:19:36Z</time>
      </trkpt>
      <trkpt lat="42.7265890" lon="-8.6584200">
        <ele>7.3</ele>
        <time>2021-05-23T10:19:37Z</time>
      </trkpt>
      <trkpt lat="42.7265980" lon="-8.6584180">
        <ele>7.3</ele>
        <time>2021-05-23T10:19:38Z</time>
      </trkpt>
      <trkpt lat="42.7266120" lon="-8.6584200">
        <ele>7.3</ele>
        <time>2021-05-23T10:19:39Z</time>
      </trkpt>
      <trkpt lat="42.7266190" lon="-8.6584170">
        <ele>7.3</ele>
        <time>2021-05-23T10:19:40Z</time>
      </trkpt>
      <trkpt lat="42.7266270" lon="-8.6584160">
        <ele>7.3</ele>
        <time>2021-05-23T10:19:41Z</time>
      </trkpt>
      <trkpt lat="42.7266430" lon="-8.6584110">
        <ele>7.3</ele>
        <time>2021-05-23T10:19:42Z</time>
      </trkpt>
      <trkpt lat="42.7266510" lon="-8.6584100">
        <ele>7.3</ele>
        <time>2021-05-23T10:19:43Z</time>
      </trkpt>
      <trkpt lat="42.7266580" lon="-8.6584080">
        <ele>7.3</ele>
        <time>2021-05-23T10:19:44Z</time>
      </trkpt>
      <trkpt lat="42.7266650" lon="-8.6584070">
        <ele>7.3</ele>
        <time>2021-05-23T10:19:45Z</time>
      </trkpt>
      <trkpt lat="42.7266780" lon="-8.6584070">
        <ele>7.3</ele>
        <time>2021-05-23T10:19:46Z</time>
      </trkpt>
      <trkpt lat="42.7266980" lon="-8.6584020">
        <ele>7.3</ele>
        <time>2021-05-23T10:19:47Z</time>
      </trkpt>
      <trkpt lat="42.7267090" lon="-8.6584150">
        <ele>7.3</ele>
        <time>2021-05-23T10:19:48Z</time>
      </trkpt>
      <trkpt lat="42.7267150" lon="-8.6584210">
        <ele>7.3</ele>
        <time>2021-05-23T10:19:49Z</time>
      </trkpt>
      <trkpt lat="42.7267210" lon="-8.6584330">
        <ele>7.3</ele>
        <time>2021-05-23T10:19:50Z</time>
      </trkpt>
      <trkpt lat="42.7267340" lon="-8.6584590">
        <ele>7.3</ele>
        <time>2021-05-23T10:19:51Z</time>
      </trkpt>
      <trkpt lat="42.7267360" lon="-8.6584710">
        <ele>7.3</ele>
        <time>2021-05-23T10:19:52Z</time>
      </trkpt>
      <trkpt lat="42.7267390" lon="-8.6584820">
        <ele>7.3</ele>
        <time>2021-05-23T10:19:53Z</time>
      </trkpt>
      <trkpt lat="42.7267480" lon="-8.6585010">
        <ele>7.3</ele>
        <time>2021-05-23T10:19:54Z</time>
      </trkpt>
      <trkpt lat="42.7267530" lon="-8.6585120">
        <ele>7.3</ele>
        <time>2021-05-23T10:19:55Z</time>
      </trkpt>
      <trkpt lat="42.7267530" lon="-8.6585270">
        <ele>7.2</ele>
        <time>2021-05-23T10:19:56Z</time>
      </trkpt>
      <trkpt lat="42.7267550" lon="-8.6585480">
        <ele>7.2</ele>
        <time>2021-05-23T10:19:57Z</time>
      </trkpt>
      <trkpt lat="42.7267520" lon="-8.6585750">
        <ele>7.2</ele>
        <time>2021-05-23T10:19:58Z</time>
      </trkpt>
      <trkpt lat="42.7267530" lon="-8.6585900">
        <ele>7.2</ele>
        <time>2021-05-23T10:19:59Z</time>
      </trkpt>
      <trkpt lat="42.7267580" lon="-8.6586030">
        <ele>7.2</ele>
        <time>2021-05-23T10:20:00Z</time>
      </trkpt>
      <trkpt lat="42.7267630" lon="-8.6586140">
        <ele>7.2</ele>
        <time>2021-05-23T10:20:01Z</time>
      </trkpt>
      <trkpt lat="42.7267650" lon="-8.6586320">
        <ele>7.2</ele>
        <time>2021-05-23T10:20:02Z</time>
      </trkpt>
      <trkpt lat="42.7267700" lon="-8.6586510">
        <ele>7.2</ele>
        <time>2021-05-23T10:20:03Z</time>
      </trkpt>
      <trkpt lat="42.7267720" lon="-8.6586650">
        <ele>7.2</ele>
        <time>2021-05-23T10:20:04Z</time>
      </trkpt>
      <trkpt lat="42.7267760" lon="-8.6586900">
        <ele>7.1</ele>
        <time>2021-05-23T10:20:05Z</time>
      </trkpt>
      <trkpt lat="42.7267800" lon="-8.6587100">
        <ele>7.1</ele>
        <time>2021-05-23T10:20:06Z</time>
      </trkpt>
      <trkpt lat="42.7267840" lon="-8.6587220">
        <ele>7.1</ele>
        <time>2021-05-23T10:20:07Z</time>
      </trkpt>
      <trkpt lat="42.7267820" lon="-8.6587380">
        <ele>7.1</ele>
        <time>2021-05-23T10:20:08Z</time>
      </trkpt>
      <trkpt lat="42.7267870" lon="-8.6587710">
        <ele>7.1</ele>
        <time>2021-05-23T10:20:09Z</time>
      </trkpt>
      <trkpt lat="42.7267860" lon="-8.6587820">
        <ele>7.1</ele>
        <time>2021-05-23T10:20:10Z</time>
      </trkpt>
      <trkpt lat="42.7267860" lon="-8.6587930">
        <ele>7.1</ele>
        <time>2021-05-23T10:20:11Z</time>
      </trkpt>
      <trkpt lat="42.7267840" lon="-8.6588110">
        <ele>7.1</ele>
        <time>2021-05-23T10:20:12Z</time>
      </trkpt>
      <trkpt lat="42.7267850" lon="-8.6588350">
        <ele>7.1</ele>
        <time>2021-05-23T10:20:13Z</time>
      </trkpt>
      <trkpt lat="42.7267810" lon="-8.6588550">
        <ele>7.1</ele>
        <time>2021-05-23T10:20:14Z</time>
      </trkpt>
      <trkpt lat="42.7267880" lon="-8.6588700">
        <ele>7.1</ele>
        <time>2021-05-23T10:20:15Z</time>
      </trkpt>
      <trkpt lat="42.7267890" lon="-8.6588740">
        <ele>7.1</ele>
        <time>2021-05-23T10:20:16Z</time>
      </trkpt>
      <trkpt lat="42.7267920" lon="-8.6588880">
        <ele>7.1</ele>
        <time>2021-05-23T10:20:17Z</time>
      </trkpt>
      <trkpt lat="42.7267950" lon="-8.6589040">
        <ele>7.1</ele>
        <time>2021-05-23T10:20:18Z</time>
      </trkpt>
      <trkpt lat="42.7267990" lon="-8.6589180">
        <ele>7.1</ele>
        <time>2021-05-23T10:20:19Z</time>
      </trkpt>
      <trkpt lat="42.7268050" lon="-8.6589370">
        <ele>7.1</ele>
        <time>2021-05-23T10:20:20Z</time>
      </trkpt>
      <trkpt lat="42.7268110" lon="-8.6589530">
        <ele>7.1</ele>
        <time>2021-05-23T10:20:21Z</time>
      </trkpt>
      <trkpt lat="42.7268160" lon="-8.6589810">
        <ele>7.1</ele>
        <time>2021-05-23T10:20:22Z</time>
      </trkpt>
      <trkpt lat="42.7268170" lon="-8.6589930">
        <ele>7.1</ele>
        <time>2021-05-23T10:20:23Z</time>
      </trkpt>
      <trkpt lat="42.7268190" lon="-8.6590050">
        <ele>7.1</ele>
        <time>2021-05-23T10:20:24Z</time>
      </trkpt>
      <trkpt lat="42.7268220" lon="-8.6590200">
        <ele>7.1</ele>
        <time>2021-05-23T10:20:25Z</time>
      </trkpt>
      <trkpt lat="42.7268230" lon="-8.6590330">
        <ele>7.1</ele>
        <time>2021-05-23T10:20:26Z</time>
      </trkpt>
      <trkpt lat="42.7268240" lon="-8.6590530">
        <ele>7.1</ele>
        <time>2021-05-23T10:20:27Z</time>
      </trkpt>
      <trkpt lat="42.7268280" lon="-8.6590570">
        <ele>7.1</ele>
        <time>2021-05-23T10:20:28Z</time>
      </trkpt>
      <trkpt lat="42.7268310" lon="-8.6590770">
        <ele>7.1</ele>
        <time>2021-05-23T10:20:29Z</time>
      </trkpt>
      <trkpt lat="42.7268340" lon="-8.6590940">
        <ele>7.1</ele>
        <time>2021-05-23T10:20:30Z</time>
      </trkpt>
      <trkpt lat="42.7268340" lon="-8.6591080">
        <ele>7.0</ele>
        <time>2021-05-23T10:20:31Z</time>
      </trkpt>
      <trkpt lat="42.7268410" lon="-8.6591200">
        <ele>7.0</ele>
        <time>2021-05-23T10:20:32Z</time>
      </trkpt>
      <trkpt lat="42.7268420" lon="-8.6591350">
        <ele>7.0</ele>
        <time>2021-05-23T10:20:33Z</time>
      </trkpt>
      <trkpt lat="42.7268460" lon="-8.6591490">
        <ele>7.0</ele>
        <time>2021-05-23T10:20:34Z</time>
      </trkpt>
      <trkpt lat="42.7268500" lon="-8.6591660">
        <ele>7.0</ele>
        <time>2021-05-23T10:20:35Z</time>
      </trkpt>
      <trkpt lat="42.7268550" lon="-8.6591730">
        <ele>7.0</ele>
        <time>2021-05-23T10:20:36Z</time>
      </trkpt>
      <trkpt lat="42.7268560" lon="-8.6591800">
        <ele>7.0</ele>
        <time>2021-05-23T10:20:37Z</time>
      </trkpt>
      <trkpt lat="42.7268580" lon="-8.6591930">
        <ele>7.0</ele>
        <time>2021-05-23T10:20:38Z</time>
      </trkpt>
      <trkpt lat="42.7268560" lon="-8.6592120">
        <ele>7.0</ele>
        <time>2021-05-23T10:20:39Z</time>
      </trkpt>
      <trkpt lat="42.7268620" lon="-8.6592200">
        <ele>7.0</ele>
        <time>2021-05-23T10:20:40Z</time>
      </trkpt>
      <trkpt lat="42.7268630" lon="-8.6592340">
        <ele>7.0</ele>
        <time>2021-05-23T10:20:41Z</time>
      </trkpt>
      <trkpt lat="42.7268690" lon="-8.6592460">
        <ele>7.0</ele>
        <time>2021-05-23T10:20:42Z</time>
      </trkpt>
      <trkpt lat="42.7268700" lon="-8.6592740">
        <ele>7.0</ele>
        <time>2021-05-23T10:20:43Z</time>
      </trkpt>
      <trkpt lat="42.7268680" lon="-8.6592860">
        <ele>7.0</ele>
        <time>2021-05-23T10:20:44Z</time>
      </trkpt>
      <trkpt lat="42.7268670" lon="-8.6592970">
        <ele>7.0</ele>
        <time>2021-05-23T10:20:45Z</time>
      </trkpt>
      <trkpt lat="42.7268740" lon="-8.6593130">
        <ele>7.0</ele>
        <time>2021-05-23T10:20:46Z</time>
      </trkpt>
      <trkpt lat="42.7268710" lon="-8.6593290">
        <ele>7.0</ele>
        <time>2021-05-23T10:20:47Z</time>
      </trkpt>
      <trkpt lat="42.7268710" lon="-8.6593460">
        <ele>7.0</ele>
        <time>2021-05-23T10:20:48Z</time>
      </trkpt>
      <trkpt lat="42.7268690" lon="-8.6593640">
        <ele>7.0</ele>
        <time>2021-05-23T10:20:49Z</time>
      </trkpt>
      <trkpt lat="42.7268690" lon="-8.6593830">
        <ele>7.0</ele>
        <time>2021-05-23T10:20:50Z</time>
      </trkpt>
      <trkpt lat="42.7268740" lon="-8.6593920">
        <ele>7.0</ele>
        <time>2021-05-23T10:20:51Z</time>
      </trkpt>
      <trkpt lat="42.7268740" lon="-8.6594090">
        <ele>7.0</ele>
        <time>2021-05-23T10:20:52Z</time>
      </trkpt>
      <trkpt lat="42.7268770" lon="-8.6594240">
        <ele>7.0</ele>
        <time>2021-05-23T10:20:53Z</time>
      </trkpt>
      <trkpt lat="42.7268760" lon="-8.6594310">
        <ele>7.0</ele>
        <time>2021-05-23T10:20:54Z</time>
      </trkpt>
      <trkpt lat="42.7268780" lon="-8.6594490">
        <ele>7.0</ele>
        <time>2021-05-23T10:20:55Z</time>
      </trkpt>
      <trkpt lat="42.7268800" lon="-8.6594670">
        <ele>7.0</ele>
        <time>2021-05-23T10:20:56Z</time>
      </trkpt>
      <trkpt lat="42.7268800" lon="-8.6594880">
        <ele>7.0</ele>
        <time>2021-05-23T10:20:57Z</time>
      </trkpt>
      <trkpt lat="42.7268890" lon="-8.6594940">
        <ele>7.0</ele>
        <time>2021-05-23T10:20:58Z</time>
      </trkpt>
      <trkpt lat="42.7268820" lon="-8.6595150">
        <ele>7.0</ele>
        <time>2021-05-23T10:20:59Z</time>
      </trkpt>
      <trkpt lat="42.7268890" lon="-8.6595220">
        <ele>7.0</ele>
        <time>2021-05-23T10:21:00Z</time>
      </trkpt>
      <trkpt lat="42.7268870" lon="-8.6595430">
        <ele>7.0</ele>
        <time>2021-05-23T10:21:01Z</time>
      </trkpt>
      <trkpt lat="42.7268900" lon="-8.6595560">
        <ele>7.0</ele>
        <time>2021-05-23T10:21:02Z</time>
      </trkpt>
      <trkpt lat="42.7268930" lon="-8.6595730">
        <ele>7.0</ele>
        <time>2021-05-23T10:21:03Z</time>
      </trkpt>
      <trkpt lat="42.7268950" lon="-8.6595940">
        <ele>7.0</ele>
        <time>2021-05-23T10:21:04Z</time>
      </trkpt>
      <trkpt lat="42.7269000" lon="-8.6596160">
        <ele>7.0</ele>
        <time>2021-05-23T10:21:05Z</time>
      </trkpt>
      <trkpt lat="42.7269010" lon="-8.6596260">
        <ele>7.0</ele>
        <time>2021-05-23T10:21:06Z</time>
      </trkpt>
      <trkpt lat="42.7269020" lon="-8.6596360">
        <ele>7.0</ele>
        <time>2021-05-23T10:21:07Z</time>
      </trkpt>
      <trkpt lat="42.7269030" lon="-8.6596460">
        <ele>7.0</ele>
        <time>2021-05-23T10:21:08Z</time>
      </trkpt>
      <trkpt lat="42.7269070" lon="-8.6596740">
        <ele>7.0</ele>
        <time>2021-05-23T10:21:09Z</time>
      </trkpt>
      <trkpt lat="42.7269110" lon="-8.6596860">
        <ele>7.0</ele>
        <time>2021-05-23T10:21:10Z</time>
      </trkpt>
      <trkpt lat="42.7269140" lon="-8.6596980">
        <ele>7.0</ele>
        <time>2021-05-23T10:21:11Z</time>
      </trkpt>
      <trkpt lat="42.7269260" lon="-8.6597220">
        <ele>7.0</ele>
        <time>2021-05-23T10:21:12Z</time>
      </trkpt>
      <trkpt lat="42.7269300" lon="-8.6597320">
        <ele>7.0</ele>
        <time>2021-05-23T10:21:13Z</time>
      </trkpt>
      <trkpt lat="42.7269350" lon="-8.6597420">
        <ele>7.0</ele>
        <time>2021-05-23T10:21:14Z</time>
      </trkpt>
      <trkpt lat="42.7269400" lon="-8.6597510">
        <ele>7.0</ele>
        <time>2021-05-23T10:21:15Z</time>
      </trkpt>
      <trkpt lat="42.7269470" lon="-8.6597580">
        <ele>7.0</ele>
        <time>2021-05-23T10:21:16Z</time>
      </trkpt>
      <trkpt lat="42.7269570" lon="-8.6597740">
        <ele>7.0</ele>
        <time>2021-05-23T10:21:17Z</time>
      </trkpt>
      <trkpt lat="42.7269660" lon="-8.6597850">
        <ele>7.0</ele>
        <time>2021-05-23T10:21:18Z</time>
      </trkpt>
      <trkpt lat="42.7269800" lon="-8.6597890">
        <ele>7.0</ele>
        <time>2021-05-23T10:21:19Z</time>
      </trkpt>
      <trkpt lat="42.7269890" lon="-8.6597970">
        <ele>7.0</ele>
        <time>2021-05-23T10:21:20Z</time>
      </trkpt>
      <trkpt lat="42.7269990" lon="-8.6598050">
        <ele>7.0</ele>
        <time>2021-05-23T10:21:21Z</time>
      </trkpt>
      <trkpt lat="42.7270070" lon="-8.6598020">
        <ele>7.0</ele>
        <time>2021-05-23T10:21:22Z</time>
      </trkpt>
      <trkpt lat="42.7270190" lon="-8.6598050">
        <ele>7.0</ele>
        <time>2021-05-23T10:21:23Z</time>
      </trkpt>
      <trkpt lat="42.7270400" lon="-8.6598000">
        <ele>7.0</ele>
        <time>2021-05-23T10:21:24Z</time>
      </trkpt>
      <trkpt lat="42.7270520" lon="-8.6597990">
        <ele>7.0</ele>
        <time>2021-05-23T10:21:25Z</time>
      </trkpt>
      <trkpt lat="42.7270630" lon="-8.6597970">
        <ele>7.0</ele>
        <time>2021-05-23T10:21:26Z</time>
      </trkpt>
      <trkpt lat="42.7270710" lon="-8.6597970">
        <ele>7.0</ele>
        <time>2021-05-23T10:21:27Z</time>
      </trkpt>
      <trkpt lat="42.7270730" lon="-8.6598050">
        <ele>7.0</ele>
        <time>2021-05-23T10:21:28Z</time>
      </trkpt>
      <trkpt lat="42.7270810" lon="-8.6598120">
        <ele>7.0</ele>
        <time>2021-05-23T10:21:29Z</time>
      </trkpt>
      <trkpt lat="42.7270930" lon="-8.6598130">
        <ele>7.0</ele>
        <time>2021-05-23T10:21:30Z</time>
      </trkpt>
      <trkpt lat="42.7271030" lon="-8.6598230">
        <ele>7.0</ele>
        <time>2021-05-23T10:21:31Z</time>
      </trkpt>
      <trkpt lat="42.7271160" lon="-8.6598340">
        <ele>7.0</ele>
        <time>2021-05-23T10:21:32Z</time>
      </trkpt>
      <trkpt lat="42.7271270" lon="-8.6598460">
        <ele>7.0</ele>
        <time>2021-05-23T10:21:33Z</time>
      </trkpt>
      <trkpt lat="42.7271330" lon="-8.6598650">
        <ele>7.0</ele>
        <time>2021-05-23T10:21:34Z</time>
      </trkpt>
      <trkpt lat="42.7271400" lon="-8.6598810">
        <ele>6.9</ele>
        <time>2021-05-23T10:21:35Z</time>
      </trkpt>
      <trkpt lat="42.7271470" lon="-8.6598990">
        <ele>6.9</ele>
        <time>2021-05-23T10:21:36Z</time>
      </trkpt>
      <trkpt lat="42.7271500" lon="-8.6599180">
        <ele>6.9</ele>
        <time>2021-05-23T10:21:37Z</time>
      </trkpt>
      <trkpt lat="42.7271560" lon="-8.6599410">
        <ele>6.9</ele>
        <time>2021-05-23T10:21:38Z</time>
      </trkpt>
      <trkpt lat="42.7271660" lon="-8.6599610">
        <ele>6.9</ele>
        <time>2021-05-23T10:21:39Z</time>
      </trkpt>
      <trkpt lat="42.7271750" lon="-8.6599810">
        <ele>6.9</ele>
        <time>2021-05-23T10:21:40Z</time>
      </trkpt>
      <trkpt lat="42.7271790" lon="-8.6599990">
        <ele>6.9</ele>
        <time>2021-05-23T10:21:41Z</time>
      </trkpt>
      <trkpt lat="42.7271840" lon="-8.6600180">
        <ele>6.9</ele>
        <time>2021-05-23T10:21:42Z</time>
      </trkpt>
      <trkpt lat="42.7271870" lon="-8.6600370">
        <ele>6.9</ele>
        <time>2021-05-23T10:21:43Z</time>
      </trkpt>
      <trkpt lat="42.7271870" lon="-8.6600530">
        <ele>6.9</ele>
        <time>2021-05-23T10:21:44Z</time>
      </trkpt>
      <trkpt lat="42.7271890" lon="-8.6600660">
        <ele>6.9</ele>
        <time>2021-05-23T10:21:45Z</time>
      </trkpt>
      <trkpt lat="42.7271950" lon="-8.6600910">
        <ele>6.9</ele>
        <time>2021-05-23T10:21:46Z</time>
      </trkpt>
      <trkpt lat="42.7271960" lon="-8.6601040">
        <ele>6.9</ele>
        <time>2021-05-23T10:21:47Z</time>
      </trkpt>
      <trkpt lat="42.7271980" lon="-8.6601170">
        <ele>6.9</ele>
        <time>2021-05-23T10:21:48Z</time>
      </trkpt>
      <trkpt lat="42.7272020" lon="-8.6601330">
        <ele>6.9</ele>
        <time>2021-05-23T10:21:49Z</time>
      </trkpt>
      <trkpt lat="42.7272060" lon="-8.6601440">
        <ele>6.9</ele>
        <time>2021-05-23T10:21:50Z</time>
      </trkpt>
      <trkpt lat="42.7272120" lon="-8.6601530">
        <ele>6.9</ele>
        <time>2021-05-23T10:21:51Z</time>
      </trkpt>
      <trkpt lat="42.7272170" lon="-8.6601620">
        <ele>6.9</ele>
        <time>2021-05-23T10:21:52Z</time>
      </trkpt>
      <trkpt lat="42.7272210" lon="-8.6601710">
        <ele>6.9</ele>
        <time>2021-05-23T10:21:53Z</time>
      </trkpt>
      <trkpt lat="42.7272240" lon="-8.6601850">
        <ele>6.9</ele>
        <time>2021-05-23T10:21:54Z</time>
      </trkpt>
      <trkpt lat="42.7272280" lon="-8.6601930">
        <ele>6.9</ele>
        <time>2021-05-23T10:21:55Z</time>
      </trkpt>
      <trkpt lat="42.7272280" lon="-8.6601970">
        <ele>6.9</ele>
        <time>2021-05-23T10:21:56Z</time>
      </trkpt>
      <trkpt lat="42.7272310" lon="-8.6602090">
        <ele>6.9</ele>
        <time>2021-05-23T10:21:57Z</time>
      </trkpt>
      <trkpt lat="42.7272360" lon="-8.6602290">
        <ele>6.9</ele>
        <time>2021-05-23T10:21:58Z</time>
      </trkpt>
      <trkpt lat="42.7272410" lon="-8.6602440">
        <ele>6.9</ele>
        <time>2021-05-23T10:21:59Z</time>
      </trkpt>
      <trkpt lat="42.7272420" lon="-8.6602510">
        <ele>6.9</ele>
        <time>2021-05-23T10:22:00Z</time>
      </trkpt>
      <trkpt lat="42.7272460" lon="-8.6602670">
        <ele>6.9</ele>
        <time>2021-05-23T10:22:01Z</time>
      </trkpt>
      <trkpt lat="42.7272520" lon="-8.6602870">
        <ele>6.9</ele>
        <time>2021-05-23T10:22:02Z</time>
      </trkpt>
      <trkpt lat="42.7272560" lon="-8.6602970">
        <ele>6.9</ele>
        <time>2021-05-23T10:22:03Z</time>
      </trkpt>
      <trkpt lat="42.7272540" lon="-8.6603140">
        <ele>6.9</ele>
        <time>2021-05-23T10:22:04Z</time>
      </trkpt>
      <trkpt lat="42.7272550" lon="-8.6603240">
        <ele>6.9</ele>
        <time>2021-05-23T10:22:05Z</time>
      </trkpt>
      <trkpt lat="42.7272570" lon="-8.6603360">
        <ele>6.9</ele>
        <time>2021-05-23T10:22:06Z</time>
      </trkpt>
      <trkpt lat="42.7272590" lon="-8.6603500">
        <ele>6.9</ele>
        <time>2021-05-23T10:22:07Z</time>
      </trkpt>
      <trkpt lat="42.7272610" lon="-8.6603710">
        <ele>6.9</ele>
        <time>2021-05-23T10:22:08Z</time>
      </trkpt>
      <trkpt lat="42.7272650" lon="-8.6603790">
        <ele>6.9</ele>
        <time>2021-05-23T10:22:09Z</time>
      </trkpt>
      <trkpt lat="42.7272680" lon="-8.6603910">
        <ele>6.9</ele>
        <time>2021-05-23T10:22:10Z</time>
      </trkpt>
      <trkpt lat="42.7272680" lon="-8.6604010">
        <ele>6.9</ele>
        <time>2021-05-23T10:22:11Z</time>
      </trkpt>
      <trkpt lat="42.7272710" lon="-8.6604170">
        <ele>6.9</ele>
        <time>2021-05-23T10:22:12Z</time>
      </trkpt>
      <trkpt lat="42.7272800" lon="-8.6604330">
        <ele>6.8</ele>
        <time>2021-05-23T10:22:13Z</time>
      </trkpt>
      <trkpt lat="42.7272840" lon="-8.6604550">
        <ele>6.8</ele>
        <time>2021-05-23T10:22:14Z</time>
      </trkpt>
      <trkpt lat="42.7272840" lon="-8.6604660">
        <ele>6.8</ele>
        <time>2021-05-23T10:22:15Z</time>
      </trkpt>
      <trkpt lat="42.7272850" lon="-8.6604760">
        <ele>6.8</ele>
        <time>2021-05-23T10:22:16Z</time>
      </trkpt>
      <trkpt lat="42.7272850" lon="-8.6604870">
        <ele>6.8</ele>
        <time>2021-05-23T10:22:17Z</time>
      </trkpt>
      <trkpt lat="42.7272870" lon="-8.6604900">
        <ele>6.8</ele>
        <time>2021-05-23T10:22:18Z</time>
      </trkpt>
      <trkpt lat="42.7272860" lon="-8.6605010">
        <ele>6.8</ele>
        <time>2021-05-23T10:22:19Z</time>
      </trkpt>
      <trkpt lat="42.7272870" lon="-8.6605250">
        <ele>6.8</ele>
        <time>2021-05-23T10:22:20Z</time>
      </trkpt>
      <trkpt lat="42.7272780" lon="-8.6605580">
        <ele>6.8</ele>
        <time>2021-05-23T10:22:21Z</time>
      </trkpt>
      <trkpt lat="42.7272700" lon="-8.6605770">
        <ele>6.8</ele>
        <time>2021-05-23T10:22:22Z</time>
      </trkpt>
      <trkpt lat="42.7272610" lon="-8.6605970">
        <ele>6.8</ele>
        <time>2021-05-23T10:22:23Z</time>
      </trkpt>
      <trkpt lat="42.7272500" lon="-8.6606340">
        <ele>6.8</ele>
        <time>2021-05-23T10:22:24Z</time>
      </trkpt>
      <trkpt lat="42.7272460" lon="-8.6606460">
        <ele>6.8</ele>
        <time>2021-05-23T10:22:25Z</time>
      </trkpt>
      <trkpt lat="42.7272370" lon="-8.6606720">
        <ele>6.8</ele>
        <time>2021-05-23T10:22:26Z</time>
      </trkpt>
      <trkpt lat="42.7272350" lon="-8.6606870">
        <ele>6.8</ele>
        <time>2021-05-23T10:22:27Z</time>
      </trkpt>
      <trkpt lat="42.7272310" lon="-8.6607010">
        <ele>6.7</ele>
        <time>2021-05-23T10:22:28Z</time>
      </trkpt>
      <trkpt lat="42.7272270" lon="-8.6607090">
        <ele>6.7</ele>
        <time>2021-05-23T10:22:29Z</time>
      </trkpt>
      <trkpt lat="42.7272240" lon="-8.6607130">
        <ele>6.7</ele>
        <time>2021-05-23T10:22:30Z</time>
      </trkpt>
      <trkpt lat="42.7272200" lon="-8.6607200">
        <ele>6.7</ele>
        <time>2021-05-23T10:22:31Z</time>
      </trkpt>
      <trkpt lat="42.7272170" lon="-8.6607340">
        <ele>6.7</ele>
        <time>2021-05-23T10:22:32Z</time>
      </trkpt>
      <trkpt lat="42.7272150" lon="-8.6607430">
        <ele>6.7</ele>
        <time>2021-05-23T10:22:33Z</time>
      </trkpt>
      <trkpt lat="42.7272090" lon="-8.6607500">
        <ele>6.7</ele>
        <time>2021-05-23T10:22:34Z</time>
      </trkpt>
      <trkpt lat="42.7272050" lon="-8.6607520">
        <ele>6.7</ele>
        <time>2021-05-23T10:22:35Z</time>
      </trkpt>
      <trkpt lat="42.7271950" lon="-8.6607590">
        <ele>6.7</ele>
        <time>2021-05-23T10:22:36Z</time>
      </trkpt>
      <trkpt lat="42.7271900" lon="-8.6607610">
        <ele>6.7</ele>
        <time>2021-05-23T10:22:37Z</time>
      </trkpt>
      <trkpt lat="42.7271850" lon="-8.6607630">
        <ele>6.7</ele>
        <time>2021-05-23T10:22:38Z</time>
      </trkpt>
      <trkpt lat="42.7271810" lon="-8.6607700">
        <ele>6.7</ele>
        <time>2021-05-23T10:22:39Z</time>
      </trkpt>
      <trkpt lat="42.7271770" lon="-8.6607810">
        <ele>6.7</ele>
        <time>2021-05-23T10:22:40Z</time>
      </trkpt>
      <trkpt lat="42.7271700" lon="-8.6607910">
        <ele>6.7</ele>
        <time>2021-05-23T10:22:41Z</time>
      </trkpt>
      <trkpt lat="42.7271650" lon="-8.6608030">
        <ele>6.7</ele>
        <time>2021-05-23T10:22:42Z</time>
      </trkpt>
      <trkpt lat="42.7271540" lon="-8.6608190">
        <ele>6.7</ele>
        <time>2021-05-23T10:22:43Z</time>
      </trkpt>
      <trkpt lat="42.7271510" lon="-8.6608280">
        <ele>6.7</ele>
        <time>2021-05-23T10:22:44Z</time>
      </trkpt>
      <trkpt lat="42.7271440" lon="-8.6608340">
        <ele>6.7</ele>
        <time>2021-05-23T10:22:45Z</time>
      </trkpt>
      <trkpt lat="42.7271380" lon="-8.6608510">
        <ele>6.7</ele>
        <time>2021-05-23T10:22:46Z</time>
      </trkpt>
      <trkpt lat="42.7271310" lon="-8.6608690">
        <ele>6.7</ele>
        <time>2021-05-23T10:22:47Z</time>
      </trkpt>
      <trkpt lat="42.7271250" lon="-8.6608790">
        <ele>6.7</ele>
        <time>2021-05-23T10:22:48Z</time>
      </trkpt>
      <trkpt lat="42.7271170" lon="-8.6608900">
        <ele>6.7</ele>
        <time>2021-05-23T10:22:49Z</time>
      </trkpt>
      <trkpt lat="42.7271090" lon="-8.6609030">
        <ele>6.7</ele>
        <time>2021-05-23T10:22:50Z</time>
      </trkpt>
      <trkpt lat="42.7271060" lon="-8.6609120">
        <ele>6.7</ele>
        <time>2021-05-23T10:22:51Z</time>
      </trkpt>
      <trkpt lat="42.7271030" lon="-8.6609260">
        <ele>6.7</ele>
        <time>2021-05-23T10:22:52Z</time>
      </trkpt>
      <trkpt lat="42.7271010" lon="-8.6609420">
        <ele>6.7</ele>
        <time>2021-05-23T10:22:53Z</time>
      </trkpt>
      <trkpt lat="42.7270940" lon="-8.6609580">
        <ele>6.7</ele>
        <time>2021-05-23T10:22:54Z</time>
      </trkpt>
      <trkpt lat="42.7270860" lon="-8.6609790">
        <ele>6.8</ele>
        <time>2021-05-23T10:22:55Z</time>
      </trkpt>
      <trkpt lat="42.7270870" lon="-8.6609950">
        <ele>6.8</ele>
        <time>2021-05-23T10:22:56Z</time>
      </trkpt>
      <trkpt lat="42.7270880" lon="-8.6610040">
        <ele>6.8</ele>
        <time>2021-05-23T10:22:57Z</time>
      </trkpt>
      <trkpt lat="42.7270860" lon="-8.6610260">
        <ele>6.8</ele>
        <time>2021-05-23T10:22:58Z</time>
      </trkpt>
      <trkpt lat="42.7270870" lon="-8.6610450">
        <ele>6.8</ele>
        <time>2021-05-23T10:22:59Z</time>
      </trkpt>
      <trkpt lat="42.7270860" lon="-8.6610560">
        <ele>6.8</ele>
        <time>2021-05-23T10:23:00Z</time>
      </trkpt>
      <trkpt lat="42.7270850" lon="-8.6610660">
        <ele>6.8</ele>
        <time>2021-05-23T10:23:01Z</time>
      </trkpt>
      <trkpt lat="42.7270840" lon="-8.6610770">
        <ele>6.8</ele>
        <time>2021-05-23T10:23:02Z</time>
      </trkpt>
      <trkpt lat="42.7270820" lon="-8.6610990">
        <ele>6.9</ele>
        <time>2021-05-23T10:23:03Z</time>
      </trkpt>
      <trkpt lat="42.7270820" lon="-8.6611180">
        <ele>6.9</ele>
        <time>2021-05-23T10:23:04Z</time>
      </trkpt>
      <trkpt lat="42.7270800" lon="-8.6611380">
        <ele>6.9</ele>
        <time>2021-05-23T10:23:05Z</time>
      </trkpt>
      <trkpt lat="42.7270830" lon="-8.6611550">
        <ele>6.9</ele>
        <time>2021-05-23T10:23:06Z</time>
      </trkpt>
      <trkpt lat="42.7270780" lon="-8.6611760">
        <ele>7.0</ele>
        <time>2021-05-23T10:23:07Z</time>
      </trkpt>
      <trkpt lat="42.7270830" lon="-8.6611790">
        <ele>7.0</ele>
        <time>2021-05-23T10:23:08Z</time>
      </trkpt>
      <trkpt lat="42.7270860" lon="-8.6611940">
        <ele>7.0</ele>
        <time>2021-05-23T10:23:09Z</time>
      </trkpt>
      <trkpt lat="42.7270850" lon="-8.6612130">
        <ele>7.0</ele>
        <time>2021-05-23T10:23:10Z</time>
      </trkpt>
      <trkpt lat="42.7270840" lon="-8.6612290">
        <ele>7.0</ele>
        <time>2021-05-23T10:23:11Z</time>
      </trkpt>
      <trkpt lat="42.7270810" lon="-8.6612410">
        <ele>7.1</ele>
        <time>2021-05-23T10:23:12Z</time>
      </trkpt>
      <trkpt lat="42.7270820" lon="-8.6612560">
        <ele>7.1</ele>
        <time>2021-05-23T10:23:13Z</time>
      </trkpt>
      <trkpt lat="42.7270900" lon="-8.6612640">
        <ele>7.1</ele>
        <time>2021-05-23T10:23:14Z</time>
      </trkpt>
      <trkpt lat="42.7271010" lon="-8.6612700">
        <ele>7.2</ele>
        <time>2021-05-23T10:23:15Z</time>
      </trkpt>
      <trkpt lat="42.7271110" lon="-8.6612890">
        <ele>7.3</ele>
        <time>2021-05-23T10:23:16Z</time>
      </trkpt>
      <trkpt lat="42.7271170" lon="-8.6612990">
        <ele>7.3</ele>
        <time>2021-05-23T10:23:17Z</time>
      </trkpt>
      <trkpt lat="42.7271220" lon="-8.6613100">
        <ele>7.3</ele>
        <time>2021-05-23T10:23:18Z</time>
      </trkpt>
      <trkpt lat="42.7271300" lon="-8.6613180">
        <ele>7.4</ele>
        <time>2021-05-23T10:23:19Z</time>
      </trkpt>
      <trkpt lat="42.7271420" lon="-8.6613080">
        <ele>7.4</ele>
        <time>2021-05-23T10:23:20Z</time>
      </trkpt>
      <trkpt lat="42.7271520" lon="-8.6613040">
        <ele>7.4</ele>
        <time>2021-05-23T10:23:21Z</time>
      </trkpt>
      <trkpt lat="42.7271650" lon="-8.6612960">
        <ele>7.4</ele>
        <time>2021-05-23T10:23:22Z</time>
      </trkpt>
      <trkpt lat="42.7271780" lon="-8.6612870">
        <ele>7.4</ele>
        <time>2021-05-23T10:23:23Z</time>
      </trkpt>
      <trkpt lat="42.7271890" lon="-8.6612880">
        <ele>7.5</ele>
        <time>2021-05-23T10:23:24Z</time>
      </trkpt>
      <trkpt lat="42.7271940" lon="-8.6612850">
        <ele>7.5</ele>
        <time>2021-05-23T10:23:25Z</time>
      </trkpt>
      <trkpt lat="42.7272020" lon="-8.6612830">
        <ele>7.5</ele>
        <time>2021-05-23T10:23:26Z</time>
      </trkpt>
      <trkpt lat="42.7272100" lon="-8.6612800">
        <ele>7.5</ele>
        <time>2021-05-23T10:23:27Z</time>
      </trkpt>
      <trkpt lat="42.7272140" lon="-8.6612800">
        <ele>7.5</ele>
        <time>2021-05-23T10:23:28Z</time>
      </trkpt>
      <trkpt lat="42.7272210" lon="-8.6612890">
        <ele>7.5</ele>
        <time>2021-05-23T10:23:29Z</time>
      </trkpt>
      <trkpt lat="42.7272370" lon="-8.6613020">
        <ele>7.5</ele>
        <time>2021-05-23T10:23:30Z</time>
      </trkpt>
      <trkpt lat="42.7272390" lon="-8.6613020">
        <ele>7.5</ele>
        <time>2021-05-23T10:23:31Z</time>
      </trkpt>
      <trkpt lat="42.7272480" lon="-8.6612950">
        <ele>7.6</ele>
        <time>2021-05-23T10:23:32Z</time>
      </trkpt>
      <trkpt lat="42.7272630" lon="-8.6612990">
        <ele>7.6</ele>
        <time>2021-05-23T10:23:33Z</time>
      </trkpt>
      <trkpt lat="42.7272710" lon="-8.6612970">
        <ele>7.6</ele>
        <time>2021-05-23T10:23:34Z</time>
      </trkpt>
      <trkpt lat="42.7272900" lon="-8.6612890">
        <ele>7.6</ele>
        <time>2021-05-23T10:23:35Z</time>
      </trkpt>
      <trkpt lat="42.7272970" lon="-8.6612880">
        <ele>7.6</ele>
        <time>2021-05-23T10:23:36Z</time>
      </trkpt>
      <trkpt lat="42.7273050" lon="-8.6612860">
        <ele>7.6</ele>
        <time>2021-05-23T10:23:37Z</time>
      </trkpt>
      <trkpt lat="42.7273120" lon="-8.6612850">
        <ele>7.6</ele>
        <time>2021-05-23T10:23:38Z</time>
      </trkpt>
      <trkpt lat="42.7273260" lon="-8.6612830">
        <ele>7.7</ele>
        <time>2021-05-23T10:23:39Z</time>
      </trkpt>
      <trkpt lat="42.7273350" lon="-8.6612750">
        <ele>7.7</ele>
        <time>2021-05-23T10:23:40Z</time>
      </trkpt>
      <trkpt lat="42.7273410" lon="-8.6612720">
        <ele>7.7</ele>
        <time>2021-05-23T10:23:41Z</time>
      </trkpt>
      <trkpt lat="42.7273480" lon="-8.6612720">
        <ele>7.7</ele>
        <time>2021-05-23T10:23:42Z</time>
      </trkpt>
      <trkpt lat="42.7273610" lon="-8.6612720">
        <ele>7.7</ele>
        <time>2021-05-23T10:23:43Z</time>
      </trkpt>
      <trkpt lat="42.7273730" lon="-8.6612660">
        <ele>7.7</ele>
        <time>2021-05-23T10:23:44Z</time>
      </trkpt>
      <trkpt lat="42.7273810" lon="-8.6612640">
        <ele>7.7</ele>
        <time>2021-05-23T10:23:45Z</time>
      </trkpt>
      <trkpt lat="42.7273950" lon="-8.6612600">
        <ele>7.7</ele>
        <time>2021-05-23T10:23:46Z</time>
      </trkpt>
      <trkpt lat="42.7274020" lon="-8.6612550">
        <ele>7.7</ele>
        <time>2021-05-23T10:23:47Z</time>
      </trkpt>
      <trkpt lat="42.7274210" lon="-8.6612490">
        <ele>7.8</ele>
        <time>2021-05-23T10:23:48Z</time>
      </trkpt>
      <trkpt lat="42.7274310" lon="-8.6612450">
        <ele>7.8</ele>
        <time>2021-05-23T10:23:49Z</time>
      </trkpt>
      <trkpt lat="42.7274410" lon="-8.6612410">
        <ele>7.8</ele>
        <time>2021-05-23T10:23:50Z</time>
      </trkpt>
      <trkpt lat="42.7274490" lon="-8.6612430">
        <ele>7.8</ele>
        <time>2021-05-23T10:23:51Z</time>
      </trkpt>
      <trkpt lat="42.7274550" lon="-8.6612380">
        <ele>7.8</ele>
        <time>2021-05-23T10:23:52Z</time>
      </trkpt>
      <trkpt lat="42.7274610" lon="-8.6612420">
        <ele>7.8</ele>
        <time>2021-05-23T10:23:53Z</time>
      </trkpt>
      <trkpt lat="42.7274700" lon="-8.6612390">
        <ele>7.8</ele>
        <time>2021-05-23T10:23:54Z</time>
      </trkpt>
      <trkpt lat="42.7274770" lon="-8.6612340">
        <ele>7.8</ele>
        <time>2021-05-23T10:23:55Z</time>
      </trkpt>
      <trkpt lat="42.7274900" lon="-8.6612330">
        <ele>7.8</ele>
        <time>2021-05-23T10:23:56Z</time>
      </trkpt>
      <trkpt lat="42.7275010" lon="-8.6612350">
        <ele>7.8</ele>
        <time>2021-05-23T10:23:57Z</time>
      </trkpt>
      <trkpt lat="42.7275120" lon="-8.6612330">
        <ele>7.8</ele>
        <time>2021-05-23T10:23:58Z</time>
      </trkpt>
      <trkpt lat="42.7275270" lon="-8.6612270">
        <ele>7.8</ele>
        <time>2021-05-23T10:23:59Z</time>
      </trkpt>
      <trkpt lat="42.7275360" lon="-8.6612220">
        <ele>7.8</ele>
        <time>2021-05-23T10:24:00Z</time>
      </trkpt>
      <trkpt lat="42.7275430" lon="-8.6612200">
        <ele>7.8</ele>
        <time>2021-05-23T10:24:01Z</time>
      </trkpt>
      <trkpt lat="42.7275560" lon="-8.6612140">
        <ele>7.8</ele>
        <time>2021-05-23T10:24:02Z</time>
      </trkpt>
      <trkpt lat="42.7275690" lon="-8.6612040">
        <ele>7.8</ele>
        <time>2021-05-23T10:24:03Z</time>
      </trkpt>
      <trkpt lat="42.7275880" lon="-8.6611990">
        <ele>7.8</ele>
        <time>2021-05-23T10:24:04Z</time>
      </trkpt>
      <trkpt lat="42.7275970" lon="-8.6611960">
        <ele>7.8</ele>
        <time>2021-05-23T10:24:05Z</time>
      </trkpt>
      <trkpt lat="42.7276050" lon="-8.6611940">
        <ele>7.8</ele>
        <time>2021-05-23T10:24:06Z</time>
      </trkpt>
      <trkpt lat="42.7276120" lon="-8.6611930">
        <ele>7.8</ele>
        <time>2021-05-23T10:24:07Z</time>
      </trkpt>
      <trkpt lat="42.7276220" lon="-8.6611930">
        <ele>7.8</ele>
        <time>2021-05-23T10:24:08Z</time>
      </trkpt>
      <trkpt lat="42.7276340" lon="-8.6611910">
        <ele>7.8</ele>
        <time>2021-05-23T10:24:09Z</time>
      </trkpt>
      <trkpt lat="42.7276510" lon="-8.6611920">
        <ele>7.8</ele>
        <time>2021-05-23T10:24:10Z</time>
      </trkpt>
      <trkpt lat="42.7276630" lon="-8.6611860">
        <ele>7.8</ele>
        <time>2021-05-23T10:24:11Z</time>
      </trkpt>
      <trkpt lat="42.7276730" lon="-8.6611800">
        <ele>7.8</ele>
        <time>2021-05-23T10:24:12Z</time>
      </trkpt>
      <trkpt lat="42.7276800" lon="-8.6611780">
        <ele>7.8</ele>
        <time>2021-05-23T10:24:13Z</time>
      </trkpt>
      <trkpt lat="42.7276890" lon="-8.6611740">
        <ele>7.8</ele>
        <time>2021-05-23T10:24:14Z</time>
      </trkpt>
      <trkpt lat="42.7277030" lon="-8.6611690">
        <ele>7.8</ele>
        <time>2021-05-23T10:24:15Z</time>
      </trkpt>
      <trkpt lat="42.7277240" lon="-8.6611640">
        <ele>7.8</ele>
        <time>2021-05-23T10:24:16Z</time>
      </trkpt>
      <trkpt lat="42.7277430" lon="-8.6611570">
        <ele>7.8</ele>
        <time>2021-05-23T10:24:17Z</time>
      </trkpt>
      <trkpt lat="42.7277530" lon="-8.6611550">
        <ele>7.8</ele>
        <time>2021-05-23T10:24:18Z</time>
      </trkpt>
      <trkpt lat="42.7277620" lon="-8.6611530">
        <ele>7.8</ele>
        <time>2021-05-23T10:24:19Z</time>
      </trkpt>
      <trkpt lat="42.7277710" lon="-8.6611540">
        <ele>7.8</ele>
        <time>2021-05-23T10:24:20Z</time>
      </trkpt>
      <trkpt lat="42.7277800" lon="-8.6611580">
        <ele>7.8</ele>
        <time>2021-05-23T10:24:21Z</time>
      </trkpt>
      <trkpt lat="42.7277900" lon="-8.6611560">
        <ele>7.8</ele>
        <time>2021-05-23T10:24:22Z</time>
      </trkpt>
      <trkpt lat="42.7278020" lon="-8.6611540">
        <ele>7.8</ele>
        <time>2021-05-23T10:24:23Z</time>
      </trkpt>
      <trkpt lat="42.7278160" lon="-8.6611510">
        <ele>7.8</ele>
        <time>2021-05-23T10:24:24Z</time>
      </trkpt>
      <trkpt lat="42.7278440" lon="-8.6611490">
        <ele>7.8</ele>
        <time>2021-05-23T10:24:25Z</time>
      </trkpt>
      <trkpt lat="42.7278540" lon="-8.6611480">
        <ele>7.8</ele>
        <time>2021-05-23T10:24:26Z</time>
      </trkpt>
      <trkpt lat="42.7278680" lon="-8.6611440">
        <ele>7.8</ele>
        <time>2021-05-23T10:24:27Z</time>
      </trkpt>
      <trkpt lat="42.7278790" lon="-8.6611420">
        <ele>7.7</ele>
        <time>2021-05-23T10:24:28Z</time>
      </trkpt>
      <trkpt lat="42.7278890" lon="-8.6611410">
        <ele>7.7</ele>
        <time>2021-05-23T10:24:29Z</time>
      </trkpt>
      <trkpt lat="42.7279080" lon="-8.6611350">
        <ele>7.7</ele>
        <time>2021-05-23T10:24:30Z</time>
      </trkpt>
      <trkpt lat="42.7279150" lon="-8.6611350">
        <ele>7.7</ele>
        <time>2021-05-23T10:24:31Z</time>
      </trkpt>
      <trkpt lat="42.7279230" lon="-8.6611360">
        <ele>7.7</ele>
        <time>2021-05-23T10:24:32Z</time>
      </trkpt>
      <trkpt lat="42.7279310" lon="-8.6611360">
        <ele>7.7</ele>
        <time>2021-05-23T10:24:33Z</time>
      </trkpt>
      <trkpt lat="42.7279360" lon="-8.6611320">
        <ele>7.7</ele>
        <time>2021-05-23T10:24:34Z</time>
      </trkpt>
      <trkpt lat="42.7279480" lon="-8.6611290">
        <ele>7.7</ele>
        <time>2021-05-23T10:24:35Z</time>
      </trkpt>
      <trkpt lat="42.7279520" lon="-8.6611320">
        <ele>7.7</ele>
        <time>2021-05-23T10:24:36Z</time>
      </trkpt>
      <trkpt lat="42.7279590" lon="-8.6611280">
        <ele>7.7</ele>
        <time>2021-05-23T10:24:37Z</time>
      </trkpt>
      <trkpt lat="42.7279700" lon="-8.6611210">
        <ele>7.7</ele>
        <time>2021-05-23T10:24:38Z</time>
      </trkpt>
      <trkpt lat="42.7279750" lon="-8.6611220">
        <ele>7.7</ele>
        <time>2021-05-23T10:24:39Z</time>
      </trkpt>
      <trkpt lat="42.7279840" lon="-8.6611230">
        <ele>7.7</ele>
        <time>2021-05-23T10:24:40Z</time>
      </trkpt>
      <trkpt lat="42.7279910" lon="-8.6611210">
        <ele>7.7</ele>
        <time>2021-05-23T10:24:41Z</time>
      </trkpt>
      <trkpt lat="42.7280130" lon="-8.6611180">
        <ele>7.7</ele>
        <time>2021-05-23T10:24:42Z</time>
      </trkpt>
      <trkpt lat="42.7280200" lon="-8.6611170">
        <ele>7.7</ele>
        <time>2021-05-23T10:24:43Z</time>
      </trkpt>
      <trkpt lat="42.7280270" lon="-8.6611160">
        <ele>7.7</ele>
        <time>2021-05-23T10:24:44Z</time>
      </trkpt>
      <trkpt lat="42.7280360" lon="-8.6611110">
        <ele>7.7</ele>
        <time>2021-05-23T10:24:45Z</time>
      </trkpt>
      <trkpt lat="42.7280500" lon="-8.6611100">
        <ele>7.7</ele>
        <time>2021-05-23T10:24:46Z</time>
      </trkpt>
      <trkpt lat="42.7280560" lon="-8.6611100">
        <ele>7.7</ele>
        <time>2021-05-23T10:24:47Z</time>
      </trkpt>
      <trkpt lat="42.7280660" lon="-8.6611100">
        <ele>7.7</ele>
        <time>2021-05-23T10:24:48Z</time>
      </trkpt>
      <trkpt lat="42.7280780" lon="-8.6611060">
        <ele>7.7</ele>
        <time>2021-05-23T10:24:49Z</time>
      </trkpt>
      <trkpt lat="42.7280870" lon="-8.6611050">
        <ele>7.7</ele>
        <time>2021-05-23T10:24:50Z</time>
      </trkpt>
      <trkpt lat="42.7280970" lon="-8.6611050">
        <ele>7.7</ele>
        <time>2021-05-23T10:24:51Z</time>
      </trkpt>
      <trkpt lat="42.7281060" lon="-8.6611000">
        <ele>7.7</ele>
        <time>2021-05-23T10:24:52Z</time>
      </trkpt>
      <trkpt lat="42.7281160" lon="-8.6610970">
        <ele>7.7</ele>
        <time>2021-05-23T10:24:53Z</time>
      </trkpt>
      <trkpt lat="42.7281250" lon="-8.6610950">
        <ele>7.7</ele>
        <time>2021-05-23T10:24:54Z</time>
      </trkpt>
      <trkpt lat="42.7281360" lon="-8.6610940">
        <ele>7.7</ele>
        <time>2021-05-23T10:24:55Z</time>
      </trkpt>
      <trkpt lat="42.7281480" lon="-8.6610920">
        <ele>7.7</ele>
        <time>2021-05-23T10:24:56Z</time>
      </trkpt>
      <trkpt lat="42.7281540" lon="-8.6610830">
        <ele>7.7</ele>
        <time>2021-05-23T10:24:57Z</time>
      </trkpt>
      <trkpt lat="42.7281650" lon="-8.6610820">
        <ele>7.7</ele>
        <time>2021-05-23T10:24:58Z</time>
      </trkpt>
      <trkpt lat="42.7281760" lon="-8.6610790">
        <ele>7.7</ele>
        <time>2021-05-23T10:24:59Z</time>
      </trkpt>
      <trkpt lat="42.7281870" lon="-8.6610740">
        <ele>7.7</ele>
        <time>2021-05-23T10:25:00Z</time>
      </trkpt>
      <trkpt lat="42.7282010" lon="-8.6610710">
        <ele>7.7</ele>
        <time>2021-05-23T10:25:01Z</time>
      </trkpt>
      <trkpt lat="42.7282090" lon="-8.6610760">
        <ele>7.7</ele>
        <time>2021-05-23T10:25:02Z</time>
      </trkpt>
      <trkpt lat="42.7282220" lon="-8.6610770">
        <ele>7.7</ele>
        <time>2021-05-23T10:25:03Z</time>
      </trkpt>
      <trkpt lat="42.7282310" lon="-8.6610750">
        <ele>7.7</ele>
        <time>2021-05-23T10:25:04Z</time>
      </trkpt>
      <trkpt lat="42.7282390" lon="-8.6610760">
        <ele>7.7</ele>
        <time>2021-05-23T10:25:05Z</time>
      </trkpt>
      <trkpt lat="42.7282510" lon="-8.6610780">
        <ele>7.7</ele>
        <time>2021-05-23T10:25:06Z</time>
      </trkpt>
      <trkpt lat="42.7282620" lon="-8.6610810">
        <ele>7.7</ele>
        <time>2021-05-23T10:25:07Z</time>
      </trkpt>
      <trkpt lat="42.7282710" lon="-8.6610800">
        <ele>7.7</ele>
        <time>2021-05-23T10:25:08Z</time>
      </trkpt>
      <trkpt lat="42.7282840" lon="-8.6610780">
        <ele>7.7</ele>
        <time>2021-05-23T10:25:09Z</time>
      </trkpt>
      <trkpt lat="42.7282990" lon="-8.6610790">
        <ele>7.7</ele>
        <time>2021-05-23T10:25:10Z</time>
      </trkpt>
      <trkpt lat="42.7283070" lon="-8.6610750">
        <ele>7.7</ele>
        <time>2021-05-23T10:25:11Z</time>
      </trkpt>
      <trkpt lat="42.7283240" lon="-8.6610760">
        <ele>7.7</ele>
        <time>2021-05-23T10:25:12Z</time>
      </trkpt>
      <trkpt lat="42.7283340" lon="-8.6610810">
        <ele>7.7</ele>
        <time>2021-05-23T10:25:13Z</time>
      </trkpt>
      <trkpt lat="42.7283420" lon="-8.6610800">
        <ele>7.7</ele>
        <time>2021-05-23T10:25:14Z</time>
      </trkpt>
      <trkpt lat="42.7283500" lon="-8.6610820">
        <ele>7.7</ele>
        <time>2021-05-23T10:25:15Z</time>
      </trkpt>
      <trkpt lat="42.7283630" lon="-8.6610830">
        <ele>7.8</ele>
        <time>2021-05-23T10:25:16Z</time>
      </trkpt>
      <trkpt lat="42.7283830" lon="-8.6610760">
        <ele>7.8</ele>
        <time>2021-05-23T10:25:17Z</time>
      </trkpt>
      <trkpt lat="42.7283910" lon="-8.6610750">
        <ele>7.8</ele>
        <time>2021-05-23T10:25:18Z</time>
      </trkpt>
      <trkpt lat="42.7283990" lon="-8.6610730">
        <ele>7.8</ele>
        <time>2021-05-23T10:25:19Z</time>
      </trkpt>
      <trkpt lat="42.7284150" lon="-8.6610750">
        <ele>7.8</ele>
        <time>2021-05-23T10:25:20Z</time>
      </trkpt>
      <trkpt lat="42.7284230" lon="-8.6610720">
        <ele>7.8</ele>
        <time>2021-05-23T10:25:21Z</time>
      </trkpt>
      <trkpt lat="42.7284300" lon="-8.6610700">
        <ele>7.8</ele>
        <time>2021-05-23T10:25:22Z</time>
      </trkpt>
      <trkpt lat="42.7284380" lon="-8.6610670">
        <ele>7.8</ele>
        <time>2021-05-23T10:25:23Z</time>
      </trkpt>
      <trkpt lat="42.7284580" lon="-8.6610630">
        <ele>7.8</ele>
        <time>2021-05-23T10:25:24Z</time>
      </trkpt>
      <trkpt lat="42.7284670" lon="-8.6610620">
        <ele>7.8</ele>
        <time>2021-05-23T10:25:25Z</time>
      </trkpt>
      <trkpt lat="42.7284760" lon="-8.6610610">
        <ele>7.8</ele>
        <time>2021-05-23T10:25:26Z</time>
      </trkpt>
      <trkpt lat="42.7284880" lon="-8.6610580">
        <ele>7.9</ele>
        <time>2021-05-23T10:25:27Z</time>
      </trkpt>
      <trkpt lat="42.7284930" lon="-8.6610490">
        <ele>7.9</ele>
        <time>2021-05-23T10:25:28Z</time>
      </trkpt>
      <trkpt lat="42.7284980" lon="-8.6610460">
        <ele>7.9</ele>
        <time>2021-05-23T10:25:29Z</time>
      </trkpt>
      <trkpt lat="42.7285080" lon="-8.6610500">
        <ele>7.9</ele>
        <time>2021-05-23T10:25:30Z</time>
      </trkpt>
      <trkpt lat="42.7285330" lon="-8.6610430">
        <ele>7.9</ele>
        <time>2021-05-23T10:25:31Z</time>
      </trkpt>
      <trkpt lat="42.7285390" lon="-8.6610410">
        <ele>7.9</ele>
        <time>2021-05-23T10:25:32Z</time>
      </trkpt>
      <trkpt lat="42.7285450" lon="-8.6610380">
        <ele>7.9</ele>
        <time>2021-05-23T10:25:33Z</time>
      </trkpt>
      <trkpt lat="42.7285550" lon="-8.6610410">
        <ele>7.9</ele>
        <time>2021-05-23T10:25:34Z</time>
      </trkpt>
      <trkpt lat="42.7285630" lon="-8.6610400">
        <ele>7.9</ele>
        <time>2021-05-23T10:25:35Z</time>
      </trkpt>
      <trkpt lat="42.7285740" lon="-8.6610340">
        <ele>7.9</ele>
        <time>2021-05-23T10:25:36Z</time>
      </trkpt>
      <trkpt lat="42.7285860" lon="-8.6610300">
        <ele>7.9</ele>
        <time>2021-05-23T10:25:37Z</time>
      </trkpt>
      <trkpt lat="42.7286050" lon="-8.6610210">
        <ele>7.9</ele>
        <time>2021-05-23T10:25:38Z</time>
      </trkpt>
      <trkpt lat="42.7286170" lon="-8.6610190">
        <ele>7.9</ele>
        <time>2021-05-23T10:25:39Z</time>
      </trkpt>
      <trkpt lat="42.7286340" lon="-8.6610230">
        <ele>7.9</ele>
        <time>2021-05-23T10:25:40Z</time>
      </trkpt>
      <trkpt lat="42.7286470" lon="-8.6610220">
        <ele>7.9</ele>
        <time>2021-05-23T10:25:41Z</time>
      </trkpt>
      <trkpt lat="42.7286580" lon="-8.6610230">
        <ele>7.9</ele>
        <time>2021-05-23T10:25:42Z</time>
      </trkpt>
      <trkpt lat="42.7286690" lon="-8.6610250">
        <ele>7.9</ele>
        <time>2021-05-23T10:25:43Z</time>
      </trkpt>
      <trkpt lat="42.7286820" lon="-8.6610250">
        <ele>7.9</ele>
        <time>2021-05-23T10:25:44Z</time>
      </trkpt>
      <trkpt lat="42.7286960" lon="-8.6610230">
        <ele>7.9</ele>
        <time>2021-05-23T10:25:45Z</time>
      </trkpt>
      <trkpt lat="42.7287030" lon="-8.6610200">
        <ele>7.9</ele>
        <time>2021-05-23T10:25:46Z</time>
      </trkpt>
      <trkpt lat="42.7287090" lon="-8.6610240">
        <ele>7.9</ele>
        <time>2021-05-23T10:25:47Z</time>
      </trkpt>
      <trkpt lat="42.7287190" lon="-8.6610230">
        <ele>7.9</ele>
        <time>2021-05-23T10:25:48Z</time>
      </trkpt>
      <trkpt lat="42.7287310" lon="-8.6610210">
        <ele>7.9</ele>
        <time>2021-05-23T10:25:49Z</time>
      </trkpt>
      <trkpt lat="42.7287510" lon="-8.6610220">
        <ele>8.0</ele>
        <time>2021-05-23T10:25:50Z</time>
      </trkpt>
      <trkpt lat="42.7287590" lon="-8.6610200">
        <ele>8.0</ele>
        <time>2021-05-23T10:25:51Z</time>
      </trkpt>
      <trkpt lat="42.7287680" lon="-8.6610190">
        <ele>8.0</ele>
        <time>2021-05-23T10:25:52Z</time>
      </trkpt>
      <trkpt lat="42.7287760" lon="-8.6610170">
        <ele>8.0</ele>
        <time>2021-05-23T10:25:53Z</time>
      </trkpt>
      <trkpt lat="42.7287870" lon="-8.6610140">
        <ele>8.0</ele>
        <time>2021-05-23T10:25:54Z</time>
      </trkpt>
      <trkpt lat="42.7288010" lon="-8.6610080">
        <ele>8.0</ele>
        <time>2021-05-23T10:25:55Z</time>
      </trkpt>
      <trkpt lat="42.7288110" lon="-8.6610070">
        <ele>8.0</ele>
        <time>2021-05-23T10:25:56Z</time>
      </trkpt>
      <trkpt lat="42.7288340" lon="-8.6610090">
        <ele>8.0</ele>
        <time>2021-05-23T10:25:57Z</time>
      </trkpt>
      <trkpt lat="42.7288410" lon="-8.6610090">
        <ele>8.0</ele>
        <time>2021-05-23T10:25:58Z</time>
      </trkpt>
      <trkpt lat="42.7288490" lon="-8.6610100">
        <ele>8.0</ele>
        <time>2021-05-23T10:25:59Z</time>
      </trkpt>
      <trkpt lat="42.7288740" lon="-8.6610070">
        <ele>8.0</ele>
        <time>2021-05-23T10:26:00Z</time>
      </trkpt>
      <trkpt lat="42.7288820" lon="-8.6610050">
        <ele>8.0</ele>
        <time>2021-05-23T10:26:01Z</time>
      </trkpt>
      <trkpt lat="42.7288910" lon="-8.6610040">
        <ele>8.0</ele>
        <time>2021-05-23T10:26:02Z</time>
      </trkpt>
      <trkpt lat="42.7289000" lon="-8.6609980">
        <ele>8.0</ele>
        <time>2021-05-23T10:26:03Z</time>
      </trkpt>
      <trkpt lat="42.7289090" lon="-8.6609920">
        <ele>8.0</ele>
        <time>2021-05-23T10:26:04Z</time>
      </trkpt>
      <trkpt lat="42.7289120" lon="-8.6609920">
        <ele>8.0</ele>
        <time>2021-05-23T10:26:05Z</time>
      </trkpt>
      <trkpt lat="42.7289250" lon="-8.6609900">
        <ele>8.0</ele>
        <time>2021-05-23T10:26:06Z</time>
      </trkpt>
      <trkpt lat="42.7289400" lon="-8.6609890">
        <ele>8.0</ele>
        <time>2021-05-23T10:26:07Z</time>
      </trkpt>
      <trkpt lat="42.7289540" lon="-8.6609880">
        <ele>8.0</ele>
        <time>2021-05-23T10:26:08Z</time>
      </trkpt>
      <trkpt lat="42.7289720" lon="-8.6609820">
        <ele>8.0</ele>
        <time>2021-05-23T10:26:09Z</time>
      </trkpt>
      <trkpt lat="42.7289810" lon="-8.6609780">
        <ele>8.0</ele>
        <time>2021-05-23T10:26:10Z</time>
      </trkpt>
      <trkpt lat="42.7289890" lon="-8.6609740">
        <ele>8.0</ele>
        <time>2021-05-23T10:26:11Z</time>
      </trkpt>
      <trkpt lat="42.7290090" lon="-8.6609740">
        <ele>8.0</ele>
        <time>2021-05-23T10:26:12Z</time>
      </trkpt>
      <trkpt lat="42.7290190" lon="-8.6609710">
        <ele>8.0</ele>
        <time>2021-05-23T10:26:13Z</time>
      </trkpt>
      <trkpt lat="42.7290290" lon="-8.6609680">
        <ele>8.1</ele>
        <time>2021-05-23T10:26:14Z</time>
      </trkpt>
      <trkpt lat="42.7290470" lon="-8.6609660">
        <ele>8.1</ele>
        <time>2021-05-23T10:26:15Z</time>
      </trkpt>
      <trkpt lat="42.7290550" lon="-8.6609670">
        <ele>8.1</ele>
        <time>2021-05-23T10:26:16Z</time>
      </trkpt>
      <trkpt lat="42.7290620" lon="-8.6609620">
        <ele>8.1</ele>
        <time>2021-05-23T10:26:17Z</time>
      </trkpt>
      <trkpt lat="42.7290730" lon="-8.6609590">
        <ele>8.1</ele>
        <time>2021-05-23T10:26:18Z</time>
      </trkpt>
      <trkpt lat="42.7290810" lon="-8.6609560">
        <ele>8.1</ele>
        <time>2021-05-23T10:26:19Z</time>
      </trkpt>
      <trkpt lat="42.7290910" lon="-8.6609610">
        <ele>8.1</ele>
        <time>2021-05-23T10:26:20Z</time>
      </trkpt>
      <trkpt lat="42.7291040" lon="-8.6609580">
        <ele>8.1</ele>
        <time>2021-05-23T10:26:21Z</time>
      </trkpt>
      <trkpt lat="42.7291170" lon="-8.6609650">
        <ele>8.1</ele>
        <time>2021-05-23T10:26:22Z</time>
      </trkpt>
      <trkpt lat="42.7291250" lon="-8.6609670">
        <ele>8.1</ele>
        <time>2021-05-23T10:26:23Z</time>
      </trkpt>
      <trkpt lat="42.7291390" lon="-8.6609650">
        <ele>8.1</ele>
        <time>2021-05-23T10:26:24Z</time>
      </trkpt>
      <trkpt lat="42.7291540" lon="-8.6609610">
        <ele>8.1</ele>
        <time>2021-05-23T10:26:25Z</time>
      </trkpt>
      <trkpt lat="42.7291660" lon="-8.6609640">
        <ele>8.1</ele>
        <time>2021-05-23T10:26:26Z</time>
      </trkpt>
      <trkpt lat="42.7291810" lon="-8.6609660">
        <ele>8.1</ele>
        <time>2021-05-23T10:26:27Z</time>
      </trkpt>
      <trkpt lat="42.7291920" lon="-8.6609620">
        <ele>8.1</ele>
        <time>2021-05-23T10:26:28Z</time>
      </trkpt>
      <trkpt lat="42.7292030" lon="-8.6609640">
        <ele>8.1</ele>
        <time>2021-05-23T10:26:29Z</time>
      </trkpt>
      <trkpt lat="42.7292130" lon="-8.6609660">
        <ele>8.1</ele>
        <time>2021-05-23T10:26:30Z</time>
      </trkpt>
      <trkpt lat="42.7292340" lon="-8.6609710">
        <ele>8.0</ele>
        <time>2021-05-23T10:26:31Z</time>
      </trkpt>
      <trkpt lat="42.7292440" lon="-8.6609700">
        <ele>8.0</ele>
        <time>2021-05-23T10:26:32Z</time>
      </trkpt>
      <trkpt lat="42.7292540" lon="-8.6609700">
        <ele>8.0</ele>
        <time>2021-05-23T10:26:33Z</time>
      </trkpt>
      <trkpt lat="42.7292680" lon="-8.6609700">
        <ele>8.0</ele>
        <time>2021-05-23T10:26:34Z</time>
      </trkpt>
      <trkpt lat="42.7292770" lon="-8.6609710">
        <ele>8.0</ele>
        <time>2021-05-23T10:26:35Z</time>
      </trkpt>
      <trkpt lat="42.7292840" lon="-8.6609680">
        <ele>8.0</ele>
        <time>2021-05-23T10:26:36Z</time>
      </trkpt>
      <trkpt lat="42.7292970" lon="-8.6609710">
        <ele>8.0</ele>
        <time>2021-05-23T10:26:37Z</time>
      </trkpt>
      <trkpt lat="42.7293110" lon="-8.6609720">
        <ele>8.0</ele>
        <time>2021-05-23T10:26:38Z</time>
      </trkpt>
      <trkpt lat="42.7293260" lon="-8.6609700">
        <ele>8.0</ele>
        <time>2021-05-23T10:26:39Z</time>
      </trkpt>
      <trkpt lat="42.7293390" lon="-8.6609660">
        <ele>8.0</ele>
        <time>2021-05-23T10:26:40Z</time>
      </trkpt>
      <trkpt lat="42.7293570" lon="-8.6609610">
        <ele>8.0</ele>
        <time>2021-05-23T10:26:41Z</time>
      </trkpt>
      <trkpt lat="42.7293690" lon="-8.6609680">
        <ele>8.0</ele>
        <time>2021-05-23T10:26:42Z</time>
      </trkpt>
      <trkpt lat="42.7293820" lon="-8.6609670">
        <ele>8.0</ele>
        <time>2021-05-23T10:26:43Z</time>
      </trkpt>
      <trkpt lat="42.7293960" lon="-8.6609620">
        <ele>8.0</ele>
        <time>2021-05-23T10:26:44Z</time>
      </trkpt>
      <trkpt lat="42.7294150" lon="-8.6609660">
        <ele>7.9</ele>
        <time>2021-05-23T10:26:45Z</time>
      </trkpt>
      <trkpt lat="42.7294240" lon="-8.6609660">
        <ele>7.9</ele>
        <time>2021-05-23T10:26:46Z</time>
      </trkpt>
      <trkpt lat="42.7294330" lon="-8.6609670">
        <ele>7.9</ele>
        <time>2021-05-23T10:26:47Z</time>
      </trkpt>
      <trkpt lat="42.7294400" lon="-8.6609640">
        <ele>7.9</ele>
        <time>2021-05-23T10:26:48Z</time>
      </trkpt>
      <trkpt lat="42.7294520" lon="-8.6609590">
        <ele>7.9</ele>
        <time>2021-05-23T10:26:49Z</time>
      </trkpt>
      <trkpt lat="42.7294560" lon="-8.6609620">
        <ele>7.9</ele>
        <time>2021-05-23T10:26:50Z</time>
      </trkpt>
      <trkpt lat="42.7294700" lon="-8.6609620">
        <ele>7.9</ele>
        <time>2021-05-23T10:26:51Z</time>
      </trkpt>
      <trkpt lat="42.7294870" lon="-8.6609580">
        <ele>7.9</ele>
        <time>2021-05-23T10:26:52Z</time>
      </trkpt>
      <trkpt lat="42.7294970" lon="-8.6609550">
        <ele>7.9</ele>
        <time>2021-05-23T10:26:53Z</time>
      </trkpt>
      <trkpt lat="42.7295070" lon="-8.6609530">
        <ele>7.9</ele>
        <time>2021-05-23T10:26:54Z</time>
      </trkpt>
      <trkpt lat="42.7295190" lon="-8.6609510">
        <ele>7.9</ele>
        <time>2021-05-23T10:26:55Z</time>
      </trkpt>
      <trkpt lat="42.7295300" lon="-8.6609480">
        <ele>7.9</ele>
        <time>2021-05-23T10:26:56Z</time>
      </trkpt>
      <trkpt lat="42.7295350" lon="-8.6609420">
        <ele>7.9</ele>
        <time>2021-05-23T10:26:57Z</time>
      </trkpt>
      <trkpt lat="42.7295540" lon="-8.6609370">
        <ele>7.9</ele>
        <time>2021-05-23T10:26:58Z</time>
      </trkpt>
      <trkpt lat="42.7295680" lon="-8.6609380">
        <ele>7.9</ele>
        <time>2021-05-23T10:26:59Z</time>
      </trkpt>
      <trkpt lat="42.7295870" lon="-8.6609400">
        <ele>7.8</ele>
        <time>2021-05-23T10:27:00Z</time>
      </trkpt>
      <trkpt lat="42.7295970" lon="-8.6609390">
        <ele>7.8</ele>
        <time>2021-05-23T10:27:01Z</time>
      </trkpt>
      <trkpt lat="42.7296060" lon="-8.6609370">
        <ele>7.8</ele>
        <time>2021-05-23T10:27:02Z</time>
      </trkpt>
      <trkpt lat="42.7296160" lon="-8.6609340">
        <ele>7.8</ele>
        <time>2021-05-23T10:27:03Z</time>
      </trkpt>
      <trkpt lat="42.7296240" lon="-8.6609350">
        <ele>7.8</ele>
        <time>2021-05-23T10:27:04Z</time>
      </trkpt>
      <trkpt lat="42.7296330" lon="-8.6609360">
        <ele>7.8</ele>
        <time>2021-05-23T10:27:05Z</time>
      </trkpt>
      <trkpt lat="42.7296480" lon="-8.6609370">
        <ele>7.8</ele>
        <time>2021-05-23T10:27:06Z</time>
      </trkpt>
      <trkpt lat="42.7296550" lon="-8.6609360">
        <ele>7.8</ele>
        <time>2021-05-23T10:27:07Z</time>
      </trkpt>
      <trkpt lat="42.7296640" lon="-8.6609440">
        <ele>7.8</ele>
        <time>2021-05-23T10:27:08Z</time>
      </trkpt>
      <trkpt lat="42.7296870" lon="-8.6609400">
        <ele>7.8</ele>
        <time>2021-05-23T10:27:09Z</time>
      </trkpt>
      <trkpt lat="42.7296960" lon="-8.6609380">
        <ele>7.8</ele>
        <time>2021-05-23T10:27:10Z</time>
      </trkpt>
      <trkpt lat="42.7297060" lon="-8.6609350">
        <ele>7.8</ele>
        <time>2021-05-23T10:27:11Z</time>
      </trkpt>
      <trkpt lat="42.7297160" lon="-8.6609360">
        <ele>7.8</ele>
        <time>2021-05-23T10:27:12Z</time>
      </trkpt>
      <trkpt lat="42.7297320" lon="-8.6609360">
        <ele>7.8</ele>
        <time>2021-05-23T10:27:13Z</time>
      </trkpt>
      <trkpt lat="42.7297380" lon="-8.6609370">
        <ele>7.8</ele>
        <time>2021-05-23T10:27:14Z</time>
      </trkpt>
      <trkpt lat="42.7297490" lon="-8.6609330">
        <ele>7.8</ele>
        <time>2021-05-23T10:27:15Z</time>
      </trkpt>
      <trkpt lat="42.7297620" lon="-8.6609320">
        <ele>7.8</ele>
        <time>2021-05-23T10:27:16Z</time>
      </trkpt>
      <trkpt lat="42.7297740" lon="-8.6609320">
        <ele>7.8</ele>
        <time>2021-05-23T10:27:17Z</time>
      </trkpt>
      <trkpt lat="42.7297980" lon="-8.6609250">
        <ele>7.8</ele>
        <time>2021-05-23T10:27:18Z</time>
      </trkpt>
      <trkpt lat="42.7298060" lon="-8.6609240">
        <ele>7.8</ele>
        <time>2021-05-23T10:27:19Z</time>
      </trkpt>
      <trkpt lat="42.7298150" lon="-8.6609240">
        <ele>7.8</ele>
        <time>2021-05-23T10:27:20Z</time>
      </trkpt>
      <trkpt lat="42.7298290" lon="-8.6609260">
        <ele>7.8</ele>
        <time>2021-05-23T10:27:21Z</time>
      </trkpt>
      <trkpt lat="42.7298410" lon="-8.6609210">
        <ele>7.8</ele>
        <time>2021-05-23T10:27:22Z</time>
      </trkpt>
      <trkpt lat="42.7298510" lon="-8.6609180">
        <ele>7.8</ele>
        <time>2021-05-23T10:27:23Z</time>
      </trkpt>
      <trkpt lat="42.7298670" lon="-8.6609190">
        <ele>7.8</ele>
        <time>2021-05-23T10:27:24Z</time>
      </trkpt>
      <trkpt lat="42.7298820" lon="-8.6609180">
        <ele>7.8</ele>
        <time>2021-05-23T10:27:25Z</time>
      </trkpt>
      <trkpt lat="42.7298930" lon="-8.6609210">
        <ele>7.8</ele>
        <time>2021-05-23T10:27:26Z</time>
      </trkpt>
      <trkpt lat="42.7299070" lon="-8.6609200">
        <ele>7.8</ele>
        <time>2021-05-23T10:27:27Z</time>
      </trkpt>
      <trkpt lat="42.7299180" lon="-8.6609200">
        <ele>7.8</ele>
        <time>2021-05-23T10:27:28Z</time>
      </trkpt>
      <trkpt lat="42.7299370" lon="-8.6609190">
        <ele>7.8</ele>
        <time>2021-05-23T10:27:29Z</time>
      </trkpt>
      <trkpt lat="42.7299430" lon="-8.6609170">
        <ele>7.9</ele>
        <time>2021-05-23T10:27:30Z</time>
      </trkpt>
      <trkpt lat="42.7299490" lon="-8.6609160">
        <ele>7.9</ele>
        <time>2021-05-23T10:27:31Z</time>
      </trkpt>
      <trkpt lat="42.7299550" lon="-8.6609140">
        <ele>7.9</ele>
        <time>2021-05-23T10:27:32Z</time>
      </trkpt>
      <trkpt lat="42.7299790" lon="-8.6609120">
        <ele>7.9</ele>
        <time>2021-05-23T10:27:33Z</time>
      </trkpt>
      <trkpt lat="42.7299860" lon="-8.6609100">
        <ele>7.9</ele>
        <time>2021-05-23T10:27:34Z</time>
      </trkpt>
      <trkpt lat="42.7299930" lon="-8.6609080">
        <ele>7.9</ele>
        <time>2021-05-23T10:27:35Z</time>
      </trkpt>
      <trkpt lat="42.7300060" lon="-8.6609080">
        <ele>7.9</ele>
        <time>2021-05-23T10:27:36Z</time>
      </trkpt>
      <trkpt lat="42.7300220" lon="-8.6609070">
        <ele>7.9</ele>
        <time>2021-05-23T10:27:37Z</time>
      </trkpt>
      <trkpt lat="42.7300320" lon="-8.6609010">
        <ele>7.9</ele>
        <time>2021-05-23T10:27:38Z</time>
      </trkpt>
      <trkpt lat="42.7300410" lon="-8.6609030">
        <ele>7.9</ele>
        <time>2021-05-23T10:27:39Z</time>
      </trkpt>
      <trkpt lat="42.7300510" lon="-8.6609060">
        <ele>7.9</ele>
        <time>2021-05-23T10:27:40Z</time>
      </trkpt>
      <trkpt lat="42.7300490" lon="-8.6609040">
        <ele>7.9</ele>
        <time>2021-05-23T10:27:41Z</time>
      </trkpt>
      <trkpt lat="42.7300730" lon="-8.6609060">
        <ele>7.9</ele>
        <time>2021-05-23T10:27:42Z</time>
      </trkpt>
      <trkpt lat="42.7300850" lon="-8.6609010">
        <ele>8.0</ele>
        <time>2021-05-23T10:27:43Z</time>
      </trkpt>
      <trkpt lat="42.7301030" lon="-8.6609050">
        <ele>8.0</ele>
        <time>2021-05-23T10:27:44Z</time>
      </trkpt>
      <trkpt lat="42.7301090" lon="-8.6609060">
        <ele>8.0</ele>
        <time>2021-05-23T10:27:45Z</time>
      </trkpt>
      <trkpt lat="42.7301160" lon="-8.6609070">
        <ele>8.0</ele>
        <time>2021-05-23T10:27:46Z</time>
      </trkpt>
      <trkpt lat="42.7301220" lon="-8.6609080">
        <ele>8.0</ele>
        <time>2021-05-23T10:27:47Z</time>
      </trkpt>
      <trkpt lat="42.7301410" lon="-8.6609140">
        <ele>8.0</ele>
        <time>2021-05-23T10:27:48Z</time>
      </trkpt>
      <trkpt lat="42.7301500" lon="-8.6609170">
        <ele>8.0</ele>
        <time>2021-05-23T10:27:49Z</time>
      </trkpt>
      <trkpt lat="42.7301590" lon="-8.6609210">
        <ele>8.0</ele>
        <time>2021-05-23T10:27:50Z</time>
      </trkpt>
      <trkpt lat="42.7301680" lon="-8.6609160">
        <ele>8.0</ele>
        <time>2021-05-23T10:27:51Z</time>
      </trkpt>
      <trkpt lat="42.7301810" lon="-8.6609090">
        <ele>8.0</ele>
        <time>2021-05-23T10:27:52Z</time>
      </trkpt>
      <trkpt lat="42.7301890" lon="-8.6609120">
        <ele>8.0</ele>
        <time>2021-05-23T10:27:53Z</time>
      </trkpt>
      <trkpt lat="42.7302030" lon="-8.6609140">
        <ele>8.0</ele>
        <time>2021-05-23T10:27:54Z</time>
      </trkpt>
      <trkpt lat="42.7302130" lon="-8.6609130">
        <ele>8.0</ele>
        <time>2021-05-23T10:27:55Z</time>
      </trkpt>
      <trkpt lat="42.7302210" lon="-8.6609180">
        <ele>8.0</ele>
        <time>2021-05-23T10:27:56Z</time>
      </trkpt>
      <trkpt lat="42.7302350" lon="-8.6609160">
        <ele>8.1</ele>
        <time>2021-05-23T10:27:57Z</time>
      </trkpt>
      <trkpt lat="42.7302440" lon="-8.6609160">
        <ele>8.1</ele>
        <time>2021-05-23T10:27:58Z</time>
      </trkpt>
      <trkpt lat="42.7302560" lon="-8.6609080">
        <ele>8.1</ele>
        <time>2021-05-23T10:27:59Z</time>
      </trkpt>
      <trkpt lat="42.7302750" lon="-8.6608880">
        <ele>8.1</ele>
        <time>2021-05-23T10:28:00Z</time>
      </trkpt>
      <trkpt lat="42.7302830" lon="-8.6608800">
        <ele>8.1</ele>
        <time>2021-05-23T10:28:01Z</time>
      </trkpt>
      <trkpt lat="42.7302910" lon="-8.6608730">
        <ele>8.1</ele>
        <time>2021-05-23T10:28:02Z</time>
      </trkpt>
      <trkpt lat="42.7303020" lon="-8.6608610">
        <ele>8.1</ele>
        <time>2021-05-23T10:28:03Z</time>
      </trkpt>
      <trkpt lat="42.7303100" lon="-8.6608610">
        <ele>8.1</ele>
        <time>2021-05-23T10:28:04Z</time>
      </trkpt>
      <trkpt lat="42.7303220" lon="-8.6608660">
        <ele>8.1</ele>
        <time>2021-05-23T10:28:05Z</time>
      </trkpt>
      <trkpt lat="42.7303400" lon="-8.6608600">
        <ele>8.1</ele>
        <time>2021-05-23T10:28:06Z</time>
      </trkpt>
      <trkpt lat="42.7303520" lon="-8.6608650">
        <ele>8.1</ele>
        <time>2021-05-23T10:28:07Z</time>
      </trkpt>
      <trkpt lat="42.7303680" lon="-8.6608630">
        <ele>8.2</ele>
        <time>2021-05-23T10:28:08Z</time>
      </trkpt>
      <trkpt lat="42.7303800" lon="-8.6608580">
        <ele>8.2</ele>
        <time>2021-05-23T10:28:09Z</time>
      </trkpt>
      <trkpt lat="42.7304000" lon="-8.6608580">
        <ele>8.2</ele>
        <time>2021-05-23T10:28:10Z</time>
      </trkpt>
      <trkpt lat="42.7304140" lon="-8.6608600">
        <ele>8.2</ele>
        <time>2021-05-23T10:28:11Z</time>
      </trkpt>
      <trkpt lat="42.7304210" lon="-8.6608630">
        <ele>8.2</ele>
        <time>2021-05-23T10:28:12Z</time>
      </trkpt>
      <trkpt lat="42.7304200" lon="-8.6608630">
        <ele>8.2</ele>
        <time>2021-05-23T10:28:13Z</time>
      </trkpt>
      <trkpt lat="42.7304250" lon="-8.6608670">
        <ele>8.2</ele>
        <time>2021-05-23T10:28:14Z</time>
      </trkpt>
      <trkpt lat="42.7304330" lon="-8.6608730">
        <ele>8.2</ele>
        <time>2021-05-23T10:28:15Z</time>
      </trkpt>
      <trkpt lat="42.7304460" lon="-8.6608750">
        <ele>8.2</ele>
        <time>2021-05-23T10:28:16Z</time>
      </trkpt>
      <trkpt lat="42.7304590" lon="-8.6608690">
        <ele>8.2</ele>
        <time>2021-05-23T10:28:17Z</time>
      </trkpt>
      <trkpt lat="42.7304670" lon="-8.6608670">
        <ele>8.2</ele>
        <time>2021-05-23T10:28:18Z</time>
      </trkpt>
      <trkpt lat="42.7304780" lon="-8.6608700">
        <ele>8.2</ele>
        <time>2021-05-23T10:28:19Z</time>
      </trkpt>
      <trkpt lat="42.7304910" lon="-8.6608720">
        <ele>8.2</ele>
        <time>2021-05-23T10:28:20Z</time>
      </trkpt>
      <trkpt lat="42.7305060" lon="-8.6608750">
        <ele>8.2</ele>
        <time>2021-05-23T10:28:21Z</time>
      </trkpt>
      <trkpt lat="42.7305180" lon="-8.6608750">
        <ele>8.2</ele>
        <time>2021-05-23T10:28:22Z</time>
      </trkpt>
      <trkpt lat="42.7305330" lon="-8.6608740">
        <ele>8.2</ele>
        <time>2021-05-23T10:28:23Z</time>
      </trkpt>
      <trkpt lat="42.7305420" lon="-8.6608790">
        <ele>8.2</ele>
        <time>2021-05-23T10:28:24Z</time>
      </trkpt>
      <trkpt lat="42.7305560" lon="-8.6608770">
        <ele>8.2</ele>
        <time>2021-05-23T10:28:25Z</time>
      </trkpt>
      <trkpt lat="42.7305670" lon="-8.6608730">
        <ele>8.2</ele>
        <time>2021-05-23T10:28:26Z</time>
      </trkpt>
      <trkpt lat="42.7305800" lon="-8.6608760">
        <ele>8.2</ele>
        <time>2021-05-23T10:28:27Z</time>
      </trkpt>
      <trkpt lat="42.7305860" lon="-8.6608810">
        <ele>8.2</ele>
        <time>2021-05-23T10:28:28Z</time>
      </trkpt>
      <trkpt lat="42.7305990" lon="-8.6608780">
        <ele>8.2</ele>
        <time>2021-05-23T10:28:29Z</time>
      </trkpt>
      <trkpt lat="42.7306150" lon="-8.6608870">
        <ele>8.2</ele>
        <time>2021-05-23T10:28:30Z</time>
      </trkpt>
      <trkpt lat="42.7306260" lon="-8.6608870">
        <ele>8.2</ele>
        <time>2021-05-23T10:28:31Z</time>
      </trkpt>
      <trkpt lat="42.7306370" lon="-8.6608880">
        <ele>8.2</ele>
        <time>2021-05-23T10:28:32Z</time>
      </trkpt>
      <trkpt lat="42.7306490" lon="-8.6608930">
        <ele>8.2</ele>
        <time>2021-05-23T10:28:33Z</time>
      </trkpt>
      <trkpt lat="42.7306600" lon="-8.6608960">
        <ele>8.2</ele>
        <time>2021-05-23T10:28:34Z</time>
      </trkpt>
      <trkpt lat="42.7306710" lon="-8.6608940">
        <ele>8.2</ele>
        <time>2021-05-23T10:28:35Z</time>
      </trkpt>
      <trkpt lat="42.7306850" lon="-8.6608920">
        <ele>8.2</ele>
        <time>2021-05-23T10:28:36Z</time>
      </trkpt>
      <trkpt lat="42.7307000" lon="-8.6608890">
        <ele>8.2</ele>
        <time>2021-05-23T10:28:37Z</time>
      </trkpt>
      <trkpt lat="42.7307020" lon="-8.6608950">
        <ele>8.1</ele>
        <time>2021-05-23T10:28:38Z</time>
      </trkpt>
      <trkpt lat="42.7307130" lon="-8.6608970">
        <ele>8.1</ele>
        <time>2021-05-23T10:28:39Z</time>
      </trkpt>
      <trkpt lat="42.7307280" lon="-8.6608990">
        <ele>8.1</ele>
        <time>2021-05-23T10:28:40Z</time>
      </trkpt>
      <trkpt lat="42.7307470" lon="-8.6608980">
        <ele>8.1</ele>
        <time>2021-05-23T10:28:41Z</time>
      </trkpt>
      <trkpt lat="42.7307650" lon="-8.6608940">
        <ele>8.1</ele>
        <time>2021-05-23T10:28:42Z</time>
      </trkpt>
      <trkpt lat="42.7307750" lon="-8.6608970">
        <ele>8.1</ele>
        <time>2021-05-23T10:28:43Z</time>
      </trkpt>
      <trkpt lat="42.7307860" lon="-8.6608940">
        <ele>8.1</ele>
        <time>2021-05-23T10:28:44Z</time>
      </trkpt>
      <trkpt lat="42.7307940" lon="-8.6608920">
        <ele>8.1</ele>
        <time>2021-05-23T10:28:45Z</time>
      </trkpt>
      <trkpt lat="42.7308060" lon="-8.6608910">
        <ele>8.1</ele>
        <time>2021-05-23T10:28:46Z</time>
      </trkpt>
      <trkpt lat="42.7308230" lon="-8.6608830">
        <ele>8.1</ele>
        <time>2021-05-23T10:28:47Z</time>
      </trkpt>
      <trkpt lat="42.7308450" lon="-8.6608870">
        <ele>8.1</ele>
        <time>2021-05-23T10:28:48Z</time>
      </trkpt>
      <trkpt lat="42.7308520" lon="-8.6608890">
        <ele>8.1</ele>
        <time>2021-05-23T10:28:49Z</time>
      </trkpt>
      <trkpt lat="42.7308600" lon="-8.6608900">
        <ele>8.1</ele>
        <time>2021-05-23T10:28:50Z</time>
      </trkpt>
      <trkpt lat="42.7308800" lon="-8.6608920">
        <ele>8.1</ele>
        <time>2021-05-23T10:28:51Z</time>
      </trkpt>
      <trkpt lat="42.7308890" lon="-8.6608940">
        <ele>8.0</ele>
        <time>2021-05-23T10:28:52Z</time>
      </trkpt>
      <trkpt lat="42.7308990" lon="-8.6608970">
        <ele>8.0</ele>
        <time>2021-05-23T10:28:53Z</time>
      </trkpt>
      <trkpt lat="42.7309130" lon="-8.6608990">
        <ele>8.0</ele>
        <time>2021-05-23T10:28:54Z</time>
      </trkpt>
      <trkpt lat="42.7309220" lon="-8.6609010">
        <ele>8.0</ele>
        <time>2021-05-23T10:28:55Z</time>
      </trkpt>
      <trkpt lat="42.7309300" lon="-8.6609020">
        <ele>8.0</ele>
        <time>2021-05-23T10:28:56Z</time>
      </trkpt>
      <trkpt lat="42.7309390" lon="-8.6609040">
        <ele>8.0</ele>
        <time>2021-05-23T10:28:57Z</time>
      </trkpt>
      <trkpt lat="42.7309550" lon="-8.6608980">
        <ele>8.0</ele>
        <time>2021-05-23T10:28:58Z</time>
      </trkpt>
      <trkpt lat="42.7309590" lon="-8.6608960">
        <ele>8.0</ele>
        <time>2021-05-23T10:28:59Z</time>
      </trkpt>
      <trkpt lat="42.7309620" lon="-8.6608940">
        <ele>8.0</ele>
        <time>2021-05-23T10:29:00Z</time>
      </trkpt>
      <trkpt lat="42.7309650" lon="-8.6608920">
        <ele>8.0</ele>
        <time>2021-05-23T10:29:01Z</time>
      </trkpt>
      <trkpt lat="42.7309680" lon="-8.6608900">
        <ele>8.0</ele>
        <time>2021-05-23T10:29:02Z</time>
      </trkpt>
      <trkpt lat="42.7309720" lon="-8.6608880">
        <ele>8.0</ele>
        <time>2021-05-23T10:29:03Z</time>
      </trkpt>
      <trkpt lat="42.7309750" lon="-8.6608860">
        <ele>8.0</ele>
        <time>2021-05-23T10:29:04Z</time>
      </trkpt>
      <trkpt lat="42.7309990" lon="-8.6609130">
        <ele>8.0</ele>
        <time>2021-05-23T10:29:05Z</time>
      </trkpt>
      <trkpt lat="42.7310150" lon="-8.6609240">
        <ele>8.0</ele>
        <time>2021-05-23T10:29:06Z</time>
      </trkpt>
      <trkpt lat="42.7310240" lon="-8.6609210">
        <ele>8.0</ele>
        <time>2021-05-23T10:29:07Z</time>
      </trkpt>
      <trkpt lat="42.7310280" lon="-8.6609130">
        <ele>8.0</ele>
        <time>2021-05-23T10:29:08Z</time>
      </trkpt>
      <trkpt lat="42.7310390" lon="-8.6609170">
        <ele>7.9</ele>
        <time>2021-05-23T10:29:09Z</time>
      </trkpt>
      <trkpt lat="42.7310480" lon="-8.6609260">
        <ele>7.9</ele>
        <time>2021-05-23T10:29:10Z</time>
      </trkpt>
      <trkpt lat="42.7310600" lon="-8.6609310">
        <ele>7.9</ele>
        <time>2021-05-23T10:29:11Z</time>
      </trkpt>
      <trkpt lat="42.7310730" lon="-8.6609300">
        <ele>7.9</ele>
        <time>2021-05-23T10:29:12Z</time>
      </trkpt>
      <trkpt lat="42.7310880" lon="-8.6609290">
        <ele>7.9</ele>
        <time>2021-05-23T10:29:13Z</time>
      </trkpt>
      <trkpt lat="42.7310950" lon="-8.6609330">
        <ele>7.9</ele>
        <time>2021-05-23T10:29:14Z</time>
      </trkpt>
      <trkpt lat="42.7311030" lon="-8.6609360">
        <ele>7.9</ele>
        <time>2021-05-23T10:29:15Z</time>
      </trkpt>
      <trkpt lat="42.7311140" lon="-8.6609320">
        <ele>7.9</ele>
        <time>2021-05-23T10:29:16Z</time>
      </trkpt>
      <trkpt lat="42.7311240" lon="-8.6609290">
        <ele>7.9</ele>
        <time>2021-05-23T10:29:17Z</time>
      </trkpt>
      <trkpt lat="42.7311340" lon="-8.6609230">
        <ele>7.9</ele>
        <time>2021-05-23T10:29:18Z</time>
      </trkpt>
      <trkpt lat="42.7311590" lon="-8.6609360">
        <ele>8.0</ele>
        <time>2021-05-23T10:29:19Z</time>
      </trkpt>
      <trkpt lat="42.7311970" lon="-8.6609570">
        <ele>8.0</ele>
        <time>2021-05-23T10:29:20Z</time>
      </trkpt>
      <trkpt lat="42.7312230" lon="-8.6609360">
        <ele>8.0</ele>
        <time>2021-05-23T10:29:21Z</time>
      </trkpt>
      <trkpt lat="42.7312330" lon="-8.6609330">
        <ele>8.0</ele>
        <time>2021-05-23T10:29:22Z</time>
      </trkpt>
      <trkpt lat="42.7312430" lon="-8.6609300">
        <ele>8.0</ele>
        <time>2021-05-23T10:29:23Z</time>
      </trkpt>
      <trkpt lat="42.7312530" lon="-8.6609270">
        <ele>8.0</ele>
        <time>2021-05-23T10:29:24Z</time>
      </trkpt>
      <trkpt lat="42.7312760" lon="-8.6609480">
        <ele>8.0</ele>
        <time>2021-05-23T10:29:25Z</time>
      </trkpt>
      <trkpt lat="42.7312940" lon="-8.6609440">
        <ele>8.0</ele>
        <time>2021-05-23T10:29:26Z</time>
      </trkpt>
      <trkpt lat="42.7313090" lon="-8.6609460">
        <ele>8.0</ele>
        <time>2021-05-23T10:29:27Z</time>
      </trkpt>
      <trkpt lat="42.7313140" lon="-8.6609550">
        <ele>8.0</ele>
        <time>2021-05-23T10:29:28Z</time>
      </trkpt>
      <trkpt lat="42.7313300" lon="-8.6609600">
        <ele>8.0</ele>
        <time>2021-05-23T10:29:29Z</time>
      </trkpt>
      <trkpt lat="42.7313390" lon="-8.6609640">
        <ele>8.0</ele>
        <time>2021-05-23T10:29:30Z</time>
      </trkpt>
      <trkpt lat="42.7313410" lon="-8.6609630">
        <ele>8.0</ele>
        <time>2021-05-23T10:29:31Z</time>
      </trkpt>
      <trkpt lat="42.7313490" lon="-8.6609690">
        <ele>8.0</ele>
        <time>2021-05-23T10:29:32Z</time>
      </trkpt>
      <trkpt lat="42.7313630" lon="-8.6609790">
        <ele>8.0</ele>
        <time>2021-05-23T10:29:33Z</time>
      </trkpt>
      <trkpt lat="42.7313690" lon="-8.6609870">
        <ele>8.0</ele>
        <time>2021-05-23T10:29:34Z</time>
      </trkpt>
      <trkpt lat="42.7313850" lon="-8.6609910">
        <ele>8.0</ele>
        <time>2021-05-23T10:29:35Z</time>
      </trkpt>
      <trkpt lat="42.7313920" lon="-8.6609950">
        <ele>8.0</ele>
        <time>2021-05-23T10:29:36Z</time>
      </trkpt>
      <trkpt lat="42.7314000" lon="-8.6609980">
        <ele>8.0</ele>
        <time>2021-05-23T10:29:37Z</time>
      </trkpt>
      <trkpt lat="42.7314070" lon="-8.6610020">
        <ele>8.0</ele>
        <time>2021-05-23T10:29:38Z</time>
      </trkpt>
      <trkpt lat="42.7314220" lon="-8.6610050">
        <ele>8.0</ele>
        <time>2021-05-23T10:29:39Z</time>
      </trkpt>
      <trkpt lat="42.7314350" lon="-8.6610060">
        <ele>8.0</ele>
        <time>2021-05-23T10:29:40Z</time>
      </trkpt>
      <trkpt lat="42.7314470" lon="-8.6610060">
        <ele>8.0</ele>
        <time>2021-05-23T10:29:41Z</time>
      </trkpt>
      <trkpt lat="42.7314550" lon="-8.6610180">
        <ele>8.0</ele>
        <time>2021-05-23T10:29:42Z</time>
      </trkpt>
      <trkpt lat="42.7314570" lon="-8.6610360">
        <ele>8.0</ele>
        <time>2021-05-23T10:29:43Z</time>
      </trkpt>
      <trkpt lat="42.7314650" lon="-8.6610340">
        <ele>8.0</ele>
        <time>2021-05-23T10:29:44Z</time>
      </trkpt>
      <trkpt lat="42.7314840" lon="-8.6610320">
        <ele>8.0</ele>
        <time>2021-05-23T10:29:45Z</time>
      </trkpt>
      <trkpt lat="42.7314950" lon="-8.6610440">
        <ele>8.0</ele>
        <time>2021-05-23T10:29:46Z</time>
      </trkpt>
      <trkpt lat="42.7315110" lon="-8.6610520">
        <ele>8.0</ele>
        <time>2021-05-23T10:29:47Z</time>
      </trkpt>
      <trkpt lat="42.7315190" lon="-8.6610460">
        <ele>7.9</ele>
        <time>2021-05-23T10:29:48Z</time>
      </trkpt>
      <trkpt lat="42.7315270" lon="-8.6610410">
        <ele>7.9</ele>
        <time>2021-05-23T10:29:49Z</time>
      </trkpt>
      <trkpt lat="42.7315350" lon="-8.6610350">
        <ele>7.9</ele>
        <time>2021-05-23T10:29:50Z</time>
      </trkpt>
      <trkpt lat="42.7315650" lon="-8.6610240">
        <ele>7.9</ele>
        <time>2021-05-23T10:29:51Z</time>
      </trkpt>
      <trkpt lat="42.7315740" lon="-8.6610220">
        <ele>7.9</ele>
        <time>2021-05-23T10:29:52Z</time>
      </trkpt>
      <trkpt lat="42.7315940" lon="-8.6610250">
        <ele>7.9</ele>
        <time>2021-05-23T10:29:53Z</time>
      </trkpt>
      <trkpt lat="42.7316040" lon="-8.6610250">
        <ele>7.9</ele>
        <time>2021-05-23T10:29:54Z</time>
      </trkpt>
      <trkpt lat="42.7316140" lon="-8.6610250">
        <ele>7.9</ele>
        <time>2021-05-23T10:29:55Z</time>
      </trkpt>
      <trkpt lat="42.7316310" lon="-8.6610330">
        <ele>7.9</ele>
        <time>2021-05-23T10:29:56Z</time>
      </trkpt>
      <trkpt lat="42.7316410" lon="-8.6610360">
        <ele>7.9</ele>
        <time>2021-05-23T10:29:57Z</time>
      </trkpt>
      <trkpt lat="42.7316510" lon="-8.6610390">
        <ele>7.9</ele>
        <time>2021-05-23T10:29:58Z</time>
      </trkpt>
      <trkpt lat="42.7316750" lon="-8.6610470">
        <ele>7.8</ele>
        <time>2021-05-23T10:29:59Z</time>
      </trkpt>
      <trkpt lat="42.7316840" lon="-8.6610490">
        <ele>7.8</ele>
        <time>2021-05-23T10:30:00Z</time>
      </trkpt>
      <trkpt lat="42.7316930" lon="-8.6610520">
        <ele>7.8</ele>
        <time>2021-05-23T10:30:01Z</time>
      </trkpt>
      <trkpt lat="42.7317070" lon="-8.6610660">
        <ele>7.8</ele>
        <time>2021-05-23T10:30:02Z</time>
      </trkpt>
      <trkpt lat="42.7317170" lon="-8.6610730">
        <ele>7.8</ele>
        <time>2021-05-23T10:30:03Z</time>
      </trkpt>
      <trkpt lat="42.7317320" lon="-8.6610790">
        <ele>7.8</ele>
        <time>2021-05-23T10:30:04Z</time>
      </trkpt>
      <trkpt lat="42.7317470" lon="-8.6610800">
        <ele>7.8</ele>
        <time>2021-05-23T10:30:05Z</time>
      </trkpt>
      <trkpt lat="42.7317690" lon="-8.6610810">
        <ele>7.8</ele>
        <time>2021-05-23T10:30:06Z</time>
      </trkpt>
      <trkpt lat="42.7317790" lon="-8.6610810">
        <ele>7.8</ele>
        <time>2021-05-23T10:30:07Z</time>
      </trkpt>
      <trkpt lat="42.7317890" lon="-8.6610820">
        <ele>7.7</ele>
        <time>2021-05-23T10:30:08Z</time>
      </trkpt>
      <trkpt lat="42.7318010" lon="-8.6610880">
        <ele>7.7</ele>
        <time>2021-05-23T10:30:09Z</time>
      </trkpt>
      <trkpt lat="42.7318150" lon="-8.6610920">
        <ele>7.7</ele>
        <time>2021-05-23T10:30:10Z</time>
      </trkpt>
      <trkpt lat="42.7318250" lon="-8.6610960">
        <ele>7.7</ele>
        <time>2021-05-23T10:30:11Z</time>
      </trkpt>
      <trkpt lat="42.7318360" lon="-8.6611020">
        <ele>7.7</ele>
        <time>2021-05-23T10:30:12Z</time>
      </trkpt>
      <trkpt lat="42.7318430" lon="-8.6611040">
        <ele>7.7</ele>
        <time>2021-05-23T10:30:13Z</time>
      </trkpt>
      <trkpt lat="42.7318550" lon="-8.6611100">
        <ele>7.7</ele>
        <time>2021-05-23T10:30:14Z</time>
      </trkpt>
      <trkpt lat="42.7318700" lon="-8.6611230">
        <ele>7.7</ele>
        <time>2021-05-23T10:30:15Z</time>
      </trkpt>
      <trkpt lat="42.7318850" lon="-8.6611310">
        <ele>7.7</ele>
        <time>2021-05-23T10:30:16Z</time>
      </trkpt>
      <trkpt lat="42.7319020" lon="-8.6611310">
        <ele>7.7</ele>
        <time>2021-05-23T10:30:17Z</time>
      </trkpt>
      <trkpt lat="42.7319110" lon="-8.6611350">
        <ele>7.6</ele>
        <time>2021-05-23T10:30:18Z</time>
      </trkpt>
      <trkpt lat="42.7319230" lon="-8.6611360">
        <ele>7.6</ele>
        <time>2021-05-23T10:30:19Z</time>
      </trkpt>
      <trkpt lat="42.7319360" lon="-8.6611380">
        <ele>7.6</ele>
        <time>2021-05-23T10:30:20Z</time>
      </trkpt>
      <trkpt lat="42.7319560" lon="-8.6611410">
        <ele>7.6</ele>
        <time>2021-05-23T10:30:21Z</time>
      </trkpt>
      <trkpt lat="42.7319650" lon="-8.6611410">
        <ele>7.6</ele>
        <time>2021-05-23T10:30:22Z</time>
      </trkpt>
      <trkpt lat="42.7319740" lon="-8.6611400">
        <ele>7.6</ele>
        <time>2021-05-23T10:30:23Z</time>
      </trkpt>
      <trkpt lat="42.7319830" lon="-8.6611390">
        <ele>7.6</ele>
        <time>2021-05-23T10:30:24Z</time>
      </trkpt>
      <trkpt lat="42.7320000" lon="-8.6611530">
        <ele>7.6</ele>
        <time>2021-05-23T10:30:25Z</time>
      </trkpt>
      <trkpt lat="42.7320090" lon="-8.6611580">
        <ele>7.6</ele>
        <time>2021-05-23T10:30:26Z</time>
      </trkpt>
      <trkpt lat="42.7320180" lon="-8.6611620">
        <ele>7.6</ele>
        <time>2021-05-23T10:30:27Z</time>
      </trkpt>
      <trkpt lat="42.7320370" lon="-8.6611540">
        <ele>7.5</ele>
        <time>2021-05-23T10:30:28Z</time>
      </trkpt>
      <trkpt lat="42.7320490" lon="-8.6611550">
        <ele>7.5</ele>
        <time>2021-05-23T10:30:29Z</time>
      </trkpt>
      <trkpt lat="42.7320630" lon="-8.6611550">
        <ele>7.5</ele>
        <time>2021-05-23T10:30:30Z</time>
      </trkpt>
      <trkpt lat="42.7320690" lon="-8.6611570">
        <ele>7.5</ele>
        <time>2021-05-23T10:30:31Z</time>
      </trkpt>
      <trkpt lat="42.7320740" lon="-8.6611590">
        <ele>7.5</ele>
        <time>2021-05-23T10:30:32Z</time>
      </trkpt>
      <trkpt lat="42.7320800" lon="-8.6611610">
        <ele>7.5</ele>
        <time>2021-05-23T10:30:33Z</time>
      </trkpt>
      <trkpt lat="42.7320850" lon="-8.6611630">
        <ele>7.5</ele>
        <time>2021-05-23T10:30:34Z</time>
      </trkpt>
      <trkpt lat="42.7321050" lon="-8.6611620">
        <ele>7.5</ele>
        <time>2021-05-23T10:30:35Z</time>
      </trkpt>
      <trkpt lat="42.7321180" lon="-8.6611640">
        <ele>7.5</ele>
        <time>2021-05-23T10:30:36Z</time>
      </trkpt>
      <trkpt lat="42.7321420" lon="-8.6611630">
        <ele>7.4</ele>
        <time>2021-05-23T10:30:37Z</time>
      </trkpt>
      <trkpt lat="42.7321510" lon="-8.6611590">
        <ele>7.4</ele>
        <time>2021-05-23T10:30:38Z</time>
      </trkpt>
      <trkpt lat="42.7321600" lon="-8.6611550">
        <ele>7.4</ele>
        <time>2021-05-23T10:30:39Z</time>
      </trkpt>
      <trkpt lat="42.7321740" lon="-8.6611490">
        <ele>7.4</ele>
        <time>2021-05-23T10:30:40Z</time>
      </trkpt>
      <trkpt lat="42.7321890" lon="-8.6611540">
        <ele>7.4</ele>
        <time>2021-05-23T10:30:41Z</time>
      </trkpt>
      <trkpt lat="42.7322070" lon="-8.6611620">
        <ele>7.4</ele>
        <time>2021-05-23T10:30:42Z</time>
      </trkpt>
      <trkpt lat="42.7322160" lon="-8.6611740">
        <ele>7.4</ele>
        <time>2021-05-23T10:30:43Z</time>
      </trkpt>
      <trkpt lat="42.7322230" lon="-8.6611780">
        <ele>7.4</ele>
        <time>2021-05-23T10:30:44Z</time>
      </trkpt>
      <trkpt lat="42.7322380" lon="-8.6611780">
        <ele>7.3</ele>
        <time>2021-05-23T10:30:45Z</time>
      </trkpt>
      <trkpt lat="42.7322510" lon="-8.6611800">
        <ele>7.3</ele>
        <time>2021-05-23T10:30:46Z</time>
      </trkpt>
      <trkpt lat="42.7322590" lon="-8.6611870">
        <ele>7.3</ele>
        <time>2021-05-23T10:30:47Z</time>
      </trkpt>
      <trkpt lat="42.7322660" lon="-8.6611910">
        <ele>7.3</ele>
        <time>2021-05-23T10:30:48Z</time>
      </trkpt>
      <trkpt lat="42.7322790" lon="-8.6611950">
        <ele>7.3</ele>
        <time>2021-05-23T10:30:49Z</time>
      </trkpt>
      <trkpt lat="42.7322980" lon="-8.6612080">
        <ele>7.3</ele>
        <time>2021-05-23T10:30:50Z</time>
      </trkpt>
      <trkpt lat="42.7323070" lon="-8.6612140">
        <ele>7.3</ele>
        <time>2021-05-23T10:30:51Z</time>
      </trkpt>
      <trkpt lat="42.7323150" lon="-8.6612200">
        <ele>7.3</ele>
        <time>2021-05-23T10:30:52Z</time>
      </trkpt>
      <trkpt lat="42.7323310" lon="-8.6612210">
        <ele>7.3</ele>
        <time>2021-05-23T10:30:53Z</time>
      </trkpt>
      <trkpt lat="42.7323440" lon="-8.6612230">
        <ele>7.3</ele>
        <time>2021-05-23T10:30:54Z</time>
      </trkpt>
      <trkpt lat="42.7323570" lon="-8.6612200">
        <ele>7.3</ele>
        <time>2021-05-23T10:30:55Z</time>
      </trkpt>
      <trkpt lat="42.7323660" lon="-8.6612230">
        <ele>7.3</ele>
        <time>2021-05-23T10:30:56Z</time>
      </trkpt>
      <trkpt lat="42.7323770" lon="-8.6612250">
        <ele>7.3</ele>
        <time>2021-05-23T10:30:57Z</time>
      </trkpt>
      <trkpt lat="42.7323990" lon="-8.6612270">
        <ele>7.3</ele>
        <time>2021-05-23T10:30:58Z</time>
      </trkpt>
      <trkpt lat="42.7324080" lon="-8.6612290">
        <ele>7.3</ele>
        <time>2021-05-23T10:30:59Z</time>
      </trkpt>
      <trkpt lat="42.7324180" lon="-8.6612300">
        <ele>7.3</ele>
        <time>2021-05-23T10:31:00Z</time>
      </trkpt>
      <trkpt lat="42.7324310" lon="-8.6612310">
        <ele>7.3</ele>
        <time>2021-05-23T10:31:01Z</time>
      </trkpt>
      <trkpt lat="42.7324390" lon="-8.6612350">
        <ele>7.3</ele>
        <time>2021-05-23T10:31:02Z</time>
      </trkpt>
      <trkpt lat="42.7324470" lon="-8.6612320">
        <ele>7.3</ele>
        <time>2021-05-23T10:31:03Z</time>
      </trkpt>
      <trkpt lat="42.7324530" lon="-8.6612380">
        <ele>7.3</ele>
        <time>2021-05-23T10:31:04Z</time>
      </trkpt>
      <trkpt lat="42.7324750" lon="-8.6612430">
        <ele>7.3</ele>
        <time>2021-05-23T10:31:05Z</time>
      </trkpt>
      <trkpt lat="42.7324850" lon="-8.6612440">
        <ele>7.3</ele>
        <time>2021-05-23T10:31:06Z</time>
      </trkpt>
      <trkpt lat="42.7324910" lon="-8.6612490">
        <ele>7.3</ele>
        <time>2021-05-23T10:31:07Z</time>
      </trkpt>
      <trkpt lat="42.7324990" lon="-8.6612490">
        <ele>7.3</ele>
        <time>2021-05-23T10:31:08Z</time>
      </trkpt>
      <trkpt lat="42.7325070" lon="-8.6612570">
        <ele>7.3</ele>
        <time>2021-05-23T10:31:09Z</time>
      </trkpt>
      <trkpt lat="42.7325250" lon="-8.6612620">
        <ele>7.3</ele>
        <time>2021-05-23T10:31:10Z</time>
      </trkpt>
      <trkpt lat="42.7325340" lon="-8.6612590">
        <ele>7.3</ele>
        <time>2021-05-23T10:31:11Z</time>
      </trkpt>
      <trkpt lat="42.7325440" lon="-8.6612550">
        <ele>7.3</ele>
        <time>2021-05-23T10:31:12Z</time>
      </trkpt>
      <trkpt lat="42.7325630" lon="-8.6612640">
        <ele>7.3</ele>
        <time>2021-05-23T10:31:13Z</time>
      </trkpt>
      <trkpt lat="42.7325730" lon="-8.6612660">
        <ele>7.3</ele>
        <time>2021-05-23T10:31:14Z</time>
      </trkpt>
      <trkpt lat="42.7325820" lon="-8.6612670">
        <ele>7.3</ele>
        <time>2021-05-23T10:31:15Z</time>
      </trkpt>
      <trkpt lat="42.7326020" lon="-8.6612690">
        <ele>7.3</ele>
        <time>2021-05-23T10:31:16Z</time>
      </trkpt>
      <trkpt lat="42.7326100" lon="-8.6612690">
        <ele>7.3</ele>
        <time>2021-05-23T10:31:17Z</time>
      </trkpt>
      <trkpt lat="42.7326190" lon="-8.6612690">
        <ele>7.2</ele>
        <time>2021-05-23T10:31:18Z</time>
      </trkpt>
      <trkpt lat="42.7326240" lon="-8.6612800">
        <ele>7.2</ele>
        <time>2021-05-23T10:31:19Z</time>
      </trkpt>
      <trkpt lat="42.7326370" lon="-8.6612840">
        <ele>7.2</ele>
        <time>2021-05-23T10:31:20Z</time>
      </trkpt>
      <trkpt lat="42.7326530" lon="-8.6612830">
        <ele>7.2</ele>
        <time>2021-05-23T10:31:21Z</time>
      </trkpt>
      <trkpt lat="42.7326640" lon="-8.6612900">
        <ele>7.2</ele>
        <time>2021-05-23T10:31:22Z</time>
      </trkpt>
      <trkpt lat="42.7326700" lon="-8.6612900">
        <ele>7.2</ele>
        <time>2021-05-23T10:31:23Z</time>
      </trkpt>
      <trkpt lat="42.7326840" lon="-8.6612930">
        <ele>7.2</ele>
        <time>2021-05-23T10:31:24Z</time>
      </trkpt>
      <trkpt lat="42.7327050" lon="-8.6612940">
        <ele>7.2</ele>
        <time>2021-05-23T10:31:25Z</time>
      </trkpt>
      <trkpt lat="42.7327160" lon="-8.6612950">
        <ele>7.2</ele>
        <time>2021-05-23T10:31:26Z</time>
      </trkpt>
      <trkpt lat="42.7327270" lon="-8.6612960">
        <ele>7.2</ele>
        <time>2021-05-23T10:31:27Z</time>
      </trkpt>
      <trkpt lat="42.7327470" lon="-8.6613000">
        <ele>7.2</ele>
        <time>2021-05-23T10:31:28Z</time>
      </trkpt>
      <trkpt lat="42.7327590" lon="-8.6613040">
        <ele>7.2</ele>
        <time>2021-05-23T10:31:29Z</time>
      </trkpt>
      <trkpt lat="42.7327750" lon="-8.6613110">
        <ele>7.2</ele>
        <time>2021-05-23T10:31:30Z</time>
      </trkpt>
      <trkpt lat="42.7327860" lon="-8.6613130">
        <ele>7.2</ele>
        <time>2021-05-23T10:31:31Z</time>
      </trkpt>
      <trkpt lat="42.7328150" lon="-8.6613180">
        <ele>7.2</ele>
        <time>2021-05-23T10:31:32Z</time>
      </trkpt>
      <trkpt lat="42.7328250" lon="-8.6613190">
        <ele>7.2</ele>
        <time>2021-05-23T10:31:33Z</time>
      </trkpt>
      <trkpt lat="42.7328470" lon="-8.6613240">
        <ele>7.2</ele>
        <time>2021-05-23T10:31:34Z</time>
      </trkpt>
      <trkpt lat="42.7328570" lon="-8.6613240">
        <ele>7.2</ele>
        <time>2021-05-23T10:31:35Z</time>
      </trkpt>
      <trkpt lat="42.7328670" lon="-8.6613240">
        <ele>7.2</ele>
        <time>2021-05-23T10:31:36Z</time>
      </trkpt>
      <trkpt lat="42.7328790" lon="-8.6613280">
        <ele>7.2</ele>
        <time>2021-05-23T10:31:37Z</time>
      </trkpt>
      <trkpt lat="42.7328960" lon="-8.6613330">
        <ele>7.2</ele>
        <time>2021-05-23T10:31:38Z</time>
      </trkpt>
      <trkpt lat="42.7329090" lon="-8.6613330">
        <ele>7.2</ele>
        <time>2021-05-23T10:31:39Z</time>
      </trkpt>
      <trkpt lat="42.7329210" lon="-8.6613330">
        <ele>7.2</ele>
        <time>2021-05-23T10:31:40Z</time>
      </trkpt>
      <trkpt lat="42.7329270" lon="-8.6613410">
        <ele>7.2</ele>
        <time>2021-05-23T10:31:41Z</time>
      </trkpt>
      <trkpt lat="42.7329410" lon="-8.6613510">
        <ele>7.2</ele>
        <time>2021-05-23T10:31:42Z</time>
      </trkpt>
      <trkpt lat="42.7329530" lon="-8.6613490">
        <ele>7.2</ele>
        <time>2021-05-23T10:31:43Z</time>
      </trkpt>
      <trkpt lat="42.7329590" lon="-8.6613500">
        <ele>7.2</ele>
        <time>2021-05-23T10:31:44Z</time>
      </trkpt>
      <trkpt lat="42.7329810" lon="-8.6613460">
        <ele>7.2</ele>
        <time>2021-05-23T10:31:45Z</time>
      </trkpt>
      <trkpt lat="42.7329870" lon="-8.6613500">
        <ele>7.2</ele>
        <time>2021-05-23T10:31:46Z</time>
      </trkpt>
      <trkpt lat="42.7329980" lon="-8.6613520">
        <ele>7.2</ele>
        <time>2021-05-23T10:31:47Z</time>
      </trkpt>
      <trkpt lat="42.7330010" lon="-8.6613540">
        <ele>7.2</ele>
        <time>2021-05-23T10:31:48Z</time>
      </trkpt>
      <trkpt lat="42.7330080" lon="-8.6613610">
        <ele>7.2</ele>
        <time>2021-05-23T10:31:49Z</time>
      </trkpt>
      <trkpt lat="42.7330100" lon="-8.6613660">
        <ele>7.2</ele>
        <time>2021-05-23T10:31:50Z</time>
      </trkpt>
      <trkpt lat="42.7330190" lon="-8.6613660">
        <ele>7.2</ele>
        <time>2021-05-23T10:31:51Z</time>
      </trkpt>
      <trkpt lat="42.7330310" lon="-8.6613650">
        <ele>7.2</ele>
        <time>2021-05-23T10:31:52Z</time>
      </trkpt>
      <trkpt lat="42.7330390" lon="-8.6613730">
        <ele>7.2</ele>
        <time>2021-05-23T10:31:53Z</time>
      </trkpt>
      <trkpt lat="42.7330440" lon="-8.6613800">
        <ele>7.2</ele>
        <time>2021-05-23T10:31:54Z</time>
      </trkpt>
      <trkpt lat="42.7330610" lon="-8.6613840">
        <ele>7.2</ele>
        <time>2021-05-23T10:31:55Z</time>
      </trkpt>
      <trkpt lat="42.7330760" lon="-8.6613910">
        <ele>7.2</ele>
        <time>2021-05-23T10:31:56Z</time>
      </trkpt>
      <trkpt lat="42.7330900" lon="-8.6613910">
        <ele>7.2</ele>
        <time>2021-05-23T10:31:57Z</time>
      </trkpt>
      <trkpt lat="42.7330960" lon="-8.6613930">
        <ele>7.2</ele>
        <time>2021-05-23T10:31:58Z</time>
      </trkpt>
      <trkpt lat="42.7331010" lon="-8.6613940">
        <ele>7.2</ele>
        <time>2021-05-23T10:31:59Z</time>
      </trkpt>
      <trkpt lat="42.7331070" lon="-8.6613960">
        <ele>7.2</ele>
        <time>2021-05-23T10:32:00Z</time>
      </trkpt>
      <trkpt lat="42.7331130" lon="-8.6613970">
        <ele>7.2</ele>
        <time>2021-05-23T10:32:01Z</time>
      </trkpt>
      <trkpt lat="42.7331270" lon="-8.6614060">
        <ele>7.2</ele>
        <time>2021-05-23T10:32:02Z</time>
      </trkpt>
      <trkpt lat="42.7331320" lon="-8.6614020">
        <ele>7.2</ele>
        <time>2021-05-23T10:32:03Z</time>
      </trkpt>
      <trkpt lat="42.7331400" lon="-8.6614120">
        <ele>7.2</ele>
        <time>2021-05-23T10:32:04Z</time>
      </trkpt>
      <trkpt lat="42.7331510" lon="-8.6614150">
        <ele>7.2</ele>
        <time>2021-05-23T10:32:05Z</time>
      </trkpt>
      <trkpt lat="42.7331640" lon="-8.6614250">
        <ele>7.2</ele>
        <time>2021-05-23T10:32:06Z</time>
      </trkpt>
      <trkpt lat="42.7331720" lon="-8.6614310">
        <ele>7.2</ele>
        <time>2021-05-23T10:32:07Z</time>
      </trkpt>
      <trkpt lat="42.7331760" lon="-8.6614240">
        <ele>7.2</ele>
        <time>2021-05-23T10:32:08Z</time>
      </trkpt>
      <trkpt lat="42.7331880" lon="-8.6614300">
        <ele>7.2</ele>
        <time>2021-05-23T10:32:09Z</time>
      </trkpt>
      <trkpt lat="42.7332010" lon="-8.6614350">
        <ele>7.2</ele>
        <time>2021-05-23T10:32:10Z</time>
      </trkpt>
      <trkpt lat="42.7332190" lon="-8.6614450">
        <ele>7.2</ele>
        <time>2021-05-23T10:32:11Z</time>
      </trkpt>
      <trkpt lat="42.7332270" lon="-8.6614500">
        <ele>7.2</ele>
        <time>2021-05-23T10:32:12Z</time>
      </trkpt>
      <trkpt lat="42.7332360" lon="-8.6614560">
        <ele>7.2</ele>
        <time>2021-05-23T10:32:13Z</time>
      </trkpt>
      <trkpt lat="42.7332570" lon="-8.6614660">
        <ele>7.2</ele>
        <time>2021-05-23T10:32:14Z</time>
      </trkpt>
      <trkpt lat="42.7332680" lon="-8.6614710">
        <ele>7.2</ele>
        <time>2021-05-23T10:32:15Z</time>
      </trkpt>
      <trkpt lat="42.7332780" lon="-8.6614760">
        <ele>7.2</ele>
        <time>2021-05-23T10:32:16Z</time>
      </trkpt>
      <trkpt lat="42.7332910" lon="-8.6614840">
        <ele>7.2</ele>
        <time>2021-05-23T10:32:17Z</time>
      </trkpt>
      <trkpt lat="42.7333020" lon="-8.6614940">
        <ele>7.2</ele>
        <time>2021-05-23T10:32:18Z</time>
      </trkpt>
      <trkpt lat="42.7333140" lon="-8.6614970">
        <ele>7.2</ele>
        <time>2021-05-23T10:32:19Z</time>
      </trkpt>
      <trkpt lat="42.7333230" lon="-8.6615000">
        <ele>7.2</ele>
        <time>2021-05-23T10:32:20Z</time>
      </trkpt>
      <trkpt lat="42.7333370" lon="-8.6615000">
        <ele>7.2</ele>
        <time>2021-05-23T10:32:21Z</time>
      </trkpt>
      <trkpt lat="42.7333510" lon="-8.6615130">
        <ele>7.2</ele>
        <time>2021-05-23T10:32:22Z</time>
      </trkpt>
      <trkpt lat="42.7333710" lon="-8.6615040">
        <ele>7.2</ele>
        <time>2021-05-23T10:32:23Z</time>
      </trkpt>
      <trkpt lat="42.7333820" lon="-8.6615030">
        <ele>7.2</ele>
        <time>2021-05-23T10:32:24Z</time>
      </trkpt>
      <trkpt lat="42.7333990" lon="-8.6615020">
        <ele>7.2</ele>
        <time>2021-05-23T10:32:25Z</time>
      </trkpt>
      <trkpt lat="42.7334200" lon="-8.6615010">
        <ele>7.2</ele>
        <time>2021-05-23T10:32:26Z</time>
      </trkpt>
      <trkpt lat="42.7334320" lon="-8.6614940">
        <ele>7.2</ele>
        <time>2021-05-23T10:32:27Z</time>
      </trkpt>
      <trkpt lat="42.7334500" lon="-8.6614950">
        <ele>7.2</ele>
        <time>2021-05-23T10:32:28Z</time>
      </trkpt>
      <trkpt lat="42.7334640" lon="-8.6614920">
        <ele>7.2</ele>
        <time>2021-05-23T10:32:29Z</time>
      </trkpt>
      <trkpt lat="42.7334700" lon="-8.6614980">
        <ele>7.2</ele>
        <time>2021-05-23T10:32:30Z</time>
      </trkpt>
      <trkpt lat="42.7334790" lon="-8.6614960">
        <ele>7.2</ele>
        <time>2021-05-23T10:32:31Z</time>
      </trkpt>
      <trkpt lat="42.7334970" lon="-8.6614940">
        <ele>7.2</ele>
        <time>2021-05-23T10:32:32Z</time>
      </trkpt>
      <trkpt lat="42.7335130" lon="-8.6614920">
        <ele>7.2</ele>
        <time>2021-05-23T10:32:33Z</time>
      </trkpt>
      <trkpt lat="42.7335270" lon="-8.6614850">
        <ele>7.2</ele>
        <time>2021-05-23T10:32:34Z</time>
      </trkpt>
      <trkpt lat="42.7335410" lon="-8.6614800">
        <ele>7.2</ele>
        <time>2021-05-23T10:32:35Z</time>
      </trkpt>
      <trkpt lat="42.7335540" lon="-8.6614780">
        <ele>7.2</ele>
        <time>2021-05-23T10:32:36Z</time>
      </trkpt>
      <trkpt lat="42.7335710" lon="-8.6614740">
        <ele>7.2</ele>
        <time>2021-05-23T10:32:37Z</time>
      </trkpt>
      <trkpt lat="42.7335890" lon="-8.6614760">
        <ele>7.2</ele>
        <time>2021-05-23T10:32:38Z</time>
      </trkpt>
      <trkpt lat="42.7335990" lon="-8.6614770">
        <ele>7.2</ele>
        <time>2021-05-23T10:32:39Z</time>
      </trkpt>
      <trkpt lat="42.7336190" lon="-8.6614770">
        <ele>7.2</ele>
        <time>2021-05-23T10:32:40Z</time>
      </trkpt>
      <trkpt lat="42.7336510" lon="-8.6614680">
        <ele>7.2</ele>
        <time>2021-05-23T10:32:41Z</time>
      </trkpt>
      <trkpt lat="42.7336600" lon="-8.6614650">
        <ele>7.2</ele>
        <time>2021-05-23T10:32:42Z</time>
      </trkpt>
      <trkpt lat="42.7336760" lon="-8.6614610">
        <ele>7.2</ele>
        <time>2021-05-23T10:32:43Z</time>
      </trkpt>
      <trkpt lat="42.7336900" lon="-8.6614640">
        <ele>7.2</ele>
        <time>2021-05-23T10:32:44Z</time>
      </trkpt>
      <trkpt lat="42.7337070" lon="-8.6614710">
        <ele>7.2</ele>
        <time>2021-05-23T10:32:45Z</time>
      </trkpt>
      <trkpt lat="42.7337200" lon="-8.6614820">
        <ele>7.2</ele>
        <time>2021-05-23T10:32:46Z</time>
      </trkpt>
      <trkpt lat="42.7337330" lon="-8.6614870">
        <ele>7.2</ele>
        <time>2021-05-23T10:32:47Z</time>
      </trkpt>
      <trkpt lat="42.7337460" lon="-8.6614890">
        <ele>7.2</ele>
        <time>2021-05-23T10:32:48Z</time>
      </trkpt>
      <trkpt lat="42.7337530" lon="-8.6614970">
        <ele>7.2</ele>
        <time>2021-05-23T10:32:49Z</time>
      </trkpt>
      <trkpt lat="42.7337700" lon="-8.6615020">
        <ele>7.3</ele>
        <time>2021-05-23T10:32:50Z</time>
      </trkpt>
      <trkpt lat="42.7337810" lon="-8.6615010">
        <ele>7.3</ele>
        <time>2021-05-23T10:32:51Z</time>
      </trkpt>
      <trkpt lat="42.7338000" lon="-8.6615080">
        <ele>7.3</ele>
        <time>2021-05-23T10:32:52Z</time>
      </trkpt>
      <trkpt lat="42.7338100" lon="-8.6615140">
        <ele>7.3</ele>
        <time>2021-05-23T10:32:53Z</time>
      </trkpt>
      <trkpt lat="42.7338200" lon="-8.6615210">
        <ele>7.3</ele>
        <time>2021-05-23T10:32:54Z</time>
      </trkpt>
      <trkpt lat="42.7338380" lon="-8.6615290">
        <ele>7.3</ele>
        <time>2021-05-23T10:32:55Z</time>
      </trkpt>
      <trkpt lat="42.7338440" lon="-8.6615330">
        <ele>7.3</ele>
        <time>2021-05-23T10:32:56Z</time>
      </trkpt>
      <trkpt lat="42.7338500" lon="-8.6615370">
        <ele>7.3</ele>
        <time>2021-05-23T10:32:57Z</time>
      </trkpt>
      <trkpt lat="42.7338560" lon="-8.6615410">
        <ele>7.3</ele>
        <time>2021-05-23T10:32:58Z</time>
      </trkpt>
      <trkpt lat="42.7338680" lon="-8.6615470">
        <ele>7.3</ele>
        <time>2021-05-23T10:32:59Z</time>
      </trkpt>
      <trkpt lat="42.7338760" lon="-8.6615500">
        <ele>7.3</ele>
        <time>2021-05-23T10:33:00Z</time>
      </trkpt>
      <trkpt lat="42.7338830" lon="-8.6615540">
        <ele>7.4</ele>
        <time>2021-05-23T10:33:01Z</time>
      </trkpt>
      <trkpt lat="42.7338910" lon="-8.6615580">
        <ele>7.4</ele>
        <time>2021-05-23T10:33:02Z</time>
      </trkpt>
      <trkpt lat="42.7339000" lon="-8.6615680">
        <ele>7.4</ele>
        <time>2021-05-23T10:33:03Z</time>
      </trkpt>
      <trkpt lat="42.7339080" lon="-8.6615770">
        <ele>7.4</ele>
        <time>2021-05-23T10:33:04Z</time>
      </trkpt>
      <trkpt lat="42.7339130" lon="-8.6615860">
        <ele>7.4</ele>
        <time>2021-05-23T10:33:05Z</time>
      </trkpt>
      <trkpt lat="42.7339240" lon="-8.6615960">
        <ele>7.4</ele>
        <time>2021-05-23T10:33:06Z</time>
      </trkpt>
      <trkpt lat="42.7339400" lon="-8.6616040">
        <ele>7.4</ele>
        <time>2021-05-23T10:33:07Z</time>
      </trkpt>
      <trkpt lat="42.7339480" lon="-8.6616090">
        <ele>7.4</ele>
        <time>2021-05-23T10:33:08Z</time>
      </trkpt>
      <trkpt lat="42.7339550" lon="-8.6616160">
        <ele>7.4</ele>
        <time>2021-05-23T10:33:09Z</time>
      </trkpt>
      <trkpt lat="42.7339650" lon="-8.6616230">
        <ele>7.4</ele>
        <time>2021-05-23T10:33:10Z</time>
      </trkpt>
      <trkpt lat="42.7339750" lon="-8.6616220">
        <ele>7.4</ele>
        <time>2021-05-23T10:33:11Z</time>
      </trkpt>
      <trkpt lat="42.7339840" lon="-8.6616220">
        <ele>7.4</ele>
        <time>2021-05-23T10:33:12Z</time>
      </trkpt>
      <trkpt lat="42.7339940" lon="-8.6616130">
        <ele>7.5</ele>
        <time>2021-05-23T10:33:13Z</time>
      </trkpt>
      <trkpt lat="42.7340000" lon="-8.6616140">
        <ele>7.5</ele>
        <time>2021-05-23T10:33:14Z</time>
      </trkpt>
      <trkpt lat="42.7339980" lon="-8.6616140">
        <ele>7.5</ele>
        <time>2021-05-23T10:33:15Z</time>
      </trkpt>
      <trkpt lat="42.7340110" lon="-8.6616240">
        <ele>7.5</ele>
        <time>2021-05-23T10:33:16Z</time>
      </trkpt>
      <trkpt lat="42.7340270" lon="-8.6616020">
        <ele>7.5</ele>
        <time>2021-05-23T10:33:17Z</time>
      </trkpt>
      <trkpt lat="42.7340390" lon="-8.6615900">
        <ele>7.5</ele>
        <time>2021-05-23T10:33:18Z</time>
      </trkpt>
      <trkpt lat="42.7340490" lon="-8.6615830">
        <ele>7.5</ele>
        <time>2021-05-23T10:33:19Z</time>
      </trkpt>
      <trkpt lat="42.7340480" lon="-8.6615820">
        <ele>7.5</ele>
        <time>2021-05-23T10:33:20Z</time>
      </trkpt>
      <trkpt lat="42.7340510" lon="-8.6615770">
        <ele>7.5</ele>
        <time>2021-05-23T10:33:21Z</time>
      </trkpt>
      <trkpt lat="42.7340630" lon="-8.6615740">
        <ele>7.5</ele>
        <time>2021-05-23T10:33:22Z</time>
      </trkpt>
      <trkpt lat="42.7340830" lon="-8.6615720">
        <ele>7.6</ele>
        <time>2021-05-23T10:33:23Z</time>
      </trkpt>
      <trkpt lat="42.7341030" lon="-8.6615810">
        <ele>7.6</ele>
        <time>2021-05-23T10:33:24Z</time>
      </trkpt>
      <trkpt lat="42.7341130" lon="-8.6615880">
        <ele>7.6</ele>
        <time>2021-05-23T10:33:25Z</time>
      </trkpt>
      <trkpt lat="42.7341230" lon="-8.6615960">
        <ele>7.6</ele>
        <time>2021-05-23T10:33:26Z</time>
      </trkpt>
      <trkpt lat="42.7341420" lon="-8.6615960">
        <ele>7.6</ele>
        <time>2021-05-23T10:33:27Z</time>
      </trkpt>
      <trkpt lat="42.7341500" lon="-8.6616020">
        <ele>7.6</ele>
        <time>2021-05-23T10:33:28Z</time>
      </trkpt>
      <trkpt lat="42.7341580" lon="-8.6616080">
        <ele>7.6</ele>
        <time>2021-05-23T10:33:29Z</time>
      </trkpt>
      <trkpt lat="42.7341690" lon="-8.6616040">
        <ele>7.6</ele>
        <time>2021-05-23T10:33:30Z</time>
      </trkpt>
      <trkpt lat="42.7341770" lon="-8.6616010">
        <ele>7.6</ele>
        <time>2021-05-23T10:33:31Z</time>
      </trkpt>
      <trkpt lat="42.7341860" lon="-8.6616080">
        <ele>7.6</ele>
        <time>2021-05-23T10:33:32Z</time>
      </trkpt>
      <trkpt lat="42.7341930" lon="-8.6616060">
        <ele>7.6</ele>
        <time>2021-05-23T10:33:33Z</time>
      </trkpt>
      <trkpt lat="42.7342020" lon="-8.6616080">
        <ele>7.6</ele>
        <time>2021-05-23T10:33:34Z</time>
      </trkpt>
      <trkpt lat="42.7342130" lon="-8.6616080">
        <ele>7.6</ele>
        <time>2021-05-23T10:33:35Z</time>
      </trkpt>
      <trkpt lat="42.7342210" lon="-8.6616070">
        <ele>7.6</ele>
        <time>2021-05-23T10:33:36Z</time>
      </trkpt>
      <trkpt lat="42.7342320" lon="-8.6616120">
        <ele>7.6</ele>
        <time>2021-05-23T10:33:37Z</time>
      </trkpt>
      <trkpt lat="42.7342490" lon="-8.6616210">
        <ele>7.6</ele>
        <time>2021-05-23T10:33:38Z</time>
      </trkpt>
      <trkpt lat="42.7342590" lon="-8.6616280">
        <ele>7.6</ele>
        <time>2021-05-23T10:33:39Z</time>
      </trkpt>
      <trkpt lat="42.7342670" lon="-8.6616270">
        <ele>7.6</ele>
        <time>2021-05-23T10:33:40Z</time>
      </trkpt>
      <trkpt lat="42.7342800" lon="-8.6616130">
        <ele>7.6</ele>
        <time>2021-05-23T10:33:41Z</time>
      </trkpt>
      <trkpt lat="42.7342930" lon="-8.6616090">
        <ele>7.6</ele>
        <time>2021-05-23T10:33:42Z</time>
      </trkpt>
      <trkpt lat="42.7343060" lon="-8.6616070">
        <ele>7.6</ele>
        <time>2021-05-23T10:33:43Z</time>
      </trkpt>
      <trkpt lat="42.7343140" lon="-8.6616120">
        <ele>7.6</ele>
        <time>2021-05-23T10:33:44Z</time>
      </trkpt>
      <trkpt lat="42.7343370" lon="-8.6616140">
        <ele>7.6</ele>
        <time>2021-05-23T10:33:45Z</time>
      </trkpt>
      <trkpt lat="42.7343440" lon="-8.6616170">
        <ele>7.6</ele>
        <time>2021-05-23T10:33:46Z</time>
      </trkpt>
      <trkpt lat="42.7343520" lon="-8.6616190">
        <ele>7.6</ele>
        <time>2021-05-23T10:33:47Z</time>
      </trkpt>
      <trkpt lat="42.7343730" lon="-8.6616170">
        <ele>7.6</ele>
        <time>2021-05-23T10:33:48Z</time>
      </trkpt>
      <trkpt lat="42.7343820" lon="-8.6616170">
        <ele>7.6</ele>
        <time>2021-05-23T10:33:49Z</time>
      </trkpt>
      <trkpt lat="42.7343900" lon="-8.6616170">
        <ele>7.6</ele>
        <time>2021-05-23T10:33:50Z</time>
      </trkpt>
      <trkpt lat="42.7344050" lon="-8.6616200">
        <ele>7.6</ele>
        <time>2021-05-23T10:33:51Z</time>
      </trkpt>
      <trkpt lat="42.7344170" lon="-8.6616250">
        <ele>7.6</ele>
        <time>2021-05-23T10:33:52Z</time>
      </trkpt>
      <trkpt lat="42.7344390" lon="-8.6616230">
        <ele>7.6</ele>
        <time>2021-05-23T10:33:53Z</time>
      </trkpt>
      <trkpt lat="42.7344470" lon="-8.6616240">
        <ele>7.6</ele>
        <time>2021-05-23T10:33:54Z</time>
      </trkpt>
      <trkpt lat="42.7344560" lon="-8.6616240">
        <ele>7.6</ele>
        <time>2021-05-23T10:33:55Z</time>
      </trkpt>
      <trkpt lat="42.7344680" lon="-8.6616230">
        <ele>7.6</ele>
        <time>2021-05-23T10:33:56Z</time>
      </trkpt>
      <trkpt lat="42.7344780" lon="-8.6616220">
        <ele>7.6</ele>
        <time>2021-05-23T10:33:57Z</time>
      </trkpt>
      <trkpt lat="42.7344890" lon="-8.6616220">
        <ele>7.6</ele>
        <time>2021-05-23T10:33:58Z</time>
      </trkpt>
      <trkpt lat="42.7345010" lon="-8.6616270">
        <ele>7.6</ele>
        <time>2021-05-23T10:33:59Z</time>
      </trkpt>
      <trkpt lat="42.7345080" lon="-8.6616270">
        <ele>7.6</ele>
        <time>2021-05-23T10:34:00Z</time>
      </trkpt>
      <trkpt lat="42.7345180" lon="-8.6616350">
        <ele>7.6</ele>
        <time>2021-05-23T10:34:01Z</time>
      </trkpt>
      <trkpt lat="42.7345310" lon="-8.6616320">
        <ele>7.6</ele>
        <time>2021-05-23T10:34:02Z</time>
      </trkpt>
      <trkpt lat="42.7345370" lon="-8.6616420">
        <ele>7.6</ele>
        <time>2021-05-23T10:34:03Z</time>
      </trkpt>
      <trkpt lat="42.7345460" lon="-8.6616440">
        <ele>7.6</ele>
        <time>2021-05-23T10:34:04Z</time>
      </trkpt>
      <trkpt lat="42.7345540" lon="-8.6616470">
        <ele>7.6</ele>
        <time>2021-05-23T10:34:05Z</time>
      </trkpt>
      <trkpt lat="42.7345650" lon="-8.6616450">
        <ele>7.5</ele>
        <time>2021-05-23T10:34:06Z</time>
      </trkpt>
      <trkpt lat="42.7345770" lon="-8.6616460">
        <ele>7.5</ele>
        <time>2021-05-23T10:34:07Z</time>
      </trkpt>
      <trkpt lat="42.7345980" lon="-8.6616410">
        <ele>7.5</ele>
        <time>2021-05-23T10:34:08Z</time>
      </trkpt>
      <trkpt lat="42.7346080" lon="-8.6616400">
        <ele>7.5</ele>
        <time>2021-05-23T10:34:09Z</time>
      </trkpt>
      <trkpt lat="42.7346170" lon="-8.6616400">
        <ele>7.5</ele>
        <time>2021-05-23T10:34:10Z</time>
      </trkpt>
      <trkpt lat="42.7346290" lon="-8.6616420">
        <ele>7.5</ele>
        <time>2021-05-23T10:34:11Z</time>
      </trkpt>
      <trkpt lat="42.7346350" lon="-8.6616520">
        <ele>7.5</ele>
        <time>2021-05-23T10:34:12Z</time>
      </trkpt>
      <trkpt lat="42.7346520" lon="-8.6616520">
        <ele>7.5</ele>
        <time>2021-05-23T10:34:13Z</time>
      </trkpt>
      <trkpt lat="42.7346730" lon="-8.6616510">
        <ele>7.5</ele>
        <time>2021-05-23T10:34:14Z</time>
      </trkpt>
      <trkpt lat="42.7346810" lon="-8.6616510">
        <ele>7.5</ele>
        <time>2021-05-23T10:34:15Z</time>
      </trkpt>
      <trkpt lat="42.7346900" lon="-8.6616500">
        <ele>7.5</ele>
        <time>2021-05-23T10:34:16Z</time>
      </trkpt>
      <trkpt lat="42.7347020" lon="-8.6616470">
        <ele>7.5</ele>
        <time>2021-05-23T10:34:17Z</time>
      </trkpt>
      <trkpt lat="42.7347080" lon="-8.6616420">
        <ele>7.5</ele>
        <time>2021-05-23T10:34:18Z</time>
      </trkpt>
      <trkpt lat="42.7347200" lon="-8.6616380">
        <ele>7.5</ele>
        <time>2021-05-23T10:34:19Z</time>
      </trkpt>
      <trkpt lat="42.7347420" lon="-8.6616290">
        <ele>7.5</ele>
        <time>2021-05-23T10:34:20Z</time>
      </trkpt>
      <trkpt lat="42.7347530" lon="-8.6616270">
        <ele>7.5</ele>
        <time>2021-05-23T10:34:21Z</time>
      </trkpt>
      <trkpt lat="42.7347640" lon="-8.6616250">
        <ele>7.5</ele>
        <time>2021-05-23T10:34:22Z</time>
      </trkpt>
      <trkpt lat="42.7347840" lon="-8.6616270">
        <ele>7.5</ele>
        <time>2021-05-23T10:34:23Z</time>
      </trkpt>
      <trkpt lat="42.7347970" lon="-8.6616260">
        <ele>7.5</ele>
        <time>2021-05-23T10:34:24Z</time>
      </trkpt>
      <trkpt lat="42.7348140" lon="-8.6616190">
        <ele>7.5</ele>
        <time>2021-05-23T10:34:25Z</time>
      </trkpt>
      <trkpt lat="42.7348220" lon="-8.6616190">
        <ele>7.5</ele>
        <time>2021-05-23T10:34:26Z</time>
      </trkpt>
      <trkpt lat="42.7348290" lon="-8.6616190">
        <ele>7.5</ele>
        <time>2021-05-23T10:34:27Z</time>
      </trkpt>
      <trkpt lat="42.7348360" lon="-8.6616190">
        <ele>7.5</ele>
        <time>2021-05-23T10:34:28Z</time>
      </trkpt>
      <trkpt lat="42.7348460" lon="-8.6616180">
        <ele>7.5</ele>
        <time>2021-05-23T10:34:29Z</time>
      </trkpt>
      <trkpt lat="42.7348550" lon="-8.6616240">
        <ele>7.5</ele>
        <time>2021-05-23T10:34:30Z</time>
      </trkpt>
      <trkpt lat="42.7348650" lon="-8.6616270">
        <ele>7.5</ele>
        <time>2021-05-23T10:34:31Z</time>
      </trkpt>
      <trkpt lat="42.7348810" lon="-8.6616230">
        <ele>7.5</ele>
        <time>2021-05-23T10:34:32Z</time>
      </trkpt>
      <trkpt lat="42.7348950" lon="-8.6616270">
        <ele>7.5</ele>
        <time>2021-05-23T10:34:33Z</time>
      </trkpt>
      <trkpt lat="42.7348980" lon="-8.6616280">
        <ele>7.5</ele>
        <time>2021-05-23T10:34:34Z</time>
      </trkpt>
      <trkpt lat="42.7349030" lon="-8.6616310">
        <ele>7.5</ele>
        <time>2021-05-23T10:34:35Z</time>
      </trkpt>
      <trkpt lat="42.7349160" lon="-8.6616370">
        <ele>7.5</ele>
        <time>2021-05-23T10:34:36Z</time>
      </trkpt>
      <trkpt lat="42.7349250" lon="-8.6616370">
        <ele>7.5</ele>
        <time>2021-05-23T10:34:37Z</time>
      </trkpt>
      <trkpt lat="42.7349480" lon="-8.6616280">
        <ele>7.5</ele>
        <time>2021-05-23T10:34:38Z</time>
      </trkpt>
      <trkpt lat="42.7349600" lon="-8.6616270">
        <ele>7.5</ele>
        <time>2021-05-23T10:34:39Z</time>
      </trkpt>
      <trkpt lat="42.7349710" lon="-8.6616250">
        <ele>7.5</ele>
        <time>2021-05-23T10:34:40Z</time>
      </trkpt>
      <trkpt lat="42.7349810" lon="-8.6616260">
        <ele>7.5</ele>
        <time>2021-05-23T10:34:41Z</time>
      </trkpt>
      <trkpt lat="42.7349900" lon="-8.6616280">
        <ele>7.5</ele>
        <time>2021-05-23T10:34:42Z</time>
      </trkpt>
      <trkpt lat="42.7350070" lon="-8.6616230">
        <ele>7.5</ele>
        <time>2021-05-23T10:34:43Z</time>
      </trkpt>
      <trkpt lat="42.7350230" lon="-8.6616200">
        <ele>7.5</ele>
        <time>2021-05-23T10:34:44Z</time>
      </trkpt>
      <trkpt lat="42.7350370" lon="-8.6616200">
        <ele>7.5</ele>
        <time>2021-05-23T10:34:45Z</time>
      </trkpt>
      <trkpt lat="42.7350590" lon="-8.6616190">
        <ele>7.5</ele>
        <time>2021-05-23T10:34:46Z</time>
      </trkpt>
      <trkpt lat="42.7350680" lon="-8.6616190">
        <ele>7.5</ele>
        <time>2021-05-23T10:34:47Z</time>
      </trkpt>
      <trkpt lat="42.7350760" lon="-8.6616180">
        <ele>7.5</ele>
        <time>2021-05-23T10:34:48Z</time>
      </trkpt>
      <trkpt lat="42.7350890" lon="-8.6616190">
        <ele>7.5</ele>
        <time>2021-05-23T10:34:49Z</time>
      </trkpt>
      <trkpt lat="42.7351010" lon="-8.6616210">
        <ele>7.5</ele>
        <time>2021-05-23T10:34:50Z</time>
      </trkpt>
      <trkpt lat="42.7351050" lon="-8.6616180">
        <ele>7.5</ele>
        <time>2021-05-23T10:34:51Z</time>
      </trkpt>
      <trkpt lat="42.7351160" lon="-8.6616130">
        <ele>7.5</ele>
        <time>2021-05-23T10:34:52Z</time>
      </trkpt>
      <trkpt lat="42.7351370" lon="-8.6616060">
        <ele>7.5</ele>
        <time>2021-05-23T10:34:53Z</time>
      </trkpt>
      <trkpt lat="42.7351440" lon="-8.6616040">
        <ele>7.6</ele>
        <time>2021-05-23T10:34:54Z</time>
      </trkpt>
      <trkpt lat="42.7351530" lon="-8.6615960">
        <ele>7.6</ele>
        <time>2021-05-23T10:34:55Z</time>
      </trkpt>
      <trkpt lat="42.7351650" lon="-8.6615810">
        <ele>7.6</ele>
        <time>2021-05-23T10:34:56Z</time>
      </trkpt>
      <trkpt lat="42.7351820" lon="-8.6615690">
        <ele>7.6</ele>
        <time>2021-05-23T10:34:57Z</time>
      </trkpt>
      <trkpt lat="42.7351890" lon="-8.6615650">
        <ele>7.6</ele>
        <time>2021-05-23T10:34:58Z</time>
      </trkpt>
      <trkpt lat="42.7351970" lon="-8.6615590">
        <ele>7.6</ele>
        <time>2021-05-23T10:34:59Z</time>
      </trkpt>
      <trkpt lat="42.7352040" lon="-8.6615520">
        <ele>7.6</ele>
        <time>2021-05-23T10:35:00Z</time>
      </trkpt>
      <trkpt lat="42.7352030" lon="-8.6615480">
        <ele>7.6</ele>
        <time>2021-05-23T10:35:01Z</time>
      </trkpt>
      <trkpt lat="42.7352170" lon="-8.6615370">
        <ele>7.6</ele>
        <time>2021-05-23T10:35:02Z</time>
      </trkpt>
      <trkpt lat="42.7352270" lon="-8.6615260">
        <ele>7.6</ele>
        <time>2021-05-23T10:35:03Z</time>
      </trkpt>
      <trkpt lat="42.7352360" lon="-8.6615210">
        <ele>7.6</ele>
        <time>2021-05-23T10:35:04Z</time>
      </trkpt>
      <trkpt lat="42.7352450" lon="-8.6615190">
        <ele>7.6</ele>
        <time>2021-05-23T10:35:05Z</time>
      </trkpt>
      <trkpt lat="42.7352510" lon="-8.6615170">
        <ele>7.6</ele>
        <time>2021-05-23T10:35:06Z</time>
      </trkpt>
      <trkpt lat="42.7352520" lon="-8.6615190">
        <ele>7.6</ele>
        <time>2021-05-23T10:35:07Z</time>
      </trkpt>
      <trkpt lat="42.7352580" lon="-8.6615150">
        <ele>7.6</ele>
        <time>2021-05-23T10:35:08Z</time>
      </trkpt>
      <trkpt lat="42.7352620" lon="-8.6615090">
        <ele>7.6</ele>
        <time>2021-05-23T10:35:09Z</time>
      </trkpt>
      <trkpt lat="42.7352730" lon="-8.6615080">
        <ele>7.6</ele>
        <time>2021-05-23T10:35:10Z</time>
      </trkpt>
      <trkpt lat="42.7352860" lon="-8.6615040">
        <ele>7.7</ele>
        <time>2021-05-23T10:35:11Z</time>
      </trkpt>
      <trkpt lat="42.7352950" lon="-8.6614970">
        <ele>7.7</ele>
        <time>2021-05-23T10:35:12Z</time>
      </trkpt>
      <trkpt lat="42.7353050" lon="-8.6614910">
        <ele>7.7</ele>
        <time>2021-05-23T10:35:13Z</time>
      </trkpt>
      <trkpt lat="42.7353190" lon="-8.6614870">
        <ele>7.7</ele>
        <time>2021-05-23T10:35:14Z</time>
      </trkpt>
      <trkpt lat="42.7353280" lon="-8.6614780">
        <ele>7.7</ele>
        <time>2021-05-23T10:35:15Z</time>
      </trkpt>
      <trkpt lat="42.7353320" lon="-8.6614760">
        <ele>7.7</ele>
        <time>2021-05-23T10:35:16Z</time>
      </trkpt>
      <trkpt lat="42.7353360" lon="-8.6614680">
        <ele>7.7</ele>
        <time>2021-05-23T10:35:17Z</time>
      </trkpt>
      <trkpt lat="42.7353460" lon="-8.6614590">
        <ele>7.7</ele>
        <time>2021-05-23T10:35:18Z</time>
      </trkpt>
      <trkpt lat="42.7353600" lon="-8.6614450">
        <ele>7.7</ele>
        <time>2021-05-23T10:35:19Z</time>
      </trkpt>
      <trkpt lat="42.7353650" lon="-8.6614420">
        <ele>7.7</ele>
        <time>2021-05-23T10:35:20Z</time>
      </trkpt>
      <trkpt lat="42.7353830" lon="-8.6614320">
        <ele>7.7</ele>
        <time>2021-05-23T10:35:21Z</time>
      </trkpt>
      <trkpt lat="42.7353930" lon="-8.6614270">
        <ele>7.8</ele>
        <time>2021-05-23T10:35:22Z</time>
      </trkpt>
      <trkpt lat="42.7354120" lon="-8.6614120">
        <ele>7.8</ele>
        <time>2021-05-23T10:35:23Z</time>
      </trkpt>
      <trkpt lat="42.7354210" lon="-8.6614070">
        <ele>7.8</ele>
        <time>2021-05-23T10:35:24Z</time>
      </trkpt>
      <trkpt lat="42.7354290" lon="-8.6614010">
        <ele>7.8</ele>
        <time>2021-05-23T10:35:25Z</time>
      </trkpt>
      <trkpt lat="42.7354380" lon="-8.6613900">
        <ele>7.8</ele>
        <time>2021-05-23T10:35:26Z</time>
      </trkpt>
      <trkpt lat="42.7354530" lon="-8.6613850">
        <ele>7.8</ele>
        <time>2021-05-23T10:35:27Z</time>
      </trkpt>
      <trkpt lat="42.7354640" lon="-8.6613740">
        <ele>7.8</ele>
        <time>2021-05-23T10:35:28Z</time>
      </trkpt>
      <trkpt lat="42.7354700" lon="-8.6613670">
        <ele>7.8</ele>
        <time>2021-05-23T10:35:29Z</time>
      </trkpt>
      <trkpt lat="42.7354770" lon="-8.6613610">
        <ele>7.8</ele>
        <time>2021-05-23T10:35:30Z</time>
      </trkpt>
      <trkpt lat="42.7354830" lon="-8.6613540">
        <ele>7.8</ele>
        <time>2021-05-23T10:35:31Z</time>
      </trkpt>
      <trkpt lat="42.7354890" lon="-8.6613500">
        <ele>7.8</ele>
        <time>2021-05-23T10:35:32Z</time>
      </trkpt>
      <trkpt lat="42.7354910" lon="-8.6613480">
        <ele>7.8</ele>
        <time>2021-05-23T10:35:33Z</time>
      </trkpt>
      <trkpt lat="42.7354960" lon="-8.6613440">
        <ele>7.8</ele>
        <time>2021-05-23T10:35:34Z</time>
      </trkpt>
      <trkpt lat="42.7355020" lon="-8.6613380">
        <ele>7.8</ele>
        <time>2021-05-23T10:35:35Z</time>
      </trkpt>
      <trkpt lat="42.7355090" lon="-8.6613360">
        <ele>7.8</ele>
        <time>2021-05-23T10:35:36Z</time>
      </trkpt>
      <trkpt lat="42.7355220" lon="-8.6613240">
        <ele>7.9</ele>
        <time>2021-05-23T10:35:37Z</time>
      </trkpt>
      <trkpt lat="42.7355400" lon="-8.6613120">
        <ele>7.9</ele>
        <time>2021-05-23T10:35:38Z</time>
      </trkpt>
      <trkpt lat="42.7355540" lon="-8.6612900">
        <ele>7.9</ele>
        <time>2021-05-23T10:35:39Z</time>
      </trkpt>
      <trkpt lat="42.7355620" lon="-8.6612800">
        <ele>7.9</ele>
        <time>2021-05-23T10:35:40Z</time>
      </trkpt>
      <trkpt lat="42.7355710" lon="-8.6612710">
        <ele>7.9</ele>
        <time>2021-05-23T10:35:41Z</time>
      </trkpt>
      <trkpt lat="42.7355960" lon="-8.6612480">
        <ele>7.9</ele>
        <time>2021-05-23T10:35:42Z</time>
      </trkpt>
      <trkpt lat="42.7356020" lon="-8.6612440">
        <ele>7.9</ele>
        <time>2021-05-23T10:35:43Z</time>
      </trkpt>
      <trkpt lat="42.7356000" lon="-8.6612520">
        <ele>7.9</ele>
        <time>2021-05-23T10:35:44Z</time>
      </trkpt>
      <trkpt lat="42.7356140" lon="-8.6612330">
        <ele>7.9</ele>
        <time>2021-05-23T10:35:45Z</time>
      </trkpt>
      <trkpt lat="42.7356320" lon="-8.6612200">
        <ele>7.9</ele>
        <time>2021-05-23T10:35:46Z</time>
      </trkpt>
      <trkpt lat="42.7356460" lon="-8.6612150">
        <ele>7.9</ele>
        <time>2021-05-23T10:35:47Z</time>
      </trkpt>
      <trkpt lat="42.7356560" lon="-8.6612280">
        <ele>7.9</ele>
        <time>2021-05-23T10:35:48Z</time>
      </trkpt>
      <trkpt lat="42.7356640" lon="-8.6612370">
        <ele>7.9</ele>
        <time>2021-05-23T10:35:49Z</time>
      </trkpt>
      <trkpt lat="42.7356850" lon="-8.6612420">
        <ele>8.0</ele>
        <time>2021-05-23T10:35:50Z</time>
      </trkpt>
      <trkpt lat="42.7356940" lon="-8.6612410">
        <ele>8.0</ele>
        <time>2021-05-23T10:35:51Z</time>
      </trkpt>
      <trkpt lat="42.7357020" lon="-8.6612410">
        <ele>8.0</ele>
        <time>2021-05-23T10:35:52Z</time>
      </trkpt>
      <trkpt lat="42.7357130" lon="-8.6612530">
        <ele>8.0</ele>
        <time>2021-05-23T10:35:53Z</time>
      </trkpt>
      <trkpt lat="42.7357300" lon="-8.6612570">
        <ele>8.0</ele>
        <time>2021-05-23T10:35:54Z</time>
      </trkpt>
      <trkpt lat="42.7357490" lon="-8.6612650">
        <ele>8.0</ele>
        <time>2021-05-23T10:35:55Z</time>
      </trkpt>
      <trkpt lat="42.7357650" lon="-8.6612670">
        <ele>8.0</ele>
        <time>2021-05-23T10:35:56Z</time>
      </trkpt>
      <trkpt lat="42.7357870" lon="-8.6612730">
        <ele>8.0</ele>
        <time>2021-05-23T10:35:57Z</time>
      </trkpt>
      <trkpt lat="42.7357940" lon="-8.6612780">
        <ele>8.1</ele>
        <time>2021-05-23T10:35:58Z</time>
      </trkpt>
      <trkpt lat="42.7358010" lon="-8.6612830">
        <ele>8.1</ele>
        <time>2021-05-23T10:35:59Z</time>
      </trkpt>
      <trkpt lat="42.7358050" lon="-8.6612830">
        <ele>8.1</ele>
        <time>2021-05-23T10:36:00Z</time>
      </trkpt>
      <trkpt lat="42.7358160" lon="-8.6612810">
        <ele>8.1</ele>
        <time>2021-05-23T10:36:01Z</time>
      </trkpt>
      <trkpt lat="42.7358280" lon="-8.6612870">
        <ele>8.1</ele>
        <time>2021-05-23T10:36:02Z</time>
      </trkpt>
      <trkpt lat="42.7358370" lon="-8.6612840">
        <ele>8.1</ele>
        <time>2021-05-23T10:36:03Z</time>
      </trkpt>
      <trkpt lat="42.7358450" lon="-8.6612900">
        <ele>8.1</ele>
        <time>2021-05-23T10:36:04Z</time>
      </trkpt>
      <trkpt lat="42.7358560" lon="-8.6612890">
        <ele>8.1</ele>
        <time>2021-05-23T10:36:05Z</time>
      </trkpt>
      <trkpt lat="42.7358650" lon="-8.6612790">
        <ele>8.1</ele>
        <time>2021-05-23T10:36:06Z</time>
      </trkpt>
      <trkpt lat="42.7358870" lon="-8.6612760">
        <ele>8.1</ele>
        <time>2021-05-23T10:36:07Z</time>
      </trkpt>
      <trkpt lat="42.7359080" lon="-8.6612750">
        <ele>8.1</ele>
        <time>2021-05-23T10:36:08Z</time>
      </trkpt>
      <trkpt lat="42.7359190" lon="-8.6612760">
        <ele>8.2</ele>
        <time>2021-05-23T10:36:09Z</time>
      </trkpt>
      <trkpt lat="42.7359270" lon="-8.6612780">
        <ele>8.2</ele>
        <time>2021-05-23T10:36:10Z</time>
      </trkpt>
      <trkpt lat="42.7359330" lon="-8.6612870">
        <ele>8.2</ele>
        <time>2021-05-23T10:36:11Z</time>
      </trkpt>
      <trkpt lat="42.7359430" lon="-8.6612950">
        <ele>8.2</ele>
        <time>2021-05-23T10:36:12Z</time>
      </trkpt>
      <trkpt lat="42.7359550" lon="-8.6612980">
        <ele>8.2</ele>
        <time>2021-05-23T10:36:13Z</time>
      </trkpt>
      <trkpt lat="42.7359600" lon="-8.6613010">
        <ele>8.2</ele>
        <time>2021-05-23T10:36:14Z</time>
      </trkpt>
      <trkpt lat="42.7359710" lon="-8.6613020">
        <ele>8.2</ele>
        <time>2021-05-23T10:36:15Z</time>
      </trkpt>
      <trkpt lat="42.7359810" lon="-8.6613040">
        <ele>8.2</ele>
        <time>2021-05-23T10:36:16Z</time>
      </trkpt>
      <trkpt lat="42.7359930" lon="-8.6613070">
        <ele>8.2</ele>
        <time>2021-05-23T10:36:17Z</time>
      </trkpt>
      <trkpt lat="42.7359990" lon="-8.6613050">
        <ele>8.2</ele>
        <time>2021-05-23T10:36:18Z</time>
      </trkpt>
      <trkpt lat="42.7360050" lon="-8.6613030">
        <ele>8.2</ele>
        <time>2021-05-23T10:36:19Z</time>
      </trkpt>
      <trkpt lat="42.7360220" lon="-8.6612970">
        <ele>8.2</ele>
        <time>2021-05-23T10:36:20Z</time>
      </trkpt>
      <trkpt lat="42.7360330" lon="-8.6613010">
        <ele>8.2</ele>
        <time>2021-05-23T10:36:21Z</time>
      </trkpt>
      <trkpt lat="42.7360500" lon="-8.6613000">
        <ele>8.2</ele>
        <time>2021-05-23T10:36:22Z</time>
      </trkpt>
      <trkpt lat="42.7360580" lon="-8.6613010">
        <ele>8.2</ele>
        <time>2021-05-23T10:36:23Z</time>
      </trkpt>
      <trkpt lat="42.7360680" lon="-8.6613010">
        <ele>8.2</ele>
        <time>2021-05-23T10:36:24Z</time>
      </trkpt>
      <trkpt lat="42.7360890" lon="-8.6613060">
        <ele>8.3</ele>
        <time>2021-05-23T10:36:25Z</time>
      </trkpt>
      <trkpt lat="42.7360950" lon="-8.6613080">
        <ele>8.3</ele>
        <time>2021-05-23T10:36:26Z</time>
      </trkpt>
      <trkpt lat="42.7361000" lon="-8.6613100">
        <ele>8.3</ele>
        <time>2021-05-23T10:36:27Z</time>
      </trkpt>
      <trkpt lat="42.7361060" lon="-8.6613120">
        <ele>8.3</ele>
        <time>2021-05-23T10:36:28Z</time>
      </trkpt>
      <trkpt lat="42.7361080" lon="-8.6613140">
        <ele>8.3</ele>
        <time>2021-05-23T10:36:29Z</time>
      </trkpt>
      <trkpt lat="42.7361140" lon="-8.6613080">
        <ele>8.3</ele>
        <time>2021-05-23T10:36:30Z</time>
      </trkpt>
      <trkpt lat="42.7361250" lon="-8.6613090">
        <ele>8.3</ele>
        <time>2021-05-23T10:36:31Z</time>
      </trkpt>
      <trkpt lat="42.7361360" lon="-8.6613130">
        <ele>8.3</ele>
        <time>2021-05-23T10:36:32Z</time>
      </trkpt>
      <trkpt lat="42.7361490" lon="-8.6613050">
        <ele>8.3</ele>
        <time>2021-05-23T10:36:33Z</time>
      </trkpt>
      <trkpt lat="42.7361650" lon="-8.6613050">
        <ele>8.3</ele>
        <time>2021-05-23T10:36:34Z</time>
      </trkpt>
      <trkpt lat="42.7361690" lon="-8.6613100">
        <ele>8.3</ele>
        <time>2021-05-23T10:36:35Z</time>
      </trkpt>
      <trkpt lat="42.7361780" lon="-8.6613150">
        <ele>8.3</ele>
        <time>2021-05-23T10:36:36Z</time>
      </trkpt>
      <trkpt lat="42.7361960" lon="-8.6613170">
        <ele>8.3</ele>
        <time>2021-05-23T10:36:37Z</time>
      </trkpt>
      <trkpt lat="42.7362070" lon="-8.6613230">
        <ele>8.3</ele>
        <time>2021-05-23T10:36:38Z</time>
      </trkpt>
      <trkpt lat="42.7362230" lon="-8.6613230">
        <ele>8.4</ele>
        <time>2021-05-23T10:36:39Z</time>
      </trkpt>
      <trkpt lat="42.7362380" lon="-8.6613170">
        <ele>8.4</ele>
        <time>2021-05-23T10:36:40Z</time>
      </trkpt>
      <trkpt lat="42.7362510" lon="-8.6613210">
        <ele>8.4</ele>
        <time>2021-05-23T10:36:41Z</time>
      </trkpt>
      <trkpt lat="42.7362680" lon="-8.6613240">
        <ele>8.4</ele>
        <time>2021-05-23T10:36:42Z</time>
      </trkpt>
      <trkpt lat="42.7362760" lon="-8.6613300">
        <ele>8.4</ele>
        <time>2021-05-23T10:36:43Z</time>
      </trkpt>
      <trkpt lat="42.7362860" lon="-8.6613340">
        <ele>8.4</ele>
        <time>2021-05-23T10:36:44Z</time>
      </trkpt>
      <trkpt lat="42.7363010" lon="-8.6613380">
        <ele>8.4</ele>
        <time>2021-05-23T10:36:45Z</time>
      </trkpt>
      <trkpt lat="42.7363130" lon="-8.6613390">
        <ele>8.4</ele>
        <time>2021-05-23T10:36:46Z</time>
      </trkpt>
      <trkpt lat="42.7363260" lon="-8.6613410">
        <ele>8.4</ele>
        <time>2021-05-23T10:36:47Z</time>
      </trkpt>
      <trkpt lat="42.7363460" lon="-8.6613440">
        <ele>8.4</ele>
        <time>2021-05-23T10:36:48Z</time>
      </trkpt>
      <trkpt lat="42.7363550" lon="-8.6613510">
        <ele>8.4</ele>
        <time>2021-05-23T10:36:49Z</time>
      </trkpt>
      <trkpt lat="42.7363610" lon="-8.6613500">
        <ele>8.4</ele>
        <time>2021-05-23T10:36:50Z</time>
      </trkpt>
      <trkpt lat="42.7363640" lon="-8.6613540">
        <ele>8.4</ele>
        <time>2021-05-23T10:36:51Z</time>
      </trkpt>
      <trkpt lat="42.7363770" lon="-8.6613570">
        <ele>8.4</ele>
        <time>2021-05-23T10:36:52Z</time>
      </trkpt>
      <trkpt lat="42.7363820" lon="-8.6613610">
        <ele>8.4</ele>
        <time>2021-05-23T10:36:53Z</time>
      </trkpt>
      <trkpt lat="42.7364020" lon="-8.6613600">
        <ele>8.4</ele>
        <time>2021-05-23T10:36:54Z</time>
      </trkpt>
      <trkpt lat="42.7364120" lon="-8.6613670">
        <ele>8.4</ele>
        <time>2021-05-23T10:36:55Z</time>
      </trkpt>
      <trkpt lat="42.7364210" lon="-8.6613680">
        <ele>8.4</ele>
        <time>2021-05-23T10:36:56Z</time>
      </trkpt>
      <trkpt lat="42.7364310" lon="-8.6613710">
        <ele>8.4</ele>
        <time>2021-05-23T10:36:57Z</time>
      </trkpt>
      <trkpt lat="42.7364430" lon="-8.6613770">
        <ele>8.5</ele>
        <time>2021-05-23T10:36:58Z</time>
      </trkpt>
      <trkpt lat="42.7364500" lon="-8.6613820">
        <ele>8.5</ele>
        <time>2021-05-23T10:36:59Z</time>
      </trkpt>
      <trkpt lat="42.7364600" lon="-8.6613820">
        <ele>8.5</ele>
        <time>2021-05-23T10:37:00Z</time>
      </trkpt>
      <trkpt lat="42.7364740" lon="-8.6613800">
        <ele>8.5</ele>
        <time>2021-05-23T10:37:01Z</time>
      </trkpt>
      <trkpt lat="42.7364930" lon="-8.6613760">
        <ele>8.5</ele>
        <time>2021-05-23T10:37:02Z</time>
      </trkpt>
      <trkpt lat="42.7365040" lon="-8.6613710">
        <ele>8.5</ele>
        <time>2021-05-23T10:37:03Z</time>
      </trkpt>
      <trkpt lat="42.7365140" lon="-8.6613670">
        <ele>8.5</ele>
        <time>2021-05-23T10:37:04Z</time>
      </trkpt>
      <trkpt lat="42.7365260" lon="-8.6613730">
        <ele>8.5</ele>
        <time>2021-05-23T10:37:05Z</time>
      </trkpt>
      <trkpt lat="42.7365400" lon="-8.6613710">
        <ele>8.5</ele>
        <time>2021-05-23T10:37:06Z</time>
      </trkpt>
      <trkpt lat="42.7365480" lon="-8.6613780">
        <ele>8.5</ele>
        <time>2021-05-23T10:37:07Z</time>
      </trkpt>
      <trkpt lat="42.7365630" lon="-8.6613750">
        <ele>8.5</ele>
        <time>2021-05-23T10:37:08Z</time>
      </trkpt>
      <trkpt lat="42.7365720" lon="-8.6613740">
        <ele>8.5</ele>
        <time>2021-05-23T10:37:09Z</time>
      </trkpt>
      <trkpt lat="42.7365830" lon="-8.6613730">
        <ele>8.5</ele>
        <time>2021-05-23T10:37:10Z</time>
      </trkpt>
      <trkpt lat="42.7366030" lon="-8.6613750">
        <ele>8.5</ele>
        <time>2021-05-23T10:37:11Z</time>
      </trkpt>
      <trkpt lat="42.7366120" lon="-8.6613780">
        <ele>8.5</ele>
        <time>2021-05-23T10:37:12Z</time>
      </trkpt>
      <trkpt lat="42.7366210" lon="-8.6613800">
        <ele>8.6</ele>
        <time>2021-05-23T10:37:13Z</time>
      </trkpt>
      <trkpt lat="42.7366320" lon="-8.6613810">
        <ele>8.6</ele>
        <time>2021-05-23T10:37:14Z</time>
      </trkpt>
      <trkpt lat="42.7366440" lon="-8.6613840">
        <ele>8.6</ele>
        <time>2021-05-23T10:37:15Z</time>
      </trkpt>
      <trkpt lat="42.7366570" lon="-8.6613800">
        <ele>8.6</ele>
        <time>2021-05-23T10:37:16Z</time>
      </trkpt>
      <trkpt lat="42.7366720" lon="-8.6613830">
        <ele>8.6</ele>
        <time>2021-05-23T10:37:17Z</time>
      </trkpt>
      <trkpt lat="42.7366830" lon="-8.6613810">
        <ele>8.6</ele>
        <time>2021-05-23T10:37:18Z</time>
      </trkpt>
      <trkpt lat="42.7366860" lon="-8.6613790">
        <ele>8.6</ele>
        <time>2021-05-23T10:37:19Z</time>
      </trkpt>
      <trkpt lat="42.7367110" lon="-8.6613750">
        <ele>8.6</ele>
        <time>2021-05-23T10:37:20Z</time>
      </trkpt>
      <trkpt lat="42.7367230" lon="-8.6613750">
        <ele>8.6</ele>
        <time>2021-05-23T10:37:21Z</time>
      </trkpt>
      <trkpt lat="42.7367280" lon="-8.6613760">
        <ele>8.6</ele>
        <time>2021-05-23T10:37:22Z</time>
      </trkpt>
      <trkpt lat="42.7367360" lon="-8.6613790">
        <ele>8.6</ele>
        <time>2021-05-23T10:37:23Z</time>
      </trkpt>
      <trkpt lat="42.7367430" lon="-8.6613830">
        <ele>8.6</ele>
        <time>2021-05-23T10:37:24Z</time>
      </trkpt>
      <trkpt lat="42.7367550" lon="-8.6613840">
        <ele>8.6</ele>
        <time>2021-05-23T10:37:25Z</time>
      </trkpt>
      <trkpt lat="42.7367710" lon="-8.6613850">
        <ele>8.6</ele>
        <time>2021-05-23T10:37:26Z</time>
      </trkpt>
      <trkpt lat="42.7367810" lon="-8.6613870">
        <ele>8.6</ele>
        <time>2021-05-23T10:37:27Z</time>
      </trkpt>
      <trkpt lat="42.7367920" lon="-8.6613880">
        <ele>8.6</ele>
        <time>2021-05-23T10:37:28Z</time>
      </trkpt>
      <trkpt lat="42.7368060" lon="-8.6613850">
        <ele>8.6</ele>
        <time>2021-05-23T10:37:29Z</time>
      </trkpt>
      <trkpt lat="42.7368110" lon="-8.6613850">
        <ele>8.6</ele>
        <time>2021-05-23T10:37:30Z</time>
      </trkpt>
      <trkpt lat="42.7368160" lon="-8.6613840">
        <ele>8.6</ele>
        <time>2021-05-23T10:37:31Z</time>
      </trkpt>
      <trkpt lat="42.7368200" lon="-8.6613830">
        <ele>8.6</ele>
        <time>2021-05-23T10:37:32Z</time>
      </trkpt>
      <trkpt lat="42.7368250" lon="-8.6613830">
        <ele>8.6</ele>
        <time>2021-05-23T10:37:33Z</time>
      </trkpt>
      <trkpt lat="42.7368300" lon="-8.6613820">
        <ele>8.6</ele>
        <time>2021-05-23T10:37:34Z</time>
      </trkpt>
      <trkpt lat="42.7368270" lon="-8.6613780">
        <ele>8.6</ele>
        <time>2021-05-23T10:37:35Z</time>
      </trkpt>
      <trkpt lat="42.7368320" lon="-8.6613660">
        <ele>8.6</ele>
        <time>2021-05-23T10:37:36Z</time>
      </trkpt>
      <trkpt lat="42.7368360" lon="-8.6613680">
        <ele>8.6</ele>
        <time>2021-05-23T10:37:37Z</time>
      </trkpt>
      <trkpt lat="42.7368440" lon="-8.6613780">
        <ele>8.6</ele>
        <time>2021-05-23T10:37:38Z</time>
      </trkpt>
      <trkpt lat="42.7368560" lon="-8.6613800">
        <ele>8.6</ele>
        <time>2021-05-23T10:37:39Z</time>
      </trkpt>
      <trkpt lat="42.7368630" lon="-8.6613840">
        <ele>8.6</ele>
        <time>2021-05-23T10:37:40Z</time>
      </trkpt>
      <trkpt lat="42.7368750" lon="-8.6613880">
        <ele>8.6</ele>
        <time>2021-05-23T10:37:41Z</time>
      </trkpt>
      <trkpt lat="42.7368840" lon="-8.6613910">
        <ele>8.6</ele>
        <time>2021-05-23T10:37:42Z</time>
      </trkpt>
      <trkpt lat="42.7368960" lon="-8.6613950">
        <ele>8.6</ele>
        <time>2021-05-23T10:37:43Z</time>
      </trkpt>
      <trkpt lat="42.7369040" lon="-8.6613930">
        <ele>8.6</ele>
        <time>2021-05-23T10:37:44Z</time>
      </trkpt>
      <trkpt lat="42.7369130" lon="-8.6613930">
        <ele>8.6</ele>
        <time>2021-05-23T10:37:45Z</time>
      </trkpt>
      <trkpt lat="42.7369230" lon="-8.6613920">
        <ele>8.6</ele>
        <time>2021-05-23T10:37:46Z</time>
      </trkpt>
      <trkpt lat="42.7369300" lon="-8.6613960">
        <ele>8.6</ele>
        <time>2021-05-23T10:37:47Z</time>
      </trkpt>
      <trkpt lat="42.7369350" lon="-8.6613940">
        <ele>8.6</ele>
        <time>2021-05-23T10:37:48Z</time>
      </trkpt>
      <trkpt lat="42.7369320" lon="-8.6614000">
        <ele>8.6</ele>
        <time>2021-05-23T10:37:49Z</time>
      </trkpt>
      <trkpt lat="42.7369460" lon="-8.6613950">
        <ele>8.6</ele>
        <time>2021-05-23T10:37:50Z</time>
      </trkpt>
      <trkpt lat="42.7369550" lon="-8.6613940">
        <ele>8.6</ele>
        <time>2021-05-23T10:37:51Z</time>
      </trkpt>
      <trkpt lat="42.7369530" lon="-8.6613900">
        <ele>8.6</ele>
        <time>2021-05-23T10:37:52Z</time>
      </trkpt>
      <trkpt lat="42.7369530" lon="-8.6613690">
        <ele>8.6</ele>
        <time>2021-05-23T10:37:53Z</time>
      </trkpt>
      <trkpt lat="42.7369620" lon="-8.6613660">
        <ele>8.6</ele>
        <time>2021-05-23T10:37:54Z</time>
      </trkpt>
      <trkpt lat="42.7369750" lon="-8.6613660">
        <ele>8.6</ele>
        <time>2021-05-23T10:37:55Z</time>
      </trkpt>
      <trkpt lat="42.7369910" lon="-8.6613730">
        <ele>8.6</ele>
        <time>2021-05-23T10:37:56Z</time>
      </trkpt>
      <trkpt lat="42.7369980" lon="-8.6613700">
        <ele>8.6</ele>
        <time>2021-05-23T10:37:57Z</time>
      </trkpt>
      <trkpt lat="42.7370060" lon="-8.6613670">
        <ele>8.6</ele>
        <time>2021-05-23T10:37:58Z</time>
      </trkpt>
      <trkpt lat="42.7370130" lon="-8.6613640">
        <ele>8.6</ele>
        <time>2021-05-23T10:37:59Z</time>
      </trkpt>
      <trkpt lat="42.7370210" lon="-8.6613610">
        <ele>8.6</ele>
        <time>2021-05-23T10:38:00Z</time>
      </trkpt>
      <trkpt lat="42.7370310" lon="-8.6613800">
        <ele>8.6</ele>
        <time>2021-05-23T10:38:01Z</time>
      </trkpt>
      <trkpt lat="42.7370340" lon="-8.6613950">
        <ele>8.6</ele>
        <time>2021-05-23T10:38:02Z</time>
      </trkpt>
      <trkpt lat="42.7370300" lon="-8.6614180">
        <ele>8.6</ele>
        <time>2021-05-23T10:38:03Z</time>
      </trkpt>
      <trkpt lat="42.7370400" lon="-8.6614290">
        <ele>8.6</ele>
        <time>2021-05-23T10:38:04Z</time>
      </trkpt>
      <trkpt lat="42.7370550" lon="-8.6614210">
        <ele>8.6</ele>
        <time>2021-05-23T10:38:05Z</time>
      </trkpt>
      <trkpt lat="42.7370600" lon="-8.6614510">
        <ele>8.6</ele>
        <time>2021-05-23T10:38:06Z</time>
      </trkpt>
      <trkpt lat="42.7370570" lon="-8.6614620">
        <ele>8.6</ele>
        <time>2021-05-23T10:38:07Z</time>
      </trkpt>
      <trkpt lat="42.7370540" lon="-8.6614740">
        <ele>8.6</ele>
        <time>2021-05-23T10:38:08Z</time>
      </trkpt>
      <trkpt lat="42.7370670" lon="-8.6614910">
        <ele>8.6</ele>
        <time>2021-05-23T10:38:09Z</time>
      </trkpt>
      <trkpt lat="42.7370860" lon="-8.6614890">
        <ele>8.6</ele>
        <time>2021-05-23T10:38:10Z</time>
      </trkpt>
      <trkpt lat="42.7370940" lon="-8.6615120">
        <ele>8.6</ele>
        <time>2021-05-23T10:38:11Z</time>
      </trkpt>
      <trkpt lat="42.7370970" lon="-8.6615210">
        <ele>8.6</ele>
        <time>2021-05-23T10:38:12Z</time>
      </trkpt>
      <trkpt lat="42.7370990" lon="-8.6615310">
        <ele>8.6</ele>
        <time>2021-05-23T10:38:13Z</time>
      </trkpt>
      <trkpt lat="42.7371020" lon="-8.6615400">
        <ele>8.6</ele>
        <time>2021-05-23T10:38:14Z</time>
      </trkpt>
      <trkpt lat="42.7371250" lon="-8.6615350">
        <ele>8.6</ele>
        <time>2021-05-23T10:38:15Z</time>
      </trkpt>
      <trkpt lat="42.7371380" lon="-8.6615300">
        <ele>8.6</ele>
        <time>2021-05-23T10:38:16Z</time>
      </trkpt>
      <trkpt lat="42.7371720" lon="-8.6615410">
        <ele>8.6</ele>
        <time>2021-05-23T10:38:17Z</time>
      </trkpt>
      <trkpt lat="42.7371820" lon="-8.6615390">
        <ele>8.6</ele>
        <time>2021-05-23T10:38:18Z</time>
      </trkpt>
      <trkpt lat="42.7372100" lon="-8.6614920">
        <ele>8.6</ele>
        <time>2021-05-23T10:38:19Z</time>
      </trkpt>
      <trkpt lat="42.7372340" lon="-8.6614710">
        <ele>8.6</ele>
        <time>2021-05-23T10:38:20Z</time>
      </trkpt>
      <trkpt lat="42.7372410" lon="-8.6614610">
        <ele>8.6</ele>
        <time>2021-05-23T10:38:21Z</time>
      </trkpt>
      <trkpt lat="42.7372610" lon="-8.6614670">
        <ele>8.6</ele>
        <time>2021-05-23T10:38:22Z</time>
      </trkpt>
      <trkpt lat="42.7372720" lon="-8.6614600">
        <ele>8.6</ele>
        <time>2021-05-23T10:38:23Z</time>
      </trkpt>
      <trkpt lat="42.7372830" lon="-8.6614540">
        <ele>8.5</ele>
        <time>2021-05-23T10:38:24Z</time>
      </trkpt>
      <trkpt lat="42.7373130" lon="-8.6614370">
        <ele>8.5</ele>
        <time>2021-05-23T10:38:25Z</time>
      </trkpt>
      <trkpt lat="42.7373210" lon="-8.6614400">
        <ele>8.5</ele>
        <time>2021-05-23T10:38:26Z</time>
      </trkpt>
      <trkpt lat="42.7373430" lon="-8.6614280">
        <ele>8.5</ele>
        <time>2021-05-23T10:38:27Z</time>
      </trkpt>
      <trkpt lat="42.7373500" lon="-8.6614290">
        <ele>8.5</ele>
        <time>2021-05-23T10:38:28Z</time>
      </trkpt>
      <trkpt lat="42.7373580" lon="-8.6614300">
        <ele>8.5</ele>
        <time>2021-05-23T10:38:29Z</time>
      </trkpt>
      <trkpt lat="42.7373790" lon="-8.6614110">
        <ele>8.5</ele>
        <time>2021-05-23T10:38:30Z</time>
      </trkpt>
      <trkpt lat="42.7373900" lon="-8.6613970">
        <ele>8.5</ele>
        <time>2021-05-23T10:38:31Z</time>
      </trkpt>
      <trkpt lat="42.7374010" lon="-8.6614050">
        <ele>8.5</ele>
        <time>2021-05-23T10:38:32Z</time>
      </trkpt>
      <trkpt lat="42.7374200" lon="-8.6614000">
        <ele>8.5</ele>
        <time>2021-05-23T10:38:33Z</time>
      </trkpt>
      <trkpt lat="42.7374310" lon="-8.6613940">
        <ele>8.5</ele>
        <time>2021-05-23T10:38:34Z</time>
      </trkpt>
      <trkpt lat="42.7374400" lon="-8.6613970">
        <ele>8.5</ele>
        <time>2021-05-23T10:38:35Z</time>
      </trkpt>
      <trkpt lat="42.7374480" lon="-8.6613980">
        <ele>8.5</ele>
        <time>2021-05-23T10:38:36Z</time>
      </trkpt>
      <trkpt lat="42.7374670" lon="-8.6614010">
        <ele>8.5</ele>
        <time>2021-05-23T10:38:37Z</time>
      </trkpt>
      <trkpt lat="42.7374750" lon="-8.6614000">
        <ele>8.5</ele>
        <time>2021-05-23T10:38:38Z</time>
      </trkpt>
      <trkpt lat="42.7374820" lon="-8.6613980">
        <ele>8.5</ele>
        <time>2021-05-23T10:38:39Z</time>
      </trkpt>
      <trkpt lat="42.7374890" lon="-8.6613970">
        <ele>8.5</ele>
        <time>2021-05-23T10:38:40Z</time>
      </trkpt>
      <trkpt lat="42.7374980" lon="-8.6614000">
        <ele>8.5</ele>
        <time>2021-05-23T10:38:41Z</time>
      </trkpt>
      <trkpt lat="42.7375170" lon="-8.6613980">
        <ele>8.5</ele>
        <time>2021-05-23T10:38:42Z</time>
      </trkpt>
      <trkpt lat="42.7375320" lon="-8.6614000">
        <ele>8.5</ele>
        <time>2021-05-23T10:38:43Z</time>
      </trkpt>
      <trkpt lat="42.7375400" lon="-8.6614000">
        <ele>8.5</ele>
        <time>2021-05-23T10:38:44Z</time>
      </trkpt>
      <trkpt lat="42.7375470" lon="-8.6614000">
        <ele>8.5</ele>
        <time>2021-05-23T10:38:45Z</time>
      </trkpt>
      <trkpt lat="42.7375550" lon="-8.6614000">
        <ele>8.5</ele>
        <time>2021-05-23T10:38:46Z</time>
      </trkpt>
      <trkpt lat="42.7375770" lon="-8.6613940">
        <ele>8.5</ele>
        <time>2021-05-23T10:38:47Z</time>
      </trkpt>
      <trkpt lat="42.7375900" lon="-8.6613860">
        <ele>8.5</ele>
        <time>2021-05-23T10:38:48Z</time>
      </trkpt>
      <trkpt lat="42.7376020" lon="-8.6613840">
        <ele>8.5</ele>
        <time>2021-05-23T10:38:49Z</time>
      </trkpt>
      <trkpt lat="42.7376100" lon="-8.6614010">
        <ele>8.5</ele>
        <time>2021-05-23T10:38:50Z</time>
      </trkpt>
      <trkpt lat="42.7376200" lon="-8.6614030">
        <ele>8.5</ele>
        <time>2021-05-23T10:38:51Z</time>
      </trkpt>
      <trkpt lat="42.7376380" lon="-8.6614110">
        <ele>8.5</ele>
        <time>2021-05-23T10:38:52Z</time>
      </trkpt>
      <trkpt lat="42.7376480" lon="-8.6614150">
        <ele>8.5</ele>
        <time>2021-05-23T10:38:53Z</time>
      </trkpt>
      <trkpt lat="42.7376590" lon="-8.6614200">
        <ele>8.5</ele>
        <time>2021-05-23T10:38:54Z</time>
      </trkpt>
      <trkpt lat="42.7376690" lon="-8.6614190">
        <ele>8.5</ele>
        <time>2021-05-23T10:38:55Z</time>
      </trkpt>
      <trkpt lat="42.7376760" lon="-8.6614200">
        <ele>8.5</ele>
        <time>2021-05-23T10:38:56Z</time>
      </trkpt>
      <trkpt lat="42.7376800" lon="-8.6614310">
        <ele>8.5</ele>
        <time>2021-05-23T10:38:57Z</time>
      </trkpt>
      <trkpt lat="42.7376790" lon="-8.6614340">
        <ele>8.5</ele>
        <time>2021-05-23T10:38:58Z</time>
      </trkpt>
      <trkpt lat="42.7376800" lon="-8.6614300">
        <ele>8.5</ele>
        <time>2021-05-23T10:38:59Z</time>
      </trkpt>
      <trkpt lat="42.7376860" lon="-8.6614220">
        <ele>8.5</ele>
        <time>2021-05-23T10:39:00Z</time>
      </trkpt>
      <trkpt lat="42.7377120" lon="-8.6613720">
        <ele>8.6</ele>
        <time>2021-05-23T10:39:01Z</time>
      </trkpt>
      <trkpt lat="42.7377240" lon="-8.6613660">
        <ele>8.6</ele>
        <time>2021-05-23T10:39:02Z</time>
      </trkpt>
      <trkpt lat="42.7377310" lon="-8.6613710">
        <ele>8.6</ele>
        <time>2021-05-23T10:39:03Z</time>
      </trkpt>
      <trkpt lat="42.7377370" lon="-8.6613630">
        <ele>8.6</ele>
        <time>2021-05-23T10:39:04Z</time>
      </trkpt>
      <trkpt lat="42.7377390" lon="-8.6613450">
        <ele>8.6</ele>
        <time>2021-05-23T10:39:05Z</time>
      </trkpt>
      <trkpt lat="42.7377350" lon="-8.6613380">
        <ele>8.6</ele>
        <time>2021-05-23T10:39:06Z</time>
      </trkpt>
      <trkpt lat="42.7377410" lon="-8.6613270">
        <ele>8.6</ele>
        <time>2021-05-23T10:39:07Z</time>
      </trkpt>
      <trkpt lat="42.7377410" lon="-8.6613250">
        <ele>8.6</ele>
        <time>2021-05-23T10:39:08Z</time>
      </trkpt>
      <trkpt lat="42.7377420" lon="-8.6613220">
        <ele>8.6</ele>
        <time>2021-05-23T10:39:09Z</time>
      </trkpt>
      <trkpt lat="42.7377440" lon="-8.6613140">
        <ele>8.6</ele>
        <time>2021-05-23T10:39:10Z</time>
      </trkpt>
      <trkpt lat="42.7377470" lon="-8.6613040">
        <ele>8.6</ele>
        <time>2021-05-23T10:39:11Z</time>
      </trkpt>
      <trkpt lat="42.7377490" lon="-8.6612960">
        <ele>8.6</ele>
        <time>2021-05-23T10:39:12Z</time>
      </trkpt>
      <trkpt lat="42.7377580" lon="-8.6612940">
        <ele>8.6</ele>
        <time>2021-05-23T10:39:13Z</time>
      </trkpt>
      <trkpt lat="42.7377580" lon="-8.6612910">
        <ele>8.6</ele>
        <time>2021-05-23T10:39:14Z</time>
      </trkpt>
      <trkpt lat="42.7377630" lon="-8.6613020">
        <ele>8.6</ele>
        <time>2021-05-23T10:39:15Z</time>
      </trkpt>
      <trkpt lat="42.7377720" lon="-8.6612840">
        <ele>8.6</ele>
        <time>2021-05-23T10:39:16Z</time>
      </trkpt>
      <trkpt lat="42.7377650" lon="-8.6612830">
        <ele>8.6</ele>
        <time>2021-05-23T10:39:17Z</time>
      </trkpt>
      <trkpt lat="42.7377760" lon="-8.6612710">
        <ele>8.6</ele>
        <time>2021-05-23T10:39:18Z</time>
      </trkpt>
      <trkpt lat="42.7377860" lon="-8.6612580">
        <ele>8.6</ele>
        <time>2021-05-23T10:39:19Z</time>
      </trkpt>
      <trkpt lat="42.7377970" lon="-8.6612460">
        <ele>8.6</ele>
        <time>2021-05-23T10:39:20Z</time>
      </trkpt>
      <trkpt lat="42.7378170" lon="-8.6612280">
        <ele>8.6</ele>
        <time>2021-05-23T10:39:21Z</time>
      </trkpt>
      <trkpt lat="42.7378190" lon="-8.6612230">
        <ele>8.7</ele>
        <time>2021-05-23T10:39:22Z</time>
      </trkpt>
      <trkpt lat="42.7378240" lon="-8.6612120">
        <ele>8.7</ele>
        <time>2021-05-23T10:39:23Z</time>
      </trkpt>
      <trkpt lat="42.7378310" lon="-8.6611920">
        <ele>8.7</ele>
        <time>2021-05-23T10:39:24Z</time>
      </trkpt>
      <trkpt lat="42.7378380" lon="-8.6611720">
        <ele>8.7</ele>
        <time>2021-05-23T10:39:25Z</time>
      </trkpt>
      <trkpt lat="42.7378400" lon="-8.6611550">
        <ele>8.7</ele>
        <time>2021-05-23T10:39:26Z</time>
      </trkpt>
      <trkpt lat="42.7378370" lon="-8.6611340">
        <ele>8.7</ele>
        <time>2021-05-23T10:39:27Z</time>
      </trkpt>
      <trkpt lat="42.7378320" lon="-8.6611240">
        <ele>8.7</ele>
        <time>2021-05-23T10:39:28Z</time>
      </trkpt>
      <trkpt lat="42.7378310" lon="-8.6611090">
        <ele>8.7</ele>
        <time>2021-05-23T10:39:29Z</time>
      </trkpt>
      <trkpt lat="42.7378290" lon="-8.6611020">
        <ele>8.7</ele>
        <time>2021-05-23T10:39:30Z</time>
      </trkpt>
      <trkpt lat="42.7378160" lon="-8.6611170">
        <ele>8.7</ele>
        <time>2021-05-23T10:39:31Z</time>
      </trkpt>
      <trkpt lat="42.7378160" lon="-8.6611320">
        <ele>8.7</ele>
        <time>2021-05-23T10:39:32Z</time>
      </trkpt>
      <trkpt lat="42.7378170" lon="-8.6611270">
        <ele>8.7</ele>
        <time>2021-05-23T10:39:33Z</time>
      </trkpt>
      <trkpt lat="42.7378200" lon="-8.6611150">
        <ele>8.7</ele>
        <time>2021-05-23T10:39:34Z</time>
      </trkpt>
      <trkpt lat="42.7378260" lon="-8.6611160">
        <ele>8.7</ele>
        <time>2021-05-23T10:39:35Z</time>
      </trkpt>
      <trkpt lat="42.7378370" lon="-8.6611330">
        <ele>8.7</ele>
        <time>2021-05-23T10:39:36Z</time>
      </trkpt>
      <trkpt lat="42.7378400" lon="-8.6611570">
        <ele>8.8</ele>
        <time>2021-05-23T10:39:37Z</time>
      </trkpt>
      <trkpt lat="42.7378410" lon="-8.6611600">
        <ele>8.8</ele>
        <time>2021-05-23T10:39:38Z</time>
      </trkpt>
      <trkpt lat="42.7378530" lon="-8.6611590">
        <ele>8.8</ele>
        <time>2021-05-23T10:39:39Z</time>
      </trkpt>
      <trkpt lat="42.7378580" lon="-8.6611620">
        <ele>8.8</ele>
        <time>2021-05-23T10:39:40Z</time>
      </trkpt>
      <trkpt lat="42.7378350" lon="-8.6611820">
        <ele>8.8</ele>
        <time>2021-05-23T10:39:41Z</time>
      </trkpt>
      <trkpt lat="42.7378290" lon="-8.6611860">
        <ele>8.8</ele>
        <time>2021-05-23T10:39:42Z</time>
      </trkpt>
      <trkpt lat="42.7378230" lon="-8.6611910">
        <ele>8.8</ele>
        <time>2021-05-23T10:39:43Z</time>
      </trkpt>
      <trkpt lat="42.7378500" lon="-8.6611720">
        <ele>8.8</ele>
        <time>2021-05-23T10:39:44Z</time>
      </trkpt>
      <trkpt lat="42.7378630" lon="-8.6611600">
        <ele>8.8</ele>
        <time>2021-05-23T10:39:45Z</time>
      </trkpt>
      <trkpt lat="42.7378690" lon="-8.6611200">
        <ele>8.8</ele>
        <time>2021-05-23T10:39:46Z</time>
      </trkpt>
      <trkpt lat="42.7378690" lon="-8.6611100">
        <ele>8.9</ele>
        <time>2021-05-23T10:39:47Z</time>
      </trkpt>
      <trkpt lat="42.7378680" lon="-8.6611010">
        <ele>8.9</ele>
        <time>2021-05-23T10:39:48Z</time>
      </trkpt>
      <trkpt lat="42.7378680" lon="-8.6610910">
        <ele>8.9</ele>
        <time>2021-05-23T10:39:49Z</time>
      </trkpt>
      <trkpt lat="42.7378530" lon="-8.6610900">
        <ele>8.9</ele>
        <time>2021-05-23T10:39:50Z</time>
      </trkpt>
      <trkpt lat="42.7378580" lon="-8.6611000">
        <ele>8.9</ele>
        <time>2021-05-23T10:39:51Z</time>
      </trkpt>
      <trkpt lat="42.7378550" lon="-8.6610940">
        <ele>8.9</ele>
        <time>2021-05-23T10:39:52Z</time>
      </trkpt>
      <trkpt lat="42.7378510" lon="-8.6611140">
        <ele>8.9</ele>
        <time>2021-05-23T10:39:53Z</time>
      </trkpt>
      <trkpt lat="42.7378540" lon="-8.6611130">
        <ele>8.9</ele>
        <time>2021-05-23T10:39:54Z</time>
      </trkpt>
      <trkpt lat="42.7378610" lon="-8.6611110">
        <ele>8.9</ele>
        <time>2021-05-23T10:39:55Z</time>
      </trkpt>
      <trkpt lat="42.7378750" lon="-8.6611100">
        <ele>8.9</ele>
        <time>2021-05-23T10:39:56Z</time>
      </trkpt>
      <trkpt lat="42.7378790" lon="-8.6610570">
        <ele>8.9</ele>
        <time>2021-05-23T10:39:57Z</time>
      </trkpt>
      <trkpt lat="42.7378610" lon="-8.6610110">
        <ele>8.9</ele>
        <time>2021-05-23T10:39:58Z</time>
      </trkpt>
      <trkpt lat="42.7378710" lon="-8.6610020">
        <ele>8.9</ele>
        <time>2021-05-23T10:39:59Z</time>
      </trkpt>
      <trkpt lat="42.7378670" lon="-8.6610010">
        <ele>8.9</ele>
        <time>2021-05-23T10:40:00Z</time>
      </trkpt>
      <trkpt lat="42.7378630" lon="-8.6610000">
        <ele>8.9</ele>
        <time>2021-05-23T10:40:01Z</time>
      </trkpt>
      <trkpt lat="42.7378600" lon="-8.6610010">
        <ele>8.9</ele>
        <time>2021-05-23T10:40:02Z</time>
      </trkpt>
      <trkpt lat="42.7378620" lon="-8.6609820">
        <ele>8.9</ele>
        <time>2021-05-23T10:40:03Z</time>
      </trkpt>
      <trkpt lat="42.7378710" lon="-8.6609860">
        <ele>8.9</ele>
        <time>2021-05-23T10:40:04Z</time>
      </trkpt>
      <trkpt lat="42.7378710" lon="-8.6609920">
        <ele>8.9</ele>
        <time>2021-05-23T10:40:05Z</time>
      </trkpt>
      <trkpt lat="42.7378460" lon="-8.6609940">
        <ele>8.9</ele>
        <time>2021-05-23T10:40:06Z</time>
      </trkpt>
      <trkpt lat="42.7378350" lon="-8.6609820">
        <ele>8.9</ele>
        <time>2021-05-23T10:40:07Z</time>
      </trkpt>
      <trkpt lat="42.7378380" lon="-8.6609670">
        <ele>8.9</ele>
        <time>2021-05-23T10:40:08Z</time>
      </trkpt>
      <trkpt lat="42.7378320" lon="-8.6609570">
        <ele>8.9</ele>
        <time>2021-05-23T10:40:09Z</time>
      </trkpt>
      <trkpt lat="42.7378480" lon="-8.6609690">
        <ele>8.9</ele>
        <time>2021-05-23T10:40:10Z</time>
      </trkpt>
      <trkpt lat="42.7378430" lon="-8.6609590">
        <ele>8.9</ele>
        <time>2021-05-23T10:40:11Z</time>
      </trkpt>
      <trkpt lat="42.7378430" lon="-8.6609560">
        <ele>8.9</ele>
        <time>2021-05-23T10:40:12Z</time>
      </trkpt>
      <trkpt lat="42.7378330" lon="-8.6609690">
        <ele>8.9</ele>
        <time>2021-05-23T10:40:13Z</time>
      </trkpt>
      <trkpt lat="42.7378340" lon="-8.6609760">
        <ele>8.9</ele>
        <time>2021-05-23T10:40:14Z</time>
      </trkpt>
      <trkpt lat="42.7378370" lon="-8.6609830">
        <ele>8.9</ele>
        <time>2021-05-23T10:40:15Z</time>
      </trkpt>
      <trkpt lat="42.7378300" lon="-8.6609890">
        <ele>8.9</ele>
        <time>2021-05-23T10:40:16Z</time>
      </trkpt>
      <trkpt lat="42.7378270" lon="-8.6609940">
        <ele>8.9</ele>
        <time>2021-05-23T10:40:17Z</time>
      </trkpt>
      <trkpt lat="42.7378260" lon="-8.6609810">
        <ele>8.9</ele>
        <time>2021-05-23T10:40:18Z</time>
      </trkpt>
      <trkpt lat="42.7378230" lon="-8.6610150">
        <ele>8.9</ele>
        <time>2021-05-23T10:40:19Z</time>
      </trkpt>
      <trkpt lat="42.7378230" lon="-8.6610280">
        <ele>8.9</ele>
        <time>2021-05-23T10:40:20Z</time>
      </trkpt>
      <trkpt lat="42.7378270" lon="-8.6610100">
        <ele>8.9</ele>
        <time>2021-05-23T10:40:21Z</time>
      </trkpt>
      <trkpt lat="42.7378320" lon="-8.6609950">
        <ele>8.9</ele>
        <time>2021-05-23T10:40:22Z</time>
      </trkpt>
      <trkpt lat="42.7378450" lon="-8.6610090">
        <ele>8.9</ele>
        <time>2021-05-23T10:40:23Z</time>
      </trkpt>
      <trkpt lat="42.7378520" lon="-8.6609990">
        <ele>8.9</ele>
        <time>2021-05-23T10:40:24Z</time>
      </trkpt>
      <trkpt lat="42.7378570" lon="-8.6609880">
        <ele>8.9</ele>
        <time>2021-05-23T10:40:25Z</time>
      </trkpt>
      <trkpt lat="42.7378710" lon="-8.6609650">
        <ele>8.9</ele>
        <time>2021-05-23T10:40:26Z</time>
      </trkpt>
      <trkpt lat="42.7378610" lon="-8.6609740">
        <ele>8.9</ele>
        <time>2021-05-23T10:40:27Z</time>
      </trkpt>
      <trkpt lat="42.7378590" lon="-8.6609820">
        <ele>8.9</ele>
        <time>2021-05-23T10:40:28Z</time>
      </trkpt>
      <trkpt lat="42.7378590" lon="-8.6609730">
        <ele>8.9</ele>
        <time>2021-05-23T10:40:29Z</time>
      </trkpt>
      <trkpt lat="42.7378650" lon="-8.6609700">
        <ele>8.9</ele>
        <time>2021-05-23T10:40:30Z</time>
      </trkpt>
      <trkpt lat="42.7378470" lon="-8.6610010">
        <ele>8.9</ele>
        <time>2021-05-23T10:40:31Z</time>
      </trkpt>
      <trkpt lat="42.7378210" lon="-8.6610170">
        <ele>8.9</ele>
        <time>2021-05-23T10:40:32Z</time>
      </trkpt>
      <trkpt lat="42.7378130" lon="-8.6610250">
        <ele>8.9</ele>
        <time>2021-05-23T10:40:33Z</time>
      </trkpt>
      <trkpt lat="42.7378040" lon="-8.6610380">
        <ele>8.9</ele>
        <time>2021-05-23T10:40:34Z</time>
      </trkpt>
      <trkpt lat="42.7377870" lon="-8.6610470">
        <ele>8.9</ele>
        <time>2021-05-23T10:40:35Z</time>
      </trkpt>
      <trkpt lat="42.7377830" lon="-8.6610530">
        <ele>8.9</ele>
        <time>2021-05-23T10:40:36Z</time>
      </trkpt>
      <trkpt lat="42.7377810" lon="-8.6610590">
        <ele>8.9</ele>
        <time>2021-05-23T10:40:37Z</time>
      </trkpt>
      <trkpt lat="42.7377790" lon="-8.6610650">
        <ele>8.9</ele>
        <time>2021-05-23T10:40:38Z</time>
      </trkpt>
      <trkpt lat="42.7377770" lon="-8.6610710">
        <ele>8.9</ele>
        <time>2021-05-23T10:40:39Z</time>
      </trkpt>
      <trkpt lat="42.7377760" lon="-8.6610770">
        <ele>8.9</ele>
        <time>2021-05-23T10:40:40Z</time>
      </trkpt>
      <trkpt lat="42.7377740" lon="-8.6610830">
        <ele>8.9</ele>
        <time>2021-05-23T10:40:41Z</time>
      </trkpt>
      <trkpt lat="42.7377720" lon="-8.6610890">
        <ele>8.9</ele>
        <time>2021-05-23T10:40:42Z</time>
      </trkpt>
      <trkpt lat="42.7377700" lon="-8.6610950">
        <ele>8.9</ele>
        <time>2021-05-23T10:40:43Z</time>
      </trkpt>
      <trkpt lat="42.7377680" lon="-8.6611010">
        <ele>8.9</ele>
        <time>2021-05-23T10:40:44Z</time>
      </trkpt>
      <trkpt lat="42.7377660" lon="-8.6611070">
        <ele>8.9</ele>
        <time>2021-05-23T10:40:45Z</time>
      </trkpt>
      <trkpt lat="42.7377560" lon="-8.6611180">
        <ele>8.9</ele>
        <time>2021-05-23T10:40:46Z</time>
      </trkpt>
      <trkpt lat="42.7377410" lon="-8.6611240">
        <ele>8.9</ele>
        <time>2021-05-23T10:40:47Z</time>
      </trkpt>
      <trkpt lat="42.7377450" lon="-8.6611280">
        <ele>8.9</ele>
        <time>2021-05-23T10:40:48Z</time>
      </trkpt>
      <trkpt lat="42.7377440" lon="-8.6611090">
        <ele>8.9</ele>
        <time>2021-05-23T10:40:49Z</time>
      </trkpt>
      <trkpt lat="42.7377390" lon="-8.6610790">
        <ele>8.9</ele>
        <time>2021-05-23T10:40:50Z</time>
      </trkpt>
      <trkpt lat="42.7377220" lon="-8.6610480">
        <ele>8.9</ele>
        <time>2021-05-23T10:40:51Z</time>
      </trkpt>
      <trkpt lat="42.7377070" lon="-8.6610450">
        <ele>8.9</ele>
        <time>2021-05-23T10:40:52Z</time>
      </trkpt>
      <trkpt lat="42.7376980" lon="-8.6610350">
        <ele>9.0</ele>
        <time>2021-05-23T10:40:53Z</time>
      </trkpt>
      <trkpt lat="42.7376910" lon="-8.6610190">
        <ele>9.0</ele>
        <time>2021-05-23T10:40:54Z</time>
      </trkpt>
      <trkpt lat="42.7376890" lon="-8.6610150">
        <ele>9.0</ele>
        <time>2021-05-23T10:40:55Z</time>
      </trkpt>
      <trkpt lat="42.7376840" lon="-8.6610220">
        <ele>9.0</ele>
        <time>2021-05-23T10:40:56Z</time>
      </trkpt>
      <trkpt lat="42.7376820" lon="-8.6610120">
        <ele>9.0</ele>
        <time>2021-05-23T10:40:57Z</time>
      </trkpt>
      <trkpt lat="42.7376810" lon="-8.6610030">
        <ele>9.0</ele>
        <time>2021-05-23T10:40:58Z</time>
      </trkpt>
      <trkpt lat="42.7376790" lon="-8.6609930">
        <ele>9.0</ele>
        <time>2021-05-23T10:40:59Z</time>
      </trkpt>
      <trkpt lat="42.7376780" lon="-8.6609840">
        <ele>9.0</ele>
        <time>2021-05-23T10:41:00Z</time>
      </trkpt>
      <trkpt lat="42.7376760" lon="-8.6609740">
        <ele>9.0</ele>
        <time>2021-05-23T10:41:01Z</time>
      </trkpt>
      <trkpt lat="42.7376750" lon="-8.6609650">
        <ele>9.0</ele>
        <time>2021-05-23T10:41:02Z</time>
      </trkpt>
      <trkpt lat="42.7376860" lon="-8.6609570">
        <ele>9.0</ele>
        <time>2021-05-23T10:41:03Z</time>
      </trkpt>
      <trkpt lat="42.7376910" lon="-8.6609370">
        <ele>9.0</ele>
        <time>2021-05-23T10:41:04Z</time>
      </trkpt>
      <trkpt lat="42.7376970" lon="-8.6609620">
        <ele>9.0</ele>
        <time>2021-05-23T10:41:05Z</time>
      </trkpt>
      <trkpt lat="42.7377050" lon="-8.6609630">
        <ele>9.0</ele>
        <time>2021-05-23T10:41:06Z</time>
      </trkpt>
      <trkpt lat="42.7376860" lon="-8.6609770">
        <ele>9.0</ele>
        <time>2021-05-23T10:41:07Z</time>
      </trkpt>
      <trkpt lat="42.7376800" lon="-8.6609910">
        <ele>9.0</ele>
        <time>2021-05-23T10:41:08Z</time>
      </trkpt>
      <trkpt lat="42.7376730" lon="-8.6610040">
        <ele>9.0</ele>
        <time>2021-05-23T10:41:09Z</time>
      </trkpt>
      <trkpt lat="42.7376790" lon="-8.6610170">
        <ele>9.0</ele>
        <time>2021-05-23T10:41:10Z</time>
      </trkpt>
      <trkpt lat="42.7376620" lon="-8.6610320">
        <ele>9.0</ele>
        <time>2021-05-23T10:41:11Z</time>
      </trkpt>
      <trkpt lat="42.7376590" lon="-8.6610400">
        <ele>9.0</ele>
        <time>2021-05-23T10:41:12Z</time>
      </trkpt>
      <trkpt lat="42.7376670" lon="-8.6610530">
        <ele>9.0</ele>
        <time>2021-05-23T10:41:13Z</time>
      </trkpt>
      <trkpt lat="42.7376750" lon="-8.6610660">
        <ele>9.0</ele>
        <time>2021-05-23T10:41:14Z</time>
      </trkpt>
      <trkpt lat="42.7376730" lon="-8.6610680">
        <ele>9.0</ele>
        <time>2021-05-23T10:41:15Z</time>
      </trkpt>
      <trkpt lat="42.7376740" lon="-8.6610620">
        <ele>9.0</ele>
        <time>2021-05-23T10:41:16Z</time>
      </trkpt>
      <trkpt lat="42.7376770" lon="-8.6610570">
        <ele>9.0</ele>
        <time>2021-05-23T10:41:17Z</time>
      </trkpt>
      <trkpt lat="42.7376880" lon="-8.6610670">
        <ele>9.0</ele>
        <time>2021-05-23T10:41:18Z</time>
      </trkpt>
      <trkpt lat="42.7376780" lon="-8.6610700">
        <ele>9.0</ele>
        <time>2021-05-23T10:41:19Z</time>
      </trkpt>
      <trkpt lat="42.7376710" lon="-8.6610740">
        <ele>9.0</ele>
        <time>2021-05-23T10:41:20Z</time>
      </trkpt>
      <trkpt lat="42.7376610" lon="-8.6610430">
        <ele>9.0</ele>
        <time>2021-05-23T10:41:21Z</time>
      </trkpt>
      <trkpt lat="42.7376620" lon="-8.6610230">
        <ele>9.0</ele>
        <time>2021-05-23T10:41:22Z</time>
      </trkpt>
      <trkpt lat="42.7376570" lon="-8.6610070">
        <ele>9.0</ele>
        <time>2021-05-23T10:41:23Z</time>
      </trkpt>
      <trkpt lat="42.7376530" lon="-8.6609920">
        <ele>9.0</ele>
        <time>2021-05-23T10:41:24Z</time>
      </trkpt>
      <trkpt lat="42.7376510" lon="-8.6609830">
        <ele>9.0</ele>
        <time>2021-05-23T10:41:25Z</time>
      </trkpt>
      <trkpt lat="42.7376510" lon="-8.6609840">
        <ele>9.0</ele>
        <time>2021-05-23T10:41:26Z</time>
      </trkpt>
      <trkpt lat="42.7376510" lon="-8.6609850">
        <ele>9.0</ele>
        <time>2021-05-23T10:41:27Z</time>
      </trkpt>
      <trkpt lat="42.7376510" lon="-8.6609850">
        <ele>9.0</ele>
        <time>2021-05-23T10:41:28Z</time>
      </trkpt>
      <trkpt lat="42.7376510" lon="-8.6609860">
        <ele>9.0</ele>
        <time>2021-05-23T10:41:29Z</time>
      </trkpt>
      <trkpt lat="42.7376510" lon="-8.6609870">
        <ele>9.0</ele>
        <time>2021-05-23T10:41:30Z</time>
      </trkpt>
      <trkpt lat="42.7376500" lon="-8.6609880">
        <ele>9.0</ele>
        <time>2021-05-23T10:41:31Z</time>
      </trkpt>
      <trkpt lat="42.7376500" lon="-8.6609890">
        <ele>9.0</ele>
        <time>2021-05-23T10:41:32Z</time>
      </trkpt>
      <trkpt lat="42.7376500" lon="-8.6609900">
        <ele>9.0</ele>
        <time>2021-05-23T10:41:33Z</time>
      </trkpt>
      <trkpt lat="42.7376500" lon="-8.6609900">
        <ele>9.0</ele>
        <time>2021-05-23T10:41:34Z</time>
      </trkpt>
      <trkpt lat="42.7376500" lon="-8.6609910">
        <ele>9.0</ele>
        <time>2021-05-23T10:41:35Z</time>
      </trkpt>
      <trkpt lat="42.7376500" lon="-8.6609920">
        <ele>9.0</ele>
        <time>2021-05-23T10:41:36Z</time>
      </trkpt>
      <trkpt lat="42.7376500" lon="-8.6609930">
        <ele>9.0</ele>
        <time>2021-05-23T10:41:37Z</time>
      </trkpt>
      <trkpt lat="42.7376500" lon="-8.6609940">
        <ele>9.0</ele>
        <time>2021-05-23T10:41:38Z</time>
      </trkpt>
      <trkpt lat="42.7376500" lon="-8.6609950">
        <ele>9.0</ele>
        <time>2021-05-23T10:41:39Z</time>
      </trkpt>
      <trkpt lat="42.7376500" lon="-8.6609950">
        <ele>9.0</ele>
        <time>2021-05-23T10:41:40Z</time>
      </trkpt>
      <trkpt lat="42.7376500" lon="-8.6609960">
        <ele>9.0</ele>
        <time>2021-05-23T10:41:41Z</time>
      </trkpt>
      <trkpt lat="42.7376500" lon="-8.6609970">
        <ele>9.0</ele>
        <time>2021-05-23T10:41:42Z</time>
      </trkpt>
      <trkpt lat="42.7376490" lon="-8.6609980">
        <ele>9.0</ele>
        <time>2021-05-23T10:41:43Z</time>
      </trkpt>
      <trkpt lat="42.7376490" lon="-8.6609990">
        <ele>9.0</ele>
        <time>2021-05-23T10:41:44Z</time>
      </trkpt>
      <trkpt lat="42.7376490" lon="-8.6610000">
        <ele>9.0</ele>
        <time>2021-05-23T10:41:45Z</time>
      </trkpt>
      <trkpt lat="42.7376490" lon="-8.6610000">
        <ele>9.0</ele>
        <time>2021-05-23T10:41:46Z</time>
      </trkpt>
      <trkpt lat="42.7376490" lon="-8.6610010">
        <ele>9.0</ele>
        <time>2021-05-23T10:41:47Z</time>
      </trkpt>
      <trkpt lat="42.7376490" lon="-8.6610020">
        <ele>9.0</ele>
        <time>2021-05-23T10:41:48Z</time>
      </trkpt>
      <trkpt lat="42.7376490" lon="-8.6610030">
        <ele>9.0</ele>
        <time>2021-05-23T10:41:49Z</time>
      </trkpt>
      <trkpt lat="42.7376490" lon="-8.6610040">
        <ele>9.0</ele>
        <time>2021-05-23T10:41:50Z</time>
      </trkpt>
      <trkpt lat="42.7376490" lon="-8.6610050">
        <ele>9.0</ele>
        <time>2021-05-23T10:41:51Z</time>
      </trkpt>
      <trkpt lat="42.7376490" lon="-8.6610050">
        <ele>9.0</ele>
        <time>2021-05-23T10:41:52Z</time>
      </trkpt>
      <trkpt lat="42.7376490" lon="-8.6610060">
        <ele>9.0</ele>
        <time>2021-05-23T10:41:53Z</time>
      </trkpt>
      <trkpt lat="42.7376490" lon="-8.6610070">
        <ele>9.0</ele>
        <time>2021-05-23T10:41:54Z</time>
      </trkpt>
      <trkpt lat="42.7376480" lon="-8.6610080">
        <ele>9.0</ele>
        <time>2021-05-23T10:41:55Z</time>
      </trkpt>
      <trkpt lat="42.7376480" lon="-8.6610090">
        <ele>9.0</ele>
        <time>2021-05-23T10:41:56Z</time>
      </trkpt>
      <trkpt lat="42.7376480" lon="-8.6610100">
        <ele>9.0</ele>
        <time>2021-05-23T10:41:57Z</time>
      </trkpt>
      <trkpt lat="42.7376480" lon="-8.6610100">
        <ele>9.0</ele>
        <time>2021-05-23T10:41:58Z</time>
      </trkpt>
      <trkpt lat="42.7376480" lon="-8.6610110">
        <ele>9.0</ele>
        <time>2021-05-23T10:41:59Z</time>
      </trkpt>
      <trkpt lat="42.7376480" lon="-8.6610120">
        <ele>9.0</ele>
        <time>2021-05-23T10:42:00Z</time>
      </trkpt>
      <trkpt lat="42.7376480" lon="-8.6610130">
        <ele>9.0</ele>
        <time>2021-05-23T10:42:01Z</time>
      </trkpt>
      <trkpt lat="42.7376480" lon="-8.6610140">
        <ele>9.0</ele>
        <time>2021-05-23T10:42:02Z</time>
      </trkpt>
      <trkpt lat="42.7376480" lon="-8.6610150">
        <ele>9.0</ele>
        <time>2021-05-23T10:42:03Z</time>
      </trkpt>
      <trkpt lat="42.7376480" lon="-8.6610150">
        <ele>9.0</ele>
        <time>2021-05-23T10:42:04Z</time>
      </trkpt>
      <trkpt lat="42.7376480" lon="-8.6610160">
        <ele>9.0</ele>
        <time>2021-05-23T10:42:05Z</time>
      </trkpt>
      <trkpt lat="42.7376480" lon="-8.6610170">
        <ele>9.0</ele>
        <time>2021-05-23T10:42:06Z</time>
      </trkpt>
      <trkpt lat="42.7376470" lon="-8.6610180">
        <ele>9.0</ele>
        <time>2021-05-23T10:42:07Z</time>
      </trkpt>
      <trkpt lat="42.7376470" lon="-8.6610190">
        <ele>9.0</ele>
        <time>2021-05-23T10:42:08Z</time>
      </trkpt>
      <trkpt lat="42.7376470" lon="-8.6610200">
        <ele>9.0</ele>
        <time>2021-05-23T10:42:09Z</time>
      </trkpt>
      <trkpt lat="42.7376470" lon="-8.6610200">
        <ele>9.0</ele>
        <time>2021-05-23T10:42:10Z</time>
      </trkpt>
      <trkpt lat="42.7376470" lon="-8.6610210">
        <ele>9.0</ele>
        <time>2021-05-23T10:42:11Z</time>
      </trkpt>
      <trkpt lat="42.7376470" lon="-8.6610220">
        <ele>9.0</ele>
        <time>2021-05-23T10:42:12Z</time>
      </trkpt>
      <trkpt lat="42.7376470" lon="-8.6610230">
        <ele>9.0</ele>
        <time>2021-05-23T10:42:13Z</time>
      </trkpt>
      <trkpt lat="42.7376470" lon="-8.6610240">
        <ele>9.0</ele>
        <time>2021-05-23T10:42:14Z</time>
      </trkpt>
      <trkpt lat="42.7376470" lon="-8.6610250">
        <ele>9.0</ele>
        <time>2021-05-23T10:42:15Z</time>
      </trkpt>
      <trkpt lat="42.7376470" lon="-8.6610250">
        <ele>9.0</ele>
        <time>2021-05-23T10:42:16Z</time>
      </trkpt>
      <trkpt lat="42.7376470" lon="-8.6610260">
        <ele>9.0</ele>
        <time>2021-05-23T10:42:17Z</time>
      </trkpt>
      <trkpt lat="42.7376470" lon="-8.6610270">
        <ele>9.0</ele>
        <time>2021-05-23T10:42:18Z</time>
      </trkpt>
      <trkpt lat="42.7376460" lon="-8.6610280">
        <ele>9.0</ele>
        <time>2021-05-23T10:42:19Z</time>
      </trkpt>
      <trkpt lat="42.7376460" lon="-8.6610290">
        <ele>9.0</ele>
        <time>2021-05-23T10:42:20Z</time>
      </trkpt>
      <trkpt lat="42.7376460" lon="-8.6610300">
        <ele>9.0</ele>
        <time>2021-05-23T10:42:21Z</time>
      </trkpt>
      <trkpt lat="42.7376460" lon="-8.6610300">
        <ele>9.0</ele>
        <time>2021-05-23T10:42:22Z</time>
      </trkpt>
      <trkpt lat="42.7376460" lon="-8.6610310">
        <ele>9.0</ele>
        <time>2021-05-23T10:42:23Z</time>
      </trkpt>
      <trkpt lat="42.7376460" lon="-8.6610320">
        <ele>9.0</ele>
        <time>2021-05-23T10:42:24Z</time>
      </trkpt>
      <trkpt lat="42.7376460" lon="-8.6610330">
        <ele>9.0</ele>
        <time>2021-05-23T10:42:25Z</time>
      </trkpt>
      <trkpt lat="42.7376460" lon="-8.6610340">
        <ele>9.0</ele>
        <time>2021-05-23T10:42:26Z</time>
      </trkpt>
      <trkpt lat="42.7376460" lon="-8.6610350">
        <ele>9.0</ele>
        <time>2021-05-23T10:42:27Z</time>
      </trkpt>
      <trkpt lat="42.7376460" lon="-8.6610350">
        <ele>9.0</ele>
        <time>2021-05-23T10:42:28Z</time>
      </trkpt>
      <trkpt lat="42.7376460" lon="-8.6610360">
        <ele>9.0</ele>
        <time>2021-05-23T10:42:29Z</time>
      </trkpt>
      <trkpt lat="42.7376460" lon="-8.6610370">
        <ele>9.0</ele>
        <time>2021-05-23T10:42:30Z</time>
      </trkpt>
      <trkpt lat="42.7376450" lon="-8.6610380">
        <ele>9.0</ele>
        <time>2021-05-23T10:42:31Z</time>
      </trkpt>
      <trkpt lat="42.7376450" lon="-8.6610390">
        <ele>9.0</ele>
        <time>2021-05-23T10:42:32Z</time>
      </trkpt>
      <trkpt lat="42.7376450" lon="-8.6610400">
        <ele>9.0</ele>
        <time>2021-05-23T10:42:33Z</time>
      </trkpt>
      <trkpt lat="42.7376450" lon="-8.6610400">
        <ele>9.0</ele>
        <time>2021-05-23T10:42:34Z</time>
      </trkpt>
      <trkpt lat="42.7376450" lon="-8.6610410">
        <ele>9.0</ele>
        <time>2021-05-23T10:42:35Z</time>
      </trkpt>
      <trkpt lat="42.7376450" lon="-8.6610420">
        <ele>9.0</ele>
        <time>2021-05-23T10:42:36Z</time>
      </trkpt>
      <trkpt lat="42.7376390" lon="-8.6610410">
        <ele>9.0</ele>
        <time>2021-05-23T10:42:37Z</time>
      </trkpt>
      <trkpt lat="42.7376400" lon="-8.6610420">
        <ele>9.0</ele>
        <time>2021-05-23T10:42:38Z</time>
      </trkpt>
      <trkpt lat="42.7376340" lon="-8.6610500">
        <ele>9.0</ele>
        <time>2021-05-23T10:42:39Z</time>
      </trkpt>
      <trkpt lat="42.7376310" lon="-8.6610590">
        <ele>9.0</ele>
        <time>2021-05-23T10:42:40Z</time>
      </trkpt>
      <trkpt lat="42.7376330" lon="-8.6610670">
        <ele>9.0</ele>
        <time>2021-05-23T10:42:41Z</time>
      </trkpt>
      <trkpt lat="42.7376330" lon="-8.6610680">
        <ele>9.0</ele>
        <time>2021-05-23T10:42:42Z</time>
      </trkpt>
      <trkpt lat="42.7376330" lon="-8.6610690">
        <ele>9.0</ele>
        <time>2021-05-23T10:42:43Z</time>
      </trkpt>
      <trkpt lat="42.7376230" lon="-8.6610700">
        <ele>9.0</ele>
        <time>2021-05-23T10:42:44Z</time>
      </trkpt>
      <trkpt lat="42.7376120" lon="-8.6610850">
        <ele>9.0</ele>
        <time>2021-05-23T10:42:45Z</time>
      </trkpt>
      <trkpt lat="42.7376080" lon="-8.6610850">
        <ele>11.2</ele>
        <time>2021-05-23T10:42:46Z</time>
      </trkpt>
      <trkpt lat="42.7376010" lon="-8.6610990">
        <ele>11.2</ele>
        <time>2021-05-23T10:42:47Z</time>
      </trkpt>
      <trkpt lat="42.7375960" lon="-8.6611040">
        <ele>11.2</ele>
        <time>2021-05-23T10:42:48Z</time>
      </trkpt>
      <trkpt lat="42.7375940" lon="-8.6610980">
        <ele>11.2</ele>
        <time>2021-05-23T10:42:49Z</time>
      </trkpt>
      <trkpt lat="42.7375910" lon="-8.6610840">
        <ele>11.2</ele>
        <time>2021-05-23T10:42:50Z</time>
      </trkpt>
      <trkpt lat="42.7375870" lon="-8.6610830">
        <ele>11.2</ele>
        <time>2021-05-23T10:42:51Z</time>
      </trkpt>
      <trkpt lat="42.7375840" lon="-8.6610940">
        <ele>11.2</ele>
        <time>2021-05-23T10:42:52Z</time>
      </trkpt>
      <trkpt lat="42.7375840" lon="-8.6610890">
        <ele>11.2</ele>
        <time>2021-05-23T10:42:53Z</time>
      </trkpt>
      <trkpt lat="42.7375870" lon="-8.6611120">
        <ele>11.2</ele>
        <time>2021-05-23T10:42:54Z</time>
      </trkpt>
      <trkpt lat="42.7375860" lon="-8.6611210">
        <ele>11.2</ele>
        <time>2021-05-23T10:42:55Z</time>
      </trkpt>
      <trkpt lat="42.7376020" lon="-8.6611470">
        <ele>11.2</ele>
        <time>2021-05-23T10:42:56Z</time>
      </trkpt>
      <trkpt lat="42.7375960" lon="-8.6611840">
        <ele>11.2</ele>
        <time>2021-05-23T10:42:57Z</time>
      </trkpt>
      <trkpt lat="42.7375930" lon="-8.6611710">
        <ele>11.2</ele>
        <time>2021-05-23T10:42:58Z</time>
      </trkpt>
      <trkpt lat="42.7375830" lon="-8.6611700">
        <ele>11.2</ele>
        <time>2021-05-23T10:42:59Z</time>
      </trkpt>
      <trkpt lat="42.7375780" lon="-8.6611790">
        <ele>11.2</ele>
        <time>2021-05-23T10:43:00Z</time>
      </trkpt>
      <trkpt lat="42.7375650" lon="-8.6611720">
        <ele>11.2</ele>
        <time>2021-05-23T10:43:01Z</time>
      </trkpt>
      <trkpt lat="42.7375620" lon="-8.6612420">
        <ele>11.2</ele>
        <time>2021-05-23T10:43:02Z</time>
      </trkpt>
      <trkpt lat="42.7375600" lon="-8.6612270">
        <ele>11.2</ele>
        <time>2021-05-23T10:43:03Z</time>
      </trkpt>
      <trkpt lat="42.7375730" lon="-8.6611900">
        <ele>11.2</ele>
        <time>2021-05-23T10:43:04Z</time>
      </trkpt>
      <trkpt lat="42.7375860" lon="-8.6611390">
        <ele>11.2</ele>
        <time>2021-05-23T10:43:05Z</time>
      </trkpt>
      <trkpt lat="42.7375950" lon="-8.6611440">
        <ele>11.2</ele>
        <time>2021-05-23T10:43:06Z</time>
      </trkpt>
      <trkpt lat="42.7376050" lon="-8.6611380">
        <ele>11.2</ele>
        <time>2021-05-23T10:43:07Z</time>
      </trkpt>
      <trkpt lat="42.7375980" lon="-8.6611240">
        <ele>11.2</ele>
        <time>2021-05-23T10:43:08Z</time>
      </trkpt>
      <trkpt lat="42.7375940" lon="-8.6611250">
        <ele>11.2</ele>
        <time>2021-05-23T10:43:09Z</time>
      </trkpt>
      <trkpt lat="42.7375940" lon="-8.6611250">
        <ele>11.2</ele>
        <time>2021-05-23T10:43:10Z</time>
      </trkpt>
      <trkpt lat="42.7375980" lon="-8.6611240">
        <ele>11.2</ele>
        <time>2021-05-23T10:43:11Z</time>
      </trkpt>
      <trkpt lat="42.7376010" lon="-8.6611270">
        <ele>11.2</ele>
        <time>2021-05-23T10:43:12Z</time>
      </trkpt>
      <trkpt lat="42.7376030" lon="-8.6611210">
        <ele>11.2</ele>
        <time>2021-05-23T10:43:13Z</time>
      </trkpt>
      <trkpt lat="42.7376080" lon="-8.6611150">
        <ele>11.2</ele>
        <time>2021-05-23T10:43:14Z</time>
      </trkpt>
      <trkpt lat="42.7376110" lon="-8.6610820">
        <ele>11.2</ele>
        <time>2021-05-23T10:43:15Z</time>
      </trkpt>
      <trkpt lat="42.7376130" lon="-8.6610990">
        <ele>11.2</ele>
        <time>2021-05-23T10:43:16Z</time>
      </trkpt>
      <trkpt lat="42.7376180" lon="-8.6610990">
        <ele>11.2</ele>
        <time>2021-05-23T10:43:17Z</time>
      </trkpt>
      <trkpt lat="42.7376190" lon="-8.6610690">
        <ele>11.3</ele>
        <time>2021-05-23T10:43:18Z</time>
      </trkpt>
      <trkpt lat="42.7376180" lon="-8.6610700">
        <ele>11.3</ele>
        <time>2021-05-23T10:43:19Z</time>
      </trkpt>
      <trkpt lat="42.7376120" lon="-8.6610740">
        <ele>11.3</ele>
        <time>2021-05-23T10:43:20Z</time>
      </trkpt>
      <trkpt lat="42.7376060" lon="-8.6610770">
        <ele>11.3</ele>
        <time>2021-05-23T10:43:21Z</time>
      </trkpt>
      <trkpt lat="42.7376000" lon="-8.6610810">
        <ele>11.3</ele>
        <time>2021-05-23T10:43:22Z</time>
      </trkpt>
      <trkpt lat="42.7375950" lon="-8.6610850">
        <ele>11.3</ele>
        <time>2021-05-23T10:43:23Z</time>
      </trkpt>
      <trkpt lat="42.7375890" lon="-8.6610890">
        <ele>11.3</ele>
        <time>2021-05-23T10:43:24Z</time>
      </trkpt>
      <trkpt lat="42.7375830" lon="-8.6610920">
        <ele>11.3</ele>
        <time>2021-05-23T10:43:25Z</time>
      </trkpt>
      <trkpt lat="42.7375770" lon="-8.6610960">
        <ele>11.3</ele>
        <time>2021-05-23T10:43:26Z</time>
      </trkpt>
      <trkpt lat="42.7375710" lon="-8.6611000">
        <ele>11.3</ele>
        <time>2021-05-23T10:43:27Z</time>
      </trkpt>
      <trkpt lat="42.7375630" lon="-8.6611130">
        <ele>11.3</ele>
        <time>2021-05-23T10:43:28Z</time>
      </trkpt>
      <trkpt lat="42.7375620" lon="-8.6611020">
        <ele>11.3</ele>
        <time>2021-05-23T10:43:29Z</time>
      </trkpt>
      <trkpt lat="42.7375780" lon="-8.6611080">
        <ele>11.3</ele>
        <time>2021-05-23T10:43:30Z</time>
      </trkpt>
      <trkpt lat="42.7375800" lon="-8.6611000">
        <ele>11.3</ele>
        <time>2021-05-23T10:43:31Z</time>
      </trkpt>
      <trkpt lat="42.7375800" lon="-8.6611000">
        <ele>11.3</ele>
        <time>2021-05-23T10:43:32Z</time>
      </trkpt>
      <trkpt lat="42.7375990" lon="-8.6611080">
        <ele>11.3</ele>
        <time>2021-05-23T10:43:33Z</time>
      </trkpt>
      <trkpt lat="42.7375950" lon="-8.6611050">
        <ele>11.3</ele>
        <time>2021-05-23T10:43:34Z</time>
      </trkpt>
      <trkpt lat="42.7375910" lon="-8.6611120">
        <ele>11.3</ele>
        <time>2021-05-23T10:43:35Z</time>
      </trkpt>
      <trkpt lat="42.7376070" lon="-8.6611030">
        <ele>11.3</ele>
        <time>2021-05-23T10:43:36Z</time>
      </trkpt>
      <trkpt lat="42.7376130" lon="-8.6610900">
        <ele>11.3</ele>
        <time>2021-05-23T10:43:37Z</time>
      </trkpt>
      <trkpt lat="42.7376120" lon="-8.6610890">
        <ele>11.3</ele>
        <time>2021-05-23T10:43:38Z</time>
      </trkpt>
      <trkpt lat="42.7376120" lon="-8.6610890">
        <ele>11.3</ele>
        <time>2021-05-23T10:43:39Z</time>
      </trkpt>
      <trkpt lat="42.7376120" lon="-8.6610890">
        <ele>11.3</ele>
        <time>2021-05-23T10:43:40Z</time>
      </trkpt>
      <trkpt lat="42.7376120" lon="-8.6610890">
        <ele>11.3</ele>
        <time>2021-05-23T10:43:41Z</time>
      </trkpt>
      <trkpt lat="42.7376120" lon="-8.6610890">
        <ele>11.3</ele>
        <time>2021-05-23T10:43:42Z</time>
      </trkpt>
      <trkpt lat="42.7376120" lon="-8.6610890">
        <ele>11.3</ele>
        <time>2021-05-23T10:43:43Z</time>
      </trkpt>
      <trkpt lat="42.7376120" lon="-8.6610890">
        <ele>11.3</ele>
        <time>2021-05-23T10:43:44Z</time>
      </trkpt>
      <trkpt lat="42.7376120" lon="-8.6610890">
        <ele>11.3</ele>
        <time>2021-05-23T10:43:45Z</time>
      </trkpt>
      <trkpt lat="42.7376120" lon="-8.6610890">
        <ele>11.3</ele>
        <time>2021-05-23T10:43:46Z</time>
      </trkpt>
      <trkpt lat="42.7376120" lon="-8.6610890">
        <ele>11.3</ele>
        <time>2021-05-23T10:43:47Z</time>
      </trkpt>
      <trkpt lat="42.7376120" lon="-8.6610890">
        <ele>11.3</ele>
        <time>2021-05-23T10:43:48Z</time>
      </trkpt>
      <trkpt lat="42.7376060" lon="-8.6610850">
        <ele>11.3</ele>
        <time>2021-05-23T10:43:49Z</time>
      </trkpt>
      <trkpt lat="42.7376070" lon="-8.6610880">
        <ele>11.3</ele>
        <time>2021-05-23T10:43:50Z</time>
      </trkpt>
      <trkpt lat="42.7376050" lon="-8.6610820">
        <ele>11.3</ele>
        <time>2021-05-23T10:43:51Z</time>
      </trkpt>
      <trkpt lat="42.7376090" lon="-8.6610750">
        <ele>11.3</ele>
        <time>2021-05-23T10:43:52Z</time>
      </trkpt>
      <trkpt lat="42.7376040" lon="-8.6610720">
        <ele>11.3</ele>
        <time>2021-05-23T10:43:53Z</time>
      </trkpt>
      <trkpt lat="42.7376070" lon="-8.6610740">
        <ele>11.3</ele>
        <time>2021-05-23T10:43:54Z</time>
      </trkpt>
      <trkpt lat="42.7376230" lon="-8.6610780">
        <ele>11.3</ele>
        <time>2021-05-23T10:43:55Z</time>
      </trkpt>
      <trkpt lat="42.7376290" lon="-8.6610720">
        <ele>11.3</ele>
        <time>2021-05-23T10:43:56Z</time>
      </trkpt>
      <trkpt lat="42.7376320" lon="-8.6610650">
        <ele>11.3</ele>
        <time>2021-05-23T10:43:57Z</time>
      </trkpt>
      <trkpt lat="42.7376340" lon="-8.6610660">
        <ele>11.3</ele>
        <time>2021-05-23T10:43:58Z</time>
      </trkpt>
      <trkpt lat="42.7376360" lon="-8.6610650">
        <ele>11.3</ele>
        <time>2021-05-23T10:43:59Z</time>
      </trkpt>
      <trkpt lat="42.7376310" lon="-8.6610660">
        <ele>11.3</ele>
        <time>2021-05-23T10:44:00Z</time>
      </trkpt>
      <trkpt lat="42.7376320" lon="-8.6610620">
        <ele>11.3</ele>
        <time>2021-05-23T10:44:01Z</time>
      </trkpt>
      <trkpt lat="42.7376320" lon="-8.6610620">
        <ele>11.3</ele>
        <time>2021-05-23T10:44:02Z</time>
      </trkpt>
      <trkpt lat="42.7376250" lon="-8.6610610">
        <ele>11.3</ele>
        <time>2021-05-23T10:44:03Z</time>
      </trkpt>
      <trkpt lat="42.7376290" lon="-8.6610600">
        <ele>11.3</ele>
        <time>2021-05-23T10:44:04Z</time>
      </trkpt>
      <trkpt lat="42.7376260" lon="-8.6610550">
        <ele>11.3</ele>
        <time>2021-05-23T10:44:05Z</time>
      </trkpt>
      <trkpt lat="42.7376340" lon="-8.6610540">
        <ele>11.3</ele>
        <time>2021-05-23T10:44:06Z</time>
      </trkpt>
      <trkpt lat="42.7376380" lon="-8.6610500">
        <ele>11.3</ele>
        <time>2021-05-23T10:44:07Z</time>
      </trkpt>
      <trkpt lat="42.7376370" lon="-8.6610420">
        <ele>11.3</ele>
        <time>2021-05-23T10:44:08Z</time>
      </trkpt>
      <trkpt lat="42.7376400" lon="-8.6610410">
        <ele>11.3</ele>
        <time>2021-05-23T10:44:09Z</time>
      </trkpt>
      <trkpt lat="42.7376410" lon="-8.6610400">
        <ele>11.3</ele>
        <time>2021-05-23T10:44:10Z</time>
      </trkpt>
      <trkpt lat="42.7376450" lon="-8.6610390">
        <ele>11.2</ele>
        <time>2021-05-23T10:44:11Z</time>
      </trkpt>
      <trkpt lat="42.7376420" lon="-8.6610340">
        <ele>11.2</ele>
        <time>2021-05-23T10:44:12Z</time>
      </trkpt>
      <trkpt lat="42.7376350" lon="-8.6610330">
        <ele>11.2</ele>
        <time>2021-05-23T10:44:13Z</time>
      </trkpt>
      <trkpt lat="42.7376410" lon="-8.6610360">
        <ele>11.2</ele>
        <time>2021-05-23T10:44:14Z</time>
      </trkpt>
      <trkpt lat="42.7376430" lon="-8.6610340">
        <ele>11.2</ele>
        <time>2021-05-23T10:44:15Z</time>
      </trkpt>
      <trkpt lat="42.7376430" lon="-8.6610340">
        <ele>11.2</ele>
        <time>2021-05-23T10:44:16Z</time>
      </trkpt>
      <trkpt lat="42.7376430" lon="-8.6610340">
        <ele>11.2</ele>
        <time>2021-05-23T10:44:17Z</time>
      </trkpt>
      <trkpt lat="42.7376210" lon="-8.6610570">
        <ele>11.2</ele>
        <time>2021-05-23T10:44:18Z</time>
      </trkpt>
      <trkpt lat="42.7376180" lon="-8.6610590">
        <ele>11.2</ele>
        <time>2021-05-23T10:44:19Z</time>
      </trkpt>
      <trkpt lat="42.7376150" lon="-8.6610670">
        <ele>11.2</ele>
        <time>2021-05-23T10:44:20Z</time>
      </trkpt>
      <trkpt lat="42.7376230" lon="-8.6610650">
        <ele>11.2</ele>
        <time>2021-05-23T10:44:21Z</time>
      </trkpt>
      <trkpt lat="42.7376240" lon="-8.6610640">
        <ele>11.2</ele>
        <time>2021-05-23T10:44:22Z</time>
      </trkpt>
      <trkpt lat="42.7376260" lon="-8.6610630">
        <ele>11.2</ele>
        <time>2021-05-23T10:44:23Z</time>
      </trkpt>
      <trkpt lat="42.7376270" lon="-8.6610630">
        <ele>11.2</ele>
        <time>2021-05-23T10:44:24Z</time>
      </trkpt>
      <trkpt lat="42.7376290" lon="-8.6610620">
        <ele>11.2</ele>
        <time>2021-05-23T10:44:25Z</time>
      </trkpt>
      <trkpt lat="42.7376300" lon="-8.6610610">
        <ele>11.2</ele>
        <time>2021-05-23T10:44:26Z</time>
      </trkpt>
      <trkpt lat="42.7376320" lon="-8.6610600">
        <ele>11.2</ele>
        <time>2021-05-23T10:44:27Z</time>
      </trkpt>
      <trkpt lat="42.7376330" lon="-8.6610590">
        <ele>11.2</ele>
        <time>2021-05-23T10:44:28Z</time>
      </trkpt>
      <trkpt lat="42.7376350" lon="-8.6610580">
        <ele>11.2</ele>
        <time>2021-05-23T10:44:29Z</time>
      </trkpt>
      <trkpt lat="42.7376360" lon="-8.6610580">
        <ele>11.2</ele>
        <time>2021-05-23T10:44:30Z</time>
      </trkpt>
      <trkpt lat="42.7376380" lon="-8.6610570">
        <ele>11.2</ele>
        <time>2021-05-23T10:44:31Z</time>
      </trkpt>
      <trkpt lat="42.7376390" lon="-8.6610560">
        <ele>11.2</ele>
        <time>2021-05-23T10:44:32Z</time>
      </trkpt>
      <trkpt lat="42.7376410" lon="-8.6610550">
        <ele>11.2</ele>
        <time>2021-05-23T10:44:33Z</time>
      </trkpt>
      <trkpt lat="42.7376420" lon="-8.6610540">
        <ele>11.2</ele>
        <time>2021-05-23T10:44:34Z</time>
      </trkpt>
      <trkpt lat="42.7376440" lon="-8.6610530">
        <ele>11.2</ele>
        <time>2021-05-23T10:44:35Z</time>
      </trkpt>
      <trkpt lat="42.7376450" lon="-8.6610520">
        <ele>11.2</ele>
        <time>2021-05-23T10:44:36Z</time>
      </trkpt>
      <trkpt lat="42.7376470" lon="-8.6610520">
        <ele>11.2</ele>
        <time>2021-05-23T10:44:37Z</time>
      </trkpt>
      <trkpt lat="42.7376480" lon="-8.6610510">
        <ele>11.2</ele>
        <time>2021-05-23T10:44:38Z</time>
      </trkpt>
      <trkpt lat="42.7376500" lon="-8.6610500">
        <ele>11.2</ele>
        <time>2021-05-23T10:44:39Z</time>
      </trkpt>
      <trkpt lat="42.7376510" lon="-8.6610490">
        <ele>11.2</ele>
        <time>2021-05-23T10:44:40Z</time>
      </trkpt>
      <trkpt lat="42.7376530" lon="-8.6610480">
        <ele>11.2</ele>
        <time>2021-05-23T10:44:41Z</time>
      </trkpt>
      <trkpt lat="42.7376540" lon="-8.6610470">
        <ele>11.2</ele>
        <time>2021-05-23T10:44:42Z</time>
      </trkpt>
      <trkpt lat="42.7376560" lon="-8.6610470">
        <ele>11.2</ele>
        <time>2021-05-23T10:44:43Z</time>
      </trkpt>
      <trkpt lat="42.7376570" lon="-8.6610460">
        <ele>11.2</ele>
        <time>2021-05-23T10:44:44Z</time>
      </trkpt>
      <trkpt lat="42.7376590" lon="-8.6610450">
        <ele>11.2</ele>
        <time>2021-05-23T10:44:45Z</time>
      </trkpt>
      <trkpt lat="42.7376600" lon="-8.6610440">
        <ele>11.2</ele>
        <time>2021-05-23T10:44:46Z</time>
      </trkpt>
      <trkpt lat="42.7376480" lon="-8.6610720">
        <ele>11.3</ele>
        <time>2021-05-23T10:44:47Z</time>
      </trkpt>
      <trkpt lat="42.7376350" lon="-8.6610780">
        <ele>11.3</ele>
        <time>2021-05-23T10:44:48Z</time>
      </trkpt>
      <trkpt lat="42.7376160" lon="-8.6610840">
        <ele>11.3</ele>
        <time>2021-05-23T10:44:49Z</time>
      </trkpt>
      <trkpt lat="42.7376090" lon="-8.6610730">
        <ele>11.3</ele>
        <time>2021-05-23T10:44:50Z</time>
      </trkpt>
      <trkpt lat="42.7376100" lon="-8.6610660">
        <ele>11.3</ele>
        <time>2021-05-23T10:44:51Z</time>
      </trkpt>
      <trkpt lat="42.7376090" lon="-8.6610670">
        <ele>11.3</ele>
        <time>2021-05-23T10:44:52Z</time>
      </trkpt>
      <trkpt lat="42.7376150" lon="-8.6610620">
        <ele>11.3</ele>
        <time>2021-05-23T10:44:53Z</time>
      </trkpt>
      <trkpt lat="42.7376140" lon="-8.6610560">
        <ele>11.3</ele>
        <time>2021-05-23T10:44:54Z</time>
      </trkpt>
      <trkpt lat="42.7376150" lon="-8.6610550">
        <ele>11.3</ele>
        <time>2021-05-23T10:44:55Z</time>
      </trkpt>
      <trkpt lat="42.7376150" lon="-8.6610550">
        <ele>11.3</ele>
        <time>2021-05-23T10:44:56Z</time>
      </trkpt>
      <trkpt lat="42.7376150" lon="-8.6610550">
        <ele>11.3</ele>
        <time>2021-05-23T10:44:57Z</time>
      </trkpt>
      <trkpt lat="42.7376150" lon="-8.6610550">
        <ele>11.3</ele>
        <time>2021-05-23T10:44:58Z</time>
      </trkpt>
      <trkpt lat="42.7376150" lon="-8.6610550">
        <ele>11.3</ele>
        <time>2021-05-23T10:44:59Z</time>
      </trkpt>
      <trkpt lat="42.7376150" lon="-8.6610550">
        <ele>11.3</ele>
        <time>2021-05-23T10:45:00Z</time>
      </trkpt>
      <trkpt lat="42.7376150" lon="-8.6610550">
        <ele>11.3</ele>
        <time>2021-05-23T10:45:01Z</time>
      </trkpt>
      <trkpt lat="42.7376170" lon="-8.6610360">
        <ele>11.3</ele>
        <time>2021-05-23T10:45:02Z</time>
      </trkpt>
      <trkpt lat="42.7376170" lon="-8.6610360">
        <ele>11.3</ele>
        <time>2021-05-23T10:45:03Z</time>
      </trkpt>
      <trkpt lat="42.7376170" lon="-8.6610360">
        <ele>11.3</ele>
        <time>2021-05-23T10:45:04Z</time>
      </trkpt>
      <trkpt lat="42.7376170" lon="-8.6610360">
        <ele>11.3</ele>
        <time>2021-05-23T10:45:05Z</time>
      </trkpt>
      <trkpt lat="42.7376170" lon="-8.6610360">
        <ele>11.3</ele>
        <time>2021-05-23T10:45:06Z</time>
      </trkpt>
      <trkpt lat="42.7376170" lon="-8.6610360">
        <ele>11.3</ele>
        <time>2021-05-23T10:45:07Z</time>
      </trkpt>
      <trkpt lat="42.7376170" lon="-8.6610360">
        <ele>11.3</ele>
        <time>2021-05-23T10:45:08Z</time>
      </trkpt>
      <trkpt lat="42.7376170" lon="-8.6610360">
        <ele>11.3</ele>
        <time>2021-05-23T10:45:09Z</time>
      </trkpt>
      <trkpt lat="42.7376170" lon="-8.6610360">
        <ele>11.3</ele>
        <time>2021-05-23T10:45:10Z</time>
      </trkpt>
      <trkpt lat="42.7376170" lon="-8.6610360">
        <ele>11.3</ele>
        <time>2021-05-23T10:45:11Z</time>
      </trkpt>
      <trkpt lat="42.7376170" lon="-8.6610360">
        <ele>11.3</ele>
        <time>2021-05-23T10:45:12Z</time>
      </trkpt>
      <trkpt lat="42.7376170" lon="-8.6610360">
        <ele>11.3</ele>
        <time>2021-05-23T10:45:13Z</time>
      </trkpt>
      <trkpt lat="42.7376170" lon="-8.6610360">
        <ele>11.3</ele>
        <time>2021-05-23T10:45:14Z</time>
      </trkpt>
      <trkpt lat="42.7376170" lon="-8.6610360">
        <ele>11.3</ele>
        <time>2021-05-23T10:45:15Z</time>
      </trkpt>
      <trkpt lat="42.7376170" lon="-8.6610360">
        <ele>11.3</ele>
        <time>2021-05-23T10:45:16Z</time>
      </trkpt>
      <trkpt lat="42.7376170" lon="-8.6610360">
        <ele>11.3</ele>
        <time>2021-05-23T10:45:17Z</time>
      </trkpt>
      <trkpt lat="42.7376170" lon="-8.6610360">
        <ele>11.3</ele>
        <time>2021-05-23T10:45:18Z</time>
      </trkpt>
      <trkpt lat="42.7376170" lon="-8.6610360">
        <ele>11.3</ele>
        <time>2021-05-23T10:45:19Z</time>
      </trkpt>
      <trkpt lat="42.7376170" lon="-8.6610360">
        <ele>11.3</ele>
        <time>2021-05-23T10:45:20Z</time>
      </trkpt>
      <trkpt lat="42.7376170" lon="-8.6610360">
        <ele>11.3</ele>
        <time>2021-05-23T10:45:21Z</time>
      </trkpt>
      <trkpt lat="42.7376170" lon="-8.6610360">
        <ele>11.3</ele>
        <time>2021-05-23T10:45:22Z</time>
      </trkpt>
      <trkpt lat="42.7376170" lon="-8.6610360">
        <ele>11.3</ele>
        <time>2021-05-23T10:45:23Z</time>
      </trkpt>
      <trkpt lat="42.7376170" lon="-8.6610360">
        <ele>11.3</ele>
        <time>2021-05-23T10:45:24Z</time>
      </trkpt>
      <trkpt lat="42.7376180" lon="-8.6610550">
        <ele>11.3</ele>
        <time>2021-05-23T10:45:25Z</time>
      </trkpt>
      <trkpt lat="42.7376190" lon="-8.6610550">
        <ele>11.3</ele>
        <time>2021-05-23T10:45:26Z</time>
      </trkpt>
      <trkpt lat="42.7376200" lon="-8.6610560">
        <ele>11.3</ele>
        <time>2021-05-23T10:45:27Z</time>
      </trkpt>
      <trkpt lat="42.7376200" lon="-8.6610560">
        <ele>11.3</ele>
        <time>2021-05-23T10:45:28Z</time>
      </trkpt>
      <trkpt lat="42.7376200" lon="-8.6610560">
        <ele>11.3</ele>
        <time>2021-05-23T10:45:29Z</time>
      </trkpt>
      <trkpt lat="42.7376200" lon="-8.6610560">
        <ele>11.3</ele>
        <time>2021-05-23T10:45:30Z</time>
      </trkpt>
      <trkpt lat="42.7376200" lon="-8.6610560">
        <ele>11.3</ele>
        <time>2021-05-23T10:45:31Z</time>
      </trkpt>
      <trkpt lat="42.7376200" lon="-8.6610560">
        <ele>11.3</ele>
        <time>2021-05-23T10:45:32Z</time>
      </trkpt>
      <trkpt lat="42.7376200" lon="-8.6610560">
        <ele>11.3</ele>
        <time>2021-05-23T10:45:33Z</time>
      </trkpt>
      <trkpt lat="42.7376200" lon="-8.6610560">
        <ele>11.3</ele>
        <time>2021-05-23T10:45:34Z</time>
      </trkpt>
      <trkpt lat="42.7376200" lon="-8.6610560">
        <ele>11.3</ele>
        <time>2021-05-23T10:45:35Z</time>
      </trkpt>
      <trkpt lat="42.7376200" lon="-8.6610560">
        <ele>11.3</ele>
        <time>2021-05-23T10:45:36Z</time>
      </trkpt>
      <trkpt lat="42.7376200" lon="-8.6610560">
        <ele>11.3</ele>
        <time>2021-05-23T10:45:37Z</time>
      </trkpt>
      <trkpt lat="42.7376200" lon="-8.6610560">
        <ele>11.3</ele>
        <time>2021-05-23T10:45:38Z</time>
      </trkpt>
      <trkpt lat="42.7376200" lon="-8.6610560">
        <ele>11.3</ele>
        <time>2021-05-23T10:45:39Z</time>
      </trkpt>
      <trkpt lat="42.7376200" lon="-8.6610560">
        <ele>11.3</ele>
        <time>2021-05-23T10:45:40Z</time>
      </trkpt>
      <trkpt lat="42.7376200" lon="-8.6610560">
        <ele>11.3</ele>
        <time>2021-05-23T10:45:41Z</time>
      </trkpt>
      <trkpt lat="42.7376200" lon="-8.6610560">
        <ele>11.3</ele>
        <time>2021-05-23T10:45:42Z</time>
      </trkpt>
      <trkpt lat="42.7376200" lon="-8.6610560">
        <ele>11.3</ele>
        <time>2021-05-23T10:45:43Z</time>
      </trkpt>
      <trkpt lat="42.7376200" lon="-8.6610560">
        <ele>11.3</ele>
        <time>2021-05-23T10:45:44Z</time>
      </trkpt>
      <trkpt lat="42.7376200" lon="-8.6610560">
        <ele>11.3</ele>
        <time>2021-05-23T10:45:45Z</time>
      </trkpt>
      <trkpt lat="42.7376200" lon="-8.6610560">
        <ele>11.3</ele>
        <time>2021-05-23T10:45:46Z</time>
      </trkpt>
      <trkpt lat="42.7376200" lon="-8.6610560">
        <ele>11.3</ele>
        <time>2021-05-23T10:45:47Z</time>
      </trkpt>
      <trkpt lat="42.7376200" lon="-8.6610560">
        <ele>11.3</ele>
        <time>2021-05-23T10:45:48Z</time>
      </trkpt>
      <trkpt lat="42.7376200" lon="-8.6610560">
        <ele>11.3</ele>
        <time>2021-05-23T10:45:49Z</time>
      </trkpt>
      <trkpt lat="42.7376200" lon="-8.6610560">
        <ele>11.3</ele>
        <time>2021-05-23T10:45:50Z</time>
      </trkpt>
      <trkpt lat="42.7376200" lon="-8.6610560">
        <ele>11.3</ele>
        <time>2021-05-23T10:45:51Z</time>
      </trkpt>
      <trkpt lat="42.7376200" lon="-8.6610560">
        <ele>11.3</ele>
        <time>2021-05-23T10:45:52Z</time>
      </trkpt>
      <trkpt lat="42.7376200" lon="-8.6610560">
        <ele>11.3</ele>
        <time>2021-05-23T10:45:53Z</time>
      </trkpt>
      <trkpt lat="42.7376120" lon="-8.6610580">
        <ele>11.3</ele>
        <time>2021-05-23T10:45:54Z</time>
      </trkpt>
      <trkpt lat="42.7376130" lon="-8.6610590">
        <ele>11.3</ele>
        <time>2021-05-23T10:45:55Z</time>
      </trkpt>
      <trkpt lat="42.7376140" lon="-8.6610590">
        <ele>11.3</ele>
        <time>2021-05-23T10:45:56Z</time>
      </trkpt>
      <trkpt lat="42.7376170" lon="-8.6610590">
        <ele>11.3</ele>
        <time>2021-05-23T10:45:57Z</time>
      </trkpt>
      <trkpt lat="42.7376180" lon="-8.6610550">
        <ele>11.3</ele>
        <time>2021-05-23T10:45:58Z</time>
      </trkpt>
      <trkpt lat="42.7376160" lon="-8.6610540">
        <ele>11.3</ele>
        <time>2021-05-23T10:45:59Z</time>
      </trkpt>
      <trkpt lat="42.7376230" lon="-8.6610570">
        <ele>11.3</ele>
        <time>2021-05-23T10:46:00Z</time>
      </trkpt>
      <trkpt lat="42.7376220" lon="-8.6610560">
        <ele>11.3</ele>
        <time>2021-05-23T10:46:01Z</time>
      </trkpt>
      <trkpt lat="42.7376210" lon="-8.6610500">
        <ele>11.3</ele>
        <time>2021-05-23T10:46:02Z</time>
      </trkpt>
      <trkpt lat="42.7376200" lon="-8.6610460">
        <ele>11.3</ele>
        <time>2021-05-23T10:46:03Z</time>
      </trkpt>
      <trkpt lat="42.7376210" lon="-8.6610450">
        <ele>11.3</ele>
        <time>2021-05-23T10:46:04Z</time>
      </trkpt>
      <trkpt lat="42.7376210" lon="-8.6610450">
        <ele>11.3</ele>
        <time>2021-05-23T10:46:05Z</time>
      </trkpt>
      <trkpt lat="42.7376200" lon="-8.6610410">
        <ele>11.3</ele>
        <time>2021-05-23T10:46:06Z</time>
      </trkpt>
      <trkpt lat="42.7376180" lon="-8.6610360">
        <ele>11.3</ele>
        <time>2021-05-23T10:46:07Z</time>
      </trkpt>
      <trkpt lat="42.7376180" lon="-8.6610410">
        <ele>11.3</ele>
        <time>2021-05-23T10:46:08Z</time>
      </trkpt>
      <trkpt lat="42.7376160" lon="-8.6610360">
        <ele>11.3</ele>
        <time>2021-05-23T10:46:09Z</time>
      </trkpt>
      <trkpt lat="42.7376200" lon="-8.6610380">
        <ele>11.3</ele>
        <time>2021-05-23T10:46:10Z</time>
      </trkpt>
      <trkpt lat="42.7376180" lon="-8.6610460">
        <ele>11.3</ele>
        <time>2021-05-23T10:46:11Z</time>
      </trkpt>
      <trkpt lat="42.7376220" lon="-8.6610560">
        <ele>11.3</ele>
        <time>2021-05-23T10:46:12Z</time>
      </trkpt>
      <trkpt lat="42.7376240" lon="-8.6610630">
        <ele>11.3</ele>
        <time>2021-05-23T10:46:13Z</time>
      </trkpt>
      <trkpt lat="42.7376200" lon="-8.6610710">
        <ele>11.3</ele>
        <time>2021-05-23T10:46:14Z</time>
      </trkpt>
      <trkpt lat="42.7376270" lon="-8.6610570">
        <ele>11.3</ele>
        <time>2021-05-23T10:46:15Z</time>
      </trkpt>
      <trkpt lat="42.7376250" lon="-8.6610500">
        <ele>11.3</ele>
        <time>2021-05-23T10:46:16Z</time>
      </trkpt>
      <trkpt lat="42.7376280" lon="-8.6610480">
        <ele>11.3</ele>
        <time>2021-05-23T10:46:17Z</time>
      </trkpt>
      <trkpt lat="42.7376270" lon="-8.6610480">
        <ele>11.3</ele>
        <time>2021-05-23T10:46:18Z</time>
      </trkpt>
      <trkpt lat="42.7376250" lon="-8.6610400">
        <ele>11.3</ele>
        <time>2021-05-23T10:46:19Z</time>
      </trkpt>
      <trkpt lat="42.7376260" lon="-8.6610380">
        <ele>11.3</ele>
        <time>2021-05-23T10:46:20Z</time>
      </trkpt>
      <trkpt lat="42.7376240" lon="-8.6610360">
        <ele>11.3</ele>
        <time>2021-05-23T10:46:21Z</time>
      </trkpt>
      <trkpt lat="42.7376240" lon="-8.6610360">
        <ele>11.3</ele>
        <time>2021-05-23T10:46:22Z</time>
      </trkpt>
      <trkpt lat="42.7376280" lon="-8.6610320">
        <ele>11.3</ele>
        <time>2021-05-23T10:46:23Z</time>
      </trkpt>
      <trkpt lat="42.7376260" lon="-8.6610320">
        <ele>11.3</ele>
        <time>2021-05-23T10:46:24Z</time>
      </trkpt>
      <trkpt lat="42.7376320" lon="-8.6610330">
        <ele>11.3</ele>
        <time>2021-05-23T10:46:25Z</time>
      </trkpt>
      <trkpt lat="42.7376320" lon="-8.6610330">
        <ele>11.3</ele>
        <time>2021-05-23T10:46:26Z</time>
      </trkpt>
      <trkpt lat="42.7376330" lon="-8.6610400">
        <ele>11.3</ele>
        <time>2021-05-23T10:46:27Z</time>
      </trkpt>
      <trkpt lat="42.7376290" lon="-8.6610360">
        <ele>11.3</ele>
        <time>2021-05-23T10:46:28Z</time>
      </trkpt>
      <trkpt lat="42.7376310" lon="-8.6610270">
        <ele>11.3</ele>
        <time>2021-05-23T10:46:29Z</time>
      </trkpt>
      <trkpt lat="42.7376340" lon="-8.6610180">
        <ele>11.3</ele>
        <time>2021-05-23T10:46:30Z</time>
      </trkpt>
      <trkpt lat="42.7376360" lon="-8.6610210">
        <ele>11.3</ele>
        <time>2021-05-23T10:46:31Z</time>
      </trkpt>
      <trkpt lat="42.7376380" lon="-8.6610220">
        <ele>11.3</ele>
        <time>2021-05-23T10:46:32Z</time>
      </trkpt>
      <trkpt lat="42.7376380" lon="-8.6610190">
        <ele>11.3</ele>
        <time>2021-05-23T10:46:33Z</time>
      </trkpt>
      <trkpt lat="42.7376370" lon="-8.6610160">
        <ele>11.3</ele>
        <time>2021-05-23T10:46:34Z</time>
      </trkpt>
      <trkpt lat="42.7376330" lon="-8.6610080">
        <ele>11.3</ele>
        <time>2021-05-23T10:46:35Z</time>
      </trkpt>
      <trkpt lat="42.7376330" lon="-8.6610010">
        <ele>11.3</ele>
        <time>2021-05-23T10:46:36Z</time>
      </trkpt>
      <trkpt lat="42.7376330" lon="-8.6610030">
        <ele>11.3</ele>
        <time>2021-05-23T10:46:37Z</time>
      </trkpt>
      <trkpt lat="42.7376320" lon="-8.6610040">
        <ele>11.3</ele>
        <time>2021-05-23T10:46:38Z</time>
      </trkpt>
      <trkpt lat="42.7376300" lon="-8.6610000">
        <ele>11.3</ele>
        <time>2021-05-23T10:46:39Z</time>
      </trkpt>
      <trkpt lat="42.7376280" lon="-8.6610010">
        <ele>11.3</ele>
        <time>2021-05-23T10:46:40Z</time>
      </trkpt>
      <trkpt lat="42.7376260" lon="-8.6610000">
        <ele>11.3</ele>
        <time>2021-05-23T10:46:41Z</time>
      </trkpt>
      <trkpt lat="42.7376230" lon="-8.6610020">
        <ele>11.3</ele>
        <time>2021-05-23T10:46:42Z</time>
      </trkpt>
      <trkpt lat="42.7376240" lon="-8.6610040">
        <ele>11.3</ele>
        <time>2021-05-23T10:46:43Z</time>
      </trkpt>
      <trkpt lat="42.7376200" lon="-8.6609990">
        <ele>11.3</ele>
        <time>2021-05-23T10:46:44Z</time>
      </trkpt>
      <trkpt lat="42.7376200" lon="-8.6610010">
        <ele>11.3</ele>
        <time>2021-05-23T10:46:45Z</time>
      </trkpt>
      <trkpt lat="42.7376180" lon="-8.6609920">
        <ele>11.3</ele>
        <time>2021-05-23T10:46:46Z</time>
      </trkpt>
      <trkpt lat="42.7376170" lon="-8.6609910">
        <ele>11.3</ele>
        <time>2021-05-23T10:46:47Z</time>
      </trkpt>
      <trkpt lat="42.7376180" lon="-8.6609950">
        <ele>11.3</ele>
        <time>2021-05-23T10:46:48Z</time>
      </trkpt>
      <trkpt lat="42.7376170" lon="-8.6610010">
        <ele>11.3</ele>
        <time>2021-05-23T10:46:49Z</time>
      </trkpt>
      <trkpt lat="42.7376180" lon="-8.6610020">
        <ele>11.3</ele>
        <time>2021-05-23T10:46:50Z</time>
      </trkpt>
      <trkpt lat="42.7376170" lon="-8.6609990">
        <ele>11.3</ele>
        <time>2021-05-23T10:46:51Z</time>
      </trkpt>
      <trkpt lat="42.7376190" lon="-8.6610010">
        <ele>11.3</ele>
        <time>2021-05-23T10:46:52Z</time>
      </trkpt>
      <trkpt lat="42.7376190" lon="-8.6609980">
        <ele>11.3</ele>
        <time>2021-05-23T10:46:53Z</time>
      </trkpt>
      <trkpt lat="42.7376220" lon="-8.6610030">
        <ele>11.3</ele>
        <time>2021-05-23T10:46:54Z</time>
      </trkpt>
      <trkpt lat="42.7376230" lon="-8.6610080">
        <ele>11.3</ele>
        <time>2021-05-23T10:46:55Z</time>
      </trkpt>
      <trkpt lat="42.7376230" lon="-8.6610040">
        <ele>11.3</ele>
        <time>2021-05-23T10:46:56Z</time>
      </trkpt>
      <trkpt lat="42.7376230" lon="-8.6609940">
        <ele>11.3</ele>
        <time>2021-05-23T10:46:57Z</time>
      </trkpt>
      <trkpt lat="42.7376230" lon="-8.6609880">
        <ele>11.3</ele>
        <time>2021-05-23T10:46:58Z</time>
      </trkpt>
      <trkpt lat="42.7376230" lon="-8.6609900">
        <ele>11.3</ele>
        <time>2021-05-23T10:46:59Z</time>
      </trkpt>
      <trkpt lat="42.7376230" lon="-8.6609960">
        <ele>11.3</ele>
        <time>2021-05-23T10:47:00Z</time>
      </trkpt>
      <trkpt lat="42.7376280" lon="-8.6609930">
        <ele>11.3</ele>
        <time>2021-05-23T10:47:01Z</time>
      </trkpt>
      <trkpt lat="42.7376270" lon="-8.6609870">
        <ele>11.3</ele>
        <time>2021-05-23T10:47:02Z</time>
      </trkpt>
      <trkpt lat="42.7376280" lon="-8.6609820">
        <ele>11.3</ele>
        <time>2021-05-23T10:47:03Z</time>
      </trkpt>
      <trkpt lat="42.7376290" lon="-8.6609870">
        <ele>11.3</ele>
        <time>2021-05-23T10:47:04Z</time>
      </trkpt>
      <trkpt lat="42.7376300" lon="-8.6609800">
        <ele>11.3</ele>
        <time>2021-05-23T10:47:05Z</time>
      </trkpt>
      <trkpt lat="42.7376310" lon="-8.6609820">
        <ele>11.3</ele>
        <time>2021-05-23T10:47:06Z</time>
      </trkpt>
      <trkpt lat="42.7376300" lon="-8.6609790">
        <ele>11.3</ele>
        <time>2021-05-23T10:47:07Z</time>
      </trkpt>
      <trkpt lat="42.7376290" lon="-8.6609810">
        <ele>11.3</ele>
        <time>2021-05-23T10:47:08Z</time>
      </trkpt>
      <trkpt lat="42.7376290" lon="-8.6609910">
        <ele>11.3</ele>
        <time>2021-05-23T10:47:09Z</time>
      </trkpt>
      <trkpt lat="42.7376270" lon="-8.6609890">
        <ele>11.3</ele>
        <time>2021-05-23T10:47:10Z</time>
      </trkpt>
      <trkpt lat="42.7376260" lon="-8.6609890">
        <ele>11.3</ele>
        <time>2021-05-23T10:47:11Z</time>
      </trkpt>
      <trkpt lat="42.7376270" lon="-8.6609850">
        <ele>11.3</ele>
        <time>2021-05-23T10:47:12Z</time>
      </trkpt>
      <trkpt lat="42.7376290" lon="-8.6609900">
        <ele>11.3</ele>
        <time>2021-05-23T10:47:13Z</time>
      </trkpt>
      <trkpt lat="42.7376330" lon="-8.6609890">
        <ele>11.3</ele>
        <time>2021-05-23T10:47:14Z</time>
      </trkpt>
      <trkpt lat="42.7376340" lon="-8.6609910">
        <ele>11.3</ele>
        <time>2021-05-23T10:47:15Z</time>
      </trkpt>
      <trkpt lat="42.7376340" lon="-8.6609910">
        <ele>11.3</ele>
        <time>2021-05-23T10:47:16Z</time>
      </trkpt>
      <trkpt lat="42.7376400" lon="-8.6610060">
        <ele>11.3</ele>
        <time>2021-05-23T10:47:17Z</time>
      </trkpt>
      <trkpt lat="42.7376380" lon="-8.6610050">
        <ele>11.3</ele>
        <time>2021-05-23T10:47:18Z</time>
      </trkpt>
      <trkpt lat="42.7376390" lon="-8.6610120">
        <ele>11.3</ele>
        <time>2021-05-23T10:47:19Z</time>
      </trkpt>
      <trkpt lat="42.7376360" lon="-8.6610060">
        <ele>11.3</ele>
        <time>2021-05-23T10:47:20Z</time>
      </trkpt>
      <trkpt lat="42.7376360" lon="-8.6610100">
        <ele>11.3</ele>
        <time>2021-05-23T10:47:21Z</time>
      </trkpt>
      <trkpt lat="42.7376340" lon="-8.6610130">
        <ele>11.3</ele>
        <time>2021-05-23T10:47:22Z</time>
      </trkpt>
      <trkpt lat="42.7376330" lon="-8.6610190">
        <ele>11.3</ele>
        <time>2021-05-23T10:47:23Z</time>
      </trkpt>
      <trkpt lat="42.7376320" lon="-8.6610210">
        <ele>11.3</ele>
        <time>2021-05-23T10:47:24Z</time>
      </trkpt>
      <trkpt lat="42.7376310" lon="-8.6610150">
        <ele>11.3</ele>
        <time>2021-05-23T10:47:25Z</time>
      </trkpt>
      <trkpt lat="42.7376320" lon="-8.6610130">
        <ele>11.3</ele>
        <time>2021-05-23T10:47:26Z</time>
      </trkpt>
      <trkpt lat="42.7376330" lon="-8.6610180">
        <ele>11.3</ele>
        <time>2021-05-23T10:47:27Z</time>
      </trkpt>
      <trkpt lat="42.7376320" lon="-8.6610170">
        <ele>11.3</ele>
        <time>2021-05-23T10:47:28Z</time>
      </trkpt>
      <trkpt lat="42.7376320" lon="-8.6610180">
        <ele>11.3</ele>
        <time>2021-05-23T10:47:30Z</time>
      </trkpt>
      <trkpt lat="42.7376310" lon="-8.6610160">
        <ele>11.3</ele>
        <time>2021-05-23T10:47:31Z</time>
      </trkpt>
      <trkpt lat="42.7376320" lon="-8.6610220">
        <ele>11.3</ele>
        <time>2021-05-23T10:47:32Z</time>
      </trkpt>
      <trkpt lat="42.7376320" lon="-8.6610230">
        <ele>11.3</ele>
        <time>2021-05-23T10:47:33Z</time>
      </trkpt>
      <trkpt lat="42.7376280" lon="-8.6610230">
        <ele>11.3</ele>
        <time>2021-05-23T10:47:34Z</time>
      </trkpt>
      <trkpt lat="42.7376280" lon="-8.6610220">
        <ele>11.3</ele>
        <time>2021-05-23T10:47:35Z</time>
      </trkpt>
      <trkpt lat="42.7376270" lon="-8.6610180">
        <ele>11.3</ele>
        <time>2021-05-23T10:47:36Z</time>
      </trkpt>
      <trkpt lat="42.7376280" lon="-8.6610180">
        <ele>11.3</ele>
        <time>2021-05-23T10:47:37Z</time>
      </trkpt>
      <trkpt lat="42.7376300" lon="-8.6610160">
        <ele>11.3</ele>
        <time>2021-05-23T10:47:38Z</time>
      </trkpt>
      <trkpt lat="42.7376300" lon="-8.6610150">
        <ele>11.3</ele>
        <time>2021-05-23T10:47:39Z</time>
      </trkpt>
      <trkpt lat="42.7376300" lon="-8.6610190">
        <ele>11.3</ele>
        <time>2021-05-23T10:47:40Z</time>
      </trkpt>
      <trkpt lat="42.7376300" lon="-8.6610190">
        <ele>11.3</ele>
        <time>2021-05-23T10:47:41Z</time>
      </trkpt>
      <trkpt lat="42.7376290" lon="-8.6610310">
        <ele>11.3</ele>
        <time>2021-05-23T10:47:42Z</time>
      </trkpt>
      <trkpt lat="42.7376290" lon="-8.6610310">
        <ele>11.3</ele>
        <time>2021-05-23T10:47:43Z</time>
      </trkpt>
      <trkpt lat="42.7376320" lon="-8.6610260">
        <ele>11.3</ele>
        <time>2021-05-23T10:47:44Z</time>
      </trkpt>
      <trkpt lat="42.7376330" lon="-8.6610270">
        <ele>11.3</ele>
        <time>2021-05-23T10:47:45Z</time>
      </trkpt>
      <trkpt lat="42.7376360" lon="-8.6610320">
        <ele>11.3</ele>
        <time>2021-05-23T10:47:46Z</time>
      </trkpt>
      <trkpt lat="42.7376360" lon="-8.6610310">
        <ele>11.3</ele>
        <time>2021-05-23T10:47:47Z</time>
      </trkpt>
      <trkpt lat="42.7376360" lon="-8.6610350">
        <ele>11.3</ele>
        <time>2021-05-23T10:47:48Z</time>
      </trkpt>
      <trkpt lat="42.7376410" lon="-8.6610350">
        <ele>11.3</ele>
        <time>2021-05-23T10:47:49Z</time>
      </trkpt>
      <trkpt lat="42.7376410" lon="-8.6610440">
        <ele>11.3</ele>
        <time>2021-05-23T10:47:50Z</time>
      </trkpt>
      <trkpt lat="42.7376370" lon="-8.6610440">
        <ele>11.3</ele>
        <time>2021-05-23T10:47:51Z</time>
      </trkpt>
      <trkpt lat="42.7376380" lon="-8.6610380">
        <ele>11.3</ele>
        <time>2021-05-23T10:47:52Z</time>
      </trkpt>
      <trkpt lat="42.7376410" lon="-8.6610340">
        <ele>11.3</ele>
        <time>2021-05-23T10:47:53Z</time>
      </trkpt>
      <trkpt lat="42.7376440" lon="-8.6610390">
        <ele>11.3</ele>
        <time>2021-05-23T10:47:54Z</time>
      </trkpt>
      <trkpt lat="42.7376430" lon="-8.6610390">
        <ele>11.3</ele>
        <time>2021-05-23T10:47:55Z</time>
      </trkpt>
      <trkpt lat="42.7376460" lon="-8.6610450">
        <ele>11.3</ele>
        <time>2021-05-23T10:47:56Z</time>
      </trkpt>
      <trkpt lat="42.7376450" lon="-8.6610420">
        <ele>11.3</ele>
        <time>2021-05-23T10:47:57Z</time>
      </trkpt>
      <trkpt lat="42.7376450" lon="-8.6610430">
        <ele>11.3</ele>
        <time>2021-05-23T10:47:58Z</time>
      </trkpt>
      <trkpt lat="42.7376480" lon="-8.6610420">
        <ele>11.3</ele>
        <time>2021-05-23T10:47:59Z</time>
      </trkpt>
      <trkpt lat="42.7376480" lon="-8.6610420">
        <ele>11.3</ele>
        <time>2021-05-23T10:48:00Z</time>
      </trkpt>
      <trkpt lat="42.7376550" lon="-8.6610430">
        <ele>11.3</ele>
        <time>2021-05-23T10:48:01Z</time>
      </trkpt>
      <trkpt lat="42.7376550" lon="-8.6610410">
        <ele>11.3</ele>
        <time>2021-05-23T10:48:02Z</time>
      </trkpt>
      <trkpt lat="42.7376570" lon="-8.6610290">
        <ele>11.3</ele>
        <time>2021-05-23T10:48:03Z</time>
      </trkpt>
      <trkpt lat="42.7376540" lon="-8.6610260">
        <ele>11.3</ele>
        <time>2021-05-23T10:48:04Z</time>
      </trkpt>
      <trkpt lat="42.7376510" lon="-8.6610290">
        <ele>11.3</ele>
        <time>2021-05-23T10:48:05Z</time>
      </trkpt>
      <trkpt lat="42.7376540" lon="-8.6610270">
        <ele>11.3</ele>
        <time>2021-05-23T10:48:06Z</time>
      </trkpt>
      <trkpt lat="42.7376540" lon="-8.6610270">
        <ele>11.3</ele>
        <time>2021-05-23T10:48:07Z</time>
      </trkpt>
      <trkpt lat="42.7376540" lon="-8.6610270">
        <ele>11.3</ele>
        <time>2021-05-23T10:48:08Z</time>
      </trkpt>
      <trkpt lat="42.7376610" lon="-8.6610290">
        <ele>11.3</ele>
        <time>2021-05-23T10:48:09Z</time>
      </trkpt>
      <trkpt lat="42.7376680" lon="-8.6610320">
        <ele>11.3</ele>
        <time>2021-05-23T10:48:10Z</time>
      </trkpt>
      <trkpt lat="42.7376690" lon="-8.6610370">
        <ele>11.3</ele>
        <time>2021-05-23T10:48:11Z</time>
      </trkpt>
      <trkpt lat="42.7376660" lon="-8.6610390">
        <ele>11.3</ele>
        <time>2021-05-23T10:48:12Z</time>
      </trkpt>
      <trkpt lat="42.7376630" lon="-8.6610400">
        <ele>11.3</ele>
        <time>2021-05-23T10:48:13Z</time>
      </trkpt>
      <trkpt lat="42.7376630" lon="-8.6610430">
        <ele>11.3</ele>
        <time>2021-05-23T10:48:14Z</time>
      </trkpt>
      <trkpt lat="42.7376600" lon="-8.6610370">
        <ele>11.3</ele>
        <time>2021-05-23T10:48:15Z</time>
      </trkpt>
      <trkpt lat="42.7376550" lon="-8.6610430">
        <ele>11.3</ele>
        <time>2021-05-23T10:48:16Z</time>
      </trkpt>
      <trkpt lat="42.7376430" lon="-8.6610370">
        <ele>11.3</ele>
        <time>2021-05-23T10:48:17Z</time>
      </trkpt>
      <trkpt lat="42.7376430" lon="-8.6610360">
        <ele>11.3</ele>
        <time>2021-05-23T10:48:18Z</time>
      </trkpt>
      <trkpt lat="42.7376430" lon="-8.6610360">
        <ele>11.3</ele>
        <time>2021-05-23T10:48:19Z</time>
      </trkpt>
      <trkpt lat="42.7376430" lon="-8.6610360">
        <ele>11.3</ele>
        <time>2021-05-23T10:48:20Z</time>
      </trkpt>
      <trkpt lat="42.7376430" lon="-8.6610360">
        <ele>11.3</ele>
        <time>2021-05-23T10:48:21Z</time>
      </trkpt>
      <trkpt lat="42.7376430" lon="-8.6610360">
        <ele>11.3</ele>
        <time>2021-05-23T10:48:22Z</time>
      </trkpt>
      <trkpt lat="42.7376430" lon="-8.6610360">
        <ele>11.3</ele>
        <time>2021-05-23T10:48:23Z</time>
      </trkpt>
      <trkpt lat="42.7376430" lon="-8.6610360">
        <ele>11.3</ele>
        <time>2021-05-23T10:48:24Z</time>
      </trkpt>
      <trkpt lat="42.7376430" lon="-8.6610360">
        <ele>11.3</ele>
        <time>2021-05-23T10:48:25Z</time>
      </trkpt>
      <trkpt lat="42.7376430" lon="-8.6610360">
        <ele>11.3</ele>
        <time>2021-05-23T10:48:26Z</time>
      </trkpt>
      <trkpt lat="42.7376430" lon="-8.6610360">
        <ele>11.3</ele>
        <time>2021-05-23T10:48:27Z</time>
      </trkpt>
      <trkpt lat="42.7376430" lon="-8.6610360">
        <ele>11.3</ele>
        <time>2021-05-23T10:48:28Z</time>
      </trkpt>
      <trkpt lat="42.7376430" lon="-8.6610360">
        <ele>11.3</ele>
        <time>2021-05-23T10:48:29Z</time>
      </trkpt>
      <trkpt lat="42.7376430" lon="-8.6610360">
        <ele>11.3</ele>
        <time>2021-05-23T10:48:30Z</time>
      </trkpt>
      <trkpt lat="42.7376430" lon="-8.6610360">
        <ele>11.3</ele>
        <time>2021-05-23T10:48:31Z</time>
      </trkpt>
      <trkpt lat="42.7376430" lon="-8.6610360">
        <ele>11.3</ele>
        <time>2021-05-23T10:48:32Z</time>
      </trkpt>
      <trkpt lat="42.7376430" lon="-8.6610360">
        <ele>11.3</ele>
        <time>2021-05-23T10:48:33Z</time>
      </trkpt>
      <trkpt lat="42.7376430" lon="-8.6610360">
        <ele>11.3</ele>
        <time>2021-05-23T10:48:34Z</time>
      </trkpt>
      <trkpt lat="42.7376430" lon="-8.6610360">
        <ele>11.3</ele>
        <time>2021-05-23T10:48:35Z</time>
      </trkpt>
      <trkpt lat="42.7376430" lon="-8.6610360">
        <ele>11.3</ele>
        <time>2021-05-23T10:48:36Z</time>
      </trkpt>
      <trkpt lat="42.7376430" lon="-8.6610360">
        <ele>11.3</ele>
        <time>2021-05-23T10:48:37Z</time>
      </trkpt>
      <trkpt lat="42.7376430" lon="-8.6610360">
        <ele>11.3</ele>
        <time>2021-05-23T10:48:38Z</time>
      </trkpt>
      <trkpt lat="42.7376430" lon="-8.6610360">
        <ele>11.3</ele>
        <time>2021-05-23T10:48:39Z</time>
      </trkpt>
      <trkpt lat="42.7376430" lon="-8.6610360">
        <ele>11.3</ele>
        <time>2021-05-23T10:48:40Z</time>
      </trkpt>
      <trkpt lat="42.7376430" lon="-8.6610360">
        <ele>11.3</ele>
        <time>2021-05-23T10:48:41Z</time>
      </trkpt>
      <trkpt lat="42.7376430" lon="-8.6610360">
        <ele>11.3</ele>
        <time>2021-05-23T10:48:42Z</time>
      </trkpt>
      <trkpt lat="42.7376430" lon="-8.6610360">
        <ele>11.3</ele>
        <time>2021-05-23T10:48:43Z</time>
      </trkpt>
      <trkpt lat="42.7376430" lon="-8.6610360">
        <ele>11.3</ele>
        <time>2021-05-23T10:48:44Z</time>
      </trkpt>
      <trkpt lat="42.7376430" lon="-8.6610360">
        <ele>11.3</ele>
        <time>2021-05-23T10:48:45Z</time>
      </trkpt>
      <trkpt lat="42.7376430" lon="-8.6610360">
        <ele>11.3</ele>
        <time>2021-05-23T10:48:46Z</time>
      </trkpt>
      <trkpt lat="42.7376430" lon="-8.6610360">
        <ele>11.3</ele>
        <time>2021-05-23T10:48:47Z</time>
      </trkpt>
      <trkpt lat="42.7376430" lon="-8.6610360">
        <ele>11.3</ele>
        <time>2021-05-23T10:48:48Z</time>
      </trkpt>
      <trkpt lat="42.7376430" lon="-8.6610360">
        <ele>11.3</ele>
        <time>2021-05-23T10:48:49Z</time>
      </trkpt>
      <trkpt lat="42.7376430" lon="-8.6610360">
        <ele>11.3</ele>
        <time>2021-05-23T10:48:50Z</time>
      </trkpt>
      <trkpt lat="42.7376430" lon="-8.6610360">
        <ele>11.3</ele>
        <time>2021-05-23T10:48:51Z</time>
      </trkpt>
      <trkpt lat="42.7376430" lon="-8.6610360">
        <ele>11.3</ele>
        <time>2021-05-23T10:48:52Z</time>
      </trkpt>
      <trkpt lat="42.7376430" lon="-8.6610360">
        <ele>11.3</ele>
        <time>2021-05-23T10:48:53Z</time>
      </trkpt>
      <trkpt lat="42.7376430" lon="-8.6610360">
        <ele>11.3</ele>
        <time>2021-05-23T10:48:54Z</time>
      </trkpt>
      <trkpt lat="42.7376440" lon="-8.6610020">
        <ele>11.3</ele>
        <time>2021-05-23T10:48:55Z</time>
      </trkpt>
      <trkpt lat="42.7376440" lon="-8.6610010">
        <ele>11.3</ele>
        <time>2021-05-23T10:48:56Z</time>
      </trkpt>
      <trkpt lat="42.7376440" lon="-8.6610010">
        <ele>11.3</ele>
        <time>2021-05-23T10:48:57Z</time>
      </trkpt>
      <trkpt lat="42.7376440" lon="-8.6610010">
        <ele>11.3</ele>
        <time>2021-05-23T10:48:58Z</time>
      </trkpt>
      <trkpt lat="42.7376440" lon="-8.6610010">
        <ele>11.3</ele>
        <time>2021-05-23T10:48:59Z</time>
      </trkpt>
      <trkpt lat="42.7376440" lon="-8.6610010">
        <ele>11.3</ele>
        <time>2021-05-23T10:49:00Z</time>
      </trkpt>
      <trkpt lat="42.7376440" lon="-8.6610010">
        <ele>11.3</ele>
        <time>2021-05-23T10:49:01Z</time>
      </trkpt>
      <trkpt lat="42.7376440" lon="-8.6610010">
        <ele>11.3</ele>
        <time>2021-05-23T10:49:02Z</time>
      </trkpt>
      <trkpt lat="42.7376440" lon="-8.6610010">
        <ele>11.3</ele>
        <time>2021-05-23T10:49:03Z</time>
      </trkpt>
      <trkpt lat="42.7376440" lon="-8.6610010">
        <ele>11.3</ele>
        <time>2021-05-23T10:49:04Z</time>
      </trkpt>
      <trkpt lat="42.7376440" lon="-8.6610010">
        <ele>11.3</ele>
        <time>2021-05-23T10:49:05Z</time>
      </trkpt>
      <trkpt lat="42.7376440" lon="-8.6610010">
        <ele>11.3</ele>
        <time>2021-05-23T10:49:06Z</time>
      </trkpt>
      <trkpt lat="42.7376440" lon="-8.6610010">
        <ele>11.3</ele>
        <time>2021-05-23T10:49:07Z</time>
      </trkpt>
      <trkpt lat="42.7376440" lon="-8.6610010">
        <ele>11.3</ele>
        <time>2021-05-23T10:49:08Z</time>
      </trkpt>
      <trkpt lat="42.7376440" lon="-8.6610010">
        <ele>11.3</ele>
        <time>2021-05-23T10:49:09Z</time>
      </trkpt>
      <trkpt lat="42.7376440" lon="-8.6610010">
        <ele>11.3</ele>
        <time>2021-05-23T10:49:10Z</time>
      </trkpt>
      <trkpt lat="42.7376440" lon="-8.6610010">
        <ele>11.3</ele>
        <time>2021-05-23T10:49:11Z</time>
      </trkpt>
      <trkpt lat="42.7376340" lon="-8.6609990">
        <ele>11.3</ele>
        <time>2021-05-23T10:49:12Z</time>
      </trkpt>
      <trkpt lat="42.7376340" lon="-8.6609990">
        <ele>11.3</ele>
        <time>2021-05-23T10:49:13Z</time>
      </trkpt>
      <trkpt lat="42.7376340" lon="-8.6609990">
        <ele>11.3</ele>
        <time>2021-05-23T10:49:14Z</time>
      </trkpt>
      <trkpt lat="42.7376340" lon="-8.6609990">
        <ele>11.3</ele>
        <time>2021-05-23T10:49:15Z</time>
      </trkpt>
      <trkpt lat="42.7376360" lon="-8.6610030">
        <ele>11.3</ele>
        <time>2021-05-23T10:49:16Z</time>
      </trkpt>
      <trkpt lat="42.7376340" lon="-8.6610030">
        <ele>11.3</ele>
        <time>2021-05-23T10:49:17Z</time>
      </trkpt>
      <trkpt lat="42.7376330" lon="-8.6610020">
        <ele>11.3</ele>
        <time>2021-05-23T10:49:18Z</time>
      </trkpt>
      <trkpt lat="42.7376330" lon="-8.6610010">
        <ele>11.3</ele>
        <time>2021-05-23T10:49:19Z</time>
      </trkpt>
      <trkpt lat="42.7376330" lon="-8.6610010">
        <ele>11.3</ele>
        <time>2021-05-23T10:49:20Z</time>
      </trkpt>
      <trkpt lat="42.7376330" lon="-8.6610010">
        <ele>11.3</ele>
        <time>2021-05-23T10:49:21Z</time>
      </trkpt>
      <trkpt lat="42.7376330" lon="-8.6610010">
        <ele>11.3</ele>
        <time>2021-05-23T10:49:22Z</time>
      </trkpt>
      <trkpt lat="42.7376330" lon="-8.6610010">
        <ele>11.3</ele>
        <time>2021-05-23T10:49:23Z</time>
      </trkpt>
      <trkpt lat="42.7376330" lon="-8.6610010">
        <ele>11.3</ele>
        <time>2021-05-23T10:49:24Z</time>
      </trkpt>
      <trkpt lat="42.7376330" lon="-8.6610010">
        <ele>11.3</ele>
        <time>2021-05-23T10:49:25Z</time>
      </trkpt>
      <trkpt lat="42.7376330" lon="-8.6610010">
        <ele>11.3</ele>
        <time>2021-05-23T10:49:26Z</time>
      </trkpt>
      <trkpt lat="42.7376330" lon="-8.6610010">
        <ele>11.3</ele>
        <time>2021-05-23T10:49:27Z</time>
      </trkpt>
      <trkpt lat="42.7376330" lon="-8.6610010">
        <ele>11.3</ele>
        <time>2021-05-23T10:49:28Z</time>
      </trkpt>
      <trkpt lat="42.7376330" lon="-8.6610010">
        <ele>11.3</ele>
        <time>2021-05-23T10:49:29Z</time>
      </trkpt>
      <trkpt lat="42.7376330" lon="-8.6610010">
        <ele>11.3</ele>
        <time>2021-05-23T10:49:30Z</time>
      </trkpt>
      <trkpt lat="42.7376330" lon="-8.6610010">
        <ele>11.3</ele>
        <time>2021-05-23T10:49:31Z</time>
      </trkpt>
      <trkpt lat="42.7376330" lon="-8.6610010">
        <ele>11.3</ele>
        <time>2021-05-23T10:49:32Z</time>
      </trkpt>
      <trkpt lat="42.7376330" lon="-8.6610010">
        <ele>11.3</ele>
        <time>2021-05-23T10:49:33Z</time>
      </trkpt>
      <trkpt lat="42.7376330" lon="-8.6610010">
        <ele>11.3</ele>
        <time>2021-05-23T10:49:34Z</time>
      </trkpt>
      <trkpt lat="42.7376330" lon="-8.6610010">
        <ele>11.3</ele>
        <time>2021-05-23T10:49:35Z</time>
      </trkpt>
      <trkpt lat="42.7376330" lon="-8.6610010">
        <ele>11.3</ele>
        <time>2021-05-23T10:49:36Z</time>
      </trkpt>
      <trkpt lat="42.7376330" lon="-8.6610010">
        <ele>11.3</ele>
        <time>2021-05-23T10:49:37Z</time>
      </trkpt>
      <trkpt lat="42.7376160" lon="-8.6610130">
        <ele>11.3</ele>
        <time>2021-05-23T10:49:38Z</time>
      </trkpt>
      <trkpt lat="42.7376160" lon="-8.6610130">
        <ele>11.3</ele>
        <time>2021-05-23T10:49:39Z</time>
      </trkpt>
      <trkpt lat="42.7376160" lon="-8.6610130">
        <ele>11.3</ele>
        <time>2021-05-23T10:49:40Z</time>
      </trkpt>
      <trkpt lat="42.7376160" lon="-8.6610130">
        <ele>11.3</ele>
        <time>2021-05-23T10:49:41Z</time>
      </trkpt>
      <trkpt lat="42.7376160" lon="-8.6610130">
        <ele>11.3</ele>
        <time>2021-05-23T10:49:43Z</time>
      </trkpt>
      <trkpt lat="42.7376160" lon="-8.6610130">
        <ele>11.3</ele>
        <time>2021-05-23T10:49:44Z</time>
      </trkpt>
      <trkpt lat="42.7376160" lon="-8.6610130">
        <ele>11.3</ele>
        <time>2021-05-23T10:49:45Z</time>
      </trkpt>
      <trkpt lat="42.7376160" lon="-8.6610130">
        <ele>11.3</ele>
        <time>2021-05-23T10:49:46Z</time>
      </trkpt>
      <trkpt lat="42.7376160" lon="-8.6610130">
        <ele>11.3</ele>
        <time>2021-05-23T10:49:47Z</time>
      </trkpt>
      <trkpt lat="42.7376160" lon="-8.6610130">
        <ele>11.3</ele>
        <time>2021-05-23T10:49:48Z</time>
      </trkpt>
      <trkpt lat="42.7376160" lon="-8.6610130">
        <ele>11.3</ele>
        <time>2021-05-23T10:49:49Z</time>
      </trkpt>
      <trkpt lat="42.7376160" lon="-8.6610130">
        <ele>11.3</ele>
        <time>2021-05-23T10:49:50Z</time>
      </trkpt>
      <trkpt lat="42.7376160" lon="-8.6610130">
        <ele>11.3</ele>
        <time>2021-05-23T10:49:51Z</time>
      </trkpt>
      <trkpt lat="42.7376160" lon="-8.6610130">
        <ele>11.3</ele>
        <time>2021-05-23T10:49:52Z</time>
      </trkpt>
      <trkpt lat="42.7376160" lon="-8.6610130">
        <ele>11.3</ele>
        <time>2021-05-23T10:49:53Z</time>
      </trkpt>
      <trkpt lat="42.7376160" lon="-8.6610130">
        <ele>11.3</ele>
        <time>2021-05-23T10:49:54Z</time>
      </trkpt>
      <trkpt lat="42.7376160" lon="-8.6610130">
        <ele>11.3</ele>
        <time>2021-05-23T10:49:55Z</time>
      </trkpt>
      <trkpt lat="42.7376160" lon="-8.6610130">
        <ele>11.3</ele>
        <time>2021-05-23T10:49:56Z</time>
      </trkpt>
      <trkpt lat="42.7376160" lon="-8.6610130">
        <ele>11.3</ele>
        <time>2021-05-23T10:49:57Z</time>
      </trkpt>
      <trkpt lat="42.7376160" lon="-8.6610130">
        <ele>11.3</ele>
        <time>2021-05-23T10:49:58Z</time>
      </trkpt>
      <trkpt lat="42.7376160" lon="-8.6610130">
        <ele>11.3</ele>
        <time>2021-05-23T10:49:59Z</time>
      </trkpt>
      <trkpt lat="42.7376160" lon="-8.6610130">
        <ele>11.3</ele>
        <time>2021-05-23T10:50:00Z</time>
      </trkpt>
      <trkpt lat="42.7376180" lon="-8.6610330">
        <ele>11.3</ele>
        <time>2021-05-23T10:50:01Z</time>
      </trkpt>
      <trkpt lat="42.7376180" lon="-8.6610330">
        <ele>11.3</ele>
        <time>2021-05-23T10:50:02Z</time>
      </trkpt>
      <trkpt lat="42.7376180" lon="-8.6610330">
        <ele>11.3</ele>
        <time>2021-05-23T10:50:03Z</time>
      </trkpt>
      <trkpt lat="42.7376180" lon="-8.6610330">
        <ele>11.3</ele>
        <time>2021-05-23T10:50:04Z</time>
      </trkpt>
      <trkpt lat="42.7376180" lon="-8.6610330">
        <ele>11.3</ele>
        <time>2021-05-23T10:50:05Z</time>
      </trkpt>
      <trkpt lat="42.7376180" lon="-8.6610330">
        <ele>11.3</ele>
        <time>2021-05-23T10:50:06Z</time>
      </trkpt>
      <trkpt lat="42.7376220" lon="-8.6610420">
        <ele>11.3</ele>
        <time>2021-05-23T10:50:07Z</time>
      </trkpt>
      <trkpt lat="42.7376280" lon="-8.6610430">
        <ele>11.3</ele>
        <time>2021-05-23T10:50:08Z</time>
      </trkpt>
      <trkpt lat="42.7376270" lon="-8.6610460">
        <ele>11.3</ele>
        <time>2021-05-23T10:50:09Z</time>
      </trkpt>
      <trkpt lat="42.7376240" lon="-8.6610370">
        <ele>11.3</ele>
        <time>2021-05-23T10:50:10Z</time>
      </trkpt>
      <trkpt lat="42.7376220" lon="-8.6610350">
        <ele>11.3</ele>
        <time>2021-05-23T10:50:11Z</time>
      </trkpt>
      <trkpt lat="42.7376210" lon="-8.6610340">
        <ele>11.3</ele>
        <time>2021-05-23T10:50:12Z</time>
      </trkpt>
      <trkpt lat="42.7376220" lon="-8.6610350">
        <ele>11.3</ele>
        <time>2021-05-23T10:50:13Z</time>
      </trkpt>
      <trkpt lat="42.7376250" lon="-8.6610340">
        <ele>11.3</ele>
        <time>2021-05-23T10:50:14Z</time>
      </trkpt>
      <trkpt lat="42.7376250" lon="-8.6610290">
        <ele>11.3</ele>
        <time>2021-05-23T10:50:15Z</time>
      </trkpt>
      <trkpt lat="42.7376250" lon="-8.6610240">
        <ele>11.3</ele>
        <time>2021-05-23T10:50:16Z</time>
      </trkpt>
      <trkpt lat="42.7376280" lon="-8.6610230">
        <ele>11.3</ele>
        <time>2021-05-23T10:50:17Z</time>
      </trkpt>
      <trkpt lat="42.7376280" lon="-8.6610190">
        <ele>11.3</ele>
        <time>2021-05-23T10:50:18Z</time>
      </trkpt>
      <trkpt lat="42.7376300" lon="-8.6610150">
        <ele>11.3</ele>
        <time>2021-05-23T10:50:19Z</time>
      </trkpt>
      <trkpt lat="42.7376320" lon="-8.6610080">
        <ele>11.3</ele>
        <time>2021-05-23T10:50:20Z</time>
      </trkpt>
      <trkpt lat="42.7376250" lon="-8.6610060">
        <ele>11.3</ele>
        <time>2021-05-23T10:50:21Z</time>
      </trkpt>
      <trkpt lat="42.7376260" lon="-8.6610030">
        <ele>11.3</ele>
        <time>2021-05-23T10:50:22Z</time>
      </trkpt>
      <trkpt lat="42.7376260" lon="-8.6609990">
        <ele>11.3</ele>
        <time>2021-05-23T10:50:23Z</time>
      </trkpt>
      <trkpt lat="42.7376290" lon="-8.6609980">
        <ele>11.3</ele>
        <time>2021-05-23T10:50:24Z</time>
      </trkpt>
      <trkpt lat="42.7376310" lon="-8.6609980">
        <ele>11.3</ele>
        <time>2021-05-23T10:50:25Z</time>
      </trkpt>
      <trkpt lat="42.7376330" lon="-8.6610000">
        <ele>11.3</ele>
        <time>2021-05-23T10:50:26Z</time>
      </trkpt>
      <trkpt lat="42.7376350" lon="-8.6609990">
        <ele>11.3</ele>
        <time>2021-05-23T10:50:27Z</time>
      </trkpt>
      <trkpt lat="42.7376360" lon="-8.6609980">
        <ele>11.3</ele>
        <time>2021-05-23T10:50:28Z</time>
      </trkpt>
      <trkpt lat="42.7376390" lon="-8.6609940">
        <ele>11.3</ele>
        <time>2021-05-23T10:50:29Z</time>
      </trkpt>
      <trkpt lat="42.7376390" lon="-8.6609930">
        <ele>11.3</ele>
        <time>2021-05-23T10:50:30Z</time>
      </trkpt>
      <trkpt lat="42.7376410" lon="-8.6609940">
        <ele>11.3</ele>
        <time>2021-05-23T10:50:31Z</time>
      </trkpt>
      <trkpt lat="42.7376430" lon="-8.6609950">
        <ele>11.3</ele>
        <time>2021-05-23T10:50:32Z</time>
      </trkpt>
      <trkpt lat="42.7376430" lon="-8.6610000">
        <ele>11.3</ele>
        <time>2021-05-23T10:50:33Z</time>
      </trkpt>
      <trkpt lat="42.7376460" lon="-8.6610030">
        <ele>11.3</ele>
        <time>2021-05-23T10:50:34Z</time>
      </trkpt>
      <trkpt lat="42.7376490" lon="-8.6610070">
        <ele>11.3</ele>
        <time>2021-05-23T10:50:35Z</time>
      </trkpt>
      <trkpt lat="42.7376520" lon="-8.6610030">
        <ele>11.3</ele>
        <time>2021-05-23T10:50:36Z</time>
      </trkpt>
      <trkpt lat="42.7376510" lon="-8.6609970">
        <ele>11.3</ele>
        <time>2021-05-23T10:50:37Z</time>
      </trkpt>
      <trkpt lat="42.7376510" lon="-8.6609950">
        <ele>11.3</ele>
        <time>2021-05-23T10:50:38Z</time>
      </trkpt>
      <trkpt lat="42.7376510" lon="-8.6609930">
        <ele>11.3</ele>
        <time>2021-05-23T10:50:39Z</time>
      </trkpt>
      <trkpt lat="42.7376570" lon="-8.6609880">
        <ele>11.3</ele>
        <time>2021-05-23T10:50:40Z</time>
      </trkpt>
      <trkpt lat="42.7376600" lon="-8.6609850">
        <ele>11.3</ele>
        <time>2021-05-23T10:50:41Z</time>
      </trkpt>
      <trkpt lat="42.7376620" lon="-8.6609860">
        <ele>11.3</ele>
        <time>2021-05-23T10:50:42Z</time>
      </trkpt>
      <trkpt lat="42.7376660" lon="-8.6609900">
        <ele>11.3</ele>
        <time>2021-05-23T10:50:43Z</time>
      </trkpt>
      <trkpt lat="42.7376620" lon="-8.6609930">
        <ele>11.3</ele>
        <time>2021-05-23T10:50:44Z</time>
      </trkpt>
      <trkpt lat="42.7376640" lon="-8.6609950">
        <ele>11.3</ele>
        <time>2021-05-23T10:50:45Z</time>
      </trkpt>
      <trkpt lat="42.7376680" lon="-8.6610000">
        <ele>11.3</ele>
        <time>2021-05-23T10:50:46Z</time>
      </trkpt>
      <trkpt lat="42.7376690" lon="-8.6609990">
        <ele>11.3</ele>
        <time>2021-05-23T10:50:47Z</time>
      </trkpt>
      <trkpt lat="42.7376630" lon="-8.6609970">
        <ele>11.3</ele>
        <time>2021-05-23T10:50:48Z</time>
      </trkpt>
      <trkpt lat="42.7376640" lon="-8.6609970">
        <ele>11.3</ele>
        <time>2021-05-23T10:50:49Z</time>
      </trkpt>
      <trkpt lat="42.7376640" lon="-8.6610000">
        <ele>11.3</ele>
        <time>2021-05-23T10:50:50Z</time>
      </trkpt>
      <trkpt lat="42.7376640" lon="-8.6610050">
        <ele>11.3</ele>
        <time>2021-05-23T10:50:51Z</time>
      </trkpt>
      <trkpt lat="42.7376570" lon="-8.6610050">
        <ele>11.3</ele>
        <time>2021-05-23T10:50:52Z</time>
      </trkpt>
      <trkpt lat="42.7376510" lon="-8.6610060">
        <ele>11.3</ele>
        <time>2021-05-23T10:50:53Z</time>
      </trkpt>
      <trkpt lat="42.7376490" lon="-8.6610030">
        <ele>11.3</ele>
        <time>2021-05-23T10:50:54Z</time>
      </trkpt>
      <trkpt lat="42.7376540" lon="-8.6610030">
        <ele>11.3</ele>
        <time>2021-05-23T10:50:55Z</time>
      </trkpt>
      <trkpt lat="42.7376520" lon="-8.6610070">
        <ele>11.3</ele>
        <time>2021-05-23T10:50:57Z</time>
      </trkpt>
      <trkpt lat="42.7376480" lon="-8.6610090">
        <ele>11.3</ele>
        <time>2021-05-23T10:50:58Z</time>
      </trkpt>
      <trkpt lat="42.7376450" lon="-8.6610130">
        <ele>11.3</ele>
        <time>2021-05-23T10:50:59Z</time>
      </trkpt>
      <trkpt lat="42.7376420" lon="-8.6610110">
        <ele>11.3</ele>
        <time>2021-05-23T10:51:00Z</time>
      </trkpt>
      <trkpt lat="42.7376390" lon="-8.6610070">
        <ele>11.3</ele>
        <time>2021-05-23T10:51:01Z</time>
      </trkpt>
      <trkpt lat="42.7376380" lon="-8.6610110">
        <ele>11.3</ele>
        <time>2021-05-23T10:51:02Z</time>
      </trkpt>
      <trkpt lat="42.7376390" lon="-8.6610100">
        <ele>11.3</ele>
        <time>2021-05-23T10:51:03Z</time>
      </trkpt>
      <trkpt lat="42.7376430" lon="-8.6610110">
        <ele>11.3</ele>
        <time>2021-05-23T10:51:04Z</time>
      </trkpt>
      <trkpt lat="42.7376430" lon="-8.6610170">
        <ele>11.3</ele>
        <time>2021-05-23T10:51:05Z</time>
      </trkpt>
      <trkpt lat="42.7376380" lon="-8.6610200">
        <ele>11.3</ele>
        <time>2021-05-23T10:51:06Z</time>
      </trkpt>
      <trkpt lat="42.7376340" lon="-8.6610150">
        <ele>11.3</ele>
        <time>2021-05-23T10:51:07Z</time>
      </trkpt>
      <trkpt lat="42.7376280" lon="-8.6610140">
        <ele>11.3</ele>
        <time>2021-05-23T10:51:08Z</time>
      </trkpt>
      <trkpt lat="42.7376280" lon="-8.6610140">
        <ele>11.3</ele>
        <time>2021-05-23T10:51:09Z</time>
      </trkpt>
      <trkpt lat="42.7376260" lon="-8.6610170">
        <ele>11.3</ele>
        <time>2021-05-23T10:51:10Z</time>
      </trkpt>
      <trkpt lat="42.7376240" lon="-8.6610180">
        <ele>11.3</ele>
        <time>2021-05-23T10:51:11Z</time>
      </trkpt>
      <trkpt lat="42.7376230" lon="-8.6610200">
        <ele>11.3</ele>
        <time>2021-05-23T10:51:12Z</time>
      </trkpt>
      <trkpt lat="42.7376220" lon="-8.6610180">
        <ele>11.3</ele>
        <time>2021-05-23T10:51:13Z</time>
      </trkpt>
      <trkpt lat="42.7376290" lon="-8.6610110">
        <ele>11.3</ele>
        <time>2021-05-23T10:51:14Z</time>
      </trkpt>
      <trkpt lat="42.7376280" lon="-8.6610080">
        <ele>11.3</ele>
        <time>2021-05-23T10:51:15Z</time>
      </trkpt>
      <trkpt lat="42.7376260" lon="-8.6610100">
        <ele>11.3</ele>
        <time>2021-05-23T10:51:16Z</time>
      </trkpt>
      <trkpt lat="42.7376290" lon="-8.6610050">
        <ele>11.3</ele>
        <time>2021-05-23T10:51:17Z</time>
      </trkpt>
      <trkpt lat="42.7376290" lon="-8.6610050">
        <ele>11.3</ele>
        <time>2021-05-23T10:51:18Z</time>
      </trkpt>
      <trkpt lat="42.7376300" lon="-8.6610040">
        <ele>11.3</ele>
        <time>2021-05-23T10:51:19Z</time>
      </trkpt>
      <trkpt lat="42.7376300" lon="-8.6610080">
        <ele>11.3</ele>
        <time>2021-05-23T10:51:20Z</time>
      </trkpt>
      <trkpt lat="42.7376310" lon="-8.6610090">
        <ele>11.3</ele>
        <time>2021-05-23T10:51:21Z</time>
      </trkpt>
      <trkpt lat="42.7376300" lon="-8.6610080">
        <ele>11.3</ele>
        <time>2021-05-23T10:51:22Z</time>
      </trkpt>
      <trkpt lat="42.7376300" lon="-8.6610100">
        <ele>11.3</ele>
        <time>2021-05-23T10:51:23Z</time>
      </trkpt>
      <trkpt lat="42.7376290" lon="-8.6610120">
        <ele>11.3</ele>
        <time>2021-05-23T10:51:24Z</time>
      </trkpt>
      <trkpt lat="42.7376270" lon="-8.6610130">
        <ele>11.3</ele>
        <time>2021-05-23T10:51:25Z</time>
      </trkpt>
      <trkpt lat="42.7376250" lon="-8.6610120">
        <ele>11.3</ele>
        <time>2021-05-23T10:51:26Z</time>
      </trkpt>
      <trkpt lat="42.7376280" lon="-8.6610110">
        <ele>11.3</ele>
        <time>2021-05-23T10:51:27Z</time>
      </trkpt>
      <trkpt lat="42.7376290" lon="-8.6610110">
        <ele>11.3</ele>
        <time>2021-05-23T10:51:28Z</time>
      </trkpt>
      <trkpt lat="42.7376260" lon="-8.6610110">
        <ele>11.3</ele>
        <time>2021-05-23T10:51:29Z</time>
      </trkpt>
      <trkpt lat="42.7376280" lon="-8.6610110">
        <ele>11.3</ele>
        <time>2021-05-23T10:51:30Z</time>
      </trkpt>
      <trkpt lat="42.7376290" lon="-8.6610140">
        <ele>11.3</ele>
        <time>2021-05-23T10:51:31Z</time>
      </trkpt>
      <trkpt lat="42.7376290" lon="-8.6610190">
        <ele>11.3</ele>
        <time>2021-05-23T10:51:32Z</time>
      </trkpt>
      <trkpt lat="42.7376260" lon="-8.6610170">
        <ele>11.3</ele>
        <time>2021-05-23T10:51:33Z</time>
      </trkpt>
      <trkpt lat="42.7376270" lon="-8.6610260">
        <ele>11.3</ele>
        <time>2021-05-23T10:51:34Z</time>
      </trkpt>
      <trkpt lat="42.7376280" lon="-8.6610270">
        <ele>11.3</ele>
        <time>2021-05-23T10:51:35Z</time>
      </trkpt>
      <trkpt lat="42.7376310" lon="-8.6610210">
        <ele>11.3</ele>
        <time>2021-05-23T10:51:36Z</time>
      </trkpt>
      <trkpt lat="42.7376310" lon="-8.6610220">
        <ele>11.3</ele>
        <time>2021-05-23T10:51:37Z</time>
      </trkpt>
      <trkpt lat="42.7376300" lon="-8.6610280">
        <ele>11.3</ele>
        <time>2021-05-23T10:51:38Z</time>
      </trkpt>
      <trkpt lat="42.7376290" lon="-8.6610360">
        <ele>11.3</ele>
        <time>2021-05-23T10:51:39Z</time>
      </trkpt>
      <trkpt lat="42.7376280" lon="-8.6610250">
        <ele>11.3</ele>
        <time>2021-05-23T10:51:40Z</time>
      </trkpt>
      <trkpt lat="42.7376260" lon="-8.6610320">
        <ele>11.3</ele>
        <time>2021-05-23T10:51:41Z</time>
      </trkpt>
      <trkpt lat="42.7376270" lon="-8.6610330">
        <ele>11.3</ele>
        <time>2021-05-23T10:51:42Z</time>
      </trkpt>
      <trkpt lat="42.7376270" lon="-8.6610350">
        <ele>11.3</ele>
        <time>2021-05-23T10:51:43Z</time>
      </trkpt>
      <trkpt lat="42.7376280" lon="-8.6610430">
        <ele>11.3</ele>
        <time>2021-05-23T10:51:44Z</time>
      </trkpt>
      <trkpt lat="42.7376290" lon="-8.6610430">
        <ele>11.3</ele>
        <time>2021-05-23T10:51:45Z</time>
      </trkpt>
      <trkpt lat="42.7376300" lon="-8.6610470">
        <ele>11.3</ele>
        <time>2021-05-23T10:51:46Z</time>
      </trkpt>
      <trkpt lat="42.7376310" lon="-8.6610510">
        <ele>11.3</ele>
        <time>2021-05-23T10:51:47Z</time>
      </trkpt>
      <trkpt lat="42.7376300" lon="-8.6610470">
        <ele>11.3</ele>
        <time>2021-05-23T10:51:48Z</time>
      </trkpt>
      <trkpt lat="42.7376320" lon="-8.6610510">
        <ele>11.3</ele>
        <time>2021-05-23T10:51:49Z</time>
      </trkpt>
      <trkpt lat="42.7376330" lon="-8.6610570">
        <ele>11.3</ele>
        <time>2021-05-23T10:51:50Z</time>
      </trkpt>
      <trkpt lat="42.7376340" lon="-8.6610580">
        <ele>11.3</ele>
        <time>2021-05-23T10:51:51Z</time>
      </trkpt>
      <trkpt lat="42.7376350" lon="-8.6610570">
        <ele>11.3</ele>
        <time>2021-05-23T10:51:52Z</time>
      </trkpt>
      <trkpt lat="42.7376330" lon="-8.6610520">
        <ele>11.3</ele>
        <time>2021-05-23T10:51:53Z</time>
      </trkpt>
      <trkpt lat="42.7376340" lon="-8.6610470">
        <ele>11.3</ele>
        <time>2021-05-23T10:51:54Z</time>
      </trkpt>
      <trkpt lat="42.7376340" lon="-8.6610440">
        <ele>11.3</ele>
        <time>2021-05-23T10:51:55Z</time>
      </trkpt>
      <trkpt lat="42.7376320" lon="-8.6610490">
        <ele>11.3</ele>
        <time>2021-05-23T10:51:56Z</time>
      </trkpt>
      <trkpt lat="42.7376330" lon="-8.6610550">
        <ele>11.3</ele>
        <time>2021-05-23T10:51:57Z</time>
      </trkpt>
      <trkpt lat="42.7376280" lon="-8.6610510">
        <ele>11.3</ele>
        <time>2021-05-23T10:51:58Z</time>
      </trkpt>
      <trkpt lat="42.7376280" lon="-8.6610510">
        <ele>11.3</ele>
        <time>2021-05-23T10:51:59Z</time>
      </trkpt>
      <trkpt lat="42.7376260" lon="-8.6610510">
        <ele>11.3</ele>
        <time>2021-05-23T10:52:00Z</time>
      </trkpt>
      <trkpt lat="42.7376250" lon="-8.6610500">
        <ele>11.3</ele>
        <time>2021-05-23T10:52:01Z</time>
      </trkpt>
      <trkpt lat="42.7376250" lon="-8.6610490">
        <ele>11.3</ele>
        <time>2021-05-23T10:52:02Z</time>
      </trkpt>
      <trkpt lat="42.7376230" lon="-8.6610330">
        <ele>11.3</ele>
        <time>2021-05-23T10:52:03Z</time>
      </trkpt>
      <trkpt lat="42.7376220" lon="-8.6610300">
        <ele>11.3</ele>
        <time>2021-05-23T10:52:04Z</time>
      </trkpt>
      <trkpt lat="42.7376220" lon="-8.6610230">
        <ele>11.3</ele>
        <time>2021-05-23T10:52:05Z</time>
      </trkpt>
      <trkpt lat="42.7376230" lon="-8.6610290">
        <ele>11.3</ele>
        <time>2021-05-23T10:52:06Z</time>
      </trkpt>
      <trkpt lat="42.7376230" lon="-8.6610350">
        <ele>11.3</ele>
        <time>2021-05-23T10:52:07Z</time>
      </trkpt>
      <trkpt lat="42.7376230" lon="-8.6610330">
        <ele>11.3</ele>
        <time>2021-05-23T10:52:08Z</time>
      </trkpt>
      <trkpt lat="42.7376220" lon="-8.6610320">
        <ele>11.3</ele>
        <time>2021-05-23T10:52:09Z</time>
      </trkpt>
      <trkpt lat="42.7376240" lon="-8.6610310">
        <ele>11.3</ele>
        <time>2021-05-23T10:52:10Z</time>
      </trkpt>
      <trkpt lat="42.7376260" lon="-8.6610330">
        <ele>11.3</ele>
        <time>2021-05-23T10:52:11Z</time>
      </trkpt>
      <trkpt lat="42.7376260" lon="-8.6610340">
        <ele>11.3</ele>
        <time>2021-05-23T10:52:12Z</time>
      </trkpt>
      <trkpt lat="42.7376300" lon="-8.6610290">
        <ele>11.3</ele>
        <time>2021-05-23T10:52:13Z</time>
      </trkpt>
      <trkpt lat="42.7376290" lon="-8.6610260">
        <ele>11.3</ele>
        <time>2021-05-23T10:52:14Z</time>
      </trkpt>
      <trkpt lat="42.7376290" lon="-8.6610260">
        <ele>11.3</ele>
        <time>2021-05-23T10:52:15Z</time>
      </trkpt>
      <trkpt lat="42.7376310" lon="-8.6610260">
        <ele>11.3</ele>
        <time>2021-05-23T10:52:16Z</time>
      </trkpt>
      <trkpt lat="42.7376320" lon="-8.6610200">
        <ele>11.3</ele>
        <time>2021-05-23T10:52:17Z</time>
      </trkpt>
      <trkpt lat="42.7376310" lon="-8.6610180">
        <ele>11.3</ele>
        <time>2021-05-23T10:52:18Z</time>
      </trkpt>
      <trkpt lat="42.7376330" lon="-8.6610160">
        <ele>11.3</ele>
        <time>2021-05-23T10:52:19Z</time>
      </trkpt>
      <trkpt lat="42.7376310" lon="-8.6610140">
        <ele>11.3</ele>
        <time>2021-05-23T10:52:20Z</time>
      </trkpt>
      <trkpt lat="42.7376300" lon="-8.6610200">
        <ele>11.3</ele>
        <time>2021-05-23T10:52:21Z</time>
      </trkpt>
      <trkpt lat="42.7376310" lon="-8.6610250">
        <ele>11.3</ele>
        <time>2021-05-23T10:52:22Z</time>
      </trkpt>
      <trkpt lat="42.7376300" lon="-8.6610220">
        <ele>11.3</ele>
        <time>2021-05-23T10:52:23Z</time>
      </trkpt>
      <trkpt lat="42.7376300" lon="-8.6610230">
        <ele>11.3</ele>
        <time>2021-05-23T10:52:24Z</time>
      </trkpt>
      <trkpt lat="42.7376320" lon="-8.6610170">
        <ele>11.3</ele>
        <time>2021-05-23T10:52:25Z</time>
      </trkpt>
      <trkpt lat="42.7376320" lon="-8.6610140">
        <ele>11.3</ele>
        <time>2021-05-23T10:52:26Z</time>
      </trkpt>
      <trkpt lat="42.7376340" lon="-8.6610080">
        <ele>11.3</ele>
        <time>2021-05-23T10:52:27Z</time>
      </trkpt>
      <trkpt lat="42.7376350" lon="-8.6610100">
        <ele>11.3</ele>
        <time>2021-05-23T10:52:28Z</time>
      </trkpt>
      <trkpt lat="42.7376350" lon="-8.6610210">
        <ele>11.3</ele>
        <time>2021-05-23T10:52:29Z</time>
      </trkpt>
      <trkpt lat="42.7376380" lon="-8.6610240">
        <ele>11.3</ele>
        <time>2021-05-23T10:52:30Z</time>
      </trkpt>
      <trkpt lat="42.7376370" lon="-8.6610310">
        <ele>11.3</ele>
        <time>2021-05-23T10:52:31Z</time>
      </trkpt>
      <trkpt lat="42.7376370" lon="-8.6610330">
        <ele>11.3</ele>
        <time>2021-05-23T10:52:32Z</time>
      </trkpt>
      <trkpt lat="42.7376400" lon="-8.6610320">
        <ele>11.3</ele>
        <time>2021-05-23T10:52:33Z</time>
      </trkpt>
      <trkpt lat="42.7376420" lon="-8.6610320">
        <ele>11.3</ele>
        <time>2021-05-23T10:52:34Z</time>
      </trkpt>
      <trkpt lat="42.7376410" lon="-8.6610290">
        <ele>11.3</ele>
        <time>2021-05-23T10:52:35Z</time>
      </trkpt>
      <trkpt lat="42.7376410" lon="-8.6610310">
        <ele>11.3</ele>
        <time>2021-05-23T10:52:36Z</time>
      </trkpt>
      <trkpt lat="42.7376450" lon="-8.6610320">
        <ele>11.3</ele>
        <time>2021-05-23T10:52:37Z</time>
      </trkpt>
      <trkpt lat="42.7376450" lon="-8.6610380">
        <ele>11.3</ele>
        <time>2021-05-23T10:52:38Z</time>
      </trkpt>
      <trkpt lat="42.7376460" lon="-8.6610320">
        <ele>11.3</ele>
        <time>2021-05-23T10:52:39Z</time>
      </trkpt>
      <trkpt lat="42.7376450" lon="-8.6610280">
        <ele>11.3</ele>
        <time>2021-05-23T10:52:40Z</time>
      </trkpt>
      <trkpt lat="42.7376470" lon="-8.6610260">
        <ele>11.3</ele>
        <time>2021-05-23T10:52:41Z</time>
      </trkpt>
      <trkpt lat="42.7376480" lon="-8.6610240">
        <ele>11.3</ele>
        <time>2021-05-23T10:52:42Z</time>
      </trkpt>
      <trkpt lat="42.7376480" lon="-8.6610320">
        <ele>11.3</ele>
        <time>2021-05-23T10:52:43Z</time>
      </trkpt>
      <trkpt lat="42.7376450" lon="-8.6610380">
        <ele>11.3</ele>
        <time>2021-05-23T10:52:44Z</time>
      </trkpt>
      <trkpt lat="42.7376450" lon="-8.6610390">
        <ele>11.3</ele>
        <time>2021-05-23T10:52:45Z</time>
      </trkpt>
      <trkpt lat="42.7376500" lon="-8.6610510">
        <ele>11.3</ele>
        <time>2021-05-23T10:52:46Z</time>
      </trkpt>
      <trkpt lat="42.7376550" lon="-8.6610570">
        <ele>11.3</ele>
        <time>2021-05-23T10:52:47Z</time>
      </trkpt>
      <trkpt lat="42.7376590" lon="-8.6610560">
        <ele>11.3</ele>
        <time>2021-05-23T10:52:48Z</time>
      </trkpt>
      <trkpt lat="42.7376630" lon="-8.6610620">
        <ele>11.3</ele>
        <time>2021-05-23T10:52:49Z</time>
      </trkpt>
      <trkpt lat="42.7376650" lon="-8.6610670">
        <ele>11.3</ele>
        <time>2021-05-23T10:52:50Z</time>
      </trkpt>
      <trkpt lat="42.7376670" lon="-8.6610660">
        <ele>11.3</ele>
        <time>2021-05-23T10:52:51Z</time>
      </trkpt>
      <trkpt lat="42.7376690" lon="-8.6610710">
        <ele>11.3</ele>
        <time>2021-05-23T10:52:52Z</time>
      </trkpt>
      <trkpt lat="42.7376660" lon="-8.6610740">
        <ele>11.3</ele>
        <time>2021-05-23T10:52:53Z</time>
      </trkpt>
      <trkpt lat="42.7376660" lon="-8.6610720">
        <ele>11.3</ele>
        <time>2021-05-23T10:52:54Z</time>
      </trkpt>
      <trkpt lat="42.7376620" lon="-8.6610760">
        <ele>11.3</ele>
        <time>2021-05-23T10:52:55Z</time>
      </trkpt>
      <trkpt lat="42.7376580" lon="-8.6610810">
        <ele>11.3</ele>
        <time>2021-05-23T10:52:56Z</time>
      </trkpt>
      <trkpt lat="42.7376570" lon="-8.6610810">
        <ele>11.3</ele>
        <time>2021-05-23T10:52:57Z</time>
      </trkpt>
      <trkpt lat="42.7376540" lon="-8.6610770">
        <ele>11.3</ele>
        <time>2021-05-23T10:52:58Z</time>
      </trkpt>
      <trkpt lat="42.7376530" lon="-8.6610710">
        <ele>11.3</ele>
        <time>2021-05-23T10:52:59Z</time>
      </trkpt>
      <trkpt lat="42.7376530" lon="-8.6610710">
        <ele>11.3</ele>
        <time>2021-05-23T10:53:00Z</time>
      </trkpt>
      <trkpt lat="42.7376520" lon="-8.6610600">
        <ele>11.3</ele>
        <time>2021-05-23T10:53:01Z</time>
      </trkpt>
      <trkpt lat="42.7376480" lon="-8.6610600">
        <ele>11.3</ele>
        <time>2021-05-23T10:53:02Z</time>
      </trkpt>
      <trkpt lat="42.7376480" lon="-8.6610640">
        <ele>11.3</ele>
        <time>2021-05-23T10:53:03Z</time>
      </trkpt>
      <trkpt lat="42.7376490" lon="-8.6610580">
        <ele>11.3</ele>
        <time>2021-05-23T10:53:04Z</time>
      </trkpt>
      <trkpt lat="42.7376480" lon="-8.6610660">
        <ele>11.3</ele>
        <time>2021-05-23T10:53:05Z</time>
      </trkpt>
      <trkpt lat="42.7376500" lon="-8.6610680">
        <ele>11.3</ele>
        <time>2021-05-23T10:53:06Z</time>
      </trkpt>
      <trkpt lat="42.7376500" lon="-8.6610680">
        <ele>11.3</ele>
        <time>2021-05-23T10:53:08Z</time>
      </trkpt>
      <trkpt lat="42.7376510" lon="-8.6610620">
        <ele>11.3</ele>
        <time>2021-05-23T10:53:09Z</time>
      </trkpt>
      <trkpt lat="42.7376560" lon="-8.6610650">
        <ele>11.3</ele>
        <time>2021-05-23T10:53:10Z</time>
      </trkpt>
      <trkpt lat="42.7376550" lon="-8.6610640">
        <ele>11.3</ele>
        <time>2021-05-23T10:53:11Z</time>
      </trkpt>
      <trkpt lat="42.7376520" lon="-8.6610700">
        <ele>11.3</ele>
        <time>2021-05-23T10:53:12Z</time>
      </trkpt>
      <trkpt lat="42.7376480" lon="-8.6610740">
        <ele>11.3</ele>
        <time>2021-05-23T10:53:13Z</time>
      </trkpt>
      <trkpt lat="42.7376450" lon="-8.6610590">
        <ele>11.3</ele>
        <time>2021-05-23T10:53:14Z</time>
      </trkpt>
      <trkpt lat="42.7376390" lon="-8.6610610">
        <ele>11.3</ele>
        <time>2021-05-23T10:53:15Z</time>
      </trkpt>
      <trkpt lat="42.7376400" lon="-8.6610640">
        <ele>11.3</ele>
        <time>2021-05-23T10:53:16Z</time>
      </trkpt>
      <trkpt lat="42.7376410" lon="-8.6610570">
        <ele>11.3</ele>
        <time>2021-05-23T10:53:17Z</time>
      </trkpt>
      <trkpt lat="42.7376370" lon="-8.6610480">
        <ele>11.3</ele>
        <time>2021-05-23T10:53:18Z</time>
      </trkpt>
      <trkpt lat="42.7376370" lon="-8.6610470">
        <ele>11.3</ele>
        <time>2021-05-23T10:53:19Z</time>
      </trkpt>
      <trkpt lat="42.7376340" lon="-8.6610490">
        <ele>11.3</ele>
        <time>2021-05-23T10:53:20Z</time>
      </trkpt>
      <trkpt lat="42.7376330" lon="-8.6610500">
        <ele>11.3</ele>
        <time>2021-05-23T10:53:21Z</time>
      </trkpt>
      <trkpt lat="42.7376290" lon="-8.6610510">
        <ele>11.3</ele>
        <time>2021-05-23T10:53:22Z</time>
      </trkpt>
      <trkpt lat="42.7376260" lon="-8.6610430">
        <ele>11.3</ele>
        <time>2021-05-23T10:53:23Z</time>
      </trkpt>
      <trkpt lat="42.7376260" lon="-8.6610530">
        <ele>11.3</ele>
        <time>2021-05-23T10:53:24Z</time>
      </trkpt>
      <trkpt lat="42.7376290" lon="-8.6610590">
        <ele>11.3</ele>
        <time>2021-05-23T10:53:25Z</time>
      </trkpt>
      <trkpt lat="42.7376280" lon="-8.6610620">
        <ele>11.3</ele>
        <time>2021-05-23T10:53:26Z</time>
      </trkpt>
      <trkpt lat="42.7376280" lon="-8.6610650">
        <ele>11.3</ele>
        <time>2021-05-23T10:53:27Z</time>
      </trkpt>
      <trkpt lat="42.7376260" lon="-8.6610670">
        <ele>11.3</ele>
        <time>2021-05-23T10:53:28Z</time>
      </trkpt>
      <trkpt lat="42.7376280" lon="-8.6610660">
        <ele>11.3</ele>
        <time>2021-05-23T10:53:29Z</time>
      </trkpt>
      <trkpt lat="42.7376290" lon="-8.6610720">
        <ele>11.3</ele>
        <time>2021-05-23T10:53:30Z</time>
      </trkpt>
      <trkpt lat="42.7376290" lon="-8.6610690">
        <ele>11.3</ele>
        <time>2021-05-23T10:53:31Z</time>
      </trkpt>
      <trkpt lat="42.7376270" lon="-8.6610660">
        <ele>11.3</ele>
        <time>2021-05-23T10:53:32Z</time>
      </trkpt>
      <trkpt lat="42.7376250" lon="-8.6610650">
        <ele>11.3</ele>
        <time>2021-05-23T10:53:33Z</time>
      </trkpt>
      <trkpt lat="42.7376320" lon="-8.6610690">
        <ele>11.3</ele>
        <time>2021-05-23T10:53:34Z</time>
      </trkpt>
      <trkpt lat="42.7376320" lon="-8.6610680">
        <ele>11.3</ele>
        <time>2021-05-23T10:53:35Z</time>
      </trkpt>
      <trkpt lat="42.7376330" lon="-8.6610690">
        <ele>11.3</ele>
        <time>2021-05-23T10:53:36Z</time>
      </trkpt>
      <trkpt lat="42.7376370" lon="-8.6610620">
        <ele>11.3</ele>
        <time>2021-05-23T10:53:37Z</time>
      </trkpt>
      <trkpt lat="42.7376410" lon="-8.6610690">
        <ele>11.3</ele>
        <time>2021-05-23T10:53:38Z</time>
      </trkpt>
      <trkpt lat="42.7376430" lon="-8.6610790">
        <ele>11.3</ele>
        <time>2021-05-23T10:53:39Z</time>
      </trkpt>
      <trkpt lat="42.7376480" lon="-8.6610910">
        <ele>11.3</ele>
        <time>2021-05-23T10:53:40Z</time>
      </trkpt>
      <trkpt lat="42.7376500" lon="-8.6610950">
        <ele>11.3</ele>
        <time>2021-05-23T10:53:41Z</time>
      </trkpt>
      <trkpt lat="42.7376500" lon="-8.6610950">
        <ele>11.3</ele>
        <time>2021-05-23T10:53:42Z</time>
      </trkpt>
      <trkpt lat="42.7376520" lon="-8.6611030">
        <ele>11.3</ele>
        <time>2021-05-23T10:53:43Z</time>
      </trkpt>
      <trkpt lat="42.7376520" lon="-8.6611110">
        <ele>11.3</ele>
        <time>2021-05-23T10:53:44Z</time>
      </trkpt>
      <trkpt lat="42.7376520" lon="-8.6611100">
        <ele>11.3</ele>
        <time>2021-05-23T10:53:45Z</time>
      </trkpt>
      <trkpt lat="42.7376500" lon="-8.6611210">
        <ele>11.3</ele>
        <time>2021-05-23T10:53:46Z</time>
      </trkpt>
      <trkpt lat="42.7376530" lon="-8.6611240">
        <ele>11.3</ele>
        <time>2021-05-23T10:53:47Z</time>
      </trkpt>
      <trkpt lat="42.7376520" lon="-8.6611230">
        <ele>11.3</ele>
        <time>2021-05-23T10:53:48Z</time>
      </trkpt>
      <trkpt lat="42.7376530" lon="-8.6611280">
        <ele>11.3</ele>
        <time>2021-05-23T10:53:49Z</time>
      </trkpt>
      <trkpt lat="42.7376530" lon="-8.6611280">
        <ele>11.3</ele>
        <time>2021-05-23T10:53:50Z</time>
      </trkpt>
      <trkpt lat="42.7376530" lon="-8.6611280">
        <ele>11.3</ele>
        <time>2021-05-23T10:53:51Z</time>
      </trkpt>
      <trkpt lat="42.7376490" lon="-8.6611180">
        <ele>11.3</ele>
        <time>2021-05-23T10:53:52Z</time>
      </trkpt>
      <trkpt lat="42.7376490" lon="-8.6611240">
        <ele>11.3</ele>
        <time>2021-05-23T10:53:53Z</time>
      </trkpt>
      <trkpt lat="42.7376490" lon="-8.6611240">
        <ele>11.3</ele>
        <time>2021-05-23T10:53:54Z</time>
      </trkpt>
      <trkpt lat="42.7376510" lon="-8.6611450">
        <ele>11.3</ele>
        <time>2021-05-23T10:53:55Z</time>
      </trkpt>
      <trkpt lat="42.7376510" lon="-8.6611470">
        <ele>11.3</ele>
        <time>2021-05-23T10:53:56Z</time>
      </trkpt>
      <trkpt lat="42.7376460" lon="-8.6611510">
        <ele>11.3</ele>
        <time>2021-05-23T10:53:57Z</time>
      </trkpt>
      <trkpt lat="42.7376400" lon="-8.6611400">
        <ele>11.3</ele>
        <time>2021-05-23T10:53:58Z</time>
      </trkpt>
      <trkpt lat="42.7376390" lon="-8.6611390">
        <ele>11.3</ele>
        <time>2021-05-23T10:53:59Z</time>
      </trkpt>
      <trkpt lat="42.7376380" lon="-8.6611350">
        <ele>11.3</ele>
        <time>2021-05-23T10:54:00Z</time>
      </trkpt>
      <trkpt lat="42.7376400" lon="-8.6611220">
        <ele>11.3</ele>
        <time>2021-05-23T10:54:01Z</time>
      </trkpt>
      <trkpt lat="42.7376390" lon="-8.6611310">
        <ele>11.3</ele>
        <time>2021-05-23T10:54:02Z</time>
      </trkpt>
      <trkpt lat="42.7376380" lon="-8.6611270">
        <ele>11.3</ele>
        <time>2021-05-23T10:54:03Z</time>
      </trkpt>
      <trkpt lat="42.7376360" lon="-8.6611180">
        <ele>11.3</ele>
        <time>2021-05-23T10:54:04Z</time>
      </trkpt>
      <trkpt lat="42.7376360" lon="-8.6611170">
        <ele>11.3</ele>
        <time>2021-05-23T10:54:05Z</time>
      </trkpt>
      <trkpt lat="42.7376370" lon="-8.6611180">
        <ele>11.3</ele>
        <time>2021-05-23T10:54:06Z</time>
      </trkpt>
      <trkpt lat="42.7376370" lon="-8.6611180">
        <ele>11.3</ele>
        <time>2021-05-23T10:54:07Z</time>
      </trkpt>
      <trkpt lat="42.7376340" lon="-8.6611140">
        <ele>11.3</ele>
        <time>2021-05-23T10:54:08Z</time>
      </trkpt>
      <trkpt lat="42.7376350" lon="-8.6611040">
        <ele>11.3</ele>
        <time>2021-05-23T10:54:09Z</time>
      </trkpt>
      <trkpt lat="42.7376350" lon="-8.6611100">
        <ele>11.3</ele>
        <time>2021-05-23T10:54:10Z</time>
      </trkpt>
      <trkpt lat="42.7376340" lon="-8.6611120">
        <ele>11.3</ele>
        <time>2021-05-23T10:54:11Z</time>
      </trkpt>
      <trkpt lat="42.7376350" lon="-8.6611120">
        <ele>11.3</ele>
        <time>2021-05-23T10:54:12Z</time>
      </trkpt>
      <trkpt lat="42.7376350" lon="-8.6611110">
        <ele>11.3</ele>
        <time>2021-05-23T10:54:13Z</time>
      </trkpt>
      <trkpt lat="42.7376370" lon="-8.6611160">
        <ele>11.3</ele>
        <time>2021-05-23T10:54:14Z</time>
      </trkpt>
      <trkpt lat="42.7376390" lon="-8.6611190">
        <ele>11.3</ele>
        <time>2021-05-23T10:54:15Z</time>
      </trkpt>
      <trkpt lat="42.7376400" lon="-8.6611150">
        <ele>11.3</ele>
        <time>2021-05-23T10:54:16Z</time>
      </trkpt>
      <trkpt lat="42.7376400" lon="-8.6611150">
        <ele>11.3</ele>
        <time>2021-05-23T10:54:17Z</time>
      </trkpt>
      <trkpt lat="42.7376410" lon="-8.6611300">
        <ele>11.3</ele>
        <time>2021-05-23T10:54:18Z</time>
      </trkpt>
      <trkpt lat="42.7376420" lon="-8.6611310">
        <ele>11.3</ele>
        <time>2021-05-23T10:54:19Z</time>
      </trkpt>
      <trkpt lat="42.7376440" lon="-8.6611160">
        <ele>11.3</ele>
        <time>2021-05-23T10:54:20Z</time>
      </trkpt>
      <trkpt lat="42.7376420" lon="-8.6611150">
        <ele>11.3</ele>
        <time>2021-05-23T10:54:21Z</time>
      </trkpt>
      <trkpt lat="42.7376440" lon="-8.6611200">
        <ele>11.3</ele>
        <time>2021-05-23T10:54:22Z</time>
      </trkpt>
      <trkpt lat="42.7376430" lon="-8.6611260">
        <ele>11.3</ele>
        <time>2021-05-23T10:54:23Z</time>
      </trkpt>
      <trkpt lat="42.7376420" lon="-8.6610920">
        <ele>11.3</ele>
        <time>2021-05-23T10:54:24Z</time>
      </trkpt>
      <trkpt lat="42.7376410" lon="-8.6610920">
        <ele>11.3</ele>
        <time>2021-05-23T10:54:25Z</time>
      </trkpt>
      <trkpt lat="42.7376450" lon="-8.6611030">
        <ele>11.3</ele>
        <time>2021-05-23T10:54:26Z</time>
      </trkpt>
      <trkpt lat="42.7376480" lon="-8.6611060">
        <ele>11.3</ele>
        <time>2021-05-23T10:54:27Z</time>
      </trkpt>
      <trkpt lat="42.7376500" lon="-8.6611160">
        <ele>11.3</ele>
        <time>2021-05-23T10:54:28Z</time>
      </trkpt>
      <trkpt lat="42.7376500" lon="-8.6611100">
        <ele>11.3</ele>
        <time>2021-05-23T10:54:29Z</time>
      </trkpt>
      <trkpt lat="42.7376490" lon="-8.6611080">
        <ele>11.3</ele>
        <time>2021-05-23T10:54:30Z</time>
      </trkpt>
      <trkpt lat="42.7376490" lon="-8.6611000">
        <ele>11.3</ele>
        <time>2021-05-23T10:54:31Z</time>
      </trkpt>
      <trkpt lat="42.7376490" lon="-8.6611040">
        <ele>11.3</ele>
        <time>2021-05-23T10:54:32Z</time>
      </trkpt>
      <trkpt lat="42.7376460" lon="-8.6610870">
        <ele>11.3</ele>
        <time>2021-05-23T10:54:33Z</time>
      </trkpt>
      <trkpt lat="42.7376480" lon="-8.6610900">
        <ele>11.3</ele>
        <time>2021-05-23T10:54:34Z</time>
      </trkpt>
      <trkpt lat="42.7376500" lon="-8.6610970">
        <ele>11.3</ele>
        <time>2021-05-23T10:54:35Z</time>
      </trkpt>
      <trkpt lat="42.7376520" lon="-8.6610870">
        <ele>11.3</ele>
        <time>2021-05-23T10:54:36Z</time>
      </trkpt>
      <trkpt lat="42.7376500" lon="-8.6610760">
        <ele>11.3</ele>
        <time>2021-05-23T10:54:37Z</time>
      </trkpt>
      <trkpt lat="42.7376510" lon="-8.6610690">
        <ele>11.3</ele>
        <time>2021-05-23T10:54:38Z</time>
      </trkpt>
      <trkpt lat="42.7376510" lon="-8.6610680">
        <ele>11.3</ele>
        <time>2021-05-23T10:54:39Z</time>
      </trkpt>
      <trkpt lat="42.7376520" lon="-8.6610620">
        <ele>11.3</ele>
        <time>2021-05-23T10:54:40Z</time>
      </trkpt>
      <trkpt lat="42.7376490" lon="-8.6610620">
        <ele>11.3</ele>
        <time>2021-05-23T10:54:41Z</time>
      </trkpt>
      <trkpt lat="42.7376480" lon="-8.6610590">
        <ele>11.3</ele>
        <time>2021-05-23T10:54:42Z</time>
      </trkpt>
      <trkpt lat="42.7376450" lon="-8.6610510">
        <ele>11.3</ele>
        <time>2021-05-23T10:54:43Z</time>
      </trkpt>
      <trkpt lat="42.7376450" lon="-8.6610450">
        <ele>11.3</ele>
        <time>2021-05-23T10:54:44Z</time>
      </trkpt>
      <trkpt lat="42.7376430" lon="-8.6610430">
        <ele>11.3</ele>
        <time>2021-05-23T10:54:45Z</time>
      </trkpt>
      <trkpt lat="42.7376410" lon="-8.6610400">
        <ele>11.3</ele>
        <time>2021-05-23T10:54:46Z</time>
      </trkpt>
      <trkpt lat="42.7376390" lon="-8.6610350">
        <ele>11.3</ele>
        <time>2021-05-23T10:54:47Z</time>
      </trkpt>
      <trkpt lat="42.7376390" lon="-8.6610380">
        <ele>11.3</ele>
        <time>2021-05-23T10:54:48Z</time>
      </trkpt>
      <trkpt lat="42.7376390" lon="-8.6610400">
        <ele>11.3</ele>
        <time>2021-05-23T10:54:49Z</time>
      </trkpt>
      <trkpt lat="42.7376390" lon="-8.6610430">
        <ele>11.3</ele>
        <time>2021-05-23T10:54:50Z</time>
      </trkpt>
      <trkpt lat="42.7376390" lon="-8.6610470">
        <ele>11.3</ele>
        <time>2021-05-23T10:54:51Z</time>
      </trkpt>
      <trkpt lat="42.7376330" lon="-8.6610380">
        <ele>11.3</ele>
        <time>2021-05-23T10:54:52Z</time>
      </trkpt>
      <trkpt lat="42.7376330" lon="-8.6610380">
        <ele>11.3</ele>
        <time>2021-05-23T10:54:53Z</time>
      </trkpt>
      <trkpt lat="42.7376320" lon="-8.6610390">
        <ele>11.3</ele>
        <time>2021-05-23T10:54:54Z</time>
      </trkpt>
      <trkpt lat="42.7376320" lon="-8.6610390">
        <ele>11.3</ele>
        <time>2021-05-23T10:54:55Z</time>
      </trkpt>
      <trkpt lat="42.7376320" lon="-8.6610390">
        <ele>11.3</ele>
        <time>2021-05-23T10:54:56Z</time>
      </trkpt>
      <trkpt lat="42.7376320" lon="-8.6610390">
        <ele>11.3</ele>
        <time>2021-05-23T10:54:57Z</time>
      </trkpt>
      <trkpt lat="42.7376320" lon="-8.6610390">
        <ele>11.3</ele>
        <time>2021-05-23T10:54:58Z</time>
      </trkpt>
      <trkpt lat="42.7376320" lon="-8.6610390">
        <ele>11.3</ele>
        <time>2021-05-23T10:55:00Z</time>
      </trkpt>
      <trkpt lat="42.7376320" lon="-8.6610390">
        <ele>11.3</ele>
        <time>2021-05-23T10:55:01Z</time>
      </trkpt>
      <trkpt lat="42.7376320" lon="-8.6610390">
        <ele>11.3</ele>
        <time>2021-05-23T10:55:02Z</time>
      </trkpt>
      <trkpt lat="42.7376320" lon="-8.6610390">
        <ele>11.3</ele>
        <time>2021-05-23T10:55:03Z</time>
      </trkpt>
      <trkpt lat="42.7376320" lon="-8.6610390">
        <ele>11.3</ele>
        <time>2021-05-23T10:55:04Z</time>
      </trkpt>
      <trkpt lat="42.7376320" lon="-8.6610390">
        <ele>11.3</ele>
        <time>2021-05-23T10:55:05Z</time>
      </trkpt>
      <trkpt lat="42.7376320" lon="-8.6610390">
        <ele>11.3</ele>
        <time>2021-05-23T10:55:06Z</time>
      </trkpt>
      <trkpt lat="42.7376320" lon="-8.6610390">
        <ele>11.3</ele>
        <time>2021-05-23T10:55:07Z</time>
      </trkpt>
      <trkpt lat="42.7376320" lon="-8.6610390">
        <ele>11.3</ele>
        <time>2021-05-23T10:55:08Z</time>
      </trkpt>
      <trkpt lat="42.7376320" lon="-8.6610390">
        <ele>11.3</ele>
        <time>2021-05-23T10:55:09Z</time>
      </trkpt>
      <trkpt lat="42.7376320" lon="-8.6610390">
        <ele>11.3</ele>
        <time>2021-05-23T10:55:10Z</time>
      </trkpt>
      <trkpt lat="42.7376320" lon="-8.6610390">
        <ele>11.3</ele>
        <time>2021-05-23T10:55:11Z</time>
      </trkpt>
      <trkpt lat="42.7376320" lon="-8.6610390">
        <ele>11.3</ele>
        <time>2021-05-23T10:55:12Z</time>
      </trkpt>
      <trkpt lat="42.7376320" lon="-8.6610390">
        <ele>11.3</ele>
        <time>2021-05-23T10:55:13Z</time>
      </trkpt>
      <trkpt lat="42.7376320" lon="-8.6610390">
        <ele>11.3</ele>
        <time>2021-05-23T10:55:14Z</time>
      </trkpt>
      <trkpt lat="42.7376320" lon="-8.6610390">
        <ele>11.3</ele>
        <time>2021-05-23T10:55:15Z</time>
      </trkpt>
      <trkpt lat="42.7376320" lon="-8.6610390">
        <ele>11.3</ele>
        <time>2021-05-23T10:55:16Z</time>
      </trkpt>
      <trkpt lat="42.7376320" lon="-8.6610390">
        <ele>11.3</ele>
        <time>2021-05-23T10:55:17Z</time>
      </trkpt>
      <trkpt lat="42.7376320" lon="-8.6610390">
        <ele>11.3</ele>
        <time>2021-05-23T10:55:18Z</time>
      </trkpt>
      <trkpt lat="42.7376320" lon="-8.6610390">
        <ele>11.3</ele>
        <time>2021-05-23T10:55:19Z</time>
      </trkpt>
      <trkpt lat="42.7376320" lon="-8.6610390">
        <ele>11.3</ele>
        <time>2021-05-23T10:55:20Z</time>
      </trkpt>
      <trkpt lat="42.7376320" lon="-8.6610390">
        <ele>11.3</ele>
        <time>2021-05-23T10:55:21Z</time>
      </trkpt>
      <trkpt lat="42.7376320" lon="-8.6610390">
        <ele>11.3</ele>
        <time>2021-05-23T10:55:22Z</time>
      </trkpt>
      <trkpt lat="42.7376320" lon="-8.6610390">
        <ele>11.3</ele>
        <time>2021-05-23T10:55:23Z</time>
      </trkpt>
      <trkpt lat="42.7376320" lon="-8.6610390">
        <ele>11.3</ele>
        <time>2021-05-23T10:55:24Z</time>
      </trkpt>
      <trkpt lat="42.7376320" lon="-8.6610390">
        <ele>11.3</ele>
        <time>2021-05-23T10:55:25Z</time>
      </trkpt>
      <trkpt lat="42.7376320" lon="-8.6610390">
        <ele>11.3</ele>
        <time>2021-05-23T10:55:26Z</time>
      </trkpt>
      <trkpt lat="42.7376320" lon="-8.6610390">
        <ele>11.3</ele>
        <time>2021-05-23T10:55:27Z</time>
      </trkpt>
      <trkpt lat="42.7376320" lon="-8.6610390">
        <ele>11.3</ele>
        <time>2021-05-23T10:55:28Z</time>
      </trkpt>
      <trkpt lat="42.7376320" lon="-8.6610390">
        <ele>11.3</ele>
        <time>2021-05-23T10:55:29Z</time>
      </trkpt>
      <trkpt lat="42.7376320" lon="-8.6610390">
        <ele>11.3</ele>
        <time>2021-05-23T10:55:30Z</time>
      </trkpt>
      <trkpt lat="42.7376320" lon="-8.6610390">
        <ele>11.3</ele>
        <time>2021-05-23T10:55:31Z</time>
      </trkpt>
      <trkpt lat="42.7376320" lon="-8.6610390">
        <ele>11.3</ele>
        <time>2021-05-23T10:55:32Z</time>
      </trkpt>
      <trkpt lat="42.7376320" lon="-8.6610390">
        <ele>11.3</ele>
        <time>2021-05-23T10:55:33Z</time>
      </trkpt>
      <trkpt lat="42.7376320" lon="-8.6610390">
        <ele>11.3</ele>
        <time>2021-05-23T10:55:34Z</time>
      </trkpt>
      <trkpt lat="42.7376320" lon="-8.6610390">
        <ele>11.3</ele>
        <time>2021-05-23T10:55:35Z</time>
      </trkpt>
      <trkpt lat="42.7376320" lon="-8.6610390">
        <ele>11.3</ele>
        <time>2021-05-23T10:55:36Z</time>
      </trkpt>
      <trkpt lat="42.7376320" lon="-8.6610390">
        <ele>11.3</ele>
        <time>2021-05-23T10:55:37Z</time>
      </trkpt>
      <trkpt lat="42.7376320" lon="-8.6610390">
        <ele>11.3</ele>
        <time>2021-05-23T10:55:38Z</time>
      </trkpt>
      <trkpt lat="42.7376320" lon="-8.6610390">
        <ele>11.3</ele>
        <time>2021-05-23T10:55:39Z</time>
      </trkpt>
      <trkpt lat="42.7376320" lon="-8.6610390">
        <ele>11.3</ele>
        <time>2021-05-23T10:55:40Z</time>
      </trkpt>
      <trkpt lat="42.7376320" lon="-8.6610390">
        <ele>11.3</ele>
        <time>2021-05-23T10:55:41Z</time>
      </trkpt>
      <trkpt lat="42.7376320" lon="-8.6610390">
        <ele>11.3</ele>
        <time>2021-05-23T10:55:42Z</time>
      </trkpt>
      <trkpt lat="42.7376320" lon="-8.6610390">
        <ele>11.3</ele>
        <time>2021-05-23T10:55:43Z</time>
      </trkpt>
      <trkpt lat="42.7376320" lon="-8.6610390">
        <ele>11.3</ele>
        <time>2021-05-23T10:55:44Z</time>
      </trkpt>
      <trkpt lat="42.7376320" lon="-8.6610390">
        <ele>11.3</ele>
        <time>2021-05-23T10:55:45Z</time>
      </trkpt>
      <trkpt lat="42.7376320" lon="-8.6610390">
        <ele>11.3</ele>
        <time>2021-05-23T10:55:46Z</time>
      </trkpt>
      <trkpt lat="42.7376320" lon="-8.6610390">
        <ele>11.3</ele>
        <time>2021-05-23T10:55:47Z</time>
      </trkpt>
      <trkpt lat="42.7376320" lon="-8.6610390">
        <ele>11.3</ele>
        <time>2021-05-23T10:55:48Z</time>
      </trkpt>
      <trkpt lat="42.7376320" lon="-8.6610390">
        <ele>11.3</ele>
        <time>2021-05-23T10:55:49Z</time>
      </trkpt>
      <trkpt lat="42.7376320" lon="-8.6610390">
        <ele>11.3</ele>
        <time>2021-05-23T10:55:50Z</time>
      </trkpt>
      <trkpt lat="42.7376320" lon="-8.6610390">
        <ele>11.3</ele>
        <time>2021-05-23T10:55:51Z</time>
      </trkpt>
      <trkpt lat="42.7376320" lon="-8.6610390">
        <ele>11.3</ele>
        <time>2021-05-23T10:55:52Z</time>
      </trkpt>
      <trkpt lat="42.7376320" lon="-8.6610390">
        <ele>11.3</ele>
        <time>2021-05-23T10:55:53Z</time>
      </trkpt>
      <trkpt lat="42.7376430" lon="-8.6610660">
        <ele>11.3</ele>
        <time>2021-05-23T10:55:54Z</time>
      </trkpt>
      <trkpt lat="42.7376430" lon="-8.6610660">
        <ele>11.3</ele>
        <time>2021-05-23T10:55:55Z</time>
      </trkpt>
      <trkpt lat="42.7376430" lon="-8.6610660">
        <ele>11.3</ele>
        <time>2021-05-23T10:55:56Z</time>
      </trkpt>
      <trkpt lat="42.7376470" lon="-8.6610630">
        <ele>11.3</ele>
        <time>2021-05-23T10:55:57Z</time>
      </trkpt>
      <trkpt lat="42.7376470" lon="-8.6610630">
        <ele>11.3</ele>
        <time>2021-05-23T10:55:58Z</time>
      </trkpt>
      <trkpt lat="42.7376470" lon="-8.6610630">
        <ele>11.3</ele>
        <time>2021-05-23T10:55:59Z</time>
      </trkpt>
      <trkpt lat="42.7376470" lon="-8.6610630">
        <ele>11.3</ele>
        <time>2021-05-23T10:56:00Z</time>
      </trkpt>
      <trkpt lat="42.7376470" lon="-8.6610630">
        <ele>11.3</ele>
        <time>2021-05-23T10:56:01Z</time>
      </trkpt>
      <trkpt lat="42.7376470" lon="-8.6610630">
        <ele>11.3</ele>
        <time>2021-05-23T10:56:02Z</time>
      </trkpt>
      <trkpt lat="42.7376470" lon="-8.6610630">
        <ele>11.3</ele>
        <time>2021-05-23T10:56:03Z</time>
      </trkpt>
      <trkpt lat="42.7376470" lon="-8.6610630">
        <ele>11.3</ele>
        <time>2021-05-23T10:56:04Z</time>
      </trkpt>
      <trkpt lat="42.7376470" lon="-8.6610630">
        <ele>11.3</ele>
        <time>2021-05-23T10:56:05Z</time>
      </trkpt>
      <trkpt lat="42.7376470" lon="-8.6610630">
        <ele>11.3</ele>
        <time>2021-05-23T10:56:06Z</time>
      </trkpt>
      <trkpt lat="42.7376470" lon="-8.6610630">
        <ele>11.3</ele>
        <time>2021-05-23T10:56:07Z</time>
      </trkpt>
      <trkpt lat="42.7376470" lon="-8.6610630">
        <ele>11.3</ele>
        <time>2021-05-23T10:56:08Z</time>
      </trkpt>
      <trkpt lat="42.7376470" lon="-8.6610630">
        <ele>11.3</ele>
        <time>2021-05-23T10:56:09Z</time>
      </trkpt>
      <trkpt lat="42.7376470" lon="-8.6610630">
        <ele>11.3</ele>
        <time>2021-05-23T10:56:10Z</time>
      </trkpt>
      <trkpt lat="42.7376470" lon="-8.6610630">
        <ele>11.3</ele>
        <time>2021-05-23T10:56:11Z</time>
      </trkpt>
      <trkpt lat="42.7376470" lon="-8.6610630">
        <ele>11.3</ele>
        <time>2021-05-23T10:56:12Z</time>
      </trkpt>
      <trkpt lat="42.7376470" lon="-8.6610630">
        <ele>11.3</ele>
        <time>2021-05-23T10:56:13Z</time>
      </trkpt>
      <trkpt lat="42.7376470" lon="-8.6610630">
        <ele>11.3</ele>
        <time>2021-05-23T10:56:14Z</time>
      </trkpt>
      <trkpt lat="42.7376470" lon="-8.6610630">
        <ele>11.3</ele>
        <time>2021-05-23T10:56:15Z</time>
      </trkpt>
      <trkpt lat="42.7376470" lon="-8.6610630">
        <ele>11.3</ele>
        <time>2021-05-23T10:56:16Z</time>
      </trkpt>
      <trkpt lat="42.7376470" lon="-8.6610630">
        <ele>11.3</ele>
        <time>2021-05-23T10:56:17Z</time>
      </trkpt>
      <trkpt lat="42.7376470" lon="-8.6610630">
        <ele>11.3</ele>
        <time>2021-05-23T10:56:18Z</time>
      </trkpt>
      <trkpt lat="42.7376470" lon="-8.6610630">
        <ele>11.3</ele>
        <time>2021-05-23T10:56:19Z</time>
      </trkpt>
      <trkpt lat="42.7376470" lon="-8.6610630">
        <ele>11.3</ele>
        <time>2021-05-23T10:56:20Z</time>
      </trkpt>
      <trkpt lat="42.7376470" lon="-8.6610630">
        <ele>11.3</ele>
        <time>2021-05-23T10:56:21Z</time>
      </trkpt>
      <trkpt lat="42.7376470" lon="-8.6610630">
        <ele>11.3</ele>
        <time>2021-05-23T10:56:22Z</time>
      </trkpt>
      <trkpt lat="42.7376470" lon="-8.6610630">
        <ele>11.3</ele>
        <time>2021-05-23T10:56:23Z</time>
      </trkpt>
      <trkpt lat="42.7376470" lon="-8.6610630">
        <ele>11.3</ele>
        <time>2021-05-23T10:56:24Z</time>
      </trkpt>
      <trkpt lat="42.7376470" lon="-8.6610630">
        <ele>11.3</ele>
        <time>2021-05-23T10:56:25Z</time>
      </trkpt>
      <trkpt lat="42.7376470" lon="-8.6610630">
        <ele>11.3</ele>
        <time>2021-05-23T10:56:26Z</time>
      </trkpt>
      <trkpt lat="42.7376470" lon="-8.6610630">
        <ele>11.3</ele>
        <time>2021-05-23T10:56:27Z</time>
      </trkpt>
      <trkpt lat="42.7376470" lon="-8.6610630">
        <ele>11.3</ele>
        <time>2021-05-23T10:56:28Z</time>
      </trkpt>
      <trkpt lat="42.7376470" lon="-8.6610630">
        <ele>11.3</ele>
        <time>2021-05-23T10:56:29Z</time>
      </trkpt>
      <trkpt lat="42.7376470" lon="-8.6610630">
        <ele>11.3</ele>
        <time>2021-05-23T10:56:30Z</time>
      </trkpt>
      <trkpt lat="42.7376470" lon="-8.6610630">
        <ele>11.3</ele>
        <time>2021-05-23T10:56:31Z</time>
      </trkpt>
      <trkpt lat="42.7376470" lon="-8.6610630">
        <ele>11.3</ele>
        <time>2021-05-23T10:56:32Z</time>
      </trkpt>
      <trkpt lat="42.7376470" lon="-8.6610630">
        <ele>11.3</ele>
        <time>2021-05-23T10:56:33Z</time>
      </trkpt>
      <trkpt lat="42.7376470" lon="-8.6610630">
        <ele>11.3</ele>
        <time>2021-05-23T10:56:34Z</time>
      </trkpt>
      <trkpt lat="42.7376470" lon="-8.6610630">
        <ele>11.3</ele>
        <time>2021-05-23T10:56:35Z</time>
      </trkpt>
      <trkpt lat="42.7376330" lon="-8.6610800">
        <ele>11.3</ele>
        <time>2021-05-23T10:56:36Z</time>
      </trkpt>
      <trkpt lat="42.7376330" lon="-8.6610800">
        <ele>11.3</ele>
        <time>2021-05-23T10:56:37Z</time>
      </trkpt>
      <trkpt lat="42.7376330" lon="-8.6610800">
        <ele>11.3</ele>
        <time>2021-05-23T10:56:38Z</time>
      </trkpt>
      <trkpt lat="42.7376330" lon="-8.6610800">
        <ele>11.3</ele>
        <time>2021-05-23T10:56:39Z</time>
      </trkpt>
      <trkpt lat="42.7376330" lon="-8.6610800">
        <ele>11.3</ele>
        <time>2021-05-23T10:56:40Z</time>
      </trkpt>
      <trkpt lat="42.7376330" lon="-8.6610800">
        <ele>11.3</ele>
        <time>2021-05-23T10:56:41Z</time>
      </trkpt>
      <trkpt lat="42.7376330" lon="-8.6610800">
        <ele>11.3</ele>
        <time>2021-05-23T10:56:42Z</time>
      </trkpt>
      <trkpt lat="42.7376330" lon="-8.6610800">
        <ele>11.3</ele>
        <time>2021-05-23T10:56:43Z</time>
      </trkpt>
      <trkpt lat="42.7376330" lon="-8.6610800">
        <ele>11.3</ele>
        <time>2021-05-23T10:56:44Z</time>
      </trkpt>
      <trkpt lat="42.7376330" lon="-8.6610800">
        <ele>11.3</ele>
        <time>2021-05-23T10:56:45Z</time>
      </trkpt>
      <trkpt lat="42.7376330" lon="-8.6610800">
        <ele>11.3</ele>
        <time>2021-05-23T10:56:46Z</time>
      </trkpt>
      <trkpt lat="42.7376330" lon="-8.6610800">
        <ele>11.3</ele>
        <time>2021-05-23T10:56:47Z</time>
      </trkpt>
      <trkpt lat="42.7376330" lon="-8.6610800">
        <ele>11.3</ele>
        <time>2021-05-23T10:56:48Z</time>
      </trkpt>
      <trkpt lat="42.7376330" lon="-8.6610800">
        <ele>11.3</ele>
        <time>2021-05-23T10:56:49Z</time>
      </trkpt>
      <trkpt lat="42.7376330" lon="-8.6610800">
        <ele>11.3</ele>
        <time>2021-05-23T10:56:50Z</time>
      </trkpt>
      <trkpt lat="42.7376330" lon="-8.6610800">
        <ele>11.3</ele>
        <time>2021-05-23T10:56:51Z</time>
      </trkpt>
      <trkpt lat="42.7376330" lon="-8.6610800">
        <ele>11.3</ele>
        <time>2021-05-23T10:56:52Z</time>
      </trkpt>
      <trkpt lat="42.7376330" lon="-8.6610800">
        <ele>11.3</ele>
        <time>2021-05-23T10:56:53Z</time>
      </trkpt>
      <trkpt lat="42.7376330" lon="-8.6610800">
        <ele>11.3</ele>
        <time>2021-05-23T10:56:54Z</time>
      </trkpt>
      <trkpt lat="42.7376330" lon="-8.6610800">
        <ele>11.3</ele>
        <time>2021-05-23T10:56:55Z</time>
      </trkpt>
      <trkpt lat="42.7376330" lon="-8.6610800">
        <ele>11.3</ele>
        <time>2021-05-23T10:56:56Z</time>
      </trkpt>
      <trkpt lat="42.7376330" lon="-8.6610800">
        <ele>11.3</ele>
        <time>2021-05-23T10:56:57Z</time>
      </trkpt>
      <trkpt lat="42.7376330" lon="-8.6610800">
        <ele>11.3</ele>
        <time>2021-05-23T10:56:58Z</time>
      </trkpt>
      <trkpt lat="42.7376330" lon="-8.6610800">
        <ele>11.3</ele>
        <time>2021-05-23T10:56:59Z</time>
      </trkpt>
      <trkpt lat="42.7376330" lon="-8.6610800">
        <ele>11.3</ele>
        <time>2021-05-23T10:57:00Z</time>
      </trkpt>
      <trkpt lat="42.7376330" lon="-8.6610800">
        <ele>11.3</ele>
        <time>2021-05-23T10:57:01Z</time>
      </trkpt>
      <trkpt lat="42.7376330" lon="-8.6610800">
        <ele>11.3</ele>
        <time>2021-05-23T10:57:02Z</time>
      </trkpt>
      <trkpt lat="42.7376330" lon="-8.6610800">
        <ele>11.3</ele>
        <time>2021-05-23T10:57:03Z</time>
      </trkpt>
      <trkpt lat="42.7376330" lon="-8.6610800">
        <ele>11.3</ele>
        <time>2021-05-23T10:57:04Z</time>
      </trkpt>
      <trkpt lat="42.7376330" lon="-8.6610800">
        <ele>11.3</ele>
        <time>2021-05-23T10:57:05Z</time>
      </trkpt>
      <trkpt lat="42.7376330" lon="-8.6610800">
        <ele>11.3</ele>
        <time>2021-05-23T10:57:06Z</time>
      </trkpt>
      <trkpt lat="42.7376330" lon="-8.6610800">
        <ele>11.3</ele>
        <time>2021-05-23T10:57:07Z</time>
      </trkpt>
      <trkpt lat="42.7376330" lon="-8.6610800">
        <ele>11.3</ele>
        <time>2021-05-23T10:57:08Z</time>
      </trkpt>
      <trkpt lat="42.7376330" lon="-8.6610800">
        <ele>11.3</ele>
        <time>2021-05-23T10:57:09Z</time>
      </trkpt>
      <trkpt lat="42.7376330" lon="-8.6610800">
        <ele>11.3</ele>
        <time>2021-05-23T10:57:10Z</time>
      </trkpt>
      <trkpt lat="42.7376330" lon="-8.6610800">
        <ele>11.3</ele>
        <time>2021-05-23T10:57:11Z</time>
      </trkpt>
      <trkpt lat="42.7376330" lon="-8.6610800">
        <ele>11.3</ele>
        <time>2021-05-23T10:57:12Z</time>
      </trkpt>
      <trkpt lat="42.7376330" lon="-8.6610800">
        <ele>11.3</ele>
        <time>2021-05-23T10:57:13Z</time>
      </trkpt>
      <trkpt lat="42.7376330" lon="-8.6610800">
        <ele>11.3</ele>
        <time>2021-05-23T10:57:14Z</time>
      </trkpt>
      <trkpt lat="42.7376330" lon="-8.6610800">
        <ele>11.3</ele>
        <time>2021-05-23T10:57:15Z</time>
      </trkpt>
      <trkpt lat="42.7376330" lon="-8.6610800">
        <ele>11.3</ele>
        <time>2021-05-23T10:57:16Z</time>
      </trkpt>
      <trkpt lat="42.7376330" lon="-8.6610800">
        <ele>11.3</ele>
        <time>2021-05-23T10:57:17Z</time>
      </trkpt>
      <trkpt lat="42.7376330" lon="-8.6610800">
        <ele>11.3</ele>
        <time>2021-05-23T10:57:18Z</time>
      </trkpt>
      <trkpt lat="42.7376340" lon="-8.6610990">
        <ele>11.3</ele>
        <time>2021-05-23T10:57:19Z</time>
      </trkpt>
      <trkpt lat="42.7376340" lon="-8.6610990">
        <ele>11.3</ele>
        <time>2021-05-23T10:57:20Z</time>
      </trkpt>
      <trkpt lat="42.7376340" lon="-8.6610990">
        <ele>11.3</ele>
        <time>2021-05-23T10:57:21Z</time>
      </trkpt>
      <trkpt lat="42.7376340" lon="-8.6610990">
        <ele>11.3</ele>
        <time>2021-05-23T10:57:22Z</time>
      </trkpt>
      <trkpt lat="42.7376340" lon="-8.6610990">
        <ele>11.3</ele>
        <time>2021-05-23T10:57:23Z</time>
      </trkpt>
      <trkpt lat="42.7376340" lon="-8.6610990">
        <ele>11.3</ele>
        <time>2021-05-23T10:57:24Z</time>
      </trkpt>
      <trkpt lat="42.7376340" lon="-8.6610990">
        <ele>11.3</ele>
        <time>2021-05-23T10:57:25Z</time>
      </trkpt>
      <trkpt lat="42.7376340" lon="-8.6610990">
        <ele>11.3</ele>
        <time>2021-05-23T10:57:26Z</time>
      </trkpt>
      <trkpt lat="42.7376340" lon="-8.6610990">
        <ele>11.3</ele>
        <time>2021-05-23T10:57:27Z</time>
      </trkpt>
      <trkpt lat="42.7376340" lon="-8.6610990">
        <ele>11.3</ele>
        <time>2021-05-23T10:57:28Z</time>
      </trkpt>
      <trkpt lat="42.7376340" lon="-8.6610990">
        <ele>11.3</ele>
        <time>2021-05-23T10:57:29Z</time>
      </trkpt>
      <trkpt lat="42.7376340" lon="-8.6610990">
        <ele>11.3</ele>
        <time>2021-05-23T10:57:30Z</time>
      </trkpt>
      <trkpt lat="42.7376340" lon="-8.6610990">
        <ele>11.3</ele>
        <time>2021-05-23T10:57:31Z</time>
      </trkpt>
      <trkpt lat="42.7376340" lon="-8.6610990">
        <ele>11.3</ele>
        <time>2021-05-23T10:57:32Z</time>
      </trkpt>
      <trkpt lat="42.7376340" lon="-8.6610990">
        <ele>11.3</ele>
        <time>2021-05-23T10:57:33Z</time>
      </trkpt>
      <trkpt lat="42.7376340" lon="-8.6610990">
        <ele>11.3</ele>
        <time>2021-05-23T10:57:34Z</time>
      </trkpt>
      <trkpt lat="42.7376340" lon="-8.6610990">
        <ele>11.3</ele>
        <time>2021-05-23T10:57:35Z</time>
      </trkpt>
      <trkpt lat="42.7376340" lon="-8.6610990">
        <ele>11.3</ele>
        <time>2021-05-23T10:57:36Z</time>
      </trkpt>
      <trkpt lat="42.7376340" lon="-8.6610990">
        <ele>11.3</ele>
        <time>2021-05-23T10:57:37Z</time>
      </trkpt>
      <trkpt lat="42.7376340" lon="-8.6610990">
        <ele>11.3</ele>
        <time>2021-05-23T10:57:38Z</time>
      </trkpt>
      <trkpt lat="42.7376340" lon="-8.6610990">
        <ele>11.3</ele>
        <time>2021-05-23T10:57:39Z</time>
      </trkpt>
      <trkpt lat="42.7376340" lon="-8.6610990">
        <ele>11.3</ele>
        <time>2021-05-23T10:57:40Z</time>
      </trkpt>
      <trkpt lat="42.7376340" lon="-8.6610990">
        <ele>11.3</ele>
        <time>2021-05-23T10:57:41Z</time>
      </trkpt>
      <trkpt lat="42.7376340" lon="-8.6610990">
        <ele>11.3</ele>
        <time>2021-05-23T10:57:42Z</time>
      </trkpt>
      <trkpt lat="42.7376340" lon="-8.6610990">
        <ele>11.3</ele>
        <time>2021-05-23T10:57:43Z</time>
      </trkpt>
      <trkpt lat="42.7376340" lon="-8.6610990">
        <ele>11.3</ele>
        <time>2021-05-23T10:57:44Z</time>
      </trkpt>
      <trkpt lat="42.7376340" lon="-8.6610990">
        <ele>11.3</ele>
        <time>2021-05-23T10:57:45Z</time>
      </trkpt>
      <trkpt lat="42.7376340" lon="-8.6610990">
        <ele>11.3</ele>
        <time>2021-05-23T10:57:46Z</time>
      </trkpt>
      <trkpt lat="42.7376340" lon="-8.6610990">
        <ele>11.3</ele>
        <time>2021-05-23T10:57:47Z</time>
      </trkpt>
      <trkpt lat="42.7376340" lon="-8.6610990">
        <ele>11.3</ele>
        <time>2021-05-23T10:57:48Z</time>
      </trkpt>
      <trkpt lat="42.7376340" lon="-8.6610990">
        <ele>11.3</ele>
        <time>2021-05-23T10:57:49Z</time>
      </trkpt>
      <trkpt lat="42.7376340" lon="-8.6610990">
        <ele>11.3</ele>
        <time>2021-05-23T10:57:50Z</time>
      </trkpt>
      <trkpt lat="42.7376320" lon="-8.6610980">
        <ele>11.3</ele>
        <time>2021-05-23T10:57:51Z</time>
      </trkpt>
      <trkpt lat="42.7376340" lon="-8.6610980">
        <ele>11.3</ele>
        <time>2021-05-23T10:57:52Z</time>
      </trkpt>
      <trkpt lat="42.7376350" lon="-8.6610980">
        <ele>11.3</ele>
        <time>2021-05-23T10:57:53Z</time>
      </trkpt>
      <trkpt lat="42.7376340" lon="-8.6610960">
        <ele>11.3</ele>
        <time>2021-05-23T10:57:54Z</time>
      </trkpt>
      <trkpt lat="42.7376360" lon="-8.6610940">
        <ele>11.3</ele>
        <time>2021-05-23T10:57:55Z</time>
      </trkpt>
      <trkpt lat="42.7376360" lon="-8.6610890">
        <ele>11.3</ele>
        <time>2021-05-23T10:57:56Z</time>
      </trkpt>
      <trkpt lat="42.7376370" lon="-8.6610920">
        <ele>11.3</ele>
        <time>2021-05-23T10:57:57Z</time>
      </trkpt>
      <trkpt lat="42.7376380" lon="-8.6610910">
        <ele>11.3</ele>
        <time>2021-05-23T10:57:58Z</time>
      </trkpt>
      <trkpt lat="42.7376370" lon="-8.6610890">
        <ele>11.3</ele>
        <time>2021-05-23T10:57:59Z</time>
      </trkpt>
      <trkpt lat="42.7376390" lon="-8.6610840">
        <ele>11.3</ele>
        <time>2021-05-23T10:58:00Z</time>
      </trkpt>
      <trkpt lat="42.7376440" lon="-8.6610840">
        <ele>11.3</ele>
        <time>2021-05-23T10:58:01Z</time>
      </trkpt>
      <trkpt lat="42.7376460" lon="-8.6610800">
        <ele>11.3</ele>
        <time>2021-05-23T10:58:02Z</time>
      </trkpt>
      <trkpt lat="42.7376560" lon="-8.6610790">
        <ele>11.3</ele>
        <time>2021-05-23T10:58:03Z</time>
      </trkpt>
      <trkpt lat="42.7376600" lon="-8.6610740">
        <ele>11.3</ele>
        <time>2021-05-23T10:58:04Z</time>
      </trkpt>
      <trkpt lat="42.7376650" lon="-8.6610700">
        <ele>11.3</ele>
        <time>2021-05-23T10:58:05Z</time>
      </trkpt>
      <trkpt lat="42.7376630" lon="-8.6610670">
        <ele>11.3</ele>
        <time>2021-05-23T10:58:06Z</time>
      </trkpt>
      <trkpt lat="42.7376620" lon="-8.6610630">
        <ele>11.3</ele>
        <time>2021-05-23T10:58:07Z</time>
      </trkpt>
      <trkpt lat="42.7376570" lon="-8.6610500">
        <ele>11.3</ele>
        <time>2021-05-23T10:58:08Z</time>
      </trkpt>
      <trkpt lat="42.7376550" lon="-8.6610620">
        <ele>11.3</ele>
        <time>2021-05-23T10:58:09Z</time>
      </trkpt>
      <trkpt lat="42.7376550" lon="-8.6610680">
        <ele>11.3</ele>
        <time>2021-05-23T10:58:10Z</time>
      </trkpt>
      <trkpt lat="42.7376570" lon="-8.6610640">
        <ele>11.3</ele>
        <time>2021-05-23T10:58:11Z</time>
      </trkpt>
      <trkpt lat="42.7376590" lon="-8.6610660">
        <ele>11.3</ele>
        <time>2021-05-23T10:58:12Z</time>
      </trkpt>
      <trkpt lat="42.7376600" lon="-8.6610730">
        <ele>11.3</ele>
        <time>2021-05-23T10:58:13Z</time>
      </trkpt>
      <trkpt lat="42.7376590" lon="-8.6610750">
        <ele>11.3</ele>
        <time>2021-05-23T10:58:14Z</time>
      </trkpt>
      <trkpt lat="42.7376590" lon="-8.6610690">
        <ele>11.3</ele>
        <time>2021-05-23T10:58:15Z</time>
      </trkpt>
      <trkpt lat="42.7376600" lon="-8.6610810">
        <ele>11.3</ele>
        <time>2021-05-23T10:58:16Z</time>
      </trkpt>
      <trkpt lat="42.7376600" lon="-8.6610810">
        <ele>11.3</ele>
        <time>2021-05-23T10:58:17Z</time>
      </trkpt>
      <trkpt lat="42.7376600" lon="-8.6610780">
        <ele>11.3</ele>
        <time>2021-05-23T10:58:18Z</time>
      </trkpt>
      <trkpt lat="42.7376590" lon="-8.6610770">
        <ele>11.3</ele>
        <time>2021-05-23T10:58:19Z</time>
      </trkpt>
      <trkpt lat="42.7376570" lon="-8.6610730">
        <ele>11.3</ele>
        <time>2021-05-23T10:58:20Z</time>
      </trkpt>
      <trkpt lat="42.7376600" lon="-8.6610690">
        <ele>11.3</ele>
        <time>2021-05-23T10:58:21Z</time>
      </trkpt>
      <trkpt lat="42.7376610" lon="-8.6610680">
        <ele>11.3</ele>
        <time>2021-05-23T10:58:22Z</time>
      </trkpt>
      <trkpt lat="42.7376580" lon="-8.6610630">
        <ele>11.3</ele>
        <time>2021-05-23T10:58:23Z</time>
      </trkpt>
      <trkpt lat="42.7376600" lon="-8.6610610">
        <ele>11.3</ele>
        <time>2021-05-23T10:58:24Z</time>
      </trkpt>
      <trkpt lat="42.7376620" lon="-8.6610530">
        <ele>11.3</ele>
        <time>2021-05-23T10:58:25Z</time>
      </trkpt>
      <trkpt lat="42.7376660" lon="-8.6610530">
        <ele>11.3</ele>
        <time>2021-05-23T10:58:26Z</time>
      </trkpt>
      <trkpt lat="42.7376670" lon="-8.6610490">
        <ele>11.3</ele>
        <time>2021-05-23T10:58:27Z</time>
      </trkpt>
      <trkpt lat="42.7376690" lon="-8.6610520">
        <ele>11.3</ele>
        <time>2021-05-23T10:58:28Z</time>
      </trkpt>
      <trkpt lat="42.7376700" lon="-8.6610460">
        <ele>11.3</ele>
        <time>2021-05-23T10:58:29Z</time>
      </trkpt>
      <trkpt lat="42.7376730" lon="-8.6610510">
        <ele>11.3</ele>
        <time>2021-05-23T10:58:30Z</time>
      </trkpt>
      <trkpt lat="42.7376740" lon="-8.6610550">
        <ele>11.3</ele>
        <time>2021-05-23T10:58:31Z</time>
      </trkpt>
      <trkpt lat="42.7376680" lon="-8.6610480">
        <ele>11.3</ele>
        <time>2021-05-23T10:58:32Z</time>
      </trkpt>
      <trkpt lat="42.7376500" lon="-8.6610760">
        <ele>11.3</ele>
        <time>2021-05-23T10:58:33Z</time>
      </trkpt>
      <trkpt lat="42.7376440" lon="-8.6610860">
        <ele>11.3</ele>
        <time>2021-05-23T10:58:34Z</time>
      </trkpt>
      <trkpt lat="42.7376490" lon="-8.6610920">
        <ele>11.3</ele>
        <time>2021-05-23T10:58:35Z</time>
      </trkpt>
      <trkpt lat="42.7376480" lon="-8.6610920">
        <ele>11.3</ele>
        <time>2021-05-23T10:58:36Z</time>
      </trkpt>
      <trkpt lat="42.7376480" lon="-8.6610920">
        <ele>11.3</ele>
        <time>2021-05-23T10:58:37Z</time>
      </trkpt>
      <trkpt lat="42.7376510" lon="-8.6610920">
        <ele>11.3</ele>
        <time>2021-05-23T10:58:38Z</time>
      </trkpt>
      <trkpt lat="42.7376550" lon="-8.6610680">
        <ele>11.3</ele>
        <time>2021-05-23T10:58:39Z</time>
      </trkpt>
      <trkpt lat="42.7376580" lon="-8.6610570">
        <ele>11.3</ele>
        <time>2021-05-23T10:58:40Z</time>
      </trkpt>
      <trkpt lat="42.7376590" lon="-8.6610530">
        <ele>11.3</ele>
        <time>2021-05-23T10:58:41Z</time>
      </trkpt>
      <trkpt lat="42.7376600" lon="-8.6610620">
        <ele>11.3</ele>
        <time>2021-05-23T10:58:42Z</time>
      </trkpt>
      <trkpt lat="42.7376610" lon="-8.6610620">
        <ele>11.3</ele>
        <time>2021-05-23T10:58:43Z</time>
      </trkpt>
      <trkpt lat="42.7376610" lon="-8.6610620">
        <ele>11.3</ele>
        <time>2021-05-23T10:58:44Z</time>
      </trkpt>
      <trkpt lat="42.7376610" lon="-8.6610620">
        <ele>11.3</ele>
        <time>2021-05-23T10:58:45Z</time>
      </trkpt>
      <trkpt lat="42.7376610" lon="-8.6610620">
        <ele>11.3</ele>
        <time>2021-05-23T10:58:46Z</time>
      </trkpt>
      <trkpt lat="42.7376610" lon="-8.6610620">
        <ele>11.3</ele>
        <time>2021-05-23T10:58:47Z</time>
      </trkpt>
      <trkpt lat="42.7376610" lon="-8.6610620">
        <ele>11.3</ele>
        <time>2021-05-23T10:58:48Z</time>
      </trkpt>
      <trkpt lat="42.7376610" lon="-8.6610620">
        <ele>11.3</ele>
        <time>2021-05-23T10:58:49Z</time>
      </trkpt>
      <trkpt lat="42.7376610" lon="-8.6610620">
        <ele>11.3</ele>
        <time>2021-05-23T10:58:50Z</time>
      </trkpt>
      <trkpt lat="42.7376610" lon="-8.6610620">
        <ele>11.3</ele>
        <time>2021-05-23T10:58:51Z</time>
      </trkpt>
      <trkpt lat="42.7376610" lon="-8.6610620">
        <ele>11.3</ele>
        <time>2021-05-23T10:58:52Z</time>
      </trkpt>
      <trkpt lat="42.7376610" lon="-8.6610620">
        <ele>11.3</ele>
        <time>2021-05-23T10:58:53Z</time>
      </trkpt>
      <trkpt lat="42.7376610" lon="-8.6610620">
        <ele>11.3</ele>
        <time>2021-05-23T10:58:54Z</time>
      </trkpt>
      <trkpt lat="42.7376610" lon="-8.6610620">
        <ele>11.3</ele>
        <time>2021-05-23T10:58:55Z</time>
      </trkpt>
      <trkpt lat="42.7376610" lon="-8.6610620">
        <ele>11.3</ele>
        <time>2021-05-23T10:58:56Z</time>
      </trkpt>
      <trkpt lat="42.7376610" lon="-8.6610620">
        <ele>11.3</ele>
        <time>2021-05-23T10:58:57Z</time>
      </trkpt>
      <trkpt lat="42.7376610" lon="-8.6610620">
        <ele>11.3</ele>
        <time>2021-05-23T10:58:58Z</time>
      </trkpt>
      <trkpt lat="42.7376610" lon="-8.6610620">
        <ele>11.3</ele>
        <time>2021-05-23T10:58:59Z</time>
      </trkpt>
      <trkpt lat="42.7376610" lon="-8.6610620">
        <ele>11.3</ele>
        <time>2021-05-23T10:59:00Z</time>
      </trkpt>
      <trkpt lat="42.7376610" lon="-8.6610620">
        <ele>11.3</ele>
        <time>2021-05-23T10:59:01Z</time>
      </trkpt>
      <trkpt lat="42.7376610" lon="-8.6610620">
        <ele>11.3</ele>
        <time>2021-05-23T10:59:02Z</time>
      </trkpt>
      <trkpt lat="42.7376610" lon="-8.6610620">
        <ele>11.3</ele>
        <time>2021-05-23T10:59:03Z</time>
      </trkpt>
      <trkpt lat="42.7376610" lon="-8.6610620">
        <ele>11.3</ele>
        <time>2021-05-23T10:59:04Z</time>
      </trkpt>
      <trkpt lat="42.7376610" lon="-8.6610620">
        <ele>11.3</ele>
        <time>2021-05-23T10:59:05Z</time>
      </trkpt>
      <trkpt lat="42.7376610" lon="-8.6610620">
        <ele>11.3</ele>
        <time>2021-05-23T10:59:06Z</time>
      </trkpt>
      <trkpt lat="42.7376610" lon="-8.6610620">
        <ele>11.3</ele>
        <time>2021-05-23T10:59:07Z</time>
      </trkpt>
      <trkpt lat="42.7376610" lon="-8.6610620">
        <ele>11.3</ele>
        <time>2021-05-23T10:59:08Z</time>
      </trkpt>
      <trkpt lat="42.7376310" lon="-8.6610820">
        <ele>11.3</ele>
        <time>2021-05-23T10:59:09Z</time>
      </trkpt>
      <trkpt lat="42.7376310" lon="-8.6610830">
        <ele>11.3</ele>
        <time>2021-05-23T10:59:10Z</time>
      </trkpt>
      <trkpt lat="42.7376300" lon="-8.6610830">
        <ele>11.3</ele>
        <time>2021-05-23T10:59:11Z</time>
      </trkpt>
      <trkpt lat="42.7376300" lon="-8.6610840">
        <ele>11.3</ele>
        <time>2021-05-23T10:59:12Z</time>
      </trkpt>
      <trkpt lat="42.7376300" lon="-8.6610840">
        <ele>11.3</ele>
        <time>2021-05-23T10:59:13Z</time>
      </trkpt>
      <trkpt lat="42.7376300" lon="-8.6610850">
        <ele>11.3</ele>
        <time>2021-05-23T10:59:14Z</time>
      </trkpt>
      <trkpt lat="42.7376290" lon="-8.6610850">
        <ele>11.3</ele>
        <time>2021-05-23T10:59:15Z</time>
      </trkpt>
      <trkpt lat="42.7376290" lon="-8.6610860">
        <ele>11.3</ele>
        <time>2021-05-23T10:59:16Z</time>
      </trkpt>
      <trkpt lat="42.7376290" lon="-8.6610860">
        <ele>11.3</ele>
        <time>2021-05-23T10:59:17Z</time>
      </trkpt>
      <trkpt lat="42.7376290" lon="-8.6610870">
        <ele>11.3</ele>
        <time>2021-05-23T10:59:18Z</time>
      </trkpt>
      <trkpt lat="42.7376280" lon="-8.6610880">
        <ele>11.3</ele>
        <time>2021-05-23T10:59:19Z</time>
      </trkpt>
      <trkpt lat="42.7376280" lon="-8.6610880">
        <ele>11.3</ele>
        <time>2021-05-23T10:59:20Z</time>
      </trkpt>
      <trkpt lat="42.7376280" lon="-8.6610890">
        <ele>11.3</ele>
        <time>2021-05-23T10:59:21Z</time>
      </trkpt>
      <trkpt lat="42.7376280" lon="-8.6610890">
        <ele>11.3</ele>
        <time>2021-05-23T10:59:22Z</time>
      </trkpt>
      <trkpt lat="42.7376270" lon="-8.6610900">
        <ele>11.3</ele>
        <time>2021-05-23T10:59:23Z</time>
      </trkpt>
      <trkpt lat="42.7376270" lon="-8.6610900">
        <ele>11.3</ele>
        <time>2021-05-23T10:59:24Z</time>
      </trkpt>
      <trkpt lat="42.7376270" lon="-8.6610910">
        <ele>11.3</ele>
        <time>2021-05-23T10:59:25Z</time>
      </trkpt>
      <trkpt lat="42.7376270" lon="-8.6610910">
        <ele>11.3</ele>
        <time>2021-05-23T10:59:26Z</time>
      </trkpt>
      <trkpt lat="42.7376260" lon="-8.6610920">
        <ele>11.3</ele>
        <time>2021-05-23T10:59:27Z</time>
      </trkpt>
      <trkpt lat="42.7376260" lon="-8.6610920">
        <ele>11.3</ele>
        <time>2021-05-23T10:59:28Z</time>
      </trkpt>
      <trkpt lat="42.7376260" lon="-8.6610930">
        <ele>11.3</ele>
        <time>2021-05-23T10:59:29Z</time>
      </trkpt>
      <trkpt lat="42.7376260" lon="-8.6610940">
        <ele>11.3</ele>
        <time>2021-05-23T10:59:30Z</time>
      </trkpt>
      <trkpt lat="42.7376250" lon="-8.6610940">
        <ele>11.3</ele>
        <time>2021-05-23T10:59:31Z</time>
      </trkpt>
      <trkpt lat="42.7376250" lon="-8.6610950">
        <ele>11.3</ele>
        <time>2021-05-23T10:59:32Z</time>
      </trkpt>
      <trkpt lat="42.7376250" lon="-8.6610950">
        <ele>11.3</ele>
        <time>2021-05-23T10:59:33Z</time>
      </trkpt>
      <trkpt lat="42.7376250" lon="-8.6610960">
        <ele>11.3</ele>
        <time>2021-05-23T10:59:34Z</time>
      </trkpt>
      <trkpt lat="42.7376240" lon="-8.6610960">
        <ele>11.3</ele>
        <time>2021-05-23T10:59:35Z</time>
      </trkpt>
      <trkpt lat="42.7376240" lon="-8.6610970">
        <ele>11.3</ele>
        <time>2021-05-23T10:59:36Z</time>
      </trkpt>
      <trkpt lat="42.7376240" lon="-8.6610970">
        <ele>11.3</ele>
        <time>2021-05-23T10:59:37Z</time>
      </trkpt>
      <trkpt lat="42.7376240" lon="-8.6610980">
        <ele>11.3</ele>
        <time>2021-05-23T10:59:38Z</time>
      </trkpt>
      <trkpt lat="42.7376230" lon="-8.6610990">
        <ele>11.3</ele>
        <time>2021-05-23T10:59:39Z</time>
      </trkpt>
      <trkpt lat="42.7376230" lon="-8.6610990">
        <ele>11.3</ele>
        <time>2021-05-23T10:59:40Z</time>
      </trkpt>
      <trkpt lat="42.7376230" lon="-8.6611000">
        <ele>11.3</ele>
        <time>2021-05-23T10:59:41Z</time>
      </trkpt>
      <trkpt lat="42.7376220" lon="-8.6611000">
        <ele>11.3</ele>
        <time>2021-05-23T10:59:42Z</time>
      </trkpt>
      <trkpt lat="42.7376220" lon="-8.6611010">
        <ele>11.3</ele>
        <time>2021-05-23T10:59:43Z</time>
      </trkpt>
      <trkpt lat="42.7376220" lon="-8.6611010">
        <ele>11.3</ele>
        <time>2021-05-23T10:59:44Z</time>
      </trkpt>
      <trkpt lat="42.7376220" lon="-8.6611020">
        <ele>11.3</ele>
        <time>2021-05-23T10:59:45Z</time>
      </trkpt>
      <trkpt lat="42.7376210" lon="-8.6611020">
        <ele>11.3</ele>
        <time>2021-05-23T10:59:46Z</time>
      </trkpt>
      <trkpt lat="42.7376210" lon="-8.6611030">
        <ele>11.3</ele>
        <time>2021-05-23T10:59:47Z</time>
      </trkpt>
      <trkpt lat="42.7376210" lon="-8.6611030">
        <ele>11.3</ele>
        <time>2021-05-23T10:59:48Z</time>
      </trkpt>
      <trkpt lat="42.7376210" lon="-8.6611040">
        <ele>11.3</ele>
        <time>2021-05-23T10:59:49Z</time>
      </trkpt>
      <trkpt lat="42.7376200" lon="-8.6611050">
        <ele>11.3</ele>
        <time>2021-05-23T10:59:50Z</time>
      </trkpt>
      <trkpt lat="42.7376200" lon="-8.6611050">
        <ele>11.3</ele>
        <time>2021-05-23T10:59:51Z</time>
      </trkpt>
      <trkpt lat="42.7376200" lon="-8.6611060">
        <ele>11.3</ele>
        <time>2021-05-23T10:59:52Z</time>
      </trkpt>
      <trkpt lat="42.7376200" lon="-8.6611060">
        <ele>11.3</ele>
        <time>2021-05-23T10:59:53Z</time>
      </trkpt>
      <trkpt lat="42.7376190" lon="-8.6611070">
        <ele>11.3</ele>
        <time>2021-05-23T10:59:54Z</time>
      </trkpt>
      <trkpt lat="42.7376190" lon="-8.6611070">
        <ele>11.3</ele>
        <time>2021-05-23T10:59:55Z</time>
      </trkpt>
      <trkpt lat="42.7376190" lon="-8.6611080">
        <ele>11.3</ele>
        <time>2021-05-23T10:59:56Z</time>
      </trkpt>
      <trkpt lat="42.7376190" lon="-8.6611080">
        <ele>11.3</ele>
        <time>2021-05-23T10:59:57Z</time>
      </trkpt>
      <trkpt lat="42.7376180" lon="-8.6611090">
        <ele>11.3</ele>
        <time>2021-05-23T10:59:58Z</time>
      </trkpt>
      <trkpt lat="42.7376180" lon="-8.6611100">
        <ele>11.3</ele>
        <time>2021-05-23T10:59:59Z</time>
      </trkpt>
      <trkpt lat="42.7376180" lon="-8.6611100">
        <ele>11.3</ele>
        <time>2021-05-23T11:00:00Z</time>
      </trkpt>
      <trkpt lat="42.7376180" lon="-8.6611110">
        <ele>11.3</ele>
        <time>2021-05-23T11:00:01Z</time>
      </trkpt>
      <trkpt lat="42.7376170" lon="-8.6611110">
        <ele>11.3</ele>
        <time>2021-05-23T11:00:02Z</time>
      </trkpt>
      <trkpt lat="42.7376170" lon="-8.6611120">
        <ele>11.3</ele>
        <time>2021-05-23T11:00:03Z</time>
      </trkpt>
      <trkpt lat="42.7376170" lon="-8.6611120">
        <ele>11.3</ele>
        <time>2021-05-23T11:00:04Z</time>
      </trkpt>
      <trkpt lat="42.7376170" lon="-8.6611130">
        <ele>11.3</ele>
        <time>2021-05-23T11:00:05Z</time>
      </trkpt>
      <trkpt lat="42.7376160" lon="-8.6611130">
        <ele>11.3</ele>
        <time>2021-05-23T11:00:06Z</time>
      </trkpt>
      <trkpt lat="42.7376160" lon="-8.6611140">
        <ele>11.3</ele>
        <time>2021-05-23T11:00:07Z</time>
      </trkpt>
      <trkpt lat="42.7376160" lon="-8.6611140">
        <ele>11.3</ele>
        <time>2021-05-23T11:00:08Z</time>
      </trkpt>
      <trkpt lat="42.7376150" lon="-8.6611150">
        <ele>11.3</ele>
        <time>2021-05-23T11:00:09Z</time>
      </trkpt>
      <trkpt lat="42.7376150" lon="-8.6611160">
        <ele>11.3</ele>
        <time>2021-05-23T11:00:10Z</time>
      </trkpt>
      <trkpt lat="42.7376150" lon="-8.6611160">
        <ele>11.3</ele>
        <time>2021-05-23T11:00:11Z</time>
      </trkpt>
      <trkpt lat="42.7376150" lon="-8.6611170">
        <ele>11.3</ele>
        <time>2021-05-23T11:00:12Z</time>
      </trkpt>
      <trkpt lat="42.7376140" lon="-8.6611170">
        <ele>11.3</ele>
        <time>2021-05-23T11:00:13Z</time>
      </trkpt>
      <trkpt lat="42.7376140" lon="-8.6611180">
        <ele>11.3</ele>
        <time>2021-05-23T11:00:14Z</time>
      </trkpt>
      <trkpt lat="42.7376140" lon="-8.6611180">
        <ele>11.3</ele>
        <time>2021-05-23T11:00:15Z</time>
      </trkpt>
      <trkpt lat="42.7376140" lon="-8.6611190">
        <ele>11.3</ele>
        <time>2021-05-23T11:00:16Z</time>
      </trkpt>
      <trkpt lat="42.7376130" lon="-8.6611190">
        <ele>11.3</ele>
        <time>2021-05-23T11:00:17Z</time>
      </trkpt>
      <trkpt lat="42.7376130" lon="-8.6611200">
        <ele>11.3</ele>
        <time>2021-05-23T11:00:18Z</time>
      </trkpt>
      <trkpt lat="42.7376130" lon="-8.6611210">
        <ele>11.3</ele>
        <time>2021-05-23T11:00:19Z</time>
      </trkpt>
      <trkpt lat="42.7376130" lon="-8.6611210">
        <ele>11.3</ele>
        <time>2021-05-23T11:00:20Z</time>
      </trkpt>
      <trkpt lat="42.7376120" lon="-8.6611220">
        <ele>11.3</ele>
        <time>2021-05-23T11:00:21Z</time>
      </trkpt>
      <trkpt lat="42.7376120" lon="-8.6611220">
        <ele>11.3</ele>
        <time>2021-05-23T11:00:22Z</time>
      </trkpt>
      <trkpt lat="42.7376120" lon="-8.6611230">
        <ele>11.3</ele>
        <time>2021-05-23T11:00:23Z</time>
      </trkpt>
      <trkpt lat="42.7376120" lon="-8.6611230">
        <ele>11.3</ele>
        <time>2021-05-23T11:00:24Z</time>
      </trkpt>
      <trkpt lat="42.7376110" lon="-8.6611240">
        <ele>11.3</ele>
        <time>2021-05-23T11:00:25Z</time>
      </trkpt>
      <trkpt lat="42.7376110" lon="-8.6611240">
        <ele>11.3</ele>
        <time>2021-05-23T11:00:26Z</time>
      </trkpt>
      <trkpt lat="42.7376110" lon="-8.6611250">
        <ele>11.3</ele>
        <time>2021-05-23T11:00:27Z</time>
      </trkpt>
      <trkpt lat="42.7376110" lon="-8.6611250">
        <ele>11.3</ele>
        <time>2021-05-23T11:00:28Z</time>
      </trkpt>
      <trkpt lat="42.7376100" lon="-8.6611260">
        <ele>11.3</ele>
        <time>2021-05-23T11:00:29Z</time>
      </trkpt>
      <trkpt lat="42.7376100" lon="-8.6611270">
        <ele>11.3</ele>
        <time>2021-05-23T11:00:30Z</time>
      </trkpt>
      <trkpt lat="42.7376100" lon="-8.6611270">
        <ele>11.3</ele>
        <time>2021-05-23T11:00:31Z</time>
      </trkpt>
      <trkpt lat="42.7376100" lon="-8.6611280">
        <ele>11.3</ele>
        <time>2021-05-23T11:00:32Z</time>
      </trkpt>
      <trkpt lat="42.7376090" lon="-8.6611280">
        <ele>11.3</ele>
        <time>2021-05-23T11:00:33Z</time>
      </trkpt>
      <trkpt lat="42.7376090" lon="-8.6611290">
        <ele>11.3</ele>
        <time>2021-05-23T11:00:34Z</time>
      </trkpt>
      <trkpt lat="42.7376090" lon="-8.6611290">
        <ele>11.3</ele>
        <time>2021-05-23T11:00:35Z</time>
      </trkpt>
      <trkpt lat="42.7376090" lon="-8.6611300">
        <ele>11.3</ele>
        <time>2021-05-23T11:00:36Z</time>
      </trkpt>
      <trkpt lat="42.7376080" lon="-8.6611300">
        <ele>11.3</ele>
        <time>2021-05-23T11:00:37Z</time>
      </trkpt>
      <trkpt lat="42.7376080" lon="-8.6611310">
        <ele>11.3</ele>
        <time>2021-05-23T11:00:38Z</time>
      </trkpt>
      <trkpt lat="42.7376080" lon="-8.6611310">
        <ele>11.3</ele>
        <time>2021-05-23T11:00:39Z</time>
      </trkpt>
      <trkpt lat="42.7376080" lon="-8.6611310">
        <ele>11.3</ele>
        <time>2021-05-23T11:00:40Z</time>
      </trkpt>
      <trkpt lat="42.7376080" lon="-8.6611300">
        <ele>11.3</ele>
        <time>2021-05-23T11:00:41Z</time>
      </trkpt>
      <trkpt lat="42.7376080" lon="-8.6611300">
        <ele>11.3</ele>
        <time>2021-05-23T11:00:42Z</time>
      </trkpt>
      <trkpt lat="42.7376080" lon="-8.6611300">
        <ele>11.3</ele>
        <time>2021-05-23T11:00:43Z</time>
      </trkpt>
      <trkpt lat="42.7376080" lon="-8.6611300">
        <ele>11.3</ele>
        <time>2021-05-23T11:00:44Z</time>
      </trkpt>
      <trkpt lat="42.7376090" lon="-8.6611290">
        <ele>11.3</ele>
        <time>2021-05-23T11:00:45Z</time>
      </trkpt>
      <trkpt lat="42.7376090" lon="-8.6611290">
        <ele>11.3</ele>
        <time>2021-05-23T11:00:46Z</time>
      </trkpt>
      <trkpt lat="42.7376090" lon="-8.6611290">
        <ele>11.3</ele>
        <time>2021-05-23T11:00:47Z</time>
      </trkpt>
      <trkpt lat="42.7376090" lon="-8.6611290">
        <ele>11.3</ele>
        <time>2021-05-23T11:00:48Z</time>
      </trkpt>
      <trkpt lat="42.7376090" lon="-8.6611290">
        <ele>11.3</ele>
        <time>2021-05-23T11:00:49Z</time>
      </trkpt>
      <trkpt lat="42.7376090" lon="-8.6611280">
        <ele>11.3</ele>
        <time>2021-05-23T11:00:50Z</time>
      </trkpt>
      <trkpt lat="42.7376090" lon="-8.6611280">
        <ele>11.3</ele>
        <time>2021-05-23T11:00:51Z</time>
      </trkpt>
      <trkpt lat="42.7376090" lon="-8.6611280">
        <ele>11.3</ele>
        <time>2021-05-23T11:00:52Z</time>
      </trkpt>
      <trkpt lat="42.7376090" lon="-8.6611280">
        <ele>11.3</ele>
        <time>2021-05-23T11:00:53Z</time>
      </trkpt>
      <trkpt lat="42.7376090" lon="-8.6611270">
        <ele>11.3</ele>
        <time>2021-05-23T11:00:54Z</time>
      </trkpt>
      <trkpt lat="42.7376090" lon="-8.6611270">
        <ele>11.3</ele>
        <time>2021-05-23T11:00:55Z</time>
      </trkpt>
      <trkpt lat="42.7376090" lon="-8.6611270">
        <ele>11.3</ele>
        <time>2021-05-23T11:00:56Z</time>
      </trkpt>
      <trkpt lat="42.7376100" lon="-8.6611270">
        <ele>11.3</ele>
        <time>2021-05-23T11:00:57Z</time>
      </trkpt>
      <trkpt lat="42.7376100" lon="-8.6611270">
        <ele>11.3</ele>
        <time>2021-05-23T11:00:58Z</time>
      </trkpt>
      <trkpt lat="42.7376100" lon="-8.6611260">
        <ele>11.3</ele>
        <time>2021-05-23T11:00:59Z</time>
      </trkpt>
      <trkpt lat="42.7376100" lon="-8.6611260">
        <ele>11.3</ele>
        <time>2021-05-23T11:01:00Z</time>
      </trkpt>
      <trkpt lat="42.7376100" lon="-8.6611260">
        <ele>11.3</ele>
        <time>2021-05-23T11:01:01Z</time>
      </trkpt>
      <trkpt lat="42.7376100" lon="-8.6611260">
        <ele>11.3</ele>
        <time>2021-05-23T11:01:02Z</time>
      </trkpt>
      <trkpt lat="42.7376100" lon="-8.6611250">
        <ele>11.3</ele>
        <time>2021-05-23T11:01:03Z</time>
      </trkpt>
      <trkpt lat="42.7376100" lon="-8.6611250">
        <ele>11.3</ele>
        <time>2021-05-23T11:01:04Z</time>
      </trkpt>
      <trkpt lat="42.7376100" lon="-8.6611250">
        <ele>11.3</ele>
        <time>2021-05-23T11:01:05Z</time>
      </trkpt>
      <trkpt lat="42.7376100" lon="-8.6611250">
        <ele>11.3</ele>
        <time>2021-05-23T11:01:06Z</time>
      </trkpt>
      <trkpt lat="42.7376100" lon="-8.6611250">
        <ele>11.3</ele>
        <time>2021-05-23T11:01:07Z</time>
      </trkpt>
      <trkpt lat="42.7376100" lon="-8.6611240">
        <ele>11.3</ele>
        <time>2021-05-23T11:01:08Z</time>
      </trkpt>
      <trkpt lat="42.7376100" lon="-8.6611240">
        <ele>11.3</ele>
        <time>2021-05-23T11:01:09Z</time>
      </trkpt>
      <trkpt lat="42.7376110" lon="-8.6611240">
        <ele>11.3</ele>
        <time>2021-05-23T11:01:10Z</time>
      </trkpt>
      <trkpt lat="42.7376110" lon="-8.6611240">
        <ele>11.3</ele>
        <time>2021-05-23T11:01:11Z</time>
      </trkpt>
      <trkpt lat="42.7376110" lon="-8.6611230">
        <ele>11.3</ele>
        <time>2021-05-23T11:01:12Z</time>
      </trkpt>
      <trkpt lat="42.7376110" lon="-8.6611230">
        <ele>11.3</ele>
        <time>2021-05-23T11:01:13Z</time>
      </trkpt>
      <trkpt lat="42.7376110" lon="-8.6611230">
        <ele>11.3</ele>
        <time>2021-05-23T11:01:14Z</time>
      </trkpt>
      <trkpt lat="42.7376110" lon="-8.6611230">
        <ele>11.3</ele>
        <time>2021-05-23T11:01:15Z</time>
      </trkpt>
      <trkpt lat="42.7376110" lon="-8.6611230">
        <ele>11.3</ele>
        <time>2021-05-23T11:01:16Z</time>
      </trkpt>
      <trkpt lat="42.7376110" lon="-8.6611220">
        <ele>11.3</ele>
        <time>2021-05-23T11:01:17Z</time>
      </trkpt>
      <trkpt lat="42.7376110" lon="-8.6611220">
        <ele>11.3</ele>
        <time>2021-05-23T11:01:18Z</time>
      </trkpt>
      <trkpt lat="42.7376110" lon="-8.6611220">
        <ele>11.3</ele>
        <time>2021-05-23T11:01:19Z</time>
      </trkpt>
      <trkpt lat="42.7376110" lon="-8.6611220">
        <ele>11.3</ele>
        <time>2021-05-23T11:01:20Z</time>
      </trkpt>
      <trkpt lat="42.7376110" lon="-8.6611210">
        <ele>11.3</ele>
        <time>2021-05-23T11:01:21Z</time>
      </trkpt>
      <trkpt lat="42.7376120" lon="-8.6611210">
        <ele>11.3</ele>
        <time>2021-05-23T11:01:22Z</time>
      </trkpt>
      <trkpt lat="42.7376120" lon="-8.6611210">
        <ele>11.3</ele>
        <time>2021-05-23T11:01:23Z</time>
      </trkpt>
      <trkpt lat="42.7376120" lon="-8.6611210">
        <ele>11.3</ele>
        <time>2021-05-23T11:01:24Z</time>
      </trkpt>
      <trkpt lat="42.7376120" lon="-8.6611200">
        <ele>11.3</ele>
        <time>2021-05-23T11:01:25Z</time>
      </trkpt>
      <trkpt lat="42.7376120" lon="-8.6611200">
        <ele>11.3</ele>
        <time>2021-05-23T11:01:26Z</time>
      </trkpt>
      <trkpt lat="42.7376120" lon="-8.6611200">
        <ele>11.3</ele>
        <time>2021-05-23T11:01:27Z</time>
      </trkpt>
      <trkpt lat="42.7376120" lon="-8.6611200">
        <ele>11.3</ele>
        <time>2021-05-23T11:01:28Z</time>
      </trkpt>
      <trkpt lat="42.7376120" lon="-8.6611200">
        <ele>11.3</ele>
        <time>2021-05-23T11:01:29Z</time>
      </trkpt>
      <trkpt lat="42.7376120" lon="-8.6611190">
        <ele>11.3</ele>
        <time>2021-05-23T11:01:30Z</time>
      </trkpt>
      <trkpt lat="42.7376120" lon="-8.6611190">
        <ele>11.3</ele>
        <time>2021-05-23T11:01:31Z</time>
      </trkpt>
      <trkpt lat="42.7376120" lon="-8.6611190">
        <ele>11.3</ele>
        <time>2021-05-23T11:01:32Z</time>
      </trkpt>
      <trkpt lat="42.7376120" lon="-8.6611190">
        <ele>11.3</ele>
        <time>2021-05-23T11:01:33Z</time>
      </trkpt>
      <trkpt lat="42.7376120" lon="-8.6611180">
        <ele>11.3</ele>
        <time>2021-05-23T11:01:34Z</time>
      </trkpt>
      <trkpt lat="42.7376130" lon="-8.6611180">
        <ele>11.3</ele>
        <time>2021-05-23T11:01:35Z</time>
      </trkpt>
      <trkpt lat="42.7376130" lon="-8.6611180">
        <ele>11.3</ele>
        <time>2021-05-23T11:01:36Z</time>
      </trkpt>
      <trkpt lat="42.7376130" lon="-8.6611180">
        <ele>11.3</ele>
        <time>2021-05-23T11:01:37Z</time>
      </trkpt>
      <trkpt lat="42.7376130" lon="-8.6611180">
        <ele>11.3</ele>
        <time>2021-05-23T11:01:38Z</time>
      </trkpt>
      <trkpt lat="42.7376130" lon="-8.6611170">
        <ele>11.3</ele>
        <time>2021-05-23T11:01:39Z</time>
      </trkpt>
      <trkpt lat="42.7376130" lon="-8.6611170">
        <ele>11.3</ele>
        <time>2021-05-23T11:01:40Z</time>
      </trkpt>
      <trkpt lat="42.7376130" lon="-8.6611170">
        <ele>11.3</ele>
        <time>2021-05-23T11:01:41Z</time>
      </trkpt>
      <trkpt lat="42.7376130" lon="-8.6611170">
        <ele>11.3</ele>
        <time>2021-05-23T11:01:42Z</time>
      </trkpt>
      <trkpt lat="42.7376130" lon="-8.6611160">
        <ele>11.3</ele>
        <time>2021-05-23T11:01:43Z</time>
      </trkpt>
      <trkpt lat="42.7376130" lon="-8.6611160">
        <ele>11.3</ele>
        <time>2021-05-23T11:01:44Z</time>
      </trkpt>
      <trkpt lat="42.7376130" lon="-8.6611160">
        <ele>11.3</ele>
        <time>2021-05-23T11:01:45Z</time>
      </trkpt>
      <trkpt lat="42.7376130" lon="-8.6611160">
        <ele>11.3</ele>
        <time>2021-05-23T11:01:46Z</time>
      </trkpt>
      <trkpt lat="42.7376140" lon="-8.6611160">
        <ele>11.3</ele>
        <time>2021-05-23T11:01:47Z</time>
      </trkpt>
      <trkpt lat="42.7376140" lon="-8.6611150">
        <ele>11.3</ele>
        <time>2021-05-23T11:01:48Z</time>
      </trkpt>
      <trkpt lat="42.7376140" lon="-8.6611150">
        <ele>11.3</ele>
        <time>2021-05-23T11:01:49Z</time>
      </trkpt>
      <trkpt lat="42.7376140" lon="-8.6611150">
        <ele>11.3</ele>
        <time>2021-05-23T11:01:50Z</time>
      </trkpt>
      <trkpt lat="42.7376140" lon="-8.6611150">
        <ele>11.3</ele>
        <time>2021-05-23T11:01:51Z</time>
      </trkpt>
      <trkpt lat="42.7376140" lon="-8.6611140">
        <ele>11.3</ele>
        <time>2021-05-23T11:01:52Z</time>
      </trkpt>
      <trkpt lat="42.7376140" lon="-8.6611140">
        <ele>11.3</ele>
        <time>2021-05-23T11:01:53Z</time>
      </trkpt>
      <trkpt lat="42.7376140" lon="-8.6611140">
        <ele>11.3</ele>
        <time>2021-05-23T11:01:54Z</time>
      </trkpt>
      <trkpt lat="42.7376140" lon="-8.6611140">
        <ele>11.3</ele>
        <time>2021-05-23T11:01:55Z</time>
      </trkpt>
      <trkpt lat="42.7376140" lon="-8.6611140">
        <ele>11.3</ele>
        <time>2021-05-23T11:01:56Z</time>
      </trkpt>
      <trkpt lat="42.7376140" lon="-8.6611130">
        <ele>11.3</ele>
        <time>2021-05-23T11:01:57Z</time>
      </trkpt>
      <trkpt lat="42.7376140" lon="-8.6611130">
        <ele>11.3</ele>
        <time>2021-05-23T11:01:58Z</time>
      </trkpt>
      <trkpt lat="42.7376140" lon="-8.6611130">
        <ele>11.3</ele>
        <time>2021-05-23T11:01:59Z</time>
      </trkpt>
      <trkpt lat="42.7376150" lon="-8.6611130">
        <ele>11.3</ele>
        <time>2021-05-23T11:02:00Z</time>
      </trkpt>
      <trkpt lat="42.7376150" lon="-8.6611120">
        <ele>11.3</ele>
        <time>2021-05-23T11:02:01Z</time>
      </trkpt>
      <trkpt lat="42.7376150" lon="-8.6611120">
        <ele>11.3</ele>
        <time>2021-05-23T11:02:02Z</time>
      </trkpt>
      <trkpt lat="42.7376150" lon="-8.6611120">
        <ele>11.3</ele>
        <time>2021-05-23T11:02:03Z</time>
      </trkpt>
      <trkpt lat="42.7376150" lon="-8.6611120">
        <ele>11.3</ele>
        <time>2021-05-23T11:02:04Z</time>
      </trkpt>
      <trkpt lat="42.7376150" lon="-8.6611120">
        <ele>11.3</ele>
        <time>2021-05-23T11:02:05Z</time>
      </trkpt>
      <trkpt lat="42.7376150" lon="-8.6611110">
        <ele>11.3</ele>
        <time>2021-05-23T11:02:06Z</time>
      </trkpt>
      <trkpt lat="42.7376150" lon="-8.6611110">
        <ele>11.3</ele>
        <time>2021-05-23T11:02:07Z</time>
      </trkpt>
      <trkpt lat="42.7376150" lon="-8.6611110">
        <ele>11.3</ele>
        <time>2021-05-23T11:02:08Z</time>
      </trkpt>
      <trkpt lat="42.7376150" lon="-8.6611110">
        <ele>11.3</ele>
        <time>2021-05-23T11:02:09Z</time>
      </trkpt>
      <trkpt lat="42.7376150" lon="-8.6611100">
        <ele>11.3</ele>
        <time>2021-05-23T11:02:10Z</time>
      </trkpt>
      <trkpt lat="42.7376150" lon="-8.6611100">
        <ele>11.3</ele>
        <time>2021-05-23T11:02:11Z</time>
      </trkpt>
      <trkpt lat="42.7376160" lon="-8.6611100">
        <ele>11.3</ele>
        <time>2021-05-23T11:02:12Z</time>
      </trkpt>
      <trkpt lat="42.7376160" lon="-8.6611100">
        <ele>11.3</ele>
        <time>2021-05-23T11:02:13Z</time>
      </trkpt>
      <trkpt lat="42.7376160" lon="-8.6611100">
        <ele>11.3</ele>
        <time>2021-05-23T11:02:14Z</time>
      </trkpt>
      <trkpt lat="42.7376160" lon="-8.6611090">
        <ele>11.3</ele>
        <time>2021-05-23T11:02:15Z</time>
      </trkpt>
      <trkpt lat="42.7376160" lon="-8.6611090">
        <ele>11.3</ele>
        <time>2021-05-23T11:02:16Z</time>
      </trkpt>
      <trkpt lat="42.7376160" lon="-8.6611090">
        <ele>11.3</ele>
        <time>2021-05-23T11:02:17Z</time>
      </trkpt>
      <trkpt lat="42.7376160" lon="-8.6611090">
        <ele>11.3</ele>
        <time>2021-05-23T11:02:18Z</time>
      </trkpt>
      <trkpt lat="42.7376160" lon="-8.6611080">
        <ele>11.3</ele>
        <time>2021-05-23T11:02:19Z</time>
      </trkpt>
      <trkpt lat="42.7376160" lon="-8.6611080">
        <ele>11.3</ele>
        <time>2021-05-23T11:02:20Z</time>
      </trkpt>
      <trkpt lat="42.7376160" lon="-8.6611080">
        <ele>11.3</ele>
        <time>2021-05-23T11:02:21Z</time>
      </trkpt>
      <trkpt lat="42.7376160" lon="-8.6611080">
        <ele>11.3</ele>
        <time>2021-05-23T11:02:22Z</time>
      </trkpt>
      <trkpt lat="42.7376160" lon="-8.6611080">
        <ele>11.3</ele>
        <time>2021-05-23T11:02:23Z</time>
      </trkpt>
      <trkpt lat="42.7376160" lon="-8.6611070">
        <ele>11.3</ele>
        <time>2021-05-23T11:02:24Z</time>
      </trkpt>
      <trkpt lat="42.7376170" lon="-8.6611070">
        <ele>11.3</ele>
        <time>2021-05-23T11:02:25Z</time>
      </trkpt>
      <trkpt lat="42.7376170" lon="-8.6611070">
        <ele>11.3</ele>
        <time>2021-05-23T11:02:26Z</time>
      </trkpt>
      <trkpt lat="42.7376170" lon="-8.6611070">
        <ele>11.3</ele>
        <time>2021-05-23T11:02:27Z</time>
      </trkpt>
      <trkpt lat="42.7376170" lon="-8.6611060">
        <ele>11.3</ele>
        <time>2021-05-23T11:02:28Z</time>
      </trkpt>
      <trkpt lat="42.7376170" lon="-8.6611060">
        <ele>11.3</ele>
        <time>2021-05-23T11:02:29Z</time>
      </trkpt>
      <trkpt lat="42.7376170" lon="-8.6611060">
        <ele>11.3</ele>
        <time>2021-05-23T11:02:30Z</time>
      </trkpt>
      <trkpt lat="42.7376170" lon="-8.6611060">
        <ele>11.3</ele>
        <time>2021-05-23T11:02:31Z</time>
      </trkpt>
      <trkpt lat="42.7376170" lon="-8.6611060">
        <ele>11.3</ele>
        <time>2021-05-23T11:02:32Z</time>
      </trkpt>
      <trkpt lat="42.7376170" lon="-8.6611050">
        <ele>11.3</ele>
        <time>2021-05-23T11:02:33Z</time>
      </trkpt>
      <trkpt lat="42.7376170" lon="-8.6611050">
        <ele>11.3</ele>
        <time>2021-05-23T11:02:34Z</time>
      </trkpt>
      <trkpt lat="42.7376170" lon="-8.6611050">
        <ele>11.3</ele>
        <time>2021-05-23T11:02:35Z</time>
      </trkpt>
      <trkpt lat="42.7376170" lon="-8.6611050">
        <ele>11.3</ele>
        <time>2021-05-23T11:02:36Z</time>
      </trkpt>
      <trkpt lat="42.7376180" lon="-8.6611040">
        <ele>11.3</ele>
        <time>2021-05-23T11:02:37Z</time>
      </trkpt>
      <trkpt lat="42.7376180" lon="-8.6611040">
        <ele>11.3</ele>
        <time>2021-05-23T11:02:38Z</time>
      </trkpt>
      <trkpt lat="42.7376180" lon="-8.6611040">
        <ele>11.3</ele>
        <time>2021-05-23T11:02:39Z</time>
      </trkpt>
      <trkpt lat="42.7376180" lon="-8.6611040">
        <ele>11.3</ele>
        <time>2021-05-23T11:02:40Z</time>
      </trkpt>
      <trkpt lat="42.7376180" lon="-8.6611030">
        <ele>11.3</ele>
        <time>2021-05-23T11:02:41Z</time>
      </trkpt>
      <trkpt lat="42.7376180" lon="-8.6611030">
        <ele>11.3</ele>
        <time>2021-05-23T11:02:42Z</time>
      </trkpt>
      <trkpt lat="42.7376180" lon="-8.6611030">
        <ele>11.3</ele>
        <time>2021-05-23T11:02:43Z</time>
      </trkpt>
      <trkpt lat="42.7376180" lon="-8.6611030">
        <ele>11.3</ele>
        <time>2021-05-23T11:02:44Z</time>
      </trkpt>
      <trkpt lat="42.7376180" lon="-8.6611030">
        <ele>11.3</ele>
        <time>2021-05-23T11:02:45Z</time>
      </trkpt>
      <trkpt lat="42.7376180" lon="-8.6611020">
        <ele>11.3</ele>
        <time>2021-05-23T11:02:46Z</time>
      </trkpt>
      <trkpt lat="42.7376180" lon="-8.6611020">
        <ele>11.3</ele>
        <time>2021-05-23T11:02:47Z</time>
      </trkpt>
      <trkpt lat="42.7376180" lon="-8.6611020">
        <ele>11.3</ele>
        <time>2021-05-23T11:02:48Z</time>
      </trkpt>
      <trkpt lat="42.7376190" lon="-8.6611020">
        <ele>11.3</ele>
        <time>2021-05-23T11:02:49Z</time>
      </trkpt>
      <trkpt lat="42.7376190" lon="-8.6611010">
        <ele>11.3</ele>
        <time>2021-05-23T11:02:50Z</time>
      </trkpt>
      <trkpt lat="42.7376190" lon="-8.6611010">
        <ele>11.3</ele>
        <time>2021-05-23T11:02:51Z</time>
      </trkpt>
      <trkpt lat="42.7376190" lon="-8.6611010">
        <ele>11.3</ele>
        <time>2021-05-23T11:02:52Z</time>
      </trkpt>
      <trkpt lat="42.7376190" lon="-8.6611010">
        <ele>11.3</ele>
        <time>2021-05-23T11:02:53Z</time>
      </trkpt>
      <trkpt lat="42.7376190" lon="-8.6611010">
        <ele>11.3</ele>
        <time>2021-05-23T11:02:54Z</time>
      </trkpt>
      <trkpt lat="42.7376190" lon="-8.6611000">
        <ele>11.3</ele>
        <time>2021-05-23T11:02:55Z</time>
      </trkpt>
      <trkpt lat="42.7376190" lon="-8.6611000">
        <ele>11.3</ele>
        <time>2021-05-23T11:02:56Z</time>
      </trkpt>
      <trkpt lat="42.7376190" lon="-8.6611000">
        <ele>11.3</ele>
        <time>2021-05-23T11:02:57Z</time>
      </trkpt>
      <trkpt lat="42.7376190" lon="-8.6611000">
        <ele>11.3</ele>
        <time>2021-05-23T11:02:58Z</time>
      </trkpt>
      <trkpt lat="42.7376190" lon="-8.6610990">
        <ele>11.3</ele>
        <time>2021-05-23T11:02:59Z</time>
      </trkpt>
      <trkpt lat="42.7376190" lon="-8.6610990">
        <ele>11.3</ele>
        <time>2021-05-23T11:03:00Z</time>
      </trkpt>
      <trkpt lat="42.7376190" lon="-8.6610990">
        <ele>11.3</ele>
        <time>2021-05-23T11:03:01Z</time>
      </trkpt>
      <trkpt lat="42.7376200" lon="-8.6610990">
        <ele>11.3</ele>
        <time>2021-05-23T11:03:02Z</time>
      </trkpt>
      <trkpt lat="42.7376200" lon="-8.6610990">
        <ele>11.3</ele>
        <time>2021-05-23T11:03:03Z</time>
      </trkpt>
      <trkpt lat="42.7376200" lon="-8.6610980">
        <ele>11.3</ele>
        <time>2021-05-23T11:03:04Z</time>
      </trkpt>
      <trkpt lat="42.7376200" lon="-8.6610980">
        <ele>11.3</ele>
        <time>2021-05-23T11:03:05Z</time>
      </trkpt>
      <trkpt lat="42.7376200" lon="-8.6610980">
        <ele>11.3</ele>
        <time>2021-05-23T11:03:06Z</time>
      </trkpt>
      <trkpt lat="42.7376200" lon="-8.6610980">
        <ele>11.3</ele>
        <time>2021-05-23T11:03:07Z</time>
      </trkpt>
      <trkpt lat="42.7376200" lon="-8.6610970">
        <ele>11.3</ele>
        <time>2021-05-23T11:03:08Z</time>
      </trkpt>
      <trkpt lat="42.7376200" lon="-8.6610970">
        <ele>11.3</ele>
        <time>2021-05-23T11:03:09Z</time>
      </trkpt>
      <trkpt lat="42.7376200" lon="-8.6610970">
        <ele>11.3</ele>
        <time>2021-05-23T11:03:10Z</time>
      </trkpt>
      <trkpt lat="42.7376200" lon="-8.6610970">
        <ele>11.3</ele>
        <time>2021-05-23T11:03:11Z</time>
      </trkpt>
      <trkpt lat="42.7376200" lon="-8.6610970">
        <ele>11.3</ele>
        <time>2021-05-23T11:03:12Z</time>
      </trkpt>
      <trkpt lat="42.7376200" lon="-8.6610960">
        <ele>11.3</ele>
        <time>2021-05-23T11:03:13Z</time>
      </trkpt>
      <trkpt lat="42.7376210" lon="-8.6610960">
        <ele>11.3</ele>
        <time>2021-05-23T11:03:14Z</time>
      </trkpt>
      <trkpt lat="42.7376210" lon="-8.6610960">
        <ele>11.3</ele>
        <time>2021-05-23T11:03:15Z</time>
      </trkpt>
      <trkpt lat="42.7376210" lon="-8.6610960">
        <ele>11.3</ele>
        <time>2021-05-23T11:03:16Z</time>
      </trkpt>
      <trkpt lat="42.7376210" lon="-8.6610950">
        <ele>11.3</ele>
        <time>2021-05-23T11:03:17Z</time>
      </trkpt>
      <trkpt lat="42.7376210" lon="-8.6610950">
        <ele>11.3</ele>
        <time>2021-05-23T11:03:18Z</time>
      </trkpt>
      <trkpt lat="42.7376210" lon="-8.6610950">
        <ele>11.3</ele>
        <time>2021-05-23T11:03:19Z</time>
      </trkpt>
      <trkpt lat="42.7376210" lon="-8.6610950">
        <ele>11.3</ele>
        <time>2021-05-23T11:03:20Z</time>
      </trkpt>
      <trkpt lat="42.7376210" lon="-8.6610950">
        <ele>11.3</ele>
        <time>2021-05-23T11:03:21Z</time>
      </trkpt>
      <trkpt lat="42.7376210" lon="-8.6610940">
        <ele>11.3</ele>
        <time>2021-05-23T11:03:22Z</time>
      </trkpt>
      <trkpt lat="42.7376210" lon="-8.6610940">
        <ele>11.3</ele>
        <time>2021-05-23T11:03:23Z</time>
      </trkpt>
      <trkpt lat="42.7376210" lon="-8.6610940">
        <ele>11.3</ele>
        <time>2021-05-23T11:03:24Z</time>
      </trkpt>
      <trkpt lat="42.7376210" lon="-8.6610940">
        <ele>11.3</ele>
        <time>2021-05-23T11:03:25Z</time>
      </trkpt>
      <trkpt lat="42.7376210" lon="-8.6610930">
        <ele>11.3</ele>
        <time>2021-05-23T11:03:26Z</time>
      </trkpt>
      <trkpt lat="42.7376220" lon="-8.6610930">
        <ele>11.3</ele>
        <time>2021-05-23T11:03:27Z</time>
      </trkpt>
      <trkpt lat="42.7376220" lon="-8.6610930">
        <ele>11.3</ele>
        <time>2021-05-23T11:03:28Z</time>
      </trkpt>
      <trkpt lat="42.7376220" lon="-8.6610930">
        <ele>11.3</ele>
        <time>2021-05-23T11:03:29Z</time>
      </trkpt>
      <trkpt lat="42.7376220" lon="-8.6610930">
        <ele>11.3</ele>
        <time>2021-05-23T11:03:30Z</time>
      </trkpt>
      <trkpt lat="42.7376220" lon="-8.6610920">
        <ele>11.3</ele>
        <time>2021-05-23T11:03:31Z</time>
      </trkpt>
      <trkpt lat="42.7376220" lon="-8.6610920">
        <ele>11.3</ele>
        <time>2021-05-23T11:03:32Z</time>
      </trkpt>
      <trkpt lat="42.7376220" lon="-8.6610920">
        <ele>11.3</ele>
        <time>2021-05-23T11:03:33Z</time>
      </trkpt>
      <trkpt lat="42.7376220" lon="-8.6610920">
        <ele>11.3</ele>
        <time>2021-05-23T11:03:34Z</time>
      </trkpt>
      <trkpt lat="42.7376220" lon="-8.6610910">
        <ele>11.3</ele>
        <time>2021-05-23T11:03:35Z</time>
      </trkpt>
      <trkpt lat="42.7376220" lon="-8.6610910">
        <ele>11.3</ele>
        <time>2021-05-23T11:03:36Z</time>
      </trkpt>
      <trkpt lat="42.7376220" lon="-8.6610910">
        <ele>11.3</ele>
        <time>2021-05-23T11:03:37Z</time>
      </trkpt>
      <trkpt lat="42.7376220" lon="-8.6610910">
        <ele>11.3</ele>
        <time>2021-05-23T11:03:38Z</time>
      </trkpt>
      <trkpt lat="42.7376230" lon="-8.6610910">
        <ele>11.3</ele>
        <time>2021-05-23T11:03:39Z</time>
      </trkpt>
      <trkpt lat="42.7376230" lon="-8.6610900">
        <ele>11.3</ele>
        <time>2021-05-23T11:03:40Z</time>
      </trkpt>
      <trkpt lat="42.7376230" lon="-8.6610900">
        <ele>11.3</ele>
        <time>2021-05-23T11:03:41Z</time>
      </trkpt>
      <trkpt lat="42.7376230" lon="-8.6610900">
        <ele>11.3</ele>
        <time>2021-05-23T11:03:42Z</time>
      </trkpt>
      <trkpt lat="42.7376230" lon="-8.6610900">
        <ele>11.3</ele>
        <time>2021-05-23T11:03:43Z</time>
      </trkpt>
      <trkpt lat="42.7376230" lon="-8.6610890">
        <ele>11.3</ele>
        <time>2021-05-23T11:03:44Z</time>
      </trkpt>
      <trkpt lat="42.7376230" lon="-8.6610890">
        <ele>11.3</ele>
        <time>2021-05-23T11:03:45Z</time>
      </trkpt>
      <trkpt lat="42.7376230" lon="-8.6610890">
        <ele>11.3</ele>
        <time>2021-05-23T11:03:46Z</time>
      </trkpt>
      <trkpt lat="42.7376230" lon="-8.6610890">
        <ele>11.3</ele>
        <time>2021-05-23T11:03:47Z</time>
      </trkpt>
      <trkpt lat="42.7376230" lon="-8.6610890">
        <ele>11.3</ele>
        <time>2021-05-23T11:03:48Z</time>
      </trkpt>
      <trkpt lat="42.7376230" lon="-8.6610880">
        <ele>11.3</ele>
        <time>2021-05-23T11:03:49Z</time>
      </trkpt>
      <trkpt lat="42.7376230" lon="-8.6610880">
        <ele>11.3</ele>
        <time>2021-05-23T11:03:50Z</time>
      </trkpt>
      <trkpt lat="42.7376230" lon="-8.6610880">
        <ele>11.3</ele>
        <time>2021-05-23T11:03:51Z</time>
      </trkpt>
      <trkpt lat="42.7376240" lon="-8.6610880">
        <ele>11.3</ele>
        <time>2021-05-23T11:03:52Z</time>
      </trkpt>
      <trkpt lat="42.7376240" lon="-8.6610870">
        <ele>11.3</ele>
        <time>2021-05-23T11:03:53Z</time>
      </trkpt>
      <trkpt lat="42.7376240" lon="-8.6610870">
        <ele>11.3</ele>
        <time>2021-05-23T11:03:54Z</time>
      </trkpt>
      <trkpt lat="42.7376240" lon="-8.6610870">
        <ele>11.3</ele>
        <time>2021-05-23T11:03:55Z</time>
      </trkpt>
      <trkpt lat="42.7376240" lon="-8.6610870">
        <ele>11.3</ele>
        <time>2021-05-23T11:03:56Z</time>
      </trkpt>
      <trkpt lat="42.7376240" lon="-8.6610860">
        <ele>11.3</ele>
        <time>2021-05-23T11:03:57Z</time>
      </trkpt>
      <trkpt lat="42.7376240" lon="-8.6610860">
        <ele>11.3</ele>
        <time>2021-05-23T11:03:58Z</time>
      </trkpt>
      <trkpt lat="42.7376240" lon="-8.6610860">
        <ele>11.3</ele>
        <time>2021-05-23T11:03:59Z</time>
      </trkpt>
      <trkpt lat="42.7376240" lon="-8.6610860">
        <ele>11.3</ele>
        <time>2021-05-23T11:04:00Z</time>
      </trkpt>
      <trkpt lat="42.7376240" lon="-8.6610860">
        <ele>11.3</ele>
        <time>2021-05-23T11:04:01Z</time>
      </trkpt>
      <trkpt lat="42.7376240" lon="-8.6610850">
        <ele>11.3</ele>
        <time>2021-05-23T11:04:02Z</time>
      </trkpt>
      <trkpt lat="42.7376240" lon="-8.6610850">
        <ele>11.3</ele>
        <time>2021-05-23T11:04:03Z</time>
      </trkpt>
      <trkpt lat="42.7376250" lon="-8.6610850">
        <ele>11.3</ele>
        <time>2021-05-23T11:04:04Z</time>
      </trkpt>
      <trkpt lat="42.7376250" lon="-8.6610850">
        <ele>11.3</ele>
        <time>2021-05-23T11:04:05Z</time>
      </trkpt>
      <trkpt lat="42.7376250" lon="-8.6610840">
        <ele>11.3</ele>
        <time>2021-05-23T11:04:06Z</time>
      </trkpt>
      <trkpt lat="42.7376250" lon="-8.6610840">
        <ele>11.3</ele>
        <time>2021-05-23T11:04:07Z</time>
      </trkpt>
      <trkpt lat="42.7376250" lon="-8.6610840">
        <ele>11.3</ele>
        <time>2021-05-23T11:04:08Z</time>
      </trkpt>
      <trkpt lat="42.7376250" lon="-8.6610840">
        <ele>11.3</ele>
        <time>2021-05-23T11:04:09Z</time>
      </trkpt>
      <trkpt lat="42.7376250" lon="-8.6610840">
        <ele>11.3</ele>
        <time>2021-05-23T11:04:10Z</time>
      </trkpt>
      <trkpt lat="42.7376250" lon="-8.6610830">
        <ele>11.3</ele>
        <time>2021-05-23T11:04:11Z</time>
      </trkpt>
      <trkpt lat="42.7376250" lon="-8.6610830">
        <ele>11.3</ele>
        <time>2021-05-23T11:04:12Z</time>
      </trkpt>
      <trkpt lat="42.7376250" lon="-8.6610830">
        <ele>11.3</ele>
        <time>2021-05-23T11:04:13Z</time>
      </trkpt>
      <trkpt lat="42.7376250" lon="-8.6610830">
        <ele>11.3</ele>
        <time>2021-05-23T11:04:14Z</time>
      </trkpt>
      <trkpt lat="42.7376250" lon="-8.6610820">
        <ele>11.3</ele>
        <time>2021-05-23T11:04:15Z</time>
      </trkpt>
      <trkpt lat="42.7376250" lon="-8.6610820">
        <ele>11.3</ele>
        <time>2021-05-23T11:04:16Z</time>
      </trkpt>
      <trkpt lat="42.7376260" lon="-8.6610820">
        <ele>11.3</ele>
        <time>2021-05-23T11:04:17Z</time>
      </trkpt>
      <trkpt lat="42.7376260" lon="-8.6610820">
        <ele>11.3</ele>
        <time>2021-05-23T11:04:18Z</time>
      </trkpt>
      <trkpt lat="42.7376260" lon="-8.6610820">
        <ele>11.3</ele>
        <time>2021-05-23T11:04:19Z</time>
      </trkpt>
      <trkpt lat="42.7376260" lon="-8.6610810">
        <ele>11.3</ele>
        <time>2021-05-23T11:04:20Z</time>
      </trkpt>
      <trkpt lat="42.7376260" lon="-8.6610810">
        <ele>11.3</ele>
        <time>2021-05-23T11:04:21Z</time>
      </trkpt>
      <trkpt lat="42.7376260" lon="-8.6610810">
        <ele>11.3</ele>
        <time>2021-05-23T11:04:22Z</time>
      </trkpt>
      <trkpt lat="42.7376260" lon="-8.6610810">
        <ele>11.3</ele>
        <time>2021-05-23T11:04:23Z</time>
      </trkpt>
      <trkpt lat="42.7376260" lon="-8.6610800">
        <ele>11.3</ele>
        <time>2021-05-23T11:04:24Z</time>
      </trkpt>
      <trkpt lat="42.7376260" lon="-8.6610800">
        <ele>11.3</ele>
        <time>2021-05-23T11:04:25Z</time>
      </trkpt>
      <trkpt lat="42.7376260" lon="-8.6610800">
        <ele>11.3</ele>
        <time>2021-05-23T11:04:26Z</time>
      </trkpt>
      <trkpt lat="42.7376260" lon="-8.6610800">
        <ele>11.3</ele>
        <time>2021-05-23T11:04:27Z</time>
      </trkpt>
      <trkpt lat="42.7376260" lon="-8.6610800">
        <ele>11.3</ele>
        <time>2021-05-23T11:04:28Z</time>
      </trkpt>
      <trkpt lat="42.7376270" lon="-8.6610790">
        <ele>11.3</ele>
        <time>2021-05-23T11:04:29Z</time>
      </trkpt>
      <trkpt lat="42.7376270" lon="-8.6610790">
        <ele>11.3</ele>
        <time>2021-05-23T11:04:30Z</time>
      </trkpt>
      <trkpt lat="42.7376270" lon="-8.6610790">
        <ele>11.3</ele>
        <time>2021-05-23T11:04:31Z</time>
      </trkpt>
      <trkpt lat="42.7376270" lon="-8.6610790">
        <ele>11.3</ele>
        <time>2021-05-23T11:04:32Z</time>
      </trkpt>
      <trkpt lat="42.7376270" lon="-8.6610780">
        <ele>11.3</ele>
        <time>2021-05-23T11:04:33Z</time>
      </trkpt>
      <trkpt lat="42.7376270" lon="-8.6610780">
        <ele>11.3</ele>
        <time>2021-05-23T11:04:34Z</time>
      </trkpt>
      <trkpt lat="42.7376270" lon="-8.6610780">
        <ele>11.3</ele>
        <time>2021-05-23T11:04:35Z</time>
      </trkpt>
      <trkpt lat="42.7376270" lon="-8.6610760">
        <ele>11.3</ele>
        <time>2021-05-23T11:04:36Z</time>
      </trkpt>
      <trkpt lat="42.7376270" lon="-8.6610750">
        <ele>11.3</ele>
        <time>2021-05-23T11:04:37Z</time>
      </trkpt>
      <trkpt lat="42.7376270" lon="-8.6610740">
        <ele>11.3</ele>
        <time>2021-05-23T11:04:38Z</time>
      </trkpt>
      <trkpt lat="42.7376280" lon="-8.6610740">
        <ele>11.3</ele>
        <time>2021-05-23T11:04:39Z</time>
      </trkpt>
      <trkpt lat="42.7376280" lon="-8.6610730">
        <ele>11.3</ele>
        <time>2021-05-23T11:04:40Z</time>
      </trkpt>
      <trkpt lat="42.7376280" lon="-8.6610720">
        <ele>11.3</ele>
        <time>2021-05-23T11:04:41Z</time>
      </trkpt>
      <trkpt lat="42.7376280" lon="-8.6610710">
        <ele>11.3</ele>
        <time>2021-05-23T11:04:42Z</time>
      </trkpt>
      <trkpt lat="42.7376280" lon="-8.6610700">
        <ele>11.3</ele>
        <time>2021-05-23T11:04:43Z</time>
      </trkpt>
      <trkpt lat="42.7376280" lon="-8.6610690">
        <ele>11.3</ele>
        <time>2021-05-23T11:04:44Z</time>
      </trkpt>
      <trkpt lat="42.7376280" lon="-8.6610680">
        <ele>11.3</ele>
        <time>2021-05-23T11:04:45Z</time>
      </trkpt>
      <trkpt lat="42.7376280" lon="-8.6610680">
        <ele>11.3</ele>
        <time>2021-05-23T11:04:46Z</time>
      </trkpt>
      <trkpt lat="42.7376290" lon="-8.6610670">
        <ele>11.4</ele>
        <time>2021-05-23T11:04:47Z</time>
      </trkpt>
      <trkpt lat="42.7376290" lon="-8.6610660">
        <ele>11.4</ele>
        <time>2021-05-23T11:04:48Z</time>
      </trkpt>
      <trkpt lat="42.7376290" lon="-8.6610650">
        <ele>11.4</ele>
        <time>2021-05-23T11:04:49Z</time>
      </trkpt>
      <trkpt lat="42.7376290" lon="-8.6610640">
        <ele>11.4</ele>
        <time>2021-05-23T11:04:50Z</time>
      </trkpt>
      <trkpt lat="42.7376290" lon="-8.6610630">
        <ele>11.4</ele>
        <time>2021-05-23T11:04:51Z</time>
      </trkpt>
      <trkpt lat="42.7376290" lon="-8.6610620">
        <ele>11.4</ele>
        <time>2021-05-23T11:04:52Z</time>
      </trkpt>
      <trkpt lat="42.7376290" lon="-8.6610620">
        <ele>11.4</ele>
        <time>2021-05-23T11:04:53Z</time>
      </trkpt>
      <trkpt lat="42.7376290" lon="-8.6610610">
        <ele>11.4</ele>
        <time>2021-05-23T11:04:54Z</time>
      </trkpt>
      <trkpt lat="42.7376300" lon="-8.6610600">
        <ele>11.4</ele>
        <time>2021-05-23T11:04:55Z</time>
      </trkpt>
      <trkpt lat="42.7376300" lon="-8.6610590">
        <ele>11.4</ele>
        <time>2021-05-23T11:04:56Z</time>
      </trkpt>
      <trkpt lat="42.7376300" lon="-8.6610580">
        <ele>11.4</ele>
        <time>2021-05-23T11:04:57Z</time>
      </trkpt>
      <trkpt lat="42.7376300" lon="-8.6610570">
        <ele>11.4</ele>
        <time>2021-05-23T11:04:58Z</time>
      </trkpt>
      <trkpt lat="42.7376300" lon="-8.6610560">
        <ele>11.4</ele>
        <time>2021-05-23T11:04:59Z</time>
      </trkpt>
      <trkpt lat="42.7376300" lon="-8.6610560">
        <ele>11.4</ele>
        <time>2021-05-23T11:05:00Z</time>
      </trkpt>
      <trkpt lat="42.7376300" lon="-8.6610550">
        <ele>11.4</ele>
        <time>2021-05-23T11:05:01Z</time>
      </trkpt>
      <trkpt lat="42.7376300" lon="-8.6610540">
        <ele>11.4</ele>
        <time>2021-05-23T11:05:02Z</time>
      </trkpt>
      <trkpt lat="42.7376310" lon="-8.6610530">
        <ele>11.4</ele>
        <time>2021-05-23T11:05:03Z</time>
      </trkpt>
      <trkpt lat="42.7376310" lon="-8.6610520">
        <ele>11.4</ele>
        <time>2021-05-23T11:05:04Z</time>
      </trkpt>
      <trkpt lat="42.7376310" lon="-8.6610510">
        <ele>11.4</ele>
        <time>2021-05-23T11:05:05Z</time>
      </trkpt>
      <trkpt lat="42.7376310" lon="-8.6610500">
        <ele>11.4</ele>
        <time>2021-05-23T11:05:06Z</time>
      </trkpt>
      <trkpt lat="42.7376310" lon="-8.6610500">
        <ele>11.4</ele>
        <time>2021-05-23T11:05:07Z</time>
      </trkpt>
      <trkpt lat="42.7376310" lon="-8.6610490">
        <ele>11.4</ele>
        <time>2021-05-23T11:05:08Z</time>
      </trkpt>
      <trkpt lat="42.7376310" lon="-8.6610480">
        <ele>11.4</ele>
        <time>2021-05-23T11:05:09Z</time>
      </trkpt>
      <trkpt lat="42.7376310" lon="-8.6610470">
        <ele>11.4</ele>
        <time>2021-05-23T11:05:10Z</time>
      </trkpt>
      <trkpt lat="42.7376320" lon="-8.6610460">
        <ele>11.4</ele>
        <time>2021-05-23T11:05:11Z</time>
      </trkpt>
      <trkpt lat="42.7376320" lon="-8.6610450">
        <ele>11.5</ele>
        <time>2021-05-23T11:05:12Z</time>
      </trkpt>
      <trkpt lat="42.7376320" lon="-8.6610440">
        <ele>11.5</ele>
        <time>2021-05-23T11:05:13Z</time>
      </trkpt>
      <trkpt lat="42.7376320" lon="-8.6610440">
        <ele>11.5</ele>
        <time>2021-05-23T11:05:14Z</time>
      </trkpt>
      <trkpt lat="42.7376320" lon="-8.6610430">
        <ele>11.5</ele>
        <time>2021-05-23T11:05:15Z</time>
      </trkpt>
      <trkpt lat="42.7376320" lon="-8.6610420">
        <ele>11.5</ele>
        <time>2021-05-23T11:05:16Z</time>
      </trkpt>
      <trkpt lat="42.7376320" lon="-8.6610410">
        <ele>11.5</ele>
        <time>2021-05-23T11:05:17Z</time>
      </trkpt>
      <trkpt lat="42.7376320" lon="-8.6610400">
        <ele>11.5</ele>
        <time>2021-05-23T11:05:18Z</time>
      </trkpt>
      <trkpt lat="42.7376330" lon="-8.6610390">
        <ele>11.5</ele>
        <time>2021-05-23T11:05:19Z</time>
      </trkpt>
      <trkpt lat="42.7376330" lon="-8.6610380">
        <ele>11.5</ele>
        <time>2021-05-23T11:05:20Z</time>
      </trkpt>
      <trkpt lat="42.7376330" lon="-8.6610380">
        <ele>11.5</ele>
        <time>2021-05-23T11:05:21Z</time>
      </trkpt>
      <trkpt lat="42.7376330" lon="-8.6610370">
        <ele>11.5</ele>
        <time>2021-05-23T11:05:22Z</time>
      </trkpt>
      <trkpt lat="42.7376330" lon="-8.6610360">
        <ele>11.5</ele>
        <time>2021-05-23T11:05:23Z</time>
      </trkpt>
      <trkpt lat="42.7376330" lon="-8.6610350">
        <ele>11.5</ele>
        <time>2021-05-23T11:05:24Z</time>
      </trkpt>
      <trkpt lat="42.7376330" lon="-8.6610340">
        <ele>11.5</ele>
        <time>2021-05-23T11:05:25Z</time>
      </trkpt>
      <trkpt lat="42.7376330" lon="-8.6610330">
        <ele>11.5</ele>
        <time>2021-05-23T11:05:26Z</time>
      </trkpt>
      <trkpt lat="42.7376340" lon="-8.6610320">
        <ele>11.5</ele>
        <time>2021-05-23T11:05:27Z</time>
      </trkpt>
      <trkpt lat="42.7376340" lon="-8.6610320">
        <ele>11.5</ele>
        <time>2021-05-23T11:05:28Z</time>
      </trkpt>
      <trkpt lat="42.7376340" lon="-8.6610310">
        <ele>11.5</ele>
        <time>2021-05-23T11:05:29Z</time>
      </trkpt>
      <trkpt lat="42.7376340" lon="-8.6610300">
        <ele>11.5</ele>
        <time>2021-05-23T11:05:30Z</time>
      </trkpt>
      <trkpt lat="42.7376340" lon="-8.6610290">
        <ele>11.5</ele>
        <time>2021-05-23T11:05:31Z</time>
      </trkpt>
      <trkpt lat="42.7376330" lon="-8.6610230">
        <ele>11.5</ele>
        <time>2021-05-23T11:05:32Z</time>
      </trkpt>
      <trkpt lat="42.7376330" lon="-8.6610170">
        <ele>11.5</ele>
        <time>2021-05-23T11:05:33Z</time>
      </trkpt>
      <trkpt lat="42.7376320" lon="-8.6610110">
        <ele>11.5</ele>
        <time>2021-05-23T11:05:34Z</time>
      </trkpt>
      <trkpt lat="42.7376310" lon="-8.6610040">
        <ele>11.5</ele>
        <time>2021-05-23T11:05:35Z</time>
      </trkpt>
      <trkpt lat="42.7376300" lon="-8.6609980">
        <ele>11.6</ele>
        <time>2021-05-23T11:05:36Z</time>
      </trkpt>
      <trkpt lat="42.7376300" lon="-8.6609920">
        <ele>11.6</ele>
        <time>2021-05-23T11:05:37Z</time>
      </trkpt>
      <trkpt lat="42.7376290" lon="-8.6609860">
        <ele>11.6</ele>
        <time>2021-05-23T11:05:38Z</time>
      </trkpt>
      <trkpt lat="42.7376280" lon="-8.6609800">
        <ele>11.6</ele>
        <time>2021-05-23T11:05:39Z</time>
      </trkpt>
      <trkpt lat="42.7376320" lon="-8.6609790">
        <ele>11.6</ele>
        <time>2021-05-23T11:05:40Z</time>
      </trkpt>
      <trkpt lat="42.7376320" lon="-8.6609790">
        <ele>11.6</ele>
        <time>2021-05-23T11:05:41Z</time>
      </trkpt>
      <trkpt lat="42.7376320" lon="-8.6609790">
        <ele>11.6</ele>
        <time>2021-05-23T11:05:42Z</time>
      </trkpt>
      <trkpt lat="42.7376320" lon="-8.6609790">
        <ele>11.6</ele>
        <time>2021-05-23T11:05:43Z</time>
      </trkpt>
      <trkpt lat="42.7376320" lon="-8.6609790">
        <ele>11.6</ele>
        <time>2021-05-23T11:05:44Z</time>
      </trkpt>
      <trkpt lat="42.7376320" lon="-8.6609790">
        <ele>11.6</ele>
        <time>2021-05-23T11:05:45Z</time>
      </trkpt>
      <trkpt lat="42.7376320" lon="-8.6609790">
        <ele>11.6</ele>
        <time>2021-05-23T11:05:46Z</time>
      </trkpt>
      <trkpt lat="42.7376320" lon="-8.6609790">
        <ele>11.6</ele>
        <time>2021-05-23T11:05:47Z</time>
      </trkpt>
      <trkpt lat="42.7376320" lon="-8.6609790">
        <ele>11.6</ele>
        <time>2021-05-23T11:05:48Z</time>
      </trkpt>
      <trkpt lat="42.7376320" lon="-8.6609790">
        <ele>11.6</ele>
        <time>2021-05-23T11:05:49Z</time>
      </trkpt>
      <trkpt lat="42.7376320" lon="-8.6609790">
        <ele>11.6</ele>
        <time>2021-05-23T11:05:50Z</time>
      </trkpt>
      <trkpt lat="42.7376320" lon="-8.6609790">
        <ele>11.6</ele>
        <time>2021-05-23T11:05:51Z</time>
      </trkpt>
      <trkpt lat="42.7376320" lon="-8.6609790">
        <ele>11.6</ele>
        <time>2021-05-23T11:05:52Z</time>
      </trkpt>
      <trkpt lat="42.7376320" lon="-8.6609790">
        <ele>11.6</ele>
        <time>2021-05-23T11:05:53Z</time>
      </trkpt>
      <trkpt lat="42.7376320" lon="-8.6609790">
        <ele>11.6</ele>
        <time>2021-05-23T11:05:54Z</time>
      </trkpt>
      <trkpt lat="42.7376320" lon="-8.6609790">
        <ele>11.6</ele>
        <time>2021-05-23T11:05:55Z</time>
      </trkpt>
      <trkpt lat="42.7376320" lon="-8.6609790">
        <ele>11.6</ele>
        <time>2021-05-23T11:05:56Z</time>
      </trkpt>
      <trkpt lat="42.7376320" lon="-8.6609790">
        <ele>11.6</ele>
        <time>2021-05-23T11:05:57Z</time>
      </trkpt>
      <trkpt lat="42.7376320" lon="-8.6609790">
        <ele>11.6</ele>
        <time>2021-05-23T11:05:58Z</time>
      </trkpt>
      <trkpt lat="42.7376320" lon="-8.6609790">
        <ele>11.6</ele>
        <time>2021-05-23T11:05:59Z</time>
      </trkpt>
      <trkpt lat="42.7376320" lon="-8.6609790">
        <ele>11.6</ele>
        <time>2021-05-23T11:06:00Z</time>
      </trkpt>
      <trkpt lat="42.7376320" lon="-8.6609790">
        <ele>11.6</ele>
        <time>2021-05-23T11:06:01Z</time>
      </trkpt>
      <trkpt lat="42.7376320" lon="-8.6609790">
        <ele>11.6</ele>
        <time>2021-05-23T11:06:02Z</time>
      </trkpt>
      <trkpt lat="42.7376320" lon="-8.6609790">
        <ele>11.6</ele>
        <time>2021-05-23T11:06:03Z</time>
      </trkpt>
      <trkpt lat="42.7376320" lon="-8.6609790">
        <ele>11.6</ele>
        <time>2021-05-23T11:06:04Z</time>
      </trkpt>
      <trkpt lat="42.7376320" lon="-8.6609790">
        <ele>11.6</ele>
        <time>2021-05-23T11:06:05Z</time>
      </trkpt>
      <trkpt lat="42.7376320" lon="-8.6609790">
        <ele>11.6</ele>
        <time>2021-05-23T11:06:06Z</time>
      </trkpt>
      <trkpt lat="42.7376320" lon="-8.6609790">
        <ele>11.6</ele>
        <time>2021-05-23T11:06:07Z</time>
      </trkpt>
      <trkpt lat="42.7376320" lon="-8.6609790">
        <ele>11.6</ele>
        <time>2021-05-23T11:06:08Z</time>
      </trkpt>
      <trkpt lat="42.7376320" lon="-8.6609790">
        <ele>11.6</ele>
        <time>2021-05-23T11:06:09Z</time>
      </trkpt>
      <trkpt lat="42.7376320" lon="-8.6609790">
        <ele>11.6</ele>
        <time>2021-05-23T11:06:10Z</time>
      </trkpt>
      <trkpt lat="42.7376320" lon="-8.6609790">
        <ele>11.6</ele>
        <time>2021-05-23T11:06:11Z</time>
      </trkpt>
      <trkpt lat="42.7376320" lon="-8.6609790">
        <ele>11.6</ele>
        <time>2021-05-23T11:06:12Z</time>
      </trkpt>
      <trkpt lat="42.7376320" lon="-8.6609790">
        <ele>11.6</ele>
        <time>2021-05-23T11:06:13Z</time>
      </trkpt>
      <trkpt lat="42.7376290" lon="-8.6609810">
        <ele>11.6</ele>
        <time>2021-05-23T11:06:14Z</time>
      </trkpt>
      <trkpt lat="42.7376290" lon="-8.6609800">
        <ele>11.6</ele>
        <time>2021-05-23T11:06:15Z</time>
      </trkpt>
      <trkpt lat="42.7376290" lon="-8.6609800">
        <ele>11.6</ele>
        <time>2021-05-23T11:06:16Z</time>
      </trkpt>
      <trkpt lat="42.7376290" lon="-8.6609800">
        <ele>11.6</ele>
        <time>2021-05-23T11:06:17Z</time>
      </trkpt>
      <trkpt lat="42.7376280" lon="-8.6609850">
        <ele>11.6</ele>
        <time>2021-05-23T11:06:18Z</time>
      </trkpt>
      <trkpt lat="42.7376280" lon="-8.6609850">
        <ele>11.6</ele>
        <time>2021-05-23T11:06:19Z</time>
      </trkpt>
      <trkpt lat="42.7376280" lon="-8.6609850">
        <ele>11.6</ele>
        <time>2021-05-23T11:06:20Z</time>
      </trkpt>
      <trkpt lat="42.7376280" lon="-8.6609850">
        <ele>11.6</ele>
        <time>2021-05-23T11:06:21Z</time>
      </trkpt>
      <trkpt lat="42.7376280" lon="-8.6609850">
        <ele>11.6</ele>
        <time>2021-05-23T11:06:22Z</time>
      </trkpt>
      <trkpt lat="42.7376340" lon="-8.6609960">
        <ele>11.6</ele>
        <time>2021-05-23T11:06:23Z</time>
      </trkpt>
      <trkpt lat="42.7376350" lon="-8.6609970">
        <ele>11.6</ele>
        <time>2021-05-23T11:06:24Z</time>
      </trkpt>
      <trkpt lat="42.7376350" lon="-8.6609970">
        <ele>11.6</ele>
        <time>2021-05-23T11:06:25Z</time>
      </trkpt>
      <trkpt lat="42.7376350" lon="-8.6609970">
        <ele>11.6</ele>
        <time>2021-05-23T11:06:26Z</time>
      </trkpt>
      <trkpt lat="42.7376350" lon="-8.6609970">
        <ele>11.6</ele>
        <time>2021-05-23T11:06:27Z</time>
      </trkpt>
      <trkpt lat="42.7376350" lon="-8.6609970">
        <ele>11.6</ele>
        <time>2021-05-23T11:06:28Z</time>
      </trkpt>
      <trkpt lat="42.7376350" lon="-8.6609970">
        <ele>11.6</ele>
        <time>2021-05-23T11:06:29Z</time>
      </trkpt>
      <trkpt lat="42.7376350" lon="-8.6609970">
        <ele>11.6</ele>
        <time>2021-05-23T11:06:30Z</time>
      </trkpt>
      <trkpt lat="42.7376350" lon="-8.6609970">
        <ele>11.6</ele>
        <time>2021-05-23T11:06:31Z</time>
      </trkpt>
      <trkpt lat="42.7376350" lon="-8.6609970">
        <ele>11.6</ele>
        <time>2021-05-23T11:06:32Z</time>
      </trkpt>
      <trkpt lat="42.7376350" lon="-8.6609970">
        <ele>11.6</ele>
        <time>2021-05-23T11:06:33Z</time>
      </trkpt>
      <trkpt lat="42.7376350" lon="-8.6609970">
        <ele>11.6</ele>
        <time>2021-05-23T11:06:34Z</time>
      </trkpt>
      <trkpt lat="42.7376350" lon="-8.6609970">
        <ele>11.6</ele>
        <time>2021-05-23T11:06:35Z</time>
      </trkpt>
      <trkpt lat="42.7376350" lon="-8.6609970">
        <ele>11.6</ele>
        <time>2021-05-23T11:06:36Z</time>
      </trkpt>
      <trkpt lat="42.7376350" lon="-8.6609970">
        <ele>11.6</ele>
        <time>2021-05-23T11:06:37Z</time>
      </trkpt>
      <trkpt lat="42.7376350" lon="-8.6609970">
        <ele>11.6</ele>
        <time>2021-05-23T11:06:38Z</time>
      </trkpt>
      <trkpt lat="42.7376350" lon="-8.6609970">
        <ele>11.6</ele>
        <time>2021-05-23T11:06:39Z</time>
      </trkpt>
      <trkpt lat="42.7376350" lon="-8.6609970">
        <ele>11.6</ele>
        <time>2021-05-23T11:06:40Z</time>
      </trkpt>
      <trkpt lat="42.7376350" lon="-8.6609970">
        <ele>11.6</ele>
        <time>2021-05-23T11:06:41Z</time>
      </trkpt>
      <trkpt lat="42.7376350" lon="-8.6609970">
        <ele>11.6</ele>
        <time>2021-05-23T11:06:42Z</time>
      </trkpt>
      <trkpt lat="42.7376350" lon="-8.6609970">
        <ele>11.6</ele>
        <time>2021-05-23T11:06:43Z</time>
      </trkpt>
      <trkpt lat="42.7376350" lon="-8.6609970">
        <ele>11.6</ele>
        <time>2021-05-23T11:06:44Z</time>
      </trkpt>
      <trkpt lat="42.7376220" lon="-8.6610180">
        <ele>11.5</ele>
        <time>2021-05-23T11:06:45Z</time>
      </trkpt>
      <trkpt lat="42.7376220" lon="-8.6610180">
        <ele>11.5</ele>
        <time>2021-05-23T11:06:46Z</time>
      </trkpt>
      <trkpt lat="42.7376220" lon="-8.6610180">
        <ele>11.5</ele>
        <time>2021-05-23T11:06:47Z</time>
      </trkpt>
      <trkpt lat="42.7376220" lon="-8.6610180">
        <ele>11.5</ele>
        <time>2021-05-23T11:06:48Z</time>
      </trkpt>
      <trkpt lat="42.7376220" lon="-8.6610180">
        <ele>11.5</ele>
        <time>2021-05-23T11:06:49Z</time>
      </trkpt>
      <trkpt lat="42.7376220" lon="-8.6610180">
        <ele>11.5</ele>
        <time>2021-05-23T11:06:50Z</time>
      </trkpt>
      <trkpt lat="42.7376220" lon="-8.6610180">
        <ele>11.5</ele>
        <time>2021-05-23T11:06:51Z</time>
      </trkpt>
      <trkpt lat="42.7376220" lon="-8.6610180">
        <ele>11.5</ele>
        <time>2021-05-23T11:06:52Z</time>
      </trkpt>
      <trkpt lat="42.7376220" lon="-8.6610180">
        <ele>11.5</ele>
        <time>2021-05-23T11:06:53Z</time>
      </trkpt>
      <trkpt lat="42.7376220" lon="-8.6610180">
        <ele>11.5</ele>
        <time>2021-05-23T11:06:54Z</time>
      </trkpt>
      <trkpt lat="42.7376220" lon="-8.6610180">
        <ele>11.5</ele>
        <time>2021-05-23T11:06:55Z</time>
      </trkpt>
      <trkpt lat="42.7376220" lon="-8.6610180">
        <ele>11.5</ele>
        <time>2021-05-23T11:06:56Z</time>
      </trkpt>
      <trkpt lat="42.7376220" lon="-8.6610180">
        <ele>11.5</ele>
        <time>2021-05-23T11:06:57Z</time>
      </trkpt>
      <trkpt lat="42.7376220" lon="-8.6610180">
        <ele>11.5</ele>
        <time>2021-05-23T11:06:58Z</time>
      </trkpt>
      <trkpt lat="42.7376220" lon="-8.6610180">
        <ele>11.5</ele>
        <time>2021-05-23T11:06:59Z</time>
      </trkpt>
      <trkpt lat="42.7376220" lon="-8.6610180">
        <ele>11.5</ele>
        <time>2021-05-23T11:07:00Z</time>
      </trkpt>
      <trkpt lat="42.7376220" lon="-8.6610180">
        <ele>11.5</ele>
        <time>2021-05-23T11:07:01Z</time>
      </trkpt>
      <trkpt lat="42.7376220" lon="-8.6610180">
        <ele>11.5</ele>
        <time>2021-05-23T11:07:02Z</time>
      </trkpt>
      <trkpt lat="42.7376220" lon="-8.6610180">
        <ele>11.5</ele>
        <time>2021-05-23T11:07:03Z</time>
      </trkpt>
      <trkpt lat="42.7376220" lon="-8.6610180">
        <ele>11.5</ele>
        <time>2021-05-23T11:07:04Z</time>
      </trkpt>
      <trkpt lat="42.7376220" lon="-8.6610180">
        <ele>11.5</ele>
        <time>2021-05-23T11:07:05Z</time>
      </trkpt>
      <trkpt lat="42.7376220" lon="-8.6610180">
        <ele>11.5</ele>
        <time>2021-05-23T11:07:06Z</time>
      </trkpt>
      <trkpt lat="42.7376220" lon="-8.6610180">
        <ele>11.5</ele>
        <time>2021-05-23T11:07:07Z</time>
      </trkpt>
      <trkpt lat="42.7376220" lon="-8.6610180">
        <ele>11.5</ele>
        <time>2021-05-23T11:07:08Z</time>
      </trkpt>
      <trkpt lat="42.7376220" lon="-8.6610180">
        <ele>11.5</ele>
        <time>2021-05-23T11:07:09Z</time>
      </trkpt>
      <trkpt lat="42.7376220" lon="-8.6610180">
        <ele>11.5</ele>
        <time>2021-05-23T11:07:10Z</time>
      </trkpt>
      <trkpt lat="42.7376220" lon="-8.6610180">
        <ele>11.5</ele>
        <time>2021-05-23T11:07:11Z</time>
      </trkpt>
      <trkpt lat="42.7376220" lon="-8.6610180">
        <ele>11.5</ele>
        <time>2021-05-23T11:07:12Z</time>
      </trkpt>
      <trkpt lat="42.7376220" lon="-8.6610180">
        <ele>11.5</ele>
        <time>2021-05-23T11:07:13Z</time>
      </trkpt>
      <trkpt lat="42.7376220" lon="-8.6610180">
        <ele>11.5</ele>
        <time>2021-05-23T11:07:14Z</time>
      </trkpt>
      <trkpt lat="42.7376220" lon="-8.6610180">
        <ele>11.5</ele>
        <time>2021-05-23T11:07:15Z</time>
      </trkpt>
      <trkpt lat="42.7376220" lon="-8.6610180">
        <ele>11.5</ele>
        <time>2021-05-23T11:07:16Z</time>
      </trkpt>
      <trkpt lat="42.7376220" lon="-8.6610180">
        <ele>11.5</ele>
        <time>2021-05-23T11:07:17Z</time>
      </trkpt>
      <trkpt lat="42.7376220" lon="-8.6610180">
        <ele>11.5</ele>
        <time>2021-05-23T11:07:18Z</time>
      </trkpt>
      <trkpt lat="42.7376220" lon="-8.6610180">
        <ele>11.5</ele>
        <time>2021-05-23T11:07:19Z</time>
      </trkpt>
      <trkpt lat="42.7376220" lon="-8.6610180">
        <ele>11.5</ele>
        <time>2021-05-23T11:07:20Z</time>
      </trkpt>
      <trkpt lat="42.7376220" lon="-8.6610180">
        <ele>11.5</ele>
        <time>2021-05-23T11:07:21Z</time>
      </trkpt>
      <trkpt lat="42.7376220" lon="-8.6610180">
        <ele>11.5</ele>
        <time>2021-05-23T11:07:22Z</time>
      </trkpt>
      <trkpt lat="42.7376220" lon="-8.6610180">
        <ele>11.5</ele>
        <time>2021-05-23T11:07:23Z</time>
      </trkpt>
      <trkpt lat="42.7376220" lon="-8.6610180">
        <ele>11.5</ele>
        <time>2021-05-23T11:07:24Z</time>
      </trkpt>
      <trkpt lat="42.7376220" lon="-8.6610180">
        <ele>11.5</ele>
        <time>2021-05-23T11:07:25Z</time>
      </trkpt>
      <trkpt lat="42.7376220" lon="-8.6610180">
        <ele>11.5</ele>
        <time>2021-05-23T11:07:26Z</time>
      </trkpt>
      <trkpt lat="42.7376220" lon="-8.6610180">
        <ele>11.5</ele>
        <time>2021-05-23T11:07:27Z</time>
      </trkpt>
      <trkpt lat="42.7376220" lon="-8.6610180">
        <ele>11.5</ele>
        <time>2021-05-23T11:07:28Z</time>
      </trkpt>
      <trkpt lat="42.7376220" lon="-8.6610180">
        <ele>11.5</ele>
        <time>2021-05-23T11:07:29Z</time>
      </trkpt>
      <trkpt lat="42.7376220" lon="-8.6610180">
        <ele>11.5</ele>
        <time>2021-05-23T11:07:30Z</time>
      </trkpt>
      <trkpt lat="42.7376220" lon="-8.6610180">
        <ele>11.5</ele>
        <time>2021-05-23T11:07:31Z</time>
      </trkpt>
      <trkpt lat="42.7376220" lon="-8.6610180">
        <ele>11.5</ele>
        <time>2021-05-23T11:07:32Z</time>
      </trkpt>
      <trkpt lat="42.7376220" lon="-8.6610180">
        <ele>11.5</ele>
        <time>2021-05-23T11:07:33Z</time>
      </trkpt>
      <trkpt lat="42.7376220" lon="-8.6610180">
        <ele>11.5</ele>
        <time>2021-05-23T11:07:34Z</time>
      </trkpt>
      <trkpt lat="42.7376220" lon="-8.6610180">
        <ele>11.5</ele>
        <time>2021-05-23T11:07:35Z</time>
      </trkpt>
      <trkpt lat="42.7376440" lon="-8.6610010">
        <ele>11.6</ele>
        <time>2021-05-23T11:07:36Z</time>
      </trkpt>
      <trkpt lat="42.7376440" lon="-8.6610010">
        <ele>11.6</ele>
        <time>2021-05-23T11:07:37Z</time>
      </trkpt>
      <trkpt lat="42.7376440" lon="-8.6610010">
        <ele>11.6</ele>
        <time>2021-05-23T11:07:38Z</time>
      </trkpt>
      <trkpt lat="42.7376440" lon="-8.6610010">
        <ele>11.6</ele>
        <time>2021-05-23T11:07:39Z</time>
      </trkpt>
      <trkpt lat="42.7376440" lon="-8.6610010">
        <ele>11.6</ele>
        <time>2021-05-23T11:07:40Z</time>
      </trkpt>
      <trkpt lat="42.7376440" lon="-8.6610010">
        <ele>11.6</ele>
        <time>2021-05-23T11:07:41Z</time>
      </trkpt>
      <trkpt lat="42.7376440" lon="-8.6610010">
        <ele>11.6</ele>
        <time>2021-05-23T11:07:42Z</time>
      </trkpt>
      <trkpt lat="42.7376440" lon="-8.6610010">
        <ele>11.6</ele>
        <time>2021-05-23T11:07:43Z</time>
      </trkpt>
      <trkpt lat="42.7376440" lon="-8.6610010">
        <ele>11.6</ele>
        <time>2021-05-23T11:07:44Z</time>
      </trkpt>
      <trkpt lat="42.7376440" lon="-8.6610010">
        <ele>11.6</ele>
        <time>2021-05-23T11:07:45Z</time>
      </trkpt>
      <trkpt lat="42.7376440" lon="-8.6610010">
        <ele>11.6</ele>
        <time>2021-05-23T11:07:46Z</time>
      </trkpt>
      <trkpt lat="42.7376440" lon="-8.6610010">
        <ele>11.6</ele>
        <time>2021-05-23T11:07:47Z</time>
      </trkpt>
      <trkpt lat="42.7376440" lon="-8.6610010">
        <ele>11.6</ele>
        <time>2021-05-23T11:07:48Z</time>
      </trkpt>
      <trkpt lat="42.7376440" lon="-8.6610010">
        <ele>11.6</ele>
        <time>2021-05-23T11:07:49Z</time>
      </trkpt>
      <trkpt lat="42.7376440" lon="-8.6610010">
        <ele>11.6</ele>
        <time>2021-05-23T11:07:50Z</time>
      </trkpt>
      <trkpt lat="42.7376440" lon="-8.6610010">
        <ele>11.6</ele>
        <time>2021-05-23T11:07:51Z</time>
      </trkpt>
      <trkpt lat="42.7376440" lon="-8.6610010">
        <ele>11.6</ele>
        <time>2021-05-23T11:07:52Z</time>
      </trkpt>
      <trkpt lat="42.7376440" lon="-8.6610010">
        <ele>11.6</ele>
        <time>2021-05-23T11:07:53Z</time>
      </trkpt>
      <trkpt lat="42.7376440" lon="-8.6610010">
        <ele>11.6</ele>
        <time>2021-05-23T11:07:54Z</time>
      </trkpt>
      <trkpt lat="42.7376440" lon="-8.6610010">
        <ele>11.6</ele>
        <time>2021-05-23T11:07:55Z</time>
      </trkpt>
      <trkpt lat="42.7376440" lon="-8.6610010">
        <ele>11.6</ele>
        <time>2021-05-23T11:07:56Z</time>
      </trkpt>
      <trkpt lat="42.7376440" lon="-8.6610010">
        <ele>11.6</ele>
        <time>2021-05-23T11:07:57Z</time>
      </trkpt>
      <trkpt lat="42.7376440" lon="-8.6610010">
        <ele>11.6</ele>
        <time>2021-05-23T11:07:58Z</time>
      </trkpt>
      <trkpt lat="42.7376440" lon="-8.6610010">
        <ele>11.6</ele>
        <time>2021-05-23T11:07:59Z</time>
      </trkpt>
      <trkpt lat="42.7376440" lon="-8.6610010">
        <ele>11.6</ele>
        <time>2021-05-23T11:08:00Z</time>
      </trkpt>
      <trkpt lat="42.7376440" lon="-8.6610010">
        <ele>11.6</ele>
        <time>2021-05-23T11:08:01Z</time>
      </trkpt>
      <trkpt lat="42.7376440" lon="-8.6610010">
        <ele>11.6</ele>
        <time>2021-05-23T11:08:02Z</time>
      </trkpt>
      <trkpt lat="42.7376440" lon="-8.6610010">
        <ele>11.6</ele>
        <time>2021-05-23T11:08:03Z</time>
      </trkpt>
      <trkpt lat="42.7376440" lon="-8.6610010">
        <ele>11.6</ele>
        <time>2021-05-23T11:08:04Z</time>
      </trkpt>
      <trkpt lat="42.7376440" lon="-8.6610010">
        <ele>11.6</ele>
        <time>2021-05-23T11:08:05Z</time>
      </trkpt>
      <trkpt lat="42.7376440" lon="-8.6610010">
        <ele>11.6</ele>
        <time>2021-05-23T11:08:06Z</time>
      </trkpt>
      <trkpt lat="42.7376440" lon="-8.6610010">
        <ele>11.6</ele>
        <time>2021-05-23T11:08:07Z</time>
      </trkpt>
      <trkpt lat="42.7376440" lon="-8.6610010">
        <ele>11.6</ele>
        <time>2021-05-23T11:08:08Z</time>
      </trkpt>
      <trkpt lat="42.7376440" lon="-8.6610010">
        <ele>11.6</ele>
        <time>2021-05-23T11:08:09Z</time>
      </trkpt>
      <trkpt lat="42.7376440" lon="-8.6610010">
        <ele>11.6</ele>
        <time>2021-05-23T11:08:10Z</time>
      </trkpt>
      <trkpt lat="42.7376440" lon="-8.6610010">
        <ele>11.6</ele>
        <time>2021-05-23T11:08:11Z</time>
      </trkpt>
      <trkpt lat="42.7376440" lon="-8.6610010">
        <ele>11.6</ele>
        <time>2021-05-23T11:08:12Z</time>
      </trkpt>
      <trkpt lat="42.7376440" lon="-8.6610010">
        <ele>11.6</ele>
        <time>2021-05-23T11:08:13Z</time>
      </trkpt>
      <trkpt lat="42.7376440" lon="-8.6610010">
        <ele>11.6</ele>
        <time>2021-05-23T11:08:14Z</time>
      </trkpt>
      <trkpt lat="42.7376480" lon="-8.6610110">
        <ele>11.5</ele>
        <time>2021-05-23T11:08:15Z</time>
      </trkpt>
      <trkpt lat="42.7376490" lon="-8.6610130">
        <ele>11.5</ele>
        <time>2021-05-23T11:08:16Z</time>
      </trkpt>
      <trkpt lat="42.7376510" lon="-8.6610160">
        <ele>11.5</ele>
        <time>2021-05-23T11:08:17Z</time>
      </trkpt>
      <trkpt lat="42.7376500" lon="-8.6610170">
        <ele>11.5</ele>
        <time>2021-05-23T11:08:18Z</time>
      </trkpt>
      <trkpt lat="42.7376490" lon="-8.6610150">
        <ele>11.5</ele>
        <time>2021-05-23T11:08:19Z</time>
      </trkpt>
      <trkpt lat="42.7376540" lon="-8.6610100">
        <ele>11.5</ele>
        <time>2021-05-23T11:08:20Z</time>
      </trkpt>
      <trkpt lat="42.7376470" lon="-8.6610110">
        <ele>11.5</ele>
        <time>2021-05-23T11:08:21Z</time>
      </trkpt>
      <trkpt lat="42.7376420" lon="-8.6610160">
        <ele>11.5</ele>
        <time>2021-05-23T11:08:22Z</time>
      </trkpt>
      <trkpt lat="42.7376440" lon="-8.6610120">
        <ele>11.5</ele>
        <time>2021-05-23T11:08:23Z</time>
      </trkpt>
      <trkpt lat="42.7376440" lon="-8.6610200">
        <ele>11.5</ele>
        <time>2021-05-23T11:08:24Z</time>
      </trkpt>
      <trkpt lat="42.7376490" lon="-8.6610270">
        <ele>11.5</ele>
        <time>2021-05-23T11:08:25Z</time>
      </trkpt>
      <trkpt lat="42.7376540" lon="-8.6610320">
        <ele>11.5</ele>
        <time>2021-05-23T11:08:26Z</time>
      </trkpt>
      <trkpt lat="42.7376540" lon="-8.6610320">
        <ele>11.5</ele>
        <time>2021-05-23T11:08:27Z</time>
      </trkpt>
      <trkpt lat="42.7376570" lon="-8.6610350">
        <ele>11.5</ele>
        <time>2021-05-23T11:08:28Z</time>
      </trkpt>
      <trkpt lat="42.7376630" lon="-8.6610480">
        <ele>11.4</ele>
        <time>2021-05-23T11:08:29Z</time>
      </trkpt>
      <trkpt lat="42.7376650" lon="-8.6610550">
        <ele>11.4</ele>
        <time>2021-05-23T11:08:30Z</time>
      </trkpt>
      <trkpt lat="42.7376650" lon="-8.6610570">
        <ele>11.4</ele>
        <time>2021-05-23T11:08:31Z</time>
      </trkpt>
      <trkpt lat="42.7376660" lon="-8.6610580">
        <ele>11.4</ele>
        <time>2021-05-23T11:08:32Z</time>
      </trkpt>
      <trkpt lat="42.7376670" lon="-8.6610590">
        <ele>11.4</ele>
        <time>2021-05-23T11:08:33Z</time>
      </trkpt>
      <trkpt lat="42.7376670" lon="-8.6610600">
        <ele>11.4</ele>
        <time>2021-05-23T11:08:34Z</time>
      </trkpt>
      <trkpt lat="42.7376680" lon="-8.6610620">
        <ele>11.4</ele>
        <time>2021-05-23T11:08:35Z</time>
      </trkpt>
      <trkpt lat="42.7376680" lon="-8.6610630">
        <ele>11.4</ele>
        <time>2021-05-23T11:08:36Z</time>
      </trkpt>
      <trkpt lat="42.7376690" lon="-8.6610640">
        <ele>11.4</ele>
        <time>2021-05-23T11:08:37Z</time>
      </trkpt>
      <trkpt lat="42.7376700" lon="-8.6610660">
        <ele>11.4</ele>
        <time>2021-05-23T11:08:38Z</time>
      </trkpt>
      <trkpt lat="42.7376700" lon="-8.6610670">
        <ele>11.4</ele>
        <time>2021-05-23T11:08:39Z</time>
      </trkpt>
      <trkpt lat="42.7376710" lon="-8.6610680">
        <ele>11.4</ele>
        <time>2021-05-23T11:08:40Z</time>
      </trkpt>
      <trkpt lat="42.7376720" lon="-8.6610690">
        <ele>11.4</ele>
        <time>2021-05-23T11:08:41Z</time>
      </trkpt>
      <trkpt lat="42.7376720" lon="-8.6610710">
        <ele>11.4</ele>
        <time>2021-05-23T11:08:42Z</time>
      </trkpt>
      <trkpt lat="42.7376730" lon="-8.6610720">
        <ele>11.4</ele>
        <time>2021-05-23T11:08:43Z</time>
      </trkpt>
      <trkpt lat="42.7376730" lon="-8.6610730">
        <ele>11.4</ele>
        <time>2021-05-23T11:08:44Z</time>
      </trkpt>
      <trkpt lat="42.7376740" lon="-8.6610740">
        <ele>11.4</ele>
        <time>2021-05-23T11:08:45Z</time>
      </trkpt>
      <trkpt lat="42.7376750" lon="-8.6610760">
        <ele>11.4</ele>
        <time>2021-05-23T11:08:46Z</time>
      </trkpt>
      <trkpt lat="42.7376750" lon="-8.6610770">
        <ele>11.4</ele>
        <time>2021-05-23T11:08:47Z</time>
      </trkpt>
      <trkpt lat="42.7376760" lon="-8.6610780">
        <ele>11.4</ele>
        <time>2021-05-23T11:08:48Z</time>
      </trkpt>
      <trkpt lat="42.7376770" lon="-8.6610800">
        <ele>11.4</ele>
        <time>2021-05-23T11:08:49Z</time>
      </trkpt>
      <trkpt lat="42.7376770" lon="-8.6610810">
        <ele>11.4</ele>
        <time>2021-05-23T11:08:50Z</time>
      </trkpt>
      <trkpt lat="42.7376780" lon="-8.6610820">
        <ele>11.4</ele>
        <time>2021-05-23T11:08:51Z</time>
      </trkpt>
      <trkpt lat="42.7376780" lon="-8.6610830">
        <ele>11.4</ele>
        <time>2021-05-23T11:08:52Z</time>
      </trkpt>
      <trkpt lat="42.7376790" lon="-8.6610850">
        <ele>11.4</ele>
        <time>2021-05-23T11:08:53Z</time>
      </trkpt>
      <trkpt lat="42.7376800" lon="-8.6610860">
        <ele>11.4</ele>
        <time>2021-05-23T11:08:54Z</time>
      </trkpt>
      <trkpt lat="42.7376800" lon="-8.6610870">
        <ele>11.4</ele>
        <time>2021-05-23T11:08:55Z</time>
      </trkpt>
      <trkpt lat="42.7376810" lon="-8.6610890">
        <ele>11.3</ele>
        <time>2021-05-23T11:08:56Z</time>
      </trkpt>
      <trkpt lat="42.7376820" lon="-8.6610900">
        <ele>11.3</ele>
        <time>2021-05-23T11:08:57Z</time>
      </trkpt>
      <trkpt lat="42.7376820" lon="-8.6610910">
        <ele>11.3</ele>
        <time>2021-05-23T11:08:58Z</time>
      </trkpt>
      <trkpt lat="42.7376830" lon="-8.6610920">
        <ele>11.3</ele>
        <time>2021-05-23T11:08:59Z</time>
      </trkpt>
      <trkpt lat="42.7376830" lon="-8.6610940">
        <ele>11.3</ele>
        <time>2021-05-23T11:09:00Z</time>
      </trkpt>
      <trkpt lat="42.7376840" lon="-8.6610950">
        <ele>11.3</ele>
        <time>2021-05-23T11:09:01Z</time>
      </trkpt>
      <trkpt lat="42.7376840" lon="-8.6610940">
        <ele>11.3</ele>
        <time>2021-05-23T11:09:02Z</time>
      </trkpt>
      <trkpt lat="42.7376840" lon="-8.6610940">
        <ele>11.3</ele>
        <time>2021-05-23T11:09:03Z</time>
      </trkpt>
      <trkpt lat="42.7376850" lon="-8.6610890">
        <ele>11.3</ele>
        <time>2021-05-23T11:09:04Z</time>
      </trkpt>
      <trkpt lat="42.7376840" lon="-8.6610860">
        <ele>11.4</ele>
        <time>2021-05-23T11:09:05Z</time>
      </trkpt>
      <trkpt lat="42.7376820" lon="-8.6610760">
        <ele>11.4</ele>
        <time>2021-05-23T11:09:06Z</time>
      </trkpt>
      <trkpt lat="42.7376820" lon="-8.6610800">
        <ele>11.4</ele>
        <time>2021-05-23T11:09:07Z</time>
      </trkpt>
      <trkpt lat="42.7376840" lon="-8.6610760">
        <ele>11.4</ele>
        <time>2021-05-23T11:09:08Z</time>
      </trkpt>
      <trkpt lat="42.7376820" lon="-8.6610780">
        <ele>11.4</ele>
        <time>2021-05-23T11:09:09Z</time>
      </trkpt>
      <trkpt lat="42.7376830" lon="-8.6610790">
        <ele>11.4</ele>
        <time>2021-05-23T11:09:10Z</time>
      </trkpt>
      <trkpt lat="42.7376780" lon="-8.6610690">
        <ele>11.4</ele>
        <time>2021-05-23T11:09:11Z</time>
      </trkpt>
      <trkpt lat="42.7376730" lon="-8.6610590">
        <ele>11.4</ele>
        <time>2021-05-23T11:09:12Z</time>
      </trkpt>
      <trkpt lat="42.7376710" lon="-8.6610510">
        <ele>11.4</ele>
        <time>2021-05-23T11:09:13Z</time>
      </trkpt>
      <trkpt lat="42.7376720" lon="-8.6610550">
        <ele>11.4</ele>
        <time>2021-05-23T11:09:14Z</time>
      </trkpt>
      <trkpt lat="42.7376700" lon="-8.6610600">
        <ele>11.4</ele>
        <time>2021-05-23T11:09:15Z</time>
      </trkpt>
      <trkpt lat="42.7376660" lon="-8.6610500">
        <ele>11.4</ele>
        <time>2021-05-23T11:09:16Z</time>
      </trkpt>
      <trkpt lat="42.7376570" lon="-8.6610370">
        <ele>11.5</ele>
        <time>2021-05-23T11:09:17Z</time>
      </trkpt>
      <trkpt lat="42.7376550" lon="-8.6610340">
        <ele>11.5</ele>
        <time>2021-05-23T11:09:18Z</time>
      </trkpt>
      <trkpt lat="42.7376520" lon="-8.6610300">
        <ele>11.5</ele>
        <time>2021-05-23T11:09:19Z</time>
      </trkpt>
      <trkpt lat="42.7376490" lon="-8.6610150">
        <ele>11.5</ele>
        <time>2021-05-23T11:09:20Z</time>
      </trkpt>
      <trkpt lat="42.7376500" lon="-8.6610160">
        <ele>11.5</ele>
        <time>2021-05-23T11:09:21Z</time>
      </trkpt>
      <trkpt lat="42.7376490" lon="-8.6610190">
        <ele>11.5</ele>
        <time>2021-05-23T11:09:22Z</time>
      </trkpt>
      <trkpt lat="42.7376460" lon="-8.6610200">
        <ele>11.5</ele>
        <time>2021-05-23T11:09:23Z</time>
      </trkpt>
      <trkpt lat="42.7376440" lon="-8.6610210">
        <ele>11.5</ele>
        <time>2021-05-23T11:09:24Z</time>
      </trkpt>
      <trkpt lat="42.7376420" lon="-8.6610140">
        <ele>11.5</ele>
        <time>2021-05-23T11:09:25Z</time>
      </trkpt>
      <trkpt lat="42.7376380" lon="-8.6610010">
        <ele>11.6</ele>
        <time>2021-05-23T11:09:26Z</time>
      </trkpt>
      <trkpt lat="42.7376360" lon="-8.6609960">
        <ele>11.6</ele>
        <time>2021-05-23T11:09:27Z</time>
      </trkpt>
      <trkpt lat="42.7376360" lon="-8.6609920">
        <ele>11.6</ele>
        <time>2021-05-23T11:09:28Z</time>
      </trkpt>
      <trkpt lat="42.7376370" lon="-8.6609940">
        <ele>11.6</ele>
        <time>2021-05-23T11:09:29Z</time>
      </trkpt>
      <trkpt lat="42.7376370" lon="-8.6609970">
        <ele>11.6</ele>
        <time>2021-05-23T11:09:30Z</time>
      </trkpt>
      <trkpt lat="42.7376380" lon="-8.6610000">
        <ele>11.6</ele>
        <time>2021-05-23T11:09:31Z</time>
      </trkpt>
      <trkpt lat="42.7376390" lon="-8.6610030">
        <ele>11.6</ele>
        <time>2021-05-23T11:09:32Z</time>
      </trkpt>
      <trkpt lat="42.7376400" lon="-8.6610050">
        <ele>11.5</ele>
        <time>2021-05-23T11:09:33Z</time>
      </trkpt>
      <trkpt lat="42.7376410" lon="-8.6610080">
        <ele>11.5</ele>
        <time>2021-05-23T11:09:34Z</time>
      </trkpt>
      <trkpt lat="42.7376410" lon="-8.6610110">
        <ele>11.5</ele>
        <time>2021-05-23T11:09:35Z</time>
      </trkpt>
      <trkpt lat="42.7376420" lon="-8.6610140">
        <ele>11.5</ele>
        <time>2021-05-23T11:09:36Z</time>
      </trkpt>
      <trkpt lat="42.7376430" lon="-8.6610160">
        <ele>11.5</ele>
        <time>2021-05-23T11:09:37Z</time>
      </trkpt>
      <trkpt lat="42.7376440" lon="-8.6610190">
        <ele>11.5</ele>
        <time>2021-05-23T11:09:38Z</time>
      </trkpt>
      <trkpt lat="42.7376450" lon="-8.6610220">
        <ele>11.5</ele>
        <time>2021-05-23T11:09:39Z</time>
      </trkpt>
      <trkpt lat="42.7376450" lon="-8.6610250">
        <ele>11.5</ele>
        <time>2021-05-23T11:09:40Z</time>
      </trkpt>
      <trkpt lat="42.7376460" lon="-8.6610270">
        <ele>11.5</ele>
        <time>2021-05-23T11:09:41Z</time>
      </trkpt>
      <trkpt lat="42.7376470" lon="-8.6610300">
        <ele>11.5</ele>
        <time>2021-05-23T11:09:42Z</time>
      </trkpt>
      <trkpt lat="42.7376480" lon="-8.6610330">
        <ele>11.5</ele>
        <time>2021-05-23T11:09:43Z</time>
      </trkpt>
      <trkpt lat="42.7376480" lon="-8.6610360">
        <ele>11.5</ele>
        <time>2021-05-23T11:09:44Z</time>
      </trkpt>
      <trkpt lat="42.7376490" lon="-8.6610380">
        <ele>11.5</ele>
        <time>2021-05-23T11:09:45Z</time>
      </trkpt>
      <trkpt lat="42.7376500" lon="-8.6610410">
        <ele>11.5</ele>
        <time>2021-05-23T11:09:46Z</time>
      </trkpt>
      <trkpt lat="42.7376510" lon="-8.6610440">
        <ele>11.5</ele>
        <time>2021-05-23T11:09:47Z</time>
      </trkpt>
      <trkpt lat="42.7376520" lon="-8.6610470">
        <ele>11.4</ele>
        <time>2021-05-23T11:09:48Z</time>
      </trkpt>
      <trkpt lat="42.7376520" lon="-8.6610490">
        <ele>11.4</ele>
        <time>2021-05-23T11:09:49Z</time>
      </trkpt>
      <trkpt lat="42.7376530" lon="-8.6610520">
        <ele>11.4</ele>
        <time>2021-05-23T11:09:50Z</time>
      </trkpt>
      <trkpt lat="42.7376540" lon="-8.6610550">
        <ele>11.4</ele>
        <time>2021-05-23T11:09:51Z</time>
      </trkpt>
      <trkpt lat="42.7376560" lon="-8.6610450">
        <ele>11.5</ele>
        <time>2021-05-23T11:09:52Z</time>
      </trkpt>
      <trkpt lat="42.7376550" lon="-8.6610420">
        <ele>11.5</ele>
        <time>2021-05-23T11:09:53Z</time>
      </trkpt>
      <trkpt lat="42.7376560" lon="-8.6610350">
        <ele>11.5</ele>
        <time>2021-05-23T11:09:54Z</time>
      </trkpt>
      <trkpt lat="42.7376580" lon="-8.6610340">
        <ele>11.5</ele>
        <time>2021-05-23T11:09:55Z</time>
      </trkpt>
      <trkpt lat="42.7376600" lon="-8.6610320">
        <ele>11.5</ele>
        <time>2021-05-23T11:09:56Z</time>
      </trkpt>
      <trkpt lat="42.7376600" lon="-8.6610320">
        <ele>11.5</ele>
        <time>2021-05-23T11:09:57Z</time>
      </trkpt>
      <trkpt lat="42.7376610" lon="-8.6610270">
        <ele>11.5</ele>
        <time>2021-05-23T11:09:58Z</time>
      </trkpt>
      <trkpt lat="42.7376530" lon="-8.6610320">
        <ele>11.5</ele>
        <time>2021-05-23T11:09:59Z</time>
      </trkpt>
      <trkpt lat="42.7376540" lon="-8.6610370">
        <ele>11.5</ele>
        <time>2021-05-23T11:10:00Z</time>
      </trkpt>
      <trkpt lat="42.7376500" lon="-8.6610410">
        <ele>11.5</ele>
        <time>2021-05-23T11:10:01Z</time>
      </trkpt>
      <trkpt lat="42.7376500" lon="-8.6610410">
        <ele>11.5</ele>
        <time>2021-05-23T11:10:02Z</time>
      </trkpt>
      <trkpt lat="42.7376440" lon="-8.6610410">
        <ele>11.5</ele>
        <time>2021-05-23T11:10:03Z</time>
      </trkpt>
      <trkpt lat="42.7376440" lon="-8.6610330">
        <ele>11.5</ele>
        <time>2021-05-23T11:10:04Z</time>
      </trkpt>
      <trkpt lat="42.7376390" lon="-8.6610340">
        <ele>11.5</ele>
        <time>2021-05-23T11:10:05Z</time>
      </trkpt>
      <trkpt lat="42.7376410" lon="-8.6610420">
        <ele>11.5</ele>
        <time>2021-05-23T11:10:06Z</time>
      </trkpt>
      <trkpt lat="42.7376420" lon="-8.6610440">
        <ele>11.5</ele>
        <time>2021-05-23T11:10:07Z</time>
      </trkpt>
      <trkpt lat="42.7376400" lon="-8.6610450">
        <ele>11.5</ele>
        <time>2021-05-23T11:10:08Z</time>
      </trkpt>
      <trkpt lat="42.7376370" lon="-8.6610470">
        <ele>11.4</ele>
        <time>2021-05-23T11:10:09Z</time>
      </trkpt>
      <trkpt lat="42.7376360" lon="-8.6610470">
        <ele>11.4</ele>
        <time>2021-05-23T11:10:10Z</time>
      </trkpt>
      <trkpt lat="42.7376360" lon="-8.6610510">
        <ele>11.4</ele>
        <time>2021-05-23T11:10:11Z</time>
      </trkpt>
      <trkpt lat="42.7376360" lon="-8.6610530">
        <ele>11.4</ele>
        <time>2021-05-23T11:10:12Z</time>
      </trkpt>
      <trkpt lat="42.7376360" lon="-8.6610500">
        <ele>11.4</ele>
        <time>2021-05-23T11:10:13Z</time>
      </trkpt>
      <trkpt lat="42.7376330" lon="-8.6610540">
        <ele>11.4</ele>
        <time>2021-05-23T11:10:14Z</time>
      </trkpt>
      <trkpt lat="42.7376330" lon="-8.6610540">
        <ele>11.4</ele>
        <time>2021-05-23T11:10:15Z</time>
      </trkpt>
      <trkpt lat="42.7376330" lon="-8.6610540">
        <ele>11.4</ele>
        <time>2021-05-23T11:10:16Z</time>
      </trkpt>
      <trkpt lat="42.7376300" lon="-8.6610430">
        <ele>11.5</ele>
        <time>2021-05-23T11:10:17Z</time>
      </trkpt>
      <trkpt lat="42.7376260" lon="-8.6610380">
        <ele>11.5</ele>
        <time>2021-05-23T11:10:18Z</time>
      </trkpt>
      <trkpt lat="42.7376330" lon="-8.6610380">
        <ele>11.5</ele>
        <time>2021-05-23T11:10:19Z</time>
      </trkpt>
      <trkpt lat="42.7376340" lon="-8.6610380">
        <ele>11.5</ele>
        <time>2021-05-23T11:10:20Z</time>
      </trkpt>
      <trkpt lat="42.7376330" lon="-8.6610400">
        <ele>11.5</ele>
        <time>2021-05-23T11:10:21Z</time>
      </trkpt>
      <trkpt lat="42.7376350" lon="-8.6610410">
        <ele>11.5</ele>
        <time>2021-05-23T11:10:22Z</time>
      </trkpt>
      <trkpt lat="42.7376400" lon="-8.6610380">
        <ele>11.5</ele>
        <time>2021-05-23T11:10:23Z</time>
      </trkpt>
      <trkpt lat="42.7376430" lon="-8.6610340">
        <ele>11.5</ele>
        <time>2021-05-23T11:10:24Z</time>
      </trkpt>
      <trkpt lat="42.7376480" lon="-8.6610300">
        <ele>11.5</ele>
        <time>2021-05-23T11:10:25Z</time>
      </trkpt>
      <trkpt lat="42.7376500" lon="-8.6610190">
        <ele>11.5</ele>
        <time>2021-05-23T11:10:26Z</time>
      </trkpt>
      <trkpt lat="42.7376500" lon="-8.6610190">
        <ele>11.5</ele>
        <time>2021-05-23T11:10:27Z</time>
      </trkpt>
      <trkpt lat="42.7376490" lon="-8.6610240">
        <ele>11.5</ele>
        <time>2021-05-23T11:10:28Z</time>
      </trkpt>
      <trkpt lat="42.7376530" lon="-8.6610300">
        <ele>11.5</ele>
        <time>2021-05-23T11:10:29Z</time>
      </trkpt>
      <trkpt lat="42.7376530" lon="-8.6610280">
        <ele>11.5</ele>
        <time>2021-05-23T11:10:30Z</time>
      </trkpt>
      <trkpt lat="42.7376550" lon="-8.6610300">
        <ele>11.5</ele>
        <time>2021-05-23T11:10:31Z</time>
      </trkpt>
      <trkpt lat="42.7376540" lon="-8.6610250">
        <ele>11.5</ele>
        <time>2021-05-23T11:10:32Z</time>
      </trkpt>
      <trkpt lat="42.7376550" lon="-8.6610200">
        <ele>11.5</ele>
        <time>2021-05-23T11:10:33Z</time>
      </trkpt>
      <trkpt lat="42.7376550" lon="-8.6610160">
        <ele>11.5</ele>
        <time>2021-05-23T11:10:34Z</time>
      </trkpt>
      <trkpt lat="42.7376530" lon="-8.6610190">
        <ele>11.5</ele>
        <time>2021-05-23T11:10:35Z</time>
      </trkpt>
      <trkpt lat="42.7376520" lon="-8.6610220">
        <ele>11.5</ele>
        <time>2021-05-23T11:10:36Z</time>
      </trkpt>
      <trkpt lat="42.7376500" lon="-8.6610270">
        <ele>11.5</ele>
        <time>2021-05-23T11:10:37Z</time>
      </trkpt>
      <trkpt lat="42.7376500" lon="-8.6610210">
        <ele>11.5</ele>
        <time>2021-05-23T11:10:38Z</time>
      </trkpt>
      <trkpt lat="42.7376520" lon="-8.6610140">
        <ele>11.5</ele>
        <time>2021-05-23T11:10:39Z</time>
      </trkpt>
      <trkpt lat="42.7376520" lon="-8.6610220">
        <ele>11.5</ele>
        <time>2021-05-23T11:10:40Z</time>
      </trkpt>
      <trkpt lat="42.7376510" lon="-8.6610180">
        <ele>11.5</ele>
        <time>2021-05-23T11:10:41Z</time>
      </trkpt>
      <trkpt lat="42.7376510" lon="-8.6610180">
        <ele>11.5</ele>
        <time>2021-05-23T11:10:42Z</time>
      </trkpt>
      <trkpt lat="42.7376530" lon="-8.6610210">
        <ele>11.5</ele>
        <time>2021-05-23T11:10:43Z</time>
      </trkpt>
      <trkpt lat="42.7376540" lon="-8.6610220">
        <ele>11.5</ele>
        <time>2021-05-23T11:10:44Z</time>
      </trkpt>
      <trkpt lat="42.7376550" lon="-8.6610260">
        <ele>11.5</ele>
        <time>2021-05-23T11:10:45Z</time>
      </trkpt>
      <trkpt lat="42.7376530" lon="-8.6610300">
        <ele>11.5</ele>
        <time>2021-05-23T11:10:46Z</time>
      </trkpt>
      <trkpt lat="42.7376530" lon="-8.6610310">
        <ele>11.5</ele>
        <time>2021-05-23T11:10:47Z</time>
      </trkpt>
      <trkpt lat="42.7376530" lon="-8.6610320">
        <ele>11.5</ele>
        <time>2021-05-23T11:10:48Z</time>
      </trkpt>
      <trkpt lat="42.7376520" lon="-8.6610340">
        <ele>11.5</ele>
        <time>2021-05-23T11:10:49Z</time>
      </trkpt>
      <trkpt lat="42.7376540" lon="-8.6610350">
        <ele>11.5</ele>
        <time>2021-05-23T11:10:50Z</time>
      </trkpt>
      <trkpt lat="42.7376530" lon="-8.6610400">
        <ele>11.5</ele>
        <time>2021-05-23T11:10:51Z</time>
      </trkpt>
      <trkpt lat="42.7376520" lon="-8.6610410">
        <ele>11.5</ele>
        <time>2021-05-23T11:10:52Z</time>
      </trkpt>
      <trkpt lat="42.7376510" lon="-8.6610410">
        <ele>11.5</ele>
        <time>2021-05-23T11:10:53Z</time>
      </trkpt>
      <trkpt lat="42.7376520" lon="-8.6610420">
        <ele>11.5</ele>
        <time>2021-05-23T11:10:54Z</time>
      </trkpt>
      <trkpt lat="42.7376540" lon="-8.6610410">
        <ele>11.5</ele>
        <time>2021-05-23T11:10:55Z</time>
      </trkpt>
      <trkpt lat="42.7376500" lon="-8.6610470">
        <ele>11.4</ele>
        <time>2021-05-23T11:10:56Z</time>
      </trkpt>
      <trkpt lat="42.7376480" lon="-8.6610600">
        <ele>11.4</ele>
        <time>2021-05-23T11:10:57Z</time>
      </trkpt>
      <trkpt lat="42.7376510" lon="-8.6610600">
        <ele>11.4</ele>
        <time>2021-05-23T11:10:58Z</time>
      </trkpt>
      <trkpt lat="42.7376510" lon="-8.6610600">
        <ele>11.4</ele>
        <time>2021-05-23T11:10:59Z</time>
      </trkpt>
      <trkpt lat="42.7376520" lon="-8.6610590">
        <ele>11.4</ele>
        <time>2021-05-23T11:11:00Z</time>
      </trkpt>
      <trkpt lat="42.7376530" lon="-8.6610590">
        <ele>11.4</ele>
        <time>2021-05-23T11:11:01Z</time>
      </trkpt>
      <trkpt lat="42.7376530" lon="-8.6610580">
        <ele>11.4</ele>
        <time>2021-05-23T11:11:02Z</time>
      </trkpt>
      <trkpt lat="42.7376540" lon="-8.6610580">
        <ele>11.4</ele>
        <time>2021-05-23T11:11:03Z</time>
      </trkpt>
      <trkpt lat="42.7376540" lon="-8.6610570">
        <ele>11.4</ele>
        <time>2021-05-23T11:11:04Z</time>
      </trkpt>
      <trkpt lat="42.7376550" lon="-8.6610570">
        <ele>11.4</ele>
        <time>2021-05-23T11:11:05Z</time>
      </trkpt>
      <trkpt lat="42.7376560" lon="-8.6610560">
        <ele>11.4</ele>
        <time>2021-05-23T11:11:06Z</time>
      </trkpt>
      <trkpt lat="42.7376560" lon="-8.6610560">
        <ele>11.4</ele>
        <time>2021-05-23T11:11:07Z</time>
      </trkpt>
      <trkpt lat="42.7376570" lon="-8.6610550">
        <ele>11.4</ele>
        <time>2021-05-23T11:11:08Z</time>
      </trkpt>
      <trkpt lat="42.7376580" lon="-8.6610550">
        <ele>11.4</ele>
        <time>2021-05-23T11:11:09Z</time>
      </trkpt>
      <trkpt lat="42.7376580" lon="-8.6610540">
        <ele>11.4</ele>
        <time>2021-05-23T11:11:10Z</time>
      </trkpt>
      <trkpt lat="42.7376590" lon="-8.6610540">
        <ele>11.4</ele>
        <time>2021-05-23T11:11:11Z</time>
      </trkpt>
      <trkpt lat="42.7376600" lon="-8.6610530">
        <ele>11.4</ele>
        <time>2021-05-23T11:11:12Z</time>
      </trkpt>
      <trkpt lat="42.7376600" lon="-8.6610520">
        <ele>11.4</ele>
        <time>2021-05-23T11:11:13Z</time>
      </trkpt>
      <trkpt lat="42.7376610" lon="-8.6610520">
        <ele>11.4</ele>
        <time>2021-05-23T11:11:14Z</time>
      </trkpt>
      <trkpt lat="42.7376610" lon="-8.6610510">
        <ele>11.4</ele>
        <time>2021-05-23T11:11:15Z</time>
      </trkpt>
      <trkpt lat="42.7376620" lon="-8.6610510">
        <ele>11.4</ele>
        <time>2021-05-23T11:11:16Z</time>
      </trkpt>
      <trkpt lat="42.7376630" lon="-8.6610500">
        <ele>11.4</ele>
        <time>2021-05-23T11:11:17Z</time>
      </trkpt>
      <trkpt lat="42.7376630" lon="-8.6610500">
        <ele>11.4</ele>
        <time>2021-05-23T11:11:18Z</time>
      </trkpt>
      <trkpt lat="42.7376640" lon="-8.6610490">
        <ele>11.4</ele>
        <time>2021-05-23T11:11:19Z</time>
      </trkpt>
      <trkpt lat="42.7376650" lon="-8.6610490">
        <ele>11.4</ele>
        <time>2021-05-23T11:11:20Z</time>
      </trkpt>
      <trkpt lat="42.7376650" lon="-8.6610480">
        <ele>11.4</ele>
        <time>2021-05-23T11:11:21Z</time>
      </trkpt>
      <trkpt lat="42.7376660" lon="-8.6610480">
        <ele>11.4</ele>
        <time>2021-05-23T11:11:22Z</time>
      </trkpt>
      <trkpt lat="42.7376670" lon="-8.6610470">
        <ele>11.4</ele>
        <time>2021-05-23T11:11:23Z</time>
      </trkpt>
      <trkpt lat="42.7376670" lon="-8.6610470">
        <ele>11.4</ele>
        <time>2021-05-23T11:11:24Z</time>
      </trkpt>
      <trkpt lat="42.7376680" lon="-8.6610460">
        <ele>11.5</ele>
        <time>2021-05-23T11:11:25Z</time>
      </trkpt>
      <trkpt lat="42.7376690" lon="-8.6610460">
        <ele>11.5</ele>
        <time>2021-05-23T11:11:26Z</time>
      </trkpt>
      <trkpt lat="42.7376690" lon="-8.6610450">
        <ele>11.5</ele>
        <time>2021-05-23T11:11:27Z</time>
      </trkpt>
      <trkpt lat="42.7376700" lon="-8.6610440">
        <ele>11.5</ele>
        <time>2021-05-23T11:11:28Z</time>
      </trkpt>
      <trkpt lat="42.7376700" lon="-8.6610440">
        <ele>11.5</ele>
        <time>2021-05-23T11:11:29Z</time>
      </trkpt>
      <trkpt lat="42.7376710" lon="-8.6610430">
        <ele>11.5</ele>
        <time>2021-05-23T11:11:30Z</time>
      </trkpt>
      <trkpt lat="42.7376720" lon="-8.6610430">
        <ele>11.5</ele>
        <time>2021-05-23T11:11:31Z</time>
      </trkpt>
      <trkpt lat="42.7376720" lon="-8.6610420">
        <ele>11.5</ele>
        <time>2021-05-23T11:11:32Z</time>
      </trkpt>
      <trkpt lat="42.7376730" lon="-8.6610420">
        <ele>11.5</ele>
        <time>2021-05-23T11:11:33Z</time>
      </trkpt>
      <trkpt lat="42.7376740" lon="-8.6610410">
        <ele>11.5</ele>
        <time>2021-05-23T11:11:34Z</time>
      </trkpt>
      <trkpt lat="42.7376740" lon="-8.6610410">
        <ele>11.5</ele>
        <time>2021-05-23T11:11:35Z</time>
      </trkpt>
      <trkpt lat="42.7376750" lon="-8.6610400">
        <ele>11.5</ele>
        <time>2021-05-23T11:11:36Z</time>
      </trkpt>
      <trkpt lat="42.7376760" lon="-8.6610400">
        <ele>11.5</ele>
        <time>2021-05-23T11:11:37Z</time>
      </trkpt>
      <trkpt lat="42.7376760" lon="-8.6610390">
        <ele>11.5</ele>
        <time>2021-05-23T11:11:38Z</time>
      </trkpt>
      <trkpt lat="42.7376770" lon="-8.6610390">
        <ele>11.5</ele>
        <time>2021-05-23T11:11:39Z</time>
      </trkpt>
      <trkpt lat="42.7376770" lon="-8.6610380">
        <ele>11.5</ele>
        <time>2021-05-23T11:11:40Z</time>
      </trkpt>
      <trkpt lat="42.7376780" lon="-8.6610370">
        <ele>11.5</ele>
        <time>2021-05-23T11:11:41Z</time>
      </trkpt>
      <trkpt lat="42.7376790" lon="-8.6610370">
        <ele>11.5</ele>
        <time>2021-05-23T11:11:42Z</time>
      </trkpt>
      <trkpt lat="42.7376790" lon="-8.6610360">
        <ele>11.5</ele>
        <time>2021-05-23T11:11:43Z</time>
      </trkpt>
      <trkpt lat="42.7376800" lon="-8.6610360">
        <ele>11.5</ele>
        <time>2021-05-23T11:11:44Z</time>
      </trkpt>
      <trkpt lat="42.7376810" lon="-8.6610350">
        <ele>11.5</ele>
        <time>2021-05-23T11:11:45Z</time>
      </trkpt>
      <trkpt lat="42.7376810" lon="-8.6610350">
        <ele>11.5</ele>
        <time>2021-05-23T11:11:46Z</time>
      </trkpt>
      <trkpt lat="42.7376820" lon="-8.6610340">
        <ele>11.5</ele>
        <time>2021-05-23T11:11:47Z</time>
      </trkpt>
      <trkpt lat="42.7376830" lon="-8.6610340">
        <ele>11.5</ele>
        <time>2021-05-23T11:11:48Z</time>
      </trkpt>
      <trkpt lat="42.7376830" lon="-8.6610330">
        <ele>11.5</ele>
        <time>2021-05-23T11:11:49Z</time>
      </trkpt>
      <trkpt lat="42.7376840" lon="-8.6610330">
        <ele>11.5</ele>
        <time>2021-05-23T11:11:50Z</time>
      </trkpt>
      <trkpt lat="42.7376840" lon="-8.6610320">
        <ele>11.5</ele>
        <time>2021-05-23T11:11:51Z</time>
      </trkpt>
      <trkpt lat="42.7376850" lon="-8.6610320">
        <ele>11.5</ele>
        <time>2021-05-23T11:11:52Z</time>
      </trkpt>
      <trkpt lat="42.7376860" lon="-8.6610310">
        <ele>11.5</ele>
        <time>2021-05-23T11:11:53Z</time>
      </trkpt>
      <trkpt lat="42.7376860" lon="-8.6610310">
        <ele>11.5</ele>
        <time>2021-05-23T11:11:54Z</time>
      </trkpt>
      <trkpt lat="42.7376870" lon="-8.6610300">
        <ele>11.5</ele>
        <time>2021-05-23T11:11:55Z</time>
      </trkpt>
      <trkpt lat="42.7376900" lon="-8.6610230">
        <ele>11.5</ele>
        <time>2021-05-23T11:11:56Z</time>
      </trkpt>
      <trkpt lat="42.7376920" lon="-8.6610190">
        <ele>11.5</ele>
        <time>2021-05-23T11:11:57Z</time>
      </trkpt>
      <trkpt lat="42.7376860" lon="-8.6610220">
        <ele>11.5</ele>
        <time>2021-05-23T11:11:58Z</time>
      </trkpt>
      <trkpt lat="42.7376780" lon="-8.6610300">
        <ele>11.5</ele>
        <time>2021-05-23T11:11:59Z</time>
      </trkpt>
      <trkpt lat="42.7376820" lon="-8.6610280">
        <ele>11.5</ele>
        <time>2021-05-23T11:12:00Z</time>
      </trkpt>
      <trkpt lat="42.7376830" lon="-8.6610280">
        <ele>11.5</ele>
        <time>2021-05-23T11:12:01Z</time>
      </trkpt>
      <trkpt lat="42.7376870" lon="-8.6610260">
        <ele>11.5</ele>
        <time>2021-05-23T11:12:02Z</time>
      </trkpt>
      <trkpt lat="42.7376860" lon="-8.6610320">
        <ele>11.5</ele>
        <time>2021-05-23T11:12:03Z</time>
      </trkpt>
      <trkpt lat="42.7376820" lon="-8.6610320">
        <ele>11.5</ele>
        <time>2021-05-23T11:12:04Z</time>
      </trkpt>
      <trkpt lat="42.7376790" lon="-8.6610400">
        <ele>11.5</ele>
        <time>2021-05-23T11:12:05Z</time>
      </trkpt>
      <trkpt lat="42.7376750" lon="-8.6610320">
        <ele>11.5</ele>
        <time>2021-05-23T11:12:06Z</time>
      </trkpt>
      <trkpt lat="42.7376830" lon="-8.6610250">
        <ele>11.5</ele>
        <time>2021-05-23T11:12:07Z</time>
      </trkpt>
      <trkpt lat="42.7376760" lon="-8.6610310">
        <ele>11.5</ele>
        <time>2021-05-23T11:12:08Z</time>
      </trkpt>
      <trkpt lat="42.7376740" lon="-8.6610380">
        <ele>11.5</ele>
        <time>2021-05-23T11:12:09Z</time>
      </trkpt>
      <trkpt lat="42.7376710" lon="-8.6610420">
        <ele>11.5</ele>
        <time>2021-05-23T11:12:10Z</time>
      </trkpt>
      <trkpt lat="42.7376640" lon="-8.6610420">
        <ele>11.5</ele>
        <time>2021-05-23T11:12:11Z</time>
      </trkpt>
      <trkpt lat="42.7376600" lon="-8.6610510">
        <ele>11.4</ele>
        <time>2021-05-23T11:12:12Z</time>
      </trkpt>
      <trkpt lat="42.7376540" lon="-8.6610590">
        <ele>11.4</ele>
        <time>2021-05-23T11:12:13Z</time>
      </trkpt>
      <trkpt lat="42.7376470" lon="-8.6610620">
        <ele>11.4</ele>
        <time>2021-05-23T11:12:14Z</time>
      </trkpt>
      <trkpt lat="42.7376400" lon="-8.6610620">
        <ele>11.4</ele>
        <time>2021-05-23T11:12:15Z</time>
      </trkpt>
      <trkpt lat="42.7376310" lon="-8.6610550">
        <ele>11.4</ele>
        <time>2021-05-23T11:12:17Z</time>
      </trkpt>
      <trkpt lat="42.7376220" lon="-8.6610530">
        <ele>11.4</ele>
        <time>2021-05-23T11:12:18Z</time>
      </trkpt>
      <trkpt lat="42.7376220" lon="-8.6610540">
        <ele>11.4</ele>
        <time>2021-05-23T11:12:19Z</time>
      </trkpt>
      <trkpt lat="42.7376270" lon="-8.6610610">
        <ele>11.4</ele>
        <time>2021-05-23T11:12:20Z</time>
      </trkpt>
      <trkpt lat="42.7376240" lon="-8.6610650">
        <ele>11.4</ele>
        <time>2021-05-23T11:12:21Z</time>
      </trkpt>
      <trkpt lat="42.7376240" lon="-8.6610630">
        <ele>11.4</ele>
        <time>2021-05-23T11:12:22Z</time>
      </trkpt>
      <trkpt lat="42.7376260" lon="-8.6610650">
        <ele>11.4</ele>
        <time>2021-05-23T11:12:23Z</time>
      </trkpt>
      <trkpt lat="42.7376270" lon="-8.6610650">
        <ele>11.4</ele>
        <time>2021-05-23T11:12:24Z</time>
      </trkpt>
      <trkpt lat="42.7376270" lon="-8.6610640">
        <ele>11.4</ele>
        <time>2021-05-23T11:12:25Z</time>
      </trkpt>
      <trkpt lat="42.7376350" lon="-8.6610750">
        <ele>11.4</ele>
        <time>2021-05-23T11:12:26Z</time>
      </trkpt>
      <trkpt lat="42.7376300" lon="-8.6610710">
        <ele>11.4</ele>
        <time>2021-05-23T11:12:27Z</time>
      </trkpt>
      <trkpt lat="42.7376290" lon="-8.6610720">
        <ele>11.4</ele>
        <time>2021-05-23T11:12:28Z</time>
      </trkpt>
      <trkpt lat="42.7376280" lon="-8.6610750">
        <ele>11.4</ele>
        <time>2021-05-23T11:12:29Z</time>
      </trkpt>
      <trkpt lat="42.7376270" lon="-8.6610820">
        <ele>11.4</ele>
        <time>2021-05-23T11:12:30Z</time>
      </trkpt>
      <trkpt lat="42.7376260" lon="-8.6610820">
        <ele>11.4</ele>
        <time>2021-05-23T11:12:31Z</time>
      </trkpt>
      <trkpt lat="42.7376220" lon="-8.6610800">
        <ele>11.4</ele>
        <time>2021-05-23T11:12:32Z</time>
      </trkpt>
      <trkpt lat="42.7376220" lon="-8.6610880">
        <ele>11.4</ele>
        <time>2021-05-23T11:12:33Z</time>
      </trkpt>
      <trkpt lat="42.7376200" lon="-8.6610870">
        <ele>11.4</ele>
        <time>2021-05-23T11:12:34Z</time>
      </trkpt>
      <trkpt lat="42.7376190" lon="-8.6610860">
        <ele>11.4</ele>
        <time>2021-05-23T11:12:35Z</time>
      </trkpt>
      <trkpt lat="42.7376190" lon="-8.6610900">
        <ele>11.2</ele>
        <time>2021-05-23T11:12:36Z</time>
      </trkpt>
      <trkpt lat="42.7376180" lon="-8.6610930">
        <ele>11.2</ele>
        <time>2021-05-23T11:12:37Z</time>
      </trkpt>
      <trkpt lat="42.7376170" lon="-8.6610980">
        <ele>11.2</ele>
        <time>2021-05-23T11:12:38Z</time>
      </trkpt>
      <trkpt lat="42.7376170" lon="-8.6610980">
        <ele>11.2</ele>
        <time>2021-05-23T11:12:39Z</time>
      </trkpt>
      <trkpt lat="42.7376170" lon="-8.6611020">
        <ele>11.2</ele>
        <time>2021-05-23T11:12:40Z</time>
      </trkpt>
      <trkpt lat="42.7376120" lon="-8.6611030">
        <ele>11.2</ele>
        <time>2021-05-23T11:12:41Z</time>
      </trkpt>
      <trkpt lat="42.7376110" lon="-8.6611040">
        <ele>11.2</ele>
        <time>2021-05-23T11:12:42Z</time>
      </trkpt>
      <trkpt lat="42.7376070" lon="-8.6611100">
        <ele>11.2</ele>
        <time>2021-05-23T11:12:43Z</time>
      </trkpt>
      <trkpt lat="42.7376040" lon="-8.6611170">
        <ele>11.2</ele>
        <time>2021-05-23T11:12:44Z</time>
      </trkpt>
      <trkpt lat="42.7376010" lon="-8.6611170">
        <ele>11.2</ele>
        <time>2021-05-23T11:12:45Z</time>
      </trkpt>
      <trkpt lat="42.7375970" lon="-8.6611170">
        <ele>11.2</ele>
        <time>2021-05-23T11:12:46Z</time>
      </trkpt>
      <trkpt lat="42.7375950" lon="-8.6611150">
        <ele>11.2</ele>
        <time>2021-05-23T11:12:47Z</time>
      </trkpt>
      <trkpt lat="42.7375960" lon="-8.6611170">
        <ele>11.2</ele>
        <time>2021-05-23T11:12:48Z</time>
      </trkpt>
      <trkpt lat="42.7376010" lon="-8.6611200">
        <ele>11.2</ele>
        <time>2021-05-23T11:12:49Z</time>
      </trkpt>
      <trkpt lat="42.7376030" lon="-8.6611220">
        <ele>11.2</ele>
        <time>2021-05-23T11:12:50Z</time>
      </trkpt>
      <trkpt lat="42.7376000" lon="-8.6611230">
        <ele>11.2</ele>
        <time>2021-05-23T11:12:51Z</time>
      </trkpt>
      <trkpt lat="42.7375980" lon="-8.6611260">
        <ele>11.2</ele>
        <time>2021-05-23T11:12:52Z</time>
      </trkpt>
      <trkpt lat="42.7375980" lon="-8.6611310">
        <ele>11.2</ele>
        <time>2021-05-23T11:12:53Z</time>
      </trkpt>
      <trkpt lat="42.7375990" lon="-8.6611310">
        <ele>11.2</ele>
        <time>2021-05-23T11:12:54Z</time>
      </trkpt>
      <trkpt lat="42.7375980" lon="-8.6611350">
        <ele>11.1</ele>
        <time>2021-05-23T11:12:55Z</time>
      </trkpt>
      <trkpt lat="42.7375970" lon="-8.6611370">
        <ele>11.1</ele>
        <time>2021-05-23T11:12:56Z</time>
      </trkpt>
      <trkpt lat="42.7375990" lon="-8.6611350">
        <ele>11.1</ele>
        <time>2021-05-23T11:12:57Z</time>
      </trkpt>
      <trkpt lat="42.7375980" lon="-8.6611320">
        <ele>11.1</ele>
        <time>2021-05-23T11:12:58Z</time>
      </trkpt>
      <trkpt lat="42.7376010" lon="-8.6611300">
        <ele>11.2</ele>
        <time>2021-05-23T11:12:59Z</time>
      </trkpt>
      <trkpt lat="42.7376040" lon="-8.6611330">
        <ele>11.1</ele>
        <time>2021-05-23T11:13:00Z</time>
      </trkpt>
      <trkpt lat="42.7376050" lon="-8.6611370">
        <ele>11.1</ele>
        <time>2021-05-23T11:13:01Z</time>
      </trkpt>
      <trkpt lat="42.7376040" lon="-8.6611360">
        <ele>11.1</ele>
        <time>2021-05-23T11:13:02Z</time>
      </trkpt>
      <trkpt lat="42.7375970" lon="-8.6611240">
        <ele>11.2</ele>
        <time>2021-05-23T11:13:03Z</time>
      </trkpt>
      <trkpt lat="42.7375970" lon="-8.6611320">
        <ele>11.1</ele>
        <time>2021-05-23T11:13:04Z</time>
      </trkpt>
      <trkpt lat="42.7376010" lon="-8.6611390">
        <ele>11.1</ele>
        <time>2021-05-23T11:13:05Z</time>
      </trkpt>
      <trkpt lat="42.7376030" lon="-8.6611380">
        <ele>11.1</ele>
        <time>2021-05-23T11:13:06Z</time>
      </trkpt>
      <trkpt lat="42.7376050" lon="-8.6611330">
        <ele>11.1</ele>
        <time>2021-05-23T11:13:07Z</time>
      </trkpt>
      <trkpt lat="42.7376030" lon="-8.6611350">
        <ele>11.1</ele>
        <time>2021-05-23T11:13:08Z</time>
      </trkpt>
      <trkpt lat="42.7376050" lon="-8.6611290">
        <ele>11.2</ele>
        <time>2021-05-23T11:13:09Z</time>
      </trkpt>
      <trkpt lat="42.7376020" lon="-8.6611200">
        <ele>11.2</ele>
        <time>2021-05-23T11:13:10Z</time>
      </trkpt>
      <trkpt lat="42.7375930" lon="-8.6611310">
        <ele>11.2</ele>
        <time>2021-05-23T11:13:11Z</time>
      </trkpt>
      <trkpt lat="42.7376000" lon="-8.6611320">
        <ele>11.1</ele>
        <time>2021-05-23T11:13:12Z</time>
      </trkpt>
      <trkpt lat="42.7375870" lon="-8.6611290">
        <ele>11.2</ele>
        <time>2021-05-23T11:13:13Z</time>
      </trkpt>
      <trkpt lat="42.7376110" lon="-8.6611220">
        <ele>11.2</ele>
        <time>2021-05-23T11:13:14Z</time>
      </trkpt>
      <trkpt lat="42.7375910" lon="-8.6611260">
        <ele>11.2</ele>
        <time>2021-05-23T11:13:15Z</time>
      </trkpt>
      <trkpt lat="42.7375870" lon="-8.6611160">
        <ele>11.2</ele>
        <time>2021-05-23T11:13:16Z</time>
      </trkpt>
      <trkpt lat="42.7375880" lon="-8.6611200">
        <ele>11.2</ele>
        <time>2021-05-23T11:13:17Z</time>
      </trkpt>
      <trkpt lat="42.7375880" lon="-8.6611170">
        <ele>11.2</ele>
        <time>2021-05-23T11:13:18Z</time>
      </trkpt>
      <trkpt lat="42.7375900" lon="-8.6611150">
        <ele>11.2</ele>
        <time>2021-05-23T11:13:19Z</time>
      </trkpt>
      <trkpt lat="42.7375880" lon="-8.6611130">
        <ele>11.2</ele>
        <time>2021-05-23T11:13:20Z</time>
      </trkpt>
      <trkpt lat="42.7375880" lon="-8.6611070">
        <ele>11.2</ele>
        <time>2021-05-23T11:13:21Z</time>
      </trkpt>
      <trkpt lat="42.7375880" lon="-8.6611030">
        <ele>11.2</ele>
        <time>2021-05-23T11:13:22Z</time>
      </trkpt>
      <trkpt lat="42.7375820" lon="-8.6610980">
        <ele>11.2</ele>
        <time>2021-05-23T11:13:23Z</time>
      </trkpt>
      <trkpt lat="42.7375770" lon="-8.6611050">
        <ele>11.2</ele>
        <time>2021-05-23T11:13:24Z</time>
      </trkpt>
      <trkpt lat="42.7375810" lon="-8.6611220">
        <ele>11.2</ele>
        <time>2021-05-23T11:13:25Z</time>
      </trkpt>
      <trkpt lat="42.7375830" lon="-8.6611300">
        <ele>11.2</ele>
        <time>2021-05-23T11:13:26Z</time>
      </trkpt>
      <trkpt lat="42.7375840" lon="-8.6611350">
        <ele>11.1</ele>
        <time>2021-05-23T11:13:27Z</time>
      </trkpt>
      <trkpt lat="42.7375840" lon="-8.6611500">
        <ele>11.1</ele>
        <time>2021-05-23T11:13:28Z</time>
      </trkpt>
      <trkpt lat="42.7375830" lon="-8.6611520">
        <ele>11.1</ele>
        <time>2021-05-23T11:13:29Z</time>
      </trkpt>
      <trkpt lat="42.7375480" lon="-8.6610530">
        <ele>11.3</ele>
        <time>2021-05-23T11:13:59Z</time>
      </trkpt>
      <trkpt lat="42.7375470" lon="-8.6610480">
        <ele>11.3</ele>
        <time>2021-05-23T11:14:06Z</time>
      </trkpt>
      <trkpt lat="42.7375470" lon="-8.6610480">
        <ele>11.3</ele>
        <time>2021-05-23T11:14:12Z</time>
      </trkpt>
      <trkpt lat="42.7375470" lon="-8.6610500">
        <ele>11.3</ele>
        <time>2021-05-23T11:14:19Z</time>
      </trkpt>
      <trkpt lat="42.7375470" lon="-8.6610510">
        <ele>11.3</ele>
        <time>2021-05-23T11:14:25Z</time>
      </trkpt>
      <trkpt lat="42.7375410" lon="-8.6610520">
        <ele>11.3</ele>
        <time>2021-05-23T11:14:31Z</time>
      </trkpt>
      <trkpt lat="42.7375690" lon="-8.6610050">
        <ele>11.4</ele>
        <time>2021-05-23T11:14:39Z</time>
      </trkpt>
      <trkpt lat="42.7375770" lon="-8.6609960">
        <ele>11.5</ele>
        <time>2021-05-23T11:14:46Z</time>
      </trkpt>
      <trkpt lat="42.7375740" lon="-8.6609960">
        <ele>11.5</ele>
        <time>2021-05-23T11:14:52Z</time>
      </trkpt>
      <trkpt lat="42.7375750" lon="-8.6609970">
        <ele>11.5</ele>
        <time>2021-05-23T11:14:59Z</time>
      </trkpt>
      <trkpt lat="42.7375480" lon="-8.6610490">
        <ele>11.3</ele>
        <time>2021-05-23T11:15:05Z</time>
      </trkpt>
      <trkpt lat="42.7375680" lon="-8.6610090">
        <ele>11.4</ele>
        <time>2021-05-23T11:15:11Z</time>
      </trkpt>
      <trkpt lat="42.7375680" lon="-8.6609900">
        <ele>11.5</ele>
        <time>2021-05-23T11:15:18Z</time>
      </trkpt>
      <trkpt lat="42.7375730" lon="-8.6609940">
        <ele>11.5</ele>
        <time>2021-05-23T11:15:24Z</time>
      </trkpt>
      <trkpt lat="42.7375740" lon="-8.6609870">
        <ele>11.5</ele>
        <time>2021-05-23T11:15:45Z</time>
      </trkpt>
      <trkpt lat="42.7375700" lon="-8.6609880">
        <ele>11.5</ele>
        <time>2021-05-23T11:15:47Z</time>
      </trkpt>
      <trkpt lat="42.7375740" lon="-8.6609970">
        <ele>11.5</ele>
        <time>2021-05-23T11:16:18Z</time>
      </trkpt>
      <trkpt lat="42.7375740" lon="-8.6609970">
        <ele>11.5</ele>
        <time>2021-05-23T11:16:20Z</time>
      </trkpt>
      <trkpt lat="42.7375760" lon="-8.6609970">
        <ele>11.5</ele>
        <time>2021-05-23T11:16:21Z</time>
      </trkpt>
      <trkpt lat="42.7375760" lon="-8.6609970">
        <ele>11.5</ele>
        <time>2021-05-23T11:16:22Z</time>
      </trkpt>
      <trkpt lat="42.7375770" lon="-8.6609960">
        <ele>11.5</ele>
        <time>2021-05-23T11:16:23Z</time>
      </trkpt>
      <trkpt lat="42.7375780" lon="-8.6609950">
        <ele>11.5</ele>
        <time>2021-05-23T11:16:24Z</time>
      </trkpt>
      <trkpt lat="42.7375800" lon="-8.6609940">
        <ele>11.5</ele>
        <time>2021-05-23T11:16:25Z</time>
      </trkpt>
      <trkpt lat="42.7375810" lon="-8.6609930">
        <ele>11.5</ele>
        <time>2021-05-23T11:16:26Z</time>
      </trkpt>
      <trkpt lat="42.7375830" lon="-8.6609920">
        <ele>11.5</ele>
        <time>2021-05-23T11:16:27Z</time>
      </trkpt>
      <trkpt lat="42.7375840" lon="-8.6609910">
        <ele>11.5</ele>
        <time>2021-05-23T11:16:28Z</time>
      </trkpt>
      <trkpt lat="42.7375410" lon="-8.6610580">
        <ele>11.3</ele>
        <time>2021-05-23T11:16:58Z</time>
      </trkpt>
      <trkpt lat="42.7375480" lon="-8.6610520">
        <ele>11.3</ele>
        <time>2021-05-23T11:17:05Z</time>
      </trkpt>
      <trkpt lat="42.7375480" lon="-8.6610510">
        <ele>11.3</ele>
        <time>2021-05-23T11:17:11Z</time>
      </trkpt>
      <trkpt lat="42.7375340" lon="-8.6610690">
        <ele>11.3</ele>
        <time>2021-05-23T11:17:17Z</time>
      </trkpt>
      <trkpt lat="42.7375390" lon="-8.6610540">
        <ele>11.3</ele>
        <time>2021-05-23T11:17:24Z</time>
      </trkpt>
      <trkpt lat="42.7375730" lon="-8.6609990">
        <ele>11.5</ele>
        <time>2021-05-23T11:17:30Z</time>
      </trkpt>
      <trkpt lat="42.7375750" lon="-8.6609950">
        <ele>11.5</ele>
        <time>2021-05-23T11:17:37Z</time>
      </trkpt>
      <trkpt lat="42.7375770" lon="-8.6610100">
        <ele>11.4</ele>
        <time>2021-05-23T11:17:43Z</time>
      </trkpt>
      <trkpt lat="42.7375760" lon="-8.6610040">
        <ele>11.4</ele>
        <time>2021-05-23T11:17:50Z</time>
      </trkpt>
      <trkpt lat="42.7375750" lon="-8.6609970">
        <ele>11.5</ele>
        <time>2021-05-23T11:17:56Z</time>
      </trkpt>
      <trkpt lat="42.7375670" lon="-8.6609850">
        <ele>11.5</ele>
        <time>2021-05-23T11:18:03Z</time>
      </trkpt>
      <trkpt lat="42.7375760" lon="-8.6609980">
        <ele>11.5</ele>
        <time>2021-05-23T11:18:09Z</time>
      </trkpt>
      <trkpt lat="42.7375490" lon="-8.6610500">
        <ele>11.3</ele>
        <time>2021-05-23T11:18:16Z</time>
      </trkpt>
      <trkpt lat="42.7375730" lon="-8.6610010">
        <ele>11.5</ele>
        <time>2021-05-23T11:18:22Z</time>
      </trkpt>
      <trkpt lat="42.7375750" lon="-8.6609960">
        <ele>11.5</ele>
        <time>2021-05-23T11:18:28Z</time>
      </trkpt>
      <trkpt lat="42.7375740" lon="-8.6609980">
        <ele>11.5</ele>
        <time>2021-05-23T11:18:35Z</time>
      </trkpt>
      <trkpt lat="42.7375740" lon="-8.6609970">
        <ele>11.5</ele>
        <time>2021-05-23T11:18:41Z</time>
      </trkpt>
      <trkpt lat="42.7374570" lon="-8.6611070">
        <ele>11.1</ele>
        <time>2021-05-23T11:18:48Z</time>
      </trkpt>
      <trkpt lat="42.7374480" lon="-8.6611700">
        <ele>11.0</ele>
        <time>2021-05-23T11:18:54Z</time>
      </trkpt>
      <trkpt lat="42.7374820" lon="-8.6611540">
        <ele>11.0</ele>
        <time>2021-05-23T11:18:58Z</time>
      </trkpt>
      <trkpt lat="42.7374850" lon="-8.6611590">
        <ele>11.0</ele>
        <time>2021-05-23T11:18:59Z</time>
      </trkpt>
      <trkpt lat="42.7374680" lon="-8.6611640">
        <ele>11.0</ele>
        <time>2021-05-23T11:19:00Z</time>
      </trkpt>
      <trkpt lat="42.7374680" lon="-8.6611640">
        <ele>11.0</ele>
        <time>2021-05-23T11:19:01Z</time>
      </trkpt>
      <trkpt lat="42.7374790" lon="-8.6611620">
        <ele>11.0</ele>
        <time>2021-05-23T11:19:02Z</time>
      </trkpt>
      <trkpt lat="42.7374800" lon="-8.6611630">
        <ele>11.0</ele>
        <time>2021-05-23T11:19:03Z</time>
      </trkpt>
      <trkpt lat="42.7374800" lon="-8.6611630">
        <ele>11.0</ele>
        <time>2021-05-23T11:19:04Z</time>
      </trkpt>
      <trkpt lat="42.7374820" lon="-8.6611610">
        <ele>11.0</ele>
        <time>2021-05-23T11:19:05Z</time>
      </trkpt>
      <trkpt lat="42.7374840" lon="-8.6611600">
        <ele>11.0</ele>
        <time>2021-05-23T11:19:06Z</time>
      </trkpt>
      <trkpt lat="42.7374840" lon="-8.6611600">
        <ele>11.0</ele>
        <time>2021-05-23T11:19:07Z</time>
      </trkpt>
      <trkpt lat="42.7375030" lon="-8.6611510">
        <ele>11.0</ele>
        <time>2021-05-23T11:19:08Z</time>
      </trkpt>
      <trkpt lat="42.7375110" lon="-8.6611470">
        <ele>11.0</ele>
        <time>2021-05-23T11:19:09Z</time>
      </trkpt>
      <trkpt lat="42.7375200" lon="-8.6611420">
        <ele>11.0</ele>
        <time>2021-05-23T11:19:10Z</time>
      </trkpt>
      <trkpt lat="42.7375300" lon="-8.6611370">
        <ele>11.1</ele>
        <time>2021-05-23T11:19:11Z</time>
      </trkpt>
      <trkpt lat="42.7375390" lon="-8.6611330">
        <ele>11.1</ele>
        <time>2021-05-23T11:19:12Z</time>
      </trkpt>
      <trkpt lat="42.7373810" lon="-8.6612820">
        <ele>10.6</ele>
        <time>2021-05-23T11:19:13Z</time>
      </trkpt>
      <trkpt lat="42.7373960" lon="-8.6612640">
        <ele>10.6</ele>
        <time>2021-05-23T11:19:14Z</time>
      </trkpt>
      <trkpt lat="42.7374110" lon="-8.6612460">
        <ele>10.7</ele>
        <time>2021-05-23T11:19:15Z</time>
      </trkpt>
      <trkpt lat="42.7374260" lon="-8.6612280">
        <ele>10.7</ele>
        <time>2021-05-23T11:19:16Z</time>
      </trkpt>
      <trkpt lat="42.7374410" lon="-8.6612100">
        <ele>10.9</ele>
        <time>2021-05-23T11:19:17Z</time>
      </trkpt>
      <trkpt lat="42.7374560" lon="-8.6611920">
        <ele>10.9</ele>
        <time>2021-05-23T11:19:18Z</time>
      </trkpt>
      <trkpt lat="42.7374710" lon="-8.6611740">
        <ele>11.0</ele>
        <time>2021-05-23T11:19:39Z</time>
      </trkpt>
      <trkpt lat="42.7374860" lon="-8.6611560">
        <ele>11.0</ele>
        <time>2021-05-23T11:19:40Z</time>
      </trkpt>
      <trkpt lat="42.7375010" lon="-8.6611380">
        <ele>11.0</ele>
        <time>2021-05-23T11:19:41Z</time>
      </trkpt>
      <trkpt lat="42.7375160" lon="-8.6611200">
        <ele>11.2</ele>
        <time>2021-05-23T11:19:42Z</time>
      </trkpt>
      <trkpt lat="42.7375310" lon="-8.6611020">
        <ele>11.2</ele>
        <time>2021-05-23T11:19:43Z</time>
      </trkpt>
      <trkpt lat="42.7375460" lon="-8.6610840">
        <ele>11.3</ele>
        <time>2021-05-23T11:19:44Z</time>
      </trkpt>
      <trkpt lat="42.7375980" lon="-8.6610940">
        <ele>11.2</ele>
        <time>2021-05-23T11:19:45Z</time>
      </trkpt>
      <trkpt lat="42.7376420" lon="-8.6610980">
        <ele>11.3</ele>
        <time>2021-05-23T11:19:46Z</time>
      </trkpt>
      <trkpt lat="42.7376430" lon="-8.6611060">
        <ele>11.3</ele>
        <time>2021-05-23T11:19:47Z</time>
      </trkpt>
      <trkpt lat="42.7376540" lon="-8.6611340">
        <ele>11.2</ele>
        <time>2021-05-23T11:19:48Z</time>
      </trkpt>
      <trkpt lat="42.7376660" lon="-8.6611610">
        <ele>11.2</ele>
        <time>2021-05-23T11:19:49Z</time>
      </trkpt>
      <trkpt lat="42.7376780" lon="-8.6611890">
        <ele>11.0</ele>
        <time>2021-05-23T11:19:50Z</time>
      </trkpt>
      <trkpt lat="42.7376890" lon="-8.6612160">
        <ele>11.1</ele>
        <time>2021-05-23T11:19:51Z</time>
      </trkpt>
      <trkpt lat="42.7377010" lon="-8.6612430">
        <ele>10.9</ele>
        <time>2021-05-23T11:19:52Z</time>
      </trkpt>
      <trkpt lat="42.7377130" lon="-8.6612710">
        <ele>10.8</ele>
        <time>2021-05-23T11:19:53Z</time>
      </trkpt>
      <trkpt lat="42.7377240" lon="-8.6612980">
        <ele>10.8</ele>
        <time>2021-05-23T11:19:54Z</time>
      </trkpt>
      <trkpt lat="42.7377360" lon="-8.6613250">
        <ele>10.7</ele>
        <time>2021-05-23T11:19:55Z</time>
      </trkpt>
      <trkpt lat="42.7377480" lon="-8.6613530">
        <ele>10.6</ele>
        <time>2021-05-23T11:19:56Z</time>
      </trkpt>
      <trkpt lat="42.7377590" lon="-8.6613800">
        <ele>10.6</ele>
        <time>2021-05-23T11:19:57Z</time>
      </trkpt>
      <trkpt lat="42.7377710" lon="-8.6614080">
        <ele>10.4</ele>
        <time>2021-05-23T11:19:58Z</time>
      </trkpt>
      <trkpt lat="42.7377830" lon="-8.6614350">
        <ele>10.3</ele>
        <time>2021-05-23T11:19:59Z</time>
      </trkpt>
      <trkpt lat="42.7377940" lon="-8.6614620">
        <ele>10.3</ele>
        <time>2021-05-23T11:20:00Z</time>
      </trkpt>
      <trkpt lat="42.7378060" lon="-8.6614900">
        <ele>10.2</ele>
        <time>2021-05-23T11:20:01Z</time>
      </trkpt>
      <trkpt lat="42.7378180" lon="-8.6615170">
        <ele>10.2</ele>
        <time>2021-05-23T11:20:02Z</time>
      </trkpt>
      <trkpt lat="42.7378290" lon="-8.6615450">
        <ele>10.1</ele>
        <time>2021-05-23T11:20:03Z</time>
      </trkpt>
      <trkpt lat="42.7378410" lon="-8.6615720">
        <ele>9.9</ele>
        <time>2021-05-23T11:20:04Z</time>
      </trkpt>
      <trkpt lat="42.7377920" lon="-8.6615350">
        <ele>10.1</ele>
        <time>2021-05-23T11:20:05Z</time>
      </trkpt>
      <trkpt lat="42.7377800" lon="-8.6614900">
        <ele>10.2</ele>
        <time>2021-05-23T11:20:06Z</time>
      </trkpt>
      <trkpt lat="42.7377670" lon="-8.6614600">
        <ele>10.3</ele>
        <time>2021-05-23T11:20:07Z</time>
      </trkpt>
      <trkpt lat="42.7377530" lon="-8.6614310">
        <ele>10.4</ele>
        <time>2021-05-23T11:20:08Z</time>
      </trkpt>
      <trkpt lat="42.7377400" lon="-8.6614010">
        <ele>10.4</ele>
        <time>2021-05-23T11:20:09Z</time>
      </trkpt>
      <trkpt lat="42.7377270" lon="-8.6613720">
        <ele>10.5</ele>
        <time>2021-05-23T11:20:10Z</time>
      </trkpt>
      <trkpt lat="42.7377140" lon="-8.6613430">
        <ele>10.7</ele>
        <time>2021-05-23T11:20:11Z</time>
      </trkpt>
      <trkpt lat="42.7377010" lon="-8.6613130">
        <ele>10.7</ele>
        <time>2021-05-23T11:20:12Z</time>
      </trkpt>
      <trkpt lat="42.7376870" lon="-8.6612840">
        <ele>10.8</ele>
        <time>2021-05-23T11:20:13Z</time>
      </trkpt>
      <trkpt lat="42.7376740" lon="-8.6612540">
        <ele>10.9</ele>
        <time>2021-05-23T11:20:14Z</time>
      </trkpt>
      <trkpt lat="42.7376610" lon="-8.6612250">
        <ele>10.9</ele>
        <time>2021-05-23T11:20:15Z</time>
      </trkpt>
      <trkpt lat="42.7376440" lon="-8.6611770">
        <ele>11.0</ele>
        <time>2021-05-23T11:20:16Z</time>
      </trkpt>
      <trkpt lat="42.7376260" lon="-8.6611470">
        <ele>11.1</ele>
        <time>2021-05-23T11:20:17Z</time>
      </trkpt>
      <trkpt lat="42.7376220" lon="-8.6611340">
        <ele>11.1</ele>
        <time>2021-05-23T11:20:18Z</time>
      </trkpt>
      <trkpt lat="42.7376210" lon="-8.6611260">
        <ele>11.3</ele>
        <time>2021-05-23T11:20:19Z</time>
      </trkpt>
      <trkpt lat="42.7376210" lon="-8.6611260">
        <ele>11.3</ele>
        <time>2021-05-23T11:20:20Z</time>
      </trkpt>
      <trkpt lat="42.7376210" lon="-8.6611260">
        <ele>11.3</ele>
        <time>2021-05-23T11:20:21Z</time>
      </trkpt>
      <trkpt lat="42.7376520" lon="-8.6611210">
        <ele>11.3</ele>
        <time>2021-05-23T11:20:22Z</time>
      </trkpt>
      <trkpt lat="42.7376580" lon="-8.6611210">
        <ele>11.3</ele>
        <time>2021-05-23T11:20:23Z</time>
      </trkpt>
      <trkpt lat="42.7376630" lon="-8.6611200">
        <ele>11.3</ele>
        <time>2021-05-23T11:20:24Z</time>
      </trkpt>
      <trkpt lat="42.7376670" lon="-8.6611200">
        <ele>11.3</ele>
        <time>2021-05-23T11:20:25Z</time>
      </trkpt>
      <trkpt lat="42.7376720" lon="-8.6611190">
        <ele>11.3</ele>
        <time>2021-05-23T11:20:26Z</time>
      </trkpt>
      <trkpt lat="42.7376770" lon="-8.6611190">
        <ele>11.3</ele>
        <time>2021-05-23T11:20:27Z</time>
      </trkpt>
      <trkpt lat="42.7376820" lon="-8.6611180">
        <ele>11.3</ele>
        <time>2021-05-23T11:20:28Z</time>
      </trkpt>
      <trkpt lat="42.7376860" lon="-8.6611180">
        <ele>11.3</ele>
        <time>2021-05-23T11:20:29Z</time>
      </trkpt>
      <trkpt lat="42.7376910" lon="-8.6611170">
        <ele>11.3</ele>
        <time>2021-05-23T11:20:30Z</time>
      </trkpt>
      <trkpt lat="42.7376910" lon="-8.6611170">
        <ele>11.3</ele>
        <time>2021-05-23T11:20:31Z</time>
      </trkpt>
      <trkpt lat="42.7376910" lon="-8.6611170">
        <ele>11.3</ele>
        <time>2021-05-23T11:20:32Z</time>
      </trkpt>
      <trkpt lat="42.7376910" lon="-8.6611170">
        <ele>11.3</ele>
        <time>2021-05-23T11:20:33Z</time>
      </trkpt>
      <trkpt lat="42.7376910" lon="-8.6611170">
        <ele>11.3</ele>
        <time>2021-05-23T11:20:34Z</time>
      </trkpt>
      <trkpt lat="42.7376720" lon="-8.6611030">
        <ele>11.3</ele>
        <time>2021-05-23T11:20:35Z</time>
      </trkpt>
      <trkpt lat="42.7376770" lon="-8.6611050">
        <ele>11.3</ele>
        <time>2021-05-23T11:20:36Z</time>
      </trkpt>
      <trkpt lat="42.7376670" lon="-8.6610970">
        <ele>11.3</ele>
        <time>2021-05-23T11:20:37Z</time>
      </trkpt>
      <trkpt lat="42.7376680" lon="-8.6610990">
        <ele>11.3</ele>
        <time>2021-05-23T11:20:38Z</time>
      </trkpt>
      <trkpt lat="42.7376680" lon="-8.6611000">
        <ele>11.3</ele>
        <time>2021-05-23T11:20:39Z</time>
      </trkpt>
      <trkpt lat="42.7376680" lon="-8.6611000">
        <ele>11.3</ele>
        <time>2021-05-23T11:20:40Z</time>
      </trkpt>
      <trkpt lat="42.7376500" lon="-8.6610650">
        <ele>11.4</ele>
        <time>2021-05-23T11:20:41Z</time>
      </trkpt>
      <trkpt lat="42.7376560" lon="-8.6610640">
        <ele>11.4</ele>
        <time>2021-05-23T11:20:42Z</time>
      </trkpt>
      <trkpt lat="42.7376560" lon="-8.6610640">
        <ele>11.4</ele>
        <time>2021-05-23T11:20:43Z</time>
      </trkpt>
      <trkpt lat="42.7376560" lon="-8.6610640">
        <ele>11.4</ele>
        <time>2021-05-23T11:20:44Z</time>
      </trkpt>
      <trkpt lat="42.7376560" lon="-8.6610640">
        <ele>11.4</ele>
        <time>2021-05-23T11:20:45Z</time>
      </trkpt>
      <trkpt lat="42.7376590" lon="-8.6610290">
        <ele>11.5</ele>
        <time>2021-05-23T11:20:46Z</time>
      </trkpt>
      <trkpt lat="42.7376560" lon="-8.6610410">
        <ele>11.5</ele>
        <time>2021-05-23T11:20:47Z</time>
      </trkpt>
      <trkpt lat="42.7376560" lon="-8.6610410">
        <ele>11.5</ele>
        <time>2021-05-23T11:20:48Z</time>
      </trkpt>
      <trkpt lat="42.7376560" lon="-8.6610410">
        <ele>11.5</ele>
        <time>2021-05-23T11:20:49Z</time>
      </trkpt>
      <trkpt lat="42.7376560" lon="-8.6610410">
        <ele>11.5</ele>
        <time>2021-05-23T11:20:50Z</time>
      </trkpt>
      <trkpt lat="42.7376560" lon="-8.6610410">
        <ele>11.5</ele>
        <time>2021-05-23T11:20:51Z</time>
      </trkpt>
      <trkpt lat="42.7376560" lon="-8.6610410">
        <ele>11.5</ele>
        <time>2021-05-23T11:20:52Z</time>
      </trkpt>
      <trkpt lat="42.7376560" lon="-8.6610410">
        <ele>11.5</ele>
        <time>2021-05-23T11:20:53Z</time>
      </trkpt>
      <trkpt lat="42.7376560" lon="-8.6610410">
        <ele>11.5</ele>
        <time>2021-05-23T11:20:54Z</time>
      </trkpt>
      <trkpt lat="42.7376520" lon="-8.6610160">
        <ele>11.5</ele>
        <time>2021-05-23T11:20:55Z</time>
      </trkpt>
      <trkpt lat="42.7376470" lon="-8.6610170">
        <ele>11.5</ele>
        <time>2021-05-23T11:20:56Z</time>
      </trkpt>
      <trkpt lat="42.7376390" lon="-8.6610130">
        <ele>11.5</ele>
        <time>2021-05-23T11:20:57Z</time>
      </trkpt>
      <trkpt lat="42.7376370" lon="-8.6610140">
        <ele>11.5</ele>
        <time>2021-05-23T11:20:58Z</time>
      </trkpt>
      <trkpt lat="42.7376370" lon="-8.6610130">
        <ele>11.5</ele>
        <time>2021-05-23T11:20:59Z</time>
      </trkpt>
      <trkpt lat="42.7376380" lon="-8.6610110">
        <ele>11.5</ele>
        <time>2021-05-23T11:21:00Z</time>
      </trkpt>
      <trkpt lat="42.7376390" lon="-8.6610050">
        <ele>11.5</ele>
        <time>2021-05-23T11:21:01Z</time>
      </trkpt>
      <trkpt lat="42.7376320" lon="-8.6610110">
        <ele>11.5</ele>
        <time>2021-05-23T11:21:02Z</time>
      </trkpt>
      <trkpt lat="42.7376340" lon="-8.6610100">
        <ele>11.5</ele>
        <time>2021-05-23T11:21:03Z</time>
      </trkpt>
      <trkpt lat="42.7376350" lon="-8.6610100">
        <ele>11.5</ele>
        <time>2021-05-23T11:21:04Z</time>
      </trkpt>
      <trkpt lat="42.7376370" lon="-8.6610090">
        <ele>11.5</ele>
        <time>2021-05-23T11:21:05Z</time>
      </trkpt>
      <trkpt lat="42.7376380" lon="-8.6610090">
        <ele>11.5</ele>
        <time>2021-05-23T11:21:06Z</time>
      </trkpt>
      <trkpt lat="42.7376400" lon="-8.6610080">
        <ele>11.5</ele>
        <time>2021-05-23T11:21:07Z</time>
      </trkpt>
      <trkpt lat="42.7376410" lon="-8.6610080">
        <ele>11.5</ele>
        <time>2021-05-23T11:21:08Z</time>
      </trkpt>
      <trkpt lat="42.7376430" lon="-8.6610070">
        <ele>11.5</ele>
        <time>2021-05-23T11:21:09Z</time>
      </trkpt>
      <trkpt lat="42.7376440" lon="-8.6610070">
        <ele>11.5</ele>
        <time>2021-05-23T11:21:10Z</time>
      </trkpt>
      <trkpt lat="42.7376460" lon="-8.6610060">
        <ele>11.5</ele>
        <time>2021-05-23T11:21:11Z</time>
      </trkpt>
      <trkpt lat="42.7376470" lon="-8.6610060">
        <ele>11.5</ele>
        <time>2021-05-23T11:21:12Z</time>
      </trkpt>
      <trkpt lat="42.7376490" lon="-8.6610050">
        <ele>11.5</ele>
        <time>2021-05-23T11:21:13Z</time>
      </trkpt>
      <trkpt lat="42.7376500" lon="-8.6610050">
        <ele>11.5</ele>
        <time>2021-05-23T11:21:14Z</time>
      </trkpt>
      <trkpt lat="42.7376520" lon="-8.6610040">
        <ele>11.5</ele>
        <time>2021-05-23T11:21:15Z</time>
      </trkpt>
      <trkpt lat="42.7376530" lon="-8.6610040">
        <ele>11.5</ele>
        <time>2021-05-23T11:21:16Z</time>
      </trkpt>
      <trkpt lat="42.7376550" lon="-8.6610030">
        <ele>11.6</ele>
        <time>2021-05-23T11:21:17Z</time>
      </trkpt>
      <trkpt lat="42.7376560" lon="-8.6610030">
        <ele>11.6</ele>
        <time>2021-05-23T11:21:18Z</time>
      </trkpt>
      <trkpt lat="42.7376580" lon="-8.6610020">
        <ele>11.6</ele>
        <time>2021-05-23T11:21:19Z</time>
      </trkpt>
      <trkpt lat="42.7376600" lon="-8.6610010">
        <ele>11.6</ele>
        <time>2021-05-23T11:21:20Z</time>
      </trkpt>
      <trkpt lat="42.7376610" lon="-8.6610010">
        <ele>11.6</ele>
        <time>2021-05-23T11:21:21Z</time>
      </trkpt>
      <trkpt lat="42.7376630" lon="-8.6610000">
        <ele>11.6</ele>
        <time>2021-05-23T11:21:22Z</time>
      </trkpt>
      <trkpt lat="42.7376640" lon="-8.6610000">
        <ele>11.6</ele>
        <time>2021-05-23T11:21:23Z</time>
      </trkpt>
      <trkpt lat="42.7376660" lon="-8.6609990">
        <ele>11.6</ele>
        <time>2021-05-23T11:21:24Z</time>
      </trkpt>
      <trkpt lat="42.7376670" lon="-8.6609990">
        <ele>11.6</ele>
        <time>2021-05-23T11:21:25Z</time>
      </trkpt>
      <trkpt lat="42.7376690" lon="-8.6609980">
        <ele>11.6</ele>
        <time>2021-05-23T11:21:26Z</time>
      </trkpt>
      <trkpt lat="42.7376700" lon="-8.6609980">
        <ele>11.6</ele>
        <time>2021-05-23T11:21:27Z</time>
      </trkpt>
      <trkpt lat="42.7376720" lon="-8.6609970">
        <ele>11.6</ele>
        <time>2021-05-23T11:21:28Z</time>
      </trkpt>
      <trkpt lat="42.7376730" lon="-8.6609970">
        <ele>11.6</ele>
        <time>2021-05-23T11:21:29Z</time>
      </trkpt>
      <trkpt lat="42.7376750" lon="-8.6609960">
        <ele>11.6</ele>
        <time>2021-05-23T11:21:30Z</time>
      </trkpt>
      <trkpt lat="42.7376760" lon="-8.6609960">
        <ele>11.6</ele>
        <time>2021-05-23T11:21:31Z</time>
      </trkpt>
      <trkpt lat="42.7376780" lon="-8.6609950">
        <ele>11.6</ele>
        <time>2021-05-23T11:21:32Z</time>
      </trkpt>
      <trkpt lat="42.7376790" lon="-8.6609950">
        <ele>11.6</ele>
        <time>2021-05-23T11:21:33Z</time>
      </trkpt>
      <trkpt lat="42.7376810" lon="-8.6609940">
        <ele>11.6</ele>
        <time>2021-05-23T11:21:34Z</time>
      </trkpt>
      <trkpt lat="42.7376820" lon="-8.6609940">
        <ele>11.6</ele>
        <time>2021-05-23T11:21:35Z</time>
      </trkpt>
      <trkpt lat="42.7376840" lon="-8.6609930">
        <ele>11.7</ele>
        <time>2021-05-23T11:21:36Z</time>
      </trkpt>
      <trkpt lat="42.7376860" lon="-8.6609890">
        <ele>11.7</ele>
        <time>2021-05-23T11:21:37Z</time>
      </trkpt>
      <trkpt lat="42.7376860" lon="-8.6609890">
        <ele>11.7</ele>
        <time>2021-05-23T11:21:38Z</time>
      </trkpt>
      <trkpt lat="42.7376840" lon="-8.6610050">
        <ele>11.5</ele>
        <time>2021-05-23T11:21:39Z</time>
      </trkpt>
      <trkpt lat="42.7376580" lon="-8.6610080">
        <ele>11.5</ele>
        <time>2021-05-23T11:21:40Z</time>
      </trkpt>
      <trkpt lat="42.7376550" lon="-8.6610200">
        <ele>11.5</ele>
        <time>2021-05-23T11:21:41Z</time>
      </trkpt>
      <trkpt lat="42.7376550" lon="-8.6610200">
        <ele>11.5</ele>
        <time>2021-05-23T11:21:42Z</time>
      </trkpt>
      <trkpt lat="42.7376550" lon="-8.6610200">
        <ele>11.5</ele>
        <time>2021-05-23T11:21:43Z</time>
      </trkpt>
      <trkpt lat="42.7376550" lon="-8.6610200">
        <ele>11.5</ele>
        <time>2021-05-23T11:21:44Z</time>
      </trkpt>
      <trkpt lat="42.7376500" lon="-8.6610470">
        <ele>11.4</ele>
        <time>2021-05-23T11:21:45Z</time>
      </trkpt>
      <trkpt lat="42.7376540" lon="-8.6610450">
        <ele>11.5</ele>
        <time>2021-05-23T11:21:46Z</time>
      </trkpt>
      <trkpt lat="42.7376590" lon="-8.6610380">
        <ele>11.5</ele>
        <time>2021-05-23T11:21:47Z</time>
      </trkpt>
      <trkpt lat="42.7376640" lon="-8.6610320">
        <ele>11.5</ele>
        <time>2021-05-23T11:21:48Z</time>
      </trkpt>
      <trkpt lat="42.7376690" lon="-8.6610260">
        <ele>11.5</ele>
        <time>2021-05-23T11:21:49Z</time>
      </trkpt>
      <trkpt lat="42.7376740" lon="-8.6610190">
        <ele>11.5</ele>
        <time>2021-05-23T11:21:50Z</time>
      </trkpt>
      <trkpt lat="42.7376790" lon="-8.6610130">
        <ele>11.5</ele>
        <time>2021-05-23T11:21:51Z</time>
      </trkpt>
      <trkpt lat="42.7376790" lon="-8.6610130">
        <ele>11.5</ele>
        <time>2021-05-23T11:21:52Z</time>
      </trkpt>
      <trkpt lat="42.7376790" lon="-8.6610130">
        <ele>11.5</ele>
        <time>2021-05-23T11:21:53Z</time>
      </trkpt>
      <trkpt lat="42.7376790" lon="-8.6610130">
        <ele>11.5</ele>
        <time>2021-05-23T11:21:54Z</time>
      </trkpt>
      <trkpt lat="42.7376790" lon="-8.6610130">
        <ele>11.5</ele>
        <time>2021-05-23T11:21:55Z</time>
      </trkpt>
      <trkpt lat="42.7376790" lon="-8.6610130">
        <ele>11.5</ele>
        <time>2021-05-23T11:21:56Z</time>
      </trkpt>
      <trkpt lat="42.7376830" lon="-8.6610190">
        <ele>11.5</ele>
        <time>2021-05-23T11:21:57Z</time>
      </trkpt>
      <trkpt lat="42.7376780" lon="-8.6610210">
        <ele>11.5</ele>
        <time>2021-05-23T11:21:58Z</time>
      </trkpt>
      <trkpt lat="42.7376790" lon="-8.6610230">
        <ele>11.5</ele>
        <time>2021-05-23T11:21:59Z</time>
      </trkpt>
      <trkpt lat="42.7376760" lon="-8.6610210">
        <ele>11.5</ele>
        <time>2021-05-23T11:22:00Z</time>
      </trkpt>
      <trkpt lat="42.7376710" lon="-8.6610210">
        <ele>11.5</ele>
        <time>2021-05-23T11:22:01Z</time>
      </trkpt>
      <trkpt lat="42.7376790" lon="-8.6610140">
        <ele>11.5</ele>
        <time>2021-05-23T11:22:02Z</time>
      </trkpt>
      <trkpt lat="42.7376690" lon="-8.6610180">
        <ele>11.5</ele>
        <time>2021-05-23T11:22:03Z</time>
      </trkpt>
      <trkpt lat="42.7376690" lon="-8.6610180">
        <ele>11.5</ele>
        <time>2021-05-23T11:22:04Z</time>
      </trkpt>
      <trkpt lat="42.7376610" lon="-8.6610200">
        <ele>11.5</ele>
        <time>2021-05-23T11:22:05Z</time>
      </trkpt>
      <trkpt lat="42.7376550" lon="-8.6610270">
        <ele>11.5</ele>
        <time>2021-05-23T11:22:06Z</time>
      </trkpt>
      <trkpt lat="42.7376480" lon="-8.6610240">
        <ele>11.5</ele>
        <time>2021-05-23T11:22:07Z</time>
      </trkpt>
      <trkpt lat="42.7376540" lon="-8.6610220">
        <ele>11.5</ele>
        <time>2021-05-23T11:22:08Z</time>
      </trkpt>
      <trkpt lat="42.7376540" lon="-8.6610190">
        <ele>11.5</ele>
        <time>2021-05-23T11:22:09Z</time>
      </trkpt>
      <trkpt lat="42.7376450" lon="-8.6610220">
        <ele>11.5</ele>
        <time>2021-05-23T11:22:10Z</time>
      </trkpt>
      <trkpt lat="42.7376470" lon="-8.6610170">
        <ele>11.5</ele>
        <time>2021-05-23T11:22:11Z</time>
      </trkpt>
      <trkpt lat="42.7376400" lon="-8.6610200">
        <ele>11.5</ele>
        <time>2021-05-23T11:22:12Z</time>
      </trkpt>
      <trkpt lat="42.7376340" lon="-8.6610210">
        <ele>11.5</ele>
        <time>2021-05-23T11:22:13Z</time>
      </trkpt>
      <trkpt lat="42.7376340" lon="-8.6610330">
        <ele>11.5</ele>
        <time>2021-05-23T11:22:14Z</time>
      </trkpt>
      <trkpt lat="42.7376340" lon="-8.6610330">
        <ele>11.5</ele>
        <time>2021-05-23T11:22:15Z</time>
      </trkpt>
      <trkpt lat="42.7376200" lon="-8.6610520">
        <ele>11.4</ele>
        <time>2021-05-23T11:22:16Z</time>
      </trkpt>
      <trkpt lat="42.7376310" lon="-8.6610320">
        <ele>11.5</ele>
        <time>2021-05-23T11:22:17Z</time>
      </trkpt>
      <trkpt lat="42.7376470" lon="-8.6610310">
        <ele>11.5</ele>
        <time>2021-05-23T11:22:18Z</time>
      </trkpt>
      <trkpt lat="42.7376410" lon="-8.6610220">
        <ele>11.5</ele>
        <time>2021-05-23T11:22:19Z</time>
      </trkpt>
      <trkpt lat="42.7376210" lon="-8.6610450">
        <ele>11.5</ele>
        <time>2021-05-23T11:22:20Z</time>
      </trkpt>
      <trkpt lat="42.7376050" lon="-8.6610470">
        <ele>11.4</ele>
        <time>2021-05-23T11:22:21Z</time>
      </trkpt>
      <trkpt lat="42.7375920" lon="-8.6610310">
        <ele>11.5</ele>
        <time>2021-05-23T11:22:22Z</time>
      </trkpt>
      <trkpt lat="42.7375830" lon="-8.6610210">
        <ele>11.4</ele>
        <time>2021-05-23T11:22:23Z</time>
      </trkpt>
      <trkpt lat="42.7375690" lon="-8.6610180">
        <ele>11.4</ele>
        <time>2021-05-23T11:22:24Z</time>
      </trkpt>
      <trkpt lat="42.7375690" lon="-8.6610180">
        <ele>11.4</ele>
        <time>2021-05-23T11:22:25Z</time>
      </trkpt>
      <trkpt lat="42.7375690" lon="-8.6610180">
        <ele>11.4</ele>
        <time>2021-05-23T11:22:26Z</time>
      </trkpt>
      <trkpt lat="42.7375880" lon="-8.6610250">
        <ele>11.4</ele>
        <time>2021-05-23T11:22:27Z</time>
      </trkpt>
      <trkpt lat="42.7375850" lon="-8.6610280">
        <ele>11.4</ele>
        <time>2021-05-23T11:22:28Z</time>
      </trkpt>
      <trkpt lat="42.7375880" lon="-8.6610400">
        <ele>11.4</ele>
        <time>2021-05-23T11:22:29Z</time>
      </trkpt>
      <trkpt lat="42.7375860" lon="-8.6610320">
        <ele>11.4</ele>
        <time>2021-05-23T11:22:30Z</time>
      </trkpt>
      <trkpt lat="42.7375730" lon="-8.6610400">
        <ele>11.4</ele>
        <time>2021-05-23T11:22:31Z</time>
      </trkpt>
      <trkpt lat="42.7375630" lon="-8.6610490">
        <ele>11.3</ele>
        <time>2021-05-23T11:22:32Z</time>
      </trkpt>
      <trkpt lat="42.7375630" lon="-8.6610490">
        <ele>11.3</ele>
        <time>2021-05-23T11:22:33Z</time>
      </trkpt>
      <trkpt lat="42.7375840" lon="-8.6610400">
        <ele>11.4</ele>
        <time>2021-05-23T11:22:34Z</time>
      </trkpt>
      <trkpt lat="42.7375840" lon="-8.6610390">
        <ele>11.4</ele>
        <time>2021-05-23T11:22:35Z</time>
      </trkpt>
      <trkpt lat="42.7375840" lon="-8.6610390">
        <ele>11.4</ele>
        <time>2021-05-23T11:22:36Z</time>
      </trkpt>
      <trkpt lat="42.7375840" lon="-8.6610390">
        <ele>11.4</ele>
        <time>2021-05-23T11:22:37Z</time>
      </trkpt>
      <trkpt lat="42.7375770" lon="-8.6610220">
        <ele>11.4</ele>
        <time>2021-05-23T11:22:38Z</time>
      </trkpt>
      <trkpt lat="42.7375770" lon="-8.6610220">
        <ele>11.4</ele>
        <time>2021-05-23T11:22:39Z</time>
      </trkpt>
      <trkpt lat="42.7375770" lon="-8.6610220">
        <ele>11.4</ele>
        <time>2021-05-23T11:22:40Z</time>
      </trkpt>
      <trkpt lat="42.7375770" lon="-8.6610220">
        <ele>11.4</ele>
        <time>2021-05-23T11:22:41Z</time>
      </trkpt>
      <trkpt lat="42.7375770" lon="-8.6610220">
        <ele>11.4</ele>
        <time>2021-05-23T11:22:42Z</time>
      </trkpt>
      <trkpt lat="42.7375800" lon="-8.6610240">
        <ele>11.4</ele>
        <time>2021-05-23T11:22:43Z</time>
      </trkpt>
      <trkpt lat="42.7375710" lon="-8.6610380">
        <ele>11.4</ele>
        <time>2021-05-23T11:22:44Z</time>
      </trkpt>
      <trkpt lat="42.7375680" lon="-8.6610370">
        <ele>11.4</ele>
        <time>2021-05-23T11:22:45Z</time>
      </trkpt>
      <trkpt lat="42.7375650" lon="-8.6610390">
        <ele>11.4</ele>
        <time>2021-05-23T11:22:46Z</time>
      </trkpt>
      <trkpt lat="42.7375660" lon="-8.6610350">
        <ele>11.4</ele>
        <time>2021-05-23T11:22:47Z</time>
      </trkpt>
      <trkpt lat="42.7375620" lon="-8.6610310">
        <ele>11.4</ele>
        <time>2021-05-23T11:22:48Z</time>
      </trkpt>
      <trkpt lat="42.7375630" lon="-8.6610370">
        <ele>11.4</ele>
        <time>2021-05-23T11:22:49Z</time>
      </trkpt>
      <trkpt lat="42.7375670" lon="-8.6610330">
        <ele>11.4</ele>
        <time>2021-05-23T11:22:50Z</time>
      </trkpt>
      <trkpt lat="42.7375670" lon="-8.6610290">
        <ele>11.4</ele>
        <time>2021-05-23T11:22:51Z</time>
      </trkpt>
      <trkpt lat="42.7375700" lon="-8.6610240">
        <ele>11.4</ele>
        <time>2021-05-23T11:22:52Z</time>
      </trkpt>
      <trkpt lat="42.7375760" lon="-8.6610230">
        <ele>11.4</ele>
        <time>2021-05-23T11:22:53Z</time>
      </trkpt>
      <trkpt lat="42.7375830" lon="-8.6610150">
        <ele>11.4</ele>
        <time>2021-05-23T11:22:54Z</time>
      </trkpt>
      <trkpt lat="42.7375880" lon="-8.6610160">
        <ele>11.4</ele>
        <time>2021-05-23T11:22:55Z</time>
      </trkpt>
      <trkpt lat="42.7375880" lon="-8.6610160">
        <ele>11.4</ele>
        <time>2021-05-23T11:22:56Z</time>
      </trkpt>
      <trkpt lat="42.7376070" lon="-8.6610100">
        <ele>11.5</ele>
        <time>2021-05-23T11:22:57Z</time>
      </trkpt>
      <trkpt lat="42.7376070" lon="-8.6610090">
        <ele>11.5</ele>
        <time>2021-05-23T11:22:58Z</time>
      </trkpt>
      <trkpt lat="42.7376070" lon="-8.6610090">
        <ele>11.5</ele>
        <time>2021-05-23T11:22:59Z</time>
      </trkpt>
      <trkpt lat="42.7376070" lon="-8.6610090">
        <ele>11.5</ele>
        <time>2021-05-23T11:23:00Z</time>
      </trkpt>
      <trkpt lat="42.7376070" lon="-8.6610090">
        <ele>11.5</ele>
        <time>2021-05-23T11:23:01Z</time>
      </trkpt>
      <trkpt lat="42.7376070" lon="-8.6610090">
        <ele>11.5</ele>
        <time>2021-05-23T11:23:02Z</time>
      </trkpt>
      <trkpt lat="42.7376120" lon="-8.6610110">
        <ele>11.5</ele>
        <time>2021-05-23T11:23:03Z</time>
      </trkpt>
      <trkpt lat="42.7376140" lon="-8.6610180">
        <ele>11.5</ele>
        <time>2021-05-23T11:23:04Z</time>
      </trkpt>
      <trkpt lat="42.7376150" lon="-8.6610260">
        <ele>11.5</ele>
        <time>2021-05-23T11:23:05Z</time>
      </trkpt>
      <trkpt lat="42.7376120" lon="-8.6610270">
        <ele>11.5</ele>
        <time>2021-05-23T11:23:06Z</time>
      </trkpt>
      <trkpt lat="42.7376120" lon="-8.6610270">
        <ele>11.5</ele>
        <time>2021-05-23T11:23:07Z</time>
      </trkpt>
      <trkpt lat="42.7376150" lon="-8.6610390">
        <ele>11.5</ele>
        <time>2021-05-23T11:23:08Z</time>
      </trkpt>
      <trkpt lat="42.7376150" lon="-8.6610400">
        <ele>11.5</ele>
        <time>2021-05-23T11:23:09Z</time>
      </trkpt>
      <trkpt lat="42.7376130" lon="-8.6610430">
        <ele>11.5</ele>
        <time>2021-05-23T11:23:11Z</time>
      </trkpt>
      <trkpt lat="42.7375990" lon="-8.6610380">
        <ele>11.5</ele>
        <time>2021-05-23T11:23:12Z</time>
      </trkpt>
      <trkpt lat="42.7376120" lon="-8.6610330">
        <ele>11.5</ele>
        <time>2021-05-23T11:23:13Z</time>
      </trkpt>
      <trkpt lat="42.7376100" lon="-8.6610350">
        <ele>11.5</ele>
        <time>2021-05-23T11:23:14Z</time>
      </trkpt>
      <trkpt lat="42.7376100" lon="-8.6610350">
        <ele>11.5</ele>
        <time>2021-05-23T11:23:15Z</time>
      </trkpt>
      <trkpt lat="42.7376100" lon="-8.6610350">
        <ele>11.5</ele>
        <time>2021-05-23T11:23:16Z</time>
      </trkpt>
      <trkpt lat="42.7376080" lon="-8.6610510">
        <ele>11.4</ele>
        <time>2021-05-23T11:23:17Z</time>
      </trkpt>
      <trkpt lat="42.7376070" lon="-8.6610460">
        <ele>11.5</ele>
        <time>2021-05-23T11:23:18Z</time>
      </trkpt>
      <trkpt lat="42.7376100" lon="-8.6610470">
        <ele>11.4</ele>
        <time>2021-05-23T11:23:19Z</time>
      </trkpt>
      <trkpt lat="42.7376230" lon="-8.6610350">
        <ele>11.5</ele>
        <time>2021-05-23T11:23:20Z</time>
      </trkpt>
      <trkpt lat="42.7376170" lon="-8.6610390">
        <ele>11.5</ele>
        <time>2021-05-23T11:23:21Z</time>
      </trkpt>
      <trkpt lat="42.7376170" lon="-8.6610390">
        <ele>11.5</ele>
        <time>2021-05-23T11:23:22Z</time>
      </trkpt>
      <trkpt lat="42.7376280" lon="-8.6610260">
        <ele>11.5</ele>
        <time>2021-05-23T11:23:23Z</time>
      </trkpt>
      <trkpt lat="42.7376430" lon="-8.6610230">
        <ele>11.5</ele>
        <time>2021-05-23T11:23:24Z</time>
      </trkpt>
      <trkpt lat="42.7376350" lon="-8.6610440">
        <ele>11.5</ele>
        <time>2021-05-23T11:23:25Z</time>
      </trkpt>
      <trkpt lat="42.7376350" lon="-8.6610440">
        <ele>11.5</ele>
        <time>2021-05-23T11:23:26Z</time>
      </trkpt>
      <trkpt lat="42.7376200" lon="-8.6610570">
        <ele>11.4</ele>
        <time>2021-05-23T11:23:27Z</time>
      </trkpt>
      <trkpt lat="42.7376230" lon="-8.6610540">
        <ele>11.4</ele>
        <time>2021-05-23T11:23:28Z</time>
      </trkpt>
      <trkpt lat="42.7376250" lon="-8.6610540">
        <ele>11.4</ele>
        <time>2021-05-23T11:23:29Z</time>
      </trkpt>
      <trkpt lat="42.7376200" lon="-8.6610600">
        <ele>11.4</ele>
        <time>2021-05-23T11:23:30Z</time>
      </trkpt>
      <trkpt lat="42.7376220" lon="-8.6610680">
        <ele>11.4</ele>
        <time>2021-05-23T11:23:31Z</time>
      </trkpt>
      <trkpt lat="42.7376140" lon="-8.6610690">
        <ele>11.4</ele>
        <time>2021-05-23T11:23:32Z</time>
      </trkpt>
      <trkpt lat="42.7376180" lon="-8.6610680">
        <ele>11.4</ele>
        <time>2021-05-23T11:23:33Z</time>
      </trkpt>
      <trkpt lat="42.7376180" lon="-8.6610690">
        <ele>11.4</ele>
        <time>2021-05-23T11:23:34Z</time>
      </trkpt>
      <trkpt lat="42.7376180" lon="-8.6610690">
        <ele>11.4</ele>
        <time>2021-05-23T11:23:35Z</time>
      </trkpt>
      <trkpt lat="42.7376180" lon="-8.6610690">
        <ele>11.4</ele>
        <time>2021-05-23T11:23:36Z</time>
      </trkpt>
      <trkpt lat="42.7376180" lon="-8.6610690">
        <ele>11.4</ele>
        <time>2021-05-23T11:23:37Z</time>
      </trkpt>
      <trkpt lat="42.7376180" lon="-8.6610690">
        <ele>11.4</ele>
        <time>2021-05-23T11:23:38Z</time>
      </trkpt>
      <trkpt lat="42.7376180" lon="-8.6610690">
        <ele>11.4</ele>
        <time>2021-05-23T11:23:39Z</time>
      </trkpt>
      <trkpt lat="42.7376110" lon="-8.6610350">
        <ele>11.5</ele>
        <time>2021-05-23T11:23:40Z</time>
      </trkpt>
      <trkpt lat="42.7376140" lon="-8.6610370">
        <ele>11.5</ele>
        <time>2021-05-23T11:23:41Z</time>
      </trkpt>
      <trkpt lat="42.7376090" lon="-8.6610320">
        <ele>11.5</ele>
        <time>2021-05-23T11:23:42Z</time>
      </trkpt>
      <trkpt lat="42.7376100" lon="-8.6610310">
        <ele>11.5</ele>
        <time>2021-05-23T11:23:43Z</time>
      </trkpt>
      <trkpt lat="42.7376100" lon="-8.6610310">
        <ele>11.5</ele>
        <time>2021-05-23T11:23:44Z</time>
      </trkpt>
      <trkpt lat="42.7376100" lon="-8.6610310">
        <ele>11.5</ele>
        <time>2021-05-23T11:23:45Z</time>
      </trkpt>
      <trkpt lat="42.7376170" lon="-8.6610160">
        <ele>11.5</ele>
        <time>2021-05-23T11:23:46Z</time>
      </trkpt>
      <trkpt lat="42.7376170" lon="-8.6610160">
        <ele>11.5</ele>
        <time>2021-05-23T11:23:47Z</time>
      </trkpt>
      <trkpt lat="42.7376170" lon="-8.6610160">
        <ele>11.5</ele>
        <time>2021-05-23T11:23:48Z</time>
      </trkpt>
      <trkpt lat="42.7376170" lon="-8.6610160">
        <ele>11.5</ele>
        <time>2021-05-23T11:23:49Z</time>
      </trkpt>
      <trkpt lat="42.7376170" lon="-8.6610160">
        <ele>11.5</ele>
        <time>2021-05-23T11:23:50Z</time>
      </trkpt>
      <trkpt lat="42.7376170" lon="-8.6610160">
        <ele>11.5</ele>
        <time>2021-05-23T11:23:51Z</time>
      </trkpt>
      <trkpt lat="42.7376170" lon="-8.6610160">
        <ele>11.5</ele>
        <time>2021-05-23T11:23:52Z</time>
      </trkpt>
      <trkpt lat="42.7376170" lon="-8.6610160">
        <ele>11.5</ele>
        <time>2021-05-23T11:23:53Z</time>
      </trkpt>
      <trkpt lat="42.7376170" lon="-8.6610160">
        <ele>11.5</ele>
        <time>2021-05-23T11:23:54Z</time>
      </trkpt>
      <trkpt lat="42.7376100" lon="-8.6610240">
        <ele>11.5</ele>
        <time>2021-05-23T11:23:55Z</time>
      </trkpt>
      <trkpt lat="42.7376100" lon="-8.6610240">
        <ele>11.5</ele>
        <time>2021-05-23T11:23:56Z</time>
      </trkpt>
      <trkpt lat="42.7376050" lon="-8.6610340">
        <ele>11.5</ele>
        <time>2021-05-23T11:23:57Z</time>
      </trkpt>
      <trkpt lat="42.7376060" lon="-8.6610350">
        <ele>11.5</ele>
        <time>2021-05-23T11:23:58Z</time>
      </trkpt>
      <trkpt lat="42.7375970" lon="-8.6610340">
        <ele>11.5</ele>
        <time>2021-05-23T11:23:59Z</time>
      </trkpt>
      <trkpt lat="42.7375970" lon="-8.6610340">
        <ele>11.5</ele>
        <time>2021-05-23T11:24:00Z</time>
      </trkpt>
      <trkpt lat="42.7375970" lon="-8.6610340">
        <ele>11.5</ele>
        <time>2021-05-23T11:24:01Z</time>
      </trkpt>
      <trkpt lat="42.7375970" lon="-8.6610340">
        <ele>11.5</ele>
        <time>2021-05-23T11:24:02Z</time>
      </trkpt>
      <trkpt lat="42.7375970" lon="-8.6610340">
        <ele>11.5</ele>
        <time>2021-05-23T11:24:03Z</time>
      </trkpt>
      <trkpt lat="42.7375970" lon="-8.6610340">
        <ele>11.5</ele>
        <time>2021-05-23T11:24:04Z</time>
      </trkpt>
      <trkpt lat="42.7375970" lon="-8.6610340">
        <ele>11.5</ele>
        <time>2021-05-23T11:24:05Z</time>
      </trkpt>
      <trkpt lat="42.7375970" lon="-8.6610340">
        <ele>11.5</ele>
        <time>2021-05-23T11:24:06Z</time>
      </trkpt>
      <trkpt lat="42.7375970" lon="-8.6610340">
        <ele>11.5</ele>
        <time>2021-05-23T11:24:07Z</time>
      </trkpt>
      <trkpt lat="42.7376030" lon="-8.6610250">
        <ele>11.5</ele>
        <time>2021-05-23T11:24:08Z</time>
      </trkpt>
      <trkpt lat="42.7376060" lon="-8.6610230">
        <ele>11.5</ele>
        <time>2021-05-23T11:24:09Z</time>
      </trkpt>
      <trkpt lat="42.7376090" lon="-8.6610230">
        <ele>11.5</ele>
        <time>2021-05-23T11:24:10Z</time>
      </trkpt>
      <trkpt lat="42.7376120" lon="-8.6610240">
        <ele>11.5</ele>
        <time>2021-05-23T11:24:11Z</time>
      </trkpt>
      <trkpt lat="42.7376190" lon="-8.6610210">
        <ele>11.5</ele>
        <time>2021-05-23T11:24:12Z</time>
      </trkpt>
      <trkpt lat="42.7376180" lon="-8.6610180">
        <ele>11.5</ele>
        <time>2021-05-23T11:24:13Z</time>
      </trkpt>
      <trkpt lat="42.7376160" lon="-8.6610190">
        <ele>11.5</ele>
        <time>2021-05-23T11:24:14Z</time>
      </trkpt>
      <trkpt lat="42.7376160" lon="-8.6610190">
        <ele>11.5</ele>
        <time>2021-05-23T11:24:15Z</time>
      </trkpt>
      <trkpt lat="42.7376130" lon="-8.6610280">
        <ele>11.5</ele>
        <time>2021-05-23T11:24:16Z</time>
      </trkpt>
      <trkpt lat="42.7376140" lon="-8.6610320">
        <ele>11.5</ele>
        <time>2021-05-23T11:24:17Z</time>
      </trkpt>
      <trkpt lat="42.7376130" lon="-8.6610240">
        <ele>11.5</ele>
        <time>2021-05-23T11:24:18Z</time>
      </trkpt>
      <trkpt lat="42.7376030" lon="-8.6609990">
        <ele>11.6</ele>
        <time>2021-05-23T11:24:19Z</time>
      </trkpt>
      <trkpt lat="42.7376060" lon="-8.6610080">
        <ele>11.5</ele>
        <time>2021-05-23T11:24:20Z</time>
      </trkpt>
      <trkpt lat="42.7376130" lon="-8.6610080">
        <ele>11.5</ele>
        <time>2021-05-23T11:24:21Z</time>
      </trkpt>
      <trkpt lat="42.7376210" lon="-8.6610160">
        <ele>11.5</ele>
        <time>2021-05-23T11:24:22Z</time>
      </trkpt>
      <trkpt lat="42.7376170" lon="-8.6610060">
        <ele>11.5</ele>
        <time>2021-05-23T11:24:23Z</time>
      </trkpt>
      <trkpt lat="42.7376090" lon="-8.6610070">
        <ele>11.5</ele>
        <time>2021-05-23T11:24:24Z</time>
      </trkpt>
      <trkpt lat="42.7376000" lon="-8.6610140">
        <ele>11.5</ele>
        <time>2021-05-23T11:24:25Z</time>
      </trkpt>
      <trkpt lat="42.7375980" lon="-8.6610140">
        <ele>11.5</ele>
        <time>2021-05-23T11:24:26Z</time>
      </trkpt>
      <trkpt lat="42.7376040" lon="-8.6610350">
        <ele>11.5</ele>
        <time>2021-05-23T11:24:27Z</time>
      </trkpt>
      <trkpt lat="42.7376050" lon="-8.6610360">
        <ele>11.5</ele>
        <time>2021-05-23T11:24:28Z</time>
      </trkpt>
      <trkpt lat="42.7376050" lon="-8.6610360">
        <ele>11.5</ele>
        <time>2021-05-23T11:24:29Z</time>
      </trkpt>
      <trkpt lat="42.7375950" lon="-8.6610190">
        <ele>11.5</ele>
        <time>2021-05-23T11:24:30Z</time>
      </trkpt>
      <trkpt lat="42.7375950" lon="-8.6610190">
        <ele>11.5</ele>
        <time>2021-05-23T11:24:31Z</time>
      </trkpt>
      <trkpt lat="42.7376250" lon="-8.6610330">
        <ele>11.5</ele>
        <time>2021-05-23T11:24:32Z</time>
      </trkpt>
      <trkpt lat="42.7376180" lon="-8.6610420">
        <ele>11.5</ele>
        <time>2021-05-23T11:24:33Z</time>
      </trkpt>
      <trkpt lat="42.7376120" lon="-8.6610450">
        <ele>11.5</ele>
        <time>2021-05-23T11:24:34Z</time>
      </trkpt>
      <trkpt lat="42.7375970" lon="-8.6610580">
        <ele>11.4</ele>
        <time>2021-05-23T11:24:35Z</time>
      </trkpt>
      <trkpt lat="42.7375930" lon="-8.6610610">
        <ele>11.4</ele>
        <time>2021-05-23T11:24:36Z</time>
      </trkpt>
      <trkpt lat="42.7375890" lon="-8.6610630">
        <ele>11.4</ele>
        <time>2021-05-23T11:24:37Z</time>
      </trkpt>
      <trkpt lat="42.7375900" lon="-8.6610740">
        <ele>11.4</ele>
        <time>2021-05-23T11:24:38Z</time>
      </trkpt>
      <trkpt lat="42.7375900" lon="-8.6610740">
        <ele>11.4</ele>
        <time>2021-05-23T11:24:39Z</time>
      </trkpt>
      <trkpt lat="42.7375930" lon="-8.6610620">
        <ele>11.4</ele>
        <time>2021-05-23T11:24:40Z</time>
      </trkpt>
      <trkpt lat="42.7376000" lon="-8.6610670">
        <ele>11.4</ele>
        <time>2021-05-23T11:24:41Z</time>
      </trkpt>
      <trkpt lat="42.7375880" lon="-8.6610640">
        <ele>11.3</ele>
        <time>2021-05-23T11:24:42Z</time>
      </trkpt>
      <trkpt lat="42.7375910" lon="-8.6610600">
        <ele>11.4</ele>
        <time>2021-05-23T11:24:43Z</time>
      </trkpt>
      <trkpt lat="42.7375970" lon="-8.6610630">
        <ele>11.4</ele>
        <time>2021-05-23T11:24:44Z</time>
      </trkpt>
      <trkpt lat="42.7375970" lon="-8.6610630">
        <ele>11.4</ele>
        <time>2021-05-23T11:24:46Z</time>
      </trkpt>
      <trkpt lat="42.7375970" lon="-8.6610530">
        <ele>11.4</ele>
        <time>2021-05-23T11:24:47Z</time>
      </trkpt>
      <trkpt lat="42.7376050" lon="-8.6610510">
        <ele>11.4</ele>
        <time>2021-05-23T11:24:48Z</time>
      </trkpt>
      <trkpt lat="42.7375960" lon="-8.6610480">
        <ele>11.4</ele>
        <time>2021-05-23T11:24:49Z</time>
      </trkpt>
      <trkpt lat="42.7376070" lon="-8.6610510">
        <ele>11.4</ele>
        <time>2021-05-23T11:24:50Z</time>
      </trkpt>
      <trkpt lat="42.7376080" lon="-8.6610420">
        <ele>11.5</ele>
        <time>2021-05-23T11:24:51Z</time>
      </trkpt>
      <trkpt lat="42.7376110" lon="-8.6610380">
        <ele>11.5</ele>
        <time>2021-05-23T11:24:52Z</time>
      </trkpt>
      <trkpt lat="42.7376100" lon="-8.6610350">
        <ele>11.5</ele>
        <time>2021-05-23T11:24:53Z</time>
      </trkpt>
      <trkpt lat="42.7376090" lon="-8.6610270">
        <ele>11.5</ele>
        <time>2021-05-23T11:24:54Z</time>
      </trkpt>
      <trkpt lat="42.7376150" lon="-8.6610250">
        <ele>11.5</ele>
        <time>2021-05-23T11:24:55Z</time>
      </trkpt>
      <trkpt lat="42.7376200" lon="-8.6610180">
        <ele>11.5</ele>
        <time>2021-05-23T11:24:56Z</time>
      </trkpt>
      <trkpt lat="42.7376210" lon="-8.6610150">
        <ele>11.5</ele>
        <time>2021-05-23T11:24:57Z</time>
      </trkpt>
      <trkpt lat="42.7376190" lon="-8.6610110">
        <ele>11.5</ele>
        <time>2021-05-23T11:24:58Z</time>
      </trkpt>
      <trkpt lat="42.7376230" lon="-8.6610060">
        <ele>11.5</ele>
        <time>2021-05-23T11:24:59Z</time>
      </trkpt>
      <trkpt lat="42.7376300" lon="-8.6610060">
        <ele>11.5</ele>
        <time>2021-05-23T11:25:00Z</time>
      </trkpt>
      <trkpt lat="42.7376410" lon="-8.6610030">
        <ele>11.6</ele>
        <time>2021-05-23T11:25:01Z</time>
      </trkpt>
      <trkpt lat="42.7376430" lon="-8.6610000">
        <ele>11.6</ele>
        <time>2021-05-23T11:25:02Z</time>
      </trkpt>
      <trkpt lat="42.7376480" lon="-8.6610010">
        <ele>11.6</ele>
        <time>2021-05-23T11:25:03Z</time>
      </trkpt>
      <trkpt lat="42.7376500" lon="-8.6610040">
        <ele>11.5</ele>
        <time>2021-05-23T11:25:04Z</time>
      </trkpt>
      <trkpt lat="42.7376550" lon="-8.6610110">
        <ele>11.5</ele>
        <time>2021-05-23T11:25:05Z</time>
      </trkpt>
      <trkpt lat="42.7376580" lon="-8.6610090">
        <ele>11.5</ele>
        <time>2021-05-23T11:25:06Z</time>
      </trkpt>
      <trkpt lat="42.7376600" lon="-8.6610040">
        <ele>11.5</ele>
        <time>2021-05-23T11:25:07Z</time>
      </trkpt>
      <trkpt lat="42.7376610" lon="-8.6610040">
        <ele>11.5</ele>
        <time>2021-05-23T11:25:08Z</time>
      </trkpt>
      <trkpt lat="42.7376610" lon="-8.6610050">
        <ele>11.5</ele>
        <time>2021-05-23T11:25:09Z</time>
      </trkpt>
      <trkpt lat="42.7376620" lon="-8.6609960">
        <ele>11.6</ele>
        <time>2021-05-23T11:25:10Z</time>
      </trkpt>
      <trkpt lat="42.7376620" lon="-8.6609970">
        <ele>11.6</ele>
        <time>2021-05-23T11:25:11Z</time>
      </trkpt>
      <trkpt lat="42.7376580" lon="-8.6609950">
        <ele>11.6</ele>
        <time>2021-05-23T11:25:12Z</time>
      </trkpt>
      <trkpt lat="42.7376580" lon="-8.6609950">
        <ele>11.6</ele>
        <time>2021-05-23T11:25:13Z</time>
      </trkpt>
      <trkpt lat="42.7376580" lon="-8.6609950">
        <ele>11.6</ele>
        <time>2021-05-23T11:25:14Z</time>
      </trkpt>
      <trkpt lat="42.7376600" lon="-8.6609950">
        <ele>11.6</ele>
        <time>2021-05-23T11:25:15Z</time>
      </trkpt>
      <trkpt lat="42.7376590" lon="-8.6609950">
        <ele>11.6</ele>
        <time>2021-05-23T11:25:16Z</time>
      </trkpt>
      <trkpt lat="42.7376600" lon="-8.6609950">
        <ele>11.6</ele>
        <time>2021-05-23T11:25:17Z</time>
      </trkpt>
      <trkpt lat="42.7376600" lon="-8.6609930">
        <ele>11.6</ele>
        <time>2021-05-23T11:25:18Z</time>
      </trkpt>
      <trkpt lat="42.7376570" lon="-8.6609910">
        <ele>11.6</ele>
        <time>2021-05-23T11:25:19Z</time>
      </trkpt>
      <trkpt lat="42.7376540" lon="-8.6609930">
        <ele>11.6</ele>
        <time>2021-05-23T11:25:20Z</time>
      </trkpt>
      <trkpt lat="42.7376490" lon="-8.6609920">
        <ele>11.6</ele>
        <time>2021-05-23T11:25:21Z</time>
      </trkpt>
      <trkpt lat="42.7376580" lon="-8.6609940">
        <ele>11.6</ele>
        <time>2021-05-23T11:25:22Z</time>
      </trkpt>
      <trkpt lat="42.7376630" lon="-8.6610020">
        <ele>11.6</ele>
        <time>2021-05-23T11:25:23Z</time>
      </trkpt>
      <trkpt lat="42.7376650" lon="-8.6610030">
        <ele>11.6</ele>
        <time>2021-05-23T11:25:24Z</time>
      </trkpt>
      <trkpt lat="42.7376660" lon="-8.6610080">
        <ele>11.5</ele>
        <time>2021-05-23T11:25:25Z</time>
      </trkpt>
      <trkpt lat="42.7376670" lon="-8.6610100">
        <ele>11.5</ele>
        <time>2021-05-23T11:25:26Z</time>
      </trkpt>
      <trkpt lat="42.7376680" lon="-8.6610150">
        <ele>11.5</ele>
        <time>2021-05-23T11:25:27Z</time>
      </trkpt>
      <trkpt lat="42.7376690" lon="-8.6610180">
        <ele>11.5</ele>
        <time>2021-05-23T11:25:28Z</time>
      </trkpt>
      <trkpt lat="42.7376650" lon="-8.6610130">
        <ele>11.5</ele>
        <time>2021-05-23T11:25:29Z</time>
      </trkpt>
      <trkpt lat="42.7376630" lon="-8.6610150">
        <ele>11.5</ele>
        <time>2021-05-23T11:25:30Z</time>
      </trkpt>
      <trkpt lat="42.7376600" lon="-8.6610140">
        <ele>11.5</ele>
        <time>2021-05-23T11:25:31Z</time>
      </trkpt>
      <trkpt lat="42.7376560" lon="-8.6610090">
        <ele>11.5</ele>
        <time>2021-05-23T11:25:32Z</time>
      </trkpt>
      <trkpt lat="42.7376560" lon="-8.6610090">
        <ele>11.5</ele>
        <time>2021-05-23T11:25:33Z</time>
      </trkpt>
      <trkpt lat="42.7376550" lon="-8.6610140">
        <ele>11.5</ele>
        <time>2021-05-23T11:25:34Z</time>
      </trkpt>
      <trkpt lat="42.7376530" lon="-8.6610140">
        <ele>11.5</ele>
        <time>2021-05-23T11:25:35Z</time>
      </trkpt>
      <trkpt lat="42.7376530" lon="-8.6610140">
        <ele>11.5</ele>
        <time>2021-05-23T11:25:36Z</time>
      </trkpt>
      <trkpt lat="42.7376520" lon="-8.6610030">
        <ele>11.6</ele>
        <time>2021-05-23T11:25:37Z</time>
      </trkpt>
      <trkpt lat="42.7376520" lon="-8.6610040">
        <ele>11.5</ele>
        <time>2021-05-23T11:25:38Z</time>
      </trkpt>
      <trkpt lat="42.7376520" lon="-8.6610040">
        <ele>11.5</ele>
        <time>2021-05-23T11:25:39Z</time>
      </trkpt>
      <trkpt lat="42.7376520" lon="-8.6610040">
        <ele>11.5</ele>
        <time>2021-05-23T11:25:40Z</time>
      </trkpt>
      <trkpt lat="42.7376520" lon="-8.6610040">
        <ele>11.5</ele>
        <time>2021-05-23T11:25:41Z</time>
      </trkpt>
      <trkpt lat="42.7376520" lon="-8.6610040">
        <ele>11.5</ele>
        <time>2021-05-23T11:25:42Z</time>
      </trkpt>
      <trkpt lat="42.7376520" lon="-8.6610040">
        <ele>11.5</ele>
        <time>2021-05-23T11:25:43Z</time>
      </trkpt>
      <trkpt lat="42.7376520" lon="-8.6610040">
        <ele>11.5</ele>
        <time>2021-05-23T11:25:44Z</time>
      </trkpt>
      <trkpt lat="42.7376520" lon="-8.6610040">
        <ele>11.5</ele>
        <time>2021-05-23T11:25:45Z</time>
      </trkpt>
      <trkpt lat="42.7376520" lon="-8.6610040">
        <ele>11.5</ele>
        <time>2021-05-23T11:25:46Z</time>
      </trkpt>
      <trkpt lat="42.7376520" lon="-8.6610040">
        <ele>11.5</ele>
        <time>2021-05-23T11:25:47Z</time>
      </trkpt>
      <trkpt lat="42.7376520" lon="-8.6610040">
        <ele>11.5</ele>
        <time>2021-05-23T11:25:48Z</time>
      </trkpt>
      <trkpt lat="42.7376520" lon="-8.6610040">
        <ele>11.5</ele>
        <time>2021-05-23T11:25:49Z</time>
      </trkpt>
      <trkpt lat="42.7376520" lon="-8.6610040">
        <ele>11.5</ele>
        <time>2021-05-23T11:25:50Z</time>
      </trkpt>
      <trkpt lat="42.7376520" lon="-8.6610040">
        <ele>11.5</ele>
        <time>2021-05-23T11:25:51Z</time>
      </trkpt>
      <trkpt lat="42.7376520" lon="-8.6610040">
        <ele>11.5</ele>
        <time>2021-05-23T11:25:52Z</time>
      </trkpt>
      <trkpt lat="42.7376520" lon="-8.6610040">
        <ele>11.5</ele>
        <time>2021-05-23T11:25:53Z</time>
      </trkpt>
      <trkpt lat="42.7376520" lon="-8.6610040">
        <ele>11.5</ele>
        <time>2021-05-23T11:25:54Z</time>
      </trkpt>
      <trkpt lat="42.7376520" lon="-8.6610040">
        <ele>11.5</ele>
        <time>2021-05-23T11:25:55Z</time>
      </trkpt>
      <trkpt lat="42.7376520" lon="-8.6610040">
        <ele>11.5</ele>
        <time>2021-05-23T11:25:56Z</time>
      </trkpt>
      <trkpt lat="42.7376520" lon="-8.6610040">
        <ele>11.5</ele>
        <time>2021-05-23T11:25:57Z</time>
      </trkpt>
      <trkpt lat="42.7376520" lon="-8.6610040">
        <ele>11.5</ele>
        <time>2021-05-23T11:25:58Z</time>
      </trkpt>
      <trkpt lat="42.7376520" lon="-8.6610040">
        <ele>11.5</ele>
        <time>2021-05-23T11:25:59Z</time>
      </trkpt>
      <trkpt lat="42.7376520" lon="-8.6610040">
        <ele>11.5</ele>
        <time>2021-05-23T11:26:00Z</time>
      </trkpt>
      <trkpt lat="42.7376520" lon="-8.6610040">
        <ele>11.5</ele>
        <time>2021-05-23T11:26:01Z</time>
      </trkpt>
      <trkpt lat="42.7376520" lon="-8.6610040">
        <ele>11.5</ele>
        <time>2021-05-23T11:26:02Z</time>
      </trkpt>
      <trkpt lat="42.7376520" lon="-8.6610040">
        <ele>11.5</ele>
        <time>2021-05-23T11:26:03Z</time>
      </trkpt>
      <trkpt lat="42.7376520" lon="-8.6610040">
        <ele>11.5</ele>
        <time>2021-05-23T11:26:04Z</time>
      </trkpt>
      <trkpt lat="42.7376520" lon="-8.6610040">
        <ele>11.5</ele>
        <time>2021-05-23T11:26:05Z</time>
      </trkpt>
      <trkpt lat="42.7376520" lon="-8.6610040">
        <ele>11.5</ele>
        <time>2021-05-23T11:26:06Z</time>
      </trkpt>
      <trkpt lat="42.7376520" lon="-8.6610040">
        <ele>11.5</ele>
        <time>2021-05-23T11:26:07Z</time>
      </trkpt>
      <trkpt lat="42.7376520" lon="-8.6610040">
        <ele>11.5</ele>
        <time>2021-05-23T11:26:08Z</time>
      </trkpt>
      <trkpt lat="42.7376520" lon="-8.6610040">
        <ele>11.5</ele>
        <time>2021-05-23T11:26:09Z</time>
      </trkpt>
      <trkpt lat="42.7376520" lon="-8.6610040">
        <ele>11.5</ele>
        <time>2021-05-23T11:26:10Z</time>
      </trkpt>
      <trkpt lat="42.7376520" lon="-8.6610040">
        <ele>11.5</ele>
        <time>2021-05-23T11:26:11Z</time>
      </trkpt>
      <trkpt lat="42.7376520" lon="-8.6610040">
        <ele>11.5</ele>
        <time>2021-05-23T11:26:12Z</time>
      </trkpt>
      <trkpt lat="42.7376520" lon="-8.6610040">
        <ele>11.5</ele>
        <time>2021-05-23T11:26:13Z</time>
      </trkpt>
      <trkpt lat="42.7376520" lon="-8.6610040">
        <ele>11.5</ele>
        <time>2021-05-23T11:26:14Z</time>
      </trkpt>
      <trkpt lat="42.7376520" lon="-8.6610040">
        <ele>11.5</ele>
        <time>2021-05-23T11:26:15Z</time>
      </trkpt>
      <trkpt lat="42.7376520" lon="-8.6610040">
        <ele>11.5</ele>
        <time>2021-05-23T11:26:16Z</time>
      </trkpt>
      <trkpt lat="42.7376520" lon="-8.6610040">
        <ele>11.5</ele>
        <time>2021-05-23T11:26:17Z</time>
      </trkpt>
      <trkpt lat="42.7376390" lon="-8.6609830">
        <ele>11.6</ele>
        <time>2021-05-23T11:26:18Z</time>
      </trkpt>
      <trkpt lat="42.7376390" lon="-8.6609830">
        <ele>11.6</ele>
        <time>2021-05-23T11:26:19Z</time>
      </trkpt>
      <trkpt lat="42.7376390" lon="-8.6609830">
        <ele>11.6</ele>
        <time>2021-05-23T11:26:20Z</time>
      </trkpt>
      <trkpt lat="42.7376390" lon="-8.6609830">
        <ele>11.6</ele>
        <time>2021-05-23T11:26:21Z</time>
      </trkpt>
      <trkpt lat="42.7376390" lon="-8.6609830">
        <ele>11.6</ele>
        <time>2021-05-23T11:26:22Z</time>
      </trkpt>
      <trkpt lat="42.7376360" lon="-8.6609860">
        <ele>11.6</ele>
        <time>2021-05-23T11:26:23Z</time>
      </trkpt>
      <trkpt lat="42.7376360" lon="-8.6609860">
        <ele>11.6</ele>
        <time>2021-05-23T11:26:24Z</time>
      </trkpt>
      <trkpt lat="42.7376360" lon="-8.6609860">
        <ele>11.6</ele>
        <time>2021-05-23T11:26:25Z</time>
      </trkpt>
      <trkpt lat="42.7376360" lon="-8.6609860">
        <ele>11.6</ele>
        <time>2021-05-23T11:26:26Z</time>
      </trkpt>
      <trkpt lat="42.7376290" lon="-8.6609850">
        <ele>11.6</ele>
        <time>2021-05-23T11:26:27Z</time>
      </trkpt>
      <trkpt lat="42.7376290" lon="-8.6609850">
        <ele>11.6</ele>
        <time>2021-05-23T11:26:28Z</time>
      </trkpt>
      <trkpt lat="42.7376290" lon="-8.6609850">
        <ele>11.6</ele>
        <time>2021-05-23T11:26:29Z</time>
      </trkpt>
      <trkpt lat="42.7376290" lon="-8.6609850">
        <ele>11.6</ele>
        <time>2021-05-23T11:26:30Z</time>
      </trkpt>
      <trkpt lat="42.7376290" lon="-8.6609850">
        <ele>11.6</ele>
        <time>2021-05-23T11:26:31Z</time>
      </trkpt>
      <trkpt lat="42.7376290" lon="-8.6609850">
        <ele>11.6</ele>
        <time>2021-05-23T11:26:32Z</time>
      </trkpt>
      <trkpt lat="42.7376290" lon="-8.6609850">
        <ele>11.6</ele>
        <time>2021-05-23T11:26:33Z</time>
      </trkpt>
      <trkpt lat="42.7376290" lon="-8.6609850">
        <ele>11.6</ele>
        <time>2021-05-23T11:26:34Z</time>
      </trkpt>
      <trkpt lat="42.7376290" lon="-8.6609850">
        <ele>11.6</ele>
        <time>2021-05-23T11:26:35Z</time>
      </trkpt>
      <trkpt lat="42.7376290" lon="-8.6609850">
        <ele>11.6</ele>
        <time>2021-05-23T11:26:36Z</time>
      </trkpt>
      <trkpt lat="42.7376290" lon="-8.6609850">
        <ele>11.6</ele>
        <time>2021-05-23T11:26:37Z</time>
      </trkpt>
      <trkpt lat="42.7376290" lon="-8.6609850">
        <ele>11.6</ele>
        <time>2021-05-23T11:26:38Z</time>
      </trkpt>
      <trkpt lat="42.7376290" lon="-8.6609850">
        <ele>11.6</ele>
        <time>2021-05-23T11:26:39Z</time>
      </trkpt>
      <trkpt lat="42.7376290" lon="-8.6609850">
        <ele>11.6</ele>
        <time>2021-05-23T11:26:40Z</time>
      </trkpt>
      <trkpt lat="42.7376290" lon="-8.6609850">
        <ele>11.6</ele>
        <time>2021-05-23T11:26:41Z</time>
      </trkpt>
      <trkpt lat="42.7376290" lon="-8.6609850">
        <ele>11.6</ele>
        <time>2021-05-23T11:26:42Z</time>
      </trkpt>
      <trkpt lat="42.7376290" lon="-8.6609850">
        <ele>11.6</ele>
        <time>2021-05-23T11:26:43Z</time>
      </trkpt>
      <trkpt lat="42.7376290" lon="-8.6609850">
        <ele>11.6</ele>
        <time>2021-05-23T11:26:45Z</time>
      </trkpt>
      <trkpt lat="42.7376290" lon="-8.6609850">
        <ele>11.6</ele>
        <time>2021-05-23T11:26:46Z</time>
      </trkpt>
      <trkpt lat="42.7376290" lon="-8.6609850">
        <ele>11.6</ele>
        <time>2021-05-23T11:26:47Z</time>
      </trkpt>
      <trkpt lat="42.7376290" lon="-8.6609850">
        <ele>11.6</ele>
        <time>2021-05-23T11:26:48Z</time>
      </trkpt>
      <trkpt lat="42.7376290" lon="-8.6609850">
        <ele>11.6</ele>
        <time>2021-05-23T11:26:49Z</time>
      </trkpt>
      <trkpt lat="42.7376290" lon="-8.6609850">
        <ele>11.6</ele>
        <time>2021-05-23T11:26:50Z</time>
      </trkpt>
      <trkpt lat="42.7376290" lon="-8.6609850">
        <ele>11.6</ele>
        <time>2021-05-23T11:26:51Z</time>
      </trkpt>
      <trkpt lat="42.7376290" lon="-8.6609850">
        <ele>11.6</ele>
        <time>2021-05-23T11:26:52Z</time>
      </trkpt>
      <trkpt lat="42.7376290" lon="-8.6609850">
        <ele>11.6</ele>
        <time>2021-05-23T11:26:53Z</time>
      </trkpt>
      <trkpt lat="42.7376290" lon="-8.6609850">
        <ele>11.6</ele>
        <time>2021-05-23T11:26:54Z</time>
      </trkpt>
      <trkpt lat="42.7376290" lon="-8.6609850">
        <ele>11.6</ele>
        <time>2021-05-23T11:26:55Z</time>
      </trkpt>
      <trkpt lat="42.7376290" lon="-8.6609850">
        <ele>11.6</ele>
        <time>2021-05-23T11:26:56Z</time>
      </trkpt>
      <trkpt lat="42.7376290" lon="-8.6609850">
        <ele>11.6</ele>
        <time>2021-05-23T11:26:57Z</time>
      </trkpt>
      <trkpt lat="42.7376290" lon="-8.6609850">
        <ele>11.6</ele>
        <time>2021-05-23T11:26:58Z</time>
      </trkpt>
      <trkpt lat="42.7376290" lon="-8.6609850">
        <ele>11.6</ele>
        <time>2021-05-23T11:26:59Z</time>
      </trkpt>
      <trkpt lat="42.7376290" lon="-8.6609850">
        <ele>11.6</ele>
        <time>2021-05-23T11:27:00Z</time>
      </trkpt>
      <trkpt lat="42.7376290" lon="-8.6609850">
        <ele>11.6</ele>
        <time>2021-05-23T11:27:01Z</time>
      </trkpt>
      <trkpt lat="42.7376290" lon="-8.6609850">
        <ele>11.6</ele>
        <time>2021-05-23T11:27:02Z</time>
      </trkpt>
      <trkpt lat="42.7376290" lon="-8.6609850">
        <ele>11.6</ele>
        <time>2021-05-23T11:27:03Z</time>
      </trkpt>
      <trkpt lat="42.7376290" lon="-8.6609850">
        <ele>11.6</ele>
        <time>2021-05-23T11:27:04Z</time>
      </trkpt>
      <trkpt lat="42.7376290" lon="-8.6609850">
        <ele>11.6</ele>
        <time>2021-05-23T11:27:05Z</time>
      </trkpt>
      <trkpt lat="42.7376290" lon="-8.6609850">
        <ele>11.6</ele>
        <time>2021-05-23T11:27:06Z</time>
      </trkpt>
      <trkpt lat="42.7376290" lon="-8.6609850">
        <ele>11.6</ele>
        <time>2021-05-23T11:27:07Z</time>
      </trkpt>
      <trkpt lat="42.7376290" lon="-8.6609850">
        <ele>11.6</ele>
        <time>2021-05-23T11:27:08Z</time>
      </trkpt>
      <trkpt lat="42.7376290" lon="-8.6609850">
        <ele>11.6</ele>
        <time>2021-05-23T11:27:09Z</time>
      </trkpt>
      <trkpt lat="42.7376290" lon="-8.6609850">
        <ele>11.6</ele>
        <time>2021-05-23T11:27:10Z</time>
      </trkpt>
      <trkpt lat="42.7376290" lon="-8.6609850">
        <ele>11.6</ele>
        <time>2021-05-23T11:27:11Z</time>
      </trkpt>
      <trkpt lat="42.7376290" lon="-8.6609850">
        <ele>11.6</ele>
        <time>2021-05-23T11:27:12Z</time>
      </trkpt>
      <trkpt lat="42.7376290" lon="-8.6609850">
        <ele>11.6</ele>
        <time>2021-05-23T11:27:13Z</time>
      </trkpt>
      <trkpt lat="42.7376290" lon="-8.6609850">
        <ele>11.6</ele>
        <time>2021-05-23T11:27:14Z</time>
      </trkpt>
      <trkpt lat="42.7376290" lon="-8.6609850">
        <ele>11.6</ele>
        <time>2021-05-23T11:27:15Z</time>
      </trkpt>
      <trkpt lat="42.7376290" lon="-8.6609850">
        <ele>11.6</ele>
        <time>2021-05-23T11:27:16Z</time>
      </trkpt>
      <trkpt lat="42.7376290" lon="-8.6609850">
        <ele>11.6</ele>
        <time>2021-05-23T11:27:17Z</time>
      </trkpt>
      <trkpt lat="42.7376290" lon="-8.6609850">
        <ele>11.6</ele>
        <time>2021-05-23T11:27:18Z</time>
      </trkpt>
      <trkpt lat="42.7376290" lon="-8.6609850">
        <ele>11.6</ele>
        <time>2021-05-23T11:27:19Z</time>
      </trkpt>
      <trkpt lat="42.7376290" lon="-8.6609850">
        <ele>11.6</ele>
        <time>2021-05-23T11:27:20Z</time>
      </trkpt>
      <trkpt lat="42.7376290" lon="-8.6609850">
        <ele>11.6</ele>
        <time>2021-05-23T11:27:21Z</time>
      </trkpt>
      <trkpt lat="42.7376290" lon="-8.6609850">
        <ele>11.6</ele>
        <time>2021-05-23T11:27:22Z</time>
      </trkpt>
      <trkpt lat="42.7376290" lon="-8.6609850">
        <ele>11.6</ele>
        <time>2021-05-23T11:27:23Z</time>
      </trkpt>
      <trkpt lat="42.7376290" lon="-8.6609850">
        <ele>11.6</ele>
        <time>2021-05-23T11:27:24Z</time>
      </trkpt>
      <trkpt lat="42.7376290" lon="-8.6609850">
        <ele>11.6</ele>
        <time>2021-05-23T11:27:25Z</time>
      </trkpt>
      <trkpt lat="42.7376130" lon="-8.6609770">
        <ele>11.6</ele>
        <time>2021-05-23T11:27:26Z</time>
      </trkpt>
      <trkpt lat="42.7376110" lon="-8.6609780">
        <ele>11.6</ele>
        <time>2021-05-23T11:27:27Z</time>
      </trkpt>
      <trkpt lat="42.7376070" lon="-8.6609770">
        <ele>11.6</ele>
        <time>2021-05-23T11:27:28Z</time>
      </trkpt>
      <trkpt lat="42.7376040" lon="-8.6609830">
        <ele>11.6</ele>
        <time>2021-05-23T11:27:29Z</time>
      </trkpt>
      <trkpt lat="42.7376040" lon="-8.6609840">
        <ele>11.6</ele>
        <time>2021-05-23T11:27:30Z</time>
      </trkpt>
      <trkpt lat="42.7376100" lon="-8.6609860">
        <ele>11.6</ele>
        <time>2021-05-23T11:27:31Z</time>
      </trkpt>
      <trkpt lat="42.7376100" lon="-8.6609890">
        <ele>11.6</ele>
        <time>2021-05-23T11:27:32Z</time>
      </trkpt>
      <trkpt lat="42.7376140" lon="-8.6609930">
        <ele>11.6</ele>
        <time>2021-05-23T11:27:33Z</time>
      </trkpt>
      <trkpt lat="42.7376190" lon="-8.6609990">
        <ele>11.6</ele>
        <time>2021-05-23T11:27:34Z</time>
      </trkpt>
      <trkpt lat="42.7376070" lon="-8.6610110">
        <ele>11.5</ele>
        <time>2021-05-23T11:27:35Z</time>
      </trkpt>
      <trkpt lat="42.7376140" lon="-8.6610030">
        <ele>11.6</ele>
        <time>2021-05-23T11:27:36Z</time>
      </trkpt>
      <trkpt lat="42.7376150" lon="-8.6610030">
        <ele>11.6</ele>
        <time>2021-05-23T11:27:37Z</time>
      </trkpt>
      <trkpt lat="42.7376170" lon="-8.6610020">
        <ele>11.6</ele>
        <time>2021-05-23T11:27:38Z</time>
      </trkpt>
      <trkpt lat="42.7376180" lon="-8.6610020">
        <ele>11.6</ele>
        <time>2021-05-23T11:27:39Z</time>
      </trkpt>
      <trkpt lat="42.7376280" lon="-8.6610000">
        <ele>11.6</ele>
        <time>2021-05-23T11:27:40Z</time>
      </trkpt>
      <trkpt lat="42.7376330" lon="-8.6610030">
        <ele>11.6</ele>
        <time>2021-05-23T11:27:41Z</time>
      </trkpt>
      <trkpt lat="42.7376340" lon="-8.6610070">
        <ele>11.5</ele>
        <time>2021-05-23T11:27:42Z</time>
      </trkpt>
      <trkpt lat="42.7376360" lon="-8.6610080">
        <ele>11.5</ele>
        <time>2021-05-23T11:27:43Z</time>
      </trkpt>
      <trkpt lat="42.7376360" lon="-8.6610070">
        <ele>11.5</ele>
        <time>2021-05-23T11:27:44Z</time>
      </trkpt>
      <trkpt lat="42.7376410" lon="-8.6610130">
        <ele>11.5</ele>
        <time>2021-05-23T11:27:45Z</time>
      </trkpt>
      <trkpt lat="42.7376420" lon="-8.6610150">
        <ele>11.5</ele>
        <time>2021-05-23T11:27:46Z</time>
      </trkpt>
      <trkpt lat="42.7376440" lon="-8.6610180">
        <ele>11.5</ele>
        <time>2021-05-23T11:27:47Z</time>
      </trkpt>
      <trkpt lat="42.7376500" lon="-8.6610200">
        <ele>11.5</ele>
        <time>2021-05-23T11:27:48Z</time>
      </trkpt>
      <trkpt lat="42.7376520" lon="-8.6610200">
        <ele>11.5</ele>
        <time>2021-05-23T11:27:49Z</time>
      </trkpt>
      <trkpt lat="42.7376520" lon="-8.6610210">
        <ele>11.5</ele>
        <time>2021-05-23T11:27:50Z</time>
      </trkpt>
      <trkpt lat="42.7376530" lon="-8.6610260">
        <ele>11.5</ele>
        <time>2021-05-23T11:27:51Z</time>
      </trkpt>
      <trkpt lat="42.7376590" lon="-8.6610240">
        <ele>11.5</ele>
        <time>2021-05-23T11:27:52Z</time>
      </trkpt>
      <trkpt lat="42.7376610" lon="-8.6610220">
        <ele>11.5</ele>
        <time>2021-05-23T11:27:53Z</time>
      </trkpt>
      <trkpt lat="42.7376610" lon="-8.6610220">
        <ele>11.5</ele>
        <time>2021-05-23T11:27:54Z</time>
      </trkpt>
      <trkpt lat="42.7376610" lon="-8.6610220">
        <ele>11.5</ele>
        <time>2021-05-23T11:27:55Z</time>
      </trkpt>
      <trkpt lat="42.7376610" lon="-8.6610220">
        <ele>11.5</ele>
        <time>2021-05-23T11:27:56Z</time>
      </trkpt>
      <trkpt lat="42.7376610" lon="-8.6610220">
        <ele>11.5</ele>
        <time>2021-05-23T11:27:57Z</time>
      </trkpt>
      <trkpt lat="42.7376600" lon="-8.6610220">
        <ele>11.5</ele>
        <time>2021-05-23T11:27:58Z</time>
      </trkpt>
      <trkpt lat="42.7376600" lon="-8.6610220">
        <ele>11.5</ele>
        <time>2021-05-23T11:27:59Z</time>
      </trkpt>
      <trkpt lat="42.7376600" lon="-8.6610220">
        <ele>11.5</ele>
        <time>2021-05-23T11:28:00Z</time>
      </trkpt>
      <trkpt lat="42.7376600" lon="-8.6610220">
        <ele>11.5</ele>
        <time>2021-05-23T11:28:01Z</time>
      </trkpt>
      <trkpt lat="42.7376600" lon="-8.6610220">
        <ele>11.5</ele>
        <time>2021-05-23T11:28:02Z</time>
      </trkpt>
      <trkpt lat="42.7376600" lon="-8.6610220">
        <ele>11.5</ele>
        <time>2021-05-23T11:28:03Z</time>
      </trkpt>
      <trkpt lat="42.7376600" lon="-8.6610220">
        <ele>11.5</ele>
        <time>2021-05-23T11:28:04Z</time>
      </trkpt>
      <trkpt lat="42.7376600" lon="-8.6610220">
        <ele>11.5</ele>
        <time>2021-05-23T11:28:05Z</time>
      </trkpt>
      <trkpt lat="42.7376600" lon="-8.6610220">
        <ele>11.5</ele>
        <time>2021-05-23T11:28:06Z</time>
      </trkpt>
      <trkpt lat="42.7376600" lon="-8.6610220">
        <ele>11.5</ele>
        <time>2021-05-23T11:28:07Z</time>
      </trkpt>
      <trkpt lat="42.7376600" lon="-8.6610220">
        <ele>11.5</ele>
        <time>2021-05-23T11:28:08Z</time>
      </trkpt>
      <trkpt lat="42.7376600" lon="-8.6610220">
        <ele>11.5</ele>
        <time>2021-05-23T11:28:09Z</time>
      </trkpt>
      <trkpt lat="42.7376590" lon="-8.6610220">
        <ele>11.5</ele>
        <time>2021-05-23T11:28:10Z</time>
      </trkpt>
      <trkpt lat="42.7376590" lon="-8.6610220">
        <ele>11.5</ele>
        <time>2021-05-23T11:28:11Z</time>
      </trkpt>
      <trkpt lat="42.7376590" lon="-8.6610220">
        <ele>11.5</ele>
        <time>2021-05-23T11:28:12Z</time>
      </trkpt>
      <trkpt lat="42.7376590" lon="-8.6610220">
        <ele>11.5</ele>
        <time>2021-05-23T11:28:13Z</time>
      </trkpt>
      <trkpt lat="42.7376590" lon="-8.6610220">
        <ele>11.5</ele>
        <time>2021-05-23T11:28:14Z</time>
      </trkpt>
      <trkpt lat="42.7376590" lon="-8.6610220">
        <ele>11.5</ele>
        <time>2021-05-23T11:28:15Z</time>
      </trkpt>
      <trkpt lat="42.7376590" lon="-8.6610220">
        <ele>11.5</ele>
        <time>2021-05-23T11:28:16Z</time>
      </trkpt>
      <trkpt lat="42.7376590" lon="-8.6610220">
        <ele>11.5</ele>
        <time>2021-05-23T11:28:17Z</time>
      </trkpt>
      <trkpt lat="42.7376590" lon="-8.6610220">
        <ele>11.5</ele>
        <time>2021-05-23T11:28:18Z</time>
      </trkpt>
      <trkpt lat="42.7376590" lon="-8.6610220">
        <ele>11.5</ele>
        <time>2021-05-23T11:28:19Z</time>
      </trkpt>
      <trkpt lat="42.7376590" lon="-8.6610220">
        <ele>11.5</ele>
        <time>2021-05-23T11:28:20Z</time>
      </trkpt>
      <trkpt lat="42.7376590" lon="-8.6610220">
        <ele>11.5</ele>
        <time>2021-05-23T11:28:21Z</time>
      </trkpt>
      <trkpt lat="42.7376580" lon="-8.6610220">
        <ele>11.5</ele>
        <time>2021-05-23T11:28:22Z</time>
      </trkpt>
      <trkpt lat="42.7376580" lon="-8.6610220">
        <ele>11.5</ele>
        <time>2021-05-23T11:28:23Z</time>
      </trkpt>
      <trkpt lat="42.7376580" lon="-8.6610220">
        <ele>11.5</ele>
        <time>2021-05-23T11:28:24Z</time>
      </trkpt>
      <trkpt lat="42.7376580" lon="-8.6610220">
        <ele>11.5</ele>
        <time>2021-05-23T11:28:25Z</time>
      </trkpt>
      <trkpt lat="42.7376580" lon="-8.6610220">
        <ele>11.5</ele>
        <time>2021-05-23T11:28:26Z</time>
      </trkpt>
      <trkpt lat="42.7376580" lon="-8.6610220">
        <ele>11.5</ele>
        <time>2021-05-23T11:28:27Z</time>
      </trkpt>
      <trkpt lat="42.7376580" lon="-8.6610220">
        <ele>11.5</ele>
        <time>2021-05-23T11:28:29Z</time>
      </trkpt>
      <trkpt lat="42.7376580" lon="-8.6610220">
        <ele>11.5</ele>
        <time>2021-05-23T11:28:30Z</time>
      </trkpt>
      <trkpt lat="42.7376580" lon="-8.6610220">
        <ele>11.5</ele>
        <time>2021-05-23T11:28:31Z</time>
      </trkpt>
      <trkpt lat="42.7376580" lon="-8.6610220">
        <ele>11.5</ele>
        <time>2021-05-23T11:28:32Z</time>
      </trkpt>
      <trkpt lat="42.7376580" lon="-8.6610210">
        <ele>11.5</ele>
        <time>2021-05-23T11:28:33Z</time>
      </trkpt>
      <trkpt lat="42.7376570" lon="-8.6610210">
        <ele>11.5</ele>
        <time>2021-05-23T11:28:34Z</time>
      </trkpt>
      <trkpt lat="42.7376570" lon="-8.6610210">
        <ele>11.5</ele>
        <time>2021-05-23T11:28:35Z</time>
      </trkpt>
      <trkpt lat="42.7376570" lon="-8.6610210">
        <ele>11.5</ele>
        <time>2021-05-23T11:28:36Z</time>
      </trkpt>
      <trkpt lat="42.7376570" lon="-8.6610210">
        <ele>11.5</ele>
        <time>2021-05-23T11:28:37Z</time>
      </trkpt>
      <trkpt lat="42.7376570" lon="-8.6610210">
        <ele>11.5</ele>
        <time>2021-05-23T11:28:38Z</time>
      </trkpt>
      <trkpt lat="42.7376570" lon="-8.6610210">
        <ele>11.5</ele>
        <time>2021-05-23T11:28:39Z</time>
      </trkpt>
      <trkpt lat="42.7376570" lon="-8.6610210">
        <ele>11.5</ele>
        <time>2021-05-23T11:28:40Z</time>
      </trkpt>
      <trkpt lat="42.7376570" lon="-8.6610210">
        <ele>11.5</ele>
        <time>2021-05-23T11:28:41Z</time>
      </trkpt>
      <trkpt lat="42.7376570" lon="-8.6610210">
        <ele>11.5</ele>
        <time>2021-05-23T11:28:42Z</time>
      </trkpt>
      <trkpt lat="42.7376570" lon="-8.6610210">
        <ele>11.5</ele>
        <time>2021-05-23T11:28:43Z</time>
      </trkpt>
      <trkpt lat="42.7376570" lon="-8.6610210">
        <ele>11.5</ele>
        <time>2021-05-23T11:28:44Z</time>
      </trkpt>
      <trkpt lat="42.7376570" lon="-8.6610210">
        <ele>11.5</ele>
        <time>2021-05-23T11:28:45Z</time>
      </trkpt>
      <trkpt lat="42.7376560" lon="-8.6610210">
        <ele>11.5</ele>
        <time>2021-05-23T11:28:46Z</time>
      </trkpt>
      <trkpt lat="42.7376560" lon="-8.6610210">
        <ele>11.5</ele>
        <time>2021-05-23T11:28:47Z</time>
      </trkpt>
      <trkpt lat="42.7376560" lon="-8.6610210">
        <ele>11.5</ele>
        <time>2021-05-23T11:28:48Z</time>
      </trkpt>
      <trkpt lat="42.7376560" lon="-8.6610210">
        <ele>11.5</ele>
        <time>2021-05-23T11:28:49Z</time>
      </trkpt>
      <trkpt lat="42.7376560" lon="-8.6610210">
        <ele>11.5</ele>
        <time>2021-05-23T11:28:50Z</time>
      </trkpt>
      <trkpt lat="42.7376560" lon="-8.6610210">
        <ele>11.5</ele>
        <time>2021-05-23T11:28:51Z</time>
      </trkpt>
      <trkpt lat="42.7376560" lon="-8.6610210">
        <ele>11.5</ele>
        <time>2021-05-23T11:28:52Z</time>
      </trkpt>
      <trkpt lat="42.7376560" lon="-8.6610210">
        <ele>11.5</ele>
        <time>2021-05-23T11:28:53Z</time>
      </trkpt>
      <trkpt lat="42.7376560" lon="-8.6610210">
        <ele>11.5</ele>
        <time>2021-05-23T11:28:54Z</time>
      </trkpt>
      <trkpt lat="42.7376560" lon="-8.6610210">
        <ele>11.5</ele>
        <time>2021-05-23T11:28:55Z</time>
      </trkpt>
      <trkpt lat="42.7376560" lon="-8.6610210">
        <ele>11.5</ele>
        <time>2021-05-23T11:28:56Z</time>
      </trkpt>
      <trkpt lat="42.7376560" lon="-8.6610210">
        <ele>11.5</ele>
        <time>2021-05-23T11:28:57Z</time>
      </trkpt>
      <trkpt lat="42.7376550" lon="-8.6610210">
        <ele>11.5</ele>
        <time>2021-05-23T11:28:58Z</time>
      </trkpt>
      <trkpt lat="42.7376550" lon="-8.6610210">
        <ele>11.5</ele>
        <time>2021-05-23T11:28:59Z</time>
      </trkpt>
      <trkpt lat="42.7376550" lon="-8.6610210">
        <ele>11.5</ele>
        <time>2021-05-23T11:29:00Z</time>
      </trkpt>
      <trkpt lat="42.7376550" lon="-8.6610210">
        <ele>11.5</ele>
        <time>2021-05-23T11:29:01Z</time>
      </trkpt>
      <trkpt lat="42.7376550" lon="-8.6610210">
        <ele>11.5</ele>
        <time>2021-05-23T11:29:02Z</time>
      </trkpt>
      <trkpt lat="42.7376550" lon="-8.6610210">
        <ele>11.5</ele>
        <time>2021-05-23T11:29:03Z</time>
      </trkpt>
      <trkpt lat="42.7376550" lon="-8.6610210">
        <ele>11.5</ele>
        <time>2021-05-23T11:29:04Z</time>
      </trkpt>
      <trkpt lat="42.7376550" lon="-8.6610210">
        <ele>11.5</ele>
        <time>2021-05-23T11:29:05Z</time>
      </trkpt>
      <trkpt lat="42.7376550" lon="-8.6610210">
        <ele>11.5</ele>
        <time>2021-05-23T11:29:06Z</time>
      </trkpt>
      <trkpt lat="42.7376550" lon="-8.6610210">
        <ele>11.5</ele>
        <time>2021-05-23T11:29:07Z</time>
      </trkpt>
      <trkpt lat="42.7376550" lon="-8.6610210">
        <ele>11.5</ele>
        <time>2021-05-23T11:29:08Z</time>
      </trkpt>
      <trkpt lat="42.7376540" lon="-8.6610210">
        <ele>11.5</ele>
        <time>2021-05-23T11:29:09Z</time>
      </trkpt>
      <trkpt lat="42.7376540" lon="-8.6610210">
        <ele>11.5</ele>
        <time>2021-05-23T11:29:10Z</time>
      </trkpt>
      <trkpt lat="42.7376540" lon="-8.6610210">
        <ele>11.5</ele>
        <time>2021-05-23T11:29:11Z</time>
      </trkpt>
      <trkpt lat="42.7376540" lon="-8.6610210">
        <ele>11.5</ele>
        <time>2021-05-23T11:29:12Z</time>
      </trkpt>
      <trkpt lat="42.7376540" lon="-8.6610210">
        <ele>11.5</ele>
        <time>2021-05-23T11:29:13Z</time>
      </trkpt>
      <trkpt lat="42.7376540" lon="-8.6610210">
        <ele>11.5</ele>
        <time>2021-05-23T11:29:14Z</time>
      </trkpt>
      <trkpt lat="42.7376540" lon="-8.6610210">
        <ele>11.5</ele>
        <time>2021-05-23T11:29:15Z</time>
      </trkpt>
      <trkpt lat="42.7376540" lon="-8.6610210">
        <ele>11.5</ele>
        <time>2021-05-23T11:29:16Z</time>
      </trkpt>
      <trkpt lat="42.7376540" lon="-8.6610210">
        <ele>11.5</ele>
        <time>2021-05-23T11:29:17Z</time>
      </trkpt>
      <trkpt lat="42.7376540" lon="-8.6610210">
        <ele>11.5</ele>
        <time>2021-05-23T11:29:18Z</time>
      </trkpt>
      <trkpt lat="42.7376540" lon="-8.6610210">
        <ele>11.5</ele>
        <time>2021-05-23T11:29:19Z</time>
      </trkpt>
      <trkpt lat="42.7376540" lon="-8.6610210">
        <ele>11.5</ele>
        <time>2021-05-23T11:29:20Z</time>
      </trkpt>
      <trkpt lat="42.7376530" lon="-8.6610210">
        <ele>11.5</ele>
        <time>2021-05-23T11:29:21Z</time>
      </trkpt>
      <trkpt lat="42.7376530" lon="-8.6610210">
        <ele>11.5</ele>
        <time>2021-05-23T11:29:22Z</time>
      </trkpt>
      <trkpt lat="42.7376530" lon="-8.6610210">
        <ele>11.5</ele>
        <time>2021-05-23T11:29:23Z</time>
      </trkpt>
      <trkpt lat="42.7376530" lon="-8.6610210">
        <ele>11.5</ele>
        <time>2021-05-23T11:29:24Z</time>
      </trkpt>
      <trkpt lat="42.7376530" lon="-8.6610210">
        <ele>11.5</ele>
        <time>2021-05-23T11:29:25Z</time>
      </trkpt>
      <trkpt lat="42.7376530" lon="-8.6610210">
        <ele>11.5</ele>
        <time>2021-05-23T11:29:26Z</time>
      </trkpt>
      <trkpt lat="42.7376530" lon="-8.6610210">
        <ele>11.5</ele>
        <time>2021-05-23T11:29:27Z</time>
      </trkpt>
      <trkpt lat="42.7376530" lon="-8.6610210">
        <ele>11.5</ele>
        <time>2021-05-23T11:29:28Z</time>
      </trkpt>
      <trkpt lat="42.7376530" lon="-8.6610210">
        <ele>11.5</ele>
        <time>2021-05-23T11:29:29Z</time>
      </trkpt>
      <trkpt lat="42.7376530" lon="-8.6610210">
        <ele>11.5</ele>
        <time>2021-05-23T11:29:30Z</time>
      </trkpt>
      <trkpt lat="42.7376530" lon="-8.6610210">
        <ele>11.5</ele>
        <time>2021-05-23T11:29:31Z</time>
      </trkpt>
      <trkpt lat="42.7376520" lon="-8.6610210">
        <ele>11.5</ele>
        <time>2021-05-23T11:29:32Z</time>
      </trkpt>
      <trkpt lat="42.7376520" lon="-8.6610210">
        <ele>11.5</ele>
        <time>2021-05-23T11:29:33Z</time>
      </trkpt>
      <trkpt lat="42.7376520" lon="-8.6610210">
        <ele>11.5</ele>
        <time>2021-05-23T11:29:34Z</time>
      </trkpt>
      <trkpt lat="42.7376520" lon="-8.6610210">
        <ele>11.5</ele>
        <time>2021-05-23T11:29:35Z</time>
      </trkpt>
      <trkpt lat="42.7376520" lon="-8.6610210">
        <ele>11.5</ele>
        <time>2021-05-23T11:29:36Z</time>
      </trkpt>
      <trkpt lat="42.7376520" lon="-8.6610210">
        <ele>11.5</ele>
        <time>2021-05-23T11:29:37Z</time>
      </trkpt>
      <trkpt lat="42.7376520" lon="-8.6610210">
        <ele>11.5</ele>
        <time>2021-05-23T11:29:38Z</time>
      </trkpt>
      <trkpt lat="42.7376520" lon="-8.6610210">
        <ele>11.5</ele>
        <time>2021-05-23T11:29:39Z</time>
      </trkpt>
      <trkpt lat="42.7376520" lon="-8.6610210">
        <ele>11.5</ele>
        <time>2021-05-23T11:29:40Z</time>
      </trkpt>
      <trkpt lat="42.7376520" lon="-8.6610210">
        <ele>11.5</ele>
        <time>2021-05-23T11:29:41Z</time>
      </trkpt>
      <trkpt lat="42.7376520" lon="-8.6610210">
        <ele>11.5</ele>
        <time>2021-05-23T11:29:42Z</time>
      </trkpt>
      <trkpt lat="42.7376520" lon="-8.6610210">
        <ele>11.5</ele>
        <time>2021-05-23T11:29:43Z</time>
      </trkpt>
      <trkpt lat="42.7376510" lon="-8.6610210">
        <ele>11.5</ele>
        <time>2021-05-23T11:29:44Z</time>
      </trkpt>
      <trkpt lat="42.7376510" lon="-8.6610210">
        <ele>11.5</ele>
        <time>2021-05-23T11:29:45Z</time>
      </trkpt>
      <trkpt lat="42.7376510" lon="-8.6610210">
        <ele>11.5</ele>
        <time>2021-05-23T11:29:46Z</time>
      </trkpt>
      <trkpt lat="42.7376510" lon="-8.6610210">
        <ele>11.5</ele>
        <time>2021-05-23T11:29:47Z</time>
      </trkpt>
      <trkpt lat="42.7376510" lon="-8.6610210">
        <ele>11.5</ele>
        <time>2021-05-23T11:29:48Z</time>
      </trkpt>
      <trkpt lat="42.7376510" lon="-8.6610210">
        <ele>11.5</ele>
        <time>2021-05-23T11:29:49Z</time>
      </trkpt>
      <trkpt lat="42.7376510" lon="-8.6610210">
        <ele>11.5</ele>
        <time>2021-05-23T11:29:50Z</time>
      </trkpt>
      <trkpt lat="42.7376510" lon="-8.6610200">
        <ele>11.5</ele>
        <time>2021-05-23T11:29:51Z</time>
      </trkpt>
      <trkpt lat="42.7376510" lon="-8.6610200">
        <ele>11.5</ele>
        <time>2021-05-23T11:29:52Z</time>
      </trkpt>
      <trkpt lat="42.7376510" lon="-8.6610200">
        <ele>11.5</ele>
        <time>2021-05-23T11:29:53Z</time>
      </trkpt>
      <trkpt lat="42.7376510" lon="-8.6610200">
        <ele>11.5</ele>
        <time>2021-05-23T11:29:54Z</time>
      </trkpt>
      <trkpt lat="42.7376510" lon="-8.6610200">
        <ele>11.5</ele>
        <time>2021-05-23T11:29:55Z</time>
      </trkpt>
      <trkpt lat="42.7376500" lon="-8.6610200">
        <ele>11.5</ele>
        <time>2021-05-23T11:29:56Z</time>
      </trkpt>
      <trkpt lat="42.7376500" lon="-8.6610200">
        <ele>11.5</ele>
        <time>2021-05-23T11:29:57Z</time>
      </trkpt>
      <trkpt lat="42.7376500" lon="-8.6610200">
        <ele>11.5</ele>
        <time>2021-05-23T11:29:58Z</time>
      </trkpt>
      <trkpt lat="42.7376500" lon="-8.6610200">
        <ele>11.5</ele>
        <time>2021-05-23T11:29:59Z</time>
      </trkpt>
      <trkpt lat="42.7376500" lon="-8.6610200">
        <ele>11.5</ele>
        <time>2021-05-23T11:30:00Z</time>
      </trkpt>
      <trkpt lat="42.7376500" lon="-8.6610200">
        <ele>11.5</ele>
        <time>2021-05-23T11:30:01Z</time>
      </trkpt>
      <trkpt lat="42.7376500" lon="-8.6610200">
        <ele>11.5</ele>
        <time>2021-05-23T11:30:02Z</time>
      </trkpt>
      <trkpt lat="42.7376500" lon="-8.6610200">
        <ele>11.5</ele>
        <time>2021-05-23T11:30:03Z</time>
      </trkpt>
      <trkpt lat="42.7376500" lon="-8.6610200">
        <ele>11.5</ele>
        <time>2021-05-23T11:30:04Z</time>
      </trkpt>
      <trkpt lat="42.7376500" lon="-8.6610200">
        <ele>11.5</ele>
        <time>2021-05-23T11:30:05Z</time>
      </trkpt>
      <trkpt lat="42.7376500" lon="-8.6610200">
        <ele>11.5</ele>
        <time>2021-05-23T11:30:06Z</time>
      </trkpt>
      <trkpt lat="42.7376490" lon="-8.6610200">
        <ele>11.5</ele>
        <time>2021-05-23T11:30:07Z</time>
      </trkpt>
      <trkpt lat="42.7376490" lon="-8.6610200">
        <ele>11.5</ele>
        <time>2021-05-23T11:30:08Z</time>
      </trkpt>
      <trkpt lat="42.7376490" lon="-8.6610200">
        <ele>11.5</ele>
        <time>2021-05-23T11:30:09Z</time>
      </trkpt>
      <trkpt lat="42.7376490" lon="-8.6610200">
        <ele>11.5</ele>
        <time>2021-05-23T11:30:10Z</time>
      </trkpt>
      <trkpt lat="42.7376490" lon="-8.6610200">
        <ele>11.5</ele>
        <time>2021-05-23T11:30:11Z</time>
      </trkpt>
      <trkpt lat="42.7376490" lon="-8.6610200">
        <ele>11.5</ele>
        <time>2021-05-23T11:30:12Z</time>
      </trkpt>
      <trkpt lat="42.7376490" lon="-8.6610200">
        <ele>11.5</ele>
        <time>2021-05-23T11:30:13Z</time>
      </trkpt>
      <trkpt lat="42.7376490" lon="-8.6610200">
        <ele>11.5</ele>
        <time>2021-05-23T11:30:14Z</time>
      </trkpt>
      <trkpt lat="42.7376490" lon="-8.6610200">
        <ele>11.5</ele>
        <time>2021-05-23T11:30:15Z</time>
      </trkpt>
      <trkpt lat="42.7376490" lon="-8.6610200">
        <ele>11.5</ele>
        <time>2021-05-23T11:30:16Z</time>
      </trkpt>
      <trkpt lat="42.7376490" lon="-8.6610200">
        <ele>11.5</ele>
        <time>2021-05-23T11:30:17Z</time>
      </trkpt>
      <trkpt lat="42.7376490" lon="-8.6610200">
        <ele>11.5</ele>
        <time>2021-05-23T11:30:18Z</time>
      </trkpt>
      <trkpt lat="42.7376480" lon="-8.6610200">
        <ele>11.5</ele>
        <time>2021-05-23T11:30:19Z</time>
      </trkpt>
      <trkpt lat="42.7376480" lon="-8.6610200">
        <ele>11.5</ele>
        <time>2021-05-23T11:30:20Z</time>
      </trkpt>
      <trkpt lat="42.7376480" lon="-8.6610200">
        <ele>11.5</ele>
        <time>2021-05-23T11:30:21Z</time>
      </trkpt>
      <trkpt lat="42.7376480" lon="-8.6610200">
        <ele>11.5</ele>
        <time>2021-05-23T11:30:22Z</time>
      </trkpt>
      <trkpt lat="42.7376480" lon="-8.6610200">
        <ele>11.5</ele>
        <time>2021-05-23T11:30:23Z</time>
      </trkpt>
      <trkpt lat="42.7376480" lon="-8.6610200">
        <ele>11.5</ele>
        <time>2021-05-23T11:30:24Z</time>
      </trkpt>
      <trkpt lat="42.7376480" lon="-8.6610200">
        <ele>11.5</ele>
        <time>2021-05-23T11:30:25Z</time>
      </trkpt>
      <trkpt lat="42.7376480" lon="-8.6610200">
        <ele>11.5</ele>
        <time>2021-05-23T11:30:26Z</time>
      </trkpt>
      <trkpt lat="42.7376480" lon="-8.6610200">
        <ele>11.5</ele>
        <time>2021-05-23T11:30:27Z</time>
      </trkpt>
      <trkpt lat="42.7376480" lon="-8.6610200">
        <ele>11.4</ele>
        <time>2021-05-23T11:30:28Z</time>
      </trkpt>
      <trkpt lat="42.7376480" lon="-8.6610200">
        <ele>11.4</ele>
        <time>2021-05-23T11:30:29Z</time>
      </trkpt>
      <trkpt lat="42.7376480" lon="-8.6610200">
        <ele>11.4</ele>
        <time>2021-05-23T11:30:30Z</time>
      </trkpt>
      <trkpt lat="42.7376470" lon="-8.6610200">
        <ele>11.4</ele>
        <time>2021-05-23T11:30:31Z</time>
      </trkpt>
      <trkpt lat="42.7376470" lon="-8.6610200">
        <ele>11.4</ele>
        <time>2021-05-23T11:30:32Z</time>
      </trkpt>
      <trkpt lat="42.7376470" lon="-8.6610200">
        <ele>11.4</ele>
        <time>2021-05-23T11:30:33Z</time>
      </trkpt>
      <trkpt lat="42.7376470" lon="-8.6610200">
        <ele>11.4</ele>
        <time>2021-05-23T11:30:34Z</time>
      </trkpt>
      <trkpt lat="42.7376470" lon="-8.6610200">
        <ele>11.4</ele>
        <time>2021-05-23T11:30:35Z</time>
      </trkpt>
      <trkpt lat="42.7376470" lon="-8.6610200">
        <ele>11.4</ele>
        <time>2021-05-23T11:30:36Z</time>
      </trkpt>
      <trkpt lat="42.7376470" lon="-8.6610200">
        <ele>11.4</ele>
        <time>2021-05-23T11:30:37Z</time>
      </trkpt>
      <trkpt lat="42.7376470" lon="-8.6610200">
        <ele>11.4</ele>
        <time>2021-05-23T11:30:38Z</time>
      </trkpt>
      <trkpt lat="42.7376470" lon="-8.6610200">
        <ele>11.4</ele>
        <time>2021-05-23T11:30:39Z</time>
      </trkpt>
      <trkpt lat="42.7376470" lon="-8.6610200">
        <ele>11.4</ele>
        <time>2021-05-23T11:30:40Z</time>
      </trkpt>
      <trkpt lat="42.7376470" lon="-8.6610200">
        <ele>11.4</ele>
        <time>2021-05-23T11:30:41Z</time>
      </trkpt>
      <trkpt lat="42.7376460" lon="-8.6610200">
        <ele>11.4</ele>
        <time>2021-05-23T11:30:42Z</time>
      </trkpt>
      <trkpt lat="42.7376460" lon="-8.6610200">
        <ele>11.4</ele>
        <time>2021-05-23T11:30:43Z</time>
      </trkpt>
      <trkpt lat="42.7376460" lon="-8.6610200">
        <ele>11.4</ele>
        <time>2021-05-23T11:30:44Z</time>
      </trkpt>
      <trkpt lat="42.7376460" lon="-8.6610200">
        <ele>11.4</ele>
        <time>2021-05-23T11:30:45Z</time>
      </trkpt>
      <trkpt lat="42.7376460" lon="-8.6610200">
        <ele>11.4</ele>
        <time>2021-05-23T11:30:46Z</time>
      </trkpt>
      <trkpt lat="42.7376460" lon="-8.6610200">
        <ele>11.4</ele>
        <time>2021-05-23T11:30:47Z</time>
      </trkpt>
      <trkpt lat="42.7376460" lon="-8.6610200">
        <ele>11.4</ele>
        <time>2021-05-23T11:30:48Z</time>
      </trkpt>
      <trkpt lat="42.7376460" lon="-8.6610200">
        <ele>11.4</ele>
        <time>2021-05-23T11:30:49Z</time>
      </trkpt>
      <trkpt lat="42.7376460" lon="-8.6610200">
        <ele>11.4</ele>
        <time>2021-05-23T11:30:50Z</time>
      </trkpt>
      <trkpt lat="42.7376460" lon="-8.6610200">
        <ele>11.4</ele>
        <time>2021-05-23T11:30:51Z</time>
      </trkpt>
      <trkpt lat="42.7376460" lon="-8.6610200">
        <ele>11.4</ele>
        <time>2021-05-23T11:30:52Z</time>
      </trkpt>
      <trkpt lat="42.7376460" lon="-8.6610200">
        <ele>11.4</ele>
        <time>2021-05-23T11:30:53Z</time>
      </trkpt>
      <trkpt lat="42.7376450" lon="-8.6610200">
        <ele>11.4</ele>
        <time>2021-05-23T11:30:54Z</time>
      </trkpt>
      <trkpt lat="42.7376450" lon="-8.6610200">
        <ele>11.4</ele>
        <time>2021-05-23T11:30:55Z</time>
      </trkpt>
      <trkpt lat="42.7376450" lon="-8.6610200">
        <ele>11.4</ele>
        <time>2021-05-23T11:30:56Z</time>
      </trkpt>
      <trkpt lat="42.7376450" lon="-8.6610200">
        <ele>11.4</ele>
        <time>2021-05-23T11:30:57Z</time>
      </trkpt>
      <trkpt lat="42.7376450" lon="-8.6610200">
        <ele>11.4</ele>
        <time>2021-05-23T11:30:58Z</time>
      </trkpt>
      <trkpt lat="42.7376450" lon="-8.6610200">
        <ele>11.4</ele>
        <time>2021-05-23T11:30:59Z</time>
      </trkpt>
      <trkpt lat="42.7376450" lon="-8.6610200">
        <ele>11.4</ele>
        <time>2021-05-23T11:31:00Z</time>
      </trkpt>
      <trkpt lat="42.7376450" lon="-8.6610200">
        <ele>11.4</ele>
        <time>2021-05-23T11:31:01Z</time>
      </trkpt>
      <trkpt lat="42.7376450" lon="-8.6610200">
        <ele>11.4</ele>
        <time>2021-05-23T11:31:02Z</time>
      </trkpt>
      <trkpt lat="42.7376450" lon="-8.6610200">
        <ele>11.4</ele>
        <time>2021-05-23T11:31:03Z</time>
      </trkpt>
      <trkpt lat="42.7376450" lon="-8.6610200">
        <ele>11.4</ele>
        <time>2021-05-23T11:31:04Z</time>
      </trkpt>
      <trkpt lat="42.7376450" lon="-8.6610200">
        <ele>11.4</ele>
        <time>2021-05-23T11:31:05Z</time>
      </trkpt>
      <trkpt lat="42.7376440" lon="-8.6610200">
        <ele>11.4</ele>
        <time>2021-05-23T11:31:06Z</time>
      </trkpt>
      <trkpt lat="42.7376440" lon="-8.6610200">
        <ele>11.4</ele>
        <time>2021-05-23T11:31:07Z</time>
      </trkpt>
      <trkpt lat="42.7376440" lon="-8.6610200">
        <ele>11.4</ele>
        <time>2021-05-23T11:31:08Z</time>
      </trkpt>
      <trkpt lat="42.7376440" lon="-8.6610190">
        <ele>11.4</ele>
        <time>2021-05-23T11:31:09Z</time>
      </trkpt>
      <trkpt lat="42.7376440" lon="-8.6610190">
        <ele>11.4</ele>
        <time>2021-05-23T11:31:10Z</time>
      </trkpt>
      <trkpt lat="42.7376440" lon="-8.6610190">
        <ele>11.4</ele>
        <time>2021-05-23T11:31:11Z</time>
      </trkpt>
      <trkpt lat="42.7376440" lon="-8.6610190">
        <ele>11.4</ele>
        <time>2021-05-23T11:31:12Z</time>
      </trkpt>
      <trkpt lat="42.7376440" lon="-8.6610190">
        <ele>11.4</ele>
        <time>2021-05-23T11:31:13Z</time>
      </trkpt>
      <trkpt lat="42.7376440" lon="-8.6610190">
        <ele>11.4</ele>
        <time>2021-05-23T11:31:14Z</time>
      </trkpt>
      <trkpt lat="42.7376440" lon="-8.6610190">
        <ele>11.4</ele>
        <time>2021-05-23T11:31:15Z</time>
      </trkpt>
      <trkpt lat="42.7376440" lon="-8.6610190">
        <ele>11.4</ele>
        <time>2021-05-23T11:31:16Z</time>
      </trkpt>
      <trkpt lat="42.7376430" lon="-8.6610190">
        <ele>11.4</ele>
        <time>2021-05-23T11:31:17Z</time>
      </trkpt>
      <trkpt lat="42.7376430" lon="-8.6610190">
        <ele>11.4</ele>
        <time>2021-05-23T11:31:18Z</time>
      </trkpt>
      <trkpt lat="42.7376430" lon="-8.6610190">
        <ele>11.4</ele>
        <time>2021-05-23T11:31:19Z</time>
      </trkpt>
      <trkpt lat="42.7376430" lon="-8.6610190">
        <ele>11.4</ele>
        <time>2021-05-23T11:31:20Z</time>
      </trkpt>
      <trkpt lat="42.7376430" lon="-8.6610190">
        <ele>11.4</ele>
        <time>2021-05-23T11:31:21Z</time>
      </trkpt>
      <trkpt lat="42.7376430" lon="-8.6610190">
        <ele>11.4</ele>
        <time>2021-05-23T11:31:22Z</time>
      </trkpt>
      <trkpt lat="42.7376430" lon="-8.6610190">
        <ele>11.4</ele>
        <time>2021-05-23T11:31:23Z</time>
      </trkpt>
      <trkpt lat="42.7376430" lon="-8.6610190">
        <ele>11.4</ele>
        <time>2021-05-23T11:31:24Z</time>
      </trkpt>
      <trkpt lat="42.7376430" lon="-8.6610190">
        <ele>11.4</ele>
        <time>2021-05-23T11:31:25Z</time>
      </trkpt>
      <trkpt lat="42.7376430" lon="-8.6610190">
        <ele>11.4</ele>
        <time>2021-05-23T11:31:26Z</time>
      </trkpt>
      <trkpt lat="42.7376430" lon="-8.6610190">
        <ele>11.4</ele>
        <time>2021-05-23T11:31:27Z</time>
      </trkpt>
      <trkpt lat="42.7376430" lon="-8.6610190">
        <ele>11.4</ele>
        <time>2021-05-23T11:31:28Z</time>
      </trkpt>
      <trkpt lat="42.7376420" lon="-8.6610190">
        <ele>11.4</ele>
        <time>2021-05-23T11:31:29Z</time>
      </trkpt>
      <trkpt lat="42.7376420" lon="-8.6610190">
        <ele>11.4</ele>
        <time>2021-05-23T11:31:30Z</time>
      </trkpt>
      <trkpt lat="42.7376420" lon="-8.6610190">
        <ele>11.4</ele>
        <time>2021-05-23T11:31:31Z</time>
      </trkpt>
      <trkpt lat="42.7376420" lon="-8.6610190">
        <ele>11.4</ele>
        <time>2021-05-23T11:31:32Z</time>
      </trkpt>
      <trkpt lat="42.7376420" lon="-8.6610190">
        <ele>11.4</ele>
        <time>2021-05-23T11:31:33Z</time>
      </trkpt>
      <trkpt lat="42.7376420" lon="-8.6610190">
        <ele>11.4</ele>
        <time>2021-05-23T11:31:34Z</time>
      </trkpt>
      <trkpt lat="42.7376420" lon="-8.6610190">
        <ele>11.4</ele>
        <time>2021-05-23T11:31:35Z</time>
      </trkpt>
      <trkpt lat="42.7376420" lon="-8.6610190">
        <ele>11.4</ele>
        <time>2021-05-23T11:31:36Z</time>
      </trkpt>
      <trkpt lat="42.7376420" lon="-8.6610190">
        <ele>11.4</ele>
        <time>2021-05-23T11:31:37Z</time>
      </trkpt>
      <trkpt lat="42.7376420" lon="-8.6610190">
        <ele>11.4</ele>
        <time>2021-05-23T11:31:38Z</time>
      </trkpt>
      <trkpt lat="42.7376420" lon="-8.6610190">
        <ele>11.4</ele>
        <time>2021-05-23T11:31:39Z</time>
      </trkpt>
      <trkpt lat="42.7376410" lon="-8.6610190">
        <ele>11.4</ele>
        <time>2021-05-23T11:31:40Z</time>
      </trkpt>
      <trkpt lat="42.7376410" lon="-8.6610190">
        <ele>11.4</ele>
        <time>2021-05-23T11:31:41Z</time>
      </trkpt>
      <trkpt lat="42.7376410" lon="-8.6610190">
        <ele>11.4</ele>
        <time>2021-05-23T11:31:42Z</time>
      </trkpt>
      <trkpt lat="42.7376410" lon="-8.6610190">
        <ele>11.4</ele>
        <time>2021-05-23T11:31:43Z</time>
      </trkpt>
      <trkpt lat="42.7376410" lon="-8.6610190">
        <ele>11.4</ele>
        <time>2021-05-23T11:31:44Z</time>
      </trkpt>
      <trkpt lat="42.7376410" lon="-8.6610190">
        <ele>11.4</ele>
        <time>2021-05-23T11:31:45Z</time>
      </trkpt>
      <trkpt lat="42.7376410" lon="-8.6610190">
        <ele>11.4</ele>
        <time>2021-05-23T11:31:46Z</time>
      </trkpt>
      <trkpt lat="42.7376410" lon="-8.6610190">
        <ele>11.4</ele>
        <time>2021-05-23T11:31:47Z</time>
      </trkpt>
      <trkpt lat="42.7376410" lon="-8.6610190">
        <ele>11.4</ele>
        <time>2021-05-23T11:31:48Z</time>
      </trkpt>
      <trkpt lat="42.7376410" lon="-8.6610190">
        <ele>11.4</ele>
        <time>2021-05-23T11:31:49Z</time>
      </trkpt>
      <trkpt lat="42.7376410" lon="-8.6610190">
        <ele>11.4</ele>
        <time>2021-05-23T11:31:50Z</time>
      </trkpt>
      <trkpt lat="42.7376410" lon="-8.6610190">
        <ele>11.4</ele>
        <time>2021-05-23T11:31:51Z</time>
      </trkpt>
      <trkpt lat="42.7376400" lon="-8.6610190">
        <ele>11.4</ele>
        <time>2021-05-23T11:31:52Z</time>
      </trkpt>
      <trkpt lat="42.7376400" lon="-8.6610190">
        <ele>11.4</ele>
        <time>2021-05-23T11:31:53Z</time>
      </trkpt>
      <trkpt lat="42.7376400" lon="-8.6610190">
        <ele>11.4</ele>
        <time>2021-05-23T11:31:54Z</time>
      </trkpt>
      <trkpt lat="42.7376400" lon="-8.6610190">
        <ele>11.4</ele>
        <time>2021-05-23T11:31:55Z</time>
      </trkpt>
      <trkpt lat="42.7376400" lon="-8.6610190">
        <ele>11.4</ele>
        <time>2021-05-23T11:31:56Z</time>
      </trkpt>
      <trkpt lat="42.7376400" lon="-8.6610190">
        <ele>11.4</ele>
        <time>2021-05-23T11:31:57Z</time>
      </trkpt>
      <trkpt lat="42.7376400" lon="-8.6610190">
        <ele>11.4</ele>
        <time>2021-05-23T11:31:58Z</time>
      </trkpt>
      <trkpt lat="42.7376400" lon="-8.6610190">
        <ele>11.4</ele>
        <time>2021-05-23T11:31:59Z</time>
      </trkpt>
      <trkpt lat="42.7376400" lon="-8.6610190">
        <ele>11.4</ele>
        <time>2021-05-23T11:32:00Z</time>
      </trkpt>
      <trkpt lat="42.7376400" lon="-8.6610190">
        <ele>11.4</ele>
        <time>2021-05-23T11:32:01Z</time>
      </trkpt>
      <trkpt lat="42.7376400" lon="-8.6610190">
        <ele>11.4</ele>
        <time>2021-05-23T11:32:02Z</time>
      </trkpt>
      <trkpt lat="42.7376400" lon="-8.6610190">
        <ele>11.4</ele>
        <time>2021-05-23T11:32:03Z</time>
      </trkpt>
      <trkpt lat="42.7376390" lon="-8.6610190">
        <ele>11.4</ele>
        <time>2021-05-23T11:32:04Z</time>
      </trkpt>
      <trkpt lat="42.7376390" lon="-8.6610190">
        <ele>11.4</ele>
        <time>2021-05-23T11:32:05Z</time>
      </trkpt>
      <trkpt lat="42.7376390" lon="-8.6610190">
        <ele>11.4</ele>
        <time>2021-05-23T11:32:06Z</time>
      </trkpt>
      <trkpt lat="42.7376390" lon="-8.6610190">
        <ele>11.4</ele>
        <time>2021-05-23T11:32:07Z</time>
      </trkpt>
      <trkpt lat="42.7376390" lon="-8.6610190">
        <ele>11.4</ele>
        <time>2021-05-23T11:32:08Z</time>
      </trkpt>
      <trkpt lat="42.7376390" lon="-8.6610190">
        <ele>11.4</ele>
        <time>2021-05-23T11:32:09Z</time>
      </trkpt>
      <trkpt lat="42.7376390" lon="-8.6610190">
        <ele>11.4</ele>
        <time>2021-05-23T11:32:10Z</time>
      </trkpt>
      <trkpt lat="42.7376390" lon="-8.6610190">
        <ele>11.4</ele>
        <time>2021-05-23T11:32:11Z</time>
      </trkpt>
      <trkpt lat="42.7376390" lon="-8.6610190">
        <ele>11.4</ele>
        <time>2021-05-23T11:32:12Z</time>
      </trkpt>
      <trkpt lat="42.7376390" lon="-8.6610190">
        <ele>11.4</ele>
        <time>2021-05-23T11:32:13Z</time>
      </trkpt>
      <trkpt lat="42.7376390" lon="-8.6610190">
        <ele>11.4</ele>
        <time>2021-05-23T11:32:14Z</time>
      </trkpt>
      <trkpt lat="42.7376380" lon="-8.6610190">
        <ele>11.4</ele>
        <time>2021-05-23T11:32:15Z</time>
      </trkpt>
      <trkpt lat="42.7376380" lon="-8.6610190">
        <ele>11.4</ele>
        <time>2021-05-23T11:32:16Z</time>
      </trkpt>
      <trkpt lat="42.7376380" lon="-8.6610190">
        <ele>11.4</ele>
        <time>2021-05-23T11:32:17Z</time>
      </trkpt>
      <trkpt lat="42.7376380" lon="-8.6610190">
        <ele>11.4</ele>
        <time>2021-05-23T11:32:18Z</time>
      </trkpt>
      <trkpt lat="42.7376380" lon="-8.6610190">
        <ele>11.4</ele>
        <time>2021-05-23T11:32:19Z</time>
      </trkpt>
      <trkpt lat="42.7376380" lon="-8.6610190">
        <ele>11.4</ele>
        <time>2021-05-23T11:32:20Z</time>
      </trkpt>
      <trkpt lat="42.7376380" lon="-8.6610190">
        <ele>11.4</ele>
        <time>2021-05-23T11:32:21Z</time>
      </trkpt>
      <trkpt lat="42.7376380" lon="-8.6610190">
        <ele>11.4</ele>
        <time>2021-05-23T11:32:22Z</time>
      </trkpt>
      <trkpt lat="42.7376380" lon="-8.6610190">
        <ele>11.4</ele>
        <time>2021-05-23T11:32:23Z</time>
      </trkpt>
      <trkpt lat="42.7376380" lon="-8.6610190">
        <ele>11.4</ele>
        <time>2021-05-23T11:32:24Z</time>
      </trkpt>
      <trkpt lat="42.7376380" lon="-8.6610190">
        <ele>11.4</ele>
        <time>2021-05-23T11:32:25Z</time>
      </trkpt>
      <trkpt lat="42.7376380" lon="-8.6610190">
        <ele>11.4</ele>
        <time>2021-05-23T11:32:26Z</time>
      </trkpt>
      <trkpt lat="42.7376370" lon="-8.6610180">
        <ele>11.4</ele>
        <time>2021-05-23T11:32:27Z</time>
      </trkpt>
      <trkpt lat="42.7376370" lon="-8.6610180">
        <ele>11.4</ele>
        <time>2021-05-23T11:32:28Z</time>
      </trkpt>
      <trkpt lat="42.7376370" lon="-8.6610180">
        <ele>11.4</ele>
        <time>2021-05-23T11:32:29Z</time>
      </trkpt>
      <trkpt lat="42.7376370" lon="-8.6610180">
        <ele>11.4</ele>
        <time>2021-05-23T11:32:30Z</time>
      </trkpt>
      <trkpt lat="42.7376370" lon="-8.6610180">
        <ele>11.4</ele>
        <time>2021-05-23T11:32:31Z</time>
      </trkpt>
      <trkpt lat="42.7376370" lon="-8.6610180">
        <ele>11.4</ele>
        <time>2021-05-23T11:32:32Z</time>
      </trkpt>
      <trkpt lat="42.7376370" lon="-8.6610180">
        <ele>11.4</ele>
        <time>2021-05-23T11:32:33Z</time>
      </trkpt>
      <trkpt lat="42.7376370" lon="-8.6610180">
        <ele>11.4</ele>
        <time>2021-05-23T11:32:34Z</time>
      </trkpt>
      <trkpt lat="42.7376370" lon="-8.6610180">
        <ele>11.4</ele>
        <time>2021-05-23T11:32:35Z</time>
      </trkpt>
      <trkpt lat="42.7376370" lon="-8.6610180">
        <ele>11.4</ele>
        <time>2021-05-23T11:32:36Z</time>
      </trkpt>
      <trkpt lat="42.7376370" lon="-8.6610180">
        <ele>11.4</ele>
        <time>2021-05-23T11:32:37Z</time>
      </trkpt>
      <trkpt lat="42.7376370" lon="-8.6610180">
        <ele>11.4</ele>
        <time>2021-05-23T11:32:38Z</time>
      </trkpt>
      <trkpt lat="42.7376360" lon="-8.6610180">
        <ele>11.4</ele>
        <time>2021-05-23T11:32:39Z</time>
      </trkpt>
      <trkpt lat="42.7376360" lon="-8.6610180">
        <ele>11.4</ele>
        <time>2021-05-23T11:32:40Z</time>
      </trkpt>
      <trkpt lat="42.7376360" lon="-8.6610180">
        <ele>11.4</ele>
        <time>2021-05-23T11:32:41Z</time>
      </trkpt>
      <trkpt lat="42.7376360" lon="-8.6610180">
        <ele>11.4</ele>
        <time>2021-05-23T11:32:42Z</time>
      </trkpt>
      <trkpt lat="42.7376360" lon="-8.6610180">
        <ele>11.4</ele>
        <time>2021-05-23T11:32:43Z</time>
      </trkpt>
      <trkpt lat="42.7376360" lon="-8.6610180">
        <ele>11.4</ele>
        <time>2021-05-23T11:32:44Z</time>
      </trkpt>
      <trkpt lat="42.7376360" lon="-8.6610180">
        <ele>11.4</ele>
        <time>2021-05-23T11:32:45Z</time>
      </trkpt>
      <trkpt lat="42.7376360" lon="-8.6610180">
        <ele>11.4</ele>
        <time>2021-05-23T11:32:46Z</time>
      </trkpt>
      <trkpt lat="42.7376360" lon="-8.6610180">
        <ele>11.4</ele>
        <time>2021-05-23T11:32:47Z</time>
      </trkpt>
      <trkpt lat="42.7376360" lon="-8.6610180">
        <ele>11.4</ele>
        <time>2021-05-23T11:32:48Z</time>
      </trkpt>
      <trkpt lat="42.7376360" lon="-8.6610180">
        <ele>11.4</ele>
        <time>2021-05-23T11:32:49Z</time>
      </trkpt>
      <trkpt lat="42.7376350" lon="-8.6610180">
        <ele>11.4</ele>
        <time>2021-05-23T11:32:50Z</time>
      </trkpt>
      <trkpt lat="42.7376350" lon="-8.6610180">
        <ele>11.4</ele>
        <time>2021-05-23T11:32:51Z</time>
      </trkpt>
      <trkpt lat="42.7376350" lon="-8.6610180">
        <ele>11.4</ele>
        <time>2021-05-23T11:32:52Z</time>
      </trkpt>
      <trkpt lat="42.7376350" lon="-8.6610180">
        <ele>11.4</ele>
        <time>2021-05-23T11:32:53Z</time>
      </trkpt>
      <trkpt lat="42.7376350" lon="-8.6610180">
        <ele>11.4</ele>
        <time>2021-05-23T11:32:54Z</time>
      </trkpt>
      <trkpt lat="42.7376350" lon="-8.6610180">
        <ele>11.4</ele>
        <time>2021-05-23T11:32:55Z</time>
      </trkpt>
      <trkpt lat="42.7376350" lon="-8.6610180">
        <ele>11.4</ele>
        <time>2021-05-23T11:32:56Z</time>
      </trkpt>
      <trkpt lat="42.7376350" lon="-8.6610180">
        <ele>11.4</ele>
        <time>2021-05-23T11:32:57Z</time>
      </trkpt>
      <trkpt lat="42.7376350" lon="-8.6610180">
        <ele>11.4</ele>
        <time>2021-05-23T11:32:58Z</time>
      </trkpt>
      <trkpt lat="42.7376350" lon="-8.6610180">
        <ele>11.4</ele>
        <time>2021-05-23T11:32:59Z</time>
      </trkpt>
      <trkpt lat="42.7376350" lon="-8.6610180">
        <ele>11.4</ele>
        <time>2021-05-23T11:33:00Z</time>
      </trkpt>
      <trkpt lat="42.7376350" lon="-8.6610180">
        <ele>11.4</ele>
        <time>2021-05-23T11:33:01Z</time>
      </trkpt>
      <trkpt lat="42.7376340" lon="-8.6610180">
        <ele>11.4</ele>
        <time>2021-05-23T11:33:02Z</time>
      </trkpt>
      <trkpt lat="42.7376340" lon="-8.6610180">
        <ele>11.4</ele>
        <time>2021-05-23T11:33:03Z</time>
      </trkpt>
      <trkpt lat="42.7376340" lon="-8.6610180">
        <ele>11.4</ele>
        <time>2021-05-23T11:33:04Z</time>
      </trkpt>
      <trkpt lat="42.7376340" lon="-8.6610180">
        <ele>11.4</ele>
        <time>2021-05-23T11:33:05Z</time>
      </trkpt>
      <trkpt lat="42.7376340" lon="-8.6610180">
        <ele>11.4</ele>
        <time>2021-05-23T11:33:06Z</time>
      </trkpt>
      <trkpt lat="42.7376340" lon="-8.6610180">
        <ele>11.4</ele>
        <time>2021-05-23T11:33:07Z</time>
      </trkpt>
      <trkpt lat="42.7376340" lon="-8.6610180">
        <ele>11.4</ele>
        <time>2021-05-23T11:33:08Z</time>
      </trkpt>
      <trkpt lat="42.7376340" lon="-8.6610180">
        <ele>11.4</ele>
        <time>2021-05-23T11:33:09Z</time>
      </trkpt>
      <trkpt lat="42.7376340" lon="-8.6610180">
        <ele>11.4</ele>
        <time>2021-05-23T11:33:10Z</time>
      </trkpt>
      <trkpt lat="42.7376340" lon="-8.6610180">
        <ele>11.4</ele>
        <time>2021-05-23T11:33:11Z</time>
      </trkpt>
      <trkpt lat="42.7376340" lon="-8.6610180">
        <ele>11.4</ele>
        <time>2021-05-23T11:33:12Z</time>
      </trkpt>
      <trkpt lat="42.7376340" lon="-8.6610180">
        <ele>11.4</ele>
        <time>2021-05-23T11:33:13Z</time>
      </trkpt>
      <trkpt lat="42.7376330" lon="-8.6610180">
        <ele>11.4</ele>
        <time>2021-05-23T11:33:14Z</time>
      </trkpt>
      <trkpt lat="42.7376330" lon="-8.6610180">
        <ele>11.4</ele>
        <time>2021-05-23T11:33:15Z</time>
      </trkpt>
      <trkpt lat="42.7376330" lon="-8.6610180">
        <ele>11.4</ele>
        <time>2021-05-23T11:33:16Z</time>
      </trkpt>
      <trkpt lat="42.7376330" lon="-8.6610180">
        <ele>11.4</ele>
        <time>2021-05-23T11:33:17Z</time>
      </trkpt>
      <trkpt lat="42.7376330" lon="-8.6610180">
        <ele>11.4</ele>
        <time>2021-05-23T11:33:18Z</time>
      </trkpt>
      <trkpt lat="42.7376330" lon="-8.6610180">
        <ele>11.4</ele>
        <time>2021-05-23T11:33:19Z</time>
      </trkpt>
      <trkpt lat="42.7376330" lon="-8.6610180">
        <ele>11.4</ele>
        <time>2021-05-23T11:33:20Z</time>
      </trkpt>
      <trkpt lat="42.7376330" lon="-8.6610180">
        <ele>11.4</ele>
        <time>2021-05-23T11:33:21Z</time>
      </trkpt>
      <trkpt lat="42.7376330" lon="-8.6610180">
        <ele>11.4</ele>
        <time>2021-05-23T11:33:22Z</time>
      </trkpt>
      <trkpt lat="42.7376330" lon="-8.6610180">
        <ele>11.4</ele>
        <time>2021-05-23T11:33:23Z</time>
      </trkpt>
      <trkpt lat="42.7376330" lon="-8.6610180">
        <ele>11.4</ele>
        <time>2021-05-23T11:33:24Z</time>
      </trkpt>
      <trkpt lat="42.7376320" lon="-8.6610180">
        <ele>11.4</ele>
        <time>2021-05-23T11:33:25Z</time>
      </trkpt>
      <trkpt lat="42.7376320" lon="-8.6610180">
        <ele>11.4</ele>
        <time>2021-05-23T11:33:26Z</time>
      </trkpt>
      <trkpt lat="42.7376320" lon="-8.6610180">
        <ele>11.4</ele>
        <time>2021-05-23T11:33:27Z</time>
      </trkpt>
      <trkpt lat="42.7376320" lon="-8.6610180">
        <ele>11.4</ele>
        <time>2021-05-23T11:33:28Z</time>
      </trkpt>
      <trkpt lat="42.7376320" lon="-8.6610180">
        <ele>11.4</ele>
        <time>2021-05-23T11:33:29Z</time>
      </trkpt>
      <trkpt lat="42.7376320" lon="-8.6610180">
        <ele>11.4</ele>
        <time>2021-05-23T11:33:30Z</time>
      </trkpt>
      <trkpt lat="42.7376320" lon="-8.6610180">
        <ele>11.4</ele>
        <time>2021-05-23T11:33:31Z</time>
      </trkpt>
      <trkpt lat="42.7376320" lon="-8.6610180">
        <ele>11.4</ele>
        <time>2021-05-23T11:33:32Z</time>
      </trkpt>
      <trkpt lat="42.7376320" lon="-8.6610180">
        <ele>11.4</ele>
        <time>2021-05-23T11:33:33Z</time>
      </trkpt>
      <trkpt lat="42.7376320" lon="-8.6610180">
        <ele>11.4</ele>
        <time>2021-05-23T11:33:34Z</time>
      </trkpt>
      <trkpt lat="42.7376320" lon="-8.6610180">
        <ele>11.4</ele>
        <time>2021-05-23T11:33:35Z</time>
      </trkpt>
      <trkpt lat="42.7376320" lon="-8.6610180">
        <ele>11.4</ele>
        <time>2021-05-23T11:33:36Z</time>
      </trkpt>
      <trkpt lat="42.7376310" lon="-8.6610180">
        <ele>11.4</ele>
        <time>2021-05-23T11:33:37Z</time>
      </trkpt>
      <trkpt lat="42.7376310" lon="-8.6610180">
        <ele>11.4</ele>
        <time>2021-05-23T11:33:38Z</time>
      </trkpt>
      <trkpt lat="42.7376310" lon="-8.6610180">
        <ele>11.4</ele>
        <time>2021-05-23T11:33:39Z</time>
      </trkpt>
      <trkpt lat="42.7376310" lon="-8.6610180">
        <ele>11.4</ele>
        <time>2021-05-23T11:33:40Z</time>
      </trkpt>
      <trkpt lat="42.7376310" lon="-8.6610180">
        <ele>11.4</ele>
        <time>2021-05-23T11:33:41Z</time>
      </trkpt>
      <trkpt lat="42.7376310" lon="-8.6610180">
        <ele>11.4</ele>
        <time>2021-05-23T11:33:42Z</time>
      </trkpt>
      <trkpt lat="42.7376310" lon="-8.6610180">
        <ele>11.4</ele>
        <time>2021-05-23T11:33:43Z</time>
      </trkpt>
      <trkpt lat="42.7376310" lon="-8.6610180">
        <ele>11.4</ele>
        <time>2021-05-23T11:33:44Z</time>
      </trkpt>
      <trkpt lat="42.7376310" lon="-8.6610170">
        <ele>11.4</ele>
        <time>2021-05-23T11:33:45Z</time>
      </trkpt>
      <trkpt lat="42.7376310" lon="-8.6610170">
        <ele>11.4</ele>
        <time>2021-05-23T11:33:46Z</time>
      </trkpt>
      <trkpt lat="42.7376310" lon="-8.6610170">
        <ele>11.4</ele>
        <time>2021-05-23T11:33:47Z</time>
      </trkpt>
      <trkpt lat="42.7376300" lon="-8.6610170">
        <ele>11.4</ele>
        <time>2021-05-23T11:33:48Z</time>
      </trkpt>
      <trkpt lat="42.7376300" lon="-8.6610170">
        <ele>11.4</ele>
        <time>2021-05-23T11:33:49Z</time>
      </trkpt>
      <trkpt lat="42.7376300" lon="-8.6610170">
        <ele>11.4</ele>
        <time>2021-05-23T11:33:50Z</time>
      </trkpt>
      <trkpt lat="42.7376300" lon="-8.6610170">
        <ele>11.4</ele>
        <time>2021-05-23T11:33:51Z</time>
      </trkpt>
      <trkpt lat="42.7376300" lon="-8.6610170">
        <ele>11.4</ele>
        <time>2021-05-23T11:33:52Z</time>
      </trkpt>
      <trkpt lat="42.7376300" lon="-8.6610170">
        <ele>11.4</ele>
        <time>2021-05-23T11:33:53Z</time>
      </trkpt>
      <trkpt lat="42.7376300" lon="-8.6610170">
        <ele>11.4</ele>
        <time>2021-05-23T11:33:54Z</time>
      </trkpt>
      <trkpt lat="42.7376300" lon="-8.6610170">
        <ele>11.4</ele>
        <time>2021-05-23T11:33:55Z</time>
      </trkpt>
      <trkpt lat="42.7376300" lon="-8.6610170">
        <ele>11.4</ele>
        <time>2021-05-23T11:33:56Z</time>
      </trkpt>
      <trkpt lat="42.7376300" lon="-8.6610170">
        <ele>11.4</ele>
        <time>2021-05-23T11:33:57Z</time>
      </trkpt>
      <trkpt lat="42.7376300" lon="-8.6610170">
        <ele>11.4</ele>
        <time>2021-05-23T11:33:58Z</time>
      </trkpt>
      <trkpt lat="42.7376300" lon="-8.6610170">
        <ele>11.4</ele>
        <time>2021-05-23T11:33:59Z</time>
      </trkpt>
      <trkpt lat="42.7376290" lon="-8.6610170">
        <ele>11.4</ele>
        <time>2021-05-23T11:34:00Z</time>
      </trkpt>
      <trkpt lat="42.7376290" lon="-8.6610170">
        <ele>11.4</ele>
        <time>2021-05-23T11:34:01Z</time>
      </trkpt>
      <trkpt lat="42.7376290" lon="-8.6610170">
        <ele>11.4</ele>
        <time>2021-05-23T11:34:02Z</time>
      </trkpt>
      <trkpt lat="42.7376290" lon="-8.6610170">
        <ele>11.4</ele>
        <time>2021-05-23T11:34:03Z</time>
      </trkpt>
      <trkpt lat="42.7376290" lon="-8.6610170">
        <ele>11.4</ele>
        <time>2021-05-23T11:34:04Z</time>
      </trkpt>
      <trkpt lat="42.7376290" lon="-8.6610170">
        <ele>11.4</ele>
        <time>2021-05-23T11:34:05Z</time>
      </trkpt>
      <trkpt lat="42.7376290" lon="-8.6610170">
        <ele>11.4</ele>
        <time>2021-05-23T11:34:06Z</time>
      </trkpt>
      <trkpt lat="42.7376290" lon="-8.6610170">
        <ele>11.4</ele>
        <time>2021-05-23T11:34:07Z</time>
      </trkpt>
      <trkpt lat="42.7376290" lon="-8.6610170">
        <ele>11.4</ele>
        <time>2021-05-23T11:34:08Z</time>
      </trkpt>
      <trkpt lat="42.7376290" lon="-8.6610170">
        <ele>11.4</ele>
        <time>2021-05-23T11:34:09Z</time>
      </trkpt>
      <trkpt lat="42.7376290" lon="-8.6610170">
        <ele>11.4</ele>
        <time>2021-05-23T11:34:10Z</time>
      </trkpt>
      <trkpt lat="42.7376290" lon="-8.6610170">
        <ele>11.4</ele>
        <time>2021-05-23T11:34:11Z</time>
      </trkpt>
      <trkpt lat="42.7376280" lon="-8.6610170">
        <ele>11.4</ele>
        <time>2021-05-23T11:34:12Z</time>
      </trkpt>
      <trkpt lat="42.7376280" lon="-8.6610170">
        <ele>11.4</ele>
        <time>2021-05-23T11:34:13Z</time>
      </trkpt>
      <trkpt lat="42.7376280" lon="-8.6610170">
        <ele>11.4</ele>
        <time>2021-05-23T11:34:14Z</time>
      </trkpt>
      <trkpt lat="42.7376280" lon="-8.6610170">
        <ele>11.4</ele>
        <time>2021-05-23T11:34:15Z</time>
      </trkpt>
      <trkpt lat="42.7376280" lon="-8.6610170">
        <ele>11.4</ele>
        <time>2021-05-23T11:34:16Z</time>
      </trkpt>
      <trkpt lat="42.7376280" lon="-8.6610170">
        <ele>11.4</ele>
        <time>2021-05-23T11:34:17Z</time>
      </trkpt>
      <trkpt lat="42.7376280" lon="-8.6610170">
        <ele>11.4</ele>
        <time>2021-05-23T11:34:18Z</time>
      </trkpt>
      <trkpt lat="42.7376280" lon="-8.6610170">
        <ele>11.4</ele>
        <time>2021-05-23T11:34:19Z</time>
      </trkpt>
      <trkpt lat="42.7376280" lon="-8.6610170">
        <ele>11.4</ele>
        <time>2021-05-23T11:34:20Z</time>
      </trkpt>
      <trkpt lat="42.7376280" lon="-8.6610170">
        <ele>11.4</ele>
        <time>2021-05-23T11:34:21Z</time>
      </trkpt>
      <trkpt lat="42.7376280" lon="-8.6610170">
        <ele>11.4</ele>
        <time>2021-05-23T11:34:22Z</time>
      </trkpt>
      <trkpt lat="42.7376270" lon="-8.6610170">
        <ele>11.4</ele>
        <time>2021-05-23T11:34:23Z</time>
      </trkpt>
      <trkpt lat="42.7376270" lon="-8.6610170">
        <ele>11.4</ele>
        <time>2021-05-23T11:34:24Z</time>
      </trkpt>
      <trkpt lat="42.7376270" lon="-8.6610170">
        <ele>11.4</ele>
        <time>2021-05-23T11:34:25Z</time>
      </trkpt>
      <trkpt lat="42.7376270" lon="-8.6610170">
        <ele>11.4</ele>
        <time>2021-05-23T11:34:26Z</time>
      </trkpt>
      <trkpt lat="42.7376270" lon="-8.6610170">
        <ele>11.4</ele>
        <time>2021-05-23T11:34:27Z</time>
      </trkpt>
      <trkpt lat="42.7376270" lon="-8.6610170">
        <ele>11.4</ele>
        <time>2021-05-23T11:34:28Z</time>
      </trkpt>
      <trkpt lat="42.7376270" lon="-8.6610170">
        <ele>11.4</ele>
        <time>2021-05-23T11:34:29Z</time>
      </trkpt>
      <trkpt lat="42.7376270" lon="-8.6610170">
        <ele>11.4</ele>
        <time>2021-05-23T11:34:30Z</time>
      </trkpt>
      <trkpt lat="42.7376270" lon="-8.6610170">
        <ele>11.4</ele>
        <time>2021-05-23T11:34:31Z</time>
      </trkpt>
      <trkpt lat="42.7376270" lon="-8.6610170">
        <ele>11.4</ele>
        <time>2021-05-23T11:34:32Z</time>
      </trkpt>
      <trkpt lat="42.7376270" lon="-8.6610170">
        <ele>11.4</ele>
        <time>2021-05-23T11:34:33Z</time>
      </trkpt>
      <trkpt lat="42.7376270" lon="-8.6610170">
        <ele>11.4</ele>
        <time>2021-05-23T11:34:34Z</time>
      </trkpt>
      <trkpt lat="42.7376260" lon="-8.6610170">
        <ele>11.4</ele>
        <time>2021-05-23T11:34:35Z</time>
      </trkpt>
      <trkpt lat="42.7376260" lon="-8.6610170">
        <ele>11.4</ele>
        <time>2021-05-23T11:34:36Z</time>
      </trkpt>
      <trkpt lat="42.7376260" lon="-8.6610170">
        <ele>11.4</ele>
        <time>2021-05-23T11:34:37Z</time>
      </trkpt>
      <trkpt lat="42.7376260" lon="-8.6610170">
        <ele>11.4</ele>
        <time>2021-05-23T11:34:38Z</time>
      </trkpt>
      <trkpt lat="42.7376260" lon="-8.6610170">
        <ele>11.4</ele>
        <time>2021-05-23T11:34:39Z</time>
      </trkpt>
      <trkpt lat="42.7376260" lon="-8.6610170">
        <ele>11.4</ele>
        <time>2021-05-23T11:34:40Z</time>
      </trkpt>
      <trkpt lat="42.7376260" lon="-8.6610170">
        <ele>11.4</ele>
        <time>2021-05-23T11:34:41Z</time>
      </trkpt>
      <trkpt lat="42.7376260" lon="-8.6610170">
        <ele>11.4</ele>
        <time>2021-05-23T11:34:42Z</time>
      </trkpt>
      <trkpt lat="42.7376260" lon="-8.6610170">
        <ele>11.4</ele>
        <time>2021-05-23T11:34:43Z</time>
      </trkpt>
      <trkpt lat="42.7376260" lon="-8.6610170">
        <ele>11.4</ele>
        <time>2021-05-23T11:34:44Z</time>
      </trkpt>
      <trkpt lat="42.7376260" lon="-8.6610170">
        <ele>11.4</ele>
        <time>2021-05-23T11:34:45Z</time>
      </trkpt>
      <trkpt lat="42.7376260" lon="-8.6610170">
        <ele>11.4</ele>
        <time>2021-05-23T11:34:46Z</time>
      </trkpt>
      <trkpt lat="42.7376250" lon="-8.6610170">
        <ele>11.4</ele>
        <time>2021-05-23T11:34:47Z</time>
      </trkpt>
      <trkpt lat="42.7376250" lon="-8.6610170">
        <ele>11.4</ele>
        <time>2021-05-23T11:34:48Z</time>
      </trkpt>
      <trkpt lat="42.7376250" lon="-8.6610170">
        <ele>11.4</ele>
        <time>2021-05-23T11:34:49Z</time>
      </trkpt>
      <trkpt lat="42.7376250" lon="-8.6610170">
        <ele>11.4</ele>
        <time>2021-05-23T11:34:50Z</time>
      </trkpt>
      <trkpt lat="42.7376250" lon="-8.6610170">
        <ele>11.4</ele>
        <time>2021-05-23T11:34:51Z</time>
      </trkpt>
      <trkpt lat="42.7376250" lon="-8.6610170">
        <ele>11.4</ele>
        <time>2021-05-23T11:34:52Z</time>
      </trkpt>
      <trkpt lat="42.7376250" lon="-8.6610170">
        <ele>11.4</ele>
        <time>2021-05-23T11:34:53Z</time>
      </trkpt>
      <trkpt lat="42.7376250" lon="-8.6610170">
        <ele>11.4</ele>
        <time>2021-05-23T11:34:54Z</time>
      </trkpt>
      <trkpt lat="42.7376250" lon="-8.6610170">
        <ele>11.4</ele>
        <time>2021-05-23T11:34:55Z</time>
      </trkpt>
      <trkpt lat="42.7376250" lon="-8.6610170">
        <ele>11.4</ele>
        <time>2021-05-23T11:34:56Z</time>
      </trkpt>
      <trkpt lat="42.7376250" lon="-8.6610170">
        <ele>11.4</ele>
        <time>2021-05-23T11:34:57Z</time>
      </trkpt>
      <trkpt lat="42.7376240" lon="-8.6610170">
        <ele>11.4</ele>
        <time>2021-05-23T11:34:58Z</time>
      </trkpt>
      <trkpt lat="42.7376240" lon="-8.6610170">
        <ele>11.4</ele>
        <time>2021-05-23T11:34:59Z</time>
      </trkpt>
      <trkpt lat="42.7376240" lon="-8.6610170">
        <ele>11.4</ele>
        <time>2021-05-23T11:35:00Z</time>
      </trkpt>
      <trkpt lat="42.7376240" lon="-8.6610170">
        <ele>11.4</ele>
        <time>2021-05-23T11:35:01Z</time>
      </trkpt>
      <trkpt lat="42.7376240" lon="-8.6610170">
        <ele>11.4</ele>
        <time>2021-05-23T11:35:02Z</time>
      </trkpt>
      <trkpt lat="42.7376240" lon="-8.6610160">
        <ele>11.4</ele>
        <time>2021-05-23T11:35:03Z</time>
      </trkpt>
      <trkpt lat="42.7376240" lon="-8.6610160">
        <ele>11.4</ele>
        <time>2021-05-23T11:35:04Z</time>
      </trkpt>
      <trkpt lat="42.7376240" lon="-8.6610160">
        <ele>11.4</ele>
        <time>2021-05-23T11:35:05Z</time>
      </trkpt>
      <trkpt lat="42.7376240" lon="-8.6610160">
        <ele>11.4</ele>
        <time>2021-05-23T11:35:06Z</time>
      </trkpt>
      <trkpt lat="42.7376240" lon="-8.6610160">
        <ele>11.4</ele>
        <time>2021-05-23T11:35:07Z</time>
      </trkpt>
      <trkpt lat="42.7376240" lon="-8.6610160">
        <ele>11.4</ele>
        <time>2021-05-23T11:35:08Z</time>
      </trkpt>
      <trkpt lat="42.7376240" lon="-8.6610160">
        <ele>11.4</ele>
        <time>2021-05-23T11:35:09Z</time>
      </trkpt>
      <trkpt lat="42.7376230" lon="-8.6610160">
        <ele>11.4</ele>
        <time>2021-05-23T11:35:10Z</time>
      </trkpt>
      <trkpt lat="42.7376230" lon="-8.6610160">
        <ele>11.4</ele>
        <time>2021-05-23T11:35:11Z</time>
      </trkpt>
      <trkpt lat="42.7376230" lon="-8.6610160">
        <ele>11.4</ele>
        <time>2021-05-23T11:35:12Z</time>
      </trkpt>
      <trkpt lat="42.7376230" lon="-8.6610160">
        <ele>11.4</ele>
        <time>2021-05-23T11:35:13Z</time>
      </trkpt>
      <trkpt lat="42.7376230" lon="-8.6610160">
        <ele>11.4</ele>
        <time>2021-05-23T11:35:14Z</time>
      </trkpt>
      <trkpt lat="42.7376230" lon="-8.6610160">
        <ele>11.4</ele>
        <time>2021-05-23T11:35:15Z</time>
      </trkpt>
      <trkpt lat="42.7376230" lon="-8.6610160">
        <ele>11.4</ele>
        <time>2021-05-23T11:35:16Z</time>
      </trkpt>
      <trkpt lat="42.7376230" lon="-8.6610160">
        <ele>11.4</ele>
        <time>2021-05-23T11:35:17Z</time>
      </trkpt>
      <trkpt lat="42.7376230" lon="-8.6610160">
        <ele>11.4</ele>
        <time>2021-05-23T11:35:18Z</time>
      </trkpt>
      <trkpt lat="42.7376230" lon="-8.6610160">
        <ele>11.4</ele>
        <time>2021-05-23T11:35:19Z</time>
      </trkpt>
      <trkpt lat="42.7376230" lon="-8.6610160">
        <ele>11.4</ele>
        <time>2021-05-23T11:35:20Z</time>
      </trkpt>
      <trkpt lat="42.7376230" lon="-8.6610160">
        <ele>11.4</ele>
        <time>2021-05-23T11:35:21Z</time>
      </trkpt>
      <trkpt lat="42.7376220" lon="-8.6610160">
        <ele>11.4</ele>
        <time>2021-05-23T11:35:22Z</time>
      </trkpt>
      <trkpt lat="42.7376220" lon="-8.6610160">
        <ele>11.4</ele>
        <time>2021-05-23T11:35:23Z</time>
      </trkpt>
      <trkpt lat="42.7376220" lon="-8.6610160">
        <ele>11.4</ele>
        <time>2021-05-23T11:35:24Z</time>
      </trkpt>
      <trkpt lat="42.7376220" lon="-8.6610160">
        <ele>11.4</ele>
        <time>2021-05-23T11:35:25Z</time>
      </trkpt>
      <trkpt lat="42.7376220" lon="-8.6610160">
        <ele>11.4</ele>
        <time>2021-05-23T11:35:26Z</time>
      </trkpt>
      <trkpt lat="42.7376220" lon="-8.6610160">
        <ele>11.4</ele>
        <time>2021-05-23T11:35:27Z</time>
      </trkpt>
      <trkpt lat="42.7376220" lon="-8.6610160">
        <ele>11.4</ele>
        <time>2021-05-23T11:35:28Z</time>
      </trkpt>
      <trkpt lat="42.7376220" lon="-8.6610160">
        <ele>11.4</ele>
        <time>2021-05-23T11:35:29Z</time>
      </trkpt>
      <trkpt lat="42.7376220" lon="-8.6610160">
        <ele>11.4</ele>
        <time>2021-05-23T11:35:30Z</time>
      </trkpt>
      <trkpt lat="42.7376220" lon="-8.6610160">
        <ele>11.4</ele>
        <time>2021-05-23T11:35:31Z</time>
      </trkpt>
      <trkpt lat="42.7376220" lon="-8.6610160">
        <ele>11.4</ele>
        <time>2021-05-23T11:35:32Z</time>
      </trkpt>
      <trkpt lat="42.7376210" lon="-8.6610160">
        <ele>11.4</ele>
        <time>2021-05-23T11:35:33Z</time>
      </trkpt>
      <trkpt lat="42.7376210" lon="-8.6610160">
        <ele>11.4</ele>
        <time>2021-05-23T11:35:34Z</time>
      </trkpt>
      <trkpt lat="42.7376210" lon="-8.6610160">
        <ele>11.4</ele>
        <time>2021-05-23T11:35:35Z</time>
      </trkpt>
      <trkpt lat="42.7376210" lon="-8.6610160">
        <ele>11.4</ele>
        <time>2021-05-23T11:35:36Z</time>
      </trkpt>
      <trkpt lat="42.7376210" lon="-8.6610160">
        <ele>11.4</ele>
        <time>2021-05-23T11:35:37Z</time>
      </trkpt>
      <trkpt lat="42.7376210" lon="-8.6610160">
        <ele>11.4</ele>
        <time>2021-05-23T11:35:38Z</time>
      </trkpt>
      <trkpt lat="42.7376210" lon="-8.6610160">
        <ele>11.4</ele>
        <time>2021-05-23T11:35:39Z</time>
      </trkpt>
      <trkpt lat="42.7376210" lon="-8.6610160">
        <ele>11.4</ele>
        <time>2021-05-23T11:35:40Z</time>
      </trkpt>
      <trkpt lat="42.7376210" lon="-8.6610160">
        <ele>11.4</ele>
        <time>2021-05-23T11:35:41Z</time>
      </trkpt>
      <trkpt lat="42.7376210" lon="-8.6610160">
        <ele>11.4</ele>
        <time>2021-05-23T11:35:42Z</time>
      </trkpt>
      <trkpt lat="42.7376210" lon="-8.6610160">
        <ele>11.4</ele>
        <time>2021-05-23T11:35:43Z</time>
      </trkpt>
      <trkpt lat="42.7376210" lon="-8.6610160">
        <ele>11.4</ele>
        <time>2021-05-23T11:35:44Z</time>
      </trkpt>
      <trkpt lat="42.7376200" lon="-8.6610160">
        <ele>11.4</ele>
        <time>2021-05-23T11:35:45Z</time>
      </trkpt>
      <trkpt lat="42.7376200" lon="-8.6610160">
        <ele>11.4</ele>
        <time>2021-05-23T11:35:46Z</time>
      </trkpt>
      <trkpt lat="42.7376200" lon="-8.6610160">
        <ele>11.4</ele>
        <time>2021-05-23T11:35:47Z</time>
      </trkpt>
      <trkpt lat="42.7376200" lon="-8.6610160">
        <ele>11.4</ele>
        <time>2021-05-23T11:35:48Z</time>
      </trkpt>
      <trkpt lat="42.7376200" lon="-8.6610160">
        <ele>11.4</ele>
        <time>2021-05-23T11:35:49Z</time>
      </trkpt>
      <trkpt lat="42.7376200" lon="-8.6610160">
        <ele>11.4</ele>
        <time>2021-05-23T11:35:50Z</time>
      </trkpt>
      <trkpt lat="42.7376200" lon="-8.6610160">
        <ele>11.4</ele>
        <time>2021-05-23T11:35:51Z</time>
      </trkpt>
      <trkpt lat="42.7376200" lon="-8.6610160">
        <ele>11.4</ele>
        <time>2021-05-23T11:35:52Z</time>
      </trkpt>
      <trkpt lat="42.7376200" lon="-8.6610160">
        <ele>11.4</ele>
        <time>2021-05-23T11:35:53Z</time>
      </trkpt>
      <trkpt lat="42.7376200" lon="-8.6610160">
        <ele>11.4</ele>
        <time>2021-05-23T11:35:54Z</time>
      </trkpt>
      <trkpt lat="42.7376200" lon="-8.6610160">
        <ele>11.4</ele>
        <time>2021-05-23T11:35:55Z</time>
      </trkpt>
      <trkpt lat="42.7376190" lon="-8.6610160">
        <ele>11.4</ele>
        <time>2021-05-23T11:35:56Z</time>
      </trkpt>
      <trkpt lat="42.7376190" lon="-8.6610160">
        <ele>11.4</ele>
        <time>2021-05-23T11:35:57Z</time>
      </trkpt>
      <trkpt lat="42.7376190" lon="-8.6610160">
        <ele>11.4</ele>
        <time>2021-05-23T11:35:58Z</time>
      </trkpt>
      <trkpt lat="42.7376190" lon="-8.6610160">
        <ele>11.4</ele>
        <time>2021-05-23T11:35:59Z</time>
      </trkpt>
      <trkpt lat="42.7376190" lon="-8.6610160">
        <ele>11.4</ele>
        <time>2021-05-23T11:36:00Z</time>
      </trkpt>
      <trkpt lat="42.7376190" lon="-8.6610160">
        <ele>11.4</ele>
        <time>2021-05-23T11:36:01Z</time>
      </trkpt>
      <trkpt lat="42.7376190" lon="-8.6610160">
        <ele>11.4</ele>
        <time>2021-05-23T11:36:02Z</time>
      </trkpt>
      <trkpt lat="42.7376190" lon="-8.6610160">
        <ele>11.4</ele>
        <time>2021-05-23T11:36:03Z</time>
      </trkpt>
      <trkpt lat="42.7376190" lon="-8.6610160">
        <ele>11.4</ele>
        <time>2021-05-23T11:36:04Z</time>
      </trkpt>
      <trkpt lat="42.7376190" lon="-8.6610160">
        <ele>11.4</ele>
        <time>2021-05-23T11:36:05Z</time>
      </trkpt>
      <trkpt lat="42.7376190" lon="-8.6610160">
        <ele>11.4</ele>
        <time>2021-05-23T11:36:06Z</time>
      </trkpt>
      <trkpt lat="42.7376190" lon="-8.6610160">
        <ele>11.4</ele>
        <time>2021-05-23T11:36:07Z</time>
      </trkpt>
      <trkpt lat="42.7376180" lon="-8.6610160">
        <ele>11.4</ele>
        <time>2021-05-23T11:36:08Z</time>
      </trkpt>
      <trkpt lat="42.7376180" lon="-8.6610160">
        <ele>11.4</ele>
        <time>2021-05-23T11:36:09Z</time>
      </trkpt>
      <trkpt lat="42.7376180" lon="-8.6610160">
        <ele>11.4</ele>
        <time>2021-05-23T11:36:10Z</time>
      </trkpt>
      <trkpt lat="42.7376180" lon="-8.6610160">
        <ele>11.4</ele>
        <time>2021-05-23T11:36:11Z</time>
      </trkpt>
      <trkpt lat="42.7376180" lon="-8.6610160">
        <ele>11.4</ele>
        <time>2021-05-23T11:36:12Z</time>
      </trkpt>
      <trkpt lat="42.7376180" lon="-8.6610160">
        <ele>11.4</ele>
        <time>2021-05-23T11:36:13Z</time>
      </trkpt>
      <trkpt lat="42.7376180" lon="-8.6610160">
        <ele>11.4</ele>
        <time>2021-05-23T11:36:14Z</time>
      </trkpt>
      <trkpt lat="42.7376180" lon="-8.6610160">
        <ele>11.4</ele>
        <time>2021-05-23T11:36:15Z</time>
      </trkpt>
      <trkpt lat="42.7376180" lon="-8.6610160">
        <ele>11.4</ele>
        <time>2021-05-23T11:36:16Z</time>
      </trkpt>
      <trkpt lat="42.7376180" lon="-8.6610160">
        <ele>11.4</ele>
        <time>2021-05-23T11:36:17Z</time>
      </trkpt>
      <trkpt lat="42.7376180" lon="-8.6610160">
        <ele>11.4</ele>
        <time>2021-05-23T11:36:18Z</time>
      </trkpt>
      <trkpt lat="42.7376180" lon="-8.6610160">
        <ele>11.4</ele>
        <time>2021-05-23T11:36:19Z</time>
      </trkpt>
      <trkpt lat="42.7376170" lon="-8.6610160">
        <ele>11.4</ele>
        <time>2021-05-23T11:36:20Z</time>
      </trkpt>
      <trkpt lat="42.7376170" lon="-8.6610150">
        <ele>11.4</ele>
        <time>2021-05-23T11:36:21Z</time>
      </trkpt>
      <trkpt lat="42.7376170" lon="-8.6610150">
        <ele>11.4</ele>
        <time>2021-05-23T11:36:22Z</time>
      </trkpt>
      <trkpt lat="42.7376170" lon="-8.6610150">
        <ele>11.4</ele>
        <time>2021-05-23T11:36:23Z</time>
      </trkpt>
      <trkpt lat="42.7376170" lon="-8.6610150">
        <ele>11.4</ele>
        <time>2021-05-23T11:36:24Z</time>
      </trkpt>
      <trkpt lat="42.7376170" lon="-8.6610150">
        <ele>11.4</ele>
        <time>2021-05-23T11:36:25Z</time>
      </trkpt>
      <trkpt lat="42.7376170" lon="-8.6610150">
        <ele>11.4</ele>
        <time>2021-05-23T11:36:26Z</time>
      </trkpt>
      <trkpt lat="42.7376170" lon="-8.6610150">
        <ele>11.4</ele>
        <time>2021-05-23T11:36:27Z</time>
      </trkpt>
      <trkpt lat="42.7376170" lon="-8.6610150">
        <ele>11.4</ele>
        <time>2021-05-23T11:36:28Z</time>
      </trkpt>
      <trkpt lat="42.7376170" lon="-8.6610150">
        <ele>11.4</ele>
        <time>2021-05-23T11:36:29Z</time>
      </trkpt>
      <trkpt lat="42.7376170" lon="-8.6610150">
        <ele>11.4</ele>
        <time>2021-05-23T11:36:30Z</time>
      </trkpt>
      <trkpt lat="42.7376160" lon="-8.6610150">
        <ele>11.4</ele>
        <time>2021-05-23T11:36:31Z</time>
      </trkpt>
      <trkpt lat="42.7376160" lon="-8.6610150">
        <ele>11.4</ele>
        <time>2021-05-23T11:36:32Z</time>
      </trkpt>
      <trkpt lat="42.7376160" lon="-8.6610150">
        <ele>11.4</ele>
        <time>2021-05-23T11:36:33Z</time>
      </trkpt>
      <trkpt lat="42.7376160" lon="-8.6610150">
        <ele>11.4</ele>
        <time>2021-05-23T11:36:34Z</time>
      </trkpt>
      <trkpt lat="42.7376160" lon="-8.6610150">
        <ele>11.4</ele>
        <time>2021-05-23T11:36:35Z</time>
      </trkpt>
      <trkpt lat="42.7376160" lon="-8.6610150">
        <ele>11.4</ele>
        <time>2021-05-23T11:36:36Z</time>
      </trkpt>
      <trkpt lat="42.7376160" lon="-8.6610150">
        <ele>11.4</ele>
        <time>2021-05-23T11:36:37Z</time>
      </trkpt>
      <trkpt lat="42.7376160" lon="-8.6610150">
        <ele>11.4</ele>
        <time>2021-05-23T11:36:38Z</time>
      </trkpt>
      <trkpt lat="42.7376160" lon="-8.6610150">
        <ele>11.4</ele>
        <time>2021-05-23T11:36:39Z</time>
      </trkpt>
      <trkpt lat="42.7376160" lon="-8.6610150">
        <ele>11.4</ele>
        <time>2021-05-23T11:36:40Z</time>
      </trkpt>
      <trkpt lat="42.7376160" lon="-8.6610150">
        <ele>11.4</ele>
        <time>2021-05-23T11:36:41Z</time>
      </trkpt>
      <trkpt lat="42.7376160" lon="-8.6610150">
        <ele>11.4</ele>
        <time>2021-05-23T11:36:42Z</time>
      </trkpt>
      <trkpt lat="42.7376150" lon="-8.6610150">
        <ele>11.4</ele>
        <time>2021-05-23T11:36:43Z</time>
      </trkpt>
      <trkpt lat="42.7376150" lon="-8.6610150">
        <ele>11.4</ele>
        <time>2021-05-23T11:36:44Z</time>
      </trkpt>
      <trkpt lat="42.7376150" lon="-8.6610150">
        <ele>11.4</ele>
        <time>2021-05-23T11:36:45Z</time>
      </trkpt>
      <trkpt lat="42.7376150" lon="-8.6610150">
        <ele>11.4</ele>
        <time>2021-05-23T11:36:46Z</time>
      </trkpt>
      <trkpt lat="42.7376150" lon="-8.6610150">
        <ele>11.4</ele>
        <time>2021-05-23T11:36:47Z</time>
      </trkpt>
      <trkpt lat="42.7376150" lon="-8.6610150">
        <ele>11.4</ele>
        <time>2021-05-23T11:36:48Z</time>
      </trkpt>
      <trkpt lat="42.7376150" lon="-8.6610150">
        <ele>11.4</ele>
        <time>2021-05-23T11:36:49Z</time>
      </trkpt>
      <trkpt lat="42.7376150" lon="-8.6610150">
        <ele>11.4</ele>
        <time>2021-05-23T11:36:50Z</time>
      </trkpt>
      <trkpt lat="42.7376150" lon="-8.6610150">
        <ele>11.4</ele>
        <time>2021-05-23T11:36:51Z</time>
      </trkpt>
      <trkpt lat="42.7376150" lon="-8.6610150">
        <ele>11.4</ele>
        <time>2021-05-23T11:36:52Z</time>
      </trkpt>
      <trkpt lat="42.7376150" lon="-8.6610150">
        <ele>11.4</ele>
        <time>2021-05-23T11:36:53Z</time>
      </trkpt>
      <trkpt lat="42.7376150" lon="-8.6610150">
        <ele>11.4</ele>
        <time>2021-05-23T11:36:54Z</time>
      </trkpt>
      <trkpt lat="42.7376140" lon="-8.6610150">
        <ele>11.4</ele>
        <time>2021-05-23T11:36:55Z</time>
      </trkpt>
      <trkpt lat="42.7376140" lon="-8.6610150">
        <ele>11.4</ele>
        <time>2021-05-23T11:36:56Z</time>
      </trkpt>
      <trkpt lat="42.7376140" lon="-8.6610150">
        <ele>11.4</ele>
        <time>2021-05-23T11:36:57Z</time>
      </trkpt>
      <trkpt lat="42.7376140" lon="-8.6610150">
        <ele>11.4</ele>
        <time>2021-05-23T11:36:58Z</time>
      </trkpt>
      <trkpt lat="42.7376140" lon="-8.6610150">
        <ele>11.4</ele>
        <time>2021-05-23T11:36:59Z</time>
      </trkpt>
      <trkpt lat="42.7376140" lon="-8.6610150">
        <ele>11.4</ele>
        <time>2021-05-23T11:37:00Z</time>
      </trkpt>
      <trkpt lat="42.7376140" lon="-8.6610150">
        <ele>11.4</ele>
        <time>2021-05-23T11:37:01Z</time>
      </trkpt>
      <trkpt lat="42.7376140" lon="-8.6610150">
        <ele>11.4</ele>
        <time>2021-05-23T11:37:02Z</time>
      </trkpt>
      <trkpt lat="42.7376140" lon="-8.6610150">
        <ele>11.4</ele>
        <time>2021-05-23T11:37:03Z</time>
      </trkpt>
      <trkpt lat="42.7376140" lon="-8.6610150">
        <ele>11.4</ele>
        <time>2021-05-23T11:37:04Z</time>
      </trkpt>
      <trkpt lat="42.7376140" lon="-8.6610150">
        <ele>11.4</ele>
        <time>2021-05-23T11:37:05Z</time>
      </trkpt>
      <trkpt lat="42.7376140" lon="-8.6610150">
        <ele>11.4</ele>
        <time>2021-05-23T11:37:06Z</time>
      </trkpt>
      <trkpt lat="42.7376140" lon="-8.6610150">
        <ele>11.4</ele>
        <time>2021-05-23T11:37:07Z</time>
      </trkpt>
      <trkpt lat="42.7376140" lon="-8.6610150">
        <ele>11.4</ele>
        <time>2021-05-23T11:37:08Z</time>
      </trkpt>
      <trkpt lat="42.7376140" lon="-8.6610150">
        <ele>11.4</ele>
        <time>2021-05-23T11:37:09Z</time>
      </trkpt>
      <trkpt lat="42.7376140" lon="-8.6610150">
        <ele>11.4</ele>
        <time>2021-05-23T11:37:10Z</time>
      </trkpt>
      <trkpt lat="42.7376140" lon="-8.6610150">
        <ele>11.4</ele>
        <time>2021-05-23T11:37:11Z</time>
      </trkpt>
      <trkpt lat="42.7376140" lon="-8.6610150">
        <ele>11.4</ele>
        <time>2021-05-23T11:37:12Z</time>
      </trkpt>
      <trkpt lat="42.7376140" lon="-8.6610150">
        <ele>11.4</ele>
        <time>2021-05-23T11:37:13Z</time>
      </trkpt>
      <trkpt lat="42.7376140" lon="-8.6610150">
        <ele>11.4</ele>
        <time>2021-05-23T11:37:14Z</time>
      </trkpt>
      <trkpt lat="42.7376140" lon="-8.6610150">
        <ele>11.4</ele>
        <time>2021-05-23T11:37:15Z</time>
      </trkpt>
      <trkpt lat="42.7376140" lon="-8.6610150">
        <ele>11.4</ele>
        <time>2021-05-23T11:37:16Z</time>
      </trkpt>
      <trkpt lat="42.7376140" lon="-8.6610150">
        <ele>11.4</ele>
        <time>2021-05-23T11:37:17Z</time>
      </trkpt>
      <trkpt lat="42.7376140" lon="-8.6610150">
        <ele>11.4</ele>
        <time>2021-05-23T11:37:18Z</time>
      </trkpt>
      <trkpt lat="42.7376140" lon="-8.6610150">
        <ele>11.4</ele>
        <time>2021-05-23T11:37:19Z</time>
      </trkpt>
      <trkpt lat="42.7376140" lon="-8.6610150">
        <ele>11.4</ele>
        <time>2021-05-23T11:37:20Z</time>
      </trkpt>
      <trkpt lat="42.7376140" lon="-8.6610150">
        <ele>11.4</ele>
        <time>2021-05-23T11:37:21Z</time>
      </trkpt>
      <trkpt lat="42.7376140" lon="-8.6610150">
        <ele>11.4</ele>
        <time>2021-05-23T11:37:22Z</time>
      </trkpt>
      <trkpt lat="42.7376140" lon="-8.6610150">
        <ele>11.4</ele>
        <time>2021-05-23T11:37:23Z</time>
      </trkpt>
      <trkpt lat="42.7376140" lon="-8.6610150">
        <ele>11.4</ele>
        <time>2021-05-23T11:37:24Z</time>
      </trkpt>
      <trkpt lat="42.7376140" lon="-8.6610150">
        <ele>11.4</ele>
        <time>2021-05-23T11:37:25Z</time>
      </trkpt>
      <trkpt lat="42.7376140" lon="-8.6610150">
        <ele>11.4</ele>
        <time>2021-05-23T11:37:26Z</time>
      </trkpt>
      <trkpt lat="42.7376140" lon="-8.6610150">
        <ele>11.4</ele>
        <time>2021-05-23T11:37:27Z</time>
      </trkpt>
      <trkpt lat="42.7376140" lon="-8.6610150">
        <ele>11.4</ele>
        <time>2021-05-23T11:37:28Z</time>
      </trkpt>
      <trkpt lat="42.7376140" lon="-8.6610150">
        <ele>11.4</ele>
        <time>2021-05-23T11:37:29Z</time>
      </trkpt>
      <trkpt lat="42.7376140" lon="-8.6610150">
        <ele>11.4</ele>
        <time>2021-05-23T11:37:30Z</time>
      </trkpt>
      <trkpt lat="42.7376140" lon="-8.6610150">
        <ele>11.4</ele>
        <time>2021-05-23T11:37:31Z</time>
      </trkpt>
      <trkpt lat="42.7376140" lon="-8.6610150">
        <ele>11.4</ele>
        <time>2021-05-23T11:37:32Z</time>
      </trkpt>
      <trkpt lat="42.7376140" lon="-8.6610150">
        <ele>11.4</ele>
        <time>2021-05-23T11:37:33Z</time>
      </trkpt>
      <trkpt lat="42.7376140" lon="-8.6610150">
        <ele>11.4</ele>
        <time>2021-05-23T11:37:34Z</time>
      </trkpt>
      <trkpt lat="42.7376140" lon="-8.6610150">
        <ele>11.4</ele>
        <time>2021-05-23T11:37:35Z</time>
      </trkpt>
      <trkpt lat="42.7376140" lon="-8.6610150">
        <ele>11.4</ele>
        <time>2021-05-23T11:37:36Z</time>
      </trkpt>
      <trkpt lat="42.7376140" lon="-8.6610150">
        <ele>11.4</ele>
        <time>2021-05-23T11:37:37Z</time>
      </trkpt>
      <trkpt lat="42.7376140" lon="-8.6610150">
        <ele>11.4</ele>
        <time>2021-05-23T11:37:38Z</time>
      </trkpt>
      <trkpt lat="42.7376140" lon="-8.6610150">
        <ele>11.4</ele>
        <time>2021-05-23T11:37:39Z</time>
      </trkpt>
      <trkpt lat="42.7376140" lon="-8.6610150">
        <ele>11.4</ele>
        <time>2021-05-23T11:37:40Z</time>
      </trkpt>
      <trkpt lat="42.7376140" lon="-8.6610150">
        <ele>11.4</ele>
        <time>2021-05-23T11:37:41Z</time>
      </trkpt>
      <trkpt lat="42.7376140" lon="-8.6610150">
        <ele>11.4</ele>
        <time>2021-05-23T11:37:42Z</time>
      </trkpt>
      <trkpt lat="42.7376140" lon="-8.6610150">
        <ele>11.4</ele>
        <time>2021-05-23T11:37:43Z</time>
      </trkpt>
      <trkpt lat="42.7376140" lon="-8.6610150">
        <ele>11.4</ele>
        <time>2021-05-23T11:37:44Z</time>
      </trkpt>
      <trkpt lat="42.7376140" lon="-8.6610150">
        <ele>11.4</ele>
        <time>2021-05-23T11:37:45Z</time>
      </trkpt>
      <trkpt lat="42.7376140" lon="-8.6610150">
        <ele>11.4</ele>
        <time>2021-05-23T11:37:46Z</time>
      </trkpt>
      <trkpt lat="42.7376140" lon="-8.6610150">
        <ele>11.4</ele>
        <time>2021-05-23T11:37:47Z</time>
      </trkpt>
      <trkpt lat="42.7376140" lon="-8.6610150">
        <ele>11.4</ele>
        <time>2021-05-23T11:37:48Z</time>
      </trkpt>
      <trkpt lat="42.7376140" lon="-8.6610150">
        <ele>11.4</ele>
        <time>2021-05-23T11:37:49Z</time>
      </trkpt>
      <trkpt lat="42.7376140" lon="-8.6610150">
        <ele>11.4</ele>
        <time>2021-05-23T11:37:50Z</time>
      </trkpt>
      <trkpt lat="42.7376140" lon="-8.6610150">
        <ele>11.4</ele>
        <time>2021-05-23T11:37:51Z</time>
      </trkpt>
      <trkpt lat="42.7376140" lon="-8.6610150">
        <ele>11.4</ele>
        <time>2021-05-23T11:37:52Z</time>
      </trkpt>
      <trkpt lat="42.7376140" lon="-8.6610150">
        <ele>11.4</ele>
        <time>2021-05-23T11:37:53Z</time>
      </trkpt>
      <trkpt lat="42.7376140" lon="-8.6610150">
        <ele>11.4</ele>
        <time>2021-05-23T11:37:54Z</time>
      </trkpt>
      <trkpt lat="42.7376140" lon="-8.6610150">
        <ele>11.4</ele>
        <time>2021-05-23T11:37:55Z</time>
      </trkpt>
      <trkpt lat="42.7376140" lon="-8.6610150">
        <ele>11.4</ele>
        <time>2021-05-23T11:37:56Z</time>
      </trkpt>
      <trkpt lat="42.7376140" lon="-8.6610150">
        <ele>11.4</ele>
        <time>2021-05-23T11:37:57Z</time>
      </trkpt>
      <trkpt lat="42.7376150" lon="-8.6609910">
        <ele>11.4</ele>
        <time>2021-05-23T11:37:58Z</time>
      </trkpt>
      <trkpt lat="42.7376130" lon="-8.6609910">
        <ele>11.4</ele>
        <time>2021-05-23T11:37:59Z</time>
      </trkpt>
      <trkpt lat="42.7376150" lon="-8.6609890">
        <ele>11.4</ele>
        <time>2021-05-23T11:38:00Z</time>
      </trkpt>
      <trkpt lat="42.7376180" lon="-8.6609910">
        <ele>11.4</ele>
        <time>2021-05-23T11:38:01Z</time>
      </trkpt>
      <trkpt lat="42.7376180" lon="-8.6609900">
        <ele>11.4</ele>
        <time>2021-05-23T11:38:02Z</time>
      </trkpt>
      <trkpt lat="42.7376190" lon="-8.6609880">
        <ele>11.4</ele>
        <time>2021-05-23T11:38:03Z</time>
      </trkpt>
      <trkpt lat="42.7376210" lon="-8.6609860">
        <ele>11.4</ele>
        <time>2021-05-23T11:38:04Z</time>
      </trkpt>
      <trkpt lat="42.7376230" lon="-8.6609890">
        <ele>11.4</ele>
        <time>2021-05-23T11:38:05Z</time>
      </trkpt>
      <trkpt lat="42.7376250" lon="-8.6609870">
        <ele>11.4</ele>
        <time>2021-05-23T11:38:06Z</time>
      </trkpt>
      <trkpt lat="42.7376190" lon="-8.6610020">
        <ele>11.4</ele>
        <time>2021-05-23T11:38:07Z</time>
      </trkpt>
      <trkpt lat="42.7376270" lon="-8.6609900">
        <ele>11.4</ele>
        <time>2021-05-23T11:38:08Z</time>
      </trkpt>
      <trkpt lat="42.7376270" lon="-8.6609900">
        <ele>11.4</ele>
        <time>2021-05-23T11:38:09Z</time>
      </trkpt>
      <trkpt lat="42.7376210" lon="-8.6609910">
        <ele>11.4</ele>
        <time>2021-05-23T11:38:10Z</time>
      </trkpt>
      <trkpt lat="42.7376230" lon="-8.6609900">
        <ele>11.4</ele>
        <time>2021-05-23T11:38:11Z</time>
      </trkpt>
      <trkpt lat="42.7376210" lon="-8.6609910">
        <ele>11.4</ele>
        <time>2021-05-23T11:38:12Z</time>
      </trkpt>
      <trkpt lat="42.7376230" lon="-8.6609930">
        <ele>11.4</ele>
        <time>2021-05-23T11:38:13Z</time>
      </trkpt>
      <trkpt lat="42.7376250" lon="-8.6610010">
        <ele>11.4</ele>
        <time>2021-05-23T11:38:14Z</time>
      </trkpt>
      <trkpt lat="42.7376210" lon="-8.6610010">
        <ele>11.4</ele>
        <time>2021-05-23T11:38:15Z</time>
      </trkpt>
      <trkpt lat="42.7376190" lon="-8.6609930">
        <ele>11.4</ele>
        <time>2021-05-23T11:38:16Z</time>
      </trkpt>
      <trkpt lat="42.7376150" lon="-8.6609950">
        <ele>11.4</ele>
        <time>2021-05-23T11:38:17Z</time>
      </trkpt>
      <trkpt lat="42.7376130" lon="-8.6609890">
        <ele>11.4</ele>
        <time>2021-05-23T11:38:18Z</time>
      </trkpt>
      <trkpt lat="42.7376130" lon="-8.6609820">
        <ele>11.4</ele>
        <time>2021-05-23T11:38:19Z</time>
      </trkpt>
      <trkpt lat="42.7376210" lon="-8.6609890">
        <ele>11.4</ele>
        <time>2021-05-23T11:38:20Z</time>
      </trkpt>
      <trkpt lat="42.7376200" lon="-8.6609900">
        <ele>11.4</ele>
        <time>2021-05-23T11:38:21Z</time>
      </trkpt>
      <trkpt lat="42.7376150" lon="-8.6609890">
        <ele>11.4</ele>
        <time>2021-05-23T11:38:22Z</time>
      </trkpt>
      <trkpt lat="42.7376200" lon="-8.6609770">
        <ele>11.4</ele>
        <time>2021-05-23T11:38:23Z</time>
      </trkpt>
      <trkpt lat="42.7376270" lon="-8.6609890">
        <ele>11.4</ele>
        <time>2021-05-23T11:38:24Z</time>
      </trkpt>
      <trkpt lat="42.7376330" lon="-8.6609940">
        <ele>11.4</ele>
        <time>2021-05-23T11:38:25Z</time>
      </trkpt>
      <trkpt lat="42.7376380" lon="-8.6609990">
        <ele>11.4</ele>
        <time>2021-05-23T11:38:26Z</time>
      </trkpt>
      <trkpt lat="42.7376430" lon="-8.6610050">
        <ele>11.4</ele>
        <time>2021-05-23T11:38:27Z</time>
      </trkpt>
      <trkpt lat="42.7376490" lon="-8.6610100">
        <ele>11.4</ele>
        <time>2021-05-23T11:38:28Z</time>
      </trkpt>
      <trkpt lat="42.7376540" lon="-8.6610150">
        <ele>11.4</ele>
        <time>2021-05-23T11:38:29Z</time>
      </trkpt>
      <trkpt lat="42.7376620" lon="-8.6610170">
        <ele>11.4</ele>
        <time>2021-05-23T11:38:30Z</time>
      </trkpt>
      <trkpt lat="42.7376660" lon="-8.6610110">
        <ele>11.4</ele>
        <time>2021-05-23T11:38:31Z</time>
      </trkpt>
      <trkpt lat="42.7376680" lon="-8.6610200">
        <ele>11.4</ele>
        <time>2021-05-23T11:38:32Z</time>
      </trkpt>
      <trkpt lat="42.7376740" lon="-8.6610300">
        <ele>11.3</ele>
        <time>2021-05-23T11:38:33Z</time>
      </trkpt>
      <trkpt lat="42.7376780" lon="-8.6610380">
        <ele>11.3</ele>
        <time>2021-05-23T11:38:34Z</time>
      </trkpt>
      <trkpt lat="42.7376700" lon="-8.6610270">
        <ele>11.3</ele>
        <time>2021-05-23T11:38:35Z</time>
      </trkpt>
      <trkpt lat="42.7376610" lon="-8.6610120">
        <ele>11.3</ele>
        <time>2021-05-23T11:38:36Z</time>
      </trkpt>
      <trkpt lat="42.7376640" lon="-8.6610160">
        <ele>11.3</ele>
        <time>2021-05-23T11:38:37Z</time>
      </trkpt>
      <trkpt lat="42.7376640" lon="-8.6610310">
        <ele>11.3</ele>
        <time>2021-05-23T11:38:38Z</time>
      </trkpt>
      <trkpt lat="42.7376680" lon="-8.6610410">
        <ele>11.3</ele>
        <time>2021-05-23T11:38:39Z</time>
      </trkpt>
      <trkpt lat="42.7376690" lon="-8.6610460">
        <ele>11.3</ele>
        <time>2021-05-23T11:38:40Z</time>
      </trkpt>
      <trkpt lat="42.7376720" lon="-8.6610490">
        <ele>11.3</ele>
        <time>2021-05-23T11:38:41Z</time>
      </trkpt>
      <trkpt lat="42.7376750" lon="-8.6610530">
        <ele>11.3</ele>
        <time>2021-05-23T11:38:42Z</time>
      </trkpt>
      <trkpt lat="42.7376790" lon="-8.6610560">
        <ele>11.3</ele>
        <time>2021-05-23T11:38:43Z</time>
      </trkpt>
      <trkpt lat="42.7376830" lon="-8.6610570">
        <ele>11.3</ele>
        <time>2021-05-23T11:38:44Z</time>
      </trkpt>
      <trkpt lat="42.7376870" lon="-8.6610620">
        <ele>11.3</ele>
        <time>2021-05-23T11:38:45Z</time>
      </trkpt>
      <trkpt lat="42.7376880" lon="-8.6610510">
        <ele>11.3</ele>
        <time>2021-05-23T11:38:46Z</time>
      </trkpt>
      <trkpt lat="42.7376830" lon="-8.6610420">
        <ele>11.3</ele>
        <time>2021-05-23T11:38:47Z</time>
      </trkpt>
      <trkpt lat="42.7376780" lon="-8.6610330">
        <ele>11.3</ele>
        <time>2021-05-23T11:38:48Z</time>
      </trkpt>
      <trkpt lat="42.7376770" lon="-8.6610320">
        <ele>11.3</ele>
        <time>2021-05-23T11:38:49Z</time>
      </trkpt>
      <trkpt lat="42.7376790" lon="-8.6610290">
        <ele>11.3</ele>
        <time>2021-05-23T11:38:50Z</time>
      </trkpt>
      <trkpt lat="42.7376790" lon="-8.6610270">
        <ele>11.3</ele>
        <time>2021-05-23T11:38:51Z</time>
      </trkpt>
      <trkpt lat="42.7376810" lon="-8.6610180">
        <ele>11.3</ele>
        <time>2021-05-23T11:38:52Z</time>
      </trkpt>
      <trkpt lat="42.7376790" lon="-8.6610180">
        <ele>11.3</ele>
        <time>2021-05-23T11:38:53Z</time>
      </trkpt>
      <trkpt lat="42.7376750" lon="-8.6610040">
        <ele>11.3</ele>
        <time>2021-05-23T11:38:54Z</time>
      </trkpt>
      <trkpt lat="42.7376750" lon="-8.6610050">
        <ele>11.3</ele>
        <time>2021-05-23T11:38:55Z</time>
      </trkpt>
      <trkpt lat="42.7376730" lon="-8.6610090">
        <ele>11.3</ele>
        <time>2021-05-23T11:38:56Z</time>
      </trkpt>
      <trkpt lat="42.7376710" lon="-8.6610090">
        <ele>11.3</ele>
        <time>2021-05-23T11:38:57Z</time>
      </trkpt>
      <trkpt lat="42.7376780" lon="-8.6610040">
        <ele>11.3</ele>
        <time>2021-05-23T11:38:58Z</time>
      </trkpt>
      <trkpt lat="42.7376800" lon="-8.6609990">
        <ele>11.3</ele>
        <time>2021-05-23T11:38:59Z</time>
      </trkpt>
      <trkpt lat="42.7376820" lon="-8.6610040">
        <ele>11.3</ele>
        <time>2021-05-23T11:39:00Z</time>
      </trkpt>
      <trkpt lat="42.7376810" lon="-8.6610050">
        <ele>11.3</ele>
        <time>2021-05-23T11:39:01Z</time>
      </trkpt>
      <trkpt lat="42.7376790" lon="-8.6610070">
        <ele>11.3</ele>
        <time>2021-05-23T11:39:02Z</time>
      </trkpt>
      <trkpt lat="42.7376780" lon="-8.6610090">
        <ele>11.3</ele>
        <time>2021-05-23T11:39:03Z</time>
      </trkpt>
      <trkpt lat="42.7376770" lon="-8.6610110">
        <ele>11.3</ele>
        <time>2021-05-23T11:39:04Z</time>
      </trkpt>
      <trkpt lat="42.7376760" lon="-8.6610120">
        <ele>11.3</ele>
        <time>2021-05-23T11:39:05Z</time>
      </trkpt>
      <trkpt lat="42.7376740" lon="-8.6610140">
        <ele>11.3</ele>
        <time>2021-05-23T11:39:06Z</time>
      </trkpt>
      <trkpt lat="42.7376730" lon="-8.6610160">
        <ele>11.3</ele>
        <time>2021-05-23T11:39:07Z</time>
      </trkpt>
      <trkpt lat="42.7376720" lon="-8.6610180">
        <ele>11.3</ele>
        <time>2021-05-23T11:39:08Z</time>
      </trkpt>
      <trkpt lat="42.7376710" lon="-8.6610190">
        <ele>11.3</ele>
        <time>2021-05-23T11:39:09Z</time>
      </trkpt>
      <trkpt lat="42.7376690" lon="-8.6610210">
        <ele>11.3</ele>
        <time>2021-05-23T11:39:10Z</time>
      </trkpt>
      <trkpt lat="42.7376680" lon="-8.6610230">
        <ele>11.3</ele>
        <time>2021-05-23T11:39:11Z</time>
      </trkpt>
      <trkpt lat="42.7376670" lon="-8.6610250">
        <ele>11.3</ele>
        <time>2021-05-23T11:39:12Z</time>
      </trkpt>
      <trkpt lat="42.7376660" lon="-8.6610260">
        <ele>11.3</ele>
        <time>2021-05-23T11:39:13Z</time>
      </trkpt>
      <trkpt lat="42.7376650" lon="-8.6610280">
        <ele>11.3</ele>
        <time>2021-05-23T11:39:14Z</time>
      </trkpt>
      <trkpt lat="42.7376630" lon="-8.6610300">
        <ele>11.3</ele>
        <time>2021-05-23T11:39:15Z</time>
      </trkpt>
      <trkpt lat="42.7376620" lon="-8.6610310">
        <ele>11.3</ele>
        <time>2021-05-23T11:39:16Z</time>
      </trkpt>
      <trkpt lat="42.7376610" lon="-8.6610330">
        <ele>11.3</ele>
        <time>2021-05-23T11:39:17Z</time>
      </trkpt>
      <trkpt lat="42.7376600" lon="-8.6610350">
        <ele>11.3</ele>
        <time>2021-05-23T11:39:18Z</time>
      </trkpt>
      <trkpt lat="42.7376580" lon="-8.6610370">
        <ele>11.3</ele>
        <time>2021-05-23T11:39:19Z</time>
      </trkpt>
      <trkpt lat="42.7376570" lon="-8.6610380">
        <ele>11.3</ele>
        <time>2021-05-23T11:39:20Z</time>
      </trkpt>
      <trkpt lat="42.7376560" lon="-8.6610400">
        <ele>11.3</ele>
        <time>2021-05-23T11:39:21Z</time>
      </trkpt>
      <trkpt lat="42.7376550" lon="-8.6610420">
        <ele>11.3</ele>
        <time>2021-05-23T11:39:22Z</time>
      </trkpt>
      <trkpt lat="42.7376530" lon="-8.6610440">
        <ele>11.3</ele>
        <time>2021-05-23T11:39:23Z</time>
      </trkpt>
      <trkpt lat="42.7376520" lon="-8.6610450">
        <ele>11.3</ele>
        <time>2021-05-23T11:39:24Z</time>
      </trkpt>
      <trkpt lat="42.7376510" lon="-8.6610470">
        <ele>11.3</ele>
        <time>2021-05-23T11:39:25Z</time>
      </trkpt>
      <trkpt lat="42.7376500" lon="-8.6610490">
        <ele>11.3</ele>
        <time>2021-05-23T11:39:26Z</time>
      </trkpt>
      <trkpt lat="42.7376480" lon="-8.6610510">
        <ele>11.3</ele>
        <time>2021-05-23T11:39:27Z</time>
      </trkpt>
      <trkpt lat="42.7376470" lon="-8.6610520">
        <ele>11.3</ele>
        <time>2021-05-23T11:39:28Z</time>
      </trkpt>
      <trkpt lat="42.7376460" lon="-8.6610540">
        <ele>11.3</ele>
        <time>2021-05-23T11:39:29Z</time>
      </trkpt>
      <trkpt lat="42.7376460" lon="-8.6610540">
        <ele>11.3</ele>
        <time>2021-05-23T11:39:30Z</time>
      </trkpt>
      <trkpt lat="42.7376460" lon="-8.6610580">
        <ele>11.3</ele>
        <time>2021-05-23T11:39:31Z</time>
      </trkpt>
      <trkpt lat="42.7376460" lon="-8.6610580">
        <ele>11.3</ele>
        <time>2021-05-23T11:39:32Z</time>
      </trkpt>
      <trkpt lat="42.7376460" lon="-8.6610580">
        <ele>11.3</ele>
        <time>2021-05-23T11:39:33Z</time>
      </trkpt>
      <trkpt lat="42.7376460" lon="-8.6610580">
        <ele>11.3</ele>
        <time>2021-05-23T11:39:34Z</time>
      </trkpt>
      <trkpt lat="42.7376460" lon="-8.6610580">
        <ele>11.3</ele>
        <time>2021-05-23T11:39:35Z</time>
      </trkpt>
      <trkpt lat="42.7376460" lon="-8.6610580">
        <ele>11.3</ele>
        <time>2021-05-23T11:39:36Z</time>
      </trkpt>
      <trkpt lat="42.7376460" lon="-8.6610580">
        <ele>11.3</ele>
        <time>2021-05-23T11:39:37Z</time>
      </trkpt>
      <trkpt lat="42.7376460" lon="-8.6610580">
        <ele>11.3</ele>
        <time>2021-05-23T11:39:38Z</time>
      </trkpt>
      <trkpt lat="42.7376460" lon="-8.6610580">
        <ele>11.3</ele>
        <time>2021-05-23T11:39:39Z</time>
      </trkpt>
      <trkpt lat="42.7376460" lon="-8.6610580">
        <ele>11.3</ele>
        <time>2021-05-23T11:39:40Z</time>
      </trkpt>
      <trkpt lat="42.7376460" lon="-8.6610580">
        <ele>11.3</ele>
        <time>2021-05-23T11:39:41Z</time>
      </trkpt>
      <trkpt lat="42.7376460" lon="-8.6610580">
        <ele>11.3</ele>
        <time>2021-05-23T11:39:42Z</time>
      </trkpt>
      <trkpt lat="42.7376460" lon="-8.6610580">
        <ele>11.3</ele>
        <time>2021-05-23T11:39:43Z</time>
      </trkpt>
      <trkpt lat="42.7376460" lon="-8.6610580">
        <ele>11.3</ele>
        <time>2021-05-23T11:39:44Z</time>
      </trkpt>
      <trkpt lat="42.7376460" lon="-8.6610580">
        <ele>11.3</ele>
        <time>2021-05-23T11:39:45Z</time>
      </trkpt>
      <trkpt lat="42.7376460" lon="-8.6610580">
        <ele>11.3</ele>
        <time>2021-05-23T11:39:46Z</time>
      </trkpt>
      <trkpt lat="42.7376460" lon="-8.6610580">
        <ele>11.3</ele>
        <time>2021-05-23T11:39:47Z</time>
      </trkpt>
      <trkpt lat="42.7376460" lon="-8.6610580">
        <ele>11.3</ele>
        <time>2021-05-23T11:39:48Z</time>
      </trkpt>
      <trkpt lat="42.7376460" lon="-8.6610580">
        <ele>11.3</ele>
        <time>2021-05-23T11:39:49Z</time>
      </trkpt>
      <trkpt lat="42.7376460" lon="-8.6610580">
        <ele>11.3</ele>
        <time>2021-05-23T11:39:51Z</time>
      </trkpt>
      <trkpt lat="42.7376460" lon="-8.6610580">
        <ele>11.3</ele>
        <time>2021-05-23T11:39:52Z</time>
      </trkpt>
      <trkpt lat="42.7376460" lon="-8.6610580">
        <ele>11.3</ele>
        <time>2021-05-23T11:39:53Z</time>
      </trkpt>
      <trkpt lat="42.7376460" lon="-8.6610580">
        <ele>11.3</ele>
        <time>2021-05-23T11:39:54Z</time>
      </trkpt>
      <trkpt lat="42.7376460" lon="-8.6610580">
        <ele>11.3</ele>
        <time>2021-05-23T11:39:55Z</time>
      </trkpt>
      <trkpt lat="42.7376460" lon="-8.6610580">
        <ele>11.3</ele>
        <time>2021-05-23T11:39:56Z</time>
      </trkpt>
      <trkpt lat="42.7376460" lon="-8.6610580">
        <ele>11.3</ele>
        <time>2021-05-23T11:39:57Z</time>
      </trkpt>
      <trkpt lat="42.7376460" lon="-8.6610580">
        <ele>11.3</ele>
        <time>2021-05-23T11:39:58Z</time>
      </trkpt>
      <trkpt lat="42.7376460" lon="-8.6610580">
        <ele>11.3</ele>
        <time>2021-05-23T11:39:59Z</time>
      </trkpt>
      <trkpt lat="42.7376460" lon="-8.6610580">
        <ele>11.3</ele>
        <time>2021-05-23T11:40:00Z</time>
      </trkpt>
      <trkpt lat="42.7376460" lon="-8.6610580">
        <ele>11.3</ele>
        <time>2021-05-23T11:40:01Z</time>
      </trkpt>
      <trkpt lat="42.7376460" lon="-8.6610580">
        <ele>11.3</ele>
        <time>2021-05-23T11:40:02Z</time>
      </trkpt>
      <trkpt lat="42.7376460" lon="-8.6610580">
        <ele>11.3</ele>
        <time>2021-05-23T11:40:03Z</time>
      </trkpt>
      <trkpt lat="42.7376460" lon="-8.6610580">
        <ele>11.3</ele>
        <time>2021-05-23T11:40:04Z</time>
      </trkpt>
      <trkpt lat="42.7376460" lon="-8.6610580">
        <ele>11.3</ele>
        <time>2021-05-23T11:40:05Z</time>
      </trkpt>
      <trkpt lat="42.7376460" lon="-8.6610580">
        <ele>11.3</ele>
        <time>2021-05-23T11:40:06Z</time>
      </trkpt>
      <trkpt lat="42.7376460" lon="-8.6610580">
        <ele>11.3</ele>
        <time>2021-05-23T11:40:07Z</time>
      </trkpt>
      <trkpt lat="42.7376460" lon="-8.6610580">
        <ele>11.3</ele>
        <time>2021-05-23T11:40:08Z</time>
      </trkpt>
      <trkpt lat="42.7376460" lon="-8.6610580">
        <ele>11.3</ele>
        <time>2021-05-23T11:40:09Z</time>
      </trkpt>
      <trkpt lat="42.7376460" lon="-8.6610580">
        <ele>11.3</ele>
        <time>2021-05-23T11:40:10Z</time>
      </trkpt>
      <trkpt lat="42.7376460" lon="-8.6610580">
        <ele>11.3</ele>
        <time>2021-05-23T11:40:11Z</time>
      </trkpt>
      <trkpt lat="42.7376460" lon="-8.6610580">
        <ele>11.3</ele>
        <time>2021-05-23T11:40:12Z</time>
      </trkpt>
      <trkpt lat="42.7376360" lon="-8.6610540">
        <ele>11.3</ele>
        <time>2021-05-23T11:40:13Z</time>
      </trkpt>
      <trkpt lat="42.7376360" lon="-8.6610540">
        <ele>11.3</ele>
        <time>2021-05-23T11:40:14Z</time>
      </trkpt>
      <trkpt lat="42.7376360" lon="-8.6610540">
        <ele>11.3</ele>
        <time>2021-05-23T11:40:15Z</time>
      </trkpt>
      <trkpt lat="42.7376320" lon="-8.6610560">
        <ele>11.3</ele>
        <time>2021-05-23T11:40:16Z</time>
      </trkpt>
      <trkpt lat="42.7376320" lon="-8.6610560">
        <ele>11.3</ele>
        <time>2021-05-23T11:40:17Z</time>
      </trkpt>
      <trkpt lat="42.7376320" lon="-8.6610560">
        <ele>11.3</ele>
        <time>2021-05-23T11:40:18Z</time>
      </trkpt>
      <trkpt lat="42.7376320" lon="-8.6610560">
        <ele>11.3</ele>
        <time>2021-05-23T11:40:19Z</time>
      </trkpt>
      <trkpt lat="42.7376320" lon="-8.6610560">
        <ele>11.3</ele>
        <time>2021-05-23T11:40:20Z</time>
      </trkpt>
      <trkpt lat="42.7376320" lon="-8.6610560">
        <ele>11.3</ele>
        <time>2021-05-23T11:40:21Z</time>
      </trkpt>
      <trkpt lat="42.7376320" lon="-8.6610560">
        <ele>11.3</ele>
        <time>2021-05-23T11:40:22Z</time>
      </trkpt>
      <trkpt lat="42.7376320" lon="-8.6610560">
        <ele>11.3</ele>
        <time>2021-05-23T11:40:23Z</time>
      </trkpt>
      <trkpt lat="42.7376320" lon="-8.6610560">
        <ele>11.3</ele>
        <time>2021-05-23T11:40:24Z</time>
      </trkpt>
      <trkpt lat="42.7376320" lon="-8.6610560">
        <ele>11.3</ele>
        <time>2021-05-23T11:40:25Z</time>
      </trkpt>
      <trkpt lat="42.7376320" lon="-8.6610560">
        <ele>11.3</ele>
        <time>2021-05-23T11:40:26Z</time>
      </trkpt>
      <trkpt lat="42.7376320" lon="-8.6610560">
        <ele>11.3</ele>
        <time>2021-05-23T11:40:27Z</time>
      </trkpt>
      <trkpt lat="42.7376320" lon="-8.6610560">
        <ele>11.3</ele>
        <time>2021-05-23T11:40:28Z</time>
      </trkpt>
      <trkpt lat="42.7376320" lon="-8.6610560">
        <ele>11.3</ele>
        <time>2021-05-23T11:40:29Z</time>
      </trkpt>
      <trkpt lat="42.7376320" lon="-8.6610560">
        <ele>11.3</ele>
        <time>2021-05-23T11:40:30Z</time>
      </trkpt>
      <trkpt lat="42.7376320" lon="-8.6610560">
        <ele>11.3</ele>
        <time>2021-05-23T11:40:31Z</time>
      </trkpt>
      <trkpt lat="42.7376320" lon="-8.6610560">
        <ele>11.3</ele>
        <time>2021-05-23T11:40:32Z</time>
      </trkpt>
      <trkpt lat="42.7376320" lon="-8.6610560">
        <ele>11.3</ele>
        <time>2021-05-23T11:40:33Z</time>
      </trkpt>
      <trkpt lat="42.7376320" lon="-8.6610560">
        <ele>11.3</ele>
        <time>2021-05-23T11:40:34Z</time>
      </trkpt>
      <trkpt lat="42.7376320" lon="-8.6610560">
        <ele>11.3</ele>
        <time>2021-05-23T11:40:35Z</time>
      </trkpt>
      <trkpt lat="42.7376320" lon="-8.6610560">
        <ele>11.3</ele>
        <time>2021-05-23T11:40:36Z</time>
      </trkpt>
      <trkpt lat="42.7376320" lon="-8.6610560">
        <ele>11.3</ele>
        <time>2021-05-23T11:40:37Z</time>
      </trkpt>
      <trkpt lat="42.7376320" lon="-8.6610560">
        <ele>11.3</ele>
        <time>2021-05-23T11:40:38Z</time>
      </trkpt>
      <trkpt lat="42.7376320" lon="-8.6610560">
        <ele>11.3</ele>
        <time>2021-05-23T11:40:39Z</time>
      </trkpt>
      <trkpt lat="42.7376320" lon="-8.6610560">
        <ele>11.3</ele>
        <time>2021-05-23T11:40:40Z</time>
      </trkpt>
      <trkpt lat="42.7376320" lon="-8.6610560">
        <ele>11.3</ele>
        <time>2021-05-23T11:40:41Z</time>
      </trkpt>
      <trkpt lat="42.7376320" lon="-8.6610560">
        <ele>11.3</ele>
        <time>2021-05-23T11:40:42Z</time>
      </trkpt>
      <trkpt lat="42.7376320" lon="-8.6610560">
        <ele>11.3</ele>
        <time>2021-05-23T11:40:43Z</time>
      </trkpt>
      <trkpt lat="42.7376320" lon="-8.6610560">
        <ele>11.3</ele>
        <time>2021-05-23T11:40:44Z</time>
      </trkpt>
      <trkpt lat="42.7376320" lon="-8.6610560">
        <ele>11.3</ele>
        <time>2021-05-23T11:40:45Z</time>
      </trkpt>
      <trkpt lat="42.7376320" lon="-8.6610560">
        <ele>11.3</ele>
        <time>2021-05-23T11:40:46Z</time>
      </trkpt>
      <trkpt lat="42.7376320" lon="-8.6610560">
        <ele>11.3</ele>
        <time>2021-05-23T11:40:47Z</time>
      </trkpt>
      <trkpt lat="42.7376320" lon="-8.6610560">
        <ele>11.3</ele>
        <time>2021-05-23T11:40:48Z</time>
      </trkpt>
      <trkpt lat="42.7376320" lon="-8.6610560">
        <ele>11.3</ele>
        <time>2021-05-23T11:40:49Z</time>
      </trkpt>
      <trkpt lat="42.7376320" lon="-8.6610560">
        <ele>11.3</ele>
        <time>2021-05-23T11:40:50Z</time>
      </trkpt>
      <trkpt lat="42.7376320" lon="-8.6610560">
        <ele>11.3</ele>
        <time>2021-05-23T11:40:51Z</time>
      </trkpt>
      <trkpt lat="42.7376320" lon="-8.6610560">
        <ele>11.3</ele>
        <time>2021-05-23T11:40:52Z</time>
      </trkpt>
      <trkpt lat="42.7376320" lon="-8.6610560">
        <ele>11.3</ele>
        <time>2021-05-23T11:40:53Z</time>
      </trkpt>
      <trkpt lat="42.7376320" lon="-8.6610560">
        <ele>11.3</ele>
        <time>2021-05-23T11:40:54Z</time>
      </trkpt>
      <trkpt lat="42.7376320" lon="-8.6610560">
        <ele>11.3</ele>
        <time>2021-05-23T11:40:55Z</time>
      </trkpt>
      <trkpt lat="42.7376320" lon="-8.6610560">
        <ele>11.3</ele>
        <time>2021-05-23T11:40:56Z</time>
      </trkpt>
      <trkpt lat="42.7376320" lon="-8.6610560">
        <ele>11.3</ele>
        <time>2021-05-23T11:40:57Z</time>
      </trkpt>
      <trkpt lat="42.7376320" lon="-8.6610560">
        <ele>11.3</ele>
        <time>2021-05-23T11:40:58Z</time>
      </trkpt>
      <trkpt lat="42.7376320" lon="-8.6610560">
        <ele>11.3</ele>
        <time>2021-05-23T11:40:59Z</time>
      </trkpt>
      <trkpt lat="42.7376430" lon="-8.6610380">
        <ele>11.3</ele>
        <time>2021-05-23T11:41:00Z</time>
      </trkpt>
      <trkpt lat="42.7376430" lon="-8.6610370">
        <ele>11.3</ele>
        <time>2021-05-23T11:41:01Z</time>
      </trkpt>
      <trkpt lat="42.7376430" lon="-8.6610370">
        <ele>11.3</ele>
        <time>2021-05-23T11:41:02Z</time>
      </trkpt>
      <trkpt lat="42.7376430" lon="-8.6610370">
        <ele>11.3</ele>
        <time>2021-05-23T11:41:03Z</time>
      </trkpt>
      <trkpt lat="42.7376430" lon="-8.6610370">
        <ele>11.3</ele>
        <time>2021-05-23T11:41:04Z</time>
      </trkpt>
      <trkpt lat="42.7376430" lon="-8.6610370">
        <ele>11.3</ele>
        <time>2021-05-23T11:41:05Z</time>
      </trkpt>
      <trkpt lat="42.7376430" lon="-8.6610370">
        <ele>11.3</ele>
        <time>2021-05-23T11:41:06Z</time>
      </trkpt>
      <trkpt lat="42.7376430" lon="-8.6610370">
        <ele>11.3</ele>
        <time>2021-05-23T11:41:07Z</time>
      </trkpt>
      <trkpt lat="42.7376430" lon="-8.6610370">
        <ele>11.3</ele>
        <time>2021-05-23T11:41:08Z</time>
      </trkpt>
      <trkpt lat="42.7376430" lon="-8.6610370">
        <ele>11.3</ele>
        <time>2021-05-23T11:41:09Z</time>
      </trkpt>
      <trkpt lat="42.7376430" lon="-8.6610370">
        <ele>11.3</ele>
        <time>2021-05-23T11:41:10Z</time>
      </trkpt>
      <trkpt lat="42.7376430" lon="-8.6610370">
        <ele>11.3</ele>
        <time>2021-05-23T11:41:11Z</time>
      </trkpt>
      <trkpt lat="42.7376430" lon="-8.6610370">
        <ele>11.3</ele>
        <time>2021-05-23T11:41:12Z</time>
      </trkpt>
      <trkpt lat="42.7376430" lon="-8.6610370">
        <ele>11.3</ele>
        <time>2021-05-23T11:41:13Z</time>
      </trkpt>
      <trkpt lat="42.7376430" lon="-8.6610370">
        <ele>11.3</ele>
        <time>2021-05-23T11:41:14Z</time>
      </trkpt>
      <trkpt lat="42.7376430" lon="-8.6610370">
        <ele>11.3</ele>
        <time>2021-05-23T11:41:15Z</time>
      </trkpt>
      <trkpt lat="42.7376430" lon="-8.6610370">
        <ele>11.3</ele>
        <time>2021-05-23T11:41:16Z</time>
      </trkpt>
      <trkpt lat="42.7376430" lon="-8.6610370">
        <ele>11.3</ele>
        <time>2021-05-23T11:41:17Z</time>
      </trkpt>
      <trkpt lat="42.7376430" lon="-8.6610370">
        <ele>11.3</ele>
        <time>2021-05-23T11:41:18Z</time>
      </trkpt>
      <trkpt lat="42.7376430" lon="-8.6610370">
        <ele>11.3</ele>
        <time>2021-05-23T11:41:19Z</time>
      </trkpt>
      <trkpt lat="42.7376430" lon="-8.6610370">
        <ele>11.3</ele>
        <time>2021-05-23T11:41:20Z</time>
      </trkpt>
      <trkpt lat="42.7376430" lon="-8.6610370">
        <ele>11.3</ele>
        <time>2021-05-23T11:41:21Z</time>
      </trkpt>
      <trkpt lat="42.7376430" lon="-8.6610370">
        <ele>11.3</ele>
        <time>2021-05-23T11:41:22Z</time>
      </trkpt>
      <trkpt lat="42.7376430" lon="-8.6610370">
        <ele>11.3</ele>
        <time>2021-05-23T11:41:23Z</time>
      </trkpt>
      <trkpt lat="42.7376430" lon="-8.6610370">
        <ele>11.3</ele>
        <time>2021-05-23T11:41:24Z</time>
      </trkpt>
      <trkpt lat="42.7376430" lon="-8.6610370">
        <ele>11.3</ele>
        <time>2021-05-23T11:41:25Z</time>
      </trkpt>
      <trkpt lat="42.7376430" lon="-8.6610370">
        <ele>11.3</ele>
        <time>2021-05-23T11:41:26Z</time>
      </trkpt>
      <trkpt lat="42.7376430" lon="-8.6610370">
        <ele>11.3</ele>
        <time>2021-05-23T11:41:27Z</time>
      </trkpt>
      <trkpt lat="42.7376430" lon="-8.6610370">
        <ele>11.3</ele>
        <time>2021-05-23T11:41:28Z</time>
      </trkpt>
      <trkpt lat="42.7376430" lon="-8.6610370">
        <ele>11.3</ele>
        <time>2021-05-23T11:41:29Z</time>
      </trkpt>
      <trkpt lat="42.7376430" lon="-8.6610370">
        <ele>11.3</ele>
        <time>2021-05-23T11:41:30Z</time>
      </trkpt>
      <trkpt lat="42.7376430" lon="-8.6610370">
        <ele>11.3</ele>
        <time>2021-05-23T11:41:31Z</time>
      </trkpt>
      <trkpt lat="42.7376430" lon="-8.6610370">
        <ele>11.3</ele>
        <time>2021-05-23T11:41:32Z</time>
      </trkpt>
      <trkpt lat="42.7376430" lon="-8.6610370">
        <ele>11.3</ele>
        <time>2021-05-23T11:41:33Z</time>
      </trkpt>
      <trkpt lat="42.7376430" lon="-8.6610370">
        <ele>11.3</ele>
        <time>2021-05-23T11:41:34Z</time>
      </trkpt>
      <trkpt lat="42.7376430" lon="-8.6610370">
        <ele>11.3</ele>
        <time>2021-05-23T11:41:35Z</time>
      </trkpt>
      <trkpt lat="42.7376430" lon="-8.6610370">
        <ele>11.3</ele>
        <time>2021-05-23T11:41:36Z</time>
      </trkpt>
      <trkpt lat="42.7376430" lon="-8.6610370">
        <ele>11.3</ele>
        <time>2021-05-23T11:41:37Z</time>
      </trkpt>
      <trkpt lat="42.7376430" lon="-8.6610370">
        <ele>11.3</ele>
        <time>2021-05-23T11:41:38Z</time>
      </trkpt>
      <trkpt lat="42.7376430" lon="-8.6610370">
        <ele>11.3</ele>
        <time>2021-05-23T11:41:39Z</time>
      </trkpt>
      <trkpt lat="42.7376430" lon="-8.6610370">
        <ele>11.3</ele>
        <time>2021-05-23T11:41:40Z</time>
      </trkpt>
      <trkpt lat="42.7376430" lon="-8.6610370">
        <ele>11.3</ele>
        <time>2021-05-23T11:41:41Z</time>
      </trkpt>
      <trkpt lat="42.7376430" lon="-8.6610370">
        <ele>11.3</ele>
        <time>2021-05-23T11:41:42Z</time>
      </trkpt>
      <trkpt lat="42.7376430" lon="-8.6610370">
        <ele>11.3</ele>
        <time>2021-05-23T11:41:43Z</time>
      </trkpt>
      <trkpt lat="42.7376430" lon="-8.6610370">
        <ele>11.3</ele>
        <time>2021-05-23T11:41:44Z</time>
      </trkpt>
      <trkpt lat="42.7376430" lon="-8.6610370">
        <ele>11.3</ele>
        <time>2021-05-23T11:41:45Z</time>
      </trkpt>
      <trkpt lat="42.7376430" lon="-8.6610370">
        <ele>11.3</ele>
        <time>2021-05-23T11:41:46Z</time>
      </trkpt>
      <trkpt lat="42.7376210" lon="-8.6610260">
        <ele>11.3</ele>
        <time>2021-05-23T11:41:47Z</time>
      </trkpt>
      <trkpt lat="42.7376210" lon="-8.6610250">
        <ele>11.3</ele>
        <time>2021-05-23T11:41:48Z</time>
      </trkpt>
      <trkpt lat="42.7376210" lon="-8.6610250">
        <ele>11.3</ele>
        <time>2021-05-23T11:41:49Z</time>
      </trkpt>
      <trkpt lat="42.7376210" lon="-8.6610250">
        <ele>11.3</ele>
        <time>2021-05-23T11:41:50Z</time>
      </trkpt>
      <trkpt lat="42.7376210" lon="-8.6610250">
        <ele>11.3</ele>
        <time>2021-05-23T11:41:51Z</time>
      </trkpt>
      <trkpt lat="42.7376210" lon="-8.6610250">
        <ele>11.3</ele>
        <time>2021-05-23T11:41:52Z</time>
      </trkpt>
      <trkpt lat="42.7376210" lon="-8.6610250">
        <ele>11.3</ele>
        <time>2021-05-23T11:41:53Z</time>
      </trkpt>
      <trkpt lat="42.7376210" lon="-8.6610250">
        <ele>11.3</ele>
        <time>2021-05-23T11:41:54Z</time>
      </trkpt>
      <trkpt lat="42.7376210" lon="-8.6610250">
        <ele>11.3</ele>
        <time>2021-05-23T11:41:55Z</time>
      </trkpt>
      <trkpt lat="42.7376210" lon="-8.6610250">
        <ele>11.3</ele>
        <time>2021-05-23T11:41:56Z</time>
      </trkpt>
      <trkpt lat="42.7376210" lon="-8.6610250">
        <ele>11.3</ele>
        <time>2021-05-23T11:41:57Z</time>
      </trkpt>
      <trkpt lat="42.7376210" lon="-8.6610250">
        <ele>11.3</ele>
        <time>2021-05-23T11:41:58Z</time>
      </trkpt>
      <trkpt lat="42.7376210" lon="-8.6610250">
        <ele>11.3</ele>
        <time>2021-05-23T11:41:59Z</time>
      </trkpt>
      <trkpt lat="42.7376210" lon="-8.6610250">
        <ele>11.3</ele>
        <time>2021-05-23T11:42:00Z</time>
      </trkpt>
      <trkpt lat="42.7376150" lon="-8.6610300">
        <ele>11.3</ele>
        <time>2021-05-23T11:42:01Z</time>
      </trkpt>
      <trkpt lat="42.7376150" lon="-8.6610300">
        <ele>11.3</ele>
        <time>2021-05-23T11:42:02Z</time>
      </trkpt>
      <trkpt lat="42.7376150" lon="-8.6610300">
        <ele>11.3</ele>
        <time>2021-05-23T11:42:03Z</time>
      </trkpt>
      <trkpt lat="42.7376150" lon="-8.6610300">
        <ele>11.3</ele>
        <time>2021-05-23T11:42:04Z</time>
      </trkpt>
      <trkpt lat="42.7376150" lon="-8.6610300">
        <ele>11.3</ele>
        <time>2021-05-23T11:42:05Z</time>
      </trkpt>
      <trkpt lat="42.7376150" lon="-8.6610300">
        <ele>11.3</ele>
        <time>2021-05-23T11:42:06Z</time>
      </trkpt>
      <trkpt lat="42.7376150" lon="-8.6610300">
        <ele>11.3</ele>
        <time>2021-05-23T11:42:07Z</time>
      </trkpt>
      <trkpt lat="42.7376150" lon="-8.6610300">
        <ele>11.3</ele>
        <time>2021-05-23T11:42:08Z</time>
      </trkpt>
      <trkpt lat="42.7376150" lon="-8.6610300">
        <ele>11.3</ele>
        <time>2021-05-23T11:42:09Z</time>
      </trkpt>
      <trkpt lat="42.7376150" lon="-8.6610300">
        <ele>11.3</ele>
        <time>2021-05-23T11:42:10Z</time>
      </trkpt>
      <trkpt lat="42.7376150" lon="-8.6610300">
        <ele>11.3</ele>
        <time>2021-05-23T11:42:11Z</time>
      </trkpt>
      <trkpt lat="42.7376150" lon="-8.6610300">
        <ele>11.3</ele>
        <time>2021-05-23T11:42:12Z</time>
      </trkpt>
      <trkpt lat="42.7376150" lon="-8.6610300">
        <ele>11.3</ele>
        <time>2021-05-23T11:42:13Z</time>
      </trkpt>
      <trkpt lat="42.7376150" lon="-8.6610300">
        <ele>11.3</ele>
        <time>2021-05-23T11:42:14Z</time>
      </trkpt>
      <trkpt lat="42.7376150" lon="-8.6610300">
        <ele>11.3</ele>
        <time>2021-05-23T11:42:15Z</time>
      </trkpt>
      <trkpt lat="42.7376150" lon="-8.6610300">
        <ele>11.3</ele>
        <time>2021-05-23T11:42:16Z</time>
      </trkpt>
      <trkpt lat="42.7376150" lon="-8.6610300">
        <ele>11.3</ele>
        <time>2021-05-23T11:42:17Z</time>
      </trkpt>
      <trkpt lat="42.7376150" lon="-8.6610300">
        <ele>11.3</ele>
        <time>2021-05-23T11:42:18Z</time>
      </trkpt>
      <trkpt lat="42.7376150" lon="-8.6610300">
        <ele>11.3</ele>
        <time>2021-05-23T11:42:19Z</time>
      </trkpt>
      <trkpt lat="42.7376150" lon="-8.6610300">
        <ele>11.3</ele>
        <time>2021-05-23T11:42:20Z</time>
      </trkpt>
      <trkpt lat="42.7376150" lon="-8.6610300">
        <ele>11.3</ele>
        <time>2021-05-23T11:42:21Z</time>
      </trkpt>
      <trkpt lat="42.7376150" lon="-8.6610300">
        <ele>11.3</ele>
        <time>2021-05-23T11:42:22Z</time>
      </trkpt>
      <trkpt lat="42.7376150" lon="-8.6610300">
        <ele>11.3</ele>
        <time>2021-05-23T11:42:23Z</time>
      </trkpt>
      <trkpt lat="42.7376150" lon="-8.6610300">
        <ele>11.3</ele>
        <time>2021-05-23T11:42:24Z</time>
      </trkpt>
      <trkpt lat="42.7376150" lon="-8.6610300">
        <ele>11.3</ele>
        <time>2021-05-23T11:42:25Z</time>
      </trkpt>
      <trkpt lat="42.7376150" lon="-8.6610300">
        <ele>11.3</ele>
        <time>2021-05-23T11:42:26Z</time>
      </trkpt>
      <trkpt lat="42.7376150" lon="-8.6610300">
        <ele>11.3</ele>
        <time>2021-05-23T11:42:27Z</time>
      </trkpt>
      <trkpt lat="42.7376150" lon="-8.6610300">
        <ele>11.3</ele>
        <time>2021-05-23T11:42:28Z</time>
      </trkpt>
      <trkpt lat="42.7376150" lon="-8.6610300">
        <ele>11.3</ele>
        <time>2021-05-23T11:42:29Z</time>
      </trkpt>
      <trkpt lat="42.7376150" lon="-8.6610300">
        <ele>11.3</ele>
        <time>2021-05-23T11:42:30Z</time>
      </trkpt>
      <trkpt lat="42.7376150" lon="-8.6610300">
        <ele>11.3</ele>
        <time>2021-05-23T11:42:32Z</time>
      </trkpt>
      <trkpt lat="42.7376150" lon="-8.6610300">
        <ele>11.3</ele>
        <time>2021-05-23T11:42:33Z</time>
      </trkpt>
      <trkpt lat="42.7376150" lon="-8.6610300">
        <ele>11.3</ele>
        <time>2021-05-23T11:42:34Z</time>
      </trkpt>
      <trkpt lat="42.7376150" lon="-8.6610300">
        <ele>11.3</ele>
        <time>2021-05-23T11:42:35Z</time>
      </trkpt>
      <trkpt lat="42.7376150" lon="-8.6610300">
        <ele>11.3</ele>
        <time>2021-05-23T11:42:36Z</time>
      </trkpt>
      <trkpt lat="42.7376150" lon="-8.6610300">
        <ele>11.3</ele>
        <time>2021-05-23T11:42:37Z</time>
      </trkpt>
      <trkpt lat="42.7376150" lon="-8.6610300">
        <ele>11.3</ele>
        <time>2021-05-23T11:42:38Z</time>
      </trkpt>
      <trkpt lat="42.7376280" lon="-8.6610390">
        <ele>11.3</ele>
        <time>2021-05-23T11:42:39Z</time>
      </trkpt>
      <trkpt lat="42.7376280" lon="-8.6610390">
        <ele>11.3</ele>
        <time>2021-05-23T11:42:40Z</time>
      </trkpt>
      <trkpt lat="42.7376280" lon="-8.6610390">
        <ele>11.3</ele>
        <time>2021-05-23T11:42:41Z</time>
      </trkpt>
      <trkpt lat="42.7376280" lon="-8.6610390">
        <ele>11.3</ele>
        <time>2021-05-23T11:42:42Z</time>
      </trkpt>
      <trkpt lat="42.7376280" lon="-8.6610390">
        <ele>11.3</ele>
        <time>2021-05-23T11:42:43Z</time>
      </trkpt>
      <trkpt lat="42.7376320" lon="-8.6610430">
        <ele>11.3</ele>
        <time>2021-05-23T11:42:44Z</time>
      </trkpt>
      <trkpt lat="42.7376330" lon="-8.6610430">
        <ele>11.3</ele>
        <time>2021-05-23T11:42:45Z</time>
      </trkpt>
      <trkpt lat="42.7376330" lon="-8.6610430">
        <ele>11.3</ele>
        <time>2021-05-23T11:42:46Z</time>
      </trkpt>
      <trkpt lat="42.7376330" lon="-8.6610430">
        <ele>11.3</ele>
        <time>2021-05-23T11:42:47Z</time>
      </trkpt>
      <trkpt lat="42.7376330" lon="-8.6610430">
        <ele>11.3</ele>
        <time>2021-05-23T11:42:48Z</time>
      </trkpt>
      <trkpt lat="42.7376330" lon="-8.6610430">
        <ele>11.3</ele>
        <time>2021-05-23T11:42:49Z</time>
      </trkpt>
      <trkpt lat="42.7376330" lon="-8.6610430">
        <ele>11.3</ele>
        <time>2021-05-23T11:42:50Z</time>
      </trkpt>
      <trkpt lat="42.7376330" lon="-8.6610430">
        <ele>11.3</ele>
        <time>2021-05-23T11:42:51Z</time>
      </trkpt>
      <trkpt lat="42.7376330" lon="-8.6610430">
        <ele>11.3</ele>
        <time>2021-05-23T11:42:52Z</time>
      </trkpt>
      <trkpt lat="42.7376330" lon="-8.6610430">
        <ele>11.3</ele>
        <time>2021-05-23T11:42:53Z</time>
      </trkpt>
      <trkpt lat="42.7376330" lon="-8.6610430">
        <ele>11.3</ele>
        <time>2021-05-23T11:42:54Z</time>
      </trkpt>
      <trkpt lat="42.7376330" lon="-8.6610430">
        <ele>11.3</ele>
        <time>2021-05-23T11:42:55Z</time>
      </trkpt>
      <trkpt lat="42.7376330" lon="-8.6610430">
        <ele>11.3</ele>
        <time>2021-05-23T11:42:56Z</time>
      </trkpt>
      <trkpt lat="42.7376330" lon="-8.6610430">
        <ele>11.3</ele>
        <time>2021-05-23T11:42:57Z</time>
      </trkpt>
      <trkpt lat="42.7376330" lon="-8.6610430">
        <ele>11.3</ele>
        <time>2021-05-23T11:42:58Z</time>
      </trkpt>
      <trkpt lat="42.7376330" lon="-8.6610430">
        <ele>11.3</ele>
        <time>2021-05-23T11:42:59Z</time>
      </trkpt>
      <trkpt lat="42.7376330" lon="-8.6610430">
        <ele>11.3</ele>
        <time>2021-05-23T11:43:00Z</time>
      </trkpt>
      <trkpt lat="42.7376330" lon="-8.6610430">
        <ele>11.3</ele>
        <time>2021-05-23T11:43:01Z</time>
      </trkpt>
      <trkpt lat="42.7376330" lon="-8.6610430">
        <ele>11.3</ele>
        <time>2021-05-23T11:43:02Z</time>
      </trkpt>
      <trkpt lat="42.7376330" lon="-8.6610430">
        <ele>11.3</ele>
        <time>2021-05-23T11:43:03Z</time>
      </trkpt>
      <trkpt lat="42.7376330" lon="-8.6610430">
        <ele>11.3</ele>
        <time>2021-05-23T11:43:04Z</time>
      </trkpt>
      <trkpt lat="42.7376330" lon="-8.6610430">
        <ele>11.3</ele>
        <time>2021-05-23T11:43:05Z</time>
      </trkpt>
      <trkpt lat="42.7376330" lon="-8.6610430">
        <ele>11.3</ele>
        <time>2021-05-23T11:43:06Z</time>
      </trkpt>
      <trkpt lat="42.7376330" lon="-8.6610430">
        <ele>11.3</ele>
        <time>2021-05-23T11:43:07Z</time>
      </trkpt>
      <trkpt lat="42.7376330" lon="-8.6610430">
        <ele>11.3</ele>
        <time>2021-05-23T11:43:08Z</time>
      </trkpt>
      <trkpt lat="42.7376330" lon="-8.6610430">
        <ele>11.3</ele>
        <time>2021-05-23T11:43:09Z</time>
      </trkpt>
      <trkpt lat="42.7376330" lon="-8.6610430">
        <ele>11.3</ele>
        <time>2021-05-23T11:43:10Z</time>
      </trkpt>
      <trkpt lat="42.7376330" lon="-8.6610430">
        <ele>11.3</ele>
        <time>2021-05-23T11:43:11Z</time>
      </trkpt>
      <trkpt lat="42.7376330" lon="-8.6610430">
        <ele>11.3</ele>
        <time>2021-05-23T11:43:12Z</time>
      </trkpt>
      <trkpt lat="42.7376330" lon="-8.6610430">
        <ele>11.3</ele>
        <time>2021-05-23T11:43:13Z</time>
      </trkpt>
      <trkpt lat="42.7376330" lon="-8.6610430">
        <ele>11.3</ele>
        <time>2021-05-23T11:43:14Z</time>
      </trkpt>
      <trkpt lat="42.7376330" lon="-8.6610430">
        <ele>11.3</ele>
        <time>2021-05-23T11:43:15Z</time>
      </trkpt>
      <trkpt lat="42.7376330" lon="-8.6610430">
        <ele>11.3</ele>
        <time>2021-05-23T11:43:16Z</time>
      </trkpt>
      <trkpt lat="42.7376330" lon="-8.6610430">
        <ele>11.3</ele>
        <time>2021-05-23T11:43:17Z</time>
      </trkpt>
      <trkpt lat="42.7376330" lon="-8.6610430">
        <ele>11.3</ele>
        <time>2021-05-23T11:43:18Z</time>
      </trkpt>
      <trkpt lat="42.7376330" lon="-8.6610430">
        <ele>11.3</ele>
        <time>2021-05-23T11:43:19Z</time>
      </trkpt>
      <trkpt lat="42.7376330" lon="-8.6610430">
        <ele>11.3</ele>
        <time>2021-05-23T11:43:20Z</time>
      </trkpt>
      <trkpt lat="42.7376330" lon="-8.6610430">
        <ele>11.3</ele>
        <time>2021-05-23T11:43:21Z</time>
      </trkpt>
      <trkpt lat="42.7376330" lon="-8.6610430">
        <ele>11.3</ele>
        <time>2021-05-23T11:43:22Z</time>
      </trkpt>
      <trkpt lat="42.7376330" lon="-8.6610430">
        <ele>11.3</ele>
        <time>2021-05-23T11:43:23Z</time>
      </trkpt>
      <trkpt lat="42.7376330" lon="-8.6610430">
        <ele>11.3</ele>
        <time>2021-05-23T11:43:24Z</time>
      </trkpt>
      <trkpt lat="42.7376330" lon="-8.6610430">
        <ele>11.3</ele>
        <time>2021-05-23T11:43:25Z</time>
      </trkpt>
      <trkpt lat="42.7376330" lon="-8.6610430">
        <ele>11.3</ele>
        <time>2021-05-23T11:43:26Z</time>
      </trkpt>
      <trkpt lat="42.7376330" lon="-8.6610430">
        <ele>11.3</ele>
        <time>2021-05-23T11:43:27Z</time>
      </trkpt>
      <trkpt lat="42.7376330" lon="-8.6610430">
        <ele>11.3</ele>
        <time>2021-05-23T11:43:28Z</time>
      </trkpt>
      <trkpt lat="42.7376330" lon="-8.6610430">
        <ele>11.3</ele>
        <time>2021-05-23T11:43:29Z</time>
      </trkpt>
      <trkpt lat="42.7376330" lon="-8.6610430">
        <ele>11.3</ele>
        <time>2021-05-23T11:43:30Z</time>
      </trkpt>
      <trkpt lat="42.7376330" lon="-8.6610430">
        <ele>11.3</ele>
        <time>2021-05-23T11:43:31Z</time>
      </trkpt>
      <trkpt lat="42.7376450" lon="-8.6610400">
        <ele>11.3</ele>
        <time>2021-05-23T11:43:32Z</time>
      </trkpt>
      <trkpt lat="42.7376450" lon="-8.6610400">
        <ele>11.3</ele>
        <time>2021-05-23T11:43:33Z</time>
      </trkpt>
      <trkpt lat="42.7376450" lon="-8.6610400">
        <ele>11.3</ele>
        <time>2021-05-23T11:43:34Z</time>
      </trkpt>
      <trkpt lat="42.7376450" lon="-8.6610400">
        <ele>11.3</ele>
        <time>2021-05-23T11:43:35Z</time>
      </trkpt>
      <trkpt lat="42.7376450" lon="-8.6610400">
        <ele>11.3</ele>
        <time>2021-05-23T11:43:36Z</time>
      </trkpt>
      <trkpt lat="42.7376450" lon="-8.6610400">
        <ele>11.3</ele>
        <time>2021-05-23T11:43:37Z</time>
      </trkpt>
      <trkpt lat="42.7376450" lon="-8.6610400">
        <ele>11.3</ele>
        <time>2021-05-23T11:43:38Z</time>
      </trkpt>
      <trkpt lat="42.7376450" lon="-8.6610400">
        <ele>11.3</ele>
        <time>2021-05-23T11:43:39Z</time>
      </trkpt>
      <trkpt lat="42.7376450" lon="-8.6610400">
        <ele>11.3</ele>
        <time>2021-05-23T11:43:40Z</time>
      </trkpt>
      <trkpt lat="42.7376450" lon="-8.6610400">
        <ele>11.3</ele>
        <time>2021-05-23T11:43:41Z</time>
      </trkpt>
      <trkpt lat="42.7376450" lon="-8.6610400">
        <ele>11.3</ele>
        <time>2021-05-23T11:43:42Z</time>
      </trkpt>
      <trkpt lat="42.7376450" lon="-8.6610400">
        <ele>11.3</ele>
        <time>2021-05-23T11:43:43Z</time>
      </trkpt>
      <trkpt lat="42.7376450" lon="-8.6610400">
        <ele>11.3</ele>
        <time>2021-05-23T11:43:44Z</time>
      </trkpt>
      <trkpt lat="42.7376450" lon="-8.6610400">
        <ele>11.3</ele>
        <time>2021-05-23T11:43:45Z</time>
      </trkpt>
      <trkpt lat="42.7376450" lon="-8.6610400">
        <ele>11.3</ele>
        <time>2021-05-23T11:43:46Z</time>
      </trkpt>
      <trkpt lat="42.7376450" lon="-8.6610400">
        <ele>11.3</ele>
        <time>2021-05-23T11:43:47Z</time>
      </trkpt>
      <trkpt lat="42.7376450" lon="-8.6610400">
        <ele>11.3</ele>
        <time>2021-05-23T11:43:48Z</time>
      </trkpt>
      <trkpt lat="42.7376450" lon="-8.6610400">
        <ele>11.3</ele>
        <time>2021-05-23T11:43:49Z</time>
      </trkpt>
      <trkpt lat="42.7376450" lon="-8.6610400">
        <ele>11.3</ele>
        <time>2021-05-23T11:43:50Z</time>
      </trkpt>
      <trkpt lat="42.7376450" lon="-8.6610400">
        <ele>11.3</ele>
        <time>2021-05-23T11:43:51Z</time>
      </trkpt>
      <trkpt lat="42.7376450" lon="-8.6610400">
        <ele>11.3</ele>
        <time>2021-05-23T11:43:52Z</time>
      </trkpt>
      <trkpt lat="42.7376450" lon="-8.6610400">
        <ele>11.3</ele>
        <time>2021-05-23T11:43:53Z</time>
      </trkpt>
      <trkpt lat="42.7376450" lon="-8.6610400">
        <ele>11.3</ele>
        <time>2021-05-23T11:43:54Z</time>
      </trkpt>
      <trkpt lat="42.7376450" lon="-8.6610400">
        <ele>11.3</ele>
        <time>2021-05-23T11:43:55Z</time>
      </trkpt>
      <trkpt lat="42.7376450" lon="-8.6610400">
        <ele>11.3</ele>
        <time>2021-05-23T11:43:56Z</time>
      </trkpt>
      <trkpt lat="42.7376450" lon="-8.6610400">
        <ele>11.3</ele>
        <time>2021-05-23T11:43:57Z</time>
      </trkpt>
      <trkpt lat="42.7376450" lon="-8.6610400">
        <ele>11.3</ele>
        <time>2021-05-23T11:43:58Z</time>
      </trkpt>
      <trkpt lat="42.7376450" lon="-8.6610400">
        <ele>11.3</ele>
        <time>2021-05-23T11:43:59Z</time>
      </trkpt>
      <trkpt lat="42.7376450" lon="-8.6610400">
        <ele>11.3</ele>
        <time>2021-05-23T11:44:00Z</time>
      </trkpt>
      <trkpt lat="42.7376450" lon="-8.6610400">
        <ele>11.3</ele>
        <time>2021-05-23T11:44:01Z</time>
      </trkpt>
      <trkpt lat="42.7376450" lon="-8.6610400">
        <ele>11.3</ele>
        <time>2021-05-23T11:44:02Z</time>
      </trkpt>
      <trkpt lat="42.7376450" lon="-8.6610400">
        <ele>11.3</ele>
        <time>2021-05-23T11:44:03Z</time>
      </trkpt>
      <trkpt lat="42.7376450" lon="-8.6610400">
        <ele>11.3</ele>
        <time>2021-05-23T11:44:04Z</time>
      </trkpt>
      <trkpt lat="42.7376450" lon="-8.6610400">
        <ele>11.3</ele>
        <time>2021-05-23T11:44:05Z</time>
      </trkpt>
      <trkpt lat="42.7376450" lon="-8.6610400">
        <ele>11.3</ele>
        <time>2021-05-23T11:44:06Z</time>
      </trkpt>
      <trkpt lat="42.7376450" lon="-8.6610400">
        <ele>11.3</ele>
        <time>2021-05-23T11:44:07Z</time>
      </trkpt>
      <trkpt lat="42.7376450" lon="-8.6610400">
        <ele>11.3</ele>
        <time>2021-05-23T11:44:08Z</time>
      </trkpt>
      <trkpt lat="42.7376450" lon="-8.6610400">
        <ele>11.3</ele>
        <time>2021-05-23T11:44:09Z</time>
      </trkpt>
      <trkpt lat="42.7376450" lon="-8.6610400">
        <ele>11.3</ele>
        <time>2021-05-23T11:44:10Z</time>
      </trkpt>
      <trkpt lat="42.7376450" lon="-8.6610400">
        <ele>11.3</ele>
        <time>2021-05-23T11:44:11Z</time>
      </trkpt>
      <trkpt lat="42.7376450" lon="-8.6610400">
        <ele>11.3</ele>
        <time>2021-05-23T11:44:12Z</time>
      </trkpt>
      <trkpt lat="42.7376450" lon="-8.6610400">
        <ele>11.3</ele>
        <time>2021-05-23T11:44:13Z</time>
      </trkpt>
      <trkpt lat="42.7376450" lon="-8.6610400">
        <ele>11.3</ele>
        <time>2021-05-23T11:44:14Z</time>
      </trkpt>
      <trkpt lat="42.7376450" lon="-8.6610400">
        <ele>11.3</ele>
        <time>2021-05-23T11:44:15Z</time>
      </trkpt>
      <trkpt lat="42.7376450" lon="-8.6610400">
        <ele>11.3</ele>
        <time>2021-05-23T11:44:16Z</time>
      </trkpt>
      <trkpt lat="42.7376450" lon="-8.6610400">
        <ele>11.3</ele>
        <time>2021-05-23T11:44:17Z</time>
      </trkpt>
      <trkpt lat="42.7376450" lon="-8.6610400">
        <ele>11.3</ele>
        <time>2021-05-23T11:44:18Z</time>
      </trkpt>
      <trkpt lat="42.7376450" lon="-8.6610400">
        <ele>11.3</ele>
        <time>2021-05-23T11:44:19Z</time>
      </trkpt>
      <trkpt lat="42.7376450" lon="-8.6610400">
        <ele>11.3</ele>
        <time>2021-05-23T11:44:20Z</time>
      </trkpt>
      <trkpt lat="42.7376450" lon="-8.6610400">
        <ele>11.3</ele>
        <time>2021-05-23T11:44:21Z</time>
      </trkpt>
      <trkpt lat="42.7376450" lon="-8.6610400">
        <ele>11.3</ele>
        <time>2021-05-23T11:44:22Z</time>
      </trkpt>
      <trkpt lat="42.7376450" lon="-8.6610400">
        <ele>11.3</ele>
        <time>2021-05-23T11:44:23Z</time>
      </trkpt>
      <trkpt lat="42.7376450" lon="-8.6610400">
        <ele>11.3</ele>
        <time>2021-05-23T11:44:25Z</time>
      </trkpt>
      <trkpt lat="42.7376450" lon="-8.6610400">
        <ele>11.3</ele>
        <time>2021-05-23T11:44:26Z</time>
      </trkpt>
      <trkpt lat="42.7376450" lon="-8.6610400">
        <ele>11.3</ele>
        <time>2021-05-23T11:44:27Z</time>
      </trkpt>
      <trkpt lat="42.7376450" lon="-8.6610400">
        <ele>11.3</ele>
        <time>2021-05-23T11:44:28Z</time>
      </trkpt>
      <trkpt lat="42.7376450" lon="-8.6610400">
        <ele>11.3</ele>
        <time>2021-05-23T11:44:29Z</time>
      </trkpt>
      <trkpt lat="42.7376450" lon="-8.6610400">
        <ele>11.3</ele>
        <time>2021-05-23T11:44:30Z</time>
      </trkpt>
      <trkpt lat="42.7376450" lon="-8.6610400">
        <ele>11.3</ele>
        <time>2021-05-23T11:44:31Z</time>
      </trkpt>
      <trkpt lat="42.7376450" lon="-8.6610400">
        <ele>11.3</ele>
        <time>2021-05-23T11:44:33Z</time>
      </trkpt>
      <trkpt lat="42.7376450" lon="-8.6610400">
        <ele>11.3</ele>
        <time>2021-05-23T11:44:34Z</time>
      </trkpt>
      <trkpt lat="42.7376450" lon="-8.6610400">
        <ele>11.3</ele>
        <time>2021-05-23T11:44:35Z</time>
      </trkpt>
      <trkpt lat="42.7376450" lon="-8.6610400">
        <ele>11.3</ele>
        <time>2021-05-23T11:44:36Z</time>
      </trkpt>
      <trkpt lat="42.7376450" lon="-8.6610400">
        <ele>11.3</ele>
        <time>2021-05-23T11:44:37Z</time>
      </trkpt>
      <trkpt lat="42.7376430" lon="-8.6610170">
        <ele>11.3</ele>
        <time>2021-05-23T11:44:38Z</time>
      </trkpt>
      <trkpt lat="42.7376430" lon="-8.6610170">
        <ele>11.3</ele>
        <time>2021-05-23T11:44:39Z</time>
      </trkpt>
      <trkpt lat="42.7376430" lon="-8.6610170">
        <ele>11.3</ele>
        <time>2021-05-23T11:44:40Z</time>
      </trkpt>
      <trkpt lat="42.7376430" lon="-8.6610170">
        <ele>11.3</ele>
        <time>2021-05-23T11:44:41Z</time>
      </trkpt>
      <trkpt lat="42.7376430" lon="-8.6610170">
        <ele>11.3</ele>
        <time>2021-05-23T11:44:42Z</time>
      </trkpt>
      <trkpt lat="42.7376430" lon="-8.6610170">
        <ele>11.3</ele>
        <time>2021-05-23T11:44:43Z</time>
      </trkpt>
      <trkpt lat="42.7376430" lon="-8.6610170">
        <ele>11.3</ele>
        <time>2021-05-23T11:44:44Z</time>
      </trkpt>
      <trkpt lat="42.7376430" lon="-8.6610170">
        <ele>11.3</ele>
        <time>2021-05-23T11:44:45Z</time>
      </trkpt>
      <trkpt lat="42.7376430" lon="-8.6610170">
        <ele>11.3</ele>
        <time>2021-05-23T11:44:46Z</time>
      </trkpt>
      <trkpt lat="42.7376430" lon="-8.6610170">
        <ele>11.3</ele>
        <time>2021-05-23T11:44:47Z</time>
      </trkpt>
      <trkpt lat="42.7376430" lon="-8.6610170">
        <ele>11.3</ele>
        <time>2021-05-23T11:44:48Z</time>
      </trkpt>
      <trkpt lat="42.7376430" lon="-8.6610170">
        <ele>11.3</ele>
        <time>2021-05-23T11:44:49Z</time>
      </trkpt>
      <trkpt lat="42.7376430" lon="-8.6610170">
        <ele>11.3</ele>
        <time>2021-05-23T11:44:50Z</time>
      </trkpt>
      <trkpt lat="42.7376430" lon="-8.6610170">
        <ele>11.3</ele>
        <time>2021-05-23T11:44:51Z</time>
      </trkpt>
      <trkpt lat="42.7376430" lon="-8.6610170">
        <ele>11.3</ele>
        <time>2021-05-23T11:44:52Z</time>
      </trkpt>
      <trkpt lat="42.7376430" lon="-8.6610170">
        <ele>11.3</ele>
        <time>2021-05-23T11:44:53Z</time>
      </trkpt>
      <trkpt lat="42.7376430" lon="-8.6610170">
        <ele>11.3</ele>
        <time>2021-05-23T11:44:54Z</time>
      </trkpt>
      <trkpt lat="42.7376430" lon="-8.6610170">
        <ele>11.3</ele>
        <time>2021-05-23T11:44:55Z</time>
      </trkpt>
      <trkpt lat="42.7376430" lon="-8.6610170">
        <ele>11.3</ele>
        <time>2021-05-23T11:44:56Z</time>
      </trkpt>
      <trkpt lat="42.7376430" lon="-8.6610170">
        <ele>11.3</ele>
        <time>2021-05-23T11:44:57Z</time>
      </trkpt>
      <trkpt lat="42.7376430" lon="-8.6610170">
        <ele>11.3</ele>
        <time>2021-05-23T11:44:58Z</time>
      </trkpt>
      <trkpt lat="42.7376430" lon="-8.6610170">
        <ele>11.3</ele>
        <time>2021-05-23T11:44:59Z</time>
      </trkpt>
      <trkpt lat="42.7376430" lon="-8.6610170">
        <ele>11.3</ele>
        <time>2021-05-23T11:45:00Z</time>
      </trkpt>
      <trkpt lat="42.7376430" lon="-8.6610170">
        <ele>11.3</ele>
        <time>2021-05-23T11:45:01Z</time>
      </trkpt>
      <trkpt lat="42.7376430" lon="-8.6610170">
        <ele>11.3</ele>
        <time>2021-05-23T11:45:02Z</time>
      </trkpt>
      <trkpt lat="42.7376440" lon="-8.6610160">
        <ele>11.3</ele>
        <time>2021-05-23T11:45:03Z</time>
      </trkpt>
      <trkpt lat="42.7376440" lon="-8.6610160">
        <ele>11.3</ele>
        <time>2021-05-23T11:45:04Z</time>
      </trkpt>
      <trkpt lat="42.7376440" lon="-8.6610160">
        <ele>11.3</ele>
        <time>2021-05-23T11:45:05Z</time>
      </trkpt>
      <trkpt lat="42.7376440" lon="-8.6610160">
        <ele>11.3</ele>
        <time>2021-05-23T11:45:06Z</time>
      </trkpt>
      <trkpt lat="42.7376440" lon="-8.6610160">
        <ele>11.3</ele>
        <time>2021-05-23T11:45:07Z</time>
      </trkpt>
      <trkpt lat="42.7376440" lon="-8.6610160">
        <ele>11.3</ele>
        <time>2021-05-23T11:45:08Z</time>
      </trkpt>
      <trkpt lat="42.7376420" lon="-8.6610140">
        <ele>11.3</ele>
        <time>2021-05-23T11:45:09Z</time>
      </trkpt>
      <trkpt lat="42.7376420" lon="-8.6610140">
        <ele>11.3</ele>
        <time>2021-05-23T11:45:10Z</time>
      </trkpt>
      <trkpt lat="42.7376420" lon="-8.6610140">
        <ele>11.3</ele>
        <time>2021-05-23T11:45:11Z</time>
      </trkpt>
      <trkpt lat="42.7376420" lon="-8.6610140">
        <ele>11.3</ele>
        <time>2021-05-23T11:45:12Z</time>
      </trkpt>
      <trkpt lat="42.7376420" lon="-8.6610140">
        <ele>11.3</ele>
        <time>2021-05-23T11:45:13Z</time>
      </trkpt>
      <trkpt lat="42.7376420" lon="-8.6610140">
        <ele>11.3</ele>
        <time>2021-05-23T11:45:14Z</time>
      </trkpt>
      <trkpt lat="42.7376420" lon="-8.6610140">
        <ele>11.3</ele>
        <time>2021-05-23T11:45:15Z</time>
      </trkpt>
      <trkpt lat="42.7376420" lon="-8.6610140">
        <ele>11.3</ele>
        <time>2021-05-23T11:45:16Z</time>
      </trkpt>
      <trkpt lat="42.7376420" lon="-8.6610140">
        <ele>11.3</ele>
        <time>2021-05-23T11:45:17Z</time>
      </trkpt>
      <trkpt lat="42.7376420" lon="-8.6610140">
        <ele>11.3</ele>
        <time>2021-05-23T11:45:18Z</time>
      </trkpt>
      <trkpt lat="42.7376420" lon="-8.6610140">
        <ele>11.3</ele>
        <time>2021-05-23T11:45:19Z</time>
      </trkpt>
      <trkpt lat="42.7376420" lon="-8.6610140">
        <ele>11.3</ele>
        <time>2021-05-23T11:45:20Z</time>
      </trkpt>
      <trkpt lat="42.7376420" lon="-8.6610140">
        <ele>11.3</ele>
        <time>2021-05-23T11:45:21Z</time>
      </trkpt>
      <trkpt lat="42.7376420" lon="-8.6610140">
        <ele>11.3</ele>
        <time>2021-05-23T11:45:22Z</time>
      </trkpt>
      <trkpt lat="42.7376420" lon="-8.6610140">
        <ele>11.3</ele>
        <time>2021-05-23T11:45:23Z</time>
      </trkpt>
      <trkpt lat="42.7376420" lon="-8.6610140">
        <ele>11.3</ele>
        <time>2021-05-23T11:45:24Z</time>
      </trkpt>
      <trkpt lat="42.7376420" lon="-8.6610140">
        <ele>11.3</ele>
        <time>2021-05-23T11:45:25Z</time>
      </trkpt>
      <trkpt lat="42.7376420" lon="-8.6610140">
        <ele>11.3</ele>
        <time>2021-05-23T11:45:26Z</time>
      </trkpt>
      <trkpt lat="42.7376420" lon="-8.6610140">
        <ele>11.3</ele>
        <time>2021-05-23T11:45:27Z</time>
      </trkpt>
      <trkpt lat="42.7376420" lon="-8.6610140">
        <ele>11.3</ele>
        <time>2021-05-23T11:45:28Z</time>
      </trkpt>
      <trkpt lat="42.7376420" lon="-8.6610140">
        <ele>11.3</ele>
        <time>2021-05-23T11:45:29Z</time>
      </trkpt>
      <trkpt lat="42.7376420" lon="-8.6610140">
        <ele>11.3</ele>
        <time>2021-05-23T11:45:30Z</time>
      </trkpt>
      <trkpt lat="42.7376420" lon="-8.6610140">
        <ele>11.3</ele>
        <time>2021-05-23T11:45:31Z</time>
      </trkpt>
      <trkpt lat="42.7376420" lon="-8.6610140">
        <ele>11.3</ele>
        <time>2021-05-23T11:45:32Z</time>
      </trkpt>
      <trkpt lat="42.7376420" lon="-8.6610140">
        <ele>11.3</ele>
        <time>2021-05-23T11:45:33Z</time>
      </trkpt>
      <trkpt lat="42.7376260" lon="-8.6610170">
        <ele>11.3</ele>
        <time>2021-05-23T11:45:34Z</time>
      </trkpt>
      <trkpt lat="42.7376260" lon="-8.6610170">
        <ele>11.3</ele>
        <time>2021-05-23T11:45:35Z</time>
      </trkpt>
      <trkpt lat="42.7376260" lon="-8.6610170">
        <ele>11.3</ele>
        <time>2021-05-23T11:45:36Z</time>
      </trkpt>
      <trkpt lat="42.7376260" lon="-8.6610170">
        <ele>11.3</ele>
        <time>2021-05-23T11:45:37Z</time>
      </trkpt>
      <trkpt lat="42.7376260" lon="-8.6610170">
        <ele>11.3</ele>
        <time>2021-05-23T11:45:38Z</time>
      </trkpt>
      <trkpt lat="42.7376260" lon="-8.6610170">
        <ele>11.3</ele>
        <time>2021-05-23T11:45:39Z</time>
      </trkpt>
      <trkpt lat="42.7376260" lon="-8.6610170">
        <ele>11.3</ele>
        <time>2021-05-23T11:45:40Z</time>
      </trkpt>
      <trkpt lat="42.7376260" lon="-8.6610170">
        <ele>11.3</ele>
        <time>2021-05-23T11:45:41Z</time>
      </trkpt>
      <trkpt lat="42.7376260" lon="-8.6610170">
        <ele>11.3</ele>
        <time>2021-05-23T11:45:42Z</time>
      </trkpt>
      <trkpt lat="42.7376260" lon="-8.6610170">
        <ele>11.3</ele>
        <time>2021-05-23T11:45:43Z</time>
      </trkpt>
      <trkpt lat="42.7376260" lon="-8.6610170">
        <ele>11.3</ele>
        <time>2021-05-23T11:45:44Z</time>
      </trkpt>
      <trkpt lat="42.7376260" lon="-8.6610170">
        <ele>11.3</ele>
        <time>2021-05-23T11:45:45Z</time>
      </trkpt>
      <trkpt lat="42.7376260" lon="-8.6610170">
        <ele>11.3</ele>
        <time>2021-05-23T11:45:46Z</time>
      </trkpt>
      <trkpt lat="42.7376260" lon="-8.6610170">
        <ele>11.3</ele>
        <time>2021-05-23T11:45:47Z</time>
      </trkpt>
      <trkpt lat="42.7376260" lon="-8.6610170">
        <ele>11.3</ele>
        <time>2021-05-23T11:45:48Z</time>
      </trkpt>
      <trkpt lat="42.7376260" lon="-8.6610170">
        <ele>11.3</ele>
        <time>2021-05-23T11:45:49Z</time>
      </trkpt>
      <trkpt lat="42.7376260" lon="-8.6610170">
        <ele>11.3</ele>
        <time>2021-05-23T11:45:50Z</time>
      </trkpt>
      <trkpt lat="42.7376260" lon="-8.6610170">
        <ele>11.3</ele>
        <time>2021-05-23T11:45:51Z</time>
      </trkpt>
      <trkpt lat="42.7376260" lon="-8.6610170">
        <ele>11.3</ele>
        <time>2021-05-23T11:45:52Z</time>
      </trkpt>
      <trkpt lat="42.7376260" lon="-8.6610170">
        <ele>11.3</ele>
        <time>2021-05-23T11:45:53Z</time>
      </trkpt>
      <trkpt lat="42.7376260" lon="-8.6610170">
        <ele>11.3</ele>
        <time>2021-05-23T11:45:54Z</time>
      </trkpt>
      <trkpt lat="42.7376260" lon="-8.6610170">
        <ele>11.3</ele>
        <time>2021-05-23T11:45:55Z</time>
      </trkpt>
      <trkpt lat="42.7376260" lon="-8.6610170">
        <ele>11.3</ele>
        <time>2021-05-23T11:45:56Z</time>
      </trkpt>
      <trkpt lat="42.7376260" lon="-8.6610170">
        <ele>11.3</ele>
        <time>2021-05-23T11:45:57Z</time>
      </trkpt>
      <trkpt lat="42.7376260" lon="-8.6610170">
        <ele>11.3</ele>
        <time>2021-05-23T11:45:58Z</time>
      </trkpt>
      <trkpt lat="42.7376260" lon="-8.6610170">
        <ele>11.3</ele>
        <time>2021-05-23T11:45:59Z</time>
      </trkpt>
      <trkpt lat="42.7376260" lon="-8.6610170">
        <ele>11.3</ele>
        <time>2021-05-23T11:46:00Z</time>
      </trkpt>
      <trkpt lat="42.7376260" lon="-8.6610170">
        <ele>11.3</ele>
        <time>2021-05-23T11:46:01Z</time>
      </trkpt>
      <trkpt lat="42.7376260" lon="-8.6610170">
        <ele>11.3</ele>
        <time>2021-05-23T11:46:02Z</time>
      </trkpt>
      <trkpt lat="42.7376260" lon="-8.6610170">
        <ele>11.3</ele>
        <time>2021-05-23T11:46:03Z</time>
      </trkpt>
      <trkpt lat="42.7376260" lon="-8.6610170">
        <ele>11.3</ele>
        <time>2021-05-23T11:46:04Z</time>
      </trkpt>
      <trkpt lat="42.7376260" lon="-8.6610170">
        <ele>11.3</ele>
        <time>2021-05-23T11:46:05Z</time>
      </trkpt>
      <trkpt lat="42.7376260" lon="-8.6610170">
        <ele>11.3</ele>
        <time>2021-05-23T11:46:06Z</time>
      </trkpt>
      <trkpt lat="42.7376260" lon="-8.6610170">
        <ele>11.3</ele>
        <time>2021-05-23T11:46:07Z</time>
      </trkpt>
      <trkpt lat="42.7376260" lon="-8.6610170">
        <ele>11.3</ele>
        <time>2021-05-23T11:46:08Z</time>
      </trkpt>
      <trkpt lat="42.7376260" lon="-8.6610170">
        <ele>11.3</ele>
        <time>2021-05-23T11:46:09Z</time>
      </trkpt>
      <trkpt lat="42.7376260" lon="-8.6610170">
        <ele>11.3</ele>
        <time>2021-05-23T11:46:11Z</time>
      </trkpt>
      <trkpt lat="42.7376260" lon="-8.6610170">
        <ele>11.3</ele>
        <time>2021-05-23T11:46:12Z</time>
      </trkpt>
      <trkpt lat="42.7376260" lon="-8.6610170">
        <ele>11.3</ele>
        <time>2021-05-23T11:46:13Z</time>
      </trkpt>
      <trkpt lat="42.7376260" lon="-8.6610170">
        <ele>11.3</ele>
        <time>2021-05-23T11:46:14Z</time>
      </trkpt>
      <trkpt lat="42.7376260" lon="-8.6610170">
        <ele>11.3</ele>
        <time>2021-05-23T11:46:15Z</time>
      </trkpt>
      <trkpt lat="42.7376260" lon="-8.6610170">
        <ele>11.3</ele>
        <time>2021-05-23T11:46:16Z</time>
      </trkpt>
      <trkpt lat="42.7376260" lon="-8.6610170">
        <ele>11.3</ele>
        <time>2021-05-23T11:46:17Z</time>
      </trkpt>
      <trkpt lat="42.7376260" lon="-8.6610170">
        <ele>11.3</ele>
        <time>2021-05-23T11:46:18Z</time>
      </trkpt>
      <trkpt lat="42.7376260" lon="-8.6610170">
        <ele>11.3</ele>
        <time>2021-05-23T11:46:19Z</time>
      </trkpt>
      <trkpt lat="42.7376260" lon="-8.6610170">
        <ele>11.3</ele>
        <time>2021-05-23T11:46:20Z</time>
      </trkpt>
      <trkpt lat="42.7376260" lon="-8.6610170">
        <ele>11.3</ele>
        <time>2021-05-23T11:46:21Z</time>
      </trkpt>
      <trkpt lat="42.7376260" lon="-8.6610170">
        <ele>11.3</ele>
        <time>2021-05-23T11:46:22Z</time>
      </trkpt>
      <trkpt lat="42.7376260" lon="-8.6610170">
        <ele>11.3</ele>
        <time>2021-05-23T11:46:23Z</time>
      </trkpt>
      <trkpt lat="42.7376260" lon="-8.6610170">
        <ele>11.3</ele>
        <time>2021-05-23T11:46:24Z</time>
      </trkpt>
      <trkpt lat="42.7376260" lon="-8.6610170">
        <ele>11.3</ele>
        <time>2021-05-23T11:46:25Z</time>
      </trkpt>
      <trkpt lat="42.7376260" lon="-8.6610170">
        <ele>11.3</ele>
        <time>2021-05-23T11:46:26Z</time>
      </trkpt>
      <trkpt lat="42.7376260" lon="-8.6610170">
        <ele>11.3</ele>
        <time>2021-05-23T11:46:27Z</time>
      </trkpt>
      <trkpt lat="42.7376260" lon="-8.6610170">
        <ele>11.3</ele>
        <time>2021-05-23T11:46:28Z</time>
      </trkpt>
      <trkpt lat="42.7376260" lon="-8.6610170">
        <ele>11.3</ele>
        <time>2021-05-23T11:46:29Z</time>
      </trkpt>
      <trkpt lat="42.7376260" lon="-8.6610170">
        <ele>11.3</ele>
        <time>2021-05-23T11:46:30Z</time>
      </trkpt>
      <trkpt lat="42.7376260" lon="-8.6610170">
        <ele>11.3</ele>
        <time>2021-05-23T11:46:31Z</time>
      </trkpt>
      <trkpt lat="42.7376260" lon="-8.6610170">
        <ele>11.3</ele>
        <time>2021-05-23T11:46:32Z</time>
      </trkpt>
      <trkpt lat="42.7376260" lon="-8.6610170">
        <ele>11.3</ele>
        <time>2021-05-23T11:46:33Z</time>
      </trkpt>
      <trkpt lat="42.7376260" lon="-8.6610170">
        <ele>11.3</ele>
        <time>2021-05-23T11:46:34Z</time>
      </trkpt>
      <trkpt lat="42.7376260" lon="-8.6610170">
        <ele>11.3</ele>
        <time>2021-05-23T11:46:35Z</time>
      </trkpt>
      <trkpt lat="42.7376260" lon="-8.6610170">
        <ele>11.3</ele>
        <time>2021-05-23T11:46:36Z</time>
      </trkpt>
      <trkpt lat="42.7376260" lon="-8.6610170">
        <ele>11.3</ele>
        <time>2021-05-23T11:46:37Z</time>
      </trkpt>
      <trkpt lat="42.7376260" lon="-8.6610170">
        <ele>11.3</ele>
        <time>2021-05-23T11:46:38Z</time>
      </trkpt>
      <trkpt lat="42.7376260" lon="-8.6610170">
        <ele>11.3</ele>
        <time>2021-05-23T11:46:39Z</time>
      </trkpt>
      <trkpt lat="42.7376260" lon="-8.6610170">
        <ele>11.3</ele>
        <time>2021-05-23T11:46:40Z</time>
      </trkpt>
      <trkpt lat="42.7376260" lon="-8.6610170">
        <ele>11.3</ele>
        <time>2021-05-23T11:46:41Z</time>
      </trkpt>
      <trkpt lat="42.7376260" lon="-8.6610170">
        <ele>11.3</ele>
        <time>2021-05-23T11:46:42Z</time>
      </trkpt>
      <trkpt lat="42.7376260" lon="-8.6610170">
        <ele>11.3</ele>
        <time>2021-05-23T11:46:43Z</time>
      </trkpt>
      <trkpt lat="42.7376260" lon="-8.6610170">
        <ele>11.3</ele>
        <time>2021-05-23T11:46:44Z</time>
      </trkpt>
      <trkpt lat="42.7376260" lon="-8.6610170">
        <ele>11.3</ele>
        <time>2021-05-23T11:46:45Z</time>
      </trkpt>
      <trkpt lat="42.7376260" lon="-8.6610170">
        <ele>11.3</ele>
        <time>2021-05-23T11:46:46Z</time>
      </trkpt>
      <trkpt lat="42.7376260" lon="-8.6610170">
        <ele>11.3</ele>
        <time>2021-05-23T11:46:47Z</time>
      </trkpt>
      <trkpt lat="42.7376260" lon="-8.6610170">
        <ele>11.3</ele>
        <time>2021-05-23T11:46:48Z</time>
      </trkpt>
      <trkpt lat="42.7376260" lon="-8.6610170">
        <ele>11.3</ele>
        <time>2021-05-23T11:46:49Z</time>
      </trkpt>
      <trkpt lat="42.7376260" lon="-8.6610170">
        <ele>11.3</ele>
        <time>2021-05-23T11:46:50Z</time>
      </trkpt>
      <trkpt lat="42.7376260" lon="-8.6610170">
        <ele>11.3</ele>
        <time>2021-05-23T11:46:51Z</time>
      </trkpt>
      <trkpt lat="42.7376260" lon="-8.6610170">
        <ele>11.3</ele>
        <time>2021-05-23T11:46:52Z</time>
      </trkpt>
      <trkpt lat="42.7376260" lon="-8.6610170">
        <ele>11.3</ele>
        <time>2021-05-23T11:46:53Z</time>
      </trkpt>
      <trkpt lat="42.7376260" lon="-8.6610170">
        <ele>11.3</ele>
        <time>2021-05-23T11:46:54Z</time>
      </trkpt>
      <trkpt lat="42.7376260" lon="-8.6610170">
        <ele>11.3</ele>
        <time>2021-05-23T11:46:55Z</time>
      </trkpt>
      <trkpt lat="42.7376260" lon="-8.6610170">
        <ele>11.3</ele>
        <time>2021-05-23T11:46:56Z</time>
      </trkpt>
      <trkpt lat="42.7376260" lon="-8.6610170">
        <ele>11.3</ele>
        <time>2021-05-23T11:46:57Z</time>
      </trkpt>
      <trkpt lat="42.7376260" lon="-8.6610170">
        <ele>11.3</ele>
        <time>2021-05-23T11:46:58Z</time>
      </trkpt>
      <trkpt lat="42.7376260" lon="-8.6610170">
        <ele>11.3</ele>
        <time>2021-05-23T11:46:59Z</time>
      </trkpt>
      <trkpt lat="42.7376260" lon="-8.6610170">
        <ele>11.3</ele>
        <time>2021-05-23T11:47:00Z</time>
      </trkpt>
      <trkpt lat="42.7376260" lon="-8.6610170">
        <ele>11.3</ele>
        <time>2021-05-23T11:47:01Z</time>
      </trkpt>
      <trkpt lat="42.7376260" lon="-8.6610170">
        <ele>11.3</ele>
        <time>2021-05-23T11:47:02Z</time>
      </trkpt>
      <trkpt lat="42.7376260" lon="-8.6610170">
        <ele>11.3</ele>
        <time>2021-05-23T11:47:03Z</time>
      </trkpt>
      <trkpt lat="42.7376260" lon="-8.6610170">
        <ele>11.3</ele>
        <time>2021-05-23T11:47:04Z</time>
      </trkpt>
      <trkpt lat="42.7376260" lon="-8.6610170">
        <ele>11.3</ele>
        <time>2021-05-23T11:47:05Z</time>
      </trkpt>
      <trkpt lat="42.7376260" lon="-8.6610170">
        <ele>11.3</ele>
        <time>2021-05-23T11:47:06Z</time>
      </trkpt>
      <trkpt lat="42.7376260" lon="-8.6610170">
        <ele>11.3</ele>
        <time>2021-05-23T11:47:07Z</time>
      </trkpt>
      <trkpt lat="42.7376210" lon="-8.6610370">
        <ele>11.3</ele>
        <time>2021-05-23T11:47:08Z</time>
      </trkpt>
      <trkpt lat="42.7376220" lon="-8.6610330">
        <ele>11.3</ele>
        <time>2021-05-23T11:47:09Z</time>
      </trkpt>
      <trkpt lat="42.7376240" lon="-8.6610330">
        <ele>11.3</ele>
        <time>2021-05-23T11:47:10Z</time>
      </trkpt>
      <trkpt lat="42.7376250" lon="-8.6610370">
        <ele>11.3</ele>
        <time>2021-05-23T11:47:11Z</time>
      </trkpt>
      <trkpt lat="42.7376270" lon="-8.6610310">
        <ele>11.3</ele>
        <time>2021-05-23T11:47:12Z</time>
      </trkpt>
      <trkpt lat="42.7376220" lon="-8.6610280">
        <ele>11.3</ele>
        <time>2021-05-23T11:47:13Z</time>
      </trkpt>
      <trkpt lat="42.7376180" lon="-8.6610280">
        <ele>11.3</ele>
        <time>2021-05-23T11:47:14Z</time>
      </trkpt>
      <trkpt lat="42.7376200" lon="-8.6610280">
        <ele>11.3</ele>
        <time>2021-05-23T11:47:15Z</time>
      </trkpt>
      <trkpt lat="42.7376260" lon="-8.6610270">
        <ele>11.3</ele>
        <time>2021-05-23T11:47:16Z</time>
      </trkpt>
      <trkpt lat="42.7376260" lon="-8.6610270">
        <ele>11.3</ele>
        <time>2021-05-23T11:47:17Z</time>
      </trkpt>
      <trkpt lat="42.7376370" lon="-8.6610150">
        <ele>11.3</ele>
        <time>2021-05-23T11:47:18Z</time>
      </trkpt>
      <trkpt lat="42.7376370" lon="-8.6610150">
        <ele>11.3</ele>
        <time>2021-05-23T11:47:19Z</time>
      </trkpt>
      <trkpt lat="42.7376450" lon="-8.6610130">
        <ele>11.3</ele>
        <time>2021-05-23T11:47:20Z</time>
      </trkpt>
      <trkpt lat="42.7376450" lon="-8.6610110">
        <ele>11.3</ele>
        <time>2021-05-23T11:47:21Z</time>
      </trkpt>
      <trkpt lat="42.7376500" lon="-8.6610080">
        <ele>11.3</ele>
        <time>2021-05-23T11:47:22Z</time>
      </trkpt>
      <trkpt lat="42.7376540" lon="-8.6610030">
        <ele>11.3</ele>
        <time>2021-05-23T11:47:23Z</time>
      </trkpt>
      <trkpt lat="42.7376530" lon="-8.6610050">
        <ele>11.3</ele>
        <time>2021-05-23T11:47:24Z</time>
      </trkpt>
      <trkpt lat="42.7376570" lon="-8.6610040">
        <ele>11.3</ele>
        <time>2021-05-23T11:47:25Z</time>
      </trkpt>
      <trkpt lat="42.7376550" lon="-8.6610090">
        <ele>11.3</ele>
        <time>2021-05-23T11:47:26Z</time>
      </trkpt>
      <trkpt lat="42.7376480" lon="-8.6610150">
        <ele>11.3</ele>
        <time>2021-05-23T11:47:27Z</time>
      </trkpt>
      <trkpt lat="42.7376460" lon="-8.6610170">
        <ele>11.3</ele>
        <time>2021-05-23T11:47:28Z</time>
      </trkpt>
      <trkpt lat="42.7376440" lon="-8.6610210">
        <ele>11.3</ele>
        <time>2021-05-23T11:47:29Z</time>
      </trkpt>
      <trkpt lat="42.7376440" lon="-8.6610270">
        <ele>11.3</ele>
        <time>2021-05-23T11:47:30Z</time>
      </trkpt>
      <trkpt lat="42.7376380" lon="-8.6610270">
        <ele>11.3</ele>
        <time>2021-05-23T11:47:31Z</time>
      </trkpt>
      <trkpt lat="42.7376350" lon="-8.6610280">
        <ele>11.3</ele>
        <time>2021-05-23T11:47:32Z</time>
      </trkpt>
      <trkpt lat="42.7376350" lon="-8.6610280">
        <ele>11.3</ele>
        <time>2021-05-23T11:47:33Z</time>
      </trkpt>
      <trkpt lat="42.7376350" lon="-8.6610280">
        <ele>11.3</ele>
        <time>2021-05-23T11:47:34Z</time>
      </trkpt>
      <trkpt lat="42.7376350" lon="-8.6610280">
        <ele>11.3</ele>
        <time>2021-05-23T11:47:35Z</time>
      </trkpt>
      <trkpt lat="42.7376350" lon="-8.6610280">
        <ele>11.3</ele>
        <time>2021-05-23T11:47:36Z</time>
      </trkpt>
      <trkpt lat="42.7376350" lon="-8.6610280">
        <ele>11.3</ele>
        <time>2021-05-23T11:47:37Z</time>
      </trkpt>
      <trkpt lat="42.7376350" lon="-8.6610280">
        <ele>11.3</ele>
        <time>2021-05-23T11:47:38Z</time>
      </trkpt>
      <trkpt lat="42.7376350" lon="-8.6610280">
        <ele>11.3</ele>
        <time>2021-05-23T11:47:39Z</time>
      </trkpt>
      <trkpt lat="42.7376350" lon="-8.6610280">
        <ele>11.3</ele>
        <time>2021-05-23T11:47:40Z</time>
      </trkpt>
      <trkpt lat="42.7376350" lon="-8.6610280">
        <ele>11.3</ele>
        <time>2021-05-23T11:47:41Z</time>
      </trkpt>
      <trkpt lat="42.7376350" lon="-8.6610280">
        <ele>11.3</ele>
        <time>2021-05-23T11:47:42Z</time>
      </trkpt>
      <trkpt lat="42.7376350" lon="-8.6610280">
        <ele>11.3</ele>
        <time>2021-05-23T11:47:43Z</time>
      </trkpt>
      <trkpt lat="42.7376350" lon="-8.6610280">
        <ele>11.3</ele>
        <time>2021-05-23T11:47:44Z</time>
      </trkpt>
      <trkpt lat="42.7376350" lon="-8.6610280">
        <ele>11.3</ele>
        <time>2021-05-23T11:47:45Z</time>
      </trkpt>
      <trkpt lat="42.7376350" lon="-8.6610280">
        <ele>11.3</ele>
        <time>2021-05-23T11:47:46Z</time>
      </trkpt>
      <trkpt lat="42.7376350" lon="-8.6610280">
        <ele>11.3</ele>
        <time>2021-05-23T11:47:47Z</time>
      </trkpt>
      <trkpt lat="42.7376350" lon="-8.6610280">
        <ele>11.3</ele>
        <time>2021-05-23T11:47:48Z</time>
      </trkpt>
      <trkpt lat="42.7376350" lon="-8.6610280">
        <ele>11.3</ele>
        <time>2021-05-23T11:47:49Z</time>
      </trkpt>
      <trkpt lat="42.7376350" lon="-8.6610280">
        <ele>11.3</ele>
        <time>2021-05-23T11:47:50Z</time>
      </trkpt>
      <trkpt lat="42.7376350" lon="-8.6610280">
        <ele>11.3</ele>
        <time>2021-05-23T11:47:51Z</time>
      </trkpt>
      <trkpt lat="42.7376350" lon="-8.6610280">
        <ele>11.3</ele>
        <time>2021-05-23T11:47:52Z</time>
      </trkpt>
      <trkpt lat="42.7376350" lon="-8.6610280">
        <ele>11.3</ele>
        <time>2021-05-23T11:47:53Z</time>
      </trkpt>
      <trkpt lat="42.7376350" lon="-8.6610280">
        <ele>11.3</ele>
        <time>2021-05-23T11:47:54Z</time>
      </trkpt>
      <trkpt lat="42.7376350" lon="-8.6610280">
        <ele>11.3</ele>
        <time>2021-05-23T11:47:55Z</time>
      </trkpt>
      <trkpt lat="42.7376350" lon="-8.6610280">
        <ele>11.3</ele>
        <time>2021-05-23T11:47:56Z</time>
      </trkpt>
      <trkpt lat="42.7376350" lon="-8.6610280">
        <ele>11.3</ele>
        <time>2021-05-23T11:47:57Z</time>
      </trkpt>
      <trkpt lat="42.7376350" lon="-8.6610280">
        <ele>11.3</ele>
        <time>2021-05-23T11:47:58Z</time>
      </trkpt>
      <trkpt lat="42.7376350" lon="-8.6610280">
        <ele>11.3</ele>
        <time>2021-05-23T11:47:59Z</time>
      </trkpt>
      <trkpt lat="42.7376350" lon="-8.6610280">
        <ele>11.3</ele>
        <time>2021-05-23T11:48:00Z</time>
      </trkpt>
      <trkpt lat="42.7376300" lon="-8.6610430">
        <ele>11.3</ele>
        <time>2021-05-23T11:48:01Z</time>
      </trkpt>
      <trkpt lat="42.7376300" lon="-8.6610440">
        <ele>11.3</ele>
        <time>2021-05-23T11:48:02Z</time>
      </trkpt>
      <trkpt lat="42.7376300" lon="-8.6610440">
        <ele>11.3</ele>
        <time>2021-05-23T11:48:03Z</time>
      </trkpt>
      <trkpt lat="42.7376300" lon="-8.6610440">
        <ele>11.3</ele>
        <time>2021-05-23T11:48:04Z</time>
      </trkpt>
      <trkpt lat="42.7376300" lon="-8.6610440">
        <ele>11.3</ele>
        <time>2021-05-23T11:48:05Z</time>
      </trkpt>
      <trkpt lat="42.7376250" lon="-8.6610480">
        <ele>11.3</ele>
        <time>2021-05-23T11:48:06Z</time>
      </trkpt>
      <trkpt lat="42.7376250" lon="-8.6610480">
        <ele>11.3</ele>
        <time>2021-05-23T11:48:07Z</time>
      </trkpt>
      <trkpt lat="42.7376250" lon="-8.6610480">
        <ele>11.3</ele>
        <time>2021-05-23T11:48:08Z</time>
      </trkpt>
      <trkpt lat="42.7376250" lon="-8.6610480">
        <ele>11.3</ele>
        <time>2021-05-23T11:48:09Z</time>
      </trkpt>
      <trkpt lat="42.7376250" lon="-8.6610480">
        <ele>11.3</ele>
        <time>2021-05-23T11:48:10Z</time>
      </trkpt>
      <trkpt lat="42.7376120" lon="-8.6610590">
        <ele>11.3</ele>
        <time>2021-05-23T11:48:11Z</time>
      </trkpt>
      <trkpt lat="42.7376130" lon="-8.6610590">
        <ele>11.3</ele>
        <time>2021-05-23T11:48:12Z</time>
      </trkpt>
      <trkpt lat="42.7376160" lon="-8.6610540">
        <ele>11.3</ele>
        <time>2021-05-23T11:48:13Z</time>
      </trkpt>
      <trkpt lat="42.7376090" lon="-8.6610590">
        <ele>11.3</ele>
        <time>2021-05-23T11:48:14Z</time>
      </trkpt>
      <trkpt lat="42.7376030" lon="-8.6610620">
        <ele>11.3</ele>
        <time>2021-05-23T11:48:15Z</time>
      </trkpt>
      <trkpt lat="42.7375980" lon="-8.6610610">
        <ele>11.3</ele>
        <time>2021-05-23T11:48:16Z</time>
      </trkpt>
      <trkpt lat="42.7376020" lon="-8.6610600">
        <ele>11.3</ele>
        <time>2021-05-23T11:48:17Z</time>
      </trkpt>
      <trkpt lat="42.7376090" lon="-8.6610530">
        <ele>11.3</ele>
        <time>2021-05-23T11:48:18Z</time>
      </trkpt>
      <trkpt lat="42.7376160" lon="-8.6610470">
        <ele>11.3</ele>
        <time>2021-05-23T11:48:19Z</time>
      </trkpt>
      <trkpt lat="42.7376120" lon="-8.6610500">
        <ele>11.3</ele>
        <time>2021-05-23T11:48:20Z</time>
      </trkpt>
      <trkpt lat="42.7376130" lon="-8.6610460">
        <ele>11.3</ele>
        <time>2021-05-23T11:48:21Z</time>
      </trkpt>
      <trkpt lat="42.7376190" lon="-8.6610390">
        <ele>11.3</ele>
        <time>2021-05-23T11:48:22Z</time>
      </trkpt>
      <trkpt lat="42.7376190" lon="-8.6610350">
        <ele>11.3</ele>
        <time>2021-05-23T11:48:24Z</time>
      </trkpt>
      <trkpt lat="42.7376090" lon="-8.6610420">
        <ele>11.3</ele>
        <time>2021-05-23T11:48:25Z</time>
      </trkpt>
      <trkpt lat="42.7376060" lon="-8.6610430">
        <ele>11.3</ele>
        <time>2021-05-23T11:48:26Z</time>
      </trkpt>
      <trkpt lat="42.7376080" lon="-8.6610420">
        <ele>11.3</ele>
        <time>2021-05-23T11:48:27Z</time>
      </trkpt>
      <trkpt lat="42.7376110" lon="-8.6610380">
        <ele>11.3</ele>
        <time>2021-05-23T11:48:28Z</time>
      </trkpt>
      <trkpt lat="42.7376060" lon="-8.6610410">
        <ele>11.3</ele>
        <time>2021-05-23T11:48:29Z</time>
      </trkpt>
      <trkpt lat="42.7376100" lon="-8.6610350">
        <ele>11.3</ele>
        <time>2021-05-23T11:48:30Z</time>
      </trkpt>
      <trkpt lat="42.7376060" lon="-8.6610360">
        <ele>11.3</ele>
        <time>2021-05-23T11:48:31Z</time>
      </trkpt>
      <trkpt lat="42.7376050" lon="-8.6610370">
        <ele>11.3</ele>
        <time>2021-05-23T11:48:32Z</time>
      </trkpt>
      <trkpt lat="42.7376030" lon="-8.6610370">
        <ele>11.3</ele>
        <time>2021-05-23T11:48:33Z</time>
      </trkpt>
      <trkpt lat="42.7376070" lon="-8.6610330">
        <ele>11.3</ele>
        <time>2021-05-23T11:48:34Z</time>
      </trkpt>
      <trkpt lat="42.7376040" lon="-8.6610320">
        <ele>11.3</ele>
        <time>2021-05-23T11:48:35Z</time>
      </trkpt>
      <trkpt lat="42.7376030" lon="-8.6610310">
        <ele>11.3</ele>
        <time>2021-05-23T11:48:36Z</time>
      </trkpt>
      <trkpt lat="42.7376030" lon="-8.6610310">
        <ele>11.3</ele>
        <time>2021-05-23T11:48:37Z</time>
      </trkpt>
      <trkpt lat="42.7376050" lon="-8.6610230">
        <ele>11.3</ele>
        <time>2021-05-23T11:48:38Z</time>
      </trkpt>
      <trkpt lat="42.7376080" lon="-8.6610200">
        <ele>11.3</ele>
        <time>2021-05-23T11:48:39Z</time>
      </trkpt>
      <trkpt lat="42.7376060" lon="-8.6610180">
        <ele>11.3</ele>
        <time>2021-05-23T11:48:40Z</time>
      </trkpt>
      <trkpt lat="42.7376060" lon="-8.6610180">
        <ele>11.3</ele>
        <time>2021-05-23T11:48:41Z</time>
      </trkpt>
      <trkpt lat="42.7376000" lon="-8.6610190">
        <ele>11.3</ele>
        <time>2021-05-23T11:48:42Z</time>
      </trkpt>
      <trkpt lat="42.7375970" lon="-8.6610220">
        <ele>11.3</ele>
        <time>2021-05-23T11:48:43Z</time>
      </trkpt>
      <trkpt lat="42.7375970" lon="-8.6610220">
        <ele>11.3</ele>
        <time>2021-05-23T11:48:44Z</time>
      </trkpt>
      <trkpt lat="42.7375960" lon="-8.6610180">
        <ele>11.3</ele>
        <time>2021-05-23T11:48:45Z</time>
      </trkpt>
      <trkpt lat="42.7375890" lon="-8.6610260">
        <ele>11.3</ele>
        <time>2021-05-23T11:48:46Z</time>
      </trkpt>
      <trkpt lat="42.7375900" lon="-8.6610210">
        <ele>11.3</ele>
        <time>2021-05-23T11:48:47Z</time>
      </trkpt>
      <trkpt lat="42.7375860" lon="-8.6610230">
        <ele>11.3</ele>
        <time>2021-05-23T11:48:48Z</time>
      </trkpt>
      <trkpt lat="42.7375850" lon="-8.6610240">
        <ele>11.3</ele>
        <time>2021-05-23T11:48:49Z</time>
      </trkpt>
      <trkpt lat="42.7375830" lon="-8.6610230">
        <ele>11.3</ele>
        <time>2021-05-23T11:48:50Z</time>
      </trkpt>
      <trkpt lat="42.7375850" lon="-8.6610230">
        <ele>11.3</ele>
        <time>2021-05-23T11:48:51Z</time>
      </trkpt>
      <trkpt lat="42.7375760" lon="-8.6610240">
        <ele>11.3</ele>
        <time>2021-05-23T11:48:52Z</time>
      </trkpt>
      <trkpt lat="42.7375760" lon="-8.6610210">
        <ele>11.3</ele>
        <time>2021-05-23T11:48:53Z</time>
      </trkpt>
      <trkpt lat="42.7375790" lon="-8.6610160">
        <ele>11.3</ele>
        <time>2021-05-23T11:48:54Z</time>
      </trkpt>
      <trkpt lat="42.7375810" lon="-8.6610150">
        <ele>11.3</ele>
        <time>2021-05-23T11:48:55Z</time>
      </trkpt>
      <trkpt lat="42.7375820" lon="-8.6610100">
        <ele>11.3</ele>
        <time>2021-05-23T11:48:56Z</time>
      </trkpt>
      <trkpt lat="42.7375830" lon="-8.6610020">
        <ele>11.3</ele>
        <time>2021-05-23T11:48:57Z</time>
      </trkpt>
      <trkpt lat="42.7375870" lon="-8.6609970">
        <ele>11.3</ele>
        <time>2021-05-23T11:48:58Z</time>
      </trkpt>
      <trkpt lat="42.7375880" lon="-8.6609960">
        <ele>11.3</ele>
        <time>2021-05-23T11:48:59Z</time>
      </trkpt>
      <trkpt lat="42.7375920" lon="-8.6609940">
        <ele>11.3</ele>
        <time>2021-05-23T11:49:00Z</time>
      </trkpt>
      <trkpt lat="42.7375850" lon="-8.6610000">
        <ele>11.3</ele>
        <time>2021-05-23T11:49:01Z</time>
      </trkpt>
      <trkpt lat="42.7375840" lon="-8.6610010">
        <ele>11.3</ele>
        <time>2021-05-23T11:49:02Z</time>
      </trkpt>
      <trkpt lat="42.7375840" lon="-8.6610010">
        <ele>11.3</ele>
        <time>2021-05-23T11:49:03Z</time>
      </trkpt>
      <trkpt lat="42.7375840" lon="-8.6610010">
        <ele>11.3</ele>
        <time>2021-05-23T11:49:04Z</time>
      </trkpt>
      <trkpt lat="42.7375840" lon="-8.6610010">
        <ele>11.3</ele>
        <time>2021-05-23T11:49:05Z</time>
      </trkpt>
      <trkpt lat="42.7375800" lon="-8.6610140">
        <ele>11.3</ele>
        <time>2021-05-23T11:49:06Z</time>
      </trkpt>
      <trkpt lat="42.7375740" lon="-8.6610100">
        <ele>11.3</ele>
        <time>2021-05-23T11:49:07Z</time>
      </trkpt>
      <trkpt lat="42.7375870" lon="-8.6610100">
        <ele>11.3</ele>
        <time>2021-05-23T11:49:08Z</time>
      </trkpt>
      <trkpt lat="42.7375900" lon="-8.6610110">
        <ele>11.3</ele>
        <time>2021-05-23T11:49:09Z</time>
      </trkpt>
      <trkpt lat="42.7375890" lon="-8.6610180">
        <ele>11.3</ele>
        <time>2021-05-23T11:49:10Z</time>
      </trkpt>
      <trkpt lat="42.7375870" lon="-8.6610260">
        <ele>11.3</ele>
        <time>2021-05-23T11:49:11Z</time>
      </trkpt>
      <trkpt lat="42.7375830" lon="-8.6610280">
        <ele>11.3</ele>
        <time>2021-05-23T11:49:12Z</time>
      </trkpt>
      <trkpt lat="42.7375790" lon="-8.6610300">
        <ele>11.3</ele>
        <time>2021-05-23T11:49:13Z</time>
      </trkpt>
      <trkpt lat="42.7375760" lon="-8.6610330">
        <ele>11.3</ele>
        <time>2021-05-23T11:49:14Z</time>
      </trkpt>
      <trkpt lat="42.7375650" lon="-8.6610390">
        <ele>11.3</ele>
        <time>2021-05-23T11:49:15Z</time>
      </trkpt>
      <trkpt lat="42.7375600" lon="-8.6610410">
        <ele>11.3</ele>
        <time>2021-05-23T11:49:16Z</time>
      </trkpt>
      <trkpt lat="42.7375640" lon="-8.6610420">
        <ele>11.3</ele>
        <time>2021-05-23T11:49:17Z</time>
      </trkpt>
      <trkpt lat="42.7375640" lon="-8.6610430">
        <ele>11.3</ele>
        <time>2021-05-23T11:49:18Z</time>
      </trkpt>
      <trkpt lat="42.7375630" lon="-8.6610420">
        <ele>11.3</ele>
        <time>2021-05-23T11:49:19Z</time>
      </trkpt>
      <trkpt lat="42.7375650" lon="-8.6610420">
        <ele>11.3</ele>
        <time>2021-05-23T11:49:20Z</time>
      </trkpt>
      <trkpt lat="42.7375660" lon="-8.6610400">
        <ele>11.3</ele>
        <time>2021-05-23T11:49:21Z</time>
      </trkpt>
      <trkpt lat="42.7375670" lon="-8.6610390">
        <ele>11.3</ele>
        <time>2021-05-23T11:49:22Z</time>
      </trkpt>
      <trkpt lat="42.7375670" lon="-8.6610390">
        <ele>11.3</ele>
        <time>2021-05-23T11:49:23Z</time>
      </trkpt>
      <trkpt lat="42.7375720" lon="-8.6610340">
        <ele>11.3</ele>
        <time>2021-05-23T11:49:24Z</time>
      </trkpt>
      <trkpt lat="42.7375690" lon="-8.6610370">
        <ele>11.3</ele>
        <time>2021-05-23T11:49:25Z</time>
      </trkpt>
      <trkpt lat="42.7375630" lon="-8.6610380">
        <ele>11.3</ele>
        <time>2021-05-23T11:49:26Z</time>
      </trkpt>
      <trkpt lat="42.7375580" lon="-8.6610400">
        <ele>11.3</ele>
        <time>2021-05-23T11:49:27Z</time>
      </trkpt>
      <trkpt lat="42.7375480" lon="-8.6610410">
        <ele>11.3</ele>
        <time>2021-05-23T11:49:28Z</time>
      </trkpt>
      <trkpt lat="42.7375480" lon="-8.6610410">
        <ele>11.3</ele>
        <time>2021-05-23T11:49:29Z</time>
      </trkpt>
      <trkpt lat="42.7375460" lon="-8.6610470">
        <ele>11.3</ele>
        <time>2021-05-23T11:49:30Z</time>
      </trkpt>
      <trkpt lat="42.7375440" lon="-8.6610480">
        <ele>11.3</ele>
        <time>2021-05-23T11:49:31Z</time>
      </trkpt>
      <trkpt lat="42.7375460" lon="-8.6610490">
        <ele>11.3</ele>
        <time>2021-05-23T11:49:32Z</time>
      </trkpt>
      <trkpt lat="42.7375490" lon="-8.6610450">
        <ele>11.3</ele>
        <time>2021-05-23T11:49:33Z</time>
      </trkpt>
      <trkpt lat="42.7375490" lon="-8.6610440">
        <ele>11.3</ele>
        <time>2021-05-23T11:49:34Z</time>
      </trkpt>
      <trkpt lat="42.7375580" lon="-8.6610380">
        <ele>11.3</ele>
        <time>2021-05-23T11:49:35Z</time>
      </trkpt>
      <trkpt lat="42.7375620" lon="-8.6610310">
        <ele>11.3</ele>
        <time>2021-05-23T11:49:36Z</time>
      </trkpt>
      <trkpt lat="42.7375690" lon="-8.6610260">
        <ele>11.3</ele>
        <time>2021-05-23T11:49:37Z</time>
      </trkpt>
      <trkpt lat="42.7375690" lon="-8.6610280">
        <ele>11.3</ele>
        <time>2021-05-23T11:49:38Z</time>
      </trkpt>
      <trkpt lat="42.7375730" lon="-8.6610280">
        <ele>11.3</ele>
        <time>2021-05-23T11:49:39Z</time>
      </trkpt>
      <trkpt lat="42.7375760" lon="-8.6610250">
        <ele>11.3</ele>
        <time>2021-05-23T11:49:40Z</time>
      </trkpt>
      <trkpt lat="42.7375790" lon="-8.6610300">
        <ele>11.3</ele>
        <time>2021-05-23T11:49:41Z</time>
      </trkpt>
      <trkpt lat="42.7375810" lon="-8.6610320">
        <ele>11.3</ele>
        <time>2021-05-23T11:49:42Z</time>
      </trkpt>
      <trkpt lat="42.7375810" lon="-8.6610320">
        <ele>11.3</ele>
        <time>2021-05-23T11:49:43Z</time>
      </trkpt>
      <trkpt lat="42.7375850" lon="-8.6610290">
        <ele>11.3</ele>
        <time>2021-05-23T11:49:44Z</time>
      </trkpt>
      <trkpt lat="42.7375770" lon="-8.6610380">
        <ele>11.3</ele>
        <time>2021-05-23T11:49:45Z</time>
      </trkpt>
      <trkpt lat="42.7375830" lon="-8.6610330">
        <ele>11.3</ele>
        <time>2021-05-23T11:49:46Z</time>
      </trkpt>
      <trkpt lat="42.7375930" lon="-8.6610280">
        <ele>11.3</ele>
        <time>2021-05-23T11:49:47Z</time>
      </trkpt>
      <trkpt lat="42.7375930" lon="-8.6610280">
        <ele>11.3</ele>
        <time>2021-05-23T11:49:48Z</time>
      </trkpt>
      <trkpt lat="42.7375930" lon="-8.6610280">
        <ele>11.3</ele>
        <time>2021-05-23T11:49:49Z</time>
      </trkpt>
      <trkpt lat="42.7375930" lon="-8.6610280">
        <ele>11.3</ele>
        <time>2021-05-23T11:49:50Z</time>
      </trkpt>
      <trkpt lat="42.7375930" lon="-8.6610280">
        <ele>11.3</ele>
        <time>2021-05-23T11:49:51Z</time>
      </trkpt>
      <trkpt lat="42.7375930" lon="-8.6610280">
        <ele>11.3</ele>
        <time>2021-05-23T11:49:52Z</time>
      </trkpt>
      <trkpt lat="42.7375930" lon="-8.6610280">
        <ele>11.3</ele>
        <time>2021-05-23T11:49:53Z</time>
      </trkpt>
      <trkpt lat="42.7375930" lon="-8.6610280">
        <ele>11.3</ele>
        <time>2021-05-23T11:49:54Z</time>
      </trkpt>
      <trkpt lat="42.7375930" lon="-8.6610280">
        <ele>11.3</ele>
        <time>2021-05-23T11:49:55Z</time>
      </trkpt>
      <trkpt lat="42.7375930" lon="-8.6610280">
        <ele>11.3</ele>
        <time>2021-05-23T11:49:56Z</time>
      </trkpt>
      <trkpt lat="42.7375930" lon="-8.6610280">
        <ele>11.3</ele>
        <time>2021-05-23T11:49:57Z</time>
      </trkpt>
      <trkpt lat="42.7375930" lon="-8.6610280">
        <ele>11.3</ele>
        <time>2021-05-23T11:49:58Z</time>
      </trkpt>
      <trkpt lat="42.7375790" lon="-8.6610400">
        <ele>11.3</ele>
        <time>2021-05-23T11:49:59Z</time>
      </trkpt>
      <trkpt lat="42.7375750" lon="-8.6610400">
        <ele>11.3</ele>
        <time>2021-05-23T11:50:00Z</time>
      </trkpt>
      <trkpt lat="42.7375750" lon="-8.6610360">
        <ele>11.3</ele>
        <time>2021-05-23T11:50:01Z</time>
      </trkpt>
      <trkpt lat="42.7375820" lon="-8.6610330">
        <ele>11.3</ele>
        <time>2021-05-23T11:50:02Z</time>
      </trkpt>
      <trkpt lat="42.7375890" lon="-8.6610300">
        <ele>11.3</ele>
        <time>2021-05-23T11:50:03Z</time>
      </trkpt>
      <trkpt lat="42.7375920" lon="-8.6610330">
        <ele>11.3</ele>
        <time>2021-05-23T11:50:04Z</time>
      </trkpt>
      <trkpt lat="42.7375960" lon="-8.6610320">
        <ele>11.3</ele>
        <time>2021-05-23T11:50:05Z</time>
      </trkpt>
      <trkpt lat="42.7376050" lon="-8.6610310">
        <ele>11.3</ele>
        <time>2021-05-23T11:50:06Z</time>
      </trkpt>
      <trkpt lat="42.7376170" lon="-8.6610290">
        <ele>11.3</ele>
        <time>2021-05-23T11:50:07Z</time>
      </trkpt>
      <trkpt lat="42.7376220" lon="-8.6610270">
        <ele>11.3</ele>
        <time>2021-05-23T11:50:08Z</time>
      </trkpt>
      <trkpt lat="42.7376290" lon="-8.6610240">
        <ele>11.3</ele>
        <time>2021-05-23T11:50:09Z</time>
      </trkpt>
      <trkpt lat="42.7376380" lon="-8.6610180">
        <ele>11.3</ele>
        <time>2021-05-23T11:50:10Z</time>
      </trkpt>
      <trkpt lat="42.7376420" lon="-8.6610170">
        <ele>11.3</ele>
        <time>2021-05-23T11:50:11Z</time>
      </trkpt>
      <trkpt lat="42.7376440" lon="-8.6610140">
        <ele>11.3</ele>
        <time>2021-05-23T11:50:12Z</time>
      </trkpt>
      <trkpt lat="42.7376500" lon="-8.6610080">
        <ele>11.3</ele>
        <time>2021-05-23T11:50:13Z</time>
      </trkpt>
      <trkpt lat="42.7376480" lon="-8.6610070">
        <ele>11.3</ele>
        <time>2021-05-23T11:50:14Z</time>
      </trkpt>
      <trkpt lat="42.7376510" lon="-8.6610030">
        <ele>11.3</ele>
        <time>2021-05-23T11:50:15Z</time>
      </trkpt>
      <trkpt lat="42.7376540" lon="-8.6610050">
        <ele>11.3</ele>
        <time>2021-05-23T11:50:16Z</time>
      </trkpt>
      <trkpt lat="42.7376610" lon="-8.6610060">
        <ele>11.3</ele>
        <time>2021-05-23T11:50:17Z</time>
      </trkpt>
      <trkpt lat="42.7376630" lon="-8.6610050">
        <ele>11.3</ele>
        <time>2021-05-23T11:50:18Z</time>
      </trkpt>
      <trkpt lat="42.7376550" lon="-8.6610140">
        <ele>11.3</ele>
        <time>2021-05-23T11:50:19Z</time>
      </trkpt>
      <trkpt lat="42.7376630" lon="-8.6610160">
        <ele>11.3</ele>
        <time>2021-05-23T11:50:20Z</time>
      </trkpt>
      <trkpt lat="42.7376620" lon="-8.6610180">
        <ele>11.3</ele>
        <time>2021-05-23T11:50:21Z</time>
      </trkpt>
      <trkpt lat="42.7376600" lon="-8.6610210">
        <ele>11.3</ele>
        <time>2021-05-23T11:50:22Z</time>
      </trkpt>
      <trkpt lat="42.7376560" lon="-8.6610220">
        <ele>11.3</ele>
        <time>2021-05-23T11:50:23Z</time>
      </trkpt>
      <trkpt lat="42.7376540" lon="-8.6610190">
        <ele>11.3</ele>
        <time>2021-05-23T11:50:24Z</time>
      </trkpt>
      <trkpt lat="42.7376520" lon="-8.6610120">
        <ele>11.3</ele>
        <time>2021-05-23T11:50:25Z</time>
      </trkpt>
      <trkpt lat="42.7376520" lon="-8.6610070">
        <ele>11.3</ele>
        <time>2021-05-23T11:50:26Z</time>
      </trkpt>
      <trkpt lat="42.7376520" lon="-8.6610010">
        <ele>11.3</ele>
        <time>2021-05-23T11:50:27Z</time>
      </trkpt>
      <trkpt lat="42.7376500" lon="-8.6610020">
        <ele>11.3</ele>
        <time>2021-05-23T11:50:28Z</time>
      </trkpt>
      <trkpt lat="42.7376460" lon="-8.6610030">
        <ele>11.3</ele>
        <time>2021-05-23T11:50:29Z</time>
      </trkpt>
      <trkpt lat="42.7376420" lon="-8.6610050">
        <ele>11.3</ele>
        <time>2021-05-23T11:50:30Z</time>
      </trkpt>
      <trkpt lat="42.7376410" lon="-8.6610040">
        <ele>11.3</ele>
        <time>2021-05-23T11:50:31Z</time>
      </trkpt>
      <trkpt lat="42.7376410" lon="-8.6610080">
        <ele>11.3</ele>
        <time>2021-05-23T11:50:32Z</time>
      </trkpt>
      <trkpt lat="42.7376380" lon="-8.6610070">
        <ele>11.3</ele>
        <time>2021-05-23T11:50:33Z</time>
      </trkpt>
      <trkpt lat="42.7376400" lon="-8.6610080">
        <ele>11.3</ele>
        <time>2021-05-23T11:50:34Z</time>
      </trkpt>
      <trkpt lat="42.7376450" lon="-8.6610050">
        <ele>11.3</ele>
        <time>2021-05-23T11:50:35Z</time>
      </trkpt>
      <trkpt lat="42.7376480" lon="-8.6610020">
        <ele>11.3</ele>
        <time>2021-05-23T11:50:36Z</time>
      </trkpt>
      <trkpt lat="42.7376420" lon="-8.6610040">
        <ele>11.3</ele>
        <time>2021-05-23T11:50:37Z</time>
      </trkpt>
      <trkpt lat="42.7376420" lon="-8.6610030">
        <ele>11.3</ele>
        <time>2021-05-23T11:50:38Z</time>
      </trkpt>
      <trkpt lat="42.7376450" lon="-8.6610030">
        <ele>11.3</ele>
        <time>2021-05-23T11:50:39Z</time>
      </trkpt>
      <trkpt lat="42.7376420" lon="-8.6610040">
        <ele>11.3</ele>
        <time>2021-05-23T11:50:40Z</time>
      </trkpt>
      <trkpt lat="42.7376410" lon="-8.6610020">
        <ele>11.3</ele>
        <time>2021-05-23T11:50:41Z</time>
      </trkpt>
      <trkpt lat="42.7376380" lon="-8.6610020">
        <ele>11.3</ele>
        <time>2021-05-23T11:50:42Z</time>
      </trkpt>
      <trkpt lat="42.7376340" lon="-8.6610030">
        <ele>11.3</ele>
        <time>2021-05-23T11:50:43Z</time>
      </trkpt>
      <trkpt lat="42.7376310" lon="-8.6610020">
        <ele>11.3</ele>
        <time>2021-05-23T11:50:44Z</time>
      </trkpt>
      <trkpt lat="42.7376300" lon="-8.6610000">
        <ele>11.3</ele>
        <time>2021-05-23T11:50:45Z</time>
      </trkpt>
      <trkpt lat="42.7376250" lon="-8.6610040">
        <ele>11.3</ele>
        <time>2021-05-23T11:50:46Z</time>
      </trkpt>
      <trkpt lat="42.7376180" lon="-8.6610060">
        <ele>11.3</ele>
        <time>2021-05-23T11:50:47Z</time>
      </trkpt>
      <trkpt lat="42.7376220" lon="-8.6610040">
        <ele>11.3</ele>
        <time>2021-05-23T11:50:48Z</time>
      </trkpt>
      <trkpt lat="42.7376220" lon="-8.6610000">
        <ele>11.3</ele>
        <time>2021-05-23T11:50:49Z</time>
      </trkpt>
      <trkpt lat="42.7376240" lon="-8.6609960">
        <ele>11.3</ele>
        <time>2021-05-23T11:50:50Z</time>
      </trkpt>
      <trkpt lat="42.7376200" lon="-8.6609970">
        <ele>11.3</ele>
        <time>2021-05-23T11:50:51Z</time>
      </trkpt>
      <trkpt lat="42.7376230" lon="-8.6609960">
        <ele>11.3</ele>
        <time>2021-05-23T11:50:52Z</time>
      </trkpt>
      <trkpt lat="42.7376230" lon="-8.6609960">
        <ele>11.3</ele>
        <time>2021-05-23T11:50:53Z</time>
      </trkpt>
      <trkpt lat="42.7376220" lon="-8.6609960">
        <ele>11.3</ele>
        <time>2021-05-23T11:50:54Z</time>
      </trkpt>
      <trkpt lat="42.7376200" lon="-8.6609960">
        <ele>11.3</ele>
        <time>2021-05-23T11:50:55Z</time>
      </trkpt>
      <trkpt lat="42.7376160" lon="-8.6609970">
        <ele>11.3</ele>
        <time>2021-05-23T11:50:56Z</time>
      </trkpt>
      <trkpt lat="42.7376140" lon="-8.6609980">
        <ele>11.3</ele>
        <time>2021-05-23T11:50:57Z</time>
      </trkpt>
      <trkpt lat="42.7376100" lon="-8.6610020">
        <ele>11.3</ele>
        <time>2021-05-23T11:50:58Z</time>
      </trkpt>
      <trkpt lat="42.7376060" lon="-8.6610050">
        <ele>11.3</ele>
        <time>2021-05-23T11:50:59Z</time>
      </trkpt>
      <trkpt lat="42.7376010" lon="-8.6610130">
        <ele>11.3</ele>
        <time>2021-05-23T11:51:00Z</time>
      </trkpt>
      <trkpt lat="42.7376030" lon="-8.6610130">
        <ele>11.3</ele>
        <time>2021-05-23T11:51:01Z</time>
      </trkpt>
      <trkpt lat="42.7376080" lon="-8.6610070">
        <ele>11.3</ele>
        <time>2021-05-23T11:51:02Z</time>
      </trkpt>
      <trkpt lat="42.7376070" lon="-8.6610070">
        <ele>11.3</ele>
        <time>2021-05-23T11:51:03Z</time>
      </trkpt>
      <trkpt lat="42.7375980" lon="-8.6610140">
        <ele>11.3</ele>
        <time>2021-05-23T11:51:04Z</time>
      </trkpt>
      <trkpt lat="42.7376000" lon="-8.6610110">
        <ele>11.3</ele>
        <time>2021-05-23T11:51:05Z</time>
      </trkpt>
      <trkpt lat="42.7375990" lon="-8.6610090">
        <ele>11.3</ele>
        <time>2021-05-23T11:51:06Z</time>
      </trkpt>
      <trkpt lat="42.7375980" lon="-8.6610050">
        <ele>11.3</ele>
        <time>2021-05-23T11:51:07Z</time>
      </trkpt>
      <trkpt lat="42.7375960" lon="-8.6610040">
        <ele>11.3</ele>
        <time>2021-05-23T11:51:08Z</time>
      </trkpt>
      <trkpt lat="42.7375940" lon="-8.6610040">
        <ele>11.3</ele>
        <time>2021-05-23T11:51:09Z</time>
      </trkpt>
      <trkpt lat="42.7375940" lon="-8.6610030">
        <ele>11.3</ele>
        <time>2021-05-23T11:51:10Z</time>
      </trkpt>
      <trkpt lat="42.7375940" lon="-8.6610060">
        <ele>11.3</ele>
        <time>2021-05-23T11:51:11Z</time>
      </trkpt>
      <trkpt lat="42.7375930" lon="-8.6610090">
        <ele>11.3</ele>
        <time>2021-05-23T11:51:12Z</time>
      </trkpt>
      <trkpt lat="42.7375930" lon="-8.6610130">
        <ele>11.3</ele>
        <time>2021-05-23T11:51:13Z</time>
      </trkpt>
      <trkpt lat="42.7375960" lon="-8.6610120">
        <ele>11.3</ele>
        <time>2021-05-23T11:51:14Z</time>
      </trkpt>
      <trkpt lat="42.7375940" lon="-8.6610130">
        <ele>11.3</ele>
        <time>2021-05-23T11:51:15Z</time>
      </trkpt>
      <trkpt lat="42.7376010" lon="-8.6610060">
        <ele>11.3</ele>
        <time>2021-05-23T11:51:16Z</time>
      </trkpt>
      <trkpt lat="42.7375990" lon="-8.6610090">
        <ele>11.3</ele>
        <time>2021-05-23T11:51:17Z</time>
      </trkpt>
      <trkpt lat="42.7375940" lon="-8.6610140">
        <ele>11.3</ele>
        <time>2021-05-23T11:51:18Z</time>
      </trkpt>
      <trkpt lat="42.7375950" lon="-8.6610170">
        <ele>11.3</ele>
        <time>2021-05-23T11:51:19Z</time>
      </trkpt>
      <trkpt lat="42.7375910" lon="-8.6610200">
        <ele>11.3</ele>
        <time>2021-05-23T11:51:20Z</time>
      </trkpt>
      <trkpt lat="42.7375910" lon="-8.6610180">
        <ele>11.3</ele>
        <time>2021-05-23T11:51:21Z</time>
      </trkpt>
      <trkpt lat="42.7375870" lon="-8.6610210">
        <ele>11.3</ele>
        <time>2021-05-23T11:51:22Z</time>
      </trkpt>
      <trkpt lat="42.7375870" lon="-8.6610210">
        <ele>11.3</ele>
        <time>2021-05-23T11:51:23Z</time>
      </trkpt>
      <trkpt lat="42.7375870" lon="-8.6610210">
        <ele>11.3</ele>
        <time>2021-05-23T11:51:24Z</time>
      </trkpt>
      <trkpt lat="42.7375830" lon="-8.6610290">
        <ele>11.3</ele>
        <time>2021-05-23T11:51:25Z</time>
      </trkpt>
      <trkpt lat="42.7375820" lon="-8.6610320">
        <ele>11.3</ele>
        <time>2021-05-23T11:51:26Z</time>
      </trkpt>
      <trkpt lat="42.7375800" lon="-8.6610310">
        <ele>11.3</ele>
        <time>2021-05-23T11:51:27Z</time>
      </trkpt>
      <trkpt lat="42.7375760" lon="-8.6610340">
        <ele>11.3</ele>
        <time>2021-05-23T11:51:28Z</time>
      </trkpt>
      <trkpt lat="42.7375770" lon="-8.6610340">
        <ele>11.3</ele>
        <time>2021-05-23T11:51:29Z</time>
      </trkpt>
      <trkpt lat="42.7375780" lon="-8.6610360">
        <ele>11.3</ele>
        <time>2021-05-23T11:51:30Z</time>
      </trkpt>
      <trkpt lat="42.7375800" lon="-8.6610350">
        <ele>11.3</ele>
        <time>2021-05-23T11:51:31Z</time>
      </trkpt>
      <trkpt lat="42.7375800" lon="-8.6610340">
        <ele>11.3</ele>
        <time>2021-05-23T11:51:32Z</time>
      </trkpt>
      <trkpt lat="42.7375820" lon="-8.6610340">
        <ele>11.3</ele>
        <time>2021-05-23T11:51:33Z</time>
      </trkpt>
      <trkpt lat="42.7375790" lon="-8.6610380">
        <ele>11.3</ele>
        <time>2021-05-23T11:51:34Z</time>
      </trkpt>
      <trkpt lat="42.7375780" lon="-8.6610360">
        <ele>11.3</ele>
        <time>2021-05-23T11:51:35Z</time>
      </trkpt>
      <trkpt lat="42.7375830" lon="-8.6610320">
        <ele>11.3</ele>
        <time>2021-05-23T11:51:36Z</time>
      </trkpt>
      <trkpt lat="42.7375820" lon="-8.6610330">
        <ele>11.3</ele>
        <time>2021-05-23T11:51:37Z</time>
      </trkpt>
      <trkpt lat="42.7375810" lon="-8.6610310">
        <ele>11.3</ele>
        <time>2021-05-23T11:51:38Z</time>
      </trkpt>
      <trkpt lat="42.7375830" lon="-8.6610260">
        <ele>11.3</ele>
        <time>2021-05-23T11:51:39Z</time>
      </trkpt>
      <trkpt lat="42.7375800" lon="-8.6610270">
        <ele>11.3</ele>
        <time>2021-05-23T11:51:40Z</time>
      </trkpt>
      <trkpt lat="42.7375810" lon="-8.6610230">
        <ele>11.3</ele>
        <time>2021-05-23T11:51:41Z</time>
      </trkpt>
      <trkpt lat="42.7375890" lon="-8.6610140">
        <ele>11.3</ele>
        <time>2021-05-23T11:51:42Z</time>
      </trkpt>
      <trkpt lat="42.7375930" lon="-8.6610090">
        <ele>11.3</ele>
        <time>2021-05-23T11:51:43Z</time>
      </trkpt>
      <trkpt lat="42.7375920" lon="-8.6610040">
        <ele>11.3</ele>
        <time>2021-05-23T11:51:44Z</time>
      </trkpt>
      <trkpt lat="42.7375910" lon="-8.6610010">
        <ele>11.3</ele>
        <time>2021-05-23T11:51:45Z</time>
      </trkpt>
      <trkpt lat="42.7375940" lon="-8.6609990">
        <ele>11.3</ele>
        <time>2021-05-23T11:51:46Z</time>
      </trkpt>
      <trkpt lat="42.7375910" lon="-8.6609960">
        <ele>11.3</ele>
        <time>2021-05-23T11:51:47Z</time>
      </trkpt>
      <trkpt lat="42.7375870" lon="-8.6610000">
        <ele>11.3</ele>
        <time>2021-05-23T11:51:48Z</time>
      </trkpt>
      <trkpt lat="42.7375870" lon="-8.6610000">
        <ele>11.3</ele>
        <time>2021-05-23T11:51:49Z</time>
      </trkpt>
      <trkpt lat="42.7375880" lon="-8.6610010">
        <ele>11.3</ele>
        <time>2021-05-23T11:51:50Z</time>
      </trkpt>
      <trkpt lat="42.7375870" lon="-8.6610040">
        <ele>11.3</ele>
        <time>2021-05-23T11:51:51Z</time>
      </trkpt>
      <trkpt lat="42.7375840" lon="-8.6610070">
        <ele>11.3</ele>
        <time>2021-05-23T11:51:52Z</time>
      </trkpt>
      <trkpt lat="42.7375820" lon="-8.6610040">
        <ele>11.3</ele>
        <time>2021-05-23T11:51:53Z</time>
      </trkpt>
      <trkpt lat="42.7375870" lon="-8.6610020">
        <ele>11.3</ele>
        <time>2021-05-23T11:51:54Z</time>
      </trkpt>
      <trkpt lat="42.7375880" lon="-8.6610000">
        <ele>11.3</ele>
        <time>2021-05-23T11:51:55Z</time>
      </trkpt>
      <trkpt lat="42.7375860" lon="-8.6610010">
        <ele>11.3</ele>
        <time>2021-05-23T11:51:56Z</time>
      </trkpt>
      <trkpt lat="42.7375840" lon="-8.6610000">
        <ele>11.3</ele>
        <time>2021-05-23T11:51:57Z</time>
      </trkpt>
      <trkpt lat="42.7375820" lon="-8.6609980">
        <ele>11.3</ele>
        <time>2021-05-23T11:51:58Z</time>
      </trkpt>
      <trkpt lat="42.7375790" lon="-8.6609960">
        <ele>11.3</ele>
        <time>2021-05-23T11:51:59Z</time>
      </trkpt>
      <trkpt lat="42.7375810" lon="-8.6609910">
        <ele>11.3</ele>
        <time>2021-05-23T11:52:00Z</time>
      </trkpt>
      <trkpt lat="42.7375770" lon="-8.6609900">
        <ele>11.3</ele>
        <time>2021-05-23T11:52:01Z</time>
      </trkpt>
      <trkpt lat="42.7375700" lon="-8.6609930">
        <ele>11.3</ele>
        <time>2021-05-23T11:52:02Z</time>
      </trkpt>
      <trkpt lat="42.7375720" lon="-8.6609910">
        <ele>11.3</ele>
        <time>2021-05-23T11:52:03Z</time>
      </trkpt>
      <trkpt lat="42.7375750" lon="-8.6609900">
        <ele>11.3</ele>
        <time>2021-05-23T11:52:04Z</time>
      </trkpt>
      <trkpt lat="42.7375730" lon="-8.6609900">
        <ele>11.3</ele>
        <time>2021-05-23T11:52:05Z</time>
      </trkpt>
      <trkpt lat="42.7375670" lon="-8.6609940">
        <ele>11.3</ele>
        <time>2021-05-23T11:52:06Z</time>
      </trkpt>
      <trkpt lat="42.7375700" lon="-8.6609920">
        <ele>11.3</ele>
        <time>2021-05-23T11:52:07Z</time>
      </trkpt>
      <trkpt lat="42.7375670" lon="-8.6609940">
        <ele>11.3</ele>
        <time>2021-05-23T11:52:08Z</time>
      </trkpt>
      <trkpt lat="42.7375640" lon="-8.6609950">
        <ele>11.3</ele>
        <time>2021-05-23T11:52:09Z</time>
      </trkpt>
      <trkpt lat="42.7375670" lon="-8.6609930">
        <ele>11.3</ele>
        <time>2021-05-23T11:52:10Z</time>
      </trkpt>
      <trkpt lat="42.7375690" lon="-8.6609910">
        <ele>11.3</ele>
        <time>2021-05-23T11:52:11Z</time>
      </trkpt>
      <trkpt lat="42.7375700" lon="-8.6609910">
        <ele>11.3</ele>
        <time>2021-05-23T11:52:12Z</time>
      </trkpt>
      <trkpt lat="42.7375680" lon="-8.6609930">
        <ele>11.3</ele>
        <time>2021-05-23T11:52:13Z</time>
      </trkpt>
      <trkpt lat="42.7375730" lon="-8.6609910">
        <ele>11.3</ele>
        <time>2021-05-23T11:52:14Z</time>
      </trkpt>
      <trkpt lat="42.7375760" lon="-8.6609880">
        <ele>11.3</ele>
        <time>2021-05-23T11:52:15Z</time>
      </trkpt>
      <trkpt lat="42.7375780" lon="-8.6609840">
        <ele>11.3</ele>
        <time>2021-05-23T11:52:16Z</time>
      </trkpt>
      <trkpt lat="42.7375810" lon="-8.6609800">
        <ele>11.3</ele>
        <time>2021-05-23T11:52:17Z</time>
      </trkpt>
      <trkpt lat="42.7375760" lon="-8.6609860">
        <ele>11.3</ele>
        <time>2021-05-23T11:52:18Z</time>
      </trkpt>
      <trkpt lat="42.7375780" lon="-8.6609860">
        <ele>11.3</ele>
        <time>2021-05-23T11:52:19Z</time>
      </trkpt>
      <trkpt lat="42.7375810" lon="-8.6609840">
        <ele>11.3</ele>
        <time>2021-05-23T11:52:20Z</time>
      </trkpt>
      <trkpt lat="42.7375810" lon="-8.6609870">
        <ele>11.3</ele>
        <time>2021-05-23T11:52:21Z</time>
      </trkpt>
      <trkpt lat="42.7375780" lon="-8.6609910">
        <ele>11.3</ele>
        <time>2021-05-23T11:52:22Z</time>
      </trkpt>
      <trkpt lat="42.7375770" lon="-8.6609910">
        <ele>11.3</ele>
        <time>2021-05-23T11:52:23Z</time>
      </trkpt>
      <trkpt lat="42.7375750" lon="-8.6609920">
        <ele>11.3</ele>
        <time>2021-05-23T11:52:24Z</time>
      </trkpt>
      <trkpt lat="42.7375760" lon="-8.6609900">
        <ele>11.3</ele>
        <time>2021-05-23T11:52:25Z</time>
      </trkpt>
      <trkpt lat="42.7375770" lon="-8.6609890">
        <ele>11.3</ele>
        <time>2021-05-23T11:52:26Z</time>
      </trkpt>
      <trkpt lat="42.7375690" lon="-8.6609930">
        <ele>11.3</ele>
        <time>2021-05-23T11:52:27Z</time>
      </trkpt>
      <trkpt lat="42.7375690" lon="-8.6609920">
        <ele>11.3</ele>
        <time>2021-05-23T11:52:28Z</time>
      </trkpt>
      <trkpt lat="42.7375750" lon="-8.6609860">
        <ele>11.3</ele>
        <time>2021-05-23T11:52:29Z</time>
      </trkpt>
      <trkpt lat="42.7375760" lon="-8.6609840">
        <ele>11.3</ele>
        <time>2021-05-23T11:52:30Z</time>
      </trkpt>
      <trkpt lat="42.7375800" lon="-8.6609820">
        <ele>11.3</ele>
        <time>2021-05-23T11:52:31Z</time>
      </trkpt>
      <trkpt lat="42.7375810" lon="-8.6609770">
        <ele>11.3</ele>
        <time>2021-05-23T11:52:32Z</time>
      </trkpt>
      <trkpt lat="42.7375840" lon="-8.6609750">
        <ele>11.3</ele>
        <time>2021-05-23T11:52:33Z</time>
      </trkpt>
      <trkpt lat="42.7375850" lon="-8.6609730">
        <ele>11.3</ele>
        <time>2021-05-23T11:52:34Z</time>
      </trkpt>
      <trkpt lat="42.7375840" lon="-8.6609730">
        <ele>11.3</ele>
        <time>2021-05-23T11:52:35Z</time>
      </trkpt>
      <trkpt lat="42.7375870" lon="-8.6609710">
        <ele>11.3</ele>
        <time>2021-05-23T11:52:36Z</time>
      </trkpt>
      <trkpt lat="42.7375870" lon="-8.6609710">
        <ele>11.3</ele>
        <time>2021-05-23T11:52:37Z</time>
      </trkpt>
      <trkpt lat="42.7375870" lon="-8.6609720">
        <ele>11.3</ele>
        <time>2021-05-23T11:52:38Z</time>
      </trkpt>
      <trkpt lat="42.7375860" lon="-8.6609710">
        <ele>11.3</ele>
        <time>2021-05-23T11:52:39Z</time>
      </trkpt>
      <trkpt lat="42.7375850" lon="-8.6609720">
        <ele>11.3</ele>
        <time>2021-05-23T11:52:40Z</time>
      </trkpt>
      <trkpt lat="42.7375870" lon="-8.6609670">
        <ele>11.3</ele>
        <time>2021-05-23T11:52:41Z</time>
      </trkpt>
      <trkpt lat="42.7375890" lon="-8.6609640">
        <ele>11.3</ele>
        <time>2021-05-23T11:52:42Z</time>
      </trkpt>
      <trkpt lat="42.7375950" lon="-8.6609620">
        <ele>11.3</ele>
        <time>2021-05-23T11:52:43Z</time>
      </trkpt>
      <trkpt lat="42.7375970" lon="-8.6609640">
        <ele>11.3</ele>
        <time>2021-05-23T11:52:44Z</time>
      </trkpt>
      <trkpt lat="42.7375990" lon="-8.6609650">
        <ele>11.3</ele>
        <time>2021-05-23T11:52:45Z</time>
      </trkpt>
      <trkpt lat="42.7376010" lon="-8.6609670">
        <ele>11.3</ele>
        <time>2021-05-23T11:52:46Z</time>
      </trkpt>
      <trkpt lat="42.7376030" lon="-8.6609680">
        <ele>11.3</ele>
        <time>2021-05-23T11:52:47Z</time>
      </trkpt>
      <trkpt lat="42.7376050" lon="-8.6609700">
        <ele>11.3</ele>
        <time>2021-05-23T11:52:48Z</time>
      </trkpt>
      <trkpt lat="42.7376070" lon="-8.6609710">
        <ele>11.3</ele>
        <time>2021-05-23T11:52:49Z</time>
      </trkpt>
      <trkpt lat="42.7376100" lon="-8.6609720">
        <ele>11.3</ele>
        <time>2021-05-23T11:52:50Z</time>
      </trkpt>
      <trkpt lat="42.7376120" lon="-8.6609740">
        <ele>11.3</ele>
        <time>2021-05-23T11:52:51Z</time>
      </trkpt>
      <trkpt lat="42.7376140" lon="-8.6609750">
        <ele>11.3</ele>
        <time>2021-05-23T11:52:52Z</time>
      </trkpt>
      <trkpt lat="42.7376160" lon="-8.6609770">
        <ele>11.3</ele>
        <time>2021-05-23T11:52:53Z</time>
      </trkpt>
      <trkpt lat="42.7376180" lon="-8.6609780">
        <ele>11.3</ele>
        <time>2021-05-23T11:52:54Z</time>
      </trkpt>
      <trkpt lat="42.7376200" lon="-8.6609800">
        <ele>11.3</ele>
        <time>2021-05-23T11:52:55Z</time>
      </trkpt>
      <trkpt lat="42.7376220" lon="-8.6609810">
        <ele>11.3</ele>
        <time>2021-05-23T11:52:56Z</time>
      </trkpt>
      <trkpt lat="42.7376240" lon="-8.6609830">
        <ele>11.3</ele>
        <time>2021-05-23T11:52:57Z</time>
      </trkpt>
      <trkpt lat="42.7376260" lon="-8.6609840">
        <ele>11.3</ele>
        <time>2021-05-23T11:52:58Z</time>
      </trkpt>
      <trkpt lat="42.7376240" lon="-8.6609870">
        <ele>11.3</ele>
        <time>2021-05-23T11:52:59Z</time>
      </trkpt>
      <trkpt lat="42.7376330" lon="-8.6609840">
        <ele>11.3</ele>
        <time>2021-05-23T11:53:00Z</time>
      </trkpt>
      <trkpt lat="42.7376270" lon="-8.6609850">
        <ele>11.3</ele>
        <time>2021-05-23T11:53:01Z</time>
      </trkpt>
      <trkpt lat="42.7376280" lon="-8.6609860">
        <ele>11.3</ele>
        <time>2021-05-23T11:53:02Z</time>
      </trkpt>
      <trkpt lat="42.7376340" lon="-8.6609870">
        <ele>11.3</ele>
        <time>2021-05-23T11:53:03Z</time>
      </trkpt>
      <trkpt lat="42.7376440" lon="-8.6609860">
        <ele>11.3</ele>
        <time>2021-05-23T11:53:04Z</time>
      </trkpt>
      <trkpt lat="42.7376490" lon="-8.6609830">
        <ele>11.3</ele>
        <time>2021-05-23T11:53:05Z</time>
      </trkpt>
      <trkpt lat="42.7376450" lon="-8.6609930">
        <ele>11.3</ele>
        <time>2021-05-23T11:53:06Z</time>
      </trkpt>
      <trkpt lat="42.7376490" lon="-8.6610170">
        <ele>11.3</ele>
        <time>2021-05-23T11:53:07Z</time>
      </trkpt>
      <trkpt lat="42.7376350" lon="-8.6610200">
        <ele>11.3</ele>
        <time>2021-05-23T11:53:08Z</time>
      </trkpt>
      <trkpt lat="42.7376490" lon="-8.6610200">
        <ele>11.3</ele>
        <time>2021-05-23T11:53:09Z</time>
      </trkpt>
      <trkpt lat="42.7376500" lon="-8.6610300">
        <ele>11.3</ele>
        <time>2021-05-23T11:53:10Z</time>
      </trkpt>
      <trkpt lat="42.7376500" lon="-8.6610430">
        <ele>11.3</ele>
        <time>2021-05-23T11:53:11Z</time>
      </trkpt>
      <trkpt lat="42.7376440" lon="-8.6610450">
        <ele>11.3</ele>
        <time>2021-05-23T11:53:12Z</time>
      </trkpt>
      <trkpt lat="42.7376440" lon="-8.6610450">
        <ele>11.3</ele>
        <time>2021-05-23T11:53:13Z</time>
      </trkpt>
      <trkpt lat="42.7376440" lon="-8.6610490">
        <ele>11.3</ele>
        <time>2021-05-23T11:53:14Z</time>
      </trkpt>
      <trkpt lat="42.7376430" lon="-8.6610570">
        <ele>11.3</ele>
        <time>2021-05-23T11:53:15Z</time>
      </trkpt>
      <trkpt lat="42.7376430" lon="-8.6610560">
        <ele>11.3</ele>
        <time>2021-05-23T11:53:16Z</time>
      </trkpt>
      <trkpt lat="42.7376440" lon="-8.6610580">
        <ele>11.3</ele>
        <time>2021-05-23T11:53:17Z</time>
      </trkpt>
      <trkpt lat="42.7376410" lon="-8.6610540">
        <ele>11.3</ele>
        <time>2021-05-23T11:53:18Z</time>
      </trkpt>
      <trkpt lat="42.7376420" lon="-8.6610520">
        <ele>11.3</ele>
        <time>2021-05-23T11:53:19Z</time>
      </trkpt>
      <trkpt lat="42.7376390" lon="-8.6610500">
        <ele>11.3</ele>
        <time>2021-05-23T11:53:20Z</time>
      </trkpt>
      <trkpt lat="42.7376430" lon="-8.6610470">
        <ele>11.3</ele>
        <time>2021-05-23T11:53:21Z</time>
      </trkpt>
      <trkpt lat="42.7376450" lon="-8.6610440">
        <ele>11.3</ele>
        <time>2021-05-23T11:53:22Z</time>
      </trkpt>
      <trkpt lat="42.7376430" lon="-8.6610480">
        <ele>11.3</ele>
        <time>2021-05-23T11:53:23Z</time>
      </trkpt>
      <trkpt lat="42.7376410" lon="-8.6610500">
        <ele>11.3</ele>
        <time>2021-05-23T11:53:24Z</time>
      </trkpt>
      <trkpt lat="42.7376430" lon="-8.6610420">
        <ele>11.3</ele>
        <time>2021-05-23T11:53:25Z</time>
      </trkpt>
      <trkpt lat="42.7376430" lon="-8.6610420">
        <ele>11.3</ele>
        <time>2021-05-23T11:53:26Z</time>
      </trkpt>
      <trkpt lat="42.7376370" lon="-8.6610300">
        <ele>11.3</ele>
        <time>2021-05-23T11:53:27Z</time>
      </trkpt>
      <trkpt lat="42.7376320" lon="-8.6610210">
        <ele>11.3</ele>
        <time>2021-05-23T11:53:28Z</time>
      </trkpt>
      <trkpt lat="42.7376230" lon="-8.6610290">
        <ele>11.3</ele>
        <time>2021-05-23T11:53:29Z</time>
      </trkpt>
      <trkpt lat="42.7376160" lon="-8.6610370">
        <ele>11.3</ele>
        <time>2021-05-23T11:53:30Z</time>
      </trkpt>
      <trkpt lat="42.7376160" lon="-8.6610320">
        <ele>11.3</ele>
        <time>2021-05-23T11:53:31Z</time>
      </trkpt>
      <trkpt lat="42.7376160" lon="-8.6610300">
        <ele>11.3</ele>
        <time>2021-05-23T11:53:32Z</time>
      </trkpt>
      <trkpt lat="42.7376140" lon="-8.6610260">
        <ele>11.3</ele>
        <time>2021-05-23T11:53:33Z</time>
      </trkpt>
      <trkpt lat="42.7376160" lon="-8.6610260">
        <ele>11.3</ele>
        <time>2021-05-23T11:53:34Z</time>
      </trkpt>
      <trkpt lat="42.7376200" lon="-8.6610250">
        <ele>11.3</ele>
        <time>2021-05-23T11:53:35Z</time>
      </trkpt>
      <trkpt lat="42.7376150" lon="-8.6610270">
        <ele>11.3</ele>
        <time>2021-05-23T11:53:36Z</time>
      </trkpt>
      <trkpt lat="42.7376160" lon="-8.6610310">
        <ele>11.3</ele>
        <time>2021-05-23T11:53:37Z</time>
      </trkpt>
      <trkpt lat="42.7376190" lon="-8.6610330">
        <ele>11.3</ele>
        <time>2021-05-23T11:53:38Z</time>
      </trkpt>
      <trkpt lat="42.7376190" lon="-8.6610330">
        <ele>11.3</ele>
        <time>2021-05-23T11:53:39Z</time>
      </trkpt>
      <trkpt lat="42.7376180" lon="-8.6610320">
        <ele>11.3</ele>
        <time>2021-05-23T11:53:40Z</time>
      </trkpt>
      <trkpt lat="42.7376250" lon="-8.6610300">
        <ele>11.3</ele>
        <time>2021-05-23T11:53:41Z</time>
      </trkpt>
      <trkpt lat="42.7376250" lon="-8.6610300">
        <ele>11.3</ele>
        <time>2021-05-23T11:53:42Z</time>
      </trkpt>
      <trkpt lat="42.7376260" lon="-8.6610300">
        <ele>11.3</ele>
        <time>2021-05-23T11:53:43Z</time>
      </trkpt>
      <trkpt lat="42.7376310" lon="-8.6610360">
        <ele>11.3</ele>
        <time>2021-05-23T11:53:44Z</time>
      </trkpt>
      <trkpt lat="42.7376330" lon="-8.6610380">
        <ele>11.3</ele>
        <time>2021-05-23T11:53:45Z</time>
      </trkpt>
      <trkpt lat="42.7376360" lon="-8.6610400">
        <ele>11.3</ele>
        <time>2021-05-23T11:53:46Z</time>
      </trkpt>
      <trkpt lat="42.7376410" lon="-8.6610470">
        <ele>11.3</ele>
        <time>2021-05-23T11:53:47Z</time>
      </trkpt>
      <trkpt lat="42.7376450" lon="-8.6610470">
        <ele>11.3</ele>
        <time>2021-05-23T11:53:48Z</time>
      </trkpt>
      <trkpt lat="42.7376470" lon="-8.6610460">
        <ele>11.3</ele>
        <time>2021-05-23T11:53:49Z</time>
      </trkpt>
      <trkpt lat="42.7376510" lon="-8.6610520">
        <ele>11.3</ele>
        <time>2021-05-23T11:53:50Z</time>
      </trkpt>
      <trkpt lat="42.7376530" lon="-8.6610620">
        <ele>11.3</ele>
        <time>2021-05-23T11:53:51Z</time>
      </trkpt>
      <trkpt lat="42.7376530" lon="-8.6610680">
        <ele>11.3</ele>
        <time>2021-05-23T11:53:52Z</time>
      </trkpt>
      <trkpt lat="42.7376530" lon="-8.6610600">
        <ele>11.3</ele>
        <time>2021-05-23T11:53:53Z</time>
      </trkpt>
      <trkpt lat="42.7376550" lon="-8.6610550">
        <ele>11.3</ele>
        <time>2021-05-23T11:53:54Z</time>
      </trkpt>
      <trkpt lat="42.7376570" lon="-8.6610570">
        <ele>11.3</ele>
        <time>2021-05-23T11:53:55Z</time>
      </trkpt>
      <trkpt lat="42.7376600" lon="-8.6610610">
        <ele>11.3</ele>
        <time>2021-05-23T11:53:56Z</time>
      </trkpt>
      <trkpt lat="42.7376550" lon="-8.6610690">
        <ele>11.3</ele>
        <time>2021-05-23T11:53:57Z</time>
      </trkpt>
      <trkpt lat="42.7376550" lon="-8.6610690">
        <ele>11.3</ele>
        <time>2021-05-23T11:53:58Z</time>
      </trkpt>
      <trkpt lat="42.7376520" lon="-8.6610660">
        <ele>11.3</ele>
        <time>2021-05-23T11:53:59Z</time>
      </trkpt>
      <trkpt lat="42.7376510" lon="-8.6610630">
        <ele>11.3</ele>
        <time>2021-05-23T11:54:00Z</time>
      </trkpt>
      <trkpt lat="42.7376490" lon="-8.6610680">
        <ele>11.3</ele>
        <time>2021-05-23T11:54:01Z</time>
      </trkpt>
      <trkpt lat="42.7376440" lon="-8.6610700">
        <ele>11.3</ele>
        <time>2021-05-23T11:54:02Z</time>
      </trkpt>
      <trkpt lat="42.7376390" lon="-8.6610710">
        <ele>11.3</ele>
        <time>2021-05-23T11:54:03Z</time>
      </trkpt>
      <trkpt lat="42.7376390" lon="-8.6610720">
        <ele>11.3</ele>
        <time>2021-05-23T11:54:04Z</time>
      </trkpt>
      <trkpt lat="42.7376340" lon="-8.6610810">
        <ele>11.3</ele>
        <time>2021-05-23T11:54:05Z</time>
      </trkpt>
      <trkpt lat="42.7376340" lon="-8.6610840">
        <ele>11.3</ele>
        <time>2021-05-23T11:54:06Z</time>
      </trkpt>
      <trkpt lat="42.7376330" lon="-8.6610810">
        <ele>11.3</ele>
        <time>2021-05-23T11:54:07Z</time>
      </trkpt>
      <trkpt lat="42.7376290" lon="-8.6610770">
        <ele>11.3</ele>
        <time>2021-05-23T11:54:08Z</time>
      </trkpt>
      <trkpt lat="42.7376300" lon="-8.6610700">
        <ele>11.3</ele>
        <time>2021-05-23T11:54:09Z</time>
      </trkpt>
      <trkpt lat="42.7376350" lon="-8.6610700">
        <ele>11.3</ele>
        <time>2021-05-23T11:54:10Z</time>
      </trkpt>
      <trkpt lat="42.7376350" lon="-8.6610740">
        <ele>11.3</ele>
        <time>2021-05-23T11:54:11Z</time>
      </trkpt>
      <trkpt lat="42.7376370" lon="-8.6610740">
        <ele>11.3</ele>
        <time>2021-05-23T11:54:12Z</time>
      </trkpt>
      <trkpt lat="42.7376380" lon="-8.6610690">
        <ele>11.3</ele>
        <time>2021-05-23T11:54:13Z</time>
      </trkpt>
      <trkpt lat="42.7376410" lon="-8.6610630">
        <ele>11.3</ele>
        <time>2021-05-23T11:54:14Z</time>
      </trkpt>
      <trkpt lat="42.7376450" lon="-8.6610690">
        <ele>11.3</ele>
        <time>2021-05-23T11:54:15Z</time>
      </trkpt>
      <trkpt lat="42.7376430" lon="-8.6610690">
        <ele>11.3</ele>
        <time>2021-05-23T11:54:16Z</time>
      </trkpt>
      <trkpt lat="42.7376440" lon="-8.6610680">
        <ele>11.3</ele>
        <time>2021-05-23T11:54:17Z</time>
      </trkpt>
      <trkpt lat="42.7376440" lon="-8.6610670">
        <ele>11.3</ele>
        <time>2021-05-23T11:54:18Z</time>
      </trkpt>
      <trkpt lat="42.7376440" lon="-8.6610660">
        <ele>11.3</ele>
        <time>2021-05-23T11:54:19Z</time>
      </trkpt>
      <trkpt lat="42.7376450" lon="-8.6610690">
        <ele>11.3</ele>
        <time>2021-05-23T11:54:20Z</time>
      </trkpt>
      <trkpt lat="42.7376430" lon="-8.6610740">
        <ele>11.3</ele>
        <time>2021-05-23T11:54:21Z</time>
      </trkpt>
      <trkpt lat="42.7376440" lon="-8.6610810">
        <ele>11.3</ele>
        <time>2021-05-23T11:54:22Z</time>
      </trkpt>
      <trkpt lat="42.7376400" lon="-8.6610790">
        <ele>11.3</ele>
        <time>2021-05-23T11:54:23Z</time>
      </trkpt>
      <trkpt lat="42.7376400" lon="-8.6610800">
        <ele>11.3</ele>
        <time>2021-05-23T11:54:24Z</time>
      </trkpt>
      <trkpt lat="42.7376350" lon="-8.6610840">
        <ele>11.3</ele>
        <time>2021-05-23T11:54:25Z</time>
      </trkpt>
      <trkpt lat="42.7376320" lon="-8.6610890">
        <ele>11.3</ele>
        <time>2021-05-23T11:54:26Z</time>
      </trkpt>
      <trkpt lat="42.7376300" lon="-8.6610960">
        <ele>11.3</ele>
        <time>2021-05-23T11:54:27Z</time>
      </trkpt>
      <trkpt lat="42.7376340" lon="-8.6610980">
        <ele>11.3</ele>
        <time>2021-05-23T11:54:28Z</time>
      </trkpt>
      <trkpt lat="42.7376290" lon="-8.6610910">
        <ele>11.3</ele>
        <time>2021-05-23T11:54:29Z</time>
      </trkpt>
      <trkpt lat="42.7376310" lon="-8.6610890">
        <ele>11.3</ele>
        <time>2021-05-23T11:54:30Z</time>
      </trkpt>
      <trkpt lat="42.7376290" lon="-8.6610890">
        <ele>11.3</ele>
        <time>2021-05-23T11:54:31Z</time>
      </trkpt>
      <trkpt lat="42.7376290" lon="-8.6610880">
        <ele>11.3</ele>
        <time>2021-05-23T11:54:32Z</time>
      </trkpt>
      <trkpt lat="42.7376290" lon="-8.6610950">
        <ele>11.3</ele>
        <time>2021-05-23T11:54:33Z</time>
      </trkpt>
      <trkpt lat="42.7376300" lon="-8.6611010">
        <ele>11.3</ele>
        <time>2021-05-23T11:54:34Z</time>
      </trkpt>
      <trkpt lat="42.7376280" lon="-8.6610840">
        <ele>11.3</ele>
        <time>2021-05-23T11:54:35Z</time>
      </trkpt>
      <trkpt lat="42.7376190" lon="-8.6610650">
        <ele>11.3</ele>
        <time>2021-05-23T11:54:36Z</time>
      </trkpt>
      <trkpt lat="42.7376180" lon="-8.6610670">
        <ele>11.3</ele>
        <time>2021-05-23T11:54:37Z</time>
      </trkpt>
      <trkpt lat="42.7376170" lon="-8.6610760">
        <ele>11.3</ele>
        <time>2021-05-23T11:54:38Z</time>
      </trkpt>
      <trkpt lat="42.7376100" lon="-8.6610680">
        <ele>11.3</ele>
        <time>2021-05-23T11:54:39Z</time>
      </trkpt>
      <trkpt lat="42.7376070" lon="-8.6610480">
        <ele>11.3</ele>
        <time>2021-05-23T11:54:40Z</time>
      </trkpt>
      <trkpt lat="42.7376060" lon="-8.6610350">
        <ele>11.3</ele>
        <time>2021-05-23T11:54:41Z</time>
      </trkpt>
      <trkpt lat="42.7376020" lon="-8.6610210">
        <ele>11.3</ele>
        <time>2021-05-23T11:54:42Z</time>
      </trkpt>
      <trkpt lat="42.7376010" lon="-8.6610210">
        <ele>11.3</ele>
        <time>2021-05-23T11:54:43Z</time>
      </trkpt>
      <trkpt lat="42.7376020" lon="-8.6610280">
        <ele>11.3</ele>
        <time>2021-05-23T11:54:44Z</time>
      </trkpt>
      <trkpt lat="42.7376000" lon="-8.6610220">
        <ele>11.3</ele>
        <time>2021-05-23T11:54:45Z</time>
      </trkpt>
      <trkpt lat="42.7376000" lon="-8.6610280">
        <ele>11.3</ele>
        <time>2021-05-23T11:54:46Z</time>
      </trkpt>
      <trkpt lat="42.7375940" lon="-8.6610140">
        <ele>11.3</ele>
        <time>2021-05-23T11:54:47Z</time>
      </trkpt>
      <trkpt lat="42.7375920" lon="-8.6610040">
        <ele>11.3</ele>
        <time>2021-05-23T11:54:48Z</time>
      </trkpt>
      <trkpt lat="42.7375930" lon="-8.6610090">
        <ele>11.3</ele>
        <time>2021-05-23T11:54:49Z</time>
      </trkpt>
      <trkpt lat="42.7375970" lon="-8.6610080">
        <ele>11.3</ele>
        <time>2021-05-23T11:54:50Z</time>
      </trkpt>
      <trkpt lat="42.7376000" lon="-8.6610070">
        <ele>11.3</ele>
        <time>2021-05-23T11:54:51Z</time>
      </trkpt>
      <trkpt lat="42.7376040" lon="-8.6610240">
        <ele>11.3</ele>
        <time>2021-05-23T11:54:52Z</time>
      </trkpt>
      <trkpt lat="42.7376000" lon="-8.6610080">
        <ele>11.3</ele>
        <time>2021-05-23T11:54:53Z</time>
      </trkpt>
      <trkpt lat="42.7375950" lon="-8.6609950">
        <ele>11.3</ele>
        <time>2021-05-23T11:54:54Z</time>
      </trkpt>
      <trkpt lat="42.7375950" lon="-8.6609850">
        <ele>11.3</ele>
        <time>2021-05-23T11:54:55Z</time>
      </trkpt>
      <trkpt lat="42.7375990" lon="-8.6609740">
        <ele>11.3</ele>
        <time>2021-05-23T11:54:56Z</time>
      </trkpt>
      <trkpt lat="42.7375960" lon="-8.6609840">
        <ele>11.3</ele>
        <time>2021-05-23T11:54:57Z</time>
      </trkpt>
      <trkpt lat="42.7375920" lon="-8.6609770">
        <ele>11.3</ele>
        <time>2021-05-23T11:54:58Z</time>
      </trkpt>
      <trkpt lat="42.7375920" lon="-8.6609610">
        <ele>11.3</ele>
        <time>2021-05-23T11:54:59Z</time>
      </trkpt>
      <trkpt lat="42.7375910" lon="-8.6609590">
        <ele>11.3</ele>
        <time>2021-05-23T11:55:00Z</time>
      </trkpt>
      <trkpt lat="42.7375880" lon="-8.6609690">
        <ele>11.3</ele>
        <time>2021-05-23T11:55:01Z</time>
      </trkpt>
      <trkpt lat="42.7375870" lon="-8.6609670">
        <ele>11.3</ele>
        <time>2021-05-23T11:55:02Z</time>
      </trkpt>
      <trkpt lat="42.7375970" lon="-8.6609640">
        <ele>11.3</ele>
        <time>2021-05-23T11:55:03Z</time>
      </trkpt>
      <trkpt lat="42.7375930" lon="-8.6609780">
        <ele>11.3</ele>
        <time>2021-05-23T11:55:04Z</time>
      </trkpt>
      <trkpt lat="42.7375910" lon="-8.6609980">
        <ele>11.3</ele>
        <time>2021-05-23T11:55:05Z</time>
      </trkpt>
      <trkpt lat="42.7375920" lon="-8.6610020">
        <ele>11.3</ele>
        <time>2021-05-23T11:55:06Z</time>
      </trkpt>
      <trkpt lat="42.7375920" lon="-8.6610090">
        <ele>11.3</ele>
        <time>2021-05-23T11:55:07Z</time>
      </trkpt>
      <trkpt lat="42.7375940" lon="-8.6610110">
        <ele>11.3</ele>
        <time>2021-05-23T11:55:08Z</time>
      </trkpt>
      <trkpt lat="42.7376000" lon="-8.6610120">
        <ele>11.3</ele>
        <time>2021-05-23T11:55:09Z</time>
      </trkpt>
      <trkpt lat="42.7376060" lon="-8.6610000">
        <ele>11.3</ele>
        <time>2021-05-23T11:55:10Z</time>
      </trkpt>
      <trkpt lat="42.7376000" lon="-8.6609850">
        <ele>11.3</ele>
        <time>2021-05-23T11:55:11Z</time>
      </trkpt>
      <trkpt lat="42.7376000" lon="-8.6609850">
        <ele>11.3</ele>
        <time>2021-05-23T11:55:12Z</time>
      </trkpt>
      <trkpt lat="42.7375940" lon="-8.6609970">
        <ele>11.3</ele>
        <time>2021-05-23T11:55:13Z</time>
      </trkpt>
      <trkpt lat="42.7375870" lon="-8.6610050">
        <ele>11.3</ele>
        <time>2021-05-23T11:55:14Z</time>
      </trkpt>
      <trkpt lat="42.7375840" lon="-8.6609990">
        <ele>11.3</ele>
        <time>2021-05-23T11:55:15Z</time>
      </trkpt>
      <trkpt lat="42.7375940" lon="-8.6609950">
        <ele>11.3</ele>
        <time>2021-05-23T11:55:16Z</time>
      </trkpt>
      <trkpt lat="42.7375980" lon="-8.6609930">
        <ele>11.3</ele>
        <time>2021-05-23T11:55:17Z</time>
      </trkpt>
      <trkpt lat="42.7375980" lon="-8.6610000">
        <ele>11.3</ele>
        <time>2021-05-23T11:55:18Z</time>
      </trkpt>
      <trkpt lat="42.7375970" lon="-8.6609950">
        <ele>11.3</ele>
        <time>2021-05-23T11:55:19Z</time>
      </trkpt>
      <trkpt lat="42.7375930" lon="-8.6609900">
        <ele>11.3</ele>
        <time>2021-05-23T11:55:20Z</time>
      </trkpt>
      <trkpt lat="42.7375960" lon="-8.6609800">
        <ele>11.3</ele>
        <time>2021-05-23T11:55:21Z</time>
      </trkpt>
      <trkpt lat="42.7375920" lon="-8.6609810">
        <ele>11.3</ele>
        <time>2021-05-23T11:55:22Z</time>
      </trkpt>
      <trkpt lat="42.7375890" lon="-8.6609810">
        <ele>11.3</ele>
        <time>2021-05-23T11:55:23Z</time>
      </trkpt>
      <trkpt lat="42.7375850" lon="-8.6609760">
        <ele>11.3</ele>
        <time>2021-05-23T11:55:24Z</time>
      </trkpt>
      <trkpt lat="42.7375850" lon="-8.6609710">
        <ele>11.3</ele>
        <time>2021-05-23T11:55:25Z</time>
      </trkpt>
      <trkpt lat="42.7375850" lon="-8.6609680">
        <ele>11.3</ele>
        <time>2021-05-23T11:55:26Z</time>
      </trkpt>
      <trkpt lat="42.7375820" lon="-8.6609670">
        <ele>11.3</ele>
        <time>2021-05-23T11:55:27Z</time>
      </trkpt>
      <trkpt lat="42.7375840" lon="-8.6609760">
        <ele>11.3</ele>
        <time>2021-05-23T11:55:28Z</time>
      </trkpt>
      <trkpt lat="42.7375900" lon="-8.6609810">
        <ele>11.3</ele>
        <time>2021-05-23T11:55:29Z</time>
      </trkpt>
      <trkpt lat="42.7375950" lon="-8.6610030">
        <ele>11.3</ele>
        <time>2021-05-23T11:55:30Z</time>
      </trkpt>
      <trkpt lat="42.7375950" lon="-8.6610030">
        <ele>11.3</ele>
        <time>2021-05-23T11:55:31Z</time>
      </trkpt>
      <trkpt lat="42.7375900" lon="-8.6609960">
        <ele>11.3</ele>
        <time>2021-05-23T11:55:32Z</time>
      </trkpt>
      <trkpt lat="42.7375900" lon="-8.6609970">
        <ele>11.3</ele>
        <time>2021-05-23T11:55:33Z</time>
      </trkpt>
      <trkpt lat="42.7375880" lon="-8.6609980">
        <ele>11.3</ele>
        <time>2021-05-23T11:55:34Z</time>
      </trkpt>
      <trkpt lat="42.7375800" lon="-8.6609910">
        <ele>11.3</ele>
        <time>2021-05-23T11:55:35Z</time>
      </trkpt>
      <trkpt lat="42.7375730" lon="-8.6609870">
        <ele>11.3</ele>
        <time>2021-05-23T11:55:36Z</time>
      </trkpt>
      <trkpt lat="42.7375710" lon="-8.6609930">
        <ele>11.3</ele>
        <time>2021-05-23T11:55:37Z</time>
      </trkpt>
      <trkpt lat="42.7375740" lon="-8.6610020">
        <ele>11.3</ele>
        <time>2021-05-23T11:55:38Z</time>
      </trkpt>
      <trkpt lat="42.7375750" lon="-8.6609940">
        <ele>11.3</ele>
        <time>2021-05-23T11:55:39Z</time>
      </trkpt>
      <trkpt lat="42.7375810" lon="-8.6610030">
        <ele>11.3</ele>
        <time>2021-05-23T11:55:40Z</time>
      </trkpt>
      <trkpt lat="42.7375840" lon="-8.6610060">
        <ele>11.3</ele>
        <time>2021-05-23T11:55:41Z</time>
      </trkpt>
      <trkpt lat="42.7375840" lon="-8.6610200">
        <ele>11.3</ele>
        <time>2021-05-23T11:55:42Z</time>
      </trkpt>
      <trkpt lat="42.7375850" lon="-8.6610240">
        <ele>11.3</ele>
        <time>2021-05-23T11:55:43Z</time>
      </trkpt>
      <trkpt lat="42.7375980" lon="-8.6610620">
        <ele>11.3</ele>
        <time>2021-05-23T11:55:44Z</time>
      </trkpt>
      <trkpt lat="42.7375940" lon="-8.6610650">
        <ele>11.3</ele>
        <time>2021-05-23T11:55:45Z</time>
      </trkpt>
      <trkpt lat="42.7375900" lon="-8.6610670">
        <ele>11.3</ele>
        <time>2021-05-23T11:55:46Z</time>
      </trkpt>
      <trkpt lat="42.7375900" lon="-8.6610660">
        <ele>11.3</ele>
        <time>2021-05-23T11:55:47Z</time>
      </trkpt>
      <trkpt lat="42.7375920" lon="-8.6610700">
        <ele>11.3</ele>
        <time>2021-05-23T11:55:48Z</time>
      </trkpt>
      <trkpt lat="42.7375900" lon="-8.6610670">
        <ele>11.3</ele>
        <time>2021-05-23T11:55:49Z</time>
      </trkpt>
      <trkpt lat="42.7375930" lon="-8.6610620">
        <ele>11.3</ele>
        <time>2021-05-23T11:55:50Z</time>
      </trkpt>
      <trkpt lat="42.7375940" lon="-8.6610650">
        <ele>11.3</ele>
        <time>2021-05-23T11:55:51Z</time>
      </trkpt>
      <trkpt lat="42.7375970" lon="-8.6610700">
        <ele>11.3</ele>
        <time>2021-05-23T11:55:52Z</time>
      </trkpt>
      <trkpt lat="42.7375930" lon="-8.6610600">
        <ele>11.3</ele>
        <time>2021-05-23T11:55:53Z</time>
      </trkpt>
      <trkpt lat="42.7375890" lon="-8.6610490">
        <ele>11.3</ele>
        <time>2021-05-23T11:55:54Z</time>
      </trkpt>
      <trkpt lat="42.7375860" lon="-8.6610430">
        <ele>11.3</ele>
        <time>2021-05-23T11:55:55Z</time>
      </trkpt>
      <trkpt lat="42.7375830" lon="-8.6610310">
        <ele>11.3</ele>
        <time>2021-05-23T11:55:56Z</time>
      </trkpt>
      <trkpt lat="42.7375810" lon="-8.6610130">
        <ele>11.3</ele>
        <time>2021-05-23T11:55:57Z</time>
      </trkpt>
      <trkpt lat="42.7375790" lon="-8.6610110">
        <ele>11.3</ele>
        <time>2021-05-23T11:55:58Z</time>
      </trkpt>
      <trkpt lat="42.7375780" lon="-8.6610100">
        <ele>11.3</ele>
        <time>2021-05-23T11:55:59Z</time>
      </trkpt>
      <trkpt lat="42.7375760" lon="-8.6610090">
        <ele>11.3</ele>
        <time>2021-05-23T11:56:00Z</time>
      </trkpt>
      <trkpt lat="42.7375750" lon="-8.6610130">
        <ele>11.3</ele>
        <time>2021-05-23T11:56:01Z</time>
      </trkpt>
      <trkpt lat="42.7375730" lon="-8.6610210">
        <ele>11.3</ele>
        <time>2021-05-23T11:56:02Z</time>
      </trkpt>
      <trkpt lat="42.7375760" lon="-8.6610230">
        <ele>11.3</ele>
        <time>2021-05-23T11:56:03Z</time>
      </trkpt>
      <trkpt lat="42.7375820" lon="-8.6610400">
        <ele>11.3</ele>
        <time>2021-05-23T11:56:04Z</time>
      </trkpt>
      <trkpt lat="42.7375860" lon="-8.6610350">
        <ele>11.3</ele>
        <time>2021-05-23T11:56:05Z</time>
      </trkpt>
      <trkpt lat="42.7375860" lon="-8.6610330">
        <ele>11.3</ele>
        <time>2021-05-23T11:56:06Z</time>
      </trkpt>
      <trkpt lat="42.7375870" lon="-8.6610370">
        <ele>11.3</ele>
        <time>2021-05-23T11:56:07Z</time>
      </trkpt>
      <trkpt lat="42.7375910" lon="-8.6610360">
        <ele>11.3</ele>
        <time>2021-05-23T11:56:08Z</time>
      </trkpt>
      <trkpt lat="42.7375950" lon="-8.6610340">
        <ele>11.3</ele>
        <time>2021-05-23T11:56:09Z</time>
      </trkpt>
      <trkpt lat="42.7375900" lon="-8.6610330">
        <ele>11.3</ele>
        <time>2021-05-23T11:56:10Z</time>
      </trkpt>
      <trkpt lat="42.7375900" lon="-8.6610360">
        <ele>11.3</ele>
        <time>2021-05-23T11:56:11Z</time>
      </trkpt>
      <trkpt lat="42.7375900" lon="-8.6610320">
        <ele>11.3</ele>
        <time>2021-05-23T11:56:12Z</time>
      </trkpt>
      <trkpt lat="42.7375850" lon="-8.6610370">
        <ele>11.3</ele>
        <time>2021-05-23T11:56:13Z</time>
      </trkpt>
      <trkpt lat="42.7375770" lon="-8.6610580">
        <ele>11.3</ele>
        <time>2021-05-23T11:56:14Z</time>
      </trkpt>
      <trkpt lat="42.7375780" lon="-8.6610610">
        <ele>11.3</ele>
        <time>2021-05-23T11:56:15Z</time>
      </trkpt>
      <trkpt lat="42.7375790" lon="-8.6610580">
        <ele>11.3</ele>
        <time>2021-05-23T11:56:16Z</time>
      </trkpt>
      <trkpt lat="42.7375760" lon="-8.6610620">
        <ele>11.3</ele>
        <time>2021-05-23T11:56:17Z</time>
      </trkpt>
      <trkpt lat="42.7375830" lon="-8.6610680">
        <ele>11.3</ele>
        <time>2021-05-23T11:56:18Z</time>
      </trkpt>
      <trkpt lat="42.7375830" lon="-8.6610720">
        <ele>11.3</ele>
        <time>2021-05-23T11:56:19Z</time>
      </trkpt>
      <trkpt lat="42.7375960" lon="-8.6610710">
        <ele>11.3</ele>
        <time>2021-05-23T11:56:20Z</time>
      </trkpt>
      <trkpt lat="42.7375930" lon="-8.6610740">
        <ele>11.3</ele>
        <time>2021-05-23T11:56:21Z</time>
      </trkpt>
      <trkpt lat="42.7375870" lon="-8.6610730">
        <ele>11.3</ele>
        <time>2021-05-23T11:56:22Z</time>
      </trkpt>
      <trkpt lat="42.7375840" lon="-8.6610870">
        <ele>11.3</ele>
        <time>2021-05-23T11:56:23Z</time>
      </trkpt>
      <trkpt lat="42.7375810" lon="-8.6610670">
        <ele>11.3</ele>
        <time>2021-05-23T11:56:24Z</time>
      </trkpt>
      <trkpt lat="42.7375580" lon="-8.6610690">
        <ele>11.3</ele>
        <time>2021-05-23T11:56:25Z</time>
      </trkpt>
      <trkpt lat="42.7375810" lon="-8.6610560">
        <ele>11.3</ele>
        <time>2021-05-23T11:56:26Z</time>
      </trkpt>
      <trkpt lat="42.7375960" lon="-8.6610430">
        <ele>11.3</ele>
        <time>2021-05-23T11:56:27Z</time>
      </trkpt>
      <trkpt lat="42.7375820" lon="-8.6610590">
        <ele>11.3</ele>
        <time>2021-05-23T11:56:28Z</time>
      </trkpt>
      <trkpt lat="42.7375990" lon="-8.6610420">
        <ele>11.3</ele>
        <time>2021-05-23T11:56:29Z</time>
      </trkpt>
      <trkpt lat="42.7375990" lon="-8.6610420">
        <ele>11.3</ele>
        <time>2021-05-23T11:56:30Z</time>
      </trkpt>
      <trkpt lat="42.7375990" lon="-8.6610420">
        <ele>11.3</ele>
        <time>2021-05-23T11:56:31Z</time>
      </trkpt>
      <trkpt lat="42.7375990" lon="-8.6610420">
        <ele>11.3</ele>
        <time>2021-05-23T11:56:32Z</time>
      </trkpt>
      <trkpt lat="42.7375990" lon="-8.6610420">
        <ele>11.3</ele>
        <time>2021-05-23T11:56:33Z</time>
      </trkpt>
      <trkpt lat="42.7375990" lon="-8.6610420">
        <ele>11.3</ele>
        <time>2021-05-23T11:56:34Z</time>
      </trkpt>
      <trkpt lat="42.7375990" lon="-8.6610420">
        <ele>11.3</ele>
        <time>2021-05-23T11:56:35Z</time>
      </trkpt>
      <trkpt lat="42.7375990" lon="-8.6610420">
        <ele>11.3</ele>
        <time>2021-05-23T11:56:36Z</time>
      </trkpt>
      <trkpt lat="42.7375990" lon="-8.6610420">
        <ele>11.3</ele>
        <time>2021-05-23T11:56:37Z</time>
      </trkpt>
      <trkpt lat="42.7375990" lon="-8.6610420">
        <ele>11.3</ele>
        <time>2021-05-23T11:56:38Z</time>
      </trkpt>
      <trkpt lat="42.7375990" lon="-8.6610420">
        <ele>11.3</ele>
        <time>2021-05-23T11:56:39Z</time>
      </trkpt>
      <trkpt lat="42.7375990" lon="-8.6610420">
        <ele>11.3</ele>
        <time>2021-05-23T11:56:40Z</time>
      </trkpt>
      <trkpt lat="42.7375990" lon="-8.6610420">
        <ele>11.3</ele>
        <time>2021-05-23T11:56:41Z</time>
      </trkpt>
      <trkpt lat="42.7375990" lon="-8.6610420">
        <ele>11.3</ele>
        <time>2021-05-23T11:56:42Z</time>
      </trkpt>
      <trkpt lat="42.7375990" lon="-8.6610420">
        <ele>11.3</ele>
        <time>2021-05-23T11:56:43Z</time>
      </trkpt>
      <trkpt lat="42.7375990" lon="-8.6610420">
        <ele>11.3</ele>
        <time>2021-05-23T11:56:44Z</time>
      </trkpt>
      <trkpt lat="42.7375990" lon="-8.6610420">
        <ele>11.3</ele>
        <time>2021-05-23T11:56:45Z</time>
      </trkpt>
      <trkpt lat="42.7376170" lon="-8.6609840">
        <ele>11.3</ele>
        <time>2021-05-23T11:56:46Z</time>
      </trkpt>
      <trkpt lat="42.7376280" lon="-8.6609750">
        <ele>11.3</ele>
        <time>2021-05-23T11:56:47Z</time>
      </trkpt>
      <trkpt lat="42.7376320" lon="-8.6609750">
        <ele>11.3</ele>
        <time>2021-05-23T11:56:48Z</time>
      </trkpt>
      <trkpt lat="42.7376320" lon="-8.6609750">
        <ele>11.3</ele>
        <time>2021-05-23T11:56:49Z</time>
      </trkpt>
      <trkpt lat="42.7376320" lon="-8.6609750">
        <ele>11.3</ele>
        <time>2021-05-23T11:56:50Z</time>
      </trkpt>
      <trkpt lat="42.7376320" lon="-8.6609750">
        <ele>11.3</ele>
        <time>2021-05-23T11:56:51Z</time>
      </trkpt>
      <trkpt lat="42.7376200" lon="-8.6609880">
        <ele>11.3</ele>
        <time>2021-05-23T11:56:52Z</time>
      </trkpt>
      <trkpt lat="42.7376310" lon="-8.6609730">
        <ele>11.3</ele>
        <time>2021-05-23T11:56:53Z</time>
      </trkpt>
      <trkpt lat="42.7376240" lon="-8.6609790">
        <ele>11.3</ele>
        <time>2021-05-23T11:56:54Z</time>
      </trkpt>
      <trkpt lat="42.7376120" lon="-8.6609770">
        <ele>11.3</ele>
        <time>2021-05-23T11:56:55Z</time>
      </trkpt>
      <trkpt lat="42.7376340" lon="-8.6609690">
        <ele>11.3</ele>
        <time>2021-05-23T11:56:56Z</time>
      </trkpt>
      <trkpt lat="42.7376340" lon="-8.6609690">
        <ele>11.3</ele>
        <time>2021-05-23T11:56:57Z</time>
      </trkpt>
      <trkpt lat="42.7376340" lon="-8.6609690">
        <ele>11.3</ele>
        <time>2021-05-23T11:56:58Z</time>
      </trkpt>
      <trkpt lat="42.7376340" lon="-8.6609690">
        <ele>11.3</ele>
        <time>2021-05-23T11:56:59Z</time>
      </trkpt>
      <trkpt lat="42.7376340" lon="-8.6609690">
        <ele>11.3</ele>
        <time>2021-05-23T11:57:00Z</time>
      </trkpt>
      <trkpt lat="42.7376340" lon="-8.6609690">
        <ele>11.3</ele>
        <time>2021-05-23T11:57:01Z</time>
      </trkpt>
      <trkpt lat="42.7376340" lon="-8.6609690">
        <ele>11.3</ele>
        <time>2021-05-23T11:57:02Z</time>
      </trkpt>
      <trkpt lat="42.7376340" lon="-8.6609690">
        <ele>11.3</ele>
        <time>2021-05-23T11:57:03Z</time>
      </trkpt>
      <trkpt lat="42.7376340" lon="-8.6609690">
        <ele>11.3</ele>
        <time>2021-05-23T11:57:04Z</time>
      </trkpt>
      <trkpt lat="42.7376340" lon="-8.6609690">
        <ele>11.3</ele>
        <time>2021-05-23T11:57:05Z</time>
      </trkpt>
      <trkpt lat="42.7376340" lon="-8.6609690">
        <ele>11.3</ele>
        <time>2021-05-23T11:57:06Z</time>
      </trkpt>
      <trkpt lat="42.7376340" lon="-8.6609690">
        <ele>11.3</ele>
        <time>2021-05-23T11:57:07Z</time>
      </trkpt>
      <trkpt lat="42.7376340" lon="-8.6609690">
        <ele>11.3</ele>
        <time>2021-05-23T11:57:08Z</time>
      </trkpt>
      <trkpt lat="42.7376340" lon="-8.6609690">
        <ele>11.3</ele>
        <time>2021-05-23T11:57:09Z</time>
      </trkpt>
      <trkpt lat="42.7376080" lon="-8.6609900">
        <ele>11.3</ele>
        <time>2021-05-23T11:57:10Z</time>
      </trkpt>
      <trkpt lat="42.7376160" lon="-8.6609890">
        <ele>11.3</ele>
        <time>2021-05-23T11:57:11Z</time>
      </trkpt>
      <trkpt lat="42.7376130" lon="-8.6609890">
        <ele>11.3</ele>
        <time>2021-05-23T11:57:12Z</time>
      </trkpt>
      <trkpt lat="42.7376100" lon="-8.6609970">
        <ele>11.3</ele>
        <time>2021-05-23T11:57:13Z</time>
      </trkpt>
      <trkpt lat="42.7376080" lon="-8.6609980">
        <ele>11.3</ele>
        <time>2021-05-23T11:57:14Z</time>
      </trkpt>
      <trkpt lat="42.7376070" lon="-8.6610010">
        <ele>11.3</ele>
        <time>2021-05-23T11:57:15Z</time>
      </trkpt>
      <trkpt lat="42.7376080" lon="-8.6609990">
        <ele>11.3</ele>
        <time>2021-05-23T11:57:16Z</time>
      </trkpt>
      <trkpt lat="42.7376000" lon="-8.6610060">
        <ele>11.3</ele>
        <time>2021-05-23T11:57:18Z</time>
      </trkpt>
      <trkpt lat="42.7376040" lon="-8.6610030">
        <ele>11.3</ele>
        <time>2021-05-23T11:57:19Z</time>
      </trkpt>
      <trkpt lat="42.7376100" lon="-8.6610110">
        <ele>11.3</ele>
        <time>2021-05-23T11:57:20Z</time>
      </trkpt>
      <trkpt lat="42.7376220" lon="-8.6610030">
        <ele>11.3</ele>
        <time>2021-05-23T11:57:21Z</time>
      </trkpt>
      <trkpt lat="42.7376210" lon="-8.6610060">
        <ele>11.3</ele>
        <time>2021-05-23T11:57:22Z</time>
      </trkpt>
      <trkpt lat="42.7376230" lon="-8.6610120">
        <ele>11.3</ele>
        <time>2021-05-23T11:57:23Z</time>
      </trkpt>
      <trkpt lat="42.7376240" lon="-8.6610190">
        <ele>11.3</ele>
        <time>2021-05-23T11:57:24Z</time>
      </trkpt>
      <trkpt lat="42.7376280" lon="-8.6610130">
        <ele>11.3</ele>
        <time>2021-05-23T11:57:25Z</time>
      </trkpt>
      <trkpt lat="42.7376340" lon="-8.6610030">
        <ele>11.3</ele>
        <time>2021-05-23T11:57:26Z</time>
      </trkpt>
      <trkpt lat="42.7376320" lon="-8.6610100">
        <ele>11.3</ele>
        <time>2021-05-23T11:57:27Z</time>
      </trkpt>
      <trkpt lat="42.7376330" lon="-8.6610170">
        <ele>11.3</ele>
        <time>2021-05-23T11:57:28Z</time>
      </trkpt>
      <trkpt lat="42.7376280" lon="-8.6610200">
        <ele>11.3</ele>
        <time>2021-05-23T11:57:29Z</time>
      </trkpt>
      <trkpt lat="42.7376290" lon="-8.6610230">
        <ele>11.3</ele>
        <time>2021-05-23T11:57:30Z</time>
      </trkpt>
      <trkpt lat="42.7376290" lon="-8.6610280">
        <ele>11.3</ele>
        <time>2021-05-23T11:57:31Z</time>
      </trkpt>
      <trkpt lat="42.7376430" lon="-8.6610300">
        <ele>11.3</ele>
        <time>2021-05-23T11:57:32Z</time>
      </trkpt>
      <trkpt lat="42.7376530" lon="-8.6610280">
        <ele>11.3</ele>
        <time>2021-05-23T11:57:33Z</time>
      </trkpt>
      <trkpt lat="42.7376570" lon="-8.6610360">
        <ele>11.3</ele>
        <time>2021-05-23T11:57:34Z</time>
      </trkpt>
      <trkpt lat="42.7376630" lon="-8.6610330">
        <ele>11.3</ele>
        <time>2021-05-23T11:57:35Z</time>
      </trkpt>
      <trkpt lat="42.7376690" lon="-8.6610330">
        <ele>11.3</ele>
        <time>2021-05-23T11:57:36Z</time>
      </trkpt>
      <trkpt lat="42.7376760" lon="-8.6610340">
        <ele>11.3</ele>
        <time>2021-05-23T11:57:37Z</time>
      </trkpt>
      <trkpt lat="42.7376830" lon="-8.6610330">
        <ele>11.3</ele>
        <time>2021-05-23T11:57:38Z</time>
      </trkpt>
      <trkpt lat="42.7376800" lon="-8.6610310">
        <ele>11.3</ele>
        <time>2021-05-23T11:57:39Z</time>
      </trkpt>
      <trkpt lat="42.7376770" lon="-8.6610350">
        <ele>11.3</ele>
        <time>2021-05-23T11:57:40Z</time>
      </trkpt>
      <trkpt lat="42.7376850" lon="-8.6610340">
        <ele>11.3</ele>
        <time>2021-05-23T11:57:41Z</time>
      </trkpt>
      <trkpt lat="42.7376870" lon="-8.6610330">
        <ele>11.3</ele>
        <time>2021-05-23T11:57:42Z</time>
      </trkpt>
      <trkpt lat="42.7376870" lon="-8.6610320">
        <ele>11.3</ele>
        <time>2021-05-23T11:57:43Z</time>
      </trkpt>
      <trkpt lat="42.7376880" lon="-8.6610310">
        <ele>11.3</ele>
        <time>2021-05-23T11:57:44Z</time>
      </trkpt>
      <trkpt lat="42.7376880" lon="-8.6610300">
        <ele>11.3</ele>
        <time>2021-05-23T11:57:45Z</time>
      </trkpt>
      <trkpt lat="42.7376880" lon="-8.6610290">
        <ele>11.3</ele>
        <time>2021-05-23T11:57:46Z</time>
      </trkpt>
      <trkpt lat="42.7376880" lon="-8.6610280">
        <ele>11.3</ele>
        <time>2021-05-23T11:57:47Z</time>
      </trkpt>
      <trkpt lat="42.7376890" lon="-8.6610270">
        <ele>11.3</ele>
        <time>2021-05-23T11:57:48Z</time>
      </trkpt>
      <trkpt lat="42.7376890" lon="-8.6610260">
        <ele>11.3</ele>
        <time>2021-05-23T11:57:49Z</time>
      </trkpt>
      <trkpt lat="42.7376890" lon="-8.6610250">
        <ele>11.3</ele>
        <time>2021-05-23T11:57:50Z</time>
      </trkpt>
      <trkpt lat="42.7376890" lon="-8.6610240">
        <ele>11.3</ele>
        <time>2021-05-23T11:57:51Z</time>
      </trkpt>
      <trkpt lat="42.7376900" lon="-8.6610230">
        <ele>11.3</ele>
        <time>2021-05-23T11:57:52Z</time>
      </trkpt>
      <trkpt lat="42.7376900" lon="-8.6610220">
        <ele>11.3</ele>
        <time>2021-05-23T11:57:53Z</time>
      </trkpt>
      <trkpt lat="42.7376900" lon="-8.6610210">
        <ele>11.3</ele>
        <time>2021-05-23T11:57:54Z</time>
      </trkpt>
      <trkpt lat="42.7376900" lon="-8.6610200">
        <ele>11.3</ele>
        <time>2021-05-23T11:57:55Z</time>
      </trkpt>
      <trkpt lat="42.7376900" lon="-8.6610190">
        <ele>11.3</ele>
        <time>2021-05-23T11:57:56Z</time>
      </trkpt>
      <trkpt lat="42.7376910" lon="-8.6610180">
        <ele>11.3</ele>
        <time>2021-05-23T11:57:57Z</time>
      </trkpt>
      <trkpt lat="42.7376910" lon="-8.6610170">
        <ele>11.3</ele>
        <time>2021-05-23T11:57:58Z</time>
      </trkpt>
      <trkpt lat="42.7376910" lon="-8.6610160">
        <ele>11.3</ele>
        <time>2021-05-23T11:57:59Z</time>
      </trkpt>
      <trkpt lat="42.7376910" lon="-8.6610150">
        <ele>11.3</ele>
        <time>2021-05-23T11:58:00Z</time>
      </trkpt>
      <trkpt lat="42.7376920" lon="-8.6610140">
        <ele>11.3</ele>
        <time>2021-05-23T11:58:01Z</time>
      </trkpt>
      <trkpt lat="42.7376920" lon="-8.6610130">
        <ele>11.3</ele>
        <time>2021-05-23T11:58:02Z</time>
      </trkpt>
      <trkpt lat="42.7376920" lon="-8.6610120">
        <ele>11.3</ele>
        <time>2021-05-23T11:58:03Z</time>
      </trkpt>
      <trkpt lat="42.7376920" lon="-8.6610110">
        <ele>11.3</ele>
        <time>2021-05-23T11:58:04Z</time>
      </trkpt>
      <trkpt lat="42.7376930" lon="-8.6610100">
        <ele>11.3</ele>
        <time>2021-05-23T11:58:05Z</time>
      </trkpt>
      <trkpt lat="42.7376930" lon="-8.6610090">
        <ele>11.3</ele>
        <time>2021-05-23T11:58:06Z</time>
      </trkpt>
      <trkpt lat="42.7376930" lon="-8.6610080">
        <ele>11.3</ele>
        <time>2021-05-23T11:58:07Z</time>
      </trkpt>
      <trkpt lat="42.7376930" lon="-8.6610070">
        <ele>11.3</ele>
        <time>2021-05-23T11:58:08Z</time>
      </trkpt>
      <trkpt lat="42.7376930" lon="-8.6610060">
        <ele>11.3</ele>
        <time>2021-05-23T11:58:09Z</time>
      </trkpt>
      <trkpt lat="42.7376940" lon="-8.6610050">
        <ele>11.3</ele>
        <time>2021-05-23T11:58:10Z</time>
      </trkpt>
      <trkpt lat="42.7376940" lon="-8.6610040">
        <ele>11.3</ele>
        <time>2021-05-23T11:58:11Z</time>
      </trkpt>
      <trkpt lat="42.7376940" lon="-8.6610030">
        <ele>11.3</ele>
        <time>2021-05-23T11:58:12Z</time>
      </trkpt>
      <trkpt lat="42.7376940" lon="-8.6610020">
        <ele>11.3</ele>
        <time>2021-05-23T11:58:13Z</time>
      </trkpt>
      <trkpt lat="42.7376950" lon="-8.6610010">
        <ele>11.3</ele>
        <time>2021-05-23T11:58:14Z</time>
      </trkpt>
      <trkpt lat="42.7376950" lon="-8.6610000">
        <ele>11.3</ele>
        <time>2021-05-23T11:58:15Z</time>
      </trkpt>
      <trkpt lat="42.7376950" lon="-8.6609990">
        <ele>11.3</ele>
        <time>2021-05-23T11:58:16Z</time>
      </trkpt>
      <trkpt lat="42.7376950" lon="-8.6609980">
        <ele>11.3</ele>
        <time>2021-05-23T11:58:17Z</time>
      </trkpt>
      <trkpt lat="42.7376950" lon="-8.6609970">
        <ele>11.3</ele>
        <time>2021-05-23T11:58:18Z</time>
      </trkpt>
      <trkpt lat="42.7376960" lon="-8.6609960">
        <ele>11.3</ele>
        <time>2021-05-23T11:58:19Z</time>
      </trkpt>
      <trkpt lat="42.7376960" lon="-8.6609950">
        <ele>11.3</ele>
        <time>2021-05-23T11:58:20Z</time>
      </trkpt>
      <trkpt lat="42.7376960" lon="-8.6609940">
        <ele>11.3</ele>
        <time>2021-05-23T11:58:21Z</time>
      </trkpt>
      <trkpt lat="42.7376960" lon="-8.6609930">
        <ele>11.3</ele>
        <time>2021-05-23T11:58:22Z</time>
      </trkpt>
      <trkpt lat="42.7376970" lon="-8.6609920">
        <ele>11.3</ele>
        <time>2021-05-23T11:58:23Z</time>
      </trkpt>
      <trkpt lat="42.7376970" lon="-8.6609910">
        <ele>11.3</ele>
        <time>2021-05-23T11:58:24Z</time>
      </trkpt>
      <trkpt lat="42.7376970" lon="-8.6609900">
        <ele>11.3</ele>
        <time>2021-05-23T11:58:25Z</time>
      </trkpt>
      <trkpt lat="42.7376970" lon="-8.6609890">
        <ele>11.3</ele>
        <time>2021-05-23T11:58:26Z</time>
      </trkpt>
      <trkpt lat="42.7376980" lon="-8.6609880">
        <ele>11.3</ele>
        <time>2021-05-23T11:58:27Z</time>
      </trkpt>
      <trkpt lat="42.7376980" lon="-8.6609870">
        <ele>11.3</ele>
        <time>2021-05-23T11:58:28Z</time>
      </trkpt>
      <trkpt lat="42.7376980" lon="-8.6609860">
        <ele>11.3</ele>
        <time>2021-05-23T11:58:29Z</time>
      </trkpt>
      <trkpt lat="42.7376960" lon="-8.6609880">
        <ele>11.3</ele>
        <time>2021-05-23T11:58:30Z</time>
      </trkpt>
      <trkpt lat="42.7376970" lon="-8.6609900">
        <ele>11.3</ele>
        <time>2021-05-23T11:58:31Z</time>
      </trkpt>
      <trkpt lat="42.7376900" lon="-8.6609940">
        <ele>11.3</ele>
        <time>2021-05-23T11:58:32Z</time>
      </trkpt>
      <trkpt lat="42.7376840" lon="-8.6609990">
        <ele>11.3</ele>
        <time>2021-05-23T11:58:33Z</time>
      </trkpt>
      <trkpt lat="42.7376820" lon="-8.6609970">
        <ele>11.3</ele>
        <time>2021-05-23T11:58:34Z</time>
      </trkpt>
      <trkpt lat="42.7376810" lon="-8.6609970">
        <ele>11.3</ele>
        <time>2021-05-23T11:58:35Z</time>
      </trkpt>
      <trkpt lat="42.7376760" lon="-8.6609990">
        <ele>11.3</ele>
        <time>2021-05-23T11:58:36Z</time>
      </trkpt>
      <trkpt lat="42.7376650" lon="-8.6610040">
        <ele>11.3</ele>
        <time>2021-05-23T11:58:37Z</time>
      </trkpt>
      <trkpt lat="42.7376580" lon="-8.6610060">
        <ele>11.3</ele>
        <time>2021-05-23T11:58:38Z</time>
      </trkpt>
      <trkpt lat="42.7376560" lon="-8.6610050">
        <ele>11.3</ele>
        <time>2021-05-23T11:58:39Z</time>
      </trkpt>
      <trkpt lat="42.7376470" lon="-8.6610110">
        <ele>11.3</ele>
        <time>2021-05-23T11:58:40Z</time>
      </trkpt>
      <trkpt lat="42.7376380" lon="-8.6610140">
        <ele>11.3</ele>
        <time>2021-05-23T11:58:41Z</time>
      </trkpt>
      <trkpt lat="42.7376380" lon="-8.6610140">
        <ele>11.3</ele>
        <time>2021-05-23T11:58:42Z</time>
      </trkpt>
      <trkpt lat="42.7376290" lon="-8.6610150">
        <ele>11.3</ele>
        <time>2021-05-23T11:58:43Z</time>
      </trkpt>
      <trkpt lat="42.7376270" lon="-8.6610170">
        <ele>11.3</ele>
        <time>2021-05-23T11:58:44Z</time>
      </trkpt>
      <trkpt lat="42.7376260" lon="-8.6610150">
        <ele>11.3</ele>
        <time>2021-05-23T11:58:45Z</time>
      </trkpt>
      <trkpt lat="42.7376250" lon="-8.6610150">
        <ele>11.3</ele>
        <time>2021-05-23T11:58:46Z</time>
      </trkpt>
      <trkpt lat="42.7376230" lon="-8.6610200">
        <ele>11.3</ele>
        <time>2021-05-23T11:58:47Z</time>
      </trkpt>
      <trkpt lat="42.7376250" lon="-8.6610160">
        <ele>11.3</ele>
        <time>2021-05-23T11:58:48Z</time>
      </trkpt>
      <trkpt lat="42.7376210" lon="-8.6610130">
        <ele>11.3</ele>
        <time>2021-05-23T11:58:49Z</time>
      </trkpt>
      <trkpt lat="42.7376260" lon="-8.6610070">
        <ele>11.3</ele>
        <time>2021-05-23T11:58:50Z</time>
      </trkpt>
      <trkpt lat="42.7376260" lon="-8.6610040">
        <ele>11.3</ele>
        <time>2021-05-23T11:58:51Z</time>
      </trkpt>
      <trkpt lat="42.7376250" lon="-8.6610080">
        <ele>11.3</ele>
        <time>2021-05-23T11:58:53Z</time>
      </trkpt>
      <trkpt lat="42.7376190" lon="-8.6610180">
        <ele>11.3</ele>
        <time>2021-05-23T11:58:54Z</time>
      </trkpt>
      <trkpt lat="42.7376130" lon="-8.6610330">
        <ele>11.3</ele>
        <time>2021-05-23T11:58:55Z</time>
      </trkpt>
      <trkpt lat="42.7376130" lon="-8.6610420">
        <ele>11.3</ele>
        <time>2021-05-23T11:58:56Z</time>
      </trkpt>
      <trkpt lat="42.7376160" lon="-8.6610520">
        <ele>11.3</ele>
        <time>2021-05-23T11:58:57Z</time>
      </trkpt>
      <trkpt lat="42.7376120" lon="-8.6610620">
        <ele>11.3</ele>
        <time>2021-05-23T11:58:58Z</time>
      </trkpt>
      <trkpt lat="42.7376170" lon="-8.6610710">
        <ele>11.3</ele>
        <time>2021-05-23T11:58:59Z</time>
      </trkpt>
      <trkpt lat="42.7376130" lon="-8.6610710">
        <ele>11.3</ele>
        <time>2021-05-23T11:59:00Z</time>
      </trkpt>
      <trkpt lat="42.7376140" lon="-8.6610710">
        <ele>11.3</ele>
        <time>2021-05-23T11:59:01Z</time>
      </trkpt>
      <trkpt lat="42.7376200" lon="-8.6610660">
        <ele>11.3</ele>
        <time>2021-05-23T11:59:02Z</time>
      </trkpt>
      <trkpt lat="42.7376280" lon="-8.6610560">
        <ele>11.3</ele>
        <time>2021-05-23T11:59:03Z</time>
      </trkpt>
      <trkpt lat="42.7376290" lon="-8.6610550">
        <ele>11.3</ele>
        <time>2021-05-23T11:59:04Z</time>
      </trkpt>
      <trkpt lat="42.7376240" lon="-8.6610630">
        <ele>11.3</ele>
        <time>2021-05-23T11:59:05Z</time>
      </trkpt>
      <trkpt lat="42.7376180" lon="-8.6610660">
        <ele>11.3</ele>
        <time>2021-05-23T11:59:06Z</time>
      </trkpt>
      <trkpt lat="42.7376090" lon="-8.6610680">
        <ele>11.3</ele>
        <time>2021-05-23T11:59:07Z</time>
      </trkpt>
      <trkpt lat="42.7376040" lon="-8.6610680">
        <ele>11.3</ele>
        <time>2021-05-23T11:59:08Z</time>
      </trkpt>
      <trkpt lat="42.7376080" lon="-8.6610580">
        <ele>11.3</ele>
        <time>2021-05-23T11:59:09Z</time>
      </trkpt>
      <trkpt lat="42.7376140" lon="-8.6610480">
        <ele>11.3</ele>
        <time>2021-05-23T11:59:10Z</time>
      </trkpt>
      <trkpt lat="42.7376140" lon="-8.6610480">
        <ele>11.3</ele>
        <time>2021-05-23T11:59:11Z</time>
      </trkpt>
      <trkpt lat="42.7376070" lon="-8.6610340">
        <ele>11.3</ele>
        <time>2021-05-23T11:59:12Z</time>
      </trkpt>
      <trkpt lat="42.7376070" lon="-8.6610290">
        <ele>11.3</ele>
        <time>2021-05-23T11:59:13Z</time>
      </trkpt>
      <trkpt lat="42.7376070" lon="-8.6610290">
        <ele>11.3</ele>
        <time>2021-05-23T11:59:14Z</time>
      </trkpt>
      <trkpt lat="42.7376070" lon="-8.6610290">
        <ele>11.3</ele>
        <time>2021-05-23T11:59:15Z</time>
      </trkpt>
      <trkpt lat="42.7376080" lon="-8.6610150">
        <ele>11.3</ele>
        <time>2021-05-23T11:59:16Z</time>
      </trkpt>
      <trkpt lat="42.7376140" lon="-8.6610170">
        <ele>11.3</ele>
        <time>2021-05-23T11:59:17Z</time>
      </trkpt>
      <trkpt lat="42.7376160" lon="-8.6610210">
        <ele>11.3</ele>
        <time>2021-05-23T11:59:18Z</time>
      </trkpt>
      <trkpt lat="42.7376130" lon="-8.6610220">
        <ele>11.3</ele>
        <time>2021-05-23T11:59:19Z</time>
      </trkpt>
      <trkpt lat="42.7376110" lon="-8.6610170">
        <ele>11.3</ele>
        <time>2021-05-23T11:59:20Z</time>
      </trkpt>
      <trkpt lat="42.7376080" lon="-8.6610040">
        <ele>11.3</ele>
        <time>2021-05-23T11:59:21Z</time>
      </trkpt>
      <trkpt lat="42.7376050" lon="-8.6610210">
        <ele>11.3</ele>
        <time>2021-05-23T11:59:22Z</time>
      </trkpt>
      <trkpt lat="42.7376110" lon="-8.6610130">
        <ele>11.3</ele>
        <time>2021-05-23T11:59:23Z</time>
      </trkpt>
      <trkpt lat="42.7376110" lon="-8.6610130">
        <ele>11.3</ele>
        <time>2021-05-23T11:59:24Z</time>
      </trkpt>
      <trkpt lat="42.7376190" lon="-8.6609990">
        <ele>11.3</ele>
        <time>2021-05-23T11:59:25Z</time>
      </trkpt>
      <trkpt lat="42.7376190" lon="-8.6609990">
        <ele>11.3</ele>
        <time>2021-05-23T11:59:26Z</time>
      </trkpt>
      <trkpt lat="42.7376190" lon="-8.6609990">
        <ele>11.3</ele>
        <time>2021-05-23T11:59:27Z</time>
      </trkpt>
      <trkpt lat="42.7376190" lon="-8.6609990">
        <ele>11.3</ele>
        <time>2021-05-23T11:59:28Z</time>
      </trkpt>
      <trkpt lat="42.7376190" lon="-8.6609990">
        <ele>11.3</ele>
        <time>2021-05-23T11:59:29Z</time>
      </trkpt>
      <trkpt lat="42.7376190" lon="-8.6609990">
        <ele>11.3</ele>
        <time>2021-05-23T11:59:30Z</time>
      </trkpt>
      <trkpt lat="42.7376190" lon="-8.6609990">
        <ele>11.3</ele>
        <time>2021-05-23T11:59:31Z</time>
      </trkpt>
      <trkpt lat="42.7376190" lon="-8.6609990">
        <ele>11.3</ele>
        <time>2021-05-23T11:59:32Z</time>
      </trkpt>
      <trkpt lat="42.7376190" lon="-8.6609990">
        <ele>11.3</ele>
        <time>2021-05-23T11:59:33Z</time>
      </trkpt>
      <trkpt lat="42.7376190" lon="-8.6609990">
        <ele>11.3</ele>
        <time>2021-05-23T11:59:34Z</time>
      </trkpt>
      <trkpt lat="42.7376190" lon="-8.6609990">
        <ele>11.3</ele>
        <time>2021-05-23T11:59:35Z</time>
      </trkpt>
      <trkpt lat="42.7376190" lon="-8.6609990">
        <ele>11.3</ele>
        <time>2021-05-23T11:59:36Z</time>
      </trkpt>
      <trkpt lat="42.7376270" lon="-8.6610090">
        <ele>11.3</ele>
        <time>2021-05-23T11:59:37Z</time>
      </trkpt>
      <trkpt lat="42.7376270" lon="-8.6610090">
        <ele>11.3</ele>
        <time>2021-05-23T11:59:38Z</time>
      </trkpt>
      <trkpt lat="42.7376270" lon="-8.6610090">
        <ele>11.3</ele>
        <time>2021-05-23T11:59:39Z</time>
      </trkpt>
      <trkpt lat="42.7376270" lon="-8.6610090">
        <ele>11.3</ele>
        <time>2021-05-23T11:59:40Z</time>
      </trkpt>
      <trkpt lat="42.7376270" lon="-8.6610090">
        <ele>11.3</ele>
        <time>2021-05-23T11:59:41Z</time>
      </trkpt>
      <trkpt lat="42.7376280" lon="-8.6610160">
        <ele>11.3</ele>
        <time>2021-05-23T11:59:42Z</time>
      </trkpt>
      <trkpt lat="42.7376280" lon="-8.6610160">
        <ele>11.3</ele>
        <time>2021-05-23T11:59:43Z</time>
      </trkpt>
      <trkpt lat="42.7376280" lon="-8.6610160">
        <ele>11.3</ele>
        <time>2021-05-23T11:59:44Z</time>
      </trkpt>
      <trkpt lat="42.7376280" lon="-8.6610160">
        <ele>11.3</ele>
        <time>2021-05-23T11:59:45Z</time>
      </trkpt>
      <trkpt lat="42.7376280" lon="-8.6610160">
        <ele>11.3</ele>
        <time>2021-05-23T11:59:46Z</time>
      </trkpt>
      <trkpt lat="42.7376280" lon="-8.6610160">
        <ele>11.3</ele>
        <time>2021-05-23T11:59:47Z</time>
      </trkpt>
      <trkpt lat="42.7376280" lon="-8.6610160">
        <ele>11.3</ele>
        <time>2021-05-23T11:59:48Z</time>
      </trkpt>
      <trkpt lat="42.7376280" lon="-8.6610160">
        <ele>11.3</ele>
        <time>2021-05-23T11:59:49Z</time>
      </trkpt>
      <trkpt lat="42.7376280" lon="-8.6610160">
        <ele>11.3</ele>
        <time>2021-05-23T11:59:50Z</time>
      </trkpt>
      <trkpt lat="42.7376280" lon="-8.6610160">
        <ele>11.3</ele>
        <time>2021-05-23T11:59:51Z</time>
      </trkpt>
      <trkpt lat="42.7376280" lon="-8.6610160">
        <ele>11.3</ele>
        <time>2021-05-23T11:59:52Z</time>
      </trkpt>
      <trkpt lat="42.7376280" lon="-8.6610160">
        <ele>11.3</ele>
        <time>2021-05-23T11:59:53Z</time>
      </trkpt>
      <trkpt lat="42.7376280" lon="-8.6610160">
        <ele>11.3</ele>
        <time>2021-05-23T11:59:54Z</time>
      </trkpt>
      <trkpt lat="42.7376280" lon="-8.6610160">
        <ele>11.3</ele>
        <time>2021-05-23T11:59:55Z</time>
      </trkpt>
      <trkpt lat="42.7376280" lon="-8.6610160">
        <ele>11.3</ele>
        <time>2021-05-23T11:59:56Z</time>
      </trkpt>
      <trkpt lat="42.7376280" lon="-8.6610160">
        <ele>11.3</ele>
        <time>2021-05-23T11:59:57Z</time>
      </trkpt>
      <trkpt lat="42.7376280" lon="-8.6610160">
        <ele>11.3</ele>
        <time>2021-05-23T11:59:58Z</time>
      </trkpt>
      <trkpt lat="42.7376280" lon="-8.6610160">
        <ele>11.3</ele>
        <time>2021-05-23T11:59:59Z</time>
      </trkpt>
      <trkpt lat="42.7376280" lon="-8.6610160">
        <ele>11.3</ele>
        <time>2021-05-23T12:00:00Z</time>
      </trkpt>
      <trkpt lat="42.7376280" lon="-8.6610160">
        <ele>11.3</ele>
        <time>2021-05-23T12:00:01Z</time>
      </trkpt>
      <trkpt lat="42.7376280" lon="-8.6610160">
        <ele>11.3</ele>
        <time>2021-05-23T12:00:02Z</time>
      </trkpt>
      <trkpt lat="42.7376280" lon="-8.6610160">
        <ele>11.3</ele>
        <time>2021-05-23T12:00:03Z</time>
      </trkpt>
      <trkpt lat="42.7376280" lon="-8.6610160">
        <ele>11.3</ele>
        <time>2021-05-23T12:00:04Z</time>
      </trkpt>
      <trkpt lat="42.7376280" lon="-8.6610160">
        <ele>11.3</ele>
        <time>2021-05-23T12:00:05Z</time>
      </trkpt>
      <trkpt lat="42.7376280" lon="-8.6610160">
        <ele>11.3</ele>
        <time>2021-05-23T12:00:06Z</time>
      </trkpt>
      <trkpt lat="42.7376280" lon="-8.6610160">
        <ele>11.3</ele>
        <time>2021-05-23T12:00:07Z</time>
      </trkpt>
      <trkpt lat="42.7376280" lon="-8.6610160">
        <ele>11.3</ele>
        <time>2021-05-23T12:00:08Z</time>
      </trkpt>
      <trkpt lat="42.7376280" lon="-8.6610160">
        <ele>11.3</ele>
        <time>2021-05-23T12:00:09Z</time>
      </trkpt>
      <trkpt lat="42.7376280" lon="-8.6610160">
        <ele>11.3</ele>
        <time>2021-05-23T12:00:10Z</time>
      </trkpt>
      <trkpt lat="42.7376280" lon="-8.6610160">
        <ele>11.3</ele>
        <time>2021-05-23T12:00:11Z</time>
      </trkpt>
      <trkpt lat="42.7376280" lon="-8.6610160">
        <ele>11.3</ele>
        <time>2021-05-23T12:00:12Z</time>
      </trkpt>
      <trkpt lat="42.7376280" lon="-8.6610160">
        <ele>11.3</ele>
        <time>2021-05-23T12:00:13Z</time>
      </trkpt>
      <trkpt lat="42.7376280" lon="-8.6610160">
        <ele>11.3</ele>
        <time>2021-05-23T12:00:14Z</time>
      </trkpt>
      <trkpt lat="42.7376280" lon="-8.6610160">
        <ele>11.3</ele>
        <time>2021-05-23T12:00:15Z</time>
      </trkpt>
      <trkpt lat="42.7376280" lon="-8.6610160">
        <ele>11.3</ele>
        <time>2021-05-23T12:00:16Z</time>
      </trkpt>
      <trkpt lat="42.7376280" lon="-8.6610160">
        <ele>11.3</ele>
        <time>2021-05-23T12:00:17Z</time>
      </trkpt>
      <trkpt lat="42.7376280" lon="-8.6610160">
        <ele>11.3</ele>
        <time>2021-05-23T12:00:18Z</time>
      </trkpt>
      <trkpt lat="42.7376280" lon="-8.6610160">
        <ele>11.3</ele>
        <time>2021-05-23T12:00:19Z</time>
      </trkpt>
      <trkpt lat="42.7376280" lon="-8.6610160">
        <ele>11.3</ele>
        <time>2021-05-23T12:00:20Z</time>
      </trkpt>
      <trkpt lat="42.7376280" lon="-8.6610160">
        <ele>11.3</ele>
        <time>2021-05-23T12:00:21Z</time>
      </trkpt>
      <trkpt lat="42.7376280" lon="-8.6610160">
        <ele>11.3</ele>
        <time>2021-05-23T12:00:22Z</time>
      </trkpt>
      <trkpt lat="42.7376280" lon="-8.6610160">
        <ele>11.3</ele>
        <time>2021-05-23T12:00:23Z</time>
      </trkpt>
      <trkpt lat="42.7376280" lon="-8.6610160">
        <ele>11.3</ele>
        <time>2021-05-23T12:00:24Z</time>
      </trkpt>
      <trkpt lat="42.7376280" lon="-8.6610160">
        <ele>11.3</ele>
        <time>2021-05-23T12:00:25Z</time>
      </trkpt>
      <trkpt lat="42.7376280" lon="-8.6610160">
        <ele>11.3</ele>
        <time>2021-05-23T12:00:26Z</time>
      </trkpt>
      <trkpt lat="42.7376280" lon="-8.6610160">
        <ele>11.3</ele>
        <time>2021-05-23T12:00:27Z</time>
      </trkpt>
      <trkpt lat="42.7376280" lon="-8.6610160">
        <ele>11.3</ele>
        <time>2021-05-23T12:00:28Z</time>
      </trkpt>
      <trkpt lat="42.7376280" lon="-8.6610160">
        <ele>11.3</ele>
        <time>2021-05-23T12:00:29Z</time>
      </trkpt>
      <trkpt lat="42.7376280" lon="-8.6610160">
        <ele>11.3</ele>
        <time>2021-05-23T12:00:30Z</time>
      </trkpt>
      <trkpt lat="42.7376280" lon="-8.6610160">
        <ele>11.3</ele>
        <time>2021-05-23T12:00:31Z</time>
      </trkpt>
      <trkpt lat="42.7376280" lon="-8.6610160">
        <ele>11.3</ele>
        <time>2021-05-23T12:00:32Z</time>
      </trkpt>
      <trkpt lat="42.7376280" lon="-8.6610160">
        <ele>11.3</ele>
        <time>2021-05-23T12:00:33Z</time>
      </trkpt>
      <trkpt lat="42.7376280" lon="-8.6610160">
        <ele>11.3</ele>
        <time>2021-05-23T12:00:34Z</time>
      </trkpt>
      <trkpt lat="42.7376280" lon="-8.6610160">
        <ele>11.3</ele>
        <time>2021-05-23T12:00:35Z</time>
      </trkpt>
      <trkpt lat="42.7376280" lon="-8.6610160">
        <ele>11.3</ele>
        <time>2021-05-23T12:00:36Z</time>
      </trkpt>
      <trkpt lat="42.7376280" lon="-8.6610160">
        <ele>11.3</ele>
        <time>2021-05-23T12:00:37Z</time>
      </trkpt>
      <trkpt lat="42.7376280" lon="-8.6610160">
        <ele>11.3</ele>
        <time>2021-05-23T12:00:38Z</time>
      </trkpt>
      <trkpt lat="42.7376280" lon="-8.6610160">
        <ele>11.3</ele>
        <time>2021-05-23T12:00:39Z</time>
      </trkpt>
      <trkpt lat="42.7376280" lon="-8.6610160">
        <ele>11.3</ele>
        <time>2021-05-23T12:00:40Z</time>
      </trkpt>
      <trkpt lat="42.7376280" lon="-8.6610160">
        <ele>11.3</ele>
        <time>2021-05-23T12:00:41Z</time>
      </trkpt>
      <trkpt lat="42.7376280" lon="-8.6610160">
        <ele>11.3</ele>
        <time>2021-05-23T12:00:42Z</time>
      </trkpt>
      <trkpt lat="42.7376280" lon="-8.6610160">
        <ele>11.3</ele>
        <time>2021-05-23T12:00:43Z</time>
      </trkpt>
      <trkpt lat="42.7376280" lon="-8.6610160">
        <ele>11.3</ele>
        <time>2021-05-23T12:00:45Z</time>
      </trkpt>
      <trkpt lat="42.7376280" lon="-8.6610160">
        <ele>11.3</ele>
        <time>2021-05-23T12:00:46Z</time>
      </trkpt>
      <trkpt lat="42.7376280" lon="-8.6610160">
        <ele>11.3</ele>
        <time>2021-05-23T12:00:47Z</time>
      </trkpt>
      <trkpt lat="42.7376280" lon="-8.6610160">
        <ele>11.3</ele>
        <time>2021-05-23T12:00:48Z</time>
      </trkpt>
      <trkpt lat="42.7376280" lon="-8.6610160">
        <ele>11.3</ele>
        <time>2021-05-23T12:00:49Z</time>
      </trkpt>
      <trkpt lat="42.7376280" lon="-8.6610160">
        <ele>11.3</ele>
        <time>2021-05-23T12:00:50Z</time>
      </trkpt>
      <trkpt lat="42.7376280" lon="-8.6610160">
        <ele>11.3</ele>
        <time>2021-05-23T12:00:51Z</time>
      </trkpt>
      <trkpt lat="42.7376280" lon="-8.6610160">
        <ele>11.3</ele>
        <time>2021-05-23T12:00:52Z</time>
      </trkpt>
      <trkpt lat="42.7376280" lon="-8.6610160">
        <ele>11.3</ele>
        <time>2021-05-23T12:00:53Z</time>
      </trkpt>
      <trkpt lat="42.7376280" lon="-8.6610160">
        <ele>11.3</ele>
        <time>2021-05-23T12:00:54Z</time>
      </trkpt>
      <trkpt lat="42.7376280" lon="-8.6610160">
        <ele>11.3</ele>
        <time>2021-05-23T12:00:55Z</time>
      </trkpt>
      <trkpt lat="42.7376280" lon="-8.6610160">
        <ele>11.3</ele>
        <time>2021-05-23T12:00:56Z</time>
      </trkpt>
      <trkpt lat="42.7376280" lon="-8.6610160">
        <ele>11.3</ele>
        <time>2021-05-23T12:00:57Z</time>
      </trkpt>
      <trkpt lat="42.7376280" lon="-8.6610160">
        <ele>11.3</ele>
        <time>2021-05-23T12:00:58Z</time>
      </trkpt>
      <trkpt lat="42.7376280" lon="-8.6610160">
        <ele>11.3</ele>
        <time>2021-05-23T12:00:59Z</time>
      </trkpt>
      <trkpt lat="42.7376280" lon="-8.6610160">
        <ele>11.3</ele>
        <time>2021-05-23T12:01:00Z</time>
      </trkpt>
      <trkpt lat="42.7376280" lon="-8.6610160">
        <ele>11.3</ele>
        <time>2021-05-23T12:01:01Z</time>
      </trkpt>
      <trkpt lat="42.7376280" lon="-8.6610160">
        <ele>11.3</ele>
        <time>2021-05-23T12:01:02Z</time>
      </trkpt>
      <trkpt lat="42.7376280" lon="-8.6610160">
        <ele>11.3</ele>
        <time>2021-05-23T12:01:03Z</time>
      </trkpt>
      <trkpt lat="42.7376280" lon="-8.6610160">
        <ele>11.3</ele>
        <time>2021-05-23T12:01:04Z</time>
      </trkpt>
      <trkpt lat="42.7376280" lon="-8.6610160">
        <ele>11.3</ele>
        <time>2021-05-23T12:01:05Z</time>
      </trkpt>
      <trkpt lat="42.7376280" lon="-8.6610160">
        <ele>11.3</ele>
        <time>2021-05-23T12:01:06Z</time>
      </trkpt>
      <trkpt lat="42.7376280" lon="-8.6610160">
        <ele>11.3</ele>
        <time>2021-05-23T12:01:07Z</time>
      </trkpt>
      <trkpt lat="42.7376280" lon="-8.6610160">
        <ele>11.3</ele>
        <time>2021-05-23T12:01:08Z</time>
      </trkpt>
      <trkpt lat="42.7376280" lon="-8.6610160">
        <ele>11.3</ele>
        <time>2021-05-23T12:01:09Z</time>
      </trkpt>
      <trkpt lat="42.7376280" lon="-8.6610160">
        <ele>11.3</ele>
        <time>2021-05-23T12:01:10Z</time>
      </trkpt>
      <trkpt lat="42.7376280" lon="-8.6610160">
        <ele>11.3</ele>
        <time>2021-05-23T12:01:11Z</time>
      </trkpt>
      <trkpt lat="42.7376280" lon="-8.6610160">
        <ele>11.3</ele>
        <time>2021-05-23T12:01:12Z</time>
      </trkpt>
      <trkpt lat="42.7376280" lon="-8.6610160">
        <ele>11.3</ele>
        <time>2021-05-23T12:01:13Z</time>
      </trkpt>
      <trkpt lat="42.7376280" lon="-8.6610160">
        <ele>11.3</ele>
        <time>2021-05-23T12:01:14Z</time>
      </trkpt>
      <trkpt lat="42.7376280" lon="-8.6610160">
        <ele>11.3</ele>
        <time>2021-05-23T12:01:15Z</time>
      </trkpt>
      <trkpt lat="42.7376280" lon="-8.6610160">
        <ele>11.3</ele>
        <time>2021-05-23T12:01:16Z</time>
      </trkpt>
      <trkpt lat="42.7376280" lon="-8.6610160">
        <ele>11.3</ele>
        <time>2021-05-23T12:01:17Z</time>
      </trkpt>
      <trkpt lat="42.7376280" lon="-8.6610160">
        <ele>11.3</ele>
        <time>2021-05-23T12:01:18Z</time>
      </trkpt>
      <trkpt lat="42.7376280" lon="-8.6610160">
        <ele>11.3</ele>
        <time>2021-05-23T12:01:19Z</time>
      </trkpt>
      <trkpt lat="42.7376280" lon="-8.6610160">
        <ele>11.3</ele>
        <time>2021-05-23T12:01:20Z</time>
      </trkpt>
      <trkpt lat="42.7376280" lon="-8.6610160">
        <ele>11.3</ele>
        <time>2021-05-23T12:01:21Z</time>
      </trkpt>
      <trkpt lat="42.7376280" lon="-8.6610160">
        <ele>11.3</ele>
        <time>2021-05-23T12:01:22Z</time>
      </trkpt>
      <trkpt lat="42.7376280" lon="-8.6610160">
        <ele>11.3</ele>
        <time>2021-05-23T12:01:23Z</time>
      </trkpt>
      <trkpt lat="42.7376280" lon="-8.6610160">
        <ele>11.3</ele>
        <time>2021-05-23T12:01:24Z</time>
      </trkpt>
      <trkpt lat="42.7376280" lon="-8.6610160">
        <ele>11.3</ele>
        <time>2021-05-23T12:01:25Z</time>
      </trkpt>
      <trkpt lat="42.7376280" lon="-8.6610160">
        <ele>11.3</ele>
        <time>2021-05-23T12:01:26Z</time>
      </trkpt>
      <trkpt lat="42.7376280" lon="-8.6610160">
        <ele>11.3</ele>
        <time>2021-05-23T12:01:27Z</time>
      </trkpt>
      <trkpt lat="42.7376280" lon="-8.6610160">
        <ele>11.3</ele>
        <time>2021-05-23T12:01:28Z</time>
      </trkpt>
      <trkpt lat="42.7376280" lon="-8.6610160">
        <ele>11.3</ele>
        <time>2021-05-23T12:01:29Z</time>
      </trkpt>
      <trkpt lat="42.7376280" lon="-8.6610160">
        <ele>11.3</ele>
        <time>2021-05-23T12:01:30Z</time>
      </trkpt>
      <trkpt lat="42.7376280" lon="-8.6610160">
        <ele>11.3</ele>
        <time>2021-05-23T12:01:31Z</time>
      </trkpt>
      <trkpt lat="42.7376280" lon="-8.6610160">
        <ele>11.3</ele>
        <time>2021-05-23T12:01:32Z</time>
      </trkpt>
      <trkpt lat="42.7376280" lon="-8.6610160">
        <ele>11.3</ele>
        <time>2021-05-23T12:01:33Z</time>
      </trkpt>
      <trkpt lat="42.7376280" lon="-8.6610160">
        <ele>11.3</ele>
        <time>2021-05-23T12:01:34Z</time>
      </trkpt>
      <trkpt lat="42.7376280" lon="-8.6610160">
        <ele>11.3</ele>
        <time>2021-05-23T12:01:35Z</time>
      </trkpt>
      <trkpt lat="42.7376280" lon="-8.6610160">
        <ele>11.3</ele>
        <time>2021-05-23T12:01:36Z</time>
      </trkpt>
      <trkpt lat="42.7376280" lon="-8.6610160">
        <ele>11.3</ele>
        <time>2021-05-23T12:01:37Z</time>
      </trkpt>
      <trkpt lat="42.7376280" lon="-8.6610160">
        <ele>11.3</ele>
        <time>2021-05-23T12:01:38Z</time>
      </trkpt>
      <trkpt lat="42.7376280" lon="-8.6610160">
        <ele>11.3</ele>
        <time>2021-05-23T12:01:39Z</time>
      </trkpt>
      <trkpt lat="42.7376280" lon="-8.6610160">
        <ele>11.3</ele>
        <time>2021-05-23T12:01:40Z</time>
      </trkpt>
      <trkpt lat="42.7376280" lon="-8.6610160">
        <ele>11.3</ele>
        <time>2021-05-23T12:01:41Z</time>
      </trkpt>
      <trkpt lat="42.7376280" lon="-8.6610160">
        <ele>11.3</ele>
        <time>2021-05-23T12:01:42Z</time>
      </trkpt>
      <trkpt lat="42.7376280" lon="-8.6610160">
        <ele>11.3</ele>
        <time>2021-05-23T12:01:43Z</time>
      </trkpt>
      <trkpt lat="42.7376280" lon="-8.6610160">
        <ele>11.3</ele>
        <time>2021-05-23T12:01:44Z</time>
      </trkpt>
      <trkpt lat="42.7376280" lon="-8.6610160">
        <ele>11.3</ele>
        <time>2021-05-23T12:01:45Z</time>
      </trkpt>
      <trkpt lat="42.7376280" lon="-8.6610160">
        <ele>11.3</ele>
        <time>2021-05-23T12:01:46Z</time>
      </trkpt>
      <trkpt lat="42.7376280" lon="-8.6610160">
        <ele>11.3</ele>
        <time>2021-05-23T12:01:48Z</time>
      </trkpt>
      <trkpt lat="42.7376410" lon="-8.6610210">
        <ele>11.3</ele>
        <time>2021-05-23T12:01:49Z</time>
      </trkpt>
      <trkpt lat="42.7376410" lon="-8.6610210">
        <ele>11.3</ele>
        <time>2021-05-23T12:01:50Z</time>
      </trkpt>
      <trkpt lat="42.7376410" lon="-8.6610210">
        <ele>11.3</ele>
        <time>2021-05-23T12:01:51Z</time>
      </trkpt>
      <trkpt lat="42.7376400" lon="-8.6610210">
        <ele>11.3</ele>
        <time>2021-05-23T12:01:52Z</time>
      </trkpt>
      <trkpt lat="42.7376400" lon="-8.6610210">
        <ele>11.3</ele>
        <time>2021-05-23T12:01:53Z</time>
      </trkpt>
      <trkpt lat="42.7376400" lon="-8.6610210">
        <ele>11.3</ele>
        <time>2021-05-23T12:01:54Z</time>
      </trkpt>
      <trkpt lat="42.7376400" lon="-8.6610210">
        <ele>11.3</ele>
        <time>2021-05-23T12:01:55Z</time>
      </trkpt>
      <trkpt lat="42.7376400" lon="-8.6610210">
        <ele>11.3</ele>
        <time>2021-05-23T12:01:56Z</time>
      </trkpt>
      <trkpt lat="42.7376400" lon="-8.6610210">
        <ele>11.3</ele>
        <time>2021-05-23T12:01:57Z</time>
      </trkpt>
      <trkpt lat="42.7376390" lon="-8.6610210">
        <ele>11.3</ele>
        <time>2021-05-23T12:01:58Z</time>
      </trkpt>
      <trkpt lat="42.7376390" lon="-8.6610210">
        <ele>11.3</ele>
        <time>2021-05-23T12:01:59Z</time>
      </trkpt>
      <trkpt lat="42.7376390" lon="-8.6610220">
        <ele>11.3</ele>
        <time>2021-05-23T12:02:00Z</time>
      </trkpt>
      <trkpt lat="42.7376390" lon="-8.6610220">
        <ele>11.3</ele>
        <time>2021-05-23T12:02:01Z</time>
      </trkpt>
      <trkpt lat="42.7376390" lon="-8.6610220">
        <ele>11.3</ele>
        <time>2021-05-23T12:02:02Z</time>
      </trkpt>
      <trkpt lat="42.7376380" lon="-8.6610220">
        <ele>11.3</ele>
        <time>2021-05-23T12:02:03Z</time>
      </trkpt>
      <trkpt lat="42.7376380" lon="-8.6610220">
        <ele>11.3</ele>
        <time>2021-05-23T12:02:04Z</time>
      </trkpt>
      <trkpt lat="42.7376380" lon="-8.6610220">
        <ele>11.3</ele>
        <time>2021-05-23T12:02:05Z</time>
      </trkpt>
      <trkpt lat="42.7376380" lon="-8.6610220">
        <ele>11.3</ele>
        <time>2021-05-23T12:02:06Z</time>
      </trkpt>
      <trkpt lat="42.7376380" lon="-8.6610220">
        <ele>11.3</ele>
        <time>2021-05-23T12:02:07Z</time>
      </trkpt>
      <trkpt lat="42.7376380" lon="-8.6610220">
        <ele>11.3</ele>
        <time>2021-05-23T12:02:08Z</time>
      </trkpt>
      <trkpt lat="42.7376370" lon="-8.6610220">
        <ele>11.3</ele>
        <time>2021-05-23T12:02:09Z</time>
      </trkpt>
      <trkpt lat="42.7376370" lon="-8.6610220">
        <ele>11.3</ele>
        <time>2021-05-23T12:02:10Z</time>
      </trkpt>
      <trkpt lat="42.7376370" lon="-8.6610220">
        <ele>11.3</ele>
        <time>2021-05-23T12:02:11Z</time>
      </trkpt>
      <trkpt lat="42.7376370" lon="-8.6610220">
        <ele>11.3</ele>
        <time>2021-05-23T12:02:12Z</time>
      </trkpt>
      <trkpt lat="42.7376370" lon="-8.6610220">
        <ele>11.3</ele>
        <time>2021-05-23T12:02:13Z</time>
      </trkpt>
      <trkpt lat="42.7376370" lon="-8.6610220">
        <ele>11.3</ele>
        <time>2021-05-23T12:02:14Z</time>
      </trkpt>
      <trkpt lat="42.7376360" lon="-8.6610220">
        <ele>11.3</ele>
        <time>2021-05-23T12:02:15Z</time>
      </trkpt>
      <trkpt lat="42.7376360" lon="-8.6610220">
        <ele>11.3</ele>
        <time>2021-05-23T12:02:16Z</time>
      </trkpt>
      <trkpt lat="42.7376360" lon="-8.6610220">
        <ele>11.3</ele>
        <time>2021-05-23T12:02:17Z</time>
      </trkpt>
      <trkpt lat="42.7376360" lon="-8.6610220">
        <ele>11.3</ele>
        <time>2021-05-23T12:02:18Z</time>
      </trkpt>
      <trkpt lat="42.7376360" lon="-8.6610220">
        <ele>11.3</ele>
        <time>2021-05-23T12:02:19Z</time>
      </trkpt>
      <trkpt lat="42.7376350" lon="-8.6610230">
        <ele>11.3</ele>
        <time>2021-05-23T12:02:20Z</time>
      </trkpt>
      <trkpt lat="42.7376350" lon="-8.6610230">
        <ele>11.3</ele>
        <time>2021-05-23T12:02:21Z</time>
      </trkpt>
      <trkpt lat="42.7376350" lon="-8.6610230">
        <ele>11.3</ele>
        <time>2021-05-23T12:02:22Z</time>
      </trkpt>
      <trkpt lat="42.7376350" lon="-8.6610230">
        <ele>11.3</ele>
        <time>2021-05-23T12:02:23Z</time>
      </trkpt>
      <trkpt lat="42.7376350" lon="-8.6610230">
        <ele>11.3</ele>
        <time>2021-05-23T12:02:24Z</time>
      </trkpt>
      <trkpt lat="42.7376350" lon="-8.6610230">
        <ele>11.3</ele>
        <time>2021-05-23T12:02:25Z</time>
      </trkpt>
      <trkpt lat="42.7376340" lon="-8.6610230">
        <ele>11.3</ele>
        <time>2021-05-23T12:02:26Z</time>
      </trkpt>
      <trkpt lat="42.7376340" lon="-8.6610230">
        <ele>11.3</ele>
        <time>2021-05-23T12:02:27Z</time>
      </trkpt>
      <trkpt lat="42.7376340" lon="-8.6610230">
        <ele>11.3</ele>
        <time>2021-05-23T12:02:28Z</time>
      </trkpt>
      <trkpt lat="42.7376340" lon="-8.6610230">
        <ele>11.3</ele>
        <time>2021-05-23T12:02:29Z</time>
      </trkpt>
      <trkpt lat="42.7376340" lon="-8.6610230">
        <ele>11.3</ele>
        <time>2021-05-23T12:02:30Z</time>
      </trkpt>
      <trkpt lat="42.7376330" lon="-8.6610230">
        <ele>11.3</ele>
        <time>2021-05-23T12:02:31Z</time>
      </trkpt>
      <trkpt lat="42.7376330" lon="-8.6610230">
        <ele>11.3</ele>
        <time>2021-05-23T12:02:32Z</time>
      </trkpt>
      <trkpt lat="42.7376330" lon="-8.6610230">
        <ele>11.3</ele>
        <time>2021-05-23T12:02:33Z</time>
      </trkpt>
      <trkpt lat="42.7376330" lon="-8.6610230">
        <ele>11.3</ele>
        <time>2021-05-23T12:02:34Z</time>
      </trkpt>
      <trkpt lat="42.7376330" lon="-8.6610230">
        <ele>11.3</ele>
        <time>2021-05-23T12:02:35Z</time>
      </trkpt>
      <trkpt lat="42.7376330" lon="-8.6610230">
        <ele>11.3</ele>
        <time>2021-05-23T12:02:36Z</time>
      </trkpt>
      <trkpt lat="42.7376320" lon="-8.6610230">
        <ele>11.3</ele>
        <time>2021-05-23T12:02:37Z</time>
      </trkpt>
      <trkpt lat="42.7376320" lon="-8.6610230">
        <ele>11.3</ele>
        <time>2021-05-23T12:02:38Z</time>
      </trkpt>
      <trkpt lat="42.7376320" lon="-8.6610230">
        <ele>11.3</ele>
        <time>2021-05-23T12:02:39Z</time>
      </trkpt>
      <trkpt lat="42.7376320" lon="-8.6610240">
        <ele>11.3</ele>
        <time>2021-05-23T12:02:40Z</time>
      </trkpt>
      <trkpt lat="42.7376320" lon="-8.6610240">
        <ele>11.3</ele>
        <time>2021-05-23T12:02:41Z</time>
      </trkpt>
      <trkpt lat="42.7376310" lon="-8.6610240">
        <ele>11.3</ele>
        <time>2021-05-23T12:02:42Z</time>
      </trkpt>
      <trkpt lat="42.7376310" lon="-8.6610240">
        <ele>11.3</ele>
        <time>2021-05-23T12:02:43Z</time>
      </trkpt>
      <trkpt lat="42.7376310" lon="-8.6610240">
        <ele>11.3</ele>
        <time>2021-05-23T12:02:44Z</time>
      </trkpt>
      <trkpt lat="42.7376310" lon="-8.6610240">
        <ele>11.3</ele>
        <time>2021-05-23T12:02:45Z</time>
      </trkpt>
      <trkpt lat="42.7376310" lon="-8.6610240">
        <ele>11.3</ele>
        <time>2021-05-23T12:02:46Z</time>
      </trkpt>
      <trkpt lat="42.7376310" lon="-8.6610240">
        <ele>11.3</ele>
        <time>2021-05-23T12:02:47Z</time>
      </trkpt>
      <trkpt lat="42.7376300" lon="-8.6610240">
        <ele>11.3</ele>
        <time>2021-05-23T12:02:48Z</time>
      </trkpt>
      <trkpt lat="42.7376300" lon="-8.6610240">
        <ele>11.3</ele>
        <time>2021-05-23T12:02:49Z</time>
      </trkpt>
      <trkpt lat="42.7376300" lon="-8.6610240">
        <ele>11.3</ele>
        <time>2021-05-23T12:02:50Z</time>
      </trkpt>
      <trkpt lat="42.7376300" lon="-8.6610240">
        <ele>11.3</ele>
        <time>2021-05-23T12:02:51Z</time>
      </trkpt>
      <trkpt lat="42.7376300" lon="-8.6610240">
        <ele>11.3</ele>
        <time>2021-05-23T12:02:52Z</time>
      </trkpt>
      <trkpt lat="42.7376300" lon="-8.6610240">
        <ele>11.3</ele>
        <time>2021-05-23T12:02:53Z</time>
      </trkpt>
      <trkpt lat="42.7376290" lon="-8.6610240">
        <ele>11.3</ele>
        <time>2021-05-23T12:02:54Z</time>
      </trkpt>
      <trkpt lat="42.7376290" lon="-8.6610240">
        <ele>11.3</ele>
        <time>2021-05-23T12:02:55Z</time>
      </trkpt>
      <trkpt lat="42.7376290" lon="-8.6610240">
        <ele>11.3</ele>
        <time>2021-05-23T12:02:56Z</time>
      </trkpt>
      <trkpt lat="42.7376290" lon="-8.6610240">
        <ele>11.3</ele>
        <time>2021-05-23T12:02:57Z</time>
      </trkpt>
      <trkpt lat="42.7376290" lon="-8.6610240">
        <ele>11.3</ele>
        <time>2021-05-23T12:02:58Z</time>
      </trkpt>
      <trkpt lat="42.7376280" lon="-8.6610240">
        <ele>11.3</ele>
        <time>2021-05-23T12:02:59Z</time>
      </trkpt>
      <trkpt lat="42.7376280" lon="-8.6610250">
        <ele>11.3</ele>
        <time>2021-05-23T12:03:00Z</time>
      </trkpt>
      <trkpt lat="42.7376280" lon="-8.6610250">
        <ele>11.3</ele>
        <time>2021-05-23T12:03:01Z</time>
      </trkpt>
      <trkpt lat="42.7376280" lon="-8.6610250">
        <ele>11.3</ele>
        <time>2021-05-23T12:03:02Z</time>
      </trkpt>
      <trkpt lat="42.7376280" lon="-8.6610250">
        <ele>11.3</ele>
        <time>2021-05-23T12:03:03Z</time>
      </trkpt>
      <trkpt lat="42.7376280" lon="-8.6610250">
        <ele>11.3</ele>
        <time>2021-05-23T12:03:04Z</time>
      </trkpt>
      <trkpt lat="42.7376270" lon="-8.6610250">
        <ele>11.3</ele>
        <time>2021-05-23T12:03:05Z</time>
      </trkpt>
      <trkpt lat="42.7376270" lon="-8.6610250">
        <ele>11.3</ele>
        <time>2021-05-23T12:03:06Z</time>
      </trkpt>
      <trkpt lat="42.7376270" lon="-8.6610250">
        <ele>11.3</ele>
        <time>2021-05-23T12:03:07Z</time>
      </trkpt>
      <trkpt lat="42.7376270" lon="-8.6610250">
        <ele>11.3</ele>
        <time>2021-05-23T12:03:08Z</time>
      </trkpt>
      <trkpt lat="42.7376270" lon="-8.6610250">
        <ele>11.3</ele>
        <time>2021-05-23T12:03:09Z</time>
      </trkpt>
      <trkpt lat="42.7376260" lon="-8.6610250">
        <ele>11.3</ele>
        <time>2021-05-23T12:03:10Z</time>
      </trkpt>
      <trkpt lat="42.7376260" lon="-8.6610250">
        <ele>11.3</ele>
        <time>2021-05-23T12:03:11Z</time>
      </trkpt>
      <trkpt lat="42.7376260" lon="-8.6610250">
        <ele>11.3</ele>
        <time>2021-05-23T12:03:12Z</time>
      </trkpt>
      <trkpt lat="42.7376260" lon="-8.6610250">
        <ele>11.3</ele>
        <time>2021-05-23T12:03:13Z</time>
      </trkpt>
      <trkpt lat="42.7376260" lon="-8.6610250">
        <ele>11.3</ele>
        <time>2021-05-23T12:03:14Z</time>
      </trkpt>
      <trkpt lat="42.7376260" lon="-8.6610250">
        <ele>11.3</ele>
        <time>2021-05-23T12:03:15Z</time>
      </trkpt>
      <trkpt lat="42.7376250" lon="-8.6610250">
        <ele>11.3</ele>
        <time>2021-05-23T12:03:16Z</time>
      </trkpt>
      <trkpt lat="42.7376250" lon="-8.6610250">
        <ele>11.3</ele>
        <time>2021-05-23T12:03:17Z</time>
      </trkpt>
      <trkpt lat="42.7376250" lon="-8.6610250">
        <ele>11.3</ele>
        <time>2021-05-23T12:03:18Z</time>
      </trkpt>
      <trkpt lat="42.7376250" lon="-8.6610250">
        <ele>11.3</ele>
        <time>2021-05-23T12:03:19Z</time>
      </trkpt>
      <trkpt lat="42.7376250" lon="-8.6610250">
        <ele>11.3</ele>
        <time>2021-05-23T12:03:20Z</time>
      </trkpt>
      <trkpt lat="42.7376240" lon="-8.6610260">
        <ele>11.3</ele>
        <time>2021-05-23T12:03:21Z</time>
      </trkpt>
      <trkpt lat="42.7376240" lon="-8.6610260">
        <ele>11.3</ele>
        <time>2021-05-23T12:03:22Z</time>
      </trkpt>
      <trkpt lat="42.7376240" lon="-8.6610260">
        <ele>11.3</ele>
        <time>2021-05-23T12:03:23Z</time>
      </trkpt>
      <trkpt lat="42.7376240" lon="-8.6610260">
        <ele>11.3</ele>
        <time>2021-05-23T12:03:24Z</time>
      </trkpt>
      <trkpt lat="42.7376240" lon="-8.6610260">
        <ele>11.3</ele>
        <time>2021-05-23T12:03:25Z</time>
      </trkpt>
      <trkpt lat="42.7376240" lon="-8.6610260">
        <ele>11.3</ele>
        <time>2021-05-23T12:03:26Z</time>
      </trkpt>
      <trkpt lat="42.7376230" lon="-8.6610260">
        <ele>11.3</ele>
        <time>2021-05-23T12:03:27Z</time>
      </trkpt>
      <trkpt lat="42.7376230" lon="-8.6610260">
        <ele>11.3</ele>
        <time>2021-05-23T12:03:28Z</time>
      </trkpt>
      <trkpt lat="42.7376230" lon="-8.6610260">
        <ele>11.3</ele>
        <time>2021-05-23T12:03:29Z</time>
      </trkpt>
      <trkpt lat="42.7376230" lon="-8.6610260">
        <ele>11.3</ele>
        <time>2021-05-23T12:03:30Z</time>
      </trkpt>
      <trkpt lat="42.7376230" lon="-8.6610260">
        <ele>11.3</ele>
        <time>2021-05-23T12:03:31Z</time>
      </trkpt>
      <trkpt lat="42.7376230" lon="-8.6610260">
        <ele>11.3</ele>
        <time>2021-05-23T12:03:32Z</time>
      </trkpt>
      <trkpt lat="42.7376220" lon="-8.6610260">
        <ele>11.3</ele>
        <time>2021-05-23T12:03:33Z</time>
      </trkpt>
      <trkpt lat="42.7376220" lon="-8.6610260">
        <ele>11.3</ele>
        <time>2021-05-23T12:03:34Z</time>
      </trkpt>
      <trkpt lat="42.7376220" lon="-8.6610260">
        <ele>11.3</ele>
        <time>2021-05-23T12:03:35Z</time>
      </trkpt>
      <trkpt lat="42.7376220" lon="-8.6610260">
        <ele>11.3</ele>
        <time>2021-05-23T12:03:36Z</time>
      </trkpt>
      <trkpt lat="42.7376220" lon="-8.6610260">
        <ele>11.3</ele>
        <time>2021-05-23T12:03:37Z</time>
      </trkpt>
      <trkpt lat="42.7376210" lon="-8.6610260">
        <ele>11.3</ele>
        <time>2021-05-23T12:03:38Z</time>
      </trkpt>
      <trkpt lat="42.7376210" lon="-8.6610260">
        <ele>11.3</ele>
        <time>2021-05-23T12:03:39Z</time>
      </trkpt>
      <trkpt lat="42.7376210" lon="-8.6610260">
        <ele>11.3</ele>
        <time>2021-05-23T12:03:40Z</time>
      </trkpt>
      <trkpt lat="42.7376210" lon="-8.6610270">
        <ele>11.3</ele>
        <time>2021-05-23T12:03:41Z</time>
      </trkpt>
      <trkpt lat="42.7376210" lon="-8.6610270">
        <ele>11.3</ele>
        <time>2021-05-23T12:03:42Z</time>
      </trkpt>
      <trkpt lat="42.7376210" lon="-8.6610270">
        <ele>11.3</ele>
        <time>2021-05-23T12:03:43Z</time>
      </trkpt>
      <trkpt lat="42.7376200" lon="-8.6610270">
        <ele>11.3</ele>
        <time>2021-05-23T12:03:44Z</time>
      </trkpt>
      <trkpt lat="42.7376200" lon="-8.6610270">
        <ele>11.3</ele>
        <time>2021-05-23T12:03:45Z</time>
      </trkpt>
      <trkpt lat="42.7376200" lon="-8.6610270">
        <ele>11.3</ele>
        <time>2021-05-23T12:03:46Z</time>
      </trkpt>
      <trkpt lat="42.7376200" lon="-8.6610270">
        <ele>11.3</ele>
        <time>2021-05-23T12:03:47Z</time>
      </trkpt>
      <trkpt lat="42.7376200" lon="-8.6610270">
        <ele>11.3</ele>
        <time>2021-05-23T12:03:48Z</time>
      </trkpt>
      <trkpt lat="42.7376190" lon="-8.6610270">
        <ele>11.3</ele>
        <time>2021-05-23T12:03:49Z</time>
      </trkpt>
      <trkpt lat="42.7376190" lon="-8.6610270">
        <ele>11.3</ele>
        <time>2021-05-23T12:03:50Z</time>
      </trkpt>
      <trkpt lat="42.7376190" lon="-8.6610270">
        <ele>11.3</ele>
        <time>2021-05-23T12:03:51Z</time>
      </trkpt>
      <trkpt lat="42.7376190" lon="-8.6610270">
        <ele>11.3</ele>
        <time>2021-05-23T12:03:52Z</time>
      </trkpt>
      <trkpt lat="42.7376190" lon="-8.6610270">
        <ele>11.3</ele>
        <time>2021-05-23T12:03:53Z</time>
      </trkpt>
      <trkpt lat="42.7376190" lon="-8.6610270">
        <ele>11.3</ele>
        <time>2021-05-23T12:03:54Z</time>
      </trkpt>
      <trkpt lat="42.7376180" lon="-8.6610270">
        <ele>11.3</ele>
        <time>2021-05-23T12:03:55Z</time>
      </trkpt>
      <trkpt lat="42.7376180" lon="-8.6610270">
        <ele>11.3</ele>
        <time>2021-05-23T12:03:56Z</time>
      </trkpt>
      <trkpt lat="42.7376180" lon="-8.6610270">
        <ele>11.3</ele>
        <time>2021-05-23T12:03:57Z</time>
      </trkpt>
      <trkpt lat="42.7376180" lon="-8.6610270">
        <ele>11.3</ele>
        <time>2021-05-23T12:03:58Z</time>
      </trkpt>
      <trkpt lat="42.7376180" lon="-8.6610270">
        <ele>11.3</ele>
        <time>2021-05-23T12:03:59Z</time>
      </trkpt>
      <trkpt lat="42.7376180" lon="-8.6610270">
        <ele>11.3</ele>
        <time>2021-05-23T12:04:00Z</time>
      </trkpt>
      <trkpt lat="42.7376170" lon="-8.6610280">
        <ele>11.3</ele>
        <time>2021-05-23T12:04:01Z</time>
      </trkpt>
      <trkpt lat="42.7376170" lon="-8.6610280">
        <ele>11.3</ele>
        <time>2021-05-23T12:04:02Z</time>
      </trkpt>
      <trkpt lat="42.7376170" lon="-8.6610280">
        <ele>11.3</ele>
        <time>2021-05-23T12:04:03Z</time>
      </trkpt>
      <trkpt lat="42.7376170" lon="-8.6610280">
        <ele>11.3</ele>
        <time>2021-05-23T12:04:04Z</time>
      </trkpt>
      <trkpt lat="42.7376170" lon="-8.6610280">
        <ele>11.3</ele>
        <time>2021-05-23T12:04:05Z</time>
      </trkpt>
      <trkpt lat="42.7376160" lon="-8.6610280">
        <ele>11.3</ele>
        <time>2021-05-23T12:04:06Z</time>
      </trkpt>
      <trkpt lat="42.7376160" lon="-8.6610280">
        <ele>11.3</ele>
        <time>2021-05-23T12:04:07Z</time>
      </trkpt>
      <trkpt lat="42.7376160" lon="-8.6610280">
        <ele>11.3</ele>
        <time>2021-05-23T12:04:08Z</time>
      </trkpt>
      <trkpt lat="42.7376160" lon="-8.6610280">
        <ele>11.3</ele>
        <time>2021-05-23T12:04:09Z</time>
      </trkpt>
      <trkpt lat="42.7376160" lon="-8.6610280">
        <ele>11.3</ele>
        <time>2021-05-23T12:04:10Z</time>
      </trkpt>
      <trkpt lat="42.7376160" lon="-8.6610280">
        <ele>11.3</ele>
        <time>2021-05-23T12:04:11Z</time>
      </trkpt>
      <trkpt lat="42.7376150" lon="-8.6610280">
        <ele>11.3</ele>
        <time>2021-05-23T12:04:12Z</time>
      </trkpt>
      <trkpt lat="42.7376150" lon="-8.6610280">
        <ele>11.3</ele>
        <time>2021-05-23T12:04:13Z</time>
      </trkpt>
      <trkpt lat="42.7376150" lon="-8.6610280">
        <ele>11.3</ele>
        <time>2021-05-23T12:04:14Z</time>
      </trkpt>
      <trkpt lat="42.7376150" lon="-8.6610280">
        <ele>11.3</ele>
        <time>2021-05-23T12:04:15Z</time>
      </trkpt>
      <trkpt lat="42.7376150" lon="-8.6610280">
        <ele>11.3</ele>
        <time>2021-05-23T12:04:16Z</time>
      </trkpt>
      <trkpt lat="42.7376140" lon="-8.6610280">
        <ele>11.3</ele>
        <time>2021-05-23T12:04:17Z</time>
      </trkpt>
      <trkpt lat="42.7376140" lon="-8.6610280">
        <ele>11.3</ele>
        <time>2021-05-23T12:04:18Z</time>
      </trkpt>
      <trkpt lat="42.7376140" lon="-8.6610280">
        <ele>11.3</ele>
        <time>2021-05-23T12:04:19Z</time>
      </trkpt>
      <trkpt lat="42.7376140" lon="-8.6610280">
        <ele>11.3</ele>
        <time>2021-05-23T12:04:20Z</time>
      </trkpt>
      <trkpt lat="42.7376140" lon="-8.6610280">
        <ele>11.3</ele>
        <time>2021-05-23T12:04:21Z</time>
      </trkpt>
      <trkpt lat="42.7376140" lon="-8.6610290">
        <ele>11.3</ele>
        <time>2021-05-23T12:04:22Z</time>
      </trkpt>
      <trkpt lat="42.7376130" lon="-8.6610290">
        <ele>11.3</ele>
        <time>2021-05-23T12:04:23Z</time>
      </trkpt>
      <trkpt lat="42.7376130" lon="-8.6610290">
        <ele>11.3</ele>
        <time>2021-05-23T12:04:24Z</time>
      </trkpt>
      <trkpt lat="42.7376130" lon="-8.6610290">
        <ele>11.3</ele>
        <time>2021-05-23T12:04:25Z</time>
      </trkpt>
      <trkpt lat="42.7376130" lon="-8.6610290">
        <ele>11.3</ele>
        <time>2021-05-23T12:04:26Z</time>
      </trkpt>
      <trkpt lat="42.7376130" lon="-8.6610290">
        <ele>11.3</ele>
        <time>2021-05-23T12:04:27Z</time>
      </trkpt>
      <trkpt lat="42.7376120" lon="-8.6610290">
        <ele>11.3</ele>
        <time>2021-05-23T12:04:28Z</time>
      </trkpt>
      <trkpt lat="42.7376120" lon="-8.6610290">
        <ele>11.3</ele>
        <time>2021-05-23T12:04:29Z</time>
      </trkpt>
      <trkpt lat="42.7376120" lon="-8.6610290">
        <ele>11.3</ele>
        <time>2021-05-23T12:04:30Z</time>
      </trkpt>
      <trkpt lat="42.7376120" lon="-8.6610290">
        <ele>11.3</ele>
        <time>2021-05-23T12:04:31Z</time>
      </trkpt>
      <trkpt lat="42.7376120" lon="-8.6610290">
        <ele>11.3</ele>
        <time>2021-05-23T12:04:32Z</time>
      </trkpt>
      <trkpt lat="42.7376120" lon="-8.6610290">
        <ele>11.3</ele>
        <time>2021-05-23T12:04:33Z</time>
      </trkpt>
      <trkpt lat="42.7376110" lon="-8.6610290">
        <ele>11.3</ele>
        <time>2021-05-23T12:04:34Z</time>
      </trkpt>
      <trkpt lat="42.7376110" lon="-8.6610290">
        <ele>11.3</ele>
        <time>2021-05-23T12:04:35Z</time>
      </trkpt>
      <trkpt lat="42.7376110" lon="-8.6610290">
        <ele>11.3</ele>
        <time>2021-05-23T12:04:36Z</time>
      </trkpt>
      <trkpt lat="42.7376110" lon="-8.6610290">
        <ele>11.3</ele>
        <time>2021-05-23T12:04:37Z</time>
      </trkpt>
      <trkpt lat="42.7376110" lon="-8.6610290">
        <ele>11.3</ele>
        <time>2021-05-23T12:04:38Z</time>
      </trkpt>
      <trkpt lat="42.7376110" lon="-8.6610290">
        <ele>11.3</ele>
        <time>2021-05-23T12:04:39Z</time>
      </trkpt>
      <trkpt lat="42.7376100" lon="-8.6610290">
        <ele>11.3</ele>
        <time>2021-05-23T12:04:40Z</time>
      </trkpt>
      <trkpt lat="42.7376100" lon="-8.6610290">
        <ele>11.3</ele>
        <time>2021-05-23T12:04:41Z</time>
      </trkpt>
      <trkpt lat="42.7376100" lon="-8.6610300">
        <ele>11.3</ele>
        <time>2021-05-23T12:04:42Z</time>
      </trkpt>
      <trkpt lat="42.7376100" lon="-8.6610300">
        <ele>11.3</ele>
        <time>2021-05-23T12:04:43Z</time>
      </trkpt>
      <trkpt lat="42.7376100" lon="-8.6610300">
        <ele>11.3</ele>
        <time>2021-05-23T12:04:44Z</time>
      </trkpt>
      <trkpt lat="42.7376090" lon="-8.6610300">
        <ele>11.3</ele>
        <time>2021-05-23T12:04:45Z</time>
      </trkpt>
      <trkpt lat="42.7376090" lon="-8.6610300">
        <ele>11.3</ele>
        <time>2021-05-23T12:04:46Z</time>
      </trkpt>
      <trkpt lat="42.7376090" lon="-8.6610300">
        <ele>11.3</ele>
        <time>2021-05-23T12:04:47Z</time>
      </trkpt>
      <trkpt lat="42.7376090" lon="-8.6610300">
        <ele>11.3</ele>
        <time>2021-05-23T12:04:48Z</time>
      </trkpt>
      <trkpt lat="42.7376090" lon="-8.6610300">
        <ele>11.3</ele>
        <time>2021-05-23T12:04:49Z</time>
      </trkpt>
      <trkpt lat="42.7376090" lon="-8.6610300">
        <ele>11.3</ele>
        <time>2021-05-23T12:04:50Z</time>
      </trkpt>
      <trkpt lat="42.7376080" lon="-8.6610300">
        <ele>11.3</ele>
        <time>2021-05-23T12:04:51Z</time>
      </trkpt>
      <trkpt lat="42.7376080" lon="-8.6610300">
        <ele>11.3</ele>
        <time>2021-05-23T12:04:52Z</time>
      </trkpt>
      <trkpt lat="42.7376080" lon="-8.6610300">
        <ele>11.3</ele>
        <time>2021-05-23T12:04:53Z</time>
      </trkpt>
      <trkpt lat="42.7376080" lon="-8.6610300">
        <ele>11.3</ele>
        <time>2021-05-23T12:04:54Z</time>
      </trkpt>
      <trkpt lat="42.7376080" lon="-8.6610300">
        <ele>11.3</ele>
        <time>2021-05-23T12:04:55Z</time>
      </trkpt>
      <trkpt lat="42.7376070" lon="-8.6610300">
        <ele>11.3</ele>
        <time>2021-05-23T12:04:56Z</time>
      </trkpt>
      <trkpt lat="42.7376070" lon="-8.6610300">
        <ele>11.3</ele>
        <time>2021-05-23T12:04:57Z</time>
      </trkpt>
      <trkpt lat="42.7376070" lon="-8.6610300">
        <ele>11.3</ele>
        <time>2021-05-23T12:04:58Z</time>
      </trkpt>
      <trkpt lat="42.7376070" lon="-8.6610300">
        <ele>11.3</ele>
        <time>2021-05-23T12:04:59Z</time>
      </trkpt>
      <trkpt lat="42.7376070" lon="-8.6610300">
        <ele>11.3</ele>
        <time>2021-05-23T12:05:00Z</time>
      </trkpt>
      <trkpt lat="42.7376070" lon="-8.6610300">
        <ele>11.3</ele>
        <time>2021-05-23T12:05:01Z</time>
      </trkpt>
      <trkpt lat="42.7376060" lon="-8.6610310">
        <ele>11.3</ele>
        <time>2021-05-23T12:05:02Z</time>
      </trkpt>
      <trkpt lat="42.7376060" lon="-8.6610310">
        <ele>11.3</ele>
        <time>2021-05-23T12:05:03Z</time>
      </trkpt>
      <trkpt lat="42.7376060" lon="-8.6610310">
        <ele>11.3</ele>
        <time>2021-05-23T12:05:04Z</time>
      </trkpt>
      <trkpt lat="42.7376060" lon="-8.6610310">
        <ele>11.3</ele>
        <time>2021-05-23T12:05:05Z</time>
      </trkpt>
      <trkpt lat="42.7376060" lon="-8.6610310">
        <ele>11.3</ele>
        <time>2021-05-23T12:05:06Z</time>
      </trkpt>
      <trkpt lat="42.7376050" lon="-8.6610310">
        <ele>11.3</ele>
        <time>2021-05-23T12:05:07Z</time>
      </trkpt>
      <trkpt lat="42.7376050" lon="-8.6610310">
        <ele>11.3</ele>
        <time>2021-05-23T12:05:08Z</time>
      </trkpt>
      <trkpt lat="42.7376050" lon="-8.6610310">
        <ele>11.3</ele>
        <time>2021-05-23T12:05:09Z</time>
      </trkpt>
      <trkpt lat="42.7376050" lon="-8.6610310">
        <ele>11.3</ele>
        <time>2021-05-23T12:05:10Z</time>
      </trkpt>
      <trkpt lat="42.7376050" lon="-8.6610310">
        <ele>11.3</ele>
        <time>2021-05-23T12:05:11Z</time>
      </trkpt>
      <trkpt lat="42.7376050" lon="-8.6610310">
        <ele>11.3</ele>
        <time>2021-05-23T12:05:12Z</time>
      </trkpt>
      <trkpt lat="42.7376040" lon="-8.6610310">
        <ele>11.3</ele>
        <time>2021-05-23T12:05:13Z</time>
      </trkpt>
      <trkpt lat="42.7376040" lon="-8.6610310">
        <ele>11.3</ele>
        <time>2021-05-23T12:05:14Z</time>
      </trkpt>
      <trkpt lat="42.7376040" lon="-8.6610310">
        <ele>11.3</ele>
        <time>2021-05-23T12:05:15Z</time>
      </trkpt>
      <trkpt lat="42.7376040" lon="-8.6610310">
        <ele>11.3</ele>
        <time>2021-05-23T12:05:16Z</time>
      </trkpt>
      <trkpt lat="42.7376040" lon="-8.6610310">
        <ele>11.3</ele>
        <time>2021-05-23T12:05:17Z</time>
      </trkpt>
      <trkpt lat="42.7376040" lon="-8.6610310">
        <ele>11.3</ele>
        <time>2021-05-23T12:05:18Z</time>
      </trkpt>
      <trkpt lat="42.7376030" lon="-8.6610310">
        <ele>11.3</ele>
        <time>2021-05-23T12:05:19Z</time>
      </trkpt>
      <trkpt lat="42.7376030" lon="-8.6610310">
        <ele>11.3</ele>
        <time>2021-05-23T12:05:20Z</time>
      </trkpt>
      <trkpt lat="42.7376030" lon="-8.6610310">
        <ele>11.3</ele>
        <time>2021-05-23T12:05:21Z</time>
      </trkpt>
      <trkpt lat="42.7376030" lon="-8.6610320">
        <ele>11.3</ele>
        <time>2021-05-23T12:05:22Z</time>
      </trkpt>
      <trkpt lat="42.7376030" lon="-8.6610320">
        <ele>11.3</ele>
        <time>2021-05-23T12:05:23Z</time>
      </trkpt>
      <trkpt lat="42.7376020" lon="-8.6610320">
        <ele>11.3</ele>
        <time>2021-05-23T12:05:24Z</time>
      </trkpt>
      <trkpt lat="42.7376020" lon="-8.6610320">
        <ele>11.3</ele>
        <time>2021-05-23T12:05:25Z</time>
      </trkpt>
      <trkpt lat="42.7376020" lon="-8.6610320">
        <ele>11.3</ele>
        <time>2021-05-23T12:05:26Z</time>
      </trkpt>
      <trkpt lat="42.7376020" lon="-8.6610320">
        <ele>11.3</ele>
        <time>2021-05-23T12:05:27Z</time>
      </trkpt>
      <trkpt lat="42.7376020" lon="-8.6610320">
        <ele>11.3</ele>
        <time>2021-05-23T12:05:28Z</time>
      </trkpt>
      <trkpt lat="42.7376020" lon="-8.6610320">
        <ele>11.3</ele>
        <time>2021-05-23T12:05:29Z</time>
      </trkpt>
      <trkpt lat="42.7376010" lon="-8.6610320">
        <ele>11.3</ele>
        <time>2021-05-23T12:05:30Z</time>
      </trkpt>
      <trkpt lat="42.7376010" lon="-8.6610320">
        <ele>11.3</ele>
        <time>2021-05-23T12:05:31Z</time>
      </trkpt>
      <trkpt lat="42.7376010" lon="-8.6610320">
        <ele>11.3</ele>
        <time>2021-05-23T12:05:32Z</time>
      </trkpt>
      <trkpt lat="42.7376010" lon="-8.6610320">
        <ele>11.3</ele>
        <time>2021-05-23T12:05:33Z</time>
      </trkpt>
      <trkpt lat="42.7376010" lon="-8.6610320">
        <ele>11.3</ele>
        <time>2021-05-23T12:05:34Z</time>
      </trkpt>
      <trkpt lat="42.7376010" lon="-8.6610320">
        <ele>11.3</ele>
        <time>2021-05-23T12:05:35Z</time>
      </trkpt>
      <trkpt lat="42.7376010" lon="-8.6610320">
        <ele>11.3</ele>
        <time>2021-05-23T12:05:36Z</time>
      </trkpt>
      <trkpt lat="42.7376010" lon="-8.6610320">
        <ele>11.3</ele>
        <time>2021-05-23T12:05:37Z</time>
      </trkpt>
      <trkpt lat="42.7376010" lon="-8.6610320">
        <ele>11.3</ele>
        <time>2021-05-23T12:05:38Z</time>
      </trkpt>
      <trkpt lat="42.7376010" lon="-8.6610320">
        <ele>11.3</ele>
        <time>2021-05-23T12:05:39Z</time>
      </trkpt>
      <trkpt lat="42.7376010" lon="-8.6610320">
        <ele>11.3</ele>
        <time>2021-05-23T12:05:40Z</time>
      </trkpt>
      <trkpt lat="42.7376010" lon="-8.6610320">
        <ele>11.3</ele>
        <time>2021-05-23T12:05:41Z</time>
      </trkpt>
      <trkpt lat="42.7376010" lon="-8.6610320">
        <ele>11.3</ele>
        <time>2021-05-23T12:05:42Z</time>
      </trkpt>
      <trkpt lat="42.7376010" lon="-8.6610320">
        <ele>11.3</ele>
        <time>2021-05-23T12:05:43Z</time>
      </trkpt>
      <trkpt lat="42.7376010" lon="-8.6610320">
        <ele>11.3</ele>
        <time>2021-05-23T12:05:44Z</time>
      </trkpt>
      <trkpt lat="42.7376010" lon="-8.6610320">
        <ele>11.3</ele>
        <time>2021-05-23T12:05:45Z</time>
      </trkpt>
      <trkpt lat="42.7376010" lon="-8.6610320">
        <ele>11.3</ele>
        <time>2021-05-23T12:05:46Z</time>
      </trkpt>
      <trkpt lat="42.7376010" lon="-8.6610320">
        <ele>11.3</ele>
        <time>2021-05-23T12:05:47Z</time>
      </trkpt>
      <trkpt lat="42.7376010" lon="-8.6610320">
        <ele>11.3</ele>
        <time>2021-05-23T12:05:48Z</time>
      </trkpt>
      <trkpt lat="42.7376010" lon="-8.6610320">
        <ele>11.3</ele>
        <time>2021-05-23T12:05:49Z</time>
      </trkpt>
      <trkpt lat="42.7376010" lon="-8.6610320">
        <ele>11.3</ele>
        <time>2021-05-23T12:05:50Z</time>
      </trkpt>
      <trkpt lat="42.7376010" lon="-8.6610320">
        <ele>11.3</ele>
        <time>2021-05-23T12:05:51Z</time>
      </trkpt>
      <trkpt lat="42.7376010" lon="-8.6610320">
        <ele>11.3</ele>
        <time>2021-05-23T12:05:52Z</time>
      </trkpt>
      <trkpt lat="42.7376010" lon="-8.6610320">
        <ele>11.3</ele>
        <time>2021-05-23T12:05:53Z</time>
      </trkpt>
      <trkpt lat="42.7376010" lon="-8.6610320">
        <ele>11.3</ele>
        <time>2021-05-23T12:05:54Z</time>
      </trkpt>
      <trkpt lat="42.7376010" lon="-8.6610320">
        <ele>11.3</ele>
        <time>2021-05-23T12:05:55Z</time>
      </trkpt>
      <trkpt lat="42.7376010" lon="-8.6610320">
        <ele>11.3</ele>
        <time>2021-05-23T12:05:56Z</time>
      </trkpt>
      <trkpt lat="42.7376010" lon="-8.6610320">
        <ele>11.3</ele>
        <time>2021-05-23T12:05:57Z</time>
      </trkpt>
      <trkpt lat="42.7376010" lon="-8.6610320">
        <ele>11.3</ele>
        <time>2021-05-23T12:05:58Z</time>
      </trkpt>
      <trkpt lat="42.7376010" lon="-8.6610320">
        <ele>11.3</ele>
        <time>2021-05-23T12:05:59Z</time>
      </trkpt>
      <trkpt lat="42.7376010" lon="-8.6610320">
        <ele>11.3</ele>
        <time>2021-05-23T12:06:00Z</time>
      </trkpt>
      <trkpt lat="42.7376010" lon="-8.6610320">
        <ele>11.3</ele>
        <time>2021-05-23T12:06:01Z</time>
      </trkpt>
      <trkpt lat="42.7376010" lon="-8.6610320">
        <ele>11.3</ele>
        <time>2021-05-23T12:06:02Z</time>
      </trkpt>
      <trkpt lat="42.7376010" lon="-8.6610320">
        <ele>11.3</ele>
        <time>2021-05-23T12:06:03Z</time>
      </trkpt>
      <trkpt lat="42.7376010" lon="-8.6610320">
        <ele>11.3</ele>
        <time>2021-05-23T12:06:04Z</time>
      </trkpt>
      <trkpt lat="42.7376010" lon="-8.6610320">
        <ele>11.3</ele>
        <time>2021-05-23T12:06:05Z</time>
      </trkpt>
      <trkpt lat="42.7376010" lon="-8.6610320">
        <ele>11.3</ele>
        <time>2021-05-23T12:06:06Z</time>
      </trkpt>
      <trkpt lat="42.7376010" lon="-8.6610320">
        <ele>11.3</ele>
        <time>2021-05-23T12:06:07Z</time>
      </trkpt>
      <trkpt lat="42.7376010" lon="-8.6610320">
        <ele>11.3</ele>
        <time>2021-05-23T12:06:08Z</time>
      </trkpt>
      <trkpt lat="42.7376010" lon="-8.6610320">
        <ele>11.3</ele>
        <time>2021-05-23T12:06:09Z</time>
      </trkpt>
      <trkpt lat="42.7376010" lon="-8.6610320">
        <ele>11.3</ele>
        <time>2021-05-23T12:06:10Z</time>
      </trkpt>
      <trkpt lat="42.7376010" lon="-8.6610320">
        <ele>11.3</ele>
        <time>2021-05-23T12:06:11Z</time>
      </trkpt>
      <trkpt lat="42.7376010" lon="-8.6610320">
        <ele>11.3</ele>
        <time>2021-05-23T12:06:12Z</time>
      </trkpt>
      <trkpt lat="42.7376010" lon="-8.6610320">
        <ele>11.3</ele>
        <time>2021-05-23T12:06:13Z</time>
      </trkpt>
      <trkpt lat="42.7376010" lon="-8.6610320">
        <ele>11.3</ele>
        <time>2021-05-23T12:06:14Z</time>
      </trkpt>
      <trkpt lat="42.7376010" lon="-8.6610320">
        <ele>11.3</ele>
        <time>2021-05-23T12:06:15Z</time>
      </trkpt>
      <trkpt lat="42.7376010" lon="-8.6610320">
        <ele>11.3</ele>
        <time>2021-05-23T12:06:16Z</time>
      </trkpt>
      <trkpt lat="42.7376160" lon="-8.6610430">
        <ele>11.3</ele>
        <time>2021-05-23T12:06:17Z</time>
      </trkpt>
      <trkpt lat="42.7376160" lon="-8.6610440">
        <ele>11.3</ele>
        <time>2021-05-23T12:06:18Z</time>
      </trkpt>
      <trkpt lat="42.7376160" lon="-8.6610440">
        <ele>11.3</ele>
        <time>2021-05-23T12:06:19Z</time>
      </trkpt>
      <trkpt lat="42.7376160" lon="-8.6610440">
        <ele>11.3</ele>
        <time>2021-05-23T12:06:20Z</time>
      </trkpt>
      <trkpt lat="42.7376160" lon="-8.6610440">
        <ele>11.3</ele>
        <time>2021-05-23T12:06:21Z</time>
      </trkpt>
      <trkpt lat="42.7376160" lon="-8.6610440">
        <ele>11.3</ele>
        <time>2021-05-23T12:06:22Z</time>
      </trkpt>
      <trkpt lat="42.7376160" lon="-8.6610440">
        <ele>11.3</ele>
        <time>2021-05-23T12:06:23Z</time>
      </trkpt>
      <trkpt lat="42.7376160" lon="-8.6610440">
        <ele>11.3</ele>
        <time>2021-05-23T12:06:24Z</time>
      </trkpt>
      <trkpt lat="42.7376160" lon="-8.6610440">
        <ele>11.3</ele>
        <time>2021-05-23T12:06:25Z</time>
      </trkpt>
      <trkpt lat="42.7376160" lon="-8.6610440">
        <ele>11.3</ele>
        <time>2021-05-23T12:06:26Z</time>
      </trkpt>
      <trkpt lat="42.7376160" lon="-8.6610440">
        <ele>11.3</ele>
        <time>2021-05-23T12:06:27Z</time>
      </trkpt>
      <trkpt lat="42.7376160" lon="-8.6610440">
        <ele>11.3</ele>
        <time>2021-05-23T12:06:28Z</time>
      </trkpt>
      <trkpt lat="42.7376160" lon="-8.6610440">
        <ele>11.3</ele>
        <time>2021-05-23T12:06:29Z</time>
      </trkpt>
      <trkpt lat="42.7376160" lon="-8.6610440">
        <ele>11.3</ele>
        <time>2021-05-23T12:06:30Z</time>
      </trkpt>
      <trkpt lat="42.7376160" lon="-8.6610440">
        <ele>11.3</ele>
        <time>2021-05-23T12:06:31Z</time>
      </trkpt>
      <trkpt lat="42.7376160" lon="-8.6610440">
        <ele>11.3</ele>
        <time>2021-05-23T12:06:32Z</time>
      </trkpt>
      <trkpt lat="42.7376160" lon="-8.6610440">
        <ele>11.3</ele>
        <time>2021-05-23T12:06:33Z</time>
      </trkpt>
      <trkpt lat="42.7376160" lon="-8.6610440">
        <ele>11.3</ele>
        <time>2021-05-23T12:06:34Z</time>
      </trkpt>
      <trkpt lat="42.7376160" lon="-8.6610440">
        <ele>11.3</ele>
        <time>2021-05-23T12:06:35Z</time>
      </trkpt>
      <trkpt lat="42.7376160" lon="-8.6610440">
        <ele>11.3</ele>
        <time>2021-05-23T12:06:36Z</time>
      </trkpt>
      <trkpt lat="42.7376160" lon="-8.6610440">
        <ele>11.3</ele>
        <time>2021-05-23T12:06:37Z</time>
      </trkpt>
      <trkpt lat="42.7376160" lon="-8.6610440">
        <ele>11.3</ele>
        <time>2021-05-23T12:06:38Z</time>
      </trkpt>
      <trkpt lat="42.7376160" lon="-8.6610440">
        <ele>11.3</ele>
        <time>2021-05-23T12:06:39Z</time>
      </trkpt>
      <trkpt lat="42.7376160" lon="-8.6610440">
        <ele>11.3</ele>
        <time>2021-05-23T12:06:40Z</time>
      </trkpt>
      <trkpt lat="42.7376160" lon="-8.6610440">
        <ele>11.3</ele>
        <time>2021-05-23T12:06:41Z</time>
      </trkpt>
      <trkpt lat="42.7376160" lon="-8.6610440">
        <ele>11.3</ele>
        <time>2021-05-23T12:06:42Z</time>
      </trkpt>
      <trkpt lat="42.7376160" lon="-8.6610440">
        <ele>11.3</ele>
        <time>2021-05-23T12:06:43Z</time>
      </trkpt>
      <trkpt lat="42.7376160" lon="-8.6610440">
        <ele>11.3</ele>
        <time>2021-05-23T12:06:44Z</time>
      </trkpt>
      <trkpt lat="42.7376160" lon="-8.6610440">
        <ele>11.3</ele>
        <time>2021-05-23T12:06:45Z</time>
      </trkpt>
      <trkpt lat="42.7376160" lon="-8.6610440">
        <ele>11.3</ele>
        <time>2021-05-23T12:06:46Z</time>
      </trkpt>
      <trkpt lat="42.7376160" lon="-8.6610440">
        <ele>11.3</ele>
        <time>2021-05-23T12:06:47Z</time>
      </trkpt>
      <trkpt lat="42.7376160" lon="-8.6610440">
        <ele>11.3</ele>
        <time>2021-05-23T12:06:48Z</time>
      </trkpt>
      <trkpt lat="42.7376160" lon="-8.6610440">
        <ele>11.3</ele>
        <time>2021-05-23T12:06:49Z</time>
      </trkpt>
      <trkpt lat="42.7376160" lon="-8.6610440">
        <ele>11.3</ele>
        <time>2021-05-23T12:06:50Z</time>
      </trkpt>
      <trkpt lat="42.7376160" lon="-8.6610440">
        <ele>11.3</ele>
        <time>2021-05-23T12:06:51Z</time>
      </trkpt>
      <trkpt lat="42.7376160" lon="-8.6610440">
        <ele>11.3</ele>
        <time>2021-05-23T12:06:52Z</time>
      </trkpt>
      <trkpt lat="42.7376160" lon="-8.6610440">
        <ele>11.3</ele>
        <time>2021-05-23T12:06:53Z</time>
      </trkpt>
      <trkpt lat="42.7376160" lon="-8.6610440">
        <ele>11.3</ele>
        <time>2021-05-23T12:06:54Z</time>
      </trkpt>
      <trkpt lat="42.7376160" lon="-8.6610440">
        <ele>11.3</ele>
        <time>2021-05-23T12:06:55Z</time>
      </trkpt>
      <trkpt lat="42.7376160" lon="-8.6610440">
        <ele>11.3</ele>
        <time>2021-05-23T12:06:56Z</time>
      </trkpt>
      <trkpt lat="42.7376160" lon="-8.6610440">
        <ele>11.3</ele>
        <time>2021-05-23T12:06:57Z</time>
      </trkpt>
      <trkpt lat="42.7376160" lon="-8.6610440">
        <ele>11.3</ele>
        <time>2021-05-23T12:06:58Z</time>
      </trkpt>
      <trkpt lat="42.7376160" lon="-8.6610440">
        <ele>11.3</ele>
        <time>2021-05-23T12:06:59Z</time>
      </trkpt>
      <trkpt lat="42.7376160" lon="-8.6610440">
        <ele>11.3</ele>
        <time>2021-05-23T12:07:00Z</time>
      </trkpt>
      <trkpt lat="42.7376160" lon="-8.6610440">
        <ele>11.3</ele>
        <time>2021-05-23T12:07:01Z</time>
      </trkpt>
      <trkpt lat="42.7376160" lon="-8.6610440">
        <ele>11.3</ele>
        <time>2021-05-23T12:07:02Z</time>
      </trkpt>
      <trkpt lat="42.7376160" lon="-8.6610440">
        <ele>11.3</ele>
        <time>2021-05-23T12:07:03Z</time>
      </trkpt>
      <trkpt lat="42.7376340" lon="-8.6610500">
        <ele>11.3</ele>
        <time>2021-05-23T12:07:04Z</time>
      </trkpt>
      <trkpt lat="42.7376340" lon="-8.6610500">
        <ele>11.3</ele>
        <time>2021-05-23T12:07:05Z</time>
      </trkpt>
      <trkpt lat="42.7376340" lon="-8.6610500">
        <ele>11.3</ele>
        <time>2021-05-23T12:07:06Z</time>
      </trkpt>
      <trkpt lat="42.7376340" lon="-8.6610500">
        <ele>11.3</ele>
        <time>2021-05-23T12:07:07Z</time>
      </trkpt>
      <trkpt lat="42.7376340" lon="-8.6610500">
        <ele>11.3</ele>
        <time>2021-05-23T12:07:08Z</time>
      </trkpt>
      <trkpt lat="42.7376270" lon="-8.6610540">
        <ele>11.3</ele>
        <time>2021-05-23T12:07:09Z</time>
      </trkpt>
      <trkpt lat="42.7376270" lon="-8.6610540">
        <ele>11.3</ele>
        <time>2021-05-23T12:07:10Z</time>
      </trkpt>
      <trkpt lat="42.7376270" lon="-8.6610540">
        <ele>11.3</ele>
        <time>2021-05-23T12:07:11Z</time>
      </trkpt>
      <trkpt lat="42.7376270" lon="-8.6610540">
        <ele>11.3</ele>
        <time>2021-05-23T12:07:12Z</time>
      </trkpt>
      <trkpt lat="42.7376270" lon="-8.6610540">
        <ele>11.3</ele>
        <time>2021-05-23T12:07:13Z</time>
      </trkpt>
      <trkpt lat="42.7376460" lon="-8.6610610">
        <ele>11.3</ele>
        <time>2021-05-23T12:07:14Z</time>
      </trkpt>
      <trkpt lat="42.7376420" lon="-8.6610710">
        <ele>11.3</ele>
        <time>2021-05-23T12:07:15Z</time>
      </trkpt>
      <trkpt lat="42.7376340" lon="-8.6610740">
        <ele>11.3</ele>
        <time>2021-05-23T12:07:16Z</time>
      </trkpt>
      <trkpt lat="42.7376260" lon="-8.6610740">
        <ele>11.3</ele>
        <time>2021-05-23T12:07:17Z</time>
      </trkpt>
      <trkpt lat="42.7376190" lon="-8.6610790">
        <ele>11.3</ele>
        <time>2021-05-23T12:07:18Z</time>
      </trkpt>
      <trkpt lat="42.7376210" lon="-8.6610800">
        <ele>11.3</ele>
        <time>2021-05-23T12:07:19Z</time>
      </trkpt>
      <trkpt lat="42.7376210" lon="-8.6610850">
        <ele>11.3</ele>
        <time>2021-05-23T12:07:20Z</time>
      </trkpt>
      <trkpt lat="42.7376190" lon="-8.6610870">
        <ele>11.3</ele>
        <time>2021-05-23T12:07:21Z</time>
      </trkpt>
      <trkpt lat="42.7376150" lon="-8.6610870">
        <ele>11.3</ele>
        <time>2021-05-23T12:07:22Z</time>
      </trkpt>
      <trkpt lat="42.7376160" lon="-8.6610870">
        <ele>11.3</ele>
        <time>2021-05-23T12:07:23Z</time>
      </trkpt>
      <trkpt lat="42.7376170" lon="-8.6610900">
        <ele>11.3</ele>
        <time>2021-05-23T12:07:24Z</time>
      </trkpt>
      <trkpt lat="42.7376130" lon="-8.6610830">
        <ele>11.3</ele>
        <time>2021-05-23T12:07:25Z</time>
      </trkpt>
      <trkpt lat="42.7376050" lon="-8.6610820">
        <ele>11.3</ele>
        <time>2021-05-23T12:07:26Z</time>
      </trkpt>
      <trkpt lat="42.7376060" lon="-8.6610890">
        <ele>11.3</ele>
        <time>2021-05-23T12:07:27Z</time>
      </trkpt>
      <trkpt lat="42.7376050" lon="-8.6610830">
        <ele>11.3</ele>
        <time>2021-05-23T12:07:28Z</time>
      </trkpt>
      <trkpt lat="42.7376000" lon="-8.6610780">
        <ele>11.3</ele>
        <time>2021-05-23T12:07:29Z</time>
      </trkpt>
      <trkpt lat="42.7376020" lon="-8.6610710">
        <ele>11.3</ele>
        <time>2021-05-23T12:07:30Z</time>
      </trkpt>
      <trkpt lat="42.7376010" lon="-8.6610680">
        <ele>11.3</ele>
        <time>2021-05-23T12:07:31Z</time>
      </trkpt>
      <trkpt lat="42.7376030" lon="-8.6610670">
        <ele>11.3</ele>
        <time>2021-05-23T12:07:32Z</time>
      </trkpt>
      <trkpt lat="42.7376020" lon="-8.6610670">
        <ele>11.3</ele>
        <time>2021-05-23T12:07:33Z</time>
      </trkpt>
      <trkpt lat="42.7376050" lon="-8.6610430">
        <ele>11.3</ele>
        <time>2021-05-23T12:07:34Z</time>
      </trkpt>
      <trkpt lat="42.7375980" lon="-8.6610580">
        <ele>11.3</ele>
        <time>2021-05-23T12:07:35Z</time>
      </trkpt>
      <trkpt lat="42.7376060" lon="-8.6610550">
        <ele>11.3</ele>
        <time>2021-05-23T12:07:36Z</time>
      </trkpt>
      <trkpt lat="42.7376210" lon="-8.6610450">
        <ele>11.3</ele>
        <time>2021-05-23T12:07:37Z</time>
      </trkpt>
      <trkpt lat="42.7376300" lon="-8.6610420">
        <ele>11.3</ele>
        <time>2021-05-23T12:07:38Z</time>
      </trkpt>
      <trkpt lat="42.7376290" lon="-8.6610430">
        <ele>11.3</ele>
        <time>2021-05-23T12:07:39Z</time>
      </trkpt>
      <trkpt lat="42.7376270" lon="-8.6610380">
        <ele>11.3</ele>
        <time>2021-05-23T12:07:40Z</time>
      </trkpt>
      <trkpt lat="42.7376300" lon="-8.6610200">
        <ele>11.3</ele>
        <time>2021-05-23T12:07:41Z</time>
      </trkpt>
      <trkpt lat="42.7376310" lon="-8.6610080">
        <ele>11.3</ele>
        <time>2021-05-23T12:07:42Z</time>
      </trkpt>
      <trkpt lat="42.7376290" lon="-8.6610150">
        <ele>11.3</ele>
        <time>2021-05-23T12:07:43Z</time>
      </trkpt>
      <trkpt lat="42.7376290" lon="-8.6610150">
        <ele>11.3</ele>
        <time>2021-05-23T12:07:44Z</time>
      </trkpt>
      <trkpt lat="42.7376320" lon="-8.6610110">
        <ele>11.3</ele>
        <time>2021-05-23T12:07:45Z</time>
      </trkpt>
      <trkpt lat="42.7376270" lon="-8.6610050">
        <ele>11.3</ele>
        <time>2021-05-23T12:07:46Z</time>
      </trkpt>
      <trkpt lat="42.7376290" lon="-8.6610000">
        <ele>11.3</ele>
        <time>2021-05-23T12:07:47Z</time>
      </trkpt>
      <trkpt lat="42.7376310" lon="-8.6609920">
        <ele>11.3</ele>
        <time>2021-05-23T12:07:48Z</time>
      </trkpt>
      <trkpt lat="42.7376320" lon="-8.6609760">
        <ele>11.3</ele>
        <time>2021-05-23T12:07:49Z</time>
      </trkpt>
      <trkpt lat="42.7376300" lon="-8.6609700">
        <ele>11.3</ele>
        <time>2021-05-23T12:07:50Z</time>
      </trkpt>
      <trkpt lat="42.7376250" lon="-8.6609670">
        <ele>11.3</ele>
        <time>2021-05-23T12:07:51Z</time>
      </trkpt>
      <trkpt lat="42.7376280" lon="-8.6609650">
        <ele>11.3</ele>
        <time>2021-05-23T12:07:52Z</time>
      </trkpt>
      <trkpt lat="42.7376230" lon="-8.6609760">
        <ele>11.3</ele>
        <time>2021-05-23T12:07:53Z</time>
      </trkpt>
      <trkpt lat="42.7376220" lon="-8.6609780">
        <ele>11.3</ele>
        <time>2021-05-23T12:07:54Z</time>
      </trkpt>
      <trkpt lat="42.7376220" lon="-8.6609850">
        <ele>11.3</ele>
        <time>2021-05-23T12:07:55Z</time>
      </trkpt>
      <trkpt lat="42.7376240" lon="-8.6609910">
        <ele>11.3</ele>
        <time>2021-05-23T12:07:56Z</time>
      </trkpt>
      <trkpt lat="42.7376240" lon="-8.6609950">
        <ele>11.3</ele>
        <time>2021-05-23T12:07:57Z</time>
      </trkpt>
      <trkpt lat="42.7376260" lon="-8.6610000">
        <ele>11.3</ele>
        <time>2021-05-23T12:07:58Z</time>
      </trkpt>
      <trkpt lat="42.7376280" lon="-8.6610050">
        <ele>11.3</ele>
        <time>2021-05-23T12:07:59Z</time>
      </trkpt>
      <trkpt lat="42.7376280" lon="-8.6610050">
        <ele>11.3</ele>
        <time>2021-05-23T12:08:00Z</time>
      </trkpt>
      <trkpt lat="42.7376250" lon="-8.6610110">
        <ele>11.3</ele>
        <time>2021-05-23T12:08:01Z</time>
      </trkpt>
      <trkpt lat="42.7376230" lon="-8.6610140">
        <ele>11.3</ele>
        <time>2021-05-23T12:08:02Z</time>
      </trkpt>
      <trkpt lat="42.7376180" lon="-8.6610190">
        <ele>11.3</ele>
        <time>2021-05-23T12:08:03Z</time>
      </trkpt>
      <trkpt lat="42.7376110" lon="-8.6610250">
        <ele>11.3</ele>
        <time>2021-05-23T12:08:04Z</time>
      </trkpt>
      <trkpt lat="42.7376120" lon="-8.6610290">
        <ele>11.3</ele>
        <time>2021-05-23T12:08:05Z</time>
      </trkpt>
      <trkpt lat="42.7376120" lon="-8.6610320">
        <ele>11.3</ele>
        <time>2021-05-23T12:08:06Z</time>
      </trkpt>
      <trkpt lat="42.7376110" lon="-8.6610370">
        <ele>11.3</ele>
        <time>2021-05-23T12:08:07Z</time>
      </trkpt>
      <trkpt lat="42.7376100" lon="-8.6610380">
        <ele>11.3</ele>
        <time>2021-05-23T12:08:08Z</time>
      </trkpt>
      <trkpt lat="42.7376130" lon="-8.6610340">
        <ele>11.3</ele>
        <time>2021-05-23T12:08:09Z</time>
      </trkpt>
      <trkpt lat="42.7376130" lon="-8.6610330">
        <ele>11.3</ele>
        <time>2021-05-23T12:08:10Z</time>
      </trkpt>
      <trkpt lat="42.7376230" lon="-8.6610260">
        <ele>11.3</ele>
        <time>2021-05-23T12:08:11Z</time>
      </trkpt>
      <trkpt lat="42.7376260" lon="-8.6610270">
        <ele>11.3</ele>
        <time>2021-05-23T12:08:12Z</time>
      </trkpt>
      <trkpt lat="42.7376240" lon="-8.6610300">
        <ele>11.3</ele>
        <time>2021-05-23T12:08:13Z</time>
      </trkpt>
      <trkpt lat="42.7376240" lon="-8.6610340">
        <ele>11.3</ele>
        <time>2021-05-23T12:08:14Z</time>
      </trkpt>
      <trkpt lat="42.7376220" lon="-8.6610340">
        <ele>11.3</ele>
        <time>2021-05-23T12:08:15Z</time>
      </trkpt>
      <trkpt lat="42.7376230" lon="-8.6610330">
        <ele>11.3</ele>
        <time>2021-05-23T12:08:16Z</time>
      </trkpt>
      <trkpt lat="42.7376110" lon="-8.6610460">
        <ele>11.3</ele>
        <time>2021-05-23T12:08:17Z</time>
      </trkpt>
      <trkpt lat="42.7376200" lon="-8.6610500">
        <ele>11.3</ele>
        <time>2021-05-23T12:08:18Z</time>
      </trkpt>
      <trkpt lat="42.7376230" lon="-8.6610330">
        <ele>11.3</ele>
        <time>2021-05-23T12:08:19Z</time>
      </trkpt>
      <trkpt lat="42.7376300" lon="-8.6610510">
        <ele>11.3</ele>
        <time>2021-05-23T12:08:20Z</time>
      </trkpt>
      <trkpt lat="42.7376270" lon="-8.6610520">
        <ele>11.3</ele>
        <time>2021-05-23T12:08:21Z</time>
      </trkpt>
      <trkpt lat="42.7376300" lon="-8.6610530">
        <ele>11.3</ele>
        <time>2021-05-23T12:08:22Z</time>
      </trkpt>
      <trkpt lat="42.7376330" lon="-8.6610440">
        <ele>11.3</ele>
        <time>2021-05-23T12:08:23Z</time>
      </trkpt>
      <trkpt lat="42.7376340" lon="-8.6610360">
        <ele>11.3</ele>
        <time>2021-05-23T12:08:24Z</time>
      </trkpt>
      <trkpt lat="42.7376410" lon="-8.6610370">
        <ele>11.3</ele>
        <time>2021-05-23T12:08:25Z</time>
      </trkpt>
      <trkpt lat="42.7376450" lon="-8.6610360">
        <ele>11.3</ele>
        <time>2021-05-23T12:08:26Z</time>
      </trkpt>
      <trkpt lat="42.7376520" lon="-8.6610380">
        <ele>11.3</ele>
        <time>2021-05-23T12:08:27Z</time>
      </trkpt>
      <trkpt lat="42.7376560" lon="-8.6610420">
        <ele>11.3</ele>
        <time>2021-05-23T12:08:28Z</time>
      </trkpt>
      <trkpt lat="42.7376540" lon="-8.6610400">
        <ele>11.3</ele>
        <time>2021-05-23T12:08:29Z</time>
      </trkpt>
      <trkpt lat="42.7376420" lon="-8.6610250">
        <ele>11.3</ele>
        <time>2021-05-23T12:08:30Z</time>
      </trkpt>
      <trkpt lat="42.7376460" lon="-8.6610200">
        <ele>11.3</ele>
        <time>2021-05-23T12:08:31Z</time>
      </trkpt>
      <trkpt lat="42.7376430" lon="-8.6610280">
        <ele>11.3</ele>
        <time>2021-05-23T12:08:32Z</time>
      </trkpt>
      <trkpt lat="42.7376450" lon="-8.6610190">
        <ele>11.3</ele>
        <time>2021-05-23T12:08:33Z</time>
      </trkpt>
      <trkpt lat="42.7376400" lon="-8.6610280">
        <ele>11.3</ele>
        <time>2021-05-23T12:08:34Z</time>
      </trkpt>
      <trkpt lat="42.7376460" lon="-8.6610280">
        <ele>11.3</ele>
        <time>2021-05-23T12:08:35Z</time>
      </trkpt>
      <trkpt lat="42.7376390" lon="-8.6610290">
        <ele>11.3</ele>
        <time>2021-05-23T12:08:36Z</time>
      </trkpt>
      <trkpt lat="42.7376400" lon="-8.6610420">
        <ele>11.3</ele>
        <time>2021-05-23T12:08:37Z</time>
      </trkpt>
      <trkpt lat="42.7376510" lon="-8.6610420">
        <ele>11.3</ele>
        <time>2021-05-23T12:08:38Z</time>
      </trkpt>
      <trkpt lat="42.7376410" lon="-8.6610440">
        <ele>11.3</ele>
        <time>2021-05-23T12:08:39Z</time>
      </trkpt>
      <trkpt lat="42.7376400" lon="-8.6610420">
        <ele>11.3</ele>
        <time>2021-05-23T12:08:40Z</time>
      </trkpt>
      <trkpt lat="42.7376420" lon="-8.6610540">
        <ele>11.3</ele>
        <time>2021-05-23T12:08:41Z</time>
      </trkpt>
      <trkpt lat="42.7376390" lon="-8.6610590">
        <ele>11.3</ele>
        <time>2021-05-23T12:08:42Z</time>
      </trkpt>
      <trkpt lat="42.7376380" lon="-8.6610500">
        <ele>11.3</ele>
        <time>2021-05-23T12:08:43Z</time>
      </trkpt>
      <trkpt lat="42.7376360" lon="-8.6610480">
        <ele>11.3</ele>
        <time>2021-05-23T12:08:44Z</time>
      </trkpt>
      <trkpt lat="42.7376350" lon="-8.6610500">
        <ele>11.3</ele>
        <time>2021-05-23T12:08:45Z</time>
      </trkpt>
      <trkpt lat="42.7376420" lon="-8.6610510">
        <ele>11.3</ele>
        <time>2021-05-23T12:08:46Z</time>
      </trkpt>
      <trkpt lat="42.7376440" lon="-8.6610450">
        <ele>11.3</ele>
        <time>2021-05-23T12:08:47Z</time>
      </trkpt>
      <trkpt lat="42.7376420" lon="-8.6610440">
        <ele>11.3</ele>
        <time>2021-05-23T12:08:48Z</time>
      </trkpt>
      <trkpt lat="42.7376430" lon="-8.6610410">
        <ele>11.3</ele>
        <time>2021-05-23T12:08:49Z</time>
      </trkpt>
      <trkpt lat="42.7376440" lon="-8.6610340">
        <ele>11.3</ele>
        <time>2021-05-23T12:08:50Z</time>
      </trkpt>
      <trkpt lat="42.7376490" lon="-8.6610340">
        <ele>11.3</ele>
        <time>2021-05-23T12:08:51Z</time>
      </trkpt>
      <trkpt lat="42.7376510" lon="-8.6610310">
        <ele>11.3</ele>
        <time>2021-05-23T12:08:52Z</time>
      </trkpt>
      <trkpt lat="42.7376470" lon="-8.6610310">
        <ele>11.3</ele>
        <time>2021-05-23T12:08:53Z</time>
      </trkpt>
      <trkpt lat="42.7376560" lon="-8.6610310">
        <ele>11.3</ele>
        <time>2021-05-23T12:08:54Z</time>
      </trkpt>
      <trkpt lat="42.7376580" lon="-8.6610220">
        <ele>11.3</ele>
        <time>2021-05-23T12:08:55Z</time>
      </trkpt>
      <trkpt lat="42.7376600" lon="-8.6610200">
        <ele>11.3</ele>
        <time>2021-05-23T12:08:56Z</time>
      </trkpt>
      <trkpt lat="42.7376680" lon="-8.6610210">
        <ele>11.3</ele>
        <time>2021-05-23T12:08:57Z</time>
      </trkpt>
      <trkpt lat="42.7376680" lon="-8.6610180">
        <ele>11.3</ele>
        <time>2021-05-23T12:08:58Z</time>
      </trkpt>
      <trkpt lat="42.7376700" lon="-8.6610210">
        <ele>11.3</ele>
        <time>2021-05-23T12:08:59Z</time>
      </trkpt>
      <trkpt lat="42.7376710" lon="-8.6610270">
        <ele>11.3</ele>
        <time>2021-05-23T12:09:00Z</time>
      </trkpt>
      <trkpt lat="42.7376740" lon="-8.6610240">
        <ele>11.3</ele>
        <time>2021-05-23T12:09:01Z</time>
      </trkpt>
      <trkpt lat="42.7376780" lon="-8.6610190">
        <ele>11.3</ele>
        <time>2021-05-23T12:09:02Z</time>
      </trkpt>
      <trkpt lat="42.7376780" lon="-8.6610190">
        <ele>11.3</ele>
        <time>2021-05-23T12:09:03Z</time>
      </trkpt>
      <trkpt lat="42.7376800" lon="-8.6610020">
        <ele>11.3</ele>
        <time>2021-05-23T12:09:04Z</time>
      </trkpt>
      <trkpt lat="42.7376800" lon="-8.6610010">
        <ele>11.3</ele>
        <time>2021-05-23T12:09:05Z</time>
      </trkpt>
      <trkpt lat="42.7376800" lon="-8.6610030">
        <ele>11.3</ele>
        <time>2021-05-23T12:09:06Z</time>
      </trkpt>
      <trkpt lat="42.7376790" lon="-8.6610030">
        <ele>11.3</ele>
        <time>2021-05-23T12:09:07Z</time>
      </trkpt>
      <trkpt lat="42.7376800" lon="-8.6610010">
        <ele>11.3</ele>
        <time>2021-05-23T12:09:08Z</time>
      </trkpt>
      <trkpt lat="42.7376790" lon="-8.6609980">
        <ele>11.3</ele>
        <time>2021-05-23T12:09:09Z</time>
      </trkpt>
      <trkpt lat="42.7376790" lon="-8.6609970">
        <ele>11.3</ele>
        <time>2021-05-23T12:09:10Z</time>
      </trkpt>
      <trkpt lat="42.7376800" lon="-8.6609960">
        <ele>11.3</ele>
        <time>2021-05-23T12:09:11Z</time>
      </trkpt>
      <trkpt lat="42.7376710" lon="-8.6609970">
        <ele>11.3</ele>
        <time>2021-05-23T12:09:12Z</time>
      </trkpt>
      <trkpt lat="42.7376730" lon="-8.6609970">
        <ele>11.3</ele>
        <time>2021-05-23T12:09:13Z</time>
      </trkpt>
      <trkpt lat="42.7376730" lon="-8.6609990">
        <ele>11.3</ele>
        <time>2021-05-23T12:09:14Z</time>
      </trkpt>
      <trkpt lat="42.7376740" lon="-8.6610010">
        <ele>11.3</ele>
        <time>2021-05-23T12:09:15Z</time>
      </trkpt>
      <trkpt lat="42.7376760" lon="-8.6609920">
        <ele>11.3</ele>
        <time>2021-05-23T12:09:16Z</time>
      </trkpt>
      <trkpt lat="42.7376680" lon="-8.6609840">
        <ele>11.3</ele>
        <time>2021-05-23T12:09:17Z</time>
      </trkpt>
      <trkpt lat="42.7376690" lon="-8.6609910">
        <ele>11.3</ele>
        <time>2021-05-23T12:09:18Z</time>
      </trkpt>
      <trkpt lat="42.7376730" lon="-8.6609940">
        <ele>11.3</ele>
        <time>2021-05-23T12:09:19Z</time>
      </trkpt>
      <trkpt lat="42.7376710" lon="-8.6609930">
        <ele>11.3</ele>
        <time>2021-05-23T12:09:20Z</time>
      </trkpt>
      <trkpt lat="42.7376790" lon="-8.6609990">
        <ele>11.3</ele>
        <time>2021-05-23T12:09:21Z</time>
      </trkpt>
      <trkpt lat="42.7376850" lon="-8.6610070">
        <ele>11.3</ele>
        <time>2021-05-23T12:09:22Z</time>
      </trkpt>
      <trkpt lat="42.7376800" lon="-8.6610170">
        <ele>11.3</ele>
        <time>2021-05-23T12:09:23Z</time>
      </trkpt>
      <trkpt lat="42.7376820" lon="-8.6610210">
        <ele>11.3</ele>
        <time>2021-05-23T12:09:24Z</time>
      </trkpt>
      <trkpt lat="42.7376840" lon="-8.6610230">
        <ele>11.3</ele>
        <time>2021-05-23T12:09:25Z</time>
      </trkpt>
      <trkpt lat="42.7376810" lon="-8.6610360">
        <ele>11.3</ele>
        <time>2021-05-23T12:09:26Z</time>
      </trkpt>
      <trkpt lat="42.7376810" lon="-8.6610360">
        <ele>11.3</ele>
        <time>2021-05-23T12:09:27Z</time>
      </trkpt>
      <trkpt lat="42.7376890" lon="-8.6610540">
        <ele>11.3</ele>
        <time>2021-05-23T12:09:28Z</time>
      </trkpt>
      <trkpt lat="42.7376850" lon="-8.6610560">
        <ele>11.3</ele>
        <time>2021-05-23T12:09:29Z</time>
      </trkpt>
      <trkpt lat="42.7376710" lon="-8.6610590">
        <ele>11.3</ele>
        <time>2021-05-23T12:09:30Z</time>
      </trkpt>
      <trkpt lat="42.7376750" lon="-8.6610570">
        <ele>11.3</ele>
        <time>2021-05-23T12:09:31Z</time>
      </trkpt>
      <trkpt lat="42.7376760" lon="-8.6610580">
        <ele>11.3</ele>
        <time>2021-05-23T12:09:32Z</time>
      </trkpt>
      <trkpt lat="42.7376780" lon="-8.6610740">
        <ele>11.3</ele>
        <time>2021-05-23T12:09:33Z</time>
      </trkpt>
      <trkpt lat="42.7376720" lon="-8.6610810">
        <ele>11.3</ele>
        <time>2021-05-23T12:09:34Z</time>
      </trkpt>
      <trkpt lat="42.7376610" lon="-8.6610790">
        <ele>11.3</ele>
        <time>2021-05-23T12:09:35Z</time>
      </trkpt>
      <trkpt lat="42.7376500" lon="-8.6610820">
        <ele>11.3</ele>
        <time>2021-05-23T12:09:36Z</time>
      </trkpt>
      <trkpt lat="42.7376520" lon="-8.6610850">
        <ele>11.3</ele>
        <time>2021-05-23T12:09:37Z</time>
      </trkpt>
      <trkpt lat="42.7376490" lon="-8.6611000">
        <ele>11.3</ele>
        <time>2021-05-23T12:09:38Z</time>
      </trkpt>
      <trkpt lat="42.7376490" lon="-8.6611010">
        <ele>11.3</ele>
        <time>2021-05-23T12:09:39Z</time>
      </trkpt>
      <trkpt lat="42.7376490" lon="-8.6611050">
        <ele>11.3</ele>
        <time>2021-05-23T12:09:40Z</time>
      </trkpt>
      <trkpt lat="42.7376450" lon="-8.6611130">
        <ele>11.3</ele>
        <time>2021-05-23T12:09:41Z</time>
      </trkpt>
      <trkpt lat="42.7376370" lon="-8.6611250">
        <ele>11.3</ele>
        <time>2021-05-23T12:09:42Z</time>
      </trkpt>
      <trkpt lat="42.7376300" lon="-8.6611270">
        <ele>11.3</ele>
        <time>2021-05-23T12:09:43Z</time>
      </trkpt>
      <trkpt lat="42.7376220" lon="-8.6611300">
        <ele>11.3</ele>
        <time>2021-05-23T12:09:44Z</time>
      </trkpt>
      <trkpt lat="42.7376150" lon="-8.6611320">
        <ele>11.3</ele>
        <time>2021-05-23T12:09:45Z</time>
      </trkpt>
      <trkpt lat="42.7376070" lon="-8.6611340">
        <ele>11.3</ele>
        <time>2021-05-23T12:09:46Z</time>
      </trkpt>
      <trkpt lat="42.7376130" lon="-8.6611420">
        <ele>11.3</ele>
        <time>2021-05-23T12:09:47Z</time>
      </trkpt>
      <trkpt lat="42.7376170" lon="-8.6611420">
        <ele>11.3</ele>
        <time>2021-05-23T12:09:48Z</time>
      </trkpt>
      <trkpt lat="42.7376070" lon="-8.6611380">
        <ele>11.3</ele>
        <time>2021-05-23T12:09:49Z</time>
      </trkpt>
      <trkpt lat="42.7376150" lon="-8.6611350">
        <ele>11.3</ele>
        <time>2021-05-23T12:09:50Z</time>
      </trkpt>
      <trkpt lat="42.7376170" lon="-8.6611340">
        <ele>11.3</ele>
        <time>2021-05-23T12:09:51Z</time>
      </trkpt>
      <trkpt lat="42.7376090" lon="-8.6611400">
        <ele>11.3</ele>
        <time>2021-05-23T12:09:52Z</time>
      </trkpt>
      <trkpt lat="42.7375960" lon="-8.6611390">
        <ele>11.3</ele>
        <time>2021-05-23T12:09:53Z</time>
      </trkpt>
      <trkpt lat="42.7375990" lon="-8.6611310">
        <ele>11.3</ele>
        <time>2021-05-23T12:09:54Z</time>
      </trkpt>
      <trkpt lat="42.7376050" lon="-8.6611230">
        <ele>11.3</ele>
        <time>2021-05-23T12:09:55Z</time>
      </trkpt>
      <trkpt lat="42.7376110" lon="-8.6611050">
        <ele>11.3</ele>
        <time>2021-05-23T12:09:56Z</time>
      </trkpt>
      <trkpt lat="42.7376260" lon="-8.6610950">
        <ele>11.3</ele>
        <time>2021-05-23T12:09:57Z</time>
      </trkpt>
      <trkpt lat="42.7376380" lon="-8.6610850">
        <ele>11.3</ele>
        <time>2021-05-23T12:09:58Z</time>
      </trkpt>
      <trkpt lat="42.7376390" lon="-8.6610710">
        <ele>11.3</ele>
        <time>2021-05-23T12:09:59Z</time>
      </trkpt>
      <trkpt lat="42.7376380" lon="-8.6610700">
        <ele>11.3</ele>
        <time>2021-05-23T12:10:00Z</time>
      </trkpt>
      <trkpt lat="42.7376390" lon="-8.6610620">
        <ele>11.3</ele>
        <time>2021-05-23T12:10:01Z</time>
      </trkpt>
      <trkpt lat="42.7376400" lon="-8.6610610">
        <ele>11.3</ele>
        <time>2021-05-23T12:10:02Z</time>
      </trkpt>
      <trkpt lat="42.7376360" lon="-8.6610500">
        <ele>11.3</ele>
        <time>2021-05-23T12:10:03Z</time>
      </trkpt>
      <trkpt lat="42.7376310" lon="-8.6610440">
        <ele>11.3</ele>
        <time>2021-05-23T12:10:04Z</time>
      </trkpt>
      <trkpt lat="42.7376350" lon="-8.6610520">
        <ele>11.3</ele>
        <time>2021-05-23T12:10:05Z</time>
      </trkpt>
      <trkpt lat="42.7376400" lon="-8.6610500">
        <ele>11.3</ele>
        <time>2021-05-23T12:10:06Z</time>
      </trkpt>
      <trkpt lat="42.7376390" lon="-8.6610380">
        <ele>11.3</ele>
        <time>2021-05-23T12:10:07Z</time>
      </trkpt>
      <trkpt lat="42.7376370" lon="-8.6610450">
        <ele>11.3</ele>
        <time>2021-05-23T12:10:08Z</time>
      </trkpt>
      <trkpt lat="42.7376390" lon="-8.6610510">
        <ele>11.3</ele>
        <time>2021-05-23T12:10:09Z</time>
      </trkpt>
      <trkpt lat="42.7376320" lon="-8.6610470">
        <ele>11.3</ele>
        <time>2021-05-23T12:10:10Z</time>
      </trkpt>
      <trkpt lat="42.7376300" lon="-8.6610450">
        <ele>11.3</ele>
        <time>2021-05-23T12:10:11Z</time>
      </trkpt>
      <trkpt lat="42.7376290" lon="-8.6610350">
        <ele>11.3</ele>
        <time>2021-05-23T12:10:12Z</time>
      </trkpt>
      <trkpt lat="42.7376270" lon="-8.6610240">
        <ele>11.3</ele>
        <time>2021-05-23T12:10:13Z</time>
      </trkpt>
      <trkpt lat="42.7376300" lon="-8.6610210">
        <ele>11.3</ele>
        <time>2021-05-23T12:10:14Z</time>
      </trkpt>
      <trkpt lat="42.7376360" lon="-8.6610210">
        <ele>11.3</ele>
        <time>2021-05-23T12:10:15Z</time>
      </trkpt>
      <trkpt lat="42.7376400" lon="-8.6610300">
        <ele>11.3</ele>
        <time>2021-05-23T12:10:16Z</time>
      </trkpt>
      <trkpt lat="42.7376410" lon="-8.6610250">
        <ele>11.3</ele>
        <time>2021-05-23T12:10:17Z</time>
      </trkpt>
      <trkpt lat="42.7376440" lon="-8.6610310">
        <ele>11.3</ele>
        <time>2021-05-23T12:10:18Z</time>
      </trkpt>
      <trkpt lat="42.7376490" lon="-8.6610330">
        <ele>11.3</ele>
        <time>2021-05-23T12:10:19Z</time>
      </trkpt>
      <trkpt lat="42.7376450" lon="-8.6610320">
        <ele>11.3</ele>
        <time>2021-05-23T12:10:20Z</time>
      </trkpt>
      <trkpt lat="42.7376490" lon="-8.6610350">
        <ele>11.3</ele>
        <time>2021-05-23T12:10:21Z</time>
      </trkpt>
      <trkpt lat="42.7376520" lon="-8.6610380">
        <ele>11.3</ele>
        <time>2021-05-23T12:10:22Z</time>
      </trkpt>
      <trkpt lat="42.7376560" lon="-8.6610420">
        <ele>11.3</ele>
        <time>2021-05-23T12:10:23Z</time>
      </trkpt>
      <trkpt lat="42.7376570" lon="-8.6610320">
        <ele>11.3</ele>
        <time>2021-05-23T12:10:24Z</time>
      </trkpt>
      <trkpt lat="42.7376500" lon="-8.6610380">
        <ele>11.3</ele>
        <time>2021-05-23T12:10:25Z</time>
      </trkpt>
      <trkpt lat="42.7376460" lon="-8.6610350">
        <ele>11.3</ele>
        <time>2021-05-23T12:10:26Z</time>
      </trkpt>
      <trkpt lat="42.7376440" lon="-8.6610350">
        <ele>11.3</ele>
        <time>2021-05-23T12:10:27Z</time>
      </trkpt>
      <trkpt lat="42.7376450" lon="-8.6610440">
        <ele>11.3</ele>
        <time>2021-05-23T12:10:28Z</time>
      </trkpt>
      <trkpt lat="42.7376630" lon="-8.6610460">
        <ele>11.3</ele>
        <time>2021-05-23T12:10:29Z</time>
      </trkpt>
      <trkpt lat="42.7376610" lon="-8.6610490">
        <ele>11.3</ele>
        <time>2021-05-23T12:10:30Z</time>
      </trkpt>
      <trkpt lat="42.7376550" lon="-8.6610440">
        <ele>11.3</ele>
        <time>2021-05-23T12:10:31Z</time>
      </trkpt>
      <trkpt lat="42.7376510" lon="-8.6610520">
        <ele>11.3</ele>
        <time>2021-05-23T12:10:32Z</time>
      </trkpt>
      <trkpt lat="42.7376600" lon="-8.6610780">
        <ele>11.3</ele>
        <time>2021-05-23T12:10:33Z</time>
      </trkpt>
      <trkpt lat="42.7376500" lon="-8.6610720">
        <ele>11.3</ele>
        <time>2021-05-23T12:10:34Z</time>
      </trkpt>
      <trkpt lat="42.7376450" lon="-8.6610670">
        <ele>11.3</ele>
        <time>2021-05-23T12:10:35Z</time>
      </trkpt>
      <trkpt lat="42.7376390" lon="-8.6610610">
        <ele>11.3</ele>
        <time>2021-05-23T12:10:36Z</time>
      </trkpt>
      <trkpt lat="42.7376340" lon="-8.6610560">
        <ele>11.3</ele>
        <time>2021-05-23T12:10:37Z</time>
      </trkpt>
      <trkpt lat="42.7376280" lon="-8.6610500">
        <ele>11.3</ele>
        <time>2021-05-23T12:10:38Z</time>
      </trkpt>
      <trkpt lat="42.7376360" lon="-8.6610390">
        <ele>11.3</ele>
        <time>2021-05-23T12:10:39Z</time>
      </trkpt>
      <trkpt lat="42.7376450" lon="-8.6610440">
        <ele>11.3</ele>
        <time>2021-05-23T12:10:40Z</time>
      </trkpt>
      <trkpt lat="42.7376470" lon="-8.6610340">
        <ele>11.3</ele>
        <time>2021-05-23T12:10:41Z</time>
      </trkpt>
      <trkpt lat="42.7376560" lon="-8.6610310">
        <ele>11.3</ele>
        <time>2021-05-23T12:10:42Z</time>
      </trkpt>
      <trkpt lat="42.7376710" lon="-8.6610270">
        <ele>11.3</ele>
        <time>2021-05-23T12:10:43Z</time>
      </trkpt>
      <trkpt lat="42.7376710" lon="-8.6610290">
        <ele>11.3</ele>
        <time>2021-05-23T12:10:44Z</time>
      </trkpt>
      <trkpt lat="42.7376890" lon="-8.6610310">
        <ele>11.3</ele>
        <time>2021-05-23T12:10:45Z</time>
      </trkpt>
      <trkpt lat="42.7376810" lon="-8.6610350">
        <ele>11.3</ele>
        <time>2021-05-23T12:10:46Z</time>
      </trkpt>
      <trkpt lat="42.7376820" lon="-8.6610400">
        <ele>11.3</ele>
        <time>2021-05-23T12:10:47Z</time>
      </trkpt>
      <trkpt lat="42.7376830" lon="-8.6610460">
        <ele>11.3</ele>
        <time>2021-05-23T12:10:48Z</time>
      </trkpt>
      <trkpt lat="42.7376800" lon="-8.6610450">
        <ele>11.3</ele>
        <time>2021-05-23T12:10:49Z</time>
      </trkpt>
      <trkpt lat="42.7376720" lon="-8.6610420">
        <ele>11.3</ele>
        <time>2021-05-23T12:10:50Z</time>
      </trkpt>
      <trkpt lat="42.7376760" lon="-8.6610440">
        <ele>11.3</ele>
        <time>2021-05-23T12:10:51Z</time>
      </trkpt>
      <trkpt lat="42.7376740" lon="-8.6610460">
        <ele>11.3</ele>
        <time>2021-05-23T12:10:52Z</time>
      </trkpt>
      <trkpt lat="42.7376760" lon="-8.6610490">
        <ele>11.3</ele>
        <time>2021-05-23T12:10:53Z</time>
      </trkpt>
      <trkpt lat="42.7376760" lon="-8.6610560">
        <ele>11.3</ele>
        <time>2021-05-23T12:10:54Z</time>
      </trkpt>
      <trkpt lat="42.7376700" lon="-8.6610620">
        <ele>11.3</ele>
        <time>2021-05-23T12:10:55Z</time>
      </trkpt>
      <trkpt lat="42.7376630" lon="-8.6610670">
        <ele>11.3</ele>
        <time>2021-05-23T12:10:56Z</time>
      </trkpt>
      <trkpt lat="42.7376600" lon="-8.6610710">
        <ele>11.3</ele>
        <time>2021-05-23T12:10:57Z</time>
      </trkpt>
      <trkpt lat="42.7376530" lon="-8.6610750">
        <ele>11.3</ele>
        <time>2021-05-23T12:10:58Z</time>
      </trkpt>
      <trkpt lat="42.7376550" lon="-8.6610750">
        <ele>11.3</ele>
        <time>2021-05-23T12:10:59Z</time>
      </trkpt>
      <trkpt lat="42.7376550" lon="-8.6610630">
        <ele>11.3</ele>
        <time>2021-05-23T12:11:00Z</time>
      </trkpt>
      <trkpt lat="42.7376560" lon="-8.6610560">
        <ele>11.3</ele>
        <time>2021-05-23T12:11:01Z</time>
      </trkpt>
      <trkpt lat="42.7376640" lon="-8.6610440">
        <ele>11.3</ele>
        <time>2021-05-23T12:11:02Z</time>
      </trkpt>
      <trkpt lat="42.7376610" lon="-8.6610410">
        <ele>11.3</ele>
        <time>2021-05-23T12:11:03Z</time>
      </trkpt>
      <trkpt lat="42.7376590" lon="-8.6610310">
        <ele>11.3</ele>
        <time>2021-05-23T12:11:04Z</time>
      </trkpt>
      <trkpt lat="42.7376610" lon="-8.6610330">
        <ele>11.3</ele>
        <time>2021-05-23T12:11:05Z</time>
      </trkpt>
      <trkpt lat="42.7376690" lon="-8.6610400">
        <ele>11.3</ele>
        <time>2021-05-23T12:11:06Z</time>
      </trkpt>
      <trkpt lat="42.7376600" lon="-8.6610450">
        <ele>11.3</ele>
        <time>2021-05-23T12:11:07Z</time>
      </trkpt>
      <trkpt lat="42.7376640" lon="-8.6610690">
        <ele>11.3</ele>
        <time>2021-05-23T12:11:08Z</time>
      </trkpt>
      <trkpt lat="42.7376640" lon="-8.6610650">
        <ele>11.3</ele>
        <time>2021-05-23T12:11:09Z</time>
      </trkpt>
      <trkpt lat="42.7376600" lon="-8.6610680">
        <ele>11.3</ele>
        <time>2021-05-23T12:11:10Z</time>
      </trkpt>
      <trkpt lat="42.7376670" lon="-8.6610620">
        <ele>11.3</ele>
        <time>2021-05-23T12:11:11Z</time>
      </trkpt>
      <trkpt lat="42.7376740" lon="-8.6610750">
        <ele>11.3</ele>
        <time>2021-05-23T12:11:12Z</time>
      </trkpt>
      <trkpt lat="42.7376740" lon="-8.6611060">
        <ele>11.3</ele>
        <time>2021-05-23T12:11:13Z</time>
      </trkpt>
      <trkpt lat="42.7376740" lon="-8.6611060">
        <ele>11.3</ele>
        <time>2021-05-23T12:11:14Z</time>
      </trkpt>
      <trkpt lat="42.7376710" lon="-8.6611020">
        <ele>11.3</ele>
        <time>2021-05-23T12:11:15Z</time>
      </trkpt>
      <trkpt lat="42.7376740" lon="-8.6611010">
        <ele>11.3</ele>
        <time>2021-05-23T12:11:16Z</time>
      </trkpt>
      <trkpt lat="42.7376670" lon="-8.6610930">
        <ele>11.3</ele>
        <time>2021-05-23T12:11:17Z</time>
      </trkpt>
      <trkpt lat="42.7376630" lon="-8.6610990">
        <ele>11.3</ele>
        <time>2021-05-23T12:11:18Z</time>
      </trkpt>
      <trkpt lat="42.7376690" lon="-8.6611010">
        <ele>11.3</ele>
        <time>2021-05-23T12:11:19Z</time>
      </trkpt>
      <trkpt lat="42.7376740" lon="-8.6611010">
        <ele>11.3</ele>
        <time>2021-05-23T12:11:20Z</time>
      </trkpt>
      <trkpt lat="42.7376740" lon="-8.6611040">
        <ele>11.3</ele>
        <time>2021-05-23T12:11:21Z</time>
      </trkpt>
      <trkpt lat="42.7376670" lon="-8.6611060">
        <ele>11.3</ele>
        <time>2021-05-23T12:11:22Z</time>
      </trkpt>
      <trkpt lat="42.7376540" lon="-8.6611210">
        <ele>11.3</ele>
        <time>2021-05-23T12:11:23Z</time>
      </trkpt>
      <trkpt lat="42.7376510" lon="-8.6611230">
        <ele>11.3</ele>
        <time>2021-05-23T12:11:24Z</time>
      </trkpt>
      <trkpt lat="42.7376530" lon="-8.6611230">
        <ele>11.3</ele>
        <time>2021-05-23T12:11:25Z</time>
      </trkpt>
      <trkpt lat="42.7376570" lon="-8.6611340">
        <ele>11.3</ele>
        <time>2021-05-23T12:11:26Z</time>
      </trkpt>
      <trkpt lat="42.7376590" lon="-8.6611370">
        <ele>11.3</ele>
        <time>2021-05-23T12:11:27Z</time>
      </trkpt>
      <trkpt lat="42.7376690" lon="-8.6611410">
        <ele>11.3</ele>
        <time>2021-05-23T12:11:28Z</time>
      </trkpt>
      <trkpt lat="42.7376700" lon="-8.6611400">
        <ele>11.3</ele>
        <time>2021-05-23T12:11:29Z</time>
      </trkpt>
      <trkpt lat="42.7376710" lon="-8.6611430">
        <ele>11.3</ele>
        <time>2021-05-23T12:11:30Z</time>
      </trkpt>
      <trkpt lat="42.7376670" lon="-8.6611410">
        <ele>11.3</ele>
        <time>2021-05-23T12:11:31Z</time>
      </trkpt>
      <trkpt lat="42.7376710" lon="-8.6611380">
        <ele>11.3</ele>
        <time>2021-05-23T12:11:32Z</time>
      </trkpt>
      <trkpt lat="42.7376700" lon="-8.6611330">
        <ele>11.3</ele>
        <time>2021-05-23T12:11:33Z</time>
      </trkpt>
      <trkpt lat="42.7376670" lon="-8.6611420">
        <ele>11.3</ele>
        <time>2021-05-23T12:11:34Z</time>
      </trkpt>
      <trkpt lat="42.7376690" lon="-8.6611440">
        <ele>11.3</ele>
        <time>2021-05-23T12:11:35Z</time>
      </trkpt>
      <trkpt lat="42.7376700" lon="-8.6611450">
        <ele>11.3</ele>
        <time>2021-05-23T12:11:36Z</time>
      </trkpt>
      <trkpt lat="42.7376710" lon="-8.6611420">
        <ele>11.3</ele>
        <time>2021-05-23T12:11:37Z</time>
      </trkpt>
      <trkpt lat="42.7376720" lon="-8.6611430">
        <ele>11.3</ele>
        <time>2021-05-23T12:11:38Z</time>
      </trkpt>
      <trkpt lat="42.7376670" lon="-8.6611470">
        <ele>11.3</ele>
        <time>2021-05-23T12:11:39Z</time>
      </trkpt>
      <trkpt lat="42.7376680" lon="-8.6611440">
        <ele>11.3</ele>
        <time>2021-05-23T12:11:40Z</time>
      </trkpt>
      <trkpt lat="42.7376690" lon="-8.6611420">
        <ele>11.3</ele>
        <time>2021-05-23T12:11:41Z</time>
      </trkpt>
      <trkpt lat="42.7376730" lon="-8.6611480">
        <ele>11.3</ele>
        <time>2021-05-23T12:11:42Z</time>
      </trkpt>
      <trkpt lat="42.7376660" lon="-8.6611520">
        <ele>11.3</ele>
        <time>2021-05-23T12:11:43Z</time>
      </trkpt>
      <trkpt lat="42.7376580" lon="-8.6611590">
        <ele>11.3</ele>
        <time>2021-05-23T12:11:44Z</time>
      </trkpt>
      <trkpt lat="42.7376540" lon="-8.6611670">
        <ele>11.3</ele>
        <time>2021-05-23T12:11:45Z</time>
      </trkpt>
      <trkpt lat="42.7376630" lon="-8.6611520">
        <ele>11.3</ele>
        <time>2021-05-23T12:11:46Z</time>
      </trkpt>
      <trkpt lat="42.7376730" lon="-8.6611490">
        <ele>11.3</ele>
        <time>2021-05-23T12:11:47Z</time>
      </trkpt>
      <trkpt lat="42.7376750" lon="-8.6611410">
        <ele>11.3</ele>
        <time>2021-05-23T12:11:48Z</time>
      </trkpt>
      <trkpt lat="42.7376780" lon="-8.6611300">
        <ele>11.3</ele>
        <time>2021-05-23T12:11:49Z</time>
      </trkpt>
      <trkpt lat="42.7376830" lon="-8.6611280">
        <ele>11.3</ele>
        <time>2021-05-23T12:11:50Z</time>
      </trkpt>
      <trkpt lat="42.7376860" lon="-8.6611180">
        <ele>11.3</ele>
        <time>2021-05-23T12:11:51Z</time>
      </trkpt>
      <trkpt lat="42.7377010" lon="-8.6610970">
        <ele>11.3</ele>
        <time>2021-05-23T12:11:52Z</time>
      </trkpt>
      <trkpt lat="42.7377090" lon="-8.6610850">
        <ele>11.3</ele>
        <time>2021-05-23T12:11:53Z</time>
      </trkpt>
      <trkpt lat="42.7377140" lon="-8.6610780">
        <ele>11.3</ele>
        <time>2021-05-23T12:11:54Z</time>
      </trkpt>
      <trkpt lat="42.7377150" lon="-8.6610780">
        <ele>11.3</ele>
        <time>2021-05-23T12:11:55Z</time>
      </trkpt>
      <trkpt lat="42.7377140" lon="-8.6610820">
        <ele>11.3</ele>
        <time>2021-05-23T12:11:56Z</time>
      </trkpt>
      <trkpt lat="42.7377120" lon="-8.6610760">
        <ele>11.3</ele>
        <time>2021-05-23T12:11:57Z</time>
      </trkpt>
      <trkpt lat="42.7377140" lon="-8.6610860">
        <ele>11.3</ele>
        <time>2021-05-23T12:11:58Z</time>
      </trkpt>
      <trkpt lat="42.7377170" lon="-8.6610830">
        <ele>11.3</ele>
        <time>2021-05-23T12:11:59Z</time>
      </trkpt>
      <trkpt lat="42.7377260" lon="-8.6610880">
        <ele>11.3</ele>
        <time>2021-05-23T12:12:00Z</time>
      </trkpt>
      <trkpt lat="42.7377310" lon="-8.6610850">
        <ele>11.3</ele>
        <time>2021-05-23T12:12:01Z</time>
      </trkpt>
      <trkpt lat="42.7377330" lon="-8.6610870">
        <ele>11.3</ele>
        <time>2021-05-23T12:12:02Z</time>
      </trkpt>
      <trkpt lat="42.7377260" lon="-8.6610780">
        <ele>11.3</ele>
        <time>2021-05-23T12:12:03Z</time>
      </trkpt>
      <trkpt lat="42.7377200" lon="-8.6610620">
        <ele>11.3</ele>
        <time>2021-05-23T12:12:04Z</time>
      </trkpt>
      <trkpt lat="42.7377140" lon="-8.6610510">
        <ele>11.3</ele>
        <time>2021-05-23T12:12:05Z</time>
      </trkpt>
      <trkpt lat="42.7377020" lon="-8.6610480">
        <ele>11.3</ele>
        <time>2021-05-23T12:12:06Z</time>
      </trkpt>
      <trkpt lat="42.7377050" lon="-8.6610370">
        <ele>11.3</ele>
        <time>2021-05-23T12:12:07Z</time>
      </trkpt>
      <trkpt lat="42.7377100" lon="-8.6610250">
        <ele>11.3</ele>
        <time>2021-05-23T12:12:08Z</time>
      </trkpt>
      <trkpt lat="42.7377080" lon="-8.6610130">
        <ele>11.3</ele>
        <time>2021-05-23T12:12:09Z</time>
      </trkpt>
      <trkpt lat="42.7376960" lon="-8.6610170">
        <ele>11.3</ele>
        <time>2021-05-23T12:12:10Z</time>
      </trkpt>
      <trkpt lat="42.7376910" lon="-8.6610180">
        <ele>11.3</ele>
        <time>2021-05-23T12:12:11Z</time>
      </trkpt>
      <trkpt lat="42.7376920" lon="-8.6610250">
        <ele>11.3</ele>
        <time>2021-05-23T12:12:12Z</time>
      </trkpt>
      <trkpt lat="42.7376930" lon="-8.6610400">
        <ele>11.3</ele>
        <time>2021-05-23T12:12:13Z</time>
      </trkpt>
      <trkpt lat="42.7376930" lon="-8.6610400">
        <ele>11.3</ele>
        <time>2021-05-23T12:12:14Z</time>
      </trkpt>
      <trkpt lat="42.7376930" lon="-8.6610880">
        <ele>11.3</ele>
        <time>2021-05-23T12:12:15Z</time>
      </trkpt>
      <trkpt lat="42.7376970" lon="-8.6611030">
        <ele>11.3</ele>
        <time>2021-05-23T12:12:16Z</time>
      </trkpt>
      <trkpt lat="42.7377000" lon="-8.6611130">
        <ele>11.3</ele>
        <time>2021-05-23T12:12:17Z</time>
      </trkpt>
      <trkpt lat="42.7377040" lon="-8.6611220">
        <ele>11.3</ele>
        <time>2021-05-23T12:12:18Z</time>
      </trkpt>
      <trkpt lat="42.7377070" lon="-8.6611320">
        <ele>11.3</ele>
        <time>2021-05-23T12:12:19Z</time>
      </trkpt>
      <trkpt lat="42.7377100" lon="-8.6611410">
        <ele>11.3</ele>
        <time>2021-05-23T12:12:20Z</time>
      </trkpt>
      <trkpt lat="42.7377090" lon="-8.6611410">
        <ele>11.3</ele>
        <time>2021-05-23T12:12:21Z</time>
      </trkpt>
      <trkpt lat="42.7377090" lon="-8.6611410">
        <ele>11.3</ele>
        <time>2021-05-23T12:12:22Z</time>
      </trkpt>
      <trkpt lat="42.7377090" lon="-8.6611410">
        <ele>11.3</ele>
        <time>2021-05-23T12:12:23Z</time>
      </trkpt>
      <trkpt lat="42.7377090" lon="-8.6611410">
        <ele>11.3</ele>
        <time>2021-05-23T12:12:24Z</time>
      </trkpt>
      <trkpt lat="42.7377090" lon="-8.6611410">
        <ele>11.3</ele>
        <time>2021-05-23T12:12:25Z</time>
      </trkpt>
      <trkpt lat="42.7377090" lon="-8.6611410">
        <ele>11.3</ele>
        <time>2021-05-23T12:12:26Z</time>
      </trkpt>
      <trkpt lat="42.7377090" lon="-8.6611410">
        <ele>11.3</ele>
        <time>2021-05-23T12:12:27Z</time>
      </trkpt>
      <trkpt lat="42.7377090" lon="-8.6611410">
        <ele>11.3</ele>
        <time>2021-05-23T12:12:28Z</time>
      </trkpt>
      <trkpt lat="42.7377090" lon="-8.6611410">
        <ele>11.3</ele>
        <time>2021-05-23T12:12:29Z</time>
      </trkpt>
      <trkpt lat="42.7376890" lon="-8.6611110">
        <ele>11.3</ele>
        <time>2021-05-23T12:12:30Z</time>
      </trkpt>
      <trkpt lat="42.7376860" lon="-8.6611130">
        <ele>11.3</ele>
        <time>2021-05-23T12:12:31Z</time>
      </trkpt>
      <trkpt lat="42.7376850" lon="-8.6611140">
        <ele>11.3</ele>
        <time>2021-05-23T12:12:32Z</time>
      </trkpt>
      <trkpt lat="42.7376830" lon="-8.6611090">
        <ele>11.3</ele>
        <time>2021-05-23T12:12:33Z</time>
      </trkpt>
      <trkpt lat="42.7376790" lon="-8.6611070">
        <ele>11.3</ele>
        <time>2021-05-23T12:12:34Z</time>
      </trkpt>
      <trkpt lat="42.7376800" lon="-8.6611040">
        <ele>11.3</ele>
        <time>2021-05-23T12:12:35Z</time>
      </trkpt>
      <trkpt lat="42.7376810" lon="-8.6611060">
        <ele>11.3</ele>
        <time>2021-05-23T12:12:36Z</time>
      </trkpt>
      <trkpt lat="42.7376810" lon="-8.6611050">
        <ele>11.3</ele>
        <time>2021-05-23T12:12:37Z</time>
      </trkpt>
      <trkpt lat="42.7376810" lon="-8.6611050">
        <ele>11.3</ele>
        <time>2021-05-23T12:12:38Z</time>
      </trkpt>
      <trkpt lat="42.7376810" lon="-8.6611050">
        <ele>11.3</ele>
        <time>2021-05-23T12:12:39Z</time>
      </trkpt>
      <trkpt lat="42.7376830" lon="-8.6611010">
        <ele>11.3</ele>
        <time>2021-05-23T12:12:40Z</time>
      </trkpt>
      <trkpt lat="42.7376870" lon="-8.6610980">
        <ele>11.3</ele>
        <time>2021-05-23T12:12:41Z</time>
      </trkpt>
      <trkpt lat="42.7376820" lon="-8.6610770">
        <ele>11.3</ele>
        <time>2021-05-23T12:12:42Z</time>
      </trkpt>
      <trkpt lat="42.7376900" lon="-8.6610790">
        <ele>11.3</ele>
        <time>2021-05-23T12:12:43Z</time>
      </trkpt>
      <trkpt lat="42.7376920" lon="-8.6610670">
        <ele>11.3</ele>
        <time>2021-05-23T12:12:44Z</time>
      </trkpt>
      <trkpt lat="42.7376970" lon="-8.6610590">
        <ele>11.3</ele>
        <time>2021-05-23T12:12:45Z</time>
      </trkpt>
      <trkpt lat="42.7377050" lon="-8.6610600">
        <ele>11.3</ele>
        <time>2021-05-23T12:12:46Z</time>
      </trkpt>
      <trkpt lat="42.7377020" lon="-8.6610650">
        <ele>11.3</ele>
        <time>2021-05-23T12:12:47Z</time>
      </trkpt>
      <trkpt lat="42.7377040" lon="-8.6610710">
        <ele>11.3</ele>
        <time>2021-05-23T12:12:48Z</time>
      </trkpt>
      <trkpt lat="42.7377070" lon="-8.6610830">
        <ele>11.3</ele>
        <time>2021-05-23T12:12:49Z</time>
      </trkpt>
      <trkpt lat="42.7377070" lon="-8.6610850">
        <ele>11.3</ele>
        <time>2021-05-23T12:12:50Z</time>
      </trkpt>
      <trkpt lat="42.7377020" lon="-8.6610860">
        <ele>11.3</ele>
        <time>2021-05-23T12:12:51Z</time>
      </trkpt>
      <trkpt lat="42.7377100" lon="-8.6610750">
        <ele>11.3</ele>
        <time>2021-05-23T12:12:52Z</time>
      </trkpt>
      <trkpt lat="42.7377090" lon="-8.6610880">
        <ele>11.2</ele>
        <time>2021-05-23T12:12:53Z</time>
      </trkpt>
      <trkpt lat="42.7377070" lon="-8.6610900">
        <ele>11.2</ele>
        <time>2021-05-23T12:12:54Z</time>
      </trkpt>
      <trkpt lat="42.7377120" lon="-8.6611030">
        <ele>11.2</ele>
        <time>2021-05-23T12:12:55Z</time>
      </trkpt>
      <trkpt lat="42.7377030" lon="-8.6611040">
        <ele>11.2</ele>
        <time>2021-05-23T12:12:56Z</time>
      </trkpt>
      <trkpt lat="42.7376850" lon="-8.6611210">
        <ele>11.2</ele>
        <time>2021-05-23T12:12:57Z</time>
      </trkpt>
      <trkpt lat="42.7376860" lon="-8.6611230">
        <ele>11.2</ele>
        <time>2021-05-23T12:12:58Z</time>
      </trkpt>
      <trkpt lat="42.7376690" lon="-8.6611270">
        <ele>11.2</ele>
        <time>2021-05-23T12:12:59Z</time>
      </trkpt>
      <trkpt lat="42.7376610" lon="-8.6611270">
        <ele>11.2</ele>
        <time>2021-05-23T12:13:00Z</time>
      </trkpt>
      <trkpt lat="42.7376510" lon="-8.6611210">
        <ele>11.2</ele>
        <time>2021-05-23T12:13:01Z</time>
      </trkpt>
      <trkpt lat="42.7376590" lon="-8.6611260">
        <ele>11.2</ele>
        <time>2021-05-23T12:13:02Z</time>
      </trkpt>
      <trkpt lat="42.7376640" lon="-8.6611310">
        <ele>11.2</ele>
        <time>2021-05-23T12:13:03Z</time>
      </trkpt>
      <trkpt lat="42.7376760" lon="-8.6611380">
        <ele>11.2</ele>
        <time>2021-05-23T12:13:04Z</time>
      </trkpt>
      <trkpt lat="42.7376760" lon="-8.6611370">
        <ele>11.2</ele>
        <time>2021-05-23T12:13:05Z</time>
      </trkpt>
      <trkpt lat="42.7376760" lon="-8.6611370">
        <ele>11.2</ele>
        <time>2021-05-23T12:13:06Z</time>
      </trkpt>
      <trkpt lat="42.7376760" lon="-8.6611370">
        <ele>11.2</ele>
        <time>2021-05-23T12:13:07Z</time>
      </trkpt>
      <trkpt lat="42.7376760" lon="-8.6611370">
        <ele>11.2</ele>
        <time>2021-05-23T12:13:08Z</time>
      </trkpt>
      <trkpt lat="42.7376860" lon="-8.6611590">
        <ele>11.2</ele>
        <time>2021-05-23T12:13:09Z</time>
      </trkpt>
      <trkpt lat="42.7376870" lon="-8.6611590">
        <ele>11.2</ele>
        <time>2021-05-23T12:13:10Z</time>
      </trkpt>
      <trkpt lat="42.7376870" lon="-8.6611590">
        <ele>11.2</ele>
        <time>2021-05-23T12:13:11Z</time>
      </trkpt>
      <trkpt lat="42.7376870" lon="-8.6611590">
        <ele>11.2</ele>
        <time>2021-05-23T12:13:12Z</time>
      </trkpt>
      <trkpt lat="42.7376860" lon="-8.6611620">
        <ele>11.2</ele>
        <time>2021-05-23T12:13:13Z</time>
      </trkpt>
      <trkpt lat="42.7376860" lon="-8.6611620">
        <ele>11.2</ele>
        <time>2021-05-23T12:13:14Z</time>
      </trkpt>
      <trkpt lat="42.7376860" lon="-8.6611620">
        <ele>11.2</ele>
        <time>2021-05-23T12:13:15Z</time>
      </trkpt>
      <trkpt lat="42.7376840" lon="-8.6611660">
        <ele>11.2</ele>
        <time>2021-05-23T12:13:16Z</time>
      </trkpt>
      <trkpt lat="42.7376840" lon="-8.6611660">
        <ele>11.2</ele>
        <time>2021-05-23T12:13:17Z</time>
      </trkpt>
      <trkpt lat="42.7376910" lon="-8.6611660">
        <ele>11.2</ele>
        <time>2021-05-23T12:13:18Z</time>
      </trkpt>
      <trkpt lat="42.7376950" lon="-8.6611640">
        <ele>11.2</ele>
        <time>2021-05-23T12:13:19Z</time>
      </trkpt>
      <trkpt lat="42.7376960" lon="-8.6611620">
        <ele>11.2</ele>
        <time>2021-05-23T12:13:20Z</time>
      </trkpt>
      <trkpt lat="42.7376960" lon="-8.6611740">
        <ele>11.2</ele>
        <time>2021-05-23T12:13:21Z</time>
      </trkpt>
      <trkpt lat="42.7376840" lon="-8.6611790">
        <ele>11.2</ele>
        <time>2021-05-23T12:13:22Z</time>
      </trkpt>
      <trkpt lat="42.7376840" lon="-8.6611780">
        <ele>11.2</ele>
        <time>2021-05-23T12:13:23Z</time>
      </trkpt>
      <trkpt lat="42.7376880" lon="-8.6611760">
        <ele>11.2</ele>
        <time>2021-05-23T12:13:24Z</time>
      </trkpt>
      <trkpt lat="42.7376920" lon="-8.6611840">
        <ele>11.2</ele>
        <time>2021-05-23T12:13:25Z</time>
      </trkpt>
      <trkpt lat="42.7376880" lon="-8.6611880">
        <ele>11.2</ele>
        <time>2021-05-23T12:13:26Z</time>
      </trkpt>
      <trkpt lat="42.7376830" lon="-8.6611810">
        <ele>11.2</ele>
        <time>2021-05-23T12:13:27Z</time>
      </trkpt>
      <trkpt lat="42.7376810" lon="-8.6611770">
        <ele>11.2</ele>
        <time>2021-05-23T12:13:28Z</time>
      </trkpt>
      <trkpt lat="42.7376810" lon="-8.6611770">
        <ele>11.2</ele>
        <time>2021-05-23T12:13:29Z</time>
      </trkpt>
      <trkpt lat="42.7376760" lon="-8.6611810">
        <ele>11.2</ele>
        <time>2021-05-23T12:13:30Z</time>
      </trkpt>
      <trkpt lat="42.7376770" lon="-8.6611840">
        <ele>11.2</ele>
        <time>2021-05-23T12:13:31Z</time>
      </trkpt>
      <trkpt lat="42.7376830" lon="-8.6611880">
        <ele>11.2</ele>
        <time>2021-05-23T12:13:32Z</time>
      </trkpt>
      <trkpt lat="42.7376830" lon="-8.6611880">
        <ele>11.2</ele>
        <time>2021-05-23T12:13:33Z</time>
      </trkpt>
      <trkpt lat="42.7376760" lon="-8.6611860">
        <ele>11.2</ele>
        <time>2021-05-23T12:13:34Z</time>
      </trkpt>
      <trkpt lat="42.7376760" lon="-8.6611860">
        <ele>11.2</ele>
        <time>2021-05-23T12:13:35Z</time>
      </trkpt>
      <trkpt lat="42.7376760" lon="-8.6611860">
        <ele>11.2</ele>
        <time>2021-05-23T12:13:36Z</time>
      </trkpt>
      <trkpt lat="42.7376760" lon="-8.6611860">
        <ele>11.2</ele>
        <time>2021-05-23T12:13:37Z</time>
      </trkpt>
      <trkpt lat="42.7376760" lon="-8.6611860">
        <ele>11.2</ele>
        <time>2021-05-23T12:13:38Z</time>
      </trkpt>
      <trkpt lat="42.7376760" lon="-8.6611860">
        <ele>11.2</ele>
        <time>2021-05-23T12:13:39Z</time>
      </trkpt>
      <trkpt lat="42.7376760" lon="-8.6611860">
        <ele>11.2</ele>
        <time>2021-05-23T12:13:40Z</time>
      </trkpt>
      <trkpt lat="42.7376760" lon="-8.6611860">
        <ele>11.2</ele>
        <time>2021-05-23T12:13:41Z</time>
      </trkpt>
      <trkpt lat="42.7376680" lon="-8.6611800">
        <ele>11.2</ele>
        <time>2021-05-23T12:13:42Z</time>
      </trkpt>
      <trkpt lat="42.7376670" lon="-8.6611790">
        <ele>11.2</ele>
        <time>2021-05-23T12:13:43Z</time>
      </trkpt>
      <trkpt lat="42.7376680" lon="-8.6611790">
        <ele>11.2</ele>
        <time>2021-05-23T12:13:44Z</time>
      </trkpt>
      <trkpt lat="42.7376680" lon="-8.6611790">
        <ele>11.2</ele>
        <time>2021-05-23T12:13:45Z</time>
      </trkpt>
      <trkpt lat="42.7376670" lon="-8.6611850">
        <ele>11.2</ele>
        <time>2021-05-23T12:13:46Z</time>
      </trkpt>
      <trkpt lat="42.7376680" lon="-8.6611860">
        <ele>11.2</ele>
        <time>2021-05-23T12:13:47Z</time>
      </trkpt>
      <trkpt lat="42.7376680" lon="-8.6611860">
        <ele>11.2</ele>
        <time>2021-05-23T12:13:48Z</time>
      </trkpt>
      <trkpt lat="42.7376680" lon="-8.6611860">
        <ele>11.2</ele>
        <time>2021-05-23T12:13:49Z</time>
      </trkpt>
      <trkpt lat="42.7376680" lon="-8.6611860">
        <ele>11.2</ele>
        <time>2021-05-23T12:13:50Z</time>
      </trkpt>
      <trkpt lat="42.7376590" lon="-8.6611730">
        <ele>11.2</ele>
        <time>2021-05-23T12:13:51Z</time>
      </trkpt>
      <trkpt lat="42.7376580" lon="-8.6611710">
        <ele>11.2</ele>
        <time>2021-05-23T12:13:52Z</time>
      </trkpt>
      <trkpt lat="42.7376610" lon="-8.6611610">
        <ele>11.2</ele>
        <time>2021-05-23T12:13:53Z</time>
      </trkpt>
      <trkpt lat="42.7376660" lon="-8.6611510">
        <ele>11.2</ele>
        <time>2021-05-23T12:13:54Z</time>
      </trkpt>
      <trkpt lat="42.7376630" lon="-8.6611440">
        <ele>11.2</ele>
        <time>2021-05-23T12:13:55Z</time>
      </trkpt>
      <trkpt lat="42.7376550" lon="-8.6611360">
        <ele>11.2</ele>
        <time>2021-05-23T12:13:56Z</time>
      </trkpt>
      <trkpt lat="42.7376510" lon="-8.6611260">
        <ele>11.2</ele>
        <time>2021-05-23T12:13:57Z</time>
      </trkpt>
      <trkpt lat="42.7376460" lon="-8.6611250">
        <ele>11.2</ele>
        <time>2021-05-23T12:13:58Z</time>
      </trkpt>
      <trkpt lat="42.7376390" lon="-8.6611440">
        <ele>11.2</ele>
        <time>2021-05-23T12:13:59Z</time>
      </trkpt>
      <trkpt lat="42.7376330" lon="-8.6611380">
        <ele>11.2</ele>
        <time>2021-05-23T12:14:00Z</time>
      </trkpt>
      <trkpt lat="42.7376290" lon="-8.6611300">
        <ele>11.2</ele>
        <time>2021-05-23T12:14:01Z</time>
      </trkpt>
      <trkpt lat="42.7376340" lon="-8.6611280">
        <ele>11.2</ele>
        <time>2021-05-23T12:14:02Z</time>
      </trkpt>
      <trkpt lat="42.7376410" lon="-8.6611290">
        <ele>11.2</ele>
        <time>2021-05-23T12:14:03Z</time>
      </trkpt>
      <trkpt lat="42.7376410" lon="-8.6611190">
        <ele>11.2</ele>
        <time>2021-05-23T12:14:04Z</time>
      </trkpt>
      <trkpt lat="42.7376190" lon="-8.6611280">
        <ele>11.2</ele>
        <time>2021-05-23T12:14:05Z</time>
      </trkpt>
      <trkpt lat="42.7376120" lon="-8.6611280">
        <ele>11.2</ele>
        <time>2021-05-23T12:14:06Z</time>
      </trkpt>
      <trkpt lat="42.7376130" lon="-8.6611350">
        <ele>11.2</ele>
        <time>2021-05-23T12:14:07Z</time>
      </trkpt>
      <trkpt lat="42.7376250" lon="-8.6611370">
        <ele>11.2</ele>
        <time>2021-05-23T12:14:08Z</time>
      </trkpt>
      <trkpt lat="42.7376230" lon="-8.6611370">
        <ele>11.2</ele>
        <time>2021-05-23T12:14:09Z</time>
      </trkpt>
      <trkpt lat="42.7376160" lon="-8.6611390">
        <ele>11.2</ele>
        <time>2021-05-23T12:14:10Z</time>
      </trkpt>
      <trkpt lat="42.7376250" lon="-8.6611440">
        <ele>11.2</ele>
        <time>2021-05-23T12:14:11Z</time>
      </trkpt>
      <trkpt lat="42.7376230" lon="-8.6611400">
        <ele>11.2</ele>
        <time>2021-05-23T12:14:12Z</time>
      </trkpt>
      <trkpt lat="42.7376280" lon="-8.6611420">
        <ele>11.2</ele>
        <time>2021-05-23T12:14:13Z</time>
      </trkpt>
      <trkpt lat="42.7376290" lon="-8.6611520">
        <ele>11.2</ele>
        <time>2021-05-23T12:14:14Z</time>
      </trkpt>
      <trkpt lat="42.7376260" lon="-8.6611580">
        <ele>11.2</ele>
        <time>2021-05-23T12:14:15Z</time>
      </trkpt>
      <trkpt lat="42.7376260" lon="-8.6611600">
        <ele>11.2</ele>
        <time>2021-05-23T12:14:16Z</time>
      </trkpt>
      <trkpt lat="42.7376210" lon="-8.6611530">
        <ele>11.2</ele>
        <time>2021-05-23T12:14:17Z</time>
      </trkpt>
      <trkpt lat="42.7376140" lon="-8.6611420">
        <ele>11.2</ele>
        <time>2021-05-23T12:14:18Z</time>
      </trkpt>
      <trkpt lat="42.7376120" lon="-8.6611540">
        <ele>11.2</ele>
        <time>2021-05-23T12:14:19Z</time>
      </trkpt>
      <trkpt lat="42.7376130" lon="-8.6611490">
        <ele>11.2</ele>
        <time>2021-05-23T12:14:20Z</time>
      </trkpt>
      <trkpt lat="42.7376240" lon="-8.6611450">
        <ele>11.2</ele>
        <time>2021-05-23T12:14:21Z</time>
      </trkpt>
      <trkpt lat="42.7376220" lon="-8.6611420">
        <ele>11.2</ele>
        <time>2021-05-23T12:14:22Z</time>
      </trkpt>
      <trkpt lat="42.7376200" lon="-8.6611390">
        <ele>11.2</ele>
        <time>2021-05-23T12:14:23Z</time>
      </trkpt>
      <trkpt lat="42.7376180" lon="-8.6611360">
        <ele>11.2</ele>
        <time>2021-05-23T12:14:24Z</time>
      </trkpt>
      <trkpt lat="42.7376160" lon="-8.6611330">
        <ele>11.2</ele>
        <time>2021-05-23T12:14:25Z</time>
      </trkpt>
      <trkpt lat="42.7376140" lon="-8.6611300">
        <ele>11.2</ele>
        <time>2021-05-23T12:14:26Z</time>
      </trkpt>
      <trkpt lat="42.7376120" lon="-8.6611270">
        <ele>11.2</ele>
        <time>2021-05-23T12:14:27Z</time>
      </trkpt>
      <trkpt lat="42.7376100" lon="-8.6611250">
        <ele>11.2</ele>
        <time>2021-05-23T12:14:28Z</time>
      </trkpt>
      <trkpt lat="42.7376080" lon="-8.6611220">
        <ele>11.2</ele>
        <time>2021-05-23T12:14:29Z</time>
      </trkpt>
      <trkpt lat="42.7376060" lon="-8.6611190">
        <ele>11.2</ele>
        <time>2021-05-23T12:14:30Z</time>
      </trkpt>
      <trkpt lat="42.7376040" lon="-8.6611160">
        <ele>11.2</ele>
        <time>2021-05-23T12:14:31Z</time>
      </trkpt>
      <trkpt lat="42.7376020" lon="-8.6611130">
        <ele>11.2</ele>
        <time>2021-05-23T12:14:32Z</time>
      </trkpt>
      <trkpt lat="42.7376000" lon="-8.6611100">
        <ele>11.2</ele>
        <time>2021-05-23T12:14:33Z</time>
      </trkpt>
      <trkpt lat="42.7375980" lon="-8.6611070">
        <ele>11.2</ele>
        <time>2021-05-23T12:14:34Z</time>
      </trkpt>
      <trkpt lat="42.7375900" lon="-8.6611080">
        <ele>11.4</ele>
        <time>2021-05-23T12:14:35Z</time>
      </trkpt>
      <trkpt lat="42.7375840" lon="-8.6611010">
        <ele>11.4</ele>
        <time>2021-05-23T12:14:36Z</time>
      </trkpt>
      <trkpt lat="42.7375840" lon="-8.6610950">
        <ele>11.4</ele>
        <time>2021-05-23T12:14:37Z</time>
      </trkpt>
      <trkpt lat="42.7375970" lon="-8.6611010">
        <ele>11.4</ele>
        <time>2021-05-23T12:14:38Z</time>
      </trkpt>
      <trkpt lat="42.7375990" lon="-8.6610980">
        <ele>11.4</ele>
        <time>2021-05-23T12:14:39Z</time>
      </trkpt>
      <trkpt lat="42.7376010" lon="-8.6610940">
        <ele>11.4</ele>
        <time>2021-05-23T12:14:40Z</time>
      </trkpt>
      <trkpt lat="42.7375930" lon="-8.6610810">
        <ele>11.4</ele>
        <time>2021-05-23T12:14:41Z</time>
      </trkpt>
      <trkpt lat="42.7376020" lon="-8.6610730">
        <ele>11.4</ele>
        <time>2021-05-23T12:14:42Z</time>
      </trkpt>
      <trkpt lat="42.7376090" lon="-8.6610660">
        <ele>11.4</ele>
        <time>2021-05-23T12:14:43Z</time>
      </trkpt>
      <trkpt lat="42.7376120" lon="-8.6610740">
        <ele>11.4</ele>
        <time>2021-05-23T12:14:44Z</time>
      </trkpt>
      <trkpt lat="42.7376080" lon="-8.6610750">
        <ele>11.4</ele>
        <time>2021-05-23T12:14:45Z</time>
      </trkpt>
      <trkpt lat="42.7376060" lon="-8.6610740">
        <ele>11.4</ele>
        <time>2021-05-23T12:14:46Z</time>
      </trkpt>
      <trkpt lat="42.7376140" lon="-8.6611050">
        <ele>11.4</ele>
        <time>2021-05-23T12:14:47Z</time>
      </trkpt>
      <trkpt lat="42.7376160" lon="-8.6611210">
        <ele>11.4</ele>
        <time>2021-05-23T12:14:48Z</time>
      </trkpt>
      <trkpt lat="42.7376270" lon="-8.6611150">
        <ele>11.4</ele>
        <time>2021-05-23T12:14:49Z</time>
      </trkpt>
      <trkpt lat="42.7376270" lon="-8.6611150">
        <ele>11.4</ele>
        <time>2021-05-23T12:14:50Z</time>
      </trkpt>
      <trkpt lat="42.7376270" lon="-8.6611150">
        <ele>11.4</ele>
        <time>2021-05-23T12:14:51Z</time>
      </trkpt>
      <trkpt lat="42.7376180" lon="-8.6611320">
        <ele>11.4</ele>
        <time>2021-05-23T12:14:52Z</time>
      </trkpt>
      <trkpt lat="42.7376160" lon="-8.6611340">
        <ele>11.4</ele>
        <time>2021-05-23T12:14:53Z</time>
      </trkpt>
      <trkpt lat="42.7376180" lon="-8.6611330">
        <ele>11.4</ele>
        <time>2021-05-23T12:14:54Z</time>
      </trkpt>
      <trkpt lat="42.7376220" lon="-8.6611260">
        <ele>11.4</ele>
        <time>2021-05-23T12:14:55Z</time>
      </trkpt>
      <trkpt lat="42.7376450" lon="-8.6611240">
        <ele>11.4</ele>
        <time>2021-05-23T12:14:56Z</time>
      </trkpt>
      <trkpt lat="42.7376420" lon="-8.6611130">
        <ele>11.4</ele>
        <time>2021-05-23T12:14:57Z</time>
      </trkpt>
      <trkpt lat="42.7376400" lon="-8.6611210">
        <ele>11.4</ele>
        <time>2021-05-23T12:14:58Z</time>
      </trkpt>
      <trkpt lat="42.7376410" lon="-8.6611100">
        <ele>11.4</ele>
        <time>2021-05-23T12:14:59Z</time>
      </trkpt>
      <trkpt lat="42.7376320" lon="-8.6611030">
        <ele>11.4</ele>
        <time>2021-05-23T12:15:00Z</time>
      </trkpt>
      <trkpt lat="42.7376350" lon="-8.6610930">
        <ele>11.4</ele>
        <time>2021-05-23T12:15:01Z</time>
      </trkpt>
      <trkpt lat="42.7376380" lon="-8.6611020">
        <ele>11.4</ele>
        <time>2021-05-23T12:15:02Z</time>
      </trkpt>
      <trkpt lat="42.7376540" lon="-8.6611020">
        <ele>11.4</ele>
        <time>2021-05-23T12:15:03Z</time>
      </trkpt>
      <trkpt lat="42.7376600" lon="-8.6610940">
        <ele>11.4</ele>
        <time>2021-05-23T12:15:04Z</time>
      </trkpt>
      <trkpt lat="42.7376640" lon="-8.6610910">
        <ele>11.4</ele>
        <time>2021-05-23T12:15:05Z</time>
      </trkpt>
      <trkpt lat="42.7376680" lon="-8.6610920">
        <ele>11.4</ele>
        <time>2021-05-23T12:15:06Z</time>
      </trkpt>
      <trkpt lat="42.7376720" lon="-8.6610890">
        <ele>11.4</ele>
        <time>2021-05-23T12:15:07Z</time>
      </trkpt>
      <trkpt lat="42.7376780" lon="-8.6610780">
        <ele>9.0</ele>
        <time>2021-05-23T12:15:08Z</time>
      </trkpt>
      <trkpt lat="42.7376870" lon="-8.6610700">
        <ele>9.0</ele>
        <time>2021-05-23T12:15:09Z</time>
      </trkpt>
      <trkpt lat="42.7376910" lon="-8.6610680">
        <ele>9.0</ele>
        <time>2021-05-23T12:15:10Z</time>
      </trkpt>
      <trkpt lat="42.7376990" lon="-8.6610680">
        <ele>8.9</ele>
        <time>2021-05-23T12:15:11Z</time>
      </trkpt>
      <trkpt lat="42.7376850" lon="-8.6610660">
        <ele>8.9</ele>
        <time>2021-05-23T12:15:12Z</time>
      </trkpt>
      <trkpt lat="42.7376800" lon="-8.6610530">
        <ele>8.9</ele>
        <time>2021-05-23T12:15:13Z</time>
      </trkpt>
      <trkpt lat="42.7376900" lon="-8.6610580">
        <ele>8.9</ele>
        <time>2021-05-23T12:15:14Z</time>
      </trkpt>
      <trkpt lat="42.7376930" lon="-8.6610440">
        <ele>8.9</ele>
        <time>2021-05-23T12:15:15Z</time>
      </trkpt>
      <trkpt lat="42.7376970" lon="-8.6610230">
        <ele>8.9</ele>
        <time>2021-05-23T12:15:16Z</time>
      </trkpt>
      <trkpt lat="42.7377120" lon="-8.6610110">
        <ele>8.9</ele>
        <time>2021-05-23T12:15:17Z</time>
      </trkpt>
      <trkpt lat="42.7377210" lon="-8.6610070">
        <ele>8.9</ele>
        <time>2021-05-23T12:15:18Z</time>
      </trkpt>
      <trkpt lat="42.7377120" lon="-8.6610010">
        <ele>8.9</ele>
        <time>2021-05-23T12:15:19Z</time>
      </trkpt>
      <trkpt lat="42.7377200" lon="-8.6609980">
        <ele>8.9</ele>
        <time>2021-05-23T12:15:20Z</time>
      </trkpt>
      <trkpt lat="42.7377140" lon="-8.6610080">
        <ele>8.9</ele>
        <time>2021-05-23T12:15:21Z</time>
      </trkpt>
      <trkpt lat="42.7377220" lon="-8.6610020">
        <ele>8.9</ele>
        <time>2021-05-23T12:15:22Z</time>
      </trkpt>
      <trkpt lat="42.7377290" lon="-8.6610060">
        <ele>8.9</ele>
        <time>2021-05-23T12:15:23Z</time>
      </trkpt>
      <trkpt lat="42.7377340" lon="-8.6609900">
        <ele>8.9</ele>
        <time>2021-05-23T12:15:24Z</time>
      </trkpt>
      <trkpt lat="42.7377380" lon="-8.6609700">
        <ele>8.9</ele>
        <time>2021-05-23T12:15:25Z</time>
      </trkpt>
      <trkpt lat="42.7377430" lon="-8.6609570">
        <ele>8.9</ele>
        <time>2021-05-23T12:15:26Z</time>
      </trkpt>
      <trkpt lat="42.7377530" lon="-8.6609540">
        <ele>8.9</ele>
        <time>2021-05-23T12:15:27Z</time>
      </trkpt>
      <trkpt lat="42.7377600" lon="-8.6609620">
        <ele>8.9</ele>
        <time>2021-05-23T12:15:28Z</time>
      </trkpt>
      <trkpt lat="42.7377740" lon="-8.6609620">
        <ele>8.9</ele>
        <time>2021-05-23T12:15:29Z</time>
      </trkpt>
      <trkpt lat="42.7377960" lon="-8.6609680">
        <ele>8.9</ele>
        <time>2021-05-23T12:15:30Z</time>
      </trkpt>
      <trkpt lat="42.7378030" lon="-8.6609740">
        <ele>8.9</ele>
        <time>2021-05-23T12:15:31Z</time>
      </trkpt>
      <trkpt lat="42.7378100" lon="-8.6609800">
        <ele>8.9</ele>
        <time>2021-05-23T12:15:32Z</time>
      </trkpt>
      <trkpt lat="42.7378130" lon="-8.6609670">
        <ele>8.9</ele>
        <time>2021-05-23T12:15:33Z</time>
      </trkpt>
      <trkpt lat="42.7378280" lon="-8.6609520">
        <ele>8.9</ele>
        <time>2021-05-23T12:15:34Z</time>
      </trkpt>
      <trkpt lat="42.7378340" lon="-8.6609450">
        <ele>8.9</ele>
        <time>2021-05-23T12:15:36Z</time>
      </trkpt>
      <trkpt lat="42.7378400" lon="-8.6609610">
        <ele>8.9</ele>
        <time>2021-05-23T12:15:37Z</time>
      </trkpt>
      <trkpt lat="42.7378500" lon="-8.6609650">
        <ele>8.9</ele>
        <time>2021-05-23T12:15:38Z</time>
      </trkpt>
      <trkpt lat="42.7378600" lon="-8.6609580">
        <ele>8.9</ele>
        <time>2021-05-23T12:15:39Z</time>
      </trkpt>
      <trkpt lat="42.7378750" lon="-8.6609680">
        <ele>8.9</ele>
        <time>2021-05-23T12:15:40Z</time>
      </trkpt>
      <trkpt lat="42.7378830" lon="-8.6609770">
        <ele>8.9</ele>
        <time>2021-05-23T12:15:41Z</time>
      </trkpt>
      <trkpt lat="42.7378920" lon="-8.6609860">
        <ele>8.9</ele>
        <time>2021-05-23T12:15:42Z</time>
      </trkpt>
      <trkpt lat="42.7379000" lon="-8.6609950">
        <ele>8.9</ele>
        <time>2021-05-23T12:15:43Z</time>
      </trkpt>
      <trkpt lat="42.7379390" lon="-8.6609850">
        <ele>8.9</ele>
        <time>2021-05-23T12:15:44Z</time>
      </trkpt>
      <trkpt lat="42.7379740" lon="-8.6610010">
        <ele>8.9</ele>
        <time>2021-05-23T12:15:45Z</time>
      </trkpt>
      <trkpt lat="42.7379900" lon="-8.6610090">
        <ele>8.9</ele>
        <time>2021-05-23T12:15:46Z</time>
      </trkpt>
      <trkpt lat="42.7380410" lon="-8.6610170">
        <ele>8.9</ele>
        <time>2021-05-23T12:15:47Z</time>
      </trkpt>
      <trkpt lat="42.7381000" lon="-8.6610050">
        <ele>8.9</ele>
        <time>2021-05-23T12:15:48Z</time>
      </trkpt>
      <trkpt lat="42.7381180" lon="-8.6610000">
        <ele>8.8</ele>
        <time>2021-05-23T12:15:49Z</time>
      </trkpt>
      <trkpt lat="42.7381350" lon="-8.6609960">
        <ele>8.8</ele>
        <time>2021-05-23T12:15:50Z</time>
      </trkpt>
      <trkpt lat="42.7381430" lon="-8.6609800">
        <ele>8.8</ele>
        <time>2021-05-23T12:15:51Z</time>
      </trkpt>
      <trkpt lat="42.7381560" lon="-8.6609750">
        <ele>8.8</ele>
        <time>2021-05-23T12:15:52Z</time>
      </trkpt>
      <trkpt lat="42.7381670" lon="-8.6609840">
        <ele>8.8</ele>
        <time>2021-05-23T12:15:53Z</time>
      </trkpt>
      <trkpt lat="42.7381670" lon="-8.6609860">
        <ele>8.8</ele>
        <time>2021-05-23T12:15:54Z</time>
      </trkpt>
      <trkpt lat="42.7381720" lon="-8.6609900">
        <ele>8.8</ele>
        <time>2021-05-23T12:15:55Z</time>
      </trkpt>
      <trkpt lat="42.7381840" lon="-8.6610170">
        <ele>8.8</ele>
        <time>2021-05-23T12:15:56Z</time>
      </trkpt>
      <trkpt lat="42.7381780" lon="-8.6610160">
        <ele>8.8</ele>
        <time>2021-05-23T12:15:57Z</time>
      </trkpt>
      <trkpt lat="42.7381830" lon="-8.6610310">
        <ele>8.8</ele>
        <time>2021-05-23T12:15:58Z</time>
      </trkpt>
      <trkpt lat="42.7381880" lon="-8.6610410">
        <ele>8.8</ele>
        <time>2021-05-23T12:15:59Z</time>
      </trkpt>
      <trkpt lat="42.7381870" lon="-8.6610580">
        <ele>8.8</ele>
        <time>2021-05-23T12:16:00Z</time>
      </trkpt>
      <trkpt lat="42.7381900" lon="-8.6611020">
        <ele>8.8</ele>
        <time>2021-05-23T12:16:01Z</time>
      </trkpt>
      <trkpt lat="42.7381920" lon="-8.6611260">
        <ele>8.8</ele>
        <time>2021-05-23T12:16:02Z</time>
      </trkpt>
      <trkpt lat="42.7381930" lon="-8.6611590">
        <ele>8.8</ele>
        <time>2021-05-23T12:16:03Z</time>
      </trkpt>
      <trkpt lat="42.7381970" lon="-8.6611700">
        <ele>8.8</ele>
        <time>2021-05-23T12:16:04Z</time>
      </trkpt>
      <trkpt lat="42.7382000" lon="-8.6611820">
        <ele>8.8</ele>
        <time>2021-05-23T12:16:05Z</time>
      </trkpt>
      <trkpt lat="42.7382090" lon="-8.6612110">
        <ele>8.8</ele>
        <time>2021-05-23T12:16:06Z</time>
      </trkpt>
      <trkpt lat="42.7382100" lon="-8.6612270">
        <ele>8.8</ele>
        <time>2021-05-23T12:16:07Z</time>
      </trkpt>
      <trkpt lat="42.7382110" lon="-8.6612420">
        <ele>8.8</ele>
        <time>2021-05-23T12:16:08Z</time>
      </trkpt>
      <trkpt lat="42.7382130" lon="-8.6612530">
        <ele>8.8</ele>
        <time>2021-05-23T12:16:09Z</time>
      </trkpt>
      <trkpt lat="42.7382240" lon="-8.6612790">
        <ele>8.8</ele>
        <time>2021-05-23T12:16:10Z</time>
      </trkpt>
      <trkpt lat="42.7382420" lon="-8.6613010">
        <ele>8.8</ele>
        <time>2021-05-23T12:16:11Z</time>
      </trkpt>
      <trkpt lat="42.7382460" lon="-8.6613170">
        <ele>8.7</ele>
        <time>2021-05-23T12:16:12Z</time>
      </trkpt>
      <trkpt lat="42.7382470" lon="-8.6613360">
        <ele>8.7</ele>
        <time>2021-05-23T12:16:13Z</time>
      </trkpt>
      <trkpt lat="42.7382500" lon="-8.6613560">
        <ele>8.7</ele>
        <time>2021-05-23T12:16:14Z</time>
      </trkpt>
      <trkpt lat="42.7382670" lon="-8.6613740">
        <ele>8.7</ele>
        <time>2021-05-23T12:16:15Z</time>
      </trkpt>
      <trkpt lat="42.7382750" lon="-8.6613870">
        <ele>8.6</ele>
        <time>2021-05-23T12:16:16Z</time>
      </trkpt>
      <trkpt lat="42.7382850" lon="-8.6614110">
        <ele>8.6</ele>
        <time>2021-05-23T12:16:17Z</time>
      </trkpt>
      <trkpt lat="42.7382910" lon="-8.6614200">
        <ele>8.6</ele>
        <time>2021-05-23T12:16:18Z</time>
      </trkpt>
      <trkpt lat="42.7382960" lon="-8.6614300">
        <ele>8.6</ele>
        <time>2021-05-23T12:16:19Z</time>
      </trkpt>
      <trkpt lat="42.7382890" lon="-8.6614360">
        <ele>8.6</ele>
        <time>2021-05-23T12:16:20Z</time>
      </trkpt>
      <trkpt lat="42.7382880" lon="-8.6614510">
        <ele>8.5</ele>
        <time>2021-05-23T12:16:21Z</time>
      </trkpt>
      <trkpt lat="42.7382840" lon="-8.6614680">
        <ele>8.5</ele>
        <time>2021-05-23T12:16:22Z</time>
      </trkpt>
      <trkpt lat="42.7382880" lon="-8.6614850">
        <ele>8.5</ele>
        <time>2021-05-23T12:16:23Z</time>
      </trkpt>
      <trkpt lat="42.7382910" lon="-8.6614940">
        <ele>8.5</ele>
        <time>2021-05-23T12:16:24Z</time>
      </trkpt>
      <trkpt lat="42.7382950" lon="-8.6615040">
        <ele>8.5</ele>
        <time>2021-05-23T12:16:25Z</time>
      </trkpt>
      <trkpt lat="42.7382980" lon="-8.6615140">
        <ele>8.5</ele>
        <time>2021-05-23T12:16:26Z</time>
      </trkpt>
      <trkpt lat="42.7383040" lon="-8.6615260">
        <ele>8.5</ele>
        <time>2021-05-23T12:16:27Z</time>
      </trkpt>
      <trkpt lat="42.7383040" lon="-8.6615300">
        <ele>8.5</ele>
        <time>2021-05-23T12:16:28Z</time>
      </trkpt>
      <trkpt lat="42.7383070" lon="-8.6615270">
        <ele>8.5</ele>
        <time>2021-05-23T12:16:29Z</time>
      </trkpt>
      <trkpt lat="42.7383090" lon="-8.6615360">
        <ele>8.5</ele>
        <time>2021-05-23T12:16:30Z</time>
      </trkpt>
      <trkpt lat="42.7383080" lon="-8.6615560">
        <ele>8.5</ele>
        <time>2021-05-23T12:16:31Z</time>
      </trkpt>
      <trkpt lat="42.7383070" lon="-8.6615570">
        <ele>8.5</ele>
        <time>2021-05-23T12:16:32Z</time>
      </trkpt>
      <trkpt lat="42.7383080" lon="-8.6615760">
        <ele>8.5</ele>
        <time>2021-05-23T12:16:33Z</time>
      </trkpt>
      <trkpt lat="42.7383080" lon="-8.6615960">
        <ele>8.5</ele>
        <time>2021-05-23T12:16:34Z</time>
      </trkpt>
      <trkpt lat="42.7383100" lon="-8.6616060">
        <ele>8.5</ele>
        <time>2021-05-23T12:16:35Z</time>
      </trkpt>
      <trkpt lat="42.7383150" lon="-8.6616110">
        <ele>8.6</ele>
        <time>2021-05-23T12:16:36Z</time>
      </trkpt>
      <trkpt lat="42.7383090" lon="-8.6616170">
        <ele>8.7</ele>
        <time>2021-05-23T12:16:37Z</time>
      </trkpt>
      <trkpt lat="42.7383050" lon="-8.6616220">
        <ele>8.7</ele>
        <time>2021-05-23T12:16:38Z</time>
      </trkpt>
      <trkpt lat="42.7383070" lon="-8.6616230">
        <ele>8.7</ele>
        <time>2021-05-23T12:16:39Z</time>
      </trkpt>
      <trkpt lat="42.7383080" lon="-8.6616310">
        <ele>8.7</ele>
        <time>2021-05-23T12:16:40Z</time>
      </trkpt>
      <trkpt lat="42.7383080" lon="-8.6616280">
        <ele>8.7</ele>
        <time>2021-05-23T12:16:41Z</time>
      </trkpt>
      <trkpt lat="42.7383040" lon="-8.6616300">
        <ele>8.7</ele>
        <time>2021-05-23T12:16:42Z</time>
      </trkpt>
      <trkpt lat="42.7383000" lon="-8.6616260">
        <ele>8.7</ele>
        <time>2021-05-23T12:16:43Z</time>
      </trkpt>
      <trkpt lat="42.7383030" lon="-8.6616270">
        <ele>8.7</ele>
        <time>2021-05-23T12:16:44Z</time>
      </trkpt>
      <trkpt lat="42.7383090" lon="-8.6616230">
        <ele>8.7</ele>
        <time>2021-05-23T12:16:45Z</time>
      </trkpt>
      <trkpt lat="42.7383100" lon="-8.6616270">
        <ele>8.7</ele>
        <time>2021-05-23T12:16:46Z</time>
      </trkpt>
      <trkpt lat="42.7383190" lon="-8.6616240">
        <ele>8.7</ele>
        <time>2021-05-23T12:16:47Z</time>
      </trkpt>
      <trkpt lat="42.7383260" lon="-8.6616290">
        <ele>8.7</ele>
        <time>2021-05-23T12:16:48Z</time>
      </trkpt>
      <trkpt lat="42.7383340" lon="-8.6616290">
        <ele>8.7</ele>
        <time>2021-05-23T12:16:49Z</time>
      </trkpt>
      <trkpt lat="42.7383360" lon="-8.6616220">
        <ele>8.7</ele>
        <time>2021-05-23T12:16:50Z</time>
      </trkpt>
      <trkpt lat="42.7383460" lon="-8.6616150">
        <ele>8.7</ele>
        <time>2021-05-23T12:16:51Z</time>
      </trkpt>
      <trkpt lat="42.7383480" lon="-8.6616190">
        <ele>8.7</ele>
        <time>2021-05-23T12:16:52Z</time>
      </trkpt>
      <trkpt lat="42.7383560" lon="-8.6616150">
        <ele>8.7</ele>
        <time>2021-05-23T12:16:53Z</time>
      </trkpt>
      <trkpt lat="42.7383590" lon="-8.6616180">
        <ele>8.7</ele>
        <time>2021-05-23T12:16:54Z</time>
      </trkpt>
      <trkpt lat="42.7383640" lon="-8.6616280">
        <ele>8.7</ele>
        <time>2021-05-23T12:16:55Z</time>
      </trkpt>
      <trkpt lat="42.7383730" lon="-8.6616310">
        <ele>8.7</ele>
        <time>2021-05-23T12:16:56Z</time>
      </trkpt>
      <trkpt lat="42.7383810" lon="-8.6616330">
        <ele>8.7</ele>
        <time>2021-05-23T12:16:57Z</time>
      </trkpt>
      <trkpt lat="42.7383840" lon="-8.6616370">
        <ele>8.8</ele>
        <time>2021-05-23T12:16:58Z</time>
      </trkpt>
      <trkpt lat="42.7383900" lon="-8.6616390">
        <ele>8.8</ele>
        <time>2021-05-23T12:16:59Z</time>
      </trkpt>
      <trkpt lat="42.7383970" lon="-8.6616360">
        <ele>8.8</ele>
        <time>2021-05-23T12:17:00Z</time>
      </trkpt>
      <trkpt lat="42.7384090" lon="-8.6616390">
        <ele>8.8</ele>
        <time>2021-05-23T12:17:01Z</time>
      </trkpt>
      <trkpt lat="42.7384220" lon="-8.6616470">
        <ele>8.8</ele>
        <time>2021-05-23T12:17:02Z</time>
      </trkpt>
      <trkpt lat="42.7384280" lon="-8.6616370">
        <ele>8.8</ele>
        <time>2021-05-23T12:17:03Z</time>
      </trkpt>
      <trkpt lat="42.7384340" lon="-8.6616340">
        <ele>8.8</ele>
        <time>2021-05-23T12:17:04Z</time>
      </trkpt>
      <trkpt lat="42.7384390" lon="-8.6616340">
        <ele>8.8</ele>
        <time>2021-05-23T12:17:05Z</time>
      </trkpt>
      <trkpt lat="42.7384530" lon="-8.6616360">
        <ele>8.8</ele>
        <time>2021-05-23T12:17:06Z</time>
      </trkpt>
      <trkpt lat="42.7384640" lon="-8.6616250">
        <ele>8.8</ele>
        <time>2021-05-23T12:17:07Z</time>
      </trkpt>
      <trkpt lat="42.7384700" lon="-8.6616280">
        <ele>8.9</ele>
        <time>2021-05-23T12:17:08Z</time>
      </trkpt>
      <trkpt lat="42.7384800" lon="-8.6616230">
        <ele>8.9</ele>
        <time>2021-05-23T12:17:09Z</time>
      </trkpt>
      <trkpt lat="42.7384880" lon="-8.6616210">
        <ele>8.9</ele>
        <time>2021-05-23T12:17:10Z</time>
      </trkpt>
      <trkpt lat="42.7384950" lon="-8.6616200">
        <ele>8.9</ele>
        <time>2021-05-23T12:17:11Z</time>
      </trkpt>
      <trkpt lat="42.7385030" lon="-8.6616180">
        <ele>8.9</ele>
        <time>2021-05-23T12:17:12Z</time>
      </trkpt>
      <trkpt lat="42.7385100" lon="-8.6616170">
        <ele>8.9</ele>
        <time>2021-05-23T12:17:13Z</time>
      </trkpt>
      <trkpt lat="42.7385260" lon="-8.6616270">
        <ele>8.9</ele>
        <time>2021-05-23T12:17:14Z</time>
      </trkpt>
      <trkpt lat="42.7385250" lon="-8.6616180">
        <ele>8.9</ele>
        <time>2021-05-23T12:17:15Z</time>
      </trkpt>
      <trkpt lat="42.7385390" lon="-8.6616170">
        <ele>8.9</ele>
        <time>2021-05-23T12:17:16Z</time>
      </trkpt>
      <trkpt lat="42.7385520" lon="-8.6616190">
        <ele>8.9</ele>
        <time>2021-05-23T12:17:17Z</time>
      </trkpt>
      <trkpt lat="42.7385660" lon="-8.6616280">
        <ele>9.0</ele>
        <time>2021-05-23T12:17:18Z</time>
      </trkpt>
      <trkpt lat="42.7385840" lon="-8.6616350">
        <ele>9.0</ele>
        <time>2021-05-23T12:17:19Z</time>
      </trkpt>
      <trkpt lat="42.7385940" lon="-8.6616360">
        <ele>9.0</ele>
        <time>2021-05-23T12:17:20Z</time>
      </trkpt>
      <trkpt lat="42.7386030" lon="-8.6616360">
        <ele>9.0</ele>
        <time>2021-05-23T12:17:21Z</time>
      </trkpt>
      <trkpt lat="42.7386150" lon="-8.6616460">
        <ele>9.0</ele>
        <time>2021-05-23T12:17:22Z</time>
      </trkpt>
      <trkpt lat="42.7386320" lon="-8.6616440">
        <ele>9.0</ele>
        <time>2021-05-23T12:17:23Z</time>
      </trkpt>
      <trkpt lat="42.7386470" lon="-8.6616480">
        <ele>9.1</ele>
        <time>2021-05-23T12:17:24Z</time>
      </trkpt>
      <trkpt lat="42.7386620" lon="-8.6616520">
        <ele>9.1</ele>
        <time>2021-05-23T12:17:25Z</time>
      </trkpt>
      <trkpt lat="42.7386850" lon="-8.6616450">
        <ele>9.1</ele>
        <time>2021-05-23T12:17:26Z</time>
      </trkpt>
      <trkpt lat="42.7386930" lon="-8.6616440">
        <ele>9.1</ele>
        <time>2021-05-23T12:17:27Z</time>
      </trkpt>
      <trkpt lat="42.7387020" lon="-8.6616430">
        <ele>9.1</ele>
        <time>2021-05-23T12:17:28Z</time>
      </trkpt>
      <trkpt lat="42.7387050" lon="-8.6616410">
        <ele>9.1</ele>
        <time>2021-05-23T12:17:29Z</time>
      </trkpt>
      <trkpt lat="42.7387260" lon="-8.6616320">
        <ele>9.1</ele>
        <time>2021-05-23T12:17:30Z</time>
      </trkpt>
      <trkpt lat="42.7387340" lon="-8.6616340">
        <ele>9.2</ele>
        <time>2021-05-23T12:17:31Z</time>
      </trkpt>
      <trkpt lat="42.7387460" lon="-8.6616360">
        <ele>9.2</ele>
        <time>2021-05-23T12:17:32Z</time>
      </trkpt>
      <trkpt lat="42.7387630" lon="-8.6616390">
        <ele>9.2</ele>
        <time>2021-05-23T12:17:33Z</time>
      </trkpt>
      <trkpt lat="42.7387680" lon="-8.6616450">
        <ele>9.2</ele>
        <time>2021-05-23T12:17:34Z</time>
      </trkpt>
      <trkpt lat="42.7387790" lon="-8.6616380">
        <ele>9.2</ele>
        <time>2021-05-23T12:17:35Z</time>
      </trkpt>
      <trkpt lat="42.7387940" lon="-8.6616380">
        <ele>9.2</ele>
        <time>2021-05-23T12:17:36Z</time>
      </trkpt>
      <trkpt lat="42.7388090" lon="-8.6616460">
        <ele>9.2</ele>
        <time>2021-05-23T12:17:37Z</time>
      </trkpt>
      <trkpt lat="42.7388260" lon="-8.6616510">
        <ele>9.2</ele>
        <time>2021-05-23T12:17:38Z</time>
      </trkpt>
      <trkpt lat="42.7388330" lon="-8.6616600">
        <ele>9.2</ele>
        <time>2021-05-23T12:17:39Z</time>
      </trkpt>
      <trkpt lat="42.7388690" lon="-8.6616630">
        <ele>9.3</ele>
        <time>2021-05-23T12:17:41Z</time>
      </trkpt>
      <trkpt lat="42.7388780" lon="-8.6616800">
        <ele>9.3</ele>
        <time>2021-05-23T12:17:42Z</time>
      </trkpt>
      <trkpt lat="42.7388880" lon="-8.6616820">
        <ele>9.3</ele>
        <time>2021-05-23T12:17:43Z</time>
      </trkpt>
      <trkpt lat="42.7388920" lon="-8.6616830">
        <ele>9.3</ele>
        <time>2021-05-23T12:17:45Z</time>
      </trkpt>
      <trkpt lat="42.7388950" lon="-8.6616760">
        <ele>9.3</ele>
        <time>2021-05-23T12:17:46Z</time>
      </trkpt>
      <trkpt lat="42.7389060" lon="-8.6616790">
        <ele>9.3</ele>
        <time>2021-05-23T12:17:47Z</time>
      </trkpt>
      <trkpt lat="42.7389130" lon="-8.6616810">
        <ele>9.3</ele>
        <time>2021-05-23T12:17:48Z</time>
      </trkpt>
      <trkpt lat="42.7389150" lon="-8.6616790">
        <ele>9.3</ele>
        <time>2021-05-23T12:17:49Z</time>
      </trkpt>
      <trkpt lat="42.7389210" lon="-8.6616790">
        <ele>9.3</ele>
        <time>2021-05-23T12:17:50Z</time>
      </trkpt>
      <trkpt lat="42.7389280" lon="-8.6616720">
        <ele>9.3</ele>
        <time>2021-05-23T12:17:51Z</time>
      </trkpt>
      <trkpt lat="42.7389330" lon="-8.6616790">
        <ele>9.3</ele>
        <time>2021-05-23T12:17:52Z</time>
      </trkpt>
      <trkpt lat="42.7389370" lon="-8.6616860">
        <ele>9.4</ele>
        <time>2021-05-23T12:17:53Z</time>
      </trkpt>
      <trkpt lat="42.7389410" lon="-8.6616830">
        <ele>9.4</ele>
        <time>2021-05-23T12:17:54Z</time>
      </trkpt>
      <trkpt lat="42.7389440" lon="-8.6616890">
        <ele>9.4</ele>
        <time>2021-05-23T12:17:55Z</time>
      </trkpt>
      <trkpt lat="42.7389520" lon="-8.6616920">
        <ele>9.4</ele>
        <time>2021-05-23T12:17:56Z</time>
      </trkpt>
      <trkpt lat="42.7389560" lon="-8.6616890">
        <ele>9.4</ele>
        <time>2021-05-23T12:17:57Z</time>
      </trkpt>
      <trkpt lat="42.7389660" lon="-8.6616850">
        <ele>9.4</ele>
        <time>2021-05-23T12:17:58Z</time>
      </trkpt>
      <trkpt lat="42.7389700" lon="-8.6616850">
        <ele>9.4</ele>
        <time>2021-05-23T12:17:59Z</time>
      </trkpt>
      <trkpt lat="42.7389760" lon="-8.6616830">
        <ele>9.4</ele>
        <time>2021-05-23T12:18:00Z</time>
      </trkpt>
      <trkpt lat="42.7389900" lon="-8.6616820">
        <ele>9.4</ele>
        <time>2021-05-23T12:18:01Z</time>
      </trkpt>
      <trkpt lat="42.7389880" lon="-8.6616820">
        <ele>9.4</ele>
        <time>2021-05-23T12:18:02Z</time>
      </trkpt>
      <trkpt lat="42.7390040" lon="-8.6616780">
        <ele>9.4</ele>
        <time>2021-05-23T12:18:03Z</time>
      </trkpt>
      <trkpt lat="42.7390150" lon="-8.6616750">
        <ele>9.4</ele>
        <time>2021-05-23T12:18:04Z</time>
      </trkpt>
      <trkpt lat="42.7390170" lon="-8.6616690">
        <ele>9.4</ele>
        <time>2021-05-23T12:18:05Z</time>
      </trkpt>
      <trkpt lat="42.7390210" lon="-8.6616670">
        <ele>9.4</ele>
        <time>2021-05-23T12:18:06Z</time>
      </trkpt>
      <trkpt lat="42.7390260" lon="-8.6616650">
        <ele>9.4</ele>
        <time>2021-05-23T12:18:07Z</time>
      </trkpt>
      <trkpt lat="42.7390350" lon="-8.6616680">
        <ele>9.4</ele>
        <time>2021-05-23T12:18:08Z</time>
      </trkpt>
      <trkpt lat="42.7390410" lon="-8.6616670">
        <ele>9.4</ele>
        <time>2021-05-23T12:18:09Z</time>
      </trkpt>
      <trkpt lat="42.7390430" lon="-8.6616800">
        <ele>9.5</ele>
        <time>2021-05-23T12:18:10Z</time>
      </trkpt>
      <trkpt lat="42.7390500" lon="-8.6616880">
        <ele>9.5</ele>
        <time>2021-05-23T12:18:11Z</time>
      </trkpt>
      <trkpt lat="42.7390570" lon="-8.6616890">
        <ele>9.5</ele>
        <time>2021-05-23T12:18:12Z</time>
      </trkpt>
      <trkpt lat="42.7390660" lon="-8.6616850">
        <ele>9.5</ele>
        <time>2021-05-23T12:18:13Z</time>
      </trkpt>
      <trkpt lat="42.7390740" lon="-8.6616830">
        <ele>9.5</ele>
        <time>2021-05-23T12:18:14Z</time>
      </trkpt>
      <trkpt lat="42.7390840" lon="-8.6616800">
        <ele>9.5</ele>
        <time>2021-05-23T12:18:15Z</time>
      </trkpt>
      <trkpt lat="42.7390870" lon="-8.6616840">
        <ele>9.5</ele>
        <time>2021-05-23T12:18:16Z</time>
      </trkpt>
      <trkpt lat="42.7390820" lon="-8.6617090">
        <ele>9.5</ele>
        <time>2021-05-23T12:18:17Z</time>
      </trkpt>
      <trkpt lat="42.7390860" lon="-8.6617260">
        <ele>9.5</ele>
        <time>2021-05-23T12:18:18Z</time>
      </trkpt>
      <trkpt lat="42.7390910" lon="-8.6617420">
        <ele>9.6</ele>
        <time>2021-05-23T12:18:19Z</time>
      </trkpt>
      <trkpt lat="42.7390940" lon="-8.6617620">
        <ele>9.6</ele>
        <time>2021-05-23T12:18:20Z</time>
      </trkpt>
      <trkpt lat="42.7390940" lon="-8.6617930">
        <ele>9.6</ele>
        <time>2021-05-23T12:18:21Z</time>
      </trkpt>
      <trkpt lat="42.7390950" lon="-8.6618030">
        <ele>9.6</ele>
        <time>2021-05-23T12:18:22Z</time>
      </trkpt>
      <trkpt lat="42.7390950" lon="-8.6618130">
        <ele>9.6</ele>
        <time>2021-05-23T12:18:23Z</time>
      </trkpt>
      <trkpt lat="42.7390920" lon="-8.6618290">
        <ele>9.6</ele>
        <time>2021-05-23T12:18:24Z</time>
      </trkpt>
      <trkpt lat="42.7390890" lon="-8.6618410">
        <ele>9.6</ele>
        <time>2021-05-23T12:18:25Z</time>
      </trkpt>
      <trkpt lat="42.7390800" lon="-8.6618560">
        <ele>9.6</ele>
        <time>2021-05-23T12:18:26Z</time>
      </trkpt>
      <trkpt lat="42.7390760" lon="-8.6618740">
        <ele>9.6</ele>
        <time>2021-05-23T12:18:27Z</time>
      </trkpt>
      <trkpt lat="42.7390730" lon="-8.6618840">
        <ele>9.6</ele>
        <time>2021-05-23T12:18:28Z</time>
      </trkpt>
      <trkpt lat="42.7390710" lon="-8.6618940">
        <ele>9.6</ele>
        <time>2021-05-23T12:18:29Z</time>
      </trkpt>
      <trkpt lat="42.7390680" lon="-8.6619040">
        <ele>9.6</ele>
        <time>2021-05-23T12:18:30Z</time>
      </trkpt>
      <trkpt lat="42.7390620" lon="-8.6619380">
        <ele>9.6</ele>
        <time>2021-05-23T12:18:31Z</time>
      </trkpt>
      <trkpt lat="42.7390570" lon="-8.6619540">
        <ele>9.6</ele>
        <time>2021-05-23T12:18:32Z</time>
      </trkpt>
      <trkpt lat="42.7390540" lon="-8.6619700">
        <ele>9.6</ele>
        <time>2021-05-23T12:18:33Z</time>
      </trkpt>
      <trkpt lat="42.7390510" lon="-8.6619900">
        <ele>9.6</ele>
        <time>2021-05-23T12:18:34Z</time>
      </trkpt>
      <trkpt lat="42.7390530" lon="-8.6620060">
        <ele>9.6</ele>
        <time>2021-05-23T12:18:35Z</time>
      </trkpt>
      <trkpt lat="42.7390510" lon="-8.6620210">
        <ele>9.6</ele>
        <time>2021-05-23T12:18:36Z</time>
      </trkpt>
      <trkpt lat="42.7390490" lon="-8.6620350">
        <ele>9.6</ele>
        <time>2021-05-23T12:18:37Z</time>
      </trkpt>
      <trkpt lat="42.7390470" lon="-8.6620490">
        <ele>9.5</ele>
        <time>2021-05-23T12:18:38Z</time>
      </trkpt>
      <trkpt lat="42.7390470" lon="-8.6620630">
        <ele>9.5</ele>
        <time>2021-05-23T12:18:39Z</time>
      </trkpt>
      <trkpt lat="42.7390430" lon="-8.6620680">
        <ele>9.5</ele>
        <time>2021-05-23T12:18:40Z</time>
      </trkpt>
      <trkpt lat="42.7390400" lon="-8.6620750">
        <ele>9.5</ele>
        <time>2021-05-23T12:18:41Z</time>
      </trkpt>
      <trkpt lat="42.7390370" lon="-8.6620860">
        <ele>9.5</ele>
        <time>2021-05-23T12:18:42Z</time>
      </trkpt>
      <trkpt lat="42.7390360" lon="-8.6621030">
        <ele>9.5</ele>
        <time>2021-05-23T12:18:43Z</time>
      </trkpt>
      <trkpt lat="42.7390360" lon="-8.6621120">
        <ele>9.5</ele>
        <time>2021-05-23T12:18:44Z</time>
      </trkpt>
      <trkpt lat="42.7390330" lon="-8.6621320">
        <ele>9.5</ele>
        <time>2021-05-23T12:18:45Z</time>
      </trkpt>
      <trkpt lat="42.7390350" lon="-8.6621540">
        <ele>9.5</ele>
        <time>2021-05-23T12:18:46Z</time>
      </trkpt>
      <trkpt lat="42.7390380" lon="-8.6621680">
        <ele>9.5</ele>
        <time>2021-05-23T12:18:47Z</time>
      </trkpt>
      <trkpt lat="42.7390350" lon="-8.6621830">
        <ele>9.5</ele>
        <time>2021-05-23T12:18:48Z</time>
      </trkpt>
      <trkpt lat="42.7390410" lon="-8.6621970">
        <ele>9.5</ele>
        <time>2021-05-23T12:18:49Z</time>
      </trkpt>
      <trkpt lat="42.7390360" lon="-8.6622140">
        <ele>9.5</ele>
        <time>2021-05-23T12:18:50Z</time>
      </trkpt>
      <trkpt lat="42.7390380" lon="-8.6622230">
        <ele>9.5</ele>
        <time>2021-05-23T12:18:51Z</time>
      </trkpt>
      <trkpt lat="42.7390430" lon="-8.6622240">
        <ele>9.5</ele>
        <time>2021-05-23T12:18:52Z</time>
      </trkpt>
      <trkpt lat="42.7390410" lon="-8.6622150">
        <ele>9.5</ele>
        <time>2021-05-23T12:18:53Z</time>
      </trkpt>
      <trkpt lat="42.7390430" lon="-8.6622140">
        <ele>9.5</ele>
        <time>2021-05-23T12:18:54Z</time>
      </trkpt>
      <trkpt lat="42.7390470" lon="-8.6622250">
        <ele>9.5</ele>
        <time>2021-05-23T12:18:55Z</time>
      </trkpt>
      <trkpt lat="42.7390450" lon="-8.6622390">
        <ele>9.4</ele>
        <time>2021-05-23T12:18:56Z</time>
      </trkpt>
      <trkpt lat="42.7390420" lon="-8.6622510">
        <ele>9.4</ele>
        <time>2021-05-23T12:18:57Z</time>
      </trkpt>
      <trkpt lat="42.7390390" lon="-8.6622610">
        <ele>9.4</ele>
        <time>2021-05-23T12:18:58Z</time>
      </trkpt>
      <trkpt lat="42.7390410" lon="-8.6622700">
        <ele>9.4</ele>
        <time>2021-05-23T12:18:59Z</time>
      </trkpt>
      <trkpt lat="42.7390470" lon="-8.6622910">
        <ele>9.4</ele>
        <time>2021-05-23T12:19:00Z</time>
      </trkpt>
      <trkpt lat="42.7390480" lon="-8.6623040">
        <ele>9.4</ele>
        <time>2021-05-23T12:19:01Z</time>
      </trkpt>
      <trkpt lat="42.7390430" lon="-8.6623150">
        <ele>9.4</ele>
        <time>2021-05-23T12:19:02Z</time>
      </trkpt>
      <trkpt lat="42.7390400" lon="-8.6623220">
        <ele>9.3</ele>
        <time>2021-05-23T12:19:03Z</time>
      </trkpt>
      <trkpt lat="42.7390420" lon="-8.6623380">
        <ele>9.3</ele>
        <time>2021-05-23T12:19:04Z</time>
      </trkpt>
      <trkpt lat="42.7390420" lon="-8.6623550">
        <ele>9.3</ele>
        <time>2021-05-23T12:19:05Z</time>
      </trkpt>
      <trkpt lat="42.7390450" lon="-8.6623790">
        <ele>9.2</ele>
        <time>2021-05-23T12:19:06Z</time>
      </trkpt>
      <trkpt lat="42.7390490" lon="-8.6624050">
        <ele>9.1</ele>
        <time>2021-05-23T12:19:07Z</time>
      </trkpt>
      <trkpt lat="42.7390490" lon="-8.6624190">
        <ele>9.1</ele>
        <time>2021-05-23T12:19:08Z</time>
      </trkpt>
      <trkpt lat="42.7390500" lon="-8.6624320">
        <ele>9.0</ele>
        <time>2021-05-23T12:19:09Z</time>
      </trkpt>
      <trkpt lat="42.7390490" lon="-8.6624450">
        <ele>9.0</ele>
        <time>2021-05-23T12:19:10Z</time>
      </trkpt>
      <trkpt lat="42.7390490" lon="-8.6624630">
        <ele>8.9</ele>
        <time>2021-05-23T12:19:11Z</time>
      </trkpt>
      <trkpt lat="42.7390490" lon="-8.6624740">
        <ele>8.9</ele>
        <time>2021-05-23T12:19:12Z</time>
      </trkpt>
      <trkpt lat="42.7390490" lon="-8.6624940">
        <ele>8.8</ele>
        <time>2021-05-23T12:19:13Z</time>
      </trkpt>
      <trkpt lat="42.7390490" lon="-8.6625150">
        <ele>8.7</ele>
        <time>2021-05-23T12:19:14Z</time>
      </trkpt>
      <trkpt lat="42.7390520" lon="-8.6625300">
        <ele>8.7</ele>
        <time>2021-05-23T12:19:15Z</time>
      </trkpt>
      <trkpt lat="42.7390500" lon="-8.6625330">
        <ele>8.7</ele>
        <time>2021-05-23T12:19:16Z</time>
      </trkpt>
      <trkpt lat="42.7390550" lon="-8.6625600">
        <ele>8.6</ele>
        <time>2021-05-23T12:19:17Z</time>
      </trkpt>
      <trkpt lat="42.7390500" lon="-8.6625820">
        <ele>8.5</ele>
        <time>2021-05-23T12:19:18Z</time>
      </trkpt>
      <trkpt lat="42.7390520" lon="-8.6625940">
        <ele>8.5</ele>
        <time>2021-05-23T12:19:19Z</time>
      </trkpt>
      <trkpt lat="42.7390500" lon="-8.6626030">
        <ele>8.5</ele>
        <time>2021-05-23T12:19:20Z</time>
      </trkpt>
      <trkpt lat="42.7390510" lon="-8.6626100">
        <ele>8.5</ele>
        <time>2021-05-23T12:19:21Z</time>
      </trkpt>
      <trkpt lat="42.7390360" lon="-8.6626160">
        <ele>8.6</ele>
        <time>2021-05-23T12:19:22Z</time>
      </trkpt>
      <trkpt lat="42.7390250" lon="-8.6626330">
        <ele>8.8</ele>
        <time>2021-05-23T12:19:23Z</time>
      </trkpt>
      <trkpt lat="42.7390200" lon="-8.6626450">
        <ele>8.8</ele>
        <time>2021-05-23T12:19:24Z</time>
      </trkpt>
      <trkpt lat="42.7390260" lon="-8.6626530">
        <ele>8.9</ele>
        <time>2021-05-23T12:19:25Z</time>
      </trkpt>
      <trkpt lat="42.7390280" lon="-8.6626640">
        <ele>9.0</ele>
        <time>2021-05-23T12:19:26Z</time>
      </trkpt>
      <trkpt lat="42.7390330" lon="-8.6626780">
        <ele>9.1</ele>
        <time>2021-05-23T12:19:27Z</time>
      </trkpt>
      <trkpt lat="42.7390360" lon="-8.6626910">
        <ele>9.1</ele>
        <time>2021-05-23T12:19:28Z</time>
      </trkpt>
      <trkpt lat="42.7390400" lon="-8.6626980">
        <ele>9.2</ele>
        <time>2021-05-23T12:19:29Z</time>
      </trkpt>
      <trkpt lat="42.7390410" lon="-8.6627040">
        <ele>9.2</ele>
        <time>2021-05-23T12:19:30Z</time>
      </trkpt>
      <trkpt lat="42.7390450" lon="-8.6627110">
        <ele>9.3</ele>
        <time>2021-05-23T12:19:31Z</time>
      </trkpt>
      <trkpt lat="42.7390570" lon="-8.6627230">
        <ele>9.4</ele>
        <time>2021-05-23T12:19:32Z</time>
      </trkpt>
      <trkpt lat="42.7390630" lon="-8.6627320">
        <ele>9.5</ele>
        <time>2021-05-23T12:19:33Z</time>
      </trkpt>
      <trkpt lat="42.7390680" lon="-8.6627400">
        <ele>9.5</ele>
        <time>2021-05-23T12:19:34Z</time>
      </trkpt>
      <trkpt lat="42.7390740" lon="-8.6627490">
        <ele>9.6</ele>
        <time>2021-05-23T12:19:35Z</time>
      </trkpt>
      <trkpt lat="42.7390850" lon="-8.6627630">
        <ele>9.7</ele>
        <time>2021-05-23T12:19:36Z</time>
      </trkpt>
      <trkpt lat="42.7390870" lon="-8.6627760">
        <ele>9.8</ele>
        <time>2021-05-23T12:19:37Z</time>
      </trkpt>
      <trkpt lat="42.7390900" lon="-8.6627860">
        <ele>9.8</ele>
        <time>2021-05-23T12:19:38Z</time>
      </trkpt>
      <trkpt lat="42.7390850" lon="-8.6628120">
        <ele>10.0</ele>
        <time>2021-05-23T12:19:39Z</time>
      </trkpt>
      <trkpt lat="42.7390810" lon="-8.6628150">
        <ele>10.1</ele>
        <time>2021-05-23T12:19:40Z</time>
      </trkpt>
      <trkpt lat="42.7390860" lon="-8.6628340">
        <ele>10.4</ele>
        <time>2021-05-23T12:19:41Z</time>
      </trkpt>
      <trkpt lat="42.7390850" lon="-8.6628460">
        <ele>10.5</ele>
        <time>2021-05-23T12:19:42Z</time>
      </trkpt>
      <trkpt lat="42.7390820" lon="-8.6628450">
        <ele>10.6</ele>
        <time>2021-05-23T12:19:43Z</time>
      </trkpt>
      <trkpt lat="42.7390810" lon="-8.6628570">
        <ele>10.7</ele>
        <time>2021-05-23T12:19:44Z</time>
      </trkpt>
      <trkpt lat="42.7390750" lon="-8.6628660">
        <ele>10.9</ele>
        <time>2021-05-23T12:19:45Z</time>
      </trkpt>
      <trkpt lat="42.7390750" lon="-8.6628790">
        <ele>11.1</ele>
        <time>2021-05-23T12:19:46Z</time>
      </trkpt>
      <trkpt lat="42.7390530" lon="-8.6628970">
        <ele>11.6</ele>
        <time>2021-05-23T12:19:47Z</time>
      </trkpt>
      <trkpt lat="42.7390430" lon="-8.6629030">
        <ele>11.7</ele>
        <time>2021-05-23T12:19:48Z</time>
      </trkpt>
      <trkpt lat="42.7390180" lon="-8.6629200">
        <ele>12.3</ele>
        <time>2021-05-23T12:19:49Z</time>
      </trkpt>
      <trkpt lat="42.7390130" lon="-8.6629240">
        <ele>12.4</ele>
        <time>2021-05-23T12:19:50Z</time>
      </trkpt>
      <trkpt lat="42.7390100" lon="-8.6629380">
        <ele>12.6</ele>
        <time>2021-05-23T12:19:51Z</time>
      </trkpt>
      <trkpt lat="42.7390020" lon="-8.6629580">
        <ele>12.9</ele>
        <time>2021-05-23T12:19:52Z</time>
      </trkpt>
      <trkpt lat="42.7389810" lon="-8.6629850">
        <ele>13.4</ele>
        <time>2021-05-23T12:19:53Z</time>
      </trkpt>
      <trkpt lat="42.7389740" lon="-8.6629940">
        <ele>13.6</ele>
        <time>2021-05-23T12:19:54Z</time>
      </trkpt>
      <trkpt lat="42.7389670" lon="-8.6630000">
        <ele>13.7</ele>
        <time>2021-05-23T12:19:55Z</time>
      </trkpt>
      <trkpt lat="42.7389580" lon="-8.6630090">
        <ele>13.9</ele>
        <time>2021-05-23T12:19:56Z</time>
      </trkpt>
      <trkpt lat="42.7389500" lon="-8.6630160">
        <ele>14.1</ele>
        <time>2021-05-23T12:19:57Z</time>
      </trkpt>
      <trkpt lat="42.7389310" lon="-8.6630290">
        <ele>14.5</ele>
        <time>2021-05-23T12:19:58Z</time>
      </trkpt>
      <trkpt lat="42.7389240" lon="-8.6630330">
        <ele>14.7</ele>
        <time>2021-05-23T12:19:59Z</time>
      </trkpt>
      <trkpt lat="42.7389170" lon="-8.6630380">
        <ele>14.8</ele>
        <time>2021-05-23T12:20:00Z</time>
      </trkpt>
      <trkpt lat="42.7389090" lon="-8.6630410">
        <ele>15.0</ele>
        <time>2021-05-23T12:20:01Z</time>
      </trkpt>
      <trkpt lat="42.7389040" lon="-8.6630460">
        <ele>15.7</ele>
        <time>2021-05-23T12:20:02Z</time>
      </trkpt>
      <trkpt lat="42.7388900" lon="-8.6630560">
        <ele>15.8</ele>
        <time>2021-05-23T12:20:03Z</time>
      </trkpt>
      <trkpt lat="42.7388880" lon="-8.6630720">
        <ele>15.8</ele>
        <time>2021-05-23T12:20:04Z</time>
      </trkpt>
      <trkpt lat="42.7388830" lon="-8.6630860">
        <ele>15.9</ele>
        <time>2021-05-23T12:20:05Z</time>
      </trkpt>
      <trkpt lat="42.7388710" lon="-8.6630830">
        <ele>16.0</ele>
        <time>2021-05-23T12:20:06Z</time>
      </trkpt>
      <trkpt lat="42.7388680" lon="-8.6630880">
        <ele>16.0</ele>
        <time>2021-05-23T12:20:07Z</time>
      </trkpt>
      <trkpt lat="42.7388690" lon="-8.6630970">
        <ele>16.1</ele>
        <time>2021-05-23T12:20:08Z</time>
      </trkpt>
      <trkpt lat="42.7388570" lon="-8.6630980">
        <ele>16.2</ele>
        <time>2021-05-23T12:20:09Z</time>
      </trkpt>
      <trkpt lat="42.7388470" lon="-8.6631060">
        <ele>16.2</ele>
        <time>2021-05-23T12:20:10Z</time>
      </trkpt>
      <trkpt lat="42.7388340" lon="-8.6631230">
        <ele>16.4</ele>
        <time>2021-05-23T12:20:11Z</time>
      </trkpt>
      <trkpt lat="42.7388290" lon="-8.6631300">
        <ele>16.4</ele>
        <time>2021-05-23T12:20:12Z</time>
      </trkpt>
      <trkpt lat="42.7388240" lon="-8.6631360">
        <ele>16.5</ele>
        <time>2021-05-23T12:20:13Z</time>
      </trkpt>
      <trkpt lat="42.7388190" lon="-8.6631430">
        <ele>16.6</ele>
        <time>2021-05-23T12:20:14Z</time>
      </trkpt>
      <trkpt lat="42.7388070" lon="-8.6631620">
        <ele>16.7</ele>
        <time>2021-05-23T12:20:15Z</time>
      </trkpt>
      <trkpt lat="42.7388040" lon="-8.6631710">
        <ele>16.8</ele>
        <time>2021-05-23T12:20:16Z</time>
      </trkpt>
      <trkpt lat="42.7388000" lon="-8.6631800">
        <ele>16.8</ele>
        <time>2021-05-23T12:20:17Z</time>
      </trkpt>
      <trkpt lat="42.7387960" lon="-8.6631890">
        <ele>16.9</ele>
        <time>2021-05-23T12:20:18Z</time>
      </trkpt>
      <trkpt lat="42.7388010" lon="-8.6632070">
        <ele>17.0</ele>
        <time>2021-05-23T12:20:19Z</time>
      </trkpt>
      <trkpt lat="42.7387920" lon="-8.6632150">
        <ele>17.1</ele>
        <time>2021-05-23T12:20:20Z</time>
      </trkpt>
      <trkpt lat="42.7387750" lon="-8.6632250">
        <ele>17.3</ele>
        <time>2021-05-23T12:20:21Z</time>
      </trkpt>
      <trkpt lat="42.7387620" lon="-8.6632260">
        <ele>17.5</ele>
        <time>2021-05-23T12:20:22Z</time>
      </trkpt>
      <trkpt lat="42.7387470" lon="-8.6632230">
        <ele>17.6</ele>
        <time>2021-05-23T12:20:23Z</time>
      </trkpt>
      <trkpt lat="42.7387410" lon="-8.6632360">
        <ele>17.8</ele>
        <time>2021-05-23T12:20:24Z</time>
      </trkpt>
      <trkpt lat="42.7387410" lon="-8.6632470">
        <ele>17.8</ele>
        <time>2021-05-23T12:20:25Z</time>
      </trkpt>
      <trkpt lat="42.7387330" lon="-8.6632570">
        <ele>18.0</ele>
        <time>2021-05-23T12:20:26Z</time>
      </trkpt>
      <trkpt lat="42.7387250" lon="-8.6632620">
        <ele>18.1</ele>
        <time>2021-05-23T12:20:27Z</time>
      </trkpt>
      <trkpt lat="42.7387170" lon="-8.6632650">
        <ele>18.1</ele>
        <time>2021-05-23T12:20:28Z</time>
      </trkpt>
      <trkpt lat="42.7387140" lon="-8.6632720">
        <ele>18.2</ele>
        <time>2021-05-23T12:20:30Z</time>
      </trkpt>
      <trkpt lat="42.7387130" lon="-8.6632800">
        <ele>18.3</ele>
        <time>2021-05-23T12:20:31Z</time>
      </trkpt>
      <trkpt lat="42.7387120" lon="-8.6632960">
        <ele>18.4</ele>
        <time>2021-05-23T12:20:32Z</time>
      </trkpt>
      <trkpt lat="42.7387210" lon="-8.6633010">
        <ele>18.5</ele>
        <time>2021-05-23T12:20:33Z</time>
      </trkpt>
      <trkpt lat="42.7387280" lon="-8.6633050">
        <ele>18.6</ele>
        <time>2021-05-23T12:20:34Z</time>
      </trkpt>
      <trkpt lat="42.7387350" lon="-8.6633100">
        <ele>18.7</ele>
        <time>2021-05-23T12:20:35Z</time>
      </trkpt>
      <trkpt lat="42.7387420" lon="-8.6633150">
        <ele>18.8</ele>
        <time>2021-05-23T12:20:36Z</time>
      </trkpt>
      <trkpt lat="42.7387490" lon="-8.6633190">
        <ele>18.8</ele>
        <time>2021-05-23T12:20:37Z</time>
      </trkpt>
      <trkpt lat="42.7387560" lon="-8.6633240">
        <ele>18.9</ele>
        <time>2021-05-23T12:20:38Z</time>
      </trkpt>
      <trkpt lat="42.7387750" lon="-8.6633190">
        <ele>19.1</ele>
        <time>2021-05-23T12:20:39Z</time>
      </trkpt>
      <trkpt lat="42.7387730" lon="-8.6633240">
        <ele>19.1</ele>
        <time>2021-05-23T12:20:40Z</time>
      </trkpt>
      <trkpt lat="42.7387770" lon="-8.6633220">
        <ele>19.1</ele>
        <time>2021-05-23T12:20:41Z</time>
      </trkpt>
      <trkpt lat="42.7387890" lon="-8.6633040">
        <ele>19.3</ele>
        <time>2021-05-23T12:20:42Z</time>
      </trkpt>
      <trkpt lat="42.7387950" lon="-8.6633080">
        <ele>19.3</ele>
        <time>2021-05-23T12:20:43Z</time>
      </trkpt>
      <trkpt lat="42.7387990" lon="-8.6633140">
        <ele>19.4</ele>
        <time>2021-05-23T12:20:44Z</time>
      </trkpt>
      <trkpt lat="42.7388090" lon="-8.6633190">
        <ele>19.5</ele>
        <time>2021-05-23T12:20:45Z</time>
      </trkpt>
      <trkpt lat="42.7388150" lon="-8.6633120">
        <ele>19.5</ele>
        <time>2021-05-23T12:20:46Z</time>
      </trkpt>
      <trkpt lat="42.7388230" lon="-8.6633150">
        <ele>19.5</ele>
        <time>2021-05-23T12:20:47Z</time>
      </trkpt>
      <trkpt lat="42.7388300" lon="-8.6633180">
        <ele>19.5</ele>
        <time>2021-05-23T12:20:48Z</time>
      </trkpt>
      <trkpt lat="42.7388440" lon="-8.6633120">
        <ele>19.5</ele>
        <time>2021-05-23T12:20:49Z</time>
      </trkpt>
      <trkpt lat="42.7388570" lon="-8.6633070">
        <ele>19.5</ele>
        <time>2021-05-23T12:20:50Z</time>
      </trkpt>
      <trkpt lat="42.7388630" lon="-8.6632990">
        <ele>19.5</ele>
        <time>2021-05-23T12:20:51Z</time>
      </trkpt>
      <trkpt lat="42.7388700" lon="-8.6632920">
        <ele>19.5</ele>
        <time>2021-05-23T12:20:52Z</time>
      </trkpt>
      <trkpt lat="42.7388760" lon="-8.6632840">
        <ele>19.5</ele>
        <time>2021-05-23T12:20:53Z</time>
      </trkpt>
      <trkpt lat="42.7388790" lon="-8.6632830">
        <ele>19.5</ele>
        <time>2021-05-23T12:20:54Z</time>
      </trkpt>
      <trkpt lat="42.7388870" lon="-8.6632900">
        <ele>19.5</ele>
        <time>2021-05-23T12:20:55Z</time>
      </trkpt>
      <trkpt lat="42.7388860" lon="-8.6632950">
        <ele>19.5</ele>
        <time>2021-05-23T12:20:56Z</time>
      </trkpt>
      <trkpt lat="42.7388950" lon="-8.6633090">
        <ele>19.5</ele>
        <time>2021-05-23T12:20:57Z</time>
      </trkpt>
      <trkpt lat="42.7389030" lon="-8.6633120">
        <ele>19.5</ele>
        <time>2021-05-23T12:20:58Z</time>
      </trkpt>
      <trkpt lat="42.7388990" lon="-8.6633270">
        <ele>19.5</ele>
        <time>2021-05-23T12:20:59Z</time>
      </trkpt>
      <trkpt lat="42.7389040" lon="-8.6633320">
        <ele>19.5</ele>
        <time>2021-05-23T12:21:00Z</time>
      </trkpt>
      <trkpt lat="42.7389030" lon="-8.6633400">
        <ele>19.5</ele>
        <time>2021-05-23T12:21:01Z</time>
      </trkpt>
      <trkpt lat="42.7389050" lon="-8.6633500">
        <ele>19.5</ele>
        <time>2021-05-23T12:21:02Z</time>
      </trkpt>
      <trkpt lat="42.7389110" lon="-8.6633600">
        <ele>19.5</ele>
        <time>2021-05-23T12:21:03Z</time>
      </trkpt>
      <trkpt lat="42.7389140" lon="-8.6633660">
        <ele>19.5</ele>
        <time>2021-05-23T12:21:04Z</time>
      </trkpt>
      <trkpt lat="42.7389180" lon="-8.6633710">
        <ele>19.5</ele>
        <time>2021-05-23T12:21:05Z</time>
      </trkpt>
      <trkpt lat="42.7389220" lon="-8.6633770">
        <ele>19.5</ele>
        <time>2021-05-23T12:21:06Z</time>
      </trkpt>
      <trkpt lat="42.7389260" lon="-8.6633820">
        <ele>19.5</ele>
        <time>2021-05-23T12:21:07Z</time>
      </trkpt>
      <trkpt lat="42.7389290" lon="-8.6633880">
        <ele>19.5</ele>
        <time>2021-05-23T12:21:08Z</time>
      </trkpt>
      <trkpt lat="42.7389330" lon="-8.6633930">
        <ele>19.5</ele>
        <time>2021-05-23T12:21:09Z</time>
      </trkpt>
      <trkpt lat="42.7389320" lon="-8.6633930">
        <ele>19.5</ele>
        <time>2021-05-23T12:21:10Z</time>
      </trkpt>
      <trkpt lat="42.7389430" lon="-8.6634050">
        <ele>19.5</ele>
        <time>2021-05-23T12:21:11Z</time>
      </trkpt>
      <trkpt lat="42.7389420" lon="-8.6633850">
        <ele>19.5</ele>
        <time>2021-05-23T12:21:12Z</time>
      </trkpt>
      <trkpt lat="42.7389500" lon="-8.6633610">
        <ele>19.5</ele>
        <time>2021-05-23T12:21:13Z</time>
      </trkpt>
      <trkpt lat="42.7389380" lon="-8.6633360">
        <ele>19.5</ele>
        <time>2021-05-23T12:21:14Z</time>
      </trkpt>
      <trkpt lat="42.7389320" lon="-8.6633330">
        <ele>19.5</ele>
        <time>2021-05-23T12:21:15Z</time>
      </trkpt>
      <trkpt lat="42.7389250" lon="-8.6633290">
        <ele>19.5</ele>
        <time>2021-05-23T12:21:16Z</time>
      </trkpt>
      <trkpt lat="42.7389190" lon="-8.6633260">
        <ele>19.5</ele>
        <time>2021-05-23T12:21:17Z</time>
      </trkpt>
      <trkpt lat="42.7389080" lon="-8.6633330">
        <ele>19.5</ele>
        <time>2021-05-23T12:21:18Z</time>
      </trkpt>
      <trkpt lat="42.7389050" lon="-8.6633120">
        <ele>19.5</ele>
        <time>2021-05-23T12:21:19Z</time>
      </trkpt>
      <trkpt lat="42.7389060" lon="-8.6633150">
        <ele>19.5</ele>
        <time>2021-05-23T12:21:20Z</time>
      </trkpt>
      <trkpt lat="42.7389060" lon="-8.6633080">
        <ele>19.5</ele>
        <time>2021-05-23T12:21:21Z</time>
      </trkpt>
      <trkpt lat="42.7389100" lon="-8.6633120">
        <ele>19.5</ele>
        <time>2021-05-23T12:21:22Z</time>
      </trkpt>
      <trkpt lat="42.7389270" lon="-8.6633060">
        <ele>19.5</ele>
        <time>2021-05-23T12:21:23Z</time>
      </trkpt>
      <trkpt lat="42.7389380" lon="-8.6633160">
        <ele>19.5</ele>
        <time>2021-05-23T12:21:24Z</time>
      </trkpt>
      <trkpt lat="42.7389500" lon="-8.6633220">
        <ele>19.5</ele>
        <time>2021-05-23T12:21:25Z</time>
      </trkpt>
      <trkpt lat="42.7389620" lon="-8.6633020">
        <ele>19.5</ele>
        <time>2021-05-23T12:21:26Z</time>
      </trkpt>
      <trkpt lat="42.7389620" lon="-8.6632830">
        <ele>19.5</ele>
        <time>2021-05-23T12:21:27Z</time>
      </trkpt>
      <trkpt lat="42.7389690" lon="-8.6632660">
        <ele>19.5</ele>
        <time>2021-05-23T12:21:28Z</time>
      </trkpt>
      <trkpt lat="42.7389770" lon="-8.6632690">
        <ele>19.5</ele>
        <time>2021-05-23T12:21:29Z</time>
      </trkpt>
      <trkpt lat="42.7389810" lon="-8.6632650">
        <ele>19.5</ele>
        <time>2021-05-23T12:21:30Z</time>
      </trkpt>
      <trkpt lat="42.7389780" lon="-8.6632710">
        <ele>19.5</ele>
        <time>2021-05-23T12:21:31Z</time>
      </trkpt>
      <trkpt lat="42.7389750" lon="-8.6632800">
        <ele>19.5</ele>
        <time>2021-05-23T12:21:32Z</time>
      </trkpt>
      <trkpt lat="42.7389690" lon="-8.6632920">
        <ele>19.5</ele>
        <time>2021-05-23T12:21:33Z</time>
      </trkpt>
      <trkpt lat="42.7389630" lon="-8.6633000">
        <ele>19.5</ele>
        <time>2021-05-23T12:21:34Z</time>
      </trkpt>
      <trkpt lat="42.7389580" lon="-8.6633160">
        <ele>19.5</ele>
        <time>2021-05-23T12:21:35Z</time>
      </trkpt>
      <trkpt lat="42.7389540" lon="-8.6633170">
        <ele>19.5</ele>
        <time>2021-05-23T12:21:36Z</time>
      </trkpt>
      <trkpt lat="42.7389470" lon="-8.6633180">
        <ele>19.5</ele>
        <time>2021-05-23T12:21:37Z</time>
      </trkpt>
      <trkpt lat="42.7389410" lon="-8.6633140">
        <ele>19.5</ele>
        <time>2021-05-23T12:21:38Z</time>
      </trkpt>
      <trkpt lat="42.7389440" lon="-8.6633280">
        <ele>19.5</ele>
        <time>2021-05-23T12:21:39Z</time>
      </trkpt>
      <trkpt lat="42.7389390" lon="-8.6633270">
        <ele>19.5</ele>
        <time>2021-05-23T12:21:40Z</time>
      </trkpt>
      <trkpt lat="42.7389370" lon="-8.6633350">
        <ele>19.5</ele>
        <time>2021-05-23T12:21:41Z</time>
      </trkpt>
      <trkpt lat="42.7389320" lon="-8.6633420">
        <ele>19.5</ele>
        <time>2021-05-23T12:21:42Z</time>
      </trkpt>
      <trkpt lat="42.7389280" lon="-8.6633490">
        <ele>19.5</ele>
        <time>2021-05-23T12:21:43Z</time>
      </trkpt>
      <trkpt lat="42.7389240" lon="-8.6633480">
        <ele>19.5</ele>
        <time>2021-05-23T12:21:44Z</time>
      </trkpt>
      <trkpt lat="42.7389240" lon="-8.6633470">
        <ele>19.5</ele>
        <time>2021-05-23T12:21:45Z</time>
      </trkpt>
      <trkpt lat="42.7389240" lon="-8.6633350">
        <ele>19.5</ele>
        <time>2021-05-23T12:21:46Z</time>
      </trkpt>
      <trkpt lat="42.7389270" lon="-8.6633390">
        <ele>19.5</ele>
        <time>2021-05-23T12:21:47Z</time>
      </trkpt>
      <trkpt lat="42.7389250" lon="-8.6633380">
        <ele>19.5</ele>
        <time>2021-05-23T12:21:48Z</time>
      </trkpt>
      <trkpt lat="42.7389260" lon="-8.6633390">
        <ele>19.5</ele>
        <time>2021-05-23T12:21:49Z</time>
      </trkpt>
      <trkpt lat="42.7389270" lon="-8.6633320">
        <ele>19.5</ele>
        <time>2021-05-23T12:21:50Z</time>
      </trkpt>
      <trkpt lat="42.7389370" lon="-8.6633290">
        <ele>19.5</ele>
        <time>2021-05-23T12:21:51Z</time>
      </trkpt>
      <trkpt lat="42.7389350" lon="-8.6633290">
        <ele>19.5</ele>
        <time>2021-05-23T12:21:52Z</time>
      </trkpt>
      <trkpt lat="42.7389270" lon="-8.6633390">
        <ele>19.5</ele>
        <time>2021-05-23T12:21:53Z</time>
      </trkpt>
      <trkpt lat="42.7389230" lon="-8.6633820">
        <ele>19.5</ele>
        <time>2021-05-23T12:21:54Z</time>
      </trkpt>
      <trkpt lat="42.7389210" lon="-8.6633890">
        <ele>19.5</ele>
        <time>2021-05-23T12:21:55Z</time>
      </trkpt>
      <trkpt lat="42.7389250" lon="-8.6633840">
        <ele>19.5</ele>
        <time>2021-05-23T12:21:56Z</time>
      </trkpt>
      <trkpt lat="42.7389180" lon="-8.6633890">
        <ele>19.5</ele>
        <time>2021-05-23T12:21:57Z</time>
      </trkpt>
      <trkpt lat="42.7388950" lon="-8.6633870">
        <ele>19.5</ele>
        <time>2021-05-23T12:21:58Z</time>
      </trkpt>
      <trkpt lat="42.7388900" lon="-8.6633960">
        <ele>19.5</ele>
        <time>2021-05-23T12:21:59Z</time>
      </trkpt>
      <trkpt lat="42.7389010" lon="-8.6633860">
        <ele>19.5</ele>
        <time>2021-05-23T12:22:00Z</time>
      </trkpt>
      <trkpt lat="42.7388750" lon="-8.6634000">
        <ele>19.5</ele>
        <time>2021-05-23T12:22:01Z</time>
      </trkpt>
      <trkpt lat="42.7388580" lon="-8.6634030">
        <ele>19.5</ele>
        <time>2021-05-23T12:22:02Z</time>
      </trkpt>
      <trkpt lat="42.7388650" lon="-8.6634190">
        <ele>19.5</ele>
        <time>2021-05-23T12:22:03Z</time>
      </trkpt>
      <trkpt lat="42.7388770" lon="-8.6634190">
        <ele>19.5</ele>
        <time>2021-05-23T12:22:04Z</time>
      </trkpt>
      <trkpt lat="42.7388880" lon="-8.6634200">
        <ele>19.5</ele>
        <time>2021-05-23T12:22:05Z</time>
      </trkpt>
      <trkpt lat="42.7389000" lon="-8.6634200">
        <ele>19.5</ele>
        <time>2021-05-23T12:22:06Z</time>
      </trkpt>
      <trkpt lat="42.7389110" lon="-8.6634200">
        <ele>19.5</ele>
        <time>2021-05-23T12:22:07Z</time>
      </trkpt>
      <trkpt lat="42.7389250" lon="-8.6634260">
        <ele>19.5</ele>
        <time>2021-05-23T12:22:08Z</time>
      </trkpt>
      <trkpt lat="42.7389240" lon="-8.6634040">
        <ele>19.5</ele>
        <time>2021-05-23T12:22:09Z</time>
      </trkpt>
      <trkpt lat="42.7389230" lon="-8.6633890">
        <ele>19.5</ele>
        <time>2021-05-23T12:22:10Z</time>
      </trkpt>
      <trkpt lat="42.7389250" lon="-8.6633950">
        <ele>19.5</ele>
        <time>2021-05-23T12:22:11Z</time>
      </trkpt>
      <trkpt lat="42.7389220" lon="-8.6634020">
        <ele>19.5</ele>
        <time>2021-05-23T12:22:12Z</time>
      </trkpt>
      <trkpt lat="42.7389100" lon="-8.6633940">
        <ele>19.5</ele>
        <time>2021-05-23T12:22:13Z</time>
      </trkpt>
      <trkpt lat="42.7389050" lon="-8.6633990">
        <ele>19.5</ele>
        <time>2021-05-23T12:22:15Z</time>
      </trkpt>
      <trkpt lat="42.7389010" lon="-8.6633850">
        <ele>19.5</ele>
        <time>2021-05-23T12:22:16Z</time>
      </trkpt>
      <trkpt lat="42.7388900" lon="-8.6633740">
        <ele>19.5</ele>
        <time>2021-05-23T12:22:17Z</time>
      </trkpt>
      <trkpt lat="42.7388840" lon="-8.6633490">
        <ele>19.5</ele>
        <time>2021-05-23T12:22:18Z</time>
      </trkpt>
      <trkpt lat="42.7388790" lon="-8.6633260">
        <ele>19.5</ele>
        <time>2021-05-23T12:22:19Z</time>
      </trkpt>
      <trkpt lat="42.7388760" lon="-8.6633110">
        <ele>19.5</ele>
        <time>2021-05-23T12:22:20Z</time>
      </trkpt>
      <trkpt lat="42.7388710" lon="-8.6632880">
        <ele>19.5</ele>
        <time>2021-05-23T12:22:21Z</time>
      </trkpt>
      <trkpt lat="42.7388690" lon="-8.6632730">
        <ele>19.5</ele>
        <time>2021-05-23T12:22:22Z</time>
      </trkpt>
      <trkpt lat="42.7388660" lon="-8.6632570">
        <ele>19.5</ele>
        <time>2021-05-23T12:22:23Z</time>
      </trkpt>
      <trkpt lat="42.7388700" lon="-8.6632450">
        <ele>19.5</ele>
        <time>2021-05-23T12:22:24Z</time>
      </trkpt>
      <trkpt lat="42.7388690" lon="-8.6632250">
        <ele>19.5</ele>
        <time>2021-05-23T12:22:25Z</time>
      </trkpt>
      <trkpt lat="42.7388740" lon="-8.6632100">
        <ele>19.5</ele>
        <time>2021-05-23T12:22:26Z</time>
      </trkpt>
      <trkpt lat="42.7388720" lon="-8.6631930">
        <ele>19.5</ele>
        <time>2021-05-23T12:22:27Z</time>
      </trkpt>
      <trkpt lat="42.7388720" lon="-8.6631840">
        <ele>19.5</ele>
        <time>2021-05-23T12:22:28Z</time>
      </trkpt>
      <trkpt lat="42.7388640" lon="-8.6631660">
        <ele>19.5</ele>
        <time>2021-05-23T12:22:29Z</time>
      </trkpt>
      <trkpt lat="42.7388680" lon="-8.6631600">
        <ele>19.5</ele>
        <time>2021-05-23T12:22:30Z</time>
      </trkpt>
      <trkpt lat="42.7388690" lon="-8.6631440">
        <ele>19.5</ele>
        <time>2021-05-23T12:22:31Z</time>
      </trkpt>
      <trkpt lat="42.7388740" lon="-8.6631290">
        <ele>19.5</ele>
        <time>2021-05-23T12:22:32Z</time>
      </trkpt>
      <trkpt lat="42.7388770" lon="-8.6631230">
        <ele>19.5</ele>
        <time>2021-05-23T12:22:33Z</time>
      </trkpt>
      <trkpt lat="42.7388730" lon="-8.6631100">
        <ele>19.5</ele>
        <time>2021-05-23T12:22:34Z</time>
      </trkpt>
      <trkpt lat="42.7388740" lon="-8.6631050">
        <ele>19.5</ele>
        <time>2021-05-23T12:22:35Z</time>
      </trkpt>
      <trkpt lat="42.7388710" lon="-8.6631100">
        <ele>19.5</ele>
        <time>2021-05-23T12:22:36Z</time>
      </trkpt>
      <trkpt lat="42.7388690" lon="-8.6631120">
        <ele>19.5</ele>
        <time>2021-05-23T12:22:37Z</time>
      </trkpt>
      <trkpt lat="42.7388670" lon="-8.6631120">
        <ele>19.5</ele>
        <time>2021-05-23T12:22:38Z</time>
      </trkpt>
      <trkpt lat="42.7388640" lon="-8.6631130">
        <ele>19.5</ele>
        <time>2021-05-23T12:22:39Z</time>
      </trkpt>
      <trkpt lat="42.7388610" lon="-8.6631180">
        <ele>19.5</ele>
        <time>2021-05-23T12:22:40Z</time>
      </trkpt>
      <trkpt lat="42.7388610" lon="-8.6631220">
        <ele>19.5</ele>
        <time>2021-05-23T12:22:41Z</time>
      </trkpt>
      <trkpt lat="42.7388590" lon="-8.6631250">
        <ele>19.5</ele>
        <time>2021-05-23T12:22:42Z</time>
      </trkpt>
      <trkpt lat="42.7388570" lon="-8.6631300">
        <ele>19.5</ele>
        <time>2021-05-23T12:22:43Z</time>
      </trkpt>
      <trkpt lat="42.7388550" lon="-8.6631370">
        <ele>19.5</ele>
        <time>2021-05-23T12:22:44Z</time>
      </trkpt>
      <trkpt lat="42.7388550" lon="-8.6631350">
        <ele>19.5</ele>
        <time>2021-05-23T12:22:45Z</time>
      </trkpt>
      <trkpt lat="42.7388550" lon="-8.6631350">
        <ele>19.5</ele>
        <time>2021-05-23T12:22:46Z</time>
      </trkpt>
      <trkpt lat="42.7388560" lon="-8.6631360">
        <ele>19.5</ele>
        <time>2021-05-23T12:22:47Z</time>
      </trkpt>
      <trkpt lat="42.7388610" lon="-8.6631380">
        <ele>19.5</ele>
        <time>2021-05-23T12:22:48Z</time>
      </trkpt>
      <trkpt lat="42.7388610" lon="-8.6631360">
        <ele>19.5</ele>
        <time>2021-05-23T12:22:49Z</time>
      </trkpt>
      <trkpt lat="42.7388580" lon="-8.6631370">
        <ele>19.5</ele>
        <time>2021-05-23T12:22:50Z</time>
      </trkpt>
      <trkpt lat="42.7388580" lon="-8.6631380">
        <ele>19.5</ele>
        <time>2021-05-23T12:22:51Z</time>
      </trkpt>
      <trkpt lat="42.7388580" lon="-8.6631380">
        <ele>19.5</ele>
        <time>2021-05-23T12:22:52Z</time>
      </trkpt>
      <trkpt lat="42.7388550" lon="-8.6631370">
        <ele>19.5</ele>
        <time>2021-05-23T12:22:53Z</time>
      </trkpt>
      <trkpt lat="42.7388560" lon="-8.6631320">
        <ele>19.5</ele>
        <time>2021-05-23T12:22:54Z</time>
      </trkpt>
      <trkpt lat="42.7388650" lon="-8.6631280">
        <ele>19.5</ele>
        <time>2021-05-23T12:22:55Z</time>
      </trkpt>
      <trkpt lat="42.7388710" lon="-8.6631240">
        <ele>19.5</ele>
        <time>2021-05-23T12:22:56Z</time>
      </trkpt>
      <trkpt lat="42.7388740" lon="-8.6631250">
        <ele>19.5</ele>
        <time>2021-05-23T12:22:57Z</time>
      </trkpt>
      <trkpt lat="42.7388800" lon="-8.6631270">
        <ele>19.5</ele>
        <time>2021-05-23T12:22:58Z</time>
      </trkpt>
      <trkpt lat="42.7388870" lon="-8.6631290">
        <ele>19.5</ele>
        <time>2021-05-23T12:22:59Z</time>
      </trkpt>
      <trkpt lat="42.7388930" lon="-8.6631240">
        <ele>19.5</ele>
        <time>2021-05-23T12:23:00Z</time>
      </trkpt>
      <trkpt lat="42.7389000" lon="-8.6631190">
        <ele>19.5</ele>
        <time>2021-05-23T12:23:01Z</time>
      </trkpt>
      <trkpt lat="42.7389010" lon="-8.6631190">
        <ele>19.5</ele>
        <time>2021-05-23T12:23:02Z</time>
      </trkpt>
      <trkpt lat="42.7389100" lon="-8.6631270">
        <ele>19.5</ele>
        <time>2021-05-23T12:23:03Z</time>
      </trkpt>
      <trkpt lat="42.7389160" lon="-8.6631250">
        <ele>19.5</ele>
        <time>2021-05-23T12:23:04Z</time>
      </trkpt>
      <trkpt lat="42.7389170" lon="-8.6631230">
        <ele>19.5</ele>
        <time>2021-05-23T12:23:05Z</time>
      </trkpt>
      <trkpt lat="42.7389220" lon="-8.6631290">
        <ele>19.5</ele>
        <time>2021-05-23T12:23:06Z</time>
      </trkpt>
      <trkpt lat="42.7389270" lon="-8.6631330">
        <ele>19.5</ele>
        <time>2021-05-23T12:23:07Z</time>
      </trkpt>
      <trkpt lat="42.7389230" lon="-8.6631330">
        <ele>19.5</ele>
        <time>2021-05-23T12:23:08Z</time>
      </trkpt>
      <trkpt lat="42.7389190" lon="-8.6631320">
        <ele>19.5</ele>
        <time>2021-05-23T12:23:09Z</time>
      </trkpt>
      <trkpt lat="42.7389220" lon="-8.6631260">
        <ele>19.5</ele>
        <time>2021-05-23T12:23:10Z</time>
      </trkpt>
      <trkpt lat="42.7389260" lon="-8.6631250">
        <ele>19.5</ele>
        <time>2021-05-23T12:23:11Z</time>
      </trkpt>
      <trkpt lat="42.7389330" lon="-8.6631340">
        <ele>19.5</ele>
        <time>2021-05-23T12:23:12Z</time>
      </trkpt>
      <trkpt lat="42.7389340" lon="-8.6631300">
        <ele>19.5</ele>
        <time>2021-05-23T12:23:13Z</time>
      </trkpt>
      <trkpt lat="42.7389340" lon="-8.6631260">
        <ele>19.5</ele>
        <time>2021-05-23T12:23:14Z</time>
      </trkpt>
      <trkpt lat="42.7389330" lon="-8.6631290">
        <ele>19.5</ele>
        <time>2021-05-23T12:23:15Z</time>
      </trkpt>
      <trkpt lat="42.7389380" lon="-8.6631290">
        <ele>19.5</ele>
        <time>2021-05-23T12:23:16Z</time>
      </trkpt>
      <trkpt lat="42.7389400" lon="-8.6631210">
        <ele>19.5</ele>
        <time>2021-05-23T12:23:17Z</time>
      </trkpt>
      <trkpt lat="42.7389430" lon="-8.6631190">
        <ele>19.5</ele>
        <time>2021-05-23T12:23:18Z</time>
      </trkpt>
      <trkpt lat="42.7389440" lon="-8.6631160">
        <ele>19.5</ele>
        <time>2021-05-23T12:23:19Z</time>
      </trkpt>
      <trkpt lat="42.7389450" lon="-8.6631130">
        <ele>19.5</ele>
        <time>2021-05-23T12:23:20Z</time>
      </trkpt>
      <trkpt lat="42.7389490" lon="-8.6631130">
        <ele>19.5</ele>
        <time>2021-05-23T12:23:21Z</time>
      </trkpt>
      <trkpt lat="42.7389500" lon="-8.6631150">
        <ele>19.5</ele>
        <time>2021-05-23T12:23:22Z</time>
      </trkpt>
      <trkpt lat="42.7389480" lon="-8.6631280">
        <ele>19.5</ele>
        <time>2021-05-23T12:23:23Z</time>
      </trkpt>
      <trkpt lat="42.7389470" lon="-8.6631370">
        <ele>19.5</ele>
        <time>2021-05-23T12:23:24Z</time>
      </trkpt>
      <trkpt lat="42.7389470" lon="-8.6631370">
        <ele>19.5</ele>
        <time>2021-05-23T12:23:25Z</time>
      </trkpt>
      <trkpt lat="42.7389470" lon="-8.6631370">
        <ele>19.5</ele>
        <time>2021-05-23T12:23:26Z</time>
      </trkpt>
      <trkpt lat="42.7389480" lon="-8.6631390">
        <ele>19.5</ele>
        <time>2021-05-23T12:23:27Z</time>
      </trkpt>
      <trkpt lat="42.7389510" lon="-8.6631400">
        <ele>19.5</ele>
        <time>2021-05-23T12:23:28Z</time>
      </trkpt>
      <trkpt lat="42.7389530" lon="-8.6631390">
        <ele>19.5</ele>
        <time>2021-05-23T12:23:29Z</time>
      </trkpt>
      <trkpt lat="42.7389570" lon="-8.6631410">
        <ele>19.5</ele>
        <time>2021-05-23T12:23:30Z</time>
      </trkpt>
      <trkpt lat="42.7389570" lon="-8.6631410">
        <ele>19.5</ele>
        <time>2021-05-23T12:23:31Z</time>
      </trkpt>
      <trkpt lat="42.7389540" lon="-8.6631420">
        <ele>19.5</ele>
        <time>2021-05-23T12:23:32Z</time>
      </trkpt>
      <trkpt lat="42.7389550" lon="-8.6631470">
        <ele>19.5</ele>
        <time>2021-05-23T12:23:33Z</time>
      </trkpt>
      <trkpt lat="42.7389560" lon="-8.6631480">
        <ele>19.5</ele>
        <time>2021-05-23T12:23:34Z</time>
      </trkpt>
      <trkpt lat="42.7389540" lon="-8.6631550">
        <ele>19.5</ele>
        <time>2021-05-23T12:23:35Z</time>
      </trkpt>
      <trkpt lat="42.7389480" lon="-8.6631560">
        <ele>19.5</ele>
        <time>2021-05-23T12:23:36Z</time>
      </trkpt>
      <trkpt lat="42.7389450" lon="-8.6631520">
        <ele>19.5</ele>
        <time>2021-05-23T12:23:37Z</time>
      </trkpt>
      <trkpt lat="42.7389530" lon="-8.6631550">
        <ele>19.5</ele>
        <time>2021-05-23T12:23:38Z</time>
      </trkpt>
      <trkpt lat="42.7389530" lon="-8.6631540">
        <ele>19.5</ele>
        <time>2021-05-23T12:23:39Z</time>
      </trkpt>
      <trkpt lat="42.7389500" lon="-8.6631560">
        <ele>19.5</ele>
        <time>2021-05-23T12:23:40Z</time>
      </trkpt>
      <trkpt lat="42.7389510" lon="-8.6631530">
        <ele>19.5</ele>
        <time>2021-05-23T12:23:41Z</time>
      </trkpt>
      <trkpt lat="42.7389550" lon="-8.6631550">
        <ele>19.5</ele>
        <time>2021-05-23T12:23:42Z</time>
      </trkpt>
      <trkpt lat="42.7389570" lon="-8.6631560">
        <ele>19.5</ele>
        <time>2021-05-23T12:23:43Z</time>
      </trkpt>
      <trkpt lat="42.7389580" lon="-8.6631510">
        <ele>19.5</ele>
        <time>2021-05-23T12:23:44Z</time>
      </trkpt>
      <trkpt lat="42.7389540" lon="-8.6631470">
        <ele>19.5</ele>
        <time>2021-05-23T12:23:45Z</time>
      </trkpt>
      <trkpt lat="42.7389490" lon="-8.6631450">
        <ele>19.5</ele>
        <time>2021-05-23T12:23:46Z</time>
      </trkpt>
      <trkpt lat="42.7389440" lon="-8.6631400">
        <ele>19.5</ele>
        <time>2021-05-23T12:23:47Z</time>
      </trkpt>
      <trkpt lat="42.7389410" lon="-8.6631420">
        <ele>19.5</ele>
        <time>2021-05-23T12:23:48Z</time>
      </trkpt>
      <trkpt lat="42.7389450" lon="-8.6631490">
        <ele>19.5</ele>
        <time>2021-05-23T12:23:49Z</time>
      </trkpt>
      <trkpt lat="42.7389490" lon="-8.6631530">
        <ele>19.5</ele>
        <time>2021-05-23T12:23:50Z</time>
      </trkpt>
      <trkpt lat="42.7389460" lon="-8.6631510">
        <ele>19.5</ele>
        <time>2021-05-23T12:23:51Z</time>
      </trkpt>
      <trkpt lat="42.7389460" lon="-8.6631510">
        <ele>19.5</ele>
        <time>2021-05-23T12:23:52Z</time>
      </trkpt>
      <trkpt lat="42.7389360" lon="-8.6631420">
        <ele>19.5</ele>
        <time>2021-05-23T12:23:53Z</time>
      </trkpt>
      <trkpt lat="42.7389350" lon="-8.6631420">
        <ele>19.5</ele>
        <time>2021-05-23T12:23:54Z</time>
      </trkpt>
      <trkpt lat="42.7389340" lon="-8.6631420">
        <ele>19.5</ele>
        <time>2021-05-23T12:23:55Z</time>
      </trkpt>
      <trkpt lat="42.7389330" lon="-8.6631380">
        <ele>19.5</ele>
        <time>2021-05-23T12:23:57Z</time>
      </trkpt>
      <trkpt lat="42.7389330" lon="-8.6631390">
        <ele>19.5</ele>
        <time>2021-05-23T12:23:58Z</time>
      </trkpt>
      <trkpt lat="42.7389340" lon="-8.6631440">
        <ele>19.5</ele>
        <time>2021-05-23T12:23:59Z</time>
      </trkpt>
      <trkpt lat="42.7389380" lon="-8.6631460">
        <ele>19.5</ele>
        <time>2021-05-23T12:24:00Z</time>
      </trkpt>
      <trkpt lat="42.7389390" lon="-8.6631450">
        <ele>19.5</ele>
        <time>2021-05-23T12:24:01Z</time>
      </trkpt>
      <trkpt lat="42.7389380" lon="-8.6631470">
        <ele>19.5</ele>
        <time>2021-05-23T12:24:02Z</time>
      </trkpt>
      <trkpt lat="42.7389340" lon="-8.6631410">
        <ele>19.5</ele>
        <time>2021-05-23T12:24:03Z</time>
      </trkpt>
      <trkpt lat="42.7389330" lon="-8.6631390">
        <ele>19.5</ele>
        <time>2021-05-23T12:24:04Z</time>
      </trkpt>
      <trkpt lat="42.7389300" lon="-8.6631350">
        <ele>19.5</ele>
        <time>2021-05-23T12:24:05Z</time>
      </trkpt>
      <trkpt lat="42.7389320" lon="-8.6631370">
        <ele>19.5</ele>
        <time>2021-05-23T12:24:06Z</time>
      </trkpt>
      <trkpt lat="42.7389370" lon="-8.6631350">
        <ele>19.5</ele>
        <time>2021-05-23T12:24:07Z</time>
      </trkpt>
      <trkpt lat="42.7389410" lon="-8.6631330">
        <ele>19.5</ele>
        <time>2021-05-23T12:24:08Z</time>
      </trkpt>
      <trkpt lat="42.7389460" lon="-8.6631310">
        <ele>19.5</ele>
        <time>2021-05-23T12:24:09Z</time>
      </trkpt>
      <trkpt lat="42.7389500" lon="-8.6631280">
        <ele>19.5</ele>
        <time>2021-05-23T12:24:10Z</time>
      </trkpt>
      <trkpt lat="42.7389550" lon="-8.6631260">
        <ele>19.5</ele>
        <time>2021-05-23T12:24:11Z</time>
      </trkpt>
      <trkpt lat="42.7389590" lon="-8.6631240">
        <ele>19.5</ele>
        <time>2021-05-23T12:24:12Z</time>
      </trkpt>
      <trkpt lat="42.7389640" lon="-8.6631220">
        <ele>19.5</ele>
        <time>2021-05-23T12:24:13Z</time>
      </trkpt>
      <trkpt lat="42.7389680" lon="-8.6631200">
        <ele>19.5</ele>
        <time>2021-05-23T12:24:14Z</time>
      </trkpt>
      <trkpt lat="42.7389700" lon="-8.6631200">
        <ele>19.5</ele>
        <time>2021-05-23T12:24:15Z</time>
      </trkpt>
      <trkpt lat="42.7389750" lon="-8.6631190">
        <ele>19.5</ele>
        <time>2021-05-23T12:24:16Z</time>
      </trkpt>
      <trkpt lat="42.7389840" lon="-8.6631140">
        <ele>19.5</ele>
        <time>2021-05-23T12:24:17Z</time>
      </trkpt>
      <trkpt lat="42.7389960" lon="-8.6631100">
        <ele>19.5</ele>
        <time>2021-05-23T12:24:18Z</time>
      </trkpt>
      <trkpt lat="42.7390050" lon="-8.6631030">
        <ele>19.5</ele>
        <time>2021-05-23T12:24:19Z</time>
      </trkpt>
      <trkpt lat="42.7390090" lon="-8.6631010">
        <ele>19.5</ele>
        <time>2021-05-23T12:24:20Z</time>
      </trkpt>
      <trkpt lat="42.7390130" lon="-8.6630990">
        <ele>19.5</ele>
        <time>2021-05-23T12:24:21Z</time>
      </trkpt>
      <trkpt lat="42.7390200" lon="-8.6630970">
        <ele>19.5</ele>
        <time>2021-05-23T12:24:22Z</time>
      </trkpt>
      <trkpt lat="42.7390270" lon="-8.6630900">
        <ele>19.5</ele>
        <time>2021-05-23T12:24:23Z</time>
      </trkpt>
      <trkpt lat="42.7390340" lon="-8.6630860">
        <ele>19.5</ele>
        <time>2021-05-23T12:24:24Z</time>
      </trkpt>
      <trkpt lat="42.7390320" lon="-8.6630860">
        <ele>19.5</ele>
        <time>2021-05-23T12:24:25Z</time>
      </trkpt>
      <trkpt lat="42.7390310" lon="-8.6630840">
        <ele>19.5</ele>
        <time>2021-05-23T12:24:26Z</time>
      </trkpt>
      <trkpt lat="42.7390270" lon="-8.6630800">
        <ele>19.5</ele>
        <time>2021-05-23T12:24:27Z</time>
      </trkpt>
      <trkpt lat="42.7390270" lon="-8.6630830">
        <ele>19.5</ele>
        <time>2021-05-23T12:24:28Z</time>
      </trkpt>
      <trkpt lat="42.7390260" lon="-8.6630800">
        <ele>19.5</ele>
        <time>2021-05-23T12:24:29Z</time>
      </trkpt>
      <trkpt lat="42.7390280" lon="-8.6630820">
        <ele>19.5</ele>
        <time>2021-05-23T12:24:30Z</time>
      </trkpt>
      <trkpt lat="42.7390300" lon="-8.6630830">
        <ele>19.5</ele>
        <time>2021-05-23T12:24:31Z</time>
      </trkpt>
      <trkpt lat="42.7390280" lon="-8.6630790">
        <ele>19.5</ele>
        <time>2021-05-23T12:24:32Z</time>
      </trkpt>
      <trkpt lat="42.7390270" lon="-8.6630760">
        <ele>19.5</ele>
        <time>2021-05-23T12:24:33Z</time>
      </trkpt>
      <trkpt lat="42.7390270" lon="-8.6630740">
        <ele>19.5</ele>
        <time>2021-05-23T12:24:34Z</time>
      </trkpt>
      <trkpt lat="42.7390220" lon="-8.6630720">
        <ele>19.5</ele>
        <time>2021-05-23T12:24:35Z</time>
      </trkpt>
      <trkpt lat="42.7390190" lon="-8.6630700">
        <ele>19.5</ele>
        <time>2021-05-23T12:24:36Z</time>
      </trkpt>
      <trkpt lat="42.7390180" lon="-8.6630690">
        <ele>19.5</ele>
        <time>2021-05-23T12:24:37Z</time>
      </trkpt>
      <trkpt lat="42.7390180" lon="-8.6630680">
        <ele>19.5</ele>
        <time>2021-05-23T12:24:38Z</time>
      </trkpt>
      <trkpt lat="42.7390170" lon="-8.6630650">
        <ele>19.5</ele>
        <time>2021-05-23T12:24:39Z</time>
      </trkpt>
      <trkpt lat="42.7390140" lon="-8.6630630">
        <ele>19.5</ele>
        <time>2021-05-23T12:24:40Z</time>
      </trkpt>
      <trkpt lat="42.7390110" lon="-8.6630680">
        <ele>19.5</ele>
        <time>2021-05-23T12:24:41Z</time>
      </trkpt>
      <trkpt lat="42.7389960" lon="-8.6630720">
        <ele>19.5</ele>
        <time>2021-05-23T12:24:42Z</time>
      </trkpt>
      <trkpt lat="42.7389890" lon="-8.6630690">
        <ele>19.5</ele>
        <time>2021-05-23T12:24:43Z</time>
      </trkpt>
      <trkpt lat="42.7389790" lon="-8.6630680">
        <ele>19.5</ele>
        <time>2021-05-23T12:24:44Z</time>
      </trkpt>
      <trkpt lat="42.7389760" lon="-8.6630680">
        <ele>19.5</ele>
        <time>2021-05-23T12:24:45Z</time>
      </trkpt>
      <trkpt lat="42.7389710" lon="-8.6630720">
        <ele>19.5</ele>
        <time>2021-05-23T12:24:46Z</time>
      </trkpt>
      <trkpt lat="42.7389600" lon="-8.6630750">
        <ele>19.5</ele>
        <time>2021-05-23T12:24:47Z</time>
      </trkpt>
      <trkpt lat="42.7389490" lon="-8.6630830">
        <ele>19.5</ele>
        <time>2021-05-23T12:24:48Z</time>
      </trkpt>
      <trkpt lat="42.7389470" lon="-8.6630850">
        <ele>19.5</ele>
        <time>2021-05-23T12:24:49Z</time>
      </trkpt>
      <trkpt lat="42.7389460" lon="-8.6630880">
        <ele>19.5</ele>
        <time>2021-05-23T12:24:50Z</time>
      </trkpt>
      <trkpt lat="42.7389440" lon="-8.6630900">
        <ele>19.5</ele>
        <time>2021-05-23T12:24:51Z</time>
      </trkpt>
      <trkpt lat="42.7389430" lon="-8.6630930">
        <ele>19.5</ele>
        <time>2021-05-23T12:24:52Z</time>
      </trkpt>
      <trkpt lat="42.7389410" lon="-8.6630950">
        <ele>19.5</ele>
        <time>2021-05-23T12:24:53Z</time>
      </trkpt>
      <trkpt lat="42.7389400" lon="-8.6630980">
        <ele>19.5</ele>
        <time>2021-05-23T12:24:54Z</time>
      </trkpt>
      <trkpt lat="42.7389380" lon="-8.6631000">
        <ele>19.5</ele>
        <time>2021-05-23T12:24:55Z</time>
      </trkpt>
      <trkpt lat="42.7389370" lon="-8.6631030">
        <ele>19.5</ele>
        <time>2021-05-23T12:24:56Z</time>
      </trkpt>
      <trkpt lat="42.7389350" lon="-8.6631050">
        <ele>19.5</ele>
        <time>2021-05-23T12:24:57Z</time>
      </trkpt>
      <trkpt lat="42.7389340" lon="-8.6631080">
        <ele>19.5</ele>
        <time>2021-05-23T12:24:58Z</time>
      </trkpt>
      <trkpt lat="42.7389320" lon="-8.6631100">
        <ele>19.5</ele>
        <time>2021-05-23T12:24:59Z</time>
      </trkpt>
      <trkpt lat="42.7389310" lon="-8.6631130">
        <ele>19.5</ele>
        <time>2021-05-23T12:25:00Z</time>
      </trkpt>
      <trkpt lat="42.7389240" lon="-8.6631150">
        <ele>19.5</ele>
        <time>2021-05-23T12:25:01Z</time>
      </trkpt>
      <trkpt lat="42.7389140" lon="-8.6631170">
        <ele>19.5</ele>
        <time>2021-05-23T12:25:02Z</time>
      </trkpt>
      <trkpt lat="42.7389050" lon="-8.6631290">
        <ele>19.5</ele>
        <time>2021-05-23T12:25:03Z</time>
      </trkpt>
      <trkpt lat="42.7388960" lon="-8.6631370">
        <ele>19.5</ele>
        <time>2021-05-23T12:25:04Z</time>
      </trkpt>
      <trkpt lat="42.7388930" lon="-8.6631350">
        <ele>19.5</ele>
        <time>2021-05-23T12:25:05Z</time>
      </trkpt>
      <trkpt lat="42.7388960" lon="-8.6631340">
        <ele>19.5</ele>
        <time>2021-05-23T12:25:06Z</time>
      </trkpt>
      <trkpt lat="42.7388930" lon="-8.6631330">
        <ele>19.5</ele>
        <time>2021-05-23T12:25:07Z</time>
      </trkpt>
      <trkpt lat="42.7388990" lon="-8.6631370">
        <ele>19.5</ele>
        <time>2021-05-23T12:25:08Z</time>
      </trkpt>
      <trkpt lat="42.7388980" lon="-8.6631400">
        <ele>19.5</ele>
        <time>2021-05-23T12:25:09Z</time>
      </trkpt>
      <trkpt lat="42.7388990" lon="-8.6631440">
        <ele>19.5</ele>
        <time>2021-05-23T12:25:10Z</time>
      </trkpt>
      <trkpt lat="42.7388980" lon="-8.6631390">
        <ele>19.5</ele>
        <time>2021-05-23T12:25:11Z</time>
      </trkpt>
      <trkpt lat="42.7389000" lon="-8.6631380">
        <ele>19.5</ele>
        <time>2021-05-23T12:25:12Z</time>
      </trkpt>
      <trkpt lat="42.7389000" lon="-8.6631400">
        <ele>19.5</ele>
        <time>2021-05-23T12:25:13Z</time>
      </trkpt>
      <trkpt lat="42.7389010" lon="-8.6631420">
        <ele>19.5</ele>
        <time>2021-05-23T12:25:14Z</time>
      </trkpt>
      <trkpt lat="42.7389010" lon="-8.6631420">
        <ele>19.5</ele>
        <time>2021-05-23T12:25:15Z</time>
      </trkpt>
      <trkpt lat="42.7388970" lon="-8.6631460">
        <ele>19.5</ele>
        <time>2021-05-23T12:25:16Z</time>
      </trkpt>
      <trkpt lat="42.7388930" lon="-8.6631450">
        <ele>19.5</ele>
        <time>2021-05-23T12:25:17Z</time>
      </trkpt>
      <trkpt lat="42.7388920" lon="-8.6631420">
        <ele>19.5</ele>
        <time>2021-05-23T12:25:18Z</time>
      </trkpt>
      <trkpt lat="42.7388880" lon="-8.6631420">
        <ele>19.5</ele>
        <time>2021-05-23T12:25:19Z</time>
      </trkpt>
      <trkpt lat="42.7388860" lon="-8.6631440">
        <ele>19.5</ele>
        <time>2021-05-23T12:25:20Z</time>
      </trkpt>
      <trkpt lat="42.7388840" lon="-8.6631430">
        <ele>19.5</ele>
        <time>2021-05-23T12:25:21Z</time>
      </trkpt>
      <trkpt lat="42.7388830" lon="-8.6631450">
        <ele>19.5</ele>
        <time>2021-05-23T12:25:22Z</time>
      </trkpt>
      <trkpt lat="42.7388830" lon="-8.6631480">
        <ele>19.5</ele>
        <time>2021-05-23T12:25:23Z</time>
      </trkpt>
      <trkpt lat="42.7388900" lon="-8.6631500">
        <ele>19.5</ele>
        <time>2021-05-23T12:25:24Z</time>
      </trkpt>
      <trkpt lat="42.7388790" lon="-8.6631480">
        <ele>19.5</ele>
        <time>2021-05-23T12:25:25Z</time>
      </trkpt>
      <trkpt lat="42.7388790" lon="-8.6631510">
        <ele>19.5</ele>
        <time>2021-05-23T12:25:26Z</time>
      </trkpt>
      <trkpt lat="42.7388780" lon="-8.6631580">
        <ele>19.5</ele>
        <time>2021-05-23T12:25:27Z</time>
      </trkpt>
      <trkpt lat="42.7388770" lon="-8.6631660">
        <ele>19.5</ele>
        <time>2021-05-23T12:25:28Z</time>
      </trkpt>
      <trkpt lat="42.7388760" lon="-8.6631730">
        <ele>19.5</ele>
        <time>2021-05-23T12:25:29Z</time>
      </trkpt>
      <trkpt lat="42.7388750" lon="-8.6631800">
        <ele>19.5</ele>
        <time>2021-05-23T12:25:30Z</time>
      </trkpt>
      <trkpt lat="42.7388740" lon="-8.6631870">
        <ele>19.5</ele>
        <time>2021-05-23T12:25:31Z</time>
      </trkpt>
      <trkpt lat="42.7388730" lon="-8.6631940">
        <ele>19.5</ele>
        <time>2021-05-23T12:25:32Z</time>
      </trkpt>
      <trkpt lat="42.7388720" lon="-8.6632020">
        <ele>19.5</ele>
        <time>2021-05-23T12:25:33Z</time>
      </trkpt>
      <trkpt lat="42.7388710" lon="-8.6632090">
        <ele>19.5</ele>
        <time>2021-05-23T12:25:34Z</time>
      </trkpt>
      <trkpt lat="42.7388700" lon="-8.6632160">
        <ele>19.5</ele>
        <time>2021-05-23T12:25:35Z</time>
      </trkpt>
      <trkpt lat="42.7388690" lon="-8.6632230">
        <ele>19.5</ele>
        <time>2021-05-23T12:25:36Z</time>
      </trkpt>
      <trkpt lat="42.7388680" lon="-8.6632300">
        <ele>19.5</ele>
        <time>2021-05-23T12:25:37Z</time>
      </trkpt>
      <trkpt lat="42.7388670" lon="-8.6632380">
        <ele>19.5</ele>
        <time>2021-05-23T12:25:38Z</time>
      </trkpt>
      <trkpt lat="42.7388660" lon="-8.6632450">
        <ele>19.5</ele>
        <time>2021-05-23T12:25:39Z</time>
      </trkpt>
      <trkpt lat="42.7388650" lon="-8.6632520">
        <ele>19.5</ele>
        <time>2021-05-23T12:25:40Z</time>
      </trkpt>
      <trkpt lat="42.7388640" lon="-8.6632590">
        <ele>19.5</ele>
        <time>2021-05-23T12:25:41Z</time>
      </trkpt>
      <trkpt lat="42.7388630" lon="-8.6632660">
        <ele>19.5</ele>
        <time>2021-05-23T12:25:42Z</time>
      </trkpt>
      <trkpt lat="42.7388620" lon="-8.6632740">
        <ele>19.5</ele>
        <time>2021-05-23T12:25:43Z</time>
      </trkpt>
      <trkpt lat="42.7388610" lon="-8.6632810">
        <ele>19.5</ele>
        <time>2021-05-23T12:25:44Z</time>
      </trkpt>
      <trkpt lat="42.7388600" lon="-8.6632880">
        <ele>19.5</ele>
        <time>2021-05-23T12:25:45Z</time>
      </trkpt>
      <trkpt lat="42.7388590" lon="-8.6632930">
        <ele>19.5</ele>
        <time>2021-05-23T12:25:46Z</time>
      </trkpt>
      <trkpt lat="42.7388520" lon="-8.6633120">
        <ele>19.5</ele>
        <time>2021-05-23T12:25:47Z</time>
      </trkpt>
      <trkpt lat="42.7388430" lon="-8.6633150">
        <ele>19.5</ele>
        <time>2021-05-23T12:25:48Z</time>
      </trkpt>
      <trkpt lat="42.7388360" lon="-8.6633100">
        <ele>19.5</ele>
        <time>2021-05-23T12:25:49Z</time>
      </trkpt>
      <trkpt lat="42.7388300" lon="-8.6633030">
        <ele>19.5</ele>
        <time>2021-05-23T12:25:50Z</time>
      </trkpt>
      <trkpt lat="42.7388230" lon="-8.6633020">
        <ele>19.5</ele>
        <time>2021-05-23T12:25:51Z</time>
      </trkpt>
      <trkpt lat="42.7388150" lon="-8.6632980">
        <ele>19.5</ele>
        <time>2021-05-23T12:25:52Z</time>
      </trkpt>
      <trkpt lat="42.7388100" lon="-8.6632940">
        <ele>19.4</ele>
        <time>2021-05-23T12:25:53Z</time>
      </trkpt>
      <trkpt lat="42.7387970" lon="-8.6632970">
        <ele>19.2</ele>
        <time>2021-05-23T12:25:54Z</time>
      </trkpt>
      <trkpt lat="42.7387910" lon="-8.6632950">
        <ele>19.2</ele>
        <time>2021-05-23T12:25:55Z</time>
      </trkpt>
      <trkpt lat="42.7387910" lon="-8.6632910">
        <ele>19.2</ele>
        <time>2021-05-23T12:25:56Z</time>
      </trkpt>
      <trkpt lat="42.7387760" lon="-8.6632880">
        <ele>19.0</ele>
        <time>2021-05-23T12:25:57Z</time>
      </trkpt>
      <trkpt lat="42.7387620" lon="-8.6633060">
        <ele>18.8</ele>
        <time>2021-05-23T12:25:58Z</time>
      </trkpt>
      <trkpt lat="42.7387510" lon="-8.6633040">
        <ele>18.7</ele>
        <time>2021-05-23T12:25:59Z</time>
      </trkpt>
      <trkpt lat="42.7387370" lon="-8.6633010">
        <ele>18.6</ele>
        <time>2021-05-23T12:26:00Z</time>
      </trkpt>
      <trkpt lat="42.7387250" lon="-8.6632970">
        <ele>18.4</ele>
        <time>2021-05-23T12:26:01Z</time>
      </trkpt>
      <trkpt lat="42.7387160" lon="-8.6632950">
        <ele>18.3</ele>
        <time>2021-05-23T12:26:02Z</time>
      </trkpt>
      <trkpt lat="42.7387050" lon="-8.6632920">
        <ele>18.2</ele>
        <time>2021-05-23T12:26:03Z</time>
      </trkpt>
      <trkpt lat="42.7387070" lon="-8.6632720">
        <ele>18.0</ele>
        <time>2021-05-23T12:26:04Z</time>
      </trkpt>
      <trkpt lat="42.7387090" lon="-8.6632590">
        <ele>17.9</ele>
        <time>2021-05-23T12:26:05Z</time>
      </trkpt>
      <trkpt lat="42.7387200" lon="-8.6632380">
        <ele>17.7</ele>
        <time>2021-05-23T12:26:06Z</time>
      </trkpt>
      <trkpt lat="42.7387220" lon="-8.6632250">
        <ele>17.6</ele>
        <time>2021-05-23T12:26:07Z</time>
      </trkpt>
      <trkpt lat="42.7387250" lon="-8.6632130">
        <ele>17.5</ele>
        <time>2021-05-23T12:26:08Z</time>
      </trkpt>
      <trkpt lat="42.7387320" lon="-8.6631970">
        <ele>17.3</ele>
        <time>2021-05-23T12:26:09Z</time>
      </trkpt>
      <trkpt lat="42.7387430" lon="-8.6631810">
        <ele>17.1</ele>
        <time>2021-05-23T12:26:10Z</time>
      </trkpt>
      <trkpt lat="42.7387570" lon="-8.6631720">
        <ele>17.0</ele>
        <time>2021-05-23T12:26:11Z</time>
      </trkpt>
      <trkpt lat="42.7387600" lon="-8.6631630">
        <ele>16.9</ele>
        <time>2021-05-23T12:26:12Z</time>
      </trkpt>
      <trkpt lat="42.7387690" lon="-8.6631510">
        <ele>16.8</ele>
        <time>2021-05-23T12:26:13Z</time>
      </trkpt>
      <trkpt lat="42.7387730" lon="-8.6631420">
        <ele>16.7</ele>
        <time>2021-05-23T12:26:14Z</time>
      </trkpt>
      <trkpt lat="42.7387830" lon="-8.6631280">
        <ele>16.6</ele>
        <time>2021-05-23T12:26:15Z</time>
      </trkpt>
      <trkpt lat="42.7387870" lon="-8.6631230">
        <ele>16.5</ele>
        <time>2021-05-23T12:26:16Z</time>
      </trkpt>
      <trkpt lat="42.7387950" lon="-8.6631140">
        <ele>16.4</ele>
        <time>2021-05-23T12:26:17Z</time>
      </trkpt>
      <trkpt lat="42.7388010" lon="-8.6631050">
        <ele>16.4</ele>
        <time>2021-05-23T12:26:18Z</time>
      </trkpt>
      <trkpt lat="42.7388070" lon="-8.6630960">
        <ele>16.3</ele>
        <time>2021-05-23T12:26:19Z</time>
      </trkpt>
      <trkpt lat="42.7388130" lon="-8.6630870">
        <ele>16.2</ele>
        <time>2021-05-23T12:26:20Z</time>
      </trkpt>
      <trkpt lat="42.7388250" lon="-8.6630780">
        <ele>16.1</ele>
        <time>2021-05-23T12:26:21Z</time>
      </trkpt>
      <trkpt lat="42.7388290" lon="-8.6630690">
        <ele>16.0</ele>
        <time>2021-05-23T12:26:22Z</time>
      </trkpt>
      <trkpt lat="42.7388350" lon="-8.6630610">
        <ele>16.0</ele>
        <time>2021-05-23T12:26:23Z</time>
      </trkpt>
      <trkpt lat="42.7388420" lon="-8.6630490">
        <ele>15.9</ele>
        <time>2021-05-23T12:26:24Z</time>
      </trkpt>
      <trkpt lat="42.7388460" lon="-8.6630240">
        <ele>15.8</ele>
        <time>2021-05-23T12:26:25Z</time>
      </trkpt>
      <trkpt lat="42.7388490" lon="-8.6630120">
        <ele>15.7</ele>
        <time>2021-05-23T12:26:26Z</time>
      </trkpt>
      <trkpt lat="42.7388500" lon="-8.6630030">
        <ele>15.7</ele>
        <time>2021-05-23T12:26:27Z</time>
      </trkpt>
      <trkpt lat="42.7388550" lon="-8.6630040">
        <ele>15.6</ele>
        <time>2021-05-23T12:26:28Z</time>
      </trkpt>
      <trkpt lat="42.7388630" lon="-8.6630010">
        <ele>15.6</ele>
        <time>2021-05-23T12:26:29Z</time>
      </trkpt>
      <trkpt lat="42.7388710" lon="-8.6629900">
        <ele>15.5</ele>
        <time>2021-05-23T12:26:30Z</time>
      </trkpt>
      <trkpt lat="42.7388840" lon="-8.6629710">
        <ele>15.1</ele>
        <time>2021-05-23T12:26:31Z</time>
      </trkpt>
      <trkpt lat="42.7388890" lon="-8.6629620">
        <ele>14.9</ele>
        <time>2021-05-23T12:26:33Z</time>
      </trkpt>
      <trkpt lat="42.7388960" lon="-8.6629660">
        <ele>14.8</ele>
        <time>2021-05-23T12:26:34Z</time>
      </trkpt>
      <trkpt lat="42.7389040" lon="-8.6629520">
        <ele>14.5</ele>
        <time>2021-05-23T12:26:35Z</time>
      </trkpt>
      <trkpt lat="42.7389080" lon="-8.6629460">
        <ele>14.4</ele>
        <time>2021-05-23T12:26:36Z</time>
      </trkpt>
      <trkpt lat="42.7389120" lon="-8.6629390">
        <ele>14.2</ele>
        <time>2021-05-23T12:26:37Z</time>
      </trkpt>
      <trkpt lat="42.7389160" lon="-8.6629210">
        <ele>13.9</ele>
        <time>2021-05-23T12:26:38Z</time>
      </trkpt>
      <trkpt lat="42.7389240" lon="-8.6629180">
        <ele>13.8</ele>
        <time>2021-05-23T12:26:39Z</time>
      </trkpt>
      <trkpt lat="42.7389290" lon="-8.6629070">
        <ele>13.6</ele>
        <time>2021-05-23T12:26:40Z</time>
      </trkpt>
      <trkpt lat="42.7389360" lon="-8.6629090">
        <ele>13.4</ele>
        <time>2021-05-23T12:26:41Z</time>
      </trkpt>
      <trkpt lat="42.7389420" lon="-8.6629040">
        <ele>13.3</ele>
        <time>2021-05-23T12:26:42Z</time>
      </trkpt>
      <trkpt lat="42.7389530" lon="-8.6629020">
        <ele>13.1</ele>
        <time>2021-05-23T12:26:43Z</time>
      </trkpt>
      <trkpt lat="42.7389640" lon="-8.6629050">
        <ele>12.8</ele>
        <time>2021-05-23T12:26:44Z</time>
      </trkpt>
      <trkpt lat="42.7389650" lon="-8.6629140">
        <ele>12.7</ele>
        <time>2021-05-23T12:26:45Z</time>
      </trkpt>
      <trkpt lat="42.7389850" lon="-8.6629070">
        <ele>12.3</ele>
        <time>2021-05-23T12:26:46Z</time>
      </trkpt>
      <trkpt lat="42.7389930" lon="-8.6629070">
        <ele>12.1</ele>
        <time>2021-05-23T12:26:47Z</time>
      </trkpt>
      <trkpt lat="42.7389990" lon="-8.6629010">
        <ele>12.0</ele>
        <time>2021-05-23T12:26:48Z</time>
      </trkpt>
      <trkpt lat="42.7390020" lon="-8.6628980">
        <ele>11.9</ele>
        <time>2021-05-23T12:26:49Z</time>
      </trkpt>
      <trkpt lat="42.7390070" lon="-8.6628830">
        <ele>11.7</ele>
        <time>2021-05-23T12:26:50Z</time>
      </trkpt>
      <trkpt lat="42.7390120" lon="-8.6628680">
        <ele>11.4</ele>
        <time>2021-05-23T12:26:51Z</time>
      </trkpt>
      <trkpt lat="42.7390200" lon="-8.6628560">
        <ele>11.2</ele>
        <time>2021-05-23T12:26:52Z</time>
      </trkpt>
      <trkpt lat="42.7390190" lon="-8.6628460">
        <ele>11.0</ele>
        <time>2021-05-23T12:26:53Z</time>
      </trkpt>
      <trkpt lat="42.7390180" lon="-8.6628400">
        <ele>11.0</ele>
        <time>2021-05-23T12:26:54Z</time>
      </trkpt>
      <trkpt lat="42.7390200" lon="-8.6628320">
        <ele>10.8</ele>
        <time>2021-05-23T12:26:55Z</time>
      </trkpt>
      <trkpt lat="42.7390330" lon="-8.6628240">
        <ele>10.5</ele>
        <time>2021-05-23T12:26:56Z</time>
      </trkpt>
      <trkpt lat="42.7390480" lon="-8.6628080">
        <ele>10.2</ele>
        <time>2021-05-23T12:26:57Z</time>
      </trkpt>
      <trkpt lat="42.7390480" lon="-8.6627870">
        <ele>9.9</ele>
        <time>2021-05-23T12:26:58Z</time>
      </trkpt>
      <trkpt lat="42.7390440" lon="-8.6627720">
        <ele>9.7</ele>
        <time>2021-05-23T12:26:59Z</time>
      </trkpt>
      <trkpt lat="42.7390450" lon="-8.6627540">
        <ele>9.6</ele>
        <time>2021-05-23T12:27:00Z</time>
      </trkpt>
      <trkpt lat="42.7390430" lon="-8.6627350">
        <ele>9.5</ele>
        <time>2021-05-23T12:27:01Z</time>
      </trkpt>
      <trkpt lat="42.7390440" lon="-8.6627260">
        <ele>9.4</ele>
        <time>2021-05-23T12:27:02Z</time>
      </trkpt>
      <trkpt lat="42.7390420" lon="-8.6627080">
        <ele>9.2</ele>
        <time>2021-05-23T12:27:03Z</time>
      </trkpt>
      <trkpt lat="42.7390420" lon="-8.6626870">
        <ele>9.1</ele>
        <time>2021-05-23T12:27:04Z</time>
      </trkpt>
      <trkpt lat="42.7390440" lon="-8.6626730">
        <ele>9.0</ele>
        <time>2021-05-23T12:27:05Z</time>
      </trkpt>
      <trkpt lat="42.7390430" lon="-8.6626560">
        <ele>8.9</ele>
        <time>2021-05-23T12:27:06Z</time>
      </trkpt>
      <trkpt lat="42.7390430" lon="-8.6626460">
        <ele>8.8</ele>
        <time>2021-05-23T12:27:07Z</time>
      </trkpt>
      <trkpt lat="42.7390450" lon="-8.6626290">
        <ele>8.6</ele>
        <time>2021-05-23T12:27:08Z</time>
      </trkpt>
      <trkpt lat="42.7390450" lon="-8.6626040">
        <ele>8.5</ele>
        <time>2021-05-23T12:27:09Z</time>
      </trkpt>
      <trkpt lat="42.7390420" lon="-8.6625750">
        <ele>8.5</ele>
        <time>2021-05-23T12:27:10Z</time>
      </trkpt>
      <trkpt lat="42.7390410" lon="-8.6625630">
        <ele>8.6</ele>
        <time>2021-05-23T12:27:11Z</time>
      </trkpt>
      <trkpt lat="42.7390390" lon="-8.6625500">
        <ele>8.6</ele>
        <time>2021-05-23T12:27:12Z</time>
      </trkpt>
      <trkpt lat="42.7390390" lon="-8.6625410">
        <ele>8.6</ele>
        <time>2021-05-23T12:27:13Z</time>
      </trkpt>
      <trkpt lat="42.7390390" lon="-8.6625270">
        <ele>8.7</ele>
        <time>2021-05-23T12:27:14Z</time>
      </trkpt>
      <trkpt lat="42.7390390" lon="-8.6625230">
        <ele>8.7</ele>
        <time>2021-05-23T12:27:15Z</time>
      </trkpt>
      <trkpt lat="42.7390390" lon="-8.6625090">
        <ele>8.7</ele>
        <time>2021-05-23T12:27:16Z</time>
      </trkpt>
      <trkpt lat="42.7390380" lon="-8.6624790">
        <ele>8.8</ele>
        <time>2021-05-23T12:27:17Z</time>
      </trkpt>
      <trkpt lat="42.7390350" lon="-8.6624710">
        <ele>8.9</ele>
        <time>2021-05-23T12:27:18Z</time>
      </trkpt>
      <trkpt lat="42.7390330" lon="-8.6624640">
        <ele>8.9</ele>
        <time>2021-05-23T12:27:19Z</time>
      </trkpt>
      <trkpt lat="42.7390300" lon="-8.6624560">
        <ele>8.9</ele>
        <time>2021-05-23T12:27:20Z</time>
      </trkpt>
      <trkpt lat="42.7390270" lon="-8.6624530">
        <ele>8.9</ele>
        <time>2021-05-23T12:27:21Z</time>
      </trkpt>
      <trkpt lat="42.7390220" lon="-8.6624470">
        <ele>9.0</ele>
        <time>2021-05-23T12:27:22Z</time>
      </trkpt>
      <trkpt lat="42.7390130" lon="-8.6624250">
        <ele>9.0</ele>
        <time>2021-05-23T12:27:23Z</time>
      </trkpt>
      <trkpt lat="42.7390120" lon="-8.6624210">
        <ele>9.1</ele>
        <time>2021-05-23T12:27:24Z</time>
      </trkpt>
      <trkpt lat="42.7390120" lon="-8.6624160">
        <ele>9.1</ele>
        <time>2021-05-23T12:27:25Z</time>
      </trkpt>
      <trkpt lat="42.7390110" lon="-8.6624020">
        <ele>9.1</ele>
        <time>2021-05-23T12:27:26Z</time>
      </trkpt>
      <trkpt lat="42.7390100" lon="-8.6623840">
        <ele>9.2</ele>
        <time>2021-05-23T12:27:27Z</time>
      </trkpt>
      <trkpt lat="42.7390110" lon="-8.6623670">
        <ele>9.2</ele>
        <time>2021-05-23T12:27:28Z</time>
      </trkpt>
      <trkpt lat="42.7390120" lon="-8.6623580">
        <ele>9.3</ele>
        <time>2021-05-23T12:27:29Z</time>
      </trkpt>
      <trkpt lat="42.7390140" lon="-8.6623470">
        <ele>9.3</ele>
        <time>2021-05-23T12:27:30Z</time>
      </trkpt>
      <trkpt lat="42.7390130" lon="-8.6623340">
        <ele>9.3</ele>
        <time>2021-05-23T12:27:31Z</time>
      </trkpt>
      <trkpt lat="42.7390140" lon="-8.6623210">
        <ele>9.4</ele>
        <time>2021-05-23T12:27:32Z</time>
      </trkpt>
      <trkpt lat="42.7390160" lon="-8.6623080">
        <ele>9.4</ele>
        <time>2021-05-23T12:27:33Z</time>
      </trkpt>
      <trkpt lat="42.7390200" lon="-8.6622980">
        <ele>9.4</ele>
        <time>2021-05-23T12:27:34Z</time>
      </trkpt>
      <trkpt lat="42.7390230" lon="-8.6622900">
        <ele>9.4</ele>
        <time>2021-05-23T12:27:35Z</time>
      </trkpt>
      <trkpt lat="42.7390240" lon="-8.6622740">
        <ele>9.4</ele>
        <time>2021-05-23T12:27:36Z</time>
      </trkpt>
      <trkpt lat="42.7390260" lon="-8.6622610">
        <ele>9.4</ele>
        <time>2021-05-23T12:27:37Z</time>
      </trkpt>
      <trkpt lat="42.7390280" lon="-8.6622540">
        <ele>9.5</ele>
        <time>2021-05-23T12:27:38Z</time>
      </trkpt>
      <trkpt lat="42.7390280" lon="-8.6622400">
        <ele>9.5</ele>
        <time>2021-05-23T12:27:39Z</time>
      </trkpt>
      <trkpt lat="42.7390290" lon="-8.6622320">
        <ele>9.5</ele>
        <time>2021-05-23T12:27:40Z</time>
      </trkpt>
      <trkpt lat="42.7390280" lon="-8.6622150">
        <ele>9.5</ele>
        <time>2021-05-23T12:27:41Z</time>
      </trkpt>
      <trkpt lat="42.7390320" lon="-8.6622120">
        <ele>9.5</ele>
        <time>2021-05-23T12:27:42Z</time>
      </trkpt>
      <trkpt lat="42.7390320" lon="-8.6621970">
        <ele>9.5</ele>
        <time>2021-05-23T12:27:43Z</time>
      </trkpt>
      <trkpt lat="42.7390310" lon="-8.6621890">
        <ele>9.5</ele>
        <time>2021-05-23T12:27:44Z</time>
      </trkpt>
      <trkpt lat="42.7390320" lon="-8.6621690">
        <ele>9.5</ele>
        <time>2021-05-23T12:27:45Z</time>
      </trkpt>
      <trkpt lat="42.7390330" lon="-8.6621600">
        <ele>9.5</ele>
        <time>2021-05-23T12:27:46Z</time>
      </trkpt>
      <trkpt lat="42.7390340" lon="-8.6621350">
        <ele>9.5</ele>
        <time>2021-05-23T12:27:47Z</time>
      </trkpt>
      <trkpt lat="42.7390320" lon="-8.6621220">
        <ele>9.5</ele>
        <time>2021-05-23T12:27:48Z</time>
      </trkpt>
      <trkpt lat="42.7390330" lon="-8.6621050">
        <ele>9.5</ele>
        <time>2021-05-23T12:27:49Z</time>
      </trkpt>
      <trkpt lat="42.7390340" lon="-8.6620930">
        <ele>9.5</ele>
        <time>2021-05-23T12:27:50Z</time>
      </trkpt>
      <trkpt lat="42.7390360" lon="-8.6620750">
        <ele>9.5</ele>
        <time>2021-05-23T12:27:51Z</time>
      </trkpt>
      <trkpt lat="42.7390370" lon="-8.6620650">
        <ele>9.5</ele>
        <time>2021-05-23T12:27:52Z</time>
      </trkpt>
      <trkpt lat="42.7390390" lon="-8.6620540">
        <ele>9.5</ele>
        <time>2021-05-23T12:27:53Z</time>
      </trkpt>
      <trkpt lat="42.7390370" lon="-8.6620300">
        <ele>9.6</ele>
        <time>2021-05-23T12:27:54Z</time>
      </trkpt>
      <trkpt lat="42.7390390" lon="-8.6620050">
        <ele>9.6</ele>
        <time>2021-05-23T12:27:55Z</time>
      </trkpt>
      <trkpt lat="42.7390410" lon="-8.6620010">
        <ele>9.6</ele>
        <time>2021-05-23T12:27:56Z</time>
      </trkpt>
      <trkpt lat="42.7390420" lon="-8.6619910">
        <ele>9.6</ele>
        <time>2021-05-23T12:27:57Z</time>
      </trkpt>
      <trkpt lat="42.7390420" lon="-8.6619780">
        <ele>9.6</ele>
        <time>2021-05-23T12:27:58Z</time>
      </trkpt>
      <trkpt lat="42.7390410" lon="-8.6619750">
        <ele>9.6</ele>
        <time>2021-05-23T12:27:59Z</time>
      </trkpt>
      <trkpt lat="42.7390400" lon="-8.6619550">
        <ele>9.6</ele>
        <time>2021-05-23T12:28:00Z</time>
      </trkpt>
      <trkpt lat="42.7390400" lon="-8.6619360">
        <ele>9.6</ele>
        <time>2021-05-23T12:28:01Z</time>
      </trkpt>
      <trkpt lat="42.7390390" lon="-8.6619160">
        <ele>9.6</ele>
        <time>2021-05-23T12:28:02Z</time>
      </trkpt>
      <trkpt lat="42.7390400" lon="-8.6619020">
        <ele>9.6</ele>
        <time>2021-05-23T12:28:03Z</time>
      </trkpt>
      <trkpt lat="42.7390370" lon="-8.6618800">
        <ele>9.6</ele>
        <time>2021-05-23T12:28:04Z</time>
      </trkpt>
      <trkpt lat="42.7390370" lon="-8.6618690">
        <ele>9.6</ele>
        <time>2021-05-23T12:28:05Z</time>
      </trkpt>
      <trkpt lat="42.7390350" lon="-8.6618510">
        <ele>9.6</ele>
        <time>2021-05-23T12:28:06Z</time>
      </trkpt>
      <trkpt lat="42.7390390" lon="-8.6618410">
        <ele>9.6</ele>
        <time>2021-05-23T12:28:07Z</time>
      </trkpt>
      <trkpt lat="42.7390400" lon="-8.6618240">
        <ele>9.6</ele>
        <time>2021-05-23T12:28:08Z</time>
      </trkpt>
      <trkpt lat="42.7390450" lon="-8.6618110">
        <ele>9.6</ele>
        <time>2021-05-23T12:28:09Z</time>
      </trkpt>
      <trkpt lat="42.7390460" lon="-8.6617940">
        <ele>9.6</ele>
        <time>2021-05-23T12:28:10Z</time>
      </trkpt>
      <trkpt lat="42.7390450" lon="-8.6617830">
        <ele>9.6</ele>
        <time>2021-05-23T12:28:11Z</time>
      </trkpt>
      <trkpt lat="42.7390490" lon="-8.6617610">
        <ele>9.6</ele>
        <time>2021-05-23T12:28:12Z</time>
      </trkpt>
      <trkpt lat="42.7390480" lon="-8.6617500">
        <ele>9.6</ele>
        <time>2021-05-23T12:28:13Z</time>
      </trkpt>
      <trkpt lat="42.7390510" lon="-8.6617370">
        <ele>9.5</ele>
        <time>2021-05-23T12:28:14Z</time>
      </trkpt>
      <trkpt lat="42.7390490" lon="-8.6617180">
        <ele>9.5</ele>
        <time>2021-05-23T12:28:15Z</time>
      </trkpt>
      <trkpt lat="42.7390550" lon="-8.6616970">
        <ele>9.5</ele>
        <time>2021-05-23T12:28:16Z</time>
      </trkpt>
      <trkpt lat="42.7390500" lon="-8.6616850">
        <ele>9.5</ele>
        <time>2021-05-23T12:28:17Z</time>
      </trkpt>
      <trkpt lat="42.7390460" lon="-8.6616610">
        <ele>9.5</ele>
        <time>2021-05-23T12:28:18Z</time>
      </trkpt>
      <trkpt lat="42.7390440" lon="-8.6616520">
        <ele>9.5</ele>
        <time>2021-05-23T12:28:19Z</time>
      </trkpt>
      <trkpt lat="42.7390500" lon="-8.6616310">
        <ele>9.5</ele>
        <time>2021-05-23T12:28:20Z</time>
      </trkpt>
      <trkpt lat="42.7390500" lon="-8.6616200">
        <ele>9.4</ele>
        <time>2021-05-23T12:28:21Z</time>
      </trkpt>
      <trkpt lat="42.7390520" lon="-8.6616150">
        <ele>9.4</ele>
        <time>2021-05-23T12:28:22Z</time>
      </trkpt>
      <trkpt lat="42.7390470" lon="-8.6615900">
        <ele>9.4</ele>
        <time>2021-05-23T12:28:23Z</time>
      </trkpt>
      <trkpt lat="42.7390440" lon="-8.6615630">
        <ele>9.4</ele>
        <time>2021-05-23T12:28:25Z</time>
      </trkpt>
      <trkpt lat="42.7390460" lon="-8.6615440">
        <ele>9.3</ele>
        <time>2021-05-23T12:28:26Z</time>
      </trkpt>
      <trkpt lat="42.7390470" lon="-8.6615370">
        <ele>9.3</ele>
        <time>2021-05-23T12:28:27Z</time>
      </trkpt>
      <trkpt lat="42.7390470" lon="-8.6615290">
        <ele>9.3</ele>
        <time>2021-05-23T12:28:28Z</time>
      </trkpt>
      <trkpt lat="42.7390480" lon="-8.6615220">
        <ele>9.3</ele>
        <time>2021-05-23T12:28:29Z</time>
      </trkpt>
      <trkpt lat="42.7390490" lon="-8.6615140">
        <ele>9.3</ele>
        <time>2021-05-23T12:28:30Z</time>
      </trkpt>
      <trkpt lat="42.7390620" lon="-8.6614930">
        <ele>9.3</ele>
        <time>2021-05-23T12:28:31Z</time>
      </trkpt>
      <trkpt lat="42.7390680" lon="-8.6614960">
        <ele>9.3</ele>
        <time>2021-05-23T12:28:32Z</time>
      </trkpt>
      <trkpt lat="42.7390790" lon="-8.6614890">
        <ele>9.2</ele>
        <time>2021-05-23T12:28:33Z</time>
      </trkpt>
      <trkpt lat="42.7390830" lon="-8.6614800">
        <ele>9.2</ele>
        <time>2021-05-23T12:28:34Z</time>
      </trkpt>
      <trkpt lat="42.7390860" lon="-8.6614680">
        <ele>9.2</ele>
        <time>2021-05-23T12:28:35Z</time>
      </trkpt>
      <trkpt lat="42.7390870" lon="-8.6614480">
        <ele>9.2</ele>
        <time>2021-05-23T12:28:36Z</time>
      </trkpt>
      <trkpt lat="42.7390860" lon="-8.6614290">
        <ele>9.2</ele>
        <time>2021-05-23T12:28:37Z</time>
      </trkpt>
      <trkpt lat="42.7390860" lon="-8.6614200">
        <ele>9.2</ele>
        <time>2021-05-23T12:28:38Z</time>
      </trkpt>
      <trkpt lat="42.7390850" lon="-8.6614070">
        <ele>9.2</ele>
        <time>2021-05-23T12:28:39Z</time>
      </trkpt>
      <trkpt lat="42.7390900" lon="-8.6613860">
        <ele>9.1</ele>
        <time>2021-05-23T12:28:40Z</time>
      </trkpt>
      <trkpt lat="42.7390910" lon="-8.6613750">
        <ele>9.1</ele>
        <time>2021-05-23T12:28:41Z</time>
      </trkpt>
      <trkpt lat="42.7390870" lon="-8.6613770">
        <ele>9.1</ele>
        <time>2021-05-23T12:28:42Z</time>
      </trkpt>
      <trkpt lat="42.7390950" lon="-8.6613680">
        <ele>9.1</ele>
        <time>2021-05-23T12:28:43Z</time>
      </trkpt>
      <trkpt lat="42.7391000" lon="-8.6613620">
        <ele>9.0</ele>
        <time>2021-05-23T12:28:44Z</time>
      </trkpt>
      <trkpt lat="42.7391060" lon="-8.6613560">
        <ele>9.0</ele>
        <time>2021-05-23T12:28:45Z</time>
      </trkpt>
      <trkpt lat="42.7391130" lon="-8.6613510">
        <ele>9.0</ele>
        <time>2021-05-23T12:28:46Z</time>
      </trkpt>
      <trkpt lat="42.7391190" lon="-8.6613450">
        <ele>9.0</ele>
        <time>2021-05-23T12:28:47Z</time>
      </trkpt>
      <trkpt lat="42.7391250" lon="-8.6613390">
        <ele>9.0</ele>
        <time>2021-05-23T12:28:48Z</time>
      </trkpt>
      <trkpt lat="42.7391330" lon="-8.6613310">
        <ele>9.0</ele>
        <time>2021-05-23T12:28:49Z</time>
      </trkpt>
      <trkpt lat="42.7391430" lon="-8.6613330">
        <ele>9.0</ele>
        <time>2021-05-23T12:28:50Z</time>
      </trkpt>
      <trkpt lat="42.7391550" lon="-8.6613280">
        <ele>9.0</ele>
        <time>2021-05-23T12:28:51Z</time>
      </trkpt>
      <trkpt lat="42.7391590" lon="-8.6613270">
        <ele>9.0</ele>
        <time>2021-05-23T12:28:52Z</time>
      </trkpt>
      <trkpt lat="42.7391730" lon="-8.6613230">
        <ele>9.0</ele>
        <time>2021-05-23T12:28:53Z</time>
      </trkpt>
      <trkpt lat="42.7391760" lon="-8.6613190">
        <ele>9.0</ele>
        <time>2021-05-23T12:28:54Z</time>
      </trkpt>
      <trkpt lat="42.7391850" lon="-8.6613060">
        <ele>9.0</ele>
        <time>2021-05-23T12:28:55Z</time>
      </trkpt>
      <trkpt lat="42.7391940" lon="-8.6613050">
        <ele>9.0</ele>
        <time>2021-05-23T12:28:56Z</time>
      </trkpt>
      <trkpt lat="42.7392000" lon="-8.6612970">
        <ele>9.0</ele>
        <time>2021-05-23T12:28:57Z</time>
      </trkpt>
      <trkpt lat="42.7392050" lon="-8.6612870">
        <ele>9.0</ele>
        <time>2021-05-23T12:28:58Z</time>
      </trkpt>
      <trkpt lat="42.7392210" lon="-8.6613020">
        <ele>9.0</ele>
        <time>2021-05-23T12:28:59Z</time>
      </trkpt>
      <trkpt lat="42.7392380" lon="-8.6613040">
        <ele>9.0</ele>
        <time>2021-05-23T12:29:00Z</time>
      </trkpt>
      <trkpt lat="42.7392500" lon="-8.6613010">
        <ele>8.9</ele>
        <time>2021-05-23T12:29:01Z</time>
      </trkpt>
      <trkpt lat="42.7392770" lon="-8.6613130">
        <ele>8.9</ele>
        <time>2021-05-23T12:29:02Z</time>
      </trkpt>
      <trkpt lat="42.7392850" lon="-8.6613180">
        <ele>8.9</ele>
        <time>2021-05-23T12:29:03Z</time>
      </trkpt>
      <trkpt lat="42.7392930" lon="-8.6613230">
        <ele>8.9</ele>
        <time>2021-05-23T12:29:04Z</time>
      </trkpt>
      <trkpt lat="42.7393060" lon="-8.6613240">
        <ele>8.9</ele>
        <time>2021-05-23T12:29:05Z</time>
      </trkpt>
      <trkpt lat="42.7393160" lon="-8.6613180">
        <ele>8.9</ele>
        <time>2021-05-23T12:29:06Z</time>
      </trkpt>
      <trkpt lat="42.7393230" lon="-8.6613140">
        <ele>8.9</ele>
        <time>2021-05-23T12:29:07Z</time>
      </trkpt>
      <trkpt lat="42.7393330" lon="-8.6613180">
        <ele>8.9</ele>
        <time>2021-05-23T12:29:08Z</time>
      </trkpt>
      <trkpt lat="42.7393440" lon="-8.6613150">
        <ele>8.9</ele>
        <time>2021-05-23T12:29:09Z</time>
      </trkpt>
      <trkpt lat="42.7393560" lon="-8.6613130">
        <ele>8.9</ele>
        <time>2021-05-23T12:29:10Z</time>
      </trkpt>
      <trkpt lat="42.7393690" lon="-8.6613080">
        <ele>8.9</ele>
        <time>2021-05-23T12:29:11Z</time>
      </trkpt>
      <trkpt lat="42.7393750" lon="-8.6613050">
        <ele>8.9</ele>
        <time>2021-05-23T12:29:12Z</time>
      </trkpt>
      <trkpt lat="42.7393870" lon="-8.6612940">
        <ele>8.9</ele>
        <time>2021-05-23T12:29:13Z</time>
      </trkpt>
      <trkpt lat="42.7393950" lon="-8.6612890">
        <ele>8.9</ele>
        <time>2021-05-23T12:29:14Z</time>
      </trkpt>
      <trkpt lat="42.7394020" lon="-8.6612830">
        <ele>8.9</ele>
        <time>2021-05-23T12:29:15Z</time>
      </trkpt>
      <trkpt lat="42.7394100" lon="-8.6612780">
        <ele>8.9</ele>
        <time>2021-05-23T12:29:16Z</time>
      </trkpt>
      <trkpt lat="42.7394140" lon="-8.6612770">
        <ele>8.9</ele>
        <time>2021-05-23T12:29:17Z</time>
      </trkpt>
      <trkpt lat="42.7394130" lon="-8.6612760">
        <ele>8.9</ele>
        <time>2021-05-23T12:29:18Z</time>
      </trkpt>
      <trkpt lat="42.7394120" lon="-8.6612740">
        <ele>8.9</ele>
        <time>2021-05-23T12:29:19Z</time>
      </trkpt>
      <trkpt lat="42.7394130" lon="-8.6612760">
        <ele>8.9</ele>
        <time>2021-05-23T12:29:20Z</time>
      </trkpt>
      <trkpt lat="42.7394150" lon="-8.6612770">
        <ele>8.9</ele>
        <time>2021-05-23T12:29:21Z</time>
      </trkpt>
      <trkpt lat="42.7394140" lon="-8.6612770">
        <ele>8.9</ele>
        <time>2021-05-23T12:29:22Z</time>
      </trkpt>
      <trkpt lat="42.7394140" lon="-8.6612770">
        <ele>8.9</ele>
        <time>2021-05-23T12:29:23Z</time>
      </trkpt>
      <trkpt lat="42.7394140" lon="-8.6612750">
        <ele>8.9</ele>
        <time>2021-05-23T12:29:24Z</time>
      </trkpt>
      <trkpt lat="42.7394140" lon="-8.6612780">
        <ele>8.9</ele>
        <time>2021-05-23T12:29:25Z</time>
      </trkpt>
      <trkpt lat="42.7394170" lon="-8.6612850">
        <ele>8.9</ele>
        <time>2021-05-23T12:29:26Z</time>
      </trkpt>
      <trkpt lat="42.7394210" lon="-8.6612870">
        <ele>8.9</ele>
        <time>2021-05-23T12:29:27Z</time>
      </trkpt>
      <trkpt lat="42.7394200" lon="-8.6612840">
        <ele>8.9</ele>
        <time>2021-05-23T12:29:28Z</time>
      </trkpt>
      <trkpt lat="42.7394190" lon="-8.6612810">
        <ele>8.9</ele>
        <time>2021-05-23T12:29:29Z</time>
      </trkpt>
      <trkpt lat="42.7394190" lon="-8.6612830">
        <ele>8.9</ele>
        <time>2021-05-23T12:29:30Z</time>
      </trkpt>
      <trkpt lat="42.7394200" lon="-8.6612840">
        <ele>8.9</ele>
        <time>2021-05-23T12:29:31Z</time>
      </trkpt>
      <trkpt lat="42.7394220" lon="-8.6612890">
        <ele>8.9</ele>
        <time>2021-05-23T12:29:32Z</time>
      </trkpt>
      <trkpt lat="42.7394220" lon="-8.6612930">
        <ele>8.9</ele>
        <time>2021-05-23T12:29:33Z</time>
      </trkpt>
      <trkpt lat="42.7394200" lon="-8.6612940">
        <ele>8.9</ele>
        <time>2021-05-23T12:29:34Z</time>
      </trkpt>
      <trkpt lat="42.7394200" lon="-8.6612940">
        <ele>8.9</ele>
        <time>2021-05-23T12:29:35Z</time>
      </trkpt>
      <trkpt lat="42.7394200" lon="-8.6612940">
        <ele>8.9</ele>
        <time>2021-05-23T12:29:36Z</time>
      </trkpt>
      <trkpt lat="42.7394200" lon="-8.6612820">
        <ele>8.9</ele>
        <time>2021-05-23T12:29:37Z</time>
      </trkpt>
      <trkpt lat="42.7394200" lon="-8.6612770">
        <ele>8.9</ele>
        <time>2021-05-23T12:29:38Z</time>
      </trkpt>
      <trkpt lat="42.7394200" lon="-8.6612780">
        <ele>8.9</ele>
        <time>2021-05-23T12:29:39Z</time>
      </trkpt>
      <trkpt lat="42.7394200" lon="-8.6612780">
        <ele>8.9</ele>
        <time>2021-05-23T12:29:40Z</time>
      </trkpt>
      <trkpt lat="42.7394280" lon="-8.6612790">
        <ele>8.9</ele>
        <time>2021-05-23T12:29:41Z</time>
      </trkpt>
      <trkpt lat="42.7394290" lon="-8.6612870">
        <ele>8.9</ele>
        <time>2021-05-23T12:29:42Z</time>
      </trkpt>
      <trkpt lat="42.7394270" lon="-8.6612770">
        <ele>8.9</ele>
        <time>2021-05-23T12:29:44Z</time>
      </trkpt>
      <trkpt lat="42.7394250" lon="-8.6612660">
        <ele>8.9</ele>
        <time>2021-05-23T12:29:45Z</time>
      </trkpt>
      <trkpt lat="42.7394190" lon="-8.6612640">
        <ele>8.9</ele>
        <time>2021-05-23T12:29:46Z</time>
      </trkpt>
      <trkpt lat="42.7394100" lon="-8.6612530">
        <ele>8.9</ele>
        <time>2021-05-23T12:29:47Z</time>
      </trkpt>
      <trkpt lat="42.7394070" lon="-8.6612460">
        <ele>8.9</ele>
        <time>2021-05-23T12:29:48Z</time>
      </trkpt>
      <trkpt lat="42.7394030" lon="-8.6612390">
        <ele>8.9</ele>
        <time>2021-05-23T12:29:49Z</time>
      </trkpt>
      <trkpt lat="42.7393990" lon="-8.6612350">
        <ele>8.9</ele>
        <time>2021-05-23T12:29:50Z</time>
      </trkpt>
      <trkpt lat="42.7393940" lon="-8.6612320">
        <ele>8.9</ele>
        <time>2021-05-23T12:29:51Z</time>
      </trkpt>
      <trkpt lat="42.7393930" lon="-8.6612250">
        <ele>8.9</ele>
        <time>2021-05-23T12:29:52Z</time>
      </trkpt>
      <trkpt lat="42.7393900" lon="-8.6612160">
        <ele>8.9</ele>
        <time>2021-05-23T12:29:53Z</time>
      </trkpt>
      <trkpt lat="42.7393920" lon="-8.6612170">
        <ele>8.9</ele>
        <time>2021-05-23T12:29:54Z</time>
      </trkpt>
      <trkpt lat="42.7393910" lon="-8.6612250">
        <ele>8.9</ele>
        <time>2021-05-23T12:29:55Z</time>
      </trkpt>
      <trkpt lat="42.7393900" lon="-8.6612290">
        <ele>8.9</ele>
        <time>2021-05-23T12:29:56Z</time>
      </trkpt>
      <trkpt lat="42.7393890" lon="-8.6612280">
        <ele>8.9</ele>
        <time>2021-05-23T12:29:57Z</time>
      </trkpt>
      <trkpt lat="42.7393880" lon="-8.6612350">
        <ele>8.9</ele>
        <time>2021-05-23T12:29:58Z</time>
      </trkpt>
      <trkpt lat="42.7393870" lon="-8.6612410">
        <ele>8.9</ele>
        <time>2021-05-23T12:29:59Z</time>
      </trkpt>
      <trkpt lat="42.7393870" lon="-8.6612410">
        <ele>8.9</ele>
        <time>2021-05-23T12:30:00Z</time>
      </trkpt>
      <trkpt lat="42.7393880" lon="-8.6612540">
        <ele>8.9</ele>
        <time>2021-05-23T12:30:01Z</time>
      </trkpt>
      <trkpt lat="42.7393880" lon="-8.6612540">
        <ele>8.9</ele>
        <time>2021-05-23T12:30:02Z</time>
      </trkpt>
      <trkpt lat="42.7393880" lon="-8.6612540">
        <ele>8.9</ele>
        <time>2021-05-23T12:30:03Z</time>
      </trkpt>
      <trkpt lat="42.7393880" lon="-8.6612540">
        <ele>8.9</ele>
        <time>2021-05-23T12:30:04Z</time>
      </trkpt>
      <trkpt lat="42.7393880" lon="-8.6612540">
        <ele>8.9</ele>
        <time>2021-05-23T12:30:05Z</time>
      </trkpt>
      <trkpt lat="42.7393860" lon="-8.6612790">
        <ele>8.9</ele>
        <time>2021-05-23T12:30:06Z</time>
      </trkpt>
      <trkpt lat="42.7393870" lon="-8.6612800">
        <ele>8.9</ele>
        <time>2021-05-23T12:30:07Z</time>
      </trkpt>
      <trkpt lat="42.7393850" lon="-8.6612810">
        <ele>8.9</ele>
        <time>2021-05-23T12:30:08Z</time>
      </trkpt>
      <trkpt lat="42.7393840" lon="-8.6612810">
        <ele>8.9</ele>
        <time>2021-05-23T12:30:09Z</time>
      </trkpt>
      <trkpt lat="42.7393830" lon="-8.6612810">
        <ele>8.9</ele>
        <time>2021-05-23T12:30:10Z</time>
      </trkpt>
      <trkpt lat="42.7393820" lon="-8.6612820">
        <ele>8.9</ele>
        <time>2021-05-23T12:30:11Z</time>
      </trkpt>
      <trkpt lat="42.7393750" lon="-8.6612890">
        <ele>8.9</ele>
        <time>2021-05-23T12:30:12Z</time>
      </trkpt>
      <trkpt lat="42.7393750" lon="-8.6612890">
        <ele>8.9</ele>
        <time>2021-05-23T12:30:13Z</time>
      </trkpt>
      <trkpt lat="42.7393750" lon="-8.6612880">
        <ele>8.9</ele>
        <time>2021-05-23T12:30:14Z</time>
      </trkpt>
      <trkpt lat="42.7393750" lon="-8.6612880">
        <ele>8.9</ele>
        <time>2021-05-23T12:30:15Z</time>
      </trkpt>
      <trkpt lat="42.7393750" lon="-8.6612810">
        <ele>8.9</ele>
        <time>2021-05-23T12:30:16Z</time>
      </trkpt>
      <trkpt lat="42.7393750" lon="-8.6612810">
        <ele>8.9</ele>
        <time>2021-05-23T12:30:17Z</time>
      </trkpt>
      <trkpt lat="42.7393750" lon="-8.6612810">
        <ele>8.9</ele>
        <time>2021-05-23T12:30:18Z</time>
      </trkpt>
      <trkpt lat="42.7393780" lon="-8.6612800">
        <ele>8.9</ele>
        <time>2021-05-23T12:30:19Z</time>
      </trkpt>
      <trkpt lat="42.7393770" lon="-8.6612830">
        <ele>8.9</ele>
        <time>2021-05-23T12:30:20Z</time>
      </trkpt>
      <trkpt lat="42.7393770" lon="-8.6612830">
        <ele>8.9</ele>
        <time>2021-05-23T12:30:21Z</time>
      </trkpt>
      <trkpt lat="42.7393820" lon="-8.6612790">
        <ele>8.9</ele>
        <time>2021-05-23T12:30:22Z</time>
      </trkpt>
      <trkpt lat="42.7393820" lon="-8.6612790">
        <ele>8.9</ele>
        <time>2021-05-23T12:30:23Z</time>
      </trkpt>
      <trkpt lat="42.7393820" lon="-8.6612790">
        <ele>8.9</ele>
        <time>2021-05-23T12:30:24Z</time>
      </trkpt>
      <trkpt lat="42.7393820" lon="-8.6612790">
        <ele>8.9</ele>
        <time>2021-05-23T12:30:25Z</time>
      </trkpt>
      <trkpt lat="42.7393820" lon="-8.6612790">
        <ele>8.9</ele>
        <time>2021-05-23T12:30:26Z</time>
      </trkpt>
      <trkpt lat="42.7393830" lon="-8.6612790">
        <ele>8.9</ele>
        <time>2021-05-23T12:30:27Z</time>
      </trkpt>
      <trkpt lat="42.7393800" lon="-8.6612800">
        <ele>8.9</ele>
        <time>2021-05-23T12:30:28Z</time>
      </trkpt>
      <trkpt lat="42.7393730" lon="-8.6612850">
        <ele>8.9</ele>
        <time>2021-05-23T12:30:29Z</time>
      </trkpt>
      <trkpt lat="42.7393710" lon="-8.6612840">
        <ele>8.9</ele>
        <time>2021-05-23T12:30:30Z</time>
      </trkpt>
      <trkpt lat="42.7393680" lon="-8.6612820">
        <ele>8.9</ele>
        <time>2021-05-23T12:30:31Z</time>
      </trkpt>
      <trkpt lat="42.7393680" lon="-8.6612830">
        <ele>8.9</ele>
        <time>2021-05-23T12:30:32Z</time>
      </trkpt>
      <trkpt lat="42.7393680" lon="-8.6612820">
        <ele>8.9</ele>
        <time>2021-05-23T12:30:33Z</time>
      </trkpt>
      <trkpt lat="42.7393680" lon="-8.6612850">
        <ele>8.9</ele>
        <time>2021-05-23T12:30:34Z</time>
      </trkpt>
      <trkpt lat="42.7393680" lon="-8.6612880">
        <ele>8.9</ele>
        <time>2021-05-23T12:30:35Z</time>
      </trkpt>
      <trkpt lat="42.7393680" lon="-8.6612890">
        <ele>8.9</ele>
        <time>2021-05-23T12:30:36Z</time>
      </trkpt>
      <trkpt lat="42.7393660" lon="-8.6612940">
        <ele>8.9</ele>
        <time>2021-05-23T12:30:37Z</time>
      </trkpt>
      <trkpt lat="42.7393660" lon="-8.6612940">
        <ele>8.9</ele>
        <time>2021-05-23T12:30:38Z</time>
      </trkpt>
      <trkpt lat="42.7393650" lon="-8.6612940">
        <ele>8.9</ele>
        <time>2021-05-23T12:30:39Z</time>
      </trkpt>
      <trkpt lat="42.7393640" lon="-8.6612920">
        <ele>8.9</ele>
        <time>2021-05-23T12:30:40Z</time>
      </trkpt>
      <trkpt lat="42.7393630" lon="-8.6612890">
        <ele>8.9</ele>
        <time>2021-05-23T12:30:41Z</time>
      </trkpt>
      <trkpt lat="42.7393640" lon="-8.6612860">
        <ele>8.9</ele>
        <time>2021-05-23T12:30:42Z</time>
      </trkpt>
      <trkpt lat="42.7393610" lon="-8.6612840">
        <ele>8.9</ele>
        <time>2021-05-23T12:30:43Z</time>
      </trkpt>
      <trkpt lat="42.7393610" lon="-8.6612830">
        <ele>8.9</ele>
        <time>2021-05-23T12:30:44Z</time>
      </trkpt>
      <trkpt lat="42.7393600" lon="-8.6612830">
        <ele>8.9</ele>
        <time>2021-05-23T12:30:45Z</time>
      </trkpt>
      <trkpt lat="42.7393580" lon="-8.6612820">
        <ele>8.9</ele>
        <time>2021-05-23T12:30:46Z</time>
      </trkpt>
      <trkpt lat="42.7393560" lon="-8.6612800">
        <ele>8.9</ele>
        <time>2021-05-23T12:30:47Z</time>
      </trkpt>
      <trkpt lat="42.7393560" lon="-8.6612750">
        <ele>8.9</ele>
        <time>2021-05-23T12:30:48Z</time>
      </trkpt>
      <trkpt lat="42.7393580" lon="-8.6612700">
        <ele>8.9</ele>
        <time>2021-05-23T12:30:49Z</time>
      </trkpt>
      <trkpt lat="42.7393580" lon="-8.6612710">
        <ele>8.9</ele>
        <time>2021-05-23T12:30:50Z</time>
      </trkpt>
      <trkpt lat="42.7393580" lon="-8.6612720">
        <ele>8.9</ele>
        <time>2021-05-23T12:30:51Z</time>
      </trkpt>
      <trkpt lat="42.7393580" lon="-8.6612720">
        <ele>8.9</ele>
        <time>2021-05-23T12:30:52Z</time>
      </trkpt>
      <trkpt lat="42.7393600" lon="-8.6612730">
        <ele>8.9</ele>
        <time>2021-05-23T12:30:53Z</time>
      </trkpt>
      <trkpt lat="42.7393600" lon="-8.6612730">
        <ele>8.9</ele>
        <time>2021-05-23T12:30:54Z</time>
      </trkpt>
      <trkpt lat="42.7393610" lon="-8.6612740">
        <ele>8.9</ele>
        <time>2021-05-23T12:30:55Z</time>
      </trkpt>
      <trkpt lat="42.7393590" lon="-8.6612710">
        <ele>8.9</ele>
        <time>2021-05-23T12:30:56Z</time>
      </trkpt>
      <trkpt lat="42.7393580" lon="-8.6612670">
        <ele>8.9</ele>
        <time>2021-05-23T12:30:57Z</time>
      </trkpt>
      <trkpt lat="42.7393590" lon="-8.6612640">
        <ele>8.9</ele>
        <time>2021-05-23T12:30:58Z</time>
      </trkpt>
      <trkpt lat="42.7393610" lon="-8.6612660">
        <ele>8.9</ele>
        <time>2021-05-23T12:30:59Z</time>
      </trkpt>
      <trkpt lat="42.7393620" lon="-8.6612650">
        <ele>8.9</ele>
        <time>2021-05-23T12:31:00Z</time>
      </trkpt>
      <trkpt lat="42.7393600" lon="-8.6612670">
        <ele>8.9</ele>
        <time>2021-05-23T12:31:01Z</time>
      </trkpt>
      <trkpt lat="42.7393600" lon="-8.6612690">
        <ele>8.9</ele>
        <time>2021-05-23T12:31:02Z</time>
      </trkpt>
      <trkpt lat="42.7393610" lon="-8.6612710">
        <ele>8.9</ele>
        <time>2021-05-23T12:31:03Z</time>
      </trkpt>
      <trkpt lat="42.7393620" lon="-8.6612700">
        <ele>8.9</ele>
        <time>2021-05-23T12:31:04Z</time>
      </trkpt>
      <trkpt lat="42.7393650" lon="-8.6612650">
        <ele>8.9</ele>
        <time>2021-05-23T12:31:05Z</time>
      </trkpt>
      <trkpt lat="42.7393660" lon="-8.6612620">
        <ele>8.9</ele>
        <time>2021-05-23T12:31:06Z</time>
      </trkpt>
      <trkpt lat="42.7393650" lon="-8.6612620">
        <ele>8.9</ele>
        <time>2021-05-23T12:31:07Z</time>
      </trkpt>
      <trkpt lat="42.7393640" lon="-8.6612650">
        <ele>8.9</ele>
        <time>2021-05-23T12:31:08Z</time>
      </trkpt>
      <trkpt lat="42.7393630" lon="-8.6612670">
        <ele>8.9</ele>
        <time>2021-05-23T12:31:09Z</time>
      </trkpt>
      <trkpt lat="42.7393600" lon="-8.6612710">
        <ele>8.9</ele>
        <time>2021-05-23T12:31:10Z</time>
      </trkpt>
      <trkpt lat="42.7393630" lon="-8.6612730">
        <ele>8.9</ele>
        <time>2021-05-23T12:31:12Z</time>
      </trkpt>
      <trkpt lat="42.7393630" lon="-8.6612740">
        <ele>8.9</ele>
        <time>2021-05-23T12:31:13Z</time>
      </trkpt>
      <trkpt lat="42.7393660" lon="-8.6612700">
        <ele>8.9</ele>
        <time>2021-05-23T12:31:14Z</time>
      </trkpt>
      <trkpt lat="42.7393690" lon="-8.6612650">
        <ele>8.9</ele>
        <time>2021-05-23T12:31:15Z</time>
      </trkpt>
      <trkpt lat="42.7393710" lon="-8.6612610">
        <ele>8.9</ele>
        <time>2021-05-23T12:31:16Z</time>
      </trkpt>
      <trkpt lat="42.7393730" lon="-8.6612580">
        <ele>8.9</ele>
        <time>2021-05-23T12:31:17Z</time>
      </trkpt>
      <trkpt lat="42.7393740" lon="-8.6612530">
        <ele>8.9</ele>
        <time>2021-05-23T12:31:18Z</time>
      </trkpt>
      <trkpt lat="42.7393740" lon="-8.6612510">
        <ele>8.9</ele>
        <time>2021-05-23T12:31:19Z</time>
      </trkpt>
      <trkpt lat="42.7393730" lon="-8.6612450">
        <ele>8.9</ele>
        <time>2021-05-23T12:31:20Z</time>
      </trkpt>
      <trkpt lat="42.7393730" lon="-8.6612460">
        <ele>8.9</ele>
        <time>2021-05-23T12:31:21Z</time>
      </trkpt>
      <trkpt lat="42.7393720" lon="-8.6612500">
        <ele>8.9</ele>
        <time>2021-05-23T12:31:22Z</time>
      </trkpt>
      <trkpt lat="42.7393730" lon="-8.6612500">
        <ele>8.9</ele>
        <time>2021-05-23T12:31:23Z</time>
      </trkpt>
      <trkpt lat="42.7393730" lon="-8.6612500">
        <ele>8.9</ele>
        <time>2021-05-23T12:31:24Z</time>
      </trkpt>
      <trkpt lat="42.7393730" lon="-8.6612500">
        <ele>8.9</ele>
        <time>2021-05-23T12:31:25Z</time>
      </trkpt>
      <trkpt lat="42.7393720" lon="-8.6612600">
        <ele>8.9</ele>
        <time>2021-05-23T12:31:26Z</time>
      </trkpt>
      <trkpt lat="42.7393730" lon="-8.6612610">
        <ele>8.9</ele>
        <time>2021-05-23T12:31:27Z</time>
      </trkpt>
      <trkpt lat="42.7393720" lon="-8.6612650">
        <ele>8.9</ele>
        <time>2021-05-23T12:31:28Z</time>
      </trkpt>
      <trkpt lat="42.7393710" lon="-8.6612640">
        <ele>8.9</ele>
        <time>2021-05-23T12:31:29Z</time>
      </trkpt>
      <trkpt lat="42.7393710" lon="-8.6612650">
        <ele>8.9</ele>
        <time>2021-05-23T12:31:30Z</time>
      </trkpt>
      <trkpt lat="42.7393730" lon="-8.6612560">
        <ele>8.9</ele>
        <time>2021-05-23T12:31:31Z</time>
      </trkpt>
      <trkpt lat="42.7393730" lon="-8.6612530">
        <ele>8.9</ele>
        <time>2021-05-23T12:31:32Z</time>
      </trkpt>
      <trkpt lat="42.7393750" lon="-8.6612500">
        <ele>8.9</ele>
        <time>2021-05-23T12:31:33Z</time>
      </trkpt>
      <trkpt lat="42.7393760" lon="-8.6612460">
        <ele>8.9</ele>
        <time>2021-05-23T12:31:34Z</time>
      </trkpt>
      <trkpt lat="42.7393770" lon="-8.6612430">
        <ele>8.9</ele>
        <time>2021-05-23T12:31:35Z</time>
      </trkpt>
      <trkpt lat="42.7393800" lon="-8.6612420">
        <ele>8.9</ele>
        <time>2021-05-23T12:31:36Z</time>
      </trkpt>
      <trkpt lat="42.7393820" lon="-8.6612390">
        <ele>8.9</ele>
        <time>2021-05-23T12:31:37Z</time>
      </trkpt>
      <trkpt lat="42.7393830" lon="-8.6612380">
        <ele>8.9</ele>
        <time>2021-05-23T12:31:38Z</time>
      </trkpt>
      <trkpt lat="42.7393820" lon="-8.6612350">
        <ele>8.9</ele>
        <time>2021-05-23T12:31:39Z</time>
      </trkpt>
      <trkpt lat="42.7393820" lon="-8.6612350">
        <ele>8.9</ele>
        <time>2021-05-23T12:31:40Z</time>
      </trkpt>
      <trkpt lat="42.7393820" lon="-8.6612350">
        <ele>8.9</ele>
        <time>2021-05-23T12:31:41Z</time>
      </trkpt>
      <trkpt lat="42.7393840" lon="-8.6612320">
        <ele>8.9</ele>
        <time>2021-05-23T12:31:42Z</time>
      </trkpt>
      <trkpt lat="42.7393830" lon="-8.6612320">
        <ele>8.9</ele>
        <time>2021-05-23T12:31:43Z</time>
      </trkpt>
      <trkpt lat="42.7393830" lon="-8.6612330">
        <ele>8.9</ele>
        <time>2021-05-23T12:31:44Z</time>
      </trkpt>
      <trkpt lat="42.7393830" lon="-8.6612320">
        <ele>8.9</ele>
        <time>2021-05-23T12:31:45Z</time>
      </trkpt>
      <trkpt lat="42.7393820" lon="-8.6612320">
        <ele>8.9</ele>
        <time>2021-05-23T12:31:46Z</time>
      </trkpt>
      <trkpt lat="42.7393830" lon="-8.6612320">
        <ele>8.9</ele>
        <time>2021-05-23T12:31:47Z</time>
      </trkpt>
      <trkpt lat="42.7393830" lon="-8.6612320">
        <ele>8.9</ele>
        <time>2021-05-23T12:31:48Z</time>
      </trkpt>
      <trkpt lat="42.7393850" lon="-8.6612360">
        <ele>8.9</ele>
        <time>2021-05-23T12:31:49Z</time>
      </trkpt>
      <trkpt lat="42.7393860" lon="-8.6612380">
        <ele>8.9</ele>
        <time>2021-05-23T12:31:50Z</time>
      </trkpt>
      <trkpt lat="42.7393860" lon="-8.6612380">
        <ele>8.9</ele>
        <time>2021-05-23T12:31:51Z</time>
      </trkpt>
      <trkpt lat="42.7393840" lon="-8.6612360">
        <ele>8.9</ele>
        <time>2021-05-23T12:31:52Z</time>
      </trkpt>
      <trkpt lat="42.7393810" lon="-8.6612320">
        <ele>8.9</ele>
        <time>2021-05-23T12:31:54Z</time>
      </trkpt>
      <trkpt lat="42.7393780" lon="-8.6612290">
        <ele>8.9</ele>
        <time>2021-05-23T12:31:55Z</time>
      </trkpt>
      <trkpt lat="42.7393770" lon="-8.6612280">
        <ele>8.9</ele>
        <time>2021-05-23T12:31:56Z</time>
      </trkpt>
      <trkpt lat="42.7393770" lon="-8.6612250">
        <ele>8.9</ele>
        <time>2021-05-23T12:31:57Z</time>
      </trkpt>
      <trkpt lat="42.7393750" lon="-8.6612260">
        <ele>8.9</ele>
        <time>2021-05-23T12:31:58Z</time>
      </trkpt>
      <trkpt lat="42.7393750" lon="-8.6612250">
        <ele>8.9</ele>
        <time>2021-05-23T12:31:59Z</time>
      </trkpt>
      <trkpt lat="42.7393760" lon="-8.6612290">
        <ele>8.9</ele>
        <time>2021-05-23T12:32:00Z</time>
      </trkpt>
      <trkpt lat="42.7393760" lon="-8.6612300">
        <ele>8.9</ele>
        <time>2021-05-23T12:32:01Z</time>
      </trkpt>
      <trkpt lat="42.7393740" lon="-8.6612300">
        <ele>8.9</ele>
        <time>2021-05-23T12:32:02Z</time>
      </trkpt>
      <trkpt lat="42.7393750" lon="-8.6612280">
        <ele>8.9</ele>
        <time>2021-05-23T12:32:03Z</time>
      </trkpt>
      <trkpt lat="42.7393750" lon="-8.6612270">
        <ele>8.9</ele>
        <time>2021-05-23T12:32:04Z</time>
      </trkpt>
      <trkpt lat="42.7393720" lon="-8.6612220">
        <ele>8.9</ele>
        <time>2021-05-23T12:32:05Z</time>
      </trkpt>
      <trkpt lat="42.7393690" lon="-8.6612140">
        <ele>8.9</ele>
        <time>2021-05-23T12:32:06Z</time>
      </trkpt>
      <trkpt lat="42.7393680" lon="-8.6612080">
        <ele>8.9</ele>
        <time>2021-05-23T12:32:07Z</time>
      </trkpt>
      <trkpt lat="42.7393690" lon="-8.6612020">
        <ele>8.9</ele>
        <time>2021-05-23T12:32:08Z</time>
      </trkpt>
      <trkpt lat="42.7393690" lon="-8.6611950">
        <ele>8.9</ele>
        <time>2021-05-23T12:32:09Z</time>
      </trkpt>
      <trkpt lat="42.7393690" lon="-8.6611960">
        <ele>8.9</ele>
        <time>2021-05-23T12:32:10Z</time>
      </trkpt>
      <trkpt lat="42.7393680" lon="-8.6611950">
        <ele>8.9</ele>
        <time>2021-05-23T12:32:11Z</time>
      </trkpt>
      <trkpt lat="42.7393670" lon="-8.6611910">
        <ele>8.9</ele>
        <time>2021-05-23T12:32:12Z</time>
      </trkpt>
      <trkpt lat="42.7393660" lon="-8.6611870">
        <ele>8.9</ele>
        <time>2021-05-23T12:32:13Z</time>
      </trkpt>
      <trkpt lat="42.7393660" lon="-8.6611880">
        <ele>8.9</ele>
        <time>2021-05-23T12:32:14Z</time>
      </trkpt>
      <trkpt lat="42.7393690" lon="-8.6611850">
        <ele>8.9</ele>
        <time>2021-05-23T12:32:15Z</time>
      </trkpt>
      <trkpt lat="42.7393700" lon="-8.6611790">
        <ele>8.9</ele>
        <time>2021-05-23T12:32:16Z</time>
      </trkpt>
      <trkpt lat="42.7393700" lon="-8.6611790">
        <ele>8.9</ele>
        <time>2021-05-23T12:32:17Z</time>
      </trkpt>
      <trkpt lat="42.7393720" lon="-8.6611750">
        <ele>8.9</ele>
        <time>2021-05-23T12:32:18Z</time>
      </trkpt>
      <trkpt lat="42.7393720" lon="-8.6611880">
        <ele>8.9</ele>
        <time>2021-05-23T12:32:19Z</time>
      </trkpt>
      <trkpt lat="42.7393760" lon="-8.6612000">
        <ele>8.9</ele>
        <time>2021-05-23T12:32:20Z</time>
      </trkpt>
      <trkpt lat="42.7393830" lon="-8.6612120">
        <ele>8.9</ele>
        <time>2021-05-23T12:32:21Z</time>
      </trkpt>
      <trkpt lat="42.7393800" lon="-8.6612170">
        <ele>8.9</ele>
        <time>2021-05-23T12:32:22Z</time>
      </trkpt>
      <trkpt lat="42.7393850" lon="-8.6612220">
        <ele>8.9</ele>
        <time>2021-05-23T12:32:23Z</time>
      </trkpt>
      <trkpt lat="42.7393930" lon="-8.6612360">
        <ele>8.9</ele>
        <time>2021-05-23T12:32:24Z</time>
      </trkpt>
      <trkpt lat="42.7394000" lon="-8.6612430">
        <ele>8.9</ele>
        <time>2021-05-23T12:32:25Z</time>
      </trkpt>
      <trkpt lat="42.7393980" lon="-8.6612500">
        <ele>9.0</ele>
        <time>2021-05-23T12:32:26Z</time>
      </trkpt>
      <trkpt lat="42.7394010" lon="-8.6612560">
        <ele>9.0</ele>
        <time>2021-05-23T12:32:27Z</time>
      </trkpt>
      <trkpt lat="42.7394000" lon="-8.6612710">
        <ele>9.0</ele>
        <time>2021-05-23T12:32:28Z</time>
      </trkpt>
      <trkpt lat="42.7394010" lon="-8.6612810">
        <ele>9.0</ele>
        <time>2021-05-23T12:32:29Z</time>
      </trkpt>
      <trkpt lat="42.7394000" lon="-8.6613000">
        <ele>9.0</ele>
        <time>2021-05-23T12:32:30Z</time>
      </trkpt>
      <trkpt lat="42.7393990" lon="-8.6613130">
        <ele>9.0</ele>
        <time>2021-05-23T12:32:31Z</time>
      </trkpt>
      <trkpt lat="42.7394030" lon="-8.6613180">
        <ele>9.0</ele>
        <time>2021-05-23T12:32:32Z</time>
      </trkpt>
      <trkpt lat="42.7394070" lon="-8.6613280">
        <ele>9.0</ele>
        <time>2021-05-23T12:32:33Z</time>
      </trkpt>
      <trkpt lat="42.7394100" lon="-8.6613430">
        <ele>9.0</ele>
        <time>2021-05-23T12:32:34Z</time>
      </trkpt>
      <trkpt lat="42.7394090" lon="-8.6613510">
        <ele>9.0</ele>
        <time>2021-05-23T12:32:35Z</time>
      </trkpt>
      <trkpt lat="42.7394070" lon="-8.6613520">
        <ele>9.0</ele>
        <time>2021-05-23T12:32:36Z</time>
      </trkpt>
      <trkpt lat="42.7394040" lon="-8.6613540">
        <ele>9.0</ele>
        <time>2021-05-23T12:32:37Z</time>
      </trkpt>
      <trkpt lat="42.7393990" lon="-8.6613500">
        <ele>9.0</ele>
        <time>2021-05-23T12:32:38Z</time>
      </trkpt>
      <trkpt lat="42.7393980" lon="-8.6613460">
        <ele>9.0</ele>
        <time>2021-05-23T12:32:39Z</time>
      </trkpt>
      <trkpt lat="42.7393960" lon="-8.6613490">
        <ele>9.0</ele>
        <time>2021-05-23T12:32:40Z</time>
      </trkpt>
      <trkpt lat="42.7393950" lon="-8.6613490">
        <ele>9.0</ele>
        <time>2021-05-23T12:32:41Z</time>
      </trkpt>
      <trkpt lat="42.7393950" lon="-8.6613480">
        <ele>9.0</ele>
        <time>2021-05-23T12:32:42Z</time>
      </trkpt>
      <trkpt lat="42.7393930" lon="-8.6613570">
        <ele>9.0</ele>
        <time>2021-05-23T12:32:43Z</time>
      </trkpt>
      <trkpt lat="42.7393920" lon="-8.6613550">
        <ele>9.0</ele>
        <time>2021-05-23T12:32:44Z</time>
      </trkpt>
      <trkpt lat="42.7393860" lon="-8.6613640">
        <ele>9.0</ele>
        <time>2021-05-23T12:32:45Z</time>
      </trkpt>
      <trkpt lat="42.7393850" lon="-8.6613650">
        <ele>9.0</ele>
        <time>2021-05-23T12:32:46Z</time>
      </trkpt>
      <trkpt lat="42.7393830" lon="-8.6613670">
        <ele>9.0</ele>
        <time>2021-05-23T12:32:47Z</time>
      </trkpt>
      <trkpt lat="42.7393860" lon="-8.6613730">
        <ele>9.0</ele>
        <time>2021-05-23T12:32:48Z</time>
      </trkpt>
      <trkpt lat="42.7393900" lon="-8.6613780">
        <ele>9.0</ele>
        <time>2021-05-23T12:32:49Z</time>
      </trkpt>
      <trkpt lat="42.7393920" lon="-8.6613750">
        <ele>9.0</ele>
        <time>2021-05-23T12:32:50Z</time>
      </trkpt>
      <trkpt lat="42.7393960" lon="-8.6613750">
        <ele>9.0</ele>
        <time>2021-05-23T12:32:51Z</time>
      </trkpt>
      <trkpt lat="42.7394070" lon="-8.6613630">
        <ele>9.0</ele>
        <time>2021-05-23T12:32:52Z</time>
      </trkpt>
      <trkpt lat="42.7394150" lon="-8.6613620">
        <ele>9.0</ele>
        <time>2021-05-23T12:32:53Z</time>
      </trkpt>
      <trkpt lat="42.7394210" lon="-8.6613480">
        <ele>9.0</ele>
        <time>2021-05-23T12:32:54Z</time>
      </trkpt>
      <trkpt lat="42.7394520" lon="-8.6613280">
        <ele>9.0</ele>
        <time>2021-05-23T12:32:55Z</time>
      </trkpt>
      <trkpt lat="42.7394580" lon="-8.6613220">
        <ele>9.0</ele>
        <time>2021-05-23T12:32:56Z</time>
      </trkpt>
      <trkpt lat="42.7394590" lon="-8.6613190">
        <ele>9.0</ele>
        <time>2021-05-23T12:32:57Z</time>
      </trkpt>
      <trkpt lat="42.7394650" lon="-8.6613190">
        <ele>9.0</ele>
        <time>2021-05-23T12:32:58Z</time>
      </trkpt>
      <trkpt lat="42.7394730" lon="-8.6613200">
        <ele>9.0</ele>
        <time>2021-05-23T12:32:59Z</time>
      </trkpt>
      <trkpt lat="42.7394760" lon="-8.6613210">
        <ele>9.0</ele>
        <time>2021-05-23T12:33:00Z</time>
      </trkpt>
      <trkpt lat="42.7394800" lon="-8.6613290">
        <ele>9.0</ele>
        <time>2021-05-23T12:33:01Z</time>
      </trkpt>
      <trkpt lat="42.7394880" lon="-8.6613360">
        <ele>9.0</ele>
        <time>2021-05-23T12:33:02Z</time>
      </trkpt>
      <trkpt lat="42.7394950" lon="-8.6613330">
        <ele>9.0</ele>
        <time>2021-05-23T12:33:03Z</time>
      </trkpt>
      <trkpt lat="42.7394990" lon="-8.6613410">
        <ele>8.9</ele>
        <time>2021-05-23T12:33:04Z</time>
      </trkpt>
      <trkpt lat="42.7395030" lon="-8.6613490">
        <ele>8.9</ele>
        <time>2021-05-23T12:33:05Z</time>
      </trkpt>
      <trkpt lat="42.7395080" lon="-8.6613560">
        <ele>8.9</ele>
        <time>2021-05-23T12:33:06Z</time>
      </trkpt>
      <trkpt lat="42.7395150" lon="-8.6613610">
        <ele>8.9</ele>
        <time>2021-05-23T12:33:07Z</time>
      </trkpt>
      <trkpt lat="42.7395200" lon="-8.6613670">
        <ele>8.9</ele>
        <time>2021-05-23T12:33:08Z</time>
      </trkpt>
      <trkpt lat="42.7395300" lon="-8.6613670">
        <ele>8.9</ele>
        <time>2021-05-23T12:33:09Z</time>
      </trkpt>
      <trkpt lat="42.7395340" lon="-8.6613760">
        <ele>8.9</ele>
        <time>2021-05-23T12:33:10Z</time>
      </trkpt>
      <trkpt lat="42.7395380" lon="-8.6613910">
        <ele>8.9</ele>
        <time>2021-05-23T12:33:11Z</time>
      </trkpt>
      <trkpt lat="42.7395450" lon="-8.6613970">
        <ele>8.9</ele>
        <time>2021-05-23T12:33:12Z</time>
      </trkpt>
      <trkpt lat="42.7395560" lon="-8.6614200">
        <ele>8.9</ele>
        <time>2021-05-23T12:33:13Z</time>
      </trkpt>
      <trkpt lat="42.7395630" lon="-8.6614330">
        <ele>8.9</ele>
        <time>2021-05-23T12:33:14Z</time>
      </trkpt>
      <trkpt lat="42.7395800" lon="-8.6614400">
        <ele>8.9</ele>
        <time>2021-05-23T12:33:15Z</time>
      </trkpt>
      <trkpt lat="42.7396050" lon="-8.6614500">
        <ele>8.9</ele>
        <time>2021-05-23T12:33:16Z</time>
      </trkpt>
      <trkpt lat="42.7396140" lon="-8.6614500">
        <ele>8.9</ele>
        <time>2021-05-23T12:33:17Z</time>
      </trkpt>
      <trkpt lat="42.7396230" lon="-8.6614510">
        <ele>8.9</ele>
        <time>2021-05-23T12:33:18Z</time>
      </trkpt>
      <trkpt lat="42.7396530" lon="-8.6614320">
        <ele>8.9</ele>
        <time>2021-05-23T12:33:19Z</time>
      </trkpt>
      <trkpt lat="42.7396760" lon="-8.6613990">
        <ele>8.9</ele>
        <time>2021-05-23T12:33:20Z</time>
      </trkpt>
      <trkpt lat="42.7396860" lon="-8.6613860">
        <ele>8.9</ele>
        <time>2021-05-23T12:33:21Z</time>
      </trkpt>
      <trkpt lat="42.7397140" lon="-8.6613490">
        <ele>8.9</ele>
        <time>2021-05-23T12:33:22Z</time>
      </trkpt>
      <trkpt lat="42.7397250" lon="-8.6613340">
        <ele>8.9</ele>
        <time>2021-05-23T12:33:23Z</time>
      </trkpt>
      <trkpt lat="42.7397490" lon="-8.6612760">
        <ele>8.9</ele>
        <time>2021-05-23T12:33:24Z</time>
      </trkpt>
      <trkpt lat="42.7397620" lon="-8.6612390">
        <ele>8.9</ele>
        <time>2021-05-23T12:33:25Z</time>
      </trkpt>
      <trkpt lat="42.7397650" lon="-8.6612200">
        <ele>9.0</ele>
        <time>2021-05-23T12:33:26Z</time>
      </trkpt>
      <trkpt lat="42.7397700" lon="-8.6612030">
        <ele>9.0</ele>
        <time>2021-05-23T12:33:27Z</time>
      </trkpt>
      <trkpt lat="42.7397770" lon="-8.6611720">
        <ele>9.0</ele>
        <time>2021-05-23T12:33:28Z</time>
      </trkpt>
      <trkpt lat="42.7397760" lon="-8.6611550">
        <ele>9.0</ele>
        <time>2021-05-23T12:33:29Z</time>
      </trkpt>
      <trkpt lat="42.7397790" lon="-8.6611310">
        <ele>9.0</ele>
        <time>2021-05-23T12:33:30Z</time>
      </trkpt>
      <trkpt lat="42.7397880" lon="-8.6611180">
        <ele>9.0</ele>
        <time>2021-05-23T12:33:31Z</time>
      </trkpt>
      <trkpt lat="42.7398030" lon="-8.6611030">
        <ele>9.0</ele>
        <time>2021-05-23T12:33:32Z</time>
      </trkpt>
      <trkpt lat="42.7398120" lon="-8.6610930">
        <ele>9.0</ele>
        <time>2021-05-23T12:33:33Z</time>
      </trkpt>
      <trkpt lat="42.7398180" lon="-8.6610830">
        <ele>9.0</ele>
        <time>2021-05-23T12:33:34Z</time>
      </trkpt>
      <trkpt lat="42.7398290" lon="-8.6610800">
        <ele>9.0</ele>
        <time>2021-05-23T12:33:35Z</time>
      </trkpt>
      <trkpt lat="42.7398440" lon="-8.6610770">
        <ele>9.0</ele>
        <time>2021-05-23T12:33:36Z</time>
      </trkpt>
      <trkpt lat="42.7398460" lon="-8.6610740">
        <ele>9.0</ele>
        <time>2021-05-23T12:33:37Z</time>
      </trkpt>
      <trkpt lat="42.7398440" lon="-8.6610740">
        <ele>9.0</ele>
        <time>2021-05-23T12:33:38Z</time>
      </trkpt>
      <trkpt lat="42.7398400" lon="-8.6610680">
        <ele>9.1</ele>
        <time>2021-05-23T12:33:39Z</time>
      </trkpt>
      <trkpt lat="42.7398340" lon="-8.6610640">
        <ele>9.1</ele>
        <time>2021-05-23T12:33:40Z</time>
      </trkpt>
      <trkpt lat="42.7398290" lon="-8.6610600">
        <ele>9.1</ele>
        <time>2021-05-23T12:33:41Z</time>
      </trkpt>
      <trkpt lat="42.7398230" lon="-8.6610550">
        <ele>9.1</ele>
        <time>2021-05-23T12:33:42Z</time>
      </trkpt>
      <trkpt lat="42.7398200" lon="-8.6610530">
        <ele>9.1</ele>
        <time>2021-05-23T12:33:43Z</time>
      </trkpt>
      <trkpt lat="42.7398190" lon="-8.6610470">
        <ele>9.1</ele>
        <time>2021-05-23T12:33:44Z</time>
      </trkpt>
      <trkpt lat="42.7398180" lon="-8.6610490">
        <ele>9.1</ele>
        <time>2021-05-23T12:33:45Z</time>
      </trkpt>
      <trkpt lat="42.7398200" lon="-8.6610440">
        <ele>9.1</ele>
        <time>2021-05-23T12:33:46Z</time>
      </trkpt>
      <trkpt lat="42.7398170" lon="-8.6610410">
        <ele>9.1</ele>
        <time>2021-05-23T12:33:47Z</time>
      </trkpt>
      <trkpt lat="42.7398180" lon="-8.6610410">
        <ele>9.1</ele>
        <time>2021-05-23T12:33:48Z</time>
      </trkpt>
      <trkpt lat="42.7398180" lon="-8.6610380">
        <ele>9.1</ele>
        <time>2021-05-23T12:33:49Z</time>
      </trkpt>
      <trkpt lat="42.7398180" lon="-8.6610390">
        <ele>9.1</ele>
        <time>2021-05-23T12:33:50Z</time>
      </trkpt>
      <trkpt lat="42.7398260" lon="-8.6610440">
        <ele>9.1</ele>
        <time>2021-05-23T12:33:51Z</time>
      </trkpt>
      <trkpt lat="42.7398280" lon="-8.6610440">
        <ele>9.1</ele>
        <time>2021-05-23T12:33:52Z</time>
      </trkpt>
      <trkpt lat="42.7398260" lon="-8.6610390">
        <ele>9.1</ele>
        <time>2021-05-23T12:33:53Z</time>
      </trkpt>
      <trkpt lat="42.7398270" lon="-8.6610400">
        <ele>9.1</ele>
        <time>2021-05-23T12:33:54Z</time>
      </trkpt>
      <trkpt lat="42.7398310" lon="-8.6610450">
        <ele>9.1</ele>
        <time>2021-05-23T12:33:55Z</time>
      </trkpt>
      <trkpt lat="42.7398370" lon="-8.6610510">
        <ele>9.1</ele>
        <time>2021-05-23T12:33:56Z</time>
      </trkpt>
      <trkpt lat="42.7398420" lon="-8.6610560">
        <ele>9.1</ele>
        <time>2021-05-23T12:33:57Z</time>
      </trkpt>
      <trkpt lat="42.7398490" lon="-8.6610620">
        <ele>9.1</ele>
        <time>2021-05-23T12:33:58Z</time>
      </trkpt>
      <trkpt lat="42.7398510" lon="-8.6610650">
        <ele>9.1</ele>
        <time>2021-05-23T12:33:59Z</time>
      </trkpt>
      <trkpt lat="42.7398540" lon="-8.6610650">
        <ele>9.1</ele>
        <time>2021-05-23T12:34:00Z</time>
      </trkpt>
      <trkpt lat="42.7398560" lon="-8.6610660">
        <ele>9.1</ele>
        <time>2021-05-23T12:34:01Z</time>
      </trkpt>
      <trkpt lat="42.7398610" lon="-8.6610670">
        <ele>9.1</ele>
        <time>2021-05-23T12:34:02Z</time>
      </trkpt>
      <trkpt lat="42.7398620" lon="-8.6610640">
        <ele>9.1</ele>
        <time>2021-05-23T12:34:03Z</time>
      </trkpt>
      <trkpt lat="42.7398630" lon="-8.6610560">
        <ele>9.1</ele>
        <time>2021-05-23T12:34:04Z</time>
      </trkpt>
      <trkpt lat="42.7398630" lon="-8.6610500">
        <ele>9.1</ele>
        <time>2021-05-23T12:34:06Z</time>
      </trkpt>
      <trkpt lat="42.7398630" lon="-8.6610480">
        <ele>9.1</ele>
        <time>2021-05-23T12:34:07Z</time>
      </trkpt>
      <trkpt lat="42.7398690" lon="-8.6610630">
        <ele>9.1</ele>
        <time>2021-05-23T12:34:08Z</time>
      </trkpt>
      <trkpt lat="42.7398660" lon="-8.6610720">
        <ele>9.1</ele>
        <time>2021-05-23T12:34:09Z</time>
      </trkpt>
      <trkpt lat="42.7398660" lon="-8.6610730">
        <ele>9.1</ele>
        <time>2021-05-23T12:34:10Z</time>
      </trkpt>
      <trkpt lat="42.7398670" lon="-8.6610770">
        <ele>9.1</ele>
        <time>2021-05-23T12:34:11Z</time>
      </trkpt>
      <trkpt lat="42.7398750" lon="-8.6610860">
        <ele>9.1</ele>
        <time>2021-05-23T12:34:12Z</time>
      </trkpt>
      <trkpt lat="42.7398810" lon="-8.6610890">
        <ele>9.1</ele>
        <time>2021-05-23T12:34:13Z</time>
      </trkpt>
      <trkpt lat="42.7398890" lon="-8.6610960">
        <ele>9.1</ele>
        <time>2021-05-23T12:34:14Z</time>
      </trkpt>
      <trkpt lat="42.7398970" lon="-8.6611040">
        <ele>9.1</ele>
        <time>2021-05-23T12:34:15Z</time>
      </trkpt>
      <trkpt lat="42.7399030" lon="-8.6610950">
        <ele>9.1</ele>
        <time>2021-05-23T12:34:16Z</time>
      </trkpt>
      <trkpt lat="42.7399000" lon="-8.6610740">
        <ele>9.1</ele>
        <time>2021-05-23T12:34:17Z</time>
      </trkpt>
      <trkpt lat="42.7398960" lon="-8.6610620">
        <ele>9.1</ele>
        <time>2021-05-23T12:34:18Z</time>
      </trkpt>
      <trkpt lat="42.7398910" lon="-8.6610510">
        <ele>9.1</ele>
        <time>2021-05-23T12:34:19Z</time>
      </trkpt>
      <trkpt lat="42.7398870" lon="-8.6610400">
        <ele>9.1</ele>
        <time>2021-05-23T12:34:20Z</time>
      </trkpt>
      <trkpt lat="42.7398750" lon="-8.6610140">
        <ele>9.1</ele>
        <time>2021-05-23T12:34:21Z</time>
      </trkpt>
      <trkpt lat="42.7398580" lon="-8.6610010">
        <ele>9.1</ele>
        <time>2021-05-23T12:34:22Z</time>
      </trkpt>
      <trkpt lat="42.7398560" lon="-8.6609890">
        <ele>9.1</ele>
        <time>2021-05-23T12:34:23Z</time>
      </trkpt>
      <trkpt lat="42.7398420" lon="-8.6609590">
        <ele>9.1</ele>
        <time>2021-05-23T12:34:24Z</time>
      </trkpt>
      <trkpt lat="42.7398230" lon="-8.6609320">
        <ele>9.1</ele>
        <time>2021-05-23T12:34:25Z</time>
      </trkpt>
      <trkpt lat="42.7398190" lon="-8.6609260">
        <ele>9.1</ele>
        <time>2021-05-23T12:34:26Z</time>
      </trkpt>
      <trkpt lat="42.7398150" lon="-8.6609190">
        <ele>9.1</ele>
        <time>2021-05-23T12:34:27Z</time>
      </trkpt>
      <trkpt lat="42.7398130" lon="-8.6608930">
        <ele>9.1</ele>
        <time>2021-05-23T12:34:28Z</time>
      </trkpt>
      <trkpt lat="42.7398070" lon="-8.6608820">
        <ele>9.1</ele>
        <time>2021-05-23T12:34:29Z</time>
      </trkpt>
      <trkpt lat="42.7398050" lon="-8.6608780">
        <ele>9.1</ele>
        <time>2021-05-23T12:34:30Z</time>
      </trkpt>
      <trkpt lat="42.7398060" lon="-8.6608710">
        <ele>9.1</ele>
        <time>2021-05-23T12:34:31Z</time>
      </trkpt>
      <trkpt lat="42.7398140" lon="-8.6608660">
        <ele>9.1</ele>
        <time>2021-05-23T12:34:32Z</time>
      </trkpt>
      <trkpt lat="42.7398190" lon="-8.6608610">
        <ele>9.1</ele>
        <time>2021-05-23T12:34:33Z</time>
      </trkpt>
      <trkpt lat="42.7398190" lon="-8.6608600">
        <ele>9.1</ele>
        <time>2021-05-23T12:34:34Z</time>
      </trkpt>
      <trkpt lat="42.7398210" lon="-8.6608430">
        <ele>9.1</ele>
        <time>2021-05-23T12:34:35Z</time>
      </trkpt>
      <trkpt lat="42.7398300" lon="-8.6608190">
        <ele>9.1</ele>
        <time>2021-05-23T12:34:36Z</time>
      </trkpt>
      <trkpt lat="42.7398350" lon="-8.6608090">
        <ele>9.1</ele>
        <time>2021-05-23T12:34:37Z</time>
      </trkpt>
      <trkpt lat="42.7398390" lon="-8.6608000">
        <ele>9.1</ele>
        <time>2021-05-23T12:34:38Z</time>
      </trkpt>
      <trkpt lat="42.7398410" lon="-8.6607920">
        <ele>9.1</ele>
        <time>2021-05-23T12:34:39Z</time>
      </trkpt>
      <trkpt lat="42.7398470" lon="-8.6607750">
        <ele>9.1</ele>
        <time>2021-05-23T12:34:40Z</time>
      </trkpt>
      <trkpt lat="42.7398520" lon="-8.6607620">
        <ele>9.1</ele>
        <time>2021-05-23T12:34:41Z</time>
      </trkpt>
      <trkpt lat="42.7398550" lon="-8.6607430">
        <ele>9.0</ele>
        <time>2021-05-23T12:34:42Z</time>
      </trkpt>
      <trkpt lat="42.7398630" lon="-8.6607280">
        <ele>9.0</ele>
        <time>2021-05-23T12:34:43Z</time>
      </trkpt>
      <trkpt lat="42.7398640" lon="-8.6607110">
        <ele>9.0</ele>
        <time>2021-05-23T12:34:44Z</time>
      </trkpt>
      <trkpt lat="42.7398700" lon="-8.6606920">
        <ele>9.0</ele>
        <time>2021-05-23T12:34:45Z</time>
      </trkpt>
      <trkpt lat="42.7398730" lon="-8.6606920">
        <ele>9.0</ele>
        <time>2021-05-23T12:34:46Z</time>
      </trkpt>
      <trkpt lat="42.7398780" lon="-8.6606750">
        <ele>9.0</ele>
        <time>2021-05-23T12:34:47Z</time>
      </trkpt>
      <trkpt lat="42.7398900" lon="-8.6606640">
        <ele>9.0</ele>
        <time>2021-05-23T12:34:48Z</time>
      </trkpt>
      <trkpt lat="42.7398980" lon="-8.6606400">
        <ele>9.0</ele>
        <time>2021-05-23T12:34:49Z</time>
      </trkpt>
      <trkpt lat="42.7399020" lon="-8.6606250">
        <ele>9.0</ele>
        <time>2021-05-23T12:34:50Z</time>
      </trkpt>
      <trkpt lat="42.7399090" lon="-8.6606160">
        <ele>9.0</ele>
        <time>2021-05-23T12:34:51Z</time>
      </trkpt>
      <trkpt lat="42.7399130" lon="-8.6606000">
        <ele>9.0</ele>
        <time>2021-05-23T12:34:52Z</time>
      </trkpt>
      <trkpt lat="42.7399240" lon="-8.6605900">
        <ele>9.0</ele>
        <time>2021-05-23T12:34:53Z</time>
      </trkpt>
      <trkpt lat="42.7399270" lon="-8.6605840">
        <ele>9.0</ele>
        <time>2021-05-23T12:34:54Z</time>
      </trkpt>
      <trkpt lat="42.7399390" lon="-8.6605750">
        <ele>9.0</ele>
        <time>2021-05-23T12:34:55Z</time>
      </trkpt>
      <trkpt lat="42.7399490" lon="-8.6605630">
        <ele>9.0</ele>
        <time>2021-05-23T12:34:56Z</time>
      </trkpt>
      <trkpt lat="42.7399620" lon="-8.6605420">
        <ele>8.9</ele>
        <time>2021-05-23T12:34:57Z</time>
      </trkpt>
      <trkpt lat="42.7399680" lon="-8.6605350">
        <ele>8.9</ele>
        <time>2021-05-23T12:34:58Z</time>
      </trkpt>
      <trkpt lat="42.7399700" lon="-8.6605240">
        <ele>8.9</ele>
        <time>2021-05-23T12:34:59Z</time>
      </trkpt>
      <trkpt lat="42.7399690" lon="-8.6605130">
        <ele>8.9</ele>
        <time>2021-05-23T12:35:00Z</time>
      </trkpt>
      <trkpt lat="42.7399690" lon="-8.6605030">
        <ele>8.9</ele>
        <time>2021-05-23T12:35:01Z</time>
      </trkpt>
      <trkpt lat="42.7399680" lon="-8.6604920">
        <ele>8.9</ele>
        <time>2021-05-23T12:35:02Z</time>
      </trkpt>
      <trkpt lat="42.7399670" lon="-8.6604820">
        <ele>8.9</ele>
        <time>2021-05-23T12:35:03Z</time>
      </trkpt>
      <trkpt lat="42.7399640" lon="-8.6604680">
        <ele>8.9</ele>
        <time>2021-05-23T12:35:04Z</time>
      </trkpt>
      <trkpt lat="42.7399610" lon="-8.6604610">
        <ele>8.9</ele>
        <time>2021-05-23T12:35:05Z</time>
      </trkpt>
      <trkpt lat="42.7399560" lon="-8.6604460">
        <ele>8.9</ele>
        <time>2021-05-23T12:35:06Z</time>
      </trkpt>
      <trkpt lat="42.7399500" lon="-8.6604210">
        <ele>8.9</ele>
        <time>2021-05-23T12:35:07Z</time>
      </trkpt>
      <trkpt lat="42.7399510" lon="-8.6604100">
        <ele>8.9</ele>
        <time>2021-05-23T12:35:08Z</time>
      </trkpt>
      <trkpt lat="42.7399520" lon="-8.6603980">
        <ele>8.9</ele>
        <time>2021-05-23T12:35:09Z</time>
      </trkpt>
      <trkpt lat="42.7399530" lon="-8.6603860">
        <ele>8.9</ele>
        <time>2021-05-23T12:35:10Z</time>
      </trkpt>
      <trkpt lat="42.7399500" lon="-8.6603760">
        <ele>8.9</ele>
        <time>2021-05-23T12:35:11Z</time>
      </trkpt>
      <trkpt lat="42.7399410" lon="-8.6603590">
        <ele>8.9</ele>
        <time>2021-05-23T12:35:12Z</time>
      </trkpt>
      <trkpt lat="42.7399390" lon="-8.6603500">
        <ele>8.9</ele>
        <time>2021-05-23T12:35:13Z</time>
      </trkpt>
      <trkpt lat="42.7399280" lon="-8.6603310">
        <ele>8.9</ele>
        <time>2021-05-23T12:35:14Z</time>
      </trkpt>
      <trkpt lat="42.7399200" lon="-8.6603150">
        <ele>8.9</ele>
        <time>2021-05-23T12:35:15Z</time>
      </trkpt>
      <trkpt lat="42.7399210" lon="-8.6602840">
        <ele>8.9</ele>
        <time>2021-05-23T12:35:16Z</time>
      </trkpt>
      <trkpt lat="42.7399220" lon="-8.6602720">
        <ele>8.9</ele>
        <time>2021-05-23T12:35:17Z</time>
      </trkpt>
      <trkpt lat="42.7399230" lon="-8.6602610">
        <ele>8.9</ele>
        <time>2021-05-23T12:35:18Z</time>
      </trkpt>
      <trkpt lat="42.7399570" lon="-8.6602340">
        <ele>8.8</ele>
        <time>2021-05-23T12:35:19Z</time>
      </trkpt>
      <trkpt lat="42.7399720" lon="-8.6602250">
        <ele>8.8</ele>
        <time>2021-05-23T12:35:20Z</time>
      </trkpt>
      <trkpt lat="42.7399910" lon="-8.6602200">
        <ele>8.8</ele>
        <time>2021-05-23T12:35:21Z</time>
      </trkpt>
      <trkpt lat="42.7400000" lon="-8.6602210">
        <ele>8.8</ele>
        <time>2021-05-23T12:35:22Z</time>
      </trkpt>
      <trkpt lat="42.7400030" lon="-8.6602070">
        <ele>8.8</ele>
        <time>2021-05-23T12:35:23Z</time>
      </trkpt>
      <trkpt lat="42.7400190" lon="-8.6602060">
        <ele>8.8</ele>
        <time>2021-05-23T12:35:24Z</time>
      </trkpt>
      <trkpt lat="42.7400280" lon="-8.6602000">
        <ele>8.7</ele>
        <time>2021-05-23T12:35:25Z</time>
      </trkpt>
      <trkpt lat="42.7400500" lon="-8.6601860">
        <ele>8.7</ele>
        <time>2021-05-23T12:35:26Z</time>
      </trkpt>
      <trkpt lat="42.7400570" lon="-8.6601810">
        <ele>8.7</ele>
        <time>2021-05-23T12:35:27Z</time>
      </trkpt>
      <trkpt lat="42.7400650" lon="-8.6601750">
        <ele>8.7</ele>
        <time>2021-05-23T12:35:28Z</time>
      </trkpt>
      <trkpt lat="42.7400690" lon="-8.6601730">
        <ele>8.7</ele>
        <time>2021-05-23T12:35:29Z</time>
      </trkpt>
      <trkpt lat="42.7400890" lon="-8.6601720">
        <ele>8.7</ele>
        <time>2021-05-23T12:35:30Z</time>
      </trkpt>
      <trkpt lat="42.7400980" lon="-8.6601610">
        <ele>8.7</ele>
        <time>2021-05-23T12:35:31Z</time>
      </trkpt>
      <trkpt lat="42.7401140" lon="-8.6601550">
        <ele>8.7</ele>
        <time>2021-05-23T12:35:32Z</time>
      </trkpt>
      <trkpt lat="42.7401280" lon="-8.6601460">
        <ele>8.7</ele>
        <time>2021-05-23T12:35:33Z</time>
      </trkpt>
      <trkpt lat="42.7401510" lon="-8.6601410">
        <ele>8.7</ele>
        <time>2021-05-23T12:35:34Z</time>
      </trkpt>
      <trkpt lat="42.7401580" lon="-8.6601400">
        <ele>8.7</ele>
        <time>2021-05-23T12:35:35Z</time>
      </trkpt>
      <trkpt lat="42.7401660" lon="-8.6601400">
        <ele>8.7</ele>
        <time>2021-05-23T12:35:36Z</time>
      </trkpt>
      <trkpt lat="42.7401810" lon="-8.6601330">
        <ele>8.7</ele>
        <time>2021-05-23T12:35:37Z</time>
      </trkpt>
      <trkpt lat="42.7401960" lon="-8.6601260">
        <ele>8.7</ele>
        <time>2021-05-23T12:35:38Z</time>
      </trkpt>
      <trkpt lat="42.7402130" lon="-8.6601120">
        <ele>8.6</ele>
        <time>2021-05-23T12:35:39Z</time>
      </trkpt>
      <trkpt lat="42.7402260" lon="-8.6601090">
        <ele>8.6</ele>
        <time>2021-05-23T12:35:40Z</time>
      </trkpt>
      <trkpt lat="42.7402430" lon="-8.6601110">
        <ele>8.6</ele>
        <time>2021-05-23T12:35:41Z</time>
      </trkpt>
      <trkpt lat="42.7402540" lon="-8.6601110">
        <ele>8.6</ele>
        <time>2021-05-23T12:35:42Z</time>
      </trkpt>
      <trkpt lat="42.7402640" lon="-8.6601110">
        <ele>8.6</ele>
        <time>2021-05-23T12:35:43Z</time>
      </trkpt>
      <trkpt lat="42.7402790" lon="-8.6600960">
        <ele>8.6</ele>
        <time>2021-05-23T12:35:44Z</time>
      </trkpt>
      <trkpt lat="42.7402900" lon="-8.6600870">
        <ele>8.6</ele>
        <time>2021-05-23T12:35:45Z</time>
      </trkpt>
      <trkpt lat="42.7403070" lon="-8.6600770">
        <ele>8.6</ele>
        <time>2021-05-23T12:35:46Z</time>
      </trkpt>
      <trkpt lat="42.7403160" lon="-8.6600710">
        <ele>8.6</ele>
        <time>2021-05-23T12:35:47Z</time>
      </trkpt>
      <trkpt lat="42.7403250" lon="-8.6600650">
        <ele>8.6</ele>
        <time>2021-05-23T12:35:48Z</time>
      </trkpt>
      <trkpt lat="42.7403370" lon="-8.6600640">
        <ele>8.6</ele>
        <time>2021-05-23T12:35:49Z</time>
      </trkpt>
      <trkpt lat="42.7403520" lon="-8.6600510">
        <ele>8.6</ele>
        <time>2021-05-23T12:35:50Z</time>
      </trkpt>
      <trkpt lat="42.7403750" lon="-8.6600370">
        <ele>8.6</ele>
        <time>2021-05-23T12:35:51Z</time>
      </trkpt>
      <trkpt lat="42.7403860" lon="-8.6600320">
        <ele>8.6</ele>
        <time>2021-05-23T12:35:52Z</time>
      </trkpt>
      <trkpt lat="42.7403960" lon="-8.6600260">
        <ele>8.6</ele>
        <time>2021-05-23T12:35:53Z</time>
      </trkpt>
      <trkpt lat="42.7404050" lon="-8.6600020">
        <ele>8.6</ele>
        <time>2021-05-23T12:35:54Z</time>
      </trkpt>
      <trkpt lat="42.7404230" lon="-8.6599960">
        <ele>8.6</ele>
        <time>2021-05-23T12:35:55Z</time>
      </trkpt>
      <trkpt lat="42.7404440" lon="-8.6599850">
        <ele>8.6</ele>
        <time>2021-05-23T12:35:56Z</time>
      </trkpt>
      <trkpt lat="42.7404530" lon="-8.6599870">
        <ele>8.6</ele>
        <time>2021-05-23T12:35:57Z</time>
      </trkpt>
      <trkpt lat="42.7404620" lon="-8.6599880">
        <ele>8.6</ele>
        <time>2021-05-23T12:35:58Z</time>
      </trkpt>
      <trkpt lat="42.7404770" lon="-8.6599840">
        <ele>8.6</ele>
        <time>2021-05-23T12:35:59Z</time>
      </trkpt>
      <trkpt lat="42.7404880" lon="-8.6599720">
        <ele>8.6</ele>
        <time>2021-05-23T12:36:00Z</time>
      </trkpt>
      <trkpt lat="42.7405000" lon="-8.6599630">
        <ele>8.6</ele>
        <time>2021-05-23T12:36:01Z</time>
      </trkpt>
      <trkpt lat="42.7405140" lon="-8.6599570">
        <ele>8.6</ele>
        <time>2021-05-23T12:36:02Z</time>
      </trkpt>
      <trkpt lat="42.7405260" lon="-8.6599420">
        <ele>8.6</ele>
        <time>2021-05-23T12:36:03Z</time>
      </trkpt>
      <trkpt lat="42.7405360" lon="-8.6599320">
        <ele>8.6</ele>
        <time>2021-05-23T12:36:04Z</time>
      </trkpt>
      <trkpt lat="42.7405560" lon="-8.6599180">
        <ele>8.6</ele>
        <time>2021-05-23T12:36:05Z</time>
      </trkpt>
      <trkpt lat="42.7405630" lon="-8.6599120">
        <ele>8.6</ele>
        <time>2021-05-23T12:36:06Z</time>
      </trkpt>
      <trkpt lat="42.7405690" lon="-8.6599060">
        <ele>8.6</ele>
        <time>2021-05-23T12:36:07Z</time>
      </trkpt>
      <trkpt lat="42.7405780" lon="-8.6598970">
        <ele>8.6</ele>
        <time>2021-05-23T12:36:08Z</time>
      </trkpt>
      <trkpt lat="42.7405890" lon="-8.6598770">
        <ele>8.6</ele>
        <time>2021-05-23T12:36:09Z</time>
      </trkpt>
      <trkpt lat="42.7405970" lon="-8.6598650">
        <ele>8.6</ele>
        <time>2021-05-23T12:36:10Z</time>
      </trkpt>
      <trkpt lat="42.7406080" lon="-8.6598560">
        <ele>8.5</ele>
        <time>2021-05-23T12:36:11Z</time>
      </trkpt>
      <trkpt lat="42.7406050" lon="-8.6598590">
        <ele>8.5</ele>
        <time>2021-05-23T12:36:12Z</time>
      </trkpt>
      <trkpt lat="42.7405990" lon="-8.6598620">
        <ele>8.5</ele>
        <time>2021-05-23T12:36:13Z</time>
      </trkpt>
      <trkpt lat="42.7406010" lon="-8.6598570">
        <ele>8.5</ele>
        <time>2021-05-23T12:36:14Z</time>
      </trkpt>
      <trkpt lat="42.7406070" lon="-8.6598520">
        <ele>8.5</ele>
        <time>2021-05-23T12:36:15Z</time>
      </trkpt>
      <trkpt lat="42.7406140" lon="-8.6598430">
        <ele>8.5</ele>
        <time>2021-05-23T12:36:16Z</time>
      </trkpt>
      <trkpt lat="42.7406190" lon="-8.6598410">
        <ele>8.5</ele>
        <time>2021-05-23T12:36:17Z</time>
      </trkpt>
      <trkpt lat="42.7406220" lon="-8.6598390">
        <ele>8.5</ele>
        <time>2021-05-23T12:36:18Z</time>
      </trkpt>
      <trkpt lat="42.7406260" lon="-8.6598380">
        <ele>8.5</ele>
        <time>2021-05-23T12:36:19Z</time>
      </trkpt>
      <trkpt lat="42.7406290" lon="-8.6598360">
        <ele>8.5</ele>
        <time>2021-05-23T12:36:20Z</time>
      </trkpt>
      <trkpt lat="42.7406330" lon="-8.6598350">
        <ele>8.5</ele>
        <time>2021-05-23T12:36:21Z</time>
      </trkpt>
      <trkpt lat="42.7406360" lon="-8.6598340">
        <ele>8.5</ele>
        <time>2021-05-23T12:36:22Z</time>
      </trkpt>
      <trkpt lat="42.7406400" lon="-8.6598320">
        <ele>8.5</ele>
        <time>2021-05-23T12:36:23Z</time>
      </trkpt>
      <trkpt lat="42.7406430" lon="-8.6598310">
        <ele>8.5</ele>
        <time>2021-05-23T12:36:24Z</time>
      </trkpt>
      <trkpt lat="42.7406470" lon="-8.6598290">
        <ele>8.5</ele>
        <time>2021-05-23T12:36:25Z</time>
      </trkpt>
      <trkpt lat="42.7406500" lon="-8.6598280">
        <ele>8.5</ele>
        <time>2021-05-23T12:36:26Z</time>
      </trkpt>
      <trkpt lat="42.7406600" lon="-8.6598180">
        <ele>8.5</ele>
        <time>2021-05-23T12:36:27Z</time>
      </trkpt>
      <trkpt lat="42.7406670" lon="-8.6598110">
        <ele>8.5</ele>
        <time>2021-05-23T12:36:28Z</time>
      </trkpt>
      <trkpt lat="42.7406750" lon="-8.6598050">
        <ele>8.5</ele>
        <time>2021-05-23T12:36:29Z</time>
      </trkpt>
      <trkpt lat="42.7406820" lon="-8.6597980">
        <ele>8.5</ele>
        <time>2021-05-23T12:36:30Z</time>
      </trkpt>
      <trkpt lat="42.7407000" lon="-8.6597770">
        <ele>8.5</ele>
        <time>2021-05-23T12:36:31Z</time>
      </trkpt>
      <trkpt lat="42.7407060" lon="-8.6597690">
        <ele>8.5</ele>
        <time>2021-05-23T12:36:32Z</time>
      </trkpt>
      <trkpt lat="42.7407130" lon="-8.6597600">
        <ele>8.5</ele>
        <time>2021-05-23T12:36:33Z</time>
      </trkpt>
      <trkpt lat="42.7407180" lon="-8.6597500">
        <ele>8.5</ele>
        <time>2021-05-23T12:36:34Z</time>
      </trkpt>
      <trkpt lat="42.7407260" lon="-8.6597410">
        <ele>8.4</ele>
        <time>2021-05-23T12:36:35Z</time>
      </trkpt>
      <trkpt lat="42.7407320" lon="-8.6597360">
        <ele>8.4</ele>
        <time>2021-05-23T12:36:36Z</time>
      </trkpt>
      <trkpt lat="42.7407390" lon="-8.6597280">
        <ele>8.4</ele>
        <time>2021-05-23T12:36:37Z</time>
      </trkpt>
      <trkpt lat="42.7407530" lon="-8.6597190">
        <ele>8.4</ele>
        <time>2021-05-23T12:36:38Z</time>
      </trkpt>
      <trkpt lat="42.7407610" lon="-8.6597100">
        <ele>8.4</ele>
        <time>2021-05-23T12:36:39Z</time>
      </trkpt>
      <trkpt lat="42.7407690" lon="-8.6597060">
        <ele>8.4</ele>
        <time>2021-05-23T12:36:41Z</time>
      </trkpt>
      <trkpt lat="42.7407790" lon="-8.6597020">
        <ele>8.4</ele>
        <time>2021-05-23T12:36:42Z</time>
      </trkpt>
      <trkpt lat="42.7407890" lon="-8.6596920">
        <ele>8.4</ele>
        <time>2021-05-23T12:36:43Z</time>
      </trkpt>
      <trkpt lat="42.7407990" lon="-8.6596890">
        <ele>8.4</ele>
        <time>2021-05-23T12:36:44Z</time>
      </trkpt>
      <trkpt lat="42.7408150" lon="-8.6596840">
        <ele>8.4</ele>
        <time>2021-05-23T12:36:45Z</time>
      </trkpt>
      <trkpt lat="42.7408260" lon="-8.6596780">
        <ele>8.4</ele>
        <time>2021-05-23T12:36:46Z</time>
      </trkpt>
      <trkpt lat="42.7408360" lon="-8.6596720">
        <ele>8.4</ele>
        <time>2021-05-23T12:36:47Z</time>
      </trkpt>
      <trkpt lat="42.7408560" lon="-8.6596570">
        <ele>8.4</ele>
        <time>2021-05-23T12:36:48Z</time>
      </trkpt>
      <trkpt lat="42.7408630" lon="-8.6596500">
        <ele>8.4</ele>
        <time>2021-05-23T12:36:49Z</time>
      </trkpt>
      <trkpt lat="42.7408710" lon="-8.6596440">
        <ele>8.4</ele>
        <time>2021-05-23T12:36:50Z</time>
      </trkpt>
      <trkpt lat="42.7408880" lon="-8.6596360">
        <ele>8.3</ele>
        <time>2021-05-23T12:36:51Z</time>
      </trkpt>
      <trkpt lat="42.7408950" lon="-8.6596290">
        <ele>8.3</ele>
        <time>2021-05-23T12:36:52Z</time>
      </trkpt>
      <trkpt lat="42.7409020" lon="-8.6596230">
        <ele>8.3</ele>
        <time>2021-05-23T12:36:53Z</time>
      </trkpt>
      <trkpt lat="42.7409090" lon="-8.6596160">
        <ele>8.3</ele>
        <time>2021-05-23T12:36:54Z</time>
      </trkpt>
      <trkpt lat="42.7409240" lon="-8.6596040">
        <ele>8.3</ele>
        <time>2021-05-23T12:36:55Z</time>
      </trkpt>
      <trkpt lat="42.7409320" lon="-8.6595940">
        <ele>8.3</ele>
        <time>2021-05-23T12:36:56Z</time>
      </trkpt>
      <trkpt lat="42.7409410" lon="-8.6595840">
        <ele>8.3</ele>
        <time>2021-05-23T12:36:57Z</time>
      </trkpt>
      <trkpt lat="42.7409530" lon="-8.6595840">
        <ele>8.3</ele>
        <time>2021-05-23T12:36:58Z</time>
      </trkpt>
      <trkpt lat="42.7409680" lon="-8.6595670">
        <ele>8.3</ele>
        <time>2021-05-23T12:36:59Z</time>
      </trkpt>
      <trkpt lat="42.7409810" lon="-8.6595600">
        <ele>8.3</ele>
        <time>2021-05-23T12:37:00Z</time>
      </trkpt>
      <trkpt lat="42.7409930" lon="-8.6595480">
        <ele>8.3</ele>
        <time>2021-05-23T12:37:01Z</time>
      </trkpt>
      <trkpt lat="42.7410070" lon="-8.6595440">
        <ele>8.3</ele>
        <time>2021-05-23T12:37:02Z</time>
      </trkpt>
      <trkpt lat="42.7410150" lon="-8.6595360">
        <ele>8.3</ele>
        <time>2021-05-23T12:37:03Z</time>
      </trkpt>
      <trkpt lat="42.7410240" lon="-8.6595300">
        <ele>8.3</ele>
        <time>2021-05-23T12:37:04Z</time>
      </trkpt>
      <trkpt lat="42.7410310" lon="-8.6595150">
        <ele>8.3</ele>
        <time>2021-05-23T12:37:05Z</time>
      </trkpt>
      <trkpt lat="42.7410460" lon="-8.6595030">
        <ele>8.3</ele>
        <time>2021-05-23T12:37:06Z</time>
      </trkpt>
      <trkpt lat="42.7410550" lon="-8.6594920">
        <ele>8.3</ele>
        <time>2021-05-23T12:37:07Z</time>
      </trkpt>
      <trkpt lat="42.7410710" lon="-8.6594910">
        <ele>8.3</ele>
        <time>2021-05-23T12:37:08Z</time>
      </trkpt>
      <trkpt lat="42.7410790" lon="-8.6594870">
        <ele>8.3</ele>
        <time>2021-05-23T12:37:09Z</time>
      </trkpt>
      <trkpt lat="42.7411010" lon="-8.6594720">
        <ele>8.3</ele>
        <time>2021-05-23T12:37:10Z</time>
      </trkpt>
      <trkpt lat="42.7411090" lon="-8.6594650">
        <ele>8.3</ele>
        <time>2021-05-23T12:37:11Z</time>
      </trkpt>
      <trkpt lat="42.7411180" lon="-8.6594570">
        <ele>8.3</ele>
        <time>2021-05-23T12:37:12Z</time>
      </trkpt>
      <trkpt lat="42.7411270" lon="-8.6594490">
        <ele>8.3</ele>
        <time>2021-05-23T12:37:13Z</time>
      </trkpt>
      <trkpt lat="42.7411350" lon="-8.6594460">
        <ele>8.3</ele>
        <time>2021-05-23T12:37:14Z</time>
      </trkpt>
      <trkpt lat="42.7411540" lon="-8.6594580">
        <ele>8.3</ele>
        <time>2021-05-23T12:37:15Z</time>
      </trkpt>
      <trkpt lat="42.7411780" lon="-8.6594510">
        <ele>8.3</ele>
        <time>2021-05-23T12:37:16Z</time>
      </trkpt>
      <trkpt lat="42.7411880" lon="-8.6594490">
        <ele>8.3</ele>
        <time>2021-05-23T12:37:17Z</time>
      </trkpt>
      <trkpt lat="42.7411990" lon="-8.6594480">
        <ele>8.3</ele>
        <time>2021-05-23T12:37:18Z</time>
      </trkpt>
      <trkpt lat="42.7412200" lon="-8.6594440">
        <ele>8.3</ele>
        <time>2021-05-23T12:37:19Z</time>
      </trkpt>
      <trkpt lat="42.7412280" lon="-8.6594400">
        <ele>8.3</ele>
        <time>2021-05-23T12:37:20Z</time>
      </trkpt>
      <trkpt lat="42.7412370" lon="-8.6594350">
        <ele>8.3</ele>
        <time>2021-05-23T12:37:21Z</time>
      </trkpt>
      <trkpt lat="42.7412550" lon="-8.6594270">
        <ele>8.3</ele>
        <time>2021-05-23T12:37:22Z</time>
      </trkpt>
      <trkpt lat="42.7412700" lon="-8.6594230">
        <ele>8.3</ele>
        <time>2021-05-23T12:37:23Z</time>
      </trkpt>
      <trkpt lat="42.7412810" lon="-8.6594200">
        <ele>8.3</ele>
        <time>2021-05-23T12:37:24Z</time>
      </trkpt>
      <trkpt lat="42.7412900" lon="-8.6594300">
        <ele>8.3</ele>
        <time>2021-05-23T12:37:25Z</time>
      </trkpt>
      <trkpt lat="42.7413130" lon="-8.6594270">
        <ele>8.3</ele>
        <time>2021-05-23T12:37:26Z</time>
      </trkpt>
      <trkpt lat="42.7413290" lon="-8.6594190">
        <ele>8.3</ele>
        <time>2021-05-23T12:37:27Z</time>
      </trkpt>
      <trkpt lat="42.7413360" lon="-8.6594170">
        <ele>8.3</ele>
        <time>2021-05-23T12:37:28Z</time>
      </trkpt>
      <trkpt lat="42.7413520" lon="-8.6594100">
        <ele>8.3</ele>
        <time>2021-05-23T12:37:29Z</time>
      </trkpt>
      <trkpt lat="42.7413680" lon="-8.6594070">
        <ele>8.3</ele>
        <time>2021-05-23T12:37:30Z</time>
      </trkpt>
      <trkpt lat="42.7413970" lon="-8.6593990">
        <ele>8.3</ele>
        <time>2021-05-23T12:37:31Z</time>
      </trkpt>
      <trkpt lat="42.7414050" lon="-8.6593950">
        <ele>8.3</ele>
        <time>2021-05-23T12:37:32Z</time>
      </trkpt>
      <trkpt lat="42.7414250" lon="-8.6593860">
        <ele>8.3</ele>
        <time>2021-05-23T12:37:33Z</time>
      </trkpt>
      <trkpt lat="42.7414330" lon="-8.6593770">
        <ele>8.3</ele>
        <time>2021-05-23T12:37:34Z</time>
      </trkpt>
      <trkpt lat="42.7414400" lon="-8.6593680">
        <ele>8.3</ele>
        <time>2021-05-23T12:37:35Z</time>
      </trkpt>
      <trkpt lat="42.7414580" lon="-8.6593710">
        <ele>8.4</ele>
        <time>2021-05-23T12:37:36Z</time>
      </trkpt>
      <trkpt lat="42.7414670" lon="-8.6593680">
        <ele>8.4</ele>
        <time>2021-05-23T12:37:37Z</time>
      </trkpt>
      <trkpt lat="42.7414770" lon="-8.6593650">
        <ele>8.4</ele>
        <time>2021-05-23T12:37:38Z</time>
      </trkpt>
      <trkpt lat="42.7414890" lon="-8.6593570">
        <ele>8.4</ele>
        <time>2021-05-23T12:37:39Z</time>
      </trkpt>
      <trkpt lat="42.7414980" lon="-8.6593550">
        <ele>8.4</ele>
        <time>2021-05-23T12:37:40Z</time>
      </trkpt>
      <trkpt lat="42.7415090" lon="-8.6593490">
        <ele>8.4</ele>
        <time>2021-05-23T12:37:41Z</time>
      </trkpt>
      <trkpt lat="42.7415280" lon="-8.6593360">
        <ele>8.4</ele>
        <time>2021-05-23T12:37:42Z</time>
      </trkpt>
      <trkpt lat="42.7415370" lon="-8.6593300">
        <ele>8.4</ele>
        <time>2021-05-23T12:37:43Z</time>
      </trkpt>
      <trkpt lat="42.7415470" lon="-8.6593240">
        <ele>8.4</ele>
        <time>2021-05-23T12:37:44Z</time>
      </trkpt>
      <trkpt lat="42.7415610" lon="-8.6593180">
        <ele>8.4</ele>
        <time>2021-05-23T12:37:45Z</time>
      </trkpt>
      <trkpt lat="42.7415760" lon="-8.6593080">
        <ele>8.4</ele>
        <time>2021-05-23T12:37:46Z</time>
      </trkpt>
      <trkpt lat="42.7415920" lon="-8.6593080">
        <ele>8.4</ele>
        <time>2021-05-23T12:37:47Z</time>
      </trkpt>
      <trkpt lat="42.7416030" lon="-8.6593030">
        <ele>8.4</ele>
        <time>2021-05-23T12:37:48Z</time>
      </trkpt>
      <trkpt lat="42.7416180" lon="-8.6592940">
        <ele>8.4</ele>
        <time>2021-05-23T12:37:49Z</time>
      </trkpt>
      <trkpt lat="42.7416350" lon="-8.6592910">
        <ele>8.4</ele>
        <time>2021-05-23T12:37:50Z</time>
      </trkpt>
      <trkpt lat="42.7416530" lon="-8.6592860">
        <ele>8.4</ele>
        <time>2021-05-23T12:37:51Z</time>
      </trkpt>
      <trkpt lat="42.7416660" lon="-8.6592780">
        <ele>8.4</ele>
        <time>2021-05-23T12:37:52Z</time>
      </trkpt>
      <trkpt lat="42.7416820" lon="-8.6592720">
        <ele>8.4</ele>
        <time>2021-05-23T12:37:53Z</time>
      </trkpt>
      <trkpt lat="42.7416950" lon="-8.6592660">
        <ele>8.4</ele>
        <time>2021-05-23T12:37:54Z</time>
      </trkpt>
      <trkpt lat="42.7417000" lon="-8.6592600">
        <ele>8.4</ele>
        <time>2021-05-23T12:37:55Z</time>
      </trkpt>
      <trkpt lat="42.7417120" lon="-8.6592540">
        <ele>8.4</ele>
        <time>2021-05-23T12:37:56Z</time>
      </trkpt>
      <trkpt lat="42.7417240" lon="-8.6592490">
        <ele>8.4</ele>
        <time>2021-05-23T12:37:57Z</time>
      </trkpt>
      <trkpt lat="42.7417440" lon="-8.6592380">
        <ele>8.4</ele>
        <time>2021-05-23T12:37:58Z</time>
      </trkpt>
      <trkpt lat="42.7417520" lon="-8.6592340">
        <ele>8.4</ele>
        <time>2021-05-23T12:37:59Z</time>
      </trkpt>
      <trkpt lat="42.7417610" lon="-8.6592310">
        <ele>8.4</ele>
        <time>2021-05-23T12:38:00Z</time>
      </trkpt>
      <trkpt lat="42.7417730" lon="-8.6592270">
        <ele>8.4</ele>
        <time>2021-05-23T12:38:01Z</time>
      </trkpt>
      <trkpt lat="42.7417910" lon="-8.6592260">
        <ele>8.4</ele>
        <time>2021-05-23T12:38:02Z</time>
      </trkpt>
      <trkpt lat="42.7418100" lon="-8.6592100">
        <ele>8.4</ele>
        <time>2021-05-23T12:38:03Z</time>
      </trkpt>
      <trkpt lat="42.7418160" lon="-8.6592010">
        <ele>8.4</ele>
        <time>2021-05-23T12:38:04Z</time>
      </trkpt>
      <trkpt lat="42.7418220" lon="-8.6591920">
        <ele>8.4</ele>
        <time>2021-05-23T12:38:05Z</time>
      </trkpt>
      <trkpt lat="42.7418380" lon="-8.6591840">
        <ele>8.4</ele>
        <time>2021-05-23T12:38:06Z</time>
      </trkpt>
      <trkpt lat="42.7418460" lon="-8.6591810">
        <ele>8.4</ele>
        <time>2021-05-23T12:38:07Z</time>
      </trkpt>
      <trkpt lat="42.7418540" lon="-8.6591710">
        <ele>8.4</ele>
        <time>2021-05-23T12:38:08Z</time>
      </trkpt>
      <trkpt lat="42.7418670" lon="-8.6591570">
        <ele>8.4</ele>
        <time>2021-05-23T12:38:09Z</time>
      </trkpt>
      <trkpt lat="42.7418750" lon="-8.6591500">
        <ele>8.4</ele>
        <time>2021-05-23T12:38:10Z</time>
      </trkpt>
      <trkpt lat="42.7418830" lon="-8.6591420">
        <ele>8.4</ele>
        <time>2021-05-23T12:38:11Z</time>
      </trkpt>
      <trkpt lat="42.7419060" lon="-8.6591340">
        <ele>8.4</ele>
        <time>2021-05-23T12:38:12Z</time>
      </trkpt>
      <trkpt lat="42.7419150" lon="-8.6591310">
        <ele>8.4</ele>
        <time>2021-05-23T12:38:13Z</time>
      </trkpt>
      <trkpt lat="42.7419250" lon="-8.6591270">
        <ele>8.4</ele>
        <time>2021-05-23T12:38:14Z</time>
      </trkpt>
      <trkpt lat="42.7419430" lon="-8.6591110">
        <ele>8.4</ele>
        <time>2021-05-23T12:38:15Z</time>
      </trkpt>
      <trkpt lat="42.7419490" lon="-8.6591010">
        <ele>8.4</ele>
        <time>2021-05-23T12:38:16Z</time>
      </trkpt>
      <trkpt lat="42.7419550" lon="-8.6590900">
        <ele>8.4</ele>
        <time>2021-05-23T12:38:17Z</time>
      </trkpt>
      <trkpt lat="42.7419620" lon="-8.6590750">
        <ele>8.4</ele>
        <time>2021-05-23T12:38:18Z</time>
      </trkpt>
      <trkpt lat="42.7419720" lon="-8.6590670">
        <ele>8.4</ele>
        <time>2021-05-23T12:38:19Z</time>
      </trkpt>
      <trkpt lat="42.7419800" lon="-8.6590560">
        <ele>8.4</ele>
        <time>2021-05-23T12:38:20Z</time>
      </trkpt>
      <trkpt lat="42.7419930" lon="-8.6590430">
        <ele>8.4</ele>
        <time>2021-05-23T12:38:21Z</time>
      </trkpt>
      <trkpt lat="42.7420020" lon="-8.6590330">
        <ele>8.4</ele>
        <time>2021-05-23T12:38:22Z</time>
      </trkpt>
      <trkpt lat="42.7420150" lon="-8.6590180">
        <ele>8.4</ele>
        <time>2021-05-23T12:38:23Z</time>
      </trkpt>
      <trkpt lat="42.7420220" lon="-8.6590070">
        <ele>8.4</ele>
        <time>2021-05-23T12:38:24Z</time>
      </trkpt>
      <trkpt lat="42.7420450" lon="-8.6589930">
        <ele>8.4</ele>
        <time>2021-05-23T12:38:25Z</time>
      </trkpt>
      <trkpt lat="42.7420520" lon="-8.6589830">
        <ele>8.4</ele>
        <time>2021-05-23T12:38:27Z</time>
      </trkpt>
      <trkpt lat="42.7420590" lon="-8.6589740">
        <ele>8.4</ele>
        <time>2021-05-23T12:38:28Z</time>
      </trkpt>
      <trkpt lat="42.7420660" lon="-8.6589640">
        <ele>8.4</ele>
        <time>2021-05-23T12:38:29Z</time>
      </trkpt>
      <trkpt lat="42.7420730" lon="-8.6589550">
        <ele>8.4</ele>
        <time>2021-05-23T12:38:30Z</time>
      </trkpt>
      <trkpt lat="42.7420810" lon="-8.6589430">
        <ele>8.4</ele>
        <time>2021-05-23T12:38:31Z</time>
      </trkpt>
      <trkpt lat="42.7420910" lon="-8.6589220">
        <ele>8.4</ele>
        <time>2021-05-23T12:38:32Z</time>
      </trkpt>
      <trkpt lat="42.7421080" lon="-8.6589060">
        <ele>8.4</ele>
        <time>2021-05-23T12:38:33Z</time>
      </trkpt>
      <trkpt lat="42.7421150" lon="-8.6588980">
        <ele>8.4</ele>
        <time>2021-05-23T12:38:34Z</time>
      </trkpt>
      <trkpt lat="42.7421220" lon="-8.6588910">
        <ele>8.4</ele>
        <time>2021-05-23T12:38:35Z</time>
      </trkpt>
      <trkpt lat="42.7421290" lon="-8.6588810">
        <ele>8.4</ele>
        <time>2021-05-23T12:38:36Z</time>
      </trkpt>
      <trkpt lat="42.7421420" lon="-8.6588720">
        <ele>8.4</ele>
        <time>2021-05-23T12:38:37Z</time>
      </trkpt>
      <trkpt lat="42.7421530" lon="-8.6588640">
        <ele>8.4</ele>
        <time>2021-05-23T12:38:38Z</time>
      </trkpt>
      <trkpt lat="42.7421630" lon="-8.6588580">
        <ele>8.4</ele>
        <time>2021-05-23T12:38:39Z</time>
      </trkpt>
      <trkpt lat="42.7421740" lon="-8.6588460">
        <ele>8.4</ele>
        <time>2021-05-23T12:38:40Z</time>
      </trkpt>
      <trkpt lat="42.7421820" lon="-8.6588350">
        <ele>8.4</ele>
        <time>2021-05-23T12:38:41Z</time>
      </trkpt>
      <trkpt lat="42.7421960" lon="-8.6588280">
        <ele>8.4</ele>
        <time>2021-05-23T12:38:42Z</time>
      </trkpt>
      <trkpt lat="42.7422100" lon="-8.6588190">
        <ele>8.4</ele>
        <time>2021-05-23T12:38:43Z</time>
      </trkpt>
      <trkpt lat="42.7422170" lon="-8.6588100">
        <ele>8.4</ele>
        <time>2021-05-23T12:38:44Z</time>
      </trkpt>
      <trkpt lat="42.7422280" lon="-8.6587970">
        <ele>8.5</ele>
        <time>2021-05-23T12:38:45Z</time>
      </trkpt>
      <trkpt lat="42.7422370" lon="-8.6587890">
        <ele>8.5</ele>
        <time>2021-05-23T12:38:46Z</time>
      </trkpt>
      <trkpt lat="42.7422490" lon="-8.6587650">
        <ele>8.5</ele>
        <time>2021-05-23T12:38:47Z</time>
      </trkpt>
      <trkpt lat="42.7422560" lon="-8.6587570">
        <ele>8.5</ele>
        <time>2021-05-23T12:38:48Z</time>
      </trkpt>
      <trkpt lat="42.7422630" lon="-8.6587480">
        <ele>8.5</ele>
        <time>2021-05-23T12:38:49Z</time>
      </trkpt>
      <trkpt lat="42.7422720" lon="-8.6587370">
        <ele>8.5</ele>
        <time>2021-05-23T12:38:50Z</time>
      </trkpt>
      <trkpt lat="42.7422760" lon="-8.6587210">
        <ele>8.5</ele>
        <time>2021-05-23T12:38:51Z</time>
      </trkpt>
      <trkpt lat="42.7422880" lon="-8.6587120">
        <ele>8.5</ele>
        <time>2021-05-23T12:38:52Z</time>
      </trkpt>
      <trkpt lat="42.7422990" lon="-8.6587020">
        <ele>8.5</ele>
        <time>2021-05-23T12:38:53Z</time>
      </trkpt>
      <trkpt lat="42.7423080" lon="-8.6586950">
        <ele>8.5</ele>
        <time>2021-05-23T12:38:54Z</time>
      </trkpt>
      <trkpt lat="42.7423200" lon="-8.6586920">
        <ele>8.5</ele>
        <time>2021-05-23T12:38:55Z</time>
      </trkpt>
      <trkpt lat="42.7423330" lon="-8.6586780">
        <ele>8.5</ele>
        <time>2021-05-23T12:38:56Z</time>
      </trkpt>
      <trkpt lat="42.7423440" lon="-8.6586640">
        <ele>8.5</ele>
        <time>2021-05-23T12:38:57Z</time>
      </trkpt>
      <trkpt lat="42.7423530" lon="-8.6586500">
        <ele>8.5</ele>
        <time>2021-05-23T12:38:58Z</time>
      </trkpt>
      <trkpt lat="42.7423660" lon="-8.6586410">
        <ele>8.5</ele>
        <time>2021-05-23T12:38:59Z</time>
      </trkpt>
      <trkpt lat="42.7423740" lon="-8.6586310">
        <ele>8.6</ele>
        <time>2021-05-23T12:39:00Z</time>
      </trkpt>
      <trkpt lat="42.7423820" lon="-8.6586210">
        <ele>8.6</ele>
        <time>2021-05-23T12:39:01Z</time>
      </trkpt>
      <trkpt lat="42.7423890" lon="-8.6586110">
        <ele>8.6</ele>
        <time>2021-05-23T12:39:02Z</time>
      </trkpt>
      <trkpt lat="42.7424110" lon="-8.6586020">
        <ele>8.6</ele>
        <time>2021-05-23T12:39:03Z</time>
      </trkpt>
      <trkpt lat="42.7424170" lon="-8.6585980">
        <ele>8.6</ele>
        <time>2021-05-23T12:39:04Z</time>
      </trkpt>
      <trkpt lat="42.7424240" lon="-8.6585930">
        <ele>8.6</ele>
        <time>2021-05-23T12:39:05Z</time>
      </trkpt>
      <trkpt lat="42.7424320" lon="-8.6585820">
        <ele>8.6</ele>
        <time>2021-05-23T12:39:06Z</time>
      </trkpt>
      <trkpt lat="42.7424400" lon="-8.6585750">
        <ele>8.6</ele>
        <time>2021-05-23T12:39:07Z</time>
      </trkpt>
      <trkpt lat="42.7424500" lon="-8.6585690">
        <ele>8.6</ele>
        <time>2021-05-23T12:39:08Z</time>
      </trkpt>
      <trkpt lat="42.7424630" lon="-8.6585510">
        <ele>8.6</ele>
        <time>2021-05-23T12:39:09Z</time>
      </trkpt>
      <trkpt lat="42.7424670" lon="-8.6585450">
        <ele>8.6</ele>
        <time>2021-05-23T12:39:10Z</time>
      </trkpt>
      <trkpt lat="42.7424780" lon="-8.6585420">
        <ele>8.7</ele>
        <time>2021-05-23T12:39:11Z</time>
      </trkpt>
      <trkpt lat="42.7424910" lon="-8.6585280">
        <ele>8.7</ele>
        <time>2021-05-23T12:39:12Z</time>
      </trkpt>
      <trkpt lat="42.7425050" lon="-8.6585280">
        <ele>8.7</ele>
        <time>2021-05-23T12:39:13Z</time>
      </trkpt>
      <trkpt lat="42.7425180" lon="-8.6585190">
        <ele>8.7</ele>
        <time>2021-05-23T12:39:14Z</time>
      </trkpt>
      <trkpt lat="42.7425320" lon="-8.6585210">
        <ele>8.7</ele>
        <time>2021-05-23T12:39:15Z</time>
      </trkpt>
      <trkpt lat="42.7425490" lon="-8.6585020">
        <ele>8.7</ele>
        <time>2021-05-23T12:39:16Z</time>
      </trkpt>
      <trkpt lat="42.7425530" lon="-8.6584920">
        <ele>8.7</ele>
        <time>2021-05-23T12:39:17Z</time>
      </trkpt>
      <trkpt lat="42.7425580" lon="-8.6584820">
        <ele>8.7</ele>
        <time>2021-05-23T12:39:18Z</time>
      </trkpt>
      <trkpt lat="42.7425720" lon="-8.6584630">
        <ele>8.7</ele>
        <time>2021-05-23T12:39:19Z</time>
      </trkpt>
      <trkpt lat="42.7425800" lon="-8.6584520">
        <ele>8.8</ele>
        <time>2021-05-23T12:39:20Z</time>
      </trkpt>
      <trkpt lat="42.7425880" lon="-8.6584410">
        <ele>8.8</ele>
        <time>2021-05-23T12:39:21Z</time>
      </trkpt>
      <trkpt lat="42.7425990" lon="-8.6584300">
        <ele>8.8</ele>
        <time>2021-05-23T12:39:22Z</time>
      </trkpt>
      <trkpt lat="42.7426130" lon="-8.6584190">
        <ele>8.8</ele>
        <time>2021-05-23T12:39:23Z</time>
      </trkpt>
      <trkpt lat="42.7426260" lon="-8.6584100">
        <ele>8.8</ele>
        <time>2021-05-23T12:39:24Z</time>
      </trkpt>
      <trkpt lat="42.7426370" lon="-8.6584030">
        <ele>8.8</ele>
        <time>2021-05-23T12:39:25Z</time>
      </trkpt>
      <trkpt lat="42.7426530" lon="-8.6583940">
        <ele>8.8</ele>
        <time>2021-05-23T12:39:26Z</time>
      </trkpt>
      <trkpt lat="42.7426690" lon="-8.6583810">
        <ele>8.8</ele>
        <time>2021-05-23T12:39:27Z</time>
      </trkpt>
      <trkpt lat="42.7426930" lon="-8.6583610">
        <ele>8.8</ele>
        <time>2021-05-23T12:39:28Z</time>
      </trkpt>
      <trkpt lat="42.7426990" lon="-8.6583520">
        <ele>8.8</ele>
        <time>2021-05-23T12:39:29Z</time>
      </trkpt>
      <trkpt lat="42.7427140" lon="-8.6583370">
        <ele>8.8</ele>
        <time>2021-05-23T12:39:30Z</time>
      </trkpt>
      <trkpt lat="42.7427280" lon="-8.6583280">
        <ele>8.8</ele>
        <time>2021-05-23T12:39:31Z</time>
      </trkpt>
      <trkpt lat="42.7427560" lon="-8.6583050">
        <ele>8.7</ele>
        <time>2021-05-23T12:39:32Z</time>
      </trkpt>
      <trkpt lat="42.7427640" lon="-8.6583010">
        <ele>8.7</ele>
        <time>2021-05-23T12:39:33Z</time>
      </trkpt>
      <trkpt lat="42.7427800" lon="-8.6582860">
        <ele>8.7</ele>
        <time>2021-05-23T12:39:34Z</time>
      </trkpt>
      <trkpt lat="42.7427890" lon="-8.6582790">
        <ele>8.7</ele>
        <time>2021-05-23T12:39:35Z</time>
      </trkpt>
      <trkpt lat="42.7427970" lon="-8.6582730">
        <ele>8.7</ele>
        <time>2021-05-23T12:39:36Z</time>
      </trkpt>
      <trkpt lat="42.7427920" lon="-8.6582640">
        <ele>8.7</ele>
        <time>2021-05-23T12:39:37Z</time>
      </trkpt>
      <trkpt lat="42.7427900" lon="-8.6582580">
        <ele>8.7</ele>
        <time>2021-05-23T12:39:38Z</time>
      </trkpt>
      <trkpt lat="42.7427820" lon="-8.6582490">
        <ele>8.7</ele>
        <time>2021-05-23T12:39:39Z</time>
      </trkpt>
      <trkpt lat="42.7427810" lon="-8.6582420">
        <ele>8.7</ele>
        <time>2021-05-23T12:39:40Z</time>
      </trkpt>
      <trkpt lat="42.7427890" lon="-8.6582310">
        <ele>8.7</ele>
        <time>2021-05-23T12:39:41Z</time>
      </trkpt>
      <trkpt lat="42.7427990" lon="-8.6582240">
        <ele>8.7</ele>
        <time>2021-05-23T12:39:42Z</time>
      </trkpt>
      <trkpt lat="42.7428060" lon="-8.6582170">
        <ele>8.7</ele>
        <time>2021-05-23T12:39:43Z</time>
      </trkpt>
      <trkpt lat="42.7428120" lon="-8.6581950">
        <ele>8.7</ele>
        <time>2021-05-23T12:39:44Z</time>
      </trkpt>
      <trkpt lat="42.7428180" lon="-8.6581870">
        <ele>8.7</ele>
        <time>2021-05-23T12:39:45Z</time>
      </trkpt>
      <trkpt lat="42.7428290" lon="-8.6581790">
        <ele>8.7</ele>
        <time>2021-05-23T12:39:46Z</time>
      </trkpt>
      <trkpt lat="42.7428490" lon="-8.6581700">
        <ele>8.7</ele>
        <time>2021-05-23T12:39:47Z</time>
      </trkpt>
      <trkpt lat="42.7428570" lon="-8.6581650">
        <ele>8.7</ele>
        <time>2021-05-23T12:39:48Z</time>
      </trkpt>
      <trkpt lat="42.7428650" lon="-8.6581590">
        <ele>8.7</ele>
        <time>2021-05-23T12:39:49Z</time>
      </trkpt>
      <trkpt lat="42.7428830" lon="-8.6581460">
        <ele>8.7</ele>
        <time>2021-05-23T12:39:50Z</time>
      </trkpt>
      <trkpt lat="42.7428920" lon="-8.6581440">
        <ele>8.7</ele>
        <time>2021-05-23T12:39:51Z</time>
      </trkpt>
      <trkpt lat="42.7429020" lon="-8.6581430">
        <ele>8.7</ele>
        <time>2021-05-23T12:39:52Z</time>
      </trkpt>
      <trkpt lat="42.7429100" lon="-8.6581410">
        <ele>8.7</ele>
        <time>2021-05-23T12:39:53Z</time>
      </trkpt>
      <trkpt lat="42.7429310" lon="-8.6581300">
        <ele>8.7</ele>
        <time>2021-05-23T12:39:54Z</time>
      </trkpt>
      <trkpt lat="42.7429400" lon="-8.6581230">
        <ele>8.7</ele>
        <time>2021-05-23T12:39:55Z</time>
      </trkpt>
      <trkpt lat="42.7429470" lon="-8.6581060">
        <ele>8.7</ele>
        <time>2021-05-23T12:39:56Z</time>
      </trkpt>
      <trkpt lat="42.7429560" lon="-8.6580970">
        <ele>8.7</ele>
        <time>2021-05-23T12:39:57Z</time>
      </trkpt>
      <trkpt lat="42.7429690" lon="-8.6580860">
        <ele>8.7</ele>
        <time>2021-05-23T12:39:58Z</time>
      </trkpt>
      <trkpt lat="42.7429760" lon="-8.6580810">
        <ele>8.7</ele>
        <time>2021-05-23T12:39:59Z</time>
      </trkpt>
      <trkpt lat="42.7429820" lon="-8.6580770">
        <ele>8.7</ele>
        <time>2021-05-23T12:40:00Z</time>
      </trkpt>
      <trkpt lat="42.7429890" lon="-8.6580720">
        <ele>8.7</ele>
        <time>2021-05-23T12:40:01Z</time>
      </trkpt>
      <trkpt lat="42.7429950" lon="-8.6580680">
        <ele>8.7</ele>
        <time>2021-05-23T12:40:02Z</time>
      </trkpt>
      <trkpt lat="42.7430060" lon="-8.6580620">
        <ele>8.7</ele>
        <time>2021-05-23T12:40:03Z</time>
      </trkpt>
      <trkpt lat="42.7430240" lon="-8.6580440">
        <ele>8.7</ele>
        <time>2021-05-23T12:40:04Z</time>
      </trkpt>
      <trkpt lat="42.7430410" lon="-8.6580380">
        <ele>8.7</ele>
        <time>2021-05-23T12:40:05Z</time>
      </trkpt>
      <trkpt lat="42.7430530" lon="-8.6580260">
        <ele>8.7</ele>
        <time>2021-05-23T12:40:06Z</time>
      </trkpt>
      <trkpt lat="42.7430650" lon="-8.6580120">
        <ele>8.7</ele>
        <time>2021-05-23T12:40:07Z</time>
      </trkpt>
      <trkpt lat="42.7430750" lon="-8.6579930">
        <ele>8.7</ele>
        <time>2021-05-23T12:40:08Z</time>
      </trkpt>
      <trkpt lat="42.7430840" lon="-8.6579760">
        <ele>8.7</ele>
        <time>2021-05-23T12:40:09Z</time>
      </trkpt>
      <trkpt lat="42.7430980" lon="-8.6579660">
        <ele>8.7</ele>
        <time>2021-05-23T12:40:10Z</time>
      </trkpt>
      <trkpt lat="42.7431060" lon="-8.6579580">
        <ele>8.7</ele>
        <time>2021-05-23T12:40:11Z</time>
      </trkpt>
      <trkpt lat="42.7431110" lon="-8.6579460">
        <ele>8.7</ele>
        <time>2021-05-23T12:40:12Z</time>
      </trkpt>
      <trkpt lat="42.7431180" lon="-8.6579390">
        <ele>8.7</ele>
        <time>2021-05-23T12:40:13Z</time>
      </trkpt>
      <trkpt lat="42.7431200" lon="-8.6579310">
        <ele>8.7</ele>
        <time>2021-05-23T12:40:14Z</time>
      </trkpt>
      <trkpt lat="42.7431270" lon="-8.6579240">
        <ele>8.7</ele>
        <time>2021-05-23T12:40:15Z</time>
      </trkpt>
      <trkpt lat="42.7431380" lon="-8.6579130">
        <ele>8.7</ele>
        <time>2021-05-23T12:40:16Z</time>
      </trkpt>
      <trkpt lat="42.7431420" lon="-8.6579090">
        <ele>8.7</ele>
        <time>2021-05-23T12:40:17Z</time>
      </trkpt>
      <trkpt lat="42.7431570" lon="-8.6578900">
        <ele>8.7</ele>
        <time>2021-05-23T12:40:18Z</time>
      </trkpt>
      <trkpt lat="42.7431590" lon="-8.6578820">
        <ele>8.7</ele>
        <time>2021-05-23T12:40:19Z</time>
      </trkpt>
      <trkpt lat="42.7431810" lon="-8.6578630">
        <ele>8.7</ele>
        <time>2021-05-23T12:40:20Z</time>
      </trkpt>
      <trkpt lat="42.7431890" lon="-8.6578560">
        <ele>8.7</ele>
        <time>2021-05-23T12:40:21Z</time>
      </trkpt>
      <trkpt lat="42.7431970" lon="-8.6578500">
        <ele>8.7</ele>
        <time>2021-05-23T12:40:22Z</time>
      </trkpt>
      <trkpt lat="42.7432010" lon="-8.6578420">
        <ele>8.7</ele>
        <time>2021-05-23T12:40:24Z</time>
      </trkpt>
      <trkpt lat="42.7432180" lon="-8.6578230">
        <ele>8.7</ele>
        <time>2021-05-23T12:40:25Z</time>
      </trkpt>
      <trkpt lat="42.7432260" lon="-8.6578140">
        <ele>8.7</ele>
        <time>2021-05-23T12:40:26Z</time>
      </trkpt>
      <trkpt lat="42.7432350" lon="-8.6578020">
        <ele>8.7</ele>
        <time>2021-05-23T12:40:27Z</time>
      </trkpt>
      <trkpt lat="42.7432420" lon="-8.6577920">
        <ele>8.7</ele>
        <time>2021-05-23T12:40:28Z</time>
      </trkpt>
      <trkpt lat="42.7432480" lon="-8.6577820">
        <ele>8.7</ele>
        <time>2021-05-23T12:40:29Z</time>
      </trkpt>
      <trkpt lat="42.7432550" lon="-8.6577860">
        <ele>8.7</ele>
        <time>2021-05-23T12:40:30Z</time>
      </trkpt>
      <trkpt lat="42.7432660" lon="-8.6577770">
        <ele>8.7</ele>
        <time>2021-05-23T12:40:31Z</time>
      </trkpt>
      <trkpt lat="42.7432720" lon="-8.6577660">
        <ele>8.7</ele>
        <time>2021-05-23T12:40:32Z</time>
      </trkpt>
      <trkpt lat="42.7432790" lon="-8.6577570">
        <ele>8.7</ele>
        <time>2021-05-23T12:40:33Z</time>
      </trkpt>
      <trkpt lat="42.7432930" lon="-8.6577430">
        <ele>8.7</ele>
        <time>2021-05-23T12:40:34Z</time>
      </trkpt>
      <trkpt lat="42.7433020" lon="-8.6577330">
        <ele>8.7</ele>
        <time>2021-05-23T12:40:35Z</time>
      </trkpt>
      <trkpt lat="42.7433110" lon="-8.6577230">
        <ele>8.7</ele>
        <time>2021-05-23T12:40:36Z</time>
      </trkpt>
      <trkpt lat="42.7433220" lon="-8.6577180">
        <ele>8.7</ele>
        <time>2021-05-23T12:40:37Z</time>
      </trkpt>
      <trkpt lat="42.7433420" lon="-8.6576980">
        <ele>8.7</ele>
        <time>2021-05-23T12:40:38Z</time>
      </trkpt>
      <trkpt lat="42.7433520" lon="-8.6576900">
        <ele>8.7</ele>
        <time>2021-05-23T12:40:39Z</time>
      </trkpt>
      <trkpt lat="42.7433610" lon="-8.6576830">
        <ele>8.7</ele>
        <time>2021-05-23T12:40:40Z</time>
      </trkpt>
      <trkpt lat="42.7433740" lon="-8.6576700">
        <ele>8.7</ele>
        <time>2021-05-23T12:40:41Z</time>
      </trkpt>
      <trkpt lat="42.7433880" lon="-8.6576580">
        <ele>8.7</ele>
        <time>2021-05-23T12:40:42Z</time>
      </trkpt>
      <trkpt lat="42.7433990" lon="-8.6576460">
        <ele>8.7</ele>
        <time>2021-05-23T12:40:43Z</time>
      </trkpt>
      <trkpt lat="42.7433960" lon="-8.6576360">
        <ele>8.7</ele>
        <time>2021-05-23T12:40:44Z</time>
      </trkpt>
      <trkpt lat="42.7434090" lon="-8.6576270">
        <ele>8.7</ele>
        <time>2021-05-23T12:40:45Z</time>
      </trkpt>
      <trkpt lat="42.7434210" lon="-8.6576220">
        <ele>8.7</ele>
        <time>2021-05-23T12:40:46Z</time>
      </trkpt>
      <trkpt lat="42.7434350" lon="-8.6576120">
        <ele>8.7</ele>
        <time>2021-05-23T12:40:47Z</time>
      </trkpt>
      <trkpt lat="42.7434410" lon="-8.6576020">
        <ele>8.7</ele>
        <time>2021-05-23T12:40:48Z</time>
      </trkpt>
      <trkpt lat="42.7434530" lon="-8.6575950">
        <ele>8.7</ele>
        <time>2021-05-23T12:40:49Z</time>
      </trkpt>
      <trkpt lat="42.7434570" lon="-8.6575830">
        <ele>8.7</ele>
        <time>2021-05-23T12:40:50Z</time>
      </trkpt>
      <trkpt lat="42.7434730" lon="-8.6575680">
        <ele>8.7</ele>
        <time>2021-05-23T12:40:51Z</time>
      </trkpt>
      <trkpt lat="42.7434820" lon="-8.6575600">
        <ele>8.7</ele>
        <time>2021-05-23T12:40:52Z</time>
      </trkpt>
      <trkpt lat="42.7434950" lon="-8.6575500">
        <ele>8.7</ele>
        <time>2021-05-23T12:40:53Z</time>
      </trkpt>
      <trkpt lat="42.7435050" lon="-8.6575380">
        <ele>8.7</ele>
        <time>2021-05-23T12:40:54Z</time>
      </trkpt>
      <trkpt lat="42.7435140" lon="-8.6575310">
        <ele>8.7</ele>
        <time>2021-05-23T12:40:55Z</time>
      </trkpt>
      <trkpt lat="42.7435220" lon="-8.6575180">
        <ele>8.7</ele>
        <time>2021-05-23T12:40:56Z</time>
      </trkpt>
      <trkpt lat="42.7435320" lon="-8.6575140">
        <ele>8.7</ele>
        <time>2021-05-23T12:40:57Z</time>
      </trkpt>
      <trkpt lat="42.7435480" lon="-8.6575030">
        <ele>8.7</ele>
        <time>2021-05-23T12:40:58Z</time>
      </trkpt>
      <trkpt lat="42.7435560" lon="-8.6574940">
        <ele>8.7</ele>
        <time>2021-05-23T12:40:59Z</time>
      </trkpt>
      <trkpt lat="42.7435690" lon="-8.6574780">
        <ele>8.7</ele>
        <time>2021-05-23T12:41:00Z</time>
      </trkpt>
      <trkpt lat="42.7435780" lon="-8.6574710">
        <ele>8.7</ele>
        <time>2021-05-23T12:41:01Z</time>
      </trkpt>
      <trkpt lat="42.7435870" lon="-8.6574640">
        <ele>8.7</ele>
        <time>2021-05-23T12:41:02Z</time>
      </trkpt>
      <trkpt lat="42.7435940" lon="-8.6574560">
        <ele>8.8</ele>
        <time>2021-05-23T12:41:03Z</time>
      </trkpt>
      <trkpt lat="42.7436020" lon="-8.6574530">
        <ele>8.8</ele>
        <time>2021-05-23T12:41:04Z</time>
      </trkpt>
      <trkpt lat="42.7436140" lon="-8.6574540">
        <ele>8.8</ele>
        <time>2021-05-23T12:41:05Z</time>
      </trkpt>
      <trkpt lat="42.7436260" lon="-8.6574520">
        <ele>8.8</ele>
        <time>2021-05-23T12:41:06Z</time>
      </trkpt>
      <trkpt lat="42.7436360" lon="-8.6574460">
        <ele>8.8</ele>
        <time>2021-05-23T12:41:07Z</time>
      </trkpt>
      <trkpt lat="42.7436560" lon="-8.6574410">
        <ele>8.8</ele>
        <time>2021-05-23T12:41:08Z</time>
      </trkpt>
      <trkpt lat="42.7436650" lon="-8.6574390">
        <ele>8.8</ele>
        <time>2021-05-23T12:41:09Z</time>
      </trkpt>
      <trkpt lat="42.7436740" lon="-8.6574360">
        <ele>8.8</ele>
        <time>2021-05-23T12:41:10Z</time>
      </trkpt>
      <trkpt lat="42.7436880" lon="-8.6574410">
        <ele>8.8</ele>
        <time>2021-05-23T12:41:11Z</time>
      </trkpt>
      <trkpt lat="42.7437030" lon="-8.6574380">
        <ele>8.8</ele>
        <time>2021-05-23T12:41:12Z</time>
      </trkpt>
      <trkpt lat="42.7437140" lon="-8.6574350">
        <ele>8.8</ele>
        <time>2021-05-23T12:41:13Z</time>
      </trkpt>
      <trkpt lat="42.7437250" lon="-8.6574350">
        <ele>8.8</ele>
        <time>2021-05-23T12:41:14Z</time>
      </trkpt>
      <trkpt lat="42.7437350" lon="-8.6574280">
        <ele>8.8</ele>
        <time>2021-05-23T12:41:15Z</time>
      </trkpt>
      <trkpt lat="42.7437520" lon="-8.6574180">
        <ele>8.8</ele>
        <time>2021-05-23T12:41:16Z</time>
      </trkpt>
      <trkpt lat="42.7437570" lon="-8.6574150">
        <ele>8.8</ele>
        <time>2021-05-23T12:41:17Z</time>
      </trkpt>
      <trkpt lat="42.7437620" lon="-8.6574130">
        <ele>8.8</ele>
        <time>2021-05-23T12:41:18Z</time>
      </trkpt>
      <trkpt lat="42.7437670" lon="-8.6574100">
        <ele>8.8</ele>
        <time>2021-05-23T12:41:19Z</time>
      </trkpt>
      <trkpt lat="42.7437720" lon="-8.6574070">
        <ele>8.8</ele>
        <time>2021-05-23T12:41:20Z</time>
      </trkpt>
      <trkpt lat="42.7437840" lon="-8.6574010">
        <ele>8.8</ele>
        <time>2021-05-23T12:41:21Z</time>
      </trkpt>
      <trkpt lat="42.7438040" lon="-8.6573890">
        <ele>8.8</ele>
        <time>2021-05-23T12:41:22Z</time>
      </trkpt>
      <trkpt lat="42.7438090" lon="-8.6573860">
        <ele>8.8</ele>
        <time>2021-05-23T12:41:23Z</time>
      </trkpt>
      <trkpt lat="42.7438250" lon="-8.6573770">
        <ele>8.8</ele>
        <time>2021-05-23T12:41:24Z</time>
      </trkpt>
      <trkpt lat="42.7438310" lon="-8.6573770">
        <ele>8.8</ele>
        <time>2021-05-23T12:41:25Z</time>
      </trkpt>
      <trkpt lat="42.7438540" lon="-8.6573780">
        <ele>8.8</ele>
        <time>2021-05-23T12:41:26Z</time>
      </trkpt>
      <trkpt lat="42.7438650" lon="-8.6573720">
        <ele>8.8</ele>
        <time>2021-05-23T12:41:27Z</time>
      </trkpt>
      <trkpt lat="42.7438850" lon="-8.6573690">
        <ele>8.8</ele>
        <time>2021-05-23T12:41:28Z</time>
      </trkpt>
      <trkpt lat="42.7438930" lon="-8.6573670">
        <ele>8.8</ele>
        <time>2021-05-23T12:41:29Z</time>
      </trkpt>
      <trkpt lat="42.7439010" lon="-8.6573650">
        <ele>8.8</ele>
        <time>2021-05-23T12:41:30Z</time>
      </trkpt>
      <trkpt lat="42.7439060" lon="-8.6573610">
        <ele>8.8</ele>
        <time>2021-05-23T12:41:31Z</time>
      </trkpt>
      <trkpt lat="42.7439180" lon="-8.6573560">
        <ele>8.8</ele>
        <time>2021-05-23T12:41:32Z</time>
      </trkpt>
      <trkpt lat="42.7439320" lon="-8.6573470">
        <ele>8.8</ele>
        <time>2021-05-23T12:41:33Z</time>
      </trkpt>
      <trkpt lat="42.7439450" lon="-8.6573430">
        <ele>8.8</ele>
        <time>2021-05-23T12:41:34Z</time>
      </trkpt>
      <trkpt lat="42.7439590" lon="-8.6573370">
        <ele>8.8</ele>
        <time>2021-05-23T12:41:35Z</time>
      </trkpt>
      <trkpt lat="42.7439710" lon="-8.6573270">
        <ele>8.8</ele>
        <time>2021-05-23T12:41:36Z</time>
      </trkpt>
      <trkpt lat="42.7439780" lon="-8.6573300">
        <ele>8.8</ele>
        <time>2021-05-23T12:41:37Z</time>
      </trkpt>
      <trkpt lat="42.7439990" lon="-8.6573160">
        <ele>8.8</ele>
        <time>2021-05-23T12:41:38Z</time>
      </trkpt>
      <trkpt lat="42.7440140" lon="-8.6573090">
        <ele>8.8</ele>
        <time>2021-05-23T12:41:39Z</time>
      </trkpt>
      <trkpt lat="42.7440200" lon="-8.6573090">
        <ele>8.8</ele>
        <time>2021-05-23T12:41:40Z</time>
      </trkpt>
      <trkpt lat="42.7440260" lon="-8.6573080">
        <ele>8.8</ele>
        <time>2021-05-23T12:41:41Z</time>
      </trkpt>
      <trkpt lat="42.7440440" lon="-8.6572970">
        <ele>8.8</ele>
        <time>2021-05-23T12:41:42Z</time>
      </trkpt>
      <trkpt lat="42.7440540" lon="-8.6572830">
        <ele>8.8</ele>
        <time>2021-05-23T12:41:43Z</time>
      </trkpt>
      <trkpt lat="42.7440640" lon="-8.6572760">
        <ele>8.8</ele>
        <time>2021-05-23T12:41:44Z</time>
      </trkpt>
      <trkpt lat="42.7440830" lon="-8.6572730">
        <ele>8.8</ele>
        <time>2021-05-23T12:41:45Z</time>
      </trkpt>
      <trkpt lat="42.7440940" lon="-8.6572580">
        <ele>8.8</ele>
        <time>2021-05-23T12:41:46Z</time>
      </trkpt>
      <trkpt lat="42.7441140" lon="-8.6572510">
        <ele>8.8</ele>
        <time>2021-05-23T12:41:47Z</time>
      </trkpt>
      <trkpt lat="42.7441320" lon="-8.6572450">
        <ele>8.8</ele>
        <time>2021-05-23T12:41:48Z</time>
      </trkpt>
      <trkpt lat="42.7441400" lon="-8.6572390">
        <ele>8.8</ele>
        <time>2021-05-23T12:41:49Z</time>
      </trkpt>
      <trkpt lat="42.7441480" lon="-8.6572330">
        <ele>8.8</ele>
        <time>2021-05-23T12:41:50Z</time>
      </trkpt>
      <trkpt lat="42.7441600" lon="-8.6572250">
        <ele>8.8</ele>
        <time>2021-05-23T12:41:51Z</time>
      </trkpt>
      <trkpt lat="42.7441760" lon="-8.6572200">
        <ele>8.8</ele>
        <time>2021-05-23T12:41:52Z</time>
      </trkpt>
      <trkpt lat="42.7441910" lon="-8.6572110">
        <ele>8.8</ele>
        <time>2021-05-23T12:41:53Z</time>
      </trkpt>
      <trkpt lat="42.7442000" lon="-8.6572040">
        <ele>8.8</ele>
        <time>2021-05-23T12:41:54Z</time>
      </trkpt>
      <trkpt lat="42.7442070" lon="-8.6571950">
        <ele>8.8</ele>
        <time>2021-05-23T12:41:55Z</time>
      </trkpt>
      <trkpt lat="42.7442220" lon="-8.6571850">
        <ele>8.8</ele>
        <time>2021-05-23T12:41:56Z</time>
      </trkpt>
      <trkpt lat="42.7442340" lon="-8.6571700">
        <ele>8.8</ele>
        <time>2021-05-23T12:41:57Z</time>
      </trkpt>
      <trkpt lat="42.7442550" lon="-8.6571590">
        <ele>8.8</ele>
        <time>2021-05-23T12:41:58Z</time>
      </trkpt>
      <trkpt lat="42.7442630" lon="-8.6571540">
        <ele>8.8</ele>
        <time>2021-05-23T12:41:59Z</time>
      </trkpt>
      <trkpt lat="42.7442710" lon="-8.6571500">
        <ele>8.8</ele>
        <time>2021-05-23T12:42:00Z</time>
      </trkpt>
      <trkpt lat="42.7442870" lon="-8.6571390">
        <ele>8.8</ele>
        <time>2021-05-23T12:42:01Z</time>
      </trkpt>
      <trkpt lat="42.7443020" lon="-8.6571270">
        <ele>8.8</ele>
        <time>2021-05-23T12:42:02Z</time>
      </trkpt>
      <trkpt lat="42.7443250" lon="-8.6571000">
        <ele>8.8</ele>
        <time>2021-05-23T12:42:03Z</time>
      </trkpt>
      <trkpt lat="42.7443320" lon="-8.6570950">
        <ele>8.8</ele>
        <time>2021-05-23T12:42:04Z</time>
      </trkpt>
      <trkpt lat="42.7443470" lon="-8.6570770">
        <ele>8.8</ele>
        <time>2021-05-23T12:42:05Z</time>
      </trkpt>
      <trkpt lat="42.7443540" lon="-8.6570700">
        <ele>8.8</ele>
        <time>2021-05-23T12:42:06Z</time>
      </trkpt>
      <trkpt lat="42.7443620" lon="-8.6570620">
        <ele>8.8</ele>
        <time>2021-05-23T12:42:07Z</time>
      </trkpt>
      <trkpt lat="42.7443720" lon="-8.6570470">
        <ele>8.8</ele>
        <time>2021-05-23T12:42:09Z</time>
      </trkpt>
      <trkpt lat="42.7443820" lon="-8.6570280">
        <ele>8.8</ele>
        <time>2021-05-23T12:42:10Z</time>
      </trkpt>
      <trkpt lat="42.7443910" lon="-8.6570050">
        <ele>8.8</ele>
        <time>2021-05-23T12:42:11Z</time>
      </trkpt>
      <trkpt lat="42.7443960" lon="-8.6569940">
        <ele>8.8</ele>
        <time>2021-05-23T12:42:12Z</time>
      </trkpt>
      <trkpt lat="42.7444000" lon="-8.6569830">
        <ele>8.8</ele>
        <time>2021-05-23T12:42:13Z</time>
      </trkpt>
      <trkpt lat="42.7444030" lon="-8.6569630">
        <ele>8.8</ele>
        <time>2021-05-23T12:42:14Z</time>
      </trkpt>
      <trkpt lat="42.7444090" lon="-8.6569400">
        <ele>8.8</ele>
        <time>2021-05-23T12:42:15Z</time>
      </trkpt>
      <trkpt lat="42.7444100" lon="-8.6569260">
        <ele>8.8</ele>
        <time>2021-05-23T12:42:16Z</time>
      </trkpt>
      <trkpt lat="42.7444150" lon="-8.6569190">
        <ele>8.8</ele>
        <time>2021-05-23T12:42:17Z</time>
      </trkpt>
      <trkpt lat="42.7444180" lon="-8.6569020">
        <ele>8.8</ele>
        <time>2021-05-23T12:42:18Z</time>
      </trkpt>
      <trkpt lat="42.7444290" lon="-8.6568890">
        <ele>8.8</ele>
        <time>2021-05-23T12:42:19Z</time>
      </trkpt>
      <trkpt lat="42.7444360" lon="-8.6568740">
        <ele>8.8</ele>
        <time>2021-05-23T12:42:20Z</time>
      </trkpt>
      <trkpt lat="42.7444470" lon="-8.6568460">
        <ele>8.8</ele>
        <time>2021-05-23T12:42:21Z</time>
      </trkpt>
      <trkpt lat="42.7444510" lon="-8.6568370">
        <ele>8.9</ele>
        <time>2021-05-23T12:42:22Z</time>
      </trkpt>
      <trkpt lat="42.7444540" lon="-8.6568280">
        <ele>8.9</ele>
        <time>2021-05-23T12:42:23Z</time>
      </trkpt>
      <trkpt lat="42.7444580" lon="-8.6568210">
        <ele>8.9</ele>
        <time>2021-05-23T12:42:24Z</time>
      </trkpt>
      <trkpt lat="42.7444640" lon="-8.6568030">
        <ele>8.9</ele>
        <time>2021-05-23T12:42:25Z</time>
      </trkpt>
      <trkpt lat="42.7444730" lon="-8.6567920">
        <ele>8.9</ele>
        <time>2021-05-23T12:42:26Z</time>
      </trkpt>
      <trkpt lat="42.7444760" lon="-8.6567720">
        <ele>8.9</ele>
        <time>2021-05-23T12:42:27Z</time>
      </trkpt>
      <trkpt lat="42.7444820" lon="-8.6567610">
        <ele>8.9</ele>
        <time>2021-05-23T12:42:28Z</time>
      </trkpt>
      <trkpt lat="42.7444820" lon="-8.6567540">
        <ele>9.0</ele>
        <time>2021-05-23T12:42:29Z</time>
      </trkpt>
      <trkpt lat="42.7444970" lon="-8.6567290">
        <ele>9.0</ele>
        <time>2021-05-23T12:42:30Z</time>
      </trkpt>
      <trkpt lat="42.7445020" lon="-8.6567190">
        <ele>9.0</ele>
        <time>2021-05-23T12:42:31Z</time>
      </trkpt>
      <trkpt lat="42.7445070" lon="-8.6567100">
        <ele>9.0</ele>
        <time>2021-05-23T12:42:32Z</time>
      </trkpt>
      <trkpt lat="42.7445190" lon="-8.6566890">
        <ele>9.1</ele>
        <time>2021-05-23T12:42:33Z</time>
      </trkpt>
      <trkpt lat="42.7445250" lon="-8.6566790">
        <ele>9.1</ele>
        <time>2021-05-23T12:42:34Z</time>
      </trkpt>
      <trkpt lat="42.7445300" lon="-8.6566680">
        <ele>9.1</ele>
        <time>2021-05-23T12:42:35Z</time>
      </trkpt>
      <trkpt lat="42.7445430" lon="-8.6566530">
        <ele>9.2</ele>
        <time>2021-05-23T12:42:36Z</time>
      </trkpt>
      <trkpt lat="42.7445470" lon="-8.6566410">
        <ele>9.2</ele>
        <time>2021-05-23T12:42:37Z</time>
      </trkpt>
      <trkpt lat="42.7445500" lon="-8.6566290">
        <ele>9.2</ele>
        <time>2021-05-23T12:42:38Z</time>
      </trkpt>
      <trkpt lat="42.7445540" lon="-8.6566170">
        <ele>9.2</ele>
        <time>2021-05-23T12:42:39Z</time>
      </trkpt>
      <trkpt lat="42.7445620" lon="-8.6566070">
        <ele>9.3</ele>
        <time>2021-05-23T12:42:40Z</time>
      </trkpt>
      <trkpt lat="42.7445700" lon="-8.6565860">
        <ele>9.3</ele>
        <time>2021-05-23T12:42:41Z</time>
      </trkpt>
      <trkpt lat="42.7445870" lon="-8.6565660">
        <ele>9.4</ele>
        <time>2021-05-23T12:42:42Z</time>
      </trkpt>
      <trkpt lat="42.7445940" lon="-8.6565540">
        <ele>9.4</ele>
        <time>2021-05-23T12:42:43Z</time>
      </trkpt>
      <trkpt lat="42.7446010" lon="-8.6565430">
        <ele>9.5</ele>
        <time>2021-05-23T12:42:44Z</time>
      </trkpt>
      <trkpt lat="42.7446090" lon="-8.6565350">
        <ele>9.5</ele>
        <time>2021-05-23T12:42:45Z</time>
      </trkpt>
      <trkpt lat="42.7446190" lon="-8.6565250">
        <ele>9.6</ele>
        <time>2021-05-23T12:42:46Z</time>
      </trkpt>
      <trkpt lat="42.7446250" lon="-8.6565140">
        <ele>9.6</ele>
        <time>2021-05-23T12:42:47Z</time>
      </trkpt>
      <trkpt lat="42.7446320" lon="-8.6565040">
        <ele>9.6</ele>
        <time>2021-05-23T12:42:48Z</time>
      </trkpt>
      <trkpt lat="42.7446370" lon="-8.6564910">
        <ele>9.7</ele>
        <time>2021-05-23T12:42:49Z</time>
      </trkpt>
      <trkpt lat="42.7446420" lon="-8.6564710">
        <ele>9.7</ele>
        <time>2021-05-23T12:42:50Z</time>
      </trkpt>
      <trkpt lat="42.7446580" lon="-8.6564520">
        <ele>9.8</ele>
        <time>2021-05-23T12:42:51Z</time>
      </trkpt>
      <trkpt lat="42.7446630" lon="-8.6564420">
        <ele>9.8</ele>
        <time>2021-05-23T12:42:52Z</time>
      </trkpt>
      <trkpt lat="42.7446690" lon="-8.6564330">
        <ele>9.9</ele>
        <time>2021-05-23T12:42:53Z</time>
      </trkpt>
      <trkpt lat="42.7446790" lon="-8.6564260">
        <ele>9.9</ele>
        <time>2021-05-23T12:42:54Z</time>
      </trkpt>
      <trkpt lat="42.7446940" lon="-8.6564140">
        <ele>10.0</ele>
        <time>2021-05-23T12:42:55Z</time>
      </trkpt>
      <trkpt lat="42.7447130" lon="-8.6564090">
        <ele>10.1</ele>
        <time>2021-05-23T12:42:56Z</time>
      </trkpt>
      <trkpt lat="42.7447210" lon="-8.6564050">
        <ele>10.1</ele>
        <time>2021-05-23T12:42:57Z</time>
      </trkpt>
      <trkpt lat="42.7447290" lon="-8.6564000">
        <ele>10.1</ele>
        <time>2021-05-23T12:42:58Z</time>
      </trkpt>
      <trkpt lat="42.7447380" lon="-8.6563880">
        <ele>10.1</ele>
        <time>2021-05-23T12:42:59Z</time>
      </trkpt>
      <trkpt lat="42.7447420" lon="-8.6563770">
        <ele>10.1</ele>
        <time>2021-05-23T12:43:00Z</time>
      </trkpt>
      <trkpt lat="42.7447460" lon="-8.6563570">
        <ele>10.2</ele>
        <time>2021-05-23T12:43:01Z</time>
      </trkpt>
      <trkpt lat="42.7447480" lon="-8.6563150">
        <ele>10.2</ele>
        <time>2021-05-23T12:43:02Z</time>
      </trkpt>
      <trkpt lat="42.7447490" lon="-8.6563060">
        <ele>10.2</ele>
        <time>2021-05-23T12:43:03Z</time>
      </trkpt>
      <trkpt lat="42.7447500" lon="-8.6562740">
        <ele>10.2</ele>
        <time>2021-05-23T12:43:04Z</time>
      </trkpt>
      <trkpt lat="42.7447530" lon="-8.6562610">
        <ele>10.2</ele>
        <time>2021-05-23T12:43:05Z</time>
      </trkpt>
      <trkpt lat="42.7447550" lon="-8.6562480">
        <ele>10.2</ele>
        <time>2021-05-23T12:43:06Z</time>
      </trkpt>
      <trkpt lat="42.7447630" lon="-8.6562320">
        <ele>10.2</ele>
        <time>2021-05-23T12:43:07Z</time>
      </trkpt>
      <trkpt lat="42.7447750" lon="-8.6562190">
        <ele>10.2</ele>
        <time>2021-05-23T12:43:08Z</time>
      </trkpt>
      <trkpt lat="42.7447790" lon="-8.6562030">
        <ele>10.2</ele>
        <time>2021-05-23T12:43:09Z</time>
      </trkpt>
      <trkpt lat="42.7447840" lon="-8.6561960">
        <ele>10.2</ele>
        <time>2021-05-23T12:43:10Z</time>
      </trkpt>
      <trkpt lat="42.7447890" lon="-8.6561880">
        <ele>10.2</ele>
        <time>2021-05-23T12:43:11Z</time>
      </trkpt>
      <trkpt lat="42.7447940" lon="-8.6561810">
        <ele>10.2</ele>
        <time>2021-05-23T12:43:12Z</time>
      </trkpt>
      <trkpt lat="42.7447990" lon="-8.6561740">
        <ele>10.2</ele>
        <time>2021-05-23T12:43:13Z</time>
      </trkpt>
      <trkpt lat="42.7448110" lon="-8.6561580">
        <ele>10.2</ele>
        <time>2021-05-23T12:43:14Z</time>
      </trkpt>
      <trkpt lat="42.7448160" lon="-8.6561440">
        <ele>10.3</ele>
        <time>2021-05-23T12:43:15Z</time>
      </trkpt>
      <trkpt lat="42.7448150" lon="-8.6561370">
        <ele>10.3</ele>
        <time>2021-05-23T12:43:16Z</time>
      </trkpt>
      <trkpt lat="42.7448210" lon="-8.6561280">
        <ele>10.3</ele>
        <time>2021-05-23T12:43:17Z</time>
      </trkpt>
      <trkpt lat="42.7448290" lon="-8.6561120">
        <ele>10.3</ele>
        <time>2021-05-23T12:43:18Z</time>
      </trkpt>
      <trkpt lat="42.7448390" lon="-8.6560960">
        <ele>10.3</ele>
        <time>2021-05-23T12:43:19Z</time>
      </trkpt>
      <trkpt lat="42.7448470" lon="-8.6560860">
        <ele>10.3</ele>
        <time>2021-05-23T12:43:20Z</time>
      </trkpt>
      <trkpt lat="42.7448490" lon="-8.6560730">
        <ele>10.3</ele>
        <time>2021-05-23T12:43:21Z</time>
      </trkpt>
      <trkpt lat="42.7448550" lon="-8.6560570">
        <ele>10.3</ele>
        <time>2021-05-23T12:43:22Z</time>
      </trkpt>
      <trkpt lat="42.7448600" lon="-8.6560380">
        <ele>10.3</ele>
        <time>2021-05-23T12:43:23Z</time>
      </trkpt>
      <trkpt lat="42.7448690" lon="-8.6560100">
        <ele>10.3</ele>
        <time>2021-05-23T12:43:24Z</time>
      </trkpt>
      <trkpt lat="42.7448710" lon="-8.6559990">
        <ele>10.3</ele>
        <time>2021-05-23T12:43:25Z</time>
      </trkpt>
      <trkpt lat="42.7448730" lon="-8.6559890">
        <ele>10.3</ele>
        <time>2021-05-23T12:43:26Z</time>
      </trkpt>
      <trkpt lat="42.7448790" lon="-8.6559780">
        <ele>10.3</ele>
        <time>2021-05-23T12:43:27Z</time>
      </trkpt>
      <trkpt lat="42.7448800" lon="-8.6559520">
        <ele>10.3</ele>
        <time>2021-05-23T12:43:28Z</time>
      </trkpt>
      <trkpt lat="42.7448860" lon="-8.6559480">
        <ele>10.3</ele>
        <time>2021-05-23T12:43:29Z</time>
      </trkpt>
      <trkpt lat="42.7448950" lon="-8.6559330">
        <ele>10.3</ele>
        <time>2021-05-23T12:43:30Z</time>
      </trkpt>
      <trkpt lat="42.7449010" lon="-8.6559230">
        <ele>10.3</ele>
        <time>2021-05-23T12:43:31Z</time>
      </trkpt>
      <trkpt lat="42.7449150" lon="-8.6558990">
        <ele>10.4</ele>
        <time>2021-05-23T12:43:32Z</time>
      </trkpt>
      <trkpt lat="42.7449190" lon="-8.6558910">
        <ele>10.4</ele>
        <time>2021-05-23T12:43:33Z</time>
      </trkpt>
      <trkpt lat="42.7449230" lon="-8.6558820">
        <ele>10.4</ele>
        <time>2021-05-23T12:43:34Z</time>
      </trkpt>
      <trkpt lat="42.7449320" lon="-8.6558680">
        <ele>10.4</ele>
        <time>2021-05-23T12:43:35Z</time>
      </trkpt>
      <trkpt lat="42.7449430" lon="-8.6558510">
        <ele>10.4</ele>
        <time>2021-05-23T12:43:36Z</time>
      </trkpt>
      <trkpt lat="42.7449540" lon="-8.6558260">
        <ele>10.4</ele>
        <time>2021-05-23T12:43:37Z</time>
      </trkpt>
      <trkpt lat="42.7449600" lon="-8.6558150">
        <ele>10.4</ele>
        <time>2021-05-23T12:43:38Z</time>
      </trkpt>
      <trkpt lat="42.7449650" lon="-8.6558040">
        <ele>10.4</ele>
        <time>2021-05-23T12:43:39Z</time>
      </trkpt>
      <trkpt lat="42.7449740" lon="-8.6557980">
        <ele>10.4</ele>
        <time>2021-05-23T12:43:40Z</time>
      </trkpt>
      <trkpt lat="42.7449820" lon="-8.6557860">
        <ele>10.4</ele>
        <time>2021-05-23T12:43:41Z</time>
      </trkpt>
      <trkpt lat="42.7449930" lon="-8.6557770">
        <ele>10.5</ele>
        <time>2021-05-23T12:43:42Z</time>
      </trkpt>
      <trkpt lat="42.7450130" lon="-8.6557590">
        <ele>10.5</ele>
        <time>2021-05-23T12:43:43Z</time>
      </trkpt>
      <trkpt lat="42.7450200" lon="-8.6557520">
        <ele>10.5</ele>
        <time>2021-05-23T12:43:44Z</time>
      </trkpt>
      <trkpt lat="42.7450280" lon="-8.6557450">
        <ele>10.5</ele>
        <time>2021-05-23T12:43:45Z</time>
      </trkpt>
      <trkpt lat="42.7450370" lon="-8.6557340">
        <ele>10.5</ele>
        <time>2021-05-23T12:43:46Z</time>
      </trkpt>
      <trkpt lat="42.7450470" lon="-8.6557110">
        <ele>10.5</ele>
        <time>2021-05-23T12:43:47Z</time>
      </trkpt>
      <trkpt lat="42.7450600" lon="-8.6556920">
        <ele>10.6</ele>
        <time>2021-05-23T12:43:48Z</time>
      </trkpt>
      <trkpt lat="42.7450650" lon="-8.6556790">
        <ele>10.6</ele>
        <time>2021-05-23T12:43:49Z</time>
      </trkpt>
      <trkpt lat="42.7450710" lon="-8.6556670">
        <ele>10.6</ele>
        <time>2021-05-23T12:43:50Z</time>
      </trkpt>
      <trkpt lat="42.7450810" lon="-8.6556470">
        <ele>10.7</ele>
        <time>2021-05-23T12:43:52Z</time>
      </trkpt>
      <trkpt lat="42.7450860" lon="-8.6556360">
        <ele>10.7</ele>
        <time>2021-05-23T12:43:53Z</time>
      </trkpt>
      <trkpt lat="42.7450920" lon="-8.6556250">
        <ele>10.7</ele>
        <time>2021-05-23T12:43:54Z</time>
      </trkpt>
      <trkpt lat="42.7451060" lon="-8.6556090">
        <ele>10.7</ele>
        <time>2021-05-23T12:43:55Z</time>
      </trkpt>
      <trkpt lat="42.7451230" lon="-8.6555850">
        <ele>10.8</ele>
        <time>2021-05-23T12:43:56Z</time>
      </trkpt>
      <trkpt lat="42.7451340" lon="-8.6555670">
        <ele>10.8</ele>
        <time>2021-05-23T12:43:57Z</time>
      </trkpt>
      <trkpt lat="42.7451390" lon="-8.6555590">
        <ele>10.8</ele>
        <time>2021-05-23T12:43:58Z</time>
      </trkpt>
      <trkpt lat="42.7451500" lon="-8.6555390">
        <ele>10.9</ele>
        <time>2021-05-23T12:43:59Z</time>
      </trkpt>
      <trkpt lat="42.7451580" lon="-8.6555300">
        <ele>10.9</ele>
        <time>2021-05-23T12:44:00Z</time>
      </trkpt>
      <trkpt lat="42.7451650" lon="-8.6555200">
        <ele>10.9</ele>
        <time>2021-05-23T12:44:01Z</time>
      </trkpt>
      <trkpt lat="42.7451660" lon="-8.6555070">
        <ele>11.0</ele>
        <time>2021-05-23T12:44:02Z</time>
      </trkpt>
      <trkpt lat="42.7451710" lon="-8.6554900">
        <ele>11.0</ele>
        <time>2021-05-23T12:44:03Z</time>
      </trkpt>
      <trkpt lat="42.7451770" lon="-8.6554770">
        <ele>11.0</ele>
        <time>2021-05-23T12:44:04Z</time>
      </trkpt>
      <trkpt lat="42.7451850" lon="-8.6554610">
        <ele>11.1</ele>
        <time>2021-05-23T12:44:05Z</time>
      </trkpt>
      <trkpt lat="42.7451940" lon="-8.6554470">
        <ele>11.1</ele>
        <time>2021-05-23T12:44:06Z</time>
      </trkpt>
      <trkpt lat="42.7452020" lon="-8.6554400">
        <ele>11.2</ele>
        <time>2021-05-23T12:44:07Z</time>
      </trkpt>
      <trkpt lat="42.7452190" lon="-8.6554260">
        <ele>11.2</ele>
        <time>2021-05-23T12:44:08Z</time>
      </trkpt>
      <trkpt lat="42.7452340" lon="-8.6554130">
        <ele>11.3</ele>
        <time>2021-05-23T12:44:09Z</time>
      </trkpt>
      <trkpt lat="42.7452440" lon="-8.6554030">
        <ele>11.3</ele>
        <time>2021-05-23T12:44:10Z</time>
      </trkpt>
      <trkpt lat="42.7452540" lon="-8.6553760">
        <ele>11.4</ele>
        <time>2021-05-23T12:44:11Z</time>
      </trkpt>
      <trkpt lat="42.7452560" lon="-8.6553660">
        <ele>11.4</ele>
        <time>2021-05-23T12:44:12Z</time>
      </trkpt>
      <trkpt lat="42.7452590" lon="-8.6553570">
        <ele>11.5</ele>
        <time>2021-05-23T12:44:13Z</time>
      </trkpt>
      <trkpt lat="42.7452680" lon="-8.6553500">
        <ele>11.5</ele>
        <time>2021-05-23T12:44:14Z</time>
      </trkpt>
      <trkpt lat="42.7452760" lon="-8.6553340">
        <ele>11.6</ele>
        <time>2021-05-23T12:44:15Z</time>
      </trkpt>
      <trkpt lat="42.7452850" lon="-8.6553270">
        <ele>11.6</ele>
        <time>2021-05-23T12:44:16Z</time>
      </trkpt>
      <trkpt lat="42.7452940" lon="-8.6553110">
        <ele>11.6</ele>
        <time>2021-05-23T12:44:17Z</time>
      </trkpt>
      <trkpt lat="42.7452990" lon="-8.6553030">
        <ele>11.6</ele>
        <time>2021-05-23T12:44:18Z</time>
      </trkpt>
      <trkpt lat="42.7453030" lon="-8.6552940">
        <ele>11.6</ele>
        <time>2021-05-23T12:44:19Z</time>
      </trkpt>
      <trkpt lat="42.7453080" lon="-8.6552860">
        <ele>11.6</ele>
        <time>2021-05-23T12:44:20Z</time>
      </trkpt>
      <trkpt lat="42.7453190" lon="-8.6552810">
        <ele>11.7</ele>
        <time>2021-05-23T12:44:21Z</time>
      </trkpt>
      <trkpt lat="42.7453270" lon="-8.6552840">
        <ele>11.7</ele>
        <time>2021-05-23T12:44:22Z</time>
      </trkpt>
      <trkpt lat="42.7453240" lon="-8.6552890">
        <ele>11.7</ele>
        <time>2021-05-23T12:44:23Z</time>
      </trkpt>
      <trkpt lat="42.7453220" lon="-8.6552920">
        <ele>11.7</ele>
        <time>2021-05-23T12:44:24Z</time>
      </trkpt>
      <trkpt lat="42.7453250" lon="-8.6552920">
        <ele>11.7</ele>
        <time>2021-05-23T12:44:25Z</time>
      </trkpt>
      <trkpt lat="42.7453480" lon="-8.6552780">
        <ele>11.7</ele>
        <time>2021-05-23T12:44:27Z</time>
      </trkpt>
      <trkpt lat="42.7453610" lon="-8.6552660">
        <ele>11.7</ele>
        <time>2021-05-23T12:44:29Z</time>
      </trkpt>
      <trkpt lat="42.7453690" lon="-8.6552620">
        <ele>11.7</ele>
        <time>2021-05-23T12:44:30Z</time>
      </trkpt>
      <trkpt lat="42.7453740" lon="-8.6552500">
        <ele>11.7</ele>
        <time>2021-05-23T12:44:31Z</time>
      </trkpt>
      <trkpt lat="42.7453760" lon="-8.6552630">
        <ele>11.8</ele>
        <time>2021-05-23T12:44:32Z</time>
      </trkpt>
      <trkpt lat="42.7453700" lon="-8.6552590">
        <ele>11.8</ele>
        <time>2021-05-23T12:44:33Z</time>
      </trkpt>
      <trkpt lat="42.7453700" lon="-8.6552540">
        <ele>11.8</ele>
        <time>2021-05-23T12:44:34Z</time>
      </trkpt>
      <trkpt lat="42.7453740" lon="-8.6552450">
        <ele>11.8</ele>
        <time>2021-05-23T12:44:35Z</time>
      </trkpt>
      <trkpt lat="42.7453710" lon="-8.6552320">
        <ele>11.8</ele>
        <time>2021-05-23T12:44:36Z</time>
      </trkpt>
      <trkpt lat="42.7453740" lon="-8.6552330">
        <ele>11.8</ele>
        <time>2021-05-23T12:44:37Z</time>
      </trkpt>
      <trkpt lat="42.7453790" lon="-8.6552310">
        <ele>11.8</ele>
        <time>2021-05-23T12:44:38Z</time>
      </trkpt>
      <trkpt lat="42.7453810" lon="-8.6552340">
        <ele>11.8</ele>
        <time>2021-05-23T12:44:39Z</time>
      </trkpt>
      <trkpt lat="42.7453800" lon="-8.6552370">
        <ele>11.8</ele>
        <time>2021-05-23T12:44:40Z</time>
      </trkpt>
      <trkpt lat="42.7453820" lon="-8.6552370">
        <ele>11.8</ele>
        <time>2021-05-23T12:44:41Z</time>
      </trkpt>
      <trkpt lat="42.7453820" lon="-8.6552340">
        <ele>11.8</ele>
        <time>2021-05-23T12:44:42Z</time>
      </trkpt>
      <trkpt lat="42.7453810" lon="-8.6552370">
        <ele>11.8</ele>
        <time>2021-05-23T12:44:43Z</time>
      </trkpt>
      <trkpt lat="42.7453820" lon="-8.6552370">
        <ele>11.8</ele>
        <time>2021-05-23T12:44:44Z</time>
      </trkpt>
      <trkpt lat="42.7453820" lon="-8.6552410">
        <ele>11.8</ele>
        <time>2021-05-23T12:44:45Z</time>
      </trkpt>
      <trkpt lat="42.7453820" lon="-8.6552410">
        <ele>11.8</ele>
        <time>2021-05-23T12:44:46Z</time>
      </trkpt>
      <trkpt lat="42.7453790" lon="-8.6552410">
        <ele>11.8</ele>
        <time>2021-05-23T12:44:47Z</time>
      </trkpt>
      <trkpt lat="42.7453790" lon="-8.6552410">
        <ele>11.8</ele>
        <time>2021-05-23T12:44:48Z</time>
      </trkpt>
      <trkpt lat="42.7453840" lon="-8.6552340">
        <ele>11.8</ele>
        <time>2021-05-23T12:44:49Z</time>
      </trkpt>
      <trkpt lat="42.7453840" lon="-8.6552320">
        <ele>11.8</ele>
        <time>2021-05-23T12:44:50Z</time>
      </trkpt>
      <trkpt lat="42.7453830" lon="-8.6552330">
        <ele>11.8</ele>
        <time>2021-05-23T12:44:51Z</time>
      </trkpt>
      <trkpt lat="42.7453810" lon="-8.6552330">
        <ele>11.8</ele>
        <time>2021-05-23T12:44:52Z</time>
      </trkpt>
      <trkpt lat="42.7453780" lon="-8.6552340">
        <ele>11.8</ele>
        <time>2021-05-23T12:44:53Z</time>
      </trkpt>
      <trkpt lat="42.7453750" lon="-8.6552370">
        <ele>11.8</ele>
        <time>2021-05-23T12:44:54Z</time>
      </trkpt>
      <trkpt lat="42.7453740" lon="-8.6552370">
        <ele>11.8</ele>
        <time>2021-05-23T12:44:55Z</time>
      </trkpt>
      <trkpt lat="42.7453720" lon="-8.6552370">
        <ele>11.8</ele>
        <time>2021-05-23T12:44:56Z</time>
      </trkpt>
      <trkpt lat="42.7453710" lon="-8.6552440">
        <ele>11.8</ele>
        <time>2021-05-23T12:44:57Z</time>
      </trkpt>
      <trkpt lat="42.7453660" lon="-8.6552400">
        <ele>11.9</ele>
        <time>2021-05-23T12:44:58Z</time>
      </trkpt>
      <trkpt lat="42.7453610" lon="-8.6552380">
        <ele>11.9</ele>
        <time>2021-05-23T12:44:59Z</time>
      </trkpt>
      <trkpt lat="42.7453610" lon="-8.6552380">
        <ele>11.9</ele>
        <time>2021-05-23T12:45:00Z</time>
      </trkpt>
      <trkpt lat="42.7453610" lon="-8.6552380">
        <ele>11.9</ele>
        <time>2021-05-23T12:45:01Z</time>
      </trkpt>
      <trkpt lat="42.7453610" lon="-8.6552380">
        <ele>11.9</ele>
        <time>2021-05-23T12:45:02Z</time>
      </trkpt>
      <trkpt lat="42.7453610" lon="-8.6552380">
        <ele>11.9</ele>
        <time>2021-05-23T12:45:03Z</time>
      </trkpt>
      <trkpt lat="42.7453610" lon="-8.6552380">
        <ele>11.9</ele>
        <time>2021-05-23T12:45:04Z</time>
      </trkpt>
      <trkpt lat="42.7453610" lon="-8.6552380">
        <ele>11.9</ele>
        <time>2021-05-23T12:45:05Z</time>
      </trkpt>
      <trkpt lat="42.7453610" lon="-8.6552460">
        <ele>11.9</ele>
        <time>2021-05-23T12:45:06Z</time>
      </trkpt>
      <trkpt lat="42.7453620" lon="-8.6552450">
        <ele>11.9</ele>
        <time>2021-05-23T12:45:07Z</time>
      </trkpt>
      <trkpt lat="42.7453600" lon="-8.6552450">
        <ele>11.9</ele>
        <time>2021-05-23T12:45:08Z</time>
      </trkpt>
      <trkpt lat="42.7453600" lon="-8.6552450">
        <ele>11.9</ele>
        <time>2021-05-23T12:45:09Z</time>
      </trkpt>
      <trkpt lat="42.7453590" lon="-8.6552460">
        <ele>11.9</ele>
        <time>2021-05-23T12:45:10Z</time>
      </trkpt>
      <trkpt lat="42.7453590" lon="-8.6552460">
        <ele>11.9</ele>
        <time>2021-05-23T12:45:11Z</time>
      </trkpt>
      <trkpt lat="42.7453590" lon="-8.6552460">
        <ele>11.9</ele>
        <time>2021-05-23T12:45:12Z</time>
      </trkpt>
      <trkpt lat="42.7453600" lon="-8.6552440">
        <ele>11.9</ele>
        <time>2021-05-23T12:45:13Z</time>
      </trkpt>
      <trkpt lat="42.7453610" lon="-8.6552440">
        <ele>11.9</ele>
        <time>2021-05-23T12:45:14Z</time>
      </trkpt>
      <trkpt lat="42.7453590" lon="-8.6552410">
        <ele>11.9</ele>
        <time>2021-05-23T12:45:15Z</time>
      </trkpt>
      <trkpt lat="42.7453490" lon="-8.6552410">
        <ele>11.9</ele>
        <time>2021-05-23T12:45:16Z</time>
      </trkpt>
      <trkpt lat="42.7453430" lon="-8.6552370">
        <ele>11.9</ele>
        <time>2021-05-23T12:45:17Z</time>
      </trkpt>
      <trkpt lat="42.7453460" lon="-8.6552320">
        <ele>11.9</ele>
        <time>2021-05-23T12:45:18Z</time>
      </trkpt>
      <trkpt lat="42.7453420" lon="-8.6552270">
        <ele>11.9</ele>
        <time>2021-05-23T12:45:19Z</time>
      </trkpt>
      <trkpt lat="42.7453420" lon="-8.6552100">
        <ele>11.9</ele>
        <time>2021-05-23T12:45:20Z</time>
      </trkpt>
      <trkpt lat="42.7453410" lon="-8.6551990">
        <ele>11.9</ele>
        <time>2021-05-23T12:45:21Z</time>
      </trkpt>
      <trkpt lat="42.7453440" lon="-8.6552000">
        <ele>11.9</ele>
        <time>2021-05-23T12:45:22Z</time>
      </trkpt>
      <trkpt lat="42.7453540" lon="-8.6551870">
        <ele>11.9</ele>
        <time>2021-05-23T12:45:23Z</time>
      </trkpt>
      <trkpt lat="42.7453550" lon="-8.6551820">
        <ele>11.9</ele>
        <time>2021-05-23T12:45:24Z</time>
      </trkpt>
      <trkpt lat="42.7453570" lon="-8.6551710">
        <ele>12.0</ele>
        <time>2021-05-23T12:45:25Z</time>
      </trkpt>
      <trkpt lat="42.7453650" lon="-8.6551700">
        <ele>12.0</ele>
        <time>2021-05-23T12:45:26Z</time>
      </trkpt>
      <trkpt lat="42.7453760" lon="-8.6551580">
        <ele>12.0</ele>
        <time>2021-05-23T12:45:27Z</time>
      </trkpt>
      <trkpt lat="42.7453850" lon="-8.6551490">
        <ele>12.0</ele>
        <time>2021-05-23T12:45:28Z</time>
      </trkpt>
      <trkpt lat="42.7453880" lon="-8.6551460">
        <ele>12.0</ele>
        <time>2021-05-23T12:45:29Z</time>
      </trkpt>
      <trkpt lat="42.7453920" lon="-8.6551330">
        <ele>12.0</ele>
        <time>2021-05-23T12:45:30Z</time>
      </trkpt>
      <trkpt lat="42.7453990" lon="-8.6551190">
        <ele>12.0</ele>
        <time>2021-05-23T12:45:31Z</time>
      </trkpt>
      <trkpt lat="42.7454000" lon="-8.6551050">
        <ele>12.0</ele>
        <time>2021-05-23T12:45:32Z</time>
      </trkpt>
      <trkpt lat="42.7454050" lon="-8.6550960">
        <ele>12.0</ele>
        <time>2021-05-23T12:45:33Z</time>
      </trkpt>
      <trkpt lat="42.7454050" lon="-8.6550880">
        <ele>12.0</ele>
        <time>2021-05-23T12:45:34Z</time>
      </trkpt>
      <trkpt lat="42.7454160" lon="-8.6550830">
        <ele>12.0</ele>
        <time>2021-05-23T12:45:35Z</time>
      </trkpt>
      <trkpt lat="42.7454210" lon="-8.6550720">
        <ele>12.0</ele>
        <time>2021-05-23T12:45:36Z</time>
      </trkpt>
      <trkpt lat="42.7454300" lon="-8.6550620">
        <ele>12.0</ele>
        <time>2021-05-23T12:45:37Z</time>
      </trkpt>
      <trkpt lat="42.7454320" lon="-8.6550510">
        <ele>12.1</ele>
        <time>2021-05-23T12:45:38Z</time>
      </trkpt>
      <trkpt lat="42.7454400" lon="-8.6550400">
        <ele>12.1</ele>
        <time>2021-05-23T12:45:39Z</time>
      </trkpt>
      <trkpt lat="42.7454470" lon="-8.6550250">
        <ele>12.1</ele>
        <time>2021-05-23T12:45:40Z</time>
      </trkpt>
      <trkpt lat="42.7454530" lon="-8.6550250">
        <ele>12.1</ele>
        <time>2021-05-23T12:45:41Z</time>
      </trkpt>
      <trkpt lat="42.7454590" lon="-8.6550190">
        <ele>12.1</ele>
        <time>2021-05-23T12:45:42Z</time>
      </trkpt>
      <trkpt lat="42.7454650" lon="-8.6550040">
        <ele>12.1</ele>
        <time>2021-05-23T12:45:43Z</time>
      </trkpt>
      <trkpt lat="42.7454710" lon="-8.6549910">
        <ele>12.1</ele>
        <time>2021-05-23T12:45:44Z</time>
      </trkpt>
      <trkpt lat="42.7454770" lon="-8.6549710">
        <ele>12.1</ele>
        <time>2021-05-23T12:45:45Z</time>
      </trkpt>
      <trkpt lat="42.7454850" lon="-8.6549670">
        <ele>12.1</ele>
        <time>2021-05-23T12:45:46Z</time>
      </trkpt>
      <trkpt lat="42.7454870" lon="-8.6549570">
        <ele>12.1</ele>
        <time>2021-05-23T12:45:47Z</time>
      </trkpt>
      <trkpt lat="42.7454920" lon="-8.6549440">
        <ele>12.1</ele>
        <time>2021-05-23T12:45:48Z</time>
      </trkpt>
      <trkpt lat="42.7454990" lon="-8.6549350">
        <ele>12.1</ele>
        <time>2021-05-23T12:45:49Z</time>
      </trkpt>
      <trkpt lat="42.7455050" lon="-8.6549110">
        <ele>12.1</ele>
        <time>2021-05-23T12:45:50Z</time>
      </trkpt>
      <trkpt lat="42.7455140" lon="-8.6548970">
        <ele>12.2</ele>
        <time>2021-05-23T12:45:51Z</time>
      </trkpt>
      <trkpt lat="42.7455210" lon="-8.6548830">
        <ele>12.2</ele>
        <time>2021-05-23T12:45:52Z</time>
      </trkpt>
      <trkpt lat="42.7455230" lon="-8.6548720">
        <ele>12.2</ele>
        <time>2021-05-23T12:45:53Z</time>
      </trkpt>
      <trkpt lat="42.7455290" lon="-8.6548550">
        <ele>12.2</ele>
        <time>2021-05-23T12:45:54Z</time>
      </trkpt>
      <trkpt lat="42.7455360" lon="-8.6548430">
        <ele>12.2</ele>
        <time>2021-05-23T12:45:55Z</time>
      </trkpt>
      <trkpt lat="42.7455380" lon="-8.6548350">
        <ele>12.2</ele>
        <time>2021-05-23T12:45:56Z</time>
      </trkpt>
      <trkpt lat="42.7455440" lon="-8.6548230">
        <ele>12.2</ele>
        <time>2021-05-23T12:45:57Z</time>
      </trkpt>
      <trkpt lat="42.7455460" lon="-8.6548110">
        <ele>12.2</ele>
        <time>2021-05-23T12:45:58Z</time>
      </trkpt>
      <trkpt lat="42.7455480" lon="-8.6547970">
        <ele>12.2</ele>
        <time>2021-05-23T12:45:59Z</time>
      </trkpt>
      <trkpt lat="42.7455540" lon="-8.6547840">
        <ele>12.2</ele>
        <time>2021-05-23T12:46:00Z</time>
      </trkpt>
      <trkpt lat="42.7455650" lon="-8.6547590">
        <ele>12.2</ele>
        <time>2021-05-23T12:46:01Z</time>
      </trkpt>
      <trkpt lat="42.7455690" lon="-8.6547510">
        <ele>12.2</ele>
        <time>2021-05-23T12:46:02Z</time>
      </trkpt>
      <trkpt lat="42.7455720" lon="-8.6547420">
        <ele>12.3</ele>
        <time>2021-05-23T12:46:03Z</time>
      </trkpt>
      <trkpt lat="42.7455760" lon="-8.6547340">
        <ele>12.3</ele>
        <time>2021-05-23T12:46:04Z</time>
      </trkpt>
      <trkpt lat="42.7455780" lon="-8.6547270">
        <ele>12.3</ele>
        <time>2021-05-23T12:46:05Z</time>
      </trkpt>
      <trkpt lat="42.7455780" lon="-8.6547080">
        <ele>12.3</ele>
        <time>2021-05-23T12:46:06Z</time>
      </trkpt>
      <trkpt lat="42.7455790" lon="-8.6547070">
        <ele>12.3</ele>
        <time>2021-05-23T12:46:07Z</time>
      </trkpt>
      <trkpt lat="42.7455780" lon="-8.6547070">
        <ele>12.3</ele>
        <time>2021-05-23T12:46:08Z</time>
      </trkpt>
      <trkpt lat="42.7455770" lon="-8.6547040">
        <ele>12.3</ele>
        <time>2021-05-23T12:46:09Z</time>
      </trkpt>
      <trkpt lat="42.7455780" lon="-8.6547030">
        <ele>12.3</ele>
        <time>2021-05-23T12:46:10Z</time>
      </trkpt>
      <trkpt lat="42.7455820" lon="-8.6547020">
        <ele>12.3</ele>
        <time>2021-05-23T12:46:11Z</time>
      </trkpt>
      <trkpt lat="42.7455850" lon="-8.6547020">
        <ele>12.3</ele>
        <time>2021-05-23T12:46:12Z</time>
      </trkpt>
      <trkpt lat="42.7455860" lon="-8.6547030">
        <ele>12.3</ele>
        <time>2021-05-23T12:46:13Z</time>
      </trkpt>
      <trkpt lat="42.7455860" lon="-8.6546990">
        <ele>12.3</ele>
        <time>2021-05-23T12:46:14Z</time>
      </trkpt>
      <trkpt lat="42.7455910" lon="-8.6546960">
        <ele>12.3</ele>
        <time>2021-05-23T12:46:15Z</time>
      </trkpt>
      <trkpt lat="42.7455930" lon="-8.6546950">
        <ele>12.3</ele>
        <time>2021-05-23T12:46:16Z</time>
      </trkpt>
      <trkpt lat="42.7455940" lon="-8.6546950">
        <ele>12.3</ele>
        <time>2021-05-23T12:46:17Z</time>
      </trkpt>
      <trkpt lat="42.7455960" lon="-8.6546940">
        <ele>12.3</ele>
        <time>2021-05-23T12:46:19Z</time>
      </trkpt>
      <trkpt lat="42.7455980" lon="-8.6546940">
        <ele>12.3</ele>
        <time>2021-05-23T12:46:20Z</time>
      </trkpt>
      <trkpt lat="42.7456000" lon="-8.6546930">
        <ele>12.3</ele>
        <time>2021-05-23T12:46:21Z</time>
      </trkpt>
      <trkpt lat="42.7456020" lon="-8.6546930">
        <ele>12.3</ele>
        <time>2021-05-23T12:46:22Z</time>
      </trkpt>
      <trkpt lat="42.7456030" lon="-8.6546920">
        <ele>12.3</ele>
        <time>2021-05-23T12:46:23Z</time>
      </trkpt>
      <trkpt lat="42.7456050" lon="-8.6546920">
        <ele>12.3</ele>
        <time>2021-05-23T12:46:24Z</time>
      </trkpt>
      <trkpt lat="42.7456070" lon="-8.6546920">
        <ele>12.3</ele>
        <time>2021-05-23T12:46:25Z</time>
      </trkpt>
      <trkpt lat="42.7456090" lon="-8.6546910">
        <ele>12.3</ele>
        <time>2021-05-23T12:46:26Z</time>
      </trkpt>
      <trkpt lat="42.7456110" lon="-8.6546910">
        <ele>12.3</ele>
        <time>2021-05-23T12:46:27Z</time>
      </trkpt>
      <trkpt lat="42.7456120" lon="-8.6546900">
        <ele>12.3</ele>
        <time>2021-05-23T12:46:28Z</time>
      </trkpt>
      <trkpt lat="42.7456140" lon="-8.6546900">
        <ele>12.3</ele>
        <time>2021-05-23T12:46:29Z</time>
      </trkpt>
      <trkpt lat="42.7456160" lon="-8.6546890">
        <ele>12.3</ele>
        <time>2021-05-23T12:46:30Z</time>
      </trkpt>
      <trkpt lat="42.7456180" lon="-8.6546890">
        <ele>12.3</ele>
        <time>2021-05-23T12:46:31Z</time>
      </trkpt>
      <trkpt lat="42.7456200" lon="-8.6546880">
        <ele>12.3</ele>
        <time>2021-05-23T12:46:32Z</time>
      </trkpt>
      <trkpt lat="42.7456210" lon="-8.6546880">
        <ele>12.3</ele>
        <time>2021-05-23T12:46:33Z</time>
      </trkpt>
      <trkpt lat="42.7456230" lon="-8.6546870">
        <ele>12.3</ele>
        <time>2021-05-23T12:46:34Z</time>
      </trkpt>
      <trkpt lat="42.7456250" lon="-8.6546870">
        <ele>12.3</ele>
        <time>2021-05-23T12:46:35Z</time>
      </trkpt>
      <trkpt lat="42.7456270" lon="-8.6546740">
        <ele>12.3</ele>
        <time>2021-05-23T12:46:36Z</time>
      </trkpt>
      <trkpt lat="42.7456270" lon="-8.6546670">
        <ele>12.3</ele>
        <time>2021-05-23T12:46:37Z</time>
      </trkpt>
      <trkpt lat="42.7456290" lon="-8.6546520">
        <ele>12.3</ele>
        <time>2021-05-23T12:46:38Z</time>
      </trkpt>
      <trkpt lat="42.7456300" lon="-8.6546460">
        <ele>12.3</ele>
        <time>2021-05-23T12:46:39Z</time>
      </trkpt>
      <trkpt lat="42.7456300" lon="-8.6546410">
        <ele>12.3</ele>
        <time>2021-05-23T12:46:40Z</time>
      </trkpt>
      <trkpt lat="42.7456270" lon="-8.6546270">
        <ele>12.3</ele>
        <time>2021-05-23T12:46:41Z</time>
      </trkpt>
      <trkpt lat="42.7456230" lon="-8.6546090">
        <ele>12.3</ele>
        <time>2021-05-23T12:46:42Z</time>
      </trkpt>
      <trkpt lat="42.7456210" lon="-8.6545980">
        <ele>12.3</ele>
        <time>2021-05-23T12:46:43Z</time>
      </trkpt>
      <trkpt lat="42.7456180" lon="-8.6545810">
        <ele>12.3</ele>
        <time>2021-05-23T12:46:44Z</time>
      </trkpt>
      <trkpt lat="42.7456180" lon="-8.6545630">
        <ele>12.3</ele>
        <time>2021-05-23T12:46:45Z</time>
      </trkpt>
      <trkpt lat="42.7456080" lon="-8.6545450">
        <ele>12.3</ele>
        <time>2021-05-23T12:46:46Z</time>
      </trkpt>
      <trkpt lat="42.7456070" lon="-8.6545360">
        <ele>12.3</ele>
        <time>2021-05-23T12:46:47Z</time>
      </trkpt>
      <trkpt lat="42.7456050" lon="-8.6545200">
        <ele>12.3</ele>
        <time>2021-05-23T12:46:48Z</time>
      </trkpt>
      <trkpt lat="42.7456100" lon="-8.6544890">
        <ele>12.3</ele>
        <time>2021-05-23T12:46:49Z</time>
      </trkpt>
      <trkpt lat="42.7456110" lon="-8.6544760">
        <ele>12.2</ele>
        <time>2021-05-23T12:46:50Z</time>
      </trkpt>
      <trkpt lat="42.7456120" lon="-8.6544640">
        <ele>12.2</ele>
        <time>2021-05-23T12:46:51Z</time>
      </trkpt>
      <trkpt lat="42.7456120" lon="-8.6544470">
        <ele>12.2</ele>
        <time>2021-05-23T12:46:52Z</time>
      </trkpt>
      <trkpt lat="42.7456140" lon="-8.6544340">
        <ele>12.2</ele>
        <time>2021-05-23T12:46:53Z</time>
      </trkpt>
      <trkpt lat="42.7456120" lon="-8.6544160">
        <ele>12.2</ele>
        <time>2021-05-23T12:46:54Z</time>
      </trkpt>
      <trkpt lat="42.7456110" lon="-8.6543980">
        <ele>12.1</ele>
        <time>2021-05-23T12:46:55Z</time>
      </trkpt>
      <trkpt lat="42.7456100" lon="-8.6543760">
        <ele>12.1</ele>
        <time>2021-05-23T12:46:56Z</time>
      </trkpt>
      <trkpt lat="42.7456070" lon="-8.6543520">
        <ele>12.1</ele>
        <time>2021-05-23T12:46:57Z</time>
      </trkpt>
      <trkpt lat="42.7456070" lon="-8.6543360">
        <ele>12.0</ele>
        <time>2021-05-23T12:46:58Z</time>
      </trkpt>
      <trkpt lat="42.7456080" lon="-8.6543200">
        <ele>12.0</ele>
        <time>2021-05-23T12:46:59Z</time>
      </trkpt>
      <trkpt lat="42.7456100" lon="-8.6542920">
        <ele>11.9</ele>
        <time>2021-05-23T12:47:00Z</time>
      </trkpt>
      <trkpt lat="42.7456110" lon="-8.6542810">
        <ele>11.9</ele>
        <time>2021-05-23T12:47:01Z</time>
      </trkpt>
      <trkpt lat="42.7456130" lon="-8.6542710">
        <ele>11.9</ele>
        <time>2021-05-23T12:47:02Z</time>
      </trkpt>
      <trkpt lat="42.7456130" lon="-8.6542570">
        <ele>11.8</ele>
        <time>2021-05-23T12:47:03Z</time>
      </trkpt>
      <trkpt lat="42.7456120" lon="-8.6542400">
        <ele>11.8</ele>
        <time>2021-05-23T12:47:04Z</time>
      </trkpt>
      <trkpt lat="42.7456100" lon="-8.6542290">
        <ele>11.8</ele>
        <time>2021-05-23T12:47:05Z</time>
      </trkpt>
      <trkpt lat="42.7456050" lon="-8.6542090">
        <ele>11.7</ele>
        <time>2021-05-23T12:47:06Z</time>
      </trkpt>
      <trkpt lat="42.7456040" lon="-8.6541910">
        <ele>11.7</ele>
        <time>2021-05-23T12:47:07Z</time>
      </trkpt>
      <trkpt lat="42.7456040" lon="-8.6541650">
        <ele>11.6</ele>
        <time>2021-05-23T12:47:08Z</time>
      </trkpt>
      <trkpt lat="42.7456040" lon="-8.6541520">
        <ele>11.6</ele>
        <time>2021-05-23T12:47:09Z</time>
      </trkpt>
      <trkpt lat="42.7456030" lon="-8.6541380">
        <ele>11.5</ele>
        <time>2021-05-23T12:47:10Z</time>
      </trkpt>
      <trkpt lat="42.7456050" lon="-8.6541200">
        <ele>11.5</ele>
        <time>2021-05-23T12:47:11Z</time>
      </trkpt>
      <trkpt lat="42.7456090" lon="-8.6540990">
        <ele>11.4</ele>
        <time>2021-05-23T12:47:12Z</time>
      </trkpt>
      <trkpt lat="42.7456100" lon="-8.6540850">
        <ele>11.4</ele>
        <time>2021-05-23T12:47:13Z</time>
      </trkpt>
      <trkpt lat="42.7456090" lon="-8.6540750">
        <ele>11.3</ele>
        <time>2021-05-23T12:47:14Z</time>
      </trkpt>
      <trkpt lat="42.7456090" lon="-8.6540660">
        <ele>11.3</ele>
        <time>2021-05-23T12:47:15Z</time>
      </trkpt>
      <trkpt lat="42.7456080" lon="-8.6540560">
        <ele>11.3</ele>
        <time>2021-05-23T12:47:16Z</time>
      </trkpt>
      <trkpt lat="42.7456070" lon="-8.6540460">
        <ele>11.3</ele>
        <time>2021-05-23T12:47:17Z</time>
      </trkpt>
      <trkpt lat="42.7456220" lon="-8.6540140">
        <ele>11.3</ele>
        <time>2021-05-23T12:47:18Z</time>
      </trkpt>
      <trkpt lat="42.7456260" lon="-8.6539980">
        <ele>11.3</ele>
        <time>2021-05-23T12:47:19Z</time>
      </trkpt>
      <trkpt lat="42.7456390" lon="-8.6539890">
        <ele>11.2</ele>
        <time>2021-05-23T12:47:20Z</time>
      </trkpt>
      <trkpt lat="42.7456440" lon="-8.6539690">
        <ele>11.2</ele>
        <time>2021-05-23T12:47:21Z</time>
      </trkpt>
      <trkpt lat="42.7456600" lon="-8.6539490">
        <ele>11.2</ele>
        <time>2021-05-23T12:47:22Z</time>
      </trkpt>
      <trkpt lat="42.7456630" lon="-8.6539370">
        <ele>11.2</ele>
        <time>2021-05-23T12:47:23Z</time>
      </trkpt>
      <trkpt lat="42.7456660" lon="-8.6539260">
        <ele>11.2</ele>
        <time>2021-05-23T12:47:24Z</time>
      </trkpt>
      <trkpt lat="42.7456730" lon="-8.6538940">
        <ele>11.2</ele>
        <time>2021-05-23T12:47:25Z</time>
      </trkpt>
      <trkpt lat="42.7456850" lon="-8.6538840">
        <ele>11.1</ele>
        <time>2021-05-23T12:47:26Z</time>
      </trkpt>
      <trkpt lat="42.7456950" lon="-8.6538680">
        <ele>11.2</ele>
        <time>2021-05-23T12:47:27Z</time>
      </trkpt>
      <trkpt lat="42.7457000" lon="-8.6538460">
        <ele>11.2</ele>
        <time>2021-05-23T12:47:28Z</time>
      </trkpt>
      <trkpt lat="42.7457160" lon="-8.6538220">
        <ele>11.3</ele>
        <time>2021-05-23T12:47:29Z</time>
      </trkpt>
      <trkpt lat="42.7457220" lon="-8.6538130">
        <ele>11.3</ele>
        <time>2021-05-23T12:47:30Z</time>
      </trkpt>
      <trkpt lat="42.7457290" lon="-8.6538040">
        <ele>11.4</ele>
        <time>2021-05-23T12:47:31Z</time>
      </trkpt>
      <trkpt lat="42.7457380" lon="-8.6537900">
        <ele>11.4</ele>
        <time>2021-05-23T12:47:32Z</time>
      </trkpt>
      <trkpt lat="42.7457460" lon="-8.6537730">
        <ele>11.4</ele>
        <time>2021-05-23T12:47:33Z</time>
      </trkpt>
      <trkpt lat="42.7457470" lon="-8.6537500">
        <ele>11.5</ele>
        <time>2021-05-23T12:47:34Z</time>
      </trkpt>
      <trkpt lat="42.7457520" lon="-8.6537280">
        <ele>11.6</ele>
        <time>2021-05-23T12:47:35Z</time>
      </trkpt>
      <trkpt lat="42.7457650" lon="-8.6537110">
        <ele>11.7</ele>
        <time>2021-05-23T12:47:36Z</time>
      </trkpt>
      <trkpt lat="42.7457730" lon="-8.6536890">
        <ele>11.7</ele>
        <time>2021-05-23T12:47:37Z</time>
      </trkpt>
      <trkpt lat="42.7457740" lon="-8.6536750">
        <ele>11.8</ele>
        <time>2021-05-23T12:47:38Z</time>
      </trkpt>
      <trkpt lat="42.7457830" lon="-8.6536630">
        <ele>11.9</ele>
        <time>2021-05-23T12:47:39Z</time>
      </trkpt>
      <trkpt lat="42.7457900" lon="-8.6536570">
        <ele>11.9</ele>
        <time>2021-05-23T12:47:40Z</time>
      </trkpt>
      <trkpt lat="42.7458010" lon="-8.6536320">
        <ele>12.0</ele>
        <time>2021-05-23T12:47:41Z</time>
      </trkpt>
      <trkpt lat="42.7458070" lon="-8.6536230">
        <ele>12.1</ele>
        <time>2021-05-23T12:47:42Z</time>
      </trkpt>
      <trkpt lat="42.7458120" lon="-8.6536150">
        <ele>12.1</ele>
        <time>2021-05-23T12:47:43Z</time>
      </trkpt>
      <trkpt lat="42.7458270" lon="-8.6535910">
        <ele>12.3</ele>
        <time>2021-05-23T12:47:44Z</time>
      </trkpt>
      <trkpt lat="42.7458310" lon="-8.6535790">
        <ele>12.4</ele>
        <time>2021-05-23T12:47:45Z</time>
      </trkpt>
      <trkpt lat="42.7458360" lon="-8.6535670">
        <ele>12.4</ele>
        <time>2021-05-23T12:47:46Z</time>
      </trkpt>
      <trkpt lat="42.7458480" lon="-8.6535620">
        <ele>12.5</ele>
        <time>2021-05-23T12:47:47Z</time>
      </trkpt>
      <trkpt lat="42.7458590" lon="-8.6535520">
        <ele>12.6</ele>
        <time>2021-05-23T12:47:48Z</time>
      </trkpt>
      <trkpt lat="42.7458680" lon="-8.6535430">
        <ele>12.7</ele>
        <time>2021-05-23T12:47:49Z</time>
      </trkpt>
      <trkpt lat="42.7458800" lon="-8.6535220">
        <ele>12.9</ele>
        <time>2021-05-23T12:47:50Z</time>
      </trkpt>
      <trkpt lat="42.7458870" lon="-8.6535100">
        <ele>12.9</ele>
        <time>2021-05-23T12:47:51Z</time>
      </trkpt>
      <trkpt lat="42.7458940" lon="-8.6534990">
        <ele>13.0</ele>
        <time>2021-05-23T12:47:52Z</time>
      </trkpt>
      <trkpt lat="42.7459000" lon="-8.6534930">
        <ele>13.1</ele>
        <time>2021-05-23T12:47:53Z</time>
      </trkpt>
      <trkpt lat="42.7459130" lon="-8.6534790">
        <ele>13.2</ele>
        <time>2021-05-23T12:47:54Z</time>
      </trkpt>
      <trkpt lat="42.7459300" lon="-8.6534610">
        <ele>13.4</ele>
        <time>2021-05-23T12:47:55Z</time>
      </trkpt>
      <trkpt lat="42.7459430" lon="-8.6534510">
        <ele>13.5</ele>
        <time>2021-05-23T12:47:56Z</time>
      </trkpt>
      <trkpt lat="42.7459530" lon="-8.6534440">
        <ele>13.6</ele>
        <time>2021-05-23T12:47:57Z</time>
      </trkpt>
      <trkpt lat="42.7459600" lon="-8.6534360">
        <ele>13.6</ele>
        <time>2021-05-23T12:47:58Z</time>
      </trkpt>
      <trkpt lat="42.7459680" lon="-8.6534210">
        <ele>13.7</ele>
        <time>2021-05-23T12:47:59Z</time>
      </trkpt>
      <trkpt lat="42.7459860" lon="-8.6534300">
        <ele>13.9</ele>
        <time>2021-05-23T12:48:00Z</time>
      </trkpt>
      <trkpt lat="42.7460000" lon="-8.6534170">
        <ele>14.0</ele>
        <time>2021-05-23T12:48:01Z</time>
      </trkpt>
      <trkpt lat="42.7460090" lon="-8.6534060">
        <ele>14.1</ele>
        <time>2021-05-23T12:48:02Z</time>
      </trkpt>
      <trkpt lat="42.7460230" lon="-8.6533950">
        <ele>14.2</ele>
        <time>2021-05-23T12:48:03Z</time>
      </trkpt>
      <trkpt lat="42.7460280" lon="-8.6533860">
        <ele>14.2</ele>
        <time>2021-05-23T12:48:04Z</time>
      </trkpt>
      <trkpt lat="42.7460420" lon="-8.6533670">
        <ele>14.3</ele>
        <time>2021-05-23T12:48:05Z</time>
      </trkpt>
      <trkpt lat="42.7460490" lon="-8.6533580">
        <ele>14.4</ele>
        <time>2021-05-23T12:48:06Z</time>
      </trkpt>
      <trkpt lat="42.7460590" lon="-8.6533450">
        <ele>14.5</ele>
        <time>2021-05-23T12:48:07Z</time>
      </trkpt>
      <trkpt lat="42.7460720" lon="-8.6533380">
        <ele>14.6</ele>
        <time>2021-05-23T12:48:08Z</time>
      </trkpt>
      <trkpt lat="42.7460810" lon="-8.6533320">
        <ele>14.6</ele>
        <time>2021-05-23T12:48:09Z</time>
      </trkpt>
      <trkpt lat="42.7460930" lon="-8.6533240">
        <ele>14.7</ele>
        <time>2021-05-23T12:48:10Z</time>
      </trkpt>
      <trkpt lat="42.7461000" lon="-8.6533140">
        <ele>14.8</ele>
        <time>2021-05-23T12:48:11Z</time>
      </trkpt>
      <trkpt lat="42.7461070" lon="-8.6533090">
        <ele>14.8</ele>
        <time>2021-05-23T12:48:12Z</time>
      </trkpt>
      <trkpt lat="42.7461170" lon="-8.6533020">
        <ele>14.9</ele>
        <time>2021-05-23T12:48:13Z</time>
      </trkpt>
      <trkpt lat="42.7461310" lon="-8.6532930">
        <ele>14.9</ele>
        <time>2021-05-23T12:48:14Z</time>
      </trkpt>
      <trkpt lat="42.7461400" lon="-8.6532850">
        <ele>15.0</ele>
        <time>2021-05-23T12:48:15Z</time>
      </trkpt>
      <trkpt lat="42.7461490" lon="-8.6532780">
        <ele>15.0</ele>
        <time>2021-05-23T12:48:16Z</time>
      </trkpt>
      <trkpt lat="42.7461610" lon="-8.6532710">
        <ele>15.1</ele>
        <time>2021-05-23T12:48:17Z</time>
      </trkpt>
      <trkpt lat="42.7461700" lon="-8.6532570">
        <ele>15.2</ele>
        <time>2021-05-23T12:48:18Z</time>
      </trkpt>
      <trkpt lat="42.7461770" lon="-8.6532530">
        <ele>15.2</ele>
        <time>2021-05-23T12:48:19Z</time>
      </trkpt>
      <trkpt lat="42.7461860" lon="-8.6532430">
        <ele>15.3</ele>
        <time>2021-05-23T12:48:20Z</time>
      </trkpt>
      <trkpt lat="42.7462000" lon="-8.6532260">
        <ele>15.4</ele>
        <time>2021-05-23T12:48:21Z</time>
      </trkpt>
      <trkpt lat="42.7462090" lon="-8.6532210">
        <ele>15.4</ele>
        <time>2021-05-23T12:48:22Z</time>
      </trkpt>
      <trkpt lat="42.7462170" lon="-8.6532150">
        <ele>15.4</ele>
        <time>2021-05-23T12:48:23Z</time>
      </trkpt>
      <trkpt lat="42.7462290" lon="-8.6532080">
        <ele>15.5</ele>
        <time>2021-05-23T12:48:24Z</time>
      </trkpt>
      <trkpt lat="42.7462360" lon="-8.6531990">
        <ele>15.5</ele>
        <time>2021-05-23T12:48:25Z</time>
      </trkpt>
      <trkpt lat="42.7462480" lon="-8.6531920">
        <ele>15.6</ele>
        <time>2021-05-23T12:48:26Z</time>
      </trkpt>
      <trkpt lat="42.7462650" lon="-8.6531760">
        <ele>15.7</ele>
        <time>2021-05-23T12:48:27Z</time>
      </trkpt>
      <trkpt lat="42.7462730" lon="-8.6531700">
        <ele>15.7</ele>
        <time>2021-05-23T12:48:28Z</time>
      </trkpt>
      <trkpt lat="42.7462810" lon="-8.6531630">
        <ele>15.8</ele>
        <time>2021-05-23T12:48:29Z</time>
      </trkpt>
      <trkpt lat="42.7462890" lon="-8.6531570">
        <ele>15.8</ele>
        <time>2021-05-23T12:48:30Z</time>
      </trkpt>
      <trkpt lat="42.7463010" lon="-8.6531520">
        <ele>15.9</ele>
        <time>2021-05-23T12:48:31Z</time>
      </trkpt>
      <trkpt lat="42.7463090" lon="-8.6531380">
        <ele>15.9</ele>
        <time>2021-05-23T12:48:32Z</time>
      </trkpt>
      <trkpt lat="42.7463180" lon="-8.6531360">
        <ele>16.0</ele>
        <time>2021-05-23T12:48:33Z</time>
      </trkpt>
      <trkpt lat="42.7463230" lon="-8.6531240">
        <ele>16.0</ele>
        <time>2021-05-23T12:48:34Z</time>
      </trkpt>
      <trkpt lat="42.7463380" lon="-8.6531160">
        <ele>16.1</ele>
        <time>2021-05-23T12:48:35Z</time>
      </trkpt>
      <trkpt lat="42.7463450" lon="-8.6531120">
        <ele>16.1</ele>
        <time>2021-05-23T12:48:36Z</time>
      </trkpt>
      <trkpt lat="42.7463590" lon="-8.6530990">
        <ele>16.2</ele>
        <time>2021-05-23T12:48:37Z</time>
      </trkpt>
      <trkpt lat="42.7463630" lon="-8.6530950">
        <ele>16.2</ele>
        <time>2021-05-23T12:48:38Z</time>
      </trkpt>
      <trkpt lat="42.7463800" lon="-8.6530890">
        <ele>16.3</ele>
        <time>2021-05-23T12:48:39Z</time>
      </trkpt>
      <trkpt lat="42.7463910" lon="-8.6530830">
        <ele>16.4</ele>
        <time>2021-05-23T12:48:40Z</time>
      </trkpt>
      <trkpt lat="42.7463970" lon="-8.6530730">
        <ele>16.4</ele>
        <time>2021-05-23T12:48:41Z</time>
      </trkpt>
      <trkpt lat="42.7464190" lon="-8.6530560">
        <ele>16.5</ele>
        <time>2021-05-23T12:48:43Z</time>
      </trkpt>
      <trkpt lat="42.7464370" lon="-8.6530530">
        <ele>16.6</ele>
        <time>2021-05-23T12:48:45Z</time>
      </trkpt>
      <trkpt lat="42.7464460" lon="-8.6530460">
        <ele>16.6</ele>
        <time>2021-05-23T12:48:46Z</time>
      </trkpt>
      <trkpt lat="42.7464540" lon="-8.6530380">
        <ele>16.7</ele>
        <time>2021-05-23T12:48:47Z</time>
      </trkpt>
      <trkpt lat="42.7464610" lon="-8.6530210">
        <ele>16.7</ele>
        <time>2021-05-23T12:48:48Z</time>
      </trkpt>
      <trkpt lat="42.7464720" lon="-8.6530140">
        <ele>16.8</ele>
        <time>2021-05-23T12:48:49Z</time>
      </trkpt>
      <trkpt lat="42.7464780" lon="-8.6530020">
        <ele>16.8</ele>
        <time>2021-05-23T12:48:50Z</time>
      </trkpt>
      <trkpt lat="42.7464860" lon="-8.6529990">
        <ele>16.9</ele>
        <time>2021-05-23T12:48:51Z</time>
      </trkpt>
      <trkpt lat="42.7464930" lon="-8.6529910">
        <ele>16.9</ele>
        <time>2021-05-23T12:48:52Z</time>
      </trkpt>
      <trkpt lat="42.7465040" lon="-8.6529810">
        <ele>17.0</ele>
        <time>2021-05-23T12:48:53Z</time>
      </trkpt>
      <trkpt lat="42.7465080" lon="-8.6529750">
        <ele>17.0</ele>
        <time>2021-05-23T12:48:54Z</time>
      </trkpt>
      <trkpt lat="42.7465200" lon="-8.6529820">
        <ele>17.1</ele>
        <time>2021-05-23T12:48:55Z</time>
      </trkpt>
      <trkpt lat="42.7465310" lon="-8.6529740">
        <ele>17.2</ele>
        <time>2021-05-23T12:48:56Z</time>
      </trkpt>
      <trkpt lat="42.7465440" lon="-8.6529560">
        <ele>17.3</ele>
        <time>2021-05-23T12:48:57Z</time>
      </trkpt>
      <trkpt lat="42.7465550" lon="-8.6529530">
        <ele>17.3</ele>
        <time>2021-05-23T12:48:58Z</time>
      </trkpt>
      <trkpt lat="42.7465710" lon="-8.6529520">
        <ele>17.4</ele>
        <time>2021-05-23T12:48:59Z</time>
      </trkpt>
      <trkpt lat="42.7465840" lon="-8.6529510">
        <ele>17.5</ele>
        <time>2021-05-23T12:49:00Z</time>
      </trkpt>
      <trkpt lat="42.7465960" lon="-8.6529380">
        <ele>17.5</ele>
        <time>2021-05-23T12:49:01Z</time>
      </trkpt>
      <trkpt lat="42.7466060" lon="-8.6529390">
        <ele>17.6</ele>
        <time>2021-05-23T12:49:02Z</time>
      </trkpt>
      <trkpt lat="42.7466170" lon="-8.6529320">
        <ele>17.7</ele>
        <time>2021-05-23T12:49:03Z</time>
      </trkpt>
      <trkpt lat="42.7466280" lon="-8.6529330">
        <ele>17.7</ele>
        <time>2021-05-23T12:49:04Z</time>
      </trkpt>
      <trkpt lat="42.7466440" lon="-8.6529270">
        <ele>17.8</ele>
        <time>2021-05-23T12:49:05Z</time>
      </trkpt>
      <trkpt lat="42.7466580" lon="-8.6529220">
        <ele>17.9</ele>
        <time>2021-05-23T12:49:06Z</time>
      </trkpt>
      <trkpt lat="42.7466690" lon="-8.6529150">
        <ele>17.9</ele>
        <time>2021-05-23T12:49:07Z</time>
      </trkpt>
      <trkpt lat="42.7466770" lon="-8.6529140">
        <ele>18.0</ele>
        <time>2021-05-23T12:49:08Z</time>
      </trkpt>
      <trkpt lat="42.7466900" lon="-8.6529020">
        <ele>18.0</ele>
        <time>2021-05-23T12:49:09Z</time>
      </trkpt>
      <trkpt lat="42.7466940" lon="-8.6528950">
        <ele>18.1</ele>
        <time>2021-05-23T12:49:10Z</time>
      </trkpt>
      <trkpt lat="42.7467010" lon="-8.6528930">
        <ele>18.1</ele>
        <time>2021-05-23T12:49:11Z</time>
      </trkpt>
      <trkpt lat="42.7467130" lon="-8.6528850">
        <ele>18.1</ele>
        <time>2021-05-23T12:49:12Z</time>
      </trkpt>
      <trkpt lat="42.7467170" lon="-8.6528780">
        <ele>18.2</ele>
        <time>2021-05-23T12:49:13Z</time>
      </trkpt>
      <trkpt lat="42.7467220" lon="-8.6528740">
        <ele>18.2</ele>
        <time>2021-05-23T12:49:14Z</time>
      </trkpt>
      <trkpt lat="42.7467330" lon="-8.6528690">
        <ele>18.2</ele>
        <time>2021-05-23T12:49:15Z</time>
      </trkpt>
      <trkpt lat="42.7467360" lon="-8.6528620">
        <ele>18.2</ele>
        <time>2021-05-23T12:49:16Z</time>
      </trkpt>
      <trkpt lat="42.7467430" lon="-8.6528530">
        <ele>18.3</ele>
        <time>2021-05-23T12:49:17Z</time>
      </trkpt>
      <trkpt lat="42.7467530" lon="-8.6528380">
        <ele>18.3</ele>
        <time>2021-05-23T12:49:18Z</time>
      </trkpt>
      <trkpt lat="42.7467610" lon="-8.6528340">
        <ele>18.3</ele>
        <time>2021-05-23T12:49:19Z</time>
      </trkpt>
      <trkpt lat="42.7467700" lon="-8.6528290">
        <ele>18.3</ele>
        <time>2021-05-23T12:49:20Z</time>
      </trkpt>
      <trkpt lat="42.7467780" lon="-8.6528240">
        <ele>18.4</ele>
        <time>2021-05-23T12:49:21Z</time>
      </trkpt>
      <trkpt lat="42.7467840" lon="-8.6528200">
        <ele>18.4</ele>
        <time>2021-05-23T12:49:22Z</time>
      </trkpt>
      <trkpt lat="42.7467950" lon="-8.6528170">
        <ele>18.4</ele>
        <time>2021-05-23T12:49:23Z</time>
      </trkpt>
      <trkpt lat="42.7468090" lon="-8.6528090">
        <ele>18.4</ele>
        <time>2021-05-23T12:49:24Z</time>
      </trkpt>
      <trkpt lat="42.7468270" lon="-8.6528010">
        <ele>18.4</ele>
        <time>2021-05-23T12:49:25Z</time>
      </trkpt>
      <trkpt lat="42.7468370" lon="-8.6528020">
        <ele>18.4</ele>
        <time>2021-05-23T12:49:26Z</time>
      </trkpt>
      <trkpt lat="42.7468460" lon="-8.6528020">
        <ele>18.5</ele>
        <time>2021-05-23T12:49:27Z</time>
      </trkpt>
      <trkpt lat="42.7468660" lon="-8.6527890">
        <ele>18.5</ele>
        <time>2021-05-23T12:49:28Z</time>
      </trkpt>
      <trkpt lat="42.7468760" lon="-8.6527830">
        <ele>18.5</ele>
        <time>2021-05-23T12:49:29Z</time>
      </trkpt>
      <trkpt lat="42.7468860" lon="-8.6527780">
        <ele>18.5</ele>
        <time>2021-05-23T12:49:30Z</time>
      </trkpt>
      <trkpt lat="42.7469010" lon="-8.6527730">
        <ele>18.5</ele>
        <time>2021-05-23T12:49:31Z</time>
      </trkpt>
      <trkpt lat="42.7469080" lon="-8.6527680">
        <ele>18.5</ele>
        <time>2021-05-23T12:49:32Z</time>
      </trkpt>
      <trkpt lat="42.7469200" lon="-8.6527660">
        <ele>18.5</ele>
        <time>2021-05-23T12:49:33Z</time>
      </trkpt>
      <trkpt lat="42.7469440" lon="-8.6527650">
        <ele>18.5</ele>
        <time>2021-05-23T12:49:34Z</time>
      </trkpt>
      <trkpt lat="42.7469510" lon="-8.6527640">
        <ele>18.5</ele>
        <time>2021-05-23T12:49:35Z</time>
      </trkpt>
      <trkpt lat="42.7469590" lon="-8.6527620">
        <ele>18.5</ele>
        <time>2021-05-23T12:49:36Z</time>
      </trkpt>
      <trkpt lat="42.7469740" lon="-8.6527600">
        <ele>18.5</ele>
        <time>2021-05-23T12:49:37Z</time>
      </trkpt>
      <trkpt lat="42.7469870" lon="-8.6527590">
        <ele>18.5</ele>
        <time>2021-05-23T12:49:38Z</time>
      </trkpt>
      <trkpt lat="42.7470170" lon="-8.6527560">
        <ele>18.5</ele>
        <time>2021-05-23T12:49:39Z</time>
      </trkpt>
      <trkpt lat="42.7470250" lon="-8.6527550">
        <ele>18.5</ele>
        <time>2021-05-23T12:49:40Z</time>
      </trkpt>
      <trkpt lat="42.7470430" lon="-8.6527610">
        <ele>18.5</ele>
        <time>2021-05-23T12:49:41Z</time>
      </trkpt>
      <trkpt lat="42.7470600" lon="-8.6527640">
        <ele>18.5</ele>
        <time>2021-05-23T12:49:42Z</time>
      </trkpt>
      <trkpt lat="42.7470770" lon="-8.6527630">
        <ele>18.5</ele>
        <time>2021-05-23T12:49:43Z</time>
      </trkpt>
      <trkpt lat="42.7470950" lon="-8.6527540">
        <ele>18.5</ele>
        <time>2021-05-23T12:49:44Z</time>
      </trkpt>
      <trkpt lat="42.7471120" lon="-8.6527600">
        <ele>18.5</ele>
        <time>2021-05-23T12:49:45Z</time>
      </trkpt>
      <trkpt lat="42.7471260" lon="-8.6527630">
        <ele>18.5</ele>
        <time>2021-05-23T12:49:46Z</time>
      </trkpt>
      <trkpt lat="42.7471400" lon="-8.6527690">
        <ele>18.5</ele>
        <time>2021-05-23T12:49:47Z</time>
      </trkpt>
      <trkpt lat="42.7471480" lon="-8.6527740">
        <ele>18.5</ele>
        <time>2021-05-23T12:49:48Z</time>
      </trkpt>
      <trkpt lat="42.7471540" lon="-8.6527780">
        <ele>18.5</ele>
        <time>2021-05-23T12:49:49Z</time>
      </trkpt>
      <trkpt lat="42.7471650" lon="-8.6527830">
        <ele>18.5</ele>
        <time>2021-05-23T12:49:50Z</time>
      </trkpt>
      <trkpt lat="42.7471820" lon="-8.6527870">
        <ele>18.5</ele>
        <time>2021-05-23T12:49:51Z</time>
      </trkpt>
      <trkpt lat="42.7471940" lon="-8.6527950">
        <ele>18.5</ele>
        <time>2021-05-23T12:49:52Z</time>
      </trkpt>
      <trkpt lat="42.7472090" lon="-8.6527960">
        <ele>18.5</ele>
        <time>2021-05-23T12:49:53Z</time>
      </trkpt>
      <trkpt lat="42.7472230" lon="-8.6527930">
        <ele>18.5</ele>
        <time>2021-05-23T12:49:54Z</time>
      </trkpt>
      <trkpt lat="42.7472410" lon="-8.6528020">
        <ele>18.5</ele>
        <time>2021-05-23T12:49:55Z</time>
      </trkpt>
      <trkpt lat="42.7472590" lon="-8.6528060">
        <ele>18.4</ele>
        <time>2021-05-23T12:49:56Z</time>
      </trkpt>
      <trkpt lat="42.7472690" lon="-8.6528140">
        <ele>18.4</ele>
        <time>2021-05-23T12:49:57Z</time>
      </trkpt>
      <trkpt lat="42.7472780" lon="-8.6528210">
        <ele>18.4</ele>
        <time>2021-05-23T12:49:58Z</time>
      </trkpt>
      <trkpt lat="42.7472890" lon="-8.6528170">
        <ele>18.4</ele>
        <time>2021-05-23T12:49:59Z</time>
      </trkpt>
      <trkpt lat="42.7472930" lon="-8.6528240">
        <ele>18.4</ele>
        <time>2021-05-23T12:50:00Z</time>
      </trkpt>
      <trkpt lat="42.7473060" lon="-8.6528280">
        <ele>18.4</ele>
        <time>2021-05-23T12:50:01Z</time>
      </trkpt>
      <trkpt lat="42.7473340" lon="-8.6528230">
        <ele>18.4</ele>
        <time>2021-05-23T12:50:02Z</time>
      </trkpt>
      <trkpt lat="42.7473550" lon="-8.6528230">
        <ele>18.4</ele>
        <time>2021-05-23T12:50:03Z</time>
      </trkpt>
      <trkpt lat="42.7473640" lon="-8.6528230">
        <ele>18.4</ele>
        <time>2021-05-23T12:50:04Z</time>
      </trkpt>
      <trkpt lat="42.7473730" lon="-8.6528230">
        <ele>18.3</ele>
        <time>2021-05-23T12:50:05Z</time>
      </trkpt>
      <trkpt lat="42.7473910" lon="-8.6528160">
        <ele>18.3</ele>
        <time>2021-05-23T12:50:06Z</time>
      </trkpt>
      <trkpt lat="42.7474010" lon="-8.6528110">
        <ele>18.3</ele>
        <time>2021-05-23T12:50:07Z</time>
      </trkpt>
      <trkpt lat="42.7474110" lon="-8.6528060">
        <ele>18.3</ele>
        <time>2021-05-23T12:50:08Z</time>
      </trkpt>
      <trkpt lat="42.7474260" lon="-8.6527940">
        <ele>18.3</ele>
        <time>2021-05-23T12:50:09Z</time>
      </trkpt>
      <trkpt lat="42.7474280" lon="-8.6527900">
        <ele>18.3</ele>
        <time>2021-05-23T12:50:10Z</time>
      </trkpt>
      <trkpt lat="42.7474430" lon="-8.6527920">
        <ele>18.2</ele>
        <time>2021-05-23T12:50:11Z</time>
      </trkpt>
      <trkpt lat="42.7474510" lon="-8.6527890">
        <ele>18.2</ele>
        <time>2021-05-23T12:50:12Z</time>
      </trkpt>
      <trkpt lat="42.7474560" lon="-8.6527810">
        <ele>18.2</ele>
        <time>2021-05-23T12:50:13Z</time>
      </trkpt>
      <trkpt lat="42.7474740" lon="-8.6527770">
        <ele>18.2</ele>
        <time>2021-05-23T12:50:14Z</time>
      </trkpt>
      <trkpt lat="42.7474840" lon="-8.6527700">
        <ele>18.2</ele>
        <time>2021-05-23T12:50:15Z</time>
      </trkpt>
      <trkpt lat="42.7474940" lon="-8.6527650">
        <ele>18.2</ele>
        <time>2021-05-23T12:50:16Z</time>
      </trkpt>
      <trkpt lat="42.7475060" lon="-8.6527620">
        <ele>18.1</ele>
        <time>2021-05-23T12:50:17Z</time>
      </trkpt>
      <trkpt lat="42.7475170" lon="-8.6527550">
        <ele>18.1</ele>
        <time>2021-05-23T12:50:18Z</time>
      </trkpt>
      <trkpt lat="42.7475300" lon="-8.6527440">
        <ele>18.1</ele>
        <time>2021-05-23T12:50:19Z</time>
      </trkpt>
      <trkpt lat="42.7475430" lon="-8.6527340">
        <ele>18.1</ele>
        <time>2021-05-23T12:50:20Z</time>
      </trkpt>
      <trkpt lat="42.7475600" lon="-8.6527210">
        <ele>18.0</ele>
        <time>2021-05-23T12:50:21Z</time>
      </trkpt>
      <trkpt lat="42.7475690" lon="-8.6527130">
        <ele>18.0</ele>
        <time>2021-05-23T12:50:22Z</time>
      </trkpt>
      <trkpt lat="42.7475840" lon="-8.6527040">
        <ele>18.0</ele>
        <time>2021-05-23T12:50:23Z</time>
      </trkpt>
      <trkpt lat="42.7475970" lon="-8.6526980">
        <ele>17.9</ele>
        <time>2021-05-23T12:50:24Z</time>
      </trkpt>
      <trkpt lat="42.7476080" lon="-8.6526980">
        <ele>17.9</ele>
        <time>2021-05-23T12:50:25Z</time>
      </trkpt>
      <trkpt lat="42.7476140" lon="-8.6526930">
        <ele>17.9</ele>
        <time>2021-05-23T12:50:26Z</time>
      </trkpt>
      <trkpt lat="42.7476280" lon="-8.6526930">
        <ele>17.9</ele>
        <time>2021-05-23T12:50:27Z</time>
      </trkpt>
      <trkpt lat="42.7476450" lon="-8.6526830">
        <ele>17.8</ele>
        <time>2021-05-23T12:50:28Z</time>
      </trkpt>
      <trkpt lat="42.7476690" lon="-8.6526680">
        <ele>17.8</ele>
        <time>2021-05-23T12:50:29Z</time>
      </trkpt>
      <trkpt lat="42.7476750" lon="-8.6526650">
        <ele>17.8</ele>
        <time>2021-05-23T12:50:30Z</time>
      </trkpt>
      <trkpt lat="42.7476820" lon="-8.6526630">
        <ele>17.8</ele>
        <time>2021-05-23T12:50:31Z</time>
      </trkpt>
      <trkpt lat="42.7476950" lon="-8.6526560">
        <ele>17.8</ele>
        <time>2021-05-23T12:50:32Z</time>
      </trkpt>
      <trkpt lat="42.7477130" lon="-8.6526410">
        <ele>17.7</ele>
        <time>2021-05-23T12:50:33Z</time>
      </trkpt>
      <trkpt lat="42.7477220" lon="-8.6526360">
        <ele>17.7</ele>
        <time>2021-05-23T12:50:34Z</time>
      </trkpt>
      <trkpt lat="42.7477240" lon="-8.6526380">
        <ele>17.7</ele>
        <time>2021-05-23T12:50:35Z</time>
      </trkpt>
      <trkpt lat="42.7477140" lon="-8.6526560">
        <ele>17.7</ele>
        <time>2021-05-23T12:50:36Z</time>
      </trkpt>
      <trkpt lat="42.7477030" lon="-8.6526690">
        <ele>17.7</ele>
        <time>2021-05-23T12:50:37Z</time>
      </trkpt>
      <trkpt lat="42.7477050" lon="-8.6526790">
        <ele>17.7</ele>
        <time>2021-05-23T12:50:38Z</time>
      </trkpt>
      <trkpt lat="42.7477020" lon="-8.6526850">
        <ele>17.7</ele>
        <time>2021-05-23T12:50:39Z</time>
      </trkpt>
      <trkpt lat="42.7477010" lon="-8.6526870">
        <ele>17.7</ele>
        <time>2021-05-23T12:50:40Z</time>
      </trkpt>
      <trkpt lat="42.7477060" lon="-8.6526850">
        <ele>17.7</ele>
        <time>2021-05-23T12:50:41Z</time>
      </trkpt>
      <trkpt lat="42.7477090" lon="-8.6526890">
        <ele>17.7</ele>
        <time>2021-05-23T12:50:42Z</time>
      </trkpt>
      <trkpt lat="42.7477100" lon="-8.6526910">
        <ele>17.7</ele>
        <time>2021-05-23T12:50:43Z</time>
      </trkpt>
      <trkpt lat="42.7477100" lon="-8.6526910">
        <ele>17.7</ele>
        <time>2021-05-23T12:50:44Z</time>
      </trkpt>
      <trkpt lat="42.7477110" lon="-8.6526920">
        <ele>17.7</ele>
        <time>2021-05-23T12:50:45Z</time>
      </trkpt>
      <trkpt lat="42.7477150" lon="-8.6526960">
        <ele>17.7</ele>
        <time>2021-05-23T12:50:46Z</time>
      </trkpt>
      <trkpt lat="42.7477180" lon="-8.6527000">
        <ele>17.7</ele>
        <time>2021-05-23T12:50:47Z</time>
      </trkpt>
      <trkpt lat="42.7477170" lon="-8.6527000">
        <ele>17.7</ele>
        <time>2021-05-23T12:50:48Z</time>
      </trkpt>
      <trkpt lat="42.7477190" lon="-8.6527010">
        <ele>17.7</ele>
        <time>2021-05-23T12:50:49Z</time>
      </trkpt>
      <trkpt lat="42.7477180" lon="-8.6527000">
        <ele>17.7</ele>
        <time>2021-05-23T12:50:50Z</time>
      </trkpt>
      <trkpt lat="42.7477190" lon="-8.6527010">
        <ele>17.7</ele>
        <time>2021-05-23T12:50:51Z</time>
      </trkpt>
      <trkpt lat="42.7477210" lon="-8.6527010">
        <ele>17.7</ele>
        <time>2021-05-23T12:50:52Z</time>
      </trkpt>
      <trkpt lat="42.7477220" lon="-8.6527010">
        <ele>17.7</ele>
        <time>2021-05-23T12:50:53Z</time>
      </trkpt>
      <trkpt lat="42.7477230" lon="-8.6527040">
        <ele>17.7</ele>
        <time>2021-05-23T12:50:54Z</time>
      </trkpt>
      <trkpt lat="42.7477240" lon="-8.6527050">
        <ele>17.7</ele>
        <time>2021-05-23T12:50:55Z</time>
      </trkpt>
      <trkpt lat="42.7477220" lon="-8.6527040">
        <ele>17.7</ele>
        <time>2021-05-23T12:50:56Z</time>
      </trkpt>
      <trkpt lat="42.7477170" lon="-8.6527050">
        <ele>17.7</ele>
        <time>2021-05-23T12:50:57Z</time>
      </trkpt>
      <trkpt lat="42.7477170" lon="-8.6527020">
        <ele>17.7</ele>
        <time>2021-05-23T12:50:58Z</time>
      </trkpt>
      <trkpt lat="42.7477160" lon="-8.6526880">
        <ele>17.7</ele>
        <time>2021-05-23T12:51:00Z</time>
      </trkpt>
      <trkpt lat="42.7477200" lon="-8.6526840">
        <ele>17.7</ele>
        <time>2021-05-23T12:51:01Z</time>
      </trkpt>
      <trkpt lat="42.7477210" lon="-8.6526760">
        <ele>17.7</ele>
        <time>2021-05-23T12:51:02Z</time>
      </trkpt>
      <trkpt lat="42.7477350" lon="-8.6526760">
        <ele>17.7</ele>
        <time>2021-05-23T12:51:03Z</time>
      </trkpt>
      <trkpt lat="42.7477390" lon="-8.6526620">
        <ele>17.7</ele>
        <time>2021-05-23T12:51:04Z</time>
      </trkpt>
      <trkpt lat="42.7477410" lon="-8.6526550">
        <ele>17.7</ele>
        <time>2021-05-23T12:51:05Z</time>
      </trkpt>
      <trkpt lat="42.7477540" lon="-8.6526550">
        <ele>17.7</ele>
        <time>2021-05-23T12:51:06Z</time>
      </trkpt>
      <trkpt lat="42.7477590" lon="-8.6526530">
        <ele>17.7</ele>
        <time>2021-05-23T12:51:07Z</time>
      </trkpt>
      <trkpt lat="42.7477640" lon="-8.6526520">
        <ele>17.7</ele>
        <time>2021-05-23T12:51:08Z</time>
      </trkpt>
      <trkpt lat="42.7477670" lon="-8.6526500">
        <ele>17.7</ele>
        <time>2021-05-23T12:51:09Z</time>
      </trkpt>
      <trkpt lat="42.7477690" lon="-8.6526490">
        <ele>17.8</ele>
        <time>2021-05-23T12:51:10Z</time>
      </trkpt>
      <trkpt lat="42.7477720" lon="-8.6526480">
        <ele>17.8</ele>
        <time>2021-05-23T12:51:11Z</time>
      </trkpt>
      <trkpt lat="42.7477740" lon="-8.6526460">
        <ele>17.8</ele>
        <time>2021-05-23T12:51:12Z</time>
      </trkpt>
      <trkpt lat="42.7477770" lon="-8.6526450">
        <ele>17.8</ele>
        <time>2021-05-23T12:51:13Z</time>
      </trkpt>
      <trkpt lat="42.7477790" lon="-8.6526440">
        <ele>17.8</ele>
        <time>2021-05-23T12:51:14Z</time>
      </trkpt>
      <trkpt lat="42.7477820" lon="-8.6526430">
        <ele>17.8</ele>
        <time>2021-05-23T12:51:15Z</time>
      </trkpt>
      <trkpt lat="42.7477840" lon="-8.6526410">
        <ele>17.8</ele>
        <time>2021-05-23T12:51:16Z</time>
      </trkpt>
      <trkpt lat="42.7477870" lon="-8.6526400">
        <ele>17.8</ele>
        <time>2021-05-23T12:51:17Z</time>
      </trkpt>
      <trkpt lat="42.7477890" lon="-8.6526390">
        <ele>17.8</ele>
        <time>2021-05-23T12:51:18Z</time>
      </trkpt>
      <trkpt lat="42.7477920" lon="-8.6526370">
        <ele>17.8</ele>
        <time>2021-05-23T12:51:19Z</time>
      </trkpt>
      <trkpt lat="42.7477940" lon="-8.6526360">
        <ele>17.8</ele>
        <time>2021-05-23T12:51:20Z</time>
      </trkpt>
      <trkpt lat="42.7478040" lon="-8.6526280">
        <ele>17.8</ele>
        <time>2021-05-23T12:51:21Z</time>
      </trkpt>
      <trkpt lat="42.7478100" lon="-8.6526140">
        <ele>17.8</ele>
        <time>2021-05-23T12:51:22Z</time>
      </trkpt>
      <trkpt lat="42.7478180" lon="-8.6526030">
        <ele>17.8</ele>
        <time>2021-05-23T12:51:23Z</time>
      </trkpt>
      <trkpt lat="42.7478270" lon="-8.6525940">
        <ele>17.9</ele>
        <time>2021-05-23T12:51:24Z</time>
      </trkpt>
      <trkpt lat="42.7478400" lon="-8.6525890">
        <ele>17.9</ele>
        <time>2021-05-23T12:51:25Z</time>
      </trkpt>
      <trkpt lat="42.7478450" lon="-8.6525800">
        <ele>17.9</ele>
        <time>2021-05-23T12:51:26Z</time>
      </trkpt>
      <trkpt lat="42.7478610" lon="-8.6525810">
        <ele>18.0</ele>
        <time>2021-05-23T12:51:27Z</time>
      </trkpt>
      <trkpt lat="42.7478710" lon="-8.6525760">
        <ele>18.0</ele>
        <time>2021-05-23T12:51:28Z</time>
      </trkpt>
      <trkpt lat="42.7478750" lon="-8.6525710">
        <ele>18.0</ele>
        <time>2021-05-23T12:51:29Z</time>
      </trkpt>
      <trkpt lat="42.7478880" lon="-8.6525580">
        <ele>18.0</ele>
        <time>2021-05-23T12:51:30Z</time>
      </trkpt>
      <trkpt lat="42.7478950" lon="-8.6525540">
        <ele>18.1</ele>
        <time>2021-05-23T12:51:31Z</time>
      </trkpt>
      <trkpt lat="42.7479060" lon="-8.6525490">
        <ele>18.1</ele>
        <time>2021-05-23T12:51:32Z</time>
      </trkpt>
      <trkpt lat="42.7479160" lon="-8.6525440">
        <ele>18.1</ele>
        <time>2021-05-23T12:51:33Z</time>
      </trkpt>
      <trkpt lat="42.7479270" lon="-8.6525320">
        <ele>18.2</ele>
        <time>2021-05-23T12:51:34Z</time>
      </trkpt>
      <trkpt lat="42.7479340" lon="-8.6525270">
        <ele>18.2</ele>
        <time>2021-05-23T12:51:35Z</time>
      </trkpt>
      <trkpt lat="42.7479490" lon="-8.6525240">
        <ele>18.3</ele>
        <time>2021-05-23T12:51:36Z</time>
      </trkpt>
      <trkpt lat="42.7479610" lon="-8.6525180">
        <ele>18.3</ele>
        <time>2021-05-23T12:51:37Z</time>
      </trkpt>
      <trkpt lat="42.7479690" lon="-8.6525060">
        <ele>18.4</ele>
        <time>2021-05-23T12:51:38Z</time>
      </trkpt>
      <trkpt lat="42.7479760" lon="-8.6525040">
        <ele>18.4</ele>
        <time>2021-05-23T12:51:39Z</time>
      </trkpt>
      <trkpt lat="42.7479880" lon="-8.6524910">
        <ele>18.5</ele>
        <time>2021-05-23T12:51:40Z</time>
      </trkpt>
      <trkpt lat="42.7480070" lon="-8.6524730">
        <ele>18.6</ele>
        <time>2021-05-23T12:51:41Z</time>
      </trkpt>
      <trkpt lat="42.7480150" lon="-8.6524670">
        <ele>18.6</ele>
        <time>2021-05-23T12:51:42Z</time>
      </trkpt>
      <trkpt lat="42.7480220" lon="-8.6524610">
        <ele>18.7</ele>
        <time>2021-05-23T12:51:43Z</time>
      </trkpt>
      <trkpt lat="42.7480410" lon="-8.6524580">
        <ele>18.8</ele>
        <time>2021-05-23T12:51:44Z</time>
      </trkpt>
      <trkpt lat="42.7480520" lon="-8.6524520">
        <ele>18.8</ele>
        <time>2021-05-23T12:51:45Z</time>
      </trkpt>
      <trkpt lat="42.7480620" lon="-8.6524460">
        <ele>18.9</ele>
        <time>2021-05-23T12:51:46Z</time>
      </trkpt>
      <trkpt lat="42.7480730" lon="-8.6524450">
        <ele>19.0</ele>
        <time>2021-05-23T12:51:47Z</time>
      </trkpt>
      <trkpt lat="42.7480860" lon="-8.6524300">
        <ele>19.0</ele>
        <time>2021-05-23T12:51:48Z</time>
      </trkpt>
      <trkpt lat="42.7480960" lon="-8.6524330">
        <ele>19.1</ele>
        <time>2021-05-23T12:51:49Z</time>
      </trkpt>
      <trkpt lat="42.7481070" lon="-8.6524270">
        <ele>19.2</ele>
        <time>2021-05-23T12:51:50Z</time>
      </trkpt>
      <trkpt lat="42.7481170" lon="-8.6524250">
        <ele>19.2</ele>
        <time>2021-05-23T12:51:51Z</time>
      </trkpt>
      <trkpt lat="42.7481300" lon="-8.6524170">
        <ele>19.3</ele>
        <time>2021-05-23T12:51:52Z</time>
      </trkpt>
      <trkpt lat="42.7481490" lon="-8.6524030">
        <ele>19.5</ele>
        <time>2021-05-23T12:51:53Z</time>
      </trkpt>
      <trkpt lat="42.7481570" lon="-8.6523970">
        <ele>19.5</ele>
        <time>2021-05-23T12:51:54Z</time>
      </trkpt>
      <trkpt lat="42.7481660" lon="-8.6523910">
        <ele>19.6</ele>
        <time>2021-05-23T12:51:55Z</time>
      </trkpt>
      <trkpt lat="42.7481830" lon="-8.6523800">
        <ele>19.7</ele>
        <time>2021-05-23T12:51:56Z</time>
      </trkpt>
      <trkpt lat="42.7481910" lon="-8.6523750">
        <ele>19.8</ele>
        <time>2021-05-23T12:51:57Z</time>
      </trkpt>
      <trkpt lat="42.7481990" lon="-8.6523690">
        <ele>19.8</ele>
        <time>2021-05-23T12:51:58Z</time>
      </trkpt>
      <trkpt lat="42.7482190" lon="-8.6523590">
        <ele>20.0</ele>
        <time>2021-05-23T12:51:59Z</time>
      </trkpt>
      <trkpt lat="42.7482260" lon="-8.6523550">
        <ele>20.0</ele>
        <time>2021-05-23T12:52:00Z</time>
      </trkpt>
      <trkpt lat="42.7482340" lon="-8.6523500">
        <ele>20.1</ele>
        <time>2021-05-23T12:52:01Z</time>
      </trkpt>
      <trkpt lat="42.7482410" lon="-8.6523340">
        <ele>20.2</ele>
        <time>2021-05-23T12:52:02Z</time>
      </trkpt>
      <trkpt lat="42.7482590" lon="-8.6523310">
        <ele>20.3</ele>
        <time>2021-05-23T12:52:03Z</time>
      </trkpt>
      <trkpt lat="42.7482680" lon="-8.6523230">
        <ele>20.4</ele>
        <time>2021-05-23T12:52:04Z</time>
      </trkpt>
      <trkpt lat="42.7482830" lon="-8.6523090">
        <ele>20.5</ele>
        <time>2021-05-23T12:52:05Z</time>
      </trkpt>
      <trkpt lat="42.7482970" lon="-8.6522980">
        <ele>20.6</ele>
        <time>2021-05-23T12:52:06Z</time>
      </trkpt>
      <trkpt lat="42.7483070" lon="-8.6522900">
        <ele>20.7</ele>
        <time>2021-05-23T12:52:07Z</time>
      </trkpt>
      <trkpt lat="42.7483160" lon="-8.6522810">
        <ele>20.7</ele>
        <time>2021-05-23T12:52:08Z</time>
      </trkpt>
      <trkpt lat="42.7483220" lon="-8.6522740">
        <ele>20.8</ele>
        <time>2021-05-23T12:52:09Z</time>
      </trkpt>
      <trkpt lat="42.7483330" lon="-8.6522680">
        <ele>20.9</ele>
        <time>2021-05-23T12:52:10Z</time>
      </trkpt>
      <trkpt lat="42.7483420" lon="-8.6522650">
        <ele>20.9</ele>
        <time>2021-05-23T12:52:11Z</time>
      </trkpt>
      <trkpt lat="42.7483620" lon="-8.6522640">
        <ele>21.1</ele>
        <time>2021-05-23T12:52:12Z</time>
      </trkpt>
      <trkpt lat="42.7483730" lon="-8.6522640">
        <ele>21.2</ele>
        <time>2021-05-23T12:52:13Z</time>
      </trkpt>
      <trkpt lat="42.7483830" lon="-8.6522650">
        <ele>21.2</ele>
        <time>2021-05-23T12:52:14Z</time>
      </trkpt>
      <trkpt lat="42.7483880" lon="-8.6522570">
        <ele>21.3</ele>
        <time>2021-05-23T12:52:15Z</time>
      </trkpt>
      <trkpt lat="42.7483960" lon="-8.6522520">
        <ele>21.4</ele>
        <time>2021-05-23T12:52:16Z</time>
      </trkpt>
      <trkpt lat="42.7484160" lon="-8.6522530">
        <ele>21.5</ele>
        <time>2021-05-23T12:52:17Z</time>
      </trkpt>
      <trkpt lat="42.7484310" lon="-8.6522560">
        <ele>21.6</ele>
        <time>2021-05-23T12:52:18Z</time>
      </trkpt>
      <trkpt lat="42.7484510" lon="-8.6522500">
        <ele>21.8</ele>
        <time>2021-05-23T12:52:19Z</time>
      </trkpt>
      <trkpt lat="42.7484580" lon="-8.6522600">
        <ele>21.8</ele>
        <time>2021-05-23T12:52:20Z</time>
      </trkpt>
      <trkpt lat="42.7484700" lon="-8.6522610">
        <ele>21.9</ele>
        <time>2021-05-23T12:52:21Z</time>
      </trkpt>
      <trkpt lat="42.7484810" lon="-8.6522670">
        <ele>22.0</ele>
        <time>2021-05-23T12:52:22Z</time>
      </trkpt>
      <trkpt lat="42.7484940" lon="-8.6522700">
        <ele>22.1</ele>
        <time>2021-05-23T12:52:23Z</time>
      </trkpt>
      <trkpt lat="42.7485130" lon="-8.6522660">
        <ele>22.3</ele>
        <time>2021-05-23T12:52:24Z</time>
      </trkpt>
      <trkpt lat="42.7485210" lon="-8.6522630">
        <ele>22.3</ele>
        <time>2021-05-23T12:52:25Z</time>
      </trkpt>
      <trkpt lat="42.7485280" lon="-8.6522630">
        <ele>22.4</ele>
        <time>2021-05-23T12:52:26Z</time>
      </trkpt>
      <trkpt lat="42.7485410" lon="-8.6522720">
        <ele>22.5</ele>
        <time>2021-05-23T12:52:27Z</time>
      </trkpt>
      <trkpt lat="42.7485630" lon="-8.6522790">
        <ele>22.7</ele>
        <time>2021-05-23T12:52:28Z</time>
      </trkpt>
      <trkpt lat="42.7485730" lon="-8.6522840">
        <ele>22.7</ele>
        <time>2021-05-23T12:52:29Z</time>
      </trkpt>
      <trkpt lat="42.7485830" lon="-8.6522890">
        <ele>22.8</ele>
        <time>2021-05-23T12:52:30Z</time>
      </trkpt>
      <trkpt lat="42.7485970" lon="-8.6522910">
        <ele>22.9</ele>
        <time>2021-05-23T12:52:31Z</time>
      </trkpt>
      <trkpt lat="42.7486090" lon="-8.6522900">
        <ele>23.0</ele>
        <time>2021-05-23T12:52:32Z</time>
      </trkpt>
      <trkpt lat="42.7486190" lon="-8.6522960">
        <ele>23.1</ele>
        <time>2021-05-23T12:52:33Z</time>
      </trkpt>
      <trkpt lat="42.7486470" lon="-8.6522950">
        <ele>23.3</ele>
        <time>2021-05-23T12:52:34Z</time>
      </trkpt>
      <trkpt lat="42.7486550" lon="-8.6522970">
        <ele>23.3</ele>
        <time>2021-05-23T12:52:35Z</time>
      </trkpt>
      <trkpt lat="42.7486790" lon="-8.6522960">
        <ele>23.4</ele>
        <time>2021-05-23T12:52:36Z</time>
      </trkpt>
      <trkpt lat="42.7486870" lon="-8.6522950">
        <ele>23.5</ele>
        <time>2021-05-23T12:52:37Z</time>
      </trkpt>
      <trkpt lat="42.7486940" lon="-8.6522950">
        <ele>23.5</ele>
        <time>2021-05-23T12:52:38Z</time>
      </trkpt>
      <trkpt lat="42.7487060" lon="-8.6522960">
        <ele>23.6</ele>
        <time>2021-05-23T12:52:39Z</time>
      </trkpt>
      <trkpt lat="42.7487190" lon="-8.6523020">
        <ele>23.6</ele>
        <time>2021-05-23T12:52:40Z</time>
      </trkpt>
      <trkpt lat="42.7487250" lon="-8.6523030">
        <ele>23.7</ele>
        <time>2021-05-23T12:52:41Z</time>
      </trkpt>
      <trkpt lat="42.7487390" lon="-8.6523090">
        <ele>23.7</ele>
        <time>2021-05-23T12:52:42Z</time>
      </trkpt>
      <trkpt lat="42.7487510" lon="-8.6523110">
        <ele>23.8</ele>
        <time>2021-05-23T12:52:43Z</time>
      </trkpt>
      <trkpt lat="42.7487580" lon="-8.6523140">
        <ele>23.8</ele>
        <time>2021-05-23T12:52:44Z</time>
      </trkpt>
      <trkpt lat="42.7487810" lon="-8.6523240">
        <ele>23.9</ele>
        <time>2021-05-23T12:52:45Z</time>
      </trkpt>
      <trkpt lat="42.7487920" lon="-8.6523280">
        <ele>23.9</ele>
        <time>2021-05-23T12:52:46Z</time>
      </trkpt>
      <trkpt lat="42.7488030" lon="-8.6523330">
        <ele>24.0</ele>
        <time>2021-05-23T12:52:47Z</time>
      </trkpt>
      <trkpt lat="42.7488090" lon="-8.6523370">
        <ele>24.0</ele>
        <time>2021-05-23T12:52:48Z</time>
      </trkpt>
      <trkpt lat="42.7488220" lon="-8.6523490">
        <ele>24.0</ele>
        <time>2021-05-23T12:52:49Z</time>
      </trkpt>
      <trkpt lat="42.7488310" lon="-8.6523560">
        <ele>24.0</ele>
        <time>2021-05-23T12:52:50Z</time>
      </trkpt>
      <trkpt lat="42.7488540" lon="-8.6523840">
        <ele>24.1</ele>
        <time>2021-05-23T12:52:51Z</time>
      </trkpt>
      <trkpt lat="42.7488580" lon="-8.6523940">
        <ele>23.8</ele>
        <time>2021-05-23T12:52:52Z</time>
      </trkpt>
      <trkpt lat="42.7488630" lon="-8.6524210">
        <ele>23.6</ele>
        <time>2021-05-23T12:52:54Z</time>
      </trkpt>
      <trkpt lat="42.7488680" lon="-8.6524340">
        <ele>23.6</ele>
        <time>2021-05-23T12:52:55Z</time>
      </trkpt>
      <trkpt lat="42.7488720" lon="-8.6524460">
        <ele>23.5</ele>
        <time>2021-05-23T12:52:56Z</time>
      </trkpt>
      <trkpt lat="42.7488660" lon="-8.6524610">
        <ele>23.4</ele>
        <time>2021-05-23T12:52:57Z</time>
      </trkpt>
      <trkpt lat="42.7488650" lon="-8.6524760">
        <ele>23.3</ele>
        <time>2021-05-23T12:52:58Z</time>
      </trkpt>
      <trkpt lat="42.7488650" lon="-8.6524850">
        <ele>23.2</ele>
        <time>2021-05-23T12:52:59Z</time>
      </trkpt>
      <trkpt lat="42.7488640" lon="-8.6525060">
        <ele>23.1</ele>
        <time>2021-05-23T12:53:00Z</time>
      </trkpt>
      <trkpt lat="42.7488640" lon="-8.6525240">
        <ele>22.9</ele>
        <time>2021-05-23T12:53:01Z</time>
      </trkpt>
      <trkpt lat="42.7488650" lon="-8.6525450">
        <ele>22.8</ele>
        <time>2021-05-23T12:53:02Z</time>
      </trkpt>
      <trkpt lat="42.7488710" lon="-8.6525610">
        <ele>22.6</ele>
        <time>2021-05-23T12:53:03Z</time>
      </trkpt>
      <trkpt lat="42.7488700" lon="-8.6525840">
        <ele>22.4</ele>
        <time>2021-05-23T12:53:04Z</time>
      </trkpt>
      <trkpt lat="42.7488730" lon="-8.6526020">
        <ele>22.3</ele>
        <time>2021-05-23T12:53:05Z</time>
      </trkpt>
      <trkpt lat="42.7488710" lon="-8.6526200">
        <ele>22.1</ele>
        <time>2021-05-23T12:53:06Z</time>
      </trkpt>
      <trkpt lat="42.7488690" lon="-8.6526380">
        <ele>21.9</ele>
        <time>2021-05-23T12:53:07Z</time>
      </trkpt>
      <trkpt lat="42.7488690" lon="-8.6526650">
        <ele>21.7</ele>
        <time>2021-05-23T12:53:08Z</time>
      </trkpt>
      <trkpt lat="42.7488700" lon="-8.6526770">
        <ele>21.6</ele>
        <time>2021-05-23T12:53:09Z</time>
      </trkpt>
      <trkpt lat="42.7488710" lon="-8.6526880">
        <ele>21.5</ele>
        <time>2021-05-23T12:53:10Z</time>
      </trkpt>
      <trkpt lat="42.7488690" lon="-8.6527280">
        <ele>21.2</ele>
        <time>2021-05-23T12:53:11Z</time>
      </trkpt>
      <trkpt lat="42.7488690" lon="-8.6527390">
        <ele>21.1</ele>
        <time>2021-05-23T12:53:12Z</time>
      </trkpt>
      <trkpt lat="42.7488690" lon="-8.6527610">
        <ele>20.9</ele>
        <time>2021-05-23T12:53:13Z</time>
      </trkpt>
      <trkpt lat="42.7488680" lon="-8.6527830">
        <ele>20.7</ele>
        <time>2021-05-23T12:53:14Z</time>
      </trkpt>
      <trkpt lat="42.7488710" lon="-8.6528030">
        <ele>20.5</ele>
        <time>2021-05-23T12:53:15Z</time>
      </trkpt>
      <trkpt lat="42.7488710" lon="-8.6528240">
        <ele>20.3</ele>
        <time>2021-05-23T12:53:16Z</time>
      </trkpt>
      <trkpt lat="42.7488710" lon="-8.6528440">
        <ele>20.2</ele>
        <time>2021-05-23T12:53:17Z</time>
      </trkpt>
      <trkpt lat="42.7488720" lon="-8.6528670">
        <ele>20.0</ele>
        <time>2021-05-23T12:53:18Z</time>
      </trkpt>
      <trkpt lat="42.7488750" lon="-8.6528880">
        <ele>19.9</ele>
        <time>2021-05-23T12:53:19Z</time>
      </trkpt>
      <trkpt lat="42.7488720" lon="-8.6529110">
        <ele>19.7</ele>
        <time>2021-05-23T12:53:20Z</time>
      </trkpt>
      <trkpt lat="42.7488690" lon="-8.6529320">
        <ele>19.6</ele>
        <time>2021-05-23T12:53:21Z</time>
      </trkpt>
      <trkpt lat="42.7488690" lon="-8.6529520">
        <ele>19.4</ele>
        <time>2021-05-23T12:53:22Z</time>
      </trkpt>
      <trkpt lat="42.7488690" lon="-8.6529730">
        <ele>19.3</ele>
        <time>2021-05-23T12:53:23Z</time>
      </trkpt>
      <trkpt lat="42.7488670" lon="-8.6529930">
        <ele>19.2</ele>
        <time>2021-05-23T12:53:24Z</time>
      </trkpt>
      <trkpt lat="42.7488680" lon="-8.6530110">
        <ele>19.1</ele>
        <time>2021-05-23T12:53:25Z</time>
      </trkpt>
      <trkpt lat="42.7488760" lon="-8.6530300">
        <ele>19.0</ele>
        <time>2021-05-23T12:53:26Z</time>
      </trkpt>
      <trkpt lat="42.7488790" lon="-8.6530500">
        <ele>18.9</ele>
        <time>2021-05-23T12:53:27Z</time>
      </trkpt>
      <trkpt lat="42.7488780" lon="-8.6530720">
        <ele>18.7</ele>
        <time>2021-05-23T12:53:28Z</time>
      </trkpt>
      <trkpt lat="42.7488770" lon="-8.6530940">
        <ele>18.6</ele>
        <time>2021-05-23T12:53:29Z</time>
      </trkpt>
      <trkpt lat="42.7488750" lon="-8.6531140">
        <ele>18.5</ele>
        <time>2021-05-23T12:53:30Z</time>
      </trkpt>
      <trkpt lat="42.7488730" lon="-8.6531430">
        <ele>18.4</ele>
        <time>2021-05-23T12:53:31Z</time>
      </trkpt>
      <trkpt lat="42.7488730" lon="-8.6531560">
        <ele>18.3</ele>
        <time>2021-05-23T12:53:32Z</time>
      </trkpt>
      <trkpt lat="42.7488740" lon="-8.6531680">
        <ele>18.3</ele>
        <time>2021-05-23T12:53:33Z</time>
      </trkpt>
      <trkpt lat="42.7488720" lon="-8.6531880">
        <ele>18.2</ele>
        <time>2021-05-23T12:53:34Z</time>
      </trkpt>
      <trkpt lat="42.7488710" lon="-8.6532010">
        <ele>18.1</ele>
        <time>2021-05-23T12:53:35Z</time>
      </trkpt>
      <trkpt lat="42.7488730" lon="-8.6532180">
        <ele>18.1</ele>
        <time>2021-05-23T12:53:36Z</time>
      </trkpt>
      <trkpt lat="42.7488780" lon="-8.6532260">
        <ele>18.0</ele>
        <time>2021-05-23T12:53:37Z</time>
      </trkpt>
      <trkpt lat="42.7488790" lon="-8.6532480">
        <ele>17.9</ele>
        <time>2021-05-23T12:53:38Z</time>
      </trkpt>
      <trkpt lat="42.7488790" lon="-8.6532630">
        <ele>17.9</ele>
        <time>2021-05-23T12:53:39Z</time>
      </trkpt>
      <trkpt lat="42.7488810" lon="-8.6532810">
        <ele>17.8</ele>
        <time>2021-05-23T12:53:40Z</time>
      </trkpt>
      <trkpt lat="42.7488820" lon="-8.6532970">
        <ele>17.8</ele>
        <time>2021-05-23T12:53:41Z</time>
      </trkpt>
      <trkpt lat="42.7488830" lon="-8.6533100">
        <ele>17.7</ele>
        <time>2021-05-23T12:53:42Z</time>
      </trkpt>
      <trkpt lat="42.7488800" lon="-8.6533410">
        <ele>17.6</ele>
        <time>2021-05-23T12:53:43Z</time>
      </trkpt>
      <trkpt lat="42.7488790" lon="-8.6533510">
        <ele>17.6</ele>
        <time>2021-05-23T12:53:44Z</time>
      </trkpt>
      <trkpt lat="42.7488770" lon="-8.6533610">
        <ele>17.5</ele>
        <time>2021-05-23T12:53:45Z</time>
      </trkpt>
      <trkpt lat="42.7488750" lon="-8.6533710">
        <ele>17.5</ele>
        <time>2021-05-23T12:53:46Z</time>
      </trkpt>
      <trkpt lat="42.7488660" lon="-8.6534020">
        <ele>17.4</ele>
        <time>2021-05-23T12:53:47Z</time>
      </trkpt>
      <trkpt lat="42.7488660" lon="-8.6534140">
        <ele>17.3</ele>
        <time>2021-05-23T12:53:48Z</time>
      </trkpt>
      <trkpt lat="42.7488650" lon="-8.6534260">
        <ele>17.3</ele>
        <time>2021-05-23T12:53:49Z</time>
      </trkpt>
      <trkpt lat="42.7488660" lon="-8.6534400">
        <ele>17.2</ele>
        <time>2021-05-23T12:53:50Z</time>
      </trkpt>
      <trkpt lat="42.7488690" lon="-8.6534490">
        <ele>17.2</ele>
        <time>2021-05-23T12:53:51Z</time>
      </trkpt>
      <trkpt lat="42.7488710" lon="-8.6534640">
        <ele>17.2</ele>
        <time>2021-05-23T12:53:52Z</time>
      </trkpt>
      <trkpt lat="42.7488750" lon="-8.6534790">
        <ele>17.1</ele>
        <time>2021-05-23T12:53:53Z</time>
      </trkpt>
      <trkpt lat="42.7488750" lon="-8.6534900">
        <ele>17.1</ele>
        <time>2021-05-23T12:53:54Z</time>
      </trkpt>
      <trkpt lat="42.7488750" lon="-8.6535090">
        <ele>17.0</ele>
        <time>2021-05-23T12:53:55Z</time>
      </trkpt>
      <trkpt lat="42.7488820" lon="-8.6535400">
        <ele>16.9</ele>
        <time>2021-05-23T12:53:56Z</time>
      </trkpt>
      <trkpt lat="42.7488840" lon="-8.6535510">
        <ele>16.9</ele>
        <time>2021-05-23T12:53:57Z</time>
      </trkpt>
      <trkpt lat="42.7488870" lon="-8.6535630">
        <ele>16.8</ele>
        <time>2021-05-23T12:53:58Z</time>
      </trkpt>
      <trkpt lat="42.7488910" lon="-8.6535770">
        <ele>16.8</ele>
        <time>2021-05-23T12:53:59Z</time>
      </trkpt>
      <trkpt lat="42.7488950" lon="-8.6535970">
        <ele>16.8</ele>
        <time>2021-05-23T12:54:00Z</time>
      </trkpt>
      <trkpt lat="42.7488980" lon="-8.6536040">
        <ele>16.7</ele>
        <time>2021-05-23T12:54:01Z</time>
      </trkpt>
      <trkpt lat="42.7489110" lon="-8.6536330">
        <ele>16.6</ele>
        <time>2021-05-23T12:54:02Z</time>
      </trkpt>
      <trkpt lat="42.7489140" lon="-8.6536410">
        <ele>16.6</ele>
        <time>2021-05-23T12:54:03Z</time>
      </trkpt>
      <trkpt lat="42.7489180" lon="-8.6536490">
        <ele>16.6</ele>
        <time>2021-05-23T12:54:04Z</time>
      </trkpt>
      <trkpt lat="42.7489260" lon="-8.6536590">
        <ele>16.6</ele>
        <time>2021-05-23T12:54:05Z</time>
      </trkpt>
      <trkpt lat="42.7489260" lon="-8.6536770">
        <ele>16.5</ele>
        <time>2021-05-23T12:54:06Z</time>
      </trkpt>
      <trkpt lat="42.7489330" lon="-8.6536930">
        <ele>16.5</ele>
        <time>2021-05-23T12:54:07Z</time>
      </trkpt>
      <trkpt lat="42.7489340" lon="-8.6537140">
        <ele>16.4</ele>
        <time>2021-05-23T12:54:08Z</time>
      </trkpt>
      <trkpt lat="42.7489380" lon="-8.6537250">
        <ele>16.4</ele>
        <time>2021-05-23T12:54:09Z</time>
      </trkpt>
      <trkpt lat="42.7489380" lon="-8.6537390">
        <ele>16.4</ele>
        <time>2021-05-23T12:54:10Z</time>
      </trkpt>
      <trkpt lat="42.7489360" lon="-8.6537590">
        <ele>16.3</ele>
        <time>2021-05-23T12:54:11Z</time>
      </trkpt>
      <trkpt lat="42.7489330" lon="-8.6537760">
        <ele>16.3</ele>
        <time>2021-05-23T12:54:12Z</time>
      </trkpt>
      <trkpt lat="42.7489340" lon="-8.6537880">
        <ele>16.3</ele>
        <time>2021-05-23T12:54:13Z</time>
      </trkpt>
      <trkpt lat="42.7489280" lon="-8.6538220">
        <ele>16.2</ele>
        <time>2021-05-23T12:54:14Z</time>
      </trkpt>
      <trkpt lat="42.7489260" lon="-8.6538480">
        <ele>16.2</ele>
        <time>2021-05-23T12:54:15Z</time>
      </trkpt>
      <trkpt lat="42.7489240" lon="-8.6538620">
        <ele>16.1</ele>
        <time>2021-05-23T12:54:16Z</time>
      </trkpt>
      <trkpt lat="42.7489230" lon="-8.6538770">
        <ele>16.1</ele>
        <time>2021-05-23T12:54:17Z</time>
      </trkpt>
      <trkpt lat="42.7489210" lon="-8.6538940">
        <ele>16.1</ele>
        <time>2021-05-23T12:54:18Z</time>
      </trkpt>
      <trkpt lat="42.7489190" lon="-8.6539170">
        <ele>16.0</ele>
        <time>2021-05-23T12:54:19Z</time>
      </trkpt>
      <trkpt lat="42.7489210" lon="-8.6539350">
        <ele>16.0</ele>
        <time>2021-05-23T12:54:20Z</time>
      </trkpt>
      <trkpt lat="42.7489220" lon="-8.6539580">
        <ele>16.0</ele>
        <time>2021-05-23T12:54:21Z</time>
      </trkpt>
      <trkpt lat="42.7489210" lon="-8.6539660">
        <ele>16.0</ele>
        <time>2021-05-23T12:54:22Z</time>
      </trkpt>
      <trkpt lat="42.7489250" lon="-8.6539860">
        <ele>15.9</ele>
        <time>2021-05-23T12:54:23Z</time>
      </trkpt>
      <trkpt lat="42.7489250" lon="-8.6539950">
        <ele>15.9</ele>
        <time>2021-05-23T12:54:24Z</time>
      </trkpt>
      <trkpt lat="42.7489310" lon="-8.6540180">
        <ele>15.9</ele>
        <time>2021-05-23T12:54:25Z</time>
      </trkpt>
      <trkpt lat="42.7489270" lon="-8.6540330">
        <ele>15.8</ele>
        <time>2021-05-23T12:54:26Z</time>
      </trkpt>
      <trkpt lat="42.7489270" lon="-8.6540650">
        <ele>15.8</ele>
        <time>2021-05-23T12:54:27Z</time>
      </trkpt>
      <trkpt lat="42.7489250" lon="-8.6540760">
        <ele>15.8</ele>
        <time>2021-05-23T12:54:28Z</time>
      </trkpt>
      <trkpt lat="42.7489240" lon="-8.6540860">
        <ele>15.7</ele>
        <time>2021-05-23T12:54:29Z</time>
      </trkpt>
      <trkpt lat="42.7489220" lon="-8.6541110">
        <ele>15.7</ele>
        <time>2021-05-23T12:54:30Z</time>
      </trkpt>
      <trkpt lat="42.7489210" lon="-8.6541250">
        <ele>15.7</ele>
        <time>2021-05-23T12:54:31Z</time>
      </trkpt>
      <trkpt lat="42.7489200" lon="-8.6541400">
        <ele>15.7</ele>
        <time>2021-05-23T12:54:32Z</time>
      </trkpt>
      <trkpt lat="42.7489210" lon="-8.6541770">
        <ele>15.6</ele>
        <time>2021-05-23T12:54:33Z</time>
      </trkpt>
      <trkpt lat="42.7489250" lon="-8.6541900">
        <ele>15.6</ele>
        <time>2021-05-23T12:54:34Z</time>
      </trkpt>
      <trkpt lat="42.7489250" lon="-8.6542110">
        <ele>15.6</ele>
        <time>2021-05-23T12:54:35Z</time>
      </trkpt>
      <trkpt lat="42.7489270" lon="-8.6542310">
        <ele>15.5</ele>
        <time>2021-05-23T12:54:36Z</time>
      </trkpt>
      <trkpt lat="42.7489210" lon="-8.6542530">
        <ele>15.5</ele>
        <time>2021-05-23T12:54:37Z</time>
      </trkpt>
      <trkpt lat="42.7489220" lon="-8.6542730">
        <ele>15.5</ele>
        <time>2021-05-23T12:54:38Z</time>
      </trkpt>
      <trkpt lat="42.7489180" lon="-8.6542920">
        <ele>15.5</ele>
        <time>2021-05-23T12:54:39Z</time>
      </trkpt>
      <trkpt lat="42.7489160" lon="-8.6543110">
        <ele>15.4</ele>
        <time>2021-05-23T12:54:40Z</time>
      </trkpt>
      <trkpt lat="42.7489150" lon="-8.6543320">
        <ele>15.4</ele>
        <time>2021-05-23T12:54:41Z</time>
      </trkpt>
      <trkpt lat="42.7489110" lon="-8.6543550">
        <ele>15.4</ele>
        <time>2021-05-23T12:54:42Z</time>
      </trkpt>
      <trkpt lat="42.7489060" lon="-8.6543700">
        <ele>15.4</ele>
        <time>2021-05-23T12:54:43Z</time>
      </trkpt>
      <trkpt lat="42.7488950" lon="-8.6543850">
        <ele>15.3</ele>
        <time>2021-05-23T12:54:44Z</time>
      </trkpt>
      <trkpt lat="42.7488790" lon="-8.6543990">
        <ele>15.3</ele>
        <time>2021-05-23T12:54:45Z</time>
      </trkpt>
      <trkpt lat="42.7488660" lon="-8.6544110">
        <ele>15.3</ele>
        <time>2021-05-23T12:54:46Z</time>
      </trkpt>
      <trkpt lat="42.7488590" lon="-8.6544290">
        <ele>15.3</ele>
        <time>2021-05-23T12:54:47Z</time>
      </trkpt>
      <trkpt lat="42.7488520" lon="-8.6544470">
        <ele>15.3</ele>
        <time>2021-05-23T12:54:48Z</time>
      </trkpt>
      <trkpt lat="42.7488430" lon="-8.6544610">
        <ele>15.3</ele>
        <time>2021-05-23T12:54:49Z</time>
      </trkpt>
      <trkpt lat="42.7488320" lon="-8.6544740">
        <ele>15.2</ele>
        <time>2021-05-23T12:54:50Z</time>
      </trkpt>
      <trkpt lat="42.7488150" lon="-8.6544940">
        <ele>15.2</ele>
        <time>2021-05-23T12:54:51Z</time>
      </trkpt>
      <trkpt lat="42.7488080" lon="-8.6545020">
        <ele>15.2</ele>
        <time>2021-05-23T12:54:52Z</time>
      </trkpt>
      <trkpt lat="42.7488020" lon="-8.6545090">
        <ele>15.2</ele>
        <time>2021-05-23T12:54:53Z</time>
      </trkpt>
      <trkpt lat="42.7488000" lon="-8.6545100">
        <ele>15.2</ele>
        <time>2021-05-23T12:54:54Z</time>
      </trkpt>
      <trkpt lat="42.7488030" lon="-8.6545040">
        <ele>15.2</ele>
        <time>2021-05-23T12:54:55Z</time>
      </trkpt>
      <trkpt lat="42.7488070" lon="-8.6544980">
        <ele>15.2</ele>
        <time>2021-05-23T12:54:56Z</time>
      </trkpt>
      <trkpt lat="42.7488110" lon="-8.6544920">
        <ele>15.2</ele>
        <time>2021-05-23T12:54:57Z</time>
      </trkpt>
      <trkpt lat="42.7488150" lon="-8.6544870">
        <ele>15.2</ele>
        <time>2021-05-23T12:54:58Z</time>
      </trkpt>
      <trkpt lat="42.7488180" lon="-8.6544810">
        <ele>15.2</ele>
        <time>2021-05-23T12:54:59Z</time>
      </trkpt>
      <trkpt lat="42.7488220" lon="-8.6544750">
        <ele>15.2</ele>
        <time>2021-05-23T12:55:00Z</time>
      </trkpt>
      <trkpt lat="42.7488260" lon="-8.6544690">
        <ele>15.2</ele>
        <time>2021-05-23T12:55:01Z</time>
      </trkpt>
      <trkpt lat="42.7488290" lon="-8.6544630">
        <ele>15.2</ele>
        <time>2021-05-23T12:55:02Z</time>
      </trkpt>
      <trkpt lat="42.7488330" lon="-8.6544570">
        <ele>15.2</ele>
        <time>2021-05-23T12:55:03Z</time>
      </trkpt>
      <trkpt lat="42.7488370" lon="-8.6544510">
        <ele>15.2</ele>
        <time>2021-05-23T12:55:04Z</time>
      </trkpt>
      <trkpt lat="42.7488400" lon="-8.6544450">
        <ele>15.2</ele>
        <time>2021-05-23T12:55:05Z</time>
      </trkpt>
      <trkpt lat="42.7488440" lon="-8.6544400">
        <ele>15.2</ele>
        <time>2021-05-23T12:55:07Z</time>
      </trkpt>
      <trkpt lat="42.7488480" lon="-8.6544340">
        <ele>15.2</ele>
        <time>2021-05-23T12:55:08Z</time>
      </trkpt>
      <trkpt lat="42.7488520" lon="-8.6544280">
        <ele>15.2</ele>
        <time>2021-05-23T12:55:09Z</time>
      </trkpt>
      <trkpt lat="42.7488550" lon="-8.6544220">
        <ele>15.2</ele>
        <time>2021-05-23T12:55:10Z</time>
      </trkpt>
      <trkpt lat="42.7488590" lon="-8.6544160">
        <ele>15.2</ele>
        <time>2021-05-23T12:55:11Z</time>
      </trkpt>
      <trkpt lat="42.7488600" lon="-8.6544140">
        <ele>15.2</ele>
        <time>2021-05-23T12:55:12Z</time>
      </trkpt>
      <trkpt lat="42.7488600" lon="-8.6544140">
        <ele>15.2</ele>
        <time>2021-05-23T12:55:13Z</time>
      </trkpt>
      <trkpt lat="42.7488590" lon="-8.6544160">
        <ele>15.2</ele>
        <time>2021-05-23T12:55:14Z</time>
      </trkpt>
      <trkpt lat="42.7488620" lon="-8.6544150">
        <ele>15.2</ele>
        <time>2021-05-23T12:55:15Z</time>
      </trkpt>
      <trkpt lat="42.7488710" lon="-8.6544040">
        <ele>15.2</ele>
        <time>2021-05-23T12:55:16Z</time>
      </trkpt>
      <trkpt lat="42.7488820" lon="-8.6544010">
        <ele>15.2</ele>
        <time>2021-05-23T12:55:17Z</time>
      </trkpt>
      <trkpt lat="42.7488840" lon="-8.6544010">
        <ele>15.2</ele>
        <time>2021-05-23T12:55:18Z</time>
      </trkpt>
      <trkpt lat="42.7488870" lon="-8.6544020">
        <ele>15.2</ele>
        <time>2021-05-23T12:55:19Z</time>
      </trkpt>
      <trkpt lat="42.7488890" lon="-8.6544190">
        <ele>15.2</ele>
        <time>2021-05-23T12:55:20Z</time>
      </trkpt>
      <trkpt lat="42.7489090" lon="-8.6544360">
        <ele>15.1</ele>
        <time>2021-05-23T12:55:21Z</time>
      </trkpt>
      <trkpt lat="42.7489120" lon="-8.6544480">
        <ele>15.1</ele>
        <time>2021-05-23T12:55:22Z</time>
      </trkpt>
      <trkpt lat="42.7489160" lon="-8.6544590">
        <ele>15.1</ele>
        <time>2021-05-23T12:55:23Z</time>
      </trkpt>
      <trkpt lat="42.7489180" lon="-8.6544690">
        <ele>15.1</ele>
        <time>2021-05-23T12:55:24Z</time>
      </trkpt>
      <trkpt lat="42.7489190" lon="-8.6544810">
        <ele>15.1</ele>
        <time>2021-05-23T12:55:25Z</time>
      </trkpt>
      <trkpt lat="42.7489300" lon="-8.6544940">
        <ele>15.1</ele>
        <time>2021-05-23T12:55:26Z</time>
      </trkpt>
      <trkpt lat="42.7489440" lon="-8.6544940">
        <ele>15.1</ele>
        <time>2021-05-23T12:55:27Z</time>
      </trkpt>
      <trkpt lat="42.7489600" lon="-8.6545070">
        <ele>15.1</ele>
        <time>2021-05-23T12:55:28Z</time>
      </trkpt>
      <trkpt lat="42.7489800" lon="-8.6545040">
        <ele>15.1</ele>
        <time>2021-05-23T12:55:29Z</time>
      </trkpt>
      <trkpt lat="42.7489910" lon="-8.6545050">
        <ele>15.1</ele>
        <time>2021-05-23T12:55:30Z</time>
      </trkpt>
      <trkpt lat="42.7490020" lon="-8.6545060">
        <ele>15.1</ele>
        <time>2021-05-23T12:55:31Z</time>
      </trkpt>
      <trkpt lat="42.7490200" lon="-8.6545030">
        <ele>15.1</ele>
        <time>2021-05-23T12:55:32Z</time>
      </trkpt>
      <trkpt lat="42.7490290" lon="-8.6544910">
        <ele>15.1</ele>
        <time>2021-05-23T12:55:33Z</time>
      </trkpt>
      <trkpt lat="42.7490440" lon="-8.6544830">
        <ele>15.0</ele>
        <time>2021-05-23T12:55:34Z</time>
      </trkpt>
      <trkpt lat="42.7490580" lon="-8.6544800">
        <ele>15.0</ele>
        <time>2021-05-23T12:55:35Z</time>
      </trkpt>
      <trkpt lat="42.7490790" lon="-8.6544730">
        <ele>15.0</ele>
        <time>2021-05-23T12:55:36Z</time>
      </trkpt>
      <trkpt lat="42.7490860" lon="-8.6544690">
        <ele>15.0</ele>
        <time>2021-05-23T12:55:37Z</time>
      </trkpt>
      <trkpt lat="42.7490930" lon="-8.6544640">
        <ele>15.0</ele>
        <time>2021-05-23T12:55:38Z</time>
      </trkpt>
      <trkpt lat="42.7491070" lon="-8.6544640">
        <ele>15.0</ele>
        <time>2021-05-23T12:55:39Z</time>
      </trkpt>
      <trkpt lat="42.7491220" lon="-8.6544580">
        <ele>15.0</ele>
        <time>2021-05-23T12:55:40Z</time>
      </trkpt>
      <trkpt lat="42.7491380" lon="-8.6544570">
        <ele>15.0</ele>
        <time>2021-05-23T12:55:41Z</time>
      </trkpt>
      <trkpt lat="42.7491540" lon="-8.6544480">
        <ele>14.9</ele>
        <time>2021-05-23T12:55:42Z</time>
      </trkpt>
      <trkpt lat="42.7491640" lon="-8.6544390">
        <ele>14.9</ele>
        <time>2021-05-23T12:55:43Z</time>
      </trkpt>
      <trkpt lat="42.7491800" lon="-8.6544340">
        <ele>14.9</ele>
        <time>2021-05-23T12:55:44Z</time>
      </trkpt>
      <trkpt lat="42.7491960" lon="-8.6544280">
        <ele>14.9</ele>
        <time>2021-05-23T12:55:45Z</time>
      </trkpt>
      <trkpt lat="42.7492060" lon="-8.6544250">
        <ele>14.9</ele>
        <time>2021-05-23T12:55:46Z</time>
      </trkpt>
      <trkpt lat="42.7492240" lon="-8.6544130">
        <ele>14.9</ele>
        <time>2021-05-23T12:55:47Z</time>
      </trkpt>
      <trkpt lat="42.7492350" lon="-8.6544130">
        <ele>14.9</ele>
        <time>2021-05-23T12:55:48Z</time>
      </trkpt>
      <trkpt lat="42.7492500" lon="-8.6544110">
        <ele>14.9</ele>
        <time>2021-05-23T12:55:49Z</time>
      </trkpt>
      <trkpt lat="42.7492530" lon="-8.6544070">
        <ele>14.9</ele>
        <time>2021-05-23T12:55:50Z</time>
      </trkpt>
      <trkpt lat="42.7492570" lon="-8.6544040">
        <ele>14.9</ele>
        <time>2021-05-23T12:55:51Z</time>
      </trkpt>
      <trkpt lat="42.7492600" lon="-8.6544010">
        <ele>14.9</ele>
        <time>2021-05-23T12:55:52Z</time>
      </trkpt>
      <trkpt lat="42.7492640" lon="-8.6543980">
        <ele>14.9</ele>
        <time>2021-05-23T12:55:53Z</time>
      </trkpt>
      <trkpt lat="42.7492670" lon="-8.6543940">
        <ele>14.9</ele>
        <time>2021-05-23T12:55:54Z</time>
      </trkpt>
      <trkpt lat="42.7492710" lon="-8.6543910">
        <ele>14.9</ele>
        <time>2021-05-23T12:55:55Z</time>
      </trkpt>
      <trkpt lat="42.7492850" lon="-8.6543860">
        <ele>14.9</ele>
        <time>2021-05-23T12:55:56Z</time>
      </trkpt>
      <trkpt lat="42.7492890" lon="-8.6543910">
        <ele>14.9</ele>
        <time>2021-05-23T12:55:57Z</time>
      </trkpt>
      <trkpt lat="42.7493070" lon="-8.6543940">
        <ele>14.9</ele>
        <time>2021-05-23T12:55:58Z</time>
      </trkpt>
      <trkpt lat="42.7493210" lon="-8.6543920">
        <ele>15.0</ele>
        <time>2021-05-23T12:55:59Z</time>
      </trkpt>
      <trkpt lat="42.7493250" lon="-8.6543930">
        <ele>15.0</ele>
        <time>2021-05-23T12:56:00Z</time>
      </trkpt>
      <trkpt lat="42.7493360" lon="-8.6543940">
        <ele>15.0</ele>
        <time>2021-05-23T12:56:01Z</time>
      </trkpt>
      <trkpt lat="42.7493480" lon="-8.6543940">
        <ele>15.0</ele>
        <time>2021-05-23T12:56:02Z</time>
      </trkpt>
      <trkpt lat="42.7493660" lon="-8.6543880">
        <ele>15.0</ele>
        <time>2021-05-23T12:56:03Z</time>
      </trkpt>
      <trkpt lat="42.7493760" lon="-8.6543920">
        <ele>15.0</ele>
        <time>2021-05-23T12:56:04Z</time>
      </trkpt>
      <trkpt lat="42.7493870" lon="-8.6543870">
        <ele>15.0</ele>
        <time>2021-05-23T12:56:05Z</time>
      </trkpt>
      <trkpt lat="42.7494020" lon="-8.6543840">
        <ele>15.0</ele>
        <time>2021-05-23T12:56:06Z</time>
      </trkpt>
      <trkpt lat="42.7494140" lon="-8.6543850">
        <ele>15.0</ele>
        <time>2021-05-23T12:56:07Z</time>
      </trkpt>
      <trkpt lat="42.7494250" lon="-8.6543780">
        <ele>15.0</ele>
        <time>2021-05-23T12:56:08Z</time>
      </trkpt>
      <trkpt lat="42.7494360" lon="-8.6543740">
        <ele>15.0</ele>
        <time>2021-05-23T12:56:09Z</time>
      </trkpt>
      <trkpt lat="42.7494440" lon="-8.6543730">
        <ele>15.0</ele>
        <time>2021-05-23T12:56:10Z</time>
      </trkpt>
      <trkpt lat="42.7494590" lon="-8.6543700">
        <ele>15.1</ele>
        <time>2021-05-23T12:56:11Z</time>
      </trkpt>
      <trkpt lat="42.7494700" lon="-8.6543650">
        <ele>15.1</ele>
        <time>2021-05-23T12:56:12Z</time>
      </trkpt>
      <trkpt lat="42.7494760" lon="-8.6543730">
        <ele>15.1</ele>
        <time>2021-05-23T12:56:13Z</time>
      </trkpt>
      <trkpt lat="42.7494920" lon="-8.6543760">
        <ele>15.1</ele>
        <time>2021-05-23T12:56:14Z</time>
      </trkpt>
      <trkpt lat="42.7495060" lon="-8.6543700">
        <ele>15.1</ele>
        <time>2021-05-23T12:56:15Z</time>
      </trkpt>
      <trkpt lat="42.7495160" lon="-8.6543680">
        <ele>15.1</ele>
        <time>2021-05-23T12:56:16Z</time>
      </trkpt>
      <trkpt lat="42.7495260" lon="-8.6543600">
        <ele>15.1</ele>
        <time>2021-05-23T12:56:17Z</time>
      </trkpt>
      <trkpt lat="42.7495370" lon="-8.6543570">
        <ele>15.2</ele>
        <time>2021-05-23T12:56:18Z</time>
      </trkpt>
      <trkpt lat="42.7495500" lon="-8.6543510">
        <ele>15.2</ele>
        <time>2021-05-23T12:56:19Z</time>
      </trkpt>
      <trkpt lat="42.7495710" lon="-8.6543420">
        <ele>15.2</ele>
        <time>2021-05-23T12:56:20Z</time>
      </trkpt>
      <trkpt lat="42.7495790" lon="-8.6543350">
        <ele>15.2</ele>
        <time>2021-05-23T12:56:21Z</time>
      </trkpt>
      <trkpt lat="42.7495920" lon="-8.6543340">
        <ele>15.2</ele>
        <time>2021-05-23T12:56:22Z</time>
      </trkpt>
      <trkpt lat="42.7495980" lon="-8.6543300">
        <ele>15.3</ele>
        <time>2021-05-23T12:56:23Z</time>
      </trkpt>
      <trkpt lat="42.7496130" lon="-8.6543190">
        <ele>15.3</ele>
        <time>2021-05-23T12:56:24Z</time>
      </trkpt>
      <trkpt lat="42.7496290" lon="-8.6543150">
        <ele>15.3</ele>
        <time>2021-05-23T12:56:25Z</time>
      </trkpt>
      <trkpt lat="42.7496370" lon="-8.6543130">
        <ele>15.3</ele>
        <time>2021-05-23T12:56:26Z</time>
      </trkpt>
      <trkpt lat="42.7496540" lon="-8.6543100">
        <ele>15.3</ele>
        <time>2021-05-23T12:56:27Z</time>
      </trkpt>
      <trkpt lat="42.7496640" lon="-8.6543100">
        <ele>15.3</ele>
        <time>2021-05-23T12:56:28Z</time>
      </trkpt>
      <trkpt lat="42.7496850" lon="-8.6543000">
        <ele>15.3</ele>
        <time>2021-05-23T12:56:29Z</time>
      </trkpt>
      <trkpt lat="42.7496940" lon="-8.6542970">
        <ele>15.4</ele>
        <time>2021-05-23T12:56:30Z</time>
      </trkpt>
      <trkpt lat="42.7497020" lon="-8.6542940">
        <ele>15.4</ele>
        <time>2021-05-23T12:56:31Z</time>
      </trkpt>
      <trkpt lat="42.7497100" lon="-8.6542930">
        <ele>15.4</ele>
        <time>2021-05-23T12:56:32Z</time>
      </trkpt>
      <trkpt lat="42.7497220" lon="-8.6542860">
        <ele>15.4</ele>
        <time>2021-05-23T12:56:33Z</time>
      </trkpt>
      <trkpt lat="42.7497350" lon="-8.6542780">
        <ele>15.4</ele>
        <time>2021-05-23T12:56:34Z</time>
      </trkpt>
      <trkpt lat="42.7497500" lon="-8.6542740">
        <ele>15.4</ele>
        <time>2021-05-23T12:56:35Z</time>
      </trkpt>
      <trkpt lat="42.7497610" lon="-8.6542680">
        <ele>15.4</ele>
        <time>2021-05-23T12:56:36Z</time>
      </trkpt>
      <trkpt lat="42.7497760" lon="-8.6542620">
        <ele>15.4</ele>
        <time>2021-05-23T12:56:37Z</time>
      </trkpt>
      <trkpt lat="42.7497900" lon="-8.6542580">
        <ele>15.4</ele>
        <time>2021-05-23T12:56:38Z</time>
      </trkpt>
      <trkpt lat="42.7498010" lon="-8.6542530">
        <ele>15.4</ele>
        <time>2021-05-23T12:56:39Z</time>
      </trkpt>
      <trkpt lat="42.7498090" lon="-8.6542470">
        <ele>15.4</ele>
        <time>2021-05-23T12:56:40Z</time>
      </trkpt>
      <trkpt lat="42.7498210" lon="-8.6542340">
        <ele>15.4</ele>
        <time>2021-05-23T12:56:41Z</time>
      </trkpt>
      <trkpt lat="42.7498370" lon="-8.6542270">
        <ele>15.5</ele>
        <time>2021-05-23T12:56:42Z</time>
      </trkpt>
      <trkpt lat="42.7498510" lon="-8.6542220">
        <ele>15.5</ele>
        <time>2021-05-23T12:56:43Z</time>
      </trkpt>
      <trkpt lat="42.7498650" lon="-8.6542150">
        <ele>15.5</ele>
        <time>2021-05-23T12:56:44Z</time>
      </trkpt>
      <trkpt lat="42.7498700" lon="-8.6542150">
        <ele>15.5</ele>
        <time>2021-05-23T12:56:45Z</time>
      </trkpt>
      <trkpt lat="42.7498800" lon="-8.6542050">
        <ele>15.5</ele>
        <time>2021-05-23T12:56:46Z</time>
      </trkpt>
      <trkpt lat="42.7498960" lon="-8.6542000">
        <ele>15.5</ele>
        <time>2021-05-23T12:56:47Z</time>
      </trkpt>
      <trkpt lat="42.7499080" lon="-8.6541990">
        <ele>15.5</ele>
        <time>2021-05-23T12:56:48Z</time>
      </trkpt>
      <trkpt lat="42.7499280" lon="-8.6541880">
        <ele>15.6</ele>
        <time>2021-05-23T12:56:49Z</time>
      </trkpt>
      <trkpt lat="42.7499380" lon="-8.6541820">
        <ele>15.6</ele>
        <time>2021-05-23T12:56:51Z</time>
      </trkpt>
      <trkpt lat="42.7499470" lon="-8.6541770">
        <ele>15.6</ele>
        <time>2021-05-23T12:56:52Z</time>
      </trkpt>
      <trkpt lat="42.7499650" lon="-8.6541690">
        <ele>15.6</ele>
        <time>2021-05-23T12:56:53Z</time>
      </trkpt>
      <trkpt lat="42.7499740" lon="-8.6541660">
        <ele>15.6</ele>
        <time>2021-05-23T12:56:54Z</time>
      </trkpt>
      <trkpt lat="42.7499820" lon="-8.6541630">
        <ele>15.6</ele>
        <time>2021-05-23T12:56:55Z</time>
      </trkpt>
      <trkpt lat="42.7499920" lon="-8.6541650">
        <ele>15.7</ele>
        <time>2021-05-23T12:56:56Z</time>
      </trkpt>
      <trkpt lat="42.7500090" lon="-8.6541600">
        <ele>15.7</ele>
        <time>2021-05-23T12:56:57Z</time>
      </trkpt>
      <trkpt lat="42.7500240" lon="-8.6541550">
        <ele>15.7</ele>
        <time>2021-05-23T12:56:58Z</time>
      </trkpt>
      <trkpt lat="42.7500370" lon="-8.6541450">
        <ele>15.7</ele>
        <time>2021-05-23T12:56:59Z</time>
      </trkpt>
      <trkpt lat="42.7500540" lon="-8.6541390">
        <ele>15.7</ele>
        <time>2021-05-23T12:57:00Z</time>
      </trkpt>
      <trkpt lat="42.7500630" lon="-8.6541350">
        <ele>15.7</ele>
        <time>2021-05-23T12:57:01Z</time>
      </trkpt>
      <trkpt lat="42.7500800" lon="-8.6541390">
        <ele>15.8</ele>
        <time>2021-05-23T12:57:02Z</time>
      </trkpt>
      <trkpt lat="42.7500940" lon="-8.6541390">
        <ele>15.8</ele>
        <time>2021-05-23T12:57:03Z</time>
      </trkpt>
      <trkpt lat="42.7501080" lon="-8.6541350">
        <ele>15.8</ele>
        <time>2021-05-23T12:57:04Z</time>
      </trkpt>
      <trkpt lat="42.7501190" lon="-8.6541320">
        <ele>15.8</ele>
        <time>2021-05-23T12:57:05Z</time>
      </trkpt>
      <trkpt lat="42.7501280" lon="-8.6541320">
        <ele>15.8</ele>
        <time>2021-05-23T12:57:06Z</time>
      </trkpt>
      <trkpt lat="42.7501380" lon="-8.6541250">
        <ele>15.8</ele>
        <time>2021-05-23T12:57:07Z</time>
      </trkpt>
      <trkpt lat="42.7501460" lon="-8.6541230">
        <ele>15.8</ele>
        <time>2021-05-23T12:57:08Z</time>
      </trkpt>
      <trkpt lat="42.7501600" lon="-8.6541220">
        <ele>15.8</ele>
        <time>2021-05-23T12:57:09Z</time>
      </trkpt>
      <trkpt lat="42.7501880" lon="-8.6541170">
        <ele>15.9</ele>
        <time>2021-05-23T12:57:10Z</time>
      </trkpt>
      <trkpt lat="42.7501970" lon="-8.6541140">
        <ele>15.9</ele>
        <time>2021-05-23T12:57:11Z</time>
      </trkpt>
      <trkpt lat="42.7502060" lon="-8.6541130">
        <ele>15.9</ele>
        <time>2021-05-23T12:57:12Z</time>
      </trkpt>
      <trkpt lat="42.7502190" lon="-8.6541030">
        <ele>15.9</ele>
        <time>2021-05-23T12:57:13Z</time>
      </trkpt>
      <trkpt lat="42.7502270" lon="-8.6540980">
        <ele>15.9</ele>
        <time>2021-05-23T12:57:14Z</time>
      </trkpt>
      <trkpt lat="42.7502480" lon="-8.6540910">
        <ele>15.9</ele>
        <time>2021-05-23T12:57:15Z</time>
      </trkpt>
      <trkpt lat="42.7502560" lon="-8.6540870">
        <ele>15.9</ele>
        <time>2021-05-23T12:57:16Z</time>
      </trkpt>
      <trkpt lat="42.7502630" lon="-8.6540840">
        <ele>15.9</ele>
        <time>2021-05-23T12:57:17Z</time>
      </trkpt>
      <trkpt lat="42.7502770" lon="-8.6540790">
        <ele>15.9</ele>
        <time>2021-05-23T12:57:18Z</time>
      </trkpt>
      <trkpt lat="42.7502910" lon="-8.6540670">
        <ele>15.9</ele>
        <time>2021-05-23T12:57:19Z</time>
      </trkpt>
      <trkpt lat="42.7503130" lon="-8.6540550">
        <ele>16.0</ele>
        <time>2021-05-23T12:57:20Z</time>
      </trkpt>
      <trkpt lat="42.7503200" lon="-8.6540490">
        <ele>16.0</ele>
        <time>2021-05-23T12:57:21Z</time>
      </trkpt>
      <trkpt lat="42.7503280" lon="-8.6540440">
        <ele>16.0</ele>
        <time>2021-05-23T12:57:22Z</time>
      </trkpt>
      <trkpt lat="42.7503430" lon="-8.6540330">
        <ele>16.0</ele>
        <time>2021-05-23T12:57:23Z</time>
      </trkpt>
      <trkpt lat="42.7503530" lon="-8.6540240">
        <ele>16.0</ele>
        <time>2021-05-23T12:57:24Z</time>
      </trkpt>
      <trkpt lat="42.7503710" lon="-8.6540060">
        <ele>16.0</ele>
        <time>2021-05-23T12:57:25Z</time>
      </trkpt>
      <trkpt lat="42.7503770" lon="-8.6539980">
        <ele>16.0</ele>
        <time>2021-05-23T12:57:26Z</time>
      </trkpt>
      <trkpt lat="42.7503840" lon="-8.6539910">
        <ele>16.0</ele>
        <time>2021-05-23T12:57:27Z</time>
      </trkpt>
      <trkpt lat="42.7503970" lon="-8.6539840">
        <ele>16.0</ele>
        <time>2021-05-23T12:57:28Z</time>
      </trkpt>
      <trkpt lat="42.7504050" lon="-8.6539700">
        <ele>16.0</ele>
        <time>2021-05-23T12:57:29Z</time>
      </trkpt>
      <trkpt lat="42.7504090" lon="-8.6539670">
        <ele>16.0</ele>
        <time>2021-05-23T12:57:30Z</time>
      </trkpt>
      <trkpt lat="42.7504300" lon="-8.6539640">
        <ele>16.0</ele>
        <time>2021-05-23T12:57:31Z</time>
      </trkpt>
      <trkpt lat="42.7504440" lon="-8.6539590">
        <ele>16.0</ele>
        <time>2021-05-23T12:57:32Z</time>
      </trkpt>
      <trkpt lat="42.7504580" lon="-8.6539510">
        <ele>16.0</ele>
        <time>2021-05-23T12:57:33Z</time>
      </trkpt>
      <trkpt lat="42.7504710" lon="-8.6539440">
        <ele>16.0</ele>
        <time>2021-05-23T12:57:34Z</time>
      </trkpt>
      <trkpt lat="42.7504910" lon="-8.6539400">
        <ele>16.1</ele>
        <time>2021-05-23T12:57:35Z</time>
      </trkpt>
      <trkpt lat="42.7504990" lon="-8.6539390">
        <ele>16.1</ele>
        <time>2021-05-23T12:57:36Z</time>
      </trkpt>
      <trkpt lat="42.7505080" lon="-8.6539390">
        <ele>16.1</ele>
        <time>2021-05-23T12:57:37Z</time>
      </trkpt>
      <trkpt lat="42.7505240" lon="-8.6539290">
        <ele>16.1</ele>
        <time>2021-05-23T12:57:38Z</time>
      </trkpt>
      <trkpt lat="42.7505370" lon="-8.6539240">
        <ele>16.1</ele>
        <time>2021-05-23T12:57:39Z</time>
      </trkpt>
      <trkpt lat="42.7505540" lon="-8.6539160">
        <ele>16.1</ele>
        <time>2021-05-23T12:57:40Z</time>
      </trkpt>
      <trkpt lat="42.7505640" lon="-8.6539140">
        <ele>16.1</ele>
        <time>2021-05-23T12:57:41Z</time>
      </trkpt>
      <trkpt lat="42.7505740" lon="-8.6539110">
        <ele>16.1</ele>
        <time>2021-05-23T12:57:42Z</time>
      </trkpt>
      <trkpt lat="42.7505910" lon="-8.6539040">
        <ele>16.1</ele>
        <time>2021-05-23T12:57:43Z</time>
      </trkpt>
      <trkpt lat="42.7506030" lon="-8.6539070">
        <ele>16.1</ele>
        <time>2021-05-23T12:57:44Z</time>
      </trkpt>
      <trkpt lat="42.7506270" lon="-8.6538980">
        <ele>16.1</ele>
        <time>2021-05-23T12:57:45Z</time>
      </trkpt>
      <trkpt lat="42.7506360" lon="-8.6538940">
        <ele>16.1</ele>
        <time>2021-05-23T12:57:46Z</time>
      </trkpt>
      <trkpt lat="42.7506460" lon="-8.6538890">
        <ele>16.1</ele>
        <time>2021-05-23T12:57:47Z</time>
      </trkpt>
      <trkpt lat="42.7506680" lon="-8.6538850">
        <ele>16.1</ele>
        <time>2021-05-23T12:57:48Z</time>
      </trkpt>
      <trkpt lat="42.7506780" lon="-8.6538830">
        <ele>16.1</ele>
        <time>2021-05-23T12:57:49Z</time>
      </trkpt>
      <trkpt lat="42.7506870" lon="-8.6538820">
        <ele>16.1</ele>
        <time>2021-05-23T12:57:50Z</time>
      </trkpt>
      <trkpt lat="42.7507000" lon="-8.6538820">
        <ele>16.2</ele>
        <time>2021-05-23T12:57:51Z</time>
      </trkpt>
      <trkpt lat="42.7507150" lon="-8.6538750">
        <ele>16.2</ele>
        <time>2021-05-23T12:57:52Z</time>
      </trkpt>
      <trkpt lat="42.7507230" lon="-8.6538800">
        <ele>16.2</ele>
        <time>2021-05-23T12:57:53Z</time>
      </trkpt>
      <trkpt lat="42.7507370" lon="-8.6538710">
        <ele>16.2</ele>
        <time>2021-05-23T12:57:54Z</time>
      </trkpt>
      <trkpt lat="42.7507490" lon="-8.6538660">
        <ele>16.2</ele>
        <time>2021-05-23T12:57:55Z</time>
      </trkpt>
      <trkpt lat="42.7507640" lon="-8.6538560">
        <ele>16.2</ele>
        <time>2021-05-23T12:57:56Z</time>
      </trkpt>
      <trkpt lat="42.7507790" lon="-8.6538480">
        <ele>16.2</ele>
        <time>2021-05-23T12:57:57Z</time>
      </trkpt>
      <trkpt lat="42.7508030" lon="-8.6538350">
        <ele>16.2</ele>
        <time>2021-05-23T12:57:58Z</time>
      </trkpt>
      <trkpt lat="42.7508110" lon="-8.6538330">
        <ele>16.2</ele>
        <time>2021-05-23T12:57:59Z</time>
      </trkpt>
      <trkpt lat="42.7508190" lon="-8.6538300">
        <ele>16.2</ele>
        <time>2021-05-23T12:58:00Z</time>
      </trkpt>
      <trkpt lat="42.7508350" lon="-8.6538240">
        <ele>16.2</ele>
        <time>2021-05-23T12:58:01Z</time>
      </trkpt>
      <trkpt lat="42.7508440" lon="-8.6538200">
        <ele>16.2</ele>
        <time>2021-05-23T12:58:02Z</time>
      </trkpt>
      <trkpt lat="42.7508550" lon="-8.6538200">
        <ele>16.2</ele>
        <time>2021-05-23T12:58:03Z</time>
      </trkpt>
      <trkpt lat="42.7508820" lon="-8.6538060">
        <ele>16.2</ele>
        <time>2021-05-23T12:58:04Z</time>
      </trkpt>
      <trkpt lat="42.7508910" lon="-8.6538030">
        <ele>16.2</ele>
        <time>2021-05-23T12:58:05Z</time>
      </trkpt>
      <trkpt lat="42.7509060" lon="-8.6538030">
        <ele>16.2</ele>
        <time>2021-05-23T12:58:06Z</time>
      </trkpt>
      <trkpt lat="42.7509220" lon="-8.6537950">
        <ele>16.3</ele>
        <time>2021-05-23T12:58:07Z</time>
      </trkpt>
      <trkpt lat="42.7509370" lon="-8.6537890">
        <ele>16.3</ele>
        <time>2021-05-23T12:58:08Z</time>
      </trkpt>
      <trkpt lat="42.7509540" lon="-8.6537900">
        <ele>16.3</ele>
        <time>2021-05-23T12:58:09Z</time>
      </trkpt>
      <trkpt lat="42.7509680" lon="-8.6537830">
        <ele>16.3</ele>
        <time>2021-05-23T12:58:10Z</time>
      </trkpt>
      <trkpt lat="42.7509830" lon="-8.6537770">
        <ele>16.3</ele>
        <time>2021-05-23T12:58:11Z</time>
      </trkpt>
      <trkpt lat="42.7509960" lon="-8.6537660">
        <ele>16.3</ele>
        <time>2021-05-23T12:58:12Z</time>
      </trkpt>
      <trkpt lat="42.7510060" lon="-8.6537580">
        <ele>16.3</ele>
        <time>2021-05-23T12:58:13Z</time>
      </trkpt>
      <trkpt lat="42.7510100" lon="-8.6537530">
        <ele>16.3</ele>
        <time>2021-05-23T12:58:14Z</time>
      </trkpt>
      <trkpt lat="42.7510210" lon="-8.6537480">
        <ele>16.3</ele>
        <time>2021-05-23T12:58:15Z</time>
      </trkpt>
      <trkpt lat="42.7510300" lon="-8.6537340">
        <ele>16.3</ele>
        <time>2021-05-23T12:58:16Z</time>
      </trkpt>
      <trkpt lat="42.7510400" lon="-8.6537270">
        <ele>16.3</ele>
        <time>2021-05-23T12:58:17Z</time>
      </trkpt>
      <trkpt lat="42.7510540" lon="-8.6537200">
        <ele>16.3</ele>
        <time>2021-05-23T12:58:18Z</time>
      </trkpt>
      <trkpt lat="42.7510670" lon="-8.6537150">
        <ele>16.3</ele>
        <time>2021-05-23T12:58:19Z</time>
      </trkpt>
      <trkpt lat="42.7510730" lon="-8.6537060">
        <ele>16.3</ele>
        <time>2021-05-23T12:58:20Z</time>
      </trkpt>
      <trkpt lat="42.7510850" lon="-8.6537000">
        <ele>16.3</ele>
        <time>2021-05-23T12:58:21Z</time>
      </trkpt>
      <trkpt lat="42.7510980" lon="-8.6536970">
        <ele>16.3</ele>
        <time>2021-05-23T12:58:22Z</time>
      </trkpt>
      <trkpt lat="42.7511110" lon="-8.6536930">
        <ele>16.3</ele>
        <time>2021-05-23T12:58:23Z</time>
      </trkpt>
      <trkpt lat="42.7511250" lon="-8.6536860">
        <ele>16.3</ele>
        <time>2021-05-23T12:58:24Z</time>
      </trkpt>
      <trkpt lat="42.7511490" lon="-8.6536740">
        <ele>16.3</ele>
        <time>2021-05-23T12:58:25Z</time>
      </trkpt>
      <trkpt lat="42.7511620" lon="-8.6536650">
        <ele>16.3</ele>
        <time>2021-05-23T12:58:26Z</time>
      </trkpt>
      <trkpt lat="42.7511800" lon="-8.6536530">
        <ele>16.3</ele>
        <time>2021-05-23T12:58:27Z</time>
      </trkpt>
      <trkpt lat="42.7511880" lon="-8.6536500">
        <ele>16.3</ele>
        <time>2021-05-23T12:58:28Z</time>
      </trkpt>
      <trkpt lat="42.7511970" lon="-8.6536470">
        <ele>16.3</ele>
        <time>2021-05-23T12:58:29Z</time>
      </trkpt>
      <trkpt lat="42.7512140" lon="-8.6536390">
        <ele>16.3</ele>
        <time>2021-05-23T12:58:30Z</time>
      </trkpt>
      <trkpt lat="42.7512280" lon="-8.6536410">
        <ele>16.3</ele>
        <time>2021-05-23T12:58:31Z</time>
      </trkpt>
      <trkpt lat="42.7512420" lon="-8.6536410">
        <ele>16.4</ele>
        <time>2021-05-23T12:58:32Z</time>
      </trkpt>
      <trkpt lat="42.7512650" lon="-8.6536440">
        <ele>16.4</ele>
        <time>2021-05-23T12:58:34Z</time>
      </trkpt>
      <trkpt lat="42.7512830" lon="-8.6536480">
        <ele>16.4</ele>
        <time>2021-05-23T12:58:35Z</time>
      </trkpt>
      <trkpt lat="42.7512980" lon="-8.6536480">
        <ele>16.4</ele>
        <time>2021-05-23T12:58:36Z</time>
      </trkpt>
      <trkpt lat="42.7513120" lon="-8.6536510">
        <ele>16.4</ele>
        <time>2021-05-23T12:58:37Z</time>
      </trkpt>
      <trkpt lat="42.7513250" lon="-8.6536470">
        <ele>16.4</ele>
        <time>2021-05-23T12:58:38Z</time>
      </trkpt>
      <trkpt lat="42.7513380" lon="-8.6536430">
        <ele>16.4</ele>
        <time>2021-05-23T12:58:39Z</time>
      </trkpt>
      <trkpt lat="42.7513530" lon="-8.6536460">
        <ele>16.5</ele>
        <time>2021-05-23T12:58:40Z</time>
      </trkpt>
      <trkpt lat="42.7513630" lon="-8.6536430">
        <ele>16.5</ele>
        <time>2021-05-23T12:58:41Z</time>
      </trkpt>
      <trkpt lat="42.7513710" lon="-8.6536410">
        <ele>16.5</ele>
        <time>2021-05-23T12:58:42Z</time>
      </trkpt>
      <trkpt lat="42.7513850" lon="-8.6536330">
        <ele>16.5</ele>
        <time>2021-05-23T12:58:43Z</time>
      </trkpt>
      <trkpt lat="42.7514050" lon="-8.6536270">
        <ele>16.6</ele>
        <time>2021-05-23T12:58:44Z</time>
      </trkpt>
      <trkpt lat="42.7514130" lon="-8.6536240">
        <ele>16.6</ele>
        <time>2021-05-23T12:58:45Z</time>
      </trkpt>
      <trkpt lat="42.7514210" lon="-8.6536220">
        <ele>16.6</ele>
        <time>2021-05-23T12:58:46Z</time>
      </trkpt>
      <trkpt lat="42.7514440" lon="-8.6536090">
        <ele>16.6</ele>
        <time>2021-05-23T12:58:47Z</time>
      </trkpt>
      <trkpt lat="42.7514530" lon="-8.6536060">
        <ele>16.6</ele>
        <time>2021-05-23T12:58:48Z</time>
      </trkpt>
      <trkpt lat="42.7514610" lon="-8.6536040">
        <ele>16.7</ele>
        <time>2021-05-23T12:58:49Z</time>
      </trkpt>
      <trkpt lat="42.7514700" lon="-8.6536010">
        <ele>16.7</ele>
        <time>2021-05-23T12:58:50Z</time>
      </trkpt>
      <trkpt lat="42.7514820" lon="-8.6535950">
        <ele>16.7</ele>
        <time>2021-05-23T12:58:51Z</time>
      </trkpt>
      <trkpt lat="42.7515070" lon="-8.6535880">
        <ele>16.8</ele>
        <time>2021-05-23T12:58:53Z</time>
      </trkpt>
      <trkpt lat="42.7515130" lon="-8.6535830">
        <ele>16.8</ele>
        <time>2021-05-23T12:58:54Z</time>
      </trkpt>
      <trkpt lat="42.7515300" lon="-8.6535800">
        <ele>16.8</ele>
        <time>2021-05-23T12:58:56Z</time>
      </trkpt>
      <trkpt lat="42.7515390" lon="-8.6535810">
        <ele>16.9</ele>
        <time>2021-05-23T12:58:57Z</time>
      </trkpt>
      <trkpt lat="42.7515610" lon="-8.6535660">
        <ele>16.9</ele>
        <time>2021-05-23T12:58:58Z</time>
      </trkpt>
      <trkpt lat="42.7515740" lon="-8.6535550">
        <ele>17.0</ele>
        <time>2021-05-23T12:58:59Z</time>
      </trkpt>
      <trkpt lat="42.7515890" lon="-8.6535480">
        <ele>17.0</ele>
        <time>2021-05-23T12:59:00Z</time>
      </trkpt>
      <trkpt lat="42.7516040" lon="-8.6535420">
        <ele>17.0</ele>
        <time>2021-05-23T12:59:01Z</time>
      </trkpt>
      <trkpt lat="42.7516170" lon="-8.6535300">
        <ele>17.1</ele>
        <time>2021-05-23T12:59:02Z</time>
      </trkpt>
      <trkpt lat="42.7516300" lon="-8.6535110">
        <ele>17.1</ele>
        <time>2021-05-23T12:59:03Z</time>
      </trkpt>
      <trkpt lat="42.7516440" lon="-8.6535040">
        <ele>17.2</ele>
        <time>2021-05-23T12:59:04Z</time>
      </trkpt>
      <trkpt lat="42.7516590" lon="-8.6534940">
        <ele>17.2</ele>
        <time>2021-05-23T12:59:05Z</time>
      </trkpt>
      <trkpt lat="42.7516750" lon="-8.6534890">
        <ele>17.3</ele>
        <time>2021-05-23T12:59:06Z</time>
      </trkpt>
      <trkpt lat="42.7516890" lon="-8.6534800">
        <ele>17.3</ele>
        <time>2021-05-23T12:59:07Z</time>
      </trkpt>
      <trkpt lat="42.7517020" lon="-8.6534690">
        <ele>17.3</ele>
        <time>2021-05-23T12:59:08Z</time>
      </trkpt>
      <trkpt lat="42.7517170" lon="-8.6534620">
        <ele>17.4</ele>
        <time>2021-05-23T12:59:09Z</time>
      </trkpt>
      <trkpt lat="42.7517310" lon="-8.6534520">
        <ele>17.4</ele>
        <time>2021-05-23T12:59:10Z</time>
      </trkpt>
      <trkpt lat="42.7517450" lon="-8.6534420">
        <ele>17.4</ele>
        <time>2021-05-23T12:59:11Z</time>
      </trkpt>
      <trkpt lat="42.7517590" lon="-8.6534380">
        <ele>17.5</ele>
        <time>2021-05-23T12:59:12Z</time>
      </trkpt>
      <trkpt lat="42.7517720" lon="-8.6534320">
        <ele>17.5</ele>
        <time>2021-05-23T12:59:13Z</time>
      </trkpt>
      <trkpt lat="42.7517850" lon="-8.6534320">
        <ele>17.5</ele>
        <time>2021-05-23T12:59:14Z</time>
      </trkpt>
      <trkpt lat="42.7517940" lon="-8.6534320">
        <ele>17.5</ele>
        <time>2021-05-23T12:59:15Z</time>
      </trkpt>
      <trkpt lat="42.7517890" lon="-8.6534300">
        <ele>17.5</ele>
        <time>2021-05-23T12:59:16Z</time>
      </trkpt>
      <trkpt lat="42.7517820" lon="-8.6534390">
        <ele>17.5</ele>
        <time>2021-05-23T12:59:17Z</time>
      </trkpt>
      <trkpt lat="42.7517810" lon="-8.6534430">
        <ele>17.5</ele>
        <time>2021-05-23T12:59:18Z</time>
      </trkpt>
      <trkpt lat="42.7517800" lon="-8.6534460">
        <ele>17.5</ele>
        <time>2021-05-23T12:59:19Z</time>
      </trkpt>
      <trkpt lat="42.7517790" lon="-8.6534510">
        <ele>17.5</ele>
        <time>2021-05-23T12:59:20Z</time>
      </trkpt>
      <trkpt lat="42.7517790" lon="-8.6534560">
        <ele>17.5</ele>
        <time>2021-05-23T12:59:21Z</time>
      </trkpt>
      <trkpt lat="42.7517810" lon="-8.6534640">
        <ele>17.5</ele>
        <time>2021-05-23T12:59:22Z</time>
      </trkpt>
      <trkpt lat="42.7517810" lon="-8.6534710">
        <ele>17.5</ele>
        <time>2021-05-23T12:59:23Z</time>
      </trkpt>
      <trkpt lat="42.7517890" lon="-8.6534940">
        <ele>17.5</ele>
        <time>2021-05-23T12:59:24Z</time>
      </trkpt>
      <trkpt lat="42.7517950" lon="-8.6535060">
        <ele>17.5</ele>
        <time>2021-05-23T12:59:25Z</time>
      </trkpt>
      <trkpt lat="42.7518000" lon="-8.6535180">
        <ele>17.5</ele>
        <time>2021-05-23T12:59:26Z</time>
      </trkpt>
      <trkpt lat="42.7518160" lon="-8.6535430">
        <ele>17.5</ele>
        <time>2021-05-23T12:59:27Z</time>
      </trkpt>
      <trkpt lat="42.7518260" lon="-8.6535420">
        <ele>17.5</ele>
        <time>2021-05-23T12:59:28Z</time>
      </trkpt>
      <trkpt lat="42.7518350" lon="-8.6535510">
        <ele>17.5</ele>
        <time>2021-05-23T12:59:29Z</time>
      </trkpt>
      <trkpt lat="42.7518540" lon="-8.6535620">
        <ele>17.4</ele>
        <time>2021-05-23T12:59:30Z</time>
      </trkpt>
      <trkpt lat="42.7518640" lon="-8.6535710">
        <ele>17.4</ele>
        <time>2021-05-23T12:59:31Z</time>
      </trkpt>
      <trkpt lat="42.7518750" lon="-8.6535750">
        <ele>17.4</ele>
        <time>2021-05-23T12:59:32Z</time>
      </trkpt>
      <trkpt lat="42.7518850" lon="-8.6535760">
        <ele>17.4</ele>
        <time>2021-05-23T12:59:33Z</time>
      </trkpt>
      <trkpt lat="42.7518990" lon="-8.6535790">
        <ele>17.4</ele>
        <time>2021-05-23T12:59:34Z</time>
      </trkpt>
      <trkpt lat="42.7519210" lon="-8.6535790">
        <ele>17.4</ele>
        <time>2021-05-23T12:59:35Z</time>
      </trkpt>
      <trkpt lat="42.7519290" lon="-8.6535680">
        <ele>17.3</ele>
        <time>2021-05-23T12:59:36Z</time>
      </trkpt>
      <trkpt lat="42.7519440" lon="-8.6535630">
        <ele>17.3</ele>
        <time>2021-05-23T12:59:37Z</time>
      </trkpt>
      <trkpt lat="42.7519510" lon="-8.6535560">
        <ele>17.3</ele>
        <time>2021-05-23T12:59:38Z</time>
      </trkpt>
      <trkpt lat="42.7519570" lon="-8.6535480">
        <ele>17.3</ele>
        <time>2021-05-23T12:59:39Z</time>
      </trkpt>
      <trkpt lat="42.7519670" lon="-8.6535430">
        <ele>17.3</ele>
        <time>2021-05-23T12:59:40Z</time>
      </trkpt>
      <trkpt lat="42.7519830" lon="-8.6535360">
        <ele>17.3</ele>
        <time>2021-05-23T12:59:41Z</time>
      </trkpt>
      <trkpt lat="42.7519930" lon="-8.6535340">
        <ele>17.2</ele>
        <time>2021-05-23T12:59:42Z</time>
      </trkpt>
      <trkpt lat="42.7520070" lon="-8.6535250">
        <ele>17.2</ele>
        <time>2021-05-23T12:59:43Z</time>
      </trkpt>
      <trkpt lat="42.7520120" lon="-8.6535210">
        <ele>17.2</ele>
        <time>2021-05-23T12:59:44Z</time>
      </trkpt>
      <trkpt lat="42.7520220" lon="-8.6535120">
        <ele>17.2</ele>
        <time>2021-05-23T12:59:45Z</time>
      </trkpt>
      <trkpt lat="42.7520420" lon="-8.6535030">
        <ele>17.2</ele>
        <time>2021-05-23T12:59:46Z</time>
      </trkpt>
      <trkpt lat="42.7520630" lon="-8.6534900">
        <ele>17.1</ele>
        <time>2021-05-23T12:59:47Z</time>
      </trkpt>
      <trkpt lat="42.7520700" lon="-8.6534850">
        <ele>17.1</ele>
        <time>2021-05-23T12:59:48Z</time>
      </trkpt>
      <trkpt lat="42.7520760" lon="-8.6534810">
        <ele>17.1</ele>
        <time>2021-05-23T12:59:49Z</time>
      </trkpt>
      <trkpt lat="42.7520890" lon="-8.6534730">
        <ele>17.1</ele>
        <time>2021-05-23T12:59:50Z</time>
      </trkpt>
      <trkpt lat="42.7521020" lon="-8.6534610">
        <ele>17.0</ele>
        <time>2021-05-23T12:59:51Z</time>
      </trkpt>
      <trkpt lat="42.7521190" lon="-8.6534480">
        <ele>17.0</ele>
        <time>2021-05-23T12:59:52Z</time>
      </trkpt>
      <trkpt lat="42.7521280" lon="-8.6534440">
        <ele>17.0</ele>
        <time>2021-05-23T12:59:53Z</time>
      </trkpt>
      <trkpt lat="42.7521360" lon="-8.6534410">
        <ele>17.0</ele>
        <time>2021-05-23T12:59:54Z</time>
      </trkpt>
      <trkpt lat="42.7521500" lon="-8.6534290">
        <ele>17.0</ele>
        <time>2021-05-23T12:59:55Z</time>
      </trkpt>
      <trkpt lat="42.7521630" lon="-8.6534220">
        <ele>16.9</ele>
        <time>2021-05-23T12:59:56Z</time>
      </trkpt>
      <trkpt lat="42.7521830" lon="-8.6534140">
        <ele>16.9</ele>
        <time>2021-05-23T12:59:57Z</time>
      </trkpt>
      <trkpt lat="42.7521910" lon="-8.6534090">
        <ele>16.8</ele>
        <time>2021-05-23T12:59:58Z</time>
      </trkpt>
      <trkpt lat="42.7521980" lon="-8.6534050">
        <ele>16.8</ele>
        <time>2021-05-23T12:59:59Z</time>
      </trkpt>
      <trkpt lat="42.7522200" lon="-8.6534000">
        <ele>16.8</ele>
        <time>2021-05-23T13:00:00Z</time>
      </trkpt>
      <trkpt lat="42.7522310" lon="-8.6533940">
        <ele>16.7</ele>
        <time>2021-05-23T13:00:01Z</time>
      </trkpt>
      <trkpt lat="42.7522430" lon="-8.6533880">
        <ele>16.7</ele>
        <time>2021-05-23T13:00:02Z</time>
      </trkpt>
      <trkpt lat="42.7522570" lon="-8.6533810">
        <ele>16.7</ele>
        <time>2021-05-23T13:00:03Z</time>
      </trkpt>
      <trkpt lat="42.7522680" lon="-8.6533690">
        <ele>16.6</ele>
        <time>2021-05-23T13:00:04Z</time>
      </trkpt>
      <trkpt lat="42.7522840" lon="-8.6533670">
        <ele>16.6</ele>
        <time>2021-05-23T13:00:05Z</time>
      </trkpt>
      <trkpt lat="42.7522980" lon="-8.6533690">
        <ele>16.6</ele>
        <time>2021-05-23T13:00:06Z</time>
      </trkpt>
      <trkpt lat="42.7523110" lon="-8.6533510">
        <ele>16.5</ele>
        <time>2021-05-23T13:00:07Z</time>
      </trkpt>
      <trkpt lat="42.7523240" lon="-8.6533420">
        <ele>16.5</ele>
        <time>2021-05-23T13:00:08Z</time>
      </trkpt>
      <trkpt lat="42.7523440" lon="-8.6533310">
        <ele>16.5</ele>
        <time>2021-05-23T13:00:09Z</time>
      </trkpt>
      <trkpt lat="42.7523510" lon="-8.6533280">
        <ele>16.4</ele>
        <time>2021-05-23T13:00:10Z</time>
      </trkpt>
      <trkpt lat="42.7523580" lon="-8.6533240">
        <ele>16.4</ele>
        <time>2021-05-23T13:00:11Z</time>
      </trkpt>
      <trkpt lat="42.7523690" lon="-8.6533250">
        <ele>16.4</ele>
        <time>2021-05-23T13:00:12Z</time>
      </trkpt>
      <trkpt lat="42.7523820" lon="-8.6533240">
        <ele>16.4</ele>
        <time>2021-05-23T13:00:13Z</time>
      </trkpt>
      <trkpt lat="42.7523900" lon="-8.6533250">
        <ele>16.4</ele>
        <time>2021-05-23T13:00:14Z</time>
      </trkpt>
      <trkpt lat="42.7524070" lon="-8.6533130">
        <ele>16.3</ele>
        <time>2021-05-23T13:00:15Z</time>
      </trkpt>
      <trkpt lat="42.7524210" lon="-8.6533070">
        <ele>16.3</ele>
        <time>2021-05-23T13:00:16Z</time>
      </trkpt>
      <trkpt lat="42.7524320" lon="-8.6533120">
        <ele>16.3</ele>
        <time>2021-05-23T13:00:17Z</time>
      </trkpt>
      <trkpt lat="42.7524440" lon="-8.6533080">
        <ele>16.3</ele>
        <time>2021-05-23T13:00:18Z</time>
      </trkpt>
      <trkpt lat="42.7524540" lon="-8.6533030">
        <ele>16.2</ele>
        <time>2021-05-23T13:00:19Z</time>
      </trkpt>
      <trkpt lat="42.7524660" lon="-8.6532980">
        <ele>16.2</ele>
        <time>2021-05-23T13:00:20Z</time>
      </trkpt>
      <trkpt lat="42.7524760" lon="-8.6532980">
        <ele>16.2</ele>
        <time>2021-05-23T13:00:21Z</time>
      </trkpt>
      <trkpt lat="42.7524830" lon="-8.6532900">
        <ele>16.2</ele>
        <time>2021-05-23T13:00:22Z</time>
      </trkpt>
      <trkpt lat="42.7524950" lon="-8.6532810">
        <ele>16.2</ele>
        <time>2021-05-23T13:00:23Z</time>
      </trkpt>
      <trkpt lat="42.7525070" lon="-8.6532680">
        <ele>16.1</ele>
        <time>2021-05-23T13:00:24Z</time>
      </trkpt>
      <trkpt lat="42.7525210" lon="-8.6532620">
        <ele>16.1</ele>
        <time>2021-05-23T13:00:25Z</time>
      </trkpt>
      <trkpt lat="42.7525360" lon="-8.6532620">
        <ele>16.1</ele>
        <time>2021-05-23T13:00:26Z</time>
      </trkpt>
      <trkpt lat="42.7525480" lon="-8.6532600">
        <ele>16.1</ele>
        <time>2021-05-23T13:00:27Z</time>
      </trkpt>
      <trkpt lat="42.7525530" lon="-8.6532570">
        <ele>16.1</ele>
        <time>2021-05-23T13:00:28Z</time>
      </trkpt>
      <trkpt lat="42.7525460" lon="-8.6532570">
        <ele>16.1</ele>
        <time>2021-05-23T13:00:29Z</time>
      </trkpt>
      <trkpt lat="42.7525390" lon="-8.6532560">
        <ele>16.1</ele>
        <time>2021-05-23T13:00:30Z</time>
      </trkpt>
      <trkpt lat="42.7525420" lon="-8.6532530">
        <ele>16.0</ele>
        <time>2021-05-23T13:00:31Z</time>
      </trkpt>
      <trkpt lat="42.7525470" lon="-8.6532450">
        <ele>16.0</ele>
        <time>2021-05-23T13:00:32Z</time>
      </trkpt>
      <trkpt lat="42.7525470" lon="-8.6532350">
        <ele>16.0</ele>
        <time>2021-05-23T13:00:33Z</time>
      </trkpt>
      <trkpt lat="42.7525460" lon="-8.6532300">
        <ele>16.0</ele>
        <time>2021-05-23T13:00:34Z</time>
      </trkpt>
      <trkpt lat="42.7525470" lon="-8.6532250">
        <ele>16.0</ele>
        <time>2021-05-23T13:00:35Z</time>
      </trkpt>
      <trkpt lat="42.7525460" lon="-8.6532240">
        <ele>16.0</ele>
        <time>2021-05-23T13:00:36Z</time>
      </trkpt>
      <trkpt lat="42.7525440" lon="-8.6532150">
        <ele>16.0</ele>
        <time>2021-05-23T13:00:37Z</time>
      </trkpt>
      <trkpt lat="42.7525440" lon="-8.6532120">
        <ele>16.0</ele>
        <time>2021-05-23T13:00:38Z</time>
      </trkpt>
      <trkpt lat="42.7525430" lon="-8.6532100">
        <ele>16.0</ele>
        <time>2021-05-23T13:00:39Z</time>
      </trkpt>
      <trkpt lat="42.7525420" lon="-8.6532070">
        <ele>16.0</ele>
        <time>2021-05-23T13:00:40Z</time>
      </trkpt>
      <trkpt lat="42.7525410" lon="-8.6532030">
        <ele>16.0</ele>
        <time>2021-05-23T13:00:41Z</time>
      </trkpt>
      <trkpt lat="42.7525400" lon="-8.6531970">
        <ele>16.0</ele>
        <time>2021-05-23T13:00:42Z</time>
      </trkpt>
      <trkpt lat="42.7525420" lon="-8.6531940">
        <ele>16.0</ele>
        <time>2021-05-23T13:00:43Z</time>
      </trkpt>
      <trkpt lat="42.7525460" lon="-8.6531860">
        <ele>16.0</ele>
        <time>2021-05-23T13:00:44Z</time>
      </trkpt>
      <trkpt lat="42.7525460" lon="-8.6531820">
        <ele>16.0</ele>
        <time>2021-05-23T13:00:45Z</time>
      </trkpt>
      <trkpt lat="42.7525440" lon="-8.6531710">
        <ele>15.9</ele>
        <time>2021-05-23T13:00:46Z</time>
      </trkpt>
      <trkpt lat="42.7525390" lon="-8.6531660">
        <ele>15.9</ele>
        <time>2021-05-23T13:00:47Z</time>
      </trkpt>
      <trkpt lat="42.7525390" lon="-8.6531630">
        <ele>15.9</ele>
        <time>2021-05-23T13:00:48Z</time>
      </trkpt>
      <trkpt lat="42.7525380" lon="-8.6531630">
        <ele>15.9</ele>
        <time>2021-05-23T13:00:49Z</time>
      </trkpt>
      <trkpt lat="42.7525380" lon="-8.6531650">
        <ele>15.9</ele>
        <time>2021-05-23T13:00:50Z</time>
      </trkpt>
      <trkpt lat="42.7525390" lon="-8.6531630">
        <ele>15.9</ele>
        <time>2021-05-23T13:00:51Z</time>
      </trkpt>
      <trkpt lat="42.7525410" lon="-8.6531610">
        <ele>15.9</ele>
        <time>2021-05-23T13:00:52Z</time>
      </trkpt>
      <trkpt lat="42.7525400" lon="-8.6531660">
        <ele>15.9</ele>
        <time>2021-05-23T13:00:53Z</time>
      </trkpt>
      <trkpt lat="42.7525410" lon="-8.6531680">
        <ele>15.9</ele>
        <time>2021-05-23T13:00:54Z</time>
      </trkpt>
      <trkpt lat="42.7525440" lon="-8.6531670">
        <ele>15.9</ele>
        <time>2021-05-23T13:00:55Z</time>
      </trkpt>
      <trkpt lat="42.7525430" lon="-8.6531600">
        <ele>15.9</ele>
        <time>2021-05-23T13:00:56Z</time>
      </trkpt>
      <trkpt lat="42.7525380" lon="-8.6531530">
        <ele>15.9</ele>
        <time>2021-05-23T13:00:57Z</time>
      </trkpt>
      <trkpt lat="42.7525370" lon="-8.6531650">
        <ele>15.9</ele>
        <time>2021-05-23T13:00:58Z</time>
      </trkpt>
      <trkpt lat="42.7525360" lon="-8.6531690">
        <ele>15.9</ele>
        <time>2021-05-23T13:00:59Z</time>
      </trkpt>
      <trkpt lat="42.7525350" lon="-8.6531690">
        <ele>15.9</ele>
        <time>2021-05-23T13:01:00Z</time>
      </trkpt>
      <trkpt lat="42.7525310" lon="-8.6531680">
        <ele>15.9</ele>
        <time>2021-05-23T13:01:01Z</time>
      </trkpt>
      <trkpt lat="42.7525300" lon="-8.6531590">
        <ele>15.9</ele>
        <time>2021-05-23T13:01:02Z</time>
      </trkpt>
      <trkpt lat="42.7525310" lon="-8.6531570">
        <ele>15.8</ele>
        <time>2021-05-23T13:01:03Z</time>
      </trkpt>
      <trkpt lat="42.7525290" lon="-8.6531610">
        <ele>15.8</ele>
        <time>2021-05-23T13:01:04Z</time>
      </trkpt>
      <trkpt lat="42.7525210" lon="-8.6531600">
        <ele>15.8</ele>
        <time>2021-05-23T13:01:05Z</time>
      </trkpt>
      <trkpt lat="42.7525440" lon="-8.6531570">
        <ele>15.8</ele>
        <time>2021-05-23T13:01:06Z</time>
      </trkpt>
      <trkpt lat="42.7525560" lon="-8.6531420">
        <ele>15.8</ele>
        <time>2021-05-23T13:01:08Z</time>
      </trkpt>
      <trkpt lat="42.7525730" lon="-8.6531120">
        <ele>15.7</ele>
        <time>2021-05-23T13:01:09Z</time>
      </trkpt>
      <trkpt lat="42.7526030" lon="-8.6531100">
        <ele>15.7</ele>
        <time>2021-05-23T13:01:10Z</time>
      </trkpt>
      <trkpt lat="42.7526130" lon="-8.6531200">
        <ele>15.7</ele>
        <time>2021-05-23T13:01:11Z</time>
      </trkpt>
      <trkpt lat="42.7526270" lon="-8.6531220">
        <ele>15.6</ele>
        <time>2021-05-23T13:01:12Z</time>
      </trkpt>
      <trkpt lat="42.7526410" lon="-8.6531100">
        <ele>15.6</ele>
        <time>2021-05-23T13:01:13Z</time>
      </trkpt>
      <trkpt lat="42.7526500" lon="-8.6531160">
        <ele>15.6</ele>
        <time>2021-05-23T13:01:14Z</time>
      </trkpt>
      <trkpt lat="42.7526700" lon="-8.6531070">
        <ele>15.6</ele>
        <time>2021-05-23T13:01:15Z</time>
      </trkpt>
      <trkpt lat="42.7527020" lon="-8.6531040">
        <ele>15.5</ele>
        <time>2021-05-23T13:01:16Z</time>
      </trkpt>
      <trkpt lat="42.7527090" lon="-8.6531060">
        <ele>15.5</ele>
        <time>2021-05-23T13:01:17Z</time>
      </trkpt>
      <trkpt lat="42.7527230" lon="-8.6531060">
        <ele>15.5</ele>
        <time>2021-05-23T13:01:18Z</time>
      </trkpt>
      <trkpt lat="42.7527400" lon="-8.6531130">
        <ele>15.5</ele>
        <time>2021-05-23T13:01:19Z</time>
      </trkpt>
      <trkpt lat="42.7527480" lon="-8.6531120">
        <ele>15.5</ele>
        <time>2021-05-23T13:01:20Z</time>
      </trkpt>
      <trkpt lat="42.7527600" lon="-8.6531080">
        <ele>15.4</ele>
        <time>2021-05-23T13:01:21Z</time>
      </trkpt>
      <trkpt lat="42.7527750" lon="-8.6531080">
        <ele>15.4</ele>
        <time>2021-05-23T13:01:22Z</time>
      </trkpt>
      <trkpt lat="42.7527940" lon="-8.6531000">
        <ele>15.4</ele>
        <time>2021-05-23T13:01:23Z</time>
      </trkpt>
      <trkpt lat="42.7528090" lon="-8.6530990">
        <ele>15.4</ele>
        <time>2021-05-23T13:01:24Z</time>
      </trkpt>
      <trkpt lat="42.7528260" lon="-8.6531060">
        <ele>15.4</ele>
        <time>2021-05-23T13:01:25Z</time>
      </trkpt>
      <trkpt lat="42.7528400" lon="-8.6530990">
        <ele>15.3</ele>
        <time>2021-05-23T13:01:26Z</time>
      </trkpt>
      <trkpt lat="42.7528560" lon="-8.6530980">
        <ele>15.3</ele>
        <time>2021-05-23T13:01:27Z</time>
      </trkpt>
      <trkpt lat="42.7528710" lon="-8.6530840">
        <ele>15.3</ele>
        <time>2021-05-23T13:01:28Z</time>
      </trkpt>
      <trkpt lat="42.7528860" lon="-8.6530720">
        <ele>15.3</ele>
        <time>2021-05-23T13:01:29Z</time>
      </trkpt>
      <trkpt lat="42.7528990" lon="-8.6530660">
        <ele>15.2</ele>
        <time>2021-05-23T13:01:30Z</time>
      </trkpt>
      <trkpt lat="42.7529110" lon="-8.6530690">
        <ele>15.2</ele>
        <time>2021-05-23T13:01:31Z</time>
      </trkpt>
      <trkpt lat="42.7529290" lon="-8.6530630">
        <ele>15.2</ele>
        <time>2021-05-23T13:01:32Z</time>
      </trkpt>
      <trkpt lat="42.7529410" lon="-8.6530550">
        <ele>15.2</ele>
        <time>2021-05-23T13:01:33Z</time>
      </trkpt>
      <trkpt lat="42.7529540" lon="-8.6530460">
        <ele>15.2</ele>
        <time>2021-05-23T13:01:34Z</time>
      </trkpt>
      <trkpt lat="42.7529760" lon="-8.6530490">
        <ele>15.2</ele>
        <time>2021-05-23T13:01:35Z</time>
      </trkpt>
      <trkpt lat="42.7529850" lon="-8.6530490">
        <ele>15.1</ele>
        <time>2021-05-23T13:01:36Z</time>
      </trkpt>
      <trkpt lat="42.7529950" lon="-8.6530490">
        <ele>15.1</ele>
        <time>2021-05-23T13:01:37Z</time>
      </trkpt>
      <trkpt lat="42.7530230" lon="-8.6530460">
        <ele>15.1</ele>
        <time>2021-05-23T13:01:38Z</time>
      </trkpt>
      <trkpt lat="42.7530360" lon="-8.6530440">
        <ele>15.1</ele>
        <time>2021-05-23T13:01:39Z</time>
      </trkpt>
      <trkpt lat="42.7530620" lon="-8.6530390">
        <ele>15.1</ele>
        <time>2021-05-23T13:01:40Z</time>
      </trkpt>
      <trkpt lat="42.7530720" lon="-8.6530360">
        <ele>15.1</ele>
        <time>2021-05-23T13:01:41Z</time>
      </trkpt>
      <trkpt lat="42.7530890" lon="-8.6530370">
        <ele>15.0</ele>
        <time>2021-05-23T13:01:42Z</time>
      </trkpt>
      <trkpt lat="42.7531060" lon="-8.6530420">
        <ele>15.0</ele>
        <time>2021-05-23T13:01:43Z</time>
      </trkpt>
      <trkpt lat="42.7531230" lon="-8.6530380">
        <ele>15.0</ele>
        <time>2021-05-23T13:01:44Z</time>
      </trkpt>
      <trkpt lat="42.7531370" lon="-8.6530220">
        <ele>15.0</ele>
        <time>2021-05-23T13:01:45Z</time>
      </trkpt>
      <trkpt lat="42.7531570" lon="-8.6530080">
        <ele>15.0</ele>
        <time>2021-05-23T13:01:46Z</time>
      </trkpt>
      <trkpt lat="42.7531730" lon="-8.6530140">
        <ele>15.0</ele>
        <time>2021-05-23T13:01:47Z</time>
      </trkpt>
      <trkpt lat="42.7531910" lon="-8.6530130">
        <ele>15.0</ele>
        <time>2021-05-23T13:01:48Z</time>
      </trkpt>
      <trkpt lat="42.7532050" lon="-8.6530130">
        <ele>15.0</ele>
        <time>2021-05-23T13:01:49Z</time>
      </trkpt>
      <trkpt lat="42.7532240" lon="-8.6530140">
        <ele>15.0</ele>
        <time>2021-05-23T13:01:50Z</time>
      </trkpt>
      <trkpt lat="42.7532400" lon="-8.6530190">
        <ele>15.0</ele>
        <time>2021-05-23T13:01:51Z</time>
      </trkpt>
      <trkpt lat="42.7532560" lon="-8.6530190">
        <ele>15.0</ele>
        <time>2021-05-23T13:01:52Z</time>
      </trkpt>
      <trkpt lat="42.7532750" lon="-8.6530180">
        <ele>15.0</ele>
        <time>2021-05-23T13:01:53Z</time>
      </trkpt>
      <trkpt lat="42.7532910" lon="-8.6530110">
        <ele>15.0</ele>
        <time>2021-05-23T13:01:54Z</time>
      </trkpt>
      <trkpt lat="42.7533050" lon="-8.6529960">
        <ele>15.0</ele>
        <time>2021-05-23T13:01:55Z</time>
      </trkpt>
      <trkpt lat="42.7533190" lon="-8.6529970">
        <ele>15.0</ele>
        <time>2021-05-23T13:01:56Z</time>
      </trkpt>
      <trkpt lat="42.7533320" lon="-8.6529940">
        <ele>15.0</ele>
        <time>2021-05-23T13:01:57Z</time>
      </trkpt>
      <trkpt lat="42.7533500" lon="-8.6529860">
        <ele>15.0</ele>
        <time>2021-05-23T13:01:58Z</time>
      </trkpt>
      <trkpt lat="42.7533650" lon="-8.6529760">
        <ele>15.0</ele>
        <time>2021-05-23T13:01:59Z</time>
      </trkpt>
      <trkpt lat="42.7533810" lon="-8.6529720">
        <ele>15.0</ele>
        <time>2021-05-23T13:02:00Z</time>
      </trkpt>
      <trkpt lat="42.7533950" lon="-8.6529650">
        <ele>15.0</ele>
        <time>2021-05-23T13:02:01Z</time>
      </trkpt>
      <trkpt lat="42.7534090" lon="-8.6529540">
        <ele>15.0</ele>
        <time>2021-05-23T13:02:02Z</time>
      </trkpt>
      <trkpt lat="42.7534270" lon="-8.6529480">
        <ele>15.0</ele>
        <time>2021-05-23T13:02:03Z</time>
      </trkpt>
      <trkpt lat="42.7534380" lon="-8.6529430">
        <ele>15.0</ele>
        <time>2021-05-23T13:02:04Z</time>
      </trkpt>
      <trkpt lat="42.7534570" lon="-8.6529380">
        <ele>15.0</ele>
        <time>2021-05-23T13:02:05Z</time>
      </trkpt>
      <trkpt lat="42.7534690" lon="-8.6529370">
        <ele>15.0</ele>
        <time>2021-05-23T13:02:06Z</time>
      </trkpt>
      <trkpt lat="42.7534850" lon="-8.6529320">
        <ele>15.0</ele>
        <time>2021-05-23T13:02:07Z</time>
      </trkpt>
      <trkpt lat="42.7535010" lon="-8.6529260">
        <ele>15.0</ele>
        <time>2021-05-23T13:02:08Z</time>
      </trkpt>
      <trkpt lat="42.7535110" lon="-8.6529190">
        <ele>15.0</ele>
        <time>2021-05-23T13:02:09Z</time>
      </trkpt>
      <trkpt lat="42.7535250" lon="-8.6528990">
        <ele>15.0</ele>
        <time>2021-05-23T13:02:10Z</time>
      </trkpt>
      <trkpt lat="42.7535380" lon="-8.6528940">
        <ele>15.0</ele>
        <time>2021-05-23T13:02:11Z</time>
      </trkpt>
      <trkpt lat="42.7535530" lon="-8.6528870">
        <ele>15.0</ele>
        <time>2021-05-23T13:02:12Z</time>
      </trkpt>
      <trkpt lat="42.7535690" lon="-8.6528850">
        <ele>15.0</ele>
        <time>2021-05-23T13:02:13Z</time>
      </trkpt>
      <trkpt lat="42.7535840" lon="-8.6528790">
        <ele>15.0</ele>
        <time>2021-05-23T13:02:14Z</time>
      </trkpt>
      <trkpt lat="42.7535980" lon="-8.6528730">
        <ele>15.1</ele>
        <time>2021-05-23T13:02:15Z</time>
      </trkpt>
      <trkpt lat="42.7536120" lon="-8.6528620">
        <ele>15.1</ele>
        <time>2021-05-23T13:02:16Z</time>
      </trkpt>
      <trkpt lat="42.7536250" lon="-8.6528530">
        <ele>15.1</ele>
        <time>2021-05-23T13:02:17Z</time>
      </trkpt>
      <trkpt lat="42.7536460" lon="-8.6528430">
        <ele>15.1</ele>
        <time>2021-05-23T13:02:18Z</time>
      </trkpt>
      <trkpt lat="42.7536600" lon="-8.6528410">
        <ele>15.1</ele>
        <time>2021-05-23T13:02:19Z</time>
      </trkpt>
      <trkpt lat="42.7536780" lon="-8.6528340">
        <ele>15.1</ele>
        <time>2021-05-23T13:02:20Z</time>
      </trkpt>
      <trkpt lat="42.7536920" lon="-8.6528340">
        <ele>15.1</ele>
        <time>2021-05-23T13:02:21Z</time>
      </trkpt>
      <trkpt lat="42.7537230" lon="-8.6528250">
        <ele>15.1</ele>
        <time>2021-05-23T13:02:22Z</time>
      </trkpt>
      <trkpt lat="42.7537320" lon="-8.6528260">
        <ele>15.2</ele>
        <time>2021-05-23T13:02:23Z</time>
      </trkpt>
      <trkpt lat="42.7537450" lon="-8.6528250">
        <ele>15.2</ele>
        <time>2021-05-23T13:02:24Z</time>
      </trkpt>
      <trkpt lat="42.7537600" lon="-8.6528080">
        <ele>15.2</ele>
        <time>2021-05-23T13:02:25Z</time>
      </trkpt>
      <trkpt lat="42.7537690" lon="-8.6528020">
        <ele>15.2</ele>
        <time>2021-05-23T13:02:26Z</time>
      </trkpt>
      <trkpt lat="42.7537870" lon="-8.6527950">
        <ele>15.2</ele>
        <time>2021-05-23T13:02:27Z</time>
      </trkpt>
      <trkpt lat="42.7538040" lon="-8.6527940">
        <ele>15.2</ele>
        <time>2021-05-23T13:02:28Z</time>
      </trkpt>
      <trkpt lat="42.7538210" lon="-8.6527910">
        <ele>15.2</ele>
        <time>2021-05-23T13:02:29Z</time>
      </trkpt>
      <trkpt lat="42.7538370" lon="-8.6527910">
        <ele>15.2</ele>
        <time>2021-05-23T13:02:30Z</time>
      </trkpt>
      <trkpt lat="42.7538510" lon="-8.6527800">
        <ele>15.2</ele>
        <time>2021-05-23T13:02:31Z</time>
      </trkpt>
      <trkpt lat="42.7538680" lon="-8.6527710">
        <ele>15.2</ele>
        <time>2021-05-23T13:02:32Z</time>
      </trkpt>
      <trkpt lat="42.7538800" lon="-8.6527590">
        <ele>15.3</ele>
        <time>2021-05-23T13:02:33Z</time>
      </trkpt>
      <trkpt lat="42.7538940" lon="-8.6527470">
        <ele>15.3</ele>
        <time>2021-05-23T13:02:34Z</time>
      </trkpt>
      <trkpt lat="42.7539050" lon="-8.6527330">
        <ele>15.3</ele>
        <time>2021-05-23T13:02:35Z</time>
      </trkpt>
      <trkpt lat="42.7539320" lon="-8.6527240">
        <ele>15.3</ele>
        <time>2021-05-23T13:02:36Z</time>
      </trkpt>
      <trkpt lat="42.7539400" lon="-8.6527200">
        <ele>15.3</ele>
        <time>2021-05-23T13:02:37Z</time>
      </trkpt>
      <trkpt lat="42.7539700" lon="-8.6527010">
        <ele>15.3</ele>
        <time>2021-05-23T13:02:38Z</time>
      </trkpt>
      <trkpt lat="42.7539840" lon="-8.6526900">
        <ele>15.3</ele>
        <time>2021-05-23T13:02:39Z</time>
      </trkpt>
      <trkpt lat="42.7539980" lon="-8.6526780">
        <ele>15.3</ele>
        <time>2021-05-23T13:02:40Z</time>
      </trkpt>
      <trkpt lat="42.7540240" lon="-8.6526700">
        <ele>15.4</ele>
        <time>2021-05-23T13:02:41Z</time>
      </trkpt>
      <trkpt lat="42.7540340" lon="-8.6526670">
        <ele>15.4</ele>
        <time>2021-05-23T13:02:42Z</time>
      </trkpt>
      <trkpt lat="42.7540520" lon="-8.6526660">
        <ele>15.4</ele>
        <time>2021-05-23T13:02:43Z</time>
      </trkpt>
      <trkpt lat="42.7540660" lon="-8.6526520">
        <ele>15.4</ele>
        <time>2021-05-23T13:02:44Z</time>
      </trkpt>
      <trkpt lat="42.7540790" lon="-8.6526470">
        <ele>15.4</ele>
        <time>2021-05-23T13:02:45Z</time>
      </trkpt>
      <trkpt lat="42.7540950" lon="-8.6526450">
        <ele>15.4</ele>
        <time>2021-05-23T13:02:46Z</time>
      </trkpt>
      <trkpt lat="42.7541230" lon="-8.6526440">
        <ele>15.5</ele>
        <time>2021-05-23T13:02:47Z</time>
      </trkpt>
      <trkpt lat="42.7541360" lon="-8.6526470">
        <ele>15.5</ele>
        <time>2021-05-23T13:02:49Z</time>
      </trkpt>
      <trkpt lat="42.7541480" lon="-8.6526490">
        <ele>15.5</ele>
        <time>2021-05-23T13:02:50Z</time>
      </trkpt>
      <trkpt lat="42.7541600" lon="-8.6526470">
        <ele>15.5</ele>
        <time>2021-05-23T13:02:51Z</time>
      </trkpt>
      <trkpt lat="42.7541750" lon="-8.6526520">
        <ele>15.5</ele>
        <time>2021-05-23T13:02:52Z</time>
      </trkpt>
      <trkpt lat="42.7541900" lon="-8.6526450">
        <ele>15.5</ele>
        <time>2021-05-23T13:02:53Z</time>
      </trkpt>
      <trkpt lat="42.7542040" lon="-8.6526560">
        <ele>15.6</ele>
        <time>2021-05-23T13:02:54Z</time>
      </trkpt>
      <trkpt lat="42.7542190" lon="-8.6526480">
        <ele>15.6</ele>
        <time>2021-05-23T13:02:55Z</time>
      </trkpt>
      <trkpt lat="42.7542340" lon="-8.6526460">
        <ele>15.6</ele>
        <time>2021-05-23T13:02:56Z</time>
      </trkpt>
      <trkpt lat="42.7542470" lon="-8.6526430">
        <ele>15.6</ele>
        <time>2021-05-23T13:02:57Z</time>
      </trkpt>
      <trkpt lat="42.7542580" lon="-8.6526420">
        <ele>15.6</ele>
        <time>2021-05-23T13:02:58Z</time>
      </trkpt>
      <trkpt lat="42.7542570" lon="-8.6526490">
        <ele>15.6</ele>
        <time>2021-05-23T13:02:59Z</time>
      </trkpt>
      <trkpt lat="42.7542550" lon="-8.6526520">
        <ele>15.6</ele>
        <time>2021-05-23T13:03:00Z</time>
      </trkpt>
      <trkpt lat="42.7542580" lon="-8.6526500">
        <ele>15.6</ele>
        <time>2021-05-23T13:03:01Z</time>
      </trkpt>
      <trkpt lat="42.7542710" lon="-8.6526440">
        <ele>15.6</ele>
        <time>2021-05-23T13:03:02Z</time>
      </trkpt>
      <trkpt lat="42.7542810" lon="-8.6526340">
        <ele>15.7</ele>
        <time>2021-05-23T13:03:03Z</time>
      </trkpt>
      <trkpt lat="42.7542930" lon="-8.6526260">
        <ele>15.7</ele>
        <time>2021-05-23T13:03:04Z</time>
      </trkpt>
      <trkpt lat="42.7543030" lon="-8.6526090">
        <ele>15.7</ele>
        <time>2021-05-23T13:03:05Z</time>
      </trkpt>
      <trkpt lat="42.7543160" lon="-8.6526080">
        <ele>15.7</ele>
        <time>2021-05-23T13:03:06Z</time>
      </trkpt>
      <trkpt lat="42.7543310" lon="-8.6526000">
        <ele>15.7</ele>
        <time>2021-05-23T13:03:07Z</time>
      </trkpt>
      <trkpt lat="42.7543400" lon="-8.6525900">
        <ele>15.7</ele>
        <time>2021-05-23T13:03:08Z</time>
      </trkpt>
      <trkpt lat="42.7543550" lon="-8.6525830">
        <ele>15.8</ele>
        <time>2021-05-23T13:03:09Z</time>
      </trkpt>
      <trkpt lat="42.7543700" lon="-8.6525740">
        <ele>15.8</ele>
        <time>2021-05-23T13:03:11Z</time>
      </trkpt>
      <trkpt lat="42.7543830" lon="-8.6525680">
        <ele>15.8</ele>
        <time>2021-05-23T13:03:12Z</time>
      </trkpt>
      <trkpt lat="42.7543950" lon="-8.6525590">
        <ele>15.8</ele>
        <time>2021-05-23T13:03:13Z</time>
      </trkpt>
      <trkpt lat="42.7544110" lon="-8.6525490">
        <ele>15.8</ele>
        <time>2021-05-23T13:03:14Z</time>
      </trkpt>
      <trkpt lat="42.7544230" lon="-8.6525450">
        <ele>15.9</ele>
        <time>2021-05-23T13:03:15Z</time>
      </trkpt>
      <trkpt lat="42.7544370" lon="-8.6525430">
        <ele>15.9</ele>
        <time>2021-05-23T13:03:16Z</time>
      </trkpt>
      <trkpt lat="42.7544500" lon="-8.6525370">
        <ele>15.9</ele>
        <time>2021-05-23T13:03:17Z</time>
      </trkpt>
      <trkpt lat="42.7544630" lon="-8.6525250">
        <ele>15.9</ele>
        <time>2021-05-23T13:03:18Z</time>
      </trkpt>
      <trkpt lat="42.7544700" lon="-8.6525220">
        <ele>15.9</ele>
        <time>2021-05-23T13:03:19Z</time>
      </trkpt>
      <trkpt lat="42.7544800" lon="-8.6525210">
        <ele>15.9</ele>
        <time>2021-05-23T13:03:20Z</time>
      </trkpt>
      <trkpt lat="42.7544950" lon="-8.6525190">
        <ele>16.0</ele>
        <time>2021-05-23T13:03:21Z</time>
      </trkpt>
      <trkpt lat="42.7545070" lon="-8.6525130">
        <ele>16.0</ele>
        <time>2021-05-23T13:03:22Z</time>
      </trkpt>
      <trkpt lat="42.7545250" lon="-8.6525120">
        <ele>16.0</ele>
        <time>2021-05-23T13:03:23Z</time>
      </trkpt>
      <trkpt lat="42.7545300" lon="-8.6525140">
        <ele>16.0</ele>
        <time>2021-05-23T13:03:24Z</time>
      </trkpt>
      <trkpt lat="42.7545410" lon="-8.6525090">
        <ele>16.0</ele>
        <time>2021-05-23T13:03:25Z</time>
      </trkpt>
      <trkpt lat="42.7545550" lon="-8.6524990">
        <ele>16.0</ele>
        <time>2021-05-23T13:03:26Z</time>
      </trkpt>
      <trkpt lat="42.7545770" lon="-8.6524950">
        <ele>16.1</ele>
        <time>2021-05-23T13:03:27Z</time>
      </trkpt>
      <trkpt lat="42.7545880" lon="-8.6524870">
        <ele>16.1</ele>
        <time>2021-05-23T13:03:28Z</time>
      </trkpt>
      <trkpt lat="42.7546030" lon="-8.6524770">
        <ele>16.1</ele>
        <time>2021-05-23T13:03:29Z</time>
      </trkpt>
      <trkpt lat="42.7546160" lon="-8.6524610">
        <ele>16.1</ele>
        <time>2021-05-23T13:03:30Z</time>
      </trkpt>
      <trkpt lat="42.7546330" lon="-8.6524570">
        <ele>16.2</ele>
        <time>2021-05-23T13:03:31Z</time>
      </trkpt>
      <trkpt lat="42.7546470" lon="-8.6524470">
        <ele>16.2</ele>
        <time>2021-05-23T13:03:32Z</time>
      </trkpt>
      <trkpt lat="42.7546750" lon="-8.6524380">
        <ele>16.3</ele>
        <time>2021-05-23T13:03:33Z</time>
      </trkpt>
      <trkpt lat="42.7546830" lon="-8.6524340">
        <ele>16.3</ele>
        <time>2021-05-23T13:03:34Z</time>
      </trkpt>
      <trkpt lat="42.7547080" lon="-8.6524140">
        <ele>16.4</ele>
        <time>2021-05-23T13:03:35Z</time>
      </trkpt>
      <trkpt lat="42.7547160" lon="-8.6524080">
        <ele>16.4</ele>
        <time>2021-05-23T13:03:36Z</time>
      </trkpt>
      <trkpt lat="42.7547270" lon="-8.6523950">
        <ele>16.4</ele>
        <time>2021-05-23T13:03:37Z</time>
      </trkpt>
      <trkpt lat="42.7547450" lon="-8.6523810">
        <ele>16.5</ele>
        <time>2021-05-23T13:03:38Z</time>
      </trkpt>
      <trkpt lat="42.7547570" lon="-8.6523690">
        <ele>16.5</ele>
        <time>2021-05-23T13:03:39Z</time>
      </trkpt>
      <trkpt lat="42.7547680" lon="-8.6523610">
        <ele>16.5</ele>
        <time>2021-05-23T13:03:40Z</time>
      </trkpt>
      <trkpt lat="42.7547760" lon="-8.6523510">
        <ele>16.6</ele>
        <time>2021-05-23T13:03:41Z</time>
      </trkpt>
      <trkpt lat="42.7547860" lon="-8.6523500">
        <ele>16.6</ele>
        <time>2021-05-23T13:03:42Z</time>
      </trkpt>
      <trkpt lat="42.7547990" lon="-8.6523380">
        <ele>16.6</ele>
        <time>2021-05-23T13:03:43Z</time>
      </trkpt>
      <trkpt lat="42.7548120" lon="-8.6523350">
        <ele>16.7</ele>
        <time>2021-05-23T13:03:44Z</time>
      </trkpt>
      <trkpt lat="42.7548250" lon="-8.6523250">
        <ele>16.7</ele>
        <time>2021-05-23T13:03:45Z</time>
      </trkpt>
      <trkpt lat="42.7548410" lon="-8.6523180">
        <ele>16.7</ele>
        <time>2021-05-23T13:03:46Z</time>
      </trkpt>
      <trkpt lat="42.7548570" lon="-8.6523110">
        <ele>16.8</ele>
        <time>2021-05-23T13:03:47Z</time>
      </trkpt>
      <trkpt lat="42.7548590" lon="-8.6523070">
        <ele>16.8</ele>
        <time>2021-05-23T13:03:48Z</time>
      </trkpt>
      <trkpt lat="42.7548720" lon="-8.6523020">
        <ele>16.8</ele>
        <time>2021-05-23T13:03:49Z</time>
      </trkpt>
      <trkpt lat="42.7548830" lon="-8.6522850">
        <ele>16.9</ele>
        <time>2021-05-23T13:03:50Z</time>
      </trkpt>
      <trkpt lat="42.7548930" lon="-8.6522730">
        <ele>16.9</ele>
        <time>2021-05-23T13:03:51Z</time>
      </trkpt>
      <trkpt lat="42.7549020" lon="-8.6522700">
        <ele>16.9</ele>
        <time>2021-05-23T13:03:52Z</time>
      </trkpt>
      <trkpt lat="42.7549110" lon="-8.6522700">
        <ele>16.9</ele>
        <time>2021-05-23T13:03:53Z</time>
      </trkpt>
      <trkpt lat="42.7549290" lon="-8.6522620">
        <ele>17.0</ele>
        <time>2021-05-23T13:03:54Z</time>
      </trkpt>
      <trkpt lat="42.7549370" lon="-8.6522550">
        <ele>17.0</ele>
        <time>2021-05-23T13:03:55Z</time>
      </trkpt>
      <trkpt lat="42.7549550" lon="-8.6522480">
        <ele>17.1</ele>
        <time>2021-05-23T13:03:56Z</time>
      </trkpt>
      <trkpt lat="42.7549620" lon="-8.6522430">
        <ele>17.1</ele>
        <time>2021-05-23T13:03:57Z</time>
      </trkpt>
      <trkpt lat="42.7549680" lon="-8.6522370">
        <ele>17.1</ele>
        <time>2021-05-23T13:03:58Z</time>
      </trkpt>
      <trkpt lat="42.7549740" lon="-8.6522320">
        <ele>17.1</ele>
        <time>2021-05-23T13:03:59Z</time>
      </trkpt>
      <trkpt lat="42.7549890" lon="-8.6522250">
        <ele>17.2</ele>
        <time>2021-05-23T13:04:00Z</time>
      </trkpt>
      <trkpt lat="42.7549990" lon="-8.6522160">
        <ele>17.2</ele>
        <time>2021-05-23T13:04:01Z</time>
      </trkpt>
      <trkpt lat="42.7550130" lon="-8.6522030">
        <ele>17.2</ele>
        <time>2021-05-23T13:04:02Z</time>
      </trkpt>
      <trkpt lat="42.7550230" lon="-8.6522010">
        <ele>17.3</ele>
        <time>2021-05-23T13:04:03Z</time>
      </trkpt>
      <trkpt lat="42.7550320" lon="-8.6521980">
        <ele>17.3</ele>
        <time>2021-05-23T13:04:04Z</time>
      </trkpt>
      <trkpt lat="42.7550420" lon="-8.6521960">
        <ele>17.3</ele>
        <time>2021-05-23T13:04:05Z</time>
      </trkpt>
      <trkpt lat="42.7550540" lon="-8.6521970">
        <ele>17.3</ele>
        <time>2021-05-23T13:04:06Z</time>
      </trkpt>
      <trkpt lat="42.7550690" lon="-8.6521880">
        <ele>17.4</ele>
        <time>2021-05-23T13:04:07Z</time>
      </trkpt>
      <trkpt lat="42.7550890" lon="-8.6521830">
        <ele>17.4</ele>
        <time>2021-05-23T13:04:08Z</time>
      </trkpt>
      <trkpt lat="42.7550980" lon="-8.6521810">
        <ele>17.4</ele>
        <time>2021-05-23T13:04:09Z</time>
      </trkpt>
      <trkpt lat="42.7551070" lon="-8.6521800">
        <ele>17.4</ele>
        <time>2021-05-23T13:04:10Z</time>
      </trkpt>
      <trkpt lat="42.7551160" lon="-8.6521770">
        <ele>17.5</ele>
        <time>2021-05-23T13:04:11Z</time>
      </trkpt>
      <trkpt lat="42.7551350" lon="-8.6521770">
        <ele>17.5</ele>
        <time>2021-05-23T13:04:12Z</time>
      </trkpt>
      <trkpt lat="42.7551360" lon="-8.6521720">
        <ele>17.5</ele>
        <time>2021-05-23T13:04:13Z</time>
      </trkpt>
      <trkpt lat="42.7551560" lon="-8.6521730">
        <ele>17.6</ele>
        <time>2021-05-23T13:04:14Z</time>
      </trkpt>
      <trkpt lat="42.7551710" lon="-8.6521750">
        <ele>17.6</ele>
        <time>2021-05-23T13:04:15Z</time>
      </trkpt>
      <trkpt lat="42.7551810" lon="-8.6521690">
        <ele>17.6</ele>
        <time>2021-05-23T13:04:16Z</time>
      </trkpt>
      <trkpt lat="42.7551890" lon="-8.6521690">
        <ele>17.6</ele>
        <time>2021-05-23T13:04:17Z</time>
      </trkpt>
      <trkpt lat="42.7552010" lon="-8.6521620">
        <ele>17.7</ele>
        <time>2021-05-23T13:04:18Z</time>
      </trkpt>
      <trkpt lat="42.7552160" lon="-8.6521560">
        <ele>17.7</ele>
        <time>2021-05-23T13:04:19Z</time>
      </trkpt>
      <trkpt lat="42.7552280" lon="-8.6521560">
        <ele>17.8</ele>
        <time>2021-05-23T13:04:20Z</time>
      </trkpt>
      <trkpt lat="42.7552480" lon="-8.6521460">
        <ele>17.8</ele>
        <time>2021-05-23T13:04:21Z</time>
      </trkpt>
      <trkpt lat="42.7552590" lon="-8.6521410">
        <ele>17.9</ele>
        <time>2021-05-23T13:04:22Z</time>
      </trkpt>
      <trkpt lat="42.7552690" lon="-8.6521370">
        <ele>17.9</ele>
        <time>2021-05-23T13:04:23Z</time>
      </trkpt>
      <trkpt lat="42.7552740" lon="-8.6521350">
        <ele>17.9</ele>
        <time>2021-05-23T13:04:24Z</time>
      </trkpt>
      <trkpt lat="42.7552920" lon="-8.6521300">
        <ele>18.0</ele>
        <time>2021-05-23T13:04:25Z</time>
      </trkpt>
      <trkpt lat="42.7552970" lon="-8.6521250">
        <ele>18.0</ele>
        <time>2021-05-23T13:04:26Z</time>
      </trkpt>
      <trkpt lat="42.7553190" lon="-8.6521200">
        <ele>18.1</ele>
        <time>2021-05-23T13:04:27Z</time>
      </trkpt>
      <trkpt lat="42.7553280" lon="-8.6521160">
        <ele>18.1</ele>
        <time>2021-05-23T13:04:28Z</time>
      </trkpt>
      <trkpt lat="42.7553360" lon="-8.6521130">
        <ele>18.2</ele>
        <time>2021-05-23T13:04:29Z</time>
      </trkpt>
      <trkpt lat="42.7553470" lon="-8.6521120">
        <ele>18.2</ele>
        <time>2021-05-23T13:04:30Z</time>
      </trkpt>
      <trkpt lat="42.7553640" lon="-8.6521080">
        <ele>18.3</ele>
        <time>2021-05-23T13:04:31Z</time>
      </trkpt>
      <trkpt lat="42.7553820" lon="-8.6521080">
        <ele>18.3</ele>
        <time>2021-05-23T13:04:32Z</time>
      </trkpt>
      <trkpt lat="42.7553980" lon="-8.6521070">
        <ele>18.4</ele>
        <time>2021-05-23T13:04:33Z</time>
      </trkpt>
      <trkpt lat="42.7554120" lon="-8.6520970">
        <ele>18.4</ele>
        <time>2021-05-23T13:04:34Z</time>
      </trkpt>
      <trkpt lat="42.7554260" lon="-8.6520920">
        <ele>18.5</ele>
        <time>2021-05-23T13:04:35Z</time>
      </trkpt>
      <trkpt lat="42.7554430" lon="-8.6520880">
        <ele>18.6</ele>
        <time>2021-05-23T13:04:36Z</time>
      </trkpt>
      <trkpt lat="42.7554580" lon="-8.6520870">
        <ele>18.6</ele>
        <time>2021-05-23T13:04:37Z</time>
      </trkpt>
      <trkpt lat="42.7554720" lon="-8.6520770">
        <ele>18.7</ele>
        <time>2021-05-23T13:04:38Z</time>
      </trkpt>
      <trkpt lat="42.7554840" lon="-8.6520760">
        <ele>18.7</ele>
        <time>2021-05-23T13:04:39Z</time>
      </trkpt>
      <trkpt lat="42.7554990" lon="-8.6520740">
        <ele>18.8</ele>
        <time>2021-05-23T13:04:40Z</time>
      </trkpt>
      <trkpt lat="42.7555130" lon="-8.6520740">
        <ele>18.8</ele>
        <time>2021-05-23T13:04:41Z</time>
      </trkpt>
      <trkpt lat="42.7555290" lon="-8.6520730">
        <ele>18.9</ele>
        <time>2021-05-23T13:04:42Z</time>
      </trkpt>
      <trkpt lat="42.7555430" lon="-8.6520690">
        <ele>18.9</ele>
        <time>2021-05-23T13:04:43Z</time>
      </trkpt>
      <trkpt lat="42.7555740" lon="-8.6520700">
        <ele>19.0</ele>
        <time>2021-05-23T13:04:44Z</time>
      </trkpt>
      <trkpt lat="42.7555880" lon="-8.6520670">
        <ele>19.1</ele>
        <time>2021-05-23T13:04:45Z</time>
      </trkpt>
      <trkpt lat="42.7556020" lon="-8.6520570">
        <ele>19.2</ele>
        <time>2021-05-23T13:04:46Z</time>
      </trkpt>
      <trkpt lat="42.7556150" lon="-8.6520480">
        <ele>19.2</ele>
        <time>2021-05-23T13:04:47Z</time>
      </trkpt>
      <trkpt lat="42.7556280" lon="-8.6520430">
        <ele>19.3</ele>
        <time>2021-05-23T13:04:48Z</time>
      </trkpt>
      <trkpt lat="42.7556420" lon="-8.6520420">
        <ele>19.3</ele>
        <time>2021-05-23T13:04:49Z</time>
      </trkpt>
      <trkpt lat="42.7556540" lon="-8.6520340">
        <ele>19.4</ele>
        <time>2021-05-23T13:04:50Z</time>
      </trkpt>
      <trkpt lat="42.7556720" lon="-8.6520410">
        <ele>19.4</ele>
        <time>2021-05-23T13:04:51Z</time>
      </trkpt>
      <trkpt lat="42.7556820" lon="-8.6520410">
        <ele>19.5</ele>
        <time>2021-05-23T13:04:52Z</time>
      </trkpt>
      <trkpt lat="42.7556960" lon="-8.6520400">
        <ele>19.5</ele>
        <time>2021-05-23T13:04:53Z</time>
      </trkpt>
      <trkpt lat="42.7557090" lon="-8.6520330">
        <ele>19.6</ele>
        <time>2021-05-23T13:04:54Z</time>
      </trkpt>
      <trkpt lat="42.7557180" lon="-8.6520290">
        <ele>19.6</ele>
        <time>2021-05-23T13:04:55Z</time>
      </trkpt>
      <trkpt lat="42.7557310" lon="-8.6520300">
        <ele>19.6</ele>
        <time>2021-05-23T13:04:56Z</time>
      </trkpt>
      <trkpt lat="42.7557400" lon="-8.6520240">
        <ele>19.7</ele>
        <time>2021-05-23T13:04:57Z</time>
      </trkpt>
      <trkpt lat="42.7557600" lon="-8.6520260">
        <ele>19.7</ele>
        <time>2021-05-23T13:04:58Z</time>
      </trkpt>
      <trkpt lat="42.7557690" lon="-8.6520240">
        <ele>19.8</ele>
        <time>2021-05-23T13:04:59Z</time>
      </trkpt>
      <trkpt lat="42.7557770" lon="-8.6520220">
        <ele>19.8</ele>
        <time>2021-05-23T13:05:00Z</time>
      </trkpt>
      <trkpt lat="42.7557930" lon="-8.6520210">
        <ele>19.8</ele>
        <time>2021-05-23T13:05:01Z</time>
      </trkpt>
      <trkpt lat="42.7557990" lon="-8.6520230">
        <ele>19.9</ele>
        <time>2021-05-23T13:05:02Z</time>
      </trkpt>
      <trkpt lat="42.7558060" lon="-8.6520260">
        <ele>19.9</ele>
        <time>2021-05-23T13:05:03Z</time>
      </trkpt>
      <trkpt lat="42.7558130" lon="-8.6520280">
        <ele>19.9</ele>
        <time>2021-05-23T13:05:05Z</time>
      </trkpt>
      <trkpt lat="42.7558190" lon="-8.6520310">
        <ele>19.9</ele>
        <time>2021-05-23T13:05:06Z</time>
      </trkpt>
      <trkpt lat="42.7558260" lon="-8.6520340">
        <ele>20.0</ele>
        <time>2021-05-23T13:05:07Z</time>
      </trkpt>
      <trkpt lat="42.7558320" lon="-8.6520360">
        <ele>20.0</ele>
        <time>2021-05-23T13:05:08Z</time>
      </trkpt>
      <trkpt lat="42.7558390" lon="-8.6520390">
        <ele>20.0</ele>
        <time>2021-05-23T13:05:09Z</time>
      </trkpt>
      <trkpt lat="42.7558480" lon="-8.6520440">
        <ele>20.0</ele>
        <time>2021-05-23T13:05:10Z</time>
      </trkpt>
      <trkpt lat="42.7558550" lon="-8.6520590">
        <ele>20.1</ele>
        <time>2021-05-23T13:05:11Z</time>
      </trkpt>
      <trkpt lat="42.7558630" lon="-8.6520690">
        <ele>20.1</ele>
        <time>2021-05-23T13:05:12Z</time>
      </trkpt>
      <trkpt lat="42.7558730" lon="-8.6520770">
        <ele>20.2</ele>
        <time>2021-05-23T13:05:13Z</time>
      </trkpt>
      <trkpt lat="42.7558820" lon="-8.6520890">
        <ele>20.2</ele>
        <time>2021-05-23T13:05:14Z</time>
      </trkpt>
      <trkpt lat="42.7558880" lon="-8.6521000">
        <ele>20.3</ele>
        <time>2021-05-23T13:05:15Z</time>
      </trkpt>
      <trkpt lat="42.7559050" lon="-8.6521210">
        <ele>20.3</ele>
        <time>2021-05-23T13:05:16Z</time>
      </trkpt>
      <trkpt lat="42.7559120" lon="-8.6521260">
        <ele>20.3</ele>
        <time>2021-05-23T13:05:17Z</time>
      </trkpt>
      <trkpt lat="42.7559200" lon="-8.6521310">
        <ele>20.3</ele>
        <time>2021-05-23T13:05:18Z</time>
      </trkpt>
      <trkpt lat="42.7559370" lon="-8.6521480">
        <ele>20.3</ele>
        <time>2021-05-23T13:05:19Z</time>
      </trkpt>
      <trkpt lat="42.7559440" lon="-8.6521530">
        <ele>20.3</ele>
        <time>2021-05-23T13:05:20Z</time>
      </trkpt>
      <trkpt lat="42.7559500" lon="-8.6521590">
        <ele>20.3</ele>
        <time>2021-05-23T13:05:21Z</time>
      </trkpt>
      <trkpt lat="42.7559640" lon="-8.6521640">
        <ele>20.4</ele>
        <time>2021-05-23T13:05:22Z</time>
      </trkpt>
      <trkpt lat="42.7559700" lon="-8.6521660">
        <ele>20.4</ele>
        <time>2021-05-23T13:05:23Z</time>
      </trkpt>
      <trkpt lat="42.7559850" lon="-8.6521660">
        <ele>20.4</ele>
        <time>2021-05-23T13:05:24Z</time>
      </trkpt>
      <trkpt lat="42.7560000" lon="-8.6521630">
        <ele>20.4</ele>
        <time>2021-05-23T13:05:25Z</time>
      </trkpt>
      <trkpt lat="42.7560190" lon="-8.6521610">
        <ele>20.4</ele>
        <time>2021-05-23T13:05:26Z</time>
      </trkpt>
      <trkpt lat="42.7560270" lon="-8.6521580">
        <ele>20.4</ele>
        <time>2021-05-23T13:05:27Z</time>
      </trkpt>
      <trkpt lat="42.7560370" lon="-8.6521550">
        <ele>20.4</ele>
        <time>2021-05-23T13:05:28Z</time>
      </trkpt>
      <trkpt lat="42.7560470" lon="-8.6521550">
        <ele>20.4</ele>
        <time>2021-05-23T13:05:29Z</time>
      </trkpt>
      <trkpt lat="42.7560570" lon="-8.6521540">
        <ele>20.5</ele>
        <time>2021-05-23T13:05:30Z</time>
      </trkpt>
      <trkpt lat="42.7560700" lon="-8.6521500">
        <ele>20.5</ele>
        <time>2021-05-23T13:05:31Z</time>
      </trkpt>
      <trkpt lat="42.7560830" lon="-8.6521510">
        <ele>20.5</ele>
        <time>2021-05-23T13:05:32Z</time>
      </trkpt>
      <trkpt lat="42.7561000" lon="-8.6521490">
        <ele>20.5</ele>
        <time>2021-05-23T13:05:33Z</time>
      </trkpt>
      <trkpt lat="42.7561100" lon="-8.6521460">
        <ele>20.5</ele>
        <time>2021-05-23T13:05:34Z</time>
      </trkpt>
      <trkpt lat="42.7561200" lon="-8.6521440">
        <ele>20.5</ele>
        <time>2021-05-23T13:05:35Z</time>
      </trkpt>
      <trkpt lat="42.7561350" lon="-8.6521350">
        <ele>20.5</ele>
        <time>2021-05-23T13:05:36Z</time>
      </trkpt>
      <trkpt lat="42.7561460" lon="-8.6521300">
        <ele>20.5</ele>
        <time>2021-05-23T13:05:37Z</time>
      </trkpt>
      <trkpt lat="42.7561660" lon="-8.6521210">
        <ele>20.6</ele>
        <time>2021-05-23T13:05:38Z</time>
      </trkpt>
      <trkpt lat="42.7561760" lon="-8.6521220">
        <ele>20.6</ele>
        <time>2021-05-23T13:05:39Z</time>
      </trkpt>
      <trkpt lat="42.7561850" lon="-8.6521230">
        <ele>20.6</ele>
        <time>2021-05-23T13:05:40Z</time>
      </trkpt>
      <trkpt lat="42.7561990" lon="-8.6521200">
        <ele>20.6</ele>
        <time>2021-05-23T13:05:41Z</time>
      </trkpt>
      <trkpt lat="42.7562120" lon="-8.6521130">
        <ele>20.6</ele>
        <time>2021-05-23T13:05:42Z</time>
      </trkpt>
      <trkpt lat="42.7562230" lon="-8.6521090">
        <ele>20.6</ele>
        <time>2021-05-23T13:05:43Z</time>
      </trkpt>
      <trkpt lat="42.7562390" lon="-8.6521020">
        <ele>20.6</ele>
        <time>2021-05-23T13:05:44Z</time>
      </trkpt>
      <trkpt lat="42.7562510" lon="-8.6521030">
        <ele>20.6</ele>
        <time>2021-05-23T13:05:45Z</time>
      </trkpt>
      <trkpt lat="42.7562730" lon="-8.6520900">
        <ele>20.6</ele>
        <time>2021-05-23T13:05:46Z</time>
      </trkpt>
      <trkpt lat="42.7562900" lon="-8.6520830">
        <ele>20.6</ele>
        <time>2021-05-23T13:05:47Z</time>
      </trkpt>
      <trkpt lat="42.7562990" lon="-8.6520800">
        <ele>20.7</ele>
        <time>2021-05-23T13:05:48Z</time>
      </trkpt>
      <trkpt lat="42.7563090" lon="-8.6520760">
        <ele>20.7</ele>
        <time>2021-05-23T13:05:49Z</time>
      </trkpt>
      <trkpt lat="42.7563300" lon="-8.6520620">
        <ele>20.8</ele>
        <time>2021-05-23T13:05:50Z</time>
      </trkpt>
      <trkpt lat="42.7563370" lon="-8.6520590">
        <ele>20.8</ele>
        <time>2021-05-23T13:05:51Z</time>
      </trkpt>
      <trkpt lat="42.7563430" lon="-8.6520550">
        <ele>20.8</ele>
        <time>2021-05-23T13:05:52Z</time>
      </trkpt>
      <trkpt lat="42.7563620" lon="-8.6520440">
        <ele>20.8</ele>
        <time>2021-05-23T13:05:53Z</time>
      </trkpt>
      <trkpt lat="42.7563710" lon="-8.6520380">
        <ele>20.8</ele>
        <time>2021-05-23T13:05:54Z</time>
      </trkpt>
      <trkpt lat="42.7563800" lon="-8.6520320">
        <ele>20.9</ele>
        <time>2021-05-23T13:05:55Z</time>
      </trkpt>
      <trkpt lat="42.7563930" lon="-8.6520280">
        <ele>20.9</ele>
        <time>2021-05-23T13:05:56Z</time>
      </trkpt>
      <trkpt lat="42.7564020" lon="-8.6520240">
        <ele>20.9</ele>
        <time>2021-05-23T13:05:57Z</time>
      </trkpt>
      <trkpt lat="42.7564110" lon="-8.6520210">
        <ele>20.9</ele>
        <time>2021-05-23T13:05:58Z</time>
      </trkpt>
      <trkpt lat="42.7564200" lon="-8.6520170">
        <ele>20.9</ele>
        <time>2021-05-23T13:05:59Z</time>
      </trkpt>
      <trkpt lat="42.7564400" lon="-8.6520050">
        <ele>21.0</ele>
        <time>2021-05-23T13:06:00Z</time>
      </trkpt>
      <trkpt lat="42.7564480" lon="-8.6519990">
        <ele>21.0</ele>
        <time>2021-05-23T13:06:01Z</time>
      </trkpt>
      <trkpt lat="42.7564570" lon="-8.6519940">
        <ele>21.0</ele>
        <time>2021-05-23T13:06:02Z</time>
      </trkpt>
      <trkpt lat="42.7564630" lon="-8.6519920">
        <ele>21.0</ele>
        <time>2021-05-23T13:06:03Z</time>
      </trkpt>
      <trkpt lat="42.7564780" lon="-8.6519870">
        <ele>21.1</ele>
        <time>2021-05-23T13:06:04Z</time>
      </trkpt>
      <trkpt lat="42.7564870" lon="-8.6519820">
        <ele>21.1</ele>
        <time>2021-05-23T13:06:05Z</time>
      </trkpt>
      <trkpt lat="42.7565100" lon="-8.6519750">
        <ele>21.2</ele>
        <time>2021-05-23T13:06:06Z</time>
      </trkpt>
      <trkpt lat="42.7565160" lon="-8.6519660">
        <ele>21.2</ele>
        <time>2021-05-23T13:06:07Z</time>
      </trkpt>
      <trkpt lat="42.7565230" lon="-8.6519580">
        <ele>21.2</ele>
        <time>2021-05-23T13:06:08Z</time>
      </trkpt>
      <trkpt lat="42.7565430" lon="-8.6519380">
        <ele>21.2</ele>
        <time>2021-05-23T13:06:09Z</time>
      </trkpt>
      <trkpt lat="42.7565510" lon="-8.6519340">
        <ele>21.2</ele>
        <time>2021-05-23T13:06:10Z</time>
      </trkpt>
      <trkpt lat="42.7565600" lon="-8.6519290">
        <ele>21.2</ele>
        <time>2021-05-23T13:06:11Z</time>
      </trkpt>
      <trkpt lat="42.7565700" lon="-8.6519230">
        <ele>21.2</ele>
        <time>2021-05-23T13:06:12Z</time>
      </trkpt>
      <trkpt lat="42.7565870" lon="-8.6519160">
        <ele>21.3</ele>
        <time>2021-05-23T13:06:13Z</time>
      </trkpt>
      <trkpt lat="42.7565940" lon="-8.6519210">
        <ele>21.3</ele>
        <time>2021-05-23T13:06:14Z</time>
      </trkpt>
      <trkpt lat="42.7566080" lon="-8.6519150">
        <ele>21.3</ele>
        <time>2021-05-23T13:06:15Z</time>
      </trkpt>
      <trkpt lat="42.7566210" lon="-8.6519100">
        <ele>21.3</ele>
        <time>2021-05-23T13:06:16Z</time>
      </trkpt>
      <trkpt lat="42.7566360" lon="-8.6519000">
        <ele>21.3</ele>
        <time>2021-05-23T13:06:17Z</time>
      </trkpt>
      <trkpt lat="42.7566470" lon="-8.6518980">
        <ele>21.3</ele>
        <time>2021-05-23T13:06:18Z</time>
      </trkpt>
      <trkpt lat="42.7566610" lon="-8.6518920">
        <ele>21.3</ele>
        <time>2021-05-23T13:06:19Z</time>
      </trkpt>
      <trkpt lat="42.7566720" lon="-8.6518830">
        <ele>21.4</ele>
        <time>2021-05-23T13:06:20Z</time>
      </trkpt>
      <trkpt lat="42.7566840" lon="-8.6518750">
        <ele>21.4</ele>
        <time>2021-05-23T13:06:21Z</time>
      </trkpt>
      <trkpt lat="42.7567000" lon="-8.6518720">
        <ele>21.4</ele>
        <time>2021-05-23T13:06:22Z</time>
      </trkpt>
      <trkpt lat="42.7567110" lon="-8.6518700">
        <ele>21.4</ele>
        <time>2021-05-23T13:06:23Z</time>
      </trkpt>
      <trkpt lat="42.7567310" lon="-8.6518670">
        <ele>21.4</ele>
        <time>2021-05-23T13:06:24Z</time>
      </trkpt>
      <trkpt lat="42.7567420" lon="-8.6518650">
        <ele>21.4</ele>
        <time>2021-05-23T13:06:25Z</time>
      </trkpt>
      <trkpt lat="42.7567530" lon="-8.6518600">
        <ele>21.4</ele>
        <time>2021-05-23T13:06:26Z</time>
      </trkpt>
      <trkpt lat="42.7567660" lon="-8.6518580">
        <ele>21.4</ele>
        <time>2021-05-23T13:06:27Z</time>
      </trkpt>
      <trkpt lat="42.7567790" lon="-8.6518590">
        <ele>21.5</ele>
        <time>2021-05-23T13:06:28Z</time>
      </trkpt>
      <trkpt lat="42.7567950" lon="-8.6518480">
        <ele>21.5</ele>
        <time>2021-05-23T13:06:29Z</time>
      </trkpt>
      <trkpt lat="42.7568020" lon="-8.6518430">
        <ele>21.5</ele>
        <time>2021-05-23T13:06:30Z</time>
      </trkpt>
      <trkpt lat="42.7568180" lon="-8.6518360">
        <ele>21.5</ele>
        <time>2021-05-23T13:06:31Z</time>
      </trkpt>
      <trkpt lat="42.7568260" lon="-8.6518320">
        <ele>21.5</ele>
        <time>2021-05-23T13:06:32Z</time>
      </trkpt>
      <trkpt lat="42.7568420" lon="-8.6518230">
        <ele>21.5</ele>
        <time>2021-05-23T13:06:33Z</time>
      </trkpt>
      <trkpt lat="42.7568540" lon="-8.6518240">
        <ele>21.5</ele>
        <time>2021-05-23T13:06:34Z</time>
      </trkpt>
      <trkpt lat="42.7568730" lon="-8.6518180">
        <ele>21.5</ele>
        <time>2021-05-23T13:06:35Z</time>
      </trkpt>
      <trkpt lat="42.7568810" lon="-8.6518130">
        <ele>21.6</ele>
        <time>2021-05-23T13:06:36Z</time>
      </trkpt>
      <trkpt lat="42.7568890" lon="-8.6518070">
        <ele>21.6</ele>
        <time>2021-05-23T13:06:37Z</time>
      </trkpt>
      <trkpt lat="42.7568980" lon="-8.6517970">
        <ele>21.6</ele>
        <time>2021-05-23T13:06:38Z</time>
      </trkpt>
      <trkpt lat="42.7569160" lon="-8.6517900">
        <ele>21.6</ele>
        <time>2021-05-23T13:06:39Z</time>
      </trkpt>
      <trkpt lat="42.7569260" lon="-8.6517900">
        <ele>21.6</ele>
        <time>2021-05-23T13:06:40Z</time>
      </trkpt>
      <trkpt lat="42.7569430" lon="-8.6517820">
        <ele>21.6</ele>
        <time>2021-05-23T13:06:41Z</time>
      </trkpt>
      <trkpt lat="42.7569520" lon="-8.6517850">
        <ele>21.6</ele>
        <time>2021-05-23T13:06:42Z</time>
      </trkpt>
      <trkpt lat="42.7569590" lon="-8.6517850">
        <ele>21.6</ele>
        <time>2021-05-23T13:06:43Z</time>
      </trkpt>
      <trkpt lat="42.7569680" lon="-8.6517770">
        <ele>21.6</ele>
        <time>2021-05-23T13:06:44Z</time>
      </trkpt>
      <trkpt lat="42.7569790" lon="-8.6517750">
        <ele>21.6</ele>
        <time>2021-05-23T13:06:45Z</time>
      </trkpt>
      <trkpt lat="42.7569970" lon="-8.6517680">
        <ele>21.6</ele>
        <time>2021-05-23T13:06:46Z</time>
      </trkpt>
      <trkpt lat="42.7570000" lon="-8.6517670">
        <ele>21.6</ele>
        <time>2021-05-23T13:06:47Z</time>
      </trkpt>
      <trkpt lat="42.7570120" lon="-8.6517620">
        <ele>21.6</ele>
        <time>2021-05-23T13:06:48Z</time>
      </trkpt>
      <trkpt lat="42.7570290" lon="-8.6517550">
        <ele>21.6</ele>
        <time>2021-05-23T13:06:49Z</time>
      </trkpt>
      <trkpt lat="42.7570490" lon="-8.6517460">
        <ele>21.6</ele>
        <time>2021-05-23T13:06:50Z</time>
      </trkpt>
      <trkpt lat="42.7570540" lon="-8.6517420">
        <ele>21.6</ele>
        <time>2021-05-23T13:06:51Z</time>
      </trkpt>
      <trkpt lat="42.7570680" lon="-8.6517370">
        <ele>21.7</ele>
        <time>2021-05-23T13:06:52Z</time>
      </trkpt>
      <trkpt lat="42.7570960" lon="-8.6517170">
        <ele>21.7</ele>
        <time>2021-05-23T13:06:53Z</time>
      </trkpt>
      <trkpt lat="42.7571050" lon="-8.6517100">
        <ele>21.7</ele>
        <time>2021-05-23T13:06:54Z</time>
      </trkpt>
      <trkpt lat="42.7571150" lon="-8.6517020">
        <ele>21.7</ele>
        <time>2021-05-23T13:06:55Z</time>
      </trkpt>
      <trkpt lat="42.7571350" lon="-8.6516980">
        <ele>21.7</ele>
        <time>2021-05-23T13:06:56Z</time>
      </trkpt>
      <trkpt lat="42.7571520" lon="-8.6516910">
        <ele>21.7</ele>
        <time>2021-05-23T13:06:57Z</time>
      </trkpt>
      <trkpt lat="42.7571640" lon="-8.6516890">
        <ele>21.7</ele>
        <time>2021-05-23T13:06:58Z</time>
      </trkpt>
      <trkpt lat="42.7571810" lon="-8.6516710">
        <ele>21.8</ele>
        <time>2021-05-23T13:06:59Z</time>
      </trkpt>
      <trkpt lat="42.7571860" lon="-8.6516620">
        <ele>21.8</ele>
        <time>2021-05-23T13:07:00Z</time>
      </trkpt>
      <trkpt lat="42.7571910" lon="-8.6516530">
        <ele>21.8</ele>
        <time>2021-05-23T13:07:01Z</time>
      </trkpt>
      <trkpt lat="42.7571960" lon="-8.6516300">
        <ele>21.8</ele>
        <time>2021-05-23T13:07:02Z</time>
      </trkpt>
      <trkpt lat="42.7572100" lon="-8.6516190">
        <ele>21.8</ele>
        <time>2021-05-23T13:07:03Z</time>
      </trkpt>
      <trkpt lat="42.7572210" lon="-8.6516110">
        <ele>21.8</ele>
        <time>2021-05-23T13:07:04Z</time>
      </trkpt>
      <trkpt lat="42.7572340" lon="-8.6516030">
        <ele>21.8</ele>
        <time>2021-05-23T13:07:05Z</time>
      </trkpt>
      <trkpt lat="42.7572440" lon="-8.6515940">
        <ele>21.8</ele>
        <time>2021-05-23T13:07:06Z</time>
      </trkpt>
      <trkpt lat="42.7572540" lon="-8.6515870">
        <ele>21.9</ele>
        <time>2021-05-23T13:07:07Z</time>
      </trkpt>
      <trkpt lat="42.7572650" lon="-8.6515880">
        <ele>21.9</ele>
        <time>2021-05-23T13:07:08Z</time>
      </trkpt>
      <trkpt lat="42.7572750" lon="-8.6515810">
        <ele>21.9</ele>
        <time>2021-05-23T13:07:09Z</time>
      </trkpt>
      <trkpt lat="42.7572860" lon="-8.6515750">
        <ele>21.9</ele>
        <time>2021-05-23T13:07:10Z</time>
      </trkpt>
      <trkpt lat="42.7572950" lon="-8.6515760">
        <ele>21.9</ele>
        <time>2021-05-23T13:07:11Z</time>
      </trkpt>
      <trkpt lat="42.7573210" lon="-8.6515720">
        <ele>21.9</ele>
        <time>2021-05-23T13:07:12Z</time>
      </trkpt>
      <trkpt lat="42.7573310" lon="-8.6515660">
        <ele>21.9</ele>
        <time>2021-05-23T13:07:13Z</time>
      </trkpt>
      <trkpt lat="42.7573410" lon="-8.6515610">
        <ele>22.0</ele>
        <time>2021-05-23T13:07:14Z</time>
      </trkpt>
      <trkpt lat="42.7573610" lon="-8.6515490">
        <ele>22.0</ele>
        <time>2021-05-23T13:07:15Z</time>
      </trkpt>
      <trkpt lat="42.7573700" lon="-8.6515450">
        <ele>22.0</ele>
        <time>2021-05-23T13:07:16Z</time>
      </trkpt>
      <trkpt lat="42.7573800" lon="-8.6515420">
        <ele>22.0</ele>
        <time>2021-05-23T13:07:17Z</time>
      </trkpt>
      <trkpt lat="42.7574100" lon="-8.6515290">
        <ele>22.0</ele>
        <time>2021-05-23T13:07:19Z</time>
      </trkpt>
      <trkpt lat="42.7574150" lon="-8.6515280">
        <ele>22.0</ele>
        <time>2021-05-23T13:07:20Z</time>
      </trkpt>
      <trkpt lat="42.7574290" lon="-8.6515280">
        <ele>22.1</ele>
        <time>2021-05-23T13:07:21Z</time>
      </trkpt>
      <trkpt lat="42.7574430" lon="-8.6515200">
        <ele>22.1</ele>
        <time>2021-05-23T13:07:22Z</time>
      </trkpt>
      <trkpt lat="42.7574650" lon="-8.6515180">
        <ele>22.1</ele>
        <time>2021-05-23T13:07:23Z</time>
      </trkpt>
      <trkpt lat="42.7574740" lon="-8.6515170">
        <ele>22.1</ele>
        <time>2021-05-23T13:07:25Z</time>
      </trkpt>
      <trkpt lat="42.7574820" lon="-8.6515160">
        <ele>22.1</ele>
        <time>2021-05-23T13:07:26Z</time>
      </trkpt>
      <trkpt lat="42.7574900" lon="-8.6515090">
        <ele>22.1</ele>
        <time>2021-05-23T13:07:27Z</time>
      </trkpt>
      <trkpt lat="42.7574980" lon="-8.6515050">
        <ele>22.1</ele>
        <time>2021-05-23T13:07:28Z</time>
      </trkpt>
      <trkpt lat="42.7575070" lon="-8.6514930">
        <ele>22.1</ele>
        <time>2021-05-23T13:07:29Z</time>
      </trkpt>
      <trkpt lat="42.7575220" lon="-8.6514860">
        <ele>22.2</ele>
        <time>2021-05-23T13:07:30Z</time>
      </trkpt>
      <trkpt lat="42.7575350" lon="-8.6514790">
        <ele>22.2</ele>
        <time>2021-05-23T13:07:31Z</time>
      </trkpt>
      <trkpt lat="42.7575580" lon="-8.6514800">
        <ele>22.2</ele>
        <time>2021-05-23T13:07:32Z</time>
      </trkpt>
      <trkpt lat="42.7575660" lon="-8.6514800">
        <ele>22.2</ele>
        <time>2021-05-23T13:07:33Z</time>
      </trkpt>
      <trkpt lat="42.7575740" lon="-8.6514800">
        <ele>22.2</ele>
        <time>2021-05-23T13:07:34Z</time>
      </trkpt>
      <trkpt lat="42.7575970" lon="-8.6514750">
        <ele>22.3</ele>
        <time>2021-05-23T13:07:35Z</time>
      </trkpt>
      <trkpt lat="42.7576040" lon="-8.6514730">
        <ele>22.3</ele>
        <time>2021-05-23T13:07:36Z</time>
      </trkpt>
      <trkpt lat="42.7576120" lon="-8.6514710">
        <ele>22.3</ele>
        <time>2021-05-23T13:07:37Z</time>
      </trkpt>
      <trkpt lat="42.7576280" lon="-8.6514820">
        <ele>22.3</ele>
        <time>2021-05-23T13:07:38Z</time>
      </trkpt>
      <trkpt lat="42.7576390" lon="-8.6514770">
        <ele>22.3</ele>
        <time>2021-05-23T13:07:39Z</time>
      </trkpt>
      <trkpt lat="42.7576570" lon="-8.6514750">
        <ele>22.3</ele>
        <time>2021-05-23T13:07:40Z</time>
      </trkpt>
      <trkpt lat="42.7576640" lon="-8.6514730">
        <ele>22.3</ele>
        <time>2021-05-23T13:07:41Z</time>
      </trkpt>
      <trkpt lat="42.7576710" lon="-8.6514720">
        <ele>22.4</ele>
        <time>2021-05-23T13:07:42Z</time>
      </trkpt>
      <trkpt lat="42.7576780" lon="-8.6514700">
        <ele>22.4</ele>
        <time>2021-05-23T13:07:43Z</time>
      </trkpt>
      <trkpt lat="42.7576940" lon="-8.6514630">
        <ele>22.4</ele>
        <time>2021-05-23T13:07:44Z</time>
      </trkpt>
      <trkpt lat="42.7577070" lon="-8.6514630">
        <ele>22.4</ele>
        <time>2021-05-23T13:07:45Z</time>
      </trkpt>
      <trkpt lat="42.7577300" lon="-8.6514680">
        <ele>22.4</ele>
        <time>2021-05-23T13:07:46Z</time>
      </trkpt>
      <trkpt lat="42.7577390" lon="-8.6514700">
        <ele>22.5</ele>
        <time>2021-05-23T13:07:47Z</time>
      </trkpt>
      <trkpt lat="42.7577470" lon="-8.6514730">
        <ele>22.5</ele>
        <time>2021-05-23T13:07:48Z</time>
      </trkpt>
      <trkpt lat="42.7577650" lon="-8.6514710">
        <ele>22.5</ele>
        <time>2021-05-23T13:07:49Z</time>
      </trkpt>
      <trkpt lat="42.7577720" lon="-8.6514620">
        <ele>22.5</ele>
        <time>2021-05-23T13:07:50Z</time>
      </trkpt>
      <trkpt lat="42.7577940" lon="-8.6514600">
        <ele>22.5</ele>
        <time>2021-05-23T13:07:51Z</time>
      </trkpt>
      <trkpt lat="42.7578070" lon="-8.6514590">
        <ele>22.6</ele>
        <time>2021-05-23T13:07:52Z</time>
      </trkpt>
      <trkpt lat="42.7578290" lon="-8.6514510">
        <ele>22.6</ele>
        <time>2021-05-23T13:07:53Z</time>
      </trkpt>
      <trkpt lat="42.7578380" lon="-8.6514450">
        <ele>22.6</ele>
        <time>2021-05-23T13:07:54Z</time>
      </trkpt>
      <trkpt lat="42.7578470" lon="-8.6514400">
        <ele>22.6</ele>
        <time>2021-05-23T13:07:55Z</time>
      </trkpt>
      <trkpt lat="42.7578630" lon="-8.6514330">
        <ele>22.7</ele>
        <time>2021-05-23T13:07:56Z</time>
      </trkpt>
      <trkpt lat="42.7578760" lon="-8.6514250">
        <ele>22.7</ele>
        <time>2021-05-23T13:07:57Z</time>
      </trkpt>
      <trkpt lat="42.7578920" lon="-8.6514220">
        <ele>22.7</ele>
        <time>2021-05-23T13:07:58Z</time>
      </trkpt>
      <trkpt lat="42.7579060" lon="-8.6514180">
        <ele>22.7</ele>
        <time>2021-05-23T13:07:59Z</time>
      </trkpt>
      <trkpt lat="42.7579220" lon="-8.6514120">
        <ele>22.8</ele>
        <time>2021-05-23T13:08:00Z</time>
      </trkpt>
      <trkpt lat="42.7579370" lon="-8.6514030">
        <ele>22.8</ele>
        <time>2021-05-23T13:08:01Z</time>
      </trkpt>
      <trkpt lat="42.7579510" lon="-8.6513990">
        <ele>22.8</ele>
        <time>2021-05-23T13:08:02Z</time>
      </trkpt>
      <trkpt lat="42.7579670" lon="-8.6513990">
        <ele>22.8</ele>
        <time>2021-05-23T13:08:03Z</time>
      </trkpt>
      <trkpt lat="42.7579810" lon="-8.6514020">
        <ele>22.9</ele>
        <time>2021-05-23T13:08:04Z</time>
      </trkpt>
      <trkpt lat="42.7579980" lon="-8.6514040">
        <ele>22.9</ele>
        <time>2021-05-23T13:08:05Z</time>
      </trkpt>
      <trkpt lat="42.7580120" lon="-8.6514030">
        <ele>22.9</ele>
        <time>2021-05-23T13:08:06Z</time>
      </trkpt>
      <trkpt lat="42.7580270" lon="-8.6514040">
        <ele>23.0</ele>
        <time>2021-05-23T13:08:07Z</time>
      </trkpt>
      <trkpt lat="42.7580430" lon="-8.6513990">
        <ele>23.0</ele>
        <time>2021-05-23T13:08:08Z</time>
      </trkpt>
      <trkpt lat="42.7580570" lon="-8.6513920">
        <ele>23.0</ele>
        <time>2021-05-23T13:08:09Z</time>
      </trkpt>
      <trkpt lat="42.7580700" lon="-8.6513820">
        <ele>23.1</ele>
        <time>2021-05-23T13:08:10Z</time>
      </trkpt>
      <trkpt lat="42.7580850" lon="-8.6513820">
        <ele>23.1</ele>
        <time>2021-05-23T13:08:11Z</time>
      </trkpt>
      <trkpt lat="42.7581020" lon="-8.6513790">
        <ele>23.1</ele>
        <time>2021-05-23T13:08:12Z</time>
      </trkpt>
      <trkpt lat="42.7581080" lon="-8.6513860">
        <ele>23.1</ele>
        <time>2021-05-23T13:08:13Z</time>
      </trkpt>
      <trkpt lat="42.7581200" lon="-8.6513860">
        <ele>23.2</ele>
        <time>2021-05-23T13:08:14Z</time>
      </trkpt>
      <trkpt lat="42.7581310" lon="-8.6513810">
        <ele>23.2</ele>
        <time>2021-05-23T13:08:15Z</time>
      </trkpt>
      <trkpt lat="42.7581400" lon="-8.6513810">
        <ele>23.2</ele>
        <time>2021-05-23T13:08:16Z</time>
      </trkpt>
      <trkpt lat="42.7581550" lon="-8.6513790">
        <ele>23.2</ele>
        <time>2021-05-23T13:08:17Z</time>
      </trkpt>
      <trkpt lat="42.7581660" lon="-8.6513770">
        <ele>23.2</ele>
        <time>2021-05-23T13:08:18Z</time>
      </trkpt>
      <trkpt lat="42.7581780" lon="-8.6513720">
        <ele>23.3</ele>
        <time>2021-05-23T13:08:19Z</time>
      </trkpt>
      <trkpt lat="42.7581870" lon="-8.6513690">
        <ele>23.3</ele>
        <time>2021-05-23T13:08:20Z</time>
      </trkpt>
      <trkpt lat="42.7582030" lon="-8.6513690">
        <ele>23.3</ele>
        <time>2021-05-23T13:08:21Z</time>
      </trkpt>
      <trkpt lat="42.7582170" lon="-8.6513690">
        <ele>23.3</ele>
        <time>2021-05-23T13:08:22Z</time>
      </trkpt>
      <trkpt lat="42.7582330" lon="-8.6513700">
        <ele>23.4</ele>
        <time>2021-05-23T13:08:23Z</time>
      </trkpt>
      <trkpt lat="42.7582470" lon="-8.6513610">
        <ele>23.4</ele>
        <time>2021-05-23T13:08:24Z</time>
      </trkpt>
      <trkpt lat="42.7582570" lon="-8.6513630">
        <ele>23.4</ele>
        <time>2021-05-23T13:08:25Z</time>
      </trkpt>
      <trkpt lat="42.7582700" lon="-8.6513680">
        <ele>23.4</ele>
        <time>2021-05-23T13:08:26Z</time>
      </trkpt>
      <trkpt lat="42.7582810" lon="-8.6513670">
        <ele>23.5</ele>
        <time>2021-05-23T13:08:27Z</time>
      </trkpt>
      <trkpt lat="42.7582970" lon="-8.6513570">
        <ele>23.5</ele>
        <time>2021-05-23T13:08:28Z</time>
      </trkpt>
      <trkpt lat="42.7583080" lon="-8.6513540">
        <ele>23.5</ele>
        <time>2021-05-23T13:08:29Z</time>
      </trkpt>
      <trkpt lat="42.7583180" lon="-8.6513520">
        <ele>23.5</ele>
        <time>2021-05-23T13:08:30Z</time>
      </trkpt>
      <trkpt lat="42.7583390" lon="-8.6513550">
        <ele>23.6</ele>
        <time>2021-05-23T13:08:31Z</time>
      </trkpt>
      <trkpt lat="42.7583500" lon="-8.6513550">
        <ele>23.6</ele>
        <time>2021-05-23T13:08:32Z</time>
      </trkpt>
      <trkpt lat="42.7583620" lon="-8.6513540">
        <ele>23.6</ele>
        <time>2021-05-23T13:08:33Z</time>
      </trkpt>
      <trkpt lat="42.7583790" lon="-8.6513480">
        <ele>23.7</ele>
        <time>2021-05-23T13:08:34Z</time>
      </trkpt>
      <trkpt lat="42.7583840" lon="-8.6513510">
        <ele>23.7</ele>
        <time>2021-05-23T13:08:35Z</time>
      </trkpt>
      <trkpt lat="42.7583940" lon="-8.6513530">
        <ele>23.7</ele>
        <time>2021-05-23T13:08:36Z</time>
      </trkpt>
      <trkpt lat="42.7584120" lon="-8.6513460">
        <ele>23.7</ele>
        <time>2021-05-23T13:08:37Z</time>
      </trkpt>
      <trkpt lat="42.7584220" lon="-8.6513440">
        <ele>23.7</ele>
        <time>2021-05-23T13:08:38Z</time>
      </trkpt>
      <trkpt lat="42.7584320" lon="-8.6513410">
        <ele>23.8</ele>
        <time>2021-05-23T13:08:39Z</time>
      </trkpt>
      <trkpt lat="42.7584460" lon="-8.6513370">
        <ele>23.8</ele>
        <time>2021-05-23T13:08:40Z</time>
      </trkpt>
      <trkpt lat="42.7584590" lon="-8.6513370">
        <ele>23.8</ele>
        <time>2021-05-23T13:08:41Z</time>
      </trkpt>
      <trkpt lat="42.7584840" lon="-8.6513320">
        <ele>23.9</ele>
        <time>2021-05-23T13:08:42Z</time>
      </trkpt>
      <trkpt lat="42.7584940" lon="-8.6513290">
        <ele>23.9</ele>
        <time>2021-05-23T13:08:43Z</time>
      </trkpt>
      <trkpt lat="42.7585040" lon="-8.6513270">
        <ele>23.9</ele>
        <time>2021-05-23T13:08:44Z</time>
      </trkpt>
      <trkpt lat="42.7585170" lon="-8.6513300">
        <ele>24.0</ele>
        <time>2021-05-23T13:08:45Z</time>
      </trkpt>
      <trkpt lat="42.7585340" lon="-8.6513280">
        <ele>24.0</ele>
        <time>2021-05-23T13:08:46Z</time>
      </trkpt>
      <trkpt lat="42.7585500" lon="-8.6513300">
        <ele>24.0</ele>
        <time>2021-05-23T13:08:47Z</time>
      </trkpt>
      <trkpt lat="42.7585650" lon="-8.6513280">
        <ele>24.1</ele>
        <time>2021-05-23T13:08:48Z</time>
      </trkpt>
      <trkpt lat="42.7585810" lon="-8.6513270">
        <ele>24.1</ele>
        <time>2021-05-23T13:08:49Z</time>
      </trkpt>
      <trkpt lat="42.7585960" lon="-8.6513240">
        <ele>24.1</ele>
        <time>2021-05-23T13:08:50Z</time>
      </trkpt>
      <trkpt lat="42.7586110" lon="-8.6513200">
        <ele>24.2</ele>
        <time>2021-05-23T13:08:51Z</time>
      </trkpt>
      <trkpt lat="42.7586230" lon="-8.6513130">
        <ele>24.2</ele>
        <time>2021-05-23T13:08:52Z</time>
      </trkpt>
      <trkpt lat="42.7586380" lon="-8.6513110">
        <ele>24.2</ele>
        <time>2021-05-23T13:08:53Z</time>
      </trkpt>
      <trkpt lat="42.7586540" lon="-8.6513170">
        <ele>24.3</ele>
        <time>2021-05-23T13:08:54Z</time>
      </trkpt>
      <trkpt lat="42.7586690" lon="-8.6513220">
        <ele>24.3</ele>
        <time>2021-05-23T13:08:55Z</time>
      </trkpt>
      <trkpt lat="42.7586970" lon="-8.6513090">
        <ele>24.4</ele>
        <time>2021-05-23T13:08:56Z</time>
      </trkpt>
      <trkpt lat="42.7587110" lon="-8.6513140">
        <ele>24.4</ele>
        <time>2021-05-23T13:08:57Z</time>
      </trkpt>
      <trkpt lat="42.7587260" lon="-8.6513140">
        <ele>24.4</ele>
        <time>2021-05-23T13:08:58Z</time>
      </trkpt>
      <trkpt lat="42.7587380" lon="-8.6513130">
        <ele>24.5</ele>
        <time>2021-05-23T13:08:59Z</time>
      </trkpt>
      <trkpt lat="42.7587530" lon="-8.6513130">
        <ele>24.5</ele>
        <time>2021-05-23T13:09:01Z</time>
      </trkpt>
      <trkpt lat="42.7587680" lon="-8.6513130">
        <ele>24.5</ele>
        <time>2021-05-23T13:09:02Z</time>
      </trkpt>
      <trkpt lat="42.7587830" lon="-8.6513070">
        <ele>24.6</ele>
        <time>2021-05-23T13:09:03Z</time>
      </trkpt>
      <trkpt lat="42.7587990" lon="-8.6513010">
        <ele>24.6</ele>
        <time>2021-05-23T13:09:04Z</time>
      </trkpt>
      <trkpt lat="42.7588070" lon="-8.6513030">
        <ele>24.6</ele>
        <time>2021-05-23T13:09:06Z</time>
      </trkpt>
      <trkpt lat="42.7588160" lon="-8.6512970">
        <ele>24.6</ele>
        <time>2021-05-23T13:09:07Z</time>
      </trkpt>
      <trkpt lat="42.7588350" lon="-8.6512760">
        <ele>24.7</ele>
        <time>2021-05-23T13:09:08Z</time>
      </trkpt>
      <trkpt lat="42.7588370" lon="-8.6512700">
        <ele>24.7</ele>
        <time>2021-05-23T13:09:10Z</time>
      </trkpt>
      <trkpt lat="42.7588470" lon="-8.6512560">
        <ele>24.7</ele>
        <time>2021-05-23T13:09:11Z</time>
      </trkpt>
      <trkpt lat="42.7588660" lon="-8.6512540">
        <ele>24.8</ele>
        <time>2021-05-23T13:09:12Z</time>
      </trkpt>
      <trkpt lat="42.7588850" lon="-8.6512570">
        <ele>25.0</ele>
        <time>2021-05-23T13:09:13Z</time>
      </trkpt>
      <trkpt lat="42.7588980" lon="-8.6512750">
        <ele>25.0</ele>
        <time>2021-05-23T13:09:14Z</time>
      </trkpt>
      <trkpt lat="42.7589110" lon="-8.6512850">
        <ele>25.0</ele>
        <time>2021-05-23T13:09:15Z</time>
      </trkpt>
      <trkpt lat="42.7589240" lon="-8.6512960">
        <ele>25.0</ele>
        <time>2021-05-23T13:09:16Z</time>
      </trkpt>
      <trkpt lat="42.7589400" lon="-8.6512980">
        <ele>25.0</ele>
        <time>2021-05-23T13:09:17Z</time>
      </trkpt>
      <trkpt lat="42.7589560" lon="-8.6512950">
        <ele>25.1</ele>
        <time>2021-05-23T13:09:18Z</time>
      </trkpt>
      <trkpt lat="42.7589700" lon="-8.6512930">
        <ele>25.1</ele>
        <time>2021-05-23T13:09:19Z</time>
      </trkpt>
      <trkpt lat="42.7589850" lon="-8.6512860">
        <ele>25.1</ele>
        <time>2021-05-23T13:09:20Z</time>
      </trkpt>
      <trkpt lat="42.7589970" lon="-8.6512810">
        <ele>25.1</ele>
        <time>2021-05-23T13:09:21Z</time>
      </trkpt>
      <trkpt lat="42.7590110" lon="-8.6512730">
        <ele>25.2</ele>
        <time>2021-05-23T13:09:22Z</time>
      </trkpt>
      <trkpt lat="42.7590270" lon="-8.6512820">
        <ele>25.2</ele>
        <time>2021-05-23T13:09:23Z</time>
      </trkpt>
      <trkpt lat="42.7590420" lon="-8.6512790">
        <ele>25.2</ele>
        <time>2021-05-23T13:09:24Z</time>
      </trkpt>
      <trkpt lat="42.7590640" lon="-8.6512840">
        <ele>25.3</ele>
        <time>2021-05-23T13:09:25Z</time>
      </trkpt>
      <trkpt lat="42.7590730" lon="-8.6512870">
        <ele>25.3</ele>
        <time>2021-05-23T13:09:26Z</time>
      </trkpt>
      <trkpt lat="42.7590810" lon="-8.6512890">
        <ele>25.4</ele>
        <time>2021-05-23T13:09:27Z</time>
      </trkpt>
      <trkpt lat="42.7591030" lon="-8.6512890">
        <ele>25.4</ele>
        <time>2021-05-23T13:09:28Z</time>
      </trkpt>
      <trkpt lat="42.7591110" lon="-8.6512880">
        <ele>25.4</ele>
        <time>2021-05-23T13:09:29Z</time>
      </trkpt>
      <trkpt lat="42.7591190" lon="-8.6512860">
        <ele>25.4</ele>
        <time>2021-05-23T13:09:30Z</time>
      </trkpt>
      <trkpt lat="42.7591310" lon="-8.6512880">
        <ele>25.5</ele>
        <time>2021-05-23T13:09:31Z</time>
      </trkpt>
      <trkpt lat="42.7591410" lon="-8.6512840">
        <ele>25.5</ele>
        <time>2021-05-23T13:09:32Z</time>
      </trkpt>
      <trkpt lat="42.7591450" lon="-8.6512910">
        <ele>25.5</ele>
        <time>2021-05-23T13:09:33Z</time>
      </trkpt>
      <trkpt lat="42.7591540" lon="-8.6512890">
        <ele>25.5</ele>
        <time>2021-05-23T13:09:34Z</time>
      </trkpt>
      <trkpt lat="42.7591700" lon="-8.6512810">
        <ele>25.6</ele>
        <time>2021-05-23T13:09:35Z</time>
      </trkpt>
      <trkpt lat="42.7591820" lon="-8.6512750">
        <ele>25.6</ele>
        <time>2021-05-23T13:09:36Z</time>
      </trkpt>
      <trkpt lat="42.7591910" lon="-8.6512740">
        <ele>25.6</ele>
        <time>2021-05-23T13:09:37Z</time>
      </trkpt>
      <trkpt lat="42.7592040" lon="-8.6512740">
        <ele>25.7</ele>
        <time>2021-05-23T13:09:38Z</time>
      </trkpt>
      <trkpt lat="42.7592140" lon="-8.6512730">
        <ele>25.7</ele>
        <time>2021-05-23T13:09:39Z</time>
      </trkpt>
      <trkpt lat="42.7592230" lon="-8.6512780">
        <ele>25.7</ele>
        <time>2021-05-23T13:09:40Z</time>
      </trkpt>
      <trkpt lat="42.7592410" lon="-8.6512740">
        <ele>25.7</ele>
        <time>2021-05-23T13:09:41Z</time>
      </trkpt>
      <trkpt lat="42.7592460" lon="-8.6512690">
        <ele>25.7</ele>
        <time>2021-05-23T13:09:42Z</time>
      </trkpt>
      <trkpt lat="42.7592630" lon="-8.6512710">
        <ele>25.8</ele>
        <time>2021-05-23T13:09:43Z</time>
      </trkpt>
      <trkpt lat="42.7592760" lon="-8.6512750">
        <ele>25.8</ele>
        <time>2021-05-23T13:09:44Z</time>
      </trkpt>
      <trkpt lat="42.7592930" lon="-8.6512740">
        <ele>25.8</ele>
        <time>2021-05-23T13:09:45Z</time>
      </trkpt>
      <trkpt lat="42.7593060" lon="-8.6512720">
        <ele>25.8</ele>
        <time>2021-05-23T13:09:46Z</time>
      </trkpt>
      <trkpt lat="42.7593220" lon="-8.6512680">
        <ele>25.9</ele>
        <time>2021-05-23T13:09:47Z</time>
      </trkpt>
      <trkpt lat="42.7593370" lon="-8.6512650">
        <ele>25.9</ele>
        <time>2021-05-23T13:09:48Z</time>
      </trkpt>
      <trkpt lat="42.7593510" lon="-8.6512660">
        <ele>25.9</ele>
        <time>2021-05-23T13:09:49Z</time>
      </trkpt>
      <trkpt lat="42.7593640" lon="-8.6512570">
        <ele>25.9</ele>
        <time>2021-05-23T13:09:50Z</time>
      </trkpt>
      <trkpt lat="42.7593770" lon="-8.6512630">
        <ele>26.0</ele>
        <time>2021-05-23T13:09:51Z</time>
      </trkpt>
      <trkpt lat="42.7593920" lon="-8.6512590">
        <ele>26.0</ele>
        <time>2021-05-23T13:09:52Z</time>
      </trkpt>
      <trkpt lat="42.7594070" lon="-8.6512640">
        <ele>26.0</ele>
        <time>2021-05-23T13:09:53Z</time>
      </trkpt>
      <trkpt lat="42.7594220" lon="-8.6512650">
        <ele>26.0</ele>
        <time>2021-05-23T13:09:54Z</time>
      </trkpt>
      <trkpt lat="42.7594440" lon="-8.6512660">
        <ele>26.0</ele>
        <time>2021-05-23T13:09:55Z</time>
      </trkpt>
      <trkpt lat="42.7594520" lon="-8.6512680">
        <ele>26.0</ele>
        <time>2021-05-23T13:09:56Z</time>
      </trkpt>
      <trkpt lat="42.7594610" lon="-8.6512700">
        <ele>26.1</ele>
        <time>2021-05-23T13:09:57Z</time>
      </trkpt>
      <trkpt lat="42.7594780" lon="-8.6512640">
        <ele>26.1</ele>
        <time>2021-05-23T13:09:58Z</time>
      </trkpt>
      <trkpt lat="42.7594940" lon="-8.6512650">
        <ele>26.1</ele>
        <time>2021-05-23T13:09:59Z</time>
      </trkpt>
      <trkpt lat="42.7595080" lon="-8.6512600">
        <ele>26.1</ele>
        <time>2021-05-23T13:10:00Z</time>
      </trkpt>
      <trkpt lat="42.7595250" lon="-8.6512630">
        <ele>26.1</ele>
        <time>2021-05-23T13:10:01Z</time>
      </trkpt>
      <trkpt lat="42.7595380" lon="-8.6512640">
        <ele>26.1</ele>
        <time>2021-05-23T13:10:02Z</time>
      </trkpt>
      <trkpt lat="42.7595540" lon="-8.6512650">
        <ele>26.2</ele>
        <time>2021-05-23T13:10:03Z</time>
      </trkpt>
      <trkpt lat="42.7595690" lon="-8.6512650">
        <ele>26.2</ele>
        <time>2021-05-23T13:10:04Z</time>
      </trkpt>
      <trkpt lat="42.7595830" lon="-8.6512730">
        <ele>26.2</ele>
        <time>2021-05-23T13:10:05Z</time>
      </trkpt>
      <trkpt lat="42.7595970" lon="-8.6512710">
        <ele>26.2</ele>
        <time>2021-05-23T13:10:06Z</time>
      </trkpt>
      <trkpt lat="42.7596130" lon="-8.6512690">
        <ele>26.2</ele>
        <time>2021-05-23T13:10:07Z</time>
      </trkpt>
      <trkpt lat="42.7596290" lon="-8.6512680">
        <ele>26.2</ele>
        <time>2021-05-23T13:10:08Z</time>
      </trkpt>
      <trkpt lat="42.7596450" lon="-8.6512700">
        <ele>26.2</ele>
        <time>2021-05-23T13:10:09Z</time>
      </trkpt>
      <trkpt lat="42.7596590" lon="-8.6512670">
        <ele>26.2</ele>
        <time>2021-05-23T13:10:10Z</time>
      </trkpt>
      <trkpt lat="42.7596740" lon="-8.6512730">
        <ele>26.2</ele>
        <time>2021-05-23T13:10:11Z</time>
      </trkpt>
      <trkpt lat="42.7596890" lon="-8.6512740">
        <ele>26.3</ele>
        <time>2021-05-23T13:10:12Z</time>
      </trkpt>
      <trkpt lat="42.7597040" lon="-8.6512780">
        <ele>26.3</ele>
        <time>2021-05-23T13:10:13Z</time>
      </trkpt>
      <trkpt lat="42.7597180" lon="-8.6512830">
        <ele>26.3</ele>
        <time>2021-05-23T13:10:14Z</time>
      </trkpt>
      <trkpt lat="42.7597340" lon="-8.6512840">
        <ele>26.3</ele>
        <time>2021-05-23T13:10:15Z</time>
      </trkpt>
      <trkpt lat="42.7597480" lon="-8.6512860">
        <ele>26.3</ele>
        <time>2021-05-23T13:10:16Z</time>
      </trkpt>
      <trkpt lat="42.7597620" lon="-8.6512870">
        <ele>26.3</ele>
        <time>2021-05-23T13:10:17Z</time>
      </trkpt>
      <trkpt lat="42.7597760" lon="-8.6512870">
        <ele>26.3</ele>
        <time>2021-05-23T13:10:18Z</time>
      </trkpt>
      <trkpt lat="42.7597910" lon="-8.6512820">
        <ele>26.3</ele>
        <time>2021-05-23T13:10:19Z</time>
      </trkpt>
      <trkpt lat="42.7598130" lon="-8.6512790">
        <ele>26.2</ele>
        <time>2021-05-23T13:10:20Z</time>
      </trkpt>
      <trkpt lat="42.7598220" lon="-8.6512820">
        <ele>26.2</ele>
        <time>2021-05-23T13:10:21Z</time>
      </trkpt>
      <trkpt lat="42.7598310" lon="-8.6512840">
        <ele>26.2</ele>
        <time>2021-05-23T13:10:22Z</time>
      </trkpt>
      <trkpt lat="42.7598450" lon="-8.6512810">
        <ele>26.2</ele>
        <time>2021-05-23T13:10:23Z</time>
      </trkpt>
      <trkpt lat="42.7598590" lon="-8.6512830">
        <ele>26.2</ele>
        <time>2021-05-23T13:10:24Z</time>
      </trkpt>
      <trkpt lat="42.7598730" lon="-8.6512780">
        <ele>26.2</ele>
        <time>2021-05-23T13:10:25Z</time>
      </trkpt>
      <trkpt lat="42.7598870" lon="-8.6512820">
        <ele>26.2</ele>
        <time>2021-05-23T13:10:26Z</time>
      </trkpt>
      <trkpt lat="42.7599020" lon="-8.6512810">
        <ele>26.2</ele>
        <time>2021-05-23T13:10:27Z</time>
      </trkpt>
      <trkpt lat="42.7599160" lon="-8.6512850">
        <ele>26.1</ele>
        <time>2021-05-23T13:10:28Z</time>
      </trkpt>
      <trkpt lat="42.7599370" lon="-8.6512870">
        <ele>26.1</ele>
        <time>2021-05-23T13:10:29Z</time>
      </trkpt>
      <trkpt lat="42.7599460" lon="-8.6512860">
        <ele>26.1</ele>
        <time>2021-05-23T13:10:30Z</time>
      </trkpt>
      <trkpt lat="42.7599540" lon="-8.6512860">
        <ele>26.0</ele>
        <time>2021-05-23T13:10:31Z</time>
      </trkpt>
      <trkpt lat="42.7599750" lon="-8.6512860">
        <ele>25.9</ele>
        <time>2021-05-23T13:10:32Z</time>
      </trkpt>
      <trkpt lat="42.7599840" lon="-8.6512880">
        <ele>25.8</ele>
        <time>2021-05-23T13:10:33Z</time>
      </trkpt>
      <trkpt lat="42.7599920" lon="-8.6512890">
        <ele>25.7</ele>
        <time>2021-05-23T13:10:34Z</time>
      </trkpt>
      <trkpt lat="42.7600010" lon="-8.6512940">
        <ele>25.7</ele>
        <time>2021-05-23T13:10:35Z</time>
      </trkpt>
      <trkpt lat="42.7600090" lon="-8.6512950">
        <ele>25.6</ele>
        <time>2021-05-23T13:10:36Z</time>
      </trkpt>
      <trkpt lat="42.7600150" lon="-8.6512890">
        <ele>25.5</ele>
        <time>2021-05-23T13:10:37Z</time>
      </trkpt>
      <trkpt lat="42.7600190" lon="-8.6512860">
        <ele>25.5</ele>
        <time>2021-05-23T13:10:38Z</time>
      </trkpt>
      <trkpt lat="42.7600100" lon="-8.6512930">
        <ele>25.4</ele>
        <time>2021-05-23T13:10:39Z</time>
      </trkpt>
      <trkpt lat="42.7600030" lon="-8.6513070">
        <ele>25.3</ele>
        <time>2021-05-23T13:10:40Z</time>
      </trkpt>
      <trkpt lat="42.7600010" lon="-8.6513280">
        <ele>25.2</ele>
        <time>2021-05-23T13:10:41Z</time>
      </trkpt>
      <trkpt lat="42.7600040" lon="-8.6513500">
        <ele>25.1</ele>
        <time>2021-05-23T13:10:42Z</time>
      </trkpt>
      <trkpt lat="42.7600030" lon="-8.6513710">
        <ele>25.0</ele>
        <time>2021-05-23T13:10:43Z</time>
      </trkpt>
      <trkpt lat="42.7600050" lon="-8.6513900">
        <ele>24.9</ele>
        <time>2021-05-23T13:10:44Z</time>
      </trkpt>
      <trkpt lat="42.7600060" lon="-8.6514020">
        <ele>24.8</ele>
        <time>2021-05-23T13:10:45Z</time>
      </trkpt>
      <trkpt lat="42.7600080" lon="-8.6514130">
        <ele>24.8</ele>
        <time>2021-05-23T13:10:46Z</time>
      </trkpt>
      <trkpt lat="42.7600090" lon="-8.6514250">
        <ele>24.7</ele>
        <time>2021-05-23T13:10:47Z</time>
      </trkpt>
      <trkpt lat="42.7600110" lon="-8.6514460">
        <ele>24.6</ele>
        <time>2021-05-23T13:10:48Z</time>
      </trkpt>
      <trkpt lat="42.7600120" lon="-8.6514690">
        <ele>24.5</ele>
        <time>2021-05-23T13:10:49Z</time>
      </trkpt>
      <trkpt lat="42.7600060" lon="-8.6514890">
        <ele>24.3</ele>
        <time>2021-05-23T13:10:50Z</time>
      </trkpt>
      <trkpt lat="42.7600160" lon="-8.6515070">
        <ele>24.2</ele>
        <time>2021-05-23T13:10:51Z</time>
      </trkpt>
      <trkpt lat="42.7600080" lon="-8.6515260">
        <ele>24.1</ele>
        <time>2021-05-23T13:10:52Z</time>
      </trkpt>
      <trkpt lat="42.7600170" lon="-8.6515260">
        <ele>24.0</ele>
        <time>2021-05-23T13:10:53Z</time>
      </trkpt>
      <trkpt lat="42.7600120" lon="-8.6515470">
        <ele>23.9</ele>
        <time>2021-05-23T13:10:54Z</time>
      </trkpt>
      <trkpt lat="42.7600100" lon="-8.6515710">
        <ele>23.8</ele>
        <time>2021-05-23T13:10:55Z</time>
      </trkpt>
      <trkpt lat="42.7600080" lon="-8.6515890">
        <ele>23.7</ele>
        <time>2021-05-23T13:10:56Z</time>
      </trkpt>
      <trkpt lat="42.7600090" lon="-8.6516050">
        <ele>23.6</ele>
        <time>2021-05-23T13:10:57Z</time>
      </trkpt>
      <trkpt lat="42.7600050" lon="-8.6516280">
        <ele>23.5</ele>
        <time>2021-05-23T13:10:58Z</time>
      </trkpt>
      <trkpt lat="42.7600050" lon="-8.6516420">
        <ele>23.4</ele>
        <time>2021-05-23T13:10:59Z</time>
      </trkpt>
      <trkpt lat="42.7600050" lon="-8.6516700">
        <ele>23.2</ele>
        <time>2021-05-23T13:11:00Z</time>
      </trkpt>
      <trkpt lat="42.7600050" lon="-8.6517030">
        <ele>23.1</ele>
        <time>2021-05-23T13:11:01Z</time>
      </trkpt>
      <trkpt lat="42.7600060" lon="-8.6517160">
        <ele>23.0</ele>
        <time>2021-05-23T13:11:02Z</time>
      </trkpt>
      <trkpt lat="42.7600060" lon="-8.6517290">
        <ele>22.9</ele>
        <time>2021-05-23T13:11:03Z</time>
      </trkpt>
      <trkpt lat="42.7600040" lon="-8.6517590">
        <ele>22.8</ele>
        <time>2021-05-23T13:11:04Z</time>
      </trkpt>
      <trkpt lat="42.7600050" lon="-8.6517710">
        <ele>22.7</ele>
        <time>2021-05-23T13:11:05Z</time>
      </trkpt>
      <trkpt lat="42.7600070" lon="-8.6517820">
        <ele>22.6</ele>
        <time>2021-05-23T13:11:06Z</time>
      </trkpt>
      <trkpt lat="42.7599990" lon="-8.6518070">
        <ele>22.5</ele>
        <time>2021-05-23T13:11:07Z</time>
      </trkpt>
      <trkpt lat="42.7599990" lon="-8.6518240">
        <ele>22.4</ele>
        <time>2021-05-23T13:11:08Z</time>
      </trkpt>
      <trkpt lat="42.7600000" lon="-8.6518420">
        <ele>22.3</ele>
        <time>2021-05-23T13:11:09Z</time>
      </trkpt>
      <trkpt lat="42.7599950" lon="-8.6518640">
        <ele>22.2</ele>
        <time>2021-05-23T13:11:10Z</time>
      </trkpt>
      <trkpt lat="42.7599980" lon="-8.6518790">
        <ele>22.1</ele>
        <time>2021-05-23T13:11:11Z</time>
      </trkpt>
      <trkpt lat="42.7599970" lon="-8.6518910">
        <ele>22.0</ele>
        <time>2021-05-23T13:11:12Z</time>
      </trkpt>
      <trkpt lat="42.7599980" lon="-8.6519040">
        <ele>22.0</ele>
        <time>2021-05-23T13:11:13Z</time>
      </trkpt>
      <trkpt lat="42.7599990" lon="-8.6519190">
        <ele>21.9</ele>
        <time>2021-05-23T13:11:14Z</time>
      </trkpt>
      <trkpt lat="42.7600010" lon="-8.6519440">
        <ele>21.8</ele>
        <time>2021-05-23T13:11:15Z</time>
      </trkpt>
      <trkpt lat="42.7599980" lon="-8.6519620">
        <ele>21.7</ele>
        <time>2021-05-23T13:11:16Z</time>
      </trkpt>
      <trkpt lat="42.7599990" lon="-8.6519830">
        <ele>21.5</ele>
        <time>2021-05-23T13:11:17Z</time>
      </trkpt>
      <trkpt lat="42.7600040" lon="-8.6520130">
        <ele>21.4</ele>
        <time>2021-05-23T13:11:18Z</time>
      </trkpt>
      <trkpt lat="42.7600050" lon="-8.6520260">
        <ele>21.3</ele>
        <time>2021-05-23T13:11:19Z</time>
      </trkpt>
      <trkpt lat="42.7600050" lon="-8.6520380">
        <ele>21.3</ele>
        <time>2021-05-23T13:11:20Z</time>
      </trkpt>
      <trkpt lat="42.7600050" lon="-8.6520570">
        <ele>21.2</ele>
        <time>2021-05-23T13:11:21Z</time>
      </trkpt>
      <trkpt lat="42.7600040" lon="-8.6520720">
        <ele>21.1</ele>
        <time>2021-05-23T13:11:22Z</time>
      </trkpt>
      <trkpt lat="42.7599970" lon="-8.6520850">
        <ele>21.0</ele>
        <time>2021-05-23T13:11:23Z</time>
      </trkpt>
      <trkpt lat="42.7599950" lon="-8.6521120">
        <ele>20.8</ele>
        <time>2021-05-23T13:11:24Z</time>
      </trkpt>
      <trkpt lat="42.7599960" lon="-8.6521230">
        <ele>20.8</ele>
        <time>2021-05-23T13:11:25Z</time>
      </trkpt>
      <trkpt lat="42.7599970" lon="-8.6521350">
        <ele>20.7</ele>
        <time>2021-05-23T13:11:26Z</time>
      </trkpt>
      <trkpt lat="42.7599960" lon="-8.6521430">
        <ele>20.7</ele>
        <time>2021-05-23T13:11:27Z</time>
      </trkpt>
      <trkpt lat="42.7600000" lon="-8.6521660">
        <ele>20.5</ele>
        <time>2021-05-23T13:11:28Z</time>
      </trkpt>
      <trkpt lat="42.7599990" lon="-8.6521800">
        <ele>20.5</ele>
        <time>2021-05-23T13:11:29Z</time>
      </trkpt>
      <trkpt lat="42.7599970" lon="-8.6521920">
        <ele>20.4</ele>
        <time>2021-05-23T13:11:30Z</time>
      </trkpt>
      <trkpt lat="42.7600010" lon="-8.6522220">
        <ele>20.2</ele>
        <time>2021-05-23T13:11:31Z</time>
      </trkpt>
      <trkpt lat="42.7600050" lon="-8.6522400">
        <ele>20.1</ele>
        <time>2021-05-23T13:11:32Z</time>
      </trkpt>
      <trkpt lat="42.7600100" lon="-8.6522580">
        <ele>20.0</ele>
        <time>2021-05-23T13:11:33Z</time>
      </trkpt>
      <trkpt lat="42.7600120" lon="-8.6522810">
        <ele>19.9</ele>
        <time>2021-05-23T13:11:34Z</time>
      </trkpt>
      <trkpt lat="42.7600120" lon="-8.6523010">
        <ele>19.8</ele>
        <time>2021-05-23T13:11:35Z</time>
      </trkpt>
      <trkpt lat="42.7600110" lon="-8.6523230">
        <ele>19.6</ele>
        <time>2021-05-23T13:11:36Z</time>
      </trkpt>
      <trkpt lat="42.7600190" lon="-8.6523420">
        <ele>19.5</ele>
        <time>2021-05-23T13:11:37Z</time>
      </trkpt>
      <trkpt lat="42.7600260" lon="-8.6523560">
        <ele>19.4</ele>
        <time>2021-05-23T13:11:38Z</time>
      </trkpt>
      <trkpt lat="42.7600330" lon="-8.6523740">
        <ele>19.3</ele>
        <time>2021-05-23T13:11:39Z</time>
      </trkpt>
      <trkpt lat="42.7600330" lon="-8.6523940">
        <ele>19.2</ele>
        <time>2021-05-23T13:11:40Z</time>
      </trkpt>
      <trkpt lat="42.7600380" lon="-8.6524110">
        <ele>19.1</ele>
        <time>2021-05-23T13:11:41Z</time>
      </trkpt>
      <trkpt lat="42.7600320" lon="-8.6524290">
        <ele>19.0</ele>
        <time>2021-05-23T13:11:42Z</time>
      </trkpt>
      <trkpt lat="42.7600280" lon="-8.6524500">
        <ele>18.9</ele>
        <time>2021-05-23T13:11:43Z</time>
      </trkpt>
      <trkpt lat="42.7600390" lon="-8.6524680">
        <ele>18.7</ele>
        <time>2021-05-23T13:11:44Z</time>
      </trkpt>
      <trkpt lat="42.7600370" lon="-8.6524870">
        <ele>18.6</ele>
        <time>2021-05-23T13:11:45Z</time>
      </trkpt>
      <trkpt lat="42.7600410" lon="-8.6525060">
        <ele>18.5</ele>
        <time>2021-05-23T13:11:46Z</time>
      </trkpt>
      <trkpt lat="42.7600480" lon="-8.6525260">
        <ele>18.4</ele>
        <time>2021-05-23T13:11:47Z</time>
      </trkpt>
      <trkpt lat="42.7600520" lon="-8.6525440">
        <ele>18.3</ele>
        <time>2021-05-23T13:11:48Z</time>
      </trkpt>
      <trkpt lat="42.7600570" lon="-8.6525600">
        <ele>18.2</ele>
        <time>2021-05-23T13:11:49Z</time>
      </trkpt>
      <trkpt lat="42.7600580" lon="-8.6525730">
        <ele>18.2</ele>
        <time>2021-05-23T13:11:50Z</time>
      </trkpt>
      <trkpt lat="42.7600510" lon="-8.6525890">
        <ele>18.1</ele>
        <time>2021-05-23T13:11:51Z</time>
      </trkpt>
      <trkpt lat="42.7600580" lon="-8.6526110">
        <ele>18.0</ele>
        <time>2021-05-23T13:11:52Z</time>
      </trkpt>
      <trkpt lat="42.7600500" lon="-8.6526320">
        <ele>17.9</ele>
        <time>2021-05-23T13:11:53Z</time>
      </trkpt>
      <trkpt lat="42.7600570" lon="-8.6526490">
        <ele>17.8</ele>
        <time>2021-05-23T13:11:54Z</time>
      </trkpt>
      <trkpt lat="42.7600510" lon="-8.6526710">
        <ele>17.7</ele>
        <time>2021-05-23T13:11:55Z</time>
      </trkpt>
      <trkpt lat="42.7600600" lon="-8.6526880">
        <ele>17.6</ele>
        <time>2021-05-23T13:11:56Z</time>
      </trkpt>
      <trkpt lat="42.7600610" lon="-8.6527180">
        <ele>17.4</ele>
        <time>2021-05-23T13:11:57Z</time>
      </trkpt>
      <trkpt lat="42.7600630" lon="-8.6527310">
        <ele>17.4</ele>
        <time>2021-05-23T13:11:58Z</time>
      </trkpt>
      <trkpt lat="42.7600640" lon="-8.6527430">
        <ele>17.3</ele>
        <time>2021-05-23T13:11:59Z</time>
      </trkpt>
      <trkpt lat="42.7600610" lon="-8.6527580">
        <ele>17.3</ele>
        <time>2021-05-23T13:12:00Z</time>
      </trkpt>
      <trkpt lat="42.7600680" lon="-8.6527710">
        <ele>17.2</ele>
        <time>2021-05-23T13:12:01Z</time>
      </trkpt>
      <trkpt lat="42.7600620" lon="-8.6527870">
        <ele>17.1</ele>
        <time>2021-05-23T13:12:02Z</time>
      </trkpt>
      <trkpt lat="42.7600690" lon="-8.6528100">
        <ele>17.0</ele>
        <time>2021-05-23T13:12:03Z</time>
      </trkpt>
      <trkpt lat="42.7600700" lon="-8.6528240">
        <ele>17.0</ele>
        <time>2021-05-23T13:12:04Z</time>
      </trkpt>
      <trkpt lat="42.7600710" lon="-8.6528390">
        <ele>16.9</ele>
        <time>2021-05-23T13:12:05Z</time>
      </trkpt>
      <trkpt lat="42.7600730" lon="-8.6528540">
        <ele>16.8</ele>
        <time>2021-05-23T13:12:06Z</time>
      </trkpt>
      <trkpt lat="42.7600720" lon="-8.6528770">
        <ele>16.7</ele>
        <time>2021-05-23T13:12:07Z</time>
      </trkpt>
      <trkpt lat="42.7600670" lon="-8.6528990">
        <ele>16.6</ele>
        <time>2021-05-23T13:12:08Z</time>
      </trkpt>
      <trkpt lat="42.7600730" lon="-8.6529190">
        <ele>16.6</ele>
        <time>2021-05-23T13:12:09Z</time>
      </trkpt>
      <trkpt lat="42.7600740" lon="-8.6529390">
        <ele>16.5</ele>
        <time>2021-05-23T13:12:10Z</time>
      </trkpt>
      <trkpt lat="42.7600790" lon="-8.6529510">
        <ele>16.4</ele>
        <time>2021-05-23T13:12:11Z</time>
      </trkpt>
      <trkpt lat="42.7600840" lon="-8.6529620">
        <ele>16.4</ele>
        <time>2021-05-23T13:12:12Z</time>
      </trkpt>
      <trkpt lat="42.7600860" lon="-8.6529790">
        <ele>16.3</ele>
        <time>2021-05-23T13:12:13Z</time>
      </trkpt>
      <trkpt lat="42.7600870" lon="-8.6530050">
        <ele>16.2</ele>
        <time>2021-05-23T13:12:14Z</time>
      </trkpt>
      <trkpt lat="42.7600850" lon="-8.6530130">
        <ele>16.2</ele>
        <time>2021-05-23T13:12:15Z</time>
      </trkpt>
      <trkpt lat="42.7600860" lon="-8.6530350">
        <ele>16.1</ele>
        <time>2021-05-23T13:12:16Z</time>
      </trkpt>
      <trkpt lat="42.7600870" lon="-8.6530520">
        <ele>16.0</ele>
        <time>2021-05-23T13:12:17Z</time>
      </trkpt>
      <trkpt lat="42.7600850" lon="-8.6530640">
        <ele>16.0</ele>
        <time>2021-05-23T13:12:18Z</time>
      </trkpt>
      <trkpt lat="42.7600850" lon="-8.6530840">
        <ele>15.9</ele>
        <time>2021-05-23T13:12:19Z</time>
      </trkpt>
      <trkpt lat="42.7600870" lon="-8.6530960">
        <ele>15.9</ele>
        <time>2021-05-23T13:12:20Z</time>
      </trkpt>
      <trkpt lat="42.7600840" lon="-8.6531120">
        <ele>15.8</ele>
        <time>2021-05-23T13:12:21Z</time>
      </trkpt>
      <trkpt lat="42.7600820" lon="-8.6531340">
        <ele>15.8</ele>
        <time>2021-05-23T13:12:22Z</time>
      </trkpt>
      <trkpt lat="42.7600890" lon="-8.6531430">
        <ele>15.7</ele>
        <time>2021-05-23T13:12:23Z</time>
      </trkpt>
      <trkpt lat="42.7600920" lon="-8.6531620">
        <ele>15.7</ele>
        <time>2021-05-23T13:12:24Z</time>
      </trkpt>
      <trkpt lat="42.7600910" lon="-8.6531720">
        <ele>15.7</ele>
        <time>2021-05-23T13:12:25Z</time>
      </trkpt>
      <trkpt lat="42.7600930" lon="-8.6531970">
        <ele>15.6</ele>
        <time>2021-05-23T13:12:26Z</time>
      </trkpt>
      <trkpt lat="42.7600920" lon="-8.6532120">
        <ele>15.6</ele>
        <time>2021-05-23T13:12:27Z</time>
      </trkpt>
      <trkpt lat="42.7600930" lon="-8.6532320">
        <ele>15.5</ele>
        <time>2021-05-23T13:12:28Z</time>
      </trkpt>
      <trkpt lat="42.7600950" lon="-8.6532510">
        <ele>15.4</ele>
        <time>2021-05-23T13:12:29Z</time>
      </trkpt>
      <trkpt lat="42.7601000" lon="-8.6532610">
        <ele>15.4</ele>
        <time>2021-05-23T13:12:30Z</time>
      </trkpt>
      <trkpt lat="42.7600980" lon="-8.6532850">
        <ele>15.4</ele>
        <time>2021-05-23T13:12:31Z</time>
      </trkpt>
      <trkpt lat="42.7600950" lon="-8.6532960">
        <ele>15.3</ele>
        <time>2021-05-23T13:12:32Z</time>
      </trkpt>
      <trkpt lat="42.7601030" lon="-8.6533010">
        <ele>15.3</ele>
        <time>2021-05-23T13:12:33Z</time>
      </trkpt>
      <trkpt lat="42.7601030" lon="-8.6533150">
        <ele>15.3</ele>
        <time>2021-05-23T13:12:34Z</time>
      </trkpt>
      <trkpt lat="42.7601030" lon="-8.6533390">
        <ele>15.2</ele>
        <time>2021-05-23T13:12:35Z</time>
      </trkpt>
      <trkpt lat="42.7601020" lon="-8.6533730">
        <ele>15.2</ele>
        <time>2021-05-23T13:12:36Z</time>
      </trkpt>
      <trkpt lat="42.7601050" lon="-8.6533840">
        <ele>15.1</ele>
        <time>2021-05-23T13:12:37Z</time>
      </trkpt>
      <trkpt lat="42.7601070" lon="-8.6533940">
        <ele>15.1</ele>
        <time>2021-05-23T13:12:38Z</time>
      </trkpt>
      <trkpt lat="42.7601230" lon="-8.6534140">
        <ele>14.9</ele>
        <time>2021-05-23T13:12:39Z</time>
      </trkpt>
      <trkpt lat="42.7601280" lon="-8.6534220">
        <ele>14.9</ele>
        <time>2021-05-23T13:12:40Z</time>
      </trkpt>
      <trkpt lat="42.7601340" lon="-8.6534300">
        <ele>14.8</ele>
        <time>2021-05-23T13:12:41Z</time>
      </trkpt>
      <trkpt lat="42.7601420" lon="-8.6534390">
        <ele>14.8</ele>
        <time>2021-05-23T13:12:42Z</time>
      </trkpt>
      <trkpt lat="42.7601530" lon="-8.6534470">
        <ele>14.7</ele>
        <time>2021-05-23T13:12:43Z</time>
      </trkpt>
      <trkpt lat="42.7601630" lon="-8.6534540">
        <ele>14.7</ele>
        <time>2021-05-23T13:12:44Z</time>
      </trkpt>
      <trkpt lat="42.7601740" lon="-8.6534510">
        <ele>14.6</ele>
        <time>2021-05-23T13:12:45Z</time>
      </trkpt>
      <trkpt lat="42.7601820" lon="-8.6534520">
        <ele>14.6</ele>
        <time>2021-05-23T13:12:46Z</time>
      </trkpt>
      <trkpt lat="42.7601990" lon="-8.6534470">
        <ele>14.6</ele>
        <time>2021-05-23T13:12:47Z</time>
      </trkpt>
      <trkpt lat="42.7601990" lon="-8.6534480">
        <ele>14.5</ele>
        <time>2021-05-23T13:12:48Z</time>
      </trkpt>
      <trkpt lat="42.7602200" lon="-8.6534540">
        <ele>14.5</ele>
        <time>2021-05-23T13:12:49Z</time>
      </trkpt>
      <trkpt lat="42.7602340" lon="-8.6534570">
        <ele>14.4</ele>
        <time>2021-05-23T13:12:50Z</time>
      </trkpt>
      <trkpt lat="42.7602410" lon="-8.6534540">
        <ele>14.4</ele>
        <time>2021-05-23T13:12:51Z</time>
      </trkpt>
      <trkpt lat="42.7602520" lon="-8.6534550">
        <ele>14.4</ele>
        <time>2021-05-23T13:12:52Z</time>
      </trkpt>
      <trkpt lat="42.7602630" lon="-8.6534540">
        <ele>14.3</ele>
        <time>2021-05-23T13:12:53Z</time>
      </trkpt>
      <trkpt lat="42.7602760" lon="-8.6534600">
        <ele>14.3</ele>
        <time>2021-05-23T13:12:54Z</time>
      </trkpt>
      <trkpt lat="42.7602810" lon="-8.6534540">
        <ele>14.3</ele>
        <time>2021-05-23T13:12:55Z</time>
      </trkpt>
      <trkpt lat="42.7602890" lon="-8.6534480">
        <ele>14.3</ele>
        <time>2021-05-23T13:12:56Z</time>
      </trkpt>
      <trkpt lat="42.7602940" lon="-8.6534480">
        <ele>14.3</ele>
        <time>2021-05-23T13:12:57Z</time>
      </trkpt>
      <trkpt lat="42.7603010" lon="-8.6534460">
        <ele>14.2</ele>
        <time>2021-05-23T13:12:58Z</time>
      </trkpt>
      <trkpt lat="42.7603040" lon="-8.6534470">
        <ele>14.2</ele>
        <time>2021-05-23T13:12:59Z</time>
      </trkpt>
      <trkpt lat="42.7603110" lon="-8.6534500">
        <ele>14.2</ele>
        <time>2021-05-23T13:13:00Z</time>
      </trkpt>
      <trkpt lat="42.7603270" lon="-8.6534530">
        <ele>14.2</ele>
        <time>2021-05-23T13:13:01Z</time>
      </trkpt>
      <trkpt lat="42.7603520" lon="-8.6534580">
        <ele>14.2</ele>
        <time>2021-05-23T13:13:02Z</time>
      </trkpt>
      <trkpt lat="42.7603600" lon="-8.6534600">
        <ele>14.1</ele>
        <time>2021-05-23T13:13:03Z</time>
      </trkpt>
      <trkpt lat="42.7603680" lon="-8.6534620">
        <ele>14.1</ele>
        <time>2021-05-23T13:13:04Z</time>
      </trkpt>
      <trkpt lat="42.7603880" lon="-8.6534660">
        <ele>14.1</ele>
        <time>2021-05-23T13:13:05Z</time>
      </trkpt>
      <trkpt lat="42.7603960" lon="-8.6534660">
        <ele>14.1</ele>
        <time>2021-05-23T13:13:06Z</time>
      </trkpt>
      <trkpt lat="42.7604050" lon="-8.6534670">
        <ele>14.1</ele>
        <time>2021-05-23T13:13:07Z</time>
      </trkpt>
      <trkpt lat="42.7604270" lon="-8.6534680">
        <ele>14.1</ele>
        <time>2021-05-23T13:13:08Z</time>
      </trkpt>
      <trkpt lat="42.7604340" lon="-8.6534710">
        <ele>14.1</ele>
        <time>2021-05-23T13:13:09Z</time>
      </trkpt>
      <trkpt lat="42.7604420" lon="-8.6534730">
        <ele>14.0</ele>
        <time>2021-05-23T13:13:10Z</time>
      </trkpt>
      <trkpt lat="42.7604530" lon="-8.6534780">
        <ele>14.0</ele>
        <time>2021-05-23T13:13:11Z</time>
      </trkpt>
      <trkpt lat="42.7604650" lon="-8.6534800">
        <ele>14.0</ele>
        <time>2021-05-23T13:13:12Z</time>
      </trkpt>
      <trkpt lat="42.7604730" lon="-8.6534830">
        <ele>14.0</ele>
        <time>2021-05-23T13:13:13Z</time>
      </trkpt>
      <trkpt lat="42.7604900" lon="-8.6534810">
        <ele>14.0</ele>
        <time>2021-05-23T13:13:14Z</time>
      </trkpt>
      <trkpt lat="42.7605030" lon="-8.6534640">
        <ele>14.0</ele>
        <time>2021-05-23T13:13:15Z</time>
      </trkpt>
      <trkpt lat="42.7605060" lon="-8.6534600">
        <ele>14.0</ele>
        <time>2021-05-23T13:13:16Z</time>
      </trkpt>
      <trkpt lat="42.7605090" lon="-8.6534620">
        <ele>14.0</ele>
        <time>2021-05-23T13:13:17Z</time>
      </trkpt>
      <trkpt lat="42.7605130" lon="-8.6534640">
        <ele>14.0</ele>
        <time>2021-05-23T13:13:18Z</time>
      </trkpt>
      <trkpt lat="42.7605160" lon="-8.6534660">
        <ele>14.0</ele>
        <time>2021-05-23T13:13:19Z</time>
      </trkpt>
      <trkpt lat="42.7605200" lon="-8.6534680">
        <ele>14.0</ele>
        <time>2021-05-23T13:13:20Z</time>
      </trkpt>
      <trkpt lat="42.7605230" lon="-8.6534700">
        <ele>14.0</ele>
        <time>2021-05-23T13:13:21Z</time>
      </trkpt>
      <trkpt lat="42.7605270" lon="-8.6534720">
        <ele>14.0</ele>
        <time>2021-05-23T13:13:22Z</time>
      </trkpt>
      <trkpt lat="42.7605300" lon="-8.6534740">
        <ele>14.0</ele>
        <time>2021-05-23T13:13:23Z</time>
      </trkpt>
      <trkpt lat="42.7605340" lon="-8.6534760">
        <ele>14.0</ele>
        <time>2021-05-23T13:13:24Z</time>
      </trkpt>
      <trkpt lat="42.7605370" lon="-8.6534780">
        <ele>14.0</ele>
        <time>2021-05-23T13:13:25Z</time>
      </trkpt>
      <trkpt lat="42.7605410" lon="-8.6534800">
        <ele>14.0</ele>
        <time>2021-05-23T13:13:26Z</time>
      </trkpt>
      <trkpt lat="42.7605440" lon="-8.6534820">
        <ele>14.0</ele>
        <time>2021-05-23T13:13:27Z</time>
      </trkpt>
      <trkpt lat="42.7605610" lon="-8.6534860">
        <ele>13.9</ele>
        <time>2021-05-23T13:13:28Z</time>
      </trkpt>
      <trkpt lat="42.7605750" lon="-8.6534980">
        <ele>13.9</ele>
        <time>2021-05-23T13:13:29Z</time>
      </trkpt>
      <trkpt lat="42.7605810" lon="-8.6535100">
        <ele>13.9</ele>
        <time>2021-05-23T13:13:30Z</time>
      </trkpt>
      <trkpt lat="42.7605920" lon="-8.6535210">
        <ele>13.9</ele>
        <time>2021-05-23T13:13:31Z</time>
      </trkpt>
      <trkpt lat="42.7605800" lon="-8.6535150">
        <ele>13.9</ele>
        <time>2021-05-23T13:13:32Z</time>
      </trkpt>
      <trkpt lat="42.7605780" lon="-8.6535140">
        <ele>13.9</ele>
        <time>2021-05-23T13:13:33Z</time>
      </trkpt>
      <trkpt lat="42.7605960" lon="-8.6535190">
        <ele>13.9</ele>
        <time>2021-05-23T13:13:34Z</time>
      </trkpt>
      <trkpt lat="42.7605920" lon="-8.6535150">
        <ele>13.9</ele>
        <time>2021-05-23T13:13:35Z</time>
      </trkpt>
      <trkpt lat="42.7605860" lon="-8.6535200">
        <ele>13.9</ele>
        <time>2021-05-23T13:13:36Z</time>
      </trkpt>
      <trkpt lat="42.7605840" lon="-8.6535190">
        <ele>13.9</ele>
        <time>2021-05-23T13:13:37Z</time>
      </trkpt>
      <trkpt lat="42.7606090" lon="-8.6535130">
        <ele>13.8</ele>
        <time>2021-05-23T13:13:38Z</time>
      </trkpt>
      <trkpt lat="42.7606300" lon="-8.6535270">
        <ele>13.8</ele>
        <time>2021-05-23T13:13:39Z</time>
      </trkpt>
      <trkpt lat="42.7606420" lon="-8.6535290">
        <ele>13.8</ele>
        <time>2021-05-23T13:13:40Z</time>
      </trkpt>
      <trkpt lat="42.7606500" lon="-8.6535250">
        <ele>13.8</ele>
        <time>2021-05-23T13:13:41Z</time>
      </trkpt>
      <trkpt lat="42.7606690" lon="-8.6535250">
        <ele>13.8</ele>
        <time>2021-05-23T13:13:42Z</time>
      </trkpt>
      <trkpt lat="42.7606860" lon="-8.6535280">
        <ele>13.8</ele>
        <time>2021-05-23T13:13:43Z</time>
      </trkpt>
      <trkpt lat="42.7606970" lon="-8.6535260">
        <ele>13.8</ele>
        <time>2021-05-23T13:13:44Z</time>
      </trkpt>
      <trkpt lat="42.7607110" lon="-8.6535450">
        <ele>13.8</ele>
        <time>2021-05-23T13:13:45Z</time>
      </trkpt>
      <trkpt lat="42.7607280" lon="-8.6535460">
        <ele>13.7</ele>
        <time>2021-05-23T13:13:46Z</time>
      </trkpt>
      <trkpt lat="42.7607420" lon="-8.6535480">
        <ele>13.7</ele>
        <time>2021-05-23T13:13:47Z</time>
      </trkpt>
      <trkpt lat="42.7607580" lon="-8.6535460">
        <ele>13.7</ele>
        <time>2021-05-23T13:13:48Z</time>
      </trkpt>
      <trkpt lat="42.7607810" lon="-8.6535480">
        <ele>13.7</ele>
        <time>2021-05-23T13:13:49Z</time>
      </trkpt>
      <trkpt lat="42.7607920" lon="-8.6535500">
        <ele>13.7</ele>
        <time>2021-05-23T13:13:50Z</time>
      </trkpt>
      <trkpt lat="42.7608020" lon="-8.6535510">
        <ele>13.7</ele>
        <time>2021-05-23T13:13:51Z</time>
      </trkpt>
      <trkpt lat="42.7608310" lon="-8.6535500">
        <ele>13.7</ele>
        <time>2021-05-23T13:13:52Z</time>
      </trkpt>
      <trkpt lat="42.7608400" lon="-8.6535490">
        <ele>13.7</ele>
        <time>2021-05-23T13:13:53Z</time>
      </trkpt>
      <trkpt lat="42.7608620" lon="-8.6535530">
        <ele>13.7</ele>
        <time>2021-05-23T13:13:54Z</time>
      </trkpt>
      <trkpt lat="42.7608720" lon="-8.6535550">
        <ele>13.7</ele>
        <time>2021-05-23T13:13:55Z</time>
      </trkpt>
      <trkpt lat="42.7608820" lon="-8.6535560">
        <ele>13.7</ele>
        <time>2021-05-23T13:13:56Z</time>
      </trkpt>
      <trkpt lat="42.7608970" lon="-8.6535530">
        <ele>13.7</ele>
        <time>2021-05-23T13:13:57Z</time>
      </trkpt>
      <trkpt lat="42.7609170" lon="-8.6535610">
        <ele>13.7</ele>
        <time>2021-05-23T13:13:58Z</time>
      </trkpt>
      <trkpt lat="42.7609320" lon="-8.6535620">
        <ele>13.7</ele>
        <time>2021-05-23T13:13:59Z</time>
      </trkpt>
      <trkpt lat="42.7609480" lon="-8.6535590">
        <ele>13.6</ele>
        <time>2021-05-23T13:14:00Z</time>
      </trkpt>
      <trkpt lat="42.7609640" lon="-8.6535690">
        <ele>13.6</ele>
        <time>2021-05-23T13:14:01Z</time>
      </trkpt>
      <trkpt lat="42.7609780" lon="-8.6535700">
        <ele>13.6</ele>
        <time>2021-05-23T13:14:02Z</time>
      </trkpt>
      <trkpt lat="42.7610010" lon="-8.6535730">
        <ele>13.6</ele>
        <time>2021-05-23T13:14:03Z</time>
      </trkpt>
      <trkpt lat="42.7610090" lon="-8.6535740">
        <ele>13.6</ele>
        <time>2021-05-23T13:14:04Z</time>
      </trkpt>
      <trkpt lat="42.7610180" lon="-8.6535750">
        <ele>13.6</ele>
        <time>2021-05-23T13:14:05Z</time>
      </trkpt>
      <trkpt lat="42.7610440" lon="-8.6535780">
        <ele>13.6</ele>
        <time>2021-05-23T13:14:06Z</time>
      </trkpt>
      <trkpt lat="42.7610540" lon="-8.6535780">
        <ele>13.6</ele>
        <time>2021-05-23T13:14:07Z</time>
      </trkpt>
      <trkpt lat="42.7610690" lon="-8.6535730">
        <ele>13.6</ele>
        <time>2021-05-23T13:14:08Z</time>
      </trkpt>
      <trkpt lat="42.7610830" lon="-8.6535820">
        <ele>13.6</ele>
        <time>2021-05-23T13:14:09Z</time>
      </trkpt>
      <trkpt lat="42.7611010" lon="-8.6535850">
        <ele>13.6</ele>
        <time>2021-05-23T13:14:10Z</time>
      </trkpt>
      <trkpt lat="42.7611170" lon="-8.6535820">
        <ele>13.6</ele>
        <time>2021-05-23T13:14:11Z</time>
      </trkpt>
      <trkpt lat="42.7611300" lon="-8.6535880">
        <ele>13.6</ele>
        <time>2021-05-23T13:14:12Z</time>
      </trkpt>
      <trkpt lat="42.7611440" lon="-8.6535890">
        <ele>13.6</ele>
        <time>2021-05-23T13:14:13Z</time>
      </trkpt>
      <trkpt lat="42.7611570" lon="-8.6535940">
        <ele>13.6</ele>
        <time>2021-05-23T13:14:14Z</time>
      </trkpt>
      <trkpt lat="42.7611770" lon="-8.6535900">
        <ele>13.6</ele>
        <time>2021-05-23T13:14:15Z</time>
      </trkpt>
      <trkpt lat="42.7611910" lon="-8.6535970">
        <ele>13.6</ele>
        <time>2021-05-23T13:14:16Z</time>
      </trkpt>
      <trkpt lat="42.7612050" lon="-8.6535910">
        <ele>13.6</ele>
        <time>2021-05-23T13:14:17Z</time>
      </trkpt>
      <trkpt lat="42.7612200" lon="-8.6535880">
        <ele>13.6</ele>
        <time>2021-05-23T13:14:18Z</time>
      </trkpt>
      <trkpt lat="42.7612340" lon="-8.6535970">
        <ele>13.6</ele>
        <time>2021-05-23T13:14:19Z</time>
      </trkpt>
      <trkpt lat="42.7612500" lon="-8.6535960">
        <ele>13.6</ele>
        <time>2021-05-23T13:14:20Z</time>
      </trkpt>
      <trkpt lat="42.7612650" lon="-8.6536000">
        <ele>13.6</ele>
        <time>2021-05-23T13:14:21Z</time>
      </trkpt>
      <trkpt lat="42.7612820" lon="-8.6536080">
        <ele>13.6</ele>
        <time>2021-05-23T13:14:22Z</time>
      </trkpt>
      <trkpt lat="42.7612980" lon="-8.6536100">
        <ele>13.6</ele>
        <time>2021-05-23T13:14:23Z</time>
      </trkpt>
      <trkpt lat="42.7613210" lon="-8.6536140">
        <ele>13.5</ele>
        <time>2021-05-23T13:14:24Z</time>
      </trkpt>
      <trkpt lat="42.7613290" lon="-8.6536150">
        <ele>13.5</ele>
        <time>2021-05-23T13:14:25Z</time>
      </trkpt>
      <trkpt lat="42.7613360" lon="-8.6536170">
        <ele>13.5</ele>
        <time>2021-05-23T13:14:26Z</time>
      </trkpt>
      <trkpt lat="42.7613520" lon="-8.6536180">
        <ele>13.5</ele>
        <time>2021-05-23T13:14:27Z</time>
      </trkpt>
      <trkpt lat="42.7613710" lon="-8.6536180">
        <ele>13.4</ele>
        <time>2021-05-23T13:14:28Z</time>
      </trkpt>
      <trkpt lat="42.7613890" lon="-8.6536180">
        <ele>13.4</ele>
        <time>2021-05-23T13:14:29Z</time>
      </trkpt>
      <trkpt lat="42.7614030" lon="-8.6536210">
        <ele>13.4</ele>
        <time>2021-05-23T13:14:30Z</time>
      </trkpt>
      <trkpt lat="42.7614170" lon="-8.6536160">
        <ele>13.4</ele>
        <time>2021-05-23T13:14:31Z</time>
      </trkpt>
      <trkpt lat="42.7614310" lon="-8.6536250">
        <ele>13.3</ele>
        <time>2021-05-23T13:14:32Z</time>
      </trkpt>
      <trkpt lat="42.7614470" lon="-8.6536250">
        <ele>13.3</ele>
        <time>2021-05-23T13:14:33Z</time>
      </trkpt>
      <trkpt lat="42.7614600" lon="-8.6536380">
        <ele>13.3</ele>
        <time>2021-05-23T13:14:34Z</time>
      </trkpt>
      <trkpt lat="42.7614720" lon="-8.6536440">
        <ele>13.2</ele>
        <time>2021-05-23T13:14:35Z</time>
      </trkpt>
      <trkpt lat="42.7614890" lon="-8.6536400">
        <ele>13.2</ele>
        <time>2021-05-23T13:14:36Z</time>
      </trkpt>
      <trkpt lat="42.7615010" lon="-8.6536560">
        <ele>13.2</ele>
        <time>2021-05-23T13:14:37Z</time>
      </trkpt>
      <trkpt lat="42.7615160" lon="-8.6536590">
        <ele>13.2</ele>
        <time>2021-05-23T13:14:38Z</time>
      </trkpt>
      <trkpt lat="42.7615300" lon="-8.6536550">
        <ele>13.1</ele>
        <time>2021-05-23T13:14:39Z</time>
      </trkpt>
      <trkpt lat="42.7615470" lon="-8.6536520">
        <ele>13.1</ele>
        <time>2021-05-23T13:14:40Z</time>
      </trkpt>
      <trkpt lat="42.7615600" lon="-8.6536490">
        <ele>13.1</ele>
        <time>2021-05-23T13:14:41Z</time>
      </trkpt>
      <trkpt lat="42.7615780" lon="-8.6536510">
        <ele>13.1</ele>
        <time>2021-05-23T13:14:42Z</time>
      </trkpt>
      <trkpt lat="42.7615920" lon="-8.6536570">
        <ele>13.0</ele>
        <time>2021-05-23T13:14:43Z</time>
      </trkpt>
      <trkpt lat="42.7616090" lon="-8.6536620">
        <ele>13.0</ele>
        <time>2021-05-23T13:14:44Z</time>
      </trkpt>
      <trkpt lat="42.7616290" lon="-8.6536700">
        <ele>13.0</ele>
        <time>2021-05-23T13:14:45Z</time>
      </trkpt>
      <trkpt lat="42.7616370" lon="-8.6536910">
        <ele>12.9</ele>
        <time>2021-05-23T13:14:46Z</time>
      </trkpt>
      <trkpt lat="42.7616510" lon="-8.6536910">
        <ele>12.9</ele>
        <time>2021-05-23T13:14:47Z</time>
      </trkpt>
      <trkpt lat="42.7616660" lon="-8.6536940">
        <ele>12.9</ele>
        <time>2021-05-23T13:14:48Z</time>
      </trkpt>
      <trkpt lat="42.7616750" lon="-8.6537040">
        <ele>12.9</ele>
        <time>2021-05-23T13:14:49Z</time>
      </trkpt>
      <trkpt lat="42.7616960" lon="-8.6536970">
        <ele>12.9</ele>
        <time>2021-05-23T13:14:50Z</time>
      </trkpt>
      <trkpt lat="42.7617130" lon="-8.6537060">
        <ele>12.8</ele>
        <time>2021-05-23T13:14:51Z</time>
      </trkpt>
      <trkpt lat="42.7617240" lon="-8.6537090">
        <ele>12.8</ele>
        <time>2021-05-23T13:14:52Z</time>
      </trkpt>
      <trkpt lat="42.7617340" lon="-8.6537120">
        <ele>12.8</ele>
        <time>2021-05-23T13:14:53Z</time>
      </trkpt>
      <trkpt lat="42.7617500" lon="-8.6537120">
        <ele>12.8</ele>
        <time>2021-05-23T13:14:54Z</time>
      </trkpt>
      <trkpt lat="42.7617670" lon="-8.6537130">
        <ele>12.8</ele>
        <time>2021-05-23T13:14:55Z</time>
      </trkpt>
      <trkpt lat="42.7617800" lon="-8.6537050">
        <ele>12.8</ele>
        <time>2021-05-23T13:14:56Z</time>
      </trkpt>
      <trkpt lat="42.7617960" lon="-8.6537090">
        <ele>12.8</ele>
        <time>2021-05-23T13:14:57Z</time>
      </trkpt>
      <trkpt lat="42.7618050" lon="-8.6537130">
        <ele>12.8</ele>
        <time>2021-05-23T13:14:58Z</time>
      </trkpt>
      <trkpt lat="42.7618220" lon="-8.6537240">
        <ele>12.7</ele>
        <time>2021-05-23T13:14:59Z</time>
      </trkpt>
      <trkpt lat="42.7618400" lon="-8.6537300">
        <ele>12.7</ele>
        <time>2021-05-23T13:15:00Z</time>
      </trkpt>
      <trkpt lat="42.7618530" lon="-8.6537390">
        <ele>12.7</ele>
        <time>2021-05-23T13:15:01Z</time>
      </trkpt>
      <trkpt lat="42.7618690" lon="-8.6537360">
        <ele>12.7</ele>
        <time>2021-05-23T13:15:02Z</time>
      </trkpt>
      <trkpt lat="42.7618830" lon="-8.6537410">
        <ele>12.7</ele>
        <time>2021-05-23T13:15:03Z</time>
      </trkpt>
      <trkpt lat="42.7618990" lon="-8.6537470">
        <ele>12.7</ele>
        <time>2021-05-23T13:15:04Z</time>
      </trkpt>
      <trkpt lat="42.7619100" lon="-8.6537430">
        <ele>12.7</ele>
        <time>2021-05-23T13:15:05Z</time>
      </trkpt>
      <trkpt lat="42.7619270" lon="-8.6537460">
        <ele>12.7</ele>
        <time>2021-05-23T13:15:06Z</time>
      </trkpt>
      <trkpt lat="42.7619400" lon="-8.6537450">
        <ele>12.7</ele>
        <time>2021-05-23T13:15:07Z</time>
      </trkpt>
      <trkpt lat="42.7619650" lon="-8.6537560">
        <ele>12.8</ele>
        <time>2021-05-23T13:15:08Z</time>
      </trkpt>
      <trkpt lat="42.7619750" lon="-8.6537600">
        <ele>12.8</ele>
        <time>2021-05-23T13:15:09Z</time>
      </trkpt>
      <trkpt lat="42.7619950" lon="-8.6537680">
        <ele>12.8</ele>
        <time>2021-05-23T13:15:10Z</time>
      </trkpt>
      <trkpt lat="42.7620030" lon="-8.6537690">
        <ele>12.8</ele>
        <time>2021-05-23T13:15:11Z</time>
      </trkpt>
      <trkpt lat="42.7620120" lon="-8.6537690">
        <ele>12.8</ele>
        <time>2021-05-23T13:15:12Z</time>
      </trkpt>
      <trkpt lat="42.7620330" lon="-8.6537720">
        <ele>12.8</ele>
        <time>2021-05-23T13:15:13Z</time>
      </trkpt>
      <trkpt lat="42.7620600" lon="-8.6537750">
        <ele>12.9</ele>
        <time>2021-05-23T13:15:14Z</time>
      </trkpt>
      <trkpt lat="42.7620740" lon="-8.6537820">
        <ele>12.9</ele>
        <time>2021-05-23T13:15:15Z</time>
      </trkpt>
      <trkpt lat="42.7620890" lon="-8.6537860">
        <ele>12.9</ele>
        <time>2021-05-23T13:15:16Z</time>
      </trkpt>
      <trkpt lat="42.7621010" lon="-8.6537860">
        <ele>12.9</ele>
        <time>2021-05-23T13:15:17Z</time>
      </trkpt>
      <trkpt lat="42.7621220" lon="-8.6537930">
        <ele>12.9</ele>
        <time>2021-05-23T13:15:18Z</time>
      </trkpt>
      <trkpt lat="42.7621310" lon="-8.6537960">
        <ele>12.9</ele>
        <time>2021-05-23T13:15:19Z</time>
      </trkpt>
      <trkpt lat="42.7621390" lon="-8.6537990">
        <ele>13.0</ele>
        <time>2021-05-23T13:15:20Z</time>
      </trkpt>
      <trkpt lat="42.7621640" lon="-8.6537900">
        <ele>13.0</ele>
        <time>2021-05-23T13:15:21Z</time>
      </trkpt>
      <trkpt lat="42.7621730" lon="-8.6537880">
        <ele>13.0</ele>
        <time>2021-05-23T13:15:22Z</time>
      </trkpt>
      <trkpt lat="42.7621810" lon="-8.6537850">
        <ele>13.0</ele>
        <time>2021-05-23T13:15:23Z</time>
      </trkpt>
      <trkpt lat="42.7622000" lon="-8.6537820">
        <ele>13.0</ele>
        <time>2021-05-23T13:15:24Z</time>
      </trkpt>
      <trkpt lat="42.7622090" lon="-8.6537790">
        <ele>13.0</ele>
        <time>2021-05-23T13:15:25Z</time>
      </trkpt>
      <trkpt lat="42.7622250" lon="-8.6537850">
        <ele>13.1</ele>
        <time>2021-05-23T13:15:26Z</time>
      </trkpt>
      <trkpt lat="42.7622380" lon="-8.6537880">
        <ele>13.1</ele>
        <time>2021-05-23T13:15:27Z</time>
      </trkpt>
      <trkpt lat="42.7622560" lon="-8.6537820">
        <ele>13.1</ele>
        <time>2021-05-23T13:15:28Z</time>
      </trkpt>
      <trkpt lat="42.7622650" lon="-8.6537810">
        <ele>13.1</ele>
        <time>2021-05-23T13:15:29Z</time>
      </trkpt>
      <trkpt lat="42.7622740" lon="-8.6537800">
        <ele>13.1</ele>
        <time>2021-05-23T13:15:30Z</time>
      </trkpt>
      <trkpt lat="42.7622860" lon="-8.6537710">
        <ele>13.1</ele>
        <time>2021-05-23T13:15:31Z</time>
      </trkpt>
      <trkpt lat="42.7623030" lon="-8.6537700">
        <ele>13.1</ele>
        <time>2021-05-23T13:15:32Z</time>
      </trkpt>
      <trkpt lat="42.7623180" lon="-8.6537600">
        <ele>13.2</ele>
        <time>2021-05-23T13:15:33Z</time>
      </trkpt>
      <trkpt lat="42.7623330" lon="-8.6537540">
        <ele>13.2</ele>
        <time>2021-05-23T13:15:34Z</time>
      </trkpt>
      <trkpt lat="42.7623500" lon="-8.6537470">
        <ele>13.2</ele>
        <time>2021-05-23T13:15:35Z</time>
      </trkpt>
      <trkpt lat="42.7623650" lon="-8.6537460">
        <ele>13.2</ele>
        <time>2021-05-23T13:15:36Z</time>
      </trkpt>
      <trkpt lat="42.7623800" lon="-8.6537430">
        <ele>13.2</ele>
        <time>2021-05-23T13:15:37Z</time>
      </trkpt>
      <trkpt lat="42.7623960" lon="-8.6537380">
        <ele>13.2</ele>
        <time>2021-05-23T13:15:38Z</time>
      </trkpt>
      <trkpt lat="42.7624080" lon="-8.6537300">
        <ele>13.2</ele>
        <time>2021-05-23T13:15:39Z</time>
      </trkpt>
      <trkpt lat="42.7624210" lon="-8.6537220">
        <ele>13.2</ele>
        <time>2021-05-23T13:15:40Z</time>
      </trkpt>
      <trkpt lat="42.7624360" lon="-8.6537190">
        <ele>13.3</ele>
        <time>2021-05-23T13:15:41Z</time>
      </trkpt>
      <trkpt lat="42.7624510" lon="-8.6537130">
        <ele>13.3</ele>
        <time>2021-05-23T13:15:42Z</time>
      </trkpt>
      <trkpt lat="42.7624660" lon="-8.6537100">
        <ele>13.3</ele>
        <time>2021-05-23T13:15:43Z</time>
      </trkpt>
      <trkpt lat="42.7624800" lon="-8.6537090">
        <ele>13.3</ele>
        <time>2021-05-23T13:15:44Z</time>
      </trkpt>
      <trkpt lat="42.7625050" lon="-8.6537150">
        <ele>13.3</ele>
        <time>2021-05-23T13:15:45Z</time>
      </trkpt>
      <trkpt lat="42.7625150" lon="-8.6537190">
        <ele>13.3</ele>
        <time>2021-05-23T13:15:47Z</time>
      </trkpt>
      <trkpt lat="42.7625250" lon="-8.6537220">
        <ele>13.4</ele>
        <time>2021-05-23T13:15:48Z</time>
      </trkpt>
      <trkpt lat="42.7625350" lon="-8.6537260">
        <ele>13.4</ele>
        <time>2021-05-23T13:15:49Z</time>
      </trkpt>
      <trkpt lat="42.7625450" lon="-8.6537290">
        <ele>13.4</ele>
        <time>2021-05-23T13:15:50Z</time>
      </trkpt>
      <trkpt lat="42.7625580" lon="-8.6537220">
        <ele>13.4</ele>
        <time>2021-05-23T13:15:51Z</time>
      </trkpt>
      <trkpt lat="42.7625720" lon="-8.6537200">
        <ele>13.4</ele>
        <time>2021-05-23T13:15:52Z</time>
      </trkpt>
      <trkpt lat="42.7625860" lon="-8.6537180">
        <ele>13.5</ele>
        <time>2021-05-23T13:15:53Z</time>
      </trkpt>
      <trkpt lat="42.7626010" lon="-8.6537200">
        <ele>13.5</ele>
        <time>2021-05-23T13:15:54Z</time>
      </trkpt>
      <trkpt lat="42.7626150" lon="-8.6537230">
        <ele>13.5</ele>
        <time>2021-05-23T13:15:55Z</time>
      </trkpt>
      <trkpt lat="42.7626280" lon="-8.6537340">
        <ele>13.6</ele>
        <time>2021-05-23T13:15:56Z</time>
      </trkpt>
      <trkpt lat="42.7626420" lon="-8.6537290">
        <ele>13.6</ele>
        <time>2021-05-23T13:15:57Z</time>
      </trkpt>
      <trkpt lat="42.7626560" lon="-8.6537230">
        <ele>13.6</ele>
        <time>2021-05-23T13:15:58Z</time>
      </trkpt>
      <trkpt lat="42.7626710" lon="-8.6537170">
        <ele>13.7</ele>
        <time>2021-05-23T13:15:59Z</time>
      </trkpt>
      <trkpt lat="42.7626850" lon="-8.6537170">
        <ele>13.7</ele>
        <time>2021-05-23T13:16:00Z</time>
      </trkpt>
      <trkpt lat="42.7626980" lon="-8.6537110">
        <ele>13.8</ele>
        <time>2021-05-23T13:16:01Z</time>
      </trkpt>
      <trkpt lat="42.7627120" lon="-8.6537030">
        <ele>13.8</ele>
        <time>2021-05-23T13:16:02Z</time>
      </trkpt>
      <trkpt lat="42.7627260" lon="-8.6536990">
        <ele>13.8</ele>
        <time>2021-05-23T13:16:03Z</time>
      </trkpt>
      <trkpt lat="42.7627390" lon="-8.6536930">
        <ele>13.9</ele>
        <time>2021-05-23T13:16:04Z</time>
      </trkpt>
      <trkpt lat="42.7627590" lon="-8.6536910">
        <ele>14.0</ele>
        <time>2021-05-23T13:16:05Z</time>
      </trkpt>
      <trkpt lat="42.7627680" lon="-8.6536860">
        <ele>14.0</ele>
        <time>2021-05-23T13:16:06Z</time>
      </trkpt>
      <trkpt lat="42.7627770" lon="-8.6536810">
        <ele>14.0</ele>
        <time>2021-05-23T13:16:07Z</time>
      </trkpt>
      <trkpt lat="42.7627990" lon="-8.6536770">
        <ele>14.1</ele>
        <time>2021-05-23T13:16:08Z</time>
      </trkpt>
      <trkpt lat="42.7628100" lon="-8.6536760">
        <ele>14.1</ele>
        <time>2021-05-23T13:16:09Z</time>
      </trkpt>
      <trkpt lat="42.7628200" lon="-8.6536750">
        <ele>14.2</ele>
        <time>2021-05-23T13:16:10Z</time>
      </trkpt>
      <trkpt lat="42.7628330" lon="-8.6536650">
        <ele>14.2</ele>
        <time>2021-05-23T13:16:11Z</time>
      </trkpt>
      <trkpt lat="42.7628470" lon="-8.6536660">
        <ele>14.3</ele>
        <time>2021-05-23T13:16:12Z</time>
      </trkpt>
      <trkpt lat="42.7628620" lon="-8.6536610">
        <ele>14.3</ele>
        <time>2021-05-23T13:16:13Z</time>
      </trkpt>
      <trkpt lat="42.7628770" lon="-8.6536590">
        <ele>14.4</ele>
        <time>2021-05-23T13:16:14Z</time>
      </trkpt>
      <trkpt lat="42.7628920" lon="-8.6536520">
        <ele>14.4</ele>
        <time>2021-05-23T13:16:15Z</time>
      </trkpt>
      <trkpt lat="42.7629060" lon="-8.6536510">
        <ele>14.3</ele>
        <time>2021-05-23T13:16:16Z</time>
      </trkpt>
      <trkpt lat="42.7629280" lon="-8.6536450">
        <ele>14.3</ele>
        <time>2021-05-23T13:16:17Z</time>
      </trkpt>
      <trkpt lat="42.7629350" lon="-8.6536450">
        <ele>14.3</ele>
        <time>2021-05-23T13:16:18Z</time>
      </trkpt>
      <trkpt lat="42.7629430" lon="-8.6536440">
        <ele>14.3</ele>
        <time>2021-05-23T13:16:19Z</time>
      </trkpt>
      <trkpt lat="42.7629540" lon="-8.6536430">
        <ele>14.2</ele>
        <time>2021-05-23T13:16:20Z</time>
      </trkpt>
      <trkpt lat="42.7629660" lon="-8.6536470">
        <ele>14.2</ele>
        <time>2021-05-23T13:16:21Z</time>
      </trkpt>
      <trkpt lat="42.7629770" lon="-8.6536600">
        <ele>14.2</ele>
        <time>2021-05-23T13:16:22Z</time>
      </trkpt>
      <trkpt lat="42.7629860" lon="-8.6536900">
        <ele>14.1</ele>
        <time>2021-05-23T13:16:23Z</time>
      </trkpt>
      <trkpt lat="42.7629920" lon="-8.6536960">
        <ele>14.1</ele>
        <time>2021-05-23T13:16:24Z</time>
      </trkpt>
      <trkpt lat="42.7629980" lon="-8.6537020">
        <ele>14.0</ele>
        <time>2021-05-23T13:16:25Z</time>
      </trkpt>
      <trkpt lat="42.7630000" lon="-8.6537150">
        <ele>14.0</ele>
        <time>2021-05-23T13:16:26Z</time>
      </trkpt>
      <trkpt lat="42.7630080" lon="-8.6537310">
        <ele>14.0</ele>
        <time>2021-05-23T13:16:27Z</time>
      </trkpt>
      <trkpt lat="42.7630110" lon="-8.6537390">
        <ele>13.9</ele>
        <time>2021-05-23T13:16:28Z</time>
      </trkpt>
      <trkpt lat="42.7630190" lon="-8.6537630">
        <ele>13.9</ele>
        <time>2021-05-23T13:16:29Z</time>
      </trkpt>
      <trkpt lat="42.7630300" lon="-8.6537740">
        <ele>13.8</ele>
        <time>2021-05-23T13:16:30Z</time>
      </trkpt>
      <trkpt lat="42.7630460" lon="-8.6537910">
        <ele>13.8</ele>
        <time>2021-05-23T13:16:31Z</time>
      </trkpt>
      <trkpt lat="42.7630500" lon="-8.6538030">
        <ele>13.8</ele>
        <time>2021-05-23T13:16:32Z</time>
      </trkpt>
      <trkpt lat="42.7630540" lon="-8.6538160">
        <ele>13.7</ele>
        <time>2021-05-23T13:16:33Z</time>
      </trkpt>
      <trkpt lat="42.7630670" lon="-8.6538310">
        <ele>13.7</ele>
        <time>2021-05-23T13:16:34Z</time>
      </trkpt>
      <trkpt lat="42.7630720" lon="-8.6538410">
        <ele>13.6</ele>
        <time>2021-05-23T13:16:35Z</time>
      </trkpt>
      <trkpt lat="42.7630770" lon="-8.6538510">
        <ele>13.6</ele>
        <time>2021-05-23T13:16:36Z</time>
      </trkpt>
      <trkpt lat="42.7630820" lon="-8.6538610">
        <ele>13.6</ele>
        <time>2021-05-23T13:16:37Z</time>
      </trkpt>
      <trkpt lat="42.7630860" lon="-8.6538810">
        <ele>13.5</ele>
        <time>2021-05-23T13:16:38Z</time>
      </trkpt>
      <trkpt lat="42.7630930" lon="-8.6538980">
        <ele>13.5</ele>
        <time>2021-05-23T13:16:39Z</time>
      </trkpt>
      <trkpt lat="42.7631130" lon="-8.6539160">
        <ele>13.4</ele>
        <time>2021-05-23T13:16:40Z</time>
      </trkpt>
      <trkpt lat="42.7631200" lon="-8.6539260">
        <ele>13.4</ele>
        <time>2021-05-23T13:16:41Z</time>
      </trkpt>
      <trkpt lat="42.7631260" lon="-8.6539350">
        <ele>13.4</ele>
        <time>2021-05-23T13:16:42Z</time>
      </trkpt>
      <trkpt lat="42.7631320" lon="-8.6539520">
        <ele>13.3</ele>
        <time>2021-05-23T13:16:43Z</time>
      </trkpt>
      <trkpt lat="42.7631470" lon="-8.6539700">
        <ele>13.3</ele>
        <time>2021-05-23T13:16:44Z</time>
      </trkpt>
      <trkpt lat="42.7631530" lon="-8.6539820">
        <ele>13.2</ele>
        <time>2021-05-23T13:16:45Z</time>
      </trkpt>
      <trkpt lat="42.7631620" lon="-8.6540060">
        <ele>13.2</ele>
        <time>2021-05-23T13:16:46Z</time>
      </trkpt>
      <trkpt lat="42.7631700" lon="-8.6540230">
        <ele>13.2</ele>
        <time>2021-05-23T13:16:47Z</time>
      </trkpt>
      <trkpt lat="42.7631790" lon="-8.6540430">
        <ele>13.1</ele>
        <time>2021-05-23T13:16:48Z</time>
      </trkpt>
      <trkpt lat="42.7631910" lon="-8.6540610">
        <ele>13.1</ele>
        <time>2021-05-23T13:16:49Z</time>
      </trkpt>
      <trkpt lat="42.7632000" lon="-8.6540730">
        <ele>13.0</ele>
        <time>2021-05-23T13:16:50Z</time>
      </trkpt>
      <trkpt lat="42.7632120" lon="-8.6540890">
        <ele>13.0</ele>
        <time>2021-05-23T13:16:51Z</time>
      </trkpt>
      <trkpt lat="42.7632200" lon="-8.6540880">
        <ele>13.0</ele>
        <time>2021-05-23T13:16:52Z</time>
      </trkpt>
      <trkpt lat="42.7632260" lon="-8.6540990">
        <ele>13.0</ele>
        <time>2021-05-23T13:16:53Z</time>
      </trkpt>
      <trkpt lat="42.7632310" lon="-8.6541160">
        <ele>13.0</ele>
        <time>2021-05-23T13:16:54Z</time>
      </trkpt>
      <trkpt lat="42.7632440" lon="-8.6541390">
        <ele>12.9</ele>
        <time>2021-05-23T13:16:55Z</time>
      </trkpt>
      <trkpt lat="42.7632520" lon="-8.6541450">
        <ele>12.9</ele>
        <time>2021-05-23T13:16:56Z</time>
      </trkpt>
      <trkpt lat="42.7632560" lon="-8.6541600">
        <ele>12.9</ele>
        <time>2021-05-23T13:16:57Z</time>
      </trkpt>
      <trkpt lat="42.7632660" lon="-8.6541690">
        <ele>12.9</ele>
        <time>2021-05-23T13:16:58Z</time>
      </trkpt>
      <trkpt lat="42.7632830" lon="-8.6541770">
        <ele>12.8</ele>
        <time>2021-05-23T13:16:59Z</time>
      </trkpt>
      <trkpt lat="42.7632880" lon="-8.6541850">
        <ele>12.8</ele>
        <time>2021-05-23T13:17:00Z</time>
      </trkpt>
      <trkpt lat="42.7632930" lon="-8.6542000">
        <ele>12.8</ele>
        <time>2021-05-23T13:17:01Z</time>
      </trkpt>
      <trkpt lat="42.7633040" lon="-8.6542180">
        <ele>12.8</ele>
        <time>2021-05-23T13:17:02Z</time>
      </trkpt>
      <trkpt lat="42.7633140" lon="-8.6542320">
        <ele>12.8</ele>
        <time>2021-05-23T13:17:03Z</time>
      </trkpt>
      <trkpt lat="42.7633200" lon="-8.6542440">
        <ele>12.8</ele>
        <time>2021-05-23T13:17:04Z</time>
      </trkpt>
      <trkpt lat="42.7633360" lon="-8.6542550">
        <ele>12.8</ele>
        <time>2021-05-23T13:17:05Z</time>
      </trkpt>
      <trkpt lat="42.7633560" lon="-8.6542810">
        <ele>12.8</ele>
        <time>2021-05-23T13:17:06Z</time>
      </trkpt>
      <trkpt lat="42.7633640" lon="-8.6542880">
        <ele>12.8</ele>
        <time>2021-05-23T13:17:07Z</time>
      </trkpt>
      <trkpt lat="42.7633800" lon="-8.6542970">
        <ele>12.7</ele>
        <time>2021-05-23T13:17:08Z</time>
      </trkpt>
      <trkpt lat="42.7633890" lon="-8.6543150">
        <ele>12.7</ele>
        <time>2021-05-23T13:17:09Z</time>
      </trkpt>
      <trkpt lat="42.7634030" lon="-8.6543370">
        <ele>12.7</ele>
        <time>2021-05-23T13:17:10Z</time>
      </trkpt>
      <trkpt lat="42.7634100" lon="-8.6543440">
        <ele>12.7</ele>
        <time>2021-05-23T13:17:11Z</time>
      </trkpt>
      <trkpt lat="42.7634160" lon="-8.6543500">
        <ele>12.7</ele>
        <time>2021-05-23T13:17:12Z</time>
      </trkpt>
      <trkpt lat="42.7634290" lon="-8.6543570">
        <ele>12.7</ele>
        <time>2021-05-23T13:17:13Z</time>
      </trkpt>
      <trkpt lat="42.7634420" lon="-8.6543700">
        <ele>12.7</ele>
        <time>2021-05-23T13:17:14Z</time>
      </trkpt>
      <trkpt lat="42.7634570" lon="-8.6543780">
        <ele>12.7</ele>
        <time>2021-05-23T13:17:15Z</time>
      </trkpt>
      <trkpt lat="42.7634670" lon="-8.6543780">
        <ele>12.7</ele>
        <time>2021-05-23T13:17:16Z</time>
      </trkpt>
      <trkpt lat="42.7634780" lon="-8.6543770">
        <ele>12.7</ele>
        <time>2021-05-23T13:17:17Z</time>
      </trkpt>
      <trkpt lat="42.7634980" lon="-8.6543970">
        <ele>12.7</ele>
        <time>2021-05-23T13:17:18Z</time>
      </trkpt>
      <trkpt lat="42.7635100" lon="-8.6544020">
        <ele>12.7</ele>
        <time>2021-05-23T13:17:19Z</time>
      </trkpt>
      <trkpt lat="42.7635220" lon="-8.6544070">
        <ele>12.7</ele>
        <time>2021-05-23T13:17:20Z</time>
      </trkpt>
      <trkpt lat="42.7635330" lon="-8.6544120">
        <ele>12.7</ele>
        <time>2021-05-23T13:17:21Z</time>
      </trkpt>
      <trkpt lat="42.7635370" lon="-8.6544120">
        <ele>12.7</ele>
        <time>2021-05-23T13:17:22Z</time>
      </trkpt>
      <trkpt lat="42.7635360" lon="-8.6544050">
        <ele>12.7</ele>
        <time>2021-05-23T13:17:23Z</time>
      </trkpt>
      <trkpt lat="42.7635460" lon="-8.6544060">
        <ele>12.7</ele>
        <time>2021-05-23T13:17:24Z</time>
      </trkpt>
      <trkpt lat="42.7635700" lon="-8.6544090">
        <ele>12.7</ele>
        <time>2021-05-23T13:17:25Z</time>
      </trkpt>
      <trkpt lat="42.7635760" lon="-8.6544100">
        <ele>12.8</ele>
        <time>2021-05-23T13:17:26Z</time>
      </trkpt>
      <trkpt lat="42.7635830" lon="-8.6544100">
        <ele>12.8</ele>
        <time>2021-05-23T13:17:27Z</time>
      </trkpt>
      <trkpt lat="42.7636040" lon="-8.6544090">
        <ele>12.8</ele>
        <time>2021-05-23T13:17:28Z</time>
      </trkpt>
      <trkpt lat="42.7636130" lon="-8.6544090">
        <ele>12.8</ele>
        <time>2021-05-23T13:17:29Z</time>
      </trkpt>
      <trkpt lat="42.7636210" lon="-8.6544080">
        <ele>12.8</ele>
        <time>2021-05-23T13:17:30Z</time>
      </trkpt>
      <trkpt lat="42.7636350" lon="-8.6544150">
        <ele>12.8</ele>
        <time>2021-05-23T13:17:31Z</time>
      </trkpt>
      <trkpt lat="42.7636450" lon="-8.6544100">
        <ele>12.8</ele>
        <time>2021-05-23T13:17:32Z</time>
      </trkpt>
      <trkpt lat="42.7636490" lon="-8.6544160">
        <ele>12.8</ele>
        <time>2021-05-23T13:17:33Z</time>
      </trkpt>
      <trkpt lat="42.7636790" lon="-8.6544090">
        <ele>12.8</ele>
        <time>2021-05-23T13:17:34Z</time>
      </trkpt>
      <trkpt lat="42.7636880" lon="-8.6544130">
        <ele>12.8</ele>
        <time>2021-05-23T13:17:35Z</time>
      </trkpt>
      <trkpt lat="42.7637040" lon="-8.6544220">
        <ele>12.8</ele>
        <time>2021-05-23T13:17:36Z</time>
      </trkpt>
      <trkpt lat="42.7637080" lon="-8.6544350">
        <ele>12.8</ele>
        <time>2021-05-23T13:17:37Z</time>
      </trkpt>
      <trkpt lat="42.7637170" lon="-8.6544380">
        <ele>12.9</ele>
        <time>2021-05-23T13:17:38Z</time>
      </trkpt>
      <trkpt lat="42.7637370" lon="-8.6544430">
        <ele>12.9</ele>
        <time>2021-05-23T13:17:39Z</time>
      </trkpt>
      <trkpt lat="42.7637540" lon="-8.6544510">
        <ele>12.9</ele>
        <time>2021-05-23T13:17:41Z</time>
      </trkpt>
      <trkpt lat="42.7637770" lon="-8.6544590">
        <ele>12.9</ele>
        <time>2021-05-23T13:17:42Z</time>
      </trkpt>
      <trkpt lat="42.7637890" lon="-8.6544600">
        <ele>12.9</ele>
        <time>2021-05-23T13:17:43Z</time>
      </trkpt>
      <trkpt lat="42.7638010" lon="-8.6544620">
        <ele>12.9</ele>
        <time>2021-05-23T13:17:44Z</time>
      </trkpt>
      <trkpt lat="42.7638140" lon="-8.6544710">
        <ele>12.9</ele>
        <time>2021-05-23T13:17:45Z</time>
      </trkpt>
      <trkpt lat="42.7638260" lon="-8.6544760">
        <ele>12.9</ele>
        <time>2021-05-23T13:17:46Z</time>
      </trkpt>
      <trkpt lat="42.7638450" lon="-8.6544790">
        <ele>12.9</ele>
        <time>2021-05-23T13:17:47Z</time>
      </trkpt>
      <trkpt lat="42.7638590" lon="-8.6544850">
        <ele>12.9</ele>
        <time>2021-05-23T13:17:48Z</time>
      </trkpt>
      <trkpt lat="42.7638700" lon="-8.6544820">
        <ele>12.9</ele>
        <time>2021-05-23T13:17:49Z</time>
      </trkpt>
      <trkpt lat="42.7638860" lon="-8.6544910">
        <ele>13.0</ele>
        <time>2021-05-23T13:17:50Z</time>
      </trkpt>
      <trkpt lat="42.7638980" lon="-8.6545060">
        <ele>13.0</ele>
        <time>2021-05-23T13:17:51Z</time>
      </trkpt>
      <trkpt lat="42.7639120" lon="-8.6545140">
        <ele>13.0</ele>
        <time>2021-05-23T13:17:52Z</time>
      </trkpt>
      <trkpt lat="42.7639310" lon="-8.6545320">
        <ele>13.0</ele>
        <time>2021-05-23T13:17:53Z</time>
      </trkpt>
      <trkpt lat="42.7639410" lon="-8.6545360">
        <ele>13.0</ele>
        <time>2021-05-23T13:17:54Z</time>
      </trkpt>
      <trkpt lat="42.7639500" lon="-8.6545410">
        <ele>13.0</ele>
        <time>2021-05-23T13:17:55Z</time>
      </trkpt>
      <trkpt lat="42.7639680" lon="-8.6545790">
        <ele>13.0</ele>
        <time>2021-05-23T13:17:56Z</time>
      </trkpt>
      <trkpt lat="42.7639750" lon="-8.6545840">
        <ele>13.0</ele>
        <time>2021-05-23T13:17:57Z</time>
      </trkpt>
      <trkpt lat="42.7639900" lon="-8.6545970">
        <ele>13.0</ele>
        <time>2021-05-23T13:17:58Z</time>
      </trkpt>
      <trkpt lat="42.7640020" lon="-8.6546000">
        <ele>13.0</ele>
        <time>2021-05-23T13:17:59Z</time>
      </trkpt>
      <trkpt lat="42.7640140" lon="-8.6545910">
        <ele>13.0</ele>
        <time>2021-05-23T13:18:00Z</time>
      </trkpt>
      <trkpt lat="42.7640210" lon="-8.6546110">
        <ele>13.0</ele>
        <time>2021-05-23T13:18:01Z</time>
      </trkpt>
      <trkpt lat="42.7640320" lon="-8.6546140">
        <ele>13.0</ele>
        <time>2021-05-23T13:18:02Z</time>
      </trkpt>
      <trkpt lat="42.7640480" lon="-8.6546200">
        <ele>13.0</ele>
        <time>2021-05-23T13:18:03Z</time>
      </trkpt>
      <trkpt lat="42.7640550" lon="-8.6546240">
        <ele>13.0</ele>
        <time>2021-05-23T13:18:04Z</time>
      </trkpt>
      <trkpt lat="42.7640670" lon="-8.6546200">
        <ele>13.0</ele>
        <time>2021-05-23T13:18:05Z</time>
      </trkpt>
      <trkpt lat="42.7640930" lon="-8.6546220">
        <ele>13.0</ele>
        <time>2021-05-23T13:18:06Z</time>
      </trkpt>
      <trkpt lat="42.7641020" lon="-8.6546200">
        <ele>13.0</ele>
        <time>2021-05-23T13:18:07Z</time>
      </trkpt>
      <trkpt lat="42.7641110" lon="-8.6546190">
        <ele>13.0</ele>
        <time>2021-05-23T13:18:08Z</time>
      </trkpt>
      <trkpt lat="42.7641230" lon="-8.6546270">
        <ele>13.0</ele>
        <time>2021-05-23T13:18:09Z</time>
      </trkpt>
      <trkpt lat="42.7641360" lon="-8.6546330">
        <ele>13.0</ele>
        <time>2021-05-23T13:18:10Z</time>
      </trkpt>
      <trkpt lat="42.7641490" lon="-8.6546510">
        <ele>13.0</ele>
        <time>2021-05-23T13:18:11Z</time>
      </trkpt>
      <trkpt lat="42.7641540" lon="-8.6546650">
        <ele>13.0</ele>
        <time>2021-05-23T13:18:12Z</time>
      </trkpt>
      <trkpt lat="42.7641620" lon="-8.6546900">
        <ele>13.0</ele>
        <time>2021-05-23T13:18:13Z</time>
      </trkpt>
      <trkpt lat="42.7641660" lon="-8.6547010">
        <ele>13.0</ele>
        <time>2021-05-23T13:18:14Z</time>
      </trkpt>
      <trkpt lat="42.7641700" lon="-8.6547110">
        <ele>13.0</ele>
        <time>2021-05-23T13:18:15Z</time>
      </trkpt>
      <trkpt lat="42.7641780" lon="-8.6547300">
        <ele>13.0</ele>
        <time>2021-05-23T13:18:16Z</time>
      </trkpt>
      <trkpt lat="42.7641860" lon="-8.6547400">
        <ele>13.0</ele>
        <time>2021-05-23T13:18:17Z</time>
      </trkpt>
      <trkpt lat="42.7641930" lon="-8.6547500">
        <ele>13.0</ele>
        <time>2021-05-23T13:18:18Z</time>
      </trkpt>
      <trkpt lat="42.7642020" lon="-8.6547590">
        <ele>13.0</ele>
        <time>2021-05-23T13:18:19Z</time>
      </trkpt>
      <trkpt lat="42.7642050" lon="-8.6547670">
        <ele>13.0</ele>
        <time>2021-05-23T13:18:20Z</time>
      </trkpt>
      <trkpt lat="42.7642060" lon="-8.6547690">
        <ele>13.0</ele>
        <time>2021-05-23T13:18:21Z</time>
      </trkpt>
      <trkpt lat="42.7642080" lon="-8.6547790">
        <ele>13.0</ele>
        <time>2021-05-23T13:18:22Z</time>
      </trkpt>
      <trkpt lat="42.7642190" lon="-8.6547790">
        <ele>13.0</ele>
        <time>2021-05-23T13:18:23Z</time>
      </trkpt>
      <trkpt lat="42.7642520" lon="-8.6547900">
        <ele>12.9</ele>
        <time>2021-05-23T13:18:24Z</time>
      </trkpt>
      <trkpt lat="42.7642640" lon="-8.6547890">
        <ele>12.9</ele>
        <time>2021-05-23T13:18:25Z</time>
      </trkpt>
      <trkpt lat="42.7642630" lon="-8.6548040">
        <ele>12.9</ele>
        <time>2021-05-23T13:18:26Z</time>
      </trkpt>
      <trkpt lat="42.7642820" lon="-8.6547870">
        <ele>12.9</ele>
        <time>2021-05-23T13:18:27Z</time>
      </trkpt>
      <trkpt lat="42.7642970" lon="-8.6548000">
        <ele>12.9</ele>
        <time>2021-05-23T13:18:28Z</time>
      </trkpt>
      <trkpt lat="42.7643180" lon="-8.6547920">
        <ele>12.8</ele>
        <time>2021-05-23T13:18:29Z</time>
      </trkpt>
      <trkpt lat="42.7643250" lon="-8.6548050">
        <ele>12.8</ele>
        <time>2021-05-23T13:18:30Z</time>
      </trkpt>
      <trkpt lat="42.7643310" lon="-8.6548190">
        <ele>12.8</ele>
        <time>2021-05-23T13:18:31Z</time>
      </trkpt>
      <trkpt lat="42.7643420" lon="-8.6548210">
        <ele>12.8</ele>
        <time>2021-05-23T13:18:32Z</time>
      </trkpt>
      <trkpt lat="42.7643540" lon="-8.6548260">
        <ele>12.8</ele>
        <time>2021-05-23T13:18:33Z</time>
      </trkpt>
      <trkpt lat="42.7643640" lon="-8.6548310">
        <ele>12.8</ele>
        <time>2021-05-23T13:18:34Z</time>
      </trkpt>
      <trkpt lat="42.7643780" lon="-8.6548330">
        <ele>12.7</ele>
        <time>2021-05-23T13:18:35Z</time>
      </trkpt>
      <trkpt lat="42.7643930" lon="-8.6548440">
        <ele>12.7</ele>
        <time>2021-05-23T13:18:36Z</time>
      </trkpt>
      <trkpt lat="42.7644030" lon="-8.6548560">
        <ele>12.7</ele>
        <time>2021-05-23T13:18:37Z</time>
      </trkpt>
      <trkpt lat="42.7644140" lon="-8.6548690">
        <ele>12.7</ele>
        <time>2021-05-23T13:18:38Z</time>
      </trkpt>
      <trkpt lat="42.7644170" lon="-8.6548780">
        <ele>12.7</ele>
        <time>2021-05-23T13:18:39Z</time>
      </trkpt>
      <trkpt lat="42.7644420" lon="-8.6548820">
        <ele>12.7</ele>
        <time>2021-05-23T13:18:40Z</time>
      </trkpt>
      <trkpt lat="42.7644560" lon="-8.6549000">
        <ele>12.7</ele>
        <time>2021-05-23T13:18:41Z</time>
      </trkpt>
      <trkpt lat="42.7644610" lon="-8.6549110">
        <ele>12.7</ele>
        <time>2021-05-23T13:18:42Z</time>
      </trkpt>
      <trkpt lat="42.7644660" lon="-8.6549220">
        <ele>12.7</ele>
        <time>2021-05-23T13:18:43Z</time>
      </trkpt>
      <trkpt lat="42.7644780" lon="-8.6549320">
        <ele>12.7</ele>
        <time>2021-05-23T13:18:44Z</time>
      </trkpt>
      <trkpt lat="42.7644980" lon="-8.6549380">
        <ele>12.7</ele>
        <time>2021-05-23T13:18:45Z</time>
      </trkpt>
      <trkpt lat="42.7645260" lon="-8.6549500">
        <ele>12.6</ele>
        <time>2021-05-23T13:18:46Z</time>
      </trkpt>
      <trkpt lat="42.7645330" lon="-8.6549560">
        <ele>12.6</ele>
        <time>2021-05-23T13:18:47Z</time>
      </trkpt>
      <trkpt lat="42.7645430" lon="-8.6549630">
        <ele>12.6</ele>
        <time>2021-05-23T13:18:48Z</time>
      </trkpt>
      <trkpt lat="42.7645500" lon="-8.6549710">
        <ele>12.6</ele>
        <time>2021-05-23T13:18:49Z</time>
      </trkpt>
      <trkpt lat="42.7645560" lon="-8.6549800">
        <ele>12.6</ele>
        <time>2021-05-23T13:18:50Z</time>
      </trkpt>
      <trkpt lat="42.7645750" lon="-8.6549940">
        <ele>12.5</ele>
        <time>2021-05-23T13:18:51Z</time>
      </trkpt>
      <trkpt lat="42.7645830" lon="-8.6550020">
        <ele>12.5</ele>
        <time>2021-05-23T13:18:52Z</time>
      </trkpt>
      <trkpt lat="42.7645990" lon="-8.6550180">
        <ele>12.5</ele>
        <time>2021-05-23T13:18:53Z</time>
      </trkpt>
      <trkpt lat="42.7646110" lon="-8.6550310">
        <ele>12.5</ele>
        <time>2021-05-23T13:18:54Z</time>
      </trkpt>
      <trkpt lat="42.7646230" lon="-8.6550340">
        <ele>12.4</ele>
        <time>2021-05-23T13:18:55Z</time>
      </trkpt>
      <trkpt lat="42.7646360" lon="-8.6550500">
        <ele>12.4</ele>
        <time>2021-05-23T13:18:56Z</time>
      </trkpt>
      <trkpt lat="42.7646540" lon="-8.6550690">
        <ele>12.4</ele>
        <time>2021-05-23T13:18:57Z</time>
      </trkpt>
      <trkpt lat="42.7646540" lon="-8.6550910">
        <ele>12.3</ele>
        <time>2021-05-23T13:18:58Z</time>
      </trkpt>
      <trkpt lat="42.7646660" lon="-8.6551140">
        <ele>12.3</ele>
        <time>2021-05-23T13:18:59Z</time>
      </trkpt>
      <trkpt lat="42.7646680" lon="-8.6551280">
        <ele>12.3</ele>
        <time>2021-05-23T13:19:00Z</time>
      </trkpt>
      <trkpt lat="42.7646850" lon="-8.6551430">
        <ele>12.3</ele>
        <time>2021-05-23T13:19:01Z</time>
      </trkpt>
      <trkpt lat="42.7646920" lon="-8.6551540">
        <ele>12.3</ele>
        <time>2021-05-23T13:19:02Z</time>
      </trkpt>
      <trkpt lat="42.7647000" lon="-8.6551660">
        <ele>12.2</ele>
        <time>2021-05-23T13:19:03Z</time>
      </trkpt>
      <trkpt lat="42.7647200" lon="-8.6551990">
        <ele>12.2</ele>
        <time>2021-05-23T13:19:04Z</time>
      </trkpt>
      <trkpt lat="42.7647230" lon="-8.6552100">
        <ele>12.2</ele>
        <time>2021-05-23T13:19:05Z</time>
      </trkpt>
      <trkpt lat="42.7647290" lon="-8.6552250">
        <ele>12.2</ele>
        <time>2021-05-23T13:19:06Z</time>
      </trkpt>
      <trkpt lat="42.7647390" lon="-8.6552460">
        <ele>12.1</ele>
        <time>2021-05-23T13:19:07Z</time>
      </trkpt>
      <trkpt lat="42.7647580" lon="-8.6552570">
        <ele>12.1</ele>
        <time>2021-05-23T13:19:08Z</time>
      </trkpt>
      <trkpt lat="42.7647670" lon="-8.6552700">
        <ele>12.1</ele>
        <time>2021-05-23T13:19:09Z</time>
      </trkpt>
      <trkpt lat="42.7647890" lon="-8.6552780">
        <ele>12.1</ele>
        <time>2021-05-23T13:19:10Z</time>
      </trkpt>
      <trkpt lat="42.7647970" lon="-8.6552800">
        <ele>12.1</ele>
        <time>2021-05-23T13:19:11Z</time>
      </trkpt>
      <trkpt lat="42.7648050" lon="-8.6552830">
        <ele>12.1</ele>
        <time>2021-05-23T13:19:12Z</time>
      </trkpt>
      <trkpt lat="42.7648170" lon="-8.6552960">
        <ele>12.0</ele>
        <time>2021-05-23T13:19:13Z</time>
      </trkpt>
      <trkpt lat="42.7648310" lon="-8.6553020">
        <ele>12.0</ele>
        <time>2021-05-23T13:19:14Z</time>
      </trkpt>
      <trkpt lat="42.7648440" lon="-8.6553090">
        <ele>12.0</ele>
        <time>2021-05-23T13:19:15Z</time>
      </trkpt>
      <trkpt lat="42.7648600" lon="-8.6553180">
        <ele>12.0</ele>
        <time>2021-05-23T13:19:16Z</time>
      </trkpt>
      <trkpt lat="42.7648740" lon="-8.6553330">
        <ele>12.0</ele>
        <time>2021-05-23T13:19:17Z</time>
      </trkpt>
      <trkpt lat="42.7648890" lon="-8.6553380">
        <ele>12.0</ele>
        <time>2021-05-23T13:19:18Z</time>
      </trkpt>
      <trkpt lat="42.7649030" lon="-8.6553500">
        <ele>12.0</ele>
        <time>2021-05-23T13:19:19Z</time>
      </trkpt>
      <trkpt lat="42.7649190" lon="-8.6553560">
        <ele>12.0</ele>
        <time>2021-05-23T13:19:20Z</time>
      </trkpt>
      <trkpt lat="42.7649270" lon="-8.6553610">
        <ele>12.0</ele>
        <time>2021-05-23T13:19:21Z</time>
      </trkpt>
      <trkpt lat="42.7649350" lon="-8.6553610">
        <ele>11.9</ele>
        <time>2021-05-23T13:19:22Z</time>
      </trkpt>
      <trkpt lat="42.7649370" lon="-8.6553600">
        <ele>11.9</ele>
        <time>2021-05-23T13:19:23Z</time>
      </trkpt>
      <trkpt lat="42.7649530" lon="-8.6553600">
        <ele>11.9</ele>
        <time>2021-05-23T13:19:24Z</time>
      </trkpt>
      <trkpt lat="42.7649660" lon="-8.6553620">
        <ele>11.9</ele>
        <time>2021-05-23T13:19:25Z</time>
      </trkpt>
      <trkpt lat="42.7649780" lon="-8.6553610">
        <ele>11.9</ele>
        <time>2021-05-23T13:19:26Z</time>
      </trkpt>
      <trkpt lat="42.7649860" lon="-8.6553590">
        <ele>11.9</ele>
        <time>2021-05-23T13:19:27Z</time>
      </trkpt>
      <trkpt lat="42.7649950" lon="-8.6553540">
        <ele>11.9</ele>
        <time>2021-05-23T13:19:28Z</time>
      </trkpt>
      <trkpt lat="42.7650070" lon="-8.6553520">
        <ele>11.9</ele>
        <time>2021-05-23T13:19:29Z</time>
      </trkpt>
      <trkpt lat="42.7650180" lon="-8.6553510">
        <ele>11.9</ele>
        <time>2021-05-23T13:19:30Z</time>
      </trkpt>
      <trkpt lat="42.7650290" lon="-8.6553490">
        <ele>11.8</ele>
        <time>2021-05-23T13:19:31Z</time>
      </trkpt>
      <trkpt lat="42.7650520" lon="-8.6553540">
        <ele>11.8</ele>
        <time>2021-05-23T13:19:32Z</time>
      </trkpt>
      <trkpt lat="42.7650590" lon="-8.6553560">
        <ele>11.8</ele>
        <time>2021-05-23T13:19:33Z</time>
      </trkpt>
      <trkpt lat="42.7650670" lon="-8.6553590">
        <ele>11.8</ele>
        <time>2021-05-23T13:19:34Z</time>
      </trkpt>
      <trkpt lat="42.7650780" lon="-8.6553590">
        <ele>11.8</ele>
        <time>2021-05-23T13:19:35Z</time>
      </trkpt>
      <trkpt lat="42.7650810" lon="-8.6553590">
        <ele>11.8</ele>
        <time>2021-05-23T13:19:36Z</time>
      </trkpt>
      <trkpt lat="42.7650980" lon="-8.6553570">
        <ele>11.8</ele>
        <time>2021-05-23T13:19:37Z</time>
      </trkpt>
      <trkpt lat="42.7651110" lon="-8.6553540">
        <ele>11.8</ele>
        <time>2021-05-23T13:19:38Z</time>
      </trkpt>
      <trkpt lat="42.7651280" lon="-8.6553520">
        <ele>11.7</ele>
        <time>2021-05-23T13:19:39Z</time>
      </trkpt>
      <trkpt lat="42.7651600" lon="-8.6553590">
        <ele>11.7</ele>
        <time>2021-05-23T13:19:40Z</time>
      </trkpt>
      <trkpt lat="42.7651690" lon="-8.6553630">
        <ele>11.7</ele>
        <time>2021-05-23T13:19:41Z</time>
      </trkpt>
      <trkpt lat="42.7651970" lon="-8.6553570">
        <ele>11.7</ele>
        <time>2021-05-23T13:19:42Z</time>
      </trkpt>
      <trkpt lat="42.7652060" lon="-8.6553580">
        <ele>11.7</ele>
        <time>2021-05-23T13:19:43Z</time>
      </trkpt>
      <trkpt lat="42.7652240" lon="-8.6553660">
        <ele>11.7</ele>
        <time>2021-05-23T13:19:44Z</time>
      </trkpt>
      <trkpt lat="42.7652390" lon="-8.6553630">
        <ele>11.7</ele>
        <time>2021-05-23T13:19:45Z</time>
      </trkpt>
      <trkpt lat="42.7652530" lon="-8.6553620">
        <ele>11.7</ele>
        <time>2021-05-23T13:19:46Z</time>
      </trkpt>
      <trkpt lat="42.7652570" lon="-8.6553520">
        <ele>11.7</ele>
        <time>2021-05-23T13:19:47Z</time>
      </trkpt>
      <trkpt lat="42.7652700" lon="-8.6553420">
        <ele>11.7</ele>
        <time>2021-05-23T13:19:48Z</time>
      </trkpt>
      <trkpt lat="42.7652900" lon="-8.6553440">
        <ele>11.7</ele>
        <time>2021-05-23T13:19:49Z</time>
      </trkpt>
      <trkpt lat="42.7653000" lon="-8.6553390">
        <ele>11.7</ele>
        <time>2021-05-23T13:19:50Z</time>
      </trkpt>
      <trkpt lat="42.7653100" lon="-8.6553350">
        <ele>11.7</ele>
        <time>2021-05-23T13:19:51Z</time>
      </trkpt>
      <trkpt lat="42.7653360" lon="-8.6553200">
        <ele>11.7</ele>
        <time>2021-05-23T13:19:52Z</time>
      </trkpt>
      <trkpt lat="42.7653430" lon="-8.6553110">
        <ele>11.7</ele>
        <time>2021-05-23T13:19:53Z</time>
      </trkpt>
      <trkpt lat="42.7653590" lon="-8.6552990">
        <ele>11.7</ele>
        <time>2021-05-23T13:19:54Z</time>
      </trkpt>
      <trkpt lat="42.7653710" lon="-8.6552810">
        <ele>11.7</ele>
        <time>2021-05-23T13:19:55Z</time>
      </trkpt>
      <trkpt lat="42.7653750" lon="-8.6552620">
        <ele>11.7</ele>
        <time>2021-05-23T13:19:56Z</time>
      </trkpt>
      <trkpt lat="42.7653810" lon="-8.6552430">
        <ele>11.7</ele>
        <time>2021-05-23T13:19:57Z</time>
      </trkpt>
      <trkpt lat="42.7653850" lon="-8.6552260">
        <ele>11.6</ele>
        <time>2021-05-23T13:19:58Z</time>
      </trkpt>
      <trkpt lat="42.7653880" lon="-8.6551990">
        <ele>11.6</ele>
        <time>2021-05-23T13:19:59Z</time>
      </trkpt>
      <trkpt lat="42.7653920" lon="-8.6551730">
        <ele>11.6</ele>
        <time>2021-05-23T13:20:00Z</time>
      </trkpt>
      <trkpt lat="42.7653970" lon="-8.6551620">
        <ele>11.6</ele>
        <time>2021-05-23T13:20:01Z</time>
      </trkpt>
      <trkpt lat="42.7654020" lon="-8.6551520">
        <ele>11.6</ele>
        <time>2021-05-23T13:20:02Z</time>
      </trkpt>
      <trkpt lat="42.7654030" lon="-8.6551380">
        <ele>11.6</ele>
        <time>2021-05-23T13:20:03Z</time>
      </trkpt>
      <trkpt lat="42.7654030" lon="-8.6551270">
        <ele>11.6</ele>
        <time>2021-05-23T13:20:04Z</time>
      </trkpt>
      <trkpt lat="42.7654080" lon="-8.6551150">
        <ele>11.6</ele>
        <time>2021-05-23T13:20:05Z</time>
      </trkpt>
      <trkpt lat="42.7654220" lon="-8.6551070">
        <ele>11.6</ele>
        <time>2021-05-23T13:20:06Z</time>
      </trkpt>
      <trkpt lat="42.7654340" lon="-8.6551050">
        <ele>11.6</ele>
        <time>2021-05-23T13:20:07Z</time>
      </trkpt>
      <trkpt lat="42.7654540" lon="-8.6550940">
        <ele>11.6</ele>
        <time>2021-05-23T13:20:08Z</time>
      </trkpt>
      <trkpt lat="42.7654640" lon="-8.6550900">
        <ele>11.6</ele>
        <time>2021-05-23T13:20:09Z</time>
      </trkpt>
      <trkpt lat="42.7654740" lon="-8.6550850">
        <ele>11.6</ele>
        <time>2021-05-23T13:20:10Z</time>
      </trkpt>
      <trkpt lat="42.7654890" lon="-8.6550840">
        <ele>11.7</ele>
        <time>2021-05-23T13:20:11Z</time>
      </trkpt>
      <trkpt lat="42.7655020" lon="-8.6550800">
        <ele>11.7</ele>
        <time>2021-05-23T13:20:12Z</time>
      </trkpt>
      <trkpt lat="42.7655240" lon="-8.6550810">
        <ele>11.7</ele>
        <time>2021-05-23T13:20:13Z</time>
      </trkpt>
      <trkpt lat="42.7655330" lon="-8.6550780">
        <ele>11.7</ele>
        <time>2021-05-23T13:20:14Z</time>
      </trkpt>
      <trkpt lat="42.7655420" lon="-8.6550760">
        <ele>11.7</ele>
        <time>2021-05-23T13:20:15Z</time>
      </trkpt>
      <trkpt lat="42.7655520" lon="-8.6550710">
        <ele>11.7</ele>
        <time>2021-05-23T13:20:16Z</time>
      </trkpt>
      <trkpt lat="42.7655730" lon="-8.6550690">
        <ele>11.7</ele>
        <time>2021-05-23T13:20:17Z</time>
      </trkpt>
      <trkpt lat="42.7655880" lon="-8.6550700">
        <ele>11.7</ele>
        <time>2021-05-23T13:20:18Z</time>
      </trkpt>
      <trkpt lat="42.7656000" lon="-8.6550530">
        <ele>11.7</ele>
        <time>2021-05-23T13:20:19Z</time>
      </trkpt>
      <trkpt lat="42.7656130" lon="-8.6550430">
        <ele>11.7</ele>
        <time>2021-05-23T13:20:20Z</time>
      </trkpt>
      <trkpt lat="42.7656280" lon="-8.6550380">
        <ele>11.7</ele>
        <time>2021-05-23T13:20:21Z</time>
      </trkpt>
      <trkpt lat="42.7656410" lon="-8.6550210">
        <ele>11.7</ele>
        <time>2021-05-23T13:20:22Z</time>
      </trkpt>
      <trkpt lat="42.7656540" lon="-8.6550090">
        <ele>11.8</ele>
        <time>2021-05-23T13:20:23Z</time>
      </trkpt>
      <trkpt lat="42.7656620" lon="-8.6549870">
        <ele>11.8</ele>
        <time>2021-05-23T13:20:24Z</time>
      </trkpt>
      <trkpt lat="42.7656700" lon="-8.6549720">
        <ele>11.8</ele>
        <time>2021-05-23T13:20:25Z</time>
      </trkpt>
      <trkpt lat="42.7656720" lon="-8.6549480">
        <ele>11.8</ele>
        <time>2021-05-23T13:20:26Z</time>
      </trkpt>
      <trkpt lat="42.7656800" lon="-8.6549330">
        <ele>11.8</ele>
        <time>2021-05-23T13:20:27Z</time>
      </trkpt>
      <trkpt lat="42.7656730" lon="-8.6549080">
        <ele>11.9</ele>
        <time>2021-05-23T13:20:28Z</time>
      </trkpt>
      <trkpt lat="42.7656710" lon="-8.6548890">
        <ele>11.9</ele>
        <time>2021-05-23T13:20:29Z</time>
      </trkpt>
      <trkpt lat="42.7656710" lon="-8.6548650">
        <ele>11.9</ele>
        <time>2021-05-23T13:20:30Z</time>
      </trkpt>
      <trkpt lat="42.7656700" lon="-8.6548440">
        <ele>11.9</ele>
        <time>2021-05-23T13:20:31Z</time>
      </trkpt>
      <trkpt lat="42.7656620" lon="-8.6548220">
        <ele>12.0</ele>
        <time>2021-05-23T13:20:32Z</time>
      </trkpt>
      <trkpt lat="42.7656580" lon="-8.6548040">
        <ele>12.0</ele>
        <time>2021-05-23T13:20:33Z</time>
      </trkpt>
      <trkpt lat="42.7656570" lon="-8.6547820">
        <ele>12.0</ele>
        <time>2021-05-23T13:20:34Z</time>
      </trkpt>
      <trkpt lat="42.7656560" lon="-8.6547650">
        <ele>12.1</ele>
        <time>2021-05-23T13:20:35Z</time>
      </trkpt>
      <trkpt lat="42.7656600" lon="-8.6547520">
        <ele>12.1</ele>
        <time>2021-05-23T13:20:36Z</time>
      </trkpt>
      <trkpt lat="42.7656560" lon="-8.6547410">
        <ele>12.1</ele>
        <time>2021-05-23T13:20:37Z</time>
      </trkpt>
      <trkpt lat="42.7656600" lon="-8.6547250">
        <ele>12.1</ele>
        <time>2021-05-23T13:20:38Z</time>
      </trkpt>
      <trkpt lat="42.7656600" lon="-8.6547030">
        <ele>12.2</ele>
        <time>2021-05-23T13:20:39Z</time>
      </trkpt>
      <trkpt lat="42.7656630" lon="-8.6546880">
        <ele>12.2</ele>
        <time>2021-05-23T13:20:40Z</time>
      </trkpt>
      <trkpt lat="42.7656630" lon="-8.6546690">
        <ele>12.2</ele>
        <time>2021-05-23T13:20:41Z</time>
      </trkpt>
      <trkpt lat="42.7656610" lon="-8.6546520">
        <ele>12.3</ele>
        <time>2021-05-23T13:20:42Z</time>
      </trkpt>
      <trkpt lat="42.7656710" lon="-8.6546400">
        <ele>12.3</ele>
        <time>2021-05-23T13:20:43Z</time>
      </trkpt>
      <trkpt lat="42.7656830" lon="-8.6546140">
        <ele>12.4</ele>
        <time>2021-05-23T13:20:44Z</time>
      </trkpt>
      <trkpt lat="42.7656880" lon="-8.6546030">
        <ele>12.4</ele>
        <time>2021-05-23T13:20:45Z</time>
      </trkpt>
      <trkpt lat="42.7656940" lon="-8.6545910">
        <ele>12.4</ele>
        <time>2021-05-23T13:20:46Z</time>
      </trkpt>
      <trkpt lat="42.7656940" lon="-8.6545790">
        <ele>12.5</ele>
        <time>2021-05-23T13:20:47Z</time>
      </trkpt>
      <trkpt lat="42.7656970" lon="-8.6545640">
        <ele>12.5</ele>
        <time>2021-05-23T13:20:48Z</time>
      </trkpt>
      <trkpt lat="42.7657020" lon="-8.6545480">
        <ele>12.5</ele>
        <time>2021-05-23T13:20:49Z</time>
      </trkpt>
      <trkpt lat="42.7657120" lon="-8.6545220">
        <ele>12.6</ele>
        <time>2021-05-23T13:20:50Z</time>
      </trkpt>
      <trkpt lat="42.7657160" lon="-8.6545120">
        <ele>12.6</ele>
        <time>2021-05-23T13:20:51Z</time>
      </trkpt>
      <trkpt lat="42.7657200" lon="-8.6545020">
        <ele>12.7</ele>
        <time>2021-05-23T13:20:52Z</time>
      </trkpt>
      <trkpt lat="42.7657310" lon="-8.6544790">
        <ele>12.7</ele>
        <time>2021-05-23T13:20:53Z</time>
      </trkpt>
      <trkpt lat="42.7657340" lon="-8.6544690">
        <ele>12.8</ele>
        <time>2021-05-23T13:20:54Z</time>
      </trkpt>
      <trkpt lat="42.7657380" lon="-8.6544600">
        <ele>12.8</ele>
        <time>2021-05-23T13:20:55Z</time>
      </trkpt>
      <trkpt lat="42.7657450" lon="-8.6544510">
        <ele>12.8</ele>
        <time>2021-05-23T13:20:56Z</time>
      </trkpt>
      <trkpt lat="42.7657490" lon="-8.6544380">
        <ele>12.9</ele>
        <time>2021-05-23T13:20:57Z</time>
      </trkpt>
      <trkpt lat="42.7657550" lon="-8.6544200">
        <ele>12.9</ele>
        <time>2021-05-23T13:20:58Z</time>
      </trkpt>
      <trkpt lat="42.7657600" lon="-8.6543900">
        <ele>13.0</ele>
        <time>2021-05-23T13:20:59Z</time>
      </trkpt>
      <trkpt lat="42.7657630" lon="-8.6543750">
        <ele>13.0</ele>
        <time>2021-05-23T13:21:00Z</time>
      </trkpt>
      <trkpt lat="42.7657660" lon="-8.6543600">
        <ele>13.1</ele>
        <time>2021-05-23T13:21:01Z</time>
      </trkpt>
      <trkpt lat="42.7657720" lon="-8.6543520">
        <ele>13.1</ele>
        <time>2021-05-23T13:21:02Z</time>
      </trkpt>
      <trkpt lat="42.7657750" lon="-8.6543410">
        <ele>13.1</ele>
        <time>2021-05-23T13:21:03Z</time>
      </trkpt>
      <trkpt lat="42.7657830" lon="-8.6543280">
        <ele>13.2</ele>
        <time>2021-05-23T13:21:04Z</time>
      </trkpt>
      <trkpt lat="42.7657770" lon="-8.6542970">
        <ele>13.3</ele>
        <time>2021-05-23T13:21:05Z</time>
      </trkpt>
      <trkpt lat="42.7657800" lon="-8.6542870">
        <ele>13.3</ele>
        <time>2021-05-23T13:21:06Z</time>
      </trkpt>
      <trkpt lat="42.7657820" lon="-8.6542760">
        <ele>13.3</ele>
        <time>2021-05-23T13:21:07Z</time>
      </trkpt>
      <trkpt lat="42.7657890" lon="-8.6542580">
        <ele>13.4</ele>
        <time>2021-05-23T13:21:08Z</time>
      </trkpt>
      <trkpt lat="42.7657920" lon="-8.6542420">
        <ele>13.4</ele>
        <time>2021-05-23T13:21:09Z</time>
      </trkpt>
      <trkpt lat="42.7657970" lon="-8.6542290">
        <ele>13.5</ele>
        <time>2021-05-23T13:21:10Z</time>
      </trkpt>
      <trkpt lat="42.7658090" lon="-8.6542150">
        <ele>13.5</ele>
        <time>2021-05-23T13:21:11Z</time>
      </trkpt>
      <trkpt lat="42.7658170" lon="-8.6542080">
        <ele>13.6</ele>
        <time>2021-05-23T13:21:12Z</time>
      </trkpt>
      <trkpt lat="42.7658290" lon="-8.6542040">
        <ele>13.6</ele>
        <time>2021-05-23T13:21:13Z</time>
      </trkpt>
      <trkpt lat="42.7658450" lon="-8.6541960">
        <ele>13.7</ele>
        <time>2021-05-23T13:21:14Z</time>
      </trkpt>
      <trkpt lat="42.7658610" lon="-8.6541970">
        <ele>13.7</ele>
        <time>2021-05-23T13:21:15Z</time>
      </trkpt>
      <trkpt lat="42.7658760" lon="-8.6541970">
        <ele>13.8</ele>
        <time>2021-05-23T13:21:16Z</time>
      </trkpt>
      <trkpt lat="42.7658880" lon="-8.6541960">
        <ele>13.8</ele>
        <time>2021-05-23T13:21:17Z</time>
      </trkpt>
      <trkpt lat="42.7658960" lon="-8.6542020">
        <ele>13.8</ele>
        <time>2021-05-23T13:21:18Z</time>
      </trkpt>
      <trkpt lat="42.7659080" lon="-8.6542020">
        <ele>13.9</ele>
        <time>2021-05-23T13:21:19Z</time>
      </trkpt>
      <trkpt lat="42.7659210" lon="-8.6542020">
        <ele>13.9</ele>
        <time>2021-05-23T13:21:20Z</time>
      </trkpt>
      <trkpt lat="42.7659380" lon="-8.6541970">
        <ele>14.0</ele>
        <time>2021-05-23T13:21:21Z</time>
      </trkpt>
      <trkpt lat="42.7659480" lon="-8.6542010">
        <ele>14.0</ele>
        <time>2021-05-23T13:21:22Z</time>
      </trkpt>
      <trkpt lat="42.7659670" lon="-8.6542010">
        <ele>14.1</ele>
        <time>2021-05-23T13:21:23Z</time>
      </trkpt>
      <trkpt lat="42.7659860" lon="-8.6541970">
        <ele>14.1</ele>
        <time>2021-05-23T13:21:24Z</time>
      </trkpt>
      <trkpt lat="42.7659980" lon="-8.6541930">
        <ele>14.1</ele>
        <time>2021-05-23T13:21:25Z</time>
      </trkpt>
      <trkpt lat="42.7660100" lon="-8.6541900">
        <ele>14.2</ele>
        <time>2021-05-23T13:21:26Z</time>
      </trkpt>
      <trkpt lat="42.7660170" lon="-8.6541850">
        <ele>14.2</ele>
        <time>2021-05-23T13:21:27Z</time>
      </trkpt>
      <trkpt lat="42.7660390" lon="-8.6541830">
        <ele>14.3</ele>
        <time>2021-05-23T13:21:28Z</time>
      </trkpt>
      <trkpt lat="42.7660620" lon="-8.6541850">
        <ele>14.3</ele>
        <time>2021-05-23T13:21:29Z</time>
      </trkpt>
      <trkpt lat="42.7660720" lon="-8.6541810">
        <ele>14.4</ele>
        <time>2021-05-23T13:21:30Z</time>
      </trkpt>
      <trkpt lat="42.7661000" lon="-8.6541730">
        <ele>14.5</ele>
        <time>2021-05-23T13:21:31Z</time>
      </trkpt>
      <trkpt lat="42.7661080" lon="-8.6541710">
        <ele>14.5</ele>
        <time>2021-05-23T13:21:32Z</time>
      </trkpt>
      <trkpt lat="42.7661420" lon="-8.6541630">
        <ele>14.6</ele>
        <time>2021-05-23T13:21:33Z</time>
      </trkpt>
      <trkpt lat="42.7661520" lon="-8.6541600">
        <ele>14.6</ele>
        <time>2021-05-23T13:21:34Z</time>
      </trkpt>
      <trkpt lat="42.7661730" lon="-8.6541590">
        <ele>14.7</ele>
        <time>2021-05-23T13:21:35Z</time>
      </trkpt>
      <trkpt lat="42.7661820" lon="-8.6541570">
        <ele>14.8</ele>
        <time>2021-05-23T13:21:36Z</time>
      </trkpt>
      <trkpt lat="42.7661910" lon="-8.6541560">
        <ele>14.8</ele>
        <time>2021-05-23T13:21:37Z</time>
      </trkpt>
      <trkpt lat="42.7662220" lon="-8.6541570">
        <ele>14.9</ele>
        <time>2021-05-23T13:21:38Z</time>
      </trkpt>
      <trkpt lat="42.7662320" lon="-8.6541590">
        <ele>15.0</ele>
        <time>2021-05-23T13:21:39Z</time>
      </trkpt>
      <trkpt lat="42.7662540" lon="-8.6541600">
        <ele>15.1</ele>
        <time>2021-05-23T13:21:40Z</time>
      </trkpt>
      <trkpt lat="42.7662610" lon="-8.6541610">
        <ele>15.1</ele>
        <time>2021-05-23T13:21:41Z</time>
      </trkpt>
      <trkpt lat="42.7662690" lon="-8.6541610">
        <ele>15.2</ele>
        <time>2021-05-23T13:21:42Z</time>
      </trkpt>
      <trkpt lat="42.7662950" lon="-8.6541620">
        <ele>15.3</ele>
        <time>2021-05-23T13:21:43Z</time>
      </trkpt>
      <trkpt lat="42.7663030" lon="-8.6541630">
        <ele>15.3</ele>
        <time>2021-05-23T13:21:44Z</time>
      </trkpt>
      <trkpt lat="42.7663110" lon="-8.6541630">
        <ele>15.4</ele>
        <time>2021-05-23T13:21:45Z</time>
      </trkpt>
      <trkpt lat="42.7663240" lon="-8.6541590">
        <ele>15.5</ele>
        <time>2021-05-23T13:21:46Z</time>
      </trkpt>
      <trkpt lat="42.7663360" lon="-8.6541510">
        <ele>15.5</ele>
        <time>2021-05-23T13:21:47Z</time>
      </trkpt>
      <trkpt lat="42.7663440" lon="-8.6541450">
        <ele>15.6</ele>
        <time>2021-05-23T13:21:48Z</time>
      </trkpt>
      <trkpt lat="42.7663580" lon="-8.6541400">
        <ele>15.7</ele>
        <time>2021-05-23T13:21:49Z</time>
      </trkpt>
      <trkpt lat="42.7663650" lon="-8.6541440">
        <ele>15.7</ele>
        <time>2021-05-23T13:21:50Z</time>
      </trkpt>
      <trkpt lat="42.7663730" lon="-8.6541490">
        <ele>15.8</ele>
        <time>2021-05-23T13:21:51Z</time>
      </trkpt>
      <trkpt lat="42.7663800" lon="-8.6541540">
        <ele>15.8</ele>
        <time>2021-05-23T13:21:52Z</time>
      </trkpt>
      <trkpt lat="42.7663920" lon="-8.6541530">
        <ele>15.9</ele>
        <time>2021-05-23T13:21:53Z</time>
      </trkpt>
      <trkpt lat="42.7664100" lon="-8.6541620">
        <ele>16.0</ele>
        <time>2021-05-23T13:21:54Z</time>
      </trkpt>
      <trkpt lat="42.7664200" lon="-8.6541790">
        <ele>16.1</ele>
        <time>2021-05-23T13:21:55Z</time>
      </trkpt>
      <trkpt lat="42.7664320" lon="-8.6541800">
        <ele>16.1</ele>
        <time>2021-05-23T13:21:56Z</time>
      </trkpt>
      <trkpt lat="42.7664360" lon="-8.6541840">
        <ele>16.2</ele>
        <time>2021-05-23T13:21:57Z</time>
      </trkpt>
      <trkpt lat="42.7664410" lon="-8.6541870">
        <ele>16.2</ele>
        <time>2021-05-23T13:21:58Z</time>
      </trkpt>
      <trkpt lat="42.7664640" lon="-8.6541950">
        <ele>16.3</ele>
        <time>2021-05-23T13:21:59Z</time>
      </trkpt>
      <trkpt lat="42.7664830" lon="-8.6542060">
        <ele>16.4</ele>
        <time>2021-05-23T13:22:00Z</time>
      </trkpt>
      <trkpt lat="42.7664900" lon="-8.6542110">
        <ele>16.5</ele>
        <time>2021-05-23T13:22:01Z</time>
      </trkpt>
      <trkpt lat="42.7664980" lon="-8.6542170">
        <ele>16.5</ele>
        <time>2021-05-23T13:22:02Z</time>
      </trkpt>
      <trkpt lat="42.7665140" lon="-8.6542290">
        <ele>16.6</ele>
        <time>2021-05-23T13:22:03Z</time>
      </trkpt>
      <trkpt lat="42.7665160" lon="-8.6542300">
        <ele>17.0</ele>
        <time>2021-05-23T13:22:04Z</time>
      </trkpt>
      <trkpt lat="42.7665250" lon="-8.6542380">
        <ele>17.0</ele>
        <time>2021-05-23T13:22:05Z</time>
      </trkpt>
      <trkpt lat="42.7665400" lon="-8.6542510">
        <ele>16.9</ele>
        <time>2021-05-23T13:22:06Z</time>
      </trkpt>
      <trkpt lat="42.7665450" lon="-8.6542650">
        <ele>16.9</ele>
        <time>2021-05-23T13:22:07Z</time>
      </trkpt>
      <trkpt lat="42.7665420" lon="-8.6542690">
        <ele>16.9</ele>
        <time>2021-05-23T13:22:08Z</time>
      </trkpt>
      <trkpt lat="42.7665450" lon="-8.6542820">
        <ele>16.8</ele>
        <time>2021-05-23T13:22:09Z</time>
      </trkpt>
      <trkpt lat="42.7665420" lon="-8.6543090">
        <ele>16.8</ele>
        <time>2021-05-23T13:22:10Z</time>
      </trkpt>
      <trkpt lat="42.7665300" lon="-8.6543440">
        <ele>16.7</ele>
        <time>2021-05-23T13:22:11Z</time>
      </trkpt>
      <trkpt lat="42.7665250" lon="-8.6543590">
        <ele>16.7</ele>
        <time>2021-05-23T13:22:12Z</time>
      </trkpt>
      <trkpt lat="42.7665270" lon="-8.6543700">
        <ele>16.6</ele>
        <time>2021-05-23T13:22:13Z</time>
      </trkpt>
      <trkpt lat="42.7665170" lon="-8.6543900">
        <ele>16.6</ele>
        <time>2021-05-23T13:22:14Z</time>
      </trkpt>
      <trkpt lat="42.7665140" lon="-8.6543950">
        <ele>16.6</ele>
        <time>2021-05-23T13:22:15Z</time>
      </trkpt>
      <trkpt lat="42.7665070" lon="-8.6544130">
        <ele>16.5</ele>
        <time>2021-05-23T13:22:16Z</time>
      </trkpt>
      <trkpt lat="42.7665020" lon="-8.6544220">
        <ele>16.5</ele>
        <time>2021-05-23T13:22:17Z</time>
      </trkpt>
      <trkpt lat="42.7664980" lon="-8.6544320">
        <ele>16.5</ele>
        <time>2021-05-23T13:22:18Z</time>
      </trkpt>
      <trkpt lat="42.7664930" lon="-8.6544410">
        <ele>16.4</ele>
        <time>2021-05-23T13:22:19Z</time>
      </trkpt>
      <trkpt lat="42.7664930" lon="-8.6544630">
        <ele>16.4</ele>
        <time>2021-05-23T13:22:20Z</time>
      </trkpt>
      <trkpt lat="42.7664860" lon="-8.6544720">
        <ele>16.3</ele>
        <time>2021-05-23T13:22:21Z</time>
      </trkpt>
      <trkpt lat="42.7664830" lon="-8.6544780">
        <ele>16.3</ele>
        <time>2021-05-23T13:22:22Z</time>
      </trkpt>
      <trkpt lat="42.7664940" lon="-8.6545050">
        <ele>16.3</ele>
        <time>2021-05-23T13:22:23Z</time>
      </trkpt>
      <trkpt lat="42.7664940" lon="-8.6545180">
        <ele>16.2</ele>
        <time>2021-05-23T13:22:24Z</time>
      </trkpt>
      <trkpt lat="42.7664940" lon="-8.6545310">
        <ele>16.2</ele>
        <time>2021-05-23T13:22:25Z</time>
      </trkpt>
      <trkpt lat="42.7665020" lon="-8.6545670">
        <ele>16.1</ele>
        <time>2021-05-23T13:22:26Z</time>
      </trkpt>
      <trkpt lat="42.7665040" lon="-8.6545800">
        <ele>16.1</ele>
        <time>2021-05-23T13:22:27Z</time>
      </trkpt>
      <trkpt lat="42.7665150" lon="-8.6545930">
        <ele>16.0</ele>
        <time>2021-05-23T13:22:28Z</time>
      </trkpt>
      <trkpt lat="42.7665260" lon="-8.6546160">
        <ele>16.0</ele>
        <time>2021-05-23T13:22:29Z</time>
      </trkpt>
      <trkpt lat="42.7665330" lon="-8.6546260">
        <ele>15.9</ele>
        <time>2021-05-23T13:22:30Z</time>
      </trkpt>
      <trkpt lat="42.7665520" lon="-8.6546470">
        <ele>15.8</ele>
        <time>2021-05-23T13:22:31Z</time>
      </trkpt>
      <trkpt lat="42.7665500" lon="-8.6546750">
        <ele>15.8</ele>
        <time>2021-05-23T13:22:32Z</time>
      </trkpt>
      <trkpt lat="42.7665550" lon="-8.6546880">
        <ele>15.7</ele>
        <time>2021-05-23T13:22:33Z</time>
      </trkpt>
      <trkpt lat="42.7665590" lon="-8.6547020">
        <ele>15.7</ele>
        <time>2021-05-23T13:22:34Z</time>
      </trkpt>
      <trkpt lat="42.7665540" lon="-8.6547220">
        <ele>15.7</ele>
        <time>2021-05-23T13:22:35Z</time>
      </trkpt>
      <trkpt lat="42.7665670" lon="-8.6547440">
        <ele>15.6</ele>
        <time>2021-05-23T13:22:36Z</time>
      </trkpt>
      <trkpt lat="42.7665790" lon="-8.6547660">
        <ele>15.5</ele>
        <time>2021-05-23T13:22:37Z</time>
      </trkpt>
      <trkpt lat="42.7665830" lon="-8.6547760">
        <ele>15.5</ele>
        <time>2021-05-23T13:22:38Z</time>
      </trkpt>
      <trkpt lat="42.7665990" lon="-8.6548010">
        <ele>15.4</ele>
        <time>2021-05-23T13:22:39Z</time>
      </trkpt>
      <trkpt lat="42.7666040" lon="-8.6548140">
        <ele>15.4</ele>
        <time>2021-05-23T13:22:40Z</time>
      </trkpt>
      <trkpt lat="42.7666110" lon="-8.6548400">
        <ele>15.3</ele>
        <time>2021-05-23T13:22:41Z</time>
      </trkpt>
      <trkpt lat="42.7666140" lon="-8.6548520">
        <ele>15.3</ele>
        <time>2021-05-23T13:22:42Z</time>
      </trkpt>
      <trkpt lat="42.7666160" lon="-8.6548650">
        <ele>15.3</ele>
        <time>2021-05-23T13:22:43Z</time>
      </trkpt>
      <trkpt lat="42.7666250" lon="-8.6548710">
        <ele>15.2</ele>
        <time>2021-05-23T13:22:44Z</time>
      </trkpt>
      <trkpt lat="42.7666350" lon="-8.6548860">
        <ele>15.2</ele>
        <time>2021-05-23T13:22:45Z</time>
      </trkpt>
      <trkpt lat="42.7666420" lon="-8.6549000">
        <ele>15.2</ele>
        <time>2021-05-23T13:22:46Z</time>
      </trkpt>
      <trkpt lat="42.7666530" lon="-8.6549290">
        <ele>15.1</ele>
        <time>2021-05-23T13:22:47Z</time>
      </trkpt>
      <trkpt lat="42.7666570" lon="-8.6549400">
        <ele>15.0</ele>
        <time>2021-05-23T13:22:48Z</time>
      </trkpt>
      <trkpt lat="42.7666820" lon="-8.6549680">
        <ele>14.9</ele>
        <time>2021-05-23T13:22:49Z</time>
      </trkpt>
      <trkpt lat="42.7666840" lon="-8.6549770">
        <ele>14.9</ele>
        <time>2021-05-23T13:22:50Z</time>
      </trkpt>
      <trkpt lat="42.7666920" lon="-8.6549920">
        <ele>14.8</ele>
        <time>2021-05-23T13:22:51Z</time>
      </trkpt>
      <trkpt lat="42.7666950" lon="-8.6550140">
        <ele>14.8</ele>
        <time>2021-05-23T13:22:52Z</time>
      </trkpt>
      <trkpt lat="42.7667010" lon="-8.6550370">
        <ele>14.7</ele>
        <time>2021-05-23T13:22:53Z</time>
      </trkpt>
      <trkpt lat="42.7667040" lon="-8.6550570">
        <ele>14.7</ele>
        <time>2021-05-23T13:22:54Z</time>
      </trkpt>
      <trkpt lat="42.7667140" lon="-8.6550760">
        <ele>14.6</ele>
        <time>2021-05-23T13:22:55Z</time>
      </trkpt>
      <trkpt lat="42.7667270" lon="-8.6550900">
        <ele>14.5</ele>
        <time>2021-05-23T13:22:56Z</time>
      </trkpt>
      <trkpt lat="42.7667350" lon="-8.6551080">
        <ele>14.5</ele>
        <time>2021-05-23T13:22:57Z</time>
      </trkpt>
      <trkpt lat="42.7667440" lon="-8.6551220">
        <ele>14.4</ele>
        <time>2021-05-23T13:22:58Z</time>
      </trkpt>
      <trkpt lat="42.7667550" lon="-8.6551350">
        <ele>14.4</ele>
        <time>2021-05-23T13:22:59Z</time>
      </trkpt>
      <trkpt lat="42.7667760" lon="-8.6551410">
        <ele>14.3</ele>
        <time>2021-05-23T13:23:00Z</time>
      </trkpt>
      <trkpt lat="42.7667840" lon="-8.6551560">
        <ele>14.3</ele>
        <time>2021-05-23T13:23:01Z</time>
      </trkpt>
      <trkpt lat="42.7667970" lon="-8.6551640">
        <ele>14.2</ele>
        <time>2021-05-23T13:23:02Z</time>
      </trkpt>
      <trkpt lat="42.7668140" lon="-8.6551760">
        <ele>14.2</ele>
        <time>2021-05-23T13:23:03Z</time>
      </trkpt>
      <trkpt lat="42.7668270" lon="-8.6551870">
        <ele>14.1</ele>
        <time>2021-05-23T13:23:04Z</time>
      </trkpt>
      <trkpt lat="42.7668390" lon="-8.6551930">
        <ele>14.1</ele>
        <time>2021-05-23T13:23:05Z</time>
      </trkpt>
      <trkpt lat="42.7668540" lon="-8.6552030">
        <ele>14.0</ele>
        <time>2021-05-23T13:23:06Z</time>
      </trkpt>
      <trkpt lat="42.7668670" lon="-8.6552260">
        <ele>14.0</ele>
        <time>2021-05-23T13:23:07Z</time>
      </trkpt>
      <trkpt lat="42.7668750" lon="-8.6552330">
        <ele>14.0</ele>
        <time>2021-05-23T13:23:08Z</time>
      </trkpt>
      <trkpt lat="42.7668820" lon="-8.6552400">
        <ele>14.0</ele>
        <time>2021-05-23T13:23:09Z</time>
      </trkpt>
      <trkpt lat="42.7668960" lon="-8.6552430">
        <ele>13.9</ele>
        <time>2021-05-23T13:23:10Z</time>
      </trkpt>
      <trkpt lat="42.7669090" lon="-8.6552540">
        <ele>13.9</ele>
        <time>2021-05-23T13:23:11Z</time>
      </trkpt>
      <trkpt lat="42.7669240" lon="-8.6552630">
        <ele>13.9</ele>
        <time>2021-05-23T13:23:12Z</time>
      </trkpt>
      <trkpt lat="42.7669350" lon="-8.6552800">
        <ele>13.9</ele>
        <time>2021-05-23T13:23:13Z</time>
      </trkpt>
      <trkpt lat="42.7669480" lon="-8.6552940">
        <ele>13.8</ele>
        <time>2021-05-23T13:23:14Z</time>
      </trkpt>
      <trkpt lat="42.7669570" lon="-8.6553170">
        <ele>13.8</ele>
        <time>2021-05-23T13:23:15Z</time>
      </trkpt>
      <trkpt lat="42.7669650" lon="-8.6553380">
        <ele>13.8</ele>
        <time>2021-05-23T13:23:16Z</time>
      </trkpt>
      <trkpt lat="42.7669770" lon="-8.6553510">
        <ele>13.8</ele>
        <time>2021-05-23T13:23:17Z</time>
      </trkpt>
      <trkpt lat="42.7669860" lon="-8.6553680">
        <ele>13.8</ele>
        <time>2021-05-23T13:23:18Z</time>
      </trkpt>
      <trkpt lat="42.7669940" lon="-8.6553870">
        <ele>13.8</ele>
        <time>2021-05-23T13:23:19Z</time>
      </trkpt>
      <trkpt lat="42.7669990" lon="-8.6554070">
        <ele>13.8</ele>
        <time>2021-05-23T13:23:20Z</time>
      </trkpt>
      <trkpt lat="42.7670090" lon="-8.6554250">
        <ele>13.8</ele>
        <time>2021-05-23T13:23:21Z</time>
      </trkpt>
      <trkpt lat="42.7670210" lon="-8.6554380">
        <ele>13.8</ele>
        <time>2021-05-23T13:23:22Z</time>
      </trkpt>
      <trkpt lat="42.7670260" lon="-8.6554660">
        <ele>13.7</ele>
        <time>2021-05-23T13:23:23Z</time>
      </trkpt>
      <trkpt lat="42.7670290" lon="-8.6554890">
        <ele>13.6</ele>
        <time>2021-05-23T13:23:24Z</time>
      </trkpt>
      <trkpt lat="42.7670370" lon="-8.6555040">
        <ele>13.6</ele>
        <time>2021-05-23T13:23:25Z</time>
      </trkpt>
      <trkpt lat="42.7670420" lon="-8.6555240">
        <ele>13.5</ele>
        <time>2021-05-23T13:23:26Z</time>
      </trkpt>
      <trkpt lat="42.7670500" lon="-8.6555380">
        <ele>13.4</ele>
        <time>2021-05-23T13:23:27Z</time>
      </trkpt>
      <trkpt lat="42.7670610" lon="-8.6555550">
        <ele>13.3</ele>
        <time>2021-05-23T13:23:28Z</time>
      </trkpt>
      <trkpt lat="42.7670680" lon="-8.6555660">
        <ele>13.3</ele>
        <time>2021-05-23T13:23:29Z</time>
      </trkpt>
      <trkpt lat="42.7670750" lon="-8.6555930">
        <ele>13.1</ele>
        <time>2021-05-23T13:23:30Z</time>
      </trkpt>
      <trkpt lat="42.7670770" lon="-8.6556050">
        <ele>13.1</ele>
        <time>2021-05-23T13:23:31Z</time>
      </trkpt>
      <trkpt lat="42.7670800" lon="-8.6556160">
        <ele>13.0</ele>
        <time>2021-05-23T13:23:32Z</time>
      </trkpt>
      <trkpt lat="42.7670830" lon="-8.6556340">
        <ele>13.0</ele>
        <time>2021-05-23T13:23:33Z</time>
      </trkpt>
      <trkpt lat="42.7670950" lon="-8.6556470">
        <ele>12.9</ele>
        <time>2021-05-23T13:23:34Z</time>
      </trkpt>
      <trkpt lat="42.7671070" lon="-8.6556690">
        <ele>12.8</ele>
        <time>2021-05-23T13:23:35Z</time>
      </trkpt>
      <trkpt lat="42.7671110" lon="-8.6556800">
        <ele>12.7</ele>
        <time>2021-05-23T13:23:36Z</time>
      </trkpt>
      <trkpt lat="42.7671150" lon="-8.6556900">
        <ele>12.7</ele>
        <time>2021-05-23T13:23:37Z</time>
      </trkpt>
      <trkpt lat="42.7671260" lon="-8.6557020">
        <ele>12.6</ele>
        <time>2021-05-23T13:23:38Z</time>
      </trkpt>
      <trkpt lat="42.7671350" lon="-8.6557220">
        <ele>12.6</ele>
        <time>2021-05-23T13:23:39Z</time>
      </trkpt>
      <trkpt lat="42.7671460" lon="-8.6557370">
        <ele>12.5</ele>
        <time>2021-05-23T13:23:40Z</time>
      </trkpt>
      <trkpt lat="42.7671610" lon="-8.6557470">
        <ele>12.4</ele>
        <time>2021-05-23T13:23:41Z</time>
      </trkpt>
      <trkpt lat="42.7671740" lon="-8.6557540">
        <ele>12.3</ele>
        <time>2021-05-23T13:23:42Z</time>
      </trkpt>
      <trkpt lat="42.7671850" lon="-8.6557580">
        <ele>12.3</ele>
        <time>2021-05-23T13:23:43Z</time>
      </trkpt>
      <trkpt lat="42.7671920" lon="-8.6557680">
        <ele>12.2</ele>
        <time>2021-05-23T13:23:44Z</time>
      </trkpt>
      <trkpt lat="42.7672040" lon="-8.6557680">
        <ele>12.2</ele>
        <time>2021-05-23T13:23:45Z</time>
      </trkpt>
      <trkpt lat="42.7672120" lon="-8.6557530">
        <ele>12.1</ele>
        <time>2021-05-23T13:23:46Z</time>
      </trkpt>
      <trkpt lat="42.7672260" lon="-8.6557660">
        <ele>12.0</ele>
        <time>2021-05-23T13:23:47Z</time>
      </trkpt>
      <trkpt lat="42.7672450" lon="-8.6557500">
        <ele>12.0</ele>
        <time>2021-05-23T13:23:48Z</time>
      </trkpt>
      <trkpt lat="42.7672520" lon="-8.6557500">
        <ele>11.9</ele>
        <time>2021-05-23T13:23:49Z</time>
      </trkpt>
      <trkpt lat="42.7672600" lon="-8.6557490">
        <ele>11.9</ele>
        <time>2021-05-23T13:23:50Z</time>
      </trkpt>
      <trkpt lat="42.7672760" lon="-8.6557460">
        <ele>11.8</ele>
        <time>2021-05-23T13:23:51Z</time>
      </trkpt>
      <trkpt lat="42.7672890" lon="-8.6557440">
        <ele>11.8</ele>
        <time>2021-05-23T13:23:52Z</time>
      </trkpt>
      <trkpt lat="42.7673020" lon="-8.6557430">
        <ele>11.7</ele>
        <time>2021-05-23T13:23:53Z</time>
      </trkpt>
      <trkpt lat="42.7673180" lon="-8.6557500">
        <ele>11.7</ele>
        <time>2021-05-23T13:23:54Z</time>
      </trkpt>
      <trkpt lat="42.7673360" lon="-8.6557430">
        <ele>11.6</ele>
        <time>2021-05-23T13:23:55Z</time>
      </trkpt>
      <trkpt lat="42.7673470" lon="-8.6557440">
        <ele>11.6</ele>
        <time>2021-05-23T13:23:56Z</time>
      </trkpt>
      <trkpt lat="42.7673590" lon="-8.6557440">
        <ele>11.6</ele>
        <time>2021-05-23T13:23:57Z</time>
      </trkpt>
      <trkpt lat="42.7673720" lon="-8.6557400">
        <ele>11.5</ele>
        <time>2021-05-23T13:23:58Z</time>
      </trkpt>
      <trkpt lat="42.7673880" lon="-8.6557350">
        <ele>11.5</ele>
        <time>2021-05-23T13:23:59Z</time>
      </trkpt>
      <trkpt lat="42.7674040" lon="-8.6557310">
        <ele>11.4</ele>
        <time>2021-05-23T13:24:00Z</time>
      </trkpt>
      <trkpt lat="42.7674180" lon="-8.6557320">
        <ele>11.4</ele>
        <time>2021-05-23T13:24:01Z</time>
      </trkpt>
      <trkpt lat="42.7674340" lon="-8.6557300">
        <ele>11.4</ele>
        <time>2021-05-23T13:24:02Z</time>
      </trkpt>
      <trkpt lat="42.7674480" lon="-8.6557280">
        <ele>11.3</ele>
        <time>2021-05-23T13:24:03Z</time>
      </trkpt>
      <trkpt lat="42.7674640" lon="-8.6557330">
        <ele>11.3</ele>
        <time>2021-05-23T13:24:04Z</time>
      </trkpt>
      <trkpt lat="42.7674790" lon="-8.6557220">
        <ele>11.2</ele>
        <time>2021-05-23T13:24:05Z</time>
      </trkpt>
      <trkpt lat="42.7674940" lon="-8.6557270">
        <ele>11.2</ele>
        <time>2021-05-23T13:24:06Z</time>
      </trkpt>
      <trkpt lat="42.7675090" lon="-8.6557300">
        <ele>11.2</ele>
        <time>2021-05-23T13:24:07Z</time>
      </trkpt>
      <trkpt lat="42.7675250" lon="-8.6557270">
        <ele>11.1</ele>
        <time>2021-05-23T13:24:08Z</time>
      </trkpt>
      <trkpt lat="42.7675360" lon="-8.6557250">
        <ele>11.1</ele>
        <time>2021-05-23T13:24:09Z</time>
      </trkpt>
      <trkpt lat="42.7675580" lon="-8.6557250">
        <ele>11.1</ele>
        <time>2021-05-23T13:24:10Z</time>
      </trkpt>
      <trkpt lat="42.7675680" lon="-8.6557250">
        <ele>11.0</ele>
        <time>2021-05-23T13:24:11Z</time>
      </trkpt>
      <trkpt lat="42.7675780" lon="-8.6557250">
        <ele>11.0</ele>
        <time>2021-05-23T13:24:12Z</time>
      </trkpt>
      <trkpt lat="42.7675910" lon="-8.6557220">
        <ele>11.0</ele>
        <time>2021-05-23T13:24:13Z</time>
      </trkpt>
      <trkpt lat="42.7676070" lon="-8.6557300">
        <ele>10.9</ele>
        <time>2021-05-23T13:24:14Z</time>
      </trkpt>
      <trkpt lat="42.7676260" lon="-8.6557250">
        <ele>10.9</ele>
        <time>2021-05-23T13:24:15Z</time>
      </trkpt>
      <trkpt lat="42.7676420" lon="-8.6557220">
        <ele>10.9</ele>
        <time>2021-05-23T13:24:16Z</time>
      </trkpt>
      <trkpt lat="42.7676580" lon="-8.6557200">
        <ele>10.8</ele>
        <time>2021-05-23T13:24:17Z</time>
      </trkpt>
      <trkpt lat="42.7676730" lon="-8.6557160">
        <ele>10.8</ele>
        <time>2021-05-23T13:24:18Z</time>
      </trkpt>
      <trkpt lat="42.7676890" lon="-8.6557040">
        <ele>10.8</ele>
        <time>2021-05-23T13:24:19Z</time>
      </trkpt>
      <trkpt lat="42.7677060" lon="-8.6557040">
        <ele>10.7</ele>
        <time>2021-05-23T13:24:20Z</time>
      </trkpt>
      <trkpt lat="42.7677200" lon="-8.6557090">
        <ele>10.7</ele>
        <time>2021-05-23T13:24:21Z</time>
      </trkpt>
      <trkpt lat="42.7677360" lon="-8.6557090">
        <ele>10.7</ele>
        <time>2021-05-23T13:24:22Z</time>
      </trkpt>
      <trkpt lat="42.7677500" lon="-8.6557050">
        <ele>10.7</ele>
        <time>2021-05-23T13:24:23Z</time>
      </trkpt>
      <trkpt lat="42.7677640" lon="-8.6557020">
        <ele>10.7</ele>
        <time>2021-05-23T13:24:24Z</time>
      </trkpt>
      <trkpt lat="42.7677770" lon="-8.6556960">
        <ele>10.6</ele>
        <time>2021-05-23T13:24:25Z</time>
      </trkpt>
      <trkpt lat="42.7677910" lon="-8.6556960">
        <ele>10.6</ele>
        <time>2021-05-23T13:24:26Z</time>
      </trkpt>
      <trkpt lat="42.7678030" lon="-8.6556860">
        <ele>10.6</ele>
        <time>2021-05-23T13:24:27Z</time>
      </trkpt>
      <trkpt lat="42.7678170" lon="-8.6556850">
        <ele>10.6</ele>
        <time>2021-05-23T13:24:28Z</time>
      </trkpt>
      <trkpt lat="42.7678310" lon="-8.6556870">
        <ele>10.6</ele>
        <time>2021-05-23T13:24:29Z</time>
      </trkpt>
      <trkpt lat="42.7678470" lon="-8.6556900">
        <ele>10.5</ele>
        <time>2021-05-23T13:24:30Z</time>
      </trkpt>
      <trkpt lat="42.7678680" lon="-8.6556910">
        <ele>10.5</ele>
        <time>2021-05-23T13:24:31Z</time>
      </trkpt>
      <trkpt lat="42.7678760" lon="-8.6556930">
        <ele>10.5</ele>
        <time>2021-05-23T13:24:32Z</time>
      </trkpt>
      <trkpt lat="42.7678840" lon="-8.6556940">
        <ele>10.5</ele>
        <time>2021-05-23T13:24:33Z</time>
      </trkpt>
      <trkpt lat="42.7678980" lon="-8.6556920">
        <ele>10.5</ele>
        <time>2021-05-23T13:24:34Z</time>
      </trkpt>
      <trkpt lat="42.7679110" lon="-8.6556860">
        <ele>10.5</ele>
        <time>2021-05-23T13:24:35Z</time>
      </trkpt>
      <trkpt lat="42.7679270" lon="-8.6556840">
        <ele>10.5</ele>
        <time>2021-05-23T13:24:36Z</time>
      </trkpt>
      <trkpt lat="42.7679440" lon="-8.6556890">
        <ele>10.4</ele>
        <time>2021-05-23T13:24:37Z</time>
      </trkpt>
      <trkpt lat="42.7679560" lon="-8.6557000">
        <ele>10.4</ele>
        <time>2021-05-23T13:24:38Z</time>
      </trkpt>
      <trkpt lat="42.7679690" lon="-8.6557010">
        <ele>10.4</ele>
        <time>2021-05-23T13:24:39Z</time>
      </trkpt>
      <trkpt lat="42.7679800" lon="-8.6557150">
        <ele>10.4</ele>
        <time>2021-05-23T13:24:40Z</time>
      </trkpt>
      <trkpt lat="42.7679940" lon="-8.6557210">
        <ele>10.4</ele>
        <time>2021-05-23T13:24:41Z</time>
      </trkpt>
      <trkpt lat="42.7680080" lon="-8.6557350">
        <ele>10.4</ele>
        <time>2021-05-23T13:24:42Z</time>
      </trkpt>
      <trkpt lat="42.7680210" lon="-8.6557420">
        <ele>10.4</ele>
        <time>2021-05-23T13:24:43Z</time>
      </trkpt>
      <trkpt lat="42.7680310" lon="-8.6557570">
        <ele>10.4</ele>
        <time>2021-05-23T13:24:44Z</time>
      </trkpt>
      <trkpt lat="42.7680400" lon="-8.6557700">
        <ele>10.3</ele>
        <time>2021-05-23T13:24:45Z</time>
      </trkpt>
      <trkpt lat="42.7680490" lon="-8.6557860">
        <ele>10.3</ele>
        <time>2021-05-23T13:24:46Z</time>
      </trkpt>
      <trkpt lat="42.7680540" lon="-8.6558060">
        <ele>10.3</ele>
        <time>2021-05-23T13:24:47Z</time>
      </trkpt>
      <trkpt lat="42.7680650" lon="-8.6558270">
        <ele>10.3</ele>
        <time>2021-05-23T13:24:48Z</time>
      </trkpt>
      <trkpt lat="42.7680680" lon="-8.6558460">
        <ele>10.3</ele>
        <time>2021-05-23T13:24:49Z</time>
      </trkpt>
      <trkpt lat="42.7680690" lon="-8.6558690">
        <ele>10.3</ele>
        <time>2021-05-23T13:24:50Z</time>
      </trkpt>
      <trkpt lat="42.7680770" lon="-8.6558890">
        <ele>10.3</ele>
        <time>2021-05-23T13:24:51Z</time>
      </trkpt>
      <trkpt lat="42.7680810" lon="-8.6559180">
        <ele>10.3</ele>
        <time>2021-05-23T13:24:52Z</time>
      </trkpt>
      <trkpt lat="42.7680810" lon="-8.6559330">
        <ele>10.2</ele>
        <time>2021-05-23T13:24:53Z</time>
      </trkpt>
      <trkpt lat="42.7680810" lon="-8.6559470">
        <ele>10.2</ele>
        <time>2021-05-23T13:24:54Z</time>
      </trkpt>
      <trkpt lat="42.7680810" lon="-8.6559700">
        <ele>10.2</ele>
        <time>2021-05-23T13:24:55Z</time>
      </trkpt>
      <trkpt lat="42.7680830" lon="-8.6559940">
        <ele>10.2</ele>
        <time>2021-05-23T13:24:56Z</time>
      </trkpt>
      <trkpt lat="42.7680940" lon="-8.6560100">
        <ele>10.2</ele>
        <time>2021-05-23T13:24:57Z</time>
      </trkpt>
      <trkpt lat="42.7680930" lon="-8.6560330">
        <ele>10.2</ele>
        <time>2021-05-23T13:24:58Z</time>
      </trkpt>
      <trkpt lat="42.7681040" lon="-8.6560490">
        <ele>10.2</ele>
        <time>2021-05-23T13:24:59Z</time>
      </trkpt>
      <trkpt lat="42.7681110" lon="-8.6560710">
        <ele>10.2</ele>
        <time>2021-05-23T13:25:00Z</time>
      </trkpt>
      <trkpt lat="42.7681160" lon="-8.6560890">
        <ele>10.3</ele>
        <time>2021-05-23T13:25:01Z</time>
      </trkpt>
      <trkpt lat="42.7681210" lon="-8.6561060">
        <ele>10.3</ele>
        <time>2021-05-23T13:25:02Z</time>
      </trkpt>
      <trkpt lat="42.7681200" lon="-8.6561210">
        <ele>10.3</ele>
        <time>2021-05-23T13:25:03Z</time>
      </trkpt>
      <trkpt lat="42.7681220" lon="-8.6561280">
        <ele>10.3</ele>
        <time>2021-05-23T13:25:04Z</time>
      </trkpt>
      <trkpt lat="42.7681200" lon="-8.6561390">
        <ele>10.3</ele>
        <time>2021-05-23T13:25:05Z</time>
      </trkpt>
      <trkpt lat="42.7681200" lon="-8.6561540">
        <ele>10.3</ele>
        <time>2021-05-23T13:25:06Z</time>
      </trkpt>
      <trkpt lat="42.7681190" lon="-8.6561650">
        <ele>10.3</ele>
        <time>2021-05-23T13:25:07Z</time>
      </trkpt>
      <trkpt lat="42.7681100" lon="-8.6561690">
        <ele>10.3</ele>
        <time>2021-05-23T13:25:08Z</time>
      </trkpt>
      <trkpt lat="42.7681080" lon="-8.6561920">
        <ele>10.3</ele>
        <time>2021-05-23T13:25:09Z</time>
      </trkpt>
      <trkpt lat="42.7681150" lon="-8.6561930">
        <ele>10.3</ele>
        <time>2021-05-23T13:25:10Z</time>
      </trkpt>
      <trkpt lat="42.7681130" lon="-8.6561820">
        <ele>10.3</ele>
        <time>2021-05-23T13:25:11Z</time>
      </trkpt>
      <trkpt lat="42.7681140" lon="-8.6561770">
        <ele>10.3</ele>
        <time>2021-05-23T13:25:12Z</time>
      </trkpt>
      <trkpt lat="42.7681130" lon="-8.6561690">
        <ele>10.3</ele>
        <time>2021-05-23T13:25:13Z</time>
      </trkpt>
      <trkpt lat="42.7681080" lon="-8.6561530">
        <ele>10.3</ele>
        <time>2021-05-23T13:25:14Z</time>
      </trkpt>
      <trkpt lat="42.7681070" lon="-8.6561390">
        <ele>10.3</ele>
        <time>2021-05-23T13:25:15Z</time>
      </trkpt>
      <trkpt lat="42.7681060" lon="-8.6561240">
        <ele>10.3</ele>
        <time>2021-05-23T13:25:16Z</time>
      </trkpt>
      <trkpt lat="42.7681080" lon="-8.6561120">
        <ele>10.3</ele>
        <time>2021-05-23T13:25:17Z</time>
      </trkpt>
      <trkpt lat="42.7680780" lon="-8.6561090">
        <ele>10.4</ele>
        <time>2021-05-23T13:25:18Z</time>
      </trkpt>
      <trkpt lat="42.7680650" lon="-8.6560750">
        <ele>10.4</ele>
        <time>2021-05-23T13:25:19Z</time>
      </trkpt>
      <trkpt lat="42.7680650" lon="-8.6560680">
        <ele>10.4</ele>
        <time>2021-05-23T13:25:20Z</time>
      </trkpt>
      <trkpt lat="42.7680640" lon="-8.6560610">
        <ele>10.4</ele>
        <time>2021-05-23T13:25:21Z</time>
      </trkpt>
      <trkpt lat="42.7680590" lon="-8.6560420">
        <ele>10.4</ele>
        <time>2021-05-23T13:25:22Z</time>
      </trkpt>
      <trkpt lat="42.7680550" lon="-8.6560210">
        <ele>10.4</ele>
        <time>2021-05-23T13:25:23Z</time>
      </trkpt>
      <trkpt lat="42.7680500" lon="-8.6560030">
        <ele>10.4</ele>
        <time>2021-05-23T13:25:24Z</time>
      </trkpt>
      <trkpt lat="42.7680500" lon="-8.6560010">
        <ele>10.4</ele>
        <time>2021-05-23T13:25:25Z</time>
      </trkpt>
      <trkpt lat="42.7680470" lon="-8.6559870">
        <ele>10.4</ele>
        <time>2021-05-23T13:25:26Z</time>
      </trkpt>
      <trkpt lat="42.7680450" lon="-8.6559800">
        <ele>10.4</ele>
        <time>2021-05-23T13:25:27Z</time>
      </trkpt>
      <trkpt lat="42.7680490" lon="-8.6559870">
        <ele>10.4</ele>
        <time>2021-05-23T13:25:28Z</time>
      </trkpt>
      <trkpt lat="42.7680400" lon="-8.6559780">
        <ele>10.4</ele>
        <time>2021-05-23T13:25:29Z</time>
      </trkpt>
      <trkpt lat="42.7680420" lon="-8.6559600">
        <ele>10.5</ele>
        <time>2021-05-23T13:25:30Z</time>
      </trkpt>
      <trkpt lat="42.7680360" lon="-8.6559370">
        <ele>10.5</ele>
        <time>2021-05-23T13:25:31Z</time>
      </trkpt>
      <trkpt lat="42.7680330" lon="-8.6559220">
        <ele>10.5</ele>
        <time>2021-05-23T13:25:32Z</time>
      </trkpt>
      <trkpt lat="42.7680290" lon="-8.6558990">
        <ele>10.5</ele>
        <time>2021-05-23T13:25:33Z</time>
      </trkpt>
      <trkpt lat="42.7680180" lon="-8.6558750">
        <ele>10.5</ele>
        <time>2021-05-23T13:25:34Z</time>
      </trkpt>
      <trkpt lat="42.7680130" lon="-8.6558620">
        <ele>10.5</ele>
        <time>2021-05-23T13:25:35Z</time>
      </trkpt>
      <trkpt lat="42.7680070" lon="-8.6558500">
        <ele>10.5</ele>
        <time>2021-05-23T13:25:36Z</time>
      </trkpt>
      <trkpt lat="42.7680030" lon="-8.6558290">
        <ele>10.5</ele>
        <time>2021-05-23T13:25:37Z</time>
      </trkpt>
      <trkpt lat="42.7679960" lon="-8.6558120">
        <ele>10.5</ele>
        <time>2021-05-23T13:25:38Z</time>
      </trkpt>
      <trkpt lat="42.7679840" lon="-8.6557950">
        <ele>10.6</ele>
        <time>2021-05-23T13:25:39Z</time>
      </trkpt>
      <trkpt lat="42.7679730" lon="-8.6557790">
        <ele>10.6</ele>
        <time>2021-05-23T13:25:40Z</time>
      </trkpt>
      <trkpt lat="42.7679670" lon="-8.6557630">
        <ele>10.6</ele>
        <time>2021-05-23T13:25:41Z</time>
      </trkpt>
      <trkpt lat="42.7679590" lon="-8.6557450">
        <ele>10.6</ele>
        <time>2021-05-23T13:25:42Z</time>
      </trkpt>
      <trkpt lat="42.7679530" lon="-8.6557300">
        <ele>10.6</ele>
        <time>2021-05-23T13:25:43Z</time>
      </trkpt>
      <trkpt lat="42.7679400" lon="-8.6557270">
        <ele>10.6</ele>
        <time>2021-05-23T13:25:44Z</time>
      </trkpt>
      <trkpt lat="42.7679360" lon="-8.6557160">
        <ele>10.6</ele>
        <time>2021-05-23T13:25:45Z</time>
      </trkpt>
      <trkpt lat="42.7679340" lon="-8.6557150">
        <ele>10.6</ele>
        <time>2021-05-23T13:25:46Z</time>
      </trkpt>
      <trkpt lat="42.7679390" lon="-8.6557230">
        <ele>10.6</ele>
        <time>2021-05-23T13:25:47Z</time>
      </trkpt>
      <trkpt lat="42.7679400" lon="-8.6557250">
        <ele>10.6</ele>
        <time>2021-05-23T13:25:48Z</time>
      </trkpt>
      <trkpt lat="42.7679430" lon="-8.6557240">
        <ele>10.6</ele>
        <time>2021-05-23T13:25:49Z</time>
      </trkpt>
      <trkpt lat="42.7679470" lon="-8.6557260">
        <ele>10.6</ele>
        <time>2021-05-23T13:25:50Z</time>
      </trkpt>
      <trkpt lat="42.7679470" lon="-8.6557280">
        <ele>10.6</ele>
        <time>2021-05-23T13:25:51Z</time>
      </trkpt>
      <trkpt lat="42.7679480" lon="-8.6557270">
        <ele>10.6</ele>
        <time>2021-05-23T13:25:52Z</time>
      </trkpt>
      <trkpt lat="42.7679480" lon="-8.6557260">
        <ele>10.6</ele>
        <time>2021-05-23T13:25:53Z</time>
      </trkpt>
      <trkpt lat="42.7679470" lon="-8.6557280">
        <ele>10.6</ele>
        <time>2021-05-23T13:25:54Z</time>
      </trkpt>
      <trkpt lat="42.7679470" lon="-8.6557300">
        <ele>10.6</ele>
        <time>2021-05-23T13:25:55Z</time>
      </trkpt>
      <trkpt lat="42.7679470" lon="-8.6557300">
        <ele>10.6</ele>
        <time>2021-05-23T13:25:56Z</time>
      </trkpt>
      <trkpt lat="42.7679480" lon="-8.6557300">
        <ele>10.6</ele>
        <time>2021-05-23T13:25:57Z</time>
      </trkpt>
      <trkpt lat="42.7679490" lon="-8.6557290">
        <ele>10.7</ele>
        <time>2021-05-23T13:25:58Z</time>
      </trkpt>
      <trkpt lat="42.7679510" lon="-8.6557290">
        <ele>10.7</ele>
        <time>2021-05-23T13:25:59Z</time>
      </trkpt>
      <trkpt lat="42.7679510" lon="-8.6557300">
        <ele>10.7</ele>
        <time>2021-05-23T13:26:00Z</time>
      </trkpt>
      <trkpt lat="42.7679520" lon="-8.6557290">
        <ele>10.7</ele>
        <time>2021-05-23T13:26:01Z</time>
      </trkpt>
      <trkpt lat="42.7679510" lon="-8.6557280">
        <ele>10.7</ele>
        <time>2021-05-23T13:26:02Z</time>
      </trkpt>
      <trkpt lat="42.7679510" lon="-8.6557270">
        <ele>10.7</ele>
        <time>2021-05-23T13:26:03Z</time>
      </trkpt>
      <trkpt lat="42.7679510" lon="-8.6557270">
        <ele>10.7</ele>
        <time>2021-05-23T13:26:04Z</time>
      </trkpt>
      <trkpt lat="42.7679530" lon="-8.6557270">
        <ele>10.7</ele>
        <time>2021-05-23T13:26:05Z</time>
      </trkpt>
      <trkpt lat="42.7679550" lon="-8.6557260">
        <ele>10.7</ele>
        <time>2021-05-23T13:26:06Z</time>
      </trkpt>
      <trkpt lat="42.7679570" lon="-8.6557250">
        <ele>10.7</ele>
        <time>2021-05-23T13:26:07Z</time>
      </trkpt>
      <trkpt lat="42.7679600" lon="-8.6557240">
        <ele>10.7</ele>
        <time>2021-05-23T13:26:08Z</time>
      </trkpt>
      <trkpt lat="42.7679600" lon="-8.6557230">
        <ele>10.7</ele>
        <time>2021-05-23T13:26:09Z</time>
      </trkpt>
      <trkpt lat="42.7679580" lon="-8.6557230">
        <ele>10.7</ele>
        <time>2021-05-23T13:26:10Z</time>
      </trkpt>
      <trkpt lat="42.7679590" lon="-8.6557210">
        <ele>10.7</ele>
        <time>2021-05-23T13:26:11Z</time>
      </trkpt>
      <trkpt lat="42.7679580" lon="-8.6557200">
        <ele>10.7</ele>
        <time>2021-05-23T13:26:12Z</time>
      </trkpt>
      <trkpt lat="42.7679470" lon="-8.6557260">
        <ele>10.7</ele>
        <time>2021-05-23T13:26:13Z</time>
      </trkpt>
      <trkpt lat="42.7679490" lon="-8.6557250">
        <ele>10.7</ele>
        <time>2021-05-23T13:26:14Z</time>
      </trkpt>
      <trkpt lat="42.7679500" lon="-8.6557250">
        <ele>10.7</ele>
        <time>2021-05-23T13:26:15Z</time>
      </trkpt>
      <trkpt lat="42.7679520" lon="-8.6557220">
        <ele>10.7</ele>
        <time>2021-05-23T13:26:16Z</time>
      </trkpt>
      <trkpt lat="42.7679570" lon="-8.6557210">
        <ele>10.7</ele>
        <time>2021-05-23T13:26:17Z</time>
      </trkpt>
      <trkpt lat="42.7679570" lon="-8.6557220">
        <ele>10.7</ele>
        <time>2021-05-23T13:26:18Z</time>
      </trkpt>
      <trkpt lat="42.7679610" lon="-8.6557230">
        <ele>10.7</ele>
        <time>2021-05-23T13:26:19Z</time>
      </trkpt>
      <trkpt lat="42.7679580" lon="-8.6557250">
        <ele>10.7</ele>
        <time>2021-05-23T13:26:20Z</time>
      </trkpt>
      <trkpt lat="42.7679530" lon="-8.6557230">
        <ele>10.7</ele>
        <time>2021-05-23T13:26:21Z</time>
      </trkpt>
      <trkpt lat="42.7679550" lon="-8.6557220">
        <ele>10.7</ele>
        <time>2021-05-23T13:26:22Z</time>
      </trkpt>
      <trkpt lat="42.7679480" lon="-8.6557150">
        <ele>10.7</ele>
        <time>2021-05-23T13:26:23Z</time>
      </trkpt>
      <trkpt lat="42.7679470" lon="-8.6557050">
        <ele>10.7</ele>
        <time>2021-05-23T13:26:24Z</time>
      </trkpt>
      <trkpt lat="42.7679470" lon="-8.6557090">
        <ele>10.7</ele>
        <time>2021-05-23T13:26:25Z</time>
      </trkpt>
      <trkpt lat="42.7679430" lon="-8.6557090">
        <ele>10.7</ele>
        <time>2021-05-23T13:26:26Z</time>
      </trkpt>
      <trkpt lat="42.7679340" lon="-8.6557010">
        <ele>10.8</ele>
        <time>2021-05-23T13:26:27Z</time>
      </trkpt>
      <trkpt lat="42.7679210" lon="-8.6556990">
        <ele>10.8</ele>
        <time>2021-05-23T13:26:28Z</time>
      </trkpt>
      <trkpt lat="42.7679110" lon="-8.6557010">
        <ele>10.8</ele>
        <time>2021-05-23T13:26:29Z</time>
      </trkpt>
      <trkpt lat="42.7678900" lon="-8.6557030">
        <ele>10.8</ele>
        <time>2021-05-23T13:26:30Z</time>
      </trkpt>
      <trkpt lat="42.7678810" lon="-8.6557060">
        <ele>10.8</ele>
        <time>2021-05-23T13:26:31Z</time>
      </trkpt>
      <trkpt lat="42.7678710" lon="-8.6557090">
        <ele>10.9</ele>
        <time>2021-05-23T13:26:32Z</time>
      </trkpt>
      <trkpt lat="42.7678500" lon="-8.6557120">
        <ele>10.9</ele>
        <time>2021-05-23T13:26:33Z</time>
      </trkpt>
      <trkpt lat="42.7678420" lon="-8.6557120">
        <ele>10.9</ele>
        <time>2021-05-23T13:26:34Z</time>
      </trkpt>
      <trkpt lat="42.7678330" lon="-8.6557130">
        <ele>10.9</ele>
        <time>2021-05-23T13:26:35Z</time>
      </trkpt>
      <trkpt lat="42.7678130" lon="-8.6557190">
        <ele>10.9</ele>
        <time>2021-05-23T13:26:36Z</time>
      </trkpt>
      <trkpt lat="42.7678030" lon="-8.6557210">
        <ele>11.0</ele>
        <time>2021-05-23T13:26:37Z</time>
      </trkpt>
      <trkpt lat="42.7677940" lon="-8.6557240">
        <ele>11.0</ele>
        <time>2021-05-23T13:26:38Z</time>
      </trkpt>
      <trkpt lat="42.7677730" lon="-8.6557280">
        <ele>11.0</ele>
        <time>2021-05-23T13:26:39Z</time>
      </trkpt>
      <trkpt lat="42.7677630" lon="-8.6557300">
        <ele>11.0</ele>
        <time>2021-05-23T13:26:40Z</time>
      </trkpt>
      <trkpt lat="42.7677540" lon="-8.6557310">
        <ele>11.0</ele>
        <time>2021-05-23T13:26:41Z</time>
      </trkpt>
      <trkpt lat="42.7677290" lon="-8.6557350">
        <ele>11.1</ele>
        <time>2021-05-23T13:26:42Z</time>
      </trkpt>
      <trkpt lat="42.7677230" lon="-8.6557360">
        <ele>11.1</ele>
        <time>2021-05-23T13:26:43Z</time>
      </trkpt>
      <trkpt lat="42.7677160" lon="-8.6557370">
        <ele>11.1</ele>
        <time>2021-05-23T13:26:44Z</time>
      </trkpt>
      <trkpt lat="42.7677000" lon="-8.6557360">
        <ele>11.1</ele>
        <time>2021-05-23T13:26:45Z</time>
      </trkpt>
      <trkpt lat="42.7676880" lon="-8.6557360">
        <ele>11.2</ele>
        <time>2021-05-23T13:26:46Z</time>
      </trkpt>
      <trkpt lat="42.7676740" lon="-8.6557360">
        <ele>11.2</ele>
        <time>2021-05-23T13:26:47Z</time>
      </trkpt>
      <trkpt lat="42.7676570" lon="-8.6557450">
        <ele>11.2</ele>
        <time>2021-05-23T13:26:48Z</time>
      </trkpt>
      <trkpt lat="42.7676430" lon="-8.6557470">
        <ele>11.2</ele>
        <time>2021-05-23T13:26:49Z</time>
      </trkpt>
      <trkpt lat="42.7676290" lon="-8.6557450">
        <ele>11.3</ele>
        <time>2021-05-23T13:26:50Z</time>
      </trkpt>
      <trkpt lat="42.7676150" lon="-8.6557450">
        <ele>11.3</ele>
        <time>2021-05-23T13:26:51Z</time>
      </trkpt>
      <trkpt lat="42.7676000" lon="-8.6557450">
        <ele>11.3</ele>
        <time>2021-05-23T13:26:52Z</time>
      </trkpt>
      <trkpt lat="42.7675860" lon="-8.6557530">
        <ele>11.3</ele>
        <time>2021-05-23T13:26:53Z</time>
      </trkpt>
      <trkpt lat="42.7675720" lon="-8.6557570">
        <ele>11.4</ele>
        <time>2021-05-23T13:26:54Z</time>
      </trkpt>
      <trkpt lat="42.7675590" lon="-8.6557600">
        <ele>11.4</ele>
        <time>2021-05-23T13:26:55Z</time>
      </trkpt>
      <trkpt lat="42.7675440" lon="-8.6557590">
        <ele>11.4</ele>
        <time>2021-05-23T13:26:56Z</time>
      </trkpt>
      <trkpt lat="42.7675300" lon="-8.6557610">
        <ele>11.4</ele>
        <time>2021-05-23T13:26:57Z</time>
      </trkpt>
      <trkpt lat="42.7675150" lon="-8.6557660">
        <ele>11.5</ele>
        <time>2021-05-23T13:26:58Z</time>
      </trkpt>
      <trkpt lat="42.7675000" lon="-8.6557650">
        <ele>11.5</ele>
        <time>2021-05-23T13:26:59Z</time>
      </trkpt>
      <trkpt lat="42.7674850" lon="-8.6557690">
        <ele>11.5</ele>
        <time>2021-05-23T13:27:00Z</time>
      </trkpt>
      <trkpt lat="42.7674700" lon="-8.6557670">
        <ele>11.6</ele>
        <time>2021-05-23T13:27:01Z</time>
      </trkpt>
      <trkpt lat="42.7674540" lon="-8.6557700">
        <ele>11.6</ele>
        <time>2021-05-23T13:27:02Z</time>
      </trkpt>
      <trkpt lat="42.7674390" lon="-8.6557690">
        <ele>11.6</ele>
        <time>2021-05-23T13:27:03Z</time>
      </trkpt>
      <trkpt lat="42.7674240" lon="-8.6557700">
        <ele>11.7</ele>
        <time>2021-05-23T13:27:04Z</time>
      </trkpt>
      <trkpt lat="42.7674090" lon="-8.6557710">
        <ele>11.7</ele>
        <time>2021-05-23T13:27:05Z</time>
      </trkpt>
      <trkpt lat="42.7673950" lon="-8.6557760">
        <ele>11.7</ele>
        <time>2021-05-23T13:27:06Z</time>
      </trkpt>
      <trkpt lat="42.7673810" lon="-8.6557750">
        <ele>11.8</ele>
        <time>2021-05-23T13:27:07Z</time>
      </trkpt>
      <trkpt lat="42.7673650" lon="-8.6557790">
        <ele>11.8</ele>
        <time>2021-05-23T13:27:08Z</time>
      </trkpt>
      <trkpt lat="42.7673510" lon="-8.6557850">
        <ele>11.9</ele>
        <time>2021-05-23T13:27:09Z</time>
      </trkpt>
      <trkpt lat="42.7673350" lon="-8.6557810">
        <ele>11.9</ele>
        <time>2021-05-23T13:27:10Z</time>
      </trkpt>
      <trkpt lat="42.7673210" lon="-8.6557780">
        <ele>11.9</ele>
        <time>2021-05-23T13:27:11Z</time>
      </trkpt>
      <trkpt lat="42.7673080" lon="-8.6557770">
        <ele>12.0</ele>
        <time>2021-05-23T13:27:12Z</time>
      </trkpt>
      <trkpt lat="42.7672930" lon="-8.6557840">
        <ele>12.0</ele>
        <time>2021-05-23T13:27:13Z</time>
      </trkpt>
      <trkpt lat="42.7672790" lon="-8.6557890">
        <ele>12.1</ele>
        <time>2021-05-23T13:27:14Z</time>
      </trkpt>
      <trkpt lat="42.7672650" lon="-8.6557880">
        <ele>12.1</ele>
        <time>2021-05-23T13:27:15Z</time>
      </trkpt>
      <trkpt lat="42.7672520" lon="-8.6557890">
        <ele>12.2</ele>
        <time>2021-05-23T13:27:16Z</time>
      </trkpt>
      <trkpt lat="42.7672360" lon="-8.6557880">
        <ele>12.2</ele>
        <time>2021-05-23T13:27:17Z</time>
      </trkpt>
      <trkpt lat="42.7672220" lon="-8.6557880">
        <ele>12.3</ele>
        <time>2021-05-23T13:27:18Z</time>
      </trkpt>
      <trkpt lat="42.7672030" lon="-8.6558030">
        <ele>12.3</ele>
        <time>2021-05-23T13:27:19Z</time>
      </trkpt>
      <trkpt lat="42.7671960" lon="-8.6558140">
        <ele>12.4</ele>
        <time>2021-05-23T13:27:20Z</time>
      </trkpt>
      <trkpt lat="42.7671900" lon="-8.6558240">
        <ele>12.4</ele>
        <time>2021-05-23T13:27:21Z</time>
      </trkpt>
      <trkpt lat="42.7671750" lon="-8.6558250">
        <ele>12.5</ele>
        <time>2021-05-23T13:27:22Z</time>
      </trkpt>
      <trkpt lat="42.7671630" lon="-8.6558310">
        <ele>12.5</ele>
        <time>2021-05-23T13:27:23Z</time>
      </trkpt>
      <trkpt lat="42.7671380" lon="-8.6558120">
        <ele>12.6</ele>
        <time>2021-05-23T13:27:24Z</time>
      </trkpt>
      <trkpt lat="42.7671300" lon="-8.6558050">
        <ele>12.6</ele>
        <time>2021-05-23T13:27:25Z</time>
      </trkpt>
      <trkpt lat="42.7671170" lon="-8.6558020">
        <ele>12.7</ele>
        <time>2021-05-23T13:27:26Z</time>
      </trkpt>
      <trkpt lat="42.7671040" lon="-8.6557890">
        <ele>12.7</ele>
        <time>2021-05-23T13:27:27Z</time>
      </trkpt>
      <trkpt lat="42.7670910" lon="-8.6557790">
        <ele>12.8</ele>
        <time>2021-05-23T13:27:28Z</time>
      </trkpt>
      <trkpt lat="42.7670790" lon="-8.6557710">
        <ele>12.8</ele>
        <time>2021-05-23T13:27:29Z</time>
      </trkpt>
      <trkpt lat="42.7670650" lon="-8.6557630">
        <ele>12.9</ele>
        <time>2021-05-23T13:27:30Z</time>
      </trkpt>
      <trkpt lat="42.7670510" lon="-8.6557540">
        <ele>13.0</ele>
        <time>2021-05-23T13:27:31Z</time>
      </trkpt>
      <trkpt lat="42.7670400" lon="-8.6557410">
        <ele>13.0</ele>
        <time>2021-05-23T13:27:32Z</time>
      </trkpt>
      <trkpt lat="42.7670320" lon="-8.6557230">
        <ele>13.1</ele>
        <time>2021-05-23T13:27:33Z</time>
      </trkpt>
      <trkpt lat="42.7670250" lon="-8.6557020">
        <ele>13.2</ele>
        <time>2021-05-23T13:27:34Z</time>
      </trkpt>
      <trkpt lat="42.7670160" lon="-8.6556880">
        <ele>13.2</ele>
        <time>2021-05-23T13:27:35Z</time>
      </trkpt>
      <trkpt lat="42.7670120" lon="-8.6556670">
        <ele>13.3</ele>
        <time>2021-05-23T13:27:36Z</time>
      </trkpt>
      <trkpt lat="42.7670070" lon="-8.6556500">
        <ele>13.3</ele>
        <time>2021-05-23T13:27:37Z</time>
      </trkpt>
      <trkpt lat="42.7670010" lon="-8.6556360">
        <ele>13.4</ele>
        <time>2021-05-23T13:27:38Z</time>
      </trkpt>
      <trkpt lat="42.7670030" lon="-8.6556200">
        <ele>13.4</ele>
        <time>2021-05-23T13:27:39Z</time>
      </trkpt>
      <trkpt lat="42.7669940" lon="-8.6556060">
        <ele>13.5</ele>
        <time>2021-05-23T13:27:40Z</time>
      </trkpt>
      <trkpt lat="42.7669940" lon="-8.6555960">
        <ele>13.5</ele>
        <time>2021-05-23T13:27:41Z</time>
      </trkpt>
      <trkpt lat="42.7669890" lon="-8.6555810">
        <ele>13.5</ele>
        <time>2021-05-23T13:27:42Z</time>
      </trkpt>
      <trkpt lat="42.7669840" lon="-8.6555640">
        <ele>13.6</ele>
        <time>2021-05-23T13:27:43Z</time>
      </trkpt>
      <trkpt lat="42.7669800" lon="-8.6555300">
        <ele>13.7</ele>
        <time>2021-05-23T13:27:44Z</time>
      </trkpt>
      <trkpt lat="42.7669750" lon="-8.6555200">
        <ele>13.7</ele>
        <time>2021-05-23T13:27:45Z</time>
      </trkpt>
      <trkpt lat="42.7669710" lon="-8.6555110">
        <ele>13.8</ele>
        <time>2021-05-23T13:27:46Z</time>
      </trkpt>
      <trkpt lat="42.7669760" lon="-8.6554970">
        <ele>13.8</ele>
        <time>2021-05-23T13:27:47Z</time>
      </trkpt>
      <trkpt lat="42.7669830" lon="-8.6554840">
        <ele>13.8</ele>
        <time>2021-05-23T13:27:48Z</time>
      </trkpt>
      <trkpt lat="42.7669890" lon="-8.6554730">
        <ele>13.8</ele>
        <time>2021-05-23T13:27:49Z</time>
      </trkpt>
      <trkpt lat="42.7669900" lon="-8.6554650">
        <ele>13.8</ele>
        <time>2021-05-23T13:27:50Z</time>
      </trkpt>
      <trkpt lat="42.7669900" lon="-8.6554660">
        <ele>13.8</ele>
        <time>2021-05-23T13:27:51Z</time>
      </trkpt>
      <trkpt lat="42.7669900" lon="-8.6554650">
        <ele>13.8</ele>
        <time>2021-05-23T13:27:52Z</time>
      </trkpt>
      <trkpt lat="42.7669900" lon="-8.6554620">
        <ele>13.8</ele>
        <time>2021-05-23T13:27:53Z</time>
      </trkpt>
      <trkpt lat="42.7669920" lon="-8.6554570">
        <ele>13.8</ele>
        <time>2021-05-23T13:27:54Z</time>
      </trkpt>
      <trkpt lat="42.7669930" lon="-8.6554580">
        <ele>13.8</ele>
        <time>2021-05-23T13:27:55Z</time>
      </trkpt>
      <trkpt lat="42.7669930" lon="-8.6554550">
        <ele>13.8</ele>
        <time>2021-05-23T13:27:56Z</time>
      </trkpt>
      <trkpt lat="42.7669920" lon="-8.6554530">
        <ele>13.8</ele>
        <time>2021-05-23T13:27:57Z</time>
      </trkpt>
      <trkpt lat="42.7669920" lon="-8.6554530">
        <ele>13.8</ele>
        <time>2021-05-23T13:27:58Z</time>
      </trkpt>
      <trkpt lat="42.7669940" lon="-8.6554530">
        <ele>13.8</ele>
        <time>2021-05-23T13:27:59Z</time>
      </trkpt>
      <trkpt lat="42.7669950" lon="-8.6554520">
        <ele>13.8</ele>
        <time>2021-05-23T13:28:00Z</time>
      </trkpt>
      <trkpt lat="42.7669960" lon="-8.6554530">
        <ele>13.8</ele>
        <time>2021-05-23T13:28:01Z</time>
      </trkpt>
      <trkpt lat="42.7669970" lon="-8.6554510">
        <ele>13.8</ele>
        <time>2021-05-23T13:28:02Z</time>
      </trkpt>
      <trkpt lat="42.7669980" lon="-8.6554510">
        <ele>13.8</ele>
        <time>2021-05-23T13:28:03Z</time>
      </trkpt>
      <trkpt lat="42.7669990" lon="-8.6554510">
        <ele>13.8</ele>
        <time>2021-05-23T13:28:04Z</time>
      </trkpt>
      <trkpt lat="42.7669990" lon="-8.6554510">
        <ele>13.8</ele>
        <time>2021-05-23T13:28:05Z</time>
      </trkpt>
      <trkpt lat="42.7669990" lon="-8.6554490">
        <ele>13.8</ele>
        <time>2021-05-23T13:28:06Z</time>
      </trkpt>
      <trkpt lat="42.7670000" lon="-8.6554500">
        <ele>13.8</ele>
        <time>2021-05-23T13:28:07Z</time>
      </trkpt>
      <trkpt lat="42.7669990" lon="-8.6554500">
        <ele>13.8</ele>
        <time>2021-05-23T13:28:08Z</time>
      </trkpt>
      <trkpt lat="42.7669980" lon="-8.6554490">
        <ele>13.8</ele>
        <time>2021-05-23T13:28:09Z</time>
      </trkpt>
      <trkpt lat="42.7669980" lon="-8.6554490">
        <ele>13.8</ele>
        <time>2021-05-23T13:28:10Z</time>
      </trkpt>
      <trkpt lat="42.7669960" lon="-8.6554490">
        <ele>13.8</ele>
        <time>2021-05-23T13:28:11Z</time>
      </trkpt>
      <trkpt lat="42.7669960" lon="-8.6554490">
        <ele>13.8</ele>
        <time>2021-05-23T13:28:12Z</time>
      </trkpt>
      <trkpt lat="42.7669960" lon="-8.6554500">
        <ele>13.8</ele>
        <time>2021-05-23T13:28:13Z</time>
      </trkpt>
      <trkpt lat="42.7669960" lon="-8.6554490">
        <ele>13.8</ele>
        <time>2021-05-23T13:28:14Z</time>
      </trkpt>
      <trkpt lat="42.7669960" lon="-8.6554490">
        <ele>13.8</ele>
        <time>2021-05-23T13:28:15Z</time>
      </trkpt>
      <trkpt lat="42.7669970" lon="-8.6554470">
        <ele>13.8</ele>
        <time>2021-05-23T13:28:16Z</time>
      </trkpt>
      <trkpt lat="42.7669980" lon="-8.6554480">
        <ele>13.8</ele>
        <time>2021-05-23T13:28:17Z</time>
      </trkpt>
      <trkpt lat="42.7669980" lon="-8.6554490">
        <ele>13.8</ele>
        <time>2021-05-23T13:28:18Z</time>
      </trkpt>
      <trkpt lat="42.7669990" lon="-8.6554480">
        <ele>13.8</ele>
        <time>2021-05-23T13:28:19Z</time>
      </trkpt>
      <trkpt lat="42.7669990" lon="-8.6554450">
        <ele>13.8</ele>
        <time>2021-05-23T13:28:20Z</time>
      </trkpt>
      <trkpt lat="42.7670020" lon="-8.6554420">
        <ele>13.8</ele>
        <time>2021-05-23T13:28:21Z</time>
      </trkpt>
      <trkpt lat="42.7670020" lon="-8.6554460">
        <ele>13.7</ele>
        <time>2021-05-23T13:28:22Z</time>
      </trkpt>
      <trkpt lat="42.7670000" lon="-8.6554450">
        <ele>13.7</ele>
        <time>2021-05-23T13:28:23Z</time>
      </trkpt>
      <trkpt lat="42.7670010" lon="-8.6554480">
        <ele>13.7</ele>
        <time>2021-05-23T13:28:24Z</time>
      </trkpt>
      <trkpt lat="42.7670010" lon="-8.6554480">
        <ele>13.7</ele>
        <time>2021-05-23T13:28:25Z</time>
      </trkpt>
      <trkpt lat="42.7670000" lon="-8.6554480">
        <ele>13.7</ele>
        <time>2021-05-23T13:28:26Z</time>
      </trkpt>
      <trkpt lat="42.7670000" lon="-8.6554500">
        <ele>13.7</ele>
        <time>2021-05-23T13:28:27Z</time>
      </trkpt>
      <trkpt lat="42.7670000" lon="-8.6554510">
        <ele>13.7</ele>
        <time>2021-05-23T13:28:28Z</time>
      </trkpt>
      <trkpt lat="42.7670020" lon="-8.6554510">
        <ele>13.7</ele>
        <time>2021-05-23T13:28:29Z</time>
      </trkpt>
      <trkpt lat="42.7670020" lon="-8.6554500">
        <ele>13.7</ele>
        <time>2021-05-23T13:28:30Z</time>
      </trkpt>
      <trkpt lat="42.7670020" lon="-8.6554490">
        <ele>13.7</ele>
        <time>2021-05-23T13:28:31Z</time>
      </trkpt>
      <trkpt lat="42.7670020" lon="-8.6554460">
        <ele>13.7</ele>
        <time>2021-05-23T13:28:32Z</time>
      </trkpt>
      <trkpt lat="42.7670100" lon="-8.6554350">
        <ele>13.7</ele>
        <time>2021-05-23T13:28:33Z</time>
      </trkpt>
      <trkpt lat="42.7670170" lon="-8.6554260">
        <ele>13.7</ele>
        <time>2021-05-23T13:28:34Z</time>
      </trkpt>
      <trkpt lat="42.7670230" lon="-8.6554090">
        <ele>13.7</ele>
        <time>2021-05-23T13:28:35Z</time>
      </trkpt>
      <trkpt lat="42.7670310" lon="-8.6553990">
        <ele>13.7</ele>
        <time>2021-05-23T13:28:36Z</time>
      </trkpt>
      <trkpt lat="42.7670400" lon="-8.6553830">
        <ele>13.7</ele>
        <time>2021-05-23T13:28:37Z</time>
      </trkpt>
      <trkpt lat="42.7670430" lon="-8.6553830">
        <ele>13.7</ele>
        <time>2021-05-23T13:28:38Z</time>
      </trkpt>
      <trkpt lat="42.7670490" lon="-8.6553810">
        <ele>13.6</ele>
        <time>2021-05-23T13:28:39Z</time>
      </trkpt>
      <trkpt lat="42.7670490" lon="-8.6553830">
        <ele>13.6</ele>
        <time>2021-05-23T13:28:40Z</time>
      </trkpt>
      <trkpt lat="42.7670470" lon="-8.6553830">
        <ele>13.6</ele>
        <time>2021-05-23T13:28:41Z</time>
      </trkpt>
      <trkpt lat="42.7670440" lon="-8.6553840">
        <ele>13.6</ele>
        <time>2021-05-23T13:28:42Z</time>
      </trkpt>
      <trkpt lat="42.7670460" lon="-8.6553860">
        <ele>13.6</ele>
        <time>2021-05-23T13:28:43Z</time>
      </trkpt>
      <trkpt lat="42.7670490" lon="-8.6553860">
        <ele>13.6</ele>
        <time>2021-05-23T13:28:44Z</time>
      </trkpt>
      <trkpt lat="42.7670550" lon="-8.6553850">
        <ele>13.6</ele>
        <time>2021-05-23T13:28:45Z</time>
      </trkpt>
      <trkpt lat="42.7670540" lon="-8.6553890">
        <ele>13.6</ele>
        <time>2021-05-23T13:28:46Z</time>
      </trkpt>
      <trkpt lat="42.7670520" lon="-8.6553910">
        <ele>13.6</ele>
        <time>2021-05-23T13:28:47Z</time>
      </trkpt>
      <trkpt lat="42.7670520" lon="-8.6553880">
        <ele>13.6</ele>
        <time>2021-05-23T13:28:48Z</time>
      </trkpt>
      <trkpt lat="42.7670520" lon="-8.6553860">
        <ele>13.6</ele>
        <time>2021-05-23T13:28:49Z</time>
      </trkpt>
      <trkpt lat="42.7670560" lon="-8.6553900">
        <ele>13.6</ele>
        <time>2021-05-23T13:28:50Z</time>
      </trkpt>
      <trkpt lat="42.7670610" lon="-8.6553900">
        <ele>13.6</ele>
        <time>2021-05-23T13:28:51Z</time>
      </trkpt>
      <trkpt lat="42.7670670" lon="-8.6553780">
        <ele>13.6</ele>
        <time>2021-05-23T13:28:52Z</time>
      </trkpt>
      <trkpt lat="42.7670730" lon="-8.6553770">
        <ele>13.6</ele>
        <time>2021-05-23T13:28:53Z</time>
      </trkpt>
      <trkpt lat="42.7670830" lon="-8.6553650">
        <ele>13.6</ele>
        <time>2021-05-23T13:28:54Z</time>
      </trkpt>
      <trkpt lat="42.7670970" lon="-8.6553520">
        <ele>13.6</ele>
        <time>2021-05-23T13:28:55Z</time>
      </trkpt>
      <trkpt lat="42.7671140" lon="-8.6553570">
        <ele>13.6</ele>
        <time>2021-05-23T13:28:56Z</time>
      </trkpt>
      <trkpt lat="42.7671280" lon="-8.6553440">
        <ele>13.6</ele>
        <time>2021-05-23T13:28:57Z</time>
      </trkpt>
      <trkpt lat="42.7671390" lon="-8.6553360">
        <ele>13.6</ele>
        <time>2021-05-23T13:28:58Z</time>
      </trkpt>
      <trkpt lat="42.7671530" lon="-8.6553190">
        <ele>13.6</ele>
        <time>2021-05-23T13:28:59Z</time>
      </trkpt>
      <trkpt lat="42.7671680" lon="-8.6553100">
        <ele>13.6</ele>
        <time>2021-05-23T13:29:00Z</time>
      </trkpt>
      <trkpt lat="42.7671840" lon="-8.6552930">
        <ele>13.6</ele>
        <time>2021-05-23T13:29:01Z</time>
      </trkpt>
      <trkpt lat="42.7671900" lon="-8.6552830">
        <ele>13.6</ele>
        <time>2021-05-23T13:29:02Z</time>
      </trkpt>
      <trkpt lat="42.7672000" lon="-8.6552790">
        <ele>13.6</ele>
        <time>2021-05-23T13:29:03Z</time>
      </trkpt>
      <trkpt lat="42.7672090" lon="-8.6552690">
        <ele>13.6</ele>
        <time>2021-05-23T13:29:04Z</time>
      </trkpt>
      <trkpt lat="42.7672210" lon="-8.6552600">
        <ele>13.6</ele>
        <time>2021-05-23T13:29:05Z</time>
      </trkpt>
      <trkpt lat="42.7672290" lon="-8.6552430">
        <ele>13.6</ele>
        <time>2021-05-23T13:29:06Z</time>
      </trkpt>
      <trkpt lat="42.7672460" lon="-8.6552350">
        <ele>13.6</ele>
        <time>2021-05-23T13:29:07Z</time>
      </trkpt>
      <trkpt lat="42.7672620" lon="-8.6552190">
        <ele>13.6</ele>
        <time>2021-05-23T13:29:08Z</time>
      </trkpt>
      <trkpt lat="42.7672710" lon="-8.6552120">
        <ele>13.6</ele>
        <time>2021-05-23T13:29:09Z</time>
      </trkpt>
      <trkpt lat="42.7672790" lon="-8.6552040">
        <ele>13.6</ele>
        <time>2021-05-23T13:29:10Z</time>
      </trkpt>
      <trkpt lat="42.7673050" lon="-8.6551800">
        <ele>13.6</ele>
        <time>2021-05-23T13:29:12Z</time>
      </trkpt>
      <trkpt lat="42.7673200" lon="-8.6551680">
        <ele>13.6</ele>
        <time>2021-05-23T13:29:14Z</time>
      </trkpt>
      <trkpt lat="42.7673340" lon="-8.6551570">
        <ele>13.7</ele>
        <time>2021-05-23T13:29:15Z</time>
      </trkpt>
      <trkpt lat="42.7673490" lon="-8.6551450">
        <ele>13.7</ele>
        <time>2021-05-23T13:29:16Z</time>
      </trkpt>
      <trkpt lat="42.7673650" lon="-8.6551370">
        <ele>13.7</ele>
        <time>2021-05-23T13:29:17Z</time>
      </trkpt>
      <trkpt lat="42.7673780" lon="-8.6551260">
        <ele>13.7</ele>
        <time>2021-05-23T13:29:18Z</time>
      </trkpt>
      <trkpt lat="42.7673910" lon="-8.6551170">
        <ele>13.7</ele>
        <time>2021-05-23T13:29:19Z</time>
      </trkpt>
      <trkpt lat="42.7674050" lon="-8.6551080">
        <ele>13.7</ele>
        <time>2021-05-23T13:29:20Z</time>
      </trkpt>
      <trkpt lat="42.7674180" lon="-8.6550960">
        <ele>13.7</ele>
        <time>2021-05-23T13:29:21Z</time>
      </trkpt>
      <trkpt lat="42.7674310" lon="-8.6550870">
        <ele>13.8</ele>
        <time>2021-05-23T13:29:22Z</time>
      </trkpt>
      <trkpt lat="42.7674430" lon="-8.6550760">
        <ele>13.8</ele>
        <time>2021-05-23T13:29:23Z</time>
      </trkpt>
      <trkpt lat="42.7674560" lon="-8.6550630">
        <ele>13.8</ele>
        <time>2021-05-23T13:29:24Z</time>
      </trkpt>
      <trkpt lat="42.7674690" lon="-8.6550540">
        <ele>13.8</ele>
        <time>2021-05-23T13:29:25Z</time>
      </trkpt>
      <trkpt lat="42.7674790" lon="-8.6550370">
        <ele>13.8</ele>
        <time>2021-05-23T13:29:26Z</time>
      </trkpt>
      <trkpt lat="42.7674930" lon="-8.6550250">
        <ele>13.9</ele>
        <time>2021-05-23T13:29:27Z</time>
      </trkpt>
      <trkpt lat="42.7675050" lon="-8.6550150">
        <ele>13.9</ele>
        <time>2021-05-23T13:29:28Z</time>
      </trkpt>
      <trkpt lat="42.7675160" lon="-8.6550020">
        <ele>13.9</ele>
        <time>2021-05-23T13:29:29Z</time>
      </trkpt>
      <trkpt lat="42.7675270" lon="-8.6549910">
        <ele>13.9</ele>
        <time>2021-05-23T13:29:30Z</time>
      </trkpt>
      <trkpt lat="42.7675410" lon="-8.6549840">
        <ele>13.9</ele>
        <time>2021-05-23T13:29:31Z</time>
      </trkpt>
      <trkpt lat="42.7675570" lon="-8.6549790">
        <ele>13.9</ele>
        <time>2021-05-23T13:29:32Z</time>
      </trkpt>
      <trkpt lat="42.7675700" lon="-8.6549700">
        <ele>14.0</ele>
        <time>2021-05-23T13:29:33Z</time>
      </trkpt>
      <trkpt lat="42.7675840" lon="-8.6549610">
        <ele>14.0</ele>
        <time>2021-05-23T13:29:34Z</time>
      </trkpt>
      <trkpt lat="42.7675950" lon="-8.6549500">
        <ele>14.0</ele>
        <time>2021-05-23T13:29:35Z</time>
      </trkpt>
      <trkpt lat="42.7676060" lon="-8.6549380">
        <ele>14.0</ele>
        <time>2021-05-23T13:29:36Z</time>
      </trkpt>
      <trkpt lat="42.7676220" lon="-8.6549290">
        <ele>14.1</ele>
        <time>2021-05-23T13:29:37Z</time>
      </trkpt>
      <trkpt lat="42.7676350" lon="-8.6549180">
        <ele>14.1</ele>
        <time>2021-05-23T13:29:38Z</time>
      </trkpt>
      <trkpt lat="42.7676510" lon="-8.6549090">
        <ele>14.1</ele>
        <time>2021-05-23T13:29:39Z</time>
      </trkpt>
      <trkpt lat="42.7676620" lon="-8.6548980">
        <ele>14.1</ele>
        <time>2021-05-23T13:29:40Z</time>
      </trkpt>
      <trkpt lat="42.7676760" lon="-8.6548900">
        <ele>14.1</ele>
        <time>2021-05-23T13:29:41Z</time>
      </trkpt>
      <trkpt lat="42.7676880" lon="-8.6548730">
        <ele>14.2</ele>
        <time>2021-05-23T13:29:42Z</time>
      </trkpt>
      <trkpt lat="42.7677000" lon="-8.6548640">
        <ele>14.2</ele>
        <time>2021-05-23T13:29:43Z</time>
      </trkpt>
      <trkpt lat="42.7677140" lon="-8.6548530">
        <ele>14.2</ele>
        <time>2021-05-23T13:29:44Z</time>
      </trkpt>
      <trkpt lat="42.7677290" lon="-8.6548500">
        <ele>14.2</ele>
        <time>2021-05-23T13:29:45Z</time>
      </trkpt>
      <trkpt lat="42.7677430" lon="-8.6548380">
        <ele>14.3</ele>
        <time>2021-05-23T13:29:46Z</time>
      </trkpt>
      <trkpt lat="42.7677570" lon="-8.6548300">
        <ele>14.3</ele>
        <time>2021-05-23T13:29:47Z</time>
      </trkpt>
      <trkpt lat="42.7677710" lon="-8.6548210">
        <ele>14.3</ele>
        <time>2021-05-23T13:29:48Z</time>
      </trkpt>
      <trkpt lat="42.7677850" lon="-8.6548150">
        <ele>14.3</ele>
        <time>2021-05-23T13:29:49Z</time>
      </trkpt>
      <trkpt lat="42.7677980" lon="-8.6548040">
        <ele>14.4</ele>
        <time>2021-05-23T13:29:50Z</time>
      </trkpt>
      <trkpt lat="42.7678120" lon="-8.6547960">
        <ele>14.4</ele>
        <time>2021-05-23T13:29:51Z</time>
      </trkpt>
      <trkpt lat="42.7678250" lon="-8.6547890">
        <ele>14.4</ele>
        <time>2021-05-23T13:29:52Z</time>
      </trkpt>
      <trkpt lat="42.7678390" lon="-8.6547860">
        <ele>14.5</ele>
        <time>2021-05-23T13:29:53Z</time>
      </trkpt>
      <trkpt lat="42.7678500" lon="-8.6547730">
        <ele>14.5</ele>
        <time>2021-05-23T13:29:54Z</time>
      </trkpt>
      <trkpt lat="42.7678650" lon="-8.6547700">
        <ele>14.5</ele>
        <time>2021-05-23T13:29:55Z</time>
      </trkpt>
      <trkpt lat="42.7678910" lon="-8.6547520">
        <ele>14.6</ele>
        <time>2021-05-23T13:29:56Z</time>
      </trkpt>
      <trkpt lat="42.7679030" lon="-8.6547350">
        <ele>14.6</ele>
        <time>2021-05-23T13:29:57Z</time>
      </trkpt>
      <trkpt lat="42.7679140" lon="-8.6547250">
        <ele>14.6</ele>
        <time>2021-05-23T13:29:58Z</time>
      </trkpt>
      <trkpt lat="42.7679270" lon="-8.6547170">
        <ele>14.7</ele>
        <time>2021-05-23T13:29:59Z</time>
      </trkpt>
      <trkpt lat="42.7679400" lon="-8.6547060">
        <ele>14.7</ele>
        <time>2021-05-23T13:30:00Z</time>
      </trkpt>
      <trkpt lat="42.7679550" lon="-8.6546970">
        <ele>14.7</ele>
        <time>2021-05-23T13:30:01Z</time>
      </trkpt>
      <trkpt lat="42.7679650" lon="-8.6546830">
        <ele>14.8</ele>
        <time>2021-05-23T13:30:02Z</time>
      </trkpt>
      <trkpt lat="42.7679870" lon="-8.6546730">
        <ele>14.8</ele>
        <time>2021-05-23T13:30:03Z</time>
      </trkpt>
      <trkpt lat="42.7679940" lon="-8.6546680">
        <ele>14.8</ele>
        <time>2021-05-23T13:30:04Z</time>
      </trkpt>
      <trkpt lat="42.7680010" lon="-8.6546630">
        <ele>14.8</ele>
        <time>2021-05-23T13:30:05Z</time>
      </trkpt>
      <trkpt lat="42.7680160" lon="-8.6546500">
        <ele>14.9</ele>
        <time>2021-05-23T13:30:06Z</time>
      </trkpt>
      <trkpt lat="42.7680220" lon="-8.6546460">
        <ele>14.9</ele>
        <time>2021-05-23T13:30:07Z</time>
      </trkpt>
      <trkpt lat="42.7680280" lon="-8.6546410">
        <ele>14.9</ele>
        <time>2021-05-23T13:30:08Z</time>
      </trkpt>
      <trkpt lat="42.7680340" lon="-8.6546360">
        <ele>14.9</ele>
        <time>2021-05-23T13:30:09Z</time>
      </trkpt>
      <trkpt lat="42.7680520" lon="-8.6546290">
        <ele>14.9</ele>
        <time>2021-05-23T13:30:10Z</time>
      </trkpt>
      <trkpt lat="42.7680610" lon="-8.6546250">
        <ele>15.0</ele>
        <time>2021-05-23T13:30:11Z</time>
      </trkpt>
      <trkpt lat="42.7680690" lon="-8.6546210">
        <ele>15.0</ele>
        <time>2021-05-23T13:30:12Z</time>
      </trkpt>
      <trkpt lat="42.7680770" lon="-8.6546170">
        <ele>15.0</ele>
        <time>2021-05-23T13:30:13Z</time>
      </trkpt>
      <trkpt lat="42.7680870" lon="-8.6546100">
        <ele>15.0</ele>
        <time>2021-05-23T13:30:14Z</time>
      </trkpt>
      <trkpt lat="42.7680990" lon="-8.6546050">
        <ele>15.0</ele>
        <time>2021-05-23T13:30:15Z</time>
      </trkpt>
      <trkpt lat="42.7681050" lon="-8.6545970">
        <ele>15.0</ele>
        <time>2021-05-23T13:30:16Z</time>
      </trkpt>
      <trkpt lat="42.7681180" lon="-8.6545860">
        <ele>15.1</ele>
        <time>2021-05-23T13:30:17Z</time>
      </trkpt>
      <trkpt lat="42.7681250" lon="-8.6545820">
        <ele>15.1</ele>
        <time>2021-05-23T13:30:18Z</time>
      </trkpt>
      <trkpt lat="42.7681320" lon="-8.6545750">
        <ele>15.1</ele>
        <time>2021-05-23T13:30:19Z</time>
      </trkpt>
      <trkpt lat="42.7681450" lon="-8.6545650">
        <ele>15.1</ele>
        <time>2021-05-23T13:30:20Z</time>
      </trkpt>
      <trkpt lat="42.7681590" lon="-8.6545560">
        <ele>15.2</ele>
        <time>2021-05-23T13:30:21Z</time>
      </trkpt>
      <trkpt lat="42.7681810" lon="-8.6545450">
        <ele>15.2</ele>
        <time>2021-05-23T13:30:22Z</time>
      </trkpt>
      <trkpt lat="42.7681880" lon="-8.6545390">
        <ele>15.2</ele>
        <time>2021-05-23T13:30:23Z</time>
      </trkpt>
      <trkpt lat="42.7681950" lon="-8.6545330">
        <ele>15.2</ele>
        <time>2021-05-23T13:30:24Z</time>
      </trkpt>
      <trkpt lat="42.7682040" lon="-8.6545180">
        <ele>15.2</ele>
        <time>2021-05-23T13:30:25Z</time>
      </trkpt>
      <trkpt lat="42.7682180" lon="-8.6545060">
        <ele>15.3</ele>
        <time>2021-05-23T13:30:26Z</time>
      </trkpt>
      <trkpt lat="42.7682350" lon="-8.6544950">
        <ele>15.3</ele>
        <time>2021-05-23T13:30:27Z</time>
      </trkpt>
      <trkpt lat="42.7682490" lon="-8.6544850">
        <ele>15.3</ele>
        <time>2021-05-23T13:30:28Z</time>
      </trkpt>
      <trkpt lat="42.7682660" lon="-8.6544760">
        <ele>15.4</ele>
        <time>2021-05-23T13:30:29Z</time>
      </trkpt>
      <trkpt lat="42.7682780" lon="-8.6544630">
        <ele>15.4</ele>
        <time>2021-05-23T13:30:30Z</time>
      </trkpt>
      <trkpt lat="42.7682950" lon="-8.6544490">
        <ele>15.4</ele>
        <time>2021-05-23T13:30:31Z</time>
      </trkpt>
      <trkpt lat="42.7683100" lon="-8.6544450">
        <ele>15.4</ele>
        <time>2021-05-23T13:30:32Z</time>
      </trkpt>
      <trkpt lat="42.7683220" lon="-8.6544250">
        <ele>15.5</ele>
        <time>2021-05-23T13:30:33Z</time>
      </trkpt>
      <trkpt lat="42.7683380" lon="-8.6544210">
        <ele>15.5</ele>
        <time>2021-05-23T13:30:34Z</time>
      </trkpt>
      <trkpt lat="42.7683490" lon="-8.6544020">
        <ele>15.5</ele>
        <time>2021-05-23T13:30:35Z</time>
      </trkpt>
      <trkpt lat="42.7683580" lon="-8.6543920">
        <ele>15.6</ele>
        <time>2021-05-23T13:30:36Z</time>
      </trkpt>
      <trkpt lat="42.7683740" lon="-8.6543810">
        <ele>15.6</ele>
        <time>2021-05-23T13:30:37Z</time>
      </trkpt>
      <trkpt lat="42.7683870" lon="-8.6543740">
        <ele>15.6</ele>
        <time>2021-05-23T13:30:38Z</time>
      </trkpt>
      <trkpt lat="42.7683980" lon="-8.6543500">
        <ele>15.7</ele>
        <time>2021-05-23T13:30:39Z</time>
      </trkpt>
      <trkpt lat="42.7684120" lon="-8.6543440">
        <ele>15.7</ele>
        <time>2021-05-23T13:30:40Z</time>
      </trkpt>
      <trkpt lat="42.7684270" lon="-8.6543370">
        <ele>15.7</ele>
        <time>2021-05-23T13:30:41Z</time>
      </trkpt>
      <trkpt lat="42.7684370" lon="-8.6543300">
        <ele>15.7</ele>
        <time>2021-05-23T13:30:42Z</time>
      </trkpt>
      <trkpt lat="42.7684520" lon="-8.6543200">
        <ele>15.8</ele>
        <time>2021-05-23T13:30:44Z</time>
      </trkpt>
      <trkpt lat="42.7684640" lon="-8.6543070">
        <ele>15.8</ele>
        <time>2021-05-23T13:30:45Z</time>
      </trkpt>
      <trkpt lat="42.7684760" lon="-8.6542930">
        <ele>15.8</ele>
        <time>2021-05-23T13:30:46Z</time>
      </trkpt>
      <trkpt lat="42.7684900" lon="-8.6542830">
        <ele>15.8</ele>
        <time>2021-05-23T13:30:47Z</time>
      </trkpt>
      <trkpt lat="42.7685010" lon="-8.6542710">
        <ele>15.9</ele>
        <time>2021-05-23T13:30:48Z</time>
      </trkpt>
      <trkpt lat="42.7685110" lon="-8.6542550">
        <ele>15.9</ele>
        <time>2021-05-23T13:30:49Z</time>
      </trkpt>
      <trkpt lat="42.7685260" lon="-8.6542490">
        <ele>15.9</ele>
        <time>2021-05-23T13:30:50Z</time>
      </trkpt>
      <trkpt lat="42.7685360" lon="-8.6542350">
        <ele>15.9</ele>
        <time>2021-05-23T13:30:51Z</time>
      </trkpt>
      <trkpt lat="42.7685470" lon="-8.6542290">
        <ele>16.0</ele>
        <time>2021-05-23T13:30:52Z</time>
      </trkpt>
      <trkpt lat="42.7685610" lon="-8.6542190">
        <ele>16.0</ele>
        <time>2021-05-23T13:30:53Z</time>
      </trkpt>
      <trkpt lat="42.7685760" lon="-8.6542100">
        <ele>16.0</ele>
        <time>2021-05-23T13:30:54Z</time>
      </trkpt>
      <trkpt lat="42.7685870" lon="-8.6542000">
        <ele>16.0</ele>
        <time>2021-05-23T13:30:55Z</time>
      </trkpt>
      <trkpt lat="42.7686060" lon="-8.6541900">
        <ele>16.0</ele>
        <time>2021-05-23T13:30:56Z</time>
      </trkpt>
      <trkpt lat="42.7686130" lon="-8.6541830">
        <ele>16.1</ele>
        <time>2021-05-23T13:30:57Z</time>
      </trkpt>
      <trkpt lat="42.7686210" lon="-8.6541770">
        <ele>16.1</ele>
        <time>2021-05-23T13:30:58Z</time>
      </trkpt>
      <trkpt lat="42.7686350" lon="-8.6541690">
        <ele>16.1</ele>
        <time>2021-05-23T13:30:59Z</time>
      </trkpt>
      <trkpt lat="42.7686470" lon="-8.6541570">
        <ele>16.1</ele>
        <time>2021-05-23T13:31:00Z</time>
      </trkpt>
      <trkpt lat="42.7686570" lon="-8.6541460">
        <ele>16.1</ele>
        <time>2021-05-23T13:31:01Z</time>
      </trkpt>
      <trkpt lat="42.7686700" lon="-8.6541390">
        <ele>16.1</ele>
        <time>2021-05-23T13:31:02Z</time>
      </trkpt>
      <trkpt lat="42.7686840" lon="-8.6541340">
        <ele>16.2</ele>
        <time>2021-05-23T13:31:03Z</time>
      </trkpt>
      <trkpt lat="42.7686960" lon="-8.6541200">
        <ele>16.2</ele>
        <time>2021-05-23T13:31:04Z</time>
      </trkpt>
      <trkpt lat="42.7687090" lon="-8.6541050">
        <ele>16.2</ele>
        <time>2021-05-23T13:31:05Z</time>
      </trkpt>
      <trkpt lat="42.7687210" lon="-8.6540940">
        <ele>16.2</ele>
        <time>2021-05-23T13:31:06Z</time>
      </trkpt>
      <trkpt lat="42.7687350" lon="-8.6540870">
        <ele>16.2</ele>
        <time>2021-05-23T13:31:07Z</time>
      </trkpt>
      <trkpt lat="42.7687470" lon="-8.6540810">
        <ele>16.3</ele>
        <time>2021-05-23T13:31:08Z</time>
      </trkpt>
      <trkpt lat="42.7687600" lon="-8.6540740">
        <ele>16.3</ele>
        <time>2021-05-23T13:31:09Z</time>
      </trkpt>
      <trkpt lat="42.7687740" lon="-8.6540690">
        <ele>16.3</ele>
        <time>2021-05-23T13:31:10Z</time>
      </trkpt>
      <trkpt lat="42.7687850" lon="-8.6540580">
        <ele>16.3</ele>
        <time>2021-05-23T13:31:11Z</time>
      </trkpt>
      <trkpt lat="42.7687990" lon="-8.6540440">
        <ele>16.3</ele>
        <time>2021-05-23T13:31:12Z</time>
      </trkpt>
      <trkpt lat="42.7688100" lon="-8.6540330">
        <ele>16.4</ele>
        <time>2021-05-23T13:31:13Z</time>
      </trkpt>
      <trkpt lat="42.7688250" lon="-8.6540260">
        <ele>16.4</ele>
        <time>2021-05-23T13:31:14Z</time>
      </trkpt>
      <trkpt lat="42.7688360" lon="-8.6540120">
        <ele>16.4</ele>
        <time>2021-05-23T13:31:15Z</time>
      </trkpt>
      <trkpt lat="42.7688490" lon="-8.6540000">
        <ele>16.4</ele>
        <time>2021-05-23T13:31:16Z</time>
      </trkpt>
      <trkpt lat="42.7688620" lon="-8.6539950">
        <ele>16.4</ele>
        <time>2021-05-23T13:31:17Z</time>
      </trkpt>
      <trkpt lat="42.7688740" lon="-8.6539870">
        <ele>16.5</ele>
        <time>2021-05-23T13:31:18Z</time>
      </trkpt>
      <trkpt lat="42.7688860" lon="-8.6539790">
        <ele>16.5</ele>
        <time>2021-05-23T13:31:19Z</time>
      </trkpt>
      <trkpt lat="42.7688990" lon="-8.6539700">
        <ele>16.5</ele>
        <time>2021-05-23T13:31:20Z</time>
      </trkpt>
      <trkpt lat="42.7689160" lon="-8.6539520">
        <ele>16.5</ele>
        <time>2021-05-23T13:31:21Z</time>
      </trkpt>
      <trkpt lat="42.7689230" lon="-8.6539460">
        <ele>16.5</ele>
        <time>2021-05-23T13:31:22Z</time>
      </trkpt>
      <trkpt lat="42.7689310" lon="-8.6539400">
        <ele>16.6</ele>
        <time>2021-05-23T13:31:23Z</time>
      </trkpt>
      <trkpt lat="42.7689430" lon="-8.6539320">
        <ele>16.6</ele>
        <time>2021-05-23T13:31:24Z</time>
      </trkpt>
      <trkpt lat="42.7689560" lon="-8.6539250">
        <ele>16.6</ele>
        <time>2021-05-23T13:31:25Z</time>
      </trkpt>
      <trkpt lat="42.7689680" lon="-8.6539120">
        <ele>16.6</ele>
        <time>2021-05-23T13:31:26Z</time>
      </trkpt>
      <trkpt lat="42.7689830" lon="-8.6539040">
        <ele>16.6</ele>
        <time>2021-05-23T13:31:27Z</time>
      </trkpt>
      <trkpt lat="42.7689960" lon="-8.6538950">
        <ele>16.6</ele>
        <time>2021-05-23T13:31:28Z</time>
      </trkpt>
      <trkpt lat="42.7690080" lon="-8.6538820">
        <ele>16.7</ele>
        <time>2021-05-23T13:31:29Z</time>
      </trkpt>
      <trkpt lat="42.7690190" lon="-8.6538730">
        <ele>16.7</ele>
        <time>2021-05-23T13:31:30Z</time>
      </trkpt>
      <trkpt lat="42.7690320" lon="-8.6538670">
        <ele>16.7</ele>
        <time>2021-05-23T13:31:31Z</time>
      </trkpt>
      <trkpt lat="42.7690450" lon="-8.6538600">
        <ele>16.7</ele>
        <time>2021-05-23T13:31:32Z</time>
      </trkpt>
      <trkpt lat="42.7690590" lon="-8.6538510">
        <ele>16.7</ele>
        <time>2021-05-23T13:31:33Z</time>
      </trkpt>
      <trkpt lat="42.7690690" lon="-8.6538420">
        <ele>16.7</ele>
        <time>2021-05-23T13:31:34Z</time>
      </trkpt>
      <trkpt lat="42.7690820" lon="-8.6538330">
        <ele>16.8</ele>
        <time>2021-05-23T13:31:35Z</time>
      </trkpt>
      <trkpt lat="42.7690900" lon="-8.6538180">
        <ele>16.8</ele>
        <time>2021-05-23T13:31:36Z</time>
      </trkpt>
      <trkpt lat="42.7691040" lon="-8.6538100">
        <ele>16.8</ele>
        <time>2021-05-23T13:31:37Z</time>
      </trkpt>
      <trkpt lat="42.7691150" lon="-8.6538020">
        <ele>16.8</ele>
        <time>2021-05-23T13:31:38Z</time>
      </trkpt>
      <trkpt lat="42.7691290" lon="-8.6537980">
        <ele>16.8</ele>
        <time>2021-05-23T13:31:39Z</time>
      </trkpt>
      <trkpt lat="42.7691480" lon="-8.6537830">
        <ele>16.9</ele>
        <time>2021-05-23T13:31:40Z</time>
      </trkpt>
      <trkpt lat="42.7691570" lon="-8.6537770">
        <ele>16.9</ele>
        <time>2021-05-23T13:31:41Z</time>
      </trkpt>
      <trkpt lat="42.7691650" lon="-8.6537720">
        <ele>16.9</ele>
        <time>2021-05-23T13:31:42Z</time>
      </trkpt>
      <trkpt lat="42.7691780" lon="-8.6537680">
        <ele>16.9</ele>
        <time>2021-05-23T13:31:43Z</time>
      </trkpt>
      <trkpt lat="42.7691890" lon="-8.6537550">
        <ele>16.9</ele>
        <time>2021-05-23T13:31:44Z</time>
      </trkpt>
      <trkpt lat="42.7692050" lon="-8.6537520">
        <ele>16.9</ele>
        <time>2021-05-23T13:31:45Z</time>
      </trkpt>
      <trkpt lat="42.7692160" lon="-8.6537470">
        <ele>17.0</ele>
        <time>2021-05-23T13:31:46Z</time>
      </trkpt>
      <trkpt lat="42.7692290" lon="-8.6537340">
        <ele>17.0</ele>
        <time>2021-05-23T13:31:47Z</time>
      </trkpt>
      <trkpt lat="42.7692410" lon="-8.6537280">
        <ele>17.0</ele>
        <time>2021-05-23T13:31:48Z</time>
      </trkpt>
      <trkpt lat="42.7692590" lon="-8.6537100">
        <ele>17.0</ele>
        <time>2021-05-23T13:31:49Z</time>
      </trkpt>
      <trkpt lat="42.7692670" lon="-8.6537040">
        <ele>17.0</ele>
        <time>2021-05-23T13:31:50Z</time>
      </trkpt>
      <trkpt lat="42.7692750" lon="-8.6536980">
        <ele>17.0</ele>
        <time>2021-05-23T13:31:51Z</time>
      </trkpt>
      <trkpt lat="42.7692970" lon="-8.6536860">
        <ele>17.1</ele>
        <time>2021-05-23T13:31:52Z</time>
      </trkpt>
      <trkpt lat="42.7693060" lon="-8.6536810">
        <ele>17.1</ele>
        <time>2021-05-23T13:31:53Z</time>
      </trkpt>
      <trkpt lat="42.7693150" lon="-8.6536770">
        <ele>17.1</ele>
        <time>2021-05-23T13:31:54Z</time>
      </trkpt>
      <trkpt lat="42.7693250" lon="-8.6536620">
        <ele>17.1</ele>
        <time>2021-05-23T13:31:55Z</time>
      </trkpt>
      <trkpt lat="42.7693390" lon="-8.6536510">
        <ele>17.1</ele>
        <time>2021-05-23T13:31:56Z</time>
      </trkpt>
      <trkpt lat="42.7693500" lon="-8.6536470">
        <ele>17.2</ele>
        <time>2021-05-23T13:31:57Z</time>
      </trkpt>
      <trkpt lat="42.7693630" lon="-8.6536290">
        <ele>17.2</ele>
        <time>2021-05-23T13:31:58Z</time>
      </trkpt>
      <trkpt lat="42.7693760" lon="-8.6536230">
        <ele>17.2</ele>
        <time>2021-05-23T13:31:59Z</time>
      </trkpt>
      <trkpt lat="42.7693890" lon="-8.6536150">
        <ele>17.2</ele>
        <time>2021-05-23T13:32:00Z</time>
      </trkpt>
      <trkpt lat="42.7693990" lon="-8.6536030">
        <ele>17.2</ele>
        <time>2021-05-23T13:32:01Z</time>
      </trkpt>
      <trkpt lat="42.7694220" lon="-8.6535870">
        <ele>17.3</ele>
        <time>2021-05-23T13:32:02Z</time>
      </trkpt>
      <trkpt lat="42.7694390" lon="-8.6535710">
        <ele>17.3</ele>
        <time>2021-05-23T13:32:03Z</time>
      </trkpt>
      <trkpt lat="42.7694450" lon="-8.6535660">
        <ele>17.3</ele>
        <time>2021-05-23T13:32:04Z</time>
      </trkpt>
      <trkpt lat="42.7694580" lon="-8.6535530">
        <ele>17.3</ele>
        <time>2021-05-23T13:32:05Z</time>
      </trkpt>
      <trkpt lat="42.7694690" lon="-8.6535500">
        <ele>17.3</ele>
        <time>2021-05-23T13:32:06Z</time>
      </trkpt>
      <trkpt lat="42.7694820" lon="-8.6535360">
        <ele>17.4</ele>
        <time>2021-05-23T13:32:08Z</time>
      </trkpt>
      <trkpt lat="42.7694960" lon="-8.6535290">
        <ele>17.4</ele>
        <time>2021-05-23T13:32:09Z</time>
      </trkpt>
      <trkpt lat="42.7695050" lon="-8.6535140">
        <ele>17.4</ele>
        <time>2021-05-23T13:32:10Z</time>
      </trkpt>
      <trkpt lat="42.7695260" lon="-8.6534980">
        <ele>17.4</ele>
        <time>2021-05-23T13:32:11Z</time>
      </trkpt>
      <trkpt lat="42.7695340" lon="-8.6534930">
        <ele>17.4</ele>
        <time>2021-05-23T13:32:12Z</time>
      </trkpt>
      <trkpt lat="42.7695430" lon="-8.6534880">
        <ele>17.4</ele>
        <time>2021-05-23T13:32:13Z</time>
      </trkpt>
      <trkpt lat="42.7695560" lon="-8.6534780">
        <ele>17.5</ele>
        <time>2021-05-23T13:32:14Z</time>
      </trkpt>
      <trkpt lat="42.7695670" lon="-8.6534680">
        <ele>17.5</ele>
        <time>2021-05-23T13:32:15Z</time>
      </trkpt>
      <trkpt lat="42.7695790" lon="-8.6534530">
        <ele>17.5</ele>
        <time>2021-05-23T13:32:16Z</time>
      </trkpt>
      <trkpt lat="42.7695890" lon="-8.6534460">
        <ele>17.5</ele>
        <time>2021-05-23T13:32:17Z</time>
      </trkpt>
      <trkpt lat="42.7696040" lon="-8.6534340">
        <ele>17.5</ele>
        <time>2021-05-23T13:32:18Z</time>
      </trkpt>
      <trkpt lat="42.7696160" lon="-8.6534320">
        <ele>17.5</ele>
        <time>2021-05-23T13:32:19Z</time>
      </trkpt>
      <trkpt lat="42.7696270" lon="-8.6534160">
        <ele>17.6</ele>
        <time>2021-05-23T13:32:20Z</time>
      </trkpt>
      <trkpt lat="42.7696380" lon="-8.6534080">
        <ele>17.6</ele>
        <time>2021-05-23T13:32:21Z</time>
      </trkpt>
      <trkpt lat="42.7696460" lon="-8.6533910">
        <ele>17.6</ele>
        <time>2021-05-23T13:32:22Z</time>
      </trkpt>
      <trkpt lat="42.7696570" lon="-8.6533790">
        <ele>17.6</ele>
        <time>2021-05-23T13:32:23Z</time>
      </trkpt>
      <trkpt lat="42.7696640" lon="-8.6533700">
        <ele>17.6</ele>
        <time>2021-05-23T13:32:24Z</time>
      </trkpt>
      <trkpt lat="42.7696730" lon="-8.6533570">
        <ele>17.7</ele>
        <time>2021-05-23T13:32:25Z</time>
      </trkpt>
      <trkpt lat="42.7696770" lon="-8.6533430">
        <ele>17.7</ele>
        <time>2021-05-23T13:32:26Z</time>
      </trkpt>
      <trkpt lat="42.7696830" lon="-8.6533360">
        <ele>17.7</ele>
        <time>2021-05-23T13:32:27Z</time>
      </trkpt>
      <trkpt lat="42.7696930" lon="-8.6533200">
        <ele>17.7</ele>
        <time>2021-05-23T13:32:28Z</time>
      </trkpt>
      <trkpt lat="42.7697040" lon="-8.6533180">
        <ele>17.8</ele>
        <time>2021-05-23T13:32:29Z</time>
      </trkpt>
      <trkpt lat="42.7697210" lon="-8.6532970">
        <ele>17.8</ele>
        <time>2021-05-23T13:32:30Z</time>
      </trkpt>
      <trkpt lat="42.7697260" lon="-8.6532880">
        <ele>17.8</ele>
        <time>2021-05-23T13:32:31Z</time>
      </trkpt>
      <trkpt lat="42.7697310" lon="-8.6532800">
        <ele>17.8</ele>
        <time>2021-05-23T13:32:32Z</time>
      </trkpt>
      <trkpt lat="42.7697410" lon="-8.6532660">
        <ele>17.9</ele>
        <time>2021-05-23T13:32:33Z</time>
      </trkpt>
      <trkpt lat="42.7697500" lon="-8.6532500">
        <ele>17.9</ele>
        <time>2021-05-23T13:32:34Z</time>
      </trkpt>
      <trkpt lat="42.7697550" lon="-8.6532360">
        <ele>17.9</ele>
        <time>2021-05-23T13:32:35Z</time>
      </trkpt>
      <trkpt lat="42.7697630" lon="-8.6532130">
        <ele>18.0</ele>
        <time>2021-05-23T13:32:36Z</time>
      </trkpt>
      <trkpt lat="42.7697800" lon="-8.6532060">
        <ele>18.0</ele>
        <time>2021-05-23T13:32:37Z</time>
      </trkpt>
      <trkpt lat="42.7697890" lon="-8.6531950">
        <ele>18.0</ele>
        <time>2021-05-23T13:32:38Z</time>
      </trkpt>
      <trkpt lat="42.7697980" lon="-8.6531840">
        <ele>18.1</ele>
        <time>2021-05-23T13:32:39Z</time>
      </trkpt>
      <trkpt lat="42.7698050" lon="-8.6531640">
        <ele>18.1</ele>
        <time>2021-05-23T13:32:40Z</time>
      </trkpt>
      <trkpt lat="42.7698210" lon="-8.6531590">
        <ele>18.1</ele>
        <time>2021-05-23T13:32:41Z</time>
      </trkpt>
      <trkpt lat="42.7698310" lon="-8.6531480">
        <ele>18.2</ele>
        <time>2021-05-23T13:32:42Z</time>
      </trkpt>
      <trkpt lat="42.7698400" lon="-8.6531400">
        <ele>18.2</ele>
        <time>2021-05-23T13:32:43Z</time>
      </trkpt>
      <trkpt lat="42.7698490" lon="-8.6531320">
        <ele>18.2</ele>
        <time>2021-05-23T13:32:44Z</time>
      </trkpt>
      <trkpt lat="42.7698590" lon="-8.6531200">
        <ele>18.3</ele>
        <time>2021-05-23T13:32:45Z</time>
      </trkpt>
      <trkpt lat="42.7698690" lon="-8.6531100">
        <ele>18.3</ele>
        <time>2021-05-23T13:32:46Z</time>
      </trkpt>
      <trkpt lat="42.7698800" lon="-8.6531000">
        <ele>18.3</ele>
        <time>2021-05-23T13:32:47Z</time>
      </trkpt>
      <trkpt lat="42.7698860" lon="-8.6530990">
        <ele>18.3</ele>
        <time>2021-05-23T13:32:48Z</time>
      </trkpt>
      <trkpt lat="42.7698960" lon="-8.6531020">
        <ele>18.3</ele>
        <time>2021-05-23T13:32:49Z</time>
      </trkpt>
      <trkpt lat="42.7699090" lon="-8.6531020">
        <ele>18.3</ele>
        <time>2021-05-23T13:32:50Z</time>
      </trkpt>
      <trkpt lat="42.7699170" lon="-8.6531030">
        <ele>18.3</ele>
        <time>2021-05-23T13:32:51Z</time>
      </trkpt>
      <trkpt lat="42.7699220" lon="-8.6531020">
        <ele>18.4</ele>
        <time>2021-05-23T13:32:52Z</time>
      </trkpt>
      <trkpt lat="42.7699260" lon="-8.6531040">
        <ele>18.4</ele>
        <time>2021-05-23T13:32:53Z</time>
      </trkpt>
      <trkpt lat="42.7699190" lon="-8.6531040">
        <ele>18.4</ele>
        <time>2021-05-23T13:32:54Z</time>
      </trkpt>
      <trkpt lat="42.7699220" lon="-8.6531060">
        <ele>18.4</ele>
        <time>2021-05-23T13:32:55Z</time>
      </trkpt>
      <trkpt lat="42.7699260" lon="-8.6531080">
        <ele>18.4</ele>
        <time>2021-05-23T13:32:56Z</time>
      </trkpt>
      <trkpt lat="42.7699370" lon="-8.6531100">
        <ele>18.4</ele>
        <time>2021-05-23T13:32:57Z</time>
      </trkpt>
      <trkpt lat="42.7699460" lon="-8.6531210">
        <ele>18.4</ele>
        <time>2021-05-23T13:32:58Z</time>
      </trkpt>
      <trkpt lat="42.7699570" lon="-8.6531380">
        <ele>18.4</ele>
        <time>2021-05-23T13:32:59Z</time>
      </trkpt>
      <trkpt lat="42.7699590" lon="-8.6531520">
        <ele>18.4</ele>
        <time>2021-05-23T13:33:00Z</time>
      </trkpt>
      <trkpt lat="42.7699600" lon="-8.6531560">
        <ele>18.4</ele>
        <time>2021-05-23T13:33:01Z</time>
      </trkpt>
      <trkpt lat="42.7699750" lon="-8.6531770">
        <ele>18.4</ele>
        <time>2021-05-23T13:33:02Z</time>
      </trkpt>
      <trkpt lat="42.7699800" lon="-8.6531840">
        <ele>18.4</ele>
        <time>2021-05-23T13:33:03Z</time>
      </trkpt>
      <trkpt lat="42.7699860" lon="-8.6531920">
        <ele>18.5</ele>
        <time>2021-05-23T13:33:04Z</time>
      </trkpt>
      <trkpt lat="42.7700010" lon="-8.6532150">
        <ele>18.5</ele>
        <time>2021-05-23T13:33:05Z</time>
      </trkpt>
      <trkpt lat="42.7700060" lon="-8.6532240">
        <ele>18.5</ele>
        <time>2021-05-23T13:33:06Z</time>
      </trkpt>
      <trkpt lat="42.7700100" lon="-8.6532320">
        <ele>18.5</ele>
        <time>2021-05-23T13:33:07Z</time>
      </trkpt>
      <trkpt lat="42.7700270" lon="-8.6532550">
        <ele>18.5</ele>
        <time>2021-05-23T13:33:08Z</time>
      </trkpt>
      <trkpt lat="42.7700350" lon="-8.6532660">
        <ele>18.5</ele>
        <time>2021-05-23T13:33:09Z</time>
      </trkpt>
      <trkpt lat="42.7700420" lon="-8.6532780">
        <ele>18.5</ele>
        <time>2021-05-23T13:33:10Z</time>
      </trkpt>
      <trkpt lat="42.7700590" lon="-8.6532920">
        <ele>18.5</ele>
        <time>2021-05-23T13:33:11Z</time>
      </trkpt>
      <trkpt lat="42.7700650" lon="-8.6533080">
        <ele>18.5</ele>
        <time>2021-05-23T13:33:12Z</time>
      </trkpt>
      <trkpt lat="42.7700750" lon="-8.6533310">
        <ele>18.6</ele>
        <time>2021-05-23T13:33:13Z</time>
      </trkpt>
      <trkpt lat="42.7700800" lon="-8.6533420">
        <ele>18.6</ele>
        <time>2021-05-23T13:33:14Z</time>
      </trkpt>
      <trkpt lat="42.7700850" lon="-8.6533520">
        <ele>18.6</ele>
        <time>2021-05-23T13:33:15Z</time>
      </trkpt>
      <trkpt lat="42.7701000" lon="-8.6533790">
        <ele>18.6</ele>
        <time>2021-05-23T13:33:16Z</time>
      </trkpt>
      <trkpt lat="42.7701090" lon="-8.6533900">
        <ele>18.6</ele>
        <time>2021-05-23T13:33:17Z</time>
      </trkpt>
      <trkpt lat="42.7701170" lon="-8.6534010">
        <ele>18.6</ele>
        <time>2021-05-23T13:33:18Z</time>
      </trkpt>
      <trkpt lat="42.7701340" lon="-8.6534250">
        <ele>18.6</ele>
        <time>2021-05-23T13:33:19Z</time>
      </trkpt>
      <trkpt lat="42.7701390" lon="-8.6534320">
        <ele>18.6</ele>
        <time>2021-05-23T13:33:20Z</time>
      </trkpt>
      <trkpt lat="42.7701430" lon="-8.6534380">
        <ele>18.6</ele>
        <time>2021-05-23T13:33:21Z</time>
      </trkpt>
      <trkpt lat="42.7701530" lon="-8.6534540">
        <ele>18.6</ele>
        <time>2021-05-23T13:33:22Z</time>
      </trkpt>
      <trkpt lat="42.7701610" lon="-8.6534660">
        <ele>18.6</ele>
        <time>2021-05-23T13:33:23Z</time>
      </trkpt>
      <trkpt lat="42.7701710" lon="-8.6534790">
        <ele>18.7</ele>
        <time>2021-05-23T13:33:24Z</time>
      </trkpt>
      <trkpt lat="42.7701820" lon="-8.6534950">
        <ele>18.7</ele>
        <time>2021-05-23T13:33:25Z</time>
      </trkpt>
      <trkpt lat="42.7701900" lon="-8.6535040">
        <ele>18.7</ele>
        <time>2021-05-23T13:33:26Z</time>
      </trkpt>
      <trkpt lat="42.7702000" lon="-8.6535150">
        <ele>18.7</ele>
        <time>2021-05-23T13:33:27Z</time>
      </trkpt>
      <trkpt lat="42.7702030" lon="-8.6535250">
        <ele>18.7</ele>
        <time>2021-05-23T13:33:28Z</time>
      </trkpt>
      <trkpt lat="42.7702150" lon="-8.6535260">
        <ele>18.7</ele>
        <time>2021-05-23T13:33:29Z</time>
      </trkpt>
      <trkpt lat="42.7702210" lon="-8.6535370">
        <ele>18.7</ele>
        <time>2021-05-23T13:33:30Z</time>
      </trkpt>
      <trkpt lat="42.7702330" lon="-8.6535510">
        <ele>18.7</ele>
        <time>2021-05-23T13:33:31Z</time>
      </trkpt>
      <trkpt lat="42.7702410" lon="-8.6535630">
        <ele>18.7</ele>
        <time>2021-05-23T13:33:32Z</time>
      </trkpt>
      <trkpt lat="42.7702460" lon="-8.6535660">
        <ele>18.7</ele>
        <time>2021-05-23T13:33:33Z</time>
      </trkpt>
      <trkpt lat="42.7702600" lon="-8.6535740">
        <ele>18.7</ele>
        <time>2021-05-23T13:33:34Z</time>
      </trkpt>
      <trkpt lat="42.7702700" lon="-8.6535800">
        <ele>18.7</ele>
        <time>2021-05-23T13:33:35Z</time>
      </trkpt>
      <trkpt lat="42.7702900" lon="-8.6535850">
        <ele>18.7</ele>
        <time>2021-05-23T13:33:36Z</time>
      </trkpt>
      <trkpt lat="42.7703090" lon="-8.6536000">
        <ele>18.8</ele>
        <time>2021-05-23T13:33:37Z</time>
      </trkpt>
      <trkpt lat="42.7703150" lon="-8.6536080">
        <ele>18.8</ele>
        <time>2021-05-23T13:33:38Z</time>
      </trkpt>
      <trkpt lat="42.7703210" lon="-8.6536160">
        <ele>18.8</ele>
        <time>2021-05-23T13:33:39Z</time>
      </trkpt>
      <trkpt lat="42.7703370" lon="-8.6536250">
        <ele>18.9</ele>
        <time>2021-05-23T13:33:40Z</time>
      </trkpt>
      <trkpt lat="42.7703480" lon="-8.6536320">
        <ele>19.0</ele>
        <time>2021-05-23T13:33:41Z</time>
      </trkpt>
      <trkpt lat="42.7703620" lon="-8.6536370">
        <ele>19.1</ele>
        <time>2021-05-23T13:33:42Z</time>
      </trkpt>
      <trkpt lat="42.7703670" lon="-8.6536360">
        <ele>19.1</ele>
        <time>2021-05-23T13:33:43Z</time>
      </trkpt>
      <trkpt lat="42.7703800" lon="-8.6536360">
        <ele>19.2</ele>
        <time>2021-05-23T13:33:44Z</time>
      </trkpt>
      <trkpt lat="42.7703890" lon="-8.6536450">
        <ele>19.2</ele>
        <time>2021-05-23T13:33:45Z</time>
      </trkpt>
      <trkpt lat="42.7704010" lon="-8.6536640">
        <ele>19.3</ele>
        <time>2021-05-23T13:33:46Z</time>
      </trkpt>
      <trkpt lat="42.7704140" lon="-8.6536870">
        <ele>19.4</ele>
        <time>2021-05-23T13:33:47Z</time>
      </trkpt>
      <trkpt lat="42.7704170" lon="-8.6536970">
        <ele>19.5</ele>
        <time>2021-05-23T13:33:48Z</time>
      </trkpt>
      <trkpt lat="42.7704190" lon="-8.6537070">
        <ele>19.5</ele>
        <time>2021-05-23T13:33:49Z</time>
      </trkpt>
      <trkpt lat="42.7704200" lon="-8.6537130">
        <ele>19.5</ele>
        <time>2021-05-23T13:33:50Z</time>
      </trkpt>
      <trkpt lat="42.7704040" lon="-8.6537260">
        <ele>19.6</ele>
        <time>2021-05-23T13:33:51Z</time>
      </trkpt>
      <trkpt lat="42.7704020" lon="-8.6537370">
        <ele>19.6</ele>
        <time>2021-05-23T13:33:52Z</time>
      </trkpt>
      <trkpt lat="42.7704110" lon="-8.6537510">
        <ele>19.7</ele>
        <time>2021-05-23T13:33:53Z</time>
      </trkpt>
      <trkpt lat="42.7704140" lon="-8.6537620">
        <ele>19.7</ele>
        <time>2021-05-23T13:33:54Z</time>
      </trkpt>
      <trkpt lat="42.7704170" lon="-8.6537800">
        <ele>19.8</ele>
        <time>2021-05-23T13:33:55Z</time>
      </trkpt>
      <trkpt lat="42.7704260" lon="-8.6537970">
        <ele>19.8</ele>
        <time>2021-05-23T13:33:56Z</time>
      </trkpt>
      <trkpt lat="42.7704300" lon="-8.6538150">
        <ele>19.9</ele>
        <time>2021-05-23T13:33:57Z</time>
      </trkpt>
      <trkpt lat="42.7704290" lon="-8.6538320">
        <ele>19.9</ele>
        <time>2021-05-23T13:33:58Z</time>
      </trkpt>
      <trkpt lat="42.7704260" lon="-8.6538570">
        <ele>19.9</ele>
        <time>2021-05-23T13:33:59Z</time>
      </trkpt>
      <trkpt lat="42.7704170" lon="-8.6538730">
        <ele>20.0</ele>
        <time>2021-05-23T13:34:00Z</time>
      </trkpt>
      <trkpt lat="42.7704130" lon="-8.6538820">
        <ele>20.0</ele>
        <time>2021-05-23T13:34:01Z</time>
      </trkpt>
      <trkpt lat="42.7704080" lon="-8.6538920">
        <ele>20.0</ele>
        <time>2021-05-23T13:34:02Z</time>
      </trkpt>
      <trkpt lat="42.7704040" lon="-8.6539010">
        <ele>20.1</ele>
        <time>2021-05-23T13:34:03Z</time>
      </trkpt>
      <trkpt lat="42.7703940" lon="-8.6539170">
        <ele>20.1</ele>
        <time>2021-05-23T13:34:04Z</time>
      </trkpt>
      <trkpt lat="42.7703860" lon="-8.6539280">
        <ele>20.1</ele>
        <time>2021-05-23T13:34:05Z</time>
      </trkpt>
      <trkpt lat="42.7703840" lon="-8.6539350">
        <ele>20.1</ele>
        <time>2021-05-23T13:34:06Z</time>
      </trkpt>
      <trkpt lat="42.7703810" lon="-8.6539430">
        <ele>20.2</ele>
        <time>2021-05-23T13:34:07Z</time>
      </trkpt>
      <trkpt lat="42.7703740" lon="-8.6539620">
        <ele>20.2</ele>
        <time>2021-05-23T13:34:08Z</time>
      </trkpt>
      <trkpt lat="42.7703720" lon="-8.6539810">
        <ele>20.3</ele>
        <time>2021-05-23T13:34:09Z</time>
      </trkpt>
      <trkpt lat="42.7703710" lon="-8.6540030">
        <ele>20.3</ele>
        <time>2021-05-23T13:34:10Z</time>
      </trkpt>
      <trkpt lat="42.7703690" lon="-8.6540060">
        <ele>20.3</ele>
        <time>2021-05-23T13:34:11Z</time>
      </trkpt>
      <trkpt lat="42.7703690" lon="-8.6540300">
        <ele>20.4</ele>
        <time>2021-05-23T13:34:12Z</time>
      </trkpt>
      <trkpt lat="42.7703750" lon="-8.6540570">
        <ele>20.5</ele>
        <time>2021-05-23T13:34:13Z</time>
      </trkpt>
      <trkpt lat="42.7703780" lon="-8.6540690">
        <ele>20.6</ele>
        <time>2021-05-23T13:34:14Z</time>
      </trkpt>
      <trkpt lat="42.7703810" lon="-8.6540810">
        <ele>20.6</ele>
        <time>2021-05-23T13:34:15Z</time>
      </trkpt>
      <trkpt lat="42.7704030" lon="-8.6541130">
        <ele>20.8</ele>
        <time>2021-05-23T13:34:16Z</time>
      </trkpt>
      <trkpt lat="42.7704130" lon="-8.6541280">
        <ele>20.9</ele>
        <time>2021-05-23T13:34:17Z</time>
      </trkpt>
      <trkpt lat="42.7704220" lon="-8.6541460">
        <ele>21.0</ele>
        <time>2021-05-23T13:34:18Z</time>
      </trkpt>
      <trkpt lat="42.7704290" lon="-8.6541610">
        <ele>21.1</ele>
        <time>2021-05-23T13:34:19Z</time>
      </trkpt>
      <trkpt lat="42.7704370" lon="-8.6541800">
        <ele>21.2</ele>
        <time>2021-05-23T13:34:20Z</time>
      </trkpt>
      <trkpt lat="42.7704430" lon="-8.6541980">
        <ele>21.3</ele>
        <time>2021-05-23T13:34:21Z</time>
      </trkpt>
      <trkpt lat="42.7704500" lon="-8.6542170">
        <ele>21.4</ele>
        <time>2021-05-23T13:34:22Z</time>
      </trkpt>
      <trkpt lat="42.7704560" lon="-8.6542260">
        <ele>21.5</ele>
        <time>2021-05-23T13:34:23Z</time>
      </trkpt>
      <trkpt lat="42.7704590" lon="-8.6542350">
        <ele>21.5</ele>
        <time>2021-05-23T13:34:24Z</time>
      </trkpt>
      <trkpt lat="42.7704630" lon="-8.6542380">
        <ele>21.5</ele>
        <time>2021-05-23T13:34:25Z</time>
      </trkpt>
      <trkpt lat="42.7704750" lon="-8.6542380">
        <ele>21.6</ele>
        <time>2021-05-23T13:34:26Z</time>
      </trkpt>
      <trkpt lat="42.7704880" lon="-8.6542420">
        <ele>21.7</ele>
        <time>2021-05-23T13:34:27Z</time>
      </trkpt>
      <trkpt lat="42.7705020" lon="-8.6542490">
        <ele>21.8</ele>
        <time>2021-05-23T13:34:28Z</time>
      </trkpt>
      <trkpt lat="42.7705110" lon="-8.6542570">
        <ele>21.9</ele>
        <time>2021-05-23T13:34:29Z</time>
      </trkpt>
      <trkpt lat="42.7705220" lon="-8.6542570">
        <ele>21.9</ele>
        <time>2021-05-23T13:34:30Z</time>
      </trkpt>
      <trkpt lat="42.7705410" lon="-8.6542660">
        <ele>22.0</ele>
        <time>2021-05-23T13:34:31Z</time>
      </trkpt>
      <trkpt lat="42.7705490" lon="-8.6542690">
        <ele>22.1</ele>
        <time>2021-05-23T13:34:32Z</time>
      </trkpt>
      <trkpt lat="42.7705570" lon="-8.6542710">
        <ele>22.1</ele>
        <time>2021-05-23T13:34:33Z</time>
      </trkpt>
      <trkpt lat="42.7705660" lon="-8.6542770">
        <ele>22.1</ele>
        <time>2021-05-23T13:34:34Z</time>
      </trkpt>
      <trkpt lat="42.7705830" lon="-8.6542880">
        <ele>22.1</ele>
        <time>2021-05-23T13:34:35Z</time>
      </trkpt>
      <trkpt lat="42.7705960" lon="-8.6542960">
        <ele>22.2</ele>
        <time>2021-05-23T13:34:36Z</time>
      </trkpt>
      <trkpt lat="42.7706070" lon="-8.6543090">
        <ele>22.3</ele>
        <time>2021-05-23T13:34:37Z</time>
      </trkpt>
      <trkpt lat="42.7706170" lon="-8.6543180">
        <ele>22.3</ele>
        <time>2021-05-23T13:34:38Z</time>
      </trkpt>
      <trkpt lat="42.7706340" lon="-8.6543190">
        <ele>22.4</ele>
        <time>2021-05-23T13:34:39Z</time>
      </trkpt>
      <trkpt lat="42.7706570" lon="-8.6543240">
        <ele>22.5</ele>
        <time>2021-05-23T13:34:40Z</time>
      </trkpt>
      <trkpt lat="42.7706630" lon="-8.6543300">
        <ele>22.5</ele>
        <time>2021-05-23T13:34:41Z</time>
      </trkpt>
      <trkpt lat="42.7706700" lon="-8.6543360">
        <ele>22.6</ele>
        <time>2021-05-23T13:34:42Z</time>
      </trkpt>
      <trkpt lat="42.7706840" lon="-8.6543520">
        <ele>22.6</ele>
        <time>2021-05-23T13:34:43Z</time>
      </trkpt>
      <trkpt lat="42.7706960" lon="-8.6543620">
        <ele>22.7</ele>
        <time>2021-05-23T13:34:44Z</time>
      </trkpt>
      <trkpt lat="42.7707240" lon="-8.6543730">
        <ele>22.8</ele>
        <time>2021-05-23T13:34:45Z</time>
      </trkpt>
      <trkpt lat="42.7707320" lon="-8.6543750">
        <ele>22.9</ele>
        <time>2021-05-23T13:34:46Z</time>
      </trkpt>
      <trkpt lat="42.7707490" lon="-8.6543820">
        <ele>23.0</ele>
        <time>2021-05-23T13:34:47Z</time>
      </trkpt>
      <trkpt lat="42.7707590" lon="-8.6543920">
        <ele>23.0</ele>
        <time>2021-05-23T13:34:48Z</time>
      </trkpt>
      <trkpt lat="42.7707720" lon="-8.6544060">
        <ele>23.1</ele>
        <time>2021-05-23T13:34:49Z</time>
      </trkpt>
      <trkpt lat="42.7707840" lon="-8.6544150">
        <ele>23.2</ele>
        <time>2021-05-23T13:34:50Z</time>
      </trkpt>
      <trkpt lat="42.7707830" lon="-8.6544190">
        <ele>23.2</ele>
        <time>2021-05-23T13:34:51Z</time>
      </trkpt>
      <trkpt lat="42.7707950" lon="-8.6544210">
        <ele>23.2</ele>
        <time>2021-05-23T13:34:52Z</time>
      </trkpt>
      <trkpt lat="42.7708040" lon="-8.6544320">
        <ele>23.3</ele>
        <time>2021-05-23T13:34:53Z</time>
      </trkpt>
      <trkpt lat="42.7708130" lon="-8.6544380">
        <ele>23.3</ele>
        <time>2021-05-23T13:34:54Z</time>
      </trkpt>
      <trkpt lat="42.7708280" lon="-8.6544460">
        <ele>23.4</ele>
        <time>2021-05-23T13:34:55Z</time>
      </trkpt>
      <trkpt lat="42.7708400" lon="-8.6544590">
        <ele>23.5</ele>
        <time>2021-05-23T13:34:56Z</time>
      </trkpt>
      <trkpt lat="42.7708630" lon="-8.6544670">
        <ele>23.6</ele>
        <time>2021-05-23T13:34:57Z</time>
      </trkpt>
      <trkpt lat="42.7708700" lon="-8.6544700">
        <ele>23.6</ele>
        <time>2021-05-23T13:34:58Z</time>
      </trkpt>
      <trkpt lat="42.7708780" lon="-8.6544720">
        <ele>23.6</ele>
        <time>2021-05-23T13:34:59Z</time>
      </trkpt>
      <trkpt lat="42.7708960" lon="-8.6544750">
        <ele>23.7</ele>
        <time>2021-05-23T13:35:00Z</time>
      </trkpt>
      <trkpt lat="42.7709080" lon="-8.6544780">
        <ele>23.7</ele>
        <time>2021-05-23T13:35:01Z</time>
      </trkpt>
      <trkpt lat="42.7709190" lon="-8.6544820">
        <ele>23.8</ele>
        <time>2021-05-23T13:35:02Z</time>
      </trkpt>
      <trkpt lat="42.7709430" lon="-8.6544900">
        <ele>23.9</ele>
        <time>2021-05-23T13:35:03Z</time>
      </trkpt>
      <trkpt lat="42.7709500" lon="-8.6544940">
        <ele>23.9</ele>
        <time>2021-05-23T13:35:04Z</time>
      </trkpt>
      <trkpt lat="42.7709570" lon="-8.6544990">
        <ele>23.9</ele>
        <time>2021-05-23T13:35:05Z</time>
      </trkpt>
      <trkpt lat="42.7709750" lon="-8.6545110">
        <ele>24.0</ele>
        <time>2021-05-23T13:35:06Z</time>
      </trkpt>
      <trkpt lat="42.7709900" lon="-8.6545160">
        <ele>24.0</ele>
        <time>2021-05-23T13:35:07Z</time>
      </trkpt>
      <trkpt lat="42.7709960" lon="-8.6545270">
        <ele>24.1</ele>
        <time>2021-05-23T13:35:08Z</time>
      </trkpt>
      <trkpt lat="42.7710100" lon="-8.6545290">
        <ele>24.1</ele>
        <time>2021-05-23T13:35:09Z</time>
      </trkpt>
      <trkpt lat="42.7710220" lon="-8.6545340">
        <ele>24.2</ele>
        <time>2021-05-23T13:35:10Z</time>
      </trkpt>
      <trkpt lat="42.7710360" lon="-8.6545350">
        <ele>24.2</ele>
        <time>2021-05-23T13:35:11Z</time>
      </trkpt>
      <trkpt lat="42.7710530" lon="-8.6545340">
        <ele>24.2</ele>
        <time>2021-05-23T13:35:12Z</time>
      </trkpt>
      <trkpt lat="42.7710790" lon="-8.6545440">
        <ele>24.3</ele>
        <time>2021-05-23T13:35:13Z</time>
      </trkpt>
      <trkpt lat="42.7710880" lon="-8.6545480">
        <ele>24.3</ele>
        <time>2021-05-23T13:35:14Z</time>
      </trkpt>
      <trkpt lat="42.7710980" lon="-8.6545480">
        <ele>24.4</ele>
        <time>2021-05-23T13:35:15Z</time>
      </trkpt>
      <trkpt lat="42.7711160" lon="-8.6545450">
        <ele>24.4</ele>
        <time>2021-05-23T13:35:16Z</time>
      </trkpt>
      <trkpt lat="42.7711320" lon="-8.6545570">
        <ele>24.4</ele>
        <time>2021-05-23T13:35:17Z</time>
      </trkpt>
      <trkpt lat="42.7711420" lon="-8.6545580">
        <ele>24.5</ele>
        <time>2021-05-23T13:35:18Z</time>
      </trkpt>
      <trkpt lat="42.7711530" lon="-8.6545590">
        <ele>24.5</ele>
        <time>2021-05-23T13:35:19Z</time>
      </trkpt>
      <trkpt lat="42.7711730" lon="-8.6545580">
        <ele>24.5</ele>
        <time>2021-05-23T13:35:20Z</time>
      </trkpt>
      <trkpt lat="42.7711820" lon="-8.6545560">
        <ele>24.5</ele>
        <time>2021-05-23T13:35:21Z</time>
      </trkpt>
      <trkpt lat="42.7711900" lon="-8.6545550">
        <ele>24.5</ele>
        <time>2021-05-23T13:35:22Z</time>
      </trkpt>
      <trkpt lat="42.7712080" lon="-8.6545600">
        <ele>24.5</ele>
        <time>2021-05-23T13:35:23Z</time>
      </trkpt>
      <trkpt lat="42.7712180" lon="-8.6545600">
        <ele>24.5</ele>
        <time>2021-05-23T13:35:24Z</time>
      </trkpt>
      <trkpt lat="42.7712270" lon="-8.6545610">
        <ele>24.5</ele>
        <time>2021-05-23T13:35:25Z</time>
      </trkpt>
      <trkpt lat="42.7712390" lon="-8.6545510">
        <ele>24.5</ele>
        <time>2021-05-23T13:35:26Z</time>
      </trkpt>
      <trkpt lat="42.7712460" lon="-8.6545440">
        <ele>24.5</ele>
        <time>2021-05-23T13:35:27Z</time>
      </trkpt>
      <trkpt lat="42.7712520" lon="-8.6545330">
        <ele>24.5</ele>
        <time>2021-05-23T13:35:28Z</time>
      </trkpt>
      <trkpt lat="42.7712590" lon="-8.6545020">
        <ele>24.5</ele>
        <time>2021-05-23T13:35:29Z</time>
      </trkpt>
      <trkpt lat="42.7712580" lon="-8.6544910">
        <ele>24.5</ele>
        <time>2021-05-23T13:35:30Z</time>
      </trkpt>
      <trkpt lat="42.7712560" lon="-8.6544810">
        <ele>24.5</ele>
        <time>2021-05-23T13:35:31Z</time>
      </trkpt>
      <trkpt lat="42.7712570" lon="-8.6544510">
        <ele>24.4</ele>
        <time>2021-05-23T13:35:32Z</time>
      </trkpt>
      <trkpt lat="42.7712560" lon="-8.6544390">
        <ele>24.4</ele>
        <time>2021-05-23T13:35:33Z</time>
      </trkpt>
      <trkpt lat="42.7712560" lon="-8.6544270">
        <ele>24.4</ele>
        <time>2021-05-23T13:35:34Z</time>
      </trkpt>
      <trkpt lat="42.7712560" lon="-8.6544060">
        <ele>24.3</ele>
        <time>2021-05-23T13:35:35Z</time>
      </trkpt>
      <trkpt lat="42.7712550" lon="-8.6543810">
        <ele>24.3</ele>
        <time>2021-05-23T13:35:36Z</time>
      </trkpt>
      <trkpt lat="42.7712480" lon="-8.6543610">
        <ele>24.2</ele>
        <time>2021-05-23T13:35:37Z</time>
      </trkpt>
      <trkpt lat="42.7712470" lon="-8.6543400">
        <ele>24.2</ele>
        <time>2021-05-23T13:35:38Z</time>
      </trkpt>
      <trkpt lat="42.7712440" lon="-8.6543140">
        <ele>24.1</ele>
        <time>2021-05-23T13:35:39Z</time>
      </trkpt>
      <trkpt lat="42.7712430" lon="-8.6543000">
        <ele>24.1</ele>
        <time>2021-05-23T13:35:40Z</time>
      </trkpt>
      <trkpt lat="42.7712410" lon="-8.6542860">
        <ele>24.0</ele>
        <time>2021-05-23T13:35:41Z</time>
      </trkpt>
      <trkpt lat="42.7712450" lon="-8.6542570">
        <ele>24.0</ele>
        <time>2021-05-23T13:35:42Z</time>
      </trkpt>
      <trkpt lat="42.7712460" lon="-8.6542460">
        <ele>24.0</ele>
        <time>2021-05-23T13:35:43Z</time>
      </trkpt>
      <trkpt lat="42.7712480" lon="-8.6542360">
        <ele>23.9</ele>
        <time>2021-05-23T13:35:44Z</time>
      </trkpt>
      <trkpt lat="42.7712480" lon="-8.6542240">
        <ele>23.9</ele>
        <time>2021-05-23T13:35:45Z</time>
      </trkpt>
      <trkpt lat="42.7712470" lon="-8.6541990">
        <ele>23.9</ele>
        <time>2021-05-23T13:35:46Z</time>
      </trkpt>
      <trkpt lat="42.7712570" lon="-8.6541900">
        <ele>23.9</ele>
        <time>2021-05-23T13:35:47Z</time>
      </trkpt>
      <trkpt lat="42.7712580" lon="-8.6541740">
        <ele>23.8</ele>
        <time>2021-05-23T13:35:48Z</time>
      </trkpt>
      <trkpt lat="42.7712690" lon="-8.6541680">
        <ele>23.8</ele>
        <time>2021-05-23T13:35:49Z</time>
      </trkpt>
      <trkpt lat="42.7712740" lon="-8.6541580">
        <ele>23.8</ele>
        <time>2021-05-23T13:35:50Z</time>
      </trkpt>
      <trkpt lat="42.7712830" lon="-8.6541520">
        <ele>23.8</ele>
        <time>2021-05-23T13:35:51Z</time>
      </trkpt>
      <trkpt lat="42.7712980" lon="-8.6541400">
        <ele>23.8</ele>
        <time>2021-05-23T13:35:52Z</time>
      </trkpt>
      <trkpt lat="42.7713090" lon="-8.6541360">
        <ele>23.8</ele>
        <time>2021-05-23T13:35:53Z</time>
      </trkpt>
      <trkpt lat="42.7713240" lon="-8.6541260">
        <ele>23.7</ele>
        <time>2021-05-23T13:35:54Z</time>
      </trkpt>
      <trkpt lat="42.7713430" lon="-8.6541180">
        <ele>23.7</ele>
        <time>2021-05-23T13:35:55Z</time>
      </trkpt>
      <trkpt lat="42.7713510" lon="-8.6541150">
        <ele>23.7</ele>
        <time>2021-05-23T13:35:56Z</time>
      </trkpt>
      <trkpt lat="42.7713600" lon="-8.6541110">
        <ele>23.7</ele>
        <time>2021-05-23T13:35:57Z</time>
      </trkpt>
      <trkpt lat="42.7713710" lon="-8.6541090">
        <ele>23.7</ele>
        <time>2021-05-23T13:35:58Z</time>
      </trkpt>
      <trkpt lat="42.7713860" lon="-8.6540990">
        <ele>23.7</ele>
        <time>2021-05-23T13:35:59Z</time>
      </trkpt>
      <trkpt lat="42.7714010" lon="-8.6540930">
        <ele>23.7</ele>
        <time>2021-05-23T13:36:00Z</time>
      </trkpt>
      <trkpt lat="42.7714180" lon="-8.6540910">
        <ele>23.7</ele>
        <time>2021-05-23T13:36:01Z</time>
      </trkpt>
      <trkpt lat="42.7714390" lon="-8.6540900">
        <ele>23.7</ele>
        <time>2021-05-23T13:36:02Z</time>
      </trkpt>
      <trkpt lat="42.7714470" lon="-8.6540890">
        <ele>23.7</ele>
        <time>2021-05-23T13:36:03Z</time>
      </trkpt>
      <trkpt lat="42.7714560" lon="-8.6540880">
        <ele>23.7</ele>
        <time>2021-05-23T13:36:04Z</time>
      </trkpt>
      <trkpt lat="42.7714700" lon="-8.6540820">
        <ele>23.7</ele>
        <time>2021-05-23T13:36:05Z</time>
      </trkpt>
      <trkpt lat="42.7714840" lon="-8.6540790">
        <ele>23.7</ele>
        <time>2021-05-23T13:36:06Z</time>
      </trkpt>
      <trkpt lat="42.7714950" lon="-8.6540690">
        <ele>23.7</ele>
        <time>2021-05-23T13:36:07Z</time>
      </trkpt>
      <trkpt lat="42.7715140" lon="-8.6540630">
        <ele>23.7</ele>
        <time>2021-05-23T13:36:08Z</time>
      </trkpt>
      <trkpt lat="42.7715280" lon="-8.6540600">
        <ele>23.7</ele>
        <time>2021-05-23T13:36:09Z</time>
      </trkpt>
      <trkpt lat="42.7715460" lon="-8.6540560">
        <ele>23.7</ele>
        <time>2021-05-23T13:36:10Z</time>
      </trkpt>
      <trkpt lat="42.7715640" lon="-8.6540550">
        <ele>23.7</ele>
        <time>2021-05-23T13:36:11Z</time>
      </trkpt>
      <trkpt lat="42.7715790" lon="-8.6540480">
        <ele>23.7</ele>
        <time>2021-05-23T13:36:12Z</time>
      </trkpt>
      <trkpt lat="42.7715950" lon="-8.6540460">
        <ele>23.7</ele>
        <time>2021-05-23T13:36:13Z</time>
      </trkpt>
      <trkpt lat="42.7716090" lon="-8.6540380">
        <ele>23.7</ele>
        <time>2021-05-23T13:36:14Z</time>
      </trkpt>
      <trkpt lat="42.7716250" lon="-8.6540370">
        <ele>23.7</ele>
        <time>2021-05-23T13:36:15Z</time>
      </trkpt>
      <trkpt lat="42.7716410" lon="-8.6540390">
        <ele>23.8</ele>
        <time>2021-05-23T13:36:16Z</time>
      </trkpt>
      <trkpt lat="42.7716570" lon="-8.6540400">
        <ele>23.8</ele>
        <time>2021-05-23T13:36:17Z</time>
      </trkpt>
      <trkpt lat="42.7716730" lon="-8.6540330">
        <ele>23.8</ele>
        <time>2021-05-23T13:36:18Z</time>
      </trkpt>
      <trkpt lat="42.7716880" lon="-8.6540280">
        <ele>23.8</ele>
        <time>2021-05-23T13:36:19Z</time>
      </trkpt>
      <trkpt lat="42.7717020" lon="-8.6540120">
        <ele>23.9</ele>
        <time>2021-05-23T13:36:20Z</time>
      </trkpt>
      <trkpt lat="42.7717180" lon="-8.6540140">
        <ele>23.9</ele>
        <time>2021-05-23T13:36:21Z</time>
      </trkpt>
      <trkpt lat="42.7717310" lon="-8.6540050">
        <ele>24.0</ele>
        <time>2021-05-23T13:36:22Z</time>
      </trkpt>
      <trkpt lat="42.7717470" lon="-8.6539980">
        <ele>24.0</ele>
        <time>2021-05-23T13:36:23Z</time>
      </trkpt>
      <trkpt lat="42.7717620" lon="-8.6539920">
        <ele>24.0</ele>
        <time>2021-05-23T13:36:24Z</time>
      </trkpt>
      <trkpt lat="42.7717770" lon="-8.6539870">
        <ele>24.1</ele>
        <time>2021-05-23T13:36:25Z</time>
      </trkpt>
      <trkpt lat="42.7717930" lon="-8.6539840">
        <ele>24.1</ele>
        <time>2021-05-23T13:36:26Z</time>
      </trkpt>
      <trkpt lat="42.7718040" lon="-8.6539720">
        <ele>24.1</ele>
        <time>2021-05-23T13:36:27Z</time>
      </trkpt>
      <trkpt lat="42.7718160" lon="-8.6539640">
        <ele>24.1</ele>
        <time>2021-05-23T13:36:28Z</time>
      </trkpt>
      <trkpt lat="42.7718320" lon="-8.6539570">
        <ele>24.2</ele>
        <time>2021-05-23T13:36:29Z</time>
      </trkpt>
      <trkpt lat="42.7718490" lon="-8.6539590">
        <ele>24.2</ele>
        <time>2021-05-23T13:36:30Z</time>
      </trkpt>
      <trkpt lat="42.7718610" lon="-8.6539500">
        <ele>24.3</ele>
        <time>2021-05-23T13:36:31Z</time>
      </trkpt>
      <trkpt lat="42.7718770" lon="-8.6539580">
        <ele>24.3</ele>
        <time>2021-05-23T13:36:32Z</time>
      </trkpt>
      <trkpt lat="42.7718910" lon="-8.6539500">
        <ele>24.3</ele>
        <time>2021-05-23T13:36:33Z</time>
      </trkpt>
      <trkpt lat="42.7719050" lon="-8.6539480">
        <ele>24.4</ele>
        <time>2021-05-23T13:36:34Z</time>
      </trkpt>
      <trkpt lat="42.7719200" lon="-8.6539430">
        <ele>24.4</ele>
        <time>2021-05-23T13:36:35Z</time>
      </trkpt>
      <trkpt lat="42.7719320" lon="-8.6539380">
        <ele>24.4</ele>
        <time>2021-05-23T13:36:36Z</time>
      </trkpt>
      <trkpt lat="42.7719480" lon="-8.6539370">
        <ele>24.4</ele>
        <time>2021-05-23T13:36:37Z</time>
      </trkpt>
      <trkpt lat="42.7719640" lon="-8.6539350">
        <ele>24.5</ele>
        <time>2021-05-23T13:36:38Z</time>
      </trkpt>
      <trkpt lat="42.7719760" lon="-8.6539300">
        <ele>24.5</ele>
        <time>2021-05-23T13:36:39Z</time>
      </trkpt>
      <trkpt lat="42.7719900" lon="-8.6539230">
        <ele>24.5</ele>
        <time>2021-05-23T13:36:40Z</time>
      </trkpt>
      <trkpt lat="42.7720050" lon="-8.6539210">
        <ele>24.6</ele>
        <time>2021-05-23T13:36:41Z</time>
      </trkpt>
      <trkpt lat="42.7720190" lon="-8.6539130">
        <ele>24.6</ele>
        <time>2021-05-23T13:36:42Z</time>
      </trkpt>
      <trkpt lat="42.7720320" lon="-8.6539100">
        <ele>24.7</ele>
        <time>2021-05-23T13:36:43Z</time>
      </trkpt>
      <trkpt lat="42.7720470" lon="-8.6539040">
        <ele>24.7</ele>
        <time>2021-05-23T13:36:44Z</time>
      </trkpt>
      <trkpt lat="42.7720600" lon="-8.6538990">
        <ele>24.7</ele>
        <time>2021-05-23T13:36:45Z</time>
      </trkpt>
      <trkpt lat="42.7720770" lon="-8.6538990">
        <ele>24.8</ele>
        <time>2021-05-23T13:36:46Z</time>
      </trkpt>
      <trkpt lat="42.7720990" lon="-8.6538970">
        <ele>24.8</ele>
        <time>2021-05-23T13:36:47Z</time>
      </trkpt>
      <trkpt lat="42.7721080" lon="-8.6538970">
        <ele>24.9</ele>
        <time>2021-05-23T13:36:48Z</time>
      </trkpt>
      <trkpt lat="42.7721170" lon="-8.6538980">
        <ele>24.9</ele>
        <time>2021-05-23T13:36:49Z</time>
      </trkpt>
      <trkpt lat="42.7721320" lon="-8.6538930">
        <ele>24.9</ele>
        <time>2021-05-23T13:36:50Z</time>
      </trkpt>
      <trkpt lat="42.7721460" lon="-8.6538960">
        <ele>25.0</ele>
        <time>2021-05-23T13:36:51Z</time>
      </trkpt>
      <trkpt lat="42.7721610" lon="-8.6538990">
        <ele>25.0</ele>
        <time>2021-05-23T13:36:52Z</time>
      </trkpt>
      <trkpt lat="42.7721760" lon="-8.6538890">
        <ele>25.1</ele>
        <time>2021-05-23T13:36:53Z</time>
      </trkpt>
      <trkpt lat="42.7721910" lon="-8.6538920">
        <ele>25.1</ele>
        <time>2021-05-23T13:36:54Z</time>
      </trkpt>
      <trkpt lat="42.7722050" lon="-8.6538940">
        <ele>25.2</ele>
        <time>2021-05-23T13:36:55Z</time>
      </trkpt>
      <trkpt lat="42.7722190" lon="-8.6538940">
        <ele>25.2</ele>
        <time>2021-05-23T13:36:56Z</time>
      </trkpt>
      <trkpt lat="42.7722340" lon="-8.6538900">
        <ele>25.3</ele>
        <time>2021-05-23T13:36:57Z</time>
      </trkpt>
      <trkpt lat="42.7722550" lon="-8.6538820">
        <ele>25.3</ele>
        <time>2021-05-23T13:36:58Z</time>
      </trkpt>
      <trkpt lat="42.7722650" lon="-8.6538780">
        <ele>25.4</ele>
        <time>2021-05-23T13:36:59Z</time>
      </trkpt>
      <trkpt lat="42.7722740" lon="-8.6538750">
        <ele>25.4</ele>
        <time>2021-05-23T13:37:00Z</time>
      </trkpt>
      <trkpt lat="42.7722890" lon="-8.6538720">
        <ele>25.4</ele>
        <time>2021-05-23T13:37:01Z</time>
      </trkpt>
      <trkpt lat="42.7723020" lon="-8.6538680">
        <ele>25.5</ele>
        <time>2021-05-23T13:37:02Z</time>
      </trkpt>
      <trkpt lat="42.7723230" lon="-8.6538610">
        <ele>25.5</ele>
        <time>2021-05-23T13:37:03Z</time>
      </trkpt>
      <trkpt lat="42.7723300" lon="-8.6538580">
        <ele>25.6</ele>
        <time>2021-05-23T13:37:04Z</time>
      </trkpt>
      <trkpt lat="42.7723380" lon="-8.6538550">
        <ele>25.6</ele>
        <time>2021-05-23T13:37:05Z</time>
      </trkpt>
      <trkpt lat="42.7723530" lon="-8.6538590">
        <ele>25.6</ele>
        <time>2021-05-23T13:37:06Z</time>
      </trkpt>
      <trkpt lat="42.7723670" lon="-8.6538580">
        <ele>25.7</ele>
        <time>2021-05-23T13:37:07Z</time>
      </trkpt>
      <trkpt lat="42.7723810" lon="-8.6538560">
        <ele>25.7</ele>
        <time>2021-05-23T13:37:08Z</time>
      </trkpt>
      <trkpt lat="42.7723940" lon="-8.6538540">
        <ele>25.8</ele>
        <time>2021-05-23T13:37:09Z</time>
      </trkpt>
      <trkpt lat="42.7724070" lon="-8.6538500">
        <ele>25.8</ele>
        <time>2021-05-23T13:37:10Z</time>
      </trkpt>
      <trkpt lat="42.7724220" lon="-8.6538470">
        <ele>25.9</ele>
        <time>2021-05-23T13:37:11Z</time>
      </trkpt>
      <trkpt lat="42.7724350" lon="-8.6538440">
        <ele>25.9</ele>
        <time>2021-05-23T13:37:12Z</time>
      </trkpt>
      <trkpt lat="42.7724480" lon="-8.6538390">
        <ele>25.9</ele>
        <time>2021-05-23T13:37:13Z</time>
      </trkpt>
      <trkpt lat="42.7724680" lon="-8.6538340">
        <ele>26.0</ele>
        <time>2021-05-23T13:37:14Z</time>
      </trkpt>
      <trkpt lat="42.7724770" lon="-8.6538320">
        <ele>26.1</ele>
        <time>2021-05-23T13:37:15Z</time>
      </trkpt>
      <trkpt lat="42.7724850" lon="-8.6538300">
        <ele>26.1</ele>
        <time>2021-05-23T13:37:16Z</time>
      </trkpt>
      <trkpt lat="42.7725000" lon="-8.6538330">
        <ele>26.1</ele>
        <time>2021-05-23T13:37:17Z</time>
      </trkpt>
      <trkpt lat="42.7725130" lon="-8.6538330">
        <ele>26.2</ele>
        <time>2021-05-23T13:37:18Z</time>
      </trkpt>
      <trkpt lat="42.7725360" lon="-8.6538300">
        <ele>26.3</ele>
        <time>2021-05-23T13:37:19Z</time>
      </trkpt>
      <trkpt lat="42.7725440" lon="-8.6538260">
        <ele>26.3</ele>
        <time>2021-05-23T13:37:20Z</time>
      </trkpt>
      <trkpt lat="42.7725530" lon="-8.6538220">
        <ele>26.3</ele>
        <time>2021-05-23T13:37:21Z</time>
      </trkpt>
      <trkpt lat="42.7725680" lon="-8.6538240">
        <ele>26.4</ele>
        <time>2021-05-23T13:37:22Z</time>
      </trkpt>
      <trkpt lat="42.7725820" lon="-8.6538310">
        <ele>26.4</ele>
        <time>2021-05-23T13:37:23Z</time>
      </trkpt>
      <trkpt lat="42.7725950" lon="-8.6538300">
        <ele>26.5</ele>
        <time>2021-05-23T13:37:24Z</time>
      </trkpt>
      <trkpt lat="42.7726090" lon="-8.6538260">
        <ele>26.5</ele>
        <time>2021-05-23T13:37:25Z</time>
      </trkpt>
      <trkpt lat="42.7726240" lon="-8.6538220">
        <ele>26.6</ele>
        <time>2021-05-23T13:37:26Z</time>
      </trkpt>
      <trkpt lat="42.7726360" lon="-8.6538160">
        <ele>26.6</ele>
        <time>2021-05-23T13:37:27Z</time>
      </trkpt>
      <trkpt lat="42.7726560" lon="-8.6538130">
        <ele>26.7</ele>
        <time>2021-05-23T13:37:28Z</time>
      </trkpt>
      <trkpt lat="42.7726640" lon="-8.6538090">
        <ele>26.8</ele>
        <time>2021-05-23T13:37:29Z</time>
      </trkpt>
      <trkpt lat="42.7726720" lon="-8.6538060">
        <ele>26.8</ele>
        <time>2021-05-23T13:37:30Z</time>
      </trkpt>
      <trkpt lat="42.7726930" lon="-8.6538010">
        <ele>26.9</ele>
        <time>2021-05-23T13:37:31Z</time>
      </trkpt>
      <trkpt lat="42.7727030" lon="-8.6537990">
        <ele>26.9</ele>
        <time>2021-05-23T13:37:32Z</time>
      </trkpt>
      <trkpt lat="42.7727120" lon="-8.6537980">
        <ele>26.9</ele>
        <time>2021-05-23T13:37:33Z</time>
      </trkpt>
      <trkpt lat="42.7727260" lon="-8.6538000">
        <ele>27.0</ele>
        <time>2021-05-23T13:37:34Z</time>
      </trkpt>
      <trkpt lat="42.7727410" lon="-8.6537930">
        <ele>27.1</ele>
        <time>2021-05-23T13:37:35Z</time>
      </trkpt>
      <trkpt lat="42.7727610" lon="-8.6537890">
        <ele>27.1</ele>
        <time>2021-05-23T13:37:36Z</time>
      </trkpt>
      <trkpt lat="42.7727710" lon="-8.6537870">
        <ele>27.2</ele>
        <time>2021-05-23T13:37:37Z</time>
      </trkpt>
      <trkpt lat="42.7727800" lon="-8.6537840">
        <ele>27.2</ele>
        <time>2021-05-23T13:37:38Z</time>
      </trkpt>
      <trkpt lat="42.7728010" lon="-8.6537920">
        <ele>27.3</ele>
        <time>2021-05-23T13:37:39Z</time>
      </trkpt>
      <trkpt lat="42.7728100" lon="-8.6537950">
        <ele>27.3</ele>
        <time>2021-05-23T13:37:40Z</time>
      </trkpt>
      <trkpt lat="42.7728180" lon="-8.6537980">
        <ele>27.3</ele>
        <time>2021-05-23T13:37:41Z</time>
      </trkpt>
      <trkpt lat="42.7728320" lon="-8.6537970">
        <ele>27.4</ele>
        <time>2021-05-23T13:37:42Z</time>
      </trkpt>
      <trkpt lat="42.7728400" lon="-8.6537900">
        <ele>27.4</ele>
        <time>2021-05-23T13:37:43Z</time>
      </trkpt>
      <trkpt lat="42.7728510" lon="-8.6537850">
        <ele>27.4</ele>
        <time>2021-05-23T13:37:44Z</time>
      </trkpt>
      <trkpt lat="42.7728610" lon="-8.6537800">
        <ele>27.5</ele>
        <time>2021-05-23T13:37:45Z</time>
      </trkpt>
      <trkpt lat="42.7728640" lon="-8.6537720">
        <ele>27.5</ele>
        <time>2021-05-23T13:37:46Z</time>
      </trkpt>
      <trkpt lat="42.7728690" lon="-8.6537710">
        <ele>27.5</ele>
        <time>2021-05-23T13:37:47Z</time>
      </trkpt>
      <trkpt lat="42.7728740" lon="-8.6537640">
        <ele>27.5</ele>
        <time>2021-05-23T13:37:48Z</time>
      </trkpt>
      <trkpt lat="42.7728890" lon="-8.6537620">
        <ele>27.6</ele>
        <time>2021-05-23T13:37:49Z</time>
      </trkpt>
      <trkpt lat="42.7728990" lon="-8.6537580">
        <ele>27.6</ele>
        <time>2021-05-23T13:37:50Z</time>
      </trkpt>
      <trkpt lat="42.7728990" lon="-8.6537560">
        <ele>27.6</ele>
        <time>2021-05-23T13:37:51Z</time>
      </trkpt>
      <trkpt lat="42.7729080" lon="-8.6537560">
        <ele>27.6</ele>
        <time>2021-05-23T13:37:52Z</time>
      </trkpt>
      <trkpt lat="42.7729130" lon="-8.6537480">
        <ele>27.7</ele>
        <time>2021-05-23T13:37:53Z</time>
      </trkpt>
      <trkpt lat="42.7729180" lon="-8.6537440">
        <ele>27.7</ele>
        <time>2021-05-23T13:37:54Z</time>
      </trkpt>
      <trkpt lat="42.7729250" lon="-8.6537450">
        <ele>27.7</ele>
        <time>2021-05-23T13:37:55Z</time>
      </trkpt>
      <trkpt lat="42.7729360" lon="-8.6537450">
        <ele>27.7</ele>
        <time>2021-05-23T13:37:56Z</time>
      </trkpt>
      <trkpt lat="42.7729400" lon="-8.6537360">
        <ele>27.8</ele>
        <time>2021-05-23T13:37:57Z</time>
      </trkpt>
      <trkpt lat="42.7729500" lon="-8.6537320">
        <ele>27.8</ele>
        <time>2021-05-23T13:37:58Z</time>
      </trkpt>
      <trkpt lat="42.7729610" lon="-8.6537300">
        <ele>27.8</ele>
        <time>2021-05-23T13:37:59Z</time>
      </trkpt>
      <trkpt lat="42.7729640" lon="-8.6537330">
        <ele>27.8</ele>
        <time>2021-05-23T13:38:00Z</time>
      </trkpt>
      <trkpt lat="42.7729780" lon="-8.6537320">
        <ele>27.9</ele>
        <time>2021-05-23T13:38:01Z</time>
      </trkpt>
      <trkpt lat="42.7729950" lon="-8.6537250">
        <ele>27.9</ele>
        <time>2021-05-23T13:38:02Z</time>
      </trkpt>
      <trkpt lat="42.7730030" lon="-8.6537210">
        <ele>27.9</ele>
        <time>2021-05-23T13:38:03Z</time>
      </trkpt>
      <trkpt lat="42.7730150" lon="-8.6537170">
        <ele>28.0</ele>
        <time>2021-05-23T13:38:04Z</time>
      </trkpt>
      <trkpt lat="42.7730290" lon="-8.6537180">
        <ele>28.0</ele>
        <time>2021-05-23T13:38:05Z</time>
      </trkpt>
      <trkpt lat="42.7730370" lon="-8.6537260">
        <ele>28.0</ele>
        <time>2021-05-23T13:38:06Z</time>
      </trkpt>
      <trkpt lat="42.7730510" lon="-8.6537340">
        <ele>28.1</ele>
        <time>2021-05-23T13:38:07Z</time>
      </trkpt>
      <trkpt lat="42.7730610" lon="-8.6537280">
        <ele>28.1</ele>
        <time>2021-05-23T13:38:08Z</time>
      </trkpt>
      <trkpt lat="42.7730750" lon="-8.6537210">
        <ele>28.2</ele>
        <time>2021-05-23T13:38:09Z</time>
      </trkpt>
      <trkpt lat="42.7730830" lon="-8.6537240">
        <ele>28.2</ele>
        <time>2021-05-23T13:38:10Z</time>
      </trkpt>
      <trkpt lat="42.7730940" lon="-8.6537170">
        <ele>28.2</ele>
        <time>2021-05-23T13:38:11Z</time>
      </trkpt>
      <trkpt lat="42.7731060" lon="-8.6537180">
        <ele>28.2</ele>
        <time>2021-05-23T13:38:12Z</time>
      </trkpt>
      <trkpt lat="42.7731170" lon="-8.6537120">
        <ele>28.3</ele>
        <time>2021-05-23T13:38:13Z</time>
      </trkpt>
      <trkpt lat="42.7731280" lon="-8.6537030">
        <ele>28.3</ele>
        <time>2021-05-23T13:38:14Z</time>
      </trkpt>
      <trkpt lat="42.7731500" lon="-8.6537000">
        <ele>28.4</ele>
        <time>2021-05-23T13:38:15Z</time>
      </trkpt>
      <trkpt lat="42.7731580" lon="-8.6536990">
        <ele>28.4</ele>
        <time>2021-05-23T13:38:16Z</time>
      </trkpt>
      <trkpt lat="42.7731670" lon="-8.6536980">
        <ele>28.4</ele>
        <time>2021-05-23T13:38:17Z</time>
      </trkpt>
      <trkpt lat="42.7731810" lon="-8.6536960">
        <ele>28.4</ele>
        <time>2021-05-23T13:38:18Z</time>
      </trkpt>
      <trkpt lat="42.7731960" lon="-8.6536900">
        <ele>28.5</ele>
        <time>2021-05-23T13:38:19Z</time>
      </trkpt>
      <trkpt lat="42.7732300" lon="-8.6536810">
        <ele>28.6</ele>
        <time>2021-05-23T13:38:20Z</time>
      </trkpt>
      <trkpt lat="42.7732400" lon="-8.6536790">
        <ele>28.6</ele>
        <time>2021-05-23T13:38:21Z</time>
      </trkpt>
      <trkpt lat="42.7732580" lon="-8.6536710">
        <ele>28.6</ele>
        <time>2021-05-23T13:38:22Z</time>
      </trkpt>
      <trkpt lat="42.7732750" lon="-8.6536710">
        <ele>28.7</ele>
        <time>2021-05-23T13:38:23Z</time>
      </trkpt>
      <trkpt lat="42.7732920" lon="-8.6536700">
        <ele>28.7</ele>
        <time>2021-05-23T13:38:24Z</time>
      </trkpt>
      <trkpt lat="42.7733060" lon="-8.6536640">
        <ele>28.8</ele>
        <time>2021-05-23T13:38:25Z</time>
      </trkpt>
      <trkpt lat="42.7733370" lon="-8.6536650">
        <ele>28.9</ele>
        <time>2021-05-23T13:38:26Z</time>
      </trkpt>
      <trkpt lat="42.7733480" lon="-8.6536630">
        <ele>28.9</ele>
        <time>2021-05-23T13:38:27Z</time>
      </trkpt>
      <trkpt lat="42.7733800" lon="-8.6536610">
        <ele>29.0</ele>
        <time>2021-05-23T13:38:28Z</time>
      </trkpt>
      <trkpt lat="42.7733890" lon="-8.6536640">
        <ele>29.0</ele>
        <time>2021-05-23T13:38:29Z</time>
      </trkpt>
      <trkpt lat="42.7734060" lon="-8.6536660">
        <ele>29.0</ele>
        <time>2021-05-23T13:38:30Z</time>
      </trkpt>
      <trkpt lat="42.7734220" lon="-8.6536570">
        <ele>29.1</ele>
        <time>2021-05-23T13:38:31Z</time>
      </trkpt>
      <trkpt lat="42.7734380" lon="-8.6536510">
        <ele>29.1</ele>
        <time>2021-05-23T13:38:32Z</time>
      </trkpt>
      <trkpt lat="42.7734540" lon="-8.6536440">
        <ele>29.1</ele>
        <time>2021-05-23T13:38:33Z</time>
      </trkpt>
      <trkpt lat="42.7734690" lon="-8.6536320">
        <ele>29.2</ele>
        <time>2021-05-23T13:38:34Z</time>
      </trkpt>
      <trkpt lat="42.7734830" lon="-8.6536310">
        <ele>29.2</ele>
        <time>2021-05-23T13:38:35Z</time>
      </trkpt>
      <trkpt lat="42.7734960" lon="-8.6536310">
        <ele>29.2</ele>
        <time>2021-05-23T13:38:36Z</time>
      </trkpt>
      <trkpt lat="42.7735100" lon="-8.6536220">
        <ele>29.3</ele>
        <time>2021-05-23T13:38:37Z</time>
      </trkpt>
      <trkpt lat="42.7735240" lon="-8.6536180">
        <ele>29.3</ele>
        <time>2021-05-23T13:38:38Z</time>
      </trkpt>
      <trkpt lat="42.7735400" lon="-8.6536180">
        <ele>29.3</ele>
        <time>2021-05-23T13:38:39Z</time>
      </trkpt>
      <trkpt lat="42.7735540" lon="-8.6536110">
        <ele>29.4</ele>
        <time>2021-05-23T13:38:40Z</time>
      </trkpt>
      <trkpt lat="42.7735690" lon="-8.6536070">
        <ele>29.4</ele>
        <time>2021-05-23T13:38:41Z</time>
      </trkpt>
      <trkpt lat="42.7735820" lon="-8.6536020">
        <ele>29.4</ele>
        <time>2021-05-23T13:38:42Z</time>
      </trkpt>
      <trkpt lat="42.7735960" lon="-8.6535990">
        <ele>29.5</ele>
        <time>2021-05-23T13:38:43Z</time>
      </trkpt>
      <trkpt lat="42.7736110" lon="-8.6535970">
        <ele>29.5</ele>
        <time>2021-05-23T13:38:44Z</time>
      </trkpt>
      <trkpt lat="42.7736260" lon="-8.6535930">
        <ele>29.5</ele>
        <time>2021-05-23T13:38:45Z</time>
      </trkpt>
      <trkpt lat="42.7736390" lon="-8.6535940">
        <ele>29.6</ele>
        <time>2021-05-23T13:38:46Z</time>
      </trkpt>
      <trkpt lat="42.7736550" lon="-8.6535960">
        <ele>29.6</ele>
        <time>2021-05-23T13:38:47Z</time>
      </trkpt>
      <trkpt lat="42.7736690" lon="-8.6535900">
        <ele>29.7</ele>
        <time>2021-05-23T13:38:48Z</time>
      </trkpt>
      <trkpt lat="42.7736840" lon="-8.6535860">
        <ele>29.7</ele>
        <time>2021-05-23T13:38:49Z</time>
      </trkpt>
      <trkpt lat="42.7736970" lon="-8.6535790">
        <ele>29.7</ele>
        <time>2021-05-23T13:38:50Z</time>
      </trkpt>
      <trkpt lat="42.7737130" lon="-8.6535640">
        <ele>29.8</ele>
        <time>2021-05-23T13:38:51Z</time>
      </trkpt>
      <trkpt lat="42.7737280" lon="-8.6535610">
        <ele>29.8</ele>
        <time>2021-05-23T13:38:52Z</time>
      </trkpt>
      <trkpt lat="42.7737420" lon="-8.6535560">
        <ele>29.9</ele>
        <time>2021-05-23T13:38:53Z</time>
      </trkpt>
      <trkpt lat="42.7737570" lon="-8.6535500">
        <ele>29.9</ele>
        <time>2021-05-23T13:38:54Z</time>
      </trkpt>
      <trkpt lat="42.7737710" lon="-8.6535450">
        <ele>30.0</ele>
        <time>2021-05-23T13:38:55Z</time>
      </trkpt>
      <trkpt lat="42.7737870" lon="-8.6535400">
        <ele>30.0</ele>
        <time>2021-05-23T13:38:56Z</time>
      </trkpt>
      <trkpt lat="42.7738000" lon="-8.6535390">
        <ele>30.1</ele>
        <time>2021-05-23T13:38:57Z</time>
      </trkpt>
      <trkpt lat="42.7738150" lon="-8.6535350">
        <ele>30.1</ele>
        <time>2021-05-23T13:38:58Z</time>
      </trkpt>
      <trkpt lat="42.7738300" lon="-8.6535320">
        <ele>30.2</ele>
        <time>2021-05-23T13:38:59Z</time>
      </trkpt>
      <trkpt lat="42.7738440" lon="-8.6535280">
        <ele>30.2</ele>
        <time>2021-05-23T13:39:00Z</time>
      </trkpt>
      <trkpt lat="42.7738620" lon="-8.6535240">
        <ele>30.3</ele>
        <time>2021-05-23T13:39:01Z</time>
      </trkpt>
      <trkpt lat="42.7738760" lon="-8.6535240">
        <ele>30.4</ele>
        <time>2021-05-23T13:39:02Z</time>
      </trkpt>
      <trkpt lat="42.7738920" lon="-8.6535220">
        <ele>30.4</ele>
        <time>2021-05-23T13:39:03Z</time>
      </trkpt>
      <trkpt lat="42.7739120" lon="-8.6535260">
        <ele>30.5</ele>
        <time>2021-05-23T13:39:04Z</time>
      </trkpt>
      <trkpt lat="42.7739210" lon="-8.6535290">
        <ele>30.5</ele>
        <time>2021-05-23T13:39:05Z</time>
      </trkpt>
      <trkpt lat="42.7739290" lon="-8.6535320">
        <ele>30.6</ele>
        <time>2021-05-23T13:39:06Z</time>
      </trkpt>
      <trkpt lat="42.7739430" lon="-8.6535390">
        <ele>30.6</ele>
        <time>2021-05-23T13:39:07Z</time>
      </trkpt>
      <trkpt lat="42.7739560" lon="-8.6535580">
        <ele>30.6</ele>
        <time>2021-05-23T13:39:08Z</time>
      </trkpt>
      <trkpt lat="42.7739690" lon="-8.6535770">
        <ele>30.6</ele>
        <time>2021-05-23T13:39:09Z</time>
      </trkpt>
      <trkpt lat="42.7739800" lon="-8.6535950">
        <ele>30.6</ele>
        <time>2021-05-23T13:39:10Z</time>
      </trkpt>
      <trkpt lat="42.7739890" lon="-8.6536310">
        <ele>30.6</ele>
        <time>2021-05-23T13:39:11Z</time>
      </trkpt>
      <trkpt lat="42.7739900" lon="-8.6536450">
        <ele>30.6</ele>
        <time>2021-05-23T13:39:12Z</time>
      </trkpt>
      <trkpt lat="42.7739910" lon="-8.6536660">
        <ele>30.7</ele>
        <time>2021-05-23T13:39:13Z</time>
      </trkpt>
      <trkpt lat="42.7739960" lon="-8.6536870">
        <ele>30.7</ele>
        <time>2021-05-23T13:39:14Z</time>
      </trkpt>
      <trkpt lat="42.7739940" lon="-8.6537080">
        <ele>30.7</ele>
        <time>2021-05-23T13:39:15Z</time>
      </trkpt>
      <trkpt lat="42.7739910" lon="-8.6537250">
        <ele>30.7</ele>
        <time>2021-05-23T13:39:16Z</time>
      </trkpt>
      <trkpt lat="42.7739780" lon="-8.6537500">
        <ele>30.7</ele>
        <time>2021-05-23T13:39:17Z</time>
      </trkpt>
      <trkpt lat="42.7739750" lon="-8.6537620">
        <ele>30.7</ele>
        <time>2021-05-23T13:39:18Z</time>
      </trkpt>
      <trkpt lat="42.7739720" lon="-8.6537730">
        <ele>30.7</ele>
        <time>2021-05-23T13:39:19Z</time>
      </trkpt>
      <trkpt lat="42.7739750" lon="-8.6538050">
        <ele>30.8</ele>
        <time>2021-05-23T13:39:20Z</time>
      </trkpt>
      <trkpt lat="42.7739750" lon="-8.6538160">
        <ele>30.8</ele>
        <time>2021-05-23T13:39:21Z</time>
      </trkpt>
      <trkpt lat="42.7739750" lon="-8.6538270">
        <ele>30.8</ele>
        <time>2021-05-23T13:39:22Z</time>
      </trkpt>
      <trkpt lat="42.7739770" lon="-8.6538490">
        <ele>30.8</ele>
        <time>2021-05-23T13:39:23Z</time>
      </trkpt>
      <trkpt lat="42.7739790" lon="-8.6538710">
        <ele>30.8</ele>
        <time>2021-05-23T13:39:24Z</time>
      </trkpt>
      <trkpt lat="42.7739820" lon="-8.6538880">
        <ele>30.8</ele>
        <time>2021-05-23T13:39:25Z</time>
      </trkpt>
      <trkpt lat="42.7739800" lon="-8.6539000">
        <ele>30.8</ele>
        <time>2021-05-23T13:39:26Z</time>
      </trkpt>
      <trkpt lat="42.7739820" lon="-8.6539120">
        <ele>30.9</ele>
        <time>2021-05-23T13:39:27Z</time>
      </trkpt>
      <trkpt lat="42.7739830" lon="-8.6539420">
        <ele>30.9</ele>
        <time>2021-05-23T13:39:28Z</time>
      </trkpt>
      <trkpt lat="42.7739860" lon="-8.6539550">
        <ele>30.9</ele>
        <time>2021-05-23T13:39:29Z</time>
      </trkpt>
      <trkpt lat="42.7739880" lon="-8.6539680">
        <ele>30.9</ele>
        <time>2021-05-23T13:39:30Z</time>
      </trkpt>
      <trkpt lat="42.7739870" lon="-8.6539880">
        <ele>30.9</ele>
        <time>2021-05-23T13:39:31Z</time>
      </trkpt>
      <trkpt lat="42.7739950" lon="-8.6540090">
        <ele>30.9</ele>
        <time>2021-05-23T13:39:32Z</time>
      </trkpt>
      <trkpt lat="42.7739970" lon="-8.6540210">
        <ele>31.0</ele>
        <time>2021-05-23T13:39:33Z</time>
      </trkpt>
      <trkpt lat="42.7739950" lon="-8.6540270">
        <ele>31.0</ele>
        <time>2021-05-23T13:39:34Z</time>
      </trkpt>
      <trkpt lat="42.7740040" lon="-8.6540320">
        <ele>31.0</ele>
        <time>2021-05-23T13:39:35Z</time>
      </trkpt>
      <trkpt lat="42.7740100" lon="-8.6540350">
        <ele>31.1</ele>
        <time>2021-05-23T13:39:36Z</time>
      </trkpt>
      <trkpt lat="42.7740180" lon="-8.6540430">
        <ele>31.1</ele>
        <time>2021-05-23T13:39:37Z</time>
      </trkpt>
      <trkpt lat="42.7740340" lon="-8.6540550">
        <ele>31.1</ele>
        <time>2021-05-23T13:39:38Z</time>
      </trkpt>
      <trkpt lat="42.7740490" lon="-8.6540580">
        <ele>31.1</ele>
        <time>2021-05-23T13:39:39Z</time>
      </trkpt>
      <trkpt lat="42.7740720" lon="-8.6540470">
        <ele>31.1</ele>
        <time>2021-05-23T13:39:40Z</time>
      </trkpt>
      <trkpt lat="42.7740840" lon="-8.6540430">
        <ele>31.2</ele>
        <time>2021-05-23T13:39:41Z</time>
      </trkpt>
      <trkpt lat="42.7740950" lon="-8.6540390">
        <ele>31.2</ele>
        <time>2021-05-23T13:39:42Z</time>
      </trkpt>
      <trkpt lat="42.7741130" lon="-8.6540330">
        <ele>31.2</ele>
        <time>2021-05-23T13:39:43Z</time>
      </trkpt>
      <trkpt lat="42.7741300" lon="-8.6540270">
        <ele>31.2</ele>
        <time>2021-05-23T13:39:44Z</time>
      </trkpt>
      <trkpt lat="42.7741480" lon="-8.6540290">
        <ele>31.2</ele>
        <time>2021-05-23T13:39:45Z</time>
      </trkpt>
      <trkpt lat="42.7741640" lon="-8.6540270">
        <ele>31.2</ele>
        <time>2021-05-23T13:39:46Z</time>
      </trkpt>
      <trkpt lat="42.7741820" lon="-8.6540270">
        <ele>31.3</ele>
        <time>2021-05-23T13:39:47Z</time>
      </trkpt>
      <trkpt lat="42.7742000" lon="-8.6540230">
        <ele>31.3</ele>
        <time>2021-05-23T13:39:48Z</time>
      </trkpt>
      <trkpt lat="42.7742140" lon="-8.6540250">
        <ele>31.3</ele>
        <time>2021-05-23T13:39:49Z</time>
      </trkpt>
      <trkpt lat="42.7742280" lon="-8.6540250">
        <ele>31.3</ele>
        <time>2021-05-23T13:39:50Z</time>
      </trkpt>
      <trkpt lat="42.7742420" lon="-8.6540260">
        <ele>31.4</ele>
        <time>2021-05-23T13:39:51Z</time>
      </trkpt>
      <trkpt lat="42.7742570" lon="-8.6540190">
        <ele>31.4</ele>
        <time>2021-05-23T13:39:52Z</time>
      </trkpt>
      <trkpt lat="42.7742780" lon="-8.6540120">
        <ele>31.4</ele>
        <time>2021-05-23T13:39:53Z</time>
      </trkpt>
      <trkpt lat="42.7742880" lon="-8.6540100">
        <ele>31.5</ele>
        <time>2021-05-23T13:39:54Z</time>
      </trkpt>
      <trkpt lat="42.7742980" lon="-8.6540070">
        <ele>31.5</ele>
        <time>2021-05-23T13:39:55Z</time>
      </trkpt>
      <trkpt lat="42.7743120" lon="-8.6540050">
        <ele>31.5</ele>
        <time>2021-05-23T13:39:56Z</time>
      </trkpt>
      <trkpt lat="42.7743260" lon="-8.6540080">
        <ele>31.5</ele>
        <time>2021-05-23T13:39:57Z</time>
      </trkpt>
      <trkpt lat="42.7743400" lon="-8.6540070">
        <ele>31.6</ele>
        <time>2021-05-23T13:39:58Z</time>
      </trkpt>
      <trkpt lat="42.7743570" lon="-8.6540030">
        <ele>31.6</ele>
        <time>2021-05-23T13:39:59Z</time>
      </trkpt>
      <trkpt lat="42.7743710" lon="-8.6540020">
        <ele>31.6</ele>
        <time>2021-05-23T13:40:00Z</time>
      </trkpt>
      <trkpt lat="42.7743860" lon="-8.6539980">
        <ele>31.7</ele>
        <time>2021-05-23T13:40:01Z</time>
      </trkpt>
      <trkpt lat="42.7744010" lon="-8.6539970">
        <ele>31.7</ele>
        <time>2021-05-23T13:40:02Z</time>
      </trkpt>
      <trkpt lat="42.7744170" lon="-8.6539920">
        <ele>31.7</ele>
        <time>2021-05-23T13:40:03Z</time>
      </trkpt>
      <trkpt lat="42.7744320" lon="-8.6539870">
        <ele>31.8</ele>
        <time>2021-05-23T13:40:04Z</time>
      </trkpt>
      <trkpt lat="42.7744470" lon="-8.6539840">
        <ele>31.8</ele>
        <time>2021-05-23T13:40:05Z</time>
      </trkpt>
      <trkpt lat="42.7744630" lon="-8.6539800">
        <ele>31.8</ele>
        <time>2021-05-23T13:40:06Z</time>
      </trkpt>
      <trkpt lat="42.7744790" lon="-8.6539790">
        <ele>31.9</ele>
        <time>2021-05-23T13:40:07Z</time>
      </trkpt>
      <trkpt lat="42.7744930" lon="-8.6539750">
        <ele>31.9</ele>
        <time>2021-05-23T13:40:08Z</time>
      </trkpt>
      <trkpt lat="42.7745080" lon="-8.6539790">
        <ele>31.9</ele>
        <time>2021-05-23T13:40:09Z</time>
      </trkpt>
      <trkpt lat="42.7745230" lon="-8.6539720">
        <ele>32.0</ele>
        <time>2021-05-23T13:40:10Z</time>
      </trkpt>
      <trkpt lat="42.7745390" lon="-8.6539690">
        <ele>32.0</ele>
        <time>2021-05-23T13:40:11Z</time>
      </trkpt>
      <trkpt lat="42.7745530" lon="-8.6539700">
        <ele>32.0</ele>
        <time>2021-05-23T13:40:12Z</time>
      </trkpt>
      <trkpt lat="42.7745670" lon="-8.6539720">
        <ele>32.1</ele>
        <time>2021-05-23T13:40:13Z</time>
      </trkpt>
      <trkpt lat="42.7745900" lon="-8.6539730">
        <ele>32.1</ele>
        <time>2021-05-23T13:40:14Z</time>
      </trkpt>
      <trkpt lat="42.7745990" lon="-8.6539710">
        <ele>32.1</ele>
        <time>2021-05-23T13:40:15Z</time>
      </trkpt>
      <trkpt lat="42.7746090" lon="-8.6539700">
        <ele>32.2</ele>
        <time>2021-05-23T13:40:16Z</time>
      </trkpt>
      <trkpt lat="42.7746220" lon="-8.6539590">
        <ele>32.2</ele>
        <time>2021-05-23T13:40:17Z</time>
      </trkpt>
      <trkpt lat="42.7746360" lon="-8.6539600">
        <ele>32.2</ele>
        <time>2021-05-23T13:40:18Z</time>
      </trkpt>
      <trkpt lat="42.7746500" lon="-8.6539580">
        <ele>32.2</ele>
        <time>2021-05-23T13:40:19Z</time>
      </trkpt>
      <trkpt lat="42.7746640" lon="-8.6539530">
        <ele>32.3</ele>
        <time>2021-05-23T13:40:20Z</time>
      </trkpt>
      <trkpt lat="42.7746790" lon="-8.6539550">
        <ele>32.3</ele>
        <time>2021-05-23T13:40:21Z</time>
      </trkpt>
      <trkpt lat="42.7746940" lon="-8.6539460">
        <ele>32.3</ele>
        <time>2021-05-23T13:40:22Z</time>
      </trkpt>
      <trkpt lat="42.7747090" lon="-8.6539430">
        <ele>32.3</ele>
        <time>2021-05-23T13:40:23Z</time>
      </trkpt>
      <trkpt lat="42.7747230" lon="-8.6539410">
        <ele>32.4</ele>
        <time>2021-05-23T13:40:24Z</time>
      </trkpt>
      <trkpt lat="42.7747390" lon="-8.6539360">
        <ele>32.4</ele>
        <time>2021-05-23T13:40:25Z</time>
      </trkpt>
      <trkpt lat="42.7747530" lon="-8.6539270">
        <ele>32.4</ele>
        <time>2021-05-23T13:40:26Z</time>
      </trkpt>
      <trkpt lat="42.7747690" lon="-8.6539240">
        <ele>32.4</ele>
        <time>2021-05-23T13:40:27Z</time>
      </trkpt>
      <trkpt lat="42.7747830" lon="-8.6539160">
        <ele>32.4</ele>
        <time>2021-05-23T13:40:28Z</time>
      </trkpt>
      <trkpt lat="42.7747980" lon="-8.6539160">
        <ele>32.5</ele>
        <time>2021-05-23T13:40:29Z</time>
      </trkpt>
      <trkpt lat="42.7748110" lon="-8.6539190">
        <ele>32.5</ele>
        <time>2021-05-23T13:40:30Z</time>
      </trkpt>
      <trkpt lat="42.7748250" lon="-8.6539170">
        <ele>32.5</ele>
        <time>2021-05-23T13:40:31Z</time>
      </trkpt>
      <trkpt lat="42.7748390" lon="-8.6539180">
        <ele>32.5</ele>
        <time>2021-05-23T13:40:32Z</time>
      </trkpt>
      <trkpt lat="42.7748520" lon="-8.6539200">
        <ele>32.5</ele>
        <time>2021-05-23T13:40:33Z</time>
      </trkpt>
      <trkpt lat="42.7748680" lon="-8.6539200">
        <ele>32.5</ele>
        <time>2021-05-23T13:40:34Z</time>
      </trkpt>
      <trkpt lat="42.7748900" lon="-8.6539200">
        <ele>32.5</ele>
        <time>2021-05-23T13:40:35Z</time>
      </trkpt>
      <trkpt lat="42.7748990" lon="-8.6539210">
        <ele>32.5</ele>
        <time>2021-05-23T13:40:36Z</time>
      </trkpt>
      <trkpt lat="42.7749080" lon="-8.6539220">
        <ele>32.5</ele>
        <time>2021-05-23T13:40:37Z</time>
      </trkpt>
      <trkpt lat="42.7749280" lon="-8.6539180">
        <ele>32.5</ele>
        <time>2021-05-23T13:40:38Z</time>
      </trkpt>
      <trkpt lat="42.7749370" lon="-8.6539150">
        <ele>32.5</ele>
        <time>2021-05-23T13:40:39Z</time>
      </trkpt>
      <trkpt lat="42.7749450" lon="-8.6539130">
        <ele>32.5</ele>
        <time>2021-05-23T13:40:40Z</time>
      </trkpt>
      <trkpt lat="42.7749650" lon="-8.6539160">
        <ele>32.5</ele>
        <time>2021-05-23T13:40:41Z</time>
      </trkpt>
      <trkpt lat="42.7749750" lon="-8.6539120">
        <ele>32.5</ele>
        <time>2021-05-23T13:40:42Z</time>
      </trkpt>
      <trkpt lat="42.7749840" lon="-8.6539090">
        <ele>32.5</ele>
        <time>2021-05-23T13:40:43Z</time>
      </trkpt>
      <trkpt lat="42.7749980" lon="-8.6539030">
        <ele>32.5</ele>
        <time>2021-05-23T13:40:44Z</time>
      </trkpt>
      <trkpt lat="42.7750120" lon="-8.6539010">
        <ele>32.4</ele>
        <time>2021-05-23T13:40:45Z</time>
      </trkpt>
      <trkpt lat="42.7750260" lon="-8.6539010">
        <ele>32.4</ele>
        <time>2021-05-23T13:40:46Z</time>
      </trkpt>
      <trkpt lat="42.7750390" lon="-8.6539010">
        <ele>32.4</ele>
        <time>2021-05-23T13:40:47Z</time>
      </trkpt>
      <trkpt lat="42.7750530" lon="-8.6539000">
        <ele>32.4</ele>
        <time>2021-05-23T13:40:48Z</time>
      </trkpt>
      <trkpt lat="42.7750680" lon="-8.6539020">
        <ele>32.4</ele>
        <time>2021-05-23T13:40:49Z</time>
      </trkpt>
      <trkpt lat="42.7750810" lon="-8.6538950">
        <ele>32.4</ele>
        <time>2021-05-23T13:40:50Z</time>
      </trkpt>
      <trkpt lat="42.7750970" lon="-8.6538940">
        <ele>32.4</ele>
        <time>2021-05-23T13:40:51Z</time>
      </trkpt>
      <trkpt lat="42.7751100" lon="-8.6538920">
        <ele>32.4</ele>
        <time>2021-05-23T13:40:52Z</time>
      </trkpt>
      <trkpt lat="42.7751260" lon="-8.6538850">
        <ele>32.3</ele>
        <time>2021-05-23T13:40:53Z</time>
      </trkpt>
      <trkpt lat="42.7751420" lon="-8.6538870">
        <ele>32.3</ele>
        <time>2021-05-23T13:40:54Z</time>
      </trkpt>
      <trkpt lat="42.7751550" lon="-8.6538830">
        <ele>32.3</ele>
        <time>2021-05-23T13:40:55Z</time>
      </trkpt>
      <trkpt lat="42.7751770" lon="-8.6538740">
        <ele>32.3</ele>
        <time>2021-05-23T13:40:56Z</time>
      </trkpt>
      <trkpt lat="42.7751850" lon="-8.6538710">
        <ele>32.3</ele>
        <time>2021-05-23T13:40:57Z</time>
      </trkpt>
      <trkpt lat="42.7751940" lon="-8.6538690">
        <ele>32.3</ele>
        <time>2021-05-23T13:40:58Z</time>
      </trkpt>
      <trkpt lat="42.7752160" lon="-8.6538680">
        <ele>32.3</ele>
        <time>2021-05-23T13:40:59Z</time>
      </trkpt>
      <trkpt lat="42.7752250" lon="-8.6538680">
        <ele>32.2</ele>
        <time>2021-05-23T13:41:00Z</time>
      </trkpt>
      <trkpt lat="42.7752340" lon="-8.6538670">
        <ele>32.2</ele>
        <time>2021-05-23T13:41:01Z</time>
      </trkpt>
      <trkpt lat="42.7752550" lon="-8.6538620">
        <ele>32.2</ele>
        <time>2021-05-23T13:41:02Z</time>
      </trkpt>
      <trkpt lat="42.7752640" lon="-8.6538610">
        <ele>32.2</ele>
        <time>2021-05-23T13:41:03Z</time>
      </trkpt>
      <trkpt lat="42.7752730" lon="-8.6538600">
        <ele>32.2</ele>
        <time>2021-05-23T13:41:04Z</time>
      </trkpt>
      <trkpt lat="42.7752870" lon="-8.6538560">
        <ele>32.2</ele>
        <time>2021-05-23T13:41:05Z</time>
      </trkpt>
      <trkpt lat="42.7753030" lon="-8.6538510">
        <ele>32.1</ele>
        <time>2021-05-23T13:41:06Z</time>
      </trkpt>
      <trkpt lat="42.7753170" lon="-8.6538450">
        <ele>32.1</ele>
        <time>2021-05-23T13:41:07Z</time>
      </trkpt>
      <trkpt lat="42.7753330" lon="-8.6538460">
        <ele>32.1</ele>
        <time>2021-05-23T13:41:08Z</time>
      </trkpt>
      <trkpt lat="42.7753550" lon="-8.6538450">
        <ele>32.1</ele>
        <time>2021-05-23T13:41:09Z</time>
      </trkpt>
      <trkpt lat="42.7753640" lon="-8.6538450">
        <ele>32.1</ele>
        <time>2021-05-23T13:41:10Z</time>
      </trkpt>
      <trkpt lat="42.7753730" lon="-8.6538440">
        <ele>32.1</ele>
        <time>2021-05-23T13:41:11Z</time>
      </trkpt>
      <trkpt lat="42.7753890" lon="-8.6538420">
        <ele>32.0</ele>
        <time>2021-05-23T13:41:12Z</time>
      </trkpt>
      <trkpt lat="42.7754040" lon="-8.6538360">
        <ele>32.0</ele>
        <time>2021-05-23T13:41:13Z</time>
      </trkpt>
      <trkpt lat="42.7754170" lon="-8.6538370">
        <ele>32.0</ele>
        <time>2021-05-23T13:41:14Z</time>
      </trkpt>
      <trkpt lat="42.7754310" lon="-8.6538410">
        <ele>32.0</ele>
        <time>2021-05-23T13:41:15Z</time>
      </trkpt>
      <trkpt lat="42.7754450" lon="-8.6538330">
        <ele>32.0</ele>
        <time>2021-05-23T13:41:16Z</time>
      </trkpt>
      <trkpt lat="42.7754580" lon="-8.6538330">
        <ele>32.0</ele>
        <time>2021-05-23T13:41:17Z</time>
      </trkpt>
      <trkpt lat="42.7754720" lon="-8.6538270">
        <ele>31.9</ele>
        <time>2021-05-23T13:41:18Z</time>
      </trkpt>
      <trkpt lat="42.7754860" lon="-8.6538240">
        <ele>31.9</ele>
        <time>2021-05-23T13:41:19Z</time>
      </trkpt>
      <trkpt lat="42.7755090" lon="-8.6538180">
        <ele>31.9</ele>
        <time>2021-05-23T13:41:20Z</time>
      </trkpt>
      <trkpt lat="42.7755170" lon="-8.6538160">
        <ele>31.9</ele>
        <time>2021-05-23T13:41:21Z</time>
      </trkpt>
      <trkpt lat="42.7755260" lon="-8.6538140">
        <ele>31.9</ele>
        <time>2021-05-23T13:41:22Z</time>
      </trkpt>
      <trkpt lat="42.7755470" lon="-8.6538110">
        <ele>31.8</ele>
        <time>2021-05-23T13:41:23Z</time>
      </trkpt>
      <trkpt lat="42.7755570" lon="-8.6538110">
        <ele>31.8</ele>
        <time>2021-05-23T13:41:24Z</time>
      </trkpt>
      <trkpt lat="42.7755660" lon="-8.6538120">
        <ele>31.8</ele>
        <time>2021-05-23T13:41:25Z</time>
      </trkpt>
      <trkpt lat="42.7755870" lon="-8.6538080">
        <ele>31.8</ele>
        <time>2021-05-23T13:41:26Z</time>
      </trkpt>
      <trkpt lat="42.7755950" lon="-8.6538040">
        <ele>31.8</ele>
        <time>2021-05-23T13:41:27Z</time>
      </trkpt>
      <trkpt lat="42.7756030" lon="-8.6538010">
        <ele>31.8</ele>
        <time>2021-05-23T13:41:28Z</time>
      </trkpt>
      <trkpt lat="42.7756230" lon="-8.6537970">
        <ele>31.7</ele>
        <time>2021-05-23T13:41:29Z</time>
      </trkpt>
      <trkpt lat="42.7756320" lon="-8.6537970">
        <ele>31.7</ele>
        <time>2021-05-23T13:41:30Z</time>
      </trkpt>
      <trkpt lat="42.7756400" lon="-8.6537960">
        <ele>31.7</ele>
        <time>2021-05-23T13:41:31Z</time>
      </trkpt>
      <trkpt lat="42.7756540" lon="-8.6537930">
        <ele>31.7</ele>
        <time>2021-05-23T13:41:32Z</time>
      </trkpt>
      <trkpt lat="42.7756670" lon="-8.6537880">
        <ele>31.7</ele>
        <time>2021-05-23T13:41:33Z</time>
      </trkpt>
      <trkpt lat="42.7756890" lon="-8.6537880">
        <ele>31.7</ele>
        <time>2021-05-23T13:41:34Z</time>
      </trkpt>
      <trkpt lat="42.7756970" lon="-8.6537900">
        <ele>31.6</ele>
        <time>2021-05-23T13:41:35Z</time>
      </trkpt>
      <trkpt lat="42.7757060" lon="-8.6537910">
        <ele>31.6</ele>
        <time>2021-05-23T13:41:36Z</time>
      </trkpt>
      <trkpt lat="42.7757240" lon="-8.6537850">
        <ele>31.6</ele>
        <time>2021-05-23T13:41:37Z</time>
      </trkpt>
      <trkpt lat="42.7757330" lon="-8.6537810">
        <ele>31.6</ele>
        <time>2021-05-23T13:41:38Z</time>
      </trkpt>
      <trkpt lat="42.7757410" lon="-8.6537780">
        <ele>31.6</ele>
        <time>2021-05-23T13:41:39Z</time>
      </trkpt>
      <trkpt lat="42.7757530" lon="-8.6537780">
        <ele>31.6</ele>
        <time>2021-05-23T13:41:40Z</time>
      </trkpt>
      <trkpt lat="42.7757660" lon="-8.6537770">
        <ele>31.5</ele>
        <time>2021-05-23T13:41:41Z</time>
      </trkpt>
      <trkpt lat="42.7757770" lon="-8.6537730">
        <ele>31.5</ele>
        <time>2021-05-23T13:41:42Z</time>
      </trkpt>
      <trkpt lat="42.7757930" lon="-8.6537750">
        <ele>31.5</ele>
        <time>2021-05-23T13:41:43Z</time>
      </trkpt>
      <trkpt lat="42.7758050" lon="-8.6537700">
        <ele>31.5</ele>
        <time>2021-05-23T13:41:44Z</time>
      </trkpt>
      <trkpt lat="42.7758260" lon="-8.6537630">
        <ele>31.5</ele>
        <time>2021-05-23T13:41:45Z</time>
      </trkpt>
      <trkpt lat="42.7758350" lon="-8.6537610">
        <ele>31.5</ele>
        <time>2021-05-23T13:41:46Z</time>
      </trkpt>
      <trkpt lat="42.7758440" lon="-8.6537590">
        <ele>31.4</ele>
        <time>2021-05-23T13:41:47Z</time>
      </trkpt>
      <trkpt lat="42.7758580" lon="-8.6537540">
        <ele>31.4</ele>
        <time>2021-05-23T13:41:48Z</time>
      </trkpt>
      <trkpt lat="42.7758710" lon="-8.6537560">
        <ele>31.4</ele>
        <time>2021-05-23T13:41:49Z</time>
      </trkpt>
      <trkpt lat="42.7758860" lon="-8.6537510">
        <ele>31.4</ele>
        <time>2021-05-23T13:41:50Z</time>
      </trkpt>
      <trkpt lat="42.7759000" lon="-8.6537510">
        <ele>31.4</ele>
        <time>2021-05-23T13:41:51Z</time>
      </trkpt>
      <trkpt lat="42.7759130" lon="-8.6537480">
        <ele>31.4</ele>
        <time>2021-05-23T13:41:52Z</time>
      </trkpt>
      <trkpt lat="42.7759290" lon="-8.6537440">
        <ele>31.4</ele>
        <time>2021-05-23T13:41:53Z</time>
      </trkpt>
      <trkpt lat="42.7759510" lon="-8.6537370">
        <ele>31.4</ele>
        <time>2021-05-23T13:41:54Z</time>
      </trkpt>
      <trkpt lat="42.7759590" lon="-8.6537340">
        <ele>31.4</ele>
        <time>2021-05-23T13:41:55Z</time>
      </trkpt>
      <trkpt lat="42.7759680" lon="-8.6537320">
        <ele>31.4</ele>
        <time>2021-05-23T13:41:56Z</time>
      </trkpt>
      <trkpt lat="42.7759900" lon="-8.6537230">
        <ele>31.3</ele>
        <time>2021-05-23T13:41:57Z</time>
      </trkpt>
      <trkpt lat="42.7760000" lon="-8.6537210">
        <ele>31.3</ele>
        <time>2021-05-23T13:41:58Z</time>
      </trkpt>
      <trkpt lat="42.7760090" lon="-8.6537200">
        <ele>31.3</ele>
        <time>2021-05-23T13:41:59Z</time>
      </trkpt>
      <trkpt lat="42.7760240" lon="-8.6537190">
        <ele>31.3</ele>
        <time>2021-05-23T13:42:00Z</time>
      </trkpt>
      <trkpt lat="42.7760400" lon="-8.6537120">
        <ele>31.3</ele>
        <time>2021-05-23T13:42:01Z</time>
      </trkpt>
      <trkpt lat="42.7760530" lon="-8.6537010">
        <ele>31.3</ele>
        <time>2021-05-23T13:42:02Z</time>
      </trkpt>
      <trkpt lat="42.7760680" lon="-8.6536920">
        <ele>31.3</ele>
        <time>2021-05-23T13:42:03Z</time>
      </trkpt>
      <trkpt lat="42.7760830" lon="-8.6536890">
        <ele>31.3</ele>
        <time>2021-05-23T13:42:04Z</time>
      </trkpt>
      <trkpt lat="42.7761010" lon="-8.6536880">
        <ele>31.3</ele>
        <time>2021-05-23T13:42:05Z</time>
      </trkpt>
      <trkpt lat="42.7761170" lon="-8.6536820">
        <ele>31.3</ele>
        <time>2021-05-23T13:42:06Z</time>
      </trkpt>
      <trkpt lat="42.7761320" lon="-8.6536790">
        <ele>31.3</ele>
        <time>2021-05-23T13:42:07Z</time>
      </trkpt>
      <trkpt lat="42.7761470" lon="-8.6536850">
        <ele>31.3</ele>
        <time>2021-05-23T13:42:08Z</time>
      </trkpt>
      <trkpt lat="42.7761620" lon="-8.6536870">
        <ele>31.3</ele>
        <time>2021-05-23T13:42:09Z</time>
      </trkpt>
      <trkpt lat="42.7761740" lon="-8.6536850">
        <ele>31.2</ele>
        <time>2021-05-23T13:42:10Z</time>
      </trkpt>
      <trkpt lat="42.7761770" lon="-8.6536870">
        <ele>31.2</ele>
        <time>2021-05-23T13:42:11Z</time>
      </trkpt>
      <trkpt lat="42.7761800" lon="-8.6536960">
        <ele>31.2</ele>
        <time>2021-05-23T13:42:12Z</time>
      </trkpt>
      <trkpt lat="42.7761910" lon="-8.6536940">
        <ele>31.2</ele>
        <time>2021-05-23T13:42:13Z</time>
      </trkpt>
      <trkpt lat="42.7762030" lon="-8.6536960">
        <ele>31.2</ele>
        <time>2021-05-23T13:42:14Z</time>
      </trkpt>
      <trkpt lat="42.7762190" lon="-8.6537030">
        <ele>31.2</ele>
        <time>2021-05-23T13:42:15Z</time>
      </trkpt>
      <trkpt lat="42.7762290" lon="-8.6537210">
        <ele>31.2</ele>
        <time>2021-05-23T13:42:16Z</time>
      </trkpt>
      <trkpt lat="42.7762360" lon="-8.6537250">
        <ele>31.2</ele>
        <time>2021-05-23T13:42:17Z</time>
      </trkpt>
      <trkpt lat="42.7762420" lon="-8.6537300">
        <ele>31.2</ele>
        <time>2021-05-23T13:42:18Z</time>
      </trkpt>
      <trkpt lat="42.7762490" lon="-8.6537340">
        <ele>31.1</ele>
        <time>2021-05-23T13:42:19Z</time>
      </trkpt>
      <trkpt lat="42.7762620" lon="-8.6537340">
        <ele>31.1</ele>
        <time>2021-05-23T13:42:20Z</time>
      </trkpt>
      <trkpt lat="42.7762700" lon="-8.6537380">
        <ele>31.1</ele>
        <time>2021-05-23T13:42:21Z</time>
      </trkpt>
      <trkpt lat="42.7762780" lon="-8.6537360">
        <ele>31.1</ele>
        <time>2021-05-23T13:42:22Z</time>
      </trkpt>
      <trkpt lat="42.7762830" lon="-8.6537320">
        <ele>31.1</ele>
        <time>2021-05-23T13:42:23Z</time>
      </trkpt>
      <trkpt lat="42.7762910" lon="-8.6537320">
        <ele>31.1</ele>
        <time>2021-05-23T13:42:24Z</time>
      </trkpt>
      <trkpt lat="42.7762970" lon="-8.6537400">
        <ele>31.1</ele>
        <time>2021-05-23T13:42:25Z</time>
      </trkpt>
      <trkpt lat="42.7763070" lon="-8.6537330">
        <ele>31.1</ele>
        <time>2021-05-23T13:42:26Z</time>
      </trkpt>
      <trkpt lat="42.7763200" lon="-8.6537340">
        <ele>31.0</ele>
        <time>2021-05-23T13:42:27Z</time>
      </trkpt>
      <trkpt lat="42.7763360" lon="-8.6537310">
        <ele>31.0</ele>
        <time>2021-05-23T13:42:28Z</time>
      </trkpt>
      <trkpt lat="42.7763430" lon="-8.6537290">
        <ele>31.0</ele>
        <time>2021-05-23T13:42:29Z</time>
      </trkpt>
      <trkpt lat="42.7763440" lon="-8.6537240">
        <ele>31.0</ele>
        <time>2021-05-23T13:42:30Z</time>
      </trkpt>
      <trkpt lat="42.7763500" lon="-8.6537200">
        <ele>31.0</ele>
        <time>2021-05-23T13:42:31Z</time>
      </trkpt>
      <trkpt lat="42.7763620" lon="-8.6537190">
        <ele>31.0</ele>
        <time>2021-05-23T13:42:32Z</time>
      </trkpt>
      <trkpt lat="42.7763800" lon="-8.6537110">
        <ele>30.9</ele>
        <time>2021-05-23T13:42:33Z</time>
      </trkpt>
      <trkpt lat="42.7763970" lon="-8.6537110">
        <ele>30.9</ele>
        <time>2021-05-23T13:42:34Z</time>
      </trkpt>
      <trkpt lat="42.7764160" lon="-8.6537030">
        <ele>30.9</ele>
        <time>2021-05-23T13:42:35Z</time>
      </trkpt>
      <trkpt lat="42.7764240" lon="-8.6536980">
        <ele>30.8</ele>
        <time>2021-05-23T13:42:36Z</time>
      </trkpt>
      <trkpt lat="42.7764320" lon="-8.6536940">
        <ele>30.8</ele>
        <time>2021-05-23T13:42:37Z</time>
      </trkpt>
      <trkpt lat="42.7764490" lon="-8.6536840">
        <ele>30.8</ele>
        <time>2021-05-23T13:42:38Z</time>
      </trkpt>
      <trkpt lat="42.7764590" lon="-8.6536770">
        <ele>30.7</ele>
        <time>2021-05-23T13:42:39Z</time>
      </trkpt>
      <trkpt lat="42.7764810" lon="-8.6536720">
        <ele>30.7</ele>
        <time>2021-05-23T13:42:40Z</time>
      </trkpt>
      <trkpt lat="42.7764910" lon="-8.6536680">
        <ele>30.7</ele>
        <time>2021-05-23T13:42:41Z</time>
      </trkpt>
      <trkpt lat="42.7765020" lon="-8.6536630">
        <ele>30.6</ele>
        <time>2021-05-23T13:42:42Z</time>
      </trkpt>
      <trkpt lat="42.7765210" lon="-8.6536630">
        <ele>30.6</ele>
        <time>2021-05-23T13:42:43Z</time>
      </trkpt>
      <trkpt lat="42.7765340" lon="-8.6536620">
        <ele>30.5</ele>
        <time>2021-05-23T13:42:44Z</time>
      </trkpt>
      <trkpt lat="42.7765460" lon="-8.6536540">
        <ele>30.5</ele>
        <time>2021-05-23T13:42:45Z</time>
      </trkpt>
      <trkpt lat="42.7765530" lon="-8.6536500">
        <ele>30.4</ele>
        <time>2021-05-23T13:42:46Z</time>
      </trkpt>
      <trkpt lat="42.7765600" lon="-8.6536450">
        <ele>30.4</ele>
        <time>2021-05-23T13:42:47Z</time>
      </trkpt>
      <trkpt lat="42.7765670" lon="-8.6536400">
        <ele>30.4</ele>
        <time>2021-05-23T13:42:48Z</time>
      </trkpt>
      <trkpt lat="42.7765840" lon="-8.6536360">
        <ele>30.3</ele>
        <time>2021-05-23T13:42:49Z</time>
      </trkpt>
      <trkpt lat="42.7765970" lon="-8.6536260">
        <ele>30.2</ele>
        <time>2021-05-23T13:42:50Z</time>
      </trkpt>
      <trkpt lat="42.7766070" lon="-8.6536260">
        <ele>30.2</ele>
        <time>2021-05-23T13:42:51Z</time>
      </trkpt>
      <trkpt lat="42.7766210" lon="-8.6536210">
        <ele>30.1</ele>
        <time>2021-05-23T13:42:52Z</time>
      </trkpt>
      <trkpt lat="42.7766310" lon="-8.6536140">
        <ele>30.1</ele>
        <time>2021-05-23T13:42:53Z</time>
      </trkpt>
      <trkpt lat="42.7766430" lon="-8.6536080">
        <ele>30.0</ele>
        <time>2021-05-23T13:42:54Z</time>
      </trkpt>
      <trkpt lat="42.7766460" lon="-8.6536060">
        <ele>30.0</ele>
        <time>2021-05-23T13:42:55Z</time>
      </trkpt>
      <trkpt lat="42.7766630" lon="-8.6536030">
        <ele>29.9</ele>
        <time>2021-05-23T13:42:56Z</time>
      </trkpt>
      <trkpt lat="42.7766700" lon="-8.6536050">
        <ele>29.8</ele>
        <time>2021-05-23T13:42:57Z</time>
      </trkpt>
      <trkpt lat="42.7766780" lon="-8.6536020">
        <ele>29.8</ele>
        <time>2021-05-23T13:42:58Z</time>
      </trkpt>
      <trkpt lat="42.7766940" lon="-8.6535950">
        <ele>29.7</ele>
        <time>2021-05-23T13:42:59Z</time>
      </trkpt>
      <trkpt lat="42.7767030" lon="-8.6536000">
        <ele>29.6</ele>
        <time>2021-05-23T13:43:00Z</time>
      </trkpt>
      <trkpt lat="42.7767130" lon="-8.6535980">
        <ele>29.6</ele>
        <time>2021-05-23T13:43:01Z</time>
      </trkpt>
      <trkpt lat="42.7767220" lon="-8.6536030">
        <ele>29.5</ele>
        <time>2021-05-23T13:43:02Z</time>
      </trkpt>
      <trkpt lat="42.7767340" lon="-8.6536010">
        <ele>29.4</ele>
        <time>2021-05-23T13:43:03Z</time>
      </trkpt>
      <trkpt lat="42.7767470" lon="-8.6536010">
        <ele>29.3</ele>
        <time>2021-05-23T13:43:04Z</time>
      </trkpt>
      <trkpt lat="42.7767590" lon="-8.6536020">
        <ele>29.3</ele>
        <time>2021-05-23T13:43:05Z</time>
      </trkpt>
      <trkpt lat="42.7767900" lon="-8.6536040">
        <ele>29.1</ele>
        <time>2021-05-23T13:43:06Z</time>
      </trkpt>
      <trkpt lat="42.7767980" lon="-8.6536070">
        <ele>29.0</ele>
        <time>2021-05-23T13:43:07Z</time>
      </trkpt>
      <trkpt lat="42.7768100" lon="-8.6536080">
        <ele>28.9</ele>
        <time>2021-05-23T13:43:08Z</time>
      </trkpt>
      <trkpt lat="42.7768200" lon="-8.6536140">
        <ele>28.9</ele>
        <time>2021-05-23T13:43:09Z</time>
      </trkpt>
      <trkpt lat="42.7768300" lon="-8.6536160">
        <ele>28.8</ele>
        <time>2021-05-23T13:43:10Z</time>
      </trkpt>
      <trkpt lat="42.7768400" lon="-8.6536180">
        <ele>28.7</ele>
        <time>2021-05-23T13:43:11Z</time>
      </trkpt>
      <trkpt lat="42.7768540" lon="-8.6536250">
        <ele>28.6</ele>
        <time>2021-05-23T13:43:12Z</time>
      </trkpt>
      <trkpt lat="42.7768620" lon="-8.6536290">
        <ele>28.6</ele>
        <time>2021-05-23T13:43:13Z</time>
      </trkpt>
      <trkpt lat="42.7768770" lon="-8.6536350">
        <ele>28.5</ele>
        <time>2021-05-23T13:43:14Z</time>
      </trkpt>
      <trkpt lat="42.7768920" lon="-8.6536410">
        <ele>28.4</ele>
        <time>2021-05-23T13:43:15Z</time>
      </trkpt>
      <trkpt lat="42.7769070" lon="-8.6536480">
        <ele>28.3</ele>
        <time>2021-05-23T13:43:16Z</time>
      </trkpt>
      <trkpt lat="42.7769210" lon="-8.6536500">
        <ele>28.2</ele>
        <time>2021-05-23T13:43:17Z</time>
      </trkpt>
      <trkpt lat="42.7769390" lon="-8.6536640">
        <ele>28.1</ele>
        <time>2021-05-23T13:43:18Z</time>
      </trkpt>
      <trkpt lat="42.7769500" lon="-8.6536690">
        <ele>28.1</ele>
        <time>2021-05-23T13:43:19Z</time>
      </trkpt>
      <trkpt lat="42.7769600" lon="-8.6536730">
        <ele>28.0</ele>
        <time>2021-05-23T13:43:20Z</time>
      </trkpt>
      <trkpt lat="42.7769720" lon="-8.6536730">
        <ele>27.9</ele>
        <time>2021-05-23T13:43:21Z</time>
      </trkpt>
      <trkpt lat="42.7769900" lon="-8.6536780">
        <ele>27.9</ele>
        <time>2021-05-23T13:43:22Z</time>
      </trkpt>
      <trkpt lat="42.7770010" lon="-8.6536800">
        <ele>27.8</ele>
        <time>2021-05-23T13:43:23Z</time>
      </trkpt>
      <trkpt lat="42.7770190" lon="-8.6536740">
        <ele>27.7</ele>
        <time>2021-05-23T13:43:24Z</time>
      </trkpt>
      <trkpt lat="42.7770360" lon="-8.6536830">
        <ele>27.6</ele>
        <time>2021-05-23T13:43:25Z</time>
      </trkpt>
      <trkpt lat="42.7770520" lon="-8.6536830">
        <ele>27.5</ele>
        <time>2021-05-23T13:43:26Z</time>
      </trkpt>
      <trkpt lat="42.7770730" lon="-8.6536890">
        <ele>27.4</ele>
        <time>2021-05-23T13:43:27Z</time>
      </trkpt>
      <trkpt lat="42.7770820" lon="-8.6537010">
        <ele>27.4</ele>
        <time>2021-05-23T13:43:28Z</time>
      </trkpt>
      <trkpt lat="42.7771010" lon="-8.6537080">
        <ele>27.3</ele>
        <time>2021-05-23T13:43:29Z</time>
      </trkpt>
      <trkpt lat="42.7771100" lon="-8.6537120">
        <ele>27.2</ele>
        <time>2021-05-23T13:43:30Z</time>
      </trkpt>
      <trkpt lat="42.7771200" lon="-8.6537170">
        <ele>27.2</ele>
        <time>2021-05-23T13:43:31Z</time>
      </trkpt>
      <trkpt lat="42.7771360" lon="-8.6537210">
        <ele>27.1</ele>
        <time>2021-05-23T13:43:32Z</time>
      </trkpt>
      <trkpt lat="42.7771530" lon="-8.6537270">
        <ele>27.0</ele>
        <time>2021-05-23T13:43:33Z</time>
      </trkpt>
      <trkpt lat="42.7771660" lon="-8.6537400">
        <ele>27.0</ele>
        <time>2021-05-23T13:43:34Z</time>
      </trkpt>
      <trkpt lat="42.7771790" lon="-8.6537510">
        <ele>26.9</ele>
        <time>2021-05-23T13:43:35Z</time>
      </trkpt>
      <trkpt lat="42.7772040" lon="-8.6537720">
        <ele>26.8</ele>
        <time>2021-05-23T13:43:36Z</time>
      </trkpt>
      <trkpt lat="42.7772120" lon="-8.6537780">
        <ele>26.5</ele>
        <time>2021-05-23T13:43:37Z</time>
      </trkpt>
      <trkpt lat="42.7772280" lon="-8.6537990">
        <ele>26.4</ele>
        <time>2021-05-23T13:43:38Z</time>
      </trkpt>
      <trkpt lat="42.7772340" lon="-8.6538070">
        <ele>26.4</ele>
        <time>2021-05-23T13:43:39Z</time>
      </trkpt>
      <trkpt lat="42.7772390" lon="-8.6538150">
        <ele>26.3</ele>
        <time>2021-05-23T13:43:40Z</time>
      </trkpt>
      <trkpt lat="42.7772560" lon="-8.6538270">
        <ele>26.3</ele>
        <time>2021-05-23T13:43:41Z</time>
      </trkpt>
      <trkpt lat="42.7772680" lon="-8.6538380">
        <ele>26.2</ele>
        <time>2021-05-23T13:43:42Z</time>
      </trkpt>
      <trkpt lat="42.7772840" lon="-8.6538590">
        <ele>26.1</ele>
        <time>2021-05-23T13:43:43Z</time>
      </trkpt>
      <trkpt lat="42.7772880" lon="-8.6538690">
        <ele>26.1</ele>
        <time>2021-05-23T13:43:44Z</time>
      </trkpt>
      <trkpt lat="42.7772930" lon="-8.6538790">
        <ele>26.1</ele>
        <time>2021-05-23T13:43:45Z</time>
      </trkpt>
      <trkpt lat="42.7773030" lon="-8.6538830">
        <ele>26.0</ele>
        <time>2021-05-23T13:43:46Z</time>
      </trkpt>
      <trkpt lat="42.7773110" lon="-8.6539070">
        <ele>26.0</ele>
        <time>2021-05-23T13:43:47Z</time>
      </trkpt>
      <trkpt lat="42.7773150" lon="-8.6539170">
        <ele>25.9</ele>
        <time>2021-05-23T13:43:48Z</time>
      </trkpt>
      <trkpt lat="42.7773190" lon="-8.6539300">
        <ele>25.9</ele>
        <time>2021-05-23T13:43:49Z</time>
      </trkpt>
      <trkpt lat="42.7773300" lon="-8.6539420">
        <ele>25.9</ele>
        <time>2021-05-23T13:43:50Z</time>
      </trkpt>
      <trkpt lat="42.7773430" lon="-8.6539460">
        <ele>25.8</ele>
        <time>2021-05-23T13:43:51Z</time>
      </trkpt>
      <trkpt lat="42.7773570" lon="-8.6539640">
        <ele>25.8</ele>
        <time>2021-05-23T13:43:52Z</time>
      </trkpt>
      <trkpt lat="42.7773670" lon="-8.6539650">
        <ele>25.7</ele>
        <time>2021-05-23T13:43:53Z</time>
      </trkpt>
      <trkpt lat="42.7773750" lon="-8.6539710">
        <ele>25.7</ele>
        <time>2021-05-23T13:43:54Z</time>
      </trkpt>
      <trkpt lat="42.7773820" lon="-8.6539780">
        <ele>25.7</ele>
        <time>2021-05-23T13:43:55Z</time>
      </trkpt>
      <trkpt lat="42.7773970" lon="-8.6539700">
        <ele>25.7</ele>
        <time>2021-05-23T13:43:56Z</time>
      </trkpt>
      <trkpt lat="42.7774060" lon="-8.6539650">
        <ele>25.6</ele>
        <time>2021-05-23T13:43:57Z</time>
      </trkpt>
      <trkpt lat="42.7774160" lon="-8.6539600">
        <ele>25.6</ele>
        <time>2021-05-23T13:43:58Z</time>
      </trkpt>
      <trkpt lat="42.7774300" lon="-8.6539480">
        <ele>25.6</ele>
        <time>2021-05-23T13:43:59Z</time>
      </trkpt>
      <trkpt lat="42.7774360" lon="-8.6539350">
        <ele>25.6</ele>
        <time>2021-05-23T13:44:00Z</time>
      </trkpt>
      <trkpt lat="42.7774460" lon="-8.6539090">
        <ele>25.6</ele>
        <time>2021-05-23T13:44:01Z</time>
      </trkpt>
      <trkpt lat="42.7774530" lon="-8.6539010">
        <ele>25.6</ele>
        <time>2021-05-23T13:44:02Z</time>
      </trkpt>
      <trkpt lat="42.7774610" lon="-8.6538930">
        <ele>25.6</ele>
        <time>2021-05-23T13:44:03Z</time>
      </trkpt>
      <trkpt lat="42.7774750" lon="-8.6538770">
        <ele>25.6</ele>
        <time>2021-05-23T13:44:04Z</time>
      </trkpt>
      <trkpt lat="42.7774830" lon="-8.6538680">
        <ele>25.6</ele>
        <time>2021-05-23T13:44:05Z</time>
      </trkpt>
      <trkpt lat="42.7775030" lon="-8.6538450">
        <ele>25.6</ele>
        <time>2021-05-23T13:44:06Z</time>
      </trkpt>
      <trkpt lat="42.7775110" lon="-8.6538350">
        <ele>25.6</ele>
        <time>2021-05-23T13:44:07Z</time>
      </trkpt>
      <trkpt lat="42.7775210" lon="-8.6538180">
        <ele>25.6</ele>
        <time>2021-05-23T13:44:08Z</time>
      </trkpt>
      <trkpt lat="42.7775350" lon="-8.6538070">
        <ele>25.6</ele>
        <time>2021-05-23T13:44:09Z</time>
      </trkpt>
      <trkpt lat="42.7775490" lon="-8.6537990">
        <ele>25.6</ele>
        <time>2021-05-23T13:44:10Z</time>
      </trkpt>
      <trkpt lat="42.7775540" lon="-8.6537900">
        <ele>25.6</ele>
        <time>2021-05-23T13:44:11Z</time>
      </trkpt>
      <trkpt lat="42.7775570" lon="-8.6537800">
        <ele>25.6</ele>
        <time>2021-05-23T13:44:12Z</time>
      </trkpt>
      <trkpt lat="42.7775710" lon="-8.6537760">
        <ele>25.6</ele>
        <time>2021-05-23T13:44:13Z</time>
      </trkpt>
      <trkpt lat="42.7775780" lon="-8.6537720">
        <ele>25.6</ele>
        <time>2021-05-23T13:44:14Z</time>
      </trkpt>
      <trkpt lat="42.7775860" lon="-8.6537670">
        <ele>25.6</ele>
        <time>2021-05-23T13:44:15Z</time>
      </trkpt>
      <trkpt lat="42.7775930" lon="-8.6537630">
        <ele>25.6</ele>
        <time>2021-05-23T13:44:16Z</time>
      </trkpt>
      <trkpt lat="42.7776010" lon="-8.6537560">
        <ele>25.6</ele>
        <time>2021-05-23T13:44:17Z</time>
      </trkpt>
      <trkpt lat="42.7776130" lon="-8.6537440">
        <ele>25.6</ele>
        <time>2021-05-23T13:44:18Z</time>
      </trkpt>
      <trkpt lat="42.7776220" lon="-8.6537340">
        <ele>25.6</ele>
        <time>2021-05-23T13:44:19Z</time>
      </trkpt>
      <trkpt lat="42.7776400" lon="-8.6537150">
        <ele>25.6</ele>
        <time>2021-05-23T13:44:20Z</time>
      </trkpt>
      <trkpt lat="42.7776460" lon="-8.6537090">
        <ele>25.6</ele>
        <time>2021-05-23T13:44:21Z</time>
      </trkpt>
      <trkpt lat="42.7776530" lon="-8.6537040">
        <ele>25.6</ele>
        <time>2021-05-23T13:44:22Z</time>
      </trkpt>
      <trkpt lat="42.7776620" lon="-8.6537010">
        <ele>25.6</ele>
        <time>2021-05-23T13:44:23Z</time>
      </trkpt>
      <trkpt lat="42.7776720" lon="-8.6537010">
        <ele>25.6</ele>
        <time>2021-05-23T13:44:24Z</time>
      </trkpt>
      <trkpt lat="42.7776800" lon="-8.6537020">
        <ele>25.6</ele>
        <time>2021-05-23T13:44:25Z</time>
      </trkpt>
      <trkpt lat="42.7776950" lon="-8.6536940">
        <ele>25.6</ele>
        <time>2021-05-23T13:44:26Z</time>
      </trkpt>
      <trkpt lat="42.7777110" lon="-8.6536800">
        <ele>25.7</ele>
        <time>2021-05-23T13:44:27Z</time>
      </trkpt>
      <trkpt lat="42.7777260" lon="-8.6536800">
        <ele>25.7</ele>
        <time>2021-05-23T13:44:28Z</time>
      </trkpt>
      <trkpt lat="42.7777320" lon="-8.6536790">
        <ele>25.7</ele>
        <time>2021-05-23T13:44:29Z</time>
      </trkpt>
      <trkpt lat="42.7777260" lon="-8.6536860">
        <ele>25.7</ele>
        <time>2021-05-23T13:44:30Z</time>
      </trkpt>
      <trkpt lat="42.7777290" lon="-8.6536870">
        <ele>25.7</ele>
        <time>2021-05-23T13:44:31Z</time>
      </trkpt>
      <trkpt lat="42.7777440" lon="-8.6536670">
        <ele>25.7</ele>
        <time>2021-05-23T13:44:32Z</time>
      </trkpt>
      <trkpt lat="42.7777700" lon="-8.6536360">
        <ele>25.7</ele>
        <time>2021-05-23T13:44:33Z</time>
      </trkpt>
      <trkpt lat="42.7777790" lon="-8.6536310">
        <ele>25.7</ele>
        <time>2021-05-23T13:44:34Z</time>
      </trkpt>
      <trkpt lat="42.7777970" lon="-8.6536020">
        <ele>25.7</ele>
        <time>2021-05-23T13:44:35Z</time>
      </trkpt>
      <trkpt lat="42.7778020" lon="-8.6535890">
        <ele>25.7</ele>
        <time>2021-05-23T13:44:36Z</time>
      </trkpt>
      <trkpt lat="42.7778040" lon="-8.6535670">
        <ele>25.7</ele>
        <time>2021-05-23T13:44:37Z</time>
      </trkpt>
      <trkpt lat="42.7778160" lon="-8.6535480">
        <ele>25.7</ele>
        <time>2021-05-23T13:44:38Z</time>
      </trkpt>
      <trkpt lat="42.7778260" lon="-8.6535380">
        <ele>25.7</ele>
        <time>2021-05-23T13:44:39Z</time>
      </trkpt>
      <trkpt lat="42.7778400" lon="-8.6535300">
        <ele>25.7</ele>
        <time>2021-05-23T13:44:40Z</time>
      </trkpt>
      <trkpt lat="42.7778550" lon="-8.6535250">
        <ele>25.7</ele>
        <time>2021-05-23T13:44:41Z</time>
      </trkpt>
      <trkpt lat="42.7778670" lon="-8.6535180">
        <ele>25.7</ele>
        <time>2021-05-23T13:44:42Z</time>
      </trkpt>
      <trkpt lat="42.7778790" lon="-8.6535140">
        <ele>25.7</ele>
        <time>2021-05-23T13:44:43Z</time>
      </trkpt>
      <trkpt lat="42.7778900" lon="-8.6535110">
        <ele>25.7</ele>
        <time>2021-05-23T13:44:44Z</time>
      </trkpt>
      <trkpt lat="42.7778990" lon="-8.6535100">
        <ele>25.7</ele>
        <time>2021-05-23T13:44:45Z</time>
      </trkpt>
      <trkpt lat="42.7779130" lon="-8.6535010">
        <ele>25.7</ele>
        <time>2021-05-23T13:44:46Z</time>
      </trkpt>
      <trkpt lat="42.7779240" lon="-8.6534970">
        <ele>25.6</ele>
        <time>2021-05-23T13:44:47Z</time>
      </trkpt>
      <trkpt lat="42.7779340" lon="-8.6534920">
        <ele>25.6</ele>
        <time>2021-05-23T13:44:48Z</time>
      </trkpt>
      <trkpt lat="42.7779560" lon="-8.6534860">
        <ele>25.6</ele>
        <time>2021-05-23T13:44:49Z</time>
      </trkpt>
      <trkpt lat="42.7779640" lon="-8.6534840">
        <ele>25.6</ele>
        <time>2021-05-23T13:44:50Z</time>
      </trkpt>
      <trkpt lat="42.7779720" lon="-8.6534810">
        <ele>25.6</ele>
        <time>2021-05-23T13:44:51Z</time>
      </trkpt>
      <trkpt lat="42.7779960" lon="-8.6534690">
        <ele>25.5</ele>
        <time>2021-05-23T13:44:52Z</time>
      </trkpt>
      <trkpt lat="42.7780060" lon="-8.6534710">
        <ele>25.5</ele>
        <time>2021-05-23T13:44:53Z</time>
      </trkpt>
      <trkpt lat="42.7780190" lon="-8.6534540">
        <ele>25.5</ele>
        <time>2021-05-23T13:44:54Z</time>
      </trkpt>
      <trkpt lat="42.7780340" lon="-8.6534490">
        <ele>25.4</ele>
        <time>2021-05-23T13:44:55Z</time>
      </trkpt>
      <trkpt lat="42.7780400" lon="-8.6534450">
        <ele>25.4</ele>
        <time>2021-05-23T13:44:56Z</time>
      </trkpt>
      <trkpt lat="42.7780500" lon="-8.6534330">
        <ele>25.4</ele>
        <time>2021-05-23T13:44:57Z</time>
      </trkpt>
      <trkpt lat="42.7780590" lon="-8.6534300">
        <ele>25.3</ele>
        <time>2021-05-23T13:44:58Z</time>
      </trkpt>
      <trkpt lat="42.7780930" lon="-8.6534310">
        <ele>25.2</ele>
        <time>2021-05-23T13:44:59Z</time>
      </trkpt>
      <trkpt lat="42.7781030" lon="-8.6534330">
        <ele>25.2</ele>
        <time>2021-05-23T13:45:00Z</time>
      </trkpt>
      <trkpt lat="42.7781160" lon="-8.6534320">
        <ele>25.2</ele>
        <time>2021-05-23T13:45:01Z</time>
      </trkpt>
      <trkpt lat="42.7781340" lon="-8.6534330">
        <ele>25.1</ele>
        <time>2021-05-23T13:45:02Z</time>
      </trkpt>
      <trkpt lat="42.7781480" lon="-8.6534390">
        <ele>25.1</ele>
        <time>2021-05-23T13:45:03Z</time>
      </trkpt>
      <trkpt lat="42.7781620" lon="-8.6534440">
        <ele>25.0</ele>
        <time>2021-05-23T13:45:04Z</time>
      </trkpt>
      <trkpt lat="42.7781870" lon="-8.6534490">
        <ele>25.0</ele>
        <time>2021-05-23T13:45:05Z</time>
      </trkpt>
      <trkpt lat="42.7781980" lon="-8.6534530">
        <ele>24.9</ele>
        <time>2021-05-23T13:45:06Z</time>
      </trkpt>
      <trkpt lat="42.7782140" lon="-8.6534540">
        <ele>24.9</ele>
        <time>2021-05-23T13:45:07Z</time>
      </trkpt>
      <trkpt lat="42.7782300" lon="-8.6534590">
        <ele>24.8</ele>
        <time>2021-05-23T13:45:08Z</time>
      </trkpt>
      <trkpt lat="42.7782430" lon="-8.6534670">
        <ele>24.8</ele>
        <time>2021-05-23T13:45:09Z</time>
      </trkpt>
      <trkpt lat="42.7782550" lon="-8.6534770">
        <ele>24.8</ele>
        <time>2021-05-23T13:45:10Z</time>
      </trkpt>
      <trkpt lat="42.7782690" lon="-8.6534870">
        <ele>24.8</ele>
        <time>2021-05-23T13:45:11Z</time>
      </trkpt>
      <trkpt lat="42.7782820" lon="-8.6534950">
        <ele>24.7</ele>
        <time>2021-05-23T13:45:12Z</time>
      </trkpt>
      <trkpt lat="42.7782920" lon="-8.6535070">
        <ele>24.7</ele>
        <time>2021-05-23T13:45:13Z</time>
      </trkpt>
      <trkpt lat="42.7783110" lon="-8.6535110">
        <ele>24.7</ele>
        <time>2021-05-23T13:45:14Z</time>
      </trkpt>
      <trkpt lat="42.7783310" lon="-8.6535200">
        <ele>24.7</ele>
        <time>2021-05-23T13:45:15Z</time>
      </trkpt>
      <trkpt lat="42.7783400" lon="-8.6535210">
        <ele>24.7</ele>
        <time>2021-05-23T13:45:16Z</time>
      </trkpt>
      <trkpt lat="42.7783480" lon="-8.6535220">
        <ele>24.7</ele>
        <time>2021-05-23T13:45:17Z</time>
      </trkpt>
      <trkpt lat="42.7783580" lon="-8.6535270">
        <ele>24.7</ele>
        <time>2021-05-23T13:45:18Z</time>
      </trkpt>
      <trkpt lat="42.7783670" lon="-8.6535340">
        <ele>24.6</ele>
        <time>2021-05-23T13:45:19Z</time>
      </trkpt>
      <trkpt lat="42.7783790" lon="-8.6535370">
        <ele>24.6</ele>
        <time>2021-05-23T13:45:20Z</time>
      </trkpt>
      <trkpt lat="42.7783910" lon="-8.6535410">
        <ele>24.6</ele>
        <time>2021-05-23T13:45:21Z</time>
      </trkpt>
      <trkpt lat="42.7784080" lon="-8.6535430">
        <ele>24.6</ele>
        <time>2021-05-23T13:45:22Z</time>
      </trkpt>
      <trkpt lat="42.7784160" lon="-8.6535430">
        <ele>24.7</ele>
        <time>2021-05-23T13:45:23Z</time>
      </trkpt>
      <trkpt lat="42.7784290" lon="-8.6535440">
        <ele>24.7</ele>
        <time>2021-05-23T13:45:24Z</time>
      </trkpt>
      <trkpt lat="42.7784380" lon="-8.6535390">
        <ele>24.7</ele>
        <time>2021-05-23T13:45:25Z</time>
      </trkpt>
      <trkpt lat="42.7784520" lon="-8.6535370">
        <ele>24.7</ele>
        <time>2021-05-23T13:45:26Z</time>
      </trkpt>
      <trkpt lat="42.7784660" lon="-8.6535360">
        <ele>24.7</ele>
        <time>2021-05-23T13:45:27Z</time>
      </trkpt>
      <trkpt lat="42.7784800" lon="-8.6535430">
        <ele>24.7</ele>
        <time>2021-05-23T13:45:28Z</time>
      </trkpt>
      <trkpt lat="42.7784950" lon="-8.6535410">
        <ele>24.8</ele>
        <time>2021-05-23T13:45:29Z</time>
      </trkpt>
      <trkpt lat="42.7785150" lon="-8.6535470">
        <ele>24.8</ele>
        <time>2021-05-23T13:45:30Z</time>
      </trkpt>
      <trkpt lat="42.7785300" lon="-8.6535470">
        <ele>24.8</ele>
        <time>2021-05-23T13:45:31Z</time>
      </trkpt>
      <trkpt lat="42.7785480" lon="-8.6535460">
        <ele>24.9</ele>
        <time>2021-05-23T13:45:32Z</time>
      </trkpt>
      <trkpt lat="42.7785660" lon="-8.6535480">
        <ele>25.0</ele>
        <time>2021-05-23T13:45:33Z</time>
      </trkpt>
      <trkpt lat="42.7785820" lon="-8.6535450">
        <ele>25.0</ele>
        <time>2021-05-23T13:45:34Z</time>
      </trkpt>
      <trkpt lat="42.7785970" lon="-8.6535290">
        <ele>25.1</ele>
        <time>2021-05-23T13:45:35Z</time>
      </trkpt>
      <trkpt lat="42.7786120" lon="-8.6535220">
        <ele>25.2</ele>
        <time>2021-05-23T13:45:36Z</time>
      </trkpt>
      <trkpt lat="42.7786270" lon="-8.6535200">
        <ele>25.2</ele>
        <time>2021-05-23T13:45:37Z</time>
      </trkpt>
      <trkpt lat="42.7786420" lon="-8.6535170">
        <ele>25.3</ele>
        <time>2021-05-23T13:45:38Z</time>
      </trkpt>
      <trkpt lat="42.7786580" lon="-8.6535100">
        <ele>25.4</ele>
        <time>2021-05-23T13:45:39Z</time>
      </trkpt>
      <trkpt lat="42.7786750" lon="-8.6535120">
        <ele>25.5</ele>
        <time>2021-05-23T13:45:40Z</time>
      </trkpt>
      <trkpt lat="42.7786870" lon="-8.6534990">
        <ele>25.6</ele>
        <time>2021-05-23T13:45:41Z</time>
      </trkpt>
      <trkpt lat="42.7786990" lon="-8.6534850">
        <ele>25.7</ele>
        <time>2021-05-23T13:45:42Z</time>
      </trkpt>
      <trkpt lat="42.7787130" lon="-8.6534770">
        <ele>25.8</ele>
        <time>2021-05-23T13:45:43Z</time>
      </trkpt>
      <trkpt lat="42.7787280" lon="-8.6534770">
        <ele>25.9</ele>
        <time>2021-05-23T13:45:44Z</time>
      </trkpt>
      <trkpt lat="42.7787430" lon="-8.6534750">
        <ele>26.0</ele>
        <time>2021-05-23T13:45:45Z</time>
      </trkpt>
      <trkpt lat="42.7787570" lon="-8.6534720">
        <ele>26.1</ele>
        <time>2021-05-23T13:45:46Z</time>
      </trkpt>
      <trkpt lat="42.7787710" lon="-8.6534740">
        <ele>26.2</ele>
        <time>2021-05-23T13:45:47Z</time>
      </trkpt>
      <trkpt lat="42.7787820" lon="-8.6534660">
        <ele>26.3</ele>
        <time>2021-05-23T13:45:48Z</time>
      </trkpt>
      <trkpt lat="42.7787930" lon="-8.6534590">
        <ele>26.3</ele>
        <time>2021-05-23T13:45:49Z</time>
      </trkpt>
      <trkpt lat="42.7787990" lon="-8.6534530">
        <ele>26.4</ele>
        <time>2021-05-23T13:45:50Z</time>
      </trkpt>
      <trkpt lat="42.7788030" lon="-8.6534500">
        <ele>26.4</ele>
        <time>2021-05-23T13:45:51Z</time>
      </trkpt>
      <trkpt lat="42.7788080" lon="-8.6534440">
        <ele>26.4</ele>
        <time>2021-05-23T13:45:52Z</time>
      </trkpt>
      <trkpt lat="42.7788170" lon="-8.6534360">
        <ele>26.5</ele>
        <time>2021-05-23T13:45:53Z</time>
      </trkpt>
      <trkpt lat="42.7788220" lon="-8.6534250">
        <ele>26.6</ele>
        <time>2021-05-23T13:45:54Z</time>
      </trkpt>
      <trkpt lat="42.7788290" lon="-8.6534170">
        <ele>26.6</ele>
        <time>2021-05-23T13:45:55Z</time>
      </trkpt>
      <trkpt lat="42.7788320" lon="-8.6534100">
        <ele>26.7</ele>
        <time>2021-05-23T13:45:56Z</time>
      </trkpt>
      <trkpt lat="42.7788410" lon="-8.6533940">
        <ele>26.7</ele>
        <time>2021-05-23T13:45:57Z</time>
      </trkpt>
      <trkpt lat="42.7788490" lon="-8.6533810">
        <ele>26.8</ele>
        <time>2021-05-23T13:45:58Z</time>
      </trkpt>
      <trkpt lat="42.7788500" lon="-8.6533700">
        <ele>26.9</ele>
        <time>2021-05-23T13:45:59Z</time>
      </trkpt>
      <trkpt lat="42.7788550" lon="-8.6533640">
        <ele>26.9</ele>
        <time>2021-05-23T13:46:00Z</time>
      </trkpt>
      <trkpt lat="42.7788590" lon="-8.6533560">
        <ele>26.9</ele>
        <time>2021-05-23T13:46:01Z</time>
      </trkpt>
      <trkpt lat="42.7788660" lon="-8.6533410">
        <ele>27.0</ele>
        <time>2021-05-23T13:46:02Z</time>
      </trkpt>
      <trkpt lat="42.7788730" lon="-8.6533300">
        <ele>27.0</ele>
        <time>2021-05-23T13:46:03Z</time>
      </trkpt>
      <trkpt lat="42.7788760" lon="-8.6533230">
        <ele>27.1</ele>
        <time>2021-05-23T13:46:04Z</time>
      </trkpt>
      <trkpt lat="42.7788850" lon="-8.6533090">
        <ele>27.1</ele>
        <time>2021-05-23T13:46:05Z</time>
      </trkpt>
      <trkpt lat="42.7788900" lon="-8.6533000">
        <ele>27.2</ele>
        <time>2021-05-23T13:46:06Z</time>
      </trkpt>
      <trkpt lat="42.7788940" lon="-8.6532910">
        <ele>27.2</ele>
        <time>2021-05-23T13:46:07Z</time>
      </trkpt>
      <trkpt lat="42.7788980" lon="-8.6532820">
        <ele>27.2</ele>
        <time>2021-05-23T13:46:08Z</time>
      </trkpt>
      <trkpt lat="42.7789030" lon="-8.6532710">
        <ele>27.3</ele>
        <time>2021-05-23T13:46:09Z</time>
      </trkpt>
      <trkpt lat="42.7789090" lon="-8.6532520">
        <ele>27.4</ele>
        <time>2021-05-23T13:46:10Z</time>
      </trkpt>
      <trkpt lat="42.7789100" lon="-8.6532380">
        <ele>27.4</ele>
        <time>2021-05-23T13:46:11Z</time>
      </trkpt>
      <trkpt lat="42.7789110" lon="-8.6532240">
        <ele>27.4</ele>
        <time>2021-05-23T13:46:12Z</time>
      </trkpt>
      <trkpt lat="42.7789130" lon="-8.6532130">
        <ele>27.5</ele>
        <time>2021-05-23T13:46:13Z</time>
      </trkpt>
      <trkpt lat="42.7789160" lon="-8.6532010">
        <ele>27.5</ele>
        <time>2021-05-23T13:46:14Z</time>
      </trkpt>
      <trkpt lat="42.7789180" lon="-8.6531900">
        <ele>27.5</ele>
        <time>2021-05-23T13:46:15Z</time>
      </trkpt>
      <trkpt lat="42.7789290" lon="-8.6531820">
        <ele>27.6</ele>
        <time>2021-05-23T13:46:16Z</time>
      </trkpt>
      <trkpt lat="42.7789350" lon="-8.6531690">
        <ele>27.6</ele>
        <time>2021-05-23T13:46:17Z</time>
      </trkpt>
      <trkpt lat="42.7789460" lon="-8.6531580">
        <ele>27.7</ele>
        <time>2021-05-23T13:46:18Z</time>
      </trkpt>
      <trkpt lat="42.7789530" lon="-8.6531460">
        <ele>27.7</ele>
        <time>2021-05-23T13:46:19Z</time>
      </trkpt>
      <trkpt lat="42.7789590" lon="-8.6531370">
        <ele>27.7</ele>
        <time>2021-05-23T13:46:20Z</time>
      </trkpt>
      <trkpt lat="42.7789690" lon="-8.6531220">
        <ele>27.8</ele>
        <time>2021-05-23T13:46:21Z</time>
      </trkpt>
      <trkpt lat="42.7789760" lon="-8.6531130">
        <ele>27.8</ele>
        <time>2021-05-23T13:46:22Z</time>
      </trkpt>
      <trkpt lat="42.7789930" lon="-8.6530990">
        <ele>27.9</ele>
        <time>2021-05-23T13:46:23Z</time>
      </trkpt>
      <trkpt lat="42.7790030" lon="-8.6530890">
        <ele>27.9</ele>
        <time>2021-05-23T13:46:24Z</time>
      </trkpt>
      <trkpt lat="42.7790160" lon="-8.6530750">
        <ele>28.0</ele>
        <time>2021-05-23T13:46:25Z</time>
      </trkpt>
      <trkpt lat="42.7790290" lon="-8.6530590">
        <ele>28.0</ele>
        <time>2021-05-23T13:46:26Z</time>
      </trkpt>
      <trkpt lat="42.7790390" lon="-8.6530490">
        <ele>28.0</ele>
        <time>2021-05-23T13:46:27Z</time>
      </trkpt>
      <trkpt lat="42.7790440" lon="-8.6530310">
        <ele>28.1</ele>
        <time>2021-05-23T13:46:28Z</time>
      </trkpt>
      <trkpt lat="42.7790580" lon="-8.6530130">
        <ele>28.1</ele>
        <time>2021-05-23T13:46:29Z</time>
      </trkpt>
      <trkpt lat="42.7790760" lon="-8.6530010">
        <ele>28.2</ele>
        <time>2021-05-23T13:46:30Z</time>
      </trkpt>
      <trkpt lat="42.7790850" lon="-8.6529890">
        <ele>28.2</ele>
        <time>2021-05-23T13:46:31Z</time>
      </trkpt>
      <trkpt lat="42.7790960" lon="-8.6529780">
        <ele>28.3</ele>
        <time>2021-05-23T13:46:32Z</time>
      </trkpt>
      <trkpt lat="42.7791170" lon="-8.6529690">
        <ele>28.3</ele>
        <time>2021-05-23T13:46:33Z</time>
      </trkpt>
      <trkpt lat="42.7791330" lon="-8.6529460">
        <ele>28.4</ele>
        <time>2021-05-23T13:46:34Z</time>
      </trkpt>
      <trkpt lat="42.7791400" lon="-8.6529380">
        <ele>28.4</ele>
        <time>2021-05-23T13:46:35Z</time>
      </trkpt>
      <trkpt lat="42.7791460" lon="-8.6529310">
        <ele>28.4</ele>
        <time>2021-05-23T13:46:36Z</time>
      </trkpt>
      <trkpt lat="42.7791490" lon="-8.6529140">
        <ele>28.4</ele>
        <time>2021-05-23T13:46:37Z</time>
      </trkpt>
      <trkpt lat="42.7791580" lon="-8.6528950">
        <ele>28.5</ele>
        <time>2021-05-23T13:46:38Z</time>
      </trkpt>
      <trkpt lat="42.7791720" lon="-8.6528900">
        <ele>28.5</ele>
        <time>2021-05-23T13:46:39Z</time>
      </trkpt>
      <trkpt lat="42.7791860" lon="-8.6528790">
        <ele>28.5</ele>
        <time>2021-05-23T13:46:40Z</time>
      </trkpt>
      <trkpt lat="42.7792020" lon="-8.6528570">
        <ele>28.6</ele>
        <time>2021-05-23T13:46:41Z</time>
      </trkpt>
      <trkpt lat="42.7792090" lon="-8.6528490">
        <ele>28.6</ele>
        <time>2021-05-23T13:46:42Z</time>
      </trkpt>
      <trkpt lat="42.7792170" lon="-8.6528410">
        <ele>28.6</ele>
        <time>2021-05-23T13:46:43Z</time>
      </trkpt>
      <trkpt lat="42.7792190" lon="-8.6528230">
        <ele>28.7</ele>
        <time>2021-05-23T13:46:44Z</time>
      </trkpt>
      <trkpt lat="42.7792250" lon="-8.6528150">
        <ele>28.7</ele>
        <time>2021-05-23T13:46:45Z</time>
      </trkpt>
      <trkpt lat="42.7792310" lon="-8.6528060">
        <ele>28.7</ele>
        <time>2021-05-23T13:46:46Z</time>
      </trkpt>
      <trkpt lat="42.7792370" lon="-8.6527980">
        <ele>28.7</ele>
        <time>2021-05-23T13:46:47Z</time>
      </trkpt>
      <trkpt lat="42.7792570" lon="-8.6527900">
        <ele>28.7</ele>
        <time>2021-05-23T13:46:48Z</time>
      </trkpt>
      <trkpt lat="42.7792680" lon="-8.6527750">
        <ele>28.7</ele>
        <time>2021-05-23T13:46:49Z</time>
      </trkpt>
      <trkpt lat="42.7792890" lon="-8.6527600">
        <ele>28.8</ele>
        <time>2021-05-23T13:46:50Z</time>
      </trkpt>
      <trkpt lat="42.7792970" lon="-8.6527520">
        <ele>28.8</ele>
        <time>2021-05-23T13:46:51Z</time>
      </trkpt>
      <trkpt lat="42.7793060" lon="-8.6527440">
        <ele>28.8</ele>
        <time>2021-05-23T13:46:52Z</time>
      </trkpt>
      <trkpt lat="42.7793310" lon="-8.6527260">
        <ele>28.8</ele>
        <time>2021-05-23T13:46:53Z</time>
      </trkpt>
      <trkpt lat="42.7793380" lon="-8.6527180">
        <ele>28.9</ele>
        <time>2021-05-23T13:46:54Z</time>
      </trkpt>
      <trkpt lat="42.7793500" lon="-8.6527050">
        <ele>28.9</ele>
        <time>2021-05-23T13:46:55Z</time>
      </trkpt>
      <trkpt lat="42.7793670" lon="-8.6526920">
        <ele>28.9</ele>
        <time>2021-05-23T13:46:56Z</time>
      </trkpt>
      <trkpt lat="42.7793810" lon="-8.6526680">
        <ele>28.9</ele>
        <time>2021-05-23T13:46:57Z</time>
      </trkpt>
      <trkpt lat="42.7793870" lon="-8.6526600">
        <ele>28.9</ele>
        <time>2021-05-23T13:46:58Z</time>
      </trkpt>
      <trkpt lat="42.7793920" lon="-8.6526520">
        <ele>29.0</ele>
        <time>2021-05-23T13:46:59Z</time>
      </trkpt>
      <trkpt lat="42.7794030" lon="-8.6526520">
        <ele>29.0</ele>
        <time>2021-05-23T13:47:00Z</time>
      </trkpt>
      <trkpt lat="42.7794120" lon="-8.6526420">
        <ele>29.0</ele>
        <time>2021-05-23T13:47:01Z</time>
      </trkpt>
      <trkpt lat="42.7794200" lon="-8.6526260">
        <ele>29.0</ele>
        <time>2021-05-23T13:47:02Z</time>
      </trkpt>
      <trkpt lat="42.7794290" lon="-8.6526110">
        <ele>29.0</ele>
        <time>2021-05-23T13:47:03Z</time>
      </trkpt>
      <trkpt lat="42.7794260" lon="-8.6525980">
        <ele>29.0</ele>
        <time>2021-05-23T13:47:04Z</time>
      </trkpt>
      <trkpt lat="42.7794320" lon="-8.6525930">
        <ele>29.0</ele>
        <time>2021-05-23T13:47:05Z</time>
      </trkpt>
      <trkpt lat="42.7794380" lon="-8.6525830">
        <ele>29.1</ele>
        <time>2021-05-23T13:47:06Z</time>
      </trkpt>
      <trkpt lat="42.7794470" lon="-8.6525650">
        <ele>29.1</ele>
        <time>2021-05-23T13:47:07Z</time>
      </trkpt>
      <trkpt lat="42.7794570" lon="-8.6525490">
        <ele>29.1</ele>
        <time>2021-05-23T13:47:08Z</time>
      </trkpt>
      <trkpt lat="42.7794680" lon="-8.6525230">
        <ele>29.1</ele>
        <time>2021-05-23T13:47:09Z</time>
      </trkpt>
      <trkpt lat="42.7794730" lon="-8.6525150">
        <ele>29.1</ele>
        <time>2021-05-23T13:47:10Z</time>
      </trkpt>
      <trkpt lat="42.7794790" lon="-8.6525060">
        <ele>29.2</ele>
        <time>2021-05-23T13:47:11Z</time>
      </trkpt>
      <trkpt lat="42.7795040" lon="-8.6524860">
        <ele>29.2</ele>
        <time>2021-05-23T13:47:12Z</time>
      </trkpt>
      <trkpt lat="42.7795120" lon="-8.6524770">
        <ele>29.2</ele>
        <time>2021-05-23T13:47:13Z</time>
      </trkpt>
      <trkpt lat="42.7795230" lon="-8.6524670">
        <ele>29.3</ele>
        <time>2021-05-23T13:47:14Z</time>
      </trkpt>
      <trkpt lat="42.7795350" lon="-8.6524580">
        <ele>29.3</ele>
        <time>2021-05-23T13:47:15Z</time>
      </trkpt>
      <trkpt lat="42.7795430" lon="-8.6524360">
        <ele>29.3</ele>
        <time>2021-05-23T13:47:16Z</time>
      </trkpt>
      <trkpt lat="42.7795490" lon="-8.6524260">
        <ele>29.3</ele>
        <time>2021-05-23T13:47:17Z</time>
      </trkpt>
      <trkpt lat="42.7795550" lon="-8.6524150">
        <ele>29.4</ele>
        <time>2021-05-23T13:47:18Z</time>
      </trkpt>
      <trkpt lat="42.7795690" lon="-8.6524060">
        <ele>29.4</ele>
        <time>2021-05-23T13:47:19Z</time>
      </trkpt>
      <trkpt lat="42.7795790" lon="-8.6523930">
        <ele>29.4</ele>
        <time>2021-05-23T13:47:20Z</time>
      </trkpt>
      <trkpt lat="42.7795960" lon="-8.6523760">
        <ele>29.5</ele>
        <time>2021-05-23T13:47:21Z</time>
      </trkpt>
      <trkpt lat="42.7796030" lon="-8.6523710">
        <ele>29.5</ele>
        <time>2021-05-23T13:47:22Z</time>
      </trkpt>
      <trkpt lat="42.7796100" lon="-8.6523660">
        <ele>29.5</ele>
        <time>2021-05-23T13:47:23Z</time>
      </trkpt>
      <trkpt lat="42.7796250" lon="-8.6523530">
        <ele>29.5</ele>
        <time>2021-05-23T13:47:24Z</time>
      </trkpt>
      <trkpt lat="42.7796420" lon="-8.6523430">
        <ele>29.6</ele>
        <time>2021-05-23T13:47:25Z</time>
      </trkpt>
      <trkpt lat="42.7796510" lon="-8.6523340">
        <ele>29.6</ele>
        <time>2021-05-23T13:47:26Z</time>
      </trkpt>
      <trkpt lat="42.7796600" lon="-8.6523150">
        <ele>29.6</ele>
        <time>2021-05-23T13:47:27Z</time>
      </trkpt>
      <trkpt lat="42.7796630" lon="-8.6522940">
        <ele>29.6</ele>
        <time>2021-05-23T13:47:28Z</time>
      </trkpt>
      <trkpt lat="42.7796690" lon="-8.6522810">
        <ele>29.7</ele>
        <time>2021-05-23T13:47:29Z</time>
      </trkpt>
      <trkpt lat="42.7796710" lon="-8.6522720">
        <ele>29.7</ele>
        <time>2021-05-23T13:47:30Z</time>
      </trkpt>
      <trkpt lat="42.7796780" lon="-8.6522540">
        <ele>29.7</ele>
        <time>2021-05-23T13:47:31Z</time>
      </trkpt>
      <trkpt lat="42.7796870" lon="-8.6522280">
        <ele>29.7</ele>
        <time>2021-05-23T13:47:32Z</time>
      </trkpt>
      <trkpt lat="42.7796930" lon="-8.6522100">
        <ele>29.7</ele>
        <time>2021-05-23T13:47:33Z</time>
      </trkpt>
      <trkpt lat="42.7797020" lon="-8.6521960">
        <ele>29.8</ele>
        <time>2021-05-23T13:47:34Z</time>
      </trkpt>
      <trkpt lat="42.7797100" lon="-8.6521800">
        <ele>29.8</ele>
        <time>2021-05-23T13:47:35Z</time>
      </trkpt>
      <trkpt lat="42.7797160" lon="-8.6521710">
        <ele>29.8</ele>
        <time>2021-05-23T13:47:36Z</time>
      </trkpt>
      <trkpt lat="42.7797260" lon="-8.6521610">
        <ele>29.8</ele>
        <time>2021-05-23T13:47:37Z</time>
      </trkpt>
      <trkpt lat="42.7797340" lon="-8.6521540">
        <ele>29.8</ele>
        <time>2021-05-23T13:47:38Z</time>
      </trkpt>
      <trkpt lat="42.7797480" lon="-8.6521390">
        <ele>29.9</ele>
        <time>2021-05-23T13:47:39Z</time>
      </trkpt>
      <trkpt lat="42.7797610" lon="-8.6521220">
        <ele>29.9</ele>
        <time>2021-05-23T13:47:40Z</time>
      </trkpt>
      <trkpt lat="42.7797740" lon="-8.6521070">
        <ele>29.9</ele>
        <time>2021-05-23T13:47:41Z</time>
      </trkpt>
      <trkpt lat="42.7797850" lon="-8.6520890">
        <ele>29.9</ele>
        <time>2021-05-23T13:47:42Z</time>
      </trkpt>
      <trkpt lat="42.7797980" lon="-8.6520780">
        <ele>30.0</ele>
        <time>2021-05-23T13:47:43Z</time>
      </trkpt>
      <trkpt lat="42.7798090" lon="-8.6520600">
        <ele>30.0</ele>
        <time>2021-05-23T13:47:44Z</time>
      </trkpt>
      <trkpt lat="42.7798230" lon="-8.6520440">
        <ele>30.0</ele>
        <time>2021-05-23T13:47:45Z</time>
      </trkpt>
      <trkpt lat="42.7798380" lon="-8.6520330">
        <ele>30.0</ele>
        <time>2021-05-23T13:47:46Z</time>
      </trkpt>
      <trkpt lat="42.7798510" lon="-8.6520210">
        <ele>30.1</ele>
        <time>2021-05-23T13:47:47Z</time>
      </trkpt>
      <trkpt lat="42.7798660" lon="-8.6520140">
        <ele>30.1</ele>
        <time>2021-05-23T13:47:48Z</time>
      </trkpt>
      <trkpt lat="42.7798810" lon="-8.6520020">
        <ele>30.1</ele>
        <time>2021-05-23T13:47:49Z</time>
      </trkpt>
      <trkpt lat="42.7798960" lon="-8.6519900">
        <ele>30.1</ele>
        <time>2021-05-23T13:47:50Z</time>
      </trkpt>
      <trkpt lat="42.7799090" lon="-8.6519740">
        <ele>30.2</ele>
        <time>2021-05-23T13:47:51Z</time>
      </trkpt>
      <trkpt lat="42.7799230" lon="-8.6519640">
        <ele>30.2</ele>
        <time>2021-05-23T13:47:52Z</time>
      </trkpt>
      <trkpt lat="42.7799390" lon="-8.6519560">
        <ele>30.2</ele>
        <time>2021-05-23T13:47:53Z</time>
      </trkpt>
      <trkpt lat="42.7799530" lon="-8.6519430">
        <ele>30.3</ele>
        <time>2021-05-23T13:47:54Z</time>
      </trkpt>
      <trkpt lat="42.7799640" lon="-8.6519270">
        <ele>30.3</ele>
        <time>2021-05-23T13:47:55Z</time>
      </trkpt>
      <trkpt lat="42.7799740" lon="-8.6519140">
        <ele>30.4</ele>
        <time>2021-05-23T13:47:56Z</time>
      </trkpt>
      <trkpt lat="42.7799810" lon="-8.6519030">
        <ele>30.4</ele>
        <time>2021-05-23T13:47:57Z</time>
      </trkpt>
      <trkpt lat="42.7799900" lon="-8.6518910">
        <ele>30.4</ele>
        <time>2021-05-23T13:47:58Z</time>
      </trkpt>
      <trkpt lat="42.7799970" lon="-8.6518800">
        <ele>30.5</ele>
        <time>2021-05-23T13:47:59Z</time>
      </trkpt>
      <trkpt lat="42.7800060" lon="-8.6518740">
        <ele>30.5</ele>
        <time>2021-05-23T13:48:00Z</time>
      </trkpt>
      <trkpt lat="42.7800110" lon="-8.6518620">
        <ele>30.5</ele>
        <time>2021-05-23T13:48:01Z</time>
      </trkpt>
      <trkpt lat="42.7800130" lon="-8.6518520">
        <ele>30.5</ele>
        <time>2021-05-23T13:48:02Z</time>
      </trkpt>
      <trkpt lat="42.7800190" lon="-8.6518370">
        <ele>30.6</ele>
        <time>2021-05-23T13:48:03Z</time>
      </trkpt>
      <trkpt lat="42.7800250" lon="-8.6518280">
        <ele>30.6</ele>
        <time>2021-05-23T13:48:04Z</time>
      </trkpt>
      <trkpt lat="42.7800260" lon="-8.6518220">
        <ele>30.6</ele>
        <time>2021-05-23T13:48:05Z</time>
      </trkpt>
      <trkpt lat="42.7800330" lon="-8.6518140">
        <ele>30.7</ele>
        <time>2021-05-23T13:48:06Z</time>
      </trkpt>
      <trkpt lat="42.7800380" lon="-8.6518030">
        <ele>30.7</ele>
        <time>2021-05-23T13:48:07Z</time>
      </trkpt>
      <trkpt lat="42.7800390" lon="-8.6518020">
        <ele>30.7</ele>
        <time>2021-05-23T13:48:08Z</time>
      </trkpt>
      <trkpt lat="42.7800390" lon="-8.6517960">
        <ele>30.7</ele>
        <time>2021-05-23T13:48:09Z</time>
      </trkpt>
      <trkpt lat="42.7800370" lon="-8.6517760">
        <ele>30.8</ele>
        <time>2021-05-23T13:48:10Z</time>
      </trkpt>
      <trkpt lat="42.7800450" lon="-8.6517520">
        <ele>30.8</ele>
        <time>2021-05-23T13:48:11Z</time>
      </trkpt>
      <trkpt lat="42.7800470" lon="-8.6517450">
        <ele>30.9</ele>
        <time>2021-05-23T13:48:12Z</time>
      </trkpt>
      <trkpt lat="42.7800470" lon="-8.6517260">
        <ele>30.9</ele>
        <time>2021-05-23T13:48:13Z</time>
      </trkpt>
      <trkpt lat="42.7800460" lon="-8.6517080">
        <ele>31.0</ele>
        <time>2021-05-23T13:48:14Z</time>
      </trkpt>
      <trkpt lat="42.7800430" lon="-8.6516910">
        <ele>31.0</ele>
        <time>2021-05-23T13:48:15Z</time>
      </trkpt>
      <trkpt lat="42.7800420" lon="-8.6516700">
        <ele>31.1</ele>
        <time>2021-05-23T13:48:16Z</time>
      </trkpt>
      <trkpt lat="42.7800430" lon="-8.6516460">
        <ele>31.2</ele>
        <time>2021-05-23T13:48:17Z</time>
      </trkpt>
      <trkpt lat="42.7800460" lon="-8.6516230">
        <ele>31.3</ele>
        <time>2021-05-23T13:48:18Z</time>
      </trkpt>
      <trkpt lat="42.7800490" lon="-8.6516100">
        <ele>31.3</ele>
        <time>2021-05-23T13:48:19Z</time>
      </trkpt>
      <trkpt lat="42.7800480" lon="-8.6515860">
        <ele>31.4</ele>
        <time>2021-05-23T13:48:20Z</time>
      </trkpt>
      <trkpt lat="42.7800430" lon="-8.6515580">
        <ele>31.5</ele>
        <time>2021-05-23T13:48:21Z</time>
      </trkpt>
      <trkpt lat="42.7800440" lon="-8.6515470">
        <ele>31.5</ele>
        <time>2021-05-23T13:48:22Z</time>
      </trkpt>
      <trkpt lat="42.7800440" lon="-8.6515370">
        <ele>31.5</ele>
        <time>2021-05-23T13:48:23Z</time>
      </trkpt>
      <trkpt lat="42.7800550" lon="-8.6514950">
        <ele>31.7</ele>
        <time>2021-05-23T13:48:24Z</time>
      </trkpt>
      <trkpt lat="42.7800560" lon="-8.6514740">
        <ele>31.7</ele>
        <time>2021-05-23T13:48:25Z</time>
      </trkpt>
      <trkpt lat="42.7800630" lon="-8.6514350">
        <ele>31.8</ele>
        <time>2021-05-23T13:48:26Z</time>
      </trkpt>
      <trkpt lat="42.7800660" lon="-8.6514240">
        <ele>31.8</ele>
        <time>2021-05-23T13:48:27Z</time>
      </trkpt>
      <trkpt lat="42.7800680" lon="-8.6514010">
        <ele>31.8</ele>
        <time>2021-05-23T13:48:28Z</time>
      </trkpt>
      <trkpt lat="42.7800710" lon="-8.6513770">
        <ele>31.9</ele>
        <time>2021-05-23T13:48:29Z</time>
      </trkpt>
      <trkpt lat="42.7800760" lon="-8.6513570">
        <ele>31.9</ele>
        <time>2021-05-23T13:48:30Z</time>
      </trkpt>
      <trkpt lat="42.7800810" lon="-8.6513380">
        <ele>31.9</ele>
        <time>2021-05-23T13:48:31Z</time>
      </trkpt>
      <trkpt lat="42.7800890" lon="-8.6513200">
        <ele>31.9</ele>
        <time>2021-05-23T13:48:32Z</time>
      </trkpt>
      <trkpt lat="42.7800980" lon="-8.6513040">
        <ele>31.9</ele>
        <time>2021-05-23T13:48:33Z</time>
      </trkpt>
      <trkpt lat="42.7801070" lon="-8.6512880">
        <ele>32.0</ele>
        <time>2021-05-23T13:48:34Z</time>
      </trkpt>
      <trkpt lat="42.7801100" lon="-8.6512750">
        <ele>32.0</ele>
        <time>2021-05-23T13:48:35Z</time>
      </trkpt>
      <trkpt lat="42.7801140" lon="-8.6512670">
        <ele>32.0</ele>
        <time>2021-05-23T13:48:36Z</time>
      </trkpt>
      <trkpt lat="42.7801210" lon="-8.6512580">
        <ele>32.0</ele>
        <time>2021-05-23T13:48:37Z</time>
      </trkpt>
      <trkpt lat="42.7801290" lon="-8.6512350">
        <ele>32.0</ele>
        <time>2021-05-23T13:48:38Z</time>
      </trkpt>
      <trkpt lat="42.7801340" lon="-8.6512180">
        <ele>32.0</ele>
        <time>2021-05-23T13:48:39Z</time>
      </trkpt>
      <trkpt lat="42.7801450" lon="-8.6512000">
        <ele>32.0</ele>
        <time>2021-05-23T13:48:40Z</time>
      </trkpt>
      <trkpt lat="42.7801550" lon="-8.6511820">
        <ele>32.0</ele>
        <time>2021-05-23T13:48:41Z</time>
      </trkpt>
      <trkpt lat="42.7801560" lon="-8.6511710">
        <ele>32.0</ele>
        <time>2021-05-23T13:48:42Z</time>
      </trkpt>
      <trkpt lat="42.7801570" lon="-8.6511590">
        <ele>32.0</ele>
        <time>2021-05-23T13:48:43Z</time>
      </trkpt>
      <trkpt lat="42.7801580" lon="-8.6511470">
        <ele>32.0</ele>
        <time>2021-05-23T13:48:44Z</time>
      </trkpt>
      <trkpt lat="42.7801660" lon="-8.6511250">
        <ele>32.0</ele>
        <time>2021-05-23T13:48:45Z</time>
      </trkpt>
      <trkpt lat="42.7801700" lon="-8.6511140">
        <ele>32.0</ele>
        <time>2021-05-23T13:48:46Z</time>
      </trkpt>
      <trkpt lat="42.7801750" lon="-8.6511030">
        <ele>32.0</ele>
        <time>2021-05-23T13:48:47Z</time>
      </trkpt>
      <trkpt lat="42.7801850" lon="-8.6510800">
        <ele>32.0</ele>
        <time>2021-05-23T13:48:48Z</time>
      </trkpt>
      <trkpt lat="42.7801970" lon="-8.6510670">
        <ele>32.0</ele>
        <time>2021-05-23T13:48:49Z</time>
      </trkpt>
      <trkpt lat="42.7802140" lon="-8.6510530">
        <ele>32.0</ele>
        <time>2021-05-23T13:48:50Z</time>
      </trkpt>
      <trkpt lat="42.7802240" lon="-8.6510490">
        <ele>32.0</ele>
        <time>2021-05-23T13:48:51Z</time>
      </trkpt>
      <trkpt lat="42.7802340" lon="-8.6510450">
        <ele>32.0</ele>
        <time>2021-05-23T13:48:52Z</time>
      </trkpt>
      <trkpt lat="42.7802500" lon="-8.6510460">
        <ele>31.9</ele>
        <time>2021-05-23T13:48:53Z</time>
      </trkpt>
      <trkpt lat="42.7802610" lon="-8.6510510">
        <ele>31.9</ele>
        <time>2021-05-23T13:48:54Z</time>
      </trkpt>
      <trkpt lat="42.7802730" lon="-8.6510510">
        <ele>31.9</ele>
        <time>2021-05-23T13:48:55Z</time>
      </trkpt>
      <trkpt lat="42.7802910" lon="-8.6510480">
        <ele>31.9</ele>
        <time>2021-05-23T13:48:56Z</time>
      </trkpt>
      <trkpt lat="42.7803250" lon="-8.6510410">
        <ele>31.9</ele>
        <time>2021-05-23T13:48:57Z</time>
      </trkpt>
      <trkpt lat="42.7803320" lon="-8.6510370">
        <ele>31.8</ele>
        <time>2021-05-23T13:48:58Z</time>
      </trkpt>
      <trkpt lat="42.7803470" lon="-8.6510310">
        <ele>31.8</ele>
        <time>2021-05-23T13:48:59Z</time>
      </trkpt>
      <trkpt lat="42.7803610" lon="-8.6510280">
        <ele>31.8</ele>
        <time>2021-05-23T13:49:00Z</time>
      </trkpt>
      <trkpt lat="42.7803760" lon="-8.6510220">
        <ele>31.8</ele>
        <time>2021-05-23T13:49:01Z</time>
      </trkpt>
      <trkpt lat="42.7803930" lon="-8.6510180">
        <ele>31.8</ele>
        <time>2021-05-23T13:49:02Z</time>
      </trkpt>
      <trkpt lat="42.7804090" lon="-8.6510150">
        <ele>31.8</ele>
        <time>2021-05-23T13:49:03Z</time>
      </trkpt>
      <trkpt lat="42.7804250" lon="-8.6510040">
        <ele>31.7</ele>
        <time>2021-05-23T13:49:04Z</time>
      </trkpt>
      <trkpt lat="42.7804430" lon="-8.6510030">
        <ele>31.7</ele>
        <time>2021-05-23T13:49:05Z</time>
      </trkpt>
      <trkpt lat="42.7804580" lon="-8.6510060">
        <ele>31.7</ele>
        <time>2021-05-23T13:49:06Z</time>
      </trkpt>
      <trkpt lat="42.7804720" lon="-8.6510020">
        <ele>31.7</ele>
        <time>2021-05-23T13:49:07Z</time>
      </trkpt>
      <trkpt lat="42.7804870" lon="-8.6510000">
        <ele>31.7</ele>
        <time>2021-05-23T13:49:08Z</time>
      </trkpt>
      <trkpt lat="42.7805020" lon="-8.6509880">
        <ele>31.6</ele>
        <time>2021-05-23T13:49:09Z</time>
      </trkpt>
      <trkpt lat="42.7805160" lon="-8.6509840">
        <ele>31.6</ele>
        <time>2021-05-23T13:49:10Z</time>
      </trkpt>
      <trkpt lat="42.7805320" lon="-8.6509790">
        <ele>31.6</ele>
        <time>2021-05-23T13:49:11Z</time>
      </trkpt>
      <trkpt lat="42.7805480" lon="-8.6509760">
        <ele>31.6</ele>
        <time>2021-05-23T13:49:12Z</time>
      </trkpt>
      <trkpt lat="42.7805630" lon="-8.6509740">
        <ele>31.6</ele>
        <time>2021-05-23T13:49:13Z</time>
      </trkpt>
      <trkpt lat="42.7805780" lon="-8.6509770">
        <ele>31.6</ele>
        <time>2021-05-23T13:49:14Z</time>
      </trkpt>
      <trkpt lat="42.7805930" lon="-8.6509680">
        <ele>31.5</ele>
        <time>2021-05-23T13:49:15Z</time>
      </trkpt>
      <trkpt lat="42.7806060" lon="-8.6509650">
        <ele>31.5</ele>
        <time>2021-05-23T13:49:16Z</time>
      </trkpt>
      <trkpt lat="42.7806210" lon="-8.6509670">
        <ele>31.5</ele>
        <time>2021-05-23T13:49:17Z</time>
      </trkpt>
      <trkpt lat="42.7806310" lon="-8.6509620">
        <ele>31.5</ele>
        <time>2021-05-23T13:49:18Z</time>
      </trkpt>
      <trkpt lat="42.7806380" lon="-8.6509560">
        <ele>31.5</ele>
        <time>2021-05-23T13:49:19Z</time>
      </trkpt>
      <trkpt lat="42.7806460" lon="-8.6509520">
        <ele>31.5</ele>
        <time>2021-05-23T13:49:20Z</time>
      </trkpt>
      <trkpt lat="42.7806530" lon="-8.6509470">
        <ele>31.5</ele>
        <time>2021-05-23T13:49:21Z</time>
      </trkpt>
      <trkpt lat="42.7806550" lon="-8.6509390">
        <ele>31.4</ele>
        <time>2021-05-23T13:49:22Z</time>
      </trkpt>
      <trkpt lat="42.7806610" lon="-8.6509360">
        <ele>31.4</ele>
        <time>2021-05-23T13:49:23Z</time>
      </trkpt>
      <trkpt lat="42.7806630" lon="-8.6509290">
        <ele>31.4</ele>
        <time>2021-05-23T13:49:24Z</time>
      </trkpt>
      <trkpt lat="42.7806630" lon="-8.6509150">
        <ele>31.4</ele>
        <time>2021-05-23T13:49:25Z</time>
      </trkpt>
      <trkpt lat="42.7806690" lon="-8.6508930">
        <ele>31.4</ele>
        <time>2021-05-23T13:49:26Z</time>
      </trkpt>
      <trkpt lat="42.7806730" lon="-8.6508780">
        <ele>31.4</ele>
        <time>2021-05-23T13:49:27Z</time>
      </trkpt>
      <trkpt lat="42.7806790" lon="-8.6508560">
        <ele>31.3</ele>
        <time>2021-05-23T13:49:28Z</time>
      </trkpt>
      <trkpt lat="42.7806870" lon="-8.6508370">
        <ele>31.3</ele>
        <time>2021-05-23T13:49:29Z</time>
      </trkpt>
      <trkpt lat="42.7806910" lon="-8.6508230">
        <ele>31.3</ele>
        <time>2021-05-23T13:49:30Z</time>
      </trkpt>
      <trkpt lat="42.7806980" lon="-8.6508160">
        <ele>31.3</ele>
        <time>2021-05-23T13:49:31Z</time>
      </trkpt>
      <trkpt lat="42.7807130" lon="-8.6508130">
        <ele>31.3</ele>
        <time>2021-05-23T13:49:32Z</time>
      </trkpt>
      <trkpt lat="42.7807230" lon="-8.6508190">
        <ele>31.3</ele>
        <time>2021-05-23T13:49:33Z</time>
      </trkpt>
      <trkpt lat="42.7807450" lon="-8.6508160">
        <ele>31.2</ele>
        <time>2021-05-23T13:49:34Z</time>
      </trkpt>
      <trkpt lat="42.7807540" lon="-8.6508140">
        <ele>31.2</ele>
        <time>2021-05-23T13:49:35Z</time>
      </trkpt>
      <trkpt lat="42.7807620" lon="-8.6508120">
        <ele>31.2</ele>
        <time>2021-05-23T13:49:36Z</time>
      </trkpt>
      <trkpt lat="42.7807770" lon="-8.6508090">
        <ele>31.2</ele>
        <time>2021-05-23T13:49:37Z</time>
      </trkpt>
      <trkpt lat="42.7807920" lon="-8.6508070">
        <ele>31.2</ele>
        <time>2021-05-23T13:49:38Z</time>
      </trkpt>
      <trkpt lat="42.7808110" lon="-8.6508030">
        <ele>31.1</ele>
        <time>2021-05-23T13:49:39Z</time>
      </trkpt>
      <trkpt lat="42.7808240" lon="-8.6508050">
        <ele>31.1</ele>
        <time>2021-05-23T13:49:40Z</time>
      </trkpt>
      <trkpt lat="42.7808410" lon="-8.6508010">
        <ele>31.1</ele>
        <time>2021-05-23T13:49:41Z</time>
      </trkpt>
      <trkpt lat="42.7808580" lon="-8.6508000">
        <ele>31.1</ele>
        <time>2021-05-23T13:49:42Z</time>
      </trkpt>
      <trkpt lat="42.7808740" lon="-8.6507940">
        <ele>31.0</ele>
        <time>2021-05-23T13:49:43Z</time>
      </trkpt>
      <trkpt lat="42.7808910" lon="-8.6507950">
        <ele>31.0</ele>
        <time>2021-05-23T13:49:44Z</time>
      </trkpt>
      <trkpt lat="42.7809060" lon="-8.6507880">
        <ele>31.0</ele>
        <time>2021-05-23T13:49:45Z</time>
      </trkpt>
      <trkpt lat="42.7809240" lon="-8.6507850">
        <ele>31.0</ele>
        <time>2021-05-23T13:49:46Z</time>
      </trkpt>
      <trkpt lat="42.7809410" lon="-8.6507770">
        <ele>30.9</ele>
        <time>2021-05-23T13:49:47Z</time>
      </trkpt>
      <trkpt lat="42.7809560" lon="-8.6507730">
        <ele>30.9</ele>
        <time>2021-05-23T13:49:48Z</time>
      </trkpt>
      <trkpt lat="42.7809720" lon="-8.6507730">
        <ele>30.9</ele>
        <time>2021-05-23T13:49:49Z</time>
      </trkpt>
      <trkpt lat="42.7809860" lon="-8.6507720">
        <ele>30.9</ele>
        <time>2021-05-23T13:49:50Z</time>
      </trkpt>
      <trkpt lat="42.7810000" lon="-8.6507670">
        <ele>30.9</ele>
        <time>2021-05-23T13:49:51Z</time>
      </trkpt>
      <trkpt lat="42.7810150" lon="-8.6507640">
        <ele>30.9</ele>
        <time>2021-05-23T13:49:52Z</time>
      </trkpt>
      <trkpt lat="42.7810310" lon="-8.6507550">
        <ele>30.9</ele>
        <time>2021-05-23T13:49:53Z</time>
      </trkpt>
      <trkpt lat="42.7810460" lon="-8.6507460">
        <ele>30.8</ele>
        <time>2021-05-23T13:49:54Z</time>
      </trkpt>
      <trkpt lat="42.7810620" lon="-8.6507390">
        <ele>30.8</ele>
        <time>2021-05-23T13:49:55Z</time>
      </trkpt>
      <trkpt lat="42.7810770" lon="-8.6507380">
        <ele>30.8</ele>
        <time>2021-05-23T13:49:56Z</time>
      </trkpt>
      <trkpt lat="42.7810910" lon="-8.6507290">
        <ele>30.8</ele>
        <time>2021-05-23T13:49:57Z</time>
      </trkpt>
      <trkpt lat="42.7811060" lon="-8.6507250">
        <ele>30.8</ele>
        <time>2021-05-23T13:49:58Z</time>
      </trkpt>
      <trkpt lat="42.7811180" lon="-8.6507240">
        <ele>30.8</ele>
        <time>2021-05-23T13:49:59Z</time>
      </trkpt>
      <trkpt lat="42.7811330" lon="-8.6507200">
        <ele>30.8</ele>
        <time>2021-05-23T13:50:00Z</time>
      </trkpt>
      <trkpt lat="42.7811470" lon="-8.6507220">
        <ele>30.8</ele>
        <time>2021-05-23T13:50:01Z</time>
      </trkpt>
      <trkpt lat="42.7811640" lon="-8.6507180">
        <ele>30.8</ele>
        <time>2021-05-23T13:50:02Z</time>
      </trkpt>
      <trkpt lat="42.7811790" lon="-8.6507140">
        <ele>30.7</ele>
        <time>2021-05-23T13:50:03Z</time>
      </trkpt>
      <trkpt lat="42.7811960" lon="-8.6507070">
        <ele>30.7</ele>
        <time>2021-05-23T13:50:04Z</time>
      </trkpt>
      <trkpt lat="42.7812120" lon="-8.6507010">
        <ele>30.7</ele>
        <time>2021-05-23T13:50:05Z</time>
      </trkpt>
      <trkpt lat="42.7812270" lon="-8.6507030">
        <ele>30.7</ele>
        <time>2021-05-23T13:50:06Z</time>
      </trkpt>
      <trkpt lat="42.7812470" lon="-8.6507120">
        <ele>30.7</ele>
        <time>2021-05-23T13:50:07Z</time>
      </trkpt>
      <trkpt lat="42.7812610" lon="-8.6507030">
        <ele>30.7</ele>
        <time>2021-05-23T13:50:08Z</time>
      </trkpt>
      <trkpt lat="42.7812770" lon="-8.6507120">
        <ele>30.7</ele>
        <time>2021-05-23T13:50:09Z</time>
      </trkpt>
      <trkpt lat="42.7812930" lon="-8.6507120">
        <ele>30.7</ele>
        <time>2021-05-23T13:50:10Z</time>
      </trkpt>
      <trkpt lat="42.7813070" lon="-8.6507120">
        <ele>30.7</ele>
        <time>2021-05-23T13:50:11Z</time>
      </trkpt>
      <trkpt lat="42.7813210" lon="-8.6507070">
        <ele>30.7</ele>
        <time>2021-05-23T13:50:12Z</time>
      </trkpt>
      <trkpt lat="42.7813350" lon="-8.6507050">
        <ele>30.7</ele>
        <time>2021-05-23T13:50:13Z</time>
      </trkpt>
      <trkpt lat="42.7813500" lon="-8.6506990">
        <ele>30.7</ele>
        <time>2021-05-23T13:50:14Z</time>
      </trkpt>
      <trkpt lat="42.7813640" lon="-8.6506900">
        <ele>30.8</ele>
        <time>2021-05-23T13:50:15Z</time>
      </trkpt>
      <trkpt lat="42.7813770" lon="-8.6506880">
        <ele>30.8</ele>
        <time>2021-05-23T13:50:16Z</time>
      </trkpt>
      <trkpt lat="42.7813910" lon="-8.6506890">
        <ele>30.8</ele>
        <time>2021-05-23T13:50:17Z</time>
      </trkpt>
      <trkpt lat="42.7814060" lon="-8.6506850">
        <ele>30.8</ele>
        <time>2021-05-23T13:50:18Z</time>
      </trkpt>
      <trkpt lat="42.7814180" lon="-8.6506830">
        <ele>30.8</ele>
        <time>2021-05-23T13:50:19Z</time>
      </trkpt>
      <trkpt lat="42.7814320" lon="-8.6506760">
        <ele>30.8</ele>
        <time>2021-05-23T13:50:20Z</time>
      </trkpt>
      <trkpt lat="42.7814450" lon="-8.6506630">
        <ele>30.8</ele>
        <time>2021-05-23T13:50:21Z</time>
      </trkpt>
      <trkpt lat="42.7814590" lon="-8.6506500">
        <ele>30.8</ele>
        <time>2021-05-23T13:50:22Z</time>
      </trkpt>
      <trkpt lat="42.7814740" lon="-8.6506480">
        <ele>30.8</ele>
        <time>2021-05-23T13:50:23Z</time>
      </trkpt>
      <trkpt lat="42.7814880" lon="-8.6506400">
        <ele>30.8</ele>
        <time>2021-05-23T13:50:24Z</time>
      </trkpt>
      <trkpt lat="42.7815090" lon="-8.6506380">
        <ele>30.8</ele>
        <time>2021-05-23T13:50:25Z</time>
      </trkpt>
      <trkpt lat="42.7815180" lon="-8.6506350">
        <ele>30.8</ele>
        <time>2021-05-23T13:50:26Z</time>
      </trkpt>
      <trkpt lat="42.7815260" lon="-8.6506330">
        <ele>30.8</ele>
        <time>2021-05-23T13:50:27Z</time>
      </trkpt>
      <trkpt lat="42.7815390" lon="-8.6506270">
        <ele>30.8</ele>
        <time>2021-05-23T13:50:28Z</time>
      </trkpt>
      <trkpt lat="42.7815530" lon="-8.6506190">
        <ele>30.8</ele>
        <time>2021-05-23T13:50:29Z</time>
      </trkpt>
      <trkpt lat="42.7815670" lon="-8.6506100">
        <ele>30.8</ele>
        <time>2021-05-23T13:50:30Z</time>
      </trkpt>
      <trkpt lat="42.7815810" lon="-8.6506080">
        <ele>30.8</ele>
        <time>2021-05-23T13:50:31Z</time>
      </trkpt>
      <trkpt lat="42.7816020" lon="-8.6505990">
        <ele>30.8</ele>
        <time>2021-05-23T13:50:32Z</time>
      </trkpt>
      <trkpt lat="42.7816110" lon="-8.6505950">
        <ele>30.8</ele>
        <time>2021-05-23T13:50:33Z</time>
      </trkpt>
      <trkpt lat="42.7816210" lon="-8.6505910">
        <ele>30.8</ele>
        <time>2021-05-23T13:50:34Z</time>
      </trkpt>
      <trkpt lat="42.7816360" lon="-8.6505860">
        <ele>30.8</ele>
        <time>2021-05-23T13:50:35Z</time>
      </trkpt>
      <trkpt lat="42.7816530" lon="-8.6505890">
        <ele>30.8</ele>
        <time>2021-05-23T13:50:36Z</time>
      </trkpt>
      <trkpt lat="42.7816680" lon="-8.6505820">
        <ele>30.8</ele>
        <time>2021-05-23T13:50:37Z</time>
      </trkpt>
      <trkpt lat="42.7816820" lon="-8.6505740">
        <ele>30.8</ele>
        <time>2021-05-23T13:50:38Z</time>
      </trkpt>
      <trkpt lat="42.7817030" lon="-8.6505670">
        <ele>30.8</ele>
        <time>2021-05-23T13:50:39Z</time>
      </trkpt>
      <trkpt lat="42.7817120" lon="-8.6505680">
        <ele>30.8</ele>
        <time>2021-05-23T13:50:40Z</time>
      </trkpt>
      <trkpt lat="42.7817210" lon="-8.6505700">
        <ele>30.8</ele>
        <time>2021-05-23T13:50:41Z</time>
      </trkpt>
      <trkpt lat="42.7817340" lon="-8.6505700">
        <ele>30.8</ele>
        <time>2021-05-23T13:50:42Z</time>
      </trkpt>
      <trkpt lat="42.7817480" lon="-8.6505670">
        <ele>30.8</ele>
        <time>2021-05-23T13:50:43Z</time>
      </trkpt>
      <trkpt lat="42.7817610" lon="-8.6505690">
        <ele>30.8</ele>
        <time>2021-05-23T13:50:44Z</time>
      </trkpt>
      <trkpt lat="42.7817770" lon="-8.6505730">
        <ele>30.8</ele>
        <time>2021-05-23T13:50:45Z</time>
      </trkpt>
      <trkpt lat="42.7817920" lon="-8.6505670">
        <ele>30.8</ele>
        <time>2021-05-23T13:50:46Z</time>
      </trkpt>
      <trkpt lat="42.7818080" lon="-8.6505670">
        <ele>30.8</ele>
        <time>2021-05-23T13:50:47Z</time>
      </trkpt>
      <trkpt lat="42.7818240" lon="-8.6505620">
        <ele>30.8</ele>
        <time>2021-05-23T13:50:48Z</time>
      </trkpt>
      <trkpt lat="42.7818370" lon="-8.6505510">
        <ele>30.8</ele>
        <time>2021-05-23T13:50:49Z</time>
      </trkpt>
      <trkpt lat="42.7818580" lon="-8.6505470">
        <ele>30.8</ele>
        <time>2021-05-23T13:50:50Z</time>
      </trkpt>
      <trkpt lat="42.7818670" lon="-8.6505450">
        <ele>30.8</ele>
        <time>2021-05-23T13:50:51Z</time>
      </trkpt>
      <trkpt lat="42.7818750" lon="-8.6505440">
        <ele>30.8</ele>
        <time>2021-05-23T13:50:52Z</time>
      </trkpt>
      <trkpt lat="42.7818960" lon="-8.6505310">
        <ele>30.8</ele>
        <time>2021-05-23T13:50:53Z</time>
      </trkpt>
      <trkpt lat="42.7819040" lon="-8.6505290">
        <ele>30.8</ele>
        <time>2021-05-23T13:50:54Z</time>
      </trkpt>
      <trkpt lat="42.7819130" lon="-8.6505260">
        <ele>30.8</ele>
        <time>2021-05-23T13:50:55Z</time>
      </trkpt>
      <trkpt lat="42.7819260" lon="-8.6505270">
        <ele>30.8</ele>
        <time>2021-05-23T13:50:56Z</time>
      </trkpt>
      <trkpt lat="42.7819410" lon="-8.6505260">
        <ele>30.8</ele>
        <time>2021-05-23T13:50:57Z</time>
      </trkpt>
      <trkpt lat="42.7819540" lon="-8.6505210">
        <ele>30.8</ele>
        <time>2021-05-23T13:50:58Z</time>
      </trkpt>
      <trkpt lat="42.7819720" lon="-8.6505200">
        <ele>30.8</ele>
        <time>2021-05-23T13:50:59Z</time>
      </trkpt>
      <trkpt lat="42.7819850" lon="-8.6505190">
        <ele>30.8</ele>
        <time>2021-05-23T13:51:00Z</time>
      </trkpt>
      <trkpt lat="42.7820000" lon="-8.6505150">
        <ele>30.8</ele>
        <time>2021-05-23T13:51:01Z</time>
      </trkpt>
      <trkpt lat="42.7820120" lon="-8.6505110">
        <ele>30.8</ele>
        <time>2021-05-23T13:51:02Z</time>
      </trkpt>
      <trkpt lat="42.7820240" lon="-8.6505130">
        <ele>30.8</ele>
        <time>2021-05-23T13:51:03Z</time>
      </trkpt>
      <trkpt lat="42.7820320" lon="-8.6505090">
        <ele>30.8</ele>
        <time>2021-05-23T13:51:04Z</time>
      </trkpt>
      <trkpt lat="42.7820390" lon="-8.6505060">
        <ele>30.8</ele>
        <time>2021-05-23T13:51:05Z</time>
      </trkpt>
      <trkpt lat="42.7820460" lon="-8.6505140">
        <ele>30.8</ele>
        <time>2021-05-23T13:51:06Z</time>
      </trkpt>
      <trkpt lat="42.7820550" lon="-8.6505100">
        <ele>30.8</ele>
        <time>2021-05-23T13:51:07Z</time>
      </trkpt>
      <trkpt lat="42.7820650" lon="-8.6505030">
        <ele>30.8</ele>
        <time>2021-05-23T13:51:08Z</time>
      </trkpt>
      <trkpt lat="42.7820780" lon="-8.6505040">
        <ele>30.8</ele>
        <time>2021-05-23T13:51:09Z</time>
      </trkpt>
      <trkpt lat="42.7820860" lon="-8.6505150">
        <ele>30.8</ele>
        <time>2021-05-23T13:51:10Z</time>
      </trkpt>
      <trkpt lat="42.7820730" lon="-8.6505170">
        <ele>30.8</ele>
        <time>2021-05-23T13:51:11Z</time>
      </trkpt>
      <trkpt lat="42.7820660" lon="-8.6505150">
        <ele>30.8</ele>
        <time>2021-05-23T13:51:12Z</time>
      </trkpt>
      <trkpt lat="42.7820560" lon="-8.6505170">
        <ele>30.8</ele>
        <time>2021-05-23T13:51:13Z</time>
      </trkpt>
      <trkpt lat="42.7820510" lon="-8.6505210">
        <ele>30.8</ele>
        <time>2021-05-23T13:51:14Z</time>
      </trkpt>
      <trkpt lat="42.7820440" lon="-8.6505370">
        <ele>30.8</ele>
        <time>2021-05-23T13:51:15Z</time>
      </trkpt>
      <trkpt lat="42.7820630" lon="-8.6505370">
        <ele>30.9</ele>
        <time>2021-05-23T13:51:16Z</time>
      </trkpt>
      <trkpt lat="42.7820680" lon="-8.6505350">
        <ele>30.9</ele>
        <time>2021-05-23T13:51:17Z</time>
      </trkpt>
      <trkpt lat="42.7820730" lon="-8.6505330">
        <ele>30.9</ele>
        <time>2021-05-23T13:51:18Z</time>
      </trkpt>
      <trkpt lat="42.7820780" lon="-8.6505310">
        <ele>30.9</ele>
        <time>2021-05-23T13:51:19Z</time>
      </trkpt>
      <trkpt lat="42.7820830" lon="-8.6505290">
        <ele>30.9</ele>
        <time>2021-05-23T13:51:20Z</time>
      </trkpt>
      <trkpt lat="42.7820990" lon="-8.6505250">
        <ele>30.9</ele>
        <time>2021-05-23T13:51:21Z</time>
      </trkpt>
      <trkpt lat="42.7821140" lon="-8.6505240">
        <ele>30.9</ele>
        <time>2021-05-23T13:51:22Z</time>
      </trkpt>
      <trkpt lat="42.7821340" lon="-8.6505070">
        <ele>30.9</ele>
        <time>2021-05-23T13:51:23Z</time>
      </trkpt>
      <trkpt lat="42.7821440" lon="-8.6505010">
        <ele>30.9</ele>
        <time>2021-05-23T13:51:24Z</time>
      </trkpt>
      <trkpt lat="42.7821530" lon="-8.6504940">
        <ele>30.9</ele>
        <time>2021-05-23T13:51:25Z</time>
      </trkpt>
      <trkpt lat="42.7821710" lon="-8.6504880">
        <ele>30.9</ele>
        <time>2021-05-23T13:51:26Z</time>
      </trkpt>
      <trkpt lat="42.7821870" lon="-8.6504880">
        <ele>30.9</ele>
        <time>2021-05-23T13:51:27Z</time>
      </trkpt>
      <trkpt lat="42.7822030" lon="-8.6504810">
        <ele>30.9</ele>
        <time>2021-05-23T13:51:28Z</time>
      </trkpt>
      <trkpt lat="42.7822130" lon="-8.6504850">
        <ele>30.9</ele>
        <time>2021-05-23T13:51:29Z</time>
      </trkpt>
      <trkpt lat="42.7822170" lon="-8.6504810">
        <ele>30.9</ele>
        <time>2021-05-23T13:51:30Z</time>
      </trkpt>
      <trkpt lat="42.7822320" lon="-8.6504660">
        <ele>30.9</ele>
        <time>2021-05-23T13:51:31Z</time>
      </trkpt>
      <trkpt lat="42.7822400" lon="-8.6504460">
        <ele>30.9</ele>
        <time>2021-05-23T13:51:32Z</time>
      </trkpt>
      <trkpt lat="42.7822630" lon="-8.6504380">
        <ele>30.9</ele>
        <time>2021-05-23T13:51:33Z</time>
      </trkpt>
      <trkpt lat="42.7822690" lon="-8.6504420">
        <ele>30.9</ele>
        <time>2021-05-23T13:51:34Z</time>
      </trkpt>
      <trkpt lat="42.7822790" lon="-8.6504420">
        <ele>30.9</ele>
        <time>2021-05-23T13:51:35Z</time>
      </trkpt>
      <trkpt lat="42.7822970" lon="-8.6504430">
        <ele>31.0</ele>
        <time>2021-05-23T13:51:36Z</time>
      </trkpt>
      <trkpt lat="42.7823190" lon="-8.6504230">
        <ele>31.0</ele>
        <time>2021-05-23T13:51:37Z</time>
      </trkpt>
      <trkpt lat="42.7823270" lon="-8.6504140">
        <ele>31.0</ele>
        <time>2021-05-23T13:51:38Z</time>
      </trkpt>
      <trkpt lat="42.7823380" lon="-8.6504090">
        <ele>31.0</ele>
        <time>2021-05-23T13:51:39Z</time>
      </trkpt>
      <trkpt lat="42.7823530" lon="-8.6504020">
        <ele>31.0</ele>
        <time>2021-05-23T13:51:40Z</time>
      </trkpt>
      <trkpt lat="42.7823860" lon="-8.6504090">
        <ele>31.0</ele>
        <time>2021-05-23T13:51:41Z</time>
      </trkpt>
      <trkpt lat="42.7823960" lon="-8.6504080">
        <ele>31.0</ele>
        <time>2021-05-23T13:51:42Z</time>
      </trkpt>
      <trkpt lat="42.7824120" lon="-8.6504090">
        <ele>31.0</ele>
        <time>2021-05-23T13:51:43Z</time>
      </trkpt>
      <trkpt lat="42.7824310" lon="-8.6504050">
        <ele>31.1</ele>
        <time>2021-05-23T13:51:44Z</time>
      </trkpt>
      <trkpt lat="42.7824460" lon="-8.6503970">
        <ele>31.1</ele>
        <time>2021-05-23T13:51:45Z</time>
      </trkpt>
      <trkpt lat="42.7824540" lon="-8.6503990">
        <ele>31.1</ele>
        <time>2021-05-23T13:51:46Z</time>
      </trkpt>
      <trkpt lat="42.7824650" lon="-8.6503880">
        <ele>31.1</ele>
        <time>2021-05-23T13:51:47Z</time>
      </trkpt>
      <trkpt lat="42.7824760" lon="-8.6503860">
        <ele>31.1</ele>
        <time>2021-05-23T13:51:48Z</time>
      </trkpt>
      <trkpt lat="42.7824850" lon="-8.6503900">
        <ele>31.1</ele>
        <time>2021-05-23T13:51:49Z</time>
      </trkpt>
      <trkpt lat="42.7824910" lon="-8.6503960">
        <ele>31.1</ele>
        <time>2021-05-23T13:51:50Z</time>
      </trkpt>
      <trkpt lat="42.7825030" lon="-8.6503940">
        <ele>31.1</ele>
        <time>2021-05-23T13:51:51Z</time>
      </trkpt>
      <trkpt lat="42.7825120" lon="-8.6503870">
        <ele>31.1</ele>
        <time>2021-05-23T13:51:52Z</time>
      </trkpt>
      <trkpt lat="42.7825200" lon="-8.6503860">
        <ele>31.1</ele>
        <time>2021-05-23T13:51:53Z</time>
      </trkpt>
      <trkpt lat="42.7825370" lon="-8.6503750">
        <ele>31.2</ele>
        <time>2021-05-23T13:51:54Z</time>
      </trkpt>
      <trkpt lat="42.7825470" lon="-8.6503670">
        <ele>31.2</ele>
        <time>2021-05-23T13:51:55Z</time>
      </trkpt>
      <trkpt lat="42.7825720" lon="-8.6503570">
        <ele>31.2</ele>
        <time>2021-05-23T13:51:56Z</time>
      </trkpt>
      <trkpt lat="42.7825830" lon="-8.6503510">
        <ele>31.2</ele>
        <time>2021-05-23T13:51:57Z</time>
      </trkpt>
      <trkpt lat="42.7825980" lon="-8.6503440">
        <ele>31.2</ele>
        <time>2021-05-23T13:51:58Z</time>
      </trkpt>
      <trkpt lat="42.7826130" lon="-8.6503310">
        <ele>31.2</ele>
        <time>2021-05-23T13:51:59Z</time>
      </trkpt>
      <trkpt lat="42.7826250" lon="-8.6503260">
        <ele>31.3</ele>
        <time>2021-05-23T13:52:00Z</time>
      </trkpt>
      <trkpt lat="42.7826370" lon="-8.6503220">
        <ele>31.3</ele>
        <time>2021-05-23T13:52:01Z</time>
      </trkpt>
      <trkpt lat="42.7826430" lon="-8.6503260">
        <ele>31.3</ele>
        <time>2021-05-23T13:52:02Z</time>
      </trkpt>
      <trkpt lat="42.7826580" lon="-8.6503220">
        <ele>31.3</ele>
        <time>2021-05-23T13:52:03Z</time>
      </trkpt>
      <trkpt lat="42.7826710" lon="-8.6503200">
        <ele>31.3</ele>
        <time>2021-05-23T13:52:04Z</time>
      </trkpt>
      <trkpt lat="42.7826850" lon="-8.6503120">
        <ele>31.3</ele>
        <time>2021-05-23T13:52:05Z</time>
      </trkpt>
      <trkpt lat="42.7827000" lon="-8.6503070">
        <ele>31.3</ele>
        <time>2021-05-23T13:52:06Z</time>
      </trkpt>
      <trkpt lat="42.7827160" lon="-8.6503020">
        <ele>31.4</ele>
        <time>2021-05-23T13:52:07Z</time>
      </trkpt>
      <trkpt lat="42.7827340" lon="-8.6503010">
        <ele>31.4</ele>
        <time>2021-05-23T13:52:08Z</time>
      </trkpt>
      <trkpt lat="42.7827700" lon="-8.6502980">
        <ele>31.4</ele>
        <time>2021-05-23T13:52:09Z</time>
      </trkpt>
      <trkpt lat="42.7827840" lon="-8.6502940">
        <ele>31.5</ele>
        <time>2021-05-23T13:52:10Z</time>
      </trkpt>
      <trkpt lat="42.7828130" lon="-8.6503030">
        <ele>31.5</ele>
        <time>2021-05-23T13:52:11Z</time>
      </trkpt>
      <trkpt lat="42.7828220" lon="-8.6503020">
        <ele>31.5</ele>
        <time>2021-05-23T13:52:12Z</time>
      </trkpt>
      <trkpt lat="42.7828480" lon="-8.6503080">
        <ele>31.6</ele>
        <time>2021-05-23T13:52:13Z</time>
      </trkpt>
      <trkpt lat="42.7828570" lon="-8.6503130">
        <ele>31.6</ele>
        <time>2021-05-23T13:52:14Z</time>
      </trkpt>
      <trkpt lat="42.7828790" lon="-8.6503120">
        <ele>31.6</ele>
        <time>2021-05-23T13:52:15Z</time>
      </trkpt>
      <trkpt lat="42.7828930" lon="-8.6503030">
        <ele>31.6</ele>
        <time>2021-05-23T13:52:16Z</time>
      </trkpt>
      <trkpt lat="42.7829100" lon="-8.6503120">
        <ele>31.6</ele>
        <time>2021-05-23T13:52:17Z</time>
      </trkpt>
      <trkpt lat="42.7829250" lon="-8.6503070">
        <ele>31.7</ele>
        <time>2021-05-23T13:52:18Z</time>
      </trkpt>
      <trkpt lat="42.7829390" lon="-8.6502880">
        <ele>31.7</ele>
        <time>2021-05-23T13:52:19Z</time>
      </trkpt>
      <trkpt lat="42.7829520" lon="-8.6502870">
        <ele>31.7</ele>
        <time>2021-05-23T13:52:20Z</time>
      </trkpt>
      <trkpt lat="42.7829550" lon="-8.6502930">
        <ele>31.7</ele>
        <time>2021-05-23T13:52:21Z</time>
      </trkpt>
      <trkpt lat="42.7829610" lon="-8.6502930">
        <ele>31.7</ele>
        <time>2021-05-23T13:52:22Z</time>
      </trkpt>
      <trkpt lat="42.7829700" lon="-8.6502920">
        <ele>31.7</ele>
        <time>2021-05-23T13:52:23Z</time>
      </trkpt>
      <trkpt lat="42.7829770" lon="-8.6502910">
        <ele>31.7</ele>
        <time>2021-05-23T13:52:24Z</time>
      </trkpt>
      <trkpt lat="42.7829860" lon="-8.6502870">
        <ele>31.8</ele>
        <time>2021-05-23T13:52:25Z</time>
      </trkpt>
      <trkpt lat="42.7830040" lon="-8.6502760">
        <ele>31.8</ele>
        <time>2021-05-23T13:52:26Z</time>
      </trkpt>
      <trkpt lat="42.7830130" lon="-8.6502710">
        <ele>31.8</ele>
        <time>2021-05-23T13:52:27Z</time>
      </trkpt>
      <trkpt lat="42.7830210" lon="-8.6502660">
        <ele>31.8</ele>
        <time>2021-05-23T13:52:28Z</time>
      </trkpt>
      <trkpt lat="42.7830290" lon="-8.6502610">
        <ele>31.8</ele>
        <time>2021-05-23T13:52:29Z</time>
      </trkpt>
      <trkpt lat="42.7830440" lon="-8.6502540">
        <ele>31.8</ele>
        <time>2021-05-23T13:52:30Z</time>
      </trkpt>
      <trkpt lat="42.7830540" lon="-8.6502550">
        <ele>31.9</ele>
        <time>2021-05-23T13:52:31Z</time>
      </trkpt>
      <trkpt lat="42.7830570" lon="-8.6502520">
        <ele>31.9</ele>
        <time>2021-05-23T13:52:32Z</time>
      </trkpt>
      <trkpt lat="42.7830680" lon="-8.6502550">
        <ele>31.9</ele>
        <time>2021-05-23T13:52:33Z</time>
      </trkpt>
      <trkpt lat="42.7830820" lon="-8.6502600">
        <ele>31.9</ele>
        <time>2021-05-23T13:52:34Z</time>
      </trkpt>
      <trkpt lat="42.7830910" lon="-8.6502590">
        <ele>31.9</ele>
        <time>2021-05-23T13:52:35Z</time>
      </trkpt>
      <trkpt lat="42.7830990" lon="-8.6502700">
        <ele>31.9</ele>
        <time>2021-05-23T13:52:36Z</time>
      </trkpt>
      <trkpt lat="42.7831130" lon="-8.6502750">
        <ele>32.0</ele>
        <time>2021-05-23T13:52:37Z</time>
      </trkpt>
      <trkpt lat="42.7831260" lon="-8.6502710">
        <ele>32.0</ele>
        <time>2021-05-23T13:52:38Z</time>
      </trkpt>
      <trkpt lat="42.7831340" lon="-8.6502730">
        <ele>32.0</ele>
        <time>2021-05-23T13:52:39Z</time>
      </trkpt>
      <trkpt lat="42.7831430" lon="-8.6502750">
        <ele>32.0</ele>
        <time>2021-05-23T13:52:40Z</time>
      </trkpt>
      <trkpt lat="42.7831560" lon="-8.6502760">
        <ele>32.0</ele>
        <time>2021-05-23T13:52:41Z</time>
      </trkpt>
      <trkpt lat="42.7831610" lon="-8.6502770">
        <ele>32.1</ele>
        <time>2021-05-23T13:52:42Z</time>
      </trkpt>
      <trkpt lat="42.7831710" lon="-8.6502750">
        <ele>32.1</ele>
        <time>2021-05-23T13:52:43Z</time>
      </trkpt>
      <trkpt lat="42.7831860" lon="-8.6502730">
        <ele>32.1</ele>
        <time>2021-05-23T13:52:44Z</time>
      </trkpt>
      <trkpt lat="42.7832030" lon="-8.6502680">
        <ele>32.1</ele>
        <time>2021-05-23T13:52:45Z</time>
      </trkpt>
      <trkpt lat="42.7832080" lon="-8.6502680">
        <ele>32.1</ele>
        <time>2021-05-23T13:52:46Z</time>
      </trkpt>
      <trkpt lat="42.7832160" lon="-8.6502640">
        <ele>32.2</ele>
        <time>2021-05-23T13:52:47Z</time>
      </trkpt>
      <trkpt lat="42.7832270" lon="-8.6502660">
        <ele>32.2</ele>
        <time>2021-05-23T13:52:48Z</time>
      </trkpt>
      <trkpt lat="42.7832470" lon="-8.6502570">
        <ele>32.2</ele>
        <time>2021-05-23T13:52:49Z</time>
      </trkpt>
      <trkpt lat="42.7832710" lon="-8.6502430">
        <ele>32.3</ele>
        <time>2021-05-23T13:52:50Z</time>
      </trkpt>
      <trkpt lat="42.7832810" lon="-8.6502400">
        <ele>32.3</ele>
        <time>2021-05-23T13:52:51Z</time>
      </trkpt>
      <trkpt lat="42.7832980" lon="-8.6502320">
        <ele>32.3</ele>
        <time>2021-05-23T13:52:52Z</time>
      </trkpt>
      <trkpt lat="42.7833150" lon="-8.6502210">
        <ele>32.4</ele>
        <time>2021-05-23T13:52:53Z</time>
      </trkpt>
      <trkpt lat="42.7833410" lon="-8.6502060">
        <ele>32.4</ele>
        <time>2021-05-23T13:52:54Z</time>
      </trkpt>
      <trkpt lat="42.7833500" lon="-8.6501990">
        <ele>32.4</ele>
        <time>2021-05-23T13:52:55Z</time>
      </trkpt>
      <trkpt lat="42.7833790" lon="-8.6501970">
        <ele>32.5</ele>
        <time>2021-05-23T13:52:56Z</time>
      </trkpt>
      <trkpt lat="42.7833870" lon="-8.6501930">
        <ele>32.5</ele>
        <time>2021-05-23T13:52:57Z</time>
      </trkpt>
      <trkpt lat="42.7834010" lon="-8.6501830">
        <ele>32.5</ele>
        <time>2021-05-23T13:52:58Z</time>
      </trkpt>
      <trkpt lat="42.7834100" lon="-8.6501730">
        <ele>32.6</ele>
        <time>2021-05-23T13:52:59Z</time>
      </trkpt>
      <trkpt lat="42.7834300" lon="-8.6501720">
        <ele>32.6</ele>
        <time>2021-05-23T13:53:00Z</time>
      </trkpt>
      <trkpt lat="42.7834390" lon="-8.6501700">
        <ele>32.6</ele>
        <time>2021-05-23T13:53:01Z</time>
      </trkpt>
      <trkpt lat="42.7834470" lon="-8.6501680">
        <ele>32.6</ele>
        <time>2021-05-23T13:53:02Z</time>
      </trkpt>
      <trkpt lat="42.7834580" lon="-8.6501660">
        <ele>32.7</ele>
        <time>2021-05-23T13:53:03Z</time>
      </trkpt>
      <trkpt lat="42.7834740" lon="-8.6501720">
        <ele>32.7</ele>
        <time>2021-05-23T13:53:04Z</time>
      </trkpt>
      <trkpt lat="42.7834840" lon="-8.6501660">
        <ele>32.7</ele>
        <time>2021-05-23T13:53:05Z</time>
      </trkpt>
      <trkpt lat="42.7834970" lon="-8.6501610">
        <ele>32.8</ele>
        <time>2021-05-23T13:53:06Z</time>
      </trkpt>
      <trkpt lat="42.7835050" lon="-8.6501580">
        <ele>32.8</ele>
        <time>2021-05-23T13:53:07Z</time>
      </trkpt>
      <trkpt lat="42.7835130" lon="-8.6501500">
        <ele>32.8</ele>
        <time>2021-05-23T13:53:08Z</time>
      </trkpt>
      <trkpt lat="42.7835260" lon="-8.6501300">
        <ele>32.9</ele>
        <time>2021-05-23T13:53:09Z</time>
      </trkpt>
      <trkpt lat="42.7835350" lon="-8.6501280">
        <ele>32.9</ele>
        <time>2021-05-23T13:53:10Z</time>
      </trkpt>
      <trkpt lat="42.7835420" lon="-8.6501340">
        <ele>32.9</ele>
        <time>2021-05-23T13:53:11Z</time>
      </trkpt>
      <trkpt lat="42.7835590" lon="-8.6501220">
        <ele>32.9</ele>
        <time>2021-05-23T13:53:12Z</time>
      </trkpt>
      <trkpt lat="42.7835790" lon="-8.6501190">
        <ele>33.0</ele>
        <time>2021-05-23T13:53:13Z</time>
      </trkpt>
      <trkpt lat="42.7835870" lon="-8.6501200">
        <ele>33.0</ele>
        <time>2021-05-23T13:53:14Z</time>
      </trkpt>
      <trkpt lat="42.7835960" lon="-8.6501200">
        <ele>33.0</ele>
        <time>2021-05-23T13:53:15Z</time>
      </trkpt>
      <trkpt lat="42.7836180" lon="-8.6501090">
        <ele>33.1</ele>
        <time>2021-05-23T13:53:16Z</time>
      </trkpt>
      <trkpt lat="42.7836260" lon="-8.6501060">
        <ele>33.1</ele>
        <time>2021-05-23T13:53:17Z</time>
      </trkpt>
      <trkpt lat="42.7836330" lon="-8.6501020">
        <ele>33.1</ele>
        <time>2021-05-23T13:53:18Z</time>
      </trkpt>
      <trkpt lat="42.7836480" lon="-8.6500880">
        <ele>33.2</ele>
        <time>2021-05-23T13:53:19Z</time>
      </trkpt>
      <trkpt lat="42.7836510" lon="-8.6500850">
        <ele>33.2</ele>
        <time>2021-05-23T13:53:20Z</time>
      </trkpt>
      <trkpt lat="42.7836640" lon="-8.6500850">
        <ele>33.2</ele>
        <time>2021-05-23T13:53:21Z</time>
      </trkpt>
      <trkpt lat="42.7836740" lon="-8.6500860">
        <ele>33.2</ele>
        <time>2021-05-23T13:53:22Z</time>
      </trkpt>
      <trkpt lat="42.7836910" lon="-8.6500870">
        <ele>33.3</ele>
        <time>2021-05-23T13:53:23Z</time>
      </trkpt>
      <trkpt lat="42.7837040" lon="-8.6500930">
        <ele>33.3</ele>
        <time>2021-05-23T13:53:24Z</time>
      </trkpt>
      <trkpt lat="42.7837210" lon="-8.6500870">
        <ele>33.3</ele>
        <time>2021-05-23T13:53:25Z</time>
      </trkpt>
      <trkpt lat="42.7837350" lon="-8.6500830">
        <ele>33.3</ele>
        <time>2021-05-23T13:53:26Z</time>
      </trkpt>
      <trkpt lat="42.7837490" lon="-8.6500750">
        <ele>33.4</ele>
        <time>2021-05-23T13:53:27Z</time>
      </trkpt>
      <trkpt lat="42.7837650" lon="-8.6500670">
        <ele>33.4</ele>
        <time>2021-05-23T13:53:28Z</time>
      </trkpt>
      <trkpt lat="42.7837770" lon="-8.6500620">
        <ele>33.4</ele>
        <time>2021-05-23T13:53:29Z</time>
      </trkpt>
      <trkpt lat="42.7837980" lon="-8.6500560">
        <ele>33.5</ele>
        <time>2021-05-23T13:53:30Z</time>
      </trkpt>
      <trkpt lat="42.7838070" lon="-8.6500570">
        <ele>33.5</ele>
        <time>2021-05-23T13:53:31Z</time>
      </trkpt>
      <trkpt lat="42.7838160" lon="-8.6500580">
        <ele>33.5</ele>
        <time>2021-05-23T13:53:32Z</time>
      </trkpt>
      <trkpt lat="42.7838450" lon="-8.6500540">
        <ele>33.6</ele>
        <time>2021-05-23T13:53:33Z</time>
      </trkpt>
      <trkpt lat="42.7838540" lon="-8.6500540">
        <ele>33.6</ele>
        <time>2021-05-23T13:53:34Z</time>
      </trkpt>
      <trkpt lat="42.7838600" lon="-8.6500540">
        <ele>33.6</ele>
        <time>2021-05-23T13:53:35Z</time>
      </trkpt>
      <trkpt lat="42.7838650" lon="-8.6500590">
        <ele>33.6</ele>
        <time>2021-05-23T13:53:36Z</time>
      </trkpt>
      <trkpt lat="42.7838730" lon="-8.6500610">
        <ele>33.6</ele>
        <time>2021-05-23T13:53:37Z</time>
      </trkpt>
      <trkpt lat="42.7838830" lon="-8.6500680">
        <ele>33.6</ele>
        <time>2021-05-23T13:53:38Z</time>
      </trkpt>
      <trkpt lat="42.7838920" lon="-8.6500710">
        <ele>33.6</ele>
        <time>2021-05-23T13:53:39Z</time>
      </trkpt>
      <trkpt lat="42.7839050" lon="-8.6500750">
        <ele>33.7</ele>
        <time>2021-05-23T13:53:40Z</time>
      </trkpt>
      <trkpt lat="42.7839050" lon="-8.6500750">
        <ele>33.7</ele>
        <time>2021-05-23T13:53:41Z</time>
      </trkpt>
      <trkpt lat="42.7839030" lon="-8.6500780">
        <ele>33.7</ele>
        <time>2021-05-23T13:53:42Z</time>
      </trkpt>
      <trkpt lat="42.7839040" lon="-8.6500810">
        <ele>33.7</ele>
        <time>2021-05-23T13:53:43Z</time>
      </trkpt>
      <trkpt lat="42.7839030" lon="-8.6500820">
        <ele>33.7</ele>
        <time>2021-05-23T13:53:44Z</time>
      </trkpt>
      <trkpt lat="42.7839010" lon="-8.6500820">
        <ele>33.7</ele>
        <time>2021-05-23T13:53:45Z</time>
      </trkpt>
      <trkpt lat="42.7839010" lon="-8.6500840">
        <ele>33.7</ele>
        <time>2021-05-23T13:53:46Z</time>
      </trkpt>
      <trkpt lat="42.7839010" lon="-8.6500910">
        <ele>33.7</ele>
        <time>2021-05-23T13:53:47Z</time>
      </trkpt>
      <trkpt lat="42.7839000" lon="-8.6500940">
        <ele>33.7</ele>
        <time>2021-05-23T13:53:48Z</time>
      </trkpt>
      <trkpt lat="42.7839000" lon="-8.6500930">
        <ele>33.7</ele>
        <time>2021-05-23T13:53:49Z</time>
      </trkpt>
      <trkpt lat="42.7838990" lon="-8.6500930">
        <ele>33.7</ele>
        <time>2021-05-23T13:53:50Z</time>
      </trkpt>
      <trkpt lat="42.7839000" lon="-8.6500930">
        <ele>33.7</ele>
        <time>2021-05-23T13:53:51Z</time>
      </trkpt>
      <trkpt lat="42.7839050" lon="-8.6500950">
        <ele>33.7</ele>
        <time>2021-05-23T13:53:52Z</time>
      </trkpt>
      <trkpt lat="42.7839050" lon="-8.6500940">
        <ele>33.7</ele>
        <time>2021-05-23T13:53:53Z</time>
      </trkpt>
      <trkpt lat="42.7839070" lon="-8.6500900">
        <ele>33.7</ele>
        <time>2021-05-23T13:53:54Z</time>
      </trkpt>
      <trkpt lat="42.7839090" lon="-8.6500880">
        <ele>33.7</ele>
        <time>2021-05-23T13:53:55Z</time>
      </trkpt>
      <trkpt lat="42.7839090" lon="-8.6500880">
        <ele>33.7</ele>
        <time>2021-05-23T13:53:56Z</time>
      </trkpt>
      <trkpt lat="42.7839090" lon="-8.6500880">
        <ele>33.7</ele>
        <time>2021-05-23T13:53:57Z</time>
      </trkpt>
      <trkpt lat="42.7839090" lon="-8.6500880">
        <ele>33.7</ele>
        <time>2021-05-23T13:53:58Z</time>
      </trkpt>
      <trkpt lat="42.7839080" lon="-8.6500860">
        <ele>33.7</ele>
        <time>2021-05-23T13:53:59Z</time>
      </trkpt>
      <trkpt lat="42.7839150" lon="-8.6500760">
        <ele>33.8</ele>
        <time>2021-05-23T13:54:00Z</time>
      </trkpt>
      <trkpt lat="42.7839210" lon="-8.6500750">
        <ele>33.8</ele>
        <time>2021-05-23T13:54:01Z</time>
      </trkpt>
      <trkpt lat="42.7839330" lon="-8.6500680">
        <ele>33.8</ele>
        <time>2021-05-23T13:54:02Z</time>
      </trkpt>
      <trkpt lat="42.7839520" lon="-8.6500630">
        <ele>33.8</ele>
        <time>2021-05-23T13:54:03Z</time>
      </trkpt>
      <trkpt lat="42.7839630" lon="-8.6500630">
        <ele>33.9</ele>
        <time>2021-05-23T13:54:04Z</time>
      </trkpt>
      <trkpt lat="42.7839760" lon="-8.6500540">
        <ele>33.9</ele>
        <time>2021-05-23T13:54:05Z</time>
      </trkpt>
      <trkpt lat="42.7839900" lon="-8.6500470">
        <ele>33.9</ele>
        <time>2021-05-23T13:54:06Z</time>
      </trkpt>
      <trkpt lat="42.7839980" lon="-8.6500460">
        <ele>34.0</ele>
        <time>2021-05-23T13:54:07Z</time>
      </trkpt>
      <trkpt lat="42.7840050" lon="-8.6500410">
        <ele>34.0</ele>
        <time>2021-05-23T13:54:08Z</time>
      </trkpt>
      <trkpt lat="42.7840050" lon="-8.6500490">
        <ele>34.0</ele>
        <time>2021-05-23T13:54:09Z</time>
      </trkpt>
      <trkpt lat="42.7840070" lon="-8.6500450">
        <ele>34.0</ele>
        <time>2021-05-23T13:54:10Z</time>
      </trkpt>
      <trkpt lat="42.7840130" lon="-8.6500450">
        <ele>34.0</ele>
        <time>2021-05-23T13:54:11Z</time>
      </trkpt>
      <trkpt lat="42.7840150" lon="-8.6500380">
        <ele>34.0</ele>
        <time>2021-05-23T13:54:12Z</time>
      </trkpt>
      <trkpt lat="42.7840170" lon="-8.6500260">
        <ele>34.1</ele>
        <time>2021-05-23T13:54:13Z</time>
      </trkpt>
      <trkpt lat="42.7840240" lon="-8.6500180">
        <ele>34.1</ele>
        <time>2021-05-23T13:54:14Z</time>
      </trkpt>
      <trkpt lat="42.7840270" lon="-8.6500160">
        <ele>34.1</ele>
        <time>2021-05-23T13:54:15Z</time>
      </trkpt>
      <trkpt lat="42.7840340" lon="-8.6500130">
        <ele>34.1</ele>
        <time>2021-05-23T13:54:16Z</time>
      </trkpt>
      <trkpt lat="42.7840440" lon="-8.6500050">
        <ele>34.1</ele>
        <time>2021-05-23T13:54:17Z</time>
      </trkpt>
      <trkpt lat="42.7840540" lon="-8.6500090">
        <ele>34.2</ele>
        <time>2021-05-23T13:54:18Z</time>
      </trkpt>
      <trkpt lat="42.7840560" lon="-8.6500140">
        <ele>34.2</ele>
        <time>2021-05-23T13:54:19Z</time>
      </trkpt>
      <trkpt lat="42.7840580" lon="-8.6500180">
        <ele>34.2</ele>
        <time>2021-05-23T13:54:20Z</time>
      </trkpt>
      <trkpt lat="42.7840720" lon="-8.6500210">
        <ele>34.2</ele>
        <time>2021-05-23T13:54:21Z</time>
      </trkpt>
      <trkpt lat="42.7840690" lon="-8.6500090">
        <ele>34.2</ele>
        <time>2021-05-23T13:54:22Z</time>
      </trkpt>
      <trkpt lat="42.7840670" lon="-8.6500030">
        <ele>34.2</ele>
        <time>2021-05-23T13:54:23Z</time>
      </trkpt>
      <trkpt lat="42.7840670" lon="-8.6499960">
        <ele>34.2</ele>
        <time>2021-05-23T13:54:24Z</time>
      </trkpt>
      <trkpt lat="42.7840660" lon="-8.6499950">
        <ele>34.2</ele>
        <time>2021-05-23T13:54:25Z</time>
      </trkpt>
      <trkpt lat="42.7840660" lon="-8.6499970">
        <ele>34.2</ele>
        <time>2021-05-23T13:54:26Z</time>
      </trkpt>
      <trkpt lat="42.7840700" lon="-8.6500010">
        <ele>34.2</ele>
        <time>2021-05-23T13:54:27Z</time>
      </trkpt>
      <trkpt lat="42.7840760" lon="-8.6500040">
        <ele>34.3</ele>
        <time>2021-05-23T13:54:28Z</time>
      </trkpt>
      <trkpt lat="42.7840770" lon="-8.6500030">
        <ele>34.3</ele>
        <time>2021-05-23T13:54:29Z</time>
      </trkpt>
      <trkpt lat="42.7840790" lon="-8.6500010">
        <ele>34.3</ele>
        <time>2021-05-23T13:54:30Z</time>
      </trkpt>
      <trkpt lat="42.7840820" lon="-8.6500060">
        <ele>34.3</ele>
        <time>2021-05-23T13:54:31Z</time>
      </trkpt>
      <trkpt lat="42.7840820" lon="-8.6499930">
        <ele>34.3</ele>
        <time>2021-05-23T13:54:32Z</time>
      </trkpt>
      <trkpt lat="42.7840800" lon="-8.6499920">
        <ele>34.3</ele>
        <time>2021-05-23T13:54:33Z</time>
      </trkpt>
      <trkpt lat="42.7840790" lon="-8.6499920">
        <ele>34.3</ele>
        <time>2021-05-23T13:54:34Z</time>
      </trkpt>
      <trkpt lat="42.7840770" lon="-8.6499920">
        <ele>34.3</ele>
        <time>2021-05-23T13:54:35Z</time>
      </trkpt>
      <trkpt lat="42.7840770" lon="-8.6499930">
        <ele>34.3</ele>
        <time>2021-05-23T13:54:36Z</time>
      </trkpt>
      <trkpt lat="42.7840770" lon="-8.6499940">
        <ele>34.3</ele>
        <time>2021-05-23T13:54:37Z</time>
      </trkpt>
      <trkpt lat="42.7840770" lon="-8.6499890">
        <ele>34.3</ele>
        <time>2021-05-23T13:54:38Z</time>
      </trkpt>
      <trkpt lat="42.7840790" lon="-8.6499860">
        <ele>34.3</ele>
        <time>2021-05-23T13:54:39Z</time>
      </trkpt>
      <trkpt lat="42.7840800" lon="-8.6499840">
        <ele>34.3</ele>
        <time>2021-05-23T13:54:40Z</time>
      </trkpt>
      <trkpt lat="42.7840810" lon="-8.6499820">
        <ele>34.3</ele>
        <time>2021-05-23T13:54:41Z</time>
      </trkpt>
      <trkpt lat="42.7840800" lon="-8.6499800">
        <ele>34.3</ele>
        <time>2021-05-23T13:54:42Z</time>
      </trkpt>
      <trkpt lat="42.7840770" lon="-8.6499770">
        <ele>34.3</ele>
        <time>2021-05-23T13:54:43Z</time>
      </trkpt>
      <trkpt lat="42.7840780" lon="-8.6499730">
        <ele>34.3</ele>
        <time>2021-05-23T13:54:44Z</time>
      </trkpt>
      <trkpt lat="42.7840820" lon="-8.6499720">
        <ele>34.3</ele>
        <time>2021-05-23T13:54:45Z</time>
      </trkpt>
      <trkpt lat="42.7840950" lon="-8.6499640">
        <ele>34.3</ele>
        <time>2021-05-23T13:54:46Z</time>
      </trkpt>
      <trkpt lat="42.7841050" lon="-8.6499620">
        <ele>34.3</ele>
        <time>2021-05-23T13:54:47Z</time>
      </trkpt>
      <trkpt lat="42.7841230" lon="-8.6499480">
        <ele>34.3</ele>
        <time>2021-05-23T13:54:48Z</time>
      </trkpt>
      <trkpt lat="42.7841300" lon="-8.6499430">
        <ele>34.3</ele>
        <time>2021-05-23T13:54:49Z</time>
      </trkpt>
      <trkpt lat="42.7841380" lon="-8.6499390">
        <ele>34.3</ele>
        <time>2021-05-23T13:54:50Z</time>
      </trkpt>
      <trkpt lat="42.7841480" lon="-8.6499240">
        <ele>34.3</ele>
        <time>2021-05-23T13:54:51Z</time>
      </trkpt>
      <trkpt lat="42.7841540" lon="-8.6499180">
        <ele>34.3</ele>
        <time>2021-05-23T13:54:52Z</time>
      </trkpt>
      <trkpt lat="42.7841590" lon="-8.6499110">
        <ele>34.3</ele>
        <time>2021-05-23T13:54:53Z</time>
      </trkpt>
      <trkpt lat="42.7841650" lon="-8.6499050">
        <ele>34.3</ele>
        <time>2021-05-23T13:54:54Z</time>
      </trkpt>
      <trkpt lat="42.7841640" lon="-8.6498890">
        <ele>34.3</ele>
        <time>2021-05-23T13:54:55Z</time>
      </trkpt>
      <trkpt lat="42.7841660" lon="-8.6498720">
        <ele>34.3</ele>
        <time>2021-05-23T13:54:56Z</time>
      </trkpt>
      <trkpt lat="42.7841710" lon="-8.6498610">
        <ele>34.3</ele>
        <time>2021-05-23T13:54:57Z</time>
      </trkpt>
      <trkpt lat="42.7841630" lon="-8.6498530">
        <ele>34.3</ele>
        <time>2021-05-23T13:54:58Z</time>
      </trkpt>
      <trkpt lat="42.7841620" lon="-8.6498450">
        <ele>34.3</ele>
        <time>2021-05-23T13:54:59Z</time>
      </trkpt>
      <trkpt lat="42.7841520" lon="-8.6498360">
        <ele>34.3</ele>
        <time>2021-05-23T13:55:00Z</time>
      </trkpt>
      <trkpt lat="42.7841460" lon="-8.6498290">
        <ele>34.3</ele>
        <time>2021-05-23T13:55:01Z</time>
      </trkpt>
      <trkpt lat="42.7841400" lon="-8.6498240">
        <ele>34.3</ele>
        <time>2021-05-23T13:55:02Z</time>
      </trkpt>
      <trkpt lat="42.7841340" lon="-8.6498120">
        <ele>34.3</ele>
        <time>2021-05-23T13:55:03Z</time>
      </trkpt>
      <trkpt lat="42.7841360" lon="-8.6497990">
        <ele>34.3</ele>
        <time>2021-05-23T13:55:04Z</time>
      </trkpt>
      <trkpt lat="42.7841310" lon="-8.6497840">
        <ele>34.4</ele>
        <time>2021-05-23T13:55:05Z</time>
      </trkpt>
      <trkpt lat="42.7841300" lon="-8.6497840">
        <ele>34.4</ele>
        <time>2021-05-23T13:55:06Z</time>
      </trkpt>
      <trkpt lat="42.7841260" lon="-8.6497790">
        <ele>34.4</ele>
        <time>2021-05-23T13:55:07Z</time>
      </trkpt>
      <trkpt lat="42.7841220" lon="-8.6497630">
        <ele>34.4</ele>
        <time>2021-05-23T13:55:08Z</time>
      </trkpt>
      <trkpt lat="42.7841260" lon="-8.6497610">
        <ele>34.4</ele>
        <time>2021-05-23T13:55:09Z</time>
      </trkpt>
      <trkpt lat="42.7841310" lon="-8.6497610">
        <ele>34.4</ele>
        <time>2021-05-23T13:55:10Z</time>
      </trkpt>
      <trkpt lat="42.7841370" lon="-8.6497610">
        <ele>34.4</ele>
        <time>2021-05-23T13:55:11Z</time>
      </trkpt>
      <trkpt lat="42.7841430" lon="-8.6497610">
        <ele>34.4</ele>
        <time>2021-05-23T13:55:12Z</time>
      </trkpt>
      <trkpt lat="42.7841490" lon="-8.6497610">
        <ele>34.4</ele>
        <time>2021-05-23T13:55:13Z</time>
      </trkpt>
      <trkpt lat="42.7841540" lon="-8.6497610">
        <ele>34.4</ele>
        <time>2021-05-23T13:55:14Z</time>
      </trkpt>
      <trkpt lat="42.7841600" lon="-8.6497610">
        <ele>34.4</ele>
        <time>2021-05-23T13:55:15Z</time>
      </trkpt>
      <trkpt lat="42.7841730" lon="-8.6497680">
        <ele>34.5</ele>
        <time>2021-05-23T13:55:16Z</time>
      </trkpt>
      <trkpt lat="42.7841860" lon="-8.6497790">
        <ele>34.5</ele>
        <time>2021-05-23T13:55:17Z</time>
      </trkpt>
      <trkpt lat="42.7841850" lon="-8.6497860">
        <ele>34.5</ele>
        <time>2021-05-23T13:55:18Z</time>
      </trkpt>
      <trkpt lat="42.7842010" lon="-8.6497990">
        <ele>34.5</ele>
        <time>2021-05-23T13:55:19Z</time>
      </trkpt>
      <trkpt lat="42.7842030" lon="-8.6498020">
        <ele>34.5</ele>
        <time>2021-05-23T13:55:20Z</time>
      </trkpt>
      <trkpt lat="42.7842120" lon="-8.6498110">
        <ele>34.5</ele>
        <time>2021-05-23T13:55:21Z</time>
      </trkpt>
      <trkpt lat="42.7842170" lon="-8.6498160">
        <ele>34.5</ele>
        <time>2021-05-23T13:55:22Z</time>
      </trkpt>
      <trkpt lat="42.7842230" lon="-8.6498210">
        <ele>34.5</ele>
        <time>2021-05-23T13:55:23Z</time>
      </trkpt>
      <trkpt lat="42.7842230" lon="-8.6498280">
        <ele>34.5</ele>
        <time>2021-05-23T13:55:24Z</time>
      </trkpt>
      <trkpt lat="42.7842270" lon="-8.6498270">
        <ele>34.5</ele>
        <time>2021-05-23T13:55:25Z</time>
      </trkpt>
      <trkpt lat="42.7842320" lon="-8.6498280">
        <ele>34.5</ele>
        <time>2021-05-23T13:55:26Z</time>
      </trkpt>
      <trkpt lat="42.7842280" lon="-8.6498300">
        <ele>34.5</ele>
        <time>2021-05-23T13:55:27Z</time>
      </trkpt>
      <trkpt lat="42.7842240" lon="-8.6498290">
        <ele>34.5</ele>
        <time>2021-05-23T13:55:28Z</time>
      </trkpt>
      <trkpt lat="42.7842220" lon="-8.6498300">
        <ele>34.5</ele>
        <time>2021-05-23T13:55:29Z</time>
      </trkpt>
      <trkpt lat="42.7842220" lon="-8.6498320">
        <ele>34.5</ele>
        <time>2021-05-23T13:55:30Z</time>
      </trkpt>
      <trkpt lat="42.7842160" lon="-8.6498250">
        <ele>34.5</ele>
        <time>2021-05-23T13:55:31Z</time>
      </trkpt>
      <trkpt lat="42.7842110" lon="-8.6498260">
        <ele>34.5</ele>
        <time>2021-05-23T13:55:32Z</time>
      </trkpt>
      <trkpt lat="42.7842090" lon="-8.6498280">
        <ele>34.5</ele>
        <time>2021-05-23T13:55:33Z</time>
      </trkpt>
      <trkpt lat="42.7842090" lon="-8.6498290">
        <ele>34.5</ele>
        <time>2021-05-23T13:55:34Z</time>
      </trkpt>
      <trkpt lat="42.7842070" lon="-8.6498320">
        <ele>34.5</ele>
        <time>2021-05-23T13:55:35Z</time>
      </trkpt>
      <trkpt lat="42.7842050" lon="-8.6498340">
        <ele>34.5</ele>
        <time>2021-05-23T13:55:36Z</time>
      </trkpt>
      <trkpt lat="42.7841990" lon="-8.6498330">
        <ele>34.5</ele>
        <time>2021-05-23T13:55:37Z</time>
      </trkpt>
      <trkpt lat="42.7841910" lon="-8.6498260">
        <ele>34.5</ele>
        <time>2021-05-23T13:55:38Z</time>
      </trkpt>
      <trkpt lat="42.7841930" lon="-8.6498130">
        <ele>34.5</ele>
        <time>2021-05-23T13:55:39Z</time>
      </trkpt>
      <trkpt lat="42.7841950" lon="-8.6498060">
        <ele>34.5</ele>
        <time>2021-05-23T13:55:40Z</time>
      </trkpt>
      <trkpt lat="42.7842010" lon="-8.6498010">
        <ele>34.6</ele>
        <time>2021-05-23T13:55:41Z</time>
      </trkpt>
      <trkpt lat="42.7842060" lon="-8.6498010">
        <ele>34.6</ele>
        <time>2021-05-23T13:55:42Z</time>
      </trkpt>
      <trkpt lat="42.7842120" lon="-8.6498010">
        <ele>34.6</ele>
        <time>2021-05-23T13:55:43Z</time>
      </trkpt>
      <trkpt lat="42.7842170" lon="-8.6497990">
        <ele>34.6</ele>
        <time>2021-05-23T13:55:44Z</time>
      </trkpt>
      <trkpt lat="42.7842210" lon="-8.6497990">
        <ele>34.6</ele>
        <time>2021-05-23T13:55:45Z</time>
      </trkpt>
      <trkpt lat="42.7842270" lon="-8.6498030">
        <ele>34.6</ele>
        <time>2021-05-23T13:55:46Z</time>
      </trkpt>
      <trkpt lat="42.7842260" lon="-8.6498030">
        <ele>34.6</ele>
        <time>2021-05-23T13:55:47Z</time>
      </trkpt>
      <trkpt lat="42.7842320" lon="-8.6498000">
        <ele>34.6</ele>
        <time>2021-05-23T13:55:48Z</time>
      </trkpt>
      <trkpt lat="42.7842410" lon="-8.6498060">
        <ele>34.6</ele>
        <time>2021-05-23T13:55:49Z</time>
      </trkpt>
      <trkpt lat="42.7842450" lon="-8.6498130">
        <ele>34.6</ele>
        <time>2021-05-23T13:55:50Z</time>
      </trkpt>
      <trkpt lat="42.7842440" lon="-8.6498120">
        <ele>34.6</ele>
        <time>2021-05-23T13:55:51Z</time>
      </trkpt>
      <trkpt lat="42.7842440" lon="-8.6498110">
        <ele>34.6</ele>
        <time>2021-05-23T13:55:53Z</time>
      </trkpt>
      <trkpt lat="42.7842430" lon="-8.6498100">
        <ele>34.6</ele>
        <time>2021-05-23T13:55:54Z</time>
      </trkpt>
      <trkpt lat="42.7842430" lon="-8.6498090">
        <ele>34.6</ele>
        <time>2021-05-23T13:55:55Z</time>
      </trkpt>
      <trkpt lat="42.7842420" lon="-8.6498080">
        <ele>34.6</ele>
        <time>2021-05-23T13:55:56Z</time>
      </trkpt>
      <trkpt lat="42.7842420" lon="-8.6498070">
        <ele>34.6</ele>
        <time>2021-05-23T13:55:57Z</time>
      </trkpt>
      <trkpt lat="42.7842410" lon="-8.6498060">
        <ele>34.6</ele>
        <time>2021-05-23T13:55:58Z</time>
      </trkpt>
      <trkpt lat="42.7842410" lon="-8.6498040">
        <ele>34.6</ele>
        <time>2021-05-23T13:55:59Z</time>
      </trkpt>
      <trkpt lat="42.7842400" lon="-8.6498030">
        <ele>34.6</ele>
        <time>2021-05-23T13:56:00Z</time>
      </trkpt>
      <trkpt lat="42.7842400" lon="-8.6498020">
        <ele>34.6</ele>
        <time>2021-05-23T13:56:01Z</time>
      </trkpt>
      <trkpt lat="42.7842390" lon="-8.6498010">
        <ele>34.6</ele>
        <time>2021-05-23T13:56:02Z</time>
      </trkpt>
      <trkpt lat="42.7842390" lon="-8.6498000">
        <ele>34.6</ele>
        <time>2021-05-23T13:56:03Z</time>
      </trkpt>
      <trkpt lat="42.7842380" lon="-8.6497990">
        <ele>34.6</ele>
        <time>2021-05-23T13:56:04Z</time>
      </trkpt>
      <trkpt lat="42.7842380" lon="-8.6497980">
        <ele>34.6</ele>
        <time>2021-05-23T13:56:05Z</time>
      </trkpt>
      <trkpt lat="42.7842370" lon="-8.6497970">
        <ele>34.6</ele>
        <time>2021-05-23T13:56:06Z</time>
      </trkpt>
      <trkpt lat="42.7842370" lon="-8.6497960">
        <ele>34.6</ele>
        <time>2021-05-23T13:56:07Z</time>
      </trkpt>
      <trkpt lat="42.7842360" lon="-8.6497950">
        <ele>34.6</ele>
        <time>2021-05-23T13:56:08Z</time>
      </trkpt>
      <trkpt lat="42.7842310" lon="-8.6497950">
        <ele>34.6</ele>
        <time>2021-05-23T13:56:09Z</time>
      </trkpt>
      <trkpt lat="42.7842260" lon="-8.6497940">
        <ele>34.6</ele>
        <time>2021-05-23T13:56:10Z</time>
      </trkpt>
      <trkpt lat="42.7842180" lon="-8.6497960">
        <ele>34.6</ele>
        <time>2021-05-23T13:56:11Z</time>
      </trkpt>
      <trkpt lat="42.7842120" lon="-8.6498000">
        <ele>34.6</ele>
        <time>2021-05-23T13:56:12Z</time>
      </trkpt>
      <trkpt lat="42.7842070" lon="-8.6498090">
        <ele>34.6</ele>
        <time>2021-05-23T13:56:13Z</time>
      </trkpt>
      <trkpt lat="42.7842030" lon="-8.6498150">
        <ele>34.6</ele>
        <time>2021-05-23T13:56:14Z</time>
      </trkpt>
      <trkpt lat="42.7842020" lon="-8.6498210">
        <ele>34.6</ele>
        <time>2021-05-23T13:56:15Z</time>
      </trkpt>
      <trkpt lat="42.7842000" lon="-8.6498210">
        <ele>34.6</ele>
        <time>2021-05-23T13:56:16Z</time>
      </trkpt>
      <trkpt lat="42.7842030" lon="-8.6498100">
        <ele>34.6</ele>
        <time>2021-05-23T13:56:17Z</time>
      </trkpt>
      <trkpt lat="42.7842020" lon="-8.6498050">
        <ele>34.6</ele>
        <time>2021-05-23T13:56:18Z</time>
      </trkpt>
      <trkpt lat="42.7841970" lon="-8.6497940">
        <ele>34.6</ele>
        <time>2021-05-23T13:56:19Z</time>
      </trkpt>
      <trkpt lat="42.7842020" lon="-8.6497910">
        <ele>34.6</ele>
        <time>2021-05-23T13:56:20Z</time>
      </trkpt>
      <trkpt lat="42.7842010" lon="-8.6497810">
        <ele>34.7</ele>
        <time>2021-05-23T13:56:21Z</time>
      </trkpt>
      <trkpt lat="42.7842030" lon="-8.6497780">
        <ele>34.7</ele>
        <time>2021-05-23T13:56:22Z</time>
      </trkpt>
      <trkpt lat="42.7842060" lon="-8.6497740">
        <ele>34.7</ele>
        <time>2021-05-23T13:56:23Z</time>
      </trkpt>
      <trkpt lat="42.7842020" lon="-8.6497680">
        <ele>34.7</ele>
        <time>2021-05-23T13:56:24Z</time>
      </trkpt>
      <trkpt lat="42.7842010" lon="-8.6497590">
        <ele>34.7</ele>
        <time>2021-05-23T13:56:25Z</time>
      </trkpt>
      <trkpt lat="42.7841980" lon="-8.6497560">
        <ele>34.7</ele>
        <time>2021-05-23T13:56:26Z</time>
      </trkpt>
      <trkpt lat="42.7841990" lon="-8.6497540">
        <ele>34.7</ele>
        <time>2021-05-23T13:56:27Z</time>
      </trkpt>
      <trkpt lat="42.7841990" lon="-8.6497530">
        <ele>34.7</ele>
        <time>2021-05-23T13:56:28Z</time>
      </trkpt>
      <trkpt lat="42.7841970" lon="-8.6497520">
        <ele>34.7</ele>
        <time>2021-05-23T13:56:29Z</time>
      </trkpt>
      <trkpt lat="42.7841950" lon="-8.6497500">
        <ele>34.7</ele>
        <time>2021-05-23T13:56:30Z</time>
      </trkpt>
      <trkpt lat="42.7841940" lon="-8.6497490">
        <ele>34.7</ele>
        <time>2021-05-23T13:56:31Z</time>
      </trkpt>
      <trkpt lat="42.7841940" lon="-8.6497460">
        <ele>34.7</ele>
        <time>2021-05-23T13:56:32Z</time>
      </trkpt>
      <trkpt lat="42.7841920" lon="-8.6497410">
        <ele>34.7</ele>
        <time>2021-05-23T13:56:33Z</time>
      </trkpt>
      <trkpt lat="42.7841910" lon="-8.6497370">
        <ele>34.7</ele>
        <time>2021-05-23T13:56:34Z</time>
      </trkpt>
      <trkpt lat="42.7841870" lon="-8.6497350">
        <ele>34.7</ele>
        <time>2021-05-23T13:56:35Z</time>
      </trkpt>
      <trkpt lat="42.7841860" lon="-8.6497360">
        <ele>34.7</ele>
        <time>2021-05-23T13:56:36Z</time>
      </trkpt>
      <trkpt lat="42.7841850" lon="-8.6497290">
        <ele>34.7</ele>
        <time>2021-05-23T13:56:37Z</time>
      </trkpt>
      <trkpt lat="42.7841880" lon="-8.6497230">
        <ele>34.7</ele>
        <time>2021-05-23T13:56:38Z</time>
      </trkpt>
      <trkpt lat="42.7841880" lon="-8.6497210">
        <ele>34.7</ele>
        <time>2021-05-23T13:56:39Z</time>
      </trkpt>
      <trkpt lat="42.7841860" lon="-8.6497170">
        <ele>34.7</ele>
        <time>2021-05-23T13:56:40Z</time>
      </trkpt>
      <trkpt lat="42.7841820" lon="-8.6497120">
        <ele>34.7</ele>
        <time>2021-05-23T13:56:41Z</time>
      </trkpt>
      <trkpt lat="42.7841830" lon="-8.6497070">
        <ele>34.7</ele>
        <time>2021-05-23T13:56:42Z</time>
      </trkpt>
      <trkpt lat="42.7841850" lon="-8.6497060">
        <ele>34.7</ele>
        <time>2021-05-23T13:56:43Z</time>
      </trkpt>
      <trkpt lat="42.7841840" lon="-8.6497040">
        <ele>34.7</ele>
        <time>2021-05-23T13:56:44Z</time>
      </trkpt>
      <trkpt lat="42.7841840" lon="-8.6497020">
        <ele>34.7</ele>
        <time>2021-05-23T13:56:45Z</time>
      </trkpt>
      <trkpt lat="42.7841850" lon="-8.6497000">
        <ele>34.7</ele>
        <time>2021-05-23T13:56:46Z</time>
      </trkpt>
      <trkpt lat="42.7841830" lon="-8.6496970">
        <ele>34.7</ele>
        <time>2021-05-23T13:56:47Z</time>
      </trkpt>
      <trkpt lat="42.7841800" lon="-8.6496930">
        <ele>34.7</ele>
        <time>2021-05-23T13:56:48Z</time>
      </trkpt>
      <trkpt lat="42.7841820" lon="-8.6496940">
        <ele>34.7</ele>
        <time>2021-05-23T13:56:49Z</time>
      </trkpt>
      <trkpt lat="42.7841840" lon="-8.6496950">
        <ele>34.7</ele>
        <time>2021-05-23T13:56:50Z</time>
      </trkpt>
      <trkpt lat="42.7841850" lon="-8.6496960">
        <ele>34.7</ele>
        <time>2021-05-23T13:56:51Z</time>
      </trkpt>
      <trkpt lat="42.7841850" lon="-8.6496960">
        <ele>34.7</ele>
        <time>2021-05-23T13:56:52Z</time>
      </trkpt>
      <trkpt lat="42.7841790" lon="-8.6496860">
        <ele>34.7</ele>
        <time>2021-05-23T13:56:53Z</time>
      </trkpt>
      <trkpt lat="42.7841790" lon="-8.6496850">
        <ele>34.7</ele>
        <time>2021-05-23T13:56:54Z</time>
      </trkpt>
      <trkpt lat="42.7841870" lon="-8.6496990">
        <ele>34.7</ele>
        <time>2021-05-23T13:56:55Z</time>
      </trkpt>
      <trkpt lat="42.7841870" lon="-8.6497030">
        <ele>34.7</ele>
        <time>2021-05-23T13:56:56Z</time>
      </trkpt>
      <trkpt lat="42.7841900" lon="-8.6497050">
        <ele>34.7</ele>
        <time>2021-05-23T13:56:57Z</time>
      </trkpt>
      <trkpt lat="42.7841890" lon="-8.6497100">
        <ele>34.7</ele>
        <time>2021-05-23T13:56:58Z</time>
      </trkpt>
      <trkpt lat="42.7841970" lon="-8.6497260">
        <ele>34.8</ele>
        <time>2021-05-23T13:56:59Z</time>
      </trkpt>
      <trkpt lat="42.7842020" lon="-8.6497310">
        <ele>34.8</ele>
        <time>2021-05-23T13:57:00Z</time>
      </trkpt>
      <trkpt lat="42.7841950" lon="-8.6497380">
        <ele>34.8</ele>
        <time>2021-05-23T13:57:01Z</time>
      </trkpt>
      <trkpt lat="42.7841900" lon="-8.6497430">
        <ele>34.8</ele>
        <time>2021-05-23T13:57:02Z</time>
      </trkpt>
      <trkpt lat="42.7841920" lon="-8.6497510">
        <ele>34.8</ele>
        <time>2021-05-23T13:57:03Z</time>
      </trkpt>
      <trkpt lat="42.7841920" lon="-8.6497590">
        <ele>34.8</ele>
        <time>2021-05-23T13:57:04Z</time>
      </trkpt>
      <trkpt lat="42.7841990" lon="-8.6497660">
        <ele>34.8</ele>
        <time>2021-05-23T13:57:05Z</time>
      </trkpt>
      <trkpt lat="42.7842060" lon="-8.6497740">
        <ele>34.8</ele>
        <time>2021-05-23T13:57:06Z</time>
      </trkpt>
      <trkpt lat="42.7842110" lon="-8.6497800">
        <ele>34.8</ele>
        <time>2021-05-23T13:57:07Z</time>
      </trkpt>
      <trkpt lat="42.7842150" lon="-8.6497850">
        <ele>34.8</ele>
        <time>2021-05-23T13:57:08Z</time>
      </trkpt>
      <trkpt lat="42.7842160" lon="-8.6497850">
        <ele>34.8</ele>
        <time>2021-05-23T13:57:09Z</time>
      </trkpt>
      <trkpt lat="42.7842140" lon="-8.6497890">
        <ele>34.8</ele>
        <time>2021-05-23T13:57:10Z</time>
      </trkpt>
      <trkpt lat="42.7842150" lon="-8.6497910">
        <ele>34.8</ele>
        <time>2021-05-23T13:57:11Z</time>
      </trkpt>
      <trkpt lat="42.7842190" lon="-8.6497940">
        <ele>34.8</ele>
        <time>2021-05-23T13:57:12Z</time>
      </trkpt>
      <trkpt lat="42.7842220" lon="-8.6497980">
        <ele>34.8</ele>
        <time>2021-05-23T13:57:13Z</time>
      </trkpt>
      <trkpt lat="42.7842240" lon="-8.6497980">
        <ele>34.8</ele>
        <time>2021-05-23T13:57:14Z</time>
      </trkpt>
      <trkpt lat="42.7842250" lon="-8.6497990">
        <ele>34.8</ele>
        <time>2021-05-23T13:57:15Z</time>
      </trkpt>
      <trkpt lat="42.7842250" lon="-8.6498010">
        <ele>34.8</ele>
        <time>2021-05-23T13:57:16Z</time>
      </trkpt>
      <trkpt lat="42.7842270" lon="-8.6498030">
        <ele>34.8</ele>
        <time>2021-05-23T13:57:17Z</time>
      </trkpt>
      <trkpt lat="42.7842270" lon="-8.6498040">
        <ele>34.8</ele>
        <time>2021-05-23T13:57:18Z</time>
      </trkpt>
      <trkpt lat="42.7842270" lon="-8.6498020">
        <ele>34.8</ele>
        <time>2021-05-23T13:57:19Z</time>
      </trkpt>
      <trkpt lat="42.7842250" lon="-8.6498000">
        <ele>34.8</ele>
        <time>2021-05-23T13:57:20Z</time>
      </trkpt>
      <trkpt lat="42.7842200" lon="-8.6497990">
        <ele>34.8</ele>
        <time>2021-05-23T13:57:21Z</time>
      </trkpt>
      <trkpt lat="42.7842180" lon="-8.6497980">
        <ele>34.8</ele>
        <time>2021-05-23T13:57:22Z</time>
      </trkpt>
      <trkpt lat="42.7842150" lon="-8.6497990">
        <ele>34.8</ele>
        <time>2021-05-23T13:57:23Z</time>
      </trkpt>
      <trkpt lat="42.7842140" lon="-8.6498000">
        <ele>34.8</ele>
        <time>2021-05-23T13:57:24Z</time>
      </trkpt>
      <trkpt lat="42.7842130" lon="-8.6497990">
        <ele>34.8</ele>
        <time>2021-05-23T13:57:25Z</time>
      </trkpt>
      <trkpt lat="42.7842090" lon="-8.6497980">
        <ele>34.8</ele>
        <time>2021-05-23T13:57:26Z</time>
      </trkpt>
      <trkpt lat="42.7842070" lon="-8.6497980">
        <ele>34.8</ele>
        <time>2021-05-23T13:57:27Z</time>
      </trkpt>
      <trkpt lat="42.7842110" lon="-8.6497980">
        <ele>34.8</ele>
        <time>2021-05-23T13:57:28Z</time>
      </trkpt>
      <trkpt lat="42.7842090" lon="-8.6497940">
        <ele>34.8</ele>
        <time>2021-05-23T13:57:29Z</time>
      </trkpt>
      <trkpt lat="42.7842080" lon="-8.6497930">
        <ele>34.8</ele>
        <time>2021-05-23T13:57:30Z</time>
      </trkpt>
      <trkpt lat="42.7842050" lon="-8.6497950">
        <ele>34.8</ele>
        <time>2021-05-23T13:57:31Z</time>
      </trkpt>
      <trkpt lat="42.7842050" lon="-8.6497960">
        <ele>34.8</ele>
        <time>2021-05-23T13:57:32Z</time>
      </trkpt>
      <trkpt lat="42.7842070" lon="-8.6498000">
        <ele>34.8</ele>
        <time>2021-05-23T13:57:33Z</time>
      </trkpt>
      <trkpt lat="42.7842030" lon="-8.6497990">
        <ele>34.9</ele>
        <time>2021-05-23T13:57:34Z</time>
      </trkpt>
      <trkpt lat="42.7842040" lon="-8.6498030">
        <ele>34.9</ele>
        <time>2021-05-23T13:57:35Z</time>
      </trkpt>
      <trkpt lat="42.7842020" lon="-8.6498030">
        <ele>34.9</ele>
        <time>2021-05-23T13:57:36Z</time>
      </trkpt>
      <trkpt lat="42.7842010" lon="-8.6498030">
        <ele>34.9</ele>
        <time>2021-05-23T13:57:37Z</time>
      </trkpt>
      <trkpt lat="42.7841980" lon="-8.6498020">
        <ele>34.9</ele>
        <time>2021-05-23T13:57:38Z</time>
      </trkpt>
      <trkpt lat="42.7841980" lon="-8.6498020">
        <ele>34.9</ele>
        <time>2021-05-23T13:57:39Z</time>
      </trkpt>
      <trkpt lat="42.7841960" lon="-8.6498040">
        <ele>34.9</ele>
        <time>2021-05-23T13:57:40Z</time>
      </trkpt>
      <trkpt lat="42.7841940" lon="-8.6498050">
        <ele>34.9</ele>
        <time>2021-05-23T13:57:41Z</time>
      </trkpt>
      <trkpt lat="42.7841950" lon="-8.6498070">
        <ele>34.9</ele>
        <time>2021-05-23T13:57:42Z</time>
      </trkpt>
      <trkpt lat="42.7841940" lon="-8.6498080">
        <ele>34.9</ele>
        <time>2021-05-23T13:57:43Z</time>
      </trkpt>
      <trkpt lat="42.7841930" lon="-8.6498080">
        <ele>34.9</ele>
        <time>2021-05-23T13:57:44Z</time>
      </trkpt>
      <trkpt lat="42.7841910" lon="-8.6498060">
        <ele>34.9</ele>
        <time>2021-05-23T13:57:45Z</time>
      </trkpt>
      <trkpt lat="42.7841890" lon="-8.6498070">
        <ele>34.9</ele>
        <time>2021-05-23T13:57:46Z</time>
      </trkpt>
      <trkpt lat="42.7841920" lon="-8.6498080">
        <ele>34.9</ele>
        <time>2021-05-23T13:57:47Z</time>
      </trkpt>
      <trkpt lat="42.7841910" lon="-8.6498090">
        <ele>34.9</ele>
        <time>2021-05-23T13:57:48Z</time>
      </trkpt>
      <trkpt lat="42.7841930" lon="-8.6498110">
        <ele>34.9</ele>
        <time>2021-05-23T13:57:49Z</time>
      </trkpt>
      <trkpt lat="42.7841920" lon="-8.6498140">
        <ele>34.9</ele>
        <time>2021-05-23T13:57:50Z</time>
      </trkpt>
      <trkpt lat="42.7841890" lon="-8.6498150">
        <ele>34.9</ele>
        <time>2021-05-23T13:57:51Z</time>
      </trkpt>
      <trkpt lat="42.7841890" lon="-8.6498180">
        <ele>34.9</ele>
        <time>2021-05-23T13:57:52Z</time>
      </trkpt>
      <trkpt lat="42.7841870" lon="-8.6498200">
        <ele>34.9</ele>
        <time>2021-05-23T13:57:53Z</time>
      </trkpt>
      <trkpt lat="42.7841840" lon="-8.6498210">
        <ele>34.9</ele>
        <time>2021-05-23T13:57:54Z</time>
      </trkpt>
      <trkpt lat="42.7841870" lon="-8.6498240">
        <ele>34.9</ele>
        <time>2021-05-23T13:57:55Z</time>
      </trkpt>
      <trkpt lat="42.7841870" lon="-8.6498250">
        <ele>34.9</ele>
        <time>2021-05-23T13:57:56Z</time>
      </trkpt>
      <trkpt lat="42.7841860" lon="-8.6498250">
        <ele>34.9</ele>
        <time>2021-05-23T13:57:57Z</time>
      </trkpt>
      <trkpt lat="42.7841830" lon="-8.6498230">
        <ele>34.9</ele>
        <time>2021-05-23T13:57:58Z</time>
      </trkpt>
      <trkpt lat="42.7841780" lon="-8.6498190">
        <ele>34.9</ele>
        <time>2021-05-23T13:57:59Z</time>
      </trkpt>
      <trkpt lat="42.7841800" lon="-8.6498220">
        <ele>34.9</ele>
        <time>2021-05-23T13:58:00Z</time>
      </trkpt>
      <trkpt lat="42.7841800" lon="-8.6498230">
        <ele>34.9</ele>
        <time>2021-05-23T13:58:01Z</time>
      </trkpt>
      <trkpt lat="42.7841800" lon="-8.6498250">
        <ele>34.9</ele>
        <time>2021-05-23T13:58:02Z</time>
      </trkpt>
      <trkpt lat="42.7841800" lon="-8.6498260">
        <ele>34.9</ele>
        <time>2021-05-23T13:58:03Z</time>
      </trkpt>
      <trkpt lat="42.7841800" lon="-8.6498270">
        <ele>34.9</ele>
        <time>2021-05-23T13:58:04Z</time>
      </trkpt>
      <trkpt lat="42.7841790" lon="-8.6498270">
        <ele>34.9</ele>
        <time>2021-05-23T13:58:05Z</time>
      </trkpt>
      <trkpt lat="42.7841790" lon="-8.6498300">
        <ele>34.9</ele>
        <time>2021-05-23T13:58:06Z</time>
      </trkpt>
      <trkpt lat="42.7841770" lon="-8.6498310">
        <ele>34.9</ele>
        <time>2021-05-23T13:58:07Z</time>
      </trkpt>
      <trkpt lat="42.7841760" lon="-8.6498320">
        <ele>34.9</ele>
        <time>2021-05-23T13:58:08Z</time>
      </trkpt>
      <trkpt lat="42.7841760" lon="-8.6498320">
        <ele>34.9</ele>
        <time>2021-05-23T13:58:09Z</time>
      </trkpt>
      <trkpt lat="42.7841690" lon="-8.6498280">
        <ele>34.9</ele>
        <time>2021-05-23T13:58:10Z</time>
      </trkpt>
      <trkpt lat="42.7841680" lon="-8.6498270">
        <ele>34.9</ele>
        <time>2021-05-23T13:58:11Z</time>
      </trkpt>
      <trkpt lat="42.7841700" lon="-8.6498310">
        <ele>34.9</ele>
        <time>2021-05-23T13:58:12Z</time>
      </trkpt>
      <trkpt lat="42.7841680" lon="-8.6498280">
        <ele>34.9</ele>
        <time>2021-05-23T13:58:13Z</time>
      </trkpt>
      <trkpt lat="42.7841690" lon="-8.6498280">
        <ele>34.9</ele>
        <time>2021-05-23T13:58:14Z</time>
      </trkpt>
      <trkpt lat="42.7841660" lon="-8.6498270">
        <ele>34.9</ele>
        <time>2021-05-23T13:58:15Z</time>
      </trkpt>
      <trkpt lat="42.7841670" lon="-8.6498280">
        <ele>34.9</ele>
        <time>2021-05-23T13:58:16Z</time>
      </trkpt>
      <trkpt lat="42.7841680" lon="-8.6498300">
        <ele>34.9</ele>
        <time>2021-05-23T13:58:17Z</time>
      </trkpt>
      <trkpt lat="42.7841700" lon="-8.6498330">
        <ele>34.9</ele>
        <time>2021-05-23T13:58:18Z</time>
      </trkpt>
      <trkpt lat="42.7841680" lon="-8.6498330">
        <ele>34.9</ele>
        <time>2021-05-23T13:58:19Z</time>
      </trkpt>
      <trkpt lat="42.7841700" lon="-8.6498350">
        <ele>34.9</ele>
        <time>2021-05-23T13:58:20Z</time>
      </trkpt>
      <trkpt lat="42.7841690" lon="-8.6498350">
        <ele>34.9</ele>
        <time>2021-05-23T13:58:21Z</time>
      </trkpt>
      <trkpt lat="42.7841690" lon="-8.6498360">
        <ele>34.9</ele>
        <time>2021-05-23T13:58:22Z</time>
      </trkpt>
      <trkpt lat="42.7841680" lon="-8.6498370">
        <ele>34.9</ele>
        <time>2021-05-23T13:58:23Z</time>
      </trkpt>
      <trkpt lat="42.7841690" lon="-8.6498340">
        <ele>34.9</ele>
        <time>2021-05-23T13:58:24Z</time>
      </trkpt>
      <trkpt lat="42.7841720" lon="-8.6498390">
        <ele>34.9</ele>
        <time>2021-05-23T13:58:25Z</time>
      </trkpt>
      <trkpt lat="42.7841750" lon="-8.6498420">
        <ele>34.9</ele>
        <time>2021-05-23T13:58:26Z</time>
      </trkpt>
      <trkpt lat="42.7841770" lon="-8.6498450">
        <ele>34.9</ele>
        <time>2021-05-23T13:58:27Z</time>
      </trkpt>
      <trkpt lat="42.7841760" lon="-8.6498510">
        <ele>34.9</ele>
        <time>2021-05-23T13:58:28Z</time>
      </trkpt>
      <trkpt lat="42.7841730" lon="-8.6498480">
        <ele>34.9</ele>
        <time>2021-05-23T13:58:29Z</time>
      </trkpt>
      <trkpt lat="42.7841660" lon="-8.6498460">
        <ele>35.0</ele>
        <time>2021-05-23T13:58:30Z</time>
      </trkpt>
      <trkpt lat="42.7841740" lon="-8.6498510">
        <ele>35.0</ele>
        <time>2021-05-23T13:58:31Z</time>
      </trkpt>
      <trkpt lat="42.7841690" lon="-8.6498550">
        <ele>35.0</ele>
        <time>2021-05-23T13:58:32Z</time>
      </trkpt>
      <trkpt lat="42.7841740" lon="-8.6498600">
        <ele>35.0</ele>
        <time>2021-05-23T13:58:33Z</time>
      </trkpt>
      <trkpt lat="42.7841750" lon="-8.6498740">
        <ele>35.0</ele>
        <time>2021-05-23T13:58:34Z</time>
      </trkpt>
      <trkpt lat="42.7841770" lon="-8.6498800">
        <ele>35.0</ele>
        <time>2021-05-23T13:58:35Z</time>
      </trkpt>
      <trkpt lat="42.7841780" lon="-8.6498900">
        <ele>35.0</ele>
        <time>2021-05-23T13:58:36Z</time>
      </trkpt>
      <trkpt lat="42.7841790" lon="-8.6498970">
        <ele>35.0</ele>
        <time>2021-05-23T13:58:37Z</time>
      </trkpt>
      <trkpt lat="42.7841690" lon="-8.6499180">
        <ele>35.0</ele>
        <time>2021-05-23T13:58:38Z</time>
      </trkpt>
      <trkpt lat="42.7841690" lon="-8.6499280">
        <ele>35.0</ele>
        <time>2021-05-23T13:58:39Z</time>
      </trkpt>
      <trkpt lat="42.7841640" lon="-8.6499470">
        <ele>35.0</ele>
        <time>2021-05-23T13:58:41Z</time>
      </trkpt>
      <trkpt lat="42.7841620" lon="-8.6499430">
        <ele>35.0</ele>
        <time>2021-05-23T13:58:42Z</time>
      </trkpt>
      <trkpt lat="42.7841620" lon="-8.6499480">
        <ele>35.0</ele>
        <time>2021-05-23T13:58:43Z</time>
      </trkpt>
      <trkpt lat="42.7841540" lon="-8.6499550">
        <ele>35.0</ele>
        <time>2021-05-23T13:58:44Z</time>
      </trkpt>
      <trkpt lat="42.7841490" lon="-8.6499650">
        <ele>35.0</ele>
        <time>2021-05-23T13:58:45Z</time>
      </trkpt>
      <trkpt lat="42.7841450" lon="-8.6499710">
        <ele>35.0</ele>
        <time>2021-05-23T13:58:46Z</time>
      </trkpt>
      <trkpt lat="42.7841370" lon="-8.6499770">
        <ele>35.1</ele>
        <time>2021-05-23T13:58:47Z</time>
      </trkpt>
      <trkpt lat="42.7841290" lon="-8.6499810">
        <ele>35.1</ele>
        <time>2021-05-23T13:58:48Z</time>
      </trkpt>
      <trkpt lat="42.7841250" lon="-8.6499800">
        <ele>35.1</ele>
        <time>2021-05-23T13:58:49Z</time>
      </trkpt>
      <trkpt lat="42.7841180" lon="-8.6499830">
        <ele>35.1</ele>
        <time>2021-05-23T13:58:50Z</time>
      </trkpt>
      <trkpt lat="42.7841170" lon="-8.6499790">
        <ele>35.1</ele>
        <time>2021-05-23T13:58:51Z</time>
      </trkpt>
      <trkpt lat="42.7841210" lon="-8.6499750">
        <ele>35.1</ele>
        <time>2021-05-23T13:58:52Z</time>
      </trkpt>
      <trkpt lat="42.7841230" lon="-8.6499770">
        <ele>35.1</ele>
        <time>2021-05-23T13:58:53Z</time>
      </trkpt>
      <trkpt lat="42.7841240" lon="-8.6499760">
        <ele>35.1</ele>
        <time>2021-05-23T13:58:54Z</time>
      </trkpt>
      <trkpt lat="42.7841260" lon="-8.6499710">
        <ele>35.1</ele>
        <time>2021-05-23T13:58:55Z</time>
      </trkpt>
      <trkpt lat="42.7841300" lon="-8.6499730">
        <ele>35.1</ele>
        <time>2021-05-23T13:58:56Z</time>
      </trkpt>
      <trkpt lat="42.7841320" lon="-8.6499750">
        <ele>35.1</ele>
        <time>2021-05-23T13:58:57Z</time>
      </trkpt>
      <trkpt lat="42.7841350" lon="-8.6499790">
        <ele>35.1</ele>
        <time>2021-05-23T13:58:58Z</time>
      </trkpt>
      <trkpt lat="42.7841360" lon="-8.6499830">
        <ele>35.1</ele>
        <time>2021-05-23T13:58:59Z</time>
      </trkpt>
      <trkpt lat="42.7841310" lon="-8.6499880">
        <ele>35.1</ele>
        <time>2021-05-23T13:59:00Z</time>
      </trkpt>
      <trkpt lat="42.7841320" lon="-8.6499830">
        <ele>35.1</ele>
        <time>2021-05-23T13:59:01Z</time>
      </trkpt>
      <trkpt lat="42.7841310" lon="-8.6499820">
        <ele>35.1</ele>
        <time>2021-05-23T13:59:02Z</time>
      </trkpt>
      <trkpt lat="42.7841290" lon="-8.6499830">
        <ele>35.1</ele>
        <time>2021-05-23T13:59:03Z</time>
      </trkpt>
      <trkpt lat="42.7841280" lon="-8.6499800">
        <ele>35.1</ele>
        <time>2021-05-23T13:59:04Z</time>
      </trkpt>
      <trkpt lat="42.7841270" lon="-8.6499810">
        <ele>35.1</ele>
        <time>2021-05-23T13:59:05Z</time>
      </trkpt>
      <trkpt lat="42.7841240" lon="-8.6499800">
        <ele>35.1</ele>
        <time>2021-05-23T13:59:06Z</time>
      </trkpt>
      <trkpt lat="42.7841200" lon="-8.6499750">
        <ele>35.1</ele>
        <time>2021-05-23T13:59:07Z</time>
      </trkpt>
      <trkpt lat="42.7841190" lon="-8.6499750">
        <ele>35.1</ele>
        <time>2021-05-23T13:59:08Z</time>
      </trkpt>
      <trkpt lat="42.7841170" lon="-8.6499750">
        <ele>35.1</ele>
        <time>2021-05-23T13:59:09Z</time>
      </trkpt>
      <trkpt lat="42.7841160" lon="-8.6499760">
        <ele>35.1</ele>
        <time>2021-05-23T13:59:10Z</time>
      </trkpt>
      <trkpt lat="42.7841150" lon="-8.6499750">
        <ele>35.1</ele>
        <time>2021-05-23T13:59:11Z</time>
      </trkpt>
      <trkpt lat="42.7841150" lon="-8.6499750">
        <ele>35.1</ele>
        <time>2021-05-23T13:59:12Z</time>
      </trkpt>
      <trkpt lat="42.7841170" lon="-8.6499760">
        <ele>35.1</ele>
        <time>2021-05-23T13:59:13Z</time>
      </trkpt>
      <trkpt lat="42.7841170" lon="-8.6499760">
        <ele>35.1</ele>
        <time>2021-05-23T13:59:14Z</time>
      </trkpt>
      <trkpt lat="42.7841170" lon="-8.6499760">
        <ele>35.1</ele>
        <time>2021-05-23T13:59:15Z</time>
      </trkpt>
      <trkpt lat="42.7841250" lon="-8.6499840">
        <ele>35.1</ele>
        <time>2021-05-23T13:59:16Z</time>
      </trkpt>
      <trkpt lat="42.7841250" lon="-8.6499840">
        <ele>35.1</ele>
        <time>2021-05-23T13:59:17Z</time>
      </trkpt>
      <trkpt lat="42.7841250" lon="-8.6499850">
        <ele>35.1</ele>
        <time>2021-05-23T13:59:18Z</time>
      </trkpt>
      <trkpt lat="42.7841250" lon="-8.6499840">
        <ele>35.1</ele>
        <time>2021-05-23T13:59:19Z</time>
      </trkpt>
      <trkpt lat="42.7841250" lon="-8.6499850">
        <ele>35.1</ele>
        <time>2021-05-23T13:59:20Z</time>
      </trkpt>
      <trkpt lat="42.7841250" lon="-8.6499850">
        <ele>35.1</ele>
        <time>2021-05-23T13:59:21Z</time>
      </trkpt>
      <trkpt lat="42.7841250" lon="-8.6499850">
        <ele>35.1</ele>
        <time>2021-05-23T13:59:22Z</time>
      </trkpt>
      <trkpt lat="42.7841250" lon="-8.6499840">
        <ele>35.1</ele>
        <time>2021-05-23T13:59:23Z</time>
      </trkpt>
      <trkpt lat="42.7841250" lon="-8.6499850">
        <ele>35.1</ele>
        <time>2021-05-23T13:59:24Z</time>
      </trkpt>
      <trkpt lat="42.7841240" lon="-8.6499840">
        <ele>35.1</ele>
        <time>2021-05-23T13:59:25Z</time>
      </trkpt>
      <trkpt lat="42.7841250" lon="-8.6499840">
        <ele>35.1</ele>
        <time>2021-05-23T13:59:26Z</time>
      </trkpt>
      <trkpt lat="42.7841220" lon="-8.6499820">
        <ele>35.1</ele>
        <time>2021-05-23T13:59:27Z</time>
      </trkpt>
      <trkpt lat="42.7841220" lon="-8.6499810">
        <ele>35.1</ele>
        <time>2021-05-23T13:59:28Z</time>
      </trkpt>
      <trkpt lat="42.7841140" lon="-8.6499810">
        <ele>35.1</ele>
        <time>2021-05-23T13:59:29Z</time>
      </trkpt>
      <trkpt lat="42.7841140" lon="-8.6499820">
        <ele>35.1</ele>
        <time>2021-05-23T13:59:30Z</time>
      </trkpt>
      <trkpt lat="42.7841150" lon="-8.6499810">
        <ele>35.1</ele>
        <time>2021-05-23T13:59:31Z</time>
      </trkpt>
      <trkpt lat="42.7841150" lon="-8.6499810">
        <ele>35.1</ele>
        <time>2021-05-23T13:59:32Z</time>
      </trkpt>
      <trkpt lat="42.7841140" lon="-8.6499800">
        <ele>35.1</ele>
        <time>2021-05-23T13:59:33Z</time>
      </trkpt>
      <trkpt lat="42.7841140" lon="-8.6499800">
        <ele>35.1</ele>
        <time>2021-05-23T13:59:34Z</time>
      </trkpt>
      <trkpt lat="42.7841130" lon="-8.6499730">
        <ele>35.1</ele>
        <time>2021-05-23T13:59:35Z</time>
      </trkpt>
      <trkpt lat="42.7841100" lon="-8.6499730">
        <ele>35.1</ele>
        <time>2021-05-23T13:59:36Z</time>
      </trkpt>
      <trkpt lat="42.7841160" lon="-8.6499630">
        <ele>35.2</ele>
        <time>2021-05-23T13:59:37Z</time>
      </trkpt>
      <trkpt lat="42.7841270" lon="-8.6499520">
        <ele>35.2</ele>
        <time>2021-05-23T13:59:38Z</time>
      </trkpt>
      <trkpt lat="42.7841310" lon="-8.6499440">
        <ele>35.2</ele>
        <time>2021-05-23T13:59:39Z</time>
      </trkpt>
      <trkpt lat="42.7841370" lon="-8.6499400">
        <ele>35.2</ele>
        <time>2021-05-23T13:59:40Z</time>
      </trkpt>
      <trkpt lat="42.7841500" lon="-8.6499230">
        <ele>35.2</ele>
        <time>2021-05-23T13:59:41Z</time>
      </trkpt>
      <trkpt lat="42.7841550" lon="-8.6499140">
        <ele>35.2</ele>
        <time>2021-05-23T13:59:42Z</time>
      </trkpt>
      <trkpt lat="42.7841600" lon="-8.6499060">
        <ele>35.2</ele>
        <time>2021-05-23T13:59:43Z</time>
      </trkpt>
      <trkpt lat="42.7841650" lon="-8.6498900">
        <ele>35.2</ele>
        <time>2021-05-23T13:59:44Z</time>
      </trkpt>
      <trkpt lat="42.7841680" lon="-8.6498770">
        <ele>35.2</ele>
        <time>2021-05-23T13:59:45Z</time>
      </trkpt>
      <trkpt lat="42.7841710" lon="-8.6498640">
        <ele>35.2</ele>
        <time>2021-05-23T13:59:46Z</time>
      </trkpt>
      <trkpt lat="42.7841730" lon="-8.6498480">
        <ele>35.2</ele>
        <time>2021-05-23T13:59:47Z</time>
      </trkpt>
      <trkpt lat="42.7841720" lon="-8.6498330">
        <ele>35.2</ele>
        <time>2021-05-23T13:59:48Z</time>
      </trkpt>
      <trkpt lat="42.7841790" lon="-8.6498180">
        <ele>35.3</ele>
        <time>2021-05-23T13:59:49Z</time>
      </trkpt>
      <trkpt lat="42.7841790" lon="-8.6498100">
        <ele>35.3</ele>
        <time>2021-05-23T13:59:50Z</time>
      </trkpt>
      <trkpt lat="42.7841850" lon="-8.6498180">
        <ele>35.3</ele>
        <time>2021-05-23T13:59:51Z</time>
      </trkpt>
      <trkpt lat="42.7841820" lon="-8.6498170">
        <ele>35.3</ele>
        <time>2021-05-23T13:59:52Z</time>
      </trkpt>
      <trkpt lat="42.7841800" lon="-8.6498170">
        <ele>35.3</ele>
        <time>2021-05-23T13:59:53Z</time>
      </trkpt>
      <trkpt lat="42.7841780" lon="-8.6498180">
        <ele>35.3</ele>
        <time>2021-05-23T13:59:54Z</time>
      </trkpt>
      <trkpt lat="42.7841770" lon="-8.6498160">
        <ele>35.3</ele>
        <time>2021-05-23T13:59:55Z</time>
      </trkpt>
      <trkpt lat="42.7841770" lon="-8.6498140">
        <ele>35.3</ele>
        <time>2021-05-23T13:59:56Z</time>
      </trkpt>
      <trkpt lat="42.7841770" lon="-8.6498130">
        <ele>35.3</ele>
        <time>2021-05-23T13:59:57Z</time>
      </trkpt>
      <trkpt lat="42.7841790" lon="-8.6498100">
        <ele>35.3</ele>
        <time>2021-05-23T13:59:58Z</time>
      </trkpt>
      <trkpt lat="42.7841790" lon="-8.6498110">
        <ele>35.3</ele>
        <time>2021-05-23T13:59:59Z</time>
      </trkpt>
      <trkpt lat="42.7841790" lon="-8.6498110">
        <ele>35.3</ele>
        <time>2021-05-23T14:00:00Z</time>
      </trkpt>
      <trkpt lat="42.7841820" lon="-8.6498110">
        <ele>35.3</ele>
        <time>2021-05-23T14:00:01Z</time>
      </trkpt>
      <trkpt lat="42.7841820" lon="-8.6498130">
        <ele>35.3</ele>
        <time>2021-05-23T14:00:02Z</time>
      </trkpt>
      <trkpt lat="42.7841790" lon="-8.6498190">
        <ele>35.3</ele>
        <time>2021-05-23T14:00:03Z</time>
      </trkpt>
      <trkpt lat="42.7841790" lon="-8.6498210">
        <ele>35.3</ele>
        <time>2021-05-23T14:00:04Z</time>
      </trkpt>
      <trkpt lat="42.7841790" lon="-8.6498210">
        <ele>35.3</ele>
        <time>2021-05-23T14:00:05Z</time>
      </trkpt>
      <trkpt lat="42.7841780" lon="-8.6498230">
        <ele>35.3</ele>
        <time>2021-05-23T14:00:06Z</time>
      </trkpt>
      <trkpt lat="42.7841730" lon="-8.6498280">
        <ele>35.3</ele>
        <time>2021-05-23T14:00:07Z</time>
      </trkpt>
      <trkpt lat="42.7841730" lon="-8.6498230">
        <ele>35.3</ele>
        <time>2021-05-23T14:00:08Z</time>
      </trkpt>
      <trkpt lat="42.7841740" lon="-8.6498130">
        <ele>35.3</ele>
        <time>2021-05-23T14:00:09Z</time>
      </trkpt>
      <trkpt lat="42.7841840" lon="-8.6498040">
        <ele>35.3</ele>
        <time>2021-05-23T14:00:10Z</time>
      </trkpt>
      <trkpt lat="42.7841920" lon="-8.6497970">
        <ele>35.3</ele>
        <time>2021-05-23T14:00:11Z</time>
      </trkpt>
      <trkpt lat="42.7841950" lon="-8.6497900">
        <ele>35.3</ele>
        <time>2021-05-23T14:00:12Z</time>
      </trkpt>
      <trkpt lat="42.7842030" lon="-8.6497860">
        <ele>35.3</ele>
        <time>2021-05-23T14:00:13Z</time>
      </trkpt>
      <trkpt lat="42.7842120" lon="-8.6497840">
        <ele>35.3</ele>
        <time>2021-05-23T14:00:14Z</time>
      </trkpt>
      <trkpt lat="42.7842300" lon="-8.6497840">
        <ele>35.3</ele>
        <time>2021-05-23T14:00:16Z</time>
      </trkpt>
      <trkpt lat="42.7842470" lon="-8.6497760">
        <ele>35.4</ele>
        <time>2021-05-23T14:00:17Z</time>
      </trkpt>
      <trkpt lat="42.7842610" lon="-8.6497680">
        <ele>35.4</ele>
        <time>2021-05-23T14:00:18Z</time>
      </trkpt>
      <trkpt lat="42.7842650" lon="-8.6497610">
        <ele>35.4</ele>
        <time>2021-05-23T14:00:19Z</time>
      </trkpt>
      <trkpt lat="42.7842820" lon="-8.6497530">
        <ele>35.4</ele>
        <time>2021-05-23T14:00:20Z</time>
      </trkpt>
      <trkpt lat="42.7842900" lon="-8.6497430">
        <ele>35.4</ele>
        <time>2021-05-23T14:00:21Z</time>
      </trkpt>
      <trkpt lat="42.7843080" lon="-8.6497310">
        <ele>35.4</ele>
        <time>2021-05-23T14:00:22Z</time>
      </trkpt>
      <trkpt lat="42.7843170" lon="-8.6497220">
        <ele>35.4</ele>
        <time>2021-05-23T14:00:23Z</time>
      </trkpt>
      <trkpt lat="42.7843270" lon="-8.6497400">
        <ele>35.4</ele>
        <time>2021-05-23T14:00:24Z</time>
      </trkpt>
      <trkpt lat="42.7843320" lon="-8.6497530">
        <ele>35.4</ele>
        <time>2021-05-23T14:00:25Z</time>
      </trkpt>
      <trkpt lat="42.7843360" lon="-8.6497660">
        <ele>35.5</ele>
        <time>2021-05-23T14:00:26Z</time>
      </trkpt>
      <trkpt lat="42.7843400" lon="-8.6497770">
        <ele>35.5</ele>
        <time>2021-05-23T14:00:27Z</time>
      </trkpt>
      <trkpt lat="42.7843460" lon="-8.6497870">
        <ele>35.5</ele>
        <time>2021-05-23T14:00:28Z</time>
      </trkpt>
      <trkpt lat="42.7843440" lon="-8.6497800">
        <ele>35.5</ele>
        <time>2021-05-23T14:00:29Z</time>
      </trkpt>
      <trkpt lat="42.7843440" lon="-8.6497770">
        <ele>35.5</ele>
        <time>2021-05-23T14:00:30Z</time>
      </trkpt>
      <trkpt lat="42.7843440" lon="-8.6497720">
        <ele>35.5</ele>
        <time>2021-05-23T14:00:31Z</time>
      </trkpt>
      <trkpt lat="42.7843490" lon="-8.6497630">
        <ele>35.5</ele>
        <time>2021-05-23T14:00:32Z</time>
      </trkpt>
      <trkpt lat="42.7843500" lon="-8.6497370">
        <ele>35.5</ele>
        <time>2021-05-23T14:00:33Z</time>
      </trkpt>
      <trkpt lat="42.7843510" lon="-8.6497330">
        <ele>35.5</ele>
        <time>2021-05-23T14:00:34Z</time>
      </trkpt>
      <trkpt lat="42.7843530" lon="-8.6497270">
        <ele>35.5</ele>
        <time>2021-05-23T14:00:35Z</time>
      </trkpt>
      <trkpt lat="42.7843560" lon="-8.6497210">
        <ele>35.5</ele>
        <time>2021-05-23T14:00:36Z</time>
      </trkpt>
      <trkpt lat="42.7843590" lon="-8.6497120">
        <ele>35.5</ele>
        <time>2021-05-23T14:00:37Z</time>
      </trkpt>
      <trkpt lat="42.7843620" lon="-8.6496970">
        <ele>35.5</ele>
        <time>2021-05-23T14:00:38Z</time>
      </trkpt>
      <trkpt lat="42.7843610" lon="-8.6496950">
        <ele>35.5</ele>
        <time>2021-05-23T14:00:39Z</time>
      </trkpt>
      <trkpt lat="42.7843590" lon="-8.6496970">
        <ele>35.5</ele>
        <time>2021-05-23T14:00:40Z</time>
      </trkpt>
      <trkpt lat="42.7843610" lon="-8.6496940">
        <ele>35.5</ele>
        <time>2021-05-23T14:00:41Z</time>
      </trkpt>
      <trkpt lat="42.7843620" lon="-8.6496880">
        <ele>35.5</ele>
        <time>2021-05-23T14:00:42Z</time>
      </trkpt>
      <trkpt lat="42.7843680" lon="-8.6496750">
        <ele>35.5</ele>
        <time>2021-05-23T14:00:43Z</time>
      </trkpt>
      <trkpt lat="42.7843710" lon="-8.6496660">
        <ele>35.5</ele>
        <time>2021-05-23T14:00:44Z</time>
      </trkpt>
      <trkpt lat="42.7843760" lon="-8.6496530">
        <ele>35.6</ele>
        <time>2021-05-23T14:00:45Z</time>
      </trkpt>
      <trkpt lat="42.7843810" lon="-8.6496480">
        <ele>35.6</ele>
        <time>2021-05-23T14:00:46Z</time>
      </trkpt>
      <trkpt lat="42.7843850" lon="-8.6496380">
        <ele>35.6</ele>
        <time>2021-05-23T14:00:47Z</time>
      </trkpt>
      <trkpt lat="42.7843920" lon="-8.6496290">
        <ele>35.6</ele>
        <time>2021-05-23T14:00:48Z</time>
      </trkpt>
      <trkpt lat="42.7844000" lon="-8.6496310">
        <ele>35.6</ele>
        <time>2021-05-23T14:00:49Z</time>
      </trkpt>
      <trkpt lat="42.7844080" lon="-8.6496280">
        <ele>35.6</ele>
        <time>2021-05-23T14:00:50Z</time>
      </trkpt>
      <trkpt lat="42.7844060" lon="-8.6496100">
        <ele>35.6</ele>
        <time>2021-05-23T14:00:51Z</time>
      </trkpt>
      <trkpt lat="42.7844150" lon="-8.6495930">
        <ele>35.6</ele>
        <time>2021-05-23T14:00:52Z</time>
      </trkpt>
      <trkpt lat="42.7844200" lon="-8.6495860">
        <ele>35.6</ele>
        <time>2021-05-23T14:00:53Z</time>
      </trkpt>
      <trkpt lat="42.7844260" lon="-8.6495800">
        <ele>35.6</ele>
        <time>2021-05-23T14:00:54Z</time>
      </trkpt>
      <trkpt lat="42.7844380" lon="-8.6495730">
        <ele>35.6</ele>
        <time>2021-05-23T14:00:55Z</time>
      </trkpt>
      <trkpt lat="42.7844430" lon="-8.6495650">
        <ele>35.6</ele>
        <time>2021-05-23T14:00:56Z</time>
      </trkpt>
      <trkpt lat="42.7844530" lon="-8.6495570">
        <ele>35.6</ele>
        <time>2021-05-23T14:00:57Z</time>
      </trkpt>
      <trkpt lat="42.7844630" lon="-8.6495500">
        <ele>35.6</ele>
        <time>2021-05-23T14:00:58Z</time>
      </trkpt>
      <trkpt lat="42.7844780" lon="-8.6495420">
        <ele>35.7</ele>
        <time>2021-05-23T14:00:59Z</time>
      </trkpt>
      <trkpt lat="42.7844890" lon="-8.6495390">
        <ele>35.7</ele>
        <time>2021-05-23T14:01:00Z</time>
      </trkpt>
      <trkpt lat="42.7844990" lon="-8.6495350">
        <ele>35.7</ele>
        <time>2021-05-23T14:01:01Z</time>
      </trkpt>
      <trkpt lat="42.7845190" lon="-8.6495240">
        <ele>35.7</ele>
        <time>2021-05-23T14:01:02Z</time>
      </trkpt>
      <trkpt lat="42.7845260" lon="-8.6495220">
        <ele>35.7</ele>
        <time>2021-05-23T14:01:03Z</time>
      </trkpt>
      <trkpt lat="42.7845340" lon="-8.6495200">
        <ele>35.7</ele>
        <time>2021-05-23T14:01:04Z</time>
      </trkpt>
      <trkpt lat="42.7845500" lon="-8.6495140">
        <ele>35.7</ele>
        <time>2021-05-23T14:01:05Z</time>
      </trkpt>
      <trkpt lat="42.7845640" lon="-8.6495040">
        <ele>35.7</ele>
        <time>2021-05-23T14:01:06Z</time>
      </trkpt>
      <trkpt lat="42.7845680" lon="-8.6494940">
        <ele>38.3</ele>
        <time>2021-05-23T14:01:07Z</time>
      </trkpt>
      <trkpt lat="42.7845800" lon="-8.6494840">
        <ele>38.5</ele>
        <time>2021-05-23T14:01:08Z</time>
      </trkpt>
      <trkpt lat="42.7845800" lon="-8.6494810">
        <ele>38.5</ele>
        <time>2021-05-23T14:01:09Z</time>
      </trkpt>
      <trkpt lat="42.7845910" lon="-8.6494740">
        <ele>38.6</ele>
        <time>2021-05-23T14:01:10Z</time>
      </trkpt>
      <trkpt lat="42.7845970" lon="-8.6494670">
        <ele>38.7</ele>
        <time>2021-05-23T14:01:11Z</time>
      </trkpt>
      <trkpt lat="42.7846070" lon="-8.6494550">
        <ele>38.8</ele>
        <time>2021-05-23T14:01:12Z</time>
      </trkpt>
      <trkpt lat="42.7846100" lon="-8.6494450">
        <ele>38.9</ele>
        <time>2021-05-23T14:01:13Z</time>
      </trkpt>
      <trkpt lat="42.7846290" lon="-8.6494300">
        <ele>39.1</ele>
        <time>2021-05-23T14:01:14Z</time>
      </trkpt>
      <trkpt lat="42.7846350" lon="-8.6494240">
        <ele>39.2</ele>
        <time>2021-05-23T14:01:15Z</time>
      </trkpt>
      <trkpt lat="42.7846410" lon="-8.6494170">
        <ele>39.3</ele>
        <time>2021-05-23T14:01:16Z</time>
      </trkpt>
      <trkpt lat="42.7846440" lon="-8.6494070">
        <ele>39.4</ele>
        <time>2021-05-23T14:01:17Z</time>
      </trkpt>
      <trkpt lat="42.7846510" lon="-8.6493910">
        <ele>39.5</ele>
        <time>2021-05-23T14:01:18Z</time>
      </trkpt>
      <trkpt lat="42.7846560" lon="-8.6493810">
        <ele>39.6</ele>
        <time>2021-05-23T14:01:19Z</time>
      </trkpt>
      <trkpt lat="42.7846630" lon="-8.6493710">
        <ele>39.7</ele>
        <time>2021-05-23T14:01:20Z</time>
      </trkpt>
      <trkpt lat="42.7846750" lon="-8.6493650">
        <ele>39.8</ele>
        <time>2021-05-23T14:01:21Z</time>
      </trkpt>
      <trkpt lat="42.7846830" lon="-8.6493560">
        <ele>39.9</ele>
        <time>2021-05-23T14:01:22Z</time>
      </trkpt>
      <trkpt lat="42.7846940" lon="-8.6493450">
        <ele>40.0</ele>
        <time>2021-05-23T14:01:23Z</time>
      </trkpt>
      <trkpt lat="42.7847000" lon="-8.6493340">
        <ele>40.1</ele>
        <time>2021-05-23T14:01:24Z</time>
      </trkpt>
      <trkpt lat="42.7847090" lon="-8.6493230">
        <ele>40.2</ele>
        <time>2021-05-23T14:01:25Z</time>
      </trkpt>
      <trkpt lat="42.7847230" lon="-8.6492870">
        <ele>40.5</ele>
        <time>2021-05-23T14:01:26Z</time>
      </trkpt>
      <trkpt lat="42.7847350" lon="-8.6492640">
        <ele>40.7</ele>
        <time>2021-05-23T14:01:28Z</time>
      </trkpt>
      <trkpt lat="42.7847400" lon="-8.6492520">
        <ele>40.8</ele>
        <time>2021-05-23T14:01:29Z</time>
      </trkpt>
      <trkpt lat="42.7847460" lon="-8.6492400">
        <ele>40.9</ele>
        <time>2021-05-23T14:01:30Z</time>
      </trkpt>
      <trkpt lat="42.7847590" lon="-8.6492390">
        <ele>41.0</ele>
        <time>2021-05-23T14:01:31Z</time>
      </trkpt>
      <trkpt lat="42.7847690" lon="-8.6492300">
        <ele>41.1</ele>
        <time>2021-05-23T14:01:32Z</time>
      </trkpt>
      <trkpt lat="42.7847730" lon="-8.6492120">
        <ele>41.2</ele>
        <time>2021-05-23T14:01:33Z</time>
      </trkpt>
      <trkpt lat="42.7847810" lon="-8.6492020">
        <ele>41.3</ele>
        <time>2021-05-23T14:01:34Z</time>
      </trkpt>
      <trkpt lat="42.7847990" lon="-8.6491940">
        <ele>41.5</ele>
        <time>2021-05-23T14:01:35Z</time>
      </trkpt>
      <trkpt lat="42.7848100" lon="-8.6491830">
        <ele>41.6</ele>
        <time>2021-05-23T14:01:36Z</time>
      </trkpt>
      <trkpt lat="42.7848190" lon="-8.6491670">
        <ele>41.7</ele>
        <time>2021-05-23T14:01:37Z</time>
      </trkpt>
      <trkpt lat="42.7848340" lon="-8.6491510">
        <ele>41.9</ele>
        <time>2021-05-23T14:01:38Z</time>
      </trkpt>
      <trkpt lat="42.7848400" lon="-8.6491410">
        <ele>42.0</ele>
        <time>2021-05-23T14:01:39Z</time>
      </trkpt>
      <trkpt lat="42.7848460" lon="-8.6491320">
        <ele>42.1</ele>
        <time>2021-05-23T14:01:40Z</time>
      </trkpt>
      <trkpt lat="42.7848530" lon="-8.6491230">
        <ele>42.1</ele>
        <time>2021-05-23T14:01:41Z</time>
      </trkpt>
      <trkpt lat="42.7848620" lon="-8.6491100">
        <ele>42.3</ele>
        <time>2021-05-23T14:01:42Z</time>
      </trkpt>
      <trkpt lat="42.7848650" lon="-8.6490960">
        <ele>42.4</ele>
        <time>2021-05-23T14:01:43Z</time>
      </trkpt>
      <trkpt lat="42.7848690" lon="-8.6490860">
        <ele>42.4</ele>
        <time>2021-05-23T14:01:44Z</time>
      </trkpt>
      <trkpt lat="42.7848800" lon="-8.6490700">
        <ele>42.6</ele>
        <time>2021-05-23T14:01:45Z</time>
      </trkpt>
      <trkpt lat="42.7848880" lon="-8.6490580">
        <ele>42.7</ele>
        <time>2021-05-23T14:01:46Z</time>
      </trkpt>
      <trkpt lat="42.7848940" lon="-8.6490400">
        <ele>42.8</ele>
        <time>2021-05-23T14:01:47Z</time>
      </trkpt>
      <trkpt lat="42.7848990" lon="-8.6490260">
        <ele>42.9</ele>
        <time>2021-05-23T14:01:48Z</time>
      </trkpt>
      <trkpt lat="42.7849000" lon="-8.6490130">
        <ele>43.0</ele>
        <time>2021-05-23T14:01:49Z</time>
      </trkpt>
      <trkpt lat="42.7849050" lon="-8.6490010">
        <ele>43.0</ele>
        <time>2021-05-23T14:01:50Z</time>
      </trkpt>
      <trkpt lat="42.7849120" lon="-8.6489950">
        <ele>43.1</ele>
        <time>2021-05-23T14:01:51Z</time>
      </trkpt>
      <trkpt lat="42.7849200" lon="-8.6489770">
        <ele>43.2</ele>
        <time>2021-05-23T14:01:52Z</time>
      </trkpt>
      <trkpt lat="42.7849290" lon="-8.6489730">
        <ele>43.3</ele>
        <time>2021-05-23T14:01:53Z</time>
      </trkpt>
      <trkpt lat="42.7849380" lon="-8.6489620">
        <ele>43.4</ele>
        <time>2021-05-23T14:01:54Z</time>
      </trkpt>
      <trkpt lat="42.7849510" lon="-8.6489560">
        <ele>43.5</ele>
        <time>2021-05-23T14:01:55Z</time>
      </trkpt>
      <trkpt lat="42.7849640" lon="-8.6489440">
        <ele>43.7</ele>
        <time>2021-05-23T14:01:56Z</time>
      </trkpt>
      <trkpt lat="42.7849770" lon="-8.6489340">
        <ele>43.8</ele>
        <time>2021-05-23T14:01:57Z</time>
      </trkpt>
      <trkpt lat="42.7849850" lon="-8.6489240">
        <ele>43.9</ele>
        <time>2021-05-23T14:01:58Z</time>
      </trkpt>
      <trkpt lat="42.7849970" lon="-8.6489070">
        <ele>44.0</ele>
        <time>2021-05-23T14:01:59Z</time>
      </trkpt>
      <trkpt lat="42.7850140" lon="-8.6488920">
        <ele>44.2</ele>
        <time>2021-05-23T14:02:00Z</time>
      </trkpt>
      <trkpt lat="42.7850230" lon="-8.6488840">
        <ele>44.2</ele>
        <time>2021-05-23T14:02:01Z</time>
      </trkpt>
      <trkpt lat="42.7850320" lon="-8.6488770">
        <ele>44.3</ele>
        <time>2021-05-23T14:02:02Z</time>
      </trkpt>
      <trkpt lat="42.7850410" lon="-8.6488570">
        <ele>44.4</ele>
        <time>2021-05-23T14:02:03Z</time>
      </trkpt>
      <trkpt lat="42.7850550" lon="-8.6488520">
        <ele>44.6</ele>
        <time>2021-05-23T14:02:04Z</time>
      </trkpt>
      <trkpt lat="42.7850730" lon="-8.6488390">
        <ele>44.7</ele>
        <time>2021-05-23T14:02:05Z</time>
      </trkpt>
      <trkpt lat="42.7850810" lon="-8.6488350">
        <ele>44.8</ele>
        <time>2021-05-23T14:02:06Z</time>
      </trkpt>
      <trkpt lat="42.7850890" lon="-8.6488300">
        <ele>44.8</ele>
        <time>2021-05-23T14:02:07Z</time>
      </trkpt>
      <trkpt lat="42.7851020" lon="-8.6488230">
        <ele>44.9</ele>
        <time>2021-05-23T14:02:08Z</time>
      </trkpt>
      <trkpt lat="42.7851180" lon="-8.6488070">
        <ele>45.1</ele>
        <time>2021-05-23T14:02:09Z</time>
      </trkpt>
      <trkpt lat="42.7851310" lon="-8.6488010">
        <ele>45.2</ele>
        <time>2021-05-23T14:02:10Z</time>
      </trkpt>
      <trkpt lat="42.7851450" lon="-8.6487990">
        <ele>45.3</ele>
        <time>2021-05-23T14:02:11Z</time>
      </trkpt>
      <trkpt lat="42.7851500" lon="-8.6488010">
        <ele>45.3</ele>
        <time>2021-05-23T14:02:12Z</time>
      </trkpt>
      <trkpt lat="42.7851680" lon="-8.6487950">
        <ele>45.4</ele>
        <time>2021-05-23T14:02:13Z</time>
      </trkpt>
      <trkpt lat="42.7851750" lon="-8.6487910">
        <ele>45.5</ele>
        <time>2021-05-23T14:02:14Z</time>
      </trkpt>
      <trkpt lat="42.7851830" lon="-8.6487890">
        <ele>45.5</ele>
        <time>2021-05-23T14:02:15Z</time>
      </trkpt>
      <trkpt lat="42.7852010" lon="-8.6487740">
        <ele>45.7</ele>
        <time>2021-05-23T14:02:16Z</time>
      </trkpt>
      <trkpt lat="42.7852110" lon="-8.6487640">
        <ele>45.8</ele>
        <time>2021-05-23T14:02:17Z</time>
      </trkpt>
      <trkpt lat="42.7852200" lon="-8.6487540">
        <ele>45.8</ele>
        <time>2021-05-23T14:02:18Z</time>
      </trkpt>
      <trkpt lat="42.7852250" lon="-8.6487450">
        <ele>45.9</ele>
        <time>2021-05-23T14:02:19Z</time>
      </trkpt>
      <trkpt lat="42.7852330" lon="-8.6487450">
        <ele>46.0</ele>
        <time>2021-05-23T14:02:20Z</time>
      </trkpt>
      <trkpt lat="42.7852450" lon="-8.6487400">
        <ele>46.0</ele>
        <time>2021-05-23T14:02:21Z</time>
      </trkpt>
      <trkpt lat="42.7852620" lon="-8.6487290">
        <ele>46.2</ele>
        <time>2021-05-23T14:02:22Z</time>
      </trkpt>
      <trkpt lat="42.7852670" lon="-8.6487190">
        <ele>46.2</ele>
        <time>2021-05-23T14:02:23Z</time>
      </trkpt>
      <trkpt lat="42.7852740" lon="-8.6487130">
        <ele>46.3</ele>
        <time>2021-05-23T14:02:24Z</time>
      </trkpt>
      <trkpt lat="42.7852840" lon="-8.6487060">
        <ele>46.3</ele>
        <time>2021-05-23T14:02:25Z</time>
      </trkpt>
      <trkpt lat="42.7852890" lon="-8.6486960">
        <ele>46.4</ele>
        <time>2021-05-23T14:02:26Z</time>
      </trkpt>
      <trkpt lat="42.7852970" lon="-8.6486910">
        <ele>46.4</ele>
        <time>2021-05-23T14:02:27Z</time>
      </trkpt>
      <trkpt lat="42.7853100" lon="-8.6486880">
        <ele>46.5</ele>
        <time>2021-05-23T14:02:28Z</time>
      </trkpt>
      <trkpt lat="42.7853130" lon="-8.6486750">
        <ele>46.6</ele>
        <time>2021-05-23T14:02:29Z</time>
      </trkpt>
      <trkpt lat="42.7853240" lon="-8.6486610">
        <ele>46.7</ele>
        <time>2021-05-23T14:02:30Z</time>
      </trkpt>
      <trkpt lat="42.7853290" lon="-8.6486540">
        <ele>46.7</ele>
        <time>2021-05-23T14:02:31Z</time>
      </trkpt>
      <trkpt lat="42.7853360" lon="-8.6486500">
        <ele>46.8</ele>
        <time>2021-05-23T14:02:32Z</time>
      </trkpt>
      <trkpt lat="42.7853480" lon="-8.6486440">
        <ele>46.8</ele>
        <time>2021-05-23T14:02:33Z</time>
      </trkpt>
      <trkpt lat="42.7853570" lon="-8.6486380">
        <ele>46.9</ele>
        <time>2021-05-23T14:02:34Z</time>
      </trkpt>
      <trkpt lat="42.7853600" lon="-8.6486290">
        <ele>46.9</ele>
        <time>2021-05-23T14:02:35Z</time>
      </trkpt>
      <trkpt lat="42.7853710" lon="-8.6486210">
        <ele>47.0</ele>
        <time>2021-05-23T14:02:36Z</time>
      </trkpt>
      <trkpt lat="42.7853890" lon="-8.6486040">
        <ele>47.1</ele>
        <time>2021-05-23T14:02:37Z</time>
      </trkpt>
      <trkpt lat="42.7853960" lon="-8.6485970">
        <ele>47.1</ele>
        <time>2021-05-23T14:02:38Z</time>
      </trkpt>
      <trkpt lat="42.7854020" lon="-8.6485910">
        <ele>47.2</ele>
        <time>2021-05-23T14:02:39Z</time>
      </trkpt>
      <trkpt lat="42.7854200" lon="-8.6485740">
        <ele>47.3</ele>
        <time>2021-05-23T14:02:40Z</time>
      </trkpt>
      <trkpt lat="42.7854290" lon="-8.6485680">
        <ele>47.3</ele>
        <time>2021-05-23T14:02:41Z</time>
      </trkpt>
      <trkpt lat="42.7854380" lon="-8.6485630">
        <ele>47.4</ele>
        <time>2021-05-23T14:02:42Z</time>
      </trkpt>
      <trkpt lat="42.7854490" lon="-8.6485560">
        <ele>47.4</ele>
        <time>2021-05-23T14:02:43Z</time>
      </trkpt>
      <trkpt lat="42.7854550" lon="-8.6485490">
        <ele>47.5</ele>
        <time>2021-05-23T14:02:44Z</time>
      </trkpt>
      <trkpt lat="42.7854680" lon="-8.6485390">
        <ele>47.5</ele>
        <time>2021-05-23T14:02:45Z</time>
      </trkpt>
      <trkpt lat="42.7854810" lon="-8.6485210">
        <ele>47.6</ele>
        <time>2021-05-23T14:02:46Z</time>
      </trkpt>
      <trkpt lat="42.7854900" lon="-8.6485120">
        <ele>47.7</ele>
        <time>2021-05-23T14:02:47Z</time>
      </trkpt>
      <trkpt lat="42.7854990" lon="-8.6485040">
        <ele>47.7</ele>
        <time>2021-05-23T14:02:48Z</time>
      </trkpt>
      <trkpt lat="42.7855170" lon="-8.6484840">
        <ele>47.8</ele>
        <time>2021-05-23T14:02:49Z</time>
      </trkpt>
      <trkpt lat="42.7855250" lon="-8.6484770">
        <ele>47.9</ele>
        <time>2021-05-23T14:02:50Z</time>
      </trkpt>
      <trkpt lat="42.7855330" lon="-8.6484710">
        <ele>47.9</ele>
        <time>2021-05-23T14:02:51Z</time>
      </trkpt>
      <trkpt lat="42.7855420" lon="-8.6484600">
        <ele>47.9</ele>
        <time>2021-05-23T14:02:52Z</time>
      </trkpt>
      <trkpt lat="42.7855550" lon="-8.6484510">
        <ele>48.0</ele>
        <time>2021-05-23T14:02:53Z</time>
      </trkpt>
      <trkpt lat="42.7855580" lon="-8.6484380">
        <ele>48.0</ele>
        <time>2021-05-23T14:02:54Z</time>
      </trkpt>
      <trkpt lat="42.7855630" lon="-8.6484290">
        <ele>48.1</ele>
        <time>2021-05-23T14:02:55Z</time>
      </trkpt>
      <trkpt lat="42.7855750" lon="-8.6484180">
        <ele>48.1</ele>
        <time>2021-05-23T14:02:56Z</time>
      </trkpt>
      <trkpt lat="42.7855830" lon="-8.6484070">
        <ele>48.2</ele>
        <time>2021-05-23T14:02:57Z</time>
      </trkpt>
      <trkpt lat="42.7856010" lon="-8.6483860">
        <ele>48.3</ele>
        <time>2021-05-23T14:02:58Z</time>
      </trkpt>
      <trkpt lat="42.7856060" lon="-8.6483770">
        <ele>48.3</ele>
        <time>2021-05-23T14:02:59Z</time>
      </trkpt>
      <trkpt lat="42.7856120" lon="-8.6483690">
        <ele>48.3</ele>
        <time>2021-05-23T14:03:00Z</time>
      </trkpt>
      <trkpt lat="42.7856250" lon="-8.6483470">
        <ele>48.3</ele>
        <time>2021-05-23T14:03:01Z</time>
      </trkpt>
      <trkpt lat="42.7856320" lon="-8.6483390">
        <ele>48.4</ele>
        <time>2021-05-23T14:03:02Z</time>
      </trkpt>
      <trkpt lat="42.7856390" lon="-8.6483310">
        <ele>48.4</ele>
        <time>2021-05-23T14:03:03Z</time>
      </trkpt>
      <trkpt lat="42.7856600" lon="-8.6483150">
        <ele>48.4</ele>
        <time>2021-05-23T14:03:04Z</time>
      </trkpt>
      <trkpt lat="42.7856670" lon="-8.6483080">
        <ele>48.4</ele>
        <time>2021-05-23T14:03:05Z</time>
      </trkpt>
      <trkpt lat="42.7856750" lon="-8.6483010">
        <ele>48.5</ele>
        <time>2021-05-23T14:03:06Z</time>
      </trkpt>
      <trkpt lat="42.7856850" lon="-8.6482840">
        <ele>48.5</ele>
        <time>2021-05-23T14:03:07Z</time>
      </trkpt>
      <trkpt lat="42.7856890" lon="-8.6482680">
        <ele>48.5</ele>
        <time>2021-05-23T14:03:08Z</time>
      </trkpt>
      <trkpt lat="42.7857100" lon="-8.6482510">
        <ele>48.6</ele>
        <time>2021-05-23T14:03:09Z</time>
      </trkpt>
      <trkpt lat="42.7857160" lon="-8.6482460">
        <ele>48.6</ele>
        <time>2021-05-23T14:03:10Z</time>
      </trkpt>
      <trkpt lat="42.7857230" lon="-8.6482400">
        <ele>48.6</ele>
        <time>2021-05-23T14:03:11Z</time>
      </trkpt>
      <trkpt lat="42.7857270" lon="-8.6482300">
        <ele>48.6</ele>
        <time>2021-05-23T14:03:12Z</time>
      </trkpt>
      <trkpt lat="42.7857320" lon="-8.6482240">
        <ele>48.6</ele>
        <time>2021-05-23T14:03:13Z</time>
      </trkpt>
      <trkpt lat="42.7857400" lon="-8.6482080">
        <ele>48.7</ele>
        <time>2021-05-23T14:03:14Z</time>
      </trkpt>
      <trkpt lat="42.7857550" lon="-8.6481890">
        <ele>48.7</ele>
        <time>2021-05-23T14:03:15Z</time>
      </trkpt>
      <trkpt lat="42.7857590" lon="-8.6481790">
        <ele>48.7</ele>
        <time>2021-05-23T14:03:16Z</time>
      </trkpt>
      <trkpt lat="42.7857630" lon="-8.6481680">
        <ele>48.7</ele>
        <time>2021-05-23T14:03:17Z</time>
      </trkpt>
      <trkpt lat="42.7857710" lon="-8.6481610">
        <ele>48.8</ele>
        <time>2021-05-23T14:03:18Z</time>
      </trkpt>
      <trkpt lat="42.7857810" lon="-8.6481470">
        <ele>48.8</ele>
        <time>2021-05-23T14:03:19Z</time>
      </trkpt>
      <trkpt lat="42.7857890" lon="-8.6481350">
        <ele>48.8</ele>
        <time>2021-05-23T14:03:20Z</time>
      </trkpt>
      <trkpt lat="42.7858030" lon="-8.6481070">
        <ele>48.9</ele>
        <time>2021-05-23T14:03:21Z</time>
      </trkpt>
      <trkpt lat="42.7858100" lon="-8.6480980">
        <ele>48.9</ele>
        <time>2021-05-23T14:03:22Z</time>
      </trkpt>
      <trkpt lat="42.7858160" lon="-8.6480890">
        <ele>48.9</ele>
        <time>2021-05-23T14:03:23Z</time>
      </trkpt>
      <trkpt lat="42.7858190" lon="-8.6480710">
        <ele>49.0</ele>
        <time>2021-05-23T14:03:24Z</time>
      </trkpt>
      <trkpt lat="42.7858320" lon="-8.6480700">
        <ele>49.0</ele>
        <time>2021-05-23T14:03:25Z</time>
      </trkpt>
      <trkpt lat="42.7858430" lon="-8.6480570">
        <ele>49.0</ele>
        <time>2021-05-23T14:03:26Z</time>
      </trkpt>
      <trkpt lat="42.7858450" lon="-8.6480510">
        <ele>49.0</ele>
        <time>2021-05-23T14:03:27Z</time>
      </trkpt>
      <trkpt lat="42.7858550" lon="-8.6480360">
        <ele>49.1</ele>
        <time>2021-05-23T14:03:28Z</time>
      </trkpt>
      <trkpt lat="42.7858640" lon="-8.6480280">
        <ele>49.1</ele>
        <time>2021-05-23T14:03:29Z</time>
      </trkpt>
      <trkpt lat="42.7858800" lon="-8.6480070">
        <ele>49.2</ele>
        <time>2021-05-23T14:03:30Z</time>
      </trkpt>
      <trkpt lat="42.7858860" lon="-8.6480030">
        <ele>49.2</ele>
        <time>2021-05-23T14:03:31Z</time>
      </trkpt>
      <trkpt lat="42.7858930" lon="-8.6479980">
        <ele>49.2</ele>
        <time>2021-05-23T14:03:32Z</time>
      </trkpt>
      <trkpt lat="42.7859050" lon="-8.6479730">
        <ele>49.3</ele>
        <time>2021-05-23T14:03:33Z</time>
      </trkpt>
      <trkpt lat="42.7859100" lon="-8.6479650">
        <ele>49.3</ele>
        <time>2021-05-23T14:03:34Z</time>
      </trkpt>
      <trkpt lat="42.7859140" lon="-8.6479570">
        <ele>49.3</ele>
        <time>2021-05-23T14:03:35Z</time>
      </trkpt>
      <trkpt lat="42.7859260" lon="-8.6479430">
        <ele>49.3</ele>
        <time>2021-05-23T14:03:36Z</time>
      </trkpt>
      <trkpt lat="42.7859340" lon="-8.6479260">
        <ele>49.4</ele>
        <time>2021-05-23T14:03:37Z</time>
      </trkpt>
      <trkpt lat="42.7859490" lon="-8.6479050">
        <ele>49.4</ele>
        <time>2021-05-23T14:03:38Z</time>
      </trkpt>
      <trkpt lat="42.7859550" lon="-8.6478970">
        <ele>49.4</ele>
        <time>2021-05-23T14:03:39Z</time>
      </trkpt>
      <trkpt lat="42.7859610" lon="-8.6478890">
        <ele>49.5</ele>
        <time>2021-05-23T14:03:40Z</time>
      </trkpt>
      <trkpt lat="42.7859710" lon="-8.6478710">
        <ele>49.5</ele>
        <time>2021-05-23T14:03:41Z</time>
      </trkpt>
      <trkpt lat="42.7859770" lon="-8.6478660">
        <ele>49.5</ele>
        <time>2021-05-23T14:03:42Z</time>
      </trkpt>
      <trkpt lat="42.7859830" lon="-8.6478600">
        <ele>49.6</ele>
        <time>2021-05-23T14:03:43Z</time>
      </trkpt>
      <trkpt lat="42.7859890" lon="-8.6478550">
        <ele>49.6</ele>
        <time>2021-05-23T14:03:44Z</time>
      </trkpt>
      <trkpt lat="42.7860080" lon="-8.6478440">
        <ele>49.7</ele>
        <time>2021-05-23T14:03:45Z</time>
      </trkpt>
      <trkpt lat="42.7860180" lon="-8.6478400">
        <ele>49.7</ele>
        <time>2021-05-23T14:03:46Z</time>
      </trkpt>
      <trkpt lat="42.7860290" lon="-8.6478350">
        <ele>49.7</ele>
        <time>2021-05-23T14:03:47Z</time>
      </trkpt>
      <trkpt lat="42.7860390" lon="-8.6478320">
        <ele>49.8</ele>
        <time>2021-05-23T14:03:48Z</time>
      </trkpt>
      <trkpt lat="42.7860510" lon="-8.6478290">
        <ele>49.8</ele>
        <time>2021-05-23T14:03:49Z</time>
      </trkpt>
      <trkpt lat="42.7860570" lon="-8.6478270">
        <ele>49.8</ele>
        <time>2021-05-23T14:03:50Z</time>
      </trkpt>
      <trkpt lat="42.7860700" lon="-8.6478230">
        <ele>49.8</ele>
        <time>2021-05-23T14:03:51Z</time>
      </trkpt>
      <trkpt lat="42.7860850" lon="-8.6478140">
        <ele>49.9</ele>
        <time>2021-05-23T14:03:52Z</time>
      </trkpt>
      <trkpt lat="42.7860990" lon="-8.6478060">
        <ele>49.9</ele>
        <time>2021-05-23T14:03:53Z</time>
      </trkpt>
      <trkpt lat="42.7861080" lon="-8.6478080">
        <ele>49.9</ele>
        <time>2021-05-23T14:03:54Z</time>
      </trkpt>
      <trkpt lat="42.7861170" lon="-8.6478020">
        <ele>50.0</ele>
        <time>2021-05-23T14:03:55Z</time>
      </trkpt>
      <trkpt lat="42.7861390" lon="-8.6477950">
        <ele>50.0</ele>
        <time>2021-05-23T14:03:56Z</time>
      </trkpt>
      <trkpt lat="42.7861470" lon="-8.6477910">
        <ele>50.1</ele>
        <time>2021-05-23T14:03:57Z</time>
      </trkpt>
      <trkpt lat="42.7861560" lon="-8.6477880">
        <ele>50.1</ele>
        <time>2021-05-23T14:03:58Z</time>
      </trkpt>
      <trkpt lat="42.7861710" lon="-8.6477850">
        <ele>50.1</ele>
        <time>2021-05-23T14:03:59Z</time>
      </trkpt>
      <trkpt lat="42.7861760" lon="-8.6477780">
        <ele>50.2</ele>
        <time>2021-05-23T14:04:00Z</time>
      </trkpt>
      <trkpt lat="42.7861880" lon="-8.6477780">
        <ele>50.2</ele>
        <time>2021-05-23T14:04:01Z</time>
      </trkpt>
      <trkpt lat="42.7862080" lon="-8.6477770">
        <ele>50.3</ele>
        <time>2021-05-23T14:04:02Z</time>
      </trkpt>
      <trkpt lat="42.7862170" lon="-8.6477790">
        <ele>50.3</ele>
        <time>2021-05-23T14:04:03Z</time>
      </trkpt>
      <trkpt lat="42.7862270" lon="-8.6477800">
        <ele>50.3</ele>
        <time>2021-05-23T14:04:04Z</time>
      </trkpt>
      <trkpt lat="42.7862380" lon="-8.6477790">
        <ele>50.4</ele>
        <time>2021-05-23T14:04:05Z</time>
      </trkpt>
      <trkpt lat="42.7862530" lon="-8.6477780">
        <ele>50.4</ele>
        <time>2021-05-23T14:04:06Z</time>
      </trkpt>
      <trkpt lat="42.7862620" lon="-8.6477800">
        <ele>50.4</ele>
        <time>2021-05-23T14:04:07Z</time>
      </trkpt>
      <trkpt lat="42.7862770" lon="-8.6477800">
        <ele>50.5</ele>
        <time>2021-05-23T14:04:08Z</time>
      </trkpt>
      <trkpt lat="42.7862870" lon="-8.6477840">
        <ele>50.5</ele>
        <time>2021-05-23T14:04:09Z</time>
      </trkpt>
      <trkpt lat="42.7862960" lon="-8.6477900">
        <ele>50.5</ele>
        <time>2021-05-23T14:04:10Z</time>
      </trkpt>
      <trkpt lat="42.7863100" lon="-8.6477950">
        <ele>50.6</ele>
        <time>2021-05-23T14:04:11Z</time>
      </trkpt>
      <trkpt lat="42.7863240" lon="-8.6477990">
        <ele>50.6</ele>
        <time>2021-05-23T14:04:12Z</time>
      </trkpt>
      <trkpt lat="42.7863340" lon="-8.6478000">
        <ele>50.7</ele>
        <time>2021-05-23T14:04:13Z</time>
      </trkpt>
      <trkpt lat="42.7863530" lon="-8.6478130">
        <ele>50.7</ele>
        <time>2021-05-23T14:04:14Z</time>
      </trkpt>
      <trkpt lat="42.7863530" lon="-8.6478240">
        <ele>50.8</ele>
        <time>2021-05-23T14:04:15Z</time>
      </trkpt>
      <trkpt lat="42.7863640" lon="-8.6478300">
        <ele>50.8</ele>
        <time>2021-05-23T14:04:16Z</time>
      </trkpt>
      <trkpt lat="42.7863690" lon="-8.6478430">
        <ele>50.8</ele>
        <time>2021-05-23T14:04:17Z</time>
      </trkpt>
      <trkpt lat="42.7863800" lon="-8.6478560">
        <ele>50.9</ele>
        <time>2021-05-23T14:04:18Z</time>
      </trkpt>
      <trkpt lat="42.7863950" lon="-8.6478610">
        <ele>50.9</ele>
        <time>2021-05-23T14:04:19Z</time>
      </trkpt>
      <trkpt lat="42.7864060" lon="-8.6478740">
        <ele>51.0</ele>
        <time>2021-05-23T14:04:20Z</time>
      </trkpt>
      <trkpt lat="42.7864160" lon="-8.6478850">
        <ele>51.0</ele>
        <time>2021-05-23T14:04:21Z</time>
      </trkpt>
      <trkpt lat="42.7864240" lon="-8.6478960">
        <ele>51.0</ele>
        <time>2021-05-23T14:04:22Z</time>
      </trkpt>
      <trkpt lat="42.7864310" lon="-8.6479040">
        <ele>51.1</ele>
        <time>2021-05-23T14:04:23Z</time>
      </trkpt>
      <trkpt lat="42.7864370" lon="-8.6479130">
        <ele>51.1</ele>
        <time>2021-05-23T14:04:24Z</time>
      </trkpt>
      <trkpt lat="42.7864430" lon="-8.6479210">
        <ele>51.1</ele>
        <time>2021-05-23T14:04:25Z</time>
      </trkpt>
      <trkpt lat="42.7864590" lon="-8.6479360">
        <ele>51.2</ele>
        <time>2021-05-23T14:04:26Z</time>
      </trkpt>
      <trkpt lat="42.7864670" lon="-8.6479410">
        <ele>51.2</ele>
        <time>2021-05-23T14:04:27Z</time>
      </trkpt>
      <trkpt lat="42.7864760" lon="-8.6479450">
        <ele>51.2</ele>
        <time>2021-05-23T14:04:28Z</time>
      </trkpt>
      <trkpt lat="42.7864860" lon="-8.6479500">
        <ele>51.3</ele>
        <time>2021-05-23T14:04:29Z</time>
      </trkpt>
      <trkpt lat="42.7864940" lon="-8.6479500">
        <ele>51.3</ele>
        <time>2021-05-23T14:04:30Z</time>
      </trkpt>
      <trkpt lat="42.7865040" lon="-8.6479520">
        <ele>51.3</ele>
        <time>2021-05-23T14:04:31Z</time>
      </trkpt>
      <trkpt lat="42.7865250" lon="-8.6479480">
        <ele>51.3</ele>
        <time>2021-05-23T14:04:32Z</time>
      </trkpt>
      <trkpt lat="42.7865320" lon="-8.6479480">
        <ele>51.4</ele>
        <time>2021-05-23T14:04:33Z</time>
      </trkpt>
      <trkpt lat="42.7865400" lon="-8.6479490">
        <ele>51.4</ele>
        <time>2021-05-23T14:04:34Z</time>
      </trkpt>
      <trkpt lat="42.7865610" lon="-8.6479510">
        <ele>51.4</ele>
        <time>2021-05-23T14:04:35Z</time>
      </trkpt>
      <trkpt lat="42.7865710" lon="-8.6479500">
        <ele>51.4</ele>
        <time>2021-05-23T14:04:36Z</time>
      </trkpt>
      <trkpt lat="42.7865800" lon="-8.6479500">
        <ele>51.5</ele>
        <time>2021-05-23T14:04:37Z</time>
      </trkpt>
      <trkpt lat="42.7865880" lon="-8.6479520">
        <ele>51.5</ele>
        <time>2021-05-23T14:04:38Z</time>
      </trkpt>
      <trkpt lat="42.7866050" lon="-8.6479560">
        <ele>51.5</ele>
        <time>2021-05-23T14:04:39Z</time>
      </trkpt>
      <trkpt lat="42.7866130" lon="-8.6479560">
        <ele>51.5</ele>
        <time>2021-05-23T14:04:40Z</time>
      </trkpt>
      <trkpt lat="42.7866240" lon="-8.6479570">
        <ele>51.5</ele>
        <time>2021-05-23T14:04:41Z</time>
      </trkpt>
      <trkpt lat="42.7866310" lon="-8.6479590">
        <ele>51.5</ele>
        <time>2021-05-23T14:04:42Z</time>
      </trkpt>
      <trkpt lat="42.7866460" lon="-8.6479630">
        <ele>51.5</ele>
        <time>2021-05-23T14:04:43Z</time>
      </trkpt>
      <trkpt lat="42.7866520" lon="-8.6479650">
        <ele>51.5</ele>
        <time>2021-05-23T14:04:44Z</time>
      </trkpt>
      <trkpt lat="42.7866740" lon="-8.6479590">
        <ele>51.6</ele>
        <time>2021-05-23T14:04:45Z</time>
      </trkpt>
      <trkpt lat="42.7866870" lon="-8.6479570">
        <ele>51.6</ele>
        <time>2021-05-23T14:04:46Z</time>
      </trkpt>
      <trkpt lat="42.7866970" lon="-8.6479630">
        <ele>51.6</ele>
        <time>2021-05-23T14:04:47Z</time>
      </trkpt>
      <trkpt lat="42.7867080" lon="-8.6479640">
        <ele>51.6</ele>
        <time>2021-05-23T14:04:48Z</time>
      </trkpt>
      <trkpt lat="42.7867280" lon="-8.6479720">
        <ele>51.6</ele>
        <time>2021-05-23T14:04:49Z</time>
      </trkpt>
      <trkpt lat="42.7867380" lon="-8.6479750">
        <ele>51.6</ele>
        <time>2021-05-23T14:04:50Z</time>
      </trkpt>
      <trkpt lat="42.7867470" lon="-8.6479790">
        <ele>51.6</ele>
        <time>2021-05-23T14:04:51Z</time>
      </trkpt>
      <trkpt lat="42.7867670" lon="-8.6479940">
        <ele>51.6</ele>
        <time>2021-05-23T14:04:52Z</time>
      </trkpt>
      <trkpt lat="42.7867730" lon="-8.6480000">
        <ele>51.6</ele>
        <time>2021-05-23T14:04:53Z</time>
      </trkpt>
      <trkpt lat="42.7867800" lon="-8.6480060">
        <ele>51.6</ele>
        <time>2021-05-23T14:04:54Z</time>
      </trkpt>
      <trkpt lat="42.7867910" lon="-8.6480170">
        <ele>51.6</ele>
        <time>2021-05-23T14:04:55Z</time>
      </trkpt>
      <trkpt lat="42.7868040" lon="-8.6480280">
        <ele>51.6</ele>
        <time>2021-05-23T14:04:56Z</time>
      </trkpt>
      <trkpt lat="42.7868200" lon="-8.6480420">
        <ele>51.6</ele>
        <time>2021-05-23T14:04:57Z</time>
      </trkpt>
      <trkpt lat="42.7868260" lon="-8.6480520">
        <ele>51.6</ele>
        <time>2021-05-23T14:04:58Z</time>
      </trkpt>
      <trkpt lat="42.7868500" lon="-8.6480650">
        <ele>51.6</ele>
        <time>2021-05-23T14:04:59Z</time>
      </trkpt>
      <trkpt lat="42.7868600" lon="-8.6480710">
        <ele>51.7</ele>
        <time>2021-05-23T14:05:00Z</time>
      </trkpt>
      <trkpt lat="42.7868690" lon="-8.6480780">
        <ele>51.7</ele>
        <time>2021-05-23T14:05:01Z</time>
      </trkpt>
      <trkpt lat="42.7868730" lon="-8.6480830">
        <ele>51.7</ele>
        <time>2021-05-23T14:05:02Z</time>
      </trkpt>
      <trkpt lat="42.7868800" lon="-8.6480840">
        <ele>51.7</ele>
        <time>2021-05-23T14:05:03Z</time>
      </trkpt>
      <trkpt lat="42.7868920" lon="-8.6480900">
        <ele>51.7</ele>
        <time>2021-05-23T14:05:04Z</time>
      </trkpt>
      <trkpt lat="42.7869050" lon="-8.6480910">
        <ele>51.7</ele>
        <time>2021-05-23T14:05:05Z</time>
      </trkpt>
      <trkpt lat="42.7869260" lon="-8.6480980">
        <ele>51.7</ele>
        <time>2021-05-23T14:05:06Z</time>
      </trkpt>
      <trkpt lat="42.7869350" lon="-8.6481000">
        <ele>51.7</ele>
        <time>2021-05-23T14:05:07Z</time>
      </trkpt>
      <trkpt lat="42.7869440" lon="-8.6481010">
        <ele>51.7</ele>
        <time>2021-05-23T14:05:08Z</time>
      </trkpt>
      <trkpt lat="42.7869630" lon="-8.6480980">
        <ele>51.7</ele>
        <time>2021-05-23T14:05:09Z</time>
      </trkpt>
      <trkpt lat="42.7869740" lon="-8.6480920">
        <ele>51.7</ele>
        <time>2021-05-23T14:05:10Z</time>
      </trkpt>
      <trkpt lat="42.7869840" lon="-8.6480870">
        <ele>51.8</ele>
        <time>2021-05-23T14:05:11Z</time>
      </trkpt>
      <trkpt lat="42.7869910" lon="-8.6480780">
        <ele>51.8</ele>
        <time>2021-05-23T14:05:12Z</time>
      </trkpt>
      <trkpt lat="42.7870040" lon="-8.6480630">
        <ele>51.8</ele>
        <time>2021-05-23T14:05:13Z</time>
      </trkpt>
      <trkpt lat="42.7870150" lon="-8.6480530">
        <ele>51.8</ele>
        <time>2021-05-23T14:05:14Z</time>
      </trkpt>
      <trkpt lat="42.7870290" lon="-8.6480420">
        <ele>51.8</ele>
        <time>2021-05-23T14:05:15Z</time>
      </trkpt>
      <trkpt lat="42.7870330" lon="-8.6480400">
        <ele>51.8</ele>
        <time>2021-05-23T14:05:16Z</time>
      </trkpt>
      <trkpt lat="42.7870450" lon="-8.6480270">
        <ele>51.8</ele>
        <time>2021-05-23T14:05:17Z</time>
      </trkpt>
      <trkpt lat="42.7870550" lon="-8.6480160">
        <ele>51.9</ele>
        <time>2021-05-23T14:05:18Z</time>
      </trkpt>
      <trkpt lat="42.7870650" lon="-8.6480100">
        <ele>51.9</ele>
        <time>2021-05-23T14:05:19Z</time>
      </trkpt>
      <trkpt lat="42.7870760" lon="-8.6480030">
        <ele>51.9</ele>
        <time>2021-05-23T14:05:20Z</time>
      </trkpt>
      <trkpt lat="42.7870850" lon="-8.6479970">
        <ele>51.9</ele>
        <time>2021-05-23T14:05:21Z</time>
      </trkpt>
      <trkpt lat="42.7870950" lon="-8.6479920">
        <ele>51.9</ele>
        <time>2021-05-23T14:05:22Z</time>
      </trkpt>
      <trkpt lat="42.7871050" lon="-8.6479830">
        <ele>51.9</ele>
        <time>2021-05-23T14:05:23Z</time>
      </trkpt>
      <trkpt lat="42.7871180" lon="-8.6479770">
        <ele>51.9</ele>
        <time>2021-05-23T14:05:24Z</time>
      </trkpt>
      <trkpt lat="42.7871290" lon="-8.6479690">
        <ele>51.9</ele>
        <time>2021-05-23T14:05:25Z</time>
      </trkpt>
      <trkpt lat="42.7871350" lon="-8.6479660">
        <ele>52.0</ele>
        <time>2021-05-23T14:05:26Z</time>
      </trkpt>
      <trkpt lat="42.7871430" lon="-8.6479600">
        <ele>52.0</ele>
        <time>2021-05-23T14:05:27Z</time>
      </trkpt>
      <trkpt lat="42.7871510" lon="-8.6479470">
        <ele>52.0</ele>
        <time>2021-05-23T14:05:28Z</time>
      </trkpt>
      <trkpt lat="42.7871650" lon="-8.6479320">
        <ele>52.0</ele>
        <time>2021-05-23T14:05:29Z</time>
      </trkpt>
      <trkpt lat="42.7871640" lon="-8.6479320">
        <ele>52.0</ele>
        <time>2021-05-23T14:05:30Z</time>
      </trkpt>
      <trkpt lat="42.7871700" lon="-8.6479390">
        <ele>52.0</ele>
        <time>2021-05-23T14:05:31Z</time>
      </trkpt>
      <trkpt lat="42.7871790" lon="-8.6479280">
        <ele>52.0</ele>
        <time>2021-05-23T14:05:32Z</time>
      </trkpt>
      <trkpt lat="42.7871990" lon="-8.6479220">
        <ele>52.1</ele>
        <time>2021-05-23T14:05:33Z</time>
      </trkpt>
      <trkpt lat="42.7872110" lon="-8.6479120">
        <ele>52.1</ele>
        <time>2021-05-23T14:05:34Z</time>
      </trkpt>
      <trkpt lat="42.7872260" lon="-8.6478990">
        <ele>52.1</ele>
        <time>2021-05-23T14:05:35Z</time>
      </trkpt>
      <trkpt lat="42.7872420" lon="-8.6478920">
        <ele>52.1</ele>
        <time>2021-05-23T14:05:36Z</time>
      </trkpt>
      <trkpt lat="42.7872550" lon="-8.6478850">
        <ele>52.1</ele>
        <time>2021-05-23T14:05:37Z</time>
      </trkpt>
      <trkpt lat="42.7872730" lon="-8.6478730">
        <ele>52.1</ele>
        <time>2021-05-23T14:05:38Z</time>
      </trkpt>
      <trkpt lat="42.7872800" lon="-8.6478680">
        <ele>52.1</ele>
        <time>2021-05-23T14:05:39Z</time>
      </trkpt>
      <trkpt lat="42.7872880" lon="-8.6478640">
        <ele>52.1</ele>
        <time>2021-05-23T14:05:40Z</time>
      </trkpt>
      <trkpt lat="42.7872990" lon="-8.6478620">
        <ele>52.2</ele>
        <time>2021-05-23T14:05:41Z</time>
      </trkpt>
      <trkpt lat="42.7873110" lon="-8.6478550">
        <ele>52.2</ele>
        <time>2021-05-23T14:05:42Z</time>
      </trkpt>
      <trkpt lat="42.7873220" lon="-8.6478490">
        <ele>52.2</ele>
        <time>2021-05-23T14:05:43Z</time>
      </trkpt>
      <trkpt lat="42.7873330" lon="-8.6478430">
        <ele>52.2</ele>
        <time>2021-05-23T14:05:44Z</time>
      </trkpt>
      <trkpt lat="42.7873510" lon="-8.6478320">
        <ele>52.2</ele>
        <time>2021-05-23T14:05:45Z</time>
      </trkpt>
      <trkpt lat="42.7873580" lon="-8.6478230">
        <ele>52.2</ele>
        <time>2021-05-23T14:05:46Z</time>
      </trkpt>
      <trkpt lat="42.7873640" lon="-8.6478120">
        <ele>52.2</ele>
        <time>2021-05-23T14:05:47Z</time>
      </trkpt>
      <trkpt lat="42.7873770" lon="-8.6478050">
        <ele>52.2</ele>
        <time>2021-05-23T14:05:48Z</time>
      </trkpt>
      <trkpt lat="42.7873860" lon="-8.6477990">
        <ele>52.2</ele>
        <time>2021-05-23T14:05:49Z</time>
      </trkpt>
      <trkpt lat="42.7873940" lon="-8.6477880">
        <ele>52.2</ele>
        <time>2021-05-23T14:05:50Z</time>
      </trkpt>
      <trkpt lat="42.7874050" lon="-8.6477760">
        <ele>52.2</ele>
        <time>2021-05-23T14:05:51Z</time>
      </trkpt>
      <trkpt lat="42.7874130" lon="-8.6477600">
        <ele>52.2</ele>
        <time>2021-05-23T14:05:52Z</time>
      </trkpt>
      <trkpt lat="42.7874220" lon="-8.6477400">
        <ele>52.2</ele>
        <time>2021-05-23T14:05:53Z</time>
      </trkpt>
      <trkpt lat="42.7874290" lon="-8.6477300">
        <ele>52.2</ele>
        <time>2021-05-23T14:05:54Z</time>
      </trkpt>
      <trkpt lat="42.7874360" lon="-8.6477220">
        <ele>52.2</ele>
        <time>2021-05-23T14:05:55Z</time>
      </trkpt>
      <trkpt lat="42.7874430" lon="-8.6477140">
        <ele>52.2</ele>
        <time>2021-05-23T14:05:56Z</time>
      </trkpt>
      <trkpt lat="42.7874440" lon="-8.6477020">
        <ele>52.2</ele>
        <time>2021-05-23T14:05:57Z</time>
      </trkpt>
      <trkpt lat="42.7874460" lon="-8.6476930">
        <ele>52.2</ele>
        <time>2021-05-23T14:05:58Z</time>
      </trkpt>
      <trkpt lat="42.7874420" lon="-8.6477030">
        <ele>52.2</ele>
        <time>2021-05-23T14:05:59Z</time>
      </trkpt>
      <trkpt lat="42.7874440" lon="-8.6477020">
        <ele>52.2</ele>
        <time>2021-05-23T14:06:00Z</time>
      </trkpt>
      <trkpt lat="42.7874430" lon="-8.6477000">
        <ele>52.2</ele>
        <time>2021-05-23T14:06:01Z</time>
      </trkpt>
      <trkpt lat="42.7874420" lon="-8.6477000">
        <ele>52.2</ele>
        <time>2021-05-23T14:06:02Z</time>
      </trkpt>
      <trkpt lat="42.7874390" lon="-8.6476980">
        <ele>52.2</ele>
        <time>2021-05-23T14:06:03Z</time>
      </trkpt>
      <trkpt lat="42.7874380" lon="-8.6476970">
        <ele>52.2</ele>
        <time>2021-05-23T14:06:04Z</time>
      </trkpt>
      <trkpt lat="42.7874380" lon="-8.6476970">
        <ele>52.2</ele>
        <time>2021-05-23T14:06:05Z</time>
      </trkpt>
      <trkpt lat="42.7874360" lon="-8.6476980">
        <ele>52.2</ele>
        <time>2021-05-23T14:06:06Z</time>
      </trkpt>
      <trkpt lat="42.7874350" lon="-8.6477010">
        <ele>52.2</ele>
        <time>2021-05-23T14:06:07Z</time>
      </trkpt>
      <trkpt lat="42.7874370" lon="-8.6477010">
        <ele>52.2</ele>
        <time>2021-05-23T14:06:08Z</time>
      </trkpt>
      <trkpt lat="42.7874380" lon="-8.6477020">
        <ele>52.2</ele>
        <time>2021-05-23T14:06:09Z</time>
      </trkpt>
      <trkpt lat="42.7874390" lon="-8.6477010">
        <ele>52.2</ele>
        <time>2021-05-23T14:06:10Z</time>
      </trkpt>
      <trkpt lat="42.7874380" lon="-8.6477020">
        <ele>52.2</ele>
        <time>2021-05-23T14:06:11Z</time>
      </trkpt>
      <trkpt lat="42.7874360" lon="-8.6477010">
        <ele>52.2</ele>
        <time>2021-05-23T14:06:12Z</time>
      </trkpt>
      <trkpt lat="42.7874360" lon="-8.6477020">
        <ele>52.2</ele>
        <time>2021-05-23T14:06:13Z</time>
      </trkpt>
      <trkpt lat="42.7874360" lon="-8.6477020">
        <ele>52.2</ele>
        <time>2021-05-23T14:06:14Z</time>
      </trkpt>
      <trkpt lat="42.7874360" lon="-8.6477040">
        <ele>52.2</ele>
        <time>2021-05-23T14:06:15Z</time>
      </trkpt>
      <trkpt lat="42.7874350" lon="-8.6477070">
        <ele>52.2</ele>
        <time>2021-05-23T14:06:16Z</time>
      </trkpt>
      <trkpt lat="42.7874350" lon="-8.6477070">
        <ele>52.2</ele>
        <time>2021-05-23T14:06:17Z</time>
      </trkpt>
      <trkpt lat="42.7874330" lon="-8.6477070">
        <ele>52.2</ele>
        <time>2021-05-23T14:06:18Z</time>
      </trkpt>
      <trkpt lat="42.7874350" lon="-8.6477070">
        <ele>52.2</ele>
        <time>2021-05-23T14:06:19Z</time>
      </trkpt>
      <trkpt lat="42.7874400" lon="-8.6477120">
        <ele>52.2</ele>
        <time>2021-05-23T14:06:20Z</time>
      </trkpt>
      <trkpt lat="42.7874390" lon="-8.6477110">
        <ele>52.2</ele>
        <time>2021-05-23T14:06:21Z</time>
      </trkpt>
      <trkpt lat="42.7874380" lon="-8.6477160">
        <ele>52.2</ele>
        <time>2021-05-23T14:06:22Z</time>
      </trkpt>
      <trkpt lat="42.7874420" lon="-8.6477250">
        <ele>52.2</ele>
        <time>2021-05-23T14:06:23Z</time>
      </trkpt>
      <trkpt lat="42.7874420" lon="-8.6477410">
        <ele>52.2</ele>
        <time>2021-05-23T14:06:24Z</time>
      </trkpt>
      <trkpt lat="42.7874460" lon="-8.6477400">
        <ele>52.2</ele>
        <time>2021-05-23T14:06:25Z</time>
      </trkpt>
      <trkpt lat="42.7874550" lon="-8.6477490">
        <ele>52.2</ele>
        <time>2021-05-23T14:06:26Z</time>
      </trkpt>
      <trkpt lat="42.7874690" lon="-8.6477420">
        <ele>52.2</ele>
        <time>2021-05-23T14:06:27Z</time>
      </trkpt>
      <trkpt lat="42.7874800" lon="-8.6477490">
        <ele>52.2</ele>
        <time>2021-05-23T14:06:28Z</time>
      </trkpt>
      <trkpt lat="42.7874910" lon="-8.6477440">
        <ele>52.2</ele>
        <time>2021-05-23T14:06:29Z</time>
      </trkpt>
      <trkpt lat="42.7875010" lon="-8.6477410">
        <ele>52.2</ele>
        <time>2021-05-23T14:06:30Z</time>
      </trkpt>
      <trkpt lat="42.7875100" lon="-8.6477370">
        <ele>52.2</ele>
        <time>2021-05-23T14:06:31Z</time>
      </trkpt>
      <trkpt lat="42.7875160" lon="-8.6477280">
        <ele>52.2</ele>
        <time>2021-05-23T14:06:32Z</time>
      </trkpt>
      <trkpt lat="42.7875160" lon="-8.6477320">
        <ele>52.2</ele>
        <time>2021-05-23T14:06:33Z</time>
      </trkpt>
      <trkpt lat="42.7875140" lon="-8.6477320">
        <ele>52.2</ele>
        <time>2021-05-23T14:06:34Z</time>
      </trkpt>
      <trkpt lat="42.7875150" lon="-8.6477300">
        <ele>52.2</ele>
        <time>2021-05-23T14:06:35Z</time>
      </trkpt>
      <trkpt lat="42.7875140" lon="-8.6477340">
        <ele>52.2</ele>
        <time>2021-05-23T14:06:36Z</time>
      </trkpt>
      <trkpt lat="42.7875140" lon="-8.6477330">
        <ele>52.2</ele>
        <time>2021-05-23T14:06:37Z</time>
      </trkpt>
      <trkpt lat="42.7875140" lon="-8.6477320">
        <ele>52.2</ele>
        <time>2021-05-23T14:06:38Z</time>
      </trkpt>
      <trkpt lat="42.7875160" lon="-8.6477320">
        <ele>52.2</ele>
        <time>2021-05-23T14:06:39Z</time>
      </trkpt>
      <trkpt lat="42.7875180" lon="-8.6477320">
        <ele>52.2</ele>
        <time>2021-05-23T14:06:40Z</time>
      </trkpt>
      <trkpt lat="42.7875180" lon="-8.6477320">
        <ele>52.2</ele>
        <time>2021-05-23T14:06:41Z</time>
      </trkpt>
      <trkpt lat="42.7875180" lon="-8.6477320">
        <ele>52.2</ele>
        <time>2021-05-23T14:06:42Z</time>
      </trkpt>
      <trkpt lat="42.7875200" lon="-8.6477430">
        <ele>52.3</ele>
        <time>2021-05-23T14:06:43Z</time>
      </trkpt>
      <trkpt lat="42.7875310" lon="-8.6477440">
        <ele>52.3</ele>
        <time>2021-05-23T14:06:44Z</time>
      </trkpt>
      <trkpt lat="42.7875450" lon="-8.6477590">
        <ele>52.3</ele>
        <time>2021-05-23T14:06:45Z</time>
      </trkpt>
      <trkpt lat="42.7875600" lon="-8.6477600">
        <ele>52.3</ele>
        <time>2021-05-23T14:06:46Z</time>
      </trkpt>
      <trkpt lat="42.7875710" lon="-8.6477540">
        <ele>52.3</ele>
        <time>2021-05-23T14:06:47Z</time>
      </trkpt>
      <trkpt lat="42.7875770" lon="-8.6477560">
        <ele>52.3</ele>
        <time>2021-05-23T14:06:48Z</time>
      </trkpt>
      <trkpt lat="42.7875910" lon="-8.6477480">
        <ele>52.3</ele>
        <time>2021-05-23T14:06:49Z</time>
      </trkpt>
      <trkpt lat="42.7876030" lon="-8.6477460">
        <ele>52.3</ele>
        <time>2021-05-23T14:06:50Z</time>
      </trkpt>
      <trkpt lat="42.7876130" lon="-8.6477450">
        <ele>52.3</ele>
        <time>2021-05-23T14:06:51Z</time>
      </trkpt>
      <trkpt lat="42.7876400" lon="-8.6477430">
        <ele>52.3</ele>
        <time>2021-05-23T14:06:52Z</time>
      </trkpt>
      <trkpt lat="42.7876480" lon="-8.6477430">
        <ele>52.3</ele>
        <time>2021-05-23T14:06:53Z</time>
      </trkpt>
      <trkpt lat="42.7876570" lon="-8.6477420">
        <ele>52.3</ele>
        <time>2021-05-23T14:06:54Z</time>
      </trkpt>
      <trkpt lat="42.7876720" lon="-8.6477400">
        <ele>52.3</ele>
        <time>2021-05-23T14:06:55Z</time>
      </trkpt>
      <trkpt lat="42.7876850" lon="-8.6477320">
        <ele>52.4</ele>
        <time>2021-05-23T14:06:56Z</time>
      </trkpt>
      <trkpt lat="42.7876980" lon="-8.6477310">
        <ele>52.4</ele>
        <time>2021-05-23T14:06:57Z</time>
      </trkpt>
      <trkpt lat="42.7877130" lon="-8.6477270">
        <ele>52.4</ele>
        <time>2021-05-23T14:06:58Z</time>
      </trkpt>
      <trkpt lat="42.7877270" lon="-8.6477210">
        <ele>52.4</ele>
        <time>2021-05-23T14:06:59Z</time>
      </trkpt>
      <trkpt lat="42.7877420" lon="-8.6477160">
        <ele>52.4</ele>
        <time>2021-05-23T14:07:00Z</time>
      </trkpt>
      <trkpt lat="42.7877580" lon="-8.6477170">
        <ele>52.4</ele>
        <time>2021-05-23T14:07:01Z</time>
      </trkpt>
      <trkpt lat="42.7877690" lon="-8.6477170">
        <ele>52.4</ele>
        <time>2021-05-23T14:07:02Z</time>
      </trkpt>
      <trkpt lat="42.7877790" lon="-8.6477160">
        <ele>52.4</ele>
        <time>2021-05-23T14:07:03Z</time>
      </trkpt>
      <trkpt lat="42.7877910" lon="-8.6477130">
        <ele>52.4</ele>
        <time>2021-05-23T14:07:04Z</time>
      </trkpt>
      <trkpt lat="42.7878020" lon="-8.6477150">
        <ele>52.5</ele>
        <time>2021-05-23T14:07:05Z</time>
      </trkpt>
      <trkpt lat="42.7878120" lon="-8.6477150">
        <ele>52.5</ele>
        <time>2021-05-23T14:07:06Z</time>
      </trkpt>
      <trkpt lat="42.7878200" lon="-8.6477170">
        <ele>52.5</ele>
        <time>2021-05-23T14:07:07Z</time>
      </trkpt>
      <trkpt lat="42.7878370" lon="-8.6477150">
        <ele>52.5</ele>
        <time>2021-05-23T14:07:08Z</time>
      </trkpt>
      <trkpt lat="42.7878500" lon="-8.6477160">
        <ele>52.5</ele>
        <time>2021-05-23T14:07:09Z</time>
      </trkpt>
      <trkpt lat="42.7878650" lon="-8.6477110">
        <ele>52.5</ele>
        <time>2021-05-23T14:07:10Z</time>
      </trkpt>
      <trkpt lat="42.7878770" lon="-8.6477090">
        <ele>52.5</ele>
        <time>2021-05-23T14:07:11Z</time>
      </trkpt>
      <trkpt lat="42.7878930" lon="-8.6477130">
        <ele>52.5</ele>
        <time>2021-05-23T14:07:12Z</time>
      </trkpt>
      <trkpt lat="42.7879080" lon="-8.6477130">
        <ele>52.6</ele>
        <time>2021-05-23T14:07:13Z</time>
      </trkpt>
      <trkpt lat="42.7879240" lon="-8.6477160">
        <ele>52.6</ele>
        <time>2021-05-23T14:07:14Z</time>
      </trkpt>
      <trkpt lat="42.7879400" lon="-8.6477150">
        <ele>52.6</ele>
        <time>2021-05-23T14:07:15Z</time>
      </trkpt>
      <trkpt lat="42.7879560" lon="-8.6477160">
        <ele>52.6</ele>
        <time>2021-05-23T14:07:16Z</time>
      </trkpt>
      <trkpt lat="42.7879720" lon="-8.6477130">
        <ele>52.6</ele>
        <time>2021-05-23T14:07:17Z</time>
      </trkpt>
      <trkpt lat="42.7879870" lon="-8.6477090">
        <ele>52.6</ele>
        <time>2021-05-23T14:07:18Z</time>
      </trkpt>
      <trkpt lat="42.7880020" lon="-8.6477110">
        <ele>52.7</ele>
        <time>2021-05-23T14:07:19Z</time>
      </trkpt>
      <trkpt lat="42.7880170" lon="-8.6477090">
        <ele>52.7</ele>
        <time>2021-05-23T14:07:20Z</time>
      </trkpt>
      <trkpt lat="42.7880320" lon="-8.6477080">
        <ele>52.7</ele>
        <time>2021-05-23T14:07:21Z</time>
      </trkpt>
      <trkpt lat="42.7880460" lon="-8.6477070">
        <ele>52.7</ele>
        <time>2021-05-23T14:07:22Z</time>
      </trkpt>
      <trkpt lat="42.7880590" lon="-8.6477020">
        <ele>52.7</ele>
        <time>2021-05-23T14:07:23Z</time>
      </trkpt>
      <trkpt lat="42.7880740" lon="-8.6477030">
        <ele>52.7</ele>
        <time>2021-05-23T14:07:24Z</time>
      </trkpt>
      <trkpt lat="42.7880940" lon="-8.6476990">
        <ele>52.8</ele>
        <time>2021-05-23T14:07:25Z</time>
      </trkpt>
      <trkpt lat="42.7881030" lon="-8.6476960">
        <ele>52.8</ele>
        <time>2021-05-23T14:07:26Z</time>
      </trkpt>
      <trkpt lat="42.7881120" lon="-8.6476940">
        <ele>52.8</ele>
        <time>2021-05-23T14:07:27Z</time>
      </trkpt>
      <trkpt lat="42.7881240" lon="-8.6476880">
        <ele>52.8</ele>
        <time>2021-05-23T14:07:28Z</time>
      </trkpt>
      <trkpt lat="42.7881370" lon="-8.6476780">
        <ele>52.8</ele>
        <time>2021-05-23T14:07:29Z</time>
      </trkpt>
      <trkpt lat="42.7881420" lon="-8.6476670">
        <ele>52.8</ele>
        <time>2021-05-23T14:07:30Z</time>
      </trkpt>
      <trkpt lat="42.7881430" lon="-8.6476670">
        <ele>52.8</ele>
        <time>2021-05-23T14:07:31Z</time>
      </trkpt>
      <trkpt lat="42.7881430" lon="-8.6476660">
        <ele>52.8</ele>
        <time>2021-05-23T14:07:32Z</time>
      </trkpt>
      <trkpt lat="42.7881370" lon="-8.6476680">
        <ele>52.9</ele>
        <time>2021-05-23T14:07:33Z</time>
      </trkpt>
      <trkpt lat="42.7881380" lon="-8.6476690">
        <ele>52.9</ele>
        <time>2021-05-23T14:07:34Z</time>
      </trkpt>
      <trkpt lat="42.7881380" lon="-8.6476630">
        <ele>52.9</ele>
        <time>2021-05-23T14:07:35Z</time>
      </trkpt>
      <trkpt lat="42.7881420" lon="-8.6476510">
        <ele>52.9</ele>
        <time>2021-05-23T14:07:36Z</time>
      </trkpt>
      <trkpt lat="42.7881380" lon="-8.6476410">
        <ele>52.9</ele>
        <time>2021-05-23T14:07:37Z</time>
      </trkpt>
      <trkpt lat="42.7881370" lon="-8.6476360">
        <ele>52.9</ele>
        <time>2021-05-23T14:07:38Z</time>
      </trkpt>
      <trkpt lat="42.7881410" lon="-8.6476240">
        <ele>52.9</ele>
        <time>2021-05-23T14:07:39Z</time>
      </trkpt>
      <trkpt lat="42.7881360" lon="-8.6476120">
        <ele>52.9</ele>
        <time>2021-05-23T14:07:40Z</time>
      </trkpt>
      <trkpt lat="42.7881330" lon="-8.6476020">
        <ele>52.9</ele>
        <time>2021-05-23T14:07:41Z</time>
      </trkpt>
      <trkpt lat="42.7881250" lon="-8.6475730">
        <ele>52.9</ele>
        <time>2021-05-23T14:07:42Z</time>
      </trkpt>
      <trkpt lat="42.7881240" lon="-8.6475610">
        <ele>52.9</ele>
        <time>2021-05-23T14:07:43Z</time>
      </trkpt>
      <trkpt lat="42.7881230" lon="-8.6475500">
        <ele>52.9</ele>
        <time>2021-05-23T14:07:44Z</time>
      </trkpt>
      <trkpt lat="42.7881180" lon="-8.6475320">
        <ele>52.9</ele>
        <time>2021-05-23T14:07:45Z</time>
      </trkpt>
      <trkpt lat="42.7881150" lon="-8.6475210">
        <ele>52.9</ele>
        <time>2021-05-23T14:07:46Z</time>
      </trkpt>
      <trkpt lat="42.7881100" lon="-8.6475040">
        <ele>52.9</ele>
        <time>2021-05-23T14:07:47Z</time>
      </trkpt>
      <trkpt lat="42.7881070" lon="-8.6474920">
        <ele>52.9</ele>
        <time>2021-05-23T14:07:48Z</time>
      </trkpt>
      <trkpt lat="42.7881040" lon="-8.6474710">
        <ele>52.9</ele>
        <time>2021-05-23T14:07:49Z</time>
      </trkpt>
      <trkpt lat="42.7880990" lon="-8.6474600">
        <ele>53.0</ele>
        <time>2021-05-23T14:07:50Z</time>
      </trkpt>
      <trkpt lat="42.7880980" lon="-8.6474400">
        <ele>53.0</ele>
        <time>2021-05-23T14:07:51Z</time>
      </trkpt>
      <trkpt lat="42.7880930" lon="-8.6474190">
        <ele>53.0</ele>
        <time>2021-05-23T14:07:52Z</time>
      </trkpt>
      <trkpt lat="42.7880910" lon="-8.6474030">
        <ele>53.0</ele>
        <time>2021-05-23T14:07:53Z</time>
      </trkpt>
      <trkpt lat="42.7880870" lon="-8.6473910">
        <ele>53.0</ele>
        <time>2021-05-23T14:07:54Z</time>
      </trkpt>
      <trkpt lat="42.7880900" lon="-8.6473710">
        <ele>53.0</ele>
        <time>2021-05-23T14:07:55Z</time>
      </trkpt>
      <trkpt lat="42.7880850" lon="-8.6473560">
        <ele>53.0</ele>
        <time>2021-05-23T14:07:56Z</time>
      </trkpt>
      <trkpt lat="42.7880840" lon="-8.6473470">
        <ele>53.0</ele>
        <time>2021-05-23T14:07:57Z</time>
      </trkpt>
      <trkpt lat="42.7880760" lon="-8.6473250">
        <ele>53.1</ele>
        <time>2021-05-23T14:07:58Z</time>
      </trkpt>
      <trkpt lat="42.7880740" lon="-8.6473160">
        <ele>53.1</ele>
        <time>2021-05-23T14:07:59Z</time>
      </trkpt>
      <trkpt lat="42.7880740" lon="-8.6472990">
        <ele>53.1</ele>
        <time>2021-05-23T14:08:00Z</time>
      </trkpt>
      <trkpt lat="42.7880650" lon="-8.6472790">
        <ele>53.1</ele>
        <time>2021-05-23T14:08:01Z</time>
      </trkpt>
      <trkpt lat="42.7880650" lon="-8.6472650">
        <ele>53.1</ele>
        <time>2021-05-23T14:08:02Z</time>
      </trkpt>
      <trkpt lat="42.7880620" lon="-8.6472430">
        <ele>53.1</ele>
        <time>2021-05-23T14:08:03Z</time>
      </trkpt>
      <trkpt lat="42.7880690" lon="-8.6472330">
        <ele>53.1</ele>
        <time>2021-05-23T14:08:04Z</time>
      </trkpt>
      <trkpt lat="42.7880770" lon="-8.6472250">
        <ele>53.1</ele>
        <time>2021-05-23T14:08:05Z</time>
      </trkpt>
      <trkpt lat="42.7880860" lon="-8.6472160">
        <ele>53.1</ele>
        <time>2021-05-23T14:08:06Z</time>
      </trkpt>
      <trkpt lat="42.7880940" lon="-8.6472070">
        <ele>53.0</ele>
        <time>2021-05-23T14:08:07Z</time>
      </trkpt>
      <trkpt lat="42.7881170" lon="-8.6471880">
        <ele>53.0</ele>
        <time>2021-05-23T14:08:08Z</time>
      </trkpt>
      <trkpt lat="42.7881230" lon="-8.6471840">
        <ele>53.0</ele>
        <time>2021-05-23T14:08:09Z</time>
      </trkpt>
      <trkpt lat="42.7881300" lon="-8.6471810">
        <ele>53.0</ele>
        <time>2021-05-23T14:08:10Z</time>
      </trkpt>
      <trkpt lat="42.7881390" lon="-8.6471790">
        <ele>52.9</ele>
        <time>2021-05-23T14:08:11Z</time>
      </trkpt>
      <trkpt lat="42.7881530" lon="-8.6471710">
        <ele>52.9</ele>
        <time>2021-05-23T14:08:12Z</time>
      </trkpt>
      <trkpt lat="42.7881630" lon="-8.6471670">
        <ele>52.9</ele>
        <time>2021-05-23T14:08:13Z</time>
      </trkpt>
      <trkpt lat="42.7881770" lon="-8.6471530">
        <ele>52.8</ele>
        <time>2021-05-23T14:08:14Z</time>
      </trkpt>
      <trkpt lat="42.7881890" lon="-8.6471500">
        <ele>52.8</ele>
        <time>2021-05-23T14:08:15Z</time>
      </trkpt>
      <trkpt lat="42.7882050" lon="-8.6471510">
        <ele>52.8</ele>
        <time>2021-05-23T14:08:16Z</time>
      </trkpt>
      <trkpt lat="42.7882140" lon="-8.6471480">
        <ele>52.8</ele>
        <time>2021-05-23T14:08:17Z</time>
      </trkpt>
      <trkpt lat="42.7882230" lon="-8.6471480">
        <ele>52.8</ele>
        <time>2021-05-23T14:08:18Z</time>
      </trkpt>
      <trkpt lat="42.7882390" lon="-8.6471390">
        <ele>52.7</ele>
        <time>2021-05-23T14:08:19Z</time>
      </trkpt>
      <trkpt lat="42.7882500" lon="-8.6471350">
        <ele>52.7</ele>
        <time>2021-05-23T14:08:20Z</time>
      </trkpt>
      <trkpt lat="42.7882630" lon="-8.6471270">
        <ele>52.7</ele>
        <time>2021-05-23T14:08:21Z</time>
      </trkpt>
      <trkpt lat="42.7882740" lon="-8.6471180">
        <ele>52.7</ele>
        <time>2021-05-23T14:08:22Z</time>
      </trkpt>
      <trkpt lat="42.7882930" lon="-8.6471150">
        <ele>52.6</ele>
        <time>2021-05-23T14:08:23Z</time>
      </trkpt>
      <trkpt lat="42.7883040" lon="-8.6471130">
        <ele>52.6</ele>
        <time>2021-05-23T14:08:24Z</time>
      </trkpt>
      <trkpt lat="42.7883150" lon="-8.6471110">
        <ele>52.6</ele>
        <time>2021-05-23T14:08:25Z</time>
      </trkpt>
      <trkpt lat="42.7883320" lon="-8.6471080">
        <ele>52.6</ele>
        <time>2021-05-23T14:08:26Z</time>
      </trkpt>
      <trkpt lat="42.7883460" lon="-8.6471060">
        <ele>52.6</ele>
        <time>2021-05-23T14:08:27Z</time>
      </trkpt>
      <trkpt lat="42.7883600" lon="-8.6471010">
        <ele>52.6</ele>
        <time>2021-05-23T14:08:28Z</time>
      </trkpt>
      <trkpt lat="42.7883750" lon="-8.6471020">
        <ele>52.5</ele>
        <time>2021-05-23T14:08:29Z</time>
      </trkpt>
      <trkpt lat="42.7883880" lon="-8.6470940">
        <ele>52.5</ele>
        <time>2021-05-23T14:08:30Z</time>
      </trkpt>
      <trkpt lat="42.7884050" lon="-8.6470880">
        <ele>52.5</ele>
        <time>2021-05-23T14:08:31Z</time>
      </trkpt>
      <trkpt lat="42.7884180" lon="-8.6470830">
        <ele>52.5</ele>
        <time>2021-05-23T14:08:32Z</time>
      </trkpt>
      <trkpt lat="42.7884340" lon="-8.6470800">
        <ele>52.5</ele>
        <time>2021-05-23T14:08:33Z</time>
      </trkpt>
      <trkpt lat="42.7884490" lon="-8.6470810">
        <ele>52.4</ele>
        <time>2021-05-23T14:08:34Z</time>
      </trkpt>
      <trkpt lat="42.7884650" lon="-8.6470760">
        <ele>52.4</ele>
        <time>2021-05-23T14:08:35Z</time>
      </trkpt>
      <trkpt lat="42.7884800" lon="-8.6470740">
        <ele>52.4</ele>
        <time>2021-05-23T14:08:36Z</time>
      </trkpt>
      <trkpt lat="42.7884960" lon="-8.6470680">
        <ele>52.4</ele>
        <time>2021-05-23T14:08:37Z</time>
      </trkpt>
      <trkpt lat="42.7885120" lon="-8.6470650">
        <ele>52.4</ele>
        <time>2021-05-23T14:08:38Z</time>
      </trkpt>
      <trkpt lat="42.7885270" lon="-8.6470600">
        <ele>52.3</ele>
        <time>2021-05-23T14:08:39Z</time>
      </trkpt>
      <trkpt lat="42.7885430" lon="-8.6470610">
        <ele>52.3</ele>
        <time>2021-05-23T14:08:40Z</time>
      </trkpt>
      <trkpt lat="42.7885580" lon="-8.6470560">
        <ele>52.3</ele>
        <time>2021-05-23T14:08:41Z</time>
      </trkpt>
      <trkpt lat="42.7885720" lon="-8.6470530">
        <ele>52.3</ele>
        <time>2021-05-23T14:08:42Z</time>
      </trkpt>
      <trkpt lat="42.7885870" lon="-8.6470480">
        <ele>52.3</ele>
        <time>2021-05-23T14:08:43Z</time>
      </trkpt>
      <trkpt lat="42.7886000" lon="-8.6470430">
        <ele>52.3</ele>
        <time>2021-05-23T14:08:44Z</time>
      </trkpt>
      <trkpt lat="42.7886150" lon="-8.6470410">
        <ele>52.2</ele>
        <time>2021-05-23T14:08:45Z</time>
      </trkpt>
      <trkpt lat="42.7886290" lon="-8.6470350">
        <ele>52.2</ele>
        <time>2021-05-23T14:08:46Z</time>
      </trkpt>
      <trkpt lat="42.7886450" lon="-8.6470330">
        <ele>52.2</ele>
        <time>2021-05-23T14:08:47Z</time>
      </trkpt>
      <trkpt lat="42.7886600" lon="-8.6470350">
        <ele>52.2</ele>
        <time>2021-05-23T14:08:48Z</time>
      </trkpt>
      <trkpt lat="42.7886740" lon="-8.6470290">
        <ele>52.2</ele>
        <time>2021-05-23T14:08:49Z</time>
      </trkpt>
      <trkpt lat="42.7886890" lon="-8.6470310">
        <ele>52.2</ele>
        <time>2021-05-23T14:08:50Z</time>
      </trkpt>
      <trkpt lat="42.7887030" lon="-8.6470250">
        <ele>52.2</ele>
        <time>2021-05-23T14:08:51Z</time>
      </trkpt>
      <trkpt lat="42.7887160" lon="-8.6470200">
        <ele>52.1</ele>
        <time>2021-05-23T14:08:52Z</time>
      </trkpt>
      <trkpt lat="42.7887300" lon="-8.6470180">
        <ele>52.1</ele>
        <time>2021-05-23T14:08:53Z</time>
      </trkpt>
      <trkpt lat="42.7887430" lon="-8.6470110">
        <ele>52.1</ele>
        <time>2021-05-23T14:08:54Z</time>
      </trkpt>
      <trkpt lat="42.7887550" lon="-8.6470010">
        <ele>52.1</ele>
        <time>2021-05-23T14:08:55Z</time>
      </trkpt>
      <trkpt lat="42.7887700" lon="-8.6469970">
        <ele>52.1</ele>
        <time>2021-05-23T14:08:56Z</time>
      </trkpt>
      <trkpt lat="42.7887830" lon="-8.6469920">
        <ele>52.1</ele>
        <time>2021-05-23T14:08:57Z</time>
      </trkpt>
      <trkpt lat="42.7887970" lon="-8.6469930">
        <ele>52.1</ele>
        <time>2021-05-23T14:08:58Z</time>
      </trkpt>
      <trkpt lat="42.7888100" lon="-8.6469860">
        <ele>52.1</ele>
        <time>2021-05-23T14:08:59Z</time>
      </trkpt>
      <trkpt lat="42.7888260" lon="-8.6469820">
        <ele>52.1</ele>
        <time>2021-05-23T14:09:00Z</time>
      </trkpt>
      <trkpt lat="42.7888380" lon="-8.6469790">
        <ele>52.1</ele>
        <time>2021-05-23T14:09:01Z</time>
      </trkpt>
      <trkpt lat="42.7888520" lon="-8.6469760">
        <ele>52.0</ele>
        <time>2021-05-23T14:09:02Z</time>
      </trkpt>
      <trkpt lat="42.7888650" lon="-8.6469700">
        <ele>52.0</ele>
        <time>2021-05-23T14:09:03Z</time>
      </trkpt>
      <trkpt lat="42.7888790" lon="-8.6469690">
        <ele>52.0</ele>
        <time>2021-05-23T14:09:04Z</time>
      </trkpt>
      <trkpt lat="42.7888930" lon="-8.6469650">
        <ele>52.0</ele>
        <time>2021-05-23T14:09:05Z</time>
      </trkpt>
      <trkpt lat="42.7889150" lon="-8.6469610">
        <ele>52.0</ele>
        <time>2021-05-23T14:09:06Z</time>
      </trkpt>
      <trkpt lat="42.7889250" lon="-8.6469610">
        <ele>52.0</ele>
        <time>2021-05-23T14:09:07Z</time>
      </trkpt>
      <trkpt lat="42.7889340" lon="-8.6469600">
        <ele>52.0</ele>
        <time>2021-05-23T14:09:08Z</time>
      </trkpt>
      <trkpt lat="42.7889480" lon="-8.6469550">
        <ele>52.0</ele>
        <time>2021-05-23T14:09:09Z</time>
      </trkpt>
      <trkpt lat="42.7889600" lon="-8.6469460">
        <ele>52.0</ele>
        <time>2021-05-23T14:09:10Z</time>
      </trkpt>
      <trkpt lat="42.7889730" lon="-8.6469370">
        <ele>52.0</ele>
        <time>2021-05-23T14:09:11Z</time>
      </trkpt>
      <trkpt lat="42.7889880" lon="-8.6469330">
        <ele>52.0</ele>
        <time>2021-05-23T14:09:12Z</time>
      </trkpt>
      <trkpt lat="42.7890090" lon="-8.6469300">
        <ele>51.9</ele>
        <time>2021-05-23T14:09:13Z</time>
      </trkpt>
      <trkpt lat="42.7890180" lon="-8.6469270">
        <ele>51.9</ele>
        <time>2021-05-23T14:09:14Z</time>
      </trkpt>
      <trkpt lat="42.7890270" lon="-8.6469250">
        <ele>51.9</ele>
        <time>2021-05-23T14:09:15Z</time>
      </trkpt>
      <trkpt lat="42.7890440" lon="-8.6469100">
        <ele>51.9</ele>
        <time>2021-05-23T14:09:16Z</time>
      </trkpt>
      <trkpt lat="42.7890530" lon="-8.6469050">
        <ele>51.9</ele>
        <time>2021-05-23T14:09:17Z</time>
      </trkpt>
      <trkpt lat="42.7890620" lon="-8.6469010">
        <ele>51.9</ele>
        <time>2021-05-23T14:09:18Z</time>
      </trkpt>
      <trkpt lat="42.7890750" lon="-8.6468960">
        <ele>51.9</ele>
        <time>2021-05-23T14:09:19Z</time>
      </trkpt>
      <trkpt lat="42.7890900" lon="-8.6468940">
        <ele>51.9</ele>
        <time>2021-05-23T14:09:20Z</time>
      </trkpt>
      <trkpt lat="42.7891020" lon="-8.6468940">
        <ele>51.9</ele>
        <time>2021-05-23T14:09:21Z</time>
      </trkpt>
      <trkpt lat="42.7891160" lon="-8.6468880">
        <ele>51.8</ele>
        <time>2021-05-23T14:09:22Z</time>
      </trkpt>
      <trkpt lat="42.7891300" lon="-8.6468870">
        <ele>51.8</ele>
        <time>2021-05-23T14:09:23Z</time>
      </trkpt>
      <trkpt lat="42.7891440" lon="-8.6468790">
        <ele>51.8</ele>
        <time>2021-05-23T14:09:24Z</time>
      </trkpt>
      <trkpt lat="42.7891640" lon="-8.6468780">
        <ele>51.8</ele>
        <time>2021-05-23T14:09:25Z</time>
      </trkpt>
      <trkpt lat="42.7891740" lon="-8.6468790">
        <ele>51.8</ele>
        <time>2021-05-23T14:09:26Z</time>
      </trkpt>
      <trkpt lat="42.7891830" lon="-8.6468790">
        <ele>51.8</ele>
        <time>2021-05-23T14:09:27Z</time>
      </trkpt>
      <trkpt lat="42.7891960" lon="-8.6468710">
        <ele>51.8</ele>
        <time>2021-05-23T14:09:28Z</time>
      </trkpt>
      <trkpt lat="42.7892080" lon="-8.6468570">
        <ele>51.7</ele>
        <time>2021-05-23T14:09:29Z</time>
      </trkpt>
      <trkpt lat="42.7892300" lon="-8.6468510">
        <ele>51.7</ele>
        <time>2021-05-23T14:09:30Z</time>
      </trkpt>
      <trkpt lat="42.7892380" lon="-8.6468470">
        <ele>51.7</ele>
        <time>2021-05-23T14:09:31Z</time>
      </trkpt>
      <trkpt lat="42.7892460" lon="-8.6468420">
        <ele>51.7</ele>
        <time>2021-05-23T14:09:32Z</time>
      </trkpt>
      <trkpt lat="42.7892570" lon="-8.6468360">
        <ele>51.7</ele>
        <time>2021-05-23T14:09:33Z</time>
      </trkpt>
      <trkpt lat="42.7892720" lon="-8.6468370">
        <ele>51.7</ele>
        <time>2021-05-23T14:09:34Z</time>
      </trkpt>
      <trkpt lat="42.7892820" lon="-8.6468290">
        <ele>51.7</ele>
        <time>2021-05-23T14:09:35Z</time>
      </trkpt>
      <trkpt lat="42.7893030" lon="-8.6468210">
        <ele>51.6</ele>
        <time>2021-05-23T14:09:36Z</time>
      </trkpt>
      <trkpt lat="42.7893110" lon="-8.6468170">
        <ele>51.6</ele>
        <time>2021-05-23T14:09:37Z</time>
      </trkpt>
      <trkpt lat="42.7893200" lon="-8.6468130">
        <ele>51.6</ele>
        <time>2021-05-23T14:09:38Z</time>
      </trkpt>
      <trkpt lat="42.7893410" lon="-8.6468120">
        <ele>51.6</ele>
        <time>2021-05-23T14:09:39Z</time>
      </trkpt>
      <trkpt lat="42.7893490" lon="-8.6468120">
        <ele>51.6</ele>
        <time>2021-05-23T14:09:40Z</time>
      </trkpt>
      <trkpt lat="42.7893580" lon="-8.6468120">
        <ele>51.6</ele>
        <time>2021-05-23T14:09:41Z</time>
      </trkpt>
      <trkpt lat="42.7893790" lon="-8.6468060">
        <ele>51.6</ele>
        <time>2021-05-23T14:09:42Z</time>
      </trkpt>
      <trkpt lat="42.7893880" lon="-8.6468020">
        <ele>51.6</ele>
        <time>2021-05-23T14:09:43Z</time>
      </trkpt>
      <trkpt lat="42.7893970" lon="-8.6467990">
        <ele>51.5</ele>
        <time>2021-05-23T14:09:44Z</time>
      </trkpt>
      <trkpt lat="42.7894080" lon="-8.6467940">
        <ele>51.5</ele>
        <time>2021-05-23T14:09:45Z</time>
      </trkpt>
      <trkpt lat="42.7894220" lon="-8.6467930">
        <ele>51.5</ele>
        <time>2021-05-23T14:09:46Z</time>
      </trkpt>
      <trkpt lat="42.7894320" lon="-8.6467910">
        <ele>51.5</ele>
        <time>2021-05-23T14:09:47Z</time>
      </trkpt>
      <trkpt lat="42.7894540" lon="-8.6467840">
        <ele>51.5</ele>
        <time>2021-05-23T14:09:48Z</time>
      </trkpt>
      <trkpt lat="42.7894610" lon="-8.6467820">
        <ele>51.5</ele>
        <time>2021-05-23T14:09:49Z</time>
      </trkpt>
      <trkpt lat="42.7894690" lon="-8.6467800">
        <ele>51.4</ele>
        <time>2021-05-23T14:09:50Z</time>
      </trkpt>
      <trkpt lat="42.7894770" lon="-8.6467780">
        <ele>51.4</ele>
        <time>2021-05-23T14:09:51Z</time>
      </trkpt>
      <trkpt lat="42.7894840" lon="-8.6467740">
        <ele>51.4</ele>
        <time>2021-05-23T14:09:52Z</time>
      </trkpt>
      <trkpt lat="42.7894950" lon="-8.6467660">
        <ele>51.4</ele>
        <time>2021-05-23T14:09:53Z</time>
      </trkpt>
      <trkpt lat="42.7895120" lon="-8.6467520">
        <ele>51.4</ele>
        <time>2021-05-23T14:09:54Z</time>
      </trkpt>
      <trkpt lat="42.7895230" lon="-8.6467470">
        <ele>51.3</ele>
        <time>2021-05-23T14:09:55Z</time>
      </trkpt>
      <trkpt lat="42.7895360" lon="-8.6467420">
        <ele>51.3</ele>
        <time>2021-05-23T14:09:56Z</time>
      </trkpt>
      <trkpt lat="42.7895500" lon="-8.6467400">
        <ele>51.3</ele>
        <time>2021-05-23T14:09:57Z</time>
      </trkpt>
      <trkpt lat="42.7895710" lon="-8.6467330">
        <ele>51.2</ele>
        <time>2021-05-23T14:09:58Z</time>
      </trkpt>
      <trkpt lat="42.7895790" lon="-8.6467300">
        <ele>51.2</ele>
        <time>2021-05-23T14:09:59Z</time>
      </trkpt>
      <trkpt lat="42.7895860" lon="-8.6467280">
        <ele>51.2</ele>
        <time>2021-05-23T14:10:00Z</time>
      </trkpt>
      <trkpt lat="42.7895990" lon="-8.6467200">
        <ele>51.2</ele>
        <time>2021-05-23T14:10:01Z</time>
      </trkpt>
      <trkpt lat="42.7896130" lon="-8.6467130">
        <ele>51.1</ele>
        <time>2021-05-23T14:10:02Z</time>
      </trkpt>
      <trkpt lat="42.7896270" lon="-8.6467080">
        <ele>51.1</ele>
        <time>2021-05-23T14:10:03Z</time>
      </trkpt>
      <trkpt lat="42.7896400" lon="-8.6467060">
        <ele>51.1</ele>
        <time>2021-05-23T14:10:04Z</time>
      </trkpt>
      <trkpt lat="42.7896600" lon="-8.6466950">
        <ele>51.0</ele>
        <time>2021-05-23T14:10:05Z</time>
      </trkpt>
      <trkpt lat="42.7896690" lon="-8.6466910">
        <ele>51.0</ele>
        <time>2021-05-23T14:10:06Z</time>
      </trkpt>
      <trkpt lat="42.7896770" lon="-8.6466880">
        <ele>51.0</ele>
        <time>2021-05-23T14:10:07Z</time>
      </trkpt>
      <trkpt lat="42.7896920" lon="-8.6466820">
        <ele>50.9</ele>
        <time>2021-05-23T14:10:08Z</time>
      </trkpt>
      <trkpt lat="42.7897060" lon="-8.6466810">
        <ele>50.9</ele>
        <time>2021-05-23T14:10:09Z</time>
      </trkpt>
      <trkpt lat="42.7897220" lon="-8.6466790">
        <ele>50.8</ele>
        <time>2021-05-23T14:10:10Z</time>
      </trkpt>
      <trkpt lat="42.7897360" lon="-8.6466790">
        <ele>50.8</ele>
        <time>2021-05-23T14:10:11Z</time>
      </trkpt>
      <trkpt lat="42.7897500" lon="-8.6466740">
        <ele>50.8</ele>
        <time>2021-05-23T14:10:12Z</time>
      </trkpt>
      <trkpt lat="42.7897640" lon="-8.6466760">
        <ele>50.7</ele>
        <time>2021-05-23T14:10:13Z</time>
      </trkpt>
      <trkpt lat="42.7897750" lon="-8.6466650">
        <ele>50.7</ele>
        <time>2021-05-23T14:10:14Z</time>
      </trkpt>
      <trkpt lat="42.7897890" lon="-8.6466590">
        <ele>50.6</ele>
        <time>2021-05-23T14:10:15Z</time>
      </trkpt>
      <trkpt lat="42.7898040" lon="-8.6466580">
        <ele>50.6</ele>
        <time>2021-05-23T14:10:16Z</time>
      </trkpt>
      <trkpt lat="42.7898180" lon="-8.6466590">
        <ele>50.6</ele>
        <time>2021-05-23T14:10:17Z</time>
      </trkpt>
      <trkpt lat="42.7898320" lon="-8.6466550">
        <ele>50.5</ele>
        <time>2021-05-23T14:10:18Z</time>
      </trkpt>
      <trkpt lat="42.7898450" lon="-8.6466540">
        <ele>50.5</ele>
        <time>2021-05-23T14:10:19Z</time>
      </trkpt>
      <trkpt lat="42.7898600" lon="-8.6466500">
        <ele>50.4</ele>
        <time>2021-05-23T14:10:20Z</time>
      </trkpt>
      <trkpt lat="42.7898740" lon="-8.6466480">
        <ele>50.4</ele>
        <time>2021-05-23T14:10:21Z</time>
      </trkpt>
      <trkpt lat="42.7898950" lon="-8.6466360">
        <ele>50.4</ele>
        <time>2021-05-23T14:10:22Z</time>
      </trkpt>
      <trkpt lat="42.7899030" lon="-8.6466320">
        <ele>50.3</ele>
        <time>2021-05-23T14:10:23Z</time>
      </trkpt>
      <trkpt lat="42.7899110" lon="-8.6466280">
        <ele>50.3</ele>
        <time>2021-05-23T14:10:24Z</time>
      </trkpt>
      <trkpt lat="42.7899230" lon="-8.6466260">
        <ele>50.3</ele>
        <time>2021-05-23T14:10:25Z</time>
      </trkpt>
      <trkpt lat="42.7899370" lon="-8.6466190">
        <ele>50.3</ele>
        <time>2021-05-23T14:10:26Z</time>
      </trkpt>
      <trkpt lat="42.7899520" lon="-8.6466160">
        <ele>50.3</ele>
        <time>2021-05-23T14:10:27Z</time>
      </trkpt>
      <trkpt lat="42.7899640" lon="-8.6466030">
        <ele>50.2</ele>
        <time>2021-05-23T14:10:28Z</time>
      </trkpt>
      <trkpt lat="42.7899770" lon="-8.6465970">
        <ele>50.2</ele>
        <time>2021-05-23T14:10:29Z</time>
      </trkpt>
      <trkpt lat="42.7899890" lon="-8.6465810">
        <ele>50.2</ele>
        <time>2021-05-23T14:10:30Z</time>
      </trkpt>
      <trkpt lat="42.7900020" lon="-8.6465720">
        <ele>50.2</ele>
        <time>2021-05-23T14:10:31Z</time>
      </trkpt>
      <trkpt lat="42.7900100" lon="-8.6465640">
        <ele>50.2</ele>
        <time>2021-05-23T14:10:32Z</time>
      </trkpt>
      <trkpt lat="42.7900140" lon="-8.6465520">
        <ele>50.2</ele>
        <time>2021-05-23T14:10:33Z</time>
      </trkpt>
      <trkpt lat="42.7900090" lon="-8.6465370">
        <ele>50.2</ele>
        <time>2021-05-23T14:10:34Z</time>
      </trkpt>
      <trkpt lat="42.7900080" lon="-8.6465150">
        <ele>50.2</ele>
        <time>2021-05-23T14:10:35Z</time>
      </trkpt>
      <trkpt lat="42.7900060" lon="-8.6464970">
        <ele>50.3</ele>
        <time>2021-05-23T14:10:36Z</time>
      </trkpt>
      <trkpt lat="42.7900050" lon="-8.6464880">
        <ele>50.3</ele>
        <time>2021-05-23T14:10:37Z</time>
      </trkpt>
      <trkpt lat="42.7900030" lon="-8.6464750">
        <ele>50.3</ele>
        <time>2021-05-23T14:10:38Z</time>
      </trkpt>
      <trkpt lat="42.7899930" lon="-8.6464490">
        <ele>50.3</ele>
        <time>2021-05-23T14:10:39Z</time>
      </trkpt>
      <trkpt lat="42.7899900" lon="-8.6464400">
        <ele>50.3</ele>
        <time>2021-05-23T14:10:40Z</time>
      </trkpt>
      <trkpt lat="42.7899860" lon="-8.6464300">
        <ele>50.3</ele>
        <time>2021-05-23T14:10:41Z</time>
      </trkpt>
      <trkpt lat="42.7899760" lon="-8.6464030">
        <ele>50.4</ele>
        <time>2021-05-23T14:10:42Z</time>
      </trkpt>
      <trkpt lat="42.7899720" lon="-8.6463940">
        <ele>50.4</ele>
        <time>2021-05-23T14:10:43Z</time>
      </trkpt>
      <trkpt lat="42.7899680" lon="-8.6463860">
        <ele>50.4</ele>
        <time>2021-05-23T14:10:44Z</time>
      </trkpt>
      <trkpt lat="42.7899670" lon="-8.6463740">
        <ele>50.4</ele>
        <time>2021-05-23T14:10:45Z</time>
      </trkpt>
      <trkpt lat="42.7899610" lon="-8.6463680">
        <ele>50.5</ele>
        <time>2021-05-23T14:10:46Z</time>
      </trkpt>
      <trkpt lat="42.7899580" lon="-8.6463620">
        <ele>50.5</ele>
        <time>2021-05-23T14:10:47Z</time>
      </trkpt>
      <trkpt lat="42.7899560" lon="-8.6463510">
        <ele>50.5</ele>
        <time>2021-05-23T14:10:48Z</time>
      </trkpt>
      <trkpt lat="42.7899440" lon="-8.6463260">
        <ele>50.6</ele>
        <time>2021-05-23T14:10:49Z</time>
      </trkpt>
      <trkpt lat="42.7899370" lon="-8.6463160">
        <ele>50.6</ele>
        <time>2021-05-23T14:10:50Z</time>
      </trkpt>
      <trkpt lat="42.7899310" lon="-8.6463070">
        <ele>50.7</ele>
        <time>2021-05-23T14:10:51Z</time>
      </trkpt>
      <trkpt lat="42.7899260" lon="-8.6462870">
        <ele>50.8</ele>
        <time>2021-05-23T14:10:52Z</time>
      </trkpt>
      <trkpt lat="42.7899200" lon="-8.6462710">
        <ele>50.8</ele>
        <time>2021-05-23T14:10:53Z</time>
      </trkpt>
      <trkpt lat="42.7899160" lon="-8.6462560">
        <ele>50.9</ele>
        <time>2021-05-23T14:10:54Z</time>
      </trkpt>
      <trkpt lat="42.7899090" lon="-8.6462410">
        <ele>51.0</ele>
        <time>2021-05-23T14:10:55Z</time>
      </trkpt>
      <trkpt lat="42.7899060" lon="-8.6462300">
        <ele>51.0</ele>
        <time>2021-05-23T14:10:56Z</time>
      </trkpt>
      <trkpt lat="42.7899010" lon="-8.6462010">
        <ele>51.2</ele>
        <time>2021-05-23T14:10:57Z</time>
      </trkpt>
      <trkpt lat="42.7898990" lon="-8.6461890">
        <ele>51.2</ele>
        <time>2021-05-23T14:10:58Z</time>
      </trkpt>
      <trkpt lat="42.7898970" lon="-8.6461780">
        <ele>51.3</ele>
        <time>2021-05-23T14:10:59Z</time>
      </trkpt>
      <trkpt lat="42.7898940" lon="-8.6461660">
        <ele>51.3</ele>
        <time>2021-05-23T14:11:00Z</time>
      </trkpt>
      <trkpt lat="42.7898920" lon="-8.6461500">
        <ele>51.4</ele>
        <time>2021-05-23T14:11:01Z</time>
      </trkpt>
      <trkpt lat="42.7898880" lon="-8.6461350">
        <ele>51.5</ele>
        <time>2021-05-23T14:11:02Z</time>
      </trkpt>
      <trkpt lat="42.7898890" lon="-8.6461160">
        <ele>51.6</ele>
        <time>2021-05-23T14:11:03Z</time>
      </trkpt>
      <trkpt lat="42.7898870" lon="-8.6461060">
        <ele>51.7</ele>
        <time>2021-05-23T14:11:04Z</time>
      </trkpt>
      <trkpt lat="42.7898850" lon="-8.6460870">
        <ele>51.8</ele>
        <time>2021-05-23T14:11:05Z</time>
      </trkpt>
      <trkpt lat="42.7898830" lon="-8.6460550">
        <ele>52.0</ele>
        <time>2021-05-23T14:11:06Z</time>
      </trkpt>
      <trkpt lat="42.7898810" lon="-8.6460450">
        <ele>52.1</ele>
        <time>2021-05-23T14:11:07Z</time>
      </trkpt>
      <trkpt lat="42.7898800" lon="-8.6460350">
        <ele>52.1</ele>
        <time>2021-05-23T14:11:08Z</time>
      </trkpt>
      <trkpt lat="42.7898820" lon="-8.6460050">
        <ele>52.3</ele>
        <time>2021-05-23T14:11:09Z</time>
      </trkpt>
      <trkpt lat="42.7898810" lon="-8.6459930">
        <ele>52.4</ele>
        <time>2021-05-23T14:11:10Z</time>
      </trkpt>
      <trkpt lat="42.7898810" lon="-8.6459820">
        <ele>52.5</ele>
        <time>2021-05-23T14:11:11Z</time>
      </trkpt>
      <trkpt lat="42.7898840" lon="-8.6459530">
        <ele>52.7</ele>
        <time>2021-05-23T14:11:12Z</time>
      </trkpt>
      <trkpt lat="42.7898870" lon="-8.6459430">
        <ele>52.7</ele>
        <time>2021-05-23T14:11:13Z</time>
      </trkpt>
      <trkpt lat="42.7898890" lon="-8.6459320">
        <ele>52.8</ele>
        <time>2021-05-23T14:11:14Z</time>
      </trkpt>
      <trkpt lat="42.7898910" lon="-8.6459100">
        <ele>52.9</ele>
        <time>2021-05-23T14:11:15Z</time>
      </trkpt>
      <trkpt lat="42.7898970" lon="-8.6458950">
        <ele>53.1</ele>
        <time>2021-05-23T14:11:16Z</time>
      </trkpt>
      <trkpt lat="42.7898990" lon="-8.6458860">
        <ele>53.1</ele>
        <time>2021-05-23T14:11:17Z</time>
      </trkpt>
      <trkpt lat="42.7899030" lon="-8.6458710">
        <ele>53.2</ele>
        <time>2021-05-23T14:11:18Z</time>
      </trkpt>
      <trkpt lat="42.7899080" lon="-8.6458520">
        <ele>53.4</ele>
        <time>2021-05-23T14:11:19Z</time>
      </trkpt>
      <trkpt lat="42.7899170" lon="-8.6458240">
        <ele>53.6</ele>
        <time>2021-05-23T14:11:20Z</time>
      </trkpt>
      <trkpt lat="42.7899190" lon="-8.6458140">
        <ele>53.7</ele>
        <time>2021-05-23T14:11:21Z</time>
      </trkpt>
      <trkpt lat="42.7899220" lon="-8.6458050">
        <ele>53.8</ele>
        <time>2021-05-23T14:11:22Z</time>
      </trkpt>
      <trkpt lat="42.7899250" lon="-8.6457950">
        <ele>53.8</ele>
        <time>2021-05-23T14:11:23Z</time>
      </trkpt>
      <trkpt lat="42.7899300" lon="-8.6457740">
        <ele>54.0</ele>
        <time>2021-05-23T14:11:24Z</time>
      </trkpt>
      <trkpt lat="42.7899350" lon="-8.6457610">
        <ele>54.1</ele>
        <time>2021-05-23T14:11:25Z</time>
      </trkpt>
      <trkpt lat="42.7899410" lon="-8.6457460">
        <ele>54.2</ele>
        <time>2021-05-23T14:11:26Z</time>
      </trkpt>
      <trkpt lat="42.7899420" lon="-8.6457320">
        <ele>54.3</ele>
        <time>2021-05-23T14:11:27Z</time>
      </trkpt>
      <trkpt lat="42.7899450" lon="-8.6457190">
        <ele>54.4</ele>
        <time>2021-05-23T14:11:28Z</time>
      </trkpt>
      <trkpt lat="42.7899480" lon="-8.6457130">
        <ele>54.5</ele>
        <time>2021-05-23T14:11:29Z</time>
      </trkpt>
      <trkpt lat="42.7899490" lon="-8.6456990">
        <ele>54.6</ele>
        <time>2021-05-23T14:11:30Z</time>
      </trkpt>
      <trkpt lat="42.7899530" lon="-8.6456780">
        <ele>54.8</ele>
        <time>2021-05-23T14:11:31Z</time>
      </trkpt>
      <trkpt lat="42.7899580" lon="-8.6456630">
        <ele>54.9</ele>
        <time>2021-05-23T14:11:32Z</time>
      </trkpt>
      <trkpt lat="42.7899610" lon="-8.6456410">
        <ele>55.1</ele>
        <time>2021-05-23T14:11:33Z</time>
      </trkpt>
      <trkpt lat="42.7899670" lon="-8.6456330">
        <ele>55.2</ele>
        <time>2021-05-23T14:11:34Z</time>
      </trkpt>
      <trkpt lat="42.7899770" lon="-8.6456190">
        <ele>55.3</ele>
        <time>2021-05-23T14:11:35Z</time>
      </trkpt>
      <trkpt lat="42.7899800" lon="-8.6456030">
        <ele>55.4</ele>
        <time>2021-05-23T14:11:36Z</time>
      </trkpt>
      <trkpt lat="42.7899850" lon="-8.6455820">
        <ele>55.6</ele>
        <time>2021-05-23T14:11:37Z</time>
      </trkpt>
      <trkpt lat="42.7899910" lon="-8.6455720">
        <ele>55.7</ele>
        <time>2021-05-23T14:11:38Z</time>
      </trkpt>
      <trkpt lat="42.7899890" lon="-8.6455610">
        <ele>55.8</ele>
        <time>2021-05-23T14:11:39Z</time>
      </trkpt>
      <trkpt lat="42.7899970" lon="-8.6455440">
        <ele>56.0</ele>
        <time>2021-05-23T14:11:40Z</time>
      </trkpt>
      <trkpt lat="42.7900070" lon="-8.6455290">
        <ele>56.1</ele>
        <time>2021-05-23T14:11:41Z</time>
      </trkpt>
      <trkpt lat="42.7900160" lon="-8.6455070">
        <ele>56.4</ele>
        <time>2021-05-23T14:11:42Z</time>
      </trkpt>
      <trkpt lat="42.7900190" lon="-8.6454950">
        <ele>56.5</ele>
        <time>2021-05-23T14:11:43Z</time>
      </trkpt>
      <trkpt lat="42.7900230" lon="-8.6454840">
        <ele>56.6</ele>
        <time>2021-05-23T14:11:44Z</time>
      </trkpt>
      <trkpt lat="42.7900240" lon="-8.6454750">
        <ele>56.6</ele>
        <time>2021-05-23T14:11:45Z</time>
      </trkpt>
      <trkpt lat="42.7900300" lon="-8.6454620">
        <ele>56.8</ele>
        <time>2021-05-23T14:11:46Z</time>
      </trkpt>
      <trkpt lat="42.7900330" lon="-8.6454470">
        <ele>56.9</ele>
        <time>2021-05-23T14:11:47Z</time>
      </trkpt>
      <trkpt lat="42.7900400" lon="-8.6454180">
        <ele>57.1</ele>
        <time>2021-05-23T14:11:48Z</time>
      </trkpt>
      <trkpt lat="42.7900400" lon="-8.6454060">
        <ele>57.2</ele>
        <time>2021-05-23T14:11:49Z</time>
      </trkpt>
      <trkpt lat="42.7900410" lon="-8.6453940">
        <ele>57.3</ele>
        <time>2021-05-23T14:11:50Z</time>
      </trkpt>
      <trkpt lat="42.7900460" lon="-8.6453810">
        <ele>57.5</ele>
        <time>2021-05-23T14:11:51Z</time>
      </trkpt>
      <trkpt lat="42.7900410" lon="-8.6453600">
        <ele>57.7</ele>
        <time>2021-05-23T14:11:52Z</time>
      </trkpt>
      <trkpt lat="42.7900430" lon="-8.6453440">
        <ele>57.8</ele>
        <time>2021-05-23T14:11:53Z</time>
      </trkpt>
      <trkpt lat="42.7900470" lon="-8.6453260">
        <ele>58.0</ele>
        <time>2021-05-23T14:11:54Z</time>
      </trkpt>
      <trkpt lat="42.7900530" lon="-8.6453140">
        <ele>58.1</ele>
        <time>2021-05-23T14:11:55Z</time>
      </trkpt>
      <trkpt lat="42.7900520" lon="-8.6453050">
        <ele>58.2</ele>
        <time>2021-05-23T14:11:56Z</time>
      </trkpt>
      <trkpt lat="42.7900540" lon="-8.6452870">
        <ele>58.3</ele>
        <time>2021-05-23T14:11:57Z</time>
      </trkpt>
      <trkpt lat="42.7900550" lon="-8.6452660">
        <ele>58.5</ele>
        <time>2021-05-23T14:11:58Z</time>
      </trkpt>
      <trkpt lat="42.7900580" lon="-8.6452530">
        <ele>58.6</ele>
        <time>2021-05-23T14:11:59Z</time>
      </trkpt>
      <trkpt lat="42.7900590" lon="-8.6452350">
        <ele>58.8</ele>
        <time>2021-05-23T14:12:00Z</time>
      </trkpt>
      <trkpt lat="42.7900610" lon="-8.6452240">
        <ele>58.9</ele>
        <time>2021-05-23T14:12:01Z</time>
      </trkpt>
      <trkpt lat="42.7900630" lon="-8.6451970">
        <ele>59.1</ele>
        <time>2021-05-23T14:12:02Z</time>
      </trkpt>
      <trkpt lat="42.7900640" lon="-8.6451850">
        <ele>59.2</ele>
        <time>2021-05-23T14:12:03Z</time>
      </trkpt>
      <trkpt lat="42.7900650" lon="-8.6451730">
        <ele>59.3</ele>
        <time>2021-05-23T14:12:04Z</time>
      </trkpt>
      <trkpt lat="42.7900640" lon="-8.6451600">
        <ele>59.4</ele>
        <time>2021-05-23T14:12:05Z</time>
      </trkpt>
      <trkpt lat="42.7900640" lon="-8.6451410">
        <ele>59.6</ele>
        <time>2021-05-23T14:12:06Z</time>
      </trkpt>
      <trkpt lat="42.7900680" lon="-8.6451290">
        <ele>59.7</ele>
        <time>2021-05-23T14:12:07Z</time>
      </trkpt>
      <trkpt lat="42.7900690" lon="-8.6451120">
        <ele>59.8</ele>
        <time>2021-05-23T14:12:08Z</time>
      </trkpt>
      <trkpt lat="42.7900730" lon="-8.6450930">
        <ele>60.0</ele>
        <time>2021-05-23T14:12:09Z</time>
      </trkpt>
      <trkpt lat="42.7900710" lon="-8.6450650">
        <ele>60.2</ele>
        <time>2021-05-23T14:12:10Z</time>
      </trkpt>
      <trkpt lat="42.7900700" lon="-8.6450540">
        <ele>60.3</ele>
        <time>2021-05-23T14:12:11Z</time>
      </trkpt>
      <trkpt lat="42.7900690" lon="-8.6450430">
        <ele>60.3</ele>
        <time>2021-05-23T14:12:12Z</time>
      </trkpt>
      <trkpt lat="42.7900700" lon="-8.6450300">
        <ele>60.4</ele>
        <time>2021-05-23T14:12:13Z</time>
      </trkpt>
      <trkpt lat="42.7900710" lon="-8.6450140">
        <ele>60.6</ele>
        <time>2021-05-23T14:12:14Z</time>
      </trkpt>
      <trkpt lat="42.7900630" lon="-8.6449940">
        <ele>60.7</ele>
        <time>2021-05-23T14:12:15Z</time>
      </trkpt>
      <trkpt lat="42.7900630" lon="-8.6449750">
        <ele>60.8</ele>
        <time>2021-05-23T14:12:16Z</time>
      </trkpt>
      <trkpt lat="42.7900640" lon="-8.6449600">
        <ele>61.0</ele>
        <time>2021-05-23T14:12:17Z</time>
      </trkpt>
      <trkpt lat="42.7900610" lon="-8.6449450">
        <ele>61.1</ele>
        <time>2021-05-23T14:12:18Z</time>
      </trkpt>
      <trkpt lat="42.7900610" lon="-8.6449250">
        <ele>61.2</ele>
        <time>2021-05-23T14:12:19Z</time>
      </trkpt>
      <trkpt lat="42.7900620" lon="-8.6449050">
        <ele>61.5</ele>
        <time>2021-05-23T14:12:20Z</time>
      </trkpt>
      <trkpt lat="42.7900650" lon="-8.6448920">
        <ele>61.6</ele>
        <time>2021-05-23T14:12:21Z</time>
      </trkpt>
      <trkpt lat="42.7900700" lon="-8.6448880">
        <ele>61.6</ele>
        <time>2021-05-23T14:12:22Z</time>
      </trkpt>
      <trkpt lat="42.7900820" lon="-8.6448820">
        <ele>61.7</ele>
        <time>2021-05-23T14:12:23Z</time>
      </trkpt>
      <trkpt lat="42.7900940" lon="-8.6448930">
        <ele>61.8</ele>
        <time>2021-05-23T14:12:24Z</time>
      </trkpt>
      <trkpt lat="42.7901110" lon="-8.6448930">
        <ele>61.8</ele>
        <time>2021-05-23T14:12:25Z</time>
      </trkpt>
      <trkpt lat="42.7901210" lon="-8.6449020">
        <ele>61.9</ele>
        <time>2021-05-23T14:12:26Z</time>
      </trkpt>
      <trkpt lat="42.7901280" lon="-8.6449060">
        <ele>61.9</ele>
        <time>2021-05-23T14:12:27Z</time>
      </trkpt>
      <trkpt lat="42.7901340" lon="-8.6449080">
        <ele>62.0</ele>
        <time>2021-05-23T14:12:28Z</time>
      </trkpt>
      <trkpt lat="42.7901420" lon="-8.6449110">
        <ele>62.0</ele>
        <time>2021-05-23T14:12:29Z</time>
      </trkpt>
      <trkpt lat="42.7901490" lon="-8.6449130">
        <ele>62.0</ele>
        <time>2021-05-23T14:12:30Z</time>
      </trkpt>
      <trkpt lat="42.7901610" lon="-8.6449140">
        <ele>62.1</ele>
        <time>2021-05-23T14:12:31Z</time>
      </trkpt>
      <trkpt lat="42.7901680" lon="-8.6449160">
        <ele>62.1</ele>
        <time>2021-05-23T14:12:32Z</time>
      </trkpt>
      <trkpt lat="42.7901780" lon="-8.6449190">
        <ele>62.1</ele>
        <time>2021-05-23T14:12:33Z</time>
      </trkpt>
      <trkpt lat="42.7901910" lon="-8.6449240">
        <ele>62.2</ele>
        <time>2021-05-23T14:12:34Z</time>
      </trkpt>
      <trkpt lat="42.7902080" lon="-8.6449220">
        <ele>62.2</ele>
        <time>2021-05-23T14:12:35Z</time>
      </trkpt>
      <trkpt lat="42.7902160" lon="-8.6449280">
        <ele>62.2</ele>
        <time>2021-05-23T14:12:36Z</time>
      </trkpt>
      <trkpt lat="42.7902210" lon="-8.6449280">
        <ele>62.3</ele>
        <time>2021-05-23T14:12:37Z</time>
      </trkpt>
      <trkpt lat="42.7902260" lon="-8.6449340">
        <ele>62.3</ele>
        <time>2021-05-23T14:12:38Z</time>
      </trkpt>
      <trkpt lat="42.7902340" lon="-8.6449370">
        <ele>62.3</ele>
        <time>2021-05-23T14:12:39Z</time>
      </trkpt>
      <trkpt lat="42.7902450" lon="-8.6449390">
        <ele>62.3</ele>
        <time>2021-05-23T14:12:40Z</time>
      </trkpt>
      <trkpt lat="42.7902550" lon="-8.6449400">
        <ele>62.3</ele>
        <time>2021-05-23T14:12:41Z</time>
      </trkpt>
      <trkpt lat="42.7902690" lon="-8.6449400">
        <ele>62.4</ele>
        <time>2021-05-23T14:12:42Z</time>
      </trkpt>
      <trkpt lat="42.7902800" lon="-8.6449460">
        <ele>62.4</ele>
        <time>2021-05-23T14:12:43Z</time>
      </trkpt>
      <trkpt lat="42.7903010" lon="-8.6449570">
        <ele>62.4</ele>
        <time>2021-05-23T14:12:44Z</time>
      </trkpt>
      <trkpt lat="42.7903210" lon="-8.6449520">
        <ele>62.4</ele>
        <time>2021-05-23T14:12:45Z</time>
      </trkpt>
      <trkpt lat="42.7903360" lon="-8.6449550">
        <ele>62.5</ele>
        <time>2021-05-23T14:12:46Z</time>
      </trkpt>
      <trkpt lat="42.7903540" lon="-8.6449380">
        <ele>62.5</ele>
        <time>2021-05-23T14:12:47Z</time>
      </trkpt>
      <trkpt lat="42.7903630" lon="-8.6449340">
        <ele>62.5</ele>
        <time>2021-05-23T14:12:48Z</time>
      </trkpt>
      <trkpt lat="42.7903710" lon="-8.6449300">
        <ele>62.5</ele>
        <time>2021-05-23T14:12:49Z</time>
      </trkpt>
      <trkpt lat="42.7903890" lon="-8.6449210">
        <ele>62.6</ele>
        <time>2021-05-23T14:12:50Z</time>
      </trkpt>
      <trkpt lat="42.7903990" lon="-8.6449140">
        <ele>62.6</ele>
        <time>2021-05-23T14:12:51Z</time>
      </trkpt>
      <trkpt lat="42.7904100" lon="-8.6449080">
        <ele>62.6</ele>
        <time>2021-05-23T14:12:52Z</time>
      </trkpt>
      <trkpt lat="42.7904220" lon="-8.6449020">
        <ele>62.6</ele>
        <time>2021-05-23T14:12:53Z</time>
      </trkpt>
      <trkpt lat="42.7904330" lon="-8.6448970">
        <ele>62.7</ele>
        <time>2021-05-23T14:12:54Z</time>
      </trkpt>
      <trkpt lat="42.7904410" lon="-8.6448950">
        <ele>62.7</ele>
        <time>2021-05-23T14:12:55Z</time>
      </trkpt>
      <trkpt lat="42.7904530" lon="-8.6448860">
        <ele>62.7</ele>
        <time>2021-05-23T14:12:56Z</time>
      </trkpt>
      <trkpt lat="42.7904660" lon="-8.6448820">
        <ele>62.7</ele>
        <time>2021-05-23T14:12:57Z</time>
      </trkpt>
      <trkpt lat="42.7904730" lon="-8.6448800">
        <ele>62.7</ele>
        <time>2021-05-23T14:12:58Z</time>
      </trkpt>
      <trkpt lat="42.7904900" lon="-8.6448660">
        <ele>62.7</ele>
        <time>2021-05-23T14:12:59Z</time>
      </trkpt>
      <trkpt lat="42.7904920" lon="-8.6448690">
        <ele>62.7</ele>
        <time>2021-05-23T14:13:00Z</time>
      </trkpt>
      <trkpt lat="42.7905030" lon="-8.6448630">
        <ele>62.8</ele>
        <time>2021-05-23T14:13:01Z</time>
      </trkpt>
      <trkpt lat="42.7905240" lon="-8.6448580">
        <ele>62.8</ele>
        <time>2021-05-23T14:13:02Z</time>
      </trkpt>
      <trkpt lat="42.7905340" lon="-8.6448550">
        <ele>62.8</ele>
        <time>2021-05-23T14:13:03Z</time>
      </trkpt>
      <trkpt lat="42.7905440" lon="-8.6448510">
        <ele>62.8</ele>
        <time>2021-05-23T14:13:04Z</time>
      </trkpt>
      <trkpt lat="42.7905570" lon="-8.6448470">
        <ele>62.8</ele>
        <time>2021-05-23T14:13:05Z</time>
      </trkpt>
      <trkpt lat="42.7905770" lon="-8.6448460">
        <ele>62.8</ele>
        <time>2021-05-23T14:13:06Z</time>
      </trkpt>
      <trkpt lat="42.7905950" lon="-8.6448450">
        <ele>62.8</ele>
        <time>2021-05-23T14:13:07Z</time>
      </trkpt>
      <trkpt lat="42.7906050" lon="-8.6448540">
        <ele>62.8</ele>
        <time>2021-05-23T14:13:08Z</time>
      </trkpt>
      <trkpt lat="42.7906200" lon="-8.6448570">
        <ele>62.8</ele>
        <time>2021-05-23T14:13:09Z</time>
      </trkpt>
      <trkpt lat="42.7906290" lon="-8.6448560">
        <ele>62.8</ele>
        <time>2021-05-23T14:13:10Z</time>
      </trkpt>
      <trkpt lat="42.7906370" lon="-8.6448550">
        <ele>62.8</ele>
        <time>2021-05-23T14:13:11Z</time>
      </trkpt>
      <trkpt lat="42.7906450" lon="-8.6448540">
        <ele>62.8</ele>
        <time>2021-05-23T14:13:12Z</time>
      </trkpt>
      <trkpt lat="42.7906540" lon="-8.6448570">
        <ele>62.8</ele>
        <time>2021-05-23T14:13:13Z</time>
      </trkpt>
      <trkpt lat="42.7906660" lon="-8.6448620">
        <ele>62.7</ele>
        <time>2021-05-23T14:13:14Z</time>
      </trkpt>
      <trkpt lat="42.7906750" lon="-8.6448610">
        <ele>62.7</ele>
        <time>2021-05-23T14:13:15Z</time>
      </trkpt>
      <trkpt lat="42.7906880" lon="-8.6448540">
        <ele>62.7</ele>
        <time>2021-05-23T14:13:16Z</time>
      </trkpt>
      <trkpt lat="42.7906960" lon="-8.6448540">
        <ele>62.7</ele>
        <time>2021-05-23T14:13:17Z</time>
      </trkpt>
      <trkpt lat="42.7907070" lon="-8.6448580">
        <ele>62.7</ele>
        <time>2021-05-23T14:13:18Z</time>
      </trkpt>
      <trkpt lat="42.7907180" lon="-8.6448610">
        <ele>62.7</ele>
        <time>2021-05-23T14:13:19Z</time>
      </trkpt>
      <trkpt lat="42.7907270" lon="-8.6448630">
        <ele>62.7</ele>
        <time>2021-05-23T14:13:20Z</time>
      </trkpt>
      <trkpt lat="42.7907290" lon="-8.6448610">
        <ele>62.7</ele>
        <time>2021-05-23T14:13:21Z</time>
      </trkpt>
      <trkpt lat="42.7907390" lon="-8.6448600">
        <ele>62.7</ele>
        <time>2021-05-23T14:13:22Z</time>
      </trkpt>
      <trkpt lat="42.7907520" lon="-8.6448630">
        <ele>62.7</ele>
        <time>2021-05-23T14:13:23Z</time>
      </trkpt>
      <trkpt lat="42.7907710" lon="-8.6448650">
        <ele>62.7</ele>
        <time>2021-05-23T14:13:24Z</time>
      </trkpt>
      <trkpt lat="42.7907780" lon="-8.6448700">
        <ele>62.7</ele>
        <time>2021-05-23T14:13:25Z</time>
      </trkpt>
      <trkpt lat="42.7907900" lon="-8.6448740">
        <ele>62.7</ele>
        <time>2021-05-23T14:13:26Z</time>
      </trkpt>
      <trkpt lat="42.7908030" lon="-8.6448740">
        <ele>62.6</ele>
        <time>2021-05-23T14:13:27Z</time>
      </trkpt>
      <trkpt lat="42.7908200" lon="-8.6448730">
        <ele>62.6</ele>
        <time>2021-05-23T14:13:28Z</time>
      </trkpt>
      <trkpt lat="42.7908330" lon="-8.6448810">
        <ele>62.6</ele>
        <time>2021-05-23T14:13:29Z</time>
      </trkpt>
      <trkpt lat="42.7908500" lon="-8.6448840">
        <ele>62.6</ele>
        <time>2021-05-23T14:13:30Z</time>
      </trkpt>
      <trkpt lat="42.7908670" lon="-8.6448790">
        <ele>62.6</ele>
        <time>2021-05-23T14:13:31Z</time>
      </trkpt>
      <trkpt lat="42.7908830" lon="-8.6448630">
        <ele>62.6</ele>
        <time>2021-05-23T14:13:32Z</time>
      </trkpt>
      <trkpt lat="42.7909000" lon="-8.6448630">
        <ele>62.6</ele>
        <time>2021-05-23T14:13:33Z</time>
      </trkpt>
      <trkpt lat="42.7909080" lon="-8.6448570">
        <ele>62.6</ele>
        <time>2021-05-23T14:13:34Z</time>
      </trkpt>
      <trkpt lat="42.7909200" lon="-8.6448540">
        <ele>62.5</ele>
        <time>2021-05-23T14:13:35Z</time>
      </trkpt>
      <trkpt lat="42.7909360" lon="-8.6448600">
        <ele>62.5</ele>
        <time>2021-05-23T14:13:36Z</time>
      </trkpt>
      <trkpt lat="42.7909510" lon="-8.6448610">
        <ele>62.5</ele>
        <time>2021-05-23T14:13:37Z</time>
      </trkpt>
      <trkpt lat="42.7909610" lon="-8.6448620">
        <ele>62.5</ele>
        <time>2021-05-23T14:13:38Z</time>
      </trkpt>
      <trkpt lat="42.7909700" lon="-8.6448630">
        <ele>62.5</ele>
        <time>2021-05-23T14:13:39Z</time>
      </trkpt>
      <trkpt lat="42.7909790" lon="-8.6448640">
        <ele>62.5</ele>
        <time>2021-05-23T14:13:40Z</time>
      </trkpt>
      <trkpt lat="42.7909990" lon="-8.6448630">
        <ele>62.5</ele>
        <time>2021-05-23T14:13:41Z</time>
      </trkpt>
      <trkpt lat="42.7910080" lon="-8.6448630">
        <ele>62.5</ele>
        <time>2021-05-23T14:13:42Z</time>
      </trkpt>
      <trkpt lat="42.7910160" lon="-8.6448620">
        <ele>62.5</ele>
        <time>2021-05-23T14:13:43Z</time>
      </trkpt>
      <trkpt lat="42.7910380" lon="-8.6448600">
        <ele>62.5</ele>
        <time>2021-05-23T14:13:44Z</time>
      </trkpt>
      <trkpt lat="42.7910470" lon="-8.6448600">
        <ele>62.5</ele>
        <time>2021-05-23T14:13:45Z</time>
      </trkpt>
      <trkpt lat="42.7910560" lon="-8.6448600">
        <ele>62.5</ele>
        <time>2021-05-23T14:13:46Z</time>
      </trkpt>
      <trkpt lat="42.7910670" lon="-8.6448620">
        <ele>62.5</ele>
        <time>2021-05-23T14:13:47Z</time>
      </trkpt>
      <trkpt lat="42.7910780" lon="-8.6448560">
        <ele>62.5</ele>
        <time>2021-05-23T14:13:48Z</time>
      </trkpt>
      <trkpt lat="42.7910850" lon="-8.6448520">
        <ele>62.5</ele>
        <time>2021-05-23T14:13:49Z</time>
      </trkpt>
      <trkpt lat="42.7910960" lon="-8.6448540">
        <ele>62.5</ele>
        <time>2021-05-23T14:13:50Z</time>
      </trkpt>
      <trkpt lat="42.7911130" lon="-8.6448560">
        <ele>62.5</ele>
        <time>2021-05-23T14:13:51Z</time>
      </trkpt>
      <trkpt lat="42.7911430" lon="-8.6448510">
        <ele>62.6</ele>
        <time>2021-05-23T14:13:52Z</time>
      </trkpt>
      <trkpt lat="42.7911540" lon="-8.6448520">
        <ele>62.6</ele>
        <time>2021-05-23T14:13:53Z</time>
      </trkpt>
      <trkpt lat="42.7911680" lon="-8.6448470">
        <ele>62.6</ele>
        <time>2021-05-23T14:13:54Z</time>
      </trkpt>
      <trkpt lat="42.7911830" lon="-8.6448430">
        <ele>62.6</ele>
        <time>2021-05-23T14:13:55Z</time>
      </trkpt>
      <trkpt lat="42.7911950" lon="-8.6448400">
        <ele>62.6</ele>
        <time>2021-05-23T14:13:56Z</time>
      </trkpt>
      <trkpt lat="42.7912130" lon="-8.6448430">
        <ele>62.7</ele>
        <time>2021-05-23T14:13:57Z</time>
      </trkpt>
      <trkpt lat="42.7912420" lon="-8.6448340">
        <ele>62.7</ele>
        <time>2021-05-23T14:13:58Z</time>
      </trkpt>
      <trkpt lat="42.7912500" lon="-8.6448290">
        <ele>62.7</ele>
        <time>2021-05-23T14:13:59Z</time>
      </trkpt>
      <trkpt lat="42.7912670" lon="-8.6448260">
        <ele>62.7</ele>
        <time>2021-05-23T14:14:00Z</time>
      </trkpt>
      <trkpt lat="42.7912850" lon="-8.6448190">
        <ele>62.8</ele>
        <time>2021-05-23T14:14:01Z</time>
      </trkpt>
      <trkpt lat="42.7913150" lon="-8.6448170">
        <ele>62.8</ele>
        <time>2021-05-23T14:14:02Z</time>
      </trkpt>
      <trkpt lat="42.7913240" lon="-8.6448190">
        <ele>62.8</ele>
        <time>2021-05-23T14:14:03Z</time>
      </trkpt>
      <trkpt lat="42.7913340" lon="-8.6448280">
        <ele>62.9</ele>
        <time>2021-05-23T14:14:04Z</time>
      </trkpt>
      <trkpt lat="42.7913490" lon="-8.6448290">
        <ele>62.9</ele>
        <time>2021-05-23T14:14:05Z</time>
      </trkpt>
      <trkpt lat="42.7913600" lon="-8.6448250">
        <ele>62.9</ele>
        <time>2021-05-23T14:14:06Z</time>
      </trkpt>
      <trkpt lat="42.7913780" lon="-8.6448240">
        <ele>63.0</ele>
        <time>2021-05-23T14:14:07Z</time>
      </trkpt>
      <trkpt lat="42.7913940" lon="-8.6448280">
        <ele>63.0</ele>
        <time>2021-05-23T14:14:08Z</time>
      </trkpt>
      <trkpt lat="42.7914110" lon="-8.6448260">
        <ele>63.0</ele>
        <time>2021-05-23T14:14:09Z</time>
      </trkpt>
      <trkpt lat="42.7914210" lon="-8.6448250">
        <ele>63.0</ele>
        <time>2021-05-23T14:14:10Z</time>
      </trkpt>
      <trkpt lat="42.7914300" lon="-8.6448270">
        <ele>63.1</ele>
        <time>2021-05-23T14:14:11Z</time>
      </trkpt>
      <trkpt lat="42.7914400" lon="-8.6448280">
        <ele>63.1</ele>
        <time>2021-05-23T14:14:12Z</time>
      </trkpt>
      <trkpt lat="42.7914570" lon="-8.6448250">
        <ele>63.1</ele>
        <time>2021-05-23T14:14:13Z</time>
      </trkpt>
      <trkpt lat="42.7914610" lon="-8.6448220">
        <ele>63.1</ele>
        <time>2021-05-23T14:14:14Z</time>
      </trkpt>
      <trkpt lat="42.7914700" lon="-8.6448140">
        <ele>63.1</ele>
        <time>2021-05-23T14:14:15Z</time>
      </trkpt>
      <trkpt lat="42.7914920" lon="-8.6448120">
        <ele>63.2</ele>
        <time>2021-05-23T14:14:16Z</time>
      </trkpt>
      <trkpt lat="42.7915090" lon="-8.6448090">
        <ele>63.2</ele>
        <time>2021-05-23T14:14:17Z</time>
      </trkpt>
      <trkpt lat="42.7915220" lon="-8.6448140">
        <ele>63.3</ele>
        <time>2021-05-23T14:14:18Z</time>
      </trkpt>
      <trkpt lat="42.7915300" lon="-8.6448170">
        <ele>63.3</ele>
        <time>2021-05-23T14:14:19Z</time>
      </trkpt>
      <trkpt lat="42.7915490" lon="-8.6448020">
        <ele>63.3</ele>
        <time>2021-05-23T14:14:20Z</time>
      </trkpt>
      <trkpt lat="42.7915620" lon="-8.6447970">
        <ele>63.3</ele>
        <time>2021-05-23T14:14:21Z</time>
      </trkpt>
      <trkpt lat="42.7915700" lon="-8.6447900">
        <ele>63.3</ele>
        <time>2021-05-23T14:14:22Z</time>
      </trkpt>
      <trkpt lat="42.7915770" lon="-8.6447900">
        <ele>63.3</ele>
        <time>2021-05-23T14:14:23Z</time>
      </trkpt>
      <trkpt lat="42.7915850" lon="-8.6447940">
        <ele>63.3</ele>
        <time>2021-05-23T14:14:24Z</time>
      </trkpt>
      <trkpt lat="42.7915940" lon="-8.6447960">
        <ele>63.3</ele>
        <time>2021-05-23T14:14:25Z</time>
      </trkpt>
      <trkpt lat="42.7916010" lon="-8.6447920">
        <ele>63.4</ele>
        <time>2021-05-23T14:14:26Z</time>
      </trkpt>
      <trkpt lat="42.7916030" lon="-8.6447940">
        <ele>63.4</ele>
        <time>2021-05-23T14:14:27Z</time>
      </trkpt>
      <trkpt lat="42.7916040" lon="-8.6447920">
        <ele>63.4</ele>
        <time>2021-05-23T14:14:28Z</time>
      </trkpt>
      <trkpt lat="42.7916160" lon="-8.6447850">
        <ele>63.4</ele>
        <time>2021-05-23T14:14:29Z</time>
      </trkpt>
      <trkpt lat="42.7916240" lon="-8.6447810">
        <ele>63.4</ele>
        <time>2021-05-23T14:14:30Z</time>
      </trkpt>
      <trkpt lat="42.7916320" lon="-8.6447760">
        <ele>63.4</ele>
        <time>2021-05-23T14:14:31Z</time>
      </trkpt>
      <trkpt lat="42.7916400" lon="-8.6447710">
        <ele>63.4</ele>
        <time>2021-05-23T14:14:32Z</time>
      </trkpt>
      <trkpt lat="42.7916560" lon="-8.6447620">
        <ele>63.4</ele>
        <time>2021-05-23T14:14:33Z</time>
      </trkpt>
      <trkpt lat="42.7916690" lon="-8.6447560">
        <ele>63.4</ele>
        <time>2021-05-23T14:14:34Z</time>
      </trkpt>
      <trkpt lat="42.7916790" lon="-8.6447470">
        <ele>63.4</ele>
        <time>2021-05-23T14:14:35Z</time>
      </trkpt>
      <trkpt lat="42.7916960" lon="-8.6447400">
        <ele>63.4</ele>
        <time>2021-05-23T14:14:36Z</time>
      </trkpt>
      <trkpt lat="42.7917020" lon="-8.6447370">
        <ele>63.4</ele>
        <time>2021-05-23T14:14:37Z</time>
      </trkpt>
      <trkpt lat="42.7917220" lon="-8.6447330">
        <ele>63.4</ele>
        <time>2021-05-23T14:14:38Z</time>
      </trkpt>
      <trkpt lat="42.7917220" lon="-8.6447340">
        <ele>63.4</ele>
        <time>2021-05-23T14:14:39Z</time>
      </trkpt>
      <trkpt lat="42.7917450" lon="-8.6447290">
        <ele>63.4</ele>
        <time>2021-05-23T14:14:40Z</time>
      </trkpt>
      <trkpt lat="42.7917540" lon="-8.6447250">
        <ele>63.4</ele>
        <time>2021-05-23T14:14:41Z</time>
      </trkpt>
      <trkpt lat="42.7917620" lon="-8.6447210">
        <ele>63.4</ele>
        <time>2021-05-23T14:14:42Z</time>
      </trkpt>
      <trkpt lat="42.7917780" lon="-8.6447060">
        <ele>63.4</ele>
        <time>2021-05-23T14:14:43Z</time>
      </trkpt>
      <trkpt lat="42.7917950" lon="-8.6447020">
        <ele>63.4</ele>
        <time>2021-05-23T14:14:44Z</time>
      </trkpt>
      <trkpt lat="42.7918040" lon="-8.6446890">
        <ele>63.4</ele>
        <time>2021-05-23T14:14:45Z</time>
      </trkpt>
      <trkpt lat="42.7918210" lon="-8.6446850">
        <ele>63.4</ele>
        <time>2021-05-23T14:14:46Z</time>
      </trkpt>
      <trkpt lat="42.7918340" lon="-8.6446840">
        <ele>63.4</ele>
        <time>2021-05-23T14:14:47Z</time>
      </trkpt>
      <trkpt lat="42.7918500" lon="-8.6446790">
        <ele>63.4</ele>
        <time>2021-05-23T14:14:48Z</time>
      </trkpt>
      <trkpt lat="42.7918710" lon="-8.6446680">
        <ele>63.4</ele>
        <time>2021-05-23T14:14:49Z</time>
      </trkpt>
      <trkpt lat="42.7918780" lon="-8.6446610">
        <ele>63.3</ele>
        <time>2021-05-23T14:14:50Z</time>
      </trkpt>
      <trkpt lat="42.7918860" lon="-8.6446540">
        <ele>63.3</ele>
        <time>2021-05-23T14:14:51Z</time>
      </trkpt>
      <trkpt lat="42.7918970" lon="-8.6446400">
        <ele>63.3</ele>
        <time>2021-05-23T14:14:52Z</time>
      </trkpt>
      <trkpt lat="42.7919120" lon="-8.6446230">
        <ele>63.3</ele>
        <time>2021-05-23T14:14:53Z</time>
      </trkpt>
      <trkpt lat="42.7919220" lon="-8.6446220">
        <ele>63.3</ele>
        <time>2021-05-23T14:14:54Z</time>
      </trkpt>
      <trkpt lat="42.7919330" lon="-8.6446210">
        <ele>63.3</ele>
        <time>2021-05-23T14:14:55Z</time>
      </trkpt>
      <trkpt lat="42.7919470" lon="-8.6446130">
        <ele>63.3</ele>
        <time>2021-05-23T14:14:56Z</time>
      </trkpt>
      <trkpt lat="42.7919560" lon="-8.6446150">
        <ele>63.3</ele>
        <time>2021-05-23T14:14:57Z</time>
      </trkpt>
      <trkpt lat="42.7919680" lon="-8.6446060">
        <ele>63.2</ele>
        <time>2021-05-23T14:14:58Z</time>
      </trkpt>
      <trkpt lat="42.7919810" lon="-8.6445990">
        <ele>63.2</ele>
        <time>2021-05-23T14:14:59Z</time>
      </trkpt>
      <trkpt lat="42.7919910" lon="-8.6445870">
        <ele>63.2</ele>
        <time>2021-05-23T14:15:00Z</time>
      </trkpt>
      <trkpt lat="42.7920020" lon="-8.6445860">
        <ele>63.2</ele>
        <time>2021-05-23T14:15:01Z</time>
      </trkpt>
      <trkpt lat="42.7920130" lon="-8.6445760">
        <ele>63.2</ele>
        <time>2021-05-23T14:15:02Z</time>
      </trkpt>
      <trkpt lat="42.7920290" lon="-8.6445640">
        <ele>63.2</ele>
        <time>2021-05-23T14:15:03Z</time>
      </trkpt>
      <trkpt lat="42.7920390" lon="-8.6445480">
        <ele>63.1</ele>
        <time>2021-05-23T14:15:04Z</time>
      </trkpt>
      <trkpt lat="42.7920560" lon="-8.6445290">
        <ele>63.1</ele>
        <time>2021-05-23T14:15:05Z</time>
      </trkpt>
      <trkpt lat="42.7920610" lon="-8.6445220">
        <ele>63.1</ele>
        <time>2021-05-23T14:15:06Z</time>
      </trkpt>
      <trkpt lat="42.7920670" lon="-8.6445140">
        <ele>63.1</ele>
        <time>2021-05-23T14:15:07Z</time>
      </trkpt>
      <trkpt lat="42.7920760" lon="-8.6445060">
        <ele>63.1</ele>
        <time>2021-05-23T14:15:08Z</time>
      </trkpt>
      <trkpt lat="42.7920870" lon="-8.6444980">
        <ele>63.1</ele>
        <time>2021-05-23T14:15:09Z</time>
      </trkpt>
      <trkpt lat="42.7920960" lon="-8.6444860">
        <ele>63.0</ele>
        <time>2021-05-23T14:15:10Z</time>
      </trkpt>
      <trkpt lat="42.7921100" lon="-8.6444640">
        <ele>63.0</ele>
        <time>2021-05-23T14:15:11Z</time>
      </trkpt>
      <trkpt lat="42.7921190" lon="-8.6444500">
        <ele>63.0</ele>
        <time>2021-05-23T14:15:12Z</time>
      </trkpt>
      <trkpt lat="42.7921230" lon="-8.6444340">
        <ele>62.9</ele>
        <time>2021-05-23T14:15:13Z</time>
      </trkpt>
      <trkpt lat="42.7921280" lon="-8.6444210">
        <ele>62.9</ele>
        <time>2021-05-23T14:15:14Z</time>
      </trkpt>
      <trkpt lat="42.7921320" lon="-8.6444100">
        <ele>62.9</ele>
        <time>2021-05-23T14:15:15Z</time>
      </trkpt>
      <trkpt lat="42.7921410" lon="-8.6443990">
        <ele>62.9</ele>
        <time>2021-05-23T14:15:16Z</time>
      </trkpt>
      <trkpt lat="42.7921520" lon="-8.6443770">
        <ele>62.8</ele>
        <time>2021-05-23T14:15:17Z</time>
      </trkpt>
      <trkpt lat="42.7921660" lon="-8.6443540">
        <ele>62.7</ele>
        <time>2021-05-23T14:15:18Z</time>
      </trkpt>
      <trkpt lat="42.7921730" lon="-8.6443410">
        <ele>62.7</ele>
        <time>2021-05-23T14:15:19Z</time>
      </trkpt>
      <trkpt lat="42.7921810" lon="-8.6443270">
        <ele>62.7</ele>
        <time>2021-05-23T14:15:20Z</time>
      </trkpt>
      <trkpt lat="42.7921960" lon="-8.6443130">
        <ele>62.6</ele>
        <time>2021-05-23T14:15:21Z</time>
      </trkpt>
      <trkpt lat="42.7922010" lon="-8.6443020">
        <ele>62.6</ele>
        <time>2021-05-23T14:15:22Z</time>
      </trkpt>
      <trkpt lat="42.7922070" lon="-8.6442900">
        <ele>62.5</ele>
        <time>2021-05-23T14:15:23Z</time>
      </trkpt>
      <trkpt lat="42.7922170" lon="-8.6442740">
        <ele>62.5</ele>
        <time>2021-05-23T14:15:24Z</time>
      </trkpt>
      <trkpt lat="42.7922280" lon="-8.6442560">
        <ele>62.4</ele>
        <time>2021-05-23T14:15:25Z</time>
      </trkpt>
      <trkpt lat="42.7922310" lon="-8.6442350">
        <ele>62.4</ele>
        <time>2021-05-23T14:15:26Z</time>
      </trkpt>
      <trkpt lat="42.7922450" lon="-8.6442160">
        <ele>62.3</ele>
        <time>2021-05-23T14:15:27Z</time>
      </trkpt>
      <trkpt lat="42.7922620" lon="-8.6441900">
        <ele>62.2</ele>
        <time>2021-05-23T14:15:28Z</time>
      </trkpt>
      <trkpt lat="42.7922700" lon="-8.6441820">
        <ele>62.2</ele>
        <time>2021-05-23T14:15:29Z</time>
      </trkpt>
      <trkpt lat="42.7922770" lon="-8.6441750">
        <ele>62.1</ele>
        <time>2021-05-23T14:15:30Z</time>
      </trkpt>
      <trkpt lat="42.7922850" lon="-8.6441620">
        <ele>62.1</ele>
        <time>2021-05-23T14:15:31Z</time>
      </trkpt>
      <trkpt lat="42.7922880" lon="-8.6441540">
        <ele>62.1</ele>
        <time>2021-05-23T14:15:32Z</time>
      </trkpt>
      <trkpt lat="42.7922980" lon="-8.6441440">
        <ele>62.0</ele>
        <time>2021-05-23T14:15:33Z</time>
      </trkpt>
      <trkpt lat="42.7923030" lon="-8.6441350">
        <ele>62.0</ele>
        <time>2021-05-23T14:15:34Z</time>
      </trkpt>
      <trkpt lat="42.7923130" lon="-8.6441220">
        <ele>62.0</ele>
        <time>2021-05-23T14:15:35Z</time>
      </trkpt>
      <trkpt lat="42.7923210" lon="-8.6441090">
        <ele>61.9</ele>
        <time>2021-05-23T14:15:36Z</time>
      </trkpt>
      <trkpt lat="42.7923300" lon="-8.6440940">
        <ele>61.9</ele>
        <time>2021-05-23T14:15:37Z</time>
      </trkpt>
      <trkpt lat="42.7923300" lon="-8.6440770">
        <ele>61.9</ele>
        <time>2021-05-23T14:15:38Z</time>
      </trkpt>
      <trkpt lat="42.7923390" lon="-8.6440650">
        <ele>61.8</ele>
        <time>2021-05-23T14:15:39Z</time>
      </trkpt>
      <trkpt lat="42.7923420" lon="-8.6440480">
        <ele>61.8</ele>
        <time>2021-05-23T14:15:40Z</time>
      </trkpt>
      <trkpt lat="42.7923480" lon="-8.6440380">
        <ele>61.8</ele>
        <time>2021-05-23T14:15:41Z</time>
      </trkpt>
      <trkpt lat="42.7923540" lon="-8.6440310">
        <ele>61.8</ele>
        <time>2021-05-23T14:15:42Z</time>
      </trkpt>
      <trkpt lat="42.7923650" lon="-8.6439940">
        <ele>61.7</ele>
        <time>2021-05-23T14:15:43Z</time>
      </trkpt>
      <trkpt lat="42.7923710" lon="-8.6439840">
        <ele>61.7</ele>
        <time>2021-05-23T14:15:44Z</time>
      </trkpt>
      <trkpt lat="42.7923880" lon="-8.6439620">
        <ele>61.7</ele>
        <time>2021-05-23T14:15:45Z</time>
      </trkpt>
      <trkpt lat="42.7923970" lon="-8.6439540">
        <ele>61.7</ele>
        <time>2021-05-23T14:15:46Z</time>
      </trkpt>
      <trkpt lat="42.7924070" lon="-8.6439460">
        <ele>61.6</ele>
        <time>2021-05-23T14:15:47Z</time>
      </trkpt>
      <trkpt lat="42.7924190" lon="-8.6439240">
        <ele>61.6</ele>
        <time>2021-05-23T14:15:48Z</time>
      </trkpt>
      <trkpt lat="42.7924280" lon="-8.6439170">
        <ele>61.6</ele>
        <time>2021-05-23T14:15:49Z</time>
      </trkpt>
      <trkpt lat="42.7924400" lon="-8.6439030">
        <ele>61.6</ele>
        <time>2021-05-23T14:15:50Z</time>
      </trkpt>
      <trkpt lat="42.7924420" lon="-8.6438850">
        <ele>61.6</ele>
        <time>2021-05-23T14:15:51Z</time>
      </trkpt>
      <trkpt lat="42.7924610" lon="-8.6438640">
        <ele>61.5</ele>
        <time>2021-05-23T14:15:52Z</time>
      </trkpt>
      <trkpt lat="42.7924680" lon="-8.6438570">
        <ele>61.5</ele>
        <time>2021-05-23T14:15:53Z</time>
      </trkpt>
      <trkpt lat="42.7924750" lon="-8.6438510">
        <ele>61.5</ele>
        <time>2021-05-23T14:15:54Z</time>
      </trkpt>
      <trkpt lat="42.7924750" lon="-8.6438270">
        <ele>61.5</ele>
        <time>2021-05-23T14:15:55Z</time>
      </trkpt>
      <trkpt lat="42.7924940" lon="-8.6438120">
        <ele>61.5</ele>
        <time>2021-05-23T14:15:56Z</time>
      </trkpt>
      <trkpt lat="42.7925130" lon="-8.6437880">
        <ele>61.5</ele>
        <time>2021-05-23T14:15:57Z</time>
      </trkpt>
      <trkpt lat="42.7925220" lon="-8.6437800">
        <ele>61.5</ele>
        <time>2021-05-23T14:15:58Z</time>
      </trkpt>
      <trkpt lat="42.7925440" lon="-8.6437560">
        <ele>61.5</ele>
        <time>2021-05-23T14:15:59Z</time>
      </trkpt>
      <trkpt lat="42.7925520" lon="-8.6437470">
        <ele>61.5</ele>
        <time>2021-05-23T14:16:00Z</time>
      </trkpt>
      <trkpt lat="42.7925610" lon="-8.6437300">
        <ele>61.5</ele>
        <time>2021-05-23T14:16:01Z</time>
      </trkpt>
      <trkpt lat="42.7925750" lon="-8.6437210">
        <ele>61.5</ele>
        <time>2021-05-23T14:16:02Z</time>
      </trkpt>
      <trkpt lat="42.7925890" lon="-8.6437120">
        <ele>61.5</ele>
        <time>2021-05-23T14:16:03Z</time>
      </trkpt>
      <trkpt lat="42.7926020" lon="-8.6436950">
        <ele>61.6</ele>
        <time>2021-05-23T14:16:04Z</time>
      </trkpt>
      <trkpt lat="42.7926120" lon="-8.6436860">
        <ele>61.6</ele>
        <time>2021-05-23T14:16:05Z</time>
      </trkpt>
      <trkpt lat="42.7926230" lon="-8.6436710">
        <ele>61.6</ele>
        <time>2021-05-23T14:16:06Z</time>
      </trkpt>
      <trkpt lat="42.7926360" lon="-8.6436560">
        <ele>61.6</ele>
        <time>2021-05-23T14:16:07Z</time>
      </trkpt>
      <trkpt lat="42.7926480" lon="-8.6436520">
        <ele>61.6</ele>
        <time>2021-05-23T14:16:08Z</time>
      </trkpt>
      <trkpt lat="42.7926620" lon="-8.6436490">
        <ele>61.7</ele>
        <time>2021-05-23T14:16:09Z</time>
      </trkpt>
      <trkpt lat="42.7926760" lon="-8.6436350">
        <ele>61.7</ele>
        <time>2021-05-23T14:16:10Z</time>
      </trkpt>
      <trkpt lat="42.7926880" lon="-8.6436310">
        <ele>61.7</ele>
        <time>2021-05-23T14:16:11Z</time>
      </trkpt>
      <trkpt lat="42.7927020" lon="-8.6436220">
        <ele>61.8</ele>
        <time>2021-05-23T14:16:12Z</time>
      </trkpt>
      <trkpt lat="42.7927180" lon="-8.6436240">
        <ele>61.8</ele>
        <time>2021-05-23T14:16:13Z</time>
      </trkpt>
      <trkpt lat="42.7927220" lon="-8.6436090">
        <ele>61.9</ele>
        <time>2021-05-23T14:16:14Z</time>
      </trkpt>
      <trkpt lat="42.7927290" lon="-8.6435980">
        <ele>61.9</ele>
        <time>2021-05-23T14:16:15Z</time>
      </trkpt>
      <trkpt lat="42.7927350" lon="-8.6435950">
        <ele>61.9</ele>
        <time>2021-05-23T14:16:16Z</time>
      </trkpt>
      <trkpt lat="42.7927410" lon="-8.6435810">
        <ele>61.9</ele>
        <time>2021-05-23T14:16:17Z</time>
      </trkpt>
      <trkpt lat="42.7927470" lon="-8.6435670">
        <ele>62.0</ele>
        <time>2021-05-23T14:16:18Z</time>
      </trkpt>
      <trkpt lat="42.7927640" lon="-8.6435500">
        <ele>62.0</ele>
        <time>2021-05-23T14:16:19Z</time>
      </trkpt>
      <trkpt lat="42.7927740" lon="-8.6435430">
        <ele>62.1</ele>
        <time>2021-05-23T14:16:20Z</time>
      </trkpt>
      <trkpt lat="42.7927830" lon="-8.6435360">
        <ele>62.1</ele>
        <time>2021-05-23T14:16:21Z</time>
      </trkpt>
      <trkpt lat="42.7927940" lon="-8.6435300">
        <ele>62.2</ele>
        <time>2021-05-23T14:16:22Z</time>
      </trkpt>
      <trkpt lat="42.7928030" lon="-8.6435150">
        <ele>62.2</ele>
        <time>2021-05-23T14:16:23Z</time>
      </trkpt>
      <trkpt lat="42.7928060" lon="-8.6435080">
        <ele>62.3</ele>
        <time>2021-05-23T14:16:24Z</time>
      </trkpt>
      <trkpt lat="42.7928140" lon="-8.6434960">
        <ele>62.3</ele>
        <time>2021-05-23T14:16:25Z</time>
      </trkpt>
      <trkpt lat="42.7928200" lon="-8.6434790">
        <ele>62.4</ele>
        <time>2021-05-23T14:16:26Z</time>
      </trkpt>
      <trkpt lat="42.7928190" lon="-8.6434680">
        <ele>62.4</ele>
        <time>2021-05-23T14:16:27Z</time>
      </trkpt>
      <trkpt lat="42.7928390" lon="-8.6434550">
        <ele>62.5</ele>
        <time>2021-05-23T14:16:28Z</time>
      </trkpt>
      <trkpt lat="42.7928470" lon="-8.6434510">
        <ele>62.6</ele>
        <time>2021-05-23T14:16:29Z</time>
      </trkpt>
      <trkpt lat="42.7928540" lon="-8.6434470">
        <ele>62.6</ele>
        <time>2021-05-23T14:16:30Z</time>
      </trkpt>
      <trkpt lat="42.7928620" lon="-8.6434370">
        <ele>62.7</ele>
        <time>2021-05-23T14:16:31Z</time>
      </trkpt>
      <trkpt lat="42.7928650" lon="-8.6434300">
        <ele>62.7</ele>
        <time>2021-05-23T14:16:32Z</time>
      </trkpt>
      <trkpt lat="42.7928810" lon="-8.6434180">
        <ele>62.8</ele>
        <time>2021-05-23T14:16:33Z</time>
      </trkpt>
      <trkpt lat="42.7928890" lon="-8.6434090">
        <ele>62.8</ele>
        <time>2021-05-23T14:16:34Z</time>
      </trkpt>
      <trkpt lat="42.7929080" lon="-8.6433940">
        <ele>63.0</ele>
        <time>2021-05-23T14:16:35Z</time>
      </trkpt>
      <trkpt lat="42.7929170" lon="-8.6433840">
        <ele>63.0</ele>
        <time>2021-05-23T14:16:36Z</time>
      </trkpt>
      <trkpt lat="42.7929330" lon="-8.6433660">
        <ele>63.2</ele>
        <time>2021-05-23T14:16:37Z</time>
      </trkpt>
      <trkpt lat="42.7929410" lon="-8.6433660">
        <ele>63.2</ele>
        <time>2021-05-23T14:16:38Z</time>
      </trkpt>
      <trkpt lat="42.7929550" lon="-8.6433570">
        <ele>63.3</ele>
        <time>2021-05-23T14:16:39Z</time>
      </trkpt>
      <trkpt lat="42.7929600" lon="-8.6433440">
        <ele>63.4</ele>
        <time>2021-05-23T14:16:40Z</time>
      </trkpt>
      <trkpt lat="42.7929780" lon="-8.6433230">
        <ele>63.5</ele>
        <time>2021-05-23T14:16:41Z</time>
      </trkpt>
      <trkpt lat="42.7929860" lon="-8.6433130">
        <ele>63.6</ele>
        <time>2021-05-23T14:16:42Z</time>
      </trkpt>
      <trkpt lat="42.7929940" lon="-8.6433040">
        <ele>63.6</ele>
        <time>2021-05-23T14:16:43Z</time>
      </trkpt>
      <trkpt lat="42.7930000" lon="-8.6432960">
        <ele>63.7</ele>
        <time>2021-05-23T14:16:44Z</time>
      </trkpt>
      <trkpt lat="42.7930090" lon="-8.6432940">
        <ele>63.7</ele>
        <time>2021-05-23T14:16:45Z</time>
      </trkpt>
      <trkpt lat="42.7930140" lon="-8.6432840">
        <ele>63.8</ele>
        <time>2021-05-23T14:16:46Z</time>
      </trkpt>
      <trkpt lat="42.7930210" lon="-8.6432790">
        <ele>63.8</ele>
        <time>2021-05-23T14:16:47Z</time>
      </trkpt>
      <trkpt lat="42.7930300" lon="-8.6432660">
        <ele>63.9</ele>
        <time>2021-05-23T14:16:48Z</time>
      </trkpt>
      <trkpt lat="42.7930450" lon="-8.6432500">
        <ele>64.0</ele>
        <time>2021-05-23T14:16:49Z</time>
      </trkpt>
      <trkpt lat="42.7930550" lon="-8.6432370">
        <ele>64.1</ele>
        <time>2021-05-23T14:16:50Z</time>
      </trkpt>
      <trkpt lat="42.7930700" lon="-8.6432310">
        <ele>64.2</ele>
        <time>2021-05-23T14:16:51Z</time>
      </trkpt>
      <trkpt lat="42.7930800" lon="-8.6432160">
        <ele>64.3</ele>
        <time>2021-05-23T14:16:52Z</time>
      </trkpt>
      <trkpt lat="42.7930950" lon="-8.6431980">
        <ele>64.4</ele>
        <time>2021-05-23T14:16:53Z</time>
      </trkpt>
      <trkpt lat="42.7931000" lon="-8.6431800">
        <ele>64.4</ele>
        <time>2021-05-23T14:16:54Z</time>
      </trkpt>
      <trkpt lat="42.7931120" lon="-8.6431680">
        <ele>64.5</ele>
        <time>2021-05-23T14:16:55Z</time>
      </trkpt>
      <trkpt lat="42.7931300" lon="-8.6431570">
        <ele>64.6</ele>
        <time>2021-05-23T14:16:56Z</time>
      </trkpt>
      <trkpt lat="42.7931360" lon="-8.6431470">
        <ele>64.7</ele>
        <time>2021-05-23T14:16:57Z</time>
      </trkpt>
      <trkpt lat="42.7931410" lon="-8.6431380">
        <ele>64.7</ele>
        <time>2021-05-23T14:16:58Z</time>
      </trkpt>
      <trkpt lat="42.7931560" lon="-8.6431210">
        <ele>64.8</ele>
        <time>2021-05-23T14:16:59Z</time>
      </trkpt>
      <trkpt lat="42.7931620" lon="-8.6431110">
        <ele>64.8</ele>
        <time>2021-05-23T14:17:00Z</time>
      </trkpt>
      <trkpt lat="42.7931680" lon="-8.6431020">
        <ele>64.9</ele>
        <time>2021-05-23T14:17:01Z</time>
      </trkpt>
      <trkpt lat="42.7931840" lon="-8.6430870">
        <ele>65.0</ele>
        <time>2021-05-23T14:17:02Z</time>
      </trkpt>
      <trkpt lat="42.7931910" lon="-8.6430790">
        <ele>65.0</ele>
        <time>2021-05-23T14:17:03Z</time>
      </trkpt>
      <trkpt lat="42.7931970" lon="-8.6430700">
        <ele>65.1</ele>
        <time>2021-05-23T14:17:04Z</time>
      </trkpt>
      <trkpt lat="42.7932120" lon="-8.6430480">
        <ele>65.2</ele>
        <time>2021-05-23T14:17:05Z</time>
      </trkpt>
      <trkpt lat="42.7932230" lon="-8.6430370">
        <ele>65.2</ele>
        <time>2021-05-23T14:17:06Z</time>
      </trkpt>
      <trkpt lat="42.7932330" lon="-8.6430270">
        <ele>65.3</ele>
        <time>2021-05-23T14:17:07Z</time>
      </trkpt>
      <trkpt lat="42.7932490" lon="-8.6430180">
        <ele>65.4</ele>
        <time>2021-05-23T14:17:08Z</time>
      </trkpt>
      <trkpt lat="42.7932540" lon="-8.6430020">
        <ele>65.4</ele>
        <time>2021-05-23T14:17:09Z</time>
      </trkpt>
      <trkpt lat="42.7932570" lon="-8.6429820">
        <ele>65.5</ele>
        <time>2021-05-23T14:17:10Z</time>
      </trkpt>
      <trkpt lat="42.7932730" lon="-8.6429710">
        <ele>65.6</ele>
        <time>2021-05-23T14:17:11Z</time>
      </trkpt>
      <trkpt lat="42.7932770" lon="-8.6429530">
        <ele>65.6</ele>
        <time>2021-05-23T14:17:12Z</time>
      </trkpt>
      <trkpt lat="42.7932900" lon="-8.6429430">
        <ele>65.6</ele>
        <time>2021-05-23T14:17:13Z</time>
      </trkpt>
      <trkpt lat="42.7932910" lon="-8.6429310">
        <ele>65.7</ele>
        <time>2021-05-23T14:17:14Z</time>
      </trkpt>
      <trkpt lat="42.7933030" lon="-8.6429100">
        <ele>65.7</ele>
        <time>2021-05-23T14:17:15Z</time>
      </trkpt>
      <trkpt lat="42.7933050" lon="-8.6428930">
        <ele>65.8</ele>
        <time>2021-05-23T14:17:16Z</time>
      </trkpt>
      <trkpt lat="42.7933200" lon="-8.6428710">
        <ele>65.8</ele>
        <time>2021-05-23T14:17:17Z</time>
      </trkpt>
      <trkpt lat="42.7933250" lon="-8.6428620">
        <ele>65.8</ele>
        <time>2021-05-23T14:17:18Z</time>
      </trkpt>
      <trkpt lat="42.7933310" lon="-8.6428530">
        <ele>65.8</ele>
        <time>2021-05-23T14:17:19Z</time>
      </trkpt>
      <trkpt lat="42.7933480" lon="-8.6428360">
        <ele>65.9</ele>
        <time>2021-05-23T14:17:20Z</time>
      </trkpt>
      <trkpt lat="42.7933530" lon="-8.6428260">
        <ele>65.9</ele>
        <time>2021-05-23T14:17:21Z</time>
      </trkpt>
      <trkpt lat="42.7933590" lon="-8.6428160">
        <ele>65.9</ele>
        <time>2021-05-23T14:17:22Z</time>
      </trkpt>
      <trkpt lat="42.7933700" lon="-8.6428050">
        <ele>65.9</ele>
        <time>2021-05-23T14:17:23Z</time>
      </trkpt>
      <trkpt lat="42.7933780" lon="-8.6427880">
        <ele>65.9</ele>
        <time>2021-05-23T14:17:24Z</time>
      </trkpt>
      <trkpt lat="42.7934010" lon="-8.6427660">
        <ele>65.9</ele>
        <time>2021-05-23T14:17:25Z</time>
      </trkpt>
      <trkpt lat="42.7934100" lon="-8.6427590">
        <ele>65.9</ele>
        <time>2021-05-23T14:17:26Z</time>
      </trkpt>
      <trkpt lat="42.7934200" lon="-8.6427400">
        <ele>65.9</ele>
        <time>2021-05-23T14:17:27Z</time>
      </trkpt>
      <trkpt lat="42.7934360" lon="-8.6427330">
        <ele>65.8</ele>
        <time>2021-05-23T14:17:28Z</time>
      </trkpt>
      <trkpt lat="42.7934510" lon="-8.6427170">
        <ele>65.7</ele>
        <time>2021-05-23T14:17:29Z</time>
      </trkpt>
      <trkpt lat="42.7934590" lon="-8.6427110">
        <ele>65.7</ele>
        <time>2021-05-23T14:17:30Z</time>
      </trkpt>
      <trkpt lat="42.7934680" lon="-8.6427060">
        <ele>65.7</ele>
        <time>2021-05-23T14:17:31Z</time>
      </trkpt>
      <trkpt lat="42.7934770" lon="-8.6426970">
        <ele>65.6</ele>
        <time>2021-05-23T14:17:32Z</time>
      </trkpt>
      <trkpt lat="42.7934950" lon="-8.6426900">
        <ele>65.5</ele>
        <time>2021-05-23T14:17:33Z</time>
      </trkpt>
      <trkpt lat="42.7935020" lon="-8.6426770">
        <ele>65.4</ele>
        <time>2021-05-23T14:17:34Z</time>
      </trkpt>
      <trkpt lat="42.7935200" lon="-8.6426650">
        <ele>65.3</ele>
        <time>2021-05-23T14:17:35Z</time>
      </trkpt>
      <trkpt lat="42.7935330" lon="-8.6426560">
        <ele>65.2</ele>
        <time>2021-05-23T14:17:36Z</time>
      </trkpt>
      <trkpt lat="42.7935500" lon="-8.6426410">
        <ele>65.1</ele>
        <time>2021-05-23T14:17:37Z</time>
      </trkpt>
      <trkpt lat="42.7935630" lon="-8.6426280">
        <ele>65.0</ele>
        <time>2021-05-23T14:17:38Z</time>
      </trkpt>
      <trkpt lat="42.7935750" lon="-8.6426120">
        <ele>64.9</ele>
        <time>2021-05-23T14:17:39Z</time>
      </trkpt>
      <trkpt lat="42.7935920" lon="-8.6426050">
        <ele>64.8</ele>
        <time>2021-05-23T14:17:40Z</time>
      </trkpt>
      <trkpt lat="42.7936050" lon="-8.6425930">
        <ele>64.7</ele>
        <time>2021-05-23T14:17:41Z</time>
      </trkpt>
      <trkpt lat="42.7936160" lon="-8.6425750">
        <ele>64.6</ele>
        <time>2021-05-23T14:17:42Z</time>
      </trkpt>
      <trkpt lat="42.7936290" lon="-8.6425670">
        <ele>64.5</ele>
        <time>2021-05-23T14:17:43Z</time>
      </trkpt>
      <trkpt lat="42.7936360" lon="-8.6425520">
        <ele>64.4</ele>
        <time>2021-05-23T14:17:44Z</time>
      </trkpt>
      <trkpt lat="42.7936440" lon="-8.6425490">
        <ele>64.3</ele>
        <time>2021-05-23T14:17:45Z</time>
      </trkpt>
      <trkpt lat="42.7936580" lon="-8.6425410">
        <ele>64.2</ele>
        <time>2021-05-23T14:17:46Z</time>
      </trkpt>
      <trkpt lat="42.7936670" lon="-8.6425310">
        <ele>64.1</ele>
        <time>2021-05-23T14:17:47Z</time>
      </trkpt>
      <trkpt lat="42.7936750" lon="-8.6425270">
        <ele>64.1</ele>
        <time>2021-05-23T14:17:48Z</time>
      </trkpt>
      <trkpt lat="42.7936840" lon="-8.6425150">
        <ele>64.0</ele>
        <time>2021-05-23T14:17:49Z</time>
      </trkpt>
      <trkpt lat="42.7937090" lon="-8.6424930">
        <ele>63.7</ele>
        <time>2021-05-23T14:17:50Z</time>
      </trkpt>
      <trkpt lat="42.7937150" lon="-8.6424870">
        <ele>63.7</ele>
        <time>2021-05-23T14:17:51Z</time>
      </trkpt>
      <trkpt lat="42.7937260" lon="-8.6424720">
        <ele>63.6</ele>
        <time>2021-05-23T14:17:52Z</time>
      </trkpt>
      <trkpt lat="42.7937410" lon="-8.6424590">
        <ele>63.4</ele>
        <time>2021-05-23T14:17:53Z</time>
      </trkpt>
      <trkpt lat="42.7937550" lon="-8.6424490">
        <ele>63.3</ele>
        <time>2021-05-23T14:17:54Z</time>
      </trkpt>
      <trkpt lat="42.7937670" lon="-8.6424350">
        <ele>63.2</ele>
        <time>2021-05-23T14:17:55Z</time>
      </trkpt>
      <trkpt lat="42.7937800" lon="-8.6424240">
        <ele>63.0</ele>
        <time>2021-05-23T14:17:56Z</time>
      </trkpt>
      <trkpt lat="42.7937920" lon="-8.6424110">
        <ele>62.9</ele>
        <time>2021-05-23T14:17:57Z</time>
      </trkpt>
      <trkpt lat="42.7938030" lon="-8.6424010">
        <ele>62.8</ele>
        <time>2021-05-23T14:17:58Z</time>
      </trkpt>
      <trkpt lat="42.7938190" lon="-8.6423950">
        <ele>62.6</ele>
        <time>2021-05-23T14:17:59Z</time>
      </trkpt>
      <trkpt lat="42.7938390" lon="-8.6423810">
        <ele>62.5</ele>
        <time>2021-05-23T14:18:00Z</time>
      </trkpt>
      <trkpt lat="42.7938450" lon="-8.6423740">
        <ele>62.4</ele>
        <time>2021-05-23T14:18:01Z</time>
      </trkpt>
      <trkpt lat="42.7938520" lon="-8.6423660">
        <ele>62.3</ele>
        <time>2021-05-23T14:18:02Z</time>
      </trkpt>
      <trkpt lat="42.7938710" lon="-8.6423460">
        <ele>62.1</ele>
        <time>2021-05-23T14:18:03Z</time>
      </trkpt>
      <trkpt lat="42.7938790" lon="-8.6423400">
        <ele>62.0</ele>
        <time>2021-05-23T14:18:04Z</time>
      </trkpt>
      <trkpt lat="42.7938870" lon="-8.6423340">
        <ele>61.9</ele>
        <time>2021-05-23T14:18:05Z</time>
      </trkpt>
      <trkpt lat="42.7938980" lon="-8.6423240">
        <ele>61.8</ele>
        <time>2021-05-23T14:18:06Z</time>
      </trkpt>
      <trkpt lat="42.7939070" lon="-8.6423070">
        <ele>61.6</ele>
        <time>2021-05-23T14:18:07Z</time>
      </trkpt>
      <trkpt lat="42.7939270" lon="-8.6422960">
        <ele>61.4</ele>
        <time>2021-05-23T14:18:08Z</time>
      </trkpt>
      <trkpt lat="42.7939340" lon="-8.6422900">
        <ele>61.4</ele>
        <time>2021-05-23T14:18:09Z</time>
      </trkpt>
      <trkpt lat="42.7939410" lon="-8.6422830">
        <ele>61.3</ele>
        <time>2021-05-23T14:18:10Z</time>
      </trkpt>
      <trkpt lat="42.7939480" lon="-8.6422680">
        <ele>61.1</ele>
        <time>2021-05-23T14:18:11Z</time>
      </trkpt>
      <trkpt lat="42.7939630" lon="-8.6422580">
        <ele>61.0</ele>
        <time>2021-05-23T14:18:12Z</time>
      </trkpt>
      <trkpt lat="42.7939740" lon="-8.6422450">
        <ele>60.8</ele>
        <time>2021-05-23T14:18:13Z</time>
      </trkpt>
      <trkpt lat="42.7939840" lon="-8.6422340">
        <ele>60.7</ele>
        <time>2021-05-23T14:18:14Z</time>
      </trkpt>
      <trkpt lat="42.7939990" lon="-8.6422120">
        <ele>60.4</ele>
        <time>2021-05-23T14:18:15Z</time>
      </trkpt>
      <trkpt lat="42.7940050" lon="-8.6422040">
        <ele>60.3</ele>
        <time>2021-05-23T14:18:16Z</time>
      </trkpt>
      <trkpt lat="42.7940110" lon="-8.6421960">
        <ele>60.3</ele>
        <time>2021-05-23T14:18:17Z</time>
      </trkpt>
      <trkpt lat="42.7940200" lon="-8.6421890">
        <ele>60.1</ele>
        <time>2021-05-23T14:18:18Z</time>
      </trkpt>
      <trkpt lat="42.7940250" lon="-8.6421750">
        <ele>60.0</ele>
        <time>2021-05-23T14:18:19Z</time>
      </trkpt>
      <trkpt lat="42.7940320" lon="-8.6421650">
        <ele>59.9</ele>
        <time>2021-05-23T14:18:20Z</time>
      </trkpt>
      <trkpt lat="42.7940470" lon="-8.6421650">
        <ele>59.7</ele>
        <time>2021-05-23T14:18:21Z</time>
      </trkpt>
      <trkpt lat="42.7940490" lon="-8.6421550">
        <ele>59.7</ele>
        <time>2021-05-23T14:18:22Z</time>
      </trkpt>
      <trkpt lat="42.7940610" lon="-8.6421400">
        <ele>59.5</ele>
        <time>2021-05-23T14:18:23Z</time>
      </trkpt>
      <trkpt lat="42.7940680" lon="-8.6421270">
        <ele>59.3</ele>
        <time>2021-05-23T14:18:24Z</time>
      </trkpt>
      <trkpt lat="42.7940830" lon="-8.6421130">
        <ele>59.1</ele>
        <time>2021-05-23T14:18:25Z</time>
      </trkpt>
      <trkpt lat="42.7940990" lon="-8.6420950">
        <ele>58.9</ele>
        <time>2021-05-23T14:18:26Z</time>
      </trkpt>
      <trkpt lat="42.7941020" lon="-8.6420840">
        <ele>58.8</ele>
        <time>2021-05-23T14:18:27Z</time>
      </trkpt>
      <trkpt lat="42.7941060" lon="-8.6420740">
        <ele>58.7</ele>
        <time>2021-05-23T14:18:28Z</time>
      </trkpt>
      <trkpt lat="42.7941110" lon="-8.6420560">
        <ele>58.6</ele>
        <time>2021-05-23T14:18:29Z</time>
      </trkpt>
      <trkpt lat="42.7941110" lon="-8.6420400">
        <ele>58.4</ele>
        <time>2021-05-23T14:18:30Z</time>
      </trkpt>
      <trkpt lat="42.7941240" lon="-8.6420320">
        <ele>58.3</ele>
        <time>2021-05-23T14:18:31Z</time>
      </trkpt>
      <trkpt lat="42.7941310" lon="-8.6420190">
        <ele>58.1</ele>
        <time>2021-05-23T14:18:32Z</time>
      </trkpt>
      <trkpt lat="42.7941360" lon="-8.6420060">
        <ele>58.0</ele>
        <time>2021-05-23T14:18:33Z</time>
      </trkpt>
      <trkpt lat="42.7941470" lon="-8.6419960">
        <ele>57.9</ele>
        <time>2021-05-23T14:18:34Z</time>
      </trkpt>
      <trkpt lat="42.7941490" lon="-8.6419860">
        <ele>57.8</ele>
        <time>2021-05-23T14:18:35Z</time>
      </trkpt>
      <trkpt lat="42.7941610" lon="-8.6419680">
        <ele>57.6</ele>
        <time>2021-05-23T14:18:36Z</time>
      </trkpt>
      <trkpt lat="42.7941690" lon="-8.6419610">
        <ele>57.5</ele>
        <time>2021-05-23T14:18:37Z</time>
      </trkpt>
      <trkpt lat="42.7941850" lon="-8.6419410">
        <ele>57.2</ele>
        <time>2021-05-23T14:18:38Z</time>
      </trkpt>
      <trkpt lat="42.7941910" lon="-8.6419330">
        <ele>57.1</ele>
        <time>2021-05-23T14:18:39Z</time>
      </trkpt>
      <trkpt lat="42.7941960" lon="-8.6419260">
        <ele>57.0</ele>
        <time>2021-05-23T14:18:40Z</time>
      </trkpt>
      <trkpt lat="42.7942090" lon="-8.6419130">
        <ele>56.9</ele>
        <time>2021-05-23T14:18:41Z</time>
      </trkpt>
      <trkpt lat="42.7942150" lon="-8.6418990">
        <ele>56.7</ele>
        <time>2021-05-23T14:18:42Z</time>
      </trkpt>
      <trkpt lat="42.7942240" lon="-8.6418990">
        <ele>56.6</ele>
        <time>2021-05-23T14:18:43Z</time>
      </trkpt>
      <trkpt lat="42.7942270" lon="-8.6418860">
        <ele>56.5</ele>
        <time>2021-05-23T14:18:44Z</time>
      </trkpt>
      <trkpt lat="42.7942440" lon="-8.6418840">
        <ele>56.3</ele>
        <time>2021-05-23T14:18:45Z</time>
      </trkpt>
      <trkpt lat="42.7942480" lon="-8.6418590">
        <ele>56.1</ele>
        <time>2021-05-23T14:18:46Z</time>
      </trkpt>
      <trkpt lat="42.7942600" lon="-8.6418450">
        <ele>55.9</ele>
        <time>2021-05-23T14:18:47Z</time>
      </trkpt>
      <trkpt lat="42.7942780" lon="-8.6418320">
        <ele>55.7</ele>
        <time>2021-05-23T14:18:48Z</time>
      </trkpt>
      <trkpt lat="42.7942850" lon="-8.6418220">
        <ele>55.6</ele>
        <time>2021-05-23T14:18:49Z</time>
      </trkpt>
      <trkpt lat="42.7942930" lon="-8.6418130">
        <ele>55.5</ele>
        <time>2021-05-23T14:18:50Z</time>
      </trkpt>
      <trkpt lat="42.7943010" lon="-8.6417950">
        <ele>55.3</ele>
        <time>2021-05-23T14:18:51Z</time>
      </trkpt>
      <trkpt lat="42.7943140" lon="-8.6417800">
        <ele>55.1</ele>
        <time>2021-05-23T14:18:52Z</time>
      </trkpt>
      <trkpt lat="42.7943200" lon="-8.6417680">
        <ele>54.9</ele>
        <time>2021-05-23T14:18:53Z</time>
      </trkpt>
      <trkpt lat="42.7943280" lon="-8.6417590">
        <ele>54.8</ele>
        <time>2021-05-23T14:18:54Z</time>
      </trkpt>
      <trkpt lat="42.7943350" lon="-8.6417520">
        <ele>54.7</ele>
        <time>2021-05-23T14:18:55Z</time>
      </trkpt>
      <trkpt lat="42.7943450" lon="-8.6417410">
        <ele>54.6</ele>
        <time>2021-05-23T14:18:56Z</time>
      </trkpt>
      <trkpt lat="42.7943570" lon="-8.6417290">
        <ele>54.4</ele>
        <time>2021-05-23T14:18:57Z</time>
      </trkpt>
      <trkpt lat="42.7943670" lon="-8.6417200">
        <ele>54.2</ele>
        <time>2021-05-23T14:18:58Z</time>
      </trkpt>
      <trkpt lat="42.7943780" lon="-8.6417120">
        <ele>54.1</ele>
        <time>2021-05-23T14:18:59Z</time>
      </trkpt>
      <trkpt lat="42.7943860" lon="-8.6417020">
        <ele>53.9</ele>
        <time>2021-05-23T14:19:00Z</time>
      </trkpt>
      <trkpt lat="42.7944030" lon="-8.6416880">
        <ele>53.7</ele>
        <time>2021-05-23T14:19:01Z</time>
      </trkpt>
      <trkpt lat="42.7944100" lon="-8.6416820">
        <ele>53.6</ele>
        <time>2021-05-23T14:19:02Z</time>
      </trkpt>
      <trkpt lat="42.7944180" lon="-8.6416750">
        <ele>53.5</ele>
        <time>2021-05-23T14:19:03Z</time>
      </trkpt>
      <trkpt lat="42.7944280" lon="-8.6416610">
        <ele>53.3</ele>
        <time>2021-05-23T14:19:04Z</time>
      </trkpt>
      <trkpt lat="42.7944330" lon="-8.6416640">
        <ele>53.2</ele>
        <time>2021-05-23T14:19:05Z</time>
      </trkpt>
      <trkpt lat="42.7944410" lon="-8.6416490">
        <ele>53.0</ele>
        <time>2021-05-23T14:19:06Z</time>
      </trkpt>
      <trkpt lat="42.7944470" lon="-8.6416540">
        <ele>52.9</ele>
        <time>2021-05-23T14:19:07Z</time>
      </trkpt>
      <trkpt lat="42.7944620" lon="-8.6416390">
        <ele>52.7</ele>
        <time>2021-05-23T14:19:08Z</time>
      </trkpt>
      <trkpt lat="42.7944730" lon="-8.6416340">
        <ele>52.5</ele>
        <time>2021-05-23T14:19:09Z</time>
      </trkpt>
      <trkpt lat="42.7944900" lon="-8.6416350">
        <ele>52.3</ele>
        <time>2021-05-23T14:19:10Z</time>
      </trkpt>
      <trkpt lat="42.7945010" lon="-8.6416380">
        <ele>52.2</ele>
        <time>2021-05-23T14:19:11Z</time>
      </trkpt>
      <trkpt lat="42.7945280" lon="-8.6416460">
        <ele>51.8</ele>
        <time>2021-05-23T14:19:12Z</time>
      </trkpt>
      <trkpt lat="42.7945380" lon="-8.6416430">
        <ele>51.7</ele>
        <time>2021-05-23T14:19:13Z</time>
      </trkpt>
      <trkpt lat="42.7945530" lon="-8.6416430">
        <ele>51.5</ele>
        <time>2021-05-23T14:19:14Z</time>
      </trkpt>
      <trkpt lat="42.7945700" lon="-8.6416450">
        <ele>51.3</ele>
        <time>2021-05-23T14:19:15Z</time>
      </trkpt>
      <trkpt lat="42.7945860" lon="-8.6416500">
        <ele>51.1</ele>
        <time>2021-05-23T14:19:16Z</time>
      </trkpt>
      <trkpt lat="42.7946010" lon="-8.6416600">
        <ele>50.9</ele>
        <time>2021-05-23T14:19:17Z</time>
      </trkpt>
      <trkpt lat="42.7946150" lon="-8.6416590">
        <ele>50.7</ele>
        <time>2021-05-23T14:19:18Z</time>
      </trkpt>
      <trkpt lat="42.7946300" lon="-8.6416590">
        <ele>50.5</ele>
        <time>2021-05-23T14:19:19Z</time>
      </trkpt>
      <trkpt lat="42.7946460" lon="-8.6416630">
        <ele>50.5</ele>
        <time>2021-05-23T14:19:20Z</time>
      </trkpt>
      <trkpt lat="42.7946610" lon="-8.6416770">
        <ele>50.3</ele>
        <time>2021-05-23T14:19:21Z</time>
      </trkpt>
      <trkpt lat="42.7946760" lon="-8.6416840">
        <ele>50.2</ele>
        <time>2021-05-23T14:19:22Z</time>
      </trkpt>
      <trkpt lat="42.7946910" lon="-8.6416850">
        <ele>50.0</ele>
        <time>2021-05-23T14:19:23Z</time>
      </trkpt>
      <trkpt lat="42.7947060" lon="-8.6416910">
        <ele>49.9</ele>
        <time>2021-05-23T14:19:24Z</time>
      </trkpt>
      <trkpt lat="42.7947220" lon="-8.6417010">
        <ele>49.8</ele>
        <time>2021-05-23T14:19:25Z</time>
      </trkpt>
      <trkpt lat="42.7947360" lon="-8.6417130">
        <ele>49.6</ele>
        <time>2021-05-23T14:19:26Z</time>
      </trkpt>
      <trkpt lat="42.7947510" lon="-8.6417190">
        <ele>49.5</ele>
        <time>2021-05-23T14:19:27Z</time>
      </trkpt>
      <trkpt lat="42.7947680" lon="-8.6417210">
        <ele>49.4</ele>
        <time>2021-05-23T14:19:28Z</time>
      </trkpt>
      <trkpt lat="42.7947840" lon="-8.6417340">
        <ele>49.3</ele>
        <time>2021-05-23T14:19:29Z</time>
      </trkpt>
      <trkpt lat="42.7947990" lon="-8.6417410">
        <ele>49.2</ele>
        <time>2021-05-23T14:19:30Z</time>
      </trkpt>
      <trkpt lat="42.7948160" lon="-8.6417450">
        <ele>49.1</ele>
        <time>2021-05-23T14:19:31Z</time>
      </trkpt>
      <trkpt lat="42.7948300" lon="-8.6417490">
        <ele>49.0</ele>
        <time>2021-05-23T14:19:32Z</time>
      </trkpt>
      <trkpt lat="42.7948430" lon="-8.6417530">
        <ele>49.0</ele>
        <time>2021-05-23T14:19:33Z</time>
      </trkpt>
      <trkpt lat="42.7948610" lon="-8.6417520">
        <ele>48.9</ele>
        <time>2021-05-23T14:19:34Z</time>
      </trkpt>
      <trkpt lat="42.7948690" lon="-8.6417480">
        <ele>48.8</ele>
        <time>2021-05-23T14:19:35Z</time>
      </trkpt>
      <trkpt lat="42.7948760" lon="-8.6417510">
        <ele>48.8</ele>
        <time>2021-05-23T14:19:36Z</time>
      </trkpt>
      <trkpt lat="42.7948830" lon="-8.6417650">
        <ele>48.7</ele>
        <time>2021-05-23T14:19:37Z</time>
      </trkpt>
      <trkpt lat="42.7948910" lon="-8.6417690">
        <ele>48.7</ele>
        <time>2021-05-23T14:19:38Z</time>
      </trkpt>
      <trkpt lat="42.7949010" lon="-8.6417690">
        <ele>48.6</ele>
        <time>2021-05-23T14:19:39Z</time>
      </trkpt>
      <trkpt lat="42.7949120" lon="-8.6417860">
        <ele>48.6</ele>
        <time>2021-05-23T14:19:40Z</time>
      </trkpt>
      <trkpt lat="42.7949160" lon="-8.6417970">
        <ele>48.5</ele>
        <time>2021-05-23T14:19:41Z</time>
      </trkpt>
      <trkpt lat="42.7949190" lon="-8.6418070">
        <ele>48.5</ele>
        <time>2021-05-23T14:19:42Z</time>
      </trkpt>
      <trkpt lat="42.7949230" lon="-8.6418180">
        <ele>48.5</ele>
        <time>2021-05-23T14:19:43Z</time>
      </trkpt>
      <trkpt lat="42.7949550" lon="-8.6418160">
        <ele>48.3</ele>
        <time>2021-05-23T14:19:44Z</time>
      </trkpt>
      <trkpt lat="42.7950020" lon="-8.6418250">
        <ele>48.2</ele>
        <time>2021-05-23T14:19:45Z</time>
      </trkpt>
      <trkpt lat="42.7950320" lon="-8.6418420">
        <ele>48.1</ele>
        <time>2021-05-23T14:19:46Z</time>
      </trkpt>
      <trkpt lat="42.7950560" lon="-8.6418560">
        <ele>48.1</ele>
        <time>2021-05-23T14:19:47Z</time>
      </trkpt>
      <trkpt lat="42.7950560" lon="-8.6418770">
        <ele>48.0</ele>
        <time>2021-05-23T14:19:48Z</time>
      </trkpt>
      <trkpt lat="42.7951020" lon="-8.6419110">
        <ele>47.9</ele>
        <time>2021-05-23T14:19:49Z</time>
      </trkpt>
      <trkpt lat="42.7951190" lon="-8.6419700">
        <ele>47.9</ele>
        <time>2021-05-23T14:19:50Z</time>
      </trkpt>
      <trkpt lat="42.7951200" lon="-8.6419660">
        <ele>47.9</ele>
        <time>2021-05-23T14:19:51Z</time>
      </trkpt>
      <trkpt lat="42.7951290" lon="-8.6419770">
        <ele>47.8</ele>
        <time>2021-05-23T14:19:52Z</time>
      </trkpt>
      <trkpt lat="42.7951220" lon="-8.6419850">
        <ele>47.8</ele>
        <time>2021-05-23T14:19:53Z</time>
      </trkpt>
      <trkpt lat="42.7951120" lon="-8.6419710">
        <ele>47.8</ele>
        <time>2021-05-23T14:19:54Z</time>
      </trkpt>
      <trkpt lat="42.7951240" lon="-8.6419910">
        <ele>47.8</ele>
        <time>2021-05-23T14:19:55Z</time>
      </trkpt>
      <trkpt lat="42.7951300" lon="-8.6420020">
        <ele>47.8</ele>
        <time>2021-05-23T14:19:56Z</time>
      </trkpt>
      <trkpt lat="42.7951370" lon="-8.6420120">
        <ele>47.7</ele>
        <time>2021-05-23T14:19:57Z</time>
      </trkpt>
      <trkpt lat="42.7951500" lon="-8.6420190">
        <ele>47.7</ele>
        <time>2021-05-23T14:19:58Z</time>
      </trkpt>
      <trkpt lat="42.7951570" lon="-8.6420250">
        <ele>47.7</ele>
        <time>2021-05-23T14:19:59Z</time>
      </trkpt>
      <trkpt lat="42.7951650" lon="-8.6420380">
        <ele>47.7</ele>
        <time>2021-05-23T14:20:00Z</time>
      </trkpt>
      <trkpt lat="42.7951760" lon="-8.6420470">
        <ele>47.7</ele>
        <time>2021-05-23T14:20:01Z</time>
      </trkpt>
      <trkpt lat="42.7951900" lon="-8.6420540">
        <ele>47.6</ele>
        <time>2021-05-23T14:20:02Z</time>
      </trkpt>
      <trkpt lat="42.7951980" lon="-8.6420680">
        <ele>47.6</ele>
        <time>2021-05-23T14:20:03Z</time>
      </trkpt>
      <trkpt lat="42.7952060" lon="-8.6420790">
        <ele>47.6</ele>
        <time>2021-05-23T14:20:04Z</time>
      </trkpt>
      <trkpt lat="42.7952130" lon="-8.6420890">
        <ele>47.6</ele>
        <time>2021-05-23T14:20:05Z</time>
      </trkpt>
      <trkpt lat="42.7952310" lon="-8.6421060">
        <ele>47.5</ele>
        <time>2021-05-23T14:20:06Z</time>
      </trkpt>
      <trkpt lat="42.7952390" lon="-8.6421110">
        <ele>47.5</ele>
        <time>2021-05-23T14:20:07Z</time>
      </trkpt>
      <trkpt lat="42.7952460" lon="-8.6421170">
        <ele>47.5</ele>
        <time>2021-05-23T14:20:08Z</time>
      </trkpt>
      <trkpt lat="42.7952620" lon="-8.6421360">
        <ele>47.5</ele>
        <time>2021-05-23T14:20:09Z</time>
      </trkpt>
      <trkpt lat="42.7952680" lon="-8.6421440">
        <ele>47.4</ele>
        <time>2021-05-23T14:20:10Z</time>
      </trkpt>
      <trkpt lat="42.7952730" lon="-8.6421520">
        <ele>47.4</ele>
        <time>2021-05-23T14:20:11Z</time>
      </trkpt>
      <trkpt lat="42.7952840" lon="-8.6421630">
        <ele>47.4</ele>
        <time>2021-05-23T14:20:12Z</time>
      </trkpt>
      <trkpt lat="42.7952960" lon="-8.6421750">
        <ele>47.4</ele>
        <time>2021-05-23T14:20:13Z</time>
      </trkpt>
      <trkpt lat="42.7953150" lon="-8.6421910">
        <ele>47.3</ele>
        <time>2021-05-23T14:20:14Z</time>
      </trkpt>
      <trkpt lat="42.7953220" lon="-8.6422000">
        <ele>47.3</ele>
        <time>2021-05-23T14:20:15Z</time>
      </trkpt>
      <trkpt lat="42.7953290" lon="-8.6422080">
        <ele>47.3</ele>
        <time>2021-05-23T14:20:16Z</time>
      </trkpt>
      <trkpt lat="42.7953440" lon="-8.6422110">
        <ele>47.2</ele>
        <time>2021-05-23T14:20:17Z</time>
      </trkpt>
      <trkpt lat="42.7953560" lon="-8.6422200">
        <ele>47.2</ele>
        <time>2021-05-23T14:20:18Z</time>
      </trkpt>
      <trkpt lat="42.7953690" lon="-8.6422240">
        <ele>47.2</ele>
        <time>2021-05-23T14:20:19Z</time>
      </trkpt>
      <trkpt lat="42.7953800" lon="-8.6422430">
        <ele>47.2</ele>
        <time>2021-05-23T14:20:20Z</time>
      </trkpt>
      <trkpt lat="42.7953930" lon="-8.6422510">
        <ele>47.1</ele>
        <time>2021-05-23T14:20:21Z</time>
      </trkpt>
      <trkpt lat="42.7954050" lon="-8.6422580">
        <ele>47.1</ele>
        <time>2021-05-23T14:20:22Z</time>
      </trkpt>
      <trkpt lat="42.7954250" lon="-8.6422720">
        <ele>47.0</ele>
        <time>2021-05-23T14:20:23Z</time>
      </trkpt>
      <trkpt lat="42.7954330" lon="-8.6422760">
        <ele>47.0</ele>
        <time>2021-05-23T14:20:24Z</time>
      </trkpt>
      <trkpt lat="42.7954410" lon="-8.6422810">
        <ele>47.0</ele>
        <time>2021-05-23T14:20:25Z</time>
      </trkpt>
      <trkpt lat="42.7954600" lon="-8.6422890">
        <ele>47.0</ele>
        <time>2021-05-23T14:20:26Z</time>
      </trkpt>
      <trkpt lat="42.7954690" lon="-8.6422900">
        <ele>46.9</ele>
        <time>2021-05-23T14:20:27Z</time>
      </trkpt>
      <trkpt lat="42.7954770" lon="-8.6422920">
        <ele>46.9</ele>
        <time>2021-05-23T14:20:28Z</time>
      </trkpt>
      <trkpt lat="42.7954910" lon="-8.6422920">
        <ele>46.9</ele>
        <time>2021-05-23T14:20:29Z</time>
      </trkpt>
      <trkpt lat="42.7955020" lon="-8.6422930">
        <ele>46.9</ele>
        <time>2021-05-23T14:20:30Z</time>
      </trkpt>
      <trkpt lat="42.7955130" lon="-8.6422980">
        <ele>46.8</ele>
        <time>2021-05-23T14:20:31Z</time>
      </trkpt>
      <trkpt lat="42.7955240" lon="-8.6422970">
        <ele>46.8</ele>
        <time>2021-05-23T14:20:32Z</time>
      </trkpt>
      <trkpt lat="42.7955350" lon="-8.6423020">
        <ele>46.8</ele>
        <time>2021-05-23T14:20:33Z</time>
      </trkpt>
      <trkpt lat="42.7955460" lon="-8.6423020">
        <ele>46.8</ele>
        <time>2021-05-23T14:20:34Z</time>
      </trkpt>
      <trkpt lat="42.7955680" lon="-8.6422940">
        <ele>46.7</ele>
        <time>2021-05-23T14:20:35Z</time>
      </trkpt>
      <trkpt lat="42.7955750" lon="-8.6422910">
        <ele>46.7</ele>
        <time>2021-05-23T14:20:36Z</time>
      </trkpt>
      <trkpt lat="42.7955830" lon="-8.6422880">
        <ele>46.7</ele>
        <time>2021-05-23T14:20:37Z</time>
      </trkpt>
      <trkpt lat="42.7955940" lon="-8.6422850">
        <ele>46.6</ele>
        <time>2021-05-23T14:20:38Z</time>
      </trkpt>
      <trkpt lat="42.7956060" lon="-8.6422880">
        <ele>46.4</ele>
        <time>2021-05-23T14:20:39Z</time>
      </trkpt>
      <trkpt lat="42.7956130" lon="-8.6422910">
        <ele>46.4</ele>
        <time>2021-05-23T14:20:40Z</time>
      </trkpt>
      <trkpt lat="42.7956230" lon="-8.6422920">
        <ele>46.3</ele>
        <time>2021-05-23T14:20:41Z</time>
      </trkpt>
      <trkpt lat="42.7956300" lon="-8.6422940">
        <ele>46.3</ele>
        <time>2021-05-23T14:20:42Z</time>
      </trkpt>
      <trkpt lat="42.7956390" lon="-8.6422870">
        <ele>46.3</ele>
        <time>2021-05-23T14:20:43Z</time>
      </trkpt>
      <trkpt lat="42.7956490" lon="-8.6422820">
        <ele>46.3</ele>
        <time>2021-05-23T14:20:44Z</time>
      </trkpt>
      <trkpt lat="42.7956570" lon="-8.6422720">
        <ele>46.2</ele>
        <time>2021-05-23T14:20:45Z</time>
      </trkpt>
      <trkpt lat="42.7956680" lon="-8.6422650">
        <ele>46.2</ele>
        <time>2021-05-23T14:20:46Z</time>
      </trkpt>
      <trkpt lat="42.7956730" lon="-8.6422500">
        <ele>46.1</ele>
        <time>2021-05-23T14:20:47Z</time>
      </trkpt>
      <trkpt lat="42.7956810" lon="-8.6422210">
        <ele>46.1</ele>
        <time>2021-05-23T14:20:48Z</time>
      </trkpt>
      <trkpt lat="42.7956850" lon="-8.6422110">
        <ele>46.1</ele>
        <time>2021-05-23T14:20:49Z</time>
      </trkpt>
      <trkpt lat="42.7956900" lon="-8.6422020">
        <ele>46.0</ele>
        <time>2021-05-23T14:20:50Z</time>
      </trkpt>
      <trkpt lat="42.7956970" lon="-8.6421860">
        <ele>46.0</ele>
        <time>2021-05-23T14:20:51Z</time>
      </trkpt>
      <trkpt lat="42.7957040" lon="-8.6421700">
        <ele>46.0</ele>
        <time>2021-05-23T14:20:52Z</time>
      </trkpt>
      <trkpt lat="42.7957130" lon="-8.6421540">
        <ele>45.9</ele>
        <time>2021-05-23T14:20:53Z</time>
      </trkpt>
      <trkpt lat="42.7957180" lon="-8.6421360">
        <ele>45.9</ele>
        <time>2021-05-23T14:20:54Z</time>
      </trkpt>
      <trkpt lat="42.7957330" lon="-8.6421140">
        <ele>45.8</ele>
        <time>2021-05-23T14:20:55Z</time>
      </trkpt>
      <trkpt lat="42.7957400" lon="-8.6421060">
        <ele>45.8</ele>
        <time>2021-05-23T14:20:56Z</time>
      </trkpt>
      <trkpt lat="42.7957460" lon="-8.6420980">
        <ele>45.8</ele>
        <time>2021-05-23T14:20:57Z</time>
      </trkpt>
      <trkpt lat="42.7957560" lon="-8.6420840">
        <ele>45.7</ele>
        <time>2021-05-23T14:20:58Z</time>
      </trkpt>
      <trkpt lat="42.7957630" lon="-8.6420690">
        <ele>45.7</ele>
        <time>2021-05-23T14:20:59Z</time>
      </trkpt>
      <trkpt lat="42.7957680" lon="-8.6420480">
        <ele>45.6</ele>
        <time>2021-05-23T14:21:00Z</time>
      </trkpt>
      <trkpt lat="42.7957740" lon="-8.6420320">
        <ele>45.6</ele>
        <time>2021-05-23T14:21:01Z</time>
      </trkpt>
      <trkpt lat="42.7957830" lon="-8.6420050">
        <ele>45.5</ele>
        <time>2021-05-23T14:21:02Z</time>
      </trkpt>
      <trkpt lat="42.7957890" lon="-8.6419950">
        <ele>45.5</ele>
        <time>2021-05-23T14:21:03Z</time>
      </trkpt>
      <trkpt lat="42.7957940" lon="-8.6419860">
        <ele>45.5</ele>
        <time>2021-05-23T14:21:04Z</time>
      </trkpt>
      <trkpt lat="42.7958000" lon="-8.6419600">
        <ele>45.4</ele>
        <time>2021-05-23T14:21:05Z</time>
      </trkpt>
      <trkpt lat="42.7958040" lon="-8.6419490">
        <ele>45.4</ele>
        <time>2021-05-23T14:21:06Z</time>
      </trkpt>
      <trkpt lat="42.7958070" lon="-8.6419380">
        <ele>45.4</ele>
        <time>2021-05-23T14:21:07Z</time>
      </trkpt>
      <trkpt lat="42.7958190" lon="-8.6419170">
        <ele>45.3</ele>
        <time>2021-05-23T14:21:08Z</time>
      </trkpt>
      <trkpt lat="42.7958230" lon="-8.6419070">
        <ele>45.3</ele>
        <time>2021-05-23T14:21:09Z</time>
      </trkpt>
      <trkpt lat="42.7958260" lon="-8.6418960">
        <ele>45.3</ele>
        <time>2021-05-23T14:21:10Z</time>
      </trkpt>
      <trkpt lat="42.7958300" lon="-8.6418770">
        <ele>45.2</ele>
        <time>2021-05-23T14:21:11Z</time>
      </trkpt>
      <trkpt lat="42.7958400" lon="-8.6418640">
        <ele>45.2</ele>
        <time>2021-05-23T14:21:12Z</time>
      </trkpt>
      <trkpt lat="42.7958510" lon="-8.6418530">
        <ele>45.2</ele>
        <time>2021-05-23T14:21:13Z</time>
      </trkpt>
      <trkpt lat="42.7958570" lon="-8.6418400">
        <ele>45.1</ele>
        <time>2021-05-23T14:21:14Z</time>
      </trkpt>
      <trkpt lat="42.7958640" lon="-8.6418310">
        <ele>45.1</ele>
        <time>2021-05-23T14:21:15Z</time>
      </trkpt>
      <trkpt lat="42.7958700" lon="-8.6418230">
        <ele>45.1</ele>
        <time>2021-05-23T14:21:16Z</time>
      </trkpt>
      <trkpt lat="42.7958760" lon="-8.6418090">
        <ele>45.1</ele>
        <time>2021-05-23T14:21:17Z</time>
      </trkpt>
      <trkpt lat="42.7958850" lon="-8.6418020">
        <ele>45.0</ele>
        <time>2021-05-23T14:21:18Z</time>
      </trkpt>
      <trkpt lat="42.7958980" lon="-8.6417860">
        <ele>45.0</ele>
        <time>2021-05-23T14:21:19Z</time>
      </trkpt>
      <trkpt lat="42.7959130" lon="-8.6417770">
        <ele>44.9</ele>
        <time>2021-05-23T14:21:20Z</time>
      </trkpt>
      <trkpt lat="42.7959300" lon="-8.6417540">
        <ele>44.9</ele>
        <time>2021-05-23T14:21:21Z</time>
      </trkpt>
      <trkpt lat="42.7959370" lon="-8.6417480">
        <ele>44.9</ele>
        <time>2021-05-23T14:21:22Z</time>
      </trkpt>
      <trkpt lat="42.7959450" lon="-8.6417410">
        <ele>44.8</ele>
        <time>2021-05-23T14:21:23Z</time>
      </trkpt>
      <trkpt lat="42.7959620" lon="-8.6417240">
        <ele>44.8</ele>
        <time>2021-05-23T14:21:24Z</time>
      </trkpt>
      <trkpt lat="42.7959690" lon="-8.6417160">
        <ele>44.8</ele>
        <time>2021-05-23T14:21:25Z</time>
      </trkpt>
      <trkpt lat="42.7959760" lon="-8.6417090">
        <ele>44.7</ele>
        <time>2021-05-23T14:21:26Z</time>
      </trkpt>
      <trkpt lat="42.7959850" lon="-8.6416990">
        <ele>44.7</ele>
        <time>2021-05-23T14:21:27Z</time>
      </trkpt>
      <trkpt lat="42.7959900" lon="-8.6416870">
        <ele>44.7</ele>
        <time>2021-05-23T14:21:28Z</time>
      </trkpt>
      <trkpt lat="42.7959990" lon="-8.6416750">
        <ele>44.6</ele>
        <time>2021-05-23T14:21:29Z</time>
      </trkpt>
      <trkpt lat="42.7960180" lon="-8.6416590">
        <ele>44.6</ele>
        <time>2021-05-23T14:21:30Z</time>
      </trkpt>
      <trkpt lat="42.7960240" lon="-8.6416550">
        <ele>44.6</ele>
        <time>2021-05-23T14:21:31Z</time>
      </trkpt>
      <trkpt lat="42.7960310" lon="-8.6416500">
        <ele>44.5</ele>
        <time>2021-05-23T14:21:32Z</time>
      </trkpt>
      <trkpt lat="42.7960370" lon="-8.6416410">
        <ele>44.5</ele>
        <time>2021-05-23T14:21:33Z</time>
      </trkpt>
      <trkpt lat="42.7960470" lon="-8.6416310">
        <ele>44.5</ele>
        <time>2021-05-23T14:21:34Z</time>
      </trkpt>
      <trkpt lat="42.7960580" lon="-8.6416170">
        <ele>44.5</ele>
        <time>2021-05-23T14:21:35Z</time>
      </trkpt>
      <trkpt lat="42.7960650" lon="-8.6416040">
        <ele>44.4</ele>
        <time>2021-05-23T14:21:36Z</time>
      </trkpt>
      <trkpt lat="42.7960700" lon="-8.6415920">
        <ele>44.4</ele>
        <time>2021-05-23T14:21:37Z</time>
      </trkpt>
      <trkpt lat="42.7960810" lon="-8.6415810">
        <ele>44.4</ele>
        <time>2021-05-23T14:21:38Z</time>
      </trkpt>
      <trkpt lat="42.7960940" lon="-8.6415640">
        <ele>44.3</ele>
        <time>2021-05-23T14:21:39Z</time>
      </trkpt>
      <trkpt lat="42.7961010" lon="-8.6415540">
        <ele>44.3</ele>
        <time>2021-05-23T14:21:40Z</time>
      </trkpt>
      <trkpt lat="42.7961070" lon="-8.6415430">
        <ele>44.3</ele>
        <time>2021-05-23T14:21:41Z</time>
      </trkpt>
      <trkpt lat="42.7961160" lon="-8.6415280">
        <ele>44.3</ele>
        <time>2021-05-23T14:21:42Z</time>
      </trkpt>
      <trkpt lat="42.7961250" lon="-8.6415140">
        <ele>44.2</ele>
        <time>2021-05-23T14:21:43Z</time>
      </trkpt>
      <trkpt lat="42.7961290" lon="-8.6414950">
        <ele>44.2</ele>
        <time>2021-05-23T14:21:44Z</time>
      </trkpt>
      <trkpt lat="42.7961420" lon="-8.6414840">
        <ele>44.2</ele>
        <time>2021-05-23T14:21:45Z</time>
      </trkpt>
      <trkpt lat="42.7961480" lon="-8.6414660">
        <ele>44.2</ele>
        <time>2021-05-23T14:21:46Z</time>
      </trkpt>
      <trkpt lat="42.7961550" lon="-8.6414470">
        <ele>44.2</ele>
        <time>2021-05-23T14:21:47Z</time>
      </trkpt>
      <trkpt lat="42.7961630" lon="-8.6414330">
        <ele>44.2</ele>
        <time>2021-05-23T14:21:48Z</time>
      </trkpt>
      <trkpt lat="42.7961660" lon="-8.6414100">
        <ele>44.1</ele>
        <time>2021-05-23T14:21:49Z</time>
      </trkpt>
      <trkpt lat="42.7961720" lon="-8.6413940">
        <ele>44.1</ele>
        <time>2021-05-23T14:21:50Z</time>
      </trkpt>
      <trkpt lat="42.7961800" lon="-8.6413750">
        <ele>44.1</ele>
        <time>2021-05-23T14:21:51Z</time>
      </trkpt>
      <trkpt lat="42.7961820" lon="-8.6413610">
        <ele>44.1</ele>
        <time>2021-05-23T14:21:52Z</time>
      </trkpt>
      <trkpt lat="42.7961890" lon="-8.6413490">
        <ele>44.1</ele>
        <time>2021-05-23T14:21:53Z</time>
      </trkpt>
      <trkpt lat="42.7961940" lon="-8.6413360">
        <ele>44.1</ele>
        <time>2021-05-23T14:21:54Z</time>
      </trkpt>
      <trkpt lat="42.7962030" lon="-8.6413090">
        <ele>44.1</ele>
        <time>2021-05-23T14:21:55Z</time>
      </trkpt>
      <trkpt lat="42.7962040" lon="-8.6412940">
        <ele>44.1</ele>
        <time>2021-05-23T14:21:56Z</time>
      </trkpt>
      <trkpt lat="42.7962040" lon="-8.6412800">
        <ele>44.0</ele>
        <time>2021-05-23T14:21:57Z</time>
      </trkpt>
      <trkpt lat="42.7962110" lon="-8.6412670">
        <ele>44.0</ele>
        <time>2021-05-23T14:21:58Z</time>
      </trkpt>
      <trkpt lat="42.7962090" lon="-8.6412510">
        <ele>44.0</ele>
        <time>2021-05-23T14:21:59Z</time>
      </trkpt>
      <trkpt lat="42.7962120" lon="-8.6412380">
        <ele>44.0</ele>
        <time>2021-05-23T14:22:00Z</time>
      </trkpt>
      <trkpt lat="42.7962130" lon="-8.6412120">
        <ele>44.0</ele>
        <time>2021-05-23T14:22:01Z</time>
      </trkpt>
      <trkpt lat="42.7962140" lon="-8.6411990">
        <ele>44.0</ele>
        <time>2021-05-23T14:22:02Z</time>
      </trkpt>
      <trkpt lat="42.7962140" lon="-8.6411860">
        <ele>44.0</ele>
        <time>2021-05-23T14:22:03Z</time>
      </trkpt>
      <trkpt lat="42.7962070" lon="-8.6411660">
        <ele>44.1</ele>
        <time>2021-05-23T14:22:04Z</time>
      </trkpt>
      <trkpt lat="42.7962040" lon="-8.6411490">
        <ele>44.1</ele>
        <time>2021-05-23T14:22:05Z</time>
      </trkpt>
      <trkpt lat="42.7961990" lon="-8.6411200">
        <ele>44.1</ele>
        <time>2021-05-23T14:22:06Z</time>
      </trkpt>
      <trkpt lat="42.7961970" lon="-8.6411080">
        <ele>44.1</ele>
        <time>2021-05-23T14:22:07Z</time>
      </trkpt>
      <trkpt lat="42.7961950" lon="-8.6410950">
        <ele>44.1</ele>
        <time>2021-05-23T14:22:08Z</time>
      </trkpt>
      <trkpt lat="42.7961960" lon="-8.6410770">
        <ele>44.1</ele>
        <time>2021-05-23T14:22:09Z</time>
      </trkpt>
      <trkpt lat="42.7961950" lon="-8.6410630">
        <ele>44.1</ele>
        <time>2021-05-23T14:22:10Z</time>
      </trkpt>
      <trkpt lat="42.7961950" lon="-8.6410480">
        <ele>44.1</ele>
        <time>2021-05-23T14:22:11Z</time>
      </trkpt>
      <trkpt lat="42.7961900" lon="-8.6410300">
        <ele>44.1</ele>
        <time>2021-05-23T14:22:12Z</time>
      </trkpt>
      <trkpt lat="42.7961890" lon="-8.6410100">
        <ele>44.1</ele>
        <time>2021-05-23T14:22:13Z</time>
      </trkpt>
      <trkpt lat="42.7961880" lon="-8.6409810">
        <ele>44.2</ele>
        <time>2021-05-23T14:22:14Z</time>
      </trkpt>
      <trkpt lat="42.7961890" lon="-8.6409700">
        <ele>44.2</ele>
        <time>2021-05-23T14:22:15Z</time>
      </trkpt>
      <trkpt lat="42.7961910" lon="-8.6409580">
        <ele>44.2</ele>
        <time>2021-05-23T14:22:16Z</time>
      </trkpt>
      <trkpt lat="42.7961910" lon="-8.6409290">
        <ele>44.2</ele>
        <time>2021-05-23T14:22:17Z</time>
      </trkpt>
      <trkpt lat="42.7961910" lon="-8.6409180">
        <ele>44.2</ele>
        <time>2021-05-23T14:22:18Z</time>
      </trkpt>
      <trkpt lat="42.7961920" lon="-8.6409080">
        <ele>44.2</ele>
        <time>2021-05-23T14:22:19Z</time>
      </trkpt>
      <trkpt lat="42.7962030" lon="-8.6408900">
        <ele>44.2</ele>
        <time>2021-05-23T14:22:20Z</time>
      </trkpt>
      <trkpt lat="42.7962040" lon="-8.6408710">
        <ele>44.3</ele>
        <time>2021-05-23T14:22:21Z</time>
      </trkpt>
      <trkpt lat="42.7962100" lon="-8.6408540">
        <ele>44.3</ele>
        <time>2021-05-23T14:22:22Z</time>
      </trkpt>
      <trkpt lat="42.7962120" lon="-8.6408350">
        <ele>44.3</ele>
        <time>2021-05-23T14:22:23Z</time>
      </trkpt>
      <trkpt lat="42.7962240" lon="-8.6408100">
        <ele>44.3</ele>
        <time>2021-05-23T14:22:24Z</time>
      </trkpt>
      <trkpt lat="42.7962270" lon="-8.6408000">
        <ele>44.3</ele>
        <time>2021-05-23T14:22:25Z</time>
      </trkpt>
      <trkpt lat="42.7962300" lon="-8.6407890">
        <ele>44.3</ele>
        <time>2021-05-23T14:22:26Z</time>
      </trkpt>
      <trkpt lat="42.7962360" lon="-8.6407610">
        <ele>44.4</ele>
        <time>2021-05-23T14:22:27Z</time>
      </trkpt>
      <trkpt lat="42.7962370" lon="-8.6407490">
        <ele>44.4</ele>
        <time>2021-05-23T14:22:28Z</time>
      </trkpt>
      <trkpt lat="42.7962370" lon="-8.6407370">
        <ele>44.4</ele>
        <time>2021-05-23T14:22:29Z</time>
      </trkpt>
      <trkpt lat="42.7962440" lon="-8.6407100">
        <ele>44.4</ele>
        <time>2021-05-23T14:22:30Z</time>
      </trkpt>
      <trkpt lat="42.7962480" lon="-8.6407020">
        <ele>44.4</ele>
        <time>2021-05-23T14:22:31Z</time>
      </trkpt>
      <trkpt lat="42.7962530" lon="-8.6406930">
        <ele>44.4</ele>
        <time>2021-05-23T14:22:32Z</time>
      </trkpt>
      <trkpt lat="42.7962590" lon="-8.6406800">
        <ele>44.4</ele>
        <time>2021-05-23T14:22:33Z</time>
      </trkpt>
      <trkpt lat="42.7962620" lon="-8.6406740">
        <ele>44.4</ele>
        <time>2021-05-23T14:22:34Z</time>
      </trkpt>
      <trkpt lat="42.7962640" lon="-8.6406530">
        <ele>44.5</ele>
        <time>2021-05-23T14:22:35Z</time>
      </trkpt>
      <trkpt lat="42.7962620" lon="-8.6406370">
        <ele>44.5</ele>
        <time>2021-05-23T14:22:36Z</time>
      </trkpt>
      <trkpt lat="42.7962610" lon="-8.6406290">
        <ele>44.5</ele>
        <time>2021-05-23T14:22:37Z</time>
      </trkpt>
      <trkpt lat="42.7962700" lon="-8.6406170">
        <ele>44.5</ele>
        <time>2021-05-23T14:22:38Z</time>
      </trkpt>
      <trkpt lat="42.7962740" lon="-8.6405990">
        <ele>44.5</ele>
        <time>2021-05-23T14:22:39Z</time>
      </trkpt>
      <trkpt lat="42.7962750" lon="-8.6405900">
        <ele>44.5</ele>
        <time>2021-05-23T14:22:40Z</time>
      </trkpt>
      <trkpt lat="42.7962750" lon="-8.6405740">
        <ele>44.5</ele>
        <time>2021-05-23T14:22:41Z</time>
      </trkpt>
      <trkpt lat="42.7962790" lon="-8.6405620">
        <ele>44.5</ele>
        <time>2021-05-23T14:22:42Z</time>
      </trkpt>
      <trkpt lat="42.7962860" lon="-8.6405440">
        <ele>44.6</ele>
        <time>2021-05-23T14:22:43Z</time>
      </trkpt>
      <trkpt lat="42.7962880" lon="-8.6405360">
        <ele>44.6</ele>
        <time>2021-05-23T14:22:44Z</time>
      </trkpt>
      <trkpt lat="42.7962960" lon="-8.6405070">
        <ele>44.6</ele>
        <time>2021-05-23T14:22:45Z</time>
      </trkpt>
      <trkpt lat="42.7962990" lon="-8.6404950">
        <ele>44.6</ele>
        <time>2021-05-23T14:22:46Z</time>
      </trkpt>
      <trkpt lat="42.7963030" lon="-8.6404830">
        <ele>44.6</ele>
        <time>2021-05-23T14:22:47Z</time>
      </trkpt>
      <trkpt lat="42.7963080" lon="-8.6404710">
        <ele>44.6</ele>
        <time>2021-05-23T14:22:48Z</time>
      </trkpt>
      <trkpt lat="42.7963140" lon="-8.6404580">
        <ele>44.6</ele>
        <time>2021-05-23T14:22:49Z</time>
      </trkpt>
      <trkpt lat="42.7963210" lon="-8.6404470">
        <ele>44.6</ele>
        <time>2021-05-23T14:22:50Z</time>
      </trkpt>
      <trkpt lat="42.7963280" lon="-8.6404380">
        <ele>44.6</ele>
        <time>2021-05-23T14:22:51Z</time>
      </trkpt>
      <trkpt lat="42.7963360" lon="-8.6404320">
        <ele>44.6</ele>
        <time>2021-05-23T14:22:52Z</time>
      </trkpt>
      <trkpt lat="42.7963440" lon="-8.6404170">
        <ele>44.6</ele>
        <time>2021-05-23T14:22:53Z</time>
      </trkpt>
      <trkpt lat="42.7963560" lon="-8.6403980">
        <ele>44.6</ele>
        <time>2021-05-23T14:22:54Z</time>
      </trkpt>
      <trkpt lat="42.7963620" lon="-8.6403780">
        <ele>44.6</ele>
        <time>2021-05-23T14:22:55Z</time>
      </trkpt>
      <trkpt lat="42.7963800" lon="-8.6403560">
        <ele>44.6</ele>
        <time>2021-05-23T14:22:56Z</time>
      </trkpt>
      <trkpt lat="42.7963870" lon="-8.6403440">
        <ele>44.6</ele>
        <time>2021-05-23T14:22:57Z</time>
      </trkpt>
      <trkpt lat="42.7963940" lon="-8.6403330">
        <ele>44.6</ele>
        <time>2021-05-23T14:22:58Z</time>
      </trkpt>
      <trkpt lat="42.7964030" lon="-8.6403170">
        <ele>44.6</ele>
        <time>2021-05-23T14:22:59Z</time>
      </trkpt>
      <trkpt lat="42.7964110" lon="-8.6402930">
        <ele>44.6</ele>
        <time>2021-05-23T14:23:00Z</time>
      </trkpt>
      <trkpt lat="42.7964230" lon="-8.6402750">
        <ele>44.6</ele>
        <time>2021-05-23T14:23:01Z</time>
      </trkpt>
      <trkpt lat="42.7964360" lon="-8.6402570">
        <ele>44.6</ele>
        <time>2021-05-23T14:23:02Z</time>
      </trkpt>
      <trkpt lat="42.7964490" lon="-8.6402450">
        <ele>44.6</ele>
        <time>2021-05-23T14:23:03Z</time>
      </trkpt>
      <trkpt lat="42.7964640" lon="-8.6402340">
        <ele>44.6</ele>
        <time>2021-05-23T14:23:04Z</time>
      </trkpt>
      <trkpt lat="42.7964710" lon="-8.6402160">
        <ele>44.6</ele>
        <time>2021-05-23T14:23:05Z</time>
      </trkpt>
      <trkpt lat="42.7964820" lon="-8.6402030">
        <ele>44.6</ele>
        <time>2021-05-23T14:23:06Z</time>
      </trkpt>
      <trkpt lat="42.7964900" lon="-8.6401860">
        <ele>44.6</ele>
        <time>2021-05-23T14:23:07Z</time>
      </trkpt>
      <trkpt lat="42.7964950" lon="-8.6401620">
        <ele>44.6</ele>
        <time>2021-05-23T14:23:08Z</time>
      </trkpt>
      <trkpt lat="42.7965040" lon="-8.6401470">
        <ele>44.6</ele>
        <time>2021-05-23T14:23:09Z</time>
      </trkpt>
      <trkpt lat="42.7965060" lon="-8.6401260">
        <ele>44.6</ele>
        <time>2021-05-23T14:23:10Z</time>
      </trkpt>
      <trkpt lat="42.7965130" lon="-8.6401040">
        <ele>44.6</ele>
        <time>2021-05-23T14:23:11Z</time>
      </trkpt>
      <trkpt lat="42.7965110" lon="-8.6400880">
        <ele>44.6</ele>
        <time>2021-05-23T14:23:12Z</time>
      </trkpt>
      <trkpt lat="42.7965140" lon="-8.6400680">
        <ele>44.6</ele>
        <time>2021-05-23T14:23:13Z</time>
      </trkpt>
      <trkpt lat="42.7965160" lon="-8.6400490">
        <ele>44.6</ele>
        <time>2021-05-23T14:23:14Z</time>
      </trkpt>
      <trkpt lat="42.7965130" lon="-8.6400350">
        <ele>44.6</ele>
        <time>2021-05-23T14:23:15Z</time>
      </trkpt>
      <trkpt lat="42.7965130" lon="-8.6400170">
        <ele>44.6</ele>
        <time>2021-05-23T14:23:16Z</time>
      </trkpt>
      <trkpt lat="42.7965120" lon="-8.6400100">
        <ele>44.6</ele>
        <time>2021-05-23T14:23:17Z</time>
      </trkpt>
      <trkpt lat="42.7965060" lon="-8.6399880">
        <ele>44.6</ele>
        <time>2021-05-23T14:23:18Z</time>
      </trkpt>
      <trkpt lat="42.7965050" lon="-8.6399740">
        <ele>44.6</ele>
        <time>2021-05-23T14:23:19Z</time>
      </trkpt>
      <trkpt lat="42.7965030" lon="-8.6399600">
        <ele>44.6</ele>
        <time>2021-05-23T14:23:20Z</time>
      </trkpt>
      <trkpt lat="42.7964960" lon="-8.6399550">
        <ele>44.6</ele>
        <time>2021-05-23T14:23:21Z</time>
      </trkpt>
      <trkpt lat="42.7964870" lon="-8.6399550">
        <ele>44.6</ele>
        <time>2021-05-23T14:23:22Z</time>
      </trkpt>
      <trkpt lat="42.7964880" lon="-8.6399530">
        <ele>44.6</ele>
        <time>2021-05-23T14:23:23Z</time>
      </trkpt>
      <trkpt lat="42.7964850" lon="-8.6399400">
        <ele>44.6</ele>
        <time>2021-05-23T14:23:24Z</time>
      </trkpt>
      <trkpt lat="42.7964800" lon="-8.6399270">
        <ele>44.6</ele>
        <time>2021-05-23T14:23:25Z</time>
      </trkpt>
      <trkpt lat="42.7964650" lon="-8.6399030">
        <ele>44.7</ele>
        <time>2021-05-23T14:23:26Z</time>
      </trkpt>
      <trkpt lat="42.7964590" lon="-8.6398960">
        <ele>44.7</ele>
        <time>2021-05-23T14:23:27Z</time>
      </trkpt>
      <trkpt lat="42.7964520" lon="-8.6398880">
        <ele>44.7</ele>
        <time>2021-05-23T14:23:28Z</time>
      </trkpt>
      <trkpt lat="42.7964510" lon="-8.6398730">
        <ele>44.7</ele>
        <time>2021-05-23T14:23:29Z</time>
      </trkpt>
      <trkpt lat="42.7964480" lon="-8.6398510">
        <ele>44.7</ele>
        <time>2021-05-23T14:23:30Z</time>
      </trkpt>
      <trkpt lat="42.7964560" lon="-8.6398300">
        <ele>44.7</ele>
        <time>2021-05-23T14:23:31Z</time>
      </trkpt>
      <trkpt lat="42.7964530" lon="-8.6398130">
        <ele>44.7</ele>
        <time>2021-05-23T14:23:32Z</time>
      </trkpt>
      <trkpt lat="42.7964450" lon="-8.6397990">
        <ele>44.7</ele>
        <time>2021-05-23T14:23:33Z</time>
      </trkpt>
      <trkpt lat="42.7964360" lon="-8.6397830">
        <ele>44.7</ele>
        <time>2021-05-23T14:23:34Z</time>
      </trkpt>
      <trkpt lat="42.7964260" lon="-8.6397680">
        <ele>44.7</ele>
        <time>2021-05-23T14:23:35Z</time>
      </trkpt>
      <trkpt lat="42.7964220" lon="-8.6397510">
        <ele>44.7</ele>
        <time>2021-05-23T14:23:36Z</time>
      </trkpt>
      <trkpt lat="42.7964160" lon="-8.6397340">
        <ele>44.7</ele>
        <time>2021-05-23T14:23:37Z</time>
      </trkpt>
      <trkpt lat="42.7964060" lon="-8.6397130">
        <ele>44.8</ele>
        <time>2021-05-23T14:23:38Z</time>
      </trkpt>
      <trkpt lat="42.7964030" lon="-8.6396910">
        <ele>44.8</ele>
        <time>2021-05-23T14:23:39Z</time>
      </trkpt>
      <trkpt lat="42.7963990" lon="-8.6396690">
        <ele>44.8</ele>
        <time>2021-05-23T14:23:40Z</time>
      </trkpt>
      <trkpt lat="42.7963950" lon="-8.6396530">
        <ele>44.8</ele>
        <time>2021-05-23T14:23:41Z</time>
      </trkpt>
      <trkpt lat="42.7963860" lon="-8.6396330">
        <ele>44.8</ele>
        <time>2021-05-23T14:23:42Z</time>
      </trkpt>
      <trkpt lat="42.7963800" lon="-8.6396120">
        <ele>44.8</ele>
        <time>2021-05-23T14:23:43Z</time>
      </trkpt>
      <trkpt lat="42.7963790" lon="-8.6395960">
        <ele>44.8</ele>
        <time>2021-05-23T14:23:44Z</time>
      </trkpt>
      <trkpt lat="42.7963740" lon="-8.6395790">
        <ele>44.8</ele>
        <time>2021-05-23T14:23:45Z</time>
      </trkpt>
      <trkpt lat="42.7963640" lon="-8.6395600">
        <ele>44.8</ele>
        <time>2021-05-23T14:23:46Z</time>
      </trkpt>
      <trkpt lat="42.7963590" lon="-8.6395320">
        <ele>44.8</ele>
        <time>2021-05-23T14:23:47Z</time>
      </trkpt>
      <trkpt lat="42.7963570" lon="-8.6395210">
        <ele>44.8</ele>
        <time>2021-05-23T14:23:48Z</time>
      </trkpt>
      <trkpt lat="42.7963560" lon="-8.6395100">
        <ele>44.8</ele>
        <time>2021-05-23T14:23:49Z</time>
      </trkpt>
      <trkpt lat="42.7963520" lon="-8.6394930">
        <ele>44.8</ele>
        <time>2021-05-23T14:23:50Z</time>
      </trkpt>
      <trkpt lat="42.7963420" lon="-8.6394770">
        <ele>44.8</ele>
        <time>2021-05-23T14:23:51Z</time>
      </trkpt>
      <trkpt lat="42.7963530" lon="-8.6394610">
        <ele>44.8</ele>
        <time>2021-05-23T14:23:52Z</time>
      </trkpt>
      <trkpt lat="42.7963560" lon="-8.6394530">
        <ele>44.8</ele>
        <time>2021-05-23T14:23:53Z</time>
      </trkpt>
      <trkpt lat="42.7963590" lon="-8.6394440">
        <ele>44.8</ele>
        <time>2021-05-23T14:23:54Z</time>
      </trkpt>
      <trkpt lat="42.7963620" lon="-8.6394360">
        <ele>44.8</ele>
        <time>2021-05-23T14:23:55Z</time>
      </trkpt>
      <trkpt lat="42.7963680" lon="-8.6394170">
        <ele>44.8</ele>
        <time>2021-05-23T14:23:56Z</time>
      </trkpt>
      <trkpt lat="42.7963760" lon="-8.6393970">
        <ele>44.8</ele>
        <time>2021-05-23T14:23:57Z</time>
      </trkpt>
      <trkpt lat="42.7963820" lon="-8.6393820">
        <ele>44.8</ele>
        <time>2021-05-23T14:23:58Z</time>
      </trkpt>
      <trkpt lat="42.7963940" lon="-8.6393810">
        <ele>44.8</ele>
        <time>2021-05-23T14:23:59Z</time>
      </trkpt>
      <trkpt lat="42.7963960" lon="-8.6393630">
        <ele>44.8</ele>
        <time>2021-05-23T14:24:00Z</time>
      </trkpt>
      <trkpt lat="42.7964010" lon="-8.6393340">
        <ele>44.8</ele>
        <time>2021-05-23T14:24:01Z</time>
      </trkpt>
      <trkpt lat="42.7964040" lon="-8.6393240">
        <ele>44.8</ele>
        <time>2021-05-23T14:24:02Z</time>
      </trkpt>
      <trkpt lat="42.7964060" lon="-8.6393140">
        <ele>44.8</ele>
        <time>2021-05-23T14:24:03Z</time>
      </trkpt>
      <trkpt lat="42.7964130" lon="-8.6393030">
        <ele>44.8</ele>
        <time>2021-05-23T14:24:04Z</time>
      </trkpt>
      <trkpt lat="42.7964140" lon="-8.6392850">
        <ele>44.8</ele>
        <time>2021-05-23T14:24:05Z</time>
      </trkpt>
      <trkpt lat="42.7964160" lon="-8.6392700">
        <ele>44.8</ele>
        <time>2021-05-23T14:24:06Z</time>
      </trkpt>
      <trkpt lat="42.7964120" lon="-8.6392550">
        <ele>44.8</ele>
        <time>2021-05-23T14:24:07Z</time>
      </trkpt>
      <trkpt lat="42.7964120" lon="-8.6392390">
        <ele>44.8</ele>
        <time>2021-05-23T14:24:08Z</time>
      </trkpt>
      <trkpt lat="42.7964150" lon="-8.6392210">
        <ele>44.8</ele>
        <time>2021-05-23T14:24:09Z</time>
      </trkpt>
      <trkpt lat="42.7964210" lon="-8.6392060">
        <ele>44.8</ele>
        <time>2021-05-23T14:24:10Z</time>
      </trkpt>
      <trkpt lat="42.7964280" lon="-8.6391890">
        <ele>44.8</ele>
        <time>2021-05-23T14:24:11Z</time>
      </trkpt>
      <trkpt lat="42.7964330" lon="-8.6391830">
        <ele>44.8</ele>
        <time>2021-05-23T14:24:12Z</time>
      </trkpt>
      <trkpt lat="42.7964420" lon="-8.6391690">
        <ele>44.8</ele>
        <time>2021-05-23T14:24:13Z</time>
      </trkpt>
      <trkpt lat="42.7964470" lon="-8.6391560">
        <ele>44.8</ele>
        <time>2021-05-23T14:24:14Z</time>
      </trkpt>
      <trkpt lat="42.7964560" lon="-8.6391450">
        <ele>44.8</ele>
        <time>2021-05-23T14:24:15Z</time>
      </trkpt>
      <trkpt lat="42.7964640" lon="-8.6391370">
        <ele>44.8</ele>
        <time>2021-05-23T14:24:16Z</time>
      </trkpt>
      <trkpt lat="42.7964780" lon="-8.6391350">
        <ele>44.8</ele>
        <time>2021-05-23T14:24:17Z</time>
      </trkpt>
      <trkpt lat="42.7964900" lon="-8.6391300">
        <ele>44.8</ele>
        <time>2021-05-23T14:24:18Z</time>
      </trkpt>
      <trkpt lat="42.7965100" lon="-8.6391290">
        <ele>44.8</ele>
        <time>2021-05-23T14:24:19Z</time>
      </trkpt>
      <trkpt lat="42.7965170" lon="-8.6391260">
        <ele>44.8</ele>
        <time>2021-05-23T14:24:20Z</time>
      </trkpt>
      <trkpt lat="42.7965230" lon="-8.6391240">
        <ele>44.8</ele>
        <time>2021-05-23T14:24:21Z</time>
      </trkpt>
      <trkpt lat="42.7965290" lon="-8.6391210">
        <ele>44.8</ele>
        <time>2021-05-23T14:24:22Z</time>
      </trkpt>
      <trkpt lat="42.7965570" lon="-8.6391190">
        <ele>44.7</ele>
        <time>2021-05-23T14:24:23Z</time>
      </trkpt>
      <trkpt lat="42.7965740" lon="-8.6391110">
        <ele>44.7</ele>
        <time>2021-05-23T14:24:24Z</time>
      </trkpt>
      <trkpt lat="42.7965870" lon="-8.6391060">
        <ele>44.7</ele>
        <time>2021-05-23T14:24:25Z</time>
      </trkpt>
      <trkpt lat="42.7965980" lon="-8.6391000">
        <ele>44.7</ele>
        <time>2021-05-23T14:24:26Z</time>
      </trkpt>
      <trkpt lat="42.7966030" lon="-8.6391000">
        <ele>44.6</ele>
        <time>2021-05-23T14:24:27Z</time>
      </trkpt>
      <trkpt lat="42.7966140" lon="-8.6390940">
        <ele>44.6</ele>
        <time>2021-05-23T14:24:28Z</time>
      </trkpt>
      <trkpt lat="42.7966300" lon="-8.6390910">
        <ele>44.6</ele>
        <time>2021-05-23T14:24:29Z</time>
      </trkpt>
      <trkpt lat="42.7966330" lon="-8.6390870">
        <ele>44.6</ele>
        <time>2021-05-23T14:24:30Z</time>
      </trkpt>
      <trkpt lat="42.7966460" lon="-8.6390890">
        <ele>44.5</ele>
        <time>2021-05-23T14:24:31Z</time>
      </trkpt>
      <trkpt lat="42.7966650" lon="-8.6390980">
        <ele>44.5</ele>
        <time>2021-05-23T14:24:32Z</time>
      </trkpt>
      <trkpt lat="42.7966730" lon="-8.6391030">
        <ele>44.5</ele>
        <time>2021-05-23T14:24:33Z</time>
      </trkpt>
      <trkpt lat="42.7966820" lon="-8.6391080">
        <ele>44.5</ele>
        <time>2021-05-23T14:24:34Z</time>
      </trkpt>
      <trkpt lat="42.7966940" lon="-8.6391110">
        <ele>44.4</ele>
        <time>2021-05-23T14:24:35Z</time>
      </trkpt>
      <trkpt lat="42.7966950" lon="-8.6391030">
        <ele>44.4</ele>
        <time>2021-05-23T14:24:36Z</time>
      </trkpt>
      <trkpt lat="42.7967090" lon="-8.6391030">
        <ele>44.4</ele>
        <time>2021-05-23T14:24:37Z</time>
      </trkpt>
      <trkpt lat="42.7967300" lon="-8.6391060">
        <ele>44.4</ele>
        <time>2021-05-23T14:24:38Z</time>
      </trkpt>
      <trkpt lat="42.7967440" lon="-8.6391050">
        <ele>44.3</ele>
        <time>2021-05-23T14:24:39Z</time>
      </trkpt>
      <trkpt lat="42.7967570" lon="-8.6390960">
        <ele>44.3</ele>
        <time>2021-05-23T14:24:40Z</time>
      </trkpt>
      <trkpt lat="42.7967700" lon="-8.6390910">
        <ele>44.3</ele>
        <time>2021-05-23T14:24:41Z</time>
      </trkpt>
      <trkpt lat="42.7967820" lon="-8.6390850">
        <ele>44.2</ele>
        <time>2021-05-23T14:24:42Z</time>
      </trkpt>
      <trkpt lat="42.7967940" lon="-8.6390790">
        <ele>44.2</ele>
        <time>2021-05-23T14:24:43Z</time>
      </trkpt>
      <trkpt lat="42.7968090" lon="-8.6390770">
        <ele>44.2</ele>
        <time>2021-05-23T14:24:44Z</time>
      </trkpt>
      <trkpt lat="42.7968240" lon="-8.6390780">
        <ele>44.2</ele>
        <time>2021-05-23T14:24:45Z</time>
      </trkpt>
      <trkpt lat="42.7968350" lon="-8.6390740">
        <ele>44.1</ele>
        <time>2021-05-23T14:24:46Z</time>
      </trkpt>
      <trkpt lat="42.7968440" lon="-8.6390690">
        <ele>44.1</ele>
        <time>2021-05-23T14:24:47Z</time>
      </trkpt>
      <trkpt lat="42.7968550" lon="-8.6390580">
        <ele>44.1</ele>
        <time>2021-05-23T14:24:48Z</time>
      </trkpt>
      <trkpt lat="42.7968590" lon="-8.6390410">
        <ele>44.1</ele>
        <time>2021-05-23T14:24:49Z</time>
      </trkpt>
      <trkpt lat="42.7968690" lon="-8.6390260">
        <ele>44.0</ele>
        <time>2021-05-23T14:24:50Z</time>
      </trkpt>
      <trkpt lat="42.7968780" lon="-8.6390190">
        <ele>44.0</ele>
        <time>2021-05-23T14:24:51Z</time>
      </trkpt>
      <trkpt lat="42.7968900" lon="-8.6390060">
        <ele>44.0</ele>
        <time>2021-05-23T14:24:52Z</time>
      </trkpt>
      <trkpt lat="42.7968990" lon="-8.6390020">
        <ele>44.0</ele>
        <time>2021-05-23T14:24:53Z</time>
      </trkpt>
      <trkpt lat="42.7969100" lon="-8.6389890">
        <ele>43.9</ele>
        <time>2021-05-23T14:24:54Z</time>
      </trkpt>
      <trkpt lat="42.7969200" lon="-8.6389740">
        <ele>43.9</ele>
        <time>2021-05-23T14:24:55Z</time>
      </trkpt>
      <trkpt lat="42.7969320" lon="-8.6389620">
        <ele>43.9</ele>
        <time>2021-05-23T14:24:56Z</time>
      </trkpt>
      <trkpt lat="42.7969390" lon="-8.6389560">
        <ele>43.9</ele>
        <time>2021-05-23T14:24:57Z</time>
      </trkpt>
      <trkpt lat="42.7969450" lon="-8.6389490">
        <ele>43.9</ele>
        <time>2021-05-23T14:24:58Z</time>
      </trkpt>
      <trkpt lat="42.7969520" lon="-8.6389420">
        <ele>43.8</ele>
        <time>2021-05-23T14:24:59Z</time>
      </trkpt>
      <trkpt lat="42.7969540" lon="-8.6389320">
        <ele>43.8</ele>
        <time>2021-05-23T14:25:00Z</time>
      </trkpt>
      <trkpt lat="42.7969670" lon="-8.6389270">
        <ele>43.8</ele>
        <time>2021-05-23T14:25:01Z</time>
      </trkpt>
      <trkpt lat="42.7969810" lon="-8.6389250">
        <ele>43.8</ele>
        <time>2021-05-23T14:25:02Z</time>
      </trkpt>
      <trkpt lat="42.7969930" lon="-8.6389200">
        <ele>43.7</ele>
        <time>2021-05-23T14:25:03Z</time>
      </trkpt>
      <trkpt lat="42.7970050" lon="-8.6389060">
        <ele>43.7</ele>
        <time>2021-05-23T14:25:04Z</time>
      </trkpt>
      <trkpt lat="42.7970130" lon="-8.6388950">
        <ele>43.7</ele>
        <time>2021-05-23T14:25:05Z</time>
      </trkpt>
      <trkpt lat="42.7970150" lon="-8.6389030">
        <ele>43.7</ele>
        <time>2021-05-23T14:25:06Z</time>
      </trkpt>
      <trkpt lat="42.7970290" lon="-8.6388950">
        <ele>43.7</ele>
        <time>2021-05-23T14:25:07Z</time>
      </trkpt>
      <trkpt lat="42.7970340" lon="-8.6388920">
        <ele>43.6</ele>
        <time>2021-05-23T14:25:08Z</time>
      </trkpt>
      <trkpt lat="42.7970400" lon="-8.6388830">
        <ele>43.6</ele>
        <time>2021-05-23T14:25:09Z</time>
      </trkpt>
      <trkpt lat="42.7970660" lon="-8.6388730">
        <ele>43.6</ele>
        <time>2021-05-23T14:25:10Z</time>
      </trkpt>
      <trkpt lat="42.7970790" lon="-8.6388790">
        <ele>43.5</ele>
        <time>2021-05-23T14:25:11Z</time>
      </trkpt>
      <trkpt lat="42.7970790" lon="-8.6388760">
        <ele>43.5</ele>
        <time>2021-05-23T14:25:12Z</time>
      </trkpt>
      <trkpt lat="42.7970900" lon="-8.6388670">
        <ele>43.5</ele>
        <time>2021-05-23T14:25:13Z</time>
      </trkpt>
      <trkpt lat="42.7970980" lon="-8.6388520">
        <ele>43.5</ele>
        <time>2021-05-23T14:25:14Z</time>
      </trkpt>
      <trkpt lat="42.7971070" lon="-8.6388450">
        <ele>43.5</ele>
        <time>2021-05-23T14:25:15Z</time>
      </trkpt>
      <trkpt lat="42.7971180" lon="-8.6388440">
        <ele>43.4</ele>
        <time>2021-05-23T14:25:16Z</time>
      </trkpt>
      <trkpt lat="42.7971310" lon="-8.6388410">
        <ele>43.4</ele>
        <time>2021-05-23T14:25:17Z</time>
      </trkpt>
      <trkpt lat="42.7971570" lon="-8.6388340">
        <ele>43.3</ele>
        <time>2021-05-23T14:25:18Z</time>
      </trkpt>
      <trkpt lat="42.7971630" lon="-8.6388330">
        <ele>43.3</ele>
        <time>2021-05-23T14:25:19Z</time>
      </trkpt>
      <trkpt lat="42.7971680" lon="-8.6388330">
        <ele>43.3</ele>
        <time>2021-05-23T14:25:20Z</time>
      </trkpt>
      <trkpt lat="42.7971880" lon="-8.6388220">
        <ele>43.2</ele>
        <time>2021-05-23T14:25:21Z</time>
      </trkpt>
      <trkpt lat="42.7971970" lon="-8.6388160">
        <ele>43.2</ele>
        <time>2021-05-23T14:25:22Z</time>
      </trkpt>
      <trkpt lat="42.7972070" lon="-8.6388110">
        <ele>43.2</ele>
        <time>2021-05-23T14:25:23Z</time>
      </trkpt>
      <trkpt lat="42.7972260" lon="-8.6388100">
        <ele>43.1</ele>
        <time>2021-05-23T14:25:24Z</time>
      </trkpt>
      <trkpt lat="42.7972330" lon="-8.6388070">
        <ele>43.1</ele>
        <time>2021-05-23T14:25:25Z</time>
      </trkpt>
      <trkpt lat="42.7972420" lon="-8.6388010">
        <ele>43.1</ele>
        <time>2021-05-23T14:25:26Z</time>
      </trkpt>
      <trkpt lat="42.7972620" lon="-8.6387970">
        <ele>43.0</ele>
        <time>2021-05-23T14:25:27Z</time>
      </trkpt>
      <trkpt lat="42.7972720" lon="-8.6387920">
        <ele>43.0</ele>
        <time>2021-05-23T14:25:28Z</time>
      </trkpt>
      <trkpt lat="42.7972820" lon="-8.6387880">
        <ele>43.0</ele>
        <time>2021-05-23T14:25:29Z</time>
      </trkpt>
      <trkpt lat="42.7972850" lon="-8.6387780">
        <ele>42.9</ele>
        <time>2021-05-23T14:25:30Z</time>
      </trkpt>
      <trkpt lat="42.7972950" lon="-8.6387670">
        <ele>42.9</ele>
        <time>2021-05-23T14:25:31Z</time>
      </trkpt>
      <trkpt lat="42.7973050" lon="-8.6387580">
        <ele>42.9</ele>
        <time>2021-05-23T14:25:32Z</time>
      </trkpt>
      <trkpt lat="42.7973150" lon="-8.6387450">
        <ele>42.8</ele>
        <time>2021-05-23T14:25:33Z</time>
      </trkpt>
      <trkpt lat="42.7973260" lon="-8.6387230">
        <ele>42.8</ele>
        <time>2021-05-23T14:25:34Z</time>
      </trkpt>
      <trkpt lat="42.7973390" lon="-8.6387060">
        <ele>42.7</ele>
        <time>2021-05-23T14:25:35Z</time>
      </trkpt>
      <trkpt lat="42.7973400" lon="-8.6386970">
        <ele>42.7</ele>
        <time>2021-05-23T14:25:36Z</time>
      </trkpt>
      <trkpt lat="42.7973420" lon="-8.6386870">
        <ele>42.6</ele>
        <time>2021-05-23T14:25:37Z</time>
      </trkpt>
      <trkpt lat="42.7973430" lon="-8.6386780">
        <ele>42.6</ele>
        <time>2021-05-23T14:25:38Z</time>
      </trkpt>
      <trkpt lat="42.7973560" lon="-8.6386580">
        <ele>42.6</ele>
        <time>2021-05-23T14:25:39Z</time>
      </trkpt>
      <trkpt lat="42.7973620" lon="-8.6386490">
        <ele>42.5</ele>
        <time>2021-05-23T14:25:40Z</time>
      </trkpt>
      <trkpt lat="42.7973670" lon="-8.6386390">
        <ele>42.5</ele>
        <time>2021-05-23T14:25:41Z</time>
      </trkpt>
      <trkpt lat="42.7973720" lon="-8.6386330">
        <ele>42.5</ele>
        <time>2021-05-23T14:25:42Z</time>
      </trkpt>
      <trkpt lat="42.7973840" lon="-8.6386230">
        <ele>42.4</ele>
        <time>2021-05-23T14:25:43Z</time>
      </trkpt>
      <trkpt lat="42.7973960" lon="-8.6386120">
        <ele>42.4</ele>
        <time>2021-05-23T14:25:44Z</time>
      </trkpt>
      <trkpt lat="42.7974070" lon="-8.6386090">
        <ele>42.3</ele>
        <time>2021-05-23T14:25:45Z</time>
      </trkpt>
      <trkpt lat="42.7974150" lon="-8.6385940">
        <ele>42.3</ele>
        <time>2021-05-23T14:25:46Z</time>
      </trkpt>
      <trkpt lat="42.7974210" lon="-8.6385810">
        <ele>42.3</ele>
        <time>2021-05-23T14:25:47Z</time>
      </trkpt>
      <trkpt lat="42.7974300" lon="-8.6385730">
        <ele>42.2</ele>
        <time>2021-05-23T14:25:48Z</time>
      </trkpt>
      <trkpt lat="42.7974480" lon="-8.6385560">
        <ele>42.2</ele>
        <time>2021-05-23T14:25:49Z</time>
      </trkpt>
      <trkpt lat="42.7974740" lon="-8.6385380">
        <ele>42.1</ele>
        <time>2021-05-23T14:25:50Z</time>
      </trkpt>
      <trkpt lat="42.7974800" lon="-8.6385320">
        <ele>42.1</ele>
        <time>2021-05-23T14:25:51Z</time>
      </trkpt>
      <trkpt lat="42.7974950" lon="-8.6385290">
        <ele>42.1</ele>
        <time>2021-05-23T14:25:52Z</time>
      </trkpt>
      <trkpt lat="42.7975090" lon="-8.6385270">
        <ele>42.0</ele>
        <time>2021-05-23T14:25:53Z</time>
      </trkpt>
      <trkpt lat="42.7975220" lon="-8.6385170">
        <ele>42.0</ele>
        <time>2021-05-23T14:25:54Z</time>
      </trkpt>
      <trkpt lat="42.7975350" lon="-8.6385100">
        <ele>42.0</ele>
        <time>2021-05-23T14:25:55Z</time>
      </trkpt>
      <trkpt lat="42.7975490" lon="-8.6384900">
        <ele>41.9</ele>
        <time>2021-05-23T14:25:56Z</time>
      </trkpt>
      <trkpt lat="42.7975550" lon="-8.6384780">
        <ele>41.9</ele>
        <time>2021-05-23T14:25:57Z</time>
      </trkpt>
      <trkpt lat="42.7975620" lon="-8.6384660">
        <ele>41.9</ele>
        <time>2021-05-23T14:25:58Z</time>
      </trkpt>
      <trkpt lat="42.7975670" lon="-8.6384490">
        <ele>41.8</ele>
        <time>2021-05-23T14:25:59Z</time>
      </trkpt>
      <trkpt lat="42.7975750" lon="-8.6384350">
        <ele>41.8</ele>
        <time>2021-05-23T14:26:00Z</time>
      </trkpt>
      <trkpt lat="42.7975770" lon="-8.6384270">
        <ele>41.8</ele>
        <time>2021-05-23T14:26:01Z</time>
      </trkpt>
      <trkpt lat="42.7975870" lon="-8.6384130">
        <ele>41.8</ele>
        <time>2021-05-23T14:26:02Z</time>
      </trkpt>
      <trkpt lat="42.7975930" lon="-8.6383910">
        <ele>41.7</ele>
        <time>2021-05-23T14:26:03Z</time>
      </trkpt>
      <trkpt lat="42.7976100" lon="-8.6383680">
        <ele>41.7</ele>
        <time>2021-05-23T14:26:04Z</time>
      </trkpt>
      <trkpt lat="42.7976160" lon="-8.6383620">
        <ele>41.7</ele>
        <time>2021-05-23T14:26:05Z</time>
      </trkpt>
      <trkpt lat="42.7976210" lon="-8.6383550">
        <ele>41.7</ele>
        <time>2021-05-23T14:26:06Z</time>
      </trkpt>
      <trkpt lat="42.7976270" lon="-8.6383260">
        <ele>41.6</ele>
        <time>2021-05-23T14:26:07Z</time>
      </trkpt>
      <trkpt lat="42.7976320" lon="-8.6383170">
        <ele>41.6</ele>
        <time>2021-05-23T14:26:08Z</time>
      </trkpt>
      <trkpt lat="42.7976370" lon="-8.6383080">
        <ele>41.6</ele>
        <time>2021-05-23T14:26:09Z</time>
      </trkpt>
      <trkpt lat="42.7976430" lon="-8.6382960">
        <ele>41.6</ele>
        <time>2021-05-23T14:26:10Z</time>
      </trkpt>
      <trkpt lat="42.7976510" lon="-8.6382870">
        <ele>41.6</ele>
        <time>2021-05-23T14:26:11Z</time>
      </trkpt>
      <trkpt lat="42.7976630" lon="-8.6382740">
        <ele>41.6</ele>
        <time>2021-05-23T14:26:12Z</time>
      </trkpt>
      <trkpt lat="42.7976840" lon="-8.6382610">
        <ele>41.6</ele>
        <time>2021-05-23T14:26:13Z</time>
      </trkpt>
      <trkpt lat="42.7976900" lon="-8.6382510">
        <ele>41.6</ele>
        <time>2021-05-23T14:26:14Z</time>
      </trkpt>
      <trkpt lat="42.7976950" lon="-8.6382420">
        <ele>41.5</ele>
        <time>2021-05-23T14:26:15Z</time>
      </trkpt>
      <trkpt lat="42.7977180" lon="-8.6382160">
        <ele>41.5</ele>
        <time>2021-05-23T14:26:16Z</time>
      </trkpt>
      <trkpt lat="42.7977230" lon="-8.6382040">
        <ele>41.5</ele>
        <time>2021-05-23T14:26:17Z</time>
      </trkpt>
      <trkpt lat="42.7977380" lon="-8.6381920">
        <ele>41.5</ele>
        <time>2021-05-23T14:26:18Z</time>
      </trkpt>
      <trkpt lat="42.7977490" lon="-8.6381750">
        <ele>41.5</ele>
        <time>2021-05-23T14:26:19Z</time>
      </trkpt>
      <trkpt lat="42.7977590" lon="-8.6381570">
        <ele>41.5</ele>
        <time>2021-05-23T14:26:20Z</time>
      </trkpt>
      <trkpt lat="42.7977660" lon="-8.6381390">
        <ele>41.5</ele>
        <time>2021-05-23T14:26:21Z</time>
      </trkpt>
      <trkpt lat="42.7977760" lon="-8.6381200">
        <ele>41.5</ele>
        <time>2021-05-23T14:26:22Z</time>
      </trkpt>
      <trkpt lat="42.7977790" lon="-8.6380990">
        <ele>41.6</ele>
        <time>2021-05-23T14:26:23Z</time>
      </trkpt>
      <trkpt lat="42.7977890" lon="-8.6380810">
        <ele>41.6</ele>
        <time>2021-05-23T14:26:24Z</time>
      </trkpt>
      <trkpt lat="42.7977990" lon="-8.6380710">
        <ele>41.6</ele>
        <time>2021-05-23T14:26:25Z</time>
      </trkpt>
      <trkpt lat="42.7978020" lon="-8.6380550">
        <ele>41.6</ele>
        <time>2021-05-23T14:26:26Z</time>
      </trkpt>
      <trkpt lat="42.7978090" lon="-8.6380440">
        <ele>41.6</ele>
        <time>2021-05-23T14:26:27Z</time>
      </trkpt>
      <trkpt lat="42.7978150" lon="-8.6380330">
        <ele>41.6</ele>
        <time>2021-05-23T14:26:28Z</time>
      </trkpt>
      <trkpt lat="42.7978210" lon="-8.6380140">
        <ele>41.6</ele>
        <time>2021-05-23T14:26:29Z</time>
      </trkpt>
      <trkpt lat="42.7978300" lon="-8.6379990">
        <ele>41.6</ele>
        <time>2021-05-23T14:26:30Z</time>
      </trkpt>
      <trkpt lat="42.7978470" lon="-8.6379890">
        <ele>41.6</ele>
        <time>2021-05-23T14:26:31Z</time>
      </trkpt>
      <trkpt lat="42.7978540" lon="-8.6379810">
        <ele>41.6</ele>
        <time>2021-05-23T14:26:32Z</time>
      </trkpt>
      <trkpt lat="42.7978620" lon="-8.6379740">
        <ele>41.6</ele>
        <time>2021-05-23T14:26:33Z</time>
      </trkpt>
      <trkpt lat="42.7978800" lon="-8.6379870">
        <ele>41.6</ele>
        <time>2021-05-23T14:26:34Z</time>
      </trkpt>
      <trkpt lat="42.7978870" lon="-8.6379970">
        <ele>41.6</ele>
        <time>2021-05-23T14:26:35Z</time>
      </trkpt>
      <trkpt lat="42.7978940" lon="-8.6380060">
        <ele>41.6</ele>
        <time>2021-05-23T14:26:36Z</time>
      </trkpt>
      <trkpt lat="42.7979000" lon="-8.6380170">
        <ele>41.6</ele>
        <time>2021-05-23T14:26:37Z</time>
      </trkpt>
      <trkpt lat="42.7979040" lon="-8.6380320">
        <ele>41.6</ele>
        <time>2021-05-23T14:26:38Z</time>
      </trkpt>
      <trkpt lat="42.7979100" lon="-8.6380420">
        <ele>41.6</ele>
        <time>2021-05-23T14:26:39Z</time>
      </trkpt>
      <trkpt lat="42.7979130" lon="-8.6380510">
        <ele>41.6</ele>
        <time>2021-05-23T14:26:40Z</time>
      </trkpt>
      <trkpt lat="42.7979180" lon="-8.6380540">
        <ele>41.6</ele>
        <time>2021-05-23T14:26:41Z</time>
      </trkpt>
      <trkpt lat="42.7979260" lon="-8.6380520">
        <ele>41.6</ele>
        <time>2021-05-23T14:26:42Z</time>
      </trkpt>
      <trkpt lat="42.7979380" lon="-8.6380490">
        <ele>41.6</ele>
        <time>2021-05-23T14:26:43Z</time>
      </trkpt>
      <trkpt lat="42.7979520" lon="-8.6380350">
        <ele>41.4</ele>
        <time>2021-05-23T14:26:44Z</time>
      </trkpt>
      <trkpt lat="42.7979660" lon="-8.6380300">
        <ele>41.4</ele>
        <time>2021-05-23T14:26:45Z</time>
      </trkpt>
      <trkpt lat="42.7979760" lon="-8.6380240">
        <ele>41.4</ele>
        <time>2021-05-23T14:26:46Z</time>
      </trkpt>
      <trkpt lat="42.7979890" lon="-8.6380240">
        <ele>41.4</ele>
        <time>2021-05-23T14:26:47Z</time>
      </trkpt>
      <trkpt lat="42.7979960" lon="-8.6380170">
        <ele>41.3</ele>
        <time>2021-05-23T14:26:48Z</time>
      </trkpt>
      <trkpt lat="42.7980070" lon="-8.6380080">
        <ele>41.3</ele>
        <time>2021-05-23T14:26:49Z</time>
      </trkpt>
      <trkpt lat="42.7980100" lon="-8.6380000">
        <ele>41.3</ele>
        <time>2021-05-23T14:26:50Z</time>
      </trkpt>
      <trkpt lat="42.7980180" lon="-8.6379870">
        <ele>41.3</ele>
        <time>2021-05-23T14:26:51Z</time>
      </trkpt>
      <trkpt lat="42.7980370" lon="-8.6379620">
        <ele>41.3</ele>
        <time>2021-05-23T14:26:52Z</time>
      </trkpt>
      <trkpt lat="42.7980410" lon="-8.6379560">
        <ele>41.3</ele>
        <time>2021-05-23T14:26:53Z</time>
      </trkpt>
      <trkpt lat="42.7980450" lon="-8.6379490">
        <ele>41.3</ele>
        <time>2021-05-23T14:26:54Z</time>
      </trkpt>
      <trkpt lat="42.7980550" lon="-8.6379410">
        <ele>41.2</ele>
        <time>2021-05-23T14:26:55Z</time>
      </trkpt>
      <trkpt lat="42.7980710" lon="-8.6379340">
        <ele>41.2</ele>
        <time>2021-05-23T14:26:56Z</time>
      </trkpt>
      <trkpt lat="42.7980820" lon="-8.6379210">
        <ele>41.2</ele>
        <time>2021-05-23T14:26:57Z</time>
      </trkpt>
      <trkpt lat="42.7980890" lon="-8.6379110">
        <ele>41.2</ele>
        <time>2021-05-23T14:26:58Z</time>
      </trkpt>
      <trkpt lat="42.7980940" lon="-8.6378950">
        <ele>41.2</ele>
        <time>2021-05-23T14:26:59Z</time>
      </trkpt>
      <trkpt lat="42.7980980" lon="-8.6378770">
        <ele>41.2</ele>
        <time>2021-05-23T14:27:00Z</time>
      </trkpt>
      <trkpt lat="42.7981020" lon="-8.6378630">
        <ele>41.2</ele>
        <time>2021-05-23T14:27:01Z</time>
      </trkpt>
      <trkpt lat="42.7981060" lon="-8.6378570">
        <ele>41.2</ele>
        <time>2021-05-23T14:27:02Z</time>
      </trkpt>
      <trkpt lat="42.7981040" lon="-8.6378720">
        <ele>41.2</ele>
        <time>2021-05-23T14:27:03Z</time>
      </trkpt>
      <trkpt lat="42.7981060" lon="-8.6378720">
        <ele>41.2</ele>
        <time>2021-05-23T14:27:04Z</time>
      </trkpt>
      <trkpt lat="42.7981110" lon="-8.6378740">
        <ele>41.2</ele>
        <time>2021-05-23T14:27:05Z</time>
      </trkpt>
      <trkpt lat="42.7981130" lon="-8.6378740">
        <ele>41.2</ele>
        <time>2021-05-23T14:27:06Z</time>
      </trkpt>
      <trkpt lat="42.7981150" lon="-8.6378700">
        <ele>41.2</ele>
        <time>2021-05-23T14:27:07Z</time>
      </trkpt>
      <trkpt lat="42.7981180" lon="-8.6378720">
        <ele>41.2</ele>
        <time>2021-05-23T14:27:08Z</time>
      </trkpt>
      <trkpt lat="42.7981200" lon="-8.6378740">
        <ele>41.2</ele>
        <time>2021-05-23T14:27:09Z</time>
      </trkpt>
      <trkpt lat="42.7981220" lon="-8.6378770">
        <ele>41.2</ele>
        <time>2021-05-23T14:27:10Z</time>
      </trkpt>
      <trkpt lat="42.7981210" lon="-8.6378770">
        <ele>41.2</ele>
        <time>2021-05-23T14:27:11Z</time>
      </trkpt>
      <trkpt lat="42.7981220" lon="-8.6378770">
        <ele>41.2</ele>
        <time>2021-05-23T14:27:12Z</time>
      </trkpt>
      <trkpt lat="42.7981240" lon="-8.6378760">
        <ele>41.2</ele>
        <time>2021-05-23T14:27:13Z</time>
      </trkpt>
      <trkpt lat="42.7981260" lon="-8.6378770">
        <ele>41.2</ele>
        <time>2021-05-23T14:27:14Z</time>
      </trkpt>
      <trkpt lat="42.7981280" lon="-8.6378800">
        <ele>41.2</ele>
        <time>2021-05-23T14:27:15Z</time>
      </trkpt>
      <trkpt lat="42.7981300" lon="-8.6378740">
        <ele>41.2</ele>
        <time>2021-05-23T14:27:16Z</time>
      </trkpt>
      <trkpt lat="42.7981290" lon="-8.6378660">
        <ele>41.2</ele>
        <time>2021-05-23T14:27:17Z</time>
      </trkpt>
      <trkpt lat="42.7981270" lon="-8.6378580">
        <ele>41.2</ele>
        <time>2021-05-23T14:27:18Z</time>
      </trkpt>
      <trkpt lat="42.7981260" lon="-8.6378490">
        <ele>41.2</ele>
        <time>2021-05-23T14:27:19Z</time>
      </trkpt>
      <trkpt lat="42.7981240" lon="-8.6378410">
        <ele>41.2</ele>
        <time>2021-05-23T14:27:20Z</time>
      </trkpt>
      <trkpt lat="42.7981230" lon="-8.6378330">
        <ele>41.2</ele>
        <time>2021-05-23T14:27:21Z</time>
      </trkpt>
      <trkpt lat="42.7981210" lon="-8.6378250">
        <ele>41.2</ele>
        <time>2021-05-23T14:27:22Z</time>
      </trkpt>
      <trkpt lat="42.7981200" lon="-8.6378090">
        <ele>41.2</ele>
        <time>2021-05-23T14:27:23Z</time>
      </trkpt>
      <trkpt lat="42.7981230" lon="-8.6377900">
        <ele>41.3</ele>
        <time>2021-05-23T14:27:24Z</time>
      </trkpt>
      <trkpt lat="42.7981250" lon="-8.6377770">
        <ele>41.3</ele>
        <time>2021-05-23T14:27:25Z</time>
      </trkpt>
      <trkpt lat="42.7981360" lon="-8.6377470">
        <ele>41.3</ele>
        <time>2021-05-23T14:27:26Z</time>
      </trkpt>
      <trkpt lat="42.7981400" lon="-8.6377370">
        <ele>41.3</ele>
        <time>2021-05-23T14:27:27Z</time>
      </trkpt>
      <trkpt lat="42.7981430" lon="-8.6377280">
        <ele>41.3</ele>
        <time>2021-05-23T14:27:28Z</time>
      </trkpt>
      <trkpt lat="42.7981450" lon="-8.6376920">
        <ele>41.3</ele>
        <time>2021-05-23T14:27:29Z</time>
      </trkpt>
      <trkpt lat="42.7981440" lon="-8.6376810">
        <ele>41.3</ele>
        <time>2021-05-23T14:27:30Z</time>
      </trkpt>
      <trkpt lat="42.7981480" lon="-8.6376650">
        <ele>41.4</ele>
        <time>2021-05-23T14:27:31Z</time>
      </trkpt>
      <trkpt lat="42.7981520" lon="-8.6376440">
        <ele>41.4</ele>
        <time>2021-05-23T14:27:32Z</time>
      </trkpt>
      <trkpt lat="42.7981500" lon="-8.6376220">
        <ele>41.4</ele>
        <time>2021-05-23T14:27:33Z</time>
      </trkpt>
      <trkpt lat="42.7981560" lon="-8.6376010">
        <ele>41.4</ele>
        <time>2021-05-23T14:27:34Z</time>
      </trkpt>
      <trkpt lat="42.7981610" lon="-8.6375730">
        <ele>41.5</ele>
        <time>2021-05-23T14:27:35Z</time>
      </trkpt>
      <trkpt lat="42.7981680" lon="-8.6375610">
        <ele>41.5</ele>
        <time>2021-05-23T14:27:36Z</time>
      </trkpt>
      <trkpt lat="42.7981740" lon="-8.6375500">
        <ele>41.5</ele>
        <time>2021-05-23T14:27:37Z</time>
      </trkpt>
      <trkpt lat="42.7981820" lon="-8.6375260">
        <ele>41.5</ele>
        <time>2021-05-23T14:27:38Z</time>
      </trkpt>
      <trkpt lat="42.7981860" lon="-8.6375130">
        <ele>41.6</ele>
        <time>2021-05-23T14:27:39Z</time>
      </trkpt>
      <trkpt lat="42.7981900" lon="-8.6375010">
        <ele>41.6</ele>
        <time>2021-05-23T14:27:40Z</time>
      </trkpt>
      <trkpt lat="42.7981990" lon="-8.6374780">
        <ele>41.6</ele>
        <time>2021-05-23T14:27:41Z</time>
      </trkpt>
      <trkpt lat="42.7982030" lon="-8.6374670">
        <ele>41.6</ele>
        <time>2021-05-23T14:27:42Z</time>
      </trkpt>
      <trkpt lat="42.7982060" lon="-8.6374570">
        <ele>41.6</ele>
        <time>2021-05-23T14:27:43Z</time>
      </trkpt>
      <trkpt lat="42.7982150" lon="-8.6374230">
        <ele>41.6</ele>
        <time>2021-05-23T14:27:44Z</time>
      </trkpt>
      <trkpt lat="42.7982180" lon="-8.6374060">
        <ele>41.6</ele>
        <time>2021-05-23T14:27:45Z</time>
      </trkpt>
      <trkpt lat="42.7982210" lon="-8.6373890">
        <ele>41.7</ele>
        <time>2021-05-23T14:27:46Z</time>
      </trkpt>
      <trkpt lat="42.7982290" lon="-8.6373700">
        <ele>41.7</ele>
        <time>2021-05-23T14:27:47Z</time>
      </trkpt>
      <trkpt lat="42.7982340" lon="-8.6373470">
        <ele>41.7</ele>
        <time>2021-05-23T14:27:48Z</time>
      </trkpt>
      <trkpt lat="42.7982380" lon="-8.6373300">
        <ele>41.7</ele>
        <time>2021-05-23T14:27:49Z</time>
      </trkpt>
      <trkpt lat="42.7982460" lon="-8.6373120">
        <ele>41.7</ele>
        <time>2021-05-23T14:27:50Z</time>
      </trkpt>
      <trkpt lat="42.7982530" lon="-8.6372970">
        <ele>41.7</ele>
        <time>2021-05-23T14:27:51Z</time>
      </trkpt>
      <trkpt lat="42.7982580" lon="-8.6372770">
        <ele>41.8</ele>
        <time>2021-05-23T14:27:52Z</time>
      </trkpt>
      <trkpt lat="42.7982640" lon="-8.6372600">
        <ele>41.8</ele>
        <time>2021-05-23T14:27:53Z</time>
      </trkpt>
      <trkpt lat="42.7982710" lon="-8.6372420">
        <ele>41.8</ele>
        <time>2021-05-23T14:27:54Z</time>
      </trkpt>
      <trkpt lat="42.7982820" lon="-8.6372300">
        <ele>41.8</ele>
        <time>2021-05-23T14:27:55Z</time>
      </trkpt>
      <trkpt lat="42.7982900" lon="-8.6372170">
        <ele>41.8</ele>
        <time>2021-05-23T14:27:56Z</time>
      </trkpt>
      <trkpt lat="42.7983010" lon="-8.6371990">
        <ele>41.8</ele>
        <time>2021-05-23T14:27:57Z</time>
      </trkpt>
      <trkpt lat="42.7983120" lon="-8.6371900">
        <ele>41.8</ele>
        <time>2021-05-23T14:27:58Z</time>
      </trkpt>
      <trkpt lat="42.7983260" lon="-8.6371820">
        <ele>41.9</ele>
        <time>2021-05-23T14:27:59Z</time>
      </trkpt>
      <trkpt lat="42.7983400" lon="-8.6371710">
        <ele>41.9</ele>
        <time>2021-05-23T14:28:00Z</time>
      </trkpt>
      <trkpt lat="42.7983490" lon="-8.6371550">
        <ele>41.9</ele>
        <time>2021-05-23T14:28:01Z</time>
      </trkpt>
      <trkpt lat="42.7983620" lon="-8.6371420">
        <ele>41.9</ele>
        <time>2021-05-23T14:28:02Z</time>
      </trkpt>
      <trkpt lat="42.7983670" lon="-8.6371220">
        <ele>41.9</ele>
        <time>2021-05-23T14:28:03Z</time>
      </trkpt>
      <trkpt lat="42.7983710" lon="-8.6371000">
        <ele>42.0</ele>
        <time>2021-05-23T14:28:04Z</time>
      </trkpt>
      <trkpt lat="42.7983720" lon="-8.6370780">
        <ele>42.0</ele>
        <time>2021-05-23T14:28:05Z</time>
      </trkpt>
      <trkpt lat="42.7983730" lon="-8.6370580">
        <ele>42.0</ele>
        <time>2021-05-23T14:28:06Z</time>
      </trkpt>
      <trkpt lat="42.7983730" lon="-8.6370410">
        <ele>42.0</ele>
        <time>2021-05-23T14:28:07Z</time>
      </trkpt>
      <trkpt lat="42.7983700" lon="-8.6370350">
        <ele>42.0</ele>
        <time>2021-05-23T14:28:08Z</time>
      </trkpt>
      <trkpt lat="42.7983710" lon="-8.6370470">
        <ele>42.0</ele>
        <time>2021-05-23T14:28:09Z</time>
      </trkpt>
      <trkpt lat="42.7983700" lon="-8.6370550">
        <ele>42.1</ele>
        <time>2021-05-23T14:28:10Z</time>
      </trkpt>
      <trkpt lat="42.7983670" lon="-8.6370550">
        <ele>42.1</ele>
        <time>2021-05-23T14:28:11Z</time>
      </trkpt>
      <trkpt lat="42.7983660" lon="-8.6370530">
        <ele>42.1</ele>
        <time>2021-05-23T14:28:12Z</time>
      </trkpt>
      <trkpt lat="42.7983600" lon="-8.6370550">
        <ele>42.1</ele>
        <time>2021-05-23T14:28:13Z</time>
      </trkpt>
      <trkpt lat="42.7983600" lon="-8.6370540">
        <ele>42.1</ele>
        <time>2021-05-23T14:28:14Z</time>
      </trkpt>
      <trkpt lat="42.7983570" lon="-8.6370540">
        <ele>42.1</ele>
        <time>2021-05-23T14:28:15Z</time>
      </trkpt>
      <trkpt lat="42.7983520" lon="-8.6370630">
        <ele>42.1</ele>
        <time>2021-05-23T14:28:16Z</time>
      </trkpt>
      <trkpt lat="42.7983490" lon="-8.6370700">
        <ele>42.1</ele>
        <time>2021-05-23T14:28:17Z</time>
      </trkpt>
      <trkpt lat="42.7983470" lon="-8.6370660">
        <ele>42.1</ele>
        <time>2021-05-23T14:28:18Z</time>
      </trkpt>
      <trkpt lat="42.7983470" lon="-8.6370700">
        <ele>42.1</ele>
        <time>2021-05-23T14:28:19Z</time>
      </trkpt>
      <trkpt lat="42.7983470" lon="-8.6370770">
        <ele>42.1</ele>
        <time>2021-05-23T14:28:20Z</time>
      </trkpt>
      <trkpt lat="42.7983450" lon="-8.6370800">
        <ele>42.1</ele>
        <time>2021-05-23T14:28:21Z</time>
      </trkpt>
      <trkpt lat="42.7983440" lon="-8.6370810">
        <ele>42.1</ele>
        <time>2021-05-23T14:28:22Z</time>
      </trkpt>
      <trkpt lat="42.7983350" lon="-8.6370820">
        <ele>42.1</ele>
        <time>2021-05-23T14:28:23Z</time>
      </trkpt>
      <trkpt lat="42.7983330" lon="-8.6370990">
        <ele>42.2</ele>
        <time>2021-05-23T14:28:24Z</time>
      </trkpt>
      <trkpt lat="42.7983340" lon="-8.6371040">
        <ele>42.2</ele>
        <time>2021-05-23T14:28:25Z</time>
      </trkpt>
      <trkpt lat="42.7983370" lon="-8.6371030">
        <ele>42.2</ele>
        <time>2021-05-23T14:28:26Z</time>
      </trkpt>
      <trkpt lat="42.7983390" lon="-8.6371020">
        <ele>42.2</ele>
        <time>2021-05-23T14:28:27Z</time>
      </trkpt>
      <trkpt lat="42.7983410" lon="-8.6371010">
        <ele>42.2</ele>
        <time>2021-05-23T14:28:28Z</time>
      </trkpt>
      <trkpt lat="42.7983380" lon="-8.6370960">
        <ele>42.2</ele>
        <time>2021-05-23T14:28:29Z</time>
      </trkpt>
      <trkpt lat="42.7983440" lon="-8.6371040">
        <ele>42.2</ele>
        <time>2021-05-23T14:28:30Z</time>
      </trkpt>
      <trkpt lat="42.7983600" lon="-8.6371180">
        <ele>42.2</ele>
        <time>2021-05-23T14:28:31Z</time>
      </trkpt>
      <trkpt lat="42.7983600" lon="-8.6371220">
        <ele>42.2</ele>
        <time>2021-05-23T14:28:32Z</time>
      </trkpt>
      <trkpt lat="42.7983560" lon="-8.6370900">
        <ele>42.3</ele>
        <time>2021-05-23T14:28:33Z</time>
      </trkpt>
      <trkpt lat="42.7983570" lon="-8.6371010">
        <ele>42.3</ele>
        <time>2021-05-23T14:28:34Z</time>
      </trkpt>
      <trkpt lat="42.7983520" lon="-8.6371050">
        <ele>42.3</ele>
        <time>2021-05-23T14:28:35Z</time>
      </trkpt>
      <trkpt lat="42.7983500" lon="-8.6370970">
        <ele>42.3</ele>
        <time>2021-05-23T14:28:36Z</time>
      </trkpt>
      <trkpt lat="42.7983550" lon="-8.6370920">
        <ele>42.3</ele>
        <time>2021-05-23T14:28:37Z</time>
      </trkpt>
      <trkpt lat="42.7983560" lon="-8.6370930">
        <ele>42.3</ele>
        <time>2021-05-23T14:28:38Z</time>
      </trkpt>
      <trkpt lat="42.7983540" lon="-8.6370900">
        <ele>42.3</ele>
        <time>2021-05-23T14:28:39Z</time>
      </trkpt>
      <trkpt lat="42.7983510" lon="-8.6370940">
        <ele>42.3</ele>
        <time>2021-05-23T14:28:40Z</time>
      </trkpt>
      <trkpt lat="42.7983470" lon="-8.6370970">
        <ele>42.3</ele>
        <time>2021-05-23T14:28:41Z</time>
      </trkpt>
      <trkpt lat="42.7983430" lon="-8.6370950">
        <ele>42.3</ele>
        <time>2021-05-23T14:28:42Z</time>
      </trkpt>
      <trkpt lat="42.7983420" lon="-8.6370970">
        <ele>42.3</ele>
        <time>2021-05-23T14:28:43Z</time>
      </trkpt>
      <trkpt lat="42.7983300" lon="-8.6370980">
        <ele>42.4</ele>
        <time>2021-05-23T14:28:44Z</time>
      </trkpt>
      <trkpt lat="42.7983290" lon="-8.6371030">
        <ele>42.4</ele>
        <time>2021-05-23T14:28:45Z</time>
      </trkpt>
      <trkpt lat="42.7983300" lon="-8.6371040">
        <ele>42.4</ele>
        <time>2021-05-23T14:28:46Z</time>
      </trkpt>
      <trkpt lat="42.7983290" lon="-8.6371200">
        <ele>42.4</ele>
        <time>2021-05-23T14:28:47Z</time>
      </trkpt>
      <trkpt lat="42.7983290" lon="-8.6371210">
        <ele>42.4</ele>
        <time>2021-05-23T14:28:48Z</time>
      </trkpt>
      <trkpt lat="42.7983300" lon="-8.6371230">
        <ele>42.4</ele>
        <time>2021-05-23T14:28:49Z</time>
      </trkpt>
      <trkpt lat="42.7983330" lon="-8.6371230">
        <ele>42.4</ele>
        <time>2021-05-23T14:28:50Z</time>
      </trkpt>
      <trkpt lat="42.7983330" lon="-8.6371230">
        <ele>42.4</ele>
        <time>2021-05-23T14:28:51Z</time>
      </trkpt>
      <trkpt lat="42.7983330" lon="-8.6371250">
        <ele>42.4</ele>
        <time>2021-05-23T14:28:52Z</time>
      </trkpt>
      <trkpt lat="42.7983360" lon="-8.6371250">
        <ele>42.4</ele>
        <time>2021-05-23T14:28:53Z</time>
      </trkpt>
      <trkpt lat="42.7983380" lon="-8.6371240">
        <ele>42.4</ele>
        <time>2021-05-23T14:28:54Z</time>
      </trkpt>
      <trkpt lat="42.7983400" lon="-8.6371190">
        <ele>42.4</ele>
        <time>2021-05-23T14:28:55Z</time>
      </trkpt>
      <trkpt lat="42.7983420" lon="-8.6371270">
        <ele>42.4</ele>
        <time>2021-05-23T14:28:56Z</time>
      </trkpt>
      <trkpt lat="42.7983510" lon="-8.6371160">
        <ele>42.5</ele>
        <time>2021-05-23T14:28:57Z</time>
      </trkpt>
      <trkpt lat="42.7983550" lon="-8.6371210">
        <ele>42.5</ele>
        <time>2021-05-23T14:28:58Z</time>
      </trkpt>
      <trkpt lat="42.7983500" lon="-8.6371160">
        <ele>42.5</ele>
        <time>2021-05-23T14:28:59Z</time>
      </trkpt>
      <trkpt lat="42.7983450" lon="-8.6371150">
        <ele>42.5</ele>
        <time>2021-05-23T14:29:00Z</time>
      </trkpt>
      <trkpt lat="42.7983410" lon="-8.6371140">
        <ele>42.5</ele>
        <time>2021-05-23T14:29:01Z</time>
      </trkpt>
      <trkpt lat="42.7983370" lon="-8.6371130">
        <ele>42.5</ele>
        <time>2021-05-23T14:29:02Z</time>
      </trkpt>
      <trkpt lat="42.7983320" lon="-8.6371130">
        <ele>42.5</ele>
        <time>2021-05-23T14:29:03Z</time>
      </trkpt>
      <trkpt lat="42.7983280" lon="-8.6371120">
        <ele>42.5</ele>
        <time>2021-05-23T14:29:04Z</time>
      </trkpt>
      <trkpt lat="42.7983230" lon="-8.6371110">
        <ele>42.5</ele>
        <time>2021-05-23T14:29:05Z</time>
      </trkpt>
      <trkpt lat="42.7983190" lon="-8.6371100">
        <ele>42.5</ele>
        <time>2021-05-23T14:29:06Z</time>
      </trkpt>
      <trkpt lat="42.7983300" lon="-8.6371030">
        <ele>42.5</ele>
        <time>2021-05-23T14:29:07Z</time>
      </trkpt>
      <trkpt lat="42.7983270" lon="-8.6371060">
        <ele>42.6</ele>
        <time>2021-05-23T14:29:08Z</time>
      </trkpt>
      <trkpt lat="42.7983270" lon="-8.6371130">
        <ele>42.6</ele>
        <time>2021-05-23T14:29:09Z</time>
      </trkpt>
      <trkpt lat="42.7983290" lon="-8.6371150">
        <ele>42.6</ele>
        <time>2021-05-23T14:29:10Z</time>
      </trkpt>
      <trkpt lat="42.7983300" lon="-8.6371150">
        <ele>42.6</ele>
        <time>2021-05-23T14:29:11Z</time>
      </trkpt>
      <trkpt lat="42.7983280" lon="-8.6371210">
        <ele>42.6</ele>
        <time>2021-05-23T14:29:12Z</time>
      </trkpt>
      <trkpt lat="42.7983280" lon="-8.6371290">
        <ele>42.6</ele>
        <time>2021-05-23T14:29:13Z</time>
      </trkpt>
      <trkpt lat="42.7983330" lon="-8.6371370">
        <ele>42.6</ele>
        <time>2021-05-23T14:29:14Z</time>
      </trkpt>
      <trkpt lat="42.7983340" lon="-8.6371410">
        <ele>42.6</ele>
        <time>2021-05-23T14:29:15Z</time>
      </trkpt>
      <trkpt lat="42.7983340" lon="-8.6371410">
        <ele>42.6</ele>
        <time>2021-05-23T14:29:16Z</time>
      </trkpt>
      <trkpt lat="42.7983390" lon="-8.6371520">
        <ele>42.6</ele>
        <time>2021-05-23T14:29:17Z</time>
      </trkpt>
      <trkpt lat="42.7983340" lon="-8.6371430">
        <ele>42.6</ele>
        <time>2021-05-23T14:29:18Z</time>
      </trkpt>
      <trkpt lat="42.7983310" lon="-8.6371420">
        <ele>42.6</ele>
        <time>2021-05-23T14:29:19Z</time>
      </trkpt>
      <trkpt lat="42.7983270" lon="-8.6371400">
        <ele>42.6</ele>
        <time>2021-05-23T14:29:20Z</time>
      </trkpt>
      <trkpt lat="42.7983240" lon="-8.6371390">
        <ele>42.6</ele>
        <time>2021-05-23T14:29:21Z</time>
      </trkpt>
      <trkpt lat="42.7983210" lon="-8.6371370">
        <ele>42.6</ele>
        <time>2021-05-23T14:29:22Z</time>
      </trkpt>
      <trkpt lat="42.7983180" lon="-8.6371360">
        <ele>42.6</ele>
        <time>2021-05-23T14:29:23Z</time>
      </trkpt>
      <trkpt lat="42.7983150" lon="-8.6371340">
        <ele>42.7</ele>
        <time>2021-05-23T14:29:24Z</time>
      </trkpt>
      <trkpt lat="42.7983120" lon="-8.6371330">
        <ele>42.7</ele>
        <time>2021-05-23T14:29:25Z</time>
      </trkpt>
      <trkpt lat="42.7983080" lon="-8.6371310">
        <ele>42.7</ele>
        <time>2021-05-23T14:29:26Z</time>
      </trkpt>
      <trkpt lat="42.7983050" lon="-8.6371300">
        <ele>42.7</ele>
        <time>2021-05-23T14:29:27Z</time>
      </trkpt>
      <trkpt lat="42.7983020" lon="-8.6371280">
        <ele>42.7</ele>
        <time>2021-05-23T14:29:28Z</time>
      </trkpt>
      <trkpt lat="42.7983120" lon="-8.6371310">
        <ele>42.7</ele>
        <time>2021-05-23T14:29:29Z</time>
      </trkpt>
      <trkpt lat="42.7983150" lon="-8.6371290">
        <ele>42.7</ele>
        <time>2021-05-23T14:29:30Z</time>
      </trkpt>
      <trkpt lat="42.7983130" lon="-8.6371260">
        <ele>42.7</ele>
        <time>2021-05-23T14:29:31Z</time>
      </trkpt>
      <trkpt lat="42.7983090" lon="-8.6371150">
        <ele>42.7</ele>
        <time>2021-05-23T14:29:32Z</time>
      </trkpt>
      <trkpt lat="42.7983070" lon="-8.6371210">
        <ele>42.7</ele>
        <time>2021-05-23T14:29:33Z</time>
      </trkpt>
      <trkpt lat="42.7983070" lon="-8.6371210">
        <ele>42.7</ele>
        <time>2021-05-23T14:29:34Z</time>
      </trkpt>
      <trkpt lat="42.7983070" lon="-8.6371280">
        <ele>42.7</ele>
        <time>2021-05-23T14:29:35Z</time>
      </trkpt>
      <trkpt lat="42.7983170" lon="-8.6371400">
        <ele>42.7</ele>
        <time>2021-05-23T14:29:36Z</time>
      </trkpt>
      <trkpt lat="42.7983160" lon="-8.6371420">
        <ele>42.7</ele>
        <time>2021-05-23T14:29:37Z</time>
      </trkpt>
      <trkpt lat="42.7983150" lon="-8.6371420">
        <ele>42.7</ele>
        <time>2021-05-23T14:29:38Z</time>
      </trkpt>
      <trkpt lat="42.7983150" lon="-8.6371390">
        <ele>42.7</ele>
        <time>2021-05-23T14:29:39Z</time>
      </trkpt>
      <trkpt lat="42.7983150" lon="-8.6371420">
        <ele>42.8</ele>
        <time>2021-05-23T14:29:40Z</time>
      </trkpt>
      <trkpt lat="42.7983150" lon="-8.6371460">
        <ele>42.8</ele>
        <time>2021-05-23T14:29:41Z</time>
      </trkpt>
      <trkpt lat="42.7983090" lon="-8.6371460">
        <ele>42.8</ele>
        <time>2021-05-23T14:29:42Z</time>
      </trkpt>
      <trkpt lat="42.7983080" lon="-8.6371450">
        <ele>42.8</ele>
        <time>2021-05-23T14:29:43Z</time>
      </trkpt>
      <trkpt lat="42.7983070" lon="-8.6371460">
        <ele>42.8</ele>
        <time>2021-05-23T14:29:44Z</time>
      </trkpt>
      <trkpt lat="42.7983060" lon="-8.6371440">
        <ele>42.8</ele>
        <time>2021-05-23T14:29:46Z</time>
      </trkpt>
      <trkpt lat="42.7983070" lon="-8.6371440">
        <ele>42.8</ele>
        <time>2021-05-23T14:29:47Z</time>
      </trkpt>
      <trkpt lat="42.7983140" lon="-8.6371460">
        <ele>42.8</ele>
        <time>2021-05-23T14:29:48Z</time>
      </trkpt>
      <trkpt lat="42.7983110" lon="-8.6371430">
        <ele>42.8</ele>
        <time>2021-05-23T14:29:49Z</time>
      </trkpt>
      <trkpt lat="42.7983110" lon="-8.6371410">
        <ele>42.8</ele>
        <time>2021-05-23T14:29:50Z</time>
      </trkpt>
      <trkpt lat="42.7983110" lon="-8.6371370">
        <ele>42.8</ele>
        <time>2021-05-23T14:29:51Z</time>
      </trkpt>
      <trkpt lat="42.7983100" lon="-8.6371370">
        <ele>42.8</ele>
        <time>2021-05-23T14:29:52Z</time>
      </trkpt>
      <trkpt lat="42.7983110" lon="-8.6371340">
        <ele>42.8</ele>
        <time>2021-05-23T14:29:53Z</time>
      </trkpt>
      <trkpt lat="42.7983120" lon="-8.6371300">
        <ele>42.8</ele>
        <time>2021-05-23T14:29:54Z</time>
      </trkpt>
      <trkpt lat="42.7983120" lon="-8.6371310">
        <ele>42.8</ele>
        <time>2021-05-23T14:29:55Z</time>
      </trkpt>
      <trkpt lat="42.7983120" lon="-8.6371300">
        <ele>42.8</ele>
        <time>2021-05-23T14:29:56Z</time>
      </trkpt>
      <trkpt lat="42.7983150" lon="-8.6371270">
        <ele>42.8</ele>
        <time>2021-05-23T14:29:57Z</time>
      </trkpt>
      <trkpt lat="42.7983160" lon="-8.6371250">
        <ele>42.8</ele>
        <time>2021-05-23T14:29:58Z</time>
      </trkpt>
      <trkpt lat="42.7983160" lon="-8.6371240">
        <ele>42.8</ele>
        <time>2021-05-23T14:29:59Z</time>
      </trkpt>
      <trkpt lat="42.7983200" lon="-8.6371210">
        <ele>42.8</ele>
        <time>2021-05-23T14:30:00Z</time>
      </trkpt>
      <trkpt lat="42.7983210" lon="-8.6371160">
        <ele>42.8</ele>
        <time>2021-05-23T14:30:01Z</time>
      </trkpt>
      <trkpt lat="42.7983190" lon="-8.6371060">
        <ele>42.8</ele>
        <time>2021-05-23T14:30:02Z</time>
      </trkpt>
      <trkpt lat="42.7983210" lon="-8.6371040">
        <ele>42.8</ele>
        <time>2021-05-23T14:30:03Z</time>
      </trkpt>
      <trkpt lat="42.7983190" lon="-8.6371050">
        <ele>42.8</ele>
        <time>2021-05-23T14:30:04Z</time>
      </trkpt>
      <trkpt lat="42.7983160" lon="-8.6371040">
        <ele>42.8</ele>
        <time>2021-05-23T14:30:05Z</time>
      </trkpt>
      <trkpt lat="42.7983140" lon="-8.6371020">
        <ele>42.9</ele>
        <time>2021-05-23T14:30:06Z</time>
      </trkpt>
      <trkpt lat="42.7983140" lon="-8.6371010">
        <ele>42.9</ele>
        <time>2021-05-23T14:30:07Z</time>
      </trkpt>
      <trkpt lat="42.7983130" lon="-8.6371040">
        <ele>42.9</ele>
        <time>2021-05-23T14:30:08Z</time>
      </trkpt>
      <trkpt lat="42.7983110" lon="-8.6371070">
        <ele>42.9</ele>
        <time>2021-05-23T14:30:09Z</time>
      </trkpt>
      <trkpt lat="42.7983080" lon="-8.6371090">
        <ele>42.9</ele>
        <time>2021-05-23T14:30:10Z</time>
      </trkpt>
      <trkpt lat="42.7983070" lon="-8.6371100">
        <ele>42.9</ele>
        <time>2021-05-23T14:30:11Z</time>
      </trkpt>
      <trkpt lat="42.7983070" lon="-8.6371100">
        <ele>42.9</ele>
        <time>2021-05-23T14:30:12Z</time>
      </trkpt>
      <trkpt lat="42.7983070" lon="-8.6371120">
        <ele>42.9</ele>
        <time>2021-05-23T14:30:13Z</time>
      </trkpt>
      <trkpt lat="42.7983060" lon="-8.6371160">
        <ele>42.9</ele>
        <time>2021-05-23T14:30:14Z</time>
      </trkpt>
      <trkpt lat="42.7983050" lon="-8.6371180">
        <ele>42.9</ele>
        <time>2021-05-23T14:30:15Z</time>
      </trkpt>
      <trkpt lat="42.7983020" lon="-8.6371260">
        <ele>42.9</ele>
        <time>2021-05-23T14:30:16Z</time>
      </trkpt>
      <trkpt lat="42.7983000" lon="-8.6371290">
        <ele>42.9</ele>
        <time>2021-05-23T14:30:17Z</time>
      </trkpt>
      <trkpt lat="42.7983030" lon="-8.6371270">
        <ele>42.9</ele>
        <time>2021-05-23T14:30:18Z</time>
      </trkpt>
      <trkpt lat="42.7983040" lon="-8.6371290">
        <ele>42.9</ele>
        <time>2021-05-23T14:30:19Z</time>
      </trkpt>
      <trkpt lat="42.7983030" lon="-8.6371320">
        <ele>42.9</ele>
        <time>2021-05-23T14:30:20Z</time>
      </trkpt>
      <trkpt lat="42.7982990" lon="-8.6371410">
        <ele>42.9</ele>
        <time>2021-05-23T14:30:21Z</time>
      </trkpt>
      <trkpt lat="42.7983000" lon="-8.6371400">
        <ele>42.9</ele>
        <time>2021-05-23T14:30:22Z</time>
      </trkpt>
      <trkpt lat="42.7983020" lon="-8.6371420">
        <ele>42.9</ele>
        <time>2021-05-23T14:30:23Z</time>
      </trkpt>
      <trkpt lat="42.7983020" lon="-8.6371380">
        <ele>42.9</ele>
        <time>2021-05-23T14:30:24Z</time>
      </trkpt>
      <trkpt lat="42.7983040" lon="-8.6371390">
        <ele>42.9</ele>
        <time>2021-05-23T14:30:25Z</time>
      </trkpt>
      <trkpt lat="42.7983050" lon="-8.6371370">
        <ele>42.9</ele>
        <time>2021-05-23T14:30:26Z</time>
      </trkpt>
      <trkpt lat="42.7983070" lon="-8.6371360">
        <ele>42.9</ele>
        <time>2021-05-23T14:30:27Z</time>
      </trkpt>
      <trkpt lat="42.7983080" lon="-8.6371390">
        <ele>42.9</ele>
        <time>2021-05-23T14:30:28Z</time>
      </trkpt>
      <trkpt lat="42.7983110" lon="-8.6371410">
        <ele>42.9</ele>
        <time>2021-05-23T14:30:29Z</time>
      </trkpt>
      <trkpt lat="42.7983150" lon="-8.6371410">
        <ele>42.9</ele>
        <time>2021-05-23T14:30:30Z</time>
      </trkpt>
      <trkpt lat="42.7983170" lon="-8.6371410">
        <ele>42.9</ele>
        <time>2021-05-23T14:30:31Z</time>
      </trkpt>
      <trkpt lat="42.7983190" lon="-8.6371450">
        <ele>43.0</ele>
        <time>2021-05-23T14:30:32Z</time>
      </trkpt>
      <trkpt lat="42.7983190" lon="-8.6371420">
        <ele>43.0</ele>
        <time>2021-05-23T14:30:33Z</time>
      </trkpt>
      <trkpt lat="42.7983210" lon="-8.6371420">
        <ele>43.0</ele>
        <time>2021-05-23T14:30:34Z</time>
      </trkpt>
      <trkpt lat="42.7983210" lon="-8.6371410">
        <ele>43.0</ele>
        <time>2021-05-23T14:30:35Z</time>
      </trkpt>
      <trkpt lat="42.7983280" lon="-8.6371430">
        <ele>43.0</ele>
        <time>2021-05-23T14:30:36Z</time>
      </trkpt>
      <trkpt lat="42.7983270" lon="-8.6371420">
        <ele>43.0</ele>
        <time>2021-05-23T14:30:37Z</time>
      </trkpt>
      <trkpt lat="42.7983270" lon="-8.6371370">
        <ele>43.0</ele>
        <time>2021-05-23T14:30:38Z</time>
      </trkpt>
      <trkpt lat="42.7983250" lon="-8.6371360">
        <ele>43.0</ele>
        <time>2021-05-23T14:30:39Z</time>
      </trkpt>
      <trkpt lat="42.7983250" lon="-8.6371360">
        <ele>43.0</ele>
        <time>2021-05-23T14:30:40Z</time>
      </trkpt>
      <trkpt lat="42.7983240" lon="-8.6371340">
        <ele>43.0</ele>
        <time>2021-05-23T14:30:41Z</time>
      </trkpt>
      <trkpt lat="42.7983240" lon="-8.6371330">
        <ele>43.0</ele>
        <time>2021-05-23T14:30:42Z</time>
      </trkpt>
      <trkpt lat="42.7983250" lon="-8.6371310">
        <ele>43.0</ele>
        <time>2021-05-23T14:30:43Z</time>
      </trkpt>
      <trkpt lat="42.7983220" lon="-8.6371310">
        <ele>43.0</ele>
        <time>2021-05-23T14:30:44Z</time>
      </trkpt>
      <trkpt lat="42.7983210" lon="-8.6371320">
        <ele>43.0</ele>
        <time>2021-05-23T14:30:45Z</time>
      </trkpt>
      <trkpt lat="42.7983220" lon="-8.6371270">
        <ele>43.0</ele>
        <time>2021-05-23T14:30:46Z</time>
      </trkpt>
      <trkpt lat="42.7983210" lon="-8.6371330">
        <ele>43.0</ele>
        <time>2021-05-23T14:30:47Z</time>
      </trkpt>
      <trkpt lat="42.7983200" lon="-8.6371220">
        <ele>43.0</ele>
        <time>2021-05-23T14:30:48Z</time>
      </trkpt>
      <trkpt lat="42.7983160" lon="-8.6371170">
        <ele>43.0</ele>
        <time>2021-05-23T14:30:49Z</time>
      </trkpt>
      <trkpt lat="42.7983140" lon="-8.6371050">
        <ele>43.0</ele>
        <time>2021-05-23T14:30:50Z</time>
      </trkpt>
      <trkpt lat="42.7983180" lon="-8.6371090">
        <ele>43.0</ele>
        <time>2021-05-23T14:30:51Z</time>
      </trkpt>
      <trkpt lat="42.7983230" lon="-8.6371130">
        <ele>43.1</ele>
        <time>2021-05-23T14:30:52Z</time>
      </trkpt>
      <trkpt lat="42.7983220" lon="-8.6371130">
        <ele>43.1</ele>
        <time>2021-05-23T14:30:53Z</time>
      </trkpt>
      <trkpt lat="42.7983150" lon="-8.6371140">
        <ele>43.1</ele>
        <time>2021-05-23T14:30:54Z</time>
      </trkpt>
      <trkpt lat="42.7983120" lon="-8.6371100">
        <ele>43.1</ele>
        <time>2021-05-23T14:30:55Z</time>
      </trkpt>
      <trkpt lat="42.7983150" lon="-8.6371020">
        <ele>43.1</ele>
        <time>2021-05-23T14:30:56Z</time>
      </trkpt>
      <trkpt lat="42.7983160" lon="-8.6371030">
        <ele>43.1</ele>
        <time>2021-05-23T14:30:57Z</time>
      </trkpt>
      <trkpt lat="42.7983160" lon="-8.6371010">
        <ele>43.1</ele>
        <time>2021-05-23T14:30:58Z</time>
      </trkpt>
      <trkpt lat="42.7983110" lon="-8.6371050">
        <ele>43.1</ele>
        <time>2021-05-23T14:30:59Z</time>
      </trkpt>
      <trkpt lat="42.7983130" lon="-8.6371000">
        <ele>43.1</ele>
        <time>2021-05-23T14:31:00Z</time>
      </trkpt>
      <trkpt lat="42.7983140" lon="-8.6371000">
        <ele>43.1</ele>
        <time>2021-05-23T14:31:01Z</time>
      </trkpt>
      <trkpt lat="42.7983130" lon="-8.6371030">
        <ele>43.1</ele>
        <time>2021-05-23T14:31:02Z</time>
      </trkpt>
      <trkpt lat="42.7983110" lon="-8.6371050">
        <ele>43.1</ele>
        <time>2021-05-23T14:31:03Z</time>
      </trkpt>
      <trkpt lat="42.7983100" lon="-8.6371060">
        <ele>43.1</ele>
        <time>2021-05-23T14:31:04Z</time>
      </trkpt>
      <trkpt lat="42.7983120" lon="-8.6371070">
        <ele>43.1</ele>
        <time>2021-05-23T14:31:05Z</time>
      </trkpt>
      <trkpt lat="42.7983130" lon="-8.6371070">
        <ele>43.1</ele>
        <time>2021-05-23T14:31:06Z</time>
      </trkpt>
      <trkpt lat="42.7983130" lon="-8.6371090">
        <ele>43.1</ele>
        <time>2021-05-23T14:31:07Z</time>
      </trkpt>
      <trkpt lat="42.7983150" lon="-8.6371080">
        <ele>43.1</ele>
        <time>2021-05-23T14:31:08Z</time>
      </trkpt>
      <trkpt lat="42.7983200" lon="-8.6371100">
        <ele>43.1</ele>
        <time>2021-05-23T14:31:09Z</time>
      </trkpt>
      <trkpt lat="42.7983260" lon="-8.6371150">
        <ele>43.1</ele>
        <time>2021-05-23T14:31:10Z</time>
      </trkpt>
      <trkpt lat="42.7983290" lon="-8.6371190">
        <ele>43.1</ele>
        <time>2021-05-23T14:31:11Z</time>
      </trkpt>
      <trkpt lat="42.7983300" lon="-8.6371200">
        <ele>43.1</ele>
        <time>2021-05-23T14:31:12Z</time>
      </trkpt>
      <trkpt lat="42.7983380" lon="-8.6371350">
        <ele>43.2</ele>
        <time>2021-05-23T14:31:13Z</time>
      </trkpt>
      <trkpt lat="42.7983390" lon="-8.6371240">
        <ele>43.2</ele>
        <time>2021-05-23T14:31:14Z</time>
      </trkpt>
      <trkpt lat="42.7983420" lon="-8.6371200">
        <ele>43.2</ele>
        <time>2021-05-23T14:31:15Z</time>
      </trkpt>
      <trkpt lat="42.7983440" lon="-8.6371160">
        <ele>43.2</ele>
        <time>2021-05-23T14:31:16Z</time>
      </trkpt>
      <trkpt lat="42.7983470" lon="-8.6371120">
        <ele>43.2</ele>
        <time>2021-05-23T14:31:17Z</time>
      </trkpt>
      <trkpt lat="42.7983490" lon="-8.6371080">
        <ele>43.2</ele>
        <time>2021-05-23T14:31:18Z</time>
      </trkpt>
      <trkpt lat="42.7983520" lon="-8.6371040">
        <ele>43.2</ele>
        <time>2021-05-23T14:31:19Z</time>
      </trkpt>
      <trkpt lat="42.7983540" lon="-8.6371000">
        <ele>43.2</ele>
        <time>2021-05-23T14:31:20Z</time>
      </trkpt>
      <trkpt lat="42.7983570" lon="-8.6370960">
        <ele>43.2</ele>
        <time>2021-05-23T14:31:21Z</time>
      </trkpt>
      <trkpt lat="42.7983590" lon="-8.6370910">
        <ele>43.2</ele>
        <time>2021-05-23T14:31:22Z</time>
      </trkpt>
      <trkpt lat="42.7983620" lon="-8.6370870">
        <ele>43.2</ele>
        <time>2021-05-23T14:31:23Z</time>
      </trkpt>
      <trkpt lat="42.7983640" lon="-8.6370830">
        <ele>43.2</ele>
        <time>2021-05-23T14:31:24Z</time>
      </trkpt>
      <trkpt lat="42.7983670" lon="-8.6370790">
        <ele>43.2</ele>
        <time>2021-05-23T14:31:25Z</time>
      </trkpt>
      <trkpt lat="42.7983690" lon="-8.6370750">
        <ele>43.2</ele>
        <time>2021-05-23T14:31:26Z</time>
      </trkpt>
      <trkpt lat="42.7983720" lon="-8.6370710">
        <ele>43.2</ele>
        <time>2021-05-23T14:31:27Z</time>
      </trkpt>
      <trkpt lat="42.7983740" lon="-8.6370670">
        <ele>43.3</ele>
        <time>2021-05-23T14:31:28Z</time>
      </trkpt>
      <trkpt lat="42.7983770" lon="-8.6370630">
        <ele>43.3</ele>
        <time>2021-05-23T14:31:29Z</time>
      </trkpt>
      <trkpt lat="42.7983790" lon="-8.6370590">
        <ele>43.3</ele>
        <time>2021-05-23T14:31:30Z</time>
      </trkpt>
      <trkpt lat="42.7983930" lon="-8.6370480">
        <ele>43.3</ele>
        <time>2021-05-23T14:31:31Z</time>
      </trkpt>
      <trkpt lat="42.7984000" lon="-8.6370440">
        <ele>43.3</ele>
        <time>2021-05-23T14:31:32Z</time>
      </trkpt>
      <trkpt lat="42.7984080" lon="-8.6370310">
        <ele>43.3</ele>
        <time>2021-05-23T14:31:33Z</time>
      </trkpt>
      <trkpt lat="42.7984140" lon="-8.6370250">
        <ele>43.3</ele>
        <time>2021-05-23T14:31:34Z</time>
      </trkpt>
      <trkpt lat="42.7984220" lon="-8.6370230">
        <ele>43.3</ele>
        <time>2021-05-23T14:31:35Z</time>
      </trkpt>
      <trkpt lat="42.7984350" lon="-8.6370200">
        <ele>43.4</ele>
        <time>2021-05-23T14:31:36Z</time>
      </trkpt>
      <trkpt lat="42.7984440" lon="-8.6370150">
        <ele>43.4</ele>
        <time>2021-05-23T14:31:37Z</time>
      </trkpt>
      <trkpt lat="42.7984540" lon="-8.6370040">
        <ele>43.4</ele>
        <time>2021-05-23T14:31:38Z</time>
      </trkpt>
      <trkpt lat="42.7984590" lon="-8.6369970">
        <ele>43.4</ele>
        <time>2021-05-23T14:31:39Z</time>
      </trkpt>
      <trkpt lat="42.7984810" lon="-8.6369840">
        <ele>43.5</ele>
        <time>2021-05-23T14:31:40Z</time>
      </trkpt>
      <trkpt lat="42.7984890" lon="-8.6369780">
        <ele>43.5</ele>
        <time>2021-05-23T14:31:41Z</time>
      </trkpt>
      <trkpt lat="42.7984980" lon="-8.6369730">
        <ele>43.5</ele>
        <time>2021-05-23T14:31:42Z</time>
      </trkpt>
      <trkpt lat="42.7985020" lon="-8.6369700">
        <ele>43.5</ele>
        <time>2021-05-23T14:31:43Z</time>
      </trkpt>
      <trkpt lat="42.7985100" lon="-8.6369630">
        <ele>43.5</ele>
        <time>2021-05-23T14:31:44Z</time>
      </trkpt>
      <trkpt lat="42.7985220" lon="-8.6369540">
        <ele>43.5</ele>
        <time>2021-05-23T14:31:45Z</time>
      </trkpt>
      <trkpt lat="42.7985270" lon="-8.6369490">
        <ele>43.5</ele>
        <time>2021-05-23T14:31:46Z</time>
      </trkpt>
      <trkpt lat="42.7985490" lon="-8.6369410">
        <ele>43.6</ele>
        <time>2021-05-23T14:31:47Z</time>
      </trkpt>
      <trkpt lat="42.7985590" lon="-8.6369300">
        <ele>43.6</ele>
        <time>2021-05-23T14:31:48Z</time>
      </trkpt>
      <trkpt lat="42.7985700" lon="-8.6369250">
        <ele>43.6</ele>
        <time>2021-05-23T14:31:49Z</time>
      </trkpt>
      <trkpt lat="42.7985740" lon="-8.6369150">
        <ele>43.7</ele>
        <time>2021-05-23T14:31:50Z</time>
      </trkpt>
      <trkpt lat="42.7985850" lon="-8.6369040">
        <ele>43.7</ele>
        <time>2021-05-23T14:31:51Z</time>
      </trkpt>
      <trkpt lat="42.7985990" lon="-8.6368980">
        <ele>43.7</ele>
        <time>2021-05-23T14:31:52Z</time>
      </trkpt>
      <trkpt lat="42.7986000" lon="-8.6368920">
        <ele>43.7</ele>
        <time>2021-05-23T14:31:53Z</time>
      </trkpt>
      <trkpt lat="42.7986070" lon="-8.6368850">
        <ele>43.7</ele>
        <time>2021-05-23T14:31:54Z</time>
      </trkpt>
      <trkpt lat="42.7986130" lon="-8.6368780">
        <ele>43.8</ele>
        <time>2021-05-23T14:31:55Z</time>
      </trkpt>
      <trkpt lat="42.7986200" lon="-8.6368710">
        <ele>43.8</ele>
        <time>2021-05-23T14:31:56Z</time>
      </trkpt>
      <trkpt lat="42.7986260" lon="-8.6368640">
        <ele>43.8</ele>
        <time>2021-05-23T14:31:57Z</time>
      </trkpt>
      <trkpt lat="42.7986350" lon="-8.6368580">
        <ele>43.8</ele>
        <time>2021-05-23T14:31:58Z</time>
      </trkpt>
      <trkpt lat="42.7986440" lon="-8.6368510">
        <ele>43.9</ele>
        <time>2021-05-23T14:31:59Z</time>
      </trkpt>
      <trkpt lat="42.7986530" lon="-8.6368400">
        <ele>43.9</ele>
        <time>2021-05-23T14:32:00Z</time>
      </trkpt>
      <trkpt lat="42.7986610" lon="-8.6368340">
        <ele>43.9</ele>
        <time>2021-05-23T14:32:01Z</time>
      </trkpt>
      <trkpt lat="42.7986740" lon="-8.6368260">
        <ele>43.9</ele>
        <time>2021-05-23T14:32:02Z</time>
      </trkpt>
      <trkpt lat="42.7986840" lon="-8.6368190">
        <ele>44.0</ele>
        <time>2021-05-23T14:32:03Z</time>
      </trkpt>
      <trkpt lat="42.7986950" lon="-8.6368080">
        <ele>44.0</ele>
        <time>2021-05-23T14:32:04Z</time>
      </trkpt>
      <trkpt lat="42.7987070" lon="-8.6367960">
        <ele>44.0</ele>
        <time>2021-05-23T14:32:05Z</time>
      </trkpt>
      <trkpt lat="42.7987300" lon="-8.6367920">
        <ele>44.1</ele>
        <time>2021-05-23T14:32:06Z</time>
      </trkpt>
      <trkpt lat="42.7987370" lon="-8.6367890">
        <ele>44.1</ele>
        <time>2021-05-23T14:32:07Z</time>
      </trkpt>
      <trkpt lat="42.7987440" lon="-8.6367850">
        <ele>44.2</ele>
        <time>2021-05-23T14:32:08Z</time>
      </trkpt>
      <trkpt lat="42.7987450" lon="-8.6367790">
        <ele>44.2</ele>
        <time>2021-05-23T14:32:09Z</time>
      </trkpt>
      <trkpt lat="42.7987550" lon="-8.6367740">
        <ele>44.2</ele>
        <time>2021-05-23T14:32:10Z</time>
      </trkpt>
      <trkpt lat="42.7987630" lon="-8.6367560">
        <ele>44.2</ele>
        <time>2021-05-23T14:32:11Z</time>
      </trkpt>
      <trkpt lat="42.7987900" lon="-8.6367420">
        <ele>44.3</ele>
        <time>2021-05-23T14:32:12Z</time>
      </trkpt>
      <trkpt lat="42.7988010" lon="-8.6367330">
        <ele>44.4</ele>
        <time>2021-05-23T14:32:13Z</time>
      </trkpt>
      <trkpt lat="42.7988210" lon="-8.6367270">
        <ele>44.4</ele>
        <time>2021-05-23T14:32:14Z</time>
      </trkpt>
      <trkpt lat="42.7988280" lon="-8.6367180">
        <ele>44.5</ele>
        <time>2021-05-23T14:32:15Z</time>
      </trkpt>
      <trkpt lat="42.7988360" lon="-8.6367090">
        <ele>44.5</ele>
        <time>2021-05-23T14:32:16Z</time>
      </trkpt>
      <trkpt lat="42.7988520" lon="-8.6366940">
        <ele>44.6</ele>
        <time>2021-05-23T14:32:17Z</time>
      </trkpt>
      <trkpt lat="42.7988570" lon="-8.6366850">
        <ele>44.6</ele>
        <time>2021-05-23T14:32:18Z</time>
      </trkpt>
      <trkpt lat="42.7988630" lon="-8.6366750">
        <ele>44.6</ele>
        <time>2021-05-23T14:32:19Z</time>
      </trkpt>
      <trkpt lat="42.7988740" lon="-8.6366590">
        <ele>44.7</ele>
        <time>2021-05-23T14:32:20Z</time>
      </trkpt>
      <trkpt lat="42.7988850" lon="-8.6366490">
        <ele>44.7</ele>
        <time>2021-05-23T14:32:21Z</time>
      </trkpt>
      <trkpt lat="42.7988980" lon="-8.6366370">
        <ele>44.8</ele>
        <time>2021-05-23T14:32:22Z</time>
      </trkpt>
      <trkpt lat="42.7989040" lon="-8.6366280">
        <ele>44.8</ele>
        <time>2021-05-23T14:32:23Z</time>
      </trkpt>
      <trkpt lat="42.7989130" lon="-8.6366230">
        <ele>44.8</ele>
        <time>2021-05-23T14:32:24Z</time>
      </trkpt>
      <trkpt lat="42.7989250" lon="-8.6365990">
        <ele>44.9</ele>
        <time>2021-05-23T14:32:25Z</time>
      </trkpt>
      <trkpt lat="42.7989300" lon="-8.6365890">
        <ele>44.9</ele>
        <time>2021-05-23T14:32:26Z</time>
      </trkpt>
      <trkpt lat="42.7989360" lon="-8.6365790">
        <ele>45.0</ele>
        <time>2021-05-23T14:32:27Z</time>
      </trkpt>
      <trkpt lat="42.7989450" lon="-8.6365840">
        <ele>45.0</ele>
        <time>2021-05-23T14:32:28Z</time>
      </trkpt>
      <trkpt lat="42.7989530" lon="-8.6365930">
        <ele>45.0</ele>
        <time>2021-05-23T14:32:29Z</time>
      </trkpt>
      <trkpt lat="42.7989640" lon="-8.6365930">
        <ele>45.1</ele>
        <time>2021-05-23T14:32:30Z</time>
      </trkpt>
      <trkpt lat="42.7989750" lon="-8.6365870">
        <ele>45.1</ele>
        <time>2021-05-23T14:32:31Z</time>
      </trkpt>
      <trkpt lat="42.7989840" lon="-8.6365850">
        <ele>45.2</ele>
        <time>2021-05-23T14:32:32Z</time>
      </trkpt>
      <trkpt lat="42.7989910" lon="-8.6365870">
        <ele>45.2</ele>
        <time>2021-05-23T14:32:33Z</time>
      </trkpt>
      <trkpt lat="42.7989880" lon="-8.6365920">
        <ele>45.2</ele>
        <time>2021-05-23T14:32:35Z</time>
      </trkpt>
      <trkpt lat="42.7989880" lon="-8.6366000">
        <ele>45.2</ele>
        <time>2021-05-23T14:32:36Z</time>
      </trkpt>
      <trkpt lat="42.7989890" lon="-8.6365970">
        <ele>45.2</ele>
        <time>2021-05-23T14:32:37Z</time>
      </trkpt>
      <trkpt lat="42.7989910" lon="-8.6365960">
        <ele>45.2</ele>
        <time>2021-05-23T14:32:38Z</time>
      </trkpt>
      <trkpt lat="42.7990010" lon="-8.6365920">
        <ele>45.3</ele>
        <time>2021-05-23T14:32:39Z</time>
      </trkpt>
      <trkpt lat="42.7990110" lon="-8.6365850">
        <ele>45.3</ele>
        <time>2021-05-23T14:32:40Z</time>
      </trkpt>
      <trkpt lat="42.7990170" lon="-8.6365810">
        <ele>45.3</ele>
        <time>2021-05-23T14:32:41Z</time>
      </trkpt>
      <trkpt lat="42.7990230" lon="-8.6365780">
        <ele>45.3</ele>
        <time>2021-05-23T14:32:42Z</time>
      </trkpt>
      <trkpt lat="42.7990320" lon="-8.6365700">
        <ele>45.4</ele>
        <time>2021-05-23T14:32:43Z</time>
      </trkpt>
      <trkpt lat="42.7990400" lon="-8.6365640">
        <ele>45.4</ele>
        <time>2021-05-23T14:32:44Z</time>
      </trkpt>
      <trkpt lat="42.7990510" lon="-8.6365570">
        <ele>45.5</ele>
        <time>2021-05-23T14:32:45Z</time>
      </trkpt>
      <trkpt lat="42.7990590" lon="-8.6365480">
        <ele>45.5</ele>
        <time>2021-05-23T14:32:46Z</time>
      </trkpt>
      <trkpt lat="42.7990670" lon="-8.6365440">
        <ele>45.5</ele>
        <time>2021-05-23T14:32:47Z</time>
      </trkpt>
      <trkpt lat="42.7990770" lon="-8.6365360">
        <ele>45.6</ele>
        <time>2021-05-23T14:32:48Z</time>
      </trkpt>
      <trkpt lat="42.7990860" lon="-8.6365310">
        <ele>45.6</ele>
        <time>2021-05-23T14:32:49Z</time>
      </trkpt>
      <trkpt lat="42.7990960" lon="-8.6365200">
        <ele>45.6</ele>
        <time>2021-05-23T14:32:50Z</time>
      </trkpt>
      <trkpt lat="42.7991050" lon="-8.6365120">
        <ele>45.7</ele>
        <time>2021-05-23T14:32:51Z</time>
      </trkpt>
      <trkpt lat="42.7991150" lon="-8.6365030">
        <ele>45.7</ele>
        <time>2021-05-23T14:32:52Z</time>
      </trkpt>
      <trkpt lat="42.7991230" lon="-8.6364950">
        <ele>45.7</ele>
        <time>2021-05-23T14:32:53Z</time>
      </trkpt>
      <trkpt lat="42.7991360" lon="-8.6364850">
        <ele>45.8</ele>
        <time>2021-05-23T14:32:54Z</time>
      </trkpt>
      <trkpt lat="42.7991580" lon="-8.6364720">
        <ele>45.9</ele>
        <time>2021-05-23T14:32:55Z</time>
      </trkpt>
      <trkpt lat="42.7991690" lon="-8.6364640">
        <ele>45.9</ele>
        <time>2021-05-23T14:32:56Z</time>
      </trkpt>
      <trkpt lat="42.7991810" lon="-8.6364570">
        <ele>46.0</ele>
        <time>2021-05-23T14:32:57Z</time>
      </trkpt>
      <trkpt lat="42.7991890" lon="-8.6364530">
        <ele>46.0</ele>
        <time>2021-05-23T14:32:58Z</time>
      </trkpt>
      <trkpt lat="42.7991980" lon="-8.6364430">
        <ele>46.0</ele>
        <time>2021-05-23T14:32:59Z</time>
      </trkpt>
      <trkpt lat="42.7992030" lon="-8.6364310">
        <ele>46.1</ele>
        <time>2021-05-23T14:33:00Z</time>
      </trkpt>
      <trkpt lat="42.7992070" lon="-8.6364210">
        <ele>46.1</ele>
        <time>2021-05-23T14:33:01Z</time>
      </trkpt>
      <trkpt lat="42.7992100" lon="-8.6364070">
        <ele>46.1</ele>
        <time>2021-05-23T14:33:02Z</time>
      </trkpt>
      <trkpt lat="42.7992140" lon="-8.6363810">
        <ele>46.3</ele>
        <time>2021-05-23T14:33:03Z</time>
      </trkpt>
      <trkpt lat="42.7992150" lon="-8.6363680">
        <ele>46.4</ele>
        <time>2021-05-23T14:33:04Z</time>
      </trkpt>
      <trkpt lat="42.7992150" lon="-8.6363550">
        <ele>46.4</ele>
        <time>2021-05-23T14:33:05Z</time>
      </trkpt>
      <trkpt lat="42.7992120" lon="-8.6363420">
        <ele>46.4</ele>
        <time>2021-05-23T14:33:06Z</time>
      </trkpt>
      <trkpt lat="42.7992030" lon="-8.6363260">
        <ele>46.5</ele>
        <time>2021-05-23T14:33:07Z</time>
      </trkpt>
      <trkpt lat="42.7992020" lon="-8.6363200">
        <ele>46.5</ele>
        <time>2021-05-23T14:33:08Z</time>
      </trkpt>
      <trkpt lat="42.7991960" lon="-8.6362990">
        <ele>46.6</ele>
        <time>2021-05-23T14:33:09Z</time>
      </trkpt>
      <trkpt lat="42.7991880" lon="-8.6362860">
        <ele>46.7</ele>
        <time>2021-05-23T14:33:10Z</time>
      </trkpt>
      <trkpt lat="42.7991830" lon="-8.6362700">
        <ele>46.7</ele>
        <time>2021-05-23T14:33:11Z</time>
      </trkpt>
      <trkpt lat="42.7991780" lon="-8.6362580">
        <ele>46.8</ele>
        <time>2021-05-23T14:33:12Z</time>
      </trkpt>
      <trkpt lat="42.7991690" lon="-8.6362460">
        <ele>46.8</ele>
        <time>2021-05-23T14:33:13Z</time>
      </trkpt>
      <trkpt lat="42.7991610" lon="-8.6362220">
        <ele>46.9</ele>
        <time>2021-05-23T14:33:14Z</time>
      </trkpt>
      <trkpt lat="42.7991580" lon="-8.6362100">
        <ele>47.0</ele>
        <time>2021-05-23T14:33:15Z</time>
      </trkpt>
      <trkpt lat="42.7991540" lon="-8.6361990">
        <ele>47.0</ele>
        <time>2021-05-23T14:33:16Z</time>
      </trkpt>
      <trkpt lat="42.7991460" lon="-8.6361790">
        <ele>47.1</ele>
        <time>2021-05-23T14:33:17Z</time>
      </trkpt>
      <trkpt lat="42.7991380" lon="-8.6361630">
        <ele>47.2</ele>
        <time>2021-05-23T14:33:18Z</time>
      </trkpt>
      <trkpt lat="42.7991350" lon="-8.6361570">
        <ele>47.2</ele>
        <time>2021-05-23T14:33:19Z</time>
      </trkpt>
      <trkpt lat="42.7991330" lon="-8.6361480">
        <ele>47.2</ele>
        <time>2021-05-23T14:33:20Z</time>
      </trkpt>
      <trkpt lat="42.7991260" lon="-8.6361350">
        <ele>47.3</ele>
        <time>2021-05-23T14:33:21Z</time>
      </trkpt>
      <trkpt lat="42.7991230" lon="-8.6361220">
        <ele>47.3</ele>
        <time>2021-05-23T14:33:22Z</time>
      </trkpt>
      <trkpt lat="42.7991130" lon="-8.6360980">
        <ele>47.4</ele>
        <time>2021-05-23T14:33:23Z</time>
      </trkpt>
      <trkpt lat="42.7991070" lon="-8.6360880">
        <ele>47.5</ele>
        <time>2021-05-23T14:33:24Z</time>
      </trkpt>
      <trkpt lat="42.7991010" lon="-8.6360770">
        <ele>47.5</ele>
        <time>2021-05-23T14:33:25Z</time>
      </trkpt>
      <trkpt lat="42.7991000" lon="-8.6360660">
        <ele>47.6</ele>
        <time>2021-05-23T14:33:26Z</time>
      </trkpt>
      <trkpt lat="42.7990960" lon="-8.6360510">
        <ele>47.6</ele>
        <time>2021-05-23T14:33:27Z</time>
      </trkpt>
      <trkpt lat="42.7990890" lon="-8.6360360">
        <ele>47.7</ele>
        <time>2021-05-23T14:33:28Z</time>
      </trkpt>
      <trkpt lat="42.7990750" lon="-8.6360120">
        <ele>47.8</ele>
        <time>2021-05-23T14:33:29Z</time>
      </trkpt>
      <trkpt lat="42.7990710" lon="-8.6360040">
        <ele>47.8</ele>
        <time>2021-05-23T14:33:30Z</time>
      </trkpt>
      <trkpt lat="42.7990660" lon="-8.6359960">
        <ele>47.8</ele>
        <time>2021-05-23T14:33:31Z</time>
      </trkpt>
      <trkpt lat="42.7990560" lon="-8.6359700">
        <ele>47.9</ele>
        <time>2021-05-23T14:33:32Z</time>
      </trkpt>
      <trkpt lat="42.7990530" lon="-8.6359630">
        <ele>48.0</ele>
        <time>2021-05-23T14:33:33Z</time>
      </trkpt>
      <trkpt lat="42.7990490" lon="-8.6359570">
        <ele>48.0</ele>
        <time>2021-05-23T14:33:34Z</time>
      </trkpt>
      <trkpt lat="42.7990460" lon="-8.6359500">
        <ele>48.0</ele>
        <time>2021-05-23T14:33:35Z</time>
      </trkpt>
      <trkpt lat="42.7990410" lon="-8.6359320">
        <ele>48.1</ele>
        <time>2021-05-23T14:33:36Z</time>
      </trkpt>
      <trkpt lat="42.7990330" lon="-8.6359130">
        <ele>48.2</ele>
        <time>2021-05-23T14:33:37Z</time>
      </trkpt>
      <trkpt lat="42.7990250" lon="-8.6358930">
        <ele>48.2</ele>
        <time>2021-05-23T14:33:38Z</time>
      </trkpt>
      <trkpt lat="42.7990150" lon="-8.6358770">
        <ele>48.3</ele>
        <time>2021-05-23T14:33:39Z</time>
      </trkpt>
      <trkpt lat="42.7990020" lon="-8.6358530">
        <ele>48.4</ele>
        <time>2021-05-23T14:33:40Z</time>
      </trkpt>
      <trkpt lat="42.7989980" lon="-8.6358420">
        <ele>48.4</ele>
        <time>2021-05-23T14:33:41Z</time>
      </trkpt>
      <trkpt lat="42.7989950" lon="-8.6358310">
        <ele>48.4</ele>
        <time>2021-05-23T14:33:42Z</time>
      </trkpt>
      <trkpt lat="42.7989890" lon="-8.6358200">
        <ele>48.5</ele>
        <time>2021-05-23T14:33:44Z</time>
      </trkpt>
      <trkpt lat="42.7989860" lon="-8.6358090">
        <ele>48.5</ele>
        <time>2021-05-23T14:33:45Z</time>
      </trkpt>
      <trkpt lat="42.7989800" lon="-8.6357930">
        <ele>48.6</ele>
        <time>2021-05-23T14:33:46Z</time>
      </trkpt>
      <trkpt lat="42.7989730" lon="-8.6357760">
        <ele>48.6</ele>
        <time>2021-05-23T14:33:47Z</time>
      </trkpt>
      <trkpt lat="42.7989660" lon="-8.6357540">
        <ele>48.7</ele>
        <time>2021-05-23T14:33:48Z</time>
      </trkpt>
      <trkpt lat="42.7989610" lon="-8.6357370">
        <ele>48.7</ele>
        <time>2021-05-23T14:33:49Z</time>
      </trkpt>
      <trkpt lat="42.7989610" lon="-8.6357260">
        <ele>48.8</ele>
        <time>2021-05-23T14:33:50Z</time>
      </trkpt>
      <trkpt lat="42.7989550" lon="-8.6357100">
        <ele>48.8</ele>
        <time>2021-05-23T14:33:51Z</time>
      </trkpt>
      <trkpt lat="42.7989520" lon="-8.6356920">
        <ele>48.8</ele>
        <time>2021-05-23T14:33:52Z</time>
      </trkpt>
      <trkpt lat="42.7989450" lon="-8.6356780">
        <ele>48.9</ele>
        <time>2021-05-23T14:33:53Z</time>
      </trkpt>
      <trkpt lat="42.7989430" lon="-8.6356690">
        <ele>48.9</ele>
        <time>2021-05-23T14:33:54Z</time>
      </trkpt>
      <trkpt lat="42.7989350" lon="-8.6356420">
        <ele>49.0</ele>
        <time>2021-05-23T14:33:55Z</time>
      </trkpt>
      <trkpt lat="42.7989340" lon="-8.6356300">
        <ele>49.0</ele>
        <time>2021-05-23T14:33:56Z</time>
      </trkpt>
      <trkpt lat="42.7989330" lon="-8.6356180">
        <ele>49.0</ele>
        <time>2021-05-23T14:33:57Z</time>
      </trkpt>
      <trkpt lat="42.7989360" lon="-8.6355890">
        <ele>49.1</ele>
        <time>2021-05-23T14:33:58Z</time>
      </trkpt>
      <trkpt lat="42.7989370" lon="-8.6355740">
        <ele>49.1</ele>
        <time>2021-05-23T14:33:59Z</time>
      </trkpt>
      <trkpt lat="42.7989370" lon="-8.6355590">
        <ele>49.1</ele>
        <time>2021-05-23T14:34:00Z</time>
      </trkpt>
      <trkpt lat="42.7989450" lon="-8.6355390">
        <ele>49.2</ele>
        <time>2021-05-23T14:34:01Z</time>
      </trkpt>
      <trkpt lat="42.7989490" lon="-8.6355160">
        <ele>49.2</ele>
        <time>2021-05-23T14:34:02Z</time>
      </trkpt>
      <trkpt lat="42.7989550" lon="-8.6354960">
        <ele>49.3</ele>
        <time>2021-05-23T14:34:03Z</time>
      </trkpt>
      <trkpt lat="42.7989570" lon="-8.6354740">
        <ele>49.3</ele>
        <time>2021-05-23T14:34:04Z</time>
      </trkpt>
      <trkpt lat="42.7989670" lon="-8.6354580">
        <ele>49.4</ele>
        <time>2021-05-23T14:34:05Z</time>
      </trkpt>
      <trkpt lat="42.7989700" lon="-8.6354440">
        <ele>49.4</ele>
        <time>2021-05-23T14:34:06Z</time>
      </trkpt>
      <trkpt lat="42.7989770" lon="-8.6354340">
        <ele>49.4</ele>
        <time>2021-05-23T14:34:07Z</time>
      </trkpt>
      <trkpt lat="42.7989860" lon="-8.6354240">
        <ele>49.5</ele>
        <time>2021-05-23T14:34:08Z</time>
      </trkpt>
      <trkpt lat="42.7989940" lon="-8.6354100">
        <ele>49.5</ele>
        <time>2021-05-23T14:34:09Z</time>
      </trkpt>
      <trkpt lat="42.7990000" lon="-8.6353970">
        <ele>49.6</ele>
        <time>2021-05-23T14:34:10Z</time>
      </trkpt>
      <trkpt lat="42.7990040" lon="-8.6353870">
        <ele>49.6</ele>
        <time>2021-05-23T14:34:11Z</time>
      </trkpt>
      <trkpt lat="42.7990100" lon="-8.6353690">
        <ele>49.7</ele>
        <time>2021-05-23T14:34:12Z</time>
      </trkpt>
      <trkpt lat="42.7990210" lon="-8.6353640">
        <ele>49.7</ele>
        <time>2021-05-23T14:34:13Z</time>
      </trkpt>
      <trkpt lat="42.7990290" lon="-8.6353500">
        <ele>49.8</ele>
        <time>2021-05-23T14:34:14Z</time>
      </trkpt>
      <trkpt lat="42.7990350" lon="-8.6353320">
        <ele>49.8</ele>
        <time>2021-05-23T14:34:15Z</time>
      </trkpt>
      <trkpt lat="42.7990480" lon="-8.6353100">
        <ele>49.9</ele>
        <time>2021-05-23T14:34:16Z</time>
      </trkpt>
      <trkpt lat="42.7990540" lon="-8.6353010">
        <ele>50.0</ele>
        <time>2021-05-23T14:34:17Z</time>
      </trkpt>
      <trkpt lat="42.7990590" lon="-8.6352920">
        <ele>50.0</ele>
        <time>2021-05-23T14:34:18Z</time>
      </trkpt>
      <trkpt lat="42.7990680" lon="-8.6352880">
        <ele>50.0</ele>
        <time>2021-05-23T14:34:19Z</time>
      </trkpt>
      <trkpt lat="42.7990790" lon="-8.6352740">
        <ele>50.1</ele>
        <time>2021-05-23T14:34:20Z</time>
      </trkpt>
      <trkpt lat="42.7990870" lon="-8.6352650">
        <ele>50.2</ele>
        <time>2021-05-23T14:34:21Z</time>
      </trkpt>
      <trkpt lat="42.7990960" lon="-8.6352480">
        <ele>50.3</ele>
        <time>2021-05-23T14:34:22Z</time>
      </trkpt>
      <trkpt lat="42.7991050" lon="-8.6352340">
        <ele>50.3</ele>
        <time>2021-05-23T14:34:23Z</time>
      </trkpt>
      <trkpt lat="42.7991110" lon="-8.6352210">
        <ele>50.4</ele>
        <time>2021-05-23T14:34:24Z</time>
      </trkpt>
      <trkpt lat="42.7991190" lon="-8.6352080">
        <ele>50.4</ele>
        <time>2021-05-23T14:34:25Z</time>
      </trkpt>
      <trkpt lat="42.7991260" lon="-8.6351970">
        <ele>50.5</ele>
        <time>2021-05-23T14:34:26Z</time>
      </trkpt>
      <trkpt lat="42.7991360" lon="-8.6351830">
        <ele>50.6</ele>
        <time>2021-05-23T14:34:27Z</time>
      </trkpt>
      <trkpt lat="42.7991410" lon="-8.6351680">
        <ele>50.6</ele>
        <time>2021-05-23T14:34:28Z</time>
      </trkpt>
      <trkpt lat="42.7991460" lon="-8.6351560">
        <ele>50.7</ele>
        <time>2021-05-23T14:34:29Z</time>
      </trkpt>
      <trkpt lat="42.7991520" lon="-8.6351420">
        <ele>50.8</ele>
        <time>2021-05-23T14:34:30Z</time>
      </trkpt>
      <trkpt lat="42.7991630" lon="-8.6351400">
        <ele>50.8</ele>
        <time>2021-05-23T14:34:31Z</time>
      </trkpt>
      <trkpt lat="42.7991670" lon="-8.6351210">
        <ele>50.9</ele>
        <time>2021-05-23T14:34:32Z</time>
      </trkpt>
      <trkpt lat="42.7991750" lon="-8.6351070">
        <ele>51.0</ele>
        <time>2021-05-23T14:34:33Z</time>
      </trkpt>
      <trkpt lat="42.7991820" lon="-8.6350990">
        <ele>51.1</ele>
        <time>2021-05-23T14:34:34Z</time>
      </trkpt>
      <trkpt lat="42.7991850" lon="-8.6350900">
        <ele>51.1</ele>
        <time>2021-05-23T14:34:35Z</time>
      </trkpt>
      <trkpt lat="42.7992030" lon="-8.6350780">
        <ele>51.2</ele>
        <time>2021-05-23T14:34:36Z</time>
      </trkpt>
      <trkpt lat="42.7992110" lon="-8.6350690">
        <ele>51.3</ele>
        <time>2021-05-23T14:34:37Z</time>
      </trkpt>
      <trkpt lat="42.7992190" lon="-8.6350610">
        <ele>51.3</ele>
        <time>2021-05-23T14:34:38Z</time>
      </trkpt>
      <trkpt lat="42.7992200" lon="-8.6350480">
        <ele>51.4</ele>
        <time>2021-05-23T14:34:39Z</time>
      </trkpt>
      <trkpt lat="42.7992210" lon="-8.6350300">
        <ele>51.5</ele>
        <time>2021-05-23T14:34:40Z</time>
      </trkpt>
      <trkpt lat="42.7992310" lon="-8.6350190">
        <ele>51.6</ele>
        <time>2021-05-23T14:34:41Z</time>
      </trkpt>
      <trkpt lat="42.7992450" lon="-8.6350020">
        <ele>51.7</ele>
        <time>2021-05-23T14:34:42Z</time>
      </trkpt>
      <trkpt lat="42.7992510" lon="-8.6349920">
        <ele>51.7</ele>
        <time>2021-05-23T14:34:43Z</time>
      </trkpt>
      <trkpt lat="42.7992570" lon="-8.6349820">
        <ele>51.8</ele>
        <time>2021-05-23T14:34:44Z</time>
      </trkpt>
      <trkpt lat="42.7992640" lon="-8.6349620">
        <ele>51.9</ele>
        <time>2021-05-23T14:34:45Z</time>
      </trkpt>
      <trkpt lat="42.7992760" lon="-8.6349460">
        <ele>52.0</ele>
        <time>2021-05-23T14:34:46Z</time>
      </trkpt>
      <trkpt lat="42.7992920" lon="-8.6349320">
        <ele>52.1</ele>
        <time>2021-05-23T14:34:47Z</time>
      </trkpt>
      <trkpt lat="42.7993050" lon="-8.6349240">
        <ele>52.2</ele>
        <time>2021-05-23T14:34:48Z</time>
      </trkpt>
      <trkpt lat="42.7993150" lon="-8.6349100">
        <ele>52.3</ele>
        <time>2021-05-23T14:34:49Z</time>
      </trkpt>
      <trkpt lat="42.7993190" lon="-8.6349010">
        <ele>52.3</ele>
        <time>2021-05-23T14:34:50Z</time>
      </trkpt>
      <trkpt lat="42.7993310" lon="-8.6348900">
        <ele>52.4</ele>
        <time>2021-05-23T14:34:51Z</time>
      </trkpt>
      <trkpt lat="42.7993410" lon="-8.6348780">
        <ele>52.5</ele>
        <time>2021-05-23T14:34:52Z</time>
      </trkpt>
      <trkpt lat="42.7993400" lon="-8.6348670">
        <ele>52.5</ele>
        <time>2021-05-23T14:34:53Z</time>
      </trkpt>
      <trkpt lat="42.7993450" lon="-8.6348540">
        <ele>52.6</ele>
        <time>2021-05-23T14:34:54Z</time>
      </trkpt>
      <trkpt lat="42.7993590" lon="-8.6348560">
        <ele>52.6</ele>
        <time>2021-05-23T14:34:55Z</time>
      </trkpt>
      <trkpt lat="42.7993740" lon="-8.6348460">
        <ele>52.7</ele>
        <time>2021-05-23T14:34:56Z</time>
      </trkpt>
      <trkpt lat="42.7993890" lon="-8.6348420">
        <ele>52.8</ele>
        <time>2021-05-23T14:34:57Z</time>
      </trkpt>
      <trkpt lat="42.7993960" lon="-8.6348360">
        <ele>52.8</ele>
        <time>2021-05-23T14:34:58Z</time>
      </trkpt>
      <trkpt lat="42.7994020" lon="-8.6348310">
        <ele>52.9</ele>
        <time>2021-05-23T14:34:59Z</time>
      </trkpt>
      <trkpt lat="42.7994080" lon="-8.6348250">
        <ele>52.9</ele>
        <time>2021-05-23T14:35:00Z</time>
      </trkpt>
      <trkpt lat="42.7994160" lon="-8.6348070">
        <ele>53.0</ele>
        <time>2021-05-23T14:35:01Z</time>
      </trkpt>
      <trkpt lat="42.7994220" lon="-8.6347890">
        <ele>53.1</ele>
        <time>2021-05-23T14:35:02Z</time>
      </trkpt>
      <trkpt lat="42.7994230" lon="-8.6347730">
        <ele>53.1</ele>
        <time>2021-05-23T14:35:03Z</time>
      </trkpt>
      <trkpt lat="42.7994220" lon="-8.6347630">
        <ele>53.2</ele>
        <time>2021-05-23T14:35:04Z</time>
      </trkpt>
      <trkpt lat="42.7994180" lon="-8.6347570">
        <ele>53.2</ele>
        <time>2021-05-23T14:35:05Z</time>
      </trkpt>
      <trkpt lat="42.7994230" lon="-8.6347420">
        <ele>53.3</ele>
        <time>2021-05-23T14:35:06Z</time>
      </trkpt>
      <trkpt lat="42.7994280" lon="-8.6347240">
        <ele>53.3</ele>
        <time>2021-05-23T14:35:07Z</time>
      </trkpt>
      <trkpt lat="42.7994290" lon="-8.6346960">
        <ele>53.4</ele>
        <time>2021-05-23T14:35:08Z</time>
      </trkpt>
      <trkpt lat="42.7994420" lon="-8.6346690">
        <ele>53.5</ele>
        <time>2021-05-23T14:35:09Z</time>
      </trkpt>
      <trkpt lat="42.7994510" lon="-8.6346610">
        <ele>53.6</ele>
        <time>2021-05-23T14:35:10Z</time>
      </trkpt>
      <trkpt lat="42.7994590" lon="-8.6346520">
        <ele>53.6</ele>
        <time>2021-05-23T14:35:11Z</time>
      </trkpt>
      <trkpt lat="42.7994570" lon="-8.6346430">
        <ele>53.7</ele>
        <time>2021-05-23T14:35:12Z</time>
      </trkpt>
      <trkpt lat="42.7994550" lon="-8.6346290">
        <ele>53.7</ele>
        <time>2021-05-23T14:35:13Z</time>
      </trkpt>
      <trkpt lat="42.7994550" lon="-8.6346210">
        <ele>53.7</ele>
        <time>2021-05-23T14:35:14Z</time>
      </trkpt>
      <trkpt lat="42.7994580" lon="-8.6346160">
        <ele>53.8</ele>
        <time>2021-05-23T14:35:15Z</time>
      </trkpt>
      <trkpt lat="42.7994610" lon="-8.6346020">
        <ele>53.8</ele>
        <time>2021-05-23T14:35:16Z</time>
      </trkpt>
      <trkpt lat="42.7994660" lon="-8.6345940">
        <ele>53.8</ele>
        <time>2021-05-23T14:35:17Z</time>
      </trkpt>
      <trkpt lat="42.7994770" lon="-8.6345770">
        <ele>53.9</ele>
        <time>2021-05-23T14:35:18Z</time>
      </trkpt>
      <trkpt lat="42.7994820" lon="-8.6345660">
        <ele>54.0</ele>
        <time>2021-05-23T14:35:19Z</time>
      </trkpt>
      <trkpt lat="42.7994990" lon="-8.6345620">
        <ele>54.1</ele>
        <time>2021-05-23T14:35:20Z</time>
      </trkpt>
      <trkpt lat="42.7995120" lon="-8.6345520">
        <ele>54.1</ele>
        <time>2021-05-23T14:35:21Z</time>
      </trkpt>
      <trkpt lat="42.7995220" lon="-8.6345430">
        <ele>54.2</ele>
        <time>2021-05-23T14:35:22Z</time>
      </trkpt>
      <trkpt lat="42.7995260" lon="-8.6345340">
        <ele>54.3</ele>
        <time>2021-05-23T14:35:23Z</time>
      </trkpt>
      <trkpt lat="42.7995330" lon="-8.6345310">
        <ele>54.3</ele>
        <time>2021-05-23T14:35:24Z</time>
      </trkpt>
      <trkpt lat="42.7995380" lon="-8.6345270">
        <ele>54.3</ele>
        <time>2021-05-23T14:35:25Z</time>
      </trkpt>
      <trkpt lat="42.7995510" lon="-8.6345260">
        <ele>54.4</ele>
        <time>2021-05-23T14:35:26Z</time>
      </trkpt>
      <trkpt lat="42.7995610" lon="-8.6345190">
        <ele>54.5</ele>
        <time>2021-05-23T14:35:27Z</time>
      </trkpt>
      <trkpt lat="42.7995700" lon="-8.6345190">
        <ele>54.5</ele>
        <time>2021-05-23T14:35:28Z</time>
      </trkpt>
      <trkpt lat="42.7995970" lon="-8.6345160">
        <ele>55.5</ele>
        <time>2021-05-23T14:35:29Z</time>
      </trkpt>
      <trkpt lat="42.7996130" lon="-8.6345120">
        <ele>55.5</ele>
        <time>2021-05-23T14:35:30Z</time>
      </trkpt>
      <trkpt lat="42.7996280" lon="-8.6345010">
        <ele>55.6</ele>
        <time>2021-05-23T14:35:31Z</time>
      </trkpt>
      <trkpt lat="42.7996400" lon="-8.6344960">
        <ele>55.6</ele>
        <time>2021-05-23T14:35:32Z</time>
      </trkpt>
      <trkpt lat="42.7996480" lon="-8.6344970">
        <ele>55.6</ele>
        <time>2021-05-23T14:35:33Z</time>
      </trkpt>
      <trkpt lat="42.7996470" lon="-8.6344960">
        <ele>55.6</ele>
        <time>2021-05-23T14:35:34Z</time>
      </trkpt>
      <trkpt lat="42.7996550" lon="-8.6345130">
        <ele>55.6</ele>
        <time>2021-05-23T14:35:35Z</time>
      </trkpt>
      <trkpt lat="42.7996680" lon="-8.6345350">
        <ele>55.7</ele>
        <time>2021-05-23T14:35:36Z</time>
      </trkpt>
      <trkpt lat="42.7996650" lon="-8.6345430">
        <ele>55.7</ele>
        <time>2021-05-23T14:35:37Z</time>
      </trkpt>
      <trkpt lat="42.7996650" lon="-8.6345510">
        <ele>55.7</ele>
        <time>2021-05-23T14:35:38Z</time>
      </trkpt>
      <trkpt lat="42.7996650" lon="-8.6345660">
        <ele>55.7</ele>
        <time>2021-05-23T14:35:39Z</time>
      </trkpt>
      <trkpt lat="42.7996630" lon="-8.6345770">
        <ele>55.7</ele>
        <time>2021-05-23T14:35:40Z</time>
      </trkpt>
      <trkpt lat="42.7996580" lon="-8.6345990">
        <ele>55.8</ele>
        <time>2021-05-23T14:35:41Z</time>
      </trkpt>
      <trkpt lat="42.7996510" lon="-8.6346100">
        <ele>55.8</ele>
        <time>2021-05-23T14:35:42Z</time>
      </trkpt>
      <trkpt lat="42.7996460" lon="-8.6346190">
        <ele>55.8</ele>
        <time>2021-05-23T14:35:43Z</time>
      </trkpt>
      <trkpt lat="42.7996390" lon="-8.6346350">
        <ele>55.8</ele>
        <time>2021-05-23T14:35:44Z</time>
      </trkpt>
      <trkpt lat="42.7996280" lon="-8.6346560">
        <ele>55.8</ele>
        <time>2021-05-23T14:35:45Z</time>
      </trkpt>
      <trkpt lat="42.7996220" lon="-8.6346710">
        <ele>55.8</ele>
        <time>2021-05-23T14:35:46Z</time>
      </trkpt>
      <trkpt lat="42.7996350" lon="-8.6346940">
        <ele>55.8</ele>
        <time>2021-05-23T14:35:47Z</time>
      </trkpt>
      <trkpt lat="42.7996410" lon="-8.6347040">
        <ele>55.8</ele>
        <time>2021-05-23T14:35:48Z</time>
      </trkpt>
      <trkpt lat="42.7996480" lon="-8.6347150">
        <ele>55.8</ele>
        <time>2021-05-23T14:35:49Z</time>
      </trkpt>
      <trkpt lat="42.7996510" lon="-8.6347240">
        <ele>55.8</ele>
        <time>2021-05-23T14:35:50Z</time>
      </trkpt>
      <trkpt lat="42.7996610" lon="-8.6347380">
        <ele>55.8</ele>
        <time>2021-05-23T14:35:51Z</time>
      </trkpt>
      <trkpt lat="42.7996660" lon="-8.6347430">
        <ele>55.8</ele>
        <time>2021-05-23T14:35:52Z</time>
      </trkpt>
      <trkpt lat="42.7996720" lon="-8.6347530">
        <ele>55.8</ele>
        <time>2021-05-23T14:35:53Z</time>
      </trkpt>
      <trkpt lat="42.7996790" lon="-8.6347610">
        <ele>55.8</ele>
        <time>2021-05-23T14:35:54Z</time>
      </trkpt>
      <trkpt lat="42.7996900" lon="-8.6347700">
        <ele>55.8</ele>
        <time>2021-05-23T14:35:55Z</time>
      </trkpt>
      <trkpt lat="42.7997060" lon="-8.6347890">
        <ele>55.8</ele>
        <time>2021-05-23T14:35:56Z</time>
      </trkpt>
      <trkpt lat="42.7997110" lon="-8.6347980">
        <ele>55.8</ele>
        <time>2021-05-23T14:35:57Z</time>
      </trkpt>
      <trkpt lat="42.7997160" lon="-8.6348060">
        <ele>55.8</ele>
        <time>2021-05-23T14:35:58Z</time>
      </trkpt>
      <trkpt lat="42.7997270" lon="-8.6348150">
        <ele>55.8</ele>
        <time>2021-05-23T14:35:59Z</time>
      </trkpt>
      <trkpt lat="42.7997340" lon="-8.6348240">
        <ele>55.8</ele>
        <time>2021-05-23T14:36:00Z</time>
      </trkpt>
      <trkpt lat="42.7997390" lon="-8.6348300">
        <ele>55.8</ele>
        <time>2021-05-23T14:36:01Z</time>
      </trkpt>
      <trkpt lat="42.7997610" lon="-8.6348600">
        <ele>55.8</ele>
        <time>2021-05-23T14:36:02Z</time>
      </trkpt>
      <trkpt lat="42.7997680" lon="-8.6348690">
        <ele>55.8</ele>
        <time>2021-05-23T14:36:03Z</time>
      </trkpt>
      <trkpt lat="42.7997810" lon="-8.6348830">
        <ele>55.8</ele>
        <time>2021-05-23T14:36:04Z</time>
      </trkpt>
      <trkpt lat="42.7997900" lon="-8.6348820">
        <ele>55.7</ele>
        <time>2021-05-23T14:36:05Z</time>
      </trkpt>
      <trkpt lat="42.7997940" lon="-8.6348900">
        <ele>55.7</ele>
        <time>2021-05-23T14:36:06Z</time>
      </trkpt>
      <trkpt lat="42.7998040" lon="-8.6348970">
        <ele>55.7</ele>
        <time>2021-05-23T14:36:07Z</time>
      </trkpt>
      <trkpt lat="42.7998070" lon="-8.6348960">
        <ele>55.7</ele>
        <time>2021-05-23T14:36:08Z</time>
      </trkpt>
      <trkpt lat="42.7998110" lon="-8.6349030">
        <ele>55.7</ele>
        <time>2021-05-23T14:36:09Z</time>
      </trkpt>
      <trkpt lat="42.7998140" lon="-8.6349060">
        <ele>55.7</ele>
        <time>2021-05-23T14:36:10Z</time>
      </trkpt>
      <trkpt lat="42.7998140" lon="-8.6349100">
        <ele>55.7</ele>
        <time>2021-05-23T14:36:11Z</time>
      </trkpt>
      <trkpt lat="42.7998140" lon="-8.6349120">
        <ele>55.7</ele>
        <time>2021-05-23T14:36:12Z</time>
      </trkpt>
      <trkpt lat="42.7998150" lon="-8.6349130">
        <ele>55.7</ele>
        <time>2021-05-23T14:36:13Z</time>
      </trkpt>
      <trkpt lat="42.7998140" lon="-8.6349130">
        <ele>55.7</ele>
        <time>2021-05-23T14:36:14Z</time>
      </trkpt>
      <trkpt lat="42.7998120" lon="-8.6349130">
        <ele>55.7</ele>
        <time>2021-05-23T14:36:15Z</time>
      </trkpt>
      <trkpt lat="42.7998130" lon="-8.6349200">
        <ele>55.7</ele>
        <time>2021-05-23T14:36:16Z</time>
      </trkpt>
      <trkpt lat="42.7998140" lon="-8.6349320">
        <ele>55.7</ele>
        <time>2021-05-23T14:36:17Z</time>
      </trkpt>
      <trkpt lat="42.7998150" lon="-8.6349360">
        <ele>55.7</ele>
        <time>2021-05-23T14:36:18Z</time>
      </trkpt>
      <trkpt lat="42.7998140" lon="-8.6349290">
        <ele>55.7</ele>
        <time>2021-05-23T14:36:19Z</time>
      </trkpt>
      <trkpt lat="42.7998160" lon="-8.6349300">
        <ele>55.7</ele>
        <time>2021-05-23T14:36:20Z</time>
      </trkpt>
      <trkpt lat="42.7998160" lon="-8.6349270">
        <ele>55.7</ele>
        <time>2021-05-23T14:36:21Z</time>
      </trkpt>
      <trkpt lat="42.7998180" lon="-8.6349270">
        <ele>55.7</ele>
        <time>2021-05-23T14:36:22Z</time>
      </trkpt>
      <trkpt lat="42.7998170" lon="-8.6349260">
        <ele>55.7</ele>
        <time>2021-05-23T14:36:23Z</time>
      </trkpt>
      <trkpt lat="42.7998160" lon="-8.6349240">
        <ele>55.7</ele>
        <time>2021-05-23T14:36:24Z</time>
      </trkpt>
      <trkpt lat="42.7998150" lon="-8.6349240">
        <ele>55.7</ele>
        <time>2021-05-23T14:36:25Z</time>
      </trkpt>
      <trkpt lat="42.7998160" lon="-8.6349260">
        <ele>55.7</ele>
        <time>2021-05-23T14:36:26Z</time>
      </trkpt>
      <trkpt lat="42.7998170" lon="-8.6349270">
        <ele>55.7</ele>
        <time>2021-05-23T14:36:27Z</time>
      </trkpt>
      <trkpt lat="42.7998160" lon="-8.6349270">
        <ele>55.7</ele>
        <time>2021-05-23T14:36:28Z</time>
      </trkpt>
      <trkpt lat="42.7998160" lon="-8.6349280">
        <ele>55.7</ele>
        <time>2021-05-23T14:36:29Z</time>
      </trkpt>
      <trkpt lat="42.7998190" lon="-8.6349320">
        <ele>55.7</ele>
        <time>2021-05-23T14:36:30Z</time>
      </trkpt>
      <trkpt lat="42.7998280" lon="-8.6349480">
        <ele>55.7</ele>
        <time>2021-05-23T14:36:31Z</time>
      </trkpt>
      <trkpt lat="42.7998260" lon="-8.6349510">
        <ele>55.7</ele>
        <time>2021-05-23T14:36:32Z</time>
      </trkpt>
      <trkpt lat="42.7998280" lon="-8.6349610">
        <ele>55.7</ele>
        <time>2021-05-23T14:36:33Z</time>
      </trkpt>
      <trkpt lat="42.7998360" lon="-8.6349720">
        <ele>55.7</ele>
        <time>2021-05-23T14:36:34Z</time>
      </trkpt>
      <trkpt lat="42.7998450" lon="-8.6349860">
        <ele>55.7</ele>
        <time>2021-05-23T14:36:35Z</time>
      </trkpt>
      <trkpt lat="42.7998490" lon="-8.6349990">
        <ele>55.7</ele>
        <time>2021-05-23T14:36:36Z</time>
      </trkpt>
      <trkpt lat="42.7998630" lon="-8.6350240">
        <ele>55.7</ele>
        <time>2021-05-23T14:36:37Z</time>
      </trkpt>
      <trkpt lat="42.7998680" lon="-8.6350310">
        <ele>55.7</ele>
        <time>2021-05-23T14:36:38Z</time>
      </trkpt>
      <trkpt lat="42.7998730" lon="-8.6350390">
        <ele>55.6</ele>
        <time>2021-05-23T14:36:39Z</time>
      </trkpt>
      <trkpt lat="42.7998840" lon="-8.6350650">
        <ele>55.6</ele>
        <time>2021-05-23T14:36:40Z</time>
      </trkpt>
      <trkpt lat="42.7998900" lon="-8.6350790">
        <ele>55.6</ele>
        <time>2021-05-23T14:36:41Z</time>
      </trkpt>
      <trkpt lat="42.7998960" lon="-8.6350930">
        <ele>55.6</ele>
        <time>2021-05-23T14:36:42Z</time>
      </trkpt>
      <trkpt lat="42.7999060" lon="-8.6350930">
        <ele>55.6</ele>
        <time>2021-05-23T14:36:43Z</time>
      </trkpt>
      <trkpt lat="42.7999150" lon="-8.6350990">
        <ele>55.6</ele>
        <time>2021-05-23T14:36:44Z</time>
      </trkpt>
      <trkpt lat="42.7999230" lon="-8.6351040">
        <ele>55.6</ele>
        <time>2021-05-23T14:36:45Z</time>
      </trkpt>
      <trkpt lat="42.7999380" lon="-8.6351270">
        <ele>55.6</ele>
        <time>2021-05-23T14:36:46Z</time>
      </trkpt>
      <trkpt lat="42.7999480" lon="-8.6351390">
        <ele>55.6</ele>
        <time>2021-05-23T14:36:47Z</time>
      </trkpt>
      <trkpt lat="42.7999570" lon="-8.6351510">
        <ele>55.6</ele>
        <time>2021-05-23T14:36:48Z</time>
      </trkpt>
      <trkpt lat="42.7999660" lon="-8.6351570">
        <ele>55.6</ele>
        <time>2021-05-23T14:36:49Z</time>
      </trkpt>
      <trkpt lat="42.7999720" lon="-8.6351630">
        <ele>55.5</ele>
        <time>2021-05-23T14:36:50Z</time>
      </trkpt>
      <trkpt lat="42.7999760" lon="-8.6351710">
        <ele>55.5</ele>
        <time>2021-05-23T14:36:51Z</time>
      </trkpt>
      <trkpt lat="42.7999810" lon="-8.6351820">
        <ele>55.5</ele>
        <time>2021-05-23T14:36:52Z</time>
      </trkpt>
      <trkpt lat="42.7999880" lon="-8.6351880">
        <ele>55.5</ele>
        <time>2021-05-23T14:36:53Z</time>
      </trkpt>
      <trkpt lat="42.7999880" lon="-8.6351950">
        <ele>55.5</ele>
        <time>2021-05-23T14:36:54Z</time>
      </trkpt>
      <trkpt lat="42.8000020" lon="-8.6352150">
        <ele>55.5</ele>
        <time>2021-05-23T14:36:55Z</time>
      </trkpt>
      <trkpt lat="42.8000120" lon="-8.6352330">
        <ele>55.5</ele>
        <time>2021-05-23T14:36:56Z</time>
      </trkpt>
      <trkpt lat="42.8000210" lon="-8.6352490">
        <ele>55.5</ele>
        <time>2021-05-23T14:36:57Z</time>
      </trkpt>
      <trkpt lat="42.8000330" lon="-8.6352690">
        <ele>55.5</ele>
        <time>2021-05-23T14:36:58Z</time>
      </trkpt>
      <trkpt lat="42.8000420" lon="-8.6352830">
        <ele>55.5</ele>
        <time>2021-05-23T14:36:59Z</time>
      </trkpt>
      <trkpt lat="42.8000410" lon="-8.6353150">
        <ele>55.4</ele>
        <time>2021-05-23T14:37:00Z</time>
      </trkpt>
      <trkpt lat="42.8000440" lon="-8.6353250">
        <ele>55.4</ele>
        <time>2021-05-23T14:37:01Z</time>
      </trkpt>
      <trkpt lat="42.8000480" lon="-8.6353360">
        <ele>55.4</ele>
        <time>2021-05-23T14:37:02Z</time>
      </trkpt>
      <trkpt lat="42.8000580" lon="-8.6353590">
        <ele>55.4</ele>
        <time>2021-05-23T14:37:03Z</time>
      </trkpt>
      <trkpt lat="42.8000610" lon="-8.6353710">
        <ele>55.4</ele>
        <time>2021-05-23T14:37:04Z</time>
      </trkpt>
      <trkpt lat="42.8000630" lon="-8.6353830">
        <ele>55.4</ele>
        <time>2021-05-23T14:37:05Z</time>
      </trkpt>
      <trkpt lat="42.8000770" lon="-8.6354050">
        <ele>55.4</ele>
        <time>2021-05-23T14:37:06Z</time>
      </trkpt>
      <trkpt lat="42.8000830" lon="-8.6354140">
        <ele>55.4</ele>
        <time>2021-05-23T14:37:07Z</time>
      </trkpt>
      <trkpt lat="42.8000890" lon="-8.6354240">
        <ele>55.4</ele>
        <time>2021-05-23T14:37:08Z</time>
      </trkpt>
      <trkpt lat="42.8001000" lon="-8.6354470">
        <ele>55.4</ele>
        <time>2021-05-23T14:37:09Z</time>
      </trkpt>
      <trkpt lat="42.8001040" lon="-8.6354610">
        <ele>55.4</ele>
        <time>2021-05-23T14:37:10Z</time>
      </trkpt>
      <trkpt lat="42.8001080" lon="-8.6354740">
        <ele>55.3</ele>
        <time>2021-05-23T14:37:11Z</time>
      </trkpt>
      <trkpt lat="42.8001140" lon="-8.6354870">
        <ele>55.3</ele>
        <time>2021-05-23T14:37:12Z</time>
      </trkpt>
      <trkpt lat="42.8001140" lon="-8.6354970">
        <ele>55.3</ele>
        <time>2021-05-23T14:37:13Z</time>
      </trkpt>
      <trkpt lat="42.8001190" lon="-8.6355180">
        <ele>55.3</ele>
        <time>2021-05-23T14:37:14Z</time>
      </trkpt>
      <trkpt lat="42.8001240" lon="-8.6355430">
        <ele>55.3</ele>
        <time>2021-05-23T14:37:15Z</time>
      </trkpt>
      <trkpt lat="42.8001280" lon="-8.6355540">
        <ele>55.3</ele>
        <time>2021-05-23T14:37:16Z</time>
      </trkpt>
      <trkpt lat="42.8001320" lon="-8.6355640">
        <ele>55.3</ele>
        <time>2021-05-23T14:37:17Z</time>
      </trkpt>
      <trkpt lat="42.8001400" lon="-8.6355840">
        <ele>55.3</ele>
        <time>2021-05-23T14:37:18Z</time>
      </trkpt>
      <trkpt lat="42.8001440" lon="-8.6356030">
        <ele>55.3</ele>
        <time>2021-05-23T14:37:19Z</time>
      </trkpt>
      <trkpt lat="42.8001480" lon="-8.6356190">
        <ele>55.3</ele>
        <time>2021-05-23T14:37:20Z</time>
      </trkpt>
      <trkpt lat="42.8001570" lon="-8.6356410">
        <ele>55.3</ele>
        <time>2021-05-23T14:37:21Z</time>
      </trkpt>
      <trkpt lat="42.8001640" lon="-8.6356730">
        <ele>55.3</ele>
        <time>2021-05-23T14:37:22Z</time>
      </trkpt>
      <trkpt lat="42.8001650" lon="-8.6356830">
        <ele>55.3</ele>
        <time>2021-05-23T14:37:23Z</time>
      </trkpt>
      <trkpt lat="42.8001660" lon="-8.6356930">
        <ele>55.3</ele>
        <time>2021-05-23T14:37:24Z</time>
      </trkpt>
      <trkpt lat="42.8001710" lon="-8.6357100">
        <ele>55.3</ele>
        <time>2021-05-23T14:37:25Z</time>
      </trkpt>
      <trkpt lat="42.8001750" lon="-8.6357380">
        <ele>55.3</ele>
        <time>2021-05-23T14:37:26Z</time>
      </trkpt>
      <trkpt lat="42.8001750" lon="-8.6357540">
        <ele>55.3</ele>
        <time>2021-05-23T14:37:27Z</time>
      </trkpt>
      <trkpt lat="42.8001820" lon="-8.6357610">
        <ele>55.3</ele>
        <time>2021-05-23T14:37:28Z</time>
      </trkpt>
      <trkpt lat="42.8001900" lon="-8.6357800">
        <ele>55.3</ele>
        <time>2021-05-23T14:37:29Z</time>
      </trkpt>
      <trkpt lat="42.8001950" lon="-8.6358090">
        <ele>55.3</ele>
        <time>2021-05-23T14:37:30Z</time>
      </trkpt>
      <trkpt lat="42.8002040" lon="-8.6358250">
        <ele>55.3</ele>
        <time>2021-05-23T14:37:31Z</time>
      </trkpt>
      <trkpt lat="42.8002150" lon="-8.6358470">
        <ele>55.3</ele>
        <time>2021-05-23T14:37:32Z</time>
      </trkpt>
      <trkpt lat="42.8002200" lon="-8.6358570">
        <ele>55.3</ele>
        <time>2021-05-23T14:37:33Z</time>
      </trkpt>
      <trkpt lat="42.8002260" lon="-8.6358680">
        <ele>55.3</ele>
        <time>2021-05-23T14:37:34Z</time>
      </trkpt>
      <trkpt lat="42.8002340" lon="-8.6358830">
        <ele>55.3</ele>
        <time>2021-05-23T14:37:35Z</time>
      </trkpt>
      <trkpt lat="42.8002360" lon="-8.6358950">
        <ele>55.3</ele>
        <time>2021-05-23T14:37:36Z</time>
      </trkpt>
      <trkpt lat="42.8002400" lon="-8.6359080">
        <ele>55.3</ele>
        <time>2021-05-23T14:37:37Z</time>
      </trkpt>
      <trkpt lat="42.8002590" lon="-8.6359370">
        <ele>55.3</ele>
        <time>2021-05-23T14:37:38Z</time>
      </trkpt>
      <trkpt lat="42.8002650" lon="-8.6359480">
        <ele>55.3</ele>
        <time>2021-05-23T14:37:39Z</time>
      </trkpt>
      <trkpt lat="42.8002880" lon="-8.6359730">
        <ele>55.3</ele>
        <time>2021-05-23T14:37:40Z</time>
      </trkpt>
      <trkpt lat="42.8002950" lon="-8.6359890">
        <ele>55.3</ele>
        <time>2021-05-23T14:37:41Z</time>
      </trkpt>
      <trkpt lat="42.8003090" lon="-8.6360010">
        <ele>55.3</ele>
        <time>2021-05-23T14:37:42Z</time>
      </trkpt>
      <trkpt lat="42.8003210" lon="-8.6360170">
        <ele>55.2</ele>
        <time>2021-05-23T14:37:43Z</time>
      </trkpt>
      <trkpt lat="42.8003320" lon="-8.6360320">
        <ele>55.2</ele>
        <time>2021-05-23T14:37:44Z</time>
      </trkpt>
      <trkpt lat="42.8003410" lon="-8.6360460">
        <ele>55.2</ele>
        <time>2021-05-23T14:37:45Z</time>
      </trkpt>
      <trkpt lat="42.8003560" lon="-8.6360680">
        <ele>55.2</ele>
        <time>2021-05-23T14:37:46Z</time>
      </trkpt>
      <trkpt lat="42.8003620" lon="-8.6360790">
        <ele>55.2</ele>
        <time>2021-05-23T14:37:47Z</time>
      </trkpt>
      <trkpt lat="42.8003670" lon="-8.6360910">
        <ele>55.1</ele>
        <time>2021-05-23T14:37:48Z</time>
      </trkpt>
      <trkpt lat="42.8003750" lon="-8.6361090">
        <ele>55.1</ele>
        <time>2021-05-23T14:37:49Z</time>
      </trkpt>
      <trkpt lat="42.8003850" lon="-8.6361240">
        <ele>55.1</ele>
        <time>2021-05-23T14:37:50Z</time>
      </trkpt>
      <trkpt lat="42.8003930" lon="-8.6361340">
        <ele>55.1</ele>
        <time>2021-05-23T14:37:51Z</time>
      </trkpt>
      <trkpt lat="42.8004010" lon="-8.6361420">
        <ele>55.1</ele>
        <time>2021-05-23T14:37:52Z</time>
      </trkpt>
      <trkpt lat="42.8004110" lon="-8.6361520">
        <ele>55.0</ele>
        <time>2021-05-23T14:37:53Z</time>
      </trkpt>
      <trkpt lat="42.8004150" lon="-8.6361610">
        <ele>55.0</ele>
        <time>2021-05-23T14:37:54Z</time>
      </trkpt>
      <trkpt lat="42.8004230" lon="-8.6361750">
        <ele>55.0</ele>
        <time>2021-05-23T14:37:55Z</time>
      </trkpt>
      <trkpt lat="42.8004370" lon="-8.6361840">
        <ele>55.0</ele>
        <time>2021-05-23T14:37:56Z</time>
      </trkpt>
      <trkpt lat="42.8004550" lon="-8.6361940">
        <ele>54.9</ele>
        <time>2021-05-23T14:37:57Z</time>
      </trkpt>
      <trkpt lat="42.8004640" lon="-8.6362000">
        <ele>54.9</ele>
        <time>2021-05-23T14:37:58Z</time>
      </trkpt>
      <trkpt lat="42.8004730" lon="-8.6362050">
        <ele>54.9</ele>
        <time>2021-05-23T14:37:59Z</time>
      </trkpt>
      <trkpt lat="42.8004920" lon="-8.6362200">
        <ele>54.8</ele>
        <time>2021-05-23T14:38:00Z</time>
      </trkpt>
      <trkpt lat="42.8004960" lon="-8.6362280">
        <ele>54.8</ele>
        <time>2021-05-23T14:38:01Z</time>
      </trkpt>
      <trkpt lat="42.8005190" lon="-8.6362360">
        <ele>54.7</ele>
        <time>2021-05-23T14:38:02Z</time>
      </trkpt>
      <trkpt lat="42.8005270" lon="-8.6362410">
        <ele>54.7</ele>
        <time>2021-05-23T14:38:03Z</time>
      </trkpt>
      <trkpt lat="42.8005350" lon="-8.6362460">
        <ele>54.7</ele>
        <time>2021-05-23T14:38:04Z</time>
      </trkpt>
      <trkpt lat="42.8005550" lon="-8.6362610">
        <ele>54.6</ele>
        <time>2021-05-23T14:38:05Z</time>
      </trkpt>
      <trkpt lat="42.8005650" lon="-8.6362680">
        <ele>54.6</ele>
        <time>2021-05-23T14:38:06Z</time>
      </trkpt>
      <trkpt lat="42.8005740" lon="-8.6362750">
        <ele>54.6</ele>
        <time>2021-05-23T14:38:07Z</time>
      </trkpt>
      <trkpt lat="42.8005880" lon="-8.6362850">
        <ele>54.5</ele>
        <time>2021-05-23T14:38:08Z</time>
      </trkpt>
      <trkpt lat="42.8006000" lon="-8.6362920">
        <ele>54.5</ele>
        <time>2021-05-23T14:38:09Z</time>
      </trkpt>
      <trkpt lat="42.8006010" lon="-8.6362930">
        <ele>54.5</ele>
        <time>2021-05-23T14:38:10Z</time>
      </trkpt>
      <trkpt lat="42.8005980" lon="-8.6362870">
        <ele>54.4</ele>
        <time>2021-05-23T14:38:11Z</time>
      </trkpt>
      <trkpt lat="42.8005980" lon="-8.6362840">
        <ele>54.4</ele>
        <time>2021-05-23T14:38:12Z</time>
      </trkpt>
      <trkpt lat="42.8006070" lon="-8.6362920">
        <ele>54.4</ele>
        <time>2021-05-23T14:38:13Z</time>
      </trkpt>
      <trkpt lat="42.8006120" lon="-8.6363040">
        <ele>54.4</ele>
        <time>2021-05-23T14:38:14Z</time>
      </trkpt>
      <trkpt lat="42.8006220" lon="-8.6363100">
        <ele>54.3</ele>
        <time>2021-05-23T14:38:15Z</time>
      </trkpt>
      <trkpt lat="42.8006270" lon="-8.6363150">
        <ele>54.3</ele>
        <time>2021-05-23T14:38:16Z</time>
      </trkpt>
      <trkpt lat="42.8006450" lon="-8.6363270">
        <ele>54.2</ele>
        <time>2021-05-23T14:38:17Z</time>
      </trkpt>
      <trkpt lat="42.8006500" lon="-8.6363370">
        <ele>54.2</ele>
        <time>2021-05-23T14:38:18Z</time>
      </trkpt>
      <trkpt lat="42.8006630" lon="-8.6363460">
        <ele>54.1</ele>
        <time>2021-05-23T14:38:19Z</time>
      </trkpt>
      <trkpt lat="42.8006790" lon="-8.6363530">
        <ele>54.1</ele>
        <time>2021-05-23T14:38:20Z</time>
      </trkpt>
      <trkpt lat="42.8006930" lon="-8.6363520">
        <ele>54.0</ele>
        <time>2021-05-23T14:38:21Z</time>
      </trkpt>
      <trkpt lat="42.8007090" lon="-8.6363590">
        <ele>53.9</ele>
        <time>2021-05-23T14:38:22Z</time>
      </trkpt>
      <trkpt lat="42.8007230" lon="-8.6363630">
        <ele>53.9</ele>
        <time>2021-05-23T14:38:23Z</time>
      </trkpt>
      <trkpt lat="42.8007370" lon="-8.6363710">
        <ele>53.8</ele>
        <time>2021-05-23T14:38:24Z</time>
      </trkpt>
      <trkpt lat="42.8007530" lon="-8.6363790">
        <ele>53.8</ele>
        <time>2021-05-23T14:38:25Z</time>
      </trkpt>
      <trkpt lat="42.8007670" lon="-8.6363880">
        <ele>53.7</ele>
        <time>2021-05-23T14:38:26Z</time>
      </trkpt>
      <trkpt lat="42.8007800" lon="-8.6363940">
        <ele>53.6</ele>
        <time>2021-05-23T14:38:27Z</time>
      </trkpt>
      <trkpt lat="42.8007930" lon="-8.6364000">
        <ele>53.6</ele>
        <time>2021-05-23T14:38:28Z</time>
      </trkpt>
      <trkpt lat="42.8008080" lon="-8.6364070">
        <ele>53.5</ele>
        <time>2021-05-23T14:38:29Z</time>
      </trkpt>
      <trkpt lat="42.8008200" lon="-8.6364170">
        <ele>53.4</ele>
        <time>2021-05-23T14:38:30Z</time>
      </trkpt>
      <trkpt lat="42.8008370" lon="-8.6364180">
        <ele>53.4</ele>
        <time>2021-05-23T14:38:31Z</time>
      </trkpt>
      <trkpt lat="42.8008520" lon="-8.6364240">
        <ele>53.3</ele>
        <time>2021-05-23T14:38:32Z</time>
      </trkpt>
      <trkpt lat="42.8008650" lon="-8.6364310">
        <ele>53.2</ele>
        <time>2021-05-23T14:38:33Z</time>
      </trkpt>
      <trkpt lat="42.8008780" lon="-8.6364400">
        <ele>53.2</ele>
        <time>2021-05-23T14:38:34Z</time>
      </trkpt>
      <trkpt lat="42.8008920" lon="-8.6364490">
        <ele>53.1</ele>
        <time>2021-05-23T14:38:35Z</time>
      </trkpt>
      <trkpt lat="42.8009050" lon="-8.6364610">
        <ele>53.1</ele>
        <time>2021-05-23T14:38:36Z</time>
      </trkpt>
      <trkpt lat="42.8009150" lon="-8.6364720">
        <ele>53.0</ele>
        <time>2021-05-23T14:38:37Z</time>
      </trkpt>
      <trkpt lat="42.8009260" lon="-8.6364840">
        <ele>53.0</ele>
        <time>2021-05-23T14:38:38Z</time>
      </trkpt>
      <trkpt lat="42.8009400" lon="-8.6364890">
        <ele>52.9</ele>
        <time>2021-05-23T14:38:39Z</time>
      </trkpt>
      <trkpt lat="42.8009540" lon="-8.6365000">
        <ele>52.8</ele>
        <time>2021-05-23T14:38:40Z</time>
      </trkpt>
      <trkpt lat="42.8009650" lon="-8.6365160">
        <ele>52.8</ele>
        <time>2021-05-23T14:38:41Z</time>
      </trkpt>
      <trkpt lat="42.8009770" lon="-8.6365300">
        <ele>52.7</ele>
        <time>2021-05-23T14:38:42Z</time>
      </trkpt>
      <trkpt lat="42.8009920" lon="-8.6365500">
        <ele>52.6</ele>
        <time>2021-05-23T14:38:43Z</time>
      </trkpt>
      <trkpt lat="42.8009990" lon="-8.6365580">
        <ele>52.6</ele>
        <time>2021-05-23T14:38:44Z</time>
      </trkpt>
      <trkpt lat="42.8010050" lon="-8.6365660">
        <ele>52.6</ele>
        <time>2021-05-23T14:38:45Z</time>
      </trkpt>
      <trkpt lat="42.8010210" lon="-8.6365840">
        <ele>52.5</ele>
        <time>2021-05-23T14:38:46Z</time>
      </trkpt>
      <trkpt lat="42.8010260" lon="-8.6365940">
        <ele>52.4</ele>
        <time>2021-05-23T14:38:47Z</time>
      </trkpt>
      <trkpt lat="42.8010310" lon="-8.6366030">
        <ele>52.4</ele>
        <time>2021-05-23T14:38:48Z</time>
      </trkpt>
      <trkpt lat="42.8010350" lon="-8.6366150">
        <ele>52.4</ele>
        <time>2021-05-23T14:38:49Z</time>
      </trkpt>
      <trkpt lat="42.8010400" lon="-8.6366230">
        <ele>52.3</ele>
        <time>2021-05-23T14:38:50Z</time>
      </trkpt>
      <trkpt lat="42.8010390" lon="-8.6366360">
        <ele>52.3</ele>
        <time>2021-05-23T14:38:51Z</time>
      </trkpt>
      <trkpt lat="42.8010360" lon="-8.6366460">
        <ele>52.3</ele>
        <time>2021-05-23T14:38:52Z</time>
      </trkpt>
      <trkpt lat="42.8010380" lon="-8.6366740">
        <ele>52.2</ele>
        <time>2021-05-23T14:38:53Z</time>
      </trkpt>
      <trkpt lat="42.8010390" lon="-8.6366870">
        <ele>52.1</ele>
        <time>2021-05-23T14:38:54Z</time>
      </trkpt>
      <trkpt lat="42.8010390" lon="-8.6366990">
        <ele>52.1</ele>
        <time>2021-05-23T14:38:55Z</time>
      </trkpt>
      <trkpt lat="42.8010430" lon="-8.6367120">
        <ele>52.0</ele>
        <time>2021-05-23T14:38:56Z</time>
      </trkpt>
      <trkpt lat="42.8010420" lon="-8.6367260">
        <ele>52.0</ele>
        <time>2021-05-23T14:38:57Z</time>
      </trkpt>
      <trkpt lat="42.8010400" lon="-8.6367390">
        <ele>52.0</ele>
        <time>2021-05-23T14:38:58Z</time>
      </trkpt>
      <trkpt lat="42.8010470" lon="-8.6367500">
        <ele>51.9</ele>
        <time>2021-05-23T14:38:59Z</time>
      </trkpt>
      <trkpt lat="42.8010460" lon="-8.6367640">
        <ele>51.9</ele>
        <time>2021-05-23T14:39:00Z</time>
      </trkpt>
      <trkpt lat="42.8010540" lon="-8.6367850">
        <ele>51.8</ele>
        <time>2021-05-23T14:39:01Z</time>
      </trkpt>
      <trkpt lat="42.8010580" lon="-8.6368010">
        <ele>51.7</ele>
        <time>2021-05-23T14:39:02Z</time>
      </trkpt>
      <trkpt lat="42.8010650" lon="-8.6368200">
        <ele>51.7</ele>
        <time>2021-05-23T14:39:03Z</time>
      </trkpt>
      <trkpt lat="42.8010700" lon="-8.6368360">
        <ele>51.6</ele>
        <time>2021-05-23T14:39:04Z</time>
      </trkpt>
      <trkpt lat="42.8010810" lon="-8.6368500">
        <ele>51.5</ele>
        <time>2021-05-23T14:39:05Z</time>
      </trkpt>
      <trkpt lat="42.8010870" lon="-8.6368690">
        <ele>51.5</ele>
        <time>2021-05-23T14:39:06Z</time>
      </trkpt>
      <trkpt lat="42.8010950" lon="-8.6368870">
        <ele>51.4</ele>
        <time>2021-05-23T14:39:07Z</time>
      </trkpt>
      <trkpt lat="42.8010970" lon="-8.6369060">
        <ele>51.3</ele>
        <time>2021-05-23T14:39:08Z</time>
      </trkpt>
      <trkpt lat="42.8011030" lon="-8.6369230">
        <ele>51.3</ele>
        <time>2021-05-23T14:39:09Z</time>
      </trkpt>
      <trkpt lat="42.8011070" lon="-8.6369490">
        <ele>51.2</ele>
        <time>2021-05-23T14:39:10Z</time>
      </trkpt>
      <trkpt lat="42.8011090" lon="-8.6369610">
        <ele>51.1</ele>
        <time>2021-05-23T14:39:11Z</time>
      </trkpt>
      <trkpt lat="42.8011100" lon="-8.6369730">
        <ele>51.1</ele>
        <time>2021-05-23T14:39:12Z</time>
      </trkpt>
      <trkpt lat="42.8011160" lon="-8.6369910">
        <ele>51.0</ele>
        <time>2021-05-23T14:39:13Z</time>
      </trkpt>
      <trkpt lat="42.8011220" lon="-8.6370080">
        <ele>51.0</ele>
        <time>2021-05-23T14:39:14Z</time>
      </trkpt>
      <trkpt lat="42.8011260" lon="-8.6370250">
        <ele>50.9</ele>
        <time>2021-05-23T14:39:15Z</time>
      </trkpt>
      <trkpt lat="42.8011280" lon="-8.6370450">
        <ele>50.9</ele>
        <time>2021-05-23T14:39:16Z</time>
      </trkpt>
      <trkpt lat="42.8011370" lon="-8.6370700">
        <ele>50.8</ele>
        <time>2021-05-23T14:39:17Z</time>
      </trkpt>
      <trkpt lat="42.8011410" lon="-8.6370810">
        <ele>50.7</ele>
        <time>2021-05-23T14:39:18Z</time>
      </trkpt>
      <trkpt lat="42.8011440" lon="-8.6370910">
        <ele>50.7</ele>
        <time>2021-05-23T14:39:19Z</time>
      </trkpt>
      <trkpt lat="42.8011510" lon="-8.6371180">
        <ele>50.6</ele>
        <time>2021-05-23T14:39:20Z</time>
      </trkpt>
      <trkpt lat="42.8011570" lon="-8.6371270">
        <ele>50.6</ele>
        <time>2021-05-23T14:39:21Z</time>
      </trkpt>
      <trkpt lat="42.8011620" lon="-8.6371360">
        <ele>50.6</ele>
        <time>2021-05-23T14:39:22Z</time>
      </trkpt>
      <trkpt lat="42.8011760" lon="-8.6371600">
        <ele>50.5</ele>
        <time>2021-05-23T14:39:23Z</time>
      </trkpt>
      <trkpt lat="42.8011820" lon="-8.6371690">
        <ele>50.4</ele>
        <time>2021-05-23T14:39:24Z</time>
      </trkpt>
      <trkpt lat="42.8011870" lon="-8.6371780">
        <ele>50.4</ele>
        <time>2021-05-23T14:39:25Z</time>
      </trkpt>
      <trkpt lat="42.8012030" lon="-8.6371970">
        <ele>50.3</ele>
        <time>2021-05-23T14:39:26Z</time>
      </trkpt>
      <trkpt lat="42.8012090" lon="-8.6372050">
        <ele>50.3</ele>
        <time>2021-05-23T14:39:27Z</time>
      </trkpt>
      <trkpt lat="42.8012140" lon="-8.6372140">
        <ele>50.2</ele>
        <time>2021-05-23T14:39:28Z</time>
      </trkpt>
      <trkpt lat="42.8012260" lon="-8.6372370">
        <ele>50.1</ele>
        <time>2021-05-23T14:39:29Z</time>
      </trkpt>
      <trkpt lat="42.8012320" lon="-8.6372470">
        <ele>50.1</ele>
        <time>2021-05-23T14:39:30Z</time>
      </trkpt>
      <trkpt lat="42.8012370" lon="-8.6372570">
        <ele>50.1</ele>
        <time>2021-05-23T14:39:31Z</time>
      </trkpt>
      <trkpt lat="42.8012490" lon="-8.6372680">
        <ele>50.0</ele>
        <time>2021-05-23T14:39:32Z</time>
      </trkpt>
      <trkpt lat="42.8012620" lon="-8.6372770">
        <ele>49.9</ele>
        <time>2021-05-23T14:39:33Z</time>
      </trkpt>
      <trkpt lat="42.8012790" lon="-8.6372950">
        <ele>49.8</ele>
        <time>2021-05-23T14:39:34Z</time>
      </trkpt>
      <trkpt lat="42.8012860" lon="-8.6373020">
        <ele>49.8</ele>
        <time>2021-05-23T14:39:35Z</time>
      </trkpt>
      <trkpt lat="42.8012920" lon="-8.6373100">
        <ele>49.8</ele>
        <time>2021-05-23T14:39:36Z</time>
      </trkpt>
      <trkpt lat="42.8013040" lon="-8.6373240">
        <ele>49.7</ele>
        <time>2021-05-23T14:39:37Z</time>
      </trkpt>
      <trkpt lat="42.8013170" lon="-8.6373320">
        <ele>49.6</ele>
        <time>2021-05-23T14:39:38Z</time>
      </trkpt>
      <trkpt lat="42.8013300" lon="-8.6373410">
        <ele>49.6</ele>
        <time>2021-05-23T14:39:39Z</time>
      </trkpt>
      <trkpt lat="42.8013430" lon="-8.6373470">
        <ele>49.5</ele>
        <time>2021-05-23T14:39:40Z</time>
      </trkpt>
      <trkpt lat="42.8013550" lon="-8.6373560">
        <ele>49.4</ele>
        <time>2021-05-23T14:39:41Z</time>
      </trkpt>
      <trkpt lat="42.8013670" lon="-8.6373700">
        <ele>49.4</ele>
        <time>2021-05-23T14:39:42Z</time>
      </trkpt>
      <trkpt lat="42.8013820" lon="-8.6373760">
        <ele>49.3</ele>
        <time>2021-05-23T14:39:43Z</time>
      </trkpt>
      <trkpt lat="42.8013980" lon="-8.6373810">
        <ele>49.2</ele>
        <time>2021-05-23T14:39:44Z</time>
      </trkpt>
      <trkpt lat="42.8014100" lon="-8.6373900">
        <ele>49.2</ele>
        <time>2021-05-23T14:39:45Z</time>
      </trkpt>
      <trkpt lat="42.8014230" lon="-8.6373950">
        <ele>49.1</ele>
        <time>2021-05-23T14:39:46Z</time>
      </trkpt>
      <trkpt lat="42.8014370" lon="-8.6373980">
        <ele>49.0</ele>
        <time>2021-05-23T14:39:47Z</time>
      </trkpt>
      <trkpt lat="42.8014500" lon="-8.6374050">
        <ele>49.0</ele>
        <time>2021-05-23T14:39:48Z</time>
      </trkpt>
      <trkpt lat="42.8014720" lon="-8.6374090">
        <ele>48.9</ele>
        <time>2021-05-23T14:39:49Z</time>
      </trkpt>
      <trkpt lat="42.8014800" lon="-8.6374130">
        <ele>48.8</ele>
        <time>2021-05-23T14:39:50Z</time>
      </trkpt>
      <trkpt lat="42.8014890" lon="-8.6374160">
        <ele>48.8</ele>
        <time>2021-05-23T14:39:51Z</time>
      </trkpt>
      <trkpt lat="42.8015000" lon="-8.6374230">
        <ele>48.7</ele>
        <time>2021-05-23T14:39:52Z</time>
      </trkpt>
      <trkpt lat="42.8015130" lon="-8.6374250">
        <ele>48.7</ele>
        <time>2021-05-23T14:39:53Z</time>
      </trkpt>
      <trkpt lat="42.8015240" lon="-8.6374310">
        <ele>48.6</ele>
        <time>2021-05-23T14:39:54Z</time>
      </trkpt>
      <trkpt lat="42.8015410" lon="-8.6374450">
        <ele>48.5</ele>
        <time>2021-05-23T14:39:55Z</time>
      </trkpt>
      <trkpt lat="42.8015480" lon="-8.6374520">
        <ele>48.5</ele>
        <time>2021-05-23T14:39:56Z</time>
      </trkpt>
      <trkpt lat="42.8015550" lon="-8.6374580">
        <ele>48.4</ele>
        <time>2021-05-23T14:39:57Z</time>
      </trkpt>
      <trkpt lat="42.8015650" lon="-8.6374690">
        <ele>48.4</ele>
        <time>2021-05-23T14:39:58Z</time>
      </trkpt>
      <trkpt lat="42.8015760" lon="-8.6374760">
        <ele>48.3</ele>
        <time>2021-05-23T14:39:59Z</time>
      </trkpt>
      <trkpt lat="42.8015850" lon="-8.6374840">
        <ele>48.2</ele>
        <time>2021-05-23T14:40:00Z</time>
      </trkpt>
      <trkpt lat="42.8016010" lon="-8.6375010">
        <ele>48.1</ele>
        <time>2021-05-23T14:40:01Z</time>
      </trkpt>
      <trkpt lat="42.8016090" lon="-8.6375070">
        <ele>48.1</ele>
        <time>2021-05-23T14:40:02Z</time>
      </trkpt>
      <trkpt lat="42.8016160" lon="-8.6375130">
        <ele>48.0</ele>
        <time>2021-05-23T14:40:03Z</time>
      </trkpt>
      <trkpt lat="42.8016280" lon="-8.6375390">
        <ele>47.9</ele>
        <time>2021-05-23T14:40:04Z</time>
      </trkpt>
      <trkpt lat="42.8016340" lon="-8.6375470">
        <ele>47.9</ele>
        <time>2021-05-23T14:40:05Z</time>
      </trkpt>
      <trkpt lat="42.8016390" lon="-8.6375560">
        <ele>47.8</ele>
        <time>2021-05-23T14:40:06Z</time>
      </trkpt>
      <trkpt lat="42.8016570" lon="-8.6375690">
        <ele>47.7</ele>
        <time>2021-05-23T14:40:07Z</time>
      </trkpt>
      <trkpt lat="42.8016640" lon="-8.6375740">
        <ele>47.7</ele>
        <time>2021-05-23T14:40:08Z</time>
      </trkpt>
      <trkpt lat="42.8016720" lon="-8.6375790">
        <ele>47.6</ele>
        <time>2021-05-23T14:40:09Z</time>
      </trkpt>
      <trkpt lat="42.8016930" lon="-8.6375890">
        <ele>47.5</ele>
        <time>2021-05-23T14:40:10Z</time>
      </trkpt>
      <trkpt lat="42.8017010" lon="-8.6375950">
        <ele>47.5</ele>
        <time>2021-05-23T14:40:11Z</time>
      </trkpt>
      <trkpt lat="42.8017090" lon="-8.6376010">
        <ele>47.4</ele>
        <time>2021-05-23T14:40:12Z</time>
      </trkpt>
      <trkpt lat="42.8017200" lon="-8.6376080">
        <ele>47.4</ele>
        <time>2021-05-23T14:40:13Z</time>
      </trkpt>
      <trkpt lat="42.8017300" lon="-8.6376070">
        <ele>47.3</ele>
        <time>2021-05-23T14:40:14Z</time>
      </trkpt>
      <trkpt lat="42.8017320" lon="-8.6376080">
        <ele>47.3</ele>
        <time>2021-05-23T14:40:15Z</time>
      </trkpt>
      <trkpt lat="42.8017360" lon="-8.6376200">
        <ele>47.3</ele>
        <time>2021-05-23T14:40:16Z</time>
      </trkpt>
      <trkpt lat="42.8017460" lon="-8.6376300">
        <ele>47.2</ele>
        <time>2021-05-23T14:40:17Z</time>
      </trkpt>
      <trkpt lat="42.8017530" lon="-8.6376310">
        <ele>47.2</ele>
        <time>2021-05-23T14:40:18Z</time>
      </trkpt>
      <trkpt lat="42.8017560" lon="-8.6376340">
        <ele>47.2</ele>
        <time>2021-05-23T14:40:19Z</time>
      </trkpt>
      <trkpt lat="42.8017620" lon="-8.6376430">
        <ele>47.1</ele>
        <time>2021-05-23T14:40:20Z</time>
      </trkpt>
      <trkpt lat="42.8017670" lon="-8.6376560">
        <ele>47.1</ele>
        <time>2021-05-23T14:40:21Z</time>
      </trkpt>
      <trkpt lat="42.8017690" lon="-8.6376630">
        <ele>47.0</ele>
        <time>2021-05-23T14:40:22Z</time>
      </trkpt>
      <trkpt lat="42.8017780" lon="-8.6376780">
        <ele>47.0</ele>
        <time>2021-05-23T14:40:23Z</time>
      </trkpt>
      <trkpt lat="42.8017820" lon="-8.6376850">
        <ele>46.9</ele>
        <time>2021-05-23T14:40:24Z</time>
      </trkpt>
      <trkpt lat="42.8017910" lon="-8.6377000">
        <ele>46.9</ele>
        <time>2021-05-23T14:40:25Z</time>
      </trkpt>
      <trkpt lat="42.8017970" lon="-8.6377060">
        <ele>46.8</ele>
        <time>2021-05-23T14:40:26Z</time>
      </trkpt>
      <trkpt lat="42.8018120" lon="-8.6377240">
        <ele>46.8</ele>
        <time>2021-05-23T14:40:27Z</time>
      </trkpt>
      <trkpt lat="42.8018180" lon="-8.6377310">
        <ele>46.7</ele>
        <time>2021-05-23T14:40:28Z</time>
      </trkpt>
      <trkpt lat="42.8018370" lon="-8.6377470">
        <ele>46.6</ele>
        <time>2021-05-23T14:40:29Z</time>
      </trkpt>
      <trkpt lat="42.8018430" lon="-8.6377530">
        <ele>46.6</ele>
        <time>2021-05-23T14:40:30Z</time>
      </trkpt>
      <trkpt lat="42.8018500" lon="-8.6377590">
        <ele>46.6</ele>
        <time>2021-05-23T14:40:31Z</time>
      </trkpt>
      <trkpt lat="42.8018590" lon="-8.6377650">
        <ele>46.5</ele>
        <time>2021-05-23T14:40:32Z</time>
      </trkpt>
      <trkpt lat="42.8018710" lon="-8.6377700">
        <ele>46.5</ele>
        <time>2021-05-23T14:40:33Z</time>
      </trkpt>
      <trkpt lat="42.8018780" lon="-8.6377800">
        <ele>46.4</ele>
        <time>2021-05-23T14:40:34Z</time>
      </trkpt>
      <trkpt lat="42.8018920" lon="-8.6377890">
        <ele>46.4</ele>
        <time>2021-05-23T14:40:35Z</time>
      </trkpt>
      <trkpt lat="42.8019050" lon="-8.6378010">
        <ele>46.3</ele>
        <time>2021-05-23T14:40:36Z</time>
      </trkpt>
      <trkpt lat="42.8019190" lon="-8.6378120">
        <ele>46.3</ele>
        <time>2021-05-23T14:40:37Z</time>
      </trkpt>
      <trkpt lat="42.8019360" lon="-8.6378220">
        <ele>46.2</ele>
        <time>2021-05-23T14:40:38Z</time>
      </trkpt>
      <trkpt lat="42.8019620" lon="-8.6378370">
        <ele>46.1</ele>
        <time>2021-05-23T14:40:39Z</time>
      </trkpt>
      <trkpt lat="42.8019710" lon="-8.6378440">
        <ele>46.1</ele>
        <time>2021-05-23T14:40:40Z</time>
      </trkpt>
      <trkpt lat="42.8019840" lon="-8.6378480">
        <ele>46.0</ele>
        <time>2021-05-23T14:40:41Z</time>
      </trkpt>
      <trkpt lat="42.8019970" lon="-8.6378550">
        <ele>46.0</ele>
        <time>2021-05-23T14:40:42Z</time>
      </trkpt>
      <trkpt lat="42.8020130" lon="-8.6378580">
        <ele>45.9</ele>
        <time>2021-05-23T14:40:43Z</time>
      </trkpt>
      <trkpt lat="42.8020280" lon="-8.6378550">
        <ele>45.9</ele>
        <time>2021-05-23T14:40:44Z</time>
      </trkpt>
      <trkpt lat="42.8020450" lon="-8.6378600">
        <ele>45.8</ele>
        <time>2021-05-23T14:40:45Z</time>
      </trkpt>
      <trkpt lat="42.8020620" lon="-8.6378590">
        <ele>45.8</ele>
        <time>2021-05-23T14:40:46Z</time>
      </trkpt>
      <trkpt lat="42.8020770" lon="-8.6378560">
        <ele>45.7</ele>
        <time>2021-05-23T14:40:47Z</time>
      </trkpt>
      <trkpt lat="42.8020920" lon="-8.6378580">
        <ele>45.5</ele>
        <time>2021-05-23T14:40:48Z</time>
      </trkpt>
      <trkpt lat="42.8021090" lon="-8.6378600">
        <ele>45.5</ele>
        <time>2021-05-23T14:40:49Z</time>
      </trkpt>
      <trkpt lat="42.8021210" lon="-8.6378620">
        <ele>45.5</ele>
        <time>2021-05-23T14:40:50Z</time>
      </trkpt>
      <trkpt lat="42.8021360" lon="-8.6378690">
        <ele>45.5</ele>
        <time>2021-05-23T14:40:51Z</time>
      </trkpt>
      <trkpt lat="42.8021490" lon="-8.6378620">
        <ele>45.5</ele>
        <time>2021-05-23T14:40:52Z</time>
      </trkpt>
      <trkpt lat="42.8021630" lon="-8.6378630">
        <ele>45.5</ele>
        <time>2021-05-23T14:40:53Z</time>
      </trkpt>
      <trkpt lat="42.8021780" lon="-8.6378650">
        <ele>45.5</ele>
        <time>2021-05-23T14:40:54Z</time>
      </trkpt>
      <trkpt lat="42.8021930" lon="-8.6378690">
        <ele>45.6</ele>
        <time>2021-05-23T14:40:55Z</time>
      </trkpt>
      <trkpt lat="42.8022050" lon="-8.6378790">
        <ele>45.6</ele>
        <time>2021-05-23T14:40:56Z</time>
      </trkpt>
      <trkpt lat="42.8022240" lon="-8.6378880">
        <ele>45.6</ele>
        <time>2021-05-23T14:40:57Z</time>
      </trkpt>
      <trkpt lat="42.8022340" lon="-8.6378880">
        <ele>45.7</ele>
        <time>2021-05-23T14:40:58Z</time>
      </trkpt>
      <trkpt lat="42.8022430" lon="-8.6378890">
        <ele>45.7</ele>
        <time>2021-05-23T14:40:59Z</time>
      </trkpt>
      <trkpt lat="42.8022560" lon="-8.6378850">
        <ele>45.7</ele>
        <time>2021-05-23T14:41:00Z</time>
      </trkpt>
      <trkpt lat="42.8022630" lon="-8.6378820">
        <ele>45.7</ele>
        <time>2021-05-23T14:41:01Z</time>
      </trkpt>
      <trkpt lat="42.8022740" lon="-8.6378740">
        <ele>45.7</ele>
        <time>2021-05-23T14:41:02Z</time>
      </trkpt>
      <trkpt lat="42.8022750" lon="-8.6378760">
        <ele>45.7</ele>
        <time>2021-05-23T14:41:03Z</time>
      </trkpt>
      <trkpt lat="42.8022740" lon="-8.6378620">
        <ele>45.7</ele>
        <time>2021-05-23T14:41:04Z</time>
      </trkpt>
      <trkpt lat="42.8022780" lon="-8.6378510">
        <ele>45.7</ele>
        <time>2021-05-23T14:41:05Z</time>
      </trkpt>
      <trkpt lat="42.8022800" lon="-8.6378460">
        <ele>45.7</ele>
        <time>2021-05-23T14:41:06Z</time>
      </trkpt>
      <trkpt lat="42.8022810" lon="-8.6378410">
        <ele>45.7</ele>
        <time>2021-05-23T14:41:07Z</time>
      </trkpt>
      <trkpt lat="42.8022850" lon="-8.6378350">
        <ele>45.7</ele>
        <time>2021-05-23T14:41:08Z</time>
      </trkpt>
      <trkpt lat="42.8022950" lon="-8.6378250">
        <ele>45.7</ele>
        <time>2021-05-23T14:41:09Z</time>
      </trkpt>
      <trkpt lat="42.8023070" lon="-8.6378240">
        <ele>45.7</ele>
        <time>2021-05-23T14:41:10Z</time>
      </trkpt>
      <trkpt lat="42.8023160" lon="-8.6378190">
        <ele>45.7</ele>
        <time>2021-05-23T14:41:11Z</time>
      </trkpt>
      <trkpt lat="42.8023230" lon="-8.6378100">
        <ele>45.7</ele>
        <time>2021-05-23T14:41:12Z</time>
      </trkpt>
      <trkpt lat="42.8023290" lon="-8.6378020">
        <ele>45.7</ele>
        <time>2021-05-23T14:41:13Z</time>
      </trkpt>
      <trkpt lat="42.8023390" lon="-8.6377940">
        <ele>45.7</ele>
        <time>2021-05-23T14:41:14Z</time>
      </trkpt>
      <trkpt lat="42.8023510" lon="-8.6377820">
        <ele>45.7</ele>
        <time>2021-05-23T14:41:15Z</time>
      </trkpt>
      <trkpt lat="42.8023560" lon="-8.6377760">
        <ele>45.7</ele>
        <time>2021-05-23T14:41:16Z</time>
      </trkpt>
      <trkpt lat="42.8023650" lon="-8.6377710">
        <ele>45.7</ele>
        <time>2021-05-23T14:41:17Z</time>
      </trkpt>
      <trkpt lat="42.8023710" lon="-8.6377660">
        <ele>45.7</ele>
        <time>2021-05-23T14:41:18Z</time>
      </trkpt>
      <trkpt lat="42.8023910" lon="-8.6377560">
        <ele>45.7</ele>
        <time>2021-05-23T14:41:19Z</time>
      </trkpt>
      <trkpt lat="42.8023990" lon="-8.6377490">
        <ele>45.7</ele>
        <time>2021-05-23T14:41:20Z</time>
      </trkpt>
      <trkpt lat="42.8024170" lon="-8.6377420">
        <ele>45.7</ele>
        <time>2021-05-23T14:41:21Z</time>
      </trkpt>
      <trkpt lat="42.8024240" lon="-8.6377410">
        <ele>45.7</ele>
        <time>2021-05-23T14:41:22Z</time>
      </trkpt>
      <trkpt lat="42.8024360" lon="-8.6377380">
        <ele>45.8</ele>
        <time>2021-05-23T14:41:23Z</time>
      </trkpt>
      <trkpt lat="42.8024470" lon="-8.6377280">
        <ele>45.8</ele>
        <time>2021-05-23T14:41:24Z</time>
      </trkpt>
      <trkpt lat="42.8024580" lon="-8.6377260">
        <ele>45.8</ele>
        <time>2021-05-23T14:41:25Z</time>
      </trkpt>
      <trkpt lat="42.8024610" lon="-8.6377140">
        <ele>45.8</ele>
        <time>2021-05-23T14:41:26Z</time>
      </trkpt>
      <trkpt lat="42.8024770" lon="-8.6377070">
        <ele>45.8</ele>
        <time>2021-05-23T14:41:27Z</time>
      </trkpt>
      <trkpt lat="42.8024860" lon="-8.6376890">
        <ele>45.8</ele>
        <time>2021-05-23T14:41:28Z</time>
      </trkpt>
      <trkpt lat="42.8024910" lon="-8.6376830">
        <ele>45.8</ele>
        <time>2021-05-23T14:41:29Z</time>
      </trkpt>
      <trkpt lat="42.8024960" lon="-8.6376760">
        <ele>45.8</ele>
        <time>2021-05-23T14:41:30Z</time>
      </trkpt>
      <trkpt lat="42.8025010" lon="-8.6376690">
        <ele>45.8</ele>
        <time>2021-05-23T14:41:31Z</time>
      </trkpt>
      <trkpt lat="42.8025080" lon="-8.6376610">
        <ele>45.8</ele>
        <time>2021-05-23T14:41:32Z</time>
      </trkpt>
      <trkpt lat="42.8025220" lon="-8.6376540">
        <ele>45.8</ele>
        <time>2021-05-23T14:41:33Z</time>
      </trkpt>
      <trkpt lat="42.8025340" lon="-8.6376480">
        <ele>45.8</ele>
        <time>2021-05-23T14:41:34Z</time>
      </trkpt>
      <trkpt lat="42.8025510" lon="-8.6376410">
        <ele>45.8</ele>
        <time>2021-05-23T14:41:35Z</time>
      </trkpt>
      <trkpt lat="42.8025650" lon="-8.6376270">
        <ele>45.8</ele>
        <time>2021-05-23T14:41:36Z</time>
      </trkpt>
      <trkpt lat="42.8025690" lon="-8.6376150">
        <ele>45.8</ele>
        <time>2021-05-23T14:41:37Z</time>
      </trkpt>
      <trkpt lat="42.8025790" lon="-8.6376110">
        <ele>45.8</ele>
        <time>2021-05-23T14:41:38Z</time>
      </trkpt>
      <trkpt lat="42.8025880" lon="-8.6376080">
        <ele>45.8</ele>
        <time>2021-05-23T14:41:39Z</time>
      </trkpt>
      <trkpt lat="42.8025970" lon="-8.6376040">
        <ele>45.9</ele>
        <time>2021-05-23T14:41:40Z</time>
      </trkpt>
      <trkpt lat="42.8026020" lon="-8.6375940">
        <ele>45.9</ele>
        <time>2021-05-23T14:41:41Z</time>
      </trkpt>
      <trkpt lat="42.8026210" lon="-8.6375830">
        <ele>45.9</ele>
        <time>2021-05-23T14:41:42Z</time>
      </trkpt>
      <trkpt lat="42.8026270" lon="-8.6375700">
        <ele>45.9</ele>
        <time>2021-05-23T14:41:43Z</time>
      </trkpt>
      <trkpt lat="42.8026440" lon="-8.6375600">
        <ele>45.9</ele>
        <time>2021-05-23T14:41:44Z</time>
      </trkpt>
      <trkpt lat="42.8026560" lon="-8.6375580">
        <ele>45.9</ele>
        <time>2021-05-23T14:41:45Z</time>
      </trkpt>
      <trkpt lat="42.8026650" lon="-8.6375440">
        <ele>45.9</ele>
        <time>2021-05-23T14:41:46Z</time>
      </trkpt>
      <trkpt lat="42.8026720" lon="-8.6375300">
        <ele>45.9</ele>
        <time>2021-05-23T14:41:47Z</time>
      </trkpt>
      <trkpt lat="42.8026770" lon="-8.6375190">
        <ele>45.9</ele>
        <time>2021-05-23T14:41:48Z</time>
      </trkpt>
      <trkpt lat="42.8026850" lon="-8.6375120">
        <ele>45.9</ele>
        <time>2021-05-23T14:41:49Z</time>
      </trkpt>
      <trkpt lat="42.8026940" lon="-8.6374980">
        <ele>45.9</ele>
        <time>2021-05-23T14:41:50Z</time>
      </trkpt>
      <trkpt lat="42.8027020" lon="-8.6374820">
        <ele>45.9</ele>
        <time>2021-05-23T14:41:51Z</time>
      </trkpt>
      <trkpt lat="42.8027090" lon="-8.6374690">
        <ele>45.9</ele>
        <time>2021-05-23T14:41:52Z</time>
      </trkpt>
      <trkpt lat="42.8027190" lon="-8.6374640">
        <ele>45.9</ele>
        <time>2021-05-23T14:41:53Z</time>
      </trkpt>
      <trkpt lat="42.8027290" lon="-8.6374530">
        <ele>45.9</ele>
        <time>2021-05-23T14:41:54Z</time>
      </trkpt>
      <trkpt lat="42.8027380" lon="-8.6374450">
        <ele>46.0</ele>
        <time>2021-05-23T14:41:55Z</time>
      </trkpt>
      <trkpt lat="42.8027440" lon="-8.6374360">
        <ele>46.0</ele>
        <time>2021-05-23T14:41:56Z</time>
      </trkpt>
      <trkpt lat="42.8027530" lon="-8.6374330">
        <ele>46.0</ele>
        <time>2021-05-23T14:41:57Z</time>
      </trkpt>
      <trkpt lat="42.8027620" lon="-8.6374200">
        <ele>46.0</ele>
        <time>2021-05-23T14:41:58Z</time>
      </trkpt>
      <trkpt lat="42.8027710" lon="-8.6374080">
        <ele>46.0</ele>
        <time>2021-05-23T14:41:59Z</time>
      </trkpt>
      <trkpt lat="42.8027820" lon="-8.6373940">
        <ele>46.0</ele>
        <time>2021-05-23T14:42:00Z</time>
      </trkpt>
      <trkpt lat="42.8027920" lon="-8.6373820">
        <ele>46.0</ele>
        <time>2021-05-23T14:42:01Z</time>
      </trkpt>
      <trkpt lat="42.8028000" lon="-8.6373710">
        <ele>46.0</ele>
        <time>2021-05-23T14:42:02Z</time>
      </trkpt>
      <trkpt lat="42.8028100" lon="-8.6373650">
        <ele>46.0</ele>
        <time>2021-05-23T14:42:03Z</time>
      </trkpt>
      <trkpt lat="42.8028150" lon="-8.6373530">
        <ele>46.0</ele>
        <time>2021-05-23T14:42:04Z</time>
      </trkpt>
      <trkpt lat="42.8028250" lon="-8.6373400">
        <ele>46.0</ele>
        <time>2021-05-23T14:42:05Z</time>
      </trkpt>
      <trkpt lat="42.8028240" lon="-8.6373400">
        <ele>46.0</ele>
        <time>2021-05-23T14:42:06Z</time>
      </trkpt>
      <trkpt lat="42.8028190" lon="-8.6373500">
        <ele>46.0</ele>
        <time>2021-05-23T14:42:07Z</time>
      </trkpt>
      <trkpt lat="42.8028160" lon="-8.6373510">
        <ele>46.0</ele>
        <time>2021-05-23T14:42:08Z</time>
      </trkpt>
      <trkpt lat="42.8028030" lon="-8.6373360">
        <ele>46.0</ele>
        <time>2021-05-23T14:42:09Z</time>
      </trkpt>
      <trkpt lat="42.8027970" lon="-8.6373340">
        <ele>46.0</ele>
        <time>2021-05-23T14:42:10Z</time>
      </trkpt>
      <trkpt lat="42.8028000" lon="-8.6373300">
        <ele>46.0</ele>
        <time>2021-05-23T14:42:11Z</time>
      </trkpt>
      <trkpt lat="42.8027980" lon="-8.6373280">
        <ele>46.0</ele>
        <time>2021-05-23T14:42:12Z</time>
      </trkpt>
      <trkpt lat="42.8027920" lon="-8.6373200">
        <ele>46.0</ele>
        <time>2021-05-23T14:42:13Z</time>
      </trkpt>
      <trkpt lat="42.8027880" lon="-8.6373130">
        <ele>46.0</ele>
        <time>2021-05-23T14:42:14Z</time>
      </trkpt>
      <trkpt lat="42.8027820" lon="-8.6373060">
        <ele>46.0</ele>
        <time>2021-05-23T14:42:15Z</time>
      </trkpt>
      <trkpt lat="42.8027770" lon="-8.6372990">
        <ele>46.0</ele>
        <time>2021-05-23T14:42:16Z</time>
      </trkpt>
      <trkpt lat="42.8027720" lon="-8.6372920">
        <ele>46.0</ele>
        <time>2021-05-23T14:42:17Z</time>
      </trkpt>
      <trkpt lat="42.8027670" lon="-8.6372840">
        <ele>46.1</ele>
        <time>2021-05-23T14:42:18Z</time>
      </trkpt>
      <trkpt lat="42.8027660" lon="-8.6372780">
        <ele>46.1</ele>
        <time>2021-05-23T14:42:19Z</time>
      </trkpt>
      <trkpt lat="42.8027630" lon="-8.6372730">
        <ele>46.1</ele>
        <time>2021-05-23T14:42:20Z</time>
      </trkpt>
      <trkpt lat="42.8027610" lon="-8.6372700">
        <ele>46.1</ele>
        <time>2021-05-23T14:42:21Z</time>
      </trkpt>
      <trkpt lat="42.8027630" lon="-8.6372650">
        <ele>46.1</ele>
        <time>2021-05-23T14:42:22Z</time>
      </trkpt>
      <trkpt lat="42.8027600" lon="-8.6372630">
        <ele>46.1</ele>
        <time>2021-05-23T14:42:23Z</time>
      </trkpt>
      <trkpt lat="42.8027630" lon="-8.6372590">
        <ele>46.1</ele>
        <time>2021-05-23T14:42:24Z</time>
      </trkpt>
      <trkpt lat="42.8027620" lon="-8.6372600">
        <ele>46.1</ele>
        <time>2021-05-23T14:42:25Z</time>
      </trkpt>
      <trkpt lat="42.8027640" lon="-8.6372610">
        <ele>46.1</ele>
        <time>2021-05-23T14:42:26Z</time>
      </trkpt>
      <trkpt lat="42.8027610" lon="-8.6372550">
        <ele>46.1</ele>
        <time>2021-05-23T14:42:27Z</time>
      </trkpt>
      <trkpt lat="42.8027630" lon="-8.6372560">
        <ele>46.1</ele>
        <time>2021-05-23T14:42:28Z</time>
      </trkpt>
      <trkpt lat="42.8027630" lon="-8.6372580">
        <ele>46.1</ele>
        <time>2021-05-23T14:42:29Z</time>
      </trkpt>
      <trkpt lat="42.8027760" lon="-8.6372850">
        <ele>46.1</ele>
        <time>2021-05-23T14:42:30Z</time>
      </trkpt>
      <trkpt lat="42.8027750" lon="-8.6372850">
        <ele>46.1</ele>
        <time>2021-05-23T14:42:31Z</time>
      </trkpt>
      <trkpt lat="42.8027710" lon="-8.6372820">
        <ele>46.1</ele>
        <time>2021-05-23T14:42:32Z</time>
      </trkpt>
      <trkpt lat="42.8027720" lon="-8.6372810">
        <ele>46.1</ele>
        <time>2021-05-23T14:42:33Z</time>
      </trkpt>
      <trkpt lat="42.8027740" lon="-8.6372790">
        <ele>46.1</ele>
        <time>2021-05-23T14:42:34Z</time>
      </trkpt>
      <trkpt lat="42.8027730" lon="-8.6372780">
        <ele>46.1</ele>
        <time>2021-05-23T14:42:35Z</time>
      </trkpt>
      <trkpt lat="42.8027760" lon="-8.6372820">
        <ele>46.1</ele>
        <time>2021-05-23T14:42:36Z</time>
      </trkpt>
      <trkpt lat="42.8027730" lon="-8.6372750">
        <ele>46.1</ele>
        <time>2021-05-23T14:42:37Z</time>
      </trkpt>
      <trkpt lat="42.8027750" lon="-8.6372630">
        <ele>46.1</ele>
        <time>2021-05-23T14:42:38Z</time>
      </trkpt>
      <trkpt lat="42.8027770" lon="-8.6372650">
        <ele>46.1</ele>
        <time>2021-05-23T14:42:39Z</time>
      </trkpt>
      <trkpt lat="42.8027780" lon="-8.6372640">
        <ele>46.1</ele>
        <time>2021-05-23T14:42:40Z</time>
      </trkpt>
      <trkpt lat="42.8027770" lon="-8.6372630">
        <ele>46.1</ele>
        <time>2021-05-23T14:42:41Z</time>
      </trkpt>
      <trkpt lat="42.8027780" lon="-8.6372630">
        <ele>46.1</ele>
        <time>2021-05-23T14:42:42Z</time>
      </trkpt>
      <trkpt lat="42.8027800" lon="-8.6372580">
        <ele>46.1</ele>
        <time>2021-05-23T14:42:43Z</time>
      </trkpt>
      <trkpt lat="42.8027810" lon="-8.6372570">
        <ele>46.1</ele>
        <time>2021-05-23T14:42:44Z</time>
      </trkpt>
      <trkpt lat="42.8027810" lon="-8.6372630">
        <ele>46.1</ele>
        <time>2021-05-23T14:42:45Z</time>
      </trkpt>
      <trkpt lat="42.8027790" lon="-8.6372690">
        <ele>46.1</ele>
        <time>2021-05-23T14:42:46Z</time>
      </trkpt>
      <trkpt lat="42.8027790" lon="-8.6372730">
        <ele>46.1</ele>
        <time>2021-05-23T14:42:47Z</time>
      </trkpt>
      <trkpt lat="42.8027790" lon="-8.6372750">
        <ele>46.1</ele>
        <time>2021-05-23T14:42:48Z</time>
      </trkpt>
      <trkpt lat="42.8027780" lon="-8.6372760">
        <ele>46.1</ele>
        <time>2021-05-23T14:42:49Z</time>
      </trkpt>
      <trkpt lat="42.8027790" lon="-8.6372790">
        <ele>46.1</ele>
        <time>2021-05-23T14:42:50Z</time>
      </trkpt>
      <trkpt lat="42.8027790" lon="-8.6372810">
        <ele>46.1</ele>
        <time>2021-05-23T14:42:51Z</time>
      </trkpt>
      <trkpt lat="42.8027780" lon="-8.6372820">
        <ele>46.1</ele>
        <time>2021-05-23T14:42:52Z</time>
      </trkpt>
      <trkpt lat="42.8027740" lon="-8.6372890">
        <ele>46.1</ele>
        <time>2021-05-23T14:42:53Z</time>
      </trkpt>
      <trkpt lat="42.8027680" lon="-8.6372990">
        <ele>46.1</ele>
        <time>2021-05-23T14:42:54Z</time>
      </trkpt>
      <trkpt lat="42.8027660" lon="-8.6373220">
        <ele>46.1</ele>
        <time>2021-05-23T14:42:55Z</time>
      </trkpt>
      <trkpt lat="42.8027580" lon="-8.6373290">
        <ele>46.1</ele>
        <time>2021-05-23T14:42:56Z</time>
      </trkpt>
      <trkpt lat="42.8027620" lon="-8.6373380">
        <ele>46.1</ele>
        <time>2021-05-23T14:42:57Z</time>
      </trkpt>
      <trkpt lat="42.8027530" lon="-8.6373390">
        <ele>46.1</ele>
        <time>2021-05-23T14:42:58Z</time>
      </trkpt>
      <trkpt lat="42.8027420" lon="-8.6373360">
        <ele>46.1</ele>
        <time>2021-05-23T14:42:59Z</time>
      </trkpt>
      <trkpt lat="42.8027280" lon="-8.6373350">
        <ele>46.1</ele>
        <time>2021-05-23T14:43:00Z</time>
      </trkpt>
      <trkpt lat="42.8027120" lon="-8.6373360">
        <ele>46.1</ele>
        <time>2021-05-23T14:43:01Z</time>
      </trkpt>
      <trkpt lat="42.8027050" lon="-8.6373360">
        <ele>46.1</ele>
        <time>2021-05-23T14:43:02Z</time>
      </trkpt>
      <trkpt lat="42.8026980" lon="-8.6373360">
        <ele>46.1</ele>
        <time>2021-05-23T14:43:03Z</time>
      </trkpt>
      <trkpt lat="42.8026910" lon="-8.6373360">
        <ele>46.1</ele>
        <time>2021-05-23T14:43:04Z</time>
      </trkpt>
      <trkpt lat="42.8026850" lon="-8.6373450">
        <ele>46.1</ele>
        <time>2021-05-23T14:43:05Z</time>
      </trkpt>
      <trkpt lat="42.8026830" lon="-8.6373550">
        <ele>46.1</ele>
        <time>2021-05-23T14:43:06Z</time>
      </trkpt>
      <trkpt lat="42.8026760" lon="-8.6373620">
        <ele>46.1</ele>
        <time>2021-05-23T14:43:07Z</time>
      </trkpt>
      <trkpt lat="42.8026670" lon="-8.6373670">
        <ele>46.1</ele>
        <time>2021-05-23T14:43:08Z</time>
      </trkpt>
      <trkpt lat="42.8026600" lon="-8.6373740">
        <ele>46.1</ele>
        <time>2021-05-23T14:43:09Z</time>
      </trkpt>
      <trkpt lat="42.8026620" lon="-8.6373750">
        <ele>46.1</ele>
        <time>2021-05-23T14:43:10Z</time>
      </trkpt>
      <trkpt lat="42.8026630" lon="-8.6373750">
        <ele>46.1</ele>
        <time>2021-05-23T14:43:11Z</time>
      </trkpt>
      <trkpt lat="42.8026640" lon="-8.6373760">
        <ele>46.1</ele>
        <time>2021-05-23T14:43:12Z</time>
      </trkpt>
      <trkpt lat="42.8026660" lon="-8.6373770">
        <ele>46.1</ele>
        <time>2021-05-23T14:43:13Z</time>
      </trkpt>
      <trkpt lat="42.8026670" lon="-8.6373780">
        <ele>46.1</ele>
        <time>2021-05-23T14:43:14Z</time>
      </trkpt>
      <trkpt lat="42.8026680" lon="-8.6373790">
        <ele>46.1</ele>
        <time>2021-05-23T14:43:15Z</time>
      </trkpt>
      <trkpt lat="42.8026700" lon="-8.6373790">
        <ele>46.1</ele>
        <time>2021-05-23T14:43:16Z</time>
      </trkpt>
      <trkpt lat="42.8026710" lon="-8.6373800">
        <ele>46.1</ele>
        <time>2021-05-23T14:43:17Z</time>
      </trkpt>
      <trkpt lat="42.8026720" lon="-8.6373810">
        <ele>46.1</ele>
        <time>2021-05-23T14:43:18Z</time>
      </trkpt>
      <trkpt lat="42.8026740" lon="-8.6373820">
        <ele>46.1</ele>
        <time>2021-05-23T14:43:19Z</time>
      </trkpt>
      <trkpt lat="42.8026750" lon="-8.6373830">
        <ele>46.1</ele>
        <time>2021-05-23T14:43:20Z</time>
      </trkpt>
      <trkpt lat="42.8026760" lon="-8.6373830">
        <ele>46.1</ele>
        <time>2021-05-23T14:43:21Z</time>
      </trkpt>
      <trkpt lat="42.8026780" lon="-8.6373840">
        <ele>46.1</ele>
        <time>2021-05-23T14:43:22Z</time>
      </trkpt>
      <trkpt lat="42.8026790" lon="-8.6373850">
        <ele>46.1</ele>
        <time>2021-05-23T14:43:23Z</time>
      </trkpt>
      <trkpt lat="42.8026800" lon="-8.6373860">
        <ele>46.1</ele>
        <time>2021-05-23T14:43:24Z</time>
      </trkpt>
      <trkpt lat="42.8026820" lon="-8.6373870">
        <ele>46.1</ele>
        <time>2021-05-23T14:43:25Z</time>
      </trkpt>
      <trkpt lat="42.8026830" lon="-8.6373870">
        <ele>46.1</ele>
        <time>2021-05-23T14:43:26Z</time>
      </trkpt>
      <trkpt lat="42.8026840" lon="-8.6373880">
        <ele>46.2</ele>
        <time>2021-05-23T14:43:27Z</time>
      </trkpt>
      <trkpt lat="42.8026860" lon="-8.6373890">
        <ele>46.2</ele>
        <time>2021-05-23T14:43:28Z</time>
      </trkpt>
      <trkpt lat="42.8026870" lon="-8.6373900">
        <ele>46.2</ele>
        <time>2021-05-23T14:43:29Z</time>
      </trkpt>
      <trkpt lat="42.8026880" lon="-8.6373910">
        <ele>46.2</ele>
        <time>2021-05-23T14:43:30Z</time>
      </trkpt>
      <trkpt lat="42.8026900" lon="-8.6373910">
        <ele>46.2</ele>
        <time>2021-05-23T14:43:31Z</time>
      </trkpt>
      <trkpt lat="42.8026910" lon="-8.6373920">
        <ele>46.2</ele>
        <time>2021-05-23T14:43:32Z</time>
      </trkpt>
      <trkpt lat="42.8026920" lon="-8.6373930">
        <ele>46.2</ele>
        <time>2021-05-23T14:43:33Z</time>
      </trkpt>
      <trkpt lat="42.8026940" lon="-8.6373940">
        <ele>46.2</ele>
        <time>2021-05-23T14:43:34Z</time>
      </trkpt>
      <trkpt lat="42.8026950" lon="-8.6373950">
        <ele>46.2</ele>
        <time>2021-05-23T14:43:35Z</time>
      </trkpt>
      <trkpt lat="42.8026960" lon="-8.6373950">
        <ele>46.2</ele>
        <time>2021-05-23T14:43:36Z</time>
      </trkpt>
      <trkpt lat="42.8026980" lon="-8.6373960">
        <ele>46.2</ele>
        <time>2021-05-23T14:43:37Z</time>
      </trkpt>
      <trkpt lat="42.8026990" lon="-8.6373970">
        <ele>46.2</ele>
        <time>2021-05-23T14:43:38Z</time>
      </trkpt>
      <trkpt lat="42.8027000" lon="-8.6374020">
        <ele>46.2</ele>
        <time>2021-05-23T14:43:39Z</time>
      </trkpt>
      <trkpt lat="42.8026970" lon="-8.6374030">
        <ele>46.2</ele>
        <time>2021-05-23T14:43:40Z</time>
      </trkpt>
      <trkpt lat="42.8026960" lon="-8.6374080">
        <ele>46.2</ele>
        <time>2021-05-23T14:43:41Z</time>
      </trkpt>
      <trkpt lat="42.8026940" lon="-8.6374090">
        <ele>46.2</ele>
        <time>2021-05-23T14:43:42Z</time>
      </trkpt>
      <trkpt lat="42.8026930" lon="-8.6374090">
        <ele>46.2</ele>
        <time>2021-05-23T14:43:43Z</time>
      </trkpt>
      <trkpt lat="42.8026880" lon="-8.6374080">
        <ele>46.2</ele>
        <time>2021-05-23T14:43:44Z</time>
      </trkpt>
      <trkpt lat="42.8026840" lon="-8.6374010">
        <ele>46.2</ele>
        <time>2021-05-23T14:43:45Z</time>
      </trkpt>
      <trkpt lat="42.8026870" lon="-8.6374000">
        <ele>46.2</ele>
        <time>2021-05-23T14:43:46Z</time>
      </trkpt>
      <trkpt lat="42.8026960" lon="-8.6374010">
        <ele>46.2</ele>
        <time>2021-05-23T14:43:47Z</time>
      </trkpt>
      <trkpt lat="42.8027010" lon="-8.6374010">
        <ele>46.2</ele>
        <time>2021-05-23T14:43:48Z</time>
      </trkpt>
      <trkpt lat="42.8027080" lon="-8.6374010">
        <ele>46.2</ele>
        <time>2021-05-23T14:43:49Z</time>
      </trkpt>
      <trkpt lat="42.8027050" lon="-8.6374070">
        <ele>46.2</ele>
        <time>2021-05-23T14:43:50Z</time>
      </trkpt>
      <trkpt lat="42.8027040" lon="-8.6374130">
        <ele>46.2</ele>
        <time>2021-05-23T14:43:51Z</time>
      </trkpt>
      <trkpt lat="42.8027040" lon="-8.6374190">
        <ele>46.2</ele>
        <time>2021-05-23T14:43:52Z</time>
      </trkpt>
      <trkpt lat="42.8027030" lon="-8.6374250">
        <ele>46.2</ele>
        <time>2021-05-23T14:43:53Z</time>
      </trkpt>
      <trkpt lat="42.8026980" lon="-8.6374320">
        <ele>46.2</ele>
        <time>2021-05-23T14:43:54Z</time>
      </trkpt>
      <trkpt lat="42.8027000" lon="-8.6374360">
        <ele>46.2</ele>
        <time>2021-05-23T14:43:55Z</time>
      </trkpt>
      <trkpt lat="42.8027070" lon="-8.6374360">
        <ele>46.2</ele>
        <time>2021-05-23T14:43:56Z</time>
      </trkpt>
      <trkpt lat="42.8027180" lon="-8.6374370">
        <ele>46.2</ele>
        <time>2021-05-23T14:43:57Z</time>
      </trkpt>
      <trkpt lat="42.8027210" lon="-8.6374340">
        <ele>46.2</ele>
        <time>2021-05-23T14:43:58Z</time>
      </trkpt>
      <trkpt lat="42.8027270" lon="-8.6374330">
        <ele>46.2</ele>
        <time>2021-05-23T14:43:59Z</time>
      </trkpt>
      <trkpt lat="42.8027250" lon="-8.6374300">
        <ele>46.2</ele>
        <time>2021-05-23T14:44:00Z</time>
      </trkpt>
      <trkpt lat="42.8027220" lon="-8.6374300">
        <ele>46.2</ele>
        <time>2021-05-23T14:44:01Z</time>
      </trkpt>
      <trkpt lat="42.8027180" lon="-8.6374290">
        <ele>46.2</ele>
        <time>2021-05-23T14:44:02Z</time>
      </trkpt>
      <trkpt lat="42.8027150" lon="-8.6374260">
        <ele>46.2</ele>
        <time>2021-05-23T14:44:03Z</time>
      </trkpt>
      <trkpt lat="42.8027130" lon="-8.6374240">
        <ele>46.2</ele>
        <time>2021-05-23T14:44:04Z</time>
      </trkpt>
      <trkpt lat="42.8027090" lon="-8.6374220">
        <ele>46.2</ele>
        <time>2021-05-23T14:44:05Z</time>
      </trkpt>
      <trkpt lat="42.8027100" lon="-8.6374230">
        <ele>46.2</ele>
        <time>2021-05-23T14:44:06Z</time>
      </trkpt>
      <trkpt lat="42.8027060" lon="-8.6374200">
        <ele>46.2</ele>
        <time>2021-05-23T14:44:07Z</time>
      </trkpt>
      <trkpt lat="42.8027050" lon="-8.6374200">
        <ele>46.2</ele>
        <time>2021-05-23T14:44:08Z</time>
      </trkpt>
      <trkpt lat="42.8026960" lon="-8.6374140">
        <ele>46.2</ele>
        <time>2021-05-23T14:44:09Z</time>
      </trkpt>
      <trkpt lat="42.8026910" lon="-8.6374130">
        <ele>46.2</ele>
        <time>2021-05-23T14:44:10Z</time>
      </trkpt>
      <trkpt lat="42.8026860" lon="-8.6374110">
        <ele>46.2</ele>
        <time>2021-05-23T14:44:11Z</time>
      </trkpt>
      <trkpt lat="42.8026790" lon="-8.6374070">
        <ele>46.2</ele>
        <time>2021-05-23T14:44:12Z</time>
      </trkpt>
      <trkpt lat="42.8026810" lon="-8.6374080">
        <ele>46.2</ele>
        <time>2021-05-23T14:44:13Z</time>
      </trkpt>
      <trkpt lat="42.8026740" lon="-8.6374040">
        <ele>46.2</ele>
        <time>2021-05-23T14:44:14Z</time>
      </trkpt>
      <trkpt lat="42.8026680" lon="-8.6373980">
        <ele>46.2</ele>
        <time>2021-05-23T14:44:15Z</time>
      </trkpt>
      <trkpt lat="42.8026650" lon="-8.6373950">
        <ele>46.2</ele>
        <time>2021-05-23T14:44:16Z</time>
      </trkpt>
      <trkpt lat="42.8026660" lon="-8.6373960">
        <ele>46.2</ele>
        <time>2021-05-23T14:44:17Z</time>
      </trkpt>
      <trkpt lat="42.8026670" lon="-8.6373960">
        <ele>46.2</ele>
        <time>2021-05-23T14:44:18Z</time>
      </trkpt>
      <trkpt lat="42.8026690" lon="-8.6373960">
        <ele>46.2</ele>
        <time>2021-05-23T14:44:19Z</time>
      </trkpt>
      <trkpt lat="42.8026700" lon="-8.6373970">
        <ele>46.2</ele>
        <time>2021-05-23T14:44:20Z</time>
      </trkpt>
      <trkpt lat="42.8026710" lon="-8.6373970">
        <ele>46.2</ele>
        <time>2021-05-23T14:44:21Z</time>
      </trkpt>
      <trkpt lat="42.8026720" lon="-8.6373970">
        <ele>46.2</ele>
        <time>2021-05-23T14:44:22Z</time>
      </trkpt>
      <trkpt lat="42.8026730" lon="-8.6373980">
        <ele>46.2</ele>
        <time>2021-05-23T14:44:23Z</time>
      </trkpt>
      <trkpt lat="42.8026740" lon="-8.6373980">
        <ele>46.2</ele>
        <time>2021-05-23T14:44:24Z</time>
      </trkpt>
      <trkpt lat="42.8026750" lon="-8.6373980">
        <ele>46.2</ele>
        <time>2021-05-23T14:44:25Z</time>
      </trkpt>
      <trkpt lat="42.8026760" lon="-8.6373990">
        <ele>46.2</ele>
        <time>2021-05-23T14:44:26Z</time>
      </trkpt>
      <trkpt lat="42.8026780" lon="-8.6373990">
        <ele>46.2</ele>
        <time>2021-05-23T14:44:27Z</time>
      </trkpt>
      <trkpt lat="42.8026790" lon="-8.6373990">
        <ele>46.2</ele>
        <time>2021-05-23T14:44:28Z</time>
      </trkpt>
      <trkpt lat="42.8026800" lon="-8.6374000">
        <ele>46.2</ele>
        <time>2021-05-23T14:44:29Z</time>
      </trkpt>
      <trkpt lat="42.8026810" lon="-8.6374000">
        <ele>46.2</ele>
        <time>2021-05-23T14:44:30Z</time>
      </trkpt>
      <trkpt lat="42.8026820" lon="-8.6374000">
        <ele>46.2</ele>
        <time>2021-05-23T14:44:31Z</time>
      </trkpt>
      <trkpt lat="42.8026830" lon="-8.6374010">
        <ele>46.2</ele>
        <time>2021-05-23T14:44:32Z</time>
      </trkpt>
      <trkpt lat="42.8026840" lon="-8.6374010">
        <ele>46.2</ele>
        <time>2021-05-23T14:44:33Z</time>
      </trkpt>
      <trkpt lat="42.8026860" lon="-8.6374010">
        <ele>46.2</ele>
        <time>2021-05-23T14:44:34Z</time>
      </trkpt>
      <trkpt lat="42.8026870" lon="-8.6374010">
        <ele>46.2</ele>
        <time>2021-05-23T14:44:35Z</time>
      </trkpt>
      <trkpt lat="42.8026880" lon="-8.6374020">
        <ele>46.2</ele>
        <time>2021-05-23T14:44:36Z</time>
      </trkpt>
      <trkpt lat="42.8026890" lon="-8.6374020">
        <ele>46.2</ele>
        <time>2021-05-23T14:44:37Z</time>
      </trkpt>
      <trkpt lat="42.8026900" lon="-8.6374020">
        <ele>46.2</ele>
        <time>2021-05-23T14:44:38Z</time>
      </trkpt>
      <trkpt lat="42.8026910" lon="-8.6374030">
        <ele>46.2</ele>
        <time>2021-05-23T14:44:39Z</time>
      </trkpt>
      <trkpt lat="42.8026920" lon="-8.6374030">
        <ele>46.2</ele>
        <time>2021-05-23T14:44:40Z</time>
      </trkpt>
      <trkpt lat="42.8026940" lon="-8.6374030">
        <ele>46.2</ele>
        <time>2021-05-23T14:44:41Z</time>
      </trkpt>
      <trkpt lat="42.8026950" lon="-8.6374040">
        <ele>46.2</ele>
        <time>2021-05-23T14:44:42Z</time>
      </trkpt>
      <trkpt lat="42.8026960" lon="-8.6374040">
        <ele>46.2</ele>
        <time>2021-05-23T14:44:43Z</time>
      </trkpt>
      <trkpt lat="42.8026970" lon="-8.6374040">
        <ele>46.2</ele>
        <time>2021-05-23T14:44:44Z</time>
      </trkpt>
      <trkpt lat="42.8026980" lon="-8.6374050">
        <ele>46.2</ele>
        <time>2021-05-23T14:44:45Z</time>
      </trkpt>
      <trkpt lat="42.8026990" lon="-8.6374050">
        <ele>46.2</ele>
        <time>2021-05-23T14:44:46Z</time>
      </trkpt>
      <trkpt lat="42.8027000" lon="-8.6374050">
        <ele>46.2</ele>
        <time>2021-05-23T14:44:47Z</time>
      </trkpt>
      <trkpt lat="42.8027010" lon="-8.6374060">
        <ele>46.2</ele>
        <time>2021-05-23T14:44:48Z</time>
      </trkpt>
      <trkpt lat="42.8027030" lon="-8.6374060">
        <ele>46.2</ele>
        <time>2021-05-23T14:44:49Z</time>
      </trkpt>
      <trkpt lat="42.8027040" lon="-8.6374060">
        <ele>46.2</ele>
        <time>2021-05-23T14:44:50Z</time>
      </trkpt>
      <trkpt lat="42.8027050" lon="-8.6374070">
        <ele>46.2</ele>
        <time>2021-05-23T14:44:51Z</time>
      </trkpt>
      <trkpt lat="42.8027060" lon="-8.6374070">
        <ele>46.2</ele>
        <time>2021-05-23T14:44:52Z</time>
      </trkpt>
      <trkpt lat="42.8026900" lon="-8.6374020">
        <ele>46.2</ele>
        <time>2021-05-23T14:44:53Z</time>
      </trkpt>
      <trkpt lat="42.8026840" lon="-8.6374030">
        <ele>46.2</ele>
        <time>2021-05-23T14:44:54Z</time>
      </trkpt>
      <trkpt lat="42.8026770" lon="-8.6373970">
        <ele>46.2</ele>
        <time>2021-05-23T14:44:55Z</time>
      </trkpt>
      <trkpt lat="42.8026720" lon="-8.6373920">
        <ele>46.2</ele>
        <time>2021-05-23T14:44:56Z</time>
      </trkpt>
      <trkpt lat="42.8026680" lon="-8.6373910">
        <ele>46.2</ele>
        <time>2021-05-23T14:44:57Z</time>
      </trkpt>
      <trkpt lat="42.8026650" lon="-8.6373900">
        <ele>46.2</ele>
        <time>2021-05-23T14:44:58Z</time>
      </trkpt>
      <trkpt lat="42.8026610" lon="-8.6373890">
        <ele>46.2</ele>
        <time>2021-05-23T14:44:59Z</time>
      </trkpt>
      <trkpt lat="42.8026570" lon="-8.6373870">
        <ele>46.2</ele>
        <time>2021-05-23T14:45:00Z</time>
      </trkpt>
      <trkpt lat="42.8026530" lon="-8.6373860">
        <ele>46.2</ele>
        <time>2021-05-23T14:45:01Z</time>
      </trkpt>
      <trkpt lat="42.8026500" lon="-8.6373850">
        <ele>46.2</ele>
        <time>2021-05-23T14:45:02Z</time>
      </trkpt>
      <trkpt lat="42.8026460" lon="-8.6373840">
        <ele>46.2</ele>
        <time>2021-05-23T14:45:03Z</time>
      </trkpt>
      <trkpt lat="42.8026420" lon="-8.6373830">
        <ele>46.2</ele>
        <time>2021-05-23T14:45:04Z</time>
      </trkpt>
      <trkpt lat="42.8026550" lon="-8.6373570">
        <ele>46.2</ele>
        <time>2021-05-23T14:45:05Z</time>
      </trkpt>
      <trkpt lat="42.8026610" lon="-8.6373520">
        <ele>46.2</ele>
        <time>2021-05-23T14:45:06Z</time>
      </trkpt>
      <trkpt lat="42.8026670" lon="-8.6373460">
        <ele>46.2</ele>
        <time>2021-05-23T14:45:07Z</time>
      </trkpt>
      <trkpt lat="42.8026790" lon="-8.6373370">
        <ele>46.2</ele>
        <time>2021-05-23T14:45:08Z</time>
      </trkpt>
      <trkpt lat="42.8026920" lon="-8.6373310">
        <ele>46.2</ele>
        <time>2021-05-23T14:45:09Z</time>
      </trkpt>
      <trkpt lat="42.8027290" lon="-8.6373240">
        <ele>46.2</ele>
        <time>2021-05-23T14:45:10Z</time>
      </trkpt>
      <trkpt lat="42.8027410" lon="-8.6373230">
        <ele>46.2</ele>
        <time>2021-05-23T14:45:11Z</time>
      </trkpt>
      <trkpt lat="42.8027500" lon="-8.6373190">
        <ele>46.2</ele>
        <time>2021-05-23T14:45:12Z</time>
      </trkpt>
      <trkpt lat="42.8027620" lon="-8.6373130">
        <ele>46.2</ele>
        <time>2021-05-23T14:45:13Z</time>
      </trkpt>
      <trkpt lat="42.8027700" lon="-8.6373120">
        <ele>46.2</ele>
        <time>2021-05-23T14:45:14Z</time>
      </trkpt>
      <trkpt lat="42.8027700" lon="-8.6373030">
        <ele>46.2</ele>
        <time>2021-05-23T14:45:15Z</time>
      </trkpt>
      <trkpt lat="42.8027750" lon="-8.6372860">
        <ele>46.2</ele>
        <time>2021-05-23T14:45:16Z</time>
      </trkpt>
      <trkpt lat="42.8027760" lon="-8.6372760">
        <ele>46.2</ele>
        <time>2021-05-23T14:45:17Z</time>
      </trkpt>
      <trkpt lat="42.8027770" lon="-8.6372710">
        <ele>46.2</ele>
        <time>2021-05-23T14:45:18Z</time>
      </trkpt>
      <trkpt lat="42.8027860" lon="-8.6372590">
        <ele>46.2</ele>
        <time>2021-05-23T14:45:19Z</time>
      </trkpt>
      <trkpt lat="42.8027890" lon="-8.6372410">
        <ele>46.2</ele>
        <time>2021-05-23T14:45:20Z</time>
      </trkpt>
      <trkpt lat="42.8028000" lon="-8.6372310">
        <ele>46.2</ele>
        <time>2021-05-23T14:45:21Z</time>
      </trkpt>
      <trkpt lat="42.8028120" lon="-8.6372210">
        <ele>46.2</ele>
        <time>2021-05-23T14:45:22Z</time>
      </trkpt>
      <trkpt lat="42.8028290" lon="-8.6372020">
        <ele>46.2</ele>
        <time>2021-05-23T14:45:23Z</time>
      </trkpt>
      <trkpt lat="42.8028350" lon="-8.6371940">
        <ele>46.2</ele>
        <time>2021-05-23T14:45:24Z</time>
      </trkpt>
      <trkpt lat="42.8028420" lon="-8.6371850">
        <ele>46.2</ele>
        <time>2021-05-23T14:45:25Z</time>
      </trkpt>
      <trkpt lat="42.8028560" lon="-8.6371730">
        <ele>46.2</ele>
        <time>2021-05-23T14:45:26Z</time>
      </trkpt>
      <trkpt lat="42.8028600" lon="-8.6371710">
        <ele>46.2</ele>
        <time>2021-05-23T14:45:27Z</time>
      </trkpt>
      <trkpt lat="42.8028640" lon="-8.6371690">
        <ele>46.2</ele>
        <time>2021-05-23T14:45:28Z</time>
      </trkpt>
      <trkpt lat="42.8028670" lon="-8.6371660">
        <ele>46.2</ele>
        <time>2021-05-23T14:45:29Z</time>
      </trkpt>
      <trkpt lat="42.8028710" lon="-8.6371640">
        <ele>46.2</ele>
        <time>2021-05-23T14:45:30Z</time>
      </trkpt>
      <trkpt lat="42.8028750" lon="-8.6371620">
        <ele>46.2</ele>
        <time>2021-05-23T14:45:31Z</time>
      </trkpt>
      <trkpt lat="42.8029020" lon="-8.6371430">
        <ele>46.2</ele>
        <time>2021-05-23T14:45:32Z</time>
      </trkpt>
      <trkpt lat="42.8029160" lon="-8.6371370">
        <ele>46.2</ele>
        <time>2021-05-23T14:45:33Z</time>
      </trkpt>
      <trkpt lat="42.8029280" lon="-8.6371240">
        <ele>46.2</ele>
        <time>2021-05-23T14:45:34Z</time>
      </trkpt>
      <trkpt lat="42.8029430" lon="-8.6371220">
        <ele>46.2</ele>
        <time>2021-05-23T14:45:35Z</time>
      </trkpt>
      <trkpt lat="42.8029570" lon="-8.6371150">
        <ele>46.2</ele>
        <time>2021-05-23T14:45:36Z</time>
      </trkpt>
      <trkpt lat="42.8029690" lon="-8.6371050">
        <ele>46.2</ele>
        <time>2021-05-23T14:45:37Z</time>
      </trkpt>
      <trkpt lat="42.8029820" lon="-8.6371000">
        <ele>46.2</ele>
        <time>2021-05-23T14:45:38Z</time>
      </trkpt>
      <trkpt lat="42.8029950" lon="-8.6370930">
        <ele>46.2</ele>
        <time>2021-05-23T14:45:39Z</time>
      </trkpt>
      <trkpt lat="42.8030070" lon="-8.6370820">
        <ele>46.2</ele>
        <time>2021-05-23T14:45:40Z</time>
      </trkpt>
      <trkpt lat="42.8030180" lon="-8.6370700">
        <ele>46.2</ele>
        <time>2021-05-23T14:45:41Z</time>
      </trkpt>
      <trkpt lat="42.8030260" lon="-8.6370460">
        <ele>46.2</ele>
        <time>2021-05-23T14:45:42Z</time>
      </trkpt>
      <trkpt lat="42.8030320" lon="-8.6370250">
        <ele>46.2</ele>
        <time>2021-05-23T14:45:43Z</time>
      </trkpt>
      <trkpt lat="42.8030400" lon="-8.6370100">
        <ele>46.2</ele>
        <time>2021-05-23T14:45:44Z</time>
      </trkpt>
      <trkpt lat="42.8030450" lon="-8.6369910">
        <ele>46.2</ele>
        <time>2021-05-23T14:45:45Z</time>
      </trkpt>
      <trkpt lat="42.8030480" lon="-8.6369700">
        <ele>46.2</ele>
        <time>2021-05-23T14:45:46Z</time>
      </trkpt>
      <trkpt lat="42.8030520" lon="-8.6369500">
        <ele>46.2</ele>
        <time>2021-05-23T14:45:47Z</time>
      </trkpt>
      <trkpt lat="42.8030610" lon="-8.6369370">
        <ele>46.2</ele>
        <time>2021-05-23T14:45:48Z</time>
      </trkpt>
      <trkpt lat="42.8030720" lon="-8.6369230">
        <ele>46.2</ele>
        <time>2021-05-23T14:45:49Z</time>
      </trkpt>
      <trkpt lat="42.8030790" lon="-8.6369090">
        <ele>46.2</ele>
        <time>2021-05-23T14:45:50Z</time>
      </trkpt>
      <trkpt lat="42.8030860" lon="-8.6368910">
        <ele>46.2</ele>
        <time>2021-05-23T14:45:51Z</time>
      </trkpt>
      <trkpt lat="42.8030930" lon="-8.6368740">
        <ele>46.2</ele>
        <time>2021-05-23T14:45:52Z</time>
      </trkpt>
      <trkpt lat="42.8030970" lon="-8.6368560">
        <ele>46.2</ele>
        <time>2021-05-23T14:45:53Z</time>
      </trkpt>
      <trkpt lat="42.8030990" lon="-8.6368370">
        <ele>46.2</ele>
        <time>2021-05-23T14:45:54Z</time>
      </trkpt>
      <trkpt lat="42.8030980" lon="-8.6368280">
        <ele>46.2</ele>
        <time>2021-05-23T14:45:55Z</time>
      </trkpt>
      <trkpt lat="42.8030950" lon="-8.6368210">
        <ele>46.2</ele>
        <time>2021-05-23T14:45:56Z</time>
      </trkpt>
      <trkpt lat="42.8030940" lon="-8.6368150">
        <ele>46.2</ele>
        <time>2021-05-23T14:45:57Z</time>
      </trkpt>
      <trkpt lat="42.8030910" lon="-8.6368080">
        <ele>46.2</ele>
        <time>2021-05-23T14:45:58Z</time>
      </trkpt>
      <trkpt lat="42.8030920" lon="-8.6367960">
        <ele>46.2</ele>
        <time>2021-05-23T14:45:59Z</time>
      </trkpt>
      <trkpt lat="42.8030930" lon="-8.6367900">
        <ele>46.2</ele>
        <time>2021-05-23T14:46:00Z</time>
      </trkpt>
      <trkpt lat="42.8030940" lon="-8.6367790">
        <ele>46.2</ele>
        <time>2021-05-23T14:46:01Z</time>
      </trkpt>
      <trkpt lat="42.8030970" lon="-8.6367740">
        <ele>46.2</ele>
        <time>2021-05-23T14:46:02Z</time>
      </trkpt>
      <trkpt lat="42.8030980" lon="-8.6367740">
        <ele>46.2</ele>
        <time>2021-05-23T14:46:03Z</time>
      </trkpt>
      <trkpt lat="42.8030970" lon="-8.6367780">
        <ele>46.2</ele>
        <time>2021-05-23T14:46:04Z</time>
      </trkpt>
      <trkpt lat="42.8030970" lon="-8.6367810">
        <ele>46.2</ele>
        <time>2021-05-23T14:46:05Z</time>
      </trkpt>
      <trkpt lat="42.8030980" lon="-8.6367830">
        <ele>46.2</ele>
        <time>2021-05-23T14:46:06Z</time>
      </trkpt>
      <trkpt lat="42.8031010" lon="-8.6367850">
        <ele>46.2</ele>
        <time>2021-05-23T14:46:07Z</time>
      </trkpt>
      <trkpt lat="42.8031030" lon="-8.6367890">
        <ele>46.2</ele>
        <time>2021-05-23T14:46:08Z</time>
      </trkpt>
      <trkpt lat="42.8031010" lon="-8.6367910">
        <ele>46.2</ele>
        <time>2021-05-23T14:46:09Z</time>
      </trkpt>
      <trkpt lat="42.8031090" lon="-8.6367920">
        <ele>46.2</ele>
        <time>2021-05-23T14:46:10Z</time>
      </trkpt>
      <trkpt lat="42.8031150" lon="-8.6367940">
        <ele>46.2</ele>
        <time>2021-05-23T14:46:11Z</time>
      </trkpt>
      <trkpt lat="42.8031190" lon="-8.6367930">
        <ele>46.2</ele>
        <time>2021-05-23T14:46:12Z</time>
      </trkpt>
      <trkpt lat="42.8031210" lon="-8.6367950">
        <ele>46.2</ele>
        <time>2021-05-23T14:46:13Z</time>
      </trkpt>
      <trkpt lat="42.8031270" lon="-8.6368060">
        <ele>46.2</ele>
        <time>2021-05-23T14:46:15Z</time>
      </trkpt>
      <trkpt lat="42.8031310" lon="-8.6368100">
        <ele>46.2</ele>
        <time>2021-05-23T14:46:16Z</time>
      </trkpt>
      <trkpt lat="42.8031360" lon="-8.6368150">
        <ele>46.2</ele>
        <time>2021-05-23T14:46:17Z</time>
      </trkpt>
      <trkpt lat="42.8031370" lon="-8.6368220">
        <ele>46.2</ele>
        <time>2021-05-23T14:46:19Z</time>
      </trkpt>
      <trkpt lat="42.8031370" lon="-8.6368270">
        <ele>46.2</ele>
        <time>2021-05-23T14:46:20Z</time>
      </trkpt>
      <trkpt lat="42.8031360" lon="-8.6368240">
        <ele>46.2</ele>
        <time>2021-05-23T14:46:21Z</time>
      </trkpt>
      <trkpt lat="42.8031390" lon="-8.6368190">
        <ele>46.2</ele>
        <time>2021-05-23T14:46:22Z</time>
      </trkpt>
      <trkpt lat="42.8031330" lon="-8.6368110">
        <ele>46.2</ele>
        <time>2021-05-23T14:46:23Z</time>
      </trkpt>
      <trkpt lat="42.8031320" lon="-8.6368050">
        <ele>46.2</ele>
        <time>2021-05-23T14:46:24Z</time>
      </trkpt>
      <trkpt lat="42.8031260" lon="-8.6368020">
        <ele>46.2</ele>
        <time>2021-05-23T14:46:25Z</time>
      </trkpt>
      <trkpt lat="42.8031250" lon="-8.6368020">
        <ele>46.2</ele>
        <time>2021-05-23T14:46:26Z</time>
      </trkpt>
      <trkpt lat="42.8031270" lon="-8.6368040">
        <ele>46.2</ele>
        <time>2021-05-23T14:46:27Z</time>
      </trkpt>
      <trkpt lat="42.8031310" lon="-8.6368080">
        <ele>46.2</ele>
        <time>2021-05-23T14:46:28Z</time>
      </trkpt>
      <trkpt lat="42.8031340" lon="-8.6368100">
        <ele>46.2</ele>
        <time>2021-05-23T14:46:29Z</time>
      </trkpt>
      <trkpt lat="42.8031440" lon="-8.6368130">
        <ele>46.2</ele>
        <time>2021-05-23T14:46:30Z</time>
      </trkpt>
      <trkpt lat="42.8031440" lon="-8.6368110">
        <ele>46.2</ele>
        <time>2021-05-23T14:46:31Z</time>
      </trkpt>
      <trkpt lat="42.8031420" lon="-8.6368070">
        <ele>46.2</ele>
        <time>2021-05-23T14:46:32Z</time>
      </trkpt>
      <trkpt lat="42.8031380" lon="-8.6368050">
        <ele>46.2</ele>
        <time>2021-05-23T14:46:33Z</time>
      </trkpt>
      <trkpt lat="42.8031380" lon="-8.6368030">
        <ele>46.2</ele>
        <time>2021-05-23T14:46:34Z</time>
      </trkpt>
      <trkpt lat="42.8031310" lon="-8.6368030">
        <ele>46.2</ele>
        <time>2021-05-23T14:46:35Z</time>
      </trkpt>
      <trkpt lat="42.8031290" lon="-8.6368010">
        <ele>46.2</ele>
        <time>2021-05-23T14:46:36Z</time>
      </trkpt>
      <trkpt lat="42.8031330" lon="-8.6367990">
        <ele>46.2</ele>
        <time>2021-05-23T14:46:37Z</time>
      </trkpt>
      <trkpt lat="42.8031340" lon="-8.6367970">
        <ele>46.2</ele>
        <time>2021-05-23T14:46:38Z</time>
      </trkpt>
      <trkpt lat="42.8031360" lon="-8.6367940">
        <ele>46.2</ele>
        <time>2021-05-23T14:46:39Z</time>
      </trkpt>
      <trkpt lat="42.8031370" lon="-8.6367920">
        <ele>46.2</ele>
        <time>2021-05-23T14:46:40Z</time>
      </trkpt>
      <trkpt lat="42.8031380" lon="-8.6367940">
        <ele>46.2</ele>
        <time>2021-05-23T14:46:41Z</time>
      </trkpt>
      <trkpt lat="42.8031340" lon="-8.6367960">
        <ele>46.2</ele>
        <time>2021-05-23T14:46:42Z</time>
      </trkpt>
      <trkpt lat="42.8031330" lon="-8.6367960">
        <ele>46.2</ele>
        <time>2021-05-23T14:46:43Z</time>
      </trkpt>
      <trkpt lat="42.8031320" lon="-8.6367970">
        <ele>46.2</ele>
        <time>2021-05-23T14:46:44Z</time>
      </trkpt>
      <trkpt lat="42.8031290" lon="-8.6367970">
        <ele>46.2</ele>
        <time>2021-05-23T14:46:45Z</time>
      </trkpt>
      <trkpt lat="42.8031300" lon="-8.6367970">
        <ele>46.2</ele>
        <time>2021-05-23T14:46:46Z</time>
      </trkpt>
      <trkpt lat="42.8031280" lon="-8.6367950">
        <ele>46.2</ele>
        <time>2021-05-23T14:46:47Z</time>
      </trkpt>
      <trkpt lat="42.8031290" lon="-8.6367930">
        <ele>46.2</ele>
        <time>2021-05-23T14:46:48Z</time>
      </trkpt>
      <trkpt lat="42.8031290" lon="-8.6367930">
        <ele>46.2</ele>
        <time>2021-05-23T14:46:49Z</time>
      </trkpt>
      <trkpt lat="42.8031340" lon="-8.6367920">
        <ele>46.2</ele>
        <time>2021-05-23T14:46:50Z</time>
      </trkpt>
      <trkpt lat="42.8031380" lon="-8.6367930">
        <ele>46.2</ele>
        <time>2021-05-23T14:46:51Z</time>
      </trkpt>
      <trkpt lat="42.8031410" lon="-8.6367930">
        <ele>46.2</ele>
        <time>2021-05-23T14:46:52Z</time>
      </trkpt>
      <trkpt lat="42.8031440" lon="-8.6367940">
        <ele>46.2</ele>
        <time>2021-05-23T14:46:53Z</time>
      </trkpt>
      <trkpt lat="42.8031460" lon="-8.6367950">
        <ele>46.2</ele>
        <time>2021-05-23T14:46:54Z</time>
      </trkpt>
      <trkpt lat="42.8031500" lon="-8.6367960">
        <ele>46.2</ele>
        <time>2021-05-23T14:46:55Z</time>
      </trkpt>
      <trkpt lat="42.8031600" lon="-8.6368000">
        <ele>46.2</ele>
        <time>2021-05-23T14:46:56Z</time>
      </trkpt>
      <trkpt lat="42.8031680" lon="-8.6368030">
        <ele>46.2</ele>
        <time>2021-05-23T14:46:57Z</time>
      </trkpt>
      <trkpt lat="42.8031770" lon="-8.6368060">
        <ele>46.2</ele>
        <time>2021-05-23T14:46:58Z</time>
      </trkpt>
      <trkpt lat="42.8031870" lon="-8.6368090">
        <ele>46.2</ele>
        <time>2021-05-23T14:46:59Z</time>
      </trkpt>
      <trkpt lat="42.8032050" lon="-8.6368150">
        <ele>46.2</ele>
        <time>2021-05-23T14:47:00Z</time>
      </trkpt>
      <trkpt lat="42.8032050" lon="-8.6368150">
        <ele>46.2</ele>
        <time>2021-05-23T14:47:01Z</time>
      </trkpt>
      <trkpt lat="42.8032100" lon="-8.6368160">
        <ele>46.2</ele>
        <time>2021-05-23T14:47:02Z</time>
      </trkpt>
      <trkpt lat="42.8032130" lon="-8.6368150">
        <ele>46.2</ele>
        <time>2021-05-23T14:47:03Z</time>
      </trkpt>
      <trkpt lat="42.8032140" lon="-8.6368160">
        <ele>46.2</ele>
        <time>2021-05-23T14:47:04Z</time>
      </trkpt>
      <trkpt lat="42.8032100" lon="-8.6368190">
        <ele>46.2</ele>
        <time>2021-05-23T14:47:05Z</time>
      </trkpt>
      <trkpt lat="42.8031940" lon="-8.6368190">
        <ele>46.2</ele>
        <time>2021-05-23T14:47:06Z</time>
      </trkpt>
      <trkpt lat="42.8031890" lon="-8.6368200">
        <ele>46.2</ele>
        <time>2021-05-23T14:47:07Z</time>
      </trkpt>
      <trkpt lat="42.8031780" lon="-8.6368190">
        <ele>46.2</ele>
        <time>2021-05-23T14:47:08Z</time>
      </trkpt>
      <trkpt lat="42.8031690" lon="-8.6368220">
        <ele>46.2</ele>
        <time>2021-05-23T14:47:09Z</time>
      </trkpt>
      <trkpt lat="42.8031710" lon="-8.6368240">
        <ele>46.2</ele>
        <time>2021-05-23T14:47:10Z</time>
      </trkpt>
      <trkpt lat="42.8031700" lon="-8.6368230">
        <ele>46.2</ele>
        <time>2021-05-23T14:47:11Z</time>
      </trkpt>
      <trkpt lat="42.8031660" lon="-8.6368230">
        <ele>46.2</ele>
        <time>2021-05-23T14:47:12Z</time>
      </trkpt>
      <trkpt lat="42.8031630" lon="-8.6368200">
        <ele>46.2</ele>
        <time>2021-05-23T14:47:13Z</time>
      </trkpt>
      <trkpt lat="42.8031570" lon="-8.6368210">
        <ele>46.2</ele>
        <time>2021-05-23T14:47:14Z</time>
      </trkpt>
      <trkpt lat="42.8031540" lon="-8.6368230">
        <ele>46.2</ele>
        <time>2021-05-23T14:47:15Z</time>
      </trkpt>
      <trkpt lat="42.8031490" lon="-8.6368190">
        <ele>46.2</ele>
        <time>2021-05-23T14:47:16Z</time>
      </trkpt>
      <trkpt lat="42.8031380" lon="-8.6368150">
        <ele>46.2</ele>
        <time>2021-05-23T14:47:17Z</time>
      </trkpt>
      <trkpt lat="42.8031370" lon="-8.6368150">
        <ele>46.2</ele>
        <time>2021-05-23T14:47:18Z</time>
      </trkpt>
      <trkpt lat="42.8031360" lon="-8.6368140">
        <ele>46.2</ele>
        <time>2021-05-23T14:47:19Z</time>
      </trkpt>
      <trkpt lat="42.8031350" lon="-8.6368130">
        <ele>46.2</ele>
        <time>2021-05-23T14:47:20Z</time>
      </trkpt>
      <trkpt lat="42.8031340" lon="-8.6368130">
        <ele>46.2</ele>
        <time>2021-05-23T14:47:21Z</time>
      </trkpt>
      <trkpt lat="42.8031330" lon="-8.6368120">
        <ele>46.2</ele>
        <time>2021-05-23T14:47:22Z</time>
      </trkpt>
      <trkpt lat="42.8031320" lon="-8.6368110">
        <ele>46.2</ele>
        <time>2021-05-23T14:47:23Z</time>
      </trkpt>
      <trkpt lat="42.8031310" lon="-8.6368110">
        <ele>46.2</ele>
        <time>2021-05-23T14:47:24Z</time>
      </trkpt>
      <trkpt lat="42.8031300" lon="-8.6368100">
        <ele>46.2</ele>
        <time>2021-05-23T14:47:25Z</time>
      </trkpt>
      <trkpt lat="42.8031290" lon="-8.6368090">
        <ele>46.2</ele>
        <time>2021-05-23T14:47:26Z</time>
      </trkpt>
      <trkpt lat="42.8031280" lon="-8.6368080">
        <ele>46.2</ele>
        <time>2021-05-23T14:47:27Z</time>
      </trkpt>
      <trkpt lat="42.8031280" lon="-8.6368080">
        <ele>46.2</ele>
        <time>2021-05-23T14:47:28Z</time>
      </trkpt>
      <trkpt lat="42.8031270" lon="-8.6368070">
        <ele>46.2</ele>
        <time>2021-05-23T14:47:29Z</time>
      </trkpt>
      <trkpt lat="42.8031260" lon="-8.6368060">
        <ele>46.2</ele>
        <time>2021-05-23T14:47:30Z</time>
      </trkpt>
      <trkpt lat="42.8031250" lon="-8.6368060">
        <ele>46.2</ele>
        <time>2021-05-23T14:47:31Z</time>
      </trkpt>
      <trkpt lat="42.8031240" lon="-8.6368050">
        <ele>46.2</ele>
        <time>2021-05-23T14:47:32Z</time>
      </trkpt>
      <trkpt lat="42.8031230" lon="-8.6368040">
        <ele>46.2</ele>
        <time>2021-05-23T14:47:33Z</time>
      </trkpt>
      <trkpt lat="42.8031220" lon="-8.6368040">
        <ele>46.2</ele>
        <time>2021-05-23T14:47:34Z</time>
      </trkpt>
      <trkpt lat="42.8031210" lon="-8.6368030">
        <ele>46.2</ele>
        <time>2021-05-23T14:47:35Z</time>
      </trkpt>
      <trkpt lat="42.8031200" lon="-8.6368020">
        <ele>46.2</ele>
        <time>2021-05-23T14:47:36Z</time>
      </trkpt>
      <trkpt lat="42.8031190" lon="-8.6368020">
        <ele>46.2</ele>
        <time>2021-05-23T14:47:37Z</time>
      </trkpt>
      <trkpt lat="42.8031180" lon="-8.6368010">
        <ele>46.2</ele>
        <time>2021-05-23T14:47:38Z</time>
      </trkpt>
      <trkpt lat="42.8031170" lon="-8.6368000">
        <ele>46.2</ele>
        <time>2021-05-23T14:47:39Z</time>
      </trkpt>
      <trkpt lat="42.8031160" lon="-8.6368000">
        <ele>46.2</ele>
        <time>2021-05-23T14:47:40Z</time>
      </trkpt>
      <trkpt lat="42.8031150" lon="-8.6367990">
        <ele>46.2</ele>
        <time>2021-05-23T14:47:41Z</time>
      </trkpt>
      <trkpt lat="42.8031140" lon="-8.6367980">
        <ele>46.2</ele>
        <time>2021-05-23T14:47:42Z</time>
      </trkpt>
      <trkpt lat="42.8031130" lon="-8.6367980">
        <ele>46.2</ele>
        <time>2021-05-23T14:47:43Z</time>
      </trkpt>
      <trkpt lat="42.8031120" lon="-8.6367970">
        <ele>46.2</ele>
        <time>2021-05-23T14:47:44Z</time>
      </trkpt>
      <trkpt lat="42.8031110" lon="-8.6367960">
        <ele>46.2</ele>
        <time>2021-05-23T14:47:46Z</time>
      </trkpt>
      <trkpt lat="42.8031100" lon="-8.6367950">
        <ele>46.2</ele>
        <time>2021-05-23T14:47:47Z</time>
      </trkpt>
      <trkpt lat="42.8031090" lon="-8.6367950">
        <ele>46.2</ele>
        <time>2021-05-23T14:47:48Z</time>
      </trkpt>
      <trkpt lat="42.8031080" lon="-8.6367940">
        <ele>46.2</ele>
        <time>2021-05-23T14:47:49Z</time>
      </trkpt>
      <trkpt lat="42.8031070" lon="-8.6367930">
        <ele>46.2</ele>
        <time>2021-05-23T14:47:50Z</time>
      </trkpt>
      <trkpt lat="42.8031060" lon="-8.6367930">
        <ele>46.2</ele>
        <time>2021-05-23T14:47:51Z</time>
      </trkpt>
      <trkpt lat="42.8031050" lon="-8.6367920">
        <ele>46.2</ele>
        <time>2021-05-23T14:47:52Z</time>
      </trkpt>
      <trkpt lat="42.8031050" lon="-8.6367910">
        <ele>46.2</ele>
        <time>2021-05-23T14:47:53Z</time>
      </trkpt>
      <trkpt lat="42.8031040" lon="-8.6367910">
        <ele>46.2</ele>
        <time>2021-05-23T14:47:54Z</time>
      </trkpt>
      <trkpt lat="42.8031030" lon="-8.6367900">
        <ele>46.2</ele>
        <time>2021-05-23T14:47:55Z</time>
      </trkpt>
      <trkpt lat="42.8031020" lon="-8.6367890">
        <ele>46.2</ele>
        <time>2021-05-23T14:47:56Z</time>
      </trkpt>
      <trkpt lat="42.8031010" lon="-8.6367890">
        <ele>46.2</ele>
        <time>2021-05-23T14:47:57Z</time>
      </trkpt>
      <trkpt lat="42.8031000" lon="-8.6367880">
        <ele>46.2</ele>
        <time>2021-05-23T14:47:58Z</time>
      </trkpt>
      <trkpt lat="42.8030990" lon="-8.6367870">
        <ele>46.2</ele>
        <time>2021-05-23T14:47:59Z</time>
      </trkpt>
      <trkpt lat="42.8030980" lon="-8.6367870">
        <ele>46.2</ele>
        <time>2021-05-23T14:48:00Z</time>
      </trkpt>
      <trkpt lat="42.8030970" lon="-8.6367860">
        <ele>46.2</ele>
        <time>2021-05-23T14:48:01Z</time>
      </trkpt>
      <trkpt lat="42.8030960" lon="-8.6367850">
        <ele>46.2</ele>
        <time>2021-05-23T14:48:02Z</time>
      </trkpt>
      <trkpt lat="42.8030950" lon="-8.6367850">
        <ele>46.2</ele>
        <time>2021-05-23T14:48:03Z</time>
      </trkpt>
      <trkpt lat="42.8030940" lon="-8.6367840">
        <ele>46.2</ele>
        <time>2021-05-23T14:48:04Z</time>
      </trkpt>
      <trkpt lat="42.8030930" lon="-8.6367830">
        <ele>46.2</ele>
        <time>2021-05-23T14:48:05Z</time>
      </trkpt>
      <trkpt lat="42.8030920" lon="-8.6367820">
        <ele>46.2</ele>
        <time>2021-05-23T14:48:06Z</time>
      </trkpt>
      <trkpt lat="42.8030910" lon="-8.6367820">
        <ele>46.2</ele>
        <time>2021-05-23T14:48:07Z</time>
      </trkpt>
      <trkpt lat="42.8030900" lon="-8.6367810">
        <ele>46.2</ele>
        <time>2021-05-23T14:48:08Z</time>
      </trkpt>
      <trkpt lat="42.8030890" lon="-8.6367800">
        <ele>46.2</ele>
        <time>2021-05-23T14:48:09Z</time>
      </trkpt>
      <trkpt lat="42.8030880" lon="-8.6367800">
        <ele>46.2</ele>
        <time>2021-05-23T14:48:10Z</time>
      </trkpt>
      <trkpt lat="42.8030870" lon="-8.6367790">
        <ele>46.2</ele>
        <time>2021-05-23T14:48:11Z</time>
      </trkpt>
      <trkpt lat="42.8030860" lon="-8.6367780">
        <ele>46.2</ele>
        <time>2021-05-23T14:48:12Z</time>
      </trkpt>
      <trkpt lat="42.8030850" lon="-8.6367780">
        <ele>46.2</ele>
        <time>2021-05-23T14:48:13Z</time>
      </trkpt>
      <trkpt lat="42.8030840" lon="-8.6367770">
        <ele>46.2</ele>
        <time>2021-05-23T14:48:14Z</time>
      </trkpt>
      <trkpt lat="42.8030830" lon="-8.6367760">
        <ele>46.2</ele>
        <time>2021-05-23T14:48:15Z</time>
      </trkpt>
      <trkpt lat="42.8030820" lon="-8.6367760">
        <ele>46.2</ele>
        <time>2021-05-23T14:48:16Z</time>
      </trkpt>
      <trkpt lat="42.8030820" lon="-8.6367750">
        <ele>46.2</ele>
        <time>2021-05-23T14:48:17Z</time>
      </trkpt>
      <trkpt lat="42.8030810" lon="-8.6367740">
        <ele>46.2</ele>
        <time>2021-05-23T14:48:18Z</time>
      </trkpt>
      <trkpt lat="42.8030800" lon="-8.6367740">
        <ele>46.2</ele>
        <time>2021-05-23T14:48:19Z</time>
      </trkpt>
      <trkpt lat="42.8030790" lon="-8.6367730">
        <ele>46.2</ele>
        <time>2021-05-23T14:48:20Z</time>
      </trkpt>
      <trkpt lat="42.8030780" lon="-8.6367720">
        <ele>46.2</ele>
        <time>2021-05-23T14:48:21Z</time>
      </trkpt>
      <trkpt lat="42.8030770" lon="-8.6367720">
        <ele>46.2</ele>
        <time>2021-05-23T14:48:22Z</time>
      </trkpt>
      <trkpt lat="42.8030760" lon="-8.6367710">
        <ele>46.2</ele>
        <time>2021-05-23T14:48:23Z</time>
      </trkpt>
      <trkpt lat="42.8030750" lon="-8.6367700">
        <ele>46.2</ele>
        <time>2021-05-23T14:48:24Z</time>
      </trkpt>
      <trkpt lat="42.8030740" lon="-8.6367690">
        <ele>46.2</ele>
        <time>2021-05-23T14:48:25Z</time>
      </trkpt>
      <trkpt lat="42.8030730" lon="-8.6367690">
        <ele>46.2</ele>
        <time>2021-05-23T14:48:26Z</time>
      </trkpt>
      <trkpt lat="42.8030720" lon="-8.6367680">
        <ele>46.2</ele>
        <time>2021-05-23T14:48:27Z</time>
      </trkpt>
      <trkpt lat="42.8030710" lon="-8.6367670">
        <ele>46.2</ele>
        <time>2021-05-23T14:48:28Z</time>
      </trkpt>
      <trkpt lat="42.8030700" lon="-8.6367670">
        <ele>46.2</ele>
        <time>2021-05-23T14:48:29Z</time>
      </trkpt>
      <trkpt lat="42.8030690" lon="-8.6367660">
        <ele>46.2</ele>
        <time>2021-05-23T14:48:30Z</time>
      </trkpt>
      <trkpt lat="42.8030680" lon="-8.6367650">
        <ele>46.2</ele>
        <time>2021-05-23T14:48:31Z</time>
      </trkpt>
      <trkpt lat="42.8030670" lon="-8.6367650">
        <ele>46.2</ele>
        <time>2021-05-23T14:48:32Z</time>
      </trkpt>
      <trkpt lat="42.8030660" lon="-8.6367640">
        <ele>46.2</ele>
        <time>2021-05-23T14:48:33Z</time>
      </trkpt>
      <trkpt lat="42.8030650" lon="-8.6367630">
        <ele>46.2</ele>
        <time>2021-05-23T14:48:34Z</time>
      </trkpt>
      <trkpt lat="42.8030640" lon="-8.6367630">
        <ele>46.2</ele>
        <time>2021-05-23T14:48:35Z</time>
      </trkpt>
      <trkpt lat="42.8030630" lon="-8.6367620">
        <ele>46.2</ele>
        <time>2021-05-23T14:48:36Z</time>
      </trkpt>
      <trkpt lat="42.8030620" lon="-8.6367610">
        <ele>46.2</ele>
        <time>2021-05-23T14:48:37Z</time>
      </trkpt>
      <trkpt lat="42.8030610" lon="-8.6367610">
        <ele>46.2</ele>
        <time>2021-05-23T14:48:38Z</time>
      </trkpt>
      <trkpt lat="42.8030600" lon="-8.6367600">
        <ele>46.2</ele>
        <time>2021-05-23T14:48:39Z</time>
      </trkpt>
      <trkpt lat="42.8030590" lon="-8.6367590">
        <ele>46.2</ele>
        <time>2021-05-23T14:48:40Z</time>
      </trkpt>
      <trkpt lat="42.8030590" lon="-8.6367590">
        <ele>46.2</ele>
        <time>2021-05-23T14:48:41Z</time>
      </trkpt>
      <trkpt lat="42.8030580" lon="-8.6367580">
        <ele>46.2</ele>
        <time>2021-05-23T14:48:42Z</time>
      </trkpt>
      <trkpt lat="42.8030570" lon="-8.6367570">
        <ele>46.2</ele>
        <time>2021-05-23T14:48:43Z</time>
      </trkpt>
      <trkpt lat="42.8030560" lon="-8.6367560">
        <ele>46.2</ele>
        <time>2021-05-23T14:48:44Z</time>
      </trkpt>
      <trkpt lat="42.8030550" lon="-8.6367560">
        <ele>46.2</ele>
        <time>2021-05-23T14:48:45Z</time>
      </trkpt>
      <trkpt lat="42.8030540" lon="-8.6367550">
        <ele>46.2</ele>
        <time>2021-05-23T14:48:46Z</time>
      </trkpt>
      <trkpt lat="42.8030530" lon="-8.6367540">
        <ele>46.2</ele>
        <time>2021-05-23T14:48:47Z</time>
      </trkpt>
      <trkpt lat="42.8030520" lon="-8.6367540">
        <ele>46.2</ele>
        <time>2021-05-23T14:48:48Z</time>
      </trkpt>
      <trkpt lat="42.8030510" lon="-8.6367530">
        <ele>46.2</ele>
        <time>2021-05-23T14:48:49Z</time>
      </trkpt>
      <trkpt lat="42.8030500" lon="-8.6367520">
        <ele>46.2</ele>
        <time>2021-05-23T14:48:50Z</time>
      </trkpt>
      <trkpt lat="42.8030490" lon="-8.6367520">
        <ele>46.2</ele>
        <time>2021-05-23T14:48:51Z</time>
      </trkpt>
      <trkpt lat="42.8030480" lon="-8.6367510">
        <ele>46.2</ele>
        <time>2021-05-23T14:48:52Z</time>
      </trkpt>
      <trkpt lat="42.8030430" lon="-8.6367520">
        <ele>46.2</ele>
        <time>2021-05-23T14:48:53Z</time>
      </trkpt>
      <trkpt lat="42.8030410" lon="-8.6367480">
        <ele>46.2</ele>
        <time>2021-05-23T14:48:54Z</time>
      </trkpt>
      <trkpt lat="42.8030530" lon="-8.6367470">
        <ele>46.2</ele>
        <time>2021-05-23T14:48:55Z</time>
      </trkpt>
      <trkpt lat="42.8030480" lon="-8.6367540">
        <ele>46.2</ele>
        <time>2021-05-23T14:48:56Z</time>
      </trkpt>
      <trkpt lat="42.8030330" lon="-8.6367540">
        <ele>46.2</ele>
        <time>2021-05-23T14:48:57Z</time>
      </trkpt>
      <trkpt lat="42.8030250" lon="-8.6367490">
        <ele>46.2</ele>
        <time>2021-05-23T14:48:58Z</time>
      </trkpt>
      <trkpt lat="42.8030310" lon="-8.6367460">
        <ele>46.2</ele>
        <time>2021-05-23T14:48:59Z</time>
      </trkpt>
      <trkpt lat="42.8030270" lon="-8.6367390">
        <ele>46.2</ele>
        <time>2021-05-23T14:49:00Z</time>
      </trkpt>
      <trkpt lat="42.8030190" lon="-8.6367330">
        <ele>46.2</ele>
        <time>2021-05-23T14:49:01Z</time>
      </trkpt>
      <trkpt lat="42.8030050" lon="-8.6367150">
        <ele>46.2</ele>
        <time>2021-05-23T14:49:02Z</time>
      </trkpt>
      <trkpt lat="42.8030000" lon="-8.6367020">
        <ele>46.2</ele>
        <time>2021-05-23T14:49:03Z</time>
      </trkpt>
      <trkpt lat="42.8029700" lon="-8.6366920">
        <ele>46.2</ele>
        <time>2021-05-23T14:49:04Z</time>
      </trkpt>
      <trkpt lat="42.8029470" lon="-8.6366810">
        <ele>46.2</ele>
        <time>2021-05-23T14:49:05Z</time>
      </trkpt>
      <trkpt lat="42.8029600" lon="-8.6366810">
        <ele>46.2</ele>
        <time>2021-05-23T14:49:06Z</time>
      </trkpt>
      <trkpt lat="42.8029710" lon="-8.6367000">
        <ele>46.2</ele>
        <time>2021-05-23T14:49:07Z</time>
      </trkpt>
      <trkpt lat="42.8029800" lon="-8.6366820">
        <ele>46.2</ele>
        <time>2021-05-23T14:49:08Z</time>
      </trkpt>
      <trkpt lat="42.8029810" lon="-8.6366820">
        <ele>46.2</ele>
        <time>2021-05-23T14:49:09Z</time>
      </trkpt>
      <trkpt lat="42.8029850" lon="-8.6366530">
        <ele>46.2</ele>
        <time>2021-05-23T14:49:10Z</time>
      </trkpt>
      <trkpt lat="42.8029870" lon="-8.6366450">
        <ele>46.2</ele>
        <time>2021-05-23T14:49:11Z</time>
      </trkpt>
      <trkpt lat="42.8029860" lon="-8.6366450">
        <ele>46.2</ele>
        <time>2021-05-23T14:49:12Z</time>
      </trkpt>
      <trkpt lat="42.8029750" lon="-8.6366350">
        <ele>46.2</ele>
        <time>2021-05-23T14:49:13Z</time>
      </trkpt>
      <trkpt lat="42.8029710" lon="-8.6366400">
        <ele>46.2</ele>
        <time>2021-05-23T14:49:14Z</time>
      </trkpt>
      <trkpt lat="42.8029690" lon="-8.6366370">
        <ele>46.2</ele>
        <time>2021-05-23T14:49:15Z</time>
      </trkpt>
      <trkpt lat="42.8029760" lon="-8.6366430">
        <ele>46.2</ele>
        <time>2021-05-23T14:49:16Z</time>
      </trkpt>
      <trkpt lat="42.8029790" lon="-8.6366440">
        <ele>46.2</ele>
        <time>2021-05-23T14:49:17Z</time>
      </trkpt>
      <trkpt lat="42.8029830" lon="-8.6366610">
        <ele>46.2</ele>
        <time>2021-05-23T14:49:18Z</time>
      </trkpt>
      <trkpt lat="42.8029830" lon="-8.6366620">
        <ele>46.2</ele>
        <time>2021-05-23T14:49:19Z</time>
      </trkpt>
      <trkpt lat="42.8029890" lon="-8.6366670">
        <ele>46.2</ele>
        <time>2021-05-23T14:49:20Z</time>
      </trkpt>
      <trkpt lat="42.8029960" lon="-8.6366630">
        <ele>46.2</ele>
        <time>2021-05-23T14:49:21Z</time>
      </trkpt>
      <trkpt lat="42.8029910" lon="-8.6366660">
        <ele>46.2</ele>
        <time>2021-05-23T14:49:22Z</time>
      </trkpt>
      <trkpt lat="42.8030000" lon="-8.6366700">
        <ele>46.2</ele>
        <time>2021-05-23T14:49:23Z</time>
      </trkpt>
      <trkpt lat="42.8030030" lon="-8.6366760">
        <ele>46.2</ele>
        <time>2021-05-23T14:49:24Z</time>
      </trkpt>
      <trkpt lat="42.8030030" lon="-8.6366690">
        <ele>46.2</ele>
        <time>2021-05-23T14:49:25Z</time>
      </trkpt>
      <trkpt lat="42.8030060" lon="-8.6366760">
        <ele>46.2</ele>
        <time>2021-05-23T14:49:26Z</time>
      </trkpt>
      <trkpt lat="42.8030070" lon="-8.6366810">
        <ele>46.2</ele>
        <time>2021-05-23T14:49:27Z</time>
      </trkpt>
      <trkpt lat="42.8030100" lon="-8.6366810">
        <ele>46.2</ele>
        <time>2021-05-23T14:49:28Z</time>
      </trkpt>
      <trkpt lat="42.8030180" lon="-8.6366880">
        <ele>46.2</ele>
        <time>2021-05-23T14:49:29Z</time>
      </trkpt>
      <trkpt lat="42.8030100" lon="-8.6366880">
        <ele>46.2</ele>
        <time>2021-05-23T14:49:30Z</time>
      </trkpt>
      <trkpt lat="42.8030110" lon="-8.6366790">
        <ele>46.2</ele>
        <time>2021-05-23T14:49:31Z</time>
      </trkpt>
      <trkpt lat="42.8030120" lon="-8.6366750">
        <ele>46.2</ele>
        <time>2021-05-23T14:49:32Z</time>
      </trkpt>
      <trkpt lat="42.8030140" lon="-8.6366710">
        <ele>46.2</ele>
        <time>2021-05-23T14:49:33Z</time>
      </trkpt>
      <trkpt lat="42.8030120" lon="-8.6366720">
        <ele>46.2</ele>
        <time>2021-05-23T14:49:34Z</time>
      </trkpt>
      <trkpt lat="42.8030120" lon="-8.6366750">
        <ele>46.2</ele>
        <time>2021-05-23T14:49:35Z</time>
      </trkpt>
      <trkpt lat="42.8030170" lon="-8.6366760">
        <ele>46.2</ele>
        <time>2021-05-23T14:49:36Z</time>
      </trkpt>
      <trkpt lat="42.8030170" lon="-8.6366760">
        <ele>46.2</ele>
        <time>2021-05-23T14:49:37Z</time>
      </trkpt>
      <trkpt lat="42.8030060" lon="-8.6366720">
        <ele>46.2</ele>
        <time>2021-05-23T14:49:38Z</time>
      </trkpt>
      <trkpt lat="42.8030050" lon="-8.6366720">
        <ele>46.2</ele>
        <time>2021-05-23T14:49:39Z</time>
      </trkpt>
      <trkpt lat="42.8030010" lon="-8.6366710">
        <ele>46.2</ele>
        <time>2021-05-23T14:49:40Z</time>
      </trkpt>
      <trkpt lat="42.8030010" lon="-8.6366690">
        <ele>46.2</ele>
        <time>2021-05-23T14:49:41Z</time>
      </trkpt>
      <trkpt lat="42.8029980" lon="-8.6366690">
        <ele>46.2</ele>
        <time>2021-05-23T14:49:42Z</time>
      </trkpt>
      <trkpt lat="42.8030010" lon="-8.6366780">
        <ele>46.2</ele>
        <time>2021-05-23T14:49:43Z</time>
      </trkpt>
      <trkpt lat="42.8030050" lon="-8.6366880">
        <ele>46.2</ele>
        <time>2021-05-23T14:49:44Z</time>
      </trkpt>
      <trkpt lat="42.8030110" lon="-8.6366910">
        <ele>46.2</ele>
        <time>2021-05-23T14:49:45Z</time>
      </trkpt>
      <trkpt lat="42.8030060" lon="-8.6366910">
        <ele>46.2</ele>
        <time>2021-05-23T14:49:46Z</time>
      </trkpt>
      <trkpt lat="42.8030110" lon="-8.6366960">
        <ele>46.2</ele>
        <time>2021-05-23T14:49:47Z</time>
      </trkpt>
      <trkpt lat="42.8030150" lon="-8.6366970">
        <ele>46.2</ele>
        <time>2021-05-23T14:49:48Z</time>
      </trkpt>
      <trkpt lat="42.8030270" lon="-8.6367120">
        <ele>46.2</ele>
        <time>2021-05-23T14:49:49Z</time>
      </trkpt>
      <trkpt lat="42.8030300" lon="-8.6367130">
        <ele>46.2</ele>
        <time>2021-05-23T14:49:50Z</time>
      </trkpt>
      <trkpt lat="42.8030380" lon="-8.6367150">
        <ele>46.2</ele>
        <time>2021-05-23T14:49:51Z</time>
      </trkpt>
      <trkpt lat="42.8030390" lon="-8.6367120">
        <ele>46.2</ele>
        <time>2021-05-23T14:49:52Z</time>
      </trkpt>
      <trkpt lat="42.8030430" lon="-8.6367170">
        <ele>46.2</ele>
        <time>2021-05-23T14:49:53Z</time>
      </trkpt>
      <trkpt lat="42.8030470" lon="-8.6367220">
        <ele>46.2</ele>
        <time>2021-05-23T14:49:54Z</time>
      </trkpt>
      <trkpt lat="42.8030430" lon="-8.6367240">
        <ele>46.2</ele>
        <time>2021-05-23T14:49:55Z</time>
      </trkpt>
      <trkpt lat="42.8030350" lon="-8.6367270">
        <ele>46.2</ele>
        <time>2021-05-23T14:49:56Z</time>
      </trkpt>
      <trkpt lat="42.8030530" lon="-8.6367330">
        <ele>46.2</ele>
        <time>2021-05-23T14:49:57Z</time>
      </trkpt>
      <trkpt lat="42.8030510" lon="-8.6367290">
        <ele>46.2</ele>
        <time>2021-05-23T14:49:58Z</time>
      </trkpt>
      <trkpt lat="42.8030510" lon="-8.6367300">
        <ele>46.2</ele>
        <time>2021-05-23T14:49:59Z</time>
      </trkpt>
      <trkpt lat="42.8030500" lon="-8.6367310">
        <ele>46.2</ele>
        <time>2021-05-23T14:50:00Z</time>
      </trkpt>
      <trkpt lat="42.8030500" lon="-8.6367320">
        <ele>46.2</ele>
        <time>2021-05-23T14:50:01Z</time>
      </trkpt>
      <trkpt lat="42.8030490" lon="-8.6367330">
        <ele>46.2</ele>
        <time>2021-05-23T14:50:02Z</time>
      </trkpt>
      <trkpt lat="42.8030490" lon="-8.6367340">
        <ele>46.2</ele>
        <time>2021-05-23T14:50:03Z</time>
      </trkpt>
      <trkpt lat="42.8030480" lon="-8.6367350">
        <ele>46.2</ele>
        <time>2021-05-23T14:50:04Z</time>
      </trkpt>
      <trkpt lat="42.8030480" lon="-8.6367360">
        <ele>46.2</ele>
        <time>2021-05-23T14:50:05Z</time>
      </trkpt>
      <trkpt lat="42.8030470" lon="-8.6367370">
        <ele>46.2</ele>
        <time>2021-05-23T14:50:06Z</time>
      </trkpt>
      <trkpt lat="42.8030470" lon="-8.6367380">
        <ele>46.2</ele>
        <time>2021-05-23T14:50:07Z</time>
      </trkpt>
      <trkpt lat="42.8030460" lon="-8.6367390">
        <ele>46.2</ele>
        <time>2021-05-23T14:50:08Z</time>
      </trkpt>
      <trkpt lat="42.8030460" lon="-8.6367400">
        <ele>46.2</ele>
        <time>2021-05-23T14:50:09Z</time>
      </trkpt>
      <trkpt lat="42.8030450" lon="-8.6367410">
        <ele>46.2</ele>
        <time>2021-05-23T14:50:10Z</time>
      </trkpt>
      <trkpt lat="42.8030440" lon="-8.6367420">
        <ele>46.2</ele>
        <time>2021-05-23T14:50:11Z</time>
      </trkpt>
      <trkpt lat="42.8030440" lon="-8.6367430">
        <ele>46.2</ele>
        <time>2021-05-23T14:50:12Z</time>
      </trkpt>
      <trkpt lat="42.8030430" lon="-8.6367440">
        <ele>46.2</ele>
        <time>2021-05-23T14:50:13Z</time>
      </trkpt>
      <trkpt lat="42.8030430" lon="-8.6367450">
        <ele>46.2</ele>
        <time>2021-05-23T14:50:14Z</time>
      </trkpt>
      <trkpt lat="42.8030420" lon="-8.6367460">
        <ele>46.2</ele>
        <time>2021-05-23T14:50:15Z</time>
      </trkpt>
      <trkpt lat="42.8030420" lon="-8.6367470">
        <ele>46.2</ele>
        <time>2021-05-23T14:50:16Z</time>
      </trkpt>
      <trkpt lat="42.8030410" lon="-8.6367480">
        <ele>46.2</ele>
        <time>2021-05-23T14:50:17Z</time>
      </trkpt>
      <trkpt lat="42.8030410" lon="-8.6367490">
        <ele>46.2</ele>
        <time>2021-05-23T14:50:18Z</time>
      </trkpt>
      <trkpt lat="42.8030400" lon="-8.6367500">
        <ele>46.2</ele>
        <time>2021-05-23T14:50:19Z</time>
      </trkpt>
      <trkpt lat="42.8030400" lon="-8.6367510">
        <ele>46.2</ele>
        <time>2021-05-23T14:50:20Z</time>
      </trkpt>
      <trkpt lat="42.8030390" lon="-8.6367530">
        <ele>46.2</ele>
        <time>2021-05-23T14:50:21Z</time>
      </trkpt>
      <trkpt lat="42.8030380" lon="-8.6367540">
        <ele>46.2</ele>
        <time>2021-05-23T14:50:22Z</time>
      </trkpt>
      <trkpt lat="42.8030380" lon="-8.6367550">
        <ele>46.2</ele>
        <time>2021-05-23T14:50:23Z</time>
      </trkpt>
      <trkpt lat="42.8030370" lon="-8.6367560">
        <ele>46.2</ele>
        <time>2021-05-23T14:50:24Z</time>
      </trkpt>
      <trkpt lat="42.8030370" lon="-8.6367570">
        <ele>46.2</ele>
        <time>2021-05-23T14:50:25Z</time>
      </trkpt>
      <trkpt lat="42.8030360" lon="-8.6367580">
        <ele>46.2</ele>
        <time>2021-05-23T14:50:26Z</time>
      </trkpt>
      <trkpt lat="42.8030360" lon="-8.6367590">
        <ele>46.2</ele>
        <time>2021-05-23T14:50:27Z</time>
      </trkpt>
      <trkpt lat="42.8030350" lon="-8.6367600">
        <ele>46.2</ele>
        <time>2021-05-23T14:50:28Z</time>
      </trkpt>
      <trkpt lat="42.8030350" lon="-8.6367610">
        <ele>46.2</ele>
        <time>2021-05-23T14:50:29Z</time>
      </trkpt>
      <trkpt lat="42.8030340" lon="-8.6367620">
        <ele>46.2</ele>
        <time>2021-05-23T14:50:30Z</time>
      </trkpt>
      <trkpt lat="42.8030340" lon="-8.6367630">
        <ele>46.2</ele>
        <time>2021-05-23T14:50:31Z</time>
      </trkpt>
      <trkpt lat="42.8030330" lon="-8.6367640">
        <ele>46.2</ele>
        <time>2021-05-23T14:50:32Z</time>
      </trkpt>
      <trkpt lat="42.8030330" lon="-8.6367650">
        <ele>46.2</ele>
        <time>2021-05-23T14:50:33Z</time>
      </trkpt>
      <trkpt lat="42.8030320" lon="-8.6367660">
        <ele>46.2</ele>
        <time>2021-05-23T14:50:34Z</time>
      </trkpt>
      <trkpt lat="42.8030310" lon="-8.6367670">
        <ele>46.2</ele>
        <time>2021-05-23T14:50:35Z</time>
      </trkpt>
      <trkpt lat="42.8030310" lon="-8.6367680">
        <ele>46.2</ele>
        <time>2021-05-23T14:50:36Z</time>
      </trkpt>
      <trkpt lat="42.8030300" lon="-8.6367690">
        <ele>46.2</ele>
        <time>2021-05-23T14:50:37Z</time>
      </trkpt>
      <trkpt lat="42.8030300" lon="-8.6367700">
        <ele>46.2</ele>
        <time>2021-05-23T14:50:38Z</time>
      </trkpt>
      <trkpt lat="42.8030290" lon="-8.6367710">
        <ele>46.2</ele>
        <time>2021-05-23T14:50:39Z</time>
      </trkpt>
      <trkpt lat="42.8030290" lon="-8.6367720">
        <ele>46.2</ele>
        <time>2021-05-23T14:50:40Z</time>
      </trkpt>
      <trkpt lat="42.8030280" lon="-8.6367730">
        <ele>46.2</ele>
        <time>2021-05-23T14:50:41Z</time>
      </trkpt>
      <trkpt lat="42.8030280" lon="-8.6367740">
        <ele>46.2</ele>
        <time>2021-05-23T14:50:42Z</time>
      </trkpt>
      <trkpt lat="42.8030270" lon="-8.6367750">
        <ele>46.2</ele>
        <time>2021-05-23T14:50:43Z</time>
      </trkpt>
      <trkpt lat="42.8030270" lon="-8.6367760">
        <ele>46.2</ele>
        <time>2021-05-23T14:50:44Z</time>
      </trkpt>
      <trkpt lat="42.8030260" lon="-8.6367770">
        <ele>46.2</ele>
        <time>2021-05-23T14:50:45Z</time>
      </trkpt>
      <trkpt lat="42.8030270" lon="-8.6367770">
        <ele>46.2</ele>
        <time>2021-05-23T14:50:46Z</time>
      </trkpt>
      <trkpt lat="42.8030280" lon="-8.6367740">
        <ele>46.2</ele>
        <time>2021-05-23T14:50:47Z</time>
      </trkpt>
      <trkpt lat="42.8030250" lon="-8.6367740">
        <ele>46.2</ele>
        <time>2021-05-23T14:50:48Z</time>
      </trkpt>
      <trkpt lat="42.8030260" lon="-8.6367690">
        <ele>46.2</ele>
        <time>2021-05-23T14:50:49Z</time>
      </trkpt>
      <trkpt lat="42.8030280" lon="-8.6367700">
        <ele>46.2</ele>
        <time>2021-05-23T14:50:50Z</time>
      </trkpt>
      <trkpt lat="42.8030280" lon="-8.6367700">
        <ele>46.2</ele>
        <time>2021-05-23T14:50:51Z</time>
      </trkpt>
      <trkpt lat="42.8030290" lon="-8.6367660">
        <ele>46.2</ele>
        <time>2021-05-23T14:50:52Z</time>
      </trkpt>
      <trkpt lat="42.8030360" lon="-8.6367620">
        <ele>46.2</ele>
        <time>2021-05-23T14:50:53Z</time>
      </trkpt>
      <trkpt lat="42.8030360" lon="-8.6367610">
        <ele>46.2</ele>
        <time>2021-05-23T14:50:54Z</time>
      </trkpt>
      <trkpt lat="42.8030500" lon="-8.6367570">
        <ele>46.2</ele>
        <time>2021-05-23T14:50:55Z</time>
      </trkpt>
      <trkpt lat="42.8030500" lon="-8.6367460">
        <ele>46.2</ele>
        <time>2021-05-23T14:50:56Z</time>
      </trkpt>
      <trkpt lat="42.8030510" lon="-8.6367460">
        <ele>46.2</ele>
        <time>2021-05-23T14:50:57Z</time>
      </trkpt>
      <trkpt lat="42.8030520" lon="-8.6367470">
        <ele>46.2</ele>
        <time>2021-05-23T14:50:58Z</time>
      </trkpt>
      <trkpt lat="42.8030530" lon="-8.6367470">
        <ele>46.2</ele>
        <time>2021-05-23T14:50:59Z</time>
      </trkpt>
      <trkpt lat="42.8030540" lon="-8.6367480">
        <ele>46.2</ele>
        <time>2021-05-23T14:51:00Z</time>
      </trkpt>
      <trkpt lat="42.8030560" lon="-8.6367480">
        <ele>46.2</ele>
        <time>2021-05-23T14:51:01Z</time>
      </trkpt>
      <trkpt lat="42.8030570" lon="-8.6367490">
        <ele>46.2</ele>
        <time>2021-05-23T14:51:02Z</time>
      </trkpt>
      <trkpt lat="42.8030580" lon="-8.6367500">
        <ele>46.2</ele>
        <time>2021-05-23T14:51:03Z</time>
      </trkpt>
      <trkpt lat="42.8030590" lon="-8.6367500">
        <ele>46.2</ele>
        <time>2021-05-23T14:51:04Z</time>
      </trkpt>
      <trkpt lat="42.8030600" lon="-8.6367510">
        <ele>46.2</ele>
        <time>2021-05-23T14:51:05Z</time>
      </trkpt>
      <trkpt lat="42.8030610" lon="-8.6367510">
        <ele>46.2</ele>
        <time>2021-05-23T14:51:06Z</time>
      </trkpt>
      <trkpt lat="42.8030620" lon="-8.6367520">
        <ele>46.2</ele>
        <time>2021-05-23T14:51:07Z</time>
      </trkpt>
      <trkpt lat="42.8030630" lon="-8.6367520">
        <ele>46.2</ele>
        <time>2021-05-23T14:51:08Z</time>
      </trkpt>
      <trkpt lat="42.8030640" lon="-8.6367530">
        <ele>46.2</ele>
        <time>2021-05-23T14:51:09Z</time>
      </trkpt>
      <trkpt lat="42.8030650" lon="-8.6367540">
        <ele>46.2</ele>
        <time>2021-05-23T14:51:10Z</time>
      </trkpt>
      <trkpt lat="42.8030660" lon="-8.6367540">
        <ele>46.2</ele>
        <time>2021-05-23T14:51:11Z</time>
      </trkpt>
      <trkpt lat="42.8030670" lon="-8.6367550">
        <ele>46.2</ele>
        <time>2021-05-23T14:51:12Z</time>
      </trkpt>
      <trkpt lat="42.8030690" lon="-8.6367550">
        <ele>46.2</ele>
        <time>2021-05-23T14:51:13Z</time>
      </trkpt>
      <trkpt lat="42.8030700" lon="-8.6367560">
        <ele>46.2</ele>
        <time>2021-05-23T14:51:14Z</time>
      </trkpt>
      <trkpt lat="42.8030710" lon="-8.6367560">
        <ele>46.2</ele>
        <time>2021-05-23T14:51:15Z</time>
      </trkpt>
      <trkpt lat="42.8030720" lon="-8.6367570">
        <ele>46.2</ele>
        <time>2021-05-23T14:51:16Z</time>
      </trkpt>
      <trkpt lat="42.8030730" lon="-8.6367580">
        <ele>46.2</ele>
        <time>2021-05-23T14:51:17Z</time>
      </trkpt>
      <trkpt lat="42.8030740" lon="-8.6367580">
        <ele>46.2</ele>
        <time>2021-05-23T14:51:18Z</time>
      </trkpt>
      <trkpt lat="42.8030750" lon="-8.6367590">
        <ele>46.2</ele>
        <time>2021-05-23T14:51:19Z</time>
      </trkpt>
      <trkpt lat="42.8030760" lon="-8.6367590">
        <ele>46.2</ele>
        <time>2021-05-23T14:51:20Z</time>
      </trkpt>
      <trkpt lat="42.8030770" lon="-8.6367600">
        <ele>46.1</ele>
        <time>2021-05-23T14:51:21Z</time>
      </trkpt>
      <trkpt lat="42.8030780" lon="-8.6367600">
        <ele>46.1</ele>
        <time>2021-05-23T14:51:22Z</time>
      </trkpt>
      <trkpt lat="42.8030790" lon="-8.6367610">
        <ele>46.1</ele>
        <time>2021-05-23T14:51:23Z</time>
      </trkpt>
      <trkpt lat="42.8030800" lon="-8.6367620">
        <ele>46.1</ele>
        <time>2021-05-23T14:51:24Z</time>
      </trkpt>
      <trkpt lat="42.8030820" lon="-8.6367620">
        <ele>46.1</ele>
        <time>2021-05-23T14:51:25Z</time>
      </trkpt>
      <trkpt lat="42.8030830" lon="-8.6367630">
        <ele>46.1</ele>
        <time>2021-05-23T14:51:26Z</time>
      </trkpt>
      <trkpt lat="42.8030840" lon="-8.6367630">
        <ele>46.1</ele>
        <time>2021-05-23T14:51:27Z</time>
      </trkpt>
      <trkpt lat="42.8030850" lon="-8.6367640">
        <ele>46.1</ele>
        <time>2021-05-23T14:51:28Z</time>
      </trkpt>
      <trkpt lat="42.8030860" lon="-8.6367640">
        <ele>46.1</ele>
        <time>2021-05-23T14:51:29Z</time>
      </trkpt>
      <trkpt lat="42.8030870" lon="-8.6367650">
        <ele>46.1</ele>
        <time>2021-05-23T14:51:30Z</time>
      </trkpt>
      <trkpt lat="42.8030750" lon="-8.6367510">
        <ele>46.1</ele>
        <time>2021-05-23T14:51:31Z</time>
      </trkpt>
      <trkpt lat="42.8030750" lon="-8.6367510">
        <ele>46.1</ele>
        <time>2021-05-23T14:51:32Z</time>
      </trkpt>
      <trkpt lat="42.8030750" lon="-8.6367510">
        <ele>46.1</ele>
        <time>2021-05-23T14:51:33Z</time>
      </trkpt>
      <trkpt lat="42.8030740" lon="-8.6367500">
        <ele>46.1</ele>
        <time>2021-05-23T14:51:34Z</time>
      </trkpt>
      <trkpt lat="42.8030740" lon="-8.6367500">
        <ele>46.1</ele>
        <time>2021-05-23T14:51:35Z</time>
      </trkpt>
      <trkpt lat="42.8030740" lon="-8.6367500">
        <ele>46.1</ele>
        <time>2021-05-23T14:51:36Z</time>
      </trkpt>
      <trkpt lat="42.8030740" lon="-8.6367500">
        <ele>46.1</ele>
        <time>2021-05-23T14:51:37Z</time>
      </trkpt>
      <trkpt lat="42.8030740" lon="-8.6367500">
        <ele>46.1</ele>
        <time>2021-05-23T14:51:38Z</time>
      </trkpt>
      <trkpt lat="42.8030740" lon="-8.6367500">
        <ele>46.1</ele>
        <time>2021-05-23T14:51:39Z</time>
      </trkpt>
      <trkpt lat="42.8030730" lon="-8.6367500">
        <ele>46.1</ele>
        <time>2021-05-23T14:51:40Z</time>
      </trkpt>
      <trkpt lat="42.8030730" lon="-8.6367500">
        <ele>46.1</ele>
        <time>2021-05-23T14:51:41Z</time>
      </trkpt>
      <trkpt lat="42.8030730" lon="-8.6367490">
        <ele>46.1</ele>
        <time>2021-05-23T14:51:42Z</time>
      </trkpt>
      <trkpt lat="42.8030730" lon="-8.6367490">
        <ele>46.1</ele>
        <time>2021-05-23T14:51:43Z</time>
      </trkpt>
      <trkpt lat="42.8030730" lon="-8.6367490">
        <ele>46.1</ele>
        <time>2021-05-23T14:51:44Z</time>
      </trkpt>
      <trkpt lat="42.8030730" lon="-8.6367490">
        <ele>46.1</ele>
        <time>2021-05-23T14:51:45Z</time>
      </trkpt>
      <trkpt lat="42.8030720" lon="-8.6367490">
        <ele>46.1</ele>
        <time>2021-05-23T14:51:46Z</time>
      </trkpt>
      <trkpt lat="42.8030720" lon="-8.6367490">
        <ele>46.1</ele>
        <time>2021-05-23T14:51:47Z</time>
      </trkpt>
      <trkpt lat="42.8030720" lon="-8.6367490">
        <ele>46.1</ele>
        <time>2021-05-23T14:51:48Z</time>
      </trkpt>
      <trkpt lat="42.8030720" lon="-8.6367490">
        <ele>46.1</ele>
        <time>2021-05-23T14:51:49Z</time>
      </trkpt>
      <trkpt lat="42.8030720" lon="-8.6367480">
        <ele>46.1</ele>
        <time>2021-05-23T14:51:50Z</time>
      </trkpt>
      <trkpt lat="42.8030720" lon="-8.6367480">
        <ele>46.1</ele>
        <time>2021-05-23T14:51:51Z</time>
      </trkpt>
      <trkpt lat="42.8030720" lon="-8.6367480">
        <ele>46.1</ele>
        <time>2021-05-23T14:51:52Z</time>
      </trkpt>
      <trkpt lat="42.8030710" lon="-8.6367480">
        <ele>46.1</ele>
        <time>2021-05-23T14:51:53Z</time>
      </trkpt>
      <trkpt lat="42.8030710" lon="-8.6367480">
        <ele>46.1</ele>
        <time>2021-05-23T14:51:54Z</time>
      </trkpt>
      <trkpt lat="42.8030710" lon="-8.6367480">
        <ele>46.1</ele>
        <time>2021-05-23T14:51:55Z</time>
      </trkpt>
      <trkpt lat="42.8030710" lon="-8.6367480">
        <ele>46.1</ele>
        <time>2021-05-23T14:51:56Z</time>
      </trkpt>
      <trkpt lat="42.8030710" lon="-8.6367480">
        <ele>46.1</ele>
        <time>2021-05-23T14:51:57Z</time>
      </trkpt>
      <trkpt lat="42.8030710" lon="-8.6367470">
        <ele>46.1</ele>
        <time>2021-05-23T14:51:58Z</time>
      </trkpt>
      <trkpt lat="42.8030700" lon="-8.6367470">
        <ele>46.1</ele>
        <time>2021-05-23T14:51:59Z</time>
      </trkpt>
      <trkpt lat="42.8030700" lon="-8.6367470">
        <ele>46.1</ele>
        <time>2021-05-23T14:52:00Z</time>
      </trkpt>
      <trkpt lat="42.8030700" lon="-8.6367470">
        <ele>46.1</ele>
        <time>2021-05-23T14:52:01Z</time>
      </trkpt>
      <trkpt lat="42.8030700" lon="-8.6367470">
        <ele>46.1</ele>
        <time>2021-05-23T14:52:02Z</time>
      </trkpt>
      <trkpt lat="42.8030700" lon="-8.6367470">
        <ele>46.1</ele>
        <time>2021-05-23T14:52:03Z</time>
      </trkpt>
      <trkpt lat="42.8030700" lon="-8.6367470">
        <ele>46.1</ele>
        <time>2021-05-23T14:52:04Z</time>
      </trkpt>
      <trkpt lat="42.8030700" lon="-8.6367470">
        <ele>46.1</ele>
        <time>2021-05-23T14:52:05Z</time>
      </trkpt>
      <trkpt lat="42.8030690" lon="-8.6367460">
        <ele>46.1</ele>
        <time>2021-05-23T14:52:06Z</time>
      </trkpt>
      <trkpt lat="42.8030690" lon="-8.6367460">
        <ele>46.1</ele>
        <time>2021-05-23T14:52:07Z</time>
      </trkpt>
      <trkpt lat="42.8030690" lon="-8.6367460">
        <ele>46.1</ele>
        <time>2021-05-23T14:52:08Z</time>
      </trkpt>
      <trkpt lat="42.8030690" lon="-8.6367460">
        <ele>46.1</ele>
        <time>2021-05-23T14:52:09Z</time>
      </trkpt>
      <trkpt lat="42.8030690" lon="-8.6367460">
        <ele>46.1</ele>
        <time>2021-05-23T14:52:10Z</time>
      </trkpt>
      <trkpt lat="42.8030690" lon="-8.6367460">
        <ele>46.1</ele>
        <time>2021-05-23T14:52:11Z</time>
      </trkpt>
      <trkpt lat="42.8030680" lon="-8.6367460">
        <ele>46.1</ele>
        <time>2021-05-23T14:52:12Z</time>
      </trkpt>
      <trkpt lat="42.8030680" lon="-8.6367460">
        <ele>46.1</ele>
        <time>2021-05-23T14:52:13Z</time>
      </trkpt>
      <trkpt lat="42.8030680" lon="-8.6367450">
        <ele>46.1</ele>
        <time>2021-05-23T14:52:14Z</time>
      </trkpt>
      <trkpt lat="42.8030680" lon="-8.6367450">
        <ele>46.1</ele>
        <time>2021-05-23T14:52:15Z</time>
      </trkpt>
      <trkpt lat="42.8030680" lon="-8.6367450">
        <ele>46.1</ele>
        <time>2021-05-23T14:52:16Z</time>
      </trkpt>
      <trkpt lat="42.8030680" lon="-8.6367450">
        <ele>46.1</ele>
        <time>2021-05-23T14:52:17Z</time>
      </trkpt>
      <trkpt lat="42.8030670" lon="-8.6367450">
        <ele>46.1</ele>
        <time>2021-05-23T14:52:18Z</time>
      </trkpt>
      <trkpt lat="42.8030670" lon="-8.6367450">
        <ele>46.1</ele>
        <time>2021-05-23T14:52:19Z</time>
      </trkpt>
      <trkpt lat="42.8030670" lon="-8.6367450">
        <ele>46.1</ele>
        <time>2021-05-23T14:52:20Z</time>
      </trkpt>
      <trkpt lat="42.8030670" lon="-8.6367450">
        <ele>46.1</ele>
        <time>2021-05-23T14:52:21Z</time>
      </trkpt>
      <trkpt lat="42.8030670" lon="-8.6367440">
        <ele>46.1</ele>
        <time>2021-05-23T14:52:22Z</time>
      </trkpt>
      <trkpt lat="42.8030670" lon="-8.6367440">
        <ele>46.1</ele>
        <time>2021-05-23T14:52:23Z</time>
      </trkpt>
      <trkpt lat="42.8030670" lon="-8.6367440">
        <ele>46.1</ele>
        <time>2021-05-23T14:52:24Z</time>
      </trkpt>
      <trkpt lat="42.8030660" lon="-8.6367440">
        <ele>46.1</ele>
        <time>2021-05-23T14:52:25Z</time>
      </trkpt>
      <trkpt lat="42.8030660" lon="-8.6367440">
        <ele>46.1</ele>
        <time>2021-05-23T14:52:26Z</time>
      </trkpt>
      <trkpt lat="42.8030660" lon="-8.6367440">
        <ele>46.1</ele>
        <time>2021-05-23T14:52:27Z</time>
      </trkpt>
      <trkpt lat="42.8030660" lon="-8.6367440">
        <ele>46.1</ele>
        <time>2021-05-23T14:52:28Z</time>
      </trkpt>
      <trkpt lat="42.8030660" lon="-8.6367440">
        <ele>46.1</ele>
        <time>2021-05-23T14:52:29Z</time>
      </trkpt>
      <trkpt lat="42.8030660" lon="-8.6367430">
        <ele>46.1</ele>
        <time>2021-05-23T14:52:30Z</time>
      </trkpt>
      <trkpt lat="42.8030650" lon="-8.6367430">
        <ele>46.1</ele>
        <time>2021-05-23T14:52:31Z</time>
      </trkpt>
      <trkpt lat="42.8030650" lon="-8.6367430">
        <ele>46.1</ele>
        <time>2021-05-23T14:52:32Z</time>
      </trkpt>
      <trkpt lat="42.8030650" lon="-8.6367430">
        <ele>46.1</ele>
        <time>2021-05-23T14:52:33Z</time>
      </trkpt>
      <trkpt lat="42.8030650" lon="-8.6367430">
        <ele>46.1</ele>
        <time>2021-05-23T14:52:34Z</time>
      </trkpt>
      <trkpt lat="42.8030650" lon="-8.6367430">
        <ele>46.1</ele>
        <time>2021-05-23T14:52:35Z</time>
      </trkpt>
      <trkpt lat="42.8030650" lon="-8.6367430">
        <ele>46.1</ele>
        <time>2021-05-23T14:52:36Z</time>
      </trkpt>
      <trkpt lat="42.8030640" lon="-8.6367430">
        <ele>46.1</ele>
        <time>2021-05-23T14:52:37Z</time>
      </trkpt>
      <trkpt lat="42.8030640" lon="-8.6367420">
        <ele>46.1</ele>
        <time>2021-05-23T14:52:38Z</time>
      </trkpt>
      <trkpt lat="42.8030640" lon="-8.6367420">
        <ele>46.1</ele>
        <time>2021-05-23T14:52:39Z</time>
      </trkpt>
      <trkpt lat="42.8030640" lon="-8.6367420">
        <ele>46.1</ele>
        <time>2021-05-23T14:52:40Z</time>
      </trkpt>
      <trkpt lat="42.8030640" lon="-8.6367420">
        <ele>46.1</ele>
        <time>2021-05-23T14:52:41Z</time>
      </trkpt>
      <trkpt lat="42.8030640" lon="-8.6367420">
        <ele>46.1</ele>
        <time>2021-05-23T14:52:42Z</time>
      </trkpt>
      <trkpt lat="42.8030640" lon="-8.6367420">
        <ele>46.1</ele>
        <time>2021-05-23T14:52:43Z</time>
      </trkpt>
      <trkpt lat="42.8030630" lon="-8.6367420">
        <ele>46.1</ele>
        <time>2021-05-23T14:52:44Z</time>
      </trkpt>
      <trkpt lat="42.8030630" lon="-8.6367420">
        <ele>46.1</ele>
        <time>2021-05-23T14:52:45Z</time>
      </trkpt>
      <trkpt lat="42.8030630" lon="-8.6367410">
        <ele>46.1</ele>
        <time>2021-05-23T14:52:46Z</time>
      </trkpt>
      <trkpt lat="42.8030630" lon="-8.6367410">
        <ele>46.1</ele>
        <time>2021-05-23T14:52:47Z</time>
      </trkpt>
      <trkpt lat="42.8030630" lon="-8.6367410">
        <ele>46.1</ele>
        <time>2021-05-23T14:52:48Z</time>
      </trkpt>
      <trkpt lat="42.8030630" lon="-8.6367410">
        <ele>46.1</ele>
        <time>2021-05-23T14:52:49Z</time>
      </trkpt>
      <trkpt lat="42.8030620" lon="-8.6367410">
        <ele>46.1</ele>
        <time>2021-05-23T14:52:50Z</time>
      </trkpt>
      <trkpt lat="42.8030620" lon="-8.6367410">
        <ele>46.1</ele>
        <time>2021-05-23T14:52:51Z</time>
      </trkpt>
      <trkpt lat="42.8030620" lon="-8.6367410">
        <ele>46.1</ele>
        <time>2021-05-23T14:52:52Z</time>
      </trkpt>
      <trkpt lat="42.8030620" lon="-8.6367410">
        <ele>46.1</ele>
        <time>2021-05-23T14:52:53Z</time>
      </trkpt>
      <trkpt lat="42.8030620" lon="-8.6367400">
        <ele>46.1</ele>
        <time>2021-05-23T14:52:54Z</time>
      </trkpt>
      <trkpt lat="42.8030620" lon="-8.6367400">
        <ele>46.1</ele>
        <time>2021-05-23T14:52:55Z</time>
      </trkpt>
      <trkpt lat="42.8030620" lon="-8.6367400">
        <ele>46.1</ele>
        <time>2021-05-23T14:52:56Z</time>
      </trkpt>
      <trkpt lat="42.8030610" lon="-8.6367400">
        <ele>46.1</ele>
        <time>2021-05-23T14:52:57Z</time>
      </trkpt>
      <trkpt lat="42.8030610" lon="-8.6367400">
        <ele>46.1</ele>
        <time>2021-05-23T14:52:58Z</time>
      </trkpt>
      <trkpt lat="42.8030610" lon="-8.6367400">
        <ele>46.1</ele>
        <time>2021-05-23T14:52:59Z</time>
      </trkpt>
      <trkpt lat="42.8030610" lon="-8.6367400">
        <ele>46.1</ele>
        <time>2021-05-23T14:53:00Z</time>
      </trkpt>
      <trkpt lat="42.8030610" lon="-8.6367400">
        <ele>46.1</ele>
        <time>2021-05-23T14:53:01Z</time>
      </trkpt>
      <trkpt lat="42.8030610" lon="-8.6367390">
        <ele>46.1</ele>
        <time>2021-05-23T14:53:02Z</time>
      </trkpt>
      <trkpt lat="42.8030600" lon="-8.6367390">
        <ele>46.1</ele>
        <time>2021-05-23T14:53:03Z</time>
      </trkpt>
      <trkpt lat="42.8030600" lon="-8.6367390">
        <ele>46.1</ele>
        <time>2021-05-23T14:53:04Z</time>
      </trkpt>
      <trkpt lat="42.8030600" lon="-8.6367390">
        <ele>46.1</ele>
        <time>2021-05-23T14:53:05Z</time>
      </trkpt>
      <trkpt lat="42.8030600" lon="-8.6367390">
        <ele>46.1</ele>
        <time>2021-05-23T14:53:06Z</time>
      </trkpt>
      <trkpt lat="42.8030600" lon="-8.6367390">
        <ele>46.1</ele>
        <time>2021-05-23T14:53:07Z</time>
      </trkpt>
      <trkpt lat="42.8030600" lon="-8.6367390">
        <ele>46.1</ele>
        <time>2021-05-23T14:53:08Z</time>
      </trkpt>
      <trkpt lat="42.8030590" lon="-8.6367390">
        <ele>46.1</ele>
        <time>2021-05-23T14:53:09Z</time>
      </trkpt>
      <trkpt lat="42.8030590" lon="-8.6367380">
        <ele>46.1</ele>
        <time>2021-05-23T14:53:10Z</time>
      </trkpt>
      <trkpt lat="42.8030590" lon="-8.6367380">
        <ele>46.1</ele>
        <time>2021-05-23T14:53:11Z</time>
      </trkpt>
      <trkpt lat="42.8030590" lon="-8.6367380">
        <ele>46.1</ele>
        <time>2021-05-23T14:53:12Z</time>
      </trkpt>
      <trkpt lat="42.8030590" lon="-8.6367380">
        <ele>46.1</ele>
        <time>2021-05-23T14:53:13Z</time>
      </trkpt>
      <trkpt lat="42.8030590" lon="-8.6367380">
        <ele>46.1</ele>
        <time>2021-05-23T14:53:14Z</time>
      </trkpt>
      <trkpt lat="42.8030590" lon="-8.6367380">
        <ele>46.1</ele>
        <time>2021-05-23T14:53:15Z</time>
      </trkpt>
      <trkpt lat="42.8030580" lon="-8.6367380">
        <ele>46.1</ele>
        <time>2021-05-23T14:53:16Z</time>
      </trkpt>
      <trkpt lat="42.8030580" lon="-8.6367380">
        <ele>46.1</ele>
        <time>2021-05-23T14:53:17Z</time>
      </trkpt>
      <trkpt lat="42.8030580" lon="-8.6367370">
        <ele>46.1</ele>
        <time>2021-05-23T14:53:18Z</time>
      </trkpt>
      <trkpt lat="42.8030580" lon="-8.6367370">
        <ele>46.1</ele>
        <time>2021-05-23T14:53:19Z</time>
      </trkpt>
      <trkpt lat="42.8030580" lon="-8.6367370">
        <ele>46.1</ele>
        <time>2021-05-23T14:53:20Z</time>
      </trkpt>
      <trkpt lat="42.8030580" lon="-8.6367370">
        <ele>46.1</ele>
        <time>2021-05-23T14:53:21Z</time>
      </trkpt>
      <trkpt lat="42.8030570" lon="-8.6367370">
        <ele>46.1</ele>
        <time>2021-05-23T14:53:22Z</time>
      </trkpt>
      <trkpt lat="42.8030570" lon="-8.6367370">
        <ele>46.1</ele>
        <time>2021-05-23T14:53:23Z</time>
      </trkpt>
      <trkpt lat="42.8030570" lon="-8.6367370">
        <ele>46.1</ele>
        <time>2021-05-23T14:53:24Z</time>
      </trkpt>
      <trkpt lat="42.8030570" lon="-8.6367370">
        <ele>46.1</ele>
        <time>2021-05-23T14:53:25Z</time>
      </trkpt>
      <trkpt lat="42.8030570" lon="-8.6367360">
        <ele>46.1</ele>
        <time>2021-05-23T14:53:26Z</time>
      </trkpt>
      <trkpt lat="42.8030570" lon="-8.6367360">
        <ele>46.1</ele>
        <time>2021-05-23T14:53:27Z</time>
      </trkpt>
      <trkpt lat="42.8030560" lon="-8.6367360">
        <ele>46.1</ele>
        <time>2021-05-23T14:53:28Z</time>
      </trkpt>
      <trkpt lat="42.8030560" lon="-8.6367360">
        <ele>46.1</ele>
        <time>2021-05-23T14:53:29Z</time>
      </trkpt>
      <trkpt lat="42.8030560" lon="-8.6367360">
        <ele>46.1</ele>
        <time>2021-05-23T14:53:30Z</time>
      </trkpt>
      <trkpt lat="42.8030560" lon="-8.6367360">
        <ele>46.1</ele>
        <time>2021-05-23T14:53:31Z</time>
      </trkpt>
      <trkpt lat="42.8030560" lon="-8.6367360">
        <ele>46.1</ele>
        <time>2021-05-23T14:53:32Z</time>
      </trkpt>
      <trkpt lat="42.8030560" lon="-8.6367360">
        <ele>46.1</ele>
        <time>2021-05-23T14:53:33Z</time>
      </trkpt>
      <trkpt lat="42.8030560" lon="-8.6367350">
        <ele>46.1</ele>
        <time>2021-05-23T14:53:34Z</time>
      </trkpt>
      <trkpt lat="42.8030550" lon="-8.6367350">
        <ele>46.1</ele>
        <time>2021-05-23T14:53:35Z</time>
      </trkpt>
      <trkpt lat="42.8030550" lon="-8.6367350">
        <ele>46.1</ele>
        <time>2021-05-23T14:53:36Z</time>
      </trkpt>
      <trkpt lat="42.8030550" lon="-8.6367350">
        <ele>46.1</ele>
        <time>2021-05-23T14:53:37Z</time>
      </trkpt>
      <trkpt lat="42.8030550" lon="-8.6367350">
        <ele>46.1</ele>
        <time>2021-05-23T14:53:38Z</time>
      </trkpt>
      <trkpt lat="42.8030550" lon="-8.6367350">
        <ele>46.1</ele>
        <time>2021-05-23T14:53:39Z</time>
      </trkpt>
      <trkpt lat="42.8030550" lon="-8.6367350">
        <ele>46.1</ele>
        <time>2021-05-23T14:53:40Z</time>
      </trkpt>
      <trkpt lat="42.8030540" lon="-8.6367350">
        <ele>46.1</ele>
        <time>2021-05-23T14:53:41Z</time>
      </trkpt>
      <trkpt lat="42.8030540" lon="-8.6367340">
        <ele>46.1</ele>
        <time>2021-05-23T14:53:42Z</time>
      </trkpt>
      <trkpt lat="42.8030540" lon="-8.6367340">
        <ele>46.1</ele>
        <time>2021-05-23T14:53:43Z</time>
      </trkpt>
      <trkpt lat="42.8030540" lon="-8.6367340">
        <ele>46.1</ele>
        <time>2021-05-23T14:53:44Z</time>
      </trkpt>
      <trkpt lat="42.8030540" lon="-8.6367340">
        <ele>46.1</ele>
        <time>2021-05-23T14:53:45Z</time>
      </trkpt>
      <trkpt lat="42.8030540" lon="-8.6367340">
        <ele>46.1</ele>
        <time>2021-05-23T14:53:46Z</time>
      </trkpt>
      <trkpt lat="42.8030540" lon="-8.6367340">
        <ele>46.1</ele>
        <time>2021-05-23T14:53:47Z</time>
      </trkpt>
      <trkpt lat="42.8030530" lon="-8.6367340">
        <ele>46.1</ele>
        <time>2021-05-23T14:53:48Z</time>
      </trkpt>
      <trkpt lat="42.8030530" lon="-8.6367340">
        <ele>46.1</ele>
        <time>2021-05-23T14:53:49Z</time>
      </trkpt>
      <trkpt lat="42.8030530" lon="-8.6367330">
        <ele>46.1</ele>
        <time>2021-05-23T14:53:50Z</time>
      </trkpt>
      <trkpt lat="42.8030530" lon="-8.6367330">
        <ele>46.1</ele>
        <time>2021-05-23T14:53:51Z</time>
      </trkpt>
      <trkpt lat="42.8030530" lon="-8.6367330">
        <ele>46.1</ele>
        <time>2021-05-23T14:53:52Z</time>
      </trkpt>
      <trkpt lat="42.8030530" lon="-8.6367330">
        <ele>46.1</ele>
        <time>2021-05-23T14:53:53Z</time>
      </trkpt>
      <trkpt lat="42.8030520" lon="-8.6367330">
        <ele>46.1</ele>
        <time>2021-05-23T14:53:54Z</time>
      </trkpt>
      <trkpt lat="42.8030520" lon="-8.6367330">
        <ele>46.1</ele>
        <time>2021-05-23T14:53:55Z</time>
      </trkpt>
      <trkpt lat="42.8030520" lon="-8.6367330">
        <ele>46.1</ele>
        <time>2021-05-23T14:53:56Z</time>
      </trkpt>
      <trkpt lat="42.8030520" lon="-8.6367330">
        <ele>46.1</ele>
        <time>2021-05-23T14:53:57Z</time>
      </trkpt>
      <trkpt lat="42.8030520" lon="-8.6367320">
        <ele>46.1</ele>
        <time>2021-05-23T14:53:58Z</time>
      </trkpt>
      <trkpt lat="42.8030520" lon="-8.6367320">
        <ele>46.1</ele>
        <time>2021-05-23T14:53:59Z</time>
      </trkpt>
      <trkpt lat="42.8030510" lon="-8.6367320">
        <ele>46.1</ele>
        <time>2021-05-23T14:54:00Z</time>
      </trkpt>
      <trkpt lat="42.8030510" lon="-8.6367320">
        <ele>46.1</ele>
        <time>2021-05-23T14:54:01Z</time>
      </trkpt>
      <trkpt lat="42.8030510" lon="-8.6367320">
        <ele>46.1</ele>
        <time>2021-05-23T14:54:02Z</time>
      </trkpt>
      <trkpt lat="42.8030510" lon="-8.6367320">
        <ele>46.1</ele>
        <time>2021-05-23T14:54:03Z</time>
      </trkpt>
      <trkpt lat="42.8030510" lon="-8.6367320">
        <ele>46.1</ele>
        <time>2021-05-23T14:54:04Z</time>
      </trkpt>
      <trkpt lat="42.8030510" lon="-8.6367320">
        <ele>46.1</ele>
        <time>2021-05-23T14:54:05Z</time>
      </trkpt>
      <trkpt lat="42.8030510" lon="-8.6367310">
        <ele>46.1</ele>
        <time>2021-05-23T14:54:06Z</time>
      </trkpt>
      <trkpt lat="42.8030500" lon="-8.6367310">
        <ele>46.1</ele>
        <time>2021-05-23T14:54:07Z</time>
      </trkpt>
      <trkpt lat="42.8030500" lon="-8.6367310">
        <ele>46.1</ele>
        <time>2021-05-23T14:54:08Z</time>
      </trkpt>
      <trkpt lat="42.8030500" lon="-8.6367310">
        <ele>46.1</ele>
        <time>2021-05-23T14:54:09Z</time>
      </trkpt>
      <trkpt lat="42.8030500" lon="-8.6367310">
        <ele>46.1</ele>
        <time>2021-05-23T14:54:10Z</time>
      </trkpt>
      <trkpt lat="42.8030500" lon="-8.6367310">
        <ele>46.1</ele>
        <time>2021-05-23T14:54:11Z</time>
      </trkpt>
      <trkpt lat="42.8030500" lon="-8.6367310">
        <ele>46.1</ele>
        <time>2021-05-23T14:54:12Z</time>
      </trkpt>
      <trkpt lat="42.8030490" lon="-8.6367310">
        <ele>46.1</ele>
        <time>2021-05-23T14:54:13Z</time>
      </trkpt>
      <trkpt lat="42.8030490" lon="-8.6367300">
        <ele>46.1</ele>
        <time>2021-05-23T14:54:14Z</time>
      </trkpt>
      <trkpt lat="42.8030490" lon="-8.6367300">
        <ele>46.1</ele>
        <time>2021-05-23T14:54:15Z</time>
      </trkpt>
      <trkpt lat="42.8030490" lon="-8.6367300">
        <ele>46.1</ele>
        <time>2021-05-23T14:54:16Z</time>
      </trkpt>
      <trkpt lat="42.8030490" lon="-8.6367300">
        <ele>46.1</ele>
        <time>2021-05-23T14:54:17Z</time>
      </trkpt>
      <trkpt lat="42.8030490" lon="-8.6367300">
        <ele>46.1</ele>
        <time>2021-05-23T14:54:18Z</time>
      </trkpt>
      <trkpt lat="42.8030490" lon="-8.6367300">
        <ele>46.1</ele>
        <time>2021-05-23T14:54:19Z</time>
      </trkpt>
      <trkpt lat="42.8030480" lon="-8.6367300">
        <ele>46.1</ele>
        <time>2021-05-23T14:54:20Z</time>
      </trkpt>
      <trkpt lat="42.8030480" lon="-8.6367300">
        <ele>46.1</ele>
        <time>2021-05-23T14:54:21Z</time>
      </trkpt>
      <trkpt lat="42.8030480" lon="-8.6367290">
        <ele>46.1</ele>
        <time>2021-05-23T14:54:22Z</time>
      </trkpt>
      <trkpt lat="42.8030480" lon="-8.6367290">
        <ele>46.1</ele>
        <time>2021-05-23T14:54:23Z</time>
      </trkpt>
      <trkpt lat="42.8030480" lon="-8.6367290">
        <ele>46.1</ele>
        <time>2021-05-23T14:54:24Z</time>
      </trkpt>
      <trkpt lat="42.8030480" lon="-8.6367290">
        <ele>46.1</ele>
        <time>2021-05-23T14:54:25Z</time>
      </trkpt>
      <trkpt lat="42.8030470" lon="-8.6367290">
        <ele>46.1</ele>
        <time>2021-05-23T14:54:26Z</time>
      </trkpt>
      <trkpt lat="42.8030470" lon="-8.6367290">
        <ele>46.1</ele>
        <time>2021-05-23T14:54:27Z</time>
      </trkpt>
      <trkpt lat="42.8030470" lon="-8.6367290">
        <ele>46.1</ele>
        <time>2021-05-23T14:54:28Z</time>
      </trkpt>
      <trkpt lat="42.8030470" lon="-8.6367290">
        <ele>46.1</ele>
        <time>2021-05-23T14:54:29Z</time>
      </trkpt>
      <trkpt lat="42.8030470" lon="-8.6367280">
        <ele>46.1</ele>
        <time>2021-05-23T14:54:30Z</time>
      </trkpt>
      <trkpt lat="42.8030470" lon="-8.6367280">
        <ele>46.1</ele>
        <time>2021-05-23T14:54:31Z</time>
      </trkpt>
      <trkpt lat="42.8030460" lon="-8.6367280">
        <ele>46.1</ele>
        <time>2021-05-23T14:54:32Z</time>
      </trkpt>
      <trkpt lat="42.8030460" lon="-8.6367280">
        <ele>46.1</ele>
        <time>2021-05-23T14:54:33Z</time>
      </trkpt>
      <trkpt lat="42.8030460" lon="-8.6367280">
        <ele>46.1</ele>
        <time>2021-05-23T14:54:34Z</time>
      </trkpt>
      <trkpt lat="42.8030460" lon="-8.6367280">
        <ele>46.1</ele>
        <time>2021-05-23T14:54:35Z</time>
      </trkpt>
      <trkpt lat="42.8030460" lon="-8.6367280">
        <ele>46.1</ele>
        <time>2021-05-23T14:54:36Z</time>
      </trkpt>
      <trkpt lat="42.8030460" lon="-8.6367280">
        <ele>46.1</ele>
        <time>2021-05-23T14:54:37Z</time>
      </trkpt>
      <trkpt lat="42.8030460" lon="-8.6367270">
        <ele>46.1</ele>
        <time>2021-05-23T14:54:38Z</time>
      </trkpt>
      <trkpt lat="42.8030450" lon="-8.6367270">
        <ele>46.1</ele>
        <time>2021-05-23T14:54:39Z</time>
      </trkpt>
      <trkpt lat="42.8030450" lon="-8.6367270">
        <ele>46.1</ele>
        <time>2021-05-23T14:54:40Z</time>
      </trkpt>
      <trkpt lat="42.8030450" lon="-8.6367270">
        <ele>46.1</ele>
        <time>2021-05-23T14:54:41Z</time>
      </trkpt>
      <trkpt lat="42.8030450" lon="-8.6367270">
        <ele>46.1</ele>
        <time>2021-05-23T14:54:42Z</time>
      </trkpt>
      <trkpt lat="42.8030450" lon="-8.6367270">
        <ele>46.1</ele>
        <time>2021-05-23T14:54:43Z</time>
      </trkpt>
      <trkpt lat="42.8030450" lon="-8.6367270">
        <ele>46.1</ele>
        <time>2021-05-23T14:54:44Z</time>
      </trkpt>
      <trkpt lat="42.8030440" lon="-8.6367270">
        <ele>46.1</ele>
        <time>2021-05-23T14:54:45Z</time>
      </trkpt>
      <trkpt lat="42.8030440" lon="-8.6367260">
        <ele>46.1</ele>
        <time>2021-05-23T14:54:46Z</time>
      </trkpt>
      <trkpt lat="42.8030440" lon="-8.6367260">
        <ele>46.1</ele>
        <time>2021-05-23T14:54:47Z</time>
      </trkpt>
      <trkpt lat="42.8030440" lon="-8.6367260">
        <ele>46.1</ele>
        <time>2021-05-23T14:54:48Z</time>
      </trkpt>
      <trkpt lat="42.8030440" lon="-8.6367260">
        <ele>46.1</ele>
        <time>2021-05-23T14:54:49Z</time>
      </trkpt>
      <trkpt lat="42.8030440" lon="-8.6367260">
        <ele>46.1</ele>
        <time>2021-05-23T14:54:50Z</time>
      </trkpt>
      <trkpt lat="42.8030430" lon="-8.6367260">
        <ele>46.1</ele>
        <time>2021-05-23T14:54:51Z</time>
      </trkpt>
      <trkpt lat="42.8030430" lon="-8.6367260">
        <ele>46.1</ele>
        <time>2021-05-23T14:54:52Z</time>
      </trkpt>
      <trkpt lat="42.8030430" lon="-8.6367260">
        <ele>46.1</ele>
        <time>2021-05-23T14:54:53Z</time>
      </trkpt>
      <trkpt lat="42.8030430" lon="-8.6367250">
        <ele>46.1</ele>
        <time>2021-05-23T14:54:54Z</time>
      </trkpt>
      <trkpt lat="42.8030430" lon="-8.6367250">
        <ele>46.1</ele>
        <time>2021-05-23T14:54:55Z</time>
      </trkpt>
      <trkpt lat="42.8030430" lon="-8.6367250">
        <ele>46.1</ele>
        <time>2021-05-23T14:54:56Z</time>
      </trkpt>
      <trkpt lat="42.8030430" lon="-8.6367250">
        <ele>46.1</ele>
        <time>2021-05-23T14:54:57Z</time>
      </trkpt>
      <trkpt lat="42.8030420" lon="-8.6367250">
        <ele>46.1</ele>
        <time>2021-05-23T14:54:58Z</time>
      </trkpt>
      <trkpt lat="42.8030420" lon="-8.6367250">
        <ele>46.1</ele>
        <time>2021-05-23T14:54:59Z</time>
      </trkpt>
      <trkpt lat="42.8030420" lon="-8.6367250">
        <ele>46.1</ele>
        <time>2021-05-23T14:55:00Z</time>
      </trkpt>
      <trkpt lat="42.8030420" lon="-8.6367250">
        <ele>46.1</ele>
        <time>2021-05-23T14:55:01Z</time>
      </trkpt>
      <trkpt lat="42.8030420" lon="-8.6367240">
        <ele>46.1</ele>
        <time>2021-05-23T14:55:02Z</time>
      </trkpt>
      <trkpt lat="42.8030420" lon="-8.6367240">
        <ele>46.1</ele>
        <time>2021-05-23T14:55:03Z</time>
      </trkpt>
      <trkpt lat="42.8030410" lon="-8.6367240">
        <ele>46.1</ele>
        <time>2021-05-23T14:55:04Z</time>
      </trkpt>
      <trkpt lat="42.8030410" lon="-8.6367240">
        <ele>46.1</ele>
        <time>2021-05-23T14:55:05Z</time>
      </trkpt>
      <trkpt lat="42.8030410" lon="-8.6367240">
        <ele>46.1</ele>
        <time>2021-05-23T14:55:06Z</time>
      </trkpt>
      <trkpt lat="42.8030410" lon="-8.6367240">
        <ele>46.1</ele>
        <time>2021-05-23T14:55:07Z</time>
      </trkpt>
      <trkpt lat="42.8030410" lon="-8.6367240">
        <ele>46.1</ele>
        <time>2021-05-23T14:55:08Z</time>
      </trkpt>
      <trkpt lat="42.8030410" lon="-8.6367240">
        <ele>46.1</ele>
        <time>2021-05-23T14:55:09Z</time>
      </trkpt>
      <trkpt lat="42.8030410" lon="-8.6367230">
        <ele>46.1</ele>
        <time>2021-05-23T14:55:10Z</time>
      </trkpt>
      <trkpt lat="42.8030400" lon="-8.6367230">
        <ele>46.1</ele>
        <time>2021-05-23T14:55:11Z</time>
      </trkpt>
      <trkpt lat="42.8030400" lon="-8.6367230">
        <ele>46.1</ele>
        <time>2021-05-23T14:55:12Z</time>
      </trkpt>
      <trkpt lat="42.8030400" lon="-8.6367230">
        <ele>46.1</ele>
        <time>2021-05-23T14:55:13Z</time>
      </trkpt>
      <trkpt lat="42.8030400" lon="-8.6367230">
        <ele>46.1</ele>
        <time>2021-05-23T14:55:14Z</time>
      </trkpt>
      <trkpt lat="42.8030400" lon="-8.6367230">
        <ele>46.1</ele>
        <time>2021-05-23T14:55:15Z</time>
      </trkpt>
      <trkpt lat="42.8030400" lon="-8.6367230">
        <ele>46.1</ele>
        <time>2021-05-23T14:55:16Z</time>
      </trkpt>
      <trkpt lat="42.8030390" lon="-8.6367230">
        <ele>46.1</ele>
        <time>2021-05-23T14:55:17Z</time>
      </trkpt>
      <trkpt lat="42.8030390" lon="-8.6367220">
        <ele>46.1</ele>
        <time>2021-05-23T14:55:18Z</time>
      </trkpt>
      <trkpt lat="42.8030390" lon="-8.6367220">
        <ele>46.1</ele>
        <time>2021-05-23T14:55:19Z</time>
      </trkpt>
      <trkpt lat="42.8030390" lon="-8.6367220">
        <ele>46.1</ele>
        <time>2021-05-23T14:55:20Z</time>
      </trkpt>
      <trkpt lat="42.8030390" lon="-8.6367220">
        <ele>46.1</ele>
        <time>2021-05-23T14:55:21Z</time>
      </trkpt>
      <trkpt lat="42.8030390" lon="-8.6367220">
        <ele>46.1</ele>
        <time>2021-05-23T14:55:22Z</time>
      </trkpt>
      <trkpt lat="42.8030380" lon="-8.6367220">
        <ele>46.1</ele>
        <time>2021-05-23T14:55:23Z</time>
      </trkpt>
      <trkpt lat="42.8030380" lon="-8.6367220">
        <ele>46.1</ele>
        <time>2021-05-23T14:55:24Z</time>
      </trkpt>
      <trkpt lat="42.8030380" lon="-8.6367220">
        <ele>46.1</ele>
        <time>2021-05-23T14:55:25Z</time>
      </trkpt>
      <trkpt lat="42.8030380" lon="-8.6367210">
        <ele>46.1</ele>
        <time>2021-05-23T14:55:26Z</time>
      </trkpt>
      <trkpt lat="42.8030380" lon="-8.6367210">
        <ele>46.1</ele>
        <time>2021-05-23T14:55:27Z</time>
      </trkpt>
      <trkpt lat="42.8030380" lon="-8.6367210">
        <ele>46.1</ele>
        <time>2021-05-23T14:55:28Z</time>
      </trkpt>
      <trkpt lat="42.8030380" lon="-8.6367210">
        <ele>46.1</ele>
        <time>2021-05-23T14:55:29Z</time>
      </trkpt>
      <trkpt lat="42.8030370" lon="-8.6367210">
        <ele>46.1</ele>
        <time>2021-05-23T14:55:30Z</time>
      </trkpt>
      <trkpt lat="42.8030370" lon="-8.6367210">
        <ele>46.1</ele>
        <time>2021-05-23T14:55:31Z</time>
      </trkpt>
      <trkpt lat="42.8030370" lon="-8.6367210">
        <ele>46.1</ele>
        <time>2021-05-23T14:55:32Z</time>
      </trkpt>
      <trkpt lat="42.8030370" lon="-8.6367210">
        <ele>46.1</ele>
        <time>2021-05-23T14:55:33Z</time>
      </trkpt>
      <trkpt lat="42.8030370" lon="-8.6367200">
        <ele>46.1</ele>
        <time>2021-05-23T14:55:34Z</time>
      </trkpt>
      <trkpt lat="42.8030370" lon="-8.6367200">
        <ele>46.1</ele>
        <time>2021-05-23T14:55:35Z</time>
      </trkpt>
      <trkpt lat="42.8030360" lon="-8.6367200">
        <ele>46.1</ele>
        <time>2021-05-23T14:55:36Z</time>
      </trkpt>
      <trkpt lat="42.8030360" lon="-8.6367200">
        <ele>46.1</ele>
        <time>2021-05-23T14:55:37Z</time>
      </trkpt>
      <trkpt lat="42.8030360" lon="-8.6367200">
        <ele>46.1</ele>
        <time>2021-05-23T14:55:38Z</time>
      </trkpt>
      <trkpt lat="42.8030360" lon="-8.6367200">
        <ele>46.1</ele>
        <time>2021-05-23T14:55:39Z</time>
      </trkpt>
      <trkpt lat="42.8030360" lon="-8.6367200">
        <ele>46.1</ele>
        <time>2021-05-23T14:55:40Z</time>
      </trkpt>
      <trkpt lat="42.8030360" lon="-8.6367200">
        <ele>46.1</ele>
        <time>2021-05-23T14:55:41Z</time>
      </trkpt>
      <trkpt lat="42.8030350" lon="-8.6367190">
        <ele>46.1</ele>
        <time>2021-05-23T14:55:42Z</time>
      </trkpt>
      <trkpt lat="42.8030350" lon="-8.6367190">
        <ele>46.1</ele>
        <time>2021-05-23T14:55:43Z</time>
      </trkpt>
      <trkpt lat="42.8030350" lon="-8.6367190">
        <ele>46.1</ele>
        <time>2021-05-23T14:55:44Z</time>
      </trkpt>
      <trkpt lat="42.8030350" lon="-8.6367190">
        <ele>46.1</ele>
        <time>2021-05-23T14:55:45Z</time>
      </trkpt>
      <trkpt lat="42.8030350" lon="-8.6367190">
        <ele>46.1</ele>
        <time>2021-05-23T14:55:46Z</time>
      </trkpt>
      <trkpt lat="42.8030350" lon="-8.6367190">
        <ele>46.1</ele>
        <time>2021-05-23T14:55:47Z</time>
      </trkpt>
      <trkpt lat="42.8030350" lon="-8.6367190">
        <ele>46.1</ele>
        <time>2021-05-23T14:55:48Z</time>
      </trkpt>
      <trkpt lat="42.8030340" lon="-8.6367190">
        <ele>46.1</ele>
        <time>2021-05-23T14:55:49Z</time>
      </trkpt>
      <trkpt lat="42.8030340" lon="-8.6367180">
        <ele>46.1</ele>
        <time>2021-05-23T14:55:50Z</time>
      </trkpt>
      <trkpt lat="42.8030340" lon="-8.6367180">
        <ele>46.1</ele>
        <time>2021-05-23T14:55:51Z</time>
      </trkpt>
      <trkpt lat="42.8030340" lon="-8.6367180">
        <ele>46.1</ele>
        <time>2021-05-23T14:55:52Z</time>
      </trkpt>
      <trkpt lat="42.8030340" lon="-8.6367180">
        <ele>46.1</ele>
        <time>2021-05-23T14:55:53Z</time>
      </trkpt>
      <trkpt lat="42.8030340" lon="-8.6367180">
        <ele>46.1</ele>
        <time>2021-05-23T14:55:54Z</time>
      </trkpt>
      <trkpt lat="42.8030330" lon="-8.6367180">
        <ele>46.1</ele>
        <time>2021-05-23T14:55:55Z</time>
      </trkpt>
      <trkpt lat="42.8030330" lon="-8.6367180">
        <ele>46.1</ele>
        <time>2021-05-23T14:55:56Z</time>
      </trkpt>
      <trkpt lat="42.8030330" lon="-8.6367180">
        <ele>46.1</ele>
        <time>2021-05-23T14:55:57Z</time>
      </trkpt>
      <trkpt lat="42.8030330" lon="-8.6367170">
        <ele>46.1</ele>
        <time>2021-05-23T14:55:58Z</time>
      </trkpt>
      <trkpt lat="42.8030330" lon="-8.6367170">
        <ele>46.1</ele>
        <time>2021-05-23T14:55:59Z</time>
      </trkpt>
      <trkpt lat="42.8030330" lon="-8.6367170">
        <ele>46.1</ele>
        <time>2021-05-23T14:56:00Z</time>
      </trkpt>
      <trkpt lat="42.8030330" lon="-8.6367170">
        <ele>46.1</ele>
        <time>2021-05-23T14:56:01Z</time>
      </trkpt>
      <trkpt lat="42.8030320" lon="-8.6367170">
        <ele>46.1</ele>
        <time>2021-05-23T14:56:02Z</time>
      </trkpt>
      <trkpt lat="42.8030320" lon="-8.6367170">
        <ele>46.1</ele>
        <time>2021-05-23T14:56:03Z</time>
      </trkpt>
      <trkpt lat="42.8030320" lon="-8.6367170">
        <ele>46.1</ele>
        <time>2021-05-23T14:56:04Z</time>
      </trkpt>
      <trkpt lat="42.8030320" lon="-8.6367170">
        <ele>46.1</ele>
        <time>2021-05-23T14:56:05Z</time>
      </trkpt>
      <trkpt lat="42.8030320" lon="-8.6367160">
        <ele>46.1</ele>
        <time>2021-05-23T14:56:06Z</time>
      </trkpt>
      <trkpt lat="42.8030320" lon="-8.6367160">
        <ele>46.1</ele>
        <time>2021-05-23T14:56:07Z</time>
      </trkpt>
      <trkpt lat="42.8030310" lon="-8.6367160">
        <ele>46.1</ele>
        <time>2021-05-23T14:56:08Z</time>
      </trkpt>
      <trkpt lat="42.8030310" lon="-8.6367160">
        <ele>46.1</ele>
        <time>2021-05-23T14:56:09Z</time>
      </trkpt>
      <trkpt lat="42.8030310" lon="-8.6367160">
        <ele>46.1</ele>
        <time>2021-05-23T14:56:10Z</time>
      </trkpt>
      <trkpt lat="42.8030310" lon="-8.6367160">
        <ele>46.1</ele>
        <time>2021-05-23T14:56:11Z</time>
      </trkpt>
      <trkpt lat="42.8030310" lon="-8.6367160">
        <ele>46.1</ele>
        <time>2021-05-23T14:56:12Z</time>
      </trkpt>
      <trkpt lat="42.8030310" lon="-8.6367160">
        <ele>46.1</ele>
        <time>2021-05-23T14:56:13Z</time>
      </trkpt>
      <trkpt lat="42.8030300" lon="-8.6367150">
        <ele>46.1</ele>
        <time>2021-05-23T14:56:14Z</time>
      </trkpt>
      <trkpt lat="42.8030300" lon="-8.6367150">
        <ele>46.1</ele>
        <time>2021-05-23T14:56:15Z</time>
      </trkpt>
      <trkpt lat="42.8030300" lon="-8.6367150">
        <ele>46.1</ele>
        <time>2021-05-23T14:56:16Z</time>
      </trkpt>
      <trkpt lat="42.8030300" lon="-8.6367150">
        <ele>46.1</ele>
        <time>2021-05-23T14:56:17Z</time>
      </trkpt>
      <trkpt lat="42.8030270" lon="-8.6367160">
        <ele>46.1</ele>
        <time>2021-05-23T14:56:18Z</time>
      </trkpt>
      <trkpt lat="42.8030280" lon="-8.6367150">
        <ele>46.1</ele>
        <time>2021-05-23T14:56:19Z</time>
      </trkpt>
      <trkpt lat="42.8030280" lon="-8.6367170">
        <ele>46.1</ele>
        <time>2021-05-23T14:56:20Z</time>
      </trkpt>
      <trkpt lat="42.8030280" lon="-8.6367190">
        <ele>46.1</ele>
        <time>2021-05-23T14:56:21Z</time>
      </trkpt>
      <trkpt lat="42.8030300" lon="-8.6367200">
        <ele>46.1</ele>
        <time>2021-05-23T14:56:22Z</time>
      </trkpt>
      <trkpt lat="42.8030330" lon="-8.6367240">
        <ele>46.1</ele>
        <time>2021-05-23T14:56:23Z</time>
      </trkpt>
      <trkpt lat="42.8030340" lon="-8.6367280">
        <ele>46.1</ele>
        <time>2021-05-23T14:56:24Z</time>
      </trkpt>
      <trkpt lat="42.8030330" lon="-8.6367320">
        <ele>46.1</ele>
        <time>2021-05-23T14:56:25Z</time>
      </trkpt>
      <trkpt lat="42.8034220" lon="-8.6370340">
        <ele>46.0</ele>
        <time>2021-05-24T05:21:07Z</time>
      </trkpt>
      <trkpt lat="42.8034240" lon="-8.6370340">
        <ele>46.0</ele>
        <time>2021-05-24T05:21:08Z</time>
      </trkpt>
      <trkpt lat="42.8034240" lon="-8.6370360">
        <ele>46.0</ele>
        <time>2021-05-24T05:21:09Z</time>
      </trkpt>
      <trkpt lat="42.8034240" lon="-8.6370330">
        <ele>46.0</ele>
        <time>2021-05-24T05:21:10Z</time>
      </trkpt>
      <trkpt lat="42.8034250" lon="-8.6370370">
        <ele>46.0</ele>
        <time>2021-05-24T05:21:11Z</time>
      </trkpt>
      <trkpt lat="42.8034250" lon="-8.6370370">
        <ele>46.0</ele>
        <time>2021-05-24T05:21:12Z</time>
      </trkpt>
      <trkpt lat="42.8034310" lon="-8.6370330">
        <ele>46.0</ele>
        <time>2021-05-24T05:21:13Z</time>
      </trkpt>
      <trkpt lat="42.8034350" lon="-8.6370420">
        <ele>46.0</ele>
        <time>2021-05-24T05:21:14Z</time>
      </trkpt>
      <trkpt lat="42.8034380" lon="-8.6370460">
        <ele>46.0</ele>
        <time>2021-05-24T05:21:15Z</time>
      </trkpt>
      <trkpt lat="42.8034410" lon="-8.6370490">
        <ele>46.0</ele>
        <time>2021-05-24T05:21:16Z</time>
      </trkpt>
      <trkpt lat="42.8034430" lon="-8.6370510">
        <ele>46.0</ele>
        <time>2021-05-24T05:21:17Z</time>
      </trkpt>
      <trkpt lat="42.8034450" lon="-8.6370520">
        <ele>46.0</ele>
        <time>2021-05-24T05:21:18Z</time>
      </trkpt>
      <trkpt lat="42.8034460" lon="-8.6370540">
        <ele>46.0</ele>
        <time>2021-05-24T05:21:19Z</time>
      </trkpt>
      <trkpt lat="42.8034470" lon="-8.6370610">
        <ele>46.0</ele>
        <time>2021-05-24T05:21:20Z</time>
      </trkpt>
      <trkpt lat="42.8034500" lon="-8.6370630">
        <ele>46.0</ele>
        <time>2021-05-24T05:21:21Z</time>
      </trkpt>
      <trkpt lat="42.8034500" lon="-8.6370620">
        <ele>46.0</ele>
        <time>2021-05-24T05:21:22Z</time>
      </trkpt>
      <trkpt lat="42.8034530" lon="-8.6370640">
        <ele>46.0</ele>
        <time>2021-05-24T05:21:23Z</time>
      </trkpt>
      <trkpt lat="42.8034560" lon="-8.6370650">
        <ele>46.0</ele>
        <time>2021-05-24T05:21:24Z</time>
      </trkpt>
      <trkpt lat="42.8034590" lon="-8.6370660">
        <ele>46.0</ele>
        <time>2021-05-24T05:21:25Z</time>
      </trkpt>
      <trkpt lat="42.8034610" lon="-8.6370680">
        <ele>46.0</ele>
        <time>2021-05-24T05:21:26Z</time>
      </trkpt>
      <trkpt lat="42.8034610" lon="-8.6370690">
        <ele>46.0</ele>
        <time>2021-05-24T05:21:27Z</time>
      </trkpt>
      <trkpt lat="42.8034610" lon="-8.6370690">
        <ele>46.0</ele>
        <time>2021-05-24T05:21:28Z</time>
      </trkpt>
      <trkpt lat="42.8034610" lon="-8.6370690">
        <ele>46.0</ele>
        <time>2021-05-24T05:21:29Z</time>
      </trkpt>
      <trkpt lat="42.8034610" lon="-8.6370690">
        <ele>46.0</ele>
        <time>2021-05-24T05:21:30Z</time>
      </trkpt>
      <trkpt lat="42.8034610" lon="-8.6370690">
        <ele>46.0</ele>
        <time>2021-05-24T05:21:31Z</time>
      </trkpt>
      <trkpt lat="42.8034610" lon="-8.6370690">
        <ele>46.0</ele>
        <time>2021-05-24T05:21:32Z</time>
      </trkpt>
      <trkpt lat="42.8034610" lon="-8.6370690">
        <ele>46.0</ele>
        <time>2021-05-24T05:21:33Z</time>
      </trkpt>
      <trkpt lat="42.8034610" lon="-8.6370690">
        <ele>46.0</ele>
        <time>2021-05-24T05:21:34Z</time>
      </trkpt>
      <trkpt lat="42.8034610" lon="-8.6370690">
        <ele>46.0</ele>
        <time>2021-05-24T05:21:35Z</time>
      </trkpt>
      <trkpt lat="42.8034610" lon="-8.6370690">
        <ele>46.0</ele>
        <time>2021-05-24T05:21:36Z</time>
      </trkpt>
      <trkpt lat="42.8034610" lon="-8.6370690">
        <ele>46.0</ele>
        <time>2021-05-24T05:21:37Z</time>
      </trkpt>
      <trkpt lat="42.8034610" lon="-8.6370690">
        <ele>46.0</ele>
        <time>2021-05-24T05:21:38Z</time>
      </trkpt>
      <trkpt lat="42.8034610" lon="-8.6370690">
        <ele>46.0</ele>
        <time>2021-05-24T05:21:39Z</time>
      </trkpt>
      <trkpt lat="42.8034610" lon="-8.6370690">
        <ele>46.0</ele>
        <time>2021-05-24T05:21:40Z</time>
      </trkpt>
      <trkpt lat="42.8034610" lon="-8.6370690">
        <ele>46.0</ele>
        <time>2021-05-24T05:21:41Z</time>
      </trkpt>
      <trkpt lat="42.8034610" lon="-8.6370690">
        <ele>46.0</ele>
        <time>2021-05-24T05:21:42Z</time>
      </trkpt>
      <trkpt lat="42.8034610" lon="-8.6370690">
        <ele>46.0</ele>
        <time>2021-05-24T05:21:43Z</time>
      </trkpt>
      <trkpt lat="42.8034610" lon="-8.6370690">
        <ele>46.0</ele>
        <time>2021-05-24T05:21:44Z</time>
      </trkpt>
      <trkpt lat="42.8034610" lon="-8.6370690">
        <ele>46.0</ele>
        <time>2021-05-24T05:21:45Z</time>
      </trkpt>
      <trkpt lat="42.8034610" lon="-8.6370690">
        <ele>46.0</ele>
        <time>2021-05-24T05:21:46Z</time>
      </trkpt>
      <trkpt lat="42.8034590" lon="-8.6370890">
        <ele>46.0</ele>
        <time>2021-05-24T05:21:47Z</time>
      </trkpt>
      <trkpt lat="42.8034600" lon="-8.6370870">
        <ele>46.0</ele>
        <time>2021-05-24T05:21:48Z</time>
      </trkpt>
      <trkpt lat="42.8034590" lon="-8.6370880">
        <ele>46.0</ele>
        <time>2021-05-24T05:21:49Z</time>
      </trkpt>
      <trkpt lat="42.8034580" lon="-8.6370890">
        <ele>46.0</ele>
        <time>2021-05-24T05:21:50Z</time>
      </trkpt>
      <trkpt lat="42.8034580" lon="-8.6370890">
        <ele>46.0</ele>
        <time>2021-05-24T05:21:51Z</time>
      </trkpt>
      <trkpt lat="42.8034560" lon="-8.6370890">
        <ele>46.0</ele>
        <time>2021-05-24T05:21:52Z</time>
      </trkpt>
      <trkpt lat="42.8034550" lon="-8.6370890">
        <ele>46.0</ele>
        <time>2021-05-24T05:21:53Z</time>
      </trkpt>
      <trkpt lat="42.8034540" lon="-8.6370880">
        <ele>46.0</ele>
        <time>2021-05-24T05:21:54Z</time>
      </trkpt>
      <trkpt lat="42.8034540" lon="-8.6370880">
        <ele>46.0</ele>
        <time>2021-05-24T05:21:55Z</time>
      </trkpt>
      <trkpt lat="42.8034540" lon="-8.6370880">
        <ele>46.0</ele>
        <time>2021-05-24T05:21:56Z</time>
      </trkpt>
      <trkpt lat="42.8034520" lon="-8.6370910">
        <ele>46.0</ele>
        <time>2021-05-24T05:21:57Z</time>
      </trkpt>
      <trkpt lat="42.8034510" lon="-8.6370930">
        <ele>46.0</ele>
        <time>2021-05-24T05:21:58Z</time>
      </trkpt>
      <trkpt lat="42.8034510" lon="-8.6370940">
        <ele>46.0</ele>
        <time>2021-05-24T05:21:59Z</time>
      </trkpt>
      <trkpt lat="42.8034510" lon="-8.6370940">
        <ele>46.0</ele>
        <time>2021-05-24T05:22:00Z</time>
      </trkpt>
      <trkpt lat="42.8034510" lon="-8.6370940">
        <ele>46.0</ele>
        <time>2021-05-24T05:22:01Z</time>
      </trkpt>
      <trkpt lat="42.8034520" lon="-8.6370960">
        <ele>46.0</ele>
        <time>2021-05-24T05:22:02Z</time>
      </trkpt>
      <trkpt lat="42.8034520" lon="-8.6370970">
        <ele>46.0</ele>
        <time>2021-05-24T05:22:03Z</time>
      </trkpt>
      <trkpt lat="42.8034520" lon="-8.6370940">
        <ele>46.0</ele>
        <time>2021-05-24T05:22:04Z</time>
      </trkpt>
      <trkpt lat="42.8034530" lon="-8.6370920">
        <ele>46.0</ele>
        <time>2021-05-24T05:22:05Z</time>
      </trkpt>
      <trkpt lat="42.8034560" lon="-8.6370930">
        <ele>46.0</ele>
        <time>2021-05-24T05:22:06Z</time>
      </trkpt>
      <trkpt lat="42.8034580" lon="-8.6370920">
        <ele>46.0</ele>
        <time>2021-05-24T05:22:07Z</time>
      </trkpt>
      <trkpt lat="42.8034590" lon="-8.6370910">
        <ele>46.0</ele>
        <time>2021-05-24T05:22:08Z</time>
      </trkpt>
      <trkpt lat="42.8034590" lon="-8.6370890">
        <ele>46.0</ele>
        <time>2021-05-24T05:22:09Z</time>
      </trkpt>
      <trkpt lat="42.8034620" lon="-8.6370900">
        <ele>46.0</ele>
        <time>2021-05-24T05:22:10Z</time>
      </trkpt>
      <trkpt lat="42.8034620" lon="-8.6370900">
        <ele>46.0</ele>
        <time>2021-05-24T05:22:11Z</time>
      </trkpt>
      <trkpt lat="42.8034620" lon="-8.6370900">
        <ele>46.0</ele>
        <time>2021-05-24T05:22:12Z</time>
      </trkpt>
      <trkpt lat="42.8034650" lon="-8.6370880">
        <ele>46.0</ele>
        <time>2021-05-24T05:22:13Z</time>
      </trkpt>
      <trkpt lat="42.8034650" lon="-8.6370880">
        <ele>46.0</ele>
        <time>2021-05-24T05:22:14Z</time>
      </trkpt>
      <trkpt lat="42.8034650" lon="-8.6370880">
        <ele>46.0</ele>
        <time>2021-05-24T05:22:15Z</time>
      </trkpt>
      <trkpt lat="42.8034650" lon="-8.6370880">
        <ele>46.0</ele>
        <time>2021-05-24T05:22:16Z</time>
      </trkpt>
      <trkpt lat="42.8034650" lon="-8.6370880">
        <ele>46.0</ele>
        <time>2021-05-24T05:22:17Z</time>
      </trkpt>
      <trkpt lat="42.8034650" lon="-8.6370880">
        <ele>46.0</ele>
        <time>2021-05-24T05:22:18Z</time>
      </trkpt>
      <trkpt lat="42.8034650" lon="-8.6370880">
        <ele>46.0</ele>
        <time>2021-05-24T05:22:19Z</time>
      </trkpt>
      <trkpt lat="42.8034650" lon="-8.6370880">
        <ele>46.0</ele>
        <time>2021-05-24T05:22:20Z</time>
      </trkpt>
      <trkpt lat="42.8034660" lon="-8.6370760">
        <ele>46.0</ele>
        <time>2021-05-24T05:22:21Z</time>
      </trkpt>
      <trkpt lat="42.8034670" lon="-8.6370770">
        <ele>46.0</ele>
        <time>2021-05-24T05:22:22Z</time>
      </trkpt>
      <trkpt lat="42.8034660" lon="-8.6370800">
        <ele>46.0</ele>
        <time>2021-05-24T05:22:23Z</time>
      </trkpt>
      <trkpt lat="42.8034660" lon="-8.6370800">
        <ele>46.0</ele>
        <time>2021-05-24T05:22:24Z</time>
      </trkpt>
      <trkpt lat="42.8034690" lon="-8.6370820">
        <ele>46.0</ele>
        <time>2021-05-24T05:22:25Z</time>
      </trkpt>
      <trkpt lat="42.8034690" lon="-8.6370850">
        <ele>46.0</ele>
        <time>2021-05-24T05:22:26Z</time>
      </trkpt>
      <trkpt lat="42.8034690" lon="-8.6370850">
        <ele>46.0</ele>
        <time>2021-05-24T05:22:27Z</time>
      </trkpt>
      <trkpt lat="42.8034690" lon="-8.6370850">
        <ele>46.0</ele>
        <time>2021-05-24T05:22:28Z</time>
      </trkpt>
      <trkpt lat="42.8034710" lon="-8.6370850">
        <ele>46.0</ele>
        <time>2021-05-24T05:22:29Z</time>
      </trkpt>
      <trkpt lat="42.8034720" lon="-8.6370860">
        <ele>46.0</ele>
        <time>2021-05-24T05:22:30Z</time>
      </trkpt>
      <trkpt lat="42.8034710" lon="-8.6370870">
        <ele>46.0</ele>
        <time>2021-05-24T05:22:31Z</time>
      </trkpt>
      <trkpt lat="42.8034710" lon="-8.6370870">
        <ele>46.0</ele>
        <time>2021-05-24T05:22:32Z</time>
      </trkpt>
      <trkpt lat="42.8034710" lon="-8.6370870">
        <ele>46.0</ele>
        <time>2021-05-24T05:22:33Z</time>
      </trkpt>
      <trkpt lat="42.8034710" lon="-8.6370870">
        <ele>46.0</ele>
        <time>2021-05-24T05:22:34Z</time>
      </trkpt>
      <trkpt lat="42.8034710" lon="-8.6370870">
        <ele>46.0</ele>
        <time>2021-05-24T05:22:35Z</time>
      </trkpt>
      <trkpt lat="42.8034710" lon="-8.6370870">
        <ele>46.0</ele>
        <time>2021-05-24T05:22:36Z</time>
      </trkpt>
      <trkpt lat="42.8034630" lon="-8.6370800">
        <ele>46.0</ele>
        <time>2021-05-24T05:22:37Z</time>
      </trkpt>
      <trkpt lat="42.8034620" lon="-8.6370780">
        <ele>46.0</ele>
        <time>2021-05-24T05:22:38Z</time>
      </trkpt>
      <trkpt lat="42.8034590" lon="-8.6370770">
        <ele>46.0</ele>
        <time>2021-05-24T05:22:39Z</time>
      </trkpt>
      <trkpt lat="42.8034600" lon="-8.6370790">
        <ele>46.0</ele>
        <time>2021-05-24T05:22:40Z</time>
      </trkpt>
      <trkpt lat="42.8034580" lon="-8.6370760">
        <ele>46.0</ele>
        <time>2021-05-24T05:22:41Z</time>
      </trkpt>
      <trkpt lat="42.8034620" lon="-8.6370780">
        <ele>46.0</ele>
        <time>2021-05-24T05:22:42Z</time>
      </trkpt>
      <trkpt lat="42.8034650" lon="-8.6370800">
        <ele>46.0</ele>
        <time>2021-05-24T05:22:43Z</time>
      </trkpt>
      <trkpt lat="42.8034670" lon="-8.6370850">
        <ele>46.0</ele>
        <time>2021-05-24T05:22:44Z</time>
      </trkpt>
      <trkpt lat="42.8034700" lon="-8.6370900">
        <ele>46.0</ele>
        <time>2021-05-24T05:22:45Z</time>
      </trkpt>
      <trkpt lat="42.8034680" lon="-8.6370920">
        <ele>46.0</ele>
        <time>2021-05-24T05:22:46Z</time>
      </trkpt>
      <trkpt lat="42.8034640" lon="-8.6370940">
        <ele>46.0</ele>
        <time>2021-05-24T05:22:47Z</time>
      </trkpt>
      <trkpt lat="42.8034590" lon="-8.6370960">
        <ele>46.0</ele>
        <time>2021-05-24T05:22:48Z</time>
      </trkpt>
      <trkpt lat="42.8034530" lon="-8.6371010">
        <ele>46.0</ele>
        <time>2021-05-24T05:22:49Z</time>
      </trkpt>
      <trkpt lat="42.8034510" lon="-8.6371030">
        <ele>46.0</ele>
        <time>2021-05-24T05:22:50Z</time>
      </trkpt>
      <trkpt lat="42.8034530" lon="-8.6371030">
        <ele>46.0</ele>
        <time>2021-05-24T05:22:51Z</time>
      </trkpt>
      <trkpt lat="42.8034580" lon="-8.6371040">
        <ele>46.0</ele>
        <time>2021-05-24T05:22:52Z</time>
      </trkpt>
      <trkpt lat="42.8034570" lon="-8.6371020">
        <ele>46.0</ele>
        <time>2021-05-24T05:22:53Z</time>
      </trkpt>
      <trkpt lat="42.8034540" lon="-8.6371050">
        <ele>46.0</ele>
        <time>2021-05-24T05:22:54Z</time>
      </trkpt>
      <trkpt lat="42.8034520" lon="-8.6371060">
        <ele>46.0</ele>
        <time>2021-05-24T05:22:55Z</time>
      </trkpt>
      <trkpt lat="42.8034540" lon="-8.6371070">
        <ele>46.0</ele>
        <time>2021-05-24T05:22:56Z</time>
      </trkpt>
      <trkpt lat="42.8034570" lon="-8.6371100">
        <ele>46.0</ele>
        <time>2021-05-24T05:22:57Z</time>
      </trkpt>
      <trkpt lat="42.8034570" lon="-8.6371100">
        <ele>46.0</ele>
        <time>2021-05-24T05:22:58Z</time>
      </trkpt>
      <trkpt lat="42.8034570" lon="-8.6371100">
        <ele>46.0</ele>
        <time>2021-05-24T05:22:59Z</time>
      </trkpt>
      <trkpt lat="42.8034570" lon="-8.6371100">
        <ele>46.0</ele>
        <time>2021-05-24T05:23:00Z</time>
      </trkpt>
      <trkpt lat="42.8034570" lon="-8.6371100">
        <ele>46.0</ele>
        <time>2021-05-24T05:23:01Z</time>
      </trkpt>
      <trkpt lat="42.8034590" lon="-8.6371070">
        <ele>46.0</ele>
        <time>2021-05-24T05:23:02Z</time>
      </trkpt>
      <trkpt lat="42.8034600" lon="-8.6371070">
        <ele>46.0</ele>
        <time>2021-05-24T05:23:03Z</time>
      </trkpt>
      <trkpt lat="42.8034600" lon="-8.6371070">
        <ele>46.0</ele>
        <time>2021-05-24T05:23:04Z</time>
      </trkpt>
      <trkpt lat="42.8034600" lon="-8.6371070">
        <ele>46.0</ele>
        <time>2021-05-24T05:23:05Z</time>
      </trkpt>
      <trkpt lat="42.8034600" lon="-8.6371070">
        <ele>46.0</ele>
        <time>2021-05-24T05:23:06Z</time>
      </trkpt>
      <trkpt lat="42.8034650" lon="-8.6371090">
        <ele>46.0</ele>
        <time>2021-05-24T05:23:07Z</time>
      </trkpt>
      <trkpt lat="42.8034650" lon="-8.6371100">
        <ele>46.0</ele>
        <time>2021-05-24T05:23:08Z</time>
      </trkpt>
      <trkpt lat="42.8034660" lon="-8.6371130">
        <ele>46.0</ele>
        <time>2021-05-24T05:23:09Z</time>
      </trkpt>
      <trkpt lat="42.8034680" lon="-8.6371140">
        <ele>46.0</ele>
        <time>2021-05-24T05:23:10Z</time>
      </trkpt>
      <trkpt lat="42.8034690" lon="-8.6371160">
        <ele>46.0</ele>
        <time>2021-05-24T05:23:11Z</time>
      </trkpt>
      <trkpt lat="42.8034690" lon="-8.6371170">
        <ele>46.0</ele>
        <time>2021-05-24T05:23:12Z</time>
      </trkpt>
      <trkpt lat="42.8034690" lon="-8.6371170">
        <ele>46.0</ele>
        <time>2021-05-24T05:23:13Z</time>
      </trkpt>
      <trkpt lat="42.8034700" lon="-8.6371120">
        <ele>46.0</ele>
        <time>2021-05-24T05:23:14Z</time>
      </trkpt>
      <trkpt lat="42.8034700" lon="-8.6371130">
        <ele>46.0</ele>
        <time>2021-05-24T05:23:15Z</time>
      </trkpt>
      <trkpt lat="42.8034700" lon="-8.6371120">
        <ele>46.0</ele>
        <time>2021-05-24T05:23:16Z</time>
      </trkpt>
      <trkpt lat="42.8034700" lon="-8.6371110">
        <ele>46.0</ele>
        <time>2021-05-24T05:23:17Z</time>
      </trkpt>
      <trkpt lat="42.8034700" lon="-8.6371110">
        <ele>46.0</ele>
        <time>2021-05-24T05:23:18Z</time>
      </trkpt>
      <trkpt lat="42.8034700" lon="-8.6371110">
        <ele>46.0</ele>
        <time>2021-05-24T05:23:19Z</time>
      </trkpt>
      <trkpt lat="42.8034700" lon="-8.6371120">
        <ele>46.0</ele>
        <time>2021-05-24T05:23:20Z</time>
      </trkpt>
      <trkpt lat="42.8034720" lon="-8.6371110">
        <ele>46.0</ele>
        <time>2021-05-24T05:23:21Z</time>
      </trkpt>
      <trkpt lat="42.8034720" lon="-8.6371100">
        <ele>46.0</ele>
        <time>2021-05-24T05:23:22Z</time>
      </trkpt>
      <trkpt lat="42.8034720" lon="-8.6371080">
        <ele>46.0</ele>
        <time>2021-05-24T05:23:23Z</time>
      </trkpt>
      <trkpt lat="42.8034710" lon="-8.6371070">
        <ele>46.0</ele>
        <time>2021-05-24T05:23:24Z</time>
      </trkpt>
      <trkpt lat="42.8034700" lon="-8.6371060">
        <ele>46.0</ele>
        <time>2021-05-24T05:23:25Z</time>
      </trkpt>
      <trkpt lat="42.8034670" lon="-8.6371060">
        <ele>46.0</ele>
        <time>2021-05-24T05:23:26Z</time>
      </trkpt>
      <trkpt lat="42.8034670" lon="-8.6371060">
        <ele>46.0</ele>
        <time>2021-05-24T05:23:27Z</time>
      </trkpt>
      <trkpt lat="42.8034660" lon="-8.6371080">
        <ele>46.0</ele>
        <time>2021-05-24T05:23:28Z</time>
      </trkpt>
      <trkpt lat="42.8034670" lon="-8.6371100">
        <ele>46.0</ele>
        <time>2021-05-24T05:23:29Z</time>
      </trkpt>
      <trkpt lat="42.8034670" lon="-8.6371100">
        <ele>46.0</ele>
        <time>2021-05-24T05:23:30Z</time>
      </trkpt>
      <trkpt lat="42.8034670" lon="-8.6371110">
        <ele>46.0</ele>
        <time>2021-05-24T05:23:31Z</time>
      </trkpt>
      <trkpt lat="42.8034660" lon="-8.6371110">
        <ele>46.0</ele>
        <time>2021-05-24T05:23:32Z</time>
      </trkpt>
      <trkpt lat="42.8034660" lon="-8.6371100">
        <ele>46.0</ele>
        <time>2021-05-24T05:23:33Z</time>
      </trkpt>
      <trkpt lat="42.8034650" lon="-8.6371060">
        <ele>46.0</ele>
        <time>2021-05-24T05:23:34Z</time>
      </trkpt>
      <trkpt lat="42.8034700" lon="-8.6370950">
        <ele>46.0</ele>
        <time>2021-05-24T05:23:35Z</time>
      </trkpt>
      <trkpt lat="42.8034690" lon="-8.6370930">
        <ele>46.0</ele>
        <time>2021-05-24T05:23:36Z</time>
      </trkpt>
      <trkpt lat="42.8034760" lon="-8.6370860">
        <ele>46.0</ele>
        <time>2021-05-24T05:23:37Z</time>
      </trkpt>
      <trkpt lat="42.8034780" lon="-8.6370830">
        <ele>46.0</ele>
        <time>2021-05-24T05:23:38Z</time>
      </trkpt>
      <trkpt lat="42.8034860" lon="-8.6370840">
        <ele>46.0</ele>
        <time>2021-05-24T05:23:39Z</time>
      </trkpt>
      <trkpt lat="42.8034920" lon="-8.6370850">
        <ele>46.0</ele>
        <time>2021-05-24T05:23:40Z</time>
      </trkpt>
      <trkpt lat="42.8034940" lon="-8.6370840">
        <ele>46.0</ele>
        <time>2021-05-24T05:23:41Z</time>
      </trkpt>
      <trkpt lat="42.8034930" lon="-8.6370820">
        <ele>45.9</ele>
        <time>2021-05-24T05:23:42Z</time>
      </trkpt>
      <trkpt lat="42.8034940" lon="-8.6370830">
        <ele>45.9</ele>
        <time>2021-05-24T05:23:43Z</time>
      </trkpt>
      <trkpt lat="42.8034930" lon="-8.6370780">
        <ele>45.9</ele>
        <time>2021-05-24T05:23:44Z</time>
      </trkpt>
      <trkpt lat="42.8034910" lon="-8.6370770">
        <ele>45.9</ele>
        <time>2021-05-24T05:23:45Z</time>
      </trkpt>
      <trkpt lat="42.8034930" lon="-8.6370790">
        <ele>45.9</ele>
        <time>2021-05-24T05:23:46Z</time>
      </trkpt>
      <trkpt lat="42.8035020" lon="-8.6370870">
        <ele>45.9</ele>
        <time>2021-05-24T05:23:47Z</time>
      </trkpt>
      <trkpt lat="42.8035060" lon="-8.6370900">
        <ele>45.9</ele>
        <time>2021-05-24T05:23:48Z</time>
      </trkpt>
      <trkpt lat="42.8035070" lon="-8.6370880">
        <ele>45.9</ele>
        <time>2021-05-24T05:23:49Z</time>
      </trkpt>
      <trkpt lat="42.8035110" lon="-8.6370890">
        <ele>45.9</ele>
        <time>2021-05-24T05:23:50Z</time>
      </trkpt>
      <trkpt lat="42.8035140" lon="-8.6370900">
        <ele>45.9</ele>
        <time>2021-05-24T05:23:51Z</time>
      </trkpt>
      <trkpt lat="42.8035170" lon="-8.6370850">
        <ele>45.9</ele>
        <time>2021-05-24T05:23:52Z</time>
      </trkpt>
      <trkpt lat="42.8035190" lon="-8.6370870">
        <ele>45.9</ele>
        <time>2021-05-24T05:23:53Z</time>
      </trkpt>
      <trkpt lat="42.8035200" lon="-8.6370880">
        <ele>45.9</ele>
        <time>2021-05-24T05:23:54Z</time>
      </trkpt>
      <trkpt lat="42.8035210" lon="-8.6370920">
        <ele>45.9</ele>
        <time>2021-05-24T05:23:55Z</time>
      </trkpt>
      <trkpt lat="42.8035200" lon="-8.6370940">
        <ele>45.9</ele>
        <time>2021-05-24T05:23:56Z</time>
      </trkpt>
      <trkpt lat="42.8035190" lon="-8.6370990">
        <ele>45.9</ele>
        <time>2021-05-24T05:23:57Z</time>
      </trkpt>
      <trkpt lat="42.8035140" lon="-8.6371040">
        <ele>45.9</ele>
        <time>2021-05-24T05:23:58Z</time>
      </trkpt>
      <trkpt lat="42.8035140" lon="-8.6371040">
        <ele>45.9</ele>
        <time>2021-05-24T05:23:59Z</time>
      </trkpt>
      <trkpt lat="42.8035190" lon="-8.6371120">
        <ele>45.9</ele>
        <time>2021-05-24T05:24:00Z</time>
      </trkpt>
      <trkpt lat="42.8035190" lon="-8.6371120">
        <ele>45.9</ele>
        <time>2021-05-24T05:24:01Z</time>
      </trkpt>
      <trkpt lat="42.8035190" lon="-8.6371120">
        <ele>45.9</ele>
        <time>2021-05-24T05:24:02Z</time>
      </trkpt>
      <trkpt lat="42.8035190" lon="-8.6371120">
        <ele>45.9</ele>
        <time>2021-05-24T05:24:03Z</time>
      </trkpt>
      <trkpt lat="42.8035190" lon="-8.6371120">
        <ele>45.9</ele>
        <time>2021-05-24T05:24:04Z</time>
      </trkpt>
      <trkpt lat="42.8035190" lon="-8.6371120">
        <ele>45.9</ele>
        <time>2021-05-24T05:24:05Z</time>
      </trkpt>
      <trkpt lat="42.8035190" lon="-8.6371120">
        <ele>45.9</ele>
        <time>2021-05-24T05:24:06Z</time>
      </trkpt>
      <trkpt lat="42.8035290" lon="-8.6371090">
        <ele>45.9</ele>
        <time>2021-05-24T05:24:07Z</time>
      </trkpt>
      <trkpt lat="42.8035310" lon="-8.6371100">
        <ele>45.9</ele>
        <time>2021-05-24T05:24:08Z</time>
      </trkpt>
      <trkpt lat="42.8035330" lon="-8.6371120">
        <ele>45.9</ele>
        <time>2021-05-24T05:24:09Z</time>
      </trkpt>
      <trkpt lat="42.8035330" lon="-8.6371100">
        <ele>45.9</ele>
        <time>2021-05-24T05:24:10Z</time>
      </trkpt>
      <trkpt lat="42.8035350" lon="-8.6371090">
        <ele>45.9</ele>
        <time>2021-05-24T05:24:11Z</time>
      </trkpt>
      <trkpt lat="42.8035350" lon="-8.6371090">
        <ele>45.9</ele>
        <time>2021-05-24T05:24:12Z</time>
      </trkpt>
      <trkpt lat="42.8035350" lon="-8.6371090">
        <ele>45.9</ele>
        <time>2021-05-24T05:24:13Z</time>
      </trkpt>
      <trkpt lat="42.8035380" lon="-8.6370980">
        <ele>45.9</ele>
        <time>2021-05-24T05:24:14Z</time>
      </trkpt>
      <trkpt lat="42.8035410" lon="-8.6370970">
        <ele>45.9</ele>
        <time>2021-05-24T05:24:15Z</time>
      </trkpt>
      <trkpt lat="42.8035440" lon="-8.6370930">
        <ele>45.9</ele>
        <time>2021-05-24T05:24:16Z</time>
      </trkpt>
      <trkpt lat="42.8035480" lon="-8.6370910">
        <ele>45.9</ele>
        <time>2021-05-24T05:24:17Z</time>
      </trkpt>
      <trkpt lat="42.8035480" lon="-8.6370920">
        <ele>45.9</ele>
        <time>2021-05-24T05:24:18Z</time>
      </trkpt>
      <trkpt lat="42.8035510" lon="-8.6370850">
        <ele>45.9</ele>
        <time>2021-05-24T05:24:19Z</time>
      </trkpt>
      <trkpt lat="42.8035540" lon="-8.6370850">
        <ele>45.9</ele>
        <time>2021-05-24T05:24:20Z</time>
      </trkpt>
      <trkpt lat="42.8035560" lon="-8.6370870">
        <ele>45.9</ele>
        <time>2021-05-24T05:24:21Z</time>
      </trkpt>
      <trkpt lat="42.8035560" lon="-8.6370880">
        <ele>45.9</ele>
        <time>2021-05-24T05:24:22Z</time>
      </trkpt>
      <trkpt lat="42.8035550" lon="-8.6370850">
        <ele>45.9</ele>
        <time>2021-05-24T05:24:23Z</time>
      </trkpt>
      <trkpt lat="42.8035520" lon="-8.6370810">
        <ele>45.9</ele>
        <time>2021-05-24T05:24:24Z</time>
      </trkpt>
      <trkpt lat="42.8035440" lon="-8.6370770">
        <ele>45.9</ele>
        <time>2021-05-24T05:24:25Z</time>
      </trkpt>
      <trkpt lat="42.8035420" lon="-8.6370750">
        <ele>45.9</ele>
        <time>2021-05-24T05:24:26Z</time>
      </trkpt>
      <trkpt lat="42.8035400" lon="-8.6370720">
        <ele>45.9</ele>
        <time>2021-05-24T05:24:27Z</time>
      </trkpt>
      <trkpt lat="42.8035350" lon="-8.6370730">
        <ele>45.9</ele>
        <time>2021-05-24T05:24:28Z</time>
      </trkpt>
      <trkpt lat="42.8035290" lon="-8.6370760">
        <ele>45.9</ele>
        <time>2021-05-24T05:24:29Z</time>
      </trkpt>
      <trkpt lat="42.8035280" lon="-8.6370730">
        <ele>45.9</ele>
        <time>2021-05-24T05:24:30Z</time>
      </trkpt>
      <trkpt lat="42.8035290" lon="-8.6370790">
        <ele>45.9</ele>
        <time>2021-05-24T05:24:31Z</time>
      </trkpt>
      <trkpt lat="42.8035330" lon="-8.6370830">
        <ele>45.9</ele>
        <time>2021-05-24T05:24:32Z</time>
      </trkpt>
      <trkpt lat="42.8035330" lon="-8.6370860">
        <ele>45.9</ele>
        <time>2021-05-24T05:24:33Z</time>
      </trkpt>
      <trkpt lat="42.8035330" lon="-8.6370940">
        <ele>45.9</ele>
        <time>2021-05-24T05:24:34Z</time>
      </trkpt>
      <trkpt lat="42.8035300" lon="-8.6370970">
        <ele>45.9</ele>
        <time>2021-05-24T05:24:35Z</time>
      </trkpt>
      <trkpt lat="42.8035350" lon="-8.6370990">
        <ele>45.9</ele>
        <time>2021-05-24T05:24:36Z</time>
      </trkpt>
      <trkpt lat="42.8035380" lon="-8.6370950">
        <ele>45.9</ele>
        <time>2021-05-24T05:24:37Z</time>
      </trkpt>
      <trkpt lat="42.8035330" lon="-8.6370880">
        <ele>45.9</ele>
        <time>2021-05-24T05:24:38Z</time>
      </trkpt>
      <trkpt lat="42.8035330" lon="-8.6370940">
        <ele>45.9</ele>
        <time>2021-05-24T05:24:39Z</time>
      </trkpt>
      <trkpt lat="42.8035360" lon="-8.6370970">
        <ele>45.9</ele>
        <time>2021-05-24T05:24:40Z</time>
      </trkpt>
      <trkpt lat="42.8035400" lon="-8.6370940">
        <ele>45.9</ele>
        <time>2021-05-24T05:24:41Z</time>
      </trkpt>
      <trkpt lat="42.8035410" lon="-8.6370890">
        <ele>45.9</ele>
        <time>2021-05-24T05:24:42Z</time>
      </trkpt>
      <trkpt lat="42.8035390" lon="-8.6370820">
        <ele>45.9</ele>
        <time>2021-05-24T05:24:43Z</time>
      </trkpt>
      <trkpt lat="42.8035440" lon="-8.6371060">
        <ele>45.9</ele>
        <time>2021-05-24T05:24:44Z</time>
      </trkpt>
      <trkpt lat="42.8035600" lon="-8.6371170">
        <ele>45.9</ele>
        <time>2021-05-24T05:24:45Z</time>
      </trkpt>
      <trkpt lat="42.8035600" lon="-8.6371130">
        <ele>45.9</ele>
        <time>2021-05-24T05:24:46Z</time>
      </trkpt>
      <trkpt lat="42.8035530" lon="-8.6371170">
        <ele>45.9</ele>
        <time>2021-05-24T05:24:47Z</time>
      </trkpt>
      <trkpt lat="42.8035460" lon="-8.6371170">
        <ele>45.9</ele>
        <time>2021-05-24T05:24:48Z</time>
      </trkpt>
      <trkpt lat="42.8035490" lon="-8.6371180">
        <ele>45.9</ele>
        <time>2021-05-24T05:24:49Z</time>
      </trkpt>
      <trkpt lat="42.8035500" lon="-8.6371190">
        <ele>45.9</ele>
        <time>2021-05-24T05:24:50Z</time>
      </trkpt>
      <trkpt lat="42.8035520" lon="-8.6371170">
        <ele>45.9</ele>
        <time>2021-05-24T05:24:51Z</time>
      </trkpt>
      <trkpt lat="42.8035540" lon="-8.6371160">
        <ele>45.9</ele>
        <time>2021-05-24T05:24:52Z</time>
      </trkpt>
      <trkpt lat="42.8035550" lon="-8.6371110">
        <ele>45.9</ele>
        <time>2021-05-24T05:24:53Z</time>
      </trkpt>
      <trkpt lat="42.8035560" lon="-8.6371100">
        <ele>45.9</ele>
        <time>2021-05-24T05:24:54Z</time>
      </trkpt>
      <trkpt lat="42.8035570" lon="-8.6371070">
        <ele>45.9</ele>
        <time>2021-05-24T05:24:55Z</time>
      </trkpt>
      <trkpt lat="42.8035500" lon="-8.6371040">
        <ele>45.9</ele>
        <time>2021-05-24T05:24:56Z</time>
      </trkpt>
      <trkpt lat="42.8035450" lon="-8.6370930">
        <ele>45.9</ele>
        <time>2021-05-24T05:24:57Z</time>
      </trkpt>
      <trkpt lat="42.8035460" lon="-8.6370950">
        <ele>45.9</ele>
        <time>2021-05-24T05:24:58Z</time>
      </trkpt>
      <trkpt lat="42.8035400" lon="-8.6370940">
        <ele>45.9</ele>
        <time>2021-05-24T05:24:59Z</time>
      </trkpt>
      <trkpt lat="42.8035350" lon="-8.6370920">
        <ele>45.9</ele>
        <time>2021-05-24T05:25:00Z</time>
      </trkpt>
      <trkpt lat="42.8035350" lon="-8.6370910">
        <ele>45.9</ele>
        <time>2021-05-24T05:25:01Z</time>
      </trkpt>
      <trkpt lat="42.8035330" lon="-8.6370820">
        <ele>45.9</ele>
        <time>2021-05-24T05:25:02Z</time>
      </trkpt>
      <trkpt lat="42.8035200" lon="-8.6370670">
        <ele>45.9</ele>
        <time>2021-05-24T05:25:03Z</time>
      </trkpt>
      <trkpt lat="42.8035190" lon="-8.6370540">
        <ele>45.9</ele>
        <time>2021-05-24T05:25:04Z</time>
      </trkpt>
      <trkpt lat="42.8035060" lon="-8.6370370">
        <ele>45.9</ele>
        <time>2021-05-24T05:25:05Z</time>
      </trkpt>
      <trkpt lat="42.8035050" lon="-8.6370260">
        <ele>45.9</ele>
        <time>2021-05-24T05:25:06Z</time>
      </trkpt>
      <trkpt lat="42.8035010" lon="-8.6370160">
        <ele>45.9</ele>
        <time>2021-05-24T05:25:07Z</time>
      </trkpt>
      <trkpt lat="42.8035050" lon="-8.6370090">
        <ele>45.9</ele>
        <time>2021-05-24T05:25:08Z</time>
      </trkpt>
      <trkpt lat="42.8035140" lon="-8.6370040">
        <ele>45.9</ele>
        <time>2021-05-24T05:25:09Z</time>
      </trkpt>
      <trkpt lat="42.8035170" lon="-8.6369970">
        <ele>45.9</ele>
        <time>2021-05-24T05:25:10Z</time>
      </trkpt>
      <trkpt lat="42.8035110" lon="-8.6369930">
        <ele>45.9</ele>
        <time>2021-05-24T05:25:11Z</time>
      </trkpt>
      <trkpt lat="42.8035160" lon="-8.6369800">
        <ele>45.9</ele>
        <time>2021-05-24T05:25:12Z</time>
      </trkpt>
      <trkpt lat="42.8035280" lon="-8.6369630">
        <ele>45.9</ele>
        <time>2021-05-24T05:25:13Z</time>
      </trkpt>
      <trkpt lat="42.8035330" lon="-8.6369560">
        <ele>45.9</ele>
        <time>2021-05-24T05:25:14Z</time>
      </trkpt>
      <trkpt lat="42.8035370" lon="-8.6369480">
        <ele>45.8</ele>
        <time>2021-05-24T05:25:15Z</time>
      </trkpt>
      <trkpt lat="42.8035410" lon="-8.6369400">
        <ele>45.8</ele>
        <time>2021-05-24T05:25:16Z</time>
      </trkpt>
      <trkpt lat="42.8035470" lon="-8.6369310">
        <ele>45.8</ele>
        <time>2021-05-24T05:25:17Z</time>
      </trkpt>
      <trkpt lat="42.8035510" lon="-8.6369200">
        <ele>45.8</ele>
        <time>2021-05-24T05:25:18Z</time>
      </trkpt>
      <trkpt lat="42.8035580" lon="-8.6369120">
        <ele>45.8</ele>
        <time>2021-05-24T05:25:19Z</time>
      </trkpt>
      <trkpt lat="42.8035670" lon="-8.6368970">
        <ele>45.8</ele>
        <time>2021-05-24T05:25:20Z</time>
      </trkpt>
      <trkpt lat="42.8035710" lon="-8.6368930">
        <ele>45.8</ele>
        <time>2021-05-24T05:25:21Z</time>
      </trkpt>
      <trkpt lat="42.8035740" lon="-8.6368880">
        <ele>45.8</ele>
        <time>2021-05-24T05:25:22Z</time>
      </trkpt>
      <trkpt lat="42.8035770" lon="-8.6368830">
        <ele>45.8</ele>
        <time>2021-05-24T05:25:23Z</time>
      </trkpt>
      <trkpt lat="42.8035800" lon="-8.6368780">
        <ele>45.8</ele>
        <time>2021-05-24T05:25:24Z</time>
      </trkpt>
      <trkpt lat="42.8035840" lon="-8.6368740">
        <ele>45.8</ele>
        <time>2021-05-24T05:25:25Z</time>
      </trkpt>
      <trkpt lat="42.8035870" lon="-8.6368690">
        <ele>45.8</ele>
        <time>2021-05-24T05:25:26Z</time>
      </trkpt>
      <trkpt lat="42.8036010" lon="-8.6368470">
        <ele>45.8</ele>
        <time>2021-05-24T05:25:27Z</time>
      </trkpt>
      <trkpt lat="42.8036090" lon="-8.6368410">
        <ele>45.8</ele>
        <time>2021-05-24T05:25:28Z</time>
      </trkpt>
      <trkpt lat="42.8036160" lon="-8.6368340">
        <ele>45.8</ele>
        <time>2021-05-24T05:25:29Z</time>
      </trkpt>
      <trkpt lat="42.8036280" lon="-8.6368240">
        <ele>45.8</ele>
        <time>2021-05-24T05:25:30Z</time>
      </trkpt>
      <trkpt lat="42.8036380" lon="-8.6368210">
        <ele>45.8</ele>
        <time>2021-05-24T05:25:31Z</time>
      </trkpt>
      <trkpt lat="42.8036450" lon="-8.6368130">
        <ele>45.8</ele>
        <time>2021-05-24T05:25:32Z</time>
      </trkpt>
      <trkpt lat="42.8036530" lon="-8.6368030">
        <ele>45.8</ele>
        <time>2021-05-24T05:25:33Z</time>
      </trkpt>
      <trkpt lat="42.8036670" lon="-8.6367830">
        <ele>45.8</ele>
        <time>2021-05-24T05:25:34Z</time>
      </trkpt>
      <trkpt lat="42.8036730" lon="-8.6367740">
        <ele>45.8</ele>
        <time>2021-05-24T05:25:35Z</time>
      </trkpt>
      <trkpt lat="42.8036820" lon="-8.6367690">
        <ele>45.8</ele>
        <time>2021-05-24T05:25:36Z</time>
      </trkpt>
      <trkpt lat="42.8036890" lon="-8.6367520">
        <ele>45.8</ele>
        <time>2021-05-24T05:25:37Z</time>
      </trkpt>
      <trkpt lat="42.8036990" lon="-8.6367430">
        <ele>45.8</ele>
        <time>2021-05-24T05:25:38Z</time>
      </trkpt>
      <trkpt lat="42.8037090" lon="-8.6367320">
        <ele>45.8</ele>
        <time>2021-05-24T05:25:39Z</time>
      </trkpt>
      <trkpt lat="42.8037140" lon="-8.6367220">
        <ele>45.8</ele>
        <time>2021-05-24T05:25:40Z</time>
      </trkpt>
      <trkpt lat="42.8037290" lon="-8.6367000">
        <ele>45.8</ele>
        <time>2021-05-24T05:25:41Z</time>
      </trkpt>
      <trkpt lat="42.8037360" lon="-8.6366930">
        <ele>45.8</ele>
        <time>2021-05-24T05:25:42Z</time>
      </trkpt>
      <trkpt lat="42.8037420" lon="-8.6366860">
        <ele>45.8</ele>
        <time>2021-05-24T05:25:43Z</time>
      </trkpt>
      <trkpt lat="42.8037540" lon="-8.6366620">
        <ele>45.8</ele>
        <time>2021-05-24T05:25:44Z</time>
      </trkpt>
      <trkpt lat="42.8037590" lon="-8.6366500">
        <ele>45.8</ele>
        <time>2021-05-24T05:25:45Z</time>
      </trkpt>
      <trkpt lat="42.8037650" lon="-8.6366380">
        <ele>45.8</ele>
        <time>2021-05-24T05:25:46Z</time>
      </trkpt>
      <trkpt lat="42.8037710" lon="-8.6366190">
        <ele>45.8</ele>
        <time>2021-05-24T05:25:47Z</time>
      </trkpt>
      <trkpt lat="42.8037770" lon="-8.6366040">
        <ele>45.8</ele>
        <time>2021-05-24T05:25:48Z</time>
      </trkpt>
      <trkpt lat="42.8037930" lon="-8.6365800">
        <ele>45.8</ele>
        <time>2021-05-24T05:25:49Z</time>
      </trkpt>
      <trkpt lat="42.8037970" lon="-8.6365730">
        <ele>45.8</ele>
        <time>2021-05-24T05:25:50Z</time>
      </trkpt>
      <trkpt lat="42.8038000" lon="-8.6365650">
        <ele>45.8</ele>
        <time>2021-05-24T05:25:51Z</time>
      </trkpt>
      <trkpt lat="42.8038100" lon="-8.6365550">
        <ele>45.8</ele>
        <time>2021-05-24T05:25:52Z</time>
      </trkpt>
      <trkpt lat="42.8038150" lon="-8.6365510">
        <ele>45.8</ele>
        <time>2021-05-24T05:25:53Z</time>
      </trkpt>
      <trkpt lat="42.8038230" lon="-8.6365420">
        <ele>45.8</ele>
        <time>2021-05-24T05:25:54Z</time>
      </trkpt>
      <trkpt lat="42.8038330" lon="-8.6365230">
        <ele>45.8</ele>
        <time>2021-05-24T05:25:55Z</time>
      </trkpt>
      <trkpt lat="42.8038410" lon="-8.6365120">
        <ele>45.8</ele>
        <time>2021-05-24T05:25:56Z</time>
      </trkpt>
      <trkpt lat="42.8038610" lon="-8.6365040">
        <ele>45.8</ele>
        <time>2021-05-24T05:25:57Z</time>
      </trkpt>
      <trkpt lat="42.8038700" lon="-8.6364990">
        <ele>45.8</ele>
        <time>2021-05-24T05:25:58Z</time>
      </trkpt>
      <trkpt lat="42.8038790" lon="-8.6364940">
        <ele>45.8</ele>
        <time>2021-05-24T05:25:59Z</time>
      </trkpt>
      <trkpt lat="42.8038900" lon="-8.6364860">
        <ele>45.7</ele>
        <time>2021-05-24T05:26:00Z</time>
      </trkpt>
      <trkpt lat="42.8039010" lon="-8.6364810">
        <ele>45.7</ele>
        <time>2021-05-24T05:26:01Z</time>
      </trkpt>
      <trkpt lat="42.8039070" lon="-8.6364750">
        <ele>45.7</ele>
        <time>2021-05-24T05:26:02Z</time>
      </trkpt>
      <trkpt lat="42.8039100" lon="-8.6364590">
        <ele>45.7</ele>
        <time>2021-05-24T05:26:03Z</time>
      </trkpt>
      <trkpt lat="42.8039170" lon="-8.6364430">
        <ele>45.7</ele>
        <time>2021-05-24T05:26:04Z</time>
      </trkpt>
      <trkpt lat="42.8039230" lon="-8.6364340">
        <ele>45.7</ele>
        <time>2021-05-24T05:26:05Z</time>
      </trkpt>
      <trkpt lat="42.8039300" lon="-8.6364100">
        <ele>45.7</ele>
        <time>2021-05-24T05:26:06Z</time>
      </trkpt>
      <trkpt lat="42.8039390" lon="-8.6363900">
        <ele>45.7</ele>
        <time>2021-05-24T05:26:07Z</time>
      </trkpt>
      <trkpt lat="42.8039520" lon="-8.6363740">
        <ele>45.7</ele>
        <time>2021-05-24T05:26:08Z</time>
      </trkpt>
      <trkpt lat="42.8039590" lon="-8.6363670">
        <ele>45.7</ele>
        <time>2021-05-24T05:26:09Z</time>
      </trkpt>
      <trkpt lat="42.8039650" lon="-8.6363600">
        <ele>45.7</ele>
        <time>2021-05-24T05:26:10Z</time>
      </trkpt>
      <trkpt lat="42.8039720" lon="-8.6363530">
        <ele>45.7</ele>
        <time>2021-05-24T05:26:11Z</time>
      </trkpt>
      <trkpt lat="42.8039840" lon="-8.6363400">
        <ele>45.7</ele>
        <time>2021-05-24T05:26:12Z</time>
      </trkpt>
      <trkpt lat="42.8039900" lon="-8.6363350">
        <ele>45.7</ele>
        <time>2021-05-24T05:26:13Z</time>
      </trkpt>
      <trkpt lat="42.8040000" lon="-8.6363270">
        <ele>45.7</ele>
        <time>2021-05-24T05:26:14Z</time>
      </trkpt>
      <trkpt lat="42.8040060" lon="-8.6363060">
        <ele>45.7</ele>
        <time>2021-05-24T05:26:15Z</time>
      </trkpt>
      <trkpt lat="42.8040100" lon="-8.6362920">
        <ele>45.7</ele>
        <time>2021-05-24T05:26:16Z</time>
      </trkpt>
      <trkpt lat="42.8040170" lon="-8.6362760">
        <ele>45.7</ele>
        <time>2021-05-24T05:26:17Z</time>
      </trkpt>
      <trkpt lat="42.8040280" lon="-8.6362640">
        <ele>45.7</ele>
        <time>2021-05-24T05:26:18Z</time>
      </trkpt>
      <trkpt lat="42.8040430" lon="-8.6362480">
        <ele>45.7</ele>
        <time>2021-05-24T05:26:19Z</time>
      </trkpt>
      <trkpt lat="42.8040500" lon="-8.6362410">
        <ele>45.7</ele>
        <time>2021-05-24T05:26:20Z</time>
      </trkpt>
      <trkpt lat="42.8040570" lon="-8.6362340">
        <ele>45.7</ele>
        <time>2021-05-24T05:26:21Z</time>
      </trkpt>
      <trkpt lat="42.8040660" lon="-8.6362320">
        <ele>45.7</ele>
        <time>2021-05-24T05:26:22Z</time>
      </trkpt>
      <trkpt lat="42.8040800" lon="-8.6362250">
        <ele>45.7</ele>
        <time>2021-05-24T05:26:23Z</time>
      </trkpt>
      <trkpt lat="42.8040890" lon="-8.6362290">
        <ele>45.7</ele>
        <time>2021-05-24T05:26:24Z</time>
      </trkpt>
      <trkpt lat="42.8041080" lon="-8.6362160">
        <ele>45.7</ele>
        <time>2021-05-24T05:26:25Z</time>
      </trkpt>
      <trkpt lat="42.8041150" lon="-8.6362100">
        <ele>45.7</ele>
        <time>2021-05-24T05:26:26Z</time>
      </trkpt>
      <trkpt lat="42.8041210" lon="-8.6362040">
        <ele>45.7</ele>
        <time>2021-05-24T05:26:27Z</time>
      </trkpt>
      <trkpt lat="42.8041400" lon="-8.6361920">
        <ele>45.7</ele>
        <time>2021-05-24T05:26:28Z</time>
      </trkpt>
      <trkpt lat="42.8041480" lon="-8.6361850">
        <ele>45.7</ele>
        <time>2021-05-24T05:26:29Z</time>
      </trkpt>
      <trkpt lat="42.8041550" lon="-8.6361770">
        <ele>45.8</ele>
        <time>2021-05-24T05:26:30Z</time>
      </trkpt>
      <trkpt lat="42.8041670" lon="-8.6361570">
        <ele>45.8</ele>
        <time>2021-05-24T05:26:31Z</time>
      </trkpt>
      <trkpt lat="42.8041750" lon="-8.6361490">
        <ele>45.8</ele>
        <time>2021-05-24T05:26:32Z</time>
      </trkpt>
      <trkpt lat="42.8041840" lon="-8.6361400">
        <ele>45.8</ele>
        <time>2021-05-24T05:26:33Z</time>
      </trkpt>
      <trkpt lat="42.8041930" lon="-8.6361290">
        <ele>45.8</ele>
        <time>2021-05-24T05:26:34Z</time>
      </trkpt>
      <trkpt lat="42.8042000" lon="-8.6361250">
        <ele>45.8</ele>
        <time>2021-05-24T05:26:35Z</time>
      </trkpt>
      <trkpt lat="42.8042100" lon="-8.6361200">
        <ele>45.8</ele>
        <time>2021-05-24T05:26:36Z</time>
      </trkpt>
      <trkpt lat="42.8042180" lon="-8.6361110">
        <ele>45.8</ele>
        <time>2021-05-24T05:26:37Z</time>
      </trkpt>
      <trkpt lat="42.8042260" lon="-8.6361020">
        <ele>45.8</ele>
        <time>2021-05-24T05:26:38Z</time>
      </trkpt>
      <trkpt lat="42.8042350" lon="-8.6360960">
        <ele>45.8</ele>
        <time>2021-05-24T05:26:39Z</time>
      </trkpt>
      <trkpt lat="42.8042450" lon="-8.6360970">
        <ele>45.8</ele>
        <time>2021-05-24T05:26:40Z</time>
      </trkpt>
      <trkpt lat="42.8042590" lon="-8.6360880">
        <ele>45.8</ele>
        <time>2021-05-24T05:26:41Z</time>
      </trkpt>
      <trkpt lat="42.8042680" lon="-8.6360840">
        <ele>45.8</ele>
        <time>2021-05-24T05:26:42Z</time>
      </trkpt>
      <trkpt lat="42.8042810" lon="-8.6360720">
        <ele>45.9</ele>
        <time>2021-05-24T05:26:43Z</time>
      </trkpt>
      <trkpt lat="42.8042900" lon="-8.6360680">
        <ele>45.9</ele>
        <time>2021-05-24T05:26:44Z</time>
      </trkpt>
      <trkpt lat="42.8042960" lon="-8.6360620">
        <ele>45.9</ele>
        <time>2021-05-24T05:26:45Z</time>
      </trkpt>
      <trkpt lat="42.8043120" lon="-8.6360550">
        <ele>45.9</ele>
        <time>2021-05-24T05:26:46Z</time>
      </trkpt>
      <trkpt lat="42.8043180" lon="-8.6360480">
        <ele>45.9</ele>
        <time>2021-05-24T05:26:47Z</time>
      </trkpt>
      <trkpt lat="42.8043240" lon="-8.6360410">
        <ele>45.9</ele>
        <time>2021-05-24T05:26:48Z</time>
      </trkpt>
      <trkpt lat="42.8043300" lon="-8.6360340">
        <ele>45.9</ele>
        <time>2021-05-24T05:26:49Z</time>
      </trkpt>
      <trkpt lat="42.8043420" lon="-8.6360180">
        <ele>45.9</ele>
        <time>2021-05-24T05:26:50Z</time>
      </trkpt>
      <trkpt lat="42.8043500" lon="-8.6360100">
        <ele>45.9</ele>
        <time>2021-05-24T05:26:51Z</time>
      </trkpt>
      <trkpt lat="42.8043620" lon="-8.6360050">
        <ele>46.0</ele>
        <time>2021-05-24T05:26:52Z</time>
      </trkpt>
      <trkpt lat="42.8043720" lon="-8.6360000">
        <ele>46.0</ele>
        <time>2021-05-24T05:26:53Z</time>
      </trkpt>
      <trkpt lat="42.8043820" lon="-8.6359920">
        <ele>46.0</ele>
        <time>2021-05-24T05:26:54Z</time>
      </trkpt>
      <trkpt lat="42.8043950" lon="-8.6359820">
        <ele>46.0</ele>
        <time>2021-05-24T05:26:55Z</time>
      </trkpt>
      <trkpt lat="42.8044110" lon="-8.6359780">
        <ele>46.0</ele>
        <time>2021-05-24T05:26:56Z</time>
      </trkpt>
      <trkpt lat="42.8044200" lon="-8.6359690">
        <ele>46.0</ele>
        <time>2021-05-24T05:26:57Z</time>
      </trkpt>
      <trkpt lat="42.8044240" lon="-8.6359580">
        <ele>46.0</ele>
        <time>2021-05-24T05:26:58Z</time>
      </trkpt>
      <trkpt lat="42.8044300" lon="-8.6359490">
        <ele>46.0</ele>
        <time>2021-05-24T05:26:59Z</time>
      </trkpt>
      <trkpt lat="42.8044390" lon="-8.6359310">
        <ele>46.1</ele>
        <time>2021-05-24T05:27:00Z</time>
      </trkpt>
      <trkpt lat="42.8044500" lon="-8.6359240">
        <ele>46.1</ele>
        <time>2021-05-24T05:27:01Z</time>
      </trkpt>
      <trkpt lat="42.8044590" lon="-8.6359150">
        <ele>46.1</ele>
        <time>2021-05-24T05:27:02Z</time>
      </trkpt>
      <trkpt lat="42.8044690" lon="-8.6359070">
        <ele>46.1</ele>
        <time>2021-05-24T05:27:03Z</time>
      </trkpt>
      <trkpt lat="42.8044780" lon="-8.6359020">
        <ele>46.1</ele>
        <time>2021-05-24T05:27:04Z</time>
      </trkpt>
      <trkpt lat="42.8044800" lon="-8.6358880">
        <ele>46.1</ele>
        <time>2021-05-24T05:27:05Z</time>
      </trkpt>
      <trkpt lat="42.8044860" lon="-8.6358800">
        <ele>46.1</ele>
        <time>2021-05-24T05:27:06Z</time>
      </trkpt>
      <trkpt lat="42.8044980" lon="-8.6358710">
        <ele>46.1</ele>
        <time>2021-05-24T05:27:07Z</time>
      </trkpt>
      <trkpt lat="42.8045060" lon="-8.6358570">
        <ele>46.2</ele>
        <time>2021-05-24T05:27:08Z</time>
      </trkpt>
      <trkpt lat="42.8045160" lon="-8.6358510">
        <ele>46.2</ele>
        <time>2021-05-24T05:27:09Z</time>
      </trkpt>
      <trkpt lat="42.8045240" lon="-8.6358360">
        <ele>46.2</ele>
        <time>2021-05-24T05:27:10Z</time>
      </trkpt>
      <trkpt lat="42.8045360" lon="-8.6358130">
        <ele>46.2</ele>
        <time>2021-05-24T05:27:11Z</time>
      </trkpt>
      <trkpt lat="42.8045450" lon="-8.6358050">
        <ele>46.3</ele>
        <time>2021-05-24T05:27:12Z</time>
      </trkpt>
      <trkpt lat="42.8045530" lon="-8.6357960">
        <ele>46.3</ele>
        <time>2021-05-24T05:27:13Z</time>
      </trkpt>
      <trkpt lat="42.8045660" lon="-8.6357750">
        <ele>46.3</ele>
        <time>2021-05-24T05:27:14Z</time>
      </trkpt>
      <trkpt lat="42.8045730" lon="-8.6357660">
        <ele>46.3</ele>
        <time>2021-05-24T05:27:15Z</time>
      </trkpt>
      <trkpt lat="42.8045800" lon="-8.6357580">
        <ele>46.3</ele>
        <time>2021-05-24T05:27:16Z</time>
      </trkpt>
      <trkpt lat="42.8045940" lon="-8.6357490">
        <ele>46.3</ele>
        <time>2021-05-24T05:27:17Z</time>
      </trkpt>
      <trkpt lat="42.8045970" lon="-8.6357400">
        <ele>46.4</ele>
        <time>2021-05-24T05:27:18Z</time>
      </trkpt>
      <trkpt lat="42.8046080" lon="-8.6357330">
        <ele>46.4</ele>
        <time>2021-05-24T05:27:19Z</time>
      </trkpt>
      <trkpt lat="42.8046200" lon="-8.6357230">
        <ele>46.4</ele>
        <time>2021-05-24T05:27:20Z</time>
      </trkpt>
      <trkpt lat="42.8046320" lon="-8.6357140">
        <ele>46.4</ele>
        <time>2021-05-24T05:27:21Z</time>
      </trkpt>
      <trkpt lat="42.8046390" lon="-8.6357050">
        <ele>46.4</ele>
        <time>2021-05-24T05:27:22Z</time>
      </trkpt>
      <trkpt lat="42.8046460" lon="-8.6357050">
        <ele>46.4</ele>
        <time>2021-05-24T05:27:23Z</time>
      </trkpt>
      <trkpt lat="42.8046610" lon="-8.6356950">
        <ele>46.5</ele>
        <time>2021-05-24T05:27:24Z</time>
      </trkpt>
      <trkpt lat="42.8046740" lon="-8.6356890">
        <ele>46.5</ele>
        <time>2021-05-24T05:27:25Z</time>
      </trkpt>
      <trkpt lat="42.8046860" lon="-8.6356760">
        <ele>46.5</ele>
        <time>2021-05-24T05:27:26Z</time>
      </trkpt>
      <trkpt lat="42.8046940" lon="-8.6356610">
        <ele>46.5</ele>
        <time>2021-05-24T05:27:27Z</time>
      </trkpt>
      <trkpt lat="42.8047020" lon="-8.6356460">
        <ele>46.6</ele>
        <time>2021-05-24T05:27:28Z</time>
      </trkpt>
      <trkpt lat="42.8047160" lon="-8.6356240">
        <ele>46.6</ele>
        <time>2021-05-24T05:27:29Z</time>
      </trkpt>
      <trkpt lat="42.8047260" lon="-8.6356160">
        <ele>46.6</ele>
        <time>2021-05-24T05:27:30Z</time>
      </trkpt>
      <trkpt lat="42.8047350" lon="-8.6356160">
        <ele>46.6</ele>
        <time>2021-05-24T05:27:31Z</time>
      </trkpt>
      <trkpt lat="42.8047480" lon="-8.6356030">
        <ele>46.7</ele>
        <time>2021-05-24T05:27:32Z</time>
      </trkpt>
      <trkpt lat="42.8047570" lon="-8.6355950">
        <ele>46.7</ele>
        <time>2021-05-24T05:27:33Z</time>
      </trkpt>
      <trkpt lat="42.8047650" lon="-8.6355870">
        <ele>46.7</ele>
        <time>2021-05-24T05:27:34Z</time>
      </trkpt>
      <trkpt lat="42.8047690" lon="-8.6355760">
        <ele>46.7</ele>
        <time>2021-05-24T05:27:35Z</time>
      </trkpt>
      <trkpt lat="42.8047830" lon="-8.6355730">
        <ele>46.7</ele>
        <time>2021-05-24T05:27:36Z</time>
      </trkpt>
      <trkpt lat="42.8047920" lon="-8.6355610">
        <ele>46.8</ele>
        <time>2021-05-24T05:27:37Z</time>
      </trkpt>
      <trkpt lat="42.8048050" lon="-8.6355510">
        <ele>46.8</ele>
        <time>2021-05-24T05:27:38Z</time>
      </trkpt>
      <trkpt lat="42.8048130" lon="-8.6355480">
        <ele>46.8</ele>
        <time>2021-05-24T05:27:39Z</time>
      </trkpt>
      <trkpt lat="42.8048320" lon="-8.6355430">
        <ele>46.8</ele>
        <time>2021-05-24T05:27:40Z</time>
      </trkpt>
      <trkpt lat="42.8048480" lon="-8.6355240">
        <ele>46.9</ele>
        <time>2021-05-24T05:27:41Z</time>
      </trkpt>
      <trkpt lat="42.8048550" lon="-8.6355190">
        <ele>46.9</ele>
        <time>2021-05-24T05:27:42Z</time>
      </trkpt>
      <trkpt lat="42.8048620" lon="-8.6355130">
        <ele>46.9</ele>
        <time>2021-05-24T05:27:43Z</time>
      </trkpt>
      <trkpt lat="42.8048690" lon="-8.6355000">
        <ele>46.9</ele>
        <time>2021-05-24T05:27:44Z</time>
      </trkpt>
      <trkpt lat="42.8048740" lon="-8.6354950">
        <ele>47.0</ele>
        <time>2021-05-24T05:27:45Z</time>
      </trkpt>
      <trkpt lat="42.8048810" lon="-8.6354820">
        <ele>47.0</ele>
        <time>2021-05-24T05:27:46Z</time>
      </trkpt>
      <trkpt lat="42.8048960" lon="-8.6354630">
        <ele>47.0</ele>
        <time>2021-05-24T05:27:47Z</time>
      </trkpt>
      <trkpt lat="42.8049000" lon="-8.6354560">
        <ele>47.0</ele>
        <time>2021-05-24T05:27:48Z</time>
      </trkpt>
      <trkpt lat="42.8049050" lon="-8.6354480">
        <ele>47.1</ele>
        <time>2021-05-24T05:27:49Z</time>
      </trkpt>
      <trkpt lat="42.8049090" lon="-8.6354410">
        <ele>47.1</ele>
        <time>2021-05-24T05:27:50Z</time>
      </trkpt>
      <trkpt lat="42.8049240" lon="-8.6354210">
        <ele>47.1</ele>
        <time>2021-05-24T05:27:51Z</time>
      </trkpt>
      <trkpt lat="42.8049300" lon="-8.6354070">
        <ele>47.1</ele>
        <time>2021-05-24T05:27:52Z</time>
      </trkpt>
      <trkpt lat="42.8049350" lon="-8.6353900">
        <ele>47.2</ele>
        <time>2021-05-24T05:27:53Z</time>
      </trkpt>
      <trkpt lat="42.8049430" lon="-8.6353840">
        <ele>47.2</ele>
        <time>2021-05-24T05:27:54Z</time>
      </trkpt>
      <trkpt lat="42.8049500" lon="-8.6353690">
        <ele>47.2</ele>
        <time>2021-05-24T05:27:55Z</time>
      </trkpt>
      <trkpt lat="42.8049650" lon="-8.6353480">
        <ele>47.3</ele>
        <time>2021-05-24T05:27:56Z</time>
      </trkpt>
      <trkpt lat="42.8049720" lon="-8.6353400">
        <ele>47.3</ele>
        <time>2021-05-24T05:27:57Z</time>
      </trkpt>
      <trkpt lat="42.8049790" lon="-8.6353330">
        <ele>47.3</ele>
        <time>2021-05-24T05:27:58Z</time>
      </trkpt>
      <trkpt lat="42.8049910" lon="-8.6353370">
        <ele>47.3</ele>
        <time>2021-05-24T05:27:59Z</time>
      </trkpt>
      <trkpt lat="42.8050040" lon="-8.6353260">
        <ele>47.3</ele>
        <time>2021-05-24T05:28:00Z</time>
      </trkpt>
      <trkpt lat="42.8050130" lon="-8.6353170">
        <ele>47.4</ele>
        <time>2021-05-24T05:28:01Z</time>
      </trkpt>
      <trkpt lat="42.8050260" lon="-8.6353140">
        <ele>47.4</ele>
        <time>2021-05-24T05:28:02Z</time>
      </trkpt>
      <trkpt lat="42.8050380" lon="-8.6353100">
        <ele>47.4</ele>
        <time>2021-05-24T05:28:03Z</time>
      </trkpt>
      <trkpt lat="42.8050480" lon="-8.6353040">
        <ele>47.4</ele>
        <time>2021-05-24T05:28:04Z</time>
      </trkpt>
      <trkpt lat="42.8050580" lon="-8.6352980">
        <ele>47.5</ele>
        <time>2021-05-24T05:28:05Z</time>
      </trkpt>
      <trkpt lat="42.8050650" lon="-8.6352920">
        <ele>47.5</ele>
        <time>2021-05-24T05:28:06Z</time>
      </trkpt>
      <trkpt lat="42.8050750" lon="-8.6352810">
        <ele>47.5</ele>
        <time>2021-05-24T05:28:07Z</time>
      </trkpt>
      <trkpt lat="42.8050880" lon="-8.6352720">
        <ele>47.5</ele>
        <time>2021-05-24T05:28:08Z</time>
      </trkpt>
      <trkpt lat="42.8050970" lon="-8.6352620">
        <ele>47.6</ele>
        <time>2021-05-24T05:28:09Z</time>
      </trkpt>
      <trkpt lat="42.8051030" lon="-8.6352540">
        <ele>47.6</ele>
        <time>2021-05-24T05:28:10Z</time>
      </trkpt>
      <trkpt lat="42.8051190" lon="-8.6352520">
        <ele>47.6</ele>
        <time>2021-05-24T05:28:11Z</time>
      </trkpt>
      <trkpt lat="42.8051300" lon="-8.6352480">
        <ele>47.6</ele>
        <time>2021-05-24T05:28:12Z</time>
      </trkpt>
      <trkpt lat="42.8051510" lon="-8.6352420">
        <ele>47.6</ele>
        <time>2021-05-24T05:28:13Z</time>
      </trkpt>
      <trkpt lat="42.8051590" lon="-8.6352380">
        <ele>47.7</ele>
        <time>2021-05-24T05:28:14Z</time>
      </trkpt>
      <trkpt lat="42.8051660" lon="-8.6352350">
        <ele>47.7</ele>
        <time>2021-05-24T05:28:15Z</time>
      </trkpt>
      <trkpt lat="42.8051710" lon="-8.6352270">
        <ele>47.7</ele>
        <time>2021-05-24T05:28:16Z</time>
      </trkpt>
      <trkpt lat="42.8051810" lon="-8.6352160">
        <ele>47.7</ele>
        <time>2021-05-24T05:28:17Z</time>
      </trkpt>
      <trkpt lat="42.8051930" lon="-8.6352080">
        <ele>47.7</ele>
        <time>2021-05-24T05:28:18Z</time>
      </trkpt>
      <trkpt lat="42.8052050" lon="-8.6351970">
        <ele>47.7</ele>
        <time>2021-05-24T05:28:19Z</time>
      </trkpt>
      <trkpt lat="42.8052180" lon="-8.6351840">
        <ele>47.7</ele>
        <time>2021-05-24T05:28:20Z</time>
      </trkpt>
      <trkpt lat="42.8052220" lon="-8.6351830">
        <ele>47.7</ele>
        <time>2021-05-24T05:28:21Z</time>
      </trkpt>
      <trkpt lat="42.8052390" lon="-8.6351750">
        <ele>47.8</ele>
        <time>2021-05-24T05:28:22Z</time>
      </trkpt>
      <trkpt lat="42.8052510" lon="-8.6351690">
        <ele>47.8</ele>
        <time>2021-05-24T05:28:23Z</time>
      </trkpt>
      <trkpt lat="42.8052650" lon="-8.6351620">
        <ele>47.8</ele>
        <time>2021-05-24T05:28:24Z</time>
      </trkpt>
      <trkpt lat="42.8052760" lon="-8.6351530">
        <ele>47.8</ele>
        <time>2021-05-24T05:28:25Z</time>
      </trkpt>
      <trkpt lat="42.8052920" lon="-8.6351350">
        <ele>47.9</ele>
        <time>2021-05-24T05:28:26Z</time>
      </trkpt>
      <trkpt lat="42.8052990" lon="-8.6351250">
        <ele>47.9</ele>
        <time>2021-05-24T05:28:27Z</time>
      </trkpt>
      <trkpt lat="42.8053050" lon="-8.6351140">
        <ele>47.9</ele>
        <time>2021-05-24T05:28:28Z</time>
      </trkpt>
      <trkpt lat="42.8053200" lon="-8.6350860">
        <ele>47.9</ele>
        <time>2021-05-24T05:28:29Z</time>
      </trkpt>
      <trkpt lat="42.8053230" lon="-8.6350790">
        <ele>47.9</ele>
        <time>2021-05-24T05:28:30Z</time>
      </trkpt>
      <trkpt lat="42.8053260" lon="-8.6350730">
        <ele>47.9</ele>
        <time>2021-05-24T05:28:31Z</time>
      </trkpt>
      <trkpt lat="42.8053340" lon="-8.6350410">
        <ele>48.0</ele>
        <time>2021-05-24T05:28:32Z</time>
      </trkpt>
      <trkpt lat="42.8053410" lon="-8.6350350">
        <ele>48.0</ele>
        <time>2021-05-24T05:28:33Z</time>
      </trkpt>
      <trkpt lat="42.8053470" lon="-8.6350300">
        <ele>48.0</ele>
        <time>2021-05-24T05:28:34Z</time>
      </trkpt>
      <trkpt lat="42.8053570" lon="-8.6350160">
        <ele>48.0</ele>
        <time>2021-05-24T05:28:35Z</time>
      </trkpt>
      <trkpt lat="42.8053670" lon="-8.6350000">
        <ele>48.0</ele>
        <time>2021-05-24T05:28:36Z</time>
      </trkpt>
      <trkpt lat="42.8053780" lon="-8.6349740">
        <ele>48.1</ele>
        <time>2021-05-24T05:28:37Z</time>
      </trkpt>
      <trkpt lat="42.8053860" lon="-8.6349650">
        <ele>48.1</ele>
        <time>2021-05-24T05:28:38Z</time>
      </trkpt>
      <trkpt lat="42.8053940" lon="-8.6349560">
        <ele>48.1</ele>
        <time>2021-05-24T05:28:39Z</time>
      </trkpt>
      <trkpt lat="42.8054060" lon="-8.6349500">
        <ele>48.2</ele>
        <time>2021-05-24T05:28:40Z</time>
      </trkpt>
      <trkpt lat="42.8054170" lon="-8.6349490">
        <ele>48.2</ele>
        <time>2021-05-24T05:28:41Z</time>
      </trkpt>
      <trkpt lat="42.8054250" lon="-8.6349400">
        <ele>48.2</ele>
        <time>2021-05-24T05:28:42Z</time>
      </trkpt>
      <trkpt lat="42.8054240" lon="-8.6348960">
        <ele>48.3</ele>
        <time>2021-05-24T05:28:43Z</time>
      </trkpt>
      <trkpt lat="42.8054240" lon="-8.6348800">
        <ele>48.3</ele>
        <time>2021-05-24T05:28:44Z</time>
      </trkpt>
      <trkpt lat="42.8054350" lon="-8.6348680">
        <ele>48.4</ele>
        <time>2021-05-24T05:28:45Z</time>
      </trkpt>
      <trkpt lat="42.8054490" lon="-8.6348640">
        <ele>48.4</ele>
        <time>2021-05-24T05:28:46Z</time>
      </trkpt>
      <trkpt lat="42.8054710" lon="-8.6348610">
        <ele>48.5</ele>
        <time>2021-05-24T05:28:47Z</time>
      </trkpt>
      <trkpt lat="42.8054780" lon="-8.6348660">
        <ele>48.5</ele>
        <time>2021-05-24T05:28:48Z</time>
      </trkpt>
      <trkpt lat="42.8054860" lon="-8.6348710">
        <ele>48.5</ele>
        <time>2021-05-24T05:28:49Z</time>
      </trkpt>
      <trkpt lat="42.8054980" lon="-8.6348660">
        <ele>48.5</ele>
        <time>2021-05-24T05:28:50Z</time>
      </trkpt>
      <trkpt lat="42.8055100" lon="-8.6348620">
        <ele>48.6</ele>
        <time>2021-05-24T05:28:51Z</time>
      </trkpt>
      <trkpt lat="42.8055200" lon="-8.6348550">
        <ele>48.6</ele>
        <time>2021-05-24T05:28:52Z</time>
      </trkpt>
      <trkpt lat="42.8055340" lon="-8.6348550">
        <ele>48.7</ele>
        <time>2021-05-24T05:28:53Z</time>
      </trkpt>
      <trkpt lat="42.8055460" lon="-8.6348470">
        <ele>48.7</ele>
        <time>2021-05-24T05:28:54Z</time>
      </trkpt>
      <trkpt lat="42.8055540" lon="-8.6348420">
        <ele>48.7</ele>
        <time>2021-05-24T05:28:55Z</time>
      </trkpt>
      <trkpt lat="42.8055630" lon="-8.6348350">
        <ele>48.7</ele>
        <time>2021-05-24T05:28:56Z</time>
      </trkpt>
      <trkpt lat="42.8055760" lon="-8.6348290">
        <ele>48.8</ele>
        <time>2021-05-24T05:28:57Z</time>
      </trkpt>
      <trkpt lat="42.8055850" lon="-8.6348280">
        <ele>48.8</ele>
        <time>2021-05-24T05:28:58Z</time>
      </trkpt>
      <trkpt lat="42.8055970" lon="-8.6348210">
        <ele>48.9</ele>
        <time>2021-05-24T05:28:59Z</time>
      </trkpt>
      <trkpt lat="42.8056040" lon="-8.6348170">
        <ele>48.9</ele>
        <time>2021-05-24T05:29:00Z</time>
      </trkpt>
      <trkpt lat="42.8056180" lon="-8.6348140">
        <ele>48.9</ele>
        <time>2021-05-24T05:29:01Z</time>
      </trkpt>
      <trkpt lat="42.8056330" lon="-8.6348000">
        <ele>49.0</ele>
        <time>2021-05-24T05:29:02Z</time>
      </trkpt>
      <trkpt lat="42.8056420" lon="-8.6347960">
        <ele>49.0</ele>
        <time>2021-05-24T05:29:03Z</time>
      </trkpt>
      <trkpt lat="42.8056520" lon="-8.6347930">
        <ele>49.0</ele>
        <time>2021-05-24T05:29:04Z</time>
      </trkpt>
      <trkpt lat="42.8056630" lon="-8.6347840">
        <ele>49.1</ele>
        <time>2021-05-24T05:29:05Z</time>
      </trkpt>
      <trkpt lat="42.8056710" lon="-8.6347810">
        <ele>49.1</ele>
        <time>2021-05-24T05:29:06Z</time>
      </trkpt>
      <trkpt lat="42.8056740" lon="-8.6347740">
        <ele>49.1</ele>
        <time>2021-05-24T05:29:07Z</time>
      </trkpt>
      <trkpt lat="42.8056790" lon="-8.6347650">
        <ele>49.2</ele>
        <time>2021-05-24T05:29:08Z</time>
      </trkpt>
      <trkpt lat="42.8056860" lon="-8.6347620">
        <ele>49.2</ele>
        <time>2021-05-24T05:29:09Z</time>
      </trkpt>
      <trkpt lat="42.8056950" lon="-8.6347580">
        <ele>49.2</ele>
        <time>2021-05-24T05:29:10Z</time>
      </trkpt>
      <trkpt lat="42.8057030" lon="-8.6347400">
        <ele>49.3</ele>
        <time>2021-05-24T05:29:11Z</time>
      </trkpt>
      <trkpt lat="42.8057130" lon="-8.6347280">
        <ele>49.3</ele>
        <time>2021-05-24T05:29:12Z</time>
      </trkpt>
      <trkpt lat="42.8057130" lon="-8.6347230">
        <ele>49.3</ele>
        <time>2021-05-24T05:29:13Z</time>
      </trkpt>
      <trkpt lat="42.8057150" lon="-8.6347190">
        <ele>49.3</ele>
        <time>2021-05-24T05:29:14Z</time>
      </trkpt>
      <trkpt lat="42.8057170" lon="-8.6347280">
        <ele>49.3</ele>
        <time>2021-05-24T05:29:15Z</time>
      </trkpt>
      <trkpt lat="42.8057220" lon="-8.6347310">
        <ele>49.4</ele>
        <time>2021-05-24T05:29:16Z</time>
      </trkpt>
      <trkpt lat="42.8057300" lon="-8.6347300">
        <ele>49.4</ele>
        <time>2021-05-24T05:29:17Z</time>
      </trkpt>
      <trkpt lat="42.8057420" lon="-8.6347300">
        <ele>49.4</ele>
        <time>2021-05-24T05:29:18Z</time>
      </trkpt>
      <trkpt lat="42.8057490" lon="-8.6347270">
        <ele>49.4</ele>
        <time>2021-05-24T05:29:19Z</time>
      </trkpt>
      <trkpt lat="42.8057610" lon="-8.6347140">
        <ele>49.5</ele>
        <time>2021-05-24T05:29:20Z</time>
      </trkpt>
      <trkpt lat="42.8057660" lon="-8.6347080">
        <ele>49.5</ele>
        <time>2021-05-24T05:29:21Z</time>
      </trkpt>
      <trkpt lat="42.8057750" lon="-8.6346960">
        <ele>49.5</ele>
        <time>2021-05-24T05:29:22Z</time>
      </trkpt>
      <trkpt lat="42.8057810" lon="-8.6346880">
        <ele>49.6</ele>
        <time>2021-05-24T05:29:23Z</time>
      </trkpt>
      <trkpt lat="42.8057890" lon="-8.6346620">
        <ele>49.6</ele>
        <time>2021-05-24T05:29:24Z</time>
      </trkpt>
      <trkpt lat="42.8057980" lon="-8.6346500">
        <ele>49.7</ele>
        <time>2021-05-24T05:29:25Z</time>
      </trkpt>
      <trkpt lat="42.8058200" lon="-8.6346280">
        <ele>49.8</ele>
        <time>2021-05-24T05:29:26Z</time>
      </trkpt>
      <trkpt lat="42.8058270" lon="-8.6346190">
        <ele>49.8</ele>
        <time>2021-05-24T05:29:27Z</time>
      </trkpt>
      <trkpt lat="42.8058420" lon="-8.6346060">
        <ele>49.8</ele>
        <time>2021-05-24T05:29:28Z</time>
      </trkpt>
      <trkpt lat="42.8058510" lon="-8.6345990">
        <ele>49.9</ele>
        <time>2021-05-24T05:29:29Z</time>
      </trkpt>
      <trkpt lat="42.8058590" lon="-8.6345920">
        <ele>49.9</ele>
        <time>2021-05-24T05:29:30Z</time>
      </trkpt>
      <trkpt lat="42.8058770" lon="-8.6345780">
        <ele>50.0</ele>
        <time>2021-05-24T05:29:31Z</time>
      </trkpt>
      <trkpt lat="42.8058840" lon="-8.6345710">
        <ele>50.0</ele>
        <time>2021-05-24T05:29:32Z</time>
      </trkpt>
      <trkpt lat="42.8058920" lon="-8.6345630">
        <ele>50.0</ele>
        <time>2021-05-24T05:29:33Z</time>
      </trkpt>
      <trkpt lat="42.8059060" lon="-8.6345490">
        <ele>50.1</ele>
        <time>2021-05-24T05:29:34Z</time>
      </trkpt>
      <trkpt lat="42.8059200" lon="-8.6345380">
        <ele>50.1</ele>
        <time>2021-05-24T05:29:35Z</time>
      </trkpt>
      <trkpt lat="42.8059310" lon="-8.6345320">
        <ele>50.2</ele>
        <time>2021-05-24T05:29:36Z</time>
      </trkpt>
      <trkpt lat="42.8059420" lon="-8.6345260">
        <ele>50.2</ele>
        <time>2021-05-24T05:29:37Z</time>
      </trkpt>
      <trkpt lat="42.8059510" lon="-8.6345180">
        <ele>50.2</ele>
        <time>2021-05-24T05:29:38Z</time>
      </trkpt>
      <trkpt lat="42.8059630" lon="-8.6345170">
        <ele>50.3</ele>
        <time>2021-05-24T05:29:39Z</time>
      </trkpt>
      <trkpt lat="42.8059720" lon="-8.6345120">
        <ele>50.3</ele>
        <time>2021-05-24T05:29:40Z</time>
      </trkpt>
      <trkpt lat="42.8059820" lon="-8.6345020">
        <ele>50.3</ele>
        <time>2021-05-24T05:29:41Z</time>
      </trkpt>
      <trkpt lat="42.8059920" lon="-8.6344960">
        <ele>50.4</ele>
        <time>2021-05-24T05:29:42Z</time>
      </trkpt>
      <trkpt lat="42.8060060" lon="-8.6344920">
        <ele>50.4</ele>
        <time>2021-05-24T05:29:43Z</time>
      </trkpt>
      <trkpt lat="42.8060160" lon="-8.6344890">
        <ele>50.5</ele>
        <time>2021-05-24T05:29:44Z</time>
      </trkpt>
      <trkpt lat="42.8060270" lon="-8.6344840">
        <ele>50.5</ele>
        <time>2021-05-24T05:29:45Z</time>
      </trkpt>
      <trkpt lat="42.8060400" lon="-8.6344770">
        <ele>50.5</ele>
        <time>2021-05-24T05:29:46Z</time>
      </trkpt>
      <trkpt lat="42.8060450" lon="-8.6344660">
        <ele>50.6</ele>
        <time>2021-05-24T05:29:47Z</time>
      </trkpt>
      <trkpt lat="42.8060640" lon="-8.6344590">
        <ele>50.6</ele>
        <time>2021-05-24T05:29:48Z</time>
      </trkpt>
      <trkpt lat="42.8060720" lon="-8.6344540">
        <ele>50.7</ele>
        <time>2021-05-24T05:29:49Z</time>
      </trkpt>
      <trkpt lat="42.8060810" lon="-8.6344480">
        <ele>50.7</ele>
        <time>2021-05-24T05:29:50Z</time>
      </trkpt>
      <trkpt lat="42.8061010" lon="-8.6344350">
        <ele>50.8</ele>
        <time>2021-05-24T05:29:51Z</time>
      </trkpt>
      <trkpt lat="42.8061070" lon="-8.6344270">
        <ele>50.8</ele>
        <time>2021-05-24T05:29:52Z</time>
      </trkpt>
      <trkpt lat="42.8061130" lon="-8.6344200">
        <ele>50.8</ele>
        <time>2021-05-24T05:29:53Z</time>
      </trkpt>
      <trkpt lat="42.8061190" lon="-8.6344130">
        <ele>50.8</ele>
        <time>2021-05-24T05:29:54Z</time>
      </trkpt>
      <trkpt lat="42.8061290" lon="-8.6344080">
        <ele>50.9</ele>
        <time>2021-05-24T05:29:55Z</time>
      </trkpt>
      <trkpt lat="42.8061380" lon="-8.6343990">
        <ele>50.9</ele>
        <time>2021-05-24T05:29:56Z</time>
      </trkpt>
      <trkpt lat="42.8061480" lon="-8.6343890">
        <ele>50.9</ele>
        <time>2021-05-24T05:29:57Z</time>
      </trkpt>
      <trkpt lat="42.8061630" lon="-8.6343820">
        <ele>51.0</ele>
        <time>2021-05-24T05:29:58Z</time>
      </trkpt>
      <trkpt lat="42.8061750" lon="-8.6343790">
        <ele>51.0</ele>
        <time>2021-05-24T05:29:59Z</time>
      </trkpt>
      <trkpt lat="42.8061880" lon="-8.6343640">
        <ele>51.1</ele>
        <time>2021-05-24T05:30:00Z</time>
      </trkpt>
      <trkpt lat="42.8062040" lon="-8.6343450">
        <ele>51.1</ele>
        <time>2021-05-24T05:30:01Z</time>
      </trkpt>
      <trkpt lat="42.8062130" lon="-8.6343380">
        <ele>51.2</ele>
        <time>2021-05-24T05:30:02Z</time>
      </trkpt>
      <trkpt lat="42.8062210" lon="-8.6343320">
        <ele>51.2</ele>
        <time>2021-05-24T05:30:03Z</time>
      </trkpt>
      <trkpt lat="42.8062240" lon="-8.6343230">
        <ele>51.2</ele>
        <time>2021-05-24T05:30:04Z</time>
      </trkpt>
      <trkpt lat="42.8062380" lon="-8.6343150">
        <ele>51.3</ele>
        <time>2021-05-24T05:30:05Z</time>
      </trkpt>
      <trkpt lat="42.8062500" lon="-8.6343060">
        <ele>51.3</ele>
        <time>2021-05-24T05:30:06Z</time>
      </trkpt>
      <trkpt lat="42.8062590" lon="-8.6342920">
        <ele>51.4</ele>
        <time>2021-05-24T05:30:07Z</time>
      </trkpt>
      <trkpt lat="42.8062730" lon="-8.6342820">
        <ele>51.5</ele>
        <time>2021-05-24T05:30:08Z</time>
      </trkpt>
      <trkpt lat="42.8062850" lon="-8.6342700">
        <ele>51.5</ele>
        <time>2021-05-24T05:30:09Z</time>
      </trkpt>
      <trkpt lat="42.8062900" lon="-8.6342600">
        <ele>51.5</ele>
        <time>2021-05-24T05:30:10Z</time>
      </trkpt>
      <trkpt lat="42.8062940" lon="-8.6342500">
        <ele>51.6</ele>
        <time>2021-05-24T05:30:11Z</time>
      </trkpt>
      <trkpt lat="42.8063000" lon="-8.6342390">
        <ele>51.6</ele>
        <time>2021-05-24T05:30:12Z</time>
      </trkpt>
      <trkpt lat="42.8063050" lon="-8.6342300">
        <ele>51.6</ele>
        <time>2021-05-24T05:30:13Z</time>
      </trkpt>
      <trkpt lat="42.8063100" lon="-8.6342130">
        <ele>51.7</ele>
        <time>2021-05-24T05:30:14Z</time>
      </trkpt>
      <trkpt lat="42.8063150" lon="-8.6342080">
        <ele>51.7</ele>
        <time>2021-05-24T05:30:15Z</time>
      </trkpt>
      <trkpt lat="42.8063310" lon="-8.6341950">
        <ele>51.8</ele>
        <time>2021-05-24T05:30:16Z</time>
      </trkpt>
      <trkpt lat="42.8063400" lon="-8.6341860">
        <ele>51.8</ele>
        <time>2021-05-24T05:30:17Z</time>
      </trkpt>
      <trkpt lat="42.8063450" lon="-8.6341780">
        <ele>51.8</ele>
        <time>2021-05-24T05:30:18Z</time>
      </trkpt>
      <trkpt lat="42.8063560" lon="-8.6341650">
        <ele>51.9</ele>
        <time>2021-05-24T05:30:19Z</time>
      </trkpt>
      <trkpt lat="42.8063590" lon="-8.6341560">
        <ele>51.9</ele>
        <time>2021-05-24T05:30:20Z</time>
      </trkpt>
      <trkpt lat="42.8063710" lon="-8.6341360">
        <ele>52.0</ele>
        <time>2021-05-24T05:30:21Z</time>
      </trkpt>
      <trkpt lat="42.8063790" lon="-8.6341280">
        <ele>52.0</ele>
        <time>2021-05-24T05:30:22Z</time>
      </trkpt>
      <trkpt lat="42.8063860" lon="-8.6341200">
        <ele>52.1</ele>
        <time>2021-05-24T05:30:23Z</time>
      </trkpt>
      <trkpt lat="42.8064000" lon="-8.6341020">
        <ele>52.2</ele>
        <time>2021-05-24T05:30:24Z</time>
      </trkpt>
      <trkpt lat="42.8064100" lon="-8.6340930">
        <ele>52.2</ele>
        <time>2021-05-24T05:30:25Z</time>
      </trkpt>
      <trkpt lat="42.8064190" lon="-8.6340850">
        <ele>52.3</ele>
        <time>2021-05-24T05:30:26Z</time>
      </trkpt>
      <trkpt lat="42.8064390" lon="-8.6340720">
        <ele>52.3</ele>
        <time>2021-05-24T05:30:27Z</time>
      </trkpt>
      <trkpt lat="42.8064480" lon="-8.6340710">
        <ele>52.4</ele>
        <time>2021-05-24T05:30:28Z</time>
      </trkpt>
      <trkpt lat="42.8064580" lon="-8.6340690">
        <ele>52.4</ele>
        <time>2021-05-24T05:30:29Z</time>
      </trkpt>
      <trkpt lat="42.8064770" lon="-8.6340560">
        <ele>52.5</ele>
        <time>2021-05-24T05:30:30Z</time>
      </trkpt>
      <trkpt lat="42.8064850" lon="-8.6340500">
        <ele>52.6</ele>
        <time>2021-05-24T05:30:31Z</time>
      </trkpt>
      <trkpt lat="42.8064930" lon="-8.6340440">
        <ele>52.6</ele>
        <time>2021-05-24T05:30:32Z</time>
      </trkpt>
      <trkpt lat="42.8065010" lon="-8.6340360">
        <ele>52.6</ele>
        <time>2021-05-24T05:30:33Z</time>
      </trkpt>
      <trkpt lat="42.8064940" lon="-8.6340200">
        <ele>52.7</ele>
        <time>2021-05-24T05:30:34Z</time>
      </trkpt>
      <trkpt lat="42.8065050" lon="-8.6340020">
        <ele>52.8</ele>
        <time>2021-05-24T05:30:35Z</time>
      </trkpt>
      <trkpt lat="42.8065140" lon="-8.6339760">
        <ele>52.9</ele>
        <time>2021-05-24T05:30:36Z</time>
      </trkpt>
      <trkpt lat="42.8065180" lon="-8.6339590">
        <ele>52.9</ele>
        <time>2021-05-24T05:30:37Z</time>
      </trkpt>
      <trkpt lat="42.8065280" lon="-8.6339370">
        <ele>53.0</ele>
        <time>2021-05-24T05:30:38Z</time>
      </trkpt>
      <trkpt lat="42.8065410" lon="-8.6339320">
        <ele>53.1</ele>
        <time>2021-05-24T05:30:39Z</time>
      </trkpt>
      <trkpt lat="42.8065500" lon="-8.6339080">
        <ele>53.2</ele>
        <time>2021-05-24T05:30:40Z</time>
      </trkpt>
      <trkpt lat="42.8065600" lon="-8.6338920">
        <ele>53.2</ele>
        <time>2021-05-24T05:30:41Z</time>
      </trkpt>
      <trkpt lat="42.8065710" lon="-8.6338830">
        <ele>53.3</ele>
        <time>2021-05-24T05:30:42Z</time>
      </trkpt>
      <trkpt lat="42.8065780" lon="-8.6338760">
        <ele>53.3</ele>
        <time>2021-05-24T05:30:43Z</time>
      </trkpt>
      <trkpt lat="42.8065850" lon="-8.6338680">
        <ele>53.4</ele>
        <time>2021-05-24T05:30:44Z</time>
      </trkpt>
      <trkpt lat="42.8065920" lon="-8.6338610">
        <ele>53.4</ele>
        <time>2021-05-24T05:30:45Z</time>
      </trkpt>
      <trkpt lat="42.8066120" lon="-8.6338500">
        <ele>53.5</ele>
        <time>2021-05-24T05:30:46Z</time>
      </trkpt>
      <trkpt lat="42.8066200" lon="-8.6338460">
        <ele>53.6</ele>
        <time>2021-05-24T05:30:47Z</time>
      </trkpt>
      <trkpt lat="42.8066270" lon="-8.6338410">
        <ele>53.6</ele>
        <time>2021-05-24T05:30:48Z</time>
      </trkpt>
      <trkpt lat="42.8066400" lon="-8.6338290">
        <ele>53.7</ele>
        <time>2021-05-24T05:30:49Z</time>
      </trkpt>
      <trkpt lat="42.8066480" lon="-8.6338240">
        <ele>53.7</ele>
        <time>2021-05-24T05:30:50Z</time>
      </trkpt>
      <trkpt lat="42.8066540" lon="-8.6338220">
        <ele>53.8</ele>
        <time>2021-05-24T05:30:51Z</time>
      </trkpt>
      <trkpt lat="42.8066710" lon="-8.6338040">
        <ele>53.9</ele>
        <time>2021-05-24T05:30:52Z</time>
      </trkpt>
      <trkpt lat="42.8066770" lon="-8.6337970">
        <ele>53.9</ele>
        <time>2021-05-24T05:30:53Z</time>
      </trkpt>
      <trkpt lat="42.8066840" lon="-8.6337910">
        <ele>54.0</ele>
        <time>2021-05-24T05:30:54Z</time>
      </trkpt>
      <trkpt lat="42.8066940" lon="-8.6337760">
        <ele>54.1</ele>
        <time>2021-05-24T05:30:55Z</time>
      </trkpt>
      <trkpt lat="42.8067010" lon="-8.6337610">
        <ele>54.1</ele>
        <time>2021-05-24T05:30:56Z</time>
      </trkpt>
      <trkpt lat="42.8067080" lon="-8.6337570">
        <ele>54.2</ele>
        <time>2021-05-24T05:30:57Z</time>
      </trkpt>
      <trkpt lat="42.8067180" lon="-8.6337440">
        <ele>54.3</ele>
        <time>2021-05-24T05:30:58Z</time>
      </trkpt>
      <trkpt lat="42.8067240" lon="-8.6337400">
        <ele>54.3</ele>
        <time>2021-05-24T05:30:59Z</time>
      </trkpt>
      <trkpt lat="42.8067230" lon="-8.6337390">
        <ele>54.3</ele>
        <time>2021-05-24T05:31:00Z</time>
      </trkpt>
      <trkpt lat="42.8067280" lon="-8.6337360">
        <ele>54.4</ele>
        <time>2021-05-24T05:31:01Z</time>
      </trkpt>
      <trkpt lat="42.8067410" lon="-8.6337290">
        <ele>54.4</ele>
        <time>2021-05-24T05:31:02Z</time>
      </trkpt>
      <trkpt lat="42.8067590" lon="-8.6337280">
        <ele>54.6</ele>
        <time>2021-05-24T05:31:03Z</time>
      </trkpt>
      <trkpt lat="42.8067690" lon="-8.6337260">
        <ele>54.6</ele>
        <time>2021-05-24T05:31:04Z</time>
      </trkpt>
      <trkpt lat="42.8067940" lon="-8.6337300">
        <ele>54.8</ele>
        <time>2021-05-24T05:31:05Z</time>
      </trkpt>
      <trkpt lat="42.8068070" lon="-8.6337280">
        <ele>54.9</ele>
        <time>2021-05-24T05:31:06Z</time>
      </trkpt>
      <trkpt lat="42.8068120" lon="-8.6337250">
        <ele>54.9</ele>
        <time>2021-05-24T05:31:07Z</time>
      </trkpt>
      <trkpt lat="42.8068240" lon="-8.6337200">
        <ele>55.0</ele>
        <time>2021-05-24T05:31:08Z</time>
      </trkpt>
      <trkpt lat="42.8068360" lon="-8.6337090">
        <ele>55.1</ele>
        <time>2021-05-24T05:31:09Z</time>
      </trkpt>
      <trkpt lat="42.8068440" lon="-8.6336930">
        <ele>55.2</ele>
        <time>2021-05-24T05:31:10Z</time>
      </trkpt>
      <trkpt lat="42.8068580" lon="-8.6336890">
        <ele>55.3</ele>
        <time>2021-05-24T05:31:11Z</time>
      </trkpt>
      <trkpt lat="42.8068730" lon="-8.6336850">
        <ele>55.4</ele>
        <time>2021-05-24T05:31:12Z</time>
      </trkpt>
      <trkpt lat="42.8068970" lon="-8.6336780">
        <ele>55.6</ele>
        <time>2021-05-24T05:31:13Z</time>
      </trkpt>
      <trkpt lat="42.8069070" lon="-8.6336730">
        <ele>55.6</ele>
        <time>2021-05-24T05:31:14Z</time>
      </trkpt>
      <trkpt lat="42.8069160" lon="-8.6336680">
        <ele>55.7</ele>
        <time>2021-05-24T05:31:15Z</time>
      </trkpt>
      <trkpt lat="42.8069260" lon="-8.6336670">
        <ele>55.8</ele>
        <time>2021-05-24T05:31:16Z</time>
      </trkpt>
      <trkpt lat="42.8069350" lon="-8.6336610">
        <ele>55.8</ele>
        <time>2021-05-24T05:31:17Z</time>
      </trkpt>
      <trkpt lat="42.8069470" lon="-8.6336570">
        <ele>55.9</ele>
        <time>2021-05-24T05:31:18Z</time>
      </trkpt>
      <trkpt lat="42.8069570" lon="-8.6336460">
        <ele>56.0</ele>
        <time>2021-05-24T05:31:19Z</time>
      </trkpt>
      <trkpt lat="42.8069750" lon="-8.6336390">
        <ele>56.1</ele>
        <time>2021-05-24T05:31:20Z</time>
      </trkpt>
      <trkpt lat="42.8069800" lon="-8.6336220">
        <ele>56.2</ele>
        <time>2021-05-24T05:31:21Z</time>
      </trkpt>
      <trkpt lat="42.8069840" lon="-8.6336130">
        <ele>56.3</ele>
        <time>2021-05-24T05:31:22Z</time>
      </trkpt>
      <trkpt lat="42.8069940" lon="-8.6336030">
        <ele>56.4</ele>
        <time>2021-05-24T05:31:23Z</time>
      </trkpt>
      <trkpt lat="42.8070060" lon="-8.6335960">
        <ele>56.4</ele>
        <time>2021-05-24T05:31:24Z</time>
      </trkpt>
      <trkpt lat="42.8070020" lon="-8.6335810">
        <ele>56.5</ele>
        <time>2021-05-24T05:31:25Z</time>
      </trkpt>
      <trkpt lat="42.8070150" lon="-8.6335820">
        <ele>56.6</ele>
        <time>2021-05-24T05:31:26Z</time>
      </trkpt>
      <trkpt lat="42.8070220" lon="-8.6335750">
        <ele>56.7</ele>
        <time>2021-05-24T05:31:27Z</time>
      </trkpt>
      <trkpt lat="42.8070460" lon="-8.6335690">
        <ele>56.9</ele>
        <time>2021-05-24T05:31:28Z</time>
      </trkpt>
      <trkpt lat="42.8070570" lon="-8.6335620">
        <ele>57.0</ele>
        <time>2021-05-24T05:31:29Z</time>
      </trkpt>
      <trkpt lat="42.8070670" lon="-8.6335510">
        <ele>57.1</ele>
        <time>2021-05-24T05:31:30Z</time>
      </trkpt>
      <trkpt lat="42.8070700" lon="-8.6335450">
        <ele>57.1</ele>
        <time>2021-05-24T05:31:31Z</time>
      </trkpt>
      <trkpt lat="42.8070790" lon="-8.6335320">
        <ele>57.2</ele>
        <time>2021-05-24T05:31:32Z</time>
      </trkpt>
      <trkpt lat="42.8070950" lon="-8.6335180">
        <ele>57.3</ele>
        <time>2021-05-24T05:31:33Z</time>
      </trkpt>
      <trkpt lat="42.8071030" lon="-8.6335090">
        <ele>57.4</ele>
        <time>2021-05-24T05:31:34Z</time>
      </trkpt>
      <trkpt lat="42.8071080" lon="-8.6335060">
        <ele>57.4</ele>
        <time>2021-05-24T05:31:35Z</time>
      </trkpt>
      <trkpt lat="42.8071150" lon="-8.6335200">
        <ele>57.5</ele>
        <time>2021-05-24T05:31:36Z</time>
      </trkpt>
      <trkpt lat="42.8071260" lon="-8.6335030">
        <ele>57.6</ele>
        <time>2021-05-24T05:31:37Z</time>
      </trkpt>
      <trkpt lat="42.8071290" lon="-8.6334780">
        <ele>57.8</ele>
        <time>2021-05-24T05:31:38Z</time>
      </trkpt>
      <trkpt lat="42.8071380" lon="-8.6334590">
        <ele>57.9</ele>
        <time>2021-05-24T05:31:39Z</time>
      </trkpt>
      <trkpt lat="42.8071450" lon="-8.6334430">
        <ele>58.0</ele>
        <time>2021-05-24T05:31:40Z</time>
      </trkpt>
      <trkpt lat="42.8071610" lon="-8.6334420">
        <ele>58.1</ele>
        <time>2021-05-24T05:31:41Z</time>
      </trkpt>
      <trkpt lat="42.8071640" lon="-8.6334310">
        <ele>58.1</ele>
        <time>2021-05-24T05:31:42Z</time>
      </trkpt>
      <trkpt lat="42.8071650" lon="-8.6334140">
        <ele>58.2</ele>
        <time>2021-05-24T05:31:43Z</time>
      </trkpt>
      <trkpt lat="42.8071770" lon="-8.6334000">
        <ele>58.3</ele>
        <time>2021-05-24T05:31:44Z</time>
      </trkpt>
      <trkpt lat="42.8071810" lon="-8.6333930">
        <ele>58.4</ele>
        <time>2021-05-24T05:31:45Z</time>
      </trkpt>
      <trkpt lat="42.8071910" lon="-8.6333810">
        <ele>58.5</ele>
        <time>2021-05-24T05:31:46Z</time>
      </trkpt>
      <trkpt lat="42.8072050" lon="-8.6333600">
        <ele>58.6</ele>
        <time>2021-05-24T05:31:47Z</time>
      </trkpt>
      <trkpt lat="42.8072130" lon="-8.6333540">
        <ele>58.7</ele>
        <time>2021-05-24T05:31:48Z</time>
      </trkpt>
      <trkpt lat="42.8072210" lon="-8.6333480">
        <ele>58.7</ele>
        <time>2021-05-24T05:31:49Z</time>
      </trkpt>
      <trkpt lat="42.8072330" lon="-8.6333350">
        <ele>58.8</ele>
        <time>2021-05-24T05:31:50Z</time>
      </trkpt>
      <trkpt lat="42.8072430" lon="-8.6333280">
        <ele>58.9</ele>
        <time>2021-05-24T05:31:51Z</time>
      </trkpt>
      <trkpt lat="42.8072510" lon="-8.6333330">
        <ele>59.0</ele>
        <time>2021-05-24T05:31:52Z</time>
      </trkpt>
      <trkpt lat="42.8072710" lon="-8.6333340">
        <ele>59.1</ele>
        <time>2021-05-24T05:31:53Z</time>
      </trkpt>
      <trkpt lat="42.8072730" lon="-8.6333330">
        <ele>59.1</ele>
        <time>2021-05-24T05:31:54Z</time>
      </trkpt>
      <trkpt lat="42.8072780" lon="-8.6333230">
        <ele>59.2</ele>
        <time>2021-05-24T05:31:55Z</time>
      </trkpt>
      <trkpt lat="42.8073000" lon="-8.6333010">
        <ele>59.4</ele>
        <time>2021-05-24T05:31:56Z</time>
      </trkpt>
      <trkpt lat="42.8073080" lon="-8.6332930">
        <ele>59.4</ele>
        <time>2021-05-24T05:31:57Z</time>
      </trkpt>
      <trkpt lat="42.8073170" lon="-8.6332860">
        <ele>59.5</ele>
        <time>2021-05-24T05:31:58Z</time>
      </trkpt>
      <trkpt lat="42.8073280" lon="-8.6332800">
        <ele>59.6</ele>
        <time>2021-05-24T05:31:59Z</time>
      </trkpt>
      <trkpt lat="42.8073340" lon="-8.6332690">
        <ele>59.7</ele>
        <time>2021-05-24T05:32:00Z</time>
      </trkpt>
      <trkpt lat="42.8073420" lon="-8.6332610">
        <ele>59.7</ele>
        <time>2021-05-24T05:32:01Z</time>
      </trkpt>
      <trkpt lat="42.8073550" lon="-8.6332480">
        <ele>59.8</ele>
        <time>2021-05-24T05:32:02Z</time>
      </trkpt>
      <trkpt lat="42.8073700" lon="-8.6332390">
        <ele>59.9</ele>
        <time>2021-05-24T05:32:03Z</time>
      </trkpt>
      <trkpt lat="42.8073750" lon="-8.6332200">
        <ele>60.0</ele>
        <time>2021-05-24T05:32:04Z</time>
      </trkpt>
      <trkpt lat="42.8073860" lon="-8.6332170">
        <ele>60.1</ele>
        <time>2021-05-24T05:32:05Z</time>
      </trkpt>
      <trkpt lat="42.8073960" lon="-8.6332050">
        <ele>60.2</ele>
        <time>2021-05-24T05:32:06Z</time>
      </trkpt>
      <trkpt lat="42.8074040" lon="-8.6331860">
        <ele>60.3</ele>
        <time>2021-05-24T05:32:07Z</time>
      </trkpt>
      <trkpt lat="42.8074080" lon="-8.6331670">
        <ele>60.3</ele>
        <time>2021-05-24T05:32:08Z</time>
      </trkpt>
      <trkpt lat="42.8074130" lon="-8.6331510">
        <ele>60.4</ele>
        <time>2021-05-24T05:32:09Z</time>
      </trkpt>
      <trkpt lat="42.8074260" lon="-8.6331310">
        <ele>60.5</ele>
        <time>2021-05-24T05:32:10Z</time>
      </trkpt>
      <trkpt lat="42.8074370" lon="-8.6331230">
        <ele>60.6</ele>
        <time>2021-05-24T05:32:11Z</time>
      </trkpt>
      <trkpt lat="42.8074410" lon="-8.6331140">
        <ele>60.7</ele>
        <time>2021-05-24T05:32:12Z</time>
      </trkpt>
      <trkpt lat="42.8074460" lon="-8.6331050">
        <ele>60.7</ele>
        <time>2021-05-24T05:32:13Z</time>
      </trkpt>
      <trkpt lat="42.8074500" lon="-8.6330960">
        <ele>60.8</ele>
        <time>2021-05-24T05:32:14Z</time>
      </trkpt>
      <trkpt lat="42.8074550" lon="-8.6330870">
        <ele>60.8</ele>
        <time>2021-05-24T05:32:15Z</time>
      </trkpt>
      <trkpt lat="42.8074570" lon="-8.6330520">
        <ele>60.9</ele>
        <time>2021-05-24T05:32:16Z</time>
      </trkpt>
      <trkpt lat="42.8074530" lon="-8.6330370">
        <ele>61.0</ele>
        <time>2021-05-24T05:32:17Z</time>
      </trkpt>
      <trkpt lat="42.8074570" lon="-8.6330170">
        <ele>61.1</ele>
        <time>2021-05-24T05:32:18Z</time>
      </trkpt>
      <trkpt lat="42.8074670" lon="-8.6330050">
        <ele>61.2</ele>
        <time>2021-05-24T05:32:19Z</time>
      </trkpt>
      <trkpt lat="42.8074750" lon="-8.6329880">
        <ele>61.2</ele>
        <time>2021-05-24T05:32:20Z</time>
      </trkpt>
      <trkpt lat="42.8074850" lon="-8.6329720">
        <ele>61.3</ele>
        <time>2021-05-24T05:32:21Z</time>
      </trkpt>
      <trkpt lat="42.8074950" lon="-8.6329610">
        <ele>61.4</ele>
        <time>2021-05-24T05:32:22Z</time>
      </trkpt>
      <trkpt lat="42.8075070" lon="-8.6329460">
        <ele>61.5</ele>
        <time>2021-05-24T05:32:23Z</time>
      </trkpt>
      <trkpt lat="42.8075200" lon="-8.6329240">
        <ele>61.6</ele>
        <time>2021-05-24T05:32:24Z</time>
      </trkpt>
      <trkpt lat="42.8075260" lon="-8.6329170">
        <ele>61.6</ele>
        <time>2021-05-24T05:32:25Z</time>
      </trkpt>
      <trkpt lat="42.8075320" lon="-8.6329100">
        <ele>61.7</ele>
        <time>2021-05-24T05:32:26Z</time>
      </trkpt>
      <trkpt lat="42.8075410" lon="-8.6328990">
        <ele>61.7</ele>
        <time>2021-05-24T05:32:27Z</time>
      </trkpt>
      <trkpt lat="42.8075520" lon="-8.6328930">
        <ele>61.8</ele>
        <time>2021-05-24T05:32:28Z</time>
      </trkpt>
      <trkpt lat="42.8075610" lon="-8.6328810">
        <ele>61.8</ele>
        <time>2021-05-24T05:32:29Z</time>
      </trkpt>
      <trkpt lat="42.8075680" lon="-8.6328700">
        <ele>61.9</ele>
        <time>2021-05-24T05:32:30Z</time>
      </trkpt>
      <trkpt lat="42.8075850" lon="-8.6328620">
        <ele>62.0</ele>
        <time>2021-05-24T05:32:31Z</time>
      </trkpt>
      <trkpt lat="42.8075880" lon="-8.6328580">
        <ele>62.0</ele>
        <time>2021-05-24T05:32:32Z</time>
      </trkpt>
      <trkpt lat="42.8075990" lon="-8.6328450">
        <ele>62.1</ele>
        <time>2021-05-24T05:32:33Z</time>
      </trkpt>
      <trkpt lat="42.8076120" lon="-8.6328400">
        <ele>62.1</ele>
        <time>2021-05-24T05:32:34Z</time>
      </trkpt>
      <trkpt lat="42.8076290" lon="-8.6328250">
        <ele>62.2</ele>
        <time>2021-05-24T05:32:35Z</time>
      </trkpt>
      <trkpt lat="42.8076370" lon="-8.6328170">
        <ele>62.3</ele>
        <time>2021-05-24T05:32:36Z</time>
      </trkpt>
      <trkpt lat="42.8076440" lon="-8.6328100">
        <ele>62.3</ele>
        <time>2021-05-24T05:32:37Z</time>
      </trkpt>
      <trkpt lat="42.8076570" lon="-8.6327940">
        <ele>62.4</ele>
        <time>2021-05-24T05:32:38Z</time>
      </trkpt>
      <trkpt lat="42.8076690" lon="-8.6327880">
        <ele>62.4</ele>
        <time>2021-05-24T05:32:39Z</time>
      </trkpt>
      <trkpt lat="42.8076790" lon="-8.6327800">
        <ele>62.5</ele>
        <time>2021-05-24T05:32:40Z</time>
      </trkpt>
      <trkpt lat="42.8076830" lon="-8.6327640">
        <ele>62.5</ele>
        <time>2021-05-24T05:32:41Z</time>
      </trkpt>
      <trkpt lat="42.8076950" lon="-8.6327700">
        <ele>62.6</ele>
        <time>2021-05-24T05:32:42Z</time>
      </trkpt>
      <trkpt lat="42.8077140" lon="-8.6327600">
        <ele>62.7</ele>
        <time>2021-05-24T05:32:43Z</time>
      </trkpt>
      <trkpt lat="42.8077250" lon="-8.6327530">
        <ele>62.7</ele>
        <time>2021-05-24T05:32:44Z</time>
      </trkpt>
      <trkpt lat="42.8077350" lon="-8.6327470">
        <ele>62.8</ele>
        <time>2021-05-24T05:32:45Z</time>
      </trkpt>
      <trkpt lat="42.8077430" lon="-8.6327400">
        <ele>62.8</ele>
        <time>2021-05-24T05:32:46Z</time>
      </trkpt>
      <trkpt lat="42.8077570" lon="-8.6327310">
        <ele>62.9</ele>
        <time>2021-05-24T05:32:47Z</time>
      </trkpt>
      <trkpt lat="42.8077630" lon="-8.6327200">
        <ele>62.9</ele>
        <time>2021-05-24T05:32:48Z</time>
      </trkpt>
      <trkpt lat="42.8077820" lon="-8.6327100">
        <ele>63.0</ele>
        <time>2021-05-24T05:32:49Z</time>
      </trkpt>
      <trkpt lat="42.8077910" lon="-8.6327070">
        <ele>63.1</ele>
        <time>2021-05-24T05:32:50Z</time>
      </trkpt>
      <trkpt lat="42.8078000" lon="-8.6327050">
        <ele>63.1</ele>
        <time>2021-05-24T05:32:51Z</time>
      </trkpt>
      <trkpt lat="42.8078110" lon="-8.6326950">
        <ele>63.2</ele>
        <time>2021-05-24T05:32:52Z</time>
      </trkpt>
      <trkpt lat="42.8078190" lon="-8.6326780">
        <ele>63.2</ele>
        <time>2021-05-24T05:32:53Z</time>
      </trkpt>
      <trkpt lat="42.8078230" lon="-8.6326650">
        <ele>63.3</ele>
        <time>2021-05-24T05:32:54Z</time>
      </trkpt>
      <trkpt lat="42.8078320" lon="-8.6326580">
        <ele>63.3</ele>
        <time>2021-05-24T05:32:55Z</time>
      </trkpt>
      <trkpt lat="42.8078400" lon="-8.6326500">
        <ele>63.3</ele>
        <time>2021-05-24T05:32:56Z</time>
      </trkpt>
      <trkpt lat="42.8078510" lon="-8.6326500">
        <ele>63.4</ele>
        <time>2021-05-24T05:32:57Z</time>
      </trkpt>
      <trkpt lat="42.8078590" lon="-8.6326360">
        <ele>63.5</ele>
        <time>2021-05-24T05:32:58Z</time>
      </trkpt>
      <trkpt lat="42.8078670" lon="-8.6326280">
        <ele>63.5</ele>
        <time>2021-05-24T05:32:59Z</time>
      </trkpt>
      <trkpt lat="42.8078730" lon="-8.6326140">
        <ele>63.5</ele>
        <time>2021-05-24T05:33:00Z</time>
      </trkpt>
      <trkpt lat="42.8078750" lon="-8.6325910">
        <ele>63.6</ele>
        <time>2021-05-24T05:33:01Z</time>
      </trkpt>
      <trkpt lat="42.8078780" lon="-8.6325600">
        <ele>63.7</ele>
        <time>2021-05-24T05:33:02Z</time>
      </trkpt>
      <trkpt lat="42.8078810" lon="-8.6325500">
        <ele>63.8</ele>
        <time>2021-05-24T05:33:03Z</time>
      </trkpt>
      <trkpt lat="42.8078830" lon="-8.6325390">
        <ele>63.8</ele>
        <time>2021-05-24T05:33:04Z</time>
      </trkpt>
      <trkpt lat="42.8078870" lon="-8.6325240">
        <ele>63.8</ele>
        <time>2021-05-24T05:33:05Z</time>
      </trkpt>
      <trkpt lat="42.8078990" lon="-8.6325050">
        <ele>63.9</ele>
        <time>2021-05-24T05:33:06Z</time>
      </trkpt>
      <trkpt lat="42.8079090" lon="-8.6324840">
        <ele>64.0</ele>
        <time>2021-05-24T05:33:07Z</time>
      </trkpt>
      <trkpt lat="42.8079130" lon="-8.6324730">
        <ele>64.0</ele>
        <time>2021-05-24T05:33:08Z</time>
      </trkpt>
      <trkpt lat="42.8079170" lon="-8.6324620">
        <ele>64.1</ele>
        <time>2021-05-24T05:33:09Z</time>
      </trkpt>
      <trkpt lat="42.8079230" lon="-8.6324500">
        <ele>64.1</ele>
        <time>2021-05-24T05:33:10Z</time>
      </trkpt>
      <trkpt lat="42.8079280" lon="-8.6324380">
        <ele>64.2</ele>
        <time>2021-05-24T05:33:11Z</time>
      </trkpt>
      <trkpt lat="42.8079290" lon="-8.6324200">
        <ele>64.2</ele>
        <time>2021-05-24T05:33:12Z</time>
      </trkpt>
      <trkpt lat="42.8079420" lon="-8.6324040">
        <ele>64.3</ele>
        <time>2021-05-24T05:33:13Z</time>
      </trkpt>
      <trkpt lat="42.8079530" lon="-8.6323950">
        <ele>64.4</ele>
        <time>2021-05-24T05:33:14Z</time>
      </trkpt>
      <trkpt lat="42.8079660" lon="-8.6323970">
        <ele>64.4</ele>
        <time>2021-05-24T05:33:15Z</time>
      </trkpt>
      <trkpt lat="42.8079750" lon="-8.6323900">
        <ele>64.5</ele>
        <time>2021-05-24T05:33:16Z</time>
      </trkpt>
      <trkpt lat="42.8079850" lon="-8.6323850">
        <ele>64.5</ele>
        <time>2021-05-24T05:33:17Z</time>
      </trkpt>
      <trkpt lat="42.8079950" lon="-8.6323860">
        <ele>64.6</ele>
        <time>2021-05-24T05:33:18Z</time>
      </trkpt>
      <trkpt lat="42.8080100" lon="-8.6323830">
        <ele>64.6</ele>
        <time>2021-05-24T05:33:19Z</time>
      </trkpt>
      <trkpt lat="42.8080200" lon="-8.6323810">
        <ele>64.7</ele>
        <time>2021-05-24T05:33:20Z</time>
      </trkpt>
      <trkpt lat="42.8080250" lon="-8.6323720">
        <ele>64.7</ele>
        <time>2021-05-24T05:33:21Z</time>
      </trkpt>
      <trkpt lat="42.8080380" lon="-8.6323710">
        <ele>64.8</ele>
        <time>2021-05-24T05:33:22Z</time>
      </trkpt>
      <trkpt lat="42.8080460" lon="-8.6323690">
        <ele>64.8</ele>
        <time>2021-05-24T05:33:23Z</time>
      </trkpt>
      <trkpt lat="42.8080520" lon="-8.6323630">
        <ele>64.8</ele>
        <time>2021-05-24T05:33:24Z</time>
      </trkpt>
      <trkpt lat="42.8080640" lon="-8.6323610">
        <ele>64.9</ele>
        <time>2021-05-24T05:33:25Z</time>
      </trkpt>
      <trkpt lat="42.8080760" lon="-8.6323550">
        <ele>65.0</ele>
        <time>2021-05-24T05:33:26Z</time>
      </trkpt>
      <trkpt lat="42.8080970" lon="-8.6323460">
        <ele>65.1</ele>
        <time>2021-05-24T05:33:27Z</time>
      </trkpt>
      <trkpt lat="42.8081060" lon="-8.6323400">
        <ele>65.1</ele>
        <time>2021-05-24T05:33:28Z</time>
      </trkpt>
      <trkpt lat="42.8081140" lon="-8.6323350">
        <ele>65.2</ele>
        <time>2021-05-24T05:33:29Z</time>
      </trkpt>
      <trkpt lat="42.8081220" lon="-8.6323250">
        <ele>65.2</ele>
        <time>2021-05-24T05:33:30Z</time>
      </trkpt>
      <trkpt lat="42.8081250" lon="-8.6323130">
        <ele>65.2</ele>
        <time>2021-05-24T05:33:31Z</time>
      </trkpt>
      <trkpt lat="42.8081370" lon="-8.6323030">
        <ele>65.3</ele>
        <time>2021-05-24T05:33:32Z</time>
      </trkpt>
      <trkpt lat="42.8081460" lon="-8.6322910">
        <ele>65.4</ele>
        <time>2021-05-24T05:33:33Z</time>
      </trkpt>
      <trkpt lat="42.8081610" lon="-8.6322800">
        <ele>65.5</ele>
        <time>2021-05-24T05:33:34Z</time>
      </trkpt>
      <trkpt lat="42.8081780" lon="-8.6322680">
        <ele>65.5</ele>
        <time>2021-05-24T05:33:35Z</time>
      </trkpt>
      <trkpt lat="42.8081870" lon="-8.6322620">
        <ele>65.6</ele>
        <time>2021-05-24T05:33:36Z</time>
      </trkpt>
      <trkpt lat="42.8081950" lon="-8.6322570">
        <ele>65.7</ele>
        <time>2021-05-24T05:33:37Z</time>
      </trkpt>
      <trkpt lat="42.8082080" lon="-8.6322490">
        <ele>65.7</ele>
        <time>2021-05-24T05:33:38Z</time>
      </trkpt>
      <trkpt lat="42.8082180" lon="-8.6322300">
        <ele>65.8</ele>
        <time>2021-05-24T05:33:39Z</time>
      </trkpt>
      <trkpt lat="42.8082300" lon="-8.6322150">
        <ele>65.9</ele>
        <time>2021-05-24T05:33:40Z</time>
      </trkpt>
      <trkpt lat="42.8082320" lon="-8.6321940">
        <ele>66.0</ele>
        <time>2021-05-24T05:33:41Z</time>
      </trkpt>
      <trkpt lat="42.8082400" lon="-8.6321900">
        <ele>66.0</ele>
        <time>2021-05-24T05:33:42Z</time>
      </trkpt>
      <trkpt lat="42.8082480" lon="-8.6321850">
        <ele>66.1</ele>
        <time>2021-05-24T05:33:43Z</time>
      </trkpt>
      <trkpt lat="42.8082600" lon="-8.6321690">
        <ele>66.2</ele>
        <time>2021-05-24T05:33:44Z</time>
      </trkpt>
      <trkpt lat="42.8082740" lon="-8.6321570">
        <ele>66.2</ele>
        <time>2021-05-24T05:33:45Z</time>
      </trkpt>
      <trkpt lat="42.8082900" lon="-8.6321550">
        <ele>66.3</ele>
        <time>2021-05-24T05:33:46Z</time>
      </trkpt>
      <trkpt lat="42.8082990" lon="-8.6321540">
        <ele>66.4</ele>
        <time>2021-05-24T05:33:47Z</time>
      </trkpt>
      <trkpt lat="42.8083030" lon="-8.6321320">
        <ele>66.5</ele>
        <time>2021-05-24T05:33:48Z</time>
      </trkpt>
      <trkpt lat="42.8083150" lon="-8.6321230">
        <ele>66.5</ele>
        <time>2021-05-24T05:33:49Z</time>
      </trkpt>
      <trkpt lat="42.8083250" lon="-8.6321180">
        <ele>66.6</ele>
        <time>2021-05-24T05:33:50Z</time>
      </trkpt>
      <trkpt lat="42.8083320" lon="-8.6321110">
        <ele>66.6</ele>
        <time>2021-05-24T05:33:51Z</time>
      </trkpt>
      <trkpt lat="42.8083380" lon="-8.6320920">
        <ele>66.7</ele>
        <time>2021-05-24T05:33:52Z</time>
      </trkpt>
      <trkpt lat="42.8083430" lon="-8.6320770">
        <ele>66.8</ele>
        <time>2021-05-24T05:33:53Z</time>
      </trkpt>
      <trkpt lat="42.8083500" lon="-8.6320490">
        <ele>66.9</ele>
        <time>2021-05-24T05:33:54Z</time>
      </trkpt>
      <trkpt lat="42.8083590" lon="-8.6320150">
        <ele>67.0</ele>
        <time>2021-05-24T05:33:55Z</time>
      </trkpt>
      <trkpt lat="42.8083640" lon="-8.6320020">
        <ele>67.1</ele>
        <time>2021-05-24T05:33:56Z</time>
      </trkpt>
      <trkpt lat="42.8083660" lon="-8.6319970">
        <ele>67.1</ele>
        <time>2021-05-24T05:33:57Z</time>
      </trkpt>
      <trkpt lat="42.8083700" lon="-8.6319740">
        <ele>67.2</ele>
        <time>2021-05-24T05:33:58Z</time>
      </trkpt>
      <trkpt lat="42.8083740" lon="-8.6319570">
        <ele>67.3</ele>
        <time>2021-05-24T05:33:59Z</time>
      </trkpt>
      <trkpt lat="42.8083880" lon="-8.6319330">
        <ele>67.4</ele>
        <time>2021-05-24T05:34:00Z</time>
      </trkpt>
      <trkpt lat="42.8083930" lon="-8.6319250">
        <ele>67.4</ele>
        <time>2021-05-24T05:34:01Z</time>
      </trkpt>
      <trkpt lat="42.8083980" lon="-8.6319170">
        <ele>67.4</ele>
        <time>2021-05-24T05:34:02Z</time>
      </trkpt>
      <trkpt lat="42.8084040" lon="-8.6319070">
        <ele>67.5</ele>
        <time>2021-05-24T05:34:03Z</time>
      </trkpt>
      <trkpt lat="42.8084100" lon="-8.6318970">
        <ele>67.5</ele>
        <time>2021-05-24T05:34:04Z</time>
      </trkpt>
      <trkpt lat="42.8084200" lon="-8.6318880">
        <ele>67.6</ele>
        <time>2021-05-24T05:34:05Z</time>
      </trkpt>
      <trkpt lat="42.8084250" lon="-8.6318680">
        <ele>67.7</ele>
        <time>2021-05-24T05:34:06Z</time>
      </trkpt>
      <trkpt lat="42.8084380" lon="-8.6318600">
        <ele>67.7</ele>
        <time>2021-05-24T05:34:07Z</time>
      </trkpt>
      <trkpt lat="42.8084470" lon="-8.6318500">
        <ele>67.8</ele>
        <time>2021-05-24T05:34:08Z</time>
      </trkpt>
      <trkpt lat="42.8084570" lon="-8.6318440">
        <ele>67.9</ele>
        <time>2021-05-24T05:34:09Z</time>
      </trkpt>
      <trkpt lat="42.8084640" lon="-8.6318440">
        <ele>67.9</ele>
        <time>2021-05-24T05:34:10Z</time>
      </trkpt>
      <trkpt lat="42.8084710" lon="-8.6318280">
        <ele>67.9</ele>
        <time>2021-05-24T05:34:11Z</time>
      </trkpt>
      <trkpt lat="42.8084810" lon="-8.6318190">
        <ele>68.0</ele>
        <time>2021-05-24T05:34:12Z</time>
      </trkpt>
      <trkpt lat="42.8084940" lon="-8.6318170">
        <ele>68.1</ele>
        <time>2021-05-24T05:34:13Z</time>
      </trkpt>
      <trkpt lat="42.8085050" lon="-8.6318150">
        <ele>68.1</ele>
        <time>2021-05-24T05:34:14Z</time>
      </trkpt>
      <trkpt lat="42.8085160" lon="-8.6318090">
        <ele>68.2</ele>
        <time>2021-05-24T05:34:15Z</time>
      </trkpt>
      <trkpt lat="42.8085270" lon="-8.6318030">
        <ele>68.2</ele>
        <time>2021-05-24T05:34:16Z</time>
      </trkpt>
      <trkpt lat="42.8085440" lon="-8.6317870">
        <ele>68.3</ele>
        <time>2021-05-24T05:34:17Z</time>
      </trkpt>
      <trkpt lat="42.8085530" lon="-8.6317800">
        <ele>68.3</ele>
        <time>2021-05-24T05:34:18Z</time>
      </trkpt>
      <trkpt lat="42.8085610" lon="-8.6317730">
        <ele>68.4</ele>
        <time>2021-05-24T05:34:19Z</time>
      </trkpt>
      <trkpt lat="42.8085750" lon="-8.6317510">
        <ele>68.4</ele>
        <time>2021-05-24T05:34:20Z</time>
      </trkpt>
      <trkpt lat="42.8085810" lon="-8.6317420">
        <ele>68.4</ele>
        <time>2021-05-24T05:34:21Z</time>
      </trkpt>
      <trkpt lat="42.8085870" lon="-8.6317330">
        <ele>68.5</ele>
        <time>2021-05-24T05:34:22Z</time>
      </trkpt>
      <trkpt lat="42.8085960" lon="-8.6317280">
        <ele>68.5</ele>
        <time>2021-05-24T05:34:23Z</time>
      </trkpt>
      <trkpt lat="42.8086020" lon="-8.6317150">
        <ele>68.5</ele>
        <time>2021-05-24T05:34:24Z</time>
      </trkpt>
      <trkpt lat="42.8086080" lon="-8.6317020">
        <ele>68.5</ele>
        <time>2021-05-24T05:34:25Z</time>
      </trkpt>
      <trkpt lat="42.8086190" lon="-8.6316830">
        <ele>68.5</ele>
        <time>2021-05-24T05:34:26Z</time>
      </trkpt>
      <trkpt lat="42.8086330" lon="-8.6316790">
        <ele>68.5</ele>
        <time>2021-05-24T05:34:27Z</time>
      </trkpt>
      <trkpt lat="42.8086490" lon="-8.6316550">
        <ele>68.6</ele>
        <time>2021-05-24T05:34:28Z</time>
      </trkpt>
      <trkpt lat="42.8086550" lon="-8.6316440">
        <ele>68.6</ele>
        <time>2021-05-24T05:34:29Z</time>
      </trkpt>
      <trkpt lat="42.8086610" lon="-8.6316320">
        <ele>68.6</ele>
        <time>2021-05-24T05:34:30Z</time>
      </trkpt>
      <trkpt lat="42.8086770" lon="-8.6316220">
        <ele>68.6</ele>
        <time>2021-05-24T05:34:31Z</time>
      </trkpt>
      <trkpt lat="42.8086850" lon="-8.6316130">
        <ele>68.6</ele>
        <time>2021-05-24T05:34:32Z</time>
      </trkpt>
      <trkpt lat="42.8086990" lon="-8.6315980">
        <ele>68.6</ele>
        <time>2021-05-24T05:34:33Z</time>
      </trkpt>
      <trkpt lat="42.8087030" lon="-8.6315890">
        <ele>68.6</ele>
        <time>2021-05-24T05:34:34Z</time>
      </trkpt>
      <trkpt lat="42.8087080" lon="-8.6315790">
        <ele>68.7</ele>
        <time>2021-05-24T05:34:35Z</time>
      </trkpt>
      <trkpt lat="42.8087120" lon="-8.6315700">
        <ele>68.7</ele>
        <time>2021-05-24T05:34:36Z</time>
      </trkpt>
      <trkpt lat="42.8087170" lon="-8.6315590">
        <ele>68.7</ele>
        <time>2021-05-24T05:34:37Z</time>
      </trkpt>
      <trkpt lat="42.8087280" lon="-8.6315450">
        <ele>68.7</ele>
        <time>2021-05-24T05:34:38Z</time>
      </trkpt>
      <trkpt lat="42.8087310" lon="-8.6315470">
        <ele>68.7</ele>
        <time>2021-05-24T05:34:39Z</time>
      </trkpt>
      <trkpt lat="42.8087350" lon="-8.6315330">
        <ele>68.7</ele>
        <time>2021-05-24T05:34:40Z</time>
      </trkpt>
      <trkpt lat="42.8087380" lon="-8.6315190">
        <ele>68.7</ele>
        <time>2021-05-24T05:34:41Z</time>
      </trkpt>
      <trkpt lat="42.8087480" lon="-8.6315120">
        <ele>68.7</ele>
        <time>2021-05-24T05:34:42Z</time>
      </trkpt>
      <trkpt lat="42.8087570" lon="-8.6315090">
        <ele>68.7</ele>
        <time>2021-05-24T05:34:43Z</time>
      </trkpt>
      <trkpt lat="42.8087690" lon="-8.6315040">
        <ele>68.7</ele>
        <time>2021-05-24T05:34:44Z</time>
      </trkpt>
      <trkpt lat="42.8087760" lon="-8.6314920">
        <ele>68.7</ele>
        <time>2021-05-24T05:34:45Z</time>
      </trkpt>
      <trkpt lat="42.8087840" lon="-8.6314780">
        <ele>68.7</ele>
        <time>2021-05-24T05:34:46Z</time>
      </trkpt>
      <trkpt lat="42.8087900" lon="-8.6314540">
        <ele>68.7</ele>
        <time>2021-05-24T05:34:47Z</time>
      </trkpt>
      <trkpt lat="42.8087960" lon="-8.6314420">
        <ele>68.8</ele>
        <time>2021-05-24T05:34:48Z</time>
      </trkpt>
      <trkpt lat="42.8088020" lon="-8.6314290">
        <ele>68.8</ele>
        <time>2021-05-24T05:34:49Z</time>
      </trkpt>
      <trkpt lat="42.8088130" lon="-8.6314130">
        <ele>68.8</ele>
        <time>2021-05-24T05:34:50Z</time>
      </trkpt>
      <trkpt lat="42.8088280" lon="-8.6313940">
        <ele>68.8</ele>
        <time>2021-05-24T05:34:51Z</time>
      </trkpt>
      <trkpt lat="42.8088330" lon="-8.6313890">
        <ele>68.8</ele>
        <time>2021-05-24T05:34:52Z</time>
      </trkpt>
      <trkpt lat="42.8088440" lon="-8.6313770">
        <ele>68.8</ele>
        <time>2021-05-24T05:34:53Z</time>
      </trkpt>
      <trkpt lat="42.8088540" lon="-8.6313670">
        <ele>68.8</ele>
        <time>2021-05-24T05:34:54Z</time>
      </trkpt>
      <trkpt lat="42.8088700" lon="-8.6313500">
        <ele>68.8</ele>
        <time>2021-05-24T05:34:55Z</time>
      </trkpt>
      <trkpt lat="42.8088780" lon="-8.6313440">
        <ele>68.8</ele>
        <time>2021-05-24T05:34:56Z</time>
      </trkpt>
      <trkpt lat="42.8088850" lon="-8.6313380">
        <ele>68.8</ele>
        <time>2021-05-24T05:34:57Z</time>
      </trkpt>
      <trkpt lat="42.8089070" lon="-8.6313270">
        <ele>68.8</ele>
        <time>2021-05-24T05:34:58Z</time>
      </trkpt>
      <trkpt lat="42.8089130" lon="-8.6313220">
        <ele>68.8</ele>
        <time>2021-05-24T05:34:59Z</time>
      </trkpt>
      <trkpt lat="42.8089200" lon="-8.6313180">
        <ele>68.8</ele>
        <time>2021-05-24T05:35:00Z</time>
      </trkpt>
      <trkpt lat="42.8089380" lon="-8.6313150">
        <ele>68.9</ele>
        <time>2021-05-24T05:35:01Z</time>
      </trkpt>
      <trkpt lat="42.8089540" lon="-8.6313050">
        <ele>68.9</ele>
        <time>2021-05-24T05:35:02Z</time>
      </trkpt>
      <trkpt lat="42.8089620" lon="-8.6312790">
        <ele>68.9</ele>
        <time>2021-05-24T05:35:03Z</time>
      </trkpt>
      <trkpt lat="42.8089680" lon="-8.6312670">
        <ele>68.9</ele>
        <time>2021-05-24T05:35:04Z</time>
      </trkpt>
      <trkpt lat="42.8089730" lon="-8.6312560">
        <ele>68.9</ele>
        <time>2021-05-24T05:35:05Z</time>
      </trkpt>
      <trkpt lat="42.8089810" lon="-8.6312480">
        <ele>68.9</ele>
        <time>2021-05-24T05:35:06Z</time>
      </trkpt>
      <trkpt lat="42.8089860" lon="-8.6312370">
        <ele>68.9</ele>
        <time>2021-05-24T05:35:07Z</time>
      </trkpt>
      <trkpt lat="42.8090000" lon="-8.6312230">
        <ele>68.9</ele>
        <time>2021-05-24T05:35:08Z</time>
      </trkpt>
      <trkpt lat="42.8090120" lon="-8.6312110">
        <ele>68.9</ele>
        <time>2021-05-24T05:35:09Z</time>
      </trkpt>
      <trkpt lat="42.8090220" lon="-8.6312100">
        <ele>68.9</ele>
        <time>2021-05-24T05:35:10Z</time>
      </trkpt>
      <trkpt lat="42.8090300" lon="-8.6311980">
        <ele>68.9</ele>
        <time>2021-05-24T05:35:11Z</time>
      </trkpt>
      <trkpt lat="42.8090350" lon="-8.6311880">
        <ele>68.9</ele>
        <time>2021-05-24T05:35:12Z</time>
      </trkpt>
      <trkpt lat="42.8090420" lon="-8.6311800">
        <ele>68.9</ele>
        <time>2021-05-24T05:35:13Z</time>
      </trkpt>
      <trkpt lat="42.8090530" lon="-8.6311650">
        <ele>68.9</ele>
        <time>2021-05-24T05:35:14Z</time>
      </trkpt>
      <trkpt lat="42.8090650" lon="-8.6311500">
        <ele>68.9</ele>
        <time>2021-05-24T05:35:15Z</time>
      </trkpt>
      <trkpt lat="42.8090770" lon="-8.6311410">
        <ele>68.9</ele>
        <time>2021-05-24T05:35:16Z</time>
      </trkpt>
      <trkpt lat="42.8090860" lon="-8.6311420">
        <ele>68.9</ele>
        <time>2021-05-24T05:35:17Z</time>
      </trkpt>
      <trkpt lat="42.8090950" lon="-8.6311300">
        <ele>68.9</ele>
        <time>2021-05-24T05:35:18Z</time>
      </trkpt>
      <trkpt lat="42.8091050" lon="-8.6311210">
        <ele>68.9</ele>
        <time>2021-05-24T05:35:19Z</time>
      </trkpt>
      <trkpt lat="42.8091140" lon="-8.6311110">
        <ele>68.9</ele>
        <time>2021-05-24T05:35:20Z</time>
      </trkpt>
      <trkpt lat="42.8091180" lon="-8.6311010">
        <ele>68.9</ele>
        <time>2021-05-24T05:35:21Z</time>
      </trkpt>
      <trkpt lat="42.8091290" lon="-8.6310940">
        <ele>68.9</ele>
        <time>2021-05-24T05:35:22Z</time>
      </trkpt>
      <trkpt lat="42.8091450" lon="-8.6310700">
        <ele>69.0</ele>
        <time>2021-05-24T05:35:23Z</time>
      </trkpt>
      <trkpt lat="42.8091520" lon="-8.6310620">
        <ele>69.0</ele>
        <time>2021-05-24T05:35:24Z</time>
      </trkpt>
      <trkpt lat="42.8091600" lon="-8.6310540">
        <ele>69.0</ele>
        <time>2021-05-24T05:35:25Z</time>
      </trkpt>
      <trkpt lat="42.8091730" lon="-8.6310360">
        <ele>69.0</ele>
        <time>2021-05-24T05:35:26Z</time>
      </trkpt>
      <trkpt lat="42.8091770" lon="-8.6310280">
        <ele>69.0</ele>
        <time>2021-05-24T05:35:27Z</time>
      </trkpt>
      <trkpt lat="42.8091810" lon="-8.6310200">
        <ele>69.0</ele>
        <time>2021-05-24T05:35:28Z</time>
      </trkpt>
      <trkpt lat="42.8091850" lon="-8.6310120">
        <ele>69.0</ele>
        <time>2021-05-24T05:35:29Z</time>
      </trkpt>
      <trkpt lat="42.8091960" lon="-8.6310010">
        <ele>69.0</ele>
        <time>2021-05-24T05:35:30Z</time>
      </trkpt>
      <trkpt lat="42.8092040" lon="-8.6309840">
        <ele>69.0</ele>
        <time>2021-05-24T05:35:31Z</time>
      </trkpt>
      <trkpt lat="42.8092070" lon="-8.6309670">
        <ele>69.1</ele>
        <time>2021-05-24T05:35:32Z</time>
      </trkpt>
      <trkpt lat="42.8092150" lon="-8.6309550">
        <ele>69.1</ele>
        <time>2021-05-24T05:35:33Z</time>
      </trkpt>
      <trkpt lat="42.8092210" lon="-8.6309500">
        <ele>69.1</ele>
        <time>2021-05-24T05:35:34Z</time>
      </trkpt>
      <trkpt lat="42.8092340" lon="-8.6309270">
        <ele>69.1</ele>
        <time>2021-05-24T05:35:35Z</time>
      </trkpt>
      <trkpt lat="42.8092400" lon="-8.6309190">
        <ele>69.1</ele>
        <time>2021-05-24T05:35:36Z</time>
      </trkpt>
      <trkpt lat="42.8092450" lon="-8.6309100">
        <ele>69.1</ele>
        <time>2021-05-24T05:35:37Z</time>
      </trkpt>
      <trkpt lat="42.8092570" lon="-8.6308980">
        <ele>69.1</ele>
        <time>2021-05-24T05:35:38Z</time>
      </trkpt>
      <trkpt lat="42.8092640" lon="-8.6308980">
        <ele>69.1</ele>
        <time>2021-05-24T05:35:39Z</time>
      </trkpt>
      <trkpt lat="42.8092650" lon="-8.6308850">
        <ele>69.1</ele>
        <time>2021-05-24T05:35:40Z</time>
      </trkpt>
      <trkpt lat="42.8092710" lon="-8.6308700">
        <ele>69.1</ele>
        <time>2021-05-24T05:35:41Z</time>
      </trkpt>
      <trkpt lat="42.8092770" lon="-8.6308560">
        <ele>69.1</ele>
        <time>2021-05-24T05:35:42Z</time>
      </trkpt>
      <trkpt lat="42.8092840" lon="-8.6308440">
        <ele>69.2</ele>
        <time>2021-05-24T05:35:43Z</time>
      </trkpt>
      <trkpt lat="42.8092840" lon="-8.6308250">
        <ele>69.2</ele>
        <time>2021-05-24T05:35:44Z</time>
      </trkpt>
      <trkpt lat="42.8092900" lon="-8.6308120">
        <ele>69.2</ele>
        <time>2021-05-24T05:35:45Z</time>
      </trkpt>
      <trkpt lat="42.8092890" lon="-8.6307950">
        <ele>69.2</ele>
        <time>2021-05-24T05:35:46Z</time>
      </trkpt>
      <trkpt lat="42.8093050" lon="-8.6307720">
        <ele>69.2</ele>
        <time>2021-05-24T05:35:47Z</time>
      </trkpt>
      <trkpt lat="42.8093090" lon="-8.6307630">
        <ele>69.2</ele>
        <time>2021-05-24T05:35:48Z</time>
      </trkpt>
      <trkpt lat="42.8093140" lon="-8.6307540">
        <ele>69.2</ele>
        <time>2021-05-24T05:35:49Z</time>
      </trkpt>
      <trkpt lat="42.8093220" lon="-8.6307370">
        <ele>69.3</ele>
        <time>2021-05-24T05:35:50Z</time>
      </trkpt>
      <trkpt lat="42.8093260" lon="-8.6307330">
        <ele>69.3</ele>
        <time>2021-05-24T05:35:51Z</time>
      </trkpt>
      <trkpt lat="42.8093360" lon="-8.6307160">
        <ele>69.3</ele>
        <time>2021-05-24T05:35:52Z</time>
      </trkpt>
      <trkpt lat="42.8093430" lon="-8.6307100">
        <ele>69.4</ele>
        <time>2021-05-24T05:35:53Z</time>
      </trkpt>
      <trkpt lat="42.8093520" lon="-8.6306940">
        <ele>69.4</ele>
        <time>2021-05-24T05:35:54Z</time>
      </trkpt>
      <trkpt lat="42.8093550" lon="-8.6306870">
        <ele>69.4</ele>
        <time>2021-05-24T05:35:55Z</time>
      </trkpt>
      <trkpt lat="42.8093600" lon="-8.6306760">
        <ele>69.5</ele>
        <time>2021-05-24T05:35:56Z</time>
      </trkpt>
      <trkpt lat="42.8093610" lon="-8.6306660">
        <ele>69.5</ele>
        <time>2021-05-24T05:35:57Z</time>
      </trkpt>
      <trkpt lat="42.8093670" lon="-8.6306530">
        <ele>69.5</ele>
        <time>2021-05-24T05:35:58Z</time>
      </trkpt>
      <trkpt lat="42.8093700" lon="-8.6306360">
        <ele>69.6</ele>
        <time>2021-05-24T05:35:59Z</time>
      </trkpt>
      <trkpt lat="42.8093660" lon="-8.6306260">
        <ele>69.6</ele>
        <time>2021-05-24T05:36:00Z</time>
      </trkpt>
      <trkpt lat="42.8093720" lon="-8.6306120">
        <ele>69.6</ele>
        <time>2021-05-24T05:36:01Z</time>
      </trkpt>
      <trkpt lat="42.8093750" lon="-8.6306090">
        <ele>69.6</ele>
        <time>2021-05-24T05:36:02Z</time>
      </trkpt>
      <trkpt lat="42.8093790" lon="-8.6305970">
        <ele>69.7</ele>
        <time>2021-05-24T05:36:03Z</time>
      </trkpt>
      <trkpt lat="42.8093850" lon="-8.6305860">
        <ele>69.7</ele>
        <time>2021-05-24T05:36:04Z</time>
      </trkpt>
      <trkpt lat="42.8093900" lon="-8.6305760">
        <ele>69.7</ele>
        <time>2021-05-24T05:36:05Z</time>
      </trkpt>
      <trkpt lat="42.8094000" lon="-8.6305560">
        <ele>69.8</ele>
        <time>2021-05-24T05:36:06Z</time>
      </trkpt>
      <trkpt lat="42.8094070" lon="-8.6305450">
        <ele>69.8</ele>
        <time>2021-05-24T05:36:07Z</time>
      </trkpt>
      <trkpt lat="42.8094140" lon="-8.6305350">
        <ele>69.8</ele>
        <time>2021-05-24T05:36:08Z</time>
      </trkpt>
      <trkpt lat="42.8094230" lon="-8.6305180">
        <ele>69.9</ele>
        <time>2021-05-24T05:36:09Z</time>
      </trkpt>
      <trkpt lat="42.8094290" lon="-8.6305170">
        <ele>69.9</ele>
        <time>2021-05-24T05:36:10Z</time>
      </trkpt>
      <trkpt lat="42.8094370" lon="-8.6305040">
        <ele>69.9</ele>
        <time>2021-05-24T05:36:11Z</time>
      </trkpt>
      <trkpt lat="42.8094470" lon="-8.6304910">
        <ele>70.0</ele>
        <time>2021-05-24T05:36:12Z</time>
      </trkpt>
      <trkpt lat="42.8094530" lon="-8.6304690">
        <ele>70.0</ele>
        <time>2021-05-24T05:36:13Z</time>
      </trkpt>
      <trkpt lat="42.8094580" lon="-8.6304540">
        <ele>70.0</ele>
        <time>2021-05-24T05:36:14Z</time>
      </trkpt>
      <trkpt lat="42.8094600" lon="-8.6304420">
        <ele>70.1</ele>
        <time>2021-05-24T05:36:15Z</time>
      </trkpt>
      <trkpt lat="42.8094610" lon="-8.6304240">
        <ele>70.1</ele>
        <time>2021-05-24T05:36:16Z</time>
      </trkpt>
      <trkpt lat="42.8094630" lon="-8.6304100">
        <ele>70.1</ele>
        <time>2021-05-24T05:36:17Z</time>
      </trkpt>
      <trkpt lat="42.8094600" lon="-8.6303910">
        <ele>70.1</ele>
        <time>2021-05-24T05:36:18Z</time>
      </trkpt>
      <trkpt lat="42.8094660" lon="-8.6303870">
        <ele>70.2</ele>
        <time>2021-05-24T05:36:19Z</time>
      </trkpt>
      <trkpt lat="42.8094740" lon="-8.6303650">
        <ele>70.2</ele>
        <time>2021-05-24T05:36:20Z</time>
      </trkpt>
      <trkpt lat="42.8094760" lon="-8.6303530">
        <ele>70.2</ele>
        <time>2021-05-24T05:36:21Z</time>
      </trkpt>
      <trkpt lat="42.8094790" lon="-8.6303410">
        <ele>70.2</ele>
        <time>2021-05-24T05:36:22Z</time>
      </trkpt>
      <trkpt lat="42.8094820" lon="-8.6303260">
        <ele>70.3</ele>
        <time>2021-05-24T05:36:23Z</time>
      </trkpt>
      <trkpt lat="42.8094820" lon="-8.6303090">
        <ele>70.3</ele>
        <time>2021-05-24T05:36:24Z</time>
      </trkpt>
      <trkpt lat="42.8094820" lon="-8.6303030">
        <ele>70.3</ele>
        <time>2021-05-24T05:36:25Z</time>
      </trkpt>
      <trkpt lat="42.8094830" lon="-8.6302720">
        <ele>70.3</ele>
        <time>2021-05-24T05:36:26Z</time>
      </trkpt>
      <trkpt lat="42.8094820" lon="-8.6302650">
        <ele>70.3</ele>
        <time>2021-05-24T05:36:27Z</time>
      </trkpt>
      <trkpt lat="42.8094800" lon="-8.6302570">
        <ele>70.3</ele>
        <time>2021-05-24T05:36:28Z</time>
      </trkpt>
      <trkpt lat="42.8094780" lon="-8.6302500">
        <ele>70.4</ele>
        <time>2021-05-24T05:36:29Z</time>
      </trkpt>
      <trkpt lat="42.8094830" lon="-8.6302200">
        <ele>70.4</ele>
        <time>2021-05-24T05:36:30Z</time>
      </trkpt>
      <trkpt lat="42.8094850" lon="-8.6302100">
        <ele>70.4</ele>
        <time>2021-05-24T05:36:31Z</time>
      </trkpt>
      <trkpt lat="42.8094880" lon="-8.6302000">
        <ele>70.4</ele>
        <time>2021-05-24T05:36:32Z</time>
      </trkpt>
      <trkpt lat="42.8094900" lon="-8.6301750">
        <ele>70.4</ele>
        <time>2021-05-24T05:36:33Z</time>
      </trkpt>
      <trkpt lat="42.8094910" lon="-8.6301620">
        <ele>70.5</ele>
        <time>2021-05-24T05:36:34Z</time>
      </trkpt>
      <trkpt lat="42.8094930" lon="-8.6301500">
        <ele>70.5</ele>
        <time>2021-05-24T05:36:35Z</time>
      </trkpt>
      <trkpt lat="42.8095020" lon="-8.6301160">
        <ele>70.5</ele>
        <time>2021-05-24T05:36:36Z</time>
      </trkpt>
      <trkpt lat="42.8095080" lon="-8.6301020">
        <ele>70.5</ele>
        <time>2021-05-24T05:36:37Z</time>
      </trkpt>
      <trkpt lat="42.8095130" lon="-8.6300870">
        <ele>70.6</ele>
        <time>2021-05-24T05:36:38Z</time>
      </trkpt>
      <trkpt lat="42.8095180" lon="-8.6300740">
        <ele>70.6</ele>
        <time>2021-05-24T05:36:39Z</time>
      </trkpt>
      <trkpt lat="42.8095290" lon="-8.6300460">
        <ele>70.6</ele>
        <time>2021-05-24T05:36:40Z</time>
      </trkpt>
      <trkpt lat="42.8095350" lon="-8.6300400">
        <ele>70.6</ele>
        <time>2021-05-24T05:36:41Z</time>
      </trkpt>
      <trkpt lat="42.8095400" lon="-8.6300270">
        <ele>70.6</ele>
        <time>2021-05-24T05:36:42Z</time>
      </trkpt>
      <trkpt lat="42.8095420" lon="-8.6300080">
        <ele>70.6</ele>
        <time>2021-05-24T05:36:43Z</time>
      </trkpt>
      <trkpt lat="42.8095480" lon="-8.6299770">
        <ele>70.7</ele>
        <time>2021-05-24T05:36:44Z</time>
      </trkpt>
      <trkpt lat="42.8095510" lon="-8.6299660">
        <ele>70.7</ele>
        <time>2021-05-24T05:36:45Z</time>
      </trkpt>
      <trkpt lat="42.8095530" lon="-8.6299560">
        <ele>70.7</ele>
        <time>2021-05-24T05:36:46Z</time>
      </trkpt>
      <trkpt lat="42.8095530" lon="-8.6299360">
        <ele>70.7</ele>
        <time>2021-05-24T05:36:47Z</time>
      </trkpt>
      <trkpt lat="42.8095650" lon="-8.6299190">
        <ele>70.7</ele>
        <time>2021-05-24T05:36:48Z</time>
      </trkpt>
      <trkpt lat="42.8095650" lon="-8.6299130">
        <ele>70.7</ele>
        <time>2021-05-24T05:36:49Z</time>
      </trkpt>
      <trkpt lat="42.8095670" lon="-8.6298940">
        <ele>70.7</ele>
        <time>2021-05-24T05:36:50Z</time>
      </trkpt>
      <trkpt lat="42.8095650" lon="-8.6298780">
        <ele>70.7</ele>
        <time>2021-05-24T05:36:51Z</time>
      </trkpt>
      <trkpt lat="42.8095540" lon="-8.6298480">
        <ele>70.8</ele>
        <time>2021-05-24T05:36:52Z</time>
      </trkpt>
      <trkpt lat="42.8095530" lon="-8.6298370">
        <ele>70.8</ele>
        <time>2021-05-24T05:36:53Z</time>
      </trkpt>
      <trkpt lat="42.8095510" lon="-8.6298260">
        <ele>70.8</ele>
        <time>2021-05-24T05:36:54Z</time>
      </trkpt>
      <trkpt lat="42.8095500" lon="-8.6298130">
        <ele>70.8</ele>
        <time>2021-05-24T05:36:55Z</time>
      </trkpt>
      <trkpt lat="42.8095490" lon="-8.6298000">
        <ele>70.8</ele>
        <time>2021-05-24T05:36:56Z</time>
      </trkpt>
      <trkpt lat="42.8095560" lon="-8.6297850">
        <ele>70.8</ele>
        <time>2021-05-24T05:36:57Z</time>
      </trkpt>
      <trkpt lat="42.8095700" lon="-8.6297590">
        <ele>70.9</ele>
        <time>2021-05-24T05:36:58Z</time>
      </trkpt>
      <trkpt lat="42.8095720" lon="-8.6297490">
        <ele>70.9</ele>
        <time>2021-05-24T05:36:59Z</time>
      </trkpt>
      <trkpt lat="42.8095740" lon="-8.6297400">
        <ele>70.9</ele>
        <time>2021-05-24T05:37:00Z</time>
      </trkpt>
      <trkpt lat="42.8095870" lon="-8.6297060">
        <ele>71.0</ele>
        <time>2021-05-24T05:37:01Z</time>
      </trkpt>
      <trkpt lat="42.8095930" lon="-8.6296920">
        <ele>71.0</ele>
        <time>2021-05-24T05:37:02Z</time>
      </trkpt>
      <trkpt lat="42.8096010" lon="-8.6296720">
        <ele>71.0</ele>
        <time>2021-05-24T05:37:03Z</time>
      </trkpt>
      <trkpt lat="42.8096130" lon="-8.6296570">
        <ele>71.0</ele>
        <time>2021-05-24T05:37:04Z</time>
      </trkpt>
      <trkpt lat="42.8096220" lon="-8.6296370">
        <ele>71.1</ele>
        <time>2021-05-24T05:37:05Z</time>
      </trkpt>
      <trkpt lat="42.8096310" lon="-8.6296190">
        <ele>71.1</ele>
        <time>2021-05-24T05:37:06Z</time>
      </trkpt>
      <trkpt lat="42.8096380" lon="-8.6296040">
        <ele>71.1</ele>
        <time>2021-05-24T05:37:07Z</time>
      </trkpt>
      <trkpt lat="42.8096440" lon="-8.6295900">
        <ele>71.1</ele>
        <time>2021-05-24T05:37:08Z</time>
      </trkpt>
      <trkpt lat="42.8096490" lon="-8.6295830">
        <ele>71.1</ele>
        <time>2021-05-24T05:37:09Z</time>
      </trkpt>
      <trkpt lat="42.8096540" lon="-8.6295700">
        <ele>71.2</ele>
        <time>2021-05-24T05:37:10Z</time>
      </trkpt>
      <trkpt lat="42.8096590" lon="-8.6295470">
        <ele>71.2</ele>
        <time>2021-05-24T05:37:11Z</time>
      </trkpt>
      <trkpt lat="42.8096610" lon="-8.6295380">
        <ele>71.2</ele>
        <time>2021-05-24T05:37:12Z</time>
      </trkpt>
      <trkpt lat="42.8096620" lon="-8.6295280">
        <ele>71.2</ele>
        <time>2021-05-24T05:37:13Z</time>
      </trkpt>
      <trkpt lat="42.8096680" lon="-8.6295120">
        <ele>71.2</ele>
        <time>2021-05-24T05:37:14Z</time>
      </trkpt>
      <trkpt lat="42.8096780" lon="-8.6294870">
        <ele>71.3</ele>
        <time>2021-05-24T05:37:15Z</time>
      </trkpt>
      <trkpt lat="42.8096820" lon="-8.6294770">
        <ele>71.3</ele>
        <time>2021-05-24T05:37:16Z</time>
      </trkpt>
      <trkpt lat="42.8096860" lon="-8.6294670">
        <ele>71.3</ele>
        <time>2021-05-24T05:37:17Z</time>
      </trkpt>
      <trkpt lat="42.8096950" lon="-8.6294430">
        <ele>71.3</ele>
        <time>2021-05-24T05:37:18Z</time>
      </trkpt>
      <trkpt lat="42.8096980" lon="-8.6294320">
        <ele>71.3</ele>
        <time>2021-05-24T05:37:19Z</time>
      </trkpt>
      <trkpt lat="42.8097020" lon="-8.6294210">
        <ele>71.3</ele>
        <time>2021-05-24T05:37:20Z</time>
      </trkpt>
      <trkpt lat="42.8097050" lon="-8.6294110">
        <ele>71.3</ele>
        <time>2021-05-24T05:37:21Z</time>
      </trkpt>
      <trkpt lat="42.8097140" lon="-8.6293880">
        <ele>71.4</ele>
        <time>2021-05-24T05:37:22Z</time>
      </trkpt>
      <trkpt lat="42.8097220" lon="-8.6293710">
        <ele>71.4</ele>
        <time>2021-05-24T05:37:23Z</time>
      </trkpt>
      <trkpt lat="42.8097290" lon="-8.6293480">
        <ele>71.4</ele>
        <time>2021-05-24T05:37:24Z</time>
      </trkpt>
      <trkpt lat="42.8097350" lon="-8.6293350">
        <ele>71.4</ele>
        <time>2021-05-24T05:37:25Z</time>
      </trkpt>
      <trkpt lat="42.8097390" lon="-8.6293230">
        <ele>71.5</ele>
        <time>2021-05-24T05:37:26Z</time>
      </trkpt>
      <trkpt lat="42.8097480" lon="-8.6293110">
        <ele>71.5</ele>
        <time>2021-05-24T05:37:27Z</time>
      </trkpt>
      <trkpt lat="42.8097520" lon="-8.6292990">
        <ele>71.5</ele>
        <time>2021-05-24T05:37:28Z</time>
      </trkpt>
      <trkpt lat="42.8097590" lon="-8.6292840">
        <ele>71.5</ele>
        <time>2021-05-24T05:37:29Z</time>
      </trkpt>
      <trkpt lat="42.8097620" lon="-8.6292660">
        <ele>71.5</ele>
        <time>2021-05-24T05:37:30Z</time>
      </trkpt>
      <trkpt lat="42.8097620" lon="-8.6292400">
        <ele>71.6</ele>
        <time>2021-05-24T05:37:31Z</time>
      </trkpt>
      <trkpt lat="42.8097630" lon="-8.6292260">
        <ele>71.6</ele>
        <time>2021-05-24T05:37:32Z</time>
      </trkpt>
      <trkpt lat="42.8097600" lon="-8.6291880">
        <ele>71.6</ele>
        <time>2021-05-24T05:37:33Z</time>
      </trkpt>
      <trkpt lat="42.8097610" lon="-8.6291770">
        <ele>71.6</ele>
        <time>2021-05-24T05:37:34Z</time>
      </trkpt>
      <trkpt lat="42.8097660" lon="-8.6291330">
        <ele>71.6</ele>
        <time>2021-05-24T05:37:35Z</time>
      </trkpt>
      <trkpt lat="42.8097650" lon="-8.6291250">
        <ele>71.7</ele>
        <time>2021-05-24T05:37:36Z</time>
      </trkpt>
      <trkpt lat="42.8097700" lon="-8.6290950">
        <ele>71.7</ele>
        <time>2021-05-24T05:37:37Z</time>
      </trkpt>
      <trkpt lat="42.8097720" lon="-8.6290790">
        <ele>71.7</ele>
        <time>2021-05-24T05:37:38Z</time>
      </trkpt>
      <trkpt lat="42.8097730" lon="-8.6290630">
        <ele>71.7</ele>
        <time>2021-05-24T05:37:39Z</time>
      </trkpt>
      <trkpt lat="42.8097750" lon="-8.6290430">
        <ele>71.7</ele>
        <time>2021-05-24T05:37:40Z</time>
      </trkpt>
      <trkpt lat="42.8097780" lon="-8.6290200">
        <ele>71.7</ele>
        <time>2021-05-24T05:37:41Z</time>
      </trkpt>
      <trkpt lat="42.8097820" lon="-8.6290140">
        <ele>71.7</ele>
        <time>2021-05-24T05:37:42Z</time>
      </trkpt>
      <trkpt lat="42.8097840" lon="-8.6290030">
        <ele>71.7</ele>
        <time>2021-05-24T05:37:43Z</time>
      </trkpt>
      <trkpt lat="42.8097900" lon="-8.6289810">
        <ele>71.8</ele>
        <time>2021-05-24T05:37:44Z</time>
      </trkpt>
      <trkpt lat="42.8097920" lon="-8.6289680">
        <ele>71.8</ele>
        <time>2021-05-24T05:37:45Z</time>
      </trkpt>
      <trkpt lat="42.8097980" lon="-8.6289510">
        <ele>71.8</ele>
        <time>2021-05-24T05:37:46Z</time>
      </trkpt>
      <trkpt lat="42.8097960" lon="-8.6289350">
        <ele>71.8</ele>
        <time>2021-05-24T05:37:47Z</time>
      </trkpt>
      <trkpt lat="42.8097960" lon="-8.6289040">
        <ele>71.8</ele>
        <time>2021-05-24T05:37:48Z</time>
      </trkpt>
      <trkpt lat="42.8097970" lon="-8.6288910">
        <ele>71.8</ele>
        <time>2021-05-24T05:37:49Z</time>
      </trkpt>
      <trkpt lat="42.8097970" lon="-8.6288780">
        <ele>71.8</ele>
        <time>2021-05-24T05:37:50Z</time>
      </trkpt>
      <trkpt lat="42.8097980" lon="-8.6288610">
        <ele>71.8</ele>
        <time>2021-05-24T05:37:51Z</time>
      </trkpt>
      <trkpt lat="42.8097990" lon="-8.6288470">
        <ele>71.8</ele>
        <time>2021-05-24T05:37:52Z</time>
      </trkpt>
      <trkpt lat="42.8098050" lon="-8.6288380">
        <ele>71.8</ele>
        <time>2021-05-24T05:37:53Z</time>
      </trkpt>
      <trkpt lat="42.8098070" lon="-8.6288220">
        <ele>71.8</ele>
        <time>2021-05-24T05:37:54Z</time>
      </trkpt>
      <trkpt lat="42.8098130" lon="-8.6288030">
        <ele>71.8</ele>
        <time>2021-05-24T05:37:55Z</time>
      </trkpt>
      <trkpt lat="42.8098180" lon="-8.6287980">
        <ele>71.8</ele>
        <time>2021-05-24T05:37:56Z</time>
      </trkpt>
      <trkpt lat="42.8098220" lon="-8.6287670">
        <ele>71.8</ele>
        <time>2021-05-24T05:37:57Z</time>
      </trkpt>
      <trkpt lat="42.8098240" lon="-8.6287500">
        <ele>71.8</ele>
        <time>2021-05-24T05:37:58Z</time>
      </trkpt>
      <trkpt lat="42.8098280" lon="-8.6287300">
        <ele>71.8</ele>
        <time>2021-05-24T05:37:59Z</time>
      </trkpt>
      <trkpt lat="42.8098300" lon="-8.6287150">
        <ele>71.8</ele>
        <time>2021-05-24T05:38:00Z</time>
      </trkpt>
      <trkpt lat="42.8098310" lon="-8.6286900">
        <ele>71.8</ele>
        <time>2021-05-24T05:38:01Z</time>
      </trkpt>
      <trkpt lat="42.8098350" lon="-8.6286700">
        <ele>71.8</ele>
        <time>2021-05-24T05:38:02Z</time>
      </trkpt>
      <trkpt lat="42.8098350" lon="-8.6286530">
        <ele>71.7</ele>
        <time>2021-05-24T05:38:03Z</time>
      </trkpt>
      <trkpt lat="42.8098420" lon="-8.6286350">
        <ele>71.7</ele>
        <time>2021-05-24T05:38:04Z</time>
      </trkpt>
      <trkpt lat="42.8098430" lon="-8.6286300">
        <ele>71.7</ele>
        <time>2021-05-24T05:38:05Z</time>
      </trkpt>
      <trkpt lat="42.8098450" lon="-8.6286120">
        <ele>71.7</ele>
        <time>2021-05-24T05:38:06Z</time>
      </trkpt>
      <trkpt lat="42.8098430" lon="-8.6285840">
        <ele>71.7</ele>
        <time>2021-05-24T05:38:07Z</time>
      </trkpt>
      <trkpt lat="42.8098420" lon="-8.6285690">
        <ele>71.7</ele>
        <time>2021-05-24T05:38:08Z</time>
      </trkpt>
      <trkpt lat="42.8098420" lon="-8.6285540">
        <ele>71.7</ele>
        <time>2021-05-24T05:38:09Z</time>
      </trkpt>
      <trkpt lat="42.8098410" lon="-8.6285380">
        <ele>71.7</ele>
        <time>2021-05-24T05:38:10Z</time>
      </trkpt>
      <trkpt lat="42.8098410" lon="-8.6285200">
        <ele>71.7</ele>
        <time>2021-05-24T05:38:11Z</time>
      </trkpt>
      <trkpt lat="42.8098420" lon="-8.6285070">
        <ele>71.6</ele>
        <time>2021-05-24T05:38:12Z</time>
      </trkpt>
      <trkpt lat="42.8098450" lon="-8.6284980">
        <ele>71.6</ele>
        <time>2021-05-24T05:38:13Z</time>
      </trkpt>
      <trkpt lat="42.8098430" lon="-8.6284820">
        <ele>71.6</ele>
        <time>2021-05-24T05:38:14Z</time>
      </trkpt>
      <trkpt lat="42.8098430" lon="-8.6284640">
        <ele>71.6</ele>
        <time>2021-05-24T05:38:15Z</time>
      </trkpt>
      <trkpt lat="42.8098420" lon="-8.6284480">
        <ele>71.6</ele>
        <time>2021-05-24T05:38:16Z</time>
      </trkpt>
      <trkpt lat="42.8098420" lon="-8.6284320">
        <ele>71.6</ele>
        <time>2021-05-24T05:38:17Z</time>
      </trkpt>
      <trkpt lat="42.8098430" lon="-8.6284230">
        <ele>71.6</ele>
        <time>2021-05-24T05:38:18Z</time>
      </trkpt>
      <trkpt lat="42.8098390" lon="-8.6284100">
        <ele>71.5</ele>
        <time>2021-05-24T05:38:19Z</time>
      </trkpt>
      <trkpt lat="42.8098390" lon="-8.6283960">
        <ele>71.5</ele>
        <time>2021-05-24T05:38:20Z</time>
      </trkpt>
      <trkpt lat="42.8098380" lon="-8.6283770">
        <ele>71.5</ele>
        <time>2021-05-24T05:38:21Z</time>
      </trkpt>
      <trkpt lat="42.8098380" lon="-8.6283650">
        <ele>71.5</ele>
        <time>2021-05-24T05:38:22Z</time>
      </trkpt>
      <trkpt lat="42.8098320" lon="-8.6283470">
        <ele>71.4</ele>
        <time>2021-05-24T05:38:23Z</time>
      </trkpt>
      <trkpt lat="42.8098370" lon="-8.6283300">
        <ele>71.4</ele>
        <time>2021-05-24T05:38:24Z</time>
      </trkpt>
      <trkpt lat="42.8098320" lon="-8.6283060">
        <ele>71.3</ele>
        <time>2021-05-24T05:38:25Z</time>
      </trkpt>
      <trkpt lat="42.8098290" lon="-8.6282930">
        <ele>71.3</ele>
        <time>2021-05-24T05:38:26Z</time>
      </trkpt>
      <trkpt lat="42.8098270" lon="-8.6282800">
        <ele>71.3</ele>
        <time>2021-05-24T05:38:27Z</time>
      </trkpt>
      <trkpt lat="42.8098350" lon="-8.6282440">
        <ele>71.2</ele>
        <time>2021-05-24T05:38:28Z</time>
      </trkpt>
      <trkpt lat="42.8098410" lon="-8.6282340">
        <ele>71.1</ele>
        <time>2021-05-24T05:38:29Z</time>
      </trkpt>
      <trkpt lat="42.8098450" lon="-8.6282210">
        <ele>71.1</ele>
        <time>2021-05-24T05:38:30Z</time>
      </trkpt>
      <trkpt lat="42.8098430" lon="-8.6282040">
        <ele>71.0</ele>
        <time>2021-05-24T05:38:31Z</time>
      </trkpt>
      <trkpt lat="42.8098510" lon="-8.6281860">
        <ele>71.0</ele>
        <time>2021-05-24T05:38:32Z</time>
      </trkpt>
      <trkpt lat="42.8098490" lon="-8.6281640">
        <ele>70.9</ele>
        <time>2021-05-24T05:38:33Z</time>
      </trkpt>
      <trkpt lat="42.8098500" lon="-8.6281490">
        <ele>70.8</ele>
        <time>2021-05-24T05:38:34Z</time>
      </trkpt>
      <trkpt lat="42.8098370" lon="-8.6281250">
        <ele>70.7</ele>
        <time>2021-05-24T05:38:35Z</time>
      </trkpt>
      <trkpt lat="42.8098350" lon="-8.6281120">
        <ele>70.7</ele>
        <time>2021-05-24T05:38:36Z</time>
      </trkpt>
      <trkpt lat="42.8098330" lon="-8.6281000">
        <ele>70.6</ele>
        <time>2021-05-24T05:38:37Z</time>
      </trkpt>
      <trkpt lat="42.8098280" lon="-8.6280850">
        <ele>70.5</ele>
        <time>2021-05-24T05:38:38Z</time>
      </trkpt>
      <trkpt lat="42.8098290" lon="-8.6280640">
        <ele>70.4</ele>
        <time>2021-05-24T05:38:39Z</time>
      </trkpt>
      <trkpt lat="42.8098280" lon="-8.6280540">
        <ele>70.4</ele>
        <time>2021-05-24T05:38:40Z</time>
      </trkpt>
      <trkpt lat="42.8098300" lon="-8.6280410">
        <ele>70.3</ele>
        <time>2021-05-24T05:38:41Z</time>
      </trkpt>
      <trkpt lat="42.8098230" lon="-8.6280230">
        <ele>70.2</ele>
        <time>2021-05-24T05:38:42Z</time>
      </trkpt>
      <trkpt lat="42.8098180" lon="-8.6280090">
        <ele>70.1</ele>
        <time>2021-05-24T05:38:43Z</time>
      </trkpt>
      <trkpt lat="42.8098150" lon="-8.6279910">
        <ele>70.0</ele>
        <time>2021-05-24T05:38:44Z</time>
      </trkpt>
      <trkpt lat="42.8098170" lon="-8.6279710">
        <ele>69.9</ele>
        <time>2021-05-24T05:38:45Z</time>
      </trkpt>
      <trkpt lat="42.8098130" lon="-8.6279590">
        <ele>69.9</ele>
        <time>2021-05-24T05:38:46Z</time>
      </trkpt>
      <trkpt lat="42.8098090" lon="-8.6279430">
        <ele>69.8</ele>
        <time>2021-05-24T05:38:47Z</time>
      </trkpt>
      <trkpt lat="42.8098020" lon="-8.6279310">
        <ele>69.7</ele>
        <time>2021-05-24T05:38:48Z</time>
      </trkpt>
      <trkpt lat="42.8097960" lon="-8.6279100">
        <ele>69.5</ele>
        <time>2021-05-24T05:38:49Z</time>
      </trkpt>
      <trkpt lat="42.8097850" lon="-8.6278930">
        <ele>69.4</ele>
        <time>2021-05-24T05:38:50Z</time>
      </trkpt>
      <trkpt lat="42.8097810" lon="-8.6278800">
        <ele>69.3</ele>
        <time>2021-05-24T05:38:51Z</time>
      </trkpt>
      <trkpt lat="42.8097740" lon="-8.6278550">
        <ele>69.2</ele>
        <time>2021-05-24T05:38:52Z</time>
      </trkpt>
      <trkpt lat="42.8097690" lon="-8.6278390">
        <ele>69.1</ele>
        <time>2021-05-24T05:38:53Z</time>
      </trkpt>
      <trkpt lat="42.8097630" lon="-8.6278250">
        <ele>69.0</ele>
        <time>2021-05-24T05:38:54Z</time>
      </trkpt>
      <trkpt lat="42.8097590" lon="-8.6278110">
        <ele>68.9</ele>
        <time>2021-05-24T05:38:55Z</time>
      </trkpt>
      <trkpt lat="42.8097520" lon="-8.6277830">
        <ele>68.7</ele>
        <time>2021-05-24T05:38:56Z</time>
      </trkpt>
      <trkpt lat="42.8097470" lon="-8.6277710">
        <ele>68.7</ele>
        <time>2021-05-24T05:38:57Z</time>
      </trkpt>
      <trkpt lat="42.8097420" lon="-8.6277590">
        <ele>68.6</ele>
        <time>2021-05-24T05:38:58Z</time>
      </trkpt>
      <trkpt lat="42.8097320" lon="-8.6277300">
        <ele>68.4</ele>
        <time>2021-05-24T05:38:59Z</time>
      </trkpt>
      <trkpt lat="42.8097260" lon="-8.6277200">
        <ele>68.3</ele>
        <time>2021-05-24T05:39:00Z</time>
      </trkpt>
      <trkpt lat="42.8097210" lon="-8.6277100">
        <ele>68.3</ele>
        <time>2021-05-24T05:39:01Z</time>
      </trkpt>
      <trkpt lat="42.8097180" lon="-8.6276920">
        <ele>68.2</ele>
        <time>2021-05-24T05:39:02Z</time>
      </trkpt>
      <trkpt lat="42.8097070" lon="-8.6276740">
        <ele>68.0</ele>
        <time>2021-05-24T05:39:03Z</time>
      </trkpt>
      <trkpt lat="42.8096960" lon="-8.6276630">
        <ele>67.9</ele>
        <time>2021-05-24T05:39:04Z</time>
      </trkpt>
      <trkpt lat="42.8096960" lon="-8.6276560">
        <ele>67.9</ele>
        <time>2021-05-24T05:39:05Z</time>
      </trkpt>
      <trkpt lat="42.8096890" lon="-8.6276410">
        <ele>67.8</ele>
        <time>2021-05-24T05:39:06Z</time>
      </trkpt>
      <trkpt lat="42.8096880" lon="-8.6276230">
        <ele>67.7</ele>
        <time>2021-05-24T05:39:07Z</time>
      </trkpt>
      <trkpt lat="42.8096800" lon="-8.6275980">
        <ele>67.5</ele>
        <time>2021-05-24T05:39:08Z</time>
      </trkpt>
      <trkpt lat="42.8096730" lon="-8.6275710">
        <ele>67.4</ele>
        <time>2021-05-24T05:39:09Z</time>
      </trkpt>
      <trkpt lat="42.8096700" lon="-8.6275600">
        <ele>67.3</ele>
        <time>2021-05-24T05:39:10Z</time>
      </trkpt>
      <trkpt lat="42.8096670" lon="-8.6275500">
        <ele>67.3</ele>
        <time>2021-05-24T05:39:11Z</time>
      </trkpt>
      <trkpt lat="42.8096630" lon="-8.6275340">
        <ele>67.2</ele>
        <time>2021-05-24T05:39:12Z</time>
      </trkpt>
      <trkpt lat="42.8096630" lon="-8.6275190">
        <ele>67.1</ele>
        <time>2021-05-24T05:39:13Z</time>
      </trkpt>
      <trkpt lat="42.8096560" lon="-8.6275100">
        <ele>67.0</ele>
        <time>2021-05-24T05:39:14Z</time>
      </trkpt>
      <trkpt lat="42.8096510" lon="-8.6274960">
        <ele>66.9</ele>
        <time>2021-05-24T05:39:15Z</time>
      </trkpt>
      <trkpt lat="42.8096430" lon="-8.6274740">
        <ele>66.8</ele>
        <time>2021-05-24T05:39:16Z</time>
      </trkpt>
      <trkpt lat="42.8096410" lon="-8.6274560">
        <ele>66.7</ele>
        <time>2021-05-24T05:39:17Z</time>
      </trkpt>
      <trkpt lat="42.8096330" lon="-8.6274360">
        <ele>66.6</ele>
        <time>2021-05-24T05:39:18Z</time>
      </trkpt>
      <trkpt lat="42.8096290" lon="-8.6274170">
        <ele>66.5</ele>
        <time>2021-05-24T05:39:19Z</time>
      </trkpt>
      <trkpt lat="42.8096230" lon="-8.6273970">
        <ele>66.4</ele>
        <time>2021-05-24T05:39:20Z</time>
      </trkpt>
      <trkpt lat="42.8096210" lon="-8.6273810">
        <ele>66.3</ele>
        <time>2021-05-24T05:39:21Z</time>
      </trkpt>
      <trkpt lat="42.8096120" lon="-8.6273610">
        <ele>66.2</ele>
        <time>2021-05-24T05:39:22Z</time>
      </trkpt>
      <trkpt lat="42.8095990" lon="-8.6273500">
        <ele>66.1</ele>
        <time>2021-05-24T05:39:23Z</time>
      </trkpt>
      <trkpt lat="42.8095960" lon="-8.6273390">
        <ele>66.1</ele>
        <time>2021-05-24T05:39:24Z</time>
      </trkpt>
      <trkpt lat="42.8095930" lon="-8.6273240">
        <ele>66.0</ele>
        <time>2021-05-24T05:39:25Z</time>
      </trkpt>
      <trkpt lat="42.8095840" lon="-8.6273030">
        <ele>65.9</ele>
        <time>2021-05-24T05:39:26Z</time>
      </trkpt>
      <trkpt lat="42.8095780" lon="-8.6272870">
        <ele>65.8</ele>
        <time>2021-05-24T05:39:27Z</time>
      </trkpt>
      <trkpt lat="42.8095730" lon="-8.6272640">
        <ele>65.7</ele>
        <time>2021-05-24T05:39:28Z</time>
      </trkpt>
      <trkpt lat="42.8095680" lon="-8.6272520">
        <ele>65.7</ele>
        <time>2021-05-24T05:39:29Z</time>
      </trkpt>
      <trkpt lat="42.8095640" lon="-8.6272390">
        <ele>65.6</ele>
        <time>2021-05-24T05:39:30Z</time>
      </trkpt>
      <trkpt lat="42.8095590" lon="-8.6272330">
        <ele>65.6</ele>
        <time>2021-05-24T05:39:31Z</time>
      </trkpt>
      <trkpt lat="42.8095570" lon="-8.6272150">
        <ele>65.5</ele>
        <time>2021-05-24T05:39:32Z</time>
      </trkpt>
      <trkpt lat="42.8095490" lon="-8.6271980">
        <ele>65.4</ele>
        <time>2021-05-24T05:39:33Z</time>
      </trkpt>
      <trkpt lat="42.8095410" lon="-8.6271780">
        <ele>65.3</ele>
        <time>2021-05-24T05:39:34Z</time>
      </trkpt>
      <trkpt lat="42.8095360" lon="-8.6271640">
        <ele>65.3</ele>
        <time>2021-05-24T05:39:35Z</time>
      </trkpt>
      <trkpt lat="42.8095320" lon="-8.6271500">
        <ele>65.2</ele>
        <time>2021-05-24T05:39:36Z</time>
      </trkpt>
      <trkpt lat="42.8095280" lon="-8.6271330">
        <ele>65.2</ele>
        <time>2021-05-24T05:39:37Z</time>
      </trkpt>
      <trkpt lat="42.8095220" lon="-8.6271110">
        <ele>65.1</ele>
        <time>2021-05-24T05:39:38Z</time>
      </trkpt>
      <trkpt lat="42.8095120" lon="-8.6270850">
        <ele>65.0</ele>
        <time>2021-05-24T05:39:39Z</time>
      </trkpt>
      <trkpt lat="42.8095080" lon="-8.6270750">
        <ele>65.0</ele>
        <time>2021-05-24T05:39:40Z</time>
      </trkpt>
      <trkpt lat="42.8095050" lon="-8.6270640">
        <ele>65.0</ele>
        <time>2021-05-24T05:39:41Z</time>
      </trkpt>
      <trkpt lat="42.8095070" lon="-8.6270550">
        <ele>64.9</ele>
        <time>2021-05-24T05:39:42Z</time>
      </trkpt>
      <trkpt lat="42.8095040" lon="-8.6270400">
        <ele>64.9</ele>
        <time>2021-05-24T05:39:43Z</time>
      </trkpt>
      <trkpt lat="42.8094980" lon="-8.6270200">
        <ele>64.9</ele>
        <time>2021-05-24T05:39:44Z</time>
      </trkpt>
      <trkpt lat="42.8094950" lon="-8.6270010">
        <ele>64.8</ele>
        <time>2021-05-24T05:39:45Z</time>
      </trkpt>
      <trkpt lat="42.8094890" lon="-8.6269810">
        <ele>64.8</ele>
        <time>2021-05-24T05:39:46Z</time>
      </trkpt>
      <trkpt lat="42.8094830" lon="-8.6269520">
        <ele>64.7</ele>
        <time>2021-05-24T05:39:47Z</time>
      </trkpt>
      <trkpt lat="42.8094800" lon="-8.6269410">
        <ele>64.7</ele>
        <time>2021-05-24T05:39:48Z</time>
      </trkpt>
      <trkpt lat="42.8094770" lon="-8.6269290">
        <ele>64.7</ele>
        <time>2021-05-24T05:39:49Z</time>
      </trkpt>
      <trkpt lat="42.8094750" lon="-8.6269120">
        <ele>64.6</ele>
        <time>2021-05-24T05:39:50Z</time>
      </trkpt>
      <trkpt lat="42.8094650" lon="-8.6268950">
        <ele>64.6</ele>
        <time>2021-05-24T05:39:51Z</time>
      </trkpt>
      <trkpt lat="42.8094580" lon="-8.6268690">
        <ele>64.6</ele>
        <time>2021-05-24T05:39:52Z</time>
      </trkpt>
      <trkpt lat="42.8094560" lon="-8.6268580">
        <ele>64.6</ele>
        <time>2021-05-24T05:39:53Z</time>
      </trkpt>
      <trkpt lat="42.8094530" lon="-8.6268460">
        <ele>64.5</ele>
        <time>2021-05-24T05:39:54Z</time>
      </trkpt>
      <trkpt lat="42.8094510" lon="-8.6268230">
        <ele>64.5</ele>
        <time>2021-05-24T05:39:55Z</time>
      </trkpt>
      <trkpt lat="42.8094450" lon="-8.6268080">
        <ele>64.5</ele>
        <time>2021-05-24T05:39:56Z</time>
      </trkpt>
      <trkpt lat="42.8094480" lon="-8.6267940">
        <ele>64.5</ele>
        <time>2021-05-24T05:39:57Z</time>
      </trkpt>
      <trkpt lat="42.8094450" lon="-8.6267800">
        <ele>64.5</ele>
        <time>2021-05-24T05:39:58Z</time>
      </trkpt>
      <trkpt lat="42.8094380" lon="-8.6267630">
        <ele>64.5</ele>
        <time>2021-05-24T05:39:59Z</time>
      </trkpt>
      <trkpt lat="42.8094330" lon="-8.6267450">
        <ele>64.5</ele>
        <time>2021-05-24T05:40:00Z</time>
      </trkpt>
      <trkpt lat="42.8094330" lon="-8.6267310">
        <ele>64.4</ele>
        <time>2021-05-24T05:40:01Z</time>
      </trkpt>
      <trkpt lat="42.8094340" lon="-8.6267160">
        <ele>64.4</ele>
        <time>2021-05-24T05:40:02Z</time>
      </trkpt>
      <trkpt lat="42.8094320" lon="-8.6266880">
        <ele>64.4</ele>
        <time>2021-05-24T05:40:03Z</time>
      </trkpt>
      <trkpt lat="42.8094310" lon="-8.6266750">
        <ele>64.4</ele>
        <time>2021-05-24T05:40:04Z</time>
      </trkpt>
      <trkpt lat="42.8094300" lon="-8.6266620">
        <ele>64.4</ele>
        <time>2021-05-24T05:40:05Z</time>
      </trkpt>
      <trkpt lat="42.8094240" lon="-8.6266440">
        <ele>64.4</ele>
        <time>2021-05-24T05:40:06Z</time>
      </trkpt>
      <trkpt lat="42.8094220" lon="-8.6266230">
        <ele>64.4</ele>
        <time>2021-05-24T05:40:07Z</time>
      </trkpt>
      <trkpt lat="42.8094160" lon="-8.6265950">
        <ele>64.4</ele>
        <time>2021-05-24T05:40:08Z</time>
      </trkpt>
      <trkpt lat="42.8094140" lon="-8.6265830">
        <ele>64.4</ele>
        <time>2021-05-24T05:40:09Z</time>
      </trkpt>
      <trkpt lat="42.8094130" lon="-8.6265710">
        <ele>64.4</ele>
        <time>2021-05-24T05:40:10Z</time>
      </trkpt>
      <trkpt lat="42.8094080" lon="-8.6265300">
        <ele>64.4</ele>
        <time>2021-05-24T05:40:11Z</time>
      </trkpt>
      <trkpt lat="42.8094080" lon="-8.6265200">
        <ele>64.4</ele>
        <time>2021-05-24T05:40:12Z</time>
      </trkpt>
      <trkpt lat="42.8094050" lon="-8.6264990">
        <ele>64.4</ele>
        <time>2021-05-24T05:40:13Z</time>
      </trkpt>
      <trkpt lat="42.8094030" lon="-8.6264790">
        <ele>64.3</ele>
        <time>2021-05-24T05:40:14Z</time>
      </trkpt>
      <trkpt lat="42.8094030" lon="-8.6264570">
        <ele>64.3</ele>
        <time>2021-05-24T05:40:15Z</time>
      </trkpt>
      <trkpt lat="42.8094020" lon="-8.6264370">
        <ele>64.3</ele>
        <time>2021-05-24T05:40:16Z</time>
      </trkpt>
      <trkpt lat="42.8094040" lon="-8.6264230">
        <ele>64.3</ele>
        <time>2021-05-24T05:40:17Z</time>
      </trkpt>
      <trkpt lat="42.8094030" lon="-8.6264060">
        <ele>64.3</ele>
        <time>2021-05-24T05:40:18Z</time>
      </trkpt>
      <trkpt lat="42.8094070" lon="-8.6263940">
        <ele>64.3</ele>
        <time>2021-05-24T05:40:19Z</time>
      </trkpt>
      <trkpt lat="42.8094080" lon="-8.6263750">
        <ele>64.3</ele>
        <time>2021-05-24T05:40:20Z</time>
      </trkpt>
      <trkpt lat="42.8094080" lon="-8.6263600">
        <ele>64.3</ele>
        <time>2021-05-24T05:40:21Z</time>
      </trkpt>
      <trkpt lat="42.8094080" lon="-8.6263440">
        <ele>64.3</ele>
        <time>2021-05-24T05:40:22Z</time>
      </trkpt>
      <trkpt lat="42.8094160" lon="-8.6263300">
        <ele>64.3</ele>
        <time>2021-05-24T05:40:23Z</time>
      </trkpt>
      <trkpt lat="42.8094180" lon="-8.6263170">
        <ele>64.3</ele>
        <time>2021-05-24T05:40:24Z</time>
      </trkpt>
      <trkpt lat="42.8094220" lon="-8.6263040">
        <ele>64.3</ele>
        <time>2021-05-24T05:40:25Z</time>
      </trkpt>
      <trkpt lat="42.8094250" lon="-8.6262750">
        <ele>64.3</ele>
        <time>2021-05-24T05:40:26Z</time>
      </trkpt>
      <trkpt lat="42.8094260" lon="-8.6262640">
        <ele>64.3</ele>
        <time>2021-05-24T05:40:27Z</time>
      </trkpt>
      <trkpt lat="42.8094260" lon="-8.6262540">
        <ele>64.3</ele>
        <time>2021-05-24T05:40:28Z</time>
      </trkpt>
      <trkpt lat="42.8094290" lon="-8.6262350">
        <ele>64.3</ele>
        <time>2021-05-24T05:40:29Z</time>
      </trkpt>
      <trkpt lat="42.8094280" lon="-8.6262170">
        <ele>64.3</ele>
        <time>2021-05-24T05:40:30Z</time>
      </trkpt>
      <trkpt lat="42.8094320" lon="-8.6262020">
        <ele>64.3</ele>
        <time>2021-05-24T05:40:31Z</time>
      </trkpt>
      <trkpt lat="42.8094360" lon="-8.6261820">
        <ele>64.3</ele>
        <time>2021-05-24T05:40:32Z</time>
      </trkpt>
      <trkpt lat="42.8094400" lon="-8.6261720">
        <ele>64.3</ele>
        <time>2021-05-24T05:40:33Z</time>
      </trkpt>
      <trkpt lat="42.8094450" lon="-8.6261550">
        <ele>64.3</ele>
        <time>2021-05-24T05:40:34Z</time>
      </trkpt>
      <trkpt lat="42.8094490" lon="-8.6261360">
        <ele>64.3</ele>
        <time>2021-05-24T05:40:35Z</time>
      </trkpt>
      <trkpt lat="42.8094570" lon="-8.6261060">
        <ele>64.3</ele>
        <time>2021-05-24T05:40:36Z</time>
      </trkpt>
      <trkpt lat="42.8094590" lon="-8.6260970">
        <ele>64.3</ele>
        <time>2021-05-24T05:40:37Z</time>
      </trkpt>
      <trkpt lat="42.8094620" lon="-8.6260870">
        <ele>64.3</ele>
        <time>2021-05-24T05:40:38Z</time>
      </trkpt>
      <trkpt lat="42.8094630" lon="-8.6260790">
        <ele>64.3</ele>
        <time>2021-05-24T05:40:39Z</time>
      </trkpt>
      <trkpt lat="42.8094630" lon="-8.6260600">
        <ele>64.3</ele>
        <time>2021-05-24T05:40:40Z</time>
      </trkpt>
      <trkpt lat="42.8094740" lon="-8.6260410">
        <ele>64.3</ele>
        <time>2021-05-24T05:40:41Z</time>
      </trkpt>
      <trkpt lat="42.8094790" lon="-8.6260250">
        <ele>64.3</ele>
        <time>2021-05-24T05:40:42Z</time>
      </trkpt>
      <trkpt lat="42.8094910" lon="-8.6260070">
        <ele>64.3</ele>
        <time>2021-05-24T05:40:43Z</time>
      </trkpt>
      <trkpt lat="42.8094950" lon="-8.6259940">
        <ele>64.3</ele>
        <time>2021-05-24T05:40:44Z</time>
      </trkpt>
      <trkpt lat="42.8095030" lon="-8.6259790">
        <ele>64.3</ele>
        <time>2021-05-24T05:40:45Z</time>
      </trkpt>
      <trkpt lat="42.8095070" lon="-8.6259700">
        <ele>64.3</ele>
        <time>2021-05-24T05:40:46Z</time>
      </trkpt>
      <trkpt lat="42.8095090" lon="-8.6259390">
        <ele>64.3</ele>
        <time>2021-05-24T05:40:47Z</time>
      </trkpt>
      <trkpt lat="42.8095160" lon="-8.6259220">
        <ele>64.3</ele>
        <time>2021-05-24T05:40:48Z</time>
      </trkpt>
      <trkpt lat="42.8095220" lon="-8.6258920">
        <ele>64.4</ele>
        <time>2021-05-24T05:40:49Z</time>
      </trkpt>
      <trkpt lat="42.8095300" lon="-8.6258790">
        <ele>64.4</ele>
        <time>2021-05-24T05:40:50Z</time>
      </trkpt>
      <trkpt lat="42.8095380" lon="-8.6258650">
        <ele>64.4</ele>
        <time>2021-05-24T05:40:51Z</time>
      </trkpt>
      <trkpt lat="42.8095390" lon="-8.6258530">
        <ele>64.4</ele>
        <time>2021-05-24T05:40:52Z</time>
      </trkpt>
      <trkpt lat="42.8095410" lon="-8.6258360">
        <ele>64.4</ele>
        <time>2021-05-24T05:40:53Z</time>
      </trkpt>
      <trkpt lat="42.8095500" lon="-8.6258130">
        <ele>64.4</ele>
        <time>2021-05-24T05:40:54Z</time>
      </trkpt>
      <trkpt lat="42.8095550" lon="-8.6258000">
        <ele>64.4</ele>
        <time>2021-05-24T05:40:55Z</time>
      </trkpt>
      <trkpt lat="42.8095590" lon="-8.6257860">
        <ele>64.4</ele>
        <time>2021-05-24T05:40:56Z</time>
      </trkpt>
      <trkpt lat="42.8095570" lon="-8.6257650">
        <ele>64.4</ele>
        <time>2021-05-24T05:40:57Z</time>
      </trkpt>
      <trkpt lat="42.8095540" lon="-8.6257380">
        <ele>64.5</ele>
        <time>2021-05-24T05:40:58Z</time>
      </trkpt>
      <trkpt lat="42.8095720" lon="-8.6257120">
        <ele>64.5</ele>
        <time>2021-05-24T05:40:59Z</time>
      </trkpt>
      <trkpt lat="42.8095770" lon="-8.6257010">
        <ele>64.5</ele>
        <time>2021-05-24T05:41:00Z</time>
      </trkpt>
      <trkpt lat="42.8095820" lon="-8.6256910">
        <ele>64.5</ele>
        <time>2021-05-24T05:41:01Z</time>
      </trkpt>
      <trkpt lat="42.8095920" lon="-8.6256730">
        <ele>64.5</ele>
        <time>2021-05-24T05:41:02Z</time>
      </trkpt>
      <trkpt lat="42.8096060" lon="-8.6256600">
        <ele>64.5</ele>
        <time>2021-05-24T05:41:03Z</time>
      </trkpt>
      <trkpt lat="42.8096170" lon="-8.6256370">
        <ele>64.6</ele>
        <time>2021-05-24T05:41:04Z</time>
      </trkpt>
      <trkpt lat="42.8096200" lon="-8.6256240">
        <ele>64.6</ele>
        <time>2021-05-24T05:41:05Z</time>
      </trkpt>
      <trkpt lat="42.8096240" lon="-8.6256120">
        <ele>64.6</ele>
        <time>2021-05-24T05:41:06Z</time>
      </trkpt>
      <trkpt lat="42.8096320" lon="-8.6255810">
        <ele>64.6</ele>
        <time>2021-05-24T05:41:07Z</time>
      </trkpt>
      <trkpt lat="42.8096360" lon="-8.6255700">
        <ele>64.6</ele>
        <time>2021-05-24T05:41:08Z</time>
      </trkpt>
      <trkpt lat="42.8096390" lon="-8.6255600">
        <ele>64.6</ele>
        <time>2021-05-24T05:41:09Z</time>
      </trkpt>
      <trkpt lat="42.8096460" lon="-8.6255400">
        <ele>64.7</ele>
        <time>2021-05-24T05:41:10Z</time>
      </trkpt>
      <trkpt lat="42.8096530" lon="-8.6255190">
        <ele>64.7</ele>
        <time>2021-05-24T05:41:11Z</time>
      </trkpt>
      <trkpt lat="42.8096600" lon="-8.6255000">
        <ele>64.7</ele>
        <time>2021-05-24T05:41:12Z</time>
      </trkpt>
      <trkpt lat="42.8096650" lon="-8.6254830">
        <ele>64.7</ele>
        <time>2021-05-24T05:41:13Z</time>
      </trkpt>
      <trkpt lat="42.8096700" lon="-8.6254720">
        <ele>64.8</ele>
        <time>2021-05-24T05:41:14Z</time>
      </trkpt>
      <trkpt lat="42.8096740" lon="-8.6254600">
        <ele>64.8</ele>
        <time>2021-05-24T05:41:15Z</time>
      </trkpt>
      <trkpt lat="42.8096790" lon="-8.6254410">
        <ele>64.8</ele>
        <time>2021-05-24T05:41:16Z</time>
      </trkpt>
      <trkpt lat="42.8096970" lon="-8.6254080">
        <ele>64.9</ele>
        <time>2021-05-24T05:41:17Z</time>
      </trkpt>
      <trkpt lat="42.8097020" lon="-8.6253970">
        <ele>64.9</ele>
        <time>2021-05-24T05:41:18Z</time>
      </trkpt>
      <trkpt lat="42.8097120" lon="-8.6253800">
        <ele>64.9</ele>
        <time>2021-05-24T05:41:19Z</time>
      </trkpt>
      <trkpt lat="42.8097190" lon="-8.6253630">
        <ele>65.0</ele>
        <time>2021-05-24T05:41:20Z</time>
      </trkpt>
      <trkpt lat="42.8097260" lon="-8.6253360">
        <ele>65.0</ele>
        <time>2021-05-24T05:41:21Z</time>
      </trkpt>
      <trkpt lat="42.8097270" lon="-8.6253220">
        <ele>65.1</ele>
        <time>2021-05-24T05:41:22Z</time>
      </trkpt>
      <trkpt lat="42.8097290" lon="-8.6253090">
        <ele>65.1</ele>
        <time>2021-05-24T05:41:23Z</time>
      </trkpt>
      <trkpt lat="42.8097340" lon="-8.6252900">
        <ele>65.1</ele>
        <time>2021-05-24T05:41:24Z</time>
      </trkpt>
      <trkpt lat="42.8097400" lon="-8.6252730">
        <ele>65.2</ele>
        <time>2021-05-24T05:41:25Z</time>
      </trkpt>
      <trkpt lat="42.8097480" lon="-8.6252580">
        <ele>65.2</ele>
        <time>2021-05-24T05:41:26Z</time>
      </trkpt>
      <trkpt lat="42.8097580" lon="-8.6252380">
        <ele>65.3</ele>
        <time>2021-05-24T05:41:27Z</time>
      </trkpt>
      <trkpt lat="42.8097610" lon="-8.6252230">
        <ele>65.3</ele>
        <time>2021-05-24T05:41:28Z</time>
      </trkpt>
      <trkpt lat="42.8097660" lon="-8.6252020">
        <ele>65.4</ele>
        <time>2021-05-24T05:41:29Z</time>
      </trkpt>
      <trkpt lat="42.8097780" lon="-8.6251850">
        <ele>65.4</ele>
        <time>2021-05-24T05:41:30Z</time>
      </trkpt>
      <trkpt lat="42.8097800" lon="-8.6251660">
        <ele>65.5</ele>
        <time>2021-05-24T05:41:31Z</time>
      </trkpt>
      <trkpt lat="42.8097860" lon="-8.6251410">
        <ele>65.6</ele>
        <time>2021-05-24T05:41:32Z</time>
      </trkpt>
      <trkpt lat="42.8097850" lon="-8.6251270">
        <ele>65.6</ele>
        <time>2021-05-24T05:41:33Z</time>
      </trkpt>
      <trkpt lat="42.8097850" lon="-8.6251140">
        <ele>65.6</ele>
        <time>2021-05-24T05:41:34Z</time>
      </trkpt>
      <trkpt lat="42.8097910" lon="-8.6250970">
        <ele>65.7</ele>
        <time>2021-05-24T05:41:35Z</time>
      </trkpt>
      <trkpt lat="42.8097990" lon="-8.6250770">
        <ele>65.8</ele>
        <time>2021-05-24T05:41:36Z</time>
      </trkpt>
      <trkpt lat="42.8098080" lon="-8.6250670">
        <ele>65.8</ele>
        <time>2021-05-24T05:41:37Z</time>
      </trkpt>
      <trkpt lat="42.8098130" lon="-8.6250550">
        <ele>65.9</ele>
        <time>2021-05-24T05:41:38Z</time>
      </trkpt>
      <trkpt lat="42.8098150" lon="-8.6250460">
        <ele>65.9</ele>
        <time>2021-05-24T05:41:39Z</time>
      </trkpt>
      <trkpt lat="42.8098150" lon="-8.6250230">
        <ele>66.0</ele>
        <time>2021-05-24T05:41:40Z</time>
      </trkpt>
      <trkpt lat="42.8098270" lon="-8.6250100">
        <ele>66.0</ele>
        <time>2021-05-24T05:41:41Z</time>
      </trkpt>
      <trkpt lat="42.8098360" lon="-8.6249880">
        <ele>66.1</ele>
        <time>2021-05-24T05:41:42Z</time>
      </trkpt>
      <trkpt lat="42.8098420" lon="-8.6249730">
        <ele>66.2</ele>
        <time>2021-05-24T05:41:43Z</time>
      </trkpt>
      <trkpt lat="42.8098500" lon="-8.6249550">
        <ele>66.3</ele>
        <time>2021-05-24T05:41:44Z</time>
      </trkpt>
      <trkpt lat="42.8098560" lon="-8.6249320">
        <ele>66.3</ele>
        <time>2021-05-24T05:41:45Z</time>
      </trkpt>
      <trkpt lat="42.8098650" lon="-8.6249160">
        <ele>66.4</ele>
        <time>2021-05-24T05:41:46Z</time>
      </trkpt>
      <trkpt lat="42.8098690" lon="-8.6249040">
        <ele>66.5</ele>
        <time>2021-05-24T05:41:47Z</time>
      </trkpt>
      <trkpt lat="42.8098780" lon="-8.6248920">
        <ele>66.5</ele>
        <time>2021-05-24T05:41:48Z</time>
      </trkpt>
      <trkpt lat="42.8098850" lon="-8.6248820">
        <ele>66.6</ele>
        <time>2021-05-24T05:41:49Z</time>
      </trkpt>
      <trkpt lat="42.8098910" lon="-8.6248750">
        <ele>66.6</ele>
        <time>2021-05-24T05:41:50Z</time>
      </trkpt>
      <trkpt lat="42.8098970" lon="-8.6248650">
        <ele>66.7</ele>
        <time>2021-05-24T05:41:51Z</time>
      </trkpt>
      <trkpt lat="42.8099040" lon="-8.6248550">
        <ele>66.7</ele>
        <time>2021-05-24T05:41:52Z</time>
      </trkpt>
      <trkpt lat="42.8099090" lon="-8.6248380">
        <ele>66.8</ele>
        <time>2021-05-24T05:41:53Z</time>
      </trkpt>
      <trkpt lat="42.8099150" lon="-8.6248230">
        <ele>66.8</ele>
        <time>2021-05-24T05:41:54Z</time>
      </trkpt>
      <trkpt lat="42.8099270" lon="-8.6247980">
        <ele>67.0</ele>
        <time>2021-05-24T05:41:55Z</time>
      </trkpt>
      <trkpt lat="42.8099310" lon="-8.6247870">
        <ele>67.0</ele>
        <time>2021-05-24T05:41:56Z</time>
      </trkpt>
      <trkpt lat="42.8099350" lon="-8.6247760">
        <ele>67.1</ele>
        <time>2021-05-24T05:41:57Z</time>
      </trkpt>
      <trkpt lat="42.8099530" lon="-8.6247440">
        <ele>67.2</ele>
        <time>2021-05-24T05:41:58Z</time>
      </trkpt>
      <trkpt lat="42.8099590" lon="-8.6247360">
        <ele>67.3</ele>
        <time>2021-05-24T05:41:59Z</time>
      </trkpt>
      <trkpt lat="42.8099750" lon="-8.6247160">
        <ele>67.4</ele>
        <time>2021-05-24T05:42:00Z</time>
      </trkpt>
      <trkpt lat="42.8099800" lon="-8.6247090">
        <ele>67.4</ele>
        <time>2021-05-24T05:42:01Z</time>
      </trkpt>
      <trkpt lat="42.8099860" lon="-8.6247020">
        <ele>67.5</ele>
        <time>2021-05-24T05:42:02Z</time>
      </trkpt>
      <trkpt lat="42.8100000" lon="-8.6246900">
        <ele>67.6</ele>
        <time>2021-05-24T05:42:03Z</time>
      </trkpt>
      <trkpt lat="42.8100080" lon="-8.6246700">
        <ele>67.7</ele>
        <time>2021-05-24T05:42:04Z</time>
      </trkpt>
      <trkpt lat="42.8100130" lon="-8.6246600">
        <ele>67.7</ele>
        <time>2021-05-24T05:42:05Z</time>
      </trkpt>
      <trkpt lat="42.8100230" lon="-8.6246450">
        <ele>67.8</ele>
        <time>2021-05-24T05:42:06Z</time>
      </trkpt>
      <trkpt lat="42.8100250" lon="-8.6246280">
        <ele>67.9</ele>
        <time>2021-05-24T05:42:07Z</time>
      </trkpt>
      <trkpt lat="42.8100320" lon="-8.6246140">
        <ele>68.0</ele>
        <time>2021-05-24T05:42:08Z</time>
      </trkpt>
      <trkpt lat="42.8100400" lon="-8.6246090">
        <ele>68.0</ele>
        <time>2021-05-24T05:42:09Z</time>
      </trkpt>
      <trkpt lat="42.8100480" lon="-8.6245940">
        <ele>68.1</ele>
        <time>2021-05-24T05:42:10Z</time>
      </trkpt>
      <trkpt lat="42.8100550" lon="-8.6245780">
        <ele>68.1</ele>
        <time>2021-05-24T05:42:11Z</time>
      </trkpt>
      <trkpt lat="42.8100650" lon="-8.6245660">
        <ele>68.2</ele>
        <time>2021-05-24T05:42:12Z</time>
      </trkpt>
      <trkpt lat="42.8100720" lon="-8.6245570">
        <ele>68.2</ele>
        <time>2021-05-24T05:42:13Z</time>
      </trkpt>
      <trkpt lat="42.8100800" lon="-8.6245420">
        <ele>68.3</ele>
        <time>2021-05-24T05:42:14Z</time>
      </trkpt>
      <trkpt lat="42.8100880" lon="-8.6245280">
        <ele>68.3</ele>
        <time>2021-05-24T05:42:15Z</time>
      </trkpt>
      <trkpt lat="42.8100970" lon="-8.6245170">
        <ele>68.3</ele>
        <time>2021-05-24T05:42:16Z</time>
      </trkpt>
      <trkpt lat="42.8101060" lon="-8.6245090">
        <ele>68.4</ele>
        <time>2021-05-24T05:42:17Z</time>
      </trkpt>
      <trkpt lat="42.8101120" lon="-8.6244940">
        <ele>68.4</ele>
        <time>2021-05-24T05:42:18Z</time>
      </trkpt>
      <trkpt lat="42.8101230" lon="-8.6244730">
        <ele>68.5</ele>
        <time>2021-05-24T05:42:19Z</time>
      </trkpt>
      <trkpt lat="42.8101280" lon="-8.6244630">
        <ele>68.5</ele>
        <time>2021-05-24T05:42:20Z</time>
      </trkpt>
      <trkpt lat="42.8101330" lon="-8.6244530">
        <ele>68.5</ele>
        <time>2021-05-24T05:42:21Z</time>
      </trkpt>
      <trkpt lat="42.8101350" lon="-8.6244380">
        <ele>68.6</ele>
        <time>2021-05-24T05:42:22Z</time>
      </trkpt>
      <trkpt lat="42.8101430" lon="-8.6244280">
        <ele>68.6</ele>
        <time>2021-05-24T05:42:23Z</time>
      </trkpt>
      <trkpt lat="42.8101560" lon="-8.6244200">
        <ele>68.6</ele>
        <time>2021-05-24T05:42:24Z</time>
      </trkpt>
      <trkpt lat="42.8101630" lon="-8.6244000">
        <ele>68.7</ele>
        <time>2021-05-24T05:42:25Z</time>
      </trkpt>
      <trkpt lat="42.8101740" lon="-8.6243900">
        <ele>68.7</ele>
        <time>2021-05-24T05:42:26Z</time>
      </trkpt>
      <trkpt lat="42.8101850" lon="-8.6243780">
        <ele>68.8</ele>
        <time>2021-05-24T05:42:27Z</time>
      </trkpt>
      <trkpt lat="42.8101930" lon="-8.6243730">
        <ele>68.8</ele>
        <time>2021-05-24T05:42:28Z</time>
      </trkpt>
      <trkpt lat="42.8102060" lon="-8.6243660">
        <ele>68.7</ele>
        <time>2021-05-24T05:42:29Z</time>
      </trkpt>
      <trkpt lat="42.8102180" lon="-8.6243640">
        <ele>68.7</ele>
        <time>2021-05-24T05:42:30Z</time>
      </trkpt>
      <trkpt lat="42.8102310" lon="-8.6243670">
        <ele>68.7</ele>
        <time>2021-05-24T05:42:31Z</time>
      </trkpt>
      <trkpt lat="42.8102330" lon="-8.6243630">
        <ele>68.7</ele>
        <time>2021-05-24T05:42:32Z</time>
      </trkpt>
      <trkpt lat="42.8102420" lon="-8.6243540">
        <ele>68.7</ele>
        <time>2021-05-24T05:42:33Z</time>
      </trkpt>
      <trkpt lat="42.8102510" lon="-8.6243520">
        <ele>68.7</ele>
        <time>2021-05-24T05:42:34Z</time>
      </trkpt>
      <trkpt lat="42.8102600" lon="-8.6243600">
        <ele>68.6</ele>
        <time>2021-05-24T05:42:35Z</time>
      </trkpt>
      <trkpt lat="42.8102640" lon="-8.6243620">
        <ele>68.6</ele>
        <time>2021-05-24T05:42:36Z</time>
      </trkpt>
      <trkpt lat="42.8102680" lon="-8.6243640">
        <ele>68.6</ele>
        <time>2021-05-24T05:42:37Z</time>
      </trkpt>
      <trkpt lat="42.8102720" lon="-8.6243650">
        <ele>68.6</ele>
        <time>2021-05-24T05:42:38Z</time>
      </trkpt>
      <trkpt lat="42.8102750" lon="-8.6243660">
        <ele>68.6</ele>
        <time>2021-05-24T05:42:39Z</time>
      </trkpt>
      <trkpt lat="42.8102780" lon="-8.6243670">
        <ele>68.6</ele>
        <time>2021-05-24T05:42:40Z</time>
      </trkpt>
      <trkpt lat="42.8102820" lon="-8.6243680">
        <ele>68.6</ele>
        <time>2021-05-24T05:42:41Z</time>
      </trkpt>
      <trkpt lat="42.8102850" lon="-8.6243690">
        <ele>68.6</ele>
        <time>2021-05-24T05:42:42Z</time>
      </trkpt>
      <trkpt lat="42.8102890" lon="-8.6243700">
        <ele>68.5</ele>
        <time>2021-05-24T05:42:43Z</time>
      </trkpt>
      <trkpt lat="42.8102920" lon="-8.6243710">
        <ele>68.5</ele>
        <time>2021-05-24T05:42:44Z</time>
      </trkpt>
      <trkpt lat="42.8102950" lon="-8.6243720">
        <ele>68.5</ele>
        <time>2021-05-24T05:42:45Z</time>
      </trkpt>
      <trkpt lat="42.8102990" lon="-8.6243730">
        <ele>68.5</ele>
        <time>2021-05-24T05:42:46Z</time>
      </trkpt>
      <trkpt lat="42.8103020" lon="-8.6243740">
        <ele>68.5</ele>
        <time>2021-05-24T05:42:47Z</time>
      </trkpt>
      <trkpt lat="42.8103070" lon="-8.6243750">
        <ele>68.5</ele>
        <time>2021-05-24T05:42:48Z</time>
      </trkpt>
      <trkpt lat="42.8103110" lon="-8.6243790">
        <ele>68.5</ele>
        <time>2021-05-24T05:42:49Z</time>
      </trkpt>
      <trkpt lat="42.8103120" lon="-8.6243800">
        <ele>68.4</ele>
        <time>2021-05-24T05:42:50Z</time>
      </trkpt>
      <trkpt lat="42.8103240" lon="-8.6243710">
        <ele>68.4</ele>
        <time>2021-05-24T05:42:51Z</time>
      </trkpt>
      <trkpt lat="42.8103130" lon="-8.6243800">
        <ele>68.3</ele>
        <time>2021-05-24T05:42:52Z</time>
      </trkpt>
      <trkpt lat="42.8103140" lon="-8.6243830">
        <ele>68.3</ele>
        <time>2021-05-24T05:42:53Z</time>
      </trkpt>
      <trkpt lat="42.8103130" lon="-8.6243850">
        <ele>68.3</ele>
        <time>2021-05-24T05:42:54Z</time>
      </trkpt>
      <trkpt lat="42.8103200" lon="-8.6243850">
        <ele>68.3</ele>
        <time>2021-05-24T05:42:55Z</time>
      </trkpt>
      <trkpt lat="42.8103260" lon="-8.6243790">
        <ele>68.2</ele>
        <time>2021-05-24T05:42:56Z</time>
      </trkpt>
      <trkpt lat="42.8103300" lon="-8.6243790">
        <ele>68.2</ele>
        <time>2021-05-24T05:42:57Z</time>
      </trkpt>
      <trkpt lat="42.8103340" lon="-8.6243740">
        <ele>68.2</ele>
        <time>2021-05-24T05:42:58Z</time>
      </trkpt>
      <trkpt lat="42.8103280" lon="-8.6243770">
        <ele>68.1</ele>
        <time>2021-05-24T05:42:59Z</time>
      </trkpt>
      <trkpt lat="42.8103320" lon="-8.6243730">
        <ele>68.1</ele>
        <time>2021-05-24T05:43:00Z</time>
      </trkpt>
      <trkpt lat="42.8103350" lon="-8.6243700">
        <ele>68.1</ele>
        <time>2021-05-24T05:43:01Z</time>
      </trkpt>
      <trkpt lat="42.8103360" lon="-8.6243750">
        <ele>68.1</ele>
        <time>2021-05-24T05:43:02Z</time>
      </trkpt>
      <trkpt lat="42.8103330" lon="-8.6243820">
        <ele>68.0</ele>
        <time>2021-05-24T05:43:03Z</time>
      </trkpt>
      <trkpt lat="42.8103260" lon="-8.6243870">
        <ele>68.0</ele>
        <time>2021-05-24T05:43:04Z</time>
      </trkpt>
      <trkpt lat="42.8103230" lon="-8.6243920">
        <ele>67.9</ele>
        <time>2021-05-24T05:43:05Z</time>
      </trkpt>
      <trkpt lat="42.8103200" lon="-8.6243980">
        <ele>67.9</ele>
        <time>2021-05-24T05:43:06Z</time>
      </trkpt>
      <trkpt lat="42.8103220" lon="-8.6243950">
        <ele>67.9</ele>
        <time>2021-05-24T05:43:07Z</time>
      </trkpt>
      <trkpt lat="42.8103230" lon="-8.6243970">
        <ele>67.9</ele>
        <time>2021-05-24T05:43:08Z</time>
      </trkpt>
      <trkpt lat="42.8103220" lon="-8.6243960">
        <ele>67.9</ele>
        <time>2021-05-24T05:43:09Z</time>
      </trkpt>
      <trkpt lat="42.8103280" lon="-8.6243900">
        <ele>67.8</ele>
        <time>2021-05-24T05:43:10Z</time>
      </trkpt>
      <trkpt lat="42.8103270" lon="-8.6243920">
        <ele>67.8</ele>
        <time>2021-05-24T05:43:11Z</time>
      </trkpt>
      <trkpt lat="42.8103260" lon="-8.6243900">
        <ele>67.8</ele>
        <time>2021-05-24T05:43:12Z</time>
      </trkpt>
      <trkpt lat="42.8103280" lon="-8.6243890">
        <ele>67.8</ele>
        <time>2021-05-24T05:43:13Z</time>
      </trkpt>
      <trkpt lat="42.8103310" lon="-8.6243900">
        <ele>67.8</ele>
        <time>2021-05-24T05:43:14Z</time>
      </trkpt>
      <trkpt lat="42.8103290" lon="-8.6243870">
        <ele>67.7</ele>
        <time>2021-05-24T05:43:15Z</time>
      </trkpt>
      <trkpt lat="42.8103350" lon="-8.6243870">
        <ele>67.7</ele>
        <time>2021-05-24T05:43:16Z</time>
      </trkpt>
      <trkpt lat="42.8103310" lon="-8.6243890">
        <ele>67.7</ele>
        <time>2021-05-24T05:43:17Z</time>
      </trkpt>
      <trkpt lat="42.8103340" lon="-8.6243920">
        <ele>67.7</ele>
        <time>2021-05-24T05:43:18Z</time>
      </trkpt>
      <trkpt lat="42.8103430" lon="-8.6243870">
        <ele>67.6</ele>
        <time>2021-05-24T05:43:19Z</time>
      </trkpt>
      <trkpt lat="42.8103490" lon="-8.6243890">
        <ele>67.6</ele>
        <time>2021-05-24T05:43:20Z</time>
      </trkpt>
      <trkpt lat="42.8103540" lon="-8.6243870">
        <ele>67.5</ele>
        <time>2021-05-24T05:43:21Z</time>
      </trkpt>
      <trkpt lat="42.8103630" lon="-8.6243840">
        <ele>67.5</ele>
        <time>2021-05-24T05:43:22Z</time>
      </trkpt>
      <trkpt lat="42.8103690" lon="-8.6243790">
        <ele>67.4</ele>
        <time>2021-05-24T05:43:23Z</time>
      </trkpt>
      <trkpt lat="42.8103770" lon="-8.6243780">
        <ele>67.4</ele>
        <time>2021-05-24T05:43:24Z</time>
      </trkpt>
      <trkpt lat="42.8103820" lon="-8.6243740">
        <ele>67.3</ele>
        <time>2021-05-24T05:43:25Z</time>
      </trkpt>
      <trkpt lat="42.8103860" lon="-8.6243740">
        <ele>67.3</ele>
        <time>2021-05-24T05:43:26Z</time>
      </trkpt>
      <trkpt lat="42.8103910" lon="-8.6243640">
        <ele>67.3</ele>
        <time>2021-05-24T05:43:27Z</time>
      </trkpt>
      <trkpt lat="42.8104090" lon="-8.6243550">
        <ele>67.2</ele>
        <time>2021-05-24T05:43:28Z</time>
      </trkpt>
      <trkpt lat="42.8104230" lon="-8.6243400">
        <ele>67.1</ele>
        <time>2021-05-24T05:43:29Z</time>
      </trkpt>
      <trkpt lat="42.8104210" lon="-8.6243270">
        <ele>67.0</ele>
        <time>2021-05-24T05:43:30Z</time>
      </trkpt>
      <trkpt lat="42.8104220" lon="-8.6243170">
        <ele>67.0</ele>
        <time>2021-05-24T05:43:31Z</time>
      </trkpt>
      <trkpt lat="42.8104350" lon="-8.6243000">
        <ele>66.9</ele>
        <time>2021-05-24T05:43:32Z</time>
      </trkpt>
      <trkpt lat="42.8104490" lon="-8.6242740">
        <ele>66.7</ele>
        <time>2021-05-24T05:43:33Z</time>
      </trkpt>
      <trkpt lat="42.8104630" lon="-8.6242680">
        <ele>66.7</ele>
        <time>2021-05-24T05:43:34Z</time>
      </trkpt>
      <trkpt lat="42.8104820" lon="-8.6242620">
        <ele>66.6</ele>
        <time>2021-05-24T05:43:35Z</time>
      </trkpt>
      <trkpt lat="42.8104960" lon="-8.6242520">
        <ele>66.5</ele>
        <time>2021-05-24T05:43:36Z</time>
      </trkpt>
      <trkpt lat="42.8105120" lon="-8.6242370">
        <ele>66.4</ele>
        <time>2021-05-24T05:43:37Z</time>
      </trkpt>
      <trkpt lat="42.8105250" lon="-8.6242300">
        <ele>66.4</ele>
        <time>2021-05-24T05:43:38Z</time>
      </trkpt>
      <trkpt lat="42.8105290" lon="-8.6242170">
        <ele>66.3</ele>
        <time>2021-05-24T05:43:39Z</time>
      </trkpt>
      <trkpt lat="42.8105380" lon="-8.6242090">
        <ele>66.3</ele>
        <time>2021-05-24T05:43:40Z</time>
      </trkpt>
      <trkpt lat="42.8105520" lon="-8.6241980">
        <ele>66.2</ele>
        <time>2021-05-24T05:43:41Z</time>
      </trkpt>
      <trkpt lat="42.8105720" lon="-8.6241880">
        <ele>66.1</ele>
        <time>2021-05-24T05:43:42Z</time>
      </trkpt>
      <trkpt lat="42.8105750" lon="-8.6241800">
        <ele>66.1</ele>
        <time>2021-05-24T05:43:43Z</time>
      </trkpt>
      <trkpt lat="42.8105890" lon="-8.6241740">
        <ele>66.1</ele>
        <time>2021-05-24T05:43:44Z</time>
      </trkpt>
      <trkpt lat="42.8106020" lon="-8.6241620">
        <ele>66.0</ele>
        <time>2021-05-24T05:43:45Z</time>
      </trkpt>
      <trkpt lat="42.8106290" lon="-8.6241550">
        <ele>65.9</ele>
        <time>2021-05-24T05:43:46Z</time>
      </trkpt>
      <trkpt lat="42.8106390" lon="-8.6241500">
        <ele>65.9</ele>
        <time>2021-05-24T05:43:47Z</time>
      </trkpt>
      <trkpt lat="42.8106500" lon="-8.6241410">
        <ele>65.9</ele>
        <time>2021-05-24T05:43:48Z</time>
      </trkpt>
      <trkpt lat="42.8106580" lon="-8.6241290">
        <ele>65.9</ele>
        <time>2021-05-24T05:43:49Z</time>
      </trkpt>
      <trkpt lat="42.8106670" lon="-8.6241250">
        <ele>65.8</ele>
        <time>2021-05-24T05:43:50Z</time>
      </trkpt>
      <trkpt lat="42.8106790" lon="-8.6241290">
        <ele>65.8</ele>
        <time>2021-05-24T05:43:51Z</time>
      </trkpt>
      <trkpt lat="42.8106960" lon="-8.6241240">
        <ele>65.8</ele>
        <time>2021-05-24T05:43:52Z</time>
      </trkpt>
      <trkpt lat="42.8107130" lon="-8.6241030">
        <ele>65.7</ele>
        <time>2021-05-24T05:43:53Z</time>
      </trkpt>
      <trkpt lat="42.8107220" lon="-8.6240980">
        <ele>65.7</ele>
        <time>2021-05-24T05:43:54Z</time>
      </trkpt>
      <trkpt lat="42.8107320" lon="-8.6240920">
        <ele>65.7</ele>
        <time>2021-05-24T05:43:55Z</time>
      </trkpt>
      <trkpt lat="42.8107470" lon="-8.6240850">
        <ele>65.7</ele>
        <time>2021-05-24T05:43:56Z</time>
      </trkpt>
      <trkpt lat="42.8107600" lon="-8.6240870">
        <ele>65.7</ele>
        <time>2021-05-24T05:43:57Z</time>
      </trkpt>
      <trkpt lat="42.8107800" lon="-8.6240770">
        <ele>65.7</ele>
        <time>2021-05-24T05:43:58Z</time>
      </trkpt>
      <trkpt lat="42.8107870" lon="-8.6240730">
        <ele>65.7</ele>
        <time>2021-05-24T05:43:59Z</time>
      </trkpt>
      <trkpt lat="42.8107940" lon="-8.6240680">
        <ele>65.7</ele>
        <time>2021-05-24T05:44:00Z</time>
      </trkpt>
      <trkpt lat="42.8108070" lon="-8.6240580">
        <ele>65.7</ele>
        <time>2021-05-24T05:44:01Z</time>
      </trkpt>
      <trkpt lat="42.8108110" lon="-8.6240520">
        <ele>65.7</ele>
        <time>2021-05-24T05:44:02Z</time>
      </trkpt>
      <trkpt lat="42.8108200" lon="-8.6240530">
        <ele>65.7</ele>
        <time>2021-05-24T05:44:03Z</time>
      </trkpt>
      <trkpt lat="42.8108290" lon="-8.6240440">
        <ele>65.7</ele>
        <time>2021-05-24T05:44:04Z</time>
      </trkpt>
      <trkpt lat="42.8108370" lon="-8.6240380">
        <ele>65.7</ele>
        <time>2021-05-24T05:44:05Z</time>
      </trkpt>
      <trkpt lat="42.8108450" lon="-8.6240380">
        <ele>65.7</ele>
        <time>2021-05-24T05:44:06Z</time>
      </trkpt>
      <trkpt lat="42.8108540" lon="-8.6240340">
        <ele>65.7</ele>
        <time>2021-05-24T05:44:07Z</time>
      </trkpt>
      <trkpt lat="42.8108670" lon="-8.6240240">
        <ele>65.7</ele>
        <time>2021-05-24T05:44:08Z</time>
      </trkpt>
      <trkpt lat="42.8108750" lon="-8.6240140">
        <ele>65.8</ele>
        <time>2021-05-24T05:44:09Z</time>
      </trkpt>
      <trkpt lat="42.8108910" lon="-8.6240000">
        <ele>65.8</ele>
        <time>2021-05-24T05:44:10Z</time>
      </trkpt>
      <trkpt lat="42.8109010" lon="-8.6239940">
        <ele>65.8</ele>
        <time>2021-05-24T05:44:11Z</time>
      </trkpt>
      <trkpt lat="42.8109100" lon="-8.6239890">
        <ele>65.8</ele>
        <time>2021-05-24T05:44:12Z</time>
      </trkpt>
      <trkpt lat="42.8109230" lon="-8.6239740">
        <ele>65.9</ele>
        <time>2021-05-24T05:44:13Z</time>
      </trkpt>
      <trkpt lat="42.8109290" lon="-8.6239670">
        <ele>65.9</ele>
        <time>2021-05-24T05:44:14Z</time>
      </trkpt>
      <trkpt lat="42.8109340" lon="-8.6239600">
        <ele>65.9</ele>
        <time>2021-05-24T05:44:15Z</time>
      </trkpt>
      <trkpt lat="42.8109400" lon="-8.6239530">
        <ele>65.9</ele>
        <time>2021-05-24T05:44:16Z</time>
      </trkpt>
      <trkpt lat="42.8109490" lon="-8.6239450">
        <ele>66.0</ele>
        <time>2021-05-24T05:44:17Z</time>
      </trkpt>
      <trkpt lat="42.8109590" lon="-8.6239310">
        <ele>66.0</ele>
        <time>2021-05-24T05:44:18Z</time>
      </trkpt>
      <trkpt lat="42.8109670" lon="-8.6239220">
        <ele>66.0</ele>
        <time>2021-05-24T05:44:19Z</time>
      </trkpt>
      <trkpt lat="42.8109810" lon="-8.6239020">
        <ele>66.1</ele>
        <time>2021-05-24T05:44:20Z</time>
      </trkpt>
      <trkpt lat="42.8109880" lon="-8.6238920">
        <ele>66.1</ele>
        <time>2021-05-24T05:44:21Z</time>
      </trkpt>
      <trkpt lat="42.8109940" lon="-8.6238830">
        <ele>66.2</ele>
        <time>2021-05-24T05:44:22Z</time>
      </trkpt>
      <trkpt lat="42.8110160" lon="-8.6238760">
        <ele>66.2</ele>
        <time>2021-05-24T05:44:23Z</time>
      </trkpt>
      <trkpt lat="42.8110250" lon="-8.6238710">
        <ele>66.3</ele>
        <time>2021-05-24T05:44:24Z</time>
      </trkpt>
      <trkpt lat="42.8110330" lon="-8.6238660">
        <ele>66.3</ele>
        <time>2021-05-24T05:44:25Z</time>
      </trkpt>
      <trkpt lat="42.8110420" lon="-8.6238620">
        <ele>66.4</ele>
        <time>2021-05-24T05:44:26Z</time>
      </trkpt>
      <trkpt lat="42.8110510" lon="-8.6238560">
        <ele>66.4</ele>
        <time>2021-05-24T05:44:27Z</time>
      </trkpt>
      <trkpt lat="42.8110620" lon="-8.6238430">
        <ele>66.5</ele>
        <time>2021-05-24T05:44:28Z</time>
      </trkpt>
      <trkpt lat="42.8110690" lon="-8.6238410">
        <ele>66.5</ele>
        <time>2021-05-24T05:44:29Z</time>
      </trkpt>
      <trkpt lat="42.8110780" lon="-8.6238320">
        <ele>66.6</ele>
        <time>2021-05-24T05:44:30Z</time>
      </trkpt>
      <trkpt lat="42.8110890" lon="-8.6238280">
        <ele>66.6</ele>
        <time>2021-05-24T05:44:31Z</time>
      </trkpt>
      <trkpt lat="42.8111180" lon="-8.6238150">
        <ele>66.8</ele>
        <time>2021-05-24T05:44:32Z</time>
      </trkpt>
      <trkpt lat="42.8111230" lon="-8.6238110">
        <ele>66.8</ele>
        <time>2021-05-24T05:44:33Z</time>
      </trkpt>
      <trkpt lat="42.8111280" lon="-8.6238000">
        <ele>66.9</ele>
        <time>2021-05-24T05:44:34Z</time>
      </trkpt>
      <trkpt lat="42.8111410" lon="-8.6237980">
        <ele>67.0</ele>
        <time>2021-05-24T05:44:35Z</time>
      </trkpt>
      <trkpt lat="42.8111460" lon="-8.6237900">
        <ele>67.0</ele>
        <time>2021-05-24T05:44:36Z</time>
      </trkpt>
      <trkpt lat="42.8111530" lon="-8.6237780">
        <ele>67.1</ele>
        <time>2021-05-24T05:44:37Z</time>
      </trkpt>
      <trkpt lat="42.8111650" lon="-8.6237670">
        <ele>67.2</ele>
        <time>2021-05-24T05:44:38Z</time>
      </trkpt>
      <trkpt lat="42.8111720" lon="-8.6237630">
        <ele>67.2</ele>
        <time>2021-05-24T05:44:39Z</time>
      </trkpt>
      <trkpt lat="42.8111920" lon="-8.6237540">
        <ele>67.4</ele>
        <time>2021-05-24T05:44:40Z</time>
      </trkpt>
      <trkpt lat="42.8112020" lon="-8.6237460">
        <ele>67.5</ele>
        <time>2021-05-24T05:44:41Z</time>
      </trkpt>
      <trkpt lat="42.8112160" lon="-8.6237350">
        <ele>67.6</ele>
        <time>2021-05-24T05:44:42Z</time>
      </trkpt>
      <trkpt lat="42.8112300" lon="-8.6237320">
        <ele>67.8</ele>
        <time>2021-05-24T05:44:43Z</time>
      </trkpt>
      <trkpt lat="42.8112410" lon="-8.6237270">
        <ele>67.9</ele>
        <time>2021-05-24T05:44:44Z</time>
      </trkpt>
      <trkpt lat="42.8112520" lon="-8.6237250">
        <ele>68.0</ele>
        <time>2021-05-24T05:44:45Z</time>
      </trkpt>
      <trkpt lat="42.8112550" lon="-8.6237210">
        <ele>68.0</ele>
        <time>2021-05-24T05:44:46Z</time>
      </trkpt>
      <trkpt lat="42.8112600" lon="-8.6237200">
        <ele>68.1</ele>
        <time>2021-05-24T05:44:47Z</time>
      </trkpt>
      <trkpt lat="42.8112710" lon="-8.6237190">
        <ele>68.2</ele>
        <time>2021-05-24T05:44:48Z</time>
      </trkpt>
      <trkpt lat="42.8112840" lon="-8.6237090">
        <ele>68.3</ele>
        <time>2021-05-24T05:44:49Z</time>
      </trkpt>
      <trkpt lat="42.8112900" lon="-8.6237050">
        <ele>68.4</ele>
        <time>2021-05-24T05:44:50Z</time>
      </trkpt>
      <trkpt lat="42.8113000" lon="-8.6236970">
        <ele>68.5</ele>
        <time>2021-05-24T05:44:51Z</time>
      </trkpt>
      <trkpt lat="42.8113050" lon="-8.6236920">
        <ele>68.6</ele>
        <time>2021-05-24T05:44:52Z</time>
      </trkpt>
      <trkpt lat="42.8113140" lon="-8.6236840">
        <ele>68.7</ele>
        <time>2021-05-24T05:44:53Z</time>
      </trkpt>
      <trkpt lat="42.8113430" lon="-8.6236690">
        <ele>69.0</ele>
        <time>2021-05-24T05:44:54Z</time>
      </trkpt>
      <trkpt lat="42.8113490" lon="-8.6236680">
        <ele>69.1</ele>
        <time>2021-05-24T05:44:55Z</time>
      </trkpt>
      <trkpt lat="42.8113620" lon="-8.6236570">
        <ele>69.3</ele>
        <time>2021-05-24T05:44:56Z</time>
      </trkpt>
      <trkpt lat="42.8113730" lon="-8.6236460">
        <ele>69.4</ele>
        <time>2021-05-24T05:44:57Z</time>
      </trkpt>
      <trkpt lat="42.8113800" lon="-8.6236340">
        <ele>69.6</ele>
        <time>2021-05-24T05:44:58Z</time>
      </trkpt>
      <trkpt lat="42.8113930" lon="-8.6236260">
        <ele>69.7</ele>
        <time>2021-05-24T05:44:59Z</time>
      </trkpt>
      <trkpt lat="42.8114040" lon="-8.6236220">
        <ele>69.9</ele>
        <time>2021-05-24T05:45:00Z</time>
      </trkpt>
      <trkpt lat="42.8114140" lon="-8.6236120">
        <ele>70.0</ele>
        <time>2021-05-24T05:45:01Z</time>
      </trkpt>
      <trkpt lat="42.8114220" lon="-8.6236060">
        <ele>70.1</ele>
        <time>2021-05-24T05:45:02Z</time>
      </trkpt>
      <trkpt lat="42.8114290" lon="-8.6235920">
        <ele>70.3</ele>
        <time>2021-05-24T05:45:03Z</time>
      </trkpt>
      <trkpt lat="42.8114370" lon="-8.6235820">
        <ele>70.4</ele>
        <time>2021-05-24T05:45:04Z</time>
      </trkpt>
      <trkpt lat="42.8114450" lon="-8.6235700">
        <ele>70.6</ele>
        <time>2021-05-24T05:45:05Z</time>
      </trkpt>
      <trkpt lat="42.8114560" lon="-8.6235660">
        <ele>70.7</ele>
        <time>2021-05-24T05:45:06Z</time>
      </trkpt>
      <trkpt lat="42.8114480" lon="-8.6235750">
        <ele>70.8</ele>
        <time>2021-05-24T05:45:07Z</time>
      </trkpt>
      <trkpt lat="42.8114530" lon="-8.6235680">
        <ele>70.9</ele>
        <time>2021-05-24T05:45:08Z</time>
      </trkpt>
      <trkpt lat="42.8114580" lon="-8.6235620">
        <ele>71.0</ele>
        <time>2021-05-24T05:45:09Z</time>
      </trkpt>
      <trkpt lat="42.8114590" lon="-8.6235590">
        <ele>71.1</ele>
        <time>2021-05-24T05:45:10Z</time>
      </trkpt>
      <trkpt lat="42.8114620" lon="-8.6235540">
        <ele>71.1</ele>
        <time>2021-05-24T05:45:11Z</time>
      </trkpt>
      <trkpt lat="42.8114690" lon="-8.6235390">
        <ele>71.3</ele>
        <time>2021-05-24T05:45:12Z</time>
      </trkpt>
      <trkpt lat="42.8114680" lon="-8.6235300">
        <ele>71.4</ele>
        <time>2021-05-24T05:45:13Z</time>
      </trkpt>
      <trkpt lat="42.8114740" lon="-8.6235100">
        <ele>71.6</ele>
        <time>2021-05-24T05:45:14Z</time>
      </trkpt>
      <trkpt lat="42.8114800" lon="-8.6234970">
        <ele>71.7</ele>
        <time>2021-05-24T05:45:15Z</time>
      </trkpt>
      <trkpt lat="42.8114870" lon="-8.6234920">
        <ele>71.8</ele>
        <time>2021-05-24T05:45:16Z</time>
      </trkpt>
      <trkpt lat="42.8114970" lon="-8.6234780">
        <ele>72.0</ele>
        <time>2021-05-24T05:45:17Z</time>
      </trkpt>
      <trkpt lat="42.8115040" lon="-8.6234680">
        <ele>72.1</ele>
        <time>2021-05-24T05:45:18Z</time>
      </trkpt>
      <trkpt lat="42.8115060" lon="-8.6234500">
        <ele>72.3</ele>
        <time>2021-05-24T05:45:19Z</time>
      </trkpt>
      <trkpt lat="42.8115120" lon="-8.6234330">
        <ele>72.4</ele>
        <time>2021-05-24T05:45:20Z</time>
      </trkpt>
      <trkpt lat="42.8115240" lon="-8.6234200">
        <ele>72.6</ele>
        <time>2021-05-24T05:45:21Z</time>
      </trkpt>
      <trkpt lat="42.8115270" lon="-8.6234060">
        <ele>72.7</ele>
        <time>2021-05-24T05:45:22Z</time>
      </trkpt>
      <trkpt lat="42.8115300" lon="-8.6233920">
        <ele>72.9</ele>
        <time>2021-05-24T05:45:23Z</time>
      </trkpt>
      <trkpt lat="42.8115350" lon="-8.6233740">
        <ele>73.0</ele>
        <time>2021-05-24T05:45:24Z</time>
      </trkpt>
      <trkpt lat="42.8115400" lon="-8.6233480">
        <ele>73.2</ele>
        <time>2021-05-24T05:45:25Z</time>
      </trkpt>
      <trkpt lat="42.8115450" lon="-8.6233390">
        <ele>73.3</ele>
        <time>2021-05-24T05:45:26Z</time>
      </trkpt>
      <trkpt lat="42.8115510" lon="-8.6233290">
        <ele>73.4</ele>
        <time>2021-05-24T05:45:27Z</time>
      </trkpt>
      <trkpt lat="42.8115570" lon="-8.6233100">
        <ele>73.6</ele>
        <time>2021-05-24T05:45:28Z</time>
      </trkpt>
      <trkpt lat="42.8115550" lon="-8.6233000">
        <ele>73.7</ele>
        <time>2021-05-24T05:45:29Z</time>
      </trkpt>
      <trkpt lat="42.8115590" lon="-8.6232820">
        <ele>73.8</ele>
        <time>2021-05-24T05:45:30Z</time>
      </trkpt>
      <trkpt lat="42.8115640" lon="-8.6232750">
        <ele>73.9</ele>
        <time>2021-05-24T05:45:31Z</time>
      </trkpt>
      <trkpt lat="42.8115810" lon="-8.6232670">
        <ele>74.1</ele>
        <time>2021-05-24T05:45:32Z</time>
      </trkpt>
      <trkpt lat="42.8115840" lon="-8.6232510">
        <ele>74.3</ele>
        <time>2021-05-24T05:45:33Z</time>
      </trkpt>
      <trkpt lat="42.8115850" lon="-8.6232360">
        <ele>74.4</ele>
        <time>2021-05-24T05:45:34Z</time>
      </trkpt>
      <trkpt lat="42.8115910" lon="-8.6232160">
        <ele>74.6</ele>
        <time>2021-05-24T05:45:35Z</time>
      </trkpt>
      <trkpt lat="42.8115930" lon="-8.6232030">
        <ele>74.7</ele>
        <time>2021-05-24T05:45:36Z</time>
      </trkpt>
      <trkpt lat="42.8116020" lon="-8.6231940">
        <ele>74.8</ele>
        <time>2021-05-24T05:45:37Z</time>
      </trkpt>
      <trkpt lat="42.8116070" lon="-8.6231760">
        <ele>75.0</ele>
        <time>2021-05-24T05:45:38Z</time>
      </trkpt>
      <trkpt lat="42.8116080" lon="-8.6231660">
        <ele>75.0</ele>
        <time>2021-05-24T05:45:39Z</time>
      </trkpt>
      <trkpt lat="42.8116170" lon="-8.6231520">
        <ele>75.2</ele>
        <time>2021-05-24T05:45:40Z</time>
      </trkpt>
      <trkpt lat="42.8116170" lon="-8.6231350">
        <ele>75.3</ele>
        <time>2021-05-24T05:45:41Z</time>
      </trkpt>
      <trkpt lat="42.8116230" lon="-8.6231100">
        <ele>75.5</ele>
        <time>2021-05-24T05:45:42Z</time>
      </trkpt>
      <trkpt lat="42.8116280" lon="-8.6231020">
        <ele>75.6</ele>
        <time>2021-05-24T05:45:43Z</time>
      </trkpt>
      <trkpt lat="42.8116320" lon="-8.6230970">
        <ele>75.7</ele>
        <time>2021-05-24T05:45:44Z</time>
      </trkpt>
      <trkpt lat="42.8116340" lon="-8.6230850">
        <ele>75.8</ele>
        <time>2021-05-24T05:45:45Z</time>
      </trkpt>
      <trkpt lat="42.8116370" lon="-8.6230750">
        <ele>75.9</ele>
        <time>2021-05-24T05:45:46Z</time>
      </trkpt>
      <trkpt lat="42.8116430" lon="-8.6230520">
        <ele>76.1</ele>
        <time>2021-05-24T05:45:47Z</time>
      </trkpt>
      <trkpt lat="42.8116540" lon="-8.6230270">
        <ele>76.3</ele>
        <time>2021-05-24T05:45:48Z</time>
      </trkpt>
      <trkpt lat="42.8116590" lon="-8.6230220">
        <ele>76.4</ele>
        <time>2021-05-24T05:45:49Z</time>
      </trkpt>
      <trkpt lat="42.8116630" lon="-8.6230160">
        <ele>76.5</ele>
        <time>2021-05-24T05:45:50Z</time>
      </trkpt>
      <trkpt lat="42.8116670" lon="-8.6230100">
        <ele>76.5</ele>
        <time>2021-05-24T05:45:51Z</time>
      </trkpt>
      <trkpt lat="42.8116710" lon="-8.6230010">
        <ele>76.6</ele>
        <time>2021-05-24T05:45:52Z</time>
      </trkpt>
      <trkpt lat="42.8116820" lon="-8.6229890">
        <ele>76.8</ele>
        <time>2021-05-24T05:45:53Z</time>
      </trkpt>
      <trkpt lat="42.8116920" lon="-8.6229840">
        <ele>76.9</ele>
        <time>2021-05-24T05:45:54Z</time>
      </trkpt>
      <trkpt lat="42.8116980" lon="-8.6229670">
        <ele>77.0</ele>
        <time>2021-05-24T05:45:55Z</time>
      </trkpt>
      <trkpt lat="42.8117090" lon="-8.6229500">
        <ele>77.2</ele>
        <time>2021-05-24T05:45:56Z</time>
      </trkpt>
      <trkpt lat="42.8117100" lon="-8.6229370">
        <ele>77.3</ele>
        <time>2021-05-24T05:45:57Z</time>
      </trkpt>
      <trkpt lat="42.8117110" lon="-8.6229130">
        <ele>77.5</ele>
        <time>2021-05-24T05:45:58Z</time>
      </trkpt>
      <trkpt lat="42.8117260" lon="-8.6228930">
        <ele>77.7</ele>
        <time>2021-05-24T05:45:59Z</time>
      </trkpt>
      <trkpt lat="42.8117340" lon="-8.6228890">
        <ele>77.8</ele>
        <time>2021-05-24T05:46:00Z</time>
      </trkpt>
      <trkpt lat="42.8117430" lon="-8.6228840">
        <ele>77.9</ele>
        <time>2021-05-24T05:46:01Z</time>
      </trkpt>
      <trkpt lat="42.8117470" lon="-8.6228560">
        <ele>78.2</ele>
        <time>2021-05-24T05:46:02Z</time>
      </trkpt>
      <trkpt lat="42.8117520" lon="-8.6228440">
        <ele>78.3</ele>
        <time>2021-05-24T05:46:03Z</time>
      </trkpt>
      <trkpt lat="42.8117560" lon="-8.6228320">
        <ele>78.4</ele>
        <time>2021-05-24T05:46:04Z</time>
      </trkpt>
      <trkpt lat="42.8117650" lon="-8.6228270">
        <ele>78.5</ele>
        <time>2021-05-24T05:46:05Z</time>
      </trkpt>
      <trkpt lat="42.8117770" lon="-8.6228260">
        <ele>78.6</ele>
        <time>2021-05-24T05:46:06Z</time>
      </trkpt>
      <trkpt lat="42.8117860" lon="-8.6228170">
        <ele>78.7</ele>
        <time>2021-05-24T05:46:07Z</time>
      </trkpt>
      <trkpt lat="42.8117960" lon="-8.6227990">
        <ele>78.9</ele>
        <time>2021-05-24T05:46:08Z</time>
      </trkpt>
      <trkpt lat="42.8117970" lon="-8.6227810">
        <ele>79.0</ele>
        <time>2021-05-24T05:46:09Z</time>
      </trkpt>
      <trkpt lat="42.8118090" lon="-8.6227700">
        <ele>79.2</ele>
        <time>2021-05-24T05:46:10Z</time>
      </trkpt>
      <trkpt lat="42.8118140" lon="-8.6227620">
        <ele>79.3</ele>
        <time>2021-05-24T05:46:11Z</time>
      </trkpt>
      <trkpt lat="42.8118190" lon="-8.6227530">
        <ele>79.4</ele>
        <time>2021-05-24T05:46:12Z</time>
      </trkpt>
      <trkpt lat="42.8118240" lon="-8.6227450">
        <ele>79.4</ele>
        <time>2021-05-24T05:46:13Z</time>
      </trkpt>
      <trkpt lat="42.8118340" lon="-8.6227390">
        <ele>79.6</ele>
        <time>2021-05-24T05:46:14Z</time>
      </trkpt>
      <trkpt lat="42.8118410" lon="-8.6227540">
        <ele>79.7</ele>
        <time>2021-05-24T05:46:15Z</time>
      </trkpt>
      <trkpt lat="42.8118490" lon="-8.6227350">
        <ele>79.9</ele>
        <time>2021-05-24T05:46:16Z</time>
      </trkpt>
      <trkpt lat="42.8118550" lon="-8.6227210">
        <ele>80.0</ele>
        <time>2021-05-24T05:46:17Z</time>
      </trkpt>
      <trkpt lat="42.8118620" lon="-8.6227190">
        <ele>80.1</ele>
        <time>2021-05-24T05:46:18Z</time>
      </trkpt>
      <trkpt lat="42.8118720" lon="-8.6227070">
        <ele>80.2</ele>
        <time>2021-05-24T05:46:19Z</time>
      </trkpt>
      <trkpt lat="42.8118830" lon="-8.6226980">
        <ele>80.3</ele>
        <time>2021-05-24T05:46:20Z</time>
      </trkpt>
      <trkpt lat="42.8118930" lon="-8.6226870">
        <ele>80.5</ele>
        <time>2021-05-24T05:46:21Z</time>
      </trkpt>
      <trkpt lat="42.8119020" lon="-8.6226710">
        <ele>80.6</ele>
        <time>2021-05-24T05:46:22Z</time>
      </trkpt>
      <trkpt lat="42.8119110" lon="-8.6226600">
        <ele>80.8</ele>
        <time>2021-05-24T05:46:23Z</time>
      </trkpt>
      <trkpt lat="42.8119150" lon="-8.6226510">
        <ele>80.8</ele>
        <time>2021-05-24T05:46:24Z</time>
      </trkpt>
      <trkpt lat="42.8119220" lon="-8.6226350">
        <ele>81.0</ele>
        <time>2021-05-24T05:46:25Z</time>
      </trkpt>
      <trkpt lat="42.8119360" lon="-8.6226360">
        <ele>81.1</ele>
        <time>2021-05-24T05:46:26Z</time>
      </trkpt>
      <trkpt lat="42.8119430" lon="-8.6226360">
        <ele>81.2</ele>
        <time>2021-05-24T05:46:27Z</time>
      </trkpt>
      <trkpt lat="42.8119510" lon="-8.6226250">
        <ele>81.4</ele>
        <time>2021-05-24T05:46:28Z</time>
      </trkpt>
      <trkpt lat="42.8119580" lon="-8.6226190">
        <ele>81.5</ele>
        <time>2021-05-24T05:46:29Z</time>
      </trkpt>
      <trkpt lat="42.8119670" lon="-8.6226130">
        <ele>81.6</ele>
        <time>2021-05-24T05:46:30Z</time>
      </trkpt>
      <trkpt lat="42.8119790" lon="-8.6226100">
        <ele>81.7</ele>
        <time>2021-05-24T05:46:31Z</time>
      </trkpt>
      <trkpt lat="42.8119910" lon="-8.6226010">
        <ele>81.9</ele>
        <time>2021-05-24T05:46:32Z</time>
      </trkpt>
      <trkpt lat="42.8119980" lon="-8.6225960">
        <ele>82.0</ele>
        <time>2021-05-24T05:46:33Z</time>
      </trkpt>
      <trkpt lat="42.8120050" lon="-8.6226020">
        <ele>82.1</ele>
        <time>2021-05-24T05:46:34Z</time>
      </trkpt>
      <trkpt lat="42.8120130" lon="-8.6226050">
        <ele>82.2</ele>
        <time>2021-05-24T05:46:35Z</time>
      </trkpt>
      <trkpt lat="42.8120240" lon="-8.6225980">
        <ele>82.3</ele>
        <time>2021-05-24T05:46:36Z</time>
      </trkpt>
      <trkpt lat="42.8120410" lon="-8.6226090">
        <ele>82.6</ele>
        <time>2021-05-24T05:46:37Z</time>
      </trkpt>
      <trkpt lat="42.8120500" lon="-8.6226060">
        <ele>82.7</ele>
        <time>2021-05-24T05:46:38Z</time>
      </trkpt>
      <trkpt lat="42.8120640" lon="-8.6226080">
        <ele>82.9</ele>
        <time>2021-05-24T05:46:39Z</time>
      </trkpt>
      <trkpt lat="42.8120710" lon="-8.6226080">
        <ele>83.0</ele>
        <time>2021-05-24T05:46:40Z</time>
      </trkpt>
      <trkpt lat="42.8120780" lon="-8.6226060">
        <ele>83.1</ele>
        <time>2021-05-24T05:46:41Z</time>
      </trkpt>
      <trkpt lat="42.8120880" lon="-8.6226020">
        <ele>83.2</ele>
        <time>2021-05-24T05:46:42Z</time>
      </trkpt>
      <trkpt lat="42.8120970" lon="-8.6225940">
        <ele>83.3</ele>
        <time>2021-05-24T05:46:43Z</time>
      </trkpt>
      <trkpt lat="42.8121100" lon="-8.6225670">
        <ele>83.6</ele>
        <time>2021-05-24T05:46:44Z</time>
      </trkpt>
      <trkpt lat="42.8121140" lon="-8.6225590">
        <ele>83.7</ele>
        <time>2021-05-24T05:46:45Z</time>
      </trkpt>
      <trkpt lat="42.8121180" lon="-8.6225510">
        <ele>83.8</ele>
        <time>2021-05-24T05:46:46Z</time>
      </trkpt>
      <trkpt lat="42.8121370" lon="-8.6225510">
        <ele>84.1</ele>
        <time>2021-05-24T05:46:47Z</time>
      </trkpt>
      <trkpt lat="42.8121470" lon="-8.6225530">
        <ele>84.2</ele>
        <time>2021-05-24T05:46:48Z</time>
      </trkpt>
      <trkpt lat="42.8121560" lon="-8.6225560">
        <ele>84.3</ele>
        <time>2021-05-24T05:46:49Z</time>
      </trkpt>
      <trkpt lat="42.8121650" lon="-8.6225590">
        <ele>84.4</ele>
        <time>2021-05-24T05:46:50Z</time>
      </trkpt>
      <trkpt lat="42.8121740" lon="-8.6225560">
        <ele>84.5</ele>
        <time>2021-05-24T05:46:51Z</time>
      </trkpt>
      <trkpt lat="42.8121810" lon="-8.6225530">
        <ele>84.6</ele>
        <time>2021-05-24T05:46:52Z</time>
      </trkpt>
      <trkpt lat="42.8121890" lon="-8.6225560">
        <ele>84.7</ele>
        <time>2021-05-24T05:46:53Z</time>
      </trkpt>
      <trkpt lat="42.8121990" lon="-8.6225540">
        <ele>84.8</ele>
        <time>2021-05-24T05:46:54Z</time>
      </trkpt>
      <trkpt lat="42.8122150" lon="-8.6225620">
        <ele>85.0</ele>
        <time>2021-05-24T05:46:55Z</time>
      </trkpt>
      <trkpt lat="42.8122190" lon="-8.6225590">
        <ele>85.1</ele>
        <time>2021-05-24T05:46:56Z</time>
      </trkpt>
      <trkpt lat="42.8122320" lon="-8.6225560">
        <ele>85.2</ele>
        <time>2021-05-24T05:46:57Z</time>
      </trkpt>
      <trkpt lat="42.8122450" lon="-8.6225530">
        <ele>85.4</ele>
        <time>2021-05-24T05:46:58Z</time>
      </trkpt>
      <trkpt lat="42.8122540" lon="-8.6225500">
        <ele>85.5</ele>
        <time>2021-05-24T05:46:59Z</time>
      </trkpt>
      <trkpt lat="42.8122640" lon="-8.6225490">
        <ele>85.6</ele>
        <time>2021-05-24T05:47:00Z</time>
      </trkpt>
      <trkpt lat="42.8122760" lon="-8.6225480">
        <ele>85.7</ele>
        <time>2021-05-24T05:47:01Z</time>
      </trkpt>
      <trkpt lat="42.8122880" lon="-8.6225360">
        <ele>85.9</ele>
        <time>2021-05-24T05:47:02Z</time>
      </trkpt>
      <trkpt lat="42.8122930" lon="-8.6225290">
        <ele>85.9</ele>
        <time>2021-05-24T05:47:03Z</time>
      </trkpt>
      <trkpt lat="42.8123080" lon="-8.6225390">
        <ele>86.1</ele>
        <time>2021-05-24T05:47:04Z</time>
      </trkpt>
      <trkpt lat="42.8123160" lon="-8.6225330">
        <ele>86.2</ele>
        <time>2021-05-24T05:47:05Z</time>
      </trkpt>
      <trkpt lat="42.8123290" lon="-8.6225290">
        <ele>86.3</ele>
        <time>2021-05-24T05:47:06Z</time>
      </trkpt>
      <trkpt lat="42.8123350" lon="-8.6225290">
        <ele>86.4</ele>
        <time>2021-05-24T05:47:07Z</time>
      </trkpt>
      <trkpt lat="42.8123450" lon="-8.6225280">
        <ele>86.5</ele>
        <time>2021-05-24T05:47:08Z</time>
      </trkpt>
      <trkpt lat="42.8123640" lon="-8.6225300">
        <ele>86.7</ele>
        <time>2021-05-24T05:47:09Z</time>
      </trkpt>
      <trkpt lat="42.8123720" lon="-8.6225320">
        <ele>86.7</ele>
        <time>2021-05-24T05:47:10Z</time>
      </trkpt>
      <trkpt lat="42.8123810" lon="-8.6225330">
        <ele>86.8</ele>
        <time>2021-05-24T05:47:11Z</time>
      </trkpt>
      <trkpt lat="42.8123890" lon="-8.6225210">
        <ele>86.9</ele>
        <time>2021-05-24T05:47:12Z</time>
      </trkpt>
      <trkpt lat="42.8124030" lon="-8.6225130">
        <ele>87.1</ele>
        <time>2021-05-24T05:47:13Z</time>
      </trkpt>
      <trkpt lat="42.8124120" lon="-8.6225100">
        <ele>87.1</ele>
        <time>2021-05-24T05:47:14Z</time>
      </trkpt>
      <trkpt lat="42.8124190" lon="-8.6225080">
        <ele>87.2</ele>
        <time>2021-05-24T05:47:15Z</time>
      </trkpt>
      <trkpt lat="42.8124300" lon="-8.6225060">
        <ele>87.3</ele>
        <time>2021-05-24T05:47:16Z</time>
      </trkpt>
      <trkpt lat="42.8124450" lon="-8.6225000">
        <ele>87.4</ele>
        <time>2021-05-24T05:47:17Z</time>
      </trkpt>
      <trkpt lat="42.8124620" lon="-8.6224930">
        <ele>87.5</ele>
        <time>2021-05-24T05:47:18Z</time>
      </trkpt>
      <trkpt lat="42.8124700" lon="-8.6224920">
        <ele>87.5</ele>
        <time>2021-05-24T05:47:19Z</time>
      </trkpt>
      <trkpt lat="42.8124770" lon="-8.6224910">
        <ele>87.5</ele>
        <time>2021-05-24T05:47:20Z</time>
      </trkpt>
      <trkpt lat="42.8124840" lon="-8.6224900">
        <ele>87.6</ele>
        <time>2021-05-24T05:47:21Z</time>
      </trkpt>
      <trkpt lat="42.8124930" lon="-8.6224810">
        <ele>87.6</ele>
        <time>2021-05-24T05:47:22Z</time>
      </trkpt>
      <trkpt lat="42.8125030" lon="-8.6224720">
        <ele>87.7</ele>
        <time>2021-05-24T05:47:23Z</time>
      </trkpt>
      <trkpt lat="42.8125070" lon="-8.6224570">
        <ele>87.7</ele>
        <time>2021-05-24T05:47:24Z</time>
      </trkpt>
      <trkpt lat="42.8125170" lon="-8.6224500">
        <ele>87.8</ele>
        <time>2021-05-24T05:47:25Z</time>
      </trkpt>
      <trkpt lat="42.8125270" lon="-8.6224430">
        <ele>87.8</ele>
        <time>2021-05-24T05:47:26Z</time>
      </trkpt>
      <trkpt lat="42.8125350" lon="-8.6224340">
        <ele>87.9</ele>
        <time>2021-05-24T05:47:27Z</time>
      </trkpt>
      <trkpt lat="42.8125420" lon="-8.6224320">
        <ele>87.9</ele>
        <time>2021-05-24T05:47:28Z</time>
      </trkpt>
      <trkpt lat="42.8125530" lon="-8.6224280">
        <ele>87.9</ele>
        <time>2021-05-24T05:47:29Z</time>
      </trkpt>
      <trkpt lat="42.8125690" lon="-8.6224230">
        <ele>88.0</ele>
        <time>2021-05-24T05:47:30Z</time>
      </trkpt>
      <trkpt lat="42.8125780" lon="-8.6224160">
        <ele>88.0</ele>
        <time>2021-05-24T05:47:31Z</time>
      </trkpt>
      <trkpt lat="42.8125860" lon="-8.6224090">
        <ele>88.0</ele>
        <time>2021-05-24T05:47:32Z</time>
      </trkpt>
      <trkpt lat="42.8125950" lon="-8.6224040">
        <ele>88.1</ele>
        <time>2021-05-24T05:47:33Z</time>
      </trkpt>
      <trkpt lat="42.8126100" lon="-8.6223990">
        <ele>88.1</ele>
        <time>2021-05-24T05:47:34Z</time>
      </trkpt>
      <trkpt lat="42.8126190" lon="-8.6223940">
        <ele>88.1</ele>
        <time>2021-05-24T05:47:35Z</time>
      </trkpt>
      <trkpt lat="42.8126250" lon="-8.6224020">
        <ele>88.1</ele>
        <time>2021-05-24T05:47:36Z</time>
      </trkpt>
      <trkpt lat="42.8126420" lon="-8.6223810">
        <ele>88.2</ele>
        <time>2021-05-24T05:47:37Z</time>
      </trkpt>
      <trkpt lat="42.8126490" lon="-8.6223730">
        <ele>88.2</ele>
        <time>2021-05-24T05:47:38Z</time>
      </trkpt>
      <trkpt lat="42.8126560" lon="-8.6223640">
        <ele>88.2</ele>
        <time>2021-05-24T05:47:39Z</time>
      </trkpt>
      <trkpt lat="42.8126690" lon="-8.6223360">
        <ele>88.3</ele>
        <time>2021-05-24T05:47:40Z</time>
      </trkpt>
      <trkpt lat="42.8126770" lon="-8.6223310">
        <ele>88.3</ele>
        <time>2021-05-24T05:47:41Z</time>
      </trkpt>
      <trkpt lat="42.8126840" lon="-8.6223260">
        <ele>88.3</ele>
        <time>2021-05-24T05:47:42Z</time>
      </trkpt>
      <trkpt lat="42.8126930" lon="-8.6223160">
        <ele>88.3</ele>
        <time>2021-05-24T05:47:43Z</time>
      </trkpt>
      <trkpt lat="42.8127050" lon="-8.6223090">
        <ele>88.3</ele>
        <time>2021-05-24T05:47:44Z</time>
      </trkpt>
      <trkpt lat="42.8127140" lon="-8.6223000">
        <ele>88.3</ele>
        <time>2021-05-24T05:47:45Z</time>
      </trkpt>
      <trkpt lat="42.8127240" lon="-8.6222900">
        <ele>88.3</ele>
        <time>2021-05-24T05:47:46Z</time>
      </trkpt>
      <trkpt lat="42.8127340" lon="-8.6222860">
        <ele>88.4</ele>
        <time>2021-05-24T05:47:47Z</time>
      </trkpt>
      <trkpt lat="42.8127440" lon="-8.6222820">
        <ele>88.4</ele>
        <time>2021-05-24T05:47:48Z</time>
      </trkpt>
      <trkpt lat="42.8127500" lon="-8.6222810">
        <ele>88.4</ele>
        <time>2021-05-24T05:47:49Z</time>
      </trkpt>
      <trkpt lat="42.8127620" lon="-8.6222700">
        <ele>88.4</ele>
        <time>2021-05-24T05:47:50Z</time>
      </trkpt>
      <trkpt lat="42.8127690" lon="-8.6222630">
        <ele>88.4</ele>
        <time>2021-05-24T05:47:51Z</time>
      </trkpt>
      <trkpt lat="42.8127800" lon="-8.6222560">
        <ele>88.4</ele>
        <time>2021-05-24T05:47:52Z</time>
      </trkpt>
      <trkpt lat="42.8127870" lon="-8.6222470">
        <ele>88.4</ele>
        <time>2021-05-24T05:47:53Z</time>
      </trkpt>
      <trkpt lat="42.8128000" lon="-8.6222400">
        <ele>88.5</ele>
        <time>2021-05-24T05:47:54Z</time>
      </trkpt>
      <trkpt lat="42.8128150" lon="-8.6222180">
        <ele>88.5</ele>
        <time>2021-05-24T05:47:55Z</time>
      </trkpt>
      <trkpt lat="42.8128210" lon="-8.6222130">
        <ele>88.5</ele>
        <time>2021-05-24T05:47:56Z</time>
      </trkpt>
      <trkpt lat="42.8128280" lon="-8.6222080">
        <ele>88.5</ele>
        <time>2021-05-24T05:47:57Z</time>
      </trkpt>
      <trkpt lat="42.8128420" lon="-8.6221960">
        <ele>88.5</ele>
        <time>2021-05-24T05:47:58Z</time>
      </trkpt>
      <trkpt lat="42.8128420" lon="-8.6221980">
        <ele>88.5</ele>
        <time>2021-05-24T05:47:59Z</time>
      </trkpt>
      <trkpt lat="42.8128400" lon="-8.6222070">
        <ele>88.6</ele>
        <time>2021-05-24T05:48:00Z</time>
      </trkpt>
      <trkpt lat="42.8128480" lon="-8.6221980">
        <ele>88.6</ele>
        <time>2021-05-24T05:48:01Z</time>
      </trkpt>
      <trkpt lat="42.8128580" lon="-8.6221920">
        <ele>88.6</ele>
        <time>2021-05-24T05:48:02Z</time>
      </trkpt>
      <trkpt lat="42.8128700" lon="-8.6221780">
        <ele>88.6</ele>
        <time>2021-05-24T05:48:03Z</time>
      </trkpt>
      <trkpt lat="42.8128800" lon="-8.6221680">
        <ele>88.6</ele>
        <time>2021-05-24T05:48:04Z</time>
      </trkpt>
      <trkpt lat="42.8128920" lon="-8.6221600">
        <ele>88.6</ele>
        <time>2021-05-24T05:48:05Z</time>
      </trkpt>
      <trkpt lat="42.8129070" lon="-8.6221560">
        <ele>88.7</ele>
        <time>2021-05-24T05:48:06Z</time>
      </trkpt>
      <trkpt lat="42.8129280" lon="-8.6221470">
        <ele>88.7</ele>
        <time>2021-05-24T05:48:07Z</time>
      </trkpt>
      <trkpt lat="42.8129400" lon="-8.6221410">
        <ele>88.7</ele>
        <time>2021-05-24T05:48:08Z</time>
      </trkpt>
      <trkpt lat="42.8129480" lon="-8.6221410">
        <ele>88.7</ele>
        <time>2021-05-24T05:48:09Z</time>
      </trkpt>
      <trkpt lat="42.8129570" lon="-8.6221330">
        <ele>88.7</ele>
        <time>2021-05-24T05:48:10Z</time>
      </trkpt>
      <trkpt lat="42.8129690" lon="-8.6221350">
        <ele>88.8</ele>
        <time>2021-05-24T05:48:11Z</time>
      </trkpt>
      <trkpt lat="42.8129780" lon="-8.6221380">
        <ele>88.8</ele>
        <time>2021-05-24T05:48:12Z</time>
      </trkpt>
      <trkpt lat="42.8129800" lon="-8.6221410">
        <ele>88.8</ele>
        <time>2021-05-24T05:48:13Z</time>
      </trkpt>
      <trkpt lat="42.8129990" lon="-8.6221400">
        <ele>88.8</ele>
        <time>2021-05-24T05:48:14Z</time>
      </trkpt>
      <trkpt lat="42.8130180" lon="-8.6221320">
        <ele>88.8</ele>
        <time>2021-05-24T05:48:15Z</time>
      </trkpt>
      <trkpt lat="42.8130260" lon="-8.6221270">
        <ele>88.8</ele>
        <time>2021-05-24T05:48:16Z</time>
      </trkpt>
      <trkpt lat="42.8130340" lon="-8.6221230">
        <ele>88.8</ele>
        <time>2021-05-24T05:48:17Z</time>
      </trkpt>
      <trkpt lat="42.8130460" lon="-8.6221210">
        <ele>88.8</ele>
        <time>2021-05-24T05:48:18Z</time>
      </trkpt>
      <trkpt lat="42.8130540" lon="-8.6221130">
        <ele>88.9</ele>
        <time>2021-05-24T05:48:19Z</time>
      </trkpt>
      <trkpt lat="42.8130640" lon="-8.6221010">
        <ele>88.9</ele>
        <time>2021-05-24T05:48:20Z</time>
      </trkpt>
      <trkpt lat="42.8130710" lon="-8.6220860">
        <ele>88.9</ele>
        <time>2021-05-24T05:48:21Z</time>
      </trkpt>
      <trkpt lat="42.8130840" lon="-8.6220710">
        <ele>88.9</ele>
        <time>2021-05-24T05:48:22Z</time>
      </trkpt>
      <trkpt lat="42.8130980" lon="-8.6220470">
        <ele>88.9</ele>
        <time>2021-05-24T05:48:23Z</time>
      </trkpt>
      <trkpt lat="42.8131040" lon="-8.6220390">
        <ele>89.0</ele>
        <time>2021-05-24T05:48:24Z</time>
      </trkpt>
      <trkpt lat="42.8131100" lon="-8.6220310">
        <ele>89.0</ele>
        <time>2021-05-24T05:48:25Z</time>
      </trkpt>
      <trkpt lat="42.8131110" lon="-8.6220110">
        <ele>89.0</ele>
        <time>2021-05-24T05:48:26Z</time>
      </trkpt>
      <trkpt lat="42.8131140" lon="-8.6220030">
        <ele>89.0</ele>
        <time>2021-05-24T05:48:27Z</time>
      </trkpt>
      <trkpt lat="42.8131190" lon="-8.6219860">
        <ele>89.0</ele>
        <time>2021-05-24T05:48:28Z</time>
      </trkpt>
      <trkpt lat="42.8131340" lon="-8.6219710">
        <ele>89.1</ele>
        <time>2021-05-24T05:48:29Z</time>
      </trkpt>
      <trkpt lat="42.8131420" lon="-8.6219640">
        <ele>89.1</ele>
        <time>2021-05-24T05:48:30Z</time>
      </trkpt>
      <trkpt lat="42.8131510" lon="-8.6219570">
        <ele>89.1</ele>
        <time>2021-05-24T05:48:31Z</time>
      </trkpt>
      <trkpt lat="42.8131640" lon="-8.6219560">
        <ele>89.1</ele>
        <time>2021-05-24T05:48:32Z</time>
      </trkpt>
      <trkpt lat="42.8131720" lon="-8.6219480">
        <ele>89.2</ele>
        <time>2021-05-24T05:48:33Z</time>
      </trkpt>
      <trkpt lat="42.8131840" lon="-8.6219410">
        <ele>89.2</ele>
        <time>2021-05-24T05:48:34Z</time>
      </trkpt>
      <trkpt lat="42.8131920" lon="-8.6219250">
        <ele>89.2</ele>
        <time>2021-05-24T05:48:35Z</time>
      </trkpt>
      <trkpt lat="42.8132050" lon="-8.6219230">
        <ele>89.2</ele>
        <time>2021-05-24T05:48:36Z</time>
      </trkpt>
      <trkpt lat="42.8132110" lon="-8.6219160">
        <ele>89.3</ele>
        <time>2021-05-24T05:48:37Z</time>
      </trkpt>
      <trkpt lat="42.8132280" lon="-8.6219080">
        <ele>89.3</ele>
        <time>2021-05-24T05:48:38Z</time>
      </trkpt>
      <trkpt lat="42.8132370" lon="-8.6219020">
        <ele>89.3</ele>
        <time>2021-05-24T05:48:39Z</time>
      </trkpt>
      <trkpt lat="42.8132470" lon="-8.6218960">
        <ele>89.3</ele>
        <time>2021-05-24T05:48:40Z</time>
      </trkpt>
      <trkpt lat="42.8132540" lon="-8.6218930">
        <ele>89.4</ele>
        <time>2021-05-24T05:48:41Z</time>
      </trkpt>
      <trkpt lat="42.8132610" lon="-8.6218800">
        <ele>89.4</ele>
        <time>2021-05-24T05:48:42Z</time>
      </trkpt>
      <trkpt lat="42.8132710" lon="-8.6218710">
        <ele>89.4</ele>
        <time>2021-05-24T05:48:43Z</time>
      </trkpt>
      <trkpt lat="42.8132840" lon="-8.6218660">
        <ele>89.4</ele>
        <time>2021-05-24T05:48:44Z</time>
      </trkpt>
      <trkpt lat="42.8132890" lon="-8.6218510">
        <ele>89.5</ele>
        <time>2021-05-24T05:48:45Z</time>
      </trkpt>
      <trkpt lat="42.8133000" lon="-8.6218410">
        <ele>89.5</ele>
        <time>2021-05-24T05:48:46Z</time>
      </trkpt>
      <trkpt lat="42.8133040" lon="-8.6218380">
        <ele>89.5</ele>
        <time>2021-05-24T05:48:47Z</time>
      </trkpt>
      <trkpt lat="42.8133190" lon="-8.6218320">
        <ele>89.6</ele>
        <time>2021-05-24T05:48:48Z</time>
      </trkpt>
      <trkpt lat="42.8133280" lon="-8.6218270">
        <ele>89.6</ele>
        <time>2021-05-24T05:48:49Z</time>
      </trkpt>
      <trkpt lat="42.8133410" lon="-8.6218170">
        <ele>89.6</ele>
        <time>2021-05-24T05:48:50Z</time>
      </trkpt>
      <trkpt lat="42.8133540" lon="-8.6218150">
        <ele>89.6</ele>
        <time>2021-05-24T05:48:51Z</time>
      </trkpt>
      <trkpt lat="42.8133550" lon="-8.6218160">
        <ele>89.6</ele>
        <time>2021-05-24T05:48:52Z</time>
      </trkpt>
      <trkpt lat="42.8133660" lon="-8.6218110">
        <ele>89.7</ele>
        <time>2021-05-24T05:48:53Z</time>
      </trkpt>
      <trkpt lat="42.8133730" lon="-8.6218020">
        <ele>89.7</ele>
        <time>2021-05-24T05:48:54Z</time>
      </trkpt>
      <trkpt lat="42.8133830" lon="-8.6217880">
        <ele>89.8</ele>
        <time>2021-05-24T05:48:55Z</time>
      </trkpt>
      <trkpt lat="42.8133880" lon="-8.6217760">
        <ele>89.8</ele>
        <time>2021-05-24T05:48:56Z</time>
      </trkpt>
      <trkpt lat="42.8133910" lon="-8.6217600">
        <ele>89.9</ele>
        <time>2021-05-24T05:48:57Z</time>
      </trkpt>
      <trkpt lat="42.8133960" lon="-8.6217530">
        <ele>89.9</ele>
        <time>2021-05-24T05:48:58Z</time>
      </trkpt>
      <trkpt lat="42.8134010" lon="-8.6217460">
        <ele>89.9</ele>
        <time>2021-05-24T05:48:59Z</time>
      </trkpt>
      <trkpt lat="42.8134090" lon="-8.6217330">
        <ele>90.0</ele>
        <time>2021-05-24T05:49:00Z</time>
      </trkpt>
      <trkpt lat="42.8134180" lon="-8.6217190">
        <ele>90.0</ele>
        <time>2021-05-24T05:49:01Z</time>
      </trkpt>
      <trkpt lat="42.8134250" lon="-8.6217100">
        <ele>90.1</ele>
        <time>2021-05-24T05:49:02Z</time>
      </trkpt>
      <trkpt lat="42.8134280" lon="-8.6217030">
        <ele>90.1</ele>
        <time>2021-05-24T05:49:03Z</time>
      </trkpt>
      <trkpt lat="42.8134330" lon="-8.6216870">
        <ele>90.2</ele>
        <time>2021-05-24T05:49:04Z</time>
      </trkpt>
      <trkpt lat="42.8134400" lon="-8.6216790">
        <ele>90.2</ele>
        <time>2021-05-24T05:49:05Z</time>
      </trkpt>
      <trkpt lat="42.8134480" lon="-8.6216690">
        <ele>90.3</ele>
        <time>2021-05-24T05:49:06Z</time>
      </trkpt>
      <trkpt lat="42.8134520" lon="-8.6216510">
        <ele>90.3</ele>
        <time>2021-05-24T05:49:07Z</time>
      </trkpt>
      <trkpt lat="42.8134560" lon="-8.6216430">
        <ele>90.4</ele>
        <time>2021-05-24T05:49:08Z</time>
      </trkpt>
      <trkpt lat="42.8134590" lon="-8.6216320">
        <ele>90.4</ele>
        <time>2021-05-24T05:49:09Z</time>
      </trkpt>
      <trkpt lat="42.8134630" lon="-8.6216210">
        <ele>90.4</ele>
        <time>2021-05-24T05:49:10Z</time>
      </trkpt>
      <trkpt lat="42.8134680" lon="-8.6216080">
        <ele>90.5</ele>
        <time>2021-05-24T05:49:11Z</time>
      </trkpt>
      <trkpt lat="42.8134730" lon="-8.6215950">
        <ele>90.5</ele>
        <time>2021-05-24T05:49:12Z</time>
      </trkpt>
      <trkpt lat="42.8134780" lon="-8.6215780">
        <ele>90.6</ele>
        <time>2021-05-24T05:49:13Z</time>
      </trkpt>
      <trkpt lat="42.8134830" lon="-8.6215660">
        <ele>90.6</ele>
        <time>2021-05-24T05:49:14Z</time>
      </trkpt>
      <trkpt lat="42.8134870" lon="-8.6215580">
        <ele>90.7</ele>
        <time>2021-05-24T05:49:15Z</time>
      </trkpt>
      <trkpt lat="42.8134970" lon="-8.6215410">
        <ele>90.7</ele>
        <time>2021-05-24T05:49:16Z</time>
      </trkpt>
      <trkpt lat="42.8135020" lon="-8.6215340">
        <ele>90.8</ele>
        <time>2021-05-24T05:49:17Z</time>
      </trkpt>
      <trkpt lat="42.8135090" lon="-8.6215180">
        <ele>90.8</ele>
        <time>2021-05-24T05:49:18Z</time>
      </trkpt>
      <trkpt lat="42.8135150" lon="-8.6215050">
        <ele>90.9</ele>
        <time>2021-05-24T05:49:19Z</time>
      </trkpt>
      <trkpt lat="42.8135240" lon="-8.6214950">
        <ele>90.9</ele>
        <time>2021-05-24T05:49:20Z</time>
      </trkpt>
      <trkpt lat="42.8135270" lon="-8.6214830">
        <ele>91.0</ele>
        <time>2021-05-24T05:49:21Z</time>
      </trkpt>
      <trkpt lat="42.8135340" lon="-8.6214690">
        <ele>91.0</ele>
        <time>2021-05-24T05:49:22Z</time>
      </trkpt>
      <trkpt lat="42.8135390" lon="-8.6214610">
        <ele>91.1</ele>
        <time>2021-05-24T05:49:23Z</time>
      </trkpt>
      <trkpt lat="42.8135480" lon="-8.6214430">
        <ele>91.1</ele>
        <time>2021-05-24T05:49:24Z</time>
      </trkpt>
      <trkpt lat="42.8135540" lon="-8.6214310">
        <ele>91.2</ele>
        <time>2021-05-24T05:49:25Z</time>
      </trkpt>
      <trkpt lat="42.8135570" lon="-8.6214190">
        <ele>91.2</ele>
        <time>2021-05-24T05:49:26Z</time>
      </trkpt>
      <trkpt lat="42.8135610" lon="-8.6214060">
        <ele>91.3</ele>
        <time>2021-05-24T05:49:27Z</time>
      </trkpt>
      <trkpt lat="42.8135640" lon="-8.6213820">
        <ele>91.3</ele>
        <time>2021-05-24T05:49:28Z</time>
      </trkpt>
      <trkpt lat="42.8135730" lon="-8.6213720">
        <ele>91.4</ele>
        <time>2021-05-24T05:49:29Z</time>
      </trkpt>
      <trkpt lat="42.8135760" lon="-8.6213590">
        <ele>91.4</ele>
        <time>2021-05-24T05:49:30Z</time>
      </trkpt>
      <trkpt lat="42.8135840" lon="-8.6213450">
        <ele>91.5</ele>
        <time>2021-05-24T05:49:31Z</time>
      </trkpt>
      <trkpt lat="42.8135910" lon="-8.6213340">
        <ele>91.5</ele>
        <time>2021-05-24T05:49:32Z</time>
      </trkpt>
      <trkpt lat="42.8135950" lon="-8.6213200">
        <ele>91.5</ele>
        <time>2021-05-24T05:49:33Z</time>
      </trkpt>
      <trkpt lat="42.8135980" lon="-8.6213030">
        <ele>91.6</ele>
        <time>2021-05-24T05:49:34Z</time>
      </trkpt>
      <trkpt lat="42.8136050" lon="-8.6212820">
        <ele>91.6</ele>
        <time>2021-05-24T05:49:35Z</time>
      </trkpt>
      <trkpt lat="42.8136070" lon="-8.6212660">
        <ele>91.7</ele>
        <time>2021-05-24T05:49:36Z</time>
      </trkpt>
      <trkpt lat="42.8136170" lon="-8.6212440">
        <ele>91.8</ele>
        <time>2021-05-24T05:49:37Z</time>
      </trkpt>
      <trkpt lat="42.8136220" lon="-8.6212350">
        <ele>91.8</ele>
        <time>2021-05-24T05:49:38Z</time>
      </trkpt>
      <trkpt lat="42.8136260" lon="-8.6212260">
        <ele>91.8</ele>
        <time>2021-05-24T05:49:39Z</time>
      </trkpt>
      <trkpt lat="42.8136300" lon="-8.6212170">
        <ele>91.8</ele>
        <time>2021-05-24T05:49:40Z</time>
      </trkpt>
      <trkpt lat="42.8136420" lon="-8.6211920">
        <ele>91.9</ele>
        <time>2021-05-24T05:49:41Z</time>
      </trkpt>
      <trkpt lat="42.8136470" lon="-8.6211840">
        <ele>92.0</ele>
        <time>2021-05-24T05:49:42Z</time>
      </trkpt>
      <trkpt lat="42.8136530" lon="-8.6211750">
        <ele>92.0</ele>
        <time>2021-05-24T05:49:43Z</time>
      </trkpt>
      <trkpt lat="42.8136640" lon="-8.6211570">
        <ele>92.0</ele>
        <time>2021-05-24T05:49:44Z</time>
      </trkpt>
      <trkpt lat="42.8136650" lon="-8.6211500">
        <ele>92.1</ele>
        <time>2021-05-24T05:49:45Z</time>
      </trkpt>
      <trkpt lat="42.8136720" lon="-8.6211340">
        <ele>92.1</ele>
        <time>2021-05-24T05:49:46Z</time>
      </trkpt>
      <trkpt lat="42.8136790" lon="-8.6211090">
        <ele>92.2</ele>
        <time>2021-05-24T05:49:47Z</time>
      </trkpt>
      <trkpt lat="42.8136830" lon="-8.6210970">
        <ele>92.2</ele>
        <time>2021-05-24T05:49:48Z</time>
      </trkpt>
      <trkpt lat="42.8136870" lon="-8.6210860">
        <ele>92.3</ele>
        <time>2021-05-24T05:49:49Z</time>
      </trkpt>
      <trkpt lat="42.8136940" lon="-8.6210680">
        <ele>92.3</ele>
        <time>2021-05-24T05:49:50Z</time>
      </trkpt>
      <trkpt lat="42.8137000" lon="-8.6210520">
        <ele>92.4</ele>
        <time>2021-05-24T05:49:51Z</time>
      </trkpt>
      <trkpt lat="42.8137060" lon="-8.6210450">
        <ele>92.4</ele>
        <time>2021-05-24T05:49:52Z</time>
      </trkpt>
      <trkpt lat="42.8137120" lon="-8.6210310">
        <ele>92.5</ele>
        <time>2021-05-24T05:49:53Z</time>
      </trkpt>
      <trkpt lat="42.8137170" lon="-8.6210190">
        <ele>92.5</ele>
        <time>2021-05-24T05:49:54Z</time>
      </trkpt>
      <trkpt lat="42.8137200" lon="-8.6210040">
        <ele>92.6</ele>
        <time>2021-05-24T05:49:55Z</time>
      </trkpt>
      <trkpt lat="42.8137260" lon="-8.6209900">
        <ele>92.7</ele>
        <time>2021-05-24T05:49:56Z</time>
      </trkpt>
      <trkpt lat="42.8137320" lon="-8.6209770">
        <ele>92.7</ele>
        <time>2021-05-24T05:49:57Z</time>
      </trkpt>
      <trkpt lat="42.8137400" lon="-8.6209590">
        <ele>92.8</ele>
        <time>2021-05-24T05:49:58Z</time>
      </trkpt>
      <trkpt lat="42.8137420" lon="-8.6209500">
        <ele>92.8</ele>
        <time>2021-05-24T05:49:59Z</time>
      </trkpt>
      <trkpt lat="42.8137460" lon="-8.6209360">
        <ele>92.9</ele>
        <time>2021-05-24T05:50:00Z</time>
      </trkpt>
      <trkpt lat="42.8137510" lon="-8.6209210">
        <ele>92.9</ele>
        <time>2021-05-24T05:50:01Z</time>
      </trkpt>
      <trkpt lat="42.8137580" lon="-8.6209080">
        <ele>93.0</ele>
        <time>2021-05-24T05:50:02Z</time>
      </trkpt>
      <trkpt lat="42.8137610" lon="-8.6208940">
        <ele>93.1</ele>
        <time>2021-05-24T05:50:03Z</time>
      </trkpt>
      <trkpt lat="42.8137690" lon="-8.6208850">
        <ele>93.1</ele>
        <time>2021-05-24T05:50:04Z</time>
      </trkpt>
      <trkpt lat="42.8137750" lon="-8.6208720">
        <ele>93.2</ele>
        <time>2021-05-24T05:50:05Z</time>
      </trkpt>
      <trkpt lat="42.8137800" lon="-8.6208550">
        <ele>93.3</ele>
        <time>2021-05-24T05:50:06Z</time>
      </trkpt>
      <trkpt lat="42.8137840" lon="-8.6208400">
        <ele>93.4</ele>
        <time>2021-05-24T05:50:07Z</time>
      </trkpt>
      <trkpt lat="42.8137900" lon="-8.6208300">
        <ele>93.4</ele>
        <time>2021-05-24T05:50:08Z</time>
      </trkpt>
      <trkpt lat="42.8137930" lon="-8.6208140">
        <ele>93.5</ele>
        <time>2021-05-24T05:50:09Z</time>
      </trkpt>
      <trkpt lat="42.8138000" lon="-8.6208040">
        <ele>93.6</ele>
        <time>2021-05-24T05:50:10Z</time>
      </trkpt>
      <trkpt lat="42.8138030" lon="-8.6207910">
        <ele>93.7</ele>
        <time>2021-05-24T05:50:11Z</time>
      </trkpt>
      <trkpt lat="42.8138100" lon="-8.6207820">
        <ele>93.7</ele>
        <time>2021-05-24T05:50:12Z</time>
      </trkpt>
      <trkpt lat="42.8138210" lon="-8.6207550">
        <ele>93.9</ele>
        <time>2021-05-24T05:50:13Z</time>
      </trkpt>
      <trkpt lat="42.8138240" lon="-8.6207440">
        <ele>94.0</ele>
        <time>2021-05-24T05:50:14Z</time>
      </trkpt>
      <trkpt lat="42.8138270" lon="-8.6207320">
        <ele>94.1</ele>
        <time>2021-05-24T05:50:15Z</time>
      </trkpt>
      <trkpt lat="42.8138270" lon="-8.6207120">
        <ele>94.2</ele>
        <time>2021-05-24T05:50:16Z</time>
      </trkpt>
      <trkpt lat="42.8138330" lon="-8.6207020">
        <ele>94.3</ele>
        <time>2021-05-24T05:50:17Z</time>
      </trkpt>
      <trkpt lat="42.8138390" lon="-8.6206950">
        <ele>94.3</ele>
        <time>2021-05-24T05:50:18Z</time>
      </trkpt>
      <trkpt lat="42.8138440" lon="-8.6206810">
        <ele>94.4</ele>
        <time>2021-05-24T05:50:19Z</time>
      </trkpt>
      <trkpt lat="42.8138510" lon="-8.6206720">
        <ele>94.5</ele>
        <time>2021-05-24T05:50:20Z</time>
      </trkpt>
      <trkpt lat="42.8138580" lon="-8.6206660">
        <ele>94.6</ele>
        <time>2021-05-24T05:50:21Z</time>
      </trkpt>
      <trkpt lat="42.8138660" lon="-8.6206520">
        <ele>94.7</ele>
        <time>2021-05-24T05:50:22Z</time>
      </trkpt>
      <trkpt lat="42.8138720" lon="-8.6206440">
        <ele>94.8</ele>
        <time>2021-05-24T05:50:23Z</time>
      </trkpt>
      <trkpt lat="42.8138770" lon="-8.6206320">
        <ele>94.9</ele>
        <time>2021-05-24T05:50:24Z</time>
      </trkpt>
      <trkpt lat="42.8138840" lon="-8.6206020">
        <ele>95.1</ele>
        <time>2021-05-24T05:50:25Z</time>
      </trkpt>
      <trkpt lat="42.8138880" lon="-8.6205930">
        <ele>95.2</ele>
        <time>2021-05-24T05:50:26Z</time>
      </trkpt>
      <trkpt lat="42.8138920" lon="-8.6205840">
        <ele>95.3</ele>
        <time>2021-05-24T05:50:27Z</time>
      </trkpt>
      <trkpt lat="42.8138970" lon="-8.6205750">
        <ele>95.4</ele>
        <time>2021-05-24T05:50:28Z</time>
      </trkpt>
      <trkpt lat="42.8139000" lon="-8.6205610">
        <ele>95.5</ele>
        <time>2021-05-24T05:50:29Z</time>
      </trkpt>
      <trkpt lat="42.8139040" lon="-8.6205500">
        <ele>95.6</ele>
        <time>2021-05-24T05:50:30Z</time>
      </trkpt>
      <trkpt lat="42.8139060" lon="-8.6205330">
        <ele>95.7</ele>
        <time>2021-05-24T05:50:31Z</time>
      </trkpt>
      <trkpt lat="42.8139120" lon="-8.6205260">
        <ele>95.8</ele>
        <time>2021-05-24T05:50:32Z</time>
      </trkpt>
      <trkpt lat="42.8139170" lon="-8.6205080">
        <ele>96.0</ele>
        <time>2021-05-24T05:50:33Z</time>
      </trkpt>
      <trkpt lat="42.8139310" lon="-8.6205130">
        <ele>96.1</ele>
        <time>2021-05-24T05:50:34Z</time>
      </trkpt>
      <trkpt lat="42.8139370" lon="-8.6205000">
        <ele>96.3</ele>
        <time>2021-05-24T05:50:35Z</time>
      </trkpt>
      <trkpt lat="42.8139420" lon="-8.6204840">
        <ele>96.4</ele>
        <time>2021-05-24T05:50:36Z</time>
      </trkpt>
      <trkpt lat="42.8139450" lon="-8.6204680">
        <ele>96.6</ele>
        <time>2021-05-24T05:50:37Z</time>
      </trkpt>
      <trkpt lat="42.8139520" lon="-8.6204570">
        <ele>96.7</ele>
        <time>2021-05-24T05:50:38Z</time>
      </trkpt>
      <trkpt lat="42.8139540" lon="-8.6204440">
        <ele>96.8</ele>
        <time>2021-05-24T05:50:39Z</time>
      </trkpt>
      <trkpt lat="42.8139660" lon="-8.6204180">
        <ele>97.1</ele>
        <time>2021-05-24T05:50:40Z</time>
      </trkpt>
      <trkpt lat="42.8139710" lon="-8.6204060">
        <ele>97.2</ele>
        <time>2021-05-24T05:50:41Z</time>
      </trkpt>
      <trkpt lat="42.8139760" lon="-8.6203950">
        <ele>97.3</ele>
        <time>2021-05-24T05:50:42Z</time>
      </trkpt>
      <trkpt lat="42.8139790" lon="-8.6203780">
        <ele>97.5</ele>
        <time>2021-05-24T05:50:43Z</time>
      </trkpt>
      <trkpt lat="42.8139830" lon="-8.6203750">
        <ele>97.6</ele>
        <time>2021-05-24T05:50:44Z</time>
      </trkpt>
      <trkpt lat="42.8139930" lon="-8.6203610">
        <ele>97.7</ele>
        <time>2021-05-24T05:50:45Z</time>
      </trkpt>
      <trkpt lat="42.8139970" lon="-8.6203490">
        <ele>97.9</ele>
        <time>2021-05-24T05:50:46Z</time>
      </trkpt>
      <trkpt lat="42.8140030" lon="-8.6203380">
        <ele>98.0</ele>
        <time>2021-05-24T05:50:47Z</time>
      </trkpt>
      <trkpt lat="42.8140090" lon="-8.6203250">
        <ele>98.1</ele>
        <time>2021-05-24T05:50:48Z</time>
      </trkpt>
      <trkpt lat="42.8140170" lon="-8.6203200">
        <ele>98.2</ele>
        <time>2021-05-24T05:50:49Z</time>
      </trkpt>
      <trkpt lat="42.8140240" lon="-8.6203140">
        <ele>98.4</ele>
        <time>2021-05-24T05:50:50Z</time>
      </trkpt>
      <trkpt lat="42.8140280" lon="-8.6203070">
        <ele>98.4</ele>
        <time>2021-05-24T05:50:51Z</time>
      </trkpt>
      <trkpt lat="42.8140340" lon="-8.6203050">
        <ele>98.9</ele>
        <time>2021-05-24T05:50:52Z</time>
      </trkpt>
      <trkpt lat="42.8140360" lon="-8.6203110">
        <ele>99.0</ele>
        <time>2021-05-24T05:50:53Z</time>
      </trkpt>
      <trkpt lat="42.8140380" lon="-8.6203120">
        <ele>99.0</ele>
        <time>2021-05-24T05:50:54Z</time>
      </trkpt>
      <trkpt lat="42.8140390" lon="-8.6203140">
        <ele>99.0</ele>
        <time>2021-05-24T05:50:55Z</time>
      </trkpt>
      <trkpt lat="42.8140410" lon="-8.6203150">
        <ele>99.0</ele>
        <time>2021-05-24T05:50:56Z</time>
      </trkpt>
      <trkpt lat="42.8140420" lon="-8.6203170">
        <ele>99.0</ele>
        <time>2021-05-24T05:50:57Z</time>
      </trkpt>
      <trkpt lat="42.8140440" lon="-8.6203180">
        <ele>99.0</ele>
        <time>2021-05-24T05:50:58Z</time>
      </trkpt>
      <trkpt lat="42.8140450" lon="-8.6203200">
        <ele>99.1</ele>
        <time>2021-05-24T05:50:59Z</time>
      </trkpt>
      <trkpt lat="42.8140460" lon="-8.6203220">
        <ele>99.1</ele>
        <time>2021-05-24T05:51:00Z</time>
      </trkpt>
      <trkpt lat="42.8140480" lon="-8.6203230">
        <ele>99.1</ele>
        <time>2021-05-24T05:51:01Z</time>
      </trkpt>
      <trkpt lat="42.8140490" lon="-8.6203250">
        <ele>99.1</ele>
        <time>2021-05-24T05:51:02Z</time>
      </trkpt>
      <trkpt lat="42.8140510" lon="-8.6203260">
        <ele>99.1</ele>
        <time>2021-05-24T05:51:03Z</time>
      </trkpt>
      <trkpt lat="42.8140520" lon="-8.6203280">
        <ele>99.1</ele>
        <time>2021-05-24T05:51:04Z</time>
      </trkpt>
      <trkpt lat="42.8140540" lon="-8.6203290">
        <ele>99.2</ele>
        <time>2021-05-24T05:51:05Z</time>
      </trkpt>
      <trkpt lat="42.8140550" lon="-8.6203310">
        <ele>99.2</ele>
        <time>2021-05-24T05:51:06Z</time>
      </trkpt>
      <trkpt lat="42.8140560" lon="-8.6203330">
        <ele>99.2</ele>
        <time>2021-05-24T05:51:07Z</time>
      </trkpt>
      <trkpt lat="42.8140580" lon="-8.6203340">
        <ele>99.2</ele>
        <time>2021-05-24T05:51:08Z</time>
      </trkpt>
      <trkpt lat="42.8140590" lon="-8.6203360">
        <ele>99.2</ele>
        <time>2021-05-24T05:51:09Z</time>
      </trkpt>
      <trkpt lat="42.8140610" lon="-8.6203370">
        <ele>99.2</ele>
        <time>2021-05-24T05:51:10Z</time>
      </trkpt>
      <trkpt lat="42.8140620" lon="-8.6203390">
        <ele>99.2</ele>
        <time>2021-05-24T05:51:11Z</time>
      </trkpt>
      <trkpt lat="42.8140640" lon="-8.6203400">
        <ele>99.3</ele>
        <time>2021-05-24T05:51:12Z</time>
      </trkpt>
      <trkpt lat="42.8140650" lon="-8.6203420">
        <ele>99.3</ele>
        <time>2021-05-24T05:51:13Z</time>
      </trkpt>
      <trkpt lat="42.8140770" lon="-8.6203520">
        <ele>99.4</ele>
        <time>2021-05-24T05:51:14Z</time>
      </trkpt>
      <trkpt lat="42.8140930" lon="-8.6203630">
        <ele>99.5</ele>
        <time>2021-05-24T05:51:15Z</time>
      </trkpt>
      <trkpt lat="42.8141040" lon="-8.6203710">
        <ele>99.6</ele>
        <time>2021-05-24T05:51:16Z</time>
      </trkpt>
      <trkpt lat="42.8141070" lon="-8.6203770">
        <ele>99.6</ele>
        <time>2021-05-24T05:51:17Z</time>
      </trkpt>
      <trkpt lat="42.8141170" lon="-8.6203860">
        <ele>99.7</ele>
        <time>2021-05-24T05:51:18Z</time>
      </trkpt>
      <trkpt lat="42.8141260" lon="-8.6203950">
        <ele>99.8</ele>
        <time>2021-05-24T05:51:19Z</time>
      </trkpt>
      <trkpt lat="42.8141360" lon="-8.6203990">
        <ele>99.9</ele>
        <time>2021-05-24T05:51:20Z</time>
      </trkpt>
      <trkpt lat="42.8141440" lon="-8.6204020">
        <ele>99.9</ele>
        <time>2021-05-24T05:51:21Z</time>
      </trkpt>
      <trkpt lat="42.8141650" lon="-8.6204060">
        <ele>100.1</ele>
        <time>2021-05-24T05:51:22Z</time>
      </trkpt>
      <trkpt lat="42.8141730" lon="-8.6204110">
        <ele>100.2</ele>
        <time>2021-05-24T05:51:23Z</time>
      </trkpt>
      <trkpt lat="42.8141800" lon="-8.6204150">
        <ele>100.2</ele>
        <time>2021-05-24T05:51:24Z</time>
      </trkpt>
      <trkpt lat="42.8141950" lon="-8.6204120">
        <ele>100.3</ele>
        <time>2021-05-24T05:51:25Z</time>
      </trkpt>
      <trkpt lat="42.8142030" lon="-8.6204120">
        <ele>100.4</ele>
        <time>2021-05-24T05:51:26Z</time>
      </trkpt>
      <trkpt lat="42.8142100" lon="-8.6204110">
        <ele>100.4</ele>
        <time>2021-05-24T05:51:27Z</time>
      </trkpt>
      <trkpt lat="42.8142180" lon="-8.6204100">
        <ele>100.5</ele>
        <time>2021-05-24T05:51:28Z</time>
      </trkpt>
      <trkpt lat="42.8142270" lon="-8.6204110">
        <ele>100.6</ele>
        <time>2021-05-24T05:51:29Z</time>
      </trkpt>
      <trkpt lat="42.8142340" lon="-8.6204110">
        <ele>100.6</ele>
        <time>2021-05-24T05:51:30Z</time>
      </trkpt>
      <trkpt lat="42.8142490" lon="-8.6204050">
        <ele>100.7</ele>
        <time>2021-05-24T05:51:31Z</time>
      </trkpt>
      <trkpt lat="42.8142620" lon="-8.6203910">
        <ele>100.8</ele>
        <time>2021-05-24T05:51:32Z</time>
      </trkpt>
      <trkpt lat="42.8142700" lon="-8.6203810">
        <ele>100.9</ele>
        <time>2021-05-24T05:51:33Z</time>
      </trkpt>
      <trkpt lat="42.8142810" lon="-8.6203720">
        <ele>101.0</ele>
        <time>2021-05-24T05:51:34Z</time>
      </trkpt>
      <trkpt lat="42.8142900" lon="-8.6203730">
        <ele>101.1</ele>
        <time>2021-05-24T05:51:35Z</time>
      </trkpt>
      <trkpt lat="42.8143030" lon="-8.6203640">
        <ele>101.2</ele>
        <time>2021-05-24T05:51:36Z</time>
      </trkpt>
      <trkpt lat="42.8143160" lon="-8.6203600">
        <ele>101.3</ele>
        <time>2021-05-24T05:51:37Z</time>
      </trkpt>
      <trkpt lat="42.8143230" lon="-8.6203580">
        <ele>101.3</ele>
        <time>2021-05-24T05:51:38Z</time>
      </trkpt>
      <trkpt lat="42.8143340" lon="-8.6203560">
        <ele>101.4</ele>
        <time>2021-05-24T05:51:39Z</time>
      </trkpt>
      <trkpt lat="42.8143470" lon="-8.6203480">
        <ele>101.5</ele>
        <time>2021-05-24T05:51:40Z</time>
      </trkpt>
      <trkpt lat="42.8143510" lon="-8.6203400">
        <ele>101.6</ele>
        <time>2021-05-24T05:51:41Z</time>
      </trkpt>
      <trkpt lat="42.8143630" lon="-8.6203310">
        <ele>101.7</ele>
        <time>2021-05-24T05:51:42Z</time>
      </trkpt>
      <trkpt lat="42.8143770" lon="-8.6203170">
        <ele>101.8</ele>
        <time>2021-05-24T05:51:43Z</time>
      </trkpt>
      <trkpt lat="42.8143870" lon="-8.6203080">
        <ele>101.9</ele>
        <time>2021-05-24T05:51:44Z</time>
      </trkpt>
      <trkpt lat="42.8143990" lon="-8.6202920">
        <ele>102.0</ele>
        <time>2021-05-24T05:51:45Z</time>
      </trkpt>
      <trkpt lat="42.8144090" lon="-8.6202810">
        <ele>102.1</ele>
        <time>2021-05-24T05:51:46Z</time>
      </trkpt>
      <trkpt lat="42.8144160" lon="-8.6202700">
        <ele>102.2</ele>
        <time>2021-05-24T05:51:47Z</time>
      </trkpt>
      <trkpt lat="42.8144290" lon="-8.6202650">
        <ele>102.3</ele>
        <time>2021-05-24T05:51:48Z</time>
      </trkpt>
      <trkpt lat="42.8144410" lon="-8.6202590">
        <ele>102.3</ele>
        <time>2021-05-24T05:51:49Z</time>
      </trkpt>
      <trkpt lat="42.8144550" lon="-8.6202660">
        <ele>102.4</ele>
        <time>2021-05-24T05:51:50Z</time>
      </trkpt>
      <trkpt lat="42.8144620" lon="-8.6202780">
        <ele>102.5</ele>
        <time>2021-05-24T05:51:51Z</time>
      </trkpt>
      <trkpt lat="42.8144700" lon="-8.6202710">
        <ele>102.6</ele>
        <time>2021-05-24T05:51:52Z</time>
      </trkpt>
      <trkpt lat="42.8144820" lon="-8.6202640">
        <ele>102.7</ele>
        <time>2021-05-24T05:51:53Z</time>
      </trkpt>
      <trkpt lat="42.8144940" lon="-8.6202590">
        <ele>102.7</ele>
        <time>2021-05-24T05:51:54Z</time>
      </trkpt>
      <trkpt lat="42.8145050" lon="-8.6202600">
        <ele>102.8</ele>
        <time>2021-05-24T05:51:55Z</time>
      </trkpt>
      <trkpt lat="42.8145160" lon="-8.6202550">
        <ele>102.9</ele>
        <time>2021-05-24T05:51:56Z</time>
      </trkpt>
      <trkpt lat="42.8145340" lon="-8.6202540">
        <ele>103.0</ele>
        <time>2021-05-24T05:51:57Z</time>
      </trkpt>
      <trkpt lat="42.8145440" lon="-8.6202480">
        <ele>103.0</ele>
        <time>2021-05-24T05:51:58Z</time>
      </trkpt>
      <trkpt lat="42.8145510" lon="-8.6202390">
        <ele>104.1</ele>
        <time>2021-05-24T05:51:59Z</time>
      </trkpt>
      <trkpt lat="42.8145610" lon="-8.6202370">
        <ele>104.1</ele>
        <time>2021-05-24T05:52:00Z</time>
      </trkpt>
      <trkpt lat="42.8145720" lon="-8.6202350">
        <ele>104.1</ele>
        <time>2021-05-24T05:52:01Z</time>
      </trkpt>
      <trkpt lat="42.8145800" lon="-8.6202440">
        <ele>104.1</ele>
        <time>2021-05-24T05:52:02Z</time>
      </trkpt>
      <trkpt lat="42.8145940" lon="-8.6202440">
        <ele>104.1</ele>
        <time>2021-05-24T05:52:03Z</time>
      </trkpt>
      <trkpt lat="42.8146090" lon="-8.6202430">
        <ele>104.1</ele>
        <time>2021-05-24T05:52:04Z</time>
      </trkpt>
      <trkpt lat="42.8146220" lon="-8.6202450">
        <ele>104.0</ele>
        <time>2021-05-24T05:52:05Z</time>
      </trkpt>
      <trkpt lat="42.8146320" lon="-8.6202470">
        <ele>104.0</ele>
        <time>2021-05-24T05:52:06Z</time>
      </trkpt>
      <trkpt lat="42.8146440" lon="-8.6202560">
        <ele>104.0</ele>
        <time>2021-05-24T05:52:07Z</time>
      </trkpt>
      <trkpt lat="42.8146360" lon="-8.6202780">
        <ele>104.0</ele>
        <time>2021-05-24T05:52:08Z</time>
      </trkpt>
      <trkpt lat="42.8146420" lon="-8.6202900">
        <ele>103.9</ele>
        <time>2021-05-24T05:52:09Z</time>
      </trkpt>
      <trkpt lat="42.8146450" lon="-8.6203060">
        <ele>103.9</ele>
        <time>2021-05-24T05:52:10Z</time>
      </trkpt>
      <trkpt lat="42.8146510" lon="-8.6203190">
        <ele>103.9</ele>
        <time>2021-05-24T05:52:11Z</time>
      </trkpt>
      <trkpt lat="42.8146500" lon="-8.6203290">
        <ele>103.9</ele>
        <time>2021-05-24T05:52:12Z</time>
      </trkpt>
      <trkpt lat="42.8146520" lon="-8.6203430">
        <ele>103.8</ele>
        <time>2021-05-24T05:52:13Z</time>
      </trkpt>
      <trkpt lat="42.8146500" lon="-8.6203420">
        <ele>103.8</ele>
        <time>2021-05-24T05:52:14Z</time>
      </trkpt>
      <trkpt lat="42.8146510" lon="-8.6203540">
        <ele>103.8</ele>
        <time>2021-05-24T05:52:15Z</time>
      </trkpt>
      <trkpt lat="42.8146530" lon="-8.6203600">
        <ele>103.8</ele>
        <time>2021-05-24T05:52:16Z</time>
      </trkpt>
      <trkpt lat="42.8146530" lon="-8.6203780">
        <ele>103.8</ele>
        <time>2021-05-24T05:52:17Z</time>
      </trkpt>
      <trkpt lat="42.8146540" lon="-8.6203930">
        <ele>103.7</ele>
        <time>2021-05-24T05:52:18Z</time>
      </trkpt>
      <trkpt lat="42.8146520" lon="-8.6204030">
        <ele>103.7</ele>
        <time>2021-05-24T05:52:19Z</time>
      </trkpt>
      <trkpt lat="42.8146510" lon="-8.6204150">
        <ele>103.7</ele>
        <time>2021-05-24T05:52:20Z</time>
      </trkpt>
      <trkpt lat="42.8146530" lon="-8.6204440">
        <ele>103.6</ele>
        <time>2021-05-24T05:52:21Z</time>
      </trkpt>
      <trkpt lat="42.8146610" lon="-8.6204590">
        <ele>103.6</ele>
        <time>2021-05-24T05:52:22Z</time>
      </trkpt>
      <trkpt lat="42.8146630" lon="-8.6204770">
        <ele>103.6</ele>
        <time>2021-05-24T05:52:23Z</time>
      </trkpt>
      <trkpt lat="42.8146690" lon="-8.6204820">
        <ele>103.5</ele>
        <time>2021-05-24T05:52:24Z</time>
      </trkpt>
      <trkpt lat="42.8146680" lon="-8.6205000">
        <ele>103.5</ele>
        <time>2021-05-24T05:52:25Z</time>
      </trkpt>
      <trkpt lat="42.8146830" lon="-8.6205230">
        <ele>103.4</ele>
        <time>2021-05-24T05:52:26Z</time>
      </trkpt>
      <trkpt lat="42.8146860" lon="-8.6205510">
        <ele>103.4</ele>
        <time>2021-05-24T05:52:27Z</time>
      </trkpt>
      <trkpt lat="42.8146870" lon="-8.6205630">
        <ele>103.4</ele>
        <time>2021-05-24T05:52:28Z</time>
      </trkpt>
      <trkpt lat="42.8146880" lon="-8.6205750">
        <ele>103.3</ele>
        <time>2021-05-24T05:52:29Z</time>
      </trkpt>
      <trkpt lat="42.8146820" lon="-8.6205980">
        <ele>103.3</ele>
        <time>2021-05-24T05:52:30Z</time>
      </trkpt>
      <trkpt lat="42.8146880" lon="-8.6206010">
        <ele>103.2</ele>
        <time>2021-05-24T05:52:31Z</time>
      </trkpt>
      <trkpt lat="42.8146860" lon="-8.6206220">
        <ele>103.2</ele>
        <time>2021-05-24T05:52:32Z</time>
      </trkpt>
      <trkpt lat="42.8146890" lon="-8.6206350">
        <ele>103.2</ele>
        <time>2021-05-24T05:52:33Z</time>
      </trkpt>
      <trkpt lat="42.8146890" lon="-8.6206520">
        <ele>103.1</ele>
        <time>2021-05-24T05:52:34Z</time>
      </trkpt>
      <trkpt lat="42.8146970" lon="-8.6206590">
        <ele>103.1</ele>
        <time>2021-05-24T05:52:35Z</time>
      </trkpt>
      <trkpt lat="42.8146960" lon="-8.6206980">
        <ele>103.0</ele>
        <time>2021-05-24T05:52:36Z</time>
      </trkpt>
      <trkpt lat="42.8146960" lon="-8.6207090">
        <ele>102.9</ele>
        <time>2021-05-24T05:52:37Z</time>
      </trkpt>
      <trkpt lat="42.8146950" lon="-8.6207290">
        <ele>102.8</ele>
        <time>2021-05-24T05:52:38Z</time>
      </trkpt>
      <trkpt lat="42.8146990" lon="-8.6207430">
        <ele>102.7</ele>
        <time>2021-05-24T05:52:39Z</time>
      </trkpt>
      <trkpt lat="42.8147030" lon="-8.6207530">
        <ele>102.7</ele>
        <time>2021-05-24T05:52:40Z</time>
      </trkpt>
      <trkpt lat="42.8147040" lon="-8.6207770">
        <ele>102.5</ele>
        <time>2021-05-24T05:52:41Z</time>
      </trkpt>
      <trkpt lat="42.8147040" lon="-8.6207900">
        <ele>102.5</ele>
        <time>2021-05-24T05:52:42Z</time>
      </trkpt>
      <trkpt lat="42.8147030" lon="-8.6208040">
        <ele>102.4</ele>
        <time>2021-05-24T05:52:43Z</time>
      </trkpt>
      <trkpt lat="42.8147020" lon="-8.6208180">
        <ele>102.3</ele>
        <time>2021-05-24T05:52:44Z</time>
      </trkpt>
      <trkpt lat="42.8147070" lon="-8.6208360">
        <ele>102.2</ele>
        <time>2021-05-24T05:52:45Z</time>
      </trkpt>
      <trkpt lat="42.8147020" lon="-8.6208520">
        <ele>102.1</ele>
        <time>2021-05-24T05:52:46Z</time>
      </trkpt>
      <trkpt lat="42.8146980" lon="-8.6208610">
        <ele>102.1</ele>
        <time>2021-05-24T05:52:47Z</time>
      </trkpt>
      <trkpt lat="42.8146990" lon="-8.6208800">
        <ele>101.9</ele>
        <time>2021-05-24T05:52:48Z</time>
      </trkpt>
      <trkpt lat="42.8146980" lon="-8.6208940">
        <ele>101.9</ele>
        <time>2021-05-24T05:52:49Z</time>
      </trkpt>
      <trkpt lat="42.8147030" lon="-8.6209030">
        <ele>101.8</ele>
        <time>2021-05-24T05:52:50Z</time>
      </trkpt>
      <trkpt lat="42.8147070" lon="-8.6209290">
        <ele>101.7</ele>
        <time>2021-05-24T05:52:51Z</time>
      </trkpt>
      <trkpt lat="42.8147130" lon="-8.6209590">
        <ele>101.5</ele>
        <time>2021-05-24T05:52:52Z</time>
      </trkpt>
      <trkpt lat="42.8147170" lon="-8.6209710">
        <ele>101.5</ele>
        <time>2021-05-24T05:52:53Z</time>
      </trkpt>
      <trkpt lat="42.8147210" lon="-8.6209830">
        <ele>101.4</ele>
        <time>2021-05-24T05:52:54Z</time>
      </trkpt>
      <trkpt lat="42.8147250" lon="-8.6210030">
        <ele>101.3</ele>
        <time>2021-05-24T05:52:55Z</time>
      </trkpt>
      <trkpt lat="42.8147260" lon="-8.6210220">
        <ele>101.2</ele>
        <time>2021-05-24T05:52:56Z</time>
      </trkpt>
      <trkpt lat="42.8147350" lon="-8.6210360">
        <ele>101.1</ele>
        <time>2021-05-24T05:52:57Z</time>
      </trkpt>
      <trkpt lat="42.8147360" lon="-8.6210610">
        <ele>101.0</ele>
        <time>2021-05-24T05:52:58Z</time>
      </trkpt>
      <trkpt lat="42.8147370" lon="-8.6210860">
        <ele>100.9</ele>
        <time>2021-05-24T05:52:59Z</time>
      </trkpt>
      <trkpt lat="42.8147330" lon="-8.6211030">
        <ele>100.8</ele>
        <time>2021-05-24T05:53:00Z</time>
      </trkpt>
      <trkpt lat="42.8147420" lon="-8.6211170">
        <ele>100.7</ele>
        <time>2021-05-24T05:53:01Z</time>
      </trkpt>
      <trkpt lat="42.8147440" lon="-8.6211290">
        <ele>100.6</ele>
        <time>2021-05-24T05:53:02Z</time>
      </trkpt>
      <trkpt lat="42.8147410" lon="-8.6211400">
        <ele>100.6</ele>
        <time>2021-05-24T05:53:03Z</time>
      </trkpt>
      <trkpt lat="42.8147380" lon="-8.6211480">
        <ele>100.6</ele>
        <time>2021-05-24T05:53:04Z</time>
      </trkpt>
      <trkpt lat="42.8147400" lon="-8.6211610">
        <ele>100.5</ele>
        <time>2021-05-24T05:53:05Z</time>
      </trkpt>
      <trkpt lat="42.8147430" lon="-8.6211720">
        <ele>100.4</ele>
        <time>2021-05-24T05:53:06Z</time>
      </trkpt>
      <trkpt lat="42.8147490" lon="-8.6211890">
        <ele>100.4</ele>
        <time>2021-05-24T05:53:07Z</time>
      </trkpt>
      <trkpt lat="42.8147580" lon="-8.6212110">
        <ele>100.3</ele>
        <time>2021-05-24T05:53:08Z</time>
      </trkpt>
      <trkpt lat="42.8147580" lon="-8.6212150">
        <ele>100.2</ele>
        <time>2021-05-24T05:53:09Z</time>
      </trkpt>
      <trkpt lat="42.8147620" lon="-8.6212340">
        <ele>100.1</ele>
        <time>2021-05-24T05:53:10Z</time>
      </trkpt>
      <trkpt lat="42.8147650" lon="-8.6212480">
        <ele>100.1</ele>
        <time>2021-05-24T05:53:11Z</time>
      </trkpt>
      <trkpt lat="42.8147750" lon="-8.6212680">
        <ele>100.0</ele>
        <time>2021-05-24T05:53:12Z</time>
      </trkpt>
      <trkpt lat="42.8147860" lon="-8.6212770">
        <ele>99.8</ele>
        <time>2021-05-24T05:53:13Z</time>
      </trkpt>
      <trkpt lat="42.8147960" lon="-8.6213000">
        <ele>99.7</ele>
        <time>2021-05-24T05:53:14Z</time>
      </trkpt>
      <trkpt lat="42.8148020" lon="-8.6213290">
        <ele>99.7</ele>
        <time>2021-05-24T05:53:15Z</time>
      </trkpt>
      <trkpt lat="42.8148040" lon="-8.6213400">
        <ele>99.6</ele>
        <time>2021-05-24T05:53:16Z</time>
      </trkpt>
      <trkpt lat="42.8148050" lon="-8.6213520">
        <ele>99.6</ele>
        <time>2021-05-24T05:53:17Z</time>
      </trkpt>
      <trkpt lat="42.8148080" lon="-8.6213730">
        <ele>99.5</ele>
        <time>2021-05-24T05:53:18Z</time>
      </trkpt>
      <trkpt lat="42.8148160" lon="-8.6213930">
        <ele>99.5</ele>
        <time>2021-05-24T05:53:19Z</time>
      </trkpt>
      <trkpt lat="42.8148280" lon="-8.6214060">
        <ele>99.4</ele>
        <time>2021-05-24T05:53:20Z</time>
      </trkpt>
      <trkpt lat="42.8148350" lon="-8.6214070">
        <ele>99.4</ele>
        <time>2021-05-24T05:53:21Z</time>
      </trkpt>
      <trkpt lat="42.8148410" lon="-8.6214070">
        <ele>99.4</ele>
        <time>2021-05-24T05:53:22Z</time>
      </trkpt>
      <trkpt lat="42.8148480" lon="-8.6214080">
        <ele>99.4</ele>
        <time>2021-05-24T05:53:23Z</time>
      </trkpt>
      <trkpt lat="42.8148550" lon="-8.6214080">
        <ele>99.3</ele>
        <time>2021-05-24T05:53:24Z</time>
      </trkpt>
      <trkpt lat="42.8148760" lon="-8.6214200">
        <ele>99.2</ele>
        <time>2021-05-24T05:53:25Z</time>
      </trkpt>
      <trkpt lat="42.8148830" lon="-8.6214250">
        <ele>99.2</ele>
        <time>2021-05-24T05:53:26Z</time>
      </trkpt>
      <trkpt lat="42.8148910" lon="-8.6214310">
        <ele>99.2</ele>
        <time>2021-05-24T05:53:27Z</time>
      </trkpt>
      <trkpt lat="42.8149020" lon="-8.6214440">
        <ele>99.1</ele>
        <time>2021-05-24T05:53:28Z</time>
      </trkpt>
      <trkpt lat="42.8149120" lon="-8.6214600">
        <ele>99.1</ele>
        <time>2021-05-24T05:53:29Z</time>
      </trkpt>
      <trkpt lat="42.8149240" lon="-8.6214790">
        <ele>99.0</ele>
        <time>2021-05-24T05:53:30Z</time>
      </trkpt>
      <trkpt lat="42.8149340" lon="-8.6214980">
        <ele>99.0</ele>
        <time>2021-05-24T05:53:31Z</time>
      </trkpt>
      <trkpt lat="42.8149290" lon="-8.6215040">
        <ele>99.0</ele>
        <time>2021-05-24T05:53:32Z</time>
      </trkpt>
      <trkpt lat="42.8149300" lon="-8.6215260">
        <ele>98.9</ele>
        <time>2021-05-24T05:53:33Z</time>
      </trkpt>
      <trkpt lat="42.8149350" lon="-8.6215430">
        <ele>98.9</ele>
        <time>2021-05-24T05:53:34Z</time>
      </trkpt>
      <trkpt lat="42.8149400" lon="-8.6215550">
        <ele>98.9</ele>
        <time>2021-05-24T05:53:35Z</time>
      </trkpt>
      <trkpt lat="42.8149530" lon="-8.6215710">
        <ele>98.8</ele>
        <time>2021-05-24T05:53:36Z</time>
      </trkpt>
      <trkpt lat="42.8149660" lon="-8.6215790">
        <ele>98.8</ele>
        <time>2021-05-24T05:53:37Z</time>
      </trkpt>
      <trkpt lat="42.8149780" lon="-8.6215970">
        <ele>98.8</ele>
        <time>2021-05-24T05:53:38Z</time>
      </trkpt>
      <trkpt lat="42.8149890" lon="-8.6216080">
        <ele>98.7</ele>
        <time>2021-05-24T05:53:39Z</time>
      </trkpt>
      <trkpt lat="42.8149960" lon="-8.6216200">
        <ele>98.7</ele>
        <time>2021-05-24T05:53:40Z</time>
      </trkpt>
      <trkpt lat="42.8150030" lon="-8.6216290">
        <ele>98.7</ele>
        <time>2021-05-24T05:53:41Z</time>
      </trkpt>
      <trkpt lat="42.8150080" lon="-8.6216420">
        <ele>98.7</ele>
        <time>2021-05-24T05:53:42Z</time>
      </trkpt>
      <trkpt lat="42.8150180" lon="-8.6216540">
        <ele>98.7</ele>
        <time>2021-05-24T05:53:43Z</time>
      </trkpt>
      <trkpt lat="42.8150290" lon="-8.6216630">
        <ele>98.7</ele>
        <time>2021-05-24T05:53:44Z</time>
      </trkpt>
      <trkpt lat="42.8150370" lon="-8.6216760">
        <ele>98.7</ele>
        <time>2021-05-24T05:53:45Z</time>
      </trkpt>
      <trkpt lat="42.8150440" lon="-8.6216750">
        <ele>98.7</ele>
        <time>2021-05-24T05:53:46Z</time>
      </trkpt>
      <trkpt lat="42.8150570" lon="-8.6216850">
        <ele>98.7</ele>
        <time>2021-05-24T05:53:47Z</time>
      </trkpt>
      <trkpt lat="42.8150690" lon="-8.6217000">
        <ele>98.7</ele>
        <time>2021-05-24T05:53:48Z</time>
      </trkpt>
      <trkpt lat="42.8150750" lon="-8.6217050">
        <ele>98.7</ele>
        <time>2021-05-24T05:53:49Z</time>
      </trkpt>
      <trkpt lat="42.8150810" lon="-8.6217110">
        <ele>98.7</ele>
        <time>2021-05-24T05:53:50Z</time>
      </trkpt>
      <trkpt lat="42.8150870" lon="-8.6217160">
        <ele>98.7</ele>
        <time>2021-05-24T05:53:51Z</time>
      </trkpt>
      <trkpt lat="42.8151040" lon="-8.6217270">
        <ele>98.7</ele>
        <time>2021-05-24T05:53:52Z</time>
      </trkpt>
      <trkpt lat="42.8151140" lon="-8.6217340">
        <ele>98.7</ele>
        <time>2021-05-24T05:53:53Z</time>
      </trkpt>
      <trkpt lat="42.8151230" lon="-8.6217400">
        <ele>98.7</ele>
        <time>2021-05-24T05:53:54Z</time>
      </trkpt>
      <trkpt lat="42.8151330" lon="-8.6217480">
        <ele>98.7</ele>
        <time>2021-05-24T05:53:55Z</time>
      </trkpt>
      <trkpt lat="42.8151400" lon="-8.6217520">
        <ele>98.7</ele>
        <time>2021-05-24T05:53:56Z</time>
      </trkpt>
      <trkpt lat="42.8151430" lon="-8.6217520">
        <ele>98.7</ele>
        <time>2021-05-24T05:53:57Z</time>
      </trkpt>
      <trkpt lat="42.8151470" lon="-8.6217470">
        <ele>98.7</ele>
        <time>2021-05-24T05:53:58Z</time>
      </trkpt>
      <trkpt lat="42.8151420" lon="-8.6217410">
        <ele>98.7</ele>
        <time>2021-05-24T05:53:59Z</time>
      </trkpt>
      <trkpt lat="42.8151450" lon="-8.6217440">
        <ele>98.7</ele>
        <time>2021-05-24T05:54:00Z</time>
      </trkpt>
      <trkpt lat="42.8151530" lon="-8.6217510">
        <ele>98.7</ele>
        <time>2021-05-24T05:54:01Z</time>
      </trkpt>
      <trkpt lat="42.8151610" lon="-8.6217580">
        <ele>98.7</ele>
        <time>2021-05-24T05:54:02Z</time>
      </trkpt>
      <trkpt lat="42.8151750" lon="-8.6217680">
        <ele>98.7</ele>
        <time>2021-05-24T05:54:03Z</time>
      </trkpt>
      <trkpt lat="42.8151810" lon="-8.6217750">
        <ele>98.7</ele>
        <time>2021-05-24T05:54:04Z</time>
      </trkpt>
      <trkpt lat="42.8151970" lon="-8.6217930">
        <ele>98.7</ele>
        <time>2021-05-24T05:54:05Z</time>
      </trkpt>
      <trkpt lat="42.8152050" lon="-8.6218020">
        <ele>98.7</ele>
        <time>2021-05-24T05:54:06Z</time>
      </trkpt>
      <trkpt lat="42.8152130" lon="-8.6218100">
        <ele>98.7</ele>
        <time>2021-05-24T05:54:07Z</time>
      </trkpt>
      <trkpt lat="42.8152220" lon="-8.6218240">
        <ele>98.7</ele>
        <time>2021-05-24T05:54:08Z</time>
      </trkpt>
      <trkpt lat="42.8152310" lon="-8.6218320">
        <ele>98.7</ele>
        <time>2021-05-24T05:54:09Z</time>
      </trkpt>
      <trkpt lat="42.8152410" lon="-8.6218400">
        <ele>98.7</ele>
        <time>2021-05-24T05:54:10Z</time>
      </trkpt>
      <trkpt lat="42.8152590" lon="-8.6218580">
        <ele>98.7</ele>
        <time>2021-05-24T05:54:11Z</time>
      </trkpt>
      <trkpt lat="42.8152650" lon="-8.6218660">
        <ele>98.7</ele>
        <time>2021-05-24T05:54:12Z</time>
      </trkpt>
      <trkpt lat="42.8152710" lon="-8.6218730">
        <ele>98.7</ele>
        <time>2021-05-24T05:54:13Z</time>
      </trkpt>
      <trkpt lat="42.8152840" lon="-8.6218820">
        <ele>98.7</ele>
        <time>2021-05-24T05:54:14Z</time>
      </trkpt>
      <trkpt lat="42.8152950" lon="-8.6218930">
        <ele>98.7</ele>
        <time>2021-05-24T05:54:15Z</time>
      </trkpt>
      <trkpt lat="42.8153090" lon="-8.6219000">
        <ele>98.7</ele>
        <time>2021-05-24T05:54:16Z</time>
      </trkpt>
      <trkpt lat="42.8153220" lon="-8.6219090">
        <ele>98.7</ele>
        <time>2021-05-24T05:54:17Z</time>
      </trkpt>
      <trkpt lat="42.8153470" lon="-8.6219120">
        <ele>98.8</ele>
        <time>2021-05-24T05:54:18Z</time>
      </trkpt>
      <trkpt lat="42.8153600" lon="-8.6219170">
        <ele>98.8</ele>
        <time>2021-05-24T05:54:19Z</time>
      </trkpt>
      <trkpt lat="42.8153730" lon="-8.6219200">
        <ele>98.8</ele>
        <time>2021-05-24T05:54:20Z</time>
      </trkpt>
      <trkpt lat="42.8153900" lon="-8.6219260">
        <ele>98.8</ele>
        <time>2021-05-24T05:54:21Z</time>
      </trkpt>
      <trkpt lat="42.8154010" lon="-8.6219400">
        <ele>98.8</ele>
        <time>2021-05-24T05:54:22Z</time>
      </trkpt>
      <trkpt lat="42.8154100" lon="-8.6219560">
        <ele>98.8</ele>
        <time>2021-05-24T05:54:23Z</time>
      </trkpt>
      <trkpt lat="42.8154270" lon="-8.6219640">
        <ele>98.9</ele>
        <time>2021-05-24T05:54:24Z</time>
      </trkpt>
      <trkpt lat="42.8154430" lon="-8.6219710">
        <ele>98.9</ele>
        <time>2021-05-24T05:54:25Z</time>
      </trkpt>
      <trkpt lat="42.8154520" lon="-8.6219920">
        <ele>98.9</ele>
        <time>2021-05-24T05:54:26Z</time>
      </trkpt>
      <trkpt lat="42.8154580" lon="-8.6220030">
        <ele>98.9</ele>
        <time>2021-05-24T05:54:27Z</time>
      </trkpt>
      <trkpt lat="42.8154640" lon="-8.6220130">
        <ele>98.9</ele>
        <time>2021-05-24T05:54:28Z</time>
      </trkpt>
      <trkpt lat="42.8154760" lon="-8.6220300">
        <ele>98.9</ele>
        <time>2021-05-24T05:54:29Z</time>
      </trkpt>
      <trkpt lat="42.8154780" lon="-8.6220450">
        <ele>98.9</ele>
        <time>2021-05-24T05:54:30Z</time>
      </trkpt>
      <trkpt lat="42.8154880" lon="-8.6220570">
        <ele>98.9</ele>
        <time>2021-05-24T05:54:31Z</time>
      </trkpt>
      <trkpt lat="42.8154890" lon="-8.6220720">
        <ele>99.0</ele>
        <time>2021-05-24T05:54:32Z</time>
      </trkpt>
      <trkpt lat="42.8154940" lon="-8.6220810">
        <ele>99.0</ele>
        <time>2021-05-24T05:54:33Z</time>
      </trkpt>
      <trkpt lat="42.8155000" lon="-8.6220910">
        <ele>99.0</ele>
        <time>2021-05-24T05:54:34Z</time>
      </trkpt>
      <trkpt lat="42.8155100" lon="-8.6221100">
        <ele>99.0</ele>
        <time>2021-05-24T05:54:35Z</time>
      </trkpt>
      <trkpt lat="42.8155210" lon="-8.6221150">
        <ele>99.0</ele>
        <time>2021-05-24T05:54:36Z</time>
      </trkpt>
      <trkpt lat="42.8155360" lon="-8.6221320">
        <ele>99.0</ele>
        <time>2021-05-24T05:54:37Z</time>
      </trkpt>
      <trkpt lat="42.8155440" lon="-8.6221390">
        <ele>99.0</ele>
        <time>2021-05-24T05:54:38Z</time>
      </trkpt>
      <trkpt lat="42.8155510" lon="-8.6221460">
        <ele>99.0</ele>
        <time>2021-05-24T05:54:39Z</time>
      </trkpt>
      <trkpt lat="42.8155620" lon="-8.6221570">
        <ele>99.0</ele>
        <time>2021-05-24T05:54:40Z</time>
      </trkpt>
      <trkpt lat="42.8155700" lon="-8.6221570">
        <ele>99.0</ele>
        <time>2021-05-24T05:54:41Z</time>
      </trkpt>
      <trkpt lat="42.8155760" lon="-8.6221560">
        <ele>99.0</ele>
        <time>2021-05-24T05:54:42Z</time>
      </trkpt>
      <trkpt lat="42.8155800" lon="-8.6221570">
        <ele>99.0</ele>
        <time>2021-05-24T05:54:43Z</time>
      </trkpt>
      <trkpt lat="42.8155900" lon="-8.6221580">
        <ele>99.0</ele>
        <time>2021-05-24T05:54:44Z</time>
      </trkpt>
      <trkpt lat="42.8155990" lon="-8.6221670">
        <ele>99.0</ele>
        <time>2021-05-24T05:54:45Z</time>
      </trkpt>
      <trkpt lat="42.8156080" lon="-8.6221610">
        <ele>99.0</ele>
        <time>2021-05-24T05:54:46Z</time>
      </trkpt>
      <trkpt lat="42.8156170" lon="-8.6221590">
        <ele>99.0</ele>
        <time>2021-05-24T05:54:47Z</time>
      </trkpt>
      <trkpt lat="42.8156270" lon="-8.6221560">
        <ele>98.9</ele>
        <time>2021-05-24T05:54:48Z</time>
      </trkpt>
      <trkpt lat="42.8156390" lon="-8.6221590">
        <ele>98.9</ele>
        <time>2021-05-24T05:54:49Z</time>
      </trkpt>
      <trkpt lat="42.8156370" lon="-8.6221560">
        <ele>98.9</ele>
        <time>2021-05-24T05:54:50Z</time>
      </trkpt>
      <trkpt lat="42.8156430" lon="-8.6221570">
        <ele>98.9</ele>
        <time>2021-05-24T05:54:51Z</time>
      </trkpt>
      <trkpt lat="42.8156510" lon="-8.6221590">
        <ele>98.9</ele>
        <time>2021-05-24T05:54:52Z</time>
      </trkpt>
      <trkpt lat="42.8156560" lon="-8.6221510">
        <ele>98.8</ele>
        <time>2021-05-24T05:54:53Z</time>
      </trkpt>
      <trkpt lat="42.8156600" lon="-8.6221440">
        <ele>98.8</ele>
        <time>2021-05-24T05:54:54Z</time>
      </trkpt>
      <trkpt lat="42.8156710" lon="-8.6221420">
        <ele>98.8</ele>
        <time>2021-05-24T05:54:55Z</time>
      </trkpt>
      <trkpt lat="42.8156850" lon="-8.6221370">
        <ele>98.7</ele>
        <time>2021-05-24T05:54:56Z</time>
      </trkpt>
      <trkpt lat="42.8156940" lon="-8.6221410">
        <ele>98.7</ele>
        <time>2021-05-24T05:54:57Z</time>
      </trkpt>
      <trkpt lat="42.8157060" lon="-8.6221350">
        <ele>98.6</ele>
        <time>2021-05-24T05:54:58Z</time>
      </trkpt>
      <trkpt lat="42.8157160" lon="-8.6221320">
        <ele>98.6</ele>
        <time>2021-05-24T05:54:59Z</time>
      </trkpt>
      <trkpt lat="42.8157340" lon="-8.6221300">
        <ele>98.5</ele>
        <time>2021-05-24T05:55:00Z</time>
      </trkpt>
      <trkpt lat="42.8157490" lon="-8.6221290">
        <ele>98.4</ele>
        <time>2021-05-24T05:55:01Z</time>
      </trkpt>
      <trkpt lat="42.8157550" lon="-8.6221290">
        <ele>98.3</ele>
        <time>2021-05-24T05:55:02Z</time>
      </trkpt>
      <trkpt lat="42.8157650" lon="-8.6221320">
        <ele>98.2</ele>
        <time>2021-05-24T05:55:03Z</time>
      </trkpt>
      <trkpt lat="42.8157770" lon="-8.6221300">
        <ele>98.2</ele>
        <time>2021-05-24T05:55:04Z</time>
      </trkpt>
      <trkpt lat="42.8157840" lon="-8.6221260">
        <ele>98.1</ele>
        <time>2021-05-24T05:55:05Z</time>
      </trkpt>
      <trkpt lat="42.8158000" lon="-8.6221210">
        <ele>97.9</ele>
        <time>2021-05-24T05:55:06Z</time>
      </trkpt>
      <trkpt lat="42.8158090" lon="-8.6221220">
        <ele>97.9</ele>
        <time>2021-05-24T05:55:07Z</time>
      </trkpt>
      <trkpt lat="42.8158150" lon="-8.6221240">
        <ele>97.8</ele>
        <time>2021-05-24T05:55:08Z</time>
      </trkpt>
      <trkpt lat="42.8158270" lon="-8.6221300">
        <ele>97.7</ele>
        <time>2021-05-24T05:55:09Z</time>
      </trkpt>
      <trkpt lat="42.8158380" lon="-8.6221320">
        <ele>97.6</ele>
        <time>2021-05-24T05:55:10Z</time>
      </trkpt>
      <trkpt lat="42.8158480" lon="-8.6221340">
        <ele>97.4</ele>
        <time>2021-05-24T05:55:11Z</time>
      </trkpt>
      <trkpt lat="42.8158570" lon="-8.6221350">
        <ele>97.3</ele>
        <time>2021-05-24T05:55:12Z</time>
      </trkpt>
      <trkpt lat="42.8158660" lon="-8.6221370">
        <ele>97.2</ele>
        <time>2021-05-24T05:55:13Z</time>
      </trkpt>
      <trkpt lat="42.8158750" lon="-8.6221360">
        <ele>97.1</ele>
        <time>2021-05-24T05:55:14Z</time>
      </trkpt>
      <trkpt lat="42.8158870" lon="-8.6221380">
        <ele>97.0</ele>
        <time>2021-05-24T05:55:15Z</time>
      </trkpt>
      <trkpt lat="42.8158870" lon="-8.6221340">
        <ele>96.9</ele>
        <time>2021-05-24T05:55:16Z</time>
      </trkpt>
      <trkpt lat="42.8158980" lon="-8.6221340">
        <ele>96.8</ele>
        <time>2021-05-24T05:55:17Z</time>
      </trkpt>
      <trkpt lat="42.8159080" lon="-8.6221370">
        <ele>96.7</ele>
        <time>2021-05-24T05:55:18Z</time>
      </trkpt>
      <trkpt lat="42.8159190" lon="-8.6221420">
        <ele>96.5</ele>
        <time>2021-05-24T05:55:19Z</time>
      </trkpt>
      <trkpt lat="42.8159280" lon="-8.6221450">
        <ele>96.4</ele>
        <time>2021-05-24T05:55:20Z</time>
      </trkpt>
      <trkpt lat="42.8159440" lon="-8.6221450">
        <ele>96.1</ele>
        <time>2021-05-24T05:55:21Z</time>
      </trkpt>
      <trkpt lat="42.8159480" lon="-8.6221400">
        <ele>96.0</ele>
        <time>2021-05-24T05:55:22Z</time>
      </trkpt>
      <trkpt lat="42.8159590" lon="-8.6221440">
        <ele>95.9</ele>
        <time>2021-05-24T05:55:23Z</time>
      </trkpt>
      <trkpt lat="42.8159720" lon="-8.6221460">
        <ele>95.7</ele>
        <time>2021-05-24T05:55:24Z</time>
      </trkpt>
      <trkpt lat="42.8159820" lon="-8.6221380">
        <ele>95.5</ele>
        <time>2021-05-24T05:55:25Z</time>
      </trkpt>
      <trkpt lat="42.8159900" lon="-8.6221240">
        <ele>95.3</ele>
        <time>2021-05-24T05:55:26Z</time>
      </trkpt>
      <trkpt lat="42.8160060" lon="-8.6221140">
        <ele>95.0</ele>
        <time>2021-05-24T05:55:27Z</time>
      </trkpt>
      <trkpt lat="42.8160160" lon="-8.6221060">
        <ele>94.8</ele>
        <time>2021-05-24T05:55:28Z</time>
      </trkpt>
      <trkpt lat="42.8160240" lon="-8.6221060">
        <ele>94.7</ele>
        <time>2021-05-24T05:55:29Z</time>
      </trkpt>
      <trkpt lat="42.8160320" lon="-8.6221060">
        <ele>94.5</ele>
        <time>2021-05-24T05:55:30Z</time>
      </trkpt>
      <trkpt lat="42.8160350" lon="-8.6221050">
        <ele>94.5</ele>
        <time>2021-05-24T05:55:31Z</time>
      </trkpt>
      <trkpt lat="42.8160450" lon="-8.6220980">
        <ele>94.3</ele>
        <time>2021-05-24T05:55:32Z</time>
      </trkpt>
      <trkpt lat="42.8160620" lon="-8.6220790">
        <ele>93.9</ele>
        <time>2021-05-24T05:55:33Z</time>
      </trkpt>
      <trkpt lat="42.8160690" lon="-8.6220740">
        <ele>93.8</ele>
        <time>2021-05-24T05:55:34Z</time>
      </trkpt>
      <trkpt lat="42.8160760" lon="-8.6220700">
        <ele>93.7</ele>
        <time>2021-05-24T05:55:35Z</time>
      </trkpt>
      <trkpt lat="42.8160840" lon="-8.6220680">
        <ele>93.6</ele>
        <time>2021-05-24T05:55:36Z</time>
      </trkpt>
      <trkpt lat="42.8160880" lon="-8.6220550">
        <ele>93.4</ele>
        <time>2021-05-24T05:55:37Z</time>
      </trkpt>
      <trkpt lat="42.8160930" lon="-8.6220390">
        <ele>93.2</ele>
        <time>2021-05-24T05:55:38Z</time>
      </trkpt>
      <trkpt lat="42.8161040" lon="-8.6220280">
        <ele>93.0</ele>
        <time>2021-05-24T05:55:39Z</time>
      </trkpt>
      <trkpt lat="42.8161020" lon="-8.6220150">
        <ele>92.9</ele>
        <time>2021-05-24T05:55:40Z</time>
      </trkpt>
      <trkpt lat="42.8161070" lon="-8.6220060">
        <ele>92.8</ele>
        <time>2021-05-24T05:55:41Z</time>
      </trkpt>
      <trkpt lat="42.8161120" lon="-8.6219860">
        <ele>92.6</ele>
        <time>2021-05-24T05:55:42Z</time>
      </trkpt>
      <trkpt lat="42.8161210" lon="-8.6219730">
        <ele>92.4</ele>
        <time>2021-05-24T05:55:43Z</time>
      </trkpt>
      <trkpt lat="42.8161220" lon="-8.6219610">
        <ele>92.3</ele>
        <time>2021-05-24T05:55:44Z</time>
      </trkpt>
      <trkpt lat="42.8161190" lon="-8.6219490">
        <ele>92.2</ele>
        <time>2021-05-24T05:55:45Z</time>
      </trkpt>
      <trkpt lat="42.8161240" lon="-8.6219350">
        <ele>92.1</ele>
        <time>2021-05-24T05:55:46Z</time>
      </trkpt>
      <trkpt lat="42.8161390" lon="-8.6219080">
        <ele>91.8</ele>
        <time>2021-05-24T05:55:47Z</time>
      </trkpt>
      <trkpt lat="42.8161460" lon="-8.6218950">
        <ele>91.7</ele>
        <time>2021-05-24T05:55:48Z</time>
      </trkpt>
      <trkpt lat="42.8161530" lon="-8.6218820">
        <ele>91.6</ele>
        <time>2021-05-24T05:55:49Z</time>
      </trkpt>
      <trkpt lat="42.8161600" lon="-8.6218730">
        <ele>91.5</ele>
        <time>2021-05-24T05:55:50Z</time>
      </trkpt>
      <trkpt lat="42.8161750" lon="-8.6218530">
        <ele>91.3</ele>
        <time>2021-05-24T05:55:51Z</time>
      </trkpt>
      <trkpt lat="42.8161810" lon="-8.6218460">
        <ele>91.3</ele>
        <time>2021-05-24T05:55:52Z</time>
      </trkpt>
      <trkpt lat="42.8161880" lon="-8.6218310">
        <ele>91.2</ele>
        <time>2021-05-24T05:55:53Z</time>
      </trkpt>
      <trkpt lat="42.8161940" lon="-8.6218150">
        <ele>91.1</ele>
        <time>2021-05-24T05:55:54Z</time>
      </trkpt>
      <trkpt lat="42.8161940" lon="-8.6218040">
        <ele>91.0</ele>
        <time>2021-05-24T05:55:55Z</time>
      </trkpt>
      <trkpt lat="42.8162090" lon="-8.6217900">
        <ele>90.9</ele>
        <time>2021-05-24T05:55:56Z</time>
      </trkpt>
      <trkpt lat="42.8162160" lon="-8.6217780">
        <ele>90.9</ele>
        <time>2021-05-24T05:55:57Z</time>
      </trkpt>
      <trkpt lat="42.8162220" lon="-8.6217700">
        <ele>90.8</ele>
        <time>2021-05-24T05:55:58Z</time>
      </trkpt>
      <trkpt lat="42.8162290" lon="-8.6217640">
        <ele>90.8</ele>
        <time>2021-05-24T05:55:59Z</time>
      </trkpt>
      <trkpt lat="42.8162410" lon="-8.6217460">
        <ele>90.7</ele>
        <time>2021-05-24T05:56:00Z</time>
      </trkpt>
      <trkpt lat="42.8162490" lon="-8.6217390">
        <ele>90.7</ele>
        <time>2021-05-24T05:56:01Z</time>
      </trkpt>
      <trkpt lat="42.8162620" lon="-8.6217300">
        <ele>90.6</ele>
        <time>2021-05-24T05:56:02Z</time>
      </trkpt>
      <trkpt lat="42.8162710" lon="-8.6217250">
        <ele>90.6</ele>
        <time>2021-05-24T05:56:03Z</time>
      </trkpt>
      <trkpt lat="42.8162950" lon="-8.6217100">
        <ele>90.5</ele>
        <time>2021-05-24T05:56:04Z</time>
      </trkpt>
      <trkpt lat="42.8163020" lon="-8.6217040">
        <ele>90.4</ele>
        <time>2021-05-24T05:56:05Z</time>
      </trkpt>
      <trkpt lat="42.8163080" lon="-8.6216990">
        <ele>90.4</ele>
        <time>2021-05-24T05:56:06Z</time>
      </trkpt>
      <trkpt lat="42.8163190" lon="-8.6216910">
        <ele>90.3</ele>
        <time>2021-05-24T05:56:07Z</time>
      </trkpt>
      <trkpt lat="42.8163270" lon="-8.6216780">
        <ele>90.3</ele>
        <time>2021-05-24T05:56:08Z</time>
      </trkpt>
      <trkpt lat="42.8163380" lon="-8.6216720">
        <ele>90.3</ele>
        <time>2021-05-24T05:56:09Z</time>
      </trkpt>
      <trkpt lat="42.8163550" lon="-8.6216620">
        <ele>90.2</ele>
        <time>2021-05-24T05:56:10Z</time>
      </trkpt>
      <trkpt lat="42.8163650" lon="-8.6216510">
        <ele>90.1</ele>
        <time>2021-05-24T05:56:11Z</time>
      </trkpt>
      <trkpt lat="42.8163760" lon="-8.6216390">
        <ele>90.1</ele>
        <time>2021-05-24T05:56:12Z</time>
      </trkpt>
      <trkpt lat="42.8163920" lon="-8.6216230">
        <ele>90.1</ele>
        <time>2021-05-24T05:56:13Z</time>
      </trkpt>
      <trkpt lat="42.8163990" lon="-8.6216170">
        <ele>90.1</ele>
        <time>2021-05-24T05:56:14Z</time>
      </trkpt>
      <trkpt lat="42.8164070" lon="-8.6216100">
        <ele>90.1</ele>
        <time>2021-05-24T05:56:15Z</time>
      </trkpt>
      <trkpt lat="42.8164210" lon="-8.6216060">
        <ele>90.1</ele>
        <time>2021-05-24T05:56:16Z</time>
      </trkpt>
      <trkpt lat="42.8164260" lon="-8.6215940">
        <ele>90.1</ele>
        <time>2021-05-24T05:56:17Z</time>
      </trkpt>
      <trkpt lat="42.8164360" lon="-8.6215840">
        <ele>90.1</ele>
        <time>2021-05-24T05:56:18Z</time>
      </trkpt>
      <trkpt lat="42.8164470" lon="-8.6215870">
        <ele>90.0</ele>
        <time>2021-05-24T05:56:19Z</time>
      </trkpt>
      <trkpt lat="42.8164550" lon="-8.6215820">
        <ele>90.0</ele>
        <time>2021-05-24T05:56:20Z</time>
      </trkpt>
      <trkpt lat="42.8164640" lon="-8.6215760">
        <ele>90.0</ele>
        <time>2021-05-24T05:56:21Z</time>
      </trkpt>
      <trkpt lat="42.8164630" lon="-8.6215720">
        <ele>90.0</ele>
        <time>2021-05-24T05:56:22Z</time>
      </trkpt>
      <trkpt lat="42.8164780" lon="-8.6215670">
        <ele>90.0</ele>
        <time>2021-05-24T05:56:23Z</time>
      </trkpt>
      <trkpt lat="42.8164910" lon="-8.6215620">
        <ele>90.0</ele>
        <time>2021-05-24T05:56:24Z</time>
      </trkpt>
      <trkpt lat="42.8165060" lon="-8.6215490">
        <ele>90.0</ele>
        <time>2021-05-24T05:56:25Z</time>
      </trkpt>
      <trkpt lat="42.8165150" lon="-8.6215400">
        <ele>90.0</ele>
        <time>2021-05-24T05:56:26Z</time>
      </trkpt>
      <trkpt lat="42.8165230" lon="-8.6215320">
        <ele>90.0</ele>
        <time>2021-05-24T05:56:27Z</time>
      </trkpt>
      <trkpt lat="42.8165310" lon="-8.6215300">
        <ele>90.0</ele>
        <time>2021-05-24T05:56:28Z</time>
      </trkpt>
      <trkpt lat="42.8165440" lon="-8.6215180">
        <ele>90.0</ele>
        <time>2021-05-24T05:56:29Z</time>
      </trkpt>
      <trkpt lat="42.8165540" lon="-8.6215150">
        <ele>90.0</ele>
        <time>2021-05-24T05:56:30Z</time>
      </trkpt>
      <trkpt lat="42.8165630" lon="-8.6215000">
        <ele>90.0</ele>
        <time>2021-05-24T05:56:31Z</time>
      </trkpt>
      <trkpt lat="42.8165750" lon="-8.6214900">
        <ele>90.0</ele>
        <time>2021-05-24T05:56:32Z</time>
      </trkpt>
      <trkpt lat="42.8165830" lon="-8.6214880">
        <ele>90.0</ele>
        <time>2021-05-24T05:56:33Z</time>
      </trkpt>
      <trkpt lat="42.8165930" lon="-8.6214770">
        <ele>90.0</ele>
        <time>2021-05-24T05:56:34Z</time>
      </trkpt>
      <trkpt lat="42.8166030" lon="-8.6214660">
        <ele>90.0</ele>
        <time>2021-05-24T05:56:35Z</time>
      </trkpt>
      <trkpt lat="42.8166130" lon="-8.6214540">
        <ele>90.0</ele>
        <time>2021-05-24T05:56:36Z</time>
      </trkpt>
      <trkpt lat="42.8166270" lon="-8.6214420">
        <ele>90.0</ele>
        <time>2021-05-24T05:56:37Z</time>
      </trkpt>
      <trkpt lat="42.8166460" lon="-8.6214340">
        <ele>90.0</ele>
        <time>2021-05-24T05:56:38Z</time>
      </trkpt>
      <trkpt lat="42.8166550" lon="-8.6214270">
        <ele>90.0</ele>
        <time>2021-05-24T05:56:39Z</time>
      </trkpt>
      <trkpt lat="42.8166630" lon="-8.6214210">
        <ele>90.0</ele>
        <time>2021-05-24T05:56:40Z</time>
      </trkpt>
      <trkpt lat="42.8166740" lon="-8.6214190">
        <ele>90.0</ele>
        <time>2021-05-24T05:56:41Z</time>
      </trkpt>
      <trkpt lat="42.8166920" lon="-8.6214140">
        <ele>90.0</ele>
        <time>2021-05-24T05:56:42Z</time>
      </trkpt>
      <trkpt lat="42.8167060" lon="-8.6213990">
        <ele>90.1</ele>
        <time>2021-05-24T05:56:43Z</time>
      </trkpt>
      <trkpt lat="42.8167150" lon="-8.6213950">
        <ele>90.1</ele>
        <time>2021-05-24T05:56:44Z</time>
      </trkpt>
      <trkpt lat="42.8167300" lon="-8.6213810">
        <ele>90.1</ele>
        <time>2021-05-24T05:56:45Z</time>
      </trkpt>
      <trkpt lat="42.8167380" lon="-8.6213740">
        <ele>90.1</ele>
        <time>2021-05-24T05:56:46Z</time>
      </trkpt>
      <trkpt lat="42.8167470" lon="-8.6213680">
        <ele>90.1</ele>
        <time>2021-05-24T05:56:47Z</time>
      </trkpt>
      <trkpt lat="42.8167650" lon="-8.6213530">
        <ele>90.2</ele>
        <time>2021-05-24T05:56:48Z</time>
      </trkpt>
      <trkpt lat="42.8167730" lon="-8.6213480">
        <ele>90.2</ele>
        <time>2021-05-24T05:56:49Z</time>
      </trkpt>
      <trkpt lat="42.8167800" lon="-8.6213430">
        <ele>90.2</ele>
        <time>2021-05-24T05:56:50Z</time>
      </trkpt>
      <trkpt lat="42.8167860" lon="-8.6213330">
        <ele>90.2</ele>
        <time>2021-05-24T05:56:51Z</time>
      </trkpt>
      <trkpt lat="42.8167970" lon="-8.6213170">
        <ele>90.3</ele>
        <time>2021-05-24T05:56:52Z</time>
      </trkpt>
      <trkpt lat="42.8168060" lon="-8.6213160">
        <ele>90.3</ele>
        <time>2021-05-24T05:56:53Z</time>
      </trkpt>
      <trkpt lat="42.8168310" lon="-8.6213070">
        <ele>90.4</ele>
        <time>2021-05-24T05:56:54Z</time>
      </trkpt>
      <trkpt lat="42.8168380" lon="-8.6213010">
        <ele>90.4</ele>
        <time>2021-05-24T05:56:55Z</time>
      </trkpt>
      <trkpt lat="42.8168460" lon="-8.6212950">
        <ele>90.4</ele>
        <time>2021-05-24T05:56:56Z</time>
      </trkpt>
      <trkpt lat="42.8168680" lon="-8.6212850">
        <ele>90.5</ele>
        <time>2021-05-24T05:56:57Z</time>
      </trkpt>
      <trkpt lat="42.8168730" lon="-8.6212830">
        <ele>90.5</ele>
        <time>2021-05-24T05:56:58Z</time>
      </trkpt>
      <trkpt lat="42.8168890" lon="-8.6212810">
        <ele>90.5</ele>
        <time>2021-05-24T05:56:59Z</time>
      </trkpt>
      <trkpt lat="42.8169040" lon="-8.6212770">
        <ele>90.6</ele>
        <time>2021-05-24T05:57:00Z</time>
      </trkpt>
      <trkpt lat="42.8169300" lon="-8.6212840">
        <ele>90.7</ele>
        <time>2021-05-24T05:57:01Z</time>
      </trkpt>
      <trkpt lat="42.8169360" lon="-8.6212890">
        <ele>90.7</ele>
        <time>2021-05-24T05:57:02Z</time>
      </trkpt>
      <trkpt lat="42.8169410" lon="-8.6212930">
        <ele>90.7</ele>
        <time>2021-05-24T05:57:03Z</time>
      </trkpt>
      <trkpt lat="42.8169550" lon="-8.6212940">
        <ele>90.8</ele>
        <time>2021-05-24T05:57:04Z</time>
      </trkpt>
      <trkpt lat="42.8169730" lon="-8.6212970">
        <ele>90.8</ele>
        <time>2021-05-24T05:57:05Z</time>
      </trkpt>
      <trkpt lat="42.8169890" lon="-8.6212930">
        <ele>90.9</ele>
        <time>2021-05-24T05:57:06Z</time>
      </trkpt>
      <trkpt lat="42.8169960" lon="-8.6212910">
        <ele>90.9</ele>
        <time>2021-05-24T05:57:07Z</time>
      </trkpt>
      <trkpt lat="42.8170060" lon="-8.6212890">
        <ele>91.0</ele>
        <time>2021-05-24T05:57:08Z</time>
      </trkpt>
      <trkpt lat="42.8170370" lon="-8.6212810">
        <ele>91.1</ele>
        <time>2021-05-24T05:57:09Z</time>
      </trkpt>
      <trkpt lat="42.8170460" lon="-8.6212790">
        <ele>91.2</ele>
        <time>2021-05-24T05:57:10Z</time>
      </trkpt>
      <trkpt lat="42.8170610" lon="-8.6212790">
        <ele>91.2</ele>
        <time>2021-05-24T05:57:11Z</time>
      </trkpt>
      <trkpt lat="42.8170770" lon="-8.6212780">
        <ele>91.3</ele>
        <time>2021-05-24T05:57:12Z</time>
      </trkpt>
      <trkpt lat="42.8170930" lon="-8.6212810">
        <ele>91.3</ele>
        <time>2021-05-24T05:57:13Z</time>
      </trkpt>
      <trkpt lat="42.8171080" lon="-8.6212830">
        <ele>91.4</ele>
        <time>2021-05-24T05:57:14Z</time>
      </trkpt>
      <trkpt lat="42.8171400" lon="-8.6212750">
        <ele>91.5</ele>
        <time>2021-05-24T05:57:15Z</time>
      </trkpt>
      <trkpt lat="42.8171480" lon="-8.6212740">
        <ele>91.5</ele>
        <time>2021-05-24T05:57:16Z</time>
      </trkpt>
      <trkpt lat="42.8171640" lon="-8.6212730">
        <ele>91.6</ele>
        <time>2021-05-24T05:57:17Z</time>
      </trkpt>
      <trkpt lat="42.8171800" lon="-8.6212730">
        <ele>91.7</ele>
        <time>2021-05-24T05:57:18Z</time>
      </trkpt>
      <trkpt lat="42.8171970" lon="-8.6212710">
        <ele>91.7</ele>
        <time>2021-05-24T05:57:19Z</time>
      </trkpt>
      <trkpt lat="42.8172160" lon="-8.6212720">
        <ele>91.8</ele>
        <time>2021-05-24T05:57:20Z</time>
      </trkpt>
      <trkpt lat="42.8172320" lon="-8.6212640">
        <ele>91.9</ele>
        <time>2021-05-24T05:57:21Z</time>
      </trkpt>
      <trkpt lat="42.8172500" lon="-8.6212670">
        <ele>92.0</ele>
        <time>2021-05-24T05:57:22Z</time>
      </trkpt>
      <trkpt lat="42.8172660" lon="-8.6212530">
        <ele>92.1</ele>
        <time>2021-05-24T05:57:23Z</time>
      </trkpt>
      <trkpt lat="42.8172770" lon="-8.6212470">
        <ele>92.1</ele>
        <time>2021-05-24T05:57:24Z</time>
      </trkpt>
      <trkpt lat="42.8172880" lon="-8.6212410">
        <ele>92.2</ele>
        <time>2021-05-24T05:57:25Z</time>
      </trkpt>
      <trkpt lat="42.8172900" lon="-8.6212400">
        <ele>92.2</ele>
        <time>2021-05-24T05:57:26Z</time>
      </trkpt>
      <trkpt lat="42.8172970" lon="-8.6212330">
        <ele>92.2</ele>
        <time>2021-05-24T05:57:27Z</time>
      </trkpt>
      <trkpt lat="42.8173040" lon="-8.6212220">
        <ele>92.3</ele>
        <time>2021-05-24T05:57:28Z</time>
      </trkpt>
      <trkpt lat="42.8173280" lon="-8.6212190">
        <ele>92.4</ele>
        <time>2021-05-24T05:57:29Z</time>
      </trkpt>
      <trkpt lat="42.8173390" lon="-8.6212190">
        <ele>92.4</ele>
        <time>2021-05-24T05:57:30Z</time>
      </trkpt>
      <trkpt lat="42.8173490" lon="-8.6212180">
        <ele>92.5</ele>
        <time>2021-05-24T05:57:31Z</time>
      </trkpt>
      <trkpt lat="42.8173620" lon="-8.6212120">
        <ele>92.5</ele>
        <time>2021-05-24T05:57:32Z</time>
      </trkpt>
      <trkpt lat="42.8173770" lon="-8.6212060">
        <ele>92.6</ele>
        <time>2021-05-24T05:57:33Z</time>
      </trkpt>
      <trkpt lat="42.8173900" lon="-8.6212030">
        <ele>92.7</ele>
        <time>2021-05-24T05:57:34Z</time>
      </trkpt>
      <trkpt lat="42.8174080" lon="-8.6212020">
        <ele>92.8</ele>
        <time>2021-05-24T05:57:35Z</time>
      </trkpt>
      <trkpt lat="42.8174340" lon="-8.6212080">
        <ele>92.9</ele>
        <time>2021-05-24T05:57:36Z</time>
      </trkpt>
      <trkpt lat="42.8174480" lon="-8.6212120">
        <ele>93.0</ele>
        <time>2021-05-24T05:57:37Z</time>
      </trkpt>
      <trkpt lat="42.8174620" lon="-8.6212140">
        <ele>93.0</ele>
        <time>2021-05-24T05:57:38Z</time>
      </trkpt>
      <trkpt lat="42.8174800" lon="-8.6212010">
        <ele>93.1</ele>
        <time>2021-05-24T05:57:39Z</time>
      </trkpt>
      <trkpt lat="42.8174990" lon="-8.6211980">
        <ele>93.2</ele>
        <time>2021-05-24T05:57:40Z</time>
      </trkpt>
      <trkpt lat="42.8175140" lon="-8.6211950">
        <ele>93.3</ele>
        <time>2021-05-24T05:57:41Z</time>
      </trkpt>
      <trkpt lat="42.8175340" lon="-8.6211860">
        <ele>93.5</ele>
        <time>2021-05-24T05:57:42Z</time>
      </trkpt>
      <trkpt lat="42.8175410" lon="-8.6211800">
        <ele>93.5</ele>
        <time>2021-05-24T05:57:43Z</time>
      </trkpt>
      <trkpt lat="42.8175470" lon="-8.6211740">
        <ele>93.5</ele>
        <time>2021-05-24T05:57:44Z</time>
      </trkpt>
      <trkpt lat="42.8175660" lon="-8.6211700">
        <ele>93.7</ele>
        <time>2021-05-24T05:57:45Z</time>
      </trkpt>
      <trkpt lat="42.8175710" lon="-8.6211660">
        <ele>93.7</ele>
        <time>2021-05-24T05:57:46Z</time>
      </trkpt>
      <trkpt lat="42.8175750" lon="-8.6211630">
        <ele>93.7</ele>
        <time>2021-05-24T05:57:47Z</time>
      </trkpt>
      <trkpt lat="42.8175800" lon="-8.6211590">
        <ele>93.8</ele>
        <time>2021-05-24T05:57:48Z</time>
      </trkpt>
      <trkpt lat="42.8175850" lon="-8.6211550">
        <ele>93.8</ele>
        <time>2021-05-24T05:57:49Z</time>
      </trkpt>
      <trkpt lat="42.8176020" lon="-8.6211660">
        <ele>93.9</ele>
        <time>2021-05-24T05:57:50Z</time>
      </trkpt>
      <trkpt lat="42.8176090" lon="-8.6211650">
        <ele>94.0</ele>
        <time>2021-05-24T05:57:51Z</time>
      </trkpt>
      <trkpt lat="42.8176170" lon="-8.6211650">
        <ele>94.0</ele>
        <time>2021-05-24T05:57:52Z</time>
      </trkpt>
      <trkpt lat="42.8176240" lon="-8.6211640">
        <ele>94.1</ele>
        <time>2021-05-24T05:57:53Z</time>
      </trkpt>
      <trkpt lat="42.8176310" lon="-8.6211640">
        <ele>94.1</ele>
        <time>2021-05-24T05:57:54Z</time>
      </trkpt>
      <trkpt lat="42.8176430" lon="-8.6211660">
        <ele>94.2</ele>
        <time>2021-05-24T05:57:55Z</time>
      </trkpt>
      <trkpt lat="42.8176450" lon="-8.6211650">
        <ele>94.2</ele>
        <time>2021-05-24T05:57:56Z</time>
      </trkpt>
      <trkpt lat="42.8176470" lon="-8.6211630">
        <ele>94.2</ele>
        <time>2021-05-24T05:57:57Z</time>
      </trkpt>
      <trkpt lat="42.8176490" lon="-8.6211620">
        <ele>94.3</ele>
        <time>2021-05-24T05:57:58Z</time>
      </trkpt>
      <trkpt lat="42.8176510" lon="-8.6211610">
        <ele>94.3</ele>
        <time>2021-05-24T05:57:59Z</time>
      </trkpt>
      <trkpt lat="42.8176530" lon="-8.6211600">
        <ele>94.3</ele>
        <time>2021-05-24T05:58:00Z</time>
      </trkpt>
      <trkpt lat="42.8176550" lon="-8.6211590">
        <ele>94.3</ele>
        <time>2021-05-24T05:58:01Z</time>
      </trkpt>
      <trkpt lat="42.8176560" lon="-8.6211570">
        <ele>94.3</ele>
        <time>2021-05-24T05:58:02Z</time>
      </trkpt>
      <trkpt lat="42.8176580" lon="-8.6211560">
        <ele>94.3</ele>
        <time>2021-05-24T05:58:03Z</time>
      </trkpt>
      <trkpt lat="42.8176600" lon="-8.6211550">
        <ele>94.4</ele>
        <time>2021-05-24T05:58:04Z</time>
      </trkpt>
      <trkpt lat="42.8176620" lon="-8.6211540">
        <ele>94.4</ele>
        <time>2021-05-24T05:58:05Z</time>
      </trkpt>
      <trkpt lat="42.8176640" lon="-8.6211520">
        <ele>94.4</ele>
        <time>2021-05-24T05:58:06Z</time>
      </trkpt>
      <trkpt lat="42.8176660" lon="-8.6211510">
        <ele>94.4</ele>
        <time>2021-05-24T05:58:07Z</time>
      </trkpt>
      <trkpt lat="42.8176680" lon="-8.6211500">
        <ele>94.4</ele>
        <time>2021-05-24T05:58:08Z</time>
      </trkpt>
      <trkpt lat="42.8176810" lon="-8.6211450">
        <ele>94.5</ele>
        <time>2021-05-24T05:58:09Z</time>
      </trkpt>
      <trkpt lat="42.8176950" lon="-8.6211470">
        <ele>94.6</ele>
        <time>2021-05-24T05:58:10Z</time>
      </trkpt>
      <trkpt lat="42.8177020" lon="-8.6211390">
        <ele>94.7</ele>
        <time>2021-05-24T05:58:11Z</time>
      </trkpt>
      <trkpt lat="42.8177150" lon="-8.6211280">
        <ele>94.8</ele>
        <time>2021-05-24T05:58:12Z</time>
      </trkpt>
      <trkpt lat="42.8177230" lon="-8.6211270">
        <ele>94.9</ele>
        <time>2021-05-24T05:58:13Z</time>
      </trkpt>
      <trkpt lat="42.8177320" lon="-8.6211290">
        <ele>95.0</ele>
        <time>2021-05-24T05:58:14Z</time>
      </trkpt>
      <trkpt lat="42.8177440" lon="-8.6211220">
        <ele>95.1</ele>
        <time>2021-05-24T05:58:15Z</time>
      </trkpt>
      <trkpt lat="42.8177520" lon="-8.6211110">
        <ele>95.2</ele>
        <time>2021-05-24T05:58:16Z</time>
      </trkpt>
      <trkpt lat="42.8177640" lon="-8.6210950">
        <ele>95.3</ele>
        <time>2021-05-24T05:58:17Z</time>
      </trkpt>
      <trkpt lat="42.8177820" lon="-8.6210900">
        <ele>95.5</ele>
        <time>2021-05-24T05:58:18Z</time>
      </trkpt>
      <trkpt lat="42.8177960" lon="-8.6210830">
        <ele>95.6</ele>
        <time>2021-05-24T05:58:19Z</time>
      </trkpt>
      <trkpt lat="42.8178140" lon="-8.6210750">
        <ele>95.8</ele>
        <time>2021-05-24T05:58:20Z</time>
      </trkpt>
      <trkpt lat="42.8178240" lon="-8.6210630">
        <ele>95.9</ele>
        <time>2021-05-24T05:58:21Z</time>
      </trkpt>
      <trkpt lat="42.8178450" lon="-8.6210610">
        <ele>96.1</ele>
        <time>2021-05-24T05:58:22Z</time>
      </trkpt>
      <trkpt lat="42.8178590" lon="-8.6210550">
        <ele>96.2</ele>
        <time>2021-05-24T05:58:23Z</time>
      </trkpt>
      <trkpt lat="42.8178730" lon="-8.6210510">
        <ele>96.4</ele>
        <time>2021-05-24T05:58:24Z</time>
      </trkpt>
      <trkpt lat="42.8178890" lon="-8.6210410">
        <ele>96.6</ele>
        <time>2021-05-24T05:58:25Z</time>
      </trkpt>
      <trkpt lat="42.8178990" lon="-8.6210350">
        <ele>96.7</ele>
        <time>2021-05-24T05:58:26Z</time>
      </trkpt>
      <trkpt lat="42.8179080" lon="-8.6210300">
        <ele>96.8</ele>
        <time>2021-05-24T05:58:27Z</time>
      </trkpt>
      <trkpt lat="42.8179220" lon="-8.6210220">
        <ele>96.9</ele>
        <time>2021-05-24T05:58:28Z</time>
      </trkpt>
      <trkpt lat="42.8179360" lon="-8.6210130">
        <ele>97.1</ele>
        <time>2021-05-24T05:58:29Z</time>
      </trkpt>
      <trkpt lat="42.8179490" lon="-8.6210020">
        <ele>97.3</ele>
        <time>2021-05-24T05:58:30Z</time>
      </trkpt>
      <trkpt lat="42.8179560" lon="-8.6209920">
        <ele>97.4</ele>
        <time>2021-05-24T05:58:31Z</time>
      </trkpt>
      <trkpt lat="42.8179630" lon="-8.6209900">
        <ele>97.4</ele>
        <time>2021-05-24T05:58:32Z</time>
      </trkpt>
      <trkpt lat="42.8179760" lon="-8.6209800">
        <ele>97.6</ele>
        <time>2021-05-24T05:58:33Z</time>
      </trkpt>
      <trkpt lat="42.8179910" lon="-8.6209740">
        <ele>97.8</ele>
        <time>2021-05-24T05:58:34Z</time>
      </trkpt>
      <trkpt lat="42.8180000" lon="-8.6209650">
        <ele>97.9</ele>
        <time>2021-05-24T05:58:35Z</time>
      </trkpt>
      <trkpt lat="42.8180070" lon="-8.6209550">
        <ele>98.0</ele>
        <time>2021-05-24T05:58:36Z</time>
      </trkpt>
      <trkpt lat="42.8180180" lon="-8.6209450">
        <ele>98.2</ele>
        <time>2021-05-24T05:58:37Z</time>
      </trkpt>
      <trkpt lat="42.8180320" lon="-8.6209340">
        <ele>98.4</ele>
        <time>2021-05-24T05:58:38Z</time>
      </trkpt>
      <trkpt lat="42.8180410" lon="-8.6209240">
        <ele>98.5</ele>
        <time>2021-05-24T05:58:39Z</time>
      </trkpt>
      <trkpt lat="42.8180520" lon="-8.6209160">
        <ele>98.7</ele>
        <time>2021-05-24T05:58:40Z</time>
      </trkpt>
      <trkpt lat="42.8180620" lon="-8.6209040">
        <ele>98.8</ele>
        <time>2021-05-24T05:58:41Z</time>
      </trkpt>
      <trkpt lat="42.8180700" lon="-8.6208990">
        <ele>99.0</ele>
        <time>2021-05-24T05:58:42Z</time>
      </trkpt>
      <trkpt lat="42.8180780" lon="-8.6208870">
        <ele>99.1</ele>
        <time>2021-05-24T05:58:43Z</time>
      </trkpt>
      <trkpt lat="42.8180890" lon="-8.6208780">
        <ele>99.3</ele>
        <time>2021-05-24T05:58:44Z</time>
      </trkpt>
      <trkpt lat="42.8180960" lon="-8.6208670">
        <ele>99.4</ele>
        <time>2021-05-24T05:58:45Z</time>
      </trkpt>
      <trkpt lat="42.8180990" lon="-8.6208600">
        <ele>99.5</ele>
        <time>2021-05-24T05:58:46Z</time>
      </trkpt>
      <trkpt lat="42.8181080" lon="-8.6208420">
        <ele>99.7</ele>
        <time>2021-05-24T05:58:47Z</time>
      </trkpt>
      <trkpt lat="42.8181160" lon="-8.6208370">
        <ele>99.8</ele>
        <time>2021-05-24T05:58:48Z</time>
      </trkpt>
      <trkpt lat="42.8181240" lon="-8.6208270">
        <ele>100.0</ele>
        <time>2021-05-24T05:58:49Z</time>
      </trkpt>
      <trkpt lat="42.8181320" lon="-8.6208190">
        <ele>100.1</ele>
        <time>2021-05-24T05:58:50Z</time>
      </trkpt>
      <trkpt lat="42.8181420" lon="-8.6208060">
        <ele>100.3</ele>
        <time>2021-05-24T05:58:51Z</time>
      </trkpt>
      <trkpt lat="42.8181470" lon="-8.6207930">
        <ele>100.4</ele>
        <time>2021-05-24T05:58:52Z</time>
      </trkpt>
      <trkpt lat="42.8181570" lon="-8.6207850">
        <ele>100.6</ele>
        <time>2021-05-24T05:58:53Z</time>
      </trkpt>
      <trkpt lat="42.8181650" lon="-8.6207810">
        <ele>100.7</ele>
        <time>2021-05-24T05:58:54Z</time>
      </trkpt>
      <trkpt lat="42.8181730" lon="-8.6207720">
        <ele>100.8</ele>
        <time>2021-05-24T05:58:55Z</time>
      </trkpt>
      <trkpt lat="42.8181820" lon="-8.6207620">
        <ele>101.0</ele>
        <time>2021-05-24T05:58:56Z</time>
      </trkpt>
      <trkpt lat="42.8181930" lon="-8.6207510">
        <ele>101.1</ele>
        <time>2021-05-24T05:58:57Z</time>
      </trkpt>
      <trkpt lat="42.8181930" lon="-8.6207350">
        <ele>101.3</ele>
        <time>2021-05-24T05:58:58Z</time>
      </trkpt>
      <trkpt lat="42.8181980" lon="-8.6207250">
        <ele>101.4</ele>
        <time>2021-05-24T05:58:59Z</time>
      </trkpt>
      <trkpt lat="42.8182040" lon="-8.6207140">
        <ele>101.5</ele>
        <time>2021-05-24T05:59:00Z</time>
      </trkpt>
      <trkpt lat="42.8182130" lon="-8.6207050">
        <ele>101.7</ele>
        <time>2021-05-24T05:59:01Z</time>
      </trkpt>
      <trkpt lat="42.8182190" lon="-8.6206980">
        <ele>101.8</ele>
        <time>2021-05-24T05:59:02Z</time>
      </trkpt>
      <trkpt lat="42.8182280" lon="-8.6206920">
        <ele>101.9</ele>
        <time>2021-05-24T05:59:03Z</time>
      </trkpt>
      <trkpt lat="42.8182380" lon="-8.6206830">
        <ele>102.1</ele>
        <time>2021-05-24T05:59:04Z</time>
      </trkpt>
      <trkpt lat="42.8182410" lon="-8.6206760">
        <ele>102.2</ele>
        <time>2021-05-24T05:59:05Z</time>
      </trkpt>
      <trkpt lat="42.8182440" lon="-8.6206620">
        <ele>102.3</ele>
        <time>2021-05-24T05:59:06Z</time>
      </trkpt>
      <trkpt lat="42.8182510" lon="-8.6206550">
        <ele>102.4</ele>
        <time>2021-05-24T05:59:07Z</time>
      </trkpt>
      <trkpt lat="42.8182560" lon="-8.6206440">
        <ele>102.6</ele>
        <time>2021-05-24T05:59:08Z</time>
      </trkpt>
      <trkpt lat="42.8182640" lon="-8.6206320">
        <ele>102.7</ele>
        <time>2021-05-24T05:59:09Z</time>
      </trkpt>
      <trkpt lat="42.8182840" lon="-8.6206150">
        <ele>103.0</ele>
        <time>2021-05-24T05:59:10Z</time>
      </trkpt>
      <trkpt lat="42.8182930" lon="-8.6206090">
        <ele>103.2</ele>
        <time>2021-05-24T05:59:11Z</time>
      </trkpt>
      <trkpt lat="42.8183010" lon="-8.6206040">
        <ele>103.3</ele>
        <time>2021-05-24T05:59:12Z</time>
      </trkpt>
      <trkpt lat="42.8182970" lon="-8.6206070">
        <ele>103.4</ele>
        <time>2021-05-24T05:59:13Z</time>
      </trkpt>
      <trkpt lat="42.8183030" lon="-8.6206050">
        <ele>103.4</ele>
        <time>2021-05-24T05:59:14Z</time>
      </trkpt>
      <trkpt lat="42.8183110" lon="-8.6205960">
        <ele>103.6</ele>
        <time>2021-05-24T05:59:15Z</time>
      </trkpt>
      <trkpt lat="42.8183160" lon="-8.6205920">
        <ele>103.7</ele>
        <time>2021-05-24T05:59:16Z</time>
      </trkpt>
      <trkpt lat="42.8183230" lon="-8.6205910">
        <ele>103.8</ele>
        <time>2021-05-24T05:59:17Z</time>
      </trkpt>
      <trkpt lat="42.8183270" lon="-8.6205870">
        <ele>103.8</ele>
        <time>2021-05-24T05:59:18Z</time>
      </trkpt>
      <trkpt lat="42.8183340" lon="-8.6205820">
        <ele>104.0</ele>
        <time>2021-05-24T05:59:19Z</time>
      </trkpt>
      <trkpt lat="42.8183400" lon="-8.6205800">
        <ele>104.0</ele>
        <time>2021-05-24T05:59:20Z</time>
      </trkpt>
      <trkpt lat="42.8183440" lon="-8.6205700">
        <ele>104.2</ele>
        <time>2021-05-24T05:59:21Z</time>
      </trkpt>
      <trkpt lat="42.8183540" lon="-8.6205670">
        <ele>104.3</ele>
        <time>2021-05-24T05:59:22Z</time>
      </trkpt>
      <trkpt lat="42.8183650" lon="-8.6205520">
        <ele>104.5</ele>
        <time>2021-05-24T05:59:23Z</time>
      </trkpt>
      <trkpt lat="42.8183700" lon="-8.6205480">
        <ele>104.6</ele>
        <time>2021-05-24T05:59:24Z</time>
      </trkpt>
      <trkpt lat="42.8183710" lon="-8.6205460">
        <ele>104.6</ele>
        <time>2021-05-24T05:59:25Z</time>
      </trkpt>
      <trkpt lat="42.8183780" lon="-8.6205380">
        <ele>104.8</ele>
        <time>2021-05-24T05:59:26Z</time>
      </trkpt>
      <trkpt lat="42.8183850" lon="-8.6205290">
        <ele>104.9</ele>
        <time>2021-05-24T05:59:27Z</time>
      </trkpt>
      <trkpt lat="42.8183950" lon="-8.6205190">
        <ele>105.1</ele>
        <time>2021-05-24T05:59:28Z</time>
      </trkpt>
      <trkpt lat="42.8184100" lon="-8.6205180">
        <ele>105.3</ele>
        <time>2021-05-24T05:59:29Z</time>
      </trkpt>
      <trkpt lat="42.8184330" lon="-8.6205130">
        <ele>105.6</ele>
        <time>2021-05-24T05:59:30Z</time>
      </trkpt>
      <trkpt lat="42.8184410" lon="-8.6205080">
        <ele>105.8</ele>
        <time>2021-05-24T05:59:31Z</time>
      </trkpt>
      <trkpt lat="42.8184500" lon="-8.6205030">
        <ele>105.9</ele>
        <time>2021-05-24T05:59:32Z</time>
      </trkpt>
      <trkpt lat="42.8184570" lon="-8.6204980">
        <ele>106.0</ele>
        <time>2021-05-24T05:59:33Z</time>
      </trkpt>
      <trkpt lat="42.8184610" lon="-8.6204860">
        <ele>106.1</ele>
        <time>2021-05-24T05:59:34Z</time>
      </trkpt>
      <trkpt lat="42.8184660" lon="-8.6204730">
        <ele>106.3</ele>
        <time>2021-05-24T05:59:35Z</time>
      </trkpt>
      <trkpt lat="42.8184780" lon="-8.6204640">
        <ele>106.5</ele>
        <time>2021-05-24T05:59:36Z</time>
      </trkpt>
      <trkpt lat="42.8184910" lon="-8.6204640">
        <ele>106.7</ele>
        <time>2021-05-24T05:59:37Z</time>
      </trkpt>
      <trkpt lat="42.8184980" lon="-8.6204600">
        <ele>106.8</ele>
        <time>2021-05-24T05:59:38Z</time>
      </trkpt>
      <trkpt lat="42.8185050" lon="-8.6204540">
        <ele>106.9</ele>
        <time>2021-05-24T05:59:39Z</time>
      </trkpt>
      <trkpt lat="42.8185120" lon="-8.6204470">
        <ele>107.0</ele>
        <time>2021-05-24T05:59:40Z</time>
      </trkpt>
      <trkpt lat="42.8185230" lon="-8.6204420">
        <ele>107.2</ele>
        <time>2021-05-24T05:59:41Z</time>
      </trkpt>
      <trkpt lat="42.8185310" lon="-8.6204400">
        <ele>107.3</ele>
        <time>2021-05-24T05:59:42Z</time>
      </trkpt>
      <trkpt lat="42.8185400" lon="-8.6204360">
        <ele>107.4</ele>
        <time>2021-05-24T05:59:43Z</time>
      </trkpt>
      <trkpt lat="42.8185510" lon="-8.6204310">
        <ele>107.6</ele>
        <time>2021-05-24T05:59:44Z</time>
      </trkpt>
      <trkpt lat="42.8185590" lon="-8.6204280">
        <ele>107.7</ele>
        <time>2021-05-24T05:59:45Z</time>
      </trkpt>
      <trkpt lat="42.8185720" lon="-8.6204120">
        <ele>108.0</ele>
        <time>2021-05-24T05:59:46Z</time>
      </trkpt>
      <trkpt lat="42.8185800" lon="-8.6204110">
        <ele>108.1</ele>
        <time>2021-05-24T05:59:47Z</time>
      </trkpt>
      <trkpt lat="42.8185970" lon="-8.6203900">
        <ele>108.4</ele>
        <time>2021-05-24T05:59:48Z</time>
      </trkpt>
      <trkpt lat="42.8186020" lon="-8.6203820">
        <ele>108.5</ele>
        <time>2021-05-24T05:59:49Z</time>
      </trkpt>
      <trkpt lat="42.8186080" lon="-8.6203730">
        <ele>108.6</ele>
        <time>2021-05-24T05:59:50Z</time>
      </trkpt>
      <trkpt lat="42.8186150" lon="-8.6203680">
        <ele>108.7</ele>
        <time>2021-05-24T05:59:51Z</time>
      </trkpt>
      <trkpt lat="42.8186250" lon="-8.6203520">
        <ele>108.9</ele>
        <time>2021-05-24T05:59:52Z</time>
      </trkpt>
      <trkpt lat="42.8186340" lon="-8.6203400">
        <ele>109.1</ele>
        <time>2021-05-24T05:59:53Z</time>
      </trkpt>
      <trkpt lat="42.8186390" lon="-8.6203340">
        <ele>109.2</ele>
        <time>2021-05-24T05:59:54Z</time>
      </trkpt>
      <trkpt lat="42.8186490" lon="-8.6203210">
        <ele>109.3</ele>
        <time>2021-05-24T05:59:55Z</time>
      </trkpt>
      <trkpt lat="42.8186550" lon="-8.6203080">
        <ele>109.5</ele>
        <time>2021-05-24T05:59:56Z</time>
      </trkpt>
      <trkpt lat="42.8186620" lon="-8.6202910">
        <ele>109.6</ele>
        <time>2021-05-24T05:59:57Z</time>
      </trkpt>
      <trkpt lat="42.8186730" lon="-8.6202710">
        <ele>109.9</ele>
        <time>2021-05-24T05:59:58Z</time>
      </trkpt>
      <trkpt lat="42.8186900" lon="-8.6202620">
        <ele>110.1</ele>
        <time>2021-05-24T05:59:59Z</time>
      </trkpt>
      <trkpt lat="42.8186950" lon="-8.6202550">
        <ele>110.1</ele>
        <time>2021-05-24T06:00:00Z</time>
      </trkpt>
      <trkpt lat="42.8187010" lon="-8.6202490">
        <ele>110.2</ele>
        <time>2021-05-24T06:00:01Z</time>
      </trkpt>
      <trkpt lat="42.8187060" lon="-8.6202420">
        <ele>110.3</ele>
        <time>2021-05-24T06:00:02Z</time>
      </trkpt>
      <trkpt lat="42.8187120" lon="-8.6202320">
        <ele>110.4</ele>
        <time>2021-05-24T06:00:03Z</time>
      </trkpt>
      <trkpt lat="42.8187220" lon="-8.6202260">
        <ele>110.5</ele>
        <time>2021-05-24T06:00:04Z</time>
      </trkpt>
      <trkpt lat="42.8187320" lon="-8.6202250">
        <ele>110.6</ele>
        <time>2021-05-24T06:00:05Z</time>
      </trkpt>
      <trkpt lat="42.8187420" lon="-8.6202200">
        <ele>110.7</ele>
        <time>2021-05-24T06:00:06Z</time>
      </trkpt>
      <trkpt lat="42.8187520" lon="-8.6202090">
        <ele>110.8</ele>
        <time>2021-05-24T06:00:07Z</time>
      </trkpt>
      <trkpt lat="42.8187580" lon="-8.6201980">
        <ele>110.9</ele>
        <time>2021-05-24T06:00:08Z</time>
      </trkpt>
      <trkpt lat="42.8187660" lon="-8.6201960">
        <ele>111.0</ele>
        <time>2021-05-24T06:00:09Z</time>
      </trkpt>
      <trkpt lat="42.8187690" lon="-8.6201940">
        <ele>111.0</ele>
        <time>2021-05-24T06:00:10Z</time>
      </trkpt>
      <trkpt lat="42.8187780" lon="-8.6201910">
        <ele>111.1</ele>
        <time>2021-05-24T06:00:11Z</time>
      </trkpt>
      <trkpt lat="42.8187930" lon="-8.6201870">
        <ele>111.2</ele>
        <time>2021-05-24T06:00:12Z</time>
      </trkpt>
      <trkpt lat="42.8188010" lon="-8.6201890">
        <ele>111.3</ele>
        <time>2021-05-24T06:00:13Z</time>
      </trkpt>
      <trkpt lat="42.8188090" lon="-8.6201930">
        <ele>111.3</ele>
        <time>2021-05-24T06:00:14Z</time>
      </trkpt>
      <trkpt lat="42.8188160" lon="-8.6201920">
        <ele>111.4</ele>
        <time>2021-05-24T06:00:15Z</time>
      </trkpt>
      <trkpt lat="42.8188190" lon="-8.6201910">
        <ele>111.4</ele>
        <time>2021-05-24T06:00:16Z</time>
      </trkpt>
      <trkpt lat="42.8188200" lon="-8.6201920">
        <ele>111.4</ele>
        <time>2021-05-24T06:00:17Z</time>
      </trkpt>
      <trkpt lat="42.8188230" lon="-8.6201910">
        <ele>111.4</ele>
        <time>2021-05-24T06:00:18Z</time>
      </trkpt>
      <trkpt lat="42.8188360" lon="-8.6201710">
        <ele>111.6</ele>
        <time>2021-05-24T06:00:19Z</time>
      </trkpt>
      <trkpt lat="42.8188460" lon="-8.6201600">
        <ele>111.7</ele>
        <time>2021-05-24T06:00:20Z</time>
      </trkpt>
      <trkpt lat="42.8188570" lon="-8.6201430">
        <ele>111.8</ele>
        <time>2021-05-24T06:00:21Z</time>
      </trkpt>
      <trkpt lat="42.8188680" lon="-8.6201340">
        <ele>111.8</ele>
        <time>2021-05-24T06:00:22Z</time>
      </trkpt>
      <trkpt lat="42.8188850" lon="-8.6201120">
        <ele>112.0</ele>
        <time>2021-05-24T06:00:23Z</time>
      </trkpt>
      <trkpt lat="42.8188890" lon="-8.6201030">
        <ele>112.0</ele>
        <time>2021-05-24T06:00:24Z</time>
      </trkpt>
      <trkpt lat="42.8188930" lon="-8.6200940">
        <ele>112.1</ele>
        <time>2021-05-24T06:00:25Z</time>
      </trkpt>
      <trkpt lat="42.8189000" lon="-8.6200850">
        <ele>112.1</ele>
        <time>2021-05-24T06:00:26Z</time>
      </trkpt>
      <trkpt lat="42.8189070" lon="-8.6200750">
        <ele>112.1</ele>
        <time>2021-05-24T06:00:27Z</time>
      </trkpt>
      <trkpt lat="42.8189120" lon="-8.6200670">
        <ele>112.2</ele>
        <time>2021-05-24T06:00:28Z</time>
      </trkpt>
      <trkpt lat="42.8189340" lon="-8.6200490">
        <ele>112.3</ele>
        <time>2021-05-24T06:00:29Z</time>
      </trkpt>
      <trkpt lat="42.8189410" lon="-8.6200450">
        <ele>112.3</ele>
        <time>2021-05-24T06:00:30Z</time>
      </trkpt>
      <trkpt lat="42.8189470" lon="-8.6200410">
        <ele>112.4</ele>
        <time>2021-05-24T06:00:31Z</time>
      </trkpt>
      <trkpt lat="42.8189540" lon="-8.6200310">
        <ele>112.4</ele>
        <time>2021-05-24T06:00:32Z</time>
      </trkpt>
      <trkpt lat="42.8189630" lon="-8.6200250">
        <ele>112.4</ele>
        <time>2021-05-24T06:00:33Z</time>
      </trkpt>
      <trkpt lat="42.8189650" lon="-8.6200050">
        <ele>112.5</ele>
        <time>2021-05-24T06:00:34Z</time>
      </trkpt>
      <trkpt lat="42.8189740" lon="-8.6199890">
        <ele>112.5</ele>
        <time>2021-05-24T06:00:35Z</time>
      </trkpt>
      <trkpt lat="42.8189850" lon="-8.6199760">
        <ele>112.6</ele>
        <time>2021-05-24T06:00:36Z</time>
      </trkpt>
      <trkpt lat="42.8189910" lon="-8.6199590">
        <ele>112.6</ele>
        <time>2021-05-24T06:00:37Z</time>
      </trkpt>
      <trkpt lat="42.8189990" lon="-8.6199500">
        <ele>112.7</ele>
        <time>2021-05-24T06:00:38Z</time>
      </trkpt>
      <trkpt lat="42.8190060" lon="-8.6199410">
        <ele>112.7</ele>
        <time>2021-05-24T06:00:39Z</time>
      </trkpt>
      <trkpt lat="42.8190130" lon="-8.6199320">
        <ele>112.7</ele>
        <time>2021-05-24T06:00:40Z</time>
      </trkpt>
      <trkpt lat="42.8190210" lon="-8.6199170">
        <ele>112.8</ele>
        <time>2021-05-24T06:00:41Z</time>
      </trkpt>
      <trkpt lat="42.8190320" lon="-8.6199000">
        <ele>112.8</ele>
        <time>2021-05-24T06:00:42Z</time>
      </trkpt>
      <trkpt lat="42.8190410" lon="-8.6198910">
        <ele>112.8</ele>
        <time>2021-05-24T06:00:43Z</time>
      </trkpt>
      <trkpt lat="42.8190500" lon="-8.6198850">
        <ele>112.9</ele>
        <time>2021-05-24T06:00:44Z</time>
      </trkpt>
      <trkpt lat="42.8190620" lon="-8.6198750">
        <ele>112.9</ele>
        <time>2021-05-24T06:00:45Z</time>
      </trkpt>
      <trkpt lat="42.8190670" lon="-8.6198760">
        <ele>112.9</ele>
        <time>2021-05-24T06:00:46Z</time>
      </trkpt>
      <trkpt lat="42.8190760" lon="-8.6198660">
        <ele>113.0</ele>
        <time>2021-05-24T06:00:47Z</time>
      </trkpt>
      <trkpt lat="42.8190830" lon="-8.6198620">
        <ele>113.0</ele>
        <time>2021-05-24T06:00:48Z</time>
      </trkpt>
      <trkpt lat="42.8190920" lon="-8.6198490">
        <ele>113.0</ele>
        <time>2021-05-24T06:00:49Z</time>
      </trkpt>
      <trkpt lat="42.8191030" lon="-8.6198310">
        <ele>113.1</ele>
        <time>2021-05-24T06:00:50Z</time>
      </trkpt>
      <trkpt lat="42.8191160" lon="-8.6198210">
        <ele>113.1</ele>
        <time>2021-05-24T06:00:51Z</time>
      </trkpt>
      <trkpt lat="42.8191230" lon="-8.6198060">
        <ele>113.1</ele>
        <time>2021-05-24T06:00:52Z</time>
      </trkpt>
      <trkpt lat="42.8191320" lon="-8.6197900">
        <ele>113.2</ele>
        <time>2021-05-24T06:00:53Z</time>
      </trkpt>
      <trkpt lat="42.8191370" lon="-8.6197850">
        <ele>113.2</ele>
        <time>2021-05-24T06:00:54Z</time>
      </trkpt>
      <trkpt lat="42.8191460" lon="-8.6197760">
        <ele>113.2</ele>
        <time>2021-05-24T06:00:55Z</time>
      </trkpt>
      <trkpt lat="42.8191610" lon="-8.6197640">
        <ele>113.3</ele>
        <time>2021-05-24T06:00:56Z</time>
      </trkpt>
      <trkpt lat="42.8191660" lon="-8.6197540">
        <ele>113.3</ele>
        <time>2021-05-24T06:00:57Z</time>
      </trkpt>
      <trkpt lat="42.8191690" lon="-8.6197360">
        <ele>113.3</ele>
        <time>2021-05-24T06:00:58Z</time>
      </trkpt>
      <trkpt lat="42.8191800" lon="-8.6197240">
        <ele>113.4</ele>
        <time>2021-05-24T06:00:59Z</time>
      </trkpt>
      <trkpt lat="42.8191880" lon="-8.6197130">
        <ele>113.4</ele>
        <time>2021-05-24T06:01:00Z</time>
      </trkpt>
      <trkpt lat="42.8191910" lon="-8.6196990">
        <ele>113.4</ele>
        <time>2021-05-24T06:01:01Z</time>
      </trkpt>
      <trkpt lat="42.8191950" lon="-8.6196860">
        <ele>113.5</ele>
        <time>2021-05-24T06:01:02Z</time>
      </trkpt>
      <trkpt lat="42.8192160" lon="-8.6196660">
        <ele>113.5</ele>
        <time>2021-05-24T06:01:03Z</time>
      </trkpt>
      <trkpt lat="42.8192200" lon="-8.6196600">
        <ele>113.5</ele>
        <time>2021-05-24T06:01:04Z</time>
      </trkpt>
      <trkpt lat="42.8192250" lon="-8.6196540">
        <ele>113.6</ele>
        <time>2021-05-24T06:01:05Z</time>
      </trkpt>
      <trkpt lat="42.8192330" lon="-8.6196420">
        <ele>113.6</ele>
        <time>2021-05-24T06:01:06Z</time>
      </trkpt>
      <trkpt lat="42.8192360" lon="-8.6196300">
        <ele>113.6</ele>
        <time>2021-05-24T06:01:07Z</time>
      </trkpt>
      <trkpt lat="42.8192440" lon="-8.6196200">
        <ele>113.7</ele>
        <time>2021-05-24T06:01:08Z</time>
      </trkpt>
      <trkpt lat="42.8192530" lon="-8.6196040">
        <ele>113.7</ele>
        <time>2021-05-24T06:01:09Z</time>
      </trkpt>
      <trkpt lat="42.8192570" lon="-8.6195950">
        <ele>113.7</ele>
        <time>2021-05-24T06:01:10Z</time>
      </trkpt>
      <trkpt lat="42.8192600" lon="-8.6195870">
        <ele>113.7</ele>
        <time>2021-05-24T06:01:11Z</time>
      </trkpt>
      <trkpt lat="42.8192640" lon="-8.6195780">
        <ele>113.8</ele>
        <time>2021-05-24T06:01:12Z</time>
      </trkpt>
      <trkpt lat="42.8192700" lon="-8.6195520">
        <ele>113.8</ele>
        <time>2021-05-24T06:01:13Z</time>
      </trkpt>
      <trkpt lat="42.8192750" lon="-8.6195420">
        <ele>113.9</ele>
        <time>2021-05-24T06:01:14Z</time>
      </trkpt>
      <trkpt lat="42.8192810" lon="-8.6195320">
        <ele>113.9</ele>
        <time>2021-05-24T06:01:15Z</time>
      </trkpt>
      <trkpt lat="42.8192910" lon="-8.6195210">
        <ele>113.9</ele>
        <time>2021-05-24T06:01:16Z</time>
      </trkpt>
      <trkpt lat="42.8192980" lon="-8.6195030">
        <ele>114.0</ele>
        <time>2021-05-24T06:01:17Z</time>
      </trkpt>
      <trkpt lat="42.8193060" lon="-8.6194850">
        <ele>114.0</ele>
        <time>2021-05-24T06:01:18Z</time>
      </trkpt>
      <trkpt lat="42.8193140" lon="-8.6194710">
        <ele>114.1</ele>
        <time>2021-05-24T06:01:19Z</time>
      </trkpt>
      <trkpt lat="42.8193160" lon="-8.6194620">
        <ele>114.1</ele>
        <time>2021-05-24T06:01:20Z</time>
      </trkpt>
      <trkpt lat="42.8193200" lon="-8.6194520">
        <ele>114.1</ele>
        <time>2021-05-24T06:01:21Z</time>
      </trkpt>
      <trkpt lat="42.8193250" lon="-8.6194430">
        <ele>114.1</ele>
        <time>2021-05-24T06:01:22Z</time>
      </trkpt>
      <trkpt lat="42.8193360" lon="-8.6194320">
        <ele>114.2</ele>
        <time>2021-05-24T06:01:23Z</time>
      </trkpt>
      <trkpt lat="42.8193360" lon="-8.6194210">
        <ele>114.2</ele>
        <time>2021-05-24T06:01:24Z</time>
      </trkpt>
      <trkpt lat="42.8193350" lon="-8.6194020">
        <ele>114.2</ele>
        <time>2021-05-24T06:01:25Z</time>
      </trkpt>
      <trkpt lat="42.8193380" lon="-8.6193840">
        <ele>114.3</ele>
        <time>2021-05-24T06:01:26Z</time>
      </trkpt>
      <trkpt lat="42.8193390" lon="-8.6193720">
        <ele>114.3</ele>
        <time>2021-05-24T06:01:27Z</time>
      </trkpt>
      <trkpt lat="42.8193350" lon="-8.6193660">
        <ele>114.3</ele>
        <time>2021-05-24T06:01:28Z</time>
      </trkpt>
      <trkpt lat="42.8193330" lon="-8.6193550">
        <ele>114.3</ele>
        <time>2021-05-24T06:01:29Z</time>
      </trkpt>
      <trkpt lat="42.8193350" lon="-8.6193420">
        <ele>114.4</ele>
        <time>2021-05-24T06:01:30Z</time>
      </trkpt>
      <trkpt lat="42.8193410" lon="-8.6193290">
        <ele>114.4</ele>
        <time>2021-05-24T06:01:31Z</time>
      </trkpt>
      <trkpt lat="42.8193420" lon="-8.6193180">
        <ele>114.4</ele>
        <time>2021-05-24T06:01:32Z</time>
      </trkpt>
      <trkpt lat="42.8193440" lon="-8.6193060">
        <ele>114.4</ele>
        <time>2021-05-24T06:01:33Z</time>
      </trkpt>
      <trkpt lat="42.8193460" lon="-8.6192880">
        <ele>114.5</ele>
        <time>2021-05-24T06:01:34Z</time>
      </trkpt>
      <trkpt lat="42.8193540" lon="-8.6192790">
        <ele>114.5</ele>
        <time>2021-05-24T06:01:35Z</time>
      </trkpt>
      <trkpt lat="42.8193590" lon="-8.6192670">
        <ele>114.5</ele>
        <time>2021-05-24T06:01:36Z</time>
      </trkpt>
      <trkpt lat="42.8193700" lon="-8.6192610">
        <ele>114.6</ele>
        <time>2021-05-24T06:01:37Z</time>
      </trkpt>
      <trkpt lat="42.8193770" lon="-8.6192460">
        <ele>114.6</ele>
        <time>2021-05-24T06:01:38Z</time>
      </trkpt>
      <trkpt lat="42.8193820" lon="-8.6192380">
        <ele>114.6</ele>
        <time>2021-05-24T06:01:39Z</time>
      </trkpt>
      <trkpt lat="42.8193850" lon="-8.6192180">
        <ele>114.7</ele>
        <time>2021-05-24T06:01:40Z</time>
      </trkpt>
      <trkpt lat="42.8193920" lon="-8.6192030">
        <ele>114.7</ele>
        <time>2021-05-24T06:01:41Z</time>
      </trkpt>
      <trkpt lat="42.8193970" lon="-8.6191990">
        <ele>114.7</ele>
        <time>2021-05-24T06:01:42Z</time>
      </trkpt>
      <trkpt lat="42.8194070" lon="-8.6191900">
        <ele>114.8</ele>
        <time>2021-05-24T06:01:43Z</time>
      </trkpt>
      <trkpt lat="42.8194140" lon="-8.6191790">
        <ele>114.8</ele>
        <time>2021-05-24T06:01:44Z</time>
      </trkpt>
      <trkpt lat="42.8194240" lon="-8.6191690">
        <ele>114.8</ele>
        <time>2021-05-24T06:01:45Z</time>
      </trkpt>
      <trkpt lat="42.8194300" lon="-8.6191580">
        <ele>114.9</ele>
        <time>2021-05-24T06:01:46Z</time>
      </trkpt>
      <trkpt lat="42.8194440" lon="-8.6191510">
        <ele>114.9</ele>
        <time>2021-05-24T06:01:47Z</time>
      </trkpt>
      <trkpt lat="42.8194580" lon="-8.6191410">
        <ele>115.0</ele>
        <time>2021-05-24T06:01:48Z</time>
      </trkpt>
      <trkpt lat="42.8194700" lon="-8.6191280">
        <ele>115.0</ele>
        <time>2021-05-24T06:01:49Z</time>
      </trkpt>
      <trkpt lat="42.8194900" lon="-8.6190950">
        <ele>115.1</ele>
        <time>2021-05-24T06:01:50Z</time>
      </trkpt>
      <trkpt lat="42.8194970" lon="-8.6190830">
        <ele>115.2</ele>
        <time>2021-05-24T06:01:51Z</time>
      </trkpt>
      <trkpt lat="42.8195060" lon="-8.6190640">
        <ele>115.2</ele>
        <time>2021-05-24T06:01:52Z</time>
      </trkpt>
      <trkpt lat="42.8195140" lon="-8.6190540">
        <ele>115.3</ele>
        <time>2021-05-24T06:01:53Z</time>
      </trkpt>
      <trkpt lat="42.8195180" lon="-8.6190490">
        <ele>115.3</ele>
        <time>2021-05-24T06:01:54Z</time>
      </trkpt>
      <trkpt lat="42.8195240" lon="-8.6190410">
        <ele>115.4</ele>
        <time>2021-05-24T06:01:55Z</time>
      </trkpt>
      <trkpt lat="42.8195370" lon="-8.6190230">
        <ele>115.4</ele>
        <time>2021-05-24T06:01:56Z</time>
      </trkpt>
      <trkpt lat="42.8195470" lon="-8.6189970">
        <ele>115.5</ele>
        <time>2021-05-24T06:01:57Z</time>
      </trkpt>
      <trkpt lat="42.8195510" lon="-8.6189890">
        <ele>115.6</ele>
        <time>2021-05-24T06:01:58Z</time>
      </trkpt>
      <trkpt lat="42.8195550" lon="-8.6189800">
        <ele>115.6</ele>
        <time>2021-05-24T06:01:59Z</time>
      </trkpt>
      <trkpt lat="42.8195650" lon="-8.6189650">
        <ele>115.7</ele>
        <time>2021-05-24T06:02:00Z</time>
      </trkpt>
      <trkpt lat="42.8195740" lon="-8.6189470">
        <ele>115.7</ele>
        <time>2021-05-24T06:02:01Z</time>
      </trkpt>
      <trkpt lat="42.8195840" lon="-8.6189380">
        <ele>115.8</ele>
        <time>2021-05-24T06:02:02Z</time>
      </trkpt>
      <trkpt lat="42.8195890" lon="-8.6189260">
        <ele>115.8</ele>
        <time>2021-05-24T06:02:03Z</time>
      </trkpt>
      <trkpt lat="42.8195990" lon="-8.6189130">
        <ele>115.9</ele>
        <time>2021-05-24T06:02:04Z</time>
      </trkpt>
      <trkpt lat="42.8196110" lon="-8.6188930">
        <ele>116.0</ele>
        <time>2021-05-24T06:02:05Z</time>
      </trkpt>
      <trkpt lat="42.8196170" lon="-8.6188810">
        <ele>116.1</ele>
        <time>2021-05-24T06:02:06Z</time>
      </trkpt>
      <trkpt lat="42.8196240" lon="-8.6188680">
        <ele>116.1</ele>
        <time>2021-05-24T06:02:07Z</time>
      </trkpt>
      <trkpt lat="42.8196330" lon="-8.6188590">
        <ele>116.2</ele>
        <time>2021-05-24T06:02:08Z</time>
      </trkpt>
      <trkpt lat="42.8196400" lon="-8.6188520">
        <ele>116.2</ele>
        <time>2021-05-24T06:02:09Z</time>
      </trkpt>
      <trkpt lat="42.8196510" lon="-8.6188400">
        <ele>116.3</ele>
        <time>2021-05-24T06:02:10Z</time>
      </trkpt>
      <trkpt lat="42.8196560" lon="-8.6188370">
        <ele>116.3</ele>
        <time>2021-05-24T06:02:11Z</time>
      </trkpt>
      <trkpt lat="42.8196630" lon="-8.6188310">
        <ele>116.4</ele>
        <time>2021-05-24T06:02:12Z</time>
      </trkpt>
      <trkpt lat="42.8196730" lon="-8.6188180">
        <ele>116.4</ele>
        <time>2021-05-24T06:02:13Z</time>
      </trkpt>
      <trkpt lat="42.8196840" lon="-8.6187980">
        <ele>116.5</ele>
        <time>2021-05-24T06:02:14Z</time>
      </trkpt>
      <trkpt lat="42.8196910" lon="-8.6187860">
        <ele>116.6</ele>
        <time>2021-05-24T06:02:15Z</time>
      </trkpt>
      <trkpt lat="42.8196970" lon="-8.6187740">
        <ele>116.6</ele>
        <time>2021-05-24T06:02:16Z</time>
      </trkpt>
      <trkpt lat="42.8197080" lon="-8.6187560">
        <ele>116.7</ele>
        <time>2021-05-24T06:02:17Z</time>
      </trkpt>
      <trkpt lat="42.8197150" lon="-8.6187380">
        <ele>116.8</ele>
        <time>2021-05-24T06:02:18Z</time>
      </trkpt>
      <trkpt lat="42.8197340" lon="-8.6187100">
        <ele>116.9</ele>
        <time>2021-05-24T06:02:19Z</time>
      </trkpt>
      <trkpt lat="42.8197380" lon="-8.6186990">
        <ele>117.0</ele>
        <time>2021-05-24T06:02:20Z</time>
      </trkpt>
      <trkpt lat="42.8197510" lon="-8.6186830">
        <ele>117.1</ele>
        <time>2021-05-24T06:02:21Z</time>
      </trkpt>
      <trkpt lat="42.8197590" lon="-8.6186710">
        <ele>117.1</ele>
        <time>2021-05-24T06:02:22Z</time>
      </trkpt>
      <trkpt lat="42.8197660" lon="-8.6186610">
        <ele>117.2</ele>
        <time>2021-05-24T06:02:23Z</time>
      </trkpt>
      <trkpt lat="42.8197750" lon="-8.6186540">
        <ele>117.2</ele>
        <time>2021-05-24T06:02:24Z</time>
      </trkpt>
      <trkpt lat="42.8197830" lon="-8.6186460">
        <ele>117.3</ele>
        <time>2021-05-24T06:02:25Z</time>
      </trkpt>
      <trkpt lat="42.8197900" lon="-8.6186260">
        <ele>117.4</ele>
        <time>2021-05-24T06:02:26Z</time>
      </trkpt>
      <trkpt lat="42.8197960" lon="-8.6186120">
        <ele>117.4</ele>
        <time>2021-05-24T06:02:27Z</time>
      </trkpt>
      <trkpt lat="42.8198110" lon="-8.6186000">
        <ele>117.5</ele>
        <time>2021-05-24T06:02:28Z</time>
      </trkpt>
      <trkpt lat="42.8198230" lon="-8.6185920">
        <ele>117.6</ele>
        <time>2021-05-24T06:02:29Z</time>
      </trkpt>
      <trkpt lat="42.8198340" lon="-8.6185970">
        <ele>117.7</ele>
        <time>2021-05-24T06:02:30Z</time>
      </trkpt>
      <trkpt lat="42.8198390" lon="-8.6185840">
        <ele>117.7</ele>
        <time>2021-05-24T06:02:31Z</time>
      </trkpt>
      <trkpt lat="42.8198440" lon="-8.6185760">
        <ele>117.8</ele>
        <time>2021-05-24T06:02:32Z</time>
      </trkpt>
      <trkpt lat="42.8198550" lon="-8.6185660">
        <ele>117.8</ele>
        <time>2021-05-24T06:02:33Z</time>
      </trkpt>
      <trkpt lat="42.8198700" lon="-8.6185450">
        <ele>117.9</ele>
        <time>2021-05-24T06:02:34Z</time>
      </trkpt>
      <trkpt lat="42.8198780" lon="-8.6185360">
        <ele>118.0</ele>
        <time>2021-05-24T06:02:35Z</time>
      </trkpt>
      <trkpt lat="42.8198850" lon="-8.6185270">
        <ele>118.1</ele>
        <time>2021-05-24T06:02:36Z</time>
      </trkpt>
      <trkpt lat="42.8199020" lon="-8.6185080">
        <ele>118.2</ele>
        <time>2021-05-24T06:02:37Z</time>
      </trkpt>
      <trkpt lat="42.8199090" lon="-8.6184970">
        <ele>118.2</ele>
        <time>2021-05-24T06:02:38Z</time>
      </trkpt>
      <trkpt lat="42.8199160" lon="-8.6184850">
        <ele>118.3</ele>
        <time>2021-05-24T06:02:39Z</time>
      </trkpt>
      <trkpt lat="42.8199230" lon="-8.6184750">
        <ele>118.4</ele>
        <time>2021-05-24T06:02:40Z</time>
      </trkpt>
      <trkpt lat="42.8199360" lon="-8.6184720">
        <ele>118.5</ele>
        <time>2021-05-24T06:02:41Z</time>
      </trkpt>
      <trkpt lat="42.8199470" lon="-8.6184680">
        <ele>118.5</ele>
        <time>2021-05-24T06:02:42Z</time>
      </trkpt>
      <trkpt lat="42.8199600" lon="-8.6184510">
        <ele>118.6</ele>
        <time>2021-05-24T06:02:43Z</time>
      </trkpt>
      <trkpt lat="42.8199720" lon="-8.6184360">
        <ele>118.8</ele>
        <time>2021-05-24T06:02:44Z</time>
      </trkpt>
      <trkpt lat="42.8199820" lon="-8.6184240">
        <ele>118.8</ele>
        <time>2021-05-24T06:02:45Z</time>
      </trkpt>
      <trkpt lat="42.8199940" lon="-8.6184170">
        <ele>118.9</ele>
        <time>2021-05-24T06:02:46Z</time>
      </trkpt>
      <trkpt lat="42.8200050" lon="-8.6184180">
        <ele>119.0</ele>
        <time>2021-05-24T06:02:47Z</time>
      </trkpt>
      <trkpt lat="42.8200230" lon="-8.6184210">
        <ele>119.1</ele>
        <time>2021-05-24T06:02:48Z</time>
      </trkpt>
      <trkpt lat="42.8200370" lon="-8.6184220">
        <ele>119.2</ele>
        <time>2021-05-24T06:02:49Z</time>
      </trkpt>
      <trkpt lat="42.8200470" lon="-8.6184290">
        <ele>119.3</ele>
        <time>2021-05-24T06:02:50Z</time>
      </trkpt>
      <trkpt lat="42.8200570" lon="-8.6184320">
        <ele>119.4</ele>
        <time>2021-05-24T06:02:51Z</time>
      </trkpt>
      <trkpt lat="42.8200720" lon="-8.6184310">
        <ele>119.5</ele>
        <time>2021-05-24T06:02:52Z</time>
      </trkpt>
      <trkpt lat="42.8200780" lon="-8.6184250">
        <ele>119.6</ele>
        <time>2021-05-24T06:02:53Z</time>
      </trkpt>
      <trkpt lat="42.8200890" lon="-8.6184240">
        <ele>119.6</ele>
        <time>2021-05-24T06:02:54Z</time>
      </trkpt>
      <trkpt lat="42.8201040" lon="-8.6184280">
        <ele>119.8</ele>
        <time>2021-05-24T06:02:55Z</time>
      </trkpt>
      <trkpt lat="42.8201220" lon="-8.6184210">
        <ele>119.9</ele>
        <time>2021-05-24T06:02:56Z</time>
      </trkpt>
      <trkpt lat="42.8201320" lon="-8.6184180">
        <ele>120.0</ele>
        <time>2021-05-24T06:02:57Z</time>
      </trkpt>
      <trkpt lat="42.8201410" lon="-8.6184150">
        <ele>120.0</ele>
        <time>2021-05-24T06:02:58Z</time>
      </trkpt>
      <trkpt lat="42.8201480" lon="-8.6184140">
        <ele>120.1</ele>
        <time>2021-05-24T06:02:59Z</time>
      </trkpt>
      <trkpt lat="42.8201540" lon="-8.6184100">
        <ele>120.1</ele>
        <time>2021-05-24T06:03:00Z</time>
      </trkpt>
      <trkpt lat="42.8201560" lon="-8.6184010">
        <ele>120.2</ele>
        <time>2021-05-24T06:03:01Z</time>
      </trkpt>
      <trkpt lat="42.8201600" lon="-8.6184010">
        <ele>120.2</ele>
        <time>2021-05-24T06:03:02Z</time>
      </trkpt>
      <trkpt lat="42.8201730" lon="-8.6183950">
        <ele>120.3</ele>
        <time>2021-05-24T06:03:03Z</time>
      </trkpt>
      <trkpt lat="42.8201820" lon="-8.6183860">
        <ele>120.4</ele>
        <time>2021-05-24T06:03:04Z</time>
      </trkpt>
      <trkpt lat="42.8201940" lon="-8.6183770">
        <ele>120.5</ele>
        <time>2021-05-24T06:03:05Z</time>
      </trkpt>
      <trkpt lat="42.8202040" lon="-8.6183710">
        <ele>120.6</ele>
        <time>2021-05-24T06:03:06Z</time>
      </trkpt>
      <trkpt lat="42.8202240" lon="-8.6183620">
        <ele>120.8</ele>
        <time>2021-05-24T06:03:07Z</time>
      </trkpt>
      <trkpt lat="42.8202330" lon="-8.6183590">
        <ele>120.9</ele>
        <time>2021-05-24T06:03:08Z</time>
      </trkpt>
      <trkpt lat="42.8202410" lon="-8.6183570">
        <ele>120.9</ele>
        <time>2021-05-24T06:03:09Z</time>
      </trkpt>
      <trkpt lat="42.8202520" lon="-8.6183520">
        <ele>121.0</ele>
        <time>2021-05-24T06:03:10Z</time>
      </trkpt>
      <trkpt lat="42.8202580" lon="-8.6183490">
        <ele>121.1</ele>
        <time>2021-05-24T06:03:11Z</time>
      </trkpt>
      <trkpt lat="42.8202710" lon="-8.6183440">
        <ele>121.2</ele>
        <time>2021-05-24T06:03:12Z</time>
      </trkpt>
      <trkpt lat="42.8202830" lon="-8.6183340">
        <ele>121.3</ele>
        <time>2021-05-24T06:03:13Z</time>
      </trkpt>
      <trkpt lat="42.8202930" lon="-8.6183300">
        <ele>121.4</ele>
        <time>2021-05-24T06:03:14Z</time>
      </trkpt>
      <trkpt lat="42.8203040" lon="-8.6183220">
        <ele>121.5</ele>
        <time>2021-05-24T06:03:15Z</time>
      </trkpt>
      <trkpt lat="42.8203250" lon="-8.6183160">
        <ele>121.6</ele>
        <time>2021-05-24T06:03:16Z</time>
      </trkpt>
      <trkpt lat="42.8203330" lon="-8.6183090">
        <ele>121.7</ele>
        <time>2021-05-24T06:03:17Z</time>
      </trkpt>
      <trkpt lat="42.8203400" lon="-8.6183030">
        <ele>121.8</ele>
        <time>2021-05-24T06:03:18Z</time>
      </trkpt>
      <trkpt lat="42.8203510" lon="-8.6182910">
        <ele>121.9</ele>
        <time>2021-05-24T06:03:19Z</time>
      </trkpt>
      <trkpt lat="42.8203650" lon="-8.6182940">
        <ele>122.0</ele>
        <time>2021-05-24T06:03:20Z</time>
      </trkpt>
      <trkpt lat="42.8203730" lon="-8.6182900">
        <ele>122.0</ele>
        <time>2021-05-24T06:03:21Z</time>
      </trkpt>
      <trkpt lat="42.8203860" lon="-8.6182870">
        <ele>122.1</ele>
        <time>2021-05-24T06:03:22Z</time>
      </trkpt>
      <trkpt lat="42.8203980" lon="-8.6182790">
        <ele>122.2</ele>
        <time>2021-05-24T06:03:23Z</time>
      </trkpt>
      <trkpt lat="42.8204060" lon="-8.6182740">
        <ele>122.3</ele>
        <time>2021-05-24T06:03:24Z</time>
      </trkpt>
      <trkpt lat="42.8204180" lon="-8.6182640">
        <ele>122.4</ele>
        <time>2021-05-24T06:03:25Z</time>
      </trkpt>
      <trkpt lat="42.8204280" lon="-8.6182550">
        <ele>122.5</ele>
        <time>2021-05-24T06:03:26Z</time>
      </trkpt>
      <trkpt lat="42.8204360" lon="-8.6182490">
        <ele>122.5</ele>
        <time>2021-05-24T06:03:27Z</time>
      </trkpt>
      <trkpt lat="42.8204570" lon="-8.6182350">
        <ele>122.7</ele>
        <time>2021-05-24T06:03:28Z</time>
      </trkpt>
      <trkpt lat="42.8204650" lon="-8.6182320">
        <ele>122.7</ele>
        <time>2021-05-24T06:03:29Z</time>
      </trkpt>
      <trkpt lat="42.8204730" lon="-8.6182300">
        <ele>122.8</ele>
        <time>2021-05-24T06:03:30Z</time>
      </trkpt>
      <trkpt lat="42.8204860" lon="-8.6182270">
        <ele>122.9</ele>
        <time>2021-05-24T06:03:31Z</time>
      </trkpt>
      <trkpt lat="42.8204920" lon="-8.6182180">
        <ele>122.9</ele>
        <time>2021-05-24T06:03:32Z</time>
      </trkpt>
      <trkpt lat="42.8204990" lon="-8.6182120">
        <ele>123.0</ele>
        <time>2021-05-24T06:03:33Z</time>
      </trkpt>
      <trkpt lat="42.8205150" lon="-8.6182070">
        <ele>123.1</ele>
        <time>2021-05-24T06:03:34Z</time>
      </trkpt>
      <trkpt lat="42.8205210" lon="-8.6182020">
        <ele>123.1</ele>
        <time>2021-05-24T06:03:35Z</time>
      </trkpt>
      <trkpt lat="42.8205280" lon="-8.6181960">
        <ele>123.2</ele>
        <time>2021-05-24T06:03:36Z</time>
      </trkpt>
      <trkpt lat="42.8205340" lon="-8.6181900">
        <ele>123.2</ele>
        <time>2021-05-24T06:03:37Z</time>
      </trkpt>
      <trkpt lat="42.8205470" lon="-8.6181790">
        <ele>123.3</ele>
        <time>2021-05-24T06:03:38Z</time>
      </trkpt>
      <trkpt lat="42.8205540" lon="-8.6181670">
        <ele>123.4</ele>
        <time>2021-05-24T06:03:39Z</time>
      </trkpt>
      <trkpt lat="42.8205590" lon="-8.6181540">
        <ele>123.4</ele>
        <time>2021-05-24T06:03:40Z</time>
      </trkpt>
      <trkpt lat="42.8205680" lon="-8.6181450">
        <ele>123.5</ele>
        <time>2021-05-24T06:03:41Z</time>
      </trkpt>
      <trkpt lat="42.8205800" lon="-8.6181360">
        <ele>123.5</ele>
        <time>2021-05-24T06:03:42Z</time>
      </trkpt>
      <trkpt lat="42.8205910" lon="-8.6181320">
        <ele>123.6</ele>
        <time>2021-05-24T06:03:43Z</time>
      </trkpt>
      <trkpt lat="42.8206010" lon="-8.6181220">
        <ele>123.7</ele>
        <time>2021-05-24T06:03:44Z</time>
      </trkpt>
      <trkpt lat="42.8206110" lon="-8.6181120">
        <ele>123.7</ele>
        <time>2021-05-24T06:03:45Z</time>
      </trkpt>
      <trkpt lat="42.8206200" lon="-8.6181030">
        <ele>123.8</ele>
        <time>2021-05-24T06:03:46Z</time>
      </trkpt>
      <trkpt lat="42.8206360" lon="-8.6180820">
        <ele>123.9</ele>
        <time>2021-05-24T06:03:47Z</time>
      </trkpt>
      <trkpt lat="42.8206420" lon="-8.6180750">
        <ele>123.9</ele>
        <time>2021-05-24T06:03:48Z</time>
      </trkpt>
      <trkpt lat="42.8206470" lon="-8.6180670">
        <ele>123.9</ele>
        <time>2021-05-24T06:03:49Z</time>
      </trkpt>
      <trkpt lat="42.8206520" lon="-8.6180560">
        <ele>124.0</ele>
        <time>2021-05-24T06:03:50Z</time>
      </trkpt>
      <trkpt lat="42.8206580" lon="-8.6180480">
        <ele>124.0</ele>
        <time>2021-05-24T06:03:51Z</time>
      </trkpt>
      <trkpt lat="42.8206640" lon="-8.6180360">
        <ele>124.1</ele>
        <time>2021-05-24T06:03:52Z</time>
      </trkpt>
      <trkpt lat="42.8206700" lon="-8.6180250">
        <ele>124.1</ele>
        <time>2021-05-24T06:03:53Z</time>
      </trkpt>
      <trkpt lat="42.8206740" lon="-8.6180170">
        <ele>124.1</ele>
        <time>2021-05-24T06:03:54Z</time>
      </trkpt>
      <trkpt lat="42.8206770" lon="-8.6180100">
        <ele>124.1</ele>
        <time>2021-05-24T06:03:55Z</time>
      </trkpt>
      <trkpt lat="42.8206800" lon="-8.6180000">
        <ele>124.2</ele>
        <time>2021-05-24T06:03:56Z</time>
      </trkpt>
      <trkpt lat="42.8206840" lon="-8.6179850">
        <ele>124.2</ele>
        <time>2021-05-24T06:03:57Z</time>
      </trkpt>
      <trkpt lat="42.8206900" lon="-8.6179770">
        <ele>124.2</ele>
        <time>2021-05-24T06:03:58Z</time>
      </trkpt>
      <trkpt lat="42.8206980" lon="-8.6179670">
        <ele>124.3</ele>
        <time>2021-05-24T06:03:59Z</time>
      </trkpt>
      <trkpt lat="42.8207030" lon="-8.6179590">
        <ele>124.3</ele>
        <time>2021-05-24T06:04:00Z</time>
      </trkpt>
      <trkpt lat="42.8207080" lon="-8.6179500">
        <ele>124.3</ele>
        <time>2021-05-24T06:04:01Z</time>
      </trkpt>
      <trkpt lat="42.8207140" lon="-8.6179380">
        <ele>124.4</ele>
        <time>2021-05-24T06:04:02Z</time>
      </trkpt>
      <trkpt lat="42.8207170" lon="-8.6179260">
        <ele>124.4</ele>
        <time>2021-05-24T06:04:03Z</time>
      </trkpt>
      <trkpt lat="42.8207200" lon="-8.6179090">
        <ele>124.5</ele>
        <time>2021-05-24T06:04:04Z</time>
      </trkpt>
      <trkpt lat="42.8207210" lon="-8.6178990">
        <ele>124.5</ele>
        <time>2021-05-24T06:04:05Z</time>
      </trkpt>
      <trkpt lat="42.8207220" lon="-8.6178870">
        <ele>124.5</ele>
        <time>2021-05-24T06:04:06Z</time>
      </trkpt>
      <trkpt lat="42.8207230" lon="-8.6178770">
        <ele>124.6</ele>
        <time>2021-05-24T06:04:07Z</time>
      </trkpt>
      <trkpt lat="42.8207270" lon="-8.6178640">
        <ele>124.6</ele>
        <time>2021-05-24T06:04:08Z</time>
      </trkpt>
      <trkpt lat="42.8207310" lon="-8.6178520">
        <ele>124.6</ele>
        <time>2021-05-24T06:04:09Z</time>
      </trkpt>
      <trkpt lat="42.8207320" lon="-8.6178380">
        <ele>124.7</ele>
        <time>2021-05-24T06:04:10Z</time>
      </trkpt>
      <trkpt lat="42.8207300" lon="-8.6178320">
        <ele>124.7</ele>
        <time>2021-05-24T06:04:11Z</time>
      </trkpt>
      <trkpt lat="42.8207310" lon="-8.6178190">
        <ele>124.7</ele>
        <time>2021-05-24T06:04:12Z</time>
      </trkpt>
      <trkpt lat="42.8207320" lon="-8.6178040">
        <ele>124.7</ele>
        <time>2021-05-24T06:04:13Z</time>
      </trkpt>
      <trkpt lat="42.8207290" lon="-8.6177960">
        <ele>124.8</ele>
        <time>2021-05-24T06:04:14Z</time>
      </trkpt>
      <trkpt lat="42.8207290" lon="-8.6177810">
        <ele>124.8</ele>
        <time>2021-05-24T06:04:15Z</time>
      </trkpt>
      <trkpt lat="42.8207320" lon="-8.6177660">
        <ele>124.8</ele>
        <time>2021-05-24T06:04:16Z</time>
      </trkpt>
      <trkpt lat="42.8207360" lon="-8.6177460">
        <ele>124.9</ele>
        <time>2021-05-24T06:04:17Z</time>
      </trkpt>
      <trkpt lat="42.8207390" lon="-8.6177300">
        <ele>124.9</ele>
        <time>2021-05-24T06:04:18Z</time>
      </trkpt>
      <trkpt lat="42.8207420" lon="-8.6177150">
        <ele>125.0</ele>
        <time>2021-05-24T06:04:19Z</time>
      </trkpt>
      <trkpt lat="42.8207450" lon="-8.6177020">
        <ele>125.0</ele>
        <time>2021-05-24T06:04:20Z</time>
      </trkpt>
      <trkpt lat="42.8207450" lon="-8.6176830">
        <ele>125.0</ele>
        <time>2021-05-24T06:04:21Z</time>
      </trkpt>
      <trkpt lat="42.8207490" lon="-8.6176760">
        <ele>125.0</ele>
        <time>2021-05-24T06:04:22Z</time>
      </trkpt>
      <trkpt lat="42.8207480" lon="-8.6176640">
        <ele>125.1</ele>
        <time>2021-05-24T06:04:23Z</time>
      </trkpt>
      <trkpt lat="42.8207480" lon="-8.6176440">
        <ele>125.1</ele>
        <time>2021-05-24T06:04:24Z</time>
      </trkpt>
      <trkpt lat="42.8207470" lon="-8.6176290">
        <ele>125.1</ele>
        <time>2021-05-24T06:04:25Z</time>
      </trkpt>
      <trkpt lat="42.8207480" lon="-8.6176170">
        <ele>125.1</ele>
        <time>2021-05-24T06:04:26Z</time>
      </trkpt>
      <trkpt lat="42.8207490" lon="-8.6176020">
        <ele>125.1</ele>
        <time>2021-05-24T06:04:27Z</time>
      </trkpt>
      <trkpt lat="42.8207480" lon="-8.6175900">
        <ele>125.2</ele>
        <time>2021-05-24T06:04:28Z</time>
      </trkpt>
      <trkpt lat="42.8207500" lon="-8.6175790">
        <ele>125.2</ele>
        <time>2021-05-24T06:04:29Z</time>
      </trkpt>
      <trkpt lat="42.8207550" lon="-8.6175660">
        <ele>125.2</ele>
        <time>2021-05-24T06:04:30Z</time>
      </trkpt>
      <trkpt lat="42.8207560" lon="-8.6175510">
        <ele>125.2</ele>
        <time>2021-05-24T06:04:31Z</time>
      </trkpt>
      <trkpt lat="42.8207580" lon="-8.6175370">
        <ele>125.2</ele>
        <time>2021-05-24T06:04:32Z</time>
      </trkpt>
      <trkpt lat="42.8207570" lon="-8.6175280">
        <ele>125.2</ele>
        <time>2021-05-24T06:04:33Z</time>
      </trkpt>
      <trkpt lat="42.8207620" lon="-8.6174970">
        <ele>125.3</ele>
        <time>2021-05-24T06:04:34Z</time>
      </trkpt>
      <trkpt lat="42.8207630" lon="-8.6174870">
        <ele>125.3</ele>
        <time>2021-05-24T06:04:35Z</time>
      </trkpt>
      <trkpt lat="42.8207640" lon="-8.6174760">
        <ele>125.3</ele>
        <time>2021-05-24T06:04:36Z</time>
      </trkpt>
      <trkpt lat="42.8207650" lon="-8.6174620">
        <ele>125.3</ele>
        <time>2021-05-24T06:04:37Z</time>
      </trkpt>
      <trkpt lat="42.8207640" lon="-8.6174470">
        <ele>125.3</ele>
        <time>2021-05-24T06:04:38Z</time>
      </trkpt>
      <trkpt lat="42.8207700" lon="-8.6174410">
        <ele>125.3</ele>
        <time>2021-05-24T06:04:39Z</time>
      </trkpt>
      <trkpt lat="42.8207720" lon="-8.6174300">
        <ele>125.3</ele>
        <time>2021-05-24T06:04:40Z</time>
      </trkpt>
      <trkpt lat="42.8207690" lon="-8.6174010">
        <ele>125.3</ele>
        <time>2021-05-24T06:04:41Z</time>
      </trkpt>
      <trkpt lat="42.8207670" lon="-8.6173910">
        <ele>125.3</ele>
        <time>2021-05-24T06:04:42Z</time>
      </trkpt>
      <trkpt lat="42.8207640" lon="-8.6173800">
        <ele>125.3</ele>
        <time>2021-05-24T06:04:43Z</time>
      </trkpt>
      <trkpt lat="42.8207630" lon="-8.6173640">
        <ele>125.3</ele>
        <time>2021-05-24T06:04:44Z</time>
      </trkpt>
      <trkpt lat="42.8207660" lon="-8.6173410">
        <ele>125.3</ele>
        <time>2021-05-24T06:04:45Z</time>
      </trkpt>
      <trkpt lat="42.8207730" lon="-8.6173160">
        <ele>125.3</ele>
        <time>2021-05-24T06:04:46Z</time>
      </trkpt>
      <trkpt lat="42.8207750" lon="-8.6173040">
        <ele>125.3</ele>
        <time>2021-05-24T06:04:47Z</time>
      </trkpt>
      <trkpt lat="42.8207760" lon="-8.6172930">
        <ele>125.3</ele>
        <time>2021-05-24T06:04:48Z</time>
      </trkpt>
      <trkpt lat="42.8207770" lon="-8.6172650">
        <ele>125.3</ele>
        <time>2021-05-24T06:04:49Z</time>
      </trkpt>
      <trkpt lat="42.8207760" lon="-8.6172540">
        <ele>125.3</ele>
        <time>2021-05-24T06:04:50Z</time>
      </trkpt>
      <trkpt lat="42.8207740" lon="-8.6172430">
        <ele>125.3</ele>
        <time>2021-05-24T06:04:51Z</time>
      </trkpt>
      <trkpt lat="42.8207770" lon="-8.6172160">
        <ele>125.2</ele>
        <time>2021-05-24T06:04:52Z</time>
      </trkpt>
      <trkpt lat="42.8207800" lon="-8.6172060">
        <ele>125.2</ele>
        <time>2021-05-24T06:04:53Z</time>
      </trkpt>
      <trkpt lat="42.8207830" lon="-8.6171950">
        <ele>125.2</ele>
        <time>2021-05-24T06:04:54Z</time>
      </trkpt>
      <trkpt lat="42.8207860" lon="-8.6171850">
        <ele>125.2</ele>
        <time>2021-05-24T06:04:55Z</time>
      </trkpt>
      <trkpt lat="42.8207870" lon="-8.6171750">
        <ele>125.2</ele>
        <time>2021-05-24T06:04:56Z</time>
      </trkpt>
      <trkpt lat="42.8207900" lon="-8.6171580">
        <ele>125.2</ele>
        <time>2021-05-24T06:04:57Z</time>
      </trkpt>
      <trkpt lat="42.8207910" lon="-8.6171400">
        <ele>125.2</ele>
        <time>2021-05-24T06:04:58Z</time>
      </trkpt>
      <trkpt lat="42.8207930" lon="-8.6171260">
        <ele>125.2</ele>
        <time>2021-05-24T06:04:59Z</time>
      </trkpt>
      <trkpt lat="42.8207960" lon="-8.6171110">
        <ele>125.2</ele>
        <time>2021-05-24T06:05:00Z</time>
      </trkpt>
      <trkpt lat="42.8208020" lon="-8.6171010">
        <ele>125.2</ele>
        <time>2021-05-24T06:05:01Z</time>
      </trkpt>
      <trkpt lat="42.8208130" lon="-8.6170880">
        <ele>125.2</ele>
        <time>2021-05-24T06:05:02Z</time>
      </trkpt>
      <trkpt lat="42.8208210" lon="-8.6170780">
        <ele>125.1</ele>
        <time>2021-05-24T06:05:03Z</time>
      </trkpt>
      <trkpt lat="42.8208290" lon="-8.6170720">
        <ele>125.1</ele>
        <time>2021-05-24T06:05:04Z</time>
      </trkpt>
      <trkpt lat="42.8208380" lon="-8.6170630">
        <ele>125.1</ele>
        <time>2021-05-24T06:05:05Z</time>
      </trkpt>
      <trkpt lat="42.8208470" lon="-8.6170540">
        <ele>125.1</ele>
        <time>2021-05-24T06:05:06Z</time>
      </trkpt>
      <trkpt lat="42.8208530" lon="-8.6170490">
        <ele>125.1</ele>
        <time>2021-05-24T06:05:07Z</time>
      </trkpt>
      <trkpt lat="42.8208620" lon="-8.6170460">
        <ele>125.1</ele>
        <time>2021-05-24T06:05:08Z</time>
      </trkpt>
      <trkpt lat="42.8208750" lon="-8.6170430">
        <ele>125.1</ele>
        <time>2021-05-24T06:05:09Z</time>
      </trkpt>
      <trkpt lat="42.8208870" lon="-8.6170370">
        <ele>125.0</ele>
        <time>2021-05-24T06:05:10Z</time>
      </trkpt>
      <trkpt lat="42.8208960" lon="-8.6170300">
        <ele>125.0</ele>
        <time>2021-05-24T06:05:11Z</time>
      </trkpt>
      <trkpt lat="42.8209040" lon="-8.6170270">
        <ele>125.0</ele>
        <time>2021-05-24T06:05:12Z</time>
      </trkpt>
      <trkpt lat="42.8209160" lon="-8.6170230">
        <ele>125.0</ele>
        <time>2021-05-24T06:05:13Z</time>
      </trkpt>
      <trkpt lat="42.8209290" lon="-8.6170200">
        <ele>125.0</ele>
        <time>2021-05-24T06:05:14Z</time>
      </trkpt>
      <trkpt lat="42.8209380" lon="-8.6170180">
        <ele>124.9</ele>
        <time>2021-05-24T06:05:15Z</time>
      </trkpt>
      <trkpt lat="42.8209520" lon="-8.6170170">
        <ele>124.9</ele>
        <time>2021-05-24T06:05:16Z</time>
      </trkpt>
      <trkpt lat="42.8209630" lon="-8.6170190">
        <ele>124.9</ele>
        <time>2021-05-24T06:05:17Z</time>
      </trkpt>
      <trkpt lat="42.8209730" lon="-8.6170190">
        <ele>124.9</ele>
        <time>2021-05-24T06:05:18Z</time>
      </trkpt>
      <trkpt lat="42.8209830" lon="-8.6170180">
        <ele>124.8</ele>
        <time>2021-05-24T06:05:19Z</time>
      </trkpt>
      <trkpt lat="42.8209930" lon="-8.6170180">
        <ele>124.8</ele>
        <time>2021-05-24T06:05:20Z</time>
      </trkpt>
      <trkpt lat="42.8210050" lon="-8.6170140">
        <ele>124.8</ele>
        <time>2021-05-24T06:05:21Z</time>
      </trkpt>
      <trkpt lat="42.8210200" lon="-8.6170110">
        <ele>124.8</ele>
        <time>2021-05-24T06:05:22Z</time>
      </trkpt>
      <trkpt lat="42.8210260" lon="-8.6170110">
        <ele>124.8</ele>
        <time>2021-05-24T06:05:23Z</time>
      </trkpt>
      <trkpt lat="42.8210310" lon="-8.6170100">
        <ele>124.7</ele>
        <time>2021-05-24T06:05:24Z</time>
      </trkpt>
      <trkpt lat="42.8210370" lon="-8.6170100">
        <ele>124.7</ele>
        <time>2021-05-24T06:05:25Z</time>
      </trkpt>
      <trkpt lat="42.8210430" lon="-8.6170090">
        <ele>124.7</ele>
        <time>2021-05-24T06:05:26Z</time>
      </trkpt>
      <trkpt lat="42.8210550" lon="-8.6170050">
        <ele>124.7</ele>
        <time>2021-05-24T06:05:27Z</time>
      </trkpt>
      <trkpt lat="42.8210690" lon="-8.6169990">
        <ele>124.6</ele>
        <time>2021-05-24T06:05:28Z</time>
      </trkpt>
      <trkpt lat="42.8210780" lon="-8.6169930">
        <ele>124.6</ele>
        <time>2021-05-24T06:05:29Z</time>
      </trkpt>
      <trkpt lat="42.8210900" lon="-8.6169920">
        <ele>124.6</ele>
        <time>2021-05-24T06:05:30Z</time>
      </trkpt>
      <trkpt lat="42.8211010" lon="-8.6169920">
        <ele>124.5</ele>
        <time>2021-05-24T06:05:31Z</time>
      </trkpt>
      <trkpt lat="42.8211110" lon="-8.6169960">
        <ele>124.5</ele>
        <time>2021-05-24T06:05:32Z</time>
      </trkpt>
      <trkpt lat="42.8211210" lon="-8.6170000">
        <ele>124.5</ele>
        <time>2021-05-24T06:05:33Z</time>
      </trkpt>
      <trkpt lat="42.8211340" lon="-8.6170020">
        <ele>124.4</ele>
        <time>2021-05-24T06:05:34Z</time>
      </trkpt>
      <trkpt lat="42.8211480" lon="-8.6170020">
        <ele>124.4</ele>
        <time>2021-05-24T06:05:35Z</time>
      </trkpt>
      <trkpt lat="42.8211620" lon="-8.6170070">
        <ele>124.4</ele>
        <time>2021-05-24T06:05:36Z</time>
      </trkpt>
      <trkpt lat="42.8211710" lon="-8.6170060">
        <ele>124.3</ele>
        <time>2021-05-24T06:05:37Z</time>
      </trkpt>
      <trkpt lat="42.8211810" lon="-8.6170070">
        <ele>124.3</ele>
        <time>2021-05-24T06:05:38Z</time>
      </trkpt>
      <trkpt lat="42.8211940" lon="-8.6170060">
        <ele>124.3</ele>
        <time>2021-05-24T06:05:39Z</time>
      </trkpt>
      <trkpt lat="42.8212060" lon="-8.6170060">
        <ele>124.2</ele>
        <time>2021-05-24T06:05:40Z</time>
      </trkpt>
      <trkpt lat="42.8212150" lon="-8.6170030">
        <ele>124.2</ele>
        <time>2021-05-24T06:05:41Z</time>
      </trkpt>
      <trkpt lat="42.8212260" lon="-8.6170010">
        <ele>124.2</ele>
        <time>2021-05-24T06:05:42Z</time>
      </trkpt>
      <trkpt lat="42.8212420" lon="-8.6170060">
        <ele>124.1</ele>
        <time>2021-05-24T06:05:43Z</time>
      </trkpt>
      <trkpt lat="42.8212540" lon="-8.6170110">
        <ele>124.1</ele>
        <time>2021-05-24T06:05:44Z</time>
      </trkpt>
      <trkpt lat="42.8212680" lon="-8.6170160">
        <ele>124.1</ele>
        <time>2021-05-24T06:05:45Z</time>
      </trkpt>
      <trkpt lat="42.8212800" lon="-8.6170200">
        <ele>124.1</ele>
        <time>2021-05-24T06:05:46Z</time>
      </trkpt>
      <trkpt lat="42.8212890" lon="-8.6170210">
        <ele>124.1</ele>
        <time>2021-05-24T06:05:47Z</time>
      </trkpt>
      <trkpt lat="42.8212960" lon="-8.6170250">
        <ele>124.1</ele>
        <time>2021-05-24T06:05:48Z</time>
      </trkpt>
      <trkpt lat="42.8212940" lon="-8.6170200">
        <ele>124.0</ele>
        <time>2021-05-24T06:05:49Z</time>
      </trkpt>
      <trkpt lat="42.8213000" lon="-8.6170170">
        <ele>124.0</ele>
        <time>2021-05-24T06:05:50Z</time>
      </trkpt>
      <trkpt lat="42.8212970" lon="-8.6170220">
        <ele>124.0</ele>
        <time>2021-05-24T06:05:51Z</time>
      </trkpt>
      <trkpt lat="42.8212990" lon="-8.6170170">
        <ele>124.0</ele>
        <time>2021-05-24T06:05:52Z</time>
      </trkpt>
      <trkpt lat="42.8212980" lon="-8.6170180">
        <ele>124.0</ele>
        <time>2021-05-24T06:05:53Z</time>
      </trkpt>
      <trkpt lat="42.8212990" lon="-8.6170170">
        <ele>124.0</ele>
        <time>2021-05-24T06:05:54Z</time>
      </trkpt>
      <trkpt lat="42.8212990" lon="-8.6170160">
        <ele>124.0</ele>
        <time>2021-05-24T06:05:55Z</time>
      </trkpt>
      <trkpt lat="42.8213020" lon="-8.6170150">
        <ele>124.0</ele>
        <time>2021-05-24T06:05:56Z</time>
      </trkpt>
      <trkpt lat="42.8213020" lon="-8.6170140">
        <ele>124.0</ele>
        <time>2021-05-24T06:05:57Z</time>
      </trkpt>
      <trkpt lat="42.8213030" lon="-8.6170120">
        <ele>124.0</ele>
        <time>2021-05-24T06:05:58Z</time>
      </trkpt>
      <trkpt lat="42.8213000" lon="-8.6170130">
        <ele>124.0</ele>
        <time>2021-05-24T06:05:59Z</time>
      </trkpt>
      <trkpt lat="42.8213000" lon="-8.6170130">
        <ele>124.0</ele>
        <time>2021-05-24T06:06:00Z</time>
      </trkpt>
      <trkpt lat="42.8212980" lon="-8.6170130">
        <ele>124.0</ele>
        <time>2021-05-24T06:06:01Z</time>
      </trkpt>
      <trkpt lat="42.8212960" lon="-8.6170130">
        <ele>124.0</ele>
        <time>2021-05-24T06:06:02Z</time>
      </trkpt>
      <trkpt lat="42.8212930" lon="-8.6170170">
        <ele>124.0</ele>
        <time>2021-05-24T06:06:03Z</time>
      </trkpt>
      <trkpt lat="42.8212950" lon="-8.6170160">
        <ele>124.0</ele>
        <time>2021-05-24T06:06:04Z</time>
      </trkpt>
      <trkpt lat="42.8212930" lon="-8.6170150">
        <ele>124.0</ele>
        <time>2021-05-24T06:06:05Z</time>
      </trkpt>
      <trkpt lat="42.8212910" lon="-8.6170150">
        <ele>124.0</ele>
        <time>2021-05-24T06:06:06Z</time>
      </trkpt>
      <trkpt lat="42.8212890" lon="-8.6170160">
        <ele>124.0</ele>
        <time>2021-05-24T06:06:07Z</time>
      </trkpt>
      <trkpt lat="42.8212890" lon="-8.6170180">
        <ele>124.0</ele>
        <time>2021-05-24T06:06:08Z</time>
      </trkpt>
      <trkpt lat="42.8212900" lon="-8.6170180">
        <ele>124.0</ele>
        <time>2021-05-24T06:06:09Z</time>
      </trkpt>
      <trkpt lat="42.8212900" lon="-8.6170190">
        <ele>124.0</ele>
        <time>2021-05-24T06:06:10Z</time>
      </trkpt>
      <trkpt lat="42.8212920" lon="-8.6170170">
        <ele>124.0</ele>
        <time>2021-05-24T06:06:11Z</time>
      </trkpt>
      <trkpt lat="42.8212890" lon="-8.6170180">
        <ele>124.0</ele>
        <time>2021-05-24T06:06:12Z</time>
      </trkpt>
      <trkpt lat="42.8212870" lon="-8.6170170">
        <ele>124.0</ele>
        <time>2021-05-24T06:06:13Z</time>
      </trkpt>
      <trkpt lat="42.8212850" lon="-8.6170140">
        <ele>124.0</ele>
        <time>2021-05-24T06:06:14Z</time>
      </trkpt>
      <trkpt lat="42.8212830" lon="-8.6170140">
        <ele>124.0</ele>
        <time>2021-05-24T06:06:15Z</time>
      </trkpt>
      <trkpt lat="42.8212810" lon="-8.6170140">
        <ele>124.0</ele>
        <time>2021-05-24T06:06:16Z</time>
      </trkpt>
      <trkpt lat="42.8212800" lon="-8.6170130">
        <ele>124.0</ele>
        <time>2021-05-24T06:06:17Z</time>
      </trkpt>
      <trkpt lat="42.8212800" lon="-8.6170110">
        <ele>124.0</ele>
        <time>2021-05-24T06:06:18Z</time>
      </trkpt>
      <trkpt lat="42.8212790" lon="-8.6170120">
        <ele>124.0</ele>
        <time>2021-05-24T06:06:19Z</time>
      </trkpt>
      <trkpt lat="42.8212840" lon="-8.6170090">
        <ele>124.1</ele>
        <time>2021-05-24T06:06:20Z</time>
      </trkpt>
      <trkpt lat="42.8212900" lon="-8.6170020">
        <ele>124.1</ele>
        <time>2021-05-24T06:06:21Z</time>
      </trkpt>
      <trkpt lat="42.8212950" lon="-8.6170020">
        <ele>124.1</ele>
        <time>2021-05-24T06:06:22Z</time>
      </trkpt>
      <trkpt lat="42.8213080" lon="-8.6170070">
        <ele>124.1</ele>
        <time>2021-05-24T06:06:23Z</time>
      </trkpt>
      <trkpt lat="42.8213180" lon="-8.6170150">
        <ele>124.1</ele>
        <time>2021-05-24T06:06:24Z</time>
      </trkpt>
      <trkpt lat="42.8213290" lon="-8.6170250">
        <ele>124.1</ele>
        <time>2021-05-24T06:06:25Z</time>
      </trkpt>
      <trkpt lat="42.8213420" lon="-8.6170310">
        <ele>124.2</ele>
        <time>2021-05-24T06:06:26Z</time>
      </trkpt>
      <trkpt lat="42.8213580" lon="-8.6170360">
        <ele>124.2</ele>
        <time>2021-05-24T06:06:27Z</time>
      </trkpt>
      <trkpt lat="42.8213660" lon="-8.6170260">
        <ele>124.3</ele>
        <time>2021-05-24T06:06:28Z</time>
      </trkpt>
      <trkpt lat="42.8213700" lon="-8.6170100">
        <ele>124.3</ele>
        <time>2021-05-24T06:06:29Z</time>
      </trkpt>
      <trkpt lat="42.8213800" lon="-8.6169880">
        <ele>124.4</ele>
        <time>2021-05-24T06:06:30Z</time>
      </trkpt>
      <trkpt lat="42.8213830" lon="-8.6169750">
        <ele>124.4</ele>
        <time>2021-05-24T06:06:31Z</time>
      </trkpt>
      <trkpt lat="42.8213870" lon="-8.6169630">
        <ele>124.5</ele>
        <time>2021-05-24T06:06:32Z</time>
      </trkpt>
      <trkpt lat="42.8213850" lon="-8.6169500">
        <ele>124.5</ele>
        <time>2021-05-24T06:06:33Z</time>
      </trkpt>
      <trkpt lat="42.8213840" lon="-8.6169380">
        <ele>124.5</ele>
        <time>2021-05-24T06:06:34Z</time>
      </trkpt>
      <trkpt lat="42.8213850" lon="-8.6169210">
        <ele>124.5</ele>
        <time>2021-05-24T06:06:35Z</time>
      </trkpt>
      <trkpt lat="42.8213850" lon="-8.6168920">
        <ele>124.6</ele>
        <time>2021-05-24T06:06:36Z</time>
      </trkpt>
      <trkpt lat="42.8213840" lon="-8.6168800">
        <ele>124.6</ele>
        <time>2021-05-24T06:06:37Z</time>
      </trkpt>
      <trkpt lat="42.8213830" lon="-8.6168680">
        <ele>124.6</ele>
        <time>2021-05-24T06:06:38Z</time>
      </trkpt>
      <trkpt lat="42.8213800" lon="-8.6168500">
        <ele>124.6</ele>
        <time>2021-05-24T06:06:39Z</time>
      </trkpt>
      <trkpt lat="42.8213820" lon="-8.6168410">
        <ele>124.7</ele>
        <time>2021-05-24T06:06:40Z</time>
      </trkpt>
      <trkpt lat="42.8213820" lon="-8.6168280">
        <ele>124.7</ele>
        <time>2021-05-24T06:06:41Z</time>
      </trkpt>
      <trkpt lat="42.8213810" lon="-8.6168090">
        <ele>124.8</ele>
        <time>2021-05-24T06:06:42Z</time>
      </trkpt>
      <trkpt lat="42.8213710" lon="-8.6168000">
        <ele>124.8</ele>
        <time>2021-05-24T06:06:43Z</time>
      </trkpt>
      <trkpt lat="42.8213630" lon="-8.6167940">
        <ele>124.8</ele>
        <time>2021-05-24T06:06:44Z</time>
      </trkpt>
      <trkpt lat="42.8213600" lon="-8.6167750">
        <ele>124.9</ele>
        <time>2021-05-24T06:06:45Z</time>
      </trkpt>
      <trkpt lat="42.8213520" lon="-8.6167550">
        <ele>124.9</ele>
        <time>2021-05-24T06:06:46Z</time>
      </trkpt>
      <trkpt lat="42.8213480" lon="-8.6167440">
        <ele>124.9</ele>
        <time>2021-05-24T06:06:47Z</time>
      </trkpt>
      <trkpt lat="42.8213480" lon="-8.6167400">
        <ele>125.0</ele>
        <time>2021-05-24T06:06:48Z</time>
      </trkpt>
      <trkpt lat="42.8213470" lon="-8.6167320">
        <ele>125.0</ele>
        <time>2021-05-24T06:06:49Z</time>
      </trkpt>
      <trkpt lat="42.8213440" lon="-8.6167200">
        <ele>125.0</ele>
        <time>2021-05-24T06:06:50Z</time>
      </trkpt>
      <trkpt lat="42.8213410" lon="-8.6167080">
        <ele>125.0</ele>
        <time>2021-05-24T06:06:51Z</time>
      </trkpt>
      <trkpt lat="42.8213400" lon="-8.6167010">
        <ele>125.0</ele>
        <time>2021-05-24T06:06:52Z</time>
      </trkpt>
      <trkpt lat="42.8213390" lon="-8.6166860">
        <ele>125.1</ele>
        <time>2021-05-24T06:06:53Z</time>
      </trkpt>
      <trkpt lat="42.8213340" lon="-8.6166730">
        <ele>125.1</ele>
        <time>2021-05-24T06:06:54Z</time>
      </trkpt>
      <trkpt lat="42.8213310" lon="-8.6166540">
        <ele>125.1</ele>
        <time>2021-05-24T06:06:55Z</time>
      </trkpt>
      <trkpt lat="42.8213230" lon="-8.6166380">
        <ele>125.2</ele>
        <time>2021-05-24T06:06:56Z</time>
      </trkpt>
      <trkpt lat="42.8213200" lon="-8.6166280">
        <ele>125.2</ele>
        <time>2021-05-24T06:06:57Z</time>
      </trkpt>
      <trkpt lat="42.8213180" lon="-8.6166120">
        <ele>125.2</ele>
        <time>2021-05-24T06:06:58Z</time>
      </trkpt>
      <trkpt lat="42.8213160" lon="-8.6165920">
        <ele>125.2</ele>
        <time>2021-05-24T06:06:59Z</time>
      </trkpt>
      <trkpt lat="42.8213100" lon="-8.6165750">
        <ele>125.2</ele>
        <time>2021-05-24T06:07:00Z</time>
      </trkpt>
      <trkpt lat="42.8213090" lon="-8.6165550">
        <ele>125.3</ele>
        <time>2021-05-24T06:07:01Z</time>
      </trkpt>
      <trkpt lat="42.8213100" lon="-8.6165460">
        <ele>125.3</ele>
        <time>2021-05-24T06:07:02Z</time>
      </trkpt>
      <trkpt lat="42.8213070" lon="-8.6165270">
        <ele>125.3</ele>
        <time>2021-05-24T06:07:03Z</time>
      </trkpt>
      <trkpt lat="42.8213040" lon="-8.6165100">
        <ele>125.3</ele>
        <time>2021-05-24T06:07:04Z</time>
      </trkpt>
      <trkpt lat="42.8213050" lon="-8.6164850">
        <ele>125.4</ele>
        <time>2021-05-24T06:07:05Z</time>
      </trkpt>
      <trkpt lat="42.8213110" lon="-8.6164630">
        <ele>125.4</ele>
        <time>2021-05-24T06:07:06Z</time>
      </trkpt>
      <trkpt lat="42.8213130" lon="-8.6164430">
        <ele>125.4</ele>
        <time>2021-05-24T06:07:07Z</time>
      </trkpt>
      <trkpt lat="42.8213190" lon="-8.6164290">
        <ele>125.5</ele>
        <time>2021-05-24T06:07:08Z</time>
      </trkpt>
      <trkpt lat="42.8213170" lon="-8.6164170">
        <ele>125.5</ele>
        <time>2021-05-24T06:07:09Z</time>
      </trkpt>
      <trkpt lat="42.8213170" lon="-8.6163930">
        <ele>125.5</ele>
        <time>2021-05-24T06:07:10Z</time>
      </trkpt>
      <trkpt lat="42.8213160" lon="-8.6163800">
        <ele>125.5</ele>
        <time>2021-05-24T06:07:11Z</time>
      </trkpt>
      <trkpt lat="42.8213150" lon="-8.6163670">
        <ele>125.5</ele>
        <time>2021-05-24T06:07:12Z</time>
      </trkpt>
      <trkpt lat="42.8213150" lon="-8.6163440">
        <ele>125.5</ele>
        <time>2021-05-24T06:07:13Z</time>
      </trkpt>
      <trkpt lat="42.8213150" lon="-8.6163240">
        <ele>125.5</ele>
        <time>2021-05-24T06:07:14Z</time>
      </trkpt>
      <trkpt lat="42.8213130" lon="-8.6162950">
        <ele>125.5</ele>
        <time>2021-05-24T06:07:15Z</time>
      </trkpt>
      <trkpt lat="42.8213110" lon="-8.6162820">
        <ele>125.5</ele>
        <time>2021-05-24T06:07:16Z</time>
      </trkpt>
      <trkpt lat="42.8213100" lon="-8.6162700">
        <ele>125.5</ele>
        <time>2021-05-24T06:07:17Z</time>
      </trkpt>
      <trkpt lat="42.8213070" lon="-8.6162370">
        <ele>125.5</ele>
        <time>2021-05-24T06:07:18Z</time>
      </trkpt>
      <trkpt lat="42.8213050" lon="-8.6162280">
        <ele>125.5</ele>
        <time>2021-05-24T06:07:19Z</time>
      </trkpt>
      <trkpt lat="42.8213040" lon="-8.6162180">
        <ele>125.6</ele>
        <time>2021-05-24T06:07:20Z</time>
      </trkpt>
      <trkpt lat="42.8213070" lon="-8.6162020">
        <ele>125.6</ele>
        <time>2021-05-24T06:07:21Z</time>
      </trkpt>
      <trkpt lat="42.8213030" lon="-8.6161890">
        <ele>125.6</ele>
        <time>2021-05-24T06:07:22Z</time>
      </trkpt>
      <trkpt lat="42.8213040" lon="-8.6161800">
        <ele>125.6</ele>
        <time>2021-05-24T06:07:23Z</time>
      </trkpt>
      <trkpt lat="42.8212980" lon="-8.6161530">
        <ele>125.6</ele>
        <time>2021-05-24T06:07:24Z</time>
      </trkpt>
      <trkpt lat="42.8212940" lon="-8.6161320">
        <ele>125.6</ele>
        <time>2021-05-24T06:07:25Z</time>
      </trkpt>
      <trkpt lat="42.8212910" lon="-8.6161030">
        <ele>125.6</ele>
        <time>2021-05-24T06:07:26Z</time>
      </trkpt>
      <trkpt lat="42.8212900" lon="-8.6160910">
        <ele>125.6</ele>
        <time>2021-05-24T06:07:27Z</time>
      </trkpt>
      <trkpt lat="42.8212900" lon="-8.6160800">
        <ele>125.6</ele>
        <time>2021-05-24T06:07:28Z</time>
      </trkpt>
      <trkpt lat="42.8212890" lon="-8.6160680">
        <ele>125.6</ele>
        <time>2021-05-24T06:07:29Z</time>
      </trkpt>
      <trkpt lat="42.8212860" lon="-8.6160550">
        <ele>125.6</ele>
        <time>2021-05-24T06:07:30Z</time>
      </trkpt>
      <trkpt lat="42.8212880" lon="-8.6160440">
        <ele>125.6</ele>
        <time>2021-05-24T06:07:31Z</time>
      </trkpt>
      <trkpt lat="42.8212860" lon="-8.6160310">
        <ele>125.6</ele>
        <time>2021-05-24T06:07:32Z</time>
      </trkpt>
      <trkpt lat="42.8212880" lon="-8.6160040">
        <ele>125.5</ele>
        <time>2021-05-24T06:07:33Z</time>
      </trkpt>
      <trkpt lat="42.8212860" lon="-8.6159900">
        <ele>125.5</ele>
        <time>2021-05-24T06:07:34Z</time>
      </trkpt>
      <trkpt lat="42.8212800" lon="-8.6159680">
        <ele>125.5</ele>
        <time>2021-05-24T06:07:35Z</time>
      </trkpt>
      <trkpt lat="42.8212830" lon="-8.6159500">
        <ele>125.5</ele>
        <time>2021-05-24T06:07:36Z</time>
      </trkpt>
      <trkpt lat="42.8212800" lon="-8.6159340">
        <ele>125.5</ele>
        <time>2021-05-24T06:07:37Z</time>
      </trkpt>
      <trkpt lat="42.8212790" lon="-8.6159240">
        <ele>125.5</ele>
        <time>2021-05-24T06:07:38Z</time>
      </trkpt>
      <trkpt lat="42.8212760" lon="-8.6159080">
        <ele>125.5</ele>
        <time>2021-05-24T06:07:39Z</time>
      </trkpt>
      <trkpt lat="42.8212740" lon="-8.6158930">
        <ele>125.5</ele>
        <time>2021-05-24T06:07:40Z</time>
      </trkpt>
      <trkpt lat="42.8212690" lon="-8.6158640">
        <ele>125.5</ele>
        <time>2021-05-24T06:07:41Z</time>
      </trkpt>
      <trkpt lat="42.8212630" lon="-8.6158350">
        <ele>125.5</ele>
        <time>2021-05-24T06:07:42Z</time>
      </trkpt>
      <trkpt lat="42.8212600" lon="-8.6158230">
        <ele>125.5</ele>
        <time>2021-05-24T06:07:43Z</time>
      </trkpt>
      <trkpt lat="42.8212580" lon="-8.6158110">
        <ele>125.5</ele>
        <time>2021-05-24T06:07:44Z</time>
      </trkpt>
      <trkpt lat="42.8212520" lon="-8.6157940">
        <ele>125.6</ele>
        <time>2021-05-24T06:07:45Z</time>
      </trkpt>
      <trkpt lat="42.8212460" lon="-8.6157870">
        <ele>125.6</ele>
        <time>2021-05-24T06:07:46Z</time>
      </trkpt>
      <trkpt lat="42.8212390" lon="-8.6157740">
        <ele>125.6</ele>
        <time>2021-05-24T06:07:47Z</time>
      </trkpt>
      <trkpt lat="42.8212280" lon="-8.6157540">
        <ele>125.6</ele>
        <time>2021-05-24T06:07:48Z</time>
      </trkpt>
      <trkpt lat="42.8212180" lon="-8.6157440">
        <ele>125.6</ele>
        <time>2021-05-24T06:07:49Z</time>
      </trkpt>
      <trkpt lat="42.8212080" lon="-8.6157350">
        <ele>125.6</ele>
        <time>2021-05-24T06:07:50Z</time>
      </trkpt>
      <trkpt lat="42.8211980" lon="-8.6157260">
        <ele>125.6</ele>
        <time>2021-05-24T06:07:51Z</time>
      </trkpt>
      <trkpt lat="42.8211910" lon="-8.6157140">
        <ele>125.6</ele>
        <time>2021-05-24T06:07:52Z</time>
      </trkpt>
      <trkpt lat="42.8211870" lon="-8.6156950">
        <ele>125.6</ele>
        <time>2021-05-24T06:07:53Z</time>
      </trkpt>
      <trkpt lat="42.8211870" lon="-8.6156850">
        <ele>125.6</ele>
        <time>2021-05-24T06:07:54Z</time>
      </trkpt>
      <trkpt lat="42.8211920" lon="-8.6156750">
        <ele>125.6</ele>
        <time>2021-05-24T06:07:55Z</time>
      </trkpt>
      <trkpt lat="42.8211940" lon="-8.6156590">
        <ele>125.6</ele>
        <time>2021-05-24T06:07:56Z</time>
      </trkpt>
      <trkpt lat="42.8211980" lon="-8.6156460">
        <ele>125.6</ele>
        <time>2021-05-24T06:07:57Z</time>
      </trkpt>
      <trkpt lat="42.8211980" lon="-8.6156480">
        <ele>125.6</ele>
        <time>2021-05-24T06:07:58Z</time>
      </trkpt>
      <trkpt lat="42.8211990" lon="-8.6156450">
        <ele>125.6</ele>
        <time>2021-05-24T06:07:59Z</time>
      </trkpt>
      <trkpt lat="42.8212050" lon="-8.6156410">
        <ele>125.6</ele>
        <time>2021-05-24T06:08:00Z</time>
      </trkpt>
      <trkpt lat="42.8212140" lon="-8.6156170">
        <ele>125.6</ele>
        <time>2021-05-24T06:08:01Z</time>
      </trkpt>
      <trkpt lat="42.8212190" lon="-8.6156060">
        <ele>125.6</ele>
        <time>2021-05-24T06:08:02Z</time>
      </trkpt>
      <trkpt lat="42.8212230" lon="-8.6155960">
        <ele>125.6</ele>
        <time>2021-05-24T06:08:03Z</time>
      </trkpt>
      <trkpt lat="42.8212250" lon="-8.6155900">
        <ele>125.6</ele>
        <time>2021-05-24T06:08:04Z</time>
      </trkpt>
      <trkpt lat="42.8212320" lon="-8.6155730">
        <ele>125.6</ele>
        <time>2021-05-24T06:08:05Z</time>
      </trkpt>
      <trkpt lat="42.8212430" lon="-8.6155540">
        <ele>125.6</ele>
        <time>2021-05-24T06:08:06Z</time>
      </trkpt>
      <trkpt lat="42.8212480" lon="-8.6155400">
        <ele>125.6</ele>
        <time>2021-05-24T06:08:07Z</time>
      </trkpt>
      <trkpt lat="42.8212510" lon="-8.6155300">
        <ele>125.6</ele>
        <time>2021-05-24T06:08:08Z</time>
      </trkpt>
      <trkpt lat="42.8212570" lon="-8.6155160">
        <ele>125.6</ele>
        <time>2021-05-24T06:08:09Z</time>
      </trkpt>
      <trkpt lat="42.8212670" lon="-8.6154980">
        <ele>125.6</ele>
        <time>2021-05-24T06:08:10Z</time>
      </trkpt>
      <trkpt lat="42.8212700" lon="-8.6154830">
        <ele>125.6</ele>
        <time>2021-05-24T06:08:11Z</time>
      </trkpt>
      <trkpt lat="42.8212760" lon="-8.6154680">
        <ele>125.6</ele>
        <time>2021-05-24T06:08:12Z</time>
      </trkpt>
      <trkpt lat="42.8212780" lon="-8.6154600">
        <ele>125.7</ele>
        <time>2021-05-24T06:08:13Z</time>
      </trkpt>
      <trkpt lat="42.8212800" lon="-8.6154530">
        <ele>125.7</ele>
        <time>2021-05-24T06:08:14Z</time>
      </trkpt>
      <trkpt lat="42.8212810" lon="-8.6154450">
        <ele>125.7</ele>
        <time>2021-05-24T06:08:15Z</time>
      </trkpt>
      <trkpt lat="42.8212830" lon="-8.6154380">
        <ele>125.7</ele>
        <time>2021-05-24T06:08:16Z</time>
      </trkpt>
      <trkpt lat="42.8212850" lon="-8.6154300">
        <ele>125.7</ele>
        <time>2021-05-24T06:08:17Z</time>
      </trkpt>
      <trkpt lat="42.8213020" lon="-8.6154100">
        <ele>125.7</ele>
        <time>2021-05-24T06:08:18Z</time>
      </trkpt>
      <trkpt lat="42.8213090" lon="-8.6154030">
        <ele>125.7</ele>
        <time>2021-05-24T06:08:19Z</time>
      </trkpt>
      <trkpt lat="42.8213150" lon="-8.6153950">
        <ele>125.7</ele>
        <time>2021-05-24T06:08:20Z</time>
      </trkpt>
      <trkpt lat="42.8213160" lon="-8.6153780">
        <ele>125.7</ele>
        <time>2021-05-24T06:08:21Z</time>
      </trkpt>
      <trkpt lat="42.8213200" lon="-8.6153690">
        <ele>125.7</ele>
        <time>2021-05-24T06:08:22Z</time>
      </trkpt>
      <trkpt lat="42.8213230" lon="-8.6153530">
        <ele>125.7</ele>
        <time>2021-05-24T06:08:23Z</time>
      </trkpt>
      <trkpt lat="42.8213300" lon="-8.6153390">
        <ele>125.8</ele>
        <time>2021-05-24T06:08:24Z</time>
      </trkpt>
      <trkpt lat="42.8213400" lon="-8.6153170">
        <ele>125.8</ele>
        <time>2021-05-24T06:08:25Z</time>
      </trkpt>
      <trkpt lat="42.8213510" lon="-8.6152900">
        <ele>125.8</ele>
        <time>2021-05-24T06:08:26Z</time>
      </trkpt>
      <trkpt lat="42.8213540" lon="-8.6152820">
        <ele>125.9</ele>
        <time>2021-05-24T06:08:27Z</time>
      </trkpt>
      <trkpt lat="42.8213570" lon="-8.6152730">
        <ele>125.9</ele>
        <time>2021-05-24T06:08:28Z</time>
      </trkpt>
      <trkpt lat="42.8213660" lon="-8.6152510">
        <ele>125.9</ele>
        <time>2021-05-24T06:08:29Z</time>
      </trkpt>
      <trkpt lat="42.8213760" lon="-8.6152440">
        <ele>126.0</ele>
        <time>2021-05-24T06:08:30Z</time>
      </trkpt>
      <trkpt lat="42.8213880" lon="-8.6152150">
        <ele>126.0</ele>
        <time>2021-05-24T06:08:31Z</time>
      </trkpt>
      <trkpt lat="42.8213920" lon="-8.6152050">
        <ele>126.1</ele>
        <time>2021-05-24T06:08:32Z</time>
      </trkpt>
      <trkpt lat="42.8213970" lon="-8.6151950">
        <ele>126.1</ele>
        <time>2021-05-24T06:08:33Z</time>
      </trkpt>
      <trkpt lat="42.8214040" lon="-8.6151670">
        <ele>126.2</ele>
        <time>2021-05-24T06:08:34Z</time>
      </trkpt>
      <trkpt lat="42.8214050" lon="-8.6151540">
        <ele>126.2</ele>
        <time>2021-05-24T06:08:35Z</time>
      </trkpt>
      <trkpt lat="42.8214070" lon="-8.6151420">
        <ele>126.2</ele>
        <time>2021-05-24T06:08:36Z</time>
      </trkpt>
      <trkpt lat="42.8214120" lon="-8.6151280">
        <ele>126.3</ele>
        <time>2021-05-24T06:08:37Z</time>
      </trkpt>
      <trkpt lat="42.8214100" lon="-8.6151280">
        <ele>126.3</ele>
        <time>2021-05-24T06:08:38Z</time>
      </trkpt>
      <trkpt lat="42.8214070" lon="-8.6151270">
        <ele>126.3</ele>
        <time>2021-05-24T06:08:39Z</time>
      </trkpt>
      <trkpt lat="42.8214080" lon="-8.6151260">
        <ele>126.3</ele>
        <time>2021-05-24T06:08:40Z</time>
      </trkpt>
      <trkpt lat="42.8214090" lon="-8.6151220">
        <ele>126.3</ele>
        <time>2021-05-24T06:08:41Z</time>
      </trkpt>
      <trkpt lat="42.8214110" lon="-8.6151070">
        <ele>126.3</ele>
        <time>2021-05-24T06:08:42Z</time>
      </trkpt>
      <trkpt lat="42.8214170" lon="-8.6150960">
        <ele>126.4</ele>
        <time>2021-05-24T06:08:43Z</time>
      </trkpt>
      <trkpt lat="42.8214240" lon="-8.6150910">
        <ele>126.4</ele>
        <time>2021-05-24T06:08:44Z</time>
      </trkpt>
      <trkpt lat="42.8214270" lon="-8.6150800">
        <ele>126.5</ele>
        <time>2021-05-24T06:08:45Z</time>
      </trkpt>
      <trkpt lat="42.8214320" lon="-8.6150680">
        <ele>126.5</ele>
        <time>2021-05-24T06:08:46Z</time>
      </trkpt>
      <trkpt lat="42.8214350" lon="-8.6150560">
        <ele>126.5</ele>
        <time>2021-05-24T06:08:47Z</time>
      </trkpt>
      <trkpt lat="42.8214380" lon="-8.6150510">
        <ele>126.6</ele>
        <time>2021-05-24T06:08:48Z</time>
      </trkpt>
      <trkpt lat="42.8214470" lon="-8.6150390">
        <ele>126.6</ele>
        <time>2021-05-24T06:08:49Z</time>
      </trkpt>
      <trkpt lat="42.8214490" lon="-8.6150220">
        <ele>126.7</ele>
        <time>2021-05-24T06:08:50Z</time>
      </trkpt>
      <trkpt lat="42.8214460" lon="-8.6150080">
        <ele>126.7</ele>
        <time>2021-05-24T06:08:51Z</time>
      </trkpt>
      <trkpt lat="42.8214480" lon="-8.6149960">
        <ele>126.8</ele>
        <time>2021-05-24T06:08:52Z</time>
      </trkpt>
      <trkpt lat="42.8214500" lon="-8.6149820">
        <ele>126.8</ele>
        <time>2021-05-24T06:08:53Z</time>
      </trkpt>
      <trkpt lat="42.8214550" lon="-8.6149670">
        <ele>126.9</ele>
        <time>2021-05-24T06:08:54Z</time>
      </trkpt>
      <trkpt lat="42.8214560" lon="-8.6149550">
        <ele>126.9</ele>
        <time>2021-05-24T06:08:55Z</time>
      </trkpt>
      <trkpt lat="42.8214620" lon="-8.6149430">
        <ele>127.0</ele>
        <time>2021-05-24T06:08:56Z</time>
      </trkpt>
      <trkpt lat="42.8214660" lon="-8.6149320">
        <ele>127.0</ele>
        <time>2021-05-24T06:08:57Z</time>
      </trkpt>
      <trkpt lat="42.8214670" lon="-8.6149240">
        <ele>127.0</ele>
        <time>2021-05-24T06:08:58Z</time>
      </trkpt>
      <trkpt lat="42.8214700" lon="-8.6149120">
        <ele>127.1</ele>
        <time>2021-05-24T06:08:59Z</time>
      </trkpt>
      <trkpt lat="42.8214720" lon="-8.6149020">
        <ele>127.1</ele>
        <time>2021-05-24T06:09:00Z</time>
      </trkpt>
      <trkpt lat="42.8214770" lon="-8.6148920">
        <ele>127.2</ele>
        <time>2021-05-24T06:09:01Z</time>
      </trkpt>
      <trkpt lat="42.8214810" lon="-8.6148790">
        <ele>127.2</ele>
        <time>2021-05-24T06:09:02Z</time>
      </trkpt>
      <trkpt lat="42.8214890" lon="-8.6148630">
        <ele>127.3</ele>
        <time>2021-05-24T06:09:03Z</time>
      </trkpt>
      <trkpt lat="42.8214950" lon="-8.6148520">
        <ele>127.3</ele>
        <time>2021-05-24T06:09:04Z</time>
      </trkpt>
      <trkpt lat="42.8214980" lon="-8.6148410">
        <ele>127.3</ele>
        <time>2021-05-24T06:09:05Z</time>
      </trkpt>
      <trkpt lat="42.8215040" lon="-8.6148290">
        <ele>127.4</ele>
        <time>2021-05-24T06:09:06Z</time>
      </trkpt>
      <trkpt lat="42.8215080" lon="-8.6148110">
        <ele>127.5</ele>
        <time>2021-05-24T06:09:07Z</time>
      </trkpt>
      <trkpt lat="42.8215140" lon="-8.6147960">
        <ele>127.5</ele>
        <time>2021-05-24T06:09:08Z</time>
      </trkpt>
      <trkpt lat="42.8215190" lon="-8.6147870">
        <ele>127.6</ele>
        <time>2021-05-24T06:09:09Z</time>
      </trkpt>
      <trkpt lat="42.8215320" lon="-8.6147630">
        <ele>127.7</ele>
        <time>2021-05-24T06:09:10Z</time>
      </trkpt>
      <trkpt lat="42.8215350" lon="-8.6147540">
        <ele>127.7</ele>
        <time>2021-05-24T06:09:11Z</time>
      </trkpt>
      <trkpt lat="42.8215390" lon="-8.6147450">
        <ele>127.7</ele>
        <time>2021-05-24T06:09:12Z</time>
      </trkpt>
      <trkpt lat="42.8215430" lon="-8.6147320">
        <ele>127.8</ele>
        <time>2021-05-24T06:09:13Z</time>
      </trkpt>
      <trkpt lat="42.8215480" lon="-8.6147190">
        <ele>127.8</ele>
        <time>2021-05-24T06:09:14Z</time>
      </trkpt>
      <trkpt lat="42.8215530" lon="-8.6147030">
        <ele>127.9</ele>
        <time>2021-05-24T06:09:15Z</time>
      </trkpt>
      <trkpt lat="42.8215570" lon="-8.6146890">
        <ele>127.9</ele>
        <time>2021-05-24T06:09:16Z</time>
      </trkpt>
      <trkpt lat="42.8215640" lon="-8.6146780">
        <ele>128.0</ele>
        <time>2021-05-24T06:09:17Z</time>
      </trkpt>
      <trkpt lat="42.8215650" lon="-8.6146630">
        <ele>128.0</ele>
        <time>2021-05-24T06:09:18Z</time>
      </trkpt>
      <trkpt lat="42.8215680" lon="-8.6146510">
        <ele>128.1</ele>
        <time>2021-05-24T06:09:19Z</time>
      </trkpt>
      <trkpt lat="42.8215710" lon="-8.6146330">
        <ele>128.1</ele>
        <time>2021-05-24T06:09:20Z</time>
      </trkpt>
      <trkpt lat="42.8215740" lon="-8.6146170">
        <ele>128.2</ele>
        <time>2021-05-24T06:09:21Z</time>
      </trkpt>
      <trkpt lat="42.8215770" lon="-8.6146030">
        <ele>128.2</ele>
        <time>2021-05-24T06:09:22Z</time>
      </trkpt>
      <trkpt lat="42.8215770" lon="-8.6145870">
        <ele>128.3</ele>
        <time>2021-05-24T06:09:23Z</time>
      </trkpt>
      <trkpt lat="42.8215770" lon="-8.6145730">
        <ele>128.3</ele>
        <time>2021-05-24T06:09:24Z</time>
      </trkpt>
      <trkpt lat="42.8215790" lon="-8.6145640">
        <ele>128.3</ele>
        <time>2021-05-24T06:09:25Z</time>
      </trkpt>
      <trkpt lat="42.8215770" lon="-8.6145490">
        <ele>128.4</ele>
        <time>2021-05-24T06:09:26Z</time>
      </trkpt>
      <trkpt lat="42.8215790" lon="-8.6145360">
        <ele>128.4</ele>
        <time>2021-05-24T06:09:27Z</time>
      </trkpt>
      <trkpt lat="42.8215790" lon="-8.6145190">
        <ele>128.5</ele>
        <time>2021-05-24T06:09:28Z</time>
      </trkpt>
      <trkpt lat="42.8215800" lon="-8.6145050">
        <ele>128.5</ele>
        <time>2021-05-24T06:09:29Z</time>
      </trkpt>
      <trkpt lat="42.8215800" lon="-8.6144960">
        <ele>128.6</ele>
        <time>2021-05-24T06:09:30Z</time>
      </trkpt>
      <trkpt lat="42.8215810" lon="-8.6144780">
        <ele>128.6</ele>
        <time>2021-05-24T06:09:31Z</time>
      </trkpt>
      <trkpt lat="42.8215820" lon="-8.6144610">
        <ele>128.7</ele>
        <time>2021-05-24T06:09:32Z</time>
      </trkpt>
      <trkpt lat="42.8215830" lon="-8.6144480">
        <ele>128.7</ele>
        <time>2021-05-24T06:09:33Z</time>
      </trkpt>
      <trkpt lat="42.8215800" lon="-8.6144340">
        <ele>128.8</ele>
        <time>2021-05-24T06:09:34Z</time>
      </trkpt>
      <trkpt lat="42.8215770" lon="-8.6144240">
        <ele>128.8</ele>
        <time>2021-05-24T06:09:35Z</time>
      </trkpt>
      <trkpt lat="42.8215740" lon="-8.6144110">
        <ele>128.8</ele>
        <time>2021-05-24T06:09:36Z</time>
      </trkpt>
      <trkpt lat="42.8215710" lon="-8.6143980">
        <ele>128.8</ele>
        <time>2021-05-24T06:09:37Z</time>
      </trkpt>
      <trkpt lat="42.8215660" lon="-8.6143860">
        <ele>128.9</ele>
        <time>2021-05-24T06:09:38Z</time>
      </trkpt>
      <trkpt lat="42.8215580" lon="-8.6143710">
        <ele>128.9</ele>
        <time>2021-05-24T06:09:39Z</time>
      </trkpt>
      <trkpt lat="42.8215590" lon="-8.6143560">
        <ele>128.9</ele>
        <time>2021-05-24T06:09:40Z</time>
      </trkpt>
      <trkpt lat="42.8215550" lon="-8.6143450">
        <ele>129.0</ele>
        <time>2021-05-24T06:09:41Z</time>
      </trkpt>
      <trkpt lat="42.8215540" lon="-8.6143300">
        <ele>129.0</ele>
        <time>2021-05-24T06:09:42Z</time>
      </trkpt>
      <trkpt lat="42.8215530" lon="-8.6143120">
        <ele>129.0</ele>
        <time>2021-05-24T06:09:43Z</time>
      </trkpt>
      <trkpt lat="42.8215530" lon="-8.6142970">
        <ele>129.1</ele>
        <time>2021-05-24T06:09:44Z</time>
      </trkpt>
      <trkpt lat="42.8215520" lon="-8.6142820">
        <ele>129.1</ele>
        <time>2021-05-24T06:09:45Z</time>
      </trkpt>
      <trkpt lat="42.8215550" lon="-8.6142520">
        <ele>129.2</ele>
        <time>2021-05-24T06:09:46Z</time>
      </trkpt>
      <trkpt lat="42.8215570" lon="-8.6142410">
        <ele>129.2</ele>
        <time>2021-05-24T06:09:47Z</time>
      </trkpt>
      <trkpt lat="42.8215580" lon="-8.6142290">
        <ele>129.2</ele>
        <time>2021-05-24T06:09:48Z</time>
      </trkpt>
      <trkpt lat="42.8215610" lon="-8.6142170">
        <ele>129.3</ele>
        <time>2021-05-24T06:09:49Z</time>
      </trkpt>
      <trkpt lat="42.8215620" lon="-8.6141990">
        <ele>129.3</ele>
        <time>2021-05-24T06:09:50Z</time>
      </trkpt>
      <trkpt lat="42.8215630" lon="-8.6141810">
        <ele>129.3</ele>
        <time>2021-05-24T06:09:51Z</time>
      </trkpt>
      <trkpt lat="42.8215650" lon="-8.6141670">
        <ele>129.4</ele>
        <time>2021-05-24T06:09:52Z</time>
      </trkpt>
      <trkpt lat="42.8215630" lon="-8.6141480">
        <ele>129.4</ele>
        <time>2021-05-24T06:09:53Z</time>
      </trkpt>
      <trkpt lat="42.8215570" lon="-8.6141350">
        <ele>129.4</ele>
        <time>2021-05-24T06:09:54Z</time>
      </trkpt>
      <trkpt lat="42.8215540" lon="-8.6141230">
        <ele>129.4</ele>
        <time>2021-05-24T06:09:55Z</time>
      </trkpt>
      <trkpt lat="42.8215530" lon="-8.6141050">
        <ele>129.5</ele>
        <time>2021-05-24T06:09:56Z</time>
      </trkpt>
      <trkpt lat="42.8215540" lon="-8.6140920">
        <ele>129.5</ele>
        <time>2021-05-24T06:09:57Z</time>
      </trkpt>
      <trkpt lat="42.8215550" lon="-8.6140770">
        <ele>129.5</ele>
        <time>2021-05-24T06:09:58Z</time>
      </trkpt>
      <trkpt lat="42.8215550" lon="-8.6140620">
        <ele>129.6</ele>
        <time>2021-05-24T06:09:59Z</time>
      </trkpt>
      <trkpt lat="42.8215530" lon="-8.6140440">
        <ele>129.6</ele>
        <time>2021-05-24T06:10:00Z</time>
      </trkpt>
      <trkpt lat="42.8215540" lon="-8.6140300">
        <ele>129.6</ele>
        <time>2021-05-24T06:10:01Z</time>
      </trkpt>
      <trkpt lat="42.8215480" lon="-8.6140130">
        <ele>129.6</ele>
        <time>2021-05-24T06:10:02Z</time>
      </trkpt>
      <trkpt lat="42.8215440" lon="-8.6140000">
        <ele>129.7</ele>
        <time>2021-05-24T06:10:03Z</time>
      </trkpt>
      <trkpt lat="42.8215440" lon="-8.6139890">
        <ele>129.7</ele>
        <time>2021-05-24T06:10:04Z</time>
      </trkpt>
      <trkpt lat="42.8215450" lon="-8.6139690">
        <ele>129.7</ele>
        <time>2021-05-24T06:10:05Z</time>
      </trkpt>
      <trkpt lat="42.8215430" lon="-8.6139520">
        <ele>129.8</ele>
        <time>2021-05-24T06:10:06Z</time>
      </trkpt>
      <trkpt lat="42.8215410" lon="-8.6139360">
        <ele>129.8</ele>
        <time>2021-05-24T06:10:07Z</time>
      </trkpt>
      <trkpt lat="42.8215420" lon="-8.6139190">
        <ele>129.8</ele>
        <time>2021-05-24T06:10:08Z</time>
      </trkpt>
      <trkpt lat="42.8215440" lon="-8.6139090">
        <ele>129.8</ele>
        <time>2021-05-24T06:10:09Z</time>
      </trkpt>
      <trkpt lat="42.8215410" lon="-8.6138980">
        <ele>129.9</ele>
        <time>2021-05-24T06:10:10Z</time>
      </trkpt>
      <trkpt lat="42.8215360" lon="-8.6138870">
        <ele>129.9</ele>
        <time>2021-05-24T06:10:11Z</time>
      </trkpt>
      <trkpt lat="42.8215340" lon="-8.6138750">
        <ele>129.9</ele>
        <time>2021-05-24T06:10:12Z</time>
      </trkpt>
      <trkpt lat="42.8215310" lon="-8.6138550">
        <ele>129.9</ele>
        <time>2021-05-24T06:10:13Z</time>
      </trkpt>
      <trkpt lat="42.8215290" lon="-8.6138370">
        <ele>130.0</ele>
        <time>2021-05-24T06:10:14Z</time>
      </trkpt>
      <trkpt lat="42.8215270" lon="-8.6138230">
        <ele>130.0</ele>
        <time>2021-05-24T06:10:15Z</time>
      </trkpt>
      <trkpt lat="42.8215220" lon="-8.6138050">
        <ele>130.0</ele>
        <time>2021-05-24T06:10:16Z</time>
      </trkpt>
      <trkpt lat="42.8215210" lon="-8.6137910">
        <ele>130.1</ele>
        <time>2021-05-24T06:10:17Z</time>
      </trkpt>
      <trkpt lat="42.8215150" lon="-8.6137700">
        <ele>130.1</ele>
        <time>2021-05-24T06:10:18Z</time>
      </trkpt>
      <trkpt lat="42.8215160" lon="-8.6137600">
        <ele>130.1</ele>
        <time>2021-05-24T06:10:19Z</time>
      </trkpt>
      <trkpt lat="42.8215140" lon="-8.6137450">
        <ele>130.2</ele>
        <time>2021-05-24T06:10:20Z</time>
      </trkpt>
      <trkpt lat="42.8215150" lon="-8.6137310">
        <ele>130.2</ele>
        <time>2021-05-24T06:10:21Z</time>
      </trkpt>
      <trkpt lat="42.8215160" lon="-8.6137220">
        <ele>130.2</ele>
        <time>2021-05-24T06:10:22Z</time>
      </trkpt>
      <trkpt lat="42.8215160" lon="-8.6137090">
        <ele>130.2</ele>
        <time>2021-05-24T06:10:23Z</time>
      </trkpt>
      <trkpt lat="42.8215160" lon="-8.6136970">
        <ele>130.3</ele>
        <time>2021-05-24T06:10:24Z</time>
      </trkpt>
      <trkpt lat="42.8215180" lon="-8.6136900">
        <ele>130.3</ele>
        <time>2021-05-24T06:10:25Z</time>
      </trkpt>
      <trkpt lat="42.8215220" lon="-8.6136830">
        <ele>130.3</ele>
        <time>2021-05-24T06:10:26Z</time>
      </trkpt>
      <trkpt lat="42.8215250" lon="-8.6136740">
        <ele>130.3</ele>
        <time>2021-05-24T06:10:27Z</time>
      </trkpt>
      <trkpt lat="42.8215300" lon="-8.6136650">
        <ele>130.3</ele>
        <time>2021-05-24T06:10:28Z</time>
      </trkpt>
      <trkpt lat="42.8215370" lon="-8.6136570">
        <ele>130.3</ele>
        <time>2021-05-24T06:10:29Z</time>
      </trkpt>
      <trkpt lat="42.8215420" lon="-8.6136470">
        <ele>130.3</ele>
        <time>2021-05-24T06:10:30Z</time>
      </trkpt>
      <trkpt lat="42.8215460" lon="-8.6136410">
        <ele>130.3</ele>
        <time>2021-05-24T06:10:31Z</time>
      </trkpt>
      <trkpt lat="42.8215540" lon="-8.6136320">
        <ele>130.3</ele>
        <time>2021-05-24T06:10:32Z</time>
      </trkpt>
      <trkpt lat="42.8215570" lon="-8.6136220">
        <ele>130.3</ele>
        <time>2021-05-24T06:10:33Z</time>
      </trkpt>
      <trkpt lat="42.8215590" lon="-8.6136160">
        <ele>130.4</ele>
        <time>2021-05-24T06:10:34Z</time>
      </trkpt>
      <trkpt lat="42.8215640" lon="-8.6136090">
        <ele>130.4</ele>
        <time>2021-05-24T06:10:35Z</time>
      </trkpt>
      <trkpt lat="42.8215710" lon="-8.6136010">
        <ele>130.4</ele>
        <time>2021-05-24T06:10:36Z</time>
      </trkpt>
      <trkpt lat="42.8215750" lon="-8.6135950">
        <ele>130.4</ele>
        <time>2021-05-24T06:10:37Z</time>
      </trkpt>
      <trkpt lat="42.8215800" lon="-8.6135880">
        <ele>130.4</ele>
        <time>2021-05-24T06:10:38Z</time>
      </trkpt>
      <trkpt lat="42.8215860" lon="-8.6135810">
        <ele>130.4</ele>
        <time>2021-05-24T06:10:39Z</time>
      </trkpt>
      <trkpt lat="42.8215890" lon="-8.6135660">
        <ele>130.4</ele>
        <time>2021-05-24T06:10:40Z</time>
      </trkpt>
      <trkpt lat="42.8215940" lon="-8.6135610">
        <ele>130.4</ele>
        <time>2021-05-24T06:10:41Z</time>
      </trkpt>
      <trkpt lat="42.8215960" lon="-8.6135530">
        <ele>130.4</ele>
        <time>2021-05-24T06:10:42Z</time>
      </trkpt>
      <trkpt lat="42.8216000" lon="-8.6135440">
        <ele>130.4</ele>
        <time>2021-05-24T06:10:43Z</time>
      </trkpt>
      <trkpt lat="42.8216090" lon="-8.6135340">
        <ele>130.4</ele>
        <time>2021-05-24T06:10:44Z</time>
      </trkpt>
      <trkpt lat="42.8216120" lon="-8.6135240">
        <ele>130.4</ele>
        <time>2021-05-24T06:10:45Z</time>
      </trkpt>
      <trkpt lat="42.8216180" lon="-8.6135120">
        <ele>130.4</ele>
        <time>2021-05-24T06:10:46Z</time>
      </trkpt>
      <trkpt lat="42.8216250" lon="-8.6135010">
        <ele>130.4</ele>
        <time>2021-05-24T06:10:47Z</time>
      </trkpt>
      <trkpt lat="42.8216320" lon="-8.6134910">
        <ele>130.4</ele>
        <time>2021-05-24T06:10:48Z</time>
      </trkpt>
      <trkpt lat="42.8216390" lon="-8.6134810">
        <ele>130.4</ele>
        <time>2021-05-24T06:10:49Z</time>
      </trkpt>
      <trkpt lat="42.8216430" lon="-8.6134680">
        <ele>130.4</ele>
        <time>2021-05-24T06:10:50Z</time>
      </trkpt>
      <trkpt lat="42.8216480" lon="-8.6134570">
        <ele>130.5</ele>
        <time>2021-05-24T06:10:51Z</time>
      </trkpt>
      <trkpt lat="42.8216550" lon="-8.6134490">
        <ele>130.5</ele>
        <time>2021-05-24T06:10:52Z</time>
      </trkpt>
      <trkpt lat="42.8216650" lon="-8.6134420">
        <ele>130.5</ele>
        <time>2021-05-24T06:10:53Z</time>
      </trkpt>
      <trkpt lat="42.8216780" lon="-8.6134350">
        <ele>130.5</ele>
        <time>2021-05-24T06:10:54Z</time>
      </trkpt>
      <trkpt lat="42.8216900" lon="-8.6134270">
        <ele>130.5</ele>
        <time>2021-05-24T06:10:55Z</time>
      </trkpt>
      <trkpt lat="42.8217010" lon="-8.6134150">
        <ele>130.5</ele>
        <time>2021-05-24T06:10:56Z</time>
      </trkpt>
      <trkpt lat="42.8217120" lon="-8.6134040">
        <ele>130.5</ele>
        <time>2021-05-24T06:10:57Z</time>
      </trkpt>
      <trkpt lat="42.8217300" lon="-8.6133910">
        <ele>130.5</ele>
        <time>2021-05-24T06:10:58Z</time>
      </trkpt>
      <trkpt lat="42.8217370" lon="-8.6133830">
        <ele>130.5</ele>
        <time>2021-05-24T06:10:59Z</time>
      </trkpt>
      <trkpt lat="42.8217430" lon="-8.6133760">
        <ele>130.5</ele>
        <time>2021-05-24T06:11:00Z</time>
      </trkpt>
      <trkpt lat="42.8217610" lon="-8.6133570">
        <ele>130.5</ele>
        <time>2021-05-24T06:11:01Z</time>
      </trkpt>
      <trkpt lat="42.8217680" lon="-8.6133470">
        <ele>130.5</ele>
        <time>2021-05-24T06:11:02Z</time>
      </trkpt>
      <trkpt lat="42.8217750" lon="-8.6133380">
        <ele>130.6</ele>
        <time>2021-05-24T06:11:03Z</time>
      </trkpt>
      <trkpt lat="42.8217850" lon="-8.6133320">
        <ele>130.6</ele>
        <time>2021-05-24T06:11:04Z</time>
      </trkpt>
      <trkpt lat="42.8217860" lon="-8.6133250">
        <ele>130.6</ele>
        <time>2021-05-24T06:11:05Z</time>
      </trkpt>
      <trkpt lat="42.8217840" lon="-8.6133210">
        <ele>130.6</ele>
        <time>2021-05-24T06:11:06Z</time>
      </trkpt>
      <trkpt lat="42.8217830" lon="-8.6133180">
        <ele>130.6</ele>
        <time>2021-05-24T06:11:07Z</time>
      </trkpt>
      <trkpt lat="42.8217840" lon="-8.6133180">
        <ele>130.6</ele>
        <time>2021-05-24T06:11:08Z</time>
      </trkpt>
      <trkpt lat="42.8217800" lon="-8.6133140">
        <ele>130.6</ele>
        <time>2021-05-24T06:11:09Z</time>
      </trkpt>
      <trkpt lat="42.8217760" lon="-8.6133090">
        <ele>130.6</ele>
        <time>2021-05-24T06:11:10Z</time>
      </trkpt>
      <trkpt lat="42.8217770" lon="-8.6133020">
        <ele>130.6</ele>
        <time>2021-05-24T06:11:11Z</time>
      </trkpt>
      <trkpt lat="42.8217750" lon="-8.6133020">
        <ele>130.6</ele>
        <time>2021-05-24T06:11:12Z</time>
      </trkpt>
      <trkpt lat="42.8217720" lon="-8.6132990">
        <ele>130.6</ele>
        <time>2021-05-24T06:11:13Z</time>
      </trkpt>
      <trkpt lat="42.8217740" lon="-8.6132920">
        <ele>130.6</ele>
        <time>2021-05-24T06:11:14Z</time>
      </trkpt>
      <trkpt lat="42.8217760" lon="-8.6132890">
        <ele>130.6</ele>
        <time>2021-05-24T06:11:15Z</time>
      </trkpt>
      <trkpt lat="42.8217790" lon="-8.6132870">
        <ele>130.6</ele>
        <time>2021-05-24T06:11:16Z</time>
      </trkpt>
      <trkpt lat="42.8217820" lon="-8.6132840">
        <ele>130.6</ele>
        <time>2021-05-24T06:11:17Z</time>
      </trkpt>
      <trkpt lat="42.8217840" lon="-8.6132820">
        <ele>130.6</ele>
        <time>2021-05-24T06:11:18Z</time>
      </trkpt>
      <trkpt lat="42.8217870" lon="-8.6132790">
        <ele>130.6</ele>
        <time>2021-05-24T06:11:19Z</time>
      </trkpt>
      <trkpt lat="42.8217890" lon="-8.6132770">
        <ele>130.6</ele>
        <time>2021-05-24T06:11:20Z</time>
      </trkpt>
      <trkpt lat="42.8217920" lon="-8.6132740">
        <ele>130.6</ele>
        <time>2021-05-24T06:11:21Z</time>
      </trkpt>
      <trkpt lat="42.8217950" lon="-8.6132720">
        <ele>130.6</ele>
        <time>2021-05-24T06:11:22Z</time>
      </trkpt>
      <trkpt lat="42.8217970" lon="-8.6132690">
        <ele>130.6</ele>
        <time>2021-05-24T06:11:23Z</time>
      </trkpt>
      <trkpt lat="42.8218000" lon="-8.6132670">
        <ele>130.6</ele>
        <time>2021-05-24T06:11:24Z</time>
      </trkpt>
      <trkpt lat="42.8218050" lon="-8.6132580">
        <ele>130.6</ele>
        <time>2021-05-24T06:11:25Z</time>
      </trkpt>
      <trkpt lat="42.8218140" lon="-8.6132540">
        <ele>130.6</ele>
        <time>2021-05-24T06:11:26Z</time>
      </trkpt>
      <trkpt lat="42.8218270" lon="-8.6132440">
        <ele>130.7</ele>
        <time>2021-05-24T06:11:27Z</time>
      </trkpt>
      <trkpt lat="42.8218340" lon="-8.6132330">
        <ele>130.7</ele>
        <time>2021-05-24T06:11:28Z</time>
      </trkpt>
      <trkpt lat="42.8218460" lon="-8.6132150">
        <ele>130.7</ele>
        <time>2021-05-24T06:11:29Z</time>
      </trkpt>
      <trkpt lat="42.8218610" lon="-8.6132010">
        <ele>130.7</ele>
        <time>2021-05-24T06:11:30Z</time>
      </trkpt>
      <trkpt lat="42.8218680" lon="-8.6131920">
        <ele>130.7</ele>
        <time>2021-05-24T06:11:31Z</time>
      </trkpt>
      <trkpt lat="42.8218840" lon="-8.6131830">
        <ele>130.7</ele>
        <time>2021-05-24T06:11:32Z</time>
      </trkpt>
      <trkpt lat="42.8219010" lon="-8.6131780">
        <ele>130.7</ele>
        <time>2021-05-24T06:11:33Z</time>
      </trkpt>
      <trkpt lat="42.8219200" lon="-8.6131600">
        <ele>130.7</ele>
        <time>2021-05-24T06:11:34Z</time>
      </trkpt>
      <trkpt lat="42.8219270" lon="-8.6131560">
        <ele>130.7</ele>
        <time>2021-05-24T06:11:35Z</time>
      </trkpt>
      <trkpt lat="42.8219330" lon="-8.6131510">
        <ele>130.8</ele>
        <time>2021-05-24T06:11:36Z</time>
      </trkpt>
      <trkpt lat="42.8219520" lon="-8.6131340">
        <ele>130.8</ele>
        <time>2021-05-24T06:11:37Z</time>
      </trkpt>
      <trkpt lat="42.8219590" lon="-8.6131250">
        <ele>130.8</ele>
        <time>2021-05-24T06:11:38Z</time>
      </trkpt>
      <trkpt lat="42.8219660" lon="-8.6131160">
        <ele>130.8</ele>
        <time>2021-05-24T06:11:39Z</time>
      </trkpt>
      <trkpt lat="42.8219740" lon="-8.6131080">
        <ele>130.8</ele>
        <time>2021-05-24T06:11:40Z</time>
      </trkpt>
      <trkpt lat="42.8219800" lon="-8.6131010">
        <ele>130.8</ele>
        <time>2021-05-24T06:11:41Z</time>
      </trkpt>
      <trkpt lat="42.8219860" lon="-8.6130890">
        <ele>130.8</ele>
        <time>2021-05-24T06:11:42Z</time>
      </trkpt>
      <trkpt lat="42.8219890" lon="-8.6130790">
        <ele>130.8</ele>
        <time>2021-05-24T06:11:43Z</time>
      </trkpt>
      <trkpt lat="42.8219970" lon="-8.6130660">
        <ele>130.8</ele>
        <time>2021-05-24T06:11:44Z</time>
      </trkpt>
      <trkpt lat="42.8220080" lon="-8.6130550">
        <ele>130.8</ele>
        <time>2021-05-24T06:11:45Z</time>
      </trkpt>
      <trkpt lat="42.8220170" lon="-8.6130480">
        <ele>130.8</ele>
        <time>2021-05-24T06:11:46Z</time>
      </trkpt>
      <trkpt lat="42.8220280" lon="-8.6130350">
        <ele>130.8</ele>
        <time>2021-05-24T06:11:47Z</time>
      </trkpt>
      <trkpt lat="42.8220390" lon="-8.6130280">
        <ele>130.8</ele>
        <time>2021-05-24T06:11:48Z</time>
      </trkpt>
      <trkpt lat="42.8220500" lon="-8.6130090">
        <ele>130.8</ele>
        <time>2021-05-24T06:11:49Z</time>
      </trkpt>
      <trkpt lat="42.8220600" lon="-8.6129920">
        <ele>130.8</ele>
        <time>2021-05-24T06:11:50Z</time>
      </trkpt>
      <trkpt lat="42.8220640" lon="-8.6129800">
        <ele>130.8</ele>
        <time>2021-05-24T06:11:51Z</time>
      </trkpt>
      <trkpt lat="42.8220760" lon="-8.6129730">
        <ele>130.8</ele>
        <time>2021-05-24T06:11:52Z</time>
      </trkpt>
      <trkpt lat="42.8220850" lon="-8.6129700">
        <ele>130.8</ele>
        <time>2021-05-24T06:11:53Z</time>
      </trkpt>
      <trkpt lat="42.8220910" lon="-8.6129640">
        <ele>130.8</ele>
        <time>2021-05-24T06:11:54Z</time>
      </trkpt>
      <trkpt lat="42.8221100" lon="-8.6129470">
        <ele>130.8</ele>
        <time>2021-05-24T06:11:55Z</time>
      </trkpt>
      <trkpt lat="42.8221230" lon="-8.6129380">
        <ele>130.8</ele>
        <time>2021-05-24T06:11:56Z</time>
      </trkpt>
      <trkpt lat="42.8221370" lon="-8.6129280">
        <ele>130.8</ele>
        <time>2021-05-24T06:11:57Z</time>
      </trkpt>
      <trkpt lat="42.8221560" lon="-8.6129170">
        <ele>130.8</ele>
        <time>2021-05-24T06:11:58Z</time>
      </trkpt>
      <trkpt lat="42.8221680" lon="-8.6129020">
        <ele>130.8</ele>
        <time>2021-05-24T06:11:59Z</time>
      </trkpt>
      <trkpt lat="42.8221840" lon="-8.6128880">
        <ele>130.8</ele>
        <time>2021-05-24T06:12:00Z</time>
      </trkpt>
      <trkpt lat="42.8221920" lon="-8.6128830">
        <ele>130.8</ele>
        <time>2021-05-24T06:12:01Z</time>
      </trkpt>
      <trkpt lat="42.8222000" lon="-8.6128770">
        <ele>130.8</ele>
        <time>2021-05-24T06:12:02Z</time>
      </trkpt>
      <trkpt lat="42.8222230" lon="-8.6128570">
        <ele>130.9</ele>
        <time>2021-05-24T06:12:03Z</time>
      </trkpt>
      <trkpt lat="42.8222320" lon="-8.6128530">
        <ele>130.9</ele>
        <time>2021-05-24T06:12:04Z</time>
      </trkpt>
      <trkpt lat="42.8222430" lon="-8.6128480">
        <ele>130.9</ele>
        <time>2021-05-24T06:12:05Z</time>
      </trkpt>
      <trkpt lat="42.8222500" lon="-8.6128380">
        <ele>130.9</ele>
        <time>2021-05-24T06:12:06Z</time>
      </trkpt>
      <trkpt lat="42.8222590" lon="-8.6128300">
        <ele>130.9</ele>
        <time>2021-05-24T06:12:07Z</time>
      </trkpt>
      <trkpt lat="42.8222730" lon="-8.6128070">
        <ele>130.9</ele>
        <time>2021-05-24T06:12:08Z</time>
      </trkpt>
      <trkpt lat="42.8222820" lon="-8.6127990">
        <ele>130.9</ele>
        <time>2021-05-24T06:12:09Z</time>
      </trkpt>
      <trkpt lat="42.8222900" lon="-8.6127910">
        <ele>130.9</ele>
        <time>2021-05-24T06:12:10Z</time>
      </trkpt>
      <trkpt lat="42.8223100" lon="-8.6127730">
        <ele>130.9</ele>
        <time>2021-05-24T06:12:11Z</time>
      </trkpt>
      <trkpt lat="42.8223180" lon="-8.6127670">
        <ele>130.9</ele>
        <time>2021-05-24T06:12:12Z</time>
      </trkpt>
      <trkpt lat="42.8223260" lon="-8.6127600">
        <ele>130.9</ele>
        <time>2021-05-24T06:12:13Z</time>
      </trkpt>
      <trkpt lat="42.8223380" lon="-8.6127410">
        <ele>130.9</ele>
        <time>2021-05-24T06:12:14Z</time>
      </trkpt>
      <trkpt lat="42.8223500" lon="-8.6127340">
        <ele>130.9</ele>
        <time>2021-05-24T06:12:15Z</time>
      </trkpt>
      <trkpt lat="42.8223600" lon="-8.6127290">
        <ele>130.9</ele>
        <time>2021-05-24T06:12:16Z</time>
      </trkpt>
      <trkpt lat="42.8223680" lon="-8.6127180">
        <ele>130.9</ele>
        <time>2021-05-24T06:12:17Z</time>
      </trkpt>
      <trkpt lat="42.8223740" lon="-8.6127090">
        <ele>130.9</ele>
        <time>2021-05-24T06:12:18Z</time>
      </trkpt>
      <trkpt lat="42.8223860" lon="-8.6126990">
        <ele>130.8</ele>
        <time>2021-05-24T06:12:19Z</time>
      </trkpt>
      <trkpt lat="42.8223990" lon="-8.6126920">
        <ele>130.8</ele>
        <time>2021-05-24T06:12:20Z</time>
      </trkpt>
      <trkpt lat="42.8224150" lon="-8.6126750">
        <ele>130.8</ele>
        <time>2021-05-24T06:12:21Z</time>
      </trkpt>
      <trkpt lat="42.8224210" lon="-8.6126670">
        <ele>130.8</ele>
        <time>2021-05-24T06:12:22Z</time>
      </trkpt>
      <trkpt lat="42.8224260" lon="-8.6126590">
        <ele>130.8</ele>
        <time>2021-05-24T06:12:23Z</time>
      </trkpt>
      <trkpt lat="42.8224410" lon="-8.6126440">
        <ele>130.8</ele>
        <time>2021-05-24T06:12:24Z</time>
      </trkpt>
      <trkpt lat="42.8224500" lon="-8.6126370">
        <ele>130.8</ele>
        <time>2021-05-24T06:12:25Z</time>
      </trkpt>
      <trkpt lat="42.8224580" lon="-8.6126290">
        <ele>130.8</ele>
        <time>2021-05-24T06:12:26Z</time>
      </trkpt>
      <trkpt lat="42.8224640" lon="-8.6126200">
        <ele>130.8</ele>
        <time>2021-05-24T06:12:27Z</time>
      </trkpt>
      <trkpt lat="42.8224750" lon="-8.6126100">
        <ele>130.8</ele>
        <time>2021-05-24T06:12:28Z</time>
      </trkpt>
      <trkpt lat="42.8224870" lon="-8.6125990">
        <ele>130.8</ele>
        <time>2021-05-24T06:12:29Z</time>
      </trkpt>
      <trkpt lat="42.8225050" lon="-8.6125830">
        <ele>130.8</ele>
        <time>2021-05-24T06:12:30Z</time>
      </trkpt>
      <trkpt lat="42.8225120" lon="-8.6125760">
        <ele>130.8</ele>
        <time>2021-05-24T06:12:31Z</time>
      </trkpt>
      <trkpt lat="42.8225190" lon="-8.6125690">
        <ele>130.7</ele>
        <time>2021-05-24T06:12:32Z</time>
      </trkpt>
      <trkpt lat="42.8225290" lon="-8.6125600">
        <ele>130.7</ele>
        <time>2021-05-24T06:12:33Z</time>
      </trkpt>
      <trkpt lat="42.8225380" lon="-8.6125520">
        <ele>130.7</ele>
        <time>2021-05-24T06:12:34Z</time>
      </trkpt>
      <trkpt lat="42.8225460" lon="-8.6125430">
        <ele>130.7</ele>
        <time>2021-05-24T06:12:35Z</time>
      </trkpt>
      <trkpt lat="42.8225630" lon="-8.6125270">
        <ele>130.7</ele>
        <time>2021-05-24T06:12:36Z</time>
      </trkpt>
      <trkpt lat="42.8225700" lon="-8.6125200">
        <ele>130.7</ele>
        <time>2021-05-24T06:12:37Z</time>
      </trkpt>
      <trkpt lat="42.8225760" lon="-8.6125130">
        <ele>130.7</ele>
        <time>2021-05-24T06:12:38Z</time>
      </trkpt>
      <trkpt lat="42.8225850" lon="-8.6125050">
        <ele>130.7</ele>
        <time>2021-05-24T06:12:39Z</time>
      </trkpt>
      <trkpt lat="42.8225910" lon="-8.6124950">
        <ele>130.7</ele>
        <time>2021-05-24T06:12:40Z</time>
      </trkpt>
      <trkpt lat="42.8225990" lon="-8.6124850">
        <ele>130.7</ele>
        <time>2021-05-24T06:12:41Z</time>
      </trkpt>
      <trkpt lat="42.8226060" lon="-8.6124740">
        <ele>130.7</ele>
        <time>2021-05-24T06:12:42Z</time>
      </trkpt>
      <trkpt lat="42.8226150" lon="-8.6124620">
        <ele>130.6</ele>
        <time>2021-05-24T06:12:43Z</time>
      </trkpt>
      <trkpt lat="42.8226220" lon="-8.6124550">
        <ele>130.6</ele>
        <time>2021-05-24T06:12:44Z</time>
      </trkpt>
      <trkpt lat="42.8226290" lon="-8.6124470">
        <ele>130.6</ele>
        <time>2021-05-24T06:12:45Z</time>
      </trkpt>
      <trkpt lat="42.8226380" lon="-8.6124350">
        <ele>130.6</ele>
        <time>2021-05-24T06:12:46Z</time>
      </trkpt>
      <trkpt lat="42.8226380" lon="-8.6124240">
        <ele>130.6</ele>
        <time>2021-05-24T06:12:47Z</time>
      </trkpt>
      <trkpt lat="42.8226360" lon="-8.6124140">
        <ele>130.6</ele>
        <time>2021-05-24T06:12:48Z</time>
      </trkpt>
      <trkpt lat="42.8226400" lon="-8.6124040">
        <ele>130.6</ele>
        <time>2021-05-24T06:12:49Z</time>
      </trkpt>
      <trkpt lat="42.8226500" lon="-8.6123900">
        <ele>130.6</ele>
        <time>2021-05-24T06:12:50Z</time>
      </trkpt>
      <trkpt lat="42.8226620" lon="-8.6123650">
        <ele>130.6</ele>
        <time>2021-05-24T06:12:51Z</time>
      </trkpt>
      <trkpt lat="42.8226650" lon="-8.6123530">
        <ele>130.6</ele>
        <time>2021-05-24T06:12:52Z</time>
      </trkpt>
      <trkpt lat="42.8226680" lon="-8.6123420">
        <ele>130.6</ele>
        <time>2021-05-24T06:12:53Z</time>
      </trkpt>
      <trkpt lat="42.8226790" lon="-8.6123170">
        <ele>130.5</ele>
        <time>2021-05-24T06:12:54Z</time>
      </trkpt>
      <trkpt lat="42.8226840" lon="-8.6123100">
        <ele>130.5</ele>
        <time>2021-05-24T06:12:55Z</time>
      </trkpt>
      <trkpt lat="42.8226890" lon="-8.6123030">
        <ele>130.5</ele>
        <time>2021-05-24T06:12:56Z</time>
      </trkpt>
      <trkpt lat="42.8226940" lon="-8.6122960">
        <ele>130.5</ele>
        <time>2021-05-24T06:12:57Z</time>
      </trkpt>
      <trkpt lat="42.8227040" lon="-8.6122810">
        <ele>130.5</ele>
        <time>2021-05-24T06:12:58Z</time>
      </trkpt>
      <trkpt lat="42.8227090" lon="-8.6122740">
        <ele>130.5</ele>
        <time>2021-05-24T06:12:59Z</time>
      </trkpt>
      <trkpt lat="42.8227140" lon="-8.6122660">
        <ele>130.5</ele>
        <time>2021-05-24T06:13:00Z</time>
      </trkpt>
      <trkpt lat="42.8227190" lon="-8.6122590">
        <ele>130.5</ele>
        <time>2021-05-24T06:13:01Z</time>
      </trkpt>
      <trkpt lat="42.8227300" lon="-8.6122480">
        <ele>130.4</ele>
        <time>2021-05-24T06:13:02Z</time>
      </trkpt>
      <trkpt lat="42.8227380" lon="-8.6122240">
        <ele>130.4</ele>
        <time>2021-05-24T06:13:03Z</time>
      </trkpt>
      <trkpt lat="42.8227480" lon="-8.6122130">
        <ele>130.4</ele>
        <time>2021-05-24T06:13:04Z</time>
      </trkpt>
      <trkpt lat="42.8227610" lon="-8.6121910">
        <ele>130.4</ele>
        <time>2021-05-24T06:13:05Z</time>
      </trkpt>
      <trkpt lat="42.8227760" lon="-8.6121630">
        <ele>130.3</ele>
        <time>2021-05-24T06:13:06Z</time>
      </trkpt>
      <trkpt lat="42.8227800" lon="-8.6121560">
        <ele>130.3</ele>
        <time>2021-05-24T06:13:07Z</time>
      </trkpt>
      <trkpt lat="42.8227830" lon="-8.6121500">
        <ele>130.3</ele>
        <time>2021-05-24T06:13:08Z</time>
      </trkpt>
      <trkpt lat="42.8228010" lon="-8.6121290">
        <ele>130.3</ele>
        <time>2021-05-24T06:13:09Z</time>
      </trkpt>
      <trkpt lat="42.8228070" lon="-8.6121200">
        <ele>130.3</ele>
        <time>2021-05-24T06:13:10Z</time>
      </trkpt>
      <trkpt lat="42.8228140" lon="-8.6121120">
        <ele>130.3</ele>
        <time>2021-05-24T06:13:11Z</time>
      </trkpt>
      <trkpt lat="42.8228280" lon="-8.6121000">
        <ele>130.2</ele>
        <time>2021-05-24T06:13:12Z</time>
      </trkpt>
      <trkpt lat="42.8228380" lon="-8.6120900">
        <ele>130.2</ele>
        <time>2021-05-24T06:13:13Z</time>
      </trkpt>
      <trkpt lat="42.8228560" lon="-8.6120720">
        <ele>130.2</ele>
        <time>2021-05-24T06:13:14Z</time>
      </trkpt>
      <trkpt lat="42.8228670" lon="-8.6120640">
        <ele>130.2</ele>
        <time>2021-05-24T06:13:15Z</time>
      </trkpt>
      <trkpt lat="42.8228830" lon="-8.6120440">
        <ele>130.1</ele>
        <time>2021-05-24T06:13:16Z</time>
      </trkpt>
      <trkpt lat="42.8228870" lon="-8.6120400">
        <ele>130.1</ele>
        <time>2021-05-24T06:13:17Z</time>
      </trkpt>
      <trkpt lat="42.8228850" lon="-8.6120300">
        <ele>130.1</ele>
        <time>2021-05-24T06:13:18Z</time>
      </trkpt>
      <trkpt lat="42.8228930" lon="-8.6120130">
        <ele>130.1</ele>
        <time>2021-05-24T06:13:19Z</time>
      </trkpt>
      <trkpt lat="42.8229030" lon="-8.6119980">
        <ele>130.1</ele>
        <time>2021-05-24T06:13:20Z</time>
      </trkpt>
      <trkpt lat="42.8229120" lon="-8.6119810">
        <ele>130.1</ele>
        <time>2021-05-24T06:13:21Z</time>
      </trkpt>
      <trkpt lat="42.8229190" lon="-8.6119760">
        <ele>130.1</ele>
        <time>2021-05-24T06:13:22Z</time>
      </trkpt>
      <trkpt lat="42.8229280" lon="-8.6119700">
        <ele>130.0</ele>
        <time>2021-05-24T06:13:23Z</time>
      </trkpt>
      <trkpt lat="42.8229430" lon="-8.6119520">
        <ele>130.0</ele>
        <time>2021-05-24T06:13:24Z</time>
      </trkpt>
      <trkpt lat="42.8229500" lon="-8.6119450">
        <ele>130.0</ele>
        <time>2021-05-24T06:13:25Z</time>
      </trkpt>
      <trkpt lat="42.8229570" lon="-8.6119380">
        <ele>130.0</ele>
        <time>2021-05-24T06:13:26Z</time>
      </trkpt>
      <trkpt lat="42.8229730" lon="-8.6119330">
        <ele>130.0</ele>
        <time>2021-05-24T06:13:27Z</time>
      </trkpt>
      <trkpt lat="42.8229910" lon="-8.6119240">
        <ele>130.0</ele>
        <time>2021-05-24T06:13:28Z</time>
      </trkpt>
      <trkpt lat="42.8230160" lon="-8.6119120">
        <ele>129.9</ele>
        <time>2021-05-24T06:13:29Z</time>
      </trkpt>
      <trkpt lat="42.8230230" lon="-8.6119160">
        <ele>129.9</ele>
        <time>2021-05-24T06:13:30Z</time>
      </trkpt>
      <trkpt lat="42.8230240" lon="-8.6119180">
        <ele>129.9</ele>
        <time>2021-05-24T06:13:31Z</time>
      </trkpt>
      <trkpt lat="42.8230300" lon="-8.6119220">
        <ele>129.9</ele>
        <time>2021-05-24T06:13:32Z</time>
      </trkpt>
      <trkpt lat="42.8230260" lon="-8.6119210">
        <ele>129.9</ele>
        <time>2021-05-24T06:13:33Z</time>
      </trkpt>
      <trkpt lat="42.8230270" lon="-8.6119210">
        <ele>129.9</ele>
        <time>2021-05-24T06:13:34Z</time>
      </trkpt>
      <trkpt lat="42.8230300" lon="-8.6119210">
        <ele>129.9</ele>
        <time>2021-05-24T06:13:35Z</time>
      </trkpt>
      <trkpt lat="42.8230310" lon="-8.6119110">
        <ele>129.9</ele>
        <time>2021-05-24T06:13:36Z</time>
      </trkpt>
      <trkpt lat="42.8230310" lon="-8.6119060">
        <ele>129.9</ele>
        <time>2021-05-24T06:13:37Z</time>
      </trkpt>
      <trkpt lat="42.8230370" lon="-8.6118990">
        <ele>129.9</ele>
        <time>2021-05-24T06:13:38Z</time>
      </trkpt>
      <trkpt lat="42.8230410" lon="-8.6118880">
        <ele>129.9</ele>
        <time>2021-05-24T06:13:39Z</time>
      </trkpt>
      <trkpt lat="42.8230520" lon="-8.6118870">
        <ele>129.9</ele>
        <time>2021-05-24T06:13:40Z</time>
      </trkpt>
      <trkpt lat="42.8230630" lon="-8.6118720">
        <ele>129.9</ele>
        <time>2021-05-24T06:13:41Z</time>
      </trkpt>
      <trkpt lat="42.8230650" lon="-8.6118640">
        <ele>129.9</ele>
        <time>2021-05-24T06:13:42Z</time>
      </trkpt>
      <trkpt lat="42.8230810" lon="-8.6118560">
        <ele>129.8</ele>
        <time>2021-05-24T06:13:43Z</time>
      </trkpt>
      <trkpt lat="42.8230810" lon="-8.6118480">
        <ele>129.8</ele>
        <time>2021-05-24T06:13:44Z</time>
      </trkpt>
      <trkpt lat="42.8230910" lon="-8.6118310">
        <ele>129.8</ele>
        <time>2021-05-24T06:13:45Z</time>
      </trkpt>
      <trkpt lat="42.8230940" lon="-8.6118220">
        <ele>129.8</ele>
        <time>2021-05-24T06:13:46Z</time>
      </trkpt>
      <trkpt lat="42.8231040" lon="-8.6118080">
        <ele>129.8</ele>
        <time>2021-05-24T06:13:47Z</time>
      </trkpt>
      <trkpt lat="42.8231100" lon="-8.6118000">
        <ele>129.8</ele>
        <time>2021-05-24T06:13:48Z</time>
      </trkpt>
      <trkpt lat="42.8231180" lon="-8.6117900">
        <ele>129.8</ele>
        <time>2021-05-24T06:13:49Z</time>
      </trkpt>
      <trkpt lat="42.8231240" lon="-8.6117870">
        <ele>129.8</ele>
        <time>2021-05-24T06:13:50Z</time>
      </trkpt>
      <trkpt lat="42.8231380" lon="-8.6117750">
        <ele>129.8</ele>
        <time>2021-05-24T06:13:51Z</time>
      </trkpt>
      <trkpt lat="42.8231470" lon="-8.6117720">
        <ele>129.8</ele>
        <time>2021-05-24T06:13:52Z</time>
      </trkpt>
      <trkpt lat="42.8231550" lon="-8.6117590">
        <ele>129.8</ele>
        <time>2021-05-24T06:13:53Z</time>
      </trkpt>
      <trkpt lat="42.8231600" lon="-8.6117550">
        <ele>129.8</ele>
        <time>2021-05-24T06:13:54Z</time>
      </trkpt>
      <trkpt lat="42.8231610" lon="-8.6117480">
        <ele>129.8</ele>
        <time>2021-05-24T06:13:55Z</time>
      </trkpt>
      <trkpt lat="42.8231720" lon="-8.6117270">
        <ele>129.8</ele>
        <time>2021-05-24T06:13:56Z</time>
      </trkpt>
      <trkpt lat="42.8231910" lon="-8.6117210">
        <ele>129.8</ele>
        <time>2021-05-24T06:13:57Z</time>
      </trkpt>
      <trkpt lat="42.8232030" lon="-8.6117070">
        <ele>129.8</ele>
        <time>2021-05-24T06:13:58Z</time>
      </trkpt>
      <trkpt lat="42.8232180" lon="-8.6116960">
        <ele>129.8</ele>
        <time>2021-05-24T06:13:59Z</time>
      </trkpt>
      <trkpt lat="42.8232400" lon="-8.6116870">
        <ele>129.8</ele>
        <time>2021-05-24T06:14:00Z</time>
      </trkpt>
      <trkpt lat="42.8232530" lon="-8.6116810">
        <ele>129.8</ele>
        <time>2021-05-24T06:14:01Z</time>
      </trkpt>
      <trkpt lat="42.8232630" lon="-8.6116740">
        <ele>129.8</ele>
        <time>2021-05-24T06:14:02Z</time>
      </trkpt>
      <trkpt lat="42.8232770" lon="-8.6116640">
        <ele>129.8</ele>
        <time>2021-05-24T06:14:03Z</time>
      </trkpt>
      <trkpt lat="42.8232860" lon="-8.6116500">
        <ele>129.9</ele>
        <time>2021-05-24T06:14:04Z</time>
      </trkpt>
      <trkpt lat="42.8232970" lon="-8.6116390">
        <ele>129.9</ele>
        <time>2021-05-24T06:14:05Z</time>
      </trkpt>
      <trkpt lat="42.8233040" lon="-8.6116300">
        <ele>129.9</ele>
        <time>2021-05-24T06:14:06Z</time>
      </trkpt>
      <trkpt lat="42.8233140" lon="-8.6116150">
        <ele>129.9</ele>
        <time>2021-05-24T06:14:07Z</time>
      </trkpt>
      <trkpt lat="42.8233250" lon="-8.6116100">
        <ele>129.9</ele>
        <time>2021-05-24T06:14:08Z</time>
      </trkpt>
      <trkpt lat="42.8233320" lon="-8.6116000">
        <ele>129.9</ele>
        <time>2021-05-24T06:14:09Z</time>
      </trkpt>
      <trkpt lat="42.8233450" lon="-8.6116000">
        <ele>129.9</ele>
        <time>2021-05-24T06:14:10Z</time>
      </trkpt>
      <trkpt lat="42.8233640" lon="-8.6115970">
        <ele>129.9</ele>
        <time>2021-05-24T06:14:11Z</time>
      </trkpt>
      <trkpt lat="42.8233870" lon="-8.6115980">
        <ele>129.9</ele>
        <time>2021-05-24T06:14:12Z</time>
      </trkpt>
      <trkpt lat="42.8233970" lon="-8.6115980">
        <ele>129.9</ele>
        <time>2021-05-24T06:14:13Z</time>
      </trkpt>
      <trkpt lat="42.8234070" lon="-8.6115980">
        <ele>129.9</ele>
        <time>2021-05-24T06:14:14Z</time>
      </trkpt>
      <trkpt lat="42.8234270" lon="-8.6115890">
        <ele>129.8</ele>
        <time>2021-05-24T06:14:15Z</time>
      </trkpt>
      <trkpt lat="42.8234360" lon="-8.6115870">
        <ele>129.8</ele>
        <time>2021-05-24T06:14:16Z</time>
      </trkpt>
      <trkpt lat="42.8234460" lon="-8.6115860">
        <ele>129.7</ele>
        <time>2021-05-24T06:14:17Z</time>
      </trkpt>
      <trkpt lat="42.8234590" lon="-8.6115820">
        <ele>129.7</ele>
        <time>2021-05-24T06:14:18Z</time>
      </trkpt>
      <trkpt lat="42.8234680" lon="-8.6115790">
        <ele>129.6</ele>
        <time>2021-05-24T06:14:19Z</time>
      </trkpt>
      <trkpt lat="42.8234770" lon="-8.6115780">
        <ele>129.6</ele>
        <time>2021-05-24T06:14:20Z</time>
      </trkpt>
      <trkpt lat="42.8234830" lon="-8.6115760">
        <ele>129.6</ele>
        <time>2021-05-24T06:14:21Z</time>
      </trkpt>
      <trkpt lat="42.8234940" lon="-8.6115690">
        <ele>129.5</ele>
        <time>2021-05-24T06:14:22Z</time>
      </trkpt>
      <trkpt lat="42.8234970" lon="-8.6115700">
        <ele>129.5</ele>
        <time>2021-05-24T06:14:23Z</time>
      </trkpt>
      <trkpt lat="42.8234980" lon="-8.6115700">
        <ele>129.5</ele>
        <time>2021-05-24T06:14:24Z</time>
      </trkpt>
      <trkpt lat="42.8235070" lon="-8.6115730">
        <ele>129.5</ele>
        <time>2021-05-24T06:14:25Z</time>
      </trkpt>
      <trkpt lat="42.8235200" lon="-8.6115830">
        <ele>129.4</ele>
        <time>2021-05-24T06:14:26Z</time>
      </trkpt>
      <trkpt lat="42.8235230" lon="-8.6115850">
        <ele>129.4</ele>
        <time>2021-05-24T06:14:27Z</time>
      </trkpt>
      <trkpt lat="42.8235190" lon="-8.6115860">
        <ele>129.4</ele>
        <time>2021-05-24T06:14:28Z</time>
      </trkpt>
      <trkpt lat="42.8235140" lon="-8.6115770">
        <ele>129.4</ele>
        <time>2021-05-24T06:14:29Z</time>
      </trkpt>
      <trkpt lat="42.8235210" lon="-8.6115730">
        <ele>129.3</ele>
        <time>2021-05-24T06:14:30Z</time>
      </trkpt>
      <trkpt lat="42.8235340" lon="-8.6115590">
        <ele>129.3</ele>
        <time>2021-05-24T06:14:31Z</time>
      </trkpt>
      <trkpt lat="42.8235480" lon="-8.6115490">
        <ele>129.2</ele>
        <time>2021-05-24T06:14:32Z</time>
      </trkpt>
      <trkpt lat="42.8235580" lon="-8.6115390">
        <ele>129.1</ele>
        <time>2021-05-24T06:14:33Z</time>
      </trkpt>
      <trkpt lat="42.8235730" lon="-8.6115320">
        <ele>129.1</ele>
        <time>2021-05-24T06:14:34Z</time>
      </trkpt>
      <trkpt lat="42.8235880" lon="-8.6115220">
        <ele>129.0</ele>
        <time>2021-05-24T06:14:35Z</time>
      </trkpt>
      <trkpt lat="42.8236050" lon="-8.6115050">
        <ele>128.9</ele>
        <time>2021-05-24T06:14:36Z</time>
      </trkpt>
      <trkpt lat="42.8236150" lon="-8.6115010">
        <ele>128.9</ele>
        <time>2021-05-24T06:14:37Z</time>
      </trkpt>
      <trkpt lat="42.8236250" lon="-8.6114980">
        <ele>128.8</ele>
        <time>2021-05-24T06:14:38Z</time>
      </trkpt>
      <trkpt lat="42.8236360" lon="-8.6114870">
        <ele>128.7</ele>
        <time>2021-05-24T06:14:39Z</time>
      </trkpt>
      <trkpt lat="42.8236450" lon="-8.6114810">
        <ele>128.7</ele>
        <time>2021-05-24T06:14:40Z</time>
      </trkpt>
      <trkpt lat="42.8236500" lon="-8.6114710">
        <ele>128.7</ele>
        <time>2021-05-24T06:14:41Z</time>
      </trkpt>
      <trkpt lat="42.8236700" lon="-8.6114550">
        <ele>128.6</ele>
        <time>2021-05-24T06:14:42Z</time>
      </trkpt>
      <trkpt lat="42.8236770" lon="-8.6114480">
        <ele>128.5</ele>
        <time>2021-05-24T06:14:43Z</time>
      </trkpt>
      <trkpt lat="42.8236830" lon="-8.6114410">
        <ele>128.5</ele>
        <time>2021-05-24T06:14:44Z</time>
      </trkpt>
      <trkpt lat="42.8236940" lon="-8.6114410">
        <ele>128.4</ele>
        <time>2021-05-24T06:14:45Z</time>
      </trkpt>
      <trkpt lat="42.8237080" lon="-8.6114410">
        <ele>128.4</ele>
        <time>2021-05-24T06:14:46Z</time>
      </trkpt>
      <trkpt lat="42.8237180" lon="-8.6114310">
        <ele>128.3</ele>
        <time>2021-05-24T06:14:47Z</time>
      </trkpt>
      <trkpt lat="42.8237330" lon="-8.6114290">
        <ele>128.2</ele>
        <time>2021-05-24T06:14:48Z</time>
      </trkpt>
      <trkpt lat="42.8237460" lon="-8.6114220">
        <ele>128.2</ele>
        <time>2021-05-24T06:14:49Z</time>
      </trkpt>
      <trkpt lat="42.8237570" lon="-8.6114140">
        <ele>128.1</ele>
        <time>2021-05-24T06:14:50Z</time>
      </trkpt>
      <trkpt lat="42.8237740" lon="-8.6114070">
        <ele>128.1</ele>
        <time>2021-05-24T06:14:51Z</time>
      </trkpt>
      <trkpt lat="42.8238010" lon="-8.6113900">
        <ele>127.9</ele>
        <time>2021-05-24T06:14:52Z</time>
      </trkpt>
      <trkpt lat="42.8238100" lon="-8.6113860">
        <ele>127.9</ele>
        <time>2021-05-24T06:14:53Z</time>
      </trkpt>
      <trkpt lat="42.8238220" lon="-8.6113840">
        <ele>127.9</ele>
        <time>2021-05-24T06:14:54Z</time>
      </trkpt>
      <trkpt lat="42.8238400" lon="-8.6113760">
        <ele>127.8</ele>
        <time>2021-05-24T06:14:55Z</time>
      </trkpt>
      <trkpt lat="42.8238560" lon="-8.6113690">
        <ele>127.8</ele>
        <time>2021-05-24T06:14:56Z</time>
      </trkpt>
      <trkpt lat="42.8238720" lon="-8.6113630">
        <ele>127.7</ele>
        <time>2021-05-24T06:14:57Z</time>
      </trkpt>
      <trkpt lat="42.8238860" lon="-8.6113590">
        <ele>127.7</ele>
        <time>2021-05-24T06:14:58Z</time>
      </trkpt>
      <trkpt lat="42.8239020" lon="-8.6113520">
        <ele>127.6</ele>
        <time>2021-05-24T06:14:59Z</time>
      </trkpt>
      <trkpt lat="42.8239120" lon="-8.6113460">
        <ele>127.6</ele>
        <time>2021-05-24T06:15:00Z</time>
      </trkpt>
      <trkpt lat="42.8239230" lon="-8.6113390">
        <ele>127.5</ele>
        <time>2021-05-24T06:15:01Z</time>
      </trkpt>
      <trkpt lat="42.8239300" lon="-8.6113370">
        <ele>127.5</ele>
        <time>2021-05-24T06:15:02Z</time>
      </trkpt>
      <trkpt lat="42.8239360" lon="-8.6113310">
        <ele>127.5</ele>
        <time>2021-05-24T06:15:03Z</time>
      </trkpt>
      <trkpt lat="42.8239500" lon="-8.6113250">
        <ele>127.5</ele>
        <time>2021-05-24T06:15:04Z</time>
      </trkpt>
      <trkpt lat="42.8239630" lon="-8.6113230">
        <ele>127.4</ele>
        <time>2021-05-24T06:15:05Z</time>
      </trkpt>
      <trkpt lat="42.8239760" lon="-8.6113150">
        <ele>127.4</ele>
        <time>2021-05-24T06:15:06Z</time>
      </trkpt>
      <trkpt lat="42.8239920" lon="-8.6113030">
        <ele>127.3</ele>
        <time>2021-05-24T06:15:07Z</time>
      </trkpt>
      <trkpt lat="42.8240010" lon="-8.6112950">
        <ele>127.3</ele>
        <time>2021-05-24T06:15:08Z</time>
      </trkpt>
      <trkpt lat="42.8240080" lon="-8.6112880">
        <ele>127.3</ele>
        <time>2021-05-24T06:15:09Z</time>
      </trkpt>
      <trkpt lat="42.8240200" lon="-8.6112780">
        <ele>127.3</ele>
        <time>2021-05-24T06:15:10Z</time>
      </trkpt>
      <trkpt lat="42.8240330" lon="-8.6112710">
        <ele>127.2</ele>
        <time>2021-05-24T06:15:11Z</time>
      </trkpt>
      <trkpt lat="42.8240380" lon="-8.6112690">
        <ele>127.2</ele>
        <time>2021-05-24T06:15:12Z</time>
      </trkpt>
      <trkpt lat="42.8240500" lon="-8.6112610">
        <ele>127.2</ele>
        <time>2021-05-24T06:15:13Z</time>
      </trkpt>
      <trkpt lat="42.8240720" lon="-8.6112480">
        <ele>127.1</ele>
        <time>2021-05-24T06:15:14Z</time>
      </trkpt>
      <trkpt lat="42.8240800" lon="-8.6112420">
        <ele>127.1</ele>
        <time>2021-05-24T06:15:15Z</time>
      </trkpt>
      <trkpt lat="42.8240880" lon="-8.6112370">
        <ele>127.1</ele>
        <time>2021-05-24T06:15:16Z</time>
      </trkpt>
      <trkpt lat="42.8240980" lon="-8.6112340">
        <ele>127.1</ele>
        <time>2021-05-24T06:15:17Z</time>
      </trkpt>
      <trkpt lat="42.8241090" lon="-8.6112290">
        <ele>127.0</ele>
        <time>2021-05-24T06:15:18Z</time>
      </trkpt>
      <trkpt lat="42.8241170" lon="-8.6112170">
        <ele>127.0</ele>
        <time>2021-05-24T06:15:19Z</time>
      </trkpt>
      <trkpt lat="42.8241240" lon="-8.6112090">
        <ele>127.0</ele>
        <time>2021-05-24T06:15:20Z</time>
      </trkpt>
      <trkpt lat="42.8241280" lon="-8.6112050">
        <ele>127.0</ele>
        <time>2021-05-24T06:15:21Z</time>
      </trkpt>
      <trkpt lat="42.8241420" lon="-8.6111920">
        <ele>126.9</ele>
        <time>2021-05-24T06:15:22Z</time>
      </trkpt>
      <trkpt lat="42.8241590" lon="-8.6111850">
        <ele>126.9</ele>
        <time>2021-05-24T06:15:23Z</time>
      </trkpt>
      <trkpt lat="42.8241650" lon="-8.6111850">
        <ele>126.9</ele>
        <time>2021-05-24T06:15:24Z</time>
      </trkpt>
      <trkpt lat="42.8241750" lon="-8.6111800">
        <ele>126.9</ele>
        <time>2021-05-24T06:15:25Z</time>
      </trkpt>
      <trkpt lat="42.8241830" lon="-8.6111720">
        <ele>126.8</ele>
        <time>2021-05-24T06:15:26Z</time>
      </trkpt>
      <trkpt lat="42.8241890" lon="-8.6111610">
        <ele>126.8</ele>
        <time>2021-05-24T06:15:27Z</time>
      </trkpt>
      <trkpt lat="42.8242020" lon="-8.6111510">
        <ele>126.8</ele>
        <time>2021-05-24T06:15:28Z</time>
      </trkpt>
      <trkpt lat="42.8242130" lon="-8.6111410">
        <ele>126.7</ele>
        <time>2021-05-24T06:15:29Z</time>
      </trkpt>
      <trkpt lat="42.8242290" lon="-8.6111290">
        <ele>126.7</ele>
        <time>2021-05-24T06:15:30Z</time>
      </trkpt>
      <trkpt lat="42.8242480" lon="-8.6111190">
        <ele>126.7</ele>
        <time>2021-05-24T06:15:31Z</time>
      </trkpt>
      <trkpt lat="42.8242590" lon="-8.6111140">
        <ele>126.6</ele>
        <time>2021-05-24T06:15:32Z</time>
      </trkpt>
      <trkpt lat="42.8242700" lon="-8.6111090">
        <ele>126.6</ele>
        <time>2021-05-24T06:15:33Z</time>
      </trkpt>
      <trkpt lat="42.8242790" lon="-8.6111020">
        <ele>126.6</ele>
        <time>2021-05-24T06:15:34Z</time>
      </trkpt>
      <trkpt lat="42.8242860" lon="-8.6111020">
        <ele>126.6</ele>
        <time>2021-05-24T06:15:35Z</time>
      </trkpt>
      <trkpt lat="42.8243010" lon="-8.6110910">
        <ele>126.6</ele>
        <time>2021-05-24T06:15:36Z</time>
      </trkpt>
      <trkpt lat="42.8243190" lon="-8.6110890">
        <ele>126.5</ele>
        <time>2021-05-24T06:15:37Z</time>
      </trkpt>
      <trkpt lat="42.8243300" lon="-8.6110830">
        <ele>126.5</ele>
        <time>2021-05-24T06:15:38Z</time>
      </trkpt>
      <trkpt lat="42.8243390" lon="-8.6110710">
        <ele>126.5</ele>
        <time>2021-05-24T06:15:39Z</time>
      </trkpt>
      <trkpt lat="42.8243540" lon="-8.6110650">
        <ele>126.4</ele>
        <time>2021-05-24T06:15:40Z</time>
      </trkpt>
      <trkpt lat="42.8243600" lon="-8.6110630">
        <ele>126.4</ele>
        <time>2021-05-24T06:15:41Z</time>
      </trkpt>
      <trkpt lat="42.8243660" lon="-8.6110610">
        <ele>126.4</ele>
        <time>2021-05-24T06:15:42Z</time>
      </trkpt>
      <trkpt lat="42.8243860" lon="-8.6110540">
        <ele>126.4</ele>
        <time>2021-05-24T06:15:43Z</time>
      </trkpt>
      <trkpt lat="42.8243980" lon="-8.6110460">
        <ele>126.4</ele>
        <time>2021-05-24T06:15:44Z</time>
      </trkpt>
      <trkpt lat="42.8244130" lon="-8.6110420">
        <ele>126.3</ele>
        <time>2021-05-24T06:15:45Z</time>
      </trkpt>
      <trkpt lat="42.8244330" lon="-8.6110330">
        <ele>126.3</ele>
        <time>2021-05-24T06:15:46Z</time>
      </trkpt>
      <trkpt lat="42.8244420" lon="-8.6110300">
        <ele>126.3</ele>
        <time>2021-05-24T06:15:47Z</time>
      </trkpt>
      <trkpt lat="42.8244510" lon="-8.6110270">
        <ele>126.3</ele>
        <time>2021-05-24T06:15:48Z</time>
      </trkpt>
      <trkpt lat="42.8244640" lon="-8.6110210">
        <ele>126.3</ele>
        <time>2021-05-24T06:15:49Z</time>
      </trkpt>
      <trkpt lat="42.8244790" lon="-8.6110150">
        <ele>126.2</ele>
        <time>2021-05-24T06:15:50Z</time>
      </trkpt>
      <trkpt lat="42.8244990" lon="-8.6110060">
        <ele>126.2</ele>
        <time>2021-05-24T06:15:51Z</time>
      </trkpt>
      <trkpt lat="42.8245090" lon="-8.6110040">
        <ele>126.2</ele>
        <time>2021-05-24T06:15:52Z</time>
      </trkpt>
      <trkpt lat="42.8245180" lon="-8.6110030">
        <ele>126.2</ele>
        <time>2021-05-24T06:15:53Z</time>
      </trkpt>
      <trkpt lat="42.8245380" lon="-8.6109950">
        <ele>126.1</ele>
        <time>2021-05-24T06:15:54Z</time>
      </trkpt>
      <trkpt lat="42.8245460" lon="-8.6109920">
        <ele>126.1</ele>
        <time>2021-05-24T06:15:55Z</time>
      </trkpt>
      <trkpt lat="42.8245550" lon="-8.6109890">
        <ele>126.1</ele>
        <time>2021-05-24T06:15:56Z</time>
      </trkpt>
      <trkpt lat="42.8245740" lon="-8.6109810">
        <ele>126.1</ele>
        <time>2021-05-24T06:15:57Z</time>
      </trkpt>
      <trkpt lat="42.8245840" lon="-8.6109800">
        <ele>126.1</ele>
        <time>2021-05-24T06:15:58Z</time>
      </trkpt>
      <trkpt lat="42.8245940" lon="-8.6109790">
        <ele>126.1</ele>
        <time>2021-05-24T06:15:59Z</time>
      </trkpt>
      <trkpt lat="42.8246100" lon="-8.6109770">
        <ele>126.0</ele>
        <time>2021-05-24T06:16:00Z</time>
      </trkpt>
      <trkpt lat="42.8246230" lon="-8.6109720">
        <ele>126.0</ele>
        <time>2021-05-24T06:16:01Z</time>
      </trkpt>
      <trkpt lat="42.8246340" lon="-8.6109710">
        <ele>126.0</ele>
        <time>2021-05-24T06:16:02Z</time>
      </trkpt>
      <trkpt lat="42.8246510" lon="-8.6109670">
        <ele>126.0</ele>
        <time>2021-05-24T06:16:03Z</time>
      </trkpt>
      <trkpt lat="42.8246610" lon="-8.6109670">
        <ele>126.0</ele>
        <time>2021-05-24T06:16:04Z</time>
      </trkpt>
      <trkpt lat="42.8246690" lon="-8.6109590">
        <ele>126.0</ele>
        <time>2021-05-24T06:16:05Z</time>
      </trkpt>
      <trkpt lat="42.8246800" lon="-8.6109560">
        <ele>126.0</ele>
        <time>2021-05-24T06:16:06Z</time>
      </trkpt>
      <trkpt lat="42.8246930" lon="-8.6109500">
        <ele>125.9</ele>
        <time>2021-05-24T06:16:07Z</time>
      </trkpt>
      <trkpt lat="42.8247020" lon="-8.6109490">
        <ele>125.9</ele>
        <time>2021-05-24T06:16:08Z</time>
      </trkpt>
      <trkpt lat="42.8247150" lon="-8.6109480">
        <ele>125.9</ele>
        <time>2021-05-24T06:16:09Z</time>
      </trkpt>
      <trkpt lat="42.8247310" lon="-8.6109500">
        <ele>125.9</ele>
        <time>2021-05-24T06:16:10Z</time>
      </trkpt>
      <trkpt lat="42.8247430" lon="-8.6109530">
        <ele>125.9</ele>
        <time>2021-05-24T06:16:11Z</time>
      </trkpt>
      <trkpt lat="42.8247590" lon="-8.6109550">
        <ele>125.9</ele>
        <time>2021-05-24T06:16:12Z</time>
      </trkpt>
      <trkpt lat="42.8247710" lon="-8.6109530">
        <ele>125.8</ele>
        <time>2021-05-24T06:16:13Z</time>
      </trkpt>
      <trkpt lat="42.8247780" lon="-8.6109540">
        <ele>125.8</ele>
        <time>2021-05-24T06:16:14Z</time>
      </trkpt>
      <trkpt lat="42.8247910" lon="-8.6109530">
        <ele>125.8</ele>
        <time>2021-05-24T06:16:15Z</time>
      </trkpt>
      <trkpt lat="42.8248010" lon="-8.6109480">
        <ele>125.8</ele>
        <time>2021-05-24T06:16:16Z</time>
      </trkpt>
      <trkpt lat="42.8248200" lon="-8.6109480">
        <ele>125.8</ele>
        <time>2021-05-24T06:16:17Z</time>
      </trkpt>
      <trkpt lat="42.8248330" lon="-8.6109530">
        <ele>125.8</ele>
        <time>2021-05-24T06:16:18Z</time>
      </trkpt>
      <trkpt lat="42.8248430" lon="-8.6109540">
        <ele>125.8</ele>
        <time>2021-05-24T06:16:19Z</time>
      </trkpt>
      <trkpt lat="42.8248520" lon="-8.6109450">
        <ele>125.7</ele>
        <time>2021-05-24T06:16:20Z</time>
      </trkpt>
      <trkpt lat="42.8248630" lon="-8.6109450">
        <ele>125.7</ele>
        <time>2021-05-24T06:16:21Z</time>
      </trkpt>
      <trkpt lat="42.8248760" lon="-8.6109440">
        <ele>125.7</ele>
        <time>2021-05-24T06:16:22Z</time>
      </trkpt>
      <trkpt lat="42.8248910" lon="-8.6109440">
        <ele>125.7</ele>
        <time>2021-05-24T06:16:23Z</time>
      </trkpt>
      <trkpt lat="42.8249030" lon="-8.6109460">
        <ele>125.7</ele>
        <time>2021-05-24T06:16:24Z</time>
      </trkpt>
      <trkpt lat="42.8249120" lon="-8.6109470">
        <ele>125.7</ele>
        <time>2021-05-24T06:16:25Z</time>
      </trkpt>
      <trkpt lat="42.8249170" lon="-8.6109500">
        <ele>125.7</ele>
        <time>2021-05-24T06:16:26Z</time>
      </trkpt>
      <trkpt lat="42.8249260" lon="-8.6109470">
        <ele>125.7</ele>
        <time>2021-05-24T06:16:27Z</time>
      </trkpt>
      <trkpt lat="42.8249330" lon="-8.6109460">
        <ele>125.6</ele>
        <time>2021-05-24T06:16:28Z</time>
      </trkpt>
      <trkpt lat="42.8249480" lon="-8.6109450">
        <ele>125.6</ele>
        <time>2021-05-24T06:16:29Z</time>
      </trkpt>
      <trkpt lat="42.8249560" lon="-8.6109480">
        <ele>125.6</ele>
        <time>2021-05-24T06:16:30Z</time>
      </trkpt>
      <trkpt lat="42.8249760" lon="-8.6109480">
        <ele>125.6</ele>
        <time>2021-05-24T06:16:31Z</time>
      </trkpt>
      <trkpt lat="42.8249920" lon="-8.6109480">
        <ele>125.6</ele>
        <time>2021-05-24T06:16:32Z</time>
      </trkpt>
      <trkpt lat="42.8250020" lon="-8.6109520">
        <ele>125.5</ele>
        <time>2021-05-24T06:16:33Z</time>
      </trkpt>
      <trkpt lat="42.8250130" lon="-8.6109540">
        <ele>125.5</ele>
        <time>2021-05-24T06:16:34Z</time>
      </trkpt>
      <trkpt lat="42.8250230" lon="-8.6109500">
        <ele>125.5</ele>
        <time>2021-05-24T06:16:35Z</time>
      </trkpt>
      <trkpt lat="42.8250420" lon="-8.6109510">
        <ele>125.5</ele>
        <time>2021-05-24T06:16:36Z</time>
      </trkpt>
      <trkpt lat="42.8250590" lon="-8.6109470">
        <ele>125.4</ele>
        <time>2021-05-24T06:16:37Z</time>
      </trkpt>
      <trkpt lat="42.8250760" lon="-8.6109480">
        <ele>125.4</ele>
        <time>2021-05-24T06:16:38Z</time>
      </trkpt>
      <trkpt lat="42.8250860" lon="-8.6109490">
        <ele>125.4</ele>
        <time>2021-05-24T06:16:39Z</time>
      </trkpt>
      <trkpt lat="42.8250970" lon="-8.6109490">
        <ele>125.3</ele>
        <time>2021-05-24T06:16:40Z</time>
      </trkpt>
      <trkpt lat="42.8251080" lon="-8.6109540">
        <ele>125.3</ele>
        <time>2021-05-24T06:16:41Z</time>
      </trkpt>
      <trkpt lat="42.8251210" lon="-8.6109560">
        <ele>125.3</ele>
        <time>2021-05-24T06:16:42Z</time>
      </trkpt>
      <trkpt lat="42.8251300" lon="-8.6109520">
        <ele>125.2</ele>
        <time>2021-05-24T06:16:43Z</time>
      </trkpt>
      <trkpt lat="42.8251470" lon="-8.6109460">
        <ele>125.2</ele>
        <time>2021-05-24T06:16:44Z</time>
      </trkpt>
      <trkpt lat="42.8251620" lon="-8.6109490">
        <ele>125.2</ele>
        <time>2021-05-24T06:16:45Z</time>
      </trkpt>
      <trkpt lat="42.8251750" lon="-8.6109480">
        <ele>125.1</ele>
        <time>2021-05-24T06:16:46Z</time>
      </trkpt>
      <trkpt lat="42.8251910" lon="-8.6109460">
        <ele>125.1</ele>
        <time>2021-05-24T06:16:47Z</time>
      </trkpt>
      <trkpt lat="42.8251990" lon="-8.6109490">
        <ele>125.1</ele>
        <time>2021-05-24T06:16:48Z</time>
      </trkpt>
      <trkpt lat="42.8252110" lon="-8.6109490">
        <ele>125.0</ele>
        <time>2021-05-24T06:16:49Z</time>
      </trkpt>
      <trkpt lat="42.8252250" lon="-8.6109490">
        <ele>125.0</ele>
        <time>2021-05-24T06:16:50Z</time>
      </trkpt>
      <trkpt lat="42.8252450" lon="-8.6109510">
        <ele>124.9</ele>
        <time>2021-05-24T06:16:51Z</time>
      </trkpt>
      <trkpt lat="42.8252530" lon="-8.6109530">
        <ele>124.9</ele>
        <time>2021-05-24T06:16:52Z</time>
      </trkpt>
      <trkpt lat="42.8252620" lon="-8.6109540">
        <ele>124.9</ele>
        <time>2021-05-24T06:16:53Z</time>
      </trkpt>
      <trkpt lat="42.8252830" lon="-8.6109600">
        <ele>124.8</ele>
        <time>2021-05-24T06:16:54Z</time>
      </trkpt>
      <trkpt lat="42.8252920" lon="-8.6109630">
        <ele>124.8</ele>
        <time>2021-05-24T06:16:55Z</time>
      </trkpt>
      <trkpt lat="42.8253020" lon="-8.6109660">
        <ele>124.8</ele>
        <time>2021-05-24T06:16:56Z</time>
      </trkpt>
      <trkpt lat="42.8253240" lon="-8.6109700">
        <ele>124.7</ele>
        <time>2021-05-24T06:16:57Z</time>
      </trkpt>
      <trkpt lat="42.8253320" lon="-8.6109720">
        <ele>124.7</ele>
        <time>2021-05-24T06:16:58Z</time>
      </trkpt>
      <trkpt lat="42.8253410" lon="-8.6109730">
        <ele>124.6</ele>
        <time>2021-05-24T06:16:59Z</time>
      </trkpt>
      <trkpt lat="42.8253520" lon="-8.6109750">
        <ele>124.6</ele>
        <time>2021-05-24T06:17:00Z</time>
      </trkpt>
      <trkpt lat="42.8253590" lon="-8.6109820">
        <ele>124.6</ele>
        <time>2021-05-24T06:17:01Z</time>
      </trkpt>
      <trkpt lat="42.8253690" lon="-8.6109880">
        <ele>124.6</ele>
        <time>2021-05-24T06:17:02Z</time>
      </trkpt>
      <trkpt lat="42.8253760" lon="-8.6109900">
        <ele>124.6</ele>
        <time>2021-05-24T06:17:03Z</time>
      </trkpt>
      <trkpt lat="42.8253890" lon="-8.6109960">
        <ele>124.6</ele>
        <time>2021-05-24T06:17:04Z</time>
      </trkpt>
      <trkpt lat="42.8253970" lon="-8.6110070">
        <ele>124.5</ele>
        <time>2021-05-24T06:17:05Z</time>
      </trkpt>
      <trkpt lat="42.8254030" lon="-8.6110130">
        <ele>124.5</ele>
        <time>2021-05-24T06:17:06Z</time>
      </trkpt>
      <trkpt lat="42.8254160" lon="-8.6110170">
        <ele>124.5</ele>
        <time>2021-05-24T06:17:07Z</time>
      </trkpt>
      <trkpt lat="42.8254280" lon="-8.6110240">
        <ele>124.5</ele>
        <time>2021-05-24T06:17:08Z</time>
      </trkpt>
      <trkpt lat="42.8254470" lon="-8.6110370">
        <ele>124.4</ele>
        <time>2021-05-24T06:17:09Z</time>
      </trkpt>
      <trkpt lat="42.8254600" lon="-8.6110250">
        <ele>124.4</ele>
        <time>2021-05-24T06:17:10Z</time>
      </trkpt>
      <trkpt lat="42.8254830" lon="-8.6110350">
        <ele>124.4</ele>
        <time>2021-05-24T06:17:11Z</time>
      </trkpt>
      <trkpt lat="42.8254910" lon="-8.6110370">
        <ele>124.4</ele>
        <time>2021-05-24T06:17:12Z</time>
      </trkpt>
      <trkpt lat="42.8254990" lon="-8.6110390">
        <ele>124.3</ele>
        <time>2021-05-24T06:17:13Z</time>
      </trkpt>
      <trkpt lat="42.8255050" lon="-8.6110480">
        <ele>124.3</ele>
        <time>2021-05-24T06:17:14Z</time>
      </trkpt>
      <trkpt lat="42.8255220" lon="-8.6110470">
        <ele>124.3</ele>
        <time>2021-05-24T06:17:15Z</time>
      </trkpt>
      <trkpt lat="42.8255330" lon="-8.6110460">
        <ele>124.3</ele>
        <time>2021-05-24T06:17:16Z</time>
      </trkpt>
      <trkpt lat="42.8255550" lon="-8.6110450">
        <ele>124.2</ele>
        <time>2021-05-24T06:17:17Z</time>
      </trkpt>
      <trkpt lat="42.8255650" lon="-8.6110440">
        <ele>124.2</ele>
        <time>2021-05-24T06:17:18Z</time>
      </trkpt>
      <trkpt lat="42.8255740" lon="-8.6110420">
        <ele>124.2</ele>
        <time>2021-05-24T06:17:19Z</time>
      </trkpt>
      <trkpt lat="42.8255970" lon="-8.6110480">
        <ele>124.2</ele>
        <time>2021-05-24T06:17:20Z</time>
      </trkpt>
      <trkpt lat="42.8256050" lon="-8.6110500">
        <ele>124.2</ele>
        <time>2021-05-24T06:17:21Z</time>
      </trkpt>
      <trkpt lat="42.8256120" lon="-8.6110530">
        <ele>124.1</ele>
        <time>2021-05-24T06:17:22Z</time>
      </trkpt>
      <trkpt lat="42.8256280" lon="-8.6110560">
        <ele>124.1</ele>
        <time>2021-05-24T06:17:23Z</time>
      </trkpt>
      <trkpt lat="42.8256380" lon="-8.6110600">
        <ele>124.1</ele>
        <time>2021-05-24T06:17:24Z</time>
      </trkpt>
      <trkpt lat="42.8256480" lon="-8.6110640">
        <ele>124.1</ele>
        <time>2021-05-24T06:17:25Z</time>
      </trkpt>
      <trkpt lat="42.8256640" lon="-8.6110700">
        <ele>124.0</ele>
        <time>2021-05-24T06:17:26Z</time>
      </trkpt>
      <trkpt lat="42.8256790" lon="-8.6110740">
        <ele>124.0</ele>
        <time>2021-05-24T06:17:27Z</time>
      </trkpt>
      <trkpt lat="42.8256890" lon="-8.6110780">
        <ele>124.0</ele>
        <time>2021-05-24T06:17:28Z</time>
      </trkpt>
      <trkpt lat="42.8257080" lon="-8.6110810">
        <ele>124.0</ele>
        <time>2021-05-24T06:17:29Z</time>
      </trkpt>
      <trkpt lat="42.8257270" lon="-8.6110890">
        <ele>123.9</ele>
        <time>2021-05-24T06:17:30Z</time>
      </trkpt>
      <trkpt lat="42.8257370" lon="-8.6110940">
        <ele>123.9</ele>
        <time>2021-05-24T06:17:31Z</time>
      </trkpt>
      <trkpt lat="42.8257470" lon="-8.6110990">
        <ele>123.9</ele>
        <time>2021-05-24T06:17:32Z</time>
      </trkpt>
      <trkpt lat="42.8257710" lon="-8.6111050">
        <ele>123.9</ele>
        <time>2021-05-24T06:17:33Z</time>
      </trkpt>
      <trkpt lat="42.8257780" lon="-8.6111070">
        <ele>123.9</ele>
        <time>2021-05-24T06:17:34Z</time>
      </trkpt>
      <trkpt lat="42.8257850" lon="-8.6111080">
        <ele>123.9</ele>
        <time>2021-05-24T06:17:35Z</time>
      </trkpt>
      <trkpt lat="42.8257990" lon="-8.6111120">
        <ele>123.8</ele>
        <time>2021-05-24T06:17:36Z</time>
      </trkpt>
      <trkpt lat="42.8258130" lon="-8.6111180">
        <ele>123.8</ele>
        <time>2021-05-24T06:17:37Z</time>
      </trkpt>
      <trkpt lat="42.8258240" lon="-8.6111210">
        <ele>123.8</ele>
        <time>2021-05-24T06:17:38Z</time>
      </trkpt>
      <trkpt lat="42.8258290" lon="-8.6111250">
        <ele>123.8</ele>
        <time>2021-05-24T06:17:39Z</time>
      </trkpt>
      <trkpt lat="42.8258430" lon="-8.6111290">
        <ele>123.8</ele>
        <time>2021-05-24T06:17:40Z</time>
      </trkpt>
      <trkpt lat="42.8258610" lon="-8.6111350">
        <ele>123.8</ele>
        <time>2021-05-24T06:17:41Z</time>
      </trkpt>
      <trkpt lat="42.8258740" lon="-8.6111470">
        <ele>123.8</ele>
        <time>2021-05-24T06:17:42Z</time>
      </trkpt>
      <trkpt lat="42.8258950" lon="-8.6111570">
        <ele>123.7</ele>
        <time>2021-05-24T06:17:43Z</time>
      </trkpt>
      <trkpt lat="42.8259040" lon="-8.6111600">
        <ele>123.7</ele>
        <time>2021-05-24T06:17:44Z</time>
      </trkpt>
      <trkpt lat="42.8259140" lon="-8.6111620">
        <ele>123.7</ele>
        <time>2021-05-24T06:17:45Z</time>
      </trkpt>
      <trkpt lat="42.8259260" lon="-8.6111650">
        <ele>123.7</ele>
        <time>2021-05-24T06:17:46Z</time>
      </trkpt>
      <trkpt lat="42.8259420" lon="-8.6111690">
        <ele>123.7</ele>
        <time>2021-05-24T06:17:47Z</time>
      </trkpt>
      <trkpt lat="42.8259540" lon="-8.6111720">
        <ele>123.7</ele>
        <time>2021-05-24T06:17:48Z</time>
      </trkpt>
      <trkpt lat="42.8259740" lon="-8.6111700">
        <ele>123.7</ele>
        <time>2021-05-24T06:17:49Z</time>
      </trkpt>
      <trkpt lat="42.8259820" lon="-8.6111670">
        <ele>123.7</ele>
        <time>2021-05-24T06:17:50Z</time>
      </trkpt>
      <trkpt lat="42.8259860" lon="-8.6111670">
        <ele>123.7</ele>
        <time>2021-05-24T06:17:51Z</time>
      </trkpt>
      <trkpt lat="42.8259820" lon="-8.6111660">
        <ele>123.7</ele>
        <time>2021-05-24T06:17:52Z</time>
      </trkpt>
      <trkpt lat="42.8259930" lon="-8.6111750">
        <ele>123.7</ele>
        <time>2021-05-24T06:17:53Z</time>
      </trkpt>
      <trkpt lat="42.8260070" lon="-8.6111760">
        <ele>123.7</ele>
        <time>2021-05-24T06:17:54Z</time>
      </trkpt>
      <trkpt lat="42.8260210" lon="-8.6111760">
        <ele>123.8</ele>
        <time>2021-05-24T06:17:55Z</time>
      </trkpt>
      <trkpt lat="42.8260310" lon="-8.6111750">
        <ele>123.8</ele>
        <time>2021-05-24T06:17:56Z</time>
      </trkpt>
      <trkpt lat="42.8260360" lon="-8.6111730">
        <ele>123.8</ele>
        <time>2021-05-24T06:17:57Z</time>
      </trkpt>
      <trkpt lat="42.8260400" lon="-8.6111760">
        <ele>123.8</ele>
        <time>2021-05-24T06:17:58Z</time>
      </trkpt>
      <trkpt lat="42.8260390" lon="-8.6111760">
        <ele>123.8</ele>
        <time>2021-05-24T06:17:59Z</time>
      </trkpt>
      <trkpt lat="42.8260390" lon="-8.6111730">
        <ele>123.8</ele>
        <time>2021-05-24T06:18:00Z</time>
      </trkpt>
      <trkpt lat="42.8260430" lon="-8.6111700">
        <ele>123.8</ele>
        <time>2021-05-24T06:18:01Z</time>
      </trkpt>
      <trkpt lat="42.8260430" lon="-8.6111700">
        <ele>123.8</ele>
        <time>2021-05-24T06:18:02Z</time>
      </trkpt>
      <trkpt lat="42.8260430" lon="-8.6111720">
        <ele>123.8</ele>
        <time>2021-05-24T06:18:03Z</time>
      </trkpt>
      <trkpt lat="42.8260430" lon="-8.6111700">
        <ele>123.8</ele>
        <time>2021-05-24T06:18:04Z</time>
      </trkpt>
      <trkpt lat="42.8260430" lon="-8.6111720">
        <ele>123.8</ele>
        <time>2021-05-24T06:18:05Z</time>
      </trkpt>
      <trkpt lat="42.8260470" lon="-8.6111720">
        <ele>123.8</ele>
        <time>2021-05-24T06:18:06Z</time>
      </trkpt>
      <trkpt lat="42.8260570" lon="-8.6111740">
        <ele>123.8</ele>
        <time>2021-05-24T06:18:07Z</time>
      </trkpt>
      <trkpt lat="42.8260720" lon="-8.6111770">
        <ele>123.8</ele>
        <time>2021-05-24T06:18:08Z</time>
      </trkpt>
      <trkpt lat="42.8260950" lon="-8.6111850">
        <ele>123.8</ele>
        <time>2021-05-24T06:18:09Z</time>
      </trkpt>
      <trkpt lat="42.8261050" lon="-8.6111840">
        <ele>123.8</ele>
        <time>2021-05-24T06:18:10Z</time>
      </trkpt>
      <trkpt lat="42.8261160" lon="-8.6111830">
        <ele>123.8</ele>
        <time>2021-05-24T06:18:11Z</time>
      </trkpt>
      <trkpt lat="42.8261280" lon="-8.6111710">
        <ele>123.8</ele>
        <time>2021-05-24T06:18:12Z</time>
      </trkpt>
      <trkpt lat="42.8261420" lon="-8.6111560">
        <ele>123.8</ele>
        <time>2021-05-24T06:18:13Z</time>
      </trkpt>
      <trkpt lat="42.8261490" lon="-8.6111360">
        <ele>123.8</ele>
        <time>2021-05-24T06:18:14Z</time>
      </trkpt>
      <trkpt lat="42.8261600" lon="-8.6111150">
        <ele>123.8</ele>
        <time>2021-05-24T06:18:15Z</time>
      </trkpt>
      <trkpt lat="42.8261690" lon="-8.6110900">
        <ele>123.8</ele>
        <time>2021-05-24T06:18:16Z</time>
      </trkpt>
      <trkpt lat="42.8261760" lon="-8.6110820">
        <ele>123.8</ele>
        <time>2021-05-24T06:18:17Z</time>
      </trkpt>
      <trkpt lat="42.8261820" lon="-8.6110750">
        <ele>123.8</ele>
        <time>2021-05-24T06:18:18Z</time>
      </trkpt>
      <trkpt lat="42.8261950" lon="-8.6110640">
        <ele>123.8</ele>
        <time>2021-05-24T06:18:19Z</time>
      </trkpt>
      <trkpt lat="42.8262080" lon="-8.6110490">
        <ele>123.8</ele>
        <time>2021-05-24T06:18:20Z</time>
      </trkpt>
      <trkpt lat="42.8262200" lon="-8.6110310">
        <ele>123.7</ele>
        <time>2021-05-24T06:18:21Z</time>
      </trkpt>
      <trkpt lat="42.8262320" lon="-8.6110260">
        <ele>123.7</ele>
        <time>2021-05-24T06:18:22Z</time>
      </trkpt>
      <trkpt lat="42.8262400" lon="-8.6110110">
        <ele>123.7</ele>
        <time>2021-05-24T06:18:23Z</time>
      </trkpt>
      <trkpt lat="42.8262520" lon="-8.6110000">
        <ele>123.7</ele>
        <time>2021-05-24T06:18:24Z</time>
      </trkpt>
      <trkpt lat="42.8262640" lon="-8.6109850">
        <ele>123.7</ele>
        <time>2021-05-24T06:18:25Z</time>
      </trkpt>
      <trkpt lat="42.8262770" lon="-8.6109750">
        <ele>123.7</ele>
        <time>2021-05-24T06:18:26Z</time>
      </trkpt>
      <trkpt lat="42.8262890" lon="-8.6109640">
        <ele>123.7</ele>
        <time>2021-05-24T06:18:27Z</time>
      </trkpt>
      <trkpt lat="42.8263060" lon="-8.6109600">
        <ele>123.7</ele>
        <time>2021-05-24T06:18:28Z</time>
      </trkpt>
      <trkpt lat="42.8263200" lon="-8.6109550">
        <ele>123.7</ele>
        <time>2021-05-24T06:18:29Z</time>
      </trkpt>
      <trkpt lat="42.8263340" lon="-8.6109510">
        <ele>123.7</ele>
        <time>2021-05-24T06:18:30Z</time>
      </trkpt>
      <trkpt lat="42.8263480" lon="-8.6109420">
        <ele>123.7</ele>
        <time>2021-05-24T06:18:31Z</time>
      </trkpt>
      <trkpt lat="42.8263640" lon="-8.6109400">
        <ele>123.7</ele>
        <time>2021-05-24T06:18:32Z</time>
      </trkpt>
      <trkpt lat="42.8263760" lon="-8.6109270">
        <ele>123.7</ele>
        <time>2021-05-24T06:18:33Z</time>
      </trkpt>
      <trkpt lat="42.8263910" lon="-8.6109230">
        <ele>123.7</ele>
        <time>2021-05-24T06:18:34Z</time>
      </trkpt>
      <trkpt lat="42.8264070" lon="-8.6109240">
        <ele>123.7</ele>
        <time>2021-05-24T06:18:35Z</time>
      </trkpt>
      <trkpt lat="42.8264220" lon="-8.6109240">
        <ele>123.8</ele>
        <time>2021-05-24T06:18:36Z</time>
      </trkpt>
      <trkpt lat="42.8264370" lon="-8.6109240">
        <ele>123.8</ele>
        <time>2021-05-24T06:18:37Z</time>
      </trkpt>
      <trkpt lat="42.8264520" lon="-8.6109200">
        <ele>123.8</ele>
        <time>2021-05-24T06:18:38Z</time>
      </trkpt>
      <trkpt lat="42.8264650" lon="-8.6109190">
        <ele>123.8</ele>
        <time>2021-05-24T06:18:39Z</time>
      </trkpt>
      <trkpt lat="42.8264790" lon="-8.6109160">
        <ele>123.8</ele>
        <time>2021-05-24T06:18:40Z</time>
      </trkpt>
      <trkpt lat="42.8264930" lon="-8.6109130">
        <ele>123.9</ele>
        <time>2021-05-24T06:18:41Z</time>
      </trkpt>
      <trkpt lat="42.8265070" lon="-8.6109100">
        <ele>123.9</ele>
        <time>2021-05-24T06:18:42Z</time>
      </trkpt>
      <trkpt lat="42.8265280" lon="-8.6109080">
        <ele>124.0</ele>
        <time>2021-05-24T06:18:43Z</time>
      </trkpt>
      <trkpt lat="42.8265380" lon="-8.6109060">
        <ele>124.0</ele>
        <time>2021-05-24T06:18:44Z</time>
      </trkpt>
      <trkpt lat="42.8265470" lon="-8.6109040">
        <ele>124.0</ele>
        <time>2021-05-24T06:18:45Z</time>
      </trkpt>
      <trkpt lat="42.8265550" lon="-8.6109160">
        <ele>124.0</ele>
        <time>2021-05-24T06:18:46Z</time>
      </trkpt>
      <trkpt lat="42.8265680" lon="-8.6109180">
        <ele>124.1</ele>
        <time>2021-05-24T06:18:47Z</time>
      </trkpt>
      <trkpt lat="42.8265790" lon="-8.6109180">
        <ele>124.1</ele>
        <time>2021-05-24T06:18:48Z</time>
      </trkpt>
      <trkpt lat="42.8265950" lon="-8.6109200">
        <ele>124.2</ele>
        <time>2021-05-24T06:18:49Z</time>
      </trkpt>
      <trkpt lat="42.8266070" lon="-8.6109220">
        <ele>124.2</ele>
        <time>2021-05-24T06:18:50Z</time>
      </trkpt>
      <trkpt lat="42.8266220" lon="-8.6109180">
        <ele>124.3</ele>
        <time>2021-05-24T06:18:51Z</time>
      </trkpt>
      <trkpt lat="42.8266350" lon="-8.6109190">
        <ele>124.4</ele>
        <time>2021-05-24T06:18:52Z</time>
      </trkpt>
      <trkpt lat="42.8266570" lon="-8.6109230">
        <ele>124.5</ele>
        <time>2021-05-24T06:18:53Z</time>
      </trkpt>
      <trkpt lat="42.8266650" lon="-8.6109260">
        <ele>124.5</ele>
        <time>2021-05-24T06:18:54Z</time>
      </trkpt>
      <trkpt lat="42.8266740" lon="-8.6109280">
        <ele>124.5</ele>
        <time>2021-05-24T06:18:55Z</time>
      </trkpt>
      <trkpt lat="42.8266830" lon="-8.6109280">
        <ele>124.6</ele>
        <time>2021-05-24T06:18:56Z</time>
      </trkpt>
      <trkpt lat="42.8266970" lon="-8.6109350">
        <ele>124.7</ele>
        <time>2021-05-24T06:18:57Z</time>
      </trkpt>
      <trkpt lat="42.8267080" lon="-8.6109380">
        <ele>124.7</ele>
        <time>2021-05-24T06:18:58Z</time>
      </trkpt>
      <trkpt lat="42.8267180" lon="-8.6109390">
        <ele>124.8</ele>
        <time>2021-05-24T06:18:59Z</time>
      </trkpt>
      <trkpt lat="42.8267270" lon="-8.6109340">
        <ele>124.9</ele>
        <time>2021-05-24T06:19:00Z</time>
      </trkpt>
      <trkpt lat="42.8267400" lon="-8.6109320">
        <ele>124.9</ele>
        <time>2021-05-24T06:19:01Z</time>
      </trkpt>
      <trkpt lat="42.8267610" lon="-8.6109340">
        <ele>125.1</ele>
        <time>2021-05-24T06:19:02Z</time>
      </trkpt>
      <trkpt lat="42.8267690" lon="-8.6109360">
        <ele>125.1</ele>
        <time>2021-05-24T06:19:03Z</time>
      </trkpt>
      <trkpt lat="42.8267770" lon="-8.6109370">
        <ele>125.2</ele>
        <time>2021-05-24T06:19:04Z</time>
      </trkpt>
      <trkpt lat="42.8267920" lon="-8.6109310">
        <ele>125.3</ele>
        <time>2021-05-24T06:19:05Z</time>
      </trkpt>
      <trkpt lat="42.8268030" lon="-8.6109220">
        <ele>125.4</ele>
        <time>2021-05-24T06:19:06Z</time>
      </trkpt>
      <trkpt lat="42.8268130" lon="-8.6109110">
        <ele>125.5</ele>
        <time>2021-05-24T06:19:07Z</time>
      </trkpt>
      <trkpt lat="42.8268260" lon="-8.6108990">
        <ele>125.6</ele>
        <time>2021-05-24T06:19:08Z</time>
      </trkpt>
      <trkpt lat="42.8268420" lon="-8.6108810">
        <ele>125.7</ele>
        <time>2021-05-24T06:19:09Z</time>
      </trkpt>
      <trkpt lat="42.8268500" lon="-8.6108760">
        <ele>125.8</ele>
        <time>2021-05-24T06:19:10Z</time>
      </trkpt>
      <trkpt lat="42.8268570" lon="-8.6108710">
        <ele>125.9</ele>
        <time>2021-05-24T06:19:11Z</time>
      </trkpt>
      <trkpt lat="42.8268690" lon="-8.6108640">
        <ele>126.0</ele>
        <time>2021-05-24T06:19:12Z</time>
      </trkpt>
      <trkpt lat="42.8268850" lon="-8.6108590">
        <ele>126.1</ele>
        <time>2021-05-24T06:19:13Z</time>
      </trkpt>
      <trkpt lat="42.8268980" lon="-8.6108520">
        <ele>126.3</ele>
        <time>2021-05-24T06:19:14Z</time>
      </trkpt>
      <trkpt lat="42.8269130" lon="-8.6108430">
        <ele>126.4</ele>
        <time>2021-05-24T06:19:15Z</time>
      </trkpt>
      <trkpt lat="42.8269260" lon="-8.6108320">
        <ele>126.5</ele>
        <time>2021-05-24T06:19:16Z</time>
      </trkpt>
      <trkpt lat="42.8269340" lon="-8.6108240">
        <ele>126.6</ele>
        <time>2021-05-24T06:19:17Z</time>
      </trkpt>
      <trkpt lat="42.8269400" lon="-8.6108240">
        <ele>126.7</ele>
        <time>2021-05-24T06:19:18Z</time>
      </trkpt>
      <trkpt lat="42.8269470" lon="-8.6108200">
        <ele>126.7</ele>
        <time>2021-05-24T06:19:19Z</time>
      </trkpt>
      <trkpt lat="42.8269620" lon="-8.6108150">
        <ele>126.9</ele>
        <time>2021-05-24T06:19:20Z</time>
      </trkpt>
      <trkpt lat="42.8269700" lon="-8.6108110">
        <ele>126.9</ele>
        <time>2021-05-24T06:19:21Z</time>
      </trkpt>
      <trkpt lat="42.8269860" lon="-8.6108090">
        <ele>127.1</ele>
        <time>2021-05-24T06:19:22Z</time>
      </trkpt>
      <trkpt lat="42.8269950" lon="-8.6108060">
        <ele>127.2</ele>
        <time>2021-05-24T06:19:23Z</time>
      </trkpt>
      <trkpt lat="42.8270040" lon="-8.6108000">
        <ele>127.2</ele>
        <time>2021-05-24T06:19:24Z</time>
      </trkpt>
      <trkpt lat="42.8270180" lon="-8.6107970">
        <ele>127.4</ele>
        <time>2021-05-24T06:19:25Z</time>
      </trkpt>
      <trkpt lat="42.8270320" lon="-8.6107900">
        <ele>127.5</ele>
        <time>2021-05-24T06:19:26Z</time>
      </trkpt>
      <trkpt lat="42.8270490" lon="-8.6107900">
        <ele>127.6</ele>
        <time>2021-05-24T06:19:27Z</time>
      </trkpt>
      <trkpt lat="42.8270600" lon="-8.6107900">
        <ele>127.7</ele>
        <time>2021-05-24T06:19:28Z</time>
      </trkpt>
      <trkpt lat="42.8270800" lon="-8.6107920">
        <ele>127.9</ele>
        <time>2021-05-24T06:19:29Z</time>
      </trkpt>
      <trkpt lat="42.8270910" lon="-8.6107910">
        <ele>128.0</ele>
        <time>2021-05-24T06:19:30Z</time>
      </trkpt>
      <trkpt lat="42.8271010" lon="-8.6107900">
        <ele>128.1</ele>
        <time>2021-05-24T06:19:31Z</time>
      </trkpt>
      <trkpt lat="42.8271100" lon="-8.6107840">
        <ele>128.2</ele>
        <time>2021-05-24T06:19:32Z</time>
      </trkpt>
      <trkpt lat="42.8271190" lon="-8.6107810">
        <ele>128.2</ele>
        <time>2021-05-24T06:19:33Z</time>
      </trkpt>
      <trkpt lat="42.8271350" lon="-8.6107740">
        <ele>128.3</ele>
        <time>2021-05-24T06:19:34Z</time>
      </trkpt>
      <trkpt lat="42.8271480" lon="-8.6107670">
        <ele>128.3</ele>
        <time>2021-05-24T06:19:35Z</time>
      </trkpt>
      <trkpt lat="42.8271730" lon="-8.6107460">
        <ele>128.5</ele>
        <time>2021-05-24T06:19:36Z</time>
      </trkpt>
      <trkpt lat="42.8271880" lon="-8.6107330">
        <ele>128.6</ele>
        <time>2021-05-24T06:19:37Z</time>
      </trkpt>
      <trkpt lat="42.8271950" lon="-8.6107270">
        <ele>128.6</ele>
        <time>2021-05-24T06:19:38Z</time>
      </trkpt>
      <trkpt lat="42.8272100" lon="-8.6107180">
        <ele>128.7</ele>
        <time>2021-05-24T06:19:39Z</time>
      </trkpt>
      <trkpt lat="42.8272160" lon="-8.6107110">
        <ele>128.7</ele>
        <time>2021-05-24T06:19:40Z</time>
      </trkpt>
      <trkpt lat="42.8272220" lon="-8.6106990">
        <ele>128.8</ele>
        <time>2021-05-24T06:19:41Z</time>
      </trkpt>
      <trkpt lat="42.8272320" lon="-8.6106930">
        <ele>128.8</ele>
        <time>2021-05-24T06:19:42Z</time>
      </trkpt>
      <trkpt lat="42.8272460" lon="-8.6106810">
        <ele>128.9</ele>
        <time>2021-05-24T06:19:43Z</time>
      </trkpt>
      <trkpt lat="42.8272610" lon="-8.6106620">
        <ele>129.0</ele>
        <time>2021-05-24T06:19:44Z</time>
      </trkpt>
      <trkpt lat="42.8272660" lon="-8.6106530">
        <ele>129.0</ele>
        <time>2021-05-24T06:19:45Z</time>
      </trkpt>
      <trkpt lat="42.8272710" lon="-8.6106440">
        <ele>129.0</ele>
        <time>2021-05-24T06:19:46Z</time>
      </trkpt>
      <trkpt lat="42.8272880" lon="-8.6106180">
        <ele>129.1</ele>
        <time>2021-05-24T06:19:47Z</time>
      </trkpt>
      <trkpt lat="42.8272960" lon="-8.6106060">
        <ele>129.1</ele>
        <time>2021-05-24T06:19:49Z</time>
      </trkpt>
      <trkpt lat="42.8273040" lon="-8.6105930">
        <ele>129.1</ele>
        <time>2021-05-24T06:19:50Z</time>
      </trkpt>
      <trkpt lat="42.8273110" lon="-8.6105810">
        <ele>129.2</ele>
        <time>2021-05-24T06:19:52Z</time>
      </trkpt>
      <trkpt lat="42.8273190" lon="-8.6105680">
        <ele>129.2</ele>
        <time>2021-05-24T06:19:53Z</time>
      </trkpt>
      <trkpt lat="42.8273270" lon="-8.6105560">
        <ele>129.2</ele>
        <time>2021-05-24T06:19:54Z</time>
      </trkpt>
      <trkpt lat="42.8273350" lon="-8.6105430">
        <ele>129.2</ele>
        <time>2021-05-24T06:19:55Z</time>
      </trkpt>
      <trkpt lat="42.8273420" lon="-8.6105300">
        <ele>129.2</ele>
        <time>2021-05-24T06:19:56Z</time>
      </trkpt>
      <trkpt lat="42.8273470" lon="-8.6105100">
        <ele>129.3</ele>
        <time>2021-05-24T06:19:57Z</time>
      </trkpt>
      <trkpt lat="42.8273600" lon="-8.6104900">
        <ele>129.3</ele>
        <time>2021-05-24T06:19:58Z</time>
      </trkpt>
      <trkpt lat="42.8273680" lon="-8.6104820">
        <ele>129.3</ele>
        <time>2021-05-24T06:19:59Z</time>
      </trkpt>
      <trkpt lat="42.8273760" lon="-8.6104750">
        <ele>129.3</ele>
        <time>2021-05-24T06:20:00Z</time>
      </trkpt>
      <trkpt lat="42.8273890" lon="-8.6104770">
        <ele>129.3</ele>
        <time>2021-05-24T06:20:01Z</time>
      </trkpt>
      <trkpt lat="42.8273940" lon="-8.6104750">
        <ele>129.3</ele>
        <time>2021-05-24T06:20:02Z</time>
      </trkpt>
      <trkpt lat="42.8274070" lon="-8.6104730">
        <ele>129.3</ele>
        <time>2021-05-24T06:20:03Z</time>
      </trkpt>
      <trkpt lat="42.8274200" lon="-8.6104710">
        <ele>129.3</ele>
        <time>2021-05-24T06:20:04Z</time>
      </trkpt>
      <trkpt lat="42.8274340" lon="-8.6104730">
        <ele>129.3</ele>
        <time>2021-05-24T06:20:05Z</time>
      </trkpt>
      <trkpt lat="42.8274380" lon="-8.6104760">
        <ele>129.3</ele>
        <time>2021-05-24T06:20:06Z</time>
      </trkpt>
      <trkpt lat="42.8274510" lon="-8.6104690">
        <ele>129.3</ele>
        <time>2021-05-24T06:20:07Z</time>
      </trkpt>
      <trkpt lat="42.8274600" lon="-8.6104580">
        <ele>129.3</ele>
        <time>2021-05-24T06:20:08Z</time>
      </trkpt>
      <trkpt lat="42.8274680" lon="-8.6104540">
        <ele>129.3</ele>
        <time>2021-05-24T06:20:09Z</time>
      </trkpt>
      <trkpt lat="42.8274750" lon="-8.6104510">
        <ele>129.3</ele>
        <time>2021-05-24T06:20:10Z</time>
      </trkpt>
      <trkpt lat="42.8274890" lon="-8.6104450">
        <ele>129.3</ele>
        <time>2021-05-24T06:20:11Z</time>
      </trkpt>
      <trkpt lat="42.8275050" lon="-8.6104390">
        <ele>129.3</ele>
        <time>2021-05-24T06:20:12Z</time>
      </trkpt>
      <trkpt lat="42.8275200" lon="-8.6104300">
        <ele>129.2</ele>
        <time>2021-05-24T06:20:13Z</time>
      </trkpt>
      <trkpt lat="42.8275410" lon="-8.6104240">
        <ele>129.2</ele>
        <time>2021-05-24T06:20:14Z</time>
      </trkpt>
      <trkpt lat="42.8275490" lon="-8.6104210">
        <ele>129.2</ele>
        <time>2021-05-24T06:20:15Z</time>
      </trkpt>
      <trkpt lat="42.8275570" lon="-8.6104170">
        <ele>129.2</ele>
        <time>2021-05-24T06:20:16Z</time>
      </trkpt>
      <trkpt lat="42.8275660" lon="-8.6104070">
        <ele>129.2</ele>
        <time>2021-05-24T06:20:17Z</time>
      </trkpt>
      <trkpt lat="42.8275750" lon="-8.6103990">
        <ele>129.2</ele>
        <time>2021-05-24T06:20:18Z</time>
      </trkpt>
      <trkpt lat="42.8275870" lon="-8.6103940">
        <ele>129.2</ele>
        <time>2021-05-24T06:20:19Z</time>
      </trkpt>
      <trkpt lat="42.8276060" lon="-8.6103960">
        <ele>129.2</ele>
        <time>2021-05-24T06:20:20Z</time>
      </trkpt>
      <trkpt lat="42.8276150" lon="-8.6103960">
        <ele>129.1</ele>
        <time>2021-05-24T06:20:21Z</time>
      </trkpt>
      <trkpt lat="42.8276240" lon="-8.6103960">
        <ele>129.1</ele>
        <time>2021-05-24T06:20:22Z</time>
      </trkpt>
      <trkpt lat="42.8276440" lon="-8.6103880">
        <ele>129.1</ele>
        <time>2021-05-24T06:20:23Z</time>
      </trkpt>
      <trkpt lat="42.8276530" lon="-8.6103870">
        <ele>129.1</ele>
        <time>2021-05-24T06:20:24Z</time>
      </trkpt>
      <trkpt lat="42.8276620" lon="-8.6103850">
        <ele>129.1</ele>
        <time>2021-05-24T06:20:25Z</time>
      </trkpt>
      <trkpt lat="42.8276750" lon="-8.6103780">
        <ele>129.1</ele>
        <time>2021-05-24T06:20:26Z</time>
      </trkpt>
      <trkpt lat="42.8276790" lon="-8.6103780">
        <ele>129.1</ele>
        <time>2021-05-24T06:20:27Z</time>
      </trkpt>
      <trkpt lat="42.8276920" lon="-8.6103700">
        <ele>129.1</ele>
        <time>2021-05-24T06:20:28Z</time>
      </trkpt>
      <trkpt lat="42.8277180" lon="-8.6103680">
        <ele>129.1</ele>
        <time>2021-05-24T06:20:29Z</time>
      </trkpt>
      <trkpt lat="42.8277260" lon="-8.6103640">
        <ele>129.0</ele>
        <time>2021-05-24T06:20:30Z</time>
      </trkpt>
      <trkpt lat="42.8277350" lon="-8.6103600">
        <ele>129.0</ele>
        <time>2021-05-24T06:20:31Z</time>
      </trkpt>
      <trkpt lat="42.8277490" lon="-8.6103600">
        <ele>129.0</ele>
        <time>2021-05-24T06:20:32Z</time>
      </trkpt>
      <trkpt lat="42.8277690" lon="-8.6103560">
        <ele>129.0</ele>
        <time>2021-05-24T06:20:33Z</time>
      </trkpt>
      <trkpt lat="42.8277750" lon="-8.6103480">
        <ele>129.0</ele>
        <time>2021-05-24T06:20:34Z</time>
      </trkpt>
      <trkpt lat="42.8277870" lon="-8.6103460">
        <ele>129.0</ele>
        <time>2021-05-24T06:20:35Z</time>
      </trkpt>
      <trkpt lat="42.8278010" lon="-8.6103460">
        <ele>129.0</ele>
        <time>2021-05-24T06:20:36Z</time>
      </trkpt>
      <trkpt lat="42.8278130" lon="-8.6103480">
        <ele>129.0</ele>
        <time>2021-05-24T06:20:37Z</time>
      </trkpt>
      <trkpt lat="42.8278290" lon="-8.6103500">
        <ele>128.9</ele>
        <time>2021-05-24T06:20:38Z</time>
      </trkpt>
      <trkpt lat="42.8278400" lon="-8.6103470">
        <ele>128.9</ele>
        <time>2021-05-24T06:20:39Z</time>
      </trkpt>
      <trkpt lat="42.8278520" lon="-8.6103510">
        <ele>128.9</ele>
        <time>2021-05-24T06:20:40Z</time>
      </trkpt>
      <trkpt lat="42.8278640" lon="-8.6103500">
        <ele>128.9</ele>
        <time>2021-05-24T06:20:41Z</time>
      </trkpt>
      <trkpt lat="42.8278750" lon="-8.6103430">
        <ele>128.9</ele>
        <time>2021-05-24T06:20:42Z</time>
      </trkpt>
      <trkpt lat="42.8278920" lon="-8.6103360">
        <ele>128.9</ele>
        <time>2021-05-24T06:20:43Z</time>
      </trkpt>
      <trkpt lat="42.8279040" lon="-8.6103290">
        <ele>128.9</ele>
        <time>2021-05-24T06:20:44Z</time>
      </trkpt>
      <trkpt lat="42.8279120" lon="-8.6103230">
        <ele>128.9</ele>
        <time>2021-05-24T06:20:45Z</time>
      </trkpt>
      <trkpt lat="42.8279240" lon="-8.6103130">
        <ele>128.9</ele>
        <time>2021-05-24T06:20:46Z</time>
      </trkpt>
      <trkpt lat="42.8279430" lon="-8.6103040">
        <ele>128.9</ele>
        <time>2021-05-24T06:20:47Z</time>
      </trkpt>
      <trkpt lat="42.8279510" lon="-8.6103000">
        <ele>128.9</ele>
        <time>2021-05-24T06:20:48Z</time>
      </trkpt>
      <trkpt lat="42.8279590" lon="-8.6102950">
        <ele>128.9</ele>
        <time>2021-05-24T06:20:49Z</time>
      </trkpt>
      <trkpt lat="42.8279810" lon="-8.6102820">
        <ele>128.9</ele>
        <time>2021-05-24T06:20:50Z</time>
      </trkpt>
      <trkpt lat="42.8279870" lon="-8.6102760">
        <ele>128.9</ele>
        <time>2021-05-24T06:20:51Z</time>
      </trkpt>
      <trkpt lat="42.8279940" lon="-8.6102690">
        <ele>128.9</ele>
        <time>2021-05-24T06:20:52Z</time>
      </trkpt>
      <trkpt lat="42.8280060" lon="-8.6102580">
        <ele>128.9</ele>
        <time>2021-05-24T06:20:53Z</time>
      </trkpt>
      <trkpt lat="42.8280150" lon="-8.6102440">
        <ele>128.9</ele>
        <time>2021-05-24T06:20:54Z</time>
      </trkpt>
      <trkpt lat="42.8280260" lon="-8.6102260">
        <ele>128.9</ele>
        <time>2021-05-24T06:20:55Z</time>
      </trkpt>
      <trkpt lat="42.8280350" lon="-8.6102150">
        <ele>128.9</ele>
        <time>2021-05-24T06:20:56Z</time>
      </trkpt>
      <trkpt lat="42.8280490" lon="-8.6101960">
        <ele>128.9</ele>
        <time>2021-05-24T06:20:57Z</time>
      </trkpt>
      <trkpt lat="42.8280650" lon="-8.6101920">
        <ele>128.9</ele>
        <time>2021-05-24T06:20:58Z</time>
      </trkpt>
      <trkpt lat="42.8280820" lon="-8.6101790">
        <ele>128.9</ele>
        <time>2021-05-24T06:20:59Z</time>
      </trkpt>
      <trkpt lat="42.8280890" lon="-8.6101720">
        <ele>128.9</ele>
        <time>2021-05-24T06:21:00Z</time>
      </trkpt>
      <trkpt lat="42.8280960" lon="-8.6101640">
        <ele>128.9</ele>
        <time>2021-05-24T06:21:01Z</time>
      </trkpt>
      <trkpt lat="42.8280990" lon="-8.6101600">
        <ele>128.9</ele>
        <time>2021-05-24T06:21:02Z</time>
      </trkpt>
      <trkpt lat="42.8281160" lon="-8.6101460">
        <ele>128.9</ele>
        <time>2021-05-24T06:21:03Z</time>
      </trkpt>
      <trkpt lat="42.8281220" lon="-8.6101350">
        <ele>128.9</ele>
        <time>2021-05-24T06:21:04Z</time>
      </trkpt>
      <trkpt lat="42.8281360" lon="-8.6101210">
        <ele>128.9</ele>
        <time>2021-05-24T06:21:05Z</time>
      </trkpt>
      <trkpt lat="42.8281480" lon="-8.6101050">
        <ele>128.9</ele>
        <time>2021-05-24T06:21:06Z</time>
      </trkpt>
      <trkpt lat="42.8281600" lon="-8.6100940">
        <ele>129.0</ele>
        <time>2021-05-24T06:21:07Z</time>
      </trkpt>
      <trkpt lat="42.8281720" lon="-8.6100840">
        <ele>129.0</ele>
        <time>2021-05-24T06:21:08Z</time>
      </trkpt>
      <trkpt lat="42.8281790" lon="-8.6100680">
        <ele>129.0</ele>
        <time>2021-05-24T06:21:09Z</time>
      </trkpt>
      <trkpt lat="42.8281900" lon="-8.6100550">
        <ele>129.0</ele>
        <time>2021-05-24T06:21:10Z</time>
      </trkpt>
      <trkpt lat="42.8282020" lon="-8.6100350">
        <ele>129.0</ele>
        <time>2021-05-24T06:21:11Z</time>
      </trkpt>
      <trkpt lat="42.8282070" lon="-8.6100240">
        <ele>129.0</ele>
        <time>2021-05-24T06:21:12Z</time>
      </trkpt>
      <trkpt lat="42.8282120" lon="-8.6100130">
        <ele>129.0</ele>
        <time>2021-05-24T06:21:13Z</time>
      </trkpt>
      <trkpt lat="42.8282190" lon="-8.6099960">
        <ele>129.1</ele>
        <time>2021-05-24T06:21:14Z</time>
      </trkpt>
      <trkpt lat="42.8282250" lon="-8.6099810">
        <ele>129.1</ele>
        <time>2021-05-24T06:21:15Z</time>
      </trkpt>
      <trkpt lat="42.8282320" lon="-8.6099630">
        <ele>129.1</ele>
        <time>2021-05-24T06:21:16Z</time>
      </trkpt>
      <trkpt lat="42.8282450" lon="-8.6099520">
        <ele>129.1</ele>
        <time>2021-05-24T06:21:17Z</time>
      </trkpt>
      <trkpt lat="42.8282500" lon="-8.6099460">
        <ele>129.1</ele>
        <time>2021-05-24T06:21:18Z</time>
      </trkpt>
      <trkpt lat="42.8282520" lon="-8.6099310">
        <ele>129.1</ele>
        <time>2021-05-24T06:21:19Z</time>
      </trkpt>
      <trkpt lat="42.8282590" lon="-8.6099150">
        <ele>129.1</ele>
        <time>2021-05-24T06:21:20Z</time>
      </trkpt>
      <trkpt lat="42.8282620" lon="-8.6098940">
        <ele>129.2</ele>
        <time>2021-05-24T06:21:21Z</time>
      </trkpt>
      <trkpt lat="42.8282630" lon="-8.6098780">
        <ele>129.2</ele>
        <time>2021-05-24T06:21:22Z</time>
      </trkpt>
      <trkpt lat="42.8282620" lon="-8.6098620">
        <ele>129.2</ele>
        <time>2021-05-24T06:21:23Z</time>
      </trkpt>
      <trkpt lat="42.8282650" lon="-8.6098490">
        <ele>129.2</ele>
        <time>2021-05-24T06:21:24Z</time>
      </trkpt>
      <trkpt lat="42.8282720" lon="-8.6098340">
        <ele>129.2</ele>
        <time>2021-05-24T06:21:25Z</time>
      </trkpt>
      <trkpt lat="42.8282770" lon="-8.6098120">
        <ele>129.2</ele>
        <time>2021-05-24T06:21:26Z</time>
      </trkpt>
      <trkpt lat="42.8282850" lon="-8.6098020">
        <ele>129.2</ele>
        <time>2021-05-24T06:21:27Z</time>
      </trkpt>
      <trkpt lat="42.8282920" lon="-8.6097780">
        <ele>129.2</ele>
        <time>2021-05-24T06:21:28Z</time>
      </trkpt>
      <trkpt lat="42.8282980" lon="-8.6097620">
        <ele>129.2</ele>
        <time>2021-05-24T06:21:29Z</time>
      </trkpt>
      <trkpt lat="42.8282990" lon="-8.6097450">
        <ele>129.2</ele>
        <time>2021-05-24T06:21:30Z</time>
      </trkpt>
      <trkpt lat="42.8283000" lon="-8.6097190">
        <ele>129.2</ele>
        <time>2021-05-24T06:21:31Z</time>
      </trkpt>
      <trkpt lat="42.8282960" lon="-8.6097020">
        <ele>129.2</ele>
        <time>2021-05-24T06:21:32Z</time>
      </trkpt>
      <trkpt lat="42.8282860" lon="-8.6096860">
        <ele>129.2</ele>
        <time>2021-05-24T06:21:33Z</time>
      </trkpt>
      <trkpt lat="42.8282850" lon="-8.6096840">
        <ele>129.2</ele>
        <time>2021-05-24T06:21:34Z</time>
      </trkpt>
      <trkpt lat="42.8282870" lon="-8.6096630">
        <ele>129.2</ele>
        <time>2021-05-24T06:21:35Z</time>
      </trkpt>
      <trkpt lat="42.8282840" lon="-8.6096420">
        <ele>129.1</ele>
        <time>2021-05-24T06:21:36Z</time>
      </trkpt>
      <trkpt lat="42.8282850" lon="-8.6096280">
        <ele>129.1</ele>
        <time>2021-05-24T06:21:37Z</time>
      </trkpt>
      <trkpt lat="42.8282810" lon="-8.6096130">
        <ele>129.1</ele>
        <time>2021-05-24T06:21:38Z</time>
      </trkpt>
      <trkpt lat="42.8282870" lon="-8.6095930">
        <ele>129.1</ele>
        <time>2021-05-24T06:21:39Z</time>
      </trkpt>
      <trkpt lat="42.8282890" lon="-8.6095690">
        <ele>129.1</ele>
        <time>2021-05-24T06:21:40Z</time>
      </trkpt>
      <trkpt lat="42.8282940" lon="-8.6095550">
        <ele>129.1</ele>
        <time>2021-05-24T06:21:41Z</time>
      </trkpt>
      <trkpt lat="42.8282990" lon="-8.6095400">
        <ele>129.1</ele>
        <time>2021-05-24T06:21:42Z</time>
      </trkpt>
      <trkpt lat="42.8282970" lon="-8.6095210">
        <ele>129.1</ele>
        <time>2021-05-24T06:21:43Z</time>
      </trkpt>
      <trkpt lat="42.8283020" lon="-8.6095070">
        <ele>129.1</ele>
        <time>2021-05-24T06:21:44Z</time>
      </trkpt>
      <trkpt lat="42.8283070" lon="-8.6094920">
        <ele>129.1</ele>
        <time>2021-05-24T06:21:45Z</time>
      </trkpt>
      <trkpt lat="42.8283010" lon="-8.6094750">
        <ele>129.1</ele>
        <time>2021-05-24T06:21:46Z</time>
      </trkpt>
      <trkpt lat="42.8283050" lon="-8.6094580">
        <ele>129.1</ele>
        <time>2021-05-24T06:21:47Z</time>
      </trkpt>
      <trkpt lat="42.8283070" lon="-8.6094380">
        <ele>129.1</ele>
        <time>2021-05-24T06:21:48Z</time>
      </trkpt>
      <trkpt lat="42.8283070" lon="-8.6094200">
        <ele>129.1</ele>
        <time>2021-05-24T06:21:49Z</time>
      </trkpt>
      <trkpt lat="42.8282960" lon="-8.6093950">
        <ele>129.1</ele>
        <time>2021-05-24T06:21:50Z</time>
      </trkpt>
      <trkpt lat="42.8282920" lon="-8.6093830">
        <ele>129.1</ele>
        <time>2021-05-24T06:21:51Z</time>
      </trkpt>
      <trkpt lat="42.8282880" lon="-8.6093700">
        <ele>129.1</ele>
        <time>2021-05-24T06:21:52Z</time>
      </trkpt>
      <trkpt lat="42.8282850" lon="-8.6093240">
        <ele>129.1</ele>
        <time>2021-05-24T06:21:53Z</time>
      </trkpt>
      <trkpt lat="42.8282840" lon="-8.6093090">
        <ele>129.1</ele>
        <time>2021-05-24T06:21:54Z</time>
      </trkpt>
      <trkpt lat="42.8282850" lon="-8.6092980">
        <ele>129.1</ele>
        <time>2021-05-24T06:21:55Z</time>
      </trkpt>
      <trkpt lat="42.8282840" lon="-8.6092850">
        <ele>129.1</ele>
        <time>2021-05-24T06:21:56Z</time>
      </trkpt>
      <trkpt lat="42.8282880" lon="-8.6092460">
        <ele>129.2</ele>
        <time>2021-05-24T06:21:57Z</time>
      </trkpt>
      <trkpt lat="42.8282880" lon="-8.6092300">
        <ele>129.2</ele>
        <time>2021-05-24T06:21:58Z</time>
      </trkpt>
      <trkpt lat="42.8282900" lon="-8.6092180">
        <ele>129.2</ele>
        <time>2021-05-24T06:21:59Z</time>
      </trkpt>
      <trkpt lat="42.8282870" lon="-8.6092010">
        <ele>129.2</ele>
        <time>2021-05-24T06:22:00Z</time>
      </trkpt>
      <trkpt lat="42.8282820" lon="-8.6091900">
        <ele>129.2</ele>
        <time>2021-05-24T06:22:01Z</time>
      </trkpt>
      <trkpt lat="42.8282850" lon="-8.6091810">
        <ele>129.2</ele>
        <time>2021-05-24T06:22:02Z</time>
      </trkpt>
      <trkpt lat="42.8282810" lon="-8.6091710">
        <ele>129.2</ele>
        <time>2021-05-24T06:22:03Z</time>
      </trkpt>
      <trkpt lat="42.8282810" lon="-8.6091520">
        <ele>129.2</ele>
        <time>2021-05-24T06:22:04Z</time>
      </trkpt>
      <trkpt lat="42.8282820" lon="-8.6091390">
        <ele>129.2</ele>
        <time>2021-05-24T06:22:05Z</time>
      </trkpt>
      <trkpt lat="42.8282840" lon="-8.6091240">
        <ele>129.3</ele>
        <time>2021-05-24T06:22:06Z</time>
      </trkpt>
      <trkpt lat="42.8282810" lon="-8.6091130">
        <ele>129.3</ele>
        <time>2021-05-24T06:22:07Z</time>
      </trkpt>
      <trkpt lat="42.8282780" lon="-8.6090990">
        <ele>129.3</ele>
        <time>2021-05-24T06:22:08Z</time>
      </trkpt>
      <trkpt lat="42.8282770" lon="-8.6090850">
        <ele>129.3</ele>
        <time>2021-05-24T06:22:09Z</time>
      </trkpt>
      <trkpt lat="42.8282720" lon="-8.6090690">
        <ele>129.3</ele>
        <time>2021-05-24T06:22:10Z</time>
      </trkpt>
      <trkpt lat="42.8282690" lon="-8.6090510">
        <ele>129.3</ele>
        <time>2021-05-24T06:22:11Z</time>
      </trkpt>
      <trkpt lat="42.8282680" lon="-8.6090300">
        <ele>129.3</ele>
        <time>2021-05-24T06:22:12Z</time>
      </trkpt>
      <trkpt lat="42.8282710" lon="-8.6090180">
        <ele>129.4</ele>
        <time>2021-05-24T06:22:13Z</time>
      </trkpt>
      <trkpt lat="42.8282690" lon="-8.6090110">
        <ele>129.4</ele>
        <time>2021-05-24T06:22:14Z</time>
      </trkpt>
      <trkpt lat="42.8282650" lon="-8.6089890">
        <ele>129.4</ele>
        <time>2021-05-24T06:22:15Z</time>
      </trkpt>
      <trkpt lat="42.8282620" lon="-8.6089690">
        <ele>129.4</ele>
        <time>2021-05-24T06:22:16Z</time>
      </trkpt>
      <trkpt lat="42.8282570" lon="-8.6089580">
        <ele>129.4</ele>
        <time>2021-05-24T06:22:17Z</time>
      </trkpt>
      <trkpt lat="42.8282530" lon="-8.6089470">
        <ele>129.4</ele>
        <time>2021-05-24T06:22:18Z</time>
      </trkpt>
      <trkpt lat="42.8282480" lon="-8.6089360">
        <ele>129.5</ele>
        <time>2021-05-24T06:22:19Z</time>
      </trkpt>
      <trkpt lat="42.8282400" lon="-8.6089240">
        <ele>129.5</ele>
        <time>2021-05-24T06:22:20Z</time>
      </trkpt>
      <trkpt lat="42.8282350" lon="-8.6089090">
        <ele>129.5</ele>
        <time>2021-05-24T06:22:21Z</time>
      </trkpt>
      <trkpt lat="42.8282340" lon="-8.6088940">
        <ele>129.5</ele>
        <time>2021-05-24T06:22:22Z</time>
      </trkpt>
      <trkpt lat="42.8282300" lon="-8.6088800">
        <ele>129.5</ele>
        <time>2021-05-24T06:22:23Z</time>
      </trkpt>
      <trkpt lat="42.8282350" lon="-8.6088730">
        <ele>129.6</ele>
        <time>2021-05-24T06:22:24Z</time>
      </trkpt>
      <trkpt lat="42.8282390" lon="-8.6088590">
        <ele>129.6</ele>
        <time>2021-05-24T06:22:25Z</time>
      </trkpt>
      <trkpt lat="42.8282380" lon="-8.6088470">
        <ele>129.6</ele>
        <time>2021-05-24T06:22:26Z</time>
      </trkpt>
      <trkpt lat="42.8282410" lon="-8.6088310">
        <ele>129.6</ele>
        <time>2021-05-24T06:22:27Z</time>
      </trkpt>
      <trkpt lat="42.8282400" lon="-8.6088080">
        <ele>129.7</ele>
        <time>2021-05-24T06:22:28Z</time>
      </trkpt>
      <trkpt lat="42.8282370" lon="-8.6087910">
        <ele>129.7</ele>
        <time>2021-05-24T06:22:29Z</time>
      </trkpt>
      <trkpt lat="42.8282350" lon="-8.6087850">
        <ele>129.7</ele>
        <time>2021-05-24T06:22:30Z</time>
      </trkpt>
      <trkpt lat="42.8282410" lon="-8.6087650">
        <ele>129.7</ele>
        <time>2021-05-24T06:22:31Z</time>
      </trkpt>
      <trkpt lat="42.8282420" lon="-8.6087430">
        <ele>129.8</ele>
        <time>2021-05-24T06:22:32Z</time>
      </trkpt>
      <trkpt lat="42.8282460" lon="-8.6087270">
        <ele>129.8</ele>
        <time>2021-05-24T06:22:33Z</time>
      </trkpt>
      <trkpt lat="42.8282540" lon="-8.6087090">
        <ele>129.9</ele>
        <time>2021-05-24T06:22:34Z</time>
      </trkpt>
      <trkpt lat="42.8282640" lon="-8.6086920">
        <ele>129.9</ele>
        <time>2021-05-24T06:22:35Z</time>
      </trkpt>
      <trkpt lat="42.8282790" lon="-8.6087000">
        <ele>130.0</ele>
        <time>2021-05-24T06:22:36Z</time>
      </trkpt>
      <trkpt lat="42.8282880" lon="-8.6086880">
        <ele>130.0</ele>
        <time>2021-05-24T06:22:37Z</time>
      </trkpt>
      <trkpt lat="42.8282940" lon="-8.6086750">
        <ele>130.0</ele>
        <time>2021-05-24T06:22:38Z</time>
      </trkpt>
      <trkpt lat="42.8283030" lon="-8.6086640">
        <ele>130.1</ele>
        <time>2021-05-24T06:22:39Z</time>
      </trkpt>
      <trkpt lat="42.8283050" lon="-8.6086620">
        <ele>130.1</ele>
        <time>2021-05-24T06:22:40Z</time>
      </trkpt>
      <trkpt lat="42.8283070" lon="-8.6086610">
        <ele>130.1</ele>
        <time>2021-05-24T06:22:41Z</time>
      </trkpt>
      <trkpt lat="42.8283090" lon="-8.6086590">
        <ele>130.1</ele>
        <time>2021-05-24T06:22:42Z</time>
      </trkpt>
      <trkpt lat="42.8283110" lon="-8.6086580">
        <ele>130.1</ele>
        <time>2021-05-24T06:22:43Z</time>
      </trkpt>
      <trkpt lat="42.8283130" lon="-8.6086570">
        <ele>130.1</ele>
        <time>2021-05-24T06:22:44Z</time>
      </trkpt>
      <trkpt lat="42.8283150" lon="-8.6086550">
        <ele>130.1</ele>
        <time>2021-05-24T06:22:45Z</time>
      </trkpt>
      <trkpt lat="42.8283170" lon="-8.6086540">
        <ele>130.1</ele>
        <time>2021-05-24T06:22:46Z</time>
      </trkpt>
      <trkpt lat="42.8283190" lon="-8.6086530">
        <ele>130.2</ele>
        <time>2021-05-24T06:22:47Z</time>
      </trkpt>
      <trkpt lat="42.8283210" lon="-8.6086510">
        <ele>130.2</ele>
        <time>2021-05-24T06:22:48Z</time>
      </trkpt>
      <trkpt lat="42.8283230" lon="-8.6086500">
        <ele>130.2</ele>
        <time>2021-05-24T06:22:49Z</time>
      </trkpt>
      <trkpt lat="42.8283250" lon="-8.6086480">
        <ele>130.2</ele>
        <time>2021-05-24T06:22:50Z</time>
      </trkpt>
      <trkpt lat="42.8283270" lon="-8.6086470">
        <ele>130.2</ele>
        <time>2021-05-24T06:22:51Z</time>
      </trkpt>
      <trkpt lat="42.8283290" lon="-8.6086300">
        <ele>130.2</ele>
        <time>2021-05-24T06:22:52Z</time>
      </trkpt>
      <trkpt lat="42.8283370" lon="-8.6086200">
        <ele>130.3</ele>
        <time>2021-05-24T06:22:53Z</time>
      </trkpt>
      <trkpt lat="42.8283450" lon="-8.6086090">
        <ele>130.3</ele>
        <time>2021-05-24T06:22:54Z</time>
      </trkpt>
      <trkpt lat="42.8283530" lon="-8.6085990">
        <ele>130.3</ele>
        <time>2021-05-24T06:22:55Z</time>
      </trkpt>
      <trkpt lat="42.8283720" lon="-8.6085700">
        <ele>130.5</ele>
        <time>2021-05-24T06:22:56Z</time>
      </trkpt>
      <trkpt lat="42.8283790" lon="-8.6085610">
        <ele>130.5</ele>
        <time>2021-05-24T06:22:57Z</time>
      </trkpt>
      <trkpt lat="42.8283930" lon="-8.6085520">
        <ele>130.5</ele>
        <time>2021-05-24T06:22:58Z</time>
      </trkpt>
      <trkpt lat="42.8284030" lon="-8.6085360">
        <ele>130.6</ele>
        <time>2021-05-24T06:22:59Z</time>
      </trkpt>
      <trkpt lat="42.8284130" lon="-8.6085260">
        <ele>130.7</ele>
        <time>2021-05-24T06:23:00Z</time>
      </trkpt>
      <trkpt lat="42.8284300" lon="-8.6085240">
        <ele>130.7</ele>
        <time>2021-05-24T06:23:01Z</time>
      </trkpt>
      <trkpt lat="42.8284480" lon="-8.6085080">
        <ele>130.8</ele>
        <time>2021-05-24T06:23:02Z</time>
      </trkpt>
      <trkpt lat="42.8284610" lon="-8.6085100">
        <ele>130.9</ele>
        <time>2021-05-24T06:23:03Z</time>
      </trkpt>
      <trkpt lat="42.8284780" lon="-8.6084920">
        <ele>131.0</ele>
        <time>2021-05-24T06:23:04Z</time>
      </trkpt>
      <trkpt lat="42.8284850" lon="-8.6084850">
        <ele>131.0</ele>
        <time>2021-05-24T06:23:05Z</time>
      </trkpt>
      <trkpt lat="42.8284910" lon="-8.6084780">
        <ele>131.0</ele>
        <time>2021-05-24T06:23:06Z</time>
      </trkpt>
      <trkpt lat="42.8285100" lon="-8.6084610">
        <ele>131.1</ele>
        <time>2021-05-24T06:23:07Z</time>
      </trkpt>
      <trkpt lat="42.8285200" lon="-8.6084500">
        <ele>131.2</ele>
        <time>2021-05-24T06:23:08Z</time>
      </trkpt>
      <trkpt lat="42.8285270" lon="-8.6084380">
        <ele>131.2</ele>
        <time>2021-05-24T06:23:09Z</time>
      </trkpt>
      <trkpt lat="42.8285360" lon="-8.6084320">
        <ele>131.3</ele>
        <time>2021-05-24T06:23:10Z</time>
      </trkpt>
      <trkpt lat="42.8285510" lon="-8.6084240">
        <ele>131.4</ele>
        <time>2021-05-24T06:23:11Z</time>
      </trkpt>
      <trkpt lat="42.8285600" lon="-8.6084220">
        <ele>131.4</ele>
        <time>2021-05-24T06:23:12Z</time>
      </trkpt>
      <trkpt lat="42.8285720" lon="-8.6084110">
        <ele>131.5</ele>
        <time>2021-05-24T06:23:13Z</time>
      </trkpt>
      <trkpt lat="42.8285810" lon="-8.6084050">
        <ele>131.5</ele>
        <time>2021-05-24T06:23:14Z</time>
      </trkpt>
      <trkpt lat="42.8285950" lon="-8.6083860">
        <ele>131.6</ele>
        <time>2021-05-24T06:23:15Z</time>
      </trkpt>
      <trkpt lat="42.8286090" lon="-8.6083740">
        <ele>131.7</ele>
        <time>2021-05-24T06:23:16Z</time>
      </trkpt>
      <trkpt lat="42.8286260" lon="-8.6083700">
        <ele>131.8</ele>
        <time>2021-05-24T06:23:17Z</time>
      </trkpt>
      <trkpt lat="42.8286380" lon="-8.6083690">
        <ele>131.9</ele>
        <time>2021-05-24T06:23:18Z</time>
      </trkpt>
      <trkpt lat="42.8286510" lon="-8.6083600">
        <ele>132.0</ele>
        <time>2021-05-24T06:23:19Z</time>
      </trkpt>
      <trkpt lat="42.8286570" lon="-8.6083530">
        <ele>132.0</ele>
        <time>2021-05-24T06:23:20Z</time>
      </trkpt>
      <trkpt lat="42.8286640" lon="-8.6083450">
        <ele>132.1</ele>
        <time>2021-05-24T06:23:21Z</time>
      </trkpt>
      <trkpt lat="42.8286700" lon="-8.6083380">
        <ele>132.1</ele>
        <time>2021-05-24T06:23:22Z</time>
      </trkpt>
      <trkpt lat="42.8286760" lon="-8.6083250">
        <ele>132.2</ele>
        <time>2021-05-24T06:23:23Z</time>
      </trkpt>
      <trkpt lat="42.8286880" lon="-8.6083170">
        <ele>132.3</ele>
        <time>2021-05-24T06:23:24Z</time>
      </trkpt>
      <trkpt lat="42.8286900" lon="-8.6083120">
        <ele>132.3</ele>
        <time>2021-05-24T06:23:25Z</time>
      </trkpt>
      <trkpt lat="42.8286910" lon="-8.6083070">
        <ele>132.3</ele>
        <time>2021-05-24T06:23:26Z</time>
      </trkpt>
      <trkpt lat="42.8287030" lon="-8.6082920">
        <ele>132.4</ele>
        <time>2021-05-24T06:23:27Z</time>
      </trkpt>
      <trkpt lat="42.8287150" lon="-8.6082820">
        <ele>132.5</ele>
        <time>2021-05-24T06:23:28Z</time>
      </trkpt>
      <trkpt lat="42.8287350" lon="-8.6082620">
        <ele>132.7</ele>
        <time>2021-05-24T06:23:29Z</time>
      </trkpt>
      <trkpt lat="42.8287410" lon="-8.6082550">
        <ele>132.7</ele>
        <time>2021-05-24T06:23:30Z</time>
      </trkpt>
      <trkpt lat="42.8287480" lon="-8.6082490">
        <ele>132.8</ele>
        <time>2021-05-24T06:23:31Z</time>
      </trkpt>
      <trkpt lat="42.8287590" lon="-8.6082380">
        <ele>132.9</ele>
        <time>2021-05-24T06:23:32Z</time>
      </trkpt>
      <trkpt lat="42.8287660" lon="-8.6082350">
        <ele>133.0</ele>
        <time>2021-05-24T06:23:33Z</time>
      </trkpt>
      <trkpt lat="42.8287810" lon="-8.6082280">
        <ele>133.1</ele>
        <time>2021-05-24T06:23:34Z</time>
      </trkpt>
      <trkpt lat="42.8287830" lon="-8.6082230">
        <ele>133.1</ele>
        <time>2021-05-24T06:23:35Z</time>
      </trkpt>
      <trkpt lat="42.8287890" lon="-8.6082170">
        <ele>133.2</ele>
        <time>2021-05-24T06:23:36Z</time>
      </trkpt>
      <trkpt lat="42.8287930" lon="-8.6082050">
        <ele>133.3</ele>
        <time>2021-05-24T06:23:37Z</time>
      </trkpt>
      <trkpt lat="42.8287960" lon="-8.6081950">
        <ele>133.3</ele>
        <time>2021-05-24T06:23:38Z</time>
      </trkpt>
      <trkpt lat="42.8287970" lon="-8.6081810">
        <ele>133.4</ele>
        <time>2021-05-24T06:23:39Z</time>
      </trkpt>
      <trkpt lat="42.8288070" lon="-8.6081680">
        <ele>133.5</ele>
        <time>2021-05-24T06:23:40Z</time>
      </trkpt>
      <trkpt lat="42.8288140" lon="-8.6081570">
        <ele>133.6</ele>
        <time>2021-05-24T06:23:41Z</time>
      </trkpt>
      <trkpt lat="42.8288200" lon="-8.6081390">
        <ele>133.8</ele>
        <time>2021-05-24T06:23:42Z</time>
      </trkpt>
      <trkpt lat="42.8288220" lon="-8.6081290">
        <ele>133.8</ele>
        <time>2021-05-24T06:23:43Z</time>
      </trkpt>
      <trkpt lat="42.8288230" lon="-8.6081200">
        <ele>133.9</ele>
        <time>2021-05-24T06:23:44Z</time>
      </trkpt>
      <trkpt lat="42.8288250" lon="-8.6081100">
        <ele>133.9</ele>
        <time>2021-05-24T06:23:45Z</time>
      </trkpt>
      <trkpt lat="42.8288260" lon="-8.6081010">
        <ele>134.0</ele>
        <time>2021-05-24T06:23:46Z</time>
      </trkpt>
      <trkpt lat="42.8288290" lon="-8.6080840">
        <ele>134.1</ele>
        <time>2021-05-24T06:23:47Z</time>
      </trkpt>
      <trkpt lat="42.8288280" lon="-8.6080710">
        <ele>134.2</ele>
        <time>2021-05-24T06:23:48Z</time>
      </trkpt>
      <trkpt lat="42.8288300" lon="-8.6080640">
        <ele>134.3</ele>
        <time>2021-05-24T06:23:49Z</time>
      </trkpt>
      <trkpt lat="42.8288390" lon="-8.6080420">
        <ele>134.5</ele>
        <time>2021-05-24T06:23:50Z</time>
      </trkpt>
      <trkpt lat="42.8288450" lon="-8.6080310">
        <ele>134.6</ele>
        <time>2021-05-24T06:23:51Z</time>
      </trkpt>
      <trkpt lat="42.8288500" lon="-8.6080200">
        <ele>134.7</ele>
        <time>2021-05-24T06:23:52Z</time>
      </trkpt>
      <trkpt lat="42.8288500" lon="-8.6079940">
        <ele>134.9</ele>
        <time>2021-05-24T06:23:53Z</time>
      </trkpt>
      <trkpt lat="42.8288600" lon="-8.6079810">
        <ele>135.0</ele>
        <time>2021-05-24T06:23:54Z</time>
      </trkpt>
      <trkpt lat="42.8288690" lon="-8.6079690">
        <ele>135.1</ele>
        <time>2021-05-24T06:23:55Z</time>
      </trkpt>
      <trkpt lat="42.8288730" lon="-8.6079430">
        <ele>135.3</ele>
        <time>2021-05-24T06:23:56Z</time>
      </trkpt>
      <trkpt lat="42.8288710" lon="-8.6079340">
        <ele>135.4</ele>
        <time>2021-05-24T06:23:57Z</time>
      </trkpt>
      <trkpt lat="42.8288700" lon="-8.6079250">
        <ele>135.4</ele>
        <time>2021-05-24T06:23:58Z</time>
      </trkpt>
      <trkpt lat="42.8288680" lon="-8.6079160">
        <ele>135.5</ele>
        <time>2021-05-24T06:23:59Z</time>
      </trkpt>
      <trkpt lat="42.8288700" lon="-8.6079040">
        <ele>135.6</ele>
        <time>2021-05-24T06:24:00Z</time>
      </trkpt>
      <trkpt lat="42.8288850" lon="-8.6078930">
        <ele>135.8</ele>
        <time>2021-05-24T06:24:01Z</time>
      </trkpt>
      <trkpt lat="42.8288860" lon="-8.6078800">
        <ele>135.9</ele>
        <time>2021-05-24T06:24:02Z</time>
      </trkpt>
      <trkpt lat="42.8288840" lon="-8.6078620">
        <ele>136.0</ele>
        <time>2021-05-24T06:24:03Z</time>
      </trkpt>
      <trkpt lat="42.8288760" lon="-8.6078570">
        <ele>136.1</ele>
        <time>2021-05-24T06:24:04Z</time>
      </trkpt>
      <trkpt lat="42.8288720" lon="-8.6078390">
        <ele>136.3</ele>
        <time>2021-05-24T06:24:05Z</time>
      </trkpt>
      <trkpt lat="42.8288690" lon="-8.6078240">
        <ele>136.4</ele>
        <time>2021-05-24T06:24:06Z</time>
      </trkpt>
      <trkpt lat="42.8288690" lon="-8.6078090">
        <ele>136.5</ele>
        <time>2021-05-24T06:24:07Z</time>
      </trkpt>
      <trkpt lat="42.8288560" lon="-8.6077970">
        <ele>136.7</ele>
        <time>2021-05-24T06:24:08Z</time>
      </trkpt>
      <trkpt lat="42.8288550" lon="-8.6077760">
        <ele>136.9</ele>
        <time>2021-05-24T06:24:09Z</time>
      </trkpt>
      <trkpt lat="42.8288540" lon="-8.6077660">
        <ele>137.0</ele>
        <time>2021-05-24T06:24:10Z</time>
      </trkpt>
      <trkpt lat="42.8288530" lon="-8.6077570">
        <ele>137.0</ele>
        <time>2021-05-24T06:24:11Z</time>
      </trkpt>
      <trkpt lat="42.8288520" lon="-8.6077470">
        <ele>137.1</ele>
        <time>2021-05-24T06:24:12Z</time>
      </trkpt>
      <trkpt lat="42.8288540" lon="-8.6077290">
        <ele>137.2</ele>
        <time>2021-05-24T06:24:13Z</time>
      </trkpt>
      <trkpt lat="42.8288610" lon="-8.6077030">
        <ele>137.5</ele>
        <time>2021-05-24T06:24:14Z</time>
      </trkpt>
      <trkpt lat="42.8288600" lon="-8.6076910">
        <ele>137.6</ele>
        <time>2021-05-24T06:24:15Z</time>
      </trkpt>
      <trkpt lat="42.8288660" lon="-8.6076810">
        <ele>137.7</ele>
        <time>2021-05-24T06:24:16Z</time>
      </trkpt>
      <trkpt lat="42.8288630" lon="-8.6076720">
        <ele>137.7</ele>
        <time>2021-05-24T06:24:17Z</time>
      </trkpt>
      <trkpt lat="42.8288560" lon="-8.6076620">
        <ele>137.9</ele>
        <time>2021-05-24T06:24:18Z</time>
      </trkpt>
      <trkpt lat="42.8288560" lon="-8.6076390">
        <ele>138.0</ele>
        <time>2021-05-24T06:24:19Z</time>
      </trkpt>
      <trkpt lat="42.8288550" lon="-8.6076290">
        <ele>138.1</ele>
        <time>2021-05-24T06:24:20Z</time>
      </trkpt>
      <trkpt lat="42.8288480" lon="-8.6076260">
        <ele>138.2</ele>
        <time>2021-05-24T06:24:21Z</time>
      </trkpt>
      <trkpt lat="42.8288420" lon="-8.6076130">
        <ele>138.3</ele>
        <time>2021-05-24T06:24:22Z</time>
      </trkpt>
      <trkpt lat="42.8288480" lon="-8.6075890">
        <ele>138.5</ele>
        <time>2021-05-24T06:24:23Z</time>
      </trkpt>
      <trkpt lat="42.8288470" lon="-8.6075750">
        <ele>138.6</ele>
        <time>2021-05-24T06:24:24Z</time>
      </trkpt>
      <trkpt lat="42.8288450" lon="-8.6075650">
        <ele>138.7</ele>
        <time>2021-05-24T06:24:25Z</time>
      </trkpt>
      <trkpt lat="42.8288460" lon="-8.6075560">
        <ele>138.8</ele>
        <time>2021-05-24T06:24:26Z</time>
      </trkpt>
      <trkpt lat="42.8288470" lon="-8.6075530">
        <ele>138.8</ele>
        <time>2021-05-24T06:24:27Z</time>
      </trkpt>
      <trkpt lat="42.8288470" lon="-8.6075430">
        <ele>138.9</ele>
        <time>2021-05-24T06:24:28Z</time>
      </trkpt>
      <trkpt lat="42.8288490" lon="-8.6075260">
        <ele>139.0</ele>
        <time>2021-05-24T06:24:29Z</time>
      </trkpt>
      <trkpt lat="42.8288510" lon="-8.6075070">
        <ele>139.1</ele>
        <time>2021-05-24T06:24:30Z</time>
      </trkpt>
      <trkpt lat="42.8288490" lon="-8.6074930">
        <ele>139.2</ele>
        <time>2021-05-24T06:24:31Z</time>
      </trkpt>
      <trkpt lat="42.8288450" lon="-8.6074780">
        <ele>139.3</ele>
        <time>2021-05-24T06:24:32Z</time>
      </trkpt>
      <trkpt lat="42.8288410" lon="-8.6074630">
        <ele>139.4</ele>
        <time>2021-05-24T06:24:33Z</time>
      </trkpt>
      <trkpt lat="42.8288520" lon="-8.6074400">
        <ele>139.6</ele>
        <time>2021-05-24T06:24:34Z</time>
      </trkpt>
      <trkpt lat="42.8288560" lon="-8.6074290">
        <ele>139.7</ele>
        <time>2021-05-24T06:24:35Z</time>
      </trkpt>
      <trkpt lat="42.8288600" lon="-8.6074190">
        <ele>139.8</ele>
        <time>2021-05-24T06:24:36Z</time>
      </trkpt>
      <trkpt lat="42.8288630" lon="-8.6073840">
        <ele>140.0</ele>
        <time>2021-05-24T06:24:37Z</time>
      </trkpt>
      <trkpt lat="42.8288620" lon="-8.6073750">
        <ele>140.1</ele>
        <time>2021-05-24T06:24:38Z</time>
      </trkpt>
      <trkpt lat="42.8288620" lon="-8.6073670">
        <ele>140.2</ele>
        <time>2021-05-24T06:24:39Z</time>
      </trkpt>
      <trkpt lat="42.8288670" lon="-8.6073480">
        <ele>140.3</ele>
        <time>2021-05-24T06:24:40Z</time>
      </trkpt>
      <trkpt lat="42.8288620" lon="-8.6073280">
        <ele>140.4</ele>
        <time>2021-05-24T06:24:41Z</time>
      </trkpt>
      <trkpt lat="42.8288700" lon="-8.6073070">
        <ele>140.5</ele>
        <time>2021-05-24T06:24:42Z</time>
      </trkpt>
      <trkpt lat="42.8288740" lon="-8.6072920">
        <ele>140.6</ele>
        <time>2021-05-24T06:24:43Z</time>
      </trkpt>
      <trkpt lat="42.8288780" lon="-8.6072780">
        <ele>140.7</ele>
        <time>2021-05-24T06:24:44Z</time>
      </trkpt>
      <trkpt lat="42.8288840" lon="-8.6072690">
        <ele>140.8</ele>
        <time>2021-05-24T06:24:45Z</time>
      </trkpt>
      <trkpt lat="42.8288930" lon="-8.6072580">
        <ele>140.9</ele>
        <time>2021-05-24T06:24:46Z</time>
      </trkpt>
      <trkpt lat="42.8288950" lon="-8.6072390">
        <ele>141.0</ele>
        <time>2021-05-24T06:24:47Z</time>
      </trkpt>
      <trkpt lat="42.8288990" lon="-8.6072150">
        <ele>141.1</ele>
        <time>2021-05-24T06:24:48Z</time>
      </trkpt>
      <trkpt lat="42.8289110" lon="-8.6072000">
        <ele>141.2</ele>
        <time>2021-05-24T06:24:49Z</time>
      </trkpt>
      <trkpt lat="42.8289180" lon="-8.6071790">
        <ele>141.4</ele>
        <time>2021-05-24T06:24:50Z</time>
      </trkpt>
      <trkpt lat="42.8289210" lon="-8.6071620">
        <ele>141.4</ele>
        <time>2021-05-24T06:24:51Z</time>
      </trkpt>
      <trkpt lat="42.8289210" lon="-8.6071540">
        <ele>141.5</ele>
        <time>2021-05-24T06:24:52Z</time>
      </trkpt>
      <trkpt lat="42.8289220" lon="-8.6071410">
        <ele>141.5</ele>
        <time>2021-05-24T06:24:53Z</time>
      </trkpt>
      <trkpt lat="42.8289240" lon="-8.6071360">
        <ele>141.5</ele>
        <time>2021-05-24T06:24:54Z</time>
      </trkpt>
      <trkpt lat="42.8289220" lon="-8.6071250">
        <ele>141.6</ele>
        <time>2021-05-24T06:24:55Z</time>
      </trkpt>
      <trkpt lat="42.8289220" lon="-8.6071030">
        <ele>141.7</ele>
        <time>2021-05-24T06:24:56Z</time>
      </trkpt>
      <trkpt lat="42.8289240" lon="-8.6070810">
        <ele>141.8</ele>
        <time>2021-05-24T06:24:57Z</time>
      </trkpt>
      <trkpt lat="42.8289250" lon="-8.6070250">
        <ele>141.9</ele>
        <time>2021-05-24T06:24:59Z</time>
      </trkpt>
      <trkpt lat="42.8289260" lon="-8.6070080">
        <ele>142.0</ele>
        <time>2021-05-24T06:25:00Z</time>
      </trkpt>
      <trkpt lat="42.8289280" lon="-8.6069910">
        <ele>142.0</ele>
        <time>2021-05-24T06:25:01Z</time>
      </trkpt>
      <trkpt lat="42.8289310" lon="-8.6069800">
        <ele>142.1</ele>
        <time>2021-05-24T06:25:02Z</time>
      </trkpt>
      <trkpt lat="42.8289370" lon="-8.6069670">
        <ele>142.1</ele>
        <time>2021-05-24T06:25:03Z</time>
      </trkpt>
      <trkpt lat="42.8289360" lon="-8.6069530">
        <ele>142.1</ele>
        <time>2021-05-24T06:25:04Z</time>
      </trkpt>
      <trkpt lat="42.8289420" lon="-8.6069370">
        <ele>142.2</ele>
        <time>2021-05-24T06:25:05Z</time>
      </trkpt>
      <trkpt lat="42.8289450" lon="-8.6069250">
        <ele>142.2</ele>
        <time>2021-05-24T06:25:06Z</time>
      </trkpt>
      <trkpt lat="42.8289470" lon="-8.6069140">
        <ele>142.2</ele>
        <time>2021-05-24T06:25:07Z</time>
      </trkpt>
      <trkpt lat="42.8289500" lon="-8.6069020">
        <ele>142.2</ele>
        <time>2021-05-24T06:25:08Z</time>
      </trkpt>
      <trkpt lat="42.8289510" lon="-8.6068930">
        <ele>142.2</ele>
        <time>2021-05-24T06:25:09Z</time>
      </trkpt>
      <trkpt lat="42.8289520" lon="-8.6068840">
        <ele>142.2</ele>
        <time>2021-05-24T06:25:10Z</time>
      </trkpt>
      <trkpt lat="42.8289510" lon="-8.6068700">
        <ele>142.3</ele>
        <time>2021-05-24T06:25:11Z</time>
      </trkpt>
      <trkpt lat="42.8289480" lon="-8.6068550">
        <ele>142.3</ele>
        <time>2021-05-24T06:25:12Z</time>
      </trkpt>
      <trkpt lat="42.8289460" lon="-8.6068580">
        <ele>142.3</ele>
        <time>2021-05-24T06:25:13Z</time>
      </trkpt>
      <trkpt lat="42.8289480" lon="-8.6068450">
        <ele>142.3</ele>
        <time>2021-05-24T06:25:14Z</time>
      </trkpt>
      <trkpt lat="42.8289550" lon="-8.6068340">
        <ele>142.3</ele>
        <time>2021-05-24T06:25:15Z</time>
      </trkpt>
      <trkpt lat="42.8289590" lon="-8.6068180">
        <ele>142.3</ele>
        <time>2021-05-24T06:25:16Z</time>
      </trkpt>
      <trkpt lat="42.8289580" lon="-8.6068020">
        <ele>142.3</ele>
        <time>2021-05-24T06:25:17Z</time>
      </trkpt>
      <trkpt lat="42.8289540" lon="-8.6068020">
        <ele>142.3</ele>
        <time>2021-05-24T06:25:18Z</time>
      </trkpt>
      <trkpt lat="42.8289500" lon="-8.6067890">
        <ele>142.3</ele>
        <time>2021-05-24T06:25:19Z</time>
      </trkpt>
      <trkpt lat="42.8289480" lon="-8.6067910">
        <ele>142.3</ele>
        <time>2021-05-24T06:25:20Z</time>
      </trkpt>
      <trkpt lat="42.8289420" lon="-8.6067830">
        <ele>142.3</ele>
        <time>2021-05-24T06:25:21Z</time>
      </trkpt>
      <trkpt lat="42.8289490" lon="-8.6067760">
        <ele>142.3</ele>
        <time>2021-05-24T06:25:22Z</time>
      </trkpt>
      <trkpt lat="42.8289540" lon="-8.6067670">
        <ele>142.3</ele>
        <time>2021-05-24T06:25:23Z</time>
      </trkpt>
      <trkpt lat="42.8289550" lon="-8.6067610">
        <ele>142.3</ele>
        <time>2021-05-24T06:25:24Z</time>
      </trkpt>
      <trkpt lat="42.8289570" lon="-8.6067550">
        <ele>142.3</ele>
        <time>2021-05-24T06:25:25Z</time>
      </trkpt>
      <trkpt lat="42.8289570" lon="-8.6067460">
        <ele>142.3</ele>
        <time>2021-05-24T06:25:26Z</time>
      </trkpt>
      <trkpt lat="42.8289630" lon="-8.6067290">
        <ele>142.2</ele>
        <time>2021-05-24T06:25:27Z</time>
      </trkpt>
      <trkpt lat="42.8289640" lon="-8.6067180">
        <ele>142.2</ele>
        <time>2021-05-24T06:25:28Z</time>
      </trkpt>
      <trkpt lat="42.8289640" lon="-8.6067080">
        <ele>142.2</ele>
        <time>2021-05-24T06:25:29Z</time>
      </trkpt>
      <trkpt lat="42.8289640" lon="-8.6066970">
        <ele>142.2</ele>
        <time>2021-05-24T06:25:30Z</time>
      </trkpt>
      <trkpt lat="42.8289670" lon="-8.6066880">
        <ele>142.2</ele>
        <time>2021-05-24T06:25:31Z</time>
      </trkpt>
      <trkpt lat="42.8289600" lon="-8.6066730">
        <ele>142.2</ele>
        <time>2021-05-24T06:25:32Z</time>
      </trkpt>
      <trkpt lat="42.8289570" lon="-8.6066550">
        <ele>142.1</ele>
        <time>2021-05-24T06:25:33Z</time>
      </trkpt>
      <trkpt lat="42.8289570" lon="-8.6066380">
        <ele>142.1</ele>
        <time>2021-05-24T06:25:34Z</time>
      </trkpt>
      <trkpt lat="42.8289600" lon="-8.6066240">
        <ele>142.1</ele>
        <time>2021-05-24T06:25:35Z</time>
      </trkpt>
      <trkpt lat="42.8289670" lon="-8.6066140">
        <ele>142.0</ele>
        <time>2021-05-24T06:25:36Z</time>
      </trkpt>
      <trkpt lat="42.8289720" lon="-8.6066030">
        <ele>142.0</ele>
        <time>2021-05-24T06:25:37Z</time>
      </trkpt>
      <trkpt lat="42.8289800" lon="-8.6065870">
        <ele>142.0</ele>
        <time>2021-05-24T06:25:38Z</time>
      </trkpt>
      <trkpt lat="42.8289840" lon="-8.6065720">
        <ele>141.9</ele>
        <time>2021-05-24T06:25:39Z</time>
      </trkpt>
      <trkpt lat="42.8289880" lon="-8.6065520">
        <ele>141.9</ele>
        <time>2021-05-24T06:25:40Z</time>
      </trkpt>
      <trkpt lat="42.8289930" lon="-8.6065350">
        <ele>141.8</ele>
        <time>2021-05-24T06:25:41Z</time>
      </trkpt>
      <trkpt lat="42.8289940" lon="-8.6065170">
        <ele>141.8</ele>
        <time>2021-05-24T06:25:42Z</time>
      </trkpt>
      <trkpt lat="42.8290040" lon="-8.6064890">
        <ele>141.7</ele>
        <time>2021-05-24T06:25:43Z</time>
      </trkpt>
      <trkpt lat="42.8290020" lon="-8.6064720">
        <ele>141.6</ele>
        <time>2021-05-24T06:25:44Z</time>
      </trkpt>
      <trkpt lat="42.8290070" lon="-8.6064510">
        <ele>141.6</ele>
        <time>2021-05-24T06:25:45Z</time>
      </trkpt>
      <trkpt lat="42.8290130" lon="-8.6064230">
        <ele>141.5</ele>
        <time>2021-05-24T06:25:46Z</time>
      </trkpt>
      <trkpt lat="42.8290150" lon="-8.6064120">
        <ele>141.4</ele>
        <time>2021-05-24T06:25:47Z</time>
      </trkpt>
      <trkpt lat="42.8290170" lon="-8.6064000">
        <ele>141.4</ele>
        <time>2021-05-24T06:25:48Z</time>
      </trkpt>
      <trkpt lat="42.8290190" lon="-8.6063880">
        <ele>141.4</ele>
        <time>2021-05-24T06:25:49Z</time>
      </trkpt>
      <trkpt lat="42.8290210" lon="-8.6063770">
        <ele>141.3</ele>
        <time>2021-05-24T06:25:50Z</time>
      </trkpt>
      <trkpt lat="42.8290320" lon="-8.6063640">
        <ele>141.3</ele>
        <time>2021-05-24T06:25:51Z</time>
      </trkpt>
      <trkpt lat="42.8290430" lon="-8.6063440">
        <ele>141.2</ele>
        <time>2021-05-24T06:25:52Z</time>
      </trkpt>
      <trkpt lat="42.8290450" lon="-8.6063300">
        <ele>141.1</ele>
        <time>2021-05-24T06:25:53Z</time>
      </trkpt>
      <trkpt lat="42.8290480" lon="-8.6063170">
        <ele>141.1</ele>
        <time>2021-05-24T06:25:54Z</time>
      </trkpt>
      <trkpt lat="42.8290490" lon="-8.6063140">
        <ele>141.1</ele>
        <time>2021-05-24T06:25:55Z</time>
      </trkpt>
      <trkpt lat="42.8290520" lon="-8.6062950">
        <ele>141.0</ele>
        <time>2021-05-24T06:25:56Z</time>
      </trkpt>
      <trkpt lat="42.8290550" lon="-8.6062820">
        <ele>141.0</ele>
        <time>2021-05-24T06:25:57Z</time>
      </trkpt>
      <trkpt lat="42.8290630" lon="-8.6062570">
        <ele>140.9</ele>
        <time>2021-05-24T06:25:58Z</time>
      </trkpt>
      <trkpt lat="42.8290750" lon="-8.6062470">
        <ele>140.8</ele>
        <time>2021-05-24T06:25:59Z</time>
      </trkpt>
      <trkpt lat="42.8290810" lon="-8.6062380">
        <ele>140.7</ele>
        <time>2021-05-24T06:26:00Z</time>
      </trkpt>
      <trkpt lat="42.8290960" lon="-8.6062270">
        <ele>140.7</ele>
        <time>2021-05-24T06:26:01Z</time>
      </trkpt>
      <trkpt lat="42.8291030" lon="-8.6062220">
        <ele>140.6</ele>
        <time>2021-05-24T06:26:02Z</time>
      </trkpt>
      <trkpt lat="42.8291160" lon="-8.6062130">
        <ele>140.5</ele>
        <time>2021-05-24T06:26:03Z</time>
      </trkpt>
      <trkpt lat="42.8291300" lon="-8.6061990">
        <ele>140.4</ele>
        <time>2021-05-24T06:26:04Z</time>
      </trkpt>
      <trkpt lat="42.8291400" lon="-8.6061950">
        <ele>140.4</ele>
        <time>2021-05-24T06:26:05Z</time>
      </trkpt>
      <trkpt lat="42.8291480" lon="-8.6061830">
        <ele>140.3</ele>
        <time>2021-05-24T06:26:06Z</time>
      </trkpt>
      <trkpt lat="42.8291600" lon="-8.6061760">
        <ele>140.2</ele>
        <time>2021-05-24T06:26:07Z</time>
      </trkpt>
      <trkpt lat="42.8291750" lon="-8.6061640">
        <ele>140.1</ele>
        <time>2021-05-24T06:26:08Z</time>
      </trkpt>
      <trkpt lat="42.8291880" lon="-8.6061580">
        <ele>140.0</ele>
        <time>2021-05-24T06:26:09Z</time>
      </trkpt>
      <trkpt lat="42.8291970" lon="-8.6061530">
        <ele>140.0</ele>
        <time>2021-05-24T06:26:10Z</time>
      </trkpt>
      <trkpt lat="42.8292160" lon="-8.6061440">
        <ele>139.9</ele>
        <time>2021-05-24T06:26:11Z</time>
      </trkpt>
      <trkpt lat="42.8292290" lon="-8.6061380">
        <ele>139.9</ele>
        <time>2021-05-24T06:26:12Z</time>
      </trkpt>
      <trkpt lat="42.8292390" lon="-8.6061360">
        <ele>139.9</ele>
        <time>2021-05-24T06:26:13Z</time>
      </trkpt>
      <trkpt lat="42.8292470" lon="-8.6061320">
        <ele>139.9</ele>
        <time>2021-05-24T06:26:14Z</time>
      </trkpt>
      <trkpt lat="42.8292490" lon="-8.6061250">
        <ele>139.9</ele>
        <time>2021-05-24T06:26:15Z</time>
      </trkpt>
      <trkpt lat="42.8292540" lon="-8.6061110">
        <ele>139.9</ele>
        <time>2021-05-24T06:26:16Z</time>
      </trkpt>
      <trkpt lat="42.8292580" lon="-8.6060940">
        <ele>139.9</ele>
        <time>2021-05-24T06:26:17Z</time>
      </trkpt>
      <trkpt lat="42.8292750" lon="-8.6060730">
        <ele>139.8</ele>
        <time>2021-05-24T06:26:18Z</time>
      </trkpt>
      <trkpt lat="42.8292810" lon="-8.6060680">
        <ele>139.8</ele>
        <time>2021-05-24T06:26:19Z</time>
      </trkpt>
      <trkpt lat="42.8292880" lon="-8.6060620">
        <ele>139.8</ele>
        <time>2021-05-24T06:26:20Z</time>
      </trkpt>
      <trkpt lat="42.8292970" lon="-8.6060570">
        <ele>139.8</ele>
        <time>2021-05-24T06:26:21Z</time>
      </trkpt>
      <trkpt lat="42.8293080" lon="-8.6060500">
        <ele>139.8</ele>
        <time>2021-05-24T06:26:22Z</time>
      </trkpt>
      <trkpt lat="42.8293200" lon="-8.6060410">
        <ele>139.8</ele>
        <time>2021-05-24T06:26:23Z</time>
      </trkpt>
      <trkpt lat="42.8293240" lon="-8.6060360">
        <ele>139.8</ele>
        <time>2021-05-24T06:26:24Z</time>
      </trkpt>
      <trkpt lat="42.8293320" lon="-8.6060220">
        <ele>139.8</ele>
        <time>2021-05-24T06:26:25Z</time>
      </trkpt>
      <trkpt lat="42.8293390" lon="-8.6060100">
        <ele>139.8</ele>
        <time>2021-05-24T06:26:26Z</time>
      </trkpt>
      <trkpt lat="42.8293570" lon="-8.6059930">
        <ele>139.8</ele>
        <time>2021-05-24T06:26:27Z</time>
      </trkpt>
      <trkpt lat="42.8293660" lon="-8.6059850">
        <ele>139.8</ele>
        <time>2021-05-24T06:26:28Z</time>
      </trkpt>
      <trkpt lat="42.8293740" lon="-8.6059780">
        <ele>139.8</ele>
        <time>2021-05-24T06:26:29Z</time>
      </trkpt>
      <trkpt lat="42.8293900" lon="-8.6059590">
        <ele>139.8</ele>
        <time>2021-05-24T06:26:30Z</time>
      </trkpt>
      <trkpt lat="42.8293960" lon="-8.6059510">
        <ele>139.8</ele>
        <time>2021-05-24T06:26:31Z</time>
      </trkpt>
      <trkpt lat="42.8294020" lon="-8.6059440">
        <ele>139.8</ele>
        <time>2021-05-24T06:26:32Z</time>
      </trkpt>
      <trkpt lat="42.8294190" lon="-8.6059310">
        <ele>139.8</ele>
        <time>2021-05-24T06:26:33Z</time>
      </trkpt>
      <trkpt lat="42.8294260" lon="-8.6059260">
        <ele>139.8</ele>
        <time>2021-05-24T06:26:34Z</time>
      </trkpt>
      <trkpt lat="42.8294340" lon="-8.6059200">
        <ele>139.9</ele>
        <time>2021-05-24T06:26:35Z</time>
      </trkpt>
      <trkpt lat="42.8294430" lon="-8.6059130">
        <ele>139.9</ele>
        <time>2021-05-24T06:26:36Z</time>
      </trkpt>
      <trkpt lat="42.8294520" lon="-8.6059010">
        <ele>139.9</ele>
        <time>2021-05-24T06:26:37Z</time>
      </trkpt>
      <trkpt lat="42.8294630" lon="-8.6058930">
        <ele>139.9</ele>
        <time>2021-05-24T06:26:38Z</time>
      </trkpt>
      <trkpt lat="42.8294770" lon="-8.6058840">
        <ele>139.9</ele>
        <time>2021-05-24T06:26:39Z</time>
      </trkpt>
      <trkpt lat="42.8294920" lon="-8.6058750">
        <ele>139.9</ele>
        <time>2021-05-24T06:26:40Z</time>
      </trkpt>
      <trkpt lat="42.8295110" lon="-8.6058630">
        <ele>139.9</ele>
        <time>2021-05-24T06:26:41Z</time>
      </trkpt>
      <trkpt lat="42.8295200" lon="-8.6058590">
        <ele>139.9</ele>
        <time>2021-05-24T06:26:42Z</time>
      </trkpt>
      <trkpt lat="42.8295290" lon="-8.6058540">
        <ele>139.9</ele>
        <time>2021-05-24T06:26:43Z</time>
      </trkpt>
      <trkpt lat="42.8295500" lon="-8.6058500">
        <ele>140.0</ele>
        <time>2021-05-24T06:26:44Z</time>
      </trkpt>
      <trkpt lat="42.8295590" lon="-8.6058490">
        <ele>140.0</ele>
        <time>2021-05-24T06:26:45Z</time>
      </trkpt>
      <trkpt lat="42.8295670" lon="-8.6058490">
        <ele>140.0</ele>
        <time>2021-05-24T06:26:46Z</time>
      </trkpt>
      <trkpt lat="42.8295870" lon="-8.6058370">
        <ele>140.0</ele>
        <time>2021-05-24T06:26:47Z</time>
      </trkpt>
      <trkpt lat="42.8295940" lon="-8.6058320">
        <ele>140.0</ele>
        <time>2021-05-24T06:26:48Z</time>
      </trkpt>
      <trkpt lat="42.8296020" lon="-8.6058280">
        <ele>140.0</ele>
        <time>2021-05-24T06:26:49Z</time>
      </trkpt>
      <trkpt lat="42.8296210" lon="-8.6058140">
        <ele>140.0</ele>
        <time>2021-05-24T06:26:50Z</time>
      </trkpt>
      <trkpt lat="42.8296290" lon="-8.6058100">
        <ele>140.1</ele>
        <time>2021-05-24T06:26:51Z</time>
      </trkpt>
      <trkpt lat="42.8296360" lon="-8.6058050">
        <ele>140.1</ele>
        <time>2021-05-24T06:26:52Z</time>
      </trkpt>
      <trkpt lat="42.8296520" lon="-8.6057970">
        <ele>140.1</ele>
        <time>2021-05-24T06:26:53Z</time>
      </trkpt>
      <trkpt lat="42.8296640" lon="-8.6057970">
        <ele>140.1</ele>
        <time>2021-05-24T06:26:54Z</time>
      </trkpt>
      <trkpt lat="42.8296860" lon="-8.6057870">
        <ele>140.1</ele>
        <time>2021-05-24T06:26:55Z</time>
      </trkpt>
      <trkpt lat="42.8296940" lon="-8.6057860">
        <ele>140.2</ele>
        <time>2021-05-24T06:26:56Z</time>
      </trkpt>
      <trkpt lat="42.8297020" lon="-8.6057840">
        <ele>140.2</ele>
        <time>2021-05-24T06:26:57Z</time>
      </trkpt>
      <trkpt lat="42.8297160" lon="-8.6057790">
        <ele>140.2</ele>
        <time>2021-05-24T06:26:58Z</time>
      </trkpt>
      <trkpt lat="42.8297310" lon="-8.6057720">
        <ele>140.2</ele>
        <time>2021-05-24T06:26:59Z</time>
      </trkpt>
      <trkpt lat="42.8297530" lon="-8.6057680">
        <ele>140.3</ele>
        <time>2021-05-24T06:27:00Z</time>
      </trkpt>
      <trkpt lat="42.8297630" lon="-8.6057650">
        <ele>140.3</ele>
        <time>2021-05-24T06:27:01Z</time>
      </trkpt>
      <trkpt lat="42.8297740" lon="-8.6057610">
        <ele>140.3</ele>
        <time>2021-05-24T06:27:02Z</time>
      </trkpt>
      <trkpt lat="42.8297810" lon="-8.6057490">
        <ele>140.3</ele>
        <time>2021-05-24T06:27:03Z</time>
      </trkpt>
      <trkpt lat="42.8297940" lon="-8.6057420">
        <ele>140.4</ele>
        <time>2021-05-24T06:27:04Z</time>
      </trkpt>
      <trkpt lat="42.8298040" lon="-8.6057400">
        <ele>140.4</ele>
        <time>2021-05-24T06:27:05Z</time>
      </trkpt>
      <trkpt lat="42.8298200" lon="-8.6057370">
        <ele>140.4</ele>
        <time>2021-05-24T06:27:06Z</time>
      </trkpt>
      <trkpt lat="42.8298340" lon="-8.6057290">
        <ele>140.4</ele>
        <time>2021-05-24T06:27:07Z</time>
      </trkpt>
      <trkpt lat="42.8298540" lon="-8.6057280">
        <ele>140.5</ele>
        <time>2021-05-24T06:27:08Z</time>
      </trkpt>
      <trkpt lat="42.8298640" lon="-8.6057270">
        <ele>140.5</ele>
        <time>2021-05-24T06:27:09Z</time>
      </trkpt>
      <trkpt lat="42.8298780" lon="-8.6057230">
        <ele>140.5</ele>
        <time>2021-05-24T06:27:10Z</time>
      </trkpt>
      <trkpt lat="42.8298930" lon="-8.6057140">
        <ele>140.5</ele>
        <time>2021-05-24T06:27:11Z</time>
      </trkpt>
      <trkpt lat="42.8299070" lon="-8.6057120">
        <ele>140.6</ele>
        <time>2021-05-24T06:27:12Z</time>
      </trkpt>
      <trkpt lat="42.8299190" lon="-8.6057050">
        <ele>140.6</ele>
        <time>2021-05-24T06:27:13Z</time>
      </trkpt>
      <trkpt lat="42.8299400" lon="-8.6057020">
        <ele>140.6</ele>
        <time>2021-05-24T06:27:14Z</time>
      </trkpt>
      <trkpt lat="42.8299480" lon="-8.6057000">
        <ele>140.6</ele>
        <time>2021-05-24T06:27:15Z</time>
      </trkpt>
      <trkpt lat="42.8299560" lon="-8.6056990">
        <ele>140.7</ele>
        <time>2021-05-24T06:27:16Z</time>
      </trkpt>
      <trkpt lat="42.8299780" lon="-8.6056960">
        <ele>140.7</ele>
        <time>2021-05-24T06:27:17Z</time>
      </trkpt>
      <trkpt lat="42.8299890" lon="-8.6056970">
        <ele>140.7</ele>
        <time>2021-05-24T06:27:18Z</time>
      </trkpt>
      <trkpt lat="42.8299990" lon="-8.6056980">
        <ele>140.8</ele>
        <time>2021-05-24T06:27:19Z</time>
      </trkpt>
      <trkpt lat="42.8300130" lon="-8.6056910">
        <ele>140.8</ele>
        <time>2021-05-24T06:27:20Z</time>
      </trkpt>
      <trkpt lat="42.8300250" lon="-8.6056860">
        <ele>140.8</ele>
        <time>2021-05-24T06:27:21Z</time>
      </trkpt>
      <trkpt lat="42.8300460" lon="-8.6056780">
        <ele>140.8</ele>
        <time>2021-05-24T06:27:22Z</time>
      </trkpt>
      <trkpt lat="42.8300540" lon="-8.6056790">
        <ele>140.9</ele>
        <time>2021-05-24T06:27:23Z</time>
      </trkpt>
      <trkpt lat="42.8300620" lon="-8.6056790">
        <ele>140.9</ele>
        <time>2021-05-24T06:27:24Z</time>
      </trkpt>
      <trkpt lat="42.8300740" lon="-8.6056760">
        <ele>140.9</ele>
        <time>2021-05-24T06:27:25Z</time>
      </trkpt>
      <trkpt lat="42.8300880" lon="-8.6056710">
        <ele>140.9</ele>
        <time>2021-05-24T06:27:26Z</time>
      </trkpt>
      <trkpt lat="42.8301120" lon="-8.6056660">
        <ele>140.9</ele>
        <time>2021-05-24T06:27:27Z</time>
      </trkpt>
      <trkpt lat="42.8301210" lon="-8.6056660">
        <ele>141.0</ele>
        <time>2021-05-24T06:27:28Z</time>
      </trkpt>
      <trkpt lat="42.8301290" lon="-8.6056650">
        <ele>141.0</ele>
        <time>2021-05-24T06:27:29Z</time>
      </trkpt>
      <trkpt lat="42.8301520" lon="-8.6056640">
        <ele>141.0</ele>
        <time>2021-05-24T06:27:30Z</time>
      </trkpt>
      <trkpt lat="42.8301600" lon="-8.6056630">
        <ele>141.0</ele>
        <time>2021-05-24T06:27:31Z</time>
      </trkpt>
      <trkpt lat="42.8301690" lon="-8.6056610">
        <ele>141.0</ele>
        <time>2021-05-24T06:27:32Z</time>
      </trkpt>
      <trkpt lat="42.8301820" lon="-8.6056550">
        <ele>141.0</ele>
        <time>2021-05-24T06:27:33Z</time>
      </trkpt>
      <trkpt lat="42.8301980" lon="-8.6056480">
        <ele>141.1</ele>
        <time>2021-05-24T06:27:34Z</time>
      </trkpt>
      <trkpt lat="42.8302200" lon="-8.6056420">
        <ele>141.1</ele>
        <time>2021-05-24T06:27:35Z</time>
      </trkpt>
      <trkpt lat="42.8302280" lon="-8.6056410">
        <ele>141.1</ele>
        <time>2021-05-24T06:27:36Z</time>
      </trkpt>
      <trkpt lat="42.8302370" lon="-8.6056400">
        <ele>141.1</ele>
        <time>2021-05-24T06:27:37Z</time>
      </trkpt>
      <trkpt lat="42.8302600" lon="-8.6056330">
        <ele>141.2</ele>
        <time>2021-05-24T06:27:38Z</time>
      </trkpt>
      <trkpt lat="42.8302680" lon="-8.6056320">
        <ele>141.2</ele>
        <time>2021-05-24T06:27:39Z</time>
      </trkpt>
      <trkpt lat="42.8302770" lon="-8.6056310">
        <ele>141.2</ele>
        <time>2021-05-24T06:27:40Z</time>
      </trkpt>
      <trkpt lat="42.8302960" lon="-8.6056270">
        <ele>141.2</ele>
        <time>2021-05-24T06:27:41Z</time>
      </trkpt>
      <trkpt lat="42.8303100" lon="-8.6056270">
        <ele>141.2</ele>
        <time>2021-05-24T06:27:42Z</time>
      </trkpt>
      <trkpt lat="42.8303250" lon="-8.6056250">
        <ele>141.3</ele>
        <time>2021-05-24T06:27:43Z</time>
      </trkpt>
      <trkpt lat="42.8303410" lon="-8.6056220">
        <ele>141.3</ele>
        <time>2021-05-24T06:27:44Z</time>
      </trkpt>
      <trkpt lat="42.8303630" lon="-8.6056200">
        <ele>141.3</ele>
        <time>2021-05-24T06:27:45Z</time>
      </trkpt>
      <trkpt lat="42.8303740" lon="-8.6056200">
        <ele>141.3</ele>
        <time>2021-05-24T06:27:46Z</time>
      </trkpt>
      <trkpt lat="42.8303840" lon="-8.6056210">
        <ele>141.3</ele>
        <time>2021-05-24T06:27:47Z</time>
      </trkpt>
      <trkpt lat="42.8303940" lon="-8.6056090">
        <ele>141.4</ele>
        <time>2021-05-24T06:27:48Z</time>
      </trkpt>
      <trkpt lat="42.8304110" lon="-8.6056030">
        <ele>141.4</ele>
        <time>2021-05-24T06:27:49Z</time>
      </trkpt>
      <trkpt lat="42.8304280" lon="-8.6056050">
        <ele>141.4</ele>
        <time>2021-05-24T06:27:50Z</time>
      </trkpt>
      <trkpt lat="42.8304450" lon="-8.6055910">
        <ele>141.4</ele>
        <time>2021-05-24T06:27:51Z</time>
      </trkpt>
      <trkpt lat="42.8304530" lon="-8.6055800">
        <ele>141.5</ele>
        <time>2021-05-24T06:27:52Z</time>
      </trkpt>
      <trkpt lat="42.8304610" lon="-8.6055770">
        <ele>141.5</ele>
        <time>2021-05-24T06:27:53Z</time>
      </trkpt>
      <trkpt lat="42.8304650" lon="-8.6055780">
        <ele>141.5</ele>
        <time>2021-05-24T06:27:54Z</time>
      </trkpt>
      <trkpt lat="42.8304670" lon="-8.6055780">
        <ele>141.5</ele>
        <time>2021-05-24T06:27:55Z</time>
      </trkpt>
      <trkpt lat="42.8304750" lon="-8.6055750">
        <ele>141.5</ele>
        <time>2021-05-24T06:27:56Z</time>
      </trkpt>
      <trkpt lat="42.8304820" lon="-8.6055710">
        <ele>141.5</ele>
        <time>2021-05-24T06:27:57Z</time>
      </trkpt>
      <trkpt lat="42.8304910" lon="-8.6055680">
        <ele>141.5</ele>
        <time>2021-05-24T06:27:58Z</time>
      </trkpt>
      <trkpt lat="42.8305000" lon="-8.6055670">
        <ele>141.5</ele>
        <time>2021-05-24T06:27:59Z</time>
      </trkpt>
      <trkpt lat="42.8305010" lon="-8.6055640">
        <ele>141.5</ele>
        <time>2021-05-24T06:28:00Z</time>
      </trkpt>
      <trkpt lat="42.8305060" lon="-8.6055500">
        <ele>141.6</ele>
        <time>2021-05-24T06:28:01Z</time>
      </trkpt>
      <trkpt lat="42.8305120" lon="-8.6055470">
        <ele>141.6</ele>
        <time>2021-05-24T06:28:02Z</time>
      </trkpt>
      <trkpt lat="42.8305170" lon="-8.6055450">
        <ele>141.6</ele>
        <time>2021-05-24T06:28:03Z</time>
      </trkpt>
      <trkpt lat="42.8305230" lon="-8.6055430">
        <ele>141.6</ele>
        <time>2021-05-24T06:28:04Z</time>
      </trkpt>
      <trkpt lat="42.8305280" lon="-8.6055410">
        <ele>141.6</ele>
        <time>2021-05-24T06:28:05Z</time>
      </trkpt>
      <trkpt lat="42.8305340" lon="-8.6055380">
        <ele>141.6</ele>
        <time>2021-05-24T06:28:06Z</time>
      </trkpt>
      <trkpt lat="42.8305390" lon="-8.6055360">
        <ele>141.6</ele>
        <time>2021-05-24T06:28:07Z</time>
      </trkpt>
      <trkpt lat="42.8305490" lon="-8.6055390">
        <ele>141.6</ele>
        <time>2021-05-24T06:28:08Z</time>
      </trkpt>
      <trkpt lat="42.8305660" lon="-8.6055370">
        <ele>141.6</ele>
        <time>2021-05-24T06:28:09Z</time>
      </trkpt>
      <trkpt lat="42.8305810" lon="-8.6055390">
        <ele>141.7</ele>
        <time>2021-05-24T06:28:10Z</time>
      </trkpt>
      <trkpt lat="42.8305870" lon="-8.6055370">
        <ele>141.7</ele>
        <time>2021-05-24T06:28:11Z</time>
      </trkpt>
      <trkpt lat="42.8305980" lon="-8.6055360">
        <ele>141.7</ele>
        <time>2021-05-24T06:28:12Z</time>
      </trkpt>
      <trkpt lat="42.8306160" lon="-8.6055270">
        <ele>141.7</ele>
        <time>2021-05-24T06:28:13Z</time>
      </trkpt>
      <trkpt lat="42.8306270" lon="-8.6055270">
        <ele>141.7</ele>
        <time>2021-05-24T06:28:14Z</time>
      </trkpt>
      <trkpt lat="42.8306370" lon="-8.6055260">
        <ele>141.8</ele>
        <time>2021-05-24T06:28:15Z</time>
      </trkpt>
      <trkpt lat="42.8306520" lon="-8.6055230">
        <ele>141.8</ele>
        <time>2021-05-24T06:28:16Z</time>
      </trkpt>
      <trkpt lat="42.8306560" lon="-8.6055210">
        <ele>141.8</ele>
        <time>2021-05-24T06:28:17Z</time>
      </trkpt>
      <trkpt lat="42.8306640" lon="-8.6055170">
        <ele>141.8</ele>
        <time>2021-05-24T06:28:18Z</time>
      </trkpt>
      <trkpt lat="42.8306780" lon="-8.6055180">
        <ele>141.8</ele>
        <time>2021-05-24T06:28:19Z</time>
      </trkpt>
      <trkpt lat="42.8306930" lon="-8.6055150">
        <ele>141.8</ele>
        <time>2021-05-24T06:28:20Z</time>
      </trkpt>
      <trkpt lat="42.8307030" lon="-8.6055140">
        <ele>141.9</ele>
        <time>2021-05-24T06:28:21Z</time>
      </trkpt>
      <trkpt lat="42.8307120" lon="-8.6055140">
        <ele>141.9</ele>
        <time>2021-05-24T06:28:22Z</time>
      </trkpt>
      <trkpt lat="42.8307210" lon="-8.6055150">
        <ele>141.9</ele>
        <time>2021-05-24T06:28:23Z</time>
      </trkpt>
      <trkpt lat="42.8307350" lon="-8.6055170">
        <ele>141.9</ele>
        <time>2021-05-24T06:28:24Z</time>
      </trkpt>
      <trkpt lat="42.8307450" lon="-8.6055090">
        <ele>141.9</ele>
        <time>2021-05-24T06:28:25Z</time>
      </trkpt>
      <trkpt lat="42.8307550" lon="-8.6055060">
        <ele>142.0</ele>
        <time>2021-05-24T06:28:26Z</time>
      </trkpt>
      <trkpt lat="42.8307640" lon="-8.6055050">
        <ele>142.0</ele>
        <time>2021-05-24T06:28:27Z</time>
      </trkpt>
      <trkpt lat="42.8307740" lon="-8.6055040">
        <ele>142.0</ele>
        <time>2021-05-24T06:28:28Z</time>
      </trkpt>
      <trkpt lat="42.8307860" lon="-8.6055040">
        <ele>142.0</ele>
        <time>2021-05-24T06:28:29Z</time>
      </trkpt>
      <trkpt lat="42.8308060" lon="-8.6055010">
        <ele>142.1</ele>
        <time>2021-05-24T06:28:30Z</time>
      </trkpt>
      <trkpt lat="42.8308140" lon="-8.6054970">
        <ele>142.1</ele>
        <time>2021-05-24T06:28:31Z</time>
      </trkpt>
      <trkpt lat="42.8308220" lon="-8.6054940">
        <ele>142.1</ele>
        <time>2021-05-24T06:28:32Z</time>
      </trkpt>
      <trkpt lat="42.8308330" lon="-8.6054900">
        <ele>142.1</ele>
        <time>2021-05-24T06:28:33Z</time>
      </trkpt>
      <trkpt lat="42.8308450" lon="-8.6054880">
        <ele>142.1</ele>
        <time>2021-05-24T06:28:34Z</time>
      </trkpt>
      <trkpt lat="42.8308550" lon="-8.6054780">
        <ele>142.2</ele>
        <time>2021-05-24T06:28:35Z</time>
      </trkpt>
      <trkpt lat="42.8308740" lon="-8.6054630">
        <ele>142.2</ele>
        <time>2021-05-24T06:28:36Z</time>
      </trkpt>
      <trkpt lat="42.8308800" lon="-8.6054570">
        <ele>142.2</ele>
        <time>2021-05-24T06:28:37Z</time>
      </trkpt>
      <trkpt lat="42.8308850" lon="-8.6054500">
        <ele>142.3</ele>
        <time>2021-05-24T06:28:38Z</time>
      </trkpt>
      <trkpt lat="42.8308920" lon="-8.6054440">
        <ele>142.3</ele>
        <time>2021-05-24T06:28:39Z</time>
      </trkpt>
      <trkpt lat="42.8309010" lon="-8.6054310">
        <ele>142.3</ele>
        <time>2021-05-24T06:28:40Z</time>
      </trkpt>
      <trkpt lat="42.8309180" lon="-8.6054300">
        <ele>142.4</ele>
        <time>2021-05-24T06:28:41Z</time>
      </trkpt>
      <trkpt lat="42.8309270" lon="-8.6054270">
        <ele>142.4</ele>
        <time>2021-05-24T06:28:42Z</time>
      </trkpt>
      <trkpt lat="42.8309400" lon="-8.6054230">
        <ele>142.4</ele>
        <time>2021-05-24T06:28:43Z</time>
      </trkpt>
      <trkpt lat="42.8309530" lon="-8.6054160">
        <ele>142.5</ele>
        <time>2021-05-24T06:28:44Z</time>
      </trkpt>
      <trkpt lat="42.8309640" lon="-8.6054070">
        <ele>142.5</ele>
        <time>2021-05-24T06:28:45Z</time>
      </trkpt>
      <trkpt lat="42.8309750" lon="-8.6053940">
        <ele>142.5</ele>
        <time>2021-05-24T06:28:46Z</time>
      </trkpt>
      <trkpt lat="42.8309860" lon="-8.6053800">
        <ele>142.6</ele>
        <time>2021-05-24T06:28:47Z</time>
      </trkpt>
      <trkpt lat="42.8310030" lon="-8.6053650">
        <ele>142.6</ele>
        <time>2021-05-24T06:28:48Z</time>
      </trkpt>
      <trkpt lat="42.8310120" lon="-8.6053550">
        <ele>142.7</ele>
        <time>2021-05-24T06:28:49Z</time>
      </trkpt>
      <trkpt lat="42.8310180" lon="-8.6053430">
        <ele>142.7</ele>
        <time>2021-05-24T06:28:50Z</time>
      </trkpt>
      <trkpt lat="42.8310250" lon="-8.6053350">
        <ele>142.7</ele>
        <time>2021-05-24T06:28:51Z</time>
      </trkpt>
      <trkpt lat="42.8310360" lon="-8.6053280">
        <ele>142.8</ele>
        <time>2021-05-24T06:28:52Z</time>
      </trkpt>
      <trkpt lat="42.8310540" lon="-8.6053180">
        <ele>142.8</ele>
        <time>2021-05-24T06:28:53Z</time>
      </trkpt>
      <trkpt lat="42.8310700" lon="-8.6053020">
        <ele>142.9</ele>
        <time>2021-05-24T06:28:54Z</time>
      </trkpt>
      <trkpt lat="42.8310770" lon="-8.6052950">
        <ele>142.9</ele>
        <time>2021-05-24T06:28:55Z</time>
      </trkpt>
      <trkpt lat="42.8310840" lon="-8.6052890">
        <ele>142.9</ele>
        <time>2021-05-24T06:28:56Z</time>
      </trkpt>
      <trkpt lat="42.8310960" lon="-8.6052850">
        <ele>143.0</ele>
        <time>2021-05-24T06:28:57Z</time>
      </trkpt>
      <trkpt lat="42.8311080" lon="-8.6052710">
        <ele>143.0</ele>
        <time>2021-05-24T06:28:58Z</time>
      </trkpt>
      <trkpt lat="42.8311220" lon="-8.6052590">
        <ele>143.1</ele>
        <time>2021-05-24T06:28:59Z</time>
      </trkpt>
      <trkpt lat="42.8311360" lon="-8.6052520">
        <ele>143.1</ele>
        <time>2021-05-24T06:29:00Z</time>
      </trkpt>
      <trkpt lat="42.8311570" lon="-8.6052490">
        <ele>143.2</ele>
        <time>2021-05-24T06:29:01Z</time>
      </trkpt>
      <trkpt lat="42.8311630" lon="-8.6052290">
        <ele>143.2</ele>
        <time>2021-05-24T06:29:02Z</time>
      </trkpt>
      <trkpt lat="42.8311750" lon="-8.6052200">
        <ele>143.3</ele>
        <time>2021-05-24T06:29:03Z</time>
      </trkpt>
      <trkpt lat="42.8311790" lon="-8.6052180">
        <ele>143.3</ele>
        <time>2021-05-24T06:29:04Z</time>
      </trkpt>
      <trkpt lat="42.8311950" lon="-8.6052140">
        <ele>143.3</ele>
        <time>2021-05-24T06:29:05Z</time>
      </trkpt>
      <trkpt lat="42.8312050" lon="-8.6052100">
        <ele>143.3</ele>
        <time>2021-05-24T06:29:06Z</time>
      </trkpt>
      <trkpt lat="42.8312190" lon="-8.6052040">
        <ele>143.4</ele>
        <time>2021-05-24T06:29:07Z</time>
      </trkpt>
      <trkpt lat="42.8312290" lon="-8.6052050">
        <ele>143.4</ele>
        <time>2021-05-24T06:29:08Z</time>
      </trkpt>
      <trkpt lat="42.8312420" lon="-8.6051990">
        <ele>143.5</ele>
        <time>2021-05-24T06:29:09Z</time>
      </trkpt>
      <trkpt lat="42.8312550" lon="-8.6051930">
        <ele>143.5</ele>
        <time>2021-05-24T06:29:10Z</time>
      </trkpt>
      <trkpt lat="42.8312830" lon="-8.6051770">
        <ele>143.6</ele>
        <time>2021-05-24T06:29:11Z</time>
      </trkpt>
      <trkpt lat="42.8312850" lon="-8.6051740">
        <ele>143.6</ele>
        <time>2021-05-24T06:29:12Z</time>
      </trkpt>
      <trkpt lat="42.8313010" lon="-8.6051710">
        <ele>143.7</ele>
        <time>2021-05-24T06:29:13Z</time>
      </trkpt>
      <trkpt lat="42.8313190" lon="-8.6051690">
        <ele>143.7</ele>
        <time>2021-05-24T06:29:14Z</time>
      </trkpt>
      <trkpt lat="42.8313390" lon="-8.6051670">
        <ele>143.8</ele>
        <time>2021-05-24T06:29:15Z</time>
      </trkpt>
      <trkpt lat="42.8313510" lon="-8.6051640">
        <ele>143.8</ele>
        <time>2021-05-24T06:29:16Z</time>
      </trkpt>
      <trkpt lat="42.8313630" lon="-8.6051630">
        <ele>143.8</ele>
        <time>2021-05-24T06:29:17Z</time>
      </trkpt>
      <trkpt lat="42.8313790" lon="-8.6051450">
        <ele>143.9</ele>
        <time>2021-05-24T06:29:18Z</time>
      </trkpt>
      <trkpt lat="42.8313890" lon="-8.6051360">
        <ele>143.9</ele>
        <time>2021-05-24T06:29:19Z</time>
      </trkpt>
      <trkpt lat="42.8314070" lon="-8.6051270">
        <ele>144.0</ele>
        <time>2021-05-24T06:29:20Z</time>
      </trkpt>
      <trkpt lat="42.8314240" lon="-8.6051190">
        <ele>144.0</ele>
        <time>2021-05-24T06:29:21Z</time>
      </trkpt>
      <trkpt lat="42.8314330" lon="-8.6051150">
        <ele>144.0</ele>
        <time>2021-05-24T06:29:22Z</time>
      </trkpt>
      <trkpt lat="42.8314490" lon="-8.6051040">
        <ele>144.1</ele>
        <time>2021-05-24T06:29:23Z</time>
      </trkpt>
      <trkpt lat="42.8314620" lon="-8.6050950">
        <ele>144.1</ele>
        <time>2021-05-24T06:29:24Z</time>
      </trkpt>
      <trkpt lat="42.8314750" lon="-8.6050870">
        <ele>144.2</ele>
        <time>2021-05-24T06:29:25Z</time>
      </trkpt>
      <trkpt lat="42.8314880" lon="-8.6050730">
        <ele>144.2</ele>
        <time>2021-05-24T06:29:26Z</time>
      </trkpt>
      <trkpt lat="42.8314990" lon="-8.6050610">
        <ele>144.3</ele>
        <time>2021-05-24T06:29:27Z</time>
      </trkpt>
      <trkpt lat="42.8315050" lon="-8.6050510">
        <ele>144.3</ele>
        <time>2021-05-24T06:29:28Z</time>
      </trkpt>
      <trkpt lat="42.8315080" lon="-8.6050360">
        <ele>144.3</ele>
        <time>2021-05-24T06:29:29Z</time>
      </trkpt>
      <trkpt lat="42.8315200" lon="-8.6050120">
        <ele>144.4</ele>
        <time>2021-05-24T06:29:30Z</time>
      </trkpt>
      <trkpt lat="42.8315230" lon="-8.6050030">
        <ele>144.4</ele>
        <time>2021-05-24T06:29:31Z</time>
      </trkpt>
      <trkpt lat="42.8315270" lon="-8.6049930">
        <ele>144.4</ele>
        <time>2021-05-24T06:29:32Z</time>
      </trkpt>
      <trkpt lat="42.8315310" lon="-8.6049820">
        <ele>144.5</ele>
        <time>2021-05-24T06:29:33Z</time>
      </trkpt>
      <trkpt lat="42.8315370" lon="-8.6049710">
        <ele>144.5</ele>
        <time>2021-05-24T06:29:34Z</time>
      </trkpt>
      <trkpt lat="42.8315400" lon="-8.6049560">
        <ele>144.5</ele>
        <time>2021-05-24T06:29:35Z</time>
      </trkpt>
      <trkpt lat="42.8315490" lon="-8.6049500">
        <ele>144.5</ele>
        <time>2021-05-24T06:29:36Z</time>
      </trkpt>
      <trkpt lat="42.8315570" lon="-8.6049360">
        <ele>144.6</ele>
        <time>2021-05-24T06:29:37Z</time>
      </trkpt>
      <trkpt lat="42.8315620" lon="-8.6049250">
        <ele>144.6</ele>
        <time>2021-05-24T06:29:38Z</time>
      </trkpt>
      <trkpt lat="42.8315700" lon="-8.6049160">
        <ele>144.6</ele>
        <time>2021-05-24T06:29:39Z</time>
      </trkpt>
      <trkpt lat="42.8315780" lon="-8.6049050">
        <ele>144.7</ele>
        <time>2021-05-24T06:29:40Z</time>
      </trkpt>
      <trkpt lat="42.8315870" lon="-8.6048930">
        <ele>144.7</ele>
        <time>2021-05-24T06:29:41Z</time>
      </trkpt>
      <trkpt lat="42.8315960" lon="-8.6048750">
        <ele>144.7</ele>
        <time>2021-05-24T06:29:42Z</time>
      </trkpt>
      <trkpt lat="42.8316080" lon="-8.6048590">
        <ele>144.8</ele>
        <time>2021-05-24T06:29:43Z</time>
      </trkpt>
      <trkpt lat="42.8316140" lon="-8.6048420">
        <ele>144.8</ele>
        <time>2021-05-24T06:29:44Z</time>
      </trkpt>
      <trkpt lat="42.8316200" lon="-8.6048280">
        <ele>144.9</ele>
        <time>2021-05-24T06:29:45Z</time>
      </trkpt>
      <trkpt lat="42.8316260" lon="-8.6048190">
        <ele>144.9</ele>
        <time>2021-05-24T06:29:46Z</time>
      </trkpt>
      <trkpt lat="42.8316390" lon="-8.6047990">
        <ele>145.0</ele>
        <time>2021-05-24T06:29:47Z</time>
      </trkpt>
      <trkpt lat="42.8316460" lon="-8.6047890">
        <ele>145.0</ele>
        <time>2021-05-24T06:29:48Z</time>
      </trkpt>
      <trkpt lat="42.8316520" lon="-8.6047790">
        <ele>145.0</ele>
        <time>2021-05-24T06:29:49Z</time>
      </trkpt>
      <trkpt lat="42.8316630" lon="-8.6047530">
        <ele>145.1</ele>
        <time>2021-05-24T06:29:50Z</time>
      </trkpt>
      <trkpt lat="42.8316680" lon="-8.6047450">
        <ele>145.1</ele>
        <time>2021-05-24T06:29:51Z</time>
      </trkpt>
      <trkpt lat="42.8316720" lon="-8.6047370">
        <ele>145.1</ele>
        <time>2021-05-24T06:29:52Z</time>
      </trkpt>
      <trkpt lat="42.8316770" lon="-8.6047290">
        <ele>145.2</ele>
        <time>2021-05-24T06:29:53Z</time>
      </trkpt>
      <trkpt lat="42.8316780" lon="-8.6047170">
        <ele>145.2</ele>
        <time>2021-05-24T06:29:54Z</time>
      </trkpt>
      <trkpt lat="42.8316760" lon="-8.6047120">
        <ele>145.2</ele>
        <time>2021-05-24T06:29:55Z</time>
      </trkpt>
      <trkpt lat="42.8316740" lon="-8.6047070">
        <ele>145.2</ele>
        <time>2021-05-24T06:29:56Z</time>
      </trkpt>
      <trkpt lat="42.8316750" lon="-8.6047040">
        <ele>145.2</ele>
        <time>2021-05-24T06:29:57Z</time>
      </trkpt>
      <trkpt lat="42.8316780" lon="-8.6046940">
        <ele>145.2</ele>
        <time>2021-05-24T06:29:58Z</time>
      </trkpt>
      <trkpt lat="42.8316750" lon="-8.6046900">
        <ele>145.3</ele>
        <time>2021-05-24T06:29:59Z</time>
      </trkpt>
      <trkpt lat="42.8316690" lon="-8.6046710">
        <ele>145.3</ele>
        <time>2021-05-24T06:30:00Z</time>
      </trkpt>
      <trkpt lat="42.8316720" lon="-8.6046520">
        <ele>145.4</ele>
        <time>2021-05-24T06:30:01Z</time>
      </trkpt>
      <trkpt lat="42.8316700" lon="-8.6046430">
        <ele>145.4</ele>
        <time>2021-05-24T06:30:02Z</time>
      </trkpt>
      <trkpt lat="42.8316700" lon="-8.6046330">
        <ele>145.4</ele>
        <time>2021-05-24T06:30:03Z</time>
      </trkpt>
      <trkpt lat="42.8316720" lon="-8.6046260">
        <ele>145.4</ele>
        <time>2021-05-24T06:30:04Z</time>
      </trkpt>
      <trkpt lat="42.8316750" lon="-8.6046120">
        <ele>145.5</ele>
        <time>2021-05-24T06:30:05Z</time>
      </trkpt>
      <trkpt lat="42.8316780" lon="-8.6046100">
        <ele>145.5</ele>
        <time>2021-05-24T06:30:06Z</time>
      </trkpt>
      <trkpt lat="42.8316810" lon="-8.6046080">
        <ele>145.5</ele>
        <time>2021-05-24T06:30:07Z</time>
      </trkpt>
      <trkpt lat="42.8316850" lon="-8.6045990">
        <ele>145.5</ele>
        <time>2021-05-24T06:30:08Z</time>
      </trkpt>
      <trkpt lat="42.8316870" lon="-8.6045920">
        <ele>145.5</ele>
        <time>2021-05-24T06:30:09Z</time>
      </trkpt>
      <trkpt lat="42.8316870" lon="-8.6045890">
        <ele>145.5</ele>
        <time>2021-05-24T06:30:10Z</time>
      </trkpt>
      <trkpt lat="42.8316880" lon="-8.6045910">
        <ele>145.5</ele>
        <time>2021-05-24T06:30:11Z</time>
      </trkpt>
      <trkpt lat="42.8316880" lon="-8.6045900">
        <ele>145.5</ele>
        <time>2021-05-24T06:30:12Z</time>
      </trkpt>
      <trkpt lat="42.8316900" lon="-8.6045930">
        <ele>145.5</ele>
        <time>2021-05-24T06:30:13Z</time>
      </trkpt>
      <trkpt lat="42.8316890" lon="-8.6045950">
        <ele>145.6</ele>
        <time>2021-05-24T06:30:14Z</time>
      </trkpt>
      <trkpt lat="42.8316920" lon="-8.6045920">
        <ele>145.6</ele>
        <time>2021-05-24T06:30:15Z</time>
      </trkpt>
      <trkpt lat="42.8317070" lon="-8.6045890">
        <ele>145.6</ele>
        <time>2021-05-24T06:30:16Z</time>
      </trkpt>
      <trkpt lat="42.8317070" lon="-8.6045890">
        <ele>145.6</ele>
        <time>2021-05-24T06:30:17Z</time>
      </trkpt>
      <trkpt lat="42.8317090" lon="-8.6045890">
        <ele>145.6</ele>
        <time>2021-05-24T06:30:18Z</time>
      </trkpt>
      <trkpt lat="42.8317190" lon="-8.6045840">
        <ele>145.7</ele>
        <time>2021-05-24T06:30:19Z</time>
      </trkpt>
      <trkpt lat="42.8317190" lon="-8.6045840">
        <ele>145.7</ele>
        <time>2021-05-24T06:30:20Z</time>
      </trkpt>
      <trkpt lat="42.8317330" lon="-8.6045850">
        <ele>145.7</ele>
        <time>2021-05-24T06:30:21Z</time>
      </trkpt>
      <trkpt lat="42.8317330" lon="-8.6045850">
        <ele>145.7</ele>
        <time>2021-05-24T06:30:22Z</time>
      </trkpt>
      <trkpt lat="42.8317390" lon="-8.6045930">
        <ele>145.7</ele>
        <time>2021-05-24T06:30:23Z</time>
      </trkpt>
      <trkpt lat="42.8317360" lon="-8.6045970">
        <ele>145.7</ele>
        <time>2021-05-24T06:30:24Z</time>
      </trkpt>
      <trkpt lat="42.8317360" lon="-8.6045990">
        <ele>145.7</ele>
        <time>2021-05-24T06:30:25Z</time>
      </trkpt>
      <trkpt lat="42.8317340" lon="-8.6046020">
        <ele>145.7</ele>
        <time>2021-05-24T06:30:26Z</time>
      </trkpt>
      <trkpt lat="42.8317320" lon="-8.6046030">
        <ele>145.7</ele>
        <time>2021-05-24T06:30:27Z</time>
      </trkpt>
      <trkpt lat="42.8317270" lon="-8.6046010">
        <ele>145.8</ele>
        <time>2021-05-24T06:30:28Z</time>
      </trkpt>
      <trkpt lat="42.8317250" lon="-8.6046000">
        <ele>145.8</ele>
        <time>2021-05-24T06:30:29Z</time>
      </trkpt>
      <trkpt lat="42.8317230" lon="-8.6045970">
        <ele>145.8</ele>
        <time>2021-05-24T06:30:30Z</time>
      </trkpt>
      <trkpt lat="42.8317200" lon="-8.6045880">
        <ele>145.8</ele>
        <time>2021-05-24T06:30:31Z</time>
      </trkpt>
      <trkpt lat="42.8317310" lon="-8.6045770">
        <ele>145.8</ele>
        <time>2021-05-24T06:30:32Z</time>
      </trkpt>
      <trkpt lat="42.8317350" lon="-8.6045700">
        <ele>145.9</ele>
        <time>2021-05-24T06:30:33Z</time>
      </trkpt>
      <trkpt lat="42.8317320" lon="-8.6045710">
        <ele>145.9</ele>
        <time>2021-05-24T06:30:34Z</time>
      </trkpt>
      <trkpt lat="42.8317410" lon="-8.6045640">
        <ele>145.9</ele>
        <time>2021-05-24T06:30:35Z</time>
      </trkpt>
      <trkpt lat="42.8317580" lon="-8.6045500">
        <ele>145.9</ele>
        <time>2021-05-24T06:30:36Z</time>
      </trkpt>
      <trkpt lat="42.8317680" lon="-8.6045280">
        <ele>146.0</ele>
        <time>2021-05-24T06:30:37Z</time>
      </trkpt>
      <trkpt lat="42.8317750" lon="-8.6045190">
        <ele>146.0</ele>
        <time>2021-05-24T06:30:38Z</time>
      </trkpt>
      <trkpt lat="42.8317810" lon="-8.6045110">
        <ele>146.1</ele>
        <time>2021-05-24T06:30:39Z</time>
      </trkpt>
      <trkpt lat="42.8317840" lon="-8.6045080">
        <ele>146.1</ele>
        <time>2021-05-24T06:30:40Z</time>
      </trkpt>
      <trkpt lat="42.8317880" lon="-8.6045060">
        <ele>146.1</ele>
        <time>2021-05-24T06:30:41Z</time>
      </trkpt>
      <trkpt lat="42.8317930" lon="-8.6044990">
        <ele>146.1</ele>
        <time>2021-05-24T06:30:42Z</time>
      </trkpt>
      <trkpt lat="42.8318110" lon="-8.6044830">
        <ele>146.2</ele>
        <time>2021-05-24T06:30:43Z</time>
      </trkpt>
      <trkpt lat="42.8318170" lon="-8.6044640">
        <ele>146.2</ele>
        <time>2021-05-24T06:30:44Z</time>
      </trkpt>
      <trkpt lat="42.8318200" lon="-8.6044490">
        <ele>146.2</ele>
        <time>2021-05-24T06:30:45Z</time>
      </trkpt>
      <trkpt lat="42.8318250" lon="-8.6044390">
        <ele>146.3</ele>
        <time>2021-05-24T06:30:46Z</time>
      </trkpt>
      <trkpt lat="42.8318280" lon="-8.6044300">
        <ele>146.3</ele>
        <time>2021-05-24T06:30:47Z</time>
      </trkpt>
      <trkpt lat="42.8318350" lon="-8.6044140">
        <ele>146.3</ele>
        <time>2021-05-24T06:30:48Z</time>
      </trkpt>
      <trkpt lat="42.8318440" lon="-8.6043980">
        <ele>146.4</ele>
        <time>2021-05-24T06:30:49Z</time>
      </trkpt>
      <trkpt lat="42.8318560" lon="-8.6043780">
        <ele>146.4</ele>
        <time>2021-05-24T06:30:50Z</time>
      </trkpt>
      <trkpt lat="42.8318630" lon="-8.6043680">
        <ele>146.5</ele>
        <time>2021-05-24T06:30:51Z</time>
      </trkpt>
      <trkpt lat="42.8318710" lon="-8.6043590">
        <ele>146.5</ele>
        <time>2021-05-24T06:30:52Z</time>
      </trkpt>
      <trkpt lat="42.8318790" lon="-8.6043450">
        <ele>146.5</ele>
        <time>2021-05-24T06:30:53Z</time>
      </trkpt>
      <trkpt lat="42.8318820" lon="-8.6043350">
        <ele>146.6</ele>
        <time>2021-05-24T06:30:54Z</time>
      </trkpt>
      <trkpt lat="42.8318860" lon="-8.6043240">
        <ele>146.6</ele>
        <time>2021-05-24T06:30:55Z</time>
      </trkpt>
      <trkpt lat="42.8318890" lon="-8.6043140">
        <ele>146.6</ele>
        <time>2021-05-24T06:30:56Z</time>
      </trkpt>
      <trkpt lat="42.8318960" lon="-8.6042980">
        <ele>146.6</ele>
        <time>2021-05-24T06:30:57Z</time>
      </trkpt>
      <trkpt lat="42.8319010" lon="-8.6042850">
        <ele>146.7</ele>
        <time>2021-05-24T06:30:58Z</time>
      </trkpt>
      <trkpt lat="42.8319070" lon="-8.6042730">
        <ele>146.7</ele>
        <time>2021-05-24T06:30:59Z</time>
      </trkpt>
      <trkpt lat="42.8319210" lon="-8.6042500">
        <ele>146.8</ele>
        <time>2021-05-24T06:31:00Z</time>
      </trkpt>
      <trkpt lat="42.8319270" lon="-8.6042400">
        <ele>146.8</ele>
        <time>2021-05-24T06:31:01Z</time>
      </trkpt>
      <trkpt lat="42.8319320" lon="-8.6042290">
        <ele>146.8</ele>
        <time>2021-05-24T06:31:02Z</time>
      </trkpt>
      <trkpt lat="42.8319440" lon="-8.6041990">
        <ele>146.9</ele>
        <time>2021-05-24T06:31:03Z</time>
      </trkpt>
      <trkpt lat="42.8319440" lon="-8.6041890">
        <ele>146.9</ele>
        <time>2021-05-24T06:31:04Z</time>
      </trkpt>
      <trkpt lat="42.8319450" lon="-8.6041800">
        <ele>146.9</ele>
        <time>2021-05-24T06:31:05Z</time>
      </trkpt>
      <trkpt lat="42.8319460" lon="-8.6041700">
        <ele>147.0</ele>
        <time>2021-05-24T06:31:06Z</time>
      </trkpt>
      <trkpt lat="42.8319510" lon="-8.6041580">
        <ele>147.0</ele>
        <time>2021-05-24T06:31:07Z</time>
      </trkpt>
      <trkpt lat="42.8319610" lon="-8.6041510">
        <ele>147.0</ele>
        <time>2021-05-24T06:31:08Z</time>
      </trkpt>
      <trkpt lat="42.8319660" lon="-8.6041410">
        <ele>147.1</ele>
        <time>2021-05-24T06:31:09Z</time>
      </trkpt>
      <trkpt lat="42.8319760" lon="-8.6041120">
        <ele>147.1</ele>
        <time>2021-05-24T06:31:10Z</time>
      </trkpt>
      <trkpt lat="42.8319770" lon="-8.6041020">
        <ele>147.2</ele>
        <time>2021-05-24T06:31:11Z</time>
      </trkpt>
      <trkpt lat="42.8319770" lon="-8.6040930">
        <ele>147.2</ele>
        <time>2021-05-24T06:31:12Z</time>
      </trkpt>
      <trkpt lat="42.8319910" lon="-8.6040700">
        <ele>147.2</ele>
        <time>2021-05-24T06:31:13Z</time>
      </trkpt>
      <trkpt lat="42.8320010" lon="-8.6040570">
        <ele>147.3</ele>
        <time>2021-05-24T06:31:14Z</time>
      </trkpt>
      <trkpt lat="42.8320110" lon="-8.6040460">
        <ele>147.3</ele>
        <time>2021-05-24T06:31:15Z</time>
      </trkpt>
      <trkpt lat="42.8320190" lon="-8.6040380">
        <ele>147.3</ele>
        <time>2021-05-24T06:31:16Z</time>
      </trkpt>
      <trkpt lat="42.8320260" lon="-8.6040270">
        <ele>147.4</ele>
        <time>2021-05-24T06:31:17Z</time>
      </trkpt>
      <trkpt lat="42.8320480" lon="-8.6040020">
        <ele>147.5</ele>
        <time>2021-05-24T06:31:18Z</time>
      </trkpt>
      <trkpt lat="42.8320560" lon="-8.6039920">
        <ele>147.5</ele>
        <time>2021-05-24T06:31:19Z</time>
      </trkpt>
      <trkpt lat="42.8320680" lon="-8.6039720">
        <ele>147.6</ele>
        <time>2021-05-24T06:31:20Z</time>
      </trkpt>
      <trkpt lat="42.8320730" lon="-8.6039580">
        <ele>147.6</ele>
        <time>2021-05-24T06:31:21Z</time>
      </trkpt>
      <trkpt lat="42.8320890" lon="-8.6039410">
        <ele>147.7</ele>
        <time>2021-05-24T06:31:22Z</time>
      </trkpt>
      <trkpt lat="42.8320950" lon="-8.6039260">
        <ele>147.7</ele>
        <time>2021-05-24T06:31:23Z</time>
      </trkpt>
      <trkpt lat="42.8321030" lon="-8.6039260">
        <ele>147.8</ele>
        <time>2021-05-24T06:31:24Z</time>
      </trkpt>
      <trkpt lat="42.8321110" lon="-8.6039140">
        <ele>147.8</ele>
        <time>2021-05-24T06:31:25Z</time>
      </trkpt>
      <trkpt lat="42.8321210" lon="-8.6039000">
        <ele>147.9</ele>
        <time>2021-05-24T06:31:26Z</time>
      </trkpt>
      <trkpt lat="42.8321300" lon="-8.6038890">
        <ele>147.9</ele>
        <time>2021-05-24T06:31:27Z</time>
      </trkpt>
      <trkpt lat="42.8321400" lon="-8.6038830">
        <ele>148.0</ele>
        <time>2021-05-24T06:31:28Z</time>
      </trkpt>
      <trkpt lat="42.8321400" lon="-8.6038720">
        <ele>148.0</ele>
        <time>2021-05-24T06:31:29Z</time>
      </trkpt>
      <trkpt lat="42.8321490" lon="-8.6038660">
        <ele>148.1</ele>
        <time>2021-05-24T06:31:30Z</time>
      </trkpt>
      <trkpt lat="42.8321550" lon="-8.6038570">
        <ele>148.1</ele>
        <time>2021-05-24T06:31:31Z</time>
      </trkpt>
      <trkpt lat="42.8321630" lon="-8.6038480">
        <ele>148.2</ele>
        <time>2021-05-24T06:31:32Z</time>
      </trkpt>
      <trkpt lat="42.8321680" lon="-8.6038460">
        <ele>148.2</ele>
        <time>2021-05-24T06:31:33Z</time>
      </trkpt>
      <trkpt lat="42.8321750" lon="-8.6038390">
        <ele>148.2</ele>
        <time>2021-05-24T06:31:34Z</time>
      </trkpt>
      <trkpt lat="42.8321850" lon="-8.6038250">
        <ele>148.3</ele>
        <time>2021-05-24T06:31:35Z</time>
      </trkpt>
      <trkpt lat="42.8321940" lon="-8.6038230">
        <ele>148.4</ele>
        <time>2021-05-24T06:31:36Z</time>
      </trkpt>
      <trkpt lat="42.8322040" lon="-8.6038070">
        <ele>148.4</ele>
        <time>2021-05-24T06:31:37Z</time>
      </trkpt>
      <trkpt lat="42.8322070" lon="-8.6037940">
        <ele>148.5</ele>
        <time>2021-05-24T06:31:38Z</time>
      </trkpt>
      <trkpt lat="42.8322120" lon="-8.6037800">
        <ele>148.6</ele>
        <time>2021-05-24T06:31:39Z</time>
      </trkpt>
      <trkpt lat="42.8322210" lon="-8.6037650">
        <ele>148.6</ele>
        <time>2021-05-24T06:31:40Z</time>
      </trkpt>
      <trkpt lat="42.8322270" lon="-8.6037540">
        <ele>148.7</ele>
        <time>2021-05-24T06:31:41Z</time>
      </trkpt>
      <trkpt lat="42.8322220" lon="-8.6037480">
        <ele>148.7</ele>
        <time>2021-05-24T06:31:42Z</time>
      </trkpt>
      <trkpt lat="42.8322300" lon="-8.6037310">
        <ele>148.8</ele>
        <time>2021-05-24T06:31:43Z</time>
      </trkpt>
      <trkpt lat="42.8322400" lon="-8.6037240">
        <ele>148.9</ele>
        <time>2021-05-24T06:31:44Z</time>
      </trkpt>
      <trkpt lat="42.8322450" lon="-8.6037210">
        <ele>148.9</ele>
        <time>2021-05-24T06:31:45Z</time>
      </trkpt>
      <trkpt lat="42.8322570" lon="-8.6037120">
        <ele>149.0</ele>
        <time>2021-05-24T06:31:46Z</time>
      </trkpt>
      <trkpt lat="42.8322630" lon="-8.6037060">
        <ele>149.0</ele>
        <time>2021-05-24T06:31:47Z</time>
      </trkpt>
      <trkpt lat="42.8322710" lon="-8.6036900">
        <ele>149.1</ele>
        <time>2021-05-24T06:31:48Z</time>
      </trkpt>
      <trkpt lat="42.8322810" lon="-8.6036800">
        <ele>149.2</ele>
        <time>2021-05-24T06:31:49Z</time>
      </trkpt>
      <trkpt lat="42.8322770" lon="-8.6036700">
        <ele>149.2</ele>
        <time>2021-05-24T06:31:50Z</time>
      </trkpt>
      <trkpt lat="42.8322880" lon="-8.6036460">
        <ele>149.3</ele>
        <time>2021-05-24T06:31:51Z</time>
      </trkpt>
      <trkpt lat="42.8322880" lon="-8.6036330">
        <ele>149.4</ele>
        <time>2021-05-24T06:31:52Z</time>
      </trkpt>
      <trkpt lat="42.8322870" lon="-8.6036210">
        <ele>149.4</ele>
        <time>2021-05-24T06:31:53Z</time>
      </trkpt>
      <trkpt lat="42.8322900" lon="-8.6036060">
        <ele>149.5</ele>
        <time>2021-05-24T06:31:54Z</time>
      </trkpt>
      <trkpt lat="42.8322960" lon="-8.6035960">
        <ele>149.6</ele>
        <time>2021-05-24T06:31:55Z</time>
      </trkpt>
      <trkpt lat="42.8323020" lon="-8.6035880">
        <ele>149.6</ele>
        <time>2021-05-24T06:31:56Z</time>
      </trkpt>
      <trkpt lat="42.8323070" lon="-8.6035790">
        <ele>149.6</ele>
        <time>2021-05-24T06:31:57Z</time>
      </trkpt>
      <trkpt lat="42.8323130" lon="-8.6035710">
        <ele>149.7</ele>
        <time>2021-05-24T06:31:58Z</time>
      </trkpt>
      <trkpt lat="42.8323190" lon="-8.6035630">
        <ele>149.7</ele>
        <time>2021-05-24T06:31:59Z</time>
      </trkpt>
      <trkpt lat="42.8323210" lon="-8.6035550">
        <ele>149.8</ele>
        <time>2021-05-24T06:32:00Z</time>
      </trkpt>
      <trkpt lat="42.8323280" lon="-8.6035490">
        <ele>149.8</ele>
        <time>2021-05-24T06:32:01Z</time>
      </trkpt>
      <trkpt lat="42.8323340" lon="-8.6035390">
        <ele>149.9</ele>
        <time>2021-05-24T06:32:02Z</time>
      </trkpt>
      <trkpt lat="42.8323390" lon="-8.6035250">
        <ele>149.9</ele>
        <time>2021-05-24T06:32:03Z</time>
      </trkpt>
      <trkpt lat="42.8323480" lon="-8.6035170">
        <ele>150.0</ele>
        <time>2021-05-24T06:32:04Z</time>
      </trkpt>
      <trkpt lat="42.8323630" lon="-8.6035060">
        <ele>150.1</ele>
        <time>2021-05-24T06:32:05Z</time>
      </trkpt>
      <trkpt lat="42.8323740" lon="-8.6034840">
        <ele>150.2</ele>
        <time>2021-05-24T06:32:06Z</time>
      </trkpt>
      <trkpt lat="42.8323800" lon="-8.6034720">
        <ele>150.3</ele>
        <time>2021-05-24T06:32:07Z</time>
      </trkpt>
      <trkpt lat="42.8323870" lon="-8.6034590">
        <ele>150.3</ele>
        <time>2021-05-24T06:32:08Z</time>
      </trkpt>
      <trkpt lat="42.8324050" lon="-8.6034460">
        <ele>150.4</ele>
        <time>2021-05-24T06:32:09Z</time>
      </trkpt>
      <trkpt lat="42.8324140" lon="-8.6034340">
        <ele>150.5</ele>
        <time>2021-05-24T06:32:10Z</time>
      </trkpt>
      <trkpt lat="42.8324200" lon="-8.6034130">
        <ele>150.6</ele>
        <time>2021-05-24T06:32:11Z</time>
      </trkpt>
      <trkpt lat="42.8324220" lon="-8.6034070">
        <ele>150.6</ele>
        <time>2021-05-24T06:32:12Z</time>
      </trkpt>
      <trkpt lat="42.8324250" lon="-8.6034000">
        <ele>150.7</ele>
        <time>2021-05-24T06:32:13Z</time>
      </trkpt>
      <trkpt lat="42.8324270" lon="-8.6033940">
        <ele>150.7</ele>
        <time>2021-05-24T06:32:14Z</time>
      </trkpt>
      <trkpt lat="42.8324290" lon="-8.6033880">
        <ele>150.7</ele>
        <time>2021-05-24T06:32:15Z</time>
      </trkpt>
      <trkpt lat="42.8324440" lon="-8.6033620">
        <ele>150.8</ele>
        <time>2021-05-24T06:32:16Z</time>
      </trkpt>
      <trkpt lat="42.8324410" lon="-8.6033530">
        <ele>150.9</ele>
        <time>2021-05-24T06:32:17Z</time>
      </trkpt>
      <trkpt lat="42.8324520" lon="-8.6033350">
        <ele>151.0</ele>
        <time>2021-05-24T06:32:18Z</time>
      </trkpt>
      <trkpt lat="42.8324610" lon="-8.6033240">
        <ele>151.1</ele>
        <time>2021-05-24T06:32:19Z</time>
      </trkpt>
      <trkpt lat="42.8324700" lon="-8.6033140">
        <ele>151.1</ele>
        <time>2021-05-24T06:32:20Z</time>
      </trkpt>
      <trkpt lat="42.8324770" lon="-8.6032930">
        <ele>151.2</ele>
        <time>2021-05-24T06:32:21Z</time>
      </trkpt>
      <trkpt lat="42.8324810" lon="-8.6032760">
        <ele>151.3</ele>
        <time>2021-05-24T06:32:22Z</time>
      </trkpt>
      <trkpt lat="42.8324950" lon="-8.6032560">
        <ele>151.4</ele>
        <time>2021-05-24T06:32:23Z</time>
      </trkpt>
      <trkpt lat="42.8325000" lon="-8.6032470">
        <ele>151.5</ele>
        <time>2021-05-24T06:32:24Z</time>
      </trkpt>
      <trkpt lat="42.8325060" lon="-8.6032380">
        <ele>151.5</ele>
        <time>2021-05-24T06:32:25Z</time>
      </trkpt>
      <trkpt lat="42.8325180" lon="-8.6032260">
        <ele>151.6</ele>
        <time>2021-05-24T06:32:26Z</time>
      </trkpt>
      <trkpt lat="42.8325230" lon="-8.6032080">
        <ele>151.7</ele>
        <time>2021-05-24T06:32:27Z</time>
      </trkpt>
      <trkpt lat="42.8325280" lon="-8.6031970">
        <ele>151.7</ele>
        <time>2021-05-24T06:32:28Z</time>
      </trkpt>
      <trkpt lat="42.8325330" lon="-8.6031870">
        <ele>151.8</ele>
        <time>2021-05-24T06:32:29Z</time>
      </trkpt>
      <trkpt lat="42.8325430" lon="-8.6031710">
        <ele>151.9</ele>
        <time>2021-05-24T06:32:30Z</time>
      </trkpt>
      <trkpt lat="42.8325570" lon="-8.6031350">
        <ele>152.1</ele>
        <time>2021-05-24T06:32:31Z</time>
      </trkpt>
      <trkpt lat="42.8325610" lon="-8.6031270">
        <ele>152.1</ele>
        <time>2021-05-24T06:32:32Z</time>
      </trkpt>
      <trkpt lat="42.8325680" lon="-8.6031110">
        <ele>152.2</ele>
        <time>2021-05-24T06:32:33Z</time>
      </trkpt>
      <trkpt lat="42.8325760" lon="-8.6030860">
        <ele>152.4</ele>
        <time>2021-05-24T06:32:34Z</time>
      </trkpt>
      <trkpt lat="42.8325790" lon="-8.6030720">
        <ele>152.4</ele>
        <time>2021-05-24T06:32:35Z</time>
      </trkpt>
      <trkpt lat="42.8325880" lon="-8.6030530">
        <ele>152.6</ele>
        <time>2021-05-24T06:32:36Z</time>
      </trkpt>
      <trkpt lat="42.8326020" lon="-8.6030360">
        <ele>152.7</ele>
        <time>2021-05-24T06:32:37Z</time>
      </trkpt>
      <trkpt lat="42.8326120" lon="-8.6030260">
        <ele>152.8</ele>
        <time>2021-05-24T06:32:38Z</time>
      </trkpt>
      <trkpt lat="42.8326210" lon="-8.6030170">
        <ele>152.8</ele>
        <time>2021-05-24T06:32:39Z</time>
      </trkpt>
      <trkpt lat="42.8326270" lon="-8.6030090">
        <ele>152.9</ele>
        <time>2021-05-24T06:32:40Z</time>
      </trkpt>
      <trkpt lat="42.8326310" lon="-8.6030070">
        <ele>152.9</ele>
        <time>2021-05-24T06:32:41Z</time>
      </trkpt>
      <trkpt lat="42.8326350" lon="-8.6029950">
        <ele>153.0</ele>
        <time>2021-05-24T06:32:42Z</time>
      </trkpt>
      <trkpt lat="42.8326390" lon="-8.6029830">
        <ele>153.1</ele>
        <time>2021-05-24T06:32:43Z</time>
      </trkpt>
      <trkpt lat="42.8326600" lon="-8.6029630">
        <ele>153.2</ele>
        <time>2021-05-24T06:32:44Z</time>
      </trkpt>
      <trkpt lat="42.8326680" lon="-8.6029520">
        <ele>153.3</ele>
        <time>2021-05-24T06:32:45Z</time>
      </trkpt>
      <trkpt lat="42.8326840" lon="-8.6029430">
        <ele>153.4</ele>
        <time>2021-05-24T06:32:46Z</time>
      </trkpt>
      <trkpt lat="42.8326910" lon="-8.6029490">
        <ele>153.5</ele>
        <time>2021-05-24T06:32:47Z</time>
      </trkpt>
      <trkpt lat="42.8327010" lon="-8.6029480">
        <ele>153.6</ele>
        <time>2021-05-24T06:32:48Z</time>
      </trkpt>
      <trkpt lat="42.8327100" lon="-8.6029480">
        <ele>153.6</ele>
        <time>2021-05-24T06:32:49Z</time>
      </trkpt>
      <trkpt lat="42.8327190" lon="-8.6029430">
        <ele>153.7</ele>
        <time>2021-05-24T06:32:50Z</time>
      </trkpt>
      <trkpt lat="42.8327300" lon="-8.6029370">
        <ele>153.8</ele>
        <time>2021-05-24T06:32:51Z</time>
      </trkpt>
      <trkpt lat="42.8327540" lon="-8.6029120">
        <ele>154.0</ele>
        <time>2021-05-24T06:32:52Z</time>
      </trkpt>
      <trkpt lat="42.8327580" lon="-8.6029020">
        <ele>154.0</ele>
        <time>2021-05-24T06:32:53Z</time>
      </trkpt>
      <trkpt lat="42.8327660" lon="-8.6028900">
        <ele>154.1</ele>
        <time>2021-05-24T06:32:54Z</time>
      </trkpt>
      <trkpt lat="42.8327700" lon="-8.6028790">
        <ele>154.2</ele>
        <time>2021-05-24T06:32:55Z</time>
      </trkpt>
      <trkpt lat="42.8327720" lon="-8.6028750">
        <ele>154.2</ele>
        <time>2021-05-24T06:32:56Z</time>
      </trkpt>
      <trkpt lat="42.8327750" lon="-8.6028730">
        <ele>154.2</ele>
        <time>2021-05-24T06:32:57Z</time>
      </trkpt>
      <trkpt lat="42.8327820" lon="-8.6028640">
        <ele>154.3</ele>
        <time>2021-05-24T06:32:58Z</time>
      </trkpt>
      <trkpt lat="42.8327870" lon="-8.6028540">
        <ele>154.3</ele>
        <time>2021-05-24T06:32:59Z</time>
      </trkpt>
      <trkpt lat="42.8327920" lon="-8.6028430">
        <ele>154.4</ele>
        <time>2021-05-24T06:33:00Z</time>
      </trkpt>
      <trkpt lat="42.8328030" lon="-8.6028400">
        <ele>154.5</ele>
        <time>2021-05-24T06:33:01Z</time>
      </trkpt>
      <trkpt lat="42.8328140" lon="-8.6028250">
        <ele>154.6</ele>
        <time>2021-05-24T06:33:02Z</time>
      </trkpt>
      <trkpt lat="42.8328210" lon="-8.6028190">
        <ele>154.6</ele>
        <time>2021-05-24T06:33:03Z</time>
      </trkpt>
      <trkpt lat="42.8328320" lon="-8.6028090">
        <ele>154.7</ele>
        <time>2021-05-24T06:33:04Z</time>
      </trkpt>
      <trkpt lat="42.8328380" lon="-8.6027960">
        <ele>154.8</ele>
        <time>2021-05-24T06:33:05Z</time>
      </trkpt>
      <trkpt lat="42.8328440" lon="-8.6027830">
        <ele>154.9</ele>
        <time>2021-05-24T06:33:06Z</time>
      </trkpt>
      <trkpt lat="42.8328510" lon="-8.6027630">
        <ele>155.0</ele>
        <time>2021-05-24T06:33:07Z</time>
      </trkpt>
      <trkpt lat="42.8328590" lon="-8.6027400">
        <ele>155.1</ele>
        <time>2021-05-24T06:33:08Z</time>
      </trkpt>
      <trkpt lat="42.8328720" lon="-8.6027180">
        <ele>155.3</ele>
        <time>2021-05-24T06:33:09Z</time>
      </trkpt>
      <trkpt lat="42.8328790" lon="-8.6027050">
        <ele>155.3</ele>
        <time>2021-05-24T06:33:10Z</time>
      </trkpt>
      <trkpt lat="42.8328850" lon="-8.6026930">
        <ele>155.4</ele>
        <time>2021-05-24T06:33:11Z</time>
      </trkpt>
      <trkpt lat="42.8328860" lon="-8.6026810">
        <ele>155.5</ele>
        <time>2021-05-24T06:33:12Z</time>
      </trkpt>
      <trkpt lat="42.8328860" lon="-8.6026730">
        <ele>155.5</ele>
        <time>2021-05-24T06:33:13Z</time>
      </trkpt>
      <trkpt lat="42.8329010" lon="-8.6026540">
        <ele>155.7</ele>
        <time>2021-05-24T06:33:14Z</time>
      </trkpt>
      <trkpt lat="42.8329140" lon="-8.6026410">
        <ele>155.8</ele>
        <time>2021-05-24T06:33:15Z</time>
      </trkpt>
      <trkpt lat="42.8329310" lon="-8.6026280">
        <ele>155.9</ele>
        <time>2021-05-24T06:33:16Z</time>
      </trkpt>
      <trkpt lat="42.8329380" lon="-8.6026190">
        <ele>156.0</ele>
        <time>2021-05-24T06:33:17Z</time>
      </trkpt>
      <trkpt lat="42.8329540" lon="-8.6026030">
        <ele>156.1</ele>
        <time>2021-05-24T06:33:18Z</time>
      </trkpt>
      <trkpt lat="42.8329580" lon="-8.6025900">
        <ele>156.2</ele>
        <time>2021-05-24T06:33:19Z</time>
      </trkpt>
      <trkpt lat="42.8329670" lon="-8.6025740">
        <ele>156.3</ele>
        <time>2021-05-24T06:33:20Z</time>
      </trkpt>
      <trkpt lat="42.8329710" lon="-8.6025660">
        <ele>156.4</ele>
        <time>2021-05-24T06:33:21Z</time>
      </trkpt>
      <trkpt lat="42.8329740" lon="-8.6025420">
        <ele>156.5</ele>
        <time>2021-05-24T06:33:22Z</time>
      </trkpt>
      <trkpt lat="42.8329780" lon="-8.6025230">
        <ele>156.6</ele>
        <time>2021-05-24T06:33:23Z</time>
      </trkpt>
      <trkpt lat="42.8329860" lon="-8.6025090">
        <ele>156.7</ele>
        <time>2021-05-24T06:33:24Z</time>
      </trkpt>
      <trkpt lat="42.8329890" lon="-8.6024960">
        <ele>156.8</ele>
        <time>2021-05-24T06:33:25Z</time>
      </trkpt>
      <trkpt lat="42.8329890" lon="-8.6024940">
        <ele>156.8</ele>
        <time>2021-05-24T06:33:26Z</time>
      </trkpt>
      <trkpt lat="42.8329930" lon="-8.6024800">
        <ele>156.9</ele>
        <time>2021-05-24T06:33:27Z</time>
      </trkpt>
      <trkpt lat="42.8330030" lon="-8.6024660">
        <ele>157.0</ele>
        <time>2021-05-24T06:33:28Z</time>
      </trkpt>
      <trkpt lat="42.8330080" lon="-8.6024560">
        <ele>157.1</ele>
        <time>2021-05-24T06:33:29Z</time>
      </trkpt>
      <trkpt lat="42.8330100" lon="-8.6024560">
        <ele>157.1</ele>
        <time>2021-05-24T06:33:30Z</time>
      </trkpt>
      <trkpt lat="42.8330140" lon="-8.6024500">
        <ele>157.1</ele>
        <time>2021-05-24T06:33:31Z</time>
      </trkpt>
      <trkpt lat="42.8330210" lon="-8.6024390">
        <ele>157.2</ele>
        <time>2021-05-24T06:33:32Z</time>
      </trkpt>
      <trkpt lat="42.8330280" lon="-8.6024270">
        <ele>157.3</ele>
        <time>2021-05-24T06:33:33Z</time>
      </trkpt>
      <trkpt lat="42.8330410" lon="-8.6024160">
        <ele>157.4</ele>
        <time>2021-05-24T06:33:34Z</time>
      </trkpt>
      <trkpt lat="42.8330400" lon="-8.6024060">
        <ele>157.5</ele>
        <time>2021-05-24T06:33:35Z</time>
      </trkpt>
      <trkpt lat="42.8330420" lon="-8.6023880">
        <ele>157.6</ele>
        <time>2021-05-24T06:33:36Z</time>
      </trkpt>
      <trkpt lat="42.8330540" lon="-8.6023730">
        <ele>157.7</ele>
        <time>2021-05-24T06:33:37Z</time>
      </trkpt>
      <trkpt lat="42.8330830" lon="-8.6023540">
        <ele>158.0</ele>
        <time>2021-05-24T06:33:38Z</time>
      </trkpt>
      <trkpt lat="42.8330880" lon="-8.6023470">
        <ele>158.0</ele>
        <time>2021-05-24T06:33:39Z</time>
      </trkpt>
      <trkpt lat="42.8330970" lon="-8.6023250">
        <ele>158.2</ele>
        <time>2021-05-24T06:33:40Z</time>
      </trkpt>
      <trkpt lat="42.8331060" lon="-8.6023160">
        <ele>158.3</ele>
        <time>2021-05-24T06:33:41Z</time>
      </trkpt>
      <trkpt lat="42.8331140" lon="-8.6023080">
        <ele>158.4</ele>
        <time>2021-05-24T06:33:42Z</time>
      </trkpt>
      <trkpt lat="42.8331170" lon="-8.6022920">
        <ele>158.5</ele>
        <time>2021-05-24T06:33:43Z</time>
      </trkpt>
      <trkpt lat="42.8331160" lon="-8.6022840">
        <ele>158.5</ele>
        <time>2021-05-24T06:33:44Z</time>
      </trkpt>
      <trkpt lat="42.8331160" lon="-8.6022710">
        <ele>158.6</ele>
        <time>2021-05-24T06:33:45Z</time>
      </trkpt>
      <trkpt lat="42.8331120" lon="-8.6022590">
        <ele>158.7</ele>
        <time>2021-05-24T06:33:46Z</time>
      </trkpt>
      <trkpt lat="42.8331110" lon="-8.6022510">
        <ele>158.7</ele>
        <time>2021-05-24T06:33:47Z</time>
      </trkpt>
      <trkpt lat="42.8331130" lon="-8.6022460">
        <ele>158.8</ele>
        <time>2021-05-24T06:33:48Z</time>
      </trkpt>
      <trkpt lat="42.8331190" lon="-8.6022340">
        <ele>158.8</ele>
        <time>2021-05-24T06:33:49Z</time>
      </trkpt>
      <trkpt lat="42.8331320" lon="-8.6022010">
        <ele>159.1</ele>
        <time>2021-05-24T06:33:50Z</time>
      </trkpt>
      <trkpt lat="42.8331380" lon="-8.6021840">
        <ele>159.2</ele>
        <time>2021-05-24T06:33:51Z</time>
      </trkpt>
      <trkpt lat="42.8331370" lon="-8.6021520">
        <ele>159.4</ele>
        <time>2021-05-24T06:33:52Z</time>
      </trkpt>
      <trkpt lat="42.8331370" lon="-8.6021430">
        <ele>159.4</ele>
        <time>2021-05-24T06:33:53Z</time>
      </trkpt>
      <trkpt lat="42.8331380" lon="-8.6021340">
        <ele>159.5</ele>
        <time>2021-05-24T06:33:54Z</time>
      </trkpt>
      <trkpt lat="42.8331440" lon="-8.6021250">
        <ele>159.6</ele>
        <time>2021-05-24T06:33:55Z</time>
      </trkpt>
      <trkpt lat="42.8331520" lon="-8.6021230">
        <ele>159.6</ele>
        <time>2021-05-24T06:33:56Z</time>
      </trkpt>
      <trkpt lat="42.8331560" lon="-8.6021170">
        <ele>159.7</ele>
        <time>2021-05-24T06:33:57Z</time>
      </trkpt>
      <trkpt lat="42.8331540" lon="-8.6021010">
        <ele>159.8</ele>
        <time>2021-05-24T06:33:58Z</time>
      </trkpt>
      <trkpt lat="42.8331600" lon="-8.6020720">
        <ele>159.9</ele>
        <time>2021-05-24T06:33:59Z</time>
      </trkpt>
      <trkpt lat="42.8331640" lon="-8.6020630">
        <ele>160.0</ele>
        <time>2021-05-24T06:34:00Z</time>
      </trkpt>
      <trkpt lat="42.8331680" lon="-8.6020540">
        <ele>160.0</ele>
        <time>2021-05-24T06:34:01Z</time>
      </trkpt>
      <trkpt lat="42.8331690" lon="-8.6020440">
        <ele>160.1</ele>
        <time>2021-05-24T06:34:02Z</time>
      </trkpt>
      <trkpt lat="42.8331700" lon="-8.6020290">
        <ele>160.2</ele>
        <time>2021-05-24T06:34:03Z</time>
      </trkpt>
      <trkpt lat="42.8331670" lon="-8.6020150">
        <ele>160.3</ele>
        <time>2021-05-24T06:34:04Z</time>
      </trkpt>
      <trkpt lat="42.8331690" lon="-8.6020000">
        <ele>160.4</ele>
        <time>2021-05-24T06:34:05Z</time>
      </trkpt>
      <trkpt lat="42.8331750" lon="-8.6019810">
        <ele>160.5</ele>
        <time>2021-05-24T06:34:06Z</time>
      </trkpt>
      <trkpt lat="42.8331710" lon="-8.6019710">
        <ele>160.5</ele>
        <time>2021-05-24T06:34:07Z</time>
      </trkpt>
      <trkpt lat="42.8331710" lon="-8.6019530">
        <ele>160.6</ele>
        <time>2021-05-24T06:34:08Z</time>
      </trkpt>
      <trkpt lat="42.8331730" lon="-8.6019340">
        <ele>160.7</ele>
        <time>2021-05-24T06:34:09Z</time>
      </trkpt>
      <trkpt lat="42.8331750" lon="-8.6019220">
        <ele>160.8</ele>
        <time>2021-05-24T06:34:10Z</time>
      </trkpt>
      <trkpt lat="42.8331750" lon="-8.6019100">
        <ele>160.8</ele>
        <time>2021-05-24T06:34:11Z</time>
      </trkpt>
      <trkpt lat="42.8331700" lon="-8.6018930">
        <ele>160.9</ele>
        <time>2021-05-24T06:34:12Z</time>
      </trkpt>
      <trkpt lat="42.8331670" lon="-8.6018790">
        <ele>161.0</ele>
        <time>2021-05-24T06:34:13Z</time>
      </trkpt>
      <trkpt lat="42.8331700" lon="-8.6018670">
        <ele>161.1</ele>
        <time>2021-05-24T06:34:14Z</time>
      </trkpt>
      <trkpt lat="42.8331700" lon="-8.6018520">
        <ele>161.1</ele>
        <time>2021-05-24T06:34:15Z</time>
      </trkpt>
      <trkpt lat="42.8331660" lon="-8.6018460">
        <ele>161.2</ele>
        <time>2021-05-24T06:34:16Z</time>
      </trkpt>
      <trkpt lat="42.8331640" lon="-8.6018280">
        <ele>161.3</ele>
        <time>2021-05-24T06:34:17Z</time>
      </trkpt>
      <trkpt lat="42.8331630" lon="-8.6018090">
        <ele>161.4</ele>
        <time>2021-05-24T06:34:18Z</time>
      </trkpt>
      <trkpt lat="42.8331590" lon="-8.6017970">
        <ele>161.4</ele>
        <time>2021-05-24T06:34:19Z</time>
      </trkpt>
      <trkpt lat="42.8331590" lon="-8.6017910">
        <ele>161.4</ele>
        <time>2021-05-24T06:34:20Z</time>
      </trkpt>
      <trkpt lat="42.8331560" lon="-8.6017750">
        <ele>161.5</ele>
        <time>2021-05-24T06:34:21Z</time>
      </trkpt>
      <trkpt lat="42.8331630" lon="-8.6017640">
        <ele>161.6</ele>
        <time>2021-05-24T06:34:22Z</time>
      </trkpt>
      <trkpt lat="42.8331620" lon="-8.6017430">
        <ele>161.7</ele>
        <time>2021-05-24T06:34:23Z</time>
      </trkpt>
      <trkpt lat="42.8331610" lon="-8.6017330">
        <ele>161.7</ele>
        <time>2021-05-24T06:34:24Z</time>
      </trkpt>
      <trkpt lat="42.8331590" lon="-8.6017230">
        <ele>161.8</ele>
        <time>2021-05-24T06:34:25Z</time>
      </trkpt>
      <trkpt lat="42.8331570" lon="-8.6017130">
        <ele>161.8</ele>
        <time>2021-05-24T06:34:26Z</time>
      </trkpt>
      <trkpt lat="42.8331610" lon="-8.6017020">
        <ele>161.9</ele>
        <time>2021-05-24T06:34:27Z</time>
      </trkpt>
      <trkpt lat="42.8331590" lon="-8.6016970">
        <ele>161.9</ele>
        <time>2021-05-24T06:34:28Z</time>
      </trkpt>
      <trkpt lat="42.8331590" lon="-8.6016820">
        <ele>162.0</ele>
        <time>2021-05-24T06:34:29Z</time>
      </trkpt>
      <trkpt lat="42.8331560" lon="-8.6016640">
        <ele>162.0</ele>
        <time>2021-05-24T06:34:30Z</time>
      </trkpt>
      <trkpt lat="42.8331590" lon="-8.6016530">
        <ele>162.1</ele>
        <time>2021-05-24T06:34:31Z</time>
      </trkpt>
      <trkpt lat="42.8331630" lon="-8.6016390">
        <ele>162.2</ele>
        <time>2021-05-24T06:34:32Z</time>
      </trkpt>
      <trkpt lat="42.8331650" lon="-8.6016300">
        <ele>162.2</ele>
        <time>2021-05-24T06:34:33Z</time>
      </trkpt>
      <trkpt lat="42.8331690" lon="-8.6016130">
        <ele>162.3</ele>
        <time>2021-05-24T06:34:34Z</time>
      </trkpt>
      <trkpt lat="42.8331720" lon="-8.6016040">
        <ele>162.3</ele>
        <time>2021-05-24T06:34:35Z</time>
      </trkpt>
      <trkpt lat="42.8331750" lon="-8.6015850">
        <ele>162.4</ele>
        <time>2021-05-24T06:34:36Z</time>
      </trkpt>
      <trkpt lat="42.8331830" lon="-8.6015740">
        <ele>162.5</ele>
        <time>2021-05-24T06:34:37Z</time>
      </trkpt>
      <trkpt lat="42.8331890" lon="-8.6015630">
        <ele>162.6</ele>
        <time>2021-05-24T06:34:38Z</time>
      </trkpt>
      <trkpt lat="42.8331920" lon="-8.6015540">
        <ele>162.6</ele>
        <time>2021-05-24T06:34:39Z</time>
      </trkpt>
      <trkpt lat="42.8331980" lon="-8.6015430">
        <ele>162.7</ele>
        <time>2021-05-24T06:34:40Z</time>
      </trkpt>
      <trkpt lat="42.8332080" lon="-8.6015340">
        <ele>162.7</ele>
        <time>2021-05-24T06:34:41Z</time>
      </trkpt>
      <trkpt lat="42.8332120" lon="-8.6015250">
        <ele>162.8</ele>
        <time>2021-05-24T06:34:42Z</time>
      </trkpt>
      <trkpt lat="42.8332250" lon="-8.6015160">
        <ele>162.9</ele>
        <time>2021-05-24T06:34:43Z</time>
      </trkpt>
      <trkpt lat="42.8332320" lon="-8.6015070">
        <ele>163.0</ele>
        <time>2021-05-24T06:34:44Z</time>
      </trkpt>
      <trkpt lat="42.8332370" lon="-8.6015000">
        <ele>163.0</ele>
        <time>2021-05-24T06:34:45Z</time>
      </trkpt>
      <trkpt lat="42.8332490" lon="-8.6014860">
        <ele>163.1</ele>
        <time>2021-05-24T06:34:46Z</time>
      </trkpt>
      <trkpt lat="42.8332540" lon="-8.6014800">
        <ele>163.2</ele>
        <time>2021-05-24T06:34:47Z</time>
      </trkpt>
      <trkpt lat="42.8332580" lon="-8.6014750">
        <ele>163.2</ele>
        <time>2021-05-24T06:34:48Z</time>
      </trkpt>
      <trkpt lat="42.8332630" lon="-8.6014690">
        <ele>163.2</ele>
        <time>2021-05-24T06:34:49Z</time>
      </trkpt>
      <trkpt lat="42.8332680" lon="-8.6014640">
        <ele>163.3</ele>
        <time>2021-05-24T06:34:50Z</time>
      </trkpt>
      <trkpt lat="42.8332840" lon="-8.6014570">
        <ele>163.4</ele>
        <time>2021-05-24T06:34:51Z</time>
      </trkpt>
      <trkpt lat="42.8332930" lon="-8.6014480">
        <ele>163.5</ele>
        <time>2021-05-24T06:34:52Z</time>
      </trkpt>
      <trkpt lat="42.8333090" lon="-8.6014250">
        <ele>163.6</ele>
        <time>2021-05-24T06:34:53Z</time>
      </trkpt>
      <trkpt lat="42.8333130" lon="-8.6014170">
        <ele>163.6</ele>
        <time>2021-05-24T06:34:54Z</time>
      </trkpt>
      <trkpt lat="42.8333170" lon="-8.6014080">
        <ele>163.7</ele>
        <time>2021-05-24T06:34:55Z</time>
      </trkpt>
      <trkpt lat="42.8333230" lon="-8.6013980">
        <ele>163.7</ele>
        <time>2021-05-24T06:34:56Z</time>
      </trkpt>
      <trkpt lat="42.8333310" lon="-8.6013870">
        <ele>163.8</ele>
        <time>2021-05-24T06:34:57Z</time>
      </trkpt>
      <trkpt lat="42.8333410" lon="-8.6013820">
        <ele>163.9</ele>
        <time>2021-05-24T06:34:58Z</time>
      </trkpt>
      <trkpt lat="42.8333460" lon="-8.6013710">
        <ele>163.9</ele>
        <time>2021-05-24T06:34:59Z</time>
      </trkpt>
      <trkpt lat="42.8333550" lon="-8.6013580">
        <ele>164.0</ele>
        <time>2021-05-24T06:35:00Z</time>
      </trkpt>
      <trkpt lat="42.8333600" lon="-8.6013400">
        <ele>164.1</ele>
        <time>2021-05-24T06:35:01Z</time>
      </trkpt>
      <trkpt lat="42.8333650" lon="-8.6013310">
        <ele>164.1</ele>
        <time>2021-05-24T06:35:02Z</time>
      </trkpt>
      <trkpt lat="42.8333740" lon="-8.6013280">
        <ele>164.2</ele>
        <time>2021-05-24T06:35:03Z</time>
      </trkpt>
      <trkpt lat="42.8333830" lon="-8.6013100">
        <ele>164.3</ele>
        <time>2021-05-24T06:35:04Z</time>
      </trkpt>
      <trkpt lat="42.8333880" lon="-8.6013000">
        <ele>164.3</ele>
        <time>2021-05-24T06:35:05Z</time>
      </trkpt>
      <trkpt lat="42.8333950" lon="-8.6012870">
        <ele>164.4</ele>
        <time>2021-05-24T06:35:06Z</time>
      </trkpt>
      <trkpt lat="42.8334040" lon="-8.6012790">
        <ele>164.4</ele>
        <time>2021-05-24T06:35:07Z</time>
      </trkpt>
      <trkpt lat="42.8334130" lon="-8.6012760">
        <ele>164.5</ele>
        <time>2021-05-24T06:35:08Z</time>
      </trkpt>
      <trkpt lat="42.8334210" lon="-8.6012650">
        <ele>164.6</ele>
        <time>2021-05-24T06:35:09Z</time>
      </trkpt>
      <trkpt lat="42.8334340" lon="-8.6012530">
        <ele>164.6</ele>
        <time>2021-05-24T06:35:10Z</time>
      </trkpt>
      <trkpt lat="42.8334410" lon="-8.6012430">
        <ele>164.7</ele>
        <time>2021-05-24T06:35:11Z</time>
      </trkpt>
      <trkpt lat="42.8334470" lon="-8.6012330">
        <ele>164.7</ele>
        <time>2021-05-24T06:35:12Z</time>
      </trkpt>
      <trkpt lat="42.8334500" lon="-8.6012230">
        <ele>164.8</ele>
        <time>2021-05-24T06:35:13Z</time>
      </trkpt>
      <trkpt lat="42.8334620" lon="-8.6012180">
        <ele>164.8</ele>
        <time>2021-05-24T06:35:14Z</time>
      </trkpt>
      <trkpt lat="42.8334760" lon="-8.6012120">
        <ele>164.9</ele>
        <time>2021-05-24T06:35:15Z</time>
      </trkpt>
      <trkpt lat="42.8334800" lon="-8.6012060">
        <ele>164.9</ele>
        <time>2021-05-24T06:35:16Z</time>
      </trkpt>
      <trkpt lat="42.8334940" lon="-8.6012000">
        <ele>165.0</ele>
        <time>2021-05-24T06:35:17Z</time>
      </trkpt>
      <trkpt lat="42.8335040" lon="-8.6011930">
        <ele>165.0</ele>
        <time>2021-05-24T06:35:18Z</time>
      </trkpt>
      <trkpt lat="42.8335060" lon="-8.6011860">
        <ele>165.0</ele>
        <time>2021-05-24T06:35:19Z</time>
      </trkpt>
      <trkpt lat="42.8335070" lon="-8.6011730">
        <ele>165.1</ele>
        <time>2021-05-24T06:35:20Z</time>
      </trkpt>
      <trkpt lat="42.8335100" lon="-8.6011560">
        <ele>165.1</ele>
        <time>2021-05-24T06:35:21Z</time>
      </trkpt>
      <trkpt lat="42.8335070" lon="-8.6011430">
        <ele>165.2</ele>
        <time>2021-05-24T06:35:22Z</time>
      </trkpt>
      <trkpt lat="42.8335070" lon="-8.6011250">
        <ele>165.2</ele>
        <time>2021-05-24T06:35:23Z</time>
      </trkpt>
      <trkpt lat="42.8335100" lon="-8.6011170">
        <ele>165.2</ele>
        <time>2021-05-24T06:35:24Z</time>
      </trkpt>
      <trkpt lat="42.8335140" lon="-8.6011040">
        <ele>165.3</ele>
        <time>2021-05-24T06:35:25Z</time>
      </trkpt>
      <trkpt lat="42.8335170" lon="-8.6010970">
        <ele>165.3</ele>
        <time>2021-05-24T06:35:26Z</time>
      </trkpt>
      <trkpt lat="42.8335190" lon="-8.6010870">
        <ele>165.3</ele>
        <time>2021-05-24T06:35:27Z</time>
      </trkpt>
      <trkpt lat="42.8335220" lon="-8.6010780">
        <ele>165.3</ele>
        <time>2021-05-24T06:35:28Z</time>
      </trkpt>
      <trkpt lat="42.8335290" lon="-8.6010730">
        <ele>165.3</ele>
        <time>2021-05-24T06:35:29Z</time>
      </trkpt>
      <trkpt lat="42.8335360" lon="-8.6010650">
        <ele>165.4</ele>
        <time>2021-05-24T06:35:30Z</time>
      </trkpt>
      <trkpt lat="42.8335480" lon="-8.6010590">
        <ele>165.4</ele>
        <time>2021-05-24T06:35:31Z</time>
      </trkpt>
      <trkpt lat="42.8335570" lon="-8.6010530">
        <ele>165.4</ele>
        <time>2021-05-24T06:35:32Z</time>
      </trkpt>
      <trkpt lat="42.8335680" lon="-8.6010490">
        <ele>165.4</ele>
        <time>2021-05-24T06:35:33Z</time>
      </trkpt>
      <trkpt lat="42.8335780" lon="-8.6010490">
        <ele>165.4</ele>
        <time>2021-05-24T06:35:34Z</time>
      </trkpt>
      <trkpt lat="42.8335860" lon="-8.6010440">
        <ele>165.5</ele>
        <time>2021-05-24T06:35:35Z</time>
      </trkpt>
      <trkpt lat="42.8336040" lon="-8.6010320">
        <ele>165.5</ele>
        <time>2021-05-24T06:35:36Z</time>
      </trkpt>
      <trkpt lat="42.8336120" lon="-8.6010280">
        <ele>165.5</ele>
        <time>2021-05-24T06:35:37Z</time>
      </trkpt>
      <trkpt lat="42.8336200" lon="-8.6010240">
        <ele>165.5</ele>
        <time>2021-05-24T06:35:38Z</time>
      </trkpt>
      <trkpt lat="42.8336340" lon="-8.6010210">
        <ele>165.6</ele>
        <time>2021-05-24T06:35:39Z</time>
      </trkpt>
      <trkpt lat="42.8336420" lon="-8.6010150">
        <ele>165.6</ele>
        <time>2021-05-24T06:35:40Z</time>
      </trkpt>
      <trkpt lat="42.8336530" lon="-8.6010110">
        <ele>165.6</ele>
        <time>2021-05-24T06:35:41Z</time>
      </trkpt>
      <trkpt lat="42.8336630" lon="-8.6010080">
        <ele>165.6</ele>
        <time>2021-05-24T06:35:42Z</time>
      </trkpt>
      <trkpt lat="42.8336730" lon="-8.6010040">
        <ele>165.6</ele>
        <time>2021-05-24T06:35:43Z</time>
      </trkpt>
      <trkpt lat="42.8336840" lon="-8.6010010">
        <ele>165.7</ele>
        <time>2021-05-24T06:35:44Z</time>
      </trkpt>
      <trkpt lat="42.8336950" lon="-8.6009980">
        <ele>165.7</ele>
        <time>2021-05-24T06:35:45Z</time>
      </trkpt>
      <trkpt lat="42.8337040" lon="-8.6009900">
        <ele>165.7</ele>
        <time>2021-05-24T06:35:46Z</time>
      </trkpt>
      <trkpt lat="42.8337150" lon="-8.6009770">
        <ele>165.7</ele>
        <time>2021-05-24T06:35:47Z</time>
      </trkpt>
      <trkpt lat="42.8337310" lon="-8.6009670">
        <ele>165.8</ele>
        <time>2021-05-24T06:35:48Z</time>
      </trkpt>
      <trkpt lat="42.8337400" lon="-8.6009620">
        <ele>165.8</ele>
        <time>2021-05-24T06:35:49Z</time>
      </trkpt>
      <trkpt lat="42.8337490" lon="-8.6009580">
        <ele>165.8</ele>
        <time>2021-05-24T06:35:50Z</time>
      </trkpt>
      <trkpt lat="42.8337570" lon="-8.6009540">
        <ele>165.8</ele>
        <time>2021-05-24T06:35:51Z</time>
      </trkpt>
      <trkpt lat="42.8337700" lon="-8.6009470">
        <ele>165.9</ele>
        <time>2021-05-24T06:35:52Z</time>
      </trkpt>
      <trkpt lat="42.8337730" lon="-8.6009450">
        <ele>165.9</ele>
        <time>2021-05-24T06:35:53Z</time>
      </trkpt>
      <trkpt lat="42.8337820" lon="-8.6009380">
        <ele>165.9</ele>
        <time>2021-05-24T06:35:54Z</time>
      </trkpt>
      <trkpt lat="42.8337910" lon="-8.6009320">
        <ele>165.9</ele>
        <time>2021-05-24T06:35:55Z</time>
      </trkpt>
      <trkpt lat="42.8338030" lon="-8.6009250">
        <ele>165.9</ele>
        <time>2021-05-24T06:35:56Z</time>
      </trkpt>
      <trkpt lat="42.8338140" lon="-8.6009140">
        <ele>166.0</ele>
        <time>2021-05-24T06:35:57Z</time>
      </trkpt>
      <trkpt lat="42.8338240" lon="-8.6009020">
        <ele>166.0</ele>
        <time>2021-05-24T06:35:58Z</time>
      </trkpt>
      <trkpt lat="42.8338320" lon="-8.6008900">
        <ele>166.0</ele>
        <time>2021-05-24T06:35:59Z</time>
      </trkpt>
      <trkpt lat="42.8338380" lon="-8.6008820">
        <ele>166.0</ele>
        <time>2021-05-24T06:36:00Z</time>
      </trkpt>
      <trkpt lat="42.8338470" lon="-8.6008740">
        <ele>166.1</ele>
        <time>2021-05-24T06:36:01Z</time>
      </trkpt>
      <trkpt lat="42.8338560" lon="-8.6008710">
        <ele>166.1</ele>
        <time>2021-05-24T06:36:02Z</time>
      </trkpt>
      <trkpt lat="42.8338710" lon="-8.6008670">
        <ele>166.1</ele>
        <time>2021-05-24T06:36:03Z</time>
      </trkpt>
      <trkpt lat="42.8338790" lon="-8.6008620">
        <ele>166.1</ele>
        <time>2021-05-24T06:36:04Z</time>
      </trkpt>
      <trkpt lat="42.8338880" lon="-8.6008500">
        <ele>166.2</ele>
        <time>2021-05-24T06:36:05Z</time>
      </trkpt>
      <trkpt lat="42.8339030" lon="-8.6008510">
        <ele>166.2</ele>
        <time>2021-05-24T06:36:06Z</time>
      </trkpt>
      <trkpt lat="42.8339220" lon="-8.6008400">
        <ele>166.3</ele>
        <time>2021-05-24T06:36:07Z</time>
      </trkpt>
      <trkpt lat="42.8339340" lon="-8.6008390">
        <ele>166.3</ele>
        <time>2021-05-24T06:36:08Z</time>
      </trkpt>
      <trkpt lat="42.8339550" lon="-8.6008290">
        <ele>166.3</ele>
        <time>2021-05-24T06:36:09Z</time>
      </trkpt>
      <trkpt lat="42.8339620" lon="-8.6008270">
        <ele>166.3</ele>
        <time>2021-05-24T06:36:10Z</time>
      </trkpt>
      <trkpt lat="42.8339690" lon="-8.6008250">
        <ele>166.4</ele>
        <time>2021-05-24T06:36:11Z</time>
      </trkpt>
      <trkpt lat="42.8339870" lon="-8.6008130">
        <ele>166.4</ele>
        <time>2021-05-24T06:36:12Z</time>
      </trkpt>
      <trkpt lat="42.8339960" lon="-8.6008140">
        <ele>166.4</ele>
        <time>2021-05-24T06:36:13Z</time>
      </trkpt>
      <trkpt lat="42.8340060" lon="-8.6008160">
        <ele>166.5</ele>
        <time>2021-05-24T06:36:14Z</time>
      </trkpt>
      <trkpt lat="42.8340220" lon="-8.6008020">
        <ele>166.5</ele>
        <time>2021-05-24T06:36:15Z</time>
      </trkpt>
      <trkpt lat="42.8340420" lon="-8.6007910">
        <ele>166.6</ele>
        <time>2021-05-24T06:36:16Z</time>
      </trkpt>
      <trkpt lat="42.8340500" lon="-8.6007840">
        <ele>166.6</ele>
        <time>2021-05-24T06:36:17Z</time>
      </trkpt>
      <trkpt lat="42.8340570" lon="-8.6007760">
        <ele>166.6</ele>
        <time>2021-05-24T06:36:18Z</time>
      </trkpt>
      <trkpt lat="42.8340720" lon="-8.6007610">
        <ele>166.6</ele>
        <time>2021-05-24T06:36:19Z</time>
      </trkpt>
      <trkpt lat="42.8340790" lon="-8.6007550">
        <ele>166.7</ele>
        <time>2021-05-24T06:36:21Z</time>
      </trkpt>
      <trkpt lat="42.8340860" lon="-8.6007480">
        <ele>166.7</ele>
        <time>2021-05-24T06:36:22Z</time>
      </trkpt>
      <trkpt lat="42.8340950" lon="-8.6007450">
        <ele>166.7</ele>
        <time>2021-05-24T06:36:23Z</time>
      </trkpt>
      <trkpt lat="42.8341070" lon="-8.6007390">
        <ele>166.7</ele>
        <time>2021-05-24T06:36:24Z</time>
      </trkpt>
      <trkpt lat="42.8341200" lon="-8.6007320">
        <ele>166.8</ele>
        <time>2021-05-24T06:36:25Z</time>
      </trkpt>
      <trkpt lat="42.8341320" lon="-8.6007250">
        <ele>166.8</ele>
        <time>2021-05-24T06:36:26Z</time>
      </trkpt>
      <trkpt lat="42.8341340" lon="-8.6007210">
        <ele>166.8</ele>
        <time>2021-05-24T06:36:27Z</time>
      </trkpt>
      <trkpt lat="42.8341360" lon="-8.6007020">
        <ele>166.8</ele>
        <time>2021-05-24T06:36:28Z</time>
      </trkpt>
      <trkpt lat="42.8341510" lon="-8.6006930">
        <ele>166.9</ele>
        <time>2021-05-24T06:36:29Z</time>
      </trkpt>
      <trkpt lat="42.8341560" lon="-8.6006760">
        <ele>166.9</ele>
        <time>2021-05-24T06:36:30Z</time>
      </trkpt>
      <trkpt lat="42.8341760" lon="-8.6006660">
        <ele>166.9</ele>
        <time>2021-05-24T06:36:31Z</time>
      </trkpt>
      <trkpt lat="42.8341830" lon="-8.6006640">
        <ele>167.0</ele>
        <time>2021-05-24T06:36:32Z</time>
      </trkpt>
      <trkpt lat="42.8341910" lon="-8.6006610">
        <ele>167.0</ele>
        <time>2021-05-24T06:36:33Z</time>
      </trkpt>
      <trkpt lat="42.8342070" lon="-8.6006440">
        <ele>167.0</ele>
        <time>2021-05-24T06:36:34Z</time>
      </trkpt>
      <trkpt lat="42.8342160" lon="-8.6006360">
        <ele>167.0</ele>
        <time>2021-05-24T06:36:35Z</time>
      </trkpt>
      <trkpt lat="42.8342260" lon="-8.6006290">
        <ele>167.0</ele>
        <time>2021-05-24T06:36:36Z</time>
      </trkpt>
      <trkpt lat="42.8342360" lon="-8.6006220">
        <ele>167.1</ele>
        <time>2021-05-24T06:36:37Z</time>
      </trkpt>
      <trkpt lat="42.8342470" lon="-8.6006200">
        <ele>167.1</ele>
        <time>2021-05-24T06:36:38Z</time>
      </trkpt>
      <trkpt lat="42.8342520" lon="-8.6006110">
        <ele>167.1</ele>
        <time>2021-05-24T06:36:39Z</time>
      </trkpt>
      <trkpt lat="42.8342630" lon="-8.6006010">
        <ele>167.1</ele>
        <time>2021-05-24T06:36:40Z</time>
      </trkpt>
      <trkpt lat="42.8342670" lon="-8.6006030">
        <ele>167.1</ele>
        <time>2021-05-24T06:36:41Z</time>
      </trkpt>
      <trkpt lat="42.8342750" lon="-8.6005870">
        <ele>167.1</ele>
        <time>2021-05-24T06:36:42Z</time>
      </trkpt>
      <trkpt lat="42.8342850" lon="-8.6005790">
        <ele>167.2</ele>
        <time>2021-05-24T06:36:43Z</time>
      </trkpt>
      <trkpt lat="42.8342840" lon="-8.6005710">
        <ele>167.2</ele>
        <time>2021-05-24T06:36:44Z</time>
      </trkpt>
      <trkpt lat="42.8342880" lon="-8.6005680">
        <ele>167.2</ele>
        <time>2021-05-24T06:36:45Z</time>
      </trkpt>
      <trkpt lat="42.8342890" lon="-8.6005590">
        <ele>167.2</ele>
        <time>2021-05-24T06:36:46Z</time>
      </trkpt>
      <trkpt lat="42.8342940" lon="-8.6005500">
        <ele>167.2</ele>
        <time>2021-05-24T06:36:47Z</time>
      </trkpt>
      <trkpt lat="42.8343110" lon="-8.6005190">
        <ele>167.2</ele>
        <time>2021-05-24T06:36:48Z</time>
      </trkpt>
      <trkpt lat="42.8343190" lon="-8.6005090">
        <ele>167.2</ele>
        <time>2021-05-24T06:36:49Z</time>
      </trkpt>
      <trkpt lat="42.8343250" lon="-8.6004940">
        <ele>167.2</ele>
        <time>2021-05-24T06:36:50Z</time>
      </trkpt>
      <trkpt lat="42.8343280" lon="-8.6004870">
        <ele>167.2</ele>
        <time>2021-05-24T06:36:51Z</time>
      </trkpt>
      <trkpt lat="42.8343350" lon="-8.6004840">
        <ele>167.2</ele>
        <time>2021-05-24T06:36:52Z</time>
      </trkpt>
      <trkpt lat="42.8343440" lon="-8.6004760">
        <ele>167.2</ele>
        <time>2021-05-24T06:36:53Z</time>
      </trkpt>
      <trkpt lat="42.8343610" lon="-8.6004580">
        <ele>167.3</ele>
        <time>2021-05-24T06:36:54Z</time>
      </trkpt>
      <trkpt lat="42.8343690" lon="-8.6004520">
        <ele>167.3</ele>
        <time>2021-05-24T06:36:55Z</time>
      </trkpt>
      <trkpt lat="42.8343760" lon="-8.6004460">
        <ele>167.3</ele>
        <time>2021-05-24T06:36:56Z</time>
      </trkpt>
      <trkpt lat="42.8343840" lon="-8.6004320">
        <ele>167.3</ele>
        <time>2021-05-24T06:36:57Z</time>
      </trkpt>
      <trkpt lat="42.8343900" lon="-8.6004230">
        <ele>167.3</ele>
        <time>2021-05-24T06:36:58Z</time>
      </trkpt>
      <trkpt lat="42.8343970" lon="-8.6004150">
        <ele>167.3</ele>
        <time>2021-05-24T06:36:59Z</time>
      </trkpt>
      <trkpt lat="42.8344100" lon="-8.6004000">
        <ele>167.3</ele>
        <time>2021-05-24T06:37:00Z</time>
      </trkpt>
      <trkpt lat="42.8344160" lon="-8.6003890">
        <ele>167.3</ele>
        <time>2021-05-24T06:37:01Z</time>
      </trkpt>
      <trkpt lat="42.8344220" lon="-8.6003790">
        <ele>167.3</ele>
        <time>2021-05-24T06:37:02Z</time>
      </trkpt>
      <trkpt lat="42.8344400" lon="-8.6003730">
        <ele>167.3</ele>
        <time>2021-05-24T06:37:03Z</time>
      </trkpt>
      <trkpt lat="42.8344540" lon="-8.6003630">
        <ele>167.3</ele>
        <time>2021-05-24T06:37:04Z</time>
      </trkpt>
      <trkpt lat="42.8344700" lon="-8.6003440">
        <ele>167.3</ele>
        <time>2021-05-24T06:37:05Z</time>
      </trkpt>
      <trkpt lat="42.8344770" lon="-8.6003370">
        <ele>167.3</ele>
        <time>2021-05-24T06:37:06Z</time>
      </trkpt>
      <trkpt lat="42.8344840" lon="-8.6003310">
        <ele>167.3</ele>
        <time>2021-05-24T06:37:07Z</time>
      </trkpt>
      <trkpt lat="42.8344880" lon="-8.6003250">
        <ele>167.3</ele>
        <time>2021-05-24T06:37:08Z</time>
      </trkpt>
      <trkpt lat="42.8344990" lon="-8.6003160">
        <ele>167.3</ele>
        <time>2021-05-24T06:37:09Z</time>
      </trkpt>
      <trkpt lat="42.8345070" lon="-8.6003070">
        <ele>167.3</ele>
        <time>2021-05-24T06:37:10Z</time>
      </trkpt>
      <trkpt lat="42.8345150" lon="-8.6002890">
        <ele>167.3</ele>
        <time>2021-05-24T06:37:11Z</time>
      </trkpt>
      <trkpt lat="42.8345230" lon="-8.6002750">
        <ele>167.3</ele>
        <time>2021-05-24T06:37:12Z</time>
      </trkpt>
      <trkpt lat="42.8345300" lon="-8.6002670">
        <ele>167.3</ele>
        <time>2021-05-24T06:37:13Z</time>
      </trkpt>
      <trkpt lat="42.8345410" lon="-8.6002540">
        <ele>167.3</ele>
        <time>2021-05-24T06:37:14Z</time>
      </trkpt>
      <trkpt lat="42.8345500" lon="-8.6002460">
        <ele>167.3</ele>
        <time>2021-05-24T06:37:15Z</time>
      </trkpt>
      <trkpt lat="42.8345620" lon="-8.6002270">
        <ele>167.3</ele>
        <time>2021-05-24T06:37:16Z</time>
      </trkpt>
      <trkpt lat="42.8345710" lon="-8.6002180">
        <ele>167.3</ele>
        <time>2021-05-24T06:37:17Z</time>
      </trkpt>
      <trkpt lat="42.8345790" lon="-8.6002100">
        <ele>167.3</ele>
        <time>2021-05-24T06:37:18Z</time>
      </trkpt>
      <trkpt lat="42.8345950" lon="-8.6001950">
        <ele>167.3</ele>
        <time>2021-05-24T06:37:19Z</time>
      </trkpt>
      <trkpt lat="42.8346040" lon="-8.6001880">
        <ele>167.3</ele>
        <time>2021-05-24T06:37:20Z</time>
      </trkpt>
      <trkpt lat="42.8346140" lon="-8.6001820">
        <ele>167.3</ele>
        <time>2021-05-24T06:37:21Z</time>
      </trkpt>
      <trkpt lat="42.8346320" lon="-8.6001730">
        <ele>167.4</ele>
        <time>2021-05-24T06:37:22Z</time>
      </trkpt>
      <trkpt lat="42.8346460" lon="-8.6001650">
        <ele>167.4</ele>
        <time>2021-05-24T06:37:23Z</time>
      </trkpt>
      <trkpt lat="42.8346600" lon="-8.6001530">
        <ele>167.4</ele>
        <time>2021-05-24T06:37:24Z</time>
      </trkpt>
      <trkpt lat="42.8346690" lon="-8.6001430">
        <ele>167.4</ele>
        <time>2021-05-24T06:37:25Z</time>
      </trkpt>
      <trkpt lat="42.8346760" lon="-8.6001360">
        <ele>167.4</ele>
        <time>2021-05-24T06:37:26Z</time>
      </trkpt>
      <trkpt lat="42.8346800" lon="-8.6001300">
        <ele>167.4</ele>
        <time>2021-05-24T06:37:27Z</time>
      </trkpt>
      <trkpt lat="42.8346900" lon="-8.6001210">
        <ele>167.4</ele>
        <time>2021-05-24T06:37:28Z</time>
      </trkpt>
      <trkpt lat="42.8347040" lon="-8.6001120">
        <ele>167.4</ele>
        <time>2021-05-24T06:37:29Z</time>
      </trkpt>
      <trkpt lat="42.8347110" lon="-8.6001060">
        <ele>167.4</ele>
        <time>2021-05-24T06:37:30Z</time>
      </trkpt>
      <trkpt lat="42.8347180" lon="-8.6001000">
        <ele>167.5</ele>
        <time>2021-05-24T06:37:31Z</time>
      </trkpt>
      <trkpt lat="42.8347250" lon="-8.6000940">
        <ele>167.5</ele>
        <time>2021-05-24T06:37:32Z</time>
      </trkpt>
      <trkpt lat="42.8347480" lon="-8.6000800">
        <ele>167.5</ele>
        <time>2021-05-24T06:37:33Z</time>
      </trkpt>
      <trkpt lat="42.8347540" lon="-8.6000750">
        <ele>167.5</ele>
        <time>2021-05-24T06:37:34Z</time>
      </trkpt>
      <trkpt lat="42.8347610" lon="-8.6000710">
        <ele>167.5</ele>
        <time>2021-05-24T06:37:35Z</time>
      </trkpt>
      <trkpt lat="42.8347730" lon="-8.6000590">
        <ele>167.5</ele>
        <time>2021-05-24T06:37:36Z</time>
      </trkpt>
      <trkpt lat="42.8347820" lon="-8.6000550">
        <ele>167.5</ele>
        <time>2021-05-24T06:37:37Z</time>
      </trkpt>
      <trkpt lat="42.8347910" lon="-8.6000430">
        <ele>167.6</ele>
        <time>2021-05-24T06:37:38Z</time>
      </trkpt>
      <trkpt lat="42.8348040" lon="-8.6000330">
        <ele>167.6</ele>
        <time>2021-05-24T06:37:39Z</time>
      </trkpt>
      <trkpt lat="42.8348100" lon="-8.6000260">
        <ele>167.6</ele>
        <time>2021-05-24T06:37:40Z</time>
      </trkpt>
      <trkpt lat="42.8348120" lon="-8.6000170">
        <ele>167.6</ele>
        <time>2021-05-24T06:37:41Z</time>
      </trkpt>
      <trkpt lat="42.8348310" lon="-8.6000100">
        <ele>167.6</ele>
        <time>2021-05-24T06:37:42Z</time>
      </trkpt>
      <trkpt lat="42.8348370" lon="-8.6000000">
        <ele>167.6</ele>
        <time>2021-05-24T06:37:43Z</time>
      </trkpt>
      <trkpt lat="42.8348420" lon="-8.5999850">
        <ele>167.7</ele>
        <time>2021-05-24T06:37:44Z</time>
      </trkpt>
      <trkpt lat="42.8348510" lon="-8.5999750">
        <ele>167.7</ele>
        <time>2021-05-24T06:37:45Z</time>
      </trkpt>
      <trkpt lat="42.8348560" lon="-8.5999640">
        <ele>167.7</ele>
        <time>2021-05-24T06:37:46Z</time>
      </trkpt>
      <trkpt lat="42.8348680" lon="-8.5999530">
        <ele>167.7</ele>
        <time>2021-05-24T06:37:47Z</time>
      </trkpt>
      <trkpt lat="42.8348810" lon="-8.5999390">
        <ele>167.8</ele>
        <time>2021-05-24T06:37:48Z</time>
      </trkpt>
      <trkpt lat="42.8349000" lon="-8.5999250">
        <ele>167.8</ele>
        <time>2021-05-24T06:37:49Z</time>
      </trkpt>
      <trkpt lat="42.8349060" lon="-8.5999200">
        <ele>167.8</ele>
        <time>2021-05-24T06:37:51Z</time>
      </trkpt>
      <trkpt lat="42.8349120" lon="-8.5999140">
        <ele>167.8</ele>
        <time>2021-05-24T06:37:52Z</time>
      </trkpt>
      <trkpt lat="42.8349110" lon="-8.5999090">
        <ele>167.8</ele>
        <time>2021-05-24T06:37:53Z</time>
      </trkpt>
      <trkpt lat="42.8349210" lon="-8.5999010">
        <ele>167.9</ele>
        <time>2021-05-24T06:37:54Z</time>
      </trkpt>
      <trkpt lat="42.8349340" lon="-8.5998910">
        <ele>167.9</ele>
        <time>2021-05-24T06:37:55Z</time>
      </trkpt>
      <trkpt lat="42.8349370" lon="-8.5998800">
        <ele>167.9</ele>
        <time>2021-05-24T06:37:56Z</time>
      </trkpt>
      <trkpt lat="42.8349440" lon="-8.5998700">
        <ele>167.9</ele>
        <time>2021-05-24T06:37:57Z</time>
      </trkpt>
      <trkpt lat="42.8349510" lon="-8.5998580">
        <ele>167.9</ele>
        <time>2021-05-24T06:37:58Z</time>
      </trkpt>
      <trkpt lat="42.8349710" lon="-8.5998480">
        <ele>168.0</ele>
        <time>2021-05-24T06:37:59Z</time>
      </trkpt>
      <trkpt lat="42.8349790" lon="-8.5998420">
        <ele>168.0</ele>
        <time>2021-05-24T06:38:00Z</time>
      </trkpt>
      <trkpt lat="42.8349880" lon="-8.5998360">
        <ele>168.0</ele>
        <time>2021-05-24T06:38:01Z</time>
      </trkpt>
      <trkpt lat="42.8349960" lon="-8.5998240">
        <ele>168.1</ele>
        <time>2021-05-24T06:38:02Z</time>
      </trkpt>
      <trkpt lat="42.8350080" lon="-8.5998200">
        <ele>168.1</ele>
        <time>2021-05-24T06:38:03Z</time>
      </trkpt>
      <trkpt lat="42.8350130" lon="-8.5998150">
        <ele>168.1</ele>
        <time>2021-05-24T06:38:04Z</time>
      </trkpt>
      <trkpt lat="42.8350220" lon="-8.5998100">
        <ele>168.1</ele>
        <time>2021-05-24T06:38:05Z</time>
      </trkpt>
      <trkpt lat="42.8350310" lon="-8.5998020">
        <ele>168.2</ele>
        <time>2021-05-24T06:38:06Z</time>
      </trkpt>
      <trkpt lat="42.8350350" lon="-8.5997970">
        <ele>168.2</ele>
        <time>2021-05-24T06:38:07Z</time>
      </trkpt>
      <trkpt lat="42.8350380" lon="-8.5997880">
        <ele>168.2</ele>
        <time>2021-05-24T06:38:08Z</time>
      </trkpt>
      <trkpt lat="42.8350560" lon="-8.5997880">
        <ele>168.3</ele>
        <time>2021-05-24T06:38:09Z</time>
      </trkpt>
      <trkpt lat="42.8350640" lon="-8.5997780">
        <ele>168.3</ele>
        <time>2021-05-24T06:38:10Z</time>
      </trkpt>
      <trkpt lat="42.8350720" lon="-8.5997680">
        <ele>168.3</ele>
        <time>2021-05-24T06:38:11Z</time>
      </trkpt>
      <trkpt lat="42.8350790" lon="-8.5997640">
        <ele>168.3</ele>
        <time>2021-05-24T06:38:12Z</time>
      </trkpt>
      <trkpt lat="42.8350890" lon="-8.5997480">
        <ele>168.4</ele>
        <time>2021-05-24T06:38:13Z</time>
      </trkpt>
      <trkpt lat="42.8350970" lon="-8.5997420">
        <ele>168.4</ele>
        <time>2021-05-24T06:38:14Z</time>
      </trkpt>
      <trkpt lat="42.8350980" lon="-8.5997340">
        <ele>168.4</ele>
        <time>2021-05-24T06:38:15Z</time>
      </trkpt>
      <trkpt lat="42.8351020" lon="-8.5997280">
        <ele>168.4</ele>
        <time>2021-05-24T06:38:16Z</time>
      </trkpt>
      <trkpt lat="42.8351070" lon="-8.5997190">
        <ele>168.5</ele>
        <time>2021-05-24T06:38:17Z</time>
      </trkpt>
      <trkpt lat="42.8351160" lon="-8.5997180">
        <ele>168.5</ele>
        <time>2021-05-24T06:38:18Z</time>
      </trkpt>
      <trkpt lat="42.8351260" lon="-8.5997130">
        <ele>168.5</ele>
        <time>2021-05-24T06:38:19Z</time>
      </trkpt>
      <trkpt lat="42.8351340" lon="-8.5997070">
        <ele>168.6</ele>
        <time>2021-05-24T06:38:20Z</time>
      </trkpt>
      <trkpt lat="42.8351400" lon="-8.5997060">
        <ele>168.6</ele>
        <time>2021-05-24T06:38:21Z</time>
      </trkpt>
      <trkpt lat="42.8351490" lon="-8.5996990">
        <ele>168.6</ele>
        <time>2021-05-24T06:38:22Z</time>
      </trkpt>
      <trkpt lat="42.8351610" lon="-8.5996880">
        <ele>168.7</ele>
        <time>2021-05-24T06:38:23Z</time>
      </trkpt>
      <trkpt lat="42.8351720" lon="-8.5996840">
        <ele>168.7</ele>
        <time>2021-05-24T06:38:24Z</time>
      </trkpt>
      <trkpt lat="42.8351850" lon="-8.5996720">
        <ele>168.8</ele>
        <time>2021-05-24T06:38:25Z</time>
      </trkpt>
      <trkpt lat="42.8351990" lon="-8.5996560">
        <ele>168.8</ele>
        <time>2021-05-24T06:38:26Z</time>
      </trkpt>
      <trkpt lat="42.8352060" lon="-8.5996490">
        <ele>168.9</ele>
        <time>2021-05-24T06:38:27Z</time>
      </trkpt>
      <trkpt lat="42.8352140" lon="-8.5996410">
        <ele>168.9</ele>
        <time>2021-05-24T06:38:28Z</time>
      </trkpt>
      <trkpt lat="42.8352420" lon="-8.5996180">
        <ele>169.0</ele>
        <time>2021-05-24T06:38:29Z</time>
      </trkpt>
      <trkpt lat="42.8352510" lon="-8.5996090">
        <ele>169.1</ele>
        <time>2021-05-24T06:38:30Z</time>
      </trkpt>
      <trkpt lat="42.8352650" lon="-8.5995920">
        <ele>169.1</ele>
        <time>2021-05-24T06:38:31Z</time>
      </trkpt>
      <trkpt lat="42.8352780" lon="-8.5995780">
        <ele>169.2</ele>
        <time>2021-05-24T06:38:32Z</time>
      </trkpt>
      <trkpt lat="42.8352980" lon="-8.5995510">
        <ele>169.3</ele>
        <time>2021-05-24T06:38:33Z</time>
      </trkpt>
      <trkpt lat="42.8353070" lon="-8.5995430">
        <ele>169.4</ele>
        <time>2021-05-24T06:38:34Z</time>
      </trkpt>
      <trkpt lat="42.8353170" lon="-8.5995300">
        <ele>169.4</ele>
        <time>2021-05-24T06:38:35Z</time>
      </trkpt>
      <trkpt lat="42.8353310" lon="-8.5995190">
        <ele>169.5</ele>
        <time>2021-05-24T06:38:36Z</time>
      </trkpt>
      <trkpt lat="42.8353450" lon="-8.5994960">
        <ele>169.6</ele>
        <time>2021-05-24T06:38:37Z</time>
      </trkpt>
      <trkpt lat="42.8353500" lon="-8.5994890">
        <ele>169.7</ele>
        <time>2021-05-24T06:38:38Z</time>
      </trkpt>
      <trkpt lat="42.8353550" lon="-8.5994810">
        <ele>169.7</ele>
        <time>2021-05-24T06:38:39Z</time>
      </trkpt>
      <trkpt lat="42.8353660" lon="-8.5994670">
        <ele>169.8</ele>
        <time>2021-05-24T06:38:40Z</time>
      </trkpt>
      <trkpt lat="42.8353740" lon="-8.5994530">
        <ele>169.9</ele>
        <time>2021-05-24T06:38:41Z</time>
      </trkpt>
      <trkpt lat="42.8353890" lon="-8.5994400">
        <ele>170.0</ele>
        <time>2021-05-24T06:38:42Z</time>
      </trkpt>
      <trkpt lat="42.8353970" lon="-8.5994210">
        <ele>170.1</ele>
        <time>2021-05-24T06:38:43Z</time>
      </trkpt>
      <trkpt lat="42.8354070" lon="-8.5994020">
        <ele>170.2</ele>
        <time>2021-05-24T06:38:44Z</time>
      </trkpt>
      <trkpt lat="42.8354140" lon="-8.5993880">
        <ele>170.3</ele>
        <time>2021-05-24T06:38:45Z</time>
      </trkpt>
      <trkpt lat="42.8354220" lon="-8.5993710">
        <ele>170.4</ele>
        <time>2021-05-24T06:38:46Z</time>
      </trkpt>
      <trkpt lat="42.8354240" lon="-8.5993550">
        <ele>170.5</ele>
        <time>2021-05-24T06:38:47Z</time>
      </trkpt>
      <trkpt lat="42.8354290" lon="-8.5993450">
        <ele>170.6</ele>
        <time>2021-05-24T06:38:48Z</time>
      </trkpt>
      <trkpt lat="42.8354470" lon="-8.5993290">
        <ele>170.7</ele>
        <time>2021-05-24T06:38:49Z</time>
      </trkpt>
      <trkpt lat="42.8354600" lon="-8.5993190">
        <ele>170.9</ele>
        <time>2021-05-24T06:38:50Z</time>
      </trkpt>
      <trkpt lat="42.8354690" lon="-8.5992990">
        <ele>171.0</ele>
        <time>2021-05-24T06:38:51Z</time>
      </trkpt>
      <trkpt lat="42.8354740" lon="-8.5992880">
        <ele>171.1</ele>
        <time>2021-05-24T06:38:52Z</time>
      </trkpt>
      <trkpt lat="42.8354800" lon="-8.5992780">
        <ele>171.2</ele>
        <time>2021-05-24T06:38:53Z</time>
      </trkpt>
      <trkpt lat="42.8354900" lon="-8.5992680">
        <ele>171.3</ele>
        <time>2021-05-24T06:38:54Z</time>
      </trkpt>
      <trkpt lat="42.8354940" lon="-8.5992600">
        <ele>171.4</ele>
        <time>2021-05-24T06:38:55Z</time>
      </trkpt>
      <trkpt lat="42.8355000" lon="-8.5992470">
        <ele>171.5</ele>
        <time>2021-05-24T06:38:56Z</time>
      </trkpt>
      <trkpt lat="42.8355050" lon="-8.5992370">
        <ele>171.5</ele>
        <time>2021-05-24T06:38:57Z</time>
      </trkpt>
      <trkpt lat="42.8355100" lon="-8.5992260">
        <ele>171.6</ele>
        <time>2021-05-24T06:38:58Z</time>
      </trkpt>
      <trkpt lat="42.8355130" lon="-8.5992180">
        <ele>171.7</ele>
        <time>2021-05-24T06:38:59Z</time>
      </trkpt>
      <trkpt lat="42.8355240" lon="-8.5992100">
        <ele>171.8</ele>
        <time>2021-05-24T06:39:00Z</time>
      </trkpt>
      <trkpt lat="42.8355370" lon="-8.5992000">
        <ele>171.9</ele>
        <time>2021-05-24T06:39:01Z</time>
      </trkpt>
      <trkpt lat="42.8355490" lon="-8.5991830">
        <ele>172.0</ele>
        <time>2021-05-24T06:39:02Z</time>
      </trkpt>
      <trkpt lat="42.8355590" lon="-8.5991750">
        <ele>172.1</ele>
        <time>2021-05-24T06:39:03Z</time>
      </trkpt>
      <trkpt lat="42.8355650" lon="-8.5991640">
        <ele>172.2</ele>
        <time>2021-05-24T06:39:04Z</time>
      </trkpt>
      <trkpt lat="42.8355710" lon="-8.5991510">
        <ele>172.3</ele>
        <time>2021-05-24T06:39:05Z</time>
      </trkpt>
      <trkpt lat="42.8355760" lon="-8.5991430">
        <ele>172.4</ele>
        <time>2021-05-24T06:39:06Z</time>
      </trkpt>
      <trkpt lat="42.8355860" lon="-8.5991290">
        <ele>172.5</ele>
        <time>2021-05-24T06:39:07Z</time>
      </trkpt>
      <trkpt lat="42.8355930" lon="-8.5991130">
        <ele>172.6</ele>
        <time>2021-05-24T06:39:08Z</time>
      </trkpt>
      <trkpt lat="42.8355970" lon="-8.5991010">
        <ele>172.6</ele>
        <time>2021-05-24T06:39:09Z</time>
      </trkpt>
      <trkpt lat="42.8356010" lon="-8.5990920">
        <ele>172.7</ele>
        <time>2021-05-24T06:39:10Z</time>
      </trkpt>
      <trkpt lat="42.8356060" lon="-8.5990780">
        <ele>172.8</ele>
        <time>2021-05-24T06:39:11Z</time>
      </trkpt>
      <trkpt lat="42.8356110" lon="-8.5990680">
        <ele>172.8</ele>
        <time>2021-05-24T06:39:12Z</time>
      </trkpt>
      <trkpt lat="42.8356210" lon="-8.5990520">
        <ele>173.0</ele>
        <time>2021-05-24T06:39:13Z</time>
      </trkpt>
      <trkpt lat="42.8356290" lon="-8.5990410">
        <ele>173.0</ele>
        <time>2021-05-24T06:39:14Z</time>
      </trkpt>
      <trkpt lat="42.8356350" lon="-8.5990250">
        <ele>173.1</ele>
        <time>2021-05-24T06:39:15Z</time>
      </trkpt>
      <trkpt lat="42.8356380" lon="-8.5990140">
        <ele>173.2</ele>
        <time>2021-05-24T06:39:16Z</time>
      </trkpt>
      <trkpt lat="42.8356450" lon="-8.5989980">
        <ele>173.3</ele>
        <time>2021-05-24T06:39:17Z</time>
      </trkpt>
      <trkpt lat="42.8356500" lon="-8.5989860">
        <ele>173.4</ele>
        <time>2021-05-24T06:39:18Z</time>
      </trkpt>
      <trkpt lat="42.8356530" lon="-8.5989700">
        <ele>173.4</ele>
        <time>2021-05-24T06:39:19Z</time>
      </trkpt>
      <trkpt lat="42.8356530" lon="-8.5989550">
        <ele>173.5</ele>
        <time>2021-05-24T06:39:20Z</time>
      </trkpt>
      <trkpt lat="42.8356540" lon="-8.5989460">
        <ele>173.6</ele>
        <time>2021-05-24T06:39:21Z</time>
      </trkpt>
      <trkpt lat="42.8356600" lon="-8.5989310">
        <ele>173.6</ele>
        <time>2021-05-24T06:39:22Z</time>
      </trkpt>
      <trkpt lat="42.8356610" lon="-8.5989180">
        <ele>173.7</ele>
        <time>2021-05-24T06:39:23Z</time>
      </trkpt>
      <trkpt lat="42.8356700" lon="-8.5988930">
        <ele>173.8</ele>
        <time>2021-05-24T06:39:24Z</time>
      </trkpt>
      <trkpt lat="42.8356750" lon="-8.5988830">
        <ele>173.8</ele>
        <time>2021-05-24T06:39:25Z</time>
      </trkpt>
      <trkpt lat="42.8356800" lon="-8.5988730">
        <ele>173.9</ele>
        <time>2021-05-24T06:39:26Z</time>
      </trkpt>
      <trkpt lat="42.8356860" lon="-8.5988470">
        <ele>174.0</ele>
        <time>2021-05-24T06:39:27Z</time>
      </trkpt>
      <trkpt lat="42.8356860" lon="-8.5988380">
        <ele>174.0</ele>
        <time>2021-05-24T06:39:28Z</time>
      </trkpt>
      <trkpt lat="42.8356850" lon="-8.5988280">
        <ele>174.1</ele>
        <time>2021-05-24T06:39:29Z</time>
      </trkpt>
      <trkpt lat="42.8356850" lon="-8.5988190">
        <ele>174.1</ele>
        <time>2021-05-24T06:39:30Z</time>
      </trkpt>
      <trkpt lat="42.8356940" lon="-8.5987970">
        <ele>174.2</ele>
        <time>2021-05-24T06:39:31Z</time>
      </trkpt>
      <trkpt lat="42.8356980" lon="-8.5987800">
        <ele>174.3</ele>
        <time>2021-05-24T06:39:32Z</time>
      </trkpt>
      <trkpt lat="42.8356990" lon="-8.5987710">
        <ele>174.3</ele>
        <time>2021-05-24T06:39:33Z</time>
      </trkpt>
      <trkpt lat="42.8357050" lon="-8.5987520">
        <ele>174.4</ele>
        <time>2021-05-24T06:39:34Z</time>
      </trkpt>
      <trkpt lat="42.8357070" lon="-8.5987420">
        <ele>174.4</ele>
        <time>2021-05-24T06:39:35Z</time>
      </trkpt>
      <trkpt lat="42.8357090" lon="-8.5987220">
        <ele>174.5</ele>
        <time>2021-05-24T06:39:36Z</time>
      </trkpt>
      <trkpt lat="42.8357050" lon="-8.5987050">
        <ele>174.5</ele>
        <time>2021-05-24T06:39:37Z</time>
      </trkpt>
      <trkpt lat="42.8357060" lon="-8.5986960">
        <ele>174.6</ele>
        <time>2021-05-24T06:39:38Z</time>
      </trkpt>
      <trkpt lat="42.8357090" lon="-8.5986760">
        <ele>174.6</ele>
        <time>2021-05-24T06:39:39Z</time>
      </trkpt>
      <trkpt lat="42.8357140" lon="-8.5986590">
        <ele>174.7</ele>
        <time>2021-05-24T06:39:40Z</time>
      </trkpt>
      <trkpt lat="42.8357180" lon="-8.5986390">
        <ele>174.8</ele>
        <time>2021-05-24T06:39:41Z</time>
      </trkpt>
      <trkpt lat="42.8357200" lon="-8.5986260">
        <ele>174.8</ele>
        <time>2021-05-24T06:39:42Z</time>
      </trkpt>
      <trkpt lat="42.8357260" lon="-8.5986150">
        <ele>174.9</ele>
        <time>2021-05-24T06:39:43Z</time>
      </trkpt>
      <trkpt lat="42.8357360" lon="-8.5985880">
        <ele>175.0</ele>
        <time>2021-05-24T06:39:44Z</time>
      </trkpt>
      <trkpt lat="42.8357390" lon="-8.5985780">
        <ele>175.0</ele>
        <time>2021-05-24T06:39:45Z</time>
      </trkpt>
      <trkpt lat="42.8357420" lon="-8.5985670">
        <ele>175.1</ele>
        <time>2021-05-24T06:39:46Z</time>
      </trkpt>
      <trkpt lat="42.8357490" lon="-8.5985520">
        <ele>175.2</ele>
        <time>2021-05-24T06:39:47Z</time>
      </trkpt>
      <trkpt lat="42.8357460" lon="-8.5985410">
        <ele>175.2</ele>
        <time>2021-05-24T06:39:48Z</time>
      </trkpt>
      <trkpt lat="42.8357540" lon="-8.5985310">
        <ele>175.3</ele>
        <time>2021-05-24T06:39:49Z</time>
      </trkpt>
      <trkpt lat="42.8357720" lon="-8.5985100">
        <ele>175.4</ele>
        <time>2021-05-24T06:39:50Z</time>
      </trkpt>
      <trkpt lat="42.8357770" lon="-8.5985040">
        <ele>175.5</ele>
        <time>2021-05-24T06:39:51Z</time>
      </trkpt>
      <trkpt lat="42.8357810" lon="-8.5984980">
        <ele>175.5</ele>
        <time>2021-05-24T06:39:52Z</time>
      </trkpt>
      <trkpt lat="42.8357850" lon="-8.5984940">
        <ele>175.5</ele>
        <time>2021-05-24T06:39:53Z</time>
      </trkpt>
      <trkpt lat="42.8357900" lon="-8.5984890">
        <ele>175.6</ele>
        <time>2021-05-24T06:39:54Z</time>
      </trkpt>
      <trkpt lat="42.8357930" lon="-8.5984790">
        <ele>175.6</ele>
        <time>2021-05-24T06:39:55Z</time>
      </trkpt>
      <trkpt lat="42.8358030" lon="-8.5984690">
        <ele>175.7</ele>
        <time>2021-05-24T06:39:56Z</time>
      </trkpt>
      <trkpt lat="42.8358110" lon="-8.5984530">
        <ele>175.8</ele>
        <time>2021-05-24T06:39:57Z</time>
      </trkpt>
      <trkpt lat="42.8358150" lon="-8.5984420">
        <ele>175.9</ele>
        <time>2021-05-24T06:39:58Z</time>
      </trkpt>
      <trkpt lat="42.8358210" lon="-8.5984290">
        <ele>175.9</ele>
        <time>2021-05-24T06:39:59Z</time>
      </trkpt>
      <trkpt lat="42.8358300" lon="-8.5984180">
        <ele>176.0</ele>
        <time>2021-05-24T06:40:00Z</time>
      </trkpt>
      <trkpt lat="42.8358350" lon="-8.5984140">
        <ele>176.0</ele>
        <time>2021-05-24T06:40:01Z</time>
      </trkpt>
      <trkpt lat="42.8358400" lon="-8.5983980">
        <ele>176.1</ele>
        <time>2021-05-24T06:40:02Z</time>
      </trkpt>
      <trkpt lat="42.8358450" lon="-8.5983870">
        <ele>176.2</ele>
        <time>2021-05-24T06:40:03Z</time>
      </trkpt>
      <trkpt lat="42.8358560" lon="-8.5983750">
        <ele>176.3</ele>
        <time>2021-05-24T06:40:04Z</time>
      </trkpt>
      <trkpt lat="42.8358600" lon="-8.5983670">
        <ele>176.3</ele>
        <time>2021-05-24T06:40:05Z</time>
      </trkpt>
      <trkpt lat="42.8358650" lon="-8.5983630">
        <ele>176.3</ele>
        <time>2021-05-24T06:40:06Z</time>
      </trkpt>
      <trkpt lat="42.8358710" lon="-8.5983510">
        <ele>176.4</ele>
        <time>2021-05-24T06:40:07Z</time>
      </trkpt>
      <trkpt lat="42.8358780" lon="-8.5983380">
        <ele>176.5</ele>
        <time>2021-05-24T06:40:08Z</time>
      </trkpt>
      <trkpt lat="42.8358880" lon="-8.5983320">
        <ele>176.5</ele>
        <time>2021-05-24T06:40:10Z</time>
      </trkpt>
      <trkpt lat="42.8358930" lon="-8.5983190">
        <ele>176.6</ele>
        <time>2021-05-24T06:40:11Z</time>
      </trkpt>
      <trkpt lat="42.8359030" lon="-8.5983080">
        <ele>176.6</ele>
        <time>2021-05-24T06:40:12Z</time>
      </trkpt>
      <trkpt lat="42.8359130" lon="-8.5982970">
        <ele>176.7</ele>
        <time>2021-05-24T06:40:13Z</time>
      </trkpt>
      <trkpt lat="42.8359190" lon="-8.5982830">
        <ele>176.7</ele>
        <time>2021-05-24T06:40:14Z</time>
      </trkpt>
      <trkpt lat="42.8359230" lon="-8.5982730">
        <ele>176.8</ele>
        <time>2021-05-24T06:40:15Z</time>
      </trkpt>
      <trkpt lat="42.8359360" lon="-8.5982520">
        <ele>176.8</ele>
        <time>2021-05-24T06:40:16Z</time>
      </trkpt>
      <trkpt lat="42.8359410" lon="-8.5982420">
        <ele>176.9</ele>
        <time>2021-05-24T06:40:17Z</time>
      </trkpt>
      <trkpt lat="42.8359460" lon="-8.5982320">
        <ele>176.9</ele>
        <time>2021-05-24T06:40:18Z</time>
      </trkpt>
      <trkpt lat="42.8359560" lon="-8.5982250">
        <ele>176.9</ele>
        <time>2021-05-24T06:40:19Z</time>
      </trkpt>
      <trkpt lat="42.8359630" lon="-8.5982120">
        <ele>176.9</ele>
        <time>2021-05-24T06:40:20Z</time>
      </trkpt>
      <trkpt lat="42.8359700" lon="-8.5982010">
        <ele>176.9</ele>
        <time>2021-05-24T06:40:21Z</time>
      </trkpt>
      <trkpt lat="42.8359760" lon="-8.5981970">
        <ele>177.0</ele>
        <time>2021-05-24T06:40:22Z</time>
      </trkpt>
      <trkpt lat="42.8359860" lon="-8.5981850">
        <ele>177.0</ele>
        <time>2021-05-24T06:40:23Z</time>
      </trkpt>
      <trkpt lat="42.8359870" lon="-8.5981850">
        <ele>177.0</ele>
        <time>2021-05-24T06:40:24Z</time>
      </trkpt>
      <trkpt lat="42.8359920" lon="-8.5981730">
        <ele>177.0</ele>
        <time>2021-05-24T06:40:25Z</time>
      </trkpt>
      <trkpt lat="42.8360150" lon="-8.5981490">
        <ele>177.0</ele>
        <time>2021-05-24T06:40:26Z</time>
      </trkpt>
      <trkpt lat="42.8360200" lon="-8.5981400">
        <ele>177.0</ele>
        <time>2021-05-24T06:40:27Z</time>
      </trkpt>
      <trkpt lat="42.8360300" lon="-8.5981300">
        <ele>177.0</ele>
        <time>2021-05-24T06:40:28Z</time>
      </trkpt>
      <trkpt lat="42.8360300" lon="-8.5981230">
        <ele>176.9</ele>
        <time>2021-05-24T06:40:29Z</time>
      </trkpt>
      <trkpt lat="42.8360320" lon="-8.5981180">
        <ele>176.9</ele>
        <time>2021-05-24T06:40:30Z</time>
      </trkpt>
      <trkpt lat="42.8360420" lon="-8.5981030">
        <ele>176.9</ele>
        <time>2021-05-24T06:40:31Z</time>
      </trkpt>
      <trkpt lat="42.8360580" lon="-8.5980910">
        <ele>176.9</ele>
        <time>2021-05-24T06:40:32Z</time>
      </trkpt>
      <trkpt lat="42.8360720" lon="-8.5980840">
        <ele>176.9</ele>
        <time>2021-05-24T06:40:33Z</time>
      </trkpt>
      <trkpt lat="42.8360840" lon="-8.5980610">
        <ele>176.8</ele>
        <time>2021-05-24T06:40:34Z</time>
      </trkpt>
      <trkpt lat="42.8360900" lon="-8.5980500">
        <ele>176.8</ele>
        <time>2021-05-24T06:40:35Z</time>
      </trkpt>
      <trkpt lat="42.8360950" lon="-8.5980400">
        <ele>176.8</ele>
        <time>2021-05-24T06:40:36Z</time>
      </trkpt>
      <trkpt lat="42.8361120" lon="-8.5980230">
        <ele>176.8</ele>
        <time>2021-05-24T06:40:37Z</time>
      </trkpt>
      <trkpt lat="42.8361200" lon="-8.5980180">
        <ele>176.8</ele>
        <time>2021-05-24T06:40:38Z</time>
      </trkpt>
      <trkpt lat="42.8361270" lon="-8.5980120">
        <ele>176.8</ele>
        <time>2021-05-24T06:40:39Z</time>
      </trkpt>
      <trkpt lat="42.8361400" lon="-8.5979970">
        <ele>176.7</ele>
        <time>2021-05-24T06:40:40Z</time>
      </trkpt>
      <trkpt lat="42.8361480" lon="-8.5979840">
        <ele>176.7</ele>
        <time>2021-05-24T06:40:41Z</time>
      </trkpt>
      <trkpt lat="42.8361550" lon="-8.5979650">
        <ele>176.7</ele>
        <time>2021-05-24T06:40:42Z</time>
      </trkpt>
      <trkpt lat="42.8361630" lon="-8.5979500">
        <ele>176.7</ele>
        <time>2021-05-24T06:40:43Z</time>
      </trkpt>
      <trkpt lat="42.8361750" lon="-8.5979390">
        <ele>176.7</ele>
        <time>2021-05-24T06:40:44Z</time>
      </trkpt>
      <trkpt lat="42.8361820" lon="-8.5979290">
        <ele>176.7</ele>
        <time>2021-05-24T06:40:45Z</time>
      </trkpt>
      <trkpt lat="42.8361880" lon="-8.5979200">
        <ele>176.7</ele>
        <time>2021-05-24T06:40:46Z</time>
      </trkpt>
      <trkpt lat="42.8361950" lon="-8.5979100">
        <ele>176.6</ele>
        <time>2021-05-24T06:40:47Z</time>
      </trkpt>
      <trkpt lat="42.8362090" lon="-8.5978860">
        <ele>176.6</ele>
        <time>2021-05-24T06:40:48Z</time>
      </trkpt>
      <trkpt lat="42.8362150" lon="-8.5978770">
        <ele>176.6</ele>
        <time>2021-05-24T06:40:49Z</time>
      </trkpt>
      <trkpt lat="42.8362200" lon="-8.5978670">
        <ele>176.6</ele>
        <time>2021-05-24T06:40:50Z</time>
      </trkpt>
      <trkpt lat="42.8362290" lon="-8.5978500">
        <ele>176.6</ele>
        <time>2021-05-24T06:40:51Z</time>
      </trkpt>
      <trkpt lat="42.8362380" lon="-8.5978400">
        <ele>176.6</ele>
        <time>2021-05-24T06:40:52Z</time>
      </trkpt>
      <trkpt lat="42.8362560" lon="-8.5978200">
        <ele>176.6</ele>
        <time>2021-05-24T06:40:53Z</time>
      </trkpt>
      <trkpt lat="42.8362630" lon="-8.5978120">
        <ele>176.6</ele>
        <time>2021-05-24T06:40:54Z</time>
      </trkpt>
      <trkpt lat="42.8362700" lon="-8.5978030">
        <ele>176.6</ele>
        <time>2021-05-24T06:40:55Z</time>
      </trkpt>
      <trkpt lat="42.8362820" lon="-8.5977830">
        <ele>176.6</ele>
        <time>2021-05-24T06:40:56Z</time>
      </trkpt>
      <trkpt lat="42.8362850" lon="-8.5977710">
        <ele>176.6</ele>
        <time>2021-05-24T06:40:57Z</time>
      </trkpt>
      <trkpt lat="42.8362890" lon="-8.5977590">
        <ele>176.5</ele>
        <time>2021-05-24T06:40:58Z</time>
      </trkpt>
      <trkpt lat="42.8362980" lon="-8.5977340">
        <ele>176.5</ele>
        <time>2021-05-24T06:40:59Z</time>
      </trkpt>
      <trkpt lat="42.8363010" lon="-8.5977230">
        <ele>176.5</ele>
        <time>2021-05-24T06:41:00Z</time>
      </trkpt>
      <trkpt lat="42.8363040" lon="-8.5977130">
        <ele>176.5</ele>
        <time>2021-05-24T06:41:01Z</time>
      </trkpt>
      <trkpt lat="42.8362980" lon="-8.5977060">
        <ele>176.5</ele>
        <time>2021-05-24T06:41:02Z</time>
      </trkpt>
      <trkpt lat="42.8362980" lon="-8.5977120">
        <ele>176.5</ele>
        <time>2021-05-24T06:41:03Z</time>
      </trkpt>
      <trkpt lat="42.8363010" lon="-8.5977140">
        <ele>176.5</ele>
        <time>2021-05-24T06:41:04Z</time>
      </trkpt>
      <trkpt lat="42.8363010" lon="-8.5977160">
        <ele>176.5</ele>
        <time>2021-05-24T06:41:05Z</time>
      </trkpt>
      <trkpt lat="42.8363010" lon="-8.5976990">
        <ele>176.5</ele>
        <time>2021-05-24T06:41:06Z</time>
      </trkpt>
      <trkpt lat="42.8363030" lon="-8.5976990">
        <ele>176.5</ele>
        <time>2021-05-24T06:41:07Z</time>
      </trkpt>
      <trkpt lat="42.8363080" lon="-8.5976960">
        <ele>176.5</ele>
        <time>2021-05-24T06:41:08Z</time>
      </trkpt>
      <trkpt lat="42.8363120" lon="-8.5976950">
        <ele>176.5</ele>
        <time>2021-05-24T06:41:09Z</time>
      </trkpt>
      <trkpt lat="42.8363090" lon="-8.5977000">
        <ele>176.5</ele>
        <time>2021-05-24T06:41:10Z</time>
      </trkpt>
      <trkpt lat="42.8363070" lon="-8.5976930">
        <ele>176.5</ele>
        <time>2021-05-24T06:41:11Z</time>
      </trkpt>
      <trkpt lat="42.8363070" lon="-8.5976750">
        <ele>176.5</ele>
        <time>2021-05-24T06:41:12Z</time>
      </trkpt>
      <trkpt lat="42.8363090" lon="-8.5976540">
        <ele>176.5</ele>
        <time>2021-05-24T06:41:13Z</time>
      </trkpt>
      <trkpt lat="42.8363290" lon="-8.5976450">
        <ele>176.5</ele>
        <time>2021-05-24T06:41:14Z</time>
      </trkpt>
      <trkpt lat="42.8363290" lon="-8.5976240">
        <ele>176.5</ele>
        <time>2021-05-24T06:41:15Z</time>
      </trkpt>
      <trkpt lat="42.8363300" lon="-8.5976130">
        <ele>176.5</ele>
        <time>2021-05-24T06:41:16Z</time>
      </trkpt>
      <trkpt lat="42.8363320" lon="-8.5976010">
        <ele>176.5</ele>
        <time>2021-05-24T06:41:17Z</time>
      </trkpt>
      <trkpt lat="42.8363330" lon="-8.5975900">
        <ele>176.5</ele>
        <time>2021-05-24T06:41:18Z</time>
      </trkpt>
      <trkpt lat="42.8363390" lon="-8.5975780">
        <ele>176.5</ele>
        <time>2021-05-24T06:41:19Z</time>
      </trkpt>
      <trkpt lat="42.8363400" lon="-8.5975670">
        <ele>176.5</ele>
        <time>2021-05-24T06:41:20Z</time>
      </trkpt>
      <trkpt lat="42.8363420" lon="-8.5975450">
        <ele>176.5</ele>
        <time>2021-05-24T06:41:21Z</time>
      </trkpt>
      <trkpt lat="42.8363420" lon="-8.5975400">
        <ele>176.5</ele>
        <time>2021-05-24T06:41:22Z</time>
      </trkpt>
      <trkpt lat="42.8363460" lon="-8.5975270">
        <ele>176.5</ele>
        <time>2021-05-24T06:41:23Z</time>
      </trkpt>
      <trkpt lat="42.8363440" lon="-8.5975090">
        <ele>176.5</ele>
        <time>2021-05-24T06:41:24Z</time>
      </trkpt>
      <trkpt lat="42.8363500" lon="-8.5975000">
        <ele>176.5</ele>
        <time>2021-05-24T06:41:25Z</time>
      </trkpt>
      <trkpt lat="42.8363520" lon="-8.5974790">
        <ele>176.5</ele>
        <time>2021-05-24T06:41:26Z</time>
      </trkpt>
      <trkpt lat="42.8363500" lon="-8.5974740">
        <ele>176.5</ele>
        <time>2021-05-24T06:41:27Z</time>
      </trkpt>
      <trkpt lat="42.8363520" lon="-8.5974520">
        <ele>176.6</ele>
        <time>2021-05-24T06:41:28Z</time>
      </trkpt>
      <trkpt lat="42.8363580" lon="-8.5974320">
        <ele>176.6</ele>
        <time>2021-05-24T06:41:29Z</time>
      </trkpt>
      <trkpt lat="42.8363580" lon="-8.5974170">
        <ele>176.6</ele>
        <time>2021-05-24T06:41:30Z</time>
      </trkpt>
      <trkpt lat="42.8363590" lon="-8.5974030">
        <ele>176.6</ele>
        <time>2021-05-24T06:41:31Z</time>
      </trkpt>
      <trkpt lat="42.8363600" lon="-8.5973840">
        <ele>176.6</ele>
        <time>2021-05-24T06:41:32Z</time>
      </trkpt>
      <trkpt lat="42.8363610" lon="-8.5973730">
        <ele>176.6</ele>
        <time>2021-05-24T06:41:33Z</time>
      </trkpt>
      <trkpt lat="42.8363610" lon="-8.5973610">
        <ele>176.6</ele>
        <time>2021-05-24T06:41:34Z</time>
      </trkpt>
      <trkpt lat="42.8363610" lon="-8.5973490">
        <ele>176.6</ele>
        <time>2021-05-24T06:41:35Z</time>
      </trkpt>
      <trkpt lat="42.8363630" lon="-8.5973420">
        <ele>176.6</ele>
        <time>2021-05-24T06:41:36Z</time>
      </trkpt>
      <trkpt lat="42.8363670" lon="-8.5973170">
        <ele>176.6</ele>
        <time>2021-05-24T06:41:37Z</time>
      </trkpt>
      <trkpt lat="42.8363670" lon="-8.5973090">
        <ele>176.7</ele>
        <time>2021-05-24T06:41:38Z</time>
      </trkpt>
      <trkpt lat="42.8363770" lon="-8.5972920">
        <ele>176.7</ele>
        <time>2021-05-24T06:41:39Z</time>
      </trkpt>
      <trkpt lat="42.8363730" lon="-8.5972730">
        <ele>176.7</ele>
        <time>2021-05-24T06:41:40Z</time>
      </trkpt>
      <trkpt lat="42.8363790" lon="-8.5972490">
        <ele>176.7</ele>
        <time>2021-05-24T06:41:41Z</time>
      </trkpt>
      <trkpt lat="42.8363850" lon="-8.5972370">
        <ele>176.7</ele>
        <time>2021-05-24T06:41:42Z</time>
      </trkpt>
      <trkpt lat="42.8363850" lon="-8.5972110">
        <ele>176.8</ele>
        <time>2021-05-24T06:41:43Z</time>
      </trkpt>
      <trkpt lat="42.8363850" lon="-8.5971960">
        <ele>176.8</ele>
        <time>2021-05-24T06:41:44Z</time>
      </trkpt>
      <trkpt lat="42.8363840" lon="-8.5971820">
        <ele>176.8</ele>
        <time>2021-05-24T06:41:45Z</time>
      </trkpt>
      <trkpt lat="42.8363870" lon="-8.5971660">
        <ele>176.8</ele>
        <time>2021-05-24T06:41:46Z</time>
      </trkpt>
      <trkpt lat="42.8363940" lon="-8.5971540">
        <ele>176.8</ele>
        <time>2021-05-24T06:41:47Z</time>
      </trkpt>
      <trkpt lat="42.8363960" lon="-8.5971380">
        <ele>176.8</ele>
        <time>2021-05-24T06:41:48Z</time>
      </trkpt>
      <trkpt lat="42.8363990" lon="-8.5971170">
        <ele>176.8</ele>
        <time>2021-05-24T06:41:49Z</time>
      </trkpt>
      <trkpt lat="42.8363990" lon="-8.5971060">
        <ele>176.9</ele>
        <time>2021-05-24T06:41:50Z</time>
      </trkpt>
      <trkpt lat="42.8364000" lon="-8.5970940">
        <ele>176.9</ele>
        <time>2021-05-24T06:41:51Z</time>
      </trkpt>
      <trkpt lat="42.8364000" lon="-8.5970820">
        <ele>176.9</ele>
        <time>2021-05-24T06:41:52Z</time>
      </trkpt>
      <trkpt lat="42.8364030" lon="-8.5970710">
        <ele>176.9</ele>
        <time>2021-05-24T06:41:53Z</time>
      </trkpt>
      <trkpt lat="42.8364050" lon="-8.5970450">
        <ele>176.9</ele>
        <time>2021-05-24T06:41:54Z</time>
      </trkpt>
      <trkpt lat="42.8364050" lon="-8.5970230">
        <ele>176.9</ele>
        <time>2021-05-24T06:41:55Z</time>
      </trkpt>
      <trkpt lat="42.8364070" lon="-8.5970130">
        <ele>176.9</ele>
        <time>2021-05-24T06:41:56Z</time>
      </trkpt>
      <trkpt lat="42.8364080" lon="-8.5970030">
        <ele>176.9</ele>
        <time>2021-05-24T06:41:57Z</time>
      </trkpt>
      <trkpt lat="42.8364090" lon="-8.5969930">
        <ele>176.9</ele>
        <time>2021-05-24T06:41:58Z</time>
      </trkpt>
      <trkpt lat="42.8364040" lon="-8.5969760">
        <ele>176.9</ele>
        <time>2021-05-24T06:41:59Z</time>
      </trkpt>
      <trkpt lat="42.8364060" lon="-8.5969580">
        <ele>177.0</ele>
        <time>2021-05-24T06:42:00Z</time>
      </trkpt>
      <trkpt lat="42.8364110" lon="-8.5969450">
        <ele>177.0</ele>
        <time>2021-05-24T06:42:01Z</time>
      </trkpt>
      <trkpt lat="42.8364030" lon="-8.5969280">
        <ele>177.0</ele>
        <time>2021-05-24T06:42:02Z</time>
      </trkpt>
      <trkpt lat="42.8364090" lon="-8.5969110">
        <ele>177.0</ele>
        <time>2021-05-24T06:42:03Z</time>
      </trkpt>
      <trkpt lat="42.8364080" lon="-8.5968960">
        <ele>177.0</ele>
        <time>2021-05-24T06:42:04Z</time>
      </trkpt>
      <trkpt lat="42.8364150" lon="-8.5968590">
        <ele>177.0</ele>
        <time>2021-05-24T06:42:05Z</time>
      </trkpt>
      <trkpt lat="42.8364190" lon="-8.5968490">
        <ele>177.0</ele>
        <time>2021-05-24T06:42:06Z</time>
      </trkpt>
      <trkpt lat="42.8364160" lon="-8.5968270">
        <ele>177.0</ele>
        <time>2021-05-24T06:42:07Z</time>
      </trkpt>
      <trkpt lat="42.8364210" lon="-8.5968060">
        <ele>177.0</ele>
        <time>2021-05-24T06:42:08Z</time>
      </trkpt>
      <trkpt lat="42.8364320" lon="-8.5967760">
        <ele>177.0</ele>
        <time>2021-05-24T06:42:09Z</time>
      </trkpt>
      <trkpt lat="42.8364330" lon="-8.5967620">
        <ele>177.0</ele>
        <time>2021-05-24T06:42:10Z</time>
      </trkpt>
      <trkpt lat="42.8364350" lon="-8.5967470">
        <ele>177.0</ele>
        <time>2021-05-24T06:42:11Z</time>
      </trkpt>
      <trkpt lat="42.8364300" lon="-8.5967330">
        <ele>177.0</ele>
        <time>2021-05-24T06:42:12Z</time>
      </trkpt>
      <trkpt lat="42.8364280" lon="-8.5967170">
        <ele>177.0</ele>
        <time>2021-05-24T06:42:13Z</time>
      </trkpt>
      <trkpt lat="42.8364320" lon="-8.5967040">
        <ele>177.0</ele>
        <time>2021-05-24T06:42:14Z</time>
      </trkpt>
      <trkpt lat="42.8364370" lon="-8.5966780">
        <ele>177.0</ele>
        <time>2021-05-24T06:42:15Z</time>
      </trkpt>
      <trkpt lat="42.8364430" lon="-8.5966680">
        <ele>177.0</ele>
        <time>2021-05-24T06:42:16Z</time>
      </trkpt>
      <trkpt lat="42.8364480" lon="-8.5966570">
        <ele>177.0</ele>
        <time>2021-05-24T06:42:17Z</time>
      </trkpt>
      <trkpt lat="42.8364610" lon="-8.5966220">
        <ele>176.9</ele>
        <time>2021-05-24T06:42:18Z</time>
      </trkpt>
      <trkpt lat="42.8364630" lon="-8.5966080">
        <ele>176.9</ele>
        <time>2021-05-24T06:42:19Z</time>
      </trkpt>
      <trkpt lat="42.8364720" lon="-8.5965930">
        <ele>176.9</ele>
        <time>2021-05-24T06:42:20Z</time>
      </trkpt>
      <trkpt lat="42.8364740" lon="-8.5965720">
        <ele>176.9</ele>
        <time>2021-05-24T06:42:21Z</time>
      </trkpt>
      <trkpt lat="42.8364730" lon="-8.5965650">
        <ele>176.9</ele>
        <time>2021-05-24T06:42:22Z</time>
      </trkpt>
      <trkpt lat="42.8364730" lon="-8.5965470">
        <ele>176.9</ele>
        <time>2021-05-24T06:42:23Z</time>
      </trkpt>
      <trkpt lat="42.8364740" lon="-8.5965330">
        <ele>176.9</ele>
        <time>2021-05-24T06:42:24Z</time>
      </trkpt>
      <trkpt lat="42.8364820" lon="-8.5964990">
        <ele>176.9</ele>
        <time>2021-05-24T06:42:25Z</time>
      </trkpt>
      <trkpt lat="42.8364850" lon="-8.5964830">
        <ele>176.9</ele>
        <time>2021-05-24T06:42:26Z</time>
      </trkpt>
      <trkpt lat="42.8364880" lon="-8.5964680">
        <ele>176.9</ele>
        <time>2021-05-24T06:42:27Z</time>
      </trkpt>
      <trkpt lat="42.8364900" lon="-8.5964390">
        <ele>176.9</ele>
        <time>2021-05-24T06:42:28Z</time>
      </trkpt>
      <trkpt lat="42.8364930" lon="-8.5964230">
        <ele>176.9</ele>
        <time>2021-05-24T06:42:29Z</time>
      </trkpt>
      <trkpt lat="42.8364970" lon="-8.5964060">
        <ele>176.9</ele>
        <time>2021-05-24T06:42:30Z</time>
      </trkpt>
      <trkpt lat="42.8364990" lon="-8.5964000">
        <ele>176.9</ele>
        <time>2021-05-24T06:42:31Z</time>
      </trkpt>
      <trkpt lat="42.8365040" lon="-8.5963950">
        <ele>176.9</ele>
        <time>2021-05-24T06:42:32Z</time>
      </trkpt>
      <trkpt lat="42.8364980" lon="-8.5963870">
        <ele>176.9</ele>
        <time>2021-05-24T06:42:33Z</time>
      </trkpt>
      <trkpt lat="42.8365120" lon="-8.5963680">
        <ele>176.9</ele>
        <time>2021-05-24T06:42:34Z</time>
      </trkpt>
      <trkpt lat="42.8365150" lon="-8.5963360">
        <ele>176.9</ele>
        <time>2021-05-24T06:42:35Z</time>
      </trkpt>
      <trkpt lat="42.8365160" lon="-8.5963270">
        <ele>176.9</ele>
        <time>2021-05-24T06:42:36Z</time>
      </trkpt>
      <trkpt lat="42.8365160" lon="-8.5963180">
        <ele>176.9</ele>
        <time>2021-05-24T06:42:37Z</time>
      </trkpt>
      <trkpt lat="42.8365160" lon="-8.5963090">
        <ele>176.9</ele>
        <time>2021-05-24T06:42:38Z</time>
      </trkpt>
      <trkpt lat="42.8365240" lon="-8.5962820">
        <ele>176.9</ele>
        <time>2021-05-24T06:42:39Z</time>
      </trkpt>
      <trkpt lat="42.8365200" lon="-8.5962710">
        <ele>176.9</ele>
        <time>2021-05-24T06:42:40Z</time>
      </trkpt>
      <trkpt lat="42.8365170" lon="-8.5962590">
        <ele>176.9</ele>
        <time>2021-05-24T06:42:41Z</time>
      </trkpt>
      <trkpt lat="42.8365160" lon="-8.5962410">
        <ele>177.0</ele>
        <time>2021-05-24T06:42:42Z</time>
      </trkpt>
      <trkpt lat="42.8365100" lon="-8.5962410">
        <ele>177.0</ele>
        <time>2021-05-24T06:42:43Z</time>
      </trkpt>
      <trkpt lat="42.8365240" lon="-8.5962210">
        <ele>177.0</ele>
        <time>2021-05-24T06:42:44Z</time>
      </trkpt>
      <trkpt lat="42.8365270" lon="-8.5961930">
        <ele>177.0</ele>
        <time>2021-05-24T06:42:45Z</time>
      </trkpt>
      <trkpt lat="42.8365350" lon="-8.5961810">
        <ele>177.0</ele>
        <time>2021-05-24T06:42:46Z</time>
      </trkpt>
      <trkpt lat="42.8365390" lon="-8.5961600">
        <ele>177.0</ele>
        <time>2021-05-24T06:42:47Z</time>
      </trkpt>
      <trkpt lat="42.8365470" lon="-8.5961450">
        <ele>177.0</ele>
        <time>2021-05-24T06:42:48Z</time>
      </trkpt>
      <trkpt lat="42.8365420" lon="-8.5961330">
        <ele>177.0</ele>
        <time>2021-05-24T06:42:49Z</time>
      </trkpt>
      <trkpt lat="42.8365440" lon="-8.5961130">
        <ele>177.1</ele>
        <time>2021-05-24T06:42:50Z</time>
      </trkpt>
      <trkpt lat="42.8365400" lon="-8.5961030">
        <ele>177.1</ele>
        <time>2021-05-24T06:42:51Z</time>
      </trkpt>
      <trkpt lat="42.8365440" lon="-8.5960850">
        <ele>177.1</ele>
        <time>2021-05-24T06:42:52Z</time>
      </trkpt>
      <trkpt lat="42.8365520" lon="-8.5960690">
        <ele>177.1</ele>
        <time>2021-05-24T06:42:53Z</time>
      </trkpt>
      <trkpt lat="42.8365520" lon="-8.5960260">
        <ele>177.1</ele>
        <time>2021-05-24T06:42:54Z</time>
      </trkpt>
      <trkpt lat="42.8365440" lon="-8.5960160">
        <ele>177.2</ele>
        <time>2021-05-24T06:42:55Z</time>
      </trkpt>
      <trkpt lat="42.8365520" lon="-8.5959890">
        <ele>177.2</ele>
        <time>2021-05-24T06:42:56Z</time>
      </trkpt>
      <trkpt lat="42.8365540" lon="-8.5959730">
        <ele>177.2</ele>
        <time>2021-05-24T06:42:57Z</time>
      </trkpt>
      <trkpt lat="42.8365550" lon="-8.5959570">
        <ele>177.2</ele>
        <time>2021-05-24T06:42:58Z</time>
      </trkpt>
      <trkpt lat="42.8365640" lon="-8.5959400">
        <ele>177.3</ele>
        <time>2021-05-24T06:42:59Z</time>
      </trkpt>
      <trkpt lat="42.8365780" lon="-8.5959270">
        <ele>177.3</ele>
        <time>2021-05-24T06:43:00Z</time>
      </trkpt>
      <trkpt lat="42.8365860" lon="-8.5958950">
        <ele>177.3</ele>
        <time>2021-05-24T06:43:01Z</time>
      </trkpt>
      <trkpt lat="42.8365860" lon="-8.5958820">
        <ele>177.4</ele>
        <time>2021-05-24T06:43:02Z</time>
      </trkpt>
      <trkpt lat="42.8365850" lon="-8.5958690">
        <ele>177.4</ele>
        <time>2021-05-24T06:43:03Z</time>
      </trkpt>
      <trkpt lat="42.8365850" lon="-8.5958570">
        <ele>177.4</ele>
        <time>2021-05-24T06:43:04Z</time>
      </trkpt>
      <trkpt lat="42.8365920" lon="-8.5958420">
        <ele>177.4</ele>
        <time>2021-05-24T06:43:05Z</time>
      </trkpt>
      <trkpt lat="42.8365960" lon="-8.5958240">
        <ele>177.5</ele>
        <time>2021-05-24T06:43:06Z</time>
      </trkpt>
      <trkpt lat="42.8365970" lon="-8.5958000">
        <ele>177.5</ele>
        <time>2021-05-24T06:43:07Z</time>
      </trkpt>
      <trkpt lat="42.8365980" lon="-8.5957860">
        <ele>177.5</ele>
        <time>2021-05-24T06:43:08Z</time>
      </trkpt>
      <trkpt lat="42.8365980" lon="-8.5957720">
        <ele>177.6</ele>
        <time>2021-05-24T06:43:09Z</time>
      </trkpt>
      <trkpt lat="42.8365990" lon="-8.5957580">
        <ele>177.6</ele>
        <time>2021-05-24T06:43:10Z</time>
      </trkpt>
      <trkpt lat="42.8366060" lon="-8.5957280">
        <ele>177.7</ele>
        <time>2021-05-24T06:43:11Z</time>
      </trkpt>
      <trkpt lat="42.8366070" lon="-8.5957170">
        <ele>177.7</ele>
        <time>2021-05-24T06:43:12Z</time>
      </trkpt>
      <trkpt lat="42.8366090" lon="-8.5957070">
        <ele>177.7</ele>
        <time>2021-05-24T06:43:13Z</time>
      </trkpt>
      <trkpt lat="42.8366100" lon="-8.5956850">
        <ele>177.8</ele>
        <time>2021-05-24T06:43:14Z</time>
      </trkpt>
      <trkpt lat="42.8366080" lon="-8.5956750">
        <ele>177.8</ele>
        <time>2021-05-24T06:43:15Z</time>
      </trkpt>
      <trkpt lat="42.8366060" lon="-8.5956640">
        <ele>177.8</ele>
        <time>2021-05-24T06:43:16Z</time>
      </trkpt>
      <trkpt lat="42.8366040" lon="-8.5956540">
        <ele>177.8</ele>
        <time>2021-05-24T06:43:17Z</time>
      </trkpt>
      <trkpt lat="42.8366020" lon="-8.5956430">
        <ele>177.9</ele>
        <time>2021-05-24T06:43:18Z</time>
      </trkpt>
      <trkpt lat="42.8366020" lon="-8.5956400">
        <ele>177.9</ele>
        <time>2021-05-24T06:43:19Z</time>
      </trkpt>
      <trkpt lat="42.8365950" lon="-8.5956170">
        <ele>178.0</ele>
        <time>2021-05-24T06:43:20Z</time>
      </trkpt>
      <trkpt lat="42.8365940" lon="-8.5956120">
        <ele>178.0</ele>
        <time>2021-05-24T06:43:21Z</time>
      </trkpt>
      <trkpt lat="42.8365900" lon="-8.5955970">
        <ele>178.0</ele>
        <time>2021-05-24T06:43:22Z</time>
      </trkpt>
      <trkpt lat="42.8365860" lon="-8.5955810">
        <ele>178.1</ele>
        <time>2021-05-24T06:43:23Z</time>
      </trkpt>
      <trkpt lat="42.8365890" lon="-8.5955470">
        <ele>178.2</ele>
        <time>2021-05-24T06:43:24Z</time>
      </trkpt>
      <trkpt lat="42.8365890" lon="-8.5955210">
        <ele>178.3</ele>
        <time>2021-05-24T06:43:25Z</time>
      </trkpt>
      <trkpt lat="42.8365890" lon="-8.5955080">
        <ele>178.3</ele>
        <time>2021-05-24T06:43:26Z</time>
      </trkpt>
      <trkpt lat="42.8365850" lon="-8.5954850">
        <ele>178.4</ele>
        <time>2021-05-24T06:43:27Z</time>
      </trkpt>
      <trkpt lat="42.8365880" lon="-8.5954750">
        <ele>178.5</ele>
        <time>2021-05-24T06:43:28Z</time>
      </trkpt>
      <trkpt lat="42.8365900" lon="-8.5954660">
        <ele>178.5</ele>
        <time>2021-05-24T06:43:29Z</time>
      </trkpt>
      <trkpt lat="42.8365920" lon="-8.5954560">
        <ele>178.5</ele>
        <time>2021-05-24T06:43:30Z</time>
      </trkpt>
      <trkpt lat="42.8365930" lon="-8.5954400">
        <ele>178.6</ele>
        <time>2021-05-24T06:43:31Z</time>
      </trkpt>
      <trkpt lat="42.8365920" lon="-8.5954360">
        <ele>178.6</ele>
        <time>2021-05-24T06:43:32Z</time>
      </trkpt>
      <trkpt lat="42.8365870" lon="-8.5954290">
        <ele>178.7</ele>
        <time>2021-05-24T06:43:33Z</time>
      </trkpt>
      <trkpt lat="42.8365780" lon="-8.5954120">
        <ele>178.8</ele>
        <time>2021-05-24T06:43:34Z</time>
      </trkpt>
      <trkpt lat="42.8365750" lon="-8.5954080">
        <ele>178.8</ele>
        <time>2021-05-24T06:43:35Z</time>
      </trkpt>
      <trkpt lat="42.8365690" lon="-8.5953860">
        <ele>178.9</ele>
        <time>2021-05-24T06:43:36Z</time>
      </trkpt>
      <trkpt lat="42.8365720" lon="-8.5953710">
        <ele>179.0</ele>
        <time>2021-05-24T06:43:37Z</time>
      </trkpt>
      <trkpt lat="42.8365640" lon="-8.5953550">
        <ele>179.1</ele>
        <time>2021-05-24T06:43:38Z</time>
      </trkpt>
      <trkpt lat="42.8365520" lon="-8.5953450">
        <ele>179.2</ele>
        <time>2021-05-24T06:43:39Z</time>
      </trkpt>
      <trkpt lat="42.8365410" lon="-8.5953080">
        <ele>179.4</ele>
        <time>2021-05-24T06:43:40Z</time>
      </trkpt>
      <trkpt lat="42.8365370" lon="-8.5952950">
        <ele>179.4</ele>
        <time>2021-05-24T06:43:41Z</time>
      </trkpt>
      <trkpt lat="42.8365360" lon="-8.5952670">
        <ele>179.6</ele>
        <time>2021-05-24T06:43:42Z</time>
      </trkpt>
      <trkpt lat="42.8365390" lon="-8.5952570">
        <ele>179.7</ele>
        <time>2021-05-24T06:43:43Z</time>
      </trkpt>
      <trkpt lat="42.8365430" lon="-8.5952460">
        <ele>179.7</ele>
        <time>2021-05-24T06:43:44Z</time>
      </trkpt>
      <trkpt lat="42.8365500" lon="-8.5952130">
        <ele>179.9</ele>
        <time>2021-05-24T06:43:45Z</time>
      </trkpt>
      <trkpt lat="42.8365470" lon="-8.5951980">
        <ele>180.0</ele>
        <time>2021-05-24T06:43:46Z</time>
      </trkpt>
      <trkpt lat="42.8365430" lon="-8.5951840">
        <ele>180.1</ele>
        <time>2021-05-24T06:43:47Z</time>
      </trkpt>
      <trkpt lat="42.8365300" lon="-8.5951690">
        <ele>180.3</ele>
        <time>2021-05-24T06:43:48Z</time>
      </trkpt>
      <trkpt lat="42.8365250" lon="-8.5951520">
        <ele>180.4</ele>
        <time>2021-05-24T06:43:49Z</time>
      </trkpt>
      <trkpt lat="42.8365250" lon="-8.5951350">
        <ele>180.5</ele>
        <time>2021-05-24T06:43:50Z</time>
      </trkpt>
      <trkpt lat="42.8365240" lon="-8.5951150">
        <ele>180.7</ele>
        <time>2021-05-24T06:43:51Z</time>
      </trkpt>
      <trkpt lat="42.8365020" lon="-8.5950970">
        <ele>181.0</ele>
        <time>2021-05-24T06:43:52Z</time>
      </trkpt>
      <trkpt lat="42.8365030" lon="-8.5950850">
        <ele>181.0</ele>
        <time>2021-05-24T06:43:53Z</time>
      </trkpt>
      <trkpt lat="42.8364920" lon="-8.5950690">
        <ele>181.2</ele>
        <time>2021-05-24T06:43:54Z</time>
      </trkpt>
      <trkpt lat="42.8364850" lon="-8.5950530">
        <ele>181.4</ele>
        <time>2021-05-24T06:43:55Z</time>
      </trkpt>
      <trkpt lat="42.8364760" lon="-8.5950390">
        <ele>181.5</ele>
        <time>2021-05-24T06:43:56Z</time>
      </trkpt>
      <trkpt lat="42.8364610" lon="-8.5950160">
        <ele>181.8</ele>
        <time>2021-05-24T06:43:57Z</time>
      </trkpt>
      <trkpt lat="42.8364530" lon="-8.5950040">
        <ele>181.9</ele>
        <time>2021-05-24T06:43:58Z</time>
      </trkpt>
      <trkpt lat="42.8364510" lon="-8.5949920">
        <ele>182.0</ele>
        <time>2021-05-24T06:43:59Z</time>
      </trkpt>
      <trkpt lat="42.8364480" lon="-8.5949810">
        <ele>182.1</ele>
        <time>2021-05-24T06:44:00Z</time>
      </trkpt>
      <trkpt lat="42.8364450" lon="-8.5949690">
        <ele>182.2</ele>
        <time>2021-05-24T06:44:01Z</time>
      </trkpt>
      <trkpt lat="42.8364400" lon="-8.5949570">
        <ele>182.3</ele>
        <time>2021-05-24T06:44:02Z</time>
      </trkpt>
      <trkpt lat="42.8364300" lon="-8.5949410">
        <ele>182.5</ele>
        <time>2021-05-24T06:44:03Z</time>
      </trkpt>
      <trkpt lat="42.8364320" lon="-8.5949280">
        <ele>182.6</ele>
        <time>2021-05-24T06:44:04Z</time>
      </trkpt>
      <trkpt lat="42.8364270" lon="-8.5949180">
        <ele>182.7</ele>
        <time>2021-05-24T06:44:05Z</time>
      </trkpt>
      <trkpt lat="42.8364180" lon="-8.5949080">
        <ele>182.8</ele>
        <time>2021-05-24T06:44:06Z</time>
      </trkpt>
      <trkpt lat="42.8364120" lon="-8.5948940">
        <ele>183.0</ele>
        <time>2021-05-24T06:44:07Z</time>
      </trkpt>
      <trkpt lat="42.8364110" lon="-8.5948820">
        <ele>183.1</ele>
        <time>2021-05-24T06:44:08Z</time>
      </trkpt>
      <trkpt lat="42.8363980" lon="-8.5948670">
        <ele>183.3</ele>
        <time>2021-05-24T06:44:09Z</time>
      </trkpt>
      <trkpt lat="42.8363910" lon="-8.5948560">
        <ele>183.4</ele>
        <time>2021-05-24T06:44:10Z</time>
      </trkpt>
      <trkpt lat="42.8363840" lon="-8.5948430">
        <ele>183.5</ele>
        <time>2021-05-24T06:44:11Z</time>
      </trkpt>
      <trkpt lat="42.8363790" lon="-8.5948260">
        <ele>183.6</ele>
        <time>2021-05-24T06:44:12Z</time>
      </trkpt>
      <trkpt lat="42.8363780" lon="-8.5948140">
        <ele>183.7</ele>
        <time>2021-05-24T06:44:13Z</time>
      </trkpt>
      <trkpt lat="42.8363740" lon="-8.5947800">
        <ele>184.0</ele>
        <time>2021-05-24T06:44:14Z</time>
      </trkpt>
      <trkpt lat="42.8363760" lon="-8.5947710">
        <ele>184.0</ele>
        <time>2021-05-24T06:44:15Z</time>
      </trkpt>
      <trkpt lat="42.8363790" lon="-8.5947610">
        <ele>184.1</ele>
        <time>2021-05-24T06:44:16Z</time>
      </trkpt>
      <trkpt lat="42.8363800" lon="-8.5947460">
        <ele>184.2</ele>
        <time>2021-05-24T06:44:17Z</time>
      </trkpt>
      <trkpt lat="42.8363800" lon="-8.5947350">
        <ele>184.3</ele>
        <time>2021-05-24T06:44:18Z</time>
      </trkpt>
      <trkpt lat="42.8363800" lon="-8.5947200">
        <ele>184.4</ele>
        <time>2021-05-24T06:44:19Z</time>
      </trkpt>
      <trkpt lat="42.8363820" lon="-8.5947150">
        <ele>184.4</ele>
        <time>2021-05-24T06:44:20Z</time>
      </trkpt>
      <trkpt lat="42.8363910" lon="-8.5947060">
        <ele>184.5</ele>
        <time>2021-05-24T06:44:21Z</time>
      </trkpt>
      <trkpt lat="42.8363970" lon="-8.5946880">
        <ele>184.6</ele>
        <time>2021-05-24T06:44:22Z</time>
      </trkpt>
      <trkpt lat="42.8363970" lon="-8.5946750">
        <ele>184.7</ele>
        <time>2021-05-24T06:44:23Z</time>
      </trkpt>
      <trkpt lat="42.8363900" lon="-8.5946540">
        <ele>184.9</ele>
        <time>2021-05-24T06:44:24Z</time>
      </trkpt>
      <trkpt lat="42.8363880" lon="-8.5946410">
        <ele>185.0</ele>
        <time>2021-05-24T06:44:25Z</time>
      </trkpt>
      <trkpt lat="42.8363800" lon="-8.5946220">
        <ele>185.1</ele>
        <time>2021-05-24T06:44:26Z</time>
      </trkpt>
      <trkpt lat="42.8363790" lon="-8.5946010">
        <ele>185.2</ele>
        <time>2021-05-24T06:44:27Z</time>
      </trkpt>
      <trkpt lat="42.8363780" lon="-8.5945930">
        <ele>185.3</ele>
        <time>2021-05-24T06:44:28Z</time>
      </trkpt>
      <trkpt lat="42.8363740" lon="-8.5945770">
        <ele>185.3</ele>
        <time>2021-05-24T06:44:29Z</time>
      </trkpt>
      <trkpt lat="42.8363850" lon="-8.5945600">
        <ele>185.5</ele>
        <time>2021-05-24T06:44:30Z</time>
      </trkpt>
      <trkpt lat="42.8363800" lon="-8.5945580">
        <ele>185.5</ele>
        <time>2021-05-24T06:44:31Z</time>
      </trkpt>
      <trkpt lat="42.8363790" lon="-8.5945400">
        <ele>185.6</ele>
        <time>2021-05-24T06:44:32Z</time>
      </trkpt>
      <trkpt lat="42.8363790" lon="-8.5945160">
        <ele>185.8</ele>
        <time>2021-05-24T06:44:33Z</time>
      </trkpt>
      <trkpt lat="42.8363850" lon="-8.5944980">
        <ele>185.9</ele>
        <time>2021-05-24T06:44:34Z</time>
      </trkpt>
      <trkpt lat="42.8363940" lon="-8.5944730">
        <ele>186.0</ele>
        <time>2021-05-24T06:44:35Z</time>
      </trkpt>
      <trkpt lat="42.8363970" lon="-8.5944430">
        <ele>186.2</ele>
        <time>2021-05-24T06:44:36Z</time>
      </trkpt>
      <trkpt lat="42.8363990" lon="-8.5944320">
        <ele>186.2</ele>
        <time>2021-05-24T06:44:37Z</time>
      </trkpt>
      <trkpt lat="42.8364000" lon="-8.5944210">
        <ele>186.3</ele>
        <time>2021-05-24T06:44:38Z</time>
      </trkpt>
      <trkpt lat="42.8364000" lon="-8.5943920">
        <ele>186.5</ele>
        <time>2021-05-24T06:44:39Z</time>
      </trkpt>
      <trkpt lat="42.8364020" lon="-8.5943790">
        <ele>186.5</ele>
        <time>2021-05-24T06:44:40Z</time>
      </trkpt>
      <trkpt lat="42.8364030" lon="-8.5943660">
        <ele>186.6</ele>
        <time>2021-05-24T06:44:41Z</time>
      </trkpt>
      <trkpt lat="42.8363990" lon="-8.5943530">
        <ele>186.7</ele>
        <time>2021-05-24T06:44:42Z</time>
      </trkpt>
      <trkpt lat="42.8364060" lon="-8.5943390">
        <ele>186.8</ele>
        <time>2021-05-24T06:44:43Z</time>
      </trkpt>
      <trkpt lat="42.8364060" lon="-8.5943190">
        <ele>186.9</ele>
        <time>2021-05-24T06:44:44Z</time>
      </trkpt>
      <trkpt lat="42.8364160" lon="-8.5942880">
        <ele>187.1</ele>
        <time>2021-05-24T06:44:45Z</time>
      </trkpt>
      <trkpt lat="42.8364200" lon="-8.5942710">
        <ele>187.2</ele>
        <time>2021-05-24T06:44:46Z</time>
      </trkpt>
      <trkpt lat="42.8364140" lon="-8.5942640">
        <ele>187.2</ele>
        <time>2021-05-24T06:44:47Z</time>
      </trkpt>
      <trkpt lat="42.8364160" lon="-8.5942480">
        <ele>187.3</ele>
        <time>2021-05-24T06:44:48Z</time>
      </trkpt>
      <trkpt lat="42.8364190" lon="-8.5942310">
        <ele>187.4</ele>
        <time>2021-05-24T06:44:49Z</time>
      </trkpt>
      <trkpt lat="42.8364260" lon="-8.5942170">
        <ele>187.5</ele>
        <time>2021-05-24T06:44:50Z</time>
      </trkpt>
      <trkpt lat="42.8364330" lon="-8.5941950">
        <ele>187.7</ele>
        <time>2021-05-24T06:44:51Z</time>
      </trkpt>
      <trkpt lat="42.8364350" lon="-8.5941690">
        <ele>187.8</ele>
        <time>2021-05-24T06:44:52Z</time>
      </trkpt>
      <trkpt lat="42.8364370" lon="-8.5941580">
        <ele>187.9</ele>
        <time>2021-05-24T06:44:53Z</time>
      </trkpt>
      <trkpt lat="42.8364430" lon="-8.5941480">
        <ele>188.0</ele>
        <time>2021-05-24T06:44:54Z</time>
      </trkpt>
      <trkpt lat="42.8364460" lon="-8.5941270">
        <ele>188.1</ele>
        <time>2021-05-24T06:44:55Z</time>
      </trkpt>
      <trkpt lat="42.8364550" lon="-8.5941150">
        <ele>188.2</ele>
        <time>2021-05-24T06:44:56Z</time>
      </trkpt>
      <trkpt lat="42.8364590" lon="-8.5941040">
        <ele>188.3</ele>
        <time>2021-05-24T06:44:57Z</time>
      </trkpt>
      <trkpt lat="42.8364640" lon="-8.5940810">
        <ele>188.4</ele>
        <time>2021-05-24T06:44:58Z</time>
      </trkpt>
      <trkpt lat="42.8364670" lon="-8.5940680">
        <ele>188.5</ele>
        <time>2021-05-24T06:44:59Z</time>
      </trkpt>
      <trkpt lat="42.8364670" lon="-8.5940570">
        <ele>188.6</ele>
        <time>2021-05-24T06:45:00Z</time>
      </trkpt>
      <trkpt lat="42.8364750" lon="-8.5940430">
        <ele>188.7</ele>
        <time>2021-05-24T06:45:01Z</time>
      </trkpt>
      <trkpt lat="42.8364840" lon="-8.5940200">
        <ele>188.9</ele>
        <time>2021-05-24T06:45:02Z</time>
      </trkpt>
      <trkpt lat="42.8364870" lon="-8.5940080">
        <ele>189.0</ele>
        <time>2021-05-24T06:45:03Z</time>
      </trkpt>
      <trkpt lat="42.8364890" lon="-8.5939970">
        <ele>189.1</ele>
        <time>2021-05-24T06:45:04Z</time>
      </trkpt>
      <trkpt lat="42.8364910" lon="-8.5939850">
        <ele>189.2</ele>
        <time>2021-05-24T06:45:05Z</time>
      </trkpt>
      <trkpt lat="42.8364900" lon="-8.5939620">
        <ele>189.4</ele>
        <time>2021-05-24T06:45:06Z</time>
      </trkpt>
      <trkpt lat="42.8364850" lon="-8.5939480">
        <ele>189.5</ele>
        <time>2021-05-24T06:45:07Z</time>
      </trkpt>
      <trkpt lat="42.8364810" lon="-8.5939350">
        <ele>189.6</ele>
        <time>2021-05-24T06:45:08Z</time>
      </trkpt>
      <trkpt lat="42.8364700" lon="-8.5939180">
        <ele>189.8</ele>
        <time>2021-05-24T06:45:09Z</time>
      </trkpt>
      <trkpt lat="42.8364620" lon="-8.5938990">
        <ele>190.0</ele>
        <time>2021-05-24T06:45:10Z</time>
      </trkpt>
      <trkpt lat="42.8364650" lon="-8.5938930">
        <ele>190.0</ele>
        <time>2021-05-24T06:45:11Z</time>
      </trkpt>
      <trkpt lat="42.8364700" lon="-8.5938830">
        <ele>190.2</ele>
        <time>2021-05-24T06:45:12Z</time>
      </trkpt>
      <trkpt lat="42.8364750" lon="-8.5938630">
        <ele>190.3</ele>
        <time>2021-05-24T06:45:13Z</time>
      </trkpt>
      <trkpt lat="42.8364720" lon="-8.5938420">
        <ele>190.5</ele>
        <time>2021-05-24T06:45:14Z</time>
      </trkpt>
      <trkpt lat="42.8364760" lon="-8.5938330">
        <ele>190.6</ele>
        <time>2021-05-24T06:45:15Z</time>
      </trkpt>
      <trkpt lat="42.8364720" lon="-8.5938190">
        <ele>190.7</ele>
        <time>2021-05-24T06:45:16Z</time>
      </trkpt>
      <trkpt lat="42.8364650" lon="-8.5938070">
        <ele>190.9</ele>
        <time>2021-05-24T06:45:17Z</time>
      </trkpt>
      <trkpt lat="42.8364700" lon="-8.5937840">
        <ele>191.1</ele>
        <time>2021-05-24T06:45:18Z</time>
      </trkpt>
      <trkpt lat="42.8364700" lon="-8.5937710">
        <ele>191.2</ele>
        <time>2021-05-24T06:45:19Z</time>
      </trkpt>
      <trkpt lat="42.8364710" lon="-8.5937480">
        <ele>191.4</ele>
        <time>2021-05-24T06:45:20Z</time>
      </trkpt>
      <trkpt lat="42.8364700" lon="-8.5937310">
        <ele>191.6</ele>
        <time>2021-05-24T06:45:21Z</time>
      </trkpt>
      <trkpt lat="42.8364680" lon="-8.5937100">
        <ele>191.7</ele>
        <time>2021-05-24T06:45:22Z</time>
      </trkpt>
      <trkpt lat="42.8364690" lon="-8.5937020">
        <ele>191.8</ele>
        <time>2021-05-24T06:45:23Z</time>
      </trkpt>
      <trkpt lat="42.8364670" lon="-8.5936930">
        <ele>191.9</ele>
        <time>2021-05-24T06:45:24Z</time>
      </trkpt>
      <trkpt lat="42.8364600" lon="-8.5936770">
        <ele>192.1</ele>
        <time>2021-05-24T06:45:25Z</time>
      </trkpt>
      <trkpt lat="42.8364530" lon="-8.5936550">
        <ele>192.2</ele>
        <time>2021-05-24T06:45:26Z</time>
      </trkpt>
      <trkpt lat="42.8364410" lon="-8.5936390">
        <ele>192.4</ele>
        <time>2021-05-24T06:45:27Z</time>
      </trkpt>
      <trkpt lat="42.8364310" lon="-8.5936280">
        <ele>192.6</ele>
        <time>2021-05-24T06:45:28Z</time>
      </trkpt>
      <trkpt lat="42.8364300" lon="-8.5936110">
        <ele>192.7</ele>
        <time>2021-05-24T06:45:29Z</time>
      </trkpt>
      <trkpt lat="42.8364290" lon="-8.5935940">
        <ele>192.8</ele>
        <time>2021-05-24T06:45:30Z</time>
      </trkpt>
      <trkpt lat="42.8364310" lon="-8.5935820">
        <ele>192.9</ele>
        <time>2021-05-24T06:45:31Z</time>
      </trkpt>
      <trkpt lat="42.8364250" lon="-8.5935550">
        <ele>193.1</ele>
        <time>2021-05-24T06:45:32Z</time>
      </trkpt>
      <trkpt lat="42.8364230" lon="-8.5935420">
        <ele>193.2</ele>
        <time>2021-05-24T06:45:33Z</time>
      </trkpt>
      <trkpt lat="42.8364210" lon="-8.5935300">
        <ele>193.2</ele>
        <time>2021-05-24T06:45:34Z</time>
      </trkpt>
      <trkpt lat="42.8364180" lon="-8.5935200">
        <ele>193.3</ele>
        <time>2021-05-24T06:45:35Z</time>
      </trkpt>
      <trkpt lat="42.8364130" lon="-8.5935040">
        <ele>193.4</ele>
        <time>2021-05-24T06:45:36Z</time>
      </trkpt>
      <trkpt lat="42.8364120" lon="-8.5934880">
        <ele>193.5</ele>
        <time>2021-05-24T06:45:37Z</time>
      </trkpt>
      <trkpt lat="42.8364140" lon="-8.5934740">
        <ele>193.6</ele>
        <time>2021-05-24T06:45:38Z</time>
      </trkpt>
      <trkpt lat="42.8364130" lon="-8.5934610">
        <ele>193.6</ele>
        <time>2021-05-24T06:45:39Z</time>
      </trkpt>
      <trkpt lat="42.8364190" lon="-8.5934480">
        <ele>193.7</ele>
        <time>2021-05-24T06:45:40Z</time>
      </trkpt>
      <trkpt lat="42.8364200" lon="-8.5934330">
        <ele>193.8</ele>
        <time>2021-05-24T06:45:41Z</time>
      </trkpt>
      <trkpt lat="42.8364230" lon="-8.5934180">
        <ele>193.9</ele>
        <time>2021-05-24T06:45:42Z</time>
      </trkpt>
      <trkpt lat="42.8364240" lon="-8.5934060">
        <ele>194.1</ele>
        <time>2021-05-24T06:45:43Z</time>
      </trkpt>
      <trkpt lat="42.8364270" lon="-8.5933910">
        <ele>194.2</ele>
        <time>2021-05-24T06:45:44Z</time>
      </trkpt>
      <trkpt lat="42.8364360" lon="-8.5933850">
        <ele>194.3</ele>
        <time>2021-05-24T06:45:45Z</time>
      </trkpt>
      <trkpt lat="42.8364460" lon="-8.5933740">
        <ele>194.4</ele>
        <time>2021-05-24T06:45:46Z</time>
      </trkpt>
      <trkpt lat="42.8364510" lon="-8.5933750">
        <ele>194.5</ele>
        <time>2021-05-24T06:45:47Z</time>
      </trkpt>
      <trkpt lat="42.8364580" lon="-8.5933740">
        <ele>194.5</ele>
        <time>2021-05-24T06:45:48Z</time>
      </trkpt>
      <trkpt lat="42.8364630" lon="-8.5933710">
        <ele>194.6</ele>
        <time>2021-05-24T06:45:49Z</time>
      </trkpt>
      <trkpt lat="42.8364640" lon="-8.5933710">
        <ele>194.6</ele>
        <time>2021-05-24T06:45:50Z</time>
      </trkpt>
      <trkpt lat="42.8364640" lon="-8.5933710">
        <ele>194.6</ele>
        <time>2021-05-24T06:45:51Z</time>
      </trkpt>
      <trkpt lat="42.8364620" lon="-8.5933640">
        <ele>194.6</ele>
        <time>2021-05-24T06:45:52Z</time>
      </trkpt>
      <trkpt lat="42.8364640" lon="-8.5933560">
        <ele>194.7</ele>
        <time>2021-05-24T06:45:53Z</time>
      </trkpt>
      <trkpt lat="42.8364680" lon="-8.5933600">
        <ele>194.7</ele>
        <time>2021-05-24T06:45:54Z</time>
      </trkpt>
      <trkpt lat="42.8364680" lon="-8.5933700">
        <ele>194.8</ele>
        <time>2021-05-24T06:45:55Z</time>
      </trkpt>
      <trkpt lat="42.8364580" lon="-8.5933670">
        <ele>194.9</ele>
        <time>2021-05-24T06:45:56Z</time>
      </trkpt>
      <trkpt lat="42.8364480" lon="-8.5933670">
        <ele>195.0</ele>
        <time>2021-05-24T06:45:57Z</time>
      </trkpt>
      <trkpt lat="42.8364490" lon="-8.5933700">
        <ele>195.0</ele>
        <time>2021-05-24T06:45:58Z</time>
      </trkpt>
      <trkpt lat="42.8364540" lon="-8.5933730">
        <ele>195.1</ele>
        <time>2021-05-24T06:45:59Z</time>
      </trkpt>
      <trkpt lat="42.8364540" lon="-8.5933730">
        <ele>195.1</ele>
        <time>2021-05-24T06:46:00Z</time>
      </trkpt>
      <trkpt lat="42.8364510" lon="-8.5933810">
        <ele>195.1</ele>
        <time>2021-05-24T06:46:01Z</time>
      </trkpt>
      <trkpt lat="42.8364540" lon="-8.5933830">
        <ele>195.2</ele>
        <time>2021-05-24T06:46:02Z</time>
      </trkpt>
      <trkpt lat="42.8364570" lon="-8.5933840">
        <ele>195.2</ele>
        <time>2021-05-24T06:46:03Z</time>
      </trkpt>
      <trkpt lat="42.8364620" lon="-8.5933890">
        <ele>195.3</ele>
        <time>2021-05-24T06:46:04Z</time>
      </trkpt>
      <trkpt lat="42.8364690" lon="-8.5933930">
        <ele>195.3</ele>
        <time>2021-05-24T06:46:05Z</time>
      </trkpt>
      <trkpt lat="42.8364680" lon="-8.5933890">
        <ele>195.4</ele>
        <time>2021-05-24T06:46:06Z</time>
      </trkpt>
      <trkpt lat="42.8364670" lon="-8.5933940">
        <ele>195.4</ele>
        <time>2021-05-24T06:46:07Z</time>
      </trkpt>
      <trkpt lat="42.8364660" lon="-8.5933870">
        <ele>195.5</ele>
        <time>2021-05-24T06:46:08Z</time>
      </trkpt>
      <trkpt lat="42.8364620" lon="-8.5933790">
        <ele>195.5</ele>
        <time>2021-05-24T06:46:09Z</time>
      </trkpt>
      <trkpt lat="42.8364560" lon="-8.5933740">
        <ele>195.6</ele>
        <time>2021-05-24T06:46:10Z</time>
      </trkpt>
      <trkpt lat="42.8364520" lon="-8.5933700">
        <ele>195.7</ele>
        <time>2021-05-24T06:46:11Z</time>
      </trkpt>
      <trkpt lat="42.8364550" lon="-8.5933760">
        <ele>195.7</ele>
        <time>2021-05-24T06:46:12Z</time>
      </trkpt>
      <trkpt lat="42.8364510" lon="-8.5933840">
        <ele>195.8</ele>
        <time>2021-05-24T06:46:13Z</time>
      </trkpt>
      <trkpt lat="42.8364610" lon="-8.5933900">
        <ele>196.0</ele>
        <time>2021-05-24T06:46:14Z</time>
      </trkpt>
      <trkpt lat="42.8364700" lon="-8.5933930">
        <ele>196.1</ele>
        <time>2021-05-24T06:46:15Z</time>
      </trkpt>
      <trkpt lat="42.8364750" lon="-8.5934000">
        <ele>196.1</ele>
        <time>2021-05-24T06:46:16Z</time>
      </trkpt>
      <trkpt lat="42.8364830" lon="-8.5934070">
        <ele>196.3</ele>
        <time>2021-05-24T06:46:17Z</time>
      </trkpt>
      <trkpt lat="42.8364990" lon="-8.5933990">
        <ele>196.5</ele>
        <time>2021-05-24T06:46:18Z</time>
      </trkpt>
      <trkpt lat="42.8365110" lon="-8.5934020">
        <ele>196.6</ele>
        <time>2021-05-24T06:46:19Z</time>
      </trkpt>
      <trkpt lat="42.8365200" lon="-8.5934080">
        <ele>196.8</ele>
        <time>2021-05-24T06:46:20Z</time>
      </trkpt>
      <trkpt lat="42.8365230" lon="-8.5934110">
        <ele>196.8</ele>
        <time>2021-05-24T06:46:21Z</time>
      </trkpt>
      <trkpt lat="42.8365330" lon="-8.5934120">
        <ele>196.9</ele>
        <time>2021-05-24T06:46:22Z</time>
      </trkpt>
      <trkpt lat="42.8365350" lon="-8.5934200">
        <ele>197.0</ele>
        <time>2021-05-24T06:46:23Z</time>
      </trkpt>
      <trkpt lat="42.8365470" lon="-8.5934220">
        <ele>197.2</ele>
        <time>2021-05-24T06:46:24Z</time>
      </trkpt>
      <trkpt lat="42.8365610" lon="-8.5934300">
        <ele>197.4</ele>
        <time>2021-05-24T06:46:25Z</time>
      </trkpt>
      <trkpt lat="42.8365700" lon="-8.5934340">
        <ele>197.5</ele>
        <time>2021-05-24T06:46:26Z</time>
      </trkpt>
      <trkpt lat="42.8365850" lon="-8.5934360">
        <ele>197.7</ele>
        <time>2021-05-24T06:46:27Z</time>
      </trkpt>
      <trkpt lat="42.8365960" lon="-8.5934390">
        <ele>197.8</ele>
        <time>2021-05-24T06:46:28Z</time>
      </trkpt>
      <trkpt lat="42.8366150" lon="-8.5934400">
        <ele>198.1</ele>
        <time>2021-05-24T06:46:29Z</time>
      </trkpt>
      <trkpt lat="42.8366240" lon="-8.5934440">
        <ele>198.2</ele>
        <time>2021-05-24T06:46:30Z</time>
      </trkpt>
      <trkpt lat="42.8366340" lon="-8.5934480">
        <ele>198.3</ele>
        <time>2021-05-24T06:46:31Z</time>
      </trkpt>
      <trkpt lat="42.8366430" lon="-8.5934520">
        <ele>198.5</ele>
        <time>2021-05-24T06:46:32Z</time>
      </trkpt>
      <trkpt lat="42.8366570" lon="-8.5934570">
        <ele>198.6</ele>
        <time>2021-05-24T06:46:33Z</time>
      </trkpt>
      <trkpt lat="42.8366730" lon="-8.5934680">
        <ele>198.9</ele>
        <time>2021-05-24T06:46:34Z</time>
      </trkpt>
      <trkpt lat="42.8366850" lon="-8.5934780">
        <ele>199.1</ele>
        <time>2021-05-24T06:46:35Z</time>
      </trkpt>
      <trkpt lat="42.8366930" lon="-8.5934840">
        <ele>199.2</ele>
        <time>2021-05-24T06:46:36Z</time>
      </trkpt>
      <trkpt lat="42.8367020" lon="-8.5934850">
        <ele>199.3</ele>
        <time>2021-05-24T06:46:37Z</time>
      </trkpt>
      <trkpt lat="42.8367120" lon="-8.5934810">
        <ele>199.4</ele>
        <time>2021-05-24T06:46:38Z</time>
      </trkpt>
      <trkpt lat="42.8367200" lon="-8.5934820">
        <ele>199.5</ele>
        <time>2021-05-24T06:46:39Z</time>
      </trkpt>
      <trkpt lat="42.8367310" lon="-8.5934760">
        <ele>199.7</ele>
        <time>2021-05-24T06:46:40Z</time>
      </trkpt>
      <trkpt lat="42.8367450" lon="-8.5934780">
        <ele>199.8</ele>
        <time>2021-05-24T06:46:41Z</time>
      </trkpt>
      <trkpt lat="42.8367520" lon="-8.5934710">
        <ele>199.9</ele>
        <time>2021-05-24T06:46:42Z</time>
      </trkpt>
      <trkpt lat="42.8367620" lon="-8.5934710">
        <ele>200.1</ele>
        <time>2021-05-24T06:46:43Z</time>
      </trkpt>
      <trkpt lat="42.8367790" lon="-8.5934660">
        <ele>200.3</ele>
        <time>2021-05-24T06:46:44Z</time>
      </trkpt>
      <trkpt lat="42.8367860" lon="-8.5934670">
        <ele>200.3</ele>
        <time>2021-05-24T06:46:45Z</time>
      </trkpt>
      <trkpt lat="42.8367930" lon="-8.5934670">
        <ele>200.4</ele>
        <time>2021-05-24T06:46:46Z</time>
      </trkpt>
      <trkpt lat="42.8368000" lon="-8.5934680">
        <ele>200.5</ele>
        <time>2021-05-24T06:46:47Z</time>
      </trkpt>
      <trkpt lat="42.8368070" lon="-8.5934620">
        <ele>200.6</ele>
        <time>2021-05-24T06:46:48Z</time>
      </trkpt>
      <trkpt lat="42.8368200" lon="-8.5934690">
        <ele>200.8</ele>
        <time>2021-05-24T06:46:49Z</time>
      </trkpt>
      <trkpt lat="42.8368300" lon="-8.5934540">
        <ele>200.9</ele>
        <time>2021-05-24T06:46:50Z</time>
      </trkpt>
      <trkpt lat="42.8368490" lon="-8.5934430">
        <ele>201.2</ele>
        <time>2021-05-24T06:46:51Z</time>
      </trkpt>
      <trkpt lat="42.8368590" lon="-8.5934400">
        <ele>201.3</ele>
        <time>2021-05-24T06:46:52Z</time>
      </trkpt>
      <trkpt lat="42.8368690" lon="-8.5934370">
        <ele>201.4</ele>
        <time>2021-05-24T06:46:53Z</time>
      </trkpt>
      <trkpt lat="42.8368800" lon="-8.5934270">
        <ele>201.6</ele>
        <time>2021-05-24T06:46:54Z</time>
      </trkpt>
      <trkpt lat="42.8368940" lon="-8.5934180">
        <ele>201.7</ele>
        <time>2021-05-24T06:46:55Z</time>
      </trkpt>
      <trkpt lat="42.8369050" lon="-8.5934170">
        <ele>201.9</ele>
        <time>2021-05-24T06:46:56Z</time>
      </trkpt>
      <trkpt lat="42.8369130" lon="-8.5934150">
        <ele>201.9</ele>
        <time>2021-05-24T06:46:57Z</time>
      </trkpt>
      <trkpt lat="42.8369240" lon="-8.5934060">
        <ele>202.1</ele>
        <time>2021-05-24T06:46:58Z</time>
      </trkpt>
      <trkpt lat="42.8369420" lon="-8.5934050">
        <ele>202.3</ele>
        <time>2021-05-24T06:46:59Z</time>
      </trkpt>
      <trkpt lat="42.8369590" lon="-8.5933980">
        <ele>202.5</ele>
        <time>2021-05-24T06:47:00Z</time>
      </trkpt>
      <trkpt lat="42.8369740" lon="-8.5934040">
        <ele>202.6</ele>
        <time>2021-05-24T06:47:01Z</time>
      </trkpt>
      <trkpt lat="42.8369810" lon="-8.5934040">
        <ele>202.7</ele>
        <time>2021-05-24T06:47:02Z</time>
      </trkpt>
      <trkpt lat="42.8369890" lon="-8.5934050">
        <ele>202.8</ele>
        <time>2021-05-24T06:47:03Z</time>
      </trkpt>
      <trkpt lat="42.8369960" lon="-8.5934050">
        <ele>202.9</ele>
        <time>2021-05-24T06:47:04Z</time>
      </trkpt>
      <trkpt lat="42.8370120" lon="-8.5934030">
        <ele>203.0</ele>
        <time>2021-05-24T06:47:05Z</time>
      </trkpt>
      <trkpt lat="42.8370210" lon="-8.5933980">
        <ele>203.1</ele>
        <time>2021-05-24T06:47:06Z</time>
      </trkpt>
      <trkpt lat="42.8370300" lon="-8.5933940">
        <ele>203.2</ele>
        <time>2021-05-24T06:47:07Z</time>
      </trkpt>
      <trkpt lat="42.8370390" lon="-8.5933890">
        <ele>203.3</ele>
        <time>2021-05-24T06:47:08Z</time>
      </trkpt>
      <trkpt lat="42.8370380" lon="-8.5933830">
        <ele>203.4</ele>
        <time>2021-05-24T06:47:09Z</time>
      </trkpt>
      <trkpt lat="42.8370440" lon="-8.5933810">
        <ele>203.5</ele>
        <time>2021-05-24T06:47:10Z</time>
      </trkpt>
      <trkpt lat="42.8370550" lon="-8.5933810">
        <ele>203.6</ele>
        <time>2021-05-24T06:47:11Z</time>
      </trkpt>
      <trkpt lat="42.8370600" lon="-8.5933790">
        <ele>203.6</ele>
        <time>2021-05-24T06:47:12Z</time>
      </trkpt>
      <trkpt lat="42.8370680" lon="-8.5933720">
        <ele>203.7</ele>
        <time>2021-05-24T06:47:13Z</time>
      </trkpt>
      <trkpt lat="42.8370850" lon="-8.5933700">
        <ele>203.9</ele>
        <time>2021-05-24T06:47:14Z</time>
      </trkpt>
      <trkpt lat="42.8370980" lon="-8.5933690">
        <ele>204.0</ele>
        <time>2021-05-24T06:47:15Z</time>
      </trkpt>
      <trkpt lat="42.8371040" lon="-8.5933680">
        <ele>204.1</ele>
        <time>2021-05-24T06:47:16Z</time>
      </trkpt>
      <trkpt lat="42.8371170" lon="-8.5933690">
        <ele>204.2</ele>
        <time>2021-05-24T06:47:17Z</time>
      </trkpt>
      <trkpt lat="42.8371320" lon="-8.5933690">
        <ele>204.4</ele>
        <time>2021-05-24T06:47:18Z</time>
      </trkpt>
      <trkpt lat="42.8371470" lon="-8.5933640">
        <ele>204.5</ele>
        <time>2021-05-24T06:47:19Z</time>
      </trkpt>
      <trkpt lat="42.8371560" lon="-8.5933610">
        <ele>204.6</ele>
        <time>2021-05-24T06:47:20Z</time>
      </trkpt>
      <trkpt lat="42.8371660" lon="-8.5933590">
        <ele>204.7</ele>
        <time>2021-05-24T06:47:21Z</time>
      </trkpt>
      <trkpt lat="42.8371750" lon="-8.5933560">
        <ele>204.7</ele>
        <time>2021-05-24T06:47:22Z</time>
      </trkpt>
      <trkpt lat="42.8371880" lon="-8.5933530">
        <ele>204.9</ele>
        <time>2021-05-24T06:47:23Z</time>
      </trkpt>
      <trkpt lat="42.8371940" lon="-8.5933480">
        <ele>204.9</ele>
        <time>2021-05-24T06:47:24Z</time>
      </trkpt>
      <trkpt lat="42.8372070" lon="-8.5933460">
        <ele>205.0</ele>
        <time>2021-05-24T06:47:25Z</time>
      </trkpt>
      <trkpt lat="42.8372170" lon="-8.5933390">
        <ele>205.1</ele>
        <time>2021-05-24T06:47:26Z</time>
      </trkpt>
      <trkpt lat="42.8372240" lon="-8.5933340">
        <ele>205.2</ele>
        <time>2021-05-24T06:47:27Z</time>
      </trkpt>
      <trkpt lat="42.8372300" lon="-8.5933260">
        <ele>205.2</ele>
        <time>2021-05-24T06:47:28Z</time>
      </trkpt>
      <trkpt lat="42.8372390" lon="-8.5933250">
        <ele>205.3</ele>
        <time>2021-05-24T06:47:29Z</time>
      </trkpt>
      <trkpt lat="42.8372480" lon="-8.5933220">
        <ele>205.4</ele>
        <time>2021-05-24T06:47:30Z</time>
      </trkpt>
      <trkpt lat="42.8372580" lon="-8.5933130">
        <ele>205.4</ele>
        <time>2021-05-24T06:47:31Z</time>
      </trkpt>
      <trkpt lat="42.8372710" lon="-8.5933120">
        <ele>205.5</ele>
        <time>2021-05-24T06:47:32Z</time>
      </trkpt>
      <trkpt lat="42.8372810" lon="-8.5933060">
        <ele>205.6</ele>
        <time>2021-05-24T06:47:33Z</time>
      </trkpt>
      <trkpt lat="42.8372930" lon="-8.5933040">
        <ele>205.7</ele>
        <time>2021-05-24T06:47:34Z</time>
      </trkpt>
      <trkpt lat="42.8373050" lon="-8.5933080">
        <ele>205.7</ele>
        <time>2021-05-24T06:47:35Z</time>
      </trkpt>
      <trkpt lat="42.8373270" lon="-8.5933050">
        <ele>205.9</ele>
        <time>2021-05-24T06:47:36Z</time>
      </trkpt>
      <trkpt lat="42.8373340" lon="-8.5933040">
        <ele>205.9</ele>
        <time>2021-05-24T06:47:37Z</time>
      </trkpt>
      <trkpt lat="42.8373420" lon="-8.5933040">
        <ele>205.9</ele>
        <time>2021-05-24T06:47:38Z</time>
      </trkpt>
      <trkpt lat="42.8373480" lon="-8.5933000">
        <ele>206.0</ele>
        <time>2021-05-24T06:47:39Z</time>
      </trkpt>
      <trkpt lat="42.8373620" lon="-8.5932990">
        <ele>206.0</ele>
        <time>2021-05-24T06:47:40Z</time>
      </trkpt>
      <trkpt lat="42.8373710" lon="-8.5932970">
        <ele>206.1</ele>
        <time>2021-05-24T06:47:41Z</time>
      </trkpt>
      <trkpt lat="42.8373930" lon="-8.5932940">
        <ele>206.1</ele>
        <time>2021-05-24T06:47:42Z</time>
      </trkpt>
      <trkpt lat="42.8374020" lon="-8.5932910">
        <ele>206.2</ele>
        <time>2021-05-24T06:47:43Z</time>
      </trkpt>
      <trkpt lat="42.8374100" lon="-8.5932890">
        <ele>206.2</ele>
        <time>2021-05-24T06:47:44Z</time>
      </trkpt>
      <trkpt lat="42.8374190" lon="-8.5932890">
        <ele>206.2</ele>
        <time>2021-05-24T06:47:45Z</time>
      </trkpt>
      <trkpt lat="42.8374340" lon="-8.5932880">
        <ele>206.3</ele>
        <time>2021-05-24T06:47:46Z</time>
      </trkpt>
      <trkpt lat="42.8374440" lon="-8.5932860">
        <ele>206.3</ele>
        <time>2021-05-24T06:47:47Z</time>
      </trkpt>
      <trkpt lat="42.8374560" lon="-8.5932890">
        <ele>206.3</ele>
        <time>2021-05-24T06:47:48Z</time>
      </trkpt>
      <trkpt lat="42.8374670" lon="-8.5932870">
        <ele>206.3</ele>
        <time>2021-05-24T06:47:49Z</time>
      </trkpt>
      <trkpt lat="42.8374780" lon="-8.5932810">
        <ele>206.4</ele>
        <time>2021-05-24T06:47:50Z</time>
      </trkpt>
      <trkpt lat="42.8374890" lon="-8.5932820">
        <ele>206.4</ele>
        <time>2021-05-24T06:47:51Z</time>
      </trkpt>
      <trkpt lat="42.8374870" lon="-8.5932770">
        <ele>206.4</ele>
        <time>2021-05-24T06:47:52Z</time>
      </trkpt>
      <trkpt lat="42.8375030" lon="-8.5932720">
        <ele>206.4</ele>
        <time>2021-05-24T06:47:53Z</time>
      </trkpt>
      <trkpt lat="42.8375050" lon="-8.5932710">
        <ele>206.4</ele>
        <time>2021-05-24T06:47:54Z</time>
      </trkpt>
      <trkpt lat="42.8375180" lon="-8.5932650">
        <ele>206.4</ele>
        <time>2021-05-24T06:47:55Z</time>
      </trkpt>
      <trkpt lat="42.8375290" lon="-8.5932640">
        <ele>206.4</ele>
        <time>2021-05-24T06:47:56Z</time>
      </trkpt>
      <trkpt lat="42.8375380" lon="-8.5932640">
        <ele>206.5</ele>
        <time>2021-05-24T06:47:57Z</time>
      </trkpt>
      <trkpt lat="42.8375420" lon="-8.5932650">
        <ele>206.5</ele>
        <time>2021-05-24T06:47:58Z</time>
      </trkpt>
      <trkpt lat="42.8375570" lon="-8.5932700">
        <ele>206.5</ele>
        <time>2021-05-24T06:47:59Z</time>
      </trkpt>
      <trkpt lat="42.8375710" lon="-8.5932710">
        <ele>206.5</ele>
        <time>2021-05-24T06:48:00Z</time>
      </trkpt>
      <trkpt lat="42.8375890" lon="-8.5932700">
        <ele>206.5</ele>
        <time>2021-05-24T06:48:01Z</time>
      </trkpt>
      <trkpt lat="42.8376030" lon="-8.5932740">
        <ele>206.5</ele>
        <time>2021-05-24T06:48:02Z</time>
      </trkpt>
      <trkpt lat="42.8376120" lon="-8.5932780">
        <ele>206.5</ele>
        <time>2021-05-24T06:48:03Z</time>
      </trkpt>
      <trkpt lat="42.8376270" lon="-8.5932820">
        <ele>206.5</ele>
        <time>2021-05-24T06:48:04Z</time>
      </trkpt>
      <trkpt lat="42.8376380" lon="-8.5932840">
        <ele>206.5</ele>
        <time>2021-05-24T06:48:05Z</time>
      </trkpt>
      <trkpt lat="42.8376550" lon="-8.5932870">
        <ele>206.5</ele>
        <time>2021-05-24T06:48:06Z</time>
      </trkpt>
      <trkpt lat="42.8376730" lon="-8.5932820">
        <ele>206.5</ele>
        <time>2021-05-24T06:48:07Z</time>
      </trkpt>
      <trkpt lat="42.8376890" lon="-8.5932800">
        <ele>206.5</ele>
        <time>2021-05-24T06:48:08Z</time>
      </trkpt>
      <trkpt lat="42.8377000" lon="-8.5932810">
        <ele>206.5</ele>
        <time>2021-05-24T06:48:09Z</time>
      </trkpt>
      <trkpt lat="42.8377110" lon="-8.5932810">
        <ele>206.5</ele>
        <time>2021-05-24T06:48:10Z</time>
      </trkpt>
      <trkpt lat="42.8377400" lon="-8.5932700">
        <ele>206.5</ele>
        <time>2021-05-24T06:48:11Z</time>
      </trkpt>
      <trkpt lat="42.8377500" lon="-8.5932670">
        <ele>206.5</ele>
        <time>2021-05-24T06:48:12Z</time>
      </trkpt>
      <trkpt lat="42.8377520" lon="-8.5932640">
        <ele>206.5</ele>
        <time>2021-05-24T06:48:13Z</time>
      </trkpt>
      <trkpt lat="42.8377630" lon="-8.5932600">
        <ele>206.5</ele>
        <time>2021-05-24T06:48:14Z</time>
      </trkpt>
      <trkpt lat="42.8377780" lon="-8.5932590">
        <ele>206.5</ele>
        <time>2021-05-24T06:48:15Z</time>
      </trkpt>
      <trkpt lat="42.8377900" lon="-8.5932560">
        <ele>206.5</ele>
        <time>2021-05-24T06:48:16Z</time>
      </trkpt>
      <trkpt lat="42.8378060" lon="-8.5932570">
        <ele>206.5</ele>
        <time>2021-05-24T06:48:17Z</time>
      </trkpt>
      <trkpt lat="42.8378150" lon="-8.5932540">
        <ele>206.5</ele>
        <time>2021-05-24T06:48:18Z</time>
      </trkpt>
      <trkpt lat="42.8378270" lon="-8.5932530">
        <ele>206.5</ele>
        <time>2021-05-24T06:48:19Z</time>
      </trkpt>
      <trkpt lat="42.8378400" lon="-8.5932500">
        <ele>206.5</ele>
        <time>2021-05-24T06:48:20Z</time>
      </trkpt>
      <trkpt lat="42.8378550" lon="-8.5932510">
        <ele>206.5</ele>
        <time>2021-05-24T06:48:21Z</time>
      </trkpt>
      <trkpt lat="42.8378670" lon="-8.5932470">
        <ele>206.5</ele>
        <time>2021-05-24T06:48:22Z</time>
      </trkpt>
      <trkpt lat="42.8378760" lon="-8.5932490">
        <ele>206.6</ele>
        <time>2021-05-24T06:48:23Z</time>
      </trkpt>
      <trkpt lat="42.8378910" lon="-8.5932460">
        <ele>206.6</ele>
        <time>2021-05-24T06:48:24Z</time>
      </trkpt>
      <trkpt lat="42.8379040" lon="-8.5932460">
        <ele>206.6</ele>
        <time>2021-05-24T06:48:25Z</time>
      </trkpt>
      <trkpt lat="42.8379250" lon="-8.5932500">
        <ele>206.6</ele>
        <time>2021-05-24T06:48:26Z</time>
      </trkpt>
      <trkpt lat="42.8379350" lon="-8.5932510">
        <ele>206.6</ele>
        <time>2021-05-24T06:48:27Z</time>
      </trkpt>
      <trkpt lat="42.8379440" lon="-8.5932510">
        <ele>206.6</ele>
        <time>2021-05-24T06:48:28Z</time>
      </trkpt>
      <trkpt lat="42.8379530" lon="-8.5932490">
        <ele>206.6</ele>
        <time>2021-05-24T06:48:29Z</time>
      </trkpt>
      <trkpt lat="42.8379730" lon="-8.5932530">
        <ele>206.6</ele>
        <time>2021-05-24T06:48:30Z</time>
      </trkpt>
      <trkpt lat="42.8379820" lon="-8.5932520">
        <ele>206.6</ele>
        <time>2021-05-24T06:48:31Z</time>
      </trkpt>
      <trkpt lat="42.8379860" lon="-8.5932470">
        <ele>206.6</ele>
        <time>2021-05-24T06:48:32Z</time>
      </trkpt>
      <trkpt lat="42.8379970" lon="-8.5932470">
        <ele>206.6</ele>
        <time>2021-05-24T06:48:33Z</time>
      </trkpt>
      <trkpt lat="42.8380070" lon="-8.5932480">
        <ele>206.7</ele>
        <time>2021-05-24T06:48:34Z</time>
      </trkpt>
      <trkpt lat="42.8380310" lon="-8.5932430">
        <ele>206.7</ele>
        <time>2021-05-24T06:48:35Z</time>
      </trkpt>
      <trkpt lat="42.8380430" lon="-8.5932410">
        <ele>206.7</ele>
        <time>2021-05-24T06:48:36Z</time>
      </trkpt>
      <trkpt lat="42.8380550" lon="-8.5932430">
        <ele>206.7</ele>
        <time>2021-05-24T06:48:37Z</time>
      </trkpt>
      <trkpt lat="42.8380650" lon="-8.5932410">
        <ele>206.7</ele>
        <time>2021-05-24T06:48:38Z</time>
      </trkpt>
      <trkpt lat="42.8380740" lon="-8.5932370">
        <ele>206.7</ele>
        <time>2021-05-24T06:48:39Z</time>
      </trkpt>
      <trkpt lat="42.8380960" lon="-8.5932350">
        <ele>206.8</ele>
        <time>2021-05-24T06:48:40Z</time>
      </trkpt>
      <trkpt lat="42.8381040" lon="-8.5932330">
        <ele>206.8</ele>
        <time>2021-05-24T06:48:41Z</time>
      </trkpt>
      <trkpt lat="42.8381130" lon="-8.5932310">
        <ele>206.8</ele>
        <time>2021-05-24T06:48:42Z</time>
      </trkpt>
      <trkpt lat="42.8381210" lon="-8.5932330">
        <ele>206.8</ele>
        <time>2021-05-24T06:48:43Z</time>
      </trkpt>
      <trkpt lat="42.8381330" lon="-8.5932360">
        <ele>206.8</ele>
        <time>2021-05-24T06:48:44Z</time>
      </trkpt>
      <trkpt lat="42.8381460" lon="-8.5932360">
        <ele>206.9</ele>
        <time>2021-05-24T06:48:45Z</time>
      </trkpt>
      <trkpt lat="42.8381610" lon="-8.5932440">
        <ele>206.9</ele>
        <time>2021-05-24T06:48:46Z</time>
      </trkpt>
      <trkpt lat="42.8381680" lon="-8.5932480">
        <ele>206.9</ele>
        <time>2021-05-24T06:48:47Z</time>
      </trkpt>
      <trkpt lat="42.8381750" lon="-8.5932520">
        <ele>206.9</ele>
        <time>2021-05-24T06:48:48Z</time>
      </trkpt>
      <trkpt lat="42.8381820" lon="-8.5932560">
        <ele>206.9</ele>
        <time>2021-05-24T06:48:49Z</time>
      </trkpt>
      <trkpt lat="42.8381950" lon="-8.5932600">
        <ele>207.0</ele>
        <time>2021-05-24T06:48:50Z</time>
      </trkpt>
      <trkpt lat="42.8382110" lon="-8.5932600">
        <ele>207.0</ele>
        <time>2021-05-24T06:48:51Z</time>
      </trkpt>
      <trkpt lat="42.8382280" lon="-8.5932560">
        <ele>207.0</ele>
        <time>2021-05-24T06:48:52Z</time>
      </trkpt>
      <trkpt lat="42.8382430" lon="-8.5932470">
        <ele>207.1</ele>
        <time>2021-05-24T06:48:53Z</time>
      </trkpt>
      <trkpt lat="42.8382560" lon="-8.5932460">
        <ele>207.1</ele>
        <time>2021-05-24T06:48:54Z</time>
      </trkpt>
      <trkpt lat="42.8382700" lon="-8.5932500">
        <ele>207.2</ele>
        <time>2021-05-24T06:48:55Z</time>
      </trkpt>
      <trkpt lat="42.8382790" lon="-8.5932460">
        <ele>207.2</ele>
        <time>2021-05-24T06:48:56Z</time>
      </trkpt>
      <trkpt lat="42.8382910" lon="-8.5932430">
        <ele>207.3</ele>
        <time>2021-05-24T06:48:57Z</time>
      </trkpt>
      <trkpt lat="42.8383060" lon="-8.5932410">
        <ele>207.3</ele>
        <time>2021-05-24T06:48:58Z</time>
      </trkpt>
      <trkpt lat="42.8383170" lon="-8.5932480">
        <ele>207.3</ele>
        <time>2021-05-24T06:48:59Z</time>
      </trkpt>
      <trkpt lat="42.8383340" lon="-8.5932530">
        <ele>207.4</ele>
        <time>2021-05-24T06:49:00Z</time>
      </trkpt>
      <trkpt lat="42.8383450" lon="-8.5932560">
        <ele>207.5</ele>
        <time>2021-05-24T06:49:01Z</time>
      </trkpt>
      <trkpt lat="42.8383530" lon="-8.5932630">
        <ele>207.5</ele>
        <time>2021-05-24T06:49:02Z</time>
      </trkpt>
      <trkpt lat="42.8383620" lon="-8.5932710">
        <ele>207.6</ele>
        <time>2021-05-24T06:49:03Z</time>
      </trkpt>
      <trkpt lat="42.8383690" lon="-8.5932780">
        <ele>207.6</ele>
        <time>2021-05-24T06:49:04Z</time>
      </trkpt>
      <trkpt lat="42.8383790" lon="-8.5932870">
        <ele>207.6</ele>
        <time>2021-05-24T06:49:05Z</time>
      </trkpt>
      <trkpt lat="42.8383810" lon="-8.5932990">
        <ele>207.7</ele>
        <time>2021-05-24T06:49:06Z</time>
      </trkpt>
      <trkpt lat="42.8383920" lon="-8.5933150">
        <ele>207.7</ele>
        <time>2021-05-24T06:49:07Z</time>
      </trkpt>
      <trkpt lat="42.8383950" lon="-8.5933280">
        <ele>208.1</ele>
        <time>2021-05-24T06:49:08Z</time>
      </trkpt>
      <trkpt lat="42.8383980" lon="-8.5933360">
        <ele>208.1</ele>
        <time>2021-05-24T06:49:09Z</time>
      </trkpt>
      <trkpt lat="42.8383980" lon="-8.5933540">
        <ele>208.1</ele>
        <time>2021-05-24T06:49:10Z</time>
      </trkpt>
      <trkpt lat="42.8383970" lon="-8.5933630">
        <ele>208.2</ele>
        <time>2021-05-24T06:49:11Z</time>
      </trkpt>
      <trkpt lat="42.8383970" lon="-8.5933790">
        <ele>208.2</ele>
        <time>2021-05-24T06:49:12Z</time>
      </trkpt>
      <trkpt lat="42.8383930" lon="-8.5934120">
        <ele>208.2</ele>
        <time>2021-05-24T06:49:13Z</time>
      </trkpt>
      <trkpt lat="42.8383920" lon="-8.5934240">
        <ele>208.3</ele>
        <time>2021-05-24T06:49:14Z</time>
      </trkpt>
      <trkpt lat="42.8383910" lon="-8.5934350">
        <ele>208.3</ele>
        <time>2021-05-24T06:49:15Z</time>
      </trkpt>
      <trkpt lat="42.8383920" lon="-8.5934520">
        <ele>208.3</ele>
        <time>2021-05-24T06:49:16Z</time>
      </trkpt>
      <trkpt lat="42.8383940" lon="-8.5934630">
        <ele>208.3</ele>
        <time>2021-05-24T06:49:17Z</time>
      </trkpt>
      <trkpt lat="42.8383910" lon="-8.5934770">
        <ele>208.3</ele>
        <time>2021-05-24T06:49:18Z</time>
      </trkpt>
      <trkpt lat="42.8383920" lon="-8.5934970">
        <ele>208.4</ele>
        <time>2021-05-24T06:49:19Z</time>
      </trkpt>
      <trkpt lat="42.8383870" lon="-8.5935150">
        <ele>208.4</ele>
        <time>2021-05-24T06:49:20Z</time>
      </trkpt>
      <trkpt lat="42.8383810" lon="-8.5935380">
        <ele>208.4</ele>
        <time>2021-05-24T06:49:21Z</time>
      </trkpt>
      <trkpt lat="42.8383810" lon="-8.5935470">
        <ele>208.4</ele>
        <time>2021-05-24T06:49:22Z</time>
      </trkpt>
      <trkpt lat="42.8383810" lon="-8.5935550">
        <ele>208.4</ele>
        <time>2021-05-24T06:49:23Z</time>
      </trkpt>
      <trkpt lat="42.8383810" lon="-8.5935640">
        <ele>208.5</ele>
        <time>2021-05-24T06:49:24Z</time>
      </trkpt>
      <trkpt lat="42.8383790" lon="-8.5935800">
        <ele>208.5</ele>
        <time>2021-05-24T06:49:25Z</time>
      </trkpt>
      <trkpt lat="42.8383770" lon="-8.5935910">
        <ele>208.5</ele>
        <time>2021-05-24T06:49:26Z</time>
      </trkpt>
      <trkpt lat="42.8383750" lon="-8.5936070">
        <ele>208.5</ele>
        <time>2021-05-24T06:49:27Z</time>
      </trkpt>
      <trkpt lat="42.8383720" lon="-8.5936370">
        <ele>208.6</ele>
        <time>2021-05-24T06:49:28Z</time>
      </trkpt>
      <trkpt lat="42.8383700" lon="-8.5936480">
        <ele>208.6</ele>
        <time>2021-05-24T06:49:29Z</time>
      </trkpt>
      <trkpt lat="42.8383690" lon="-8.5936580">
        <ele>208.6</ele>
        <time>2021-05-24T06:49:30Z</time>
      </trkpt>
      <trkpt lat="42.8383630" lon="-8.5936730">
        <ele>208.6</ele>
        <time>2021-05-24T06:49:31Z</time>
      </trkpt>
      <trkpt lat="42.8383620" lon="-8.5936970">
        <ele>208.6</ele>
        <time>2021-05-24T06:49:32Z</time>
      </trkpt>
      <trkpt lat="42.8383610" lon="-8.5937100">
        <ele>208.6</ele>
        <time>2021-05-24T06:49:33Z</time>
      </trkpt>
      <trkpt lat="42.8383550" lon="-8.5937340">
        <ele>208.7</ele>
        <time>2021-05-24T06:49:34Z</time>
      </trkpt>
      <trkpt lat="42.8383530" lon="-8.5937500">
        <ele>208.7</ele>
        <time>2021-05-24T06:49:35Z</time>
      </trkpt>
      <trkpt lat="42.8383470" lon="-8.5937690">
        <ele>208.7</ele>
        <time>2021-05-24T06:49:36Z</time>
      </trkpt>
      <trkpt lat="42.8383430" lon="-8.5937880">
        <ele>208.7</ele>
        <time>2021-05-24T06:49:37Z</time>
      </trkpt>
      <trkpt lat="42.8383400" lon="-8.5937980">
        <ele>208.7</ele>
        <time>2021-05-24T06:49:38Z</time>
      </trkpt>
      <trkpt lat="42.8383370" lon="-8.5938080">
        <ele>208.7</ele>
        <time>2021-05-24T06:49:39Z</time>
      </trkpt>
      <trkpt lat="42.8383340" lon="-8.5938180">
        <ele>208.7</ele>
        <time>2021-05-24T06:49:40Z</time>
      </trkpt>
      <trkpt lat="42.8383290" lon="-8.5938370">
        <ele>208.8</ele>
        <time>2021-05-24T06:49:41Z</time>
      </trkpt>
      <trkpt lat="42.8383230" lon="-8.5938460">
        <ele>208.8</ele>
        <time>2021-05-24T06:49:42Z</time>
      </trkpt>
      <trkpt lat="42.8383180" lon="-8.5938620">
        <ele>208.8</ele>
        <time>2021-05-24T06:49:43Z</time>
      </trkpt>
      <trkpt lat="42.8383130" lon="-8.5938770">
        <ele>208.8</ele>
        <time>2021-05-24T06:49:44Z</time>
      </trkpt>
      <trkpt lat="42.8383080" lon="-8.5938920">
        <ele>208.8</ele>
        <time>2021-05-24T06:49:45Z</time>
      </trkpt>
      <trkpt lat="42.8383030" lon="-8.5939030">
        <ele>208.8</ele>
        <time>2021-05-24T06:49:46Z</time>
      </trkpt>
      <trkpt lat="42.8383000" lon="-8.5939160">
        <ele>208.8</ele>
        <time>2021-05-24T06:49:47Z</time>
      </trkpt>
      <trkpt lat="42.8382940" lon="-8.5939270">
        <ele>208.8</ele>
        <time>2021-05-24T06:49:48Z</time>
      </trkpt>
      <trkpt lat="42.8382880" lon="-8.5939380">
        <ele>208.8</ele>
        <time>2021-05-24T06:49:49Z</time>
      </trkpt>
      <trkpt lat="42.8382860" lon="-8.5939550">
        <ele>208.8</ele>
        <time>2021-05-24T06:49:50Z</time>
      </trkpt>
      <trkpt lat="42.8382820" lon="-8.5939770">
        <ele>208.9</ele>
        <time>2021-05-24T06:49:51Z</time>
      </trkpt>
      <trkpt lat="42.8382790" lon="-8.5939970">
        <ele>208.9</ele>
        <time>2021-05-24T06:49:52Z</time>
      </trkpt>
      <trkpt lat="42.8382690" lon="-8.5940140">
        <ele>208.9</ele>
        <time>2021-05-24T06:49:53Z</time>
      </trkpt>
      <trkpt lat="42.8382620" lon="-8.5940280">
        <ele>208.9</ele>
        <time>2021-05-24T06:49:54Z</time>
      </trkpt>
      <trkpt lat="42.8382610" lon="-8.5940410">
        <ele>208.9</ele>
        <time>2021-05-24T06:49:55Z</time>
      </trkpt>
      <trkpt lat="42.8382550" lon="-8.5940560">
        <ele>208.9</ele>
        <time>2021-05-24T06:49:56Z</time>
      </trkpt>
      <trkpt lat="42.8382410" lon="-8.5940830">
        <ele>209.0</ele>
        <time>2021-05-24T06:49:57Z</time>
      </trkpt>
      <trkpt lat="42.8382380" lon="-8.5940940">
        <ele>209.0</ele>
        <time>2021-05-24T06:49:58Z</time>
      </trkpt>
      <trkpt lat="42.8382340" lon="-8.5941040">
        <ele>209.0</ele>
        <time>2021-05-24T06:49:59Z</time>
      </trkpt>
      <trkpt lat="42.8382290" lon="-8.5941230">
        <ele>209.0</ele>
        <time>2021-05-24T06:50:00Z</time>
      </trkpt>
      <trkpt lat="42.8382240" lon="-8.5941300">
        <ele>209.0</ele>
        <time>2021-05-24T06:50:01Z</time>
      </trkpt>
      <trkpt lat="42.8382220" lon="-8.5941450">
        <ele>209.0</ele>
        <time>2021-05-24T06:50:02Z</time>
      </trkpt>
      <trkpt lat="42.8382170" lon="-8.5941580">
        <ele>209.0</ele>
        <time>2021-05-24T06:50:03Z</time>
      </trkpt>
      <trkpt lat="42.8382080" lon="-8.5941680">
        <ele>209.0</ele>
        <time>2021-05-24T06:50:04Z</time>
      </trkpt>
      <trkpt lat="42.8382020" lon="-8.5941820">
        <ele>209.1</ele>
        <time>2021-05-24T06:50:05Z</time>
      </trkpt>
      <trkpt lat="42.8381950" lon="-8.5942130">
        <ele>209.1</ele>
        <time>2021-05-24T06:50:06Z</time>
      </trkpt>
      <trkpt lat="42.8381910" lon="-8.5942210">
        <ele>209.1</ele>
        <time>2021-05-24T06:50:07Z</time>
      </trkpt>
      <trkpt lat="42.8381880" lon="-8.5942290">
        <ele>209.1</ele>
        <time>2021-05-24T06:50:08Z</time>
      </trkpt>
      <trkpt lat="42.8381840" lon="-8.5942430">
        <ele>209.1</ele>
        <time>2021-05-24T06:50:09Z</time>
      </trkpt>
      <trkpt lat="42.8381780" lon="-8.5942570">
        <ele>209.2</ele>
        <time>2021-05-24T06:50:10Z</time>
      </trkpt>
      <trkpt lat="42.8381730" lon="-8.5942650">
        <ele>209.2</ele>
        <time>2021-05-24T06:50:11Z</time>
      </trkpt>
      <trkpt lat="42.8381710" lon="-8.5942940">
        <ele>209.2</ele>
        <time>2021-05-24T06:50:12Z</time>
      </trkpt>
      <trkpt lat="42.8381680" lon="-8.5943070">
        <ele>209.2</ele>
        <time>2021-05-24T06:50:13Z</time>
      </trkpt>
      <trkpt lat="42.8381660" lon="-8.5943190">
        <ele>209.3</ele>
        <time>2021-05-24T06:50:14Z</time>
      </trkpt>
      <trkpt lat="42.8381620" lon="-8.5943230">
        <ele>209.3</ele>
        <time>2021-05-24T06:50:15Z</time>
      </trkpt>
      <trkpt lat="42.8381550" lon="-8.5943400">
        <ele>209.3</ele>
        <time>2021-05-24T06:50:16Z</time>
      </trkpt>
      <trkpt lat="42.8381500" lon="-8.5943530">
        <ele>209.3</ele>
        <time>2021-05-24T06:50:17Z</time>
      </trkpt>
      <trkpt lat="42.8381500" lon="-8.5943700">
        <ele>209.3</ele>
        <time>2021-05-24T06:50:18Z</time>
      </trkpt>
      <trkpt lat="42.8381500" lon="-8.5943930">
        <ele>209.4</ele>
        <time>2021-05-24T06:50:19Z</time>
      </trkpt>
      <trkpt lat="42.8381600" lon="-8.5944260">
        <ele>209.4</ele>
        <time>2021-05-24T06:50:20Z</time>
      </trkpt>
      <trkpt lat="42.8381640" lon="-8.5944400">
        <ele>209.5</ele>
        <time>2021-05-24T06:50:21Z</time>
      </trkpt>
      <trkpt lat="42.8381810" lon="-8.5944370">
        <ele>209.6</ele>
        <time>2021-05-24T06:50:22Z</time>
      </trkpt>
      <trkpt lat="42.8381920" lon="-8.5944220">
        <ele>209.7</ele>
        <time>2021-05-24T06:50:23Z</time>
      </trkpt>
      <trkpt lat="42.8382100" lon="-8.5943870">
        <ele>209.8</ele>
        <time>2021-05-24T06:50:24Z</time>
      </trkpt>
      <trkpt lat="42.8382140" lon="-8.5943750">
        <ele>209.8</ele>
        <time>2021-05-24T06:50:25Z</time>
      </trkpt>
      <trkpt lat="42.8382190" lon="-8.5943590">
        <ele>209.9</ele>
        <time>2021-05-24T06:50:26Z</time>
      </trkpt>
      <trkpt lat="42.8382260" lon="-8.5943500">
        <ele>209.9</ele>
        <time>2021-05-24T06:50:27Z</time>
      </trkpt>
      <trkpt lat="42.8382320" lon="-8.5943400">
        <ele>210.0</ele>
        <time>2021-05-24T06:50:28Z</time>
      </trkpt>
      <trkpt lat="42.8382410" lon="-8.5943310">
        <ele>210.0</ele>
        <time>2021-05-24T06:50:29Z</time>
      </trkpt>
      <trkpt lat="42.8382530" lon="-8.5943230">
        <ele>210.1</ele>
        <time>2021-05-24T06:50:30Z</time>
      </trkpt>
      <trkpt lat="42.8382600" lon="-8.5943130">
        <ele>210.2</ele>
        <time>2021-05-24T06:50:31Z</time>
      </trkpt>
      <trkpt lat="42.8382770" lon="-8.5942940">
        <ele>210.3</ele>
        <time>2021-05-24T06:50:32Z</time>
      </trkpt>
      <trkpt lat="42.8382840" lon="-8.5942870">
        <ele>210.4</ele>
        <time>2021-05-24T06:50:33Z</time>
      </trkpt>
      <trkpt lat="42.8382920" lon="-8.5942790">
        <ele>210.4</ele>
        <time>2021-05-24T06:50:34Z</time>
      </trkpt>
      <trkpt lat="42.8383080" lon="-8.5942630">
        <ele>210.6</ele>
        <time>2021-05-24T06:50:35Z</time>
      </trkpt>
      <trkpt lat="42.8383140" lon="-8.5942530">
        <ele>210.6</ele>
        <time>2021-05-24T06:50:36Z</time>
      </trkpt>
      <trkpt lat="42.8383210" lon="-8.5942440">
        <ele>210.7</ele>
        <time>2021-05-24T06:50:37Z</time>
      </trkpt>
      <trkpt lat="42.8383380" lon="-8.5942300">
        <ele>210.8</ele>
        <time>2021-05-24T06:50:38Z</time>
      </trkpt>
      <trkpt lat="42.8383440" lon="-8.5942220">
        <ele>210.9</ele>
        <time>2021-05-24T06:50:39Z</time>
      </trkpt>
      <trkpt lat="42.8383510" lon="-8.5942140">
        <ele>211.0</ele>
        <time>2021-05-24T06:50:40Z</time>
      </trkpt>
      <trkpt lat="42.8383640" lon="-8.5942040">
        <ele>211.1</ele>
        <time>2021-05-24T06:50:41Z</time>
      </trkpt>
      <trkpt lat="42.8383770" lon="-8.5941960">
        <ele>211.2</ele>
        <time>2021-05-24T06:50:42Z</time>
      </trkpt>
      <trkpt lat="42.8383940" lon="-8.5941780">
        <ele>211.4</ele>
        <time>2021-05-24T06:50:43Z</time>
      </trkpt>
      <trkpt lat="42.8383990" lon="-8.5941710">
        <ele>211.5</ele>
        <time>2021-05-24T06:50:44Z</time>
      </trkpt>
      <trkpt lat="42.8384040" lon="-8.5941630">
        <ele>211.5</ele>
        <time>2021-05-24T06:50:45Z</time>
      </trkpt>
      <trkpt lat="42.8384170" lon="-8.5941410">
        <ele>211.7</ele>
        <time>2021-05-24T06:50:46Z</time>
      </trkpt>
      <trkpt lat="42.8384220" lon="-8.5941330">
        <ele>211.8</ele>
        <time>2021-05-24T06:50:47Z</time>
      </trkpt>
      <trkpt lat="42.8384270" lon="-8.5941240">
        <ele>211.8</ele>
        <time>2021-05-24T06:50:48Z</time>
      </trkpt>
      <trkpt lat="42.8384360" lon="-8.5941180">
        <ele>211.9</ele>
        <time>2021-05-24T06:50:49Z</time>
      </trkpt>
      <trkpt lat="42.8384450" lon="-8.5941040">
        <ele>212.1</ele>
        <time>2021-05-24T06:50:50Z</time>
      </trkpt>
      <trkpt lat="42.8384520" lon="-8.5940920">
        <ele>212.2</ele>
        <time>2021-05-24T06:50:51Z</time>
      </trkpt>
      <trkpt lat="42.8384600" lon="-8.5940840">
        <ele>212.2</ele>
        <time>2021-05-24T06:50:52Z</time>
      </trkpt>
      <trkpt lat="42.8384700" lon="-8.5940730">
        <ele>212.4</ele>
        <time>2021-05-24T06:50:53Z</time>
      </trkpt>
      <trkpt lat="42.8384770" lon="-8.5940580">
        <ele>212.5</ele>
        <time>2021-05-24T06:50:54Z</time>
      </trkpt>
      <trkpt lat="42.8384870" lon="-8.5940470">
        <ele>212.6</ele>
        <time>2021-05-24T06:50:55Z</time>
      </trkpt>
      <trkpt lat="42.8384980" lon="-8.5940430">
        <ele>212.7</ele>
        <time>2021-05-24T06:50:56Z</time>
      </trkpt>
      <trkpt lat="42.8385060" lon="-8.5940360">
        <ele>212.8</ele>
        <time>2021-05-24T06:50:57Z</time>
      </trkpt>
      <trkpt lat="42.8385160" lon="-8.5940270">
        <ele>212.9</ele>
        <time>2021-05-24T06:50:58Z</time>
      </trkpt>
      <trkpt lat="42.8385240" lon="-8.5940170">
        <ele>213.0</ele>
        <time>2021-05-24T06:50:59Z</time>
      </trkpt>
      <trkpt lat="42.8385340" lon="-8.5940060">
        <ele>213.1</ele>
        <time>2021-05-24T06:51:00Z</time>
      </trkpt>
      <trkpt lat="42.8385380" lon="-8.5939930">
        <ele>213.2</ele>
        <time>2021-05-24T06:51:01Z</time>
      </trkpt>
      <trkpt lat="42.8385400" lon="-8.5939770">
        <ele>213.3</ele>
        <time>2021-05-24T06:51:02Z</time>
      </trkpt>
      <trkpt lat="42.8385480" lon="-8.5939660">
        <ele>213.4</ele>
        <time>2021-05-24T06:51:03Z</time>
      </trkpt>
      <trkpt lat="42.8385550" lon="-8.5939560">
        <ele>213.5</ele>
        <time>2021-05-24T06:51:04Z</time>
      </trkpt>
      <trkpt lat="42.8385600" lon="-8.5939490">
        <ele>213.5</ele>
        <time>2021-05-24T06:51:05Z</time>
      </trkpt>
      <trkpt lat="42.8385630" lon="-8.5939330">
        <ele>213.6</ele>
        <time>2021-05-24T06:51:06Z</time>
      </trkpt>
      <trkpt lat="42.8385690" lon="-8.5939200">
        <ele>213.7</ele>
        <time>2021-05-24T06:51:07Z</time>
      </trkpt>
      <trkpt lat="42.8385740" lon="-8.5939100">
        <ele>213.8</ele>
        <time>2021-05-24T06:51:08Z</time>
      </trkpt>
      <trkpt lat="42.8385800" lon="-8.5939040">
        <ele>213.9</ele>
        <time>2021-05-24T06:51:09Z</time>
      </trkpt>
      <trkpt lat="42.8385970" lon="-8.5938850">
        <ele>214.0</ele>
        <time>2021-05-24T06:51:10Z</time>
      </trkpt>
      <trkpt lat="42.8386030" lon="-8.5938790">
        <ele>214.1</ele>
        <time>2021-05-24T06:51:11Z</time>
      </trkpt>
      <trkpt lat="42.8386090" lon="-8.5938720">
        <ele>214.2</ele>
        <time>2021-05-24T06:51:12Z</time>
      </trkpt>
      <trkpt lat="42.8386210" lon="-8.5938580">
        <ele>214.3</ele>
        <time>2021-05-24T06:51:13Z</time>
      </trkpt>
      <trkpt lat="42.8386300" lon="-8.5938470">
        <ele>214.4</ele>
        <time>2021-05-24T06:51:14Z</time>
      </trkpt>
      <trkpt lat="42.8386360" lon="-8.5938370">
        <ele>214.5</ele>
        <time>2021-05-24T06:51:15Z</time>
      </trkpt>
      <trkpt lat="42.8386450" lon="-8.5938250">
        <ele>214.6</ele>
        <time>2021-05-24T06:51:16Z</time>
      </trkpt>
      <trkpt lat="42.8386520" lon="-8.5938100">
        <ele>214.7</ele>
        <time>2021-05-24T06:51:17Z</time>
      </trkpt>
      <trkpt lat="42.8386570" lon="-8.5938030">
        <ele>214.7</ele>
        <time>2021-05-24T06:51:18Z</time>
      </trkpt>
      <trkpt lat="42.8386640" lon="-8.5937930">
        <ele>214.8</ele>
        <time>2021-05-24T06:51:19Z</time>
      </trkpt>
      <trkpt lat="42.8386710" lon="-8.5937820">
        <ele>214.9</ele>
        <time>2021-05-24T06:51:20Z</time>
      </trkpt>
      <trkpt lat="42.8386750" lon="-8.5937740">
        <ele>214.9</ele>
        <time>2021-05-24T06:51:21Z</time>
      </trkpt>
      <trkpt lat="42.8386840" lon="-8.5937630">
        <ele>215.0</ele>
        <time>2021-05-24T06:51:22Z</time>
      </trkpt>
      <trkpt lat="42.8386870" lon="-8.5937580">
        <ele>215.1</ele>
        <time>2021-05-24T06:51:23Z</time>
      </trkpt>
      <trkpt lat="42.8386960" lon="-8.5937520">
        <ele>215.2</ele>
        <time>2021-05-24T06:51:24Z</time>
      </trkpt>
      <trkpt lat="42.8387080" lon="-8.5937440">
        <ele>215.3</ele>
        <time>2021-05-24T06:51:25Z</time>
      </trkpt>
      <trkpt lat="42.8387150" lon="-8.5937380">
        <ele>215.3</ele>
        <time>2021-05-24T06:51:26Z</time>
      </trkpt>
      <trkpt lat="42.8387250" lon="-8.5937260">
        <ele>215.4</ele>
        <time>2021-05-24T06:51:27Z</time>
      </trkpt>
      <trkpt lat="42.8387390" lon="-8.5937070">
        <ele>215.6</ele>
        <time>2021-05-24T06:51:28Z</time>
      </trkpt>
      <trkpt lat="42.8387460" lon="-8.5937010">
        <ele>215.6</ele>
        <time>2021-05-24T06:51:29Z</time>
      </trkpt>
      <trkpt lat="42.8387540" lon="-8.5936940">
        <ele>215.7</ele>
        <time>2021-05-24T06:51:30Z</time>
      </trkpt>
      <trkpt lat="42.8387620" lon="-8.5936930">
        <ele>215.8</ele>
        <time>2021-05-24T06:51:31Z</time>
      </trkpt>
      <trkpt lat="42.8387650" lon="-8.5936890">
        <ele>215.8</ele>
        <time>2021-05-24T06:51:32Z</time>
      </trkpt>
      <trkpt lat="42.8387710" lon="-8.5936750">
        <ele>215.9</ele>
        <time>2021-05-24T06:51:33Z</time>
      </trkpt>
      <trkpt lat="42.8387760" lon="-8.5936600">
        <ele>216.0</ele>
        <time>2021-05-24T06:51:34Z</time>
      </trkpt>
      <trkpt lat="42.8387810" lon="-8.5936500">
        <ele>216.1</ele>
        <time>2021-05-24T06:51:35Z</time>
      </trkpt>
      <trkpt lat="42.8387910" lon="-8.5936360">
        <ele>216.2</ele>
        <time>2021-05-24T06:51:36Z</time>
      </trkpt>
      <trkpt lat="42.8387950" lon="-8.5936250">
        <ele>216.2</ele>
        <time>2021-05-24T06:51:37Z</time>
      </trkpt>
      <trkpt lat="42.8388000" lon="-8.5936170">
        <ele>216.3</ele>
        <time>2021-05-24T06:51:38Z</time>
      </trkpt>
      <trkpt lat="42.8388060" lon="-8.5936100">
        <ele>216.3</ele>
        <time>2021-05-24T06:51:39Z</time>
      </trkpt>
      <trkpt lat="42.8388060" lon="-8.5936010">
        <ele>216.4</ele>
        <time>2021-05-24T06:51:40Z</time>
      </trkpt>
      <trkpt lat="42.8388070" lon="-8.5935990">
        <ele>216.4</ele>
        <time>2021-05-24T06:51:41Z</time>
      </trkpt>
      <trkpt lat="42.8388090" lon="-8.5935940">
        <ele>216.4</ele>
        <time>2021-05-24T06:51:42Z</time>
      </trkpt>
      <trkpt lat="42.8388000" lon="-8.5935690">
        <ele>216.8</ele>
        <time>2021-05-24T06:51:43Z</time>
      </trkpt>
      <trkpt lat="42.8387920" lon="-8.5935560">
        <ele>216.8</ele>
        <time>2021-05-24T06:51:44Z</time>
      </trkpt>
      <trkpt lat="42.8387850" lon="-8.5935440">
        <ele>216.8</ele>
        <time>2021-05-24T06:51:45Z</time>
      </trkpt>
      <trkpt lat="42.8387810" lon="-8.5935390">
        <ele>216.8</ele>
        <time>2021-05-24T06:51:46Z</time>
      </trkpt>
      <trkpt lat="42.8387760" lon="-8.5935290">
        <ele>216.8</ele>
        <time>2021-05-24T06:51:47Z</time>
      </trkpt>
      <trkpt lat="42.8387720" lon="-8.5935230">
        <ele>216.8</ele>
        <time>2021-05-24T06:51:48Z</time>
      </trkpt>
      <trkpt lat="42.8387670" lon="-8.5935110">
        <ele>216.8</ele>
        <time>2021-05-24T06:51:49Z</time>
      </trkpt>
      <trkpt lat="42.8387560" lon="-8.5934840">
        <ele>216.8</ele>
        <time>2021-05-24T06:51:50Z</time>
      </trkpt>
      <trkpt lat="42.8387520" lon="-8.5934720">
        <ele>216.8</ele>
        <time>2021-05-24T06:51:51Z</time>
      </trkpt>
      <trkpt lat="42.8387470" lon="-8.5934610">
        <ele>216.8</ele>
        <time>2021-05-24T06:51:52Z</time>
      </trkpt>
      <trkpt lat="42.8387370" lon="-8.5934530">
        <ele>216.9</ele>
        <time>2021-05-24T06:51:53Z</time>
      </trkpt>
      <trkpt lat="42.8387300" lon="-8.5934460">
        <ele>216.9</ele>
        <time>2021-05-24T06:51:54Z</time>
      </trkpt>
      <trkpt lat="42.8387240" lon="-8.5934420">
        <ele>216.9</ele>
        <time>2021-05-24T06:51:55Z</time>
      </trkpt>
      <trkpt lat="42.8387180" lon="-8.5934210">
        <ele>216.9</ele>
        <time>2021-05-24T06:51:56Z</time>
      </trkpt>
      <trkpt lat="42.8387190" lon="-8.5934110">
        <ele>216.9</ele>
        <time>2021-05-24T06:51:57Z</time>
      </trkpt>
      <trkpt lat="42.8387190" lon="-8.5934010">
        <ele>216.9</ele>
        <time>2021-05-24T06:51:58Z</time>
      </trkpt>
      <trkpt lat="42.8387190" lon="-8.5933910">
        <ele>216.9</ele>
        <time>2021-05-24T06:51:59Z</time>
      </trkpt>
      <trkpt lat="42.8387210" lon="-8.5933610">
        <ele>216.9</ele>
        <time>2021-05-24T06:52:00Z</time>
      </trkpt>
      <trkpt lat="42.8387220" lon="-8.5933490">
        <ele>216.9</ele>
        <time>2021-05-24T06:52:01Z</time>
      </trkpt>
      <trkpt lat="42.8387230" lon="-8.5933370">
        <ele>216.9</ele>
        <time>2021-05-24T06:52:02Z</time>
      </trkpt>
      <trkpt lat="42.8387260" lon="-8.5933250">
        <ele>216.8</ele>
        <time>2021-05-24T06:52:03Z</time>
      </trkpt>
      <trkpt lat="42.8387270" lon="-8.5933180">
        <ele>216.8</ele>
        <time>2021-05-24T06:52:04Z</time>
      </trkpt>
      <trkpt lat="42.8387320" lon="-8.5932970">
        <ele>216.8</ele>
        <time>2021-05-24T06:52:05Z</time>
      </trkpt>
      <trkpt lat="42.8387340" lon="-8.5932800">
        <ele>216.8</ele>
        <time>2021-05-24T06:52:06Z</time>
      </trkpt>
      <trkpt lat="42.8387420" lon="-8.5932760">
        <ele>216.8</ele>
        <time>2021-05-24T06:52:07Z</time>
      </trkpt>
      <trkpt lat="42.8387440" lon="-8.5932550">
        <ele>216.8</ele>
        <time>2021-05-24T06:52:08Z</time>
      </trkpt>
      <trkpt lat="42.8387470" lon="-8.5932350">
        <ele>216.8</ele>
        <time>2021-05-24T06:52:09Z</time>
      </trkpt>
      <trkpt lat="42.8387480" lon="-8.5932240">
        <ele>216.8</ele>
        <time>2021-05-24T06:52:10Z</time>
      </trkpt>
      <trkpt lat="42.8387500" lon="-8.5932120">
        <ele>216.8</ele>
        <time>2021-05-24T06:52:11Z</time>
      </trkpt>
      <trkpt lat="42.8387510" lon="-8.5932000">
        <ele>216.8</ele>
        <time>2021-05-24T06:52:12Z</time>
      </trkpt>
      <trkpt lat="42.8387480" lon="-8.5931870">
        <ele>216.8</ele>
        <time>2021-05-24T06:52:13Z</time>
      </trkpt>
      <trkpt lat="42.8387490" lon="-8.5931740">
        <ele>216.8</ele>
        <time>2021-05-24T06:52:14Z</time>
      </trkpt>
      <trkpt lat="42.8387450" lon="-8.5931540">
        <ele>216.7</ele>
        <time>2021-05-24T06:52:15Z</time>
      </trkpt>
      <trkpt lat="42.8387430" lon="-8.5931380">
        <ele>216.7</ele>
        <time>2021-05-24T06:52:16Z</time>
      </trkpt>
      <trkpt lat="42.8387390" lon="-8.5931220">
        <ele>216.7</ele>
        <time>2021-05-24T06:52:17Z</time>
      </trkpt>
      <trkpt lat="42.8387390" lon="-8.5931150">
        <ele>216.7</ele>
        <time>2021-05-24T06:52:18Z</time>
      </trkpt>
      <trkpt lat="42.8387330" lon="-8.5930920">
        <ele>216.7</ele>
        <time>2021-05-24T06:52:19Z</time>
      </trkpt>
      <trkpt lat="42.8387290" lon="-8.5930730">
        <ele>216.7</ele>
        <time>2021-05-24T06:52:20Z</time>
      </trkpt>
      <trkpt lat="42.8387240" lon="-8.5930570">
        <ele>216.6</ele>
        <time>2021-05-24T06:52:21Z</time>
      </trkpt>
      <trkpt lat="42.8387210" lon="-8.5930460">
        <ele>216.6</ele>
        <time>2021-05-24T06:52:22Z</time>
      </trkpt>
      <trkpt lat="42.8387210" lon="-8.5930420">
        <ele>216.6</ele>
        <time>2021-05-24T06:52:23Z</time>
      </trkpt>
      <trkpt lat="42.8387190" lon="-8.5930330">
        <ele>216.6</ele>
        <time>2021-05-24T06:52:24Z</time>
      </trkpt>
      <trkpt lat="42.8387180" lon="-8.5930160">
        <ele>216.6</ele>
        <time>2021-05-24T06:52:25Z</time>
      </trkpt>
      <trkpt lat="42.8387120" lon="-8.5929980">
        <ele>216.6</ele>
        <time>2021-05-24T06:52:26Z</time>
      </trkpt>
      <trkpt lat="42.8387060" lon="-8.5929960">
        <ele>216.6</ele>
        <time>2021-05-24T06:52:27Z</time>
      </trkpt>
      <trkpt lat="42.8387080" lon="-8.5930020">
        <ele>216.6</ele>
        <time>2021-05-24T06:52:28Z</time>
      </trkpt>
      <trkpt lat="42.8387070" lon="-8.5930020">
        <ele>216.6</ele>
        <time>2021-05-24T06:52:29Z</time>
      </trkpt>
      <trkpt lat="42.8387070" lon="-8.5930050">
        <ele>216.6</ele>
        <time>2021-05-24T06:52:30Z</time>
      </trkpt>
      <trkpt lat="42.8387060" lon="-8.5930000">
        <ele>216.6</ele>
        <time>2021-05-24T06:52:31Z</time>
      </trkpt>
      <trkpt lat="42.8387060" lon="-8.5930010">
        <ele>216.6</ele>
        <time>2021-05-24T06:52:32Z</time>
      </trkpt>
      <trkpt lat="42.8387050" lon="-8.5930010">
        <ele>216.6</ele>
        <time>2021-05-24T06:52:33Z</time>
      </trkpt>
      <trkpt lat="42.8387040" lon="-8.5930030">
        <ele>216.6</ele>
        <time>2021-05-24T06:52:34Z</time>
      </trkpt>
      <trkpt lat="42.8387020" lon="-8.5930020">
        <ele>216.6</ele>
        <time>2021-05-24T06:52:35Z</time>
      </trkpt>
      <trkpt lat="42.8387020" lon="-8.5930020">
        <ele>216.6</ele>
        <time>2021-05-24T06:52:36Z</time>
      </trkpt>
      <trkpt lat="42.8387020" lon="-8.5930020">
        <ele>216.6</ele>
        <time>2021-05-24T06:52:37Z</time>
      </trkpt>
      <trkpt lat="42.8386990" lon="-8.5930000">
        <ele>216.6</ele>
        <time>2021-05-24T06:52:38Z</time>
      </trkpt>
      <trkpt lat="42.8386990" lon="-8.5929990">
        <ele>216.6</ele>
        <time>2021-05-24T06:52:39Z</time>
      </trkpt>
      <trkpt lat="42.8386940" lon="-8.5929860">
        <ele>216.6</ele>
        <time>2021-05-24T06:52:40Z</time>
      </trkpt>
      <trkpt lat="42.8386910" lon="-8.5929720">
        <ele>216.5</ele>
        <time>2021-05-24T06:52:41Z</time>
      </trkpt>
      <trkpt lat="42.8386920" lon="-8.5929640">
        <ele>216.4</ele>
        <time>2021-05-24T06:52:42Z</time>
      </trkpt>
      <trkpt lat="42.8386910" lon="-8.5929530">
        <ele>216.4</ele>
        <time>2021-05-24T06:52:43Z</time>
      </trkpt>
      <trkpt lat="42.8386890" lon="-8.5929390">
        <ele>216.3</ele>
        <time>2021-05-24T06:52:44Z</time>
      </trkpt>
      <trkpt lat="42.8386880" lon="-8.5929230">
        <ele>216.2</ele>
        <time>2021-05-24T06:52:45Z</time>
      </trkpt>
      <trkpt lat="42.8386850" lon="-8.5928960">
        <ele>216.1</ele>
        <time>2021-05-24T06:52:46Z</time>
      </trkpt>
      <trkpt lat="42.8386840" lon="-8.5928840">
        <ele>216.0</ele>
        <time>2021-05-24T06:52:47Z</time>
      </trkpt>
      <trkpt lat="42.8386820" lon="-8.5928720">
        <ele>216.0</ele>
        <time>2021-05-24T06:52:48Z</time>
      </trkpt>
      <trkpt lat="42.8386800" lon="-8.5928560">
        <ele>215.9</ele>
        <time>2021-05-24T06:52:49Z</time>
      </trkpt>
      <trkpt lat="42.8386750" lon="-8.5928390">
        <ele>215.8</ele>
        <time>2021-05-24T06:52:50Z</time>
      </trkpt>
      <trkpt lat="42.8386720" lon="-8.5928260">
        <ele>215.7</ele>
        <time>2021-05-24T06:52:51Z</time>
      </trkpt>
      <trkpt lat="42.8386710" lon="-8.5928000">
        <ele>215.5</ele>
        <time>2021-05-24T06:52:52Z</time>
      </trkpt>
      <trkpt lat="42.8386710" lon="-8.5927880">
        <ele>215.5</ele>
        <time>2021-05-24T06:52:53Z</time>
      </trkpt>
      <trkpt lat="42.8386700" lon="-8.5927770">
        <ele>215.4</ele>
        <time>2021-05-24T06:52:54Z</time>
      </trkpt>
      <trkpt lat="42.8386690" lon="-8.5927640">
        <ele>215.3</ele>
        <time>2021-05-24T06:52:55Z</time>
      </trkpt>
      <trkpt lat="42.8386680" lon="-8.5927460">
        <ele>215.2</ele>
        <time>2021-05-24T06:52:56Z</time>
      </trkpt>
      <trkpt lat="42.8386700" lon="-8.5927290">
        <ele>215.1</ele>
        <time>2021-05-24T06:52:57Z</time>
      </trkpt>
      <trkpt lat="42.8386710" lon="-8.5927240">
        <ele>215.1</ele>
        <time>2021-05-24T06:52:58Z</time>
      </trkpt>
      <trkpt lat="42.8386660" lon="-8.5927050">
        <ele>214.9</ele>
        <time>2021-05-24T06:52:59Z</time>
      </trkpt>
      <trkpt lat="42.8386650" lon="-8.5926910">
        <ele>214.9</ele>
        <time>2021-05-24T06:53:00Z</time>
      </trkpt>
      <trkpt lat="42.8386660" lon="-8.5926610">
        <ele>214.7</ele>
        <time>2021-05-24T06:53:01Z</time>
      </trkpt>
      <trkpt lat="42.8386640" lon="-8.5926480">
        <ele>214.6</ele>
        <time>2021-05-24T06:53:02Z</time>
      </trkpt>
      <trkpt lat="42.8386630" lon="-8.5926360">
        <ele>214.5</ele>
        <time>2021-05-24T06:53:03Z</time>
      </trkpt>
      <trkpt lat="42.8386610" lon="-8.5926190">
        <ele>214.4</ele>
        <time>2021-05-24T06:53:04Z</time>
      </trkpt>
      <trkpt lat="42.8386670" lon="-8.5926020">
        <ele>214.2</ele>
        <time>2021-05-24T06:53:05Z</time>
      </trkpt>
      <trkpt lat="42.8386690" lon="-8.5925890">
        <ele>214.1</ele>
        <time>2021-05-24T06:53:06Z</time>
      </trkpt>
      <trkpt lat="42.8386730" lon="-8.5925720">
        <ele>214.0</ele>
        <time>2021-05-24T06:53:07Z</time>
      </trkpt>
      <trkpt lat="42.8386710" lon="-8.5925560">
        <ele>213.9</ele>
        <time>2021-05-24T06:53:08Z</time>
      </trkpt>
      <trkpt lat="42.8386740" lon="-8.5925470">
        <ele>213.8</ele>
        <time>2021-05-24T06:53:09Z</time>
      </trkpt>
      <trkpt lat="42.8386770" lon="-8.5925180">
        <ele>213.6</ele>
        <time>2021-05-24T06:53:10Z</time>
      </trkpt>
      <trkpt lat="42.8386770" lon="-8.5925030">
        <ele>213.5</ele>
        <time>2021-05-24T06:53:11Z</time>
      </trkpt>
      <trkpt lat="42.8386780" lon="-8.5924890">
        <ele>213.4</ele>
        <time>2021-05-24T06:53:12Z</time>
      </trkpt>
      <trkpt lat="42.8386840" lon="-8.5924760">
        <ele>213.3</ele>
        <time>2021-05-24T06:53:13Z</time>
      </trkpt>
      <trkpt lat="42.8386930" lon="-8.5924600">
        <ele>213.2</ele>
        <time>2021-05-24T06:53:14Z</time>
      </trkpt>
      <trkpt lat="42.8386920" lon="-8.5924470">
        <ele>213.1</ele>
        <time>2021-05-24T06:53:15Z</time>
      </trkpt>
      <trkpt lat="42.8386990" lon="-8.5924310">
        <ele>212.9</ele>
        <time>2021-05-24T06:53:16Z</time>
      </trkpt>
      <trkpt lat="42.8387050" lon="-8.5924140">
        <ele>212.8</ele>
        <time>2021-05-24T06:53:17Z</time>
      </trkpt>
      <trkpt lat="42.8387130" lon="-8.5923880">
        <ele>212.6</ele>
        <time>2021-05-24T06:53:18Z</time>
      </trkpt>
      <trkpt lat="42.8387150" lon="-8.5923770">
        <ele>212.5</ele>
        <time>2021-05-24T06:53:19Z</time>
      </trkpt>
      <trkpt lat="42.8387180" lon="-8.5923660">
        <ele>212.4</ele>
        <time>2021-05-24T06:53:20Z</time>
      </trkpt>
      <trkpt lat="42.8387210" lon="-8.5923420">
        <ele>212.2</ele>
        <time>2021-05-24T06:53:21Z</time>
      </trkpt>
      <trkpt lat="42.8387240" lon="-8.5923230">
        <ele>212.2</ele>
        <time>2021-05-24T06:53:22Z</time>
      </trkpt>
      <trkpt lat="42.8387280" lon="-8.5923070">
        <ele>212.1</ele>
        <time>2021-05-24T06:53:23Z</time>
      </trkpt>
      <trkpt lat="42.8387350" lon="-8.5922930">
        <ele>212.0</ele>
        <time>2021-05-24T06:53:24Z</time>
      </trkpt>
      <trkpt lat="42.8387390" lon="-8.5922780">
        <ele>211.9</ele>
        <time>2021-05-24T06:53:25Z</time>
      </trkpt>
      <trkpt lat="42.8387410" lon="-8.5922590">
        <ele>211.9</ele>
        <time>2021-05-24T06:53:26Z</time>
      </trkpt>
      <trkpt lat="42.8387430" lon="-8.5922540">
        <ele>211.8</ele>
        <time>2021-05-24T06:53:27Z</time>
      </trkpt>
      <trkpt lat="42.8387400" lon="-8.5922350">
        <ele>211.8</ele>
        <time>2021-05-24T06:53:28Z</time>
      </trkpt>
      <trkpt lat="42.8387480" lon="-8.5922180">
        <ele>211.7</ele>
        <time>2021-05-24T06:53:29Z</time>
      </trkpt>
      <trkpt lat="42.8387550" lon="-8.5922050">
        <ele>211.6</ele>
        <time>2021-05-24T06:53:30Z</time>
      </trkpt>
      <trkpt lat="42.8387580" lon="-8.5921960">
        <ele>211.6</ele>
        <time>2021-05-24T06:53:31Z</time>
      </trkpt>
      <trkpt lat="42.8387610" lon="-8.5921820">
        <ele>211.5</ele>
        <time>2021-05-24T06:53:32Z</time>
      </trkpt>
      <trkpt lat="42.8387680" lon="-8.5921720">
        <ele>211.4</ele>
        <time>2021-05-24T06:53:33Z</time>
      </trkpt>
      <trkpt lat="42.8387730" lon="-8.5921530">
        <ele>211.3</ele>
        <time>2021-05-24T06:53:34Z</time>
      </trkpt>
      <trkpt lat="42.8387760" lon="-8.5921370">
        <ele>211.3</ele>
        <time>2021-05-24T06:53:35Z</time>
      </trkpt>
      <trkpt lat="42.8387810" lon="-8.5921240">
        <ele>211.2</ele>
        <time>2021-05-24T06:53:36Z</time>
      </trkpt>
      <trkpt lat="42.8387900" lon="-8.5921120">
        <ele>211.1</ele>
        <time>2021-05-24T06:53:37Z</time>
      </trkpt>
      <trkpt lat="42.8387920" lon="-8.5920970">
        <ele>211.1</ele>
        <time>2021-05-24T06:53:38Z</time>
      </trkpt>
      <trkpt lat="42.8388050" lon="-8.5920820">
        <ele>211.0</ele>
        <time>2021-05-24T06:53:39Z</time>
      </trkpt>
      <trkpt lat="42.8388170" lon="-8.5920560">
        <ele>210.9</ele>
        <time>2021-05-24T06:53:40Z</time>
      </trkpt>
      <trkpt lat="42.8388220" lon="-8.5920430">
        <ele>210.9</ele>
        <time>2021-05-24T06:53:41Z</time>
      </trkpt>
      <trkpt lat="42.8388270" lon="-8.5920310">
        <ele>210.8</ele>
        <time>2021-05-24T06:53:42Z</time>
      </trkpt>
      <trkpt lat="42.8388360" lon="-8.5920240">
        <ele>210.8</ele>
        <time>2021-05-24T06:53:43Z</time>
      </trkpt>
      <trkpt lat="42.8388440" lon="-8.5920080">
        <ele>210.7</ele>
        <time>2021-05-24T06:53:44Z</time>
      </trkpt>
      <trkpt lat="42.8388510" lon="-8.5919980">
        <ele>210.7</ele>
        <time>2021-05-24T06:53:45Z</time>
      </trkpt>
      <trkpt lat="42.8388600" lon="-8.5919770">
        <ele>210.6</ele>
        <time>2021-05-24T06:53:46Z</time>
      </trkpt>
      <trkpt lat="42.8388620" lon="-8.5919690">
        <ele>210.6</ele>
        <time>2021-05-24T06:53:47Z</time>
      </trkpt>
      <trkpt lat="42.8388630" lon="-8.5919600">
        <ele>210.5</ele>
        <time>2021-05-24T06:53:48Z</time>
      </trkpt>
      <trkpt lat="42.8388650" lon="-8.5919510">
        <ele>210.5</ele>
        <time>2021-05-24T06:53:49Z</time>
      </trkpt>
      <trkpt lat="42.8388690" lon="-8.5919310">
        <ele>210.4</ele>
        <time>2021-05-24T06:53:50Z</time>
      </trkpt>
      <trkpt lat="42.8388780" lon="-8.5919130">
        <ele>210.3</ele>
        <time>2021-05-24T06:53:51Z</time>
      </trkpt>
      <trkpt lat="42.8388870" lon="-8.5918830">
        <ele>210.2</ele>
        <time>2021-05-24T06:53:52Z</time>
      </trkpt>
      <trkpt lat="42.8388880" lon="-8.5918730">
        <ele>210.2</ele>
        <time>2021-05-24T06:53:53Z</time>
      </trkpt>
      <trkpt lat="42.8388900" lon="-8.5918640">
        <ele>210.2</ele>
        <time>2021-05-24T06:53:54Z</time>
      </trkpt>
      <trkpt lat="42.8388890" lon="-8.5918430">
        <ele>210.1</ele>
        <time>2021-05-24T06:53:55Z</time>
      </trkpt>
      <trkpt lat="42.8388870" lon="-8.5918240">
        <ele>210.0</ele>
        <time>2021-05-24T06:53:56Z</time>
      </trkpt>
      <trkpt lat="42.8388860" lon="-8.5918050">
        <ele>210.0</ele>
        <time>2021-05-24T06:53:57Z</time>
      </trkpt>
      <trkpt lat="42.8388840" lon="-8.5917920">
        <ele>209.9</ele>
        <time>2021-05-24T06:53:58Z</time>
      </trkpt>
      <trkpt lat="42.8388820" lon="-8.5917790">
        <ele>209.9</ele>
        <time>2021-05-24T06:53:59Z</time>
      </trkpt>
      <trkpt lat="42.8388800" lon="-8.5917610">
        <ele>209.8</ele>
        <time>2021-05-24T06:54:00Z</time>
      </trkpt>
      <trkpt lat="42.8388830" lon="-8.5917490">
        <ele>209.8</ele>
        <time>2021-05-24T06:54:01Z</time>
      </trkpt>
      <trkpt lat="42.8388820" lon="-8.5917310">
        <ele>209.8</ele>
        <time>2021-05-24T06:54:02Z</time>
      </trkpt>
      <trkpt lat="42.8388870" lon="-8.5917120">
        <ele>209.7</ele>
        <time>2021-05-24T06:54:03Z</time>
      </trkpt>
      <trkpt lat="42.8388870" lon="-8.5916930">
        <ele>209.7</ele>
        <time>2021-05-24T06:54:04Z</time>
      </trkpt>
      <trkpt lat="42.8388970" lon="-8.5916870">
        <ele>209.7</ele>
        <time>2021-05-24T06:54:05Z</time>
      </trkpt>
      <trkpt lat="42.8388970" lon="-8.5916660">
        <ele>209.7</ele>
        <time>2021-05-24T06:54:06Z</time>
      </trkpt>
      <trkpt lat="42.8389000" lon="-8.5916540">
        <ele>209.6</ele>
        <time>2021-05-24T06:54:07Z</time>
      </trkpt>
      <trkpt lat="42.8389040" lon="-8.5916320">
        <ele>209.6</ele>
        <time>2021-05-24T06:54:08Z</time>
      </trkpt>
      <trkpt lat="42.8389150" lon="-8.5916220">
        <ele>209.6</ele>
        <time>2021-05-24T06:54:09Z</time>
      </trkpt>
      <trkpt lat="42.8389160" lon="-8.5916110">
        <ele>209.6</ele>
        <time>2021-05-24T06:54:10Z</time>
      </trkpt>
      <trkpt lat="42.8389210" lon="-8.5916060">
        <ele>209.5</ele>
        <time>2021-05-24T06:54:11Z</time>
      </trkpt>
      <trkpt lat="42.8389260" lon="-8.5915830">
        <ele>209.5</ele>
        <time>2021-05-24T06:54:12Z</time>
      </trkpt>
      <trkpt lat="42.8389320" lon="-8.5915690">
        <ele>209.5</ele>
        <time>2021-05-24T06:54:13Z</time>
      </trkpt>
      <trkpt lat="42.8389400" lon="-8.5915580">
        <ele>209.4</ele>
        <time>2021-05-24T06:54:14Z</time>
      </trkpt>
      <trkpt lat="42.8389440" lon="-8.5915430">
        <ele>209.4</ele>
        <time>2021-05-24T06:54:15Z</time>
      </trkpt>
      <trkpt lat="42.8389470" lon="-8.5915260">
        <ele>209.4</ele>
        <time>2021-05-24T06:54:16Z</time>
      </trkpt>
      <trkpt lat="42.8389460" lon="-8.5915160">
        <ele>209.3</ele>
        <time>2021-05-24T06:54:17Z</time>
      </trkpt>
      <trkpt lat="42.8389520" lon="-8.5914990">
        <ele>209.3</ele>
        <time>2021-05-24T06:54:18Z</time>
      </trkpt>
      <trkpt lat="42.8389570" lon="-8.5914690">
        <ele>209.2</ele>
        <time>2021-05-24T06:54:19Z</time>
      </trkpt>
      <trkpt lat="42.8389580" lon="-8.5914570">
        <ele>209.2</ele>
        <time>2021-05-24T06:54:20Z</time>
      </trkpt>
      <trkpt lat="42.8389590" lon="-8.5914460">
        <ele>209.2</ele>
        <time>2021-05-24T06:54:21Z</time>
      </trkpt>
      <trkpt lat="42.8389610" lon="-8.5914320">
        <ele>209.2</ele>
        <time>2021-05-24T06:54:22Z</time>
      </trkpt>
      <trkpt lat="42.8389550" lon="-8.5914150">
        <ele>209.1</ele>
        <time>2021-05-24T06:54:23Z</time>
      </trkpt>
      <trkpt lat="42.8389560" lon="-8.5914000">
        <ele>209.1</ele>
        <time>2021-05-24T06:54:24Z</time>
      </trkpt>
      <trkpt lat="42.8389560" lon="-8.5913700">
        <ele>209.0</ele>
        <time>2021-05-24T06:54:25Z</time>
      </trkpt>
      <trkpt lat="42.8389560" lon="-8.5913570">
        <ele>209.0</ele>
        <time>2021-05-24T06:54:26Z</time>
      </trkpt>
      <trkpt lat="42.8389570" lon="-8.5913440">
        <ele>209.0</ele>
        <time>2021-05-24T06:54:27Z</time>
      </trkpt>
      <trkpt lat="42.8389550" lon="-8.5913350">
        <ele>209.0</ele>
        <time>2021-05-24T06:54:28Z</time>
      </trkpt>
      <trkpt lat="42.8389520" lon="-8.5913250">
        <ele>209.0</ele>
        <time>2021-05-24T06:54:29Z</time>
      </trkpt>
      <trkpt lat="42.8389510" lon="-8.5913140">
        <ele>209.0</ele>
        <time>2021-05-24T06:54:30Z</time>
      </trkpt>
      <trkpt lat="42.8389590" lon="-8.5913050">
        <ele>208.9</ele>
        <time>2021-05-24T06:54:31Z</time>
      </trkpt>
      <trkpt lat="42.8389720" lon="-8.5912810">
        <ele>208.9</ele>
        <time>2021-05-24T06:54:32Z</time>
      </trkpt>
      <trkpt lat="42.8389760" lon="-8.5912710">
        <ele>208.9</ele>
        <time>2021-05-24T06:54:33Z</time>
      </trkpt>
      <trkpt lat="42.8389810" lon="-8.5912600">
        <ele>208.9</ele>
        <time>2021-05-24T06:54:34Z</time>
      </trkpt>
      <trkpt lat="42.8389850" lon="-8.5912490">
        <ele>208.9</ele>
        <time>2021-05-24T06:54:35Z</time>
      </trkpt>
      <trkpt lat="42.8389930" lon="-8.5912360">
        <ele>208.8</ele>
        <time>2021-05-24T06:54:36Z</time>
      </trkpt>
      <trkpt lat="42.8389960" lon="-8.5912170">
        <ele>208.8</ele>
        <time>2021-05-24T06:54:37Z</time>
      </trkpt>
      <trkpt lat="42.8389990" lon="-8.5911950">
        <ele>208.8</ele>
        <time>2021-05-24T06:54:38Z</time>
      </trkpt>
      <trkpt lat="42.8389980" lon="-8.5911780">
        <ele>208.8</ele>
        <time>2021-05-24T06:54:39Z</time>
      </trkpt>
      <trkpt lat="42.8390030" lon="-8.5911580">
        <ele>208.7</ele>
        <time>2021-05-24T06:54:40Z</time>
      </trkpt>
      <trkpt lat="42.8389970" lon="-8.5911470">
        <ele>208.7</ele>
        <time>2021-05-24T06:54:41Z</time>
      </trkpt>
      <trkpt lat="42.8390000" lon="-8.5911320">
        <ele>208.7</ele>
        <time>2021-05-24T06:54:42Z</time>
      </trkpt>
      <trkpt lat="42.8389970" lon="-8.5911050">
        <ele>208.7</ele>
        <time>2021-05-24T06:54:43Z</time>
      </trkpt>
      <trkpt lat="42.8389950" lon="-8.5910940">
        <ele>208.7</ele>
        <time>2021-05-24T06:54:44Z</time>
      </trkpt>
      <trkpt lat="42.8389920" lon="-8.5910830">
        <ele>208.7</ele>
        <time>2021-05-24T06:54:45Z</time>
      </trkpt>
      <trkpt lat="42.8389920" lon="-8.5910680">
        <ele>208.7</ele>
        <time>2021-05-24T06:54:46Z</time>
      </trkpt>
      <trkpt lat="42.8389880" lon="-8.5910460">
        <ele>208.7</ele>
        <time>2021-05-24T06:54:47Z</time>
      </trkpt>
      <trkpt lat="42.8389820" lon="-8.5910320">
        <ele>208.6</ele>
        <time>2021-05-24T06:54:48Z</time>
      </trkpt>
      <trkpt lat="42.8389760" lon="-8.5910160">
        <ele>208.6</ele>
        <time>2021-05-24T06:54:49Z</time>
      </trkpt>
      <trkpt lat="42.8389720" lon="-8.5910050">
        <ele>208.6</ele>
        <time>2021-05-24T06:54:50Z</time>
      </trkpt>
      <trkpt lat="42.8389720" lon="-8.5909890">
        <ele>208.6</ele>
        <time>2021-05-24T06:54:51Z</time>
      </trkpt>
      <trkpt lat="42.8389690" lon="-8.5909830">
        <ele>208.6</ele>
        <time>2021-05-24T06:54:52Z</time>
      </trkpt>
      <trkpt lat="42.8389630" lon="-8.5909580">
        <ele>208.6</ele>
        <time>2021-05-24T06:54:53Z</time>
      </trkpt>
      <trkpt lat="42.8389610" lon="-8.5909480">
        <ele>208.6</ele>
        <time>2021-05-24T06:54:54Z</time>
      </trkpt>
      <trkpt lat="42.8389540" lon="-8.5909260">
        <ele>208.6</ele>
        <time>2021-05-24T06:54:55Z</time>
      </trkpt>
      <trkpt lat="42.8389540" lon="-8.5909140">
        <ele>208.6</ele>
        <time>2021-05-24T06:54:56Z</time>
      </trkpt>
      <trkpt lat="42.8389400" lon="-8.5908930">
        <ele>208.7</ele>
        <time>2021-05-24T06:54:57Z</time>
      </trkpt>
      <trkpt lat="42.8389360" lon="-8.5908830">
        <ele>208.7</ele>
        <time>2021-05-24T06:54:58Z</time>
      </trkpt>
      <trkpt lat="42.8389310" lon="-8.5908740">
        <ele>208.7</ele>
        <time>2021-05-24T06:54:59Z</time>
      </trkpt>
      <trkpt lat="42.8389300" lon="-8.5908590">
        <ele>208.7</ele>
        <time>2021-05-24T06:55:00Z</time>
      </trkpt>
      <trkpt lat="42.8389250" lon="-8.5908460">
        <ele>208.7</ele>
        <time>2021-05-24T06:55:01Z</time>
      </trkpt>
      <trkpt lat="42.8389230" lon="-8.5908330">
        <ele>208.7</ele>
        <time>2021-05-24T06:55:02Z</time>
      </trkpt>
      <trkpt lat="42.8389130" lon="-8.5908040">
        <ele>208.7</ele>
        <time>2021-05-24T06:55:03Z</time>
      </trkpt>
      <trkpt lat="42.8389100" lon="-8.5907940">
        <ele>208.7</ele>
        <time>2021-05-24T06:55:04Z</time>
      </trkpt>
      <trkpt lat="42.8389030" lon="-8.5907750">
        <ele>208.7</ele>
        <time>2021-05-24T06:55:05Z</time>
      </trkpt>
      <trkpt lat="42.8388980" lon="-8.5907600">
        <ele>208.7</ele>
        <time>2021-05-24T06:55:06Z</time>
      </trkpt>
      <trkpt lat="42.8388940" lon="-8.5907430">
        <ele>208.7</ele>
        <time>2021-05-24T06:55:07Z</time>
      </trkpt>
      <trkpt lat="42.8388900" lon="-8.5907230">
        <ele>208.7</ele>
        <time>2021-05-24T06:55:08Z</time>
      </trkpt>
      <trkpt lat="42.8388890" lon="-8.5907080">
        <ele>208.8</ele>
        <time>2021-05-24T06:55:09Z</time>
      </trkpt>
      <trkpt lat="42.8388870" lon="-8.5906840">
        <ele>208.8</ele>
        <time>2021-05-24T06:55:10Z</time>
      </trkpt>
      <trkpt lat="42.8388820" lon="-8.5906710">
        <ele>208.8</ele>
        <time>2021-05-24T06:55:11Z</time>
      </trkpt>
      <trkpt lat="42.8388780" lon="-8.5906570">
        <ele>208.8</ele>
        <time>2021-05-24T06:55:12Z</time>
      </trkpt>
      <trkpt lat="42.8388730" lon="-8.5906430">
        <ele>208.8</ele>
        <time>2021-05-24T06:55:13Z</time>
      </trkpt>
      <trkpt lat="42.8388630" lon="-8.5906270">
        <ele>208.8</ele>
        <time>2021-05-24T06:55:14Z</time>
      </trkpt>
      <trkpt lat="42.8388580" lon="-8.5906200">
        <ele>208.8</ele>
        <time>2021-05-24T06:55:15Z</time>
      </trkpt>
      <trkpt lat="42.8388540" lon="-8.5906080">
        <ele>208.8</ele>
        <time>2021-05-24T06:55:16Z</time>
      </trkpt>
      <trkpt lat="42.8388460" lon="-8.5905850">
        <ele>208.8</ele>
        <time>2021-05-24T06:55:17Z</time>
      </trkpt>
      <trkpt lat="42.8388370" lon="-8.5905660">
        <ele>208.8</ele>
        <time>2021-05-24T06:55:18Z</time>
      </trkpt>
      <trkpt lat="42.8388310" lon="-8.5905380">
        <ele>208.9</ele>
        <time>2021-05-24T06:55:19Z</time>
      </trkpt>
      <trkpt lat="42.8388230" lon="-8.5905250">
        <ele>208.9</ele>
        <time>2021-05-24T06:55:20Z</time>
      </trkpt>
      <trkpt lat="42.8388240" lon="-8.5905040">
        <ele>208.9</ele>
        <time>2021-05-24T06:55:21Z</time>
      </trkpt>
      <trkpt lat="42.8388230" lon="-8.5904810">
        <ele>208.9</ele>
        <time>2021-05-24T06:55:22Z</time>
      </trkpt>
      <trkpt lat="42.8388260" lon="-8.5904690">
        <ele>208.9</ele>
        <time>2021-05-24T06:55:23Z</time>
      </trkpt>
      <trkpt lat="42.8388290" lon="-8.5904510">
        <ele>208.9</ele>
        <time>2021-05-24T06:55:24Z</time>
      </trkpt>
      <trkpt lat="42.8388230" lon="-8.5904350">
        <ele>208.9</ele>
        <time>2021-05-24T06:55:25Z</time>
      </trkpt>
      <trkpt lat="42.8388370" lon="-8.5904120">
        <ele>208.9</ele>
        <time>2021-05-24T06:55:26Z</time>
      </trkpt>
      <trkpt lat="42.8388340" lon="-8.5903910">
        <ele>208.9</ele>
        <time>2021-05-24T06:55:27Z</time>
      </trkpt>
      <trkpt lat="42.8388450" lon="-8.5903630">
        <ele>209.0</ele>
        <time>2021-05-24T06:55:28Z</time>
      </trkpt>
      <trkpt lat="42.8388480" lon="-8.5903540">
        <ele>209.0</ele>
        <time>2021-05-24T06:55:29Z</time>
      </trkpt>
      <trkpt lat="42.8388520" lon="-8.5903460">
        <ele>209.0</ele>
        <time>2021-05-24T06:55:30Z</time>
      </trkpt>
      <trkpt lat="42.8388630" lon="-8.5903260">
        <ele>209.0</ele>
        <time>2021-05-24T06:55:31Z</time>
      </trkpt>
      <trkpt lat="42.8388700" lon="-8.5903110">
        <ele>209.0</ele>
        <time>2021-05-24T06:55:32Z</time>
      </trkpt>
      <trkpt lat="42.8388790" lon="-8.5902880">
        <ele>209.0</ele>
        <time>2021-05-24T06:55:33Z</time>
      </trkpt>
      <trkpt lat="42.8388840" lon="-8.5902780">
        <ele>209.0</ele>
        <time>2021-05-24T06:55:34Z</time>
      </trkpt>
      <trkpt lat="42.8388900" lon="-8.5902670">
        <ele>209.0</ele>
        <time>2021-05-24T06:55:35Z</time>
      </trkpt>
      <trkpt lat="42.8388910" lon="-8.5902590">
        <ele>209.0</ele>
        <time>2021-05-24T06:55:36Z</time>
      </trkpt>
      <trkpt lat="42.8388990" lon="-8.5902410">
        <ele>209.1</ele>
        <time>2021-05-24T06:55:37Z</time>
      </trkpt>
      <trkpt lat="42.8389060" lon="-8.5902280">
        <ele>209.1</ele>
        <time>2021-05-24T06:55:38Z</time>
      </trkpt>
      <trkpt lat="42.8389140" lon="-8.5902140">
        <ele>209.1</ele>
        <time>2021-05-24T06:55:39Z</time>
      </trkpt>
      <trkpt lat="42.8389190" lon="-8.5902020">
        <ele>209.1</ele>
        <time>2021-05-24T06:55:40Z</time>
      </trkpt>
      <trkpt lat="42.8389230" lon="-8.5901920">
        <ele>209.1</ele>
        <time>2021-05-24T06:55:41Z</time>
      </trkpt>
      <trkpt lat="42.8389250" lon="-8.5901880">
        <ele>209.1</ele>
        <time>2021-05-24T06:55:42Z</time>
      </trkpt>
      <trkpt lat="42.8389330" lon="-8.5901690">
        <ele>209.1</ele>
        <time>2021-05-24T06:55:43Z</time>
      </trkpt>
      <trkpt lat="42.8389360" lon="-8.5901530">
        <ele>209.1</ele>
        <time>2021-05-24T06:55:44Z</time>
      </trkpt>
      <trkpt lat="42.8389390" lon="-8.5901420">
        <ele>209.1</ele>
        <time>2021-05-24T06:55:45Z</time>
      </trkpt>
      <trkpt lat="42.8389530" lon="-8.5901300">
        <ele>209.2</ele>
        <time>2021-05-24T06:55:46Z</time>
      </trkpt>
      <trkpt lat="42.8389490" lon="-8.5901260">
        <ele>209.2</ele>
        <time>2021-05-24T06:55:47Z</time>
      </trkpt>
      <trkpt lat="42.8389570" lon="-8.5901140">
        <ele>209.2</ele>
        <time>2021-05-24T06:55:48Z</time>
      </trkpt>
      <trkpt lat="42.8389730" lon="-8.5900840">
        <ele>209.2</ele>
        <time>2021-05-24T06:55:49Z</time>
      </trkpt>
      <trkpt lat="42.8389790" lon="-8.5900750">
        <ele>209.2</ele>
        <time>2021-05-24T06:55:50Z</time>
      </trkpt>
      <trkpt lat="42.8389890" lon="-8.5900530">
        <ele>209.2</ele>
        <time>2021-05-24T06:55:51Z</time>
      </trkpt>
      <trkpt lat="42.8389960" lon="-8.5900380">
        <ele>209.2</ele>
        <time>2021-05-24T06:55:52Z</time>
      </trkpt>
      <trkpt lat="42.8390000" lon="-8.5900230">
        <ele>209.3</ele>
        <time>2021-05-24T06:55:53Z</time>
      </trkpt>
      <trkpt lat="42.8390100" lon="-8.5900150">
        <ele>209.3</ele>
        <time>2021-05-24T06:55:54Z</time>
      </trkpt>
      <trkpt lat="42.8390170" lon="-8.5900000">
        <ele>209.3</ele>
        <time>2021-05-24T06:55:55Z</time>
      </trkpt>
      <trkpt lat="42.8390220" lon="-8.5899860">
        <ele>209.3</ele>
        <time>2021-05-24T06:55:56Z</time>
      </trkpt>
      <trkpt lat="42.8390270" lon="-8.5899630">
        <ele>209.3</ele>
        <time>2021-05-24T06:55:57Z</time>
      </trkpt>
      <trkpt lat="42.8390310" lon="-8.5899480">
        <ele>209.3</ele>
        <time>2021-05-24T06:55:58Z</time>
      </trkpt>
      <trkpt lat="42.8390420" lon="-8.5899310">
        <ele>209.4</ele>
        <time>2021-05-24T06:55:59Z</time>
      </trkpt>
      <trkpt lat="42.8390530" lon="-8.5899150">
        <ele>209.4</ele>
        <time>2021-05-24T06:56:00Z</time>
      </trkpt>
      <trkpt lat="42.8390570" lon="-8.5898990">
        <ele>209.4</ele>
        <time>2021-05-24T06:56:01Z</time>
      </trkpt>
      <trkpt lat="42.8390640" lon="-8.5898860">
        <ele>209.4</ele>
        <time>2021-05-24T06:56:02Z</time>
      </trkpt>
      <trkpt lat="42.8390690" lon="-8.5898620">
        <ele>209.4</ele>
        <time>2021-05-24T06:56:03Z</time>
      </trkpt>
      <trkpt lat="42.8390840" lon="-8.5898450">
        <ele>209.5</ele>
        <time>2021-05-24T06:56:04Z</time>
      </trkpt>
      <trkpt lat="42.8390890" lon="-8.5898370">
        <ele>209.5</ele>
        <time>2021-05-24T06:56:05Z</time>
      </trkpt>
      <trkpt lat="42.8390950" lon="-8.5898280">
        <ele>209.5</ele>
        <time>2021-05-24T06:56:06Z</time>
      </trkpt>
      <trkpt lat="42.8391060" lon="-8.5897990">
        <ele>209.5</ele>
        <time>2021-05-24T06:56:07Z</time>
      </trkpt>
      <trkpt lat="42.8391090" lon="-8.5897870">
        <ele>209.5</ele>
        <time>2021-05-24T06:56:08Z</time>
      </trkpt>
      <trkpt lat="42.8391130" lon="-8.5897760">
        <ele>209.5</ele>
        <time>2021-05-24T06:56:09Z</time>
      </trkpt>
      <trkpt lat="42.8391260" lon="-8.5897570">
        <ele>209.5</ele>
        <time>2021-05-24T06:56:10Z</time>
      </trkpt>
      <trkpt lat="42.8391380" lon="-8.5897460">
        <ele>209.5</ele>
        <time>2021-05-24T06:56:11Z</time>
      </trkpt>
      <trkpt lat="42.8391480" lon="-8.5897270">
        <ele>209.6</ele>
        <time>2021-05-24T06:56:12Z</time>
      </trkpt>
      <trkpt lat="42.8391560" lon="-8.5897150">
        <ele>209.6</ele>
        <time>2021-05-24T06:56:13Z</time>
      </trkpt>
      <trkpt lat="42.8391640" lon="-8.5896940">
        <ele>209.6</ele>
        <time>2021-05-24T06:56:14Z</time>
      </trkpt>
      <trkpt lat="42.8391740" lon="-8.5896860">
        <ele>209.6</ele>
        <time>2021-05-24T06:56:15Z</time>
      </trkpt>
      <trkpt lat="42.8391780" lon="-8.5896640">
        <ele>209.6</ele>
        <time>2021-05-24T06:56:16Z</time>
      </trkpt>
      <trkpt lat="42.8391830" lon="-8.5896560">
        <ele>209.6</ele>
        <time>2021-05-24T06:56:17Z</time>
      </trkpt>
      <trkpt lat="42.8391900" lon="-8.5896430">
        <ele>209.6</ele>
        <time>2021-05-24T06:56:18Z</time>
      </trkpt>
      <trkpt lat="42.8391970" lon="-8.5896280">
        <ele>209.7</ele>
        <time>2021-05-24T06:56:19Z</time>
      </trkpt>
      <trkpt lat="42.8392040" lon="-8.5896170">
        <ele>209.7</ele>
        <time>2021-05-24T06:56:20Z</time>
      </trkpt>
      <trkpt lat="42.8392060" lon="-8.5896040">
        <ele>209.7</ele>
        <time>2021-05-24T06:56:21Z</time>
      </trkpt>
      <trkpt lat="42.8392120" lon="-8.5895830">
        <ele>209.7</ele>
        <time>2021-05-24T06:56:22Z</time>
      </trkpt>
      <trkpt lat="42.8392200" lon="-8.5895630">
        <ele>209.7</ele>
        <time>2021-05-24T06:56:23Z</time>
      </trkpt>
      <trkpt lat="42.8392300" lon="-8.5895410">
        <ele>209.7</ele>
        <time>2021-05-24T06:56:24Z</time>
      </trkpt>
      <trkpt lat="42.8392330" lon="-8.5895290">
        <ele>209.7</ele>
        <time>2021-05-24T06:56:25Z</time>
      </trkpt>
      <trkpt lat="42.8392370" lon="-8.5895160">
        <ele>209.8</ele>
        <time>2021-05-24T06:56:26Z</time>
      </trkpt>
      <trkpt lat="42.8392430" lon="-8.5895010">
        <ele>209.8</ele>
        <time>2021-05-24T06:56:27Z</time>
      </trkpt>
      <trkpt lat="42.8392440" lon="-8.5894880">
        <ele>209.8</ele>
        <time>2021-05-24T06:56:28Z</time>
      </trkpt>
      <trkpt lat="42.8392500" lon="-8.5894710">
        <ele>209.8</ele>
        <time>2021-05-24T06:56:29Z</time>
      </trkpt>
      <trkpt lat="42.8392570" lon="-8.5894630">
        <ele>209.8</ele>
        <time>2021-05-24T06:56:30Z</time>
      </trkpt>
      <trkpt lat="42.8392610" lon="-8.5894480">
        <ele>209.8</ele>
        <time>2021-05-24T06:56:31Z</time>
      </trkpt>
      <trkpt lat="42.8392700" lon="-8.5894330">
        <ele>209.8</ele>
        <time>2021-05-24T06:56:32Z</time>
      </trkpt>
      <trkpt lat="42.8392780" lon="-8.5894170">
        <ele>209.9</ele>
        <time>2021-05-24T06:56:33Z</time>
      </trkpt>
      <trkpt lat="42.8392800" lon="-8.5893960">
        <ele>209.9</ele>
        <time>2021-05-24T06:56:34Z</time>
      </trkpt>
      <trkpt lat="42.8392890" lon="-8.5893870">
        <ele>209.9</ele>
        <time>2021-05-24T06:56:35Z</time>
      </trkpt>
      <trkpt lat="42.8393000" lon="-8.5893670">
        <ele>209.9</ele>
        <time>2021-05-24T06:56:36Z</time>
      </trkpt>
      <trkpt lat="42.8393070" lon="-8.5893520">
        <ele>209.9</ele>
        <time>2021-05-24T06:56:37Z</time>
      </trkpt>
      <trkpt lat="42.8393180" lon="-8.5893380">
        <ele>209.9</ele>
        <time>2021-05-24T06:56:38Z</time>
      </trkpt>
      <trkpt lat="42.8393230" lon="-8.5893280">
        <ele>209.9</ele>
        <time>2021-05-24T06:56:39Z</time>
      </trkpt>
      <trkpt lat="42.8393320" lon="-8.5893110">
        <ele>210.0</ele>
        <time>2021-05-24T06:56:40Z</time>
      </trkpt>
      <trkpt lat="42.8393310" lon="-8.5893000">
        <ele>210.0</ele>
        <time>2021-05-24T06:56:41Z</time>
      </trkpt>
      <trkpt lat="42.8393430" lon="-8.5892750">
        <ele>210.0</ele>
        <time>2021-05-24T06:56:42Z</time>
      </trkpt>
      <trkpt lat="42.8393490" lon="-8.5892630">
        <ele>210.0</ele>
        <time>2021-05-24T06:56:43Z</time>
      </trkpt>
      <trkpt lat="42.8393540" lon="-8.5892520">
        <ele>210.0</ele>
        <time>2021-05-24T06:56:44Z</time>
      </trkpt>
      <trkpt lat="42.8393600" lon="-8.5892410">
        <ele>210.0</ele>
        <time>2021-05-24T06:56:45Z</time>
      </trkpt>
      <trkpt lat="42.8393660" lon="-8.5892240">
        <ele>210.1</ele>
        <time>2021-05-24T06:56:46Z</time>
      </trkpt>
      <trkpt lat="42.8393670" lon="-8.5892130">
        <ele>210.1</ele>
        <time>2021-05-24T06:56:47Z</time>
      </trkpt>
      <trkpt lat="42.8393730" lon="-8.5891830">
        <ele>210.1</ele>
        <time>2021-05-24T06:56:48Z</time>
      </trkpt>
      <trkpt lat="42.8393740" lon="-8.5891690">
        <ele>210.1</ele>
        <time>2021-05-24T06:56:49Z</time>
      </trkpt>
      <trkpt lat="42.8393740" lon="-8.5891560">
        <ele>210.1</ele>
        <time>2021-05-24T06:56:50Z</time>
      </trkpt>
      <trkpt lat="42.8393830" lon="-8.5891430">
        <ele>210.1</ele>
        <time>2021-05-24T06:56:51Z</time>
      </trkpt>
      <trkpt lat="42.8393990" lon="-8.5891220">
        <ele>210.2</ele>
        <time>2021-05-24T06:56:52Z</time>
      </trkpt>
      <trkpt lat="42.8394040" lon="-8.5891060">
        <ele>210.2</ele>
        <time>2021-05-24T06:56:53Z</time>
      </trkpt>
      <trkpt lat="42.8394090" lon="-8.5890950">
        <ele>210.2</ele>
        <time>2021-05-24T06:56:54Z</time>
      </trkpt>
      <trkpt lat="42.8394130" lon="-8.5890850">
        <ele>210.2</ele>
        <time>2021-05-24T06:56:55Z</time>
      </trkpt>
      <trkpt lat="42.8394170" lon="-8.5890740">
        <ele>210.2</ele>
        <time>2021-05-24T06:56:56Z</time>
      </trkpt>
      <trkpt lat="42.8394250" lon="-8.5890590">
        <ele>210.2</ele>
        <time>2021-05-24T06:56:57Z</time>
      </trkpt>
      <trkpt lat="42.8394320" lon="-8.5890490">
        <ele>210.2</ele>
        <time>2021-05-24T06:56:58Z</time>
      </trkpt>
      <trkpt lat="42.8394380" lon="-8.5890350">
        <ele>210.3</ele>
        <time>2021-05-24T06:56:59Z</time>
      </trkpt>
      <trkpt lat="42.8394550" lon="-8.5890180">
        <ele>210.3</ele>
        <time>2021-05-24T06:57:00Z</time>
      </trkpt>
      <trkpt lat="42.8394590" lon="-8.5890100">
        <ele>210.3</ele>
        <time>2021-05-24T06:57:01Z</time>
      </trkpt>
      <trkpt lat="42.8394730" lon="-8.5889930">
        <ele>210.3</ele>
        <time>2021-05-24T06:57:02Z</time>
      </trkpt>
      <trkpt lat="42.8394820" lon="-8.5889890">
        <ele>210.3</ele>
        <time>2021-05-24T06:57:03Z</time>
      </trkpt>
      <trkpt lat="42.8394890" lon="-8.5889710">
        <ele>210.4</ele>
        <time>2021-05-24T06:57:04Z</time>
      </trkpt>
      <trkpt lat="42.8395000" lon="-8.5889510">
        <ele>210.4</ele>
        <time>2021-05-24T06:57:05Z</time>
      </trkpt>
      <trkpt lat="42.8395070" lon="-8.5889340">
        <ele>210.4</ele>
        <time>2021-05-24T06:57:06Z</time>
      </trkpt>
      <trkpt lat="42.8395060" lon="-8.5889240">
        <ele>210.4</ele>
        <time>2021-05-24T06:57:07Z</time>
      </trkpt>
      <trkpt lat="42.8395150" lon="-8.5889200">
        <ele>210.4</ele>
        <time>2021-05-24T06:57:08Z</time>
      </trkpt>
      <trkpt lat="42.8395220" lon="-8.5888970">
        <ele>210.4</ele>
        <time>2021-05-24T06:57:09Z</time>
      </trkpt>
      <trkpt lat="42.8395300" lon="-8.5888780">
        <ele>210.5</ele>
        <time>2021-05-24T06:57:10Z</time>
      </trkpt>
      <trkpt lat="42.8395400" lon="-8.5888590">
        <ele>210.5</ele>
        <time>2021-05-24T06:57:11Z</time>
      </trkpt>
      <trkpt lat="42.8395470" lon="-8.5888440">
        <ele>210.5</ele>
        <time>2021-05-24T06:57:12Z</time>
      </trkpt>
      <trkpt lat="42.8395540" lon="-8.5888300">
        <ele>210.5</ele>
        <time>2021-05-24T06:57:13Z</time>
      </trkpt>
      <trkpt lat="42.8395580" lon="-8.5888100">
        <ele>210.5</ele>
        <time>2021-05-24T06:57:14Z</time>
      </trkpt>
      <trkpt lat="42.8395740" lon="-8.5887920">
        <ele>210.6</ele>
        <time>2021-05-24T06:57:15Z</time>
      </trkpt>
      <trkpt lat="42.8395800" lon="-8.5887740">
        <ele>210.6</ele>
        <time>2021-05-24T06:57:16Z</time>
      </trkpt>
      <trkpt lat="42.8395840" lon="-8.5887470">
        <ele>210.6</ele>
        <time>2021-05-24T06:57:17Z</time>
      </trkpt>
      <trkpt lat="42.8395870" lon="-8.5887190">
        <ele>210.6</ele>
        <time>2021-05-24T06:57:18Z</time>
      </trkpt>
      <trkpt lat="42.8395870" lon="-8.5887070">
        <ele>210.7</ele>
        <time>2021-05-24T06:57:19Z</time>
      </trkpt>
      <trkpt lat="42.8395880" lon="-8.5886960">
        <ele>210.7</ele>
        <time>2021-05-24T06:57:20Z</time>
      </trkpt>
      <trkpt lat="42.8395930" lon="-8.5886710">
        <ele>210.7</ele>
        <time>2021-05-24T06:57:21Z</time>
      </trkpt>
      <trkpt lat="42.8395970" lon="-8.5886570">
        <ele>210.7</ele>
        <time>2021-05-24T06:57:22Z</time>
      </trkpt>
      <trkpt lat="42.8396020" lon="-8.5886440">
        <ele>210.7</ele>
        <time>2021-05-24T06:57:23Z</time>
      </trkpt>
      <trkpt lat="42.8396100" lon="-8.5886280">
        <ele>210.7</ele>
        <time>2021-05-24T06:57:24Z</time>
      </trkpt>
      <trkpt lat="42.8396180" lon="-8.5886110">
        <ele>210.7</ele>
        <time>2021-05-24T06:57:25Z</time>
      </trkpt>
      <trkpt lat="42.8396300" lon="-8.5886100">
        <ele>210.8</ele>
        <time>2021-05-24T06:57:26Z</time>
      </trkpt>
      <trkpt lat="42.8396300" lon="-8.5885950">
        <ele>210.8</ele>
        <time>2021-05-24T06:57:27Z</time>
      </trkpt>
      <trkpt lat="42.8396410" lon="-8.5885820">
        <ele>210.8</ele>
        <time>2021-05-24T06:57:28Z</time>
      </trkpt>
      <trkpt lat="42.8396470" lon="-8.5885720">
        <ele>210.8</ele>
        <time>2021-05-24T06:57:29Z</time>
      </trkpt>
      <trkpt lat="42.8396570" lon="-8.5885540">
        <ele>210.8</ele>
        <time>2021-05-24T06:57:30Z</time>
      </trkpt>
      <trkpt lat="42.8396680" lon="-8.5885530">
        <ele>210.8</ele>
        <time>2021-05-24T06:57:31Z</time>
      </trkpt>
      <trkpt lat="42.8396730" lon="-8.5885460">
        <ele>210.8</ele>
        <time>2021-05-24T06:57:32Z</time>
      </trkpt>
      <trkpt lat="42.8396820" lon="-8.5885320">
        <ele>210.8</ele>
        <time>2021-05-24T06:57:33Z</time>
      </trkpt>
      <trkpt lat="42.8396860" lon="-8.5885140">
        <ele>210.9</ele>
        <time>2021-05-24T06:57:34Z</time>
      </trkpt>
      <trkpt lat="42.8396920" lon="-8.5885080">
        <ele>210.9</ele>
        <time>2021-05-24T06:57:35Z</time>
      </trkpt>
      <trkpt lat="42.8396950" lon="-8.5884940">
        <ele>210.9</ele>
        <time>2021-05-24T06:57:36Z</time>
      </trkpt>
      <trkpt lat="42.8397040" lon="-8.5884770">
        <ele>210.9</ele>
        <time>2021-05-24T06:57:37Z</time>
      </trkpt>
      <trkpt lat="42.8397030" lon="-8.5884690">
        <ele>210.9</ele>
        <time>2021-05-24T06:57:38Z</time>
      </trkpt>
      <trkpt lat="42.8397040" lon="-8.5884510">
        <ele>210.9</ele>
        <time>2021-05-24T06:57:39Z</time>
      </trkpt>
      <trkpt lat="42.8397090" lon="-8.5884320">
        <ele>210.9</ele>
        <time>2021-05-24T06:57:40Z</time>
      </trkpt>
      <trkpt lat="42.8397170" lon="-8.5884170">
        <ele>210.9</ele>
        <time>2021-05-24T06:57:41Z</time>
      </trkpt>
      <trkpt lat="42.8397260" lon="-8.5883960">
        <ele>211.0</ele>
        <time>2021-05-24T06:57:42Z</time>
      </trkpt>
      <trkpt lat="42.8397340" lon="-8.5883780">
        <ele>211.0</ele>
        <time>2021-05-24T06:57:43Z</time>
      </trkpt>
      <trkpt lat="42.8397420" lon="-8.5883670">
        <ele>211.0</ele>
        <time>2021-05-24T06:57:44Z</time>
      </trkpt>
      <trkpt lat="42.8397490" lon="-8.5883570">
        <ele>211.0</ele>
        <time>2021-05-24T06:57:45Z</time>
      </trkpt>
      <trkpt lat="42.8397620" lon="-8.5883430">
        <ele>211.0</ele>
        <time>2021-05-24T06:57:46Z</time>
      </trkpt>
      <trkpt lat="42.8397760" lon="-8.5883330">
        <ele>211.0</ele>
        <time>2021-05-24T06:57:47Z</time>
      </trkpt>
      <trkpt lat="42.8397920" lon="-8.5883160">
        <ele>211.1</ele>
        <time>2021-05-24T06:57:48Z</time>
      </trkpt>
      <trkpt lat="42.8397990" lon="-8.5883070">
        <ele>211.1</ele>
        <time>2021-05-24T06:57:49Z</time>
      </trkpt>
      <trkpt lat="42.8398050" lon="-8.5882980">
        <ele>211.1</ele>
        <time>2021-05-24T06:57:50Z</time>
      </trkpt>
      <trkpt lat="42.8398140" lon="-8.5882800">
        <ele>211.1</ele>
        <time>2021-05-24T06:57:51Z</time>
      </trkpt>
      <trkpt lat="42.8398230" lon="-8.5882610">
        <ele>211.1</ele>
        <time>2021-05-24T06:57:52Z</time>
      </trkpt>
      <trkpt lat="42.8398370" lon="-8.5882470">
        <ele>211.1</ele>
        <time>2021-05-24T06:57:53Z</time>
      </trkpt>
      <trkpt lat="42.8398450" lon="-8.5882360">
        <ele>211.2</ele>
        <time>2021-05-24T06:57:54Z</time>
      </trkpt>
      <trkpt lat="42.8398550" lon="-8.5882210">
        <ele>211.2</ele>
        <time>2021-05-24T06:57:55Z</time>
      </trkpt>
      <trkpt lat="42.8398620" lon="-8.5882100">
        <ele>211.2</ele>
        <time>2021-05-24T06:57:56Z</time>
      </trkpt>
      <trkpt lat="42.8398680" lon="-8.5882020">
        <ele>211.2</ele>
        <time>2021-05-24T06:57:57Z</time>
      </trkpt>
      <trkpt lat="42.8398790" lon="-8.5881740">
        <ele>211.2</ele>
        <time>2021-05-24T06:57:58Z</time>
      </trkpt>
      <trkpt lat="42.8398880" lon="-8.5881640">
        <ele>211.2</ele>
        <time>2021-05-24T06:57:59Z</time>
      </trkpt>
      <trkpt lat="42.8398960" lon="-8.5881530">
        <ele>211.2</ele>
        <time>2021-05-24T06:58:00Z</time>
      </trkpt>
      <trkpt lat="42.8399010" lon="-8.5881390">
        <ele>211.3</ele>
        <time>2021-05-24T06:58:01Z</time>
      </trkpt>
      <trkpt lat="42.8399100" lon="-8.5881250">
        <ele>211.3</ele>
        <time>2021-05-24T06:58:02Z</time>
      </trkpt>
      <trkpt lat="42.8399130" lon="-8.5881100">
        <ele>211.3</ele>
        <time>2021-05-24T06:58:03Z</time>
      </trkpt>
      <trkpt lat="42.8399150" lon="-8.5881000">
        <ele>211.3</ele>
        <time>2021-05-24T06:58:04Z</time>
      </trkpt>
      <trkpt lat="42.8399150" lon="-8.5880900">
        <ele>211.3</ele>
        <time>2021-05-24T06:58:05Z</time>
      </trkpt>
      <trkpt lat="42.8399210" lon="-8.5880820">
        <ele>211.3</ele>
        <time>2021-05-24T06:58:06Z</time>
      </trkpt>
      <trkpt lat="42.8399230" lon="-8.5880680">
        <ele>211.3</ele>
        <time>2021-05-24T06:58:07Z</time>
      </trkpt>
      <trkpt lat="42.8399320" lon="-8.5880430">
        <ele>211.4</ele>
        <time>2021-05-24T06:58:08Z</time>
      </trkpt>
      <trkpt lat="42.8399360" lon="-8.5880230">
        <ele>211.4</ele>
        <time>2021-05-24T06:58:09Z</time>
      </trkpt>
      <trkpt lat="42.8399470" lon="-8.5879970">
        <ele>211.4</ele>
        <time>2021-05-24T06:58:10Z</time>
      </trkpt>
      <trkpt lat="42.8399530" lon="-8.5879900">
        <ele>211.4</ele>
        <time>2021-05-24T06:58:11Z</time>
      </trkpt>
      <trkpt lat="42.8399600" lon="-8.5879830">
        <ele>211.4</ele>
        <time>2021-05-24T06:58:12Z</time>
      </trkpt>
      <trkpt lat="42.8399620" lon="-8.5879810">
        <ele>211.4</ele>
        <time>2021-05-24T06:58:13Z</time>
      </trkpt>
      <trkpt lat="42.8399710" lon="-8.5879620">
        <ele>211.5</ele>
        <time>2021-05-24T06:58:14Z</time>
      </trkpt>
      <trkpt lat="42.8399830" lon="-8.5879470">
        <ele>211.5</ele>
        <time>2021-05-24T06:58:15Z</time>
      </trkpt>
      <trkpt lat="42.8399940" lon="-8.5879290">
        <ele>211.5</ele>
        <time>2021-05-24T06:58:16Z</time>
      </trkpt>
      <trkpt lat="42.8400010" lon="-8.5879160">
        <ele>211.5</ele>
        <time>2021-05-24T06:58:17Z</time>
      </trkpt>
      <trkpt lat="42.8400210" lon="-8.5878900">
        <ele>211.6</ele>
        <time>2021-05-24T06:58:18Z</time>
      </trkpt>
      <trkpt lat="42.8400280" lon="-8.5878790">
        <ele>211.6</ele>
        <time>2021-05-24T06:58:19Z</time>
      </trkpt>
      <trkpt lat="42.8400410" lon="-8.5878500">
        <ele>211.6</ele>
        <time>2021-05-24T06:58:20Z</time>
      </trkpt>
      <trkpt lat="42.8400450" lon="-8.5878420">
        <ele>211.6</ele>
        <time>2021-05-24T06:58:21Z</time>
      </trkpt>
      <trkpt lat="42.8400490" lon="-8.5878350">
        <ele>211.6</ele>
        <time>2021-05-24T06:58:22Z</time>
      </trkpt>
      <trkpt lat="42.8400660" lon="-8.5878110">
        <ele>211.7</ele>
        <time>2021-05-24T06:58:23Z</time>
      </trkpt>
      <trkpt lat="42.8400730" lon="-8.5878020">
        <ele>211.7</ele>
        <time>2021-05-24T06:58:24Z</time>
      </trkpt>
      <trkpt lat="42.8400810" lon="-8.5877930">
        <ele>211.7</ele>
        <time>2021-05-24T06:58:25Z</time>
      </trkpt>
      <trkpt lat="42.8400930" lon="-8.5877730">
        <ele>211.7</ele>
        <time>2021-05-24T06:58:26Z</time>
      </trkpt>
      <trkpt lat="42.8400950" lon="-8.5877610">
        <ele>211.8</ele>
        <time>2021-05-24T06:58:27Z</time>
      </trkpt>
      <trkpt lat="42.8401000" lon="-8.5877510">
        <ele>211.8</ele>
        <time>2021-05-24T06:58:28Z</time>
      </trkpt>
      <trkpt lat="42.8401050" lon="-8.5877410">
        <ele>211.8</ele>
        <time>2021-05-24T06:58:29Z</time>
      </trkpt>
      <trkpt lat="42.8401120" lon="-8.5877260">
        <ele>211.8</ele>
        <time>2021-05-24T06:58:30Z</time>
      </trkpt>
      <trkpt lat="42.8401210" lon="-8.5877200">
        <ele>211.8</ele>
        <time>2021-05-24T06:58:31Z</time>
      </trkpt>
      <trkpt lat="42.8401280" lon="-8.5877000">
        <ele>211.8</ele>
        <time>2021-05-24T06:58:32Z</time>
      </trkpt>
      <trkpt lat="42.8401310" lon="-8.5876850">
        <ele>211.9</ele>
        <time>2021-05-24T06:58:33Z</time>
      </trkpt>
      <trkpt lat="42.8401340" lon="-8.5876710">
        <ele>211.9</ele>
        <time>2021-05-24T06:58:34Z</time>
      </trkpt>
      <trkpt lat="42.8401420" lon="-8.5876420">
        <ele>211.9</ele>
        <time>2021-05-24T06:58:35Z</time>
      </trkpt>
      <trkpt lat="42.8401460" lon="-8.5876320">
        <ele>211.9</ele>
        <time>2021-05-24T06:58:36Z</time>
      </trkpt>
      <trkpt lat="42.8401510" lon="-8.5876210">
        <ele>211.9</ele>
        <time>2021-05-24T06:58:37Z</time>
      </trkpt>
      <trkpt lat="42.8401570" lon="-8.5876030">
        <ele>212.0</ele>
        <time>2021-05-24T06:58:38Z</time>
      </trkpt>
      <trkpt lat="42.8401630" lon="-8.5875850">
        <ele>212.0</ele>
        <time>2021-05-24T06:58:39Z</time>
      </trkpt>
      <trkpt lat="42.8401660" lon="-8.5875670">
        <ele>212.0</ele>
        <time>2021-05-24T06:58:40Z</time>
      </trkpt>
      <trkpt lat="42.8401690" lon="-8.5875450">
        <ele>212.0</ele>
        <time>2021-05-24T06:58:41Z</time>
      </trkpt>
      <trkpt lat="42.8401780" lon="-8.5875310">
        <ele>212.0</ele>
        <time>2021-05-24T06:58:42Z</time>
      </trkpt>
      <trkpt lat="42.8401830" lon="-8.5875120">
        <ele>212.1</ele>
        <time>2021-05-24T06:58:43Z</time>
      </trkpt>
      <trkpt lat="42.8401860" lon="-8.5874920">
        <ele>212.1</ele>
        <time>2021-05-24T06:58:44Z</time>
      </trkpt>
      <trkpt lat="42.8401920" lon="-8.5874760">
        <ele>212.1</ele>
        <time>2021-05-24T06:58:45Z</time>
      </trkpt>
      <trkpt lat="42.8401980" lon="-8.5874590">
        <ele>212.1</ele>
        <time>2021-05-24T06:58:46Z</time>
      </trkpt>
      <trkpt lat="42.8402080" lon="-8.5874440">
        <ele>212.2</ele>
        <time>2021-05-24T06:58:47Z</time>
      </trkpt>
      <trkpt lat="42.8402090" lon="-8.5874260">
        <ele>212.2</ele>
        <time>2021-05-24T06:58:48Z</time>
      </trkpt>
      <trkpt lat="42.8402160" lon="-8.5874120">
        <ele>212.2</ele>
        <time>2021-05-24T06:58:49Z</time>
      </trkpt>
      <trkpt lat="42.8402230" lon="-8.5873990">
        <ele>212.2</ele>
        <time>2021-05-24T06:58:50Z</time>
      </trkpt>
      <trkpt lat="42.8402310" lon="-8.5873810">
        <ele>212.2</ele>
        <time>2021-05-24T06:58:51Z</time>
      </trkpt>
      <trkpt lat="42.8402420" lon="-8.5873620">
        <ele>212.3</ele>
        <time>2021-05-24T06:58:52Z</time>
      </trkpt>
      <trkpt lat="42.8402440" lon="-8.5873520">
        <ele>212.3</ele>
        <time>2021-05-24T06:58:53Z</time>
      </trkpt>
      <trkpt lat="42.8402510" lon="-8.5873360">
        <ele>212.3</ele>
        <time>2021-05-24T06:58:54Z</time>
      </trkpt>
      <trkpt lat="42.8402590" lon="-8.5873240">
        <ele>212.3</ele>
        <time>2021-05-24T06:58:55Z</time>
      </trkpt>
      <trkpt lat="42.8402580" lon="-8.5873050">
        <ele>212.3</ele>
        <time>2021-05-24T06:58:56Z</time>
      </trkpt>
      <trkpt lat="42.8402580" lon="-8.5872920">
        <ele>212.4</ele>
        <time>2021-05-24T06:58:57Z</time>
      </trkpt>
      <trkpt lat="42.8402610" lon="-8.5872760">
        <ele>212.4</ele>
        <time>2021-05-24T06:58:58Z</time>
      </trkpt>
      <trkpt lat="42.8402740" lon="-8.5872580">
        <ele>212.4</ele>
        <time>2021-05-24T06:58:59Z</time>
      </trkpt>
      <trkpt lat="42.8402790" lon="-8.5872390">
        <ele>212.4</ele>
        <time>2021-05-24T06:59:00Z</time>
      </trkpt>
      <trkpt lat="42.8402900" lon="-8.5872160">
        <ele>212.5</ele>
        <time>2021-05-24T06:59:01Z</time>
      </trkpt>
      <trkpt lat="42.8402930" lon="-8.5872050">
        <ele>212.5</ele>
        <time>2021-05-24T06:59:02Z</time>
      </trkpt>
      <trkpt lat="42.8402970" lon="-8.5871950">
        <ele>212.5</ele>
        <time>2021-05-24T06:59:03Z</time>
      </trkpt>
      <trkpt lat="42.8403020" lon="-8.5871760">
        <ele>212.5</ele>
        <time>2021-05-24T06:59:04Z</time>
      </trkpt>
      <trkpt lat="42.8403040" lon="-8.5871630">
        <ele>212.5</ele>
        <time>2021-05-24T06:59:05Z</time>
      </trkpt>
      <trkpt lat="42.8403140" lon="-8.5871290">
        <ele>212.6</ele>
        <time>2021-05-24T06:59:07Z</time>
      </trkpt>
      <trkpt lat="42.8403200" lon="-8.5871110">
        <ele>212.6</ele>
        <time>2021-05-24T06:59:08Z</time>
      </trkpt>
      <trkpt lat="42.8403310" lon="-8.5870870">
        <ele>212.6</ele>
        <time>2021-05-24T06:59:09Z</time>
      </trkpt>
      <trkpt lat="42.8403360" lon="-8.5870790">
        <ele>212.7</ele>
        <time>2021-05-24T06:59:10Z</time>
      </trkpt>
      <trkpt lat="42.8403420" lon="-8.5870710">
        <ele>212.7</ele>
        <time>2021-05-24T06:59:11Z</time>
      </trkpt>
      <trkpt lat="42.8403460" lon="-8.5870430">
        <ele>212.7</ele>
        <time>2021-05-24T06:59:12Z</time>
      </trkpt>
      <trkpt lat="42.8403490" lon="-8.5870300">
        <ele>212.7</ele>
        <time>2021-05-24T06:59:13Z</time>
      </trkpt>
      <trkpt lat="42.8403530" lon="-8.5870170">
        <ele>212.7</ele>
        <time>2021-05-24T06:59:14Z</time>
      </trkpt>
      <trkpt lat="42.8403550" lon="-8.5870070">
        <ele>212.8</ele>
        <time>2021-05-24T06:59:15Z</time>
      </trkpt>
      <trkpt lat="42.8403640" lon="-8.5869920">
        <ele>212.8</ele>
        <time>2021-05-24T06:59:16Z</time>
      </trkpt>
      <trkpt lat="42.8403660" lon="-8.5869770">
        <ele>212.8</ele>
        <time>2021-05-24T06:59:17Z</time>
      </trkpt>
      <trkpt lat="42.8403750" lon="-8.5869570">
        <ele>212.8</ele>
        <time>2021-05-24T06:59:18Z</time>
      </trkpt>
      <trkpt lat="42.8403840" lon="-8.5869440">
        <ele>212.9</ele>
        <time>2021-05-24T06:59:19Z</time>
      </trkpt>
      <trkpt lat="42.8403920" lon="-8.5869140">
        <ele>212.9</ele>
        <time>2021-05-24T06:59:20Z</time>
      </trkpt>
      <trkpt lat="42.8403960" lon="-8.5869030">
        <ele>212.9</ele>
        <time>2021-05-24T06:59:21Z</time>
      </trkpt>
      <trkpt lat="42.8403990" lon="-8.5868920">
        <ele>213.0</ele>
        <time>2021-05-24T06:59:22Z</time>
      </trkpt>
      <trkpt lat="42.8404070" lon="-8.5868680">
        <ele>213.0</ele>
        <time>2021-05-24T06:59:23Z</time>
      </trkpt>
      <trkpt lat="42.8404110" lon="-8.5868570">
        <ele>213.0</ele>
        <time>2021-05-24T06:59:24Z</time>
      </trkpt>
      <trkpt lat="42.8404150" lon="-8.5868450">
        <ele>213.0</ele>
        <time>2021-05-24T06:59:25Z</time>
      </trkpt>
      <trkpt lat="42.8404240" lon="-8.5868170">
        <ele>213.1</ele>
        <time>2021-05-24T06:59:26Z</time>
      </trkpt>
      <trkpt lat="42.8404280" lon="-8.5868070">
        <ele>213.1</ele>
        <time>2021-05-24T06:59:27Z</time>
      </trkpt>
      <trkpt lat="42.8404320" lon="-8.5867960">
        <ele>213.1</ele>
        <time>2021-05-24T06:59:28Z</time>
      </trkpt>
      <trkpt lat="42.8404340" lon="-8.5867810">
        <ele>213.2</ele>
        <time>2021-05-24T06:59:29Z</time>
      </trkpt>
      <trkpt lat="42.8404420" lon="-8.5867660">
        <ele>213.2</ele>
        <time>2021-05-24T06:59:30Z</time>
      </trkpt>
      <trkpt lat="42.8404500" lon="-8.5867570">
        <ele>213.2</ele>
        <time>2021-05-24T06:59:31Z</time>
      </trkpt>
      <trkpt lat="42.8404560" lon="-8.5867420">
        <ele>213.3</ele>
        <time>2021-05-24T06:59:32Z</time>
      </trkpt>
      <trkpt lat="42.8404640" lon="-8.5867230">
        <ele>213.3</ele>
        <time>2021-05-24T06:59:33Z</time>
      </trkpt>
      <trkpt lat="42.8404780" lon="-8.5866950">
        <ele>213.4</ele>
        <time>2021-05-24T06:59:34Z</time>
      </trkpt>
      <trkpt lat="42.8404820" lon="-8.5866870">
        <ele>213.4</ele>
        <time>2021-05-24T06:59:35Z</time>
      </trkpt>
      <trkpt lat="42.8404870" lon="-8.5866780">
        <ele>213.4</ele>
        <time>2021-05-24T06:59:36Z</time>
      </trkpt>
      <trkpt lat="42.8404990" lon="-8.5866500">
        <ele>213.4</ele>
        <time>2021-05-24T06:59:37Z</time>
      </trkpt>
      <trkpt lat="42.8405040" lon="-8.5866390">
        <ele>213.5</ele>
        <time>2021-05-24T06:59:38Z</time>
      </trkpt>
      <trkpt lat="42.8405090" lon="-8.5866290">
        <ele>213.5</ele>
        <time>2021-05-24T06:59:39Z</time>
      </trkpt>
      <trkpt lat="42.8405200" lon="-8.5866010">
        <ele>213.5</ele>
        <time>2021-05-24T06:59:40Z</time>
      </trkpt>
      <trkpt lat="42.8405230" lon="-8.5865900">
        <ele>213.6</ele>
        <time>2021-05-24T06:59:41Z</time>
      </trkpt>
      <trkpt lat="42.8405270" lon="-8.5865800">
        <ele>213.6</ele>
        <time>2021-05-24T06:59:42Z</time>
      </trkpt>
      <trkpt lat="42.8405280" lon="-8.5865670">
        <ele>213.6</ele>
        <time>2021-05-24T06:59:43Z</time>
      </trkpt>
      <trkpt lat="42.8405280" lon="-8.5865520">
        <ele>213.6</ele>
        <time>2021-05-24T06:59:44Z</time>
      </trkpt>
      <trkpt lat="42.8405330" lon="-8.5865400">
        <ele>213.6</ele>
        <time>2021-05-24T06:59:45Z</time>
      </trkpt>
      <trkpt lat="42.8405410" lon="-8.5865140">
        <ele>213.7</ele>
        <time>2021-05-24T06:59:46Z</time>
      </trkpt>
      <trkpt lat="42.8405450" lon="-8.5865020">
        <ele>213.7</ele>
        <time>2021-05-24T06:59:47Z</time>
      </trkpt>
      <trkpt lat="42.8405500" lon="-8.5864910">
        <ele>213.7</ele>
        <time>2021-05-24T06:59:48Z</time>
      </trkpt>
      <trkpt lat="42.8405610" lon="-8.5864780">
        <ele>213.8</ele>
        <time>2021-05-24T06:59:49Z</time>
      </trkpt>
      <trkpt lat="42.8405640" lon="-8.5864620">
        <ele>213.8</ele>
        <time>2021-05-24T06:59:50Z</time>
      </trkpt>
      <trkpt lat="42.8405670" lon="-8.5864530">
        <ele>213.8</ele>
        <time>2021-05-24T06:59:51Z</time>
      </trkpt>
      <trkpt lat="42.8405700" lon="-8.5864330">
        <ele>213.8</ele>
        <time>2021-05-24T06:59:52Z</time>
      </trkpt>
      <trkpt lat="42.8405760" lon="-8.5864160">
        <ele>213.9</ele>
        <time>2021-05-24T06:59:53Z</time>
      </trkpt>
      <trkpt lat="42.8405810" lon="-8.5864030">
        <ele>213.9</ele>
        <time>2021-05-24T06:59:54Z</time>
      </trkpt>
      <trkpt lat="42.8405890" lon="-8.5863910">
        <ele>213.9</ele>
        <time>2021-05-24T06:59:55Z</time>
      </trkpt>
      <trkpt lat="42.8405910" lon="-8.5863800">
        <ele>214.0</ele>
        <time>2021-05-24T06:59:56Z</time>
      </trkpt>
      <trkpt lat="42.8406050" lon="-8.5863540">
        <ele>214.0</ele>
        <time>2021-05-24T06:59:57Z</time>
      </trkpt>
      <trkpt lat="42.8406110" lon="-8.5863420">
        <ele>214.0</ele>
        <time>2021-05-24T06:59:58Z</time>
      </trkpt>
      <trkpt lat="42.8406160" lon="-8.5863300">
        <ele>214.1</ele>
        <time>2021-05-24T06:59:59Z</time>
      </trkpt>
      <trkpt lat="42.8406230" lon="-8.5863220">
        <ele>214.1</ele>
        <time>2021-05-24T07:00:00Z</time>
      </trkpt>
      <trkpt lat="42.8406330" lon="-8.5863020">
        <ele>214.1</ele>
        <time>2021-05-24T07:00:01Z</time>
      </trkpt>
      <trkpt lat="42.8406370" lon="-8.5862910">
        <ele>214.2</ele>
        <time>2021-05-24T07:00:02Z</time>
      </trkpt>
      <trkpt lat="42.8406440" lon="-8.5862740">
        <ele>214.2</ele>
        <time>2021-05-24T07:00:03Z</time>
      </trkpt>
      <trkpt lat="42.8406450" lon="-8.5862600">
        <ele>214.2</ele>
        <time>2021-05-24T07:00:04Z</time>
      </trkpt>
      <trkpt lat="42.8406510" lon="-8.5862440">
        <ele>214.2</ele>
        <time>2021-05-24T07:00:05Z</time>
      </trkpt>
      <trkpt lat="42.8406580" lon="-8.5862240">
        <ele>214.3</ele>
        <time>2021-05-24T07:00:06Z</time>
      </trkpt>
      <trkpt lat="42.8406680" lon="-8.5862020">
        <ele>214.3</ele>
        <time>2021-05-24T07:00:07Z</time>
      </trkpt>
      <trkpt lat="42.8406730" lon="-8.5861910">
        <ele>214.4</ele>
        <time>2021-05-24T07:00:08Z</time>
      </trkpt>
      <trkpt lat="42.8406770" lon="-8.5861810">
        <ele>214.4</ele>
        <time>2021-05-24T07:00:09Z</time>
      </trkpt>
      <trkpt lat="42.8406790" lon="-8.5861640">
        <ele>214.4</ele>
        <time>2021-05-24T07:00:10Z</time>
      </trkpt>
      <trkpt lat="42.8406840" lon="-8.5861550">
        <ele>214.4</ele>
        <time>2021-05-24T07:00:11Z</time>
      </trkpt>
      <trkpt lat="42.8406880" lon="-8.5861390">
        <ele>214.5</ele>
        <time>2021-05-24T07:00:12Z</time>
      </trkpt>
      <trkpt lat="42.8406920" lon="-8.5861180">
        <ele>214.5</ele>
        <time>2021-05-24T07:00:13Z</time>
      </trkpt>
      <trkpt lat="42.8406970" lon="-8.5861000">
        <ele>214.6</ele>
        <time>2021-05-24T07:00:14Z</time>
      </trkpt>
      <trkpt lat="42.8407050" lon="-8.5860840">
        <ele>214.6</ele>
        <time>2021-05-24T07:00:15Z</time>
      </trkpt>
      <trkpt lat="42.8407160" lon="-8.5860720">
        <ele>214.6</ele>
        <time>2021-05-24T07:00:16Z</time>
      </trkpt>
      <trkpt lat="42.8407190" lon="-8.5860540">
        <ele>214.7</ele>
        <time>2021-05-24T07:00:17Z</time>
      </trkpt>
      <trkpt lat="42.8407270" lon="-8.5860380">
        <ele>214.7</ele>
        <time>2021-05-24T07:00:18Z</time>
      </trkpt>
      <trkpt lat="42.8407350" lon="-8.5860140">
        <ele>214.8</ele>
        <time>2021-05-24T07:00:19Z</time>
      </trkpt>
      <trkpt lat="42.8407400" lon="-8.5860030">
        <ele>214.8</ele>
        <time>2021-05-24T07:00:20Z</time>
      </trkpt>
      <trkpt lat="42.8407440" lon="-8.5859920">
        <ele>214.8</ele>
        <time>2021-05-24T07:00:21Z</time>
      </trkpt>
      <trkpt lat="42.8407530" lon="-8.5859640">
        <ele>214.9</ele>
        <time>2021-05-24T07:00:22Z</time>
      </trkpt>
      <trkpt lat="42.8407550" lon="-8.5859540">
        <ele>214.9</ele>
        <time>2021-05-24T07:00:23Z</time>
      </trkpt>
      <trkpt lat="42.8407580" lon="-8.5859440">
        <ele>214.9</ele>
        <time>2021-05-24T07:00:24Z</time>
      </trkpt>
      <trkpt lat="42.8407630" lon="-8.5859330">
        <ele>214.9</ele>
        <time>2021-05-24T07:00:25Z</time>
      </trkpt>
      <trkpt lat="42.8407640" lon="-8.5859180">
        <ele>215.0</ele>
        <time>2021-05-24T07:00:26Z</time>
      </trkpt>
      <trkpt lat="42.8407670" lon="-8.5859030">
        <ele>215.0</ele>
        <time>2021-05-24T07:00:27Z</time>
      </trkpt>
      <trkpt lat="42.8407730" lon="-8.5858770">
        <ele>215.1</ele>
        <time>2021-05-24T07:00:28Z</time>
      </trkpt>
      <trkpt lat="42.8407770" lon="-8.5858660">
        <ele>215.1</ele>
        <time>2021-05-24T07:00:29Z</time>
      </trkpt>
      <trkpt lat="42.8407820" lon="-8.5858560">
        <ele>215.1</ele>
        <time>2021-05-24T07:00:30Z</time>
      </trkpt>
      <trkpt lat="42.8407980" lon="-8.5858360">
        <ele>215.2</ele>
        <time>2021-05-24T07:00:31Z</time>
      </trkpt>
      <trkpt lat="42.8408040" lon="-8.5858260">
        <ele>215.2</ele>
        <time>2021-05-24T07:00:32Z</time>
      </trkpt>
      <trkpt lat="42.8408110" lon="-8.5858170">
        <ele>215.2</ele>
        <time>2021-05-24T07:00:33Z</time>
      </trkpt>
      <trkpt lat="42.8408240" lon="-8.5857920">
        <ele>215.3</ele>
        <time>2021-05-24T07:00:34Z</time>
      </trkpt>
      <trkpt lat="42.8408290" lon="-8.5857820">
        <ele>215.3</ele>
        <time>2021-05-24T07:00:35Z</time>
      </trkpt>
      <trkpt lat="42.8408330" lon="-8.5857730">
        <ele>215.4</ele>
        <time>2021-05-24T07:00:36Z</time>
      </trkpt>
      <trkpt lat="42.8408270" lon="-8.5857530">
        <ele>215.4</ele>
        <time>2021-05-24T07:00:37Z</time>
      </trkpt>
      <trkpt lat="42.8408310" lon="-8.5857360">
        <ele>215.4</ele>
        <time>2021-05-24T07:00:38Z</time>
      </trkpt>
      <trkpt lat="42.8408380" lon="-8.5857200">
        <ele>215.5</ele>
        <time>2021-05-24T07:00:39Z</time>
      </trkpt>
      <trkpt lat="42.8408460" lon="-8.5857040">
        <ele>215.5</ele>
        <time>2021-05-24T07:00:40Z</time>
      </trkpt>
      <trkpt lat="42.8408590" lon="-8.5856780">
        <ele>215.6</ele>
        <time>2021-05-24T07:00:41Z</time>
      </trkpt>
      <trkpt lat="42.8408640" lon="-8.5856700">
        <ele>215.6</ele>
        <time>2021-05-24T07:00:42Z</time>
      </trkpt>
      <trkpt lat="42.8408700" lon="-8.5856610">
        <ele>215.7</ele>
        <time>2021-05-24T07:00:43Z</time>
      </trkpt>
      <trkpt lat="42.8408760" lon="-8.5856340">
        <ele>215.7</ele>
        <time>2021-05-24T07:00:44Z</time>
      </trkpt>
      <trkpt lat="42.8408780" lon="-8.5856240">
        <ele>215.8</ele>
        <time>2021-05-24T07:00:45Z</time>
      </trkpt>
      <trkpt lat="42.8408800" lon="-8.5856140">
        <ele>215.8</ele>
        <time>2021-05-24T07:00:46Z</time>
      </trkpt>
      <trkpt lat="42.8408840" lon="-8.5855900">
        <ele>215.8</ele>
        <time>2021-05-24T07:00:47Z</time>
      </trkpt>
      <trkpt lat="42.8408960" lon="-8.5855690">
        <ele>215.9</ele>
        <time>2021-05-24T07:00:48Z</time>
      </trkpt>
      <trkpt lat="42.8409050" lon="-8.5855440">
        <ele>216.0</ele>
        <time>2021-05-24T07:00:49Z</time>
      </trkpt>
      <trkpt lat="42.8409090" lon="-8.5855330">
        <ele>216.0</ele>
        <time>2021-05-24T07:00:50Z</time>
      </trkpt>
      <trkpt lat="42.8409130" lon="-8.5855220">
        <ele>216.0</ele>
        <time>2021-05-24T07:00:51Z</time>
      </trkpt>
      <trkpt lat="42.8409160" lon="-8.5855020">
        <ele>216.1</ele>
        <time>2021-05-24T07:00:52Z</time>
      </trkpt>
      <trkpt lat="42.8409250" lon="-8.5854870">
        <ele>216.1</ele>
        <time>2021-05-24T07:00:53Z</time>
      </trkpt>
      <trkpt lat="42.8409330" lon="-8.5854720">
        <ele>216.2</ele>
        <time>2021-05-24T07:00:54Z</time>
      </trkpt>
      <trkpt lat="42.8409370" lon="-8.5854620">
        <ele>216.2</ele>
        <time>2021-05-24T07:00:55Z</time>
      </trkpt>
      <trkpt lat="42.8409450" lon="-8.5854430">
        <ele>216.3</ele>
        <time>2021-05-24T07:00:56Z</time>
      </trkpt>
      <trkpt lat="42.8409560" lon="-8.5854410">
        <ele>216.3</ele>
        <time>2021-05-24T07:00:57Z</time>
      </trkpt>
      <trkpt lat="42.8409580" lon="-8.5854390">
        <ele>216.3</ele>
        <time>2021-05-24T07:00:58Z</time>
      </trkpt>
      <trkpt lat="42.8409510" lon="-8.5854320">
        <ele>216.3</ele>
        <time>2021-05-24T07:00:59Z</time>
      </trkpt>
      <trkpt lat="42.8409490" lon="-8.5854350">
        <ele>216.3</ele>
        <time>2021-05-24T07:01:00Z</time>
      </trkpt>
      <trkpt lat="42.8409520" lon="-8.5854320">
        <ele>216.4</ele>
        <time>2021-05-24T07:01:01Z</time>
      </trkpt>
      <trkpt lat="42.8409520" lon="-8.5854300">
        <ele>216.4</ele>
        <time>2021-05-24T07:01:02Z</time>
      </trkpt>
      <trkpt lat="42.8409510" lon="-8.5854250">
        <ele>216.4</ele>
        <time>2021-05-24T07:01:03Z</time>
      </trkpt>
      <trkpt lat="42.8409550" lon="-8.5854160">
        <ele>216.4</ele>
        <time>2021-05-24T07:01:04Z</time>
      </trkpt>
      <trkpt lat="42.8409570" lon="-8.5854010">
        <ele>216.4</ele>
        <time>2021-05-24T07:01:05Z</time>
      </trkpt>
      <trkpt lat="42.8409690" lon="-8.5853780">
        <ele>216.5</ele>
        <time>2021-05-24T07:01:06Z</time>
      </trkpt>
      <trkpt lat="42.8409790" lon="-8.5853660">
        <ele>216.5</ele>
        <time>2021-05-24T07:01:07Z</time>
      </trkpt>
      <trkpt lat="42.8409840" lon="-8.5853540">
        <ele>216.6</ele>
        <time>2021-05-24T07:01:08Z</time>
      </trkpt>
      <trkpt lat="42.8409920" lon="-8.5853370">
        <ele>216.6</ele>
        <time>2021-05-24T07:01:09Z</time>
      </trkpt>
      <trkpt lat="42.8409970" lon="-8.5853240">
        <ele>216.6</ele>
        <time>2021-05-24T07:01:10Z</time>
      </trkpt>
      <trkpt lat="42.8409950" lon="-8.5853110">
        <ele>216.7</ele>
        <time>2021-05-24T07:01:11Z</time>
      </trkpt>
      <trkpt lat="42.8410060" lon="-8.5852990">
        <ele>216.7</ele>
        <time>2021-05-24T07:01:12Z</time>
      </trkpt>
      <trkpt lat="42.8410090" lon="-8.5852860">
        <ele>216.7</ele>
        <time>2021-05-24T07:01:13Z</time>
      </trkpt>
      <trkpt lat="42.8410130" lon="-8.5852690">
        <ele>216.8</ele>
        <time>2021-05-24T07:01:14Z</time>
      </trkpt>
      <trkpt lat="42.8410170" lon="-8.5852550">
        <ele>216.8</ele>
        <time>2021-05-24T07:01:15Z</time>
      </trkpt>
      <trkpt lat="42.8410250" lon="-8.5852450">
        <ele>216.8</ele>
        <time>2021-05-24T07:01:16Z</time>
      </trkpt>
      <trkpt lat="42.8410360" lon="-8.5852330">
        <ele>216.9</ele>
        <time>2021-05-24T07:01:17Z</time>
      </trkpt>
      <trkpt lat="42.8410400" lon="-8.5852110">
        <ele>216.9</ele>
        <time>2021-05-24T07:01:18Z</time>
      </trkpt>
      <trkpt lat="42.8410570" lon="-8.5851910">
        <ele>217.0</ele>
        <time>2021-05-24T07:01:19Z</time>
      </trkpt>
      <trkpt lat="42.8410630" lon="-8.5851840">
        <ele>217.0</ele>
        <time>2021-05-24T07:01:20Z</time>
      </trkpt>
      <trkpt lat="42.8410680" lon="-8.5851760">
        <ele>217.0</ele>
        <time>2021-05-24T07:01:21Z</time>
      </trkpt>
      <trkpt lat="42.8410820" lon="-8.5851570">
        <ele>217.1</ele>
        <time>2021-05-24T07:01:22Z</time>
      </trkpt>
      <trkpt lat="42.8410880" lon="-8.5851460">
        <ele>217.1</ele>
        <time>2021-05-24T07:01:23Z</time>
      </trkpt>
      <trkpt lat="42.8410940" lon="-8.5851350">
        <ele>217.1</ele>
        <time>2021-05-24T07:01:24Z</time>
      </trkpt>
      <trkpt lat="42.8410960" lon="-8.5851070">
        <ele>217.2</ele>
        <time>2021-05-24T07:01:25Z</time>
      </trkpt>
      <trkpt lat="42.8411000" lon="-8.5850960">
        <ele>217.2</ele>
        <time>2021-05-24T07:01:26Z</time>
      </trkpt>
      <trkpt lat="42.8411040" lon="-8.5850840">
        <ele>217.3</ele>
        <time>2021-05-24T07:01:27Z</time>
      </trkpt>
      <trkpt lat="42.8411140" lon="-8.5850660">
        <ele>217.3</ele>
        <time>2021-05-24T07:01:28Z</time>
      </trkpt>
      <trkpt lat="42.8411200" lon="-8.5850540">
        <ele>217.3</ele>
        <time>2021-05-24T07:01:29Z</time>
      </trkpt>
      <trkpt lat="42.8411240" lon="-8.5850450">
        <ele>217.4</ele>
        <time>2021-05-24T07:01:30Z</time>
      </trkpt>
      <trkpt lat="42.8411240" lon="-8.5850310">
        <ele>217.4</ele>
        <time>2021-05-24T07:01:31Z</time>
      </trkpt>
      <trkpt lat="42.8411230" lon="-8.5850130">
        <ele>217.4</ele>
        <time>2021-05-24T07:01:32Z</time>
      </trkpt>
      <trkpt lat="42.8411320" lon="-8.5849810">
        <ele>217.5</ele>
        <time>2021-05-24T07:01:33Z</time>
      </trkpt>
      <trkpt lat="42.8411330" lon="-8.5849730">
        <ele>217.5</ele>
        <time>2021-05-24T07:01:34Z</time>
      </trkpt>
      <trkpt lat="42.8411340" lon="-8.5849650">
        <ele>217.5</ele>
        <time>2021-05-24T07:01:35Z</time>
      </trkpt>
      <trkpt lat="42.8411380" lon="-8.5849360">
        <ele>217.6</ele>
        <time>2021-05-24T07:01:36Z</time>
      </trkpt>
      <trkpt lat="42.8411390" lon="-8.5849250">
        <ele>217.6</ele>
        <time>2021-05-24T07:01:37Z</time>
      </trkpt>
      <trkpt lat="42.8411390" lon="-8.5849150">
        <ele>217.7</ele>
        <time>2021-05-24T07:01:38Z</time>
      </trkpt>
      <trkpt lat="42.8411460" lon="-8.5848980">
        <ele>217.7</ele>
        <time>2021-05-24T07:01:39Z</time>
      </trkpt>
      <trkpt lat="42.8411540" lon="-8.5848790">
        <ele>217.8</ele>
        <time>2021-05-24T07:01:40Z</time>
      </trkpt>
      <trkpt lat="42.8411630" lon="-8.5848630">
        <ele>217.8</ele>
        <time>2021-05-24T07:01:41Z</time>
      </trkpt>
      <trkpt lat="42.8411740" lon="-8.5848450">
        <ele>217.9</ele>
        <time>2021-05-24T07:01:42Z</time>
      </trkpt>
      <trkpt lat="42.8411820" lon="-8.5848320">
        <ele>217.9</ele>
        <time>2021-05-24T07:01:43Z</time>
      </trkpt>
      <trkpt lat="42.8411930" lon="-8.5848070">
        <ele>218.0</ele>
        <time>2021-05-24T07:01:44Z</time>
      </trkpt>
      <trkpt lat="42.8411970" lon="-8.5847910">
        <ele>218.0</ele>
        <time>2021-05-24T07:01:45Z</time>
      </trkpt>
      <trkpt lat="42.8411980" lon="-8.5847780">
        <ele>218.1</ele>
        <time>2021-05-24T07:01:46Z</time>
      </trkpt>
      <trkpt lat="42.8411970" lon="-8.5847680">
        <ele>218.1</ele>
        <time>2021-05-24T07:01:47Z</time>
      </trkpt>
      <trkpt lat="42.8412020" lon="-8.5847540">
        <ele>218.1</ele>
        <time>2021-05-24T07:01:48Z</time>
      </trkpt>
      <trkpt lat="42.8412120" lon="-8.5847340">
        <ele>218.2</ele>
        <time>2021-05-24T07:01:49Z</time>
      </trkpt>
      <trkpt lat="42.8412150" lon="-8.5847150">
        <ele>218.2</ele>
        <time>2021-05-24T07:01:50Z</time>
      </trkpt>
      <trkpt lat="42.8412240" lon="-8.5846980">
        <ele>218.3</ele>
        <time>2021-05-24T07:01:51Z</time>
      </trkpt>
      <trkpt lat="42.8412300" lon="-8.5846840">
        <ele>218.4</ele>
        <time>2021-05-24T07:01:52Z</time>
      </trkpt>
      <trkpt lat="42.8412330" lon="-8.5846670">
        <ele>218.4</ele>
        <time>2021-05-24T07:01:53Z</time>
      </trkpt>
      <trkpt lat="42.8412330" lon="-8.5846540">
        <ele>218.4</ele>
        <time>2021-05-24T07:01:54Z</time>
      </trkpt>
      <trkpt lat="42.8412400" lon="-8.5846240">
        <ele>218.5</ele>
        <time>2021-05-24T07:01:55Z</time>
      </trkpt>
      <trkpt lat="42.8412420" lon="-8.5846110">
        <ele>218.6</ele>
        <time>2021-05-24T07:01:56Z</time>
      </trkpt>
      <trkpt lat="42.8412450" lon="-8.5845990">
        <ele>218.6</ele>
        <time>2021-05-24T07:01:57Z</time>
      </trkpt>
      <trkpt lat="42.8412530" lon="-8.5845700">
        <ele>218.7</ele>
        <time>2021-05-24T07:01:58Z</time>
      </trkpt>
      <trkpt lat="42.8412560" lon="-8.5845600">
        <ele>218.7</ele>
        <time>2021-05-24T07:01:59Z</time>
      </trkpt>
      <trkpt lat="42.8412590" lon="-8.5845490">
        <ele>218.8</ele>
        <time>2021-05-24T07:02:00Z</time>
      </trkpt>
      <trkpt lat="42.8412750" lon="-8.5845250">
        <ele>218.9</ele>
        <time>2021-05-24T07:02:01Z</time>
      </trkpt>
      <trkpt lat="42.8412820" lon="-8.5845150">
        <ele>218.9</ele>
        <time>2021-05-24T07:02:02Z</time>
      </trkpt>
      <trkpt lat="42.8412890" lon="-8.5845040">
        <ele>219.0</ele>
        <time>2021-05-24T07:02:03Z</time>
      </trkpt>
      <trkpt lat="42.8412980" lon="-8.5844880">
        <ele>219.1</ele>
        <time>2021-05-24T07:02:04Z</time>
      </trkpt>
      <trkpt lat="42.8413100" lon="-8.5844700">
        <ele>219.1</ele>
        <time>2021-05-24T07:02:05Z</time>
      </trkpt>
      <trkpt lat="42.8413060" lon="-8.5844510">
        <ele>219.2</ele>
        <time>2021-05-24T07:02:06Z</time>
      </trkpt>
      <trkpt lat="42.8413160" lon="-8.5844320">
        <ele>219.3</ele>
        <time>2021-05-24T07:02:07Z</time>
      </trkpt>
      <trkpt lat="42.8413220" lon="-8.5844020">
        <ele>219.4</ele>
        <time>2021-05-24T07:02:08Z</time>
      </trkpt>
      <trkpt lat="42.8413260" lon="-8.5843900">
        <ele>219.5</ele>
        <time>2021-05-24T07:02:09Z</time>
      </trkpt>
      <trkpt lat="42.8413300" lon="-8.5843780">
        <ele>219.5</ele>
        <time>2021-05-24T07:02:10Z</time>
      </trkpt>
      <trkpt lat="42.8413370" lon="-8.5843630">
        <ele>219.6</ele>
        <time>2021-05-24T07:02:11Z</time>
      </trkpt>
      <trkpt lat="42.8413440" lon="-8.5843490">
        <ele>219.7</ele>
        <time>2021-05-24T07:02:12Z</time>
      </trkpt>
      <trkpt lat="42.8413490" lon="-8.5843370">
        <ele>219.7</ele>
        <time>2021-05-24T07:02:13Z</time>
      </trkpt>
      <trkpt lat="42.8413610" lon="-8.5843070">
        <ele>219.9</ele>
        <time>2021-05-24T07:02:14Z</time>
      </trkpt>
      <trkpt lat="42.8413650" lon="-8.5842970">
        <ele>219.9</ele>
        <time>2021-05-24T07:02:15Z</time>
      </trkpt>
      <trkpt lat="42.8413680" lon="-8.5842870">
        <ele>219.9</ele>
        <time>2021-05-24T07:02:16Z</time>
      </trkpt>
      <trkpt lat="42.8413820" lon="-8.5842630">
        <ele>220.1</ele>
        <time>2021-05-24T07:02:17Z</time>
      </trkpt>
      <trkpt lat="42.8413830" lon="-8.5842520">
        <ele>220.1</ele>
        <time>2021-05-24T07:02:18Z</time>
      </trkpt>
      <trkpt lat="42.8413830" lon="-8.5842410">
        <ele>220.2</ele>
        <time>2021-05-24T07:02:19Z</time>
      </trkpt>
      <trkpt lat="42.8413890" lon="-8.5842200">
        <ele>220.3</ele>
        <time>2021-05-24T07:02:20Z</time>
      </trkpt>
      <trkpt lat="42.8413940" lon="-8.5841990">
        <ele>220.4</ele>
        <time>2021-05-24T07:02:21Z</time>
      </trkpt>
      <trkpt lat="42.8414020" lon="-8.5841950">
        <ele>220.4</ele>
        <time>2021-05-24T07:02:22Z</time>
      </trkpt>
      <trkpt lat="42.8414050" lon="-8.5841810">
        <ele>220.5</ele>
        <time>2021-05-24T07:02:23Z</time>
      </trkpt>
      <trkpt lat="42.8414120" lon="-8.5841630">
        <ele>220.6</ele>
        <time>2021-05-24T07:02:24Z</time>
      </trkpt>
      <trkpt lat="42.8414200" lon="-8.5841340">
        <ele>220.7</ele>
        <time>2021-05-24T07:02:25Z</time>
      </trkpt>
      <trkpt lat="42.8414250" lon="-8.5841230">
        <ele>220.7</ele>
        <time>2021-05-24T07:02:26Z</time>
      </trkpt>
      <trkpt lat="42.8414290" lon="-8.5841130">
        <ele>220.8</ele>
        <time>2021-05-24T07:02:27Z</time>
      </trkpt>
      <trkpt lat="42.8414370" lon="-8.5840900">
        <ele>220.9</ele>
        <time>2021-05-24T07:02:28Z</time>
      </trkpt>
      <trkpt lat="42.8414430" lon="-8.5840780">
        <ele>221.0</ele>
        <time>2021-05-24T07:02:29Z</time>
      </trkpt>
      <trkpt lat="42.8414490" lon="-8.5840660">
        <ele>221.0</ele>
        <time>2021-05-24T07:02:30Z</time>
      </trkpt>
      <trkpt lat="42.8414590" lon="-8.5840510">
        <ele>221.1</ele>
        <time>2021-05-24T07:02:31Z</time>
      </trkpt>
      <trkpt lat="42.8414640" lon="-8.5840500">
        <ele>221.2</ele>
        <time>2021-05-24T07:02:32Z</time>
      </trkpt>
      <trkpt lat="42.8414690" lon="-8.5840330">
        <ele>221.2</ele>
        <time>2021-05-24T07:02:33Z</time>
      </trkpt>
      <trkpt lat="42.8414770" lon="-8.5840160">
        <ele>221.3</ele>
        <time>2021-05-24T07:02:34Z</time>
      </trkpt>
      <trkpt lat="42.8414840" lon="-8.5839980">
        <ele>221.4</ele>
        <time>2021-05-24T07:02:35Z</time>
      </trkpt>
      <trkpt lat="42.8414940" lon="-8.5839760">
        <ele>221.5</ele>
        <time>2021-05-24T07:02:36Z</time>
      </trkpt>
      <trkpt lat="42.8414990" lon="-8.5839670">
        <ele>221.6</ele>
        <time>2021-05-24T07:02:37Z</time>
      </trkpt>
      <trkpt lat="42.8415040" lon="-8.5839570">
        <ele>221.7</ele>
        <time>2021-05-24T07:02:38Z</time>
      </trkpt>
      <trkpt lat="42.8415140" lon="-8.5839490">
        <ele>221.7</ele>
        <time>2021-05-24T07:02:39Z</time>
      </trkpt>
      <trkpt lat="42.8415240" lon="-8.5839280">
        <ele>221.8</ele>
        <time>2021-05-24T07:02:40Z</time>
      </trkpt>
      <trkpt lat="42.8415370" lon="-8.5839120">
        <ele>222.0</ele>
        <time>2021-05-24T07:02:41Z</time>
      </trkpt>
      <trkpt lat="42.8415480" lon="-8.5838920">
        <ele>222.1</ele>
        <time>2021-05-24T07:02:42Z</time>
      </trkpt>
      <trkpt lat="42.8415500" lon="-8.5838790">
        <ele>222.1</ele>
        <time>2021-05-24T07:02:43Z</time>
      </trkpt>
      <trkpt lat="42.8415560" lon="-8.5838690">
        <ele>222.2</ele>
        <time>2021-05-24T07:02:44Z</time>
      </trkpt>
      <trkpt lat="42.8415610" lon="-8.5838590">
        <ele>222.3</ele>
        <time>2021-05-24T07:02:45Z</time>
      </trkpt>
      <trkpt lat="42.8415660" lon="-8.5838490">
        <ele>222.3</ele>
        <time>2021-05-24T07:02:46Z</time>
      </trkpt>
      <trkpt lat="42.8415780" lon="-8.5838290">
        <ele>222.4</ele>
        <time>2021-05-24T07:02:47Z</time>
      </trkpt>
      <trkpt lat="42.8415830" lon="-8.5838170">
        <ele>222.5</ele>
        <time>2021-05-24T07:02:48Z</time>
      </trkpt>
      <trkpt lat="42.8415870" lon="-8.5838060">
        <ele>222.6</ele>
        <time>2021-05-24T07:02:49Z</time>
      </trkpt>
      <trkpt lat="42.8415970" lon="-8.5837900">
        <ele>222.7</ele>
        <time>2021-05-24T07:02:50Z</time>
      </trkpt>
      <trkpt lat="42.8416090" lon="-8.5837750">
        <ele>222.8</ele>
        <time>2021-05-24T07:02:51Z</time>
      </trkpt>
      <trkpt lat="42.8416160" lon="-8.5837620">
        <ele>222.8</ele>
        <time>2021-05-24T07:02:52Z</time>
      </trkpt>
      <trkpt lat="42.8416190" lon="-8.5837470">
        <ele>222.9</ele>
        <time>2021-05-24T07:02:53Z</time>
      </trkpt>
      <trkpt lat="42.8416240" lon="-8.5837340">
        <ele>223.0</ele>
        <time>2021-05-24T07:02:54Z</time>
      </trkpt>
      <trkpt lat="42.8416390" lon="-8.5837170">
        <ele>223.1</ele>
        <time>2021-05-24T07:02:55Z</time>
      </trkpt>
      <trkpt lat="42.8416510" lon="-8.5837080">
        <ele>223.2</ele>
        <time>2021-05-24T07:02:56Z</time>
      </trkpt>
      <trkpt lat="42.8416630" lon="-8.5836850">
        <ele>223.3</ele>
        <time>2021-05-24T07:02:57Z</time>
      </trkpt>
      <trkpt lat="42.8416700" lon="-8.5836750">
        <ele>223.4</ele>
        <time>2021-05-24T07:02:58Z</time>
      </trkpt>
      <trkpt lat="42.8416760" lon="-8.5836660">
        <ele>223.4</ele>
        <time>2021-05-24T07:02:59Z</time>
      </trkpt>
      <trkpt lat="42.8416810" lon="-8.5836540">
        <ele>223.5</ele>
        <time>2021-05-24T07:03:00Z</time>
      </trkpt>
      <trkpt lat="42.8416870" lon="-8.5836430">
        <ele>223.6</ele>
        <time>2021-05-24T07:03:01Z</time>
      </trkpt>
      <trkpt lat="42.8416930" lon="-8.5836300">
        <ele>223.6</ele>
        <time>2021-05-24T07:03:02Z</time>
      </trkpt>
      <trkpt lat="42.8417000" lon="-8.5836170">
        <ele>223.7</ele>
        <time>2021-05-24T07:03:03Z</time>
      </trkpt>
      <trkpt lat="42.8417080" lon="-8.5836040">
        <ele>223.8</ele>
        <time>2021-05-24T07:03:04Z</time>
      </trkpt>
      <trkpt lat="42.8417110" lon="-8.5835950">
        <ele>223.9</ele>
        <time>2021-05-24T07:03:05Z</time>
      </trkpt>
      <trkpt lat="42.8417180" lon="-8.5835830">
        <ele>224.0</ele>
        <time>2021-05-24T07:03:06Z</time>
      </trkpt>
      <trkpt lat="42.8417300" lon="-8.5835620">
        <ele>224.1</ele>
        <time>2021-05-24T07:03:07Z</time>
      </trkpt>
      <trkpt lat="42.8417370" lon="-8.5835470">
        <ele>224.2</ele>
        <time>2021-05-24T07:03:08Z</time>
      </trkpt>
      <trkpt lat="42.8417490" lon="-8.5835350">
        <ele>224.3</ele>
        <time>2021-05-24T07:03:09Z</time>
      </trkpt>
      <trkpt lat="42.8417640" lon="-8.5835140">
        <ele>224.5</ele>
        <time>2021-05-24T07:03:10Z</time>
      </trkpt>
      <trkpt lat="42.8417660" lon="-8.5835060">
        <ele>224.5</ele>
        <time>2021-05-24T07:03:11Z</time>
      </trkpt>
      <trkpt lat="42.8417670" lon="-8.5834990">
        <ele>224.6</ele>
        <time>2021-05-24T07:03:12Z</time>
      </trkpt>
      <trkpt lat="42.8417690" lon="-8.5834910">
        <ele>224.6</ele>
        <time>2021-05-24T07:03:13Z</time>
      </trkpt>
      <trkpt lat="42.8417730" lon="-8.5834800">
        <ele>224.7</ele>
        <time>2021-05-24T07:03:14Z</time>
      </trkpt>
      <trkpt lat="42.8417880" lon="-8.5834630">
        <ele>224.9</ele>
        <time>2021-05-24T07:03:15Z</time>
      </trkpt>
      <trkpt lat="42.8418040" lon="-8.5834430">
        <ele>225.0</ele>
        <time>2021-05-24T07:03:16Z</time>
      </trkpt>
      <trkpt lat="42.8418080" lon="-8.5834350">
        <ele>225.1</ele>
        <time>2021-05-24T07:03:17Z</time>
      </trkpt>
      <trkpt lat="42.8418130" lon="-8.5834260">
        <ele>225.1</ele>
        <time>2021-05-24T07:03:18Z</time>
      </trkpt>
      <trkpt lat="42.8418300" lon="-8.5834170">
        <ele>225.3</ele>
        <time>2021-05-24T07:03:19Z</time>
      </trkpt>
      <trkpt lat="42.8418370" lon="-8.5834040">
        <ele>225.4</ele>
        <time>2021-05-24T07:03:20Z</time>
      </trkpt>
      <trkpt lat="42.8418550" lon="-8.5833840">
        <ele>225.6</ele>
        <time>2021-05-24T07:03:21Z</time>
      </trkpt>
      <trkpt lat="42.8418620" lon="-8.5833780">
        <ele>225.6</ele>
        <time>2021-05-24T07:03:22Z</time>
      </trkpt>
      <trkpt lat="42.8418680" lon="-8.5833710">
        <ele>225.7</ele>
        <time>2021-05-24T07:03:23Z</time>
      </trkpt>
      <trkpt lat="42.8418710" lon="-8.5833630">
        <ele>225.8</ele>
        <time>2021-05-24T07:03:24Z</time>
      </trkpt>
      <trkpt lat="42.8418790" lon="-8.5833520">
        <ele>225.8</ele>
        <time>2021-05-24T07:03:25Z</time>
      </trkpt>
      <trkpt lat="42.8418850" lon="-8.5833360">
        <ele>226.0</ele>
        <time>2021-05-24T07:03:26Z</time>
      </trkpt>
      <trkpt lat="42.8418960" lon="-8.5833230">
        <ele>226.1</ele>
        <time>2021-05-24T07:03:27Z</time>
      </trkpt>
      <trkpt lat="42.8419030" lon="-8.5833110">
        <ele>226.2</ele>
        <time>2021-05-24T07:03:28Z</time>
      </trkpt>
      <trkpt lat="42.8419080" lon="-8.5833030">
        <ele>226.2</ele>
        <time>2021-05-24T07:03:29Z</time>
      </trkpt>
      <trkpt lat="42.8419170" lon="-8.5832890">
        <ele>226.3</ele>
        <time>2021-05-24T07:03:30Z</time>
      </trkpt>
      <trkpt lat="42.8419290" lon="-8.5832750">
        <ele>226.5</ele>
        <time>2021-05-24T07:03:31Z</time>
      </trkpt>
      <trkpt lat="42.8419320" lon="-8.5832570">
        <ele>226.6</ele>
        <time>2021-05-24T07:03:32Z</time>
      </trkpt>
      <trkpt lat="42.8419430" lon="-8.5832460">
        <ele>226.7</ele>
        <time>2021-05-24T07:03:33Z</time>
      </trkpt>
      <trkpt lat="42.8419450" lon="-8.5832350">
        <ele>226.8</ele>
        <time>2021-05-24T07:03:34Z</time>
      </trkpt>
      <trkpt lat="42.8419640" lon="-8.5832160">
        <ele>226.9</ele>
        <time>2021-05-24T07:03:35Z</time>
      </trkpt>
      <trkpt lat="42.8419700" lon="-8.5832120">
        <ele>227.0</ele>
        <time>2021-05-24T07:03:36Z</time>
      </trkpt>
      <trkpt lat="42.8419760" lon="-8.5832070">
        <ele>227.1</ele>
        <time>2021-05-24T07:03:37Z</time>
      </trkpt>
      <trkpt lat="42.8419930" lon="-8.5831880">
        <ele>227.3</ele>
        <time>2021-05-24T07:03:38Z</time>
      </trkpt>
      <trkpt lat="42.8420020" lon="-8.5831810">
        <ele>227.4</ele>
        <time>2021-05-24T07:03:39Z</time>
      </trkpt>
      <trkpt lat="42.8420100" lon="-8.5831740">
        <ele>227.5</ele>
        <time>2021-05-24T07:03:40Z</time>
      </trkpt>
      <trkpt lat="42.8420190" lon="-8.5831660">
        <ele>227.6</ele>
        <time>2021-05-24T07:03:41Z</time>
      </trkpt>
      <trkpt lat="42.8420320" lon="-8.5831600">
        <ele>227.7</ele>
        <time>2021-05-24T07:03:42Z</time>
      </trkpt>
      <trkpt lat="42.8420420" lon="-8.5831500">
        <ele>227.8</ele>
        <time>2021-05-24T07:03:43Z</time>
      </trkpt>
      <trkpt lat="42.8420540" lon="-8.5831400">
        <ele>227.9</ele>
        <time>2021-05-24T07:03:44Z</time>
      </trkpt>
      <trkpt lat="42.8420660" lon="-8.5831250">
        <ele>228.0</ele>
        <time>2021-05-24T07:03:45Z</time>
      </trkpt>
      <trkpt lat="42.8420780" lon="-8.5831120">
        <ele>228.1</ele>
        <time>2021-05-24T07:03:46Z</time>
      </trkpt>
      <trkpt lat="42.8420850" lon="-8.5831060">
        <ele>228.2</ele>
        <time>2021-05-24T07:03:47Z</time>
      </trkpt>
      <trkpt lat="42.8420910" lon="-8.5830990">
        <ele>228.3</ele>
        <time>2021-05-24T07:03:48Z</time>
      </trkpt>
      <trkpt lat="42.8420970" lon="-8.5830920">
        <ele>228.3</ele>
        <time>2021-05-24T07:03:49Z</time>
      </trkpt>
      <trkpt lat="42.8421070" lon="-8.5830830">
        <ele>228.4</ele>
        <time>2021-05-24T07:03:50Z</time>
      </trkpt>
      <trkpt lat="42.8421160" lon="-8.5830770">
        <ele>228.5</ele>
        <time>2021-05-24T07:03:51Z</time>
      </trkpt>
      <trkpt lat="42.8421240" lon="-8.5830690">
        <ele>228.6</ele>
        <time>2021-05-24T07:03:52Z</time>
      </trkpt>
      <trkpt lat="42.8421310" lon="-8.5830590">
        <ele>228.6</ele>
        <time>2021-05-24T07:03:53Z</time>
      </trkpt>
      <trkpt lat="42.8421520" lon="-8.5830420">
        <ele>228.8</ele>
        <time>2021-05-24T07:03:54Z</time>
      </trkpt>
      <trkpt lat="42.8421530" lon="-8.5830370">
        <ele>228.9</ele>
        <time>2021-05-24T07:03:55Z</time>
      </trkpt>
      <trkpt lat="42.8421610" lon="-8.5830280">
        <ele>228.9</ele>
        <time>2021-05-24T07:03:56Z</time>
      </trkpt>
      <trkpt lat="42.8421670" lon="-8.5830170">
        <ele>229.0</ele>
        <time>2021-05-24T07:03:57Z</time>
      </trkpt>
      <trkpt lat="42.8421720" lon="-8.5830090">
        <ele>229.1</ele>
        <time>2021-05-24T07:03:58Z</time>
      </trkpt>
      <trkpt lat="42.8421810" lon="-8.5829980">
        <ele>229.2</ele>
        <time>2021-05-24T07:03:59Z</time>
      </trkpt>
      <trkpt lat="42.8421890" lon="-8.5829890">
        <ele>229.3</ele>
        <time>2021-05-24T07:04:00Z</time>
      </trkpt>
      <trkpt lat="42.8422010" lon="-8.5829810">
        <ele>229.4</ele>
        <time>2021-05-24T07:04:01Z</time>
      </trkpt>
      <trkpt lat="42.8422100" lon="-8.5829710">
        <ele>229.5</ele>
        <time>2021-05-24T07:04:02Z</time>
      </trkpt>
      <trkpt lat="42.8422190" lon="-8.5829610">
        <ele>229.5</ele>
        <time>2021-05-24T07:04:03Z</time>
      </trkpt>
      <trkpt lat="42.8422290" lon="-8.5829540">
        <ele>229.6</ele>
        <time>2021-05-24T07:04:04Z</time>
      </trkpt>
      <trkpt lat="42.8422470" lon="-8.5829430">
        <ele>229.8</ele>
        <time>2021-05-24T07:04:05Z</time>
      </trkpt>
      <trkpt lat="42.8422550" lon="-8.5829370">
        <ele>229.9</ele>
        <time>2021-05-24T07:04:06Z</time>
      </trkpt>
      <trkpt lat="42.8422640" lon="-8.5829320">
        <ele>229.9</ele>
        <time>2021-05-24T07:04:07Z</time>
      </trkpt>
      <trkpt lat="42.8422760" lon="-8.5829200">
        <ele>230.0</ele>
        <time>2021-05-24T07:04:08Z</time>
      </trkpt>
      <trkpt lat="42.8422880" lon="-8.5829120">
        <ele>230.1</ele>
        <time>2021-05-24T07:04:09Z</time>
      </trkpt>
      <trkpt lat="42.8422960" lon="-8.5829040">
        <ele>230.2</ele>
        <time>2021-05-24T07:04:10Z</time>
      </trkpt>
      <trkpt lat="42.8423090" lon="-8.5828930">
        <ele>230.3</ele>
        <time>2021-05-24T07:04:11Z</time>
      </trkpt>
      <trkpt lat="42.8423160" lon="-8.5828820">
        <ele>230.4</ele>
        <time>2021-05-24T07:04:12Z</time>
      </trkpt>
      <trkpt lat="42.8423330" lon="-8.5828660">
        <ele>230.6</ele>
        <time>2021-05-24T07:04:13Z</time>
      </trkpt>
      <trkpt lat="42.8423410" lon="-8.5828590">
        <ele>230.7</ele>
        <time>2021-05-24T07:04:14Z</time>
      </trkpt>
      <trkpt lat="42.8423490" lon="-8.5828510">
        <ele>230.7</ele>
        <time>2021-05-24T07:04:15Z</time>
      </trkpt>
      <trkpt lat="42.8423590" lon="-8.5828360">
        <ele>230.9</ele>
        <time>2021-05-24T07:04:16Z</time>
      </trkpt>
      <trkpt lat="42.8423650" lon="-8.5828290">
        <ele>230.9</ele>
        <time>2021-05-24T07:04:17Z</time>
      </trkpt>
      <trkpt lat="42.8423710" lon="-8.5828230">
        <ele>231.0</ele>
        <time>2021-05-24T07:04:18Z</time>
      </trkpt>
      <trkpt lat="42.8423770" lon="-8.5828160">
        <ele>231.0</ele>
        <time>2021-05-24T07:04:19Z</time>
      </trkpt>
      <trkpt lat="42.8423860" lon="-8.5828090">
        <ele>231.1</ele>
        <time>2021-05-24T07:04:20Z</time>
      </trkpt>
      <trkpt lat="42.8423920" lon="-8.5828030">
        <ele>231.2</ele>
        <time>2021-05-24T07:04:21Z</time>
      </trkpt>
      <trkpt lat="42.8424030" lon="-8.5827970">
        <ele>231.3</ele>
        <time>2021-05-24T07:04:22Z</time>
      </trkpt>
      <trkpt lat="42.8424150" lon="-8.5827890">
        <ele>231.4</ele>
        <time>2021-05-24T07:04:23Z</time>
      </trkpt>
      <trkpt lat="42.8424200" lon="-8.5827850">
        <ele>231.4</ele>
        <time>2021-05-24T07:04:24Z</time>
      </trkpt>
      <trkpt lat="42.8424320" lon="-8.5827720">
        <ele>231.6</ele>
        <time>2021-05-24T07:04:25Z</time>
      </trkpt>
      <trkpt lat="42.8424520" lon="-8.5827550">
        <ele>231.8</ele>
        <time>2021-05-24T07:04:26Z</time>
      </trkpt>
      <trkpt lat="42.8424580" lon="-8.5827510">
        <ele>231.8</ele>
        <time>2021-05-24T07:04:27Z</time>
      </trkpt>
      <trkpt lat="42.8424650" lon="-8.5827460">
        <ele>231.9</ele>
        <time>2021-05-24T07:04:28Z</time>
      </trkpt>
      <trkpt lat="42.8424770" lon="-8.5827350">
        <ele>232.0</ele>
        <time>2021-05-24T07:04:29Z</time>
      </trkpt>
      <trkpt lat="42.8424830" lon="-8.5827270">
        <ele>232.1</ele>
        <time>2021-05-24T07:04:30Z</time>
      </trkpt>
      <trkpt lat="42.8424890" lon="-8.5827200">
        <ele>232.1</ele>
        <time>2021-05-24T07:04:31Z</time>
      </trkpt>
      <trkpt lat="42.8424950" lon="-8.5827120">
        <ele>232.2</ele>
        <time>2021-05-24T07:04:32Z</time>
      </trkpt>
      <trkpt lat="42.8424970" lon="-8.5827070">
        <ele>232.2</ele>
        <time>2021-05-24T07:04:33Z</time>
      </trkpt>
      <trkpt lat="42.8424960" lon="-8.5827080">
        <ele>232.2</ele>
        <time>2021-05-24T07:04:34Z</time>
      </trkpt>
      <trkpt lat="42.8424920" lon="-8.5827050">
        <ele>232.3</ele>
        <time>2021-05-24T07:04:35Z</time>
      </trkpt>
      <trkpt lat="42.8424920" lon="-8.5826980">
        <ele>232.3</ele>
        <time>2021-05-24T07:04:36Z</time>
      </trkpt>
      <trkpt lat="42.8425010" lon="-8.5826920">
        <ele>232.4</ele>
        <time>2021-05-24T07:04:37Z</time>
      </trkpt>
      <trkpt lat="42.8425090" lon="-8.5826830">
        <ele>232.5</ele>
        <time>2021-05-24T07:04:38Z</time>
      </trkpt>
      <trkpt lat="42.8425150" lon="-8.5826720">
        <ele>232.6</ele>
        <time>2021-05-24T07:04:39Z</time>
      </trkpt>
      <trkpt lat="42.8425280" lon="-8.5826580">
        <ele>232.7</ele>
        <time>2021-05-24T07:04:40Z</time>
      </trkpt>
      <trkpt lat="42.8425430" lon="-8.5826450">
        <ele>232.8</ele>
        <time>2021-05-24T07:04:41Z</time>
      </trkpt>
      <trkpt lat="42.8425530" lon="-8.5826380">
        <ele>232.9</ele>
        <time>2021-05-24T07:04:42Z</time>
      </trkpt>
      <trkpt lat="42.8425630" lon="-8.5826310">
        <ele>233.0</ele>
        <time>2021-05-24T07:04:43Z</time>
      </trkpt>
      <trkpt lat="42.8425690" lon="-8.5826230">
        <ele>233.1</ele>
        <time>2021-05-24T07:04:44Z</time>
      </trkpt>
      <trkpt lat="42.8425780" lon="-8.5826170">
        <ele>233.2</ele>
        <time>2021-05-24T07:04:45Z</time>
      </trkpt>
      <trkpt lat="42.8425870" lon="-8.5826080">
        <ele>233.3</ele>
        <time>2021-05-24T07:04:46Z</time>
      </trkpt>
      <trkpt lat="42.8425910" lon="-8.5826050">
        <ele>233.3</ele>
        <time>2021-05-24T07:04:47Z</time>
      </trkpt>
      <trkpt lat="42.8425870" lon="-8.5826020">
        <ele>233.3</ele>
        <time>2021-05-24T07:04:48Z</time>
      </trkpt>
      <trkpt lat="42.8425920" lon="-8.5825940">
        <ele>233.4</ele>
        <time>2021-05-24T07:04:49Z</time>
      </trkpt>
      <trkpt lat="42.8425980" lon="-8.5825850">
        <ele>233.5</ele>
        <time>2021-05-24T07:04:50Z</time>
      </trkpt>
      <trkpt lat="42.8426010" lon="-8.5825790">
        <ele>233.5</ele>
        <time>2021-05-24T07:04:51Z</time>
      </trkpt>
      <trkpt lat="42.8426080" lon="-8.5825740">
        <ele>233.6</ele>
        <time>2021-05-24T07:04:52Z</time>
      </trkpt>
      <trkpt lat="42.8426130" lon="-8.5825740">
        <ele>233.6</ele>
        <time>2021-05-24T07:04:53Z</time>
      </trkpt>
      <trkpt lat="42.8426230" lon="-8.5825690">
        <ele>233.7</ele>
        <time>2021-05-24T07:04:54Z</time>
      </trkpt>
      <trkpt lat="42.8426350" lon="-8.5825540">
        <ele>233.9</ele>
        <time>2021-05-24T07:04:55Z</time>
      </trkpt>
      <trkpt lat="42.8426430" lon="-8.5825510">
        <ele>233.9</ele>
        <time>2021-05-24T07:04:56Z</time>
      </trkpt>
      <trkpt lat="42.8426510" lon="-8.5825420">
        <ele>234.0</ele>
        <time>2021-05-24T07:04:57Z</time>
      </trkpt>
      <trkpt lat="42.8426580" lon="-8.5825350">
        <ele>234.1</ele>
        <time>2021-05-24T07:04:58Z</time>
      </trkpt>
      <trkpt lat="42.8426680" lon="-8.5825320">
        <ele>234.2</ele>
        <time>2021-05-24T07:04:59Z</time>
      </trkpt>
      <trkpt lat="42.8426770" lon="-8.5825290">
        <ele>234.3</ele>
        <time>2021-05-24T07:05:00Z</time>
      </trkpt>
      <trkpt lat="42.8426850" lon="-8.5825220">
        <ele>234.4</ele>
        <time>2021-05-24T07:05:01Z</time>
      </trkpt>
      <trkpt lat="42.8426930" lon="-8.5825170">
        <ele>234.4</ele>
        <time>2021-05-24T07:05:02Z</time>
      </trkpt>
      <trkpt lat="42.8427100" lon="-8.5825130">
        <ele>234.6</ele>
        <time>2021-05-24T07:05:03Z</time>
      </trkpt>
      <trkpt lat="42.8427280" lon="-8.5824960">
        <ele>234.8</ele>
        <time>2021-05-24T07:05:04Z</time>
      </trkpt>
      <trkpt lat="42.8427360" lon="-8.5824920">
        <ele>234.9</ele>
        <time>2021-05-24T07:05:05Z</time>
      </trkpt>
      <trkpt lat="42.8427450" lon="-8.5824870">
        <ele>235.0</ele>
        <time>2021-05-24T07:05:06Z</time>
      </trkpt>
      <trkpt lat="42.8427540" lon="-8.5824800">
        <ele>235.1</ele>
        <time>2021-05-24T07:05:07Z</time>
      </trkpt>
      <trkpt lat="42.8427630" lon="-8.5824720">
        <ele>235.2</ele>
        <time>2021-05-24T07:05:08Z</time>
      </trkpt>
      <trkpt lat="42.8427730" lon="-8.5824660">
        <ele>235.3</ele>
        <time>2021-05-24T07:05:09Z</time>
      </trkpt>
      <trkpt lat="42.8427810" lon="-8.5824570">
        <ele>235.4</ele>
        <time>2021-05-24T07:05:10Z</time>
      </trkpt>
      <trkpt lat="42.8427910" lon="-8.5824490">
        <ele>235.5</ele>
        <time>2021-05-24T07:05:11Z</time>
      </trkpt>
      <trkpt lat="42.8427940" lon="-8.5824370">
        <ele>235.6</ele>
        <time>2021-05-24T07:05:12Z</time>
      </trkpt>
      <trkpt lat="42.8427980" lon="-8.5824230">
        <ele>235.7</ele>
        <time>2021-05-24T07:05:13Z</time>
      </trkpt>
      <trkpt lat="42.8428070" lon="-8.5824100">
        <ele>235.8</ele>
        <time>2021-05-24T07:05:14Z</time>
      </trkpt>
      <trkpt lat="42.8428170" lon="-8.5824000">
        <ele>235.9</ele>
        <time>2021-05-24T07:05:15Z</time>
      </trkpt>
      <trkpt lat="42.8428260" lon="-8.5823740">
        <ele>236.1</ele>
        <time>2021-05-24T07:05:16Z</time>
      </trkpt>
      <trkpt lat="42.8428300" lon="-8.5823630">
        <ele>236.2</ele>
        <time>2021-05-24T07:05:17Z</time>
      </trkpt>
      <trkpt lat="42.8428350" lon="-8.5823530">
        <ele>236.3</ele>
        <time>2021-05-24T07:05:18Z</time>
      </trkpt>
      <trkpt lat="42.8428390" lon="-8.5823380">
        <ele>236.4</ele>
        <time>2021-05-24T07:05:19Z</time>
      </trkpt>
      <trkpt lat="42.8428450" lon="-8.5823300">
        <ele>236.5</ele>
        <time>2021-05-24T07:05:20Z</time>
      </trkpt>
      <trkpt lat="42.8428530" lon="-8.5823180">
        <ele>236.6</ele>
        <time>2021-05-24T07:05:21Z</time>
      </trkpt>
      <trkpt lat="42.8428760" lon="-8.5822950">
        <ele>236.8</ele>
        <time>2021-05-24T07:05:22Z</time>
      </trkpt>
      <trkpt lat="42.8428840" lon="-8.5822880">
        <ele>236.9</ele>
        <time>2021-05-24T07:05:23Z</time>
      </trkpt>
      <trkpt lat="42.8429000" lon="-8.5822780">
        <ele>237.0</ele>
        <time>2021-05-24T07:05:24Z</time>
      </trkpt>
      <trkpt lat="42.8429100" lon="-8.5822640">
        <ele>237.2</ele>
        <time>2021-05-24T07:05:25Z</time>
      </trkpt>
      <trkpt lat="42.8429310" lon="-8.5822520">
        <ele>237.4</ele>
        <time>2021-05-24T07:05:26Z</time>
      </trkpt>
      <trkpt lat="42.8429380" lon="-8.5822500">
        <ele>237.4</ele>
        <time>2021-05-24T07:05:27Z</time>
      </trkpt>
      <trkpt lat="42.8429460" lon="-8.5822470">
        <ele>237.5</ele>
        <time>2021-05-24T07:05:28Z</time>
      </trkpt>
      <trkpt lat="42.8429600" lon="-8.5822360">
        <ele>237.6</ele>
        <time>2021-05-24T07:05:29Z</time>
      </trkpt>
      <trkpt lat="42.8429750" lon="-8.5822340">
        <ele>237.8</ele>
        <time>2021-05-24T07:05:30Z</time>
      </trkpt>
      <trkpt lat="42.8429910" lon="-8.5822210">
        <ele>237.9</ele>
        <time>2021-05-24T07:05:31Z</time>
      </trkpt>
      <trkpt lat="42.8430070" lon="-8.5822140">
        <ele>238.1</ele>
        <time>2021-05-24T07:05:32Z</time>
      </trkpt>
      <trkpt lat="42.8430190" lon="-8.5822010">
        <ele>238.2</ele>
        <time>2021-05-24T07:05:33Z</time>
      </trkpt>
      <trkpt lat="42.8430290" lon="-8.5821880">
        <ele>238.3</ele>
        <time>2021-05-24T07:05:34Z</time>
      </trkpt>
      <trkpt lat="42.8430390" lon="-8.5821620">
        <ele>238.5</ele>
        <time>2021-05-24T07:05:35Z</time>
      </trkpt>
      <trkpt lat="42.8430440" lon="-8.5821550">
        <ele>238.6</ele>
        <time>2021-05-24T07:05:36Z</time>
      </trkpt>
      <trkpt lat="42.8430500" lon="-8.5821470">
        <ele>238.7</ele>
        <time>2021-05-24T07:05:37Z</time>
      </trkpt>
      <trkpt lat="42.8430590" lon="-8.5821240">
        <ele>238.8</ele>
        <time>2021-05-24T07:05:38Z</time>
      </trkpt>
      <trkpt lat="42.8430780" lon="-8.5821160">
        <ele>239.0</ele>
        <time>2021-05-24T07:05:39Z</time>
      </trkpt>
      <trkpt lat="42.8430930" lon="-8.5821040">
        <ele>239.2</ele>
        <time>2021-05-24T07:05:40Z</time>
      </trkpt>
      <trkpt lat="42.8431230" lon="-8.5820770">
        <ele>239.5</ele>
        <time>2021-05-24T07:05:42Z</time>
      </trkpt>
      <trkpt lat="42.8431370" lon="-8.5820670">
        <ele>239.6</ele>
        <time>2021-05-24T07:05:43Z</time>
      </trkpt>
      <trkpt lat="42.8431580" lon="-8.5820470">
        <ele>239.8</ele>
        <time>2021-05-24T07:05:44Z</time>
      </trkpt>
      <trkpt lat="42.8431670" lon="-8.5820410">
        <ele>239.9</ele>
        <time>2021-05-24T07:05:46Z</time>
      </trkpt>
      <trkpt lat="42.8431760" lon="-8.5820340">
        <ele>240.0</ele>
        <time>2021-05-24T07:05:47Z</time>
      </trkpt>
      <trkpt lat="42.8431830" lon="-8.5820280">
        <ele>240.1</ele>
        <time>2021-05-24T07:05:48Z</time>
      </trkpt>
      <trkpt lat="42.8431910" lon="-8.5820180">
        <ele>240.2</ele>
        <time>2021-05-24T07:05:49Z</time>
      </trkpt>
      <trkpt lat="42.8431950" lon="-8.5820080">
        <ele>240.3</ele>
        <time>2021-05-24T07:05:50Z</time>
      </trkpt>
      <trkpt lat="42.8431960" lon="-8.5819970">
        <ele>240.3</ele>
        <time>2021-05-24T07:05:51Z</time>
      </trkpt>
      <trkpt lat="42.8431950" lon="-8.5819820">
        <ele>240.4</ele>
        <time>2021-05-24T07:05:52Z</time>
      </trkpt>
      <trkpt lat="42.8431940" lon="-8.5819700">
        <ele>240.5</ele>
        <time>2021-05-24T07:05:53Z</time>
      </trkpt>
      <trkpt lat="42.8431910" lon="-8.5819770">
        <ele>240.6</ele>
        <time>2021-05-24T07:05:54Z</time>
      </trkpt>
      <trkpt lat="42.8432080" lon="-8.5819570">
        <ele>240.8</ele>
        <time>2021-05-24T07:05:55Z</time>
      </trkpt>
      <trkpt lat="42.8432200" lon="-8.5819390">
        <ele>240.9</ele>
        <time>2021-05-24T07:05:56Z</time>
      </trkpt>
      <trkpt lat="42.8432280" lon="-8.5819180">
        <ele>241.1</ele>
        <time>2021-05-24T07:05:57Z</time>
      </trkpt>
      <trkpt lat="42.8432380" lon="-8.5818980">
        <ele>241.1</ele>
        <time>2021-05-24T07:05:58Z</time>
      </trkpt>
      <trkpt lat="42.8432450" lon="-8.5818980">
        <ele>241.2</ele>
        <time>2021-05-24T07:05:59Z</time>
      </trkpt>
      <trkpt lat="42.8432550" lon="-8.5818870">
        <ele>241.2</ele>
        <time>2021-05-24T07:06:00Z</time>
      </trkpt>
      <trkpt lat="42.8432580" lon="-8.5818770">
        <ele>241.2</ele>
        <time>2021-05-24T07:06:01Z</time>
      </trkpt>
      <trkpt lat="42.8432660" lon="-8.5818690">
        <ele>241.2</ele>
        <time>2021-05-24T07:06:02Z</time>
      </trkpt>
      <trkpt lat="42.8432710" lon="-8.5818580">
        <ele>241.2</ele>
        <time>2021-05-24T07:06:03Z</time>
      </trkpt>
      <trkpt lat="42.8432800" lon="-8.5818500">
        <ele>241.3</ele>
        <time>2021-05-24T07:06:04Z</time>
      </trkpt>
      <trkpt lat="42.8432780" lon="-8.5818450">
        <ele>241.7</ele>
        <time>2021-05-24T07:06:05Z</time>
      </trkpt>
      <trkpt lat="42.8432870" lon="-8.5818330">
        <ele>241.8</ele>
        <time>2021-05-24T07:06:06Z</time>
      </trkpt>
      <trkpt lat="42.8433010" lon="-8.5818160">
        <ele>241.9</ele>
        <time>2021-05-24T07:06:07Z</time>
      </trkpt>
      <trkpt lat="42.8433120" lon="-8.5818020">
        <ele>241.9</ele>
        <time>2021-05-24T07:06:08Z</time>
      </trkpt>
      <trkpt lat="42.8433290" lon="-8.5817850">
        <ele>242.0</ele>
        <time>2021-05-24T07:06:09Z</time>
      </trkpt>
      <trkpt lat="42.8433340" lon="-8.5817770">
        <ele>242.1</ele>
        <time>2021-05-24T07:06:10Z</time>
      </trkpt>
      <trkpt lat="42.8433400" lon="-8.5817700">
        <ele>242.1</ele>
        <time>2021-05-24T07:06:11Z</time>
      </trkpt>
      <trkpt lat="42.8433610" lon="-8.5817380">
        <ele>242.3</ele>
        <time>2021-05-24T07:06:12Z</time>
      </trkpt>
      <trkpt lat="42.8433660" lon="-8.5817260">
        <ele>242.3</ele>
        <time>2021-05-24T07:06:13Z</time>
      </trkpt>
      <trkpt lat="42.8433820" lon="-8.5817140">
        <ele>242.4</ele>
        <time>2021-05-24T07:06:14Z</time>
      </trkpt>
      <trkpt lat="42.8433930" lon="-8.5817010">
        <ele>242.5</ele>
        <time>2021-05-24T07:06:15Z</time>
      </trkpt>
      <trkpt lat="42.8434030" lon="-8.5816840">
        <ele>242.5</ele>
        <time>2021-05-24T07:06:16Z</time>
      </trkpt>
      <trkpt lat="42.8434110" lon="-8.5816730">
        <ele>242.6</ele>
        <time>2021-05-24T07:06:17Z</time>
      </trkpt>
      <trkpt lat="42.8434210" lon="-8.5816650">
        <ele>242.6</ele>
        <time>2021-05-24T07:06:18Z</time>
      </trkpt>
      <trkpt lat="42.8434320" lon="-8.5816530">
        <ele>242.7</ele>
        <time>2021-05-24T07:06:19Z</time>
      </trkpt>
      <trkpt lat="42.8434420" lon="-8.5816490">
        <ele>242.7</ele>
        <time>2021-05-24T07:06:20Z</time>
      </trkpt>
      <trkpt lat="42.8434480" lon="-8.5816400">
        <ele>242.8</ele>
        <time>2021-05-24T07:06:21Z</time>
      </trkpt>
      <trkpt lat="42.8434560" lon="-8.5816330">
        <ele>242.8</ele>
        <time>2021-05-24T07:06:22Z</time>
      </trkpt>
      <trkpt lat="42.8434630" lon="-8.5816230">
        <ele>242.8</ele>
        <time>2021-05-24T07:06:23Z</time>
      </trkpt>
      <trkpt lat="42.8434740" lon="-8.5816130">
        <ele>242.9</ele>
        <time>2021-05-24T07:06:24Z</time>
      </trkpt>
      <trkpt lat="42.8434830" lon="-8.5816130">
        <ele>242.9</ele>
        <time>2021-05-24T07:06:25Z</time>
      </trkpt>
      <trkpt lat="42.8434950" lon="-8.5816060">
        <ele>243.0</ele>
        <time>2021-05-24T07:06:26Z</time>
      </trkpt>
      <trkpt lat="42.8435130" lon="-8.5815960">
        <ele>243.1</ele>
        <time>2021-05-24T07:06:27Z</time>
      </trkpt>
      <trkpt lat="42.8435240" lon="-8.5815850">
        <ele>243.1</ele>
        <time>2021-05-24T07:06:28Z</time>
      </trkpt>
      <trkpt lat="42.8435330" lon="-8.5815750">
        <ele>243.2</ele>
        <time>2021-05-24T07:06:29Z</time>
      </trkpt>
      <trkpt lat="42.8435440" lon="-8.5815680">
        <ele>243.3</ele>
        <time>2021-05-24T07:06:30Z</time>
      </trkpt>
      <trkpt lat="42.8435560" lon="-8.5815640">
        <ele>243.4</ele>
        <time>2021-05-24T07:06:31Z</time>
      </trkpt>
      <trkpt lat="42.8435770" lon="-8.5815520">
        <ele>243.5</ele>
        <time>2021-05-24T07:06:32Z</time>
      </trkpt>
      <trkpt lat="42.8435830" lon="-8.5815440">
        <ele>243.5</ele>
        <time>2021-05-24T07:06:33Z</time>
      </trkpt>
      <trkpt lat="42.8435900" lon="-8.5815370">
        <ele>243.6</ele>
        <time>2021-05-24T07:06:34Z</time>
      </trkpt>
      <trkpt lat="42.8436030" lon="-8.5815290">
        <ele>243.6</ele>
        <time>2021-05-24T07:06:35Z</time>
      </trkpt>
      <trkpt lat="42.8436170" lon="-8.5815220">
        <ele>243.7</ele>
        <time>2021-05-24T07:06:36Z</time>
      </trkpt>
      <trkpt lat="42.8436240" lon="-8.5815140">
        <ele>243.8</ele>
        <time>2021-05-24T07:06:37Z</time>
      </trkpt>
      <trkpt lat="42.8436310" lon="-8.5815040">
        <ele>243.8</ele>
        <time>2021-05-24T07:06:38Z</time>
      </trkpt>
      <trkpt lat="42.8436400" lon="-8.5814950">
        <ele>243.9</ele>
        <time>2021-05-24T07:06:39Z</time>
      </trkpt>
      <trkpt lat="42.8436560" lon="-8.5814830">
        <ele>244.0</ele>
        <time>2021-05-24T07:06:40Z</time>
      </trkpt>
      <trkpt lat="42.8436680" lon="-8.5814720">
        <ele>244.1</ele>
        <time>2021-05-24T07:06:41Z</time>
      </trkpt>
      <trkpt lat="42.8436760" lon="-8.5814650">
        <ele>244.1</ele>
        <time>2021-05-24T07:06:42Z</time>
      </trkpt>
      <trkpt lat="42.8436760" lon="-8.5814530">
        <ele>244.2</ele>
        <time>2021-05-24T07:06:43Z</time>
      </trkpt>
      <trkpt lat="42.8436870" lon="-8.5814420">
        <ele>244.2</ele>
        <time>2021-05-24T07:06:44Z</time>
      </trkpt>
      <trkpt lat="42.8436930" lon="-8.5814190">
        <ele>244.3</ele>
        <time>2021-05-24T07:06:45Z</time>
      </trkpt>
      <trkpt lat="42.8436940" lon="-8.5814110">
        <ele>244.3</ele>
        <time>2021-05-24T07:06:46Z</time>
      </trkpt>
      <trkpt lat="42.8436960" lon="-8.5814040">
        <ele>244.4</ele>
        <time>2021-05-24T07:06:47Z</time>
      </trkpt>
      <trkpt lat="42.8436980" lon="-8.5813970">
        <ele>244.4</ele>
        <time>2021-05-24T07:06:48Z</time>
      </trkpt>
      <trkpt lat="42.8436990" lon="-8.5813890">
        <ele>244.4</ele>
        <time>2021-05-24T07:06:49Z</time>
      </trkpt>
      <trkpt lat="42.8437010" lon="-8.5813820">
        <ele>244.5</ele>
        <time>2021-05-24T07:06:50Z</time>
      </trkpt>
      <trkpt lat="42.8437140" lon="-8.5813710">
        <ele>244.5</ele>
        <time>2021-05-24T07:06:51Z</time>
      </trkpt>
      <trkpt lat="42.8437260" lon="-8.5813680">
        <ele>244.6</ele>
        <time>2021-05-24T07:06:52Z</time>
      </trkpt>
      <trkpt lat="42.8437370" lon="-8.5813660">
        <ele>244.7</ele>
        <time>2021-05-24T07:06:53Z</time>
      </trkpt>
      <trkpt lat="42.8437450" lon="-8.5813610">
        <ele>244.7</ele>
        <time>2021-05-24T07:06:54Z</time>
      </trkpt>
      <trkpt lat="42.8437640" lon="-8.5813520">
        <ele>244.8</ele>
        <time>2021-05-24T07:06:55Z</time>
      </trkpt>
      <trkpt lat="42.8437820" lon="-8.5813470">
        <ele>244.9</ele>
        <time>2021-05-24T07:06:56Z</time>
      </trkpt>
      <trkpt lat="42.8437870" lon="-8.5813410">
        <ele>244.9</ele>
        <time>2021-05-24T07:06:57Z</time>
      </trkpt>
      <trkpt lat="42.8437930" lon="-8.5813350">
        <ele>244.9</ele>
        <time>2021-05-24T07:06:59Z</time>
      </trkpt>
      <trkpt lat="42.8437980" lon="-8.5813290">
        <ele>245.0</ele>
        <time>2021-05-24T07:07:00Z</time>
      </trkpt>
      <trkpt lat="42.8438150" lon="-8.5813250">
        <ele>245.0</ele>
        <time>2021-05-24T07:07:01Z</time>
      </trkpt>
      <trkpt lat="42.8438290" lon="-8.5813130">
        <ele>245.1</ele>
        <time>2021-05-24T07:07:02Z</time>
      </trkpt>
      <trkpt lat="42.8438370" lon="-8.5813040">
        <ele>245.2</ele>
        <time>2021-05-24T07:07:03Z</time>
      </trkpt>
      <trkpt lat="42.8438500" lon="-8.5812890">
        <ele>245.2</ele>
        <time>2021-05-24T07:07:04Z</time>
      </trkpt>
      <trkpt lat="42.8438660" lon="-8.5812780">
        <ele>245.3</ele>
        <time>2021-05-24T07:07:05Z</time>
      </trkpt>
      <trkpt lat="42.8438750" lon="-8.5812710">
        <ele>245.3</ele>
        <time>2021-05-24T07:07:06Z</time>
      </trkpt>
      <trkpt lat="42.8438840" lon="-8.5812630">
        <ele>245.4</ele>
        <time>2021-05-24T07:07:07Z</time>
      </trkpt>
      <trkpt lat="42.8438850" lon="-8.5812600">
        <ele>245.4</ele>
        <time>2021-05-24T07:07:08Z</time>
      </trkpt>
      <trkpt lat="42.8438990" lon="-8.5812510">
        <ele>245.4</ele>
        <time>2021-05-24T07:07:09Z</time>
      </trkpt>
      <trkpt lat="42.8439160" lon="-8.5812450">
        <ele>245.5</ele>
        <time>2021-05-24T07:07:10Z</time>
      </trkpt>
      <trkpt lat="42.8439300" lon="-8.5812250">
        <ele>245.6</ele>
        <time>2021-05-24T07:07:11Z</time>
      </trkpt>
      <trkpt lat="42.8439390" lon="-8.5812210">
        <ele>245.6</ele>
        <time>2021-05-24T07:07:12Z</time>
      </trkpt>
      <trkpt lat="42.8439480" lon="-8.5812160">
        <ele>245.7</ele>
        <time>2021-05-24T07:07:13Z</time>
      </trkpt>
      <trkpt lat="42.8439530" lon="-8.5812090">
        <ele>245.7</ele>
        <time>2021-05-24T07:07:14Z</time>
      </trkpt>
      <trkpt lat="42.8439630" lon="-8.5812020">
        <ele>245.7</ele>
        <time>2021-05-24T07:07:15Z</time>
      </trkpt>
      <trkpt lat="42.8439780" lon="-8.5812010">
        <ele>245.8</ele>
        <time>2021-05-24T07:07:16Z</time>
      </trkpt>
      <trkpt lat="42.8439850" lon="-8.5812000">
        <ele>245.8</ele>
        <time>2021-05-24T07:07:17Z</time>
      </trkpt>
      <trkpt lat="42.8439920" lon="-8.5811920">
        <ele>245.8</ele>
        <time>2021-05-24T07:07:18Z</time>
      </trkpt>
      <trkpt lat="42.8440050" lon="-8.5811980">
        <ele>245.9</ele>
        <time>2021-05-24T07:07:19Z</time>
      </trkpt>
      <trkpt lat="42.8440390" lon="-8.5811870">
        <ele>246.0</ele>
        <time>2021-05-24T07:07:20Z</time>
      </trkpt>
      <trkpt lat="42.8440520" lon="-8.5811810">
        <ele>246.0</ele>
        <time>2021-05-24T07:07:21Z</time>
      </trkpt>
      <trkpt lat="42.8440740" lon="-8.5811780">
        <ele>246.1</ele>
        <time>2021-05-24T07:07:22Z</time>
      </trkpt>
      <trkpt lat="42.8440830" lon="-8.5811740">
        <ele>246.1</ele>
        <time>2021-05-24T07:07:23Z</time>
      </trkpt>
      <trkpt lat="42.8440910" lon="-8.5811710">
        <ele>246.2</ele>
        <time>2021-05-24T07:07:24Z</time>
      </trkpt>
      <trkpt lat="42.8441130" lon="-8.5811690">
        <ele>246.2</ele>
        <time>2021-05-24T07:07:25Z</time>
      </trkpt>
      <trkpt lat="42.8441190" lon="-8.5811640">
        <ele>246.3</ele>
        <time>2021-05-24T07:07:26Z</time>
      </trkpt>
      <trkpt lat="42.8441390" lon="-8.5811550">
        <ele>246.3</ele>
        <time>2021-05-24T07:07:27Z</time>
      </trkpt>
      <trkpt lat="42.8441520" lon="-8.5811540">
        <ele>246.4</ele>
        <time>2021-05-24T07:07:28Z</time>
      </trkpt>
      <trkpt lat="42.8441640" lon="-8.5811520">
        <ele>246.4</ele>
        <time>2021-05-24T07:07:29Z</time>
      </trkpt>
      <trkpt lat="42.8441790" lon="-8.5811420">
        <ele>246.4</ele>
        <time>2021-05-24T07:07:30Z</time>
      </trkpt>
      <trkpt lat="42.8441900" lon="-8.5811340">
        <ele>246.5</ele>
        <time>2021-05-24T07:07:31Z</time>
      </trkpt>
      <trkpt lat="42.8442090" lon="-8.5811350">
        <ele>246.5</ele>
        <time>2021-05-24T07:07:32Z</time>
      </trkpt>
      <trkpt lat="42.8442250" lon="-8.5811300">
        <ele>246.6</ele>
        <time>2021-05-24T07:07:33Z</time>
      </trkpt>
      <trkpt lat="42.8442350" lon="-8.5811260">
        <ele>246.6</ele>
        <time>2021-05-24T07:07:34Z</time>
      </trkpt>
      <trkpt lat="42.8442540" lon="-8.5811100">
        <ele>246.7</ele>
        <time>2021-05-24T07:07:35Z</time>
      </trkpt>
      <trkpt lat="42.8442670" lon="-8.5810960">
        <ele>246.7</ele>
        <time>2021-05-24T07:07:36Z</time>
      </trkpt>
      <trkpt lat="42.8442840" lon="-8.5810870">
        <ele>246.8</ele>
        <time>2021-05-24T07:07:37Z</time>
      </trkpt>
      <trkpt lat="42.8442990" lon="-8.5810760">
        <ele>246.8</ele>
        <time>2021-05-24T07:07:38Z</time>
      </trkpt>
      <trkpt lat="42.8443100" lon="-8.5810650">
        <ele>246.9</ele>
        <time>2021-05-24T07:07:39Z</time>
      </trkpt>
      <trkpt lat="42.8443190" lon="-8.5810540">
        <ele>246.9</ele>
        <time>2021-05-24T07:07:40Z</time>
      </trkpt>
      <trkpt lat="42.8443280" lon="-8.5810500">
        <ele>246.9</ele>
        <time>2021-05-24T07:07:41Z</time>
      </trkpt>
      <trkpt lat="42.8443430" lon="-8.5810490">
        <ele>247.0</ele>
        <time>2021-05-24T07:07:42Z</time>
      </trkpt>
      <trkpt lat="42.8443510" lon="-8.5810410">
        <ele>247.0</ele>
        <time>2021-05-24T07:07:43Z</time>
      </trkpt>
      <trkpt lat="42.8443680" lon="-8.5810370">
        <ele>247.1</ele>
        <time>2021-05-24T07:07:44Z</time>
      </trkpt>
      <trkpt lat="42.8443860" lon="-8.5810230">
        <ele>247.1</ele>
        <time>2021-05-24T07:07:45Z</time>
      </trkpt>
      <trkpt lat="42.8444000" lon="-8.5810130">
        <ele>247.2</ele>
        <time>2021-05-24T07:07:46Z</time>
      </trkpt>
      <trkpt lat="42.8444150" lon="-8.5809950">
        <ele>247.3</ele>
        <time>2021-05-24T07:07:47Z</time>
      </trkpt>
      <trkpt lat="42.8444240" lon="-8.5809880">
        <ele>247.3</ele>
        <time>2021-05-24T07:07:48Z</time>
      </trkpt>
      <trkpt lat="42.8444320" lon="-8.5809820">
        <ele>247.3</ele>
        <time>2021-05-24T07:07:49Z</time>
      </trkpt>
      <trkpt lat="42.8444580" lon="-8.5809770">
        <ele>247.4</ele>
        <time>2021-05-24T07:07:50Z</time>
      </trkpt>
      <trkpt lat="42.8444650" lon="-8.5809730">
        <ele>247.4</ele>
        <time>2021-05-24T07:07:51Z</time>
      </trkpt>
      <trkpt lat="42.8444730" lon="-8.5809700">
        <ele>247.5</ele>
        <time>2021-05-24T07:07:52Z</time>
      </trkpt>
      <trkpt lat="42.8444790" lon="-8.5809600">
        <ele>247.5</ele>
        <time>2021-05-24T07:07:53Z</time>
      </trkpt>
      <trkpt lat="42.8444880" lon="-8.5809530">
        <ele>247.5</ele>
        <time>2021-05-24T07:07:54Z</time>
      </trkpt>
      <trkpt lat="42.8444990" lon="-8.5809500">
        <ele>247.6</ele>
        <time>2021-05-24T07:07:55Z</time>
      </trkpt>
      <trkpt lat="42.8445160" lon="-8.5809360">
        <ele>247.6</ele>
        <time>2021-05-24T07:07:56Z</time>
      </trkpt>
      <trkpt lat="42.8445230" lon="-8.5809300">
        <ele>247.6</ele>
        <time>2021-05-24T07:07:57Z</time>
      </trkpt>
      <trkpt lat="42.8445310" lon="-8.5809250">
        <ele>247.7</ele>
        <time>2021-05-24T07:07:58Z</time>
      </trkpt>
      <trkpt lat="42.8445480" lon="-8.5809180">
        <ele>247.7</ele>
        <time>2021-05-24T07:07:59Z</time>
      </trkpt>
      <trkpt lat="42.8445580" lon="-8.5809170">
        <ele>247.8</ele>
        <time>2021-05-24T07:08:00Z</time>
      </trkpt>
      <trkpt lat="42.8445730" lon="-8.5809150">
        <ele>247.8</ele>
        <time>2021-05-24T07:08:01Z</time>
      </trkpt>
      <trkpt lat="42.8445870" lon="-8.5809100">
        <ele>247.8</ele>
        <time>2021-05-24T07:08:02Z</time>
      </trkpt>
      <trkpt lat="42.8445970" lon="-8.5809010">
        <ele>247.9</ele>
        <time>2021-05-24T07:08:03Z</time>
      </trkpt>
      <trkpt lat="42.8446030" lon="-8.5808990">
        <ele>247.9</ele>
        <time>2021-05-24T07:08:04Z</time>
      </trkpt>
      <trkpt lat="42.8446160" lon="-8.5808970">
        <ele>247.9</ele>
        <time>2021-05-24T07:08:05Z</time>
      </trkpt>
      <trkpt lat="42.8446320" lon="-8.5808930">
        <ele>248.0</ele>
        <time>2021-05-24T07:08:06Z</time>
      </trkpt>
      <trkpt lat="42.8446490" lon="-8.5808940">
        <ele>248.0</ele>
        <time>2021-05-24T07:08:07Z</time>
      </trkpt>
      <trkpt lat="42.8446710" lon="-8.5808890">
        <ele>248.1</ele>
        <time>2021-05-24T07:08:08Z</time>
      </trkpt>
      <trkpt lat="42.8446780" lon="-8.5808840">
        <ele>248.1</ele>
        <time>2021-05-24T07:08:09Z</time>
      </trkpt>
      <trkpt lat="42.8446850" lon="-8.5808800">
        <ele>248.2</ele>
        <time>2021-05-24T07:08:10Z</time>
      </trkpt>
      <trkpt lat="42.8447150" lon="-8.5808780">
        <ele>248.2</ele>
        <time>2021-05-24T07:08:11Z</time>
      </trkpt>
      <trkpt lat="42.8447360" lon="-8.5808710">
        <ele>248.3</ele>
        <time>2021-05-24T07:08:12Z</time>
      </trkpt>
      <trkpt lat="42.8447480" lon="-8.5808700">
        <ele>248.3</ele>
        <time>2021-05-24T07:08:13Z</time>
      </trkpt>
      <trkpt lat="42.8447590" lon="-8.5808680">
        <ele>248.3</ele>
        <time>2021-05-24T07:08:14Z</time>
      </trkpt>
      <trkpt lat="42.8447720" lon="-8.5808640">
        <ele>248.3</ele>
        <time>2021-05-24T07:08:15Z</time>
      </trkpt>
      <trkpt lat="42.8447850" lon="-8.5808590">
        <ele>248.4</ele>
        <time>2021-05-24T07:08:16Z</time>
      </trkpt>
      <trkpt lat="42.8447930" lon="-8.5808490">
        <ele>248.4</ele>
        <time>2021-05-24T07:08:17Z</time>
      </trkpt>
      <trkpt lat="42.8448020" lon="-8.5808480">
        <ele>248.4</ele>
        <time>2021-05-24T07:08:18Z</time>
      </trkpt>
      <trkpt lat="42.8448130" lon="-8.5808440">
        <ele>248.4</ele>
        <time>2021-05-24T07:08:19Z</time>
      </trkpt>
      <trkpt lat="42.8448130" lon="-8.5808520">
        <ele>248.4</ele>
        <time>2021-05-24T07:08:20Z</time>
      </trkpt>
      <trkpt lat="42.8448320" lon="-8.5808490">
        <ele>248.4</ele>
        <time>2021-05-24T07:08:21Z</time>
      </trkpt>
      <trkpt lat="42.8448440" lon="-8.5808460">
        <ele>248.5</ele>
        <time>2021-05-24T07:08:22Z</time>
      </trkpt>
      <trkpt lat="42.8448630" lon="-8.5808440">
        <ele>248.5</ele>
        <time>2021-05-24T07:08:23Z</time>
      </trkpt>
      <trkpt lat="42.8448760" lon="-8.5808400">
        <ele>248.5</ele>
        <time>2021-05-24T07:08:24Z</time>
      </trkpt>
      <trkpt lat="42.8448920" lon="-8.5808380">
        <ele>248.5</ele>
        <time>2021-05-24T07:08:25Z</time>
      </trkpt>
      <trkpt lat="42.8449010" lon="-8.5808360">
        <ele>248.5</ele>
        <time>2021-05-24T07:08:26Z</time>
      </trkpt>
      <trkpt lat="42.8449100" lon="-8.5808310">
        <ele>248.5</ele>
        <time>2021-05-24T07:08:27Z</time>
      </trkpt>
      <trkpt lat="42.8449220" lon="-8.5808270">
        <ele>248.6</ele>
        <time>2021-05-24T07:08:28Z</time>
      </trkpt>
      <trkpt lat="42.8449300" lon="-8.5808240">
        <ele>248.6</ele>
        <time>2021-05-24T07:08:29Z</time>
      </trkpt>
      <trkpt lat="42.8449450" lon="-8.5808260">
        <ele>248.8</ele>
        <time>2021-05-24T07:08:30Z</time>
      </trkpt>
      <trkpt lat="42.8449670" lon="-8.5808220">
        <ele>248.8</ele>
        <time>2021-05-24T07:08:31Z</time>
      </trkpt>
      <trkpt lat="42.8449760" lon="-8.5808200">
        <ele>248.8</ele>
        <time>2021-05-24T07:08:32Z</time>
      </trkpt>
      <trkpt lat="42.8449880" lon="-8.5808330">
        <ele>248.8</ele>
        <time>2021-05-24T07:08:33Z</time>
      </trkpt>
      <trkpt lat="42.8449990" lon="-8.5808450">
        <ele>248.8</ele>
        <time>2021-05-24T07:08:34Z</time>
      </trkpt>
      <trkpt lat="42.8449880" lon="-8.5808590">
        <ele>248.8</ele>
        <time>2021-05-24T07:08:35Z</time>
      </trkpt>
      <trkpt lat="42.8449860" lon="-8.5808650">
        <ele>248.8</ele>
        <time>2021-05-24T07:08:36Z</time>
      </trkpt>
      <trkpt lat="42.8449840" lon="-8.5808700">
        <ele>248.8</ele>
        <time>2021-05-24T07:08:37Z</time>
      </trkpt>
      <trkpt lat="42.8449820" lon="-8.5808760">
        <ele>248.8</ele>
        <time>2021-05-24T07:08:38Z</time>
      </trkpt>
      <trkpt lat="42.8449790" lon="-8.5808820">
        <ele>248.8</ele>
        <time>2021-05-24T07:08:39Z</time>
      </trkpt>
      <trkpt lat="42.8449770" lon="-8.5808880">
        <ele>248.8</ele>
        <time>2021-05-24T07:08:40Z</time>
      </trkpt>
      <trkpt lat="42.8449750" lon="-8.5808930">
        <ele>248.8</ele>
        <time>2021-05-24T07:08:41Z</time>
      </trkpt>
      <trkpt lat="42.8449730" lon="-8.5808990">
        <ele>248.8</ele>
        <time>2021-05-24T07:08:42Z</time>
      </trkpt>
      <trkpt lat="42.8449710" lon="-8.5809050">
        <ele>248.8</ele>
        <time>2021-05-24T07:08:43Z</time>
      </trkpt>
      <trkpt lat="42.8449680" lon="-8.5809180">
        <ele>248.8</ele>
        <time>2021-05-24T07:08:44Z</time>
      </trkpt>
      <trkpt lat="42.8449630" lon="-8.5809310">
        <ele>248.8</ele>
        <time>2021-05-24T07:08:45Z</time>
      </trkpt>
      <trkpt lat="42.8449560" lon="-8.5809450">
        <ele>248.8</ele>
        <time>2021-05-24T07:08:46Z</time>
      </trkpt>
      <trkpt lat="42.8449540" lon="-8.5809630">
        <ele>248.8</ele>
        <time>2021-05-24T07:08:47Z</time>
      </trkpt>
      <trkpt lat="42.8449510" lon="-8.5809750">
        <ele>248.8</ele>
        <time>2021-05-24T07:08:48Z</time>
      </trkpt>
      <trkpt lat="42.8449580" lon="-8.5809840">
        <ele>248.8</ele>
        <time>2021-05-24T07:08:49Z</time>
      </trkpt>
      <trkpt lat="42.8449640" lon="-8.5809920">
        <ele>248.8</ele>
        <time>2021-05-24T07:08:50Z</time>
      </trkpt>
      <trkpt lat="42.8449750" lon="-8.5810130">
        <ele>248.8</ele>
        <time>2021-05-24T07:08:51Z</time>
      </trkpt>
      <trkpt lat="42.8450040" lon="-8.5810230">
        <ele>248.8</ele>
        <time>2021-05-24T07:08:52Z</time>
      </trkpt>
      <trkpt lat="42.8450100" lon="-8.5810260">
        <ele>248.8</ele>
        <time>2021-05-24T07:08:53Z</time>
      </trkpt>
      <trkpt lat="42.8450140" lon="-8.5810410">
        <ele>248.8</ele>
        <time>2021-05-24T07:08:54Z</time>
      </trkpt>
      <trkpt lat="42.8450130" lon="-8.5810450">
        <ele>248.8</ele>
        <time>2021-05-24T07:08:55Z</time>
      </trkpt>
      <trkpt lat="42.8450140" lon="-8.5810570">
        <ele>248.8</ele>
        <time>2021-05-24T07:08:56Z</time>
      </trkpt>
      <trkpt lat="42.8450060" lon="-8.5810750">
        <ele>248.8</ele>
        <time>2021-05-24T07:08:57Z</time>
      </trkpt>
      <trkpt lat="42.8450100" lon="-8.5811040">
        <ele>248.8</ele>
        <time>2021-05-24T07:08:58Z</time>
      </trkpt>
      <trkpt lat="42.8450100" lon="-8.5811120">
        <ele>248.8</ele>
        <time>2021-05-24T07:08:59Z</time>
      </trkpt>
      <trkpt lat="42.8450110" lon="-8.5811310">
        <ele>248.8</ele>
        <time>2021-05-24T07:09:00Z</time>
      </trkpt>
      <trkpt lat="42.8450050" lon="-8.5811350">
        <ele>248.8</ele>
        <time>2021-05-24T07:09:01Z</time>
      </trkpt>
      <trkpt lat="42.8449980" lon="-8.5811400">
        <ele>248.8</ele>
        <time>2021-05-24T07:09:02Z</time>
      </trkpt>
      <trkpt lat="42.8449920" lon="-8.5811440">
        <ele>248.8</ele>
        <time>2021-05-24T07:09:03Z</time>
      </trkpt>
      <trkpt lat="42.8449850" lon="-8.5811480">
        <ele>248.8</ele>
        <time>2021-05-24T07:09:04Z</time>
      </trkpt>
      <trkpt lat="42.8449780" lon="-8.5811520">
        <ele>248.8</ele>
        <time>2021-05-24T07:09:05Z</time>
      </trkpt>
      <trkpt lat="42.8449790" lon="-8.5811480">
        <ele>248.8</ele>
        <time>2021-05-24T07:09:06Z</time>
      </trkpt>
      <trkpt lat="42.8449710" lon="-8.5811450">
        <ele>248.8</ele>
        <time>2021-05-24T07:09:07Z</time>
      </trkpt>
      <trkpt lat="42.8449710" lon="-8.5811400">
        <ele>248.8</ele>
        <time>2021-05-24T07:09:08Z</time>
      </trkpt>
      <trkpt lat="42.8449710" lon="-8.5811240">
        <ele>248.8</ele>
        <time>2021-05-24T07:09:09Z</time>
      </trkpt>
      <trkpt lat="42.8449730" lon="-8.5811060">
        <ele>248.8</ele>
        <time>2021-05-24T07:09:10Z</time>
      </trkpt>
      <trkpt lat="42.8449680" lon="-8.5811020">
        <ele>248.8</ele>
        <time>2021-05-24T07:09:11Z</time>
      </trkpt>
      <trkpt lat="42.8449700" lon="-8.5811090">
        <ele>248.8</ele>
        <time>2021-05-24T07:09:12Z</time>
      </trkpt>
      <trkpt lat="42.8449710" lon="-8.5811150">
        <ele>248.8</ele>
        <time>2021-05-24T07:09:13Z</time>
      </trkpt>
      <trkpt lat="42.8449730" lon="-8.5811220">
        <ele>248.8</ele>
        <time>2021-05-24T07:09:15Z</time>
      </trkpt>
      <trkpt lat="42.8449740" lon="-8.5811290">
        <ele>248.8</ele>
        <time>2021-05-24T07:09:16Z</time>
      </trkpt>
      <trkpt lat="42.8449760" lon="-8.5811360">
        <ele>248.8</ele>
        <time>2021-05-24T07:09:17Z</time>
      </trkpt>
      <trkpt lat="42.8449770" lon="-8.5811420">
        <ele>248.8</ele>
        <time>2021-05-24T07:09:18Z</time>
      </trkpt>
      <trkpt lat="42.8449790" lon="-8.5811490">
        <ele>248.8</ele>
        <time>2021-05-24T07:09:19Z</time>
      </trkpt>
      <trkpt lat="42.8449800" lon="-8.5811560">
        <ele>248.8</ele>
        <time>2021-05-24T07:09:20Z</time>
      </trkpt>
      <trkpt lat="42.8449830" lon="-8.5811770">
        <ele>248.8</ele>
        <time>2021-05-24T07:09:21Z</time>
      </trkpt>
      <trkpt lat="42.8449840" lon="-8.5811850">
        <ele>248.8</ele>
        <time>2021-05-24T07:09:22Z</time>
      </trkpt>
      <trkpt lat="42.8449910" lon="-8.5811910">
        <ele>248.8</ele>
        <time>2021-05-24T07:09:23Z</time>
      </trkpt>
      <trkpt lat="42.8449950" lon="-8.5812040">
        <ele>248.8</ele>
        <time>2021-05-24T07:09:24Z</time>
      </trkpt>
      <trkpt lat="42.8450000" lon="-8.5812080">
        <ele>248.8</ele>
        <time>2021-05-24T07:09:25Z</time>
      </trkpt>
      <trkpt lat="42.8450040" lon="-8.5812120">
        <ele>248.8</ele>
        <time>2021-05-24T07:09:26Z</time>
      </trkpt>
      <trkpt lat="42.8450090" lon="-8.5812160">
        <ele>248.8</ele>
        <time>2021-05-24T07:09:27Z</time>
      </trkpt>
      <trkpt lat="42.8450130" lon="-8.5812200">
        <ele>248.8</ele>
        <time>2021-05-24T07:09:28Z</time>
      </trkpt>
      <trkpt lat="42.8450180" lon="-8.5812240">
        <ele>248.8</ele>
        <time>2021-05-24T07:09:29Z</time>
      </trkpt>
      <trkpt lat="42.8450220" lon="-8.5812280">
        <ele>248.8</ele>
        <time>2021-05-24T07:09:30Z</time>
      </trkpt>
      <trkpt lat="42.8450260" lon="-8.5812320">
        <ele>248.8</ele>
        <time>2021-05-24T07:09:31Z</time>
      </trkpt>
      <trkpt lat="42.8450310" lon="-8.5812360">
        <ele>248.8</ele>
        <time>2021-05-24T07:09:32Z</time>
      </trkpt>
      <trkpt lat="42.8450350" lon="-8.5812400">
        <ele>248.8</ele>
        <time>2021-05-24T07:09:33Z</time>
      </trkpt>
      <trkpt lat="42.8450400" lon="-8.5812440">
        <ele>248.8</ele>
        <time>2021-05-24T07:09:34Z</time>
      </trkpt>
      <trkpt lat="42.8450440" lon="-8.5812480">
        <ele>248.8</ele>
        <time>2021-05-24T07:09:35Z</time>
      </trkpt>
      <trkpt lat="42.8450490" lon="-8.5812520">
        <ele>248.8</ele>
        <time>2021-05-24T07:09:36Z</time>
      </trkpt>
      <trkpt lat="42.8450530" lon="-8.5812560">
        <ele>248.8</ele>
        <time>2021-05-24T07:09:37Z</time>
      </trkpt>
      <trkpt lat="42.8450580" lon="-8.5812600">
        <ele>248.8</ele>
        <time>2021-05-24T07:09:38Z</time>
      </trkpt>
      <trkpt lat="42.8450620" lon="-8.5812640">
        <ele>248.8</ele>
        <time>2021-05-24T07:09:39Z</time>
      </trkpt>
      <trkpt lat="42.8450660" lon="-8.5812680">
        <ele>248.8</ele>
        <time>2021-05-24T07:09:40Z</time>
      </trkpt>
      <trkpt lat="42.8450710" lon="-8.5812720">
        <ele>248.8</ele>
        <time>2021-05-24T07:09:41Z</time>
      </trkpt>
      <trkpt lat="42.8450750" lon="-8.5812760">
        <ele>248.8</ele>
        <time>2021-05-24T07:09:42Z</time>
      </trkpt>
      <trkpt lat="42.8450800" lon="-8.5812800">
        <ele>248.8</ele>
        <time>2021-05-24T07:09:43Z</time>
      </trkpt>
      <trkpt lat="42.8450840" lon="-8.5812840">
        <ele>248.8</ele>
        <time>2021-05-24T07:09:44Z</time>
      </trkpt>
      <trkpt lat="42.8450890" lon="-8.5812880">
        <ele>248.8</ele>
        <time>2021-05-24T07:09:45Z</time>
      </trkpt>
      <trkpt lat="42.8450930" lon="-8.5812920">
        <ele>248.8</ele>
        <time>2021-05-24T07:09:46Z</time>
      </trkpt>
      <trkpt lat="42.8450970" lon="-8.5812960">
        <ele>248.8</ele>
        <time>2021-05-24T07:09:47Z</time>
      </trkpt>
      <trkpt lat="42.8451020" lon="-8.5813000">
        <ele>248.8</ele>
        <time>2021-05-24T07:09:48Z</time>
      </trkpt>
      <trkpt lat="42.8451060" lon="-8.5813040">
        <ele>248.8</ele>
        <time>2021-05-24T07:09:49Z</time>
      </trkpt>
      <trkpt lat="42.8451110" lon="-8.5813080">
        <ele>248.8</ele>
        <time>2021-05-24T07:09:50Z</time>
      </trkpt>
      <trkpt lat="42.8451150" lon="-8.5813120">
        <ele>248.8</ele>
        <time>2021-05-24T07:09:51Z</time>
      </trkpt>
      <trkpt lat="42.8451200" lon="-8.5813160">
        <ele>248.8</ele>
        <time>2021-05-24T07:09:52Z</time>
      </trkpt>
      <trkpt lat="42.8451240" lon="-8.5813200">
        <ele>248.8</ele>
        <time>2021-05-24T07:09:53Z</time>
      </trkpt>
      <trkpt lat="42.8451290" lon="-8.5813240">
        <ele>248.8</ele>
        <time>2021-05-24T07:09:54Z</time>
      </trkpt>
      <trkpt lat="42.8451330" lon="-8.5813280">
        <ele>248.8</ele>
        <time>2021-05-24T07:09:55Z</time>
      </trkpt>
      <trkpt lat="42.8451370" lon="-8.5813320">
        <ele>248.8</ele>
        <time>2021-05-24T07:09:56Z</time>
      </trkpt>
      <trkpt lat="42.8451420" lon="-8.5813360">
        <ele>248.8</ele>
        <time>2021-05-24T07:09:57Z</time>
      </trkpt>
      <trkpt lat="42.8451460" lon="-8.5813400">
        <ele>248.8</ele>
        <time>2021-05-24T07:09:58Z</time>
      </trkpt>
      <trkpt lat="42.8451510" lon="-8.5813440">
        <ele>248.8</ele>
        <time>2021-05-24T07:09:59Z</time>
      </trkpt>
      <trkpt lat="42.8451550" lon="-8.5813480">
        <ele>248.8</ele>
        <time>2021-05-24T07:10:00Z</time>
      </trkpt>
      <trkpt lat="42.8451600" lon="-8.5813520">
        <ele>248.8</ele>
        <time>2021-05-24T07:10:01Z</time>
      </trkpt>
      <trkpt lat="42.8451640" lon="-8.5813560">
        <ele>248.8</ele>
        <time>2021-05-24T07:10:02Z</time>
      </trkpt>
      <trkpt lat="42.8451740" lon="-8.5813590">
        <ele>248.8</ele>
        <time>2021-05-24T07:10:03Z</time>
      </trkpt>
      <trkpt lat="42.8451780" lon="-8.5813660">
        <ele>248.8</ele>
        <time>2021-05-24T07:10:04Z</time>
      </trkpt>
      <trkpt lat="42.8451740" lon="-8.5813730">
        <ele>248.8</ele>
        <time>2021-05-24T07:10:05Z</time>
      </trkpt>
      <trkpt lat="42.8451630" lon="-8.5813840">
        <ele>248.8</ele>
        <time>2021-05-24T07:10:06Z</time>
      </trkpt>
      <trkpt lat="42.8451630" lon="-8.5813930">
        <ele>248.8</ele>
        <time>2021-05-24T07:10:07Z</time>
      </trkpt>
      <trkpt lat="42.8451610" lon="-8.5814080">
        <ele>248.8</ele>
        <time>2021-05-24T07:10:08Z</time>
      </trkpt>
      <trkpt lat="42.8451730" lon="-8.5814210">
        <ele>248.8</ele>
        <time>2021-05-24T07:10:09Z</time>
      </trkpt>
      <trkpt lat="42.8451640" lon="-8.5814170">
        <ele>248.8</ele>
        <time>2021-05-24T07:10:10Z</time>
      </trkpt>
      <trkpt lat="42.8451510" lon="-8.5814100">
        <ele>248.8</ele>
        <time>2021-05-24T07:10:11Z</time>
      </trkpt>
      <trkpt lat="42.8451520" lon="-8.5814090">
        <ele>248.8</ele>
        <time>2021-05-24T07:10:12Z</time>
      </trkpt>
      <trkpt lat="42.8451460" lon="-8.5814170">
        <ele>248.8</ele>
        <time>2021-05-24T07:10:13Z</time>
      </trkpt>
      <trkpt lat="42.8451450" lon="-8.5814230">
        <ele>248.8</ele>
        <time>2021-05-24T07:10:14Z</time>
      </trkpt>
      <trkpt lat="42.8451510" lon="-8.5814220">
        <ele>248.8</ele>
        <time>2021-05-24T07:10:15Z</time>
      </trkpt>
      <trkpt lat="42.8451460" lon="-8.5814180">
        <ele>248.8</ele>
        <time>2021-05-24T07:10:16Z</time>
      </trkpt>
      <trkpt lat="42.8451450" lon="-8.5814190">
        <ele>248.8</ele>
        <time>2021-05-24T07:10:17Z</time>
      </trkpt>
      <trkpt lat="42.8451400" lon="-8.5814160">
        <ele>248.8</ele>
        <time>2021-05-24T07:10:18Z</time>
      </trkpt>
      <trkpt lat="42.8451450" lon="-8.5814160">
        <ele>248.8</ele>
        <time>2021-05-24T07:10:19Z</time>
      </trkpt>
      <trkpt lat="42.8451480" lon="-8.5814110">
        <ele>248.8</ele>
        <time>2021-05-24T07:10:20Z</time>
      </trkpt>
      <trkpt lat="42.8451570" lon="-8.5814070">
        <ele>248.8</ele>
        <time>2021-05-24T07:10:21Z</time>
      </trkpt>
      <trkpt lat="42.8451620" lon="-8.5814080">
        <ele>248.8</ele>
        <time>2021-05-24T07:10:22Z</time>
      </trkpt>
      <trkpt lat="42.8451640" lon="-8.5813940">
        <ele>248.8</ele>
        <time>2021-05-24T07:10:23Z</time>
      </trkpt>
      <trkpt lat="42.8451710" lon="-8.5813700">
        <ele>248.8</ele>
        <time>2021-05-24T07:10:24Z</time>
      </trkpt>
      <trkpt lat="42.8451480" lon="-8.5813540">
        <ele>248.8</ele>
        <time>2021-05-24T07:10:25Z</time>
      </trkpt>
      <trkpt lat="42.8451210" lon="-8.5813460">
        <ele>248.8</ele>
        <time>2021-05-24T07:10:26Z</time>
      </trkpt>
      <trkpt lat="42.8451080" lon="-8.5813460">
        <ele>248.8</ele>
        <time>2021-05-24T07:10:27Z</time>
      </trkpt>
      <trkpt lat="42.8451020" lon="-8.5813400">
        <ele>248.8</ele>
        <time>2021-05-24T07:10:28Z</time>
      </trkpt>
      <trkpt lat="42.8451040" lon="-8.5813410">
        <ele>248.8</ele>
        <time>2021-05-24T07:10:29Z</time>
      </trkpt>
      <trkpt lat="42.8451050" lon="-8.5813410">
        <ele>248.8</ele>
        <time>2021-05-24T07:10:30Z</time>
      </trkpt>
      <trkpt lat="42.8451070" lon="-8.5813410">
        <ele>248.8</ele>
        <time>2021-05-24T07:10:31Z</time>
      </trkpt>
      <trkpt lat="42.8451080" lon="-8.5813420">
        <ele>248.8</ele>
        <time>2021-05-24T07:10:32Z</time>
      </trkpt>
      <trkpt lat="42.8451090" lon="-8.5813420">
        <ele>248.8</ele>
        <time>2021-05-24T07:10:33Z</time>
      </trkpt>
      <trkpt lat="42.8451110" lon="-8.5813420">
        <ele>248.8</ele>
        <time>2021-05-24T07:10:34Z</time>
      </trkpt>
      <trkpt lat="42.8451120" lon="-8.5813420">
        <ele>248.8</ele>
        <time>2021-05-24T07:10:35Z</time>
      </trkpt>
      <trkpt lat="42.8451130" lon="-8.5813430">
        <ele>248.8</ele>
        <time>2021-05-24T07:10:36Z</time>
      </trkpt>
      <trkpt lat="42.8451150" lon="-8.5813430">
        <ele>248.8</ele>
        <time>2021-05-24T07:10:37Z</time>
      </trkpt>
      <trkpt lat="42.8451160" lon="-8.5813430">
        <ele>248.8</ele>
        <time>2021-05-24T07:10:38Z</time>
      </trkpt>
      <trkpt lat="42.8451180" lon="-8.5813440">
        <ele>248.8</ele>
        <time>2021-05-24T07:10:39Z</time>
      </trkpt>
      <trkpt lat="42.8451190" lon="-8.5813440">
        <ele>248.8</ele>
        <time>2021-05-24T07:10:40Z</time>
      </trkpt>
      <trkpt lat="42.8451200" lon="-8.5813440">
        <ele>248.8</ele>
        <time>2021-05-24T07:10:41Z</time>
      </trkpt>
      <trkpt lat="42.8451220" lon="-8.5813450">
        <ele>248.8</ele>
        <time>2021-05-24T07:10:42Z</time>
      </trkpt>
      <trkpt lat="42.8451230" lon="-8.5813450">
        <ele>248.8</ele>
        <time>2021-05-24T07:10:43Z</time>
      </trkpt>
      <trkpt lat="42.8451240" lon="-8.5813450">
        <ele>248.8</ele>
        <time>2021-05-24T07:10:44Z</time>
      </trkpt>
      <trkpt lat="42.8451260" lon="-8.5813460">
        <ele>248.8</ele>
        <time>2021-05-24T07:10:45Z</time>
      </trkpt>
      <trkpt lat="42.8451270" lon="-8.5813460">
        <ele>248.8</ele>
        <time>2021-05-24T07:10:46Z</time>
      </trkpt>
      <trkpt lat="42.8451290" lon="-8.5813460">
        <ele>248.8</ele>
        <time>2021-05-24T07:10:47Z</time>
      </trkpt>
      <trkpt lat="42.8451300" lon="-8.5813460">
        <ele>248.8</ele>
        <time>2021-05-24T07:10:48Z</time>
      </trkpt>
      <trkpt lat="42.8451310" lon="-8.5813470">
        <ele>248.8</ele>
        <time>2021-05-24T07:10:49Z</time>
      </trkpt>
      <trkpt lat="42.8451330" lon="-8.5813470">
        <ele>248.8</ele>
        <time>2021-05-24T07:10:50Z</time>
      </trkpt>
      <trkpt lat="42.8451340" lon="-8.5813470">
        <ele>248.8</ele>
        <time>2021-05-24T07:10:51Z</time>
      </trkpt>
      <trkpt lat="42.8451360" lon="-8.5813480">
        <ele>248.8</ele>
        <time>2021-05-24T07:10:52Z</time>
      </trkpt>
      <trkpt lat="42.8451370" lon="-8.5813480">
        <ele>248.8</ele>
        <time>2021-05-24T07:10:53Z</time>
      </trkpt>
      <trkpt lat="42.8451380" lon="-8.5813480">
        <ele>248.8</ele>
        <time>2021-05-24T07:10:54Z</time>
      </trkpt>
      <trkpt lat="42.8451400" lon="-8.5813490">
        <ele>248.8</ele>
        <time>2021-05-24T07:10:55Z</time>
      </trkpt>
      <trkpt lat="42.8451410" lon="-8.5813490">
        <ele>248.8</ele>
        <time>2021-05-24T07:10:56Z</time>
      </trkpt>
      <trkpt lat="42.8451420" lon="-8.5813490">
        <ele>248.9</ele>
        <time>2021-05-24T07:10:57Z</time>
      </trkpt>
      <trkpt lat="42.8451440" lon="-8.5813500">
        <ele>248.9</ele>
        <time>2021-05-24T07:10:58Z</time>
      </trkpt>
      <trkpt lat="42.8451450" lon="-8.5813500">
        <ele>248.9</ele>
        <time>2021-05-24T07:10:59Z</time>
      </trkpt>
      <trkpt lat="42.8451470" lon="-8.5813500">
        <ele>248.9</ele>
        <time>2021-05-24T07:11:00Z</time>
      </trkpt>
      <trkpt lat="42.8451480" lon="-8.5813510">
        <ele>248.9</ele>
        <time>2021-05-24T07:11:01Z</time>
      </trkpt>
      <trkpt lat="42.8451490" lon="-8.5813510">
        <ele>248.9</ele>
        <time>2021-05-24T07:11:02Z</time>
      </trkpt>
      <trkpt lat="42.8451510" lon="-8.5813510">
        <ele>248.9</ele>
        <time>2021-05-24T07:11:03Z</time>
      </trkpt>
      <trkpt lat="42.8451520" lon="-8.5813510">
        <ele>248.9</ele>
        <time>2021-05-24T07:11:04Z</time>
      </trkpt>
      <trkpt lat="42.8451530" lon="-8.5813520">
        <ele>248.9</ele>
        <time>2021-05-24T07:11:05Z</time>
      </trkpt>
      <trkpt lat="42.8451550" lon="-8.5813520">
        <ele>248.9</ele>
        <time>2021-05-24T07:11:06Z</time>
      </trkpt>
      <trkpt lat="42.8451560" lon="-8.5813520">
        <ele>248.9</ele>
        <time>2021-05-24T07:11:07Z</time>
      </trkpt>
      <trkpt lat="42.8451580" lon="-8.5813530">
        <ele>248.9</ele>
        <time>2021-05-24T07:11:08Z</time>
      </trkpt>
      <trkpt lat="42.8451590" lon="-8.5813530">
        <ele>248.9</ele>
        <time>2021-05-24T07:11:09Z</time>
      </trkpt>
      <trkpt lat="42.8451410" lon="-8.5813420">
        <ele>248.9</ele>
        <time>2021-05-24T07:11:10Z</time>
      </trkpt>
      <trkpt lat="42.8451270" lon="-8.5813430">
        <ele>248.9</ele>
        <time>2021-05-24T07:11:11Z</time>
      </trkpt>
      <trkpt lat="42.8451130" lon="-8.5813440">
        <ele>248.9</ele>
        <time>2021-05-24T07:11:12Z</time>
      </trkpt>
      <trkpt lat="42.8450990" lon="-8.5813450">
        <ele>248.9</ele>
        <time>2021-05-24T07:11:13Z</time>
      </trkpt>
      <trkpt lat="42.8450850" lon="-8.5813460">
        <ele>248.9</ele>
        <time>2021-05-24T07:11:14Z</time>
      </trkpt>
      <trkpt lat="42.8450490" lon="-8.5813500">
        <ele>248.9</ele>
        <time>2021-05-24T07:11:15Z</time>
      </trkpt>
      <trkpt lat="42.8450140" lon="-8.5813420">
        <ele>248.9</ele>
        <time>2021-05-24T07:11:16Z</time>
      </trkpt>
      <trkpt lat="42.8449850" lon="-8.5813410">
        <ele>248.9</ele>
        <time>2021-05-24T07:11:17Z</time>
      </trkpt>
      <trkpt lat="42.8449610" lon="-8.5813320">
        <ele>248.9</ele>
        <time>2021-05-24T07:11:18Z</time>
      </trkpt>
      <trkpt lat="42.8449530" lon="-8.5813360">
        <ele>248.9</ele>
        <time>2021-05-24T07:11:19Z</time>
      </trkpt>
      <trkpt lat="42.8449460" lon="-8.5813420">
        <ele>248.9</ele>
        <time>2021-05-24T07:11:20Z</time>
      </trkpt>
      <trkpt lat="42.8449510" lon="-8.5813540">
        <ele>248.9</ele>
        <time>2021-05-24T07:11:21Z</time>
      </trkpt>
      <trkpt lat="42.8449590" lon="-8.5813580">
        <ele>248.9</ele>
        <time>2021-05-24T07:11:23Z</time>
      </trkpt>
      <trkpt lat="42.8449680" lon="-8.5813670">
        <ele>248.9</ele>
        <time>2021-05-24T07:11:25Z</time>
      </trkpt>
      <trkpt lat="42.8449770" lon="-8.5813690">
        <ele>248.9</ele>
        <time>2021-05-24T07:11:26Z</time>
      </trkpt>
      <trkpt lat="42.8450030" lon="-8.5813650">
        <ele>248.9</ele>
        <time>2021-05-24T07:11:27Z</time>
      </trkpt>
      <trkpt lat="42.8450220" lon="-8.5813700">
        <ele>248.9</ele>
        <time>2021-05-24T07:11:28Z</time>
      </trkpt>
      <trkpt lat="42.8450400" lon="-8.5813760">
        <ele>248.9</ele>
        <time>2021-05-24T07:11:29Z</time>
      </trkpt>
      <trkpt lat="42.8450630" lon="-8.5813800">
        <ele>248.9</ele>
        <time>2021-05-24T07:11:30Z</time>
      </trkpt>
      <trkpt lat="42.8450720" lon="-8.5813830">
        <ele>248.9</ele>
        <time>2021-05-24T07:11:31Z</time>
      </trkpt>
      <trkpt lat="42.8450830" lon="-8.5813830">
        <ele>248.9</ele>
        <time>2021-05-24T07:11:32Z</time>
      </trkpt>
      <trkpt lat="42.8450890" lon="-8.5813840">
        <ele>248.9</ele>
        <time>2021-05-24T07:11:33Z</time>
      </trkpt>
      <trkpt lat="42.8450960" lon="-8.5813840">
        <ele>248.9</ele>
        <time>2021-05-24T07:11:34Z</time>
      </trkpt>
      <trkpt lat="42.8451030" lon="-8.5813840">
        <ele>248.9</ele>
        <time>2021-05-24T07:11:35Z</time>
      </trkpt>
      <trkpt lat="42.8451090" lon="-8.5813850">
        <ele>248.9</ele>
        <time>2021-05-24T07:11:36Z</time>
      </trkpt>
      <trkpt lat="42.8451160" lon="-8.5813850">
        <ele>248.9</ele>
        <time>2021-05-24T07:11:37Z</time>
      </trkpt>
      <trkpt lat="42.8451070" lon="-8.5813720">
        <ele>248.9</ele>
        <time>2021-05-24T07:11:38Z</time>
      </trkpt>
      <trkpt lat="42.8450920" lon="-8.5813650">
        <ele>248.9</ele>
        <time>2021-05-24T07:11:39Z</time>
      </trkpt>
      <trkpt lat="42.8450780" lon="-8.5813590">
        <ele>248.9</ele>
        <time>2021-05-24T07:11:40Z</time>
      </trkpt>
      <trkpt lat="42.8450630" lon="-8.5813520">
        <ele>248.9</ele>
        <time>2021-05-24T07:11:41Z</time>
      </trkpt>
      <trkpt lat="42.8450530" lon="-8.5813080">
        <ele>248.9</ele>
        <time>2021-05-24T07:11:42Z</time>
      </trkpt>
      <trkpt lat="42.8450390" lon="-8.5812960">
        <ele>248.9</ele>
        <time>2021-05-24T07:11:43Z</time>
      </trkpt>
      <trkpt lat="42.8450420" lon="-8.5812630">
        <ele>248.9</ele>
        <time>2021-05-24T07:11:44Z</time>
      </trkpt>
      <trkpt lat="42.8450390" lon="-8.5812500">
        <ele>248.9</ele>
        <time>2021-05-24T07:11:45Z</time>
      </trkpt>
      <trkpt lat="42.8450370" lon="-8.5812400">
        <ele>248.9</ele>
        <time>2021-05-24T07:11:46Z</time>
      </trkpt>
      <trkpt lat="42.8450260" lon="-8.5812290">
        <ele>248.9</ele>
        <time>2021-05-24T07:11:47Z</time>
      </trkpt>
      <trkpt lat="42.8450170" lon="-8.5812210">
        <ele>248.9</ele>
        <time>2021-05-24T07:11:48Z</time>
      </trkpt>
      <trkpt lat="42.8450150" lon="-8.5812090">
        <ele>248.9</ele>
        <time>2021-05-24T07:11:49Z</time>
      </trkpt>
      <trkpt lat="42.8450070" lon="-8.5812000">
        <ele>248.9</ele>
        <time>2021-05-24T07:11:50Z</time>
      </trkpt>
      <trkpt lat="42.8450060" lon="-8.5811910">
        <ele>248.9</ele>
        <time>2021-05-24T07:11:51Z</time>
      </trkpt>
      <trkpt lat="42.8450070" lon="-8.5811960">
        <ele>248.9</ele>
        <time>2021-05-24T07:11:52Z</time>
      </trkpt>
      <trkpt lat="42.8450100" lon="-8.5811930">
        <ele>248.9</ele>
        <time>2021-05-24T07:11:53Z</time>
      </trkpt>
      <trkpt lat="42.8450090" lon="-8.5811760">
        <ele>248.9</ele>
        <time>2021-05-24T07:11:54Z</time>
      </trkpt>
      <trkpt lat="42.8450080" lon="-8.5811600">
        <ele>248.9</ele>
        <time>2021-05-24T07:11:55Z</time>
      </trkpt>
      <trkpt lat="42.8450080" lon="-8.5811500">
        <ele>248.9</ele>
        <time>2021-05-24T07:11:56Z</time>
      </trkpt>
      <trkpt lat="42.8450110" lon="-8.5811310">
        <ele>248.9</ele>
        <time>2021-05-24T07:11:57Z</time>
      </trkpt>
      <trkpt lat="42.8450220" lon="-8.5811080">
        <ele>248.9</ele>
        <time>2021-05-24T07:11:58Z</time>
      </trkpt>
      <trkpt lat="42.8450240" lon="-8.5810880">
        <ele>248.9</ele>
        <time>2021-05-24T07:11:59Z</time>
      </trkpt>
      <trkpt lat="42.8450260" lon="-8.5810830">
        <ele>248.9</ele>
        <time>2021-05-24T07:12:00Z</time>
      </trkpt>
      <trkpt lat="42.8450290" lon="-8.5810790">
        <ele>248.9</ele>
        <time>2021-05-24T07:12:01Z</time>
      </trkpt>
      <trkpt lat="42.8450310" lon="-8.5810590">
        <ele>248.9</ele>
        <time>2021-05-24T07:12:02Z</time>
      </trkpt>
      <trkpt lat="42.8450290" lon="-8.5810420">
        <ele>248.9</ele>
        <time>2021-05-24T07:12:03Z</time>
      </trkpt>
      <trkpt lat="42.8450290" lon="-8.5809860">
        <ele>248.9</ele>
        <time>2021-05-24T07:12:04Z</time>
      </trkpt>
      <trkpt lat="42.8450290" lon="-8.5809580">
        <ele>248.9</ele>
        <time>2021-05-24T07:12:05Z</time>
      </trkpt>
      <trkpt lat="42.8449970" lon="-8.5809490">
        <ele>248.9</ele>
        <time>2021-05-24T07:12:06Z</time>
      </trkpt>
      <trkpt lat="42.8449630" lon="-8.5810190">
        <ele>248.9</ele>
        <time>2021-05-24T07:12:07Z</time>
      </trkpt>
      <trkpt lat="42.8449690" lon="-8.5810030">
        <ele>248.9</ele>
        <time>2021-05-24T07:12:08Z</time>
      </trkpt>
      <trkpt lat="42.8449580" lon="-8.5809880">
        <ele>248.9</ele>
        <time>2021-05-24T07:12:09Z</time>
      </trkpt>
      <trkpt lat="42.8449470" lon="-8.5809740">
        <ele>248.9</ele>
        <time>2021-05-24T07:12:10Z</time>
      </trkpt>
      <trkpt lat="42.8449360" lon="-8.5809600">
        <ele>248.9</ele>
        <time>2021-05-24T07:12:11Z</time>
      </trkpt>
      <trkpt lat="42.8448800" lon="-8.5809300">
        <ele>248.9</ele>
        <time>2021-05-24T07:12:12Z</time>
      </trkpt>
      <trkpt lat="42.8448610" lon="-8.5809100">
        <ele>248.9</ele>
        <time>2021-05-24T07:12:13Z</time>
      </trkpt>
      <trkpt lat="42.8448500" lon="-8.5809040">
        <ele>248.9</ele>
        <time>2021-05-24T07:12:14Z</time>
      </trkpt>
      <trkpt lat="42.8448520" lon="-8.5809160">
        <ele>248.9</ele>
        <time>2021-05-24T07:12:15Z</time>
      </trkpt>
      <trkpt lat="42.8448540" lon="-8.5809250">
        <ele>248.9</ele>
        <time>2021-05-24T07:12:16Z</time>
      </trkpt>
      <trkpt lat="42.8448560" lon="-8.5809340">
        <ele>248.9</ele>
        <time>2021-05-24T07:12:17Z</time>
      </trkpt>
      <trkpt lat="42.8448570" lon="-8.5809430">
        <ele>248.9</ele>
        <time>2021-05-24T07:12:18Z</time>
      </trkpt>
      <trkpt lat="42.8448590" lon="-8.5809520">
        <ele>248.9</ele>
        <time>2021-05-24T07:12:19Z</time>
      </trkpt>
      <trkpt lat="42.8448610" lon="-8.5809610">
        <ele>249.0</ele>
        <time>2021-05-24T07:12:20Z</time>
      </trkpt>
      <trkpt lat="42.8448610" lon="-8.5809790">
        <ele>249.0</ele>
        <time>2021-05-24T07:12:21Z</time>
      </trkpt>
      <trkpt lat="42.8448740" lon="-8.5809950">
        <ele>249.0</ele>
        <time>2021-05-24T07:12:22Z</time>
      </trkpt>
      <trkpt lat="42.8448750" lon="-8.5809910">
        <ele>249.0</ele>
        <time>2021-05-24T07:12:23Z</time>
      </trkpt>
      <trkpt lat="42.8448700" lon="-8.5809810">
        <ele>249.0</ele>
        <time>2021-05-24T07:12:24Z</time>
      </trkpt>
      <trkpt lat="42.8448700" lon="-8.5809690">
        <ele>249.0</ele>
        <time>2021-05-24T07:12:25Z</time>
      </trkpt>
      <trkpt lat="42.8448720" lon="-8.5809660">
        <ele>249.0</ele>
        <time>2021-05-24T07:12:26Z</time>
      </trkpt>
      <trkpt lat="42.8448680" lon="-8.5809610">
        <ele>249.0</ele>
        <time>2021-05-24T07:12:27Z</time>
      </trkpt>
      <trkpt lat="42.8448780" lon="-8.5809500">
        <ele>249.0</ele>
        <time>2021-05-24T07:12:28Z</time>
      </trkpt>
      <trkpt lat="42.8448730" lon="-8.5809360">
        <ele>249.0</ele>
        <time>2021-05-24T07:12:29Z</time>
      </trkpt>
      <trkpt lat="42.8448820" lon="-8.5809180">
        <ele>249.0</ele>
        <time>2021-05-24T07:12:30Z</time>
      </trkpt>
      <trkpt lat="42.8448830" lon="-8.5809080">
        <ele>249.0</ele>
        <time>2021-05-24T07:12:31Z</time>
      </trkpt>
      <trkpt lat="42.8448800" lon="-8.5808990">
        <ele>249.0</ele>
        <time>2021-05-24T07:12:32Z</time>
      </trkpt>
      <trkpt lat="42.8448860" lon="-8.5808760">
        <ele>249.0</ele>
        <time>2021-05-24T07:12:33Z</time>
      </trkpt>
      <trkpt lat="42.8448880" lon="-8.5808610">
        <ele>249.0</ele>
        <time>2021-05-24T07:12:34Z</time>
      </trkpt>
      <trkpt lat="42.8448870" lon="-8.5808470">
        <ele>249.0</ele>
        <time>2021-05-24T07:12:36Z</time>
      </trkpt>
      <trkpt lat="42.8448890" lon="-8.5808370">
        <ele>249.0</ele>
        <time>2021-05-24T07:12:37Z</time>
      </trkpt>
      <trkpt lat="42.8449030" lon="-8.5811190">
        <ele>249.0</ele>
        <time>2021-05-24T07:12:53Z</time>
      </trkpt>
      <trkpt lat="42.8449080" lon="-8.5811050">
        <ele>249.0</ele>
        <time>2021-05-24T07:12:54Z</time>
      </trkpt>
      <trkpt lat="42.8449120" lon="-8.5810940">
        <ele>249.0</ele>
        <time>2021-05-24T07:12:55Z</time>
      </trkpt>
      <trkpt lat="42.8449180" lon="-8.5810770">
        <ele>249.0</ele>
        <time>2021-05-24T07:12:56Z</time>
      </trkpt>
      <trkpt lat="42.8449210" lon="-8.5810640">
        <ele>249.0</ele>
        <time>2021-05-24T07:12:58Z</time>
      </trkpt>
      <trkpt lat="42.8449240" lon="-8.5810520">
        <ele>249.0</ele>
        <time>2021-05-24T07:12:59Z</time>
      </trkpt>
      <trkpt lat="42.8449200" lon="-8.5810310">
        <ele>249.0</ele>
        <time>2021-05-24T07:13:00Z</time>
      </trkpt>
      <trkpt lat="42.8449290" lon="-8.5810300">
        <ele>249.0</ele>
        <time>2021-05-24T07:13:01Z</time>
      </trkpt>
      <trkpt lat="42.8449510" lon="-8.5810580">
        <ele>249.0</ele>
        <time>2021-05-24T07:13:02Z</time>
      </trkpt>
      <trkpt lat="42.8449730" lon="-8.5810860">
        <ele>249.0</ele>
        <time>2021-05-24T07:13:03Z</time>
      </trkpt>
      <trkpt lat="42.8450880" lon="-8.5811520">
        <ele>249.0</ele>
        <time>2021-05-24T07:13:04Z</time>
      </trkpt>
      <trkpt lat="42.8450680" lon="-8.5811850">
        <ele>249.0</ele>
        <time>2021-05-24T07:13:05Z</time>
      </trkpt>
      <trkpt lat="42.8450370" lon="-8.5811970">
        <ele>249.0</ele>
        <time>2021-05-24T07:13:06Z</time>
      </trkpt>
      <trkpt lat="42.8450300" lon="-8.5812090">
        <ele>249.0</ele>
        <time>2021-05-24T07:13:07Z</time>
      </trkpt>
      <trkpt lat="42.8450680" lon="-8.5812680">
        <ele>249.0</ele>
        <time>2021-05-24T07:13:08Z</time>
      </trkpt>
      <trkpt lat="42.8450870" lon="-8.5812960">
        <ele>249.0</ele>
        <time>2021-05-24T07:13:09Z</time>
      </trkpt>
      <trkpt lat="42.8451110" lon="-8.5813210">
        <ele>249.0</ele>
        <time>2021-05-24T07:13:10Z</time>
      </trkpt>
      <trkpt lat="42.8451290" lon="-8.5813310">
        <ele>249.0</ele>
        <time>2021-05-24T07:13:11Z</time>
      </trkpt>
      <trkpt lat="42.8451360" lon="-8.5813430">
        <ele>249.0</ele>
        <time>2021-05-24T07:13:12Z</time>
      </trkpt>
      <trkpt lat="42.8451140" lon="-8.5813610">
        <ele>249.0</ele>
        <time>2021-05-24T07:13:13Z</time>
      </trkpt>
      <trkpt lat="42.8451150" lon="-8.5813760">
        <ele>249.0</ele>
        <time>2021-05-24T07:13:14Z</time>
      </trkpt>
      <trkpt lat="42.8451290" lon="-8.5813860">
        <ele>249.0</ele>
        <time>2021-05-24T07:13:15Z</time>
      </trkpt>
      <trkpt lat="42.8451270" lon="-8.5813900">
        <ele>249.0</ele>
        <time>2021-05-24T07:13:16Z</time>
      </trkpt>
      <trkpt lat="42.8451210" lon="-8.5813970">
        <ele>249.0</ele>
        <time>2021-05-24T07:13:17Z</time>
      </trkpt>
      <trkpt lat="42.8451210" lon="-8.5813990">
        <ele>249.0</ele>
        <time>2021-05-24T07:13:18Z</time>
      </trkpt>
      <trkpt lat="42.8451220" lon="-8.5813990">
        <ele>249.0</ele>
        <time>2021-05-24T07:13:19Z</time>
      </trkpt>
      <trkpt lat="42.8451260" lon="-8.5813920">
        <ele>249.0</ele>
        <time>2021-05-24T07:13:20Z</time>
      </trkpt>
      <trkpt lat="42.8451310" lon="-8.5813910">
        <ele>249.0</ele>
        <time>2021-05-24T07:13:21Z</time>
      </trkpt>
      <trkpt lat="42.8451380" lon="-8.5813820">
        <ele>249.0</ele>
        <time>2021-05-24T07:13:22Z</time>
      </trkpt>
      <trkpt lat="42.8451460" lon="-8.5813860">
        <ele>249.0</ele>
        <time>2021-05-24T07:13:23Z</time>
      </trkpt>
      <trkpt lat="42.8451590" lon="-8.5813820">
        <ele>249.0</ele>
        <time>2021-05-24T07:13:24Z</time>
      </trkpt>
      <trkpt lat="42.8451790" lon="-8.5813800">
        <ele>249.0</ele>
        <time>2021-05-24T07:13:25Z</time>
      </trkpt>
      <trkpt lat="42.8451860" lon="-8.5813790">
        <ele>249.0</ele>
        <time>2021-05-24T07:13:26Z</time>
      </trkpt>
      <trkpt lat="42.8451980" lon="-8.5813660">
        <ele>249.0</ele>
        <time>2021-05-24T07:13:27Z</time>
      </trkpt>
      <trkpt lat="42.8451990" lon="-8.5813540">
        <ele>249.0</ele>
        <time>2021-05-24T07:13:28Z</time>
      </trkpt>
      <trkpt lat="42.8451430" lon="-8.5813330">
        <ele>249.0</ele>
        <time>2021-05-24T07:13:29Z</time>
      </trkpt>
      <trkpt lat="42.8451130" lon="-8.5813220">
        <ele>249.1</ele>
        <time>2021-05-24T07:13:30Z</time>
      </trkpt>
      <trkpt lat="42.8450830" lon="-8.5813140">
        <ele>249.1</ele>
        <time>2021-05-24T07:13:31Z</time>
      </trkpt>
      <trkpt lat="42.8450750" lon="-8.5813120">
        <ele>249.1</ele>
        <time>2021-05-24T07:13:32Z</time>
      </trkpt>
      <trkpt lat="42.8450660" lon="-8.5813060">
        <ele>249.1</ele>
        <time>2021-05-24T07:13:33Z</time>
      </trkpt>
      <trkpt lat="42.8450670" lon="-8.5812740">
        <ele>249.1</ele>
        <time>2021-05-24T07:13:34Z</time>
      </trkpt>
      <trkpt lat="42.8450600" lon="-8.5812710">
        <ele>249.1</ele>
        <time>2021-05-24T07:13:35Z</time>
      </trkpt>
      <trkpt lat="42.8450530" lon="-8.5812720">
        <ele>249.1</ele>
        <time>2021-05-24T07:13:36Z</time>
      </trkpt>
      <trkpt lat="42.8450450" lon="-8.5812710">
        <ele>249.1</ele>
        <time>2021-05-24T07:13:37Z</time>
      </trkpt>
      <trkpt lat="42.8450420" lon="-8.5812680">
        <ele>249.1</ele>
        <time>2021-05-24T07:13:38Z</time>
      </trkpt>
      <trkpt lat="42.8450410" lon="-8.5812660">
        <ele>249.1</ele>
        <time>2021-05-24T07:13:39Z</time>
      </trkpt>
      <trkpt lat="42.8450370" lon="-8.5812620">
        <ele>249.1</ele>
        <time>2021-05-24T07:13:40Z</time>
      </trkpt>
      <trkpt lat="42.8450360" lon="-8.5812620">
        <ele>249.1</ele>
        <time>2021-05-24T07:13:41Z</time>
      </trkpt>
      <trkpt lat="42.8450360" lon="-8.5812620">
        <ele>249.1</ele>
        <time>2021-05-24T07:13:42Z</time>
      </trkpt>
      <trkpt lat="42.8450350" lon="-8.5812620">
        <ele>249.1</ele>
        <time>2021-05-24T07:13:43Z</time>
      </trkpt>
      <trkpt lat="42.8450350" lon="-8.5812620">
        <ele>249.1</ele>
        <time>2021-05-24T07:13:44Z</time>
      </trkpt>
      <trkpt lat="42.8450340" lon="-8.5812620">
        <ele>249.1</ele>
        <time>2021-05-24T07:13:45Z</time>
      </trkpt>
      <trkpt lat="42.8450340" lon="-8.5812620">
        <ele>249.1</ele>
        <time>2021-05-24T07:13:46Z</time>
      </trkpt>
      <trkpt lat="42.8450330" lon="-8.5812620">
        <ele>249.1</ele>
        <time>2021-05-24T07:13:47Z</time>
      </trkpt>
      <trkpt lat="42.8450330" lon="-8.5812620">
        <ele>249.1</ele>
        <time>2021-05-24T07:13:48Z</time>
      </trkpt>
      <trkpt lat="42.8450320" lon="-8.5812630">
        <ele>249.1</ele>
        <time>2021-05-24T07:13:49Z</time>
      </trkpt>
      <trkpt lat="42.8450320" lon="-8.5812630">
        <ele>249.1</ele>
        <time>2021-05-24T07:13:50Z</time>
      </trkpt>
      <trkpt lat="42.8450310" lon="-8.5812630">
        <ele>249.1</ele>
        <time>2021-05-24T07:13:51Z</time>
      </trkpt>
      <trkpt lat="42.8450310" lon="-8.5812630">
        <ele>249.1</ele>
        <time>2021-05-24T07:13:52Z</time>
      </trkpt>
      <trkpt lat="42.8450300" lon="-8.5812630">
        <ele>249.1</ele>
        <time>2021-05-24T07:13:53Z</time>
      </trkpt>
      <trkpt lat="42.8450300" lon="-8.5812630">
        <ele>249.1</ele>
        <time>2021-05-24T07:13:54Z</time>
      </trkpt>
      <trkpt lat="42.8450290" lon="-8.5812630">
        <ele>249.1</ele>
        <time>2021-05-24T07:13:55Z</time>
      </trkpt>
      <trkpt lat="42.8450290" lon="-8.5812630">
        <ele>249.1</ele>
        <time>2021-05-24T07:13:56Z</time>
      </trkpt>
      <trkpt lat="42.8450280" lon="-8.5812630">
        <ele>249.1</ele>
        <time>2021-05-24T07:13:57Z</time>
      </trkpt>
      <trkpt lat="42.8450280" lon="-8.5812630">
        <ele>249.1</ele>
        <time>2021-05-24T07:13:58Z</time>
      </trkpt>
      <trkpt lat="42.8450280" lon="-8.5812630">
        <ele>249.1</ele>
        <time>2021-05-24T07:13:59Z</time>
      </trkpt>
      <trkpt lat="42.8450270" lon="-8.5812630">
        <ele>249.1</ele>
        <time>2021-05-24T07:14:00Z</time>
      </trkpt>
      <trkpt lat="42.8450270" lon="-8.5812630">
        <ele>249.1</ele>
        <time>2021-05-24T07:14:01Z</time>
      </trkpt>
      <trkpt lat="42.8450260" lon="-8.5812630">
        <ele>249.1</ele>
        <time>2021-05-24T07:14:02Z</time>
      </trkpt>
      <trkpt lat="42.8450260" lon="-8.5812630">
        <ele>249.1</ele>
        <time>2021-05-24T07:14:03Z</time>
      </trkpt>
      <trkpt lat="42.8450250" lon="-8.5812630">
        <ele>249.1</ele>
        <time>2021-05-24T07:14:04Z</time>
      </trkpt>
      <trkpt lat="42.8450250" lon="-8.5812630">
        <ele>249.1</ele>
        <time>2021-05-24T07:14:05Z</time>
      </trkpt>
      <trkpt lat="42.8450240" lon="-8.5812630">
        <ele>249.1</ele>
        <time>2021-05-24T07:14:06Z</time>
      </trkpt>
      <trkpt lat="42.8450240" lon="-8.5812630">
        <ele>249.1</ele>
        <time>2021-05-24T07:14:07Z</time>
      </trkpt>
      <trkpt lat="42.8450230" lon="-8.5812630">
        <ele>249.1</ele>
        <time>2021-05-24T07:14:08Z</time>
      </trkpt>
      <trkpt lat="42.8450230" lon="-8.5812640">
        <ele>249.1</ele>
        <time>2021-05-24T07:14:09Z</time>
      </trkpt>
      <trkpt lat="42.8450220" lon="-8.5812640">
        <ele>249.1</ele>
        <time>2021-05-24T07:14:10Z</time>
      </trkpt>
      <trkpt lat="42.8450220" lon="-8.5812640">
        <ele>249.1</ele>
        <time>2021-05-24T07:14:11Z</time>
      </trkpt>
      <trkpt lat="42.8450210" lon="-8.5812640">
        <ele>249.1</ele>
        <time>2021-05-24T07:14:12Z</time>
      </trkpt>
      <trkpt lat="42.8450210" lon="-8.5812640">
        <ele>249.1</ele>
        <time>2021-05-24T07:14:13Z</time>
      </trkpt>
      <trkpt lat="42.8450200" lon="-8.5812640">
        <ele>249.1</ele>
        <time>2021-05-24T07:14:14Z</time>
      </trkpt>
      <trkpt lat="42.8450200" lon="-8.5812640">
        <ele>249.1</ele>
        <time>2021-05-24T07:14:15Z</time>
      </trkpt>
      <trkpt lat="42.8450190" lon="-8.5812640">
        <ele>249.1</ele>
        <time>2021-05-24T07:14:16Z</time>
      </trkpt>
      <trkpt lat="42.8450190" lon="-8.5812640">
        <ele>249.1</ele>
        <time>2021-05-24T07:14:17Z</time>
      </trkpt>
      <trkpt lat="42.8450190" lon="-8.5812640">
        <ele>249.1</ele>
        <time>2021-05-24T07:14:18Z</time>
      </trkpt>
      <trkpt lat="42.8450180" lon="-8.5812640">
        <ele>249.1</ele>
        <time>2021-05-24T07:14:19Z</time>
      </trkpt>
      <trkpt lat="42.8450180" lon="-8.5812640">
        <ele>249.1</ele>
        <time>2021-05-24T07:14:20Z</time>
      </trkpt>
      <trkpt lat="42.8450170" lon="-8.5812640">
        <ele>249.1</ele>
        <time>2021-05-24T07:14:21Z</time>
      </trkpt>
      <trkpt lat="42.8450170" lon="-8.5812640">
        <ele>249.1</ele>
        <time>2021-05-24T07:14:22Z</time>
      </trkpt>
      <trkpt lat="42.8450160" lon="-8.5812640">
        <ele>249.1</ele>
        <time>2021-05-24T07:14:23Z</time>
      </trkpt>
      <trkpt lat="42.8450160" lon="-8.5812640">
        <ele>249.1</ele>
        <time>2021-05-24T07:14:24Z</time>
      </trkpt>
      <trkpt lat="42.8450150" lon="-8.5812640">
        <ele>249.1</ele>
        <time>2021-05-24T07:14:25Z</time>
      </trkpt>
      <trkpt lat="42.8450150" lon="-8.5812640">
        <ele>249.1</ele>
        <time>2021-05-24T07:14:26Z</time>
      </trkpt>
      <trkpt lat="42.8450140" lon="-8.5812640">
        <ele>249.1</ele>
        <time>2021-05-24T07:14:27Z</time>
      </trkpt>
      <trkpt lat="42.8450140" lon="-8.5812650">
        <ele>249.1</ele>
        <time>2021-05-24T07:14:28Z</time>
      </trkpt>
      <trkpt lat="42.8450130" lon="-8.5812650">
        <ele>249.1</ele>
        <time>2021-05-24T07:14:29Z</time>
      </trkpt>
      <trkpt lat="42.8450130" lon="-8.5812650">
        <ele>249.1</ele>
        <time>2021-05-24T07:14:30Z</time>
      </trkpt>
      <trkpt lat="42.8450120" lon="-8.5812650">
        <ele>249.1</ele>
        <time>2021-05-24T07:14:31Z</time>
      </trkpt>
      <trkpt lat="42.8450120" lon="-8.5812650">
        <ele>249.1</ele>
        <time>2021-05-24T07:14:32Z</time>
      </trkpt>
      <trkpt lat="42.8450110" lon="-8.5812650">
        <ele>249.1</ele>
        <time>2021-05-24T07:14:33Z</time>
      </trkpt>
      <trkpt lat="42.8450110" lon="-8.5812650">
        <ele>249.1</ele>
        <time>2021-05-24T07:14:34Z</time>
      </trkpt>
      <trkpt lat="42.8450100" lon="-8.5812650">
        <ele>249.1</ele>
        <time>2021-05-24T07:14:35Z</time>
      </trkpt>
      <trkpt lat="42.8450100" lon="-8.5812650">
        <ele>249.1</ele>
        <time>2021-05-24T07:14:36Z</time>
      </trkpt>
      <trkpt lat="42.8450090" lon="-8.5812650">
        <ele>249.1</ele>
        <time>2021-05-24T07:14:37Z</time>
      </trkpt>
      <trkpt lat="42.8450090" lon="-8.5812650">
        <ele>249.1</ele>
        <time>2021-05-24T07:14:38Z</time>
      </trkpt>
      <trkpt lat="42.8450090" lon="-8.5812650">
        <ele>249.1</ele>
        <time>2021-05-24T07:14:39Z</time>
      </trkpt>
      <trkpt lat="42.8450080" lon="-8.5812650">
        <ele>249.1</ele>
        <time>2021-05-24T07:14:40Z</time>
      </trkpt>
      <trkpt lat="42.8450080" lon="-8.5812650">
        <ele>249.1</ele>
        <time>2021-05-24T07:14:41Z</time>
      </trkpt>
      <trkpt lat="42.8450070" lon="-8.5812650">
        <ele>249.1</ele>
        <time>2021-05-24T07:14:42Z</time>
      </trkpt>
      <trkpt lat="42.8450070" lon="-8.5812650">
        <ele>249.1</ele>
        <time>2021-05-24T07:14:43Z</time>
      </trkpt>
      <trkpt lat="42.8450060" lon="-8.5812650">
        <ele>249.1</ele>
        <time>2021-05-24T07:14:44Z</time>
      </trkpt>
      <trkpt lat="42.8450060" lon="-8.5812650">
        <ele>249.1</ele>
        <time>2021-05-24T07:14:45Z</time>
      </trkpt>
      <trkpt lat="42.8450050" lon="-8.5812650">
        <ele>249.1</ele>
        <time>2021-05-24T07:14:46Z</time>
      </trkpt>
      <trkpt lat="42.8450050" lon="-8.5812660">
        <ele>249.1</ele>
        <time>2021-05-24T07:14:47Z</time>
      </trkpt>
      <trkpt lat="42.8450040" lon="-8.5812660">
        <ele>249.1</ele>
        <time>2021-05-24T07:14:48Z</time>
      </trkpt>
      <trkpt lat="42.8450040" lon="-8.5812660">
        <ele>249.1</ele>
        <time>2021-05-24T07:14:49Z</time>
      </trkpt>
      <trkpt lat="42.8450030" lon="-8.5812660">
        <ele>249.1</ele>
        <time>2021-05-24T07:14:50Z</time>
      </trkpt>
      <trkpt lat="42.8450030" lon="-8.5812660">
        <ele>249.1</ele>
        <time>2021-05-24T07:14:51Z</time>
      </trkpt>
      <trkpt lat="42.8450020" lon="-8.5812660">
        <ele>249.1</ele>
        <time>2021-05-24T07:14:52Z</time>
      </trkpt>
      <trkpt lat="42.8450020" lon="-8.5812660">
        <ele>249.1</ele>
        <time>2021-05-24T07:14:53Z</time>
      </trkpt>
      <trkpt lat="42.8450010" lon="-8.5812660">
        <ele>249.1</ele>
        <time>2021-05-24T07:14:54Z</time>
      </trkpt>
      <trkpt lat="42.8450010" lon="-8.5812660">
        <ele>249.1</ele>
        <time>2021-05-24T07:14:55Z</time>
      </trkpt>
      <trkpt lat="42.8450000" lon="-8.5812660">
        <ele>249.1</ele>
        <time>2021-05-24T07:14:56Z</time>
      </trkpt>
      <trkpt lat="42.8450000" lon="-8.5812660">
        <ele>249.1</ele>
        <time>2021-05-24T07:14:57Z</time>
      </trkpt>
      <trkpt lat="42.8450000" lon="-8.5812660">
        <ele>249.1</ele>
        <time>2021-05-24T07:14:58Z</time>
      </trkpt>
      <trkpt lat="42.8449990" lon="-8.5812660">
        <ele>249.1</ele>
        <time>2021-05-24T07:14:59Z</time>
      </trkpt>
      <trkpt lat="42.8449990" lon="-8.5812660">
        <ele>249.1</ele>
        <time>2021-05-24T07:15:00Z</time>
      </trkpt>
      <trkpt lat="42.8449980" lon="-8.5812660">
        <ele>249.1</ele>
        <time>2021-05-24T07:15:01Z</time>
      </trkpt>
      <trkpt lat="42.8449980" lon="-8.5812660">
        <ele>249.1</ele>
        <time>2021-05-24T07:15:02Z</time>
      </trkpt>
      <trkpt lat="42.8449970" lon="-8.5812660">
        <ele>249.1</ele>
        <time>2021-05-24T07:15:03Z</time>
      </trkpt>
      <trkpt lat="42.8449970" lon="-8.5812660">
        <ele>249.1</ele>
        <time>2021-05-24T07:15:04Z</time>
      </trkpt>
      <trkpt lat="42.8449960" lon="-8.5812660">
        <ele>249.1</ele>
        <time>2021-05-24T07:15:05Z</time>
      </trkpt>
      <trkpt lat="42.8449960" lon="-8.5812660">
        <ele>249.1</ele>
        <time>2021-05-24T07:15:06Z</time>
      </trkpt>
      <trkpt lat="42.8449950" lon="-8.5812670">
        <ele>249.1</ele>
        <time>2021-05-24T07:15:07Z</time>
      </trkpt>
      <trkpt lat="42.8449950" lon="-8.5812670">
        <ele>249.1</ele>
        <time>2021-05-24T07:15:08Z</time>
      </trkpt>
      <trkpt lat="42.8449940" lon="-8.5812670">
        <ele>249.1</ele>
        <time>2021-05-24T07:15:09Z</time>
      </trkpt>
      <trkpt lat="42.8449940" lon="-8.5812670">
        <ele>249.1</ele>
        <time>2021-05-24T07:15:10Z</time>
      </trkpt>
      <trkpt lat="42.8449930" lon="-8.5812670">
        <ele>249.1</ele>
        <time>2021-05-24T07:15:11Z</time>
      </trkpt>
      <trkpt lat="42.8449930" lon="-8.5812670">
        <ele>249.1</ele>
        <time>2021-05-24T07:15:12Z</time>
      </trkpt>
      <trkpt lat="42.8449920" lon="-8.5812670">
        <ele>249.1</ele>
        <time>2021-05-24T07:15:13Z</time>
      </trkpt>
      <trkpt lat="42.8449920" lon="-8.5812670">
        <ele>249.1</ele>
        <time>2021-05-24T07:15:14Z</time>
      </trkpt>
      <trkpt lat="42.8449910" lon="-8.5812670">
        <ele>249.1</ele>
        <time>2021-05-24T07:15:15Z</time>
      </trkpt>
      <trkpt lat="42.8449910" lon="-8.5812670">
        <ele>249.1</ele>
        <time>2021-05-24T07:15:16Z</time>
      </trkpt>
      <trkpt lat="42.8449950" lon="-8.5812650">
        <ele>249.1</ele>
        <time>2021-05-24T07:15:17Z</time>
      </trkpt>
      <trkpt lat="42.8449910" lon="-8.5812660">
        <ele>249.1</ele>
        <time>2021-05-24T07:15:18Z</time>
      </trkpt>
      <trkpt lat="42.8449870" lon="-8.5812700">
        <ele>249.1</ele>
        <time>2021-05-24T07:15:19Z</time>
      </trkpt>
      <trkpt lat="42.8449770" lon="-8.5812740">
        <ele>249.1</ele>
        <time>2021-05-24T07:15:20Z</time>
      </trkpt>
      <trkpt lat="42.8449750" lon="-8.5812730">
        <ele>249.1</ele>
        <time>2021-05-24T07:15:21Z</time>
      </trkpt>
      <trkpt lat="42.8449780" lon="-8.5812730">
        <ele>249.1</ele>
        <time>2021-05-24T07:15:22Z</time>
      </trkpt>
      <trkpt lat="42.8449740" lon="-8.5812780">
        <ele>249.1</ele>
        <time>2021-05-24T07:15:23Z</time>
      </trkpt>
      <trkpt lat="42.8449780" lon="-8.5812740">
        <ele>249.1</ele>
        <time>2021-05-24T07:15:24Z</time>
      </trkpt>
      <trkpt lat="42.8450220" lon="-8.5812770">
        <ele>249.1</ele>
        <time>2021-05-24T07:15:25Z</time>
      </trkpt>
      <trkpt lat="42.8450320" lon="-8.5812750">
        <ele>249.1</ele>
        <time>2021-05-24T07:15:26Z</time>
      </trkpt>
      <trkpt lat="42.8450320" lon="-8.5812750">
        <ele>249.1</ele>
        <time>2021-05-24T07:15:27Z</time>
      </trkpt>
      <trkpt lat="42.8450280" lon="-8.5812760">
        <ele>249.1</ele>
        <time>2021-05-24T07:15:28Z</time>
      </trkpt>
      <trkpt lat="42.8450240" lon="-8.5812780">
        <ele>249.1</ele>
        <time>2021-05-24T07:15:29Z</time>
      </trkpt>
      <trkpt lat="42.8450300" lon="-8.5812800">
        <ele>249.1</ele>
        <time>2021-05-24T07:15:30Z</time>
      </trkpt>
      <trkpt lat="42.8450370" lon="-8.5812810">
        <ele>249.1</ele>
        <time>2021-05-24T07:15:31Z</time>
      </trkpt>
      <trkpt lat="42.8450360" lon="-8.5812810">
        <ele>249.1</ele>
        <time>2021-05-24T07:15:32Z</time>
      </trkpt>
      <trkpt lat="42.8450360" lon="-8.5812860">
        <ele>249.1</ele>
        <time>2021-05-24T07:15:33Z</time>
      </trkpt>
      <trkpt lat="42.8450340" lon="-8.5812870">
        <ele>249.1</ele>
        <time>2021-05-24T07:15:34Z</time>
      </trkpt>
      <trkpt lat="42.8450340" lon="-8.5812890">
        <ele>249.1</ele>
        <time>2021-05-24T07:15:35Z</time>
      </trkpt>
      <trkpt lat="42.8450390" lon="-8.5812850">
        <ele>249.1</ele>
        <time>2021-05-24T07:15:36Z</time>
      </trkpt>
      <trkpt lat="42.8450510" lon="-8.5812860">
        <ele>249.1</ele>
        <time>2021-05-24T07:15:37Z</time>
      </trkpt>
      <trkpt lat="42.8450820" lon="-8.5812980">
        <ele>249.1</ele>
        <time>2021-05-24T07:15:38Z</time>
      </trkpt>
      <trkpt lat="42.8450790" lon="-8.5812940">
        <ele>249.1</ele>
        <time>2021-05-24T07:15:39Z</time>
      </trkpt>
      <trkpt lat="42.8450770" lon="-8.5812920">
        <ele>249.1</ele>
        <time>2021-05-24T07:15:40Z</time>
      </trkpt>
      <trkpt lat="42.8450730" lon="-8.5812910">
        <ele>249.1</ele>
        <time>2021-05-24T07:15:41Z</time>
      </trkpt>
      <trkpt lat="42.8450650" lon="-8.5812900">
        <ele>249.1</ele>
        <time>2021-05-24T07:15:42Z</time>
      </trkpt>
      <trkpt lat="42.8450530" lon="-8.5812920">
        <ele>249.1</ele>
        <time>2021-05-24T07:15:43Z</time>
      </trkpt>
      <trkpt lat="42.8450560" lon="-8.5812900">
        <ele>249.1</ele>
        <time>2021-05-24T07:15:44Z</time>
      </trkpt>
      <trkpt lat="42.8450590" lon="-8.5812880">
        <ele>249.1</ele>
        <time>2021-05-24T07:15:45Z</time>
      </trkpt>
      <trkpt lat="42.8450660" lon="-8.5812880">
        <ele>249.1</ele>
        <time>2021-05-24T07:15:46Z</time>
      </trkpt>
      <trkpt lat="42.8450640" lon="-8.5812850">
        <ele>249.1</ele>
        <time>2021-05-24T07:15:47Z</time>
      </trkpt>
      <trkpt lat="42.8450640" lon="-8.5812860">
        <ele>249.1</ele>
        <time>2021-05-24T07:15:48Z</time>
      </trkpt>
      <trkpt lat="42.8450610" lon="-8.5812900">
        <ele>249.1</ele>
        <time>2021-05-24T07:15:49Z</time>
      </trkpt>
      <trkpt lat="42.8450650" lon="-8.5812860">
        <ele>249.1</ele>
        <time>2021-05-24T07:15:50Z</time>
      </trkpt>
      <trkpt lat="42.8450650" lon="-8.5812860">
        <ele>249.1</ele>
        <time>2021-05-24T07:15:51Z</time>
      </trkpt>
      <trkpt lat="42.8450630" lon="-8.5812900">
        <ele>249.1</ele>
        <time>2021-05-24T07:15:52Z</time>
      </trkpt>
      <trkpt lat="42.8450600" lon="-8.5812940">
        <ele>249.1</ele>
        <time>2021-05-24T07:15:53Z</time>
      </trkpt>
      <trkpt lat="42.8450560" lon="-8.5813020">
        <ele>249.1</ele>
        <time>2021-05-24T07:15:54Z</time>
      </trkpt>
      <trkpt lat="42.8450480" lon="-8.5812980">
        <ele>249.1</ele>
        <time>2021-05-24T07:15:55Z</time>
      </trkpt>
      <trkpt lat="42.8450500" lon="-8.5812960">
        <ele>249.1</ele>
        <time>2021-05-24T07:15:56Z</time>
      </trkpt>
      <trkpt lat="42.8450460" lon="-8.5812980">
        <ele>249.1</ele>
        <time>2021-05-24T07:15:57Z</time>
      </trkpt>
      <trkpt lat="42.8450400" lon="-8.5812980">
        <ele>249.1</ele>
        <time>2021-05-24T07:15:58Z</time>
      </trkpt>
      <trkpt lat="42.8450310" lon="-8.5812960">
        <ele>249.1</ele>
        <time>2021-05-24T07:15:59Z</time>
      </trkpt>
      <trkpt lat="42.8450220" lon="-8.5813010">
        <ele>249.1</ele>
        <time>2021-05-24T07:16:00Z</time>
      </trkpt>
      <trkpt lat="42.8450180" lon="-8.5813060">
        <ele>249.1</ele>
        <time>2021-05-24T07:16:01Z</time>
      </trkpt>
      <trkpt lat="42.8449900" lon="-8.5813120">
        <ele>249.1</ele>
        <time>2021-05-24T07:16:02Z</time>
      </trkpt>
      <trkpt lat="42.8449860" lon="-8.5813140">
        <ele>249.1</ele>
        <time>2021-05-24T07:16:03Z</time>
      </trkpt>
      <trkpt lat="42.8449840" lon="-8.5813140">
        <ele>249.1</ele>
        <time>2021-05-24T07:16:04Z</time>
      </trkpt>
      <trkpt lat="42.8449810" lon="-8.5813140">
        <ele>249.1</ele>
        <time>2021-05-24T07:16:05Z</time>
      </trkpt>
      <trkpt lat="42.8449780" lon="-8.5813140">
        <ele>249.1</ele>
        <time>2021-05-24T07:16:06Z</time>
      </trkpt>
      <trkpt lat="42.8449750" lon="-8.5813140">
        <ele>249.1</ele>
        <time>2021-05-24T07:16:07Z</time>
      </trkpt>
      <trkpt lat="42.8449730" lon="-8.5813140">
        <ele>249.1</ele>
        <time>2021-05-24T07:16:08Z</time>
      </trkpt>
      <trkpt lat="42.8449700" lon="-8.5813140">
        <ele>249.1</ele>
        <time>2021-05-24T07:16:09Z</time>
      </trkpt>
      <trkpt lat="42.8449670" lon="-8.5813130">
        <ele>249.1</ele>
        <time>2021-05-24T07:16:10Z</time>
      </trkpt>
      <trkpt lat="42.8449640" lon="-8.5813130">
        <ele>249.1</ele>
        <time>2021-05-24T07:16:11Z</time>
      </trkpt>
      <trkpt lat="42.8449620" lon="-8.5813130">
        <ele>249.1</ele>
        <time>2021-05-24T07:16:12Z</time>
      </trkpt>
      <trkpt lat="42.8449590" lon="-8.5813130">
        <ele>249.1</ele>
        <time>2021-05-24T07:16:13Z</time>
      </trkpt>
      <trkpt lat="42.8449560" lon="-8.5813130">
        <ele>249.1</ele>
        <time>2021-05-24T07:16:14Z</time>
      </trkpt>
      <trkpt lat="42.8449530" lon="-8.5813130">
        <ele>249.1</ele>
        <time>2021-05-24T07:16:15Z</time>
      </trkpt>
      <trkpt lat="42.8449510" lon="-8.5813130">
        <ele>249.1</ele>
        <time>2021-05-24T07:16:16Z</time>
      </trkpt>
      <trkpt lat="42.8449480" lon="-8.5813130">
        <ele>249.1</ele>
        <time>2021-05-24T07:16:17Z</time>
      </trkpt>
      <trkpt lat="42.8449430" lon="-8.5813130">
        <ele>249.1</ele>
        <time>2021-05-24T07:16:18Z</time>
      </trkpt>
      <trkpt lat="42.8449340" lon="-8.5813150">
        <ele>249.1</ele>
        <time>2021-05-24T07:16:19Z</time>
      </trkpt>
      <trkpt lat="42.8449280" lon="-8.5813140">
        <ele>249.1</ele>
        <time>2021-05-24T07:16:20Z</time>
      </trkpt>
      <trkpt lat="42.8449260" lon="-8.5813080">
        <ele>249.1</ele>
        <time>2021-05-24T07:16:21Z</time>
      </trkpt>
      <trkpt lat="42.8449190" lon="-8.5813120">
        <ele>249.1</ele>
        <time>2021-05-24T07:16:22Z</time>
      </trkpt>
      <trkpt lat="42.8449250" lon="-8.5813180">
        <ele>249.1</ele>
        <time>2021-05-24T07:16:23Z</time>
      </trkpt>
      <trkpt lat="42.8449310" lon="-8.5813250">
        <ele>249.1</ele>
        <time>2021-05-24T07:16:24Z</time>
      </trkpt>
      <trkpt lat="42.8449440" lon="-8.5813280">
        <ele>249.1</ele>
        <time>2021-05-24T07:16:25Z</time>
      </trkpt>
      <trkpt lat="42.8449530" lon="-8.5813400">
        <ele>249.1</ele>
        <time>2021-05-24T07:16:26Z</time>
      </trkpt>
      <trkpt lat="42.8449620" lon="-8.5813390">
        <ele>249.1</ele>
        <time>2021-05-24T07:16:27Z</time>
      </trkpt>
      <trkpt lat="42.8449740" lon="-8.5813460">
        <ele>249.1</ele>
        <time>2021-05-24T07:16:28Z</time>
      </trkpt>
      <trkpt lat="42.8450020" lon="-8.5813450">
        <ele>249.1</ele>
        <time>2021-05-24T07:16:29Z</time>
      </trkpt>
      <trkpt lat="42.8450230" lon="-8.5813470">
        <ele>249.1</ele>
        <time>2021-05-24T07:16:30Z</time>
      </trkpt>
      <trkpt lat="42.8450110" lon="-8.5813470">
        <ele>249.1</ele>
        <time>2021-05-24T07:16:31Z</time>
      </trkpt>
      <trkpt lat="42.8450230" lon="-8.5813510">
        <ele>249.1</ele>
        <time>2021-05-24T07:16:32Z</time>
      </trkpt>
      <trkpt lat="42.8449970" lon="-8.5813590">
        <ele>249.1</ele>
        <time>2021-05-24T07:16:33Z</time>
      </trkpt>
      <trkpt lat="42.8449650" lon="-8.5813630">
        <ele>249.1</ele>
        <time>2021-05-24T07:16:34Z</time>
      </trkpt>
      <trkpt lat="42.8449500" lon="-8.5813710">
        <ele>249.1</ele>
        <time>2021-05-24T07:16:35Z</time>
      </trkpt>
      <trkpt lat="42.8449590" lon="-8.5813910">
        <ele>249.1</ele>
        <time>2021-05-24T07:16:36Z</time>
      </trkpt>
      <trkpt lat="42.8449690" lon="-8.5814060">
        <ele>249.1</ele>
        <time>2021-05-24T07:16:37Z</time>
      </trkpt>
      <trkpt lat="42.8449770" lon="-8.5814170">
        <ele>249.1</ele>
        <time>2021-05-24T07:16:38Z</time>
      </trkpt>
      <trkpt lat="42.8449810" lon="-8.5814160">
        <ele>249.1</ele>
        <time>2021-05-24T07:16:39Z</time>
      </trkpt>
      <trkpt lat="42.8449860" lon="-8.5814140">
        <ele>249.1</ele>
        <time>2021-05-24T07:16:40Z</time>
      </trkpt>
      <trkpt lat="42.8449900" lon="-8.5814130">
        <ele>249.1</ele>
        <time>2021-05-24T07:16:41Z</time>
      </trkpt>
      <trkpt lat="42.8449950" lon="-8.5814120">
        <ele>249.1</ele>
        <time>2021-05-24T07:16:42Z</time>
      </trkpt>
      <trkpt lat="42.8449990" lon="-8.5814110">
        <ele>249.1</ele>
        <time>2021-05-24T07:16:43Z</time>
      </trkpt>
      <trkpt lat="42.8450040" lon="-8.5814090">
        <ele>249.1</ele>
        <time>2021-05-24T07:16:44Z</time>
      </trkpt>
      <trkpt lat="42.8450080" lon="-8.5814080">
        <ele>249.1</ele>
        <time>2021-05-24T07:16:45Z</time>
      </trkpt>
      <trkpt lat="42.8450420" lon="-8.5814000">
        <ele>249.1</ele>
        <time>2021-05-24T07:16:46Z</time>
      </trkpt>
      <trkpt lat="42.8450530" lon="-8.5813920">
        <ele>249.1</ele>
        <time>2021-05-24T07:16:47Z</time>
      </trkpt>
      <trkpt lat="42.8450190" lon="-8.5813700">
        <ele>249.1</ele>
        <time>2021-05-24T07:16:48Z</time>
      </trkpt>
      <trkpt lat="42.8450010" lon="-8.5813570">
        <ele>249.1</ele>
        <time>2021-05-24T07:16:49Z</time>
      </trkpt>
      <trkpt lat="42.8449910" lon="-8.5813500">
        <ele>249.1</ele>
        <time>2021-05-24T07:16:50Z</time>
      </trkpt>
      <trkpt lat="42.8449800" lon="-8.5813430">
        <ele>249.1</ele>
        <time>2021-05-24T07:16:51Z</time>
      </trkpt>
      <trkpt lat="42.8449780" lon="-8.5813410">
        <ele>249.1</ele>
        <time>2021-05-24T07:16:52Z</time>
      </trkpt>
      <trkpt lat="42.8449800" lon="-8.5813420">
        <ele>249.1</ele>
        <time>2021-05-24T07:16:53Z</time>
      </trkpt>
      <trkpt lat="42.8449820" lon="-8.5813430">
        <ele>249.1</ele>
        <time>2021-05-24T07:16:54Z</time>
      </trkpt>
      <trkpt lat="42.8449840" lon="-8.5813440">
        <ele>249.1</ele>
        <time>2021-05-24T07:16:55Z</time>
      </trkpt>
      <trkpt lat="42.8449860" lon="-8.5813450">
        <ele>249.1</ele>
        <time>2021-05-24T07:16:56Z</time>
      </trkpt>
      <trkpt lat="42.8449870" lon="-8.5813460">
        <ele>249.1</ele>
        <time>2021-05-24T07:16:57Z</time>
      </trkpt>
      <trkpt lat="42.8449890" lon="-8.5813470">
        <ele>249.1</ele>
        <time>2021-05-24T07:16:58Z</time>
      </trkpt>
      <trkpt lat="42.8449910" lon="-8.5813480">
        <ele>249.1</ele>
        <time>2021-05-24T07:16:59Z</time>
      </trkpt>
      <trkpt lat="42.8449930" lon="-8.5813500">
        <ele>249.1</ele>
        <time>2021-05-24T07:17:00Z</time>
      </trkpt>
      <trkpt lat="42.8449950" lon="-8.5813510">
        <ele>249.1</ele>
        <time>2021-05-24T07:17:01Z</time>
      </trkpt>
      <trkpt lat="42.8449970" lon="-8.5813520">
        <ele>249.1</ele>
        <time>2021-05-24T07:17:02Z</time>
      </trkpt>
      <trkpt lat="42.8449990" lon="-8.5813530">
        <ele>249.1</ele>
        <time>2021-05-24T07:17:03Z</time>
      </trkpt>
      <trkpt lat="42.8450010" lon="-8.5813540">
        <ele>249.1</ele>
        <time>2021-05-24T07:17:04Z</time>
      </trkpt>
      <trkpt lat="42.8450030" lon="-8.5813550">
        <ele>249.1</ele>
        <time>2021-05-24T07:17:05Z</time>
      </trkpt>
      <trkpt lat="42.8450050" lon="-8.5813560">
        <ele>249.1</ele>
        <time>2021-05-24T07:17:06Z</time>
      </trkpt>
      <trkpt lat="42.8450060" lon="-8.5813570">
        <ele>249.1</ele>
        <time>2021-05-24T07:17:07Z</time>
      </trkpt>
      <trkpt lat="42.8450080" lon="-8.5813580">
        <ele>249.1</ele>
        <time>2021-05-24T07:17:08Z</time>
      </trkpt>
      <trkpt lat="42.8450100" lon="-8.5813590">
        <ele>249.1</ele>
        <time>2021-05-24T07:17:09Z</time>
      </trkpt>
      <trkpt lat="42.8450120" lon="-8.5813600">
        <ele>249.1</ele>
        <time>2021-05-24T07:17:10Z</time>
      </trkpt>
      <trkpt lat="42.8450140" lon="-8.5813610">
        <ele>249.1</ele>
        <time>2021-05-24T07:17:11Z</time>
      </trkpt>
      <trkpt lat="42.8450160" lon="-8.5813620">
        <ele>249.1</ele>
        <time>2021-05-24T07:17:12Z</time>
      </trkpt>
      <trkpt lat="42.8450180" lon="-8.5813630">
        <ele>249.1</ele>
        <time>2021-05-24T07:17:13Z</time>
      </trkpt>
      <trkpt lat="42.8450200" lon="-8.5813640">
        <ele>249.1</ele>
        <time>2021-05-24T07:17:14Z</time>
      </trkpt>
      <trkpt lat="42.8450220" lon="-8.5813650">
        <ele>249.1</ele>
        <time>2021-05-24T07:17:15Z</time>
      </trkpt>
      <trkpt lat="42.8450240" lon="-8.5813660">
        <ele>249.1</ele>
        <time>2021-05-24T07:17:16Z</time>
      </trkpt>
      <trkpt lat="42.8450250" lon="-8.5813680">
        <ele>249.1</ele>
        <time>2021-05-24T07:17:17Z</time>
      </trkpt>
      <trkpt lat="42.8450270" lon="-8.5813690">
        <ele>249.1</ele>
        <time>2021-05-24T07:17:18Z</time>
      </trkpt>
      <trkpt lat="42.8450290" lon="-8.5813700">
        <ele>249.1</ele>
        <time>2021-05-24T07:17:19Z</time>
      </trkpt>
      <trkpt lat="42.8450310" lon="-8.5813710">
        <ele>249.2</ele>
        <time>2021-05-24T07:17:20Z</time>
      </trkpt>
      <trkpt lat="42.8450330" lon="-8.5813720">
        <ele>249.2</ele>
        <time>2021-05-24T07:17:21Z</time>
      </trkpt>
      <trkpt lat="42.8450350" lon="-8.5813730">
        <ele>249.2</ele>
        <time>2021-05-24T07:17:22Z</time>
      </trkpt>
      <trkpt lat="42.8450370" lon="-8.5813740">
        <ele>249.2</ele>
        <time>2021-05-24T07:17:23Z</time>
      </trkpt>
      <trkpt lat="42.8450390" lon="-8.5813750">
        <ele>249.2</ele>
        <time>2021-05-24T07:17:24Z</time>
      </trkpt>
      <trkpt lat="42.8450410" lon="-8.5813760">
        <ele>249.2</ele>
        <time>2021-05-24T07:17:25Z</time>
      </trkpt>
      <trkpt lat="42.8450430" lon="-8.5813770">
        <ele>249.2</ele>
        <time>2021-05-24T07:17:26Z</time>
      </trkpt>
      <trkpt lat="42.8450440" lon="-8.5813780">
        <ele>249.2</ele>
        <time>2021-05-24T07:17:27Z</time>
      </trkpt>
      <trkpt lat="42.8450460" lon="-8.5813790">
        <ele>249.2</ele>
        <time>2021-05-24T07:17:28Z</time>
      </trkpt>
      <trkpt lat="42.8450480" lon="-8.5813800">
        <ele>249.2</ele>
        <time>2021-05-24T07:17:29Z</time>
      </trkpt>
      <trkpt lat="42.8450500" lon="-8.5813810">
        <ele>249.2</ele>
        <time>2021-05-24T07:17:30Z</time>
      </trkpt>
      <trkpt lat="42.8450520" lon="-8.5813820">
        <ele>249.2</ele>
        <time>2021-05-24T07:17:31Z</time>
      </trkpt>
      <trkpt lat="42.8450540" lon="-8.5813830">
        <ele>249.2</ele>
        <time>2021-05-24T07:17:32Z</time>
      </trkpt>
      <trkpt lat="42.8450560" lon="-8.5813850">
        <ele>249.2</ele>
        <time>2021-05-24T07:17:33Z</time>
      </trkpt>
      <trkpt lat="42.8450580" lon="-8.5813860">
        <ele>249.2</ele>
        <time>2021-05-24T07:17:34Z</time>
      </trkpt>
      <trkpt lat="42.8450600" lon="-8.5813870">
        <ele>249.2</ele>
        <time>2021-05-24T07:17:35Z</time>
      </trkpt>
      <trkpt lat="42.8450620" lon="-8.5813880">
        <ele>249.2</ele>
        <time>2021-05-24T07:17:36Z</time>
      </trkpt>
      <trkpt lat="42.8450630" lon="-8.5813890">
        <ele>249.2</ele>
        <time>2021-05-24T07:17:37Z</time>
      </trkpt>
      <trkpt lat="42.8450650" lon="-8.5813900">
        <ele>249.2</ele>
        <time>2021-05-24T07:17:38Z</time>
      </trkpt>
      <trkpt lat="42.8450670" lon="-8.5813910">
        <ele>249.2</ele>
        <time>2021-05-24T07:17:39Z</time>
      </trkpt>
      <trkpt lat="42.8450690" lon="-8.5813920">
        <ele>249.2</ele>
        <time>2021-05-24T07:17:40Z</time>
      </trkpt>
      <trkpt lat="42.8450710" lon="-8.5813930">
        <ele>249.2</ele>
        <time>2021-05-24T07:17:41Z</time>
      </trkpt>
      <trkpt lat="42.8450710" lon="-8.5813960">
        <ele>249.2</ele>
        <time>2021-05-24T07:17:42Z</time>
      </trkpt>
      <trkpt lat="42.8450730" lon="-8.5813980">
        <ele>249.2</ele>
        <time>2021-05-24T07:17:43Z</time>
      </trkpt>
      <trkpt lat="42.8450760" lon="-8.5814000">
        <ele>249.2</ele>
        <time>2021-05-24T07:17:44Z</time>
      </trkpt>
      <trkpt lat="42.8450780" lon="-8.5814020">
        <ele>249.2</ele>
        <time>2021-05-24T07:17:45Z</time>
      </trkpt>
      <trkpt lat="42.8450810" lon="-8.5814030">
        <ele>249.2</ele>
        <time>2021-05-24T07:17:46Z</time>
      </trkpt>
      <trkpt lat="42.8450830" lon="-8.5814050">
        <ele>249.2</ele>
        <time>2021-05-24T07:17:47Z</time>
      </trkpt>
      <trkpt lat="42.8450860" lon="-8.5814070">
        <ele>249.2</ele>
        <time>2021-05-24T07:17:48Z</time>
      </trkpt>
      <trkpt lat="42.8450880" lon="-8.5814090">
        <ele>249.2</ele>
        <time>2021-05-24T07:17:49Z</time>
      </trkpt>
      <trkpt lat="42.8450910" lon="-8.5814110">
        <ele>249.2</ele>
        <time>2021-05-24T07:17:50Z</time>
      </trkpt>
      <trkpt lat="42.8450930" lon="-8.5814130">
        <ele>249.2</ele>
        <time>2021-05-24T07:17:51Z</time>
      </trkpt>
      <trkpt lat="42.8450960" lon="-8.5814150">
        <ele>249.2</ele>
        <time>2021-05-24T07:17:52Z</time>
      </trkpt>
      <trkpt lat="42.8450980" lon="-8.5814170">
        <ele>249.2</ele>
        <time>2021-05-24T07:17:53Z</time>
      </trkpt>
      <trkpt lat="42.8451010" lon="-8.5814190">
        <ele>249.2</ele>
        <time>2021-05-24T07:17:54Z</time>
      </trkpt>
      <trkpt lat="42.8451030" lon="-8.5814200">
        <ele>249.2</ele>
        <time>2021-05-24T07:17:55Z</time>
      </trkpt>
      <trkpt lat="42.8451060" lon="-8.5814220">
        <ele>249.2</ele>
        <time>2021-05-24T07:17:56Z</time>
      </trkpt>
      <trkpt lat="42.8451080" lon="-8.5814240">
        <ele>249.2</ele>
        <time>2021-05-24T07:17:57Z</time>
      </trkpt>
      <trkpt lat="42.8451110" lon="-8.5814260">
        <ele>249.2</ele>
        <time>2021-05-24T07:17:58Z</time>
      </trkpt>
      <trkpt lat="42.8451130" lon="-8.5814280">
        <ele>249.2</ele>
        <time>2021-05-24T07:17:59Z</time>
      </trkpt>
      <trkpt lat="42.8451160" lon="-8.5814300">
        <ele>249.2</ele>
        <time>2021-05-24T07:18:00Z</time>
      </trkpt>
      <trkpt lat="42.8451180" lon="-8.5814320">
        <ele>249.2</ele>
        <time>2021-05-24T07:18:01Z</time>
      </trkpt>
      <trkpt lat="42.8451210" lon="-8.5814340">
        <ele>249.2</ele>
        <time>2021-05-24T07:18:02Z</time>
      </trkpt>
      <trkpt lat="42.8451230" lon="-8.5814360">
        <ele>249.2</ele>
        <time>2021-05-24T07:18:03Z</time>
      </trkpt>
      <trkpt lat="42.8451260" lon="-8.5814380">
        <ele>249.2</ele>
        <time>2021-05-24T07:18:04Z</time>
      </trkpt>
      <trkpt lat="42.8451280" lon="-8.5814390">
        <ele>249.2</ele>
        <time>2021-05-24T07:18:05Z</time>
      </trkpt>
      <trkpt lat="42.8451310" lon="-8.5814410">
        <ele>249.2</ele>
        <time>2021-05-24T07:18:06Z</time>
      </trkpt>
      <trkpt lat="42.8451330" lon="-8.5814430">
        <ele>249.2</ele>
        <time>2021-05-24T07:18:07Z</time>
      </trkpt>
      <trkpt lat="42.8451360" lon="-8.5814450">
        <ele>249.2</ele>
        <time>2021-05-24T07:18:08Z</time>
      </trkpt>
      <trkpt lat="42.8451380" lon="-8.5814470">
        <ele>249.2</ele>
        <time>2021-05-24T07:18:09Z</time>
      </trkpt>
      <trkpt lat="42.8451360" lon="-8.5814520">
        <ele>249.2</ele>
        <time>2021-05-24T07:18:10Z</time>
      </trkpt>
      <trkpt lat="42.8451320" lon="-8.5814540">
        <ele>249.2</ele>
        <time>2021-05-24T07:18:11Z</time>
      </trkpt>
      <trkpt lat="42.8451290" lon="-8.5814550">
        <ele>249.2</ele>
        <time>2021-05-24T07:18:12Z</time>
      </trkpt>
      <trkpt lat="42.8451250" lon="-8.5814560">
        <ele>249.2</ele>
        <time>2021-05-24T07:18:13Z</time>
      </trkpt>
      <trkpt lat="42.8451210" lon="-8.5814570">
        <ele>249.2</ele>
        <time>2021-05-24T07:18:14Z</time>
      </trkpt>
      <trkpt lat="42.8451170" lon="-8.5814590">
        <ele>249.2</ele>
        <time>2021-05-24T07:18:15Z</time>
      </trkpt>
      <trkpt lat="42.8451130" lon="-8.5814600">
        <ele>249.2</ele>
        <time>2021-05-24T07:18:16Z</time>
      </trkpt>
      <trkpt lat="42.8451090" lon="-8.5814610">
        <ele>249.2</ele>
        <time>2021-05-24T07:18:17Z</time>
      </trkpt>
      <trkpt lat="42.8451060" lon="-8.5814620">
        <ele>249.2</ele>
        <time>2021-05-24T07:18:18Z</time>
      </trkpt>
      <trkpt lat="42.8451020" lon="-8.5814640">
        <ele>249.2</ele>
        <time>2021-05-24T07:18:19Z</time>
      </trkpt>
      <trkpt lat="42.8450980" lon="-8.5814650">
        <ele>249.2</ele>
        <time>2021-05-24T07:18:20Z</time>
      </trkpt>
      <trkpt lat="42.8450990" lon="-8.5814630">
        <ele>249.2</ele>
        <time>2021-05-24T07:18:21Z</time>
      </trkpt>
      <trkpt lat="42.8450960" lon="-8.5814610">
        <ele>249.2</ele>
        <time>2021-05-24T07:18:22Z</time>
      </trkpt>
      <trkpt lat="42.8450930" lon="-8.5814600">
        <ele>249.2</ele>
        <time>2021-05-24T07:18:23Z</time>
      </trkpt>
      <trkpt lat="42.8450890" lon="-8.5814580">
        <ele>249.2</ele>
        <time>2021-05-24T07:18:24Z</time>
      </trkpt>
      <trkpt lat="42.8450860" lon="-8.5814560">
        <ele>249.2</ele>
        <time>2021-05-24T07:18:25Z</time>
      </trkpt>
      <trkpt lat="42.8450830" lon="-8.5814540">
        <ele>249.2</ele>
        <time>2021-05-24T07:18:26Z</time>
      </trkpt>
      <trkpt lat="42.8450800" lon="-8.5814530">
        <ele>249.2</ele>
        <time>2021-05-24T07:18:27Z</time>
      </trkpt>
      <trkpt lat="42.8450770" lon="-8.5814510">
        <ele>249.2</ele>
        <time>2021-05-24T07:18:28Z</time>
      </trkpt>
      <trkpt lat="42.8450740" lon="-8.5814490">
        <ele>249.2</ele>
        <time>2021-05-24T07:18:29Z</time>
      </trkpt>
      <trkpt lat="42.8450700" lon="-8.5814470">
        <ele>249.2</ele>
        <time>2021-05-24T07:18:30Z</time>
      </trkpt>
      <trkpt lat="42.8450670" lon="-8.5814460">
        <ele>249.2</ele>
        <time>2021-05-24T07:18:31Z</time>
      </trkpt>
      <trkpt lat="42.8450640" lon="-8.5814440">
        <ele>249.2</ele>
        <time>2021-05-24T07:18:32Z</time>
      </trkpt>
      <trkpt lat="42.8450610" lon="-8.5814420">
        <ele>249.2</ele>
        <time>2021-05-24T07:18:33Z</time>
      </trkpt>
      <trkpt lat="42.8450850" lon="-8.5814520">
        <ele>249.2</ele>
        <time>2021-05-24T07:18:34Z</time>
      </trkpt>
      <trkpt lat="42.8450950" lon="-8.5814550">
        <ele>249.2</ele>
        <time>2021-05-24T07:18:35Z</time>
      </trkpt>
      <trkpt lat="42.8451060" lon="-8.5814570">
        <ele>249.2</ele>
        <time>2021-05-24T07:18:36Z</time>
      </trkpt>
      <trkpt lat="42.8451160" lon="-8.5814600">
        <ele>249.2</ele>
        <time>2021-05-24T07:18:37Z</time>
      </trkpt>
      <trkpt lat="42.8451270" lon="-8.5814630">
        <ele>249.2</ele>
        <time>2021-05-24T07:18:38Z</time>
      </trkpt>
      <trkpt lat="42.8451370" lon="-8.5814710">
        <ele>249.2</ele>
        <time>2021-05-24T07:18:39Z</time>
      </trkpt>
      <trkpt lat="42.8451380" lon="-8.5814730">
        <ele>249.2</ele>
        <time>2021-05-24T07:18:40Z</time>
      </trkpt>
      <trkpt lat="42.8451400" lon="-8.5814740">
        <ele>249.2</ele>
        <time>2021-05-24T07:18:41Z</time>
      </trkpt>
      <trkpt lat="42.8451410" lon="-8.5814750">
        <ele>249.2</ele>
        <time>2021-05-24T07:18:42Z</time>
      </trkpt>
      <trkpt lat="42.8451430" lon="-8.5814760">
        <ele>249.2</ele>
        <time>2021-05-24T07:18:43Z</time>
      </trkpt>
      <trkpt lat="42.8451450" lon="-8.5814780">
        <ele>249.2</ele>
        <time>2021-05-24T07:18:44Z</time>
      </trkpt>
      <trkpt lat="42.8451460" lon="-8.5814790">
        <ele>249.2</ele>
        <time>2021-05-24T07:18:45Z</time>
      </trkpt>
      <trkpt lat="42.8451480" lon="-8.5814800">
        <ele>249.2</ele>
        <time>2021-05-24T07:18:46Z</time>
      </trkpt>
      <trkpt lat="42.8451490" lon="-8.5814820">
        <ele>249.2</ele>
        <time>2021-05-24T07:18:47Z</time>
      </trkpt>
      <trkpt lat="42.8451510" lon="-8.5814830">
        <ele>249.2</ele>
        <time>2021-05-24T07:18:48Z</time>
      </trkpt>
      <trkpt lat="42.8451520" lon="-8.5814840">
        <ele>249.2</ele>
        <time>2021-05-24T07:18:49Z</time>
      </trkpt>
      <trkpt lat="42.8451540" lon="-8.5814860">
        <ele>249.2</ele>
        <time>2021-05-24T07:18:50Z</time>
      </trkpt>
      <trkpt lat="42.8451560" lon="-8.5814870">
        <ele>249.2</ele>
        <time>2021-05-24T07:18:51Z</time>
      </trkpt>
      <trkpt lat="42.8451570" lon="-8.5814880">
        <ele>249.2</ele>
        <time>2021-05-24T07:18:52Z</time>
      </trkpt>
      <trkpt lat="42.8451590" lon="-8.5814890">
        <ele>249.2</ele>
        <time>2021-05-24T07:18:53Z</time>
      </trkpt>
      <trkpt lat="42.8451600" lon="-8.5814910">
        <ele>249.2</ele>
        <time>2021-05-24T07:18:54Z</time>
      </trkpt>
      <trkpt lat="42.8451620" lon="-8.5814920">
        <ele>249.2</ele>
        <time>2021-05-24T07:18:55Z</time>
      </trkpt>
      <trkpt lat="42.8451580" lon="-8.5814910">
        <ele>249.2</ele>
        <time>2021-05-24T07:18:56Z</time>
      </trkpt>
      <trkpt lat="42.8451540" lon="-8.5814920">
        <ele>249.2</ele>
        <time>2021-05-24T07:18:57Z</time>
      </trkpt>
      <trkpt lat="42.8451510" lon="-8.5814920">
        <ele>249.2</ele>
        <time>2021-05-24T07:18:58Z</time>
      </trkpt>
      <trkpt lat="42.8451480" lon="-8.5814930">
        <ele>249.2</ele>
        <time>2021-05-24T07:18:59Z</time>
      </trkpt>
      <trkpt lat="42.8451440" lon="-8.5814930">
        <ele>249.2</ele>
        <time>2021-05-24T07:19:00Z</time>
      </trkpt>
      <trkpt lat="42.8451410" lon="-8.5814930">
        <ele>249.2</ele>
        <time>2021-05-24T07:19:01Z</time>
      </trkpt>
      <trkpt lat="42.8451380" lon="-8.5814940">
        <ele>249.2</ele>
        <time>2021-05-24T07:19:02Z</time>
      </trkpt>
      <trkpt lat="42.8451340" lon="-8.5814940">
        <ele>249.2</ele>
        <time>2021-05-24T07:19:03Z</time>
      </trkpt>
      <trkpt lat="42.8451310" lon="-8.5814950">
        <ele>249.2</ele>
        <time>2021-05-24T07:19:04Z</time>
      </trkpt>
      <trkpt lat="42.8451280" lon="-8.5814950">
        <ele>249.2</ele>
        <time>2021-05-24T07:19:05Z</time>
      </trkpt>
      <trkpt lat="42.8451240" lon="-8.5814950">
        <ele>249.2</ele>
        <time>2021-05-24T07:19:06Z</time>
      </trkpt>
      <trkpt lat="42.8451210" lon="-8.5814960">
        <ele>249.2</ele>
        <time>2021-05-24T07:19:07Z</time>
      </trkpt>
      <trkpt lat="42.8451180" lon="-8.5814960">
        <ele>249.2</ele>
        <time>2021-05-24T07:19:08Z</time>
      </trkpt>
      <trkpt lat="42.8451140" lon="-8.5814970">
        <ele>249.2</ele>
        <time>2021-05-24T07:19:09Z</time>
      </trkpt>
      <trkpt lat="42.8451110" lon="-8.5814970">
        <ele>249.2</ele>
        <time>2021-05-24T07:19:10Z</time>
      </trkpt>
      <trkpt lat="42.8451080" lon="-8.5814980">
        <ele>249.2</ele>
        <time>2021-05-24T07:19:11Z</time>
      </trkpt>
      <trkpt lat="42.8451040" lon="-8.5814980">
        <ele>249.2</ele>
        <time>2021-05-24T07:19:12Z</time>
      </trkpt>
      <trkpt lat="42.8451010" lon="-8.5814980">
        <ele>249.2</ele>
        <time>2021-05-24T07:19:13Z</time>
      </trkpt>
      <trkpt lat="42.8450980" lon="-8.5814990">
        <ele>249.2</ele>
        <time>2021-05-24T07:19:14Z</time>
      </trkpt>
      <trkpt lat="42.8450940" lon="-8.5814990">
        <ele>249.2</ele>
        <time>2021-05-24T07:19:15Z</time>
      </trkpt>
      <trkpt lat="42.8450910" lon="-8.5815000">
        <ele>249.2</ele>
        <time>2021-05-24T07:19:16Z</time>
      </trkpt>
      <trkpt lat="42.8450880" lon="-8.5815000">
        <ele>249.2</ele>
        <time>2021-05-24T07:19:17Z</time>
      </trkpt>
      <trkpt lat="42.8450840" lon="-8.5815000">
        <ele>249.2</ele>
        <time>2021-05-24T07:19:18Z</time>
      </trkpt>
      <trkpt lat="42.8450810" lon="-8.5815010">
        <ele>249.2</ele>
        <time>2021-05-24T07:19:19Z</time>
      </trkpt>
      <trkpt lat="42.8450780" lon="-8.5815010">
        <ele>249.2</ele>
        <time>2021-05-24T07:19:20Z</time>
      </trkpt>
      <trkpt lat="42.8450740" lon="-8.5815020">
        <ele>249.2</ele>
        <time>2021-05-24T07:19:21Z</time>
      </trkpt>
      <trkpt lat="42.8450710" lon="-8.5815020">
        <ele>249.2</ele>
        <time>2021-05-24T07:19:22Z</time>
      </trkpt>
      <trkpt lat="42.8450740" lon="-8.5814950">
        <ele>249.2</ele>
        <time>2021-05-24T07:19:23Z</time>
      </trkpt>
      <trkpt lat="42.8450870" lon="-8.5814890">
        <ele>249.2</ele>
        <time>2021-05-24T07:19:24Z</time>
      </trkpt>
      <trkpt lat="42.8450890" lon="-8.5814850">
        <ele>249.2</ele>
        <time>2021-05-24T07:19:25Z</time>
      </trkpt>
      <trkpt lat="42.8450900" lon="-8.5814850">
        <ele>249.2</ele>
        <time>2021-05-24T07:19:26Z</time>
      </trkpt>
      <trkpt lat="42.8450900" lon="-8.5814850">
        <ele>249.2</ele>
        <time>2021-05-24T07:19:27Z</time>
      </trkpt>
      <trkpt lat="42.8450900" lon="-8.5814850">
        <ele>249.2</ele>
        <time>2021-05-24T07:19:28Z</time>
      </trkpt>
      <trkpt lat="42.8450800" lon="-8.5814800">
        <ele>249.2</ele>
        <time>2021-05-24T07:19:29Z</time>
      </trkpt>
      <trkpt lat="42.8450790" lon="-8.5814790">
        <ele>249.2</ele>
        <time>2021-05-24T07:19:30Z</time>
      </trkpt>
      <trkpt lat="42.8450910" lon="-8.5814810">
        <ele>249.2</ele>
        <time>2021-05-24T07:19:31Z</time>
      </trkpt>
      <trkpt lat="42.8450960" lon="-8.5814800">
        <ele>249.2</ele>
        <time>2021-05-24T07:19:32Z</time>
      </trkpt>
      <trkpt lat="42.8450950" lon="-8.5814770">
        <ele>249.2</ele>
        <time>2021-05-24T07:19:33Z</time>
      </trkpt>
      <trkpt lat="42.8450960" lon="-8.5814770">
        <ele>249.2</ele>
        <time>2021-05-24T07:19:34Z</time>
      </trkpt>
      <trkpt lat="42.8450980" lon="-8.5814760">
        <ele>249.2</ele>
        <time>2021-05-24T07:19:35Z</time>
      </trkpt>
      <trkpt lat="42.8450990" lon="-8.5814760">
        <ele>249.2</ele>
        <time>2021-05-24T07:19:36Z</time>
      </trkpt>
      <trkpt lat="42.8451010" lon="-8.5814750">
        <ele>249.2</ele>
        <time>2021-05-24T07:19:37Z</time>
      </trkpt>
      <trkpt lat="42.8451030" lon="-8.5814750">
        <ele>249.2</ele>
        <time>2021-05-24T07:19:38Z</time>
      </trkpt>
      <trkpt lat="42.8451040" lon="-8.5814740">
        <ele>249.2</ele>
        <time>2021-05-24T07:19:39Z</time>
      </trkpt>
      <trkpt lat="42.8451060" lon="-8.5814730">
        <ele>249.2</ele>
        <time>2021-05-24T07:19:40Z</time>
      </trkpt>
      <trkpt lat="42.8451080" lon="-8.5814730">
        <ele>249.2</ele>
        <time>2021-05-24T07:19:41Z</time>
      </trkpt>
      <trkpt lat="42.8451090" lon="-8.5814720">
        <ele>249.2</ele>
        <time>2021-05-24T07:19:42Z</time>
      </trkpt>
      <trkpt lat="42.8451110" lon="-8.5814720">
        <ele>249.2</ele>
        <time>2021-05-24T07:19:43Z</time>
      </trkpt>
      <trkpt lat="42.8451120" lon="-8.5814710">
        <ele>249.2</ele>
        <time>2021-05-24T07:19:44Z</time>
      </trkpt>
      <trkpt lat="42.8451140" lon="-8.5814700">
        <ele>249.2</ele>
        <time>2021-05-24T07:19:45Z</time>
      </trkpt>
      <trkpt lat="42.8451160" lon="-8.5814700">
        <ele>249.2</ele>
        <time>2021-05-24T07:19:46Z</time>
      </trkpt>
      <trkpt lat="42.8451170" lon="-8.5814690">
        <ele>249.2</ele>
        <time>2021-05-24T07:19:47Z</time>
      </trkpt>
      <trkpt lat="42.8451190" lon="-8.5814690">
        <ele>249.2</ele>
        <time>2021-05-24T07:19:48Z</time>
      </trkpt>
      <trkpt lat="42.8451200" lon="-8.5814680">
        <ele>249.2</ele>
        <time>2021-05-24T07:19:49Z</time>
      </trkpt>
      <trkpt lat="42.8451220" lon="-8.5814680">
        <ele>249.2</ele>
        <time>2021-05-24T07:19:50Z</time>
      </trkpt>
      <trkpt lat="42.8451240" lon="-8.5814670">
        <ele>249.2</ele>
        <time>2021-05-24T07:19:51Z</time>
      </trkpt>
      <trkpt lat="42.8451250" lon="-8.5814660">
        <ele>249.2</ele>
        <time>2021-05-24T07:19:52Z</time>
      </trkpt>
      <trkpt lat="42.8451270" lon="-8.5814660">
        <ele>249.2</ele>
        <time>2021-05-24T07:19:53Z</time>
      </trkpt>
      <trkpt lat="42.8451280" lon="-8.5814650">
        <ele>249.2</ele>
        <time>2021-05-24T07:19:54Z</time>
      </trkpt>
      <trkpt lat="42.8451300" lon="-8.5814650">
        <ele>249.2</ele>
        <time>2021-05-24T07:19:55Z</time>
      </trkpt>
      <trkpt lat="42.8451320" lon="-8.5814640">
        <ele>249.2</ele>
        <time>2021-05-24T07:19:56Z</time>
      </trkpt>
      <trkpt lat="42.8451330" lon="-8.5814630">
        <ele>249.2</ele>
        <time>2021-05-24T07:19:57Z</time>
      </trkpt>
      <trkpt lat="42.8451350" lon="-8.5814630">
        <ele>249.2</ele>
        <time>2021-05-24T07:19:58Z</time>
      </trkpt>
      <trkpt lat="42.8451370" lon="-8.5814620">
        <ele>249.2</ele>
        <time>2021-05-24T07:19:59Z</time>
      </trkpt>
      <trkpt lat="42.8451380" lon="-8.5814620">
        <ele>249.2</ele>
        <time>2021-05-24T07:20:00Z</time>
      </trkpt>
      <trkpt lat="42.8451400" lon="-8.5814610">
        <ele>249.2</ele>
        <time>2021-05-24T07:20:01Z</time>
      </trkpt>
      <trkpt lat="42.8451410" lon="-8.5814610">
        <ele>249.2</ele>
        <time>2021-05-24T07:20:02Z</time>
      </trkpt>
      <trkpt lat="42.8451430" lon="-8.5814600">
        <ele>249.2</ele>
        <time>2021-05-24T07:20:03Z</time>
      </trkpt>
      <trkpt lat="42.8451450" lon="-8.5814590">
        <ele>249.2</ele>
        <time>2021-05-24T07:20:04Z</time>
      </trkpt>
      <trkpt lat="42.8451460" lon="-8.5814590">
        <ele>249.2</ele>
        <time>2021-05-24T07:20:05Z</time>
      </trkpt>
      <trkpt lat="42.8451480" lon="-8.5814580">
        <ele>249.2</ele>
        <time>2021-05-24T07:20:06Z</time>
      </trkpt>
      <trkpt lat="42.8451490" lon="-8.5814580">
        <ele>249.2</ele>
        <time>2021-05-24T07:20:07Z</time>
      </trkpt>
      <trkpt lat="42.8451510" lon="-8.5814570">
        <ele>249.2</ele>
        <time>2021-05-24T07:20:08Z</time>
      </trkpt>
      <trkpt lat="42.8451480" lon="-8.5814600">
        <ele>249.2</ele>
        <time>2021-05-24T07:20:09Z</time>
      </trkpt>
      <trkpt lat="42.8451450" lon="-8.5814580">
        <ele>249.2</ele>
        <time>2021-05-24T07:20:10Z</time>
      </trkpt>
      <trkpt lat="42.8451370" lon="-8.5814600">
        <ele>249.2</ele>
        <time>2021-05-24T07:20:11Z</time>
      </trkpt>
      <trkpt lat="42.8451370" lon="-8.5814600">
        <ele>249.2</ele>
        <time>2021-05-24T07:20:12Z</time>
      </trkpt>
      <trkpt lat="42.8451230" lon="-8.5814630">
        <ele>249.2</ele>
        <time>2021-05-24T07:20:13Z</time>
      </trkpt>
      <trkpt lat="42.8451390" lon="-8.5814520">
        <ele>249.2</ele>
        <time>2021-05-24T07:20:14Z</time>
      </trkpt>
      <trkpt lat="42.8451390" lon="-8.5814520">
        <ele>249.2</ele>
        <time>2021-05-24T07:20:15Z</time>
      </trkpt>
      <trkpt lat="42.8451400" lon="-8.5814510">
        <ele>249.2</ele>
        <time>2021-05-24T07:20:16Z</time>
      </trkpt>
      <trkpt lat="42.8451410" lon="-8.5814510">
        <ele>249.2</ele>
        <time>2021-05-24T07:20:17Z</time>
      </trkpt>
      <trkpt lat="42.8451410" lon="-8.5814510">
        <ele>249.2</ele>
        <time>2021-05-24T07:20:18Z</time>
      </trkpt>
      <trkpt lat="42.8451420" lon="-8.5814510">
        <ele>249.2</ele>
        <time>2021-05-24T07:20:19Z</time>
      </trkpt>
      <trkpt lat="42.8451430" lon="-8.5814500">
        <ele>249.2</ele>
        <time>2021-05-24T07:20:20Z</time>
      </trkpt>
      <trkpt lat="42.8451430" lon="-8.5814500">
        <ele>249.2</ele>
        <time>2021-05-24T07:20:21Z</time>
      </trkpt>
      <trkpt lat="42.8451440" lon="-8.5814500">
        <ele>249.2</ele>
        <time>2021-05-24T07:20:22Z</time>
      </trkpt>
      <trkpt lat="42.8451450" lon="-8.5814500">
        <ele>249.2</ele>
        <time>2021-05-24T07:20:23Z</time>
      </trkpt>
      <trkpt lat="42.8451450" lon="-8.5814500">
        <ele>249.2</ele>
        <time>2021-05-24T07:20:24Z</time>
      </trkpt>
      <trkpt lat="42.8451460" lon="-8.5814490">
        <ele>249.2</ele>
        <time>2021-05-24T07:20:25Z</time>
      </trkpt>
      <trkpt lat="42.8451470" lon="-8.5814490">
        <ele>249.2</ele>
        <time>2021-05-24T07:20:26Z</time>
      </trkpt>
      <trkpt lat="42.8451470" lon="-8.5814490">
        <ele>249.2</ele>
        <time>2021-05-24T07:20:27Z</time>
      </trkpt>
      <trkpt lat="42.8451480" lon="-8.5814490">
        <ele>249.2</ele>
        <time>2021-05-24T07:20:28Z</time>
      </trkpt>
      <trkpt lat="42.8451490" lon="-8.5814490">
        <ele>249.2</ele>
        <time>2021-05-24T07:20:29Z</time>
      </trkpt>
      <trkpt lat="42.8451490" lon="-8.5814480">
        <ele>249.2</ele>
        <time>2021-05-24T07:20:30Z</time>
      </trkpt>
      <trkpt lat="42.8451500" lon="-8.5814480">
        <ele>249.2</ele>
        <time>2021-05-24T07:20:31Z</time>
      </trkpt>
      <trkpt lat="42.8451510" lon="-8.5814480">
        <ele>249.2</ele>
        <time>2021-05-24T07:20:32Z</time>
      </trkpt>
      <trkpt lat="42.8451510" lon="-8.5814480">
        <ele>249.2</ele>
        <time>2021-05-24T07:20:33Z</time>
      </trkpt>
      <trkpt lat="42.8451520" lon="-8.5814470">
        <ele>249.2</ele>
        <time>2021-05-24T07:20:34Z</time>
      </trkpt>
      <trkpt lat="42.8451530" lon="-8.5814470">
        <ele>249.2</ele>
        <time>2021-05-24T07:20:35Z</time>
      </trkpt>
      <trkpt lat="42.8451530" lon="-8.5814470">
        <ele>249.2</ele>
        <time>2021-05-24T07:20:36Z</time>
      </trkpt>
      <trkpt lat="42.8451540" lon="-8.5814470">
        <ele>249.2</ele>
        <time>2021-05-24T07:20:37Z</time>
      </trkpt>
      <trkpt lat="42.8451550" lon="-8.5814470">
        <ele>249.2</ele>
        <time>2021-05-24T07:20:38Z</time>
      </trkpt>
      <trkpt lat="42.8451550" lon="-8.5814460">
        <ele>249.2</ele>
        <time>2021-05-24T07:20:39Z</time>
      </trkpt>
      <trkpt lat="42.8451560" lon="-8.5814460">
        <ele>249.2</ele>
        <time>2021-05-24T07:20:40Z</time>
      </trkpt>
      <trkpt lat="42.8451570" lon="-8.5814460">
        <ele>249.2</ele>
        <time>2021-05-24T07:20:41Z</time>
      </trkpt>
      <trkpt lat="42.8451570" lon="-8.5814460">
        <ele>249.2</ele>
        <time>2021-05-24T07:20:42Z</time>
      </trkpt>
      <trkpt lat="42.8451580" lon="-8.5814450">
        <ele>249.2</ele>
        <time>2021-05-24T07:20:43Z</time>
      </trkpt>
      <trkpt lat="42.8451590" lon="-8.5814450">
        <ele>249.2</ele>
        <time>2021-05-24T07:20:44Z</time>
      </trkpt>
      <trkpt lat="42.8451590" lon="-8.5814450">
        <ele>249.2</ele>
        <time>2021-05-24T07:20:45Z</time>
      </trkpt>
      <trkpt lat="42.8451600" lon="-8.5814450">
        <ele>249.2</ele>
        <time>2021-05-24T07:20:46Z</time>
      </trkpt>
      <trkpt lat="42.8451610" lon="-8.5814450">
        <ele>249.2</ele>
        <time>2021-05-24T07:20:47Z</time>
      </trkpt>
      <trkpt lat="42.8451610" lon="-8.5814440">
        <ele>249.2</ele>
        <time>2021-05-24T07:20:48Z</time>
      </trkpt>
      <trkpt lat="42.8451620" lon="-8.5814440">
        <ele>249.2</ele>
        <time>2021-05-24T07:20:49Z</time>
      </trkpt>
      <trkpt lat="42.8451630" lon="-8.5814440">
        <ele>249.2</ele>
        <time>2021-05-24T07:20:50Z</time>
      </trkpt>
      <trkpt lat="42.8451630" lon="-8.5814440">
        <ele>249.2</ele>
        <time>2021-05-24T07:20:51Z</time>
      </trkpt>
      <trkpt lat="42.8451640" lon="-8.5814430">
        <ele>249.2</ele>
        <time>2021-05-24T07:20:52Z</time>
      </trkpt>
      <trkpt lat="42.8451650" lon="-8.5814430">
        <ele>249.2</ele>
        <time>2021-05-24T07:20:53Z</time>
      </trkpt>
      <trkpt lat="42.8451650" lon="-8.5814430">
        <ele>249.2</ele>
        <time>2021-05-24T07:20:54Z</time>
      </trkpt>
      <trkpt lat="42.8451660" lon="-8.5814430">
        <ele>249.2</ele>
        <time>2021-05-24T07:20:55Z</time>
      </trkpt>
      <trkpt lat="42.8451670" lon="-8.5814430">
        <ele>249.2</ele>
        <time>2021-05-24T07:20:56Z</time>
      </trkpt>
      <trkpt lat="42.8451670" lon="-8.5814420">
        <ele>249.2</ele>
        <time>2021-05-24T07:20:57Z</time>
      </trkpt>
      <trkpt lat="42.8451680" lon="-8.5814420">
        <ele>249.2</ele>
        <time>2021-05-24T07:20:58Z</time>
      </trkpt>
      <trkpt lat="42.8451690" lon="-8.5814420">
        <ele>249.2</ele>
        <time>2021-05-24T07:20:59Z</time>
      </trkpt>
      <trkpt lat="42.8451690" lon="-8.5814420">
        <ele>249.2</ele>
        <time>2021-05-24T07:21:00Z</time>
      </trkpt>
      <trkpt lat="42.8451700" lon="-8.5814420">
        <ele>249.2</ele>
        <time>2021-05-24T07:21:01Z</time>
      </trkpt>
      <trkpt lat="42.8451710" lon="-8.5814410">
        <ele>249.2</ele>
        <time>2021-05-24T07:21:02Z</time>
      </trkpt>
      <trkpt lat="42.8451710" lon="-8.5814410">
        <ele>249.2</ele>
        <time>2021-05-24T07:21:03Z</time>
      </trkpt>
      <trkpt lat="42.8451720" lon="-8.5814410">
        <ele>249.2</ele>
        <time>2021-05-24T07:21:04Z</time>
      </trkpt>
      <trkpt lat="42.8451730" lon="-8.5814410">
        <ele>249.2</ele>
        <time>2021-05-24T07:21:05Z</time>
      </trkpt>
      <trkpt lat="42.8451730" lon="-8.5814400">
        <ele>249.2</ele>
        <time>2021-05-24T07:21:06Z</time>
      </trkpt>
      <trkpt lat="42.8451740" lon="-8.5814400">
        <ele>249.2</ele>
        <time>2021-05-24T07:21:07Z</time>
      </trkpt>
      <trkpt lat="42.8451750" lon="-8.5814400">
        <ele>249.2</ele>
        <time>2021-05-24T07:21:08Z</time>
      </trkpt>
      <trkpt lat="42.8451750" lon="-8.5814400">
        <ele>249.2</ele>
        <time>2021-05-24T07:21:09Z</time>
      </trkpt>
      <trkpt lat="42.8451760" lon="-8.5814400">
        <ele>249.2</ele>
        <time>2021-05-24T07:21:10Z</time>
      </trkpt>
      <trkpt lat="42.8451770" lon="-8.5814390">
        <ele>249.2</ele>
        <time>2021-05-24T07:21:11Z</time>
      </trkpt>
      <trkpt lat="42.8451770" lon="-8.5814390">
        <ele>249.2</ele>
        <time>2021-05-24T07:21:12Z</time>
      </trkpt>
      <trkpt lat="42.8451780" lon="-8.5814390">
        <ele>249.2</ele>
        <time>2021-05-24T07:21:13Z</time>
      </trkpt>
      <trkpt lat="42.8451790" lon="-8.5814390">
        <ele>249.2</ele>
        <time>2021-05-24T07:21:14Z</time>
      </trkpt>
      <trkpt lat="42.8451790" lon="-8.5814380">
        <ele>249.2</ele>
        <time>2021-05-24T07:21:15Z</time>
      </trkpt>
      <trkpt lat="42.8451800" lon="-8.5814380">
        <ele>249.2</ele>
        <time>2021-05-24T07:21:16Z</time>
      </trkpt>
      <trkpt lat="42.8451810" lon="-8.5814380">
        <ele>249.2</ele>
        <time>2021-05-24T07:21:17Z</time>
      </trkpt>
      <trkpt lat="42.8451810" lon="-8.5814380">
        <ele>249.2</ele>
        <time>2021-05-24T07:21:18Z</time>
      </trkpt>
      <trkpt lat="42.8451820" lon="-8.5814380">
        <ele>249.2</ele>
        <time>2021-05-24T07:21:19Z</time>
      </trkpt>
      <trkpt lat="42.8451830" lon="-8.5814370">
        <ele>249.2</ele>
        <time>2021-05-24T07:21:20Z</time>
      </trkpt>
      <trkpt lat="42.8451840" lon="-8.5814370">
        <ele>249.2</ele>
        <time>2021-05-24T07:21:21Z</time>
      </trkpt>
      <trkpt lat="42.8451840" lon="-8.5814370">
        <ele>249.2</ele>
        <time>2021-05-24T07:21:22Z</time>
      </trkpt>
      <trkpt lat="42.8451850" lon="-8.5814370">
        <ele>249.2</ele>
        <time>2021-05-24T07:21:23Z</time>
      </trkpt>
      <trkpt lat="42.8451860" lon="-8.5814370">
        <ele>249.2</ele>
        <time>2021-05-24T07:21:24Z</time>
      </trkpt>
      <trkpt lat="42.8451860" lon="-8.5814360">
        <ele>249.2</ele>
        <time>2021-05-24T07:21:25Z</time>
      </trkpt>
      <trkpt lat="42.8451870" lon="-8.5814360">
        <ele>249.2</ele>
        <time>2021-05-24T07:21:26Z</time>
      </trkpt>
      <trkpt lat="42.8451880" lon="-8.5814360">
        <ele>249.2</ele>
        <time>2021-05-24T07:21:27Z</time>
      </trkpt>
      <trkpt lat="42.8451880" lon="-8.5814360">
        <ele>249.2</ele>
        <time>2021-05-24T07:21:28Z</time>
      </trkpt>
      <trkpt lat="42.8451890" lon="-8.5814350">
        <ele>249.2</ele>
        <time>2021-05-24T07:21:29Z</time>
      </trkpt>
      <trkpt lat="42.8451900" lon="-8.5814350">
        <ele>249.2</ele>
        <time>2021-05-24T07:21:30Z</time>
      </trkpt>
      <trkpt lat="42.8451900" lon="-8.5814350">
        <ele>249.2</ele>
        <time>2021-05-24T07:21:31Z</time>
      </trkpt>
      <trkpt lat="42.8451910" lon="-8.5814350">
        <ele>249.2</ele>
        <time>2021-05-24T07:21:32Z</time>
      </trkpt>
      <trkpt lat="42.8451920" lon="-8.5814350">
        <ele>249.2</ele>
        <time>2021-05-24T07:21:33Z</time>
      </trkpt>
      <trkpt lat="42.8451920" lon="-8.5814340">
        <ele>249.2</ele>
        <time>2021-05-24T07:21:34Z</time>
      </trkpt>
      <trkpt lat="42.8451930" lon="-8.5814340">
        <ele>249.2</ele>
        <time>2021-05-24T07:21:35Z</time>
      </trkpt>
      <trkpt lat="42.8451940" lon="-8.5814340">
        <ele>249.2</ele>
        <time>2021-05-24T07:21:36Z</time>
      </trkpt>
      <trkpt lat="42.8451940" lon="-8.5814340">
        <ele>249.2</ele>
        <time>2021-05-24T07:21:37Z</time>
      </trkpt>
      <trkpt lat="42.8451950" lon="-8.5814330">
        <ele>249.2</ele>
        <time>2021-05-24T07:21:38Z</time>
      </trkpt>
      <trkpt lat="42.8451960" lon="-8.5814330">
        <ele>249.2</ele>
        <time>2021-05-24T07:21:39Z</time>
      </trkpt>
      <trkpt lat="42.8451960" lon="-8.5814330">
        <ele>249.2</ele>
        <time>2021-05-24T07:21:40Z</time>
      </trkpt>
      <trkpt lat="42.8451970" lon="-8.5814330">
        <ele>249.2</ele>
        <time>2021-05-24T07:21:41Z</time>
      </trkpt>
      <trkpt lat="42.8451980" lon="-8.5814330">
        <ele>249.2</ele>
        <time>2021-05-24T07:21:42Z</time>
      </trkpt>
      <trkpt lat="42.8451980" lon="-8.5814320">
        <ele>249.2</ele>
        <time>2021-05-24T07:21:43Z</time>
      </trkpt>
      <trkpt lat="42.8451990" lon="-8.5814320">
        <ele>249.2</ele>
        <time>2021-05-24T07:21:44Z</time>
      </trkpt>
      <trkpt lat="42.8452000" lon="-8.5814320">
        <ele>249.2</ele>
        <time>2021-05-24T07:21:45Z</time>
      </trkpt>
      <trkpt lat="42.8452000" lon="-8.5814320">
        <ele>249.2</ele>
        <time>2021-05-24T07:21:46Z</time>
      </trkpt>
      <trkpt lat="42.8452010" lon="-8.5814320">
        <ele>249.2</ele>
        <time>2021-05-24T07:21:47Z</time>
      </trkpt>
      <trkpt lat="42.8452020" lon="-8.5814310">
        <ele>249.2</ele>
        <time>2021-05-24T07:21:48Z</time>
      </trkpt>
      <trkpt lat="42.8452020" lon="-8.5814310">
        <ele>249.2</ele>
        <time>2021-05-24T07:21:49Z</time>
      </trkpt>
      <trkpt lat="42.8452030" lon="-8.5814310">
        <ele>249.2</ele>
        <time>2021-05-24T07:21:50Z</time>
      </trkpt>
      <trkpt lat="42.8452040" lon="-8.5814310">
        <ele>249.2</ele>
        <time>2021-05-24T07:21:51Z</time>
      </trkpt>
      <trkpt lat="42.8452040" lon="-8.5814300">
        <ele>249.2</ele>
        <time>2021-05-24T07:21:52Z</time>
      </trkpt>
      <trkpt lat="42.8452050" lon="-8.5814300">
        <ele>249.2</ele>
        <time>2021-05-24T07:21:53Z</time>
      </trkpt>
      <trkpt lat="42.8452060" lon="-8.5814300">
        <ele>249.2</ele>
        <time>2021-05-24T07:21:54Z</time>
      </trkpt>
      <trkpt lat="42.8452060" lon="-8.5814300">
        <ele>249.2</ele>
        <time>2021-05-24T07:21:55Z</time>
      </trkpt>
      <trkpt lat="42.8452070" lon="-8.5814300">
        <ele>249.2</ele>
        <time>2021-05-24T07:21:56Z</time>
      </trkpt>
      <trkpt lat="42.8452080" lon="-8.5814290">
        <ele>249.2</ele>
        <time>2021-05-24T07:21:57Z</time>
      </trkpt>
      <trkpt lat="42.8452080" lon="-8.5814290">
        <ele>249.2</ele>
        <time>2021-05-24T07:21:58Z</time>
      </trkpt>
      <trkpt lat="42.8452090" lon="-8.5814290">
        <ele>249.2</ele>
        <time>2021-05-24T07:21:59Z</time>
      </trkpt>
      <trkpt lat="42.8452100" lon="-8.5814290">
        <ele>249.2</ele>
        <time>2021-05-24T07:22:00Z</time>
      </trkpt>
      <trkpt lat="42.8452100" lon="-8.5814280">
        <ele>249.2</ele>
        <time>2021-05-24T07:22:01Z</time>
      </trkpt>
      <trkpt lat="42.8452110" lon="-8.5814280">
        <ele>249.2</ele>
        <time>2021-05-24T07:22:02Z</time>
      </trkpt>
      <trkpt lat="42.8452120" lon="-8.5814280">
        <ele>249.2</ele>
        <time>2021-05-24T07:22:03Z</time>
      </trkpt>
      <trkpt lat="42.8452120" lon="-8.5814280">
        <ele>249.1</ele>
        <time>2021-05-24T07:22:04Z</time>
      </trkpt>
      <trkpt lat="42.8452130" lon="-8.5814280">
        <ele>249.1</ele>
        <time>2021-05-24T07:22:05Z</time>
      </trkpt>
      <trkpt lat="42.8452140" lon="-8.5814270">
        <ele>249.1</ele>
        <time>2021-05-24T07:22:06Z</time>
      </trkpt>
      <trkpt lat="42.8452140" lon="-8.5814270">
        <ele>249.1</ele>
        <time>2021-05-24T07:22:07Z</time>
      </trkpt>
      <trkpt lat="42.8452150" lon="-8.5814270">
        <ele>249.1</ele>
        <time>2021-05-24T07:22:08Z</time>
      </trkpt>
      <trkpt lat="42.8452160" lon="-8.5814270">
        <ele>249.1</ele>
        <time>2021-05-24T07:22:09Z</time>
      </trkpt>
      <trkpt lat="42.8452160" lon="-8.5814260">
        <ele>249.1</ele>
        <time>2021-05-24T07:22:10Z</time>
      </trkpt>
      <trkpt lat="42.8452170" lon="-8.5814260">
        <ele>249.1</ele>
        <time>2021-05-24T07:22:11Z</time>
      </trkpt>
      <trkpt lat="42.8452180" lon="-8.5814260">
        <ele>249.1</ele>
        <time>2021-05-24T07:22:12Z</time>
      </trkpt>
      <trkpt lat="42.8452180" lon="-8.5814260">
        <ele>249.1</ele>
        <time>2021-05-24T07:22:13Z</time>
      </trkpt>
      <trkpt lat="42.8452190" lon="-8.5814260">
        <ele>249.1</ele>
        <time>2021-05-24T07:22:14Z</time>
      </trkpt>
      <trkpt lat="42.8452200" lon="-8.5814250">
        <ele>249.1</ele>
        <time>2021-05-24T07:22:15Z</time>
      </trkpt>
      <trkpt lat="42.8452200" lon="-8.5814250">
        <ele>249.1</ele>
        <time>2021-05-24T07:22:16Z</time>
      </trkpt>
      <trkpt lat="42.8452210" lon="-8.5814250">
        <ele>249.1</ele>
        <time>2021-05-24T07:22:17Z</time>
      </trkpt>
      <trkpt lat="42.8452220" lon="-8.5814250">
        <ele>249.1</ele>
        <time>2021-05-24T07:22:18Z</time>
      </trkpt>
      <trkpt lat="42.8452220" lon="-8.5814250">
        <ele>249.1</ele>
        <time>2021-05-24T07:22:19Z</time>
      </trkpt>
      <trkpt lat="42.8452230" lon="-8.5814240">
        <ele>249.1</ele>
        <time>2021-05-24T07:22:20Z</time>
      </trkpt>
      <trkpt lat="42.8452240" lon="-8.5814240">
        <ele>249.1</ele>
        <time>2021-05-24T07:22:21Z</time>
      </trkpt>
      <trkpt lat="42.8452240" lon="-8.5814240">
        <ele>249.1</ele>
        <time>2021-05-24T07:22:22Z</time>
      </trkpt>
      <trkpt lat="42.8452250" lon="-8.5814240">
        <ele>249.1</ele>
        <time>2021-05-24T07:22:23Z</time>
      </trkpt>
      <trkpt lat="42.8452260" lon="-8.5814230">
        <ele>249.1</ele>
        <time>2021-05-24T07:22:24Z</time>
      </trkpt>
      <trkpt lat="42.8452260" lon="-8.5814230">
        <ele>249.1</ele>
        <time>2021-05-24T07:22:25Z</time>
      </trkpt>
      <trkpt lat="42.8452270" lon="-8.5814230">
        <ele>249.1</ele>
        <time>2021-05-24T07:22:26Z</time>
      </trkpt>
      <trkpt lat="42.8452260" lon="-8.5814290">
        <ele>249.1</ele>
        <time>2021-05-24T07:22:27Z</time>
      </trkpt>
      <trkpt lat="42.8452240" lon="-8.5814290">
        <ele>249.1</ele>
        <time>2021-05-24T07:22:28Z</time>
      </trkpt>
      <trkpt lat="42.8452230" lon="-8.5814280">
        <ele>249.1</ele>
        <time>2021-05-24T07:22:29Z</time>
      </trkpt>
      <trkpt lat="42.8452210" lon="-8.5814280">
        <ele>249.1</ele>
        <time>2021-05-24T07:22:30Z</time>
      </trkpt>
      <trkpt lat="42.8452190" lon="-8.5814280">
        <ele>249.1</ele>
        <time>2021-05-24T07:22:31Z</time>
      </trkpt>
      <trkpt lat="42.8452170" lon="-8.5814280">
        <ele>249.1</ele>
        <time>2021-05-24T07:22:32Z</time>
      </trkpt>
      <trkpt lat="42.8452160" lon="-8.5814270">
        <ele>249.1</ele>
        <time>2021-05-24T07:22:33Z</time>
      </trkpt>
      <trkpt lat="42.8452140" lon="-8.5814270">
        <ele>249.1</ele>
        <time>2021-05-24T07:22:34Z</time>
      </trkpt>
      <trkpt lat="42.8452120" lon="-8.5814270">
        <ele>249.1</ele>
        <time>2021-05-24T07:22:35Z</time>
      </trkpt>
      <trkpt lat="42.8452100" lon="-8.5814270">
        <ele>249.1</ele>
        <time>2021-05-24T07:22:36Z</time>
      </trkpt>
      <trkpt lat="42.8452090" lon="-8.5814260">
        <ele>249.1</ele>
        <time>2021-05-24T07:22:37Z</time>
      </trkpt>
      <trkpt lat="42.8452070" lon="-8.5814260">
        <ele>249.1</ele>
        <time>2021-05-24T07:22:38Z</time>
      </trkpt>
      <trkpt lat="42.8452050" lon="-8.5814260">
        <ele>249.1</ele>
        <time>2021-05-24T07:22:39Z</time>
      </trkpt>
      <trkpt lat="42.8452030" lon="-8.5814260">
        <ele>249.1</ele>
        <time>2021-05-24T07:22:40Z</time>
      </trkpt>
      <trkpt lat="42.8452010" lon="-8.5814260">
        <ele>249.1</ele>
        <time>2021-05-24T07:22:41Z</time>
      </trkpt>
      <trkpt lat="42.8452000" lon="-8.5814250">
        <ele>249.1</ele>
        <time>2021-05-24T07:22:42Z</time>
      </trkpt>
      <trkpt lat="42.8451980" lon="-8.5814250">
        <ele>249.1</ele>
        <time>2021-05-24T07:22:43Z</time>
      </trkpt>
      <trkpt lat="42.8451960" lon="-8.5814250">
        <ele>249.1</ele>
        <time>2021-05-24T07:22:44Z</time>
      </trkpt>
      <trkpt lat="42.8451940" lon="-8.5814250">
        <ele>249.1</ele>
        <time>2021-05-24T07:22:45Z</time>
      </trkpt>
      <trkpt lat="42.8451930" lon="-8.5814240">
        <ele>249.1</ele>
        <time>2021-05-24T07:22:46Z</time>
      </trkpt>
      <trkpt lat="42.8451910" lon="-8.5814240">
        <ele>249.1</ele>
        <time>2021-05-24T07:22:47Z</time>
      </trkpt>
      <trkpt lat="42.8451890" lon="-8.5814240">
        <ele>249.1</ele>
        <time>2021-05-24T07:22:48Z</time>
      </trkpt>
      <trkpt lat="42.8451870" lon="-8.5814240">
        <ele>249.1</ele>
        <time>2021-05-24T07:22:49Z</time>
      </trkpt>
      <trkpt lat="42.8451860" lon="-8.5814230">
        <ele>249.1</ele>
        <time>2021-05-24T07:22:50Z</time>
      </trkpt>
      <trkpt lat="42.8451840" lon="-8.5814230">
        <ele>249.1</ele>
        <time>2021-05-24T07:22:51Z</time>
      </trkpt>
      <trkpt lat="42.8451820" lon="-8.5814230">
        <ele>249.1</ele>
        <time>2021-05-24T07:22:52Z</time>
      </trkpt>
      <trkpt lat="42.8451800" lon="-8.5814230">
        <ele>249.1</ele>
        <time>2021-05-24T07:22:53Z</time>
      </trkpt>
      <trkpt lat="42.8451780" lon="-8.5814230">
        <ele>249.1</ele>
        <time>2021-05-24T07:22:54Z</time>
      </trkpt>
      <trkpt lat="42.8451770" lon="-8.5814220">
        <ele>249.1</ele>
        <time>2021-05-24T07:22:55Z</time>
      </trkpt>
      <trkpt lat="42.8451750" lon="-8.5814220">
        <ele>249.1</ele>
        <time>2021-05-24T07:22:56Z</time>
      </trkpt>
      <trkpt lat="42.8451730" lon="-8.5814220">
        <ele>249.1</ele>
        <time>2021-05-24T07:22:57Z</time>
      </trkpt>
      <trkpt lat="42.8451710" lon="-8.5814220">
        <ele>249.1</ele>
        <time>2021-05-24T07:22:58Z</time>
      </trkpt>
      <trkpt lat="42.8451700" lon="-8.5814210">
        <ele>249.1</ele>
        <time>2021-05-24T07:22:59Z</time>
      </trkpt>
      <trkpt lat="42.8451680" lon="-8.5814210">
        <ele>249.1</ele>
        <time>2021-05-24T07:23:00Z</time>
      </trkpt>
      <trkpt lat="42.8451660" lon="-8.5814210">
        <ele>249.1</ele>
        <time>2021-05-24T07:23:01Z</time>
      </trkpt>
      <trkpt lat="42.8451640" lon="-8.5814210">
        <ele>249.1</ele>
        <time>2021-05-24T07:23:02Z</time>
      </trkpt>
      <trkpt lat="42.8451630" lon="-8.5814200">
        <ele>249.1</ele>
        <time>2021-05-24T07:23:03Z</time>
      </trkpt>
      <trkpt lat="42.8451610" lon="-8.5814200">
        <ele>249.1</ele>
        <time>2021-05-24T07:23:04Z</time>
      </trkpt>
      <trkpt lat="42.8451590" lon="-8.5814200">
        <ele>249.1</ele>
        <time>2021-05-24T07:23:05Z</time>
      </trkpt>
      <trkpt lat="42.8451640" lon="-8.5814120">
        <ele>249.1</ele>
        <time>2021-05-24T07:23:06Z</time>
      </trkpt>
      <trkpt lat="42.8451450" lon="-8.5814080">
        <ele>249.1</ele>
        <time>2021-05-24T07:23:07Z</time>
      </trkpt>
      <trkpt lat="42.8451480" lon="-8.5814040">
        <ele>249.1</ele>
        <time>2021-05-24T07:23:08Z</time>
      </trkpt>
      <trkpt lat="42.8451440" lon="-8.5814110">
        <ele>249.1</ele>
        <time>2021-05-24T07:23:09Z</time>
      </trkpt>
      <trkpt lat="42.8451450" lon="-8.5814120">
        <ele>249.1</ele>
        <time>2021-05-24T07:23:10Z</time>
      </trkpt>
      <trkpt lat="42.8451420" lon="-8.5814020">
        <ele>249.1</ele>
        <time>2021-05-24T07:23:11Z</time>
      </trkpt>
      <trkpt lat="42.8451420" lon="-8.5814020">
        <ele>249.1</ele>
        <time>2021-05-24T07:23:12Z</time>
      </trkpt>
      <trkpt lat="42.8451420" lon="-8.5814020">
        <ele>249.1</ele>
        <time>2021-05-24T07:23:13Z</time>
      </trkpt>
      <trkpt lat="42.8451330" lon="-8.5814060">
        <ele>249.1</ele>
        <time>2021-05-24T07:23:14Z</time>
      </trkpt>
      <trkpt lat="42.8451330" lon="-8.5814060">
        <ele>249.1</ele>
        <time>2021-05-24T07:23:15Z</time>
      </trkpt>
      <trkpt lat="42.8451330" lon="-8.5814060">
        <ele>249.1</ele>
        <time>2021-05-24T07:23:16Z</time>
      </trkpt>
      <trkpt lat="42.8451330" lon="-8.5814060">
        <ele>249.1</ele>
        <time>2021-05-24T07:23:17Z</time>
      </trkpt>
      <trkpt lat="42.8451460" lon="-8.5814040">
        <ele>249.1</ele>
        <time>2021-05-24T07:23:18Z</time>
      </trkpt>
      <trkpt lat="42.8451600" lon="-8.5814150">
        <ele>249.1</ele>
        <time>2021-05-24T07:23:19Z</time>
      </trkpt>
      <trkpt lat="42.8451790" lon="-8.5814260">
        <ele>249.1</ele>
        <time>2021-05-24T07:23:20Z</time>
      </trkpt>
      <trkpt lat="42.8451820" lon="-8.5814330">
        <ele>249.1</ele>
        <time>2021-05-24T07:23:21Z</time>
      </trkpt>
      <trkpt lat="42.8451810" lon="-8.5814340">
        <ele>249.1</ele>
        <time>2021-05-24T07:23:22Z</time>
      </trkpt>
      <trkpt lat="42.8451810" lon="-8.5814340">
        <ele>249.1</ele>
        <time>2021-05-24T07:23:23Z</time>
      </trkpt>
      <trkpt lat="42.8451810" lon="-8.5814340">
        <ele>249.1</ele>
        <time>2021-05-24T07:23:24Z</time>
      </trkpt>
      <trkpt lat="42.8451900" lon="-8.5814330">
        <ele>249.1</ele>
        <time>2021-05-24T07:23:25Z</time>
      </trkpt>
      <trkpt lat="42.8451900" lon="-8.5814330">
        <ele>249.1</ele>
        <time>2021-05-24T07:23:26Z</time>
      </trkpt>
      <trkpt lat="42.8451890" lon="-8.5814330">
        <ele>249.1</ele>
        <time>2021-05-24T07:23:27Z</time>
      </trkpt>
      <trkpt lat="42.8451890" lon="-8.5814330">
        <ele>249.1</ele>
        <time>2021-05-24T07:23:28Z</time>
      </trkpt>
      <trkpt lat="42.8451880" lon="-8.5814330">
        <ele>249.1</ele>
        <time>2021-05-24T07:23:29Z</time>
      </trkpt>
      <trkpt lat="42.8451880" lon="-8.5814330">
        <ele>249.1</ele>
        <time>2021-05-24T07:23:30Z</time>
      </trkpt>
      <trkpt lat="42.8451870" lon="-8.5814330">
        <ele>249.1</ele>
        <time>2021-05-24T07:23:31Z</time>
      </trkpt>
      <trkpt lat="42.8451870" lon="-8.5814330">
        <ele>249.1</ele>
        <time>2021-05-24T07:23:32Z</time>
      </trkpt>
      <trkpt lat="42.8451870" lon="-8.5814340">
        <ele>249.1</ele>
        <time>2021-05-24T07:23:33Z</time>
      </trkpt>
      <trkpt lat="42.8451860" lon="-8.5814340">
        <ele>249.1</ele>
        <time>2021-05-24T07:23:34Z</time>
      </trkpt>
      <trkpt lat="42.8451860" lon="-8.5814340">
        <ele>249.1</ele>
        <time>2021-05-24T07:23:35Z</time>
      </trkpt>
      <trkpt lat="42.8451850" lon="-8.5814340">
        <ele>249.1</ele>
        <time>2021-05-24T07:23:36Z</time>
      </trkpt>
      <trkpt lat="42.8451850" lon="-8.5814340">
        <ele>249.1</ele>
        <time>2021-05-24T07:23:37Z</time>
      </trkpt>
      <trkpt lat="42.8451840" lon="-8.5814340">
        <ele>249.1</ele>
        <time>2021-05-24T07:23:38Z</time>
      </trkpt>
      <trkpt lat="42.8451840" lon="-8.5814340">
        <ele>249.1</ele>
        <time>2021-05-24T07:23:39Z</time>
      </trkpt>
      <trkpt lat="42.8451840" lon="-8.5814340">
        <ele>249.1</ele>
        <time>2021-05-24T07:23:40Z</time>
      </trkpt>
      <trkpt lat="42.8451830" lon="-8.5814340">
        <ele>249.1</ele>
        <time>2021-05-24T07:23:41Z</time>
      </trkpt>
      <trkpt lat="42.8451830" lon="-8.5814340">
        <ele>249.1</ele>
        <time>2021-05-24T07:23:42Z</time>
      </trkpt>
      <trkpt lat="42.8451820" lon="-8.5814340">
        <ele>249.1</ele>
        <time>2021-05-24T07:23:43Z</time>
      </trkpt>
      <trkpt lat="42.8451820" lon="-8.5814340">
        <ele>249.1</ele>
        <time>2021-05-24T07:23:44Z</time>
      </trkpt>
      <trkpt lat="42.8451810" lon="-8.5814340">
        <ele>249.1</ele>
        <time>2021-05-24T07:23:45Z</time>
      </trkpt>
      <trkpt lat="42.8451810" lon="-8.5814340">
        <ele>249.1</ele>
        <time>2021-05-24T07:23:46Z</time>
      </trkpt>
      <trkpt lat="42.8451810" lon="-8.5814340">
        <ele>249.1</ele>
        <time>2021-05-24T07:23:47Z</time>
      </trkpt>
      <trkpt lat="42.8451800" lon="-8.5814350">
        <ele>249.1</ele>
        <time>2021-05-24T07:23:48Z</time>
      </trkpt>
      <trkpt lat="42.8451800" lon="-8.5814350">
        <ele>249.1</ele>
        <time>2021-05-24T07:23:49Z</time>
      </trkpt>
      <trkpt lat="42.8451790" lon="-8.5814350">
        <ele>249.1</ele>
        <time>2021-05-24T07:23:50Z</time>
      </trkpt>
      <trkpt lat="42.8451790" lon="-8.5814350">
        <ele>249.1</ele>
        <time>2021-05-24T07:23:51Z</time>
      </trkpt>
      <trkpt lat="42.8451780" lon="-8.5814350">
        <ele>249.1</ele>
        <time>2021-05-24T07:23:52Z</time>
      </trkpt>
      <trkpt lat="42.8451780" lon="-8.5814350">
        <ele>249.1</ele>
        <time>2021-05-24T07:23:53Z</time>
      </trkpt>
      <trkpt lat="42.8451780" lon="-8.5814350">
        <ele>249.1</ele>
        <time>2021-05-24T07:23:54Z</time>
      </trkpt>
      <trkpt lat="42.8451770" lon="-8.5814350">
        <ele>249.1</ele>
        <time>2021-05-24T07:23:55Z</time>
      </trkpt>
      <trkpt lat="42.8451770" lon="-8.5814350">
        <ele>249.1</ele>
        <time>2021-05-24T07:23:56Z</time>
      </trkpt>
      <trkpt lat="42.8451760" lon="-8.5814350">
        <ele>249.1</ele>
        <time>2021-05-24T07:23:57Z</time>
      </trkpt>
      <trkpt lat="42.8451760" lon="-8.5814350">
        <ele>249.1</ele>
        <time>2021-05-24T07:23:58Z</time>
      </trkpt>
      <trkpt lat="42.8451750" lon="-8.5814350">
        <ele>249.1</ele>
        <time>2021-05-24T07:23:59Z</time>
      </trkpt>
      <trkpt lat="42.8451750" lon="-8.5814350">
        <ele>249.1</ele>
        <time>2021-05-24T07:24:00Z</time>
      </trkpt>
      <trkpt lat="42.8451750" lon="-8.5814350">
        <ele>249.1</ele>
        <time>2021-05-24T07:24:01Z</time>
      </trkpt>
      <trkpt lat="42.8451740" lon="-8.5814350">
        <ele>249.1</ele>
        <time>2021-05-24T07:24:02Z</time>
      </trkpt>
      <trkpt lat="42.8451740" lon="-8.5814360">
        <ele>249.1</ele>
        <time>2021-05-24T07:24:03Z</time>
      </trkpt>
      <trkpt lat="42.8451730" lon="-8.5814360">
        <ele>249.1</ele>
        <time>2021-05-24T07:24:04Z</time>
      </trkpt>
      <trkpt lat="42.8451730" lon="-8.5814360">
        <ele>249.1</ele>
        <time>2021-05-24T07:24:05Z</time>
      </trkpt>
      <trkpt lat="42.8451720" lon="-8.5814360">
        <ele>249.1</ele>
        <time>2021-05-24T07:24:06Z</time>
      </trkpt>
      <trkpt lat="42.8451720" lon="-8.5814360">
        <ele>249.1</ele>
        <time>2021-05-24T07:24:07Z</time>
      </trkpt>
      <trkpt lat="42.8451720" lon="-8.5814360">
        <ele>249.1</ele>
        <time>2021-05-24T07:24:08Z</time>
      </trkpt>
      <trkpt lat="42.8451710" lon="-8.5814360">
        <ele>249.1</ele>
        <time>2021-05-24T07:24:09Z</time>
      </trkpt>
      <trkpt lat="42.8451710" lon="-8.5814360">
        <ele>249.1</ele>
        <time>2021-05-24T07:24:10Z</time>
      </trkpt>
      <trkpt lat="42.8451700" lon="-8.5814360">
        <ele>249.1</ele>
        <time>2021-05-24T07:24:11Z</time>
      </trkpt>
      <trkpt lat="42.8451700" lon="-8.5814360">
        <ele>249.1</ele>
        <time>2021-05-24T07:24:12Z</time>
      </trkpt>
      <trkpt lat="42.8451700" lon="-8.5814360">
        <ele>249.1</ele>
        <time>2021-05-24T07:24:13Z</time>
      </trkpt>
      <trkpt lat="42.8451690" lon="-8.5814360">
        <ele>249.1</ele>
        <time>2021-05-24T07:24:14Z</time>
      </trkpt>
      <trkpt lat="42.8451690" lon="-8.5814360">
        <ele>249.1</ele>
        <time>2021-05-24T07:24:15Z</time>
      </trkpt>
      <trkpt lat="42.8451680" lon="-8.5814360">
        <ele>249.1</ele>
        <time>2021-05-24T07:24:16Z</time>
      </trkpt>
      <trkpt lat="42.8451680" lon="-8.5814370">
        <ele>249.1</ele>
        <time>2021-05-24T07:24:17Z</time>
      </trkpt>
      <trkpt lat="42.8451670" lon="-8.5814370">
        <ele>249.1</ele>
        <time>2021-05-24T07:24:18Z</time>
      </trkpt>
      <trkpt lat="42.8451670" lon="-8.5814370">
        <ele>249.1</ele>
        <time>2021-05-24T07:24:19Z</time>
      </trkpt>
      <trkpt lat="42.8451670" lon="-8.5814370">
        <ele>249.1</ele>
        <time>2021-05-24T07:24:20Z</time>
      </trkpt>
      <trkpt lat="42.8451660" lon="-8.5814370">
        <ele>249.1</ele>
        <time>2021-05-24T07:24:21Z</time>
      </trkpt>
      <trkpt lat="42.8451660" lon="-8.5814370">
        <ele>249.1</ele>
        <time>2021-05-24T07:24:22Z</time>
      </trkpt>
      <trkpt lat="42.8451650" lon="-8.5814370">
        <ele>249.1</ele>
        <time>2021-05-24T07:24:23Z</time>
      </trkpt>
      <trkpt lat="42.8451650" lon="-8.5814370">
        <ele>249.1</ele>
        <time>2021-05-24T07:24:24Z</time>
      </trkpt>
      <trkpt lat="42.8451640" lon="-8.5814370">
        <ele>249.1</ele>
        <time>2021-05-24T07:24:25Z</time>
      </trkpt>
      <trkpt lat="42.8451640" lon="-8.5814370">
        <ele>249.1</ele>
        <time>2021-05-24T07:24:26Z</time>
      </trkpt>
      <trkpt lat="42.8451640" lon="-8.5814370">
        <ele>249.1</ele>
        <time>2021-05-24T07:24:27Z</time>
      </trkpt>
      <trkpt lat="42.8451630" lon="-8.5814370">
        <ele>249.1</ele>
        <time>2021-05-24T07:24:28Z</time>
      </trkpt>
      <trkpt lat="42.8451630" lon="-8.5814370">
        <ele>249.1</ele>
        <time>2021-05-24T07:24:29Z</time>
      </trkpt>
      <trkpt lat="42.8451620" lon="-8.5814370">
        <ele>249.1</ele>
        <time>2021-05-24T07:24:30Z</time>
      </trkpt>
      <trkpt lat="42.8451620" lon="-8.5814370">
        <ele>249.1</ele>
        <time>2021-05-24T07:24:31Z</time>
      </trkpt>
      <trkpt lat="42.8451610" lon="-8.5814380">
        <ele>249.1</ele>
        <time>2021-05-24T07:24:32Z</time>
      </trkpt>
      <trkpt lat="42.8451610" lon="-8.5814380">
        <ele>249.1</ele>
        <time>2021-05-24T07:24:33Z</time>
      </trkpt>
      <trkpt lat="42.8451610" lon="-8.5814380">
        <ele>249.1</ele>
        <time>2021-05-24T07:24:34Z</time>
      </trkpt>
      <trkpt lat="42.8451600" lon="-8.5814380">
        <ele>249.1</ele>
        <time>2021-05-24T07:24:35Z</time>
      </trkpt>
      <trkpt lat="42.8451600" lon="-8.5814380">
        <ele>249.1</ele>
        <time>2021-05-24T07:24:36Z</time>
      </trkpt>
      <trkpt lat="42.8451590" lon="-8.5814380">
        <ele>249.1</ele>
        <time>2021-05-24T07:24:37Z</time>
      </trkpt>
      <trkpt lat="42.8451590" lon="-8.5814380">
        <ele>249.1</ele>
        <time>2021-05-24T07:24:38Z</time>
      </trkpt>
      <trkpt lat="42.8451580" lon="-8.5814380">
        <ele>249.1</ele>
        <time>2021-05-24T07:24:39Z</time>
      </trkpt>
      <trkpt lat="42.8451580" lon="-8.5814380">
        <ele>249.1</ele>
        <time>2021-05-24T07:24:40Z</time>
      </trkpt>
      <trkpt lat="42.8451580" lon="-8.5814380">
        <ele>249.1</ele>
        <time>2021-05-24T07:24:41Z</time>
      </trkpt>
      <trkpt lat="42.8451570" lon="-8.5814380">
        <ele>249.1</ele>
        <time>2021-05-24T07:24:42Z</time>
      </trkpt>
      <trkpt lat="42.8451570" lon="-8.5814380">
        <ele>249.1</ele>
        <time>2021-05-24T07:24:43Z</time>
      </trkpt>
      <trkpt lat="42.8451560" lon="-8.5814380">
        <ele>249.1</ele>
        <time>2021-05-24T07:24:44Z</time>
      </trkpt>
      <trkpt lat="42.8451560" lon="-8.5814380">
        <ele>249.1</ele>
        <time>2021-05-24T07:24:45Z</time>
      </trkpt>
      <trkpt lat="42.8451550" lon="-8.5814380">
        <ele>249.1</ele>
        <time>2021-05-24T07:24:46Z</time>
      </trkpt>
      <trkpt lat="42.8451550" lon="-8.5814390">
        <ele>249.1</ele>
        <time>2021-05-24T07:24:47Z</time>
      </trkpt>
      <trkpt lat="42.8451550" lon="-8.5814390">
        <ele>249.1</ele>
        <time>2021-05-24T07:24:48Z</time>
      </trkpt>
      <trkpt lat="42.8451540" lon="-8.5814390">
        <ele>249.1</ele>
        <time>2021-05-24T07:24:49Z</time>
      </trkpt>
      <trkpt lat="42.8451540" lon="-8.5814390">
        <ele>249.1</ele>
        <time>2021-05-24T07:24:50Z</time>
      </trkpt>
      <trkpt lat="42.8451530" lon="-8.5814390">
        <ele>249.1</ele>
        <time>2021-05-24T07:24:51Z</time>
      </trkpt>
      <trkpt lat="42.8451530" lon="-8.5814390">
        <ele>249.1</ele>
        <time>2021-05-24T07:24:52Z</time>
      </trkpt>
      <trkpt lat="42.8451520" lon="-8.5814390">
        <ele>249.1</ele>
        <time>2021-05-24T07:24:53Z</time>
      </trkpt>
      <trkpt lat="42.8451520" lon="-8.5814390">
        <ele>249.1</ele>
        <time>2021-05-24T07:24:54Z</time>
      </trkpt>
      <trkpt lat="42.8451530" lon="-8.5814370">
        <ele>249.1</ele>
        <time>2021-05-24T07:24:55Z</time>
      </trkpt>
      <trkpt lat="42.8451720" lon="-8.5814360">
        <ele>249.1</ele>
        <time>2021-05-24T07:24:56Z</time>
      </trkpt>
      <trkpt lat="42.8451850" lon="-8.5814400">
        <ele>249.1</ele>
        <time>2021-05-24T07:24:57Z</time>
      </trkpt>
      <trkpt lat="42.8451620" lon="-8.5814500">
        <ele>249.1</ele>
        <time>2021-05-24T07:24:58Z</time>
      </trkpt>
      <trkpt lat="42.8451500" lon="-8.5814560">
        <ele>249.1</ele>
        <time>2021-05-24T07:24:59Z</time>
      </trkpt>
      <trkpt lat="42.8451390" lon="-8.5814620">
        <ele>249.1</ele>
        <time>2021-05-24T07:25:00Z</time>
      </trkpt>
      <trkpt lat="42.8451170" lon="-8.5814700">
        <ele>249.1</ele>
        <time>2021-05-24T07:25:01Z</time>
      </trkpt>
      <trkpt lat="42.8451080" lon="-8.5814730">
        <ele>249.1</ele>
        <time>2021-05-24T07:25:02Z</time>
      </trkpt>
      <trkpt lat="42.8451040" lon="-8.5814700">
        <ele>249.1</ele>
        <time>2021-05-24T07:25:03Z</time>
      </trkpt>
      <trkpt lat="42.8451010" lon="-8.5814660">
        <ele>249.1</ele>
        <time>2021-05-24T07:25:04Z</time>
      </trkpt>
      <trkpt lat="42.8450970" lon="-8.5814620">
        <ele>249.1</ele>
        <time>2021-05-24T07:25:05Z</time>
      </trkpt>
      <trkpt lat="42.8450930" lon="-8.5814580">
        <ele>249.1</ele>
        <time>2021-05-24T07:25:06Z</time>
      </trkpt>
      <trkpt lat="42.8450890" lon="-8.5814550">
        <ele>249.1</ele>
        <time>2021-05-24T07:25:07Z</time>
      </trkpt>
      <trkpt lat="42.8450860" lon="-8.5814510">
        <ele>249.1</ele>
        <time>2021-05-24T07:25:08Z</time>
      </trkpt>
      <trkpt lat="42.8450820" lon="-8.5814470">
        <ele>249.1</ele>
        <time>2021-05-24T07:25:09Z</time>
      </trkpt>
      <trkpt lat="42.8450780" lon="-8.5814430">
        <ele>249.1</ele>
        <time>2021-05-24T07:25:10Z</time>
      </trkpt>
      <trkpt lat="42.8450750" lon="-8.5814460">
        <ele>249.1</ele>
        <time>2021-05-24T07:25:11Z</time>
      </trkpt>
      <trkpt lat="42.8450730" lon="-8.5814470">
        <ele>249.1</ele>
        <time>2021-05-24T07:25:12Z</time>
      </trkpt>
      <trkpt lat="42.8450720" lon="-8.5814490">
        <ele>249.1</ele>
        <time>2021-05-24T07:25:13Z</time>
      </trkpt>
      <trkpt lat="42.8450700" lon="-8.5814510">
        <ele>249.1</ele>
        <time>2021-05-24T07:25:14Z</time>
      </trkpt>
      <trkpt lat="42.8450680" lon="-8.5814520">
        <ele>249.1</ele>
        <time>2021-05-24T07:25:15Z</time>
      </trkpt>
      <trkpt lat="42.8450660" lon="-8.5814540">
        <ele>249.1</ele>
        <time>2021-05-24T07:25:16Z</time>
      </trkpt>
      <trkpt lat="42.8450650" lon="-8.5814560">
        <ele>249.1</ele>
        <time>2021-05-24T07:25:17Z</time>
      </trkpt>
      <trkpt lat="42.8450630" lon="-8.5814570">
        <ele>249.1</ele>
        <time>2021-05-24T07:25:18Z</time>
      </trkpt>
      <trkpt lat="42.8450610" lon="-8.5814590">
        <ele>249.1</ele>
        <time>2021-05-24T07:25:19Z</time>
      </trkpt>
      <trkpt lat="42.8450590" lon="-8.5814600">
        <ele>249.1</ele>
        <time>2021-05-24T07:25:20Z</time>
      </trkpt>
      <trkpt lat="42.8450580" lon="-8.5814620">
        <ele>249.1</ele>
        <time>2021-05-24T07:25:21Z</time>
      </trkpt>
      <trkpt lat="42.8450560" lon="-8.5814640">
        <ele>249.1</ele>
        <time>2021-05-24T07:25:22Z</time>
      </trkpt>
      <trkpt lat="42.8450540" lon="-8.5814650">
        <ele>249.1</ele>
        <time>2021-05-24T07:25:23Z</time>
      </trkpt>
      <trkpt lat="42.8450520" lon="-8.5814670">
        <ele>249.1</ele>
        <time>2021-05-24T07:25:24Z</time>
      </trkpt>
      <trkpt lat="42.8450510" lon="-8.5814690">
        <ele>249.1</ele>
        <time>2021-05-24T07:25:25Z</time>
      </trkpt>
      <trkpt lat="42.8450490" lon="-8.5814700">
        <ele>249.1</ele>
        <time>2021-05-24T07:25:26Z</time>
      </trkpt>
      <trkpt lat="42.8450470" lon="-8.5814720">
        <ele>249.1</ele>
        <time>2021-05-24T07:25:27Z</time>
      </trkpt>
      <trkpt lat="42.8450450" lon="-8.5814750">
        <ele>249.1</ele>
        <time>2021-05-24T07:25:28Z</time>
      </trkpt>
      <trkpt lat="42.8450450" lon="-8.5814750">
        <ele>249.1</ele>
        <time>2021-05-24T07:25:29Z</time>
      </trkpt>
      <trkpt lat="42.8450460" lon="-8.5814740">
        <ele>249.1</ele>
        <time>2021-05-24T07:25:30Z</time>
      </trkpt>
      <trkpt lat="42.8450460" lon="-8.5814740">
        <ele>249.1</ele>
        <time>2021-05-24T07:25:31Z</time>
      </trkpt>
      <trkpt lat="42.8450470" lon="-8.5814740">
        <ele>249.1</ele>
        <time>2021-05-24T07:25:32Z</time>
      </trkpt>
      <trkpt lat="42.8450480" lon="-8.5814740">
        <ele>249.1</ele>
        <time>2021-05-24T07:25:33Z</time>
      </trkpt>
      <trkpt lat="42.8450480" lon="-8.5814740">
        <ele>249.1</ele>
        <time>2021-05-24T07:25:34Z</time>
      </trkpt>
      <trkpt lat="42.8450490" lon="-8.5814740">
        <ele>249.1</ele>
        <time>2021-05-24T07:25:35Z</time>
      </trkpt>
      <trkpt lat="42.8450500" lon="-8.5814730">
        <ele>249.1</ele>
        <time>2021-05-24T07:25:36Z</time>
      </trkpt>
      <trkpt lat="42.8450500" lon="-8.5814730">
        <ele>249.1</ele>
        <time>2021-05-24T07:25:37Z</time>
      </trkpt>
      <trkpt lat="42.8450510" lon="-8.5814730">
        <ele>249.1</ele>
        <time>2021-05-24T07:25:38Z</time>
      </trkpt>
      <trkpt lat="42.8450510" lon="-8.5814730">
        <ele>249.1</ele>
        <time>2021-05-24T07:25:39Z</time>
      </trkpt>
      <trkpt lat="42.8450520" lon="-8.5814730">
        <ele>249.1</ele>
        <time>2021-05-24T07:25:40Z</time>
      </trkpt>
      <trkpt lat="42.8450530" lon="-8.5814730">
        <ele>249.1</ele>
        <time>2021-05-24T07:25:41Z</time>
      </trkpt>
      <trkpt lat="42.8450530" lon="-8.5814720">
        <ele>249.1</ele>
        <time>2021-05-24T07:25:42Z</time>
      </trkpt>
      <trkpt lat="42.8450540" lon="-8.5814720">
        <ele>249.1</ele>
        <time>2021-05-24T07:25:43Z</time>
      </trkpt>
      <trkpt lat="42.8450550" lon="-8.5814720">
        <ele>249.1</ele>
        <time>2021-05-24T07:25:44Z</time>
      </trkpt>
      <trkpt lat="42.8450550" lon="-8.5814720">
        <ele>249.1</ele>
        <time>2021-05-24T07:25:45Z</time>
      </trkpt>
      <trkpt lat="42.8450560" lon="-8.5814720">
        <ele>249.1</ele>
        <time>2021-05-24T07:25:46Z</time>
      </trkpt>
      <trkpt lat="42.8450560" lon="-8.5814720">
        <ele>249.1</ele>
        <time>2021-05-24T07:25:47Z</time>
      </trkpt>
      <trkpt lat="42.8450570" lon="-8.5814710">
        <ele>249.1</ele>
        <time>2021-05-24T07:25:48Z</time>
      </trkpt>
      <trkpt lat="42.8450580" lon="-8.5814710">
        <ele>249.1</ele>
        <time>2021-05-24T07:25:49Z</time>
      </trkpt>
      <trkpt lat="42.8450580" lon="-8.5814710">
        <ele>249.1</ele>
        <time>2021-05-24T07:25:50Z</time>
      </trkpt>
      <trkpt lat="42.8450590" lon="-8.5814710">
        <ele>249.1</ele>
        <time>2021-05-24T07:25:51Z</time>
      </trkpt>
      <trkpt lat="42.8450600" lon="-8.5814710">
        <ele>249.1</ele>
        <time>2021-05-24T07:25:52Z</time>
      </trkpt>
      <trkpt lat="42.8450600" lon="-8.5814710">
        <ele>249.1</ele>
        <time>2021-05-24T07:25:53Z</time>
      </trkpt>
      <trkpt lat="42.8450610" lon="-8.5814700">
        <ele>249.1</ele>
        <time>2021-05-24T07:25:54Z</time>
      </trkpt>
      <trkpt lat="42.8450610" lon="-8.5814700">
        <ele>249.1</ele>
        <time>2021-05-24T07:25:55Z</time>
      </trkpt>
      <trkpt lat="42.8450620" lon="-8.5814700">
        <ele>249.1</ele>
        <time>2021-05-24T07:25:56Z</time>
      </trkpt>
      <trkpt lat="42.8450630" lon="-8.5814700">
        <ele>249.1</ele>
        <time>2021-05-24T07:25:57Z</time>
      </trkpt>
      <trkpt lat="42.8450630" lon="-8.5814700">
        <ele>249.1</ele>
        <time>2021-05-24T07:25:58Z</time>
      </trkpt>
      <trkpt lat="42.8450640" lon="-8.5814700">
        <ele>249.1</ele>
        <time>2021-05-24T07:25:59Z</time>
      </trkpt>
      <trkpt lat="42.8450650" lon="-8.5814690">
        <ele>249.1</ele>
        <time>2021-05-24T07:26:00Z</time>
      </trkpt>
      <trkpt lat="42.8450650" lon="-8.5814690">
        <ele>249.1</ele>
        <time>2021-05-24T07:26:01Z</time>
      </trkpt>
      <trkpt lat="42.8450660" lon="-8.5814690">
        <ele>249.1</ele>
        <time>2021-05-24T07:26:02Z</time>
      </trkpt>
      <trkpt lat="42.8450660" lon="-8.5814690">
        <ele>249.1</ele>
        <time>2021-05-24T07:26:03Z</time>
      </trkpt>
      <trkpt lat="42.8450670" lon="-8.5814690">
        <ele>249.1</ele>
        <time>2021-05-24T07:26:04Z</time>
      </trkpt>
      <trkpt lat="42.8450680" lon="-8.5814690">
        <ele>249.1</ele>
        <time>2021-05-24T07:26:05Z</time>
      </trkpt>
      <trkpt lat="42.8450680" lon="-8.5814680">
        <ele>249.1</ele>
        <time>2021-05-24T07:26:06Z</time>
      </trkpt>
      <trkpt lat="42.8450690" lon="-8.5814680">
        <ele>249.1</ele>
        <time>2021-05-24T07:26:07Z</time>
      </trkpt>
      <trkpt lat="42.8450700" lon="-8.5814680">
        <ele>249.1</ele>
        <time>2021-05-24T07:26:08Z</time>
      </trkpt>
      <trkpt lat="42.8450700" lon="-8.5814680">
        <ele>249.1</ele>
        <time>2021-05-24T07:26:09Z</time>
      </trkpt>
      <trkpt lat="42.8450710" lon="-8.5814680">
        <ele>249.1</ele>
        <time>2021-05-24T07:26:10Z</time>
      </trkpt>
      <trkpt lat="42.8450710" lon="-8.5814680">
        <ele>249.1</ele>
        <time>2021-05-24T07:26:11Z</time>
      </trkpt>
      <trkpt lat="42.8450720" lon="-8.5814670">
        <ele>249.1</ele>
        <time>2021-05-24T07:26:12Z</time>
      </trkpt>
      <trkpt lat="42.8450730" lon="-8.5814670">
        <ele>249.1</ele>
        <time>2021-05-24T07:26:13Z</time>
      </trkpt>
      <trkpt lat="42.8450730" lon="-8.5814670">
        <ele>249.1</ele>
        <time>2021-05-24T07:26:14Z</time>
      </trkpt>
      <trkpt lat="42.8450740" lon="-8.5814670">
        <ele>249.1</ele>
        <time>2021-05-24T07:26:15Z</time>
      </trkpt>
      <trkpt lat="42.8450750" lon="-8.5814670">
        <ele>249.1</ele>
        <time>2021-05-24T07:26:16Z</time>
      </trkpt>
      <trkpt lat="42.8450750" lon="-8.5814670">
        <ele>249.1</ele>
        <time>2021-05-24T07:26:17Z</time>
      </trkpt>
      <trkpt lat="42.8450760" lon="-8.5814660">
        <ele>249.1</ele>
        <time>2021-05-24T07:26:18Z</time>
      </trkpt>
      <trkpt lat="42.8450760" lon="-8.5814660">
        <ele>249.1</ele>
        <time>2021-05-24T07:26:19Z</time>
      </trkpt>
      <trkpt lat="42.8450770" lon="-8.5814660">
        <ele>249.1</ele>
        <time>2021-05-24T07:26:20Z</time>
      </trkpt>
      <trkpt lat="42.8450780" lon="-8.5814660">
        <ele>249.1</ele>
        <time>2021-05-24T07:26:21Z</time>
      </trkpt>
      <trkpt lat="42.8450780" lon="-8.5814660">
        <ele>249.1</ele>
        <time>2021-05-24T07:26:22Z</time>
      </trkpt>
      <trkpt lat="42.8450790" lon="-8.5814660">
        <ele>249.1</ele>
        <time>2021-05-24T07:26:23Z</time>
      </trkpt>
      <trkpt lat="42.8450800" lon="-8.5814650">
        <ele>249.1</ele>
        <time>2021-05-24T07:26:24Z</time>
      </trkpt>
      <trkpt lat="42.8450800" lon="-8.5814650">
        <ele>249.1</ele>
        <time>2021-05-24T07:26:25Z</time>
      </trkpt>
      <trkpt lat="42.8450810" lon="-8.5814650">
        <ele>249.1</ele>
        <time>2021-05-24T07:26:26Z</time>
      </trkpt>
      <trkpt lat="42.8450810" lon="-8.5814650">
        <ele>249.1</ele>
        <time>2021-05-24T07:26:27Z</time>
      </trkpt>
      <trkpt lat="42.8450820" lon="-8.5814650">
        <ele>249.1</ele>
        <time>2021-05-24T07:26:28Z</time>
      </trkpt>
      <trkpt lat="42.8450830" lon="-8.5814650">
        <ele>249.1</ele>
        <time>2021-05-24T07:26:29Z</time>
      </trkpt>
      <trkpt lat="42.8450830" lon="-8.5814640">
        <ele>249.1</ele>
        <time>2021-05-24T07:26:30Z</time>
      </trkpt>
      <trkpt lat="42.8450840" lon="-8.5814640">
        <ele>249.1</ele>
        <time>2021-05-24T07:26:31Z</time>
      </trkpt>
      <trkpt lat="42.8450850" lon="-8.5814640">
        <ele>249.1</ele>
        <time>2021-05-24T07:26:32Z</time>
      </trkpt>
      <trkpt lat="42.8450850" lon="-8.5814640">
        <ele>249.1</ele>
        <time>2021-05-24T07:26:33Z</time>
      </trkpt>
      <trkpt lat="42.8450860" lon="-8.5814640">
        <ele>249.1</ele>
        <time>2021-05-24T07:26:34Z</time>
      </trkpt>
      <trkpt lat="42.8450860" lon="-8.5814640">
        <ele>249.1</ele>
        <time>2021-05-24T07:26:35Z</time>
      </trkpt>
      <trkpt lat="42.8450870" lon="-8.5814630">
        <ele>249.1</ele>
        <time>2021-05-24T07:26:36Z</time>
      </trkpt>
      <trkpt lat="42.8450880" lon="-8.5814630">
        <ele>249.1</ele>
        <time>2021-05-24T07:26:37Z</time>
      </trkpt>
      <trkpt lat="42.8450880" lon="-8.5814630">
        <ele>249.1</ele>
        <time>2021-05-24T07:26:38Z</time>
      </trkpt>
      <trkpt lat="42.8450890" lon="-8.5814630">
        <ele>249.1</ele>
        <time>2021-05-24T07:26:39Z</time>
      </trkpt>
      <trkpt lat="42.8450900" lon="-8.5814630">
        <ele>249.1</ele>
        <time>2021-05-24T07:26:40Z</time>
      </trkpt>
      <trkpt lat="42.8450900" lon="-8.5814630">
        <ele>249.1</ele>
        <time>2021-05-24T07:26:41Z</time>
      </trkpt>
      <trkpt lat="42.8450910" lon="-8.5814620">
        <ele>249.1</ele>
        <time>2021-05-24T07:26:42Z</time>
      </trkpt>
      <trkpt lat="42.8450910" lon="-8.5814620">
        <ele>249.1</ele>
        <time>2021-05-24T07:26:43Z</time>
      </trkpt>
      <trkpt lat="42.8450920" lon="-8.5814620">
        <ele>249.1</ele>
        <time>2021-05-24T07:26:44Z</time>
      </trkpt>
      <trkpt lat="42.8450890" lon="-8.5814630">
        <ele>249.1</ele>
        <time>2021-05-24T07:26:45Z</time>
      </trkpt>
      <trkpt lat="42.8450890" lon="-8.5814630">
        <ele>249.1</ele>
        <time>2021-05-24T07:26:46Z</time>
      </trkpt>
      <trkpt lat="42.8450920" lon="-8.5814580">
        <ele>249.1</ele>
        <time>2021-05-24T07:26:47Z</time>
      </trkpt>
      <trkpt lat="42.8450930" lon="-8.5814560">
        <ele>249.1</ele>
        <time>2021-05-24T07:26:48Z</time>
      </trkpt>
      <trkpt lat="42.8450950" lon="-8.5814530">
        <ele>249.1</ele>
        <time>2021-05-24T07:26:49Z</time>
      </trkpt>
      <trkpt lat="42.8451010" lon="-8.5814490">
        <ele>249.1</ele>
        <time>2021-05-24T07:26:50Z</time>
      </trkpt>
      <trkpt lat="42.8451010" lon="-8.5814490">
        <ele>249.1</ele>
        <time>2021-05-24T07:26:51Z</time>
      </trkpt>
      <trkpt lat="42.8450960" lon="-8.5814460">
        <ele>249.1</ele>
        <time>2021-05-24T07:26:52Z</time>
      </trkpt>
      <trkpt lat="42.8450960" lon="-8.5814460">
        <ele>249.1</ele>
        <time>2021-05-24T07:26:53Z</time>
      </trkpt>
      <trkpt lat="42.8451190" lon="-8.5814360">
        <ele>249.1</ele>
        <time>2021-05-24T07:26:54Z</time>
      </trkpt>
      <trkpt lat="42.8451310" lon="-8.5814350">
        <ele>249.1</ele>
        <time>2021-05-24T07:26:55Z</time>
      </trkpt>
      <trkpt lat="42.8451390" lon="-8.5814330">
        <ele>249.1</ele>
        <time>2021-05-24T07:26:56Z</time>
      </trkpt>
      <trkpt lat="42.8451390" lon="-8.5814330">
        <ele>249.1</ele>
        <time>2021-05-24T07:26:57Z</time>
      </trkpt>
      <trkpt lat="42.8451300" lon="-8.5814240">
        <ele>249.1</ele>
        <time>2021-05-24T07:26:58Z</time>
      </trkpt>
      <trkpt lat="42.8451320" lon="-8.5814240">
        <ele>249.1</ele>
        <time>2021-05-24T07:26:59Z</time>
      </trkpt>
      <trkpt lat="42.8451300" lon="-8.5814270">
        <ele>249.1</ele>
        <time>2021-05-24T07:27:00Z</time>
      </trkpt>
      <trkpt lat="42.8451160" lon="-8.5814290">
        <ele>249.1</ele>
        <time>2021-05-24T07:27:01Z</time>
      </trkpt>
      <trkpt lat="42.8451110" lon="-8.5814320">
        <ele>249.1</ele>
        <time>2021-05-24T07:27:02Z</time>
      </trkpt>
      <trkpt lat="42.8451110" lon="-8.5814330">
        <ele>249.1</ele>
        <time>2021-05-24T07:27:03Z</time>
      </trkpt>
      <trkpt lat="42.8451110" lon="-8.5814330">
        <ele>249.1</ele>
        <time>2021-05-24T07:27:04Z</time>
      </trkpt>
      <trkpt lat="42.8451110" lon="-8.5814330">
        <ele>249.1</ele>
        <time>2021-05-24T07:27:05Z</time>
      </trkpt>
      <trkpt lat="42.8451100" lon="-8.5814340">
        <ele>249.1</ele>
        <time>2021-05-24T07:27:06Z</time>
      </trkpt>
      <trkpt lat="42.8451100" lon="-8.5814340">
        <ele>249.1</ele>
        <time>2021-05-24T07:27:07Z</time>
      </trkpt>
      <trkpt lat="42.8451100" lon="-8.5814340">
        <ele>249.1</ele>
        <time>2021-05-24T07:27:08Z</time>
      </trkpt>
      <trkpt lat="42.8451100" lon="-8.5814350">
        <ele>249.1</ele>
        <time>2021-05-24T07:27:09Z</time>
      </trkpt>
      <trkpt lat="42.8451100" lon="-8.5814350">
        <ele>249.1</ele>
        <time>2021-05-24T07:27:10Z</time>
      </trkpt>
      <trkpt lat="42.8451100" lon="-8.5814350">
        <ele>249.1</ele>
        <time>2021-05-24T07:27:11Z</time>
      </trkpt>
      <trkpt lat="42.8451100" lon="-8.5814360">
        <ele>249.1</ele>
        <time>2021-05-24T07:27:12Z</time>
      </trkpt>
      <trkpt lat="42.8451100" lon="-8.5814360">
        <ele>249.1</ele>
        <time>2021-05-24T07:27:13Z</time>
      </trkpt>
      <trkpt lat="42.8451100" lon="-8.5814360">
        <ele>249.1</ele>
        <time>2021-05-24T07:27:14Z</time>
      </trkpt>
      <trkpt lat="42.8451100" lon="-8.5814370">
        <ele>249.1</ele>
        <time>2021-05-24T07:27:15Z</time>
      </trkpt>
      <trkpt lat="42.8451090" lon="-8.5814370">
        <ele>249.1</ele>
        <time>2021-05-24T07:27:16Z</time>
      </trkpt>
      <trkpt lat="42.8451090" lon="-8.5814370">
        <ele>249.1</ele>
        <time>2021-05-24T07:27:17Z</time>
      </trkpt>
      <trkpt lat="42.8451090" lon="-8.5814380">
        <ele>249.1</ele>
        <time>2021-05-24T07:27:18Z</time>
      </trkpt>
      <trkpt lat="42.8451090" lon="-8.5814380">
        <ele>249.1</ele>
        <time>2021-05-24T07:27:19Z</time>
      </trkpt>
      <trkpt lat="42.8451090" lon="-8.5814390">
        <ele>249.1</ele>
        <time>2021-05-24T07:27:20Z</time>
      </trkpt>
      <trkpt lat="42.8451090" lon="-8.5814390">
        <ele>249.1</ele>
        <time>2021-05-24T07:27:21Z</time>
      </trkpt>
      <trkpt lat="42.8451090" lon="-8.5814390">
        <ele>249.1</ele>
        <time>2021-05-24T07:27:22Z</time>
      </trkpt>
      <trkpt lat="42.8451090" lon="-8.5814400">
        <ele>249.1</ele>
        <time>2021-05-24T07:27:23Z</time>
      </trkpt>
      <trkpt lat="42.8451090" lon="-8.5814400">
        <ele>249.1</ele>
        <time>2021-05-24T07:27:24Z</time>
      </trkpt>
      <trkpt lat="42.8451080" lon="-8.5814400">
        <ele>249.1</ele>
        <time>2021-05-24T07:27:25Z</time>
      </trkpt>
      <trkpt lat="42.8451080" lon="-8.5814410">
        <ele>249.1</ele>
        <time>2021-05-24T07:27:26Z</time>
      </trkpt>
      <trkpt lat="42.8451080" lon="-8.5814410">
        <ele>249.1</ele>
        <time>2021-05-24T07:27:27Z</time>
      </trkpt>
      <trkpt lat="42.8451080" lon="-8.5814410">
        <ele>249.1</ele>
        <time>2021-05-24T07:27:28Z</time>
      </trkpt>
      <trkpt lat="42.8451080" lon="-8.5814420">
        <ele>249.1</ele>
        <time>2021-05-24T07:27:29Z</time>
      </trkpt>
      <trkpt lat="42.8451080" lon="-8.5814420">
        <ele>249.1</ele>
        <time>2021-05-24T07:27:30Z</time>
      </trkpt>
      <trkpt lat="42.8451080" lon="-8.5814420">
        <ele>249.1</ele>
        <time>2021-05-24T07:27:31Z</time>
      </trkpt>
      <trkpt lat="42.8451080" lon="-8.5814430">
        <ele>249.1</ele>
        <time>2021-05-24T07:27:32Z</time>
      </trkpt>
      <trkpt lat="42.8451080" lon="-8.5814430">
        <ele>249.1</ele>
        <time>2021-05-24T07:27:33Z</time>
      </trkpt>
      <trkpt lat="42.8451070" lon="-8.5814430">
        <ele>249.1</ele>
        <time>2021-05-24T07:27:34Z</time>
      </trkpt>
      <trkpt lat="42.8451070" lon="-8.5814440">
        <ele>249.1</ele>
        <time>2021-05-24T07:27:35Z</time>
      </trkpt>
      <trkpt lat="42.8451070" lon="-8.5814440">
        <ele>249.1</ele>
        <time>2021-05-24T07:27:36Z</time>
      </trkpt>
      <trkpt lat="42.8451070" lon="-8.5814440">
        <ele>249.1</ele>
        <time>2021-05-24T07:27:37Z</time>
      </trkpt>
      <trkpt lat="42.8451070" lon="-8.5814450">
        <ele>249.1</ele>
        <time>2021-05-24T07:27:38Z</time>
      </trkpt>
      <trkpt lat="42.8451070" lon="-8.5814450">
        <ele>249.1</ele>
        <time>2021-05-24T07:27:39Z</time>
      </trkpt>
      <trkpt lat="42.8451070" lon="-8.5814450">
        <ele>249.1</ele>
        <time>2021-05-24T07:27:40Z</time>
      </trkpt>
      <trkpt lat="42.8451070" lon="-8.5814460">
        <ele>249.1</ele>
        <time>2021-05-24T07:27:41Z</time>
      </trkpt>
      <trkpt lat="42.8451070" lon="-8.5814460">
        <ele>249.1</ele>
        <time>2021-05-24T07:27:42Z</time>
      </trkpt>
      <trkpt lat="42.8451070" lon="-8.5814460">
        <ele>249.1</ele>
        <time>2021-05-24T07:27:43Z</time>
      </trkpt>
      <trkpt lat="42.8451060" lon="-8.5814470">
        <ele>249.1</ele>
        <time>2021-05-24T07:27:44Z</time>
      </trkpt>
      <trkpt lat="42.8451060" lon="-8.5814470">
        <ele>249.1</ele>
        <time>2021-05-24T07:27:45Z</time>
      </trkpt>
      <trkpt lat="42.8451060" lon="-8.5814470">
        <ele>249.1</ele>
        <time>2021-05-24T07:27:46Z</time>
      </trkpt>
      <trkpt lat="42.8451060" lon="-8.5814480">
        <ele>249.1</ele>
        <time>2021-05-24T07:27:47Z</time>
      </trkpt>
      <trkpt lat="42.8451060" lon="-8.5814480">
        <ele>249.1</ele>
        <time>2021-05-24T07:27:48Z</time>
      </trkpt>
      <trkpt lat="42.8451060" lon="-8.5814480">
        <ele>249.1</ele>
        <time>2021-05-24T07:27:49Z</time>
      </trkpt>
      <trkpt lat="42.8451060" lon="-8.5814490">
        <ele>249.1</ele>
        <time>2021-05-24T07:27:50Z</time>
      </trkpt>
      <trkpt lat="42.8451060" lon="-8.5814490">
        <ele>249.1</ele>
        <time>2021-05-24T07:27:51Z</time>
      </trkpt>
      <trkpt lat="42.8451060" lon="-8.5814490">
        <ele>249.1</ele>
        <time>2021-05-24T07:27:52Z</time>
      </trkpt>
      <trkpt lat="42.8451050" lon="-8.5814500">
        <ele>249.1</ele>
        <time>2021-05-24T07:27:53Z</time>
      </trkpt>
      <trkpt lat="42.8451050" lon="-8.5814500">
        <ele>249.1</ele>
        <time>2021-05-24T07:27:54Z</time>
      </trkpt>
      <trkpt lat="42.8451050" lon="-8.5814500">
        <ele>249.1</ele>
        <time>2021-05-24T07:27:55Z</time>
      </trkpt>
      <trkpt lat="42.8451050" lon="-8.5814510">
        <ele>249.1</ele>
        <time>2021-05-24T07:27:56Z</time>
      </trkpt>
      <trkpt lat="42.8451050" lon="-8.5814510">
        <ele>249.1</ele>
        <time>2021-05-24T07:27:57Z</time>
      </trkpt>
      <trkpt lat="42.8451050" lon="-8.5814520">
        <ele>249.1</ele>
        <time>2021-05-24T07:27:58Z</time>
      </trkpt>
      <trkpt lat="42.8451050" lon="-8.5814520">
        <ele>249.1</ele>
        <time>2021-05-24T07:27:59Z</time>
      </trkpt>
      <trkpt lat="42.8451050" lon="-8.5814520">
        <ele>249.1</ele>
        <time>2021-05-24T07:28:00Z</time>
      </trkpt>
      <trkpt lat="42.8451050" lon="-8.5814530">
        <ele>249.1</ele>
        <time>2021-05-24T07:28:01Z</time>
      </trkpt>
      <trkpt lat="42.8451040" lon="-8.5814530">
        <ele>249.1</ele>
        <time>2021-05-24T07:28:02Z</time>
      </trkpt>
      <trkpt lat="42.8451040" lon="-8.5814530">
        <ele>249.1</ele>
        <time>2021-05-24T07:28:03Z</time>
      </trkpt>
      <trkpt lat="42.8451040" lon="-8.5814540">
        <ele>249.1</ele>
        <time>2021-05-24T07:28:04Z</time>
      </trkpt>
      <trkpt lat="42.8451040" lon="-8.5814540">
        <ele>249.1</ele>
        <time>2021-05-24T07:28:05Z</time>
      </trkpt>
      <trkpt lat="42.8451040" lon="-8.5814540">
        <ele>249.1</ele>
        <time>2021-05-24T07:28:06Z</time>
      </trkpt>
      <trkpt lat="42.8451040" lon="-8.5814550">
        <ele>249.1</ele>
        <time>2021-05-24T07:28:07Z</time>
      </trkpt>
      <trkpt lat="42.8451040" lon="-8.5814550">
        <ele>249.1</ele>
        <time>2021-05-24T07:28:08Z</time>
      </trkpt>
      <trkpt lat="42.8451040" lon="-8.5814550">
        <ele>249.1</ele>
        <time>2021-05-24T07:28:09Z</time>
      </trkpt>
      <trkpt lat="42.8451040" lon="-8.5814560">
        <ele>249.1</ele>
        <time>2021-05-24T07:28:10Z</time>
      </trkpt>
      <trkpt lat="42.8451040" lon="-8.5814560">
        <ele>249.1</ele>
        <time>2021-05-24T07:28:11Z</time>
      </trkpt>
      <trkpt lat="42.8451030" lon="-8.5814560">
        <ele>249.1</ele>
        <time>2021-05-24T07:28:12Z</time>
      </trkpt>
      <trkpt lat="42.8451030" lon="-8.5814570">
        <ele>249.1</ele>
        <time>2021-05-24T07:28:13Z</time>
      </trkpt>
      <trkpt lat="42.8451030" lon="-8.5814570">
        <ele>249.1</ele>
        <time>2021-05-24T07:28:14Z</time>
      </trkpt>
      <trkpt lat="42.8451030" lon="-8.5814570">
        <ele>249.1</ele>
        <time>2021-05-24T07:28:15Z</time>
      </trkpt>
      <trkpt lat="42.8451030" lon="-8.5814580">
        <ele>249.1</ele>
        <time>2021-05-24T07:28:16Z</time>
      </trkpt>
      <trkpt lat="42.8451030" lon="-8.5814580">
        <ele>249.1</ele>
        <time>2021-05-24T07:28:17Z</time>
      </trkpt>
      <trkpt lat="42.8451030" lon="-8.5814580">
        <ele>249.1</ele>
        <time>2021-05-24T07:28:18Z</time>
      </trkpt>
      <trkpt lat="42.8451030" lon="-8.5814590">
        <ele>249.1</ele>
        <time>2021-05-24T07:28:19Z</time>
      </trkpt>
      <trkpt lat="42.8451030" lon="-8.5814590">
        <ele>249.1</ele>
        <time>2021-05-24T07:28:20Z</time>
      </trkpt>
      <trkpt lat="42.8451020" lon="-8.5814590">
        <ele>249.1</ele>
        <time>2021-05-24T07:28:21Z</time>
      </trkpt>
      <trkpt lat="42.8451020" lon="-8.5814600">
        <ele>249.1</ele>
        <time>2021-05-24T07:28:22Z</time>
      </trkpt>
      <trkpt lat="42.8451020" lon="-8.5814600">
        <ele>249.1</ele>
        <time>2021-05-24T07:28:23Z</time>
      </trkpt>
      <trkpt lat="42.8451020" lon="-8.5814600">
        <ele>249.1</ele>
        <time>2021-05-24T07:28:24Z</time>
      </trkpt>
      <trkpt lat="42.8451020" lon="-8.5814610">
        <ele>249.1</ele>
        <time>2021-05-24T07:28:25Z</time>
      </trkpt>
      <trkpt lat="42.8451020" lon="-8.5814610">
        <ele>249.1</ele>
        <time>2021-05-24T07:28:26Z</time>
      </trkpt>
      <trkpt lat="42.8451020" lon="-8.5814610">
        <ele>249.1</ele>
        <time>2021-05-24T07:28:27Z</time>
      </trkpt>
      <trkpt lat="42.8451020" lon="-8.5814620">
        <ele>249.1</ele>
        <time>2021-05-24T07:28:28Z</time>
      </trkpt>
      <trkpt lat="42.8451020" lon="-8.5814620">
        <ele>249.1</ele>
        <time>2021-05-24T07:28:29Z</time>
      </trkpt>
      <trkpt lat="42.8451010" lon="-8.5814620">
        <ele>249.1</ele>
        <time>2021-05-24T07:28:30Z</time>
      </trkpt>
      <trkpt lat="42.8451010" lon="-8.5814630">
        <ele>249.1</ele>
        <time>2021-05-24T07:28:31Z</time>
      </trkpt>
      <trkpt lat="42.8451010" lon="-8.5814630">
        <ele>249.1</ele>
        <time>2021-05-24T07:28:32Z</time>
      </trkpt>
      <trkpt lat="42.8451010" lon="-8.5814630">
        <ele>249.1</ele>
        <time>2021-05-24T07:28:33Z</time>
      </trkpt>
      <trkpt lat="42.8451010" lon="-8.5814640">
        <ele>249.1</ele>
        <time>2021-05-24T07:28:34Z</time>
      </trkpt>
      <trkpt lat="42.8451010" lon="-8.5814640">
        <ele>249.1</ele>
        <time>2021-05-24T07:28:35Z</time>
      </trkpt>
      <trkpt lat="42.8451010" lon="-8.5814650">
        <ele>249.1</ele>
        <time>2021-05-24T07:28:36Z</time>
      </trkpt>
      <trkpt lat="42.8451010" lon="-8.5814650">
        <ele>249.1</ele>
        <time>2021-05-24T07:28:37Z</time>
      </trkpt>
      <trkpt lat="42.8451010" lon="-8.5814650">
        <ele>249.1</ele>
        <time>2021-05-24T07:28:38Z</time>
      </trkpt>
      <trkpt lat="42.8451010" lon="-8.5814660">
        <ele>249.1</ele>
        <time>2021-05-24T07:28:39Z</time>
      </trkpt>
      <trkpt lat="42.8451000" lon="-8.5814660">
        <ele>249.1</ele>
        <time>2021-05-24T07:28:40Z</time>
      </trkpt>
      <trkpt lat="42.8451000" lon="-8.5814660">
        <ele>249.1</ele>
        <time>2021-05-24T07:28:41Z</time>
      </trkpt>
      <trkpt lat="42.8451000" lon="-8.5814670">
        <ele>249.1</ele>
        <time>2021-05-24T07:28:42Z</time>
      </trkpt>
      <trkpt lat="42.8451000" lon="-8.5814670">
        <ele>249.1</ele>
        <time>2021-05-24T07:28:43Z</time>
      </trkpt>
      <trkpt lat="42.8451000" lon="-8.5814670">
        <ele>249.1</ele>
        <time>2021-05-24T07:28:44Z</time>
      </trkpt>
      <trkpt lat="42.8451000" lon="-8.5814680">
        <ele>249.1</ele>
        <time>2021-05-24T07:28:45Z</time>
      </trkpt>
      <trkpt lat="42.8451000" lon="-8.5814680">
        <ele>249.1</ele>
        <time>2021-05-24T07:28:46Z</time>
      </trkpt>
      <trkpt lat="42.8451000" lon="-8.5814680">
        <ele>249.1</ele>
        <time>2021-05-24T07:28:47Z</time>
      </trkpt>
      <trkpt lat="42.8451000" lon="-8.5814690">
        <ele>249.1</ele>
        <time>2021-05-24T07:28:48Z</time>
      </trkpt>
      <trkpt lat="42.8450990" lon="-8.5814690">
        <ele>249.1</ele>
        <time>2021-05-24T07:28:49Z</time>
      </trkpt>
      <trkpt lat="42.8450990" lon="-8.5814690">
        <ele>249.1</ele>
        <time>2021-05-24T07:28:50Z</time>
      </trkpt>
      <trkpt lat="42.8450990" lon="-8.5814700">
        <ele>249.1</ele>
        <time>2021-05-24T07:28:51Z</time>
      </trkpt>
      <trkpt lat="42.8450990" lon="-8.5814700">
        <ele>249.1</ele>
        <time>2021-05-24T07:28:52Z</time>
      </trkpt>
      <trkpt lat="42.8450990" lon="-8.5814700">
        <ele>249.1</ele>
        <time>2021-05-24T07:28:53Z</time>
      </trkpt>
      <trkpt lat="42.8450990" lon="-8.5814710">
        <ele>249.1</ele>
        <time>2021-05-24T07:28:54Z</time>
      </trkpt>
      <trkpt lat="42.8450990" lon="-8.5814710">
        <ele>249.1</ele>
        <time>2021-05-24T07:28:55Z</time>
      </trkpt>
      <trkpt lat="42.8450990" lon="-8.5814710">
        <ele>249.1</ele>
        <time>2021-05-24T07:28:56Z</time>
      </trkpt>
      <trkpt lat="42.8450990" lon="-8.5814720">
        <ele>249.1</ele>
        <time>2021-05-24T07:28:57Z</time>
      </trkpt>
      <trkpt lat="42.8450980" lon="-8.5814720">
        <ele>249.1</ele>
        <time>2021-05-24T07:28:58Z</time>
      </trkpt>
      <trkpt lat="42.8450980" lon="-8.5814720">
        <ele>249.1</ele>
        <time>2021-05-24T07:28:59Z</time>
      </trkpt>
      <trkpt lat="42.8450980" lon="-8.5814730">
        <ele>249.1</ele>
        <time>2021-05-24T07:29:00Z</time>
      </trkpt>
      <trkpt lat="42.8450980" lon="-8.5814730">
        <ele>249.1</ele>
        <time>2021-05-24T07:29:01Z</time>
      </trkpt>
      <trkpt lat="42.8450980" lon="-8.5814730">
        <ele>249.1</ele>
        <time>2021-05-24T07:29:02Z</time>
      </trkpt>
      <trkpt lat="42.8450980" lon="-8.5814740">
        <ele>249.1</ele>
        <time>2021-05-24T07:29:03Z</time>
      </trkpt>
      <trkpt lat="42.8450980" lon="-8.5814740">
        <ele>249.1</ele>
        <time>2021-05-24T07:29:04Z</time>
      </trkpt>
      <trkpt lat="42.8450980" lon="-8.5814740">
        <ele>249.1</ele>
        <time>2021-05-24T07:29:05Z</time>
      </trkpt>
      <trkpt lat="42.8450980" lon="-8.5814750">
        <ele>249.1</ele>
        <time>2021-05-24T07:29:06Z</time>
      </trkpt>
      <trkpt lat="42.8450980" lon="-8.5814750">
        <ele>249.1</ele>
        <time>2021-05-24T07:29:07Z</time>
      </trkpt>
      <trkpt lat="42.8450970" lon="-8.5814750">
        <ele>249.1</ele>
        <time>2021-05-24T07:29:08Z</time>
      </trkpt>
      <trkpt lat="42.8450970" lon="-8.5814760">
        <ele>249.1</ele>
        <time>2021-05-24T07:29:09Z</time>
      </trkpt>
      <trkpt lat="42.8450970" lon="-8.5814760">
        <ele>249.1</ele>
        <time>2021-05-24T07:29:10Z</time>
      </trkpt>
      <trkpt lat="42.8450970" lon="-8.5814760">
        <ele>249.1</ele>
        <time>2021-05-24T07:29:11Z</time>
      </trkpt>
      <trkpt lat="42.8450970" lon="-8.5814770">
        <ele>249.1</ele>
        <time>2021-05-24T07:29:12Z</time>
      </trkpt>
      <trkpt lat="42.8450970" lon="-8.5814770">
        <ele>249.1</ele>
        <time>2021-05-24T07:29:13Z</time>
      </trkpt>
      <trkpt lat="42.8450970" lon="-8.5814780">
        <ele>249.1</ele>
        <time>2021-05-24T07:29:14Z</time>
      </trkpt>
      <trkpt lat="42.8450970" lon="-8.5814780">
        <ele>249.1</ele>
        <time>2021-05-24T07:29:15Z</time>
      </trkpt>
      <trkpt lat="42.8450970" lon="-8.5814780">
        <ele>249.1</ele>
        <time>2021-05-24T07:29:16Z</time>
      </trkpt>
      <trkpt lat="42.8450960" lon="-8.5814790">
        <ele>249.1</ele>
        <time>2021-05-24T07:29:17Z</time>
      </trkpt>
      <trkpt lat="42.8450960" lon="-8.5814790">
        <ele>249.1</ele>
        <time>2021-05-24T07:29:18Z</time>
      </trkpt>
      <trkpt lat="42.8450960" lon="-8.5814790">
        <ele>249.1</ele>
        <time>2021-05-24T07:29:19Z</time>
      </trkpt>
      <trkpt lat="42.8450960" lon="-8.5814800">
        <ele>249.1</ele>
        <time>2021-05-24T07:29:20Z</time>
      </trkpt>
      <trkpt lat="42.8450960" lon="-8.5814800">
        <ele>249.1</ele>
        <time>2021-05-24T07:29:21Z</time>
      </trkpt>
      <trkpt lat="42.8450960" lon="-8.5814800">
        <ele>249.1</ele>
        <time>2021-05-24T07:29:22Z</time>
      </trkpt>
      <trkpt lat="42.8450960" lon="-8.5814810">
        <ele>249.1</ele>
        <time>2021-05-24T07:29:23Z</time>
      </trkpt>
      <trkpt lat="42.8450960" lon="-8.5814810">
        <ele>249.1</ele>
        <time>2021-05-24T07:29:24Z</time>
      </trkpt>
      <trkpt lat="42.8450960" lon="-8.5814810">
        <ele>249.1</ele>
        <time>2021-05-24T07:29:25Z</time>
      </trkpt>
      <trkpt lat="42.8450950" lon="-8.5814820">
        <ele>249.1</ele>
        <time>2021-05-24T07:29:26Z</time>
      </trkpt>
      <trkpt lat="42.8450950" lon="-8.5814820">
        <ele>249.1</ele>
        <time>2021-05-24T07:29:27Z</time>
      </trkpt>
      <trkpt lat="42.8450950" lon="-8.5814820">
        <ele>249.1</ele>
        <time>2021-05-24T07:29:28Z</time>
      </trkpt>
      <trkpt lat="42.8450950" lon="-8.5814830">
        <ele>249.1</ele>
        <time>2021-05-24T07:29:29Z</time>
      </trkpt>
      <trkpt lat="42.8450950" lon="-8.5814830">
        <ele>249.1</ele>
        <time>2021-05-24T07:29:30Z</time>
      </trkpt>
      <trkpt lat="42.8450950" lon="-8.5814830">
        <ele>249.1</ele>
        <time>2021-05-24T07:29:31Z</time>
      </trkpt>
      <trkpt lat="42.8450950" lon="-8.5814840">
        <ele>249.1</ele>
        <time>2021-05-24T07:29:32Z</time>
      </trkpt>
      <trkpt lat="42.8450950" lon="-8.5814840">
        <ele>249.1</ele>
        <time>2021-05-24T07:29:33Z</time>
      </trkpt>
      <trkpt lat="42.8450950" lon="-8.5814840">
        <ele>249.1</ele>
        <time>2021-05-24T07:29:34Z</time>
      </trkpt>
      <trkpt lat="42.8450950" lon="-8.5814850">
        <ele>249.1</ele>
        <time>2021-05-24T07:29:35Z</time>
      </trkpt>
      <trkpt lat="42.8450940" lon="-8.5814850">
        <ele>249.1</ele>
        <time>2021-05-24T07:29:36Z</time>
      </trkpt>
      <trkpt lat="42.8450940" lon="-8.5814850">
        <ele>249.1</ele>
        <time>2021-05-24T07:29:37Z</time>
      </trkpt>
      <trkpt lat="42.8450940" lon="-8.5814860">
        <ele>249.1</ele>
        <time>2021-05-24T07:29:38Z</time>
      </trkpt>
      <trkpt lat="42.8450940" lon="-8.5814860">
        <ele>249.1</ele>
        <time>2021-05-24T07:29:39Z</time>
      </trkpt>
      <trkpt lat="42.8450940" lon="-8.5814860">
        <ele>249.1</ele>
        <time>2021-05-24T07:29:40Z</time>
      </trkpt>
      <trkpt lat="42.8450940" lon="-8.5814870">
        <ele>249.1</ele>
        <time>2021-05-24T07:29:41Z</time>
      </trkpt>
      <trkpt lat="42.8450940" lon="-8.5814870">
        <ele>249.1</ele>
        <time>2021-05-24T07:29:42Z</time>
      </trkpt>
      <trkpt lat="42.8450940" lon="-8.5814870">
        <ele>249.1</ele>
        <time>2021-05-24T07:29:43Z</time>
      </trkpt>
      <trkpt lat="42.8450940" lon="-8.5814880">
        <ele>249.1</ele>
        <time>2021-05-24T07:29:44Z</time>
      </trkpt>
      <trkpt lat="42.8450930" lon="-8.5814880">
        <ele>249.1</ele>
        <time>2021-05-24T07:29:45Z</time>
      </trkpt>
      <trkpt lat="42.8450930" lon="-8.5814880">
        <ele>249.1</ele>
        <time>2021-05-24T07:29:46Z</time>
      </trkpt>
      <trkpt lat="42.8450930" lon="-8.5814890">
        <ele>249.1</ele>
        <time>2021-05-24T07:29:47Z</time>
      </trkpt>
      <trkpt lat="42.8450930" lon="-8.5814890">
        <ele>249.1</ele>
        <time>2021-05-24T07:29:48Z</time>
      </trkpt>
      <trkpt lat="42.8450930" lon="-8.5814890">
        <ele>249.1</ele>
        <time>2021-05-24T07:29:49Z</time>
      </trkpt>
      <trkpt lat="42.8450930" lon="-8.5814900">
        <ele>249.1</ele>
        <time>2021-05-24T07:29:50Z</time>
      </trkpt>
      <trkpt lat="42.8450930" lon="-8.5814900">
        <ele>249.1</ele>
        <time>2021-05-24T07:29:51Z</time>
      </trkpt>
      <trkpt lat="42.8450930" lon="-8.5814910">
        <ele>249.1</ele>
        <time>2021-05-24T07:29:52Z</time>
      </trkpt>
      <trkpt lat="42.8450930" lon="-8.5814910">
        <ele>249.1</ele>
        <time>2021-05-24T07:29:53Z</time>
      </trkpt>
      <trkpt lat="42.8450920" lon="-8.5814910">
        <ele>249.1</ele>
        <time>2021-05-24T07:29:54Z</time>
      </trkpt>
      <trkpt lat="42.8450920" lon="-8.5814920">
        <ele>249.1</ele>
        <time>2021-05-24T07:29:55Z</time>
      </trkpt>
      <trkpt lat="42.8450920" lon="-8.5814920">
        <ele>249.1</ele>
        <time>2021-05-24T07:29:56Z</time>
      </trkpt>
      <trkpt lat="42.8450920" lon="-8.5814920">
        <ele>249.1</ele>
        <time>2021-05-24T07:29:57Z</time>
      </trkpt>
      <trkpt lat="42.8450920" lon="-8.5814930">
        <ele>249.1</ele>
        <time>2021-05-24T07:29:58Z</time>
      </trkpt>
      <trkpt lat="42.8450920" lon="-8.5814930">
        <ele>249.1</ele>
        <time>2021-05-24T07:29:59Z</time>
      </trkpt>
      <trkpt lat="42.8450920" lon="-8.5814930">
        <ele>249.1</ele>
        <time>2021-05-24T07:30:00Z</time>
      </trkpt>
      <trkpt lat="42.8450920" lon="-8.5814940">
        <ele>249.1</ele>
        <time>2021-05-24T07:30:01Z</time>
      </trkpt>
      <trkpt lat="42.8450920" lon="-8.5814940">
        <ele>249.1</ele>
        <time>2021-05-24T07:30:02Z</time>
      </trkpt>
      <trkpt lat="42.8450920" lon="-8.5814940">
        <ele>249.1</ele>
        <time>2021-05-24T07:30:03Z</time>
      </trkpt>
      <trkpt lat="42.8450910" lon="-8.5814950">
        <ele>249.1</ele>
        <time>2021-05-24T07:30:04Z</time>
      </trkpt>
      <trkpt lat="42.8450910" lon="-8.5814950">
        <ele>249.1</ele>
        <time>2021-05-24T07:30:05Z</time>
      </trkpt>
      <trkpt lat="42.8450910" lon="-8.5814950">
        <ele>249.1</ele>
        <time>2021-05-24T07:30:06Z</time>
      </trkpt>
      <trkpt lat="42.8450910" lon="-8.5814960">
        <ele>249.1</ele>
        <time>2021-05-24T07:30:07Z</time>
      </trkpt>
      <trkpt lat="42.8450910" lon="-8.5814960">
        <ele>249.1</ele>
        <time>2021-05-24T07:30:08Z</time>
      </trkpt>
      <trkpt lat="42.8450910" lon="-8.5814970">
        <ele>249.1</ele>
        <time>2021-05-24T07:30:09Z</time>
      </trkpt>
      <trkpt lat="42.8450910" lon="-8.5814970">
        <ele>249.1</ele>
        <time>2021-05-24T07:30:10Z</time>
      </trkpt>
      <trkpt lat="42.8450920" lon="-8.5814970">
        <ele>249.1</ele>
        <time>2021-05-24T07:30:11Z</time>
      </trkpt>
      <trkpt lat="42.8450920" lon="-8.5814960">
        <ele>249.1</ele>
        <time>2021-05-24T07:30:12Z</time>
      </trkpt>
      <trkpt lat="42.8450920" lon="-8.5814960">
        <ele>249.1</ele>
        <time>2021-05-24T07:30:13Z</time>
      </trkpt>
      <trkpt lat="42.8450920" lon="-8.5814960">
        <ele>249.1</ele>
        <time>2021-05-24T07:30:14Z</time>
      </trkpt>
      <trkpt lat="42.8450930" lon="-8.5814960">
        <ele>249.1</ele>
        <time>2021-05-24T07:30:15Z</time>
      </trkpt>
      <trkpt lat="42.8450930" lon="-8.5814960">
        <ele>249.1</ele>
        <time>2021-05-24T07:30:16Z</time>
      </trkpt>
      <trkpt lat="42.8450930" lon="-8.5814960">
        <ele>249.1</ele>
        <time>2021-05-24T07:30:17Z</time>
      </trkpt>
      <trkpt lat="42.8450930" lon="-8.5814960">
        <ele>249.1</ele>
        <time>2021-05-24T07:30:18Z</time>
      </trkpt>
      <trkpt lat="42.8450940" lon="-8.5814960">
        <ele>249.1</ele>
        <time>2021-05-24T07:30:19Z</time>
      </trkpt>
      <trkpt lat="42.8450940" lon="-8.5814950">
        <ele>249.1</ele>
        <time>2021-05-24T07:30:20Z</time>
      </trkpt>
      <trkpt lat="42.8450940" lon="-8.5814950">
        <ele>249.1</ele>
        <time>2021-05-24T07:30:21Z</time>
      </trkpt>
      <trkpt lat="42.8450940" lon="-8.5814950">
        <ele>249.1</ele>
        <time>2021-05-24T07:30:22Z</time>
      </trkpt>
      <trkpt lat="42.8450950" lon="-8.5814950">
        <ele>249.1</ele>
        <time>2021-05-24T07:30:23Z</time>
      </trkpt>
      <trkpt lat="42.8450950" lon="-8.5814950">
        <ele>249.1</ele>
        <time>2021-05-24T07:30:24Z</time>
      </trkpt>
      <trkpt lat="42.8450950" lon="-8.5814950">
        <ele>249.1</ele>
        <time>2021-05-24T07:30:25Z</time>
      </trkpt>
      <trkpt lat="42.8450950" lon="-8.5814950">
        <ele>249.1</ele>
        <time>2021-05-24T07:30:26Z</time>
      </trkpt>
      <trkpt lat="42.8450960" lon="-8.5814950">
        <ele>249.1</ele>
        <time>2021-05-24T07:30:27Z</time>
      </trkpt>
      <trkpt lat="42.8450960" lon="-8.5814940">
        <ele>249.1</ele>
        <time>2021-05-24T07:30:28Z</time>
      </trkpt>
      <trkpt lat="42.8450960" lon="-8.5814940">
        <ele>249.1</ele>
        <time>2021-05-24T07:30:29Z</time>
      </trkpt>
      <trkpt lat="42.8450960" lon="-8.5814940">
        <ele>249.1</ele>
        <time>2021-05-24T07:30:30Z</time>
      </trkpt>
      <trkpt lat="42.8450970" lon="-8.5814940">
        <ele>249.1</ele>
        <time>2021-05-24T07:30:31Z</time>
      </trkpt>
      <trkpt lat="42.8450970" lon="-8.5814940">
        <ele>249.1</ele>
        <time>2021-05-24T07:30:32Z</time>
      </trkpt>
      <trkpt lat="42.8450970" lon="-8.5814940">
        <ele>249.1</ele>
        <time>2021-05-24T07:30:33Z</time>
      </trkpt>
      <trkpt lat="42.8450970" lon="-8.5814940">
        <ele>249.1</ele>
        <time>2021-05-24T07:30:34Z</time>
      </trkpt>
      <trkpt lat="42.8450980" lon="-8.5814940">
        <ele>249.1</ele>
        <time>2021-05-24T07:30:35Z</time>
      </trkpt>
      <trkpt lat="42.8450980" lon="-8.5814930">
        <ele>249.1</ele>
        <time>2021-05-24T07:30:36Z</time>
      </trkpt>
      <trkpt lat="42.8450980" lon="-8.5814930">
        <ele>249.1</ele>
        <time>2021-05-24T07:30:37Z</time>
      </trkpt>
      <trkpt lat="42.8450980" lon="-8.5814930">
        <ele>249.1</ele>
        <time>2021-05-24T07:30:38Z</time>
      </trkpt>
      <trkpt lat="42.8450990" lon="-8.5814930">
        <ele>249.1</ele>
        <time>2021-05-24T07:30:39Z</time>
      </trkpt>
      <trkpt lat="42.8450990" lon="-8.5814930">
        <ele>249.1</ele>
        <time>2021-05-24T07:30:40Z</time>
      </trkpt>
      <trkpt lat="42.8450990" lon="-8.5814930">
        <ele>249.1</ele>
        <time>2021-05-24T07:30:41Z</time>
      </trkpt>
      <trkpt lat="42.8450990" lon="-8.5814930">
        <ele>249.1</ele>
        <time>2021-05-24T07:30:42Z</time>
      </trkpt>
      <trkpt lat="42.8451000" lon="-8.5814920">
        <ele>249.1</ele>
        <time>2021-05-24T07:30:43Z</time>
      </trkpt>
      <trkpt lat="42.8451000" lon="-8.5814920">
        <ele>249.1</ele>
        <time>2021-05-24T07:30:44Z</time>
      </trkpt>
      <trkpt lat="42.8451000" lon="-8.5814920">
        <ele>249.1</ele>
        <time>2021-05-24T07:30:45Z</time>
      </trkpt>
      <trkpt lat="42.8451000" lon="-8.5814920">
        <ele>249.1</ele>
        <time>2021-05-24T07:30:46Z</time>
      </trkpt>
      <trkpt lat="42.8451010" lon="-8.5814920">
        <ele>249.1</ele>
        <time>2021-05-24T07:30:47Z</time>
      </trkpt>
      <trkpt lat="42.8451010" lon="-8.5814920">
        <ele>249.1</ele>
        <time>2021-05-24T07:30:48Z</time>
      </trkpt>
      <trkpt lat="42.8451010" lon="-8.5814920">
        <ele>249.1</ele>
        <time>2021-05-24T07:30:49Z</time>
      </trkpt>
      <trkpt lat="42.8451010" lon="-8.5814920">
        <ele>249.1</ele>
        <time>2021-05-24T07:30:50Z</time>
      </trkpt>
      <trkpt lat="42.8451020" lon="-8.5814910">
        <ele>249.1</ele>
        <time>2021-05-24T07:30:51Z</time>
      </trkpt>
      <trkpt lat="42.8451020" lon="-8.5814910">
        <ele>249.1</ele>
        <time>2021-05-24T07:30:52Z</time>
      </trkpt>
      <trkpt lat="42.8451020" lon="-8.5814910">
        <ele>249.1</ele>
        <time>2021-05-24T07:30:53Z</time>
      </trkpt>
      <trkpt lat="42.8451020" lon="-8.5814910">
        <ele>249.1</ele>
        <time>2021-05-24T07:30:54Z</time>
      </trkpt>
      <trkpt lat="42.8451030" lon="-8.5814910">
        <ele>249.1</ele>
        <time>2021-05-24T07:30:55Z</time>
      </trkpt>
      <trkpt lat="42.8451030" lon="-8.5814910">
        <ele>249.1</ele>
        <time>2021-05-24T07:30:56Z</time>
      </trkpt>
      <trkpt lat="42.8451030" lon="-8.5814910">
        <ele>249.1</ele>
        <time>2021-05-24T07:30:57Z</time>
      </trkpt>
      <trkpt lat="42.8451030" lon="-8.5814910">
        <ele>249.1</ele>
        <time>2021-05-24T07:30:58Z</time>
      </trkpt>
      <trkpt lat="42.8451040" lon="-8.5814900">
        <ele>249.1</ele>
        <time>2021-05-24T07:30:59Z</time>
      </trkpt>
      <trkpt lat="42.8451040" lon="-8.5814900">
        <ele>249.1</ele>
        <time>2021-05-24T07:31:00Z</time>
      </trkpt>
      <trkpt lat="42.8451040" lon="-8.5814900">
        <ele>249.1</ele>
        <time>2021-05-24T07:31:01Z</time>
      </trkpt>
      <trkpt lat="42.8451040" lon="-8.5814900">
        <ele>249.1</ele>
        <time>2021-05-24T07:31:02Z</time>
      </trkpt>
      <trkpt lat="42.8451050" lon="-8.5814900">
        <ele>249.1</ele>
        <time>2021-05-24T07:31:03Z</time>
      </trkpt>
      <trkpt lat="42.8451050" lon="-8.5814900">
        <ele>249.1</ele>
        <time>2021-05-24T07:31:04Z</time>
      </trkpt>
      <trkpt lat="42.8451050" lon="-8.5814900">
        <ele>249.1</ele>
        <time>2021-05-24T07:31:05Z</time>
      </trkpt>
      <trkpt lat="42.8451050" lon="-8.5814900">
        <ele>249.1</ele>
        <time>2021-05-24T07:31:06Z</time>
      </trkpt>
      <trkpt lat="42.8451060" lon="-8.5814890">
        <ele>249.1</ele>
        <time>2021-05-24T07:31:07Z</time>
      </trkpt>
      <trkpt lat="42.8451060" lon="-8.5814890">
        <ele>249.1</ele>
        <time>2021-05-24T07:31:08Z</time>
      </trkpt>
      <trkpt lat="42.8451060" lon="-8.5814890">
        <ele>249.1</ele>
        <time>2021-05-24T07:31:09Z</time>
      </trkpt>
      <trkpt lat="42.8451060" lon="-8.5814890">
        <ele>249.1</ele>
        <time>2021-05-24T07:31:10Z</time>
      </trkpt>
      <trkpt lat="42.8451070" lon="-8.5814890">
        <ele>249.1</ele>
        <time>2021-05-24T07:31:11Z</time>
      </trkpt>
      <trkpt lat="42.8451070" lon="-8.5814890">
        <ele>249.1</ele>
        <time>2021-05-24T07:31:12Z</time>
      </trkpt>
      <trkpt lat="42.8451070" lon="-8.5814890">
        <ele>249.1</ele>
        <time>2021-05-24T07:31:13Z</time>
      </trkpt>
      <trkpt lat="42.8451070" lon="-8.5814880">
        <ele>249.1</ele>
        <time>2021-05-24T07:31:14Z</time>
      </trkpt>
      <trkpt lat="42.8451080" lon="-8.5814880">
        <ele>249.1</ele>
        <time>2021-05-24T07:31:15Z</time>
      </trkpt>
      <trkpt lat="42.8451080" lon="-8.5814880">
        <ele>249.1</ele>
        <time>2021-05-24T07:31:16Z</time>
      </trkpt>
      <trkpt lat="42.8451080" lon="-8.5814880">
        <ele>249.1</ele>
        <time>2021-05-24T07:31:17Z</time>
      </trkpt>
      <trkpt lat="42.8451080" lon="-8.5814880">
        <ele>249.1</ele>
        <time>2021-05-24T07:31:18Z</time>
      </trkpt>
      <trkpt lat="42.8451090" lon="-8.5814880">
        <ele>249.1</ele>
        <time>2021-05-24T07:31:19Z</time>
      </trkpt>
      <trkpt lat="42.8451090" lon="-8.5814880">
        <ele>249.1</ele>
        <time>2021-05-24T07:31:20Z</time>
      </trkpt>
      <trkpt lat="42.8451090" lon="-8.5814880">
        <ele>249.1</ele>
        <time>2021-05-24T07:31:21Z</time>
      </trkpt>
      <trkpt lat="42.8451090" lon="-8.5814870">
        <ele>249.1</ele>
        <time>2021-05-24T07:31:22Z</time>
      </trkpt>
      <trkpt lat="42.8451100" lon="-8.5814870">
        <ele>249.1</ele>
        <time>2021-05-24T07:31:23Z</time>
      </trkpt>
      <trkpt lat="42.8451100" lon="-8.5814870">
        <ele>249.1</ele>
        <time>2021-05-24T07:31:24Z</time>
      </trkpt>
      <trkpt lat="42.8451100" lon="-8.5814870">
        <ele>249.1</ele>
        <time>2021-05-24T07:31:25Z</time>
      </trkpt>
      <trkpt lat="42.8451100" lon="-8.5814870">
        <ele>249.1</ele>
        <time>2021-05-24T07:31:26Z</time>
      </trkpt>
      <trkpt lat="42.8451110" lon="-8.5814870">
        <ele>249.1</ele>
        <time>2021-05-24T07:31:27Z</time>
      </trkpt>
      <trkpt lat="42.8451110" lon="-8.5814870">
        <ele>249.1</ele>
        <time>2021-05-24T07:31:28Z</time>
      </trkpt>
      <trkpt lat="42.8451110" lon="-8.5814870">
        <ele>249.1</ele>
        <time>2021-05-24T07:31:29Z</time>
      </trkpt>
      <trkpt lat="42.8451110" lon="-8.5814860">
        <ele>249.1</ele>
        <time>2021-05-24T07:31:30Z</time>
      </trkpt>
      <trkpt lat="42.8451120" lon="-8.5814860">
        <ele>249.1</ele>
        <time>2021-05-24T07:31:31Z</time>
      </trkpt>
      <trkpt lat="42.8451120" lon="-8.5814860">
        <ele>249.1</ele>
        <time>2021-05-24T07:31:32Z</time>
      </trkpt>
      <trkpt lat="42.8451120" lon="-8.5814860">
        <ele>249.1</ele>
        <time>2021-05-24T07:31:33Z</time>
      </trkpt>
      <trkpt lat="42.8451120" lon="-8.5814860">
        <ele>249.1</ele>
        <time>2021-05-24T07:31:34Z</time>
      </trkpt>
      <trkpt lat="42.8451130" lon="-8.5814860">
        <ele>249.1</ele>
        <time>2021-05-24T07:31:35Z</time>
      </trkpt>
      <trkpt lat="42.8451130" lon="-8.5814860">
        <ele>249.1</ele>
        <time>2021-05-24T07:31:36Z</time>
      </trkpt>
      <trkpt lat="42.8451130" lon="-8.5814860">
        <ele>249.1</ele>
        <time>2021-05-24T07:31:37Z</time>
      </trkpt>
      <trkpt lat="42.8451130" lon="-8.5814850">
        <ele>249.1</ele>
        <time>2021-05-24T07:31:38Z</time>
      </trkpt>
      <trkpt lat="42.8451140" lon="-8.5814850">
        <ele>249.1</ele>
        <time>2021-05-24T07:31:39Z</time>
      </trkpt>
      <trkpt lat="42.8451140" lon="-8.5814850">
        <ele>249.1</ele>
        <time>2021-05-24T07:31:40Z</time>
      </trkpt>
      <trkpt lat="42.8451140" lon="-8.5814850">
        <ele>249.1</ele>
        <time>2021-05-24T07:31:41Z</time>
      </trkpt>
      <trkpt lat="42.8451140" lon="-8.5814850">
        <ele>249.1</ele>
        <time>2021-05-24T07:31:42Z</time>
      </trkpt>
      <trkpt lat="42.8451150" lon="-8.5814850">
        <ele>249.1</ele>
        <time>2021-05-24T07:31:43Z</time>
      </trkpt>
      <trkpt lat="42.8451150" lon="-8.5814850">
        <ele>249.1</ele>
        <time>2021-05-24T07:31:44Z</time>
      </trkpt>
      <trkpt lat="42.8451150" lon="-8.5814840">
        <ele>249.1</ele>
        <time>2021-05-24T07:31:45Z</time>
      </trkpt>
      <trkpt lat="42.8451150" lon="-8.5814840">
        <ele>249.1</ele>
        <time>2021-05-24T07:31:46Z</time>
      </trkpt>
      <trkpt lat="42.8451160" lon="-8.5814840">
        <ele>249.1</ele>
        <time>2021-05-24T07:31:47Z</time>
      </trkpt>
      <trkpt lat="42.8451160" lon="-8.5814840">
        <ele>249.1</ele>
        <time>2021-05-24T07:31:48Z</time>
      </trkpt>
      <trkpt lat="42.8451160" lon="-8.5814840">
        <ele>249.1</ele>
        <time>2021-05-24T07:31:49Z</time>
      </trkpt>
      <trkpt lat="42.8451160" lon="-8.5814840">
        <ele>249.1</ele>
        <time>2021-05-24T07:31:50Z</time>
      </trkpt>
      <trkpt lat="42.8451170" lon="-8.5814840">
        <ele>249.1</ele>
        <time>2021-05-24T07:31:51Z</time>
      </trkpt>
      <trkpt lat="42.8451170" lon="-8.5814840">
        <ele>249.1</ele>
        <time>2021-05-24T07:31:52Z</time>
      </trkpt>
      <trkpt lat="42.8451170" lon="-8.5814830">
        <ele>249.1</ele>
        <time>2021-05-24T07:31:53Z</time>
      </trkpt>
      <trkpt lat="42.8451170" lon="-8.5814830">
        <ele>249.1</ele>
        <time>2021-05-24T07:31:54Z</time>
      </trkpt>
      <trkpt lat="42.8451180" lon="-8.5814830">
        <ele>249.1</ele>
        <time>2021-05-24T07:31:55Z</time>
      </trkpt>
      <trkpt lat="42.8451180" lon="-8.5814830">
        <ele>249.1</ele>
        <time>2021-05-24T07:31:56Z</time>
      </trkpt>
      <trkpt lat="42.8451180" lon="-8.5814830">
        <ele>249.1</ele>
        <time>2021-05-24T07:31:57Z</time>
      </trkpt>
      <trkpt lat="42.8451180" lon="-8.5814830">
        <ele>249.1</ele>
        <time>2021-05-24T07:31:58Z</time>
      </trkpt>
      <trkpt lat="42.8451190" lon="-8.5814830">
        <ele>249.1</ele>
        <time>2021-05-24T07:31:59Z</time>
      </trkpt>
      <trkpt lat="42.8451190" lon="-8.5814830">
        <ele>249.1</ele>
        <time>2021-05-24T07:32:00Z</time>
      </trkpt>
      <trkpt lat="42.8451190" lon="-8.5814820">
        <ele>249.1</ele>
        <time>2021-05-24T07:32:01Z</time>
      </trkpt>
      <trkpt lat="42.8451190" lon="-8.5814820">
        <ele>249.1</ele>
        <time>2021-05-24T07:32:02Z</time>
      </trkpt>
      <trkpt lat="42.8451200" lon="-8.5814820">
        <ele>249.1</ele>
        <time>2021-05-24T07:32:03Z</time>
      </trkpt>
      <trkpt lat="42.8451200" lon="-8.5814820">
        <ele>249.1</ele>
        <time>2021-05-24T07:32:04Z</time>
      </trkpt>
      <trkpt lat="42.8451200" lon="-8.5814820">
        <ele>249.1</ele>
        <time>2021-05-24T07:32:05Z</time>
      </trkpt>
      <trkpt lat="42.8451200" lon="-8.5814820">
        <ele>249.1</ele>
        <time>2021-05-24T07:32:06Z</time>
      </trkpt>
      <trkpt lat="42.8451210" lon="-8.5814820">
        <ele>249.1</ele>
        <time>2021-05-24T07:32:07Z</time>
      </trkpt>
      <trkpt lat="42.8451210" lon="-8.5814820">
        <ele>249.1</ele>
        <time>2021-05-24T07:32:08Z</time>
      </trkpt>
      <trkpt lat="42.8451210" lon="-8.5814810">
        <ele>249.1</ele>
        <time>2021-05-24T07:32:09Z</time>
      </trkpt>
      <trkpt lat="42.8451210" lon="-8.5814810">
        <ele>249.1</ele>
        <time>2021-05-24T07:32:10Z</time>
      </trkpt>
      <trkpt lat="42.8451220" lon="-8.5814810">
        <ele>249.1</ele>
        <time>2021-05-24T07:32:11Z</time>
      </trkpt>
      <trkpt lat="42.8451220" lon="-8.5814810">
        <ele>249.1</ele>
        <time>2021-05-24T07:32:12Z</time>
      </trkpt>
      <trkpt lat="42.8451220" lon="-8.5814810">
        <ele>249.1</ele>
        <time>2021-05-24T07:32:13Z</time>
      </trkpt>
      <trkpt lat="42.8451220" lon="-8.5814810">
        <ele>249.1</ele>
        <time>2021-05-24T07:32:14Z</time>
      </trkpt>
      <trkpt lat="42.8451230" lon="-8.5814810">
        <ele>249.1</ele>
        <time>2021-05-24T07:32:15Z</time>
      </trkpt>
      <trkpt lat="42.8451230" lon="-8.5814800">
        <ele>249.1</ele>
        <time>2021-05-24T07:32:16Z</time>
      </trkpt>
      <trkpt lat="42.8451230" lon="-8.5814800">
        <ele>249.1</ele>
        <time>2021-05-24T07:32:17Z</time>
      </trkpt>
      <trkpt lat="42.8451230" lon="-8.5814800">
        <ele>249.1</ele>
        <time>2021-05-24T07:32:18Z</time>
      </trkpt>
      <trkpt lat="42.8451240" lon="-8.5814800">
        <ele>249.1</ele>
        <time>2021-05-24T07:32:19Z</time>
      </trkpt>
      <trkpt lat="42.8451240" lon="-8.5814800">
        <ele>249.1</ele>
        <time>2021-05-24T07:32:20Z</time>
      </trkpt>
      <trkpt lat="42.8451240" lon="-8.5814800">
        <ele>249.1</ele>
        <time>2021-05-24T07:32:21Z</time>
      </trkpt>
      <trkpt lat="42.8451240" lon="-8.5814800">
        <ele>249.1</ele>
        <time>2021-05-24T07:32:22Z</time>
      </trkpt>
      <trkpt lat="42.8451250" lon="-8.5814800">
        <ele>249.1</ele>
        <time>2021-05-24T07:32:23Z</time>
      </trkpt>
      <trkpt lat="42.8451250" lon="-8.5814790">
        <ele>249.1</ele>
        <time>2021-05-24T07:32:24Z</time>
      </trkpt>
      <trkpt lat="42.8451250" lon="-8.5814790">
        <ele>249.1</ele>
        <time>2021-05-24T07:32:25Z</time>
      </trkpt>
      <trkpt lat="42.8451250" lon="-8.5814790">
        <ele>249.1</ele>
        <time>2021-05-24T07:32:26Z</time>
      </trkpt>
      <trkpt lat="42.8451260" lon="-8.5814790">
        <ele>249.1</ele>
        <time>2021-05-24T07:32:27Z</time>
      </trkpt>
      <trkpt lat="42.8451260" lon="-8.5814790">
        <ele>249.1</ele>
        <time>2021-05-24T07:32:28Z</time>
      </trkpt>
      <trkpt lat="42.8451260" lon="-8.5814790">
        <ele>249.1</ele>
        <time>2021-05-24T07:32:29Z</time>
      </trkpt>
      <trkpt lat="42.8451260" lon="-8.5814790">
        <ele>249.1</ele>
        <time>2021-05-24T07:32:30Z</time>
      </trkpt>
      <trkpt lat="42.8451270" lon="-8.5814790">
        <ele>249.1</ele>
        <time>2021-05-24T07:32:31Z</time>
      </trkpt>
      <trkpt lat="42.8451270" lon="-8.5814780">
        <ele>249.1</ele>
        <time>2021-05-24T07:32:32Z</time>
      </trkpt>
      <trkpt lat="42.8451270" lon="-8.5814780">
        <ele>249.1</ele>
        <time>2021-05-24T07:32:33Z</time>
      </trkpt>
      <trkpt lat="42.8451270" lon="-8.5814780">
        <ele>249.1</ele>
        <time>2021-05-24T07:32:34Z</time>
      </trkpt>
      <trkpt lat="42.8451280" lon="-8.5814780">
        <ele>249.1</ele>
        <time>2021-05-24T07:32:35Z</time>
      </trkpt>
      <trkpt lat="42.8451280" lon="-8.5814780">
        <ele>249.1</ele>
        <time>2021-05-24T07:32:36Z</time>
      </trkpt>
      <trkpt lat="42.8451280" lon="-8.5814780">
        <ele>249.1</ele>
        <time>2021-05-24T07:32:37Z</time>
      </trkpt>
      <trkpt lat="42.8451280" lon="-8.5814780">
        <ele>249.1</ele>
        <time>2021-05-24T07:32:38Z</time>
      </trkpt>
      <trkpt lat="42.8451290" lon="-8.5814780">
        <ele>249.1</ele>
        <time>2021-05-24T07:32:39Z</time>
      </trkpt>
      <trkpt lat="42.8451290" lon="-8.5814770">
        <ele>249.1</ele>
        <time>2021-05-24T07:32:40Z</time>
      </trkpt>
      <trkpt lat="42.8451290" lon="-8.5814770">
        <ele>249.1</ele>
        <time>2021-05-24T07:32:41Z</time>
      </trkpt>
      <trkpt lat="42.8451290" lon="-8.5814770">
        <ele>249.1</ele>
        <time>2021-05-24T07:32:42Z</time>
      </trkpt>
      <trkpt lat="42.8451300" lon="-8.5814770">
        <ele>249.1</ele>
        <time>2021-05-24T07:32:43Z</time>
      </trkpt>
      <trkpt lat="42.8451300" lon="-8.5814770">
        <ele>249.1</ele>
        <time>2021-05-24T07:32:44Z</time>
      </trkpt>
      <trkpt lat="42.8451300" lon="-8.5814770">
        <ele>249.1</ele>
        <time>2021-05-24T07:32:45Z</time>
      </trkpt>
      <trkpt lat="42.8451300" lon="-8.5814770">
        <ele>249.1</ele>
        <time>2021-05-24T07:32:46Z</time>
      </trkpt>
      <trkpt lat="42.8451310" lon="-8.5814760">
        <ele>249.1</ele>
        <time>2021-05-24T07:32:47Z</time>
      </trkpt>
      <trkpt lat="42.8451310" lon="-8.5814760">
        <ele>249.1</ele>
        <time>2021-05-24T07:32:48Z</time>
      </trkpt>
      <trkpt lat="42.8451310" lon="-8.5814760">
        <ele>249.1</ele>
        <time>2021-05-24T07:32:49Z</time>
      </trkpt>
      <trkpt lat="42.8451310" lon="-8.5814760">
        <ele>249.1</ele>
        <time>2021-05-24T07:32:50Z</time>
      </trkpt>
      <trkpt lat="42.8451320" lon="-8.5814760">
        <ele>249.1</ele>
        <time>2021-05-24T07:32:51Z</time>
      </trkpt>
      <trkpt lat="42.8451320" lon="-8.5814760">
        <ele>249.1</ele>
        <time>2021-05-24T07:32:52Z</time>
      </trkpt>
      <trkpt lat="42.8451320" lon="-8.5814760">
        <ele>249.1</ele>
        <time>2021-05-24T07:32:53Z</time>
      </trkpt>
      <trkpt lat="42.8451320" lon="-8.5814760">
        <ele>249.1</ele>
        <time>2021-05-24T07:32:54Z</time>
      </trkpt>
      <trkpt lat="42.8451330" lon="-8.5814750">
        <ele>249.1</ele>
        <time>2021-05-24T07:32:55Z</time>
      </trkpt>
      <trkpt lat="42.8451330" lon="-8.5814750">
        <ele>249.1</ele>
        <time>2021-05-24T07:32:56Z</time>
      </trkpt>
      <trkpt lat="42.8451330" lon="-8.5814750">
        <ele>249.1</ele>
        <time>2021-05-24T07:32:57Z</time>
      </trkpt>
      <trkpt lat="42.8451330" lon="-8.5814750">
        <ele>249.1</ele>
        <time>2021-05-24T07:32:58Z</time>
      </trkpt>
      <trkpt lat="42.8451340" lon="-8.5814750">
        <ele>249.1</ele>
        <time>2021-05-24T07:32:59Z</time>
      </trkpt>
      <trkpt lat="42.8451340" lon="-8.5814750">
        <ele>249.1</ele>
        <time>2021-05-24T07:33:00Z</time>
      </trkpt>
      <trkpt lat="42.8451340" lon="-8.5814750">
        <ele>249.1</ele>
        <time>2021-05-24T07:33:01Z</time>
      </trkpt>
      <trkpt lat="42.8451340" lon="-8.5814750">
        <ele>249.1</ele>
        <time>2021-05-24T07:33:02Z</time>
      </trkpt>
      <trkpt lat="42.8451350" lon="-8.5814740">
        <ele>249.1</ele>
        <time>2021-05-24T07:33:03Z</time>
      </trkpt>
      <trkpt lat="42.8451350" lon="-8.5814740">
        <ele>249.1</ele>
        <time>2021-05-24T07:33:04Z</time>
      </trkpt>
      <trkpt lat="42.8451350" lon="-8.5814740">
        <ele>249.1</ele>
        <time>2021-05-24T07:33:05Z</time>
      </trkpt>
      <trkpt lat="42.8451350" lon="-8.5814740">
        <ele>249.1</ele>
        <time>2021-05-24T07:33:06Z</time>
      </trkpt>
      <trkpt lat="42.8451360" lon="-8.5814740">
        <ele>249.1</ele>
        <time>2021-05-24T07:33:07Z</time>
      </trkpt>
      <trkpt lat="42.8451360" lon="-8.5814740">
        <ele>249.1</ele>
        <time>2021-05-24T07:33:08Z</time>
      </trkpt>
      <trkpt lat="42.8451360" lon="-8.5814740">
        <ele>249.1</ele>
        <time>2021-05-24T07:33:09Z</time>
      </trkpt>
      <trkpt lat="42.8451360" lon="-8.5814740">
        <ele>249.1</ele>
        <time>2021-05-24T07:33:10Z</time>
      </trkpt>
      <trkpt lat="42.8451370" lon="-8.5814730">
        <ele>249.1</ele>
        <time>2021-05-24T07:33:11Z</time>
      </trkpt>
      <trkpt lat="42.8451370" lon="-8.5814730">
        <ele>249.1</ele>
        <time>2021-05-24T07:33:12Z</time>
      </trkpt>
      <trkpt lat="42.8451370" lon="-8.5814730">
        <ele>249.1</ele>
        <time>2021-05-24T07:33:13Z</time>
      </trkpt>
      <trkpt lat="42.8451370" lon="-8.5814730">
        <ele>249.1</ele>
        <time>2021-05-24T07:33:14Z</time>
      </trkpt>
      <trkpt lat="42.8451380" lon="-8.5814730">
        <ele>249.1</ele>
        <time>2021-05-24T07:33:15Z</time>
      </trkpt>
      <trkpt lat="42.8451380" lon="-8.5814730">
        <ele>249.1</ele>
        <time>2021-05-24T07:33:16Z</time>
      </trkpt>
      <trkpt lat="42.8451380" lon="-8.5814730">
        <ele>249.1</ele>
        <time>2021-05-24T07:33:17Z</time>
      </trkpt>
      <trkpt lat="42.8451380" lon="-8.5814720">
        <ele>249.1</ele>
        <time>2021-05-24T07:33:18Z</time>
      </trkpt>
      <trkpt lat="42.8451390" lon="-8.5814720">
        <ele>249.1</ele>
        <time>2021-05-24T07:33:19Z</time>
      </trkpt>
      <trkpt lat="42.8451390" lon="-8.5814720">
        <ele>249.1</ele>
        <time>2021-05-24T07:33:20Z</time>
      </trkpt>
      <trkpt lat="42.8451390" lon="-8.5814720">
        <ele>249.1</ele>
        <time>2021-05-24T07:33:21Z</time>
      </trkpt>
      <trkpt lat="42.8451390" lon="-8.5814720">
        <ele>249.1</ele>
        <time>2021-05-24T07:33:22Z</time>
      </trkpt>
      <trkpt lat="42.8451400" lon="-8.5814720">
        <ele>249.1</ele>
        <time>2021-05-24T07:33:23Z</time>
      </trkpt>
      <trkpt lat="42.8451400" lon="-8.5814720">
        <ele>249.1</ele>
        <time>2021-05-24T07:33:24Z</time>
      </trkpt>
      <trkpt lat="42.8451400" lon="-8.5814720">
        <ele>249.1</ele>
        <time>2021-05-24T07:33:25Z</time>
      </trkpt>
      <trkpt lat="42.8451400" lon="-8.5814710">
        <ele>249.1</ele>
        <time>2021-05-24T07:33:26Z</time>
      </trkpt>
      <trkpt lat="42.8451410" lon="-8.5814710">
        <ele>249.1</ele>
        <time>2021-05-24T07:33:27Z</time>
      </trkpt>
      <trkpt lat="42.8451410" lon="-8.5814710">
        <ele>249.1</ele>
        <time>2021-05-24T07:33:28Z</time>
      </trkpt>
      <trkpt lat="42.8451410" lon="-8.5814710">
        <ele>249.1</ele>
        <time>2021-05-24T07:33:29Z</time>
      </trkpt>
      <trkpt lat="42.8451410" lon="-8.5814710">
        <ele>249.1</ele>
        <time>2021-05-24T07:33:30Z</time>
      </trkpt>
      <trkpt lat="42.8451420" lon="-8.5814710">
        <ele>249.1</ele>
        <time>2021-05-24T07:33:31Z</time>
      </trkpt>
      <trkpt lat="42.8451420" lon="-8.5814710">
        <ele>249.1</ele>
        <time>2021-05-24T07:33:32Z</time>
      </trkpt>
      <trkpt lat="42.8451420" lon="-8.5814710">
        <ele>249.1</ele>
        <time>2021-05-24T07:33:33Z</time>
      </trkpt>
      <trkpt lat="42.8451420" lon="-8.5814700">
        <ele>249.1</ele>
        <time>2021-05-24T07:33:34Z</time>
      </trkpt>
      <trkpt lat="42.8451430" lon="-8.5814700">
        <ele>249.1</ele>
        <time>2021-05-24T07:33:35Z</time>
      </trkpt>
      <trkpt lat="42.8451430" lon="-8.5814700">
        <ele>249.1</ele>
        <time>2021-05-24T07:33:36Z</time>
      </trkpt>
      <trkpt lat="42.8451430" lon="-8.5814700">
        <ele>249.1</ele>
        <time>2021-05-24T07:33:37Z</time>
      </trkpt>
      <trkpt lat="42.8451430" lon="-8.5814700">
        <ele>249.1</ele>
        <time>2021-05-24T07:33:38Z</time>
      </trkpt>
      <trkpt lat="42.8451440" lon="-8.5814700">
        <ele>249.1</ele>
        <time>2021-05-24T07:33:39Z</time>
      </trkpt>
      <trkpt lat="42.8451440" lon="-8.5814700">
        <ele>249.1</ele>
        <time>2021-05-24T07:33:40Z</time>
      </trkpt>
      <trkpt lat="42.8451440" lon="-8.5814700">
        <ele>249.1</ele>
        <time>2021-05-24T07:33:41Z</time>
      </trkpt>
      <trkpt lat="42.8451440" lon="-8.5814690">
        <ele>249.1</ele>
        <time>2021-05-24T07:33:42Z</time>
      </trkpt>
      <trkpt lat="42.8451450" lon="-8.5814690">
        <ele>249.1</ele>
        <time>2021-05-24T07:33:43Z</time>
      </trkpt>
      <trkpt lat="42.8451450" lon="-8.5814690">
        <ele>249.1</ele>
        <time>2021-05-24T07:33:44Z</time>
      </trkpt>
      <trkpt lat="42.8451450" lon="-8.5814690">
        <ele>249.1</ele>
        <time>2021-05-24T07:33:45Z</time>
      </trkpt>
      <trkpt lat="42.8451450" lon="-8.5814690">
        <ele>249.1</ele>
        <time>2021-05-24T07:33:46Z</time>
      </trkpt>
      <trkpt lat="42.8451460" lon="-8.5814690">
        <ele>249.1</ele>
        <time>2021-05-24T07:33:47Z</time>
      </trkpt>
      <trkpt lat="42.8451460" lon="-8.5814690">
        <ele>249.1</ele>
        <time>2021-05-24T07:33:48Z</time>
      </trkpt>
      <trkpt lat="42.8451460" lon="-8.5814690">
        <ele>249.1</ele>
        <time>2021-05-24T07:33:49Z</time>
      </trkpt>
      <trkpt lat="42.8451460" lon="-8.5814680">
        <ele>249.1</ele>
        <time>2021-05-24T07:33:50Z</time>
      </trkpt>
      <trkpt lat="42.8451460" lon="-8.5814680">
        <ele>249.1</ele>
        <time>2021-05-24T07:33:51Z</time>
      </trkpt>
      <trkpt lat="42.8451470" lon="-8.5814680">
        <ele>249.1</ele>
        <time>2021-05-24T07:33:52Z</time>
      </trkpt>
      <trkpt lat="42.8451470" lon="-8.5814680">
        <ele>249.1</ele>
        <time>2021-05-24T07:33:53Z</time>
      </trkpt>
      <trkpt lat="42.8451470" lon="-8.5814680">
        <ele>249.1</ele>
        <time>2021-05-24T07:33:54Z</time>
      </trkpt>
      <trkpt lat="42.8451470" lon="-8.5814680">
        <ele>249.1</ele>
        <time>2021-05-24T07:33:55Z</time>
      </trkpt>
      <trkpt lat="42.8451480" lon="-8.5814680">
        <ele>249.1</ele>
        <time>2021-05-24T07:33:56Z</time>
      </trkpt>
      <trkpt lat="42.8451480" lon="-8.5814670">
        <ele>249.1</ele>
        <time>2021-05-24T07:33:57Z</time>
      </trkpt>
      <trkpt lat="42.8451480" lon="-8.5814670">
        <ele>249.1</ele>
        <time>2021-05-24T07:33:58Z</time>
      </trkpt>
      <trkpt lat="42.8451480" lon="-8.5814670">
        <ele>249.1</ele>
        <time>2021-05-24T07:33:59Z</time>
      </trkpt>
      <trkpt lat="42.8451490" lon="-8.5814670">
        <ele>249.1</ele>
        <time>2021-05-24T07:34:00Z</time>
      </trkpt>
      <trkpt lat="42.8451490" lon="-8.5814670">
        <ele>249.1</ele>
        <time>2021-05-24T07:34:01Z</time>
      </trkpt>
      <trkpt lat="42.8451490" lon="-8.5814670">
        <ele>249.1</ele>
        <time>2021-05-24T07:34:02Z</time>
      </trkpt>
      <trkpt lat="42.8451490" lon="-8.5814670">
        <ele>249.1</ele>
        <time>2021-05-24T07:34:03Z</time>
      </trkpt>
      <trkpt lat="42.8451500" lon="-8.5814670">
        <ele>249.1</ele>
        <time>2021-05-24T07:34:04Z</time>
      </trkpt>
      <trkpt lat="42.8451500" lon="-8.5814660">
        <ele>249.1</ele>
        <time>2021-05-24T07:34:05Z</time>
      </trkpt>
      <trkpt lat="42.8451500" lon="-8.5814660">
        <ele>249.1</ele>
        <time>2021-05-24T07:34:06Z</time>
      </trkpt>
      <trkpt lat="42.8451500" lon="-8.5814660">
        <ele>249.1</ele>
        <time>2021-05-24T07:34:07Z</time>
      </trkpt>
      <trkpt lat="42.8451510" lon="-8.5814660">
        <ele>249.1</ele>
        <time>2021-05-24T07:34:08Z</time>
      </trkpt>
      <trkpt lat="42.8451510" lon="-8.5814660">
        <ele>249.1</ele>
        <time>2021-05-24T07:34:09Z</time>
      </trkpt>
      <trkpt lat="42.8451510" lon="-8.5814660">
        <ele>249.1</ele>
        <time>2021-05-24T07:34:10Z</time>
      </trkpt>
      <trkpt lat="42.8451510" lon="-8.5814660">
        <ele>249.1</ele>
        <time>2021-05-24T07:34:11Z</time>
      </trkpt>
      <trkpt lat="42.8451520" lon="-8.5814660">
        <ele>249.1</ele>
        <time>2021-05-24T07:34:12Z</time>
      </trkpt>
      <trkpt lat="42.8451520" lon="-8.5814650">
        <ele>249.1</ele>
        <time>2021-05-24T07:34:13Z</time>
      </trkpt>
      <trkpt lat="42.8451520" lon="-8.5814650">
        <ele>249.1</ele>
        <time>2021-05-24T07:34:14Z</time>
      </trkpt>
      <trkpt lat="42.8451520" lon="-8.5814650">
        <ele>249.1</ele>
        <time>2021-05-24T07:34:15Z</time>
      </trkpt>
      <trkpt lat="42.8451530" lon="-8.5814650">
        <ele>249.1</ele>
        <time>2021-05-24T07:34:16Z</time>
      </trkpt>
      <trkpt lat="42.8451530" lon="-8.5814650">
        <ele>249.1</ele>
        <time>2021-05-24T07:34:17Z</time>
      </trkpt>
      <trkpt lat="42.8451530" lon="-8.5814650">
        <ele>249.1</ele>
        <time>2021-05-24T07:34:18Z</time>
      </trkpt>
      <trkpt lat="42.8451530" lon="-8.5814650">
        <ele>249.1</ele>
        <time>2021-05-24T07:34:19Z</time>
      </trkpt>
      <trkpt lat="42.8451540" lon="-8.5814650">
        <ele>249.1</ele>
        <time>2021-05-24T07:34:20Z</time>
      </trkpt>
      <trkpt lat="42.8451540" lon="-8.5814640">
        <ele>249.1</ele>
        <time>2021-05-24T07:34:21Z</time>
      </trkpt>
      <trkpt lat="42.8451540" lon="-8.5814640">
        <ele>249.1</ele>
        <time>2021-05-24T07:34:22Z</time>
      </trkpt>
      <trkpt lat="42.8451540" lon="-8.5814640">
        <ele>249.1</ele>
        <time>2021-05-24T07:34:23Z</time>
      </trkpt>
      <trkpt lat="42.8451550" lon="-8.5814640">
        <ele>249.1</ele>
        <time>2021-05-24T07:34:24Z</time>
      </trkpt>
      <trkpt lat="42.8451550" lon="-8.5814640">
        <ele>249.1</ele>
        <time>2021-05-24T07:34:25Z</time>
      </trkpt>
      <trkpt lat="42.8451550" lon="-8.5814640">
        <ele>249.1</ele>
        <time>2021-05-24T07:34:26Z</time>
      </trkpt>
      <trkpt lat="42.8451550" lon="-8.5814640">
        <ele>249.1</ele>
        <time>2021-05-24T07:34:27Z</time>
      </trkpt>
      <trkpt lat="42.8451560" lon="-8.5814630">
        <ele>249.1</ele>
        <time>2021-05-24T07:34:28Z</time>
      </trkpt>
      <trkpt lat="42.8451560" lon="-8.5814630">
        <ele>249.1</ele>
        <time>2021-05-24T07:34:29Z</time>
      </trkpt>
      <trkpt lat="42.8451560" lon="-8.5814630">
        <ele>249.1</ele>
        <time>2021-05-24T07:34:30Z</time>
      </trkpt>
      <trkpt lat="42.8451560" lon="-8.5814630">
        <ele>249.1</ele>
        <time>2021-05-24T07:34:31Z</time>
      </trkpt>
      <trkpt lat="42.8451570" lon="-8.5814630">
        <ele>249.1</ele>
        <time>2021-05-24T07:34:32Z</time>
      </trkpt>
      <trkpt lat="42.8451570" lon="-8.5814630">
        <ele>249.1</ele>
        <time>2021-05-24T07:34:33Z</time>
      </trkpt>
      <trkpt lat="42.8451570" lon="-8.5814630">
        <ele>249.1</ele>
        <time>2021-05-24T07:34:34Z</time>
      </trkpt>
      <trkpt lat="42.8451570" lon="-8.5814630">
        <ele>249.1</ele>
        <time>2021-05-24T07:34:35Z</time>
      </trkpt>
      <trkpt lat="42.8451580" lon="-8.5814620">
        <ele>249.1</ele>
        <time>2021-05-24T07:34:36Z</time>
      </trkpt>
      <trkpt lat="42.8451580" lon="-8.5814620">
        <ele>249.1</ele>
        <time>2021-05-24T07:34:37Z</time>
      </trkpt>
      <trkpt lat="42.8451580" lon="-8.5814620">
        <ele>249.1</ele>
        <time>2021-05-24T07:34:38Z</time>
      </trkpt>
      <trkpt lat="42.8451580" lon="-8.5814620">
        <ele>249.1</ele>
        <time>2021-05-24T07:34:39Z</time>
      </trkpt>
      <trkpt lat="42.8451590" lon="-8.5814620">
        <ele>249.1</ele>
        <time>2021-05-24T07:34:40Z</time>
      </trkpt>
      <trkpt lat="42.8451590" lon="-8.5814620">
        <ele>249.1</ele>
        <time>2021-05-24T07:34:41Z</time>
      </trkpt>
      <trkpt lat="42.8451590" lon="-8.5814620">
        <ele>249.1</ele>
        <time>2021-05-24T07:34:42Z</time>
      </trkpt>
      <trkpt lat="42.8451590" lon="-8.5814620">
        <ele>249.1</ele>
        <time>2021-05-24T07:34:43Z</time>
      </trkpt>
      <trkpt lat="42.8451600" lon="-8.5814610">
        <ele>249.1</ele>
        <time>2021-05-24T07:34:44Z</time>
      </trkpt>
      <trkpt lat="42.8451600" lon="-8.5814610">
        <ele>249.1</ele>
        <time>2021-05-24T07:34:45Z</time>
      </trkpt>
      <trkpt lat="42.8451600" lon="-8.5814610">
        <ele>249.1</ele>
        <time>2021-05-24T07:34:46Z</time>
      </trkpt>
      <trkpt lat="42.8451600" lon="-8.5814610">
        <ele>249.1</ele>
        <time>2021-05-24T07:34:47Z</time>
      </trkpt>
      <trkpt lat="42.8451610" lon="-8.5814610">
        <ele>249.1</ele>
        <time>2021-05-24T07:34:48Z</time>
      </trkpt>
      <trkpt lat="42.8451610" lon="-8.5814610">
        <ele>249.1</ele>
        <time>2021-05-24T07:34:49Z</time>
      </trkpt>
      <trkpt lat="42.8451610" lon="-8.5814610">
        <ele>249.1</ele>
        <time>2021-05-24T07:34:50Z</time>
      </trkpt>
      <trkpt lat="42.8451610" lon="-8.5814610">
        <ele>249.1</ele>
        <time>2021-05-24T07:34:51Z</time>
      </trkpt>
      <trkpt lat="42.8451620" lon="-8.5814600">
        <ele>249.1</ele>
        <time>2021-05-24T07:34:52Z</time>
      </trkpt>
      <trkpt lat="42.8451620" lon="-8.5814600">
        <ele>249.1</ele>
        <time>2021-05-24T07:34:53Z</time>
      </trkpt>
      <trkpt lat="42.8451620" lon="-8.5814600">
        <ele>249.1</ele>
        <time>2021-05-24T07:34:54Z</time>
      </trkpt>
      <trkpt lat="42.8451620" lon="-8.5814600">
        <ele>249.1</ele>
        <time>2021-05-24T07:34:55Z</time>
      </trkpt>
      <trkpt lat="42.8451630" lon="-8.5814600">
        <ele>249.1</ele>
        <time>2021-05-24T07:34:56Z</time>
      </trkpt>
      <trkpt lat="42.8451630" lon="-8.5814600">
        <ele>249.1</ele>
        <time>2021-05-24T07:34:57Z</time>
      </trkpt>
      <trkpt lat="42.8451630" lon="-8.5814600">
        <ele>249.1</ele>
        <time>2021-05-24T07:34:58Z</time>
      </trkpt>
      <trkpt lat="42.8451630" lon="-8.5814590">
        <ele>249.1</ele>
        <time>2021-05-24T07:34:59Z</time>
      </trkpt>
      <trkpt lat="42.8451640" lon="-8.5814590">
        <ele>249.1</ele>
        <time>2021-05-24T07:35:00Z</time>
      </trkpt>
      <trkpt lat="42.8451640" lon="-8.5814590">
        <ele>249.1</ele>
        <time>2021-05-24T07:35:01Z</time>
      </trkpt>
      <trkpt lat="42.8451640" lon="-8.5814590">
        <ele>249.1</ele>
        <time>2021-05-24T07:35:02Z</time>
      </trkpt>
      <trkpt lat="42.8451640" lon="-8.5814590">
        <ele>249.1</ele>
        <time>2021-05-24T07:35:03Z</time>
      </trkpt>
      <trkpt lat="42.8451650" lon="-8.5814590">
        <ele>249.1</ele>
        <time>2021-05-24T07:35:04Z</time>
      </trkpt>
      <trkpt lat="42.8451650" lon="-8.5814590">
        <ele>249.1</ele>
        <time>2021-05-24T07:35:05Z</time>
      </trkpt>
      <trkpt lat="42.8451650" lon="-8.5814590">
        <ele>249.1</ele>
        <time>2021-05-24T07:35:06Z</time>
      </trkpt>
      <trkpt lat="42.8451650" lon="-8.5814580">
        <ele>249.1</ele>
        <time>2021-05-24T07:35:07Z</time>
      </trkpt>
      <trkpt lat="42.8451660" lon="-8.5814580">
        <ele>249.1</ele>
        <time>2021-05-24T07:35:08Z</time>
      </trkpt>
      <trkpt lat="42.8451660" lon="-8.5814580">
        <ele>249.1</ele>
        <time>2021-05-24T07:35:09Z</time>
      </trkpt>
      <trkpt lat="42.8451660" lon="-8.5814580">
        <ele>249.1</ele>
        <time>2021-05-24T07:35:10Z</time>
      </trkpt>
      <trkpt lat="42.8451660" lon="-8.5814580">
        <ele>249.1</ele>
        <time>2021-05-24T07:35:11Z</time>
      </trkpt>
      <trkpt lat="42.8451670" lon="-8.5814580">
        <ele>249.1</ele>
        <time>2021-05-24T07:35:12Z</time>
      </trkpt>
      <trkpt lat="42.8451670" lon="-8.5814580">
        <ele>249.1</ele>
        <time>2021-05-24T07:35:13Z</time>
      </trkpt>
      <trkpt lat="42.8451670" lon="-8.5814580">
        <ele>249.1</ele>
        <time>2021-05-24T07:35:14Z</time>
      </trkpt>
      <trkpt lat="42.8451670" lon="-8.5814570">
        <ele>249.1</ele>
        <time>2021-05-24T07:35:15Z</time>
      </trkpt>
      <trkpt lat="42.8451680" lon="-8.5814570">
        <ele>249.1</ele>
        <time>2021-05-24T07:35:16Z</time>
      </trkpt>
      <trkpt lat="42.8451680" lon="-8.5814570">
        <ele>249.1</ele>
        <time>2021-05-24T07:35:17Z</time>
      </trkpt>
      <trkpt lat="42.8451680" lon="-8.5814570">
        <ele>249.1</ele>
        <time>2021-05-24T07:35:18Z</time>
      </trkpt>
      <trkpt lat="42.8451680" lon="-8.5814570">
        <ele>249.1</ele>
        <time>2021-05-24T07:35:19Z</time>
      </trkpt>
      <trkpt lat="42.8451690" lon="-8.5814570">
        <ele>249.1</ele>
        <time>2021-05-24T07:35:20Z</time>
      </trkpt>
      <trkpt lat="42.8451690" lon="-8.5814570">
        <ele>249.1</ele>
        <time>2021-05-24T07:35:21Z</time>
      </trkpt>
      <trkpt lat="42.8451690" lon="-8.5814570">
        <ele>249.1</ele>
        <time>2021-05-24T07:35:22Z</time>
      </trkpt>
      <trkpt lat="42.8451690" lon="-8.5814560">
        <ele>249.1</ele>
        <time>2021-05-24T07:35:23Z</time>
      </trkpt>
      <trkpt lat="42.8451700" lon="-8.5814560">
        <ele>249.1</ele>
        <time>2021-05-24T07:35:24Z</time>
      </trkpt>
      <trkpt lat="42.8451700" lon="-8.5814560">
        <ele>249.1</ele>
        <time>2021-05-24T07:35:25Z</time>
      </trkpt>
      <trkpt lat="42.8451700" lon="-8.5814560">
        <ele>249.1</ele>
        <time>2021-05-24T07:35:26Z</time>
      </trkpt>
      <trkpt lat="42.8451700" lon="-8.5814560">
        <ele>249.1</ele>
        <time>2021-05-24T07:35:27Z</time>
      </trkpt>
      <trkpt lat="42.8451710" lon="-8.5814560">
        <ele>249.1</ele>
        <time>2021-05-24T07:35:28Z</time>
      </trkpt>
      <trkpt lat="42.8451710" lon="-8.5814560">
        <ele>249.1</ele>
        <time>2021-05-24T07:35:29Z</time>
      </trkpt>
      <trkpt lat="42.8451710" lon="-8.5814550">
        <ele>249.1</ele>
        <time>2021-05-24T07:35:30Z</time>
      </trkpt>
      <trkpt lat="42.8451710" lon="-8.5814550">
        <ele>249.1</ele>
        <time>2021-05-24T07:35:31Z</time>
      </trkpt>
      <trkpt lat="42.8451720" lon="-8.5814550">
        <ele>249.1</ele>
        <time>2021-05-24T07:35:32Z</time>
      </trkpt>
      <trkpt lat="42.8451720" lon="-8.5814550">
        <ele>249.1</ele>
        <time>2021-05-24T07:35:33Z</time>
      </trkpt>
      <trkpt lat="42.8451720" lon="-8.5814550">
        <ele>249.1</ele>
        <time>2021-05-24T07:35:34Z</time>
      </trkpt>
      <trkpt lat="42.8451720" lon="-8.5814550">
        <ele>249.1</ele>
        <time>2021-05-24T07:35:35Z</time>
      </trkpt>
      <trkpt lat="42.8451730" lon="-8.5814550">
        <ele>249.1</ele>
        <time>2021-05-24T07:35:36Z</time>
      </trkpt>
      <trkpt lat="42.8451730" lon="-8.5814550">
        <ele>249.1</ele>
        <time>2021-05-24T07:35:37Z</time>
      </trkpt>
      <trkpt lat="42.8451730" lon="-8.5814540">
        <ele>249.1</ele>
        <time>2021-05-24T07:35:38Z</time>
      </trkpt>
      <trkpt lat="42.8451730" lon="-8.5814540">
        <ele>249.1</ele>
        <time>2021-05-24T07:35:39Z</time>
      </trkpt>
      <trkpt lat="42.8451740" lon="-8.5814540">
        <ele>249.1</ele>
        <time>2021-05-24T07:35:40Z</time>
      </trkpt>
      <trkpt lat="42.8451740" lon="-8.5814540">
        <ele>249.1</ele>
        <time>2021-05-24T07:35:41Z</time>
      </trkpt>
      <trkpt lat="42.8451740" lon="-8.5814540">
        <ele>249.1</ele>
        <time>2021-05-24T07:35:42Z</time>
      </trkpt>
      <trkpt lat="42.8451740" lon="-8.5814540">
        <ele>249.1</ele>
        <time>2021-05-24T07:35:43Z</time>
      </trkpt>
      <trkpt lat="42.8451750" lon="-8.5814540">
        <ele>249.1</ele>
        <time>2021-05-24T07:35:44Z</time>
      </trkpt>
      <trkpt lat="42.8451750" lon="-8.5814540">
        <ele>249.1</ele>
        <time>2021-05-24T07:35:45Z</time>
      </trkpt>
      <trkpt lat="42.8451750" lon="-8.5814530">
        <ele>249.1</ele>
        <time>2021-05-24T07:35:46Z</time>
      </trkpt>
      <trkpt lat="42.8451750" lon="-8.5814530">
        <ele>249.1</ele>
        <time>2021-05-24T07:35:47Z</time>
      </trkpt>
      <trkpt lat="42.8451760" lon="-8.5814530">
        <ele>249.1</ele>
        <time>2021-05-24T07:35:48Z</time>
      </trkpt>
      <trkpt lat="42.8451760" lon="-8.5814530">
        <ele>249.1</ele>
        <time>2021-05-24T07:35:49Z</time>
      </trkpt>
      <trkpt lat="42.8451760" lon="-8.5814530">
        <ele>249.1</ele>
        <time>2021-05-24T07:35:50Z</time>
      </trkpt>
      <trkpt lat="42.8451760" lon="-8.5814530">
        <ele>249.1</ele>
        <time>2021-05-24T07:35:51Z</time>
      </trkpt>
      <trkpt lat="42.8451770" lon="-8.5814530">
        <ele>249.1</ele>
        <time>2021-05-24T07:35:52Z</time>
      </trkpt>
      <trkpt lat="42.8451770" lon="-8.5814530">
        <ele>249.1</ele>
        <time>2021-05-24T07:35:53Z</time>
      </trkpt>
      <trkpt lat="42.8451770" lon="-8.5814520">
        <ele>249.1</ele>
        <time>2021-05-24T07:35:54Z</time>
      </trkpt>
      <trkpt lat="42.8451770" lon="-8.5814520">
        <ele>249.1</ele>
        <time>2021-05-24T07:35:55Z</time>
      </trkpt>
      <trkpt lat="42.8451780" lon="-8.5814520">
        <ele>249.1</ele>
        <time>2021-05-24T07:35:56Z</time>
      </trkpt>
      <trkpt lat="42.8451780" lon="-8.5814520">
        <ele>249.1</ele>
        <time>2021-05-24T07:35:57Z</time>
      </trkpt>
      <trkpt lat="42.8451780" lon="-8.5814520">
        <ele>249.1</ele>
        <time>2021-05-24T07:35:58Z</time>
      </trkpt>
      <trkpt lat="42.8451780" lon="-8.5814520">
        <ele>249.1</ele>
        <time>2021-05-24T07:35:59Z</time>
      </trkpt>
      <trkpt lat="42.8451790" lon="-8.5814520">
        <ele>249.1</ele>
        <time>2021-05-24T07:36:00Z</time>
      </trkpt>
      <trkpt lat="42.8451790" lon="-8.5814510">
        <ele>249.1</ele>
        <time>2021-05-24T07:36:01Z</time>
      </trkpt>
      <trkpt lat="42.8451790" lon="-8.5814510">
        <ele>249.1</ele>
        <time>2021-05-24T07:36:02Z</time>
      </trkpt>
      <trkpt lat="42.8451790" lon="-8.5814510">
        <ele>249.1</ele>
        <time>2021-05-24T07:36:03Z</time>
      </trkpt>
      <trkpt lat="42.8451800" lon="-8.5814510">
        <ele>249.1</ele>
        <time>2021-05-24T07:36:04Z</time>
      </trkpt>
      <trkpt lat="42.8451800" lon="-8.5814510">
        <ele>249.1</ele>
        <time>2021-05-24T07:36:05Z</time>
      </trkpt>
      <trkpt lat="42.8451800" lon="-8.5814510">
        <ele>249.1</ele>
        <time>2021-05-24T07:36:06Z</time>
      </trkpt>
      <trkpt lat="42.8451800" lon="-8.5814510">
        <ele>249.1</ele>
        <time>2021-05-24T07:36:07Z</time>
      </trkpt>
      <trkpt lat="42.8451810" lon="-8.5814510">
        <ele>249.1</ele>
        <time>2021-05-24T07:36:08Z</time>
      </trkpt>
      <trkpt lat="42.8451810" lon="-8.5814500">
        <ele>249.1</ele>
        <time>2021-05-24T07:36:09Z</time>
      </trkpt>
      <trkpt lat="42.8451810" lon="-8.5814500">
        <ele>249.1</ele>
        <time>2021-05-24T07:36:10Z</time>
      </trkpt>
      <trkpt lat="42.8451810" lon="-8.5814500">
        <ele>249.1</ele>
        <time>2021-05-24T07:36:11Z</time>
      </trkpt>
      <trkpt lat="42.8451820" lon="-8.5814500">
        <ele>249.1</ele>
        <time>2021-05-24T07:36:12Z</time>
      </trkpt>
      <trkpt lat="42.8451820" lon="-8.5814500">
        <ele>249.1</ele>
        <time>2021-05-24T07:36:13Z</time>
      </trkpt>
      <trkpt lat="42.8451820" lon="-8.5814500">
        <ele>249.1</ele>
        <time>2021-05-24T07:36:14Z</time>
      </trkpt>
      <trkpt lat="42.8451820" lon="-8.5814500">
        <ele>249.1</ele>
        <time>2021-05-24T07:36:15Z</time>
      </trkpt>
      <trkpt lat="42.8451830" lon="-8.5814500">
        <ele>249.1</ele>
        <time>2021-05-24T07:36:16Z</time>
      </trkpt>
      <trkpt lat="42.8451830" lon="-8.5814490">
        <ele>249.1</ele>
        <time>2021-05-24T07:36:17Z</time>
      </trkpt>
      <trkpt lat="42.8451830" lon="-8.5814490">
        <ele>249.1</ele>
        <time>2021-05-24T07:36:18Z</time>
      </trkpt>
      <trkpt lat="42.8451830" lon="-8.5814490">
        <ele>249.1</ele>
        <time>2021-05-24T07:36:19Z</time>
      </trkpt>
      <trkpt lat="42.8451840" lon="-8.5814490">
        <ele>249.1</ele>
        <time>2021-05-24T07:36:20Z</time>
      </trkpt>
      <trkpt lat="42.8451840" lon="-8.5814490">
        <ele>249.1</ele>
        <time>2021-05-24T07:36:21Z</time>
      </trkpt>
      <trkpt lat="42.8451840" lon="-8.5814490">
        <ele>249.1</ele>
        <time>2021-05-24T07:36:22Z</time>
      </trkpt>
      <trkpt lat="42.8451840" lon="-8.5814490">
        <ele>249.1</ele>
        <time>2021-05-24T07:36:23Z</time>
      </trkpt>
      <trkpt lat="42.8451850" lon="-8.5814490">
        <ele>249.1</ele>
        <time>2021-05-24T07:36:24Z</time>
      </trkpt>
      <trkpt lat="42.8451850" lon="-8.5814480">
        <ele>249.1</ele>
        <time>2021-05-24T07:36:25Z</time>
      </trkpt>
      <trkpt lat="42.8451850" lon="-8.5814480">
        <ele>249.1</ele>
        <time>2021-05-24T07:36:26Z</time>
      </trkpt>
      <trkpt lat="42.8451850" lon="-8.5814480">
        <ele>249.1</ele>
        <time>2021-05-24T07:36:27Z</time>
      </trkpt>
      <trkpt lat="42.8451860" lon="-8.5814480">
        <ele>249.1</ele>
        <time>2021-05-24T07:36:28Z</time>
      </trkpt>
      <trkpt lat="42.8451860" lon="-8.5814480">
        <ele>249.1</ele>
        <time>2021-05-24T07:36:29Z</time>
      </trkpt>
      <trkpt lat="42.8451860" lon="-8.5814480">
        <ele>249.1</ele>
        <time>2021-05-24T07:36:30Z</time>
      </trkpt>
      <trkpt lat="42.8451860" lon="-8.5814480">
        <ele>249.1</ele>
        <time>2021-05-24T07:36:31Z</time>
      </trkpt>
      <trkpt lat="42.8451870" lon="-8.5814470">
        <ele>249.0</ele>
        <time>2021-05-24T07:36:32Z</time>
      </trkpt>
      <trkpt lat="42.8451870" lon="-8.5814470">
        <ele>249.0</ele>
        <time>2021-05-24T07:36:33Z</time>
      </trkpt>
      <trkpt lat="42.8451870" lon="-8.5814470">
        <ele>249.0</ele>
        <time>2021-05-24T07:36:34Z</time>
      </trkpt>
      <trkpt lat="42.8451870" lon="-8.5814470">
        <ele>249.0</ele>
        <time>2021-05-24T07:36:35Z</time>
      </trkpt>
      <trkpt lat="42.8451880" lon="-8.5814470">
        <ele>249.0</ele>
        <time>2021-05-24T07:36:36Z</time>
      </trkpt>
      <trkpt lat="42.8451880" lon="-8.5814470">
        <ele>249.0</ele>
        <time>2021-05-24T07:36:37Z</time>
      </trkpt>
      <trkpt lat="42.8451880" lon="-8.5814470">
        <ele>249.0</ele>
        <time>2021-05-24T07:36:38Z</time>
      </trkpt>
      <trkpt lat="42.8451880" lon="-8.5814470">
        <ele>249.0</ele>
        <time>2021-05-24T07:36:39Z</time>
      </trkpt>
      <trkpt lat="42.8451890" lon="-8.5814460">
        <ele>249.0</ele>
        <time>2021-05-24T07:36:40Z</time>
      </trkpt>
      <trkpt lat="42.8451890" lon="-8.5814460">
        <ele>249.0</ele>
        <time>2021-05-24T07:36:41Z</time>
      </trkpt>
      <trkpt lat="42.8451890" lon="-8.5814460">
        <ele>249.0</ele>
        <time>2021-05-24T07:36:42Z</time>
      </trkpt>
      <trkpt lat="42.8451890" lon="-8.5814460">
        <ele>249.0</ele>
        <time>2021-05-24T07:36:43Z</time>
      </trkpt>
      <trkpt lat="42.8451900" lon="-8.5814460">
        <ele>249.0</ele>
        <time>2021-05-24T07:36:44Z</time>
      </trkpt>
      <trkpt lat="42.8451900" lon="-8.5814460">
        <ele>249.0</ele>
        <time>2021-05-24T07:36:45Z</time>
      </trkpt>
      <trkpt lat="42.8451900" lon="-8.5814460">
        <ele>249.0</ele>
        <time>2021-05-24T07:36:46Z</time>
      </trkpt>
      <trkpt lat="42.8451900" lon="-8.5814460">
        <ele>249.0</ele>
        <time>2021-05-24T07:36:47Z</time>
      </trkpt>
      <trkpt lat="42.8451910" lon="-8.5814450">
        <ele>249.0</ele>
        <time>2021-05-24T07:36:48Z</time>
      </trkpt>
      <trkpt lat="42.8451910" lon="-8.5814450">
        <ele>249.0</ele>
        <time>2021-05-24T07:36:49Z</time>
      </trkpt>
      <trkpt lat="42.8451910" lon="-8.5814450">
        <ele>249.0</ele>
        <time>2021-05-24T07:36:50Z</time>
      </trkpt>
      <trkpt lat="42.8451910" lon="-8.5814450">
        <ele>249.0</ele>
        <time>2021-05-24T07:36:51Z</time>
      </trkpt>
      <trkpt lat="42.8451920" lon="-8.5814450">
        <ele>249.0</ele>
        <time>2021-05-24T07:36:52Z</time>
      </trkpt>
      <trkpt lat="42.8451920" lon="-8.5814450">
        <ele>249.0</ele>
        <time>2021-05-24T07:36:53Z</time>
      </trkpt>
      <trkpt lat="42.8451920" lon="-8.5814450">
        <ele>249.0</ele>
        <time>2021-05-24T07:36:54Z</time>
      </trkpt>
      <trkpt lat="42.8451920" lon="-8.5814450">
        <ele>249.0</ele>
        <time>2021-05-24T07:36:55Z</time>
      </trkpt>
      <trkpt lat="42.8451930" lon="-8.5814440">
        <ele>249.0</ele>
        <time>2021-05-24T07:36:56Z</time>
      </trkpt>
      <trkpt lat="42.8451930" lon="-8.5814440">
        <ele>249.0</ele>
        <time>2021-05-24T07:36:57Z</time>
      </trkpt>
      <trkpt lat="42.8451930" lon="-8.5814440">
        <ele>249.0</ele>
        <time>2021-05-24T07:36:58Z</time>
      </trkpt>
      <trkpt lat="42.8451930" lon="-8.5814440">
        <ele>249.0</ele>
        <time>2021-05-24T07:36:59Z</time>
      </trkpt>
      <trkpt lat="42.8451940" lon="-8.5814440">
        <ele>249.0</ele>
        <time>2021-05-24T07:37:00Z</time>
      </trkpt>
      <trkpt lat="42.8451940" lon="-8.5814440">
        <ele>249.0</ele>
        <time>2021-05-24T07:37:01Z</time>
      </trkpt>
      <trkpt lat="42.8451940" lon="-8.5814440">
        <ele>249.0</ele>
        <time>2021-05-24T07:37:02Z</time>
      </trkpt>
      <trkpt lat="42.8451940" lon="-8.5814430">
        <ele>249.0</ele>
        <time>2021-05-24T07:37:03Z</time>
      </trkpt>
      <trkpt lat="42.8451950" lon="-8.5814430">
        <ele>249.0</ele>
        <time>2021-05-24T07:37:04Z</time>
      </trkpt>
      <trkpt lat="42.8451950" lon="-8.5814430">
        <ele>249.0</ele>
        <time>2021-05-24T07:37:05Z</time>
      </trkpt>
      <trkpt lat="42.8451950" lon="-8.5814430">
        <ele>249.0</ele>
        <time>2021-05-24T07:37:06Z</time>
      </trkpt>
      <trkpt lat="42.8451950" lon="-8.5814430">
        <ele>249.0</ele>
        <time>2021-05-24T07:37:07Z</time>
      </trkpt>
      <trkpt lat="42.8451960" lon="-8.5814430">
        <ele>249.0</ele>
        <time>2021-05-24T07:37:08Z</time>
      </trkpt>
      <trkpt lat="42.8451960" lon="-8.5814430">
        <ele>249.0</ele>
        <time>2021-05-24T07:37:09Z</time>
      </trkpt>
      <trkpt lat="42.8451960" lon="-8.5814430">
        <ele>249.0</ele>
        <time>2021-05-24T07:37:10Z</time>
      </trkpt>
      <trkpt lat="42.8451960" lon="-8.5814420">
        <ele>249.0</ele>
        <time>2021-05-24T07:37:11Z</time>
      </trkpt>
      <trkpt lat="42.8451970" lon="-8.5814420">
        <ele>249.0</ele>
        <time>2021-05-24T07:37:12Z</time>
      </trkpt>
      <trkpt lat="42.8451970" lon="-8.5814420">
        <ele>249.0</ele>
        <time>2021-05-24T07:37:13Z</time>
      </trkpt>
      <trkpt lat="42.8451970" lon="-8.5814420">
        <ele>249.0</ele>
        <time>2021-05-24T07:37:14Z</time>
      </trkpt>
      <trkpt lat="42.8451970" lon="-8.5814420">
        <ele>249.0</ele>
        <time>2021-05-24T07:37:15Z</time>
      </trkpt>
      <trkpt lat="42.8451980" lon="-8.5814420">
        <ele>249.0</ele>
        <time>2021-05-24T07:37:16Z</time>
      </trkpt>
      <trkpt lat="42.8451980" lon="-8.5814420">
        <ele>249.0</ele>
        <time>2021-05-24T07:37:17Z</time>
      </trkpt>
      <trkpt lat="42.8451980" lon="-8.5814420">
        <ele>249.0</ele>
        <time>2021-05-24T07:37:18Z</time>
      </trkpt>
      <trkpt lat="42.8451980" lon="-8.5814410">
        <ele>249.0</ele>
        <time>2021-05-24T07:37:19Z</time>
      </trkpt>
      <trkpt lat="42.8451990" lon="-8.5814410">
        <ele>249.0</ele>
        <time>2021-05-24T07:37:20Z</time>
      </trkpt>
      <trkpt lat="42.8451990" lon="-8.5814410">
        <ele>249.0</ele>
        <time>2021-05-24T07:37:21Z</time>
      </trkpt>
      <trkpt lat="42.8451990" lon="-8.5814410">
        <ele>249.0</ele>
        <time>2021-05-24T07:37:22Z</time>
      </trkpt>
      <trkpt lat="42.8451990" lon="-8.5814410">
        <ele>249.0</ele>
        <time>2021-05-24T07:37:23Z</time>
      </trkpt>
      <trkpt lat="42.8452000" lon="-8.5814410">
        <ele>249.0</ele>
        <time>2021-05-24T07:37:24Z</time>
      </trkpt>
      <trkpt lat="42.8452000" lon="-8.5814410">
        <ele>249.0</ele>
        <time>2021-05-24T07:37:25Z</time>
      </trkpt>
      <trkpt lat="42.8452000" lon="-8.5814410">
        <ele>249.0</ele>
        <time>2021-05-24T07:37:26Z</time>
      </trkpt>
      <trkpt lat="42.8452000" lon="-8.5814400">
        <ele>249.0</ele>
        <time>2021-05-24T07:37:27Z</time>
      </trkpt>
      <trkpt lat="42.8452010" lon="-8.5814400">
        <ele>249.0</ele>
        <time>2021-05-24T07:37:28Z</time>
      </trkpt>
      <trkpt lat="42.8452010" lon="-8.5814400">
        <ele>249.0</ele>
        <time>2021-05-24T07:37:29Z</time>
      </trkpt>
      <trkpt lat="42.8452010" lon="-8.5814400">
        <ele>249.0</ele>
        <time>2021-05-24T07:37:30Z</time>
      </trkpt>
      <trkpt lat="42.8451980" lon="-8.5814390">
        <ele>249.0</ele>
        <time>2021-05-24T07:37:31Z</time>
      </trkpt>
      <trkpt lat="42.8451950" lon="-8.5814440">
        <ele>249.0</ele>
        <time>2021-05-24T07:37:32Z</time>
      </trkpt>
      <trkpt lat="42.8451930" lon="-8.5814450">
        <ele>249.0</ele>
        <time>2021-05-24T07:37:33Z</time>
      </trkpt>
      <trkpt lat="42.8451890" lon="-8.5814480">
        <ele>249.0</ele>
        <time>2021-05-24T07:37:34Z</time>
      </trkpt>
      <trkpt lat="42.8451810" lon="-8.5814490">
        <ele>249.0</ele>
        <time>2021-05-24T07:37:35Z</time>
      </trkpt>
      <trkpt lat="42.8451810" lon="-8.5814490">
        <ele>249.0</ele>
        <time>2021-05-24T07:37:36Z</time>
      </trkpt>
      <trkpt lat="42.8451780" lon="-8.5814490">
        <ele>249.0</ele>
        <time>2021-05-24T07:37:37Z</time>
      </trkpt>
      <trkpt lat="42.8451740" lon="-8.5814510">
        <ele>249.0</ele>
        <time>2021-05-24T07:37:38Z</time>
      </trkpt>
      <trkpt lat="42.8451730" lon="-8.5814520">
        <ele>249.0</ele>
        <time>2021-05-24T07:37:39Z</time>
      </trkpt>
      <trkpt lat="42.8451640" lon="-8.5814530">
        <ele>249.0</ele>
        <time>2021-05-24T07:37:40Z</time>
      </trkpt>
      <trkpt lat="42.8451620" lon="-8.5814540">
        <ele>249.0</ele>
        <time>2021-05-24T07:37:41Z</time>
      </trkpt>
      <trkpt lat="42.8451610" lon="-8.5814560">
        <ele>249.0</ele>
        <time>2021-05-24T07:37:42Z</time>
      </trkpt>
      <trkpt lat="42.8451620" lon="-8.5814530">
        <ele>249.0</ele>
        <time>2021-05-24T07:37:43Z</time>
      </trkpt>
      <trkpt lat="42.8451680" lon="-8.5814500">
        <ele>249.0</ele>
        <time>2021-05-24T07:37:44Z</time>
      </trkpt>
      <trkpt lat="42.8451700" lon="-8.5814490">
        <ele>249.0</ele>
        <time>2021-05-24T07:37:45Z</time>
      </trkpt>
      <trkpt lat="42.8451680" lon="-8.5814420">
        <ele>249.0</ele>
        <time>2021-05-24T07:37:46Z</time>
      </trkpt>
      <trkpt lat="42.8451590" lon="-8.5814340">
        <ele>249.0</ele>
        <time>2021-05-24T07:37:47Z</time>
      </trkpt>
      <trkpt lat="42.8451500" lon="-8.5814260">
        <ele>249.0</ele>
        <time>2021-05-24T07:37:48Z</time>
      </trkpt>
      <trkpt lat="42.8451440" lon="-8.5814150">
        <ele>249.0</ele>
        <time>2021-05-24T07:37:49Z</time>
      </trkpt>
      <trkpt lat="42.8451290" lon="-8.5814110">
        <ele>249.0</ele>
        <time>2021-05-24T07:37:50Z</time>
      </trkpt>
      <trkpt lat="42.8451320" lon="-8.5814050">
        <ele>249.0</ele>
        <time>2021-05-24T07:37:51Z</time>
      </trkpt>
      <trkpt lat="42.8451390" lon="-8.5814000">
        <ele>249.0</ele>
        <time>2021-05-24T07:37:52Z</time>
      </trkpt>
      <trkpt lat="42.8451430" lon="-8.5813960">
        <ele>249.0</ele>
        <time>2021-05-24T07:37:53Z</time>
      </trkpt>
      <trkpt lat="42.8451430" lon="-8.5813910">
        <ele>249.0</ele>
        <time>2021-05-24T07:37:54Z</time>
      </trkpt>
      <trkpt lat="42.8451440" lon="-8.5813870">
        <ele>249.0</ele>
        <time>2021-05-24T07:37:55Z</time>
      </trkpt>
      <trkpt lat="42.8451390" lon="-8.5813930">
        <ele>249.0</ele>
        <time>2021-05-24T07:37:56Z</time>
      </trkpt>
      <trkpt lat="42.8451430" lon="-8.5813990">
        <ele>249.0</ele>
        <time>2021-05-24T07:37:57Z</time>
      </trkpt>
      <trkpt lat="42.8451470" lon="-8.5814010">
        <ele>249.0</ele>
        <time>2021-05-24T07:37:58Z</time>
      </trkpt>
      <trkpt lat="42.8451430" lon="-8.5813960">
        <ele>249.0</ele>
        <time>2021-05-24T07:37:59Z</time>
      </trkpt>
      <trkpt lat="42.8451430" lon="-8.5813800">
        <ele>249.0</ele>
        <time>2021-05-24T07:38:00Z</time>
      </trkpt>
      <trkpt lat="42.8451340" lon="-8.5813720">
        <ele>249.0</ele>
        <time>2021-05-24T07:38:01Z</time>
      </trkpt>
      <trkpt lat="42.8451310" lon="-8.5813620">
        <ele>249.0</ele>
        <time>2021-05-24T07:38:02Z</time>
      </trkpt>
      <trkpt lat="42.8451300" lon="-8.5813480">
        <ele>249.0</ele>
        <time>2021-05-24T07:38:03Z</time>
      </trkpt>
      <trkpt lat="42.8451320" lon="-8.5813400">
        <ele>249.0</ele>
        <time>2021-05-24T07:38:04Z</time>
      </trkpt>
      <trkpt lat="42.8451210" lon="-8.5813340">
        <ele>249.0</ele>
        <time>2021-05-24T07:38:05Z</time>
      </trkpt>
      <trkpt lat="42.8451050" lon="-8.5813170">
        <ele>249.0</ele>
        <time>2021-05-24T07:38:06Z</time>
      </trkpt>
      <trkpt lat="42.8451170" lon="-8.5813180">
        <ele>249.0</ele>
        <time>2021-05-24T07:38:07Z</time>
      </trkpt>
      <trkpt lat="42.8451320" lon="-8.5813130">
        <ele>249.0</ele>
        <time>2021-05-24T07:38:08Z</time>
      </trkpt>
      <trkpt lat="42.8451330" lon="-8.5813090">
        <ele>249.0</ele>
        <time>2021-05-24T07:38:09Z</time>
      </trkpt>
      <trkpt lat="42.8451350" lon="-8.5813060">
        <ele>249.0</ele>
        <time>2021-05-24T07:38:10Z</time>
      </trkpt>
      <trkpt lat="42.8451440" lon="-8.5813060">
        <ele>249.0</ele>
        <time>2021-05-24T07:38:11Z</time>
      </trkpt>
      <trkpt lat="42.8451490" lon="-8.5813100">
        <ele>249.0</ele>
        <time>2021-05-24T07:38:12Z</time>
      </trkpt>
      <trkpt lat="42.8451560" lon="-8.5813140">
        <ele>249.0</ele>
        <time>2021-05-24T07:38:13Z</time>
      </trkpt>
      <trkpt lat="42.8451310" lon="-8.5813140">
        <ele>249.0</ele>
        <time>2021-05-24T07:38:14Z</time>
      </trkpt>
      <trkpt lat="42.8451390" lon="-8.5813230">
        <ele>249.0</ele>
        <time>2021-05-24T07:38:15Z</time>
      </trkpt>
      <trkpt lat="42.8451290" lon="-8.5813380">
        <ele>249.0</ele>
        <time>2021-05-24T07:38:16Z</time>
      </trkpt>
      <trkpt lat="42.8451570" lon="-8.5813280">
        <ele>249.0</ele>
        <time>2021-05-24T07:38:17Z</time>
      </trkpt>
      <trkpt lat="42.8451660" lon="-8.5813310">
        <ele>249.0</ele>
        <time>2021-05-24T07:38:18Z</time>
      </trkpt>
      <trkpt lat="42.8451670" lon="-8.5813190">
        <ele>249.0</ele>
        <time>2021-05-24T07:38:19Z</time>
      </trkpt>
      <trkpt lat="42.8451660" lon="-8.5813070">
        <ele>249.0</ele>
        <time>2021-05-24T07:38:20Z</time>
      </trkpt>
      <trkpt lat="42.8451640" lon="-8.5812940">
        <ele>249.0</ele>
        <time>2021-05-24T07:38:21Z</time>
      </trkpt>
      <trkpt lat="42.8451630" lon="-8.5812820">
        <ele>249.0</ele>
        <time>2021-05-24T07:38:22Z</time>
      </trkpt>
      <trkpt lat="42.8451620" lon="-8.5812690">
        <ele>249.0</ele>
        <time>2021-05-24T07:38:23Z</time>
      </trkpt>
      <trkpt lat="42.8451600" lon="-8.5812470">
        <ele>249.0</ele>
        <time>2021-05-24T07:38:24Z</time>
      </trkpt>
      <trkpt lat="42.8451450" lon="-8.5812410">
        <ele>249.0</ele>
        <time>2021-05-24T07:38:25Z</time>
      </trkpt>
      <trkpt lat="42.8451470" lon="-8.5812370">
        <ele>249.0</ele>
        <time>2021-05-24T07:38:26Z</time>
      </trkpt>
      <trkpt lat="42.8451480" lon="-8.5812240">
        <ele>249.0</ele>
        <time>2021-05-24T07:38:27Z</time>
      </trkpt>
      <trkpt lat="42.8451410" lon="-8.5812070">
        <ele>249.0</ele>
        <time>2021-05-24T07:38:28Z</time>
      </trkpt>
      <trkpt lat="42.8451380" lon="-8.5812010">
        <ele>249.0</ele>
        <time>2021-05-24T07:38:29Z</time>
      </trkpt>
      <trkpt lat="42.8451340" lon="-8.5812040">
        <ele>249.0</ele>
        <time>2021-05-24T07:38:30Z</time>
      </trkpt>
      <trkpt lat="42.8451310" lon="-8.5812170">
        <ele>249.0</ele>
        <time>2021-05-24T07:38:31Z</time>
      </trkpt>
      <trkpt lat="42.8451390" lon="-8.5812150">
        <ele>249.0</ele>
        <time>2021-05-24T07:38:32Z</time>
      </trkpt>
      <trkpt lat="42.8451410" lon="-8.5812120">
        <ele>249.0</ele>
        <time>2021-05-24T07:38:33Z</time>
      </trkpt>
      <trkpt lat="42.8451450" lon="-8.5812080">
        <ele>249.0</ele>
        <time>2021-05-24T07:38:34Z</time>
      </trkpt>
      <trkpt lat="42.8451540" lon="-8.5812100">
        <ele>249.0</ele>
        <time>2021-05-24T07:38:35Z</time>
      </trkpt>
      <trkpt lat="42.8451640" lon="-8.5812080">
        <ele>249.0</ele>
        <time>2021-05-24T07:38:36Z</time>
      </trkpt>
      <trkpt lat="42.8451680" lon="-8.5812030">
        <ele>249.0</ele>
        <time>2021-05-24T07:38:37Z</time>
      </trkpt>
      <trkpt lat="42.8451730" lon="-8.5811940">
        <ele>249.0</ele>
        <time>2021-05-24T07:38:38Z</time>
      </trkpt>
      <trkpt lat="42.8451720" lon="-8.5811940">
        <ele>249.0</ele>
        <time>2021-05-24T07:38:39Z</time>
      </trkpt>
      <trkpt lat="42.8451720" lon="-8.5811940">
        <ele>249.0</ele>
        <time>2021-05-24T07:38:40Z</time>
      </trkpt>
      <trkpt lat="42.8451690" lon="-8.5811740">
        <ele>249.0</ele>
        <time>2021-05-24T07:38:41Z</time>
      </trkpt>
      <trkpt lat="42.8451720" lon="-8.5811670">
        <ele>249.0</ele>
        <time>2021-05-24T07:38:42Z</time>
      </trkpt>
      <trkpt lat="42.8451740" lon="-8.5811630">
        <ele>249.0</ele>
        <time>2021-05-24T07:38:43Z</time>
      </trkpt>
      <trkpt lat="42.8451700" lon="-8.5811720">
        <ele>249.0</ele>
        <time>2021-05-24T07:38:44Z</time>
      </trkpt>
      <trkpt lat="42.8451720" lon="-8.5811770">
        <ele>249.0</ele>
        <time>2021-05-24T07:38:45Z</time>
      </trkpt>
      <trkpt lat="42.8451630" lon="-8.5811720">
        <ele>249.0</ele>
        <time>2021-05-24T07:38:46Z</time>
      </trkpt>
      <trkpt lat="42.8451570" lon="-8.5811630">
        <ele>249.0</ele>
        <time>2021-05-24T07:38:47Z</time>
      </trkpt>
      <trkpt lat="42.8451690" lon="-8.5811550">
        <ele>249.0</ele>
        <time>2021-05-24T07:38:48Z</time>
      </trkpt>
      <trkpt lat="42.8451780" lon="-8.5811450">
        <ele>249.0</ele>
        <time>2021-05-24T07:38:49Z</time>
      </trkpt>
      <trkpt lat="42.8451890" lon="-8.5811340">
        <ele>249.0</ele>
        <time>2021-05-24T07:38:50Z</time>
      </trkpt>
      <trkpt lat="42.8451890" lon="-8.5811340">
        <ele>249.0</ele>
        <time>2021-05-24T07:38:51Z</time>
      </trkpt>
      <trkpt lat="42.8451890" lon="-8.5811340">
        <ele>249.0</ele>
        <time>2021-05-24T07:38:52Z</time>
      </trkpt>
      <trkpt lat="42.8451890" lon="-8.5811340">
        <ele>249.0</ele>
        <time>2021-05-24T07:38:53Z</time>
      </trkpt>
      <trkpt lat="42.8451670" lon="-8.5811400">
        <ele>249.0</ele>
        <time>2021-05-24T07:38:54Z</time>
      </trkpt>
      <trkpt lat="42.8451690" lon="-8.5811430">
        <ele>249.0</ele>
        <time>2021-05-24T07:38:55Z</time>
      </trkpt>
      <trkpt lat="42.8451630" lon="-8.5811470">
        <ele>249.0</ele>
        <time>2021-05-24T07:38:56Z</time>
      </trkpt>
      <trkpt lat="42.8451640" lon="-8.5811450">
        <ele>249.0</ele>
        <time>2021-05-24T07:38:57Z</time>
      </trkpt>
      <trkpt lat="42.8451450" lon="-8.5811450">
        <ele>249.0</ele>
        <time>2021-05-24T07:38:58Z</time>
      </trkpt>
      <trkpt lat="42.8451350" lon="-8.5811460">
        <ele>249.0</ele>
        <time>2021-05-24T07:38:59Z</time>
      </trkpt>
      <trkpt lat="42.8450630" lon="-8.5811620">
        <ele>249.0</ele>
        <time>2021-05-24T07:39:00Z</time>
      </trkpt>
      <trkpt lat="42.8450600" lon="-8.5811580">
        <ele>249.0</ele>
        <time>2021-05-24T07:39:01Z</time>
      </trkpt>
      <trkpt lat="42.8450520" lon="-8.5811610">
        <ele>249.0</ele>
        <time>2021-05-24T07:39:02Z</time>
      </trkpt>
      <trkpt lat="42.8450450" lon="-8.5811650">
        <ele>249.0</ele>
        <time>2021-05-24T07:39:03Z</time>
      </trkpt>
      <trkpt lat="42.8450380" lon="-8.5811690">
        <ele>248.9</ele>
        <time>2021-05-24T07:39:04Z</time>
      </trkpt>
      <trkpt lat="42.8450300" lon="-8.5811720">
        <ele>248.9</ele>
        <time>2021-05-24T07:39:05Z</time>
      </trkpt>
      <trkpt lat="42.8450230" lon="-8.5811760">
        <ele>248.9</ele>
        <time>2021-05-24T07:39:06Z</time>
      </trkpt>
      <trkpt lat="42.8450480" lon="-8.5811430">
        <ele>248.9</ele>
        <time>2021-05-24T07:39:07Z</time>
      </trkpt>
      <trkpt lat="42.8450040" lon="-8.5811630">
        <ele>248.9</ele>
        <time>2021-05-24T07:39:08Z</time>
      </trkpt>
      <trkpt lat="42.8449520" lon="-8.5811840">
        <ele>248.9</ele>
        <time>2021-05-24T07:39:09Z</time>
      </trkpt>
      <trkpt lat="42.8449290" lon="-8.5811130">
        <ele>248.9</ele>
        <time>2021-05-24T07:39:10Z</time>
      </trkpt>
      <trkpt lat="42.8450010" lon="-8.5810930">
        <ele>248.9</ele>
        <time>2021-05-24T07:39:11Z</time>
      </trkpt>
      <trkpt lat="42.8450220" lon="-8.5810680">
        <ele>248.9</ele>
        <time>2021-05-24T07:39:12Z</time>
      </trkpt>
      <trkpt lat="42.8450390" lon="-8.5810650">
        <ele>248.9</ele>
        <time>2021-05-24T07:39:13Z</time>
      </trkpt>
      <trkpt lat="42.8450550" lon="-8.5810630">
        <ele>248.9</ele>
        <time>2021-05-24T07:39:14Z</time>
      </trkpt>
      <trkpt lat="42.8450460" lon="-8.5811010">
        <ele>248.9</ele>
        <time>2021-05-24T07:39:15Z</time>
      </trkpt>
      <trkpt lat="42.8450680" lon="-8.5811420">
        <ele>248.9</ele>
        <time>2021-05-24T07:39:17Z</time>
      </trkpt>
      <trkpt lat="42.8450760" lon="-8.5811860">
        <ele>248.9</ele>
        <time>2021-05-24T07:39:18Z</time>
      </trkpt>
      <trkpt lat="42.8450870" lon="-8.5811970">
        <ele>248.9</ele>
        <time>2021-05-24T07:39:19Z</time>
      </trkpt>
      <trkpt lat="42.8450890" lon="-8.5812090">
        <ele>248.9</ele>
        <time>2021-05-24T07:39:20Z</time>
      </trkpt>
      <trkpt lat="42.8450940" lon="-8.5812160">
        <ele>248.9</ele>
        <time>2021-05-24T07:39:21Z</time>
      </trkpt>
      <trkpt lat="42.8450920" lon="-8.5812400">
        <ele>248.9</ele>
        <time>2021-05-24T07:39:22Z</time>
      </trkpt>
      <trkpt lat="42.8450890" lon="-8.5812540">
        <ele>248.9</ele>
        <time>2021-05-24T07:39:23Z</time>
      </trkpt>
      <trkpt lat="42.8450890" lon="-8.5812860">
        <ele>248.9</ele>
        <time>2021-05-24T07:39:24Z</time>
      </trkpt>
      <trkpt lat="42.8450810" lon="-8.5813080">
        <ele>248.9</ele>
        <time>2021-05-24T07:39:25Z</time>
      </trkpt>
      <trkpt lat="42.8450680" lon="-8.5813170">
        <ele>248.9</ele>
        <time>2021-05-24T07:39:26Z</time>
      </trkpt>
      <trkpt lat="42.8450660" lon="-8.5813260">
        <ele>248.9</ele>
        <time>2021-05-24T07:39:27Z</time>
      </trkpt>
      <trkpt lat="42.8450720" lon="-8.5813340">
        <ele>248.9</ele>
        <time>2021-05-24T07:39:28Z</time>
      </trkpt>
      <trkpt lat="42.8450790" lon="-8.5813410">
        <ele>248.9</ele>
        <time>2021-05-24T07:39:29Z</time>
      </trkpt>
      <trkpt lat="42.8450810" lon="-8.5813340">
        <ele>248.9</ele>
        <time>2021-05-24T07:39:30Z</time>
      </trkpt>
      <trkpt lat="42.8450830" lon="-8.5813300">
        <ele>248.9</ele>
        <time>2021-05-24T07:39:31Z</time>
      </trkpt>
      <trkpt lat="42.8450750" lon="-8.5813190">
        <ele>248.9</ele>
        <time>2021-05-24T07:39:32Z</time>
      </trkpt>
      <trkpt lat="42.8450720" lon="-8.5813180">
        <ele>248.9</ele>
        <time>2021-05-24T07:39:33Z</time>
      </trkpt>
      <trkpt lat="42.8450650" lon="-8.5813080">
        <ele>248.9</ele>
        <time>2021-05-24T07:39:34Z</time>
      </trkpt>
      <trkpt lat="42.8450640" lon="-8.5813030">
        <ele>248.9</ele>
        <time>2021-05-24T07:39:35Z</time>
      </trkpt>
      <trkpt lat="42.8450640" lon="-8.5813020">
        <ele>248.9</ele>
        <time>2021-05-24T07:39:36Z</time>
      </trkpt>
      <trkpt lat="42.8450620" lon="-8.5812990">
        <ele>248.9</ele>
        <time>2021-05-24T07:39:37Z</time>
      </trkpt>
      <trkpt lat="42.8450610" lon="-8.5812940">
        <ele>248.9</ele>
        <time>2021-05-24T07:39:38Z</time>
      </trkpt>
      <trkpt lat="42.8450520" lon="-8.5813010">
        <ele>248.9</ele>
        <time>2021-05-24T07:39:39Z</time>
      </trkpt>
      <trkpt lat="42.8450360" lon="-8.5813080">
        <ele>248.9</ele>
        <time>2021-05-24T07:39:40Z</time>
      </trkpt>
      <trkpt lat="42.8450260" lon="-8.5813110">
        <ele>248.9</ele>
        <time>2021-05-24T07:39:41Z</time>
      </trkpt>
      <trkpt lat="42.8450260" lon="-8.5813070">
        <ele>248.9</ele>
        <time>2021-05-24T07:39:42Z</time>
      </trkpt>
      <trkpt lat="42.8450240" lon="-8.5813060">
        <ele>248.9</ele>
        <time>2021-05-24T07:39:43Z</time>
      </trkpt>
      <trkpt lat="42.8450220" lon="-8.5813040">
        <ele>248.9</ele>
        <time>2021-05-24T07:39:44Z</time>
      </trkpt>
      <trkpt lat="42.8450260" lon="-8.5813000">
        <ele>248.9</ele>
        <time>2021-05-24T07:39:45Z</time>
      </trkpt>
      <trkpt lat="42.8450250" lon="-8.5812930">
        <ele>248.9</ele>
        <time>2021-05-24T07:39:46Z</time>
      </trkpt>
      <trkpt lat="42.8450360" lon="-8.5812860">
        <ele>248.9</ele>
        <time>2021-05-24T07:39:47Z</time>
      </trkpt>
      <trkpt lat="42.8450450" lon="-8.5812810">
        <ele>248.9</ele>
        <time>2021-05-24T07:39:48Z</time>
      </trkpt>
      <trkpt lat="42.8450640" lon="-8.5812800">
        <ele>248.9</ele>
        <time>2021-05-24T07:39:49Z</time>
      </trkpt>
      <trkpt lat="42.8450840" lon="-8.5812800">
        <ele>248.9</ele>
        <time>2021-05-24T07:39:50Z</time>
      </trkpt>
      <trkpt lat="42.8450950" lon="-8.5813040">
        <ele>248.9</ele>
        <time>2021-05-24T07:39:51Z</time>
      </trkpt>
      <trkpt lat="42.8451050" lon="-8.5813180">
        <ele>248.9</ele>
        <time>2021-05-24T07:39:52Z</time>
      </trkpt>
      <trkpt lat="42.8451200" lon="-8.5813080">
        <ele>248.9</ele>
        <time>2021-05-24T07:39:53Z</time>
      </trkpt>
      <trkpt lat="42.8451120" lon="-8.5813060">
        <ele>248.9</ele>
        <time>2021-05-24T07:39:54Z</time>
      </trkpt>
      <trkpt lat="42.8451140" lon="-8.5812920">
        <ele>248.9</ele>
        <time>2021-05-24T07:39:55Z</time>
      </trkpt>
      <trkpt lat="42.8451200" lon="-8.5812810">
        <ele>248.9</ele>
        <time>2021-05-24T07:39:56Z</time>
      </trkpt>
      <trkpt lat="42.8451060" lon="-8.5812520">
        <ele>248.8</ele>
        <time>2021-05-24T07:39:57Z</time>
      </trkpt>
      <trkpt lat="42.8450970" lon="-8.5812400">
        <ele>248.8</ele>
        <time>2021-05-24T07:39:58Z</time>
      </trkpt>
      <trkpt lat="42.8451040" lon="-8.5812360">
        <ele>248.8</ele>
        <time>2021-05-24T07:39:59Z</time>
      </trkpt>
      <trkpt lat="42.8450930" lon="-8.5812390">
        <ele>248.8</ele>
        <time>2021-05-24T07:40:00Z</time>
      </trkpt>
      <trkpt lat="42.8450900" lon="-8.5812270">
        <ele>248.8</ele>
        <time>2021-05-24T07:40:01Z</time>
      </trkpt>
      <trkpt lat="42.8450890" lon="-8.5812240">
        <ele>248.8</ele>
        <time>2021-05-24T07:40:02Z</time>
      </trkpt>
      <trkpt lat="42.8450840" lon="-8.5812110">
        <ele>248.8</ele>
        <time>2021-05-24T07:40:03Z</time>
      </trkpt>
      <trkpt lat="42.8450800" lon="-8.5812050">
        <ele>248.8</ele>
        <time>2021-05-24T07:40:04Z</time>
      </trkpt>
      <trkpt lat="42.8450730" lon="-8.5811870">
        <ele>248.8</ele>
        <time>2021-05-24T07:40:05Z</time>
      </trkpt>
      <trkpt lat="42.8450690" lon="-8.5811790">
        <ele>248.8</ele>
        <time>2021-05-24T07:40:06Z</time>
      </trkpt>
      <trkpt lat="42.8450640" lon="-8.5811710">
        <ele>248.8</ele>
        <time>2021-05-24T07:40:07Z</time>
      </trkpt>
      <trkpt lat="42.8450600" lon="-8.5811630">
        <ele>248.8</ele>
        <time>2021-05-24T07:40:08Z</time>
      </trkpt>
      <trkpt lat="42.8450560" lon="-8.5811540">
        <ele>248.8</ele>
        <time>2021-05-24T07:40:09Z</time>
      </trkpt>
      <trkpt lat="42.8450450" lon="-8.5811490">
        <ele>248.8</ele>
        <time>2021-05-24T07:40:10Z</time>
      </trkpt>
      <trkpt lat="42.8450420" lon="-8.5811420">
        <ele>248.8</ele>
        <time>2021-05-24T07:40:11Z</time>
      </trkpt>
      <trkpt lat="42.8450500" lon="-8.5811280">
        <ele>248.8</ele>
        <time>2021-05-24T07:40:12Z</time>
      </trkpt>
      <trkpt lat="42.8450540" lon="-8.5811190">
        <ele>248.8</ele>
        <time>2021-05-24T07:40:13Z</time>
      </trkpt>
      <trkpt lat="42.8450530" lon="-8.5811150">
        <ele>248.8</ele>
        <time>2021-05-24T07:40:14Z</time>
      </trkpt>
      <trkpt lat="42.8450510" lon="-8.5811130">
        <ele>248.8</ele>
        <time>2021-05-24T07:40:15Z</time>
      </trkpt>
      <trkpt lat="42.8450500" lon="-8.5811090">
        <ele>248.8</ele>
        <time>2021-05-24T07:40:16Z</time>
      </trkpt>
      <trkpt lat="42.8450510" lon="-8.5811060">
        <ele>248.8</ele>
        <time>2021-05-24T07:40:17Z</time>
      </trkpt>
      <trkpt lat="42.8450550" lon="-8.5811030">
        <ele>248.8</ele>
        <time>2021-05-24T07:40:18Z</time>
      </trkpt>
      <trkpt lat="42.8450580" lon="-8.5811000">
        <ele>248.8</ele>
        <time>2021-05-24T07:40:19Z</time>
      </trkpt>
      <trkpt lat="42.8450540" lon="-8.5811050">
        <ele>248.8</ele>
        <time>2021-05-24T07:40:20Z</time>
      </trkpt>
      <trkpt lat="42.8450620" lon="-8.5811160">
        <ele>248.8</ele>
        <time>2021-05-24T07:40:21Z</time>
      </trkpt>
      <trkpt lat="42.8450560" lon="-8.5811180">
        <ele>248.8</ele>
        <time>2021-05-24T07:40:22Z</time>
      </trkpt>
      <trkpt lat="42.8450610" lon="-8.5811210">
        <ele>248.8</ele>
        <time>2021-05-24T07:40:23Z</time>
      </trkpt>
      <trkpt lat="42.8450630" lon="-8.5811240">
        <ele>248.8</ele>
        <time>2021-05-24T07:40:24Z</time>
      </trkpt>
      <trkpt lat="42.8450520" lon="-8.5811250">
        <ele>248.8</ele>
        <time>2021-05-24T07:40:25Z</time>
      </trkpt>
      <trkpt lat="42.8450510" lon="-8.5811200">
        <ele>248.8</ele>
        <time>2021-05-24T07:40:26Z</time>
      </trkpt>
      <trkpt lat="42.8450470" lon="-8.5811100">
        <ele>248.8</ele>
        <time>2021-05-24T07:40:27Z</time>
      </trkpt>
      <trkpt lat="42.8450460" lon="-8.5811060">
        <ele>248.8</ele>
        <time>2021-05-24T07:40:28Z</time>
      </trkpt>
      <trkpt lat="42.8450450" lon="-8.5811020">
        <ele>248.8</ele>
        <time>2021-05-24T07:40:29Z</time>
      </trkpt>
      <trkpt lat="42.8450410" lon="-8.5811030">
        <ele>248.8</ele>
        <time>2021-05-24T07:40:30Z</time>
      </trkpt>
      <trkpt lat="42.8450440" lon="-8.5810890">
        <ele>248.8</ele>
        <time>2021-05-24T07:40:31Z</time>
      </trkpt>
      <trkpt lat="42.8450440" lon="-8.5810870">
        <ele>248.8</ele>
        <time>2021-05-24T07:40:32Z</time>
      </trkpt>
      <trkpt lat="42.8450390" lon="-8.5810850">
        <ele>248.8</ele>
        <time>2021-05-24T07:40:33Z</time>
      </trkpt>
      <trkpt lat="42.8450380" lon="-8.5810820">
        <ele>248.8</ele>
        <time>2021-05-24T07:40:34Z</time>
      </trkpt>
      <trkpt lat="42.8450390" lon="-8.5810820">
        <ele>248.8</ele>
        <time>2021-05-24T07:40:35Z</time>
      </trkpt>
      <trkpt lat="42.8450460" lon="-8.5810800">
        <ele>248.8</ele>
        <time>2021-05-24T07:40:36Z</time>
      </trkpt>
      <trkpt lat="42.8450480" lon="-8.5810740">
        <ele>248.8</ele>
        <time>2021-05-24T07:40:37Z</time>
      </trkpt>
      <trkpt lat="42.8450540" lon="-8.5810720">
        <ele>248.8</ele>
        <time>2021-05-24T07:40:38Z</time>
      </trkpt>
      <trkpt lat="42.8450550" lon="-8.5810670">
        <ele>248.8</ele>
        <time>2021-05-24T07:40:39Z</time>
      </trkpt>
      <trkpt lat="42.8450560" lon="-8.5810720">
        <ele>248.8</ele>
        <time>2021-05-24T07:40:40Z</time>
      </trkpt>
      <trkpt lat="42.8450570" lon="-8.5810680">
        <ele>248.8</ele>
        <time>2021-05-24T07:40:41Z</time>
      </trkpt>
      <trkpt lat="42.8450590" lon="-8.5810600">
        <ele>248.8</ele>
        <time>2021-05-24T07:40:42Z</time>
      </trkpt>
      <trkpt lat="42.8450580" lon="-8.5810500">
        <ele>248.8</ele>
        <time>2021-05-24T07:40:43Z</time>
      </trkpt>
      <trkpt lat="42.8450510" lon="-8.5810460">
        <ele>248.8</ele>
        <time>2021-05-24T07:40:44Z</time>
      </trkpt>
      <trkpt lat="42.8450420" lon="-8.5810390">
        <ele>248.8</ele>
        <time>2021-05-24T07:40:45Z</time>
      </trkpt>
      <trkpt lat="42.8450440" lon="-8.5810320">
        <ele>248.8</ele>
        <time>2021-05-24T07:40:46Z</time>
      </trkpt>
      <trkpt lat="42.8450470" lon="-8.5810280">
        <ele>248.8</ele>
        <time>2021-05-24T07:40:47Z</time>
      </trkpt>
      <trkpt lat="42.8450480" lon="-8.5810170">
        <ele>248.8</ele>
        <time>2021-05-24T07:40:48Z</time>
      </trkpt>
      <trkpt lat="42.8450430" lon="-8.5810120">
        <ele>248.8</ele>
        <time>2021-05-24T07:40:49Z</time>
      </trkpt>
      <trkpt lat="42.8450340" lon="-8.5809900">
        <ele>248.8</ele>
        <time>2021-05-24T07:40:50Z</time>
      </trkpt>
      <trkpt lat="42.8450290" lon="-8.5809790">
        <ele>248.8</ele>
        <time>2021-05-24T07:40:51Z</time>
      </trkpt>
      <trkpt lat="42.8450240" lon="-8.5809680">
        <ele>248.8</ele>
        <time>2021-05-24T07:40:52Z</time>
      </trkpt>
      <trkpt lat="42.8450250" lon="-8.5809530">
        <ele>248.8</ele>
        <time>2021-05-24T07:40:53Z</time>
      </trkpt>
      <trkpt lat="42.8450380" lon="-8.5809490">
        <ele>248.8</ele>
        <time>2021-05-24T07:40:54Z</time>
      </trkpt>
      <trkpt lat="42.8450470" lon="-8.5809490">
        <ele>248.8</ele>
        <time>2021-05-24T07:40:55Z</time>
      </trkpt>
      <trkpt lat="42.8450590" lon="-8.5809620">
        <ele>248.8</ele>
        <time>2021-05-24T07:40:56Z</time>
      </trkpt>
      <trkpt lat="42.8450620" lon="-8.5809670">
        <ele>248.8</ele>
        <time>2021-05-24T07:40:57Z</time>
      </trkpt>
      <trkpt lat="42.8450680" lon="-8.5809590">
        <ele>248.8</ele>
        <time>2021-05-24T07:40:58Z</time>
      </trkpt>
      <trkpt lat="42.8450760" lon="-8.5809470">
        <ele>248.8</ele>
        <time>2021-05-24T07:40:59Z</time>
      </trkpt>
      <trkpt lat="42.8450770" lon="-8.5809330">
        <ele>248.8</ele>
        <time>2021-05-24T07:41:00Z</time>
      </trkpt>
      <trkpt lat="42.8450760" lon="-8.5809180">
        <ele>248.8</ele>
        <time>2021-05-24T07:41:01Z</time>
      </trkpt>
      <trkpt lat="42.8450750" lon="-8.5809110">
        <ele>248.8</ele>
        <time>2021-05-24T07:41:02Z</time>
      </trkpt>
      <trkpt lat="42.8450740" lon="-8.5809050">
        <ele>248.8</ele>
        <time>2021-05-24T07:41:03Z</time>
      </trkpt>
      <trkpt lat="42.8450810" lon="-8.5808860">
        <ele>248.8</ele>
        <time>2021-05-24T07:41:04Z</time>
      </trkpt>
      <trkpt lat="42.8450880" lon="-8.5808620">
        <ele>248.8</ele>
        <time>2021-05-24T07:41:05Z</time>
      </trkpt>
      <trkpt lat="42.8450940" lon="-8.5808520">
        <ele>248.8</ele>
        <time>2021-05-24T07:41:06Z</time>
      </trkpt>
      <trkpt lat="42.8450990" lon="-8.5808360">
        <ele>248.8</ele>
        <time>2021-05-24T07:41:07Z</time>
      </trkpt>
      <trkpt lat="42.8451050" lon="-8.5808260">
        <ele>248.8</ele>
        <time>2021-05-24T07:41:08Z</time>
      </trkpt>
      <trkpt lat="42.8451090" lon="-8.5808240">
        <ele>248.8</ele>
        <time>2021-05-24T07:41:09Z</time>
      </trkpt>
      <trkpt lat="42.8451070" lon="-8.5808230">
        <ele>248.8</ele>
        <time>2021-05-24T07:41:10Z</time>
      </trkpt>
      <trkpt lat="42.8451070" lon="-8.5808160">
        <ele>248.7</ele>
        <time>2021-05-24T07:41:11Z</time>
      </trkpt>
      <trkpt lat="42.8451080" lon="-8.5808140">
        <ele>248.7</ele>
        <time>2021-05-24T07:41:12Z</time>
      </trkpt>
      <trkpt lat="42.8451240" lon="-8.5808130">
        <ele>248.7</ele>
        <time>2021-05-24T07:41:13Z</time>
      </trkpt>
      <trkpt lat="42.8451380" lon="-8.5808140">
        <ele>248.7</ele>
        <time>2021-05-24T07:41:14Z</time>
      </trkpt>
      <trkpt lat="42.8451450" lon="-8.5808070">
        <ele>248.7</ele>
        <time>2021-05-24T07:41:15Z</time>
      </trkpt>
      <trkpt lat="42.8451520" lon="-8.5808030">
        <ele>248.7</ele>
        <time>2021-05-24T07:41:16Z</time>
      </trkpt>
      <trkpt lat="42.8451550" lon="-8.5808050">
        <ele>248.7</ele>
        <time>2021-05-24T07:41:17Z</time>
      </trkpt>
      <trkpt lat="42.8451580" lon="-8.5808040">
        <ele>248.7</ele>
        <time>2021-05-24T07:41:18Z</time>
      </trkpt>
      <trkpt lat="42.8451590" lon="-8.5808010">
        <ele>248.7</ele>
        <time>2021-05-24T07:41:19Z</time>
      </trkpt>
      <trkpt lat="42.8451610" lon="-8.5808020">
        <ele>248.7</ele>
        <time>2021-05-24T07:41:20Z</time>
      </trkpt>
      <trkpt lat="42.8451730" lon="-8.5808020">
        <ele>248.7</ele>
        <time>2021-05-24T07:41:21Z</time>
      </trkpt>
      <trkpt lat="42.8451860" lon="-8.5808090">
        <ele>248.7</ele>
        <time>2021-05-24T07:41:22Z</time>
      </trkpt>
      <trkpt lat="42.8451860" lon="-8.5808090">
        <ele>248.7</ele>
        <time>2021-05-24T07:41:23Z</time>
      </trkpt>
      <trkpt lat="42.8451870" lon="-8.5808100">
        <ele>248.7</ele>
        <time>2021-05-24T07:41:24Z</time>
      </trkpt>
      <trkpt lat="42.8451870" lon="-8.5808110">
        <ele>248.7</ele>
        <time>2021-05-24T07:41:25Z</time>
      </trkpt>
      <trkpt lat="42.8451880" lon="-8.5808120">
        <ele>248.7</ele>
        <time>2021-05-24T07:41:26Z</time>
      </trkpt>
      <trkpt lat="42.8451880" lon="-8.5808120">
        <ele>248.7</ele>
        <time>2021-05-24T07:41:27Z</time>
      </trkpt>
      <trkpt lat="42.8451890" lon="-8.5808130">
        <ele>248.7</ele>
        <time>2021-05-24T07:41:28Z</time>
      </trkpt>
      <trkpt lat="42.8451890" lon="-8.5808140">
        <ele>248.7</ele>
        <time>2021-05-24T07:41:29Z</time>
      </trkpt>
      <trkpt lat="42.8451900" lon="-8.5808140">
        <ele>248.7</ele>
        <time>2021-05-24T07:41:30Z</time>
      </trkpt>
      <trkpt lat="42.8451900" lon="-8.5808150">
        <ele>248.7</ele>
        <time>2021-05-24T07:41:31Z</time>
      </trkpt>
      <trkpt lat="42.8451910" lon="-8.5808160">
        <ele>248.7</ele>
        <time>2021-05-24T07:41:32Z</time>
      </trkpt>
      <trkpt lat="42.8451920" lon="-8.5808170">
        <ele>248.7</ele>
        <time>2021-05-24T07:41:33Z</time>
      </trkpt>
      <trkpt lat="42.8451920" lon="-8.5808170">
        <ele>248.7</ele>
        <time>2021-05-24T07:41:34Z</time>
      </trkpt>
      <trkpt lat="42.8451930" lon="-8.5808180">
        <ele>248.7</ele>
        <time>2021-05-24T07:41:35Z</time>
      </trkpt>
      <trkpt lat="42.8451930" lon="-8.5808190">
        <ele>248.7</ele>
        <time>2021-05-24T07:41:36Z</time>
      </trkpt>
      <trkpt lat="42.8451940" lon="-8.5808190">
        <ele>248.7</ele>
        <time>2021-05-24T07:41:37Z</time>
      </trkpt>
      <trkpt lat="42.8451940" lon="-8.5808200">
        <ele>248.7</ele>
        <time>2021-05-24T07:41:38Z</time>
      </trkpt>
      <trkpt lat="42.8451950" lon="-8.5808210">
        <ele>248.7</ele>
        <time>2021-05-24T07:41:39Z</time>
      </trkpt>
      <trkpt lat="42.8451950" lon="-8.5808220">
        <ele>248.7</ele>
        <time>2021-05-24T07:41:40Z</time>
      </trkpt>
      <trkpt lat="42.8451960" lon="-8.5808220">
        <ele>248.7</ele>
        <time>2021-05-24T07:41:41Z</time>
      </trkpt>
      <trkpt lat="42.8451960" lon="-8.5808230">
        <ele>248.7</ele>
        <time>2021-05-24T07:41:42Z</time>
      </trkpt>
      <trkpt lat="42.8451970" lon="-8.5808240">
        <ele>248.7</ele>
        <time>2021-05-24T07:41:43Z</time>
      </trkpt>
      <trkpt lat="42.8451980" lon="-8.5808240">
        <ele>248.7</ele>
        <time>2021-05-24T07:41:44Z</time>
      </trkpt>
      <trkpt lat="42.8451980" lon="-8.5808250">
        <ele>248.7</ele>
        <time>2021-05-24T07:41:45Z</time>
      </trkpt>
      <trkpt lat="42.8451990" lon="-8.5808260">
        <ele>248.7</ele>
        <time>2021-05-24T07:41:46Z</time>
      </trkpt>
      <trkpt lat="42.8451990" lon="-8.5808270">
        <ele>248.7</ele>
        <time>2021-05-24T07:41:47Z</time>
      </trkpt>
      <trkpt lat="42.8452000" lon="-8.5808270">
        <ele>248.7</ele>
        <time>2021-05-24T07:41:48Z</time>
      </trkpt>
      <trkpt lat="42.8452000" lon="-8.5808280">
        <ele>248.7</ele>
        <time>2021-05-24T07:41:49Z</time>
      </trkpt>
      <trkpt lat="42.8452010" lon="-8.5808290">
        <ele>248.7</ele>
        <time>2021-05-24T07:41:50Z</time>
      </trkpt>
      <trkpt lat="42.8452010" lon="-8.5808300">
        <ele>248.7</ele>
        <time>2021-05-24T07:41:51Z</time>
      </trkpt>
      <trkpt lat="42.8452020" lon="-8.5808300">
        <ele>248.7</ele>
        <time>2021-05-24T07:41:52Z</time>
      </trkpt>
      <trkpt lat="42.8452030" lon="-8.5808310">
        <ele>248.7</ele>
        <time>2021-05-24T07:41:53Z</time>
      </trkpt>
      <trkpt lat="42.8452030" lon="-8.5808320">
        <ele>248.7</ele>
        <time>2021-05-24T07:41:54Z</time>
      </trkpt>
      <trkpt lat="42.8452040" lon="-8.5808320">
        <ele>248.7</ele>
        <time>2021-05-24T07:41:55Z</time>
      </trkpt>
      <trkpt lat="42.8452040" lon="-8.5808330">
        <ele>248.7</ele>
        <time>2021-05-24T07:41:56Z</time>
      </trkpt>
      <trkpt lat="42.8452050" lon="-8.5808340">
        <ele>248.7</ele>
        <time>2021-05-24T07:41:57Z</time>
      </trkpt>
      <trkpt lat="42.8452050" lon="-8.5808350">
        <ele>248.7</ele>
        <time>2021-05-24T07:41:58Z</time>
      </trkpt>
      <trkpt lat="42.8452060" lon="-8.5808350">
        <ele>248.7</ele>
        <time>2021-05-24T07:41:59Z</time>
      </trkpt>
      <trkpt lat="42.8452060" lon="-8.5808360">
        <ele>248.7</ele>
        <time>2021-05-24T07:42:00Z</time>
      </trkpt>
      <trkpt lat="42.8452070" lon="-8.5808370">
        <ele>248.7</ele>
        <time>2021-05-24T07:42:01Z</time>
      </trkpt>
      <trkpt lat="42.8452070" lon="-8.5808370">
        <ele>248.7</ele>
        <time>2021-05-24T07:42:02Z</time>
      </trkpt>
      <trkpt lat="42.8452080" lon="-8.5808380">
        <ele>248.7</ele>
        <time>2021-05-24T07:42:03Z</time>
      </trkpt>
      <trkpt lat="42.8452090" lon="-8.5808390">
        <ele>248.7</ele>
        <time>2021-05-24T07:42:04Z</time>
      </trkpt>
      <trkpt lat="42.8452090" lon="-8.5808400">
        <ele>248.7</ele>
        <time>2021-05-24T07:42:05Z</time>
      </trkpt>
      <trkpt lat="42.8452100" lon="-8.5808400">
        <ele>248.7</ele>
        <time>2021-05-24T07:42:06Z</time>
      </trkpt>
      <trkpt lat="42.8452100" lon="-8.5808410">
        <ele>248.7</ele>
        <time>2021-05-24T07:42:07Z</time>
      </trkpt>
      <trkpt lat="42.8452110" lon="-8.5808420">
        <ele>248.7</ele>
        <time>2021-05-24T07:42:08Z</time>
      </trkpt>
      <trkpt lat="42.8452110" lon="-8.5808420">
        <ele>248.7</ele>
        <time>2021-05-24T07:42:09Z</time>
      </trkpt>
      <trkpt lat="42.8452120" lon="-8.5808430">
        <ele>248.7</ele>
        <time>2021-05-24T07:42:10Z</time>
      </trkpt>
      <trkpt lat="42.8452120" lon="-8.5808440">
        <ele>248.7</ele>
        <time>2021-05-24T07:42:11Z</time>
      </trkpt>
      <trkpt lat="42.8452130" lon="-8.5808450">
        <ele>248.7</ele>
        <time>2021-05-24T07:42:12Z</time>
      </trkpt>
      <trkpt lat="42.8452130" lon="-8.5808450">
        <ele>248.7</ele>
        <time>2021-05-24T07:42:13Z</time>
      </trkpt>
      <trkpt lat="42.8452140" lon="-8.5808460">
        <ele>248.7</ele>
        <time>2021-05-24T07:42:14Z</time>
      </trkpt>
      <trkpt lat="42.8452360" lon="-8.5808360">
        <ele>248.7</ele>
        <time>2021-05-24T07:42:15Z</time>
      </trkpt>
      <trkpt lat="42.8452450" lon="-8.5808330">
        <ele>248.7</ele>
        <time>2021-05-24T07:42:16Z</time>
      </trkpt>
      <trkpt lat="42.8452540" lon="-8.5808300">
        <ele>248.7</ele>
        <time>2021-05-24T07:42:17Z</time>
      </trkpt>
      <trkpt lat="42.8452670" lon="-8.5808110">
        <ele>248.7</ele>
        <time>2021-05-24T07:42:18Z</time>
      </trkpt>
      <trkpt lat="42.8452760" lon="-8.5808000">
        <ele>248.7</ele>
        <time>2021-05-24T07:42:19Z</time>
      </trkpt>
      <trkpt lat="42.8452840" lon="-8.5807900">
        <ele>248.7</ele>
        <time>2021-05-24T07:42:20Z</time>
      </trkpt>
      <trkpt lat="42.8453050" lon="-8.5807840">
        <ele>248.7</ele>
        <time>2021-05-24T07:42:21Z</time>
      </trkpt>
      <trkpt lat="42.8453140" lon="-8.5807820">
        <ele>248.7</ele>
        <time>2021-05-24T07:42:22Z</time>
      </trkpt>
      <trkpt lat="42.8453220" lon="-8.5807810">
        <ele>248.7</ele>
        <time>2021-05-24T07:42:23Z</time>
      </trkpt>
      <trkpt lat="42.8453250" lon="-8.5807760">
        <ele>248.7</ele>
        <time>2021-05-24T07:42:24Z</time>
      </trkpt>
      <trkpt lat="42.8453330" lon="-8.5807700">
        <ele>248.7</ele>
        <time>2021-05-24T07:42:25Z</time>
      </trkpt>
      <trkpt lat="42.8453470" lon="-8.5807640">
        <ele>248.7</ele>
        <time>2021-05-24T07:42:26Z</time>
      </trkpt>
      <trkpt lat="42.8453620" lon="-8.5807460">
        <ele>248.7</ele>
        <time>2021-05-24T07:42:27Z</time>
      </trkpt>
      <trkpt lat="42.8453700" lon="-8.5807360">
        <ele>248.7</ele>
        <time>2021-05-24T07:42:28Z</time>
      </trkpt>
      <trkpt lat="42.8453770" lon="-8.5807260">
        <ele>248.7</ele>
        <time>2021-05-24T07:42:29Z</time>
      </trkpt>
      <trkpt lat="42.8453850" lon="-8.5807200">
        <ele>248.7</ele>
        <time>2021-05-24T07:42:30Z</time>
      </trkpt>
      <trkpt lat="42.8453920" lon="-8.5807090">
        <ele>248.7</ele>
        <time>2021-05-24T07:42:31Z</time>
      </trkpt>
      <trkpt lat="42.8454040" lon="-8.5806990">
        <ele>248.7</ele>
        <time>2021-05-24T07:42:32Z</time>
      </trkpt>
      <trkpt lat="42.8454130" lon="-8.5806960">
        <ele>248.7</ele>
        <time>2021-05-24T07:42:33Z</time>
      </trkpt>
      <trkpt lat="42.8454250" lon="-8.5806950">
        <ele>248.6</ele>
        <time>2021-05-24T07:42:34Z</time>
      </trkpt>
      <trkpt lat="42.8454350" lon="-8.5806910">
        <ele>248.6</ele>
        <time>2021-05-24T07:42:35Z</time>
      </trkpt>
      <trkpt lat="42.8454440" lon="-8.5806940">
        <ele>248.6</ele>
        <time>2021-05-24T07:42:36Z</time>
      </trkpt>
      <trkpt lat="42.8454560" lon="-8.5806930">
        <ele>248.6</ele>
        <time>2021-05-24T07:42:37Z</time>
      </trkpt>
      <trkpt lat="42.8454710" lon="-8.5806920">
        <ele>248.6</ele>
        <time>2021-05-24T07:42:38Z</time>
      </trkpt>
      <trkpt lat="42.8454780" lon="-8.5806900">
        <ele>248.6</ele>
        <time>2021-05-24T07:42:39Z</time>
      </trkpt>
      <trkpt lat="42.8454880" lon="-8.5806860">
        <ele>248.5</ele>
        <time>2021-05-24T07:42:40Z</time>
      </trkpt>
      <trkpt lat="42.8455060" lon="-8.5806880">
        <ele>248.5</ele>
        <time>2021-05-24T07:42:41Z</time>
      </trkpt>
      <trkpt lat="42.8455220" lon="-8.5806830">
        <ele>248.5</ele>
        <time>2021-05-24T07:42:42Z</time>
      </trkpt>
      <trkpt lat="42.8455320" lon="-8.5806810">
        <ele>248.5</ele>
        <time>2021-05-24T07:42:43Z</time>
      </trkpt>
      <trkpt lat="42.8455420" lon="-8.5806780">
        <ele>248.5</ele>
        <time>2021-05-24T07:42:44Z</time>
      </trkpt>
      <trkpt lat="42.8455650" lon="-8.5806760">
        <ele>248.4</ele>
        <time>2021-05-24T07:42:45Z</time>
      </trkpt>
      <trkpt lat="42.8455730" lon="-8.5806740">
        <ele>248.4</ele>
        <time>2021-05-24T07:42:46Z</time>
      </trkpt>
      <trkpt lat="42.8455810" lon="-8.5806720">
        <ele>248.4</ele>
        <time>2021-05-24T07:42:47Z</time>
      </trkpt>
      <trkpt lat="42.8455870" lon="-8.5806660">
        <ele>248.4</ele>
        <time>2021-05-24T07:42:48Z</time>
      </trkpt>
      <trkpt lat="42.8455940" lon="-8.5806600">
        <ele>248.4</ele>
        <time>2021-05-24T07:42:49Z</time>
      </trkpt>
      <trkpt lat="42.8456110" lon="-8.5806600">
        <ele>248.3</ele>
        <time>2021-05-24T07:42:50Z</time>
      </trkpt>
      <trkpt lat="42.8456180" lon="-8.5806550">
        <ele>248.3</ele>
        <time>2021-05-24T07:42:51Z</time>
      </trkpt>
      <trkpt lat="42.8456290" lon="-8.5806510">
        <ele>248.3</ele>
        <time>2021-05-24T07:42:52Z</time>
      </trkpt>
      <trkpt lat="42.8456400" lon="-8.5806470">
        <ele>248.3</ele>
        <time>2021-05-24T07:42:53Z</time>
      </trkpt>
      <trkpt lat="42.8456560" lon="-8.5806430">
        <ele>248.2</ele>
        <time>2021-05-24T07:42:54Z</time>
      </trkpt>
      <trkpt lat="42.8456750" lon="-8.5806440">
        <ele>248.2</ele>
        <time>2021-05-24T07:42:55Z</time>
      </trkpt>
      <trkpt lat="42.8456830" lon="-8.5806340">
        <ele>248.2</ele>
        <time>2021-05-24T07:42:56Z</time>
      </trkpt>
      <trkpt lat="42.8456950" lon="-8.5806370">
        <ele>248.1</ele>
        <time>2021-05-24T07:42:57Z</time>
      </trkpt>
      <trkpt lat="42.8457030" lon="-8.5806330">
        <ele>248.1</ele>
        <time>2021-05-24T07:42:58Z</time>
      </trkpt>
      <trkpt lat="42.8457140" lon="-8.5806300">
        <ele>248.1</ele>
        <time>2021-05-24T07:42:59Z</time>
      </trkpt>
      <trkpt lat="42.8457300" lon="-8.5806260">
        <ele>248.0</ele>
        <time>2021-05-24T07:43:00Z</time>
      </trkpt>
      <trkpt lat="42.8457430" lon="-8.5806260">
        <ele>248.0</ele>
        <time>2021-05-24T07:43:01Z</time>
      </trkpt>
      <trkpt lat="42.8457580" lon="-8.5806230">
        <ele>248.0</ele>
        <time>2021-05-24T07:43:02Z</time>
      </trkpt>
      <trkpt lat="42.8457800" lon="-8.5806160">
        <ele>247.9</ele>
        <time>2021-05-24T07:43:03Z</time>
      </trkpt>
      <trkpt lat="42.8457880" lon="-8.5806140">
        <ele>247.9</ele>
        <time>2021-05-24T07:43:04Z</time>
      </trkpt>
      <trkpt lat="42.8457950" lon="-8.5806130">
        <ele>247.9</ele>
        <time>2021-05-24T07:43:05Z</time>
      </trkpt>
      <trkpt lat="42.8458050" lon="-8.5806010">
        <ele>247.9</ele>
        <time>2021-05-24T07:43:06Z</time>
      </trkpt>
      <trkpt lat="42.8458200" lon="-8.5805950">
        <ele>247.8</ele>
        <time>2021-05-24T07:43:07Z</time>
      </trkpt>
      <trkpt lat="42.8458290" lon="-8.5805960">
        <ele>247.8</ele>
        <time>2021-05-24T07:43:08Z</time>
      </trkpt>
      <trkpt lat="42.8458460" lon="-8.5805820">
        <ele>247.8</ele>
        <time>2021-05-24T07:43:09Z</time>
      </trkpt>
      <trkpt lat="42.8458630" lon="-8.5805840">
        <ele>247.7</ele>
        <time>2021-05-24T07:43:10Z</time>
      </trkpt>
      <trkpt lat="42.8458740" lon="-8.5805710">
        <ele>247.7</ele>
        <time>2021-05-24T07:43:11Z</time>
      </trkpt>
      <trkpt lat="42.8458900" lon="-8.5805700">
        <ele>247.6</ele>
        <time>2021-05-24T07:43:12Z</time>
      </trkpt>
      <trkpt lat="42.8459070" lon="-8.5805660">
        <ele>247.6</ele>
        <time>2021-05-24T07:43:13Z</time>
      </trkpt>
      <trkpt lat="42.8459260" lon="-8.5805670">
        <ele>247.6</ele>
        <time>2021-05-24T07:43:14Z</time>
      </trkpt>
      <trkpt lat="42.8459360" lon="-8.5805680">
        <ele>247.5</ele>
        <time>2021-05-24T07:43:15Z</time>
      </trkpt>
      <trkpt lat="42.8459450" lon="-8.5805690">
        <ele>247.5</ele>
        <time>2021-05-24T07:43:16Z</time>
      </trkpt>
      <trkpt lat="42.8459660" lon="-8.5805730">
        <ele>247.5</ele>
        <time>2021-05-24T07:43:17Z</time>
      </trkpt>
      <trkpt lat="42.8459750" lon="-8.5805710">
        <ele>247.4</ele>
        <time>2021-05-24T07:43:18Z</time>
      </trkpt>
      <trkpt lat="42.8459830" lon="-8.5805700">
        <ele>247.4</ele>
        <time>2021-05-24T07:43:19Z</time>
      </trkpt>
      <trkpt lat="42.8459950" lon="-8.5805640">
        <ele>247.4</ele>
        <time>2021-05-24T07:43:20Z</time>
      </trkpt>
      <trkpt lat="42.8460060" lon="-8.5805570">
        <ele>247.4</ele>
        <time>2021-05-24T07:43:21Z</time>
      </trkpt>
      <trkpt lat="42.8460170" lon="-8.5805570">
        <ele>247.3</ele>
        <time>2021-05-24T07:43:22Z</time>
      </trkpt>
      <trkpt lat="42.8460280" lon="-8.5805530">
        <ele>247.3</ele>
        <time>2021-05-24T07:43:23Z</time>
      </trkpt>
      <trkpt lat="42.8460390" lon="-8.5805490">
        <ele>247.3</ele>
        <time>2021-05-24T07:43:24Z</time>
      </trkpt>
      <trkpt lat="42.8460490" lon="-8.5805530">
        <ele>247.3</ele>
        <time>2021-05-24T07:43:25Z</time>
      </trkpt>
      <trkpt lat="42.8460710" lon="-8.5805520">
        <ele>247.2</ele>
        <time>2021-05-24T07:43:26Z</time>
      </trkpt>
      <trkpt lat="42.8460790" lon="-8.5805510">
        <ele>247.2</ele>
        <time>2021-05-24T07:43:27Z</time>
      </trkpt>
      <trkpt lat="42.8460880" lon="-8.5805490">
        <ele>247.2</ele>
        <time>2021-05-24T07:43:28Z</time>
      </trkpt>
      <trkpt lat="42.8461010" lon="-8.5805470">
        <ele>247.1</ele>
        <time>2021-05-24T07:43:29Z</time>
      </trkpt>
      <trkpt lat="42.8461060" lon="-8.5805460">
        <ele>247.1</ele>
        <time>2021-05-24T07:43:30Z</time>
      </trkpt>
      <trkpt lat="42.8461190" lon="-8.5805470">
        <ele>247.1</ele>
        <time>2021-05-24T07:43:31Z</time>
      </trkpt>
      <trkpt lat="42.8461400" lon="-8.5805500">
        <ele>247.0</ele>
        <time>2021-05-24T07:43:32Z</time>
      </trkpt>
      <trkpt lat="42.8461510" lon="-8.5805530">
        <ele>247.0</ele>
        <time>2021-05-24T07:43:33Z</time>
      </trkpt>
      <trkpt lat="42.8461610" lon="-8.5805560">
        <ele>247.0</ele>
        <time>2021-05-24T07:43:34Z</time>
      </trkpt>
      <trkpt lat="42.8461740" lon="-8.5805610">
        <ele>247.0</ele>
        <time>2021-05-24T07:43:35Z</time>
      </trkpt>
      <trkpt lat="42.8461890" lon="-8.5805530">
        <ele>246.9</ele>
        <time>2021-05-24T07:43:36Z</time>
      </trkpt>
      <trkpt lat="42.8462000" lon="-8.5805530">
        <ele>246.9</ele>
        <time>2021-05-24T07:43:37Z</time>
      </trkpt>
      <trkpt lat="42.8462120" lon="-8.5805470">
        <ele>246.9</ele>
        <time>2021-05-24T07:43:38Z</time>
      </trkpt>
      <trkpt lat="42.8462210" lon="-8.5805440">
        <ele>246.8</ele>
        <time>2021-05-24T07:43:39Z</time>
      </trkpt>
      <trkpt lat="42.8462340" lon="-8.5805430">
        <ele>246.8</ele>
        <time>2021-05-24T07:43:40Z</time>
      </trkpt>
      <trkpt lat="42.8462470" lon="-8.5805350">
        <ele>246.8</ele>
        <time>2021-05-24T07:43:41Z</time>
      </trkpt>
      <trkpt lat="42.8462600" lon="-8.5805230">
        <ele>246.8</ele>
        <time>2021-05-24T07:43:42Z</time>
      </trkpt>
      <trkpt lat="42.8462680" lon="-8.5805210">
        <ele>246.7</ele>
        <time>2021-05-24T07:43:43Z</time>
      </trkpt>
      <trkpt lat="42.8462770" lon="-8.5805200">
        <ele>246.7</ele>
        <time>2021-05-24T07:43:44Z</time>
      </trkpt>
      <trkpt lat="42.8463000" lon="-8.5805200">
        <ele>246.7</ele>
        <time>2021-05-24T07:43:45Z</time>
      </trkpt>
      <trkpt lat="42.8463070" lon="-8.5805210">
        <ele>246.7</ele>
        <time>2021-05-24T07:43:46Z</time>
      </trkpt>
      <trkpt lat="42.8463150" lon="-8.5805230">
        <ele>246.6</ele>
        <time>2021-05-24T07:43:47Z</time>
      </trkpt>
      <trkpt lat="42.8463400" lon="-8.5805170">
        <ele>246.6</ele>
        <time>2021-05-24T07:43:48Z</time>
      </trkpt>
      <trkpt lat="42.8463470" lon="-8.5805160">
        <ele>246.6</ele>
        <time>2021-05-24T07:43:49Z</time>
      </trkpt>
      <trkpt lat="42.8463550" lon="-8.5805140">
        <ele>246.6</ele>
        <time>2021-05-24T07:43:50Z</time>
      </trkpt>
      <trkpt lat="42.8463770" lon="-8.5805140">
        <ele>246.5</ele>
        <time>2021-05-24T07:43:51Z</time>
      </trkpt>
      <trkpt lat="42.8463860" lon="-8.5805140">
        <ele>246.5</ele>
        <time>2021-05-24T07:43:52Z</time>
      </trkpt>
      <trkpt lat="42.8463950" lon="-8.5805140">
        <ele>246.5</ele>
        <time>2021-05-24T07:43:53Z</time>
      </trkpt>
      <trkpt lat="42.8464170" lon="-8.5805200">
        <ele>246.4</ele>
        <time>2021-05-24T07:43:54Z</time>
      </trkpt>
      <trkpt lat="42.8464260" lon="-8.5805210">
        <ele>246.4</ele>
        <time>2021-05-24T07:43:55Z</time>
      </trkpt>
      <trkpt lat="42.8464340" lon="-8.5805230">
        <ele>246.4</ele>
        <time>2021-05-24T07:43:56Z</time>
      </trkpt>
      <trkpt lat="42.8464470" lon="-8.5805210">
        <ele>246.4</ele>
        <time>2021-05-24T07:43:57Z</time>
      </trkpt>
      <trkpt lat="42.8464620" lon="-8.5805210">
        <ele>246.3</ele>
        <time>2021-05-24T07:43:58Z</time>
      </trkpt>
      <trkpt lat="42.8464840" lon="-8.5805170">
        <ele>246.3</ele>
        <time>2021-05-24T07:43:59Z</time>
      </trkpt>
      <trkpt lat="42.8464910" lon="-8.5805140">
        <ele>246.3</ele>
        <time>2021-05-24T07:44:00Z</time>
      </trkpt>
      <trkpt lat="42.8464990" lon="-8.5805120">
        <ele>246.2</ele>
        <time>2021-05-24T07:44:01Z</time>
      </trkpt>
      <trkpt lat="42.8465200" lon="-8.5805060">
        <ele>246.2</ele>
        <time>2021-05-24T07:44:02Z</time>
      </trkpt>
      <trkpt lat="42.8465280" lon="-8.5805050">
        <ele>246.2</ele>
        <time>2021-05-24T07:44:03Z</time>
      </trkpt>
      <trkpt lat="42.8465370" lon="-8.5805030">
        <ele>246.2</ele>
        <time>2021-05-24T07:44:04Z</time>
      </trkpt>
      <trkpt lat="42.8465520" lon="-8.5805030">
        <ele>246.1</ele>
        <time>2021-05-24T07:44:05Z</time>
      </trkpt>
      <trkpt lat="42.8465680" lon="-8.5805050">
        <ele>246.1</ele>
        <time>2021-05-24T07:44:06Z</time>
      </trkpt>
      <trkpt lat="42.8465840" lon="-8.5805070">
        <ele>246.1</ele>
        <time>2021-05-24T07:44:07Z</time>
      </trkpt>
      <trkpt lat="42.8465990" lon="-8.5805090">
        <ele>246.1</ele>
        <time>2021-05-24T07:44:08Z</time>
      </trkpt>
      <trkpt lat="42.8466130" lon="-8.5805180">
        <ele>246.0</ele>
        <time>2021-05-24T07:44:09Z</time>
      </trkpt>
      <trkpt lat="42.8466270" lon="-8.5805230">
        <ele>246.0</ele>
        <time>2021-05-24T07:44:10Z</time>
      </trkpt>
      <trkpt lat="42.8466450" lon="-8.5805280">
        <ele>246.0</ele>
        <time>2021-05-24T07:44:11Z</time>
      </trkpt>
      <trkpt lat="42.8466600" lon="-8.5805280">
        <ele>245.9</ele>
        <time>2021-05-24T07:44:12Z</time>
      </trkpt>
      <trkpt lat="42.8466770" lon="-8.5805260">
        <ele>245.9</ele>
        <time>2021-05-24T07:44:13Z</time>
      </trkpt>
      <trkpt lat="42.8466920" lon="-8.5805250">
        <ele>245.9</ele>
        <time>2021-05-24T07:44:14Z</time>
      </trkpt>
      <trkpt lat="42.8467070" lon="-8.5805250">
        <ele>245.9</ele>
        <time>2021-05-24T07:44:15Z</time>
      </trkpt>
      <trkpt lat="42.8467230" lon="-8.5805270">
        <ele>245.8</ele>
        <time>2021-05-24T07:44:16Z</time>
      </trkpt>
      <trkpt lat="42.8467390" lon="-8.5805210">
        <ele>245.8</ele>
        <time>2021-05-24T07:44:17Z</time>
      </trkpt>
      <trkpt lat="42.8467530" lon="-8.5805210">
        <ele>245.8</ele>
        <time>2021-05-24T07:44:18Z</time>
      </trkpt>
      <trkpt lat="42.8467620" lon="-8.5805280">
        <ele>245.8</ele>
        <time>2021-05-24T07:44:19Z</time>
      </trkpt>
      <trkpt lat="42.8467650" lon="-8.5805300">
        <ele>245.8</ele>
        <time>2021-05-24T07:44:20Z</time>
      </trkpt>
      <trkpt lat="42.8467660" lon="-8.5805380">
        <ele>245.8</ele>
        <time>2021-05-24T07:44:21Z</time>
      </trkpt>
      <trkpt lat="42.8467740" lon="-8.5805390">
        <ele>245.8</ele>
        <time>2021-05-24T07:44:22Z</time>
      </trkpt>
      <trkpt lat="42.8467810" lon="-8.5805320">
        <ele>245.7</ele>
        <time>2021-05-24T07:44:23Z</time>
      </trkpt>
      <trkpt lat="42.8467910" lon="-8.5805290">
        <ele>245.7</ele>
        <time>2021-05-24T07:44:24Z</time>
      </trkpt>
      <trkpt lat="42.8468060" lon="-8.5805290">
        <ele>245.7</ele>
        <time>2021-05-24T07:44:25Z</time>
      </trkpt>
      <trkpt lat="42.8468050" lon="-8.5805240">
        <ele>245.7</ele>
        <time>2021-05-24T07:44:26Z</time>
      </trkpt>
      <trkpt lat="42.8468140" lon="-8.5805250">
        <ele>245.7</ele>
        <time>2021-05-24T07:44:27Z</time>
      </trkpt>
      <trkpt lat="42.8468290" lon="-8.5805150">
        <ele>245.6</ele>
        <time>2021-05-24T07:44:28Z</time>
      </trkpt>
      <trkpt lat="42.8468360" lon="-8.5805130">
        <ele>245.6</ele>
        <time>2021-05-24T07:44:29Z</time>
      </trkpt>
      <trkpt lat="42.8468430" lon="-8.5805100">
        <ele>245.6</ele>
        <time>2021-05-24T07:44:30Z</time>
      </trkpt>
      <trkpt lat="42.8468500" lon="-8.5805080">
        <ele>245.6</ele>
        <time>2021-05-24T07:44:31Z</time>
      </trkpt>
      <trkpt lat="42.8468680" lon="-8.5805000">
        <ele>245.6</ele>
        <time>2021-05-24T07:44:32Z</time>
      </trkpt>
      <trkpt lat="42.8468830" lon="-8.5804940">
        <ele>245.6</ele>
        <time>2021-05-24T07:44:33Z</time>
      </trkpt>
      <trkpt lat="42.8468930" lon="-8.5805000">
        <ele>245.5</ele>
        <time>2021-05-24T07:44:34Z</time>
      </trkpt>
      <trkpt lat="42.8468990" lon="-8.5804990">
        <ele>245.5</ele>
        <time>2021-05-24T07:44:35Z</time>
      </trkpt>
      <trkpt lat="42.8469140" lon="-8.5804980">
        <ele>245.5</ele>
        <time>2021-05-24T07:44:36Z</time>
      </trkpt>
      <trkpt lat="42.8469260" lon="-8.5804990">
        <ele>245.5</ele>
        <time>2021-05-24T07:44:37Z</time>
      </trkpt>
      <trkpt lat="42.8469440" lon="-8.5804950">
        <ele>245.4</ele>
        <time>2021-05-24T07:44:38Z</time>
      </trkpt>
      <trkpt lat="42.8469560" lon="-8.5804950">
        <ele>245.4</ele>
        <time>2021-05-24T07:44:39Z</time>
      </trkpt>
      <trkpt lat="42.8469750" lon="-8.5804920">
        <ele>245.4</ele>
        <time>2021-05-24T07:44:40Z</time>
      </trkpt>
      <trkpt lat="42.8469930" lon="-8.5804950">
        <ele>245.4</ele>
        <time>2021-05-24T07:44:41Z</time>
      </trkpt>
      <trkpt lat="42.8470090" lon="-8.5804940">
        <ele>245.3</ele>
        <time>2021-05-24T07:44:42Z</time>
      </trkpt>
      <trkpt lat="42.8470250" lon="-8.5805010">
        <ele>245.3</ele>
        <time>2021-05-24T07:44:43Z</time>
      </trkpt>
      <trkpt lat="42.8470420" lon="-8.5804970">
        <ele>245.3</ele>
        <time>2021-05-24T07:44:44Z</time>
      </trkpt>
      <trkpt lat="42.8470610" lon="-8.5804970">
        <ele>245.2</ele>
        <time>2021-05-24T07:44:45Z</time>
      </trkpt>
      <trkpt lat="42.8470740" lon="-8.5804880">
        <ele>245.2</ele>
        <time>2021-05-24T07:44:46Z</time>
      </trkpt>
      <trkpt lat="42.8470880" lon="-8.5804760">
        <ele>245.2</ele>
        <time>2021-05-24T07:44:47Z</time>
      </trkpt>
      <trkpt lat="42.8471010" lon="-8.5804710">
        <ele>245.2</ele>
        <time>2021-05-24T07:44:48Z</time>
      </trkpt>
      <trkpt lat="42.8471130" lon="-8.5804700">
        <ele>245.1</ele>
        <time>2021-05-24T07:44:49Z</time>
      </trkpt>
      <trkpt lat="42.8471220" lon="-8.5804620">
        <ele>245.1</ele>
        <time>2021-05-24T07:44:50Z</time>
      </trkpt>
      <trkpt lat="42.8471340" lon="-8.5804620">
        <ele>245.1</ele>
        <time>2021-05-24T07:44:51Z</time>
      </trkpt>
      <trkpt lat="42.8471430" lon="-8.5804510">
        <ele>245.1</ele>
        <time>2021-05-24T07:44:52Z</time>
      </trkpt>
      <trkpt lat="42.8471540" lon="-8.5804440">
        <ele>245.1</ele>
        <time>2021-05-24T07:44:53Z</time>
      </trkpt>
      <trkpt lat="42.8471680" lon="-8.5804470">
        <ele>245.0</ele>
        <time>2021-05-24T07:44:54Z</time>
      </trkpt>
      <trkpt lat="42.8471740" lon="-8.5804360">
        <ele>245.0</ele>
        <time>2021-05-24T07:44:55Z</time>
      </trkpt>
      <trkpt lat="42.8471760" lon="-8.5804230">
        <ele>245.0</ele>
        <time>2021-05-24T07:44:56Z</time>
      </trkpt>
      <trkpt lat="42.8471920" lon="-8.5804150">
        <ele>245.0</ele>
        <time>2021-05-24T07:44:57Z</time>
      </trkpt>
      <trkpt lat="42.8472170" lon="-8.5803900">
        <ele>245.0</ele>
        <time>2021-05-24T07:44:58Z</time>
      </trkpt>
      <trkpt lat="42.8472230" lon="-8.5803850">
        <ele>244.9</ele>
        <time>2021-05-24T07:44:59Z</time>
      </trkpt>
      <trkpt lat="42.8472450" lon="-8.5803700">
        <ele>244.9</ele>
        <time>2021-05-24T07:45:00Z</time>
      </trkpt>
      <trkpt lat="42.8472540" lon="-8.5803560">
        <ele>244.9</ele>
        <time>2021-05-24T07:45:01Z</time>
      </trkpt>
      <trkpt lat="42.8472670" lon="-8.5803390">
        <ele>244.9</ele>
        <time>2021-05-24T07:45:02Z</time>
      </trkpt>
      <trkpt lat="42.8472780" lon="-8.5803340">
        <ele>244.9</ele>
        <time>2021-05-24T07:45:03Z</time>
      </trkpt>
      <trkpt lat="42.8472860" lon="-8.5803360">
        <ele>244.8</ele>
        <time>2021-05-24T07:45:04Z</time>
      </trkpt>
      <trkpt lat="42.8472960" lon="-8.5803260">
        <ele>244.8</ele>
        <time>2021-05-24T07:45:05Z</time>
      </trkpt>
      <trkpt lat="42.8473120" lon="-8.5803250">
        <ele>244.8</ele>
        <time>2021-05-24T07:45:06Z</time>
      </trkpt>
      <trkpt lat="42.8473220" lon="-8.5803260">
        <ele>244.8</ele>
        <time>2021-05-24T07:45:07Z</time>
      </trkpt>
      <trkpt lat="42.8473340" lon="-8.5803270">
        <ele>244.8</ele>
        <time>2021-05-24T07:45:08Z</time>
      </trkpt>
      <trkpt lat="42.8473420" lon="-8.5803240">
        <ele>244.8</ele>
        <time>2021-05-24T07:45:09Z</time>
      </trkpt>
      <trkpt lat="42.8473560" lon="-8.5803240">
        <ele>244.8</ele>
        <time>2021-05-24T07:45:10Z</time>
      </trkpt>
      <trkpt lat="42.8473730" lon="-8.5803160">
        <ele>244.8</ele>
        <time>2021-05-24T07:45:11Z</time>
      </trkpt>
      <trkpt lat="42.8473900" lon="-8.5803100">
        <ele>244.7</ele>
        <time>2021-05-24T07:45:12Z</time>
      </trkpt>
      <trkpt lat="42.8474060" lon="-8.5803090">
        <ele>244.7</ele>
        <time>2021-05-24T07:45:13Z</time>
      </trkpt>
      <trkpt lat="42.8474180" lon="-8.5803000">
        <ele>244.7</ele>
        <time>2021-05-24T07:45:14Z</time>
      </trkpt>
      <trkpt lat="42.8474270" lon="-8.5803000">
        <ele>244.7</ele>
        <time>2021-05-24T07:45:15Z</time>
      </trkpt>
      <trkpt lat="42.8474370" lon="-8.5802970">
        <ele>244.7</ele>
        <time>2021-05-24T07:45:16Z</time>
      </trkpt>
      <trkpt lat="42.8474520" lon="-8.5802950">
        <ele>244.7</ele>
        <time>2021-05-24T07:45:17Z</time>
      </trkpt>
      <trkpt lat="42.8474650" lon="-8.5802940">
        <ele>244.7</ele>
        <time>2021-05-24T07:45:18Z</time>
      </trkpt>
      <trkpt lat="42.8474870" lon="-8.5802950">
        <ele>244.7</ele>
        <time>2021-05-24T07:45:19Z</time>
      </trkpt>
      <trkpt lat="42.8474950" lon="-8.5802940">
        <ele>244.7</ele>
        <time>2021-05-24T07:45:20Z</time>
      </trkpt>
      <trkpt lat="42.8475040" lon="-8.5802930">
        <ele>244.7</ele>
        <time>2021-05-24T07:45:21Z</time>
      </trkpt>
      <trkpt lat="42.8475110" lon="-8.5802880">
        <ele>244.7</ele>
        <time>2021-05-24T07:45:22Z</time>
      </trkpt>
      <trkpt lat="42.8475190" lon="-8.5802850">
        <ele>244.7</ele>
        <time>2021-05-24T07:45:23Z</time>
      </trkpt>
      <trkpt lat="42.8475270" lon="-8.5802820">
        <ele>244.7</ele>
        <time>2021-05-24T07:45:24Z</time>
      </trkpt>
      <trkpt lat="42.8475370" lon="-8.5802800">
        <ele>244.7</ele>
        <time>2021-05-24T07:45:25Z</time>
      </trkpt>
      <trkpt lat="42.8475600" lon="-8.5802710">
        <ele>244.7</ele>
        <time>2021-05-24T07:45:26Z</time>
      </trkpt>
      <trkpt lat="42.8475690" lon="-8.5802630">
        <ele>244.7</ele>
        <time>2021-05-24T07:45:27Z</time>
      </trkpt>
      <trkpt lat="42.8475770" lon="-8.5802560">
        <ele>244.7</ele>
        <time>2021-05-24T07:45:28Z</time>
      </trkpt>
      <trkpt lat="42.8475920" lon="-8.5802460">
        <ele>244.7</ele>
        <time>2021-05-24T07:45:29Z</time>
      </trkpt>
      <trkpt lat="42.8476040" lon="-8.5802380">
        <ele>244.7</ele>
        <time>2021-05-24T07:45:30Z</time>
      </trkpt>
      <trkpt lat="42.8476250" lon="-8.5802090">
        <ele>244.7</ele>
        <time>2021-05-24T07:45:31Z</time>
      </trkpt>
      <trkpt lat="42.8476300" lon="-8.5802000">
        <ele>244.7</ele>
        <time>2021-05-24T07:45:32Z</time>
      </trkpt>
      <trkpt lat="42.8476450" lon="-8.5801850">
        <ele>244.7</ele>
        <time>2021-05-24T07:45:33Z</time>
      </trkpt>
      <trkpt lat="42.8476600" lon="-8.5801730">
        <ele>244.7</ele>
        <time>2021-05-24T07:45:34Z</time>
      </trkpt>
      <trkpt lat="42.8476780" lon="-8.5801590">
        <ele>244.7</ele>
        <time>2021-05-24T07:45:35Z</time>
      </trkpt>
      <trkpt lat="42.8476850" lon="-8.5801520">
        <ele>244.7</ele>
        <time>2021-05-24T07:45:36Z</time>
      </trkpt>
      <trkpt lat="42.8476910" lon="-8.5801440">
        <ele>244.7</ele>
        <time>2021-05-24T07:45:37Z</time>
      </trkpt>
      <trkpt lat="42.8477000" lon="-8.5801220">
        <ele>244.7</ele>
        <time>2021-05-24T07:45:38Z</time>
      </trkpt>
      <trkpt lat="42.8477090" lon="-8.5801040">
        <ele>244.7</ele>
        <time>2021-05-24T07:45:39Z</time>
      </trkpt>
      <trkpt lat="42.8477160" lon="-8.5800890">
        <ele>244.7</ele>
        <time>2021-05-24T07:45:40Z</time>
      </trkpt>
      <trkpt lat="42.8477170" lon="-8.5800820">
        <ele>244.7</ele>
        <time>2021-05-24T07:45:41Z</time>
      </trkpt>
      <trkpt lat="42.8477090" lon="-8.5800770">
        <ele>244.7</ele>
        <time>2021-05-24T07:45:42Z</time>
      </trkpt>
      <trkpt lat="42.8477120" lon="-8.5800760">
        <ele>244.7</ele>
        <time>2021-05-24T07:45:43Z</time>
      </trkpt>
      <trkpt lat="42.8477190" lon="-8.5800670">
        <ele>244.7</ele>
        <time>2021-05-24T07:45:44Z</time>
      </trkpt>
      <trkpt lat="42.8477260" lon="-8.5800590">
        <ele>244.7</ele>
        <time>2021-05-24T07:45:45Z</time>
      </trkpt>
      <trkpt lat="42.8477380" lon="-8.5800530">
        <ele>244.7</ele>
        <time>2021-05-24T07:45:46Z</time>
      </trkpt>
      <trkpt lat="42.8477510" lon="-8.5800480">
        <ele>244.8</ele>
        <time>2021-05-24T07:45:47Z</time>
      </trkpt>
      <trkpt lat="42.8477690" lon="-8.5800490">
        <ele>244.8</ele>
        <time>2021-05-24T07:45:48Z</time>
      </trkpt>
      <trkpt lat="42.8477810" lon="-8.5800510">
        <ele>244.8</ele>
        <time>2021-05-24T07:45:49Z</time>
      </trkpt>
      <trkpt lat="42.8477930" lon="-8.5800510">
        <ele>244.8</ele>
        <time>2021-05-24T07:45:50Z</time>
      </trkpt>
      <trkpt lat="42.8478110" lon="-8.5800580">
        <ele>244.8</ele>
        <time>2021-05-24T07:45:51Z</time>
      </trkpt>
      <trkpt lat="42.8478260" lon="-8.5800660">
        <ele>244.8</ele>
        <time>2021-05-24T07:45:52Z</time>
      </trkpt>
      <trkpt lat="42.8478370" lon="-8.5800660">
        <ele>244.8</ele>
        <time>2021-05-24T07:45:53Z</time>
      </trkpt>
      <trkpt lat="42.8478540" lon="-8.5800640">
        <ele>244.8</ele>
        <time>2021-05-24T07:45:54Z</time>
      </trkpt>
      <trkpt lat="42.8478640" lon="-8.5800610">
        <ele>244.8</ele>
        <time>2021-05-24T07:45:55Z</time>
      </trkpt>
      <trkpt lat="42.8478670" lon="-8.5800570">
        <ele>244.8</ele>
        <time>2021-05-24T07:45:56Z</time>
      </trkpt>
      <trkpt lat="42.8478790" lon="-8.5800530">
        <ele>244.8</ele>
        <time>2021-05-24T07:45:57Z</time>
      </trkpt>
      <trkpt lat="42.8478920" lon="-8.5800510">
        <ele>244.8</ele>
        <time>2021-05-24T07:45:58Z</time>
      </trkpt>
      <trkpt lat="42.8479030" lon="-8.5800500">
        <ele>244.8</ele>
        <time>2021-05-24T07:45:59Z</time>
      </trkpt>
      <trkpt lat="42.8479170" lon="-8.5800530">
        <ele>244.9</ele>
        <time>2021-05-24T07:46:00Z</time>
      </trkpt>
      <trkpt lat="42.8479230" lon="-8.5800440">
        <ele>244.9</ele>
        <time>2021-05-24T07:46:01Z</time>
      </trkpt>
      <trkpt lat="42.8479330" lon="-8.5800330">
        <ele>244.9</ele>
        <time>2021-05-24T07:46:02Z</time>
      </trkpt>
      <trkpt lat="42.8479410" lon="-8.5800130">
        <ele>244.9</ele>
        <time>2021-05-24T07:46:03Z</time>
      </trkpt>
      <trkpt lat="42.8479500" lon="-8.5800040">
        <ele>244.9</ele>
        <time>2021-05-24T07:46:04Z</time>
      </trkpt>
      <trkpt lat="42.8479760" lon="-8.5800080">
        <ele>244.9</ele>
        <time>2021-05-24T07:46:05Z</time>
      </trkpt>
      <trkpt lat="42.8480060" lon="-8.5800090">
        <ele>244.9</ele>
        <time>2021-05-24T07:46:06Z</time>
      </trkpt>
      <trkpt lat="42.8480130" lon="-8.5800070">
        <ele>245.0</ele>
        <time>2021-05-24T07:46:07Z</time>
      </trkpt>
      <trkpt lat="42.8480290" lon="-8.5799900">
        <ele>245.0</ele>
        <time>2021-05-24T07:46:08Z</time>
      </trkpt>
      <trkpt lat="42.8480380" lon="-8.5799860">
        <ele>245.0</ele>
        <time>2021-05-24T07:46:09Z</time>
      </trkpt>
      <trkpt lat="42.8480460" lon="-8.5799810">
        <ele>245.0</ele>
        <time>2021-05-24T07:46:10Z</time>
      </trkpt>
      <trkpt lat="42.8480470" lon="-8.5799740">
        <ele>245.0</ele>
        <time>2021-05-24T07:46:11Z</time>
      </trkpt>
      <trkpt lat="42.8480590" lon="-8.5799690">
        <ele>245.0</ele>
        <time>2021-05-24T07:46:12Z</time>
      </trkpt>
      <trkpt lat="42.8480750" lon="-8.5799610">
        <ele>245.0</ele>
        <time>2021-05-24T07:46:13Z</time>
      </trkpt>
      <trkpt lat="42.8480830" lon="-8.5799600">
        <ele>245.0</ele>
        <time>2021-05-24T07:46:14Z</time>
      </trkpt>
      <trkpt lat="42.8480950" lon="-8.5799500">
        <ele>245.1</ele>
        <time>2021-05-24T07:46:15Z</time>
      </trkpt>
      <trkpt lat="42.8481030" lon="-8.5799520">
        <ele>245.1</ele>
        <time>2021-05-24T07:46:16Z</time>
      </trkpt>
      <trkpt lat="42.8481210" lon="-8.5799470">
        <ele>245.1</ele>
        <time>2021-05-24T07:46:17Z</time>
      </trkpt>
      <trkpt lat="42.8481320" lon="-8.5799530">
        <ele>245.1</ele>
        <time>2021-05-24T07:46:18Z</time>
      </trkpt>
      <trkpt lat="42.8481480" lon="-8.5799450">
        <ele>245.1</ele>
        <time>2021-05-24T07:46:19Z</time>
      </trkpt>
      <trkpt lat="42.8481540" lon="-8.5799370">
        <ele>245.1</ele>
        <time>2021-05-24T07:46:20Z</time>
      </trkpt>
      <trkpt lat="42.8481650" lon="-8.5799350">
        <ele>245.1</ele>
        <time>2021-05-24T07:46:21Z</time>
      </trkpt>
      <trkpt lat="42.8481740" lon="-8.5799270">
        <ele>245.2</ele>
        <time>2021-05-24T07:46:22Z</time>
      </trkpt>
      <trkpt lat="42.8481920" lon="-8.5799230">
        <ele>245.2</ele>
        <time>2021-05-24T07:46:23Z</time>
      </trkpt>
      <trkpt lat="42.8481950" lon="-8.5799120">
        <ele>245.2</ele>
        <time>2021-05-24T07:46:24Z</time>
      </trkpt>
      <trkpt lat="42.8482040" lon="-8.5799060">
        <ele>245.2</ele>
        <time>2021-05-24T07:46:25Z</time>
      </trkpt>
      <trkpt lat="42.8482120" lon="-8.5798990">
        <ele>245.2</ele>
        <time>2021-05-24T07:46:26Z</time>
      </trkpt>
      <trkpt lat="42.8481990" lon="-8.5798890">
        <ele>245.2</ele>
        <time>2021-05-24T07:46:27Z</time>
      </trkpt>
      <trkpt lat="42.8481960" lon="-8.5798860">
        <ele>245.3</ele>
        <time>2021-05-24T07:46:28Z</time>
      </trkpt>
      <trkpt lat="42.8481950" lon="-8.5798870">
        <ele>245.3</ele>
        <time>2021-05-24T07:46:29Z</time>
      </trkpt>
      <trkpt lat="42.8482040" lon="-8.5798850">
        <ele>245.3</ele>
        <time>2021-05-24T07:46:30Z</time>
      </trkpt>
      <trkpt lat="42.8482200" lon="-8.5798850">
        <ele>245.3</ele>
        <time>2021-05-24T07:46:31Z</time>
      </trkpt>
      <trkpt lat="42.8482420" lon="-8.5798960">
        <ele>245.3</ele>
        <time>2021-05-24T07:46:32Z</time>
      </trkpt>
      <trkpt lat="42.8482780" lon="-8.5799100">
        <ele>245.4</ele>
        <time>2021-05-24T07:46:33Z</time>
      </trkpt>
      <trkpt lat="42.8482880" lon="-8.5799130">
        <ele>245.4</ele>
        <time>2021-05-24T07:46:34Z</time>
      </trkpt>
      <trkpt lat="42.8483300" lon="-8.5799440">
        <ele>245.5</ele>
        <time>2021-05-24T07:46:35Z</time>
      </trkpt>
      <trkpt lat="42.8483490" lon="-8.5799610">
        <ele>245.5</ele>
        <time>2021-05-24T07:46:36Z</time>
      </trkpt>
      <trkpt lat="42.8483750" lon="-8.5800020">
        <ele>245.5</ele>
        <time>2021-05-24T07:46:37Z</time>
      </trkpt>
      <trkpt lat="42.8484130" lon="-8.5800390">
        <ele>245.6</ele>
        <time>2021-05-24T07:46:38Z</time>
      </trkpt>
      <trkpt lat="42.8484400" lon="-8.5800700">
        <ele>245.7</ele>
        <time>2021-05-24T07:46:39Z</time>
      </trkpt>
      <trkpt lat="42.8484490" lon="-8.5800790">
        <ele>245.7</ele>
        <time>2021-05-24T07:46:40Z</time>
      </trkpt>
      <trkpt lat="42.8484760" lon="-8.5800970">
        <ele>245.7</ele>
        <time>2021-05-24T07:46:41Z</time>
      </trkpt>
      <trkpt lat="42.8484890" lon="-8.5801030">
        <ele>245.7</ele>
        <time>2021-05-24T07:46:42Z</time>
      </trkpt>
      <trkpt lat="42.8485020" lon="-8.5801060">
        <ele>245.9</ele>
        <time>2021-05-24T07:46:43Z</time>
      </trkpt>
      <trkpt lat="42.8485200" lon="-8.5801050">
        <ele>245.9</ele>
        <time>2021-05-24T07:46:44Z</time>
      </trkpt>
      <trkpt lat="42.8485290" lon="-8.5801050">
        <ele>245.8</ele>
        <time>2021-05-24T07:46:45Z</time>
      </trkpt>
      <trkpt lat="42.8485340" lon="-8.5801050">
        <ele>245.8</ele>
        <time>2021-05-24T07:46:46Z</time>
      </trkpt>
      <trkpt lat="42.8485320" lon="-8.5800950">
        <ele>245.8</ele>
        <time>2021-05-24T07:46:47Z</time>
      </trkpt>
      <trkpt lat="42.8485230" lon="-8.5800890">
        <ele>245.8</ele>
        <time>2021-05-24T07:46:48Z</time>
      </trkpt>
      <trkpt lat="42.8485210" lon="-8.5800800">
        <ele>245.8</ele>
        <time>2021-05-24T07:46:49Z</time>
      </trkpt>
      <trkpt lat="42.8485210" lon="-8.5800750">
        <ele>245.8</ele>
        <time>2021-05-24T07:46:50Z</time>
      </trkpt>
      <trkpt lat="42.8485220" lon="-8.5800650">
        <ele>245.8</ele>
        <time>2021-05-24T07:46:51Z</time>
      </trkpt>
      <trkpt lat="42.8485250" lon="-8.5800540">
        <ele>245.8</ele>
        <time>2021-05-24T07:46:52Z</time>
      </trkpt>
      <trkpt lat="42.8485260" lon="-8.5800400">
        <ele>245.8</ele>
        <time>2021-05-24T07:46:53Z</time>
      </trkpt>
      <trkpt lat="42.8485280" lon="-8.5800340">
        <ele>245.7</ele>
        <time>2021-05-24T07:46:54Z</time>
      </trkpt>
      <trkpt lat="42.8485330" lon="-8.5800260">
        <ele>245.7</ele>
        <time>2021-05-24T07:46:55Z</time>
      </trkpt>
      <trkpt lat="42.8485380" lon="-8.5800120">
        <ele>245.7</ele>
        <time>2021-05-24T07:46:56Z</time>
      </trkpt>
      <trkpt lat="42.8485400" lon="-8.5799950">
        <ele>245.7</ele>
        <time>2021-05-24T07:46:57Z</time>
      </trkpt>
      <trkpt lat="42.8485410" lon="-8.5799770">
        <ele>245.6</ele>
        <time>2021-05-24T07:46:58Z</time>
      </trkpt>
      <trkpt lat="42.8485440" lon="-8.5799660">
        <ele>245.6</ele>
        <time>2021-05-24T07:46:59Z</time>
      </trkpt>
      <trkpt lat="42.8485470" lon="-8.5799650">
        <ele>245.6</ele>
        <time>2021-05-24T07:47:00Z</time>
      </trkpt>
      <trkpt lat="42.8485520" lon="-8.5799550">
        <ele>245.6</ele>
        <time>2021-05-24T07:47:01Z</time>
      </trkpt>
      <trkpt lat="42.8485600" lon="-8.5799400">
        <ele>245.5</ele>
        <time>2021-05-24T07:47:02Z</time>
      </trkpt>
      <trkpt lat="42.8485650" lon="-8.5799390">
        <ele>245.5</ele>
        <time>2021-05-24T07:47:03Z</time>
      </trkpt>
      <trkpt lat="42.8485630" lon="-8.5799320">
        <ele>245.5</ele>
        <time>2021-05-24T07:47:04Z</time>
      </trkpt>
      <trkpt lat="42.8485650" lon="-8.5799300">
        <ele>245.4</ele>
        <time>2021-05-24T07:47:05Z</time>
      </trkpt>
      <trkpt lat="42.8485700" lon="-8.5799210">
        <ele>245.4</ele>
        <time>2021-05-24T07:47:06Z</time>
      </trkpt>
      <trkpt lat="42.8485740" lon="-8.5799170">
        <ele>245.4</ele>
        <time>2021-05-24T07:47:07Z</time>
      </trkpt>
      <trkpt lat="42.8485810" lon="-8.5799070">
        <ele>245.3</ele>
        <time>2021-05-24T07:47:08Z</time>
      </trkpt>
      <trkpt lat="42.8485940" lon="-8.5798960">
        <ele>245.3</ele>
        <time>2021-05-24T07:47:09Z</time>
      </trkpt>
      <trkpt lat="42.8486110" lon="-8.5798890">
        <ele>245.2</ele>
        <time>2021-05-24T07:47:10Z</time>
      </trkpt>
      <trkpt lat="42.8486290" lon="-8.5798740">
        <ele>245.0</ele>
        <time>2021-05-24T07:47:11Z</time>
      </trkpt>
      <trkpt lat="42.8486400" lon="-8.5798610">
        <ele>245.0</ele>
        <time>2021-05-24T07:47:12Z</time>
      </trkpt>
      <trkpt lat="42.8486470" lon="-8.5798550">
        <ele>244.9</ele>
        <time>2021-05-24T07:47:13Z</time>
      </trkpt>
      <trkpt lat="42.8486660" lon="-8.5798430">
        <ele>244.8</ele>
        <time>2021-05-24T07:47:14Z</time>
      </trkpt>
      <trkpt lat="42.8486820" lon="-8.5798250">
        <ele>244.6</ele>
        <time>2021-05-24T07:47:15Z</time>
      </trkpt>
      <trkpt lat="42.8486920" lon="-8.5798190">
        <ele>244.6</ele>
        <time>2021-05-24T07:47:16Z</time>
      </trkpt>
      <trkpt lat="42.8487070" lon="-8.5798030">
        <ele>244.4</ele>
        <time>2021-05-24T07:47:17Z</time>
      </trkpt>
      <trkpt lat="42.8487130" lon="-8.5797880">
        <ele>244.3</ele>
        <time>2021-05-24T07:47:18Z</time>
      </trkpt>
      <trkpt lat="42.8487200" lon="-8.5797740">
        <ele>244.2</ele>
        <time>2021-05-24T07:47:19Z</time>
      </trkpt>
      <trkpt lat="42.8487310" lon="-8.5797700">
        <ele>244.1</ele>
        <time>2021-05-24T07:47:20Z</time>
      </trkpt>
      <trkpt lat="42.8487420" lon="-8.5797510">
        <ele>244.0</ele>
        <time>2021-05-24T07:47:21Z</time>
      </trkpt>
      <trkpt lat="42.8487490" lon="-8.5797380">
        <ele>243.9</ele>
        <time>2021-05-24T07:47:22Z</time>
      </trkpt>
      <trkpt lat="42.8487510" lon="-8.5797270">
        <ele>243.8</ele>
        <time>2021-05-24T07:47:23Z</time>
      </trkpt>
      <trkpt lat="42.8487580" lon="-8.5797210">
        <ele>243.7</ele>
        <time>2021-05-24T07:47:24Z</time>
      </trkpt>
      <trkpt lat="42.8487560" lon="-8.5797140">
        <ele>243.7</ele>
        <time>2021-05-24T07:47:25Z</time>
      </trkpt>
      <trkpt lat="42.8487680" lon="-8.5796940">
        <ele>243.5</ele>
        <time>2021-05-24T07:47:26Z</time>
      </trkpt>
      <trkpt lat="42.8487740" lon="-8.5796820">
        <ele>243.4</ele>
        <time>2021-05-24T07:47:27Z</time>
      </trkpt>
      <trkpt lat="42.8487850" lon="-8.5796660">
        <ele>243.3</ele>
        <time>2021-05-24T07:47:28Z</time>
      </trkpt>
      <trkpt lat="42.8487960" lon="-8.5796590">
        <ele>243.2</ele>
        <time>2021-05-24T07:47:29Z</time>
      </trkpt>
      <trkpt lat="42.8488000" lon="-8.5796460">
        <ele>243.0</ele>
        <time>2021-05-24T07:47:30Z</time>
      </trkpt>
      <trkpt lat="42.8488070" lon="-8.5796370">
        <ele>242.9</ele>
        <time>2021-05-24T07:47:31Z</time>
      </trkpt>
      <trkpt lat="42.8488160" lon="-8.5796310">
        <ele>242.8</ele>
        <time>2021-05-24T07:47:32Z</time>
      </trkpt>
      <trkpt lat="42.8488450" lon="-8.5796060">
        <ele>242.5</ele>
        <time>2021-05-24T07:47:33Z</time>
      </trkpt>
      <trkpt lat="42.8488500" lon="-8.5795940">
        <ele>242.4</ele>
        <time>2021-05-24T07:47:34Z</time>
      </trkpt>
      <trkpt lat="42.8488610" lon="-8.5795850">
        <ele>242.2</ele>
        <time>2021-05-24T07:47:35Z</time>
      </trkpt>
      <trkpt lat="42.8488740" lon="-8.5795650">
        <ele>242.0</ele>
        <time>2021-05-24T07:47:36Z</time>
      </trkpt>
      <trkpt lat="42.8488850" lon="-8.5795580">
        <ele>241.8</ele>
        <time>2021-05-24T07:47:37Z</time>
      </trkpt>
      <trkpt lat="42.8489030" lon="-8.5795420">
        <ele>241.6</ele>
        <time>2021-05-24T07:47:38Z</time>
      </trkpt>
      <trkpt lat="42.8489030" lon="-8.5795330">
        <ele>241.5</ele>
        <time>2021-05-24T07:47:39Z</time>
      </trkpt>
      <trkpt lat="42.8489110" lon="-8.5795200">
        <ele>241.3</ele>
        <time>2021-05-24T07:47:40Z</time>
      </trkpt>
      <trkpt lat="42.8489230" lon="-8.5795050">
        <ele>241.1</ele>
        <time>2021-05-24T07:47:41Z</time>
      </trkpt>
      <trkpt lat="42.8489340" lon="-8.5794920">
        <ele>240.9</ele>
        <time>2021-05-24T07:47:42Z</time>
      </trkpt>
      <trkpt lat="42.8489470" lon="-8.5794750">
        <ele>240.7</ele>
        <time>2021-05-24T07:47:43Z</time>
      </trkpt>
      <trkpt lat="42.8489610" lon="-8.5794520">
        <ele>240.4</ele>
        <time>2021-05-24T07:47:44Z</time>
      </trkpt>
      <trkpt lat="42.8489640" lon="-8.5794420">
        <ele>240.3</ele>
        <time>2021-05-24T07:47:45Z</time>
      </trkpt>
      <trkpt lat="42.8489740" lon="-8.5794290">
        <ele>240.1</ele>
        <time>2021-05-24T07:47:46Z</time>
      </trkpt>
      <trkpt lat="42.8489770" lon="-8.5794200">
        <ele>240.0</ele>
        <time>2021-05-24T07:47:47Z</time>
      </trkpt>
      <trkpt lat="42.8489820" lon="-8.5794090">
        <ele>239.8</ele>
        <time>2021-05-24T07:47:48Z</time>
      </trkpt>
      <trkpt lat="42.8489800" lon="-8.5794020">
        <ele>239.8</ele>
        <time>2021-05-24T07:47:49Z</time>
      </trkpt>
      <trkpt lat="42.8489850" lon="-8.5793950">
        <ele>239.7</ele>
        <time>2021-05-24T07:47:50Z</time>
      </trkpt>
      <trkpt lat="42.8489890" lon="-8.5793670">
        <ele>239.3</ele>
        <time>2021-05-24T07:47:51Z</time>
      </trkpt>
      <trkpt lat="42.8489920" lon="-8.5793430">
        <ele>239.1</ele>
        <time>2021-05-24T07:47:52Z</time>
      </trkpt>
      <trkpt lat="42.8490000" lon="-8.5793210">
        <ele>238.8</ele>
        <time>2021-05-24T07:47:53Z</time>
      </trkpt>
      <trkpt lat="42.8490010" lon="-8.5793000">
        <ele>238.6</ele>
        <time>2021-05-24T07:47:54Z</time>
      </trkpt>
      <trkpt lat="42.8490000" lon="-8.5792780">
        <ele>238.3</ele>
        <time>2021-05-24T07:47:55Z</time>
      </trkpt>
      <trkpt lat="42.8490040" lon="-8.5792600">
        <ele>238.1</ele>
        <time>2021-05-24T07:47:56Z</time>
      </trkpt>
      <trkpt lat="42.8489990" lon="-8.5792410">
        <ele>237.9</ele>
        <time>2021-05-24T07:47:57Z</time>
      </trkpt>
      <trkpt lat="42.8490000" lon="-8.5792240">
        <ele>237.7</ele>
        <time>2021-05-24T07:47:58Z</time>
      </trkpt>
      <trkpt lat="42.8490020" lon="-8.5792170">
        <ele>237.6</ele>
        <time>2021-05-24T07:47:59Z</time>
      </trkpt>
      <trkpt lat="42.8490030" lon="-8.5791940">
        <ele>237.3</ele>
        <time>2021-05-24T07:48:00Z</time>
      </trkpt>
      <trkpt lat="42.8490050" lon="-8.5791730">
        <ele>237.1</ele>
        <time>2021-05-24T07:48:01Z</time>
      </trkpt>
      <trkpt lat="42.8490070" lon="-8.5791490">
        <ele>236.8</ele>
        <time>2021-05-24T07:48:02Z</time>
      </trkpt>
      <trkpt lat="42.8490150" lon="-8.5791370">
        <ele>236.6</ele>
        <time>2021-05-24T07:48:03Z</time>
      </trkpt>
      <trkpt lat="42.8490190" lon="-8.5791290">
        <ele>236.5</ele>
        <time>2021-05-24T07:48:04Z</time>
      </trkpt>
      <trkpt lat="42.8490130" lon="-8.5791040">
        <ele>236.2</ele>
        <time>2021-05-24T07:48:05Z</time>
      </trkpt>
      <trkpt lat="42.8490140" lon="-8.5790870">
        <ele>236.0</ele>
        <time>2021-05-24T07:48:06Z</time>
      </trkpt>
      <trkpt lat="42.8490100" lon="-8.5790730">
        <ele>235.8</ele>
        <time>2021-05-24T07:48:07Z</time>
      </trkpt>
      <trkpt lat="42.8490140" lon="-8.5790580">
        <ele>235.7</ele>
        <time>2021-05-24T07:48:08Z</time>
      </trkpt>
      <trkpt lat="42.8490190" lon="-8.5790310">
        <ele>235.3</ele>
        <time>2021-05-24T07:48:09Z</time>
      </trkpt>
      <trkpt lat="42.8490200" lon="-8.5790190">
        <ele>235.2</ele>
        <time>2021-05-24T07:48:10Z</time>
      </trkpt>
      <trkpt lat="42.8490200" lon="-8.5790080">
        <ele>235.1</ele>
        <time>2021-05-24T07:48:11Z</time>
      </trkpt>
      <trkpt lat="42.8490230" lon="-8.5789920">
        <ele>234.9</ele>
        <time>2021-05-24T07:48:12Z</time>
      </trkpt>
      <trkpt lat="42.8490300" lon="-8.5789850">
        <ele>234.8</ele>
        <time>2021-05-24T07:48:13Z</time>
      </trkpt>
      <trkpt lat="42.8490360" lon="-8.5789700">
        <ele>234.6</ele>
        <time>2021-05-24T07:48:14Z</time>
      </trkpt>
      <trkpt lat="42.8490460" lon="-8.5789400">
        <ele>234.2</ele>
        <time>2021-05-24T07:48:15Z</time>
      </trkpt>
      <trkpt lat="42.8490500" lon="-8.5789280">
        <ele>234.1</ele>
        <time>2021-05-24T07:48:16Z</time>
      </trkpt>
      <trkpt lat="42.8490550" lon="-8.5789170">
        <ele>233.9</ele>
        <time>2021-05-24T07:48:17Z</time>
      </trkpt>
      <trkpt lat="42.8490650" lon="-8.5789070">
        <ele>233.8</ele>
        <time>2021-05-24T07:48:18Z</time>
      </trkpt>
      <trkpt lat="42.8490720" lon="-8.5788840">
        <ele>233.5</ele>
        <time>2021-05-24T07:48:19Z</time>
      </trkpt>
      <trkpt lat="42.8490900" lon="-8.5788560">
        <ele>233.2</ele>
        <time>2021-05-24T07:48:20Z</time>
      </trkpt>
      <trkpt lat="42.8491000" lon="-8.5788520">
        <ele>233.1</ele>
        <time>2021-05-24T07:48:21Z</time>
      </trkpt>
      <trkpt lat="42.8491110" lon="-8.5788260">
        <ele>232.8</ele>
        <time>2021-05-24T07:48:22Z</time>
      </trkpt>
      <trkpt lat="42.8491140" lon="-8.5788140">
        <ele>232.7</ele>
        <time>2021-05-24T07:48:23Z</time>
      </trkpt>
      <trkpt lat="42.8491170" lon="-8.5788030">
        <ele>232.6</ele>
        <time>2021-05-24T07:48:24Z</time>
      </trkpt>
      <trkpt lat="42.8491270" lon="-8.5787860">
        <ele>232.4</ele>
        <time>2021-05-24T07:48:25Z</time>
      </trkpt>
      <trkpt lat="42.8491380" lon="-8.5787680">
        <ele>232.3</ele>
        <time>2021-05-24T07:48:26Z</time>
      </trkpt>
      <trkpt lat="42.8491480" lon="-8.5787480">
        <ele>232.1</ele>
        <time>2021-05-24T07:48:27Z</time>
      </trkpt>
      <trkpt lat="42.8491530" lon="-8.5787370">
        <ele>232.0</ele>
        <time>2021-05-24T07:48:28Z</time>
      </trkpt>
      <trkpt lat="42.8491730" lon="-8.5787100">
        <ele>231.8</ele>
        <time>2021-05-24T07:48:29Z</time>
      </trkpt>
      <trkpt lat="42.8491780" lon="-8.5786960">
        <ele>231.7</ele>
        <time>2021-05-24T07:48:30Z</time>
      </trkpt>
      <trkpt lat="42.8491940" lon="-8.5786600">
        <ele>231.5</ele>
        <time>2021-05-24T07:48:31Z</time>
      </trkpt>
      <trkpt lat="42.8491980" lon="-8.5786480">
        <ele>231.4</ele>
        <time>2021-05-24T07:48:32Z</time>
      </trkpt>
      <trkpt lat="42.8492020" lon="-8.5786260">
        <ele>231.3</ele>
        <time>2021-05-24T07:48:33Z</time>
      </trkpt>
      <trkpt lat="42.8492130" lon="-8.5786070">
        <ele>231.2</ele>
        <time>2021-05-24T07:48:34Z</time>
      </trkpt>
      <trkpt lat="42.8492130" lon="-8.5785820">
        <ele>231.1</ele>
        <time>2021-05-24T07:48:35Z</time>
      </trkpt>
      <trkpt lat="42.8492210" lon="-8.5785640">
        <ele>231.0</ele>
        <time>2021-05-24T07:48:36Z</time>
      </trkpt>
      <trkpt lat="42.8492250" lon="-8.5785430">
        <ele>230.9</ele>
        <time>2021-05-24T07:48:37Z</time>
      </trkpt>
      <trkpt lat="42.8492290" lon="-8.5785240">
        <ele>230.9</ele>
        <time>2021-05-24T07:48:38Z</time>
      </trkpt>
      <trkpt lat="42.8492320" lon="-8.5785070">
        <ele>230.8</ele>
        <time>2021-05-24T07:48:39Z</time>
      </trkpt>
      <trkpt lat="42.8492400" lon="-8.5784890">
        <ele>230.7</ele>
        <time>2021-05-24T07:48:40Z</time>
      </trkpt>
      <trkpt lat="42.8492460" lon="-8.5784640">
        <ele>230.6</ele>
        <time>2021-05-24T07:48:41Z</time>
      </trkpt>
      <trkpt lat="42.8492500" lon="-8.5784520">
        <ele>230.6</ele>
        <time>2021-05-24T07:48:42Z</time>
      </trkpt>
      <trkpt lat="42.8492530" lon="-8.5784390">
        <ele>230.6</ele>
        <time>2021-05-24T07:48:43Z</time>
      </trkpt>
      <trkpt lat="42.8492630" lon="-8.5784250">
        <ele>230.5</ele>
        <time>2021-05-24T07:48:44Z</time>
      </trkpt>
      <trkpt lat="42.8492590" lon="-8.5784030">
        <ele>230.4</ele>
        <time>2021-05-24T07:48:45Z</time>
      </trkpt>
      <trkpt lat="42.8492720" lon="-8.5783890">
        <ele>230.4</ele>
        <time>2021-05-24T07:48:46Z</time>
      </trkpt>
      <trkpt lat="42.8492740" lon="-8.5783680">
        <ele>230.3</ele>
        <time>2021-05-24T07:48:47Z</time>
      </trkpt>
      <trkpt lat="42.8492870" lon="-8.5783560">
        <ele>230.3</ele>
        <time>2021-05-24T07:48:48Z</time>
      </trkpt>
      <trkpt lat="42.8492950" lon="-8.5783420">
        <ele>230.2</ele>
        <time>2021-05-24T07:48:49Z</time>
      </trkpt>
      <trkpt lat="42.8492970" lon="-8.5783250">
        <ele>229.8</ele>
        <time>2021-05-24T07:48:50Z</time>
      </trkpt>
      <trkpt lat="42.8493040" lon="-8.5783070">
        <ele>229.7</ele>
        <time>2021-05-24T07:48:51Z</time>
      </trkpt>
      <trkpt lat="42.8492970" lon="-8.5782830">
        <ele>229.5</ele>
        <time>2021-05-24T07:48:52Z</time>
      </trkpt>
      <trkpt lat="42.8492910" lon="-8.5782680">
        <ele>229.4</ele>
        <time>2021-05-24T07:48:53Z</time>
      </trkpt>
      <trkpt lat="42.8492850" lon="-8.5782550">
        <ele>229.3</ele>
        <time>2021-05-24T07:48:54Z</time>
      </trkpt>
      <trkpt lat="42.8492820" lon="-8.5782430">
        <ele>229.2</ele>
        <time>2021-05-24T07:48:55Z</time>
      </trkpt>
      <trkpt lat="42.8492790" lon="-8.5782300">
        <ele>229.1</ele>
        <time>2021-05-24T07:48:56Z</time>
      </trkpt>
      <trkpt lat="42.8492650" lon="-8.5782080">
        <ele>229.0</ele>
        <time>2021-05-24T07:48:57Z</time>
      </trkpt>
      <trkpt lat="42.8492610" lon="-8.5781970">
        <ele>228.9</ele>
        <time>2021-05-24T07:48:58Z</time>
      </trkpt>
      <trkpt lat="42.8492580" lon="-8.5781870">
        <ele>228.8</ele>
        <time>2021-05-24T07:48:59Z</time>
      </trkpt>
      <trkpt lat="42.8492480" lon="-8.5781730">
        <ele>228.7</ele>
        <time>2021-05-24T07:49:00Z</time>
      </trkpt>
      <trkpt lat="42.8492380" lon="-8.5781580">
        <ele>228.5</ele>
        <time>2021-05-24T07:49:01Z</time>
      </trkpt>
      <trkpt lat="42.8492220" lon="-8.5781400">
        <ele>228.3</ele>
        <time>2021-05-24T07:49:02Z</time>
      </trkpt>
      <trkpt lat="42.8492160" lon="-8.5781290">
        <ele>228.3</ele>
        <time>2021-05-24T07:49:03Z</time>
      </trkpt>
      <trkpt lat="42.8492110" lon="-8.5781190">
        <ele>228.2</ele>
        <time>2021-05-24T07:49:04Z</time>
      </trkpt>
      <trkpt lat="42.8492040" lon="-8.5781070">
        <ele>228.1</ele>
        <time>2021-05-24T07:49:05Z</time>
      </trkpt>
      <trkpt lat="42.8491960" lon="-8.5781000">
        <ele>228.0</ele>
        <time>2021-05-24T07:49:06Z</time>
      </trkpt>
      <trkpt lat="42.8491910" lon="-8.5780880">
        <ele>227.9</ele>
        <time>2021-05-24T07:49:07Z</time>
      </trkpt>
      <trkpt lat="42.8491770" lon="-8.5780750">
        <ele>227.8</ele>
        <time>2021-05-24T07:49:08Z</time>
      </trkpt>
      <trkpt lat="42.8491700" lon="-8.5780590">
        <ele>227.6</ele>
        <time>2021-05-24T07:49:09Z</time>
      </trkpt>
      <trkpt lat="42.8491600" lon="-8.5780470">
        <ele>227.5</ele>
        <time>2021-05-24T07:49:10Z</time>
      </trkpt>
      <trkpt lat="42.8491570" lon="-8.5780260">
        <ele>227.4</ele>
        <time>2021-05-24T07:49:11Z</time>
      </trkpt>
      <trkpt lat="42.8491540" lon="-8.5780100">
        <ele>227.3</ele>
        <time>2021-05-24T07:49:12Z</time>
      </trkpt>
      <trkpt lat="42.8491460" lon="-8.5779930">
        <ele>227.2</ele>
        <time>2021-05-24T07:49:13Z</time>
      </trkpt>
      <trkpt lat="42.8491460" lon="-8.5779760">
        <ele>227.1</ele>
        <time>2021-05-24T07:49:14Z</time>
      </trkpt>
      <trkpt lat="42.8491410" lon="-8.5779610">
        <ele>227.0</ele>
        <time>2021-05-24T07:49:15Z</time>
      </trkpt>
      <trkpt lat="42.8491360" lon="-8.5779560">
        <ele>227.0</ele>
        <time>2021-05-24T07:49:16Z</time>
      </trkpt>
      <trkpt lat="42.8491300" lon="-8.5779500">
        <ele>226.9</ele>
        <time>2021-05-24T07:49:17Z</time>
      </trkpt>
      <trkpt lat="42.8491230" lon="-8.5779300">
        <ele>226.8</ele>
        <time>2021-05-24T07:49:18Z</time>
      </trkpt>
      <trkpt lat="42.8491160" lon="-8.5779200">
        <ele>226.7</ele>
        <time>2021-05-24T07:49:19Z</time>
      </trkpt>
      <trkpt lat="42.8491100" lon="-8.5779130">
        <ele>226.7</ele>
        <time>2021-05-24T07:49:20Z</time>
      </trkpt>
      <trkpt lat="42.8491060" lon="-8.5779010">
        <ele>226.6</ele>
        <time>2021-05-24T07:49:21Z</time>
      </trkpt>
      <trkpt lat="42.8491030" lon="-8.5778900">
        <ele>226.6</ele>
        <time>2021-05-24T07:49:22Z</time>
      </trkpt>
      <trkpt lat="42.8490940" lon="-8.5778840">
        <ele>226.5</ele>
        <time>2021-05-24T07:49:23Z</time>
      </trkpt>
      <trkpt lat="42.8490890" lon="-8.5778680">
        <ele>226.5</ele>
        <time>2021-05-24T07:49:24Z</time>
      </trkpt>
      <trkpt lat="42.8490850" lon="-8.5778540">
        <ele>226.4</ele>
        <time>2021-05-24T07:49:25Z</time>
      </trkpt>
      <trkpt lat="42.8490760" lon="-8.5778450">
        <ele>226.3</ele>
        <time>2021-05-24T07:49:26Z</time>
      </trkpt>
      <trkpt lat="42.8490770" lon="-8.5778390">
        <ele>226.3</ele>
        <time>2021-05-24T07:49:27Z</time>
      </trkpt>
      <trkpt lat="42.8490720" lon="-8.5778200">
        <ele>226.2</ele>
        <time>2021-05-24T07:49:28Z</time>
      </trkpt>
      <trkpt lat="42.8490670" lon="-8.5778060">
        <ele>226.2</ele>
        <time>2021-05-24T07:49:29Z</time>
      </trkpt>
      <trkpt lat="42.8490610" lon="-8.5777850">
        <ele>226.1</ele>
        <time>2021-05-24T07:49:30Z</time>
      </trkpt>
      <trkpt lat="42.8490540" lon="-8.5777660">
        <ele>226.0</ele>
        <time>2021-05-24T07:49:31Z</time>
      </trkpt>
      <trkpt lat="42.8490540" lon="-8.5777530">
        <ele>226.0</ele>
        <time>2021-05-24T07:49:32Z</time>
      </trkpt>
      <trkpt lat="42.8490530" lon="-8.5777470">
        <ele>226.0</ele>
        <time>2021-05-24T07:49:33Z</time>
      </trkpt>
      <trkpt lat="42.8490490" lon="-8.5777320">
        <ele>226.0</ele>
        <time>2021-05-24T07:49:34Z</time>
      </trkpt>
      <trkpt lat="42.8490440" lon="-8.5777220">
        <ele>225.9</ele>
        <time>2021-05-24T07:49:35Z</time>
      </trkpt>
      <trkpt lat="42.8490400" lon="-8.5777130">
        <ele>225.9</ele>
        <time>2021-05-24T07:49:36Z</time>
      </trkpt>
      <trkpt lat="42.8490370" lon="-8.5776980">
        <ele>225.9</ele>
        <time>2021-05-24T07:49:37Z</time>
      </trkpt>
      <trkpt lat="42.8490300" lon="-8.5776790">
        <ele>225.8</ele>
        <time>2021-05-24T07:49:38Z</time>
      </trkpt>
      <trkpt lat="42.8490250" lon="-8.5776550">
        <ele>225.8</ele>
        <time>2021-05-24T07:49:39Z</time>
      </trkpt>
      <trkpt lat="42.8490210" lon="-8.5776430">
        <ele>225.7</ele>
        <time>2021-05-24T07:49:40Z</time>
      </trkpt>
      <trkpt lat="42.8490170" lon="-8.5776310">
        <ele>225.7</ele>
        <time>2021-05-24T07:49:41Z</time>
      </trkpt>
      <trkpt lat="42.8490060" lon="-8.5776090">
        <ele>225.7</ele>
        <time>2021-05-24T07:49:42Z</time>
      </trkpt>
      <trkpt lat="42.8490040" lon="-8.5775970">
        <ele>225.7</ele>
        <time>2021-05-24T07:49:43Z</time>
      </trkpt>
      <trkpt lat="42.8490010" lon="-8.5775860">
        <ele>225.6</ele>
        <time>2021-05-24T07:49:44Z</time>
      </trkpt>
      <trkpt lat="42.8489990" lon="-8.5775750">
        <ele>225.6</ele>
        <time>2021-05-24T07:49:45Z</time>
      </trkpt>
      <trkpt lat="42.8489980" lon="-8.5775550">
        <ele>225.6</ele>
        <time>2021-05-24T07:49:46Z</time>
      </trkpt>
      <trkpt lat="42.8489990" lon="-8.5775460">
        <ele>225.6</ele>
        <time>2021-05-24T07:49:47Z</time>
      </trkpt>
      <trkpt lat="42.8489980" lon="-8.5775360">
        <ele>225.6</ele>
        <time>2021-05-24T07:49:48Z</time>
      </trkpt>
      <trkpt lat="42.8489930" lon="-8.5775240">
        <ele>225.5</ele>
        <time>2021-05-24T07:49:49Z</time>
      </trkpt>
      <trkpt lat="42.8489990" lon="-8.5775120">
        <ele>225.5</ele>
        <time>2021-05-24T07:49:50Z</time>
      </trkpt>
      <trkpt lat="42.8489970" lon="-8.5775050">
        <ele>225.5</ele>
        <time>2021-05-24T07:49:51Z</time>
      </trkpt>
      <trkpt lat="42.8489940" lon="-8.5774970">
        <ele>225.5</ele>
        <time>2021-05-24T07:49:52Z</time>
      </trkpt>
      <trkpt lat="42.8489830" lon="-8.5774800">
        <ele>225.5</ele>
        <time>2021-05-24T07:49:53Z</time>
      </trkpt>
      <trkpt lat="42.8489770" lon="-8.5774680">
        <ele>225.4</ele>
        <time>2021-05-24T07:49:54Z</time>
      </trkpt>
      <trkpt lat="42.8489720" lon="-8.5774550">
        <ele>225.4</ele>
        <time>2021-05-24T07:49:55Z</time>
      </trkpt>
      <trkpt lat="42.8489660" lon="-8.5774430">
        <ele>225.4</ele>
        <time>2021-05-24T07:49:56Z</time>
      </trkpt>
      <trkpt lat="42.8489640" lon="-8.5774210">
        <ele>225.4</ele>
        <time>2021-05-24T07:49:57Z</time>
      </trkpt>
      <trkpt lat="42.8489650" lon="-8.5774100">
        <ele>225.4</ele>
        <time>2021-05-24T07:49:58Z</time>
      </trkpt>
      <trkpt lat="42.8489650" lon="-8.5774000">
        <ele>225.4</ele>
        <time>2021-05-24T07:49:59Z</time>
      </trkpt>
      <trkpt lat="42.8489660" lon="-8.5773890">
        <ele>225.3</ele>
        <time>2021-05-24T07:50:00Z</time>
      </trkpt>
      <trkpt lat="42.8489680" lon="-8.5773460">
        <ele>225.3</ele>
        <time>2021-05-24T07:50:01Z</time>
      </trkpt>
      <trkpt lat="42.8489700" lon="-8.5773340">
        <ele>225.3</ele>
        <time>2021-05-24T07:50:02Z</time>
      </trkpt>
      <trkpt lat="42.8489800" lon="-8.5773160">
        <ele>225.3</ele>
        <time>2021-05-24T07:50:03Z</time>
      </trkpt>
      <trkpt lat="42.8489920" lon="-8.5772950">
        <ele>225.2</ele>
        <time>2021-05-24T07:50:04Z</time>
      </trkpt>
      <trkpt lat="42.8490020" lon="-8.5772770">
        <ele>225.2</ele>
        <time>2021-05-24T07:50:05Z</time>
      </trkpt>
      <trkpt lat="42.8490130" lon="-8.5772580">
        <ele>225.2</ele>
        <time>2021-05-24T07:50:06Z</time>
      </trkpt>
      <trkpt lat="42.8490260" lon="-8.5772430">
        <ele>225.2</ele>
        <time>2021-05-24T07:50:07Z</time>
      </trkpt>
      <trkpt lat="42.8490350" lon="-8.5772250">
        <ele>225.2</ele>
        <time>2021-05-24T07:50:08Z</time>
      </trkpt>
      <trkpt lat="42.8490430" lon="-8.5772090">
        <ele>225.2</ele>
        <time>2021-05-24T07:50:09Z</time>
      </trkpt>
      <trkpt lat="42.8490560" lon="-8.5771970">
        <ele>225.2</ele>
        <time>2021-05-24T07:50:10Z</time>
      </trkpt>
      <trkpt lat="42.8490650" lon="-8.5771900">
        <ele>225.2</ele>
        <time>2021-05-24T07:50:11Z</time>
      </trkpt>
      <trkpt lat="42.8490790" lon="-8.5771700">
        <ele>225.2</ele>
        <time>2021-05-24T07:50:12Z</time>
      </trkpt>
      <trkpt lat="42.8490940" lon="-8.5771630">
        <ele>225.2</ele>
        <time>2021-05-24T07:50:13Z</time>
      </trkpt>
      <trkpt lat="42.8491070" lon="-8.5771500">
        <ele>225.2</ele>
        <time>2021-05-24T07:50:14Z</time>
      </trkpt>
      <trkpt lat="42.8491190" lon="-8.5771340">
        <ele>225.2</ele>
        <time>2021-05-24T07:50:15Z</time>
      </trkpt>
      <trkpt lat="42.8491290" lon="-8.5771170">
        <ele>225.2</ele>
        <time>2021-05-24T07:50:16Z</time>
      </trkpt>
      <trkpt lat="42.8491460" lon="-8.5770940">
        <ele>225.2</ele>
        <time>2021-05-24T07:50:17Z</time>
      </trkpt>
      <trkpt lat="42.8491530" lon="-8.5770870">
        <ele>225.2</ele>
        <time>2021-05-24T07:50:18Z</time>
      </trkpt>
      <trkpt lat="42.8491610" lon="-8.5770790">
        <ele>225.2</ele>
        <time>2021-05-24T07:50:19Z</time>
      </trkpt>
      <trkpt lat="42.8491780" lon="-8.5770650">
        <ele>225.2</ele>
        <time>2021-05-24T07:50:20Z</time>
      </trkpt>
      <trkpt lat="42.8491870" lon="-8.5770580">
        <ele>225.2</ele>
        <time>2021-05-24T07:50:21Z</time>
      </trkpt>
      <trkpt lat="42.8491950" lon="-8.5770510">
        <ele>225.2</ele>
        <time>2021-05-24T07:50:22Z</time>
      </trkpt>
      <trkpt lat="42.8492110" lon="-8.5770390">
        <ele>225.2</ele>
        <time>2021-05-24T07:50:23Z</time>
      </trkpt>
      <trkpt lat="42.8492230" lon="-8.5770360">
        <ele>225.2</ele>
        <time>2021-05-24T07:50:24Z</time>
      </trkpt>
      <trkpt lat="42.8492300" lon="-8.5770290">
        <ele>225.2</ele>
        <time>2021-05-24T07:50:25Z</time>
      </trkpt>
      <trkpt lat="42.8492410" lon="-8.5770120">
        <ele>225.2</ele>
        <time>2021-05-24T07:50:26Z</time>
      </trkpt>
      <trkpt lat="42.8492470" lon="-8.5770090">
        <ele>225.2</ele>
        <time>2021-05-24T07:50:27Z</time>
      </trkpt>
      <trkpt lat="42.8492550" lon="-8.5770040">
        <ele>225.2</ele>
        <time>2021-05-24T07:50:28Z</time>
      </trkpt>
      <trkpt lat="42.8492530" lon="-8.5770100">
        <ele>225.2</ele>
        <time>2021-05-24T07:50:29Z</time>
      </trkpt>
      <trkpt lat="42.8492660" lon="-8.5770150">
        <ele>225.2</ele>
        <time>2021-05-24T07:50:30Z</time>
      </trkpt>
      <trkpt lat="42.8492700" lon="-8.5770170">
        <ele>225.2</ele>
        <time>2021-05-24T07:50:31Z</time>
      </trkpt>
      <trkpt lat="42.8492700" lon="-8.5770140">
        <ele>225.2</ele>
        <time>2021-05-24T07:50:32Z</time>
      </trkpt>
      <trkpt lat="42.8492700" lon="-8.5770110">
        <ele>225.2</ele>
        <time>2021-05-24T07:50:33Z</time>
      </trkpt>
      <trkpt lat="42.8492710" lon="-8.5770090">
        <ele>225.2</ele>
        <time>2021-05-24T07:50:34Z</time>
      </trkpt>
      <trkpt lat="42.8492710" lon="-8.5770090">
        <ele>225.2</ele>
        <time>2021-05-24T07:50:35Z</time>
      </trkpt>
      <trkpt lat="42.8492720" lon="-8.5770070">
        <ele>225.2</ele>
        <time>2021-05-24T07:50:36Z</time>
      </trkpt>
      <trkpt lat="42.8492740" lon="-8.5770100">
        <ele>225.2</ele>
        <time>2021-05-24T07:50:37Z</time>
      </trkpt>
      <trkpt lat="42.8492790" lon="-8.5770110">
        <ele>225.2</ele>
        <time>2021-05-24T07:50:38Z</time>
      </trkpt>
      <trkpt lat="42.8492810" lon="-8.5770130">
        <ele>225.2</ele>
        <time>2021-05-24T07:50:39Z</time>
      </trkpt>
      <trkpt lat="42.8492830" lon="-8.5770140">
        <ele>225.2</ele>
        <time>2021-05-24T07:50:40Z</time>
      </trkpt>
      <trkpt lat="42.8492860" lon="-8.5770150">
        <ele>225.2</ele>
        <time>2021-05-24T07:50:41Z</time>
      </trkpt>
      <trkpt lat="42.8492890" lon="-8.5770170">
        <ele>225.2</ele>
        <time>2021-05-24T07:50:42Z</time>
      </trkpt>
      <trkpt lat="42.8492870" lon="-8.5770120">
        <ele>225.2</ele>
        <time>2021-05-24T07:50:43Z</time>
      </trkpt>
      <trkpt lat="42.8492880" lon="-8.5770120">
        <ele>225.2</ele>
        <time>2021-05-24T07:50:44Z</time>
      </trkpt>
      <trkpt lat="42.8492930" lon="-8.5770130">
        <ele>225.2</ele>
        <time>2021-05-24T07:50:45Z</time>
      </trkpt>
      <trkpt lat="42.8492990" lon="-8.5770170">
        <ele>225.2</ele>
        <time>2021-05-24T07:50:46Z</time>
      </trkpt>
      <trkpt lat="42.8493000" lon="-8.5770160">
        <ele>225.2</ele>
        <time>2021-05-24T07:50:47Z</time>
      </trkpt>
      <trkpt lat="42.8493040" lon="-8.5770190">
        <ele>225.2</ele>
        <time>2021-05-24T07:50:48Z</time>
      </trkpt>
      <trkpt lat="42.8493060" lon="-8.5770180">
        <ele>225.2</ele>
        <time>2021-05-24T07:50:49Z</time>
      </trkpt>
      <trkpt lat="42.8493070" lon="-8.5770180">
        <ele>225.2</ele>
        <time>2021-05-24T07:50:50Z</time>
      </trkpt>
      <trkpt lat="42.8493080" lon="-8.5770180">
        <ele>225.2</ele>
        <time>2021-05-24T07:50:51Z</time>
      </trkpt>
      <trkpt lat="42.8493100" lon="-8.5770180">
        <ele>225.2</ele>
        <time>2021-05-24T07:50:52Z</time>
      </trkpt>
      <trkpt lat="42.8493110" lon="-8.5770180">
        <ele>225.2</ele>
        <time>2021-05-24T07:50:53Z</time>
      </trkpt>
      <trkpt lat="42.8493120" lon="-8.5770180">
        <ele>225.2</ele>
        <time>2021-05-24T07:50:54Z</time>
      </trkpt>
      <trkpt lat="42.8493130" lon="-8.5770180">
        <ele>225.2</ele>
        <time>2021-05-24T07:50:55Z</time>
      </trkpt>
      <trkpt lat="42.8493140" lon="-8.5770180">
        <ele>225.2</ele>
        <time>2021-05-24T07:50:56Z</time>
      </trkpt>
      <trkpt lat="42.8493150" lon="-8.5770180">
        <ele>225.2</ele>
        <time>2021-05-24T07:50:57Z</time>
      </trkpt>
      <trkpt lat="42.8493160" lon="-8.5770180">
        <ele>225.2</ele>
        <time>2021-05-24T07:50:58Z</time>
      </trkpt>
      <trkpt lat="42.8493170" lon="-8.5770180">
        <ele>225.2</ele>
        <time>2021-05-24T07:50:59Z</time>
      </trkpt>
      <trkpt lat="42.8493190" lon="-8.5770180">
        <ele>225.2</ele>
        <time>2021-05-24T07:51:00Z</time>
      </trkpt>
      <trkpt lat="42.8493200" lon="-8.5770180">
        <ele>225.2</ele>
        <time>2021-05-24T07:51:01Z</time>
      </trkpt>
      <trkpt lat="42.8493210" lon="-8.5770180">
        <ele>225.2</ele>
        <time>2021-05-24T07:51:02Z</time>
      </trkpt>
      <trkpt lat="42.8493220" lon="-8.5770180">
        <ele>225.2</ele>
        <time>2021-05-24T07:51:03Z</time>
      </trkpt>
      <trkpt lat="42.8493230" lon="-8.5770180">
        <ele>225.2</ele>
        <time>2021-05-24T07:51:04Z</time>
      </trkpt>
      <trkpt lat="42.8493240" lon="-8.5770180">
        <ele>225.2</ele>
        <time>2021-05-24T07:51:05Z</time>
      </trkpt>
      <trkpt lat="42.8493250" lon="-8.5770180">
        <ele>225.2</ele>
        <time>2021-05-24T07:51:06Z</time>
      </trkpt>
      <trkpt lat="42.8493260" lon="-8.5770180">
        <ele>225.2</ele>
        <time>2021-05-24T07:51:07Z</time>
      </trkpt>
      <trkpt lat="42.8493280" lon="-8.5770180">
        <ele>225.2</ele>
        <time>2021-05-24T07:51:08Z</time>
      </trkpt>
      <trkpt lat="42.8493290" lon="-8.5770180">
        <ele>225.2</ele>
        <time>2021-05-24T07:51:09Z</time>
      </trkpt>
      <trkpt lat="42.8493300" lon="-8.5770180">
        <ele>225.2</ele>
        <time>2021-05-24T07:51:10Z</time>
      </trkpt>
      <trkpt lat="42.8493310" lon="-8.5770180">
        <ele>225.2</ele>
        <time>2021-05-24T07:51:11Z</time>
      </trkpt>
      <trkpt lat="42.8493320" lon="-8.5770180">
        <ele>225.2</ele>
        <time>2021-05-24T07:51:12Z</time>
      </trkpt>
      <trkpt lat="42.8493330" lon="-8.5770180">
        <ele>225.2</ele>
        <time>2021-05-24T07:51:13Z</time>
      </trkpt>
      <trkpt lat="42.8493340" lon="-8.5770180">
        <ele>225.2</ele>
        <time>2021-05-24T07:51:14Z</time>
      </trkpt>
      <trkpt lat="42.8493350" lon="-8.5770180">
        <ele>225.2</ele>
        <time>2021-05-24T07:51:15Z</time>
      </trkpt>
      <trkpt lat="42.8493370" lon="-8.5770180">
        <ele>225.2</ele>
        <time>2021-05-24T07:51:16Z</time>
      </trkpt>
      <trkpt lat="42.8493380" lon="-8.5770180">
        <ele>225.2</ele>
        <time>2021-05-24T07:51:17Z</time>
      </trkpt>
      <trkpt lat="42.8493390" lon="-8.5770180">
        <ele>225.2</ele>
        <time>2021-05-24T07:51:18Z</time>
      </trkpt>
      <trkpt lat="42.8493400" lon="-8.5770180">
        <ele>225.2</ele>
        <time>2021-05-24T07:51:19Z</time>
      </trkpt>
      <trkpt lat="42.8493460" lon="-8.5770060">
        <ele>225.2</ele>
        <time>2021-05-24T07:51:20Z</time>
      </trkpt>
      <trkpt lat="42.8493570" lon="-8.5770020">
        <ele>225.2</ele>
        <time>2021-05-24T07:51:21Z</time>
      </trkpt>
      <trkpt lat="42.8493650" lon="-8.5769960">
        <ele>225.2</ele>
        <time>2021-05-24T07:51:22Z</time>
      </trkpt>
      <trkpt lat="42.8493730" lon="-8.5769880">
        <ele>225.2</ele>
        <time>2021-05-24T07:51:23Z</time>
      </trkpt>
      <trkpt lat="42.8493870" lon="-8.5769730">
        <ele>225.2</ele>
        <time>2021-05-24T07:51:24Z</time>
      </trkpt>
      <trkpt lat="42.8494000" lon="-8.5769770">
        <ele>225.2</ele>
        <time>2021-05-24T07:51:25Z</time>
      </trkpt>
      <trkpt lat="42.8494190" lon="-8.5769730">
        <ele>225.2</ele>
        <time>2021-05-24T07:51:26Z</time>
      </trkpt>
      <trkpt lat="42.8494480" lon="-8.5769570">
        <ele>225.1</ele>
        <time>2021-05-24T07:51:27Z</time>
      </trkpt>
      <trkpt lat="42.8494570" lon="-8.5769540">
        <ele>225.1</ele>
        <time>2021-05-24T07:51:28Z</time>
      </trkpt>
      <trkpt lat="42.8494760" lon="-8.5769460">
        <ele>225.1</ele>
        <time>2021-05-24T07:51:29Z</time>
      </trkpt>
      <trkpt lat="42.8494880" lon="-8.5769430">
        <ele>225.1</ele>
        <time>2021-05-24T07:51:30Z</time>
      </trkpt>
      <trkpt lat="42.8495000" lon="-8.5769390">
        <ele>225.1</ele>
        <time>2021-05-24T07:51:31Z</time>
      </trkpt>
      <trkpt lat="42.8495140" lon="-8.5769380">
        <ele>225.1</ele>
        <time>2021-05-24T07:51:32Z</time>
      </trkpt>
      <trkpt lat="42.8495290" lon="-8.5769390">
        <ele>225.0</ele>
        <time>2021-05-24T07:51:33Z</time>
      </trkpt>
      <trkpt lat="42.8495420" lon="-8.5769420">
        <ele>225.0</ele>
        <time>2021-05-24T07:51:34Z</time>
      </trkpt>
      <trkpt lat="42.8495610" lon="-8.5769370">
        <ele>225.0</ele>
        <time>2021-05-24T07:51:35Z</time>
      </trkpt>
      <trkpt lat="42.8495820" lon="-8.5769330">
        <ele>225.0</ele>
        <time>2021-05-24T07:51:36Z</time>
      </trkpt>
      <trkpt lat="42.8495920" lon="-8.5769330">
        <ele>224.9</ele>
        <time>2021-05-24T07:51:37Z</time>
      </trkpt>
      <trkpt lat="42.8496010" lon="-8.5769330">
        <ele>224.9</ele>
        <time>2021-05-24T07:51:38Z</time>
      </trkpt>
      <trkpt lat="42.8496170" lon="-8.5769390">
        <ele>224.9</ele>
        <time>2021-05-24T07:51:39Z</time>
      </trkpt>
      <trkpt lat="42.8496320" lon="-8.5769520">
        <ele>224.8</ele>
        <time>2021-05-24T07:51:40Z</time>
      </trkpt>
      <trkpt lat="42.8496480" lon="-8.5769510">
        <ele>224.8</ele>
        <time>2021-05-24T07:51:41Z</time>
      </trkpt>
      <trkpt lat="42.8496650" lon="-8.5769550">
        <ele>224.7</ele>
        <time>2021-05-24T07:51:42Z</time>
      </trkpt>
      <trkpt lat="42.8496790" lon="-8.5769530">
        <ele>224.7</ele>
        <time>2021-05-24T07:51:43Z</time>
      </trkpt>
      <trkpt lat="42.8496930" lon="-8.5769570">
        <ele>224.6</ele>
        <time>2021-05-24T07:51:44Z</time>
      </trkpt>
      <trkpt lat="42.8497080" lon="-8.5769550">
        <ele>224.6</ele>
        <time>2021-05-24T07:51:45Z</time>
      </trkpt>
      <trkpt lat="42.8497210" lon="-8.5769520">
        <ele>224.5</ele>
        <time>2021-05-24T07:51:46Z</time>
      </trkpt>
      <trkpt lat="42.8497350" lon="-8.5769570">
        <ele>224.5</ele>
        <time>2021-05-24T07:51:47Z</time>
      </trkpt>
      <trkpt lat="42.8497470" lon="-8.5769630">
        <ele>224.4</ele>
        <time>2021-05-24T07:51:48Z</time>
      </trkpt>
      <trkpt lat="42.8497530" lon="-8.5769640">
        <ele>224.4</ele>
        <time>2021-05-24T07:51:49Z</time>
      </trkpt>
      <trkpt lat="42.8497680" lon="-8.5769630">
        <ele>224.3</ele>
        <time>2021-05-24T07:51:50Z</time>
      </trkpt>
      <trkpt lat="42.8497770" lon="-8.5769620">
        <ele>224.2</ele>
        <time>2021-05-24T07:51:51Z</time>
      </trkpt>
      <trkpt lat="42.8497860" lon="-8.5769620">
        <ele>224.2</ele>
        <time>2021-05-24T07:51:52Z</time>
      </trkpt>
      <trkpt lat="42.8497950" lon="-8.5769610">
        <ele>224.1</ele>
        <time>2021-05-24T07:51:53Z</time>
      </trkpt>
      <trkpt lat="42.8498050" lon="-8.5769560">
        <ele>224.1</ele>
        <time>2021-05-24T07:51:54Z</time>
      </trkpt>
      <trkpt lat="42.8498120" lon="-8.5769550">
        <ele>224.0</ele>
        <time>2021-05-24T07:51:55Z</time>
      </trkpt>
      <trkpt lat="42.8498260" lon="-8.5769530">
        <ele>223.9</ele>
        <time>2021-05-24T07:51:56Z</time>
      </trkpt>
      <trkpt lat="42.8498460" lon="-8.5769530">
        <ele>223.8</ele>
        <time>2021-05-24T07:51:57Z</time>
      </trkpt>
      <trkpt lat="42.8498520" lon="-8.5769520">
        <ele>223.8</ele>
        <time>2021-05-24T07:51:58Z</time>
      </trkpt>
      <trkpt lat="42.8498590" lon="-8.5769500">
        <ele>223.7</ele>
        <time>2021-05-24T07:51:59Z</time>
      </trkpt>
      <trkpt lat="42.8498650" lon="-8.5769480">
        <ele>223.7</ele>
        <time>2021-05-24T07:52:00Z</time>
      </trkpt>
      <trkpt lat="42.8498830" lon="-8.5769400">
        <ele>223.6</ele>
        <time>2021-05-24T07:52:01Z</time>
      </trkpt>
      <trkpt lat="42.8498950" lon="-8.5769410">
        <ele>223.5</ele>
        <time>2021-05-24T07:52:02Z</time>
      </trkpt>
      <trkpt lat="42.8499110" lon="-8.5769410">
        <ele>223.4</ele>
        <time>2021-05-24T07:52:03Z</time>
      </trkpt>
      <trkpt lat="42.8499220" lon="-8.5769410">
        <ele>223.4</ele>
        <time>2021-05-24T07:52:04Z</time>
      </trkpt>
      <trkpt lat="42.8499320" lon="-8.5769400">
        <ele>223.3</ele>
        <time>2021-05-24T07:52:05Z</time>
      </trkpt>
      <trkpt lat="42.8499480" lon="-8.5769380">
        <ele>223.2</ele>
        <time>2021-05-24T07:52:06Z</time>
      </trkpt>
      <trkpt lat="42.8499640" lon="-8.5769380">
        <ele>223.1</ele>
        <time>2021-05-24T07:52:07Z</time>
      </trkpt>
      <trkpt lat="42.8499990" lon="-8.5769430">
        <ele>222.9</ele>
        <time>2021-05-24T07:52:08Z</time>
      </trkpt>
      <trkpt lat="42.8500150" lon="-8.5769430">
        <ele>222.8</ele>
        <time>2021-05-24T07:52:09Z</time>
      </trkpt>
      <trkpt lat="42.8500430" lon="-8.5769370">
        <ele>222.7</ele>
        <time>2021-05-24T07:52:10Z</time>
      </trkpt>
      <trkpt lat="42.8500510" lon="-8.5769370">
        <ele>222.7</ele>
        <time>2021-05-24T07:52:11Z</time>
      </trkpt>
      <trkpt lat="42.8500800" lon="-8.5769420">
        <ele>222.5</ele>
        <time>2021-05-24T07:52:12Z</time>
      </trkpt>
      <trkpt lat="42.8500890" lon="-8.5769450">
        <ele>222.5</ele>
        <time>2021-05-24T07:52:13Z</time>
      </trkpt>
      <trkpt lat="42.8501040" lon="-8.5769460">
        <ele>222.4</ele>
        <time>2021-05-24T07:52:14Z</time>
      </trkpt>
      <trkpt lat="42.8501190" lon="-8.5769510">
        <ele>222.3</ele>
        <time>2021-05-24T07:52:15Z</time>
      </trkpt>
      <trkpt lat="42.8501330" lon="-8.5769530">
        <ele>222.3</ele>
        <time>2021-05-24T07:52:16Z</time>
      </trkpt>
      <trkpt lat="42.8501490" lon="-8.5769640">
        <ele>222.2</ele>
        <time>2021-05-24T07:52:17Z</time>
      </trkpt>
      <trkpt lat="42.8501640" lon="-8.5769660">
        <ele>222.2</ele>
        <time>2021-05-24T07:52:18Z</time>
      </trkpt>
      <trkpt lat="42.8501810" lon="-8.5769600">
        <ele>222.1</ele>
        <time>2021-05-24T07:52:19Z</time>
      </trkpt>
      <trkpt lat="42.8501930" lon="-8.5769700">
        <ele>222.1</ele>
        <time>2021-05-24T07:52:20Z</time>
      </trkpt>
      <trkpt lat="42.8502090" lon="-8.5769750">
        <ele>222.0</ele>
        <time>2021-05-24T07:52:21Z</time>
      </trkpt>
      <trkpt lat="42.8502240" lon="-8.5769820">
        <ele>222.0</ele>
        <time>2021-05-24T07:52:22Z</time>
      </trkpt>
      <trkpt lat="42.8502380" lon="-8.5769870">
        <ele>221.9</ele>
        <time>2021-05-24T07:52:23Z</time>
      </trkpt>
      <trkpt lat="42.8502530" lon="-8.5769840">
        <ele>221.9</ele>
        <time>2021-05-24T07:52:24Z</time>
      </trkpt>
      <trkpt lat="42.8502700" lon="-8.5769840">
        <ele>221.8</ele>
        <time>2021-05-24T07:52:25Z</time>
      </trkpt>
      <trkpt lat="42.8502830" lon="-8.5769920">
        <ele>221.8</ele>
        <time>2021-05-24T07:52:26Z</time>
      </trkpt>
      <trkpt lat="42.8502980" lon="-8.5769920">
        <ele>221.8</ele>
        <time>2021-05-24T07:52:27Z</time>
      </trkpt>
      <trkpt lat="42.8503130" lon="-8.5769990">
        <ele>221.8</ele>
        <time>2021-05-24T07:52:28Z</time>
      </trkpt>
      <trkpt lat="42.8503280" lon="-8.5770010">
        <ele>221.7</ele>
        <time>2021-05-24T07:52:29Z</time>
      </trkpt>
      <trkpt lat="42.8503440" lon="-8.5769980">
        <ele>221.7</ele>
        <time>2021-05-24T07:52:30Z</time>
      </trkpt>
      <trkpt lat="42.8503590" lon="-8.5770020">
        <ele>221.7</ele>
        <time>2021-05-24T07:52:31Z</time>
      </trkpt>
      <trkpt lat="42.8503730" lon="-8.5770110">
        <ele>221.6</ele>
        <time>2021-05-24T07:52:32Z</time>
      </trkpt>
      <trkpt lat="42.8503880" lon="-8.5770170">
        <ele>221.6</ele>
        <time>2021-05-24T07:52:33Z</time>
      </trkpt>
      <trkpt lat="42.8504100" lon="-8.5770150">
        <ele>221.6</ele>
        <time>2021-05-24T07:52:34Z</time>
      </trkpt>
      <trkpt lat="42.8504190" lon="-8.5770150">
        <ele>221.6</ele>
        <time>2021-05-24T07:52:35Z</time>
      </trkpt>
      <trkpt lat="42.8504290" lon="-8.5770140">
        <ele>221.6</ele>
        <time>2021-05-24T07:52:36Z</time>
      </trkpt>
      <trkpt lat="42.8504420" lon="-8.5770190">
        <ele>221.5</ele>
        <time>2021-05-24T07:52:37Z</time>
      </trkpt>
      <trkpt lat="42.8504540" lon="-8.5770180">
        <ele>221.5</ele>
        <time>2021-05-24T07:52:38Z</time>
      </trkpt>
      <trkpt lat="42.8504640" lon="-8.5770080">
        <ele>221.5</ele>
        <time>2021-05-24T07:52:39Z</time>
      </trkpt>
      <trkpt lat="42.8504860" lon="-8.5770100">
        <ele>221.5</ele>
        <time>2021-05-24T07:52:40Z</time>
      </trkpt>
      <trkpt lat="42.8504960" lon="-8.5770120">
        <ele>221.5</ele>
        <time>2021-05-24T07:52:41Z</time>
      </trkpt>
      <trkpt lat="42.8505050" lon="-8.5770140">
        <ele>221.5</ele>
        <time>2021-05-24T07:52:42Z</time>
      </trkpt>
      <trkpt lat="42.8505160" lon="-8.5770200">
        <ele>221.5</ele>
        <time>2021-05-24T07:52:43Z</time>
      </trkpt>
      <trkpt lat="42.8505260" lon="-8.5770240">
        <ele>221.5</ele>
        <time>2021-05-24T07:52:44Z</time>
      </trkpt>
      <trkpt lat="42.8505390" lon="-8.5770230">
        <ele>221.4</ele>
        <time>2021-05-24T07:52:45Z</time>
      </trkpt>
      <trkpt lat="42.8505610" lon="-8.5770290">
        <ele>221.4</ele>
        <time>2021-05-24T07:52:46Z</time>
      </trkpt>
      <trkpt lat="42.8505690" lon="-8.5770310">
        <ele>221.4</ele>
        <time>2021-05-24T07:52:47Z</time>
      </trkpt>
      <trkpt lat="42.8505780" lon="-8.5770330">
        <ele>221.4</ele>
        <time>2021-05-24T07:52:48Z</time>
      </trkpt>
      <trkpt lat="42.8505900" lon="-8.5770400">
        <ele>221.4</ele>
        <time>2021-05-24T07:52:49Z</time>
      </trkpt>
      <trkpt lat="42.8506050" lon="-8.5770430">
        <ele>221.4</ele>
        <time>2021-05-24T07:52:50Z</time>
      </trkpt>
      <trkpt lat="42.8506190" lon="-8.5770530">
        <ele>221.3</ele>
        <time>2021-05-24T07:52:51Z</time>
      </trkpt>
      <trkpt lat="42.8506330" lon="-8.5770620">
        <ele>221.3</ele>
        <time>2021-05-24T07:52:52Z</time>
      </trkpt>
      <trkpt lat="42.8506460" lon="-8.5770700">
        <ele>221.3</ele>
        <time>2021-05-24T07:52:53Z</time>
      </trkpt>
      <trkpt lat="42.8506600" lon="-8.5770750">
        <ele>221.3</ele>
        <time>2021-05-24T07:52:54Z</time>
      </trkpt>
      <trkpt lat="42.8506740" lon="-8.5770790">
        <ele>221.2</ele>
        <time>2021-05-24T07:52:55Z</time>
      </trkpt>
      <trkpt lat="42.8506870" lon="-8.5770800">
        <ele>221.2</ele>
        <time>2021-05-24T07:52:56Z</time>
      </trkpt>
      <trkpt lat="42.8507010" lon="-8.5770800">
        <ele>221.2</ele>
        <time>2021-05-24T07:52:57Z</time>
      </trkpt>
      <trkpt lat="42.8507140" lon="-8.5770900">
        <ele>221.2</ele>
        <time>2021-05-24T07:52:58Z</time>
      </trkpt>
      <trkpt lat="42.8507270" lon="-8.5770980">
        <ele>221.1</ele>
        <time>2021-05-24T07:52:59Z</time>
      </trkpt>
      <trkpt lat="42.8507410" lon="-8.5771070">
        <ele>221.1</ele>
        <time>2021-05-24T07:53:00Z</time>
      </trkpt>
      <trkpt lat="42.8507560" lon="-8.5771120">
        <ele>221.0</ele>
        <time>2021-05-24T07:53:01Z</time>
      </trkpt>
      <trkpt lat="42.8507680" lon="-8.5771260">
        <ele>221.0</ele>
        <time>2021-05-24T07:53:02Z</time>
      </trkpt>
      <trkpt lat="42.8507820" lon="-8.5771360">
        <ele>220.9</ele>
        <time>2021-05-24T07:53:03Z</time>
      </trkpt>
      <trkpt lat="42.8507970" lon="-8.5771410">
        <ele>220.9</ele>
        <time>2021-05-24T07:53:04Z</time>
      </trkpt>
      <trkpt lat="42.8508110" lon="-8.5771510">
        <ele>220.8</ele>
        <time>2021-05-24T07:53:05Z</time>
      </trkpt>
      <trkpt lat="42.8508250" lon="-8.5771610">
        <ele>220.8</ele>
        <time>2021-05-24T07:53:06Z</time>
      </trkpt>
      <trkpt lat="42.8508400" lon="-8.5771620">
        <ele>220.7</ele>
        <time>2021-05-24T07:53:07Z</time>
      </trkpt>
      <trkpt lat="42.8508540" lon="-8.5771710">
        <ele>220.7</ele>
        <time>2021-05-24T07:53:08Z</time>
      </trkpt>
      <trkpt lat="42.8508680" lon="-8.5771790">
        <ele>220.6</ele>
        <time>2021-05-24T07:53:09Z</time>
      </trkpt>
      <trkpt lat="42.8508790" lon="-8.5771900">
        <ele>220.5</ele>
        <time>2021-05-24T07:53:10Z</time>
      </trkpt>
      <trkpt lat="42.8509010" lon="-8.5772000">
        <ele>220.5</ele>
        <time>2021-05-24T07:53:11Z</time>
      </trkpt>
      <trkpt lat="42.8509090" lon="-8.5772030">
        <ele>220.4</ele>
        <time>2021-05-24T07:53:12Z</time>
      </trkpt>
      <trkpt lat="42.8509180" lon="-8.5772070">
        <ele>220.4</ele>
        <time>2021-05-24T07:53:13Z</time>
      </trkpt>
      <trkpt lat="42.8509400" lon="-8.5772140">
        <ele>220.3</ele>
        <time>2021-05-24T07:53:14Z</time>
      </trkpt>
      <trkpt lat="42.8509480" lon="-8.5772160">
        <ele>220.3</ele>
        <time>2021-05-24T07:53:15Z</time>
      </trkpt>
      <trkpt lat="42.8509570" lon="-8.5772170">
        <ele>220.2</ele>
        <time>2021-05-24T07:53:16Z</time>
      </trkpt>
      <trkpt lat="42.8509770" lon="-8.5772240">
        <ele>220.2</ele>
        <time>2021-05-24T07:53:17Z</time>
      </trkpt>
      <trkpt lat="42.8509860" lon="-8.5772240">
        <ele>220.1</ele>
        <time>2021-05-24T07:53:18Z</time>
      </trkpt>
      <trkpt lat="42.8509940" lon="-8.5772250">
        <ele>220.1</ele>
        <time>2021-05-24T07:53:19Z</time>
      </trkpt>
      <trkpt lat="42.8510110" lon="-8.5772220">
        <ele>220.1</ele>
        <time>2021-05-24T07:53:20Z</time>
      </trkpt>
      <trkpt lat="42.8510270" lon="-8.5772250">
        <ele>220.1</ele>
        <time>2021-05-24T07:53:21Z</time>
      </trkpt>
      <trkpt lat="42.8510380" lon="-8.5772200">
        <ele>220.1</ele>
        <time>2021-05-24T07:53:22Z</time>
      </trkpt>
      <trkpt lat="42.8510460" lon="-8.5772200">
        <ele>220.1</ele>
        <time>2021-05-24T07:53:23Z</time>
      </trkpt>
      <trkpt lat="42.8510560" lon="-8.5772150">
        <ele>220.1</ele>
        <time>2021-05-24T07:53:24Z</time>
      </trkpt>
      <trkpt lat="42.8510800" lon="-8.5772110">
        <ele>220.1</ele>
        <time>2021-05-24T07:53:25Z</time>
      </trkpt>
      <trkpt lat="42.8510860" lon="-8.5772130">
        <ele>220.2</ele>
        <time>2021-05-24T07:53:26Z</time>
      </trkpt>
      <trkpt lat="42.8510930" lon="-8.5772150">
        <ele>220.2</ele>
        <time>2021-05-24T07:53:27Z</time>
      </trkpt>
      <trkpt lat="42.8511140" lon="-8.5772080">
        <ele>220.2</ele>
        <time>2021-05-24T07:53:28Z</time>
      </trkpt>
      <trkpt lat="42.8511220" lon="-8.5772010">
        <ele>220.2</ele>
        <time>2021-05-24T07:53:29Z</time>
      </trkpt>
      <trkpt lat="42.8511310" lon="-8.5771930">
        <ele>220.2</ele>
        <time>2021-05-24T07:53:30Z</time>
      </trkpt>
      <trkpt lat="42.8511450" lon="-8.5771920">
        <ele>220.2</ele>
        <time>2021-05-24T07:53:31Z</time>
      </trkpt>
      <trkpt lat="42.8511610" lon="-8.5771830">
        <ele>220.2</ele>
        <time>2021-05-24T07:53:32Z</time>
      </trkpt>
      <trkpt lat="42.8511710" lon="-8.5771780">
        <ele>220.2</ele>
        <time>2021-05-24T07:53:33Z</time>
      </trkpt>
      <trkpt lat="42.8511780" lon="-8.5771650">
        <ele>220.2</ele>
        <time>2021-05-24T07:53:34Z</time>
      </trkpt>
      <trkpt lat="42.8511870" lon="-8.5771570">
        <ele>220.2</ele>
        <time>2021-05-24T07:53:35Z</time>
      </trkpt>
      <trkpt lat="42.8511960" lon="-8.5771340">
        <ele>220.3</ele>
        <time>2021-05-24T07:53:36Z</time>
      </trkpt>
      <trkpt lat="42.8512000" lon="-8.5771200">
        <ele>220.3</ele>
        <time>2021-05-24T07:53:37Z</time>
      </trkpt>
      <trkpt lat="42.8512020" lon="-8.5771120">
        <ele>220.3</ele>
        <time>2021-05-24T07:53:38Z</time>
      </trkpt>
      <trkpt lat="42.8512150" lon="-8.5771000">
        <ele>220.3</ele>
        <time>2021-05-24T07:53:39Z</time>
      </trkpt>
      <trkpt lat="42.8512200" lon="-8.5770870">
        <ele>220.3</ele>
        <time>2021-05-24T07:53:40Z</time>
      </trkpt>
      <trkpt lat="42.8512440" lon="-8.5770640">
        <ele>220.4</ele>
        <time>2021-05-24T07:53:41Z</time>
      </trkpt>
      <trkpt lat="42.8512510" lon="-8.5770550">
        <ele>220.4</ele>
        <time>2021-05-24T07:53:42Z</time>
      </trkpt>
      <trkpt lat="42.8512600" lon="-8.5770390">
        <ele>220.4</ele>
        <time>2021-05-24T07:53:43Z</time>
      </trkpt>
      <trkpt lat="42.8512680" lon="-8.5770260">
        <ele>220.4</ele>
        <time>2021-05-24T07:53:44Z</time>
      </trkpt>
      <trkpt lat="42.8512800" lon="-8.5770110">
        <ele>220.4</ele>
        <time>2021-05-24T07:53:45Z</time>
      </trkpt>
      <trkpt lat="42.8512930" lon="-8.5769920">
        <ele>220.5</ele>
        <time>2021-05-24T07:53:46Z</time>
      </trkpt>
      <trkpt lat="42.8512960" lon="-8.5769730">
        <ele>220.5</ele>
        <time>2021-05-24T07:53:47Z</time>
      </trkpt>
      <trkpt lat="42.8513070" lon="-8.5769610">
        <ele>220.6</ele>
        <time>2021-05-24T07:53:48Z</time>
      </trkpt>
      <trkpt lat="42.8513240" lon="-8.5769330">
        <ele>220.6</ele>
        <time>2021-05-24T07:53:49Z</time>
      </trkpt>
      <trkpt lat="42.8513300" lon="-8.5769220">
        <ele>220.7</ele>
        <time>2021-05-24T07:53:50Z</time>
      </trkpt>
      <trkpt lat="42.8513420" lon="-8.5769080">
        <ele>220.7</ele>
        <time>2021-05-24T07:53:51Z</time>
      </trkpt>
      <trkpt lat="42.8513480" lon="-8.5768900">
        <ele>220.7</ele>
        <time>2021-05-24T07:53:52Z</time>
      </trkpt>
      <trkpt lat="42.8513500" lon="-8.5768830">
        <ele>220.8</ele>
        <time>2021-05-24T07:53:53Z</time>
      </trkpt>
      <trkpt lat="42.8513570" lon="-8.5768730">
        <ele>220.8</ele>
        <time>2021-05-24T07:53:54Z</time>
      </trkpt>
      <trkpt lat="42.8513640" lon="-8.5768630">
        <ele>220.8</ele>
        <time>2021-05-24T07:53:55Z</time>
      </trkpt>
      <trkpt lat="42.8513700" lon="-8.5768520">
        <ele>220.8</ele>
        <time>2021-05-24T07:53:56Z</time>
      </trkpt>
      <trkpt lat="42.8513750" lon="-8.5768430">
        <ele>220.9</ele>
        <time>2021-05-24T07:53:57Z</time>
      </trkpt>
      <trkpt lat="42.8513860" lon="-8.5768340">
        <ele>220.9</ele>
        <time>2021-05-24T07:53:58Z</time>
      </trkpt>
      <trkpt lat="42.8513970" lon="-8.5768220">
        <ele>220.9</ele>
        <time>2021-05-24T07:53:59Z</time>
      </trkpt>
      <trkpt lat="42.8514090" lon="-8.5768000">
        <ele>221.0</ele>
        <time>2021-05-24T07:54:00Z</time>
      </trkpt>
      <trkpt lat="42.8514170" lon="-8.5767910">
        <ele>221.0</ele>
        <time>2021-05-24T07:54:01Z</time>
      </trkpt>
      <trkpt lat="42.8514250" lon="-8.5767820">
        <ele>221.0</ele>
        <time>2021-05-24T07:54:02Z</time>
      </trkpt>
      <trkpt lat="42.8514280" lon="-8.5767710">
        <ele>221.0</ele>
        <time>2021-05-24T07:54:03Z</time>
      </trkpt>
      <trkpt lat="42.8514380" lon="-8.5767570">
        <ele>221.1</ele>
        <time>2021-05-24T07:54:04Z</time>
      </trkpt>
      <trkpt lat="42.8514500" lon="-8.5767500">
        <ele>221.1</ele>
        <time>2021-05-24T07:54:05Z</time>
      </trkpt>
      <trkpt lat="42.8514610" lon="-8.5767440">
        <ele>221.1</ele>
        <time>2021-05-24T07:54:06Z</time>
      </trkpt>
      <trkpt lat="42.8514730" lon="-8.5767360">
        <ele>221.2</ele>
        <time>2021-05-24T07:54:07Z</time>
      </trkpt>
      <trkpt lat="42.8514820" lon="-8.5767290">
        <ele>221.2</ele>
        <time>2021-05-24T07:54:08Z</time>
      </trkpt>
      <trkpt lat="42.8514920" lon="-8.5767200">
        <ele>221.2</ele>
        <time>2021-05-24T07:54:09Z</time>
      </trkpt>
      <trkpt lat="42.8515010" lon="-8.5767190">
        <ele>221.2</ele>
        <time>2021-05-24T07:54:10Z</time>
      </trkpt>
      <trkpt lat="42.8515090" lon="-8.5767070">
        <ele>221.2</ele>
        <time>2021-05-24T07:54:11Z</time>
      </trkpt>
      <trkpt lat="42.8515220" lon="-8.5766850">
        <ele>221.3</ele>
        <time>2021-05-24T07:54:12Z</time>
      </trkpt>
      <trkpt lat="42.8515270" lon="-8.5766740">
        <ele>221.3</ele>
        <time>2021-05-24T07:54:13Z</time>
      </trkpt>
      <trkpt lat="42.8515310" lon="-8.5766640">
        <ele>221.3</ele>
        <time>2021-05-24T07:54:14Z</time>
      </trkpt>
      <trkpt lat="42.8515410" lon="-8.5766490">
        <ele>221.3</ele>
        <time>2021-05-24T07:54:15Z</time>
      </trkpt>
      <trkpt lat="42.8515550" lon="-8.5766390">
        <ele>221.3</ele>
        <time>2021-05-24T07:54:16Z</time>
      </trkpt>
      <trkpt lat="42.8515650" lon="-8.5766290">
        <ele>221.3</ele>
        <time>2021-05-24T07:54:17Z</time>
      </trkpt>
      <trkpt lat="42.8515730" lon="-8.5766270">
        <ele>221.3</ele>
        <time>2021-05-24T07:54:18Z</time>
      </trkpt>
      <trkpt lat="42.8515820" lon="-8.5766180">
        <ele>221.3</ele>
        <time>2021-05-24T07:54:19Z</time>
      </trkpt>
      <trkpt lat="42.8515940" lon="-8.5766060">
        <ele>221.3</ele>
        <time>2021-05-24T07:54:20Z</time>
      </trkpt>
      <trkpt lat="42.8516010" lon="-8.5765800">
        <ele>221.4</ele>
        <time>2021-05-24T07:54:21Z</time>
      </trkpt>
      <trkpt lat="42.8516140" lon="-8.5765670">
        <ele>221.4</ele>
        <time>2021-05-24T07:54:22Z</time>
      </trkpt>
      <trkpt lat="42.8516190" lon="-8.5765500">
        <ele>221.4</ele>
        <time>2021-05-24T07:54:23Z</time>
      </trkpt>
      <trkpt lat="42.8516250" lon="-8.5765310">
        <ele>221.4</ele>
        <time>2021-05-24T07:54:24Z</time>
      </trkpt>
      <trkpt lat="42.8516330" lon="-8.5765140">
        <ele>221.4</ele>
        <time>2021-05-24T07:54:25Z</time>
      </trkpt>
      <trkpt lat="42.8516380" lon="-8.5764930">
        <ele>221.4</ele>
        <time>2021-05-24T07:54:26Z</time>
      </trkpt>
      <trkpt lat="42.8516490" lon="-8.5764830">
        <ele>221.4</ele>
        <time>2021-05-24T07:54:27Z</time>
      </trkpt>
      <trkpt lat="42.8516620" lon="-8.5764750">
        <ele>221.5</ele>
        <time>2021-05-24T07:54:28Z</time>
      </trkpt>
      <trkpt lat="42.8516740" lon="-8.5764650">
        <ele>221.5</ele>
        <time>2021-05-24T07:54:29Z</time>
      </trkpt>
      <trkpt lat="42.8516900" lon="-8.5764530">
        <ele>221.5</ele>
        <time>2021-05-24T07:54:30Z</time>
      </trkpt>
      <trkpt lat="42.8516990" lon="-8.5764470">
        <ele>221.5</ele>
        <time>2021-05-24T07:54:31Z</time>
      </trkpt>
      <trkpt lat="42.8517070" lon="-8.5764410">
        <ele>221.5</ele>
        <time>2021-05-24T07:54:32Z</time>
      </trkpt>
      <trkpt lat="42.8517210" lon="-8.5764360">
        <ele>221.5</ele>
        <time>2021-05-24T07:54:33Z</time>
      </trkpt>
      <trkpt lat="42.8517410" lon="-8.5764270">
        <ele>221.6</ele>
        <time>2021-05-24T07:54:34Z</time>
      </trkpt>
      <trkpt lat="42.8517490" lon="-8.5764090">
        <ele>221.6</ele>
        <time>2021-05-24T07:54:35Z</time>
      </trkpt>
      <trkpt lat="42.8517640" lon="-8.5763970">
        <ele>221.6</ele>
        <time>2021-05-24T07:54:36Z</time>
      </trkpt>
      <trkpt lat="42.8517600" lon="-8.5763710">
        <ele>221.6</ele>
        <time>2021-05-24T07:54:37Z</time>
      </trkpt>
      <trkpt lat="42.8517660" lon="-8.5763500">
        <ele>221.6</ele>
        <time>2021-05-24T07:54:38Z</time>
      </trkpt>
      <trkpt lat="42.8517760" lon="-8.5763350">
        <ele>221.7</ele>
        <time>2021-05-24T07:54:39Z</time>
      </trkpt>
      <trkpt lat="42.8517870" lon="-8.5763230">
        <ele>221.7</ele>
        <time>2021-05-24T07:54:40Z</time>
      </trkpt>
      <trkpt lat="42.8517920" lon="-8.5763130">
        <ele>221.7</ele>
        <time>2021-05-24T07:54:41Z</time>
      </trkpt>
      <trkpt lat="42.8518020" lon="-8.5763030">
        <ele>221.7</ele>
        <time>2021-05-24T07:54:42Z</time>
      </trkpt>
      <trkpt lat="42.8518120" lon="-8.5762910">
        <ele>221.7</ele>
        <time>2021-05-24T07:54:43Z</time>
      </trkpt>
      <trkpt lat="42.8518200" lon="-8.5762800">
        <ele>221.8</ele>
        <time>2021-05-24T07:54:44Z</time>
      </trkpt>
      <trkpt lat="42.8518260" lon="-8.5762760">
        <ele>221.8</ele>
        <time>2021-05-24T07:54:45Z</time>
      </trkpt>
      <trkpt lat="42.8518330" lon="-8.5762680">
        <ele>221.8</ele>
        <time>2021-05-24T07:54:46Z</time>
      </trkpt>
      <trkpt lat="42.8518470" lon="-8.5762600">
        <ele>221.8</ele>
        <time>2021-05-24T07:54:47Z</time>
      </trkpt>
      <trkpt lat="42.8518580" lon="-8.5762490">
        <ele>221.8</ele>
        <time>2021-05-24T07:54:48Z</time>
      </trkpt>
      <trkpt lat="42.8518710" lon="-8.5762300">
        <ele>221.9</ele>
        <time>2021-05-24T07:54:49Z</time>
      </trkpt>
      <trkpt lat="42.8518780" lon="-8.5762180">
        <ele>221.9</ele>
        <time>2021-05-24T07:54:50Z</time>
      </trkpt>
      <trkpt lat="42.8518880" lon="-8.5762020">
        <ele>221.9</ele>
        <time>2021-05-24T07:54:51Z</time>
      </trkpt>
      <trkpt lat="42.8518980" lon="-8.5761840">
        <ele>222.0</ele>
        <time>2021-05-24T07:54:52Z</time>
      </trkpt>
      <trkpt lat="42.8519030" lon="-8.5761740">
        <ele>222.0</ele>
        <time>2021-05-24T07:54:53Z</time>
      </trkpt>
      <trkpt lat="42.8519090" lon="-8.5761650">
        <ele>222.0</ele>
        <time>2021-05-24T07:54:54Z</time>
      </trkpt>
      <trkpt lat="42.8519100" lon="-8.5761490">
        <ele>222.0</ele>
        <time>2021-05-24T07:54:55Z</time>
      </trkpt>
      <trkpt lat="42.8519120" lon="-8.5761300">
        <ele>222.0</ele>
        <time>2021-05-24T07:54:56Z</time>
      </trkpt>
      <trkpt lat="42.8519040" lon="-8.5761080">
        <ele>222.0</ele>
        <time>2021-05-24T07:54:57Z</time>
      </trkpt>
      <trkpt lat="42.8519120" lon="-8.5760940">
        <ele>222.1</ele>
        <time>2021-05-24T07:54:58Z</time>
      </trkpt>
      <trkpt lat="42.8519200" lon="-8.5760760">
        <ele>222.1</ele>
        <time>2021-05-24T07:54:59Z</time>
      </trkpt>
      <trkpt lat="42.8519250" lon="-8.5760520">
        <ele>222.1</ele>
        <time>2021-05-24T07:55:00Z</time>
      </trkpt>
      <trkpt lat="42.8519250" lon="-8.5760360">
        <ele>222.1</ele>
        <time>2021-05-24T07:55:01Z</time>
      </trkpt>
      <trkpt lat="42.8519260" lon="-8.5760190">
        <ele>222.1</ele>
        <time>2021-05-24T07:55:02Z</time>
      </trkpt>
      <trkpt lat="42.8519350" lon="-8.5759940">
        <ele>222.1</ele>
        <time>2021-05-24T07:55:03Z</time>
      </trkpt>
      <trkpt lat="42.8519400" lon="-8.5759820">
        <ele>222.1</ele>
        <time>2021-05-24T07:55:04Z</time>
      </trkpt>
      <trkpt lat="42.8519440" lon="-8.5759710">
        <ele>222.1</ele>
        <time>2021-05-24T07:55:05Z</time>
      </trkpt>
      <trkpt lat="42.8519510" lon="-8.5759580">
        <ele>222.1</ele>
        <time>2021-05-24T07:55:06Z</time>
      </trkpt>
      <trkpt lat="42.8519600" lon="-8.5759510">
        <ele>222.2</ele>
        <time>2021-05-24T07:55:07Z</time>
      </trkpt>
      <trkpt lat="42.8519650" lon="-8.5759370">
        <ele>222.2</ele>
        <time>2021-05-24T07:55:08Z</time>
      </trkpt>
      <trkpt lat="42.8519730" lon="-8.5759210">
        <ele>222.2</ele>
        <time>2021-05-24T07:55:09Z</time>
      </trkpt>
      <trkpt lat="42.8519860" lon="-8.5759120">
        <ele>222.2</ele>
        <time>2021-05-24T07:55:10Z</time>
      </trkpt>
      <trkpt lat="42.8520040" lon="-8.5758970">
        <ele>222.2</ele>
        <time>2021-05-24T07:55:11Z</time>
      </trkpt>
      <trkpt lat="42.8520130" lon="-8.5758920">
        <ele>222.2</ele>
        <time>2021-05-24T07:55:12Z</time>
      </trkpt>
      <trkpt lat="42.8520220" lon="-8.5758880">
        <ele>222.2</ele>
        <time>2021-05-24T07:55:13Z</time>
      </trkpt>
      <trkpt lat="42.8520380" lon="-8.5758710">
        <ele>222.2</ele>
        <time>2021-05-24T07:55:14Z</time>
      </trkpt>
      <trkpt lat="42.8520470" lon="-8.5758670">
        <ele>222.2</ele>
        <time>2021-05-24T07:55:15Z</time>
      </trkpt>
      <trkpt lat="42.8520550" lon="-8.5758620">
        <ele>222.2</ele>
        <time>2021-05-24T07:55:16Z</time>
      </trkpt>
      <trkpt lat="42.8520670" lon="-8.5758520">
        <ele>222.2</ele>
        <time>2021-05-24T07:55:17Z</time>
      </trkpt>
      <trkpt lat="42.8520810" lon="-8.5758470">
        <ele>222.2</ele>
        <time>2021-05-24T07:55:18Z</time>
      </trkpt>
      <trkpt lat="42.8520920" lon="-8.5758360">
        <ele>222.2</ele>
        <time>2021-05-24T07:55:19Z</time>
      </trkpt>
      <trkpt lat="42.8521060" lon="-8.5758210">
        <ele>222.3</ele>
        <time>2021-05-24T07:55:20Z</time>
      </trkpt>
      <trkpt lat="42.8521180" lon="-8.5758120">
        <ele>222.3</ele>
        <time>2021-05-24T07:55:21Z</time>
      </trkpt>
      <trkpt lat="42.8521300" lon="-8.5757950">
        <ele>222.3</ele>
        <time>2021-05-24T07:55:22Z</time>
      </trkpt>
      <trkpt lat="42.8521410" lon="-8.5757760">
        <ele>222.3</ele>
        <time>2021-05-24T07:55:23Z</time>
      </trkpt>
      <trkpt lat="42.8521520" lon="-8.5757650">
        <ele>222.3</ele>
        <time>2021-05-24T07:55:24Z</time>
      </trkpt>
      <trkpt lat="42.8521740" lon="-8.5757500">
        <ele>222.3</ele>
        <time>2021-05-24T07:55:25Z</time>
      </trkpt>
      <trkpt lat="42.8521810" lon="-8.5757460">
        <ele>222.3</ele>
        <time>2021-05-24T07:55:26Z</time>
      </trkpt>
      <trkpt lat="42.8521870" lon="-8.5757410">
        <ele>222.4</ele>
        <time>2021-05-24T07:55:27Z</time>
      </trkpt>
      <trkpt lat="42.8522050" lon="-8.5757270">
        <ele>222.4</ele>
        <time>2021-05-24T07:55:28Z</time>
      </trkpt>
      <trkpt lat="42.8522130" lon="-8.5757220">
        <ele>222.4</ele>
        <time>2021-05-24T07:55:29Z</time>
      </trkpt>
      <trkpt lat="42.8522210" lon="-8.5757160">
        <ele>222.4</ele>
        <time>2021-05-24T07:55:30Z</time>
      </trkpt>
      <trkpt lat="42.8522340" lon="-8.5757050">
        <ele>222.4</ele>
        <time>2021-05-24T07:55:31Z</time>
      </trkpt>
      <trkpt lat="42.8522440" lon="-8.5756970">
        <ele>222.4</ele>
        <time>2021-05-24T07:55:32Z</time>
      </trkpt>
      <trkpt lat="42.8522580" lon="-8.5756920">
        <ele>222.4</ele>
        <time>2021-05-24T07:55:33Z</time>
      </trkpt>
      <trkpt lat="42.8522650" lon="-8.5756860">
        <ele>222.5</ele>
        <time>2021-05-24T07:55:34Z</time>
      </trkpt>
      <trkpt lat="42.8522750" lon="-8.5756770">
        <ele>222.5</ele>
        <time>2021-05-24T07:55:35Z</time>
      </trkpt>
      <trkpt lat="42.8522920" lon="-8.5756630">
        <ele>222.5</ele>
        <time>2021-05-24T07:55:36Z</time>
      </trkpt>
      <trkpt lat="42.8523010" lon="-8.5756570">
        <ele>222.5</ele>
        <time>2021-05-24T07:55:37Z</time>
      </trkpt>
      <trkpt lat="42.8523090" lon="-8.5756500">
        <ele>222.5</ele>
        <time>2021-05-24T07:55:38Z</time>
      </trkpt>
      <trkpt lat="42.8523210" lon="-8.5756410">
        <ele>222.5</ele>
        <time>2021-05-24T07:55:39Z</time>
      </trkpt>
      <trkpt lat="42.8523300" lon="-8.5756280">
        <ele>222.5</ele>
        <time>2021-05-24T07:55:40Z</time>
      </trkpt>
      <trkpt lat="42.8523310" lon="-8.5756130">
        <ele>222.5</ele>
        <time>2021-05-24T07:55:41Z</time>
      </trkpt>
      <trkpt lat="42.8523380" lon="-8.5755950">
        <ele>222.5</ele>
        <time>2021-05-24T07:55:42Z</time>
      </trkpt>
      <trkpt lat="42.8523480" lon="-8.5755850">
        <ele>222.5</ele>
        <time>2021-05-24T07:55:43Z</time>
      </trkpt>
      <trkpt lat="42.8523500" lon="-8.5755740">
        <ele>222.5</ele>
        <time>2021-05-24T07:55:44Z</time>
      </trkpt>
      <trkpt lat="42.8523460" lon="-8.5755640">
        <ele>222.5</ele>
        <time>2021-05-24T07:55:45Z</time>
      </trkpt>
      <trkpt lat="42.8523560" lon="-8.5755450">
        <ele>222.5</ele>
        <time>2021-05-24T07:55:46Z</time>
      </trkpt>
      <trkpt lat="42.8523570" lon="-8.5755310">
        <ele>222.5</ele>
        <time>2021-05-24T07:55:47Z</time>
      </trkpt>
      <trkpt lat="42.8523520" lon="-8.5755110">
        <ele>222.5</ele>
        <time>2021-05-24T07:55:48Z</time>
      </trkpt>
      <trkpt lat="42.8523570" lon="-8.5754880">
        <ele>222.4</ele>
        <time>2021-05-24T07:55:49Z</time>
      </trkpt>
      <trkpt lat="42.8523610" lon="-8.5754640">
        <ele>222.4</ele>
        <time>2021-05-24T07:55:50Z</time>
      </trkpt>
      <trkpt lat="42.8523650" lon="-8.5754490">
        <ele>222.4</ele>
        <time>2021-05-24T07:55:51Z</time>
      </trkpt>
      <trkpt lat="42.8523710" lon="-8.5754320">
        <ele>222.3</ele>
        <time>2021-05-24T07:55:52Z</time>
      </trkpt>
      <trkpt lat="42.8523780" lon="-8.5754130">
        <ele>222.3</ele>
        <time>2021-05-24T07:55:53Z</time>
      </trkpt>
      <trkpt lat="42.8523970" lon="-8.5753840">
        <ele>222.2</ele>
        <time>2021-05-24T07:55:54Z</time>
      </trkpt>
      <trkpt lat="42.8524020" lon="-8.5753740">
        <ele>222.2</ele>
        <time>2021-05-24T07:55:55Z</time>
      </trkpt>
      <trkpt lat="42.8524130" lon="-8.5753480">
        <ele>222.1</ele>
        <time>2021-05-24T07:55:56Z</time>
      </trkpt>
      <trkpt lat="42.8524230" lon="-8.5753350">
        <ele>222.1</ele>
        <time>2021-05-24T07:55:57Z</time>
      </trkpt>
      <trkpt lat="42.8524340" lon="-8.5753190">
        <ele>222.0</ele>
        <time>2021-05-24T07:55:58Z</time>
      </trkpt>
      <trkpt lat="42.8524450" lon="-8.5753060">
        <ele>222.0</ele>
        <time>2021-05-24T07:55:59Z</time>
      </trkpt>
      <trkpt lat="42.8524610" lon="-8.5752920">
        <ele>221.9</ele>
        <time>2021-05-24T07:56:00Z</time>
      </trkpt>
      <trkpt lat="42.8524680" lon="-8.5752840">
        <ele>221.9</ele>
        <time>2021-05-24T07:56:01Z</time>
      </trkpt>
      <trkpt lat="42.8524750" lon="-8.5752770">
        <ele>221.8</ele>
        <time>2021-05-24T07:56:02Z</time>
      </trkpt>
      <trkpt lat="42.8524940" lon="-8.5752660">
        <ele>221.8</ele>
        <time>2021-05-24T07:56:03Z</time>
      </trkpt>
      <trkpt lat="42.8525020" lon="-8.5752610">
        <ele>221.7</ele>
        <time>2021-05-24T07:56:04Z</time>
      </trkpt>
      <trkpt lat="42.8525110" lon="-8.5752560">
        <ele>221.7</ele>
        <time>2021-05-24T07:56:05Z</time>
      </trkpt>
      <trkpt lat="42.8525200" lon="-8.5752460">
        <ele>221.7</ele>
        <time>2021-05-24T07:56:06Z</time>
      </trkpt>
      <trkpt lat="42.8525310" lon="-8.5752280">
        <ele>221.6</ele>
        <time>2021-05-24T07:56:07Z</time>
      </trkpt>
      <trkpt lat="42.8525460" lon="-8.5752200">
        <ele>221.6</ele>
        <time>2021-05-24T07:56:08Z</time>
      </trkpt>
      <trkpt lat="42.8525560" lon="-8.5752050">
        <ele>221.5</ele>
        <time>2021-05-24T07:56:09Z</time>
      </trkpt>
      <trkpt lat="42.8525690" lon="-8.5751880">
        <ele>221.5</ele>
        <time>2021-05-24T07:56:10Z</time>
      </trkpt>
      <trkpt lat="42.8525810" lon="-8.5751800">
        <ele>221.4</ele>
        <time>2021-05-24T07:56:11Z</time>
      </trkpt>
      <trkpt lat="42.8525910" lon="-8.5751690">
        <ele>221.4</ele>
        <time>2021-05-24T07:56:12Z</time>
      </trkpt>
      <trkpt lat="42.8526030" lon="-8.5751570">
        <ele>221.3</ele>
        <time>2021-05-24T07:56:13Z</time>
      </trkpt>
      <trkpt lat="42.8526130" lon="-8.5751420">
        <ele>221.3</ele>
        <time>2021-05-24T07:56:14Z</time>
      </trkpt>
      <trkpt lat="42.8526240" lon="-8.5751320">
        <ele>221.2</ele>
        <time>2021-05-24T07:56:15Z</time>
      </trkpt>
      <trkpt lat="42.8526370" lon="-8.5751130">
        <ele>221.2</ele>
        <time>2021-05-24T07:56:16Z</time>
      </trkpt>
      <trkpt lat="42.8526490" lon="-8.5750990">
        <ele>221.1</ele>
        <time>2021-05-24T07:56:17Z</time>
      </trkpt>
      <trkpt lat="42.8526600" lon="-8.5750890">
        <ele>221.1</ele>
        <time>2021-05-24T07:56:18Z</time>
      </trkpt>
      <trkpt lat="42.8526690" lon="-8.5750740">
        <ele>221.0</ele>
        <time>2021-05-24T07:56:19Z</time>
      </trkpt>
      <trkpt lat="42.8526810" lon="-8.5750660">
        <ele>221.0</ele>
        <time>2021-05-24T07:56:20Z</time>
      </trkpt>
      <trkpt lat="42.8526900" lon="-8.5750490">
        <ele>220.9</ele>
        <time>2021-05-24T07:56:21Z</time>
      </trkpt>
      <trkpt lat="42.8526970" lon="-8.5750360">
        <ele>220.9</ele>
        <time>2021-05-24T07:56:22Z</time>
      </trkpt>
      <trkpt lat="42.8527060" lon="-8.5750220">
        <ele>220.9</ele>
        <time>2021-05-24T07:56:23Z</time>
      </trkpt>
      <trkpt lat="42.8527130" lon="-8.5750140">
        <ele>220.8</ele>
        <time>2021-05-24T07:56:24Z</time>
      </trkpt>
      <trkpt lat="42.8527170" lon="-8.5749990">
        <ele>220.8</ele>
        <time>2021-05-24T07:56:25Z</time>
      </trkpt>
      <trkpt lat="42.8527250" lon="-8.5749800">
        <ele>220.7</ele>
        <time>2021-05-24T07:56:26Z</time>
      </trkpt>
      <trkpt lat="42.8527390" lon="-8.5749590">
        <ele>220.7</ele>
        <time>2021-05-24T07:56:27Z</time>
      </trkpt>
      <trkpt lat="42.8527420" lon="-8.5749490">
        <ele>220.7</ele>
        <time>2021-05-24T07:56:28Z</time>
      </trkpt>
      <trkpt lat="42.8527460" lon="-8.5749390">
        <ele>220.6</ele>
        <time>2021-05-24T07:56:29Z</time>
      </trkpt>
      <trkpt lat="42.8527570" lon="-8.5749250">
        <ele>220.6</ele>
        <time>2021-05-24T07:56:30Z</time>
      </trkpt>
      <trkpt lat="42.8527630" lon="-8.5749110">
        <ele>220.5</ele>
        <time>2021-05-24T07:56:31Z</time>
      </trkpt>
      <trkpt lat="42.8527670" lon="-8.5749010">
        <ele>220.5</ele>
        <time>2021-05-24T07:56:32Z</time>
      </trkpt>
      <trkpt lat="42.8527710" lon="-8.5748810">
        <ele>220.5</ele>
        <time>2021-05-24T07:56:33Z</time>
      </trkpt>
      <trkpt lat="42.8527780" lon="-8.5748610">
        <ele>220.4</ele>
        <time>2021-05-24T07:56:34Z</time>
      </trkpt>
      <trkpt lat="42.8527810" lon="-8.5748380">
        <ele>220.4</ele>
        <time>2021-05-24T07:56:35Z</time>
      </trkpt>
      <trkpt lat="42.8527890" lon="-8.5748210">
        <ele>220.3</ele>
        <time>2021-05-24T07:56:36Z</time>
      </trkpt>
      <trkpt lat="42.8527980" lon="-8.5748050">
        <ele>220.3</ele>
        <time>2021-05-24T07:56:37Z</time>
      </trkpt>
      <trkpt lat="42.8528020" lon="-8.5747850">
        <ele>220.2</ele>
        <time>2021-05-24T07:56:38Z</time>
      </trkpt>
      <trkpt lat="42.8528090" lon="-8.5747680">
        <ele>220.2</ele>
        <time>2021-05-24T07:56:39Z</time>
      </trkpt>
      <trkpt lat="42.8528180" lon="-8.5747510">
        <ele>220.2</ele>
        <time>2021-05-24T07:56:40Z</time>
      </trkpt>
      <trkpt lat="42.8528240" lon="-8.5747320">
        <ele>220.1</ele>
        <time>2021-05-24T07:56:41Z</time>
      </trkpt>
      <trkpt lat="42.8528320" lon="-8.5747170">
        <ele>220.1</ele>
        <time>2021-05-24T07:56:42Z</time>
      </trkpt>
      <trkpt lat="42.8528430" lon="-8.5746990">
        <ele>220.0</ele>
        <time>2021-05-24T07:56:43Z</time>
      </trkpt>
      <trkpt lat="42.8528480" lon="-8.5746800">
        <ele>220.0</ele>
        <time>2021-05-24T07:56:44Z</time>
      </trkpt>
      <trkpt lat="42.8528490" lon="-8.5746610">
        <ele>220.0</ele>
        <time>2021-05-24T07:56:45Z</time>
      </trkpt>
      <trkpt lat="42.8528620" lon="-8.5746470">
        <ele>219.9</ele>
        <time>2021-05-24T07:56:46Z</time>
      </trkpt>
      <trkpt lat="42.8528690" lon="-8.5746270">
        <ele>219.9</ele>
        <time>2021-05-24T07:56:47Z</time>
      </trkpt>
      <trkpt lat="42.8528710" lon="-8.5746080">
        <ele>219.8</ele>
        <time>2021-05-24T07:56:48Z</time>
      </trkpt>
      <trkpt lat="42.8528780" lon="-8.5745900">
        <ele>219.8</ele>
        <time>2021-05-24T07:56:49Z</time>
      </trkpt>
      <trkpt lat="42.8528840" lon="-8.5745730">
        <ele>219.8</ele>
        <time>2021-05-24T07:56:50Z</time>
      </trkpt>
      <trkpt lat="42.8528940" lon="-8.5745570">
        <ele>219.7</ele>
        <time>2021-05-24T07:56:51Z</time>
      </trkpt>
      <trkpt lat="42.8528970" lon="-8.5745390">
        <ele>219.7</ele>
        <time>2021-05-24T07:56:52Z</time>
      </trkpt>
      <trkpt lat="42.8529040" lon="-8.5745230">
        <ele>219.6</ele>
        <time>2021-05-24T07:56:53Z</time>
      </trkpt>
      <trkpt lat="42.8529100" lon="-8.5745060">
        <ele>219.6</ele>
        <time>2021-05-24T07:56:54Z</time>
      </trkpt>
      <trkpt lat="42.8529120" lon="-8.5744870">
        <ele>219.5</ele>
        <time>2021-05-24T07:56:55Z</time>
      </trkpt>
      <trkpt lat="42.8529120" lon="-8.5744740">
        <ele>219.5</ele>
        <time>2021-05-24T07:56:56Z</time>
      </trkpt>
      <trkpt lat="42.8529210" lon="-8.5744660">
        <ele>219.4</ele>
        <time>2021-05-24T07:56:57Z</time>
      </trkpt>
      <trkpt lat="42.8529190" lon="-8.5744420">
        <ele>219.3</ele>
        <time>2021-05-24T07:56:58Z</time>
      </trkpt>
      <trkpt lat="42.8529190" lon="-8.5744280">
        <ele>219.3</ele>
        <time>2021-05-24T07:56:59Z</time>
      </trkpt>
      <trkpt lat="42.8529180" lon="-8.5744150">
        <ele>219.3</ele>
        <time>2021-05-24T07:57:00Z</time>
      </trkpt>
      <trkpt lat="42.8529150" lon="-8.5743970">
        <ele>219.2</ele>
        <time>2021-05-24T07:57:01Z</time>
      </trkpt>
      <trkpt lat="42.8529150" lon="-8.5743730">
        <ele>219.1</ele>
        <time>2021-05-24T07:57:02Z</time>
      </trkpt>
      <trkpt lat="42.8529110" lon="-8.5743590">
        <ele>219.1</ele>
        <time>2021-05-24T07:57:03Z</time>
      </trkpt>
      <trkpt lat="42.8529070" lon="-8.5743440">
        <ele>219.0</ele>
        <time>2021-05-24T07:57:04Z</time>
      </trkpt>
      <trkpt lat="42.8529110" lon="-8.5743340">
        <ele>219.0</ele>
        <time>2021-05-24T07:57:05Z</time>
      </trkpt>
      <trkpt lat="42.8529080" lon="-8.5743130">
        <ele>218.9</ele>
        <time>2021-05-24T07:57:06Z</time>
      </trkpt>
      <trkpt lat="42.8529120" lon="-8.5742900">
        <ele>218.8</ele>
        <time>2021-05-24T07:57:07Z</time>
      </trkpt>
      <trkpt lat="42.8529120" lon="-8.5742720">
        <ele>218.7</ele>
        <time>2021-05-24T07:57:08Z</time>
      </trkpt>
      <trkpt lat="42.8529130" lon="-8.5742480">
        <ele>218.6</ele>
        <time>2021-05-24T07:57:09Z</time>
      </trkpt>
      <trkpt lat="42.8529140" lon="-8.5742300">
        <ele>218.5</ele>
        <time>2021-05-24T07:57:10Z</time>
      </trkpt>
      <trkpt lat="42.8529070" lon="-8.5742180">
        <ele>218.4</ele>
        <time>2021-05-24T07:57:11Z</time>
      </trkpt>
      <trkpt lat="42.8529200" lon="-8.5742070">
        <ele>218.3</ele>
        <time>2021-05-24T07:57:12Z</time>
      </trkpt>
      <trkpt lat="42.8529260" lon="-8.5741900">
        <ele>218.2</ele>
        <time>2021-05-24T07:57:13Z</time>
      </trkpt>
      <trkpt lat="42.8529370" lon="-8.5741710">
        <ele>218.1</ele>
        <time>2021-05-24T07:57:14Z</time>
      </trkpt>
      <trkpt lat="42.8529470" lon="-8.5741540">
        <ele>218.0</ele>
        <time>2021-05-24T07:57:15Z</time>
      </trkpt>
      <trkpt lat="42.8529630" lon="-8.5741390">
        <ele>217.9</ele>
        <time>2021-05-24T07:57:16Z</time>
      </trkpt>
      <trkpt lat="42.8529720" lon="-8.5741180">
        <ele>217.7</ele>
        <time>2021-05-24T07:57:17Z</time>
      </trkpt>
      <trkpt lat="42.8529910" lon="-8.5741110">
        <ele>217.6</ele>
        <time>2021-05-24T07:57:18Z</time>
      </trkpt>
      <trkpt lat="42.8530020" lon="-8.5741000">
        <ele>217.5</ele>
        <time>2021-05-24T07:57:19Z</time>
      </trkpt>
      <trkpt lat="42.8530230" lon="-8.5741020">
        <ele>217.4</ele>
        <time>2021-05-24T07:57:20Z</time>
      </trkpt>
      <trkpt lat="42.8530370" lon="-8.5740900">
        <ele>217.2</ele>
        <time>2021-05-24T07:57:21Z</time>
      </trkpt>
      <trkpt lat="42.8530490" lon="-8.5740870">
        <ele>217.1</ele>
        <time>2021-05-24T07:57:22Z</time>
      </trkpt>
      <trkpt lat="42.8530650" lon="-8.5740900">
        <ele>217.0</ele>
        <time>2021-05-24T07:57:23Z</time>
      </trkpt>
      <trkpt lat="42.8530800" lon="-8.5740920">
        <ele>216.9</ele>
        <time>2021-05-24T07:57:24Z</time>
      </trkpt>
      <trkpt lat="42.8530950" lon="-8.5741090">
        <ele>216.8</ele>
        <time>2021-05-24T07:57:25Z</time>
      </trkpt>
      <trkpt lat="42.8531080" lon="-8.5741140">
        <ele>216.6</ele>
        <time>2021-05-24T07:57:26Z</time>
      </trkpt>
      <trkpt lat="42.8531200" lon="-8.5741290">
        <ele>216.5</ele>
        <time>2021-05-24T07:57:27Z</time>
      </trkpt>
      <trkpt lat="42.8531340" lon="-8.5741340">
        <ele>216.4</ele>
        <time>2021-05-24T07:57:28Z</time>
      </trkpt>
      <trkpt lat="42.8531400" lon="-8.5741480">
        <ele>216.3</ele>
        <time>2021-05-24T07:57:29Z</time>
      </trkpt>
      <trkpt lat="42.8531540" lon="-8.5741530">
        <ele>216.2</ele>
        <time>2021-05-24T07:57:30Z</time>
      </trkpt>
      <trkpt lat="42.8531620" lon="-8.5741570">
        <ele>216.1</ele>
        <time>2021-05-24T07:57:31Z</time>
      </trkpt>
      <trkpt lat="42.8531770" lon="-8.5741510">
        <ele>216.0</ele>
        <time>2021-05-24T07:57:32Z</time>
      </trkpt>
      <trkpt lat="42.8531900" lon="-8.5741490">
        <ele>215.9</ele>
        <time>2021-05-24T07:57:33Z</time>
      </trkpt>
      <trkpt lat="42.8532000" lon="-8.5741500">
        <ele>215.8</ele>
        <time>2021-05-24T07:57:34Z</time>
      </trkpt>
      <trkpt lat="42.8532150" lon="-8.5741510">
        <ele>215.7</ele>
        <time>2021-05-24T07:57:35Z</time>
      </trkpt>
      <trkpt lat="42.8532250" lon="-8.5741450">
        <ele>215.6</ele>
        <time>2021-05-24T07:57:36Z</time>
      </trkpt>
      <trkpt lat="42.8532430" lon="-8.5741510">
        <ele>215.5</ele>
        <time>2021-05-24T07:57:37Z</time>
      </trkpt>
      <trkpt lat="42.8532520" lon="-8.5741520">
        <ele>215.4</ele>
        <time>2021-05-24T07:57:38Z</time>
      </trkpt>
      <trkpt lat="42.8532600" lon="-8.5741540">
        <ele>215.4</ele>
        <time>2021-05-24T07:57:39Z</time>
      </trkpt>
      <trkpt lat="42.8532690" lon="-8.5741560">
        <ele>215.3</ele>
        <time>2021-05-24T07:57:40Z</time>
      </trkpt>
      <trkpt lat="42.8532840" lon="-8.5741610">
        <ele>215.2</ele>
        <time>2021-05-24T07:57:41Z</time>
      </trkpt>
      <trkpt lat="42.8533010" lon="-8.5741560">
        <ele>215.0</ele>
        <time>2021-05-24T07:57:42Z</time>
      </trkpt>
      <trkpt lat="42.8533150" lon="-8.5741600">
        <ele>214.9</ele>
        <time>2021-05-24T07:57:43Z</time>
      </trkpt>
      <trkpt lat="42.8533310" lon="-8.5741580">
        <ele>214.7</ele>
        <time>2021-05-24T07:57:44Z</time>
      </trkpt>
      <trkpt lat="42.8533450" lon="-8.5741600">
        <ele>214.6</ele>
        <time>2021-05-24T07:57:45Z</time>
      </trkpt>
      <trkpt lat="42.8533610" lon="-8.5741470">
        <ele>214.5</ele>
        <time>2021-05-24T07:57:46Z</time>
      </trkpt>
      <trkpt lat="42.8533770" lon="-8.5741520">
        <ele>214.3</ele>
        <time>2021-05-24T07:57:47Z</time>
      </trkpt>
      <trkpt lat="42.8533910" lon="-8.5741580">
        <ele>214.2</ele>
        <time>2021-05-24T07:57:48Z</time>
      </trkpt>
      <trkpt lat="42.8534050" lon="-8.5741590">
        <ele>214.1</ele>
        <time>2021-05-24T07:57:49Z</time>
      </trkpt>
      <trkpt lat="42.8534190" lon="-8.5741570">
        <ele>213.9</ele>
        <time>2021-05-24T07:57:50Z</time>
      </trkpt>
      <trkpt lat="42.8534340" lon="-8.5741580">
        <ele>213.8</ele>
        <time>2021-05-24T07:57:51Z</time>
      </trkpt>
      <trkpt lat="42.8534460" lon="-8.5741510">
        <ele>213.7</ele>
        <time>2021-05-24T07:57:52Z</time>
      </trkpt>
      <trkpt lat="42.8534590" lon="-8.5741500">
        <ele>213.6</ele>
        <time>2021-05-24T07:57:53Z</time>
      </trkpt>
      <trkpt lat="42.8534760" lon="-8.5741560">
        <ele>213.4</ele>
        <time>2021-05-24T07:57:54Z</time>
      </trkpt>
      <trkpt lat="42.8534970" lon="-8.5741570">
        <ele>213.2</ele>
        <time>2021-05-24T07:57:55Z</time>
      </trkpt>
      <trkpt lat="42.8535060" lon="-8.5741570">
        <ele>213.1</ele>
        <time>2021-05-24T07:57:56Z</time>
      </trkpt>
      <trkpt lat="42.8535150" lon="-8.5741560">
        <ele>213.0</ele>
        <time>2021-05-24T07:57:57Z</time>
      </trkpt>
      <trkpt lat="42.8535370" lon="-8.5741490">
        <ele>212.9</ele>
        <time>2021-05-24T07:57:58Z</time>
      </trkpt>
      <trkpt lat="42.8535450" lon="-8.5741510">
        <ele>212.8</ele>
        <time>2021-05-24T07:57:59Z</time>
      </trkpt>
      <trkpt lat="42.8535530" lon="-8.5741540">
        <ele>212.7</ele>
        <time>2021-05-24T07:58:00Z</time>
      </trkpt>
      <trkpt lat="42.8535680" lon="-8.5741460">
        <ele>212.6</ele>
        <time>2021-05-24T07:58:01Z</time>
      </trkpt>
      <trkpt lat="42.8535830" lon="-8.5741430">
        <ele>212.5</ele>
        <time>2021-05-24T07:58:02Z</time>
      </trkpt>
      <trkpt lat="42.8535990" lon="-8.5741420">
        <ele>212.4</ele>
        <time>2021-05-24T07:58:03Z</time>
      </trkpt>
      <trkpt lat="42.8536150" lon="-8.5741450">
        <ele>212.3</ele>
        <time>2021-05-24T07:58:04Z</time>
      </trkpt>
      <trkpt lat="42.8536370" lon="-8.5741430">
        <ele>212.1</ele>
        <time>2021-05-24T07:58:05Z</time>
      </trkpt>
      <trkpt lat="42.8536460" lon="-8.5741420">
        <ele>212.1</ele>
        <time>2021-05-24T07:58:06Z</time>
      </trkpt>
      <trkpt lat="42.8536550" lon="-8.5741410">
        <ele>212.0</ele>
        <time>2021-05-24T07:58:07Z</time>
      </trkpt>
      <trkpt lat="42.8536680" lon="-8.5741430">
        <ele>211.9</ele>
        <time>2021-05-24T07:58:08Z</time>
      </trkpt>
      <trkpt lat="42.8536830" lon="-8.5741430">
        <ele>211.9</ele>
        <time>2021-05-24T07:58:09Z</time>
      </trkpt>
      <trkpt lat="42.8536960" lon="-8.5741430">
        <ele>211.8</ele>
        <time>2021-05-24T07:58:10Z</time>
      </trkpt>
      <trkpt lat="42.8537120" lon="-8.5741390">
        <ele>211.7</ele>
        <time>2021-05-24T07:58:11Z</time>
      </trkpt>
      <trkpt lat="42.8537260" lon="-8.5741380">
        <ele>211.6</ele>
        <time>2021-05-24T07:58:12Z</time>
      </trkpt>
      <trkpt lat="42.8537410" lon="-8.5741420">
        <ele>211.6</ele>
        <time>2021-05-24T07:58:13Z</time>
      </trkpt>
      <trkpt lat="42.8537540" lon="-8.5741420">
        <ele>211.5</ele>
        <time>2021-05-24T07:58:14Z</time>
      </trkpt>
      <trkpt lat="42.8537670" lon="-8.5741430">
        <ele>211.5</ele>
        <time>2021-05-24T07:58:15Z</time>
      </trkpt>
      <trkpt lat="42.8537760" lon="-8.5741540">
        <ele>211.4</ele>
        <time>2021-05-24T07:58:16Z</time>
      </trkpt>
      <trkpt lat="42.8537950" lon="-8.5741580">
        <ele>211.3</ele>
        <time>2021-05-24T07:58:17Z</time>
      </trkpt>
      <trkpt lat="42.8538060" lon="-8.5741560">
        <ele>211.3</ele>
        <time>2021-05-24T07:58:18Z</time>
      </trkpt>
      <trkpt lat="42.8538160" lon="-8.5741540">
        <ele>211.3</ele>
        <time>2021-05-24T07:58:19Z</time>
      </trkpt>
      <trkpt lat="42.8538300" lon="-8.5741560">
        <ele>211.2</ele>
        <time>2021-05-24T07:58:20Z</time>
      </trkpt>
      <trkpt lat="42.8538440" lon="-8.5741600">
        <ele>211.2</ele>
        <time>2021-05-24T07:58:21Z</time>
      </trkpt>
      <trkpt lat="42.8538580" lon="-8.5741650">
        <ele>211.1</ele>
        <time>2021-05-24T07:58:22Z</time>
      </trkpt>
      <trkpt lat="42.8538730" lon="-8.5741570">
        <ele>211.1</ele>
        <time>2021-05-24T07:58:23Z</time>
      </trkpt>
      <trkpt lat="42.8538890" lon="-8.5741560">
        <ele>211.0</ele>
        <time>2021-05-24T07:58:24Z</time>
      </trkpt>
      <trkpt lat="42.8539030" lon="-8.5741630">
        <ele>211.0</ele>
        <time>2021-05-24T07:58:25Z</time>
      </trkpt>
      <trkpt lat="42.8539190" lon="-8.5741700">
        <ele>210.9</ele>
        <time>2021-05-24T07:58:26Z</time>
      </trkpt>
      <trkpt lat="42.8539330" lon="-8.5741680">
        <ele>210.9</ele>
        <time>2021-05-24T07:58:27Z</time>
      </trkpt>
      <trkpt lat="42.8539500" lon="-8.5741660">
        <ele>210.8</ele>
        <time>2021-05-24T07:58:28Z</time>
      </trkpt>
      <trkpt lat="42.8539630" lon="-8.5741650">
        <ele>210.8</ele>
        <time>2021-05-24T07:58:29Z</time>
      </trkpt>
      <trkpt lat="42.8539770" lon="-8.5741720">
        <ele>210.7</ele>
        <time>2021-05-24T07:58:30Z</time>
      </trkpt>
      <trkpt lat="42.8539910" lon="-8.5741840">
        <ele>210.7</ele>
        <time>2021-05-24T07:58:31Z</time>
      </trkpt>
      <trkpt lat="42.8540010" lon="-8.5741880">
        <ele>210.7</ele>
        <time>2021-05-24T07:58:32Z</time>
      </trkpt>
      <trkpt lat="42.8540130" lon="-8.5741850">
        <ele>210.6</ele>
        <time>2021-05-24T07:58:33Z</time>
      </trkpt>
      <trkpt lat="42.8540250" lon="-8.5741910">
        <ele>210.6</ele>
        <time>2021-05-24T07:58:34Z</time>
      </trkpt>
      <trkpt lat="42.8540390" lon="-8.5741960">
        <ele>210.5</ele>
        <time>2021-05-24T07:58:35Z</time>
      </trkpt>
      <trkpt lat="42.8540560" lon="-8.5741900">
        <ele>210.5</ele>
        <time>2021-05-24T07:58:36Z</time>
      </trkpt>
      <trkpt lat="42.8540720" lon="-8.5741870">
        <ele>210.4</ele>
        <time>2021-05-24T07:58:37Z</time>
      </trkpt>
      <trkpt lat="42.8540880" lon="-8.5741850">
        <ele>210.4</ele>
        <time>2021-05-24T07:58:38Z</time>
      </trkpt>
      <trkpt lat="42.8541040" lon="-8.5741810">
        <ele>210.3</ele>
        <time>2021-05-24T07:58:39Z</time>
      </trkpt>
      <trkpt lat="42.8541210" lon="-8.5741760">
        <ele>210.3</ele>
        <time>2021-05-24T07:58:40Z</time>
      </trkpt>
      <trkpt lat="42.8541360" lon="-8.5741700">
        <ele>210.2</ele>
        <time>2021-05-24T07:58:41Z</time>
      </trkpt>
      <trkpt lat="42.8541510" lon="-8.5741600">
        <ele>210.1</ele>
        <time>2021-05-24T07:58:42Z</time>
      </trkpt>
      <trkpt lat="42.8541650" lon="-8.5741530">
        <ele>210.1</ele>
        <time>2021-05-24T07:58:43Z</time>
      </trkpt>
      <trkpt lat="42.8541730" lon="-8.5741570">
        <ele>210.0</ele>
        <time>2021-05-24T07:58:44Z</time>
      </trkpt>
      <trkpt lat="42.8541800" lon="-8.5741620">
        <ele>210.0</ele>
        <time>2021-05-24T07:58:45Z</time>
      </trkpt>
      <trkpt lat="42.8541880" lon="-8.5741660">
        <ele>210.0</ele>
        <time>2021-05-24T07:58:46Z</time>
      </trkpt>
      <trkpt lat="42.8541950" lon="-8.5741720">
        <ele>209.9</ele>
        <time>2021-05-24T07:58:47Z</time>
      </trkpt>
      <trkpt lat="42.8542020" lon="-8.5741770">
        <ele>209.9</ele>
        <time>2021-05-24T07:58:48Z</time>
      </trkpt>
      <trkpt lat="42.8542100" lon="-8.5741760">
        <ele>209.8</ele>
        <time>2021-05-24T07:58:49Z</time>
      </trkpt>
      <trkpt lat="42.8542200" lon="-8.5741650">
        <ele>209.8</ele>
        <time>2021-05-24T07:58:50Z</time>
      </trkpt>
      <trkpt lat="42.8542240" lon="-8.5741560">
        <ele>209.7</ele>
        <time>2021-05-24T07:58:51Z</time>
      </trkpt>
      <trkpt lat="42.8542240" lon="-8.5741470">
        <ele>209.7</ele>
        <time>2021-05-24T07:58:52Z</time>
      </trkpt>
      <trkpt lat="42.8542280" lon="-8.5741440">
        <ele>209.7</ele>
        <time>2021-05-24T07:58:53Z</time>
      </trkpt>
      <trkpt lat="42.8542340" lon="-8.5741350">
        <ele>209.6</ele>
        <time>2021-05-24T07:58:54Z</time>
      </trkpt>
      <trkpt lat="42.8542410" lon="-8.5741270">
        <ele>209.6</ele>
        <time>2021-05-24T07:58:55Z</time>
      </trkpt>
      <trkpt lat="42.8542480" lon="-8.5741200">
        <ele>209.5</ele>
        <time>2021-05-24T07:58:56Z</time>
      </trkpt>
      <trkpt lat="42.8542560" lon="-8.5741120">
        <ele>209.5</ele>
        <time>2021-05-24T07:58:57Z</time>
      </trkpt>
      <trkpt lat="42.8542560" lon="-8.5740970">
        <ele>209.4</ele>
        <time>2021-05-24T07:58:58Z</time>
      </trkpt>
      <trkpt lat="42.8542600" lon="-8.5740900">
        <ele>209.4</ele>
        <time>2021-05-24T07:58:59Z</time>
      </trkpt>
      <trkpt lat="42.8542700" lon="-8.5740790">
        <ele>209.3</ele>
        <time>2021-05-24T07:59:00Z</time>
      </trkpt>
      <trkpt lat="42.8542720" lon="-8.5740730">
        <ele>209.2</ele>
        <time>2021-05-24T07:59:01Z</time>
      </trkpt>
      <trkpt lat="42.8542620" lon="-8.5740530">
        <ele>209.1</ele>
        <time>2021-05-24T07:59:02Z</time>
      </trkpt>
      <trkpt lat="42.8542560" lon="-8.5740270">
        <ele>209.0</ele>
        <time>2021-05-24T07:59:03Z</time>
      </trkpt>
      <trkpt lat="42.8542480" lon="-8.5740170">
        <ele>208.9</ele>
        <time>2021-05-24T07:59:04Z</time>
      </trkpt>
      <trkpt lat="42.8542400" lon="-8.5740060">
        <ele>208.8</ele>
        <time>2021-05-24T07:59:05Z</time>
      </trkpt>
      <trkpt lat="42.8542310" lon="-8.5739910">
        <ele>208.7</ele>
        <time>2021-05-24T07:59:06Z</time>
      </trkpt>
      <trkpt lat="42.8542200" lon="-8.5739740">
        <ele>208.6</ele>
        <time>2021-05-24T07:59:07Z</time>
      </trkpt>
      <trkpt lat="42.8542060" lon="-8.5739630">
        <ele>208.5</ele>
        <time>2021-05-24T07:59:08Z</time>
      </trkpt>
      <trkpt lat="42.8541970" lon="-8.5739450">
        <ele>208.4</ele>
        <time>2021-05-24T07:59:09Z</time>
      </trkpt>
      <trkpt lat="42.8541770" lon="-8.5739270">
        <ele>208.2</ele>
        <time>2021-05-24T07:59:10Z</time>
      </trkpt>
      <trkpt lat="42.8541680" lon="-8.5739210">
        <ele>208.2</ele>
        <time>2021-05-24T07:59:11Z</time>
      </trkpt>
      <trkpt lat="42.8541590" lon="-8.5739150">
        <ele>208.1</ele>
        <time>2021-05-24T07:59:12Z</time>
      </trkpt>
      <trkpt lat="42.8541500" lon="-8.5739090">
        <ele>208.0</ele>
        <time>2021-05-24T07:59:13Z</time>
      </trkpt>
      <trkpt lat="42.8541400" lon="-8.5739010">
        <ele>207.9</ele>
        <time>2021-05-24T07:59:14Z</time>
      </trkpt>
      <trkpt lat="42.8541310" lon="-8.5738950">
        <ele>207.9</ele>
        <time>2021-05-24T07:59:15Z</time>
      </trkpt>
      <trkpt lat="42.8541120" lon="-8.5738850">
        <ele>207.7</ele>
        <time>2021-05-24T07:59:16Z</time>
      </trkpt>
      <trkpt lat="42.8541040" lon="-8.5738790">
        <ele>207.6</ele>
        <time>2021-05-24T07:59:17Z</time>
      </trkpt>
      <trkpt lat="42.8540860" lon="-8.5738740">
        <ele>207.5</ele>
        <time>2021-05-24T07:59:18Z</time>
      </trkpt>
      <trkpt lat="42.8540760" lon="-8.5738690">
        <ele>207.4</ele>
        <time>2021-05-24T07:59:19Z</time>
      </trkpt>
      <trkpt lat="42.8540660" lon="-8.5738640">
        <ele>207.3</ele>
        <time>2021-05-24T07:59:20Z</time>
      </trkpt>
      <trkpt lat="42.8540490" lon="-8.5738500">
        <ele>207.1</ele>
        <time>2021-05-24T07:59:21Z</time>
      </trkpt>
      <trkpt lat="42.8540380" lon="-8.5738490">
        <ele>207.0</ele>
        <time>2021-05-24T07:59:22Z</time>
      </trkpt>
      <trkpt lat="42.8540160" lon="-8.5738380">
        <ele>206.8</ele>
        <time>2021-05-24T07:59:23Z</time>
      </trkpt>
      <trkpt lat="42.8540090" lon="-8.5738370">
        <ele>206.8</ele>
        <time>2021-05-24T07:59:24Z</time>
      </trkpt>
      <trkpt lat="42.8540010" lon="-8.5738360">
        <ele>206.7</ele>
        <time>2021-05-24T07:59:25Z</time>
      </trkpt>
      <trkpt lat="42.8539930" lon="-8.5738270">
        <ele>206.6</ele>
        <time>2021-05-24T07:59:26Z</time>
      </trkpt>
      <trkpt lat="42.8539780" lon="-8.5738240">
        <ele>206.5</ele>
        <time>2021-05-24T07:59:27Z</time>
      </trkpt>
      <trkpt lat="42.8539670" lon="-8.5738180">
        <ele>206.4</ele>
        <time>2021-05-24T07:59:28Z</time>
      </trkpt>
      <trkpt lat="42.8539510" lon="-8.5738120">
        <ele>206.3</ele>
        <time>2021-05-24T07:59:29Z</time>
      </trkpt>
      <trkpt lat="42.8539410" lon="-8.5738020">
        <ele>206.2</ele>
        <time>2021-05-24T07:59:30Z</time>
      </trkpt>
      <trkpt lat="42.8539290" lon="-8.5738020">
        <ele>206.1</ele>
        <time>2021-05-24T07:59:31Z</time>
      </trkpt>
      <trkpt lat="42.8539090" lon="-8.5737950">
        <ele>205.9</ele>
        <time>2021-05-24T07:59:32Z</time>
      </trkpt>
      <trkpt lat="42.8538880" lon="-8.5737840">
        <ele>205.7</ele>
        <time>2021-05-24T07:59:33Z</time>
      </trkpt>
      <trkpt lat="42.8538810" lon="-8.5737810">
        <ele>205.7</ele>
        <time>2021-05-24T07:59:34Z</time>
      </trkpt>
      <trkpt lat="42.8538730" lon="-8.5737780">
        <ele>205.6</ele>
        <time>2021-05-24T07:59:35Z</time>
      </trkpt>
      <trkpt lat="42.8538570" lon="-8.5737700">
        <ele>205.5</ele>
        <time>2021-05-24T07:59:36Z</time>
      </trkpt>
      <trkpt lat="42.8538450" lon="-8.5737610">
        <ele>205.4</ele>
        <time>2021-05-24T07:59:37Z</time>
      </trkpt>
      <trkpt lat="42.8538290" lon="-8.5737530">
        <ele>205.2</ele>
        <time>2021-05-24T07:59:38Z</time>
      </trkpt>
      <trkpt lat="42.8538120" lon="-8.5737480">
        <ele>205.1</ele>
        <time>2021-05-24T07:59:39Z</time>
      </trkpt>
      <trkpt lat="42.8537960" lon="-8.5737440">
        <ele>205.0</ele>
        <time>2021-05-24T07:59:40Z</time>
      </trkpt>
      <trkpt lat="42.8537780" lon="-8.5737410">
        <ele>204.9</ele>
        <time>2021-05-24T07:59:41Z</time>
      </trkpt>
      <trkpt lat="42.8537610" lon="-8.5737370">
        <ele>204.8</ele>
        <time>2021-05-24T07:59:42Z</time>
      </trkpt>
      <trkpt lat="42.8537470" lon="-8.5737250">
        <ele>204.7</ele>
        <time>2021-05-24T07:59:43Z</time>
      </trkpt>
      <trkpt lat="42.8537340" lon="-8.5737170">
        <ele>204.6</ele>
        <time>2021-05-24T07:59:44Z</time>
      </trkpt>
      <trkpt lat="42.8537220" lon="-8.5737090">
        <ele>204.5</ele>
        <time>2021-05-24T07:59:45Z</time>
      </trkpt>
      <trkpt lat="42.8537090" lon="-8.5737020">
        <ele>204.4</ele>
        <time>2021-05-24T07:59:46Z</time>
      </trkpt>
      <trkpt lat="42.8536960" lon="-8.5736970">
        <ele>204.3</ele>
        <time>2021-05-24T07:59:47Z</time>
      </trkpt>
      <trkpt lat="42.8536830" lon="-8.5736880">
        <ele>204.2</ele>
        <time>2021-05-24T07:59:48Z</time>
      </trkpt>
      <trkpt lat="42.8536700" lon="-8.5736780">
        <ele>204.1</ele>
        <time>2021-05-24T07:59:49Z</time>
      </trkpt>
      <trkpt lat="42.8536580" lon="-8.5736700">
        <ele>204.1</ele>
        <time>2021-05-24T07:59:50Z</time>
      </trkpt>
      <trkpt lat="42.8536440" lon="-8.5736670">
        <ele>204.0</ele>
        <time>2021-05-24T07:59:51Z</time>
      </trkpt>
      <trkpt lat="42.8536230" lon="-8.5736610">
        <ele>203.9</ele>
        <time>2021-05-24T07:59:52Z</time>
      </trkpt>
      <trkpt lat="42.8536150" lon="-8.5736570">
        <ele>203.8</ele>
        <time>2021-05-24T07:59:53Z</time>
      </trkpt>
      <trkpt lat="42.8536060" lon="-8.5736530">
        <ele>203.8</ele>
        <time>2021-05-24T07:59:54Z</time>
      </trkpt>
      <trkpt lat="42.8535920" lon="-8.5736450">
        <ele>203.7</ele>
        <time>2021-05-24T07:59:55Z</time>
      </trkpt>
      <trkpt lat="42.8535800" lon="-8.5736370">
        <ele>203.6</ele>
        <time>2021-05-24T07:59:56Z</time>
      </trkpt>
      <trkpt lat="42.8535650" lon="-8.5736350">
        <ele>203.5</ele>
        <time>2021-05-24T07:59:57Z</time>
      </trkpt>
      <trkpt lat="42.8535520" lon="-8.5736260">
        <ele>203.4</ele>
        <time>2021-05-24T07:59:58Z</time>
      </trkpt>
      <trkpt lat="42.8535310" lon="-8.5736130">
        <ele>203.3</ele>
        <time>2021-05-24T07:59:59Z</time>
      </trkpt>
      <trkpt lat="42.8535240" lon="-8.5736100">
        <ele>203.3</ele>
        <time>2021-05-24T08:00:00Z</time>
      </trkpt>
      <trkpt lat="42.8535160" lon="-8.5736070">
        <ele>203.2</ele>
        <time>2021-05-24T08:00:01Z</time>
      </trkpt>
      <trkpt lat="42.8535110" lon="-8.5736030">
        <ele>203.2</ele>
        <time>2021-05-24T08:00:02Z</time>
      </trkpt>
      <trkpt lat="42.8535030" lon="-8.5735960">
        <ele>203.1</ele>
        <time>2021-05-24T08:00:03Z</time>
      </trkpt>
      <trkpt lat="42.8534840" lon="-8.5735860">
        <ele>203.0</ele>
        <time>2021-05-24T08:00:04Z</time>
      </trkpt>
      <trkpt lat="42.8534660" lon="-8.5735710">
        <ele>202.9</ele>
        <time>2021-05-24T08:00:05Z</time>
      </trkpt>
      <trkpt lat="42.8534560" lon="-8.5735660">
        <ele>202.8</ele>
        <time>2021-05-24T08:00:06Z</time>
      </trkpt>
      <trkpt lat="42.8534470" lon="-8.5735610">
        <ele>202.8</ele>
        <time>2021-05-24T08:00:07Z</time>
      </trkpt>
      <trkpt lat="42.8534270" lon="-8.5735460">
        <ele>202.6</ele>
        <time>2021-05-24T08:00:08Z</time>
      </trkpt>
      <trkpt lat="42.8534180" lon="-8.5735440">
        <ele>202.6</ele>
        <time>2021-05-24T08:00:09Z</time>
      </trkpt>
      <trkpt lat="42.8534080" lon="-8.5735420">
        <ele>202.5</ele>
        <time>2021-05-24T08:00:10Z</time>
      </trkpt>
      <trkpt lat="42.8533970" lon="-8.5735340">
        <ele>202.5</ele>
        <time>2021-05-24T08:00:11Z</time>
      </trkpt>
      <trkpt lat="42.8533850" lon="-8.5735220">
        <ele>202.4</ele>
        <time>2021-05-24T08:00:12Z</time>
      </trkpt>
      <trkpt lat="42.8533730" lon="-8.5735080">
        <ele>202.3</ele>
        <time>2021-05-24T08:00:13Z</time>
      </trkpt>
      <trkpt lat="42.8533620" lon="-8.5735050">
        <ele>202.2</ele>
        <time>2021-05-24T08:00:14Z</time>
      </trkpt>
      <trkpt lat="42.8533550" lon="-8.5735000">
        <ele>202.2</ele>
        <time>2021-05-24T08:00:15Z</time>
      </trkpt>
      <trkpt lat="42.8533460" lon="-8.5734980">
        <ele>202.1</ele>
        <time>2021-05-24T08:00:16Z</time>
      </trkpt>
      <trkpt lat="42.8533350" lon="-8.5734920">
        <ele>202.1</ele>
        <time>2021-05-24T08:00:17Z</time>
      </trkpt>
      <trkpt lat="42.8533220" lon="-8.5734820">
        <ele>202.0</ele>
        <time>2021-05-24T08:00:18Z</time>
      </trkpt>
      <trkpt lat="42.8533090" lon="-8.5734720">
        <ele>201.9</ele>
        <time>2021-05-24T08:00:19Z</time>
      </trkpt>
      <trkpt lat="42.8533030" lon="-8.5734700">
        <ele>201.9</ele>
        <time>2021-05-24T08:00:20Z</time>
      </trkpt>
      <trkpt lat="42.8532970" lon="-8.5734560">
        <ele>201.8</ele>
        <time>2021-05-24T08:00:21Z</time>
      </trkpt>
      <trkpt lat="42.8532760" lon="-8.5734370">
        <ele>201.7</ele>
        <time>2021-05-24T08:00:22Z</time>
      </trkpt>
      <trkpt lat="42.8532710" lon="-8.5734300">
        <ele>201.7</ele>
        <time>2021-05-24T08:00:23Z</time>
      </trkpt>
      <trkpt lat="42.8532650" lon="-8.5734230">
        <ele>201.6</ele>
        <time>2021-05-24T08:00:24Z</time>
      </trkpt>
      <trkpt lat="42.8532500" lon="-8.5734080">
        <ele>201.6</ele>
        <time>2021-05-24T08:00:25Z</time>
      </trkpt>
      <trkpt lat="42.8532370" lon="-8.5734090">
        <ele>201.5</ele>
        <time>2021-05-24T08:00:26Z</time>
      </trkpt>
      <trkpt lat="42.8532170" lon="-8.5733920">
        <ele>201.4</ele>
        <time>2021-05-24T08:00:27Z</time>
      </trkpt>
      <trkpt lat="42.8532100" lon="-8.5733850">
        <ele>201.4</ele>
        <time>2021-05-24T08:00:28Z</time>
      </trkpt>
      <trkpt lat="42.8532020" lon="-8.5733770">
        <ele>201.3</ele>
        <time>2021-05-24T08:00:29Z</time>
      </trkpt>
      <trkpt lat="42.8531900" lon="-8.5733620">
        <ele>201.3</ele>
        <time>2021-05-24T08:00:30Z</time>
      </trkpt>
      <trkpt lat="42.8531780" lon="-8.5733540">
        <ele>201.2</ele>
        <time>2021-05-24T08:00:31Z</time>
      </trkpt>
      <trkpt lat="42.8531680" lon="-8.5733310">
        <ele>201.2</ele>
        <time>2021-05-24T08:00:32Z</time>
      </trkpt>
      <trkpt lat="42.8531630" lon="-8.5733190">
        <ele>201.1</ele>
        <time>2021-05-24T08:00:33Z</time>
      </trkpt>
      <trkpt lat="42.8531590" lon="-8.5733070">
        <ele>201.1</ele>
        <time>2021-05-24T08:00:34Z</time>
      </trkpt>
      <trkpt lat="42.8531510" lon="-8.5732880">
        <ele>201.0</ele>
        <time>2021-05-24T08:00:35Z</time>
      </trkpt>
      <trkpt lat="42.8531470" lon="-8.5732700">
        <ele>201.0</ele>
        <time>2021-05-24T08:00:36Z</time>
      </trkpt>
      <trkpt lat="42.8531380" lon="-8.5732500">
        <ele>201.0</ele>
        <time>2021-05-24T08:00:37Z</time>
      </trkpt>
      <trkpt lat="42.8531420" lon="-8.5732260">
        <ele>200.9</ele>
        <time>2021-05-24T08:00:38Z</time>
      </trkpt>
      <trkpt lat="42.8531380" lon="-8.5732070">
        <ele>200.9</ele>
        <time>2021-05-24T08:00:39Z</time>
      </trkpt>
      <trkpt lat="42.8531420" lon="-8.5731840">
        <ele>200.8</ele>
        <time>2021-05-24T08:00:40Z</time>
      </trkpt>
      <trkpt lat="42.8531450" lon="-8.5731550">
        <ele>200.5</ele>
        <time>2021-05-24T08:00:41Z</time>
      </trkpt>
      <trkpt lat="42.8531470" lon="-8.5731430">
        <ele>200.5</ele>
        <time>2021-05-24T08:00:42Z</time>
      </trkpt>
      <trkpt lat="42.8531500" lon="-8.5731310">
        <ele>200.5</ele>
        <time>2021-05-24T08:00:43Z</time>
      </trkpt>
      <trkpt lat="42.8531610" lon="-8.5731060">
        <ele>200.5</ele>
        <time>2021-05-24T08:00:44Z</time>
      </trkpt>
      <trkpt lat="42.8531670" lon="-8.5730960">
        <ele>200.5</ele>
        <time>2021-05-24T08:00:45Z</time>
      </trkpt>
      <trkpt lat="42.8531730" lon="-8.5730870">
        <ele>200.4</ele>
        <time>2021-05-24T08:00:46Z</time>
      </trkpt>
      <trkpt lat="42.8531810" lon="-8.5730760">
        <ele>200.4</ele>
        <time>2021-05-24T08:00:47Z</time>
      </trkpt>
      <trkpt lat="42.8531850" lon="-8.5730570">
        <ele>200.4</ele>
        <time>2021-05-24T08:00:48Z</time>
      </trkpt>
      <trkpt lat="42.8531880" lon="-8.5730410">
        <ele>200.4</ele>
        <time>2021-05-24T08:00:49Z</time>
      </trkpt>
      <trkpt lat="42.8531860" lon="-8.5730280">
        <ele>200.4</ele>
        <time>2021-05-24T08:00:50Z</time>
      </trkpt>
      <trkpt lat="42.8531920" lon="-8.5730110">
        <ele>200.4</ele>
        <time>2021-05-24T08:00:51Z</time>
      </trkpt>
      <trkpt lat="42.8531970" lon="-8.5729990">
        <ele>200.4</ele>
        <time>2021-05-24T08:00:52Z</time>
      </trkpt>
      <trkpt lat="42.8532110" lon="-8.5729760">
        <ele>200.4</ele>
        <time>2021-05-24T08:00:53Z</time>
      </trkpt>
      <trkpt lat="42.8532190" lon="-8.5729670">
        <ele>200.3</ele>
        <time>2021-05-24T08:00:54Z</time>
      </trkpt>
      <trkpt lat="42.8532260" lon="-8.5729570">
        <ele>200.3</ele>
        <time>2021-05-24T08:00:55Z</time>
      </trkpt>
      <trkpt lat="42.8532440" lon="-8.5729400">
        <ele>200.3</ele>
        <time>2021-05-24T08:00:56Z</time>
      </trkpt>
      <trkpt lat="42.8532510" lon="-8.5729350">
        <ele>200.3</ele>
        <time>2021-05-24T08:00:57Z</time>
      </trkpt>
      <trkpt lat="42.8532580" lon="-8.5729300">
        <ele>200.3</ele>
        <time>2021-05-24T08:00:58Z</time>
      </trkpt>
      <trkpt lat="42.8532860" lon="-8.5729260">
        <ele>200.3</ele>
        <time>2021-05-24T08:00:59Z</time>
      </trkpt>
      <trkpt lat="42.8533020" lon="-8.5729180">
        <ele>200.3</ele>
        <time>2021-05-24T08:01:00Z</time>
      </trkpt>
      <trkpt lat="42.8533170" lon="-8.5729180">
        <ele>200.3</ele>
        <time>2021-05-24T08:01:01Z</time>
      </trkpt>
      <trkpt lat="42.8533280" lon="-8.5729140">
        <ele>200.3</ele>
        <time>2021-05-24T08:01:02Z</time>
      </trkpt>
      <trkpt lat="42.8533330" lon="-8.5729020">
        <ele>200.3</ele>
        <time>2021-05-24T08:01:03Z</time>
      </trkpt>
      <trkpt lat="42.8533480" lon="-8.5729060">
        <ele>200.2</ele>
        <time>2021-05-24T08:01:04Z</time>
      </trkpt>
      <trkpt lat="42.8533680" lon="-8.5729050">
        <ele>200.2</ele>
        <time>2021-05-24T08:01:05Z</time>
      </trkpt>
      <trkpt lat="42.8533830" lon="-8.5729000">
        <ele>200.2</ele>
        <time>2021-05-24T08:01:06Z</time>
      </trkpt>
      <trkpt lat="42.8533970" lon="-8.5728950">
        <ele>200.2</ele>
        <time>2021-05-24T08:01:07Z</time>
      </trkpt>
      <trkpt lat="42.8534110" lon="-8.5728890">
        <ele>200.2</ele>
        <time>2021-05-24T08:01:08Z</time>
      </trkpt>
      <trkpt lat="42.8534250" lon="-8.5728870">
        <ele>200.2</ele>
        <time>2021-05-24T08:01:09Z</time>
      </trkpt>
      <trkpt lat="42.8534410" lon="-8.5728770">
        <ele>200.2</ele>
        <time>2021-05-24T08:01:10Z</time>
      </trkpt>
      <trkpt lat="42.8534710" lon="-8.5728790">
        <ele>200.2</ele>
        <time>2021-05-24T08:01:11Z</time>
      </trkpt>
      <trkpt lat="42.8534800" lon="-8.5728760">
        <ele>200.1</ele>
        <time>2021-05-24T08:01:12Z</time>
      </trkpt>
      <trkpt lat="42.8534950" lon="-8.5728670">
        <ele>200.1</ele>
        <time>2021-05-24T08:01:13Z</time>
      </trkpt>
      <trkpt lat="42.8535070" lon="-8.5728630">
        <ele>200.1</ele>
        <time>2021-05-24T08:01:14Z</time>
      </trkpt>
      <trkpt lat="42.8535190" lon="-8.5728690">
        <ele>200.1</ele>
        <time>2021-05-24T08:01:15Z</time>
      </trkpt>
      <trkpt lat="42.8535390" lon="-8.5728710">
        <ele>200.1</ele>
        <time>2021-05-24T08:01:16Z</time>
      </trkpt>
      <trkpt lat="42.8535590" lon="-8.5728670">
        <ele>200.1</ele>
        <time>2021-05-24T08:01:17Z</time>
      </trkpt>
      <trkpt lat="42.8535690" lon="-8.5728650">
        <ele>200.1</ele>
        <time>2021-05-24T08:01:18Z</time>
      </trkpt>
      <trkpt lat="42.8535780" lon="-8.5728640">
        <ele>200.0</ele>
        <time>2021-05-24T08:01:19Z</time>
      </trkpt>
      <trkpt lat="42.8535950" lon="-8.5728620">
        <ele>200.0</ele>
        <time>2021-05-24T08:01:20Z</time>
      </trkpt>
      <trkpt lat="42.8536070" lon="-8.5728530">
        <ele>200.0</ele>
        <time>2021-05-24T08:01:21Z</time>
      </trkpt>
      <trkpt lat="42.8536250" lon="-8.5728460">
        <ele>200.0</ele>
        <time>2021-05-24T08:01:22Z</time>
      </trkpt>
      <trkpt lat="42.8536400" lon="-8.5728320">
        <ele>200.0</ele>
        <time>2021-05-24T08:01:23Z</time>
      </trkpt>
      <trkpt lat="42.8536650" lon="-8.5728270">
        <ele>199.9</ele>
        <time>2021-05-24T08:01:24Z</time>
      </trkpt>
      <trkpt lat="42.8536700" lon="-8.5728170">
        <ele>199.9</ele>
        <time>2021-05-24T08:01:25Z</time>
      </trkpt>
      <trkpt lat="42.8536850" lon="-8.5728090">
        <ele>199.9</ele>
        <time>2021-05-24T08:01:26Z</time>
      </trkpt>
      <trkpt lat="42.8537020" lon="-8.5728110">
        <ele>199.9</ele>
        <time>2021-05-24T08:01:27Z</time>
      </trkpt>
      <trkpt lat="42.8537180" lon="-8.5728080">
        <ele>199.8</ele>
        <time>2021-05-24T08:01:28Z</time>
      </trkpt>
      <trkpt lat="42.8537330" lon="-8.5728010">
        <ele>199.8</ele>
        <time>2021-05-24T08:01:29Z</time>
      </trkpt>
      <trkpt lat="42.8537470" lon="-8.5727910">
        <ele>199.8</ele>
        <time>2021-05-24T08:01:30Z</time>
      </trkpt>
      <trkpt lat="42.8537620" lon="-8.5727970">
        <ele>199.8</ele>
        <time>2021-05-24T08:01:31Z</time>
      </trkpt>
      <trkpt lat="42.8537760" lon="-8.5727930">
        <ele>199.7</ele>
        <time>2021-05-24T08:01:32Z</time>
      </trkpt>
      <trkpt lat="42.8537920" lon="-8.5727970">
        <ele>199.7</ele>
        <time>2021-05-24T08:01:33Z</time>
      </trkpt>
      <trkpt lat="42.8538040" lon="-8.5727990">
        <ele>199.7</ele>
        <time>2021-05-24T08:01:34Z</time>
      </trkpt>
      <trkpt lat="42.8538100" lon="-8.5728020">
        <ele>199.7</ele>
        <time>2021-05-24T08:01:35Z</time>
      </trkpt>
      <trkpt lat="42.8538200" lon="-8.5728140">
        <ele>199.6</ele>
        <time>2021-05-24T08:01:36Z</time>
      </trkpt>
      <trkpt lat="42.8538310" lon="-8.5728140">
        <ele>199.6</ele>
        <time>2021-05-24T08:01:37Z</time>
      </trkpt>
      <trkpt lat="42.8538380" lon="-8.5728150">
        <ele>199.6</ele>
        <time>2021-05-24T08:01:38Z</time>
      </trkpt>
      <trkpt lat="42.8538520" lon="-8.5728180">
        <ele>199.5</ele>
        <time>2021-05-24T08:01:39Z</time>
      </trkpt>
      <trkpt lat="42.8538730" lon="-8.5728300">
        <ele>199.5</ele>
        <time>2021-05-24T08:01:40Z</time>
      </trkpt>
      <trkpt lat="42.8538790" lon="-8.5728350">
        <ele>199.5</ele>
        <time>2021-05-24T08:01:41Z</time>
      </trkpt>
      <trkpt lat="42.8538860" lon="-8.5728390">
        <ele>199.4</ele>
        <time>2021-05-24T08:01:42Z</time>
      </trkpt>
      <trkpt lat="42.8538990" lon="-8.5728530">
        <ele>199.4</ele>
        <time>2021-05-24T08:01:43Z</time>
      </trkpt>
      <trkpt lat="42.8539130" lon="-8.5728630">
        <ele>199.3</ele>
        <time>2021-05-24T08:01:44Z</time>
      </trkpt>
      <trkpt lat="42.8539280" lon="-8.5728780">
        <ele>199.3</ele>
        <time>2021-05-24T08:01:45Z</time>
      </trkpt>
      <trkpt lat="42.8539360" lon="-8.5728850">
        <ele>199.2</ele>
        <time>2021-05-24T08:01:46Z</time>
      </trkpt>
      <trkpt lat="42.8539440" lon="-8.5728920">
        <ele>199.2</ele>
        <time>2021-05-24T08:01:47Z</time>
      </trkpt>
      <trkpt lat="42.8539540" lon="-8.5728930">
        <ele>199.2</ele>
        <time>2021-05-24T08:01:48Z</time>
      </trkpt>
      <trkpt lat="42.8539610" lon="-8.5729020">
        <ele>199.1</ele>
        <time>2021-05-24T08:01:49Z</time>
      </trkpt>
      <trkpt lat="42.8539710" lon="-8.5729090">
        <ele>199.1</ele>
        <time>2021-05-24T08:01:50Z</time>
      </trkpt>
      <trkpt lat="42.8539840" lon="-8.5729130">
        <ele>199.1</ele>
        <time>2021-05-24T08:01:51Z</time>
      </trkpt>
      <trkpt lat="42.8539930" lon="-8.5729200">
        <ele>199.0</ele>
        <time>2021-05-24T08:01:52Z</time>
      </trkpt>
      <trkpt lat="42.8539980" lon="-8.5729270">
        <ele>199.0</ele>
        <time>2021-05-24T08:01:53Z</time>
      </trkpt>
      <trkpt lat="42.8540120" lon="-8.5729360">
        <ele>198.9</ele>
        <time>2021-05-24T08:01:54Z</time>
      </trkpt>
      <trkpt lat="42.8540220" lon="-8.5729440">
        <ele>198.9</ele>
        <time>2021-05-24T08:01:55Z</time>
      </trkpt>
      <trkpt lat="42.8540330" lon="-8.5729500">
        <ele>198.9</ele>
        <time>2021-05-24T08:01:56Z</time>
      </trkpt>
      <trkpt lat="42.8540490" lon="-8.5729530">
        <ele>198.8</ele>
        <time>2021-05-24T08:01:57Z</time>
      </trkpt>
      <trkpt lat="42.8540700" lon="-8.5729640">
        <ele>198.7</ele>
        <time>2021-05-24T08:01:58Z</time>
      </trkpt>
      <trkpt lat="42.8540780" lon="-8.5729670">
        <ele>198.7</ele>
        <time>2021-05-24T08:01:59Z</time>
      </trkpt>
      <trkpt lat="42.8540860" lon="-8.5729700">
        <ele>198.7</ele>
        <time>2021-05-24T08:02:00Z</time>
      </trkpt>
      <trkpt lat="42.8540960" lon="-8.5729830">
        <ele>198.6</ele>
        <time>2021-05-24T08:02:01Z</time>
      </trkpt>
      <trkpt lat="42.8541140" lon="-8.5729930">
        <ele>198.5</ele>
        <time>2021-05-24T08:02:02Z</time>
      </trkpt>
      <trkpt lat="42.8541220" lon="-8.5729970">
        <ele>198.5</ele>
        <time>2021-05-24T08:02:03Z</time>
      </trkpt>
      <trkpt lat="42.8541290" lon="-8.5730030">
        <ele>198.5</ele>
        <time>2021-05-24T08:02:04Z</time>
      </trkpt>
      <trkpt lat="42.8541440" lon="-8.5730100">
        <ele>198.4</ele>
        <time>2021-05-24T08:02:05Z</time>
      </trkpt>
      <trkpt lat="42.8541530" lon="-8.5730170">
        <ele>198.4</ele>
        <time>2021-05-24T08:02:06Z</time>
      </trkpt>
      <trkpt lat="42.8541650" lon="-8.5730260">
        <ele>198.3</ele>
        <time>2021-05-24T08:02:07Z</time>
      </trkpt>
      <trkpt lat="42.8541760" lon="-8.5730230">
        <ele>198.3</ele>
        <time>2021-05-24T08:02:08Z</time>
      </trkpt>
      <trkpt lat="42.8541980" lon="-8.5730200">
        <ele>198.2</ele>
        <time>2021-05-24T08:02:09Z</time>
      </trkpt>
      <trkpt lat="42.8542070" lon="-8.5730250">
        <ele>198.2</ele>
        <time>2021-05-24T08:02:10Z</time>
      </trkpt>
      <trkpt lat="42.8542230" lon="-8.5730250">
        <ele>198.1</ele>
        <time>2021-05-24T08:02:11Z</time>
      </trkpt>
      <trkpt lat="42.8542370" lon="-8.5730300">
        <ele>198.1</ele>
        <time>2021-05-24T08:02:12Z</time>
      </trkpt>
      <trkpt lat="42.8542490" lon="-8.5730230">
        <ele>198.0</ele>
        <time>2021-05-24T08:02:13Z</time>
      </trkpt>
      <trkpt lat="42.8542560" lon="-8.5730320">
        <ele>198.0</ele>
        <time>2021-05-24T08:02:14Z</time>
      </trkpt>
      <trkpt lat="42.8542700" lon="-8.5730230">
        <ele>197.9</ele>
        <time>2021-05-24T08:02:15Z</time>
      </trkpt>
      <trkpt lat="42.8542910" lon="-8.5730240">
        <ele>197.9</ele>
        <time>2021-05-24T08:02:16Z</time>
      </trkpt>
      <trkpt lat="42.8542990" lon="-8.5730220">
        <ele>197.8</ele>
        <time>2021-05-24T08:02:17Z</time>
      </trkpt>
      <trkpt lat="42.8543070" lon="-8.5730210">
        <ele>197.8</ele>
        <time>2021-05-24T08:02:18Z</time>
      </trkpt>
      <trkpt lat="42.8543220" lon="-8.5730130">
        <ele>197.8</ele>
        <time>2021-05-24T08:02:19Z</time>
      </trkpt>
      <trkpt lat="42.8543400" lon="-8.5730080">
        <ele>197.7</ele>
        <time>2021-05-24T08:02:20Z</time>
      </trkpt>
      <trkpt lat="42.8543610" lon="-8.5730040">
        <ele>197.7</ele>
        <time>2021-05-24T08:02:21Z</time>
      </trkpt>
      <trkpt lat="42.8543750" lon="-8.5730000">
        <ele>197.7</ele>
        <time>2021-05-24T08:02:22Z</time>
      </trkpt>
      <trkpt lat="42.8543880" lon="-8.5729960">
        <ele>197.6</ele>
        <time>2021-05-24T08:02:23Z</time>
      </trkpt>
      <trkpt lat="42.8544160" lon="-8.5729890">
        <ele>197.6</ele>
        <time>2021-05-24T08:02:24Z</time>
      </trkpt>
      <trkpt lat="42.8544260" lon="-8.5729880">
        <ele>197.5</ele>
        <time>2021-05-24T08:02:25Z</time>
      </trkpt>
      <trkpt lat="42.8544420" lon="-8.5729850">
        <ele>197.5</ele>
        <time>2021-05-24T08:02:26Z</time>
      </trkpt>
      <trkpt lat="42.8544600" lon="-8.5729820">
        <ele>197.5</ele>
        <time>2021-05-24T08:02:27Z</time>
      </trkpt>
      <trkpt lat="42.8544770" lon="-8.5729720">
        <ele>197.4</ele>
        <time>2021-05-24T08:02:28Z</time>
      </trkpt>
      <trkpt lat="42.8544940" lon="-8.5729710">
        <ele>197.4</ele>
        <time>2021-05-24T08:02:29Z</time>
      </trkpt>
      <trkpt lat="42.8545100" lon="-8.5729730">
        <ele>197.3</ele>
        <time>2021-05-24T08:02:30Z</time>
      </trkpt>
      <trkpt lat="42.8545260" lon="-8.5729730">
        <ele>197.3</ele>
        <time>2021-05-24T08:02:31Z</time>
      </trkpt>
      <trkpt lat="42.8545400" lon="-8.5729670">
        <ele>197.3</ele>
        <time>2021-05-24T08:02:32Z</time>
      </trkpt>
      <trkpt lat="42.8545530" lon="-8.5729650">
        <ele>197.3</ele>
        <time>2021-05-24T08:02:33Z</time>
      </trkpt>
      <trkpt lat="42.8545750" lon="-8.5729650">
        <ele>197.2</ele>
        <time>2021-05-24T08:02:34Z</time>
      </trkpt>
      <trkpt lat="42.8545830" lon="-8.5729630">
        <ele>197.2</ele>
        <time>2021-05-24T08:02:35Z</time>
      </trkpt>
      <trkpt lat="42.8545910" lon="-8.5729620">
        <ele>197.2</ele>
        <time>2021-05-24T08:02:36Z</time>
      </trkpt>
      <trkpt lat="42.8546120" lon="-8.5729480">
        <ele>197.1</ele>
        <time>2021-05-24T08:02:37Z</time>
      </trkpt>
      <trkpt lat="42.8546220" lon="-8.5729430">
        <ele>197.1</ele>
        <time>2021-05-24T08:02:38Z</time>
      </trkpt>
      <trkpt lat="42.8546320" lon="-8.5729370">
        <ele>197.1</ele>
        <time>2021-05-24T08:02:39Z</time>
      </trkpt>
      <trkpt lat="42.8546460" lon="-8.5729310">
        <ele>197.1</ele>
        <time>2021-05-24T08:02:40Z</time>
      </trkpt>
      <trkpt lat="42.8546600" lon="-8.5729230">
        <ele>197.0</ele>
        <time>2021-05-24T08:02:41Z</time>
      </trkpt>
      <trkpt lat="42.8546760" lon="-8.5729200">
        <ele>197.0</ele>
        <time>2021-05-24T08:02:42Z</time>
      </trkpt>
      <trkpt lat="42.8546910" lon="-8.5729150">
        <ele>197.0</ele>
        <time>2021-05-24T08:02:43Z</time>
      </trkpt>
      <trkpt lat="42.8547080" lon="-8.5729160">
        <ele>197.0</ele>
        <time>2021-05-24T08:02:44Z</time>
      </trkpt>
      <trkpt lat="42.8547230" lon="-8.5729040">
        <ele>196.9</ele>
        <time>2021-05-24T08:02:45Z</time>
      </trkpt>
      <trkpt lat="42.8547410" lon="-8.5729110">
        <ele>196.9</ele>
        <time>2021-05-24T08:02:46Z</time>
      </trkpt>
      <trkpt lat="42.8547550" lon="-8.5729250">
        <ele>196.9</ele>
        <time>2021-05-24T08:02:47Z</time>
      </trkpt>
      <trkpt lat="42.8547740" lon="-8.5729150">
        <ele>196.8</ele>
        <time>2021-05-24T08:02:48Z</time>
      </trkpt>
      <trkpt lat="42.8547830" lon="-8.5729090">
        <ele>196.8</ele>
        <time>2021-05-24T08:02:49Z</time>
      </trkpt>
      <trkpt lat="42.8547910" lon="-8.5729020">
        <ele>196.8</ele>
        <time>2021-05-24T08:02:50Z</time>
      </trkpt>
      <trkpt lat="42.8548020" lon="-8.5728940">
        <ele>196.8</ele>
        <time>2021-05-24T08:02:51Z</time>
      </trkpt>
      <trkpt lat="42.8548180" lon="-8.5728910">
        <ele>196.8</ele>
        <time>2021-05-24T08:02:52Z</time>
      </trkpt>
      <trkpt lat="42.8548350" lon="-8.5728870">
        <ele>196.7</ele>
        <time>2021-05-24T08:02:53Z</time>
      </trkpt>
      <trkpt lat="42.8548490" lon="-8.5728840">
        <ele>196.7</ele>
        <time>2021-05-24T08:02:54Z</time>
      </trkpt>
      <trkpt lat="42.8548640" lon="-8.5728760">
        <ele>196.7</ele>
        <time>2021-05-24T08:02:55Z</time>
      </trkpt>
      <trkpt lat="42.8548800" lon="-8.5728690">
        <ele>196.7</ele>
        <time>2021-05-24T08:02:56Z</time>
      </trkpt>
      <trkpt lat="42.8548920" lon="-8.5728670">
        <ele>196.6</ele>
        <time>2021-05-24T08:02:57Z</time>
      </trkpt>
      <trkpt lat="42.8549070" lon="-8.5728640">
        <ele>196.6</ele>
        <time>2021-05-24T08:02:58Z</time>
      </trkpt>
      <trkpt lat="42.8549200" lon="-8.5728570">
        <ele>196.6</ele>
        <time>2021-05-24T08:02:59Z</time>
      </trkpt>
      <trkpt lat="42.8549350" lon="-8.5728560">
        <ele>196.6</ele>
        <time>2021-05-24T08:03:00Z</time>
      </trkpt>
      <trkpt lat="42.8549500" lon="-8.5728440">
        <ele>196.5</ele>
        <time>2021-05-24T08:03:01Z</time>
      </trkpt>
      <trkpt lat="42.8549640" lon="-8.5728420">
        <ele>196.5</ele>
        <time>2021-05-24T08:03:02Z</time>
      </trkpt>
      <trkpt lat="42.8549780" lon="-8.5728360">
        <ele>196.5</ele>
        <time>2021-05-24T08:03:03Z</time>
      </trkpt>
      <trkpt lat="42.8549930" lon="-8.5728410">
        <ele>196.4</ele>
        <time>2021-05-24T08:03:04Z</time>
      </trkpt>
      <trkpt lat="42.8550100" lon="-8.5728400">
        <ele>196.4</ele>
        <time>2021-05-24T08:03:05Z</time>
      </trkpt>
      <trkpt lat="42.8550260" lon="-8.5728370">
        <ele>196.4</ele>
        <time>2021-05-24T08:03:06Z</time>
      </trkpt>
      <trkpt lat="42.8550410" lon="-8.5728310">
        <ele>196.4</ele>
        <time>2021-05-24T08:03:07Z</time>
      </trkpt>
      <trkpt lat="42.8550550" lon="-8.5728350">
        <ele>196.3</ele>
        <time>2021-05-24T08:03:08Z</time>
      </trkpt>
      <trkpt lat="42.8550700" lon="-8.5728320">
        <ele>196.3</ele>
        <time>2021-05-24T08:03:09Z</time>
      </trkpt>
      <trkpt lat="42.8550870" lon="-8.5728290">
        <ele>196.3</ele>
        <time>2021-05-24T08:03:10Z</time>
      </trkpt>
      <trkpt lat="42.8551010" lon="-8.5728260">
        <ele>196.2</ele>
        <time>2021-05-24T08:03:11Z</time>
      </trkpt>
      <trkpt lat="42.8551170" lon="-8.5728120">
        <ele>196.2</ele>
        <time>2021-05-24T08:03:12Z</time>
      </trkpt>
      <trkpt lat="42.8551330" lon="-8.5728170">
        <ele>196.2</ele>
        <time>2021-05-24T08:03:13Z</time>
      </trkpt>
      <trkpt lat="42.8551480" lon="-8.5728150">
        <ele>196.1</ele>
        <time>2021-05-24T08:03:14Z</time>
      </trkpt>
      <trkpt lat="42.8551610" lon="-8.5728130">
        <ele>196.1</ele>
        <time>2021-05-24T08:03:15Z</time>
      </trkpt>
      <trkpt lat="42.8551750" lon="-8.5728010">
        <ele>196.0</ele>
        <time>2021-05-24T08:03:16Z</time>
      </trkpt>
      <trkpt lat="42.8551970" lon="-8.5727990">
        <ele>196.0</ele>
        <time>2021-05-24T08:03:17Z</time>
      </trkpt>
      <trkpt lat="42.8552060" lon="-8.5727990">
        <ele>196.0</ele>
        <time>2021-05-24T08:03:18Z</time>
      </trkpt>
      <trkpt lat="42.8552150" lon="-8.5727980">
        <ele>195.9</ele>
        <time>2021-05-24T08:03:19Z</time>
      </trkpt>
      <trkpt lat="42.8552340" lon="-8.5727930">
        <ele>195.9</ele>
        <time>2021-05-24T08:03:20Z</time>
      </trkpt>
      <trkpt lat="42.8552420" lon="-8.5727870">
        <ele>195.9</ele>
        <time>2021-05-24T08:03:21Z</time>
      </trkpt>
      <trkpt lat="42.8552490" lon="-8.5727820">
        <ele>195.8</ele>
        <time>2021-05-24T08:03:22Z</time>
      </trkpt>
      <trkpt lat="42.8552660" lon="-8.5727780">
        <ele>195.8</ele>
        <time>2021-05-24T08:03:23Z</time>
      </trkpt>
      <trkpt lat="42.8552760" lon="-8.5727780">
        <ele>195.7</ele>
        <time>2021-05-24T08:03:24Z</time>
      </trkpt>
      <trkpt lat="42.8552970" lon="-8.5727700">
        <ele>195.7</ele>
        <time>2021-05-24T08:03:25Z</time>
      </trkpt>
      <trkpt lat="42.8553060" lon="-8.5727650">
        <ele>195.7</ele>
        <time>2021-05-24T08:03:26Z</time>
      </trkpt>
      <trkpt lat="42.8553140" lon="-8.5727600">
        <ele>195.6</ele>
        <time>2021-05-24T08:03:27Z</time>
      </trkpt>
      <trkpt lat="42.8553220" lon="-8.5727520">
        <ele>195.6</ele>
        <time>2021-05-24T08:03:28Z</time>
      </trkpt>
      <trkpt lat="42.8553310" lon="-8.5727440">
        <ele>195.6</ele>
        <time>2021-05-24T08:03:29Z</time>
      </trkpt>
      <trkpt lat="42.8553390" lon="-8.5727340">
        <ele>195.5</ele>
        <time>2021-05-24T08:03:30Z</time>
      </trkpt>
      <trkpt lat="42.8553610" lon="-8.5727240">
        <ele>195.5</ele>
        <time>2021-05-24T08:03:31Z</time>
      </trkpt>
      <trkpt lat="42.8553680" lon="-8.5727220">
        <ele>195.5</ele>
        <time>2021-05-24T08:03:32Z</time>
      </trkpt>
      <trkpt lat="42.8553750" lon="-8.5727190">
        <ele>195.4</ele>
        <time>2021-05-24T08:03:33Z</time>
      </trkpt>
      <trkpt lat="42.8553930" lon="-8.5727160">
        <ele>195.4</ele>
        <time>2021-05-24T08:03:34Z</time>
      </trkpt>
      <trkpt lat="42.8554070" lon="-8.5727190">
        <ele>195.4</ele>
        <time>2021-05-24T08:03:35Z</time>
      </trkpt>
      <trkpt lat="42.8554240" lon="-8.5727270">
        <ele>195.3</ele>
        <time>2021-05-24T08:03:36Z</time>
      </trkpt>
      <trkpt lat="42.8554390" lon="-8.5727290">
        <ele>195.3</ele>
        <time>2021-05-24T08:03:37Z</time>
      </trkpt>
      <trkpt lat="42.8554560" lon="-8.5727320">
        <ele>195.2</ele>
        <time>2021-05-24T08:03:38Z</time>
      </trkpt>
      <trkpt lat="42.8554700" lon="-8.5727360">
        <ele>195.2</ele>
        <time>2021-05-24T08:03:39Z</time>
      </trkpt>
      <trkpt lat="42.8554850" lon="-8.5727410">
        <ele>195.2</ele>
        <time>2021-05-24T08:03:40Z</time>
      </trkpt>
      <trkpt lat="42.8555010" lon="-8.5727390">
        <ele>195.1</ele>
        <time>2021-05-24T08:03:41Z</time>
      </trkpt>
      <trkpt lat="42.8555160" lon="-8.5727380">
        <ele>195.1</ele>
        <time>2021-05-24T08:03:42Z</time>
      </trkpt>
      <trkpt lat="42.8555310" lon="-8.5727400">
        <ele>195.0</ele>
        <time>2021-05-24T08:03:43Z</time>
      </trkpt>
      <trkpt lat="42.8555480" lon="-8.5727370">
        <ele>195.0</ele>
        <time>2021-05-24T08:03:44Z</time>
      </trkpt>
      <trkpt lat="42.8555630" lon="-8.5727380">
        <ele>194.9</ele>
        <time>2021-05-24T08:03:45Z</time>
      </trkpt>
      <trkpt lat="42.8555780" lon="-8.5727340">
        <ele>194.9</ele>
        <time>2021-05-24T08:03:46Z</time>
      </trkpt>
      <trkpt lat="42.8555930" lon="-8.5727360">
        <ele>194.9</ele>
        <time>2021-05-24T08:03:47Z</time>
      </trkpt>
      <trkpt lat="42.8556090" lon="-8.5727370">
        <ele>194.8</ele>
        <time>2021-05-24T08:03:48Z</time>
      </trkpt>
      <trkpt lat="42.8556230" lon="-8.5727330">
        <ele>194.8</ele>
        <time>2021-05-24T08:03:49Z</time>
      </trkpt>
      <trkpt lat="42.8556400" lon="-8.5727240">
        <ele>194.7</ele>
        <time>2021-05-24T08:03:50Z</time>
      </trkpt>
      <trkpt lat="42.8556550" lon="-8.5727230">
        <ele>194.7</ele>
        <time>2021-05-24T08:03:51Z</time>
      </trkpt>
      <trkpt lat="42.8556680" lon="-8.5727200">
        <ele>194.7</ele>
        <time>2021-05-24T08:03:52Z</time>
      </trkpt>
      <trkpt lat="42.8556830" lon="-8.5727150">
        <ele>194.6</ele>
        <time>2021-05-24T08:03:53Z</time>
      </trkpt>
      <trkpt lat="42.8556990" lon="-8.5727130">
        <ele>194.6</ele>
        <time>2021-05-24T08:03:54Z</time>
      </trkpt>
      <trkpt lat="42.8557100" lon="-8.5727070">
        <ele>194.6</ele>
        <time>2021-05-24T08:03:55Z</time>
      </trkpt>
      <trkpt lat="42.8557250" lon="-8.5727010">
        <ele>194.5</ele>
        <time>2021-05-24T08:03:56Z</time>
      </trkpt>
      <trkpt lat="42.8557380" lon="-8.5727070">
        <ele>194.5</ele>
        <time>2021-05-24T08:03:57Z</time>
      </trkpt>
      <trkpt lat="42.8557480" lon="-8.5727010">
        <ele>194.5</ele>
        <time>2021-05-24T08:03:58Z</time>
      </trkpt>
      <trkpt lat="42.8557490" lon="-8.5727060">
        <ele>194.4</ele>
        <time>2021-05-24T08:03:59Z</time>
      </trkpt>
      <trkpt lat="42.8557440" lon="-8.5727100">
        <ele>194.4</ele>
        <time>2021-05-24T08:04:00Z</time>
      </trkpt>
      <trkpt lat="42.8557410" lon="-8.5727080">
        <ele>194.4</ele>
        <time>2021-05-24T08:04:01Z</time>
      </trkpt>
      <trkpt lat="42.8557380" lon="-8.5727070">
        <ele>194.4</ele>
        <time>2021-05-24T08:04:02Z</time>
      </trkpt>
      <trkpt lat="42.8557340" lon="-8.5727060">
        <ele>194.4</ele>
        <time>2021-05-24T08:04:03Z</time>
      </trkpt>
      <trkpt lat="42.8557350" lon="-8.5727050">
        <ele>194.4</ele>
        <time>2021-05-24T08:04:04Z</time>
      </trkpt>
      <trkpt lat="42.8557310" lon="-8.5727050">
        <ele>194.4</ele>
        <time>2021-05-24T08:04:05Z</time>
      </trkpt>
      <trkpt lat="42.8557310" lon="-8.5727060">
        <ele>194.4</ele>
        <time>2021-05-24T08:04:06Z</time>
      </trkpt>
      <trkpt lat="42.8557240" lon="-8.5727130">
        <ele>194.4</ele>
        <time>2021-05-24T08:04:07Z</time>
      </trkpt>
      <trkpt lat="42.8557210" lon="-8.5727120">
        <ele>194.4</ele>
        <time>2021-05-24T08:04:08Z</time>
      </trkpt>
      <trkpt lat="42.8557150" lon="-8.5727120">
        <ele>194.4</ele>
        <time>2021-05-24T08:04:09Z</time>
      </trkpt>
      <trkpt lat="42.8557100" lon="-8.5727120">
        <ele>194.4</ele>
        <time>2021-05-24T08:04:10Z</time>
      </trkpt>
      <trkpt lat="42.8557070" lon="-8.5727140">
        <ele>194.3</ele>
        <time>2021-05-24T08:04:11Z</time>
      </trkpt>
      <trkpt lat="42.8557050" lon="-8.5727130">
        <ele>194.3</ele>
        <time>2021-05-24T08:04:12Z</time>
      </trkpt>
      <trkpt lat="42.8557040" lon="-8.5727150">
        <ele>194.3</ele>
        <time>2021-05-24T08:04:13Z</time>
      </trkpt>
      <trkpt lat="42.8557030" lon="-8.5727150">
        <ele>194.3</ele>
        <time>2021-05-24T08:04:14Z</time>
      </trkpt>
      <trkpt lat="42.8557010" lon="-8.5727160">
        <ele>194.3</ele>
        <time>2021-05-24T08:04:15Z</time>
      </trkpt>
      <trkpt lat="42.8557000" lon="-8.5727150">
        <ele>194.3</ele>
        <time>2021-05-24T08:04:16Z</time>
      </trkpt>
      <trkpt lat="42.8556960" lon="-8.5727140">
        <ele>194.3</ele>
        <time>2021-05-24T08:04:17Z</time>
      </trkpt>
      <trkpt lat="42.8556950" lon="-8.5727140">
        <ele>194.3</ele>
        <time>2021-05-24T08:04:18Z</time>
      </trkpt>
      <trkpt lat="42.8556900" lon="-8.5727130">
        <ele>194.3</ele>
        <time>2021-05-24T08:04:19Z</time>
      </trkpt>
      <trkpt lat="42.8556870" lon="-8.5727130">
        <ele>194.3</ele>
        <time>2021-05-24T08:04:20Z</time>
      </trkpt>
      <trkpt lat="42.8556880" lon="-8.5727140">
        <ele>194.3</ele>
        <time>2021-05-24T08:04:21Z</time>
      </trkpt>
      <trkpt lat="42.8556870" lon="-8.5727160">
        <ele>194.3</ele>
        <time>2021-05-24T08:04:22Z</time>
      </trkpt>
      <trkpt lat="42.8556850" lon="-8.5727170">
        <ele>194.3</ele>
        <time>2021-05-24T08:04:23Z</time>
      </trkpt>
      <trkpt lat="42.8556840" lon="-8.5727210">
        <ele>194.3</ele>
        <time>2021-05-24T08:04:24Z</time>
      </trkpt>
      <trkpt lat="42.8556840" lon="-8.5727210">
        <ele>194.3</ele>
        <time>2021-05-24T08:04:25Z</time>
      </trkpt>
      <trkpt lat="42.8556880" lon="-8.5727180">
        <ele>194.3</ele>
        <time>2021-05-24T08:04:26Z</time>
      </trkpt>
      <trkpt lat="42.8556950" lon="-8.5727170">
        <ele>194.3</ele>
        <time>2021-05-24T08:04:27Z</time>
      </trkpt>
      <trkpt lat="42.8557040" lon="-8.5727150">
        <ele>194.2</ele>
        <time>2021-05-24T08:04:28Z</time>
      </trkpt>
      <trkpt lat="42.8557110" lon="-8.5727120">
        <ele>194.2</ele>
        <time>2021-05-24T08:04:29Z</time>
      </trkpt>
      <trkpt lat="42.8557100" lon="-8.5727110">
        <ele>194.2</ele>
        <time>2021-05-24T08:04:30Z</time>
      </trkpt>
      <trkpt lat="42.8557160" lon="-8.5727110">
        <ele>194.2</ele>
        <time>2021-05-24T08:04:31Z</time>
      </trkpt>
      <trkpt lat="42.8557170" lon="-8.5727110">
        <ele>194.2</ele>
        <time>2021-05-24T08:04:32Z</time>
      </trkpt>
      <trkpt lat="42.8557190" lon="-8.5727090">
        <ele>194.2</ele>
        <time>2021-05-24T08:04:33Z</time>
      </trkpt>
      <trkpt lat="42.8557210" lon="-8.5727040">
        <ele>194.2</ele>
        <time>2021-05-24T08:04:34Z</time>
      </trkpt>
      <trkpt lat="42.8557280" lon="-8.5727020">
        <ele>194.2</ele>
        <time>2021-05-24T08:04:35Z</time>
      </trkpt>
      <trkpt lat="42.8557430" lon="-8.5727080">
        <ele>194.2</ele>
        <time>2021-05-24T08:04:36Z</time>
      </trkpt>
      <trkpt lat="42.8557610" lon="-8.5726990">
        <ele>194.1</ele>
        <time>2021-05-24T08:04:37Z</time>
      </trkpt>
      <trkpt lat="42.8557670" lon="-8.5726980">
        <ele>194.1</ele>
        <time>2021-05-24T08:04:38Z</time>
      </trkpt>
      <trkpt lat="42.8557730" lon="-8.5726960">
        <ele>194.1</ele>
        <time>2021-05-24T08:04:39Z</time>
      </trkpt>
      <trkpt lat="42.8557790" lon="-8.5726940">
        <ele>194.1</ele>
        <time>2021-05-24T08:04:40Z</time>
      </trkpt>
      <trkpt lat="42.8557940" lon="-8.5726870">
        <ele>194.1</ele>
        <time>2021-05-24T08:04:41Z</time>
      </trkpt>
      <trkpt lat="42.8557950" lon="-8.5726920">
        <ele>194.0</ele>
        <time>2021-05-24T08:04:42Z</time>
      </trkpt>
      <trkpt lat="42.8558070" lon="-8.5726930">
        <ele>194.0</ele>
        <time>2021-05-24T08:04:43Z</time>
      </trkpt>
      <trkpt lat="42.8558180" lon="-8.5727040">
        <ele>194.0</ele>
        <time>2021-05-24T08:04:44Z</time>
      </trkpt>
      <trkpt lat="42.8558320" lon="-8.5727090">
        <ele>194.0</ele>
        <time>2021-05-24T08:04:45Z</time>
      </trkpt>
      <trkpt lat="42.8558440" lon="-8.5727250">
        <ele>194.0</ele>
        <time>2021-05-24T08:04:46Z</time>
      </trkpt>
      <trkpt lat="42.8558510" lon="-8.5727300">
        <ele>193.9</ele>
        <time>2021-05-24T08:04:47Z</time>
      </trkpt>
      <trkpt lat="42.8558570" lon="-8.5727360">
        <ele>193.9</ele>
        <time>2021-05-24T08:04:48Z</time>
      </trkpt>
      <trkpt lat="42.8558640" lon="-8.5727420">
        <ele>193.9</ele>
        <time>2021-05-24T08:04:49Z</time>
      </trkpt>
      <trkpt lat="42.8558760" lon="-8.5727440">
        <ele>193.9</ele>
        <time>2021-05-24T08:04:50Z</time>
      </trkpt>
      <trkpt lat="42.8558810" lon="-8.5727450">
        <ele>193.9</ele>
        <time>2021-05-24T08:04:51Z</time>
      </trkpt>
      <trkpt lat="42.8558910" lon="-8.5727560">
        <ele>193.9</ele>
        <time>2021-05-24T08:04:52Z</time>
      </trkpt>
      <trkpt lat="42.8558960" lon="-8.5727640">
        <ele>193.9</ele>
        <time>2021-05-24T08:04:53Z</time>
      </trkpt>
      <trkpt lat="42.8559060" lon="-8.5727790">
        <ele>193.9</ele>
        <time>2021-05-24T08:04:54Z</time>
      </trkpt>
      <trkpt lat="42.8559160" lon="-8.5727890">
        <ele>193.9</ele>
        <time>2021-05-24T08:04:55Z</time>
      </trkpt>
      <trkpt lat="42.8559250" lon="-8.5728010">
        <ele>193.9</ele>
        <time>2021-05-24T08:04:56Z</time>
      </trkpt>
      <trkpt lat="42.8559400" lon="-8.5728110">
        <ele>193.9</ele>
        <time>2021-05-24T08:04:57Z</time>
      </trkpt>
      <trkpt lat="42.8559510" lon="-8.5728250">
        <ele>193.9</ele>
        <time>2021-05-24T08:04:58Z</time>
      </trkpt>
      <trkpt lat="42.8559610" lon="-8.5728340">
        <ele>193.9</ele>
        <time>2021-05-24T08:04:59Z</time>
      </trkpt>
      <trkpt lat="42.8559620" lon="-8.5728390">
        <ele>193.9</ele>
        <time>2021-05-24T08:05:00Z</time>
      </trkpt>
      <trkpt lat="42.8559760" lon="-8.5728480">
        <ele>193.9</ele>
        <time>2021-05-24T08:05:01Z</time>
      </trkpt>
      <trkpt lat="42.8559870" lon="-8.5728560">
        <ele>193.9</ele>
        <time>2021-05-24T08:05:02Z</time>
      </trkpt>
      <trkpt lat="42.8559990" lon="-8.5728720">
        <ele>193.9</ele>
        <time>2021-05-24T08:05:03Z</time>
      </trkpt>
      <trkpt lat="42.8560090" lon="-8.5728830">
        <ele>193.9</ele>
        <time>2021-05-24T08:05:04Z</time>
      </trkpt>
      <trkpt lat="42.8560220" lon="-8.5728980">
        <ele>193.9</ele>
        <time>2021-05-24T08:05:05Z</time>
      </trkpt>
      <trkpt lat="42.8560290" lon="-8.5729060">
        <ele>193.9</ele>
        <time>2021-05-24T08:05:06Z</time>
      </trkpt>
      <trkpt lat="42.8560370" lon="-8.5729140">
        <ele>193.9</ele>
        <time>2021-05-24T08:05:07Z</time>
      </trkpt>
      <trkpt lat="42.8560570" lon="-8.5729200">
        <ele>193.9</ele>
        <time>2021-05-24T08:05:08Z</time>
      </trkpt>
      <trkpt lat="42.8560660" lon="-8.5729300">
        <ele>193.9</ele>
        <time>2021-05-24T08:05:09Z</time>
      </trkpt>
      <trkpt lat="42.8560740" lon="-8.5729390">
        <ele>194.0</ele>
        <time>2021-05-24T08:05:10Z</time>
      </trkpt>
      <trkpt lat="42.8560860" lon="-8.5729500">
        <ele>194.0</ele>
        <time>2021-05-24T08:05:11Z</time>
      </trkpt>
      <trkpt lat="42.8560990" lon="-8.5729630">
        <ele>194.0</ele>
        <time>2021-05-24T08:05:12Z</time>
      </trkpt>
      <trkpt lat="42.8561100" lon="-8.5729700">
        <ele>194.0</ele>
        <time>2021-05-24T08:05:13Z</time>
      </trkpt>
      <trkpt lat="42.8561220" lon="-8.5729860">
        <ele>194.1</ele>
        <time>2021-05-24T08:05:14Z</time>
      </trkpt>
      <trkpt lat="42.8561320" lon="-8.5729970">
        <ele>194.1</ele>
        <time>2021-05-24T08:05:15Z</time>
      </trkpt>
      <trkpt lat="42.8561430" lon="-8.5730080">
        <ele>194.1</ele>
        <time>2021-05-24T08:05:16Z</time>
      </trkpt>
      <trkpt lat="42.8561490" lon="-8.5730100">
        <ele>194.1</ele>
        <time>2021-05-24T08:05:17Z</time>
      </trkpt>
      <trkpt lat="42.8561510" lon="-8.5730220">
        <ele>194.2</ele>
        <time>2021-05-24T08:05:18Z</time>
      </trkpt>
      <trkpt lat="42.8561650" lon="-8.5730320">
        <ele>194.2</ele>
        <time>2021-05-24T08:05:19Z</time>
      </trkpt>
      <trkpt lat="42.8561700" lon="-8.5730500">
        <ele>194.3</ele>
        <time>2021-05-24T08:05:20Z</time>
      </trkpt>
      <trkpt lat="42.8561770" lon="-8.5730650">
        <ele>194.3</ele>
        <time>2021-05-24T08:05:21Z</time>
      </trkpt>
      <trkpt lat="42.8561840" lon="-8.5730720">
        <ele>194.3</ele>
        <time>2021-05-24T08:05:22Z</time>
      </trkpt>
      <trkpt lat="42.8561900" lon="-8.5730800">
        <ele>194.4</ele>
        <time>2021-05-24T08:05:23Z</time>
      </trkpt>
      <trkpt lat="42.8561960" lon="-8.5730880">
        <ele>194.4</ele>
        <time>2021-05-24T08:05:24Z</time>
      </trkpt>
      <trkpt lat="42.8562030" lon="-8.5731050">
        <ele>194.4</ele>
        <time>2021-05-24T08:05:25Z</time>
      </trkpt>
      <trkpt lat="42.8562090" lon="-8.5731140">
        <ele>194.5</ele>
        <time>2021-05-24T08:05:26Z</time>
      </trkpt>
      <trkpt lat="42.8562140" lon="-8.5731220">
        <ele>194.5</ele>
        <time>2021-05-24T08:05:27Z</time>
      </trkpt>
      <trkpt lat="42.8562190" lon="-8.5731310">
        <ele>194.5</ele>
        <time>2021-05-24T08:05:28Z</time>
      </trkpt>
      <trkpt lat="42.8562300" lon="-8.5731440">
        <ele>194.6</ele>
        <time>2021-05-24T08:05:29Z</time>
      </trkpt>
      <trkpt lat="42.8562400" lon="-8.5731660">
        <ele>194.6</ele>
        <time>2021-05-24T08:05:30Z</time>
      </trkpt>
      <trkpt lat="42.8562400" lon="-8.5731730">
        <ele>194.7</ele>
        <time>2021-05-24T08:05:31Z</time>
      </trkpt>
      <trkpt lat="42.8562500" lon="-8.5731890">
        <ele>194.7</ele>
        <time>2021-05-24T08:05:32Z</time>
      </trkpt>
      <trkpt lat="42.8562650" lon="-8.5732020">
        <ele>194.8</ele>
        <time>2021-05-24T08:05:33Z</time>
      </trkpt>
      <trkpt lat="42.8562650" lon="-8.5732060">
        <ele>194.8</ele>
        <time>2021-05-24T08:05:34Z</time>
      </trkpt>
      <trkpt lat="42.8562810" lon="-8.5732210">
        <ele>194.9</ele>
        <time>2021-05-24T08:05:35Z</time>
      </trkpt>
      <trkpt lat="42.8562860" lon="-8.5732310">
        <ele>195.0</ele>
        <time>2021-05-24T08:05:36Z</time>
      </trkpt>
      <trkpt lat="42.8562920" lon="-8.5732450">
        <ele>195.0</ele>
        <time>2021-05-24T08:05:37Z</time>
      </trkpt>
      <trkpt lat="42.8563010" lon="-8.5732650">
        <ele>195.1</ele>
        <time>2021-05-24T08:05:38Z</time>
      </trkpt>
      <trkpt lat="42.8563150" lon="-8.5732720">
        <ele>195.2</ele>
        <time>2021-05-24T08:05:39Z</time>
      </trkpt>
      <trkpt lat="42.8563300" lon="-8.5732830">
        <ele>195.3</ele>
        <time>2021-05-24T08:05:40Z</time>
      </trkpt>
      <trkpt lat="42.8563340" lon="-8.5733080">
        <ele>195.4</ele>
        <time>2021-05-24T08:05:41Z</time>
      </trkpt>
      <trkpt lat="42.8563380" lon="-8.5733200">
        <ele>195.5</ele>
        <time>2021-05-24T08:05:42Z</time>
      </trkpt>
      <trkpt lat="42.8563420" lon="-8.5733310">
        <ele>195.6</ele>
        <time>2021-05-24T08:05:43Z</time>
      </trkpt>
      <trkpt lat="42.8563470" lon="-8.5733550">
        <ele>195.7</ele>
        <time>2021-05-24T08:05:44Z</time>
      </trkpt>
      <trkpt lat="42.8563540" lon="-8.5733650">
        <ele>195.7</ele>
        <time>2021-05-24T08:05:45Z</time>
      </trkpt>
      <trkpt lat="42.8563620" lon="-8.5733750">
        <ele>195.8</ele>
        <time>2021-05-24T08:05:46Z</time>
      </trkpt>
      <trkpt lat="42.8563670" lon="-8.5733750">
        <ele>195.8</ele>
        <time>2021-05-24T08:05:47Z</time>
      </trkpt>
      <trkpt lat="42.8563750" lon="-8.5733900">
        <ele>195.9</ele>
        <time>2021-05-24T08:05:48Z</time>
      </trkpt>
      <trkpt lat="42.8563830" lon="-8.5734010">
        <ele>196.0</ele>
        <time>2021-05-24T08:05:49Z</time>
      </trkpt>
      <trkpt lat="42.8563900" lon="-8.5734200">
        <ele>196.1</ele>
        <time>2021-05-24T08:05:50Z</time>
      </trkpt>
      <trkpt lat="42.8563980" lon="-8.5734320">
        <ele>196.2</ele>
        <time>2021-05-24T08:05:51Z</time>
      </trkpt>
      <trkpt lat="42.8564060" lon="-8.5734560">
        <ele>196.4</ele>
        <time>2021-05-24T08:05:52Z</time>
      </trkpt>
      <trkpt lat="42.8564110" lon="-8.5734680">
        <ele>196.4</ele>
        <time>2021-05-24T08:05:53Z</time>
      </trkpt>
      <trkpt lat="42.8564150" lon="-8.5734790">
        <ele>196.5</ele>
        <time>2021-05-24T08:05:54Z</time>
      </trkpt>
      <trkpt lat="42.8564190" lon="-8.5734940">
        <ele>196.6</ele>
        <time>2021-05-24T08:05:55Z</time>
      </trkpt>
      <trkpt lat="42.8564290" lon="-8.5735110">
        <ele>196.7</ele>
        <time>2021-05-24T08:05:56Z</time>
      </trkpt>
      <trkpt lat="42.8564250" lon="-8.5735230">
        <ele>196.8</ele>
        <time>2021-05-24T08:05:57Z</time>
      </trkpt>
      <trkpt lat="42.8564270" lon="-8.5735410">
        <ele>196.9</ele>
        <time>2021-05-24T08:05:58Z</time>
      </trkpt>
      <trkpt lat="42.8564300" lon="-8.5735590">
        <ele>197.1</ele>
        <time>2021-05-24T08:05:59Z</time>
      </trkpt>
      <trkpt lat="42.8564350" lon="-8.5735770">
        <ele>197.2</ele>
        <time>2021-05-24T08:06:00Z</time>
      </trkpt>
      <trkpt lat="42.8564330" lon="-8.5735880">
        <ele>197.3</ele>
        <time>2021-05-24T08:06:01Z</time>
      </trkpt>
      <trkpt lat="42.8564380" lon="-8.5735960">
        <ele>197.3</ele>
        <time>2021-05-24T08:06:02Z</time>
      </trkpt>
      <trkpt lat="42.8564400" lon="-8.5736290">
        <ele>197.6</ele>
        <time>2021-05-24T08:06:03Z</time>
      </trkpt>
      <trkpt lat="42.8564410" lon="-8.5736390">
        <ele>197.6</ele>
        <time>2021-05-24T08:06:04Z</time>
      </trkpt>
      <trkpt lat="42.8564430" lon="-8.5736500">
        <ele>197.7</ele>
        <time>2021-05-24T08:06:05Z</time>
      </trkpt>
      <trkpt lat="42.8564490" lon="-8.5736670">
        <ele>197.9</ele>
        <time>2021-05-24T08:06:06Z</time>
      </trkpt>
      <trkpt lat="42.8564540" lon="-8.5736780">
        <ele>198.0</ele>
        <time>2021-05-24T08:06:07Z</time>
      </trkpt>
      <trkpt lat="42.8564520" lon="-8.5736890">
        <ele>198.1</ele>
        <time>2021-05-24T08:06:08Z</time>
      </trkpt>
      <trkpt lat="42.8564490" lon="-8.5737170">
        <ele>198.3</ele>
        <time>2021-05-24T08:06:09Z</time>
      </trkpt>
      <trkpt lat="42.8564460" lon="-8.5737270">
        <ele>198.4</ele>
        <time>2021-05-24T08:06:10Z</time>
      </trkpt>
      <trkpt lat="42.8564430" lon="-8.5737380">
        <ele>198.5</ele>
        <time>2021-05-24T08:06:11Z</time>
      </trkpt>
      <trkpt lat="42.8564420" lon="-8.5737550">
        <ele>198.6</ele>
        <time>2021-05-24T08:06:12Z</time>
      </trkpt>
      <trkpt lat="42.8564450" lon="-8.5737700">
        <ele>198.7</ele>
        <time>2021-05-24T08:06:13Z</time>
      </trkpt>
      <trkpt lat="42.8564540" lon="-8.5737860">
        <ele>198.9</ele>
        <time>2021-05-24T08:06:14Z</time>
      </trkpt>
      <trkpt lat="42.8564570" lon="-8.5738050">
        <ele>199.0</ele>
        <time>2021-05-24T08:06:15Z</time>
      </trkpt>
      <trkpt lat="42.8564660" lon="-8.5738220">
        <ele>199.2</ele>
        <time>2021-05-24T08:06:16Z</time>
      </trkpt>
      <trkpt lat="42.8564780" lon="-8.5738440">
        <ele>199.4</ele>
        <time>2021-05-24T08:06:17Z</time>
      </trkpt>
      <trkpt lat="42.8564740" lon="-8.5738440">
        <ele>199.5</ele>
        <time>2021-05-24T08:06:18Z</time>
      </trkpt>
      <trkpt lat="42.8564760" lon="-8.5738540">
        <ele>199.6</ele>
        <time>2021-05-24T08:06:19Z</time>
      </trkpt>
      <trkpt lat="42.8564740" lon="-8.5738550">
        <ele>199.6</ele>
        <time>2021-05-24T08:06:20Z</time>
      </trkpt>
      <trkpt lat="42.8564730" lon="-8.5738510">
        <ele>199.6</ele>
        <time>2021-05-24T08:06:21Z</time>
      </trkpt>
      <trkpt lat="42.8564750" lon="-8.5738480">
        <ele>199.7</ele>
        <time>2021-05-24T08:06:22Z</time>
      </trkpt>
      <trkpt lat="42.8564770" lon="-8.5738640">
        <ele>199.8</ele>
        <time>2021-05-24T08:06:23Z</time>
      </trkpt>
      <trkpt lat="42.8564710" lon="-8.5738800">
        <ele>200.0</ele>
        <time>2021-05-24T08:06:24Z</time>
      </trkpt>
      <trkpt lat="42.8564750" lon="-8.5738910">
        <ele>200.1</ele>
        <time>2021-05-24T08:06:25Z</time>
      </trkpt>
      <trkpt lat="42.8564710" lon="-8.5738860">
        <ele>200.1</ele>
        <time>2021-05-24T08:06:26Z</time>
      </trkpt>
      <trkpt lat="42.8564680" lon="-8.5738900">
        <ele>200.2</ele>
        <time>2021-05-24T08:06:27Z</time>
      </trkpt>
      <trkpt lat="42.8564690" lon="-8.5739020">
        <ele>200.3</ele>
        <time>2021-05-24T08:06:28Z</time>
      </trkpt>
      <trkpt lat="42.8564730" lon="-8.5739190">
        <ele>200.4</ele>
        <time>2021-05-24T08:06:29Z</time>
      </trkpt>
      <trkpt lat="42.8564710" lon="-8.5739320">
        <ele>200.6</ele>
        <time>2021-05-24T08:06:30Z</time>
      </trkpt>
      <trkpt lat="42.8564720" lon="-8.5739410">
        <ele>200.6</ele>
        <time>2021-05-24T08:06:31Z</time>
      </trkpt>
      <trkpt lat="42.8564680" lon="-8.5739700">
        <ele>200.9</ele>
        <time>2021-05-24T08:06:32Z</time>
      </trkpt>
      <trkpt lat="42.8564660" lon="-8.5739820">
        <ele>201.0</ele>
        <time>2021-05-24T08:06:33Z</time>
      </trkpt>
      <trkpt lat="42.8564650" lon="-8.5739930">
        <ele>201.1</ele>
        <time>2021-05-24T08:06:34Z</time>
      </trkpt>
      <trkpt lat="42.8564690" lon="-8.5740080">
        <ele>201.2</ele>
        <time>2021-05-24T08:06:35Z</time>
      </trkpt>
      <trkpt lat="42.8564700" lon="-8.5740280">
        <ele>201.4</ele>
        <time>2021-05-24T08:06:36Z</time>
      </trkpt>
      <trkpt lat="42.8564710" lon="-8.5740380">
        <ele>201.5</ele>
        <time>2021-05-24T08:06:37Z</time>
      </trkpt>
      <trkpt lat="42.8564640" lon="-8.5740610">
        <ele>201.7</ele>
        <time>2021-05-24T08:06:38Z</time>
      </trkpt>
      <trkpt lat="42.8564660" lon="-8.5740760">
        <ele>201.8</ele>
        <time>2021-05-24T08:06:39Z</time>
      </trkpt>
      <trkpt lat="42.8564690" lon="-8.5740910">
        <ele>202.0</ele>
        <time>2021-05-24T08:06:40Z</time>
      </trkpt>
      <trkpt lat="42.8564700" lon="-8.5741200">
        <ele>202.2</ele>
        <time>2021-05-24T08:06:41Z</time>
      </trkpt>
      <trkpt lat="42.8564690" lon="-8.5741310">
        <ele>202.3</ele>
        <time>2021-05-24T08:06:42Z</time>
      </trkpt>
      <trkpt lat="42.8564690" lon="-8.5741410">
        <ele>202.4</ele>
        <time>2021-05-24T08:06:43Z</time>
      </trkpt>
      <trkpt lat="42.8564720" lon="-8.5741610">
        <ele>202.6</ele>
        <time>2021-05-24T08:06:44Z</time>
      </trkpt>
      <trkpt lat="42.8564700" lon="-8.5741730">
        <ele>202.7</ele>
        <time>2021-05-24T08:06:45Z</time>
      </trkpt>
      <trkpt lat="42.8564660" lon="-8.5741830">
        <ele>202.8</ele>
        <time>2021-05-24T08:06:46Z</time>
      </trkpt>
      <trkpt lat="42.8564700" lon="-8.5742100">
        <ele>203.1</ele>
        <time>2021-05-24T08:06:47Z</time>
      </trkpt>
      <trkpt lat="42.8564740" lon="-8.5742240">
        <ele>203.2</ele>
        <time>2021-05-24T08:06:48Z</time>
      </trkpt>
      <trkpt lat="42.8564780" lon="-8.5742370">
        <ele>203.3</ele>
        <time>2021-05-24T08:06:49Z</time>
      </trkpt>
      <trkpt lat="42.8564760" lon="-8.5742570">
        <ele>203.5</ele>
        <time>2021-05-24T08:06:50Z</time>
      </trkpt>
      <trkpt lat="42.8564770" lon="-8.5742740">
        <ele>203.7</ele>
        <time>2021-05-24T08:06:51Z</time>
      </trkpt>
      <trkpt lat="42.8564780" lon="-8.5742840">
        <ele>203.8</ele>
        <time>2021-05-24T08:06:52Z</time>
      </trkpt>
      <trkpt lat="42.8564870" lon="-8.5743040">
        <ele>204.0</ele>
        <time>2021-05-24T08:06:53Z</time>
      </trkpt>
      <trkpt lat="42.8564910" lon="-8.5743170">
        <ele>204.1</ele>
        <time>2021-05-24T08:06:54Z</time>
      </trkpt>
      <trkpt lat="42.8564910" lon="-8.5743380">
        <ele>204.3</ele>
        <time>2021-05-24T08:06:55Z</time>
      </trkpt>
      <trkpt lat="42.8564910" lon="-8.5743490">
        <ele>204.4</ele>
        <time>2021-05-24T08:06:56Z</time>
      </trkpt>
      <trkpt lat="42.8564920" lon="-8.5743620">
        <ele>204.6</ele>
        <time>2021-05-24T08:06:57Z</time>
      </trkpt>
      <trkpt lat="42.8564960" lon="-8.5743910">
        <ele>204.8</ele>
        <time>2021-05-24T08:06:58Z</time>
      </trkpt>
      <trkpt lat="42.8564980" lon="-8.5744030">
        <ele>205.0</ele>
        <time>2021-05-24T08:06:59Z</time>
      </trkpt>
      <trkpt lat="42.8565010" lon="-8.5744150">
        <ele>205.1</ele>
        <time>2021-05-24T08:07:00Z</time>
      </trkpt>
      <trkpt lat="42.8565020" lon="-8.5744270">
        <ele>205.2</ele>
        <time>2021-05-24T08:07:01Z</time>
      </trkpt>
      <trkpt lat="42.8564970" lon="-8.5744370">
        <ele>205.3</ele>
        <time>2021-05-24T08:07:02Z</time>
      </trkpt>
      <trkpt lat="42.8565010" lon="-8.5744540">
        <ele>205.5</ele>
        <time>2021-05-24T08:07:03Z</time>
      </trkpt>
      <trkpt lat="42.8565030" lon="-8.5744800">
        <ele>205.7</ele>
        <time>2021-05-24T08:07:04Z</time>
      </trkpt>
      <trkpt lat="42.8564980" lon="-8.5744910">
        <ele>205.9</ele>
        <time>2021-05-24T08:07:05Z</time>
      </trkpt>
      <trkpt lat="42.8564980" lon="-8.5745160">
        <ele>206.1</ele>
        <time>2021-05-24T08:07:06Z</time>
      </trkpt>
      <trkpt lat="42.8565040" lon="-8.5745300">
        <ele>206.3</ele>
        <time>2021-05-24T08:07:07Z</time>
      </trkpt>
      <trkpt lat="42.8565010" lon="-8.5745430">
        <ele>206.4</ele>
        <time>2021-05-24T08:07:08Z</time>
      </trkpt>
      <trkpt lat="42.8565060" lon="-8.5745550">
        <ele>206.5</ele>
        <time>2021-05-24T08:07:09Z</time>
      </trkpt>
      <trkpt lat="42.8564990" lon="-8.5745690">
        <ele>206.7</ele>
        <time>2021-05-24T08:07:10Z</time>
      </trkpt>
      <trkpt lat="42.8565000" lon="-8.5745820">
        <ele>206.8</ele>
        <time>2021-05-24T08:07:11Z</time>
      </trkpt>
      <trkpt lat="42.8565000" lon="-8.5745990">
        <ele>207.0</ele>
        <time>2021-05-24T08:07:12Z</time>
      </trkpt>
      <trkpt lat="42.8565010" lon="-8.5746160">
        <ele>207.2</ele>
        <time>2021-05-24T08:07:13Z</time>
      </trkpt>
      <trkpt lat="42.8564990" lon="-8.5746360">
        <ele>207.4</ele>
        <time>2021-05-24T08:07:14Z</time>
      </trkpt>
      <trkpt lat="42.8565030" lon="-8.5746420">
        <ele>207.4</ele>
        <time>2021-05-24T08:07:15Z</time>
      </trkpt>
      <trkpt lat="42.8565080" lon="-8.5746650">
        <ele>207.7</ele>
        <time>2021-05-24T08:07:16Z</time>
      </trkpt>
      <trkpt lat="42.8565110" lon="-8.5746810">
        <ele>207.8</ele>
        <time>2021-05-24T08:07:17Z</time>
      </trkpt>
      <trkpt lat="42.8565160" lon="-8.5747020">
        <ele>208.1</ele>
        <time>2021-05-24T08:07:18Z</time>
      </trkpt>
      <trkpt lat="42.8565240" lon="-8.5747100">
        <ele>208.2</ele>
        <time>2021-05-24T08:07:19Z</time>
      </trkpt>
      <trkpt lat="42.8565210" lon="-8.5747240">
        <ele>208.4</ele>
        <time>2021-05-24T08:07:20Z</time>
      </trkpt>
      <trkpt lat="42.8565250" lon="-8.5747430">
        <ele>208.5</ele>
        <time>2021-05-24T08:07:21Z</time>
      </trkpt>
      <trkpt lat="42.8565270" lon="-8.5747590">
        <ele>208.7</ele>
        <time>2021-05-24T08:07:22Z</time>
      </trkpt>
      <trkpt lat="42.8565240" lon="-8.5747770">
        <ele>208.9</ele>
        <time>2021-05-24T08:07:23Z</time>
      </trkpt>
      <trkpt lat="42.8565250" lon="-8.5747880">
        <ele>209.0</ele>
        <time>2021-05-24T08:07:24Z</time>
      </trkpt>
      <trkpt lat="42.8565300" lon="-8.5748070">
        <ele>209.2</ele>
        <time>2021-05-24T08:07:25Z</time>
      </trkpt>
      <trkpt lat="42.8565360" lon="-8.5748230">
        <ele>209.4</ele>
        <time>2021-05-24T08:07:26Z</time>
      </trkpt>
      <trkpt lat="42.8565420" lon="-8.5748370">
        <ele>209.6</ele>
        <time>2021-05-24T08:07:27Z</time>
      </trkpt>
      <trkpt lat="42.8565430" lon="-8.5748480">
        <ele>209.7</ele>
        <time>2021-05-24T08:07:28Z</time>
      </trkpt>
      <trkpt lat="42.8565450" lon="-8.5748630">
        <ele>209.8</ele>
        <time>2021-05-24T08:07:29Z</time>
      </trkpt>
      <trkpt lat="42.8565430" lon="-8.5748630">
        <ele>209.8</ele>
        <time>2021-05-24T08:07:30Z</time>
      </trkpt>
      <trkpt lat="42.8565410" lon="-8.5748660">
        <ele>209.9</ele>
        <time>2021-05-24T08:07:31Z</time>
      </trkpt>
      <trkpt lat="42.8565400" lon="-8.5748690">
        <ele>209.9</ele>
        <time>2021-05-24T08:07:32Z</time>
      </trkpt>
      <trkpt lat="42.8565390" lon="-8.5748720">
        <ele>210.0</ele>
        <time>2021-05-24T08:07:33Z</time>
      </trkpt>
      <trkpt lat="42.8565380" lon="-8.5748750">
        <ele>210.0</ele>
        <time>2021-05-24T08:07:34Z</time>
      </trkpt>
      <trkpt lat="42.8565360" lon="-8.5748780">
        <ele>210.0</ele>
        <time>2021-05-24T08:07:35Z</time>
      </trkpt>
      <trkpt lat="42.8565350" lon="-8.5748810">
        <ele>210.1</ele>
        <time>2021-05-24T08:07:36Z</time>
      </trkpt>
      <trkpt lat="42.8565340" lon="-8.5748840">
        <ele>210.1</ele>
        <time>2021-05-24T08:07:37Z</time>
      </trkpt>
      <trkpt lat="42.8565330" lon="-8.5748870">
        <ele>210.1</ele>
        <time>2021-05-24T08:07:38Z</time>
      </trkpt>
      <trkpt lat="42.8565310" lon="-8.5748900">
        <ele>210.2</ele>
        <time>2021-05-24T08:07:39Z</time>
      </trkpt>
      <trkpt lat="42.8565300" lon="-8.5748930">
        <ele>210.2</ele>
        <time>2021-05-24T08:07:40Z</time>
      </trkpt>
      <trkpt lat="42.8565290" lon="-8.5748960">
        <ele>210.2</ele>
        <time>2021-05-24T08:07:41Z</time>
      </trkpt>
      <trkpt lat="42.8565280" lon="-8.5748990">
        <ele>210.3</ele>
        <time>2021-05-24T08:07:42Z</time>
      </trkpt>
      <trkpt lat="42.8565260" lon="-8.5749020">
        <ele>210.3</ele>
        <time>2021-05-24T08:07:43Z</time>
      </trkpt>
      <trkpt lat="42.8565250" lon="-8.5749050">
        <ele>210.3</ele>
        <time>2021-05-24T08:07:44Z</time>
      </trkpt>
      <trkpt lat="42.8565260" lon="-8.5749190">
        <ele>210.5</ele>
        <time>2021-05-24T08:07:45Z</time>
      </trkpt>
      <trkpt lat="42.8565360" lon="-8.5749410">
        <ele>210.7</ele>
        <time>2021-05-24T08:07:46Z</time>
      </trkpt>
      <trkpt lat="42.8565380" lon="-8.5749550">
        <ele>210.9</ele>
        <time>2021-05-24T08:07:47Z</time>
      </trkpt>
      <trkpt lat="42.8565500" lon="-8.5749610">
        <ele>211.1</ele>
        <time>2021-05-24T08:07:48Z</time>
      </trkpt>
      <trkpt lat="42.8565570" lon="-8.5749760">
        <ele>211.2</ele>
        <time>2021-05-24T08:07:49Z</time>
      </trkpt>
      <trkpt lat="42.8565620" lon="-8.5749900">
        <ele>211.4</ele>
        <time>2021-05-24T08:07:50Z</time>
      </trkpt>
      <trkpt lat="42.8565670" lon="-8.5750110">
        <ele>211.6</ele>
        <time>2021-05-24T08:07:51Z</time>
      </trkpt>
      <trkpt lat="42.8565760" lon="-8.5750310">
        <ele>211.8</ele>
        <time>2021-05-24T08:07:52Z</time>
      </trkpt>
      <trkpt lat="42.8565800" lon="-8.5750490">
        <ele>211.9</ele>
        <time>2021-05-24T08:07:53Z</time>
      </trkpt>
      <trkpt lat="42.8565880" lon="-8.5750590">
        <ele>212.1</ele>
        <time>2021-05-24T08:07:54Z</time>
      </trkpt>
      <trkpt lat="42.8565950" lon="-8.5750850">
        <ele>212.3</ele>
        <time>2021-05-24T08:07:55Z</time>
      </trkpt>
      <trkpt lat="42.8566010" lon="-8.5751030">
        <ele>212.4</ele>
        <time>2021-05-24T08:07:56Z</time>
      </trkpt>
      <trkpt lat="42.8566080" lon="-8.5751130">
        <ele>212.6</ele>
        <time>2021-05-24T08:07:57Z</time>
      </trkpt>
      <trkpt lat="42.8566060" lon="-8.5751300">
        <ele>212.7</ele>
        <time>2021-05-24T08:07:58Z</time>
      </trkpt>
      <trkpt lat="42.8566140" lon="-8.5751430">
        <ele>212.8</ele>
        <time>2021-05-24T08:07:59Z</time>
      </trkpt>
      <trkpt lat="42.8566270" lon="-8.5751640">
        <ele>213.0</ele>
        <time>2021-05-24T08:08:00Z</time>
      </trkpt>
      <trkpt lat="42.8566430" lon="-8.5751840">
        <ele>213.2</ele>
        <time>2021-05-24T08:08:01Z</time>
      </trkpt>
      <trkpt lat="42.8566530" lon="-8.5751890">
        <ele>213.3</ele>
        <time>2021-05-24T08:08:02Z</time>
      </trkpt>
      <trkpt lat="42.8566640" lon="-8.5752050">
        <ele>213.4</ele>
        <time>2021-05-24T08:08:03Z</time>
      </trkpt>
      <trkpt lat="42.8566720" lon="-8.5752220">
        <ele>213.6</ele>
        <time>2021-05-24T08:08:04Z</time>
      </trkpt>
      <trkpt lat="42.8566800" lon="-8.5752390">
        <ele>213.7</ele>
        <time>2021-05-24T08:08:05Z</time>
      </trkpt>
      <trkpt lat="42.8566950" lon="-8.5752500">
        <ele>213.8</ele>
        <time>2021-05-24T08:08:06Z</time>
      </trkpt>
      <trkpt lat="42.8567020" lon="-8.5752640">
        <ele>213.9</ele>
        <time>2021-05-24T08:08:07Z</time>
      </trkpt>
      <trkpt lat="42.8567120" lon="-8.5752810">
        <ele>214.0</ele>
        <time>2021-05-24T08:08:08Z</time>
      </trkpt>
      <trkpt lat="42.8567270" lon="-8.5752910">
        <ele>214.1</ele>
        <time>2021-05-24T08:08:09Z</time>
      </trkpt>
      <trkpt lat="42.8567360" lon="-8.5753040">
        <ele>214.2</ele>
        <time>2021-05-24T08:08:10Z</time>
      </trkpt>
      <trkpt lat="42.8567540" lon="-8.5753210">
        <ele>214.3</ele>
        <time>2021-05-24T08:08:11Z</time>
      </trkpt>
      <trkpt lat="42.8567640" lon="-8.5753270">
        <ele>214.3</ele>
        <time>2021-05-24T08:08:12Z</time>
      </trkpt>
      <trkpt lat="42.8567730" lon="-8.5753320">
        <ele>214.3</ele>
        <time>2021-05-24T08:08:13Z</time>
      </trkpt>
      <trkpt lat="42.8567870" lon="-8.5753450">
        <ele>214.4</ele>
        <time>2021-05-24T08:08:14Z</time>
      </trkpt>
      <trkpt lat="42.8568030" lon="-8.5753520">
        <ele>214.5</ele>
        <time>2021-05-24T08:08:15Z</time>
      </trkpt>
      <trkpt lat="42.8568160" lon="-8.5753590">
        <ele>214.5</ele>
        <time>2021-05-24T08:08:16Z</time>
      </trkpt>
      <trkpt lat="42.8568310" lon="-8.5753660">
        <ele>214.5</ele>
        <time>2021-05-24T08:08:17Z</time>
      </trkpt>
      <trkpt lat="42.8568450" lon="-8.5753730">
        <ele>214.6</ele>
        <time>2021-05-24T08:08:18Z</time>
      </trkpt>
      <trkpt lat="42.8568580" lon="-8.5753750">
        <ele>214.6</ele>
        <time>2021-05-24T08:08:19Z</time>
      </trkpt>
      <trkpt lat="42.8568680" lon="-8.5753630">
        <ele>214.6</ele>
        <time>2021-05-24T08:08:20Z</time>
      </trkpt>
      <trkpt lat="42.8568780" lon="-8.5753690">
        <ele>214.6</ele>
        <time>2021-05-24T08:08:21Z</time>
      </trkpt>
      <trkpt lat="42.8568850" lon="-8.5753720">
        <ele>214.6</ele>
        <time>2021-05-24T08:08:22Z</time>
      </trkpt>
      <trkpt lat="42.8568700" lon="-8.5753680">
        <ele>214.6</ele>
        <time>2021-05-24T08:08:23Z</time>
      </trkpt>
      <trkpt lat="42.8568660" lon="-8.5753660">
        <ele>214.6</ele>
        <time>2021-05-24T08:08:24Z</time>
      </trkpt>
      <trkpt lat="42.8568650" lon="-8.5753690">
        <ele>214.6</ele>
        <time>2021-05-24T08:08:25Z</time>
      </trkpt>
      <trkpt lat="42.8568630" lon="-8.5753720">
        <ele>214.6</ele>
        <time>2021-05-24T08:08:26Z</time>
      </trkpt>
      <trkpt lat="42.8568620" lon="-8.5753720">
        <ele>214.6</ele>
        <time>2021-05-24T08:08:27Z</time>
      </trkpt>
      <trkpt lat="42.8568600" lon="-8.5753720">
        <ele>214.6</ele>
        <time>2021-05-24T08:08:28Z</time>
      </trkpt>
      <trkpt lat="42.8568530" lon="-8.5753750">
        <ele>214.6</ele>
        <time>2021-05-24T08:08:29Z</time>
      </trkpt>
      <trkpt lat="42.8568510" lon="-8.5753730">
        <ele>214.6</ele>
        <time>2021-05-24T08:08:30Z</time>
      </trkpt>
      <trkpt lat="42.8568450" lon="-8.5753730">
        <ele>214.6</ele>
        <time>2021-05-24T08:08:31Z</time>
      </trkpt>
      <trkpt lat="42.8568420" lon="-8.5753730">
        <ele>214.6</ele>
        <time>2021-05-24T08:08:32Z</time>
      </trkpt>
      <trkpt lat="42.8568390" lon="-8.5753760">
        <ele>214.6</ele>
        <time>2021-05-24T08:08:33Z</time>
      </trkpt>
      <trkpt lat="42.8568370" lon="-8.5753740">
        <ele>214.6</ele>
        <time>2021-05-24T08:08:34Z</time>
      </trkpt>
      <trkpt lat="42.8568340" lon="-8.5753690">
        <ele>214.5</ele>
        <time>2021-05-24T08:08:35Z</time>
      </trkpt>
      <trkpt lat="42.8568290" lon="-8.5753670">
        <ele>214.5</ele>
        <time>2021-05-24T08:08:36Z</time>
      </trkpt>
      <trkpt lat="42.8568250" lon="-8.5753660">
        <ele>214.5</ele>
        <time>2021-05-24T08:08:37Z</time>
      </trkpt>
      <trkpt lat="42.8568260" lon="-8.5753660">
        <ele>214.5</ele>
        <time>2021-05-24T08:08:38Z</time>
      </trkpt>
      <trkpt lat="42.8568270" lon="-8.5753680">
        <ele>214.5</ele>
        <time>2021-05-24T08:08:39Z</time>
      </trkpt>
      <trkpt lat="42.8568290" lon="-8.5753690">
        <ele>214.5</ele>
        <time>2021-05-24T08:08:40Z</time>
      </trkpt>
      <trkpt lat="42.8568310" lon="-8.5753710">
        <ele>214.5</ele>
        <time>2021-05-24T08:08:41Z</time>
      </trkpt>
      <trkpt lat="42.8568320" lon="-8.5753720">
        <ele>214.5</ele>
        <time>2021-05-24T08:08:42Z</time>
      </trkpt>
      <trkpt lat="42.8568340" lon="-8.5753730">
        <ele>214.5</ele>
        <time>2021-05-24T08:08:43Z</time>
      </trkpt>
      <trkpt lat="42.8568360" lon="-8.5753750">
        <ele>214.5</ele>
        <time>2021-05-24T08:08:44Z</time>
      </trkpt>
      <trkpt lat="42.8568380" lon="-8.5753760">
        <ele>214.5</ele>
        <time>2021-05-24T08:08:45Z</time>
      </trkpt>
      <trkpt lat="42.8568390" lon="-8.5753770">
        <ele>214.5</ele>
        <time>2021-05-24T08:08:46Z</time>
      </trkpt>
      <trkpt lat="42.8568410" lon="-8.5753790">
        <ele>214.5</ele>
        <time>2021-05-24T08:08:47Z</time>
      </trkpt>
      <trkpt lat="42.8568430" lon="-8.5753800">
        <ele>214.5</ele>
        <time>2021-05-24T08:08:48Z</time>
      </trkpt>
      <trkpt lat="42.8568440" lon="-8.5753820">
        <ele>214.5</ele>
        <time>2021-05-24T08:08:49Z</time>
      </trkpt>
      <trkpt lat="42.8568460" lon="-8.5753830">
        <ele>214.5</ele>
        <time>2021-05-24T08:08:50Z</time>
      </trkpt>
      <trkpt lat="42.8568480" lon="-8.5753840">
        <ele>214.5</ele>
        <time>2021-05-24T08:08:51Z</time>
      </trkpt>
      <trkpt lat="42.8568490" lon="-8.5753860">
        <ele>214.5</ele>
        <time>2021-05-24T08:08:52Z</time>
      </trkpt>
      <trkpt lat="42.8568510" lon="-8.5753870">
        <ele>214.5</ele>
        <time>2021-05-24T08:08:53Z</time>
      </trkpt>
      <trkpt lat="42.8568530" lon="-8.5753890">
        <ele>214.5</ele>
        <time>2021-05-24T08:08:54Z</time>
      </trkpt>
      <trkpt lat="42.8568540" lon="-8.5753900">
        <ele>214.5</ele>
        <time>2021-05-24T08:08:55Z</time>
      </trkpt>
      <trkpt lat="42.8568560" lon="-8.5753910">
        <ele>214.5</ele>
        <time>2021-05-24T08:08:56Z</time>
      </trkpt>
      <trkpt lat="42.8568580" lon="-8.5753930">
        <ele>214.5</ele>
        <time>2021-05-24T08:08:57Z</time>
      </trkpt>
      <trkpt lat="42.8568600" lon="-8.5753940">
        <ele>214.5</ele>
        <time>2021-05-24T08:08:58Z</time>
      </trkpt>
      <trkpt lat="42.8568610" lon="-8.5753950">
        <ele>214.5</ele>
        <time>2021-05-24T08:08:59Z</time>
      </trkpt>
      <trkpt lat="42.8568630" lon="-8.5753970">
        <ele>214.5</ele>
        <time>2021-05-24T08:09:00Z</time>
      </trkpt>
      <trkpt lat="42.8568650" lon="-8.5753980">
        <ele>214.4</ele>
        <time>2021-05-24T08:09:01Z</time>
      </trkpt>
      <trkpt lat="42.8568660" lon="-8.5754000">
        <ele>214.4</ele>
        <time>2021-05-24T08:09:02Z</time>
      </trkpt>
      <trkpt lat="42.8568680" lon="-8.5754010">
        <ele>214.4</ele>
        <time>2021-05-24T08:09:03Z</time>
      </trkpt>
      <trkpt lat="42.8569050" lon="-8.5754000">
        <ele>214.4</ele>
        <time>2021-05-24T08:09:04Z</time>
      </trkpt>
      <trkpt lat="42.8569330" lon="-8.5754100">
        <ele>214.3</ele>
        <time>2021-05-24T08:09:05Z</time>
      </trkpt>
      <trkpt lat="42.8569600" lon="-8.5754260">
        <ele>214.2</ele>
        <time>2021-05-24T08:09:06Z</time>
      </trkpt>
      <trkpt lat="42.8569840" lon="-8.5754450">
        <ele>214.1</ele>
        <time>2021-05-24T08:09:07Z</time>
      </trkpt>
      <trkpt lat="42.8570150" lon="-8.5754390">
        <ele>214.0</ele>
        <time>2021-05-24T08:09:08Z</time>
      </trkpt>
      <trkpt lat="42.8570430" lon="-8.5754480">
        <ele>213.8</ele>
        <time>2021-05-24T08:09:09Z</time>
      </trkpt>
      <trkpt lat="42.8570840" lon="-8.5754680">
        <ele>213.7</ele>
        <time>2021-05-24T08:09:10Z</time>
      </trkpt>
      <trkpt lat="42.8570990" lon="-8.5754860">
        <ele>213.6</ele>
        <time>2021-05-24T08:09:11Z</time>
      </trkpt>
      <trkpt lat="42.8571250" lon="-8.5755100">
        <ele>213.4</ele>
        <time>2021-05-24T08:09:12Z</time>
      </trkpt>
      <trkpt lat="42.8571650" lon="-8.5755320">
        <ele>213.2</ele>
        <time>2021-05-24T08:09:13Z</time>
      </trkpt>
      <trkpt lat="42.8571950" lon="-8.5755340">
        <ele>213.1</ele>
        <time>2021-05-24T08:09:14Z</time>
      </trkpt>
      <trkpt lat="42.8572200" lon="-8.5755690">
        <ele>213.0</ele>
        <time>2021-05-24T08:09:15Z</time>
      </trkpt>
      <trkpt lat="42.8572270" lon="-8.5755820">
        <ele>212.9</ele>
        <time>2021-05-24T08:09:16Z</time>
      </trkpt>
      <trkpt lat="42.8572700" lon="-8.5755970">
        <ele>212.7</ele>
        <time>2021-05-24T08:09:17Z</time>
      </trkpt>
      <trkpt lat="42.8572870" lon="-8.5756080">
        <ele>212.6</ele>
        <time>2021-05-24T08:09:18Z</time>
      </trkpt>
      <trkpt lat="42.8573230" lon="-8.5756180">
        <ele>212.5</ele>
        <time>2021-05-24T08:09:19Z</time>
      </trkpt>
      <trkpt lat="42.8573380" lon="-8.5756210">
        <ele>212.4</ele>
        <time>2021-05-24T08:09:20Z</time>
      </trkpt>
      <trkpt lat="42.8573600" lon="-8.5756420">
        <ele>212.3</ele>
        <time>2021-05-24T08:09:21Z</time>
      </trkpt>
      <trkpt lat="42.8573860" lon="-8.5756550">
        <ele>212.2</ele>
        <time>2021-05-24T08:09:22Z</time>
      </trkpt>
      <trkpt lat="42.8574210" lon="-8.5756710">
        <ele>212.1</ele>
        <time>2021-05-24T08:09:23Z</time>
      </trkpt>
      <trkpt lat="42.8574340" lon="-8.5756790">
        <ele>212.0</ele>
        <time>2021-05-24T08:09:24Z</time>
      </trkpt>
      <trkpt lat="42.8574640" lon="-8.5756990">
        <ele>211.9</ele>
        <time>2021-05-24T08:09:25Z</time>
      </trkpt>
      <trkpt lat="42.8574720" lon="-8.5757060">
        <ele>211.8</ele>
        <time>2021-05-24T08:09:26Z</time>
      </trkpt>
      <trkpt lat="42.8575040" lon="-8.5757160">
        <ele>211.7</ele>
        <time>2021-05-24T08:09:27Z</time>
      </trkpt>
      <trkpt lat="42.8575150" lon="-8.5757200">
        <ele>211.6</ele>
        <time>2021-05-24T08:09:28Z</time>
      </trkpt>
      <trkpt lat="42.8575470" lon="-8.5757370">
        <ele>211.5</ele>
        <time>2021-05-24T08:09:29Z</time>
      </trkpt>
      <trkpt lat="42.8575570" lon="-8.5757430">
        <ele>211.4</ele>
        <time>2021-05-24T08:09:30Z</time>
      </trkpt>
      <trkpt lat="42.8575770" lon="-8.5757690">
        <ele>211.3</ele>
        <time>2021-05-24T08:09:31Z</time>
      </trkpt>
      <trkpt lat="42.8575870" lon="-8.5757760">
        <ele>211.3</ele>
        <time>2021-05-24T08:09:32Z</time>
      </trkpt>
      <trkpt lat="42.8576190" lon="-8.5757990">
        <ele>211.1</ele>
        <time>2021-05-24T08:09:33Z</time>
      </trkpt>
      <trkpt lat="42.8576310" lon="-8.5758010">
        <ele>211.1</ele>
        <time>2021-05-24T08:09:34Z</time>
      </trkpt>
      <trkpt lat="42.8576410" lon="-8.5758130">
        <ele>211.0</ele>
        <time>2021-05-24T08:09:35Z</time>
      </trkpt>
      <trkpt lat="42.8576560" lon="-8.5758200">
        <ele>210.9</ele>
        <time>2021-05-24T08:09:36Z</time>
      </trkpt>
      <trkpt lat="42.8576850" lon="-8.5758330">
        <ele>210.8</ele>
        <time>2021-05-24T08:09:37Z</time>
      </trkpt>
      <trkpt lat="42.8576940" lon="-8.5758400">
        <ele>210.8</ele>
        <time>2021-05-24T08:09:38Z</time>
      </trkpt>
      <trkpt lat="42.8577090" lon="-8.5758520">
        <ele>210.7</ele>
        <time>2021-05-24T08:09:39Z</time>
      </trkpt>
      <trkpt lat="42.8577200" lon="-8.5758590">
        <ele>210.6</ele>
        <time>2021-05-24T08:09:40Z</time>
      </trkpt>
      <trkpt lat="42.8577460" lon="-8.5758850">
        <ele>210.5</ele>
        <time>2021-05-24T08:09:41Z</time>
      </trkpt>
      <trkpt lat="42.8577520" lon="-8.5758950">
        <ele>210.5</ele>
        <time>2021-05-24T08:09:42Z</time>
      </trkpt>
      <trkpt lat="42.8577770" lon="-8.5759040">
        <ele>210.4</ele>
        <time>2021-05-24T08:09:43Z</time>
      </trkpt>
      <trkpt lat="42.8577860" lon="-8.5759110">
        <ele>210.3</ele>
        <time>2021-05-24T08:09:44Z</time>
      </trkpt>
      <trkpt lat="42.8578000" lon="-8.5759220">
        <ele>210.3</ele>
        <time>2021-05-24T08:09:45Z</time>
      </trkpt>
      <trkpt lat="42.8578090" lon="-8.5759450">
        <ele>210.2</ele>
        <time>2021-05-24T08:09:46Z</time>
      </trkpt>
      <trkpt lat="42.8578200" lon="-8.5759540">
        <ele>210.2</ele>
        <time>2021-05-24T08:09:47Z</time>
      </trkpt>
      <trkpt lat="42.8578340" lon="-8.5759660">
        <ele>210.1</ele>
        <time>2021-05-24T08:09:48Z</time>
      </trkpt>
      <trkpt lat="42.8578600" lon="-8.5759870">
        <ele>210.0</ele>
        <time>2021-05-24T08:09:49Z</time>
      </trkpt>
      <trkpt lat="42.8578660" lon="-8.5759950">
        <ele>210.0</ele>
        <time>2021-05-24T08:09:50Z</time>
      </trkpt>
      <trkpt lat="42.8578810" lon="-8.5760010">
        <ele>210.0</ele>
        <time>2021-05-24T08:09:51Z</time>
      </trkpt>
      <trkpt lat="42.8578920" lon="-8.5760220">
        <ele>209.9</ele>
        <time>2021-05-24T08:09:52Z</time>
      </trkpt>
      <trkpt lat="42.8578980" lon="-8.5760310">
        <ele>209.9</ele>
        <time>2021-05-24T08:09:53Z</time>
      </trkpt>
      <trkpt lat="42.8579120" lon="-8.5760460">
        <ele>209.8</ele>
        <time>2021-05-24T08:09:54Z</time>
      </trkpt>
      <trkpt lat="42.8579260" lon="-8.5760550">
        <ele>209.8</ele>
        <time>2021-05-24T08:09:55Z</time>
      </trkpt>
      <trkpt lat="42.8579370" lon="-8.5760680">
        <ele>209.7</ele>
        <time>2021-05-24T08:09:56Z</time>
      </trkpt>
      <trkpt lat="42.8579420" lon="-8.5760930">
        <ele>209.7</ele>
        <time>2021-05-24T08:09:57Z</time>
      </trkpt>
      <trkpt lat="42.8579550" lon="-8.5761070">
        <ele>209.6</ele>
        <time>2021-05-24T08:09:58Z</time>
      </trkpt>
      <trkpt lat="42.8579680" lon="-8.5761180">
        <ele>209.6</ele>
        <time>2021-05-24T08:09:59Z</time>
      </trkpt>
      <trkpt lat="42.8579850" lon="-8.5761250">
        <ele>209.5</ele>
        <time>2021-05-24T08:10:00Z</time>
      </trkpt>
      <trkpt lat="42.8580010" lon="-8.5761280">
        <ele>209.5</ele>
        <time>2021-05-24T08:10:01Z</time>
      </trkpt>
      <trkpt lat="42.8580120" lon="-8.5761360">
        <ele>209.4</ele>
        <time>2021-05-24T08:10:02Z</time>
      </trkpt>
      <trkpt lat="42.8580250" lon="-8.5761430">
        <ele>209.4</ele>
        <time>2021-05-24T08:10:03Z</time>
      </trkpt>
      <trkpt lat="42.8580390" lon="-8.5761610">
        <ele>209.3</ele>
        <time>2021-05-24T08:10:04Z</time>
      </trkpt>
      <trkpt lat="42.8580520" lon="-8.5761670">
        <ele>209.3</ele>
        <time>2021-05-24T08:10:05Z</time>
      </trkpt>
      <trkpt lat="42.8580630" lon="-8.5761850">
        <ele>209.2</ele>
        <time>2021-05-24T08:10:06Z</time>
      </trkpt>
      <trkpt lat="42.8580800" lon="-8.5761870">
        <ele>209.1</ele>
        <time>2021-05-24T08:10:07Z</time>
      </trkpt>
      <trkpt lat="42.8580920" lon="-8.5762000">
        <ele>209.1</ele>
        <time>2021-05-24T08:10:08Z</time>
      </trkpt>
      <trkpt lat="42.8581010" lon="-8.5762160">
        <ele>209.0</ele>
        <time>2021-05-24T08:10:09Z</time>
      </trkpt>
      <trkpt lat="42.8581090" lon="-8.5762360">
        <ele>209.0</ele>
        <time>2021-05-24T08:10:10Z</time>
      </trkpt>
      <trkpt lat="42.8581250" lon="-8.5762410">
        <ele>208.9</ele>
        <time>2021-05-24T08:10:11Z</time>
      </trkpt>
      <trkpt lat="42.8581340" lon="-8.5762550">
        <ele>208.9</ele>
        <time>2021-05-24T08:10:12Z</time>
      </trkpt>
      <trkpt lat="42.8581460" lon="-8.5762660">
        <ele>208.8</ele>
        <time>2021-05-24T08:10:13Z</time>
      </trkpt>
      <trkpt lat="42.8581540" lon="-8.5762730">
        <ele>208.8</ele>
        <time>2021-05-24T08:10:14Z</time>
      </trkpt>
      <trkpt lat="42.8581610" lon="-8.5762880">
        <ele>208.7</ele>
        <time>2021-05-24T08:10:15Z</time>
      </trkpt>
      <trkpt lat="42.8581780" lon="-8.5762980">
        <ele>208.7</ele>
        <time>2021-05-24T08:10:16Z</time>
      </trkpt>
      <trkpt lat="42.8581860" lon="-8.5763080">
        <ele>208.6</ele>
        <time>2021-05-24T08:10:17Z</time>
      </trkpt>
      <trkpt lat="42.8581940" lon="-8.5763210">
        <ele>208.6</ele>
        <time>2021-05-24T08:10:18Z</time>
      </trkpt>
      <trkpt lat="42.8582030" lon="-8.5763370">
        <ele>208.5</ele>
        <time>2021-05-24T08:10:19Z</time>
      </trkpt>
      <trkpt lat="42.8582160" lon="-8.5763450">
        <ele>208.5</ele>
        <time>2021-05-24T08:10:20Z</time>
      </trkpt>
      <trkpt lat="42.8582280" lon="-8.5763530">
        <ele>208.4</ele>
        <time>2021-05-24T08:10:21Z</time>
      </trkpt>
      <trkpt lat="42.8582350" lon="-8.5763700">
        <ele>208.4</ele>
        <time>2021-05-24T08:10:22Z</time>
      </trkpt>
      <trkpt lat="42.8582500" lon="-8.5763740">
        <ele>208.3</ele>
        <time>2021-05-24T08:10:23Z</time>
      </trkpt>
      <trkpt lat="42.8582630" lon="-8.5763900">
        <ele>208.3</ele>
        <time>2021-05-24T08:10:24Z</time>
      </trkpt>
      <trkpt lat="42.8582660" lon="-8.5764090">
        <ele>208.2</ele>
        <time>2021-05-24T08:10:25Z</time>
      </trkpt>
      <trkpt lat="42.8582800" lon="-8.5764210">
        <ele>208.2</ele>
        <time>2021-05-24T08:10:26Z</time>
      </trkpt>
      <trkpt lat="42.8582900" lon="-8.5764280">
        <ele>208.1</ele>
        <time>2021-05-24T08:10:27Z</time>
      </trkpt>
      <trkpt lat="42.8582950" lon="-8.5764360">
        <ele>208.1</ele>
        <time>2021-05-24T08:10:28Z</time>
      </trkpt>
      <trkpt lat="42.8583010" lon="-8.5764500">
        <ele>208.0</ele>
        <time>2021-05-24T08:10:29Z</time>
      </trkpt>
      <trkpt lat="42.8583110" lon="-8.5764610">
        <ele>208.0</ele>
        <time>2021-05-24T08:10:30Z</time>
      </trkpt>
      <trkpt lat="42.8583280" lon="-8.5764750">
        <ele>207.9</ele>
        <time>2021-05-24T08:10:31Z</time>
      </trkpt>
      <trkpt lat="42.8583350" lon="-8.5764820">
        <ele>207.9</ele>
        <time>2021-05-24T08:10:32Z</time>
      </trkpt>
      <trkpt lat="42.8583420" lon="-8.5764890">
        <ele>207.9</ele>
        <time>2021-05-24T08:10:33Z</time>
      </trkpt>
      <trkpt lat="42.8583370" lon="-8.5764920">
        <ele>207.8</ele>
        <time>2021-05-24T08:10:34Z</time>
      </trkpt>
      <trkpt lat="42.8583500" lon="-8.5765080">
        <ele>207.8</ele>
        <time>2021-05-24T08:10:35Z</time>
      </trkpt>
      <trkpt lat="42.8583570" lon="-8.5765140">
        <ele>207.8</ele>
        <time>2021-05-24T08:10:36Z</time>
      </trkpt>
      <trkpt lat="42.8583650" lon="-8.5765200">
        <ele>207.7</ele>
        <time>2021-05-24T08:10:37Z</time>
      </trkpt>
      <trkpt lat="42.8583790" lon="-8.5765330">
        <ele>207.7</ele>
        <time>2021-05-24T08:10:38Z</time>
      </trkpt>
      <trkpt lat="42.8583840" lon="-8.5765400">
        <ele>207.6</ele>
        <time>2021-05-24T08:10:39Z</time>
      </trkpt>
      <trkpt lat="42.8583880" lon="-8.5765470">
        <ele>207.6</ele>
        <time>2021-05-24T08:10:40Z</time>
      </trkpt>
      <trkpt lat="42.8583930" lon="-8.5765540">
        <ele>207.6</ele>
        <time>2021-05-24T08:10:41Z</time>
      </trkpt>
      <trkpt lat="42.8584170" lon="-8.5765710">
        <ele>207.5</ele>
        <time>2021-05-24T08:10:42Z</time>
      </trkpt>
      <trkpt lat="42.8584230" lon="-8.5765750">
        <ele>207.5</ele>
        <time>2021-05-24T08:10:43Z</time>
      </trkpt>
      <trkpt lat="42.8584290" lon="-8.5765780">
        <ele>207.4</ele>
        <time>2021-05-24T08:10:44Z</time>
      </trkpt>
      <trkpt lat="42.8584280" lon="-8.5765810">
        <ele>207.4</ele>
        <time>2021-05-24T08:10:45Z</time>
      </trkpt>
      <trkpt lat="42.8584440" lon="-8.5765960">
        <ele>207.4</ele>
        <time>2021-05-24T08:10:46Z</time>
      </trkpt>
      <trkpt lat="42.8584490" lon="-8.5766060">
        <ele>207.3</ele>
        <time>2021-05-24T08:10:47Z</time>
      </trkpt>
      <trkpt lat="42.8584600" lon="-8.5766170">
        <ele>207.3</ele>
        <time>2021-05-24T08:10:48Z</time>
      </trkpt>
      <trkpt lat="42.8584660" lon="-8.5766230">
        <ele>207.3</ele>
        <time>2021-05-24T08:10:49Z</time>
      </trkpt>
      <trkpt lat="42.8584730" lon="-8.5766280">
        <ele>207.2</ele>
        <time>2021-05-24T08:10:50Z</time>
      </trkpt>
      <trkpt lat="42.8584790" lon="-8.5766340">
        <ele>207.2</ele>
        <time>2021-05-24T08:10:51Z</time>
      </trkpt>
      <trkpt lat="42.8584910" lon="-8.5766420">
        <ele>207.2</ele>
        <time>2021-05-24T08:10:52Z</time>
      </trkpt>
      <trkpt lat="42.8585040" lon="-8.5766420">
        <ele>207.1</ele>
        <time>2021-05-24T08:10:53Z</time>
      </trkpt>
      <trkpt lat="42.8585090" lon="-8.5766540">
        <ele>207.1</ele>
        <time>2021-05-24T08:10:54Z</time>
      </trkpt>
      <trkpt lat="42.8585150" lon="-8.5766700">
        <ele>207.0</ele>
        <time>2021-05-24T08:10:55Z</time>
      </trkpt>
      <trkpt lat="42.8585180" lon="-8.5766830">
        <ele>207.0</ele>
        <time>2021-05-24T08:10:56Z</time>
      </trkpt>
      <trkpt lat="42.8585230" lon="-8.5766930">
        <ele>207.0</ele>
        <time>2021-05-24T08:10:57Z</time>
      </trkpt>
      <trkpt lat="42.8585410" lon="-8.5767010">
        <ele>206.9</ele>
        <time>2021-05-24T08:10:58Z</time>
      </trkpt>
      <trkpt lat="42.8585480" lon="-8.5767110">
        <ele>206.9</ele>
        <time>2021-05-24T08:10:59Z</time>
      </trkpt>
      <trkpt lat="42.8585550" lon="-8.5767200">
        <ele>206.9</ele>
        <time>2021-05-24T08:11:00Z</time>
      </trkpt>
      <trkpt lat="42.8585700" lon="-8.5767330">
        <ele>206.8</ele>
        <time>2021-05-24T08:11:01Z</time>
      </trkpt>
      <trkpt lat="42.8585800" lon="-8.5767480">
        <ele>206.8</ele>
        <time>2021-05-24T08:11:02Z</time>
      </trkpt>
      <trkpt lat="42.8586010" lon="-8.5767620">
        <ele>206.7</ele>
        <time>2021-05-24T08:11:03Z</time>
      </trkpt>
      <trkpt lat="42.8586100" lon="-8.5767700">
        <ele>206.7</ele>
        <time>2021-05-24T08:11:04Z</time>
      </trkpt>
      <trkpt lat="42.8586180" lon="-8.5767780">
        <ele>206.6</ele>
        <time>2021-05-24T08:11:05Z</time>
      </trkpt>
      <trkpt lat="42.8586320" lon="-8.5768030">
        <ele>206.6</ele>
        <time>2021-05-24T08:11:06Z</time>
      </trkpt>
      <trkpt lat="42.8586390" lon="-8.5768110">
        <ele>206.6</ele>
        <time>2021-05-24T08:11:07Z</time>
      </trkpt>
      <trkpt lat="42.8586450" lon="-8.5768200">
        <ele>206.5</ele>
        <time>2021-05-24T08:11:08Z</time>
      </trkpt>
      <trkpt lat="42.8586540" lon="-8.5768250">
        <ele>206.5</ele>
        <time>2021-05-24T08:11:09Z</time>
      </trkpt>
      <trkpt lat="42.8586660" lon="-8.5768380">
        <ele>206.5</ele>
        <time>2021-05-24T08:11:10Z</time>
      </trkpt>
      <trkpt lat="42.8586680" lon="-8.5768490">
        <ele>206.5</ele>
        <time>2021-05-24T08:11:11Z</time>
      </trkpt>
      <trkpt lat="42.8586800" lon="-8.5768560">
        <ele>206.4</ele>
        <time>2021-05-24T08:11:12Z</time>
      </trkpt>
      <trkpt lat="42.8586880" lon="-8.5768700">
        <ele>206.4</ele>
        <time>2021-05-24T08:11:13Z</time>
      </trkpt>
      <trkpt lat="42.8586900" lon="-8.5768780">
        <ele>206.4</ele>
        <time>2021-05-24T08:11:14Z</time>
      </trkpt>
      <trkpt lat="42.8587010" lon="-8.5768880">
        <ele>206.3</ele>
        <time>2021-05-24T08:11:15Z</time>
      </trkpt>
      <trkpt lat="42.8587100" lon="-8.5769020">
        <ele>206.3</ele>
        <time>2021-05-24T08:11:16Z</time>
      </trkpt>
      <trkpt lat="42.8587120" lon="-8.5769120">
        <ele>206.3</ele>
        <time>2021-05-24T08:11:17Z</time>
      </trkpt>
      <trkpt lat="42.8587140" lon="-8.5769220">
        <ele>206.3</ele>
        <time>2021-05-24T08:11:18Z</time>
      </trkpt>
      <trkpt lat="42.8587170" lon="-8.5769310">
        <ele>206.3</ele>
        <time>2021-05-24T08:11:19Z</time>
      </trkpt>
      <trkpt lat="42.8587190" lon="-8.5769400">
        <ele>206.2</ele>
        <time>2021-05-24T08:11:20Z</time>
      </trkpt>
      <trkpt lat="42.8587260" lon="-8.5769540">
        <ele>206.2</ele>
        <time>2021-05-24T08:11:21Z</time>
      </trkpt>
      <trkpt lat="42.8587390" lon="-8.5769820">
        <ele>206.2</ele>
        <time>2021-05-24T08:11:22Z</time>
      </trkpt>
      <trkpt lat="42.8587430" lon="-8.5769910">
        <ele>206.1</ele>
        <time>2021-05-24T08:11:23Z</time>
      </trkpt>
      <trkpt lat="42.8587470" lon="-8.5769990">
        <ele>206.1</ele>
        <time>2021-05-24T08:11:24Z</time>
      </trkpt>
      <trkpt lat="42.8587580" lon="-8.5770100">
        <ele>206.1</ele>
        <time>2021-05-24T08:11:25Z</time>
      </trkpt>
      <trkpt lat="42.8587560" lon="-8.5770250">
        <ele>206.1</ele>
        <time>2021-05-24T08:11:26Z</time>
      </trkpt>
      <trkpt lat="42.8587660" lon="-8.5770330">
        <ele>206.0</ele>
        <time>2021-05-24T08:11:27Z</time>
      </trkpt>
      <trkpt lat="42.8587750" lon="-8.5770430">
        <ele>206.0</ele>
        <time>2021-05-24T08:11:28Z</time>
      </trkpt>
      <trkpt lat="42.8587800" lon="-8.5770550">
        <ele>206.0</ele>
        <time>2021-05-24T08:11:29Z</time>
      </trkpt>
      <trkpt lat="42.8587910" lon="-8.5770630">
        <ele>206.0</ele>
        <time>2021-05-24T08:11:30Z</time>
      </trkpt>
      <trkpt lat="42.8588010" lon="-8.5770710">
        <ele>205.9</ele>
        <time>2021-05-24T08:11:31Z</time>
      </trkpt>
      <trkpt lat="42.8588110" lon="-8.5770870">
        <ele>205.9</ele>
        <time>2021-05-24T08:11:32Z</time>
      </trkpt>
      <trkpt lat="42.8588270" lon="-8.5770960">
        <ele>205.9</ele>
        <time>2021-05-24T08:11:33Z</time>
      </trkpt>
      <trkpt lat="42.8588370" lon="-8.5771000">
        <ele>205.9</ele>
        <time>2021-05-24T08:11:34Z</time>
      </trkpt>
      <trkpt lat="42.8588460" lon="-8.5771040">
        <ele>205.8</ele>
        <time>2021-05-24T08:11:35Z</time>
      </trkpt>
      <trkpt lat="42.8588600" lon="-8.5771170">
        <ele>205.8</ele>
        <time>2021-05-24T08:11:36Z</time>
      </trkpt>
      <trkpt lat="42.8588620" lon="-8.5771160">
        <ele>205.8</ele>
        <time>2021-05-24T08:11:37Z</time>
      </trkpt>
      <trkpt lat="42.8588750" lon="-8.5771030">
        <ele>205.8</ele>
        <time>2021-05-24T08:11:38Z</time>
      </trkpt>
      <trkpt lat="42.8588900" lon="-8.5771050">
        <ele>205.7</ele>
        <time>2021-05-24T08:11:39Z</time>
      </trkpt>
      <trkpt lat="42.8589030" lon="-8.5771080">
        <ele>205.7</ele>
        <time>2021-05-24T08:11:40Z</time>
      </trkpt>
      <trkpt lat="42.8589330" lon="-8.5771010">
        <ele>205.6</ele>
        <time>2021-05-24T08:11:41Z</time>
      </trkpt>
      <trkpt lat="42.8589440" lon="-8.5771000">
        <ele>205.6</ele>
        <time>2021-05-24T08:11:42Z</time>
      </trkpt>
      <trkpt lat="42.8589620" lon="-8.5770980">
        <ele>205.6</ele>
        <time>2021-05-24T08:11:43Z</time>
      </trkpt>
      <trkpt lat="42.8589750" lon="-8.5770910">
        <ele>205.5</ele>
        <time>2021-05-24T08:11:44Z</time>
      </trkpt>
      <trkpt lat="42.8589810" lon="-8.5770980">
        <ele>205.5</ele>
        <time>2021-05-24T08:11:45Z</time>
      </trkpt>
      <trkpt lat="42.8589860" lon="-8.5770960">
        <ele>205.5</ele>
        <time>2021-05-24T08:11:46Z</time>
      </trkpt>
      <trkpt lat="42.8589710" lon="-8.5770910">
        <ele>205.5</ele>
        <time>2021-05-24T08:11:47Z</time>
      </trkpt>
      <trkpt lat="42.8589720" lon="-8.5770880">
        <ele>205.5</ele>
        <time>2021-05-24T08:11:48Z</time>
      </trkpt>
      <trkpt lat="42.8589730" lon="-8.5770880">
        <ele>205.5</ele>
        <time>2021-05-24T08:11:49Z</time>
      </trkpt>
      <trkpt lat="42.8589940" lon="-8.5771000">
        <ele>205.4</ele>
        <time>2021-05-24T08:11:50Z</time>
      </trkpt>
      <trkpt lat="42.8590040" lon="-8.5771030">
        <ele>205.4</ele>
        <time>2021-05-24T08:11:51Z</time>
      </trkpt>
      <trkpt lat="42.8590170" lon="-8.5770940">
        <ele>205.4</ele>
        <time>2021-05-24T08:11:52Z</time>
      </trkpt>
      <trkpt lat="42.8590250" lon="-8.5770900">
        <ele>205.3</ele>
        <time>2021-05-24T08:11:53Z</time>
      </trkpt>
      <trkpt lat="42.8590340" lon="-8.5770870">
        <ele>205.3</ele>
        <time>2021-05-24T08:11:54Z</time>
      </trkpt>
      <trkpt lat="42.8590420" lon="-8.5770830">
        <ele>205.3</ele>
        <time>2021-05-24T08:11:55Z</time>
      </trkpt>
      <trkpt lat="42.8590650" lon="-8.5770800">
        <ele>205.3</ele>
        <time>2021-05-24T08:11:56Z</time>
      </trkpt>
      <trkpt lat="42.8590740" lon="-8.5770770">
        <ele>205.2</ele>
        <time>2021-05-24T08:11:57Z</time>
      </trkpt>
      <trkpt lat="42.8590820" lon="-8.5770730">
        <ele>205.2</ele>
        <time>2021-05-24T08:11:58Z</time>
      </trkpt>
      <trkpt lat="42.8590920" lon="-8.5770750">
        <ele>205.2</ele>
        <time>2021-05-24T08:11:59Z</time>
      </trkpt>
      <trkpt lat="42.8591030" lon="-8.5770750">
        <ele>205.2</ele>
        <time>2021-05-24T08:12:00Z</time>
      </trkpt>
      <trkpt lat="42.8591080" lon="-8.5770800">
        <ele>205.2</ele>
        <time>2021-05-24T08:12:01Z</time>
      </trkpt>
      <trkpt lat="42.8591150" lon="-8.5770750">
        <ele>205.1</ele>
        <time>2021-05-24T08:12:02Z</time>
      </trkpt>
      <trkpt lat="42.8591310" lon="-8.5770700">
        <ele>205.1</ele>
        <time>2021-05-24T08:12:03Z</time>
      </trkpt>
      <trkpt lat="42.8591430" lon="-8.5770710">
        <ele>205.1</ele>
        <time>2021-05-24T08:12:04Z</time>
      </trkpt>
      <trkpt lat="42.8591680" lon="-8.5770640">
        <ele>205.0</ele>
        <time>2021-05-24T08:12:05Z</time>
      </trkpt>
      <trkpt lat="42.8591780" lon="-8.5770590">
        <ele>205.0</ele>
        <time>2021-05-24T08:12:06Z</time>
      </trkpt>
      <trkpt lat="42.8591870" lon="-8.5770550">
        <ele>205.0</ele>
        <time>2021-05-24T08:12:07Z</time>
      </trkpt>
      <trkpt lat="42.8592010" lon="-8.5770510">
        <ele>204.9</ele>
        <time>2021-05-24T08:12:08Z</time>
      </trkpt>
      <trkpt lat="42.8592150" lon="-8.5770450">
        <ele>204.9</ele>
        <time>2021-05-24T08:12:09Z</time>
      </trkpt>
      <trkpt lat="42.8592410" lon="-8.5770260">
        <ele>204.8</ele>
        <time>2021-05-24T08:12:10Z</time>
      </trkpt>
      <trkpt lat="42.8592510" lon="-8.5770210">
        <ele>204.8</ele>
        <time>2021-05-24T08:12:11Z</time>
      </trkpt>
      <trkpt lat="42.8592650" lon="-8.5770100">
        <ele>204.7</ele>
        <time>2021-05-24T08:12:12Z</time>
      </trkpt>
      <trkpt lat="42.8592790" lon="-8.5769980">
        <ele>204.6</ele>
        <time>2021-05-24T08:12:13Z</time>
      </trkpt>
      <trkpt lat="42.8593060" lon="-8.5769850">
        <ele>204.5</ele>
        <time>2021-05-24T08:12:14Z</time>
      </trkpt>
      <trkpt lat="42.8593140" lon="-8.5769790">
        <ele>204.5</ele>
        <time>2021-05-24T08:12:15Z</time>
      </trkpt>
      <trkpt lat="42.8593300" lon="-8.5769690">
        <ele>204.4</ele>
        <time>2021-05-24T08:12:16Z</time>
      </trkpt>
      <trkpt lat="42.8593450" lon="-8.5769590">
        <ele>204.4</ele>
        <time>2021-05-24T08:12:17Z</time>
      </trkpt>
      <trkpt lat="42.8593740" lon="-8.5769510">
        <ele>204.3</ele>
        <time>2021-05-24T08:12:18Z</time>
      </trkpt>
      <trkpt lat="42.8593820" lon="-8.5769420">
        <ele>204.2</ele>
        <time>2021-05-24T08:12:19Z</time>
      </trkpt>
      <trkpt lat="42.8593970" lon="-8.5769280">
        <ele>204.1</ele>
        <time>2021-05-24T08:12:20Z</time>
      </trkpt>
      <trkpt lat="42.8594080" lon="-8.5769260">
        <ele>204.1</ele>
        <time>2021-05-24T08:12:21Z</time>
      </trkpt>
      <trkpt lat="42.8594170" lon="-8.5769160">
        <ele>204.1</ele>
        <time>2021-05-24T08:12:22Z</time>
      </trkpt>
      <trkpt lat="42.8594280" lon="-8.5768940">
        <ele>204.0</ele>
        <time>2021-05-24T08:12:23Z</time>
      </trkpt>
      <trkpt lat="42.8594460" lon="-8.5768830">
        <ele>203.9</ele>
        <time>2021-05-24T08:12:24Z</time>
      </trkpt>
      <trkpt lat="42.8594460" lon="-8.5768740">
        <ele>203.9</ele>
        <time>2021-05-24T08:12:25Z</time>
      </trkpt>
      <trkpt lat="42.8594530" lon="-8.5768760">
        <ele>203.9</ele>
        <time>2021-05-24T08:12:26Z</time>
      </trkpt>
      <trkpt lat="42.8594690" lon="-8.5768710">
        <ele>203.8</ele>
        <time>2021-05-24T08:12:27Z</time>
      </trkpt>
      <trkpt lat="42.8594820" lon="-8.5768700">
        <ele>203.8</ele>
        <time>2021-05-24T08:12:28Z</time>
      </trkpt>
      <trkpt lat="42.8594880" lon="-8.5768620">
        <ele>203.7</ele>
        <time>2021-05-24T08:12:29Z</time>
      </trkpt>
      <trkpt lat="42.8595050" lon="-8.5768430">
        <ele>203.6</ele>
        <time>2021-05-24T08:12:30Z</time>
      </trkpt>
      <trkpt lat="42.8595210" lon="-8.5768350">
        <ele>203.6</ele>
        <time>2021-05-24T08:12:31Z</time>
      </trkpt>
      <trkpt lat="42.8595360" lon="-8.5768250">
        <ele>203.5</ele>
        <time>2021-05-24T08:12:32Z</time>
      </trkpt>
      <trkpt lat="42.8595630" lon="-8.5768030">
        <ele>203.5</ele>
        <time>2021-05-24T08:12:33Z</time>
      </trkpt>
      <trkpt lat="42.8595710" lon="-8.5768000">
        <ele>203.5</ele>
        <time>2021-05-24T08:12:34Z</time>
      </trkpt>
      <trkpt lat="42.8595980" lon="-8.5767870">
        <ele>203.4</ele>
        <time>2021-05-24T08:12:35Z</time>
      </trkpt>
      <trkpt lat="42.8596060" lon="-8.5767830">
        <ele>203.4</ele>
        <time>2021-05-24T08:12:36Z</time>
      </trkpt>
      <trkpt lat="42.8596280" lon="-8.5767620">
        <ele>203.3</ele>
        <time>2021-05-24T08:12:37Z</time>
      </trkpt>
      <trkpt lat="42.8596360" lon="-8.5767530">
        <ele>203.3</ele>
        <time>2021-05-24T08:12:38Z</time>
      </trkpt>
      <trkpt lat="42.8596520" lon="-8.5767490">
        <ele>203.3</ele>
        <time>2021-05-24T08:12:39Z</time>
      </trkpt>
      <trkpt lat="42.8596670" lon="-8.5767440">
        <ele>203.3</ele>
        <time>2021-05-24T08:12:40Z</time>
      </trkpt>
      <trkpt lat="42.8596820" lon="-8.5767370">
        <ele>203.3</ele>
        <time>2021-05-24T08:12:41Z</time>
      </trkpt>
      <trkpt lat="42.8597000" lon="-8.5767280">
        <ele>203.3</ele>
        <time>2021-05-24T08:12:42Z</time>
      </trkpt>
      <trkpt lat="42.8597100" lon="-8.5767200">
        <ele>203.2</ele>
        <time>2021-05-24T08:12:43Z</time>
      </trkpt>
      <trkpt lat="42.8597180" lon="-8.5767170">
        <ele>203.2</ele>
        <time>2021-05-24T08:12:44Z</time>
      </trkpt>
      <trkpt lat="42.8597280" lon="-8.5767120">
        <ele>203.2</ele>
        <time>2021-05-24T08:12:45Z</time>
      </trkpt>
      <trkpt lat="42.8597380" lon="-8.5767020">
        <ele>203.2</ele>
        <time>2021-05-24T08:12:46Z</time>
      </trkpt>
      <trkpt lat="42.8597500" lon="-8.5766930">
        <ele>203.2</ele>
        <time>2021-05-24T08:12:47Z</time>
      </trkpt>
      <trkpt lat="42.8597580" lon="-8.5766870">
        <ele>203.2</ele>
        <time>2021-05-24T08:12:48Z</time>
      </trkpt>
      <trkpt lat="42.8597740" lon="-8.5766820">
        <ele>203.2</ele>
        <time>2021-05-24T08:12:49Z</time>
      </trkpt>
      <trkpt lat="42.8597890" lon="-8.5766680">
        <ele>203.2</ele>
        <time>2021-05-24T08:12:50Z</time>
      </trkpt>
      <trkpt lat="42.8598070" lon="-8.5766590">
        <ele>203.2</ele>
        <time>2021-05-24T08:12:51Z</time>
      </trkpt>
      <trkpt lat="42.8598170" lon="-8.5766530">
        <ele>203.2</ele>
        <time>2021-05-24T08:12:52Z</time>
      </trkpt>
      <trkpt lat="42.8598270" lon="-8.5766510">
        <ele>203.2</ele>
        <time>2021-05-24T08:12:53Z</time>
      </trkpt>
      <trkpt lat="42.8598440" lon="-8.5766440">
        <ele>203.2</ele>
        <time>2021-05-24T08:12:54Z</time>
      </trkpt>
      <trkpt lat="42.8598540" lon="-8.5766470">
        <ele>203.2</ele>
        <time>2021-05-24T08:12:55Z</time>
      </trkpt>
      <trkpt lat="42.8598630" lon="-8.5766510">
        <ele>203.2</ele>
        <time>2021-05-24T08:12:56Z</time>
      </trkpt>
      <trkpt lat="42.8598720" lon="-8.5766540">
        <ele>203.2</ele>
        <time>2021-05-24T08:12:57Z</time>
      </trkpt>
      <trkpt lat="42.8598770" lon="-8.5766570">
        <ele>203.2</ele>
        <time>2021-05-24T08:12:58Z</time>
      </trkpt>
      <trkpt lat="42.8598820" lon="-8.5766650">
        <ele>203.2</ele>
        <time>2021-05-24T08:12:59Z</time>
      </trkpt>
      <trkpt lat="42.8599000" lon="-8.5766680">
        <ele>203.2</ele>
        <time>2021-05-24T08:13:00Z</time>
      </trkpt>
      <trkpt lat="42.8599210" lon="-8.5766770">
        <ele>203.2</ele>
        <time>2021-05-24T08:13:01Z</time>
      </trkpt>
      <trkpt lat="42.8599290" lon="-8.5766830">
        <ele>203.4</ele>
        <time>2021-05-24T08:13:02Z</time>
      </trkpt>
      <trkpt lat="42.8599370" lon="-8.5766880">
        <ele>203.4</ele>
        <time>2021-05-24T08:13:03Z</time>
      </trkpt>
      <trkpt lat="42.8599510" lon="-8.5767000">
        <ele>203.5</ele>
        <time>2021-05-24T08:13:04Z</time>
      </trkpt>
      <trkpt lat="42.8599590" lon="-8.5767080">
        <ele>203.5</ele>
        <time>2021-05-24T08:13:05Z</time>
      </trkpt>
      <trkpt lat="42.8599680" lon="-8.5767150">
        <ele>203.6</ele>
        <time>2021-05-24T08:13:06Z</time>
      </trkpt>
      <trkpt lat="42.8599660" lon="-8.5767260">
        <ele>203.6</ele>
        <time>2021-05-24T08:13:07Z</time>
      </trkpt>
      <trkpt lat="42.8599750" lon="-8.5767420">
        <ele>203.7</ele>
        <time>2021-05-24T08:13:08Z</time>
      </trkpt>
      <trkpt lat="42.8599870" lon="-8.5767530">
        <ele>203.7</ele>
        <time>2021-05-24T08:13:09Z</time>
      </trkpt>
      <trkpt lat="42.8600030" lon="-8.5767610">
        <ele>203.8</ele>
        <time>2021-05-24T08:13:10Z</time>
      </trkpt>
      <trkpt lat="42.8600220" lon="-8.5767630">
        <ele>203.9</ele>
        <time>2021-05-24T08:13:11Z</time>
      </trkpt>
      <trkpt lat="42.8600490" lon="-8.5767650">
        <ele>204.0</ele>
        <time>2021-05-24T08:13:12Z</time>
      </trkpt>
      <trkpt lat="42.8600590" lon="-8.5767630">
        <ele>204.0</ele>
        <time>2021-05-24T08:13:13Z</time>
      </trkpt>
      <trkpt lat="42.8600690" lon="-8.5767800">
        <ele>204.1</ele>
        <time>2021-05-24T08:13:14Z</time>
      </trkpt>
      <trkpt lat="42.8600790" lon="-8.5767890">
        <ele>204.6</ele>
        <time>2021-05-24T08:13:15Z</time>
      </trkpt>
      <trkpt lat="42.8600880" lon="-8.5767970">
        <ele>204.7</ele>
        <time>2021-05-24T08:13:16Z</time>
      </trkpt>
      <trkpt lat="42.8601040" lon="-8.5768110">
        <ele>204.7</ele>
        <time>2021-05-24T08:13:17Z</time>
      </trkpt>
      <trkpt lat="42.8601100" lon="-8.5768230">
        <ele>204.7</ele>
        <time>2021-05-24T08:13:18Z</time>
      </trkpt>
      <trkpt lat="42.8601150" lon="-8.5768340">
        <ele>204.7</ele>
        <time>2021-05-24T08:13:19Z</time>
      </trkpt>
      <trkpt lat="42.8601290" lon="-8.5768350">
        <ele>204.8</ele>
        <time>2021-05-24T08:13:20Z</time>
      </trkpt>
      <trkpt lat="42.8601390" lon="-8.5768560">
        <ele>205.0</ele>
        <time>2021-05-24T08:13:21Z</time>
      </trkpt>
      <trkpt lat="42.8601520" lon="-8.5768590">
        <ele>205.1</ele>
        <time>2021-05-24T08:13:22Z</time>
      </trkpt>
      <trkpt lat="42.8601650" lon="-8.5768680">
        <ele>205.3</ele>
        <time>2021-05-24T08:13:23Z</time>
      </trkpt>
      <trkpt lat="42.8601820" lon="-8.5768860">
        <ele>205.4</ele>
        <time>2021-05-24T08:13:24Z</time>
      </trkpt>
      <trkpt lat="42.8601900" lon="-8.5768940">
        <ele>205.5</ele>
        <time>2021-05-24T08:13:25Z</time>
      </trkpt>
      <trkpt lat="42.8601970" lon="-8.5769020">
        <ele>205.6</ele>
        <time>2021-05-24T08:13:26Z</time>
      </trkpt>
      <trkpt lat="42.8602060" lon="-8.5769120">
        <ele>205.7</ele>
        <time>2021-05-24T08:13:27Z</time>
      </trkpt>
      <trkpt lat="42.8602120" lon="-8.5769130">
        <ele>205.8</ele>
        <time>2021-05-24T08:13:28Z</time>
      </trkpt>
      <trkpt lat="42.8602240" lon="-8.5769230">
        <ele>205.9</ele>
        <time>2021-05-24T08:13:29Z</time>
      </trkpt>
      <trkpt lat="42.8602400" lon="-8.5769340">
        <ele>206.0</ele>
        <time>2021-05-24T08:13:30Z</time>
      </trkpt>
      <trkpt lat="42.8602490" lon="-8.5769420">
        <ele>206.1</ele>
        <time>2021-05-24T08:13:31Z</time>
      </trkpt>
      <trkpt lat="42.8602590" lon="-8.5769490">
        <ele>206.2</ele>
        <time>2021-05-24T08:13:32Z</time>
      </trkpt>
      <trkpt lat="42.8602790" lon="-8.5769660">
        <ele>206.3</ele>
        <time>2021-05-24T08:13:33Z</time>
      </trkpt>
      <trkpt lat="42.8602870" lon="-8.5769700">
        <ele>206.4</ele>
        <time>2021-05-24T08:13:34Z</time>
      </trkpt>
      <trkpt lat="42.8602950" lon="-8.5769730">
        <ele>206.5</ele>
        <time>2021-05-24T08:13:35Z</time>
      </trkpt>
      <trkpt lat="42.8603120" lon="-8.5769820">
        <ele>206.6</ele>
        <time>2021-05-24T08:13:36Z</time>
      </trkpt>
      <trkpt lat="42.8603200" lon="-8.5769870">
        <ele>206.6</ele>
        <time>2021-05-24T08:13:37Z</time>
      </trkpt>
      <trkpt lat="42.8603290" lon="-8.5769920">
        <ele>206.7</ele>
        <time>2021-05-24T08:13:38Z</time>
      </trkpt>
      <trkpt lat="42.8603370" lon="-8.5769970">
        <ele>206.7</ele>
        <time>2021-05-24T08:13:39Z</time>
      </trkpt>
      <trkpt lat="42.8603380" lon="-8.5770050">
        <ele>206.8</ele>
        <time>2021-05-24T08:13:40Z</time>
      </trkpt>
      <trkpt lat="42.8603500" lon="-8.5770090">
        <ele>206.8</ele>
        <time>2021-05-24T08:13:41Z</time>
      </trkpt>
      <trkpt lat="42.8603640" lon="-8.5770070">
        <ele>206.9</ele>
        <time>2021-05-24T08:13:42Z</time>
      </trkpt>
      <trkpt lat="42.8603830" lon="-8.5770080">
        <ele>207.0</ele>
        <time>2021-05-24T08:13:43Z</time>
      </trkpt>
      <trkpt lat="42.8603940" lon="-8.5770070">
        <ele>207.0</ele>
        <time>2021-05-24T08:13:44Z</time>
      </trkpt>
      <trkpt lat="42.8604040" lon="-8.5770060">
        <ele>207.1</ele>
        <time>2021-05-24T08:13:45Z</time>
      </trkpt>
      <trkpt lat="42.8604140" lon="-8.5770160">
        <ele>207.1</ele>
        <time>2021-05-24T08:13:46Z</time>
      </trkpt>
      <trkpt lat="42.8604230" lon="-8.5770160">
        <ele>207.1</ele>
        <time>2021-05-24T08:13:47Z</time>
      </trkpt>
      <trkpt lat="42.8604340" lon="-8.5770180">
        <ele>207.2</ele>
        <time>2021-05-24T08:13:48Z</time>
      </trkpt>
      <trkpt lat="42.8604540" lon="-8.5770230">
        <ele>207.2</ele>
        <time>2021-05-24T08:13:49Z</time>
      </trkpt>
      <trkpt lat="42.8604650" lon="-8.5770220">
        <ele>207.3</ele>
        <time>2021-05-24T08:13:50Z</time>
      </trkpt>
      <trkpt lat="42.8604750" lon="-8.5770210">
        <ele>207.3</ele>
        <time>2021-05-24T08:13:51Z</time>
      </trkpt>
      <trkpt lat="42.8604950" lon="-8.5770150">
        <ele>207.3</ele>
        <time>2021-05-24T08:13:52Z</time>
      </trkpt>
      <trkpt lat="42.8605090" lon="-8.5770030">
        <ele>207.4</ele>
        <time>2021-05-24T08:13:53Z</time>
      </trkpt>
      <trkpt lat="42.8605250" lon="-8.5770020">
        <ele>207.4</ele>
        <time>2021-05-24T08:13:54Z</time>
      </trkpt>
      <trkpt lat="42.8605420" lon="-8.5770030">
        <ele>207.4</ele>
        <time>2021-05-24T08:13:55Z</time>
      </trkpt>
      <trkpt lat="42.8605590" lon="-8.5770060">
        <ele>207.4</ele>
        <time>2021-05-24T08:13:56Z</time>
      </trkpt>
      <trkpt lat="42.8605740" lon="-8.5770110">
        <ele>207.4</ele>
        <time>2021-05-24T08:13:57Z</time>
      </trkpt>
      <trkpt lat="42.8605890" lon="-8.5770270">
        <ele>207.4</ele>
        <time>2021-05-24T08:13:58Z</time>
      </trkpt>
      <trkpt lat="42.8606060" lon="-8.5770310">
        <ele>207.4</ele>
        <time>2021-05-24T08:13:59Z</time>
      </trkpt>
      <trkpt lat="42.8606230" lon="-8.5770350">
        <ele>207.4</ele>
        <time>2021-05-24T08:14:00Z</time>
      </trkpt>
      <trkpt lat="42.8606390" lon="-8.5770300">
        <ele>207.4</ele>
        <time>2021-05-24T08:14:01Z</time>
      </trkpt>
      <trkpt lat="42.8606540" lon="-8.5770400">
        <ele>207.4</ele>
        <time>2021-05-24T08:14:02Z</time>
      </trkpt>
      <trkpt lat="42.8606670" lon="-8.5770370">
        <ele>207.4</ele>
        <time>2021-05-24T08:14:03Z</time>
      </trkpt>
      <trkpt lat="42.8606840" lon="-8.5770400">
        <ele>207.4</ele>
        <time>2021-05-24T08:14:04Z</time>
      </trkpt>
      <trkpt lat="42.8606950" lon="-8.5770490">
        <ele>207.4</ele>
        <time>2021-05-24T08:14:05Z</time>
      </trkpt>
      <trkpt lat="42.8607110" lon="-8.5770600">
        <ele>207.4</ele>
        <time>2021-05-24T08:14:06Z</time>
      </trkpt>
      <trkpt lat="42.8607240" lon="-8.5770700">
        <ele>207.4</ele>
        <time>2021-05-24T08:14:07Z</time>
      </trkpt>
      <trkpt lat="42.8607370" lon="-8.5770780">
        <ele>207.4</ele>
        <time>2021-05-24T08:14:08Z</time>
      </trkpt>
      <trkpt lat="42.8607520" lon="-8.5770810">
        <ele>207.4</ele>
        <time>2021-05-24T08:14:09Z</time>
      </trkpt>
      <trkpt lat="42.8607680" lon="-8.5770820">
        <ele>207.4</ele>
        <time>2021-05-24T08:14:10Z</time>
      </trkpt>
      <trkpt lat="42.8607820" lon="-8.5770880">
        <ele>207.4</ele>
        <time>2021-05-24T08:14:11Z</time>
      </trkpt>
      <trkpt lat="42.8607950" lon="-8.5771010">
        <ele>207.4</ele>
        <time>2021-05-24T08:14:12Z</time>
      </trkpt>
      <trkpt lat="42.8608110" lon="-8.5771020">
        <ele>207.4</ele>
        <time>2021-05-24T08:14:13Z</time>
      </trkpt>
      <trkpt lat="42.8608250" lon="-8.5771110">
        <ele>207.4</ele>
        <time>2021-05-24T08:14:14Z</time>
      </trkpt>
      <trkpt lat="42.8608370" lon="-8.5771270">
        <ele>207.4</ele>
        <time>2021-05-24T08:14:15Z</time>
      </trkpt>
      <trkpt lat="42.8608520" lon="-8.5771340">
        <ele>207.4</ele>
        <time>2021-05-24T08:14:16Z</time>
      </trkpt>
      <trkpt lat="42.8608690" lon="-8.5771380">
        <ele>207.4</ele>
        <time>2021-05-24T08:14:17Z</time>
      </trkpt>
      <trkpt lat="42.8608820" lon="-8.5771540">
        <ele>207.4</ele>
        <time>2021-05-24T08:14:18Z</time>
      </trkpt>
      <trkpt lat="42.8608920" lon="-8.5771660">
        <ele>207.4</ele>
        <time>2021-05-24T08:14:19Z</time>
      </trkpt>
      <trkpt lat="42.8609100" lon="-8.5771670">
        <ele>207.4</ele>
        <time>2021-05-24T08:14:20Z</time>
      </trkpt>
      <trkpt lat="42.8609230" lon="-8.5771730">
        <ele>207.4</ele>
        <time>2021-05-24T08:14:21Z</time>
      </trkpt>
      <trkpt lat="42.8609420" lon="-8.5771730">
        <ele>207.5</ele>
        <time>2021-05-24T08:14:22Z</time>
      </trkpt>
      <trkpt lat="42.8609570" lon="-8.5771770">
        <ele>207.5</ele>
        <time>2021-05-24T08:14:23Z</time>
      </trkpt>
      <trkpt lat="42.8609800" lon="-8.5771720">
        <ele>207.6</ele>
        <time>2021-05-24T08:14:24Z</time>
      </trkpt>
      <trkpt lat="42.8609890" lon="-8.5771740">
        <ele>207.6</ele>
        <time>2021-05-24T08:14:25Z</time>
      </trkpt>
      <trkpt lat="42.8609980" lon="-8.5771750">
        <ele>207.6</ele>
        <time>2021-05-24T08:14:26Z</time>
      </trkpt>
      <trkpt lat="42.8610090" lon="-8.5771760">
        <ele>207.6</ele>
        <time>2021-05-24T08:14:27Z</time>
      </trkpt>
      <trkpt lat="42.8610170" lon="-8.5771720">
        <ele>207.6</ele>
        <time>2021-05-24T08:14:28Z</time>
      </trkpt>
      <trkpt lat="42.8610070" lon="-8.5771620">
        <ele>207.7</ele>
        <time>2021-05-24T08:14:29Z</time>
      </trkpt>
      <trkpt lat="42.8609990" lon="-8.5771590">
        <ele>207.7</ele>
        <time>2021-05-24T08:14:30Z</time>
      </trkpt>
      <trkpt lat="42.8609970" lon="-8.5771510">
        <ele>207.7</ele>
        <time>2021-05-24T08:14:31Z</time>
      </trkpt>
      <trkpt lat="42.8609920" lon="-8.5771470">
        <ele>207.7</ele>
        <time>2021-05-24T08:14:32Z</time>
      </trkpt>
      <trkpt lat="42.8609880" lon="-8.5771470">
        <ele>207.7</ele>
        <time>2021-05-24T08:14:33Z</time>
      </trkpt>
      <trkpt lat="42.8609880" lon="-8.5771500">
        <ele>207.8</ele>
        <time>2021-05-24T08:14:34Z</time>
      </trkpt>
      <trkpt lat="42.8609870" lon="-8.5771460">
        <ele>207.8</ele>
        <time>2021-05-24T08:14:35Z</time>
      </trkpt>
      <trkpt lat="42.8609800" lon="-8.5771340">
        <ele>207.8</ele>
        <time>2021-05-24T08:14:36Z</time>
      </trkpt>
      <trkpt lat="42.8609830" lon="-8.5771220">
        <ele>207.8</ele>
        <time>2021-05-24T08:14:37Z</time>
      </trkpt>
      <trkpt lat="42.8609860" lon="-8.5771100">
        <ele>207.9</ele>
        <time>2021-05-24T08:14:38Z</time>
      </trkpt>
      <trkpt lat="42.8609880" lon="-8.5770970">
        <ele>207.9</ele>
        <time>2021-05-24T08:14:39Z</time>
      </trkpt>
      <trkpt lat="42.8609910" lon="-8.5770850">
        <ele>207.9</ele>
        <time>2021-05-24T08:14:40Z</time>
      </trkpt>
      <trkpt lat="42.8609970" lon="-8.5770960">
        <ele>208.0</ele>
        <time>2021-05-24T08:14:41Z</time>
      </trkpt>
      <trkpt lat="42.8610110" lon="-8.5770950">
        <ele>208.0</ele>
        <time>2021-05-24T08:14:42Z</time>
      </trkpt>
      <trkpt lat="42.8610160" lon="-8.5770950">
        <ele>208.0</ele>
        <time>2021-05-24T08:14:43Z</time>
      </trkpt>
      <trkpt lat="42.8610190" lon="-8.5770950">
        <ele>208.0</ele>
        <time>2021-05-24T08:14:44Z</time>
      </trkpt>
      <trkpt lat="42.8610260" lon="-8.5770980">
        <ele>208.1</ele>
        <time>2021-05-24T08:14:45Z</time>
      </trkpt>
      <trkpt lat="42.8610430" lon="-8.5770870">
        <ele>208.1</ele>
        <time>2021-05-24T08:14:46Z</time>
      </trkpt>
      <trkpt lat="42.8610500" lon="-8.5770860">
        <ele>208.2</ele>
        <time>2021-05-24T08:14:47Z</time>
      </trkpt>
      <trkpt lat="42.8610780" lon="-8.5770810">
        <ele>208.3</ele>
        <time>2021-05-24T08:14:48Z</time>
      </trkpt>
      <trkpt lat="42.8610880" lon="-8.5770770">
        <ele>208.3</ele>
        <time>2021-05-24T08:14:49Z</time>
      </trkpt>
      <trkpt lat="42.8610840" lon="-8.5770700">
        <ele>208.3</ele>
        <time>2021-05-24T08:14:50Z</time>
      </trkpt>
      <trkpt lat="42.8610850" lon="-8.5770690">
        <ele>208.3</ele>
        <time>2021-05-24T08:14:51Z</time>
      </trkpt>
      <trkpt lat="42.8610930" lon="-8.5770650">
        <ele>208.4</ele>
        <time>2021-05-24T08:14:52Z</time>
      </trkpt>
      <trkpt lat="42.8611210" lon="-8.5770610">
        <ele>208.5</ele>
        <time>2021-05-24T08:14:53Z</time>
      </trkpt>
      <trkpt lat="42.8611450" lon="-8.5770610">
        <ele>208.6</ele>
        <time>2021-05-24T08:14:54Z</time>
      </trkpt>
      <trkpt lat="42.8611560" lon="-8.5770640">
        <ele>208.6</ele>
        <time>2021-05-24T08:14:55Z</time>
      </trkpt>
      <trkpt lat="42.8611660" lon="-8.5770660">
        <ele>208.7</ele>
        <time>2021-05-24T08:14:56Z</time>
      </trkpt>
      <trkpt lat="42.8611940" lon="-8.5770710">
        <ele>208.8</ele>
        <time>2021-05-24T08:14:57Z</time>
      </trkpt>
      <trkpt lat="42.8612040" lon="-8.5770780">
        <ele>208.8</ele>
        <time>2021-05-24T08:14:58Z</time>
      </trkpt>
      <trkpt lat="42.8612270" lon="-8.5770790">
        <ele>208.9</ele>
        <time>2021-05-24T08:14:59Z</time>
      </trkpt>
      <trkpt lat="42.8612330" lon="-8.5770700">
        <ele>209.0</ele>
        <time>2021-05-24T08:15:00Z</time>
      </trkpt>
      <trkpt lat="42.8612520" lon="-8.5770750">
        <ele>209.1</ele>
        <time>2021-05-24T08:15:01Z</time>
      </trkpt>
      <trkpt lat="42.8612620" lon="-8.5770680">
        <ele>209.1</ele>
        <time>2021-05-24T08:15:02Z</time>
      </trkpt>
      <trkpt lat="42.8612760" lon="-8.5770680">
        <ele>209.2</ele>
        <time>2021-05-24T08:15:03Z</time>
      </trkpt>
      <trkpt lat="42.8612800" lon="-8.5770650">
        <ele>209.2</ele>
        <time>2021-05-24T08:15:04Z</time>
      </trkpt>
      <trkpt lat="42.8612930" lon="-8.5770610">
        <ele>209.2</ele>
        <time>2021-05-24T08:15:05Z</time>
      </trkpt>
      <trkpt lat="42.8613040" lon="-8.5770540">
        <ele>209.3</ele>
        <time>2021-05-24T08:15:06Z</time>
      </trkpt>
      <trkpt lat="42.8613190" lon="-8.5770450">
        <ele>209.4</ele>
        <time>2021-05-24T08:15:07Z</time>
      </trkpt>
      <trkpt lat="42.8613320" lon="-8.5770360">
        <ele>209.4</ele>
        <time>2021-05-24T08:15:08Z</time>
      </trkpt>
      <trkpt lat="42.8613440" lon="-8.5770250">
        <ele>209.5</ele>
        <time>2021-05-24T08:15:09Z</time>
      </trkpt>
      <trkpt lat="42.8613590" lon="-8.5770230">
        <ele>209.5</ele>
        <time>2021-05-24T08:15:10Z</time>
      </trkpt>
      <trkpt lat="42.8613720" lon="-8.5770200">
        <ele>209.6</ele>
        <time>2021-05-24T08:15:11Z</time>
      </trkpt>
      <trkpt lat="42.8613780" lon="-8.5770160">
        <ele>209.6</ele>
        <time>2021-05-24T08:15:12Z</time>
      </trkpt>
      <trkpt lat="42.8614000" lon="-8.5770030">
        <ele>209.7</ele>
        <time>2021-05-24T08:15:13Z</time>
      </trkpt>
      <trkpt lat="42.8614080" lon="-8.5769870">
        <ele>209.7</ele>
        <time>2021-05-24T08:15:14Z</time>
      </trkpt>
      <trkpt lat="42.8614260" lon="-8.5769750">
        <ele>209.8</ele>
        <time>2021-05-24T08:15:15Z</time>
      </trkpt>
      <trkpt lat="42.8614550" lon="-8.5769610">
        <ele>209.9</ele>
        <time>2021-05-24T08:15:16Z</time>
      </trkpt>
      <trkpt lat="42.8614620" lon="-8.5769600">
        <ele>209.9</ele>
        <time>2021-05-24T08:15:17Z</time>
      </trkpt>
      <trkpt lat="42.8614750" lon="-8.5769460">
        <ele>209.9</ele>
        <time>2021-05-24T08:15:18Z</time>
      </trkpt>
      <trkpt lat="42.8614900" lon="-8.5769410">
        <ele>210.0</ele>
        <time>2021-05-24T08:15:19Z</time>
      </trkpt>
      <trkpt lat="42.8615040" lon="-8.5769270">
        <ele>210.0</ele>
        <time>2021-05-24T08:15:20Z</time>
      </trkpt>
      <trkpt lat="42.8615090" lon="-8.5769130">
        <ele>210.0</ele>
        <time>2021-05-24T08:15:21Z</time>
      </trkpt>
      <trkpt lat="42.8615190" lon="-8.5769010">
        <ele>210.0</ele>
        <time>2021-05-24T08:15:22Z</time>
      </trkpt>
      <trkpt lat="42.8615350" lon="-8.5768830">
        <ele>210.0</ele>
        <time>2021-05-24T08:15:23Z</time>
      </trkpt>
      <trkpt lat="42.8615420" lon="-8.5768630">
        <ele>210.0</ele>
        <time>2021-05-24T08:15:24Z</time>
      </trkpt>
      <trkpt lat="42.8615530" lon="-8.5768490">
        <ele>210.0</ele>
        <time>2021-05-24T08:15:25Z</time>
      </trkpt>
      <trkpt lat="42.8615610" lon="-8.5768220">
        <ele>210.0</ele>
        <time>2021-05-24T08:15:26Z</time>
      </trkpt>
      <trkpt lat="42.8615650" lon="-8.5768110">
        <ele>210.0</ele>
        <time>2021-05-24T08:15:27Z</time>
      </trkpt>
      <trkpt lat="42.8615690" lon="-8.5768010">
        <ele>209.9</ele>
        <time>2021-05-24T08:15:28Z</time>
      </trkpt>
      <trkpt lat="42.8615710" lon="-8.5767920">
        <ele>209.9</ele>
        <time>2021-05-24T08:15:29Z</time>
      </trkpt>
      <trkpt lat="42.8615800" lon="-8.5767740">
        <ele>209.9</ele>
        <time>2021-05-24T08:15:30Z</time>
      </trkpt>
      <trkpt lat="42.8615840" lon="-8.5767700">
        <ele>209.9</ele>
        <time>2021-05-24T08:15:31Z</time>
      </trkpt>
      <trkpt lat="42.8615990" lon="-8.5767550">
        <ele>209.8</ele>
        <time>2021-05-24T08:15:32Z</time>
      </trkpt>
      <trkpt lat="42.8616090" lon="-8.5767500">
        <ele>209.8</ele>
        <time>2021-05-24T08:15:33Z</time>
      </trkpt>
      <trkpt lat="42.8616200" lon="-8.5767450">
        <ele>209.8</ele>
        <time>2021-05-24T08:15:34Z</time>
      </trkpt>
      <trkpt lat="42.8616340" lon="-8.5767350">
        <ele>209.7</ele>
        <time>2021-05-24T08:15:35Z</time>
      </trkpt>
      <trkpt lat="42.8616480" lon="-8.5767290">
        <ele>209.7</ele>
        <time>2021-05-24T08:15:36Z</time>
      </trkpt>
      <trkpt lat="42.8616620" lon="-8.5767170">
        <ele>209.6</ele>
        <time>2021-05-24T08:15:37Z</time>
      </trkpt>
      <trkpt lat="42.8616780" lon="-8.5766990">
        <ele>209.6</ele>
        <time>2021-05-24T08:15:38Z</time>
      </trkpt>
      <trkpt lat="42.8616860" lon="-8.5766820">
        <ele>209.5</ele>
        <time>2021-05-24T08:15:39Z</time>
      </trkpt>
      <trkpt lat="42.8616930" lon="-8.5766680">
        <ele>209.5</ele>
        <time>2021-05-24T08:15:40Z</time>
      </trkpt>
      <trkpt lat="42.8617110" lon="-8.5766510">
        <ele>209.4</ele>
        <time>2021-05-24T08:15:41Z</time>
      </trkpt>
      <trkpt lat="42.8617230" lon="-8.5766450">
        <ele>209.4</ele>
        <time>2021-05-24T08:15:42Z</time>
      </trkpt>
      <trkpt lat="42.8617350" lon="-8.5766300">
        <ele>209.3</ele>
        <time>2021-05-24T08:15:43Z</time>
      </trkpt>
      <trkpt lat="42.8617400" lon="-8.5766050">
        <ele>209.3</ele>
        <time>2021-05-24T08:15:44Z</time>
      </trkpt>
      <trkpt lat="42.8617530" lon="-8.5765880">
        <ele>209.2</ele>
        <time>2021-05-24T08:15:45Z</time>
      </trkpt>
      <trkpt lat="42.8617600" lon="-8.5765660">
        <ele>209.2</ele>
        <time>2021-05-24T08:15:46Z</time>
      </trkpt>
      <trkpt lat="42.8617740" lon="-8.5765530">
        <ele>209.1</ele>
        <time>2021-05-24T08:15:47Z</time>
      </trkpt>
      <trkpt lat="42.8617820" lon="-8.5765310">
        <ele>209.1</ele>
        <time>2021-05-24T08:15:48Z</time>
      </trkpt>
      <trkpt lat="42.8617930" lon="-8.5765150">
        <ele>209.0</ele>
        <time>2021-05-24T08:15:49Z</time>
      </trkpt>
      <trkpt lat="42.8617950" lon="-8.5764940">
        <ele>209.0</ele>
        <time>2021-05-24T08:15:50Z</time>
      </trkpt>
      <trkpt lat="42.8618020" lon="-8.5764800">
        <ele>208.9</ele>
        <time>2021-05-24T08:15:51Z</time>
      </trkpt>
      <trkpt lat="42.8618110" lon="-8.5764780">
        <ele>208.9</ele>
        <time>2021-05-24T08:15:52Z</time>
      </trkpt>
      <trkpt lat="42.8618170" lon="-8.5764600">
        <ele>208.9</ele>
        <time>2021-05-24T08:15:53Z</time>
      </trkpt>
      <trkpt lat="42.8618210" lon="-8.5764420">
        <ele>208.8</ele>
        <time>2021-05-24T08:15:54Z</time>
      </trkpt>
      <trkpt lat="42.8618300" lon="-8.5764340">
        <ele>208.8</ele>
        <time>2021-05-24T08:15:55Z</time>
      </trkpt>
      <trkpt lat="42.8618420" lon="-8.5764170">
        <ele>208.8</ele>
        <time>2021-05-24T08:15:56Z</time>
      </trkpt>
      <trkpt lat="42.8618580" lon="-8.5764010">
        <ele>208.7</ele>
        <time>2021-05-24T08:15:57Z</time>
      </trkpt>
      <trkpt lat="42.8618640" lon="-8.5763940">
        <ele>208.7</ele>
        <time>2021-05-24T08:15:58Z</time>
      </trkpt>
      <trkpt lat="42.8618710" lon="-8.5763860">
        <ele>208.6</ele>
        <time>2021-05-24T08:15:59Z</time>
      </trkpt>
      <trkpt lat="42.8618840" lon="-8.5763730">
        <ele>208.6</ele>
        <time>2021-05-24T08:16:00Z</time>
      </trkpt>
      <trkpt lat="42.8618970" lon="-8.5763570">
        <ele>208.5</ele>
        <time>2021-05-24T08:16:01Z</time>
      </trkpt>
      <trkpt lat="42.8618990" lon="-8.5763310">
        <ele>208.5</ele>
        <time>2021-05-24T08:16:02Z</time>
      </trkpt>
      <trkpt lat="42.8619080" lon="-8.5763160">
        <ele>208.4</ele>
        <time>2021-05-24T08:16:03Z</time>
      </trkpt>
      <trkpt lat="42.8619190" lon="-8.5763060">
        <ele>208.3</ele>
        <time>2021-05-24T08:16:04Z</time>
      </trkpt>
      <trkpt lat="42.8619270" lon="-8.5762920">
        <ele>208.3</ele>
        <time>2021-05-24T08:16:05Z</time>
      </trkpt>
      <trkpt lat="42.8619340" lon="-8.5762850">
        <ele>208.2</ele>
        <time>2021-05-24T08:16:06Z</time>
      </trkpt>
      <trkpt lat="42.8619400" lon="-8.5762700">
        <ele>208.2</ele>
        <time>2021-05-24T08:16:07Z</time>
      </trkpt>
      <trkpt lat="42.8619500" lon="-8.5762660">
        <ele>208.1</ele>
        <time>2021-05-24T08:16:08Z</time>
      </trkpt>
      <trkpt lat="42.8619610" lon="-8.5762560">
        <ele>208.1</ele>
        <time>2021-05-24T08:16:09Z</time>
      </trkpt>
      <trkpt lat="42.8619740" lon="-8.5762410">
        <ele>208.0</ele>
        <time>2021-05-24T08:16:10Z</time>
      </trkpt>
      <trkpt lat="42.8619850" lon="-8.5762270">
        <ele>207.9</ele>
        <time>2021-05-24T08:16:11Z</time>
      </trkpt>
      <trkpt lat="42.8619960" lon="-8.5762200">
        <ele>207.8</ele>
        <time>2021-05-24T08:16:12Z</time>
      </trkpt>
      <trkpt lat="42.8620070" lon="-8.5762140">
        <ele>207.7</ele>
        <time>2021-05-24T08:16:13Z</time>
      </trkpt>
      <trkpt lat="42.8620190" lon="-8.5762110">
        <ele>207.6</ele>
        <time>2021-05-24T08:16:14Z</time>
      </trkpt>
      <trkpt lat="42.8620330" lon="-8.5762130">
        <ele>207.5</ele>
        <time>2021-05-24T08:16:15Z</time>
      </trkpt>
      <trkpt lat="42.8620470" lon="-8.5762000">
        <ele>207.4</ele>
        <time>2021-05-24T08:16:16Z</time>
      </trkpt>
      <trkpt lat="42.8620650" lon="-8.5761890">
        <ele>207.3</ele>
        <time>2021-05-24T08:16:17Z</time>
      </trkpt>
      <trkpt lat="42.8620770" lon="-8.5761780">
        <ele>207.2</ele>
        <time>2021-05-24T08:16:18Z</time>
      </trkpt>
      <trkpt lat="42.8620890" lon="-8.5761670">
        <ele>207.0</ele>
        <time>2021-05-24T08:16:19Z</time>
      </trkpt>
      <trkpt lat="42.8621020" lon="-8.5761570">
        <ele>206.9</ele>
        <time>2021-05-24T08:16:20Z</time>
      </trkpt>
      <trkpt lat="42.8621160" lon="-8.5761370">
        <ele>206.8</ele>
        <time>2021-05-24T08:16:21Z</time>
      </trkpt>
      <trkpt lat="42.8621240" lon="-8.5761310">
        <ele>206.7</ele>
        <time>2021-05-24T08:16:22Z</time>
      </trkpt>
      <trkpt lat="42.8621320" lon="-8.5761240">
        <ele>206.6</ele>
        <time>2021-05-24T08:16:23Z</time>
      </trkpt>
      <trkpt lat="42.8621410" lon="-8.5761080">
        <ele>206.5</ele>
        <time>2021-05-24T08:16:24Z</time>
      </trkpt>
      <trkpt lat="42.8621530" lon="-8.5760970">
        <ele>206.3</ele>
        <time>2021-05-24T08:16:25Z</time>
      </trkpt>
      <trkpt lat="42.8621710" lon="-8.5760770">
        <ele>206.1</ele>
        <time>2021-05-24T08:16:26Z</time>
      </trkpt>
      <trkpt lat="42.8621780" lon="-8.5760690">
        <ele>206.0</ele>
        <time>2021-05-24T08:16:27Z</time>
      </trkpt>
      <trkpt lat="42.8621850" lon="-8.5760600">
        <ele>206.0</ele>
        <time>2021-05-24T08:16:28Z</time>
      </trkpt>
      <trkpt lat="42.8621980" lon="-8.5760540">
        <ele>205.8</ele>
        <time>2021-05-24T08:16:29Z</time>
      </trkpt>
      <trkpt lat="42.8622060" lon="-8.5760400">
        <ele>205.7</ele>
        <time>2021-05-24T08:16:30Z</time>
      </trkpt>
      <trkpt lat="42.8622160" lon="-8.5760390">
        <ele>205.6</ele>
        <time>2021-05-24T08:16:31Z</time>
      </trkpt>
      <trkpt lat="42.8622300" lon="-8.5760240">
        <ele>205.5</ele>
        <time>2021-05-24T08:16:32Z</time>
      </trkpt>
      <trkpt lat="42.8622410" lon="-8.5760120">
        <ele>205.3</ele>
        <time>2021-05-24T08:16:33Z</time>
      </trkpt>
      <trkpt lat="42.8622520" lon="-8.5759920">
        <ele>205.2</ele>
        <time>2021-05-24T08:16:34Z</time>
      </trkpt>
      <trkpt lat="42.8622580" lon="-8.5759780">
        <ele>205.1</ele>
        <time>2021-05-24T08:16:35Z</time>
      </trkpt>
      <trkpt lat="42.8622770" lon="-8.5759610">
        <ele>204.9</ele>
        <time>2021-05-24T08:16:36Z</time>
      </trkpt>
      <trkpt lat="42.8622840" lon="-8.5759560">
        <ele>204.8</ele>
        <time>2021-05-24T08:16:37Z</time>
      </trkpt>
      <trkpt lat="42.8622910" lon="-8.5759500">
        <ele>204.8</ele>
        <time>2021-05-24T08:16:38Z</time>
      </trkpt>
      <trkpt lat="42.8623080" lon="-8.5759510">
        <ele>204.6</ele>
        <time>2021-05-24T08:16:39Z</time>
      </trkpt>
      <trkpt lat="42.8623190" lon="-8.5759370">
        <ele>204.5</ele>
        <time>2021-05-24T08:16:40Z</time>
      </trkpt>
      <trkpt lat="42.8623360" lon="-8.5759270">
        <ele>204.4</ele>
        <time>2021-05-24T08:16:41Z</time>
      </trkpt>
      <trkpt lat="42.8623500" lon="-8.5759210">
        <ele>204.3</ele>
        <time>2021-05-24T08:16:42Z</time>
      </trkpt>
      <trkpt lat="42.8623680" lon="-8.5759170">
        <ele>204.1</ele>
        <time>2021-05-24T08:16:43Z</time>
      </trkpt>
      <trkpt lat="42.8623810" lon="-8.5759120">
        <ele>204.1</ele>
        <time>2021-05-24T08:16:44Z</time>
      </trkpt>
      <trkpt lat="42.8623960" lon="-8.5759040">
        <ele>204.0</ele>
        <time>2021-05-24T08:16:45Z</time>
      </trkpt>
      <trkpt lat="42.8624110" lon="-8.5759030">
        <ele>203.9</ele>
        <time>2021-05-24T08:16:46Z</time>
      </trkpt>
      <trkpt lat="42.8624200" lon="-8.5758860">
        <ele>203.8</ele>
        <time>2021-05-24T08:16:47Z</time>
      </trkpt>
      <trkpt lat="42.8624270" lon="-8.5758910">
        <ele>203.8</ele>
        <time>2021-05-24T08:16:48Z</time>
      </trkpt>
      <trkpt lat="42.8624350" lon="-8.5758740">
        <ele>203.7</ele>
        <time>2021-05-24T08:16:49Z</time>
      </trkpt>
      <trkpt lat="42.8624460" lon="-8.5758650">
        <ele>203.6</ele>
        <time>2021-05-24T08:16:50Z</time>
      </trkpt>
      <trkpt lat="42.8624640" lon="-8.5758560">
        <ele>203.5</ele>
        <time>2021-05-24T08:16:51Z</time>
      </trkpt>
      <trkpt lat="42.8624890" lon="-8.5758550">
        <ele>203.4</ele>
        <time>2021-05-24T08:16:52Z</time>
      </trkpt>
      <trkpt lat="42.8625010" lon="-8.5758560">
        <ele>203.4</ele>
        <time>2021-05-24T08:16:53Z</time>
      </trkpt>
      <trkpt lat="42.8625150" lon="-8.5758510">
        <ele>203.3</ele>
        <time>2021-05-24T08:16:54Z</time>
      </trkpt>
      <trkpt lat="42.8625320" lon="-8.5758470">
        <ele>203.2</ele>
        <time>2021-05-24T08:16:55Z</time>
      </trkpt>
      <trkpt lat="42.8625440" lon="-8.5758510">
        <ele>203.2</ele>
        <time>2021-05-24T08:16:56Z</time>
      </trkpt>
      <trkpt lat="42.8625570" lon="-8.5758440">
        <ele>203.1</ele>
        <time>2021-05-24T08:16:57Z</time>
      </trkpt>
      <trkpt lat="42.8625690" lon="-8.5758490">
        <ele>203.1</ele>
        <time>2021-05-24T08:16:58Z</time>
      </trkpt>
      <trkpt lat="42.8625830" lon="-8.5758430">
        <ele>203.0</ele>
        <time>2021-05-24T08:16:59Z</time>
      </trkpt>
      <trkpt lat="42.8626020" lon="-8.5758460">
        <ele>203.0</ele>
        <time>2021-05-24T08:17:00Z</time>
      </trkpt>
      <trkpt lat="42.8626180" lon="-8.5758450">
        <ele>202.9</ele>
        <time>2021-05-24T08:17:01Z</time>
      </trkpt>
      <trkpt lat="42.8626320" lon="-8.5758430">
        <ele>202.9</ele>
        <time>2021-05-24T08:17:02Z</time>
      </trkpt>
      <trkpt lat="42.8626500" lon="-8.5758350">
        <ele>202.8</ele>
        <time>2021-05-24T08:17:03Z</time>
      </trkpt>
      <trkpt lat="42.8626620" lon="-8.5758320">
        <ele>202.8</ele>
        <time>2021-05-24T08:17:04Z</time>
      </trkpt>
      <trkpt lat="42.8626710" lon="-8.5758240">
        <ele>202.8</ele>
        <time>2021-05-24T08:17:05Z</time>
      </trkpt>
      <trkpt lat="42.8626810" lon="-8.5758150">
        <ele>202.7</ele>
        <time>2021-05-24T08:17:06Z</time>
      </trkpt>
      <trkpt lat="42.8626900" lon="-8.5758190">
        <ele>202.7</ele>
        <time>2021-05-24T08:17:07Z</time>
      </trkpt>
      <trkpt lat="42.8627040" lon="-8.5758230">
        <ele>202.7</ele>
        <time>2021-05-24T08:17:08Z</time>
      </trkpt>
      <trkpt lat="42.8627170" lon="-8.5758270">
        <ele>202.6</ele>
        <time>2021-05-24T08:17:09Z</time>
      </trkpt>
      <trkpt lat="42.8627290" lon="-8.5758310">
        <ele>202.6</ele>
        <time>2021-05-24T08:17:10Z</time>
      </trkpt>
      <trkpt lat="42.8627470" lon="-8.5758250">
        <ele>202.5</ele>
        <time>2021-05-24T08:17:11Z</time>
      </trkpt>
      <trkpt lat="42.8627570" lon="-8.5758240">
        <ele>202.5</ele>
        <time>2021-05-24T08:17:12Z</time>
      </trkpt>
      <trkpt lat="42.8627660" lon="-8.5758220">
        <ele>202.5</ele>
        <time>2021-05-24T08:17:13Z</time>
      </trkpt>
      <trkpt lat="42.8627770" lon="-8.5758140">
        <ele>202.5</ele>
        <time>2021-05-24T08:17:14Z</time>
      </trkpt>
      <trkpt lat="42.8627960" lon="-8.5758100">
        <ele>202.4</ele>
        <time>2021-05-24T08:17:15Z</time>
      </trkpt>
      <trkpt lat="42.8628090" lon="-8.5758060">
        <ele>202.4</ele>
        <time>2021-05-24T08:17:16Z</time>
      </trkpt>
      <trkpt lat="42.8628270" lon="-8.5758090">
        <ele>202.3</ele>
        <time>2021-05-24T08:17:17Z</time>
      </trkpt>
      <trkpt lat="42.8628450" lon="-8.5758110">
        <ele>202.3</ele>
        <time>2021-05-24T08:17:18Z</time>
      </trkpt>
      <trkpt lat="42.8628610" lon="-8.5758080">
        <ele>202.2</ele>
        <time>2021-05-24T08:17:19Z</time>
      </trkpt>
      <trkpt lat="42.8628770" lon="-8.5758070">
        <ele>202.2</ele>
        <time>2021-05-24T08:17:20Z</time>
      </trkpt>
      <trkpt lat="42.8628920" lon="-8.5758070">
        <ele>202.2</ele>
        <time>2021-05-24T08:17:21Z</time>
      </trkpt>
      <trkpt lat="42.8629090" lon="-8.5758080">
        <ele>202.1</ele>
        <time>2021-05-24T08:17:22Z</time>
      </trkpt>
      <trkpt lat="42.8629250" lon="-8.5758150">
        <ele>202.0</ele>
        <time>2021-05-24T08:17:23Z</time>
      </trkpt>
      <trkpt lat="42.8629380" lon="-8.5758220">
        <ele>202.0</ele>
        <time>2021-05-24T08:17:24Z</time>
      </trkpt>
      <trkpt lat="42.8629540" lon="-8.5758160">
        <ele>201.9</ele>
        <time>2021-05-24T08:17:25Z</time>
      </trkpt>
      <trkpt lat="42.8629770" lon="-8.5758140">
        <ele>201.8</ele>
        <time>2021-05-24T08:17:26Z</time>
      </trkpt>
      <trkpt lat="42.8629870" lon="-8.5758140">
        <ele>201.8</ele>
        <time>2021-05-24T08:17:27Z</time>
      </trkpt>
      <trkpt lat="42.8629960" lon="-8.5758130">
        <ele>201.8</ele>
        <time>2021-05-24T08:17:28Z</time>
      </trkpt>
      <trkpt lat="42.8630200" lon="-8.5758120">
        <ele>201.7</ele>
        <time>2021-05-24T08:17:29Z</time>
      </trkpt>
      <trkpt lat="42.8630290" lon="-8.5758100">
        <ele>201.5</ele>
        <time>2021-05-24T08:17:30Z</time>
      </trkpt>
      <trkpt lat="42.8630380" lon="-8.5758070">
        <ele>201.4</ele>
        <time>2021-05-24T08:17:31Z</time>
      </trkpt>
      <trkpt lat="42.8630530" lon="-8.5757930">
        <ele>201.3</ele>
        <time>2021-05-24T08:17:32Z</time>
      </trkpt>
      <trkpt lat="42.8630630" lon="-8.5757780">
        <ele>201.1</ele>
        <time>2021-05-24T08:17:33Z</time>
      </trkpt>
      <trkpt lat="42.8630670" lon="-8.5757540">
        <ele>200.9</ele>
        <time>2021-05-24T08:17:34Z</time>
      </trkpt>
      <trkpt lat="42.8630630" lon="-8.5757300">
        <ele>200.8</ele>
        <time>2021-05-24T08:17:35Z</time>
      </trkpt>
      <trkpt lat="42.8630610" lon="-8.5757070">
        <ele>200.6</ele>
        <time>2021-05-24T08:17:36Z</time>
      </trkpt>
      <trkpt lat="42.8630580" lon="-8.5756860">
        <ele>200.5</ele>
        <time>2021-05-24T08:17:37Z</time>
      </trkpt>
      <trkpt lat="42.8630550" lon="-8.5756650">
        <ele>200.3</ele>
        <time>2021-05-24T08:17:38Z</time>
      </trkpt>
      <trkpt lat="42.8630490" lon="-8.5756470">
        <ele>200.2</ele>
        <time>2021-05-24T08:17:39Z</time>
      </trkpt>
      <trkpt lat="42.8630450" lon="-8.5756280">
        <ele>200.0</ele>
        <time>2021-05-24T08:17:40Z</time>
      </trkpt>
      <trkpt lat="42.8630500" lon="-8.5756080">
        <ele>199.9</ele>
        <time>2021-05-24T08:17:41Z</time>
      </trkpt>
      <trkpt lat="42.8630430" lon="-8.5755910">
        <ele>199.7</ele>
        <time>2021-05-24T08:17:42Z</time>
      </trkpt>
      <trkpt lat="42.8630410" lon="-8.5755710">
        <ele>199.6</ele>
        <time>2021-05-24T08:17:43Z</time>
      </trkpt>
      <trkpt lat="42.8630340" lon="-8.5755540">
        <ele>199.4</ele>
        <time>2021-05-24T08:17:44Z</time>
      </trkpt>
      <trkpt lat="42.8630350" lon="-8.5755350">
        <ele>199.3</ele>
        <time>2021-05-24T08:17:45Z</time>
      </trkpt>
      <trkpt lat="42.8630260" lon="-8.5755120">
        <ele>199.1</ele>
        <time>2021-05-24T08:17:46Z</time>
      </trkpt>
      <trkpt lat="42.8630300" lon="-8.5754900">
        <ele>198.9</ele>
        <time>2021-05-24T08:17:47Z</time>
      </trkpt>
      <trkpt lat="42.8630270" lon="-8.5754610">
        <ele>198.7</ele>
        <time>2021-05-24T08:17:48Z</time>
      </trkpt>
      <trkpt lat="42.8630280" lon="-8.5754500">
        <ele>198.6</ele>
        <time>2021-05-24T08:17:49Z</time>
      </trkpt>
      <trkpt lat="42.8630300" lon="-8.5754390">
        <ele>198.5</ele>
        <time>2021-05-24T08:17:50Z</time>
      </trkpt>
      <trkpt lat="42.8630350" lon="-8.5754090">
        <ele>198.3</ele>
        <time>2021-05-24T08:17:51Z</time>
      </trkpt>
      <trkpt lat="42.8630330" lon="-8.5753970">
        <ele>198.2</ele>
        <time>2021-05-24T08:17:52Z</time>
      </trkpt>
      <trkpt lat="42.8630320" lon="-8.5753860">
        <ele>198.1</ele>
        <time>2021-05-24T08:17:53Z</time>
      </trkpt>
      <trkpt lat="42.8630330" lon="-8.5753680">
        <ele>198.0</ele>
        <time>2021-05-24T08:17:54Z</time>
      </trkpt>
      <trkpt lat="42.8630350" lon="-8.5753600">
        <ele>197.9</ele>
        <time>2021-05-24T08:17:55Z</time>
      </trkpt>
      <trkpt lat="42.8630370" lon="-8.5753510">
        <ele>197.8</ele>
        <time>2021-05-24T08:17:56Z</time>
      </trkpt>
      <trkpt lat="42.8630390" lon="-8.5753430">
        <ele>197.8</ele>
        <time>2021-05-24T08:17:57Z</time>
      </trkpt>
      <trkpt lat="42.8630410" lon="-8.5753340">
        <ele>197.7</ele>
        <time>2021-05-24T08:17:58Z</time>
      </trkpt>
      <trkpt lat="42.8630420" lon="-8.5753170">
        <ele>197.6</ele>
        <time>2021-05-24T08:17:59Z</time>
      </trkpt>
      <trkpt lat="42.8630390" lon="-8.5753090">
        <ele>197.5</ele>
        <time>2021-05-24T08:18:00Z</time>
      </trkpt>
      <trkpt lat="42.8630460" lon="-8.5752940">
        <ele>197.4</ele>
        <time>2021-05-24T08:18:01Z</time>
      </trkpt>
      <trkpt lat="42.8630430" lon="-8.5752810">
        <ele>197.3</ele>
        <time>2021-05-24T08:18:02Z</time>
      </trkpt>
      <trkpt lat="42.8630450" lon="-8.5752580">
        <ele>197.1</ele>
        <time>2021-05-24T08:18:03Z</time>
      </trkpt>
      <trkpt lat="42.8630480" lon="-8.5752460">
        <ele>197.0</ele>
        <time>2021-05-24T08:18:04Z</time>
      </trkpt>
      <trkpt lat="42.8630500" lon="-8.5752220">
        <ele>196.8</ele>
        <time>2021-05-24T08:18:05Z</time>
      </trkpt>
      <trkpt lat="42.8630520" lon="-8.5752040">
        <ele>196.7</ele>
        <time>2021-05-24T08:18:06Z</time>
      </trkpt>
      <trkpt lat="42.8630560" lon="-8.5751830">
        <ele>196.5</ele>
        <time>2021-05-24T08:18:07Z</time>
      </trkpt>
      <trkpt lat="42.8630630" lon="-8.5751640">
        <ele>196.4</ele>
        <time>2021-05-24T08:18:08Z</time>
      </trkpt>
      <trkpt lat="42.8630680" lon="-8.5751470">
        <ele>196.3</ele>
        <time>2021-05-24T08:18:09Z</time>
      </trkpt>
      <trkpt lat="42.8630660" lon="-8.5751260">
        <ele>196.1</ele>
        <time>2021-05-24T08:18:10Z</time>
      </trkpt>
      <trkpt lat="42.8630700" lon="-8.5751060">
        <ele>196.0</ele>
        <time>2021-05-24T08:18:11Z</time>
      </trkpt>
      <trkpt lat="42.8630730" lon="-8.5750870">
        <ele>195.8</ele>
        <time>2021-05-24T08:18:12Z</time>
      </trkpt>
      <trkpt lat="42.8630760" lon="-8.5750680">
        <ele>195.7</ele>
        <time>2021-05-24T08:18:13Z</time>
      </trkpt>
      <trkpt lat="42.8630770" lon="-8.5750510">
        <ele>195.6</ele>
        <time>2021-05-24T08:18:14Z</time>
      </trkpt>
      <trkpt lat="42.8630810" lon="-8.5750200">
        <ele>195.4</ele>
        <time>2021-05-24T08:18:15Z</time>
      </trkpt>
      <trkpt lat="42.8630840" lon="-8.5750060">
        <ele>195.3</ele>
        <time>2021-05-24T08:18:16Z</time>
      </trkpt>
      <trkpt lat="42.8630870" lon="-8.5749930">
        <ele>195.2</ele>
        <time>2021-05-24T08:18:17Z</time>
      </trkpt>
      <trkpt lat="42.8630930" lon="-8.5749660">
        <ele>195.1</ele>
        <time>2021-05-24T08:18:18Z</time>
      </trkpt>
      <trkpt lat="42.8630920" lon="-8.5749540">
        <ele>195.0</ele>
        <time>2021-05-24T08:18:19Z</time>
      </trkpt>
      <trkpt lat="42.8630920" lon="-8.5749420">
        <ele>195.0</ele>
        <time>2021-05-24T08:18:20Z</time>
      </trkpt>
      <trkpt lat="42.8630960" lon="-8.5749220">
        <ele>194.8</ele>
        <time>2021-05-24T08:18:21Z</time>
      </trkpt>
      <trkpt lat="42.8631010" lon="-8.5749060">
        <ele>194.8</ele>
        <time>2021-05-24T08:18:22Z</time>
      </trkpt>
      <trkpt lat="42.8631010" lon="-8.5748870">
        <ele>194.7</ele>
        <time>2021-05-24T08:18:23Z</time>
      </trkpt>
      <trkpt lat="42.8631040" lon="-8.5748690">
        <ele>194.6</ele>
        <time>2021-05-24T08:18:24Z</time>
      </trkpt>
      <trkpt lat="42.8631070" lon="-8.5748500">
        <ele>194.5</ele>
        <time>2021-05-24T08:18:25Z</time>
      </trkpt>
      <trkpt lat="42.8631160" lon="-8.5748350">
        <ele>194.4</ele>
        <time>2021-05-24T08:18:26Z</time>
      </trkpt>
      <trkpt lat="42.8631220" lon="-8.5748180">
        <ele>194.3</ele>
        <time>2021-05-24T08:18:27Z</time>
      </trkpt>
      <trkpt lat="42.8631300" lon="-8.5748010">
        <ele>194.3</ele>
        <time>2021-05-24T08:18:28Z</time>
      </trkpt>
      <trkpt lat="42.8631380" lon="-8.5747730">
        <ele>194.1</ele>
        <time>2021-05-24T08:18:29Z</time>
      </trkpt>
      <trkpt lat="42.8631400" lon="-8.5747600">
        <ele>194.1</ele>
        <time>2021-05-24T08:18:30Z</time>
      </trkpt>
      <trkpt lat="42.8631430" lon="-8.5747480">
        <ele>194.1</ele>
        <time>2021-05-24T08:18:31Z</time>
      </trkpt>
      <trkpt lat="42.8631460" lon="-8.5747180">
        <ele>194.0</ele>
        <time>2021-05-24T08:18:32Z</time>
      </trkpt>
      <trkpt lat="42.8631490" lon="-8.5747060">
        <ele>193.9</ele>
        <time>2021-05-24T08:18:33Z</time>
      </trkpt>
      <trkpt lat="42.8631520" lon="-8.5746950">
        <ele>193.9</ele>
        <time>2021-05-24T08:18:34Z</time>
      </trkpt>
      <trkpt lat="42.8631600" lon="-8.5746790">
        <ele>193.8</ele>
        <time>2021-05-24T08:18:35Z</time>
      </trkpt>
      <trkpt lat="42.8631690" lon="-8.5746650">
        <ele>193.8</ele>
        <time>2021-05-24T08:18:36Z</time>
      </trkpt>
      <trkpt lat="42.8631760" lon="-8.5746380">
        <ele>193.7</ele>
        <time>2021-05-24T08:18:37Z</time>
      </trkpt>
      <trkpt lat="42.8631790" lon="-8.5746280">
        <ele>193.6</ele>
        <time>2021-05-24T08:18:38Z</time>
      </trkpt>
      <trkpt lat="42.8631820" lon="-8.5746180">
        <ele>193.6</ele>
        <time>2021-05-24T08:18:39Z</time>
      </trkpt>
      <trkpt lat="42.8631870" lon="-8.5746020">
        <ele>193.6</ele>
        <time>2021-05-24T08:18:40Z</time>
      </trkpt>
      <trkpt lat="42.8631910" lon="-8.5745880">
        <ele>193.5</ele>
        <time>2021-05-24T08:18:41Z</time>
      </trkpt>
      <trkpt lat="42.8631970" lon="-8.5745740">
        <ele>193.5</ele>
        <time>2021-05-24T08:18:42Z</time>
      </trkpt>
      <trkpt lat="42.8632030" lon="-8.5745560">
        <ele>193.4</ele>
        <time>2021-05-24T08:18:43Z</time>
      </trkpt>
      <trkpt lat="42.8632090" lon="-8.5745470">
        <ele>193.4</ele>
        <time>2021-05-24T08:18:44Z</time>
      </trkpt>
      <trkpt lat="42.8632150" lon="-8.5745390">
        <ele>193.5</ele>
        <time>2021-05-24T08:18:45Z</time>
      </trkpt>
      <trkpt lat="42.8632210" lon="-8.5745300">
        <ele>193.5</ele>
        <time>2021-05-24T08:18:46Z</time>
      </trkpt>
      <trkpt lat="42.8632310" lon="-8.5745240">
        <ele>193.5</ele>
        <time>2021-05-24T08:18:47Z</time>
      </trkpt>
      <trkpt lat="42.8632430" lon="-8.5745170">
        <ele>193.6</ele>
        <time>2021-05-24T08:18:48Z</time>
      </trkpt>
      <trkpt lat="42.8632530" lon="-8.5745070">
        <ele>193.6</ele>
        <time>2021-05-24T08:18:49Z</time>
      </trkpt>
      <trkpt lat="42.8632740" lon="-8.5744980">
        <ele>193.5</ele>
        <time>2021-05-24T08:18:50Z</time>
      </trkpt>
      <trkpt lat="42.8632840" lon="-8.5744970">
        <ele>193.5</ele>
        <time>2021-05-24T08:18:51Z</time>
      </trkpt>
      <trkpt lat="42.8632930" lon="-8.5744950">
        <ele>193.5</ele>
        <time>2021-05-24T08:18:52Z</time>
      </trkpt>
      <trkpt lat="42.8633140" lon="-8.5744970">
        <ele>193.5</ele>
        <time>2021-05-24T08:18:53Z</time>
      </trkpt>
      <trkpt lat="42.8633230" lon="-8.5744980">
        <ele>193.4</ele>
        <time>2021-05-24T08:18:54Z</time>
      </trkpt>
      <trkpt lat="42.8633310" lon="-8.5744980">
        <ele>193.4</ele>
        <time>2021-05-24T08:18:55Z</time>
      </trkpt>
      <trkpt lat="42.8633410" lon="-8.5745060">
        <ele>193.4</ele>
        <time>2021-05-24T08:18:56Z</time>
      </trkpt>
      <trkpt lat="42.8633410" lon="-8.5745170">
        <ele>193.4</ele>
        <time>2021-05-24T08:18:57Z</time>
      </trkpt>
      <trkpt lat="42.8633340" lon="-8.5745220">
        <ele>193.4</ele>
        <time>2021-05-24T08:18:58Z</time>
      </trkpt>
      <trkpt lat="42.8633310" lon="-8.5745200">
        <ele>193.4</ele>
        <time>2021-05-24T08:18:59Z</time>
      </trkpt>
      <trkpt lat="42.8633310" lon="-8.5745100">
        <ele>193.4</ele>
        <time>2021-05-24T08:19:00Z</time>
      </trkpt>
      <trkpt lat="42.8633400" lon="-8.5744980">
        <ele>193.3</ele>
        <time>2021-05-24T08:19:01Z</time>
      </trkpt>
      <trkpt lat="42.8633440" lon="-8.5744840">
        <ele>193.3</ele>
        <time>2021-05-24T08:19:02Z</time>
      </trkpt>
      <trkpt lat="42.8633460" lon="-8.5744690">
        <ele>193.3</ele>
        <time>2021-05-24T08:19:03Z</time>
      </trkpt>
      <trkpt lat="42.8633480" lon="-8.5744610">
        <ele>193.3</ele>
        <time>2021-05-24T08:19:04Z</time>
      </trkpt>
      <trkpt lat="42.8633510" lon="-8.5744450">
        <ele>193.3</ele>
        <time>2021-05-24T08:19:05Z</time>
      </trkpt>
      <trkpt lat="42.8633540" lon="-8.5744360">
        <ele>193.3</ele>
        <time>2021-05-24T08:19:06Z</time>
      </trkpt>
      <trkpt lat="42.8633600" lon="-8.5744230">
        <ele>193.2</ele>
        <time>2021-05-24T08:19:07Z</time>
      </trkpt>
      <trkpt lat="42.8633610" lon="-8.5744120">
        <ele>193.2</ele>
        <time>2021-05-24T08:19:08Z</time>
      </trkpt>
      <trkpt lat="42.8633690" lon="-8.5743980">
        <ele>193.2</ele>
        <time>2021-05-24T08:19:09Z</time>
      </trkpt>
      <trkpt lat="42.8633750" lon="-8.5743810">
        <ele>193.2</ele>
        <time>2021-05-24T08:19:10Z</time>
      </trkpt>
      <trkpt lat="42.8633770" lon="-8.5743650">
        <ele>193.1</ele>
        <time>2021-05-24T08:19:11Z</time>
      </trkpt>
      <trkpt lat="42.8633790" lon="-8.5743500">
        <ele>193.1</ele>
        <time>2021-05-24T08:19:12Z</time>
      </trkpt>
      <trkpt lat="42.8633800" lon="-8.5743400">
        <ele>193.1</ele>
        <time>2021-05-24T08:19:13Z</time>
      </trkpt>
      <trkpt lat="42.8633810" lon="-8.5743270">
        <ele>193.1</ele>
        <time>2021-05-24T08:19:14Z</time>
      </trkpt>
      <trkpt lat="42.8633850" lon="-8.5743020">
        <ele>193.0</ele>
        <time>2021-05-24T08:19:15Z</time>
      </trkpt>
      <trkpt lat="42.8633880" lon="-8.5742820">
        <ele>193.0</ele>
        <time>2021-05-24T08:19:16Z</time>
      </trkpt>
      <trkpt lat="42.8633900" lon="-8.5742660">
        <ele>193.0</ele>
        <time>2021-05-24T08:19:17Z</time>
      </trkpt>
      <trkpt lat="42.8633920" lon="-8.5742480">
        <ele>192.9</ele>
        <time>2021-05-24T08:19:18Z</time>
      </trkpt>
      <trkpt lat="42.8633940" lon="-8.5742290">
        <ele>192.9</ele>
        <time>2021-05-24T08:19:19Z</time>
      </trkpt>
      <trkpt lat="42.8633970" lon="-8.5741990">
        <ele>192.8</ele>
        <time>2021-05-24T08:19:20Z</time>
      </trkpt>
      <trkpt lat="42.8633990" lon="-8.5741870">
        <ele>192.8</ele>
        <time>2021-05-24T08:19:21Z</time>
      </trkpt>
      <trkpt lat="42.8634010" lon="-8.5741760">
        <ele>192.8</ele>
        <time>2021-05-24T08:19:22Z</time>
      </trkpt>
      <trkpt lat="42.8634050" lon="-8.5741600">
        <ele>192.8</ele>
        <time>2021-05-24T08:19:23Z</time>
      </trkpt>
      <trkpt lat="42.8634080" lon="-8.5741440">
        <ele>192.8</ele>
        <time>2021-05-24T08:19:24Z</time>
      </trkpt>
      <trkpt lat="42.8634110" lon="-8.5741330">
        <ele>192.7</ele>
        <time>2021-05-24T08:19:25Z</time>
      </trkpt>
      <trkpt lat="42.8634140" lon="-8.5741160">
        <ele>192.7</ele>
        <time>2021-05-24T08:19:26Z</time>
      </trkpt>
      <trkpt lat="42.8634190" lon="-8.5741050">
        <ele>192.7</ele>
        <time>2021-05-24T08:19:27Z</time>
      </trkpt>
      <trkpt lat="42.8634300" lon="-8.5740920">
        <ele>192.7</ele>
        <time>2021-05-24T08:19:28Z</time>
      </trkpt>
      <trkpt lat="42.8634330" lon="-8.5740950">
        <ele>192.7</ele>
        <time>2021-05-24T08:19:29Z</time>
      </trkpt>
      <trkpt lat="42.8634400" lon="-8.5741000">
        <ele>192.7</ele>
        <time>2021-05-24T08:19:30Z</time>
      </trkpt>
      <trkpt lat="42.8634510" lon="-8.5741050">
        <ele>192.6</ele>
        <time>2021-05-24T08:19:31Z</time>
      </trkpt>
      <trkpt lat="42.8634560" lon="-8.5741060">
        <ele>192.6</ele>
        <time>2021-05-24T08:19:32Z</time>
      </trkpt>
      <trkpt lat="42.8634710" lon="-8.5741070">
        <ele>192.6</ele>
        <time>2021-05-24T08:19:33Z</time>
      </trkpt>
      <trkpt lat="42.8634890" lon="-8.5741140">
        <ele>192.5</ele>
        <time>2021-05-24T08:19:34Z</time>
      </trkpt>
      <trkpt lat="42.8635060" lon="-8.5741200">
        <ele>192.5</ele>
        <time>2021-05-24T08:19:35Z</time>
      </trkpt>
      <trkpt lat="42.8635190" lon="-8.5741240">
        <ele>192.4</ele>
        <time>2021-05-24T08:19:36Z</time>
      </trkpt>
      <trkpt lat="42.8635400" lon="-8.5741400">
        <ele>192.3</ele>
        <time>2021-05-24T08:19:37Z</time>
      </trkpt>
      <trkpt lat="42.8635470" lon="-8.5741450">
        <ele>192.3</ele>
        <time>2021-05-24T08:19:38Z</time>
      </trkpt>
      <trkpt lat="42.8635550" lon="-8.5741510">
        <ele>192.3</ele>
        <time>2021-05-24T08:19:39Z</time>
      </trkpt>
      <trkpt lat="42.8635740" lon="-8.5741580">
        <ele>192.2</ele>
        <time>2021-05-24T08:19:40Z</time>
      </trkpt>
      <trkpt lat="42.8635840" lon="-8.5741650">
        <ele>192.2</ele>
        <time>2021-05-24T08:19:41Z</time>
      </trkpt>
      <trkpt lat="42.8635990" lon="-8.5741730">
        <ele>192.1</ele>
        <time>2021-05-24T08:19:42Z</time>
      </trkpt>
      <trkpt lat="42.8636150" lon="-8.5741780">
        <ele>192.1</ele>
        <time>2021-05-24T08:19:43Z</time>
      </trkpt>
      <trkpt lat="42.8636300" lon="-8.5741870">
        <ele>192.0</ele>
        <time>2021-05-24T08:19:44Z</time>
      </trkpt>
      <trkpt lat="42.8636410" lon="-8.5741920">
        <ele>192.0</ele>
        <time>2021-05-24T08:19:45Z</time>
      </trkpt>
      <trkpt lat="42.8636560" lon="-8.5742000">
        <ele>191.9</ele>
        <time>2021-05-24T08:19:46Z</time>
      </trkpt>
      <trkpt lat="42.8636680" lon="-8.5742060">
        <ele>191.8</ele>
        <time>2021-05-24T08:19:47Z</time>
      </trkpt>
      <trkpt lat="42.8636780" lon="-8.5742140">
        <ele>191.8</ele>
        <time>2021-05-24T08:19:48Z</time>
      </trkpt>
      <trkpt lat="42.8636960" lon="-8.5742170">
        <ele>191.7</ele>
        <time>2021-05-24T08:19:49Z</time>
      </trkpt>
      <trkpt lat="42.8637160" lon="-8.5742300">
        <ele>191.6</ele>
        <time>2021-05-24T08:19:50Z</time>
      </trkpt>
      <trkpt lat="42.8637230" lon="-8.5742330">
        <ele>191.5</ele>
        <time>2021-05-24T08:19:51Z</time>
      </trkpt>
      <trkpt lat="42.8637310" lon="-8.5742360">
        <ele>191.5</ele>
        <time>2021-05-24T08:19:52Z</time>
      </trkpt>
      <trkpt lat="42.8637420" lon="-8.5742500">
        <ele>191.4</ele>
        <time>2021-05-24T08:19:53Z</time>
      </trkpt>
      <trkpt lat="42.8637550" lon="-8.5742580">
        <ele>191.3</ele>
        <time>2021-05-24T08:19:54Z</time>
      </trkpt>
      <trkpt lat="42.8637640" lon="-8.5742630">
        <ele>191.2</ele>
        <time>2021-05-24T08:19:55Z</time>
      </trkpt>
      <trkpt lat="42.8637690" lon="-8.5742670">
        <ele>191.2</ele>
        <time>2021-05-24T08:19:56Z</time>
      </trkpt>
      <trkpt lat="42.8637840" lon="-8.5742760">
        <ele>191.0</ele>
        <time>2021-05-24T08:19:57Z</time>
      </trkpt>
      <trkpt lat="42.8638090" lon="-8.5742950">
        <ele>190.8</ele>
        <time>2021-05-24T08:19:58Z</time>
      </trkpt>
      <trkpt lat="42.8638180" lon="-8.5743010">
        <ele>190.7</ele>
        <time>2021-05-24T08:19:59Z</time>
      </trkpt>
      <trkpt lat="42.8638370" lon="-8.5743180">
        <ele>190.5</ele>
        <time>2021-05-24T08:20:00Z</time>
      </trkpt>
      <trkpt lat="42.8638420" lon="-8.5743270">
        <ele>190.4</ele>
        <time>2021-05-24T08:20:01Z</time>
      </trkpt>
      <trkpt lat="42.8638480" lon="-8.5743370">
        <ele>190.3</ele>
        <time>2021-05-24T08:20:02Z</time>
      </trkpt>
      <trkpt lat="42.8638580" lon="-8.5743440">
        <ele>190.1</ele>
        <time>2021-05-24T08:20:03Z</time>
      </trkpt>
      <trkpt lat="42.8638650" lon="-8.5743560">
        <ele>190.0</ele>
        <time>2021-05-24T08:20:04Z</time>
      </trkpt>
      <trkpt lat="42.8638710" lon="-8.5743650">
        <ele>189.9</ele>
        <time>2021-05-24T08:20:05Z</time>
      </trkpt>
      <trkpt lat="42.8638730" lon="-8.5743690">
        <ele>189.9</ele>
        <time>2021-05-24T08:20:06Z</time>
      </trkpt>
      <trkpt lat="42.8638860" lon="-8.5743780">
        <ele>189.7</ele>
        <time>2021-05-24T08:20:07Z</time>
      </trkpt>
      <trkpt lat="42.8638970" lon="-8.5743870">
        <ele>189.5</ele>
        <time>2021-05-24T08:20:08Z</time>
      </trkpt>
      <trkpt lat="42.8639020" lon="-8.5743850">
        <ele>189.5</ele>
        <time>2021-05-24T08:20:09Z</time>
      </trkpt>
      <trkpt lat="42.8639120" lon="-8.5743870">
        <ele>189.3</ele>
        <time>2021-05-24T08:20:10Z</time>
      </trkpt>
      <trkpt lat="42.8639220" lon="-8.5743910">
        <ele>189.2</ele>
        <time>2021-05-24T08:20:11Z</time>
      </trkpt>
      <trkpt lat="42.8639280" lon="-8.5744000">
        <ele>189.1</ele>
        <time>2021-05-24T08:20:12Z</time>
      </trkpt>
      <trkpt lat="42.8639440" lon="-8.5744190">
        <ele>188.8</ele>
        <time>2021-05-24T08:20:13Z</time>
      </trkpt>
      <trkpt lat="42.8639500" lon="-8.5744260">
        <ele>188.7</ele>
        <time>2021-05-24T08:20:14Z</time>
      </trkpt>
      <trkpt lat="42.8639550" lon="-8.5744340">
        <ele>188.6</ele>
        <time>2021-05-24T08:20:15Z</time>
      </trkpt>
      <trkpt lat="42.8639640" lon="-8.5744530">
        <ele>188.4</ele>
        <time>2021-05-24T08:20:16Z</time>
      </trkpt>
      <trkpt lat="42.8639780" lon="-8.5744690">
        <ele>188.2</ele>
        <time>2021-05-24T08:20:17Z</time>
      </trkpt>
      <trkpt lat="42.8639920" lon="-8.5744820">
        <ele>188.0</ele>
        <time>2021-05-24T08:20:18Z</time>
      </trkpt>
      <trkpt lat="42.8640080" lon="-8.5744910">
        <ele>187.8</ele>
        <time>2021-05-24T08:20:19Z</time>
      </trkpt>
      <trkpt lat="42.8640320" lon="-8.5745130">
        <ele>187.4</ele>
        <time>2021-05-24T08:20:20Z</time>
      </trkpt>
      <trkpt lat="42.8640390" lon="-8.5745180">
        <ele>187.3</ele>
        <time>2021-05-24T08:20:21Z</time>
      </trkpt>
      <trkpt lat="42.8640510" lon="-8.5745380">
        <ele>187.1</ele>
        <time>2021-05-24T08:20:22Z</time>
      </trkpt>
      <trkpt lat="42.8640600" lon="-8.5745570">
        <ele>186.9</ele>
        <time>2021-05-24T08:20:23Z</time>
      </trkpt>
      <trkpt lat="42.8640710" lon="-8.5745730">
        <ele>186.7</ele>
        <time>2021-05-24T08:20:24Z</time>
      </trkpt>
      <trkpt lat="42.8640840" lon="-8.5745860">
        <ele>186.5</ele>
        <time>2021-05-24T08:20:25Z</time>
      </trkpt>
      <trkpt lat="42.8640910" lon="-8.5745960">
        <ele>186.4</ele>
        <time>2021-05-24T08:20:26Z</time>
      </trkpt>
      <trkpt lat="42.8640960" lon="-8.5746020">
        <ele>186.4</ele>
        <time>2021-05-24T08:20:27Z</time>
      </trkpt>
      <trkpt lat="42.8641000" lon="-8.5746030">
        <ele>186.3</ele>
        <time>2021-05-24T08:20:28Z</time>
      </trkpt>
      <trkpt lat="42.8641100" lon="-8.5746120">
        <ele>186.2</ele>
        <time>2021-05-24T08:20:29Z</time>
      </trkpt>
      <trkpt lat="42.8641200" lon="-8.5746370">
        <ele>186.0</ele>
        <time>2021-05-24T08:20:30Z</time>
      </trkpt>
      <trkpt lat="42.8641250" lon="-8.5746460">
        <ele>185.9</ele>
        <time>2021-05-24T08:20:31Z</time>
      </trkpt>
      <trkpt lat="42.8641290" lon="-8.5746540">
        <ele>185.8</ele>
        <time>2021-05-24T08:20:32Z</time>
      </trkpt>
      <trkpt lat="42.8641460" lon="-8.5746750">
        <ele>185.6</ele>
        <time>2021-05-24T08:20:33Z</time>
      </trkpt>
      <trkpt lat="42.8641510" lon="-8.5746810">
        <ele>185.6</ele>
        <time>2021-05-24T08:20:34Z</time>
      </trkpt>
      <trkpt lat="42.8641560" lon="-8.5746880">
        <ele>185.5</ele>
        <time>2021-05-24T08:20:35Z</time>
      </trkpt>
      <trkpt lat="42.8641740" lon="-8.5747120">
        <ele>185.3</ele>
        <time>2021-05-24T08:20:36Z</time>
      </trkpt>
      <trkpt lat="42.8641810" lon="-8.5747210">
        <ele>185.2</ele>
        <time>2021-05-24T08:20:37Z</time>
      </trkpt>
      <trkpt lat="42.8641880" lon="-8.5747310">
        <ele>185.1</ele>
        <time>2021-05-24T08:20:38Z</time>
      </trkpt>
      <trkpt lat="42.8641990" lon="-8.5747490">
        <ele>185.0</ele>
        <time>2021-05-24T08:20:39Z</time>
      </trkpt>
      <trkpt lat="42.8642160" lon="-8.5747590">
        <ele>184.9</ele>
        <time>2021-05-24T08:20:40Z</time>
      </trkpt>
      <trkpt lat="42.8642260" lon="-8.5747730">
        <ele>184.8</ele>
        <time>2021-05-24T08:20:41Z</time>
      </trkpt>
      <trkpt lat="42.8642330" lon="-8.5747920">
        <ele>184.7</ele>
        <time>2021-05-24T08:20:42Z</time>
      </trkpt>
      <trkpt lat="42.8642450" lon="-8.5748050">
        <ele>184.6</ele>
        <time>2021-05-24T08:20:43Z</time>
      </trkpt>
      <trkpt lat="42.8642580" lon="-8.5748160">
        <ele>184.5</ele>
        <time>2021-05-24T08:20:44Z</time>
      </trkpt>
      <trkpt lat="42.8642650" lon="-8.5748330">
        <ele>184.4</ele>
        <time>2021-05-24T08:20:45Z</time>
      </trkpt>
      <trkpt lat="42.8642750" lon="-8.5748490">
        <ele>184.3</ele>
        <time>2021-05-24T08:20:46Z</time>
      </trkpt>
      <trkpt lat="42.8642840" lon="-8.5748660">
        <ele>184.2</ele>
        <time>2021-05-24T08:20:47Z</time>
      </trkpt>
      <trkpt lat="42.8642940" lon="-8.5748780">
        <ele>184.2</ele>
        <time>2021-05-24T08:20:48Z</time>
      </trkpt>
      <trkpt lat="42.8643040" lon="-8.5748930">
        <ele>184.1</ele>
        <time>2021-05-24T08:20:49Z</time>
      </trkpt>
      <trkpt lat="42.8643130" lon="-8.5749100">
        <ele>184.0</ele>
        <time>2021-05-24T08:20:50Z</time>
      </trkpt>
      <trkpt lat="42.8643240" lon="-8.5749220">
        <ele>183.9</ele>
        <time>2021-05-24T08:20:51Z</time>
      </trkpt>
      <trkpt lat="42.8643300" lon="-8.5749410">
        <ele>183.8</ele>
        <time>2021-05-24T08:20:52Z</time>
      </trkpt>
      <trkpt lat="42.8643410" lon="-8.5749560">
        <ele>183.8</ele>
        <time>2021-05-24T08:20:53Z</time>
      </trkpt>
      <trkpt lat="42.8643540" lon="-8.5749640">
        <ele>183.7</ele>
        <time>2021-05-24T08:20:54Z</time>
      </trkpt>
      <trkpt lat="42.8643680" lon="-8.5749850">
        <ele>183.6</ele>
        <time>2021-05-24T08:20:55Z</time>
      </trkpt>
      <trkpt lat="42.8643730" lon="-8.5749950">
        <ele>183.5</ele>
        <time>2021-05-24T08:20:56Z</time>
      </trkpt>
      <trkpt lat="42.8643780" lon="-8.5750060">
        <ele>183.5</ele>
        <time>2021-05-24T08:20:57Z</time>
      </trkpt>
      <trkpt lat="42.8643860" lon="-8.5750230">
        <ele>183.4</ele>
        <time>2021-05-24T08:20:58Z</time>
      </trkpt>
      <trkpt lat="42.8643950" lon="-8.5750360">
        <ele>183.3</ele>
        <time>2021-05-24T08:20:59Z</time>
      </trkpt>
      <trkpt lat="42.8644040" lon="-8.5750490">
        <ele>183.3</ele>
        <time>2021-05-24T08:21:00Z</time>
      </trkpt>
      <trkpt lat="42.8644160" lon="-8.5750610">
        <ele>183.2</ele>
        <time>2021-05-24T08:21:01Z</time>
      </trkpt>
      <trkpt lat="42.8644350" lon="-8.5750790">
        <ele>183.1</ele>
        <time>2021-05-24T08:21:02Z</time>
      </trkpt>
      <trkpt lat="42.8644430" lon="-8.5750840">
        <ele>183.0</ele>
        <time>2021-05-24T08:21:03Z</time>
      </trkpt>
      <trkpt lat="42.8644520" lon="-8.5750890">
        <ele>183.0</ele>
        <time>2021-05-24T08:21:04Z</time>
      </trkpt>
      <trkpt lat="42.8644650" lon="-8.5750990">
        <ele>182.9</ele>
        <time>2021-05-24T08:21:05Z</time>
      </trkpt>
      <trkpt lat="42.8644660" lon="-8.5751030">
        <ele>182.9</ele>
        <time>2021-05-24T08:21:06Z</time>
      </trkpt>
      <trkpt lat="42.8644670" lon="-8.5751080">
        <ele>182.9</ele>
        <time>2021-05-24T08:21:07Z</time>
      </trkpt>
      <trkpt lat="42.8644680" lon="-8.5751120">
        <ele>182.9</ele>
        <time>2021-05-24T08:21:08Z</time>
      </trkpt>
      <trkpt lat="42.8644690" lon="-8.5751160">
        <ele>182.9</ele>
        <time>2021-05-24T08:21:09Z</time>
      </trkpt>
      <trkpt lat="42.8644690" lon="-8.5751200">
        <ele>182.8</ele>
        <time>2021-05-24T08:21:10Z</time>
      </trkpt>
      <trkpt lat="42.8644700" lon="-8.5751240">
        <ele>182.8</ele>
        <time>2021-05-24T08:21:11Z</time>
      </trkpt>
      <trkpt lat="42.8644710" lon="-8.5751290">
        <ele>182.8</ele>
        <time>2021-05-24T08:21:12Z</time>
      </trkpt>
      <trkpt lat="42.8644720" lon="-8.5751330">
        <ele>182.8</ele>
        <time>2021-05-24T08:21:13Z</time>
      </trkpt>
      <trkpt lat="42.8644730" lon="-8.5751370">
        <ele>182.8</ele>
        <time>2021-05-24T08:21:14Z</time>
      </trkpt>
      <trkpt lat="42.8644740" lon="-8.5751490">
        <ele>182.7</ele>
        <time>2021-05-24T08:21:15Z</time>
      </trkpt>
      <trkpt lat="42.8644810" lon="-8.5751580">
        <ele>182.7</ele>
        <time>2021-05-24T08:21:16Z</time>
      </trkpt>
      <trkpt lat="42.8644930" lon="-8.5751730">
        <ele>182.6</ele>
        <time>2021-05-24T08:21:17Z</time>
      </trkpt>
      <trkpt lat="42.8645010" lon="-8.5751900">
        <ele>182.6</ele>
        <time>2021-05-24T08:21:18Z</time>
      </trkpt>
      <trkpt lat="42.8645120" lon="-8.5752060">
        <ele>182.5</ele>
        <time>2021-05-24T08:21:19Z</time>
      </trkpt>
      <trkpt lat="42.8645220" lon="-8.5752180">
        <ele>182.4</ele>
        <time>2021-05-24T08:21:20Z</time>
      </trkpt>
      <trkpt lat="42.8645290" lon="-8.5752380">
        <ele>182.4</ele>
        <time>2021-05-24T08:21:21Z</time>
      </trkpt>
      <trkpt lat="42.8645400" lon="-8.5752490">
        <ele>182.3</ele>
        <time>2021-05-24T08:21:22Z</time>
      </trkpt>
      <trkpt lat="42.8645510" lon="-8.5752620">
        <ele>182.3</ele>
        <time>2021-05-24T08:21:23Z</time>
      </trkpt>
      <trkpt lat="42.8645640" lon="-8.5752760">
        <ele>182.2</ele>
        <time>2021-05-24T08:21:24Z</time>
      </trkpt>
      <trkpt lat="42.8645740" lon="-8.5752890">
        <ele>182.2</ele>
        <time>2021-05-24T08:21:25Z</time>
      </trkpt>
      <trkpt lat="42.8645830" lon="-8.5753030">
        <ele>182.2</ele>
        <time>2021-05-24T08:21:26Z</time>
      </trkpt>
      <trkpt lat="42.8645950" lon="-8.5753160">
        <ele>182.1</ele>
        <time>2021-05-24T08:21:27Z</time>
      </trkpt>
      <trkpt lat="42.8646070" lon="-8.5753240">
        <ele>182.1</ele>
        <time>2021-05-24T08:21:28Z</time>
      </trkpt>
      <trkpt lat="42.8646200" lon="-8.5753340">
        <ele>182.1</ele>
        <time>2021-05-24T08:21:29Z</time>
      </trkpt>
      <trkpt lat="42.8646290" lon="-8.5753500">
        <ele>182.0</ele>
        <time>2021-05-24T08:21:30Z</time>
      </trkpt>
      <trkpt lat="42.8646380" lon="-8.5753680">
        <ele>182.0</ele>
        <time>2021-05-24T08:21:31Z</time>
      </trkpt>
      <trkpt lat="42.8646490" lon="-8.5753830">
        <ele>182.0</ele>
        <time>2021-05-24T08:21:32Z</time>
      </trkpt>
      <trkpt lat="42.8646590" lon="-8.5753960">
        <ele>182.0</ele>
        <time>2021-05-24T08:21:33Z</time>
      </trkpt>
      <trkpt lat="42.8646690" lon="-8.5754080">
        <ele>181.9</ele>
        <time>2021-05-24T08:21:34Z</time>
      </trkpt>
      <trkpt lat="42.8646820" lon="-8.5754200">
        <ele>181.9</ele>
        <time>2021-05-24T08:21:35Z</time>
      </trkpt>
      <trkpt lat="42.8646910" lon="-8.5754340">
        <ele>181.9</ele>
        <time>2021-05-24T08:21:36Z</time>
      </trkpt>
      <trkpt lat="42.8647030" lon="-8.5754480">
        <ele>181.9</ele>
        <time>2021-05-24T08:21:37Z</time>
      </trkpt>
      <trkpt lat="42.8647100" lon="-8.5754640">
        <ele>181.9</ele>
        <time>2021-05-24T08:21:38Z</time>
      </trkpt>
      <trkpt lat="42.8647200" lon="-8.5754780">
        <ele>181.9</ele>
        <time>2021-05-24T08:21:39Z</time>
      </trkpt>
      <trkpt lat="42.8647310" lon="-8.5754880">
        <ele>181.9</ele>
        <time>2021-05-24T08:21:40Z</time>
      </trkpt>
      <trkpt lat="42.8647430" lon="-8.5754980">
        <ele>181.9</ele>
        <time>2021-05-24T08:21:41Z</time>
      </trkpt>
      <trkpt lat="42.8647570" lon="-8.5755200">
        <ele>181.9</ele>
        <time>2021-05-24T08:21:42Z</time>
      </trkpt>
      <trkpt lat="42.8647610" lon="-8.5755290">
        <ele>181.9</ele>
        <time>2021-05-24T08:21:43Z</time>
      </trkpt>
      <trkpt lat="42.8647660" lon="-8.5755380">
        <ele>181.9</ele>
        <time>2021-05-24T08:21:44Z</time>
      </trkpt>
      <trkpt lat="42.8647790" lon="-8.5755630">
        <ele>181.9</ele>
        <time>2021-05-24T08:21:45Z</time>
      </trkpt>
      <trkpt lat="42.8647840" lon="-8.5755720">
        <ele>181.9</ele>
        <time>2021-05-24T08:21:46Z</time>
      </trkpt>
      <trkpt lat="42.8647890" lon="-8.5755800">
        <ele>181.9</ele>
        <time>2021-05-24T08:21:47Z</time>
      </trkpt>
      <trkpt lat="42.8647950" lon="-8.5755950">
        <ele>181.9</ele>
        <time>2021-05-24T08:21:48Z</time>
      </trkpt>
      <trkpt lat="42.8647990" lon="-8.5756060">
        <ele>181.9</ele>
        <time>2021-05-24T08:21:49Z</time>
      </trkpt>
      <trkpt lat="42.8648010" lon="-8.5756200">
        <ele>181.9</ele>
        <time>2021-05-24T08:21:50Z</time>
      </trkpt>
      <trkpt lat="42.8648110" lon="-8.5756390">
        <ele>182.0</ele>
        <time>2021-05-24T08:21:51Z</time>
      </trkpt>
      <trkpt lat="42.8648150" lon="-8.5756530">
        <ele>182.0</ele>
        <time>2021-05-24T08:21:52Z</time>
      </trkpt>
      <trkpt lat="42.8648180" lon="-8.5756660">
        <ele>182.0</ele>
        <time>2021-05-24T08:21:53Z</time>
      </trkpt>
      <trkpt lat="42.8648230" lon="-8.5756790">
        <ele>182.0</ele>
        <time>2021-05-24T08:21:54Z</time>
      </trkpt>
      <trkpt lat="42.8648330" lon="-8.5756940">
        <ele>182.0</ele>
        <time>2021-05-24T08:21:55Z</time>
      </trkpt>
      <trkpt lat="42.8648370" lon="-8.5757070">
        <ele>182.0</ele>
        <time>2021-05-24T08:21:56Z</time>
      </trkpt>
      <trkpt lat="42.8648510" lon="-8.5757200">
        <ele>182.0</ele>
        <time>2021-05-24T08:21:57Z</time>
      </trkpt>
      <trkpt lat="42.8648560" lon="-8.5757350">
        <ele>182.0</ele>
        <time>2021-05-24T08:21:58Z</time>
      </trkpt>
      <trkpt lat="42.8648570" lon="-8.5757470">
        <ele>182.1</ele>
        <time>2021-05-24T08:21:59Z</time>
      </trkpt>
      <trkpt lat="42.8648660" lon="-8.5757640">
        <ele>182.1</ele>
        <time>2021-05-24T08:22:00Z</time>
      </trkpt>
      <trkpt lat="42.8648710" lon="-8.5757790">
        <ele>182.1</ele>
        <time>2021-05-24T08:22:01Z</time>
      </trkpt>
      <trkpt lat="42.8648810" lon="-8.5758060">
        <ele>182.1</ele>
        <time>2021-05-24T08:22:02Z</time>
      </trkpt>
      <trkpt lat="42.8648850" lon="-8.5758170">
        <ele>182.1</ele>
        <time>2021-05-24T08:22:03Z</time>
      </trkpt>
      <trkpt lat="42.8648880" lon="-8.5758280">
        <ele>182.1</ele>
        <time>2021-05-24T08:22:04Z</time>
      </trkpt>
      <trkpt lat="42.8648980" lon="-8.5758520">
        <ele>182.1</ele>
        <time>2021-05-24T08:22:05Z</time>
      </trkpt>
      <trkpt lat="42.8649040" lon="-8.5758620">
        <ele>182.1</ele>
        <time>2021-05-24T08:22:06Z</time>
      </trkpt>
      <trkpt lat="42.8649100" lon="-8.5758710">
        <ele>182.1</ele>
        <time>2021-05-24T08:22:07Z</time>
      </trkpt>
      <trkpt lat="42.8649160" lon="-8.5758820">
        <ele>182.1</ele>
        <time>2021-05-24T08:22:08Z</time>
      </trkpt>
      <trkpt lat="42.8649280" lon="-8.5759020">
        <ele>182.1</ele>
        <time>2021-05-24T08:22:09Z</time>
      </trkpt>
      <trkpt lat="42.8649320" lon="-8.5759180">
        <ele>182.1</ele>
        <time>2021-05-24T08:22:10Z</time>
      </trkpt>
      <trkpt lat="42.8649340" lon="-8.5759290">
        <ele>182.1</ele>
        <time>2021-05-24T08:22:11Z</time>
      </trkpt>
      <trkpt lat="42.8649380" lon="-8.5759380">
        <ele>182.1</ele>
        <time>2021-05-24T08:22:12Z</time>
      </trkpt>
      <trkpt lat="42.8649540" lon="-8.5759540">
        <ele>182.0</ele>
        <time>2021-05-24T08:22:13Z</time>
      </trkpt>
      <trkpt lat="42.8649590" lon="-8.5759640">
        <ele>182.0</ele>
        <time>2021-05-24T08:22:14Z</time>
      </trkpt>
      <trkpt lat="42.8649650" lon="-8.5759750">
        <ele>181.9</ele>
        <time>2021-05-24T08:22:15Z</time>
      </trkpt>
      <trkpt lat="42.8649710" lon="-8.5759780">
        <ele>181.9</ele>
        <time>2021-05-24T08:22:16Z</time>
      </trkpt>
      <trkpt lat="42.8649800" lon="-8.5759920">
        <ele>181.8</ele>
        <time>2021-05-24T08:22:17Z</time>
      </trkpt>
      <trkpt lat="42.8649890" lon="-8.5759930">
        <ele>181.8</ele>
        <time>2021-05-24T08:22:18Z</time>
      </trkpt>
      <trkpt lat="42.8650080" lon="-8.5759970">
        <ele>181.7</ele>
        <time>2021-05-24T08:22:19Z</time>
      </trkpt>
      <trkpt lat="42.8650240" lon="-8.5759950">
        <ele>181.5</ele>
        <time>2021-05-24T08:22:20Z</time>
      </trkpt>
      <trkpt lat="42.8650400" lon="-8.5759860">
        <ele>181.4</ele>
        <time>2021-05-24T08:22:21Z</time>
      </trkpt>
      <trkpt lat="42.8650510" lon="-8.5759780">
        <ele>181.3</ele>
        <time>2021-05-24T08:22:22Z</time>
      </trkpt>
      <trkpt lat="42.8650620" lon="-8.5759670">
        <ele>181.1</ele>
        <time>2021-05-24T08:22:23Z</time>
      </trkpt>
      <trkpt lat="42.8650780" lon="-8.5759560">
        <ele>181.0</ele>
        <time>2021-05-24T08:22:24Z</time>
      </trkpt>
      <trkpt lat="42.8650830" lon="-8.5759500">
        <ele>180.9</ele>
        <time>2021-05-24T08:22:25Z</time>
      </trkpt>
      <trkpt lat="42.8650890" lon="-8.5759350">
        <ele>180.7</ele>
        <time>2021-05-24T08:22:26Z</time>
      </trkpt>
      <trkpt lat="42.8650930" lon="-8.5759310">
        <ele>180.7</ele>
        <time>2021-05-24T08:22:27Z</time>
      </trkpt>
      <trkpt lat="42.8650930" lon="-8.5759370">
        <ele>180.6</ele>
        <time>2021-05-24T08:22:28Z</time>
      </trkpt>
      <trkpt lat="42.8650950" lon="-8.5759360">
        <ele>180.6</ele>
        <time>2021-05-24T08:22:29Z</time>
      </trkpt>
      <trkpt lat="42.8650940" lon="-8.5759320">
        <ele>180.6</ele>
        <time>2021-05-24T08:22:30Z</time>
      </trkpt>
      <trkpt lat="42.8650980" lon="-8.5759240">
        <ele>180.5</ele>
        <time>2021-05-24T08:22:31Z</time>
      </trkpt>
      <trkpt lat="42.8650980" lon="-8.5759240">
        <ele>180.5</ele>
        <time>2021-05-24T08:22:32Z</time>
      </trkpt>
      <trkpt lat="42.8650970" lon="-8.5759250">
        <ele>180.5</ele>
        <time>2021-05-24T08:22:33Z</time>
      </trkpt>
      <trkpt lat="42.8651000" lon="-8.5759230">
        <ele>180.4</ele>
        <time>2021-05-24T08:22:34Z</time>
      </trkpt>
      <trkpt lat="42.8650970" lon="-8.5759220">
        <ele>180.4</ele>
        <time>2021-05-24T08:22:35Z</time>
      </trkpt>
      <trkpt lat="42.8651020" lon="-8.5759260">
        <ele>180.3</ele>
        <time>2021-05-24T08:22:36Z</time>
      </trkpt>
      <trkpt lat="42.8651030" lon="-8.5759280">
        <ele>180.3</ele>
        <time>2021-05-24T08:22:37Z</time>
      </trkpt>
      <trkpt lat="42.8651050" lon="-8.5759270">
        <ele>180.3</ele>
        <time>2021-05-24T08:22:38Z</time>
      </trkpt>
      <trkpt lat="42.8651070" lon="-8.5759290">
        <ele>180.2</ele>
        <time>2021-05-24T08:22:39Z</time>
      </trkpt>
      <trkpt lat="42.8651080" lon="-8.5759280">
        <ele>180.2</ele>
        <time>2021-05-24T08:22:40Z</time>
      </trkpt>
      <trkpt lat="42.8651130" lon="-8.5759320">
        <ele>180.2</ele>
        <time>2021-05-24T08:22:41Z</time>
      </trkpt>
      <trkpt lat="42.8651160" lon="-8.5759300">
        <ele>180.1</ele>
        <time>2021-05-24T08:22:42Z</time>
      </trkpt>
      <trkpt lat="42.8651180" lon="-8.5759330">
        <ele>180.1</ele>
        <time>2021-05-24T08:22:43Z</time>
      </trkpt>
      <trkpt lat="42.8651170" lon="-8.5759370">
        <ele>180.0</ele>
        <time>2021-05-24T08:22:44Z</time>
      </trkpt>
      <trkpt lat="42.8651180" lon="-8.5759310">
        <ele>180.0</ele>
        <time>2021-05-24T08:22:45Z</time>
      </trkpt>
      <trkpt lat="42.8651270" lon="-8.5759230">
        <ele>179.8</ele>
        <time>2021-05-24T08:22:46Z</time>
      </trkpt>
      <trkpt lat="42.8651390" lon="-8.5759080">
        <ele>179.6</ele>
        <time>2021-05-24T08:22:47Z</time>
      </trkpt>
      <trkpt lat="42.8651440" lon="-8.5758980">
        <ele>179.5</ele>
        <time>2021-05-24T08:22:48Z</time>
      </trkpt>
      <trkpt lat="42.8651500" lon="-8.5758890">
        <ele>179.4</ele>
        <time>2021-05-24T08:22:49Z</time>
      </trkpt>
      <trkpt lat="42.8651550" lon="-8.5758790">
        <ele>179.2</ele>
        <time>2021-05-24T08:22:50Z</time>
      </trkpt>
      <trkpt lat="42.8651620" lon="-8.5758750">
        <ele>179.1</ele>
        <time>2021-05-24T08:22:51Z</time>
      </trkpt>
      <trkpt lat="42.8651670" lon="-8.5758670">
        <ele>179.0</ele>
        <time>2021-05-24T08:22:52Z</time>
      </trkpt>
      <trkpt lat="42.8651710" lon="-8.5758590">
        <ele>178.9</ele>
        <time>2021-05-24T08:22:53Z</time>
      </trkpt>
      <trkpt lat="42.8651810" lon="-8.5758460">
        <ele>178.7</ele>
        <time>2021-05-24T08:22:54Z</time>
      </trkpt>
      <trkpt lat="42.8651890" lon="-8.5758330">
        <ele>178.5</ele>
        <time>2021-05-24T08:22:55Z</time>
      </trkpt>
      <trkpt lat="42.8651930" lon="-8.5758280">
        <ele>178.4</ele>
        <time>2021-05-24T08:22:56Z</time>
      </trkpt>
      <trkpt lat="42.8652020" lon="-8.5758210">
        <ele>178.3</ele>
        <time>2021-05-24T08:22:57Z</time>
      </trkpt>
      <trkpt lat="42.8652180" lon="-8.5758030">
        <ele>178.0</ele>
        <time>2021-05-24T08:22:58Z</time>
      </trkpt>
      <trkpt lat="42.8652250" lon="-8.5757940">
        <ele>177.9</ele>
        <time>2021-05-24T08:22:59Z</time>
      </trkpt>
      <trkpt lat="42.8652320" lon="-8.5757860">
        <ele>177.7</ele>
        <time>2021-05-24T08:23:00Z</time>
      </trkpt>
      <trkpt lat="42.8652370" lon="-8.5757710">
        <ele>177.6</ele>
        <time>2021-05-24T08:23:01Z</time>
      </trkpt>
      <trkpt lat="42.8652530" lon="-8.5757600">
        <ele>177.3</ele>
        <time>2021-05-24T08:23:02Z</time>
      </trkpt>
      <trkpt lat="42.8652620" lon="-8.5757520">
        <ele>177.1</ele>
        <time>2021-05-24T08:23:03Z</time>
      </trkpt>
      <trkpt lat="42.8652700" lon="-8.5757410">
        <ele>177.0</ele>
        <time>2021-05-24T08:23:04Z</time>
      </trkpt>
      <trkpt lat="42.8652750" lon="-8.5757320">
        <ele>176.9</ele>
        <time>2021-05-24T08:23:05Z</time>
      </trkpt>
      <trkpt lat="42.8652770" lon="-8.5757230">
        <ele>176.8</ele>
        <time>2021-05-24T08:23:06Z</time>
      </trkpt>
      <trkpt lat="42.8652810" lon="-8.5757100">
        <ele>176.6</ele>
        <time>2021-05-24T08:23:07Z</time>
      </trkpt>
      <trkpt lat="42.8652860" lon="-8.5757010">
        <ele>176.5</ele>
        <time>2021-05-24T08:23:08Z</time>
      </trkpt>
      <trkpt lat="42.8652880" lon="-8.5756890">
        <ele>176.4</ele>
        <time>2021-05-24T08:23:09Z</time>
      </trkpt>
      <trkpt lat="42.8652940" lon="-8.5756770">
        <ele>176.2</ele>
        <time>2021-05-24T08:23:10Z</time>
      </trkpt>
      <trkpt lat="42.8652970" lon="-8.5756620">
        <ele>176.1</ele>
        <time>2021-05-24T08:23:11Z</time>
      </trkpt>
      <trkpt lat="42.8653070" lon="-8.5756510">
        <ele>175.9</ele>
        <time>2021-05-24T08:23:12Z</time>
      </trkpt>
      <trkpt lat="42.8653130" lon="-8.5756410">
        <ele>175.7</ele>
        <time>2021-05-24T08:23:13Z</time>
      </trkpt>
      <trkpt lat="42.8653180" lon="-8.5756260">
        <ele>175.6</ele>
        <time>2021-05-24T08:23:14Z</time>
      </trkpt>
      <trkpt lat="42.8653250" lon="-8.5756180">
        <ele>175.5</ele>
        <time>2021-05-24T08:23:15Z</time>
      </trkpt>
      <trkpt lat="42.8653320" lon="-8.5756080">
        <ele>175.3</ele>
        <time>2021-05-24T08:23:16Z</time>
      </trkpt>
      <trkpt lat="42.8653360" lon="-8.5755970">
        <ele>175.2</ele>
        <time>2021-05-24T08:23:17Z</time>
      </trkpt>
      <trkpt lat="42.8653460" lon="-8.5755900">
        <ele>175.1</ele>
        <time>2021-05-24T08:23:18Z</time>
      </trkpt>
      <trkpt lat="42.8653510" lon="-8.5755760">
        <ele>174.9</ele>
        <time>2021-05-24T08:23:19Z</time>
      </trkpt>
      <trkpt lat="42.8653560" lon="-8.5755640">
        <ele>174.8</ele>
        <time>2021-05-24T08:23:20Z</time>
      </trkpt>
      <trkpt lat="42.8653590" lon="-8.5755570">
        <ele>174.7</ele>
        <time>2021-05-24T08:23:21Z</time>
      </trkpt>
      <trkpt lat="42.8653730" lon="-8.5755480">
        <ele>174.5</ele>
        <time>2021-05-24T08:23:22Z</time>
      </trkpt>
      <trkpt lat="42.8653790" lon="-8.5755420">
        <ele>174.4</ele>
        <time>2021-05-24T08:23:23Z</time>
      </trkpt>
      <trkpt lat="42.8653850" lon="-8.5755360">
        <ele>174.3</ele>
        <time>2021-05-24T08:23:24Z</time>
      </trkpt>
      <trkpt lat="42.8653910" lon="-8.5755300">
        <ele>174.2</ele>
        <time>2021-05-24T08:23:25Z</time>
      </trkpt>
      <trkpt lat="42.8653920" lon="-8.5755240">
        <ele>174.2</ele>
        <time>2021-05-24T08:23:26Z</time>
      </trkpt>
      <trkpt lat="42.8654050" lon="-8.5755070">
        <ele>174.0</ele>
        <time>2021-05-24T08:23:27Z</time>
      </trkpt>
      <trkpt lat="42.8654110" lon="-8.5754970">
        <ele>173.9</ele>
        <time>2021-05-24T08:23:28Z</time>
      </trkpt>
      <trkpt lat="42.8654190" lon="-8.5754870">
        <ele>173.7</ele>
        <time>2021-05-24T08:23:29Z</time>
      </trkpt>
      <trkpt lat="42.8654170" lon="-8.5754760">
        <ele>173.6</ele>
        <time>2021-05-24T08:23:30Z</time>
      </trkpt>
      <trkpt lat="42.8654250" lon="-8.5754680">
        <ele>173.5</ele>
        <time>2021-05-24T08:23:31Z</time>
      </trkpt>
      <trkpt lat="42.8654290" lon="-8.5754640">
        <ele>173.4</ele>
        <time>2021-05-24T08:23:32Z</time>
      </trkpt>
      <trkpt lat="42.8654450" lon="-8.5754590">
        <ele>173.3</ele>
        <time>2021-05-24T08:23:33Z</time>
      </trkpt>
      <trkpt lat="42.8654530" lon="-8.5754450">
        <ele>173.1</ele>
        <time>2021-05-24T08:23:34Z</time>
      </trkpt>
      <trkpt lat="42.8654610" lon="-8.5754370">
        <ele>173.0</ele>
        <time>2021-05-24T08:23:35Z</time>
      </trkpt>
      <trkpt lat="42.8654680" lon="-8.5754350">
        <ele>172.9</ele>
        <time>2021-05-24T08:23:36Z</time>
      </trkpt>
      <trkpt lat="42.8654740" lon="-8.5754280">
        <ele>172.8</ele>
        <time>2021-05-24T08:23:37Z</time>
      </trkpt>
      <trkpt lat="42.8654810" lon="-8.5754240">
        <ele>172.7</ele>
        <time>2021-05-24T08:23:38Z</time>
      </trkpt>
      <trkpt lat="42.8654920" lon="-8.5754140">
        <ele>172.6</ele>
        <time>2021-05-24T08:23:39Z</time>
      </trkpt>
      <trkpt lat="42.8655050" lon="-8.5754030">
        <ele>172.4</ele>
        <time>2021-05-24T08:23:40Z</time>
      </trkpt>
      <trkpt lat="42.8655110" lon="-8.5753880">
        <ele>172.2</ele>
        <time>2021-05-24T08:23:41Z</time>
      </trkpt>
      <trkpt lat="42.8655210" lon="-8.5753830">
        <ele>172.1</ele>
        <time>2021-05-24T08:23:42Z</time>
      </trkpt>
      <trkpt lat="42.8655270" lon="-8.5753750">
        <ele>172.0</ele>
        <time>2021-05-24T08:23:43Z</time>
      </trkpt>
      <trkpt lat="42.8655340" lon="-8.5753720">
        <ele>171.9</ele>
        <time>2021-05-24T08:23:44Z</time>
      </trkpt>
      <trkpt lat="42.8655440" lon="-8.5753680">
        <ele>171.8</ele>
        <time>2021-05-24T08:23:45Z</time>
      </trkpt>
      <trkpt lat="42.8655500" lon="-8.5753650">
        <ele>171.7</ele>
        <time>2021-05-24T08:23:46Z</time>
      </trkpt>
      <trkpt lat="42.8655610" lon="-8.5753600">
        <ele>171.6</ele>
        <time>2021-05-24T08:23:47Z</time>
      </trkpt>
      <trkpt lat="42.8655690" lon="-8.5753550">
        <ele>171.5</ele>
        <time>2021-05-24T08:23:48Z</time>
      </trkpt>
      <trkpt lat="42.8655800" lon="-8.5753460">
        <ele>171.3</ele>
        <time>2021-05-24T08:23:49Z</time>
      </trkpt>
      <trkpt lat="42.8655870" lon="-8.5753380">
        <ele>171.2</ele>
        <time>2021-05-24T08:23:50Z</time>
      </trkpt>
      <trkpt lat="42.8655870" lon="-8.5753300">
        <ele>171.1</ele>
        <time>2021-05-24T08:23:51Z</time>
      </trkpt>
      <trkpt lat="42.8655990" lon="-8.5753200">
        <ele>171.0</ele>
        <time>2021-05-24T08:23:52Z</time>
      </trkpt>
      <trkpt lat="42.8656080" lon="-8.5753150">
        <ele>170.9</ele>
        <time>2021-05-24T08:23:53Z</time>
      </trkpt>
      <trkpt lat="42.8656140" lon="-8.5753080">
        <ele>170.8</ele>
        <time>2021-05-24T08:23:54Z</time>
      </trkpt>
      <trkpt lat="42.8656240" lon="-8.5752960">
        <ele>170.6</ele>
        <time>2021-05-24T08:23:55Z</time>
      </trkpt>
      <trkpt lat="42.8656300" lon="-8.5752880">
        <ele>170.5</ele>
        <time>2021-05-24T08:23:56Z</time>
      </trkpt>
      <trkpt lat="42.8656350" lon="-8.5752790">
        <ele>170.4</ele>
        <time>2021-05-24T08:23:57Z</time>
      </trkpt>
      <trkpt lat="42.8656410" lon="-8.5752710">
        <ele>170.3</ele>
        <time>2021-05-24T08:23:58Z</time>
      </trkpt>
      <trkpt lat="42.8656510" lon="-8.5752580">
        <ele>170.1</ele>
        <time>2021-05-24T08:23:59Z</time>
      </trkpt>
      <trkpt lat="42.8656580" lon="-8.5752530">
        <ele>170.0</ele>
        <time>2021-05-24T08:24:00Z</time>
      </trkpt>
      <trkpt lat="42.8656640" lon="-8.5752470">
        <ele>170.0</ele>
        <time>2021-05-24T08:24:01Z</time>
      </trkpt>
      <trkpt lat="42.8656700" lon="-8.5752410">
        <ele>169.9</ele>
        <time>2021-05-24T08:24:02Z</time>
      </trkpt>
      <trkpt lat="42.8656830" lon="-8.5752320">
        <ele>169.7</ele>
        <time>2021-05-24T08:24:03Z</time>
      </trkpt>
      <trkpt lat="42.8656930" lon="-8.5752170">
        <ele>169.5</ele>
        <time>2021-05-24T08:24:04Z</time>
      </trkpt>
      <trkpt lat="42.8657020" lon="-8.5752100">
        <ele>169.4</ele>
        <time>2021-05-24T08:24:05Z</time>
      </trkpt>
      <trkpt lat="42.8657080" lon="-8.5752070">
        <ele>169.3</ele>
        <time>2021-05-24T08:24:06Z</time>
      </trkpt>
      <trkpt lat="42.8657120" lon="-8.5752060">
        <ele>169.3</ele>
        <time>2021-05-24T08:24:07Z</time>
      </trkpt>
      <trkpt lat="42.8657250" lon="-8.5751970">
        <ele>169.1</ele>
        <time>2021-05-24T08:24:08Z</time>
      </trkpt>
      <trkpt lat="42.8657320" lon="-8.5751870">
        <ele>169.0</ele>
        <time>2021-05-24T08:24:09Z</time>
      </trkpt>
      <trkpt lat="42.8657350" lon="-8.5751830">
        <ele>168.9</ele>
        <time>2021-05-24T08:24:10Z</time>
      </trkpt>
      <trkpt lat="42.8657490" lon="-8.5751710">
        <ele>168.7</ele>
        <time>2021-05-24T08:24:11Z</time>
      </trkpt>
      <trkpt lat="42.8657550" lon="-8.5751650">
        <ele>168.6</ele>
        <time>2021-05-24T08:24:12Z</time>
      </trkpt>
      <trkpt lat="42.8657630" lon="-8.5751620">
        <ele>168.5</ele>
        <time>2021-05-24T08:24:13Z</time>
      </trkpt>
      <trkpt lat="42.8657750" lon="-8.5751550">
        <ele>168.4</ele>
        <time>2021-05-24T08:24:14Z</time>
      </trkpt>
      <trkpt lat="42.8657950" lon="-8.5751500">
        <ele>168.1</ele>
        <time>2021-05-24T08:24:15Z</time>
      </trkpt>
      <trkpt lat="42.8658040" lon="-8.5751500">
        <ele>168.0</ele>
        <time>2021-05-24T08:24:16Z</time>
      </trkpt>
      <trkpt lat="42.8658130" lon="-8.5751490">
        <ele>167.9</ele>
        <time>2021-05-24T08:24:17Z</time>
      </trkpt>
      <trkpt lat="42.8658190" lon="-8.5751430">
        <ele>167.8</ele>
        <time>2021-05-24T08:24:18Z</time>
      </trkpt>
      <trkpt lat="42.8658360" lon="-8.5751390">
        <ele>167.6</ele>
        <time>2021-05-24T08:24:19Z</time>
      </trkpt>
      <trkpt lat="42.8658390" lon="-8.5751320">
        <ele>167.5</ele>
        <time>2021-05-24T08:24:20Z</time>
      </trkpt>
      <trkpt lat="42.8658590" lon="-8.5751230">
        <ele>167.2</ele>
        <time>2021-05-24T08:24:21Z</time>
      </trkpt>
      <trkpt lat="42.8658700" lon="-8.5751170">
        <ele>167.1</ele>
        <time>2021-05-24T08:24:22Z</time>
      </trkpt>
      <trkpt lat="42.8658790" lon="-8.5751120">
        <ele>167.0</ele>
        <time>2021-05-24T08:24:23Z</time>
      </trkpt>
      <trkpt lat="42.8658890" lon="-8.5751080">
        <ele>166.8</ele>
        <time>2021-05-24T08:24:24Z</time>
      </trkpt>
      <trkpt lat="42.8658930" lon="-8.5750970">
        <ele>166.7</ele>
        <time>2021-05-24T08:24:25Z</time>
      </trkpt>
      <trkpt lat="42.8659040" lon="-8.5750910">
        <ele>166.6</ele>
        <time>2021-05-24T08:24:26Z</time>
      </trkpt>
      <trkpt lat="42.8659100" lon="-8.5750800">
        <ele>166.5</ele>
        <time>2021-05-24T08:24:27Z</time>
      </trkpt>
      <trkpt lat="42.8659240" lon="-8.5750740">
        <ele>166.3</ele>
        <time>2021-05-24T08:24:28Z</time>
      </trkpt>
      <trkpt lat="42.8659300" lon="-8.5750700">
        <ele>166.2</ele>
        <time>2021-05-24T08:24:29Z</time>
      </trkpt>
      <trkpt lat="42.8659420" lon="-8.5750570">
        <ele>166.1</ele>
        <time>2021-05-24T08:24:30Z</time>
      </trkpt>
      <trkpt lat="42.8659450" lon="-8.5750480">
        <ele>166.1</ele>
        <time>2021-05-24T08:24:31Z</time>
      </trkpt>
      <trkpt lat="42.8659580" lon="-8.5750250">
        <ele>166.0</ele>
        <time>2021-05-24T08:24:32Z</time>
      </trkpt>
      <trkpt lat="42.8659630" lon="-8.5750140">
        <ele>165.9</ele>
        <time>2021-05-24T08:24:33Z</time>
      </trkpt>
      <trkpt lat="42.8659680" lon="-8.5750040">
        <ele>165.8</ele>
        <time>2021-05-24T08:24:34Z</time>
      </trkpt>
      <trkpt lat="42.8659770" lon="-8.5749790">
        <ele>165.7</ele>
        <time>2021-05-24T08:24:35Z</time>
      </trkpt>
      <trkpt lat="42.8659780" lon="-8.5749640">
        <ele>165.7</ele>
        <time>2021-05-24T08:24:36Z</time>
      </trkpt>
      <trkpt lat="42.8659920" lon="-8.5749390">
        <ele>165.5</ele>
        <time>2021-05-24T08:24:37Z</time>
      </trkpt>
      <trkpt lat="42.8659960" lon="-8.5749290">
        <ele>165.5</ele>
        <time>2021-05-24T08:24:38Z</time>
      </trkpt>
      <trkpt lat="42.8660000" lon="-8.5749180">
        <ele>165.5</ele>
        <time>2021-05-24T08:24:39Z</time>
      </trkpt>
      <trkpt lat="42.8659980" lon="-8.5748890">
        <ele>165.4</ele>
        <time>2021-05-24T08:24:40Z</time>
      </trkpt>
      <trkpt lat="42.8659990" lon="-8.5748760">
        <ele>165.3</ele>
        <time>2021-05-24T08:24:41Z</time>
      </trkpt>
      <trkpt lat="42.8659990" lon="-8.5748620">
        <ele>165.3</ele>
        <time>2021-05-24T08:24:42Z</time>
      </trkpt>
      <trkpt lat="42.8660050" lon="-8.5748390">
        <ele>165.2</ele>
        <time>2021-05-24T08:24:43Z</time>
      </trkpt>
      <trkpt lat="42.8660080" lon="-8.5748290">
        <ele>165.1</ele>
        <time>2021-05-24T08:24:44Z</time>
      </trkpt>
      <trkpt lat="42.8660100" lon="-8.5748190">
        <ele>165.1</ele>
        <time>2021-05-24T08:24:45Z</time>
      </trkpt>
      <trkpt lat="42.8660120" lon="-8.5748090">
        <ele>165.1</ele>
        <time>2021-05-24T08:24:46Z</time>
      </trkpt>
      <trkpt lat="42.8660170" lon="-8.5747900">
        <ele>165.0</ele>
        <time>2021-05-24T08:24:47Z</time>
      </trkpt>
      <trkpt lat="42.8660190" lon="-8.5747760">
        <ele>164.9</ele>
        <time>2021-05-24T08:24:48Z</time>
      </trkpt>
      <trkpt lat="42.8660210" lon="-8.5747620">
        <ele>164.9</ele>
        <time>2021-05-24T08:24:49Z</time>
      </trkpt>
      <trkpt lat="42.8660240" lon="-8.5747440">
        <ele>164.8</ele>
        <time>2021-05-24T08:24:50Z</time>
      </trkpt>
      <trkpt lat="42.8660260" lon="-8.5747250">
        <ele>164.8</ele>
        <time>2021-05-24T08:24:51Z</time>
      </trkpt>
      <trkpt lat="42.8660270" lon="-8.5747190">
        <ele>164.7</ele>
        <time>2021-05-24T08:24:52Z</time>
      </trkpt>
      <trkpt lat="42.8660270" lon="-8.5747000">
        <ele>164.7</ele>
        <time>2021-05-24T08:24:53Z</time>
      </trkpt>
      <trkpt lat="42.8660360" lon="-8.5746870">
        <ele>164.6</ele>
        <time>2021-05-24T08:24:54Z</time>
      </trkpt>
      <trkpt lat="42.8660310" lon="-8.5746780">
        <ele>164.6</ele>
        <time>2021-05-24T08:24:55Z</time>
      </trkpt>
      <trkpt lat="42.8660380" lon="-8.5746620">
        <ele>164.5</ele>
        <time>2021-05-24T08:24:56Z</time>
      </trkpt>
      <trkpt lat="42.8660420" lon="-8.5746440">
        <ele>164.5</ele>
        <time>2021-05-24T08:24:57Z</time>
      </trkpt>
      <trkpt lat="42.8660390" lon="-8.5746170">
        <ele>164.4</ele>
        <time>2021-05-24T08:24:58Z</time>
      </trkpt>
      <trkpt lat="42.8660390" lon="-8.5746060">
        <ele>164.3</ele>
        <time>2021-05-24T08:24:59Z</time>
      </trkpt>
      <trkpt lat="42.8660390" lon="-8.5745940">
        <ele>164.3</ele>
        <time>2021-05-24T08:25:00Z</time>
      </trkpt>
      <trkpt lat="42.8660390" lon="-8.5745750">
        <ele>164.2</ele>
        <time>2021-05-24T08:25:01Z</time>
      </trkpt>
      <trkpt lat="42.8660430" lon="-8.5745610">
        <ele>164.2</ele>
        <time>2021-05-24T08:25:02Z</time>
      </trkpt>
      <trkpt lat="42.8660480" lon="-8.5745480">
        <ele>164.1</ele>
        <time>2021-05-24T08:25:03Z</time>
      </trkpt>
      <trkpt lat="42.8660470" lon="-8.5745290">
        <ele>164.0</ele>
        <time>2021-05-24T08:25:04Z</time>
      </trkpt>
      <trkpt lat="42.8660460" lon="-8.5745090">
        <ele>163.9</ele>
        <time>2021-05-24T08:25:05Z</time>
      </trkpt>
      <trkpt lat="42.8660530" lon="-8.5744900">
        <ele>163.8</ele>
        <time>2021-05-24T08:25:06Z</time>
      </trkpt>
      <trkpt lat="42.8660590" lon="-8.5744760">
        <ele>163.8</ele>
        <time>2021-05-24T08:25:07Z</time>
      </trkpt>
      <trkpt lat="42.8660640" lon="-8.5744640">
        <ele>163.7</ele>
        <time>2021-05-24T08:25:08Z</time>
      </trkpt>
      <trkpt lat="42.8660690" lon="-8.5744380">
        <ele>163.6</ele>
        <time>2021-05-24T08:25:09Z</time>
      </trkpt>
      <trkpt lat="42.8660730" lon="-8.5744250">
        <ele>163.5</ele>
        <time>2021-05-24T08:25:10Z</time>
      </trkpt>
      <trkpt lat="42.8660770" lon="-8.5744070">
        <ele>163.5</ele>
        <time>2021-05-24T08:25:11Z</time>
      </trkpt>
      <trkpt lat="42.8660800" lon="-8.5743920">
        <ele>163.4</ele>
        <time>2021-05-24T08:25:12Z</time>
      </trkpt>
      <trkpt lat="42.8660870" lon="-8.5743790">
        <ele>163.3</ele>
        <time>2021-05-24T08:25:13Z</time>
      </trkpt>
      <trkpt lat="42.8660870" lon="-8.5743610">
        <ele>163.3</ele>
        <time>2021-05-24T08:25:14Z</time>
      </trkpt>
      <trkpt lat="42.8660880" lon="-8.5743510">
        <ele>163.2</ele>
        <time>2021-05-24T08:25:15Z</time>
      </trkpt>
      <trkpt lat="42.8660930" lon="-8.5743200">
        <ele>163.1</ele>
        <time>2021-05-24T08:25:16Z</time>
      </trkpt>
      <trkpt lat="42.8660930" lon="-8.5743070">
        <ele>163.0</ele>
        <time>2021-05-24T08:25:17Z</time>
      </trkpt>
      <trkpt lat="42.8660940" lon="-8.5742950">
        <ele>163.0</ele>
        <time>2021-05-24T08:25:18Z</time>
      </trkpt>
      <trkpt lat="42.8660900" lon="-8.5742630">
        <ele>162.9</ele>
        <time>2021-05-24T08:25:19Z</time>
      </trkpt>
      <trkpt lat="42.8660900" lon="-8.5742500">
        <ele>162.8</ele>
        <time>2021-05-24T08:25:20Z</time>
      </trkpt>
      <trkpt lat="42.8660890" lon="-8.5742380">
        <ele>162.8</ele>
        <time>2021-05-24T08:25:21Z</time>
      </trkpt>
      <trkpt lat="42.8660850" lon="-8.5742290">
        <ele>162.8</ele>
        <time>2021-05-24T08:25:22Z</time>
      </trkpt>
      <trkpt lat="42.8660840" lon="-8.5742110">
        <ele>162.7</ele>
        <time>2021-05-24T08:25:23Z</time>
      </trkpt>
      <trkpt lat="42.8660850" lon="-8.5741920">
        <ele>162.6</ele>
        <time>2021-05-24T08:25:24Z</time>
      </trkpt>
      <trkpt lat="42.8660850" lon="-8.5741730">
        <ele>162.6</ele>
        <time>2021-05-24T08:25:25Z</time>
      </trkpt>
      <trkpt lat="42.8660830" lon="-8.5741570">
        <ele>162.5</ele>
        <time>2021-05-24T08:25:26Z</time>
      </trkpt>
      <trkpt lat="42.8660830" lon="-8.5741490">
        <ele>162.5</ele>
        <time>2021-05-24T08:25:27Z</time>
      </trkpt>
      <trkpt lat="42.8660870" lon="-8.5741420">
        <ele>162.5</ele>
        <time>2021-05-24T08:25:28Z</time>
      </trkpt>
      <trkpt lat="42.8660840" lon="-8.5741310">
        <ele>162.5</ele>
        <time>2021-05-24T08:25:29Z</time>
      </trkpt>
      <trkpt lat="42.8660780" lon="-8.5741090">
        <ele>162.4</ele>
        <time>2021-05-24T08:25:30Z</time>
      </trkpt>
      <trkpt lat="42.8660750" lon="-8.5740900">
        <ele>162.4</ele>
        <time>2021-05-24T08:25:31Z</time>
      </trkpt>
      <trkpt lat="42.8660720" lon="-8.5740670">
        <ele>162.3</ele>
        <time>2021-05-24T08:25:32Z</time>
      </trkpt>
      <trkpt lat="42.8660730" lon="-8.5740420">
        <ele>162.3</ele>
        <time>2021-05-24T08:25:33Z</time>
      </trkpt>
      <trkpt lat="42.8660710" lon="-8.5740210">
        <ele>162.2</ele>
        <time>2021-05-24T08:25:34Z</time>
      </trkpt>
      <trkpt lat="42.8660720" lon="-8.5740000">
        <ele>162.2</ele>
        <time>2021-05-24T08:25:35Z</time>
      </trkpt>
      <trkpt lat="42.8660640" lon="-8.5739760">
        <ele>162.1</ele>
        <time>2021-05-24T08:25:36Z</time>
      </trkpt>
      <trkpt lat="42.8660590" lon="-8.5739570">
        <ele>162.1</ele>
        <time>2021-05-24T08:25:37Z</time>
      </trkpt>
      <trkpt lat="42.8660600" lon="-8.5739360">
        <ele>162.0</ele>
        <time>2021-05-24T08:25:38Z</time>
      </trkpt>
      <trkpt lat="42.8660580" lon="-8.5739180">
        <ele>162.0</ele>
        <time>2021-05-24T08:25:39Z</time>
      </trkpt>
      <trkpt lat="42.8660520" lon="-8.5738990">
        <ele>161.9</ele>
        <time>2021-05-24T08:25:40Z</time>
      </trkpt>
      <trkpt lat="42.8660540" lon="-8.5738800">
        <ele>161.9</ele>
        <time>2021-05-24T08:25:41Z</time>
      </trkpt>
      <trkpt lat="42.8660480" lon="-8.5738680">
        <ele>161.9</ele>
        <time>2021-05-24T08:25:42Z</time>
      </trkpt>
      <trkpt lat="42.8660460" lon="-8.5738600">
        <ele>161.8</ele>
        <time>2021-05-24T08:25:43Z</time>
      </trkpt>
      <trkpt lat="42.8660470" lon="-8.5738500">
        <ele>161.8</ele>
        <time>2021-05-24T08:25:44Z</time>
      </trkpt>
      <trkpt lat="42.8660410" lon="-8.5738340">
        <ele>161.8</ele>
        <time>2021-05-24T08:25:45Z</time>
      </trkpt>
      <trkpt lat="42.8660390" lon="-8.5738140">
        <ele>161.7</ele>
        <time>2021-05-24T08:25:46Z</time>
      </trkpt>
      <trkpt lat="42.8660350" lon="-8.5737960">
        <ele>161.7</ele>
        <time>2021-05-24T08:25:47Z</time>
      </trkpt>
      <trkpt lat="42.8660280" lon="-8.5737770">
        <ele>161.6</ele>
        <time>2021-05-24T08:25:48Z</time>
      </trkpt>
      <trkpt lat="42.8660320" lon="-8.5737610">
        <ele>161.6</ele>
        <time>2021-05-24T08:25:49Z</time>
      </trkpt>
      <trkpt lat="42.8660290" lon="-8.5737410">
        <ele>161.5</ele>
        <time>2021-05-24T08:25:50Z</time>
      </trkpt>
      <trkpt lat="42.8660220" lon="-8.5737280">
        <ele>161.5</ele>
        <time>2021-05-24T08:25:51Z</time>
      </trkpt>
      <trkpt lat="42.8660100" lon="-8.5737060">
        <ele>161.4</ele>
        <time>2021-05-24T08:25:52Z</time>
      </trkpt>
      <trkpt lat="42.8660060" lon="-8.5736970">
        <ele>161.4</ele>
        <time>2021-05-24T08:25:53Z</time>
      </trkpt>
      <trkpt lat="42.8660010" lon="-8.5736870">
        <ele>161.4</ele>
        <time>2021-05-24T08:25:54Z</time>
      </trkpt>
      <trkpt lat="42.8659960" lon="-8.5736720">
        <ele>161.3</ele>
        <time>2021-05-24T08:25:55Z</time>
      </trkpt>
      <trkpt lat="42.8659940" lon="-8.5736640">
        <ele>161.3</ele>
        <time>2021-05-24T08:25:56Z</time>
      </trkpt>
      <trkpt lat="42.8660010" lon="-8.5736680">
        <ele>161.3</ele>
        <time>2021-05-24T08:25:57Z</time>
      </trkpt>
      <trkpt lat="42.8660080" lon="-8.5736610">
        <ele>161.2</ele>
        <time>2021-05-24T08:25:58Z</time>
      </trkpt>
      <trkpt lat="42.8660080" lon="-8.5736450">
        <ele>161.2</ele>
        <time>2021-05-24T08:25:59Z</time>
      </trkpt>
      <trkpt lat="42.8660090" lon="-8.5736300">
        <ele>161.1</ele>
        <time>2021-05-24T08:26:00Z</time>
      </trkpt>
      <trkpt lat="42.8660230" lon="-8.5736210">
        <ele>161.0</ele>
        <time>2021-05-24T08:26:01Z</time>
      </trkpt>
      <trkpt lat="42.8660250" lon="-8.5736070">
        <ele>161.0</ele>
        <time>2021-05-24T08:26:02Z</time>
      </trkpt>
      <trkpt lat="42.8660180" lon="-8.5736040">
        <ele>161.0</ele>
        <time>2021-05-24T08:26:03Z</time>
      </trkpt>
      <trkpt lat="42.8660160" lon="-8.5735960">
        <ele>160.9</ele>
        <time>2021-05-24T08:26:04Z</time>
      </trkpt>
      <trkpt lat="42.8660150" lon="-8.5735870">
        <ele>160.9</ele>
        <time>2021-05-24T08:26:05Z</time>
      </trkpt>
      <trkpt lat="42.8660130" lon="-8.5735780">
        <ele>160.9</ele>
        <time>2021-05-24T08:26:06Z</time>
      </trkpt>
      <trkpt lat="42.8660120" lon="-8.5735690">
        <ele>160.8</ele>
        <time>2021-05-24T08:26:07Z</time>
      </trkpt>
      <trkpt lat="42.8660100" lon="-8.5735610">
        <ele>160.8</ele>
        <time>2021-05-24T08:26:08Z</time>
      </trkpt>
      <trkpt lat="42.8660090" lon="-8.5735520">
        <ele>160.8</ele>
        <time>2021-05-24T08:26:09Z</time>
      </trkpt>
      <trkpt lat="42.8659980" lon="-8.5735400">
        <ele>160.7</ele>
        <time>2021-05-24T08:26:10Z</time>
      </trkpt>
      <trkpt lat="42.8659880" lon="-8.5735230">
        <ele>160.6</ele>
        <time>2021-05-24T08:26:11Z</time>
      </trkpt>
      <trkpt lat="42.8659810" lon="-8.5735050">
        <ele>160.6</ele>
        <time>2021-05-24T08:26:12Z</time>
      </trkpt>
      <trkpt lat="42.8659740" lon="-8.5734980">
        <ele>160.5</ele>
        <time>2021-05-24T08:26:13Z</time>
      </trkpt>
      <trkpt lat="42.8659680" lon="-8.5734830">
        <ele>160.4</ele>
        <time>2021-05-24T08:26:14Z</time>
      </trkpt>
      <trkpt lat="42.8659570" lon="-8.5734700">
        <ele>160.4</ele>
        <time>2021-05-24T08:26:15Z</time>
      </trkpt>
      <trkpt lat="42.8659430" lon="-8.5734490">
        <ele>160.3</ele>
        <time>2021-05-24T08:26:16Z</time>
      </trkpt>
      <trkpt lat="42.8659380" lon="-8.5734440">
        <ele>160.2</ele>
        <time>2021-05-24T08:26:17Z</time>
      </trkpt>
      <trkpt lat="42.8659250" lon="-8.5734160">
        <ele>160.1</ele>
        <time>2021-05-24T08:26:18Z</time>
      </trkpt>
      <trkpt lat="42.8659210" lon="-8.5733990">
        <ele>160.0</ele>
        <time>2021-05-24T08:26:19Z</time>
      </trkpt>
      <trkpt lat="42.8659170" lon="-8.5733790">
        <ele>160.0</ele>
        <time>2021-05-24T08:26:20Z</time>
      </trkpt>
      <trkpt lat="42.8659060" lon="-8.5733530">
        <ele>159.9</ele>
        <time>2021-05-24T08:26:21Z</time>
      </trkpt>
      <trkpt lat="42.8659020" lon="-8.5733420">
        <ele>159.8</ele>
        <time>2021-05-24T08:26:22Z</time>
      </trkpt>
      <trkpt lat="42.8658990" lon="-8.5733300">
        <ele>159.8</ele>
        <time>2021-05-24T08:26:23Z</time>
      </trkpt>
      <trkpt lat="42.8658890" lon="-8.5733160">
        <ele>159.7</ele>
        <time>2021-05-24T08:26:24Z</time>
      </trkpt>
      <trkpt lat="42.8658870" lon="-8.5733040">
        <ele>159.7</ele>
        <time>2021-05-24T08:26:25Z</time>
      </trkpt>
      <trkpt lat="42.8658830" lon="-8.5732870">
        <ele>159.6</ele>
        <time>2021-05-24T08:26:26Z</time>
      </trkpt>
      <trkpt lat="42.8658780" lon="-8.5732630">
        <ele>159.5</ele>
        <time>2021-05-24T08:26:27Z</time>
      </trkpt>
      <trkpt lat="42.8658750" lon="-8.5732500">
        <ele>159.4</ele>
        <time>2021-05-24T08:26:28Z</time>
      </trkpt>
      <trkpt lat="42.8658730" lon="-8.5732380">
        <ele>159.4</ele>
        <time>2021-05-24T08:26:29Z</time>
      </trkpt>
      <trkpt lat="42.8658670" lon="-8.5732320">
        <ele>159.4</ele>
        <time>2021-05-24T08:26:30Z</time>
      </trkpt>
      <trkpt lat="42.8658680" lon="-8.5732170">
        <ele>159.3</ele>
        <time>2021-05-24T08:26:31Z</time>
      </trkpt>
      <trkpt lat="42.8658610" lon="-8.5732050">
        <ele>159.3</ele>
        <time>2021-05-24T08:26:32Z</time>
      </trkpt>
      <trkpt lat="42.8658620" lon="-8.5731850">
        <ele>159.2</ele>
        <time>2021-05-24T08:26:33Z</time>
      </trkpt>
      <trkpt lat="42.8658560" lon="-8.5731710">
        <ele>159.1</ele>
        <time>2021-05-24T08:26:34Z</time>
      </trkpt>
      <trkpt lat="42.8658520" lon="-8.5731590">
        <ele>159.1</ele>
        <time>2021-05-24T08:26:35Z</time>
      </trkpt>
      <trkpt lat="42.8658530" lon="-8.5731290">
        <ele>159.0</ele>
        <time>2021-05-24T08:26:36Z</time>
      </trkpt>
      <trkpt lat="42.8658540" lon="-8.5731160">
        <ele>159.0</ele>
        <time>2021-05-24T08:26:37Z</time>
      </trkpt>
      <trkpt lat="42.8658540" lon="-8.5731040">
        <ele>158.9</ele>
        <time>2021-05-24T08:26:38Z</time>
      </trkpt>
      <trkpt lat="42.8658560" lon="-8.5730880">
        <ele>158.9</ele>
        <time>2021-05-24T08:26:39Z</time>
      </trkpt>
      <trkpt lat="42.8658500" lon="-8.5730770">
        <ele>158.9</ele>
        <time>2021-05-24T08:26:40Z</time>
      </trkpt>
      <trkpt lat="42.8658440" lon="-8.5730610">
        <ele>158.8</ele>
        <time>2021-05-24T08:26:41Z</time>
      </trkpt>
      <trkpt lat="42.8658410" lon="-8.5730390">
        <ele>158.8</ele>
        <time>2021-05-24T08:26:42Z</time>
      </trkpt>
      <trkpt lat="42.8658370" lon="-8.5730250">
        <ele>158.7</ele>
        <time>2021-05-24T08:26:43Z</time>
      </trkpt>
      <trkpt lat="42.8658330" lon="-8.5730120">
        <ele>158.7</ele>
        <time>2021-05-24T08:26:44Z</time>
      </trkpt>
      <trkpt lat="42.8658200" lon="-8.5729690">
        <ele>158.6</ele>
        <time>2021-05-24T08:26:45Z</time>
      </trkpt>
      <trkpt lat="42.8658160" lon="-8.5729580">
        <ele>158.6</ele>
        <time>2021-05-24T08:26:46Z</time>
      </trkpt>
      <trkpt lat="42.8657930" lon="-8.5729160">
        <ele>158.5</ele>
        <time>2021-05-24T08:26:47Z</time>
      </trkpt>
      <trkpt lat="42.8657800" lon="-8.5729050">
        <ele>158.5</ele>
        <time>2021-05-24T08:26:48Z</time>
      </trkpt>
      <trkpt lat="42.8657600" lon="-8.5728670">
        <ele>158.4</ele>
        <time>2021-05-24T08:26:49Z</time>
      </trkpt>
      <trkpt lat="42.8657570" lon="-8.5728530">
        <ele>158.4</ele>
        <time>2021-05-24T08:26:50Z</time>
      </trkpt>
      <trkpt lat="42.8657300" lon="-8.5728150">
        <ele>158.3</ele>
        <time>2021-05-24T08:26:51Z</time>
      </trkpt>
      <trkpt lat="42.8657250" lon="-8.5727950">
        <ele>158.3</ele>
        <time>2021-05-24T08:26:52Z</time>
      </trkpt>
      <trkpt lat="42.8657070" lon="-8.5727650">
        <ele>158.3</ele>
        <time>2021-05-24T08:26:53Z</time>
      </trkpt>
      <trkpt lat="42.8657050" lon="-8.5727150">
        <ele>158.2</ele>
        <time>2021-05-24T08:26:54Z</time>
      </trkpt>
      <trkpt lat="42.8656820" lon="-8.5726720">
        <ele>158.2</ele>
        <time>2021-05-24T08:26:55Z</time>
      </trkpt>
      <trkpt lat="42.8656700" lon="-8.5726210">
        <ele>158.2</ele>
        <time>2021-05-24T08:26:56Z</time>
      </trkpt>
      <trkpt lat="42.8656500" lon="-8.5725870">
        <ele>158.1</ele>
        <time>2021-05-24T08:26:57Z</time>
      </trkpt>
      <trkpt lat="42.8656360" lon="-8.5725520">
        <ele>158.1</ele>
        <time>2021-05-24T08:26:58Z</time>
      </trkpt>
      <trkpt lat="42.8656340" lon="-8.5725280">
        <ele>158.1</ele>
        <time>2021-05-24T08:26:59Z</time>
      </trkpt>
      <trkpt lat="42.8656270" lon="-8.5725040">
        <ele>158.1</ele>
        <time>2021-05-24T08:27:00Z</time>
      </trkpt>
      <trkpt lat="42.8656170" lon="-8.5724570">
        <ele>158.1</ele>
        <time>2021-05-24T08:27:01Z</time>
      </trkpt>
      <trkpt lat="42.8656180" lon="-8.5724390">
        <ele>158.0</ele>
        <time>2021-05-24T08:27:02Z</time>
      </trkpt>
      <trkpt lat="42.8656490" lon="-8.5724040">
        <ele>158.0</ele>
        <time>2021-05-24T08:27:03Z</time>
      </trkpt>
      <trkpt lat="42.8656770" lon="-8.5723700">
        <ele>157.9</ele>
        <time>2021-05-24T08:27:04Z</time>
      </trkpt>
      <trkpt lat="42.8657090" lon="-8.5723570">
        <ele>157.9</ele>
        <time>2021-05-24T08:27:05Z</time>
      </trkpt>
      <trkpt lat="42.8657390" lon="-8.5723160">
        <ele>158.0</ele>
        <time>2021-05-24T08:27:06Z</time>
      </trkpt>
      <trkpt lat="42.8657480" lon="-8.5722980">
        <ele>158.0</ele>
        <time>2021-05-24T08:27:07Z</time>
      </trkpt>
      <trkpt lat="42.8657700" lon="-8.5722580">
        <ele>158.0</ele>
        <time>2021-05-24T08:27:08Z</time>
      </trkpt>
      <trkpt lat="42.8657750" lon="-8.5722400">
        <ele>158.0</ele>
        <time>2021-05-24T08:27:09Z</time>
      </trkpt>
      <trkpt lat="42.8657960" lon="-8.5722120">
        <ele>158.0</ele>
        <time>2021-05-24T08:27:10Z</time>
      </trkpt>
      <trkpt lat="42.8657990" lon="-8.5722030">
        <ele>158.0</ele>
        <time>2021-05-24T08:27:11Z</time>
      </trkpt>
      <trkpt lat="42.8658000" lon="-8.5721720">
        <ele>158.0</ele>
        <time>2021-05-24T08:27:12Z</time>
      </trkpt>
      <trkpt lat="42.8658040" lon="-8.5721600">
        <ele>158.0</ele>
        <time>2021-05-24T08:27:13Z</time>
      </trkpt>
      <trkpt lat="42.8658090" lon="-8.5721480">
        <ele>158.0</ele>
        <time>2021-05-24T08:27:14Z</time>
      </trkpt>
      <trkpt lat="42.8658120" lon="-8.5721290">
        <ele>158.0</ele>
        <time>2021-05-24T08:27:15Z</time>
      </trkpt>
      <trkpt lat="42.8658190" lon="-8.5721060">
        <ele>158.1</ele>
        <time>2021-05-24T08:27:16Z</time>
      </trkpt>
      <trkpt lat="42.8658190" lon="-8.5720850">
        <ele>158.1</ele>
        <time>2021-05-24T08:27:17Z</time>
      </trkpt>
      <trkpt lat="42.8658200" lon="-8.5720680">
        <ele>158.1</ele>
        <time>2021-05-24T08:27:18Z</time>
      </trkpt>
      <trkpt lat="42.8658220" lon="-8.5720530">
        <ele>158.1</ele>
        <time>2021-05-24T08:27:19Z</time>
      </trkpt>
      <trkpt lat="42.8658260" lon="-8.5720270">
        <ele>158.1</ele>
        <time>2021-05-24T08:27:20Z</time>
      </trkpt>
      <trkpt lat="42.8658320" lon="-8.5720010">
        <ele>158.1</ele>
        <time>2021-05-24T08:27:21Z</time>
      </trkpt>
      <trkpt lat="42.8658320" lon="-8.5719810">
        <ele>158.2</ele>
        <time>2021-05-24T08:27:22Z</time>
      </trkpt>
      <trkpt lat="42.8658360" lon="-8.5719530">
        <ele>158.2</ele>
        <time>2021-05-24T08:27:23Z</time>
      </trkpt>
      <trkpt lat="42.8658370" lon="-8.5719390">
        <ele>158.2</ele>
        <time>2021-05-24T08:27:24Z</time>
      </trkpt>
      <trkpt lat="42.8658390" lon="-8.5719260">
        <ele>158.2</ele>
        <time>2021-05-24T08:27:25Z</time>
      </trkpt>
      <trkpt lat="42.8658410" lon="-8.5718950">
        <ele>158.2</ele>
        <time>2021-05-24T08:27:26Z</time>
      </trkpt>
      <trkpt lat="42.8658370" lon="-8.5718830">
        <ele>158.2</ele>
        <time>2021-05-24T08:27:27Z</time>
      </trkpt>
      <trkpt lat="42.8658340" lon="-8.5718720">
        <ele>158.2</ele>
        <time>2021-05-24T08:27:28Z</time>
      </trkpt>
      <trkpt lat="42.8658360" lon="-8.5718600">
        <ele>158.2</ele>
        <time>2021-05-24T08:27:29Z</time>
      </trkpt>
      <trkpt lat="42.8658360" lon="-8.5718550">
        <ele>158.3</ele>
        <time>2021-05-24T08:27:30Z</time>
      </trkpt>
      <trkpt lat="42.8658320" lon="-8.5718490">
        <ele>158.3</ele>
        <time>2021-05-24T08:27:31Z</time>
      </trkpt>
      <trkpt lat="42.8658270" lon="-8.5718440">
        <ele>158.3</ele>
        <time>2021-05-24T08:27:32Z</time>
      </trkpt>
      <trkpt lat="42.8658290" lon="-8.5718310">
        <ele>158.4</ele>
        <time>2021-05-24T08:27:33Z</time>
      </trkpt>
      <trkpt lat="42.8658280" lon="-8.5718240">
        <ele>158.4</ele>
        <time>2021-05-24T08:27:34Z</time>
      </trkpt>
      <trkpt lat="42.8658200" lon="-8.5718140">
        <ele>158.5</ele>
        <time>2021-05-24T08:27:35Z</time>
      </trkpt>
      <trkpt lat="42.8658120" lon="-8.5718070">
        <ele>158.6</ele>
        <time>2021-05-24T08:27:36Z</time>
      </trkpt>
      <trkpt lat="42.8658110" lon="-8.5718060">
        <ele>158.6</ele>
        <time>2021-05-24T08:27:37Z</time>
      </trkpt>
      <trkpt lat="42.8658090" lon="-8.5718040">
        <ele>158.6</ele>
        <time>2021-05-24T08:27:38Z</time>
      </trkpt>
      <trkpt lat="42.8658060" lon="-8.5718000">
        <ele>158.7</ele>
        <time>2021-05-24T08:27:39Z</time>
      </trkpt>
      <trkpt lat="42.8658010" lon="-8.5717980">
        <ele>158.7</ele>
        <time>2021-05-24T08:27:40Z</time>
      </trkpt>
      <trkpt lat="42.8658000" lon="-8.5717930">
        <ele>158.8</ele>
        <time>2021-05-24T08:27:41Z</time>
      </trkpt>
      <trkpt lat="42.8658000" lon="-8.5717920">
        <ele>158.8</ele>
        <time>2021-05-24T08:27:42Z</time>
      </trkpt>
      <trkpt lat="42.8658080" lon="-8.5717890">
        <ele>158.8</ele>
        <time>2021-05-24T08:27:43Z</time>
      </trkpt>
      <trkpt lat="42.8658170" lon="-8.5718010">
        <ele>159.0</ele>
        <time>2021-05-24T08:27:44Z</time>
      </trkpt>
      <trkpt lat="42.8658420" lon="-8.5718100">
        <ele>159.2</ele>
        <time>2021-05-24T08:27:45Z</time>
      </trkpt>
      <trkpt lat="42.8658420" lon="-8.5718100">
        <ele>159.2</ele>
        <time>2021-05-24T08:27:46Z</time>
      </trkpt>
      <trkpt lat="42.8658470" lon="-8.5718110">
        <ele>159.2</ele>
        <time>2021-05-24T08:27:47Z</time>
      </trkpt>
      <trkpt lat="42.8658590" lon="-8.5718150">
        <ele>159.3</ele>
        <time>2021-05-24T08:27:48Z</time>
      </trkpt>
      <trkpt lat="42.8658600" lon="-8.5718110">
        <ele>159.4</ele>
        <time>2021-05-24T08:27:49Z</time>
      </trkpt>
      <trkpt lat="42.8658600" lon="-8.5718120">
        <ele>159.4</ele>
        <time>2021-05-24T08:27:50Z</time>
      </trkpt>
      <trkpt lat="42.8658560" lon="-8.5718110">
        <ele>159.4</ele>
        <time>2021-05-24T08:27:51Z</time>
      </trkpt>
      <trkpt lat="42.8658520" lon="-8.5718040">
        <ele>159.5</ele>
        <time>2021-05-24T08:27:52Z</time>
      </trkpt>
      <trkpt lat="42.8658550" lon="-8.5718010">
        <ele>159.5</ele>
        <time>2021-05-24T08:27:53Z</time>
      </trkpt>
      <trkpt lat="42.8658600" lon="-8.5718010">
        <ele>159.6</ele>
        <time>2021-05-24T08:27:54Z</time>
      </trkpt>
      <trkpt lat="42.8658600" lon="-8.5717930">
        <ele>159.6</ele>
        <time>2021-05-24T08:27:55Z</time>
      </trkpt>
      <trkpt lat="42.8658630" lon="-8.5717900">
        <ele>159.6</ele>
        <time>2021-05-24T08:27:56Z</time>
      </trkpt>
      <trkpt lat="42.8658720" lon="-8.5717860">
        <ele>159.7</ele>
        <time>2021-05-24T08:27:57Z</time>
      </trkpt>
      <trkpt lat="42.8658840" lon="-8.5717780">
        <ele>159.9</ele>
        <time>2021-05-24T08:27:58Z</time>
      </trkpt>
      <trkpt lat="42.8658930" lon="-8.5717750">
        <ele>160.0</ele>
        <time>2021-05-24T08:27:59Z</time>
      </trkpt>
      <trkpt lat="42.8659020" lon="-8.5717720">
        <ele>160.1</ele>
        <time>2021-05-24T08:28:00Z</time>
      </trkpt>
      <trkpt lat="42.8659110" lon="-8.5717690">
        <ele>160.2</ele>
        <time>2021-05-24T08:28:01Z</time>
      </trkpt>
      <trkpt lat="42.8659170" lon="-8.5717600">
        <ele>160.2</ele>
        <time>2021-05-24T08:28:02Z</time>
      </trkpt>
      <trkpt lat="42.8659200" lon="-8.5717500">
        <ele>160.3</ele>
        <time>2021-05-24T08:28:03Z</time>
      </trkpt>
      <trkpt lat="42.8659230" lon="-8.5717470">
        <ele>160.4</ele>
        <time>2021-05-24T08:28:04Z</time>
      </trkpt>
      <trkpt lat="42.8659250" lon="-8.5717370">
        <ele>160.4</ele>
        <time>2021-05-24T08:28:05Z</time>
      </trkpt>
      <trkpt lat="42.8659280" lon="-8.5717320">
        <ele>160.5</ele>
        <time>2021-05-24T08:28:06Z</time>
      </trkpt>
      <trkpt lat="42.8659300" lon="-8.5717200">
        <ele>160.6</ele>
        <time>2021-05-24T08:28:07Z</time>
      </trkpt>
      <trkpt lat="42.8659490" lon="-8.5717040">
        <ele>160.8</ele>
        <time>2021-05-24T08:28:08Z</time>
      </trkpt>
      <trkpt lat="42.8659600" lon="-8.5716920">
        <ele>161.0</ele>
        <time>2021-05-24T08:28:09Z</time>
      </trkpt>
      <trkpt lat="42.8659670" lon="-8.5716810">
        <ele>161.1</ele>
        <time>2021-05-24T08:28:10Z</time>
      </trkpt>
      <trkpt lat="42.8659720" lon="-8.5716710">
        <ele>161.2</ele>
        <time>2021-05-24T08:28:11Z</time>
      </trkpt>
      <trkpt lat="42.8659910" lon="-8.5716530">
        <ele>161.4</ele>
        <time>2021-05-24T08:28:12Z</time>
      </trkpt>
      <trkpt lat="42.8659980" lon="-8.5716500">
        <ele>161.5</ele>
        <time>2021-05-24T08:28:13Z</time>
      </trkpt>
      <trkpt lat="42.8660060" lon="-8.5716460">
        <ele>161.6</ele>
        <time>2021-05-24T08:28:14Z</time>
      </trkpt>
      <trkpt lat="42.8660190" lon="-8.5716370">
        <ele>161.8</ele>
        <time>2021-05-24T08:28:15Z</time>
      </trkpt>
      <trkpt lat="42.8660330" lon="-8.5716340">
        <ele>161.9</ele>
        <time>2021-05-24T08:28:16Z</time>
      </trkpt>
      <trkpt lat="42.8660470" lon="-8.5716280">
        <ele>162.1</ele>
        <time>2021-05-24T08:28:17Z</time>
      </trkpt>
      <trkpt lat="42.8660570" lon="-8.5716180">
        <ele>162.2</ele>
        <time>2021-05-24T08:28:18Z</time>
      </trkpt>
      <trkpt lat="42.8660560" lon="-8.5716160">
        <ele>162.2</ele>
        <time>2021-05-24T08:28:19Z</time>
      </trkpt>
      <trkpt lat="42.8660630" lon="-8.5716070">
        <ele>162.3</ele>
        <time>2021-05-24T08:28:20Z</time>
      </trkpt>
      <trkpt lat="42.8660740" lon="-8.5715930">
        <ele>162.5</ele>
        <time>2021-05-24T08:28:21Z</time>
      </trkpt>
      <trkpt lat="42.8660840" lon="-8.5715890">
        <ele>162.6</ele>
        <time>2021-05-24T08:28:22Z</time>
      </trkpt>
      <trkpt lat="42.8660930" lon="-8.5715850">
        <ele>162.7</ele>
        <time>2021-05-24T08:28:23Z</time>
      </trkpt>
      <trkpt lat="42.8661010" lon="-8.5715870">
        <ele>162.8</ele>
        <time>2021-05-24T08:28:24Z</time>
      </trkpt>
      <trkpt lat="42.8661050" lon="-8.5715840">
        <ele>162.9</ele>
        <time>2021-05-24T08:28:25Z</time>
      </trkpt>
      <trkpt lat="42.8661160" lon="-8.5715800">
        <ele>163.0</ele>
        <time>2021-05-24T08:28:26Z</time>
      </trkpt>
      <trkpt lat="42.8661290" lon="-8.5715760">
        <ele>163.1</ele>
        <time>2021-05-24T08:28:27Z</time>
      </trkpt>
      <trkpt lat="42.8661450" lon="-8.5715730">
        <ele>163.3</ele>
        <time>2021-05-24T08:28:28Z</time>
      </trkpt>
      <trkpt lat="42.8661530" lon="-8.5715730">
        <ele>163.4</ele>
        <time>2021-05-24T08:28:29Z</time>
      </trkpt>
      <trkpt lat="42.8661620" lon="-8.5715680">
        <ele>163.5</ele>
        <time>2021-05-24T08:28:30Z</time>
      </trkpt>
      <trkpt lat="42.8661850" lon="-8.5715650">
        <ele>163.8</ele>
        <time>2021-05-24T08:28:31Z</time>
      </trkpt>
      <trkpt lat="42.8661930" lon="-8.5715640">
        <ele>163.9</ele>
        <time>2021-05-24T08:28:32Z</time>
      </trkpt>
      <trkpt lat="42.8662010" lon="-8.5715640">
        <ele>164.0</ele>
        <time>2021-05-24T08:28:33Z</time>
      </trkpt>
      <trkpt lat="42.8662200" lon="-8.5715670">
        <ele>164.2</ele>
        <time>2021-05-24T08:28:34Z</time>
      </trkpt>
      <trkpt lat="42.8662290" lon="-8.5715680">
        <ele>164.3</ele>
        <time>2021-05-24T08:28:35Z</time>
      </trkpt>
      <trkpt lat="42.8662370" lon="-8.5715700">
        <ele>164.4</ele>
        <time>2021-05-24T08:28:36Z</time>
      </trkpt>
      <trkpt lat="42.8662430" lon="-8.5715740">
        <ele>164.5</ele>
        <time>2021-05-24T08:28:37Z</time>
      </trkpt>
      <trkpt lat="42.8662610" lon="-8.5715730">
        <ele>164.7</ele>
        <time>2021-05-24T08:28:38Z</time>
      </trkpt>
      <trkpt lat="42.8662680" lon="-8.5715690">
        <ele>164.7</ele>
        <time>2021-05-24T08:28:39Z</time>
      </trkpt>
      <trkpt lat="42.8662800" lon="-8.5715680">
        <ele>164.9</ele>
        <time>2021-05-24T08:28:40Z</time>
      </trkpt>
      <trkpt lat="42.8662880" lon="-8.5715660">
        <ele>165.0</ele>
        <time>2021-05-24T08:28:41Z</time>
      </trkpt>
      <trkpt lat="42.8663030" lon="-8.5715700">
        <ele>165.1</ele>
        <time>2021-05-24T08:28:42Z</time>
      </trkpt>
      <trkpt lat="42.8663150" lon="-8.5715690">
        <ele>165.3</ele>
        <time>2021-05-24T08:28:43Z</time>
      </trkpt>
      <trkpt lat="42.8663300" lon="-8.5715700">
        <ele>165.4</ele>
        <time>2021-05-24T08:28:44Z</time>
      </trkpt>
      <trkpt lat="42.8663530" lon="-8.5715640">
        <ele>165.7</ele>
        <time>2021-05-24T08:28:45Z</time>
      </trkpt>
      <trkpt lat="42.8663620" lon="-8.5715630">
        <ele>165.8</ele>
        <time>2021-05-24T08:28:46Z</time>
      </trkpt>
      <trkpt lat="42.8663710" lon="-8.5715620">
        <ele>165.9</ele>
        <time>2021-05-24T08:28:47Z</time>
      </trkpt>
      <trkpt lat="42.8663940" lon="-8.5715700">
        <ele>166.2</ele>
        <time>2021-05-24T08:28:48Z</time>
      </trkpt>
      <trkpt lat="42.8663990" lon="-8.5715700">
        <ele>166.2</ele>
        <time>2021-05-24T08:28:49Z</time>
      </trkpt>
      <trkpt lat="42.8664130" lon="-8.5715710">
        <ele>166.4</ele>
        <time>2021-05-24T08:28:50Z</time>
      </trkpt>
      <trkpt lat="42.8664300" lon="-8.5715740">
        <ele>166.6</ele>
        <time>2021-05-24T08:28:51Z</time>
      </trkpt>
      <trkpt lat="42.8664490" lon="-8.5715720">
        <ele>166.9</ele>
        <time>2021-05-24T08:28:52Z</time>
      </trkpt>
      <trkpt lat="42.8664620" lon="-8.5715710">
        <ele>166.9</ele>
        <time>2021-05-24T08:28:53Z</time>
      </trkpt>
      <trkpt lat="42.8664730" lon="-8.5715680">
        <ele>167.0</ele>
        <time>2021-05-24T08:28:54Z</time>
      </trkpt>
      <trkpt lat="42.8664820" lon="-8.5715640">
        <ele>167.0</ele>
        <time>2021-05-24T08:28:55Z</time>
      </trkpt>
      <trkpt lat="42.8664960" lon="-8.5715560">
        <ele>167.2</ele>
        <time>2021-05-24T08:28:56Z</time>
      </trkpt>
      <trkpt lat="42.8665060" lon="-8.5715530">
        <ele>167.3</ele>
        <time>2021-05-24T08:28:57Z</time>
      </trkpt>
      <trkpt lat="42.8665180" lon="-8.5715520">
        <ele>167.4</ele>
        <time>2021-05-24T08:28:58Z</time>
      </trkpt>
      <trkpt lat="42.8665310" lon="-8.5715470">
        <ele>167.5</ele>
        <time>2021-05-24T08:28:59Z</time>
      </trkpt>
      <trkpt lat="42.8665410" lon="-8.5715380">
        <ele>167.6</ele>
        <time>2021-05-24T08:29:00Z</time>
      </trkpt>
      <trkpt lat="42.8665560" lon="-8.5715210">
        <ele>167.8</ele>
        <time>2021-05-24T08:29:01Z</time>
      </trkpt>
      <trkpt lat="42.8665640" lon="-8.5715060">
        <ele>167.9</ele>
        <time>2021-05-24T08:29:02Z</time>
      </trkpt>
      <trkpt lat="42.8665680" lon="-8.5714930">
        <ele>167.9</ele>
        <time>2021-05-24T08:29:03Z</time>
      </trkpt>
      <trkpt lat="42.8665690" lon="-8.5714770">
        <ele>168.0</ele>
        <time>2021-05-24T08:29:04Z</time>
      </trkpt>
      <trkpt lat="42.8665670" lon="-8.5714610">
        <ele>168.1</ele>
        <time>2021-05-24T08:29:05Z</time>
      </trkpt>
      <trkpt lat="42.8665650" lon="-8.5714480">
        <ele>168.1</ele>
        <time>2021-05-24T08:29:06Z</time>
      </trkpt>
      <trkpt lat="42.8665640" lon="-8.5714390">
        <ele>168.2</ele>
        <time>2021-05-24T08:29:07Z</time>
      </trkpt>
      <trkpt lat="42.8665620" lon="-8.5714300">
        <ele>168.2</ele>
        <time>2021-05-24T08:29:08Z</time>
      </trkpt>
      <trkpt lat="42.8665610" lon="-8.5714200">
        <ele>168.3</ele>
        <time>2021-05-24T08:29:09Z</time>
      </trkpt>
      <trkpt lat="42.8665590" lon="-8.5714140">
        <ele>168.3</ele>
        <time>2021-05-24T08:29:10Z</time>
      </trkpt>
      <trkpt lat="42.8665530" lon="-8.5714000">
        <ele>168.3</ele>
        <time>2021-05-24T08:29:11Z</time>
      </trkpt>
      <trkpt lat="42.8665530" lon="-8.5713900">
        <ele>168.3</ele>
        <time>2021-05-24T08:29:12Z</time>
      </trkpt>
      <trkpt lat="42.8665570" lon="-8.5713840">
        <ele>168.3</ele>
        <time>2021-05-24T08:29:13Z</time>
      </trkpt>
      <trkpt lat="42.8665640" lon="-8.5713870">
        <ele>168.4</ele>
        <time>2021-05-24T08:29:14Z</time>
      </trkpt>
      <trkpt lat="42.8665700" lon="-8.5713860">
        <ele>168.4</ele>
        <time>2021-05-24T08:29:15Z</time>
      </trkpt>
      <trkpt lat="42.8665700" lon="-8.5713840">
        <ele>168.4</ele>
        <time>2021-05-24T08:29:16Z</time>
      </trkpt>
      <trkpt lat="42.8665720" lon="-8.5713810">
        <ele>168.4</ele>
        <time>2021-05-24T08:29:17Z</time>
      </trkpt>
      <trkpt lat="42.8665740" lon="-8.5713780">
        <ele>168.4</ele>
        <time>2021-05-24T08:29:18Z</time>
      </trkpt>
      <trkpt lat="42.8665760" lon="-8.5713650">
        <ele>168.4</ele>
        <time>2021-05-24T08:29:19Z</time>
      </trkpt>
      <trkpt lat="42.8665760" lon="-8.5713570">
        <ele>168.4</ele>
        <time>2021-05-24T08:29:20Z</time>
      </trkpt>
      <trkpt lat="42.8665760" lon="-8.5713480">
        <ele>168.4</ele>
        <time>2021-05-24T08:29:21Z</time>
      </trkpt>
      <trkpt lat="42.8665760" lon="-8.5713390">
        <ele>168.5</ele>
        <time>2021-05-24T08:29:22Z</time>
      </trkpt>
      <trkpt lat="42.8665760" lon="-8.5713310">
        <ele>168.5</ele>
        <time>2021-05-24T08:29:23Z</time>
      </trkpt>
      <trkpt lat="42.8665760" lon="-8.5713220">
        <ele>168.6</ele>
        <time>2021-05-24T08:29:24Z</time>
      </trkpt>
      <trkpt lat="42.8665730" lon="-8.5712960">
        <ele>168.6</ele>
        <time>2021-05-24T08:29:25Z</time>
      </trkpt>
      <trkpt lat="42.8665730" lon="-8.5712880">
        <ele>168.7</ele>
        <time>2021-05-24T08:29:26Z</time>
      </trkpt>
      <trkpt lat="42.8665720" lon="-8.5712790">
        <ele>168.7</ele>
        <time>2021-05-24T08:29:27Z</time>
      </trkpt>
      <trkpt lat="42.8665720" lon="-8.5712710">
        <ele>168.7</ele>
        <time>2021-05-24T08:29:28Z</time>
      </trkpt>
      <trkpt lat="42.8665710" lon="-8.5712520">
        <ele>168.7</ele>
        <time>2021-05-24T08:29:29Z</time>
      </trkpt>
      <trkpt lat="42.8665690" lon="-8.5712330">
        <ele>168.8</ele>
        <time>2021-05-24T08:29:30Z</time>
      </trkpt>
      <trkpt lat="42.8665710" lon="-8.5712060">
        <ele>168.9</ele>
        <time>2021-05-24T08:29:31Z</time>
      </trkpt>
      <trkpt lat="42.8665730" lon="-8.5711930">
        <ele>168.9</ele>
        <time>2021-05-24T08:29:32Z</time>
      </trkpt>
      <trkpt lat="42.8665760" lon="-8.5711810">
        <ele>168.9</ele>
        <time>2021-05-24T08:29:33Z</time>
      </trkpt>
      <trkpt lat="42.8665790" lon="-8.5711670">
        <ele>169.0</ele>
        <time>2021-05-24T08:29:34Z</time>
      </trkpt>
      <trkpt lat="42.8665860" lon="-8.5711590">
        <ele>169.0</ele>
        <time>2021-05-24T08:29:35Z</time>
      </trkpt>
      <trkpt lat="42.8665920" lon="-8.5711400">
        <ele>169.0</ele>
        <time>2021-05-24T08:29:36Z</time>
      </trkpt>
      <trkpt lat="42.8665970" lon="-8.5711130">
        <ele>169.1</ele>
        <time>2021-05-24T08:29:37Z</time>
      </trkpt>
      <trkpt lat="42.8665970" lon="-8.5711000">
        <ele>169.1</ele>
        <time>2021-05-24T08:29:38Z</time>
      </trkpt>
      <trkpt lat="42.8665980" lon="-8.5710860">
        <ele>169.2</ele>
        <time>2021-05-24T08:29:39Z</time>
      </trkpt>
      <trkpt lat="42.8666110" lon="-8.5710810">
        <ele>169.2</ele>
        <time>2021-05-24T08:29:40Z</time>
      </trkpt>
      <trkpt lat="42.8666060" lon="-8.5710610">
        <ele>169.2</ele>
        <time>2021-05-24T08:29:41Z</time>
      </trkpt>
      <trkpt lat="42.8666100" lon="-8.5710440">
        <ele>169.3</ele>
        <time>2021-05-24T08:29:42Z</time>
      </trkpt>
      <trkpt lat="42.8666160" lon="-8.5710280">
        <ele>169.3</ele>
        <time>2021-05-24T08:29:43Z</time>
      </trkpt>
      <trkpt lat="42.8666200" lon="-8.5710170">
        <ele>169.3</ele>
        <time>2021-05-24T08:29:44Z</time>
      </trkpt>
      <trkpt lat="42.8666300" lon="-8.5710040">
        <ele>169.4</ele>
        <time>2021-05-24T08:29:45Z</time>
      </trkpt>
      <trkpt lat="42.8666440" lon="-8.5709840">
        <ele>169.4</ele>
        <time>2021-05-24T08:29:46Z</time>
      </trkpt>
      <trkpt lat="42.8666430" lon="-8.5709650">
        <ele>169.5</ele>
        <time>2021-05-24T08:29:47Z</time>
      </trkpt>
      <trkpt lat="42.8666500" lon="-8.5709580">
        <ele>169.5</ele>
        <time>2021-05-24T08:29:48Z</time>
      </trkpt>
      <trkpt lat="42.8666710" lon="-8.5709500">
        <ele>169.6</ele>
        <time>2021-05-24T08:29:49Z</time>
      </trkpt>
      <trkpt lat="42.8666920" lon="-8.5709430">
        <ele>169.6</ele>
        <time>2021-05-24T08:29:50Z</time>
      </trkpt>
      <trkpt lat="42.8666990" lon="-8.5709330">
        <ele>169.6</ele>
        <time>2021-05-24T08:29:51Z</time>
      </trkpt>
      <trkpt lat="42.8667080" lon="-8.5709250">
        <ele>169.7</ele>
        <time>2021-05-24T08:29:52Z</time>
      </trkpt>
      <trkpt lat="42.8667210" lon="-8.5709090">
        <ele>169.7</ele>
        <time>2021-05-24T08:29:53Z</time>
      </trkpt>
      <trkpt lat="42.8667270" lon="-8.5708690">
        <ele>170.0</ele>
        <time>2021-05-24T08:29:54Z</time>
      </trkpt>
      <trkpt lat="42.8667280" lon="-8.5708590">
        <ele>170.1</ele>
        <time>2021-05-24T08:29:55Z</time>
      </trkpt>
      <trkpt lat="42.8667350" lon="-8.5708340">
        <ele>170.1</ele>
        <time>2021-05-24T08:29:56Z</time>
      </trkpt>
      <trkpt lat="42.8667390" lon="-8.5708230">
        <ele>170.1</ele>
        <time>2021-05-24T08:29:57Z</time>
      </trkpt>
      <trkpt lat="42.8667430" lon="-8.5708130">
        <ele>170.2</ele>
        <time>2021-05-24T08:29:58Z</time>
      </trkpt>
      <trkpt lat="42.8667490" lon="-8.5708030">
        <ele>170.3</ele>
        <time>2021-05-24T08:29:59Z</time>
      </trkpt>
      <trkpt lat="42.8667580" lon="-8.5707830">
        <ele>170.4</ele>
        <time>2021-05-24T08:30:00Z</time>
      </trkpt>
      <trkpt lat="42.8667600" lon="-8.5707760">
        <ele>170.5</ele>
        <time>2021-05-24T08:30:01Z</time>
      </trkpt>
      <trkpt lat="42.8667600" lon="-8.5707670">
        <ele>170.6</ele>
        <time>2021-05-24T08:30:02Z</time>
      </trkpt>
      <trkpt lat="42.8667560" lon="-8.5707600">
        <ele>170.6</ele>
        <time>2021-05-24T08:30:03Z</time>
      </trkpt>
      <trkpt lat="42.8667620" lon="-8.5707440">
        <ele>170.7</ele>
        <time>2021-05-24T08:30:04Z</time>
      </trkpt>
      <trkpt lat="42.8667630" lon="-8.5707370">
        <ele>170.8</ele>
        <time>2021-05-24T08:30:05Z</time>
      </trkpt>
      <trkpt lat="42.8667640" lon="-8.5707170">
        <ele>170.9</ele>
        <time>2021-05-24T08:30:06Z</time>
      </trkpt>
      <trkpt lat="42.8667690" lon="-8.5707050">
        <ele>171.0</ele>
        <time>2021-05-24T08:30:07Z</time>
      </trkpt>
      <trkpt lat="42.8667700" lon="-8.5706920">
        <ele>171.1</ele>
        <time>2021-05-24T08:30:08Z</time>
      </trkpt>
      <trkpt lat="42.8667750" lon="-8.5706730">
        <ele>171.2</ele>
        <time>2021-05-24T08:30:09Z</time>
      </trkpt>
      <trkpt lat="42.8667820" lon="-8.5706610">
        <ele>171.3</ele>
        <time>2021-05-24T08:30:10Z</time>
      </trkpt>
      <trkpt lat="42.8667840" lon="-8.5706500">
        <ele>171.4</ele>
        <time>2021-05-24T08:30:11Z</time>
      </trkpt>
      <trkpt lat="42.8667880" lon="-8.5706340">
        <ele>171.5</ele>
        <time>2021-05-24T08:30:12Z</time>
      </trkpt>
      <trkpt lat="42.8667890" lon="-8.5706120">
        <ele>171.7</ele>
        <time>2021-05-24T08:30:13Z</time>
      </trkpt>
      <trkpt lat="42.8667880" lon="-8.5705970">
        <ele>171.8</ele>
        <time>2021-05-24T08:30:14Z</time>
      </trkpt>
      <trkpt lat="42.8667900" lon="-8.5705810">
        <ele>172.0</ele>
        <time>2021-05-24T08:30:15Z</time>
      </trkpt>
      <trkpt lat="42.8667940" lon="-8.5705690">
        <ele>172.1</ele>
        <time>2021-05-24T08:30:16Z</time>
      </trkpt>
      <trkpt lat="42.8667960" lon="-8.5705550">
        <ele>172.3</ele>
        <time>2021-05-24T08:30:17Z</time>
      </trkpt>
      <trkpt lat="42.8668020" lon="-8.5705470">
        <ele>172.4</ele>
        <time>2021-05-24T08:30:18Z</time>
      </trkpt>
      <trkpt lat="42.8668060" lon="-8.5705340">
        <ele>172.5</ele>
        <time>2021-05-24T08:30:19Z</time>
      </trkpt>
      <trkpt lat="42.8668060" lon="-8.5705110">
        <ele>172.7</ele>
        <time>2021-05-24T08:30:20Z</time>
      </trkpt>
      <trkpt lat="42.8668070" lon="-8.5704990">
        <ele>172.9</ele>
        <time>2021-05-24T08:30:21Z</time>
      </trkpt>
      <trkpt lat="42.8668100" lon="-8.5704870">
        <ele>173.0</ele>
        <time>2021-05-24T08:30:22Z</time>
      </trkpt>
      <trkpt lat="42.8668130" lon="-8.5704700">
        <ele>173.1</ele>
        <time>2021-05-24T08:30:23Z</time>
      </trkpt>
      <trkpt lat="42.8668120" lon="-8.5704600">
        <ele>173.2</ele>
        <time>2021-05-24T08:30:24Z</time>
      </trkpt>
      <trkpt lat="42.8668110" lon="-8.5704370">
        <ele>173.4</ele>
        <time>2021-05-24T08:30:25Z</time>
      </trkpt>
      <trkpt lat="42.8668120" lon="-8.5704190">
        <ele>173.6</ele>
        <time>2021-05-24T08:30:26Z</time>
      </trkpt>
      <trkpt lat="42.8668140" lon="-8.5704090">
        <ele>173.7</ele>
        <time>2021-05-24T08:30:27Z</time>
      </trkpt>
      <trkpt lat="42.8668200" lon="-8.5703990">
        <ele>173.8</ele>
        <time>2021-05-24T08:30:28Z</time>
      </trkpt>
      <trkpt lat="42.8668200" lon="-8.5703720">
        <ele>174.1</ele>
        <time>2021-05-24T08:30:29Z</time>
      </trkpt>
      <trkpt lat="42.8668240" lon="-8.5703550">
        <ele>174.2</ele>
        <time>2021-05-24T08:30:30Z</time>
      </trkpt>
      <trkpt lat="42.8668360" lon="-8.5703300">
        <ele>174.5</ele>
        <time>2021-05-24T08:30:31Z</time>
      </trkpt>
      <trkpt lat="42.8668390" lon="-8.5703180">
        <ele>174.6</ele>
        <time>2021-05-24T08:30:32Z</time>
      </trkpt>
      <trkpt lat="42.8668420" lon="-8.5703070">
        <ele>174.7</ele>
        <time>2021-05-24T08:30:33Z</time>
      </trkpt>
      <trkpt lat="42.8668520" lon="-8.5702920">
        <ele>174.8</ele>
        <time>2021-05-24T08:30:34Z</time>
      </trkpt>
      <trkpt lat="42.8668610" lon="-8.5702800">
        <ele>175.0</ele>
        <time>2021-05-24T08:30:35Z</time>
      </trkpt>
      <trkpt lat="42.8668750" lon="-8.5702590">
        <ele>175.2</ele>
        <time>2021-05-24T08:30:36Z</time>
      </trkpt>
      <trkpt lat="42.8668790" lon="-8.5702470">
        <ele>175.3</ele>
        <time>2021-05-24T08:30:37Z</time>
      </trkpt>
      <trkpt lat="42.8668840" lon="-8.5702350">
        <ele>175.4</ele>
        <time>2021-05-24T08:30:38Z</time>
      </trkpt>
      <trkpt lat="42.8668950" lon="-8.5702120">
        <ele>175.7</ele>
        <time>2021-05-24T08:30:39Z</time>
      </trkpt>
      <trkpt lat="42.8668990" lon="-8.5702010">
        <ele>175.8</ele>
        <time>2021-05-24T08:30:40Z</time>
      </trkpt>
      <trkpt lat="42.8669040" lon="-8.5701900">
        <ele>175.9</ele>
        <time>2021-05-24T08:30:41Z</time>
      </trkpt>
      <trkpt lat="42.8669030" lon="-8.5701740">
        <ele>176.0</ele>
        <time>2021-05-24T08:30:42Z</time>
      </trkpt>
      <trkpt lat="42.8669140" lon="-8.5701480">
        <ele>176.3</ele>
        <time>2021-05-24T08:30:43Z</time>
      </trkpt>
      <trkpt lat="42.8669160" lon="-8.5701310">
        <ele>176.4</ele>
        <time>2021-05-24T08:30:44Z</time>
      </trkpt>
      <trkpt lat="42.8669190" lon="-8.5701100">
        <ele>176.6</ele>
        <time>2021-05-24T08:30:45Z</time>
      </trkpt>
      <trkpt lat="42.8669230" lon="-8.5701010">
        <ele>176.7</ele>
        <time>2021-05-24T08:30:46Z</time>
      </trkpt>
      <trkpt lat="42.8669300" lon="-8.5700800">
        <ele>176.8</ele>
        <time>2021-05-24T08:30:47Z</time>
      </trkpt>
      <trkpt lat="42.8669370" lon="-8.5700700">
        <ele>176.9</ele>
        <time>2021-05-24T08:30:48Z</time>
      </trkpt>
      <trkpt lat="42.8669480" lon="-8.5700630">
        <ele>177.1</ele>
        <time>2021-05-24T08:30:49Z</time>
      </trkpt>
      <trkpt lat="42.8669570" lon="-8.5700560">
        <ele>177.2</ele>
        <time>2021-05-24T08:30:50Z</time>
      </trkpt>
      <trkpt lat="42.8669620" lon="-8.5700440">
        <ele>177.3</ele>
        <time>2021-05-24T08:30:51Z</time>
      </trkpt>
      <trkpt lat="42.8669800" lon="-8.5700290">
        <ele>177.5</ele>
        <time>2021-05-24T08:30:52Z</time>
      </trkpt>
      <trkpt lat="42.8669820" lon="-8.5700160">
        <ele>177.6</ele>
        <time>2021-05-24T08:30:53Z</time>
      </trkpt>
      <trkpt lat="42.8669940" lon="-8.5699980">
        <ele>177.8</ele>
        <time>2021-05-24T08:30:54Z</time>
      </trkpt>
      <trkpt lat="42.8669990" lon="-8.5699930">
        <ele>177.9</ele>
        <time>2021-05-24T08:30:55Z</time>
      </trkpt>
      <trkpt lat="42.8670070" lon="-8.5699830">
        <ele>178.0</ele>
        <time>2021-05-24T08:30:56Z</time>
      </trkpt>
      <trkpt lat="42.8670100" lon="-8.5699640">
        <ele>178.1</ele>
        <time>2021-05-24T08:30:57Z</time>
      </trkpt>
      <trkpt lat="42.8670190" lon="-8.5699510">
        <ele>178.3</ele>
        <time>2021-05-24T08:30:58Z</time>
      </trkpt>
      <trkpt lat="42.8670270" lon="-8.5699420">
        <ele>178.4</ele>
        <time>2021-05-24T08:30:59Z</time>
      </trkpt>
      <trkpt lat="42.8670370" lon="-8.5699320">
        <ele>178.5</ele>
        <time>2021-05-24T08:31:00Z</time>
      </trkpt>
      <trkpt lat="42.8670400" lon="-8.5699200">
        <ele>178.6</ele>
        <time>2021-05-24T08:31:01Z</time>
      </trkpt>
      <trkpt lat="42.8670470" lon="-8.5699060">
        <ele>178.7</ele>
        <time>2021-05-24T08:31:02Z</time>
      </trkpt>
      <trkpt lat="42.8670510" lon="-8.5698910">
        <ele>178.8</ele>
        <time>2021-05-24T08:31:03Z</time>
      </trkpt>
      <trkpt lat="42.8670540" lon="-8.5698760">
        <ele>178.9</ele>
        <time>2021-05-24T08:31:04Z</time>
      </trkpt>
      <trkpt lat="42.8670610" lon="-8.5698650">
        <ele>179.1</ele>
        <time>2021-05-24T08:31:05Z</time>
      </trkpt>
      <trkpt lat="42.8670760" lon="-8.5698420">
        <ele>179.3</ele>
        <time>2021-05-24T08:31:06Z</time>
      </trkpt>
      <trkpt lat="42.8670800" lon="-8.5698320">
        <ele>179.4</ele>
        <time>2021-05-24T08:31:07Z</time>
      </trkpt>
      <trkpt lat="42.8670830" lon="-8.5698210">
        <ele>179.5</ele>
        <time>2021-05-24T08:31:08Z</time>
      </trkpt>
      <trkpt lat="42.8670960" lon="-8.5698010">
        <ele>179.7</ele>
        <time>2021-05-24T08:31:09Z</time>
      </trkpt>
      <trkpt lat="42.8671000" lon="-8.5697900">
        <ele>179.7</ele>
        <time>2021-05-24T08:31:10Z</time>
      </trkpt>
      <trkpt lat="42.8671040" lon="-8.5697790">
        <ele>179.8</ele>
        <time>2021-05-24T08:31:11Z</time>
      </trkpt>
      <trkpt lat="42.8671160" lon="-8.5697560">
        <ele>180.0</ele>
        <time>2021-05-24T08:31:12Z</time>
      </trkpt>
      <trkpt lat="42.8671200" lon="-8.5697470">
        <ele>180.1</ele>
        <time>2021-05-24T08:31:13Z</time>
      </trkpt>
      <trkpt lat="42.8671240" lon="-8.5697370">
        <ele>180.2</ele>
        <time>2021-05-24T08:31:14Z</time>
      </trkpt>
      <trkpt lat="42.8671280" lon="-8.5697280">
        <ele>180.3</ele>
        <time>2021-05-24T08:31:15Z</time>
      </trkpt>
      <trkpt lat="42.8671390" lon="-8.5697090">
        <ele>180.5</ele>
        <time>2021-05-24T08:31:16Z</time>
      </trkpt>
      <trkpt lat="42.8671450" lon="-8.5696970">
        <ele>180.6</ele>
        <time>2021-05-24T08:31:17Z</time>
      </trkpt>
      <trkpt lat="42.8671500" lon="-8.5696860">
        <ele>180.7</ele>
        <time>2021-05-24T08:31:18Z</time>
      </trkpt>
      <trkpt lat="42.8671500" lon="-8.5696660">
        <ele>180.8</ele>
        <time>2021-05-24T08:31:19Z</time>
      </trkpt>
      <trkpt lat="42.8671580" lon="-8.5696590">
        <ele>180.9</ele>
        <time>2021-05-24T08:31:20Z</time>
      </trkpt>
      <trkpt lat="42.8671640" lon="-8.5696460">
        <ele>181.0</ele>
        <time>2021-05-24T08:31:21Z</time>
      </trkpt>
      <trkpt lat="42.8671660" lon="-8.5696360">
        <ele>181.1</ele>
        <time>2021-05-24T08:31:22Z</time>
      </trkpt>
      <trkpt lat="42.8671650" lon="-8.5696150">
        <ele>181.3</ele>
        <time>2021-05-24T08:31:23Z</time>
      </trkpt>
      <trkpt lat="42.8671700" lon="-8.5696000">
        <ele>181.4</ele>
        <time>2021-05-24T08:31:24Z</time>
      </trkpt>
      <trkpt lat="42.8671760" lon="-8.5695790">
        <ele>181.6</ele>
        <time>2021-05-24T08:31:25Z</time>
      </trkpt>
      <trkpt lat="42.8671860" lon="-8.5695660">
        <ele>181.7</ele>
        <time>2021-05-24T08:31:26Z</time>
      </trkpt>
      <trkpt lat="42.8671960" lon="-8.5695490">
        <ele>181.9</ele>
        <time>2021-05-24T08:31:27Z</time>
      </trkpt>
      <trkpt lat="42.8672000" lon="-8.5695400">
        <ele>182.0</ele>
        <time>2021-05-24T08:31:28Z</time>
      </trkpt>
      <trkpt lat="42.8672050" lon="-8.5695300">
        <ele>182.1</ele>
        <time>2021-05-24T08:31:29Z</time>
      </trkpt>
      <trkpt lat="42.8672090" lon="-8.5695200">
        <ele>182.1</ele>
        <time>2021-05-24T08:31:30Z</time>
      </trkpt>
      <trkpt lat="42.8672160" lon="-8.5695010">
        <ele>182.3</ele>
        <time>2021-05-24T08:31:31Z</time>
      </trkpt>
      <trkpt lat="42.8672210" lon="-8.5694840">
        <ele>182.5</ele>
        <time>2021-05-24T08:31:32Z</time>
      </trkpt>
      <trkpt lat="42.8672240" lon="-8.5694710">
        <ele>182.6</ele>
        <time>2021-05-24T08:31:33Z</time>
      </trkpt>
      <trkpt lat="42.8672270" lon="-8.5694540">
        <ele>182.7</ele>
        <time>2021-05-24T08:31:34Z</time>
      </trkpt>
      <trkpt lat="42.8672290" lon="-8.5694380">
        <ele>182.8</ele>
        <time>2021-05-24T08:31:35Z</time>
      </trkpt>
      <trkpt lat="42.8672300" lon="-8.5694220">
        <ele>183.0</ele>
        <time>2021-05-24T08:31:36Z</time>
      </trkpt>
      <trkpt lat="42.8672340" lon="-8.5693980">
        <ele>183.2</ele>
        <time>2021-05-24T08:31:37Z</time>
      </trkpt>
      <trkpt lat="42.8672410" lon="-8.5693730">
        <ele>183.4</ele>
        <time>2021-05-24T08:31:38Z</time>
      </trkpt>
      <trkpt lat="42.8672420" lon="-8.5693600">
        <ele>183.5</ele>
        <time>2021-05-24T08:31:39Z</time>
      </trkpt>
      <trkpt lat="42.8672430" lon="-8.5693480">
        <ele>183.6</ele>
        <time>2021-05-24T08:31:40Z</time>
      </trkpt>
      <trkpt lat="42.8672500" lon="-8.5693390">
        <ele>183.7</ele>
        <time>2021-05-24T08:31:41Z</time>
      </trkpt>
      <trkpt lat="42.8672530" lon="-8.5693240">
        <ele>183.8</ele>
        <time>2021-05-24T08:31:42Z</time>
      </trkpt>
      <trkpt lat="42.8672660" lon="-8.5693170">
        <ele>183.9</ele>
        <time>2021-05-24T08:31:43Z</time>
      </trkpt>
      <trkpt lat="42.8672700" lon="-8.5693020">
        <ele>184.1</ele>
        <time>2021-05-24T08:31:44Z</time>
      </trkpt>
      <trkpt lat="42.8672730" lon="-8.5692880">
        <ele>184.2</ele>
        <time>2021-05-24T08:31:45Z</time>
      </trkpt>
      <trkpt lat="42.8672790" lon="-8.5692720">
        <ele>184.3</ele>
        <time>2021-05-24T08:31:46Z</time>
      </trkpt>
      <trkpt lat="42.8672870" lon="-8.5692470">
        <ele>184.5</ele>
        <time>2021-05-24T08:31:47Z</time>
      </trkpt>
      <trkpt lat="42.8672910" lon="-8.5692380">
        <ele>184.6</ele>
        <time>2021-05-24T08:31:48Z</time>
      </trkpt>
      <trkpt lat="42.8672950" lon="-8.5692280">
        <ele>184.7</ele>
        <time>2021-05-24T08:31:49Z</time>
      </trkpt>
      <trkpt lat="42.8673080" lon="-8.5692070">
        <ele>185.0</ele>
        <time>2021-05-24T08:31:50Z</time>
      </trkpt>
      <trkpt lat="42.8673140" lon="-8.5691950">
        <ele>185.1</ele>
        <time>2021-05-24T08:31:51Z</time>
      </trkpt>
      <trkpt lat="42.8673200" lon="-8.5691820">
        <ele>185.2</ele>
        <time>2021-05-24T08:31:52Z</time>
      </trkpt>
      <trkpt lat="42.8673220" lon="-8.5691650">
        <ele>185.3</ele>
        <time>2021-05-24T08:31:53Z</time>
      </trkpt>
      <trkpt lat="42.8673270" lon="-8.5691520">
        <ele>185.5</ele>
        <time>2021-05-24T08:31:54Z</time>
      </trkpt>
      <trkpt lat="42.8673280" lon="-8.5691400">
        <ele>185.6</ele>
        <time>2021-05-24T08:31:55Z</time>
      </trkpt>
      <trkpt lat="42.8673300" lon="-8.5691280">
        <ele>185.7</ele>
        <time>2021-05-24T08:31:56Z</time>
      </trkpt>
      <trkpt lat="42.8673320" lon="-8.5691180">
        <ele>186.0</ele>
        <time>2021-05-24T08:31:57Z</time>
      </trkpt>
      <trkpt lat="42.8673360" lon="-8.5690970">
        <ele>186.2</ele>
        <time>2021-05-24T08:31:58Z</time>
      </trkpt>
      <trkpt lat="42.8673340" lon="-8.5690750">
        <ele>186.4</ele>
        <time>2021-05-24T08:31:59Z</time>
      </trkpt>
      <trkpt lat="42.8673370" lon="-8.5690650">
        <ele>186.5</ele>
        <time>2021-05-24T08:32:00Z</time>
      </trkpt>
      <trkpt lat="42.8673390" lon="-8.5690540">
        <ele>186.6</ele>
        <time>2021-05-24T08:32:01Z</time>
      </trkpt>
      <trkpt lat="42.8673410" lon="-8.5690430">
        <ele>186.7</ele>
        <time>2021-05-24T08:32:02Z</time>
      </trkpt>
      <trkpt lat="42.8673420" lon="-8.5690290">
        <ele>186.9</ele>
        <time>2021-05-24T08:32:03Z</time>
      </trkpt>
      <trkpt lat="42.8673440" lon="-8.5690100">
        <ele>187.0</ele>
        <time>2021-05-24T08:32:04Z</time>
      </trkpt>
      <trkpt lat="42.8673480" lon="-8.5689950">
        <ele>187.2</ele>
        <time>2021-05-24T08:32:05Z</time>
      </trkpt>
      <trkpt lat="42.8673520" lon="-8.5689780">
        <ele>187.3</ele>
        <time>2021-05-24T08:32:06Z</time>
      </trkpt>
      <trkpt lat="42.8673530" lon="-8.5689740">
        <ele>187.4</ele>
        <time>2021-05-24T08:32:07Z</time>
      </trkpt>
      <trkpt lat="42.8673550" lon="-8.5689690">
        <ele>187.4</ele>
        <time>2021-05-24T08:32:08Z</time>
      </trkpt>
      <trkpt lat="42.8673570" lon="-8.5689640">
        <ele>187.5</ele>
        <time>2021-05-24T08:32:09Z</time>
      </trkpt>
      <trkpt lat="42.8673580" lon="-8.5689590">
        <ele>187.5</ele>
        <time>2021-05-24T08:32:10Z</time>
      </trkpt>
      <trkpt lat="42.8673600" lon="-8.5689550">
        <ele>187.6</ele>
        <time>2021-05-24T08:32:11Z</time>
      </trkpt>
      <trkpt lat="42.8673610" lon="-8.5689500">
        <ele>187.6</ele>
        <time>2021-05-24T08:32:12Z</time>
      </trkpt>
      <trkpt lat="42.8673630" lon="-8.5689450">
        <ele>187.7</ele>
        <time>2021-05-24T08:32:13Z</time>
      </trkpt>
      <trkpt lat="42.8673680" lon="-8.5689320">
        <ele>187.8</ele>
        <time>2021-05-24T08:32:14Z</time>
      </trkpt>
      <trkpt lat="42.8673720" lon="-8.5689170">
        <ele>187.9</ele>
        <time>2021-05-24T08:32:15Z</time>
      </trkpt>
      <trkpt lat="42.8673710" lon="-8.5689040">
        <ele>188.1</ele>
        <time>2021-05-24T08:32:16Z</time>
      </trkpt>
      <trkpt lat="42.8673730" lon="-8.5688930">
        <ele>188.2</ele>
        <time>2021-05-24T08:32:17Z</time>
      </trkpt>
      <trkpt lat="42.8673760" lon="-8.5688760">
        <ele>188.3</ele>
        <time>2021-05-24T08:32:18Z</time>
      </trkpt>
      <trkpt lat="42.8673760" lon="-8.5688590">
        <ele>188.5</ele>
        <time>2021-05-24T08:32:19Z</time>
      </trkpt>
      <trkpt lat="42.8673820" lon="-8.5688330">
        <ele>188.8</ele>
        <time>2021-05-24T08:32:20Z</time>
      </trkpt>
      <trkpt lat="42.8673840" lon="-8.5688210">
        <ele>188.9</ele>
        <time>2021-05-24T08:32:21Z</time>
      </trkpt>
      <trkpt lat="42.8673870" lon="-8.5688090">
        <ele>189.0</ele>
        <time>2021-05-24T08:32:22Z</time>
      </trkpt>
      <trkpt lat="42.8673920" lon="-8.5687850">
        <ele>189.2</ele>
        <time>2021-05-24T08:32:23Z</time>
      </trkpt>
      <trkpt lat="42.8673930" lon="-8.5687720">
        <ele>189.4</ele>
        <time>2021-05-24T08:32:24Z</time>
      </trkpt>
      <trkpt lat="42.8673940" lon="-8.5687600">
        <ele>189.5</ele>
        <time>2021-05-24T08:32:25Z</time>
      </trkpt>
      <trkpt lat="42.8673980" lon="-8.5687410">
        <ele>189.7</ele>
        <time>2021-05-24T08:32:26Z</time>
      </trkpt>
      <trkpt lat="42.8673930" lon="-8.5687150">
        <ele>189.9</ele>
        <time>2021-05-24T08:32:27Z</time>
      </trkpt>
      <trkpt lat="42.8673930" lon="-8.5687050">
        <ele>190.0</ele>
        <time>2021-05-24T08:32:28Z</time>
      </trkpt>
      <trkpt lat="42.8673980" lon="-8.5686840">
        <ele>190.3</ele>
        <time>2021-05-24T08:32:29Z</time>
      </trkpt>
      <trkpt lat="42.8674020" lon="-8.5686690">
        <ele>190.4</ele>
        <time>2021-05-24T08:32:30Z</time>
      </trkpt>
      <trkpt lat="42.8674010" lon="-8.5686570">
        <ele>190.5</ele>
        <time>2021-05-24T08:32:31Z</time>
      </trkpt>
      <trkpt lat="42.8674020" lon="-8.5686440">
        <ele>190.7</ele>
        <time>2021-05-24T08:32:32Z</time>
      </trkpt>
      <trkpt lat="42.8674080" lon="-8.5686280">
        <ele>190.8</ele>
        <time>2021-05-24T08:32:33Z</time>
      </trkpt>
      <trkpt lat="42.8674120" lon="-8.5686170">
        <ele>190.9</ele>
        <time>2021-05-24T08:32:34Z</time>
      </trkpt>
      <trkpt lat="42.8674210" lon="-8.5685920">
        <ele>191.2</ele>
        <time>2021-05-24T08:32:35Z</time>
      </trkpt>
      <trkpt lat="42.8674200" lon="-8.5685790">
        <ele>191.3</ele>
        <time>2021-05-24T08:32:36Z</time>
      </trkpt>
      <trkpt lat="42.8674180" lon="-8.5685740">
        <ele>191.4</ele>
        <time>2021-05-24T08:32:37Z</time>
      </trkpt>
      <trkpt lat="42.8674170" lon="-8.5685630">
        <ele>191.5</ele>
        <time>2021-05-24T08:32:38Z</time>
      </trkpt>
      <trkpt lat="42.8674240" lon="-8.5685430">
        <ele>191.7</ele>
        <time>2021-05-24T08:32:39Z</time>
      </trkpt>
      <trkpt lat="42.8674270" lon="-8.5685230">
        <ele>191.9</ele>
        <time>2021-05-24T08:32:40Z</time>
      </trkpt>
      <trkpt lat="42.8674280" lon="-8.5685030">
        <ele>192.1</ele>
        <time>2021-05-24T08:32:41Z</time>
      </trkpt>
      <trkpt lat="42.8674360" lon="-8.5684810">
        <ele>192.3</ele>
        <time>2021-05-24T08:32:42Z</time>
      </trkpt>
      <trkpt lat="42.8674330" lon="-8.5684790">
        <ele>192.3</ele>
        <time>2021-05-24T08:32:43Z</time>
      </trkpt>
      <trkpt lat="42.8674300" lon="-8.5684580">
        <ele>192.5</ele>
        <time>2021-05-24T08:32:44Z</time>
      </trkpt>
      <trkpt lat="42.8674360" lon="-8.5684350">
        <ele>192.8</ele>
        <time>2021-05-24T08:32:45Z</time>
      </trkpt>
      <trkpt lat="42.8674400" lon="-8.5684270">
        <ele>192.8</ele>
        <time>2021-05-24T08:32:46Z</time>
      </trkpt>
      <trkpt lat="42.8674440" lon="-8.5684150">
        <ele>193.0</ele>
        <time>2021-05-24T08:32:47Z</time>
      </trkpt>
      <trkpt lat="42.8674500" lon="-8.5683960">
        <ele>193.1</ele>
        <time>2021-05-24T08:32:48Z</time>
      </trkpt>
      <trkpt lat="42.8674510" lon="-8.5683790">
        <ele>193.3</ele>
        <time>2021-05-24T08:32:49Z</time>
      </trkpt>
      <trkpt lat="42.8674560" lon="-8.5683540">
        <ele>193.5</ele>
        <time>2021-05-24T08:32:50Z</time>
      </trkpt>
      <trkpt lat="42.8674580" lon="-8.5683400">
        <ele>193.7</ele>
        <time>2021-05-24T08:32:51Z</time>
      </trkpt>
      <trkpt lat="42.8674610" lon="-8.5683270">
        <ele>193.8</ele>
        <time>2021-05-24T08:32:52Z</time>
      </trkpt>
      <trkpt lat="42.8674690" lon="-8.5682960">
        <ele>194.1</ele>
        <time>2021-05-24T08:32:53Z</time>
      </trkpt>
      <trkpt lat="42.8674720" lon="-8.5682850">
        <ele>194.2</ele>
        <time>2021-05-24T08:32:54Z</time>
      </trkpt>
      <trkpt lat="42.8674750" lon="-8.5682750">
        <ele>194.3</ele>
        <time>2021-05-24T08:32:55Z</time>
      </trkpt>
      <trkpt lat="42.8674900" lon="-8.5682550">
        <ele>194.5</ele>
        <time>2021-05-24T08:32:56Z</time>
      </trkpt>
      <trkpt lat="42.8674960" lon="-8.5682440">
        <ele>194.6</ele>
        <time>2021-05-24T08:32:57Z</time>
      </trkpt>
      <trkpt lat="42.8675020" lon="-8.5682340">
        <ele>194.8</ele>
        <time>2021-05-24T08:32:58Z</time>
      </trkpt>
      <trkpt lat="42.8675200" lon="-8.5682270">
        <ele>195.0</ele>
        <time>2021-05-24T08:32:59Z</time>
      </trkpt>
      <trkpt lat="42.8675140" lon="-8.5682150">
        <ele>195.1</ele>
        <time>2021-05-24T08:33:00Z</time>
      </trkpt>
      <trkpt lat="42.8675170" lon="-8.5681890">
        <ele>195.3</ele>
        <time>2021-05-24T08:33:01Z</time>
      </trkpt>
      <trkpt lat="42.8675170" lon="-8.5681740">
        <ele>195.4</ele>
        <time>2021-05-24T08:33:02Z</time>
      </trkpt>
      <trkpt lat="42.8675270" lon="-8.5681590">
        <ele>195.6</ele>
        <time>2021-05-24T08:33:03Z</time>
      </trkpt>
      <trkpt lat="42.8675300" lon="-8.5681500">
        <ele>195.7</ele>
        <time>2021-05-24T08:33:04Z</time>
      </trkpt>
      <trkpt lat="42.8675340" lon="-8.5681370">
        <ele>195.8</ele>
        <time>2021-05-24T08:33:05Z</time>
      </trkpt>
      <trkpt lat="42.8675400" lon="-8.5681270">
        <ele>195.9</ele>
        <time>2021-05-24T08:33:06Z</time>
      </trkpt>
      <trkpt lat="42.8675490" lon="-8.5681120">
        <ele>196.0</ele>
        <time>2021-05-24T08:33:07Z</time>
      </trkpt>
      <trkpt lat="42.8675650" lon="-8.5680960">
        <ele>196.2</ele>
        <time>2021-05-24T08:33:08Z</time>
      </trkpt>
      <trkpt lat="42.8675750" lon="-8.5680900">
        <ele>196.3</ele>
        <time>2021-05-24T08:33:09Z</time>
      </trkpt>
      <trkpt lat="42.8675840" lon="-8.5680830">
        <ele>196.4</ele>
        <time>2021-05-24T08:33:10Z</time>
      </trkpt>
      <trkpt lat="42.8676030" lon="-8.5680650">
        <ele>196.7</ele>
        <time>2021-05-24T08:33:11Z</time>
      </trkpt>
      <trkpt lat="42.8676100" lon="-8.5680570">
        <ele>196.8</ele>
        <time>2021-05-24T08:33:12Z</time>
      </trkpt>
      <trkpt lat="42.8676170" lon="-8.5680490">
        <ele>196.8</ele>
        <time>2021-05-24T08:33:13Z</time>
      </trkpt>
      <trkpt lat="42.8676330" lon="-8.5680290">
        <ele>197.1</ele>
        <time>2021-05-24T08:33:14Z</time>
      </trkpt>
      <trkpt lat="42.8676430" lon="-8.5680200">
        <ele>197.2</ele>
        <time>2021-05-24T08:33:15Z</time>
      </trkpt>
      <trkpt lat="42.8676520" lon="-8.5680110">
        <ele>197.3</ele>
        <time>2021-05-24T08:33:16Z</time>
      </trkpt>
      <trkpt lat="42.8676590" lon="-8.5680030">
        <ele>197.4</ele>
        <time>2021-05-24T08:33:17Z</time>
      </trkpt>
      <trkpt lat="42.8676590" lon="-8.5679970">
        <ele>197.4</ele>
        <time>2021-05-24T08:33:18Z</time>
      </trkpt>
      <trkpt lat="42.8676760" lon="-8.5679790">
        <ele>197.6</ele>
        <time>2021-05-24T08:33:19Z</time>
      </trkpt>
      <trkpt lat="42.8676890" lon="-8.5679700">
        <ele>197.8</ele>
        <time>2021-05-24T08:33:20Z</time>
      </trkpt>
      <trkpt lat="42.8676940" lon="-8.5679610">
        <ele>197.9</ele>
        <time>2021-05-24T08:33:21Z</time>
      </trkpt>
      <trkpt lat="42.8677030" lon="-8.5679460">
        <ele>198.0</ele>
        <time>2021-05-24T08:33:22Z</time>
      </trkpt>
      <trkpt lat="42.8677180" lon="-8.5679260">
        <ele>198.2</ele>
        <time>2021-05-24T08:33:23Z</time>
      </trkpt>
      <trkpt lat="42.8677250" lon="-8.5679210">
        <ele>198.3</ele>
        <time>2021-05-24T08:33:24Z</time>
      </trkpt>
      <trkpt lat="42.8677320" lon="-8.5679160">
        <ele>198.4</ele>
        <time>2021-05-24T08:33:25Z</time>
      </trkpt>
      <trkpt lat="42.8677420" lon="-8.5679070">
        <ele>198.5</ele>
        <time>2021-05-24T08:33:26Z</time>
      </trkpt>
      <trkpt lat="42.8677520" lon="-8.5678940">
        <ele>198.6</ele>
        <time>2021-05-24T08:33:27Z</time>
      </trkpt>
      <trkpt lat="42.8677550" lon="-8.5678800">
        <ele>198.7</ele>
        <time>2021-05-24T08:33:28Z</time>
      </trkpt>
      <trkpt lat="42.8677570" lon="-8.5678660">
        <ele>198.8</ele>
        <time>2021-05-24T08:33:29Z</time>
      </trkpt>
      <trkpt lat="42.8677590" lon="-8.5678610">
        <ele>198.9</ele>
        <time>2021-05-24T08:33:30Z</time>
      </trkpt>
      <trkpt lat="42.8677690" lon="-8.5678430">
        <ele>199.1</ele>
        <time>2021-05-24T08:33:31Z</time>
      </trkpt>
      <trkpt lat="42.8677710" lon="-8.5678260">
        <ele>199.6</ele>
        <time>2021-05-24T08:33:32Z</time>
      </trkpt>
      <trkpt lat="42.8677740" lon="-8.5678140">
        <ele>199.6</ele>
        <time>2021-05-24T08:33:33Z</time>
      </trkpt>
      <trkpt lat="42.8677820" lon="-8.5678020">
        <ele>199.7</ele>
        <time>2021-05-24T08:33:34Z</time>
      </trkpt>
      <trkpt lat="42.8677840" lon="-8.5677900">
        <ele>199.8</ele>
        <time>2021-05-24T08:33:35Z</time>
      </trkpt>
      <trkpt lat="42.8677820" lon="-8.5677720">
        <ele>199.9</ele>
        <time>2021-05-24T08:33:36Z</time>
      </trkpt>
      <trkpt lat="42.8677790" lon="-8.5677550">
        <ele>200.0</ele>
        <time>2021-05-24T08:33:37Z</time>
      </trkpt>
      <trkpt lat="42.8677750" lon="-8.5677460">
        <ele>200.0</ele>
        <time>2021-05-24T08:33:38Z</time>
      </trkpt>
      <trkpt lat="42.8677770" lon="-8.5677350">
        <ele>200.1</ele>
        <time>2021-05-24T08:33:39Z</time>
      </trkpt>
      <trkpt lat="42.8677770" lon="-8.5677200">
        <ele>200.2</ele>
        <time>2021-05-24T08:33:40Z</time>
      </trkpt>
      <trkpt lat="42.8677710" lon="-8.5677070">
        <ele>200.3</ele>
        <time>2021-05-24T08:33:41Z</time>
      </trkpt>
      <trkpt lat="42.8677700" lon="-8.5676880">
        <ele>200.4</ele>
        <time>2021-05-24T08:33:42Z</time>
      </trkpt>
      <trkpt lat="42.8677680" lon="-8.5676720">
        <ele>200.5</ele>
        <time>2021-05-24T08:33:43Z</time>
      </trkpt>
      <trkpt lat="42.8677690" lon="-8.5676650">
        <ele>200.5</ele>
        <time>2021-05-24T08:33:44Z</time>
      </trkpt>
      <trkpt lat="42.8677580" lon="-8.5676410">
        <ele>200.7</ele>
        <time>2021-05-24T08:33:45Z</time>
      </trkpt>
      <trkpt lat="42.8677550" lon="-8.5676310">
        <ele>200.8</ele>
        <time>2021-05-24T08:33:46Z</time>
      </trkpt>
      <trkpt lat="42.8677520" lon="-8.5676200">
        <ele>200.8</ele>
        <time>2021-05-24T08:33:47Z</time>
      </trkpt>
      <trkpt lat="42.8677500" lon="-8.5676020">
        <ele>200.9</ele>
        <time>2021-05-24T08:33:48Z</time>
      </trkpt>
      <trkpt lat="42.8677480" lon="-8.5675870">
        <ele>201.0</ele>
        <time>2021-05-24T08:33:49Z</time>
      </trkpt>
      <trkpt lat="42.8677500" lon="-8.5675750">
        <ele>201.1</ele>
        <time>2021-05-24T08:33:50Z</time>
      </trkpt>
      <trkpt lat="42.8677480" lon="-8.5675600">
        <ele>201.2</ele>
        <time>2021-05-24T08:33:51Z</time>
      </trkpt>
      <trkpt lat="42.8677510" lon="-8.5675470">
        <ele>201.3</ele>
        <time>2021-05-24T08:33:52Z</time>
      </trkpt>
      <trkpt lat="42.8677520" lon="-8.5675370">
        <ele>201.3</ele>
        <time>2021-05-24T08:33:53Z</time>
      </trkpt>
      <trkpt lat="42.8677550" lon="-8.5675100">
        <ele>201.5</ele>
        <time>2021-05-24T08:33:54Z</time>
      </trkpt>
      <trkpt lat="42.8677550" lon="-8.5674980">
        <ele>201.6</ele>
        <time>2021-05-24T08:33:55Z</time>
      </trkpt>
      <trkpt lat="42.8677550" lon="-8.5674850">
        <ele>201.7</ele>
        <time>2021-05-24T08:33:56Z</time>
      </trkpt>
      <trkpt lat="42.8677570" lon="-8.5674760">
        <ele>201.7</ele>
        <time>2021-05-24T08:33:57Z</time>
      </trkpt>
      <trkpt lat="42.8677580" lon="-8.5674570">
        <ele>201.8</ele>
        <time>2021-05-24T08:33:58Z</time>
      </trkpt>
      <trkpt lat="42.8677500" lon="-8.5674450">
        <ele>201.9</ele>
        <time>2021-05-24T08:33:59Z</time>
      </trkpt>
      <trkpt lat="42.8677510" lon="-8.5674260">
        <ele>202.1</ele>
        <time>2021-05-24T08:34:00Z</time>
      </trkpt>
      <trkpt lat="42.8677510" lon="-8.5674110">
        <ele>202.1</ele>
        <time>2021-05-24T08:34:01Z</time>
      </trkpt>
      <trkpt lat="42.8677500" lon="-8.5673960">
        <ele>202.2</ele>
        <time>2021-05-24T08:34:02Z</time>
      </trkpt>
      <trkpt lat="42.8677480" lon="-8.5673800">
        <ele>202.3</ele>
        <time>2021-05-24T08:34:03Z</time>
      </trkpt>
      <trkpt lat="42.8677490" lon="-8.5673670">
        <ele>202.4</ele>
        <time>2021-05-24T08:34:04Z</time>
      </trkpt>
      <trkpt lat="42.8677520" lon="-8.5673560">
        <ele>202.5</ele>
        <time>2021-05-24T08:34:05Z</time>
      </trkpt>
      <trkpt lat="42.8677470" lon="-8.5673370">
        <ele>202.6</ele>
        <time>2021-05-24T08:34:06Z</time>
      </trkpt>
      <trkpt lat="42.8677460" lon="-8.5673220">
        <ele>202.7</ele>
        <time>2021-05-24T08:34:07Z</time>
      </trkpt>
      <trkpt lat="42.8677460" lon="-8.5673070">
        <ele>202.8</ele>
        <time>2021-05-24T08:34:08Z</time>
      </trkpt>
      <trkpt lat="42.8677480" lon="-8.5672920">
        <ele>202.9</ele>
        <time>2021-05-24T08:34:09Z</time>
      </trkpt>
      <trkpt lat="42.8677470" lon="-8.5672740">
        <ele>203.0</ele>
        <time>2021-05-24T08:34:10Z</time>
      </trkpt>
      <trkpt lat="42.8677530" lon="-8.5672600">
        <ele>203.1</ele>
        <time>2021-05-24T08:34:11Z</time>
      </trkpt>
      <trkpt lat="42.8677520" lon="-8.5672310">
        <ele>203.2</ele>
        <time>2021-05-24T08:34:12Z</time>
      </trkpt>
      <trkpt lat="42.8677520" lon="-8.5672200">
        <ele>203.3</ele>
        <time>2021-05-24T08:34:13Z</time>
      </trkpt>
      <trkpt lat="42.8677530" lon="-8.5672100">
        <ele>203.4</ele>
        <time>2021-05-24T08:34:14Z</time>
      </trkpt>
      <trkpt lat="42.8677560" lon="-8.5671970">
        <ele>203.5</ele>
        <time>2021-05-24T08:34:15Z</time>
      </trkpt>
      <trkpt lat="42.8677570" lon="-8.5671820">
        <ele>203.5</ele>
        <time>2021-05-24T08:34:16Z</time>
      </trkpt>
      <trkpt lat="42.8677570" lon="-8.5671630">
        <ele>203.7</ele>
        <time>2021-05-24T08:34:17Z</time>
      </trkpt>
      <trkpt lat="42.8677590" lon="-8.5671450">
        <ele>203.8</ele>
        <time>2021-05-24T08:34:18Z</time>
      </trkpt>
      <trkpt lat="42.8677520" lon="-8.5671320">
        <ele>203.9</ele>
        <time>2021-05-24T08:34:19Z</time>
      </trkpt>
      <trkpt lat="42.8677540" lon="-8.5671150">
        <ele>204.0</ele>
        <time>2021-05-24T08:34:20Z</time>
      </trkpt>
      <trkpt lat="42.8677540" lon="-8.5670960">
        <ele>204.1</ele>
        <time>2021-05-24T08:34:21Z</time>
      </trkpt>
      <trkpt lat="42.8677500" lon="-8.5670790">
        <ele>204.2</ele>
        <time>2021-05-24T08:34:22Z</time>
      </trkpt>
      <trkpt lat="42.8677500" lon="-8.5670670">
        <ele>204.3</ele>
        <time>2021-05-24T08:34:23Z</time>
      </trkpt>
      <trkpt lat="42.8677490" lon="-8.5670430">
        <ele>204.4</ele>
        <time>2021-05-24T08:34:24Z</time>
      </trkpt>
      <trkpt lat="42.8677460" lon="-8.5670250">
        <ele>204.5</ele>
        <time>2021-05-24T08:34:25Z</time>
      </trkpt>
      <trkpt lat="42.8677450" lon="-8.5670090">
        <ele>204.6</ele>
        <time>2021-05-24T08:34:26Z</time>
      </trkpt>
      <trkpt lat="42.8677460" lon="-8.5669880">
        <ele>204.7</ele>
        <time>2021-05-24T08:34:27Z</time>
      </trkpt>
      <trkpt lat="42.8677450" lon="-8.5669750">
        <ele>204.8</ele>
        <time>2021-05-24T08:34:28Z</time>
      </trkpt>
      <trkpt lat="42.8677420" lon="-8.5669590">
        <ele>204.9</ele>
        <time>2021-05-24T08:34:29Z</time>
      </trkpt>
      <trkpt lat="42.8677380" lon="-8.5669420">
        <ele>205.0</ele>
        <time>2021-05-24T08:34:30Z</time>
      </trkpt>
      <trkpt lat="42.8677420" lon="-8.5669130">
        <ele>205.2</ele>
        <time>2021-05-24T08:34:31Z</time>
      </trkpt>
      <trkpt lat="42.8677410" lon="-8.5669010">
        <ele>205.2</ele>
        <time>2021-05-24T08:34:32Z</time>
      </trkpt>
      <trkpt lat="42.8677410" lon="-8.5668900">
        <ele>205.3</ele>
        <time>2021-05-24T08:34:33Z</time>
      </trkpt>
      <trkpt lat="42.8677470" lon="-8.5668700">
        <ele>205.4</ele>
        <time>2021-05-24T08:34:34Z</time>
      </trkpt>
      <trkpt lat="42.8677420" lon="-8.5668580">
        <ele>205.5</ele>
        <time>2021-05-24T08:34:35Z</time>
      </trkpt>
      <trkpt lat="42.8677440" lon="-8.5668440">
        <ele>205.6</ele>
        <time>2021-05-24T08:34:36Z</time>
      </trkpt>
      <trkpt lat="42.8677430" lon="-8.5668320">
        <ele>205.6</ele>
        <time>2021-05-24T08:34:37Z</time>
      </trkpt>
      <trkpt lat="42.8677470" lon="-8.5668120">
        <ele>205.8</ele>
        <time>2021-05-24T08:34:38Z</time>
      </trkpt>
      <trkpt lat="42.8677470" lon="-8.5667990">
        <ele>205.8</ele>
        <time>2021-05-24T08:34:39Z</time>
      </trkpt>
      <trkpt lat="42.8677500" lon="-8.5667800">
        <ele>206.0</ele>
        <time>2021-05-24T08:34:40Z</time>
      </trkpt>
      <trkpt lat="42.8677540" lon="-8.5667670">
        <ele>206.0</ele>
        <time>2021-05-24T08:34:41Z</time>
      </trkpt>
      <trkpt lat="42.8677580" lon="-8.5667520">
        <ele>206.1</ele>
        <time>2021-05-24T08:34:42Z</time>
      </trkpt>
      <trkpt lat="42.8677600" lon="-8.5667230">
        <ele>206.3</ele>
        <time>2021-05-24T08:34:43Z</time>
      </trkpt>
      <trkpt lat="42.8677610" lon="-8.5667130">
        <ele>206.4</ele>
        <time>2021-05-24T08:34:44Z</time>
      </trkpt>
      <trkpt lat="42.8677630" lon="-8.5667020">
        <ele>206.4</ele>
        <time>2021-05-24T08:34:45Z</time>
      </trkpt>
      <trkpt lat="42.8677620" lon="-8.5666800">
        <ele>206.5</ele>
        <time>2021-05-24T08:34:46Z</time>
      </trkpt>
      <trkpt lat="42.8677610" lon="-8.5666650">
        <ele>206.6</ele>
        <time>2021-05-24T08:34:47Z</time>
      </trkpt>
      <trkpt lat="42.8677630" lon="-8.5666520">
        <ele>206.7</ele>
        <time>2021-05-24T08:34:48Z</time>
      </trkpt>
      <trkpt lat="42.8677590" lon="-8.5666240">
        <ele>206.9</ele>
        <time>2021-05-24T08:34:49Z</time>
      </trkpt>
      <trkpt lat="42.8677610" lon="-8.5666140">
        <ele>206.9</ele>
        <time>2021-05-24T08:34:50Z</time>
      </trkpt>
      <trkpt lat="42.8677640" lon="-8.5666030">
        <ele>207.0</ele>
        <time>2021-05-24T08:34:51Z</time>
      </trkpt>
      <trkpt lat="42.8677630" lon="-8.5665870">
        <ele>207.1</ele>
        <time>2021-05-24T08:34:52Z</time>
      </trkpt>
      <trkpt lat="42.8677600" lon="-8.5665740">
        <ele>207.2</ele>
        <time>2021-05-24T08:34:53Z</time>
      </trkpt>
      <trkpt lat="42.8677580" lon="-8.5665640">
        <ele>207.3</ele>
        <time>2021-05-24T08:34:54Z</time>
      </trkpt>
      <trkpt lat="42.8677520" lon="-8.5665440">
        <ele>207.4</ele>
        <time>2021-05-24T08:34:55Z</time>
      </trkpt>
      <trkpt lat="42.8677520" lon="-8.5665320">
        <ele>207.5</ele>
        <time>2021-05-24T08:34:56Z</time>
      </trkpt>
      <trkpt lat="42.8677500" lon="-8.5665190">
        <ele>207.5</ele>
        <time>2021-05-24T08:34:57Z</time>
      </trkpt>
      <trkpt lat="42.8677470" lon="-8.5664840">
        <ele>207.8</ele>
        <time>2021-05-24T08:34:58Z</time>
      </trkpt>
      <trkpt lat="42.8677460" lon="-8.5664740">
        <ele>207.8</ele>
        <time>2021-05-24T08:34:59Z</time>
      </trkpt>
      <trkpt lat="42.8677450" lon="-8.5664630">
        <ele>207.9</ele>
        <time>2021-05-24T08:35:00Z</time>
      </trkpt>
      <trkpt lat="42.8677460" lon="-8.5664490">
        <ele>208.0</ele>
        <time>2021-05-24T08:35:01Z</time>
      </trkpt>
      <trkpt lat="42.8677440" lon="-8.5664380">
        <ele>208.1</ele>
        <time>2021-05-24T08:35:02Z</time>
      </trkpt>
      <trkpt lat="42.8677460" lon="-8.5664200">
        <ele>208.2</ele>
        <time>2021-05-24T08:35:03Z</time>
      </trkpt>
      <trkpt lat="42.8677450" lon="-8.5664070">
        <ele>208.3</ele>
        <time>2021-05-24T08:35:04Z</time>
      </trkpt>
      <trkpt lat="42.8677460" lon="-8.5663810">
        <ele>208.4</ele>
        <time>2021-05-24T08:35:05Z</time>
      </trkpt>
      <trkpt lat="42.8677500" lon="-8.5663710">
        <ele>208.5</ele>
        <time>2021-05-24T08:35:06Z</time>
      </trkpt>
      <trkpt lat="42.8677510" lon="-8.5663510">
        <ele>208.6</ele>
        <time>2021-05-24T08:35:07Z</time>
      </trkpt>
      <trkpt lat="42.8677480" lon="-8.5663390">
        <ele>208.7</ele>
        <time>2021-05-24T08:35:08Z</time>
      </trkpt>
      <trkpt lat="42.8677500" lon="-8.5663210">
        <ele>208.8</ele>
        <time>2021-05-24T08:35:09Z</time>
      </trkpt>
      <trkpt lat="42.8677510" lon="-8.5663050">
        <ele>208.9</ele>
        <time>2021-05-24T08:35:10Z</time>
      </trkpt>
      <trkpt lat="42.8677500" lon="-8.5662900">
        <ele>209.0</ele>
        <time>2021-05-24T08:35:11Z</time>
      </trkpt>
      <trkpt lat="42.8677530" lon="-8.5662640">
        <ele>209.2</ele>
        <time>2021-05-24T08:35:12Z</time>
      </trkpt>
      <trkpt lat="42.8677530" lon="-8.5662500">
        <ele>209.3</ele>
        <time>2021-05-24T08:35:13Z</time>
      </trkpt>
      <trkpt lat="42.8677550" lon="-8.5662330">
        <ele>209.4</ele>
        <time>2021-05-24T08:35:14Z</time>
      </trkpt>
      <trkpt lat="42.8677560" lon="-8.5662240">
        <ele>209.4</ele>
        <time>2021-05-24T08:35:15Z</time>
      </trkpt>
      <trkpt lat="42.8677560" lon="-8.5662030">
        <ele>209.6</ele>
        <time>2021-05-24T08:35:16Z</time>
      </trkpt>
      <trkpt lat="42.8677660" lon="-8.5661780">
        <ele>209.7</ele>
        <time>2021-05-24T08:35:17Z</time>
      </trkpt>
      <trkpt lat="42.8677670" lon="-8.5661670">
        <ele>209.8</ele>
        <time>2021-05-24T08:35:18Z</time>
      </trkpt>
      <trkpt lat="42.8677690" lon="-8.5661550">
        <ele>209.9</ele>
        <time>2021-05-24T08:35:19Z</time>
      </trkpt>
      <trkpt lat="42.8677650" lon="-8.5661400">
        <ele>210.0</ele>
        <time>2021-05-24T08:35:20Z</time>
      </trkpt>
      <trkpt lat="42.8677660" lon="-8.5661290">
        <ele>210.0</ele>
        <time>2021-05-24T08:35:21Z</time>
      </trkpt>
      <trkpt lat="42.8677660" lon="-8.5661170">
        <ele>210.1</ele>
        <time>2021-05-24T08:35:22Z</time>
      </trkpt>
      <trkpt lat="42.8677660" lon="-8.5661050">
        <ele>210.2</ele>
        <time>2021-05-24T08:35:23Z</time>
      </trkpt>
      <trkpt lat="42.8677690" lon="-8.5660940">
        <ele>210.3</ele>
        <time>2021-05-24T08:35:24Z</time>
      </trkpt>
      <trkpt lat="42.8677740" lon="-8.5660850">
        <ele>210.3</ele>
        <time>2021-05-24T08:35:25Z</time>
      </trkpt>
      <trkpt lat="42.8677840" lon="-8.5660670">
        <ele>210.5</ele>
        <time>2021-05-24T08:35:26Z</time>
      </trkpt>
      <trkpt lat="42.8677860" lon="-8.5660480">
        <ele>210.6</ele>
        <time>2021-05-24T08:35:27Z</time>
      </trkpt>
      <trkpt lat="42.8677850" lon="-8.5660360">
        <ele>210.7</ele>
        <time>2021-05-24T08:35:28Z</time>
      </trkpt>
      <trkpt lat="42.8677850" lon="-8.5660230">
        <ele>210.7</ele>
        <time>2021-05-24T08:35:29Z</time>
      </trkpt>
      <trkpt lat="42.8677840" lon="-8.5660110">
        <ele>210.7</ele>
        <time>2021-05-24T08:35:30Z</time>
      </trkpt>
      <trkpt lat="42.8677810" lon="-8.5659940">
        <ele>210.8</ele>
        <time>2021-05-24T08:35:31Z</time>
      </trkpt>
      <trkpt lat="42.8677850" lon="-8.5659850">
        <ele>210.8</ele>
        <time>2021-05-24T08:35:32Z</time>
      </trkpt>
      <trkpt lat="42.8677940" lon="-8.5659640">
        <ele>210.9</ele>
        <time>2021-05-24T08:35:33Z</time>
      </trkpt>
      <trkpt lat="42.8677910" lon="-8.5659440">
        <ele>210.9</ele>
        <time>2021-05-24T08:35:34Z</time>
      </trkpt>
      <trkpt lat="42.8677900" lon="-8.5659160">
        <ele>211.0</ele>
        <time>2021-05-24T08:35:35Z</time>
      </trkpt>
      <trkpt lat="42.8677850" lon="-8.5659000">
        <ele>211.0</ele>
        <time>2021-05-24T08:35:36Z</time>
      </trkpt>
      <trkpt lat="42.8677860" lon="-8.5658850">
        <ele>211.1</ele>
        <time>2021-05-24T08:35:37Z</time>
      </trkpt>
      <trkpt lat="42.8677870" lon="-8.5658690">
        <ele>211.1</ele>
        <time>2021-05-24T08:35:38Z</time>
      </trkpt>
      <trkpt lat="42.8677860" lon="-8.5658520">
        <ele>211.2</ele>
        <time>2021-05-24T08:35:39Z</time>
      </trkpt>
      <trkpt lat="42.8677920" lon="-8.5658400">
        <ele>211.3</ele>
        <time>2021-05-24T08:35:40Z</time>
      </trkpt>
      <trkpt lat="42.8677990" lon="-8.5658250">
        <ele>211.4</ele>
        <time>2021-05-24T08:35:41Z</time>
      </trkpt>
      <trkpt lat="42.8677910" lon="-8.5658110">
        <ele>211.5</ele>
        <time>2021-05-24T08:35:42Z</time>
      </trkpt>
      <trkpt lat="42.8677910" lon="-8.5658000">
        <ele>211.6</ele>
        <time>2021-05-24T08:35:43Z</time>
      </trkpt>
      <trkpt lat="42.8677930" lon="-8.5657770">
        <ele>211.7</ele>
        <time>2021-05-24T08:35:44Z</time>
      </trkpt>
      <trkpt lat="42.8677950" lon="-8.5657630">
        <ele>211.8</ele>
        <time>2021-05-24T08:35:45Z</time>
      </trkpt>
      <trkpt lat="42.8677980" lon="-8.5657540">
        <ele>211.8</ele>
        <time>2021-05-24T08:35:46Z</time>
      </trkpt>
      <trkpt lat="42.8677940" lon="-8.5657330">
        <ele>211.9</ele>
        <time>2021-05-24T08:35:47Z</time>
      </trkpt>
      <trkpt lat="42.8677990" lon="-8.5657170">
        <ele>212.0</ele>
        <time>2021-05-24T08:35:48Z</time>
      </trkpt>
      <trkpt lat="42.8677960" lon="-8.5657050">
        <ele>212.1</ele>
        <time>2021-05-24T08:35:49Z</time>
      </trkpt>
      <trkpt lat="42.8677980" lon="-8.5656850">
        <ele>212.2</ele>
        <time>2021-05-24T08:35:50Z</time>
      </trkpt>
      <trkpt lat="42.8677940" lon="-8.5656740">
        <ele>212.3</ele>
        <time>2021-05-24T08:35:51Z</time>
      </trkpt>
      <trkpt lat="42.8677970" lon="-8.5656600">
        <ele>212.4</ele>
        <time>2021-05-24T08:35:52Z</time>
      </trkpt>
      <trkpt lat="42.8677990" lon="-8.5656470">
        <ele>212.5</ele>
        <time>2021-05-24T08:35:53Z</time>
      </trkpt>
      <trkpt lat="42.8678000" lon="-8.5656280">
        <ele>212.6</ele>
        <time>2021-05-24T08:35:54Z</time>
      </trkpt>
      <trkpt lat="42.8678000" lon="-8.5656170">
        <ele>212.7</ele>
        <time>2021-05-24T08:35:55Z</time>
      </trkpt>
      <trkpt lat="42.8677970" lon="-8.5655980">
        <ele>212.8</ele>
        <time>2021-05-24T08:35:56Z</time>
      </trkpt>
      <trkpt lat="42.8678020" lon="-8.5655820">
        <ele>212.9</ele>
        <time>2021-05-24T08:35:57Z</time>
      </trkpt>
      <trkpt lat="42.8678000" lon="-8.5655630">
        <ele>213.0</ele>
        <time>2021-05-24T08:35:58Z</time>
      </trkpt>
      <trkpt lat="42.8677940" lon="-8.5655500">
        <ele>213.1</ele>
        <time>2021-05-24T08:35:59Z</time>
      </trkpt>
      <trkpt lat="42.8677980" lon="-8.5655240">
        <ele>213.2</ele>
        <time>2021-05-24T08:36:00Z</time>
      </trkpt>
      <trkpt lat="42.8677980" lon="-8.5655110">
        <ele>213.3</ele>
        <time>2021-05-24T08:36:01Z</time>
      </trkpt>
      <trkpt lat="42.8677980" lon="-8.5654980">
        <ele>213.4</ele>
        <time>2021-05-24T08:36:02Z</time>
      </trkpt>
      <trkpt lat="42.8677960" lon="-8.5654610">
        <ele>213.6</ele>
        <time>2021-05-24T08:36:03Z</time>
      </trkpt>
      <trkpt lat="42.8677930" lon="-8.5654470">
        <ele>213.7</ele>
        <time>2021-05-24T08:36:04Z</time>
      </trkpt>
      <trkpt lat="42.8677880" lon="-8.5654330">
        <ele>213.8</ele>
        <time>2021-05-24T08:36:05Z</time>
      </trkpt>
      <trkpt lat="42.8677830" lon="-8.5654150">
        <ele>213.9</ele>
        <time>2021-05-24T08:36:06Z</time>
      </trkpt>
      <trkpt lat="42.8677800" lon="-8.5654010">
        <ele>214.0</ele>
        <time>2021-05-24T08:36:07Z</time>
      </trkpt>
      <trkpt lat="42.8677770" lon="-8.5653890">
        <ele>214.1</ele>
        <time>2021-05-24T08:36:08Z</time>
      </trkpt>
      <trkpt lat="42.8677750" lon="-8.5653740">
        <ele>214.2</ele>
        <time>2021-05-24T08:36:09Z</time>
      </trkpt>
      <trkpt lat="42.8677770" lon="-8.5653550">
        <ele>214.3</ele>
        <time>2021-05-24T08:36:10Z</time>
      </trkpt>
      <trkpt lat="42.8677810" lon="-8.5653230">
        <ele>214.4</ele>
        <time>2021-05-24T08:36:11Z</time>
      </trkpt>
      <trkpt lat="42.8677830" lon="-8.5653120">
        <ele>214.5</ele>
        <time>2021-05-24T08:36:12Z</time>
      </trkpt>
      <trkpt lat="42.8677840" lon="-8.5653020">
        <ele>214.5</ele>
        <time>2021-05-24T08:36:13Z</time>
      </trkpt>
      <trkpt lat="42.8677830" lon="-8.5652890">
        <ele>214.6</ele>
        <time>2021-05-24T08:36:14Z</time>
      </trkpt>
      <trkpt lat="42.8677820" lon="-8.5652750">
        <ele>214.7</ele>
        <time>2021-05-24T08:36:15Z</time>
      </trkpt>
      <trkpt lat="42.8677820" lon="-8.5652570">
        <ele>214.7</ele>
        <time>2021-05-24T08:36:16Z</time>
      </trkpt>
      <trkpt lat="42.8677810" lon="-8.5652430">
        <ele>214.8</ele>
        <time>2021-05-24T08:36:17Z</time>
      </trkpt>
      <trkpt lat="42.8677850" lon="-8.5652280">
        <ele>214.9</ele>
        <time>2021-05-24T08:36:18Z</time>
      </trkpt>
      <trkpt lat="42.8677930" lon="-8.5652140">
        <ele>215.0</ele>
        <time>2021-05-24T08:36:19Z</time>
      </trkpt>
      <trkpt lat="42.8677910" lon="-8.5651950">
        <ele>215.1</ele>
        <time>2021-05-24T08:36:20Z</time>
      </trkpt>
      <trkpt lat="42.8677930" lon="-8.5651820">
        <ele>215.1</ele>
        <time>2021-05-24T08:36:21Z</time>
      </trkpt>
      <trkpt lat="42.8677940" lon="-8.5651740">
        <ele>215.2</ele>
        <time>2021-05-24T08:36:22Z</time>
      </trkpt>
      <trkpt lat="42.8677950" lon="-8.5651530">
        <ele>215.3</ele>
        <time>2021-05-24T08:36:23Z</time>
      </trkpt>
      <trkpt lat="42.8677960" lon="-8.5651310">
        <ele>215.4</ele>
        <time>2021-05-24T08:36:24Z</time>
      </trkpt>
      <trkpt lat="42.8677990" lon="-8.5651080">
        <ele>215.5</ele>
        <time>2021-05-24T08:36:25Z</time>
      </trkpt>
      <trkpt lat="42.8678000" lon="-8.5650960">
        <ele>215.5</ele>
        <time>2021-05-24T08:36:26Z</time>
      </trkpt>
      <trkpt lat="42.8678000" lon="-8.5650820">
        <ele>215.6</ele>
        <time>2021-05-24T08:36:27Z</time>
      </trkpt>
      <trkpt lat="42.8677990" lon="-8.5650500">
        <ele>215.7</ele>
        <time>2021-05-24T08:36:28Z</time>
      </trkpt>
      <trkpt lat="42.8677990" lon="-8.5650390">
        <ele>215.7</ele>
        <time>2021-05-24T08:36:29Z</time>
      </trkpt>
      <trkpt lat="42.8677990" lon="-8.5650290">
        <ele>215.8</ele>
        <time>2021-05-24T08:36:30Z</time>
      </trkpt>
      <trkpt lat="42.8678040" lon="-8.5650190">
        <ele>215.8</ele>
        <time>2021-05-24T08:36:31Z</time>
      </trkpt>
      <trkpt lat="42.8678040" lon="-8.5650050">
        <ele>215.9</ele>
        <time>2021-05-24T08:36:32Z</time>
      </trkpt>
      <trkpt lat="42.8678120" lon="-8.5649900">
        <ele>216.0</ele>
        <time>2021-05-24T08:36:33Z</time>
      </trkpt>
      <trkpt lat="42.8678120" lon="-8.5649810">
        <ele>216.0</ele>
        <time>2021-05-24T08:36:34Z</time>
      </trkpt>
      <trkpt lat="42.8678150" lon="-8.5649590">
        <ele>216.1</ele>
        <time>2021-05-24T08:36:35Z</time>
      </trkpt>
      <trkpt lat="42.8678210" lon="-8.5649460">
        <ele>216.1</ele>
        <time>2021-05-24T08:36:36Z</time>
      </trkpt>
      <trkpt lat="42.8678290" lon="-8.5649130">
        <ele>216.2</ele>
        <time>2021-05-24T08:36:37Z</time>
      </trkpt>
      <trkpt lat="42.8678310" lon="-8.5649020">
        <ele>216.3</ele>
        <time>2021-05-24T08:36:38Z</time>
      </trkpt>
      <trkpt lat="42.8678340" lon="-8.5648900">
        <ele>216.3</ele>
        <time>2021-05-24T08:36:39Z</time>
      </trkpt>
      <trkpt lat="42.8678340" lon="-8.5648700">
        <ele>216.3</ele>
        <time>2021-05-24T08:36:40Z</time>
      </trkpt>
      <trkpt lat="42.8678400" lon="-8.5648530">
        <ele>216.4</ele>
        <time>2021-05-24T08:36:41Z</time>
      </trkpt>
      <trkpt lat="42.8678450" lon="-8.5648230">
        <ele>216.5</ele>
        <time>2021-05-24T08:36:42Z</time>
      </trkpt>
      <trkpt lat="42.8678460" lon="-8.5648110">
        <ele>216.5</ele>
        <time>2021-05-24T08:36:43Z</time>
      </trkpt>
      <trkpt lat="42.8678460" lon="-8.5647980">
        <ele>216.5</ele>
        <time>2021-05-24T08:36:44Z</time>
      </trkpt>
      <trkpt lat="42.8678600" lon="-8.5647800">
        <ele>216.5</ele>
        <time>2021-05-24T08:36:45Z</time>
      </trkpt>
      <trkpt lat="42.8678650" lon="-8.5647710">
        <ele>216.6</ele>
        <time>2021-05-24T08:36:46Z</time>
      </trkpt>
      <trkpt lat="42.8678700" lon="-8.5647610">
        <ele>216.6</ele>
        <time>2021-05-24T08:36:47Z</time>
      </trkpt>
      <trkpt lat="42.8678740" lon="-8.5647530">
        <ele>216.6</ele>
        <time>2021-05-24T08:36:48Z</time>
      </trkpt>
      <trkpt lat="42.8678740" lon="-8.5647360">
        <ele>216.6</ele>
        <time>2021-05-24T08:36:49Z</time>
      </trkpt>
      <trkpt lat="42.8678820" lon="-8.5647160">
        <ele>216.7</ele>
        <time>2021-05-24T08:36:50Z</time>
      </trkpt>
      <trkpt lat="42.8678820" lon="-8.5646940">
        <ele>216.7</ele>
        <time>2021-05-24T08:36:51Z</time>
      </trkpt>
      <trkpt lat="42.8678850" lon="-8.5646840">
        <ele>216.7</ele>
        <time>2021-05-24T08:36:52Z</time>
      </trkpt>
      <trkpt lat="42.8678900" lon="-8.5646710">
        <ele>216.7</ele>
        <time>2021-05-24T08:36:53Z</time>
      </trkpt>
      <trkpt lat="42.8679010" lon="-8.5646560">
        <ele>216.8</ele>
        <time>2021-05-24T08:36:54Z</time>
      </trkpt>
      <trkpt lat="42.8679020" lon="-8.5646370">
        <ele>216.8</ele>
        <time>2021-05-24T08:36:55Z</time>
      </trkpt>
      <trkpt lat="42.8679040" lon="-8.5646280">
        <ele>216.8</ele>
        <time>2021-05-24T08:36:56Z</time>
      </trkpt>
      <trkpt lat="42.8679080" lon="-8.5646150">
        <ele>216.8</ele>
        <time>2021-05-24T08:36:57Z</time>
      </trkpt>
      <trkpt lat="42.8679130" lon="-8.5646040">
        <ele>216.8</ele>
        <time>2021-05-24T08:36:58Z</time>
      </trkpt>
      <trkpt lat="42.8679210" lon="-8.5645960">
        <ele>216.8</ele>
        <time>2021-05-24T08:36:59Z</time>
      </trkpt>
      <trkpt lat="42.8679280" lon="-8.5645700">
        <ele>216.9</ele>
        <time>2021-05-24T08:37:00Z</time>
      </trkpt>
      <trkpt lat="42.8679300" lon="-8.5645590">
        <ele>216.9</ele>
        <time>2021-05-24T08:37:01Z</time>
      </trkpt>
      <trkpt lat="42.8679330" lon="-8.5645470">
        <ele>216.9</ele>
        <time>2021-05-24T08:37:02Z</time>
      </trkpt>
      <trkpt lat="42.8679380" lon="-8.5645340">
        <ele>216.9</ele>
        <time>2021-05-24T08:37:03Z</time>
      </trkpt>
      <trkpt lat="42.8679390" lon="-8.5645250">
        <ele>216.9</ele>
        <time>2021-05-24T08:37:04Z</time>
      </trkpt>
      <trkpt lat="42.8679440" lon="-8.5645010">
        <ele>216.9</ele>
        <time>2021-05-24T08:37:05Z</time>
      </trkpt>
      <trkpt lat="42.8679490" lon="-8.5644710">
        <ele>216.9</ele>
        <time>2021-05-24T08:37:06Z</time>
      </trkpt>
      <trkpt lat="42.8679500" lon="-8.5644610">
        <ele>216.9</ele>
        <time>2021-05-24T08:37:07Z</time>
      </trkpt>
      <trkpt lat="42.8679520" lon="-8.5644510">
        <ele>216.9</ele>
        <time>2021-05-24T08:37:08Z</time>
      </trkpt>
      <trkpt lat="42.8679590" lon="-8.5644280">
        <ele>216.9</ele>
        <time>2021-05-24T08:37:09Z</time>
      </trkpt>
      <trkpt lat="42.8679630" lon="-8.5644160">
        <ele>216.9</ele>
        <time>2021-05-24T08:37:10Z</time>
      </trkpt>
      <trkpt lat="42.8679660" lon="-8.5644040">
        <ele>216.9</ele>
        <time>2021-05-24T08:37:11Z</time>
      </trkpt>
      <trkpt lat="42.8679780" lon="-8.5643710">
        <ele>216.9</ele>
        <time>2021-05-24T08:37:12Z</time>
      </trkpt>
      <trkpt lat="42.8679800" lon="-8.5643590">
        <ele>216.9</ele>
        <time>2021-05-24T08:37:13Z</time>
      </trkpt>
      <trkpt lat="42.8679830" lon="-8.5643470">
        <ele>217.0</ele>
        <time>2021-05-24T08:37:14Z</time>
      </trkpt>
      <trkpt lat="42.8679820" lon="-8.5643340">
        <ele>217.0</ele>
        <time>2021-05-24T08:37:15Z</time>
      </trkpt>
      <trkpt lat="42.8679900" lon="-8.5643050">
        <ele>217.0</ele>
        <time>2021-05-24T08:37:16Z</time>
      </trkpt>
      <trkpt lat="42.8680000" lon="-8.5642900">
        <ele>217.0</ele>
        <time>2021-05-24T08:37:17Z</time>
      </trkpt>
      <trkpt lat="42.8680090" lon="-8.5642710">
        <ele>217.0</ele>
        <time>2021-05-24T08:37:18Z</time>
      </trkpt>
      <trkpt lat="42.8680120" lon="-8.5642590">
        <ele>217.0</ele>
        <time>2021-05-24T08:37:19Z</time>
      </trkpt>
      <trkpt lat="42.8680350" lon="-8.5642460">
        <ele>217.0</ele>
        <time>2021-05-24T08:37:20Z</time>
      </trkpt>
      <trkpt lat="42.8680430" lon="-8.5642320">
        <ele>217.0</ele>
        <time>2021-05-24T08:37:21Z</time>
      </trkpt>
      <trkpt lat="42.8680440" lon="-8.5642250">
        <ele>217.0</ele>
        <time>2021-05-24T08:37:22Z</time>
      </trkpt>
      <trkpt lat="42.8680550" lon="-8.5642080">
        <ele>217.0</ele>
        <time>2021-05-24T08:37:23Z</time>
      </trkpt>
      <trkpt lat="42.8680610" lon="-8.5641950">
        <ele>217.0</ele>
        <time>2021-05-24T08:37:24Z</time>
      </trkpt>
      <trkpt lat="42.8680640" lon="-8.5641890">
        <ele>217.0</ele>
        <time>2021-05-24T08:37:25Z</time>
      </trkpt>
      <trkpt lat="42.8680730" lon="-8.5641710">
        <ele>217.0</ele>
        <time>2021-05-24T08:37:26Z</time>
      </trkpt>
      <trkpt lat="42.8680760" lon="-8.5641440">
        <ele>217.0</ele>
        <time>2021-05-24T08:37:27Z</time>
      </trkpt>
      <trkpt lat="42.8680740" lon="-8.5641340">
        <ele>217.0</ele>
        <time>2021-05-24T08:37:28Z</time>
      </trkpt>
      <trkpt lat="42.8680730" lon="-8.5641250">
        <ele>217.0</ele>
        <time>2021-05-24T08:37:29Z</time>
      </trkpt>
      <trkpt lat="42.8680710" lon="-8.5641150">
        <ele>217.0</ele>
        <time>2021-05-24T08:37:30Z</time>
      </trkpt>
      <trkpt lat="42.8680700" lon="-8.5641050">
        <ele>217.0</ele>
        <time>2021-05-24T08:37:31Z</time>
      </trkpt>
      <trkpt lat="42.8680790" lon="-8.5640880">
        <ele>217.0</ele>
        <time>2021-05-24T08:37:32Z</time>
      </trkpt>
      <trkpt lat="42.8680920" lon="-8.5640750">
        <ele>217.0</ele>
        <time>2021-05-24T08:37:33Z</time>
      </trkpt>
      <trkpt lat="42.8680980" lon="-8.5640510">
        <ele>217.0</ele>
        <time>2021-05-24T08:37:34Z</time>
      </trkpt>
      <trkpt lat="42.8681030" lon="-8.5640310">
        <ele>217.0</ele>
        <time>2021-05-24T08:37:35Z</time>
      </trkpt>
      <trkpt lat="42.8681070" lon="-8.5640220">
        <ele>217.0</ele>
        <time>2021-05-24T08:37:36Z</time>
      </trkpt>
      <trkpt lat="42.8681160" lon="-8.5640050">
        <ele>217.0</ele>
        <time>2021-05-24T08:37:37Z</time>
      </trkpt>
      <trkpt lat="42.8681170" lon="-8.5639910">
        <ele>217.0</ele>
        <time>2021-05-24T08:37:38Z</time>
      </trkpt>
      <trkpt lat="42.8681160" lon="-8.5639710">
        <ele>217.0</ele>
        <time>2021-05-24T08:37:39Z</time>
      </trkpt>
      <trkpt lat="42.8681170" lon="-8.5639490">
        <ele>217.0</ele>
        <time>2021-05-24T08:37:40Z</time>
      </trkpt>
      <trkpt lat="42.8681230" lon="-8.5639320">
        <ele>216.9</ele>
        <time>2021-05-24T08:37:41Z</time>
      </trkpt>
      <trkpt lat="42.8681220" lon="-8.5639190">
        <ele>216.9</ele>
        <time>2021-05-24T08:37:42Z</time>
      </trkpt>
      <trkpt lat="42.8681230" lon="-8.5639050">
        <ele>216.9</ele>
        <time>2021-05-24T08:37:43Z</time>
      </trkpt>
      <trkpt lat="42.8681170" lon="-8.5638840">
        <ele>216.9</ele>
        <time>2021-05-24T08:37:44Z</time>
      </trkpt>
      <trkpt lat="42.8681200" lon="-8.5638600">
        <ele>216.9</ele>
        <time>2021-05-24T08:37:45Z</time>
      </trkpt>
      <trkpt lat="42.8681210" lon="-8.5638450">
        <ele>216.9</ele>
        <time>2021-05-24T08:37:46Z</time>
      </trkpt>
      <trkpt lat="42.8681210" lon="-8.5638190">
        <ele>216.9</ele>
        <time>2021-05-24T08:37:47Z</time>
      </trkpt>
      <trkpt lat="42.8681270" lon="-8.5638070">
        <ele>216.9</ele>
        <time>2021-05-24T08:37:48Z</time>
      </trkpt>
      <trkpt lat="42.8681360" lon="-8.5637890">
        <ele>216.9</ele>
        <time>2021-05-24T08:37:49Z</time>
      </trkpt>
      <trkpt lat="42.8681400" lon="-8.5637760">
        <ele>216.8</ele>
        <time>2021-05-24T08:37:50Z</time>
      </trkpt>
      <trkpt lat="42.8681450" lon="-8.5637620">
        <ele>216.8</ele>
        <time>2021-05-24T08:37:51Z</time>
      </trkpt>
      <trkpt lat="42.8681430" lon="-8.5637380">
        <ele>216.8</ele>
        <time>2021-05-24T08:37:52Z</time>
      </trkpt>
      <trkpt lat="42.8681450" lon="-8.5637230">
        <ele>216.8</ele>
        <time>2021-05-24T08:37:53Z</time>
      </trkpt>
      <trkpt lat="42.8681460" lon="-8.5637040">
        <ele>216.8</ele>
        <time>2021-05-24T08:37:54Z</time>
      </trkpt>
      <trkpt lat="42.8681460" lon="-8.5636890">
        <ele>216.8</ele>
        <time>2021-05-24T08:37:55Z</time>
      </trkpt>
      <trkpt lat="42.8681430" lon="-8.5636710">
        <ele>216.8</ele>
        <time>2021-05-24T08:37:56Z</time>
      </trkpt>
      <trkpt lat="42.8681470" lon="-8.5636460">
        <ele>216.8</ele>
        <time>2021-05-24T08:37:57Z</time>
      </trkpt>
      <trkpt lat="42.8681510" lon="-8.5636250">
        <ele>216.8</ele>
        <time>2021-05-24T08:37:58Z</time>
      </trkpt>
      <trkpt lat="42.8681500" lon="-8.5636020">
        <ele>216.8</ele>
        <time>2021-05-24T08:37:59Z</time>
      </trkpt>
      <trkpt lat="42.8681500" lon="-8.5635880">
        <ele>216.8</ele>
        <time>2021-05-24T08:38:00Z</time>
      </trkpt>
      <trkpt lat="42.8681620" lon="-8.5635720">
        <ele>216.8</ele>
        <time>2021-05-24T08:38:01Z</time>
      </trkpt>
      <trkpt lat="42.8681640" lon="-8.5635580">
        <ele>216.8</ele>
        <time>2021-05-24T08:38:02Z</time>
      </trkpt>
      <trkpt lat="42.8681680" lon="-8.5635340">
        <ele>216.7</ele>
        <time>2021-05-24T08:38:03Z</time>
      </trkpt>
      <trkpt lat="42.8681710" lon="-8.5635150">
        <ele>216.7</ele>
        <time>2021-05-24T08:38:04Z</time>
      </trkpt>
      <trkpt lat="42.8681740" lon="-8.5634940">
        <ele>216.7</ele>
        <time>2021-05-24T08:38:05Z</time>
      </trkpt>
      <trkpt lat="42.8681740" lon="-8.5634780">
        <ele>216.7</ele>
        <time>2021-05-24T08:38:06Z</time>
      </trkpt>
      <trkpt lat="42.8681740" lon="-8.5634550">
        <ele>216.7</ele>
        <time>2021-05-24T08:38:07Z</time>
      </trkpt>
      <trkpt lat="42.8681750" lon="-8.5634350">
        <ele>216.7</ele>
        <time>2021-05-24T08:38:08Z</time>
      </trkpt>
      <trkpt lat="42.8681760" lon="-8.5634120">
        <ele>216.7</ele>
        <time>2021-05-24T08:38:09Z</time>
      </trkpt>
      <trkpt lat="42.8681820" lon="-8.5633980">
        <ele>216.7</ele>
        <time>2021-05-24T08:38:10Z</time>
      </trkpt>
      <trkpt lat="42.8681910" lon="-8.5633710">
        <ele>216.6</ele>
        <time>2021-05-24T08:38:11Z</time>
      </trkpt>
      <trkpt lat="42.8681950" lon="-8.5633600">
        <ele>216.6</ele>
        <time>2021-05-24T08:38:12Z</time>
      </trkpt>
      <trkpt lat="42.8681990" lon="-8.5633490">
        <ele>216.6</ele>
        <time>2021-05-24T08:38:13Z</time>
      </trkpt>
      <trkpt lat="42.8682050" lon="-8.5633280">
        <ele>216.6</ele>
        <time>2021-05-24T08:38:14Z</time>
      </trkpt>
      <trkpt lat="42.8682080" lon="-8.5633120">
        <ele>216.6</ele>
        <time>2021-05-24T08:38:15Z</time>
      </trkpt>
      <trkpt lat="42.8682110" lon="-8.5633000">
        <ele>216.6</ele>
        <time>2021-05-24T08:38:16Z</time>
      </trkpt>
      <trkpt lat="42.8682060" lon="-8.5632930">
        <ele>216.6</ele>
        <time>2021-05-24T08:38:17Z</time>
      </trkpt>
      <trkpt lat="42.8682070" lon="-8.5632810">
        <ele>216.6</ele>
        <time>2021-05-24T08:38:18Z</time>
      </trkpt>
      <trkpt lat="42.8682170" lon="-8.5632710">
        <ele>216.5</ele>
        <time>2021-05-24T08:38:19Z</time>
      </trkpt>
      <trkpt lat="42.8682190" lon="-8.5632620">
        <ele>216.5</ele>
        <time>2021-05-24T08:38:20Z</time>
      </trkpt>
      <trkpt lat="42.8682190" lon="-8.5632440">
        <ele>216.5</ele>
        <time>2021-05-24T08:38:21Z</time>
      </trkpt>
      <trkpt lat="42.8682200" lon="-8.5632320">
        <ele>216.5</ele>
        <time>2021-05-24T08:38:22Z</time>
      </trkpt>
      <trkpt lat="42.8682250" lon="-8.5632220">
        <ele>216.5</ele>
        <time>2021-05-24T08:38:23Z</time>
      </trkpt>
      <trkpt lat="42.8682340" lon="-8.5632170">
        <ele>216.5</ele>
        <time>2021-05-24T08:38:24Z</time>
      </trkpt>
      <trkpt lat="42.8682310" lon="-8.5632140">
        <ele>216.5</ele>
        <time>2021-05-24T08:38:25Z</time>
      </trkpt>
      <trkpt lat="42.8682370" lon="-8.5632140">
        <ele>216.5</ele>
        <time>2021-05-24T08:38:26Z</time>
      </trkpt>
      <trkpt lat="42.8682430" lon="-8.5632150">
        <ele>216.5</ele>
        <time>2021-05-24T08:38:27Z</time>
      </trkpt>
      <trkpt lat="42.8682460" lon="-8.5632130">
        <ele>216.5</ele>
        <time>2021-05-24T08:38:28Z</time>
      </trkpt>
      <trkpt lat="42.8682510" lon="-8.5632100">
        <ele>216.5</ele>
        <time>2021-05-24T08:38:29Z</time>
      </trkpt>
      <trkpt lat="42.8682580" lon="-8.5632080">
        <ele>216.5</ele>
        <time>2021-05-24T08:38:30Z</time>
      </trkpt>
      <trkpt lat="42.8682650" lon="-8.5632000">
        <ele>216.5</ele>
        <time>2021-05-24T08:38:31Z</time>
      </trkpt>
      <trkpt lat="42.8682730" lon="-8.5631850">
        <ele>216.4</ele>
        <time>2021-05-24T08:38:32Z</time>
      </trkpt>
      <trkpt lat="42.8682750" lon="-8.5631730">
        <ele>216.4</ele>
        <time>2021-05-24T08:38:33Z</time>
      </trkpt>
      <trkpt lat="42.8682840" lon="-8.5631590">
        <ele>216.4</ele>
        <time>2021-05-24T08:38:34Z</time>
      </trkpt>
      <trkpt lat="42.8682810" lon="-8.5631490">
        <ele>216.4</ele>
        <time>2021-05-24T08:38:35Z</time>
      </trkpt>
      <trkpt lat="42.8682830" lon="-8.5631300">
        <ele>216.3</ele>
        <time>2021-05-24T08:38:36Z</time>
      </trkpt>
      <trkpt lat="42.8682850" lon="-8.5631190">
        <ele>216.3</ele>
        <time>2021-05-24T08:38:37Z</time>
      </trkpt>
      <trkpt lat="42.8682850" lon="-8.5631040">
        <ele>216.3</ele>
        <time>2021-05-24T08:38:38Z</time>
      </trkpt>
      <trkpt lat="42.8682850" lon="-8.5630890">
        <ele>216.2</ele>
        <time>2021-05-24T08:38:39Z</time>
      </trkpt>
      <trkpt lat="42.8682850" lon="-8.5630740">
        <ele>216.2</ele>
        <time>2021-05-24T08:38:40Z</time>
      </trkpt>
      <trkpt lat="42.8682860" lon="-8.5630570">
        <ele>216.2</ele>
        <time>2021-05-24T08:38:41Z</time>
      </trkpt>
      <trkpt lat="42.8682930" lon="-8.5630310">
        <ele>216.1</ele>
        <time>2021-05-24T08:38:42Z</time>
      </trkpt>
      <trkpt lat="42.8682960" lon="-8.5630200">
        <ele>216.1</ele>
        <time>2021-05-24T08:38:43Z</time>
      </trkpt>
      <trkpt lat="42.8683000" lon="-8.5630090">
        <ele>216.1</ele>
        <time>2021-05-24T08:38:44Z</time>
      </trkpt>
      <trkpt lat="42.8683010" lon="-8.5629860">
        <ele>216.0</ele>
        <time>2021-05-24T08:38:45Z</time>
      </trkpt>
      <trkpt lat="42.8683020" lon="-8.5629690">
        <ele>216.0</ele>
        <time>2021-05-24T08:38:46Z</time>
      </trkpt>
      <trkpt lat="42.8683030" lon="-8.5629550">
        <ele>216.0</ele>
        <time>2021-05-24T08:38:47Z</time>
      </trkpt>
      <trkpt lat="42.8683070" lon="-8.5629410">
        <ele>215.9</ele>
        <time>2021-05-24T08:38:48Z</time>
      </trkpt>
      <trkpt lat="42.8683030" lon="-8.5629290">
        <ele>215.9</ele>
        <time>2021-05-24T08:38:49Z</time>
      </trkpt>
      <trkpt lat="42.8683140" lon="-8.5629110">
        <ele>215.9</ele>
        <time>2021-05-24T08:38:50Z</time>
      </trkpt>
      <trkpt lat="42.8683260" lon="-8.5628990">
        <ele>215.8</ele>
        <time>2021-05-24T08:38:51Z</time>
      </trkpt>
      <trkpt lat="42.8683260" lon="-8.5628940">
        <ele>215.8</ele>
        <time>2021-05-24T08:38:52Z</time>
      </trkpt>
      <trkpt lat="42.8683330" lon="-8.5628830">
        <ele>215.8</ele>
        <time>2021-05-24T08:38:53Z</time>
      </trkpt>
      <trkpt lat="42.8683420" lon="-8.5628730">
        <ele>215.7</ele>
        <time>2021-05-24T08:38:54Z</time>
      </trkpt>
      <trkpt lat="42.8683450" lon="-8.5628650">
        <ele>215.7</ele>
        <time>2021-05-24T08:38:55Z</time>
      </trkpt>
      <trkpt lat="42.8683520" lon="-8.5628580">
        <ele>215.7</ele>
        <time>2021-05-24T08:38:56Z</time>
      </trkpt>
      <trkpt lat="42.8683560" lon="-8.5628440">
        <ele>215.6</ele>
        <time>2021-05-24T08:38:57Z</time>
      </trkpt>
      <trkpt lat="42.8683620" lon="-8.5628250">
        <ele>215.5</ele>
        <time>2021-05-24T08:38:58Z</time>
      </trkpt>
      <trkpt lat="42.8683710" lon="-8.5628030">
        <ele>215.4</ele>
        <time>2021-05-24T08:38:59Z</time>
      </trkpt>
      <trkpt lat="42.8683740" lon="-8.5627890">
        <ele>215.4</ele>
        <time>2021-05-24T08:39:00Z</time>
      </trkpt>
      <trkpt lat="42.8683850" lon="-8.5627550">
        <ele>215.2</ele>
        <time>2021-05-24T08:39:01Z</time>
      </trkpt>
      <trkpt lat="42.8683900" lon="-8.5627410">
        <ele>215.2</ele>
        <time>2021-05-24T08:39:02Z</time>
      </trkpt>
      <trkpt lat="42.8683970" lon="-8.5627250">
        <ele>215.1</ele>
        <time>2021-05-24T08:39:03Z</time>
      </trkpt>
      <trkpt lat="42.8684120" lon="-8.5627110">
        <ele>215.0</ele>
        <time>2021-05-24T08:39:04Z</time>
      </trkpt>
      <trkpt lat="42.8684160" lon="-8.5626930">
        <ele>214.9</ele>
        <time>2021-05-24T08:39:05Z</time>
      </trkpt>
      <trkpt lat="42.8684250" lon="-8.5626770">
        <ele>214.8</ele>
        <time>2021-05-24T08:39:06Z</time>
      </trkpt>
      <trkpt lat="42.8684350" lon="-8.5626490">
        <ele>214.7</ele>
        <time>2021-05-24T08:39:07Z</time>
      </trkpt>
      <trkpt lat="42.8684400" lon="-8.5626400">
        <ele>214.7</ele>
        <time>2021-05-24T08:39:08Z</time>
      </trkpt>
      <trkpt lat="42.8684460" lon="-8.5626310">
        <ele>214.6</ele>
        <time>2021-05-24T08:39:09Z</time>
      </trkpt>
      <trkpt lat="42.8684510" lon="-8.5626250">
        <ele>214.6</ele>
        <time>2021-05-24T08:39:10Z</time>
      </trkpt>
      <trkpt lat="42.8684630" lon="-8.5626040">
        <ele>214.5</ele>
        <time>2021-05-24T08:39:11Z</time>
      </trkpt>
      <trkpt lat="42.8684700" lon="-8.5625980">
        <ele>214.2</ele>
        <time>2021-05-24T08:39:12Z</time>
      </trkpt>
      <trkpt lat="42.8684750" lon="-8.5625840">
        <ele>214.2</ele>
        <time>2021-05-24T08:39:13Z</time>
      </trkpt>
      <trkpt lat="42.8684840" lon="-8.5625630">
        <ele>214.2</ele>
        <time>2021-05-24T08:39:14Z</time>
      </trkpt>
      <trkpt lat="42.8684940" lon="-8.5625300">
        <ele>214.2</ele>
        <time>2021-05-24T08:39:15Z</time>
      </trkpt>
      <trkpt lat="42.8684970" lon="-8.5625200">
        <ele>214.2</ele>
        <time>2021-05-24T08:39:16Z</time>
      </trkpt>
      <trkpt lat="42.8685010" lon="-8.5625100">
        <ele>214.1</ele>
        <time>2021-05-24T08:39:17Z</time>
      </trkpt>
      <trkpt lat="42.8685070" lon="-8.5624930">
        <ele>214.0</ele>
        <time>2021-05-24T08:39:18Z</time>
      </trkpt>
      <trkpt lat="42.8685100" lon="-8.5624740">
        <ele>214.0</ele>
        <time>2021-05-24T08:39:19Z</time>
      </trkpt>
      <trkpt lat="42.8685150" lon="-8.5624560">
        <ele>214.0</ele>
        <time>2021-05-24T08:39:20Z</time>
      </trkpt>
      <trkpt lat="42.8685250" lon="-8.5624400">
        <ele>213.9</ele>
        <time>2021-05-24T08:39:21Z</time>
      </trkpt>
      <trkpt lat="42.8685350" lon="-8.5624250">
        <ele>213.9</ele>
        <time>2021-05-24T08:39:22Z</time>
      </trkpt>
      <trkpt lat="42.8685430" lon="-8.5624120">
        <ele>213.8</ele>
        <time>2021-05-24T08:39:23Z</time>
      </trkpt>
      <trkpt lat="42.8685510" lon="-8.5624010">
        <ele>213.8</ele>
        <time>2021-05-24T08:39:24Z</time>
      </trkpt>
      <trkpt lat="42.8685620" lon="-8.5623840">
        <ele>213.7</ele>
        <time>2021-05-24T08:39:25Z</time>
      </trkpt>
      <trkpt lat="42.8685700" lon="-8.5623640">
        <ele>213.7</ele>
        <time>2021-05-24T08:39:26Z</time>
      </trkpt>
      <trkpt lat="42.8685780" lon="-8.5623490">
        <ele>213.6</ele>
        <time>2021-05-24T08:39:27Z</time>
      </trkpt>
      <trkpt lat="42.8685860" lon="-8.5623360">
        <ele>213.6</ele>
        <time>2021-05-24T08:39:28Z</time>
      </trkpt>
      <trkpt lat="42.8685950" lon="-8.5623120">
        <ele>213.5</ele>
        <time>2021-05-24T08:39:29Z</time>
      </trkpt>
      <trkpt lat="42.8686010" lon="-8.5622950">
        <ele>213.5</ele>
        <time>2021-05-24T08:39:30Z</time>
      </trkpt>
      <trkpt lat="42.8686070" lon="-8.5622710">
        <ele>213.5</ele>
        <time>2021-05-24T08:39:31Z</time>
      </trkpt>
      <trkpt lat="42.8686190" lon="-8.5622490">
        <ele>213.4</ele>
        <time>2021-05-24T08:39:32Z</time>
      </trkpt>
      <trkpt lat="42.8686240" lon="-8.5622390">
        <ele>213.4</ele>
        <time>2021-05-24T08:39:33Z</time>
      </trkpt>
      <trkpt lat="42.8686280" lon="-8.5622280">
        <ele>213.4</ele>
        <time>2021-05-24T08:39:34Z</time>
      </trkpt>
      <trkpt lat="42.8686340" lon="-8.5622130">
        <ele>213.3</ele>
        <time>2021-05-24T08:39:35Z</time>
      </trkpt>
      <trkpt lat="42.8686380" lon="-8.5621980">
        <ele>213.3</ele>
        <time>2021-05-24T08:39:36Z</time>
      </trkpt>
      <trkpt lat="42.8686450" lon="-8.5621860">
        <ele>213.3</ele>
        <time>2021-05-24T08:39:37Z</time>
      </trkpt>
      <trkpt lat="42.8686450" lon="-8.5621650">
        <ele>213.2</ele>
        <time>2021-05-24T08:39:38Z</time>
      </trkpt>
      <trkpt lat="42.8686530" lon="-8.5621560">
        <ele>213.2</ele>
        <time>2021-05-24T08:39:39Z</time>
      </trkpt>
      <trkpt lat="42.8686620" lon="-8.5621440">
        <ele>213.2</ele>
        <time>2021-05-24T08:39:40Z</time>
      </trkpt>
      <trkpt lat="42.8686740" lon="-8.5621110">
        <ele>213.1</ele>
        <time>2021-05-24T08:39:41Z</time>
      </trkpt>
      <trkpt lat="42.8686770" lon="-8.5620970">
        <ele>213.1</ele>
        <time>2021-05-24T08:39:42Z</time>
      </trkpt>
      <trkpt lat="42.8686880" lon="-8.5620720">
        <ele>213.1</ele>
        <time>2021-05-24T08:39:43Z</time>
      </trkpt>
      <trkpt lat="42.8686910" lon="-8.5620600">
        <ele>213.1</ele>
        <time>2021-05-24T08:39:44Z</time>
      </trkpt>
      <trkpt lat="42.8686930" lon="-8.5620480">
        <ele>213.1</ele>
        <time>2021-05-24T08:39:45Z</time>
      </trkpt>
      <trkpt lat="42.8687030" lon="-8.5620350">
        <ele>213.1</ele>
        <time>2021-05-24T08:39:46Z</time>
      </trkpt>
      <trkpt lat="42.8687080" lon="-8.5620170">
        <ele>213.0</ele>
        <time>2021-05-24T08:39:47Z</time>
      </trkpt>
      <trkpt lat="42.8687160" lon="-8.5619980">
        <ele>213.0</ele>
        <time>2021-05-24T08:39:48Z</time>
      </trkpt>
      <trkpt lat="42.8687260" lon="-8.5619810">
        <ele>213.0</ele>
        <time>2021-05-24T08:39:49Z</time>
      </trkpt>
      <trkpt lat="42.8687340" lon="-8.5619740">
        <ele>213.0</ele>
        <time>2021-05-24T08:39:50Z</time>
      </trkpt>
      <trkpt lat="42.8687470" lon="-8.5619560">
        <ele>213.0</ele>
        <time>2021-05-24T08:39:51Z</time>
      </trkpt>
      <trkpt lat="42.8687530" lon="-8.5619480">
        <ele>212.9</ele>
        <time>2021-05-24T08:39:52Z</time>
      </trkpt>
      <trkpt lat="42.8687620" lon="-8.5619390">
        <ele>212.9</ele>
        <time>2021-05-24T08:39:53Z</time>
      </trkpt>
      <trkpt lat="42.8687750" lon="-8.5619380">
        <ele>212.9</ele>
        <time>2021-05-24T08:39:54Z</time>
      </trkpt>
      <trkpt lat="42.8687840" lon="-8.5619240">
        <ele>212.9</ele>
        <time>2021-05-24T08:39:55Z</time>
      </trkpt>
      <trkpt lat="42.8687900" lon="-8.5619200">
        <ele>212.9</ele>
        <time>2021-05-24T08:39:56Z</time>
      </trkpt>
      <trkpt lat="42.8687970" lon="-8.5619060">
        <ele>212.9</ele>
        <time>2021-05-24T08:39:57Z</time>
      </trkpt>
      <trkpt lat="42.8688050" lon="-8.5618980">
        <ele>212.9</ele>
        <time>2021-05-24T08:39:58Z</time>
      </trkpt>
      <trkpt lat="42.8688100" lon="-8.5618890">
        <ele>212.8</ele>
        <time>2021-05-24T08:39:59Z</time>
      </trkpt>
      <trkpt lat="42.8688140" lon="-8.5618760">
        <ele>212.8</ele>
        <time>2021-05-24T08:40:00Z</time>
      </trkpt>
      <trkpt lat="42.8688280" lon="-8.5618590">
        <ele>212.8</ele>
        <time>2021-05-24T08:40:01Z</time>
      </trkpt>
      <trkpt lat="42.8688350" lon="-8.5618500">
        <ele>212.8</ele>
        <time>2021-05-24T08:40:02Z</time>
      </trkpt>
      <trkpt lat="42.8688430" lon="-8.5618410">
        <ele>212.8</ele>
        <time>2021-05-24T08:40:03Z</time>
      </trkpt>
      <trkpt lat="42.8688550" lon="-8.5618390">
        <ele>212.8</ele>
        <time>2021-05-24T08:40:04Z</time>
      </trkpt>
      <trkpt lat="42.8688640" lon="-8.5618290">
        <ele>212.8</ele>
        <time>2021-05-24T08:40:05Z</time>
      </trkpt>
      <trkpt lat="42.8688690" lon="-8.5618270">
        <ele>212.7</ele>
        <time>2021-05-24T08:40:06Z</time>
      </trkpt>
      <trkpt lat="42.8688740" lon="-8.5618150">
        <ele>212.7</ele>
        <time>2021-05-24T08:40:07Z</time>
      </trkpt>
      <trkpt lat="42.8688790" lon="-8.5618020">
        <ele>212.7</ele>
        <time>2021-05-24T08:40:08Z</time>
      </trkpt>
      <trkpt lat="42.8688850" lon="-8.5617930">
        <ele>212.7</ele>
        <time>2021-05-24T08:40:09Z</time>
      </trkpt>
      <trkpt lat="42.8688980" lon="-8.5617730">
        <ele>212.7</ele>
        <time>2021-05-24T08:40:10Z</time>
      </trkpt>
      <trkpt lat="42.8689100" lon="-8.5617660">
        <ele>212.7</ele>
        <time>2021-05-24T08:40:11Z</time>
      </trkpt>
      <trkpt lat="42.8689210" lon="-8.5617530">
        <ele>212.7</ele>
        <time>2021-05-24T08:40:12Z</time>
      </trkpt>
      <trkpt lat="42.8689210" lon="-8.5617480">
        <ele>212.7</ele>
        <time>2021-05-24T08:40:13Z</time>
      </trkpt>
      <trkpt lat="42.8689250" lon="-8.5617340">
        <ele>212.6</ele>
        <time>2021-05-24T08:40:14Z</time>
      </trkpt>
      <trkpt lat="42.8689370" lon="-8.5617220">
        <ele>212.6</ele>
        <time>2021-05-24T08:40:15Z</time>
      </trkpt>
      <trkpt lat="42.8689440" lon="-8.5617040">
        <ele>212.6</ele>
        <time>2021-05-24T08:40:16Z</time>
      </trkpt>
      <trkpt lat="42.8689580" lon="-8.5616800">
        <ele>212.6</ele>
        <time>2021-05-24T08:40:17Z</time>
      </trkpt>
      <trkpt lat="42.8689640" lon="-8.5616670">
        <ele>212.6</ele>
        <time>2021-05-24T08:40:18Z</time>
      </trkpt>
      <trkpt lat="42.8689700" lon="-8.5616550">
        <ele>212.6</ele>
        <time>2021-05-24T08:40:19Z</time>
      </trkpt>
      <trkpt lat="42.8689680" lon="-8.5616430">
        <ele>212.6</ele>
        <time>2021-05-24T08:40:20Z</time>
      </trkpt>
      <trkpt lat="42.8689780" lon="-8.5616300">
        <ele>212.6</ele>
        <time>2021-05-24T08:40:21Z</time>
      </trkpt>
      <trkpt lat="42.8689840" lon="-8.5616150">
        <ele>212.5</ele>
        <time>2021-05-24T08:40:22Z</time>
      </trkpt>
      <trkpt lat="42.8689860" lon="-8.5615990">
        <ele>212.5</ele>
        <time>2021-05-24T08:40:23Z</time>
      </trkpt>
      <trkpt lat="42.8689910" lon="-8.5615940">
        <ele>212.5</ele>
        <time>2021-05-24T08:40:24Z</time>
      </trkpt>
      <trkpt lat="42.8689910" lon="-8.5615990">
        <ele>212.5</ele>
        <time>2021-05-24T08:40:25Z</time>
      </trkpt>
      <trkpt lat="42.8689910" lon="-8.5616040">
        <ele>212.5</ele>
        <time>2021-05-24T08:40:26Z</time>
      </trkpt>
      <trkpt lat="42.8689910" lon="-8.5616060">
        <ele>212.5</ele>
        <time>2021-05-24T08:40:27Z</time>
      </trkpt>
      <trkpt lat="42.8689920" lon="-8.5616060">
        <ele>212.5</ele>
        <time>2021-05-24T08:40:28Z</time>
      </trkpt>
      <trkpt lat="42.8689950" lon="-8.5616100">
        <ele>212.5</ele>
        <time>2021-05-24T08:40:29Z</time>
      </trkpt>
      <trkpt lat="42.8689980" lon="-8.5616110">
        <ele>212.5</ele>
        <time>2021-05-24T08:40:30Z</time>
      </trkpt>
      <trkpt lat="42.8690000" lon="-8.5616160">
        <ele>212.5</ele>
        <time>2021-05-24T08:40:31Z</time>
      </trkpt>
      <trkpt lat="42.8690010" lon="-8.5616170">
        <ele>212.5</ele>
        <time>2021-05-24T08:40:32Z</time>
      </trkpt>
      <trkpt lat="42.8690000" lon="-8.5616170">
        <ele>212.5</ele>
        <time>2021-05-24T08:40:33Z</time>
      </trkpt>
      <trkpt lat="42.8690000" lon="-8.5616200">
        <ele>212.5</ele>
        <time>2021-05-24T08:40:34Z</time>
      </trkpt>
      <trkpt lat="42.8690010" lon="-8.5616210">
        <ele>212.5</ele>
        <time>2021-05-24T08:40:35Z</time>
      </trkpt>
      <trkpt lat="42.8690010" lon="-8.5616210">
        <ele>212.5</ele>
        <time>2021-05-24T08:40:36Z</time>
      </trkpt>
      <trkpt lat="42.8690020" lon="-8.5616230">
        <ele>212.5</ele>
        <time>2021-05-24T08:40:37Z</time>
      </trkpt>
      <trkpt lat="42.8690050" lon="-8.5616310">
        <ele>212.5</ele>
        <time>2021-05-24T08:40:38Z</time>
      </trkpt>
      <trkpt lat="42.8690080" lon="-8.5616330">
        <ele>212.5</ele>
        <time>2021-05-24T08:40:39Z</time>
      </trkpt>
      <trkpt lat="42.8690120" lon="-8.5616360">
        <ele>212.5</ele>
        <time>2021-05-24T08:40:40Z</time>
      </trkpt>
      <trkpt lat="42.8690130" lon="-8.5616360">
        <ele>212.5</ele>
        <time>2021-05-24T08:40:41Z</time>
      </trkpt>
      <trkpt lat="42.8690140" lon="-8.5616360">
        <ele>212.5</ele>
        <time>2021-05-24T08:40:42Z</time>
      </trkpt>
      <trkpt lat="42.8690150" lon="-8.5616360">
        <ele>212.5</ele>
        <time>2021-05-24T08:40:43Z</time>
      </trkpt>
      <trkpt lat="42.8690160" lon="-8.5616360">
        <ele>212.5</ele>
        <time>2021-05-24T08:40:44Z</time>
      </trkpt>
      <trkpt lat="42.8690160" lon="-8.5616360">
        <ele>212.5</ele>
        <time>2021-05-24T08:40:45Z</time>
      </trkpt>
      <trkpt lat="42.8690170" lon="-8.5616360">
        <ele>212.5</ele>
        <time>2021-05-24T08:40:46Z</time>
      </trkpt>
      <trkpt lat="42.8690180" lon="-8.5616360">
        <ele>212.5</ele>
        <time>2021-05-24T08:40:47Z</time>
      </trkpt>
      <trkpt lat="42.8690190" lon="-8.5616360">
        <ele>212.5</ele>
        <time>2021-05-24T08:40:48Z</time>
      </trkpt>
      <trkpt lat="42.8690200" lon="-8.5616360">
        <ele>212.5</ele>
        <time>2021-05-24T08:40:49Z</time>
      </trkpt>
      <trkpt lat="42.8690210" lon="-8.5616370">
        <ele>212.5</ele>
        <time>2021-05-24T08:40:50Z</time>
      </trkpt>
      <trkpt lat="42.8690220" lon="-8.5616370">
        <ele>212.5</ele>
        <time>2021-05-24T08:40:51Z</time>
      </trkpt>
      <trkpt lat="42.8690230" lon="-8.5616370">
        <ele>212.5</ele>
        <time>2021-05-24T08:40:52Z</time>
      </trkpt>
      <trkpt lat="42.8690240" lon="-8.5616370">
        <ele>212.5</ele>
        <time>2021-05-24T08:40:53Z</time>
      </trkpt>
      <trkpt lat="42.8690250" lon="-8.5616370">
        <ele>212.5</ele>
        <time>2021-05-24T08:40:54Z</time>
      </trkpt>
      <trkpt lat="42.8690250" lon="-8.5616370">
        <ele>212.5</ele>
        <time>2021-05-24T08:40:55Z</time>
      </trkpt>
      <trkpt lat="42.8690260" lon="-8.5616370">
        <ele>212.5</ele>
        <time>2021-05-24T08:40:56Z</time>
      </trkpt>
      <trkpt lat="42.8690270" lon="-8.5616370">
        <ele>212.5</ele>
        <time>2021-05-24T08:40:57Z</time>
      </trkpt>
      <trkpt lat="42.8690280" lon="-8.5616370">
        <ele>212.5</ele>
        <time>2021-05-24T08:40:58Z</time>
      </trkpt>
      <trkpt lat="42.8690290" lon="-8.5616370">
        <ele>212.5</ele>
        <time>2021-05-24T08:40:59Z</time>
      </trkpt>
      <trkpt lat="42.8690300" lon="-8.5616370">
        <ele>212.5</ele>
        <time>2021-05-24T08:41:00Z</time>
      </trkpt>
      <trkpt lat="42.8690310" lon="-8.5616370">
        <ele>212.5</ele>
        <time>2021-05-24T08:41:01Z</time>
      </trkpt>
      <trkpt lat="42.8690320" lon="-8.5616370">
        <ele>212.5</ele>
        <time>2021-05-24T08:41:02Z</time>
      </trkpt>
      <trkpt lat="42.8690330" lon="-8.5616370">
        <ele>212.5</ele>
        <time>2021-05-24T08:41:03Z</time>
      </trkpt>
      <trkpt lat="42.8690340" lon="-8.5616370">
        <ele>212.5</ele>
        <time>2021-05-24T08:41:04Z</time>
      </trkpt>
      <trkpt lat="42.8690340" lon="-8.5616370">
        <ele>212.5</ele>
        <time>2021-05-24T08:41:05Z</time>
      </trkpt>
      <trkpt lat="42.8690350" lon="-8.5616370">
        <ele>212.5</ele>
        <time>2021-05-24T08:41:06Z</time>
      </trkpt>
      <trkpt lat="42.8690360" lon="-8.5616370">
        <ele>212.5</ele>
        <time>2021-05-24T08:41:07Z</time>
      </trkpt>
      <trkpt lat="42.8690370" lon="-8.5616370">
        <ele>212.5</ele>
        <time>2021-05-24T08:41:08Z</time>
      </trkpt>
      <trkpt lat="42.8690380" lon="-8.5616370">
        <ele>212.5</ele>
        <time>2021-05-24T08:41:09Z</time>
      </trkpt>
      <trkpt lat="42.8690390" lon="-8.5616380">
        <ele>212.5</ele>
        <time>2021-05-24T08:41:10Z</time>
      </trkpt>
      <trkpt lat="42.8690400" lon="-8.5616380">
        <ele>212.5</ele>
        <time>2021-05-24T08:41:11Z</time>
      </trkpt>
      <trkpt lat="42.8690410" lon="-8.5616380">
        <ele>212.5</ele>
        <time>2021-05-24T08:41:12Z</time>
      </trkpt>
      <trkpt lat="42.8690420" lon="-8.5616380">
        <ele>212.5</ele>
        <time>2021-05-24T08:41:13Z</time>
      </trkpt>
      <trkpt lat="42.8690430" lon="-8.5616380">
        <ele>212.5</ele>
        <time>2021-05-24T08:41:14Z</time>
      </trkpt>
      <trkpt lat="42.8690430" lon="-8.5616380">
        <ele>212.5</ele>
        <time>2021-05-24T08:41:15Z</time>
      </trkpt>
      <trkpt lat="42.8690440" lon="-8.5616380">
        <ele>212.5</ele>
        <time>2021-05-24T08:41:16Z</time>
      </trkpt>
      <trkpt lat="42.8690450" lon="-8.5616380">
        <ele>212.5</ele>
        <time>2021-05-24T08:41:17Z</time>
      </trkpt>
      <trkpt lat="42.8690460" lon="-8.5616380">
        <ele>212.5</ele>
        <time>2021-05-24T08:41:18Z</time>
      </trkpt>
      <trkpt lat="42.8690470" lon="-8.5616380">
        <ele>212.5</ele>
        <time>2021-05-24T08:41:19Z</time>
      </trkpt>
      <trkpt lat="42.8690480" lon="-8.5616380">
        <ele>212.5</ele>
        <time>2021-05-24T08:41:20Z</time>
      </trkpt>
      <trkpt lat="42.8690500" lon="-8.5616340">
        <ele>212.5</ele>
        <time>2021-05-24T08:41:21Z</time>
      </trkpt>
      <trkpt lat="42.8690550" lon="-8.5616250">
        <ele>212.5</ele>
        <time>2021-05-24T08:41:22Z</time>
      </trkpt>
      <trkpt lat="42.8690590" lon="-8.5616220">
        <ele>212.5</ele>
        <time>2021-05-24T08:41:23Z</time>
      </trkpt>
      <trkpt lat="42.8690620" lon="-8.5616400">
        <ele>212.5</ele>
        <time>2021-05-24T08:41:24Z</time>
      </trkpt>
      <trkpt lat="42.8690630" lon="-8.5616440">
        <ele>212.5</ele>
        <time>2021-05-24T08:41:25Z</time>
      </trkpt>
      <trkpt lat="42.8690670" lon="-8.5616500">
        <ele>212.5</ele>
        <time>2021-05-24T08:41:26Z</time>
      </trkpt>
      <trkpt lat="42.8690670" lon="-8.5616540">
        <ele>212.5</ele>
        <time>2021-05-24T08:41:27Z</time>
      </trkpt>
      <trkpt lat="42.8690670" lon="-8.5616550">
        <ele>212.5</ele>
        <time>2021-05-24T08:41:28Z</time>
      </trkpt>
      <trkpt lat="42.8690640" lon="-8.5616640">
        <ele>212.5</ele>
        <time>2021-05-24T08:41:29Z</time>
      </trkpt>
      <trkpt lat="42.8690610" lon="-8.5616670">
        <ele>212.5</ele>
        <time>2021-05-24T08:41:30Z</time>
      </trkpt>
      <trkpt lat="42.8690600" lon="-8.5616740">
        <ele>212.5</ele>
        <time>2021-05-24T08:41:31Z</time>
      </trkpt>
      <trkpt lat="42.8690600" lon="-8.5616730">
        <ele>212.5</ele>
        <time>2021-05-24T08:41:32Z</time>
      </trkpt>
      <trkpt lat="42.8690600" lon="-8.5616730">
        <ele>212.5</ele>
        <time>2021-05-24T08:41:33Z</time>
      </trkpt>
      <trkpt lat="42.8690600" lon="-8.5616720">
        <ele>212.5</ele>
        <time>2021-05-24T08:41:34Z</time>
      </trkpt>
      <trkpt lat="42.8690600" lon="-8.5616720">
        <ele>212.5</ele>
        <time>2021-05-24T08:41:35Z</time>
      </trkpt>
      <trkpt lat="42.8690600" lon="-8.5616720">
        <ele>212.5</ele>
        <time>2021-05-24T08:41:36Z</time>
      </trkpt>
      <trkpt lat="42.8690600" lon="-8.5616720">
        <ele>212.5</ele>
        <time>2021-05-24T08:41:37Z</time>
      </trkpt>
      <trkpt lat="42.8690590" lon="-8.5616710">
        <ele>212.5</ele>
        <time>2021-05-24T08:41:38Z</time>
      </trkpt>
      <trkpt lat="42.8690590" lon="-8.5616710">
        <ele>212.5</ele>
        <time>2021-05-24T08:41:39Z</time>
      </trkpt>
      <trkpt lat="42.8690590" lon="-8.5616710">
        <ele>212.5</ele>
        <time>2021-05-24T08:41:40Z</time>
      </trkpt>
      <trkpt lat="42.8690590" lon="-8.5616710">
        <ele>212.5</ele>
        <time>2021-05-24T08:41:41Z</time>
      </trkpt>
      <trkpt lat="42.8690590" lon="-8.5616710">
        <ele>212.5</ele>
        <time>2021-05-24T08:41:42Z</time>
      </trkpt>
      <trkpt lat="42.8690590" lon="-8.5616700">
        <ele>212.5</ele>
        <time>2021-05-24T08:41:43Z</time>
      </trkpt>
      <trkpt lat="42.8690590" lon="-8.5616700">
        <ele>212.5</ele>
        <time>2021-05-24T08:41:44Z</time>
      </trkpt>
      <trkpt lat="42.8690590" lon="-8.5616700">
        <ele>212.5</ele>
        <time>2021-05-24T08:41:45Z</time>
      </trkpt>
      <trkpt lat="42.8690590" lon="-8.5616700">
        <ele>212.5</ele>
        <time>2021-05-24T08:41:46Z</time>
      </trkpt>
      <trkpt lat="42.8690590" lon="-8.5616690">
        <ele>212.5</ele>
        <time>2021-05-24T08:41:47Z</time>
      </trkpt>
      <trkpt lat="42.8690590" lon="-8.5616690">
        <ele>212.5</ele>
        <time>2021-05-24T08:41:48Z</time>
      </trkpt>
      <trkpt lat="42.8690590" lon="-8.5616690">
        <ele>212.5</ele>
        <time>2021-05-24T08:41:49Z</time>
      </trkpt>
      <trkpt lat="42.8690590" lon="-8.5616690">
        <ele>212.5</ele>
        <time>2021-05-24T08:41:50Z</time>
      </trkpt>
      <trkpt lat="42.8690580" lon="-8.5616690">
        <ele>212.5</ele>
        <time>2021-05-24T08:41:51Z</time>
      </trkpt>
      <trkpt lat="42.8690580" lon="-8.5616680">
        <ele>212.5</ele>
        <time>2021-05-24T08:41:52Z</time>
      </trkpt>
      <trkpt lat="42.8690580" lon="-8.5616680">
        <ele>212.5</ele>
        <time>2021-05-24T08:41:53Z</time>
      </trkpt>
      <trkpt lat="42.8690580" lon="-8.5616680">
        <ele>212.5</ele>
        <time>2021-05-24T08:41:54Z</time>
      </trkpt>
      <trkpt lat="42.8690580" lon="-8.5616680">
        <ele>212.5</ele>
        <time>2021-05-24T08:41:55Z</time>
      </trkpt>
      <trkpt lat="42.8690580" lon="-8.5616670">
        <ele>212.5</ele>
        <time>2021-05-24T08:41:56Z</time>
      </trkpt>
      <trkpt lat="42.8690580" lon="-8.5616670">
        <ele>212.5</ele>
        <time>2021-05-24T08:41:57Z</time>
      </trkpt>
      <trkpt lat="42.8690580" lon="-8.5616670">
        <ele>212.5</ele>
        <time>2021-05-24T08:41:58Z</time>
      </trkpt>
      <trkpt lat="42.8690580" lon="-8.5616670">
        <ele>212.5</ele>
        <time>2021-05-24T08:41:59Z</time>
      </trkpt>
      <trkpt lat="42.8690580" lon="-8.5616660">
        <ele>212.5</ele>
        <time>2021-05-24T08:42:00Z</time>
      </trkpt>
      <trkpt lat="42.8690580" lon="-8.5616660">
        <ele>212.5</ele>
        <time>2021-05-24T08:42:01Z</time>
      </trkpt>
      <trkpt lat="42.8690580" lon="-8.5616660">
        <ele>212.5</ele>
        <time>2021-05-24T08:42:02Z</time>
      </trkpt>
      <trkpt lat="42.8690580" lon="-8.5616660">
        <ele>212.5</ele>
        <time>2021-05-24T08:42:03Z</time>
      </trkpt>
      <trkpt lat="42.8690570" lon="-8.5616660">
        <ele>212.5</ele>
        <time>2021-05-24T08:42:04Z</time>
      </trkpt>
      <trkpt lat="42.8690570" lon="-8.5616650">
        <ele>212.5</ele>
        <time>2021-05-24T08:42:05Z</time>
      </trkpt>
      <trkpt lat="42.8690570" lon="-8.5616650">
        <ele>212.5</ele>
        <time>2021-05-24T08:42:06Z</time>
      </trkpt>
      <trkpt lat="42.8690570" lon="-8.5616650">
        <ele>212.5</ele>
        <time>2021-05-24T08:42:07Z</time>
      </trkpt>
      <trkpt lat="42.8690570" lon="-8.5616650">
        <ele>212.5</ele>
        <time>2021-05-24T08:42:08Z</time>
      </trkpt>
      <trkpt lat="42.8690570" lon="-8.5616640">
        <ele>212.5</ele>
        <time>2021-05-24T08:42:09Z</time>
      </trkpt>
      <trkpt lat="42.8690570" lon="-8.5616640">
        <ele>212.5</ele>
        <time>2021-05-24T08:42:10Z</time>
      </trkpt>
      <trkpt lat="42.8690570" lon="-8.5616640">
        <ele>212.5</ele>
        <time>2021-05-24T08:42:11Z</time>
      </trkpt>
      <trkpt lat="42.8690570" lon="-8.5616640">
        <ele>212.5</ele>
        <time>2021-05-24T08:42:12Z</time>
      </trkpt>
      <trkpt lat="42.8690570" lon="-8.5616640">
        <ele>212.6</ele>
        <time>2021-05-24T08:42:13Z</time>
      </trkpt>
      <trkpt lat="42.8690570" lon="-8.5616630">
        <ele>212.6</ele>
        <time>2021-05-24T08:42:14Z</time>
      </trkpt>
      <trkpt lat="42.8690570" lon="-8.5616630">
        <ele>212.6</ele>
        <time>2021-05-24T08:42:15Z</time>
      </trkpt>
      <trkpt lat="42.8690570" lon="-8.5616630">
        <ele>212.6</ele>
        <time>2021-05-24T08:42:16Z</time>
      </trkpt>
      <trkpt lat="42.8690560" lon="-8.5616630">
        <ele>212.6</ele>
        <time>2021-05-24T08:42:17Z</time>
      </trkpt>
      <trkpt lat="42.8690560" lon="-8.5616620">
        <ele>212.6</ele>
        <time>2021-05-24T08:42:18Z</time>
      </trkpt>
      <trkpt lat="42.8690560" lon="-8.5616620">
        <ele>212.6</ele>
        <time>2021-05-24T08:42:19Z</time>
      </trkpt>
      <trkpt lat="42.8690560" lon="-8.5616620">
        <ele>212.6</ele>
        <time>2021-05-24T08:42:20Z</time>
      </trkpt>
      <trkpt lat="42.8690560" lon="-8.5616620">
        <ele>212.6</ele>
        <time>2021-05-24T08:42:21Z</time>
      </trkpt>
      <trkpt lat="42.8690560" lon="-8.5616620">
        <ele>212.6</ele>
        <time>2021-05-24T08:42:22Z</time>
      </trkpt>
      <trkpt lat="42.8690560" lon="-8.5616610">
        <ele>212.6</ele>
        <time>2021-05-24T08:42:23Z</time>
      </trkpt>
      <trkpt lat="42.8690560" lon="-8.5616610">
        <ele>212.6</ele>
        <time>2021-05-24T08:42:24Z</time>
      </trkpt>
      <trkpt lat="42.8690560" lon="-8.5616610">
        <ele>212.6</ele>
        <time>2021-05-24T08:42:25Z</time>
      </trkpt>
      <trkpt lat="42.8690560" lon="-8.5616610">
        <ele>212.6</ele>
        <time>2021-05-24T08:42:26Z</time>
      </trkpt>
      <trkpt lat="42.8690560" lon="-8.5616600">
        <ele>212.6</ele>
        <time>2021-05-24T08:42:27Z</time>
      </trkpt>
      <trkpt lat="42.8690560" lon="-8.5616600">
        <ele>212.6</ele>
        <time>2021-05-24T08:42:28Z</time>
      </trkpt>
      <trkpt lat="42.8690560" lon="-8.5616600">
        <ele>212.6</ele>
        <time>2021-05-24T08:42:29Z</time>
      </trkpt>
      <trkpt lat="42.8690560" lon="-8.5616600">
        <ele>212.6</ele>
        <time>2021-05-24T08:42:30Z</time>
      </trkpt>
      <trkpt lat="42.8690550" lon="-8.5616600">
        <ele>212.6</ele>
        <time>2021-05-24T08:42:31Z</time>
      </trkpt>
      <trkpt lat="42.8690550" lon="-8.5616590">
        <ele>212.6</ele>
        <time>2021-05-24T08:42:32Z</time>
      </trkpt>
      <trkpt lat="42.8690550" lon="-8.5616590">
        <ele>212.6</ele>
        <time>2021-05-24T08:42:33Z</time>
      </trkpt>
      <trkpt lat="42.8690550" lon="-8.5616590">
        <ele>212.6</ele>
        <time>2021-05-24T08:42:34Z</time>
      </trkpt>
      <trkpt lat="42.8690550" lon="-8.5616590">
        <ele>212.6</ele>
        <time>2021-05-24T08:42:35Z</time>
      </trkpt>
      <trkpt lat="42.8690550" lon="-8.5616580">
        <ele>212.6</ele>
        <time>2021-05-24T08:42:36Z</time>
      </trkpt>
      <trkpt lat="42.8690550" lon="-8.5616580">
        <ele>212.6</ele>
        <time>2021-05-24T08:42:37Z</time>
      </trkpt>
      <trkpt lat="42.8690550" lon="-8.5616580">
        <ele>212.6</ele>
        <time>2021-05-24T08:42:38Z</time>
      </trkpt>
      <trkpt lat="42.8690550" lon="-8.5616580">
        <ele>212.6</ele>
        <time>2021-05-24T08:42:39Z</time>
      </trkpt>
      <trkpt lat="42.8690550" lon="-8.5616580">
        <ele>212.6</ele>
        <time>2021-05-24T08:42:40Z</time>
      </trkpt>
      <trkpt lat="42.8690550" lon="-8.5616570">
        <ele>212.6</ele>
        <time>2021-05-24T08:42:41Z</time>
      </trkpt>
      <trkpt lat="42.8690550" lon="-8.5616570">
        <ele>212.6</ele>
        <time>2021-05-24T08:42:42Z</time>
      </trkpt>
      <trkpt lat="42.8690550" lon="-8.5616570">
        <ele>212.6</ele>
        <time>2021-05-24T08:42:43Z</time>
      </trkpt>
      <trkpt lat="42.8690540" lon="-8.5616570">
        <ele>212.6</ele>
        <time>2021-05-24T08:42:44Z</time>
      </trkpt>
      <trkpt lat="42.8690540" lon="-8.5616560">
        <ele>212.6</ele>
        <time>2021-05-24T08:42:45Z</time>
      </trkpt>
      <trkpt lat="42.8690540" lon="-8.5616560">
        <ele>212.6</ele>
        <time>2021-05-24T08:42:46Z</time>
      </trkpt>
      <trkpt lat="42.8690540" lon="-8.5616560">
        <ele>212.6</ele>
        <time>2021-05-24T08:42:47Z</time>
      </trkpt>
      <trkpt lat="42.8690540" lon="-8.5616560">
        <ele>212.6</ele>
        <time>2021-05-24T08:42:48Z</time>
      </trkpt>
      <trkpt lat="42.8690540" lon="-8.5616560">
        <ele>212.6</ele>
        <time>2021-05-24T08:42:49Z</time>
      </trkpt>
      <trkpt lat="42.8690540" lon="-8.5616550">
        <ele>212.6</ele>
        <time>2021-05-24T08:42:50Z</time>
      </trkpt>
      <trkpt lat="42.8690540" lon="-8.5616550">
        <ele>212.6</ele>
        <time>2021-05-24T08:42:51Z</time>
      </trkpt>
      <trkpt lat="42.8690540" lon="-8.5616550">
        <ele>212.6</ele>
        <time>2021-05-24T08:42:52Z</time>
      </trkpt>
      <trkpt lat="42.8690540" lon="-8.5616550">
        <ele>212.6</ele>
        <time>2021-05-24T08:42:53Z</time>
      </trkpt>
      <trkpt lat="42.8690540" lon="-8.5616540">
        <ele>212.6</ele>
        <time>2021-05-24T08:42:54Z</time>
      </trkpt>
      <trkpt lat="42.8690540" lon="-8.5616540">
        <ele>212.6</ele>
        <time>2021-05-24T08:42:55Z</time>
      </trkpt>
      <trkpt lat="42.8690540" lon="-8.5616540">
        <ele>212.6</ele>
        <time>2021-05-24T08:42:56Z</time>
      </trkpt>
      <trkpt lat="42.8690530" lon="-8.5616540">
        <ele>212.6</ele>
        <time>2021-05-24T08:42:57Z</time>
      </trkpt>
      <trkpt lat="42.8690530" lon="-8.5616530">
        <ele>212.6</ele>
        <time>2021-05-24T08:42:58Z</time>
      </trkpt>
      <trkpt lat="42.8690530" lon="-8.5616530">
        <ele>212.6</ele>
        <time>2021-05-24T08:42:59Z</time>
      </trkpt>
      <trkpt lat="42.8690530" lon="-8.5616530">
        <ele>212.6</ele>
        <time>2021-05-24T08:43:00Z</time>
      </trkpt>
      <trkpt lat="42.8690530" lon="-8.5616530">
        <ele>212.6</ele>
        <time>2021-05-24T08:43:01Z</time>
      </trkpt>
      <trkpt lat="42.8690530" lon="-8.5616530">
        <ele>212.6</ele>
        <time>2021-05-24T08:43:02Z</time>
      </trkpt>
      <trkpt lat="42.8690530" lon="-8.5616520">
        <ele>212.6</ele>
        <time>2021-05-24T08:43:03Z</time>
      </trkpt>
      <trkpt lat="42.8690530" lon="-8.5616520">
        <ele>212.6</ele>
        <time>2021-05-24T08:43:04Z</time>
      </trkpt>
      <trkpt lat="42.8690530" lon="-8.5616520">
        <ele>212.6</ele>
        <time>2021-05-24T08:43:05Z</time>
      </trkpt>
      <trkpt lat="42.8690530" lon="-8.5616520">
        <ele>212.6</ele>
        <time>2021-05-24T08:43:06Z</time>
      </trkpt>
      <trkpt lat="42.8690530" lon="-8.5616510">
        <ele>212.6</ele>
        <time>2021-05-24T08:43:07Z</time>
      </trkpt>
      <trkpt lat="42.8690530" lon="-8.5616510">
        <ele>212.6</ele>
        <time>2021-05-24T08:43:08Z</time>
      </trkpt>
      <trkpt lat="42.8690530" lon="-8.5616510">
        <ele>212.6</ele>
        <time>2021-05-24T08:43:09Z</time>
      </trkpt>
      <trkpt lat="42.8690520" lon="-8.5616510">
        <ele>212.6</ele>
        <time>2021-05-24T08:43:10Z</time>
      </trkpt>
      <trkpt lat="42.8690520" lon="-8.5616510">
        <ele>212.6</ele>
        <time>2021-05-24T08:43:11Z</time>
      </trkpt>
      <trkpt lat="42.8690520" lon="-8.5616500">
        <ele>212.6</ele>
        <time>2021-05-24T08:43:12Z</time>
      </trkpt>
      <trkpt lat="42.8690520" lon="-8.5616500">
        <ele>212.6</ele>
        <time>2021-05-24T08:43:13Z</time>
      </trkpt>
      <trkpt lat="42.8690520" lon="-8.5616500">
        <ele>212.6</ele>
        <time>2021-05-24T08:43:14Z</time>
      </trkpt>
      <trkpt lat="42.8690520" lon="-8.5616500">
        <ele>212.6</ele>
        <time>2021-05-24T08:43:15Z</time>
      </trkpt>
      <trkpt lat="42.8690520" lon="-8.5616490">
        <ele>212.6</ele>
        <time>2021-05-24T08:43:16Z</time>
      </trkpt>
      <trkpt lat="42.8690520" lon="-8.5616490">
        <ele>212.6</ele>
        <time>2021-05-24T08:43:17Z</time>
      </trkpt>
      <trkpt lat="42.8690520" lon="-8.5616490">
        <ele>212.6</ele>
        <time>2021-05-24T08:43:18Z</time>
      </trkpt>
      <trkpt lat="42.8690520" lon="-8.5616490">
        <ele>212.6</ele>
        <time>2021-05-24T08:43:19Z</time>
      </trkpt>
      <trkpt lat="42.8690520" lon="-8.5616490">
        <ele>212.6</ele>
        <time>2021-05-24T08:43:20Z</time>
      </trkpt>
      <trkpt lat="42.8690520" lon="-8.5616480">
        <ele>212.6</ele>
        <time>2021-05-24T08:43:21Z</time>
      </trkpt>
      <trkpt lat="42.8690520" lon="-8.5616480">
        <ele>212.6</ele>
        <time>2021-05-24T08:43:22Z</time>
      </trkpt>
      <trkpt lat="42.8690510" lon="-8.5616480">
        <ele>212.6</ele>
        <time>2021-05-24T08:43:23Z</time>
      </trkpt>
      <trkpt lat="42.8690510" lon="-8.5616480">
        <ele>212.6</ele>
        <time>2021-05-24T08:43:24Z</time>
      </trkpt>
      <trkpt lat="42.8690510" lon="-8.5616470">
        <ele>212.6</ele>
        <time>2021-05-24T08:43:25Z</time>
      </trkpt>
      <trkpt lat="42.8690510" lon="-8.5616470">
        <ele>212.6</ele>
        <time>2021-05-24T08:43:26Z</time>
      </trkpt>
      <trkpt lat="42.8690510" lon="-8.5616470">
        <ele>212.6</ele>
        <time>2021-05-24T08:43:27Z</time>
      </trkpt>
      <trkpt lat="42.8690510" lon="-8.5616470">
        <ele>212.6</ele>
        <time>2021-05-24T08:43:28Z</time>
      </trkpt>
      <trkpt lat="42.8690510" lon="-8.5616470">
        <ele>212.6</ele>
        <time>2021-05-24T08:43:29Z</time>
      </trkpt>
      <trkpt lat="42.8690510" lon="-8.5616460">
        <ele>212.6</ele>
        <time>2021-05-24T08:43:30Z</time>
      </trkpt>
      <trkpt lat="42.8690510" lon="-8.5616460">
        <ele>212.6</ele>
        <time>2021-05-24T08:43:31Z</time>
      </trkpt>
      <trkpt lat="42.8690510" lon="-8.5616460">
        <ele>212.6</ele>
        <time>2021-05-24T08:43:32Z</time>
      </trkpt>
      <trkpt lat="42.8690510" lon="-8.5616460">
        <ele>212.6</ele>
        <time>2021-05-24T08:43:33Z</time>
      </trkpt>
      <trkpt lat="42.8690510" lon="-8.5616450">
        <ele>212.6</ele>
        <time>2021-05-24T08:43:34Z</time>
      </trkpt>
      <trkpt lat="42.8690510" lon="-8.5616450">
        <ele>212.6</ele>
        <time>2021-05-24T08:43:35Z</time>
      </trkpt>
      <trkpt lat="42.8690500" lon="-8.5616450">
        <ele>212.6</ele>
        <time>2021-05-24T08:43:36Z</time>
      </trkpt>
      <trkpt lat="42.8690500" lon="-8.5616450">
        <ele>212.6</ele>
        <time>2021-05-24T08:43:37Z</time>
      </trkpt>
      <trkpt lat="42.8690500" lon="-8.5616450">
        <ele>212.6</ele>
        <time>2021-05-24T08:43:38Z</time>
      </trkpt>
      <trkpt lat="42.8690500" lon="-8.5616440">
        <ele>212.6</ele>
        <time>2021-05-24T08:43:39Z</time>
      </trkpt>
      <trkpt lat="42.8690500" lon="-8.5616440">
        <ele>212.6</ele>
        <time>2021-05-24T08:43:40Z</time>
      </trkpt>
      <trkpt lat="42.8690500" lon="-8.5616440">
        <ele>212.6</ele>
        <time>2021-05-24T08:43:41Z</time>
      </trkpt>
      <trkpt lat="42.8690500" lon="-8.5616440">
        <ele>212.6</ele>
        <time>2021-05-24T08:43:42Z</time>
      </trkpt>
      <trkpt lat="42.8690500" lon="-8.5616430">
        <ele>212.6</ele>
        <time>2021-05-24T08:43:43Z</time>
      </trkpt>
      <trkpt lat="42.8690500" lon="-8.5616430">
        <ele>212.6</ele>
        <time>2021-05-24T08:43:44Z</time>
      </trkpt>
      <trkpt lat="42.8690500" lon="-8.5616430">
        <ele>212.6</ele>
        <time>2021-05-24T08:43:45Z</time>
      </trkpt>
      <trkpt lat="42.8690500" lon="-8.5616430">
        <ele>212.6</ele>
        <time>2021-05-24T08:43:46Z</time>
      </trkpt>
      <trkpt lat="42.8690500" lon="-8.5616430">
        <ele>212.6</ele>
        <time>2021-05-24T08:43:47Z</time>
      </trkpt>
      <trkpt lat="42.8690500" lon="-8.5616420">
        <ele>212.6</ele>
        <time>2021-05-24T08:43:48Z</time>
      </trkpt>
      <trkpt lat="42.8690490" lon="-8.5616420">
        <ele>212.6</ele>
        <time>2021-05-24T08:43:49Z</time>
      </trkpt>
      <trkpt lat="42.8690490" lon="-8.5616420">
        <ele>212.6</ele>
        <time>2021-05-24T08:43:50Z</time>
      </trkpt>
      <trkpt lat="42.8690490" lon="-8.5616420">
        <ele>212.6</ele>
        <time>2021-05-24T08:43:51Z</time>
      </trkpt>
      <trkpt lat="42.8690490" lon="-8.5616410">
        <ele>212.6</ele>
        <time>2021-05-24T08:43:52Z</time>
      </trkpt>
      <trkpt lat="42.8690490" lon="-8.5616410">
        <ele>212.6</ele>
        <time>2021-05-24T08:43:53Z</time>
      </trkpt>
      <trkpt lat="42.8690490" lon="-8.5616410">
        <ele>212.6</ele>
        <time>2021-05-24T08:43:54Z</time>
      </trkpt>
      <trkpt lat="42.8690490" lon="-8.5616410">
        <ele>212.6</ele>
        <time>2021-05-24T08:43:55Z</time>
      </trkpt>
      <trkpt lat="42.8690490" lon="-8.5616400">
        <ele>212.6</ele>
        <time>2021-05-24T08:43:56Z</time>
      </trkpt>
      <trkpt lat="42.8690490" lon="-8.5616400">
        <ele>212.6</ele>
        <time>2021-05-24T08:43:57Z</time>
      </trkpt>
      <trkpt lat="42.8690490" lon="-8.5616400">
        <ele>212.6</ele>
        <time>2021-05-24T08:43:58Z</time>
      </trkpt>
      <trkpt lat="42.8690490" lon="-8.5616400">
        <ele>212.6</ele>
        <time>2021-05-24T08:43:59Z</time>
      </trkpt>
      <trkpt lat="42.8690490" lon="-8.5616400">
        <ele>212.6</ele>
        <time>2021-05-24T08:44:00Z</time>
      </trkpt>
      <trkpt lat="42.8690490" lon="-8.5616390">
        <ele>212.6</ele>
        <time>2021-05-24T08:44:01Z</time>
      </trkpt>
      <trkpt lat="42.8690480" lon="-8.5616390">
        <ele>212.6</ele>
        <time>2021-05-24T08:44:02Z</time>
      </trkpt>
      <trkpt lat="42.8690480" lon="-8.5616390">
        <ele>212.6</ele>
        <time>2021-05-24T08:44:03Z</time>
      </trkpt>
      <trkpt lat="42.8690480" lon="-8.5616390">
        <ele>212.6</ele>
        <time>2021-05-24T08:44:04Z</time>
      </trkpt>
      <trkpt lat="42.8690480" lon="-8.5616380">
        <ele>212.6</ele>
        <time>2021-05-24T08:44:05Z</time>
      </trkpt>
      <trkpt lat="42.8690480" lon="-8.5616380">
        <ele>212.6</ele>
        <time>2021-05-24T08:44:06Z</time>
      </trkpt>
      <trkpt lat="42.8690480" lon="-8.5616380">
        <ele>212.6</ele>
        <time>2021-05-24T08:44:07Z</time>
      </trkpt>
      <trkpt lat="42.8690480" lon="-8.5616380">
        <ele>212.6</ele>
        <time>2021-05-24T08:44:08Z</time>
      </trkpt>
      <trkpt lat="42.8690480" lon="-8.5616380">
        <ele>212.6</ele>
        <time>2021-05-24T08:44:09Z</time>
      </trkpt>
      <trkpt lat="42.8690480" lon="-8.5616370">
        <ele>212.6</ele>
        <time>2021-05-24T08:44:10Z</time>
      </trkpt>
      <trkpt lat="42.8690480" lon="-8.5616370">
        <ele>212.6</ele>
        <time>2021-05-24T08:44:11Z</time>
      </trkpt>
      <trkpt lat="42.8690480" lon="-8.5616370">
        <ele>212.6</ele>
        <time>2021-05-24T08:44:13Z</time>
      </trkpt>
      <trkpt lat="42.8690480" lon="-8.5616370">
        <ele>212.6</ele>
        <time>2021-05-24T08:44:14Z</time>
      </trkpt>
      <trkpt lat="42.8690480" lon="-8.5616360">
        <ele>212.6</ele>
        <time>2021-05-24T08:44:16Z</time>
      </trkpt>
      <trkpt lat="42.8690470" lon="-8.5616360">
        <ele>212.6</ele>
        <time>2021-05-24T08:44:17Z</time>
      </trkpt>
      <trkpt lat="42.8690470" lon="-8.5616360">
        <ele>212.6</ele>
        <time>2021-05-24T08:44:18Z</time>
      </trkpt>
      <trkpt lat="42.8690470" lon="-8.5616360">
        <ele>212.6</ele>
        <time>2021-05-24T08:44:19Z</time>
      </trkpt>
      <trkpt lat="42.8690470" lon="-8.5616360">
        <ele>212.6</ele>
        <time>2021-05-24T08:44:20Z</time>
      </trkpt>
      <trkpt lat="42.8690470" lon="-8.5616350">
        <ele>212.6</ele>
        <time>2021-05-24T08:44:21Z</time>
      </trkpt>
      <trkpt lat="42.8690470" lon="-8.5616350">
        <ele>212.6</ele>
        <time>2021-05-24T08:44:22Z</time>
      </trkpt>
      <trkpt lat="42.8690470" lon="-8.5616350">
        <ele>212.6</ele>
        <time>2021-05-24T08:44:23Z</time>
      </trkpt>
      <trkpt lat="42.8690470" lon="-8.5616350">
        <ele>212.6</ele>
        <time>2021-05-24T08:44:24Z</time>
      </trkpt>
      <trkpt lat="42.8690470" lon="-8.5616340">
        <ele>212.6</ele>
        <time>2021-05-24T08:44:25Z</time>
      </trkpt>
      <trkpt lat="42.8690470" lon="-8.5616340">
        <ele>212.6</ele>
        <time>2021-05-24T08:44:26Z</time>
      </trkpt>
      <trkpt lat="42.8690470" lon="-8.5616340">
        <ele>212.6</ele>
        <time>2021-05-24T08:44:27Z</time>
      </trkpt>
      <trkpt lat="42.8690470" lon="-8.5616340">
        <ele>212.6</ele>
        <time>2021-05-24T08:44:28Z</time>
      </trkpt>
      <trkpt lat="42.8690470" lon="-8.5616340">
        <ele>212.6</ele>
        <time>2021-05-24T08:44:29Z</time>
      </trkpt>
      <trkpt lat="42.8690470" lon="-8.5616330">
        <ele>212.6</ele>
        <time>2021-05-24T08:44:30Z</time>
      </trkpt>
      <trkpt lat="42.8690460" lon="-8.5616330">
        <ele>212.6</ele>
        <time>2021-05-24T08:44:31Z</time>
      </trkpt>
      <trkpt lat="42.8690460" lon="-8.5616330">
        <ele>212.6</ele>
        <time>2021-05-24T08:44:32Z</time>
      </trkpt>
      <trkpt lat="42.8690460" lon="-8.5616330">
        <ele>212.6</ele>
        <time>2021-05-24T08:44:33Z</time>
      </trkpt>
      <trkpt lat="42.8690460" lon="-8.5616320">
        <ele>212.6</ele>
        <time>2021-05-24T08:44:34Z</time>
      </trkpt>
      <trkpt lat="42.8690460" lon="-8.5616320">
        <ele>212.6</ele>
        <time>2021-05-24T08:44:35Z</time>
      </trkpt>
      <trkpt lat="42.8690460" lon="-8.5616320">
        <ele>212.6</ele>
        <time>2021-05-24T08:44:36Z</time>
      </trkpt>
      <trkpt lat="42.8690460" lon="-8.5616320">
        <ele>212.6</ele>
        <time>2021-05-24T08:44:37Z</time>
      </trkpt>
      <trkpt lat="42.8690460" lon="-8.5616320">
        <ele>212.6</ele>
        <time>2021-05-24T08:44:38Z</time>
      </trkpt>
      <trkpt lat="42.8690460" lon="-8.5616310">
        <ele>212.6</ele>
        <time>2021-05-24T08:44:39Z</time>
      </trkpt>
      <trkpt lat="42.8690460" lon="-8.5616310">
        <ele>212.6</ele>
        <time>2021-05-24T08:44:40Z</time>
      </trkpt>
      <trkpt lat="42.8690460" lon="-8.5616310">
        <ele>212.6</ele>
        <time>2021-05-24T08:44:41Z</time>
      </trkpt>
      <trkpt lat="42.8690460" lon="-8.5616310">
        <ele>212.6</ele>
        <time>2021-05-24T08:44:42Z</time>
      </trkpt>
      <trkpt lat="42.8690460" lon="-8.5616300">
        <ele>212.6</ele>
        <time>2021-05-24T08:44:43Z</time>
      </trkpt>
      <trkpt lat="42.8690450" lon="-8.5616300">
        <ele>212.6</ele>
        <time>2021-05-24T08:44:44Z</time>
      </trkpt>
      <trkpt lat="42.8690450" lon="-8.5616300">
        <ele>212.6</ele>
        <time>2021-05-24T08:44:45Z</time>
      </trkpt>
      <trkpt lat="42.8690450" lon="-8.5616300">
        <ele>212.6</ele>
        <time>2021-05-24T08:44:46Z</time>
      </trkpt>
      <trkpt lat="42.8690450" lon="-8.5616300">
        <ele>212.6</ele>
        <time>2021-05-24T08:44:47Z</time>
      </trkpt>
      <trkpt lat="42.8690450" lon="-8.5616290">
        <ele>212.6</ele>
        <time>2021-05-24T08:44:48Z</time>
      </trkpt>
      <trkpt lat="42.8690450" lon="-8.5616290">
        <ele>212.6</ele>
        <time>2021-05-24T08:44:49Z</time>
      </trkpt>
      <trkpt lat="42.8690450" lon="-8.5616290">
        <ele>212.6</ele>
        <time>2021-05-24T08:44:50Z</time>
      </trkpt>
      <trkpt lat="42.8690450" lon="-8.5616290">
        <ele>212.6</ele>
        <time>2021-05-24T08:44:51Z</time>
      </trkpt>
      <trkpt lat="42.8690450" lon="-8.5616280">
        <ele>212.6</ele>
        <time>2021-05-24T08:44:52Z</time>
      </trkpt>
      <trkpt lat="42.8690450" lon="-8.5616280">
        <ele>212.6</ele>
        <time>2021-05-24T08:44:53Z</time>
      </trkpt>
      <trkpt lat="42.8690450" lon="-8.5616280">
        <ele>212.6</ele>
        <time>2021-05-24T08:44:54Z</time>
      </trkpt>
      <trkpt lat="42.8690450" lon="-8.5616280">
        <ele>212.6</ele>
        <time>2021-05-24T08:44:55Z</time>
      </trkpt>
      <trkpt lat="42.8690450" lon="-8.5616270">
        <ele>212.6</ele>
        <time>2021-05-24T08:44:56Z</time>
      </trkpt>
      <trkpt lat="42.8690440" lon="-8.5616270">
        <ele>212.6</ele>
        <time>2021-05-24T08:44:57Z</time>
      </trkpt>
      <trkpt lat="42.8690440" lon="-8.5616270">
        <ele>212.6</ele>
        <time>2021-05-24T08:44:58Z</time>
      </trkpt>
      <trkpt lat="42.8690440" lon="-8.5616270">
        <ele>212.6</ele>
        <time>2021-05-24T08:44:59Z</time>
      </trkpt>
      <trkpt lat="42.8690440" lon="-8.5616270">
        <ele>212.6</ele>
        <time>2021-05-24T08:45:00Z</time>
      </trkpt>
      <trkpt lat="42.8690440" lon="-8.5616260">
        <ele>212.6</ele>
        <time>2021-05-24T08:45:01Z</time>
      </trkpt>
      <trkpt lat="42.8690440" lon="-8.5616260">
        <ele>212.6</ele>
        <time>2021-05-24T08:45:02Z</time>
      </trkpt>
      <trkpt lat="42.8690440" lon="-8.5616260">
        <ele>212.6</ele>
        <time>2021-05-24T08:45:03Z</time>
      </trkpt>
      <trkpt lat="42.8690440" lon="-8.5616260">
        <ele>212.6</ele>
        <time>2021-05-24T08:45:04Z</time>
      </trkpt>
      <trkpt lat="42.8690440" lon="-8.5616250">
        <ele>212.6</ele>
        <time>2021-05-24T08:45:05Z</time>
      </trkpt>
      <trkpt lat="42.8690440" lon="-8.5616250">
        <ele>212.6</ele>
        <time>2021-05-24T08:45:06Z</time>
      </trkpt>
      <trkpt lat="42.8690440" lon="-8.5616250">
        <ele>212.6</ele>
        <time>2021-05-24T08:45:07Z</time>
      </trkpt>
      <trkpt lat="42.8690440" lon="-8.5616250">
        <ele>212.6</ele>
        <time>2021-05-24T08:45:08Z</time>
      </trkpt>
      <trkpt lat="42.8690440" lon="-8.5616250">
        <ele>212.6</ele>
        <time>2021-05-24T08:45:09Z</time>
      </trkpt>
      <trkpt lat="42.8690430" lon="-8.5616240">
        <ele>212.6</ele>
        <time>2021-05-24T08:45:10Z</time>
      </trkpt>
      <trkpt lat="42.8690430" lon="-8.5616240">
        <ele>212.6</ele>
        <time>2021-05-24T08:45:11Z</time>
      </trkpt>
      <trkpt lat="42.8690430" lon="-8.5616240">
        <ele>212.6</ele>
        <time>2021-05-24T08:45:12Z</time>
      </trkpt>
      <trkpt lat="42.8690430" lon="-8.5616240">
        <ele>212.6</ele>
        <time>2021-05-24T08:45:13Z</time>
      </trkpt>
      <trkpt lat="42.8690430" lon="-8.5616230">
        <ele>212.6</ele>
        <time>2021-05-24T08:45:14Z</time>
      </trkpt>
      <trkpt lat="42.8690430" lon="-8.5616230">
        <ele>212.6</ele>
        <time>2021-05-24T08:45:15Z</time>
      </trkpt>
      <trkpt lat="42.8690430" lon="-8.5616230">
        <ele>212.6</ele>
        <time>2021-05-24T08:45:16Z</time>
      </trkpt>
      <trkpt lat="42.8690520" lon="-8.5616120">
        <ele>212.6</ele>
        <time>2021-05-24T08:45:17Z</time>
      </trkpt>
      <trkpt lat="42.8690570" lon="-8.5616140">
        <ele>212.6</ele>
        <time>2021-05-24T08:45:18Z</time>
      </trkpt>
      <trkpt lat="42.8690620" lon="-8.5616160">
        <ele>212.6</ele>
        <time>2021-05-24T08:45:19Z</time>
      </trkpt>
      <trkpt lat="42.8690670" lon="-8.5616180">
        <ele>212.5</ele>
        <time>2021-05-24T08:45:20Z</time>
      </trkpt>
      <trkpt lat="42.8690720" lon="-8.5616200">
        <ele>212.5</ele>
        <time>2021-05-24T08:45:21Z</time>
      </trkpt>
      <trkpt lat="42.8690770" lon="-8.5616220">
        <ele>212.5</ele>
        <time>2021-05-24T08:45:22Z</time>
      </trkpt>
      <trkpt lat="42.8690820" lon="-8.5616240">
        <ele>212.5</ele>
        <time>2021-05-24T08:45:23Z</time>
      </trkpt>
      <trkpt lat="42.8690870" lon="-8.5616260">
        <ele>212.5</ele>
        <time>2021-05-24T08:45:24Z</time>
      </trkpt>
      <trkpt lat="42.8690840" lon="-8.5616270">
        <ele>212.5</ele>
        <time>2021-05-24T08:45:25Z</time>
      </trkpt>
      <trkpt lat="42.8690850" lon="-8.5616270">
        <ele>212.5</ele>
        <time>2021-05-24T08:45:26Z</time>
      </trkpt>
      <trkpt lat="42.8690840" lon="-8.5616300">
        <ele>212.5</ele>
        <time>2021-05-24T08:45:27Z</time>
      </trkpt>
      <trkpt lat="42.8690840" lon="-8.5616320">
        <ele>212.5</ele>
        <time>2021-05-24T08:45:28Z</time>
      </trkpt>
      <trkpt lat="42.8690850" lon="-8.5616360">
        <ele>212.5</ele>
        <time>2021-05-24T08:45:29Z</time>
      </trkpt>
      <trkpt lat="42.8690830" lon="-8.5616390">
        <ele>212.5</ele>
        <time>2021-05-24T08:45:30Z</time>
      </trkpt>
      <trkpt lat="42.8690930" lon="-8.5616430">
        <ele>212.5</ele>
        <time>2021-05-24T08:45:31Z</time>
      </trkpt>
      <trkpt lat="42.8690880" lon="-8.5616430">
        <ele>212.5</ele>
        <time>2021-05-24T08:45:32Z</time>
      </trkpt>
      <trkpt lat="42.8690880" lon="-8.5616480">
        <ele>212.5</ele>
        <time>2021-05-24T08:45:33Z</time>
      </trkpt>
      <trkpt lat="42.8690920" lon="-8.5616500">
        <ele>212.5</ele>
        <time>2021-05-24T08:45:34Z</time>
      </trkpt>
      <trkpt lat="42.8690930" lon="-8.5616510">
        <ele>212.5</ele>
        <time>2021-05-24T08:45:35Z</time>
      </trkpt>
      <trkpt lat="42.8690940" lon="-8.5616510">
        <ele>212.5</ele>
        <time>2021-05-24T08:45:36Z</time>
      </trkpt>
      <trkpt lat="42.8690930" lon="-8.5616500">
        <ele>212.5</ele>
        <time>2021-05-24T08:45:37Z</time>
      </trkpt>
      <trkpt lat="42.8690890" lon="-8.5616490">
        <ele>212.5</ele>
        <time>2021-05-24T08:45:38Z</time>
      </trkpt>
      <trkpt lat="42.8690940" lon="-8.5616490">
        <ele>212.5</ele>
        <time>2021-05-24T08:45:39Z</time>
      </trkpt>
      <trkpt lat="42.8690940" lon="-8.5616480">
        <ele>212.5</ele>
        <time>2021-05-24T08:45:40Z</time>
      </trkpt>
      <trkpt lat="42.8690950" lon="-8.5616470">
        <ele>212.5</ele>
        <time>2021-05-24T08:45:41Z</time>
      </trkpt>
      <trkpt lat="42.8690920" lon="-8.5616460">
        <ele>212.5</ele>
        <time>2021-05-24T08:45:42Z</time>
      </trkpt>
      <trkpt lat="42.8690930" lon="-8.5616460">
        <ele>212.5</ele>
        <time>2021-05-24T08:45:43Z</time>
      </trkpt>
      <trkpt lat="42.8690880" lon="-8.5616480">
        <ele>212.5</ele>
        <time>2021-05-24T08:45:44Z</time>
      </trkpt>
      <trkpt lat="42.8690830" lon="-8.5616450">
        <ele>212.5</ele>
        <time>2021-05-24T08:45:45Z</time>
      </trkpt>
      <trkpt lat="42.8690820" lon="-8.5616440">
        <ele>212.5</ele>
        <time>2021-05-24T08:45:46Z</time>
      </trkpt>
      <trkpt lat="42.8690840" lon="-8.5616430">
        <ele>212.5</ele>
        <time>2021-05-24T08:45:47Z</time>
      </trkpt>
      <trkpt lat="42.8690840" lon="-8.5616430">
        <ele>212.5</ele>
        <time>2021-05-24T08:45:48Z</time>
      </trkpt>
      <trkpt lat="42.8690820" lon="-8.5616410">
        <ele>212.5</ele>
        <time>2021-05-24T08:45:49Z</time>
      </trkpt>
      <trkpt lat="42.8690840" lon="-8.5616410">
        <ele>212.5</ele>
        <time>2021-05-24T08:45:50Z</time>
      </trkpt>
      <trkpt lat="42.8690870" lon="-8.5616400">
        <ele>212.5</ele>
        <time>2021-05-24T08:45:51Z</time>
      </trkpt>
      <trkpt lat="42.8690900" lon="-8.5616350">
        <ele>212.5</ele>
        <time>2021-05-24T08:45:52Z</time>
      </trkpt>
      <trkpt lat="42.8690890" lon="-8.5616280">
        <ele>212.5</ele>
        <time>2021-05-24T08:45:54Z</time>
      </trkpt>
      <trkpt lat="42.8690850" lon="-8.5616260">
        <ele>212.5</ele>
        <time>2021-05-24T08:45:55Z</time>
      </trkpt>
      <trkpt lat="42.8690870" lon="-8.5616290">
        <ele>212.5</ele>
        <time>2021-05-24T08:45:56Z</time>
      </trkpt>
      <trkpt lat="42.8690860" lon="-8.5616280">
        <ele>212.5</ele>
        <time>2021-05-24T08:45:57Z</time>
      </trkpt>
      <trkpt lat="42.8690850" lon="-8.5616260">
        <ele>212.5</ele>
        <time>2021-05-24T08:45:58Z</time>
      </trkpt>
      <trkpt lat="42.8690830" lon="-8.5616290">
        <ele>212.5</ele>
        <time>2021-05-24T08:45:59Z</time>
      </trkpt>
      <trkpt lat="42.8690810" lon="-8.5616300">
        <ele>212.5</ele>
        <time>2021-05-24T08:46:00Z</time>
      </trkpt>
      <trkpt lat="42.8690820" lon="-8.5616300">
        <ele>212.5</ele>
        <time>2021-05-24T08:46:01Z</time>
      </trkpt>
      <trkpt lat="42.8690810" lon="-8.5616300">
        <ele>212.5</ele>
        <time>2021-05-24T08:46:02Z</time>
      </trkpt>
      <trkpt lat="42.8690810" lon="-8.5616290">
        <ele>212.5</ele>
        <time>2021-05-24T08:46:03Z</time>
      </trkpt>
      <trkpt lat="42.8690790" lon="-8.5616310">
        <ele>212.5</ele>
        <time>2021-05-24T08:46:04Z</time>
      </trkpt>
      <trkpt lat="42.8690800" lon="-8.5616310">
        <ele>212.5</ele>
        <time>2021-05-24T08:46:05Z</time>
      </trkpt>
      <trkpt lat="42.8690780" lon="-8.5616360">
        <ele>212.5</ele>
        <time>2021-05-24T08:46:06Z</time>
      </trkpt>
      <trkpt lat="42.8690780" lon="-8.5616370">
        <ele>212.5</ele>
        <time>2021-05-24T08:46:07Z</time>
      </trkpt>
      <trkpt lat="42.8690740" lon="-8.5616380">
        <ele>212.5</ele>
        <time>2021-05-24T08:46:08Z</time>
      </trkpt>
      <trkpt lat="42.8690730" lon="-8.5616360">
        <ele>212.5</ele>
        <time>2021-05-24T08:46:09Z</time>
      </trkpt>
      <trkpt lat="42.8690690" lon="-8.5616320">
        <ele>212.5</ele>
        <time>2021-05-24T08:46:10Z</time>
      </trkpt>
      <trkpt lat="42.8690710" lon="-8.5616340">
        <ele>212.5</ele>
        <time>2021-05-24T08:46:11Z</time>
      </trkpt>
      <trkpt lat="42.8690730" lon="-8.5616330">
        <ele>212.5</ele>
        <time>2021-05-24T08:46:12Z</time>
      </trkpt>
      <trkpt lat="42.8690710" lon="-8.5616290">
        <ele>212.5</ele>
        <time>2021-05-24T08:46:13Z</time>
      </trkpt>
      <trkpt lat="42.8690710" lon="-8.5616280">
        <ele>212.5</ele>
        <time>2021-05-24T08:46:14Z</time>
      </trkpt>
      <trkpt lat="42.8690660" lon="-8.5616300">
        <ele>212.5</ele>
        <time>2021-05-24T08:46:15Z</time>
      </trkpt>
      <trkpt lat="42.8690640" lon="-8.5616310">
        <ele>212.5</ele>
        <time>2021-05-24T08:46:16Z</time>
      </trkpt>
      <trkpt lat="42.8690570" lon="-8.5616290">
        <ele>212.5</ele>
        <time>2021-05-24T08:46:17Z</time>
      </trkpt>
      <trkpt lat="42.8690550" lon="-8.5616300">
        <ele>212.5</ele>
        <time>2021-05-24T08:46:18Z</time>
      </trkpt>
      <trkpt lat="42.8690540" lon="-8.5616320">
        <ele>212.5</ele>
        <time>2021-05-24T08:46:19Z</time>
      </trkpt>
      <trkpt lat="42.8690560" lon="-8.5616330">
        <ele>212.5</ele>
        <time>2021-05-24T08:46:20Z</time>
      </trkpt>
      <trkpt lat="42.8690580" lon="-8.5616290">
        <ele>212.5</ele>
        <time>2021-05-24T08:46:21Z</time>
      </trkpt>
      <trkpt lat="42.8690610" lon="-8.5616280">
        <ele>212.5</ele>
        <time>2021-05-24T08:46:22Z</time>
      </trkpt>
      <trkpt lat="42.8690610" lon="-8.5616340">
        <ele>212.5</ele>
        <time>2021-05-24T08:46:23Z</time>
      </trkpt>
      <trkpt lat="42.8690600" lon="-8.5616340">
        <ele>212.5</ele>
        <time>2021-05-24T08:46:24Z</time>
      </trkpt>
      <trkpt lat="42.8690640" lon="-8.5616340">
        <ele>212.5</ele>
        <time>2021-05-24T08:46:25Z</time>
      </trkpt>
      <trkpt lat="42.8690630" lon="-8.5616370">
        <ele>212.5</ele>
        <time>2021-05-24T08:46:26Z</time>
      </trkpt>
      <trkpt lat="42.8690670" lon="-8.5616370">
        <ele>212.5</ele>
        <time>2021-05-24T08:46:27Z</time>
      </trkpt>
      <trkpt lat="42.8690680" lon="-8.5616380">
        <ele>212.4</ele>
        <time>2021-05-24T08:46:28Z</time>
      </trkpt>
      <trkpt lat="42.8690680" lon="-8.5616400">
        <ele>212.4</ele>
        <time>2021-05-24T08:46:29Z</time>
      </trkpt>
      <trkpt lat="42.8690680" lon="-8.5616400">
        <ele>212.4</ele>
        <time>2021-05-24T08:46:30Z</time>
      </trkpt>
      <trkpt lat="42.8690720" lon="-8.5616350">
        <ele>212.4</ele>
        <time>2021-05-24T08:46:31Z</time>
      </trkpt>
      <trkpt lat="42.8690720" lon="-8.5616350">
        <ele>212.4</ele>
        <time>2021-05-24T08:46:32Z</time>
      </trkpt>
      <trkpt lat="42.8690730" lon="-8.5616330">
        <ele>212.4</ele>
        <time>2021-05-24T08:46:33Z</time>
      </trkpt>
      <trkpt lat="42.8690710" lon="-8.5616300">
        <ele>212.4</ele>
        <time>2021-05-24T08:46:34Z</time>
      </trkpt>
      <trkpt lat="42.8690710" lon="-8.5616270">
        <ele>212.4</ele>
        <time>2021-05-24T08:46:35Z</time>
      </trkpt>
      <trkpt lat="42.8690700" lon="-8.5616270">
        <ele>212.4</ele>
        <time>2021-05-24T08:46:36Z</time>
      </trkpt>
      <trkpt lat="42.8690700" lon="-8.5616250">
        <ele>212.4</ele>
        <time>2021-05-24T08:46:37Z</time>
      </trkpt>
      <trkpt lat="42.8690690" lon="-8.5616260">
        <ele>212.4</ele>
        <time>2021-05-24T08:46:38Z</time>
      </trkpt>
      <trkpt lat="42.8690680" lon="-8.5616280">
        <ele>212.4</ele>
        <time>2021-05-24T08:46:39Z</time>
      </trkpt>
      <trkpt lat="42.8690650" lon="-8.5616310">
        <ele>212.4</ele>
        <time>2021-05-24T08:46:40Z</time>
      </trkpt>
      <trkpt lat="42.8690640" lon="-8.5616320">
        <ele>212.4</ele>
        <time>2021-05-24T08:46:41Z</time>
      </trkpt>
      <trkpt lat="42.8690630" lon="-8.5616370">
        <ele>212.4</ele>
        <time>2021-05-24T08:46:42Z</time>
      </trkpt>
      <trkpt lat="42.8690620" lon="-8.5616410">
        <ele>212.4</ele>
        <time>2021-05-24T08:46:43Z</time>
      </trkpt>
      <trkpt lat="42.8690590" lon="-8.5616480">
        <ele>212.4</ele>
        <time>2021-05-24T08:46:44Z</time>
      </trkpt>
      <trkpt lat="42.8690550" lon="-8.5616510">
        <ele>212.4</ele>
        <time>2021-05-24T08:46:45Z</time>
      </trkpt>
      <trkpt lat="42.8690550" lon="-8.5616520">
        <ele>212.4</ele>
        <time>2021-05-24T08:46:46Z</time>
      </trkpt>
      <trkpt lat="42.8690500" lon="-8.5616630">
        <ele>212.4</ele>
        <time>2021-05-24T08:46:47Z</time>
      </trkpt>
      <trkpt lat="42.8690460" lon="-8.5616670">
        <ele>212.4</ele>
        <time>2021-05-24T08:46:48Z</time>
      </trkpt>
      <trkpt lat="42.8690470" lon="-8.5616680">
        <ele>212.4</ele>
        <time>2021-05-24T08:46:49Z</time>
      </trkpt>
      <trkpt lat="42.8690500" lon="-8.5616660">
        <ele>212.4</ele>
        <time>2021-05-24T08:46:50Z</time>
      </trkpt>
      <trkpt lat="42.8690530" lon="-8.5616680">
        <ele>212.4</ele>
        <time>2021-05-24T08:46:51Z</time>
      </trkpt>
      <trkpt lat="42.8690530" lon="-8.5616700">
        <ele>212.4</ele>
        <time>2021-05-24T08:46:52Z</time>
      </trkpt>
      <trkpt lat="42.8690520" lon="-8.5616730">
        <ele>212.4</ele>
        <time>2021-05-24T08:46:53Z</time>
      </trkpt>
      <trkpt lat="42.8690510" lon="-8.5616750">
        <ele>212.4</ele>
        <time>2021-05-24T08:46:54Z</time>
      </trkpt>
      <trkpt lat="42.8690540" lon="-8.5616730">
        <ele>212.4</ele>
        <time>2021-05-24T08:46:55Z</time>
      </trkpt>
      <trkpt lat="42.8690520" lon="-8.5616740">
        <ele>212.4</ele>
        <time>2021-05-24T08:46:56Z</time>
      </trkpt>
      <trkpt lat="42.8690520" lon="-8.5616740">
        <ele>212.4</ele>
        <time>2021-05-24T08:46:57Z</time>
      </trkpt>
      <trkpt lat="42.8690520" lon="-8.5616730">
        <ele>212.4</ele>
        <time>2021-05-24T08:46:58Z</time>
      </trkpt>
      <trkpt lat="42.8690520" lon="-8.5616710">
        <ele>212.4</ele>
        <time>2021-05-24T08:46:59Z</time>
      </trkpt>
      <trkpt lat="42.8690530" lon="-8.5616670">
        <ele>212.4</ele>
        <time>2021-05-24T08:47:00Z</time>
      </trkpt>
      <trkpt lat="42.8690560" lon="-8.5616630">
        <ele>212.4</ele>
        <time>2021-05-24T08:47:01Z</time>
      </trkpt>
      <trkpt lat="42.8690550" lon="-8.5616610">
        <ele>212.4</ele>
        <time>2021-05-24T08:47:02Z</time>
      </trkpt>
      <trkpt lat="42.8690530" lon="-8.5616610">
        <ele>212.4</ele>
        <time>2021-05-24T08:47:03Z</time>
      </trkpt>
      <trkpt lat="42.8690540" lon="-8.5616610">
        <ele>212.4</ele>
        <time>2021-05-24T08:47:04Z</time>
      </trkpt>
      <trkpt lat="42.8690550" lon="-8.5616590">
        <ele>212.4</ele>
        <time>2021-05-24T08:47:05Z</time>
      </trkpt>
      <trkpt lat="42.8690570" lon="-8.5616570">
        <ele>212.4</ele>
        <time>2021-05-24T08:47:06Z</time>
      </trkpt>
      <trkpt lat="42.8690600" lon="-8.5616480">
        <ele>212.4</ele>
        <time>2021-05-24T08:47:07Z</time>
      </trkpt>
      <trkpt lat="42.8690610" lon="-8.5616420">
        <ele>212.4</ele>
        <time>2021-05-24T08:47:08Z</time>
      </trkpt>
      <trkpt lat="42.8690660" lon="-8.5616360">
        <ele>212.4</ele>
        <time>2021-05-24T08:47:09Z</time>
      </trkpt>
      <trkpt lat="42.8690720" lon="-8.5616340">
        <ele>212.4</ele>
        <time>2021-05-24T08:47:10Z</time>
      </trkpt>
      <trkpt lat="42.8690670" lon="-8.5616370">
        <ele>212.4</ele>
        <time>2021-05-24T08:47:11Z</time>
      </trkpt>
      <trkpt lat="42.8690610" lon="-8.5616420">
        <ele>212.4</ele>
        <time>2021-05-24T08:47:12Z</time>
      </trkpt>
      <trkpt lat="42.8690580" lon="-8.5616520">
        <ele>212.4</ele>
        <time>2021-05-24T08:47:13Z</time>
      </trkpt>
      <trkpt lat="42.8690560" lon="-8.5616560">
        <ele>212.4</ele>
        <time>2021-05-24T08:47:14Z</time>
      </trkpt>
      <trkpt lat="42.8690640" lon="-8.5616580">
        <ele>212.4</ele>
        <time>2021-05-24T08:47:15Z</time>
      </trkpt>
      <trkpt lat="42.8690560" lon="-8.5616570">
        <ele>212.4</ele>
        <time>2021-05-24T08:47:16Z</time>
      </trkpt>
      <trkpt lat="42.8690480" lon="-8.5616550">
        <ele>212.4</ele>
        <time>2021-05-24T08:47:17Z</time>
      </trkpt>
      <trkpt lat="42.8690470" lon="-8.5616500">
        <ele>212.4</ele>
        <time>2021-05-24T08:47:18Z</time>
      </trkpt>
      <trkpt lat="42.8690460" lon="-8.5616490">
        <ele>212.4</ele>
        <time>2021-05-24T08:47:19Z</time>
      </trkpt>
      <trkpt lat="42.8690460" lon="-8.5616510">
        <ele>212.4</ele>
        <time>2021-05-24T08:47:20Z</time>
      </trkpt>
      <trkpt lat="42.8690450" lon="-8.5616510">
        <ele>212.4</ele>
        <time>2021-05-24T08:47:21Z</time>
      </trkpt>
      <trkpt lat="42.8690450" lon="-8.5616540">
        <ele>212.4</ele>
        <time>2021-05-24T08:47:22Z</time>
      </trkpt>
      <trkpt lat="42.8690450" lon="-8.5616550">
        <ele>212.4</ele>
        <time>2021-05-24T08:47:23Z</time>
      </trkpt>
      <trkpt lat="42.8690460" lon="-8.5616580">
        <ele>212.4</ele>
        <time>2021-05-24T08:47:24Z</time>
      </trkpt>
      <trkpt lat="42.8690490" lon="-8.5616600">
        <ele>212.4</ele>
        <time>2021-05-24T08:47:25Z</time>
      </trkpt>
      <trkpt lat="42.8690530" lon="-8.5616630">
        <ele>212.4</ele>
        <time>2021-05-24T08:47:26Z</time>
      </trkpt>
      <trkpt lat="42.8690480" lon="-8.5616640">
        <ele>212.4</ele>
        <time>2021-05-24T08:47:27Z</time>
      </trkpt>
      <trkpt lat="42.8690510" lon="-8.5616660">
        <ele>212.4</ele>
        <time>2021-05-24T08:47:28Z</time>
      </trkpt>
      <trkpt lat="42.8690530" lon="-8.5616650">
        <ele>212.4</ele>
        <time>2021-05-24T08:47:29Z</time>
      </trkpt>
      <trkpt lat="42.8690540" lon="-8.5616630">
        <ele>212.4</ele>
        <time>2021-05-24T08:47:30Z</time>
      </trkpt>
      <trkpt lat="42.8690550" lon="-8.5616660">
        <ele>212.4</ele>
        <time>2021-05-24T08:47:31Z</time>
      </trkpt>
      <trkpt lat="42.8690550" lon="-8.5616670">
        <ele>212.4</ele>
        <time>2021-05-24T08:47:32Z</time>
      </trkpt>
      <trkpt lat="42.8690540" lon="-8.5616670">
        <ele>212.4</ele>
        <time>2021-05-24T08:47:33Z</time>
      </trkpt>
      <trkpt lat="42.8690580" lon="-8.5616680">
        <ele>212.4</ele>
        <time>2021-05-24T08:47:34Z</time>
      </trkpt>
      <trkpt lat="42.8690610" lon="-8.5616650">
        <ele>212.4</ele>
        <time>2021-05-24T08:47:35Z</time>
      </trkpt>
      <trkpt lat="42.8690630" lon="-8.5616650">
        <ele>212.4</ele>
        <time>2021-05-24T08:47:36Z</time>
      </trkpt>
      <trkpt lat="42.8690620" lon="-8.5616670">
        <ele>212.4</ele>
        <time>2021-05-24T08:47:37Z</time>
      </trkpt>
      <trkpt lat="42.8690620" lon="-8.5616670">
        <ele>212.4</ele>
        <time>2021-05-24T08:47:38Z</time>
      </trkpt>
      <trkpt lat="42.8690630" lon="-8.5616680">
        <ele>212.4</ele>
        <time>2021-05-24T08:47:39Z</time>
      </trkpt>
      <trkpt lat="42.8690610" lon="-8.5616640">
        <ele>212.4</ele>
        <time>2021-05-24T08:47:40Z</time>
      </trkpt>
      <trkpt lat="42.8690600" lon="-8.5616610">
        <ele>212.4</ele>
        <time>2021-05-24T08:47:41Z</time>
      </trkpt>
      <trkpt lat="42.8690620" lon="-8.5616610">
        <ele>212.4</ele>
        <time>2021-05-24T08:47:42Z</time>
      </trkpt>
      <trkpt lat="42.8690610" lon="-8.5616610">
        <ele>212.4</ele>
        <time>2021-05-24T08:47:43Z</time>
      </trkpt>
      <trkpt lat="42.8690620" lon="-8.5616600">
        <ele>212.4</ele>
        <time>2021-05-24T08:47:44Z</time>
      </trkpt>
      <trkpt lat="42.8690610" lon="-8.5616610">
        <ele>212.4</ele>
        <time>2021-05-24T08:47:45Z</time>
      </trkpt>
      <trkpt lat="42.8690620" lon="-8.5616590">
        <ele>212.4</ele>
        <time>2021-05-24T08:47:46Z</time>
      </trkpt>
      <trkpt lat="42.8690630" lon="-8.5616590">
        <ele>212.4</ele>
        <time>2021-05-24T08:47:47Z</time>
      </trkpt>
      <trkpt lat="42.8690710" lon="-8.5616570">
        <ele>212.4</ele>
        <time>2021-05-24T08:47:48Z</time>
      </trkpt>
      <trkpt lat="42.8690710" lon="-8.5616610">
        <ele>212.4</ele>
        <time>2021-05-24T08:47:49Z</time>
      </trkpt>
      <trkpt lat="42.8690710" lon="-8.5616600">
        <ele>212.4</ele>
        <time>2021-05-24T08:47:50Z</time>
      </trkpt>
      <trkpt lat="42.8690680" lon="-8.5616540">
        <ele>212.4</ele>
        <time>2021-05-24T08:47:51Z</time>
      </trkpt>
      <trkpt lat="42.8690660" lon="-8.5616560">
        <ele>212.4</ele>
        <time>2021-05-24T08:47:52Z</time>
      </trkpt>
      <trkpt lat="42.8690650" lon="-8.5616580">
        <ele>212.4</ele>
        <time>2021-05-24T08:47:53Z</time>
      </trkpt>
      <trkpt lat="42.8690670" lon="-8.5616600">
        <ele>212.4</ele>
        <time>2021-05-24T08:47:54Z</time>
      </trkpt>
      <trkpt lat="42.8690640" lon="-8.5616570">
        <ele>212.4</ele>
        <time>2021-05-24T08:47:55Z</time>
      </trkpt>
      <trkpt lat="42.8690600" lon="-8.5616620">
        <ele>212.4</ele>
        <time>2021-05-24T08:47:56Z</time>
      </trkpt>
      <trkpt lat="42.8690580" lon="-8.5616600">
        <ele>212.4</ele>
        <time>2021-05-24T08:47:57Z</time>
      </trkpt>
      <trkpt lat="42.8690600" lon="-8.5616620">
        <ele>212.4</ele>
        <time>2021-05-24T08:47:58Z</time>
      </trkpt>
      <trkpt lat="42.8690670" lon="-8.5616620">
        <ele>212.4</ele>
        <time>2021-05-24T08:47:59Z</time>
      </trkpt>
      <trkpt lat="42.8690630" lon="-8.5616610">
        <ele>212.4</ele>
        <time>2021-05-24T08:48:00Z</time>
      </trkpt>
      <trkpt lat="42.8690640" lon="-8.5616600">
        <ele>212.4</ele>
        <time>2021-05-24T08:48:01Z</time>
      </trkpt>
      <trkpt lat="42.8690630" lon="-8.5616600">
        <ele>212.4</ele>
        <time>2021-05-24T08:48:02Z</time>
      </trkpt>
      <trkpt lat="42.8690620" lon="-8.5616570">
        <ele>212.4</ele>
        <time>2021-05-24T08:48:03Z</time>
      </trkpt>
      <trkpt lat="42.8690620" lon="-8.5616600">
        <ele>212.4</ele>
        <time>2021-05-24T08:48:04Z</time>
      </trkpt>
      <trkpt lat="42.8690610" lon="-8.5616610">
        <ele>212.4</ele>
        <time>2021-05-24T08:48:05Z</time>
      </trkpt>
      <trkpt lat="42.8690590" lon="-8.5616620">
        <ele>212.4</ele>
        <time>2021-05-24T08:48:06Z</time>
      </trkpt>
      <trkpt lat="42.8690580" lon="-8.5616610">
        <ele>212.4</ele>
        <time>2021-05-24T08:48:07Z</time>
      </trkpt>
      <trkpt lat="42.8690590" lon="-8.5616600">
        <ele>212.4</ele>
        <time>2021-05-24T08:48:08Z</time>
      </trkpt>
      <trkpt lat="42.8690600" lon="-8.5616580">
        <ele>212.4</ele>
        <time>2021-05-24T08:48:09Z</time>
      </trkpt>
      <trkpt lat="42.8690590" lon="-8.5616600">
        <ele>212.4</ele>
        <time>2021-05-24T08:48:10Z</time>
      </trkpt>
      <trkpt lat="42.8690580" lon="-8.5616580">
        <ele>212.4</ele>
        <time>2021-05-24T08:48:11Z</time>
      </trkpt>
      <trkpt lat="42.8690570" lon="-8.5616560">
        <ele>212.4</ele>
        <time>2021-05-24T08:48:12Z</time>
      </trkpt>
      <trkpt lat="42.8690580" lon="-8.5616550">
        <ele>212.4</ele>
        <time>2021-05-24T08:48:13Z</time>
      </trkpt>
      <trkpt lat="42.8690590" lon="-8.5616530">
        <ele>212.4</ele>
        <time>2021-05-24T08:48:14Z</time>
      </trkpt>
      <trkpt lat="42.8690590" lon="-8.5616510">
        <ele>212.4</ele>
        <time>2021-05-24T08:48:15Z</time>
      </trkpt>
      <trkpt lat="42.8690590" lon="-8.5616460">
        <ele>212.4</ele>
        <time>2021-05-24T08:48:16Z</time>
      </trkpt>
      <trkpt lat="42.8690620" lon="-8.5616380">
        <ele>212.4</ele>
        <time>2021-05-24T08:48:17Z</time>
      </trkpt>
      <trkpt lat="42.8690610" lon="-8.5616370">
        <ele>212.4</ele>
        <time>2021-05-24T08:48:18Z</time>
      </trkpt>
      <trkpt lat="42.8690610" lon="-8.5616370">
        <ele>212.4</ele>
        <time>2021-05-24T08:48:19Z</time>
      </trkpt>
      <trkpt lat="42.8690600" lon="-8.5616340">
        <ele>212.4</ele>
        <time>2021-05-24T08:48:20Z</time>
      </trkpt>
      <trkpt lat="42.8690610" lon="-8.5616390">
        <ele>212.3</ele>
        <time>2021-05-24T08:48:21Z</time>
      </trkpt>
      <trkpt lat="42.8690700" lon="-8.5616500">
        <ele>212.3</ele>
        <time>2021-05-24T08:48:22Z</time>
      </trkpt>
      <trkpt lat="42.8690750" lon="-8.5616600">
        <ele>212.3</ele>
        <time>2021-05-24T08:48:23Z</time>
      </trkpt>
      <trkpt lat="42.8690750" lon="-8.5616600">
        <ele>212.3</ele>
        <time>2021-05-24T08:48:24Z</time>
      </trkpt>
      <trkpt lat="42.8690730" lon="-8.5616590">
        <ele>212.3</ele>
        <time>2021-05-24T08:48:25Z</time>
      </trkpt>
      <trkpt lat="42.8690680" lon="-8.5616620">
        <ele>212.3</ele>
        <time>2021-05-24T08:48:26Z</time>
      </trkpt>
      <trkpt lat="42.8690660" lon="-8.5616600">
        <ele>212.3</ele>
        <time>2021-05-24T08:48:27Z</time>
      </trkpt>
      <trkpt lat="42.8690640" lon="-8.5616560">
        <ele>212.3</ele>
        <time>2021-05-24T08:48:28Z</time>
      </trkpt>
      <trkpt lat="42.8690640" lon="-8.5616560">
        <ele>212.3</ele>
        <time>2021-05-24T08:48:29Z</time>
      </trkpt>
      <trkpt lat="42.8690640" lon="-8.5616560">
        <ele>212.3</ele>
        <time>2021-05-24T08:48:30Z</time>
      </trkpt>
      <trkpt lat="42.8690610" lon="-8.5616610">
        <ele>212.3</ele>
        <time>2021-05-24T08:48:31Z</time>
      </trkpt>
      <trkpt lat="42.8690560" lon="-8.5616580">
        <ele>212.3</ele>
        <time>2021-05-24T08:48:32Z</time>
      </trkpt>
      <trkpt lat="42.8690540" lon="-8.5616600">
        <ele>212.3</ele>
        <time>2021-05-24T08:48:33Z</time>
      </trkpt>
      <trkpt lat="42.8690510" lon="-8.5616620">
        <ele>212.3</ele>
        <time>2021-05-24T08:48:34Z</time>
      </trkpt>
      <trkpt lat="42.8690480" lon="-8.5616650">
        <ele>212.3</ele>
        <time>2021-05-24T08:48:35Z</time>
      </trkpt>
      <trkpt lat="42.8690450" lon="-8.5616640">
        <ele>212.3</ele>
        <time>2021-05-24T08:48:36Z</time>
      </trkpt>
      <trkpt lat="42.8690460" lon="-8.5616650">
        <ele>212.3</ele>
        <time>2021-05-24T08:48:37Z</time>
      </trkpt>
      <trkpt lat="42.8690440" lon="-8.5616630">
        <ele>212.3</ele>
        <time>2021-05-24T08:48:38Z</time>
      </trkpt>
      <trkpt lat="42.8690380" lon="-8.5616600">
        <ele>212.3</ele>
        <time>2021-05-24T08:48:39Z</time>
      </trkpt>
      <trkpt lat="42.8690380" lon="-8.5616600">
        <ele>212.3</ele>
        <time>2021-05-24T08:48:40Z</time>
      </trkpt>
      <trkpt lat="42.8690280" lon="-8.5616580">
        <ele>212.3</ele>
        <time>2021-05-24T08:48:41Z</time>
      </trkpt>
      <trkpt lat="42.8690280" lon="-8.5616580">
        <ele>212.3</ele>
        <time>2021-05-24T08:48:42Z</time>
      </trkpt>
      <trkpt lat="42.8690250" lon="-8.5616570">
        <ele>212.3</ele>
        <time>2021-05-24T08:48:43Z</time>
      </trkpt>
      <trkpt lat="42.8690240" lon="-8.5616540">
        <ele>212.3</ele>
        <time>2021-05-24T08:48:44Z</time>
      </trkpt>
      <trkpt lat="42.8690250" lon="-8.5616540">
        <ele>212.3</ele>
        <time>2021-05-24T08:48:45Z</time>
      </trkpt>
      <trkpt lat="42.8690230" lon="-8.5616490">
        <ele>212.3</ele>
        <time>2021-05-24T08:48:46Z</time>
      </trkpt>
      <trkpt lat="42.8690280" lon="-8.5616390">
        <ele>212.3</ele>
        <time>2021-05-24T08:48:47Z</time>
      </trkpt>
      <trkpt lat="42.8690270" lon="-8.5616360">
        <ele>212.3</ele>
        <time>2021-05-24T08:48:48Z</time>
      </trkpt>
      <trkpt lat="42.8690340" lon="-8.5616370">
        <ele>212.3</ele>
        <time>2021-05-24T08:48:49Z</time>
      </trkpt>
      <trkpt lat="42.8690330" lon="-8.5616360">
        <ele>212.3</ele>
        <time>2021-05-24T08:48:50Z</time>
      </trkpt>
      <trkpt lat="42.8690310" lon="-8.5616350">
        <ele>212.3</ele>
        <time>2021-05-24T08:48:51Z</time>
      </trkpt>
      <trkpt lat="42.8690280" lon="-8.5616290">
        <ele>212.3</ele>
        <time>2021-05-24T08:48:52Z</time>
      </trkpt>
      <trkpt lat="42.8690300" lon="-8.5616260">
        <ele>212.3</ele>
        <time>2021-05-24T08:48:53Z</time>
      </trkpt>
      <trkpt lat="42.8690320" lon="-8.5616290">
        <ele>212.3</ele>
        <time>2021-05-24T08:48:54Z</time>
      </trkpt>
      <trkpt lat="42.8690290" lon="-8.5616300">
        <ele>212.3</ele>
        <time>2021-05-24T08:48:55Z</time>
      </trkpt>
      <trkpt lat="42.8690350" lon="-8.5616240">
        <ele>212.3</ele>
        <time>2021-05-24T08:48:56Z</time>
      </trkpt>
      <trkpt lat="42.8690440" lon="-8.5616390">
        <ele>212.3</ele>
        <time>2021-05-24T08:48:57Z</time>
      </trkpt>
      <trkpt lat="42.8690440" lon="-8.5616400">
        <ele>212.3</ele>
        <time>2021-05-24T08:48:58Z</time>
      </trkpt>
      <trkpt lat="42.8690420" lon="-8.5616340">
        <ele>212.3</ele>
        <time>2021-05-24T08:48:59Z</time>
      </trkpt>
      <trkpt lat="42.8690400" lon="-8.5616330">
        <ele>212.3</ele>
        <time>2021-05-24T08:49:00Z</time>
      </trkpt>
      <trkpt lat="42.8690380" lon="-8.5616320">
        <ele>212.3</ele>
        <time>2021-05-24T08:49:01Z</time>
      </trkpt>
      <trkpt lat="42.8690370" lon="-8.5616320">
        <ele>212.3</ele>
        <time>2021-05-24T08:49:02Z</time>
      </trkpt>
      <trkpt lat="42.8690380" lon="-8.5616370">
        <ele>212.3</ele>
        <time>2021-05-24T08:49:03Z</time>
      </trkpt>
      <trkpt lat="42.8690400" lon="-8.5616340">
        <ele>212.3</ele>
        <time>2021-05-24T08:49:04Z</time>
      </trkpt>
      <trkpt lat="42.8690430" lon="-8.5616310">
        <ele>212.3</ele>
        <time>2021-05-24T08:49:05Z</time>
      </trkpt>
      <trkpt lat="42.8690510" lon="-8.5616280">
        <ele>212.3</ele>
        <time>2021-05-24T08:49:06Z</time>
      </trkpt>
      <trkpt lat="42.8690560" lon="-8.5616270">
        <ele>212.3</ele>
        <time>2021-05-24T08:49:07Z</time>
      </trkpt>
      <trkpt lat="42.8690600" lon="-8.5616200">
        <ele>212.3</ele>
        <time>2021-05-24T08:49:08Z</time>
      </trkpt>
      <trkpt lat="42.8690620" lon="-8.5616130">
        <ele>212.3</ele>
        <time>2021-05-24T08:49:09Z</time>
      </trkpt>
      <trkpt lat="42.8690660" lon="-8.5616040">
        <ele>212.3</ele>
        <time>2021-05-24T08:49:10Z</time>
      </trkpt>
      <trkpt lat="42.8690680" lon="-8.5615970">
        <ele>212.3</ele>
        <time>2021-05-24T08:49:11Z</time>
      </trkpt>
      <trkpt lat="42.8690750" lon="-8.5615900">
        <ele>212.3</ele>
        <time>2021-05-24T08:49:12Z</time>
      </trkpt>
      <trkpt lat="42.8690780" lon="-8.5615870">
        <ele>212.3</ele>
        <time>2021-05-24T08:49:13Z</time>
      </trkpt>
      <trkpt lat="42.8690820" lon="-8.5615830">
        <ele>212.3</ele>
        <time>2021-05-24T08:49:14Z</time>
      </trkpt>
      <trkpt lat="42.8690850" lon="-8.5615790">
        <ele>212.3</ele>
        <time>2021-05-24T08:49:15Z</time>
      </trkpt>
      <trkpt lat="42.8690890" lon="-8.5615760">
        <ele>212.3</ele>
        <time>2021-05-24T08:49:16Z</time>
      </trkpt>
      <trkpt lat="42.8690920" lon="-8.5615720">
        <ele>212.3</ele>
        <time>2021-05-24T08:49:17Z</time>
      </trkpt>
      <trkpt lat="42.8690960" lon="-8.5615680">
        <ele>212.3</ele>
        <time>2021-05-24T08:49:18Z</time>
      </trkpt>
      <trkpt lat="42.8690990" lon="-8.5615650">
        <ele>212.3</ele>
        <time>2021-05-24T08:49:19Z</time>
      </trkpt>
      <trkpt lat="42.8691030" lon="-8.5615610">
        <ele>212.3</ele>
        <time>2021-05-24T08:49:20Z</time>
      </trkpt>
      <trkpt lat="42.8691140" lon="-8.5615470">
        <ele>212.3</ele>
        <time>2021-05-24T08:49:21Z</time>
      </trkpt>
      <trkpt lat="42.8691200" lon="-8.5615300">
        <ele>212.3</ele>
        <time>2021-05-24T08:49:22Z</time>
      </trkpt>
      <trkpt lat="42.8691290" lon="-8.5615200">
        <ele>212.3</ele>
        <time>2021-05-24T08:49:23Z</time>
      </trkpt>
      <trkpt lat="42.8691360" lon="-8.5615080">
        <ele>212.3</ele>
        <time>2021-05-24T08:49:24Z</time>
      </trkpt>
      <trkpt lat="42.8691390" lon="-8.5614950">
        <ele>212.3</ele>
        <time>2021-05-24T08:49:25Z</time>
      </trkpt>
      <trkpt lat="42.8691510" lon="-8.5614740">
        <ele>212.3</ele>
        <time>2021-05-24T08:49:26Z</time>
      </trkpt>
      <trkpt lat="42.8691560" lon="-8.5614700">
        <ele>212.3</ele>
        <time>2021-05-24T08:49:27Z</time>
      </trkpt>
      <trkpt lat="42.8691530" lon="-8.5614640">
        <ele>212.3</ele>
        <time>2021-05-24T08:49:28Z</time>
      </trkpt>
      <trkpt lat="42.8691640" lon="-8.5614500">
        <ele>212.3</ele>
        <time>2021-05-24T08:49:29Z</time>
      </trkpt>
      <trkpt lat="42.8691730" lon="-8.5614320">
        <ele>212.3</ele>
        <time>2021-05-24T08:49:30Z</time>
      </trkpt>
      <trkpt lat="42.8691760" lon="-8.5614210">
        <ele>212.3</ele>
        <time>2021-05-24T08:49:31Z</time>
      </trkpt>
      <trkpt lat="42.8691820" lon="-8.5614060">
        <ele>212.3</ele>
        <time>2021-05-24T08:49:32Z</time>
      </trkpt>
      <trkpt lat="42.8691840" lon="-8.5613920">
        <ele>212.3</ele>
        <time>2021-05-24T08:49:33Z</time>
      </trkpt>
      <trkpt lat="42.8691830" lon="-8.5613880">
        <ele>212.4</ele>
        <time>2021-05-24T08:49:34Z</time>
      </trkpt>
      <trkpt lat="42.8691780" lon="-8.5613720">
        <ele>212.4</ele>
        <time>2021-05-24T08:49:35Z</time>
      </trkpt>
      <trkpt lat="42.8691700" lon="-8.5613640">
        <ele>212.4</ele>
        <time>2021-05-24T08:49:36Z</time>
      </trkpt>
      <trkpt lat="42.8691640" lon="-8.5613580">
        <ele>212.4</ele>
        <time>2021-05-24T08:49:37Z</time>
      </trkpt>
      <trkpt lat="42.8691600" lon="-8.5613550">
        <ele>212.4</ele>
        <time>2021-05-24T08:49:38Z</time>
      </trkpt>
      <trkpt lat="42.8691630" lon="-8.5613570">
        <ele>212.4</ele>
        <time>2021-05-24T08:49:39Z</time>
      </trkpt>
      <trkpt lat="42.8691620" lon="-8.5613280">
        <ele>212.4</ele>
        <time>2021-05-24T08:49:40Z</time>
      </trkpt>
      <trkpt lat="42.8691650" lon="-8.5613180">
        <ele>212.5</ele>
        <time>2021-05-24T08:49:41Z</time>
      </trkpt>
      <trkpt lat="42.8691700" lon="-8.5612890">
        <ele>212.5</ele>
        <time>2021-05-24T08:49:42Z</time>
      </trkpt>
      <trkpt lat="42.8691700" lon="-8.5612750">
        <ele>212.5</ele>
        <time>2021-05-24T08:49:43Z</time>
      </trkpt>
      <trkpt lat="42.8691690" lon="-8.5612620">
        <ele>212.6</ele>
        <time>2021-05-24T08:49:44Z</time>
      </trkpt>
      <trkpt lat="42.8691740" lon="-8.5612450">
        <ele>212.6</ele>
        <time>2021-05-24T08:49:45Z</time>
      </trkpt>
      <trkpt lat="42.8691740" lon="-8.5612410">
        <ele>212.6</ele>
        <time>2021-05-24T08:49:46Z</time>
      </trkpt>
      <trkpt lat="42.8691830" lon="-8.5612230">
        <ele>212.7</ele>
        <time>2021-05-24T08:49:47Z</time>
      </trkpt>
      <trkpt lat="42.8691960" lon="-8.5612060">
        <ele>212.7</ele>
        <time>2021-05-24T08:49:48Z</time>
      </trkpt>
      <trkpt lat="42.8692030" lon="-8.5611980">
        <ele>212.7</ele>
        <time>2021-05-24T08:49:49Z</time>
      </trkpt>
      <trkpt lat="42.8692110" lon="-8.5611910">
        <ele>212.7</ele>
        <time>2021-05-24T08:49:50Z</time>
      </trkpt>
      <trkpt lat="42.8692240" lon="-8.5611740">
        <ele>212.8</ele>
        <time>2021-05-24T08:49:51Z</time>
      </trkpt>
      <trkpt lat="42.8692320" lon="-8.5611660">
        <ele>212.8</ele>
        <time>2021-05-24T08:49:52Z</time>
      </trkpt>
      <trkpt lat="42.8692400" lon="-8.5611530">
        <ele>212.8</ele>
        <time>2021-05-24T08:49:53Z</time>
      </trkpt>
      <trkpt lat="42.8692500" lon="-8.5611370">
        <ele>212.8</ele>
        <time>2021-05-24T08:49:54Z</time>
      </trkpt>
      <trkpt lat="42.8692540" lon="-8.5611270">
        <ele>212.8</ele>
        <time>2021-05-24T08:49:55Z</time>
      </trkpt>
      <trkpt lat="42.8692660" lon="-8.5611140">
        <ele>212.9</ele>
        <time>2021-05-24T08:49:56Z</time>
      </trkpt>
      <trkpt lat="42.8692720" lon="-8.5611010">
        <ele>212.9</ele>
        <time>2021-05-24T08:49:57Z</time>
      </trkpt>
      <trkpt lat="42.8692890" lon="-8.5610890">
        <ele>213.0</ele>
        <time>2021-05-24T08:49:58Z</time>
      </trkpt>
      <trkpt lat="42.8692980" lon="-8.5610800">
        <ele>213.0</ele>
        <time>2021-05-24T08:49:59Z</time>
      </trkpt>
      <trkpt lat="42.8693060" lon="-8.5610710">
        <ele>213.0</ele>
        <time>2021-05-24T08:50:00Z</time>
      </trkpt>
      <trkpt lat="42.8693110" lon="-8.5610550">
        <ele>213.0</ele>
        <time>2021-05-24T08:50:01Z</time>
      </trkpt>
      <trkpt lat="42.8693210" lon="-8.5610460">
        <ele>213.1</ele>
        <time>2021-05-24T08:50:02Z</time>
      </trkpt>
      <trkpt lat="42.8693270" lon="-8.5610340">
        <ele>213.1</ele>
        <time>2021-05-24T08:50:03Z</time>
      </trkpt>
      <trkpt lat="42.8693420" lon="-8.5610260">
        <ele>213.1</ele>
        <time>2021-05-24T08:50:04Z</time>
      </trkpt>
      <trkpt lat="42.8693500" lon="-8.5610200">
        <ele>213.1</ele>
        <time>2021-05-24T08:50:05Z</time>
      </trkpt>
      <trkpt lat="42.8693580" lon="-8.5610110">
        <ele>213.2</ele>
        <time>2021-05-24T08:50:06Z</time>
      </trkpt>
      <trkpt lat="42.8693730" lon="-8.5609890">
        <ele>213.2</ele>
        <time>2021-05-24T08:50:07Z</time>
      </trkpt>
      <trkpt lat="42.8693770" lon="-8.5609810">
        <ele>213.2</ele>
        <time>2021-05-24T08:50:08Z</time>
      </trkpt>
      <trkpt lat="42.8693820" lon="-8.5609730">
        <ele>213.2</ele>
        <time>2021-05-24T08:50:09Z</time>
      </trkpt>
      <trkpt lat="42.8693980" lon="-8.5609600">
        <ele>213.3</ele>
        <time>2021-05-24T08:50:10Z</time>
      </trkpt>
      <trkpt lat="42.8694060" lon="-8.5609470">
        <ele>213.3</ele>
        <time>2021-05-24T08:50:11Z</time>
      </trkpt>
      <trkpt lat="42.8694140" lon="-8.5609290">
        <ele>213.3</ele>
        <time>2021-05-24T08:50:12Z</time>
      </trkpt>
      <trkpt lat="42.8694220" lon="-8.5609140">
        <ele>213.3</ele>
        <time>2021-05-24T08:50:13Z</time>
      </trkpt>
      <trkpt lat="42.8694300" lon="-8.5608990">
        <ele>213.4</ele>
        <time>2021-05-24T08:50:14Z</time>
      </trkpt>
      <trkpt lat="42.8694390" lon="-8.5608790">
        <ele>213.4</ele>
        <time>2021-05-24T08:50:15Z</time>
      </trkpt>
      <trkpt lat="42.8694460" lon="-8.5608530">
        <ele>213.4</ele>
        <time>2021-05-24T08:50:16Z</time>
      </trkpt>
      <trkpt lat="42.8694510" lon="-8.5608440">
        <ele>213.4</ele>
        <time>2021-05-24T08:50:17Z</time>
      </trkpt>
      <trkpt lat="42.8694550" lon="-8.5608340">
        <ele>213.5</ele>
        <time>2021-05-24T08:50:18Z</time>
      </trkpt>
      <trkpt lat="42.8694720" lon="-8.5608170">
        <ele>213.5</ele>
        <time>2021-05-24T08:50:19Z</time>
      </trkpt>
      <trkpt lat="42.8694770" lon="-8.5608080">
        <ele>213.5</ele>
        <time>2021-05-24T08:50:20Z</time>
      </trkpt>
      <trkpt lat="42.8694830" lon="-8.5607990">
        <ele>213.5</ele>
        <time>2021-05-24T08:50:21Z</time>
      </trkpt>
      <trkpt lat="42.8694880" lon="-8.5607780">
        <ele>213.5</ele>
        <time>2021-05-24T08:50:22Z</time>
      </trkpt>
      <trkpt lat="42.8694950" lon="-8.5607650">
        <ele>213.6</ele>
        <time>2021-05-24T08:50:23Z</time>
      </trkpt>
      <trkpt lat="42.8695120" lon="-8.5607480">
        <ele>213.6</ele>
        <time>2021-05-24T08:50:24Z</time>
      </trkpt>
      <trkpt lat="42.8695180" lon="-8.5607420">
        <ele>213.6</ele>
        <time>2021-05-24T08:50:25Z</time>
      </trkpt>
      <trkpt lat="42.8695250" lon="-8.5607360">
        <ele>213.7</ele>
        <time>2021-05-24T08:50:26Z</time>
      </trkpt>
      <trkpt lat="42.8695380" lon="-8.5607180">
        <ele>213.7</ele>
        <time>2021-05-24T08:50:27Z</time>
      </trkpt>
      <trkpt lat="42.8695450" lon="-8.5606980">
        <ele>213.7</ele>
        <time>2021-05-24T08:50:28Z</time>
      </trkpt>
      <trkpt lat="42.8695570" lon="-8.5606970">
        <ele>213.8</ele>
        <time>2021-05-24T08:50:29Z</time>
      </trkpt>
      <trkpt lat="42.8695590" lon="-8.5606860">
        <ele>213.8</ele>
        <time>2021-05-24T08:50:30Z</time>
      </trkpt>
      <trkpt lat="42.8695660" lon="-8.5606690">
        <ele>213.8</ele>
        <time>2021-05-24T08:50:31Z</time>
      </trkpt>
      <trkpt lat="42.8695800" lon="-8.5606370">
        <ele>213.9</ele>
        <time>2021-05-24T08:50:32Z</time>
      </trkpt>
      <trkpt lat="42.8695860" lon="-8.5606250">
        <ele>213.9</ele>
        <time>2021-05-24T08:50:33Z</time>
      </trkpt>
      <trkpt lat="42.8695940" lon="-8.5606140">
        <ele>213.9</ele>
        <time>2021-05-24T08:50:34Z</time>
      </trkpt>
      <trkpt lat="42.8696000" lon="-8.5605980">
        <ele>214.0</ele>
        <time>2021-05-24T08:50:35Z</time>
      </trkpt>
      <trkpt lat="42.8696080" lon="-8.5605910">
        <ele>214.0</ele>
        <time>2021-05-24T08:50:36Z</time>
      </trkpt>
      <trkpt lat="42.8696230" lon="-8.5605750">
        <ele>214.0</ele>
        <time>2021-05-24T08:50:37Z</time>
      </trkpt>
      <trkpt lat="42.8696300" lon="-8.5605660">
        <ele>214.1</ele>
        <time>2021-05-24T08:50:38Z</time>
      </trkpt>
      <trkpt lat="42.8696360" lon="-8.5605580">
        <ele>214.1</ele>
        <time>2021-05-24T08:50:39Z</time>
      </trkpt>
      <trkpt lat="42.8696480" lon="-8.5605430">
        <ele>214.1</ele>
        <time>2021-05-24T08:50:40Z</time>
      </trkpt>
      <trkpt lat="42.8696610" lon="-8.5605320">
        <ele>214.1</ele>
        <time>2021-05-24T08:50:41Z</time>
      </trkpt>
      <trkpt lat="42.8696750" lon="-8.5605150">
        <ele>214.2</ele>
        <time>2021-05-24T08:50:42Z</time>
      </trkpt>
      <trkpt lat="42.8696840" lon="-8.5605070">
        <ele>214.2</ele>
        <time>2021-05-24T08:50:43Z</time>
      </trkpt>
      <trkpt lat="42.8696930" lon="-8.5604990">
        <ele>214.2</ele>
        <time>2021-05-24T08:50:44Z</time>
      </trkpt>
      <trkpt lat="42.8697060" lon="-8.5604840">
        <ele>214.3</ele>
        <time>2021-05-24T08:50:45Z</time>
      </trkpt>
      <trkpt lat="42.8697130" lon="-8.5604680">
        <ele>214.3</ele>
        <time>2021-05-24T08:50:46Z</time>
      </trkpt>
      <trkpt lat="42.8697220" lon="-8.5604470">
        <ele>214.3</ele>
        <time>2021-05-24T08:50:47Z</time>
      </trkpt>
      <trkpt lat="42.8697270" lon="-8.5604270">
        <ele>214.3</ele>
        <time>2021-05-24T08:50:48Z</time>
      </trkpt>
      <trkpt lat="42.8697370" lon="-8.5604160">
        <ele>214.4</ele>
        <time>2021-05-24T08:50:49Z</time>
      </trkpt>
      <trkpt lat="42.8697450" lon="-8.5604050">
        <ele>214.4</ele>
        <time>2021-05-24T08:50:50Z</time>
      </trkpt>
      <trkpt lat="42.8697470" lon="-8.5603910">
        <ele>214.4</ele>
        <time>2021-05-24T08:50:51Z</time>
      </trkpt>
      <trkpt lat="42.8697540" lon="-8.5603710">
        <ele>214.5</ele>
        <time>2021-05-24T08:50:52Z</time>
      </trkpt>
      <trkpt lat="42.8697600" lon="-8.5603610">
        <ele>214.5</ele>
        <time>2021-05-24T08:50:53Z</time>
      </trkpt>
      <trkpt lat="42.8697640" lon="-8.5603590">
        <ele>214.5</ele>
        <time>2021-05-24T08:50:54Z</time>
      </trkpt>
      <trkpt lat="42.8697580" lon="-8.5603460">
        <ele>214.6</ele>
        <time>2021-05-24T08:50:55Z</time>
      </trkpt>
      <trkpt lat="42.8697650" lon="-8.5603350">
        <ele>214.6</ele>
        <time>2021-05-24T08:50:56Z</time>
      </trkpt>
      <trkpt lat="42.8697710" lon="-8.5603230">
        <ele>214.7</ele>
        <time>2021-05-24T08:50:57Z</time>
      </trkpt>
      <trkpt lat="42.8697810" lon="-8.5602990">
        <ele>214.8</ele>
        <time>2021-05-24T08:50:58Z</time>
      </trkpt>
      <trkpt lat="42.8697850" lon="-8.5602870">
        <ele>214.9</ele>
        <time>2021-05-24T08:50:59Z</time>
      </trkpt>
      <trkpt lat="42.8697880" lon="-8.5602760">
        <ele>214.9</ele>
        <time>2021-05-24T08:51:00Z</time>
      </trkpt>
      <trkpt lat="42.8697940" lon="-8.5602510">
        <ele>215.0</ele>
        <time>2021-05-24T08:51:01Z</time>
      </trkpt>
      <trkpt lat="42.8697970" lon="-8.5602380">
        <ele>215.1</ele>
        <time>2021-05-24T08:51:02Z</time>
      </trkpt>
      <trkpt lat="42.8698010" lon="-8.5602250">
        <ele>215.1</ele>
        <time>2021-05-24T08:51:03Z</time>
      </trkpt>
      <trkpt lat="42.8698040" lon="-8.5602130">
        <ele>215.2</ele>
        <time>2021-05-24T08:51:04Z</time>
      </trkpt>
      <trkpt lat="42.8698070" lon="-8.5602070">
        <ele>215.2</ele>
        <time>2021-05-24T08:51:05Z</time>
      </trkpt>
      <trkpt lat="42.8698110" lon="-8.5601890">
        <ele>215.3</ele>
        <time>2021-05-24T08:51:06Z</time>
      </trkpt>
      <trkpt lat="42.8698150" lon="-8.5601710">
        <ele>215.4</ele>
        <time>2021-05-24T08:51:07Z</time>
      </trkpt>
      <trkpt lat="42.8698090" lon="-8.5601590">
        <ele>215.5</ele>
        <time>2021-05-24T08:51:08Z</time>
      </trkpt>
      <trkpt lat="42.8698180" lon="-8.5601420">
        <ele>215.6</ele>
        <time>2021-05-24T08:51:09Z</time>
      </trkpt>
      <trkpt lat="42.8698180" lon="-8.5601130">
        <ele>215.7</ele>
        <time>2021-05-24T08:51:10Z</time>
      </trkpt>
      <trkpt lat="42.8698240" lon="-8.5601060">
        <ele>215.8</ele>
        <time>2021-05-24T08:51:11Z</time>
      </trkpt>
      <trkpt lat="42.8698220" lon="-8.5600890">
        <ele>215.8</ele>
        <time>2021-05-24T08:51:12Z</time>
      </trkpt>
      <trkpt lat="42.8698250" lon="-8.5600740">
        <ele>215.9</ele>
        <time>2021-05-24T08:51:13Z</time>
      </trkpt>
      <trkpt lat="42.8698340" lon="-8.5600610">
        <ele>216.0</ele>
        <time>2021-05-24T08:51:14Z</time>
      </trkpt>
      <trkpt lat="42.8698420" lon="-8.5600410">
        <ele>216.1</ele>
        <time>2021-05-24T08:51:15Z</time>
      </trkpt>
      <trkpt lat="42.8698470" lon="-8.5600290">
        <ele>216.2</ele>
        <time>2021-05-24T08:51:16Z</time>
      </trkpt>
      <trkpt lat="42.8698530" lon="-8.5600170">
        <ele>216.2</ele>
        <time>2021-05-24T08:51:17Z</time>
      </trkpt>
      <trkpt lat="42.8698610" lon="-8.5600060">
        <ele>216.3</ele>
        <time>2021-05-24T08:51:18Z</time>
      </trkpt>
      <trkpt lat="42.8698620" lon="-8.5599900">
        <ele>216.4</ele>
        <time>2021-05-24T08:51:19Z</time>
      </trkpt>
      <trkpt lat="42.8698660" lon="-8.5599730">
        <ele>216.5</ele>
        <time>2021-05-24T08:51:20Z</time>
      </trkpt>
      <trkpt lat="42.8698620" lon="-8.5599560">
        <ele>216.5</ele>
        <time>2021-05-24T08:51:21Z</time>
      </trkpt>
      <trkpt lat="42.8698590" lon="-8.5599430">
        <ele>216.6</ele>
        <time>2021-05-24T08:51:22Z</time>
      </trkpt>
      <trkpt lat="42.8698560" lon="-8.5599280">
        <ele>216.7</ele>
        <time>2021-05-24T08:51:23Z</time>
      </trkpt>
      <trkpt lat="42.8698520" lon="-8.5599130">
        <ele>216.8</ele>
        <time>2021-05-24T08:51:24Z</time>
      </trkpt>
      <trkpt lat="42.8698440" lon="-8.5599070">
        <ele>216.8</ele>
        <time>2021-05-24T08:51:25Z</time>
      </trkpt>
      <trkpt lat="42.8698310" lon="-8.5598960">
        <ele>216.9</ele>
        <time>2021-05-24T08:51:26Z</time>
      </trkpt>
      <trkpt lat="42.8698170" lon="-8.5598870">
        <ele>217.4</ele>
        <time>2021-05-24T08:51:27Z</time>
      </trkpt>
      <trkpt lat="42.8698050" lon="-8.5598640">
        <ele>217.5</ele>
        <time>2021-05-24T08:51:28Z</time>
      </trkpt>
      <trkpt lat="42.8697950" lon="-8.5598630">
        <ele>217.5</ele>
        <time>2021-05-24T08:51:29Z</time>
      </trkpt>
      <trkpt lat="42.8697890" lon="-8.5598620">
        <ele>217.5</ele>
        <time>2021-05-24T08:51:30Z</time>
      </trkpt>
      <trkpt lat="42.8697880" lon="-8.5598570">
        <ele>217.5</ele>
        <time>2021-05-24T08:51:31Z</time>
      </trkpt>
      <trkpt lat="42.8697790" lon="-8.5598460">
        <ele>217.5</ele>
        <time>2021-05-24T08:51:32Z</time>
      </trkpt>
      <trkpt lat="42.8697690" lon="-8.5598370">
        <ele>217.6</ele>
        <time>2021-05-24T08:51:33Z</time>
      </trkpt>
      <trkpt lat="42.8697540" lon="-8.5598320">
        <ele>217.6</ele>
        <time>2021-05-24T08:51:34Z</time>
      </trkpt>
      <trkpt lat="42.8697510" lon="-8.5598180">
        <ele>217.6</ele>
        <time>2021-05-24T08:51:35Z</time>
      </trkpt>
      <trkpt lat="42.8697350" lon="-8.5597970">
        <ele>217.7</ele>
        <time>2021-05-24T08:51:36Z</time>
      </trkpt>
      <trkpt lat="42.8697260" lon="-8.5597900">
        <ele>217.7</ele>
        <time>2021-05-24T08:51:37Z</time>
      </trkpt>
      <trkpt lat="42.8697160" lon="-8.5597840">
        <ele>217.7</ele>
        <time>2021-05-24T08:51:38Z</time>
      </trkpt>
      <trkpt lat="42.8697030" lon="-8.5597670">
        <ele>217.7</ele>
        <time>2021-05-24T08:51:39Z</time>
      </trkpt>
      <trkpt lat="42.8696990" lon="-8.5597660">
        <ele>217.7</ele>
        <time>2021-05-24T08:51:40Z</time>
      </trkpt>
      <trkpt lat="42.8696870" lon="-8.5597570">
        <ele>217.7</ele>
        <time>2021-05-24T08:51:41Z</time>
      </trkpt>
      <trkpt lat="42.8696770" lon="-8.5597530">
        <ele>217.8</ele>
        <time>2021-05-24T08:51:42Z</time>
      </trkpt>
      <trkpt lat="42.8696630" lon="-8.5597530">
        <ele>217.8</ele>
        <time>2021-05-24T08:51:43Z</time>
      </trkpt>
      <trkpt lat="42.8696530" lon="-8.5597500">
        <ele>217.8</ele>
        <time>2021-05-24T08:51:44Z</time>
      </trkpt>
      <trkpt lat="42.8696430" lon="-8.5597300">
        <ele>217.8</ele>
        <time>2021-05-24T08:51:45Z</time>
      </trkpt>
      <trkpt lat="42.8696440" lon="-8.5597140">
        <ele>217.8</ele>
        <time>2021-05-24T08:51:46Z</time>
      </trkpt>
      <trkpt lat="42.8696330" lon="-8.5596900">
        <ele>217.9</ele>
        <time>2021-05-24T08:51:47Z</time>
      </trkpt>
      <trkpt lat="42.8696300" lon="-8.5596790">
        <ele>217.9</ele>
        <time>2021-05-24T08:51:48Z</time>
      </trkpt>
      <trkpt lat="42.8696270" lon="-8.5596680">
        <ele>217.9</ele>
        <time>2021-05-24T08:51:49Z</time>
      </trkpt>
      <trkpt lat="42.8696140" lon="-8.5596490">
        <ele>217.9</ele>
        <time>2021-05-24T08:51:50Z</time>
      </trkpt>
      <trkpt lat="42.8696040" lon="-8.5596300">
        <ele>217.9</ele>
        <time>2021-05-24T08:51:51Z</time>
      </trkpt>
      <trkpt lat="42.8695900" lon="-8.5596220">
        <ele>217.9</ele>
        <time>2021-05-24T08:51:52Z</time>
      </trkpt>
      <trkpt lat="42.8695810" lon="-8.5595970">
        <ele>217.9</ele>
        <time>2021-05-24T08:51:53Z</time>
      </trkpt>
      <trkpt lat="42.8695770" lon="-8.5595750">
        <ele>218.0</ele>
        <time>2021-05-24T08:51:54Z</time>
      </trkpt>
      <trkpt lat="42.8695610" lon="-8.5595580">
        <ele>218.0</ele>
        <time>2021-05-24T08:51:55Z</time>
      </trkpt>
      <trkpt lat="42.8695700" lon="-8.5595330">
        <ele>218.0</ele>
        <time>2021-05-24T08:51:56Z</time>
      </trkpt>
      <trkpt lat="42.8695630" lon="-8.5595180">
        <ele>218.0</ele>
        <time>2021-05-24T08:51:57Z</time>
      </trkpt>
      <trkpt lat="42.8695720" lon="-8.5594850">
        <ele>218.3</ele>
        <time>2021-05-24T08:51:58Z</time>
      </trkpt>
      <trkpt lat="42.8695730" lon="-8.5594810">
        <ele>218.3</ele>
        <time>2021-05-24T08:51:59Z</time>
      </trkpt>
      <trkpt lat="42.8695730" lon="-8.5594770">
        <ele>218.3</ele>
        <time>2021-05-24T08:52:00Z</time>
      </trkpt>
      <trkpt lat="42.8695740" lon="-8.5594730">
        <ele>218.3</ele>
        <time>2021-05-24T08:52:01Z</time>
      </trkpt>
      <trkpt lat="42.8695740" lon="-8.5594690">
        <ele>218.3</ele>
        <time>2021-05-24T08:52:02Z</time>
      </trkpt>
      <trkpt lat="42.8695750" lon="-8.5594650">
        <ele>218.3</ele>
        <time>2021-05-24T08:52:03Z</time>
      </trkpt>
      <trkpt lat="42.8695750" lon="-8.5594610">
        <ele>218.4</ele>
        <time>2021-05-24T08:52:04Z</time>
      </trkpt>
      <trkpt lat="42.8695760" lon="-8.5594570">
        <ele>218.4</ele>
        <time>2021-05-24T08:52:05Z</time>
      </trkpt>
      <trkpt lat="42.8695760" lon="-8.5594540">
        <ele>218.4</ele>
        <time>2021-05-24T08:52:06Z</time>
      </trkpt>
      <trkpt lat="42.8695770" lon="-8.5594500">
        <ele>218.4</ele>
        <time>2021-05-24T08:52:07Z</time>
      </trkpt>
      <trkpt lat="42.8695770" lon="-8.5594460">
        <ele>218.4</ele>
        <time>2021-05-24T08:52:08Z</time>
      </trkpt>
      <trkpt lat="42.8695780" lon="-8.5594420">
        <ele>218.4</ele>
        <time>2021-05-24T08:52:09Z</time>
      </trkpt>
      <trkpt lat="42.8695780" lon="-8.5594380">
        <ele>218.4</ele>
        <time>2021-05-24T08:52:10Z</time>
      </trkpt>
      <trkpt lat="42.8695790" lon="-8.5594340">
        <ele>218.5</ele>
        <time>2021-05-24T08:52:11Z</time>
      </trkpt>
      <trkpt lat="42.8695790" lon="-8.5594300">
        <ele>218.5</ele>
        <time>2021-05-24T08:52:12Z</time>
      </trkpt>
      <trkpt lat="42.8695800" lon="-8.5594260">
        <ele>218.5</ele>
        <time>2021-05-24T08:52:13Z</time>
      </trkpt>
      <trkpt lat="42.8695800" lon="-8.5594220">
        <ele>218.5</ele>
        <time>2021-05-24T08:52:14Z</time>
      </trkpt>
      <trkpt lat="42.8695810" lon="-8.5594180">
        <ele>218.5</ele>
        <time>2021-05-24T08:52:15Z</time>
      </trkpt>
      <trkpt lat="42.8695810" lon="-8.5594140">
        <ele>218.5</ele>
        <time>2021-05-24T08:52:16Z</time>
      </trkpt>
      <trkpt lat="42.8695820" lon="-8.5594100">
        <ele>218.5</ele>
        <time>2021-05-24T08:52:17Z</time>
      </trkpt>
      <trkpt lat="42.8695820" lon="-8.5594060">
        <ele>218.6</ele>
        <time>2021-05-24T08:52:18Z</time>
      </trkpt>
      <trkpt lat="42.8695830" lon="-8.5594020">
        <ele>218.6</ele>
        <time>2021-05-24T08:52:19Z</time>
      </trkpt>
      <trkpt lat="42.8695830" lon="-8.5593980">
        <ele>218.6</ele>
        <time>2021-05-24T08:52:20Z</time>
      </trkpt>
      <trkpt lat="42.8695840" lon="-8.5593940">
        <ele>218.6</ele>
        <time>2021-05-24T08:52:21Z</time>
      </trkpt>
      <trkpt lat="42.8695840" lon="-8.5593900">
        <ele>218.6</ele>
        <time>2021-05-24T08:52:22Z</time>
      </trkpt>
      <trkpt lat="42.8695850" lon="-8.5593870">
        <ele>218.6</ele>
        <time>2021-05-24T08:52:23Z</time>
      </trkpt>
      <trkpt lat="42.8695850" lon="-8.5593830">
        <ele>218.6</ele>
        <time>2021-05-24T08:52:24Z</time>
      </trkpt>
      <trkpt lat="42.8695860" lon="-8.5593790">
        <ele>218.7</ele>
        <time>2021-05-24T08:52:25Z</time>
      </trkpt>
      <trkpt lat="42.8695860" lon="-8.5593750">
        <ele>218.7</ele>
        <time>2021-05-24T08:52:26Z</time>
      </trkpt>
      <trkpt lat="42.8695870" lon="-8.5593710">
        <ele>218.7</ele>
        <time>2021-05-24T08:52:27Z</time>
      </trkpt>
      <trkpt lat="42.8695870" lon="-8.5593670">
        <ele>218.7</ele>
        <time>2021-05-24T08:52:28Z</time>
      </trkpt>
      <trkpt lat="42.8695880" lon="-8.5593630">
        <ele>218.7</ele>
        <time>2021-05-24T08:52:29Z</time>
      </trkpt>
      <trkpt lat="42.8695880" lon="-8.5593590">
        <ele>218.7</ele>
        <time>2021-05-24T08:52:30Z</time>
      </trkpt>
      <trkpt lat="42.8695890" lon="-8.5593550">
        <ele>218.7</ele>
        <time>2021-05-24T08:52:31Z</time>
      </trkpt>
      <trkpt lat="42.8695890" lon="-8.5593510">
        <ele>218.8</ele>
        <time>2021-05-24T08:52:32Z</time>
      </trkpt>
      <trkpt lat="42.8695900" lon="-8.5593470">
        <ele>218.8</ele>
        <time>2021-05-24T08:52:33Z</time>
      </trkpt>
      <trkpt lat="42.8695900" lon="-8.5593430">
        <ele>218.8</ele>
        <time>2021-05-24T08:52:34Z</time>
      </trkpt>
      <trkpt lat="42.8695910" lon="-8.5593390">
        <ele>218.8</ele>
        <time>2021-05-24T08:52:35Z</time>
      </trkpt>
      <trkpt lat="42.8695910" lon="-8.5593350">
        <ele>218.8</ele>
        <time>2021-05-24T08:52:36Z</time>
      </trkpt>
      <trkpt lat="42.8695920" lon="-8.5593310">
        <ele>218.8</ele>
        <time>2021-05-24T08:52:37Z</time>
      </trkpt>
      <trkpt lat="42.8695920" lon="-8.5593270">
        <ele>218.8</ele>
        <time>2021-05-24T08:52:38Z</time>
      </trkpt>
      <trkpt lat="42.8695930" lon="-8.5593230">
        <ele>218.9</ele>
        <time>2021-05-24T08:52:39Z</time>
      </trkpt>
      <trkpt lat="42.8695930" lon="-8.5593200">
        <ele>218.9</ele>
        <time>2021-05-24T08:52:40Z</time>
      </trkpt>
      <trkpt lat="42.8695940" lon="-8.5593160">
        <ele>218.9</ele>
        <time>2021-05-24T08:52:41Z</time>
      </trkpt>
      <trkpt lat="42.8695940" lon="-8.5593120">
        <ele>218.9</ele>
        <time>2021-05-24T08:52:42Z</time>
      </trkpt>
      <trkpt lat="42.8695950" lon="-8.5593080">
        <ele>218.9</ele>
        <time>2021-05-24T08:52:43Z</time>
      </trkpt>
      <trkpt lat="42.8695950" lon="-8.5593040">
        <ele>218.9</ele>
        <time>2021-05-24T08:52:44Z</time>
      </trkpt>
      <trkpt lat="42.8695960" lon="-8.5593000">
        <ele>218.9</ele>
        <time>2021-05-24T08:52:45Z</time>
      </trkpt>
      <trkpt lat="42.8695960" lon="-8.5592960">
        <ele>218.9</ele>
        <time>2021-05-24T08:52:46Z</time>
      </trkpt>
      <trkpt lat="42.8695970" lon="-8.5592920">
        <ele>219.0</ele>
        <time>2021-05-24T08:52:47Z</time>
      </trkpt>
      <trkpt lat="42.8695970" lon="-8.5592880">
        <ele>219.0</ele>
        <time>2021-05-24T08:52:48Z</time>
      </trkpt>
      <trkpt lat="42.8696110" lon="-8.5592700">
        <ele>219.1</ele>
        <time>2021-05-24T08:52:49Z</time>
      </trkpt>
      <trkpt lat="42.8696190" lon="-8.5592640">
        <ele>219.1</ele>
        <time>2021-05-24T08:52:50Z</time>
      </trkpt>
      <trkpt lat="42.8696260" lon="-8.5592580">
        <ele>219.1</ele>
        <time>2021-05-24T08:52:51Z</time>
      </trkpt>
      <trkpt lat="42.8696380" lon="-8.5592480">
        <ele>219.2</ele>
        <time>2021-05-24T08:52:52Z</time>
      </trkpt>
      <trkpt lat="42.8696500" lon="-8.5592320">
        <ele>219.3</ele>
        <time>2021-05-24T08:52:53Z</time>
      </trkpt>
      <trkpt lat="42.8696560" lon="-8.5592270">
        <ele>219.3</ele>
        <time>2021-05-24T08:52:54Z</time>
      </trkpt>
      <trkpt lat="42.8696710" lon="-8.5592140">
        <ele>219.4</ele>
        <time>2021-05-24T08:52:55Z</time>
      </trkpt>
      <trkpt lat="42.8696750" lon="-8.5592080">
        <ele>219.5</ele>
        <time>2021-05-24T08:52:56Z</time>
      </trkpt>
      <trkpt lat="42.8696870" lon="-8.5591880">
        <ele>219.6</ele>
        <time>2021-05-24T08:52:57Z</time>
      </trkpt>
      <trkpt lat="42.8696970" lon="-8.5591760">
        <ele>219.6</ele>
        <time>2021-05-24T08:52:58Z</time>
      </trkpt>
      <trkpt lat="42.8697080" lon="-8.5591630">
        <ele>219.7</ele>
        <time>2021-05-24T08:52:59Z</time>
      </trkpt>
      <trkpt lat="42.8697120" lon="-8.5591570">
        <ele>219.7</ele>
        <time>2021-05-24T08:53:00Z</time>
      </trkpt>
      <trkpt lat="42.8697200" lon="-8.5591430">
        <ele>219.8</ele>
        <time>2021-05-24T08:53:01Z</time>
      </trkpt>
      <trkpt lat="42.8697340" lon="-8.5591290">
        <ele>219.9</ele>
        <time>2021-05-24T08:53:02Z</time>
      </trkpt>
      <trkpt lat="42.8697520" lon="-8.5591210">
        <ele>220.0</ele>
        <time>2021-05-24T08:53:03Z</time>
      </trkpt>
      <trkpt lat="42.8697610" lon="-8.5591210">
        <ele>220.0</ele>
        <time>2021-05-24T08:53:04Z</time>
      </trkpt>
      <trkpt lat="42.8697660" lon="-8.5591010">
        <ele>220.1</ele>
        <time>2021-05-24T08:53:05Z</time>
      </trkpt>
      <trkpt lat="42.8697680" lon="-8.5590850">
        <ele>220.2</ele>
        <time>2021-05-24T08:53:06Z</time>
      </trkpt>
      <trkpt lat="42.8697790" lon="-8.5590550">
        <ele>220.3</ele>
        <time>2021-05-24T08:53:07Z</time>
      </trkpt>
      <trkpt lat="42.8697810" lon="-8.5590450">
        <ele>220.3</ele>
        <time>2021-05-24T08:53:08Z</time>
      </trkpt>
      <trkpt lat="42.8697840" lon="-8.5590360">
        <ele>220.4</ele>
        <time>2021-05-24T08:53:09Z</time>
      </trkpt>
      <trkpt lat="42.8697890" lon="-8.5590280">
        <ele>220.4</ele>
        <time>2021-05-24T08:53:10Z</time>
      </trkpt>
      <trkpt lat="42.8697980" lon="-8.5590140">
        <ele>220.5</ele>
        <time>2021-05-24T08:53:11Z</time>
      </trkpt>
      <trkpt lat="42.8698120" lon="-8.5590040">
        <ele>220.5</ele>
        <time>2021-05-24T08:53:12Z</time>
      </trkpt>
      <trkpt lat="42.8698240" lon="-8.5589890">
        <ele>220.6</ele>
        <time>2021-05-24T08:53:13Z</time>
      </trkpt>
      <trkpt lat="42.8698300" lon="-8.5589830">
        <ele>220.7</ele>
        <time>2021-05-24T08:53:14Z</time>
      </trkpt>
      <trkpt lat="42.8698360" lon="-8.5589760">
        <ele>220.7</ele>
        <time>2021-05-24T08:53:15Z</time>
      </trkpt>
      <trkpt lat="42.8698420" lon="-8.5589690">
        <ele>220.7</ele>
        <time>2021-05-24T08:53:16Z</time>
      </trkpt>
      <trkpt lat="42.8698590" lon="-8.5589540">
        <ele>220.8</ele>
        <time>2021-05-24T08:53:17Z</time>
      </trkpt>
      <trkpt lat="42.8698670" lon="-8.5589480">
        <ele>220.9</ele>
        <time>2021-05-24T08:53:18Z</time>
      </trkpt>
      <trkpt lat="42.8698740" lon="-8.5589420">
        <ele>220.9</ele>
        <time>2021-05-24T08:53:19Z</time>
      </trkpt>
      <trkpt lat="42.8698740" lon="-8.5589330">
        <ele>221.0</ele>
        <time>2021-05-24T08:53:20Z</time>
      </trkpt>
      <trkpt lat="42.8698820" lon="-8.5589160">
        <ele>221.0</ele>
        <time>2021-05-24T08:53:21Z</time>
      </trkpt>
      <trkpt lat="42.8698920" lon="-8.5589080">
        <ele>221.1</ele>
        <time>2021-05-24T08:53:22Z</time>
      </trkpt>
      <trkpt lat="42.8698960" lon="-8.5588820">
        <ele>221.2</ele>
        <time>2021-05-24T08:53:23Z</time>
      </trkpt>
      <trkpt lat="42.8699010" lon="-8.5588720">
        <ele>221.2</ele>
        <time>2021-05-24T08:53:24Z</time>
      </trkpt>
      <trkpt lat="42.8699070" lon="-8.5588610">
        <ele>221.3</ele>
        <time>2021-05-24T08:53:25Z</time>
      </trkpt>
      <trkpt lat="42.8699120" lon="-8.5588550">
        <ele>221.3</ele>
        <time>2021-05-24T08:53:26Z</time>
      </trkpt>
      <trkpt lat="42.8699170" lon="-8.5588480">
        <ele>221.3</ele>
        <time>2021-05-24T08:53:27Z</time>
      </trkpt>
      <trkpt lat="42.8699270" lon="-8.5588350">
        <ele>221.4</ele>
        <time>2021-05-24T08:53:28Z</time>
      </trkpt>
      <trkpt lat="42.8699390" lon="-8.5588150">
        <ele>221.5</ele>
        <time>2021-05-24T08:53:29Z</time>
      </trkpt>
      <trkpt lat="42.8699470" lon="-8.5588060">
        <ele>221.6</ele>
        <time>2021-05-24T08:53:30Z</time>
      </trkpt>
      <trkpt lat="42.8699540" lon="-8.5587940">
        <ele>221.6</ele>
        <time>2021-05-24T08:53:31Z</time>
      </trkpt>
      <trkpt lat="42.8699600" lon="-8.5587860">
        <ele>221.6</ele>
        <time>2021-05-24T08:53:32Z</time>
      </trkpt>
      <trkpt lat="42.8699700" lon="-8.5587760">
        <ele>221.7</ele>
        <time>2021-05-24T08:53:33Z</time>
      </trkpt>
      <trkpt lat="42.8699820" lon="-8.5587550">
        <ele>221.8</ele>
        <time>2021-05-24T08:53:34Z</time>
      </trkpt>
      <trkpt lat="42.8699890" lon="-8.5587460">
        <ele>221.8</ele>
        <time>2021-05-24T08:53:35Z</time>
      </trkpt>
      <trkpt lat="42.8700010" lon="-8.5587290">
        <ele>221.9</ele>
        <time>2021-05-24T08:53:36Z</time>
      </trkpt>
      <trkpt lat="42.8700140" lon="-8.5587270">
        <ele>222.0</ele>
        <time>2021-05-24T08:53:37Z</time>
      </trkpt>
      <trkpt lat="42.8700140" lon="-8.5587010">
        <ele>222.1</ele>
        <time>2021-05-24T08:53:38Z</time>
      </trkpt>
      <trkpt lat="42.8700200" lon="-8.5586900">
        <ele>222.1</ele>
        <time>2021-05-24T08:53:39Z</time>
      </trkpt>
      <trkpt lat="42.8700270" lon="-8.5586780">
        <ele>222.2</ele>
        <time>2021-05-24T08:53:40Z</time>
      </trkpt>
      <trkpt lat="42.8700420" lon="-8.5586730">
        <ele>222.2</ele>
        <time>2021-05-24T08:53:41Z</time>
      </trkpt>
      <trkpt lat="42.8700520" lon="-8.5586630">
        <ele>222.2</ele>
        <time>2021-05-24T08:53:42Z</time>
      </trkpt>
      <trkpt lat="42.8700580" lon="-8.5586270">
        <ele>222.3</ele>
        <time>2021-05-24T08:53:43Z</time>
      </trkpt>
      <trkpt lat="42.8700640" lon="-8.5586120">
        <ele>222.3</ele>
        <time>2021-05-24T08:53:44Z</time>
      </trkpt>
      <trkpt lat="42.8700850" lon="-8.5585940">
        <ele>222.4</ele>
        <time>2021-05-24T08:53:45Z</time>
      </trkpt>
      <trkpt lat="42.8700910" lon="-8.5585870">
        <ele>222.4</ele>
        <time>2021-05-24T08:53:46Z</time>
      </trkpt>
      <trkpt lat="42.8700980" lon="-8.5585810">
        <ele>222.4</ele>
        <time>2021-05-24T08:53:47Z</time>
      </trkpt>
      <trkpt lat="42.8701140" lon="-8.5585710">
        <ele>222.5</ele>
        <time>2021-05-24T08:53:48Z</time>
      </trkpt>
      <trkpt lat="42.8701150" lon="-8.5585610">
        <ele>222.5</ele>
        <time>2021-05-24T08:53:49Z</time>
      </trkpt>
      <trkpt lat="42.8701250" lon="-8.5585560">
        <ele>222.5</ele>
        <time>2021-05-24T08:53:50Z</time>
      </trkpt>
      <trkpt lat="42.8701230" lon="-8.5585510">
        <ele>222.5</ele>
        <time>2021-05-24T08:53:51Z</time>
      </trkpt>
      <trkpt lat="42.8701260" lon="-8.5585470">
        <ele>222.5</ele>
        <time>2021-05-24T08:53:52Z</time>
      </trkpt>
      <trkpt lat="42.8701250" lon="-8.5585420">
        <ele>222.5</ele>
        <time>2021-05-24T08:53:53Z</time>
      </trkpt>
      <trkpt lat="42.8701250" lon="-8.5585330">
        <ele>222.6</ele>
        <time>2021-05-24T08:53:54Z</time>
      </trkpt>
      <trkpt lat="42.8701330" lon="-8.5585270">
        <ele>222.6</ele>
        <time>2021-05-24T08:53:55Z</time>
      </trkpt>
      <trkpt lat="42.8701150" lon="-8.5585630">
        <ele>222.7</ele>
        <time>2021-05-24T08:53:56Z</time>
      </trkpt>
      <trkpt lat="42.8701010" lon="-8.5585740">
        <ele>222.7</ele>
        <time>2021-05-24T08:53:57Z</time>
      </trkpt>
      <trkpt lat="42.8700930" lon="-8.5585850">
        <ele>222.7</ele>
        <time>2021-05-24T08:53:58Z</time>
      </trkpt>
      <trkpt lat="42.8700870" lon="-8.5585920">
        <ele>222.7</ele>
        <time>2021-05-24T08:53:59Z</time>
      </trkpt>
      <trkpt lat="42.8700860" lon="-8.5585990">
        <ele>222.8</ele>
        <time>2021-05-24T08:54:00Z</time>
      </trkpt>
      <trkpt lat="42.8700850" lon="-8.5585940">
        <ele>222.8</ele>
        <time>2021-05-24T08:54:01Z</time>
      </trkpt>
      <trkpt lat="42.8700790" lon="-8.5585940">
        <ele>222.8</ele>
        <time>2021-05-24T08:54:02Z</time>
      </trkpt>
      <trkpt lat="42.8700700" lon="-8.5585980">
        <ele>222.8</ele>
        <time>2021-05-24T08:54:03Z</time>
      </trkpt>
      <trkpt lat="42.8700540" lon="-8.5586110">
        <ele>222.8</ele>
        <time>2021-05-24T08:54:04Z</time>
      </trkpt>
      <trkpt lat="42.8700410" lon="-8.5586140">
        <ele>222.9</ele>
        <time>2021-05-24T08:54:05Z</time>
      </trkpt>
      <trkpt lat="42.8700330" lon="-8.5586130">
        <ele>222.9</ele>
        <time>2021-05-24T08:54:06Z</time>
      </trkpt>
      <trkpt lat="42.8700340" lon="-8.5586170">
        <ele>222.9</ele>
        <time>2021-05-24T08:54:07Z</time>
      </trkpt>
      <trkpt lat="42.8700360" lon="-8.5586200">
        <ele>222.9</ele>
        <time>2021-05-24T08:54:08Z</time>
      </trkpt>
      <trkpt lat="42.8700380" lon="-8.5586240">
        <ele>222.9</ele>
        <time>2021-05-24T08:54:09Z</time>
      </trkpt>
      <trkpt lat="42.8700390" lon="-8.5586280">
        <ele>222.9</ele>
        <time>2021-05-24T08:54:10Z</time>
      </trkpt>
      <trkpt lat="42.8700410" lon="-8.5586320">
        <ele>222.9</ele>
        <time>2021-05-24T08:54:11Z</time>
      </trkpt>
      <trkpt lat="42.8700430" lon="-8.5586360">
        <ele>222.9</ele>
        <time>2021-05-24T08:54:12Z</time>
      </trkpt>
      <trkpt lat="42.8700440" lon="-8.5586390">
        <ele>222.9</ele>
        <time>2021-05-24T08:54:13Z</time>
      </trkpt>
      <trkpt lat="42.8700460" lon="-8.5586430">
        <ele>223.0</ele>
        <time>2021-05-24T08:54:14Z</time>
      </trkpt>
      <trkpt lat="42.8700480" lon="-8.5586470">
        <ele>223.0</ele>
        <time>2021-05-24T08:54:15Z</time>
      </trkpt>
      <trkpt lat="42.8700490" lon="-8.5586510">
        <ele>223.0</ele>
        <time>2021-05-24T08:54:16Z</time>
      </trkpt>
      <trkpt lat="42.8700510" lon="-8.5586550">
        <ele>223.0</ele>
        <time>2021-05-24T08:54:17Z</time>
      </trkpt>
      <trkpt lat="42.8700530" lon="-8.5586580">
        <ele>223.0</ele>
        <time>2021-05-24T08:54:18Z</time>
      </trkpt>
      <trkpt lat="42.8700540" lon="-8.5586620">
        <ele>223.0</ele>
        <time>2021-05-24T08:54:19Z</time>
      </trkpt>
      <trkpt lat="42.8700560" lon="-8.5586660">
        <ele>223.0</ele>
        <time>2021-05-24T08:54:20Z</time>
      </trkpt>
      <trkpt lat="42.8700670" lon="-8.5586680">
        <ele>223.0</ele>
        <time>2021-05-24T08:54:21Z</time>
      </trkpt>
      <trkpt lat="42.8700800" lon="-8.5586710">
        <ele>223.1</ele>
        <time>2021-05-24T08:54:22Z</time>
      </trkpt>
      <trkpt lat="42.8700780" lon="-8.5586720">
        <ele>223.1</ele>
        <time>2021-05-24T08:54:23Z</time>
      </trkpt>
      <trkpt lat="42.8700760" lon="-8.5586710">
        <ele>223.1</ele>
        <time>2021-05-24T08:54:24Z</time>
      </trkpt>
      <trkpt lat="42.8700760" lon="-8.5586740">
        <ele>223.1</ele>
        <time>2021-05-24T08:54:25Z</time>
      </trkpt>
      <trkpt lat="42.8700660" lon="-8.5586720">
        <ele>223.1</ele>
        <time>2021-05-24T08:54:26Z</time>
      </trkpt>
      <trkpt lat="42.8700670" lon="-8.5586690">
        <ele>223.1</ele>
        <time>2021-05-24T08:54:27Z</time>
      </trkpt>
      <trkpt lat="42.8700710" lon="-8.5586680">
        <ele>223.1</ele>
        <time>2021-05-24T08:54:28Z</time>
      </trkpt>
      <trkpt lat="42.8700640" lon="-8.5586700">
        <ele>223.1</ele>
        <time>2021-05-24T08:54:29Z</time>
      </trkpt>
      <trkpt lat="42.8700550" lon="-8.5586700">
        <ele>223.2</ele>
        <time>2021-05-24T08:54:30Z</time>
      </trkpt>
      <trkpt lat="42.8700560" lon="-8.5586670">
        <ele>223.2</ele>
        <time>2021-05-24T08:54:31Z</time>
      </trkpt>
      <trkpt lat="42.8700510" lon="-8.5586650">
        <ele>223.2</ele>
        <time>2021-05-24T08:54:32Z</time>
      </trkpt>
      <trkpt lat="42.8700490" lon="-8.5586690">
        <ele>223.2</ele>
        <time>2021-05-24T08:54:33Z</time>
      </trkpt>
      <trkpt lat="42.8700410" lon="-8.5586650">
        <ele>223.2</ele>
        <time>2021-05-24T08:54:34Z</time>
      </trkpt>
      <trkpt lat="42.8700400" lon="-8.5586600">
        <ele>223.2</ele>
        <time>2021-05-24T08:54:35Z</time>
      </trkpt>
      <trkpt lat="42.8700340" lon="-8.5586550">
        <ele>223.2</ele>
        <time>2021-05-24T08:54:36Z</time>
      </trkpt>
      <trkpt lat="42.8700270" lon="-8.5586540">
        <ele>223.2</ele>
        <time>2021-05-24T08:54:37Z</time>
      </trkpt>
      <trkpt lat="42.8700180" lon="-8.5586520">
        <ele>223.3</ele>
        <time>2021-05-24T08:54:38Z</time>
      </trkpt>
      <trkpt lat="42.8700100" lon="-8.5586470">
        <ele>223.3</ele>
        <time>2021-05-24T08:54:39Z</time>
      </trkpt>
      <trkpt lat="42.8700110" lon="-8.5586460">
        <ele>223.3</ele>
        <time>2021-05-24T08:54:40Z</time>
      </trkpt>
      <trkpt lat="42.8700100" lon="-8.5586460">
        <ele>223.3</ele>
        <time>2021-05-24T08:54:41Z</time>
      </trkpt>
      <trkpt lat="42.8700070" lon="-8.5586440">
        <ele>223.3</ele>
        <time>2021-05-24T08:54:42Z</time>
      </trkpt>
      <trkpt lat="42.8700010" lon="-8.5586470">
        <ele>223.3</ele>
        <time>2021-05-24T08:54:43Z</time>
      </trkpt>
      <trkpt lat="42.8699960" lon="-8.5586470">
        <ele>223.3</ele>
        <time>2021-05-24T08:54:44Z</time>
      </trkpt>
      <trkpt lat="42.8699890" lon="-8.5586450">
        <ele>223.3</ele>
        <time>2021-05-24T08:54:45Z</time>
      </trkpt>
      <trkpt lat="42.8699830" lon="-8.5586430">
        <ele>223.4</ele>
        <time>2021-05-24T08:54:46Z</time>
      </trkpt>
      <trkpt lat="42.8699890" lon="-8.5586490">
        <ele>223.4</ele>
        <time>2021-05-24T08:54:48Z</time>
      </trkpt>
      <trkpt lat="42.8699910" lon="-8.5586490">
        <ele>223.4</ele>
        <time>2021-05-24T08:54:49Z</time>
      </trkpt>
      <trkpt lat="42.8699850" lon="-8.5586460">
        <ele>223.4</ele>
        <time>2021-05-24T08:54:50Z</time>
      </trkpt>
      <trkpt lat="42.8699850" lon="-8.5586380">
        <ele>223.4</ele>
        <time>2021-05-24T08:54:51Z</time>
      </trkpt>
      <trkpt lat="42.8699910" lon="-8.5586390">
        <ele>223.4</ele>
        <time>2021-05-24T08:54:52Z</time>
      </trkpt>
      <trkpt lat="42.8699860" lon="-8.5586380">
        <ele>223.4</ele>
        <time>2021-05-24T08:54:53Z</time>
      </trkpt>
      <trkpt lat="42.8699840" lon="-8.5586340">
        <ele>223.4</ele>
        <time>2021-05-24T08:54:54Z</time>
      </trkpt>
      <trkpt lat="42.8699910" lon="-8.5586310">
        <ele>223.5</ele>
        <time>2021-05-24T08:54:55Z</time>
      </trkpt>
      <trkpt lat="42.8699920" lon="-8.5586250">
        <ele>223.5</ele>
        <time>2021-05-24T08:54:56Z</time>
      </trkpt>
      <trkpt lat="42.8699990" lon="-8.5586200">
        <ele>223.5</ele>
        <time>2021-05-24T08:54:57Z</time>
      </trkpt>
      <trkpt lat="42.8700030" lon="-8.5586200">
        <ele>223.5</ele>
        <time>2021-05-24T08:54:58Z</time>
      </trkpt>
      <trkpt lat="42.8700090" lon="-8.5586150">
        <ele>223.5</ele>
        <time>2021-05-24T08:54:59Z</time>
      </trkpt>
      <trkpt lat="42.8700090" lon="-8.5586140">
        <ele>223.5</ele>
        <time>2021-05-24T08:55:00Z</time>
      </trkpt>
      <trkpt lat="42.8700060" lon="-8.5586080">
        <ele>223.5</ele>
        <time>2021-05-24T08:55:01Z</time>
      </trkpt>
      <trkpt lat="42.8700020" lon="-8.5586050">
        <ele>223.5</ele>
        <time>2021-05-24T08:55:02Z</time>
      </trkpt>
      <trkpt lat="42.8699930" lon="-8.5586080">
        <ele>223.6</ele>
        <time>2021-05-24T08:55:03Z</time>
      </trkpt>
      <trkpt lat="42.8699930" lon="-8.5586070">
        <ele>223.6</ele>
        <time>2021-05-24T08:55:04Z</time>
      </trkpt>
      <trkpt lat="42.8699940" lon="-8.5586020">
        <ele>223.6</ele>
        <time>2021-05-24T08:55:05Z</time>
      </trkpt>
      <trkpt lat="42.8700010" lon="-8.5585970">
        <ele>223.6</ele>
        <time>2021-05-24T08:55:06Z</time>
      </trkpt>
      <trkpt lat="42.8700070" lon="-8.5585970">
        <ele>223.6</ele>
        <time>2021-05-24T08:55:07Z</time>
      </trkpt>
      <trkpt lat="42.8700050" lon="-8.5585990">
        <ele>223.6</ele>
        <time>2021-05-24T08:55:08Z</time>
      </trkpt>
      <trkpt lat="42.8700080" lon="-8.5585990">
        <ele>223.6</ele>
        <time>2021-05-24T08:55:09Z</time>
      </trkpt>
      <trkpt lat="42.8700080" lon="-8.5585950">
        <ele>223.6</ele>
        <time>2021-05-24T08:55:10Z</time>
      </trkpt>
      <trkpt lat="42.8700080" lon="-8.5585920">
        <ele>223.6</ele>
        <time>2021-05-24T08:55:11Z</time>
      </trkpt>
      <trkpt lat="42.8700120" lon="-8.5585920">
        <ele>223.6</ele>
        <time>2021-05-24T08:55:12Z</time>
      </trkpt>
      <trkpt lat="42.8700130" lon="-8.5585910">
        <ele>223.6</ele>
        <time>2021-05-24T08:55:13Z</time>
      </trkpt>
      <trkpt lat="42.8700080" lon="-8.5585890">
        <ele>223.7</ele>
        <time>2021-05-24T08:55:14Z</time>
      </trkpt>
      <trkpt lat="42.8700090" lon="-8.5585820">
        <ele>223.7</ele>
        <time>2021-05-24T08:55:15Z</time>
      </trkpt>
      <trkpt lat="42.8700230" lon="-8.5585780">
        <ele>223.7</ele>
        <time>2021-05-24T08:55:16Z</time>
      </trkpt>
      <trkpt lat="42.8700420" lon="-8.5585860">
        <ele>223.7</ele>
        <time>2021-05-24T08:55:17Z</time>
      </trkpt>
      <trkpt lat="42.8700510" lon="-8.5585860">
        <ele>223.8</ele>
        <time>2021-05-24T08:55:18Z</time>
      </trkpt>
      <trkpt lat="42.8700670" lon="-8.5585750">
        <ele>223.8</ele>
        <time>2021-05-24T08:55:19Z</time>
      </trkpt>
      <trkpt lat="42.8700770" lon="-8.5585700">
        <ele>223.8</ele>
        <time>2021-05-24T08:55:20Z</time>
      </trkpt>
      <trkpt lat="42.8700860" lon="-8.5585640">
        <ele>223.9</ele>
        <time>2021-05-24T08:55:21Z</time>
      </trkpt>
      <trkpt lat="42.8700930" lon="-8.5585520">
        <ele>223.9</ele>
        <time>2021-05-24T08:55:22Z</time>
      </trkpt>
      <trkpt lat="42.8701090" lon="-8.5585400">
        <ele>223.9</ele>
        <time>2021-05-24T08:55:23Z</time>
      </trkpt>
      <trkpt lat="42.8701340" lon="-8.5585240">
        <ele>224.0</ele>
        <time>2021-05-24T08:55:24Z</time>
      </trkpt>
      <trkpt lat="42.8701610" lon="-8.5585150">
        <ele>224.1</ele>
        <time>2021-05-24T08:55:25Z</time>
      </trkpt>
      <trkpt lat="42.8701700" lon="-8.5585070">
        <ele>224.1</ele>
        <time>2021-05-24T08:55:26Z</time>
      </trkpt>
      <trkpt lat="42.8701900" lon="-8.5585010">
        <ele>224.1</ele>
        <time>2021-05-24T08:55:27Z</time>
      </trkpt>
      <trkpt lat="42.8701980" lon="-8.5584850">
        <ele>224.2</ele>
        <time>2021-05-24T08:55:28Z</time>
      </trkpt>
      <trkpt lat="42.8702120" lon="-8.5584510">
        <ele>224.2</ele>
        <time>2021-05-24T08:55:29Z</time>
      </trkpt>
      <trkpt lat="42.8702170" lon="-8.5584410">
        <ele>224.2</ele>
        <time>2021-05-24T08:55:30Z</time>
      </trkpt>
      <trkpt lat="42.8702350" lon="-8.5584150">
        <ele>224.3</ele>
        <time>2021-05-24T08:55:31Z</time>
      </trkpt>
      <trkpt lat="42.8702430" lon="-8.5584070">
        <ele>224.3</ele>
        <time>2021-05-24T08:55:32Z</time>
      </trkpt>
      <trkpt lat="42.8702500" lon="-8.5583990">
        <ele>224.3</ele>
        <time>2021-05-24T08:55:33Z</time>
      </trkpt>
      <trkpt lat="42.8702760" lon="-8.5583660">
        <ele>224.4</ele>
        <time>2021-05-24T08:55:34Z</time>
      </trkpt>
      <trkpt lat="42.8702800" lon="-8.5583550">
        <ele>224.4</ele>
        <time>2021-05-24T08:55:35Z</time>
      </trkpt>
      <trkpt lat="42.8702970" lon="-8.5583270">
        <ele>224.5</ele>
        <time>2021-05-24T08:55:36Z</time>
      </trkpt>
      <trkpt lat="42.8703030" lon="-8.5583160">
        <ele>224.5</ele>
        <time>2021-05-24T08:55:37Z</time>
      </trkpt>
      <trkpt lat="42.8703110" lon="-8.5582950">
        <ele>224.5</ele>
        <time>2021-05-24T08:55:38Z</time>
      </trkpt>
      <trkpt lat="42.8703280" lon="-8.5582860">
        <ele>224.6</ele>
        <time>2021-05-24T08:55:39Z</time>
      </trkpt>
      <trkpt lat="42.8703480" lon="-8.5582570">
        <ele>224.6</ele>
        <time>2021-05-24T08:55:40Z</time>
      </trkpt>
      <trkpt lat="42.8703550" lon="-8.5582480">
        <ele>224.7</ele>
        <time>2021-05-24T08:55:41Z</time>
      </trkpt>
      <trkpt lat="42.8703660" lon="-8.5582290">
        <ele>224.7</ele>
        <time>2021-05-24T08:55:42Z</time>
      </trkpt>
      <trkpt lat="42.8703830" lon="-8.5582250">
        <ele>224.7</ele>
        <time>2021-05-24T08:55:43Z</time>
      </trkpt>
      <trkpt lat="42.8703950" lon="-8.5582090">
        <ele>224.8</ele>
        <time>2021-05-24T08:55:44Z</time>
      </trkpt>
      <trkpt lat="42.8704060" lon="-8.5581980">
        <ele>224.8</ele>
        <time>2021-05-24T08:55:45Z</time>
      </trkpt>
      <trkpt lat="42.8704300" lon="-8.5581740">
        <ele>224.9</ele>
        <time>2021-05-24T08:55:46Z</time>
      </trkpt>
      <trkpt lat="42.8704360" lon="-8.5581680">
        <ele>224.9</ele>
        <time>2021-05-24T08:55:47Z</time>
      </trkpt>
      <trkpt lat="42.8704520" lon="-8.5581550">
        <ele>224.9</ele>
        <time>2021-05-24T08:55:48Z</time>
      </trkpt>
      <trkpt lat="42.8704620" lon="-8.5581360">
        <ele>224.9</ele>
        <time>2021-05-24T08:55:49Z</time>
      </trkpt>
      <trkpt lat="42.8704740" lon="-8.5581210">
        <ele>225.0</ele>
        <time>2021-05-24T08:55:50Z</time>
      </trkpt>
      <trkpt lat="42.8704880" lon="-8.5581080">
        <ele>225.0</ele>
        <time>2021-05-24T08:55:52Z</time>
      </trkpt>
      <trkpt lat="42.8705010" lon="-8.5580940">
        <ele>225.0</ele>
        <time>2021-05-24T08:55:53Z</time>
      </trkpt>
      <trkpt lat="42.8705170" lon="-8.5580830">
        <ele>225.1</ele>
        <time>2021-05-24T08:55:54Z</time>
      </trkpt>
      <trkpt lat="42.8705260" lon="-8.5580660">
        <ele>225.1</ele>
        <time>2021-05-24T08:55:55Z</time>
      </trkpt>
      <trkpt lat="42.8705400" lon="-8.5580530">
        <ele>225.1</ele>
        <time>2021-05-24T08:55:56Z</time>
      </trkpt>
      <trkpt lat="42.8705530" lon="-8.5580430">
        <ele>225.2</ele>
        <time>2021-05-24T08:55:57Z</time>
      </trkpt>
      <trkpt lat="42.8705680" lon="-8.5580330">
        <ele>225.2</ele>
        <time>2021-05-24T08:55:58Z</time>
      </trkpt>
      <trkpt lat="42.8705790" lon="-8.5580160">
        <ele>225.2</ele>
        <time>2021-05-24T08:55:59Z</time>
      </trkpt>
      <trkpt lat="42.8705920" lon="-8.5579950">
        <ele>225.3</ele>
        <time>2021-05-24T08:56:00Z</time>
      </trkpt>
      <trkpt lat="42.8706020" lon="-8.5579750">
        <ele>225.3</ele>
        <time>2021-05-24T08:56:01Z</time>
      </trkpt>
      <trkpt lat="42.8706140" lon="-8.5579580">
        <ele>225.4</ele>
        <time>2021-05-24T08:56:02Z</time>
      </trkpt>
      <trkpt lat="42.8706300" lon="-8.5579490">
        <ele>225.4</ele>
        <time>2021-05-24T08:56:03Z</time>
      </trkpt>
      <trkpt lat="42.8706410" lon="-8.5579320">
        <ele>225.5</ele>
        <time>2021-05-24T08:56:04Z</time>
      </trkpt>
      <trkpt lat="42.8706540" lon="-8.5579190">
        <ele>225.5</ele>
        <time>2021-05-24T08:56:05Z</time>
      </trkpt>
      <trkpt lat="42.8706650" lon="-8.5579000">
        <ele>225.6</ele>
        <time>2021-05-24T08:56:06Z</time>
      </trkpt>
      <trkpt lat="42.8706740" lon="-8.5578820">
        <ele>225.6</ele>
        <time>2021-05-24T08:56:07Z</time>
      </trkpt>
      <trkpt lat="42.8706840" lon="-8.5578670">
        <ele>225.7</ele>
        <time>2021-05-24T08:56:08Z</time>
      </trkpt>
      <trkpt lat="42.8707010" lon="-8.5578580">
        <ele>225.7</ele>
        <time>2021-05-24T08:56:09Z</time>
      </trkpt>
      <trkpt lat="42.8707150" lon="-8.5578450">
        <ele>225.8</ele>
        <time>2021-05-24T08:56:10Z</time>
      </trkpt>
      <trkpt lat="42.8707290" lon="-8.5578320">
        <ele>225.8</ele>
        <time>2021-05-24T08:56:11Z</time>
      </trkpt>
      <trkpt lat="42.8707460" lon="-8.5578270">
        <ele>225.9</ele>
        <time>2021-05-24T08:56:12Z</time>
      </trkpt>
      <trkpt lat="42.8707550" lon="-8.5578030">
        <ele>225.9</ele>
        <time>2021-05-24T08:56:13Z</time>
      </trkpt>
      <trkpt lat="42.8707700" lon="-8.5577970">
        <ele>226.0</ele>
        <time>2021-05-24T08:56:14Z</time>
      </trkpt>
      <trkpt lat="42.8707790" lon="-8.5577800">
        <ele>226.0</ele>
        <time>2021-05-24T08:56:15Z</time>
      </trkpt>
      <trkpt lat="42.8707900" lon="-8.5577700">
        <ele>226.1</ele>
        <time>2021-05-24T08:56:16Z</time>
      </trkpt>
      <trkpt lat="42.8708070" lon="-8.5577440">
        <ele>226.2</ele>
        <time>2021-05-24T08:56:17Z</time>
      </trkpt>
      <trkpt lat="42.8708130" lon="-8.5577330">
        <ele>226.2</ele>
        <time>2021-05-24T08:56:18Z</time>
      </trkpt>
      <trkpt lat="42.8708180" lon="-8.5577220">
        <ele>226.2</ele>
        <time>2021-05-24T08:56:19Z</time>
      </trkpt>
      <trkpt lat="42.8708240" lon="-8.5577010">
        <ele>226.3</ele>
        <time>2021-05-24T08:56:20Z</time>
      </trkpt>
      <trkpt lat="42.8708330" lon="-8.5576900">
        <ele>226.3</ele>
        <time>2021-05-24T08:56:21Z</time>
      </trkpt>
      <trkpt lat="42.8708400" lon="-8.5576750">
        <ele>226.4</ele>
        <time>2021-05-24T08:56:22Z</time>
      </trkpt>
      <trkpt lat="42.8708540" lon="-8.5576750">
        <ele>226.4</ele>
        <time>2021-05-24T08:56:23Z</time>
      </trkpt>
      <trkpt lat="42.8708600" lon="-8.5576570">
        <ele>226.5</ele>
        <time>2021-05-24T08:56:24Z</time>
      </trkpt>
      <trkpt lat="42.8708780" lon="-8.5576430">
        <ele>226.5</ele>
        <time>2021-05-24T08:56:25Z</time>
      </trkpt>
      <trkpt lat="42.8708820" lon="-8.5576200">
        <ele>226.6</ele>
        <time>2021-05-24T08:56:26Z</time>
      </trkpt>
      <trkpt lat="42.8708910" lon="-8.5575990">
        <ele>226.6</ele>
        <time>2021-05-24T08:56:27Z</time>
      </trkpt>
      <trkpt lat="42.8709020" lon="-8.5575910">
        <ele>226.7</ele>
        <time>2021-05-24T08:56:28Z</time>
      </trkpt>
      <trkpt lat="42.8709070" lon="-8.5575840">
        <ele>226.7</ele>
        <time>2021-05-24T08:56:29Z</time>
      </trkpt>
      <trkpt lat="42.8709160" lon="-8.5575690">
        <ele>226.7</ele>
        <time>2021-05-24T08:56:30Z</time>
      </trkpt>
      <trkpt lat="42.8709200" lon="-8.5575550">
        <ele>226.8</ele>
        <time>2021-05-24T08:56:31Z</time>
      </trkpt>
      <trkpt lat="42.8709250" lon="-8.5575490">
        <ele>226.8</ele>
        <time>2021-05-24T08:56:32Z</time>
      </trkpt>
      <trkpt lat="42.8709250" lon="-8.5575280">
        <ele>226.9</ele>
        <time>2021-05-24T08:56:33Z</time>
      </trkpt>
      <trkpt lat="42.8709200" lon="-8.5575130">
        <ele>226.9</ele>
        <time>2021-05-24T08:56:34Z</time>
      </trkpt>
      <trkpt lat="42.8709240" lon="-8.5574930">
        <ele>226.9</ele>
        <time>2021-05-24T08:56:35Z</time>
      </trkpt>
      <trkpt lat="42.8709260" lon="-8.5574760">
        <ele>227.0</ele>
        <time>2021-05-24T08:56:36Z</time>
      </trkpt>
      <trkpt lat="42.8709260" lon="-8.5574520">
        <ele>227.0</ele>
        <time>2021-05-24T08:56:37Z</time>
      </trkpt>
      <trkpt lat="42.8709230" lon="-8.5574330">
        <ele>227.1</ele>
        <time>2021-05-24T08:56:38Z</time>
      </trkpt>
      <trkpt lat="42.8709340" lon="-8.5574210">
        <ele>227.2</ele>
        <time>2021-05-24T08:56:39Z</time>
      </trkpt>
      <trkpt lat="42.8709430" lon="-8.5574010">
        <ele>227.2</ele>
        <time>2021-05-24T08:56:40Z</time>
      </trkpt>
      <trkpt lat="42.8709620" lon="-8.5573730">
        <ele>227.3</ele>
        <time>2021-05-24T08:56:41Z</time>
      </trkpt>
      <trkpt lat="42.8709700" lon="-8.5573610">
        <ele>227.4</ele>
        <time>2021-05-24T08:56:42Z</time>
      </trkpt>
      <trkpt lat="42.8709880" lon="-8.5573590">
        <ele>227.4</ele>
        <time>2021-05-24T08:56:43Z</time>
      </trkpt>
      <trkpt lat="42.8709980" lon="-8.5573370">
        <ele>227.5</ele>
        <time>2021-05-24T08:56:44Z</time>
      </trkpt>
      <trkpt lat="42.8710100" lon="-8.5573200">
        <ele>227.6</ele>
        <time>2021-05-24T08:56:45Z</time>
      </trkpt>
      <trkpt lat="42.8710200" lon="-8.5573010">
        <ele>227.6</ele>
        <time>2021-05-24T08:56:46Z</time>
      </trkpt>
      <trkpt lat="42.8710350" lon="-8.5572880">
        <ele>227.7</ele>
        <time>2021-05-24T08:56:47Z</time>
      </trkpt>
      <trkpt lat="42.8710490" lon="-8.5572780">
        <ele>227.7</ele>
        <time>2021-05-24T08:56:48Z</time>
      </trkpt>
      <trkpt lat="42.8710580" lon="-8.5572590">
        <ele>227.8</ele>
        <time>2021-05-24T08:56:49Z</time>
      </trkpt>
      <trkpt lat="42.8710690" lon="-8.5572450">
        <ele>227.9</ele>
        <time>2021-05-24T08:56:50Z</time>
      </trkpt>
      <trkpt lat="42.8710830" lon="-8.5572330">
        <ele>227.9</ele>
        <time>2021-05-24T08:56:51Z</time>
      </trkpt>
      <trkpt lat="42.8710930" lon="-8.5572110">
        <ele>228.0</ele>
        <time>2021-05-24T08:56:52Z</time>
      </trkpt>
      <trkpt lat="42.8711010" lon="-8.5571920">
        <ele>228.0</ele>
        <time>2021-05-24T08:56:53Z</time>
      </trkpt>
      <trkpt lat="42.8711150" lon="-8.5571800">
        <ele>228.1</ele>
        <time>2021-05-24T08:56:54Z</time>
      </trkpt>
      <trkpt lat="42.8711260" lon="-8.5571630">
        <ele>228.2</ele>
        <time>2021-05-24T08:56:55Z</time>
      </trkpt>
      <trkpt lat="42.8711350" lon="-8.5571420">
        <ele>228.2</ele>
        <time>2021-05-24T08:56:56Z</time>
      </trkpt>
      <trkpt lat="42.8711420" lon="-8.5571190">
        <ele>228.3</ele>
        <time>2021-05-24T08:56:57Z</time>
      </trkpt>
      <trkpt lat="42.8711530" lon="-8.5571030">
        <ele>228.4</ele>
        <time>2021-05-24T08:56:58Z</time>
      </trkpt>
      <trkpt lat="42.8711650" lon="-8.5570850">
        <ele>228.4</ele>
        <time>2021-05-24T08:56:59Z</time>
      </trkpt>
      <trkpt lat="42.8711790" lon="-8.5570740">
        <ele>228.5</ele>
        <time>2021-05-24T08:57:00Z</time>
      </trkpt>
      <trkpt lat="42.8711860" lon="-8.5570570">
        <ele>228.5</ele>
        <time>2021-05-24T08:57:01Z</time>
      </trkpt>
      <trkpt lat="42.8711910" lon="-8.5570290">
        <ele>228.6</ele>
        <time>2021-05-24T08:57:02Z</time>
      </trkpt>
      <trkpt lat="42.8711990" lon="-8.5570220">
        <ele>228.7</ele>
        <time>2021-05-24T08:57:03Z</time>
      </trkpt>
      <trkpt lat="42.8712060" lon="-8.5570150">
        <ele>228.7</ele>
        <time>2021-05-24T08:57:04Z</time>
      </trkpt>
      <trkpt lat="42.8712200" lon="-8.5569960">
        <ele>228.8</ele>
        <time>2021-05-24T08:57:05Z</time>
      </trkpt>
      <trkpt lat="42.8712320" lon="-8.5569810">
        <ele>228.9</ele>
        <time>2021-05-24T08:57:06Z</time>
      </trkpt>
      <trkpt lat="42.8712440" lon="-8.5569660">
        <ele>228.9</ele>
        <time>2021-05-24T08:57:07Z</time>
      </trkpt>
      <trkpt lat="42.8712560" lon="-8.5569470">
        <ele>229.0</ele>
        <time>2021-05-24T08:57:08Z</time>
      </trkpt>
      <trkpt lat="42.8712660" lon="-8.5569300">
        <ele>229.1</ele>
        <time>2021-05-24T08:57:09Z</time>
      </trkpt>
      <trkpt lat="42.8712790" lon="-8.5569150">
        <ele>229.1</ele>
        <time>2021-05-24T08:57:10Z</time>
      </trkpt>
      <trkpt lat="42.8712840" lon="-8.5568890">
        <ele>229.2</ele>
        <time>2021-05-24T08:57:11Z</time>
      </trkpt>
      <trkpt lat="42.8713000" lon="-8.5568770">
        <ele>229.3</ele>
        <time>2021-05-24T08:57:12Z</time>
      </trkpt>
      <trkpt lat="42.8713170" lon="-8.5568480">
        <ele>229.4</ele>
        <time>2021-05-24T08:57:13Z</time>
      </trkpt>
      <trkpt lat="42.8713230" lon="-8.5568390">
        <ele>229.5</ele>
        <time>2021-05-24T08:57:14Z</time>
      </trkpt>
      <trkpt lat="42.8713350" lon="-8.5568230">
        <ele>229.5</ele>
        <time>2021-05-24T08:57:15Z</time>
      </trkpt>
      <trkpt lat="42.8713460" lon="-8.5568050">
        <ele>229.6</ele>
        <time>2021-05-24T08:57:16Z</time>
      </trkpt>
      <trkpt lat="42.8713640" lon="-8.5567710">
        <ele>229.7</ele>
        <time>2021-05-24T08:57:17Z</time>
      </trkpt>
      <trkpt lat="42.8713780" lon="-8.5567620">
        <ele>229.8</ele>
        <time>2021-05-24T08:57:18Z</time>
      </trkpt>
      <trkpt lat="42.8713900" lon="-8.5567470">
        <ele>229.9</ele>
        <time>2021-05-24T08:57:19Z</time>
      </trkpt>
      <trkpt lat="42.8714020" lon="-8.5567340">
        <ele>229.9</ele>
        <time>2021-05-24T08:57:20Z</time>
      </trkpt>
      <trkpt lat="42.8714140" lon="-8.5567180">
        <ele>230.0</ele>
        <time>2021-05-24T08:57:21Z</time>
      </trkpt>
      <trkpt lat="42.8714360" lon="-8.5566950">
        <ele>230.1</ele>
        <time>2021-05-24T08:57:22Z</time>
      </trkpt>
      <trkpt lat="42.8714440" lon="-8.5566870">
        <ele>230.2</ele>
        <time>2021-05-24T08:57:23Z</time>
      </trkpt>
      <trkpt lat="42.8714520" lon="-8.5566710">
        <ele>230.2</ele>
        <time>2021-05-24T08:57:24Z</time>
      </trkpt>
      <trkpt lat="42.8714710" lon="-8.5566660">
        <ele>230.3</ele>
        <time>2021-05-24T08:57:25Z</time>
      </trkpt>
      <trkpt lat="42.8714810" lon="-8.5566300">
        <ele>230.4</ele>
        <time>2021-05-24T08:57:26Z</time>
      </trkpt>
      <trkpt lat="42.8714840" lon="-8.5566180">
        <ele>230.5</ele>
        <time>2021-05-24T08:57:27Z</time>
      </trkpt>
      <trkpt lat="42.8715080" lon="-8.5565940">
        <ele>230.6</ele>
        <time>2021-05-24T08:57:28Z</time>
      </trkpt>
      <trkpt lat="42.8715150" lon="-8.5565860">
        <ele>230.6</ele>
        <time>2021-05-24T08:57:29Z</time>
      </trkpt>
      <trkpt lat="42.8715410" lon="-8.5565510">
        <ele>230.8</ele>
        <time>2021-05-24T08:57:31Z</time>
      </trkpt>
      <trkpt lat="42.8715520" lon="-8.5565370">
        <ele>230.8</ele>
        <time>2021-05-24T08:57:32Z</time>
      </trkpt>
      <trkpt lat="42.8715660" lon="-8.5565340">
        <ele>230.9</ele>
        <time>2021-05-24T08:57:33Z</time>
      </trkpt>
      <trkpt lat="42.8715750" lon="-8.5565130">
        <ele>231.0</ele>
        <time>2021-05-24T08:57:34Z</time>
      </trkpt>
      <trkpt lat="42.8715830" lon="-8.5564970">
        <ele>231.0</ele>
        <time>2021-05-24T08:57:35Z</time>
      </trkpt>
      <trkpt lat="42.8715930" lon="-8.5564790">
        <ele>231.1</ele>
        <time>2021-05-24T08:57:36Z</time>
      </trkpt>
      <trkpt lat="42.8716030" lon="-8.5564630">
        <ele>231.2</ele>
        <time>2021-05-24T08:57:37Z</time>
      </trkpt>
      <trkpt lat="42.8716160" lon="-8.5564520">
        <ele>231.2</ele>
        <time>2021-05-24T08:57:38Z</time>
      </trkpt>
      <trkpt lat="42.8716220" lon="-8.5564290">
        <ele>231.3</ele>
        <time>2021-05-24T08:57:39Z</time>
      </trkpt>
      <trkpt lat="42.8716270" lon="-8.5564140">
        <ele>231.3</ele>
        <time>2021-05-24T08:57:40Z</time>
      </trkpt>
      <trkpt lat="42.8716330" lon="-8.5563950">
        <ele>231.4</ele>
        <time>2021-05-24T08:57:41Z</time>
      </trkpt>
      <trkpt lat="42.8716370" lon="-8.5563760">
        <ele>231.4</ele>
        <time>2021-05-24T08:57:42Z</time>
      </trkpt>
      <trkpt lat="42.8716450" lon="-8.5563710">
        <ele>231.5</ele>
        <time>2021-05-24T08:57:43Z</time>
      </trkpt>
      <trkpt lat="42.8716540" lon="-8.5563580">
        <ele>231.5</ele>
        <time>2021-05-24T08:57:44Z</time>
      </trkpt>
      <trkpt lat="42.8716640" lon="-8.5563520">
        <ele>231.6</ele>
        <time>2021-05-24T08:57:45Z</time>
      </trkpt>
      <trkpt lat="42.8716760" lon="-8.5563440">
        <ele>231.6</ele>
        <time>2021-05-24T08:57:46Z</time>
      </trkpt>
      <trkpt lat="42.8716830" lon="-8.5563360">
        <ele>231.7</ele>
        <time>2021-05-24T08:57:47Z</time>
      </trkpt>
      <trkpt lat="42.8716880" lon="-8.5563290">
        <ele>231.7</ele>
        <time>2021-05-24T08:57:48Z</time>
      </trkpt>
      <trkpt lat="42.8716970" lon="-8.5563180">
        <ele>231.8</ele>
        <time>2021-05-24T08:57:49Z</time>
      </trkpt>
      <trkpt lat="42.8717110" lon="-8.5563060">
        <ele>231.8</ele>
        <time>2021-05-24T08:57:50Z</time>
      </trkpt>
      <trkpt lat="42.8717160" lon="-8.5563000">
        <ele>231.9</ele>
        <time>2021-05-24T08:57:51Z</time>
      </trkpt>
      <trkpt lat="42.8717230" lon="-8.5562980">
        <ele>231.9</ele>
        <time>2021-05-24T08:57:52Z</time>
      </trkpt>
      <trkpt lat="42.8717340" lon="-8.5562860">
        <ele>232.0</ele>
        <time>2021-05-24T08:57:53Z</time>
      </trkpt>
      <trkpt lat="42.8717450" lon="-8.5562600">
        <ele>232.1</ele>
        <time>2021-05-24T08:57:54Z</time>
      </trkpt>
      <trkpt lat="42.8717510" lon="-8.5562500">
        <ele>232.1</ele>
        <time>2021-05-24T08:57:55Z</time>
      </trkpt>
      <trkpt lat="42.8717560" lon="-8.5562410">
        <ele>232.2</ele>
        <time>2021-05-24T08:57:56Z</time>
      </trkpt>
      <trkpt lat="42.8717580" lon="-8.5562210">
        <ele>232.2</ele>
        <time>2021-05-24T08:57:57Z</time>
      </trkpt>
      <trkpt lat="42.8717660" lon="-8.5562040">
        <ele>232.3</ele>
        <time>2021-05-24T08:57:58Z</time>
      </trkpt>
      <trkpt lat="42.8717720" lon="-8.5561870">
        <ele>232.4</ele>
        <time>2021-05-24T08:57:59Z</time>
      </trkpt>
      <trkpt lat="42.8717770" lon="-8.5561670">
        <ele>232.4</ele>
        <time>2021-05-24T08:58:00Z</time>
      </trkpt>
      <trkpt lat="42.8717840" lon="-8.5561340">
        <ele>232.6</ele>
        <time>2021-05-24T08:58:02Z</time>
      </trkpt>
      <trkpt lat="42.8717890" lon="-8.5561210">
        <ele>232.6</ele>
        <time>2021-05-24T08:58:03Z</time>
      </trkpt>
      <trkpt lat="42.8717950" lon="-8.5561070">
        <ele>232.7</ele>
        <time>2021-05-24T08:58:04Z</time>
      </trkpt>
      <trkpt lat="42.8717980" lon="-8.5560840">
        <ele>232.7</ele>
        <time>2021-05-24T08:58:05Z</time>
      </trkpt>
      <trkpt lat="42.8718000" lon="-8.5560590">
        <ele>232.8</ele>
        <time>2021-05-24T08:58:06Z</time>
      </trkpt>
      <trkpt lat="42.8718070" lon="-8.5560160">
        <ele>233.0</ele>
        <time>2021-05-24T08:58:07Z</time>
      </trkpt>
      <trkpt lat="42.8718060" lon="-8.5560020">
        <ele>233.0</ele>
        <time>2021-05-24T08:58:08Z</time>
      </trkpt>
      <trkpt lat="42.8718150" lon="-8.5559590">
        <ele>233.2</ele>
        <time>2021-05-24T08:58:09Z</time>
      </trkpt>
      <trkpt lat="42.8718140" lon="-8.5559490">
        <ele>233.2</ele>
        <time>2021-05-24T08:58:10Z</time>
      </trkpt>
      <trkpt lat="42.8718180" lon="-8.5559280">
        <ele>233.3</ele>
        <time>2021-05-24T08:58:11Z</time>
      </trkpt>
      <trkpt lat="42.8718230" lon="-8.5559050">
        <ele>233.4</ele>
        <time>2021-05-24T08:58:12Z</time>
      </trkpt>
      <trkpt lat="42.8718270" lon="-8.5558820">
        <ele>233.5</ele>
        <time>2021-05-24T08:58:13Z</time>
      </trkpt>
      <trkpt lat="42.8718320" lon="-8.5558620">
        <ele>233.5</ele>
        <time>2021-05-24T08:58:14Z</time>
      </trkpt>
      <trkpt lat="42.8718340" lon="-8.5558420">
        <ele>233.6</ele>
        <time>2021-05-24T08:58:15Z</time>
      </trkpt>
      <trkpt lat="42.8718360" lon="-8.5558160">
        <ele>233.7</ele>
        <time>2021-05-24T08:58:16Z</time>
      </trkpt>
      <trkpt lat="42.8718380" lon="-8.5557940">
        <ele>233.7</ele>
        <time>2021-05-24T08:58:17Z</time>
      </trkpt>
      <trkpt lat="42.8718320" lon="-8.5557760">
        <ele>233.7</ele>
        <time>2021-05-24T08:58:18Z</time>
      </trkpt>
      <trkpt lat="42.8718390" lon="-8.5557340">
        <ele>233.8</ele>
        <time>2021-05-24T08:58:19Z</time>
      </trkpt>
      <trkpt lat="42.8718430" lon="-8.5557270">
        <ele>233.8</ele>
        <time>2021-05-24T08:58:20Z</time>
      </trkpt>
      <trkpt lat="42.8718480" lon="-8.5557150">
        <ele>233.9</ele>
        <time>2021-05-24T08:58:21Z</time>
      </trkpt>
      <trkpt lat="42.8718480" lon="-8.5556830">
        <ele>233.9</ele>
        <time>2021-05-24T08:58:22Z</time>
      </trkpt>
      <trkpt lat="42.8718610" lon="-8.5556650">
        <ele>234.0</ele>
        <time>2021-05-24T08:58:23Z</time>
      </trkpt>
      <trkpt lat="42.8718670" lon="-8.5556400">
        <ele>234.0</ele>
        <time>2021-05-24T08:58:24Z</time>
      </trkpt>
      <trkpt lat="42.8718850" lon="-8.5556110">
        <ele>234.1</ele>
        <time>2021-05-24T08:58:25Z</time>
      </trkpt>
      <trkpt lat="42.8718900" lon="-8.5556020">
        <ele>234.1</ele>
        <time>2021-05-24T08:58:26Z</time>
      </trkpt>
      <trkpt lat="42.8719050" lon="-8.5555900">
        <ele>234.2</ele>
        <time>2021-05-24T08:58:27Z</time>
      </trkpt>
      <trkpt lat="42.8719140" lon="-8.5555730">
        <ele>234.2</ele>
        <time>2021-05-24T08:58:28Z</time>
      </trkpt>
      <trkpt lat="42.8719260" lon="-8.5555570">
        <ele>234.2</ele>
        <time>2021-05-24T08:58:29Z</time>
      </trkpt>
      <trkpt lat="42.8719380" lon="-8.5555390">
        <ele>234.3</ele>
        <time>2021-05-24T08:58:30Z</time>
      </trkpt>
      <trkpt lat="42.8719500" lon="-8.5555260">
        <ele>234.3</ele>
        <time>2021-05-24T08:58:31Z</time>
      </trkpt>
      <trkpt lat="42.8719650" lon="-8.5555120">
        <ele>234.9</ele>
        <time>2021-05-24T08:58:32Z</time>
      </trkpt>
      <trkpt lat="42.8719930" lon="-8.5555170">
        <ele>235.0</ele>
        <time>2021-05-24T08:58:33Z</time>
      </trkpt>
      <trkpt lat="42.8720030" lon="-8.5555160">
        <ele>235.1</ele>
        <time>2021-05-24T08:58:34Z</time>
      </trkpt>
      <trkpt lat="42.8720180" lon="-8.5555020">
        <ele>235.1</ele>
        <time>2021-05-24T08:58:35Z</time>
      </trkpt>
      <trkpt lat="42.8720330" lon="-8.5555020">
        <ele>235.2</ele>
        <time>2021-05-24T08:58:36Z</time>
      </trkpt>
      <trkpt lat="42.8720620" lon="-8.5554900">
        <ele>235.3</ele>
        <time>2021-05-24T08:58:37Z</time>
      </trkpt>
      <trkpt lat="42.8720710" lon="-8.5554840">
        <ele>235.2</ele>
        <time>2021-05-24T08:58:38Z</time>
      </trkpt>
      <trkpt lat="42.8720970" lon="-8.5554710">
        <ele>235.2</ele>
        <time>2021-05-24T08:58:39Z</time>
      </trkpt>
      <trkpt lat="42.8721050" lon="-8.5554660">
        <ele>235.2</ele>
        <time>2021-05-24T08:58:40Z</time>
      </trkpt>
      <trkpt lat="42.8721260" lon="-8.5554550">
        <ele>235.2</ele>
        <time>2021-05-24T08:58:41Z</time>
      </trkpt>
      <trkpt lat="42.8721370" lon="-8.5554510">
        <ele>235.2</ele>
        <time>2021-05-24T08:58:42Z</time>
      </trkpt>
      <trkpt lat="42.8721480" lon="-8.5554280">
        <ele>235.2</ele>
        <time>2021-05-24T08:58:43Z</time>
      </trkpt>
      <trkpt lat="42.8721560" lon="-8.5554080">
        <ele>235.1</ele>
        <time>2021-05-24T08:58:44Z</time>
      </trkpt>
      <trkpt lat="42.8721530" lon="-8.5553780">
        <ele>235.1</ele>
        <time>2021-05-24T08:58:45Z</time>
      </trkpt>
      <trkpt lat="42.8721530" lon="-8.5553690">
        <ele>235.1</ele>
        <time>2021-05-24T08:58:46Z</time>
      </trkpt>
      <trkpt lat="42.8721520" lon="-8.5553590">
        <ele>235.1</ele>
        <time>2021-05-24T08:58:47Z</time>
      </trkpt>
      <trkpt lat="42.8721650" lon="-8.5553550">
        <ele>235.1</ele>
        <time>2021-05-24T08:58:48Z</time>
      </trkpt>
      <trkpt lat="42.8721670" lon="-8.5553380">
        <ele>235.1</ele>
        <time>2021-05-24T08:58:49Z</time>
      </trkpt>
      <trkpt lat="42.8721680" lon="-8.5553260">
        <ele>235.1</ele>
        <time>2021-05-24T08:58:50Z</time>
      </trkpt>
      <trkpt lat="42.8721650" lon="-8.5553120">
        <ele>235.1</ele>
        <time>2021-05-24T08:58:51Z</time>
      </trkpt>
      <trkpt lat="42.8721560" lon="-8.5553000">
        <ele>235.1</ele>
        <time>2021-05-24T08:58:52Z</time>
      </trkpt>
      <trkpt lat="42.8721500" lon="-8.5552840">
        <ele>235.2</ele>
        <time>2021-05-24T08:58:53Z</time>
      </trkpt>
      <trkpt lat="42.8721430" lon="-8.5552700">
        <ele>235.2</ele>
        <time>2021-05-24T08:58:54Z</time>
      </trkpt>
      <trkpt lat="42.8721380" lon="-8.5552590">
        <ele>235.2</ele>
        <time>2021-05-24T08:58:55Z</time>
      </trkpt>
      <trkpt lat="42.8721390" lon="-8.5552470">
        <ele>235.2</ele>
        <time>2021-05-24T08:58:56Z</time>
      </trkpt>
      <trkpt lat="42.8721370" lon="-8.5552180">
        <ele>235.3</ele>
        <time>2021-05-24T08:58:57Z</time>
      </trkpt>
      <trkpt lat="42.8721360" lon="-8.5552030">
        <ele>235.3</ele>
        <time>2021-05-24T08:58:58Z</time>
      </trkpt>
      <trkpt lat="42.8721360" lon="-8.5551880">
        <ele>235.3</ele>
        <time>2021-05-24T08:58:59Z</time>
      </trkpt>
      <trkpt lat="42.8721280" lon="-8.5551780">
        <ele>235.3</ele>
        <time>2021-05-24T08:59:00Z</time>
      </trkpt>
      <trkpt lat="42.8721240" lon="-8.5551620">
        <ele>235.4</ele>
        <time>2021-05-24T08:59:01Z</time>
      </trkpt>
      <trkpt lat="42.8721280" lon="-8.5551400">
        <ele>235.4</ele>
        <time>2021-05-24T08:59:02Z</time>
      </trkpt>
      <trkpt lat="42.8721290" lon="-8.5551170">
        <ele>235.4</ele>
        <time>2021-05-24T08:59:03Z</time>
      </trkpt>
      <trkpt lat="42.8721330" lon="-8.5551000">
        <ele>235.4</ele>
        <time>2021-05-24T08:59:04Z</time>
      </trkpt>
      <trkpt lat="42.8721320" lon="-8.5550880">
        <ele>235.5</ele>
        <time>2021-05-24T08:59:05Z</time>
      </trkpt>
      <trkpt lat="42.8721360" lon="-8.5550710">
        <ele>235.5</ele>
        <time>2021-05-24T08:59:06Z</time>
      </trkpt>
      <trkpt lat="42.8721390" lon="-8.5550600">
        <ele>235.5</ele>
        <time>2021-05-24T08:59:07Z</time>
      </trkpt>
      <trkpt lat="42.8721420" lon="-8.5550290">
        <ele>235.5</ele>
        <time>2021-05-24T08:59:08Z</time>
      </trkpt>
      <trkpt lat="42.8721450" lon="-8.5550200">
        <ele>235.6</ele>
        <time>2021-05-24T08:59:09Z</time>
      </trkpt>
      <trkpt lat="42.8721470" lon="-8.5550110">
        <ele>235.6</ele>
        <time>2021-05-24T08:59:10Z</time>
      </trkpt>
      <trkpt lat="42.8721520" lon="-8.5549820">
        <ele>235.6</ele>
        <time>2021-05-24T08:59:11Z</time>
      </trkpt>
      <trkpt lat="42.8721550" lon="-8.5549650">
        <ele>235.6</ele>
        <time>2021-05-24T08:59:12Z</time>
      </trkpt>
      <trkpt lat="42.8721590" lon="-8.5549340">
        <ele>235.6</ele>
        <time>2021-05-24T08:59:13Z</time>
      </trkpt>
      <trkpt lat="42.8721630" lon="-8.5549230">
        <ele>235.6</ele>
        <time>2021-05-24T08:59:14Z</time>
      </trkpt>
      <trkpt lat="42.8721680" lon="-8.5549130">
        <ele>235.6</ele>
        <time>2021-05-24T08:59:15Z</time>
      </trkpt>
      <trkpt lat="42.8721670" lon="-8.5548970">
        <ele>235.6</ele>
        <time>2021-05-24T08:59:16Z</time>
      </trkpt>
      <trkpt lat="42.8721780" lon="-8.5548810">
        <ele>235.6</ele>
        <time>2021-05-24T08:59:17Z</time>
      </trkpt>
      <trkpt lat="42.8721780" lon="-8.5548720">
        <ele>235.6</ele>
        <time>2021-05-24T08:59:18Z</time>
      </trkpt>
      <trkpt lat="42.8721840" lon="-8.5548600">
        <ele>235.7</ele>
        <time>2021-05-24T08:59:19Z</time>
      </trkpt>
      <trkpt lat="42.8721890" lon="-8.5548460">
        <ele>235.7</ele>
        <time>2021-05-24T08:59:20Z</time>
      </trkpt>
      <trkpt lat="42.8721990" lon="-8.5548330">
        <ele>235.7</ele>
        <time>2021-05-24T08:59:21Z</time>
      </trkpt>
      <trkpt lat="42.8721960" lon="-8.5548170">
        <ele>235.7</ele>
        <time>2021-05-24T08:59:22Z</time>
      </trkpt>
      <trkpt lat="42.8722020" lon="-8.5547970">
        <ele>235.7</ele>
        <time>2021-05-24T08:59:23Z</time>
      </trkpt>
      <trkpt lat="42.8722080" lon="-8.5547770">
        <ele>235.7</ele>
        <time>2021-05-24T08:59:24Z</time>
      </trkpt>
      <trkpt lat="42.8722230" lon="-8.5547530">
        <ele>235.7</ele>
        <time>2021-05-24T08:59:25Z</time>
      </trkpt>
      <trkpt lat="42.8722290" lon="-8.5547410">
        <ele>235.7</ele>
        <time>2021-05-24T08:59:26Z</time>
      </trkpt>
      <trkpt lat="42.8722320" lon="-8.5547200">
        <ele>235.8</ele>
        <time>2021-05-24T08:59:27Z</time>
      </trkpt>
      <trkpt lat="42.8722450" lon="-8.5547130">
        <ele>235.8</ele>
        <time>2021-05-24T08:59:28Z</time>
      </trkpt>
      <trkpt lat="42.8722560" lon="-8.5546970">
        <ele>235.8</ele>
        <time>2021-05-24T08:59:29Z</time>
      </trkpt>
      <trkpt lat="42.8722800" lon="-8.5546860">
        <ele>235.8</ele>
        <time>2021-05-24T08:59:30Z</time>
      </trkpt>
      <trkpt lat="42.8722850" lon="-8.5546800">
        <ele>235.8</ele>
        <time>2021-05-24T08:59:31Z</time>
      </trkpt>
      <trkpt lat="42.8722890" lon="-8.5546740">
        <ele>235.8</ele>
        <time>2021-05-24T08:59:32Z</time>
      </trkpt>
      <trkpt lat="42.8722930" lon="-8.5546550">
        <ele>235.9</ele>
        <time>2021-05-24T08:59:33Z</time>
      </trkpt>
      <trkpt lat="42.8723100" lon="-8.5546570">
        <ele>235.9</ele>
        <time>2021-05-24T08:59:34Z</time>
      </trkpt>
      <trkpt lat="42.8723140" lon="-8.5546480">
        <ele>235.9</ele>
        <time>2021-05-24T08:59:35Z</time>
      </trkpt>
      <trkpt lat="42.8723300" lon="-8.5546400">
        <ele>235.9</ele>
        <time>2021-05-24T08:59:36Z</time>
      </trkpt>
      <trkpt lat="42.8723320" lon="-8.5546120">
        <ele>235.9</ele>
        <time>2021-05-24T08:59:37Z</time>
      </trkpt>
      <trkpt lat="42.8723400" lon="-8.5546060">
        <ele>235.9</ele>
        <time>2021-05-24T08:59:38Z</time>
      </trkpt>
      <trkpt lat="42.8723430" lon="-8.5545890">
        <ele>236.0</ele>
        <time>2021-05-24T08:59:39Z</time>
      </trkpt>
      <trkpt lat="42.8723600" lon="-8.5545810">
        <ele>236.0</ele>
        <time>2021-05-24T08:59:40Z</time>
      </trkpt>
      <trkpt lat="42.8723610" lon="-8.5545600">
        <ele>236.0</ele>
        <time>2021-05-24T08:59:41Z</time>
      </trkpt>
      <trkpt lat="42.8723710" lon="-8.5545530">
        <ele>236.0</ele>
        <time>2021-05-24T08:59:42Z</time>
      </trkpt>
      <trkpt lat="42.8723700" lon="-8.5545390">
        <ele>236.0</ele>
        <time>2021-05-24T08:59:43Z</time>
      </trkpt>
      <trkpt lat="42.8723820" lon="-8.5545470">
        <ele>236.0</ele>
        <time>2021-05-24T08:59:44Z</time>
      </trkpt>
      <trkpt lat="42.8723870" lon="-8.5545280">
        <ele>236.1</ele>
        <time>2021-05-24T08:59:45Z</time>
      </trkpt>
      <trkpt lat="42.8723930" lon="-8.5545130">
        <ele>236.1</ele>
        <time>2021-05-24T08:59:46Z</time>
      </trkpt>
      <trkpt lat="42.8724010" lon="-8.5545100">
        <ele>236.1</ele>
        <time>2021-05-24T08:59:47Z</time>
      </trkpt>
      <trkpt lat="42.8724040" lon="-8.5545020">
        <ele>236.1</ele>
        <time>2021-05-24T08:59:48Z</time>
      </trkpt>
      <trkpt lat="42.8724190" lon="-8.5544900">
        <ele>236.1</ele>
        <time>2021-05-24T08:59:49Z</time>
      </trkpt>
      <trkpt lat="42.8724230" lon="-8.5544740">
        <ele>236.1</ele>
        <time>2021-05-24T08:59:50Z</time>
      </trkpt>
      <trkpt lat="42.8724330" lon="-8.5544560">
        <ele>236.1</ele>
        <time>2021-05-24T08:59:51Z</time>
      </trkpt>
      <trkpt lat="42.8724430" lon="-8.5544480">
        <ele>236.1</ele>
        <time>2021-05-24T08:59:52Z</time>
      </trkpt>
      <trkpt lat="42.8724520" lon="-8.5544250">
        <ele>236.2</ele>
        <time>2021-05-24T08:59:53Z</time>
      </trkpt>
      <trkpt lat="42.8724520" lon="-8.5543930">
        <ele>236.2</ele>
        <time>2021-05-24T08:59:54Z</time>
      </trkpt>
      <trkpt lat="42.8724540" lon="-8.5543770">
        <ele>236.2</ele>
        <time>2021-05-24T08:59:55Z</time>
      </trkpt>
      <trkpt lat="42.8724550" lon="-8.5543620">
        <ele>236.2</ele>
        <time>2021-05-24T08:59:56Z</time>
      </trkpt>
      <trkpt lat="42.8724670" lon="-8.5543660">
        <ele>236.2</ele>
        <time>2021-05-24T08:59:57Z</time>
      </trkpt>
      <trkpt lat="42.8724710" lon="-8.5543540">
        <ele>236.2</ele>
        <time>2021-05-24T08:59:58Z</time>
      </trkpt>
      <trkpt lat="42.8724830" lon="-8.5543320">
        <ele>236.3</ele>
        <time>2021-05-24T08:59:59Z</time>
      </trkpt>
      <trkpt lat="42.8724970" lon="-8.5543110">
        <ele>236.3</ele>
        <time>2021-05-24T09:00:00Z</time>
      </trkpt>
      <trkpt lat="42.8725020" lon="-8.5543020">
        <ele>236.3</ele>
        <time>2021-05-24T09:00:01Z</time>
      </trkpt>
      <trkpt lat="42.8725070" lon="-8.5542920">
        <ele>236.3</ele>
        <time>2021-05-24T09:00:02Z</time>
      </trkpt>
      <trkpt lat="42.8725270" lon="-8.5542820">
        <ele>236.3</ele>
        <time>2021-05-24T09:00:03Z</time>
      </trkpt>
      <trkpt lat="42.8725310" lon="-8.5542750">
        <ele>236.3</ele>
        <time>2021-05-24T09:00:04Z</time>
      </trkpt>
      <trkpt lat="42.8725350" lon="-8.5542670">
        <ele>236.3</ele>
        <time>2021-05-24T09:00:05Z</time>
      </trkpt>
      <trkpt lat="42.8725390" lon="-8.5542600">
        <ele>236.3</ele>
        <time>2021-05-24T09:00:06Z</time>
      </trkpt>
      <trkpt lat="42.8725460" lon="-8.5542310">
        <ele>236.4</ele>
        <time>2021-05-24T09:00:07Z</time>
      </trkpt>
      <trkpt lat="42.8725490" lon="-8.5542220">
        <ele>236.4</ele>
        <time>2021-05-24T09:00:08Z</time>
      </trkpt>
      <trkpt lat="42.8725530" lon="-8.5542120">
        <ele>236.4</ele>
        <time>2021-05-24T09:00:09Z</time>
      </trkpt>
      <trkpt lat="42.8725630" lon="-8.5542050">
        <ele>236.4</ele>
        <time>2021-05-24T09:00:11Z</time>
      </trkpt>
      <trkpt lat="42.8725720" lon="-8.5541900">
        <ele>236.4</ele>
        <time>2021-05-24T09:00:12Z</time>
      </trkpt>
      <trkpt lat="42.8725750" lon="-8.5541810">
        <ele>236.4</ele>
        <time>2021-05-24T09:00:13Z</time>
      </trkpt>
      <trkpt lat="42.8725890" lon="-8.5541710">
        <ele>236.4</ele>
        <time>2021-05-24T09:00:14Z</time>
      </trkpt>
      <trkpt lat="42.8725980" lon="-8.5541520">
        <ele>236.4</ele>
        <time>2021-05-24T09:00:15Z</time>
      </trkpt>
      <trkpt lat="42.8726100" lon="-8.5541550">
        <ele>236.5</ele>
        <time>2021-05-24T09:00:16Z</time>
      </trkpt>
      <trkpt lat="42.8726190" lon="-8.5541460">
        <ele>236.5</ele>
        <time>2021-05-24T09:00:17Z</time>
      </trkpt>
      <trkpt lat="42.8726280" lon="-8.5541390">
        <ele>236.5</ele>
        <time>2021-05-24T09:00:18Z</time>
      </trkpt>
      <trkpt lat="42.8726420" lon="-8.5541180">
        <ele>236.5</ele>
        <time>2021-05-24T09:00:19Z</time>
      </trkpt>
      <trkpt lat="42.8726470" lon="-8.5541080">
        <ele>236.5</ele>
        <time>2021-05-24T09:00:20Z</time>
      </trkpt>
      <trkpt lat="42.8726530" lon="-8.5540970">
        <ele>236.5</ele>
        <time>2021-05-24T09:00:21Z</time>
      </trkpt>
      <trkpt lat="42.8726720" lon="-8.5540820">
        <ele>236.5</ele>
        <time>2021-05-24T09:00:22Z</time>
      </trkpt>
      <trkpt lat="42.8726760" lon="-8.5540750">
        <ele>236.6</ele>
        <time>2021-05-24T09:00:23Z</time>
      </trkpt>
      <trkpt lat="42.8726900" lon="-8.5540550">
        <ele>236.6</ele>
        <time>2021-05-24T09:00:24Z</time>
      </trkpt>
      <trkpt lat="42.8726920" lon="-8.5540390">
        <ele>236.6</ele>
        <time>2021-05-24T09:00:25Z</time>
      </trkpt>
      <trkpt lat="42.8727100" lon="-8.5540390">
        <ele>236.6</ele>
        <time>2021-05-24T09:00:26Z</time>
      </trkpt>
      <trkpt lat="42.8727180" lon="-8.5540230">
        <ele>236.6</ele>
        <time>2021-05-24T09:00:27Z</time>
      </trkpt>
      <trkpt lat="42.8727280" lon="-8.5540100">
        <ele>236.6</ele>
        <time>2021-05-24T09:00:28Z</time>
      </trkpt>
      <trkpt lat="42.8727380" lon="-8.5539900">
        <ele>236.7</ele>
        <time>2021-05-24T09:00:29Z</time>
      </trkpt>
      <trkpt lat="42.8727520" lon="-8.5539730">
        <ele>236.7</ele>
        <time>2021-05-24T09:00:30Z</time>
      </trkpt>
      <trkpt lat="42.8727560" lon="-8.5539630">
        <ele>236.7</ele>
        <time>2021-05-24T09:00:31Z</time>
      </trkpt>
      <trkpt lat="42.8727620" lon="-8.5539500">
        <ele>236.7</ele>
        <time>2021-05-24T09:00:32Z</time>
      </trkpt>
      <trkpt lat="42.8727770" lon="-8.5539260">
        <ele>236.7</ele>
        <time>2021-05-24T09:00:33Z</time>
      </trkpt>
      <trkpt lat="42.8727870" lon="-8.5539110">
        <ele>236.8</ele>
        <time>2021-05-24T09:00:34Z</time>
      </trkpt>
      <trkpt lat="42.8727990" lon="-8.5538940">
        <ele>236.8</ele>
        <time>2021-05-24T09:00:35Z</time>
      </trkpt>
      <trkpt lat="42.8728150" lon="-8.5538740">
        <ele>236.8</ele>
        <time>2021-05-24T09:00:36Z</time>
      </trkpt>
      <trkpt lat="42.8728190" lon="-8.5538650">
        <ele>236.8</ele>
        <time>2021-05-24T09:00:37Z</time>
      </trkpt>
      <trkpt lat="42.8728240" lon="-8.5538550">
        <ele>236.8</ele>
        <time>2021-05-24T09:00:38Z</time>
      </trkpt>
      <trkpt lat="42.8728360" lon="-8.5538370">
        <ele>236.8</ele>
        <time>2021-05-24T09:00:39Z</time>
      </trkpt>
      <trkpt lat="42.8728460" lon="-8.5538310">
        <ele>236.8</ele>
        <time>2021-05-24T09:00:40Z</time>
      </trkpt>
      <trkpt lat="42.8728640" lon="-8.5538020">
        <ele>236.9</ele>
        <time>2021-05-24T09:00:41Z</time>
      </trkpt>
      <trkpt lat="42.8728720" lon="-8.5537960">
        <ele>236.9</ele>
        <time>2021-05-24T09:00:42Z</time>
      </trkpt>
      <trkpt lat="42.8728810" lon="-8.5537920">
        <ele>236.9</ele>
        <time>2021-05-24T09:00:43Z</time>
      </trkpt>
      <trkpt lat="42.8728900" lon="-8.5537840">
        <ele>236.9</ele>
        <time>2021-05-24T09:00:44Z</time>
      </trkpt>
      <trkpt lat="42.8729020" lon="-8.5537710">
        <ele>236.9</ele>
        <time>2021-05-24T09:00:45Z</time>
      </trkpt>
      <trkpt lat="42.8729010" lon="-8.5537740">
        <ele>236.9</ele>
        <time>2021-05-24T09:00:46Z</time>
      </trkpt>
      <trkpt lat="42.8729140" lon="-8.5537620">
        <ele>236.9</ele>
        <time>2021-05-24T09:00:47Z</time>
      </trkpt>
      <trkpt lat="42.8729260" lon="-8.5537490">
        <ele>236.9</ele>
        <time>2021-05-24T09:00:48Z</time>
      </trkpt>
      <trkpt lat="42.8729370" lon="-8.5537440">
        <ele>237.0</ele>
        <time>2021-05-24T09:00:49Z</time>
      </trkpt>
      <trkpt lat="42.8729450" lon="-8.5537220">
        <ele>237.0</ele>
        <time>2021-05-24T09:00:50Z</time>
      </trkpt>
      <trkpt lat="42.8729500" lon="-8.5537030">
        <ele>237.0</ele>
        <time>2021-05-24T09:00:51Z</time>
      </trkpt>
      <trkpt lat="42.8729680" lon="-8.5536890">
        <ele>237.0</ele>
        <time>2021-05-24T09:00:52Z</time>
      </trkpt>
      <trkpt lat="42.8729850" lon="-8.5536720">
        <ele>237.0</ele>
        <time>2021-05-24T09:00:53Z</time>
      </trkpt>
      <trkpt lat="42.8729840" lon="-8.5536590">
        <ele>237.0</ele>
        <time>2021-05-24T09:00:54Z</time>
      </trkpt>
      <trkpt lat="42.8729920" lon="-8.5536400">
        <ele>237.0</ele>
        <time>2021-05-24T09:00:55Z</time>
      </trkpt>
      <trkpt lat="42.8730000" lon="-8.5536250">
        <ele>237.0</ele>
        <time>2021-05-24T09:00:56Z</time>
      </trkpt>
      <trkpt lat="42.8730100" lon="-8.5536050">
        <ele>237.0</ele>
        <time>2021-05-24T09:00:57Z</time>
      </trkpt>
      <trkpt lat="42.8730190" lon="-8.5535890">
        <ele>237.0</ele>
        <time>2021-05-24T09:00:58Z</time>
      </trkpt>
      <trkpt lat="42.8730290" lon="-8.5535680">
        <ele>237.0</ele>
        <time>2021-05-24T09:00:59Z</time>
      </trkpt>
      <trkpt lat="42.8730310" lon="-8.5535520">
        <ele>237.0</ele>
        <time>2021-05-24T09:01:00Z</time>
      </trkpt>
      <trkpt lat="42.8730410" lon="-8.5535350">
        <ele>237.0</ele>
        <time>2021-05-24T09:01:01Z</time>
      </trkpt>
      <trkpt lat="42.8730530" lon="-8.5535220">
        <ele>237.0</ele>
        <time>2021-05-24T09:01:02Z</time>
      </trkpt>
      <trkpt lat="42.8730700" lon="-8.5535030">
        <ele>237.0</ele>
        <time>2021-05-24T09:01:03Z</time>
      </trkpt>
      <trkpt lat="42.8730760" lon="-8.5534950">
        <ele>237.0</ele>
        <time>2021-05-24T09:01:04Z</time>
      </trkpt>
      <trkpt lat="42.8730830" lon="-8.5534870">
        <ele>237.0</ele>
        <time>2021-05-24T09:01:05Z</time>
      </trkpt>
      <trkpt lat="42.8730910" lon="-8.5534820">
        <ele>237.0</ele>
        <time>2021-05-24T09:01:06Z</time>
      </trkpt>
      <trkpt lat="42.8731030" lon="-8.5534790">
        <ele>237.1</ele>
        <time>2021-05-24T09:01:07Z</time>
      </trkpt>
      <trkpt lat="42.8731160" lon="-8.5534750">
        <ele>237.1</ele>
        <time>2021-05-24T09:01:08Z</time>
      </trkpt>
      <trkpt lat="42.8731220" lon="-8.5534710">
        <ele>237.1</ele>
        <time>2021-05-24T09:01:09Z</time>
      </trkpt>
      <trkpt lat="42.8731270" lon="-8.5534780">
        <ele>237.1</ele>
        <time>2021-05-24T09:01:10Z</time>
      </trkpt>
      <trkpt lat="42.8731430" lon="-8.5534580">
        <ele>237.2</ele>
        <time>2021-05-24T09:01:11Z</time>
      </trkpt>
      <trkpt lat="42.8731590" lon="-8.5534540">
        <ele>237.3</ele>
        <time>2021-05-24T09:01:12Z</time>
      </trkpt>
      <trkpt lat="42.8731730" lon="-8.5534580">
        <ele>237.3</ele>
        <time>2021-05-24T09:01:13Z</time>
      </trkpt>
      <trkpt lat="42.8731850" lon="-8.5534530">
        <ele>237.3</ele>
        <time>2021-05-24T09:01:14Z</time>
      </trkpt>
      <trkpt lat="42.8731970" lon="-8.5534450">
        <ele>237.3</ele>
        <time>2021-05-24T09:01:15Z</time>
      </trkpt>
      <trkpt lat="42.8732050" lon="-8.5534370">
        <ele>237.4</ele>
        <time>2021-05-24T09:01:16Z</time>
      </trkpt>
      <trkpt lat="42.8732330" lon="-8.5534140">
        <ele>237.4</ele>
        <time>2021-05-24T09:01:17Z</time>
      </trkpt>
      <trkpt lat="42.8732380" lon="-8.5534110">
        <ele>237.4</ele>
        <time>2021-05-24T09:01:18Z</time>
      </trkpt>
      <trkpt lat="42.8732400" lon="-8.5534070">
        <ele>237.4</ele>
        <time>2021-05-24T09:01:19Z</time>
      </trkpt>
      <trkpt lat="42.8732570" lon="-8.5533880">
        <ele>237.5</ele>
        <time>2021-05-24T09:01:20Z</time>
      </trkpt>
      <trkpt lat="42.8732530" lon="-8.5533840">
        <ele>237.5</ele>
        <time>2021-05-24T09:01:21Z</time>
      </trkpt>
      <trkpt lat="42.8732580" lon="-8.5533780">
        <ele>237.5</ele>
        <time>2021-05-24T09:01:22Z</time>
      </trkpt>
      <trkpt lat="42.8732550" lon="-8.5533780">
        <ele>237.5</ele>
        <time>2021-05-24T09:01:23Z</time>
      </trkpt>
      <trkpt lat="42.8732610" lon="-8.5533610">
        <ele>237.5</ele>
        <time>2021-05-24T09:01:24Z</time>
      </trkpt>
      <trkpt lat="42.8732590" lon="-8.5533570">
        <ele>237.5</ele>
        <time>2021-05-24T09:01:25Z</time>
      </trkpt>
      <trkpt lat="42.8732670" lon="-8.5533420">
        <ele>237.5</ele>
        <time>2021-05-24T09:01:26Z</time>
      </trkpt>
      <trkpt lat="42.8732700" lon="-8.5533270">
        <ele>237.5</ele>
        <time>2021-05-24T09:01:27Z</time>
      </trkpt>
      <trkpt lat="42.8732730" lon="-8.5533220">
        <ele>237.5</ele>
        <time>2021-05-24T09:01:28Z</time>
      </trkpt>
      <trkpt lat="42.8732770" lon="-8.5533160">
        <ele>237.5</ele>
        <time>2021-05-24T09:01:29Z</time>
      </trkpt>
      <trkpt lat="42.8732810" lon="-8.5533100">
        <ele>237.5</ele>
        <time>2021-05-24T09:01:30Z</time>
      </trkpt>
      <trkpt lat="42.8732840" lon="-8.5533050">
        <ele>237.5</ele>
        <time>2021-05-24T09:01:31Z</time>
      </trkpt>
      <trkpt lat="42.8732880" lon="-8.5532990">
        <ele>237.5</ele>
        <time>2021-05-24T09:01:32Z</time>
      </trkpt>
      <trkpt lat="42.8732870" lon="-8.5532920">
        <ele>237.5</ele>
        <time>2021-05-24T09:01:33Z</time>
      </trkpt>
      <trkpt lat="42.8732920" lon="-8.5532750">
        <ele>237.5</ele>
        <time>2021-05-24T09:01:34Z</time>
      </trkpt>
      <trkpt lat="42.8733030" lon="-8.5532570">
        <ele>237.5</ele>
        <time>2021-05-24T09:01:35Z</time>
      </trkpt>
      <trkpt lat="42.8733160" lon="-8.5532300">
        <ele>237.6</ele>
        <time>2021-05-24T09:01:36Z</time>
      </trkpt>
      <trkpt lat="42.8733190" lon="-8.5532200">
        <ele>237.6</ele>
        <time>2021-05-24T09:01:37Z</time>
      </trkpt>
      <trkpt lat="42.8733230" lon="-8.5532090">
        <ele>237.6</ele>
        <time>2021-05-24T09:01:38Z</time>
      </trkpt>
      <trkpt lat="42.8733280" lon="-8.5531900">
        <ele>237.6</ele>
        <time>2021-05-24T09:01:39Z</time>
      </trkpt>
      <trkpt lat="42.8733340" lon="-8.5531690">
        <ele>237.6</ele>
        <time>2021-05-24T09:01:40Z</time>
      </trkpt>
      <trkpt lat="42.8733400" lon="-8.5531330">
        <ele>237.6</ele>
        <time>2021-05-24T09:01:41Z</time>
      </trkpt>
      <trkpt lat="42.8733420" lon="-8.5531160">
        <ele>237.6</ele>
        <time>2021-05-24T09:01:42Z</time>
      </trkpt>
      <trkpt lat="42.8733440" lon="-8.5530900">
        <ele>237.6</ele>
        <time>2021-05-24T09:01:43Z</time>
      </trkpt>
      <trkpt lat="42.8733440" lon="-8.5530730">
        <ele>237.6</ele>
        <time>2021-05-24T09:01:44Z</time>
      </trkpt>
      <trkpt lat="42.8733450" lon="-8.5530570">
        <ele>237.6</ele>
        <time>2021-05-24T09:01:45Z</time>
      </trkpt>
      <trkpt lat="42.8733470" lon="-8.5530300">
        <ele>237.6</ele>
        <time>2021-05-24T09:01:46Z</time>
      </trkpt>
      <trkpt lat="42.8733460" lon="-8.5530140">
        <ele>237.6</ele>
        <time>2021-05-24T09:01:47Z</time>
      </trkpt>
      <trkpt lat="42.8733450" lon="-8.5529990">
        <ele>237.6</ele>
        <time>2021-05-24T09:01:48Z</time>
      </trkpt>
      <trkpt lat="42.8733430" lon="-8.5529700">
        <ele>237.6</ele>
        <time>2021-05-24T09:01:49Z</time>
      </trkpt>
      <trkpt lat="42.8733430" lon="-8.5529590">
        <ele>237.6</ele>
        <time>2021-05-24T09:01:50Z</time>
      </trkpt>
      <trkpt lat="42.8733430" lon="-8.5529480">
        <ele>237.6</ele>
        <time>2021-05-24T09:01:51Z</time>
      </trkpt>
      <trkpt lat="42.8733480" lon="-8.5529190">
        <ele>237.6</ele>
        <time>2021-05-24T09:01:52Z</time>
      </trkpt>
      <trkpt lat="42.8733500" lon="-8.5529090">
        <ele>237.6</ele>
        <time>2021-05-24T09:01:53Z</time>
      </trkpt>
      <trkpt lat="42.8733520" lon="-8.5528980">
        <ele>237.7</ele>
        <time>2021-05-24T09:01:54Z</time>
      </trkpt>
      <trkpt lat="42.8733600" lon="-8.5528940">
        <ele>237.7</ele>
        <time>2021-05-24T09:01:55Z</time>
      </trkpt>
      <trkpt lat="42.8733640" lon="-8.5528760">
        <ele>237.7</ele>
        <time>2021-05-24T09:01:56Z</time>
      </trkpt>
      <trkpt lat="42.8733650" lon="-8.5528640">
        <ele>237.7</ele>
        <time>2021-05-24T09:01:57Z</time>
      </trkpt>
      <trkpt lat="42.8733700" lon="-8.5528440">
        <ele>237.7</ele>
        <time>2021-05-24T09:01:58Z</time>
      </trkpt>
      <trkpt lat="42.8733710" lon="-8.5528310">
        <ele>237.7</ele>
        <time>2021-05-24T09:01:59Z</time>
      </trkpt>
      <trkpt lat="42.8733760" lon="-8.5528170">
        <ele>237.7</ele>
        <time>2021-05-24T09:02:00Z</time>
      </trkpt>
      <trkpt lat="42.8733790" lon="-8.5527990">
        <ele>237.7</ele>
        <time>2021-05-24T09:02:01Z</time>
      </trkpt>
      <trkpt lat="42.8733870" lon="-8.5527840">
        <ele>237.7</ele>
        <time>2021-05-24T09:02:02Z</time>
      </trkpt>
      <trkpt lat="42.8733950" lon="-8.5527660">
        <ele>237.7</ele>
        <time>2021-05-24T09:02:03Z</time>
      </trkpt>
      <trkpt lat="42.8733990" lon="-8.5527580">
        <ele>237.7</ele>
        <time>2021-05-24T09:02:04Z</time>
      </trkpt>
      <trkpt lat="42.8734040" lon="-8.5527490">
        <ele>237.7</ele>
        <time>2021-05-24T09:02:05Z</time>
      </trkpt>
      <trkpt lat="42.8734080" lon="-8.5527410">
        <ele>237.7</ele>
        <time>2021-05-24T09:02:06Z</time>
      </trkpt>
      <trkpt lat="42.8734160" lon="-8.5527270">
        <ele>237.7</ele>
        <time>2021-05-24T09:02:07Z</time>
      </trkpt>
      <trkpt lat="42.8734170" lon="-8.5527200">
        <ele>237.7</ele>
        <time>2021-05-24T09:02:08Z</time>
      </trkpt>
      <trkpt lat="42.8734180" lon="-8.5527110">
        <ele>237.7</ele>
        <time>2021-05-24T09:02:09Z</time>
      </trkpt>
      <trkpt lat="42.8734260" lon="-8.5527040">
        <ele>237.7</ele>
        <time>2021-05-24T09:02:10Z</time>
      </trkpt>
      <trkpt lat="42.8734360" lon="-8.5526970">
        <ele>237.7</ele>
        <time>2021-05-24T09:02:11Z</time>
      </trkpt>
      <trkpt lat="42.8734410" lon="-8.5526900">
        <ele>237.7</ele>
        <time>2021-05-24T09:02:12Z</time>
      </trkpt>
      <trkpt lat="42.8734450" lon="-8.5526910">
        <ele>237.7</ele>
        <time>2021-05-24T09:02:13Z</time>
      </trkpt>
      <trkpt lat="42.8734580" lon="-8.5526880">
        <ele>237.7</ele>
        <time>2021-05-24T09:02:14Z</time>
      </trkpt>
      <trkpt lat="42.8734600" lon="-8.5526790">
        <ele>237.7</ele>
        <time>2021-05-24T09:02:15Z</time>
      </trkpt>
      <trkpt lat="42.8734700" lon="-8.5526640">
        <ele>237.8</ele>
        <time>2021-05-24T09:02:16Z</time>
      </trkpt>
      <trkpt lat="42.8734770" lon="-8.5526580">
        <ele>237.8</ele>
        <time>2021-05-24T09:02:17Z</time>
      </trkpt>
      <trkpt lat="42.8734970" lon="-8.5526480">
        <ele>237.8</ele>
        <time>2021-05-24T09:02:18Z</time>
      </trkpt>
      <trkpt lat="42.8735040" lon="-8.5526420">
        <ele>237.8</ele>
        <time>2021-05-24T09:02:19Z</time>
      </trkpt>
      <trkpt lat="42.8735110" lon="-8.5526370">
        <ele>237.8</ele>
        <time>2021-05-24T09:02:20Z</time>
      </trkpt>
      <trkpt lat="42.8735220" lon="-8.5526280">
        <ele>237.8</ele>
        <time>2021-05-24T09:02:21Z</time>
      </trkpt>
      <trkpt lat="42.8735440" lon="-8.5526230">
        <ele>237.8</ele>
        <time>2021-05-24T09:02:22Z</time>
      </trkpt>
      <trkpt lat="42.8735600" lon="-8.5526100">
        <ele>237.8</ele>
        <time>2021-05-24T09:02:23Z</time>
      </trkpt>
      <trkpt lat="42.8735750" lon="-8.5526000">
        <ele>237.8</ele>
        <time>2021-05-24T09:02:24Z</time>
      </trkpt>
      <trkpt lat="42.8735870" lon="-8.5525790">
        <ele>237.8</ele>
        <time>2021-05-24T09:02:25Z</time>
      </trkpt>
      <trkpt lat="42.8735950" lon="-8.5525720">
        <ele>237.8</ele>
        <time>2021-05-24T09:02:26Z</time>
      </trkpt>
      <trkpt lat="42.8736020" lon="-8.5525640">
        <ele>237.8</ele>
        <time>2021-05-24T09:02:27Z</time>
      </trkpt>
      <trkpt lat="42.8736120" lon="-8.5525580">
        <ele>237.8</ele>
        <time>2021-05-24T09:02:28Z</time>
      </trkpt>
      <trkpt lat="42.8736160" lon="-8.5525540">
        <ele>237.8</ele>
        <time>2021-05-24T09:02:29Z</time>
      </trkpt>
      <trkpt lat="42.8736250" lon="-8.5525410">
        <ele>237.8</ele>
        <time>2021-05-24T09:02:30Z</time>
      </trkpt>
      <trkpt lat="42.8736600" lon="-8.5525260">
        <ele>237.8</ele>
        <time>2021-05-24T09:02:31Z</time>
      </trkpt>
      <trkpt lat="42.8736730" lon="-8.5525200">
        <ele>237.8</ele>
        <time>2021-05-24T09:02:32Z</time>
      </trkpt>
      <trkpt lat="42.8736880" lon="-8.5525090">
        <ele>237.8</ele>
        <time>2021-05-24T09:02:33Z</time>
      </trkpt>
      <trkpt lat="42.8736990" lon="-8.5525030">
        <ele>237.8</ele>
        <time>2021-05-24T09:02:34Z</time>
      </trkpt>
      <trkpt lat="42.8737080" lon="-8.5524970">
        <ele>237.8</ele>
        <time>2021-05-24T09:02:35Z</time>
      </trkpt>
      <trkpt lat="42.8737200" lon="-8.5524980">
        <ele>237.9</ele>
        <time>2021-05-24T09:02:36Z</time>
      </trkpt>
      <trkpt lat="42.8737300" lon="-8.5524900">
        <ele>237.9</ele>
        <time>2021-05-24T09:02:37Z</time>
      </trkpt>
      <trkpt lat="42.8737410" lon="-8.5524870">
        <ele>237.9</ele>
        <time>2021-05-24T09:02:38Z</time>
      </trkpt>
      <trkpt lat="42.8737600" lon="-8.5524850">
        <ele>237.9</ele>
        <time>2021-05-24T09:02:39Z</time>
      </trkpt>
      <trkpt lat="42.8737730" lon="-8.5524770">
        <ele>237.9</ele>
        <time>2021-05-24T09:02:40Z</time>
      </trkpt>
      <trkpt lat="42.8737810" lon="-8.5524780">
        <ele>237.9</ele>
        <time>2021-05-24T09:02:41Z</time>
      </trkpt>
      <trkpt lat="42.8737890" lon="-8.5524790">
        <ele>237.9</ele>
        <time>2021-05-24T09:02:42Z</time>
      </trkpt>
      <trkpt lat="42.8737970" lon="-8.5524800">
        <ele>237.9</ele>
        <time>2021-05-24T09:02:43Z</time>
      </trkpt>
      <trkpt lat="42.8738180" lon="-8.5524810">
        <ele>237.9</ele>
        <time>2021-05-24T09:02:44Z</time>
      </trkpt>
      <trkpt lat="42.8738210" lon="-8.5524770">
        <ele>237.9</ele>
        <time>2021-05-24T09:02:45Z</time>
      </trkpt>
      <trkpt lat="42.8738200" lon="-8.5524680">
        <ele>237.9</ele>
        <time>2021-05-24T09:02:46Z</time>
      </trkpt>
      <trkpt lat="42.8738190" lon="-8.5524570">
        <ele>237.9</ele>
        <time>2021-05-24T09:02:48Z</time>
      </trkpt>
      <trkpt lat="42.8738230" lon="-8.5524500">
        <ele>237.9</ele>
        <time>2021-05-24T09:02:49Z</time>
      </trkpt>
      <trkpt lat="42.8738380" lon="-8.5524380">
        <ele>237.9</ele>
        <time>2021-05-24T09:02:50Z</time>
      </trkpt>
      <trkpt lat="42.8738430" lon="-8.5524290">
        <ele>237.9</ele>
        <time>2021-05-24T09:02:51Z</time>
      </trkpt>
      <trkpt lat="42.8738590" lon="-8.5524190">
        <ele>237.9</ele>
        <time>2021-05-24T09:02:52Z</time>
      </trkpt>
      <trkpt lat="42.8738710" lon="-8.5524060">
        <ele>237.9</ele>
        <time>2021-05-24T09:02:53Z</time>
      </trkpt>
      <trkpt lat="42.8738770" lon="-8.5523980">
        <ele>237.9</ele>
        <time>2021-05-24T09:02:54Z</time>
      </trkpt>
      <trkpt lat="42.8738950" lon="-8.5523860">
        <ele>237.9</ele>
        <time>2021-05-24T09:02:55Z</time>
      </trkpt>
      <trkpt lat="42.8738990" lon="-8.5523840">
        <ele>237.9</ele>
        <time>2021-05-24T09:02:56Z</time>
      </trkpt>
      <trkpt lat="42.8738920" lon="-8.5523850">
        <ele>237.9</ele>
        <time>2021-05-24T09:02:57Z</time>
      </trkpt>
      <trkpt lat="42.8738930" lon="-8.5523890">
        <ele>237.9</ele>
        <time>2021-05-24T09:02:58Z</time>
      </trkpt>
      <trkpt lat="42.8738710" lon="-8.5523930">
        <ele>237.9</ele>
        <time>2021-05-24T09:02:59Z</time>
      </trkpt>
      <trkpt lat="42.8738680" lon="-8.5523870">
        <ele>237.9</ele>
        <time>2021-05-24T09:03:00Z</time>
      </trkpt>
      <trkpt lat="42.8738680" lon="-8.5523840">
        <ele>237.9</ele>
        <time>2021-05-24T09:03:01Z</time>
      </trkpt>
      <trkpt lat="42.8738680" lon="-8.5523790">
        <ele>237.9</ele>
        <time>2021-05-24T09:03:02Z</time>
      </trkpt>
      <trkpt lat="42.8738730" lon="-8.5523710">
        <ele>237.9</ele>
        <time>2021-05-24T09:03:03Z</time>
      </trkpt>
      <trkpt lat="42.8738770" lon="-8.5523640">
        <ele>237.9</ele>
        <time>2021-05-24T09:03:04Z</time>
      </trkpt>
      <trkpt lat="42.8738820" lon="-8.5523570">
        <ele>237.9</ele>
        <time>2021-05-24T09:03:05Z</time>
      </trkpt>
      <trkpt lat="42.8738870" lon="-8.5523490">
        <ele>237.9</ele>
        <time>2021-05-24T09:03:06Z</time>
      </trkpt>
      <trkpt lat="42.8738920" lon="-8.5523420">
        <ele>237.9</ele>
        <time>2021-05-24T09:03:07Z</time>
      </trkpt>
      <trkpt lat="42.8738960" lon="-8.5523350">
        <ele>237.9</ele>
        <time>2021-05-24T09:03:08Z</time>
      </trkpt>
      <trkpt lat="42.8739010" lon="-8.5523280">
        <ele>237.9</ele>
        <time>2021-05-24T09:03:09Z</time>
      </trkpt>
      <trkpt lat="42.8739100" lon="-8.5523070">
        <ele>237.9</ele>
        <time>2021-05-24T09:03:10Z</time>
      </trkpt>
      <trkpt lat="42.8739100" lon="-8.5523000">
        <ele>237.9</ele>
        <time>2021-05-24T09:03:11Z</time>
      </trkpt>
      <trkpt lat="42.8739100" lon="-8.5522940">
        <ele>237.9</ele>
        <time>2021-05-24T09:03:12Z</time>
      </trkpt>
      <trkpt lat="42.8739100" lon="-8.5522880">
        <ele>237.9</ele>
        <time>2021-05-24T09:03:13Z</time>
      </trkpt>
      <trkpt lat="42.8739100" lon="-8.5522810">
        <ele>237.9</ele>
        <time>2021-05-24T09:03:14Z</time>
      </trkpt>
      <trkpt lat="42.8739100" lon="-8.5522750">
        <ele>237.9</ele>
        <time>2021-05-24T09:03:15Z</time>
      </trkpt>
      <trkpt lat="42.8739170" lon="-8.5522630">
        <ele>237.9</ele>
        <time>2021-05-24T09:03:16Z</time>
      </trkpt>
      <trkpt lat="42.8739280" lon="-8.5522410">
        <ele>237.9</ele>
        <time>2021-05-24T09:03:17Z</time>
      </trkpt>
      <trkpt lat="42.8739490" lon="-8.5522150">
        <ele>237.9</ele>
        <time>2021-05-24T09:03:18Z</time>
      </trkpt>
      <trkpt lat="42.8739600" lon="-8.5522050">
        <ele>237.9</ele>
        <time>2021-05-24T09:03:19Z</time>
      </trkpt>
      <trkpt lat="42.8739760" lon="-8.5521930">
        <ele>237.9</ele>
        <time>2021-05-24T09:03:20Z</time>
      </trkpt>
      <trkpt lat="42.8739850" lon="-8.5521850">
        <ele>237.9</ele>
        <time>2021-05-24T09:03:21Z</time>
      </trkpt>
      <trkpt lat="42.8739990" lon="-8.5521760">
        <ele>237.9</ele>
        <time>2021-05-24T09:03:22Z</time>
      </trkpt>
      <trkpt lat="42.8740200" lon="-8.5521570">
        <ele>237.9</ele>
        <time>2021-05-24T09:03:23Z</time>
      </trkpt>
      <trkpt lat="42.8740320" lon="-8.5521410">
        <ele>237.9</ele>
        <time>2021-05-24T09:03:24Z</time>
      </trkpt>
      <trkpt lat="42.8740400" lon="-8.5521220">
        <ele>237.9</ele>
        <time>2021-05-24T09:03:25Z</time>
      </trkpt>
      <trkpt lat="42.8740530" lon="-8.5521070">
        <ele>237.9</ele>
        <time>2021-05-24T09:03:26Z</time>
      </trkpt>
      <trkpt lat="42.8740630" lon="-8.5520780">
        <ele>238.0</ele>
        <time>2021-05-24T09:03:27Z</time>
      </trkpt>
      <trkpt lat="42.8740660" lon="-8.5520640">
        <ele>238.0</ele>
        <time>2021-05-24T09:03:28Z</time>
      </trkpt>
      <trkpt lat="42.8740680" lon="-8.5520500">
        <ele>238.0</ele>
        <time>2021-05-24T09:03:29Z</time>
      </trkpt>
      <trkpt lat="42.8740800" lon="-8.5520390">
        <ele>238.0</ele>
        <time>2021-05-24T09:03:30Z</time>
      </trkpt>
      <trkpt lat="42.8740890" lon="-8.5520240">
        <ele>238.0</ele>
        <time>2021-05-24T09:03:31Z</time>
      </trkpt>
      <trkpt lat="42.8741050" lon="-8.5520160">
        <ele>238.0</ele>
        <time>2021-05-24T09:03:32Z</time>
      </trkpt>
      <trkpt lat="42.8740980" lon="-8.5520010">
        <ele>238.0</ele>
        <time>2021-05-24T09:03:33Z</time>
      </trkpt>
      <trkpt lat="42.8741110" lon="-8.5519830">
        <ele>238.0</ele>
        <time>2021-05-24T09:03:34Z</time>
      </trkpt>
      <trkpt lat="42.8741290" lon="-8.5519840">
        <ele>238.0</ele>
        <time>2021-05-24T09:03:35Z</time>
      </trkpt>
      <trkpt lat="42.8741430" lon="-8.5519810">
        <ele>238.0</ele>
        <time>2021-05-24T09:03:36Z</time>
      </trkpt>
      <trkpt lat="42.8741660" lon="-8.5519730">
        <ele>238.0</ele>
        <time>2021-05-24T09:03:37Z</time>
      </trkpt>
      <trkpt lat="42.8741730" lon="-8.5519700">
        <ele>238.0</ele>
        <time>2021-05-24T09:03:38Z</time>
      </trkpt>
      <trkpt lat="42.8741810" lon="-8.5519670">
        <ele>238.0</ele>
        <time>2021-05-24T09:03:39Z</time>
      </trkpt>
      <trkpt lat="42.8741830" lon="-8.5519550">
        <ele>238.0</ele>
        <time>2021-05-24T09:03:40Z</time>
      </trkpt>
      <trkpt lat="42.8741850" lon="-8.5519400">
        <ele>238.0</ele>
        <time>2021-05-24T09:03:41Z</time>
      </trkpt>
      <trkpt lat="42.8741940" lon="-8.5519270">
        <ele>238.0</ele>
        <time>2021-05-24T09:03:42Z</time>
      </trkpt>
      <trkpt lat="42.8741940" lon="-8.5519120">
        <ele>238.0</ele>
        <time>2021-05-24T09:03:43Z</time>
      </trkpt>
      <trkpt lat="42.8741960" lon="-8.5518950">
        <ele>238.0</ele>
        <time>2021-05-24T09:03:44Z</time>
      </trkpt>
      <trkpt lat="42.8742130" lon="-8.5518850">
        <ele>238.0</ele>
        <time>2021-05-24T09:03:45Z</time>
      </trkpt>
      <trkpt lat="42.8742260" lon="-8.5518790">
        <ele>238.0</ele>
        <time>2021-05-24T09:03:46Z</time>
      </trkpt>
      <trkpt lat="42.8742360" lon="-8.5518600">
        <ele>238.0</ele>
        <time>2021-05-24T09:03:47Z</time>
      </trkpt>
      <trkpt lat="42.8742320" lon="-8.5518560">
        <ele>238.0</ele>
        <time>2021-05-24T09:03:48Z</time>
      </trkpt>
      <trkpt lat="42.8742340" lon="-8.5518510">
        <ele>238.0</ele>
        <time>2021-05-24T09:03:49Z</time>
      </trkpt>
      <trkpt lat="42.8742360" lon="-8.5518390">
        <ele>238.0</ele>
        <time>2021-05-24T09:03:50Z</time>
      </trkpt>
      <trkpt lat="42.8742450" lon="-8.5518320">
        <ele>238.0</ele>
        <time>2021-05-24T09:03:51Z</time>
      </trkpt>
      <trkpt lat="42.8742570" lon="-8.5518320">
        <ele>238.0</ele>
        <time>2021-05-24T09:03:52Z</time>
      </trkpt>
      <trkpt lat="42.8742660" lon="-8.5518130">
        <ele>238.0</ele>
        <time>2021-05-24T09:03:53Z</time>
      </trkpt>
      <trkpt lat="42.8742790" lon="-8.5518010">
        <ele>238.0</ele>
        <time>2021-05-24T09:03:54Z</time>
      </trkpt>
      <trkpt lat="42.8742850" lon="-8.5517920">
        <ele>238.0</ele>
        <time>2021-05-24T09:03:55Z</time>
      </trkpt>
      <trkpt lat="42.8742950" lon="-8.5517810">
        <ele>238.0</ele>
        <time>2021-05-24T09:03:56Z</time>
      </trkpt>
      <trkpt lat="42.8742990" lon="-8.5517700">
        <ele>238.0</ele>
        <time>2021-05-24T09:03:57Z</time>
      </trkpt>
      <trkpt lat="42.8743180" lon="-8.5517530">
        <ele>238.0</ele>
        <time>2021-05-24T09:03:58Z</time>
      </trkpt>
      <trkpt lat="42.8743250" lon="-8.5517460">
        <ele>238.0</ele>
        <time>2021-05-24T09:03:59Z</time>
      </trkpt>
      <trkpt lat="42.8743290" lon="-8.5517450">
        <ele>238.0</ele>
        <time>2021-05-24T09:04:00Z</time>
      </trkpt>
      <trkpt lat="42.8743360" lon="-8.5517480">
        <ele>238.0</ele>
        <time>2021-05-24T09:04:01Z</time>
      </trkpt>
      <trkpt lat="42.8743470" lon="-8.5517470">
        <ele>238.0</ele>
        <time>2021-05-24T09:04:02Z</time>
      </trkpt>
      <trkpt lat="42.8743580" lon="-8.5517440">
        <ele>238.0</ele>
        <time>2021-05-24T09:04:03Z</time>
      </trkpt>
      <trkpt lat="42.8743780" lon="-8.5517260">
        <ele>238.0</ele>
        <time>2021-05-24T09:04:04Z</time>
      </trkpt>
      <trkpt lat="42.8743840" lon="-8.5517180">
        <ele>238.0</ele>
        <time>2021-05-24T09:04:05Z</time>
      </trkpt>
      <trkpt lat="42.8743910" lon="-8.5517090">
        <ele>238.0</ele>
        <time>2021-05-24T09:04:06Z</time>
      </trkpt>
      <trkpt lat="42.8744030" lon="-8.5516910">
        <ele>238.0</ele>
        <time>2021-05-24T09:04:07Z</time>
      </trkpt>
      <trkpt lat="42.8744090" lon="-8.5516830">
        <ele>238.0</ele>
        <time>2021-05-24T09:04:08Z</time>
      </trkpt>
      <trkpt lat="42.8744150" lon="-8.5516740">
        <ele>238.0</ele>
        <time>2021-05-24T09:04:09Z</time>
      </trkpt>
      <trkpt lat="42.8744210" lon="-8.5516650">
        <ele>238.0</ele>
        <time>2021-05-24T09:04:10Z</time>
      </trkpt>
      <trkpt lat="42.8744210" lon="-8.5516590">
        <ele>238.0</ele>
        <time>2021-05-24T09:04:11Z</time>
      </trkpt>
      <trkpt lat="42.8744260" lon="-8.5516480">
        <ele>238.0</ele>
        <time>2021-05-24T09:04:12Z</time>
      </trkpt>
      <trkpt lat="42.8744300" lon="-8.5516270">
        <ele>238.0</ele>
        <time>2021-05-24T09:04:13Z</time>
      </trkpt>
      <trkpt lat="42.8744320" lon="-8.5516090">
        <ele>238.1</ele>
        <time>2021-05-24T09:04:14Z</time>
      </trkpt>
      <trkpt lat="42.8744330" lon="-8.5515950">
        <ele>238.1</ele>
        <time>2021-05-24T09:04:15Z</time>
      </trkpt>
      <trkpt lat="42.8744380" lon="-8.5515810">
        <ele>238.1</ele>
        <time>2021-05-24T09:04:16Z</time>
      </trkpt>
      <trkpt lat="42.8744480" lon="-8.5515660">
        <ele>238.1</ele>
        <time>2021-05-24T09:04:17Z</time>
      </trkpt>
      <trkpt lat="42.8744580" lon="-8.5515560">
        <ele>238.1</ele>
        <time>2021-05-24T09:04:18Z</time>
      </trkpt>
      <trkpt lat="42.8744680" lon="-8.5515470">
        <ele>238.1</ele>
        <time>2021-05-24T09:04:19Z</time>
      </trkpt>
      <trkpt lat="42.8744850" lon="-8.5515180">
        <ele>238.1</ele>
        <time>2021-05-24T09:04:20Z</time>
      </trkpt>
      <trkpt lat="42.8744900" lon="-8.5515060">
        <ele>238.1</ele>
        <time>2021-05-24T09:04:21Z</time>
      </trkpt>
      <trkpt lat="42.8744990" lon="-8.5514870">
        <ele>238.1</ele>
        <time>2021-05-24T09:04:22Z</time>
      </trkpt>
      <trkpt lat="42.8745130" lon="-8.5514690">
        <ele>238.1</ele>
        <time>2021-05-24T09:04:23Z</time>
      </trkpt>
      <trkpt lat="42.8745250" lon="-8.5514560">
        <ele>238.2</ele>
        <time>2021-05-24T09:04:24Z</time>
      </trkpt>
      <trkpt lat="42.8745310" lon="-8.5514460">
        <ele>238.2</ele>
        <time>2021-05-24T09:04:25Z</time>
      </trkpt>
      <trkpt lat="42.8745400" lon="-8.5514370">
        <ele>238.2</ele>
        <time>2021-05-24T09:04:26Z</time>
      </trkpt>
      <trkpt lat="42.8745680" lon="-8.5514250">
        <ele>238.2</ele>
        <time>2021-05-24T09:04:27Z</time>
      </trkpt>
      <trkpt lat="42.8745780" lon="-8.5514210">
        <ele>238.2</ele>
        <time>2021-05-24T09:04:28Z</time>
      </trkpt>
      <trkpt lat="42.8745940" lon="-8.5514050">
        <ele>238.2</ele>
        <time>2021-05-24T09:04:29Z</time>
      </trkpt>
      <trkpt lat="42.8746030" lon="-8.5514000">
        <ele>238.2</ele>
        <time>2021-05-24T09:04:30Z</time>
      </trkpt>
      <trkpt lat="42.8746120" lon="-8.5513950">
        <ele>238.2</ele>
        <time>2021-05-24T09:04:31Z</time>
      </trkpt>
      <trkpt lat="42.8746200" lon="-8.5513770">
        <ele>238.3</ele>
        <time>2021-05-24T09:04:32Z</time>
      </trkpt>
      <trkpt lat="42.8746320" lon="-8.5513620">
        <ele>238.3</ele>
        <time>2021-05-24T09:04:33Z</time>
      </trkpt>
      <trkpt lat="42.8746430" lon="-8.5513550">
        <ele>238.3</ele>
        <time>2021-05-24T09:04:34Z</time>
      </trkpt>
      <trkpt lat="42.8746580" lon="-8.5513500">
        <ele>238.3</ele>
        <time>2021-05-24T09:04:35Z</time>
      </trkpt>
      <trkpt lat="42.8746690" lon="-8.5513410">
        <ele>238.3</ele>
        <time>2021-05-24T09:04:36Z</time>
      </trkpt>
      <trkpt lat="42.8746860" lon="-8.5513270">
        <ele>238.3</ele>
        <time>2021-05-24T09:04:37Z</time>
      </trkpt>
      <trkpt lat="42.8746880" lon="-8.5513070">
        <ele>238.3</ele>
        <time>2021-05-24T09:04:38Z</time>
      </trkpt>
      <trkpt lat="42.8746890" lon="-8.5512980">
        <ele>238.4</ele>
        <time>2021-05-24T09:04:39Z</time>
      </trkpt>
      <trkpt lat="42.8746880" lon="-8.5512890">
        <ele>238.4</ele>
        <time>2021-05-24T09:04:40Z</time>
      </trkpt>
      <trkpt lat="42.8746990" lon="-8.5512830">
        <ele>238.4</ele>
        <time>2021-05-24T09:04:41Z</time>
      </trkpt>
      <trkpt lat="42.8747080" lon="-8.5512720">
        <ele>238.4</ele>
        <time>2021-05-24T09:04:42Z</time>
      </trkpt>
      <trkpt lat="42.8747180" lon="-8.5512650">
        <ele>238.4</ele>
        <time>2021-05-24T09:04:43Z</time>
      </trkpt>
      <trkpt lat="42.8747280" lon="-8.5512560">
        <ele>238.4</ele>
        <time>2021-05-24T09:04:44Z</time>
      </trkpt>
      <trkpt lat="42.8747410" lon="-8.5512430">
        <ele>238.4</ele>
        <time>2021-05-24T09:04:45Z</time>
      </trkpt>
      <trkpt lat="42.8747550" lon="-8.5512390">
        <ele>238.5</ele>
        <time>2021-05-24T09:04:46Z</time>
      </trkpt>
      <trkpt lat="42.8747620" lon="-8.5512230">
        <ele>238.5</ele>
        <time>2021-05-24T09:04:47Z</time>
      </trkpt>
      <trkpt lat="42.8747620" lon="-8.5512100">
        <ele>238.5</ele>
        <time>2021-05-24T09:04:48Z</time>
      </trkpt>
      <trkpt lat="42.8747730" lon="-8.5511950">
        <ele>238.5</ele>
        <time>2021-05-24T09:04:49Z</time>
      </trkpt>
      <trkpt lat="42.8747760" lon="-8.5511890">
        <ele>238.5</ele>
        <time>2021-05-24T09:04:50Z</time>
      </trkpt>
      <trkpt lat="42.8747790" lon="-8.5511830">
        <ele>238.5</ele>
        <time>2021-05-24T09:04:51Z</time>
      </trkpt>
      <trkpt lat="42.8747820" lon="-8.5511770">
        <ele>238.5</ele>
        <time>2021-05-24T09:04:52Z</time>
      </trkpt>
      <trkpt lat="42.8747850" lon="-8.5511710">
        <ele>238.5</ele>
        <time>2021-05-24T09:04:53Z</time>
      </trkpt>
      <trkpt lat="42.8747830" lon="-8.5511630">
        <ele>238.6</ele>
        <time>2021-05-24T09:04:54Z</time>
      </trkpt>
      <trkpt lat="42.8747950" lon="-8.5511600">
        <ele>238.6</ele>
        <time>2021-05-24T09:04:55Z</time>
      </trkpt>
      <trkpt lat="42.8748010" lon="-8.5511490">
        <ele>238.6</ele>
        <time>2021-05-24T09:04:56Z</time>
      </trkpt>
      <trkpt lat="42.8748050" lon="-8.5511340">
        <ele>238.6</ele>
        <time>2021-05-24T09:04:57Z</time>
      </trkpt>
      <trkpt lat="42.8748180" lon="-8.5511230">
        <ele>238.6</ele>
        <time>2021-05-24T09:04:58Z</time>
      </trkpt>
      <trkpt lat="42.8748290" lon="-8.5511120">
        <ele>238.7</ele>
        <time>2021-05-24T09:04:59Z</time>
      </trkpt>
      <trkpt lat="42.8748400" lon="-8.5510980">
        <ele>238.7</ele>
        <time>2021-05-24T09:05:00Z</time>
      </trkpt>
      <trkpt lat="42.8748480" lon="-8.5511050">
        <ele>238.7</ele>
        <time>2021-05-24T09:05:01Z</time>
      </trkpt>
      <trkpt lat="42.8748570" lon="-8.5510990">
        <ele>238.8</ele>
        <time>2021-05-24T09:05:02Z</time>
      </trkpt>
      <trkpt lat="42.8748770" lon="-8.5510800">
        <ele>238.8</ele>
        <time>2021-05-24T09:05:03Z</time>
      </trkpt>
      <trkpt lat="42.8748830" lon="-8.5510740">
        <ele>238.9</ele>
        <time>2021-05-24T09:05:04Z</time>
      </trkpt>
      <trkpt lat="42.8748880" lon="-8.5510680">
        <ele>238.9</ele>
        <time>2021-05-24T09:05:05Z</time>
      </trkpt>
      <trkpt lat="42.8749030" lon="-8.5510480">
        <ele>238.9</ele>
        <time>2021-05-24T09:05:06Z</time>
      </trkpt>
      <trkpt lat="42.8749080" lon="-8.5510410">
        <ele>239.0</ele>
        <time>2021-05-24T09:05:07Z</time>
      </trkpt>
      <trkpt lat="42.8749140" lon="-8.5510340">
        <ele>239.0</ele>
        <time>2021-05-24T09:05:08Z</time>
      </trkpt>
      <trkpt lat="42.8749270" lon="-8.5510330">
        <ele>239.0</ele>
        <time>2021-05-24T09:05:09Z</time>
      </trkpt>
      <trkpt lat="42.8749350" lon="-8.5510290">
        <ele>239.0</ele>
        <time>2021-05-24T09:05:10Z</time>
      </trkpt>
      <trkpt lat="42.8749470" lon="-8.5510150">
        <ele>239.1</ele>
        <time>2021-05-24T09:05:11Z</time>
      </trkpt>
      <trkpt lat="42.8749490" lon="-8.5510030">
        <ele>239.1</ele>
        <time>2021-05-24T09:05:12Z</time>
      </trkpt>
      <trkpt lat="42.8749700" lon="-8.5509860">
        <ele>239.2</ele>
        <time>2021-05-24T09:05:13Z</time>
      </trkpt>
      <trkpt lat="42.8749770" lon="-8.5509800">
        <ele>239.2</ele>
        <time>2021-05-24T09:05:14Z</time>
      </trkpt>
      <trkpt lat="42.8749800" lon="-8.5509680">
        <ele>239.2</ele>
        <time>2021-05-24T09:05:15Z</time>
      </trkpt>
      <trkpt lat="42.8749960" lon="-8.5509570">
        <ele>239.3</ele>
        <time>2021-05-24T09:05:16Z</time>
      </trkpt>
      <trkpt lat="42.8750070" lon="-8.5509340">
        <ele>239.4</ele>
        <time>2021-05-24T09:05:17Z</time>
      </trkpt>
      <trkpt lat="42.8750130" lon="-8.5509250">
        <ele>239.4</ele>
        <time>2021-05-24T09:05:18Z</time>
      </trkpt>
      <trkpt lat="42.8750190" lon="-8.5509150">
        <ele>239.4</ele>
        <time>2021-05-24T09:05:19Z</time>
      </trkpt>
      <trkpt lat="42.8750370" lon="-8.5509040">
        <ele>239.5</ele>
        <time>2021-05-24T09:05:20Z</time>
      </trkpt>
      <trkpt lat="42.8750410" lon="-8.5508910">
        <ele>239.5</ele>
        <time>2021-05-24T09:05:21Z</time>
      </trkpt>
      <trkpt lat="42.8750480" lon="-8.5508740">
        <ele>239.6</ele>
        <time>2021-05-24T09:05:22Z</time>
      </trkpt>
      <trkpt lat="42.8750630" lon="-8.5508640">
        <ele>239.6</ele>
        <time>2021-05-24T09:05:23Z</time>
      </trkpt>
      <trkpt lat="42.8750840" lon="-8.5508470">
        <ele>239.7</ele>
        <time>2021-05-24T09:05:24Z</time>
      </trkpt>
      <trkpt lat="42.8750790" lon="-8.5508320">
        <ele>239.7</ele>
        <time>2021-05-24T09:05:25Z</time>
      </trkpt>
      <trkpt lat="42.8750910" lon="-8.5508170">
        <ele>239.8</ele>
        <time>2021-05-24T09:05:26Z</time>
      </trkpt>
      <trkpt lat="42.8750990" lon="-8.5508070">
        <ele>239.8</ele>
        <time>2021-05-24T09:05:27Z</time>
      </trkpt>
      <trkpt lat="42.8751080" lon="-8.5507790">
        <ele>239.9</ele>
        <time>2021-05-24T09:05:28Z</time>
      </trkpt>
      <trkpt lat="42.8751120" lon="-8.5507680">
        <ele>240.0</ele>
        <time>2021-05-24T09:05:29Z</time>
      </trkpt>
      <trkpt lat="42.8751160" lon="-8.5507580">
        <ele>240.0</ele>
        <time>2021-05-24T09:05:30Z</time>
      </trkpt>
      <trkpt lat="42.8751340" lon="-8.5507380">
        <ele>240.1</ele>
        <time>2021-05-24T09:05:31Z</time>
      </trkpt>
      <trkpt lat="42.8751400" lon="-8.5507300">
        <ele>240.1</ele>
        <time>2021-05-24T09:05:32Z</time>
      </trkpt>
      <trkpt lat="42.8751460" lon="-8.5507230">
        <ele>240.1</ele>
        <time>2021-05-24T09:05:33Z</time>
      </trkpt>
      <trkpt lat="42.8751480" lon="-8.5507120">
        <ele>240.2</ele>
        <time>2021-05-24T09:05:34Z</time>
      </trkpt>
      <trkpt lat="42.8751570" lon="-8.5507050">
        <ele>240.2</ele>
        <time>2021-05-24T09:05:35Z</time>
      </trkpt>
      <trkpt lat="42.8751630" lon="-8.5506900">
        <ele>240.3</ele>
        <time>2021-05-24T09:05:36Z</time>
      </trkpt>
      <trkpt lat="42.8751730" lon="-8.5506740">
        <ele>240.3</ele>
        <time>2021-05-24T09:05:37Z</time>
      </trkpt>
      <trkpt lat="42.8751780" lon="-8.5506610">
        <ele>240.4</ele>
        <time>2021-05-24T09:05:38Z</time>
      </trkpt>
      <trkpt lat="42.8751860" lon="-8.5506520">
        <ele>240.4</ele>
        <time>2021-05-24T09:05:39Z</time>
      </trkpt>
      <trkpt lat="42.8752020" lon="-8.5506440">
        <ele>240.5</ele>
        <time>2021-05-24T09:05:40Z</time>
      </trkpt>
      <trkpt lat="42.8752110" lon="-8.5506350">
        <ele>240.6</ele>
        <time>2021-05-24T09:05:41Z</time>
      </trkpt>
      <trkpt lat="42.8752200" lon="-8.5506160">
        <ele>240.6</ele>
        <time>2021-05-24T09:05:42Z</time>
      </trkpt>
      <trkpt lat="42.8752330" lon="-8.5506120">
        <ele>240.7</ele>
        <time>2021-05-24T09:05:43Z</time>
      </trkpt>
      <trkpt lat="42.8752440" lon="-8.5506210">
        <ele>240.8</ele>
        <time>2021-05-24T09:05:44Z</time>
      </trkpt>
      <trkpt lat="42.8752490" lon="-8.5506090">
        <ele>240.8</ele>
        <time>2021-05-24T09:05:45Z</time>
      </trkpt>
      <trkpt lat="42.8752590" lon="-8.5505940">
        <ele>240.9</ele>
        <time>2021-05-24T09:05:46Z</time>
      </trkpt>
      <trkpt lat="42.8752560" lon="-8.5505850">
        <ele>241.0</ele>
        <time>2021-05-24T09:05:47Z</time>
      </trkpt>
      <trkpt lat="42.8752650" lon="-8.5505680">
        <ele>241.1</ele>
        <time>2021-05-24T09:05:48Z</time>
      </trkpt>
      <trkpt lat="42.8752670" lon="-8.5505510">
        <ele>241.1</ele>
        <time>2021-05-24T09:05:49Z</time>
      </trkpt>
      <trkpt lat="42.8752700" lon="-8.5505400">
        <ele>241.2</ele>
        <time>2021-05-24T09:05:50Z</time>
      </trkpt>
      <trkpt lat="42.8752820" lon="-8.5505340">
        <ele>241.2</ele>
        <time>2021-05-24T09:05:51Z</time>
      </trkpt>
      <trkpt lat="42.8752890" lon="-8.5505250">
        <ele>241.3</ele>
        <time>2021-05-24T09:05:52Z</time>
      </trkpt>
      <trkpt lat="42.8752960" lon="-8.5504960">
        <ele>241.4</ele>
        <time>2021-05-24T09:05:53Z</time>
      </trkpt>
      <trkpt lat="42.8753000" lon="-8.5504830">
        <ele>241.5</ele>
        <time>2021-05-24T09:05:54Z</time>
      </trkpt>
      <trkpt lat="42.8753030" lon="-8.5504690">
        <ele>241.5</ele>
        <time>2021-05-24T09:05:55Z</time>
      </trkpt>
      <trkpt lat="42.8753110" lon="-8.5504630">
        <ele>241.6</ele>
        <time>2021-05-24T09:05:56Z</time>
      </trkpt>
      <trkpt lat="42.8753160" lon="-8.5504490">
        <ele>241.7</ele>
        <time>2021-05-24T09:05:57Z</time>
      </trkpt>
      <trkpt lat="42.8753200" lon="-8.5504390">
        <ele>241.7</ele>
        <time>2021-05-24T09:05:58Z</time>
      </trkpt>
      <trkpt lat="42.8753320" lon="-8.5504250">
        <ele>241.8</ele>
        <time>2021-05-24T09:05:59Z</time>
      </trkpt>
      <trkpt lat="42.8753400" lon="-8.5504100">
        <ele>241.9</ele>
        <time>2021-05-24T09:06:00Z</time>
      </trkpt>
      <trkpt lat="42.8753460" lon="-8.5504050">
        <ele>241.9</ele>
        <time>2021-05-24T09:06:01Z</time>
      </trkpt>
      <trkpt lat="42.8753600" lon="-8.5503890">
        <ele>242.0</ele>
        <time>2021-05-24T09:06:02Z</time>
      </trkpt>
      <trkpt lat="42.8753640" lon="-8.5503740">
        <ele>242.1</ele>
        <time>2021-05-24T09:06:03Z</time>
      </trkpt>
      <trkpt lat="42.8753720" lon="-8.5503570">
        <ele>242.2</ele>
        <time>2021-05-24T09:06:04Z</time>
      </trkpt>
      <trkpt lat="42.8753730" lon="-8.5503470">
        <ele>242.2</ele>
        <time>2021-05-24T09:06:05Z</time>
      </trkpt>
      <trkpt lat="42.8753780" lon="-8.5503330">
        <ele>242.3</ele>
        <time>2021-05-24T09:06:06Z</time>
      </trkpt>
      <trkpt lat="42.8753890" lon="-8.5503050">
        <ele>242.5</ele>
        <time>2021-05-24T09:06:07Z</time>
      </trkpt>
      <trkpt lat="42.8753920" lon="-8.5502960">
        <ele>242.5</ele>
        <time>2021-05-24T09:06:08Z</time>
      </trkpt>
      <trkpt lat="42.8753960" lon="-8.5502870">
        <ele>242.6</ele>
        <time>2021-05-24T09:06:09Z</time>
      </trkpt>
      <trkpt lat="42.8754160" lon="-8.5502870">
        <ele>242.7</ele>
        <time>2021-05-24T09:06:10Z</time>
      </trkpt>
      <trkpt lat="42.8754260" lon="-8.5502840">
        <ele>242.7</ele>
        <time>2021-05-24T09:06:11Z</time>
      </trkpt>
      <trkpt lat="42.8754480" lon="-8.5502700">
        <ele>242.9</ele>
        <time>2021-05-24T09:06:12Z</time>
      </trkpt>
      <trkpt lat="42.8754530" lon="-8.5502630">
        <ele>243.0</ele>
        <time>2021-05-24T09:06:13Z</time>
      </trkpt>
      <trkpt lat="42.8754580" lon="-8.5502560">
        <ele>243.0</ele>
        <time>2021-05-24T09:06:14Z</time>
      </trkpt>
      <trkpt lat="42.8754640" lon="-8.5502440">
        <ele>243.1</ele>
        <time>2021-05-24T09:06:15Z</time>
      </trkpt>
      <trkpt lat="42.8754610" lon="-8.5502330">
        <ele>243.1</ele>
        <time>2021-05-24T09:06:16Z</time>
      </trkpt>
      <trkpt lat="42.8754720" lon="-8.5502170">
        <ele>243.2</ele>
        <time>2021-05-24T09:06:17Z</time>
      </trkpt>
      <trkpt lat="42.8754850" lon="-8.5501990">
        <ele>243.4</ele>
        <time>2021-05-24T09:06:18Z</time>
      </trkpt>
      <trkpt lat="42.8754970" lon="-8.5501930">
        <ele>243.4</ele>
        <time>2021-05-24T09:06:19Z</time>
      </trkpt>
      <trkpt lat="42.8755050" lon="-8.5501960">
        <ele>243.5</ele>
        <time>2021-05-24T09:06:20Z</time>
      </trkpt>
      <trkpt lat="42.8755180" lon="-8.5501820">
        <ele>243.6</ele>
        <time>2021-05-24T09:06:21Z</time>
      </trkpt>
      <trkpt lat="42.8755260" lon="-8.5501650">
        <ele>243.7</ele>
        <time>2021-05-24T09:06:22Z</time>
      </trkpt>
      <trkpt lat="42.8755270" lon="-8.5501570">
        <ele>243.7</ele>
        <time>2021-05-24T09:06:23Z</time>
      </trkpt>
      <trkpt lat="42.8755350" lon="-8.5501470">
        <ele>243.8</ele>
        <time>2021-05-24T09:06:24Z</time>
      </trkpt>
      <trkpt lat="42.8755360" lon="-8.5501460">
        <ele>243.8</ele>
        <time>2021-05-24T09:06:25Z</time>
      </trkpt>
      <trkpt lat="42.8755360" lon="-8.5501410">
        <ele>243.8</ele>
        <time>2021-05-24T09:06:26Z</time>
      </trkpt>
      <trkpt lat="42.8755390" lon="-8.5501320">
        <ele>243.9</ele>
        <time>2021-05-24T09:06:27Z</time>
      </trkpt>
      <trkpt lat="42.8755500" lon="-8.5501150">
        <ele>244.0</ele>
        <time>2021-05-24T09:06:28Z</time>
      </trkpt>
      <trkpt lat="42.8755590" lon="-8.5501030">
        <ele>244.1</ele>
        <time>2021-05-24T09:06:29Z</time>
      </trkpt>
      <trkpt lat="42.8755780" lon="-8.5500930">
        <ele>244.2</ele>
        <time>2021-05-24T09:06:30Z</time>
      </trkpt>
      <trkpt lat="42.8755850" lon="-8.5500980">
        <ele>244.3</ele>
        <time>2021-05-24T09:06:31Z</time>
      </trkpt>
      <trkpt lat="42.8755750" lon="-8.5500980">
        <ele>244.3</ele>
        <time>2021-05-24T09:06:32Z</time>
      </trkpt>
      <trkpt lat="42.8755680" lon="-8.5500900">
        <ele>244.4</ele>
        <time>2021-05-24T09:06:33Z</time>
      </trkpt>
      <trkpt lat="42.8755660" lon="-8.5500830">
        <ele>244.4</ele>
        <time>2021-05-24T09:06:34Z</time>
      </trkpt>
      <trkpt lat="42.8755730" lon="-8.5500820">
        <ele>244.5</ele>
        <time>2021-05-24T09:06:35Z</time>
      </trkpt>
      <trkpt lat="42.8755760" lon="-8.5500870">
        <ele>244.5</ele>
        <time>2021-05-24T09:06:36Z</time>
      </trkpt>
      <trkpt lat="42.8755750" lon="-8.5500790">
        <ele>244.5</ele>
        <time>2021-05-24T09:06:37Z</time>
      </trkpt>
      <trkpt lat="42.8755710" lon="-8.5500610">
        <ele>244.6</ele>
        <time>2021-05-24T09:06:38Z</time>
      </trkpt>
      <trkpt lat="42.8755820" lon="-8.5500300">
        <ele>244.8</ele>
        <time>2021-05-24T09:06:39Z</time>
      </trkpt>
      <trkpt lat="42.8755770" lon="-8.5500250">
        <ele>244.8</ele>
        <time>2021-05-24T09:06:40Z</time>
      </trkpt>
      <trkpt lat="42.8755710" lon="-8.5500200">
        <ele>244.9</ele>
        <time>2021-05-24T09:06:41Z</time>
      </trkpt>
      <trkpt lat="42.8755660" lon="-8.5500150">
        <ele>244.9</ele>
        <time>2021-05-24T09:06:42Z</time>
      </trkpt>
      <trkpt lat="42.8755600" lon="-8.5500100">
        <ele>244.9</ele>
        <time>2021-05-24T09:06:43Z</time>
      </trkpt>
      <trkpt lat="42.8755610" lon="-8.5500000">
        <ele>245.0</ele>
        <time>2021-05-24T09:06:44Z</time>
      </trkpt>
      <trkpt lat="42.8755630" lon="-8.5499880">
        <ele>245.0</ele>
        <time>2021-05-24T09:06:45Z</time>
      </trkpt>
      <trkpt lat="42.8755610" lon="-8.5499690">
        <ele>245.1</ele>
        <time>2021-05-24T09:06:46Z</time>
      </trkpt>
      <trkpt lat="42.8755600" lon="-8.5499510">
        <ele>245.2</ele>
        <time>2021-05-24T09:06:47Z</time>
      </trkpt>
      <trkpt lat="42.8755650" lon="-8.5499330">
        <ele>245.3</ele>
        <time>2021-05-24T09:06:48Z</time>
      </trkpt>
      <trkpt lat="42.8755760" lon="-8.5499110">
        <ele>245.4</ele>
        <time>2021-05-24T09:06:49Z</time>
      </trkpt>
      <trkpt lat="42.8755770" lon="-8.5498990">
        <ele>245.5</ele>
        <time>2021-05-24T09:06:50Z</time>
      </trkpt>
      <trkpt lat="42.8755780" lon="-8.5498860">
        <ele>245.5</ele>
        <time>2021-05-24T09:06:51Z</time>
      </trkpt>
      <trkpt lat="42.8755860" lon="-8.5498740">
        <ele>245.6</ele>
        <time>2021-05-24T09:06:52Z</time>
      </trkpt>
      <trkpt lat="42.8755950" lon="-8.5498600">
        <ele>245.7</ele>
        <time>2021-05-24T09:06:53Z</time>
      </trkpt>
      <trkpt lat="42.8755970" lon="-8.5498440">
        <ele>245.7</ele>
        <time>2021-05-24T09:06:54Z</time>
      </trkpt>
      <trkpt lat="42.8755950" lon="-8.5498340">
        <ele>245.8</ele>
        <time>2021-05-24T09:06:55Z</time>
      </trkpt>
      <trkpt lat="42.8755980" lon="-8.5498120">
        <ele>245.9</ele>
        <time>2021-05-24T09:06:56Z</time>
      </trkpt>
      <trkpt lat="42.8756130" lon="-8.5498000">
        <ele>246.0</ele>
        <time>2021-05-24T09:06:57Z</time>
      </trkpt>
      <trkpt lat="42.8756170" lon="-8.5497850">
        <ele>246.1</ele>
        <time>2021-05-24T09:06:58Z</time>
      </trkpt>
      <trkpt lat="42.8756160" lon="-8.5497720">
        <ele>246.1</ele>
        <time>2021-05-24T09:06:59Z</time>
      </trkpt>
      <trkpt lat="42.8756230" lon="-8.5497620">
        <ele>246.2</ele>
        <time>2021-05-24T09:07:00Z</time>
      </trkpt>
      <trkpt lat="42.8756280" lon="-8.5497510">
        <ele>246.2</ele>
        <time>2021-05-24T09:07:01Z</time>
      </trkpt>
      <trkpt lat="42.8756300" lon="-8.5497430">
        <ele>246.3</ele>
        <time>2021-05-24T09:07:02Z</time>
      </trkpt>
      <trkpt lat="42.8756370" lon="-8.5497210">
        <ele>246.4</ele>
        <time>2021-05-24T09:07:03Z</time>
      </trkpt>
      <trkpt lat="42.8756350" lon="-8.5497040">
        <ele>246.5</ele>
        <time>2021-05-24T09:07:04Z</time>
      </trkpt>
      <trkpt lat="42.8756400" lon="-8.5496810">
        <ele>246.6</ele>
        <time>2021-05-24T09:07:05Z</time>
      </trkpt>
      <trkpt lat="42.8756380" lon="-8.5496560">
        <ele>246.7</ele>
        <time>2021-05-24T09:07:06Z</time>
      </trkpt>
      <trkpt lat="42.8756400" lon="-8.5496390">
        <ele>246.8</ele>
        <time>2021-05-24T09:07:07Z</time>
      </trkpt>
      <trkpt lat="42.8756470" lon="-8.5496120">
        <ele>246.9</ele>
        <time>2021-05-24T09:07:08Z</time>
      </trkpt>
      <trkpt lat="42.8756520" lon="-8.5496010">
        <ele>247.0</ele>
        <time>2021-05-24T09:07:09Z</time>
      </trkpt>
      <trkpt lat="42.8756570" lon="-8.5495910">
        <ele>247.0</ele>
        <time>2021-05-24T09:07:10Z</time>
      </trkpt>
      <trkpt lat="42.8756630" lon="-8.5495750">
        <ele>247.1</ele>
        <time>2021-05-24T09:07:11Z</time>
      </trkpt>
      <trkpt lat="42.8756620" lon="-8.5495620">
        <ele>247.2</ele>
        <time>2021-05-24T09:07:12Z</time>
      </trkpt>
      <trkpt lat="42.8756650" lon="-8.5495470">
        <ele>247.2</ele>
        <time>2021-05-24T09:07:13Z</time>
      </trkpt>
      <trkpt lat="42.8756710" lon="-8.5495340">
        <ele>247.3</ele>
        <time>2021-05-24T09:07:14Z</time>
      </trkpt>
      <trkpt lat="42.8756800" lon="-8.5495110">
        <ele>247.4</ele>
        <time>2021-05-24T09:07:15Z</time>
      </trkpt>
      <trkpt lat="42.8756820" lon="-8.5494990">
        <ele>247.5</ele>
        <time>2021-05-24T09:07:16Z</time>
      </trkpt>
      <trkpt lat="42.8756920" lon="-8.5494750">
        <ele>247.6</ele>
        <time>2021-05-24T09:07:17Z</time>
      </trkpt>
      <trkpt lat="42.8757030" lon="-8.5494590">
        <ele>247.7</ele>
        <time>2021-05-24T09:07:18Z</time>
      </trkpt>
      <trkpt lat="42.8757070" lon="-8.5494510">
        <ele>247.7</ele>
        <time>2021-05-24T09:07:19Z</time>
      </trkpt>
      <trkpt lat="42.8757090" lon="-8.5494430">
        <ele>247.8</ele>
        <time>2021-05-24T09:07:20Z</time>
      </trkpt>
      <trkpt lat="42.8757150" lon="-8.5494270">
        <ele>247.9</ele>
        <time>2021-05-24T09:07:21Z</time>
      </trkpt>
      <trkpt lat="42.8757240" lon="-8.5494130">
        <ele>248.0</ele>
        <time>2021-05-24T09:07:22Z</time>
      </trkpt>
      <trkpt lat="42.8757290" lon="-8.5494050">
        <ele>248.0</ele>
        <time>2021-05-24T09:07:23Z</time>
      </trkpt>
      <trkpt lat="42.8757380" lon="-8.5493860">
        <ele>248.1</ele>
        <time>2021-05-24T09:07:24Z</time>
      </trkpt>
      <trkpt lat="42.8757460" lon="-8.5493710">
        <ele>248.2</ele>
        <time>2021-05-24T09:07:25Z</time>
      </trkpt>
      <trkpt lat="42.8757660" lon="-8.5493560">
        <ele>248.3</ele>
        <time>2021-05-24T09:07:26Z</time>
      </trkpt>
      <trkpt lat="42.8757740" lon="-8.5493460">
        <ele>248.4</ele>
        <time>2021-05-24T09:07:27Z</time>
      </trkpt>
      <trkpt lat="42.8757700" lon="-8.5493300">
        <ele>248.5</ele>
        <time>2021-05-24T09:07:28Z</time>
      </trkpt>
      <trkpt lat="42.8757880" lon="-8.5493040">
        <ele>248.6</ele>
        <time>2021-05-24T09:07:29Z</time>
      </trkpt>
      <trkpt lat="42.8758000" lon="-8.5492930">
        <ele>248.7</ele>
        <time>2021-05-24T09:07:30Z</time>
      </trkpt>
      <trkpt lat="42.8758060" lon="-8.5492850">
        <ele>248.7</ele>
        <time>2021-05-24T09:07:32Z</time>
      </trkpt>
      <trkpt lat="42.8758110" lon="-8.5492760">
        <ele>248.8</ele>
        <time>2021-05-24T09:07:33Z</time>
      </trkpt>
      <trkpt lat="42.8758160" lon="-8.5492680">
        <ele>248.8</ele>
        <time>2021-05-24T09:07:34Z</time>
      </trkpt>
      <trkpt lat="42.8758340" lon="-8.5492330">
        <ele>249.0</ele>
        <time>2021-05-24T09:07:35Z</time>
      </trkpt>
      <trkpt lat="42.8758340" lon="-8.5492240">
        <ele>249.1</ele>
        <time>2021-05-24T09:07:36Z</time>
      </trkpt>
      <trkpt lat="42.8758350" lon="-8.5492140">
        <ele>249.1</ele>
        <time>2021-05-24T09:07:37Z</time>
      </trkpt>
      <trkpt lat="42.8758310" lon="-8.5492110">
        <ele>249.1</ele>
        <time>2021-05-24T09:07:38Z</time>
      </trkpt>
      <trkpt lat="42.8758400" lon="-8.5491940">
        <ele>249.2</ele>
        <time>2021-05-24T09:07:39Z</time>
      </trkpt>
      <trkpt lat="42.8758400" lon="-8.5491840">
        <ele>249.3</ele>
        <time>2021-05-24T09:07:40Z</time>
      </trkpt>
      <trkpt lat="42.8758380" lon="-8.5491760">
        <ele>249.3</ele>
        <time>2021-05-24T09:07:41Z</time>
      </trkpt>
      <trkpt lat="42.8758310" lon="-8.5491660">
        <ele>249.4</ele>
        <time>2021-05-24T09:07:42Z</time>
      </trkpt>
      <trkpt lat="42.8758410" lon="-8.5491460">
        <ele>249.5</ele>
        <time>2021-05-24T09:07:43Z</time>
      </trkpt>
      <trkpt lat="42.8758470" lon="-8.5491300">
        <ele>249.5</ele>
        <time>2021-05-24T09:07:44Z</time>
      </trkpt>
      <trkpt lat="42.8758510" lon="-8.5491120">
        <ele>249.6</ele>
        <time>2021-05-24T09:07:45Z</time>
      </trkpt>
      <trkpt lat="42.8758590" lon="-8.5490960">
        <ele>249.7</ele>
        <time>2021-05-24T09:07:46Z</time>
      </trkpt>
      <trkpt lat="42.8758650" lon="-8.5490860">
        <ele>249.7</ele>
        <time>2021-05-24T09:07:47Z</time>
      </trkpt>
      <trkpt lat="42.8758680" lon="-8.5490700">
        <ele>249.8</ele>
        <time>2021-05-24T09:07:48Z</time>
      </trkpt>
      <trkpt lat="42.8758710" lon="-8.5490530">
        <ele>249.9</ele>
        <time>2021-05-24T09:07:49Z</time>
      </trkpt>
      <trkpt lat="42.8758810" lon="-8.5490340">
        <ele>250.0</ele>
        <time>2021-05-24T09:07:50Z</time>
      </trkpt>
      <trkpt lat="42.8758810" lon="-8.5490250">
        <ele>250.0</ele>
        <time>2021-05-24T09:07:51Z</time>
      </trkpt>
      <trkpt lat="42.8758870" lon="-8.5490080">
        <ele>250.1</ele>
        <time>2021-05-24T09:07:52Z</time>
      </trkpt>
      <trkpt lat="42.8758930" lon="-8.5489900">
        <ele>250.2</ele>
        <time>2021-05-24T09:07:53Z</time>
      </trkpt>
      <trkpt lat="42.8759080" lon="-8.5489780">
        <ele>250.3</ele>
        <time>2021-05-24T09:07:54Z</time>
      </trkpt>
      <trkpt lat="42.8759260" lon="-8.5489620">
        <ele>250.4</ele>
        <time>2021-05-24T09:07:55Z</time>
      </trkpt>
      <trkpt lat="42.8759320" lon="-8.5489550">
        <ele>250.4</ele>
        <time>2021-05-24T09:07:56Z</time>
      </trkpt>
      <trkpt lat="42.8759380" lon="-8.5489470">
        <ele>250.5</ele>
        <time>2021-05-24T09:07:57Z</time>
      </trkpt>
      <trkpt lat="42.8759500" lon="-8.5489290">
        <ele>250.5</ele>
        <time>2021-05-24T09:07:58Z</time>
      </trkpt>
      <trkpt lat="42.8759610" lon="-8.5489130">
        <ele>250.6</ele>
        <time>2021-05-24T09:07:59Z</time>
      </trkpt>
      <trkpt lat="42.8759650" lon="-8.5489170">
        <ele>250.6</ele>
        <time>2021-05-24T09:08:00Z</time>
      </trkpt>
      <trkpt lat="42.8759730" lon="-8.5489020">
        <ele>250.6</ele>
        <time>2021-05-24T09:08:01Z</time>
      </trkpt>
      <trkpt lat="42.8759880" lon="-8.5488870">
        <ele>250.7</ele>
        <time>2021-05-24T09:08:02Z</time>
      </trkpt>
      <trkpt lat="42.8760210" lon="-8.5488720">
        <ele>250.8</ele>
        <time>2021-05-24T09:08:03Z</time>
      </trkpt>
      <trkpt lat="42.8760300" lon="-8.5488660">
        <ele>250.8</ele>
        <time>2021-05-24T09:08:04Z</time>
      </trkpt>
      <trkpt lat="42.8760380" lon="-8.5488640">
        <ele>250.8</ele>
        <time>2021-05-24T09:08:05Z</time>
      </trkpt>
      <trkpt lat="42.8760430" lon="-8.5488400">
        <ele>250.8</ele>
        <time>2021-05-24T09:08:06Z</time>
      </trkpt>
      <trkpt lat="42.8760510" lon="-8.5488280">
        <ele>250.9</ele>
        <time>2021-05-24T09:08:07Z</time>
      </trkpt>
      <trkpt lat="42.8760620" lon="-8.5488160">
        <ele>250.9</ele>
        <time>2021-05-24T09:08:08Z</time>
      </trkpt>
      <trkpt lat="42.8760730" lon="-8.5487970">
        <ele>251.0</ele>
        <time>2021-05-24T09:08:09Z</time>
      </trkpt>
      <trkpt lat="42.8760790" lon="-8.5487840">
        <ele>251.0</ele>
        <time>2021-05-24T09:08:10Z</time>
      </trkpt>
      <trkpt lat="42.8760810" lon="-8.5487700">
        <ele>251.0</ele>
        <time>2021-05-24T09:08:11Z</time>
      </trkpt>
      <trkpt lat="42.8760900" lon="-8.5487570">
        <ele>251.0</ele>
        <time>2021-05-24T09:08:12Z</time>
      </trkpt>
      <trkpt lat="42.8761040" lon="-8.5487410">
        <ele>251.1</ele>
        <time>2021-05-24T09:08:13Z</time>
      </trkpt>
      <trkpt lat="42.8761100" lon="-8.5487300">
        <ele>251.1</ele>
        <time>2021-05-24T09:08:14Z</time>
      </trkpt>
      <trkpt lat="42.8761170" lon="-8.5487200">
        <ele>251.1</ele>
        <time>2021-05-24T09:08:15Z</time>
      </trkpt>
      <trkpt lat="42.8761160" lon="-8.5486960">
        <ele>251.2</ele>
        <time>2021-05-24T09:08:16Z</time>
      </trkpt>
      <trkpt lat="42.8761220" lon="-8.5486790">
        <ele>251.2</ele>
        <time>2021-05-24T09:08:17Z</time>
      </trkpt>
      <trkpt lat="42.8761300" lon="-8.5486670">
        <ele>251.2</ele>
        <time>2021-05-24T09:08:18Z</time>
      </trkpt>
      <trkpt lat="42.8761360" lon="-8.5486640">
        <ele>251.2</ele>
        <time>2021-05-24T09:08:19Z</time>
      </trkpt>
      <trkpt lat="42.8761360" lon="-8.5486560">
        <ele>251.2</ele>
        <time>2021-05-24T09:08:20Z</time>
      </trkpt>
      <trkpt lat="42.8761380" lon="-8.5486430">
        <ele>251.3</ele>
        <time>2021-05-24T09:08:21Z</time>
      </trkpt>
      <trkpt lat="42.8761500" lon="-8.5486350">
        <ele>251.3</ele>
        <time>2021-05-24T09:08:22Z</time>
      </trkpt>
      <trkpt lat="42.8761530" lon="-8.5486160">
        <ele>251.3</ele>
        <time>2021-05-24T09:08:23Z</time>
      </trkpt>
      <trkpt lat="42.8761600" lon="-8.5486080">
        <ele>251.3</ele>
        <time>2021-05-24T09:08:24Z</time>
      </trkpt>
      <trkpt lat="42.8761660" lon="-8.5485910">
        <ele>251.4</ele>
        <time>2021-05-24T09:08:25Z</time>
      </trkpt>
      <trkpt lat="42.8761750" lon="-8.5485770">
        <ele>251.4</ele>
        <time>2021-05-24T09:08:26Z</time>
      </trkpt>
      <trkpt lat="42.8761830" lon="-8.5485570">
        <ele>251.4</ele>
        <time>2021-05-24T09:08:27Z</time>
      </trkpt>
      <trkpt lat="42.8761890" lon="-8.5485460">
        <ele>251.4</ele>
        <time>2021-05-24T09:08:28Z</time>
      </trkpt>
      <trkpt lat="42.8761960" lon="-8.5485350">
        <ele>251.5</ele>
        <time>2021-05-24T09:08:29Z</time>
      </trkpt>
      <trkpt lat="42.8761900" lon="-8.5485370">
        <ele>251.5</ele>
        <time>2021-05-24T09:08:30Z</time>
      </trkpt>
      <trkpt lat="42.8761820" lon="-8.5485330">
        <ele>251.5</ele>
        <time>2021-05-24T09:08:31Z</time>
      </trkpt>
      <trkpt lat="42.8761750" lon="-8.5485290">
        <ele>251.5</ele>
        <time>2021-05-24T09:08:32Z</time>
      </trkpt>
      <trkpt lat="42.8761670" lon="-8.5485250">
        <ele>251.5</ele>
        <time>2021-05-24T09:08:33Z</time>
      </trkpt>
      <trkpt lat="42.8761600" lon="-8.5485210">
        <ele>251.5</ele>
        <time>2021-05-24T09:08:34Z</time>
      </trkpt>
      <trkpt lat="42.8761500" lon="-8.5484990">
        <ele>251.6</ele>
        <time>2021-05-24T09:08:35Z</time>
      </trkpt>
      <trkpt lat="42.8761480" lon="-8.5484850">
        <ele>251.6</ele>
        <time>2021-05-24T09:08:36Z</time>
      </trkpt>
      <trkpt lat="42.8761460" lon="-8.5484710">
        <ele>251.6</ele>
        <time>2021-05-24T09:08:37Z</time>
      </trkpt>
      <trkpt lat="42.8761530" lon="-8.5484610">
        <ele>251.6</ele>
        <time>2021-05-24T09:08:38Z</time>
      </trkpt>
      <trkpt lat="42.8761540" lon="-8.5484480">
        <ele>251.7</ele>
        <time>2021-05-24T09:08:39Z</time>
      </trkpt>
      <trkpt lat="42.8761640" lon="-8.5484380">
        <ele>251.7</ele>
        <time>2021-05-24T09:08:41Z</time>
      </trkpt>
      <trkpt lat="42.8761740" lon="-8.5484120">
        <ele>251.7</ele>
        <time>2021-05-24T09:08:42Z</time>
      </trkpt>
      <trkpt lat="42.8761780" lon="-8.5483970">
        <ele>251.7</ele>
        <time>2021-05-24T09:08:43Z</time>
      </trkpt>
      <trkpt lat="42.8761840" lon="-8.5483760">
        <ele>251.8</ele>
        <time>2021-05-24T09:08:44Z</time>
      </trkpt>
      <trkpt lat="42.8761860" lon="-8.5483600">
        <ele>251.8</ele>
        <time>2021-05-24T09:08:45Z</time>
      </trkpt>
      <trkpt lat="42.8761850" lon="-8.5483420">
        <ele>251.8</ele>
        <time>2021-05-24T09:08:46Z</time>
      </trkpt>
      <trkpt lat="42.8761890" lon="-8.5483220">
        <ele>251.9</ele>
        <time>2021-05-24T09:08:47Z</time>
      </trkpt>
      <trkpt lat="42.8761870" lon="-8.5482960">
        <ele>251.9</ele>
        <time>2021-05-24T09:08:48Z</time>
      </trkpt>
      <trkpt lat="42.8761960" lon="-8.5482780">
        <ele>251.9</ele>
        <time>2021-05-24T09:08:49Z</time>
      </trkpt>
      <trkpt lat="42.8761950" lon="-8.5482530">
        <ele>252.0</ele>
        <time>2021-05-24T09:08:50Z</time>
      </trkpt>
      <trkpt lat="42.8762090" lon="-8.5482400">
        <ele>252.0</ele>
        <time>2021-05-24T09:08:51Z</time>
      </trkpt>
      <trkpt lat="42.8762030" lon="-8.5482240">
        <ele>252.0</ele>
        <time>2021-05-24T09:08:52Z</time>
      </trkpt>
      <trkpt lat="42.8762090" lon="-8.5482070">
        <ele>252.0</ele>
        <time>2021-05-24T09:08:53Z</time>
      </trkpt>
      <trkpt lat="42.8762190" lon="-8.5481970">
        <ele>252.0</ele>
        <time>2021-05-24T09:08:54Z</time>
      </trkpt>
      <trkpt lat="42.8762330" lon="-8.5481900">
        <ele>252.1</ele>
        <time>2021-05-24T09:08:55Z</time>
      </trkpt>
      <trkpt lat="42.8762340" lon="-8.5481750">
        <ele>252.1</ele>
        <time>2021-05-24T09:08:56Z</time>
      </trkpt>
      <trkpt lat="42.8762420" lon="-8.5481700">
        <ele>252.1</ele>
        <time>2021-05-24T09:08:57Z</time>
      </trkpt>
      <trkpt lat="42.8762660" lon="-8.5481730">
        <ele>252.1</ele>
        <time>2021-05-24T09:08:58Z</time>
      </trkpt>
      <trkpt lat="42.8762760" lon="-8.5481560">
        <ele>252.2</ele>
        <time>2021-05-24T09:08:59Z</time>
      </trkpt>
      <trkpt lat="42.8762920" lon="-8.5481460">
        <ele>252.2</ele>
        <time>2021-05-24T09:09:00Z</time>
      </trkpt>
      <trkpt lat="42.8763050" lon="-8.5481390">
        <ele>252.2</ele>
        <time>2021-05-24T09:09:01Z</time>
      </trkpt>
      <trkpt lat="42.8763190" lon="-8.5481160">
        <ele>252.2</ele>
        <time>2021-05-24T09:09:02Z</time>
      </trkpt>
      <trkpt lat="42.8763220" lon="-8.5481060">
        <ele>252.3</ele>
        <time>2021-05-24T09:09:03Z</time>
      </trkpt>
      <trkpt lat="42.8763240" lon="-8.5480950">
        <ele>252.3</ele>
        <time>2021-05-24T09:09:04Z</time>
      </trkpt>
      <trkpt lat="42.8763400" lon="-8.5480730">
        <ele>252.3</ele>
        <time>2021-05-24T09:09:05Z</time>
      </trkpt>
      <trkpt lat="42.8763430" lon="-8.5480630">
        <ele>252.3</ele>
        <time>2021-05-24T09:09:06Z</time>
      </trkpt>
      <trkpt lat="42.8763470" lon="-8.5480520">
        <ele>252.3</ele>
        <time>2021-05-24T09:09:07Z</time>
      </trkpt>
      <trkpt lat="42.8763570" lon="-8.5480290">
        <ele>252.4</ele>
        <time>2021-05-24T09:09:08Z</time>
      </trkpt>
      <trkpt lat="42.8763650" lon="-8.5480150">
        <ele>252.4</ele>
        <time>2021-05-24T09:09:09Z</time>
      </trkpt>
      <trkpt lat="42.8763790" lon="-8.5480000">
        <ele>252.4</ele>
        <time>2021-05-24T09:09:10Z</time>
      </trkpt>
      <trkpt lat="42.8763800" lon="-8.5479820">
        <ele>252.4</ele>
        <time>2021-05-24T09:09:11Z</time>
      </trkpt>
      <trkpt lat="42.8763810" lon="-8.5479640">
        <ele>252.4</ele>
        <time>2021-05-24T09:09:12Z</time>
      </trkpt>
      <trkpt lat="42.8763790" lon="-8.5479560">
        <ele>252.4</ele>
        <time>2021-05-24T09:09:13Z</time>
      </trkpt>
      <trkpt lat="42.8763860" lon="-8.5479500">
        <ele>252.4</ele>
        <time>2021-05-24T09:09:14Z</time>
      </trkpt>
      <trkpt lat="42.8763760" lon="-8.5479370">
        <ele>252.4</ele>
        <time>2021-05-24T09:09:15Z</time>
      </trkpt>
      <trkpt lat="42.8763820" lon="-8.5479240">
        <ele>252.4</ele>
        <time>2021-05-24T09:09:16Z</time>
      </trkpt>
      <trkpt lat="42.8763960" lon="-8.5479220">
        <ele>252.4</ele>
        <time>2021-05-24T09:09:17Z</time>
      </trkpt>
      <trkpt lat="42.8763920" lon="-8.5479010">
        <ele>252.4</ele>
        <time>2021-05-24T09:09:18Z</time>
      </trkpt>
      <trkpt lat="42.8764100" lon="-8.5478880">
        <ele>252.4</ele>
        <time>2021-05-24T09:09:19Z</time>
      </trkpt>
      <trkpt lat="42.8764100" lon="-8.5478690">
        <ele>252.4</ele>
        <time>2021-05-24T09:09:20Z</time>
      </trkpt>
      <trkpt lat="42.8764330" lon="-8.5478620">
        <ele>252.5</ele>
        <time>2021-05-24T09:09:21Z</time>
      </trkpt>
      <trkpt lat="42.8764370" lon="-8.5478460">
        <ele>252.5</ele>
        <time>2021-05-24T09:09:22Z</time>
      </trkpt>
      <trkpt lat="42.8764480" lon="-8.5478340">
        <ele>252.5</ele>
        <time>2021-05-24T09:09:23Z</time>
      </trkpt>
      <trkpt lat="42.8764510" lon="-8.5478340">
        <ele>252.5</ele>
        <time>2021-05-24T09:09:24Z</time>
      </trkpt>
      <trkpt lat="42.8764580" lon="-8.5478180">
        <ele>252.5</ele>
        <time>2021-05-24T09:09:25Z</time>
      </trkpt>
      <trkpt lat="42.8764640" lon="-8.5477970">
        <ele>252.5</ele>
        <time>2021-05-24T09:09:26Z</time>
      </trkpt>
      <trkpt lat="42.8764730" lon="-8.5477860">
        <ele>252.5</ele>
        <time>2021-05-24T09:09:27Z</time>
      </trkpt>
      <trkpt lat="42.8764850" lon="-8.5477670">
        <ele>252.5</ele>
        <time>2021-05-24T09:09:28Z</time>
      </trkpt>
      <trkpt lat="42.8764960" lon="-8.5477630">
        <ele>252.5</ele>
        <time>2021-05-24T09:09:29Z</time>
      </trkpt>
      <trkpt lat="42.8764960" lon="-8.5477500">
        <ele>252.5</ele>
        <time>2021-05-24T09:09:30Z</time>
      </trkpt>
      <trkpt lat="42.8764980" lon="-8.5477300">
        <ele>252.5</ele>
        <time>2021-05-24T09:09:31Z</time>
      </trkpt>
      <trkpt lat="42.8765020" lon="-8.5477160">
        <ele>252.5</ele>
        <time>2021-05-24T09:09:32Z</time>
      </trkpt>
      <trkpt lat="42.8765110" lon="-8.5476940">
        <ele>252.5</ele>
        <time>2021-05-24T09:09:33Z</time>
      </trkpt>
      <trkpt lat="42.8765180" lon="-8.5476720">
        <ele>252.5</ele>
        <time>2021-05-24T09:09:34Z</time>
      </trkpt>
      <trkpt lat="42.8765080" lon="-8.5476520">
        <ele>252.5</ele>
        <time>2021-05-24T09:09:35Z</time>
      </trkpt>
      <trkpt lat="42.8765200" lon="-8.5476350">
        <ele>252.5</ele>
        <time>2021-05-24T09:09:36Z</time>
      </trkpt>
      <trkpt lat="42.8765260" lon="-8.5476230">
        <ele>252.5</ele>
        <time>2021-05-24T09:09:37Z</time>
      </trkpt>
      <trkpt lat="42.8765360" lon="-8.5476060">
        <ele>252.5</ele>
        <time>2021-05-24T09:09:38Z</time>
      </trkpt>
      <trkpt lat="42.8765400" lon="-8.5475880">
        <ele>252.5</ele>
        <time>2021-05-24T09:09:39Z</time>
      </trkpt>
      <trkpt lat="42.8765530" lon="-8.5475840">
        <ele>252.5</ele>
        <time>2021-05-24T09:09:40Z</time>
      </trkpt>
      <trkpt lat="42.8765710" lon="-8.5475590">
        <ele>252.5</ele>
        <time>2021-05-24T09:09:41Z</time>
      </trkpt>
      <trkpt lat="42.8765810" lon="-8.5475440">
        <ele>252.5</ele>
        <time>2021-05-24T09:09:42Z</time>
      </trkpt>
      <trkpt lat="42.8765840" lon="-8.5475260">
        <ele>252.5</ele>
        <time>2021-05-24T09:09:43Z</time>
      </trkpt>
      <trkpt lat="42.8765850" lon="-8.5475120">
        <ele>252.5</ele>
        <time>2021-05-24T09:09:44Z</time>
      </trkpt>
      <trkpt lat="42.8765980" lon="-8.5475040">
        <ele>252.5</ele>
        <time>2021-05-24T09:09:45Z</time>
      </trkpt>
      <trkpt lat="42.8766130" lon="-8.5474770">
        <ele>252.5</ele>
        <time>2021-05-24T09:09:46Z</time>
      </trkpt>
      <trkpt lat="42.8766170" lon="-8.5474640">
        <ele>252.5</ele>
        <time>2021-05-24T09:09:48Z</time>
      </trkpt>
      <trkpt lat="42.8766220" lon="-8.5474520">
        <ele>252.5</ele>
        <time>2021-05-24T09:09:49Z</time>
      </trkpt>
      <trkpt lat="42.8766260" lon="-8.5474390">
        <ele>252.5</ele>
        <time>2021-05-24T09:09:50Z</time>
      </trkpt>
      <trkpt lat="42.8766310" lon="-8.5474270">
        <ele>252.5</ele>
        <time>2021-05-24T09:09:51Z</time>
      </trkpt>
      <trkpt lat="42.8766430" lon="-8.5474140">
        <ele>252.5</ele>
        <time>2021-05-24T09:09:52Z</time>
      </trkpt>
      <trkpt lat="42.8766540" lon="-8.5474020">
        <ele>252.5</ele>
        <time>2021-05-24T09:09:53Z</time>
      </trkpt>
      <trkpt lat="42.8766560" lon="-8.5473790">
        <ele>252.5</ele>
        <time>2021-05-24T09:09:54Z</time>
      </trkpt>
      <trkpt lat="42.8766630" lon="-8.5473680">
        <ele>252.5</ele>
        <time>2021-05-24T09:09:55Z</time>
      </trkpt>
      <trkpt lat="42.8766690" lon="-8.5473570">
        <ele>252.5</ele>
        <time>2021-05-24T09:09:56Z</time>
      </trkpt>
      <trkpt lat="42.8766750" lon="-8.5473460">
        <ele>252.5</ele>
        <time>2021-05-24T09:09:57Z</time>
      </trkpt>
      <trkpt lat="42.8766790" lon="-8.5473430">
        <ele>252.6</ele>
        <time>2021-05-24T09:09:58Z</time>
      </trkpt>
      <trkpt lat="42.8766840" lon="-8.5473260">
        <ele>252.6</ele>
        <time>2021-05-24T09:09:59Z</time>
      </trkpt>
      <trkpt lat="42.8766830" lon="-8.5473100">
        <ele>252.6</ele>
        <time>2021-05-24T09:10:00Z</time>
      </trkpt>
      <trkpt lat="42.8766810" lon="-8.5472890">
        <ele>252.6</ele>
        <time>2021-05-24T09:10:01Z</time>
      </trkpt>
      <trkpt lat="42.8766860" lon="-8.5472690">
        <ele>252.6</ele>
        <time>2021-05-24T09:10:02Z</time>
      </trkpt>
      <trkpt lat="42.8766860" lon="-8.5472510">
        <ele>252.6</ele>
        <time>2021-05-24T09:10:03Z</time>
      </trkpt>
      <trkpt lat="42.8766950" lon="-8.5472420">
        <ele>252.6</ele>
        <time>2021-05-24T09:10:04Z</time>
      </trkpt>
      <trkpt lat="42.8767030" lon="-8.5472300">
        <ele>252.6</ele>
        <time>2021-05-24T09:10:05Z</time>
      </trkpt>
      <trkpt lat="42.8767160" lon="-8.5472080">
        <ele>252.6</ele>
        <time>2021-05-24T09:10:06Z</time>
      </trkpt>
      <trkpt lat="42.8767180" lon="-8.5471980">
        <ele>252.6</ele>
        <time>2021-05-24T09:10:07Z</time>
      </trkpt>
      <trkpt lat="42.8767240" lon="-8.5471800">
        <ele>252.6</ele>
        <time>2021-05-24T09:10:08Z</time>
      </trkpt>
      <trkpt lat="42.8767240" lon="-8.5471670">
        <ele>252.6</ele>
        <time>2021-05-24T09:10:09Z</time>
      </trkpt>
      <trkpt lat="42.8767280" lon="-8.5471560">
        <ele>252.6</ele>
        <time>2021-05-24T09:10:10Z</time>
      </trkpt>
      <trkpt lat="42.8767340" lon="-8.5471370">
        <ele>252.7</ele>
        <time>2021-05-24T09:10:11Z</time>
      </trkpt>
      <trkpt lat="42.8767380" lon="-8.5471250">
        <ele>252.7</ele>
        <time>2021-05-24T09:10:12Z</time>
      </trkpt>
      <trkpt lat="42.8767350" lon="-8.5471170">
        <ele>252.7</ele>
        <time>2021-05-24T09:10:13Z</time>
      </trkpt>
      <trkpt lat="42.8767480" lon="-8.5470980">
        <ele>252.7</ele>
        <time>2021-05-24T09:10:14Z</time>
      </trkpt>
      <trkpt lat="42.8767490" lon="-8.5470890">
        <ele>252.7</ele>
        <time>2021-05-24T09:10:15Z</time>
      </trkpt>
      <trkpt lat="42.8767530" lon="-8.5470790">
        <ele>252.7</ele>
        <time>2021-05-24T09:10:16Z</time>
      </trkpt>
      <trkpt lat="42.8767610" lon="-8.5470620">
        <ele>252.7</ele>
        <time>2021-05-24T09:10:17Z</time>
      </trkpt>
      <trkpt lat="42.8767560" lon="-8.5470410">
        <ele>252.7</ele>
        <time>2021-05-24T09:10:18Z</time>
      </trkpt>
      <trkpt lat="42.8767690" lon="-8.5470050">
        <ele>252.7</ele>
        <time>2021-05-24T09:10:19Z</time>
      </trkpt>
      <trkpt lat="42.8767700" lon="-8.5469920">
        <ele>252.8</ele>
        <time>2021-05-24T09:10:20Z</time>
      </trkpt>
      <trkpt lat="42.8767720" lon="-8.5469780">
        <ele>252.8</ele>
        <time>2021-05-24T09:10:21Z</time>
      </trkpt>
      <trkpt lat="42.8767810" lon="-8.5469660">
        <ele>252.8</ele>
        <time>2021-05-24T09:10:22Z</time>
      </trkpt>
      <trkpt lat="42.8767830" lon="-8.5469490">
        <ele>252.8</ele>
        <time>2021-05-24T09:10:23Z</time>
      </trkpt>
      <trkpt lat="42.8767810" lon="-8.5469400">
        <ele>252.8</ele>
        <time>2021-05-24T09:10:24Z</time>
      </trkpt>
      <trkpt lat="42.8767820" lon="-8.5469230">
        <ele>252.8</ele>
        <time>2021-05-24T09:10:25Z</time>
      </trkpt>
      <trkpt lat="42.8767830" lon="-8.5468960">
        <ele>252.8</ele>
        <time>2021-05-24T09:10:26Z</time>
      </trkpt>
      <trkpt lat="42.8767850" lon="-8.5468630">
        <ele>252.9</ele>
        <time>2021-05-24T09:10:27Z</time>
      </trkpt>
      <trkpt lat="42.8767850" lon="-8.5468510">
        <ele>252.9</ele>
        <time>2021-05-24T09:10:28Z</time>
      </trkpt>
      <trkpt lat="42.8767860" lon="-8.5468400">
        <ele>252.9</ele>
        <time>2021-05-24T09:10:29Z</time>
      </trkpt>
      <trkpt lat="42.8767890" lon="-8.5468100">
        <ele>252.9</ele>
        <time>2021-05-24T09:10:30Z</time>
      </trkpt>
      <trkpt lat="42.8767910" lon="-8.5467990">
        <ele>253.0</ele>
        <time>2021-05-24T09:10:31Z</time>
      </trkpt>
      <trkpt lat="42.8767940" lon="-8.5467890">
        <ele>253.0</ele>
        <time>2021-05-24T09:10:32Z</time>
      </trkpt>
      <trkpt lat="42.8767970" lon="-8.5467800">
        <ele>253.0</ele>
        <time>2021-05-24T09:10:33Z</time>
      </trkpt>
      <trkpt lat="42.8768020" lon="-8.5467680">
        <ele>253.1</ele>
        <time>2021-05-24T09:10:34Z</time>
      </trkpt>
      <trkpt lat="42.8768030" lon="-8.5467590">
        <ele>253.1</ele>
        <time>2021-05-24T09:10:35Z</time>
      </trkpt>
      <trkpt lat="42.8768030" lon="-8.5467440">
        <ele>253.1</ele>
        <time>2021-05-24T09:10:36Z</time>
      </trkpt>
      <trkpt lat="42.8768030" lon="-8.5467260">
        <ele>253.2</ele>
        <time>2021-05-24T09:10:37Z</time>
      </trkpt>
      <trkpt lat="42.8768060" lon="-8.5467020">
        <ele>253.2</ele>
        <time>2021-05-24T09:10:38Z</time>
      </trkpt>
      <trkpt lat="42.8768100" lon="-8.5466850">
        <ele>253.2</ele>
        <time>2021-05-24T09:10:39Z</time>
      </trkpt>
      <trkpt lat="42.8768160" lon="-8.5466740">
        <ele>253.3</ele>
        <time>2021-05-24T09:10:40Z</time>
      </trkpt>
      <trkpt lat="42.8768180" lon="-8.5466580">
        <ele>253.3</ele>
        <time>2021-05-24T09:10:41Z</time>
      </trkpt>
      <trkpt lat="42.8768350" lon="-8.5466330">
        <ele>253.3</ele>
        <time>2021-05-24T09:10:42Z</time>
      </trkpt>
      <trkpt lat="42.8768370" lon="-8.5466230">
        <ele>253.3</ele>
        <time>2021-05-24T09:10:43Z</time>
      </trkpt>
      <trkpt lat="42.8768400" lon="-8.5466140">
        <ele>253.3</ele>
        <time>2021-05-24T09:10:44Z</time>
      </trkpt>
      <trkpt lat="42.8768520" lon="-8.5465940">
        <ele>253.3</ele>
        <time>2021-05-24T09:10:45Z</time>
      </trkpt>
      <trkpt lat="42.8768610" lon="-8.5465800">
        <ele>253.3</ele>
        <time>2021-05-24T09:10:46Z</time>
      </trkpt>
      <trkpt lat="42.8768760" lon="-8.5465650">
        <ele>253.4</ele>
        <time>2021-05-24T09:10:47Z</time>
      </trkpt>
      <trkpt lat="42.8768860" lon="-8.5465580">
        <ele>253.4</ele>
        <time>2021-05-24T09:10:48Z</time>
      </trkpt>
      <trkpt lat="42.8768960" lon="-8.5465510">
        <ele>253.4</ele>
        <time>2021-05-24T09:10:49Z</time>
      </trkpt>
      <trkpt lat="42.8769120" lon="-8.5465280">
        <ele>253.5</ele>
        <time>2021-05-24T09:10:50Z</time>
      </trkpt>
      <trkpt lat="42.8769190" lon="-8.5465170">
        <ele>253.5</ele>
        <time>2021-05-24T09:10:51Z</time>
      </trkpt>
      <trkpt lat="42.8769250" lon="-8.5465050">
        <ele>253.5</ele>
        <time>2021-05-24T09:10:52Z</time>
      </trkpt>
      <trkpt lat="42.8769500" lon="-8.5464850">
        <ele>253.5</ele>
        <time>2021-05-24T09:10:53Z</time>
      </trkpt>
      <trkpt lat="42.8769570" lon="-8.5464810">
        <ele>253.6</ele>
        <time>2021-05-24T09:10:54Z</time>
      </trkpt>
      <trkpt lat="42.8769740" lon="-8.5464710">
        <ele>253.6</ele>
        <time>2021-05-24T09:10:56Z</time>
      </trkpt>
      <trkpt lat="42.8769850" lon="-8.5464530">
        <ele>253.6</ele>
        <time>2021-05-24T09:10:57Z</time>
      </trkpt>
      <trkpt lat="42.8769910" lon="-8.5464440">
        <ele>253.6</ele>
        <time>2021-05-24T09:10:58Z</time>
      </trkpt>
      <trkpt lat="42.8770020" lon="-8.5464340">
        <ele>253.7</ele>
        <time>2021-05-24T09:10:59Z</time>
      </trkpt>
      <trkpt lat="42.8770100" lon="-8.5464240">
        <ele>253.7</ele>
        <time>2021-05-24T09:11:00Z</time>
      </trkpt>
      <trkpt lat="42.8770180" lon="-8.5464060">
        <ele>253.7</ele>
        <time>2021-05-24T09:11:01Z</time>
      </trkpt>
      <trkpt lat="42.8770320" lon="-8.5463890">
        <ele>253.7</ele>
        <time>2021-05-24T09:11:02Z</time>
      </trkpt>
      <trkpt lat="42.8770420" lon="-8.5463830">
        <ele>253.7</ele>
        <time>2021-05-24T09:11:03Z</time>
      </trkpt>
      <trkpt lat="42.8770510" lon="-8.5463770">
        <ele>253.7</ele>
        <time>2021-05-24T09:11:04Z</time>
      </trkpt>
      <trkpt lat="42.8770600" lon="-8.5463680">
        <ele>253.7</ele>
        <time>2021-05-24T09:11:05Z</time>
      </trkpt>
      <trkpt lat="42.8770550" lon="-8.5463520">
        <ele>253.7</ele>
        <time>2021-05-24T09:11:06Z</time>
      </trkpt>
      <trkpt lat="42.8770660" lon="-8.5463330">
        <ele>253.7</ele>
        <time>2021-05-24T09:11:07Z</time>
      </trkpt>
      <trkpt lat="42.8770750" lon="-8.5463270">
        <ele>253.7</ele>
        <time>2021-05-24T09:11:08Z</time>
      </trkpt>
      <trkpt lat="42.8770910" lon="-8.5463090">
        <ele>253.7</ele>
        <time>2021-05-24T09:11:09Z</time>
      </trkpt>
      <trkpt lat="42.8770990" lon="-8.5463030">
        <ele>253.7</ele>
        <time>2021-05-24T09:11:10Z</time>
      </trkpt>
      <trkpt lat="42.8771070" lon="-8.5462980">
        <ele>253.7</ele>
        <time>2021-05-24T09:11:11Z</time>
      </trkpt>
      <trkpt lat="42.8771050" lon="-8.5462910">
        <ele>253.7</ele>
        <time>2021-05-24T09:11:12Z</time>
      </trkpt>
      <trkpt lat="42.8771180" lon="-8.5462900">
        <ele>253.7</ele>
        <time>2021-05-24T09:11:13Z</time>
      </trkpt>
      <trkpt lat="42.8771400" lon="-8.5462770">
        <ele>253.7</ele>
        <time>2021-05-24T09:11:14Z</time>
      </trkpt>
      <trkpt lat="42.8771490" lon="-8.5462700">
        <ele>253.7</ele>
        <time>2021-05-24T09:11:15Z</time>
      </trkpt>
      <trkpt lat="42.8771600" lon="-8.5462660">
        <ele>253.7</ele>
        <time>2021-05-24T09:11:16Z</time>
      </trkpt>
      <trkpt lat="42.8771700" lon="-8.5462630">
        <ele>253.7</ele>
        <time>2021-05-24T09:11:17Z</time>
      </trkpt>
      <trkpt lat="42.8771830" lon="-8.5462590">
        <ele>253.7</ele>
        <time>2021-05-24T09:11:18Z</time>
      </trkpt>
      <trkpt lat="42.8771890" lon="-8.5462530">
        <ele>253.7</ele>
        <time>2021-05-24T09:11:19Z</time>
      </trkpt>
      <trkpt lat="42.8772010" lon="-8.5462460">
        <ele>253.7</ele>
        <time>2021-05-24T09:11:20Z</time>
      </trkpt>
      <trkpt lat="42.8772080" lon="-8.5462400">
        <ele>253.7</ele>
        <time>2021-05-24T09:11:21Z</time>
      </trkpt>
      <trkpt lat="42.8772230" lon="-8.5462320">
        <ele>253.7</ele>
        <time>2021-05-24T09:11:22Z</time>
      </trkpt>
      <trkpt lat="42.8772310" lon="-8.5462330">
        <ele>253.7</ele>
        <time>2021-05-24T09:11:23Z</time>
      </trkpt>
      <trkpt lat="42.8772430" lon="-8.5462420">
        <ele>254.0</ele>
        <time>2021-05-24T09:11:24Z</time>
      </trkpt>
      <trkpt lat="42.8772570" lon="-8.5462590">
        <ele>254.0</ele>
        <time>2021-05-24T09:11:25Z</time>
      </trkpt>
      <trkpt lat="42.8772670" lon="-8.5462630">
        <ele>254.0</ele>
        <time>2021-05-24T09:11:26Z</time>
      </trkpt>
      <trkpt lat="42.8772790" lon="-8.5462730">
        <ele>254.0</ele>
        <time>2021-05-24T09:11:27Z</time>
      </trkpt>
      <trkpt lat="42.8772780" lon="-8.5462660">
        <ele>254.0</ele>
        <time>2021-05-24T09:11:28Z</time>
      </trkpt>
      <trkpt lat="42.8772770" lon="-8.5462660">
        <ele>254.0</ele>
        <time>2021-05-24T09:11:29Z</time>
      </trkpt>
      <trkpt lat="42.8772780" lon="-8.5462690">
        <ele>254.0</ele>
        <time>2021-05-24T09:11:30Z</time>
      </trkpt>
      <trkpt lat="42.8772860" lon="-8.5462610">
        <ele>254.0</ele>
        <time>2021-05-24T09:11:31Z</time>
      </trkpt>
      <trkpt lat="42.8772850" lon="-8.5462640">
        <ele>254.0</ele>
        <time>2021-05-24T09:11:32Z</time>
      </trkpt>
      <trkpt lat="42.8772790" lon="-8.5462710">
        <ele>254.0</ele>
        <time>2021-05-24T09:11:33Z</time>
      </trkpt>
      <trkpt lat="42.8772780" lon="-8.5462700">
        <ele>254.0</ele>
        <time>2021-05-24T09:11:34Z</time>
      </trkpt>
      <trkpt lat="42.8772770" lon="-8.5462670">
        <ele>254.0</ele>
        <time>2021-05-24T09:11:35Z</time>
      </trkpt>
      <trkpt lat="42.8772780" lon="-8.5462650">
        <ele>254.0</ele>
        <time>2021-05-24T09:11:36Z</time>
      </trkpt>
      <trkpt lat="42.8772770" lon="-8.5462630">
        <ele>254.0</ele>
        <time>2021-05-24T09:11:37Z</time>
      </trkpt>
      <trkpt lat="42.8772750" lon="-8.5462600">
        <ele>254.0</ele>
        <time>2021-05-24T09:11:38Z</time>
      </trkpt>
      <trkpt lat="42.8772710" lon="-8.5462610">
        <ele>254.0</ele>
        <time>2021-05-24T09:11:39Z</time>
      </trkpt>
      <trkpt lat="42.8772700" lon="-8.5462620">
        <ele>254.0</ele>
        <time>2021-05-24T09:11:40Z</time>
      </trkpt>
      <trkpt lat="42.8772680" lon="-8.5462620">
        <ele>254.0</ele>
        <time>2021-05-24T09:11:41Z</time>
      </trkpt>
      <trkpt lat="42.8772690" lon="-8.5462630">
        <ele>254.0</ele>
        <time>2021-05-24T09:11:42Z</time>
      </trkpt>
      <trkpt lat="42.8772670" lon="-8.5462620">
        <ele>254.0</ele>
        <time>2021-05-24T09:11:43Z</time>
      </trkpt>
      <trkpt lat="42.8772630" lon="-8.5462580">
        <ele>254.1</ele>
        <time>2021-05-24T09:11:44Z</time>
      </trkpt>
      <trkpt lat="42.8772570" lon="-8.5462510">
        <ele>254.1</ele>
        <time>2021-05-24T09:11:45Z</time>
      </trkpt>
      <trkpt lat="42.8772520" lon="-8.5462390">
        <ele>254.1</ele>
        <time>2021-05-24T09:11:46Z</time>
      </trkpt>
      <trkpt lat="42.8772570" lon="-8.5462380">
        <ele>254.1</ele>
        <time>2021-05-24T09:11:47Z</time>
      </trkpt>
      <trkpt lat="42.8772520" lon="-8.5462380">
        <ele>254.1</ele>
        <time>2021-05-24T09:11:48Z</time>
      </trkpt>
      <trkpt lat="42.8772450" lon="-8.5462400">
        <ele>254.1</ele>
        <time>2021-05-24T09:11:49Z</time>
      </trkpt>
      <trkpt lat="42.8772430" lon="-8.5462440">
        <ele>254.1</ele>
        <time>2021-05-24T09:11:50Z</time>
      </trkpt>
      <trkpt lat="42.8772400" lon="-8.5462420">
        <ele>254.1</ele>
        <time>2021-05-24T09:11:51Z</time>
      </trkpt>
      <trkpt lat="42.8772400" lon="-8.5462510">
        <ele>254.1</ele>
        <time>2021-05-24T09:11:52Z</time>
      </trkpt>
      <trkpt lat="42.8772400" lon="-8.5462500">
        <ele>254.1</ele>
        <time>2021-05-24T09:11:53Z</time>
      </trkpt>
      <trkpt lat="42.8772390" lon="-8.5462500">
        <ele>254.1</ele>
        <time>2021-05-24T09:11:54Z</time>
      </trkpt>
      <trkpt lat="42.8772400" lon="-8.5462480">
        <ele>254.1</ele>
        <time>2021-05-24T09:11:55Z</time>
      </trkpt>
      <trkpt lat="42.8772370" lon="-8.5462430">
        <ele>254.1</ele>
        <time>2021-05-24T09:11:56Z</time>
      </trkpt>
      <trkpt lat="42.8772380" lon="-8.5462400">
        <ele>254.1</ele>
        <time>2021-05-24T09:11:57Z</time>
      </trkpt>
      <trkpt lat="42.8772340" lon="-8.5462450">
        <ele>254.1</ele>
        <time>2021-05-24T09:11:58Z</time>
      </trkpt>
      <trkpt lat="42.8772350" lon="-8.5462440">
        <ele>254.1</ele>
        <time>2021-05-24T09:11:59Z</time>
      </trkpt>
      <trkpt lat="42.8772320" lon="-8.5462420">
        <ele>254.1</ele>
        <time>2021-05-24T09:12:00Z</time>
      </trkpt>
      <trkpt lat="42.8772290" lon="-8.5462410">
        <ele>254.1</ele>
        <time>2021-05-24T09:12:01Z</time>
      </trkpt>
      <trkpt lat="42.8772290" lon="-8.5462360">
        <ele>254.1</ele>
        <time>2021-05-24T09:12:02Z</time>
      </trkpt>
      <trkpt lat="42.8772230" lon="-8.5462270">
        <ele>254.1</ele>
        <time>2021-05-24T09:12:03Z</time>
      </trkpt>
      <trkpt lat="42.8772240" lon="-8.5462270">
        <ele>254.1</ele>
        <time>2021-05-24T09:12:04Z</time>
      </trkpt>
      <trkpt lat="42.8772230" lon="-8.5462250">
        <ele>254.1</ele>
        <time>2021-05-24T09:12:05Z</time>
      </trkpt>
      <trkpt lat="42.8772240" lon="-8.5462180">
        <ele>254.1</ele>
        <time>2021-05-24T09:12:06Z</time>
      </trkpt>
      <trkpt lat="42.8772230" lon="-8.5462180">
        <ele>254.1</ele>
        <time>2021-05-24T09:12:07Z</time>
      </trkpt>
      <trkpt lat="42.8772310" lon="-8.5462070">
        <ele>254.1</ele>
        <time>2021-05-24T09:12:08Z</time>
      </trkpt>
      <trkpt lat="42.8772290" lon="-8.5462060">
        <ele>254.1</ele>
        <time>2021-05-24T09:12:09Z</time>
      </trkpt>
      <trkpt lat="42.8772270" lon="-8.5462050">
        <ele>254.1</ele>
        <time>2021-05-24T09:12:10Z</time>
      </trkpt>
      <trkpt lat="42.8772270" lon="-8.5462050">
        <ele>254.1</ele>
        <time>2021-05-24T09:12:11Z</time>
      </trkpt>
      <trkpt lat="42.8772290" lon="-8.5462060">
        <ele>254.1</ele>
        <time>2021-05-24T09:12:12Z</time>
      </trkpt>
      <trkpt lat="42.8772300" lon="-8.5462040">
        <ele>254.1</ele>
        <time>2021-05-24T09:12:13Z</time>
      </trkpt>
      <trkpt lat="42.8772320" lon="-8.5462030">
        <ele>254.1</ele>
        <time>2021-05-24T09:12:14Z</time>
      </trkpt>
      <trkpt lat="42.8772300" lon="-8.5462020">
        <ele>254.2</ele>
        <time>2021-05-24T09:12:15Z</time>
      </trkpt>
      <trkpt lat="42.8772280" lon="-8.5462010">
        <ele>254.2</ele>
        <time>2021-05-24T09:12:16Z</time>
      </trkpt>
      <trkpt lat="42.8772260" lon="-8.5462000">
        <ele>254.2</ele>
        <time>2021-05-24T09:12:17Z</time>
      </trkpt>
      <trkpt lat="42.8772240" lon="-8.5462000">
        <ele>254.2</ele>
        <time>2021-05-24T09:12:18Z</time>
      </trkpt>
      <trkpt lat="42.8772220" lon="-8.5461990">
        <ele>254.2</ele>
        <time>2021-05-24T09:12:19Z</time>
      </trkpt>
      <trkpt lat="42.8772200" lon="-8.5461980">
        <ele>254.2</ele>
        <time>2021-05-24T09:12:20Z</time>
      </trkpt>
      <trkpt lat="42.8772180" lon="-8.5461970">
        <ele>254.2</ele>
        <time>2021-05-24T09:12:21Z</time>
      </trkpt>
      <trkpt lat="42.8772160" lon="-8.5461960">
        <ele>254.2</ele>
        <time>2021-05-24T09:12:22Z</time>
      </trkpt>
      <trkpt lat="42.8772130" lon="-8.5461950">
        <ele>254.2</ele>
        <time>2021-05-24T09:12:23Z</time>
      </trkpt>
      <trkpt lat="42.8772110" lon="-8.5461940">
        <ele>254.2</ele>
        <time>2021-05-24T09:12:24Z</time>
      </trkpt>
      <trkpt lat="42.8772090" lon="-8.5461930">
        <ele>254.2</ele>
        <time>2021-05-24T09:12:25Z</time>
      </trkpt>
      <trkpt lat="42.8772070" lon="-8.5461920">
        <ele>254.2</ele>
        <time>2021-05-24T09:12:26Z</time>
      </trkpt>
      <trkpt lat="42.8772050" lon="-8.5461910">
        <ele>254.2</ele>
        <time>2021-05-24T09:12:27Z</time>
      </trkpt>
      <trkpt lat="42.8772030" lon="-8.5461910">
        <ele>254.2</ele>
        <time>2021-05-24T09:12:28Z</time>
      </trkpt>
      <trkpt lat="42.8772010" lon="-8.5461900">
        <ele>254.2</ele>
        <time>2021-05-24T09:12:29Z</time>
      </trkpt>
      <trkpt lat="42.8771990" lon="-8.5461890">
        <ele>254.2</ele>
        <time>2021-05-24T09:12:30Z</time>
      </trkpt>
      <trkpt lat="42.8771970" lon="-8.5461880">
        <ele>254.2</ele>
        <time>2021-05-24T09:12:31Z</time>
      </trkpt>
      <trkpt lat="42.8771950" lon="-8.5461870">
        <ele>254.2</ele>
        <time>2021-05-24T09:12:32Z</time>
      </trkpt>
      <trkpt lat="42.8771900" lon="-8.5461840">
        <ele>254.2</ele>
        <time>2021-05-24T09:12:33Z</time>
      </trkpt>
      <trkpt lat="42.8771910" lon="-8.5461870">
        <ele>254.2</ele>
        <time>2021-05-24T09:12:34Z</time>
      </trkpt>
      <trkpt lat="42.8771920" lon="-8.5461880">
        <ele>254.2</ele>
        <time>2021-05-24T09:12:35Z</time>
      </trkpt>
      <trkpt lat="42.8771920" lon="-8.5461880">
        <ele>254.2</ele>
        <time>2021-05-24T09:12:36Z</time>
      </trkpt>
      <trkpt lat="42.8771970" lon="-8.5461960">
        <ele>254.2</ele>
        <time>2021-05-24T09:12:37Z</time>
      </trkpt>
      <trkpt lat="42.8771940" lon="-8.5461910">
        <ele>254.2</ele>
        <time>2021-05-24T09:12:38Z</time>
      </trkpt>
      <trkpt lat="42.8771960" lon="-8.5461940">
        <ele>254.2</ele>
        <time>2021-05-24T09:12:39Z</time>
      </trkpt>
      <trkpt lat="42.8771960" lon="-8.5461900">
        <ele>254.2</ele>
        <time>2021-05-24T09:12:40Z</time>
      </trkpt>
      <trkpt lat="42.8772000" lon="-8.5461870">
        <ele>254.2</ele>
        <time>2021-05-24T09:12:41Z</time>
      </trkpt>
      <trkpt lat="42.8772010" lon="-8.5461800">
        <ele>254.2</ele>
        <time>2021-05-24T09:12:42Z</time>
      </trkpt>
      <trkpt lat="42.8772020" lon="-8.5461720">
        <ele>254.2</ele>
        <time>2021-05-24T09:12:43Z</time>
      </trkpt>
      <trkpt lat="42.8772030" lon="-8.5461540">
        <ele>254.2</ele>
        <time>2021-05-24T09:12:44Z</time>
      </trkpt>
      <trkpt lat="42.8772140" lon="-8.5461470">
        <ele>254.2</ele>
        <time>2021-05-24T09:12:45Z</time>
      </trkpt>
      <trkpt lat="42.8772240" lon="-8.5461260">
        <ele>254.3</ele>
        <time>2021-05-24T09:12:46Z</time>
      </trkpt>
      <trkpt lat="42.8772290" lon="-8.5461120">
        <ele>254.3</ele>
        <time>2021-05-24T09:12:47Z</time>
      </trkpt>
      <trkpt lat="42.8772350" lon="-8.5460970">
        <ele>254.3</ele>
        <time>2021-05-24T09:12:48Z</time>
      </trkpt>
      <trkpt lat="42.8772340" lon="-8.5460690">
        <ele>254.4</ele>
        <time>2021-05-24T09:12:49Z</time>
      </trkpt>
      <trkpt lat="42.8772380" lon="-8.5460580">
        <ele>254.4</ele>
        <time>2021-05-24T09:12:50Z</time>
      </trkpt>
      <trkpt lat="42.8772410" lon="-8.5460480">
        <ele>254.4</ele>
        <time>2021-05-24T09:12:51Z</time>
      </trkpt>
      <trkpt lat="42.8772450" lon="-8.5460340">
        <ele>254.5</ele>
        <time>2021-05-24T09:12:52Z</time>
      </trkpt>
      <trkpt lat="42.8772460" lon="-8.5460240">
        <ele>254.5</ele>
        <time>2021-05-24T09:12:53Z</time>
      </trkpt>
      <trkpt lat="42.8772470" lon="-8.5460110">
        <ele>254.5</ele>
        <time>2021-05-24T09:12:54Z</time>
      </trkpt>
      <trkpt lat="42.8772500" lon="-8.5459940">
        <ele>254.6</ele>
        <time>2021-05-24T09:12:55Z</time>
      </trkpt>
      <trkpt lat="42.8772480" lon="-8.5459820">
        <ele>254.6</ele>
        <time>2021-05-24T09:12:56Z</time>
      </trkpt>
      <trkpt lat="42.8772460" lon="-8.5459700">
        <ele>254.6</ele>
        <time>2021-05-24T09:12:57Z</time>
      </trkpt>
      <trkpt lat="42.8772430" lon="-8.5459610">
        <ele>254.7</ele>
        <time>2021-05-24T09:12:58Z</time>
      </trkpt>
      <trkpt lat="42.8772440" lon="-8.5459490">
        <ele>254.7</ele>
        <time>2021-05-24T09:12:59Z</time>
      </trkpt>
      <trkpt lat="42.8772450" lon="-8.5459310">
        <ele>254.7</ele>
        <time>2021-05-24T09:13:00Z</time>
      </trkpt>
      <trkpt lat="42.8772430" lon="-8.5459230">
        <ele>254.7</ele>
        <time>2021-05-24T09:13:01Z</time>
      </trkpt>
      <trkpt lat="42.8772460" lon="-8.5459120">
        <ele>254.8</ele>
        <time>2021-05-24T09:13:02Z</time>
      </trkpt>
      <trkpt lat="42.8772460" lon="-8.5458920">
        <ele>254.8</ele>
        <time>2021-05-24T09:13:03Z</time>
      </trkpt>
      <trkpt lat="42.8772510" lon="-8.5458560">
        <ele>254.8</ele>
        <time>2021-05-24T09:13:04Z</time>
      </trkpt>
      <trkpt lat="42.8772600" lon="-8.5458410">
        <ele>254.9</ele>
        <time>2021-05-24T09:13:06Z</time>
      </trkpt>
      <trkpt lat="42.8772680" lon="-8.5458250">
        <ele>254.9</ele>
        <time>2021-05-24T09:13:07Z</time>
      </trkpt>
      <trkpt lat="42.8772760" lon="-8.5458090">
        <ele>254.9</ele>
        <time>2021-05-24T09:13:08Z</time>
      </trkpt>
      <trkpt lat="42.8772900" lon="-8.5458000">
        <ele>254.9</ele>
        <time>2021-05-24T09:13:09Z</time>
      </trkpt>
      <trkpt lat="42.8773040" lon="-8.5457890">
        <ele>255.0</ele>
        <time>2021-05-24T09:13:10Z</time>
      </trkpt>
      <trkpt lat="42.8773140" lon="-8.5457760">
        <ele>255.0</ele>
        <time>2021-05-24T09:13:11Z</time>
      </trkpt>
      <trkpt lat="42.8773300" lon="-8.5457560">
        <ele>255.0</ele>
        <time>2021-05-24T09:13:12Z</time>
      </trkpt>
      <trkpt lat="42.8773340" lon="-8.5457420">
        <ele>255.0</ele>
        <time>2021-05-24T09:13:13Z</time>
      </trkpt>
      <trkpt lat="42.8773340" lon="-8.5457290">
        <ele>255.1</ele>
        <time>2021-05-24T09:13:14Z</time>
      </trkpt>
      <trkpt lat="42.8773460" lon="-8.5457150">
        <ele>255.1</ele>
        <time>2021-05-24T09:13:15Z</time>
      </trkpt>
      <trkpt lat="42.8773520" lon="-8.5457100">
        <ele>255.1</ele>
        <time>2021-05-24T09:13:16Z</time>
      </trkpt>
      <trkpt lat="42.8773610" lon="-8.5456910">
        <ele>255.1</ele>
        <time>2021-05-24T09:13:17Z</time>
      </trkpt>
      <trkpt lat="42.8773640" lon="-8.5456870">
        <ele>255.1</ele>
        <time>2021-05-24T09:13:18Z</time>
      </trkpt>
      <trkpt lat="42.8773760" lon="-8.5456820">
        <ele>255.1</ele>
        <time>2021-05-24T09:13:19Z</time>
      </trkpt>
      <trkpt lat="42.8773840" lon="-8.5456730">
        <ele>255.1</ele>
        <time>2021-05-24T09:13:20Z</time>
      </trkpt>
      <trkpt lat="42.8773950" lon="-8.5456670">
        <ele>255.1</ele>
        <time>2021-05-24T09:13:21Z</time>
      </trkpt>
      <trkpt lat="42.8774030" lon="-8.5456630">
        <ele>255.1</ele>
        <time>2021-05-24T09:13:22Z</time>
      </trkpt>
      <trkpt lat="42.8774130" lon="-8.5456580">
        <ele>255.1</ele>
        <time>2021-05-24T09:13:23Z</time>
      </trkpt>
      <trkpt lat="42.8774250" lon="-8.5456490">
        <ele>255.1</ele>
        <time>2021-05-24T09:13:24Z</time>
      </trkpt>
      <trkpt lat="42.8774340" lon="-8.5456340">
        <ele>255.1</ele>
        <time>2021-05-24T09:13:25Z</time>
      </trkpt>
      <trkpt lat="42.8774400" lon="-8.5456280">
        <ele>255.1</ele>
        <time>2021-05-24T09:13:26Z</time>
      </trkpt>
      <trkpt lat="42.8774460" lon="-8.5456210">
        <ele>255.1</ele>
        <time>2021-05-24T09:13:27Z</time>
      </trkpt>
      <trkpt lat="42.8774520" lon="-8.5456150">
        <ele>255.1</ele>
        <time>2021-05-24T09:13:28Z</time>
      </trkpt>
      <trkpt lat="42.8774720" lon="-8.5456070">
        <ele>255.1</ele>
        <time>2021-05-24T09:13:29Z</time>
      </trkpt>
      <trkpt lat="42.8774800" lon="-8.5456030">
        <ele>255.1</ele>
        <time>2021-05-24T09:13:30Z</time>
      </trkpt>
      <trkpt lat="42.8774900" lon="-8.5455940">
        <ele>255.1</ele>
        <time>2021-05-24T09:13:31Z</time>
      </trkpt>
      <trkpt lat="42.8775010" lon="-8.5455920">
        <ele>255.1</ele>
        <time>2021-05-24T09:13:32Z</time>
      </trkpt>
      <trkpt lat="42.8774980" lon="-8.5455840">
        <ele>255.1</ele>
        <time>2021-05-24T09:13:33Z</time>
      </trkpt>
      <trkpt lat="42.8774960" lon="-8.5455790">
        <ele>255.1</ele>
        <time>2021-05-24T09:13:34Z</time>
      </trkpt>
      <trkpt lat="42.8774990" lon="-8.5455850">
        <ele>255.1</ele>
        <time>2021-05-24T09:13:35Z</time>
      </trkpt>
      <trkpt lat="42.8775030" lon="-8.5455870">
        <ele>255.1</ele>
        <time>2021-05-24T09:13:36Z</time>
      </trkpt>
      <trkpt lat="42.8775060" lon="-8.5455830">
        <ele>255.1</ele>
        <time>2021-05-24T09:13:37Z</time>
      </trkpt>
      <trkpt lat="42.8775100" lon="-8.5455810">
        <ele>255.1</ele>
        <time>2021-05-24T09:13:38Z</time>
      </trkpt>
      <trkpt lat="42.8775190" lon="-8.5455840">
        <ele>255.1</ele>
        <time>2021-05-24T09:13:39Z</time>
      </trkpt>
      <trkpt lat="42.8775190" lon="-8.5455820">
        <ele>255.1</ele>
        <time>2021-05-24T09:13:40Z</time>
      </trkpt>
      <trkpt lat="42.8775200" lon="-8.5455870">
        <ele>255.1</ele>
        <time>2021-05-24T09:13:41Z</time>
      </trkpt>
      <trkpt lat="42.8775230" lon="-8.5455830">
        <ele>255.1</ele>
        <time>2021-05-24T09:13:42Z</time>
      </trkpt>
      <trkpt lat="42.8775190" lon="-8.5455860">
        <ele>255.1</ele>
        <time>2021-05-24T09:13:43Z</time>
      </trkpt>
      <trkpt lat="42.8775270" lon="-8.5455880">
        <ele>255.1</ele>
        <time>2021-05-24T09:13:44Z</time>
      </trkpt>
      <trkpt lat="42.8775310" lon="-8.5455780">
        <ele>255.1</ele>
        <time>2021-05-24T09:13:45Z</time>
      </trkpt>
      <trkpt lat="42.8775310" lon="-8.5455680">
        <ele>255.1</ele>
        <time>2021-05-24T09:13:46Z</time>
      </trkpt>
      <trkpt lat="42.8775350" lon="-8.5455650">
        <ele>255.1</ele>
        <time>2021-05-24T09:13:47Z</time>
      </trkpt>
      <trkpt lat="42.8775420" lon="-8.5455630">
        <ele>255.1</ele>
        <time>2021-05-24T09:13:48Z</time>
      </trkpt>
      <trkpt lat="42.8775470" lon="-8.5455680">
        <ele>255.1</ele>
        <time>2021-05-24T09:13:49Z</time>
      </trkpt>
      <trkpt lat="42.8775460" lon="-8.5455670">
        <ele>255.1</ele>
        <time>2021-05-24T09:13:50Z</time>
      </trkpt>
      <trkpt lat="42.8775510" lon="-8.5455640">
        <ele>255.1</ele>
        <time>2021-05-24T09:13:51Z</time>
      </trkpt>
      <trkpt lat="42.8775620" lon="-8.5455560">
        <ele>255.1</ele>
        <time>2021-05-24T09:13:52Z</time>
      </trkpt>
      <trkpt lat="42.8775960" lon="-8.5455650">
        <ele>255.1</ele>
        <time>2021-05-24T09:13:53Z</time>
      </trkpt>
      <trkpt lat="42.8776110" lon="-8.5455640">
        <ele>255.1</ele>
        <time>2021-05-24T09:13:54Z</time>
      </trkpt>
      <trkpt lat="42.8776250" lon="-8.5455630">
        <ele>255.1</ele>
        <time>2021-05-24T09:13:55Z</time>
      </trkpt>
      <trkpt lat="42.8776400" lon="-8.5455620">
        <ele>255.1</ele>
        <time>2021-05-24T09:13:56Z</time>
      </trkpt>
      <trkpt lat="42.8776500" lon="-8.5455460">
        <ele>255.1</ele>
        <time>2021-05-24T09:13:57Z</time>
      </trkpt>
      <trkpt lat="42.8776620" lon="-8.5455380">
        <ele>255.1</ele>
        <time>2021-05-24T09:13:58Z</time>
      </trkpt>
      <trkpt lat="42.8776750" lon="-8.5455230">
        <ele>255.1</ele>
        <time>2021-05-24T09:13:59Z</time>
      </trkpt>
      <trkpt lat="42.8776650" lon="-8.5455420">
        <ele>255.1</ele>
        <time>2021-05-24T09:14:00Z</time>
      </trkpt>
      <trkpt lat="42.8776660" lon="-8.5455480">
        <ele>255.1</ele>
        <time>2021-05-24T09:14:01Z</time>
      </trkpt>
      <trkpt lat="42.8776680" lon="-8.5455570">
        <ele>255.1</ele>
        <time>2021-05-24T09:14:02Z</time>
      </trkpt>
      <trkpt lat="42.8776700" lon="-8.5455660">
        <ele>255.1</ele>
        <time>2021-05-24T09:14:03Z</time>
      </trkpt>
      <trkpt lat="42.8776890" lon="-8.5455490">
        <ele>255.1</ele>
        <time>2021-05-24T09:14:04Z</time>
      </trkpt>
      <trkpt lat="42.8777140" lon="-8.5455030">
        <ele>255.1</ele>
        <time>2021-05-24T09:14:05Z</time>
      </trkpt>
      <trkpt lat="42.8777340" lon="-8.5454610">
        <ele>255.1</ele>
        <time>2021-05-24T09:14:06Z</time>
      </trkpt>
      <trkpt lat="42.8777560" lon="-8.5453870">
        <ele>255.0</ele>
        <time>2021-05-24T09:14:07Z</time>
      </trkpt>
      <trkpt lat="42.8777620" lon="-8.5453480">
        <ele>255.0</ele>
        <time>2021-05-24T09:14:08Z</time>
      </trkpt>
      <trkpt lat="42.8777860" lon="-8.5453570">
        <ele>254.9</ele>
        <time>2021-05-24T09:14:09Z</time>
      </trkpt>
      <trkpt lat="42.8777990" lon="-8.5453630">
        <ele>254.9</ele>
        <time>2021-05-24T09:14:10Z</time>
      </trkpt>
      <trkpt lat="42.8778300" lon="-8.5453640">
        <ele>254.9</ele>
        <time>2021-05-24T09:14:11Z</time>
      </trkpt>
      <trkpt lat="42.8778390" lon="-8.5453630">
        <ele>254.9</ele>
        <time>2021-05-24T09:14:12Z</time>
      </trkpt>
      <trkpt lat="42.8778760" lon="-8.5453600">
        <ele>254.8</ele>
        <time>2021-05-24T09:14:13Z</time>
      </trkpt>
      <trkpt lat="42.8778900" lon="-8.5453540">
        <ele>254.8</ele>
        <time>2021-05-24T09:14:14Z</time>
      </trkpt>
      <trkpt lat="42.8779230" lon="-8.5453650">
        <ele>254.7</ele>
        <time>2021-05-24T09:14:15Z</time>
      </trkpt>
      <trkpt lat="42.8779290" lon="-8.5453760">
        <ele>254.7</ele>
        <time>2021-05-24T09:14:16Z</time>
      </trkpt>
      <trkpt lat="42.8779320" lon="-8.5453780">
        <ele>254.7</ele>
        <time>2021-05-24T09:14:17Z</time>
      </trkpt>
      <trkpt lat="42.8779590" lon="-8.5453820">
        <ele>254.7</ele>
        <time>2021-05-24T09:14:18Z</time>
      </trkpt>
      <trkpt lat="42.8779730" lon="-8.5453940">
        <ele>254.7</ele>
        <time>2021-05-24T09:14:19Z</time>
      </trkpt>
      <trkpt lat="42.8779780" lon="-8.5453990">
        <ele>254.7</ele>
        <time>2021-05-24T09:14:20Z</time>
      </trkpt>
      <trkpt lat="42.8779840" lon="-8.5454050">
        <ele>254.6</ele>
        <time>2021-05-24T09:14:21Z</time>
      </trkpt>
      <trkpt lat="42.8779890" lon="-8.5454100">
        <ele>254.6</ele>
        <time>2021-05-24T09:14:22Z</time>
      </trkpt>
      <trkpt lat="42.8779940" lon="-8.5454160">
        <ele>254.6</ele>
        <time>2021-05-24T09:14:23Z</time>
      </trkpt>
      <trkpt lat="42.8780010" lon="-8.5454120">
        <ele>254.6</ele>
        <time>2021-05-24T09:14:24Z</time>
      </trkpt>
      <trkpt lat="42.8780100" lon="-8.5454070">
        <ele>254.6</ele>
        <time>2021-05-24T09:14:25Z</time>
      </trkpt>
      <trkpt lat="42.8780120" lon="-8.5454050">
        <ele>254.6</ele>
        <time>2021-05-24T09:14:26Z</time>
      </trkpt>
      <trkpt lat="42.8780210" lon="-8.5454000">
        <ele>254.5</ele>
        <time>2021-05-24T09:14:27Z</time>
      </trkpt>
      <trkpt lat="42.8780310" lon="-8.5454010">
        <ele>254.5</ele>
        <time>2021-05-24T09:14:28Z</time>
      </trkpt>
      <trkpt lat="42.8780250" lon="-8.5453870">
        <ele>254.5</ele>
        <time>2021-05-24T09:14:29Z</time>
      </trkpt>
      <trkpt lat="42.8780300" lon="-8.5453640">
        <ele>254.4</ele>
        <time>2021-05-24T09:14:30Z</time>
      </trkpt>
      <trkpt lat="42.8780520" lon="-8.5453280">
        <ele>254.3</ele>
        <time>2021-05-24T09:14:31Z</time>
      </trkpt>
      <trkpt lat="42.8780550" lon="-8.5453170">
        <ele>254.3</ele>
        <time>2021-05-24T09:14:32Z</time>
      </trkpt>
      <trkpt lat="42.8780840" lon="-8.5453160">
        <ele>254.2</ele>
        <time>2021-05-24T09:14:33Z</time>
      </trkpt>
      <trkpt lat="42.8780970" lon="-8.5453080">
        <ele>254.2</ele>
        <time>2021-05-24T09:14:34Z</time>
      </trkpt>
      <trkpt lat="42.8780980" lon="-8.5453000">
        <ele>254.2</ele>
        <time>2021-05-24T09:14:35Z</time>
      </trkpt>
      <trkpt lat="42.8781170" lon="-8.5452840">
        <ele>254.1</ele>
        <time>2021-05-24T09:14:36Z</time>
      </trkpt>
      <trkpt lat="42.8781240" lon="-8.5452780">
        <ele>254.1</ele>
        <time>2021-05-24T09:14:37Z</time>
      </trkpt>
      <trkpt lat="42.8781480" lon="-8.5452780">
        <ele>254.0</ele>
        <time>2021-05-24T09:14:38Z</time>
      </trkpt>
      <trkpt lat="42.8781570" lon="-8.5452800">
        <ele>254.0</ele>
        <time>2021-05-24T09:14:39Z</time>
      </trkpt>
      <trkpt lat="42.8781670" lon="-8.5452830">
        <ele>253.9</ele>
        <time>2021-05-24T09:14:40Z</time>
      </trkpt>
      <trkpt lat="42.8781700" lon="-8.5452760">
        <ele>253.9</ele>
        <time>2021-05-24T09:14:41Z</time>
      </trkpt>
      <trkpt lat="42.8781920" lon="-8.5452580">
        <ele>253.8</ele>
        <time>2021-05-24T09:14:42Z</time>
      </trkpt>
      <trkpt lat="42.8782010" lon="-8.5452520">
        <ele>253.8</ele>
        <time>2021-05-24T09:14:43Z</time>
      </trkpt>
      <trkpt lat="42.8782070" lon="-8.5452500">
        <ele>253.8</ele>
        <time>2021-05-24T09:14:44Z</time>
      </trkpt>
      <trkpt lat="42.8782120" lon="-8.5452490">
        <ele>253.7</ele>
        <time>2021-05-24T09:14:45Z</time>
      </trkpt>
      <trkpt lat="42.8782190" lon="-8.5452360">
        <ele>253.7</ele>
        <time>2021-05-24T09:14:46Z</time>
      </trkpt>
      <trkpt lat="42.8782330" lon="-8.5452180">
        <ele>253.6</ele>
        <time>2021-05-24T09:14:47Z</time>
      </trkpt>
      <trkpt lat="42.8782440" lon="-8.5452090">
        <ele>253.6</ele>
        <time>2021-05-24T09:14:48Z</time>
      </trkpt>
      <trkpt lat="42.8782540" lon="-8.5452000">
        <ele>253.5</ele>
        <time>2021-05-24T09:14:49Z</time>
      </trkpt>
      <trkpt lat="42.8782700" lon="-8.5451990">
        <ele>253.5</ele>
        <time>2021-05-24T09:14:50Z</time>
      </trkpt>
      <trkpt lat="42.8782860" lon="-8.5451960">
        <ele>253.4</ele>
        <time>2021-05-24T09:14:51Z</time>
      </trkpt>
      <trkpt lat="42.8783140" lon="-8.5451910">
        <ele>253.3</ele>
        <time>2021-05-24T09:14:52Z</time>
      </trkpt>
      <trkpt lat="42.8783230" lon="-8.5451870">
        <ele>253.3</ele>
        <time>2021-05-24T09:14:53Z</time>
      </trkpt>
      <trkpt lat="42.8783520" lon="-8.5451910">
        <ele>253.2</ele>
        <time>2021-05-24T09:14:54Z</time>
      </trkpt>
      <trkpt lat="42.8783610" lon="-8.5451920">
        <ele>253.1</ele>
        <time>2021-05-24T09:14:55Z</time>
      </trkpt>
      <trkpt lat="42.8783610" lon="-8.5451930">
        <ele>253.1</ele>
        <time>2021-05-24T09:14:56Z</time>
      </trkpt>
      <trkpt lat="42.8783590" lon="-8.5451810">
        <ele>253.1</ele>
        <time>2021-05-24T09:14:57Z</time>
      </trkpt>
      <trkpt lat="42.8783670" lon="-8.5451810">
        <ele>253.1</ele>
        <time>2021-05-24T09:14:58Z</time>
      </trkpt>
      <trkpt lat="42.8783880" lon="-8.5451940">
        <ele>253.0</ele>
        <time>2021-05-24T09:14:59Z</time>
      </trkpt>
      <trkpt lat="42.8784110" lon="-8.5452020">
        <ele>252.9</ele>
        <time>2021-05-24T09:15:00Z</time>
      </trkpt>
      <trkpt lat="42.8784220" lon="-8.5452080">
        <ele>252.9</ele>
        <time>2021-05-24T09:15:01Z</time>
      </trkpt>
      <trkpt lat="42.8784330" lon="-8.5452090">
        <ele>252.8</ele>
        <time>2021-05-24T09:15:02Z</time>
      </trkpt>
      <trkpt lat="42.8784560" lon="-8.5451990">
        <ele>252.7</ele>
        <time>2021-05-24T09:15:03Z</time>
      </trkpt>
      <trkpt lat="42.8784670" lon="-8.5451860">
        <ele>252.7</ele>
        <time>2021-05-24T09:15:04Z</time>
      </trkpt>
      <trkpt lat="42.8784740" lon="-8.5451830">
        <ele>252.7</ele>
        <time>2021-05-24T09:15:05Z</time>
      </trkpt>
      <trkpt lat="42.8784830" lon="-8.5451810">
        <ele>252.6</ele>
        <time>2021-05-24T09:15:06Z</time>
      </trkpt>
      <trkpt lat="42.8785070" lon="-8.5451580">
        <ele>252.5</ele>
        <time>2021-05-24T09:15:07Z</time>
      </trkpt>
      <trkpt lat="42.8785170" lon="-8.5451540">
        <ele>252.5</ele>
        <time>2021-05-24T09:15:08Z</time>
      </trkpt>
      <trkpt lat="42.8785290" lon="-8.5451340">
        <ele>252.5</ele>
        <time>2021-05-24T09:15:09Z</time>
      </trkpt>
      <trkpt lat="42.8785370" lon="-8.5451200">
        <ele>252.4</ele>
        <time>2021-05-24T09:15:10Z</time>
      </trkpt>
      <trkpt lat="42.8785440" lon="-8.5451070">
        <ele>252.4</ele>
        <time>2021-05-24T09:15:11Z</time>
      </trkpt>
      <trkpt lat="42.8785570" lon="-8.5450940">
        <ele>252.4</ele>
        <time>2021-05-24T09:15:12Z</time>
      </trkpt>
      <trkpt lat="42.8785730" lon="-8.5450940">
        <ele>252.4</ele>
        <time>2021-05-24T09:15:13Z</time>
      </trkpt>
      <trkpt lat="42.8785920" lon="-8.5451010">
        <ele>252.3</ele>
        <time>2021-05-24T09:15:14Z</time>
      </trkpt>
      <trkpt lat="42.8786030" lon="-8.5451020">
        <ele>252.3</ele>
        <time>2021-05-24T09:15:15Z</time>
      </trkpt>
      <trkpt lat="42.8786130" lon="-8.5451040">
        <ele>252.2</ele>
        <time>2021-05-24T09:15:16Z</time>
      </trkpt>
      <trkpt lat="42.8786300" lon="-8.5451080">
        <ele>252.2</ele>
        <time>2021-05-24T09:15:17Z</time>
      </trkpt>
      <trkpt lat="42.8786310" lon="-8.5451180">
        <ele>252.2</ele>
        <time>2021-05-24T09:15:18Z</time>
      </trkpt>
      <trkpt lat="42.8786400" lon="-8.5451160">
        <ele>252.2</ele>
        <time>2021-05-24T09:15:19Z</time>
      </trkpt>
      <trkpt lat="42.8786560" lon="-8.5451270">
        <ele>252.1</ele>
        <time>2021-05-24T09:15:20Z</time>
      </trkpt>
      <trkpt lat="42.8786700" lon="-8.5451320">
        <ele>252.1</ele>
        <time>2021-05-24T09:15:21Z</time>
      </trkpt>
      <trkpt lat="42.8786840" lon="-8.5451370">
        <ele>252.0</ele>
        <time>2021-05-24T09:15:22Z</time>
      </trkpt>
      <trkpt lat="42.8787010" lon="-8.5451360">
        <ele>252.0</ele>
        <time>2021-05-24T09:15:23Z</time>
      </trkpt>
      <trkpt lat="42.8787080" lon="-8.5451230">
        <ele>251.9</ele>
        <time>2021-05-24T09:15:24Z</time>
      </trkpt>
      <trkpt lat="42.8787130" lon="-8.5451160">
        <ele>251.9</ele>
        <time>2021-05-24T09:15:25Z</time>
      </trkpt>
      <trkpt lat="42.8787430" lon="-8.5451290">
        <ele>251.8</ele>
        <time>2021-05-24T09:15:26Z</time>
      </trkpt>
      <trkpt lat="42.8787890" lon="-8.5451270">
        <ele>251.7</ele>
        <time>2021-05-24T09:15:27Z</time>
      </trkpt>
      <trkpt lat="42.8788110" lon="-8.5451260">
        <ele>251.7</ele>
        <time>2021-05-24T09:15:28Z</time>
      </trkpt>
      <trkpt lat="42.8788280" lon="-8.5451240">
        <ele>251.6</ele>
        <time>2021-05-24T09:15:29Z</time>
      </trkpt>
      <trkpt lat="42.8788450" lon="-8.5451210">
        <ele>251.6</ele>
        <time>2021-05-24T09:15:30Z</time>
      </trkpt>
      <trkpt lat="42.8788540" lon="-8.5451310">
        <ele>251.5</ele>
        <time>2021-05-24T09:15:31Z</time>
      </trkpt>
      <trkpt lat="42.8788640" lon="-8.5451370">
        <ele>251.5</ele>
        <time>2021-05-24T09:15:32Z</time>
      </trkpt>
      <trkpt lat="42.8788730" lon="-8.5451430">
        <ele>251.5</ele>
        <time>2021-05-24T09:15:33Z</time>
      </trkpt>
      <trkpt lat="42.8788830" lon="-8.5451490">
        <ele>251.5</ele>
        <time>2021-05-24T09:15:34Z</time>
      </trkpt>
      <trkpt lat="42.8788950" lon="-8.5451560">
        <ele>251.4</ele>
        <time>2021-05-24T09:15:35Z</time>
      </trkpt>
      <trkpt lat="42.8789140" lon="-8.5451610">
        <ele>251.4</ele>
        <time>2021-05-24T09:15:36Z</time>
      </trkpt>
      <trkpt lat="42.8789450" lon="-8.5451420">
        <ele>251.4</ele>
        <time>2021-05-24T09:15:37Z</time>
      </trkpt>
      <trkpt lat="42.8789580" lon="-8.5451340">
        <ele>251.3</ele>
        <time>2021-05-24T09:15:38Z</time>
      </trkpt>
      <trkpt lat="42.8789610" lon="-8.5451260">
        <ele>251.3</ele>
        <time>2021-05-24T09:15:39Z</time>
      </trkpt>
      <trkpt lat="42.8789710" lon="-8.5451230">
        <ele>251.3</ele>
        <time>2021-05-24T09:15:40Z</time>
      </trkpt>
      <trkpt lat="42.8789860" lon="-8.5451290">
        <ele>251.3</ele>
        <time>2021-05-24T09:15:41Z</time>
      </trkpt>
      <trkpt lat="42.8789960" lon="-8.5451300">
        <ele>251.3</ele>
        <time>2021-05-24T09:15:42Z</time>
      </trkpt>
      <trkpt lat="42.8790010" lon="-8.5451340">
        <ele>251.3</ele>
        <time>2021-05-24T09:15:43Z</time>
      </trkpt>
      <trkpt lat="42.8790050" lon="-8.5451320">
        <ele>251.3</ele>
        <time>2021-05-24T09:15:44Z</time>
      </trkpt>
      <trkpt lat="42.8790060" lon="-8.5451220">
        <ele>251.3</ele>
        <time>2021-05-24T09:15:45Z</time>
      </trkpt>
      <trkpt lat="42.8789990" lon="-8.5451160">
        <ele>251.3</ele>
        <time>2021-05-24T09:15:46Z</time>
      </trkpt>
      <trkpt lat="42.8790110" lon="-8.5451130">
        <ele>251.2</ele>
        <time>2021-05-24T09:15:47Z</time>
      </trkpt>
      <trkpt lat="42.8790340" lon="-8.5451150">
        <ele>251.2</ele>
        <time>2021-05-24T09:15:48Z</time>
      </trkpt>
      <trkpt lat="42.8790430" lon="-8.5451180">
        <ele>251.2</ele>
        <time>2021-05-24T09:15:49Z</time>
      </trkpt>
      <trkpt lat="42.8790890" lon="-8.5451070">
        <ele>251.3</ele>
        <time>2021-05-24T09:15:50Z</time>
      </trkpt>
      <trkpt lat="42.8791160" lon="-8.5450990">
        <ele>251.3</ele>
        <time>2021-05-24T09:15:51Z</time>
      </trkpt>
      <trkpt lat="42.8791250" lon="-8.5450980">
        <ele>251.3</ele>
        <time>2021-05-24T09:15:52Z</time>
      </trkpt>
      <trkpt lat="42.8791360" lon="-8.5450990">
        <ele>251.3</ele>
        <time>2021-05-24T09:15:53Z</time>
      </trkpt>
      <trkpt lat="42.8791450" lon="-8.5450930">
        <ele>251.3</ele>
        <time>2021-05-24T09:15:54Z</time>
      </trkpt>
      <trkpt lat="42.8791510" lon="-8.5450840">
        <ele>251.3</ele>
        <time>2021-05-24T09:15:55Z</time>
      </trkpt>
      <trkpt lat="42.8791550" lon="-8.5450890">
        <ele>251.4</ele>
        <time>2021-05-24T09:15:56Z</time>
      </trkpt>
      <trkpt lat="42.8791710" lon="-8.5450940">
        <ele>251.4</ele>
        <time>2021-05-24T09:15:57Z</time>
      </trkpt>
      <trkpt lat="42.8791800" lon="-8.5450920">
        <ele>251.4</ele>
        <time>2021-05-24T09:15:58Z</time>
      </trkpt>
      <trkpt lat="42.8791990" lon="-8.5450870">
        <ele>251.4</ele>
        <time>2021-05-24T09:15:59Z</time>
      </trkpt>
      <trkpt lat="42.8792140" lon="-8.5450830">
        <ele>251.4</ele>
        <time>2021-05-24T09:16:00Z</time>
      </trkpt>
      <trkpt lat="42.8792300" lon="-8.5450780">
        <ele>251.5</ele>
        <time>2021-05-24T09:16:01Z</time>
      </trkpt>
      <trkpt lat="42.8792690" lon="-8.5450780">
        <ele>251.5</ele>
        <time>2021-05-24T09:16:02Z</time>
      </trkpt>
      <trkpt lat="42.8793020" lon="-8.5450790">
        <ele>251.6</ele>
        <time>2021-05-24T09:16:03Z</time>
      </trkpt>
      <trkpt lat="42.8793090" lon="-8.5450940">
        <ele>251.6</ele>
        <time>2021-05-24T09:16:04Z</time>
      </trkpt>
      <trkpt lat="42.8793260" lon="-8.5451020">
        <ele>251.7</ele>
        <time>2021-05-24T09:16:05Z</time>
      </trkpt>
      <trkpt lat="42.8793440" lon="-8.5451110">
        <ele>251.7</ele>
        <time>2021-05-24T09:16:06Z</time>
      </trkpt>
      <trkpt lat="42.8793610" lon="-8.5451200">
        <ele>251.8</ele>
        <time>2021-05-24T09:16:07Z</time>
      </trkpt>
      <trkpt lat="42.8794000" lon="-8.5451260">
        <ele>251.9</ele>
        <time>2021-05-24T09:16:08Z</time>
      </trkpt>
      <trkpt lat="42.8794360" lon="-8.5451390">
        <ele>252.0</ele>
        <time>2021-05-24T09:16:09Z</time>
      </trkpt>
      <trkpt lat="42.8794920" lon="-8.5451470">
        <ele>252.2</ele>
        <time>2021-05-24T09:16:10Z</time>
      </trkpt>
      <trkpt lat="42.8795240" lon="-8.5451220">
        <ele>252.3</ele>
        <time>2021-05-24T09:16:11Z</time>
      </trkpt>
      <trkpt lat="42.8795190" lon="-8.5450780">
        <ele>252.4</ele>
        <time>2021-05-24T09:16:12Z</time>
      </trkpt>
      <trkpt lat="42.8795190" lon="-8.5450630">
        <ele>252.5</ele>
        <time>2021-05-24T09:16:13Z</time>
      </trkpt>
      <trkpt lat="42.8795500" lon="-8.5450460">
        <ele>252.6</ele>
        <time>2021-05-24T09:16:14Z</time>
      </trkpt>
      <trkpt lat="42.8795670" lon="-8.5450340">
        <ele>252.6</ele>
        <time>2021-05-24T09:16:15Z</time>
      </trkpt>
      <trkpt lat="42.8795800" lon="-8.5450290">
        <ele>252.7</ele>
        <time>2021-05-24T09:16:16Z</time>
      </trkpt>
      <trkpt lat="42.8795940" lon="-8.5450250">
        <ele>252.7</ele>
        <time>2021-05-24T09:16:17Z</time>
      </trkpt>
      <trkpt lat="42.8796040" lon="-8.5450280">
        <ele>252.8</ele>
        <time>2021-05-24T09:16:18Z</time>
      </trkpt>
      <trkpt lat="42.8796110" lon="-8.5450170">
        <ele>252.8</ele>
        <time>2021-05-24T09:16:19Z</time>
      </trkpt>
      <trkpt lat="42.8796150" lon="-8.5450010">
        <ele>252.8</ele>
        <time>2021-05-24T09:16:20Z</time>
      </trkpt>
      <trkpt lat="42.8796450" lon="-8.5449940">
        <ele>252.9</ele>
        <time>2021-05-24T09:16:21Z</time>
      </trkpt>
      <trkpt lat="42.8796650" lon="-8.5449900">
        <ele>253.0</ele>
        <time>2021-05-24T09:16:22Z</time>
      </trkpt>
      <trkpt lat="42.8796770" lon="-8.5449880">
        <ele>253.1</ele>
        <time>2021-05-24T09:16:23Z</time>
      </trkpt>
      <trkpt lat="42.8796870" lon="-8.5449950">
        <ele>253.1</ele>
        <time>2021-05-24T09:16:24Z</time>
      </trkpt>
      <trkpt lat="42.8796920" lon="-8.5450030">
        <ele>253.1</ele>
        <time>2021-05-24T09:16:25Z</time>
      </trkpt>
      <trkpt lat="42.8796890" lon="-8.5450110">
        <ele>253.1</ele>
        <time>2021-05-24T09:16:26Z</time>
      </trkpt>
      <trkpt lat="42.8796960" lon="-8.5450180">
        <ele>253.2</ele>
        <time>2021-05-24T09:16:27Z</time>
      </trkpt>
      <trkpt lat="42.8797090" lon="-8.5450260">
        <ele>253.2</ele>
        <time>2021-05-24T09:16:28Z</time>
      </trkpt>
      <trkpt lat="42.8797150" lon="-8.5450350">
        <ele>253.2</ele>
        <time>2021-05-24T09:16:29Z</time>
      </trkpt>
      <trkpt lat="42.8797260" lon="-8.5450420">
        <ele>253.3</ele>
        <time>2021-05-24T09:16:30Z</time>
      </trkpt>
      <trkpt lat="42.8797620" lon="-8.5450460">
        <ele>253.4</ele>
        <time>2021-05-24T09:16:31Z</time>
      </trkpt>
      <trkpt lat="42.8797750" lon="-8.5450520">
        <ele>253.4</ele>
        <time>2021-05-24T09:16:32Z</time>
      </trkpt>
      <trkpt lat="42.8797930" lon="-8.5450570">
        <ele>253.5</ele>
        <time>2021-05-24T09:16:33Z</time>
      </trkpt>
      <trkpt lat="42.8798100" lon="-8.5450630">
        <ele>253.5</ele>
        <time>2021-05-24T09:16:34Z</time>
      </trkpt>
      <trkpt lat="42.8798410" lon="-8.5450700">
        <ele>253.6</ele>
        <time>2021-05-24T09:16:35Z</time>
      </trkpt>
      <trkpt lat="42.8798510" lon="-8.5450740">
        <ele>253.8</ele>
        <time>2021-05-24T09:16:36Z</time>
      </trkpt>
      <trkpt lat="42.8798760" lon="-8.5450730">
        <ele>253.8</ele>
        <time>2021-05-24T09:16:37Z</time>
      </trkpt>
      <trkpt lat="42.8798850" lon="-8.5450780">
        <ele>253.8</ele>
        <time>2021-05-24T09:16:38Z</time>
      </trkpt>
      <trkpt lat="42.8798950" lon="-8.5450830">
        <ele>253.8</ele>
        <time>2021-05-24T09:16:39Z</time>
      </trkpt>
      <trkpt lat="42.8799030" lon="-8.5450890">
        <ele>253.9</ele>
        <time>2021-05-24T09:16:40Z</time>
      </trkpt>
      <trkpt lat="42.8799140" lon="-8.5451180">
        <ele>253.9</ele>
        <time>2021-05-24T09:16:41Z</time>
      </trkpt>
      <trkpt lat="42.8799300" lon="-8.5451300">
        <ele>253.9</ele>
        <time>2021-05-24T09:16:42Z</time>
      </trkpt>
      <trkpt lat="42.8799410" lon="-8.5451320">
        <ele>253.9</ele>
        <time>2021-05-24T09:16:43Z</time>
      </trkpt>
      <trkpt lat="42.8799520" lon="-8.5451350">
        <ele>254.0</ele>
        <time>2021-05-24T09:16:44Z</time>
      </trkpt>
      <trkpt lat="42.8799730" lon="-8.5451270">
        <ele>254.0</ele>
        <time>2021-05-24T09:16:45Z</time>
      </trkpt>
      <trkpt lat="42.8799860" lon="-8.5451250">
        <ele>254.0</ele>
        <time>2021-05-24T09:16:46Z</time>
      </trkpt>
      <trkpt lat="42.8800240" lon="-8.5451340">
        <ele>254.1</ele>
        <time>2021-05-24T09:16:47Z</time>
      </trkpt>
      <trkpt lat="42.8800380" lon="-8.5451370">
        <ele>254.1</ele>
        <time>2021-05-24T09:16:48Z</time>
      </trkpt>
      <trkpt lat="42.8800730" lon="-8.5451340">
        <ele>254.1</ele>
        <time>2021-05-24T09:16:49Z</time>
      </trkpt>
      <trkpt lat="42.8800860" lon="-8.5451370">
        <ele>254.1</ele>
        <time>2021-05-24T09:16:50Z</time>
      </trkpt>
      <trkpt lat="42.8801170" lon="-8.5451270">
        <ele>254.2</ele>
        <time>2021-05-24T09:16:51Z</time>
      </trkpt>
      <trkpt lat="42.8801270" lon="-8.5451290">
        <ele>254.2</ele>
        <time>2021-05-24T09:16:52Z</time>
      </trkpt>
      <trkpt lat="42.8801580" lon="-8.5451360">
        <ele>254.2</ele>
        <time>2021-05-24T09:16:53Z</time>
      </trkpt>
      <trkpt lat="42.8801680" lon="-8.5451350">
        <ele>254.2</ele>
        <time>2021-05-24T09:16:54Z</time>
      </trkpt>
      <trkpt lat="42.8801950" lon="-8.5451490">
        <ele>254.2</ele>
        <time>2021-05-24T09:16:55Z</time>
      </trkpt>
      <trkpt lat="42.8802040" lon="-8.5451590">
        <ele>254.2</ele>
        <time>2021-05-24T09:16:56Z</time>
      </trkpt>
      <trkpt lat="42.8802260" lon="-8.5451830">
        <ele>254.2</ele>
        <time>2021-05-24T09:16:57Z</time>
      </trkpt>
      <trkpt lat="42.8802360" lon="-8.5451870">
        <ele>254.2</ele>
        <time>2021-05-24T09:16:58Z</time>
      </trkpt>
      <trkpt lat="42.8802490" lon="-8.5452090">
        <ele>254.2</ele>
        <time>2021-05-24T09:16:59Z</time>
      </trkpt>
      <trkpt lat="42.8802550" lon="-8.5452170">
        <ele>254.2</ele>
        <time>2021-05-24T09:17:00Z</time>
      </trkpt>
      <trkpt lat="42.8802600" lon="-8.5452260">
        <ele>254.2</ele>
        <time>2021-05-24T09:17:01Z</time>
      </trkpt>
      <trkpt lat="42.8802670" lon="-8.5452430">
        <ele>254.2</ele>
        <time>2021-05-24T09:17:02Z</time>
      </trkpt>
      <trkpt lat="42.8802670" lon="-8.5452670">
        <ele>254.2</ele>
        <time>2021-05-24T09:17:03Z</time>
      </trkpt>
      <trkpt lat="42.8802560" lon="-8.5453190">
        <ele>254.2</ele>
        <time>2021-05-24T09:17:04Z</time>
      </trkpt>
      <trkpt lat="42.8802510" lon="-8.5453340">
        <ele>254.2</ele>
        <time>2021-05-24T09:17:05Z</time>
      </trkpt>
      <trkpt lat="42.8802450" lon="-8.5453670">
        <ele>254.3</ele>
        <time>2021-05-24T09:17:06Z</time>
      </trkpt>
      <trkpt lat="42.8802440" lon="-8.5453710">
        <ele>254.3</ele>
        <time>2021-05-24T09:17:07Z</time>
      </trkpt>
      <trkpt lat="42.8802510" lon="-8.5453840">
        <ele>254.3</ele>
        <time>2021-05-24T09:17:08Z</time>
      </trkpt>
      <trkpt lat="42.8802510" lon="-8.5454040">
        <ele>254.3</ele>
        <time>2021-05-24T09:17:09Z</time>
      </trkpt>
      <trkpt lat="42.8802550" lon="-8.5454110">
        <ele>254.3</ele>
        <time>2021-05-24T09:17:10Z</time>
      </trkpt>
      <trkpt lat="42.8802600" lon="-8.5454310">
        <ele>254.3</ele>
        <time>2021-05-24T09:17:11Z</time>
      </trkpt>
      <trkpt lat="42.8802670" lon="-8.5454550">
        <ele>254.3</ele>
        <time>2021-05-24T09:17:12Z</time>
      </trkpt>
      <trkpt lat="42.8802750" lon="-8.5454770">
        <ele>254.3</ele>
        <time>2021-05-24T09:17:13Z</time>
      </trkpt>
      <trkpt lat="42.8802780" lon="-8.5454920">
        <ele>254.3</ele>
        <time>2021-05-24T09:17:14Z</time>
      </trkpt>
      <trkpt lat="42.8802800" lon="-8.5455060">
        <ele>254.3</ele>
        <time>2021-05-24T09:17:15Z</time>
      </trkpt>
      <trkpt lat="42.8802890" lon="-8.5455220">
        <ele>254.3</ele>
        <time>2021-05-24T09:17:16Z</time>
      </trkpt>
      <trkpt lat="42.8802920" lon="-8.5455340">
        <ele>254.3</ele>
        <time>2021-05-24T09:17:17Z</time>
      </trkpt>
      <trkpt lat="42.8803030" lon="-8.5455440">
        <ele>254.3</ele>
        <time>2021-05-24T09:17:18Z</time>
      </trkpt>
      <trkpt lat="42.8803060" lon="-8.5455730">
        <ele>254.3</ele>
        <time>2021-05-24T09:17:19Z</time>
      </trkpt>
      <trkpt lat="42.8803110" lon="-8.5455920">
        <ele>254.3</ele>
        <time>2021-05-24T09:17:20Z</time>
      </trkpt>
      <trkpt lat="42.8803160" lon="-8.5456280">
        <ele>254.3</ele>
        <time>2021-05-24T09:17:21Z</time>
      </trkpt>
      <trkpt lat="42.8803180" lon="-8.5456420">
        <ele>254.3</ele>
        <time>2021-05-24T09:17:22Z</time>
      </trkpt>
      <trkpt lat="42.8803280" lon="-8.5456610">
        <ele>254.3</ele>
        <time>2021-05-24T09:17:23Z</time>
      </trkpt>
      <trkpt lat="42.8803370" lon="-8.5456720">
        <ele>254.3</ele>
        <time>2021-05-24T09:17:24Z</time>
      </trkpt>
      <trkpt lat="42.8803450" lon="-8.5456800">
        <ele>254.3</ele>
        <time>2021-05-24T09:17:25Z</time>
      </trkpt>
      <trkpt lat="42.8803510" lon="-8.5457020">
        <ele>254.3</ele>
        <time>2021-05-24T09:17:26Z</time>
      </trkpt>
      <trkpt lat="42.8803650" lon="-8.5457020">
        <ele>254.3</ele>
        <time>2021-05-24T09:17:27Z</time>
      </trkpt>
      <trkpt lat="42.8803820" lon="-8.5457160">
        <ele>254.3</ele>
        <time>2021-05-24T09:17:28Z</time>
      </trkpt>
      <trkpt lat="42.8803870" lon="-8.5457300">
        <ele>254.3</ele>
        <time>2021-05-24T09:17:29Z</time>
      </trkpt>
      <trkpt lat="42.8803920" lon="-8.5457430">
        <ele>254.3</ele>
        <time>2021-05-24T09:17:30Z</time>
      </trkpt>
      <trkpt lat="42.8804080" lon="-8.5457560">
        <ele>254.3</ele>
        <time>2021-05-24T09:17:31Z</time>
      </trkpt>
    </trkseg>
  </trk>
</gpx>
